<?xml version="1.0" encoding="UTF-8"?>
<gpx
  version="1.0"
  creator="pymavlink"
  xmlns:xsi="http://www.w3.org/2001/XMLSchema-instance"
  xmlns="http://www.topografix.com/GPX/1/0"
  xsi:schemaLocation="http://www.topografix.com/GPX/1/0 http://www.topografix.com/GPX/1/0/gpx.xsd">
<trk>
<trkseg>
<trkpt lat="33.4368002" lon="-117.0859339">
  <ele>-0.11</ele>
  <time>2026-09-02T22:06:27Z</time>
  <course>0.0</course>
  <speed>0.0</speed>
  <fix>3d</fix>
</trkpt>
<trkpt lat="33.4368002" lon="-117.0859339">
  <ele>-0.11</ele>
  <time>2026-09-02T22:06:27Z</time>
  <course>0.0</course>
  <speed>0.0</speed>
  <fix>3d</fix>
</trkpt>
<trkpt lat="33.810313" lon="-118.393867">
  <ele>0.0</ele>
  <time>2026-09-02T22:06:27Z</time>
  <course>173.5</course>
  <speed>0.0</speed>
  <fix>3d</fix>
</trkpt>
<trkpt lat="33.810313" lon="-118.393867">
  <ele>-0.11</ele>
  <time>2026-09-02T22:06:27Z</time>
  <course>0.0</course>
  <speed>0.0</speed>
  <fix>3d</fix>
</trkpt>
<trkpt lat="33.810313" lon="-118.393867">
  <ele>0.0</ele>
  <time>2026-09-02T22:06:27Z</time>
  <course>173.64</course>
  <speed>0.0</speed>
  <fix>3d</fix>
</trkpt>
<trkpt lat="33.810313" lon="-118.393867">
  <ele>-0.11</ele>
  <time>2026-09-02T22:06:27Z</time>
  <course>0.0</course>
  <speed>0.0</speed>
  <fix>3d</fix>
</trkpt>
<trkpt lat="33.810313" lon="-118.393867">
  <ele>0.0</ele>
  <time>2026-09-02T22:06:27Z</time>
  <course>174.03</course>
  <speed>0.0</speed>
  <fix>3d</fix>
</trkpt>
<trkpt lat="33.810313" lon="-118.393867">
  <ele>-0.11</ele>
  <time>2026-09-02T22:06:27Z</time>
  <course>0.0</course>
  <speed>0.0</speed>
  <fix>3d</fix>
</trkpt>
<trkpt lat="33.810313" lon="-118.393867">
  <ele>0.0</ele>
  <time>2026-09-02T22:06:27Z</time>
  <course>174.57</course>
  <speed>0.0</speed>
  <fix>3d</fix>
</trkpt>
<trkpt lat="33.810313" lon="-118.393867">
  <ele>-0.11</ele>
  <time>2026-09-02T22:06:27Z</time>
  <course>0.0</course>
  <speed>0.0</speed>
  <fix>3d</fix>
</trkpt>
<trkpt lat="33.810313" lon="-118.393867">
  <ele>0.0</ele>
  <time>2026-09-02T22:06:27Z</time>
  <course>175.13</course>
  <speed>0.0</speed>
  <fix>3d</fix>
</trkpt>
<trkpt lat="33.810313" lon="-118.393867">
  <ele>-0.12</ele>
  <time>2026-09-02T22:06:27Z</time>
  <course>0.0</course>
  <speed>0.0</speed>
  <fix>3d</fix>
</trkpt>
<trkpt lat="33.810313" lon="-118.393867">
  <ele>0.0</ele>
  <time>2026-09-02T22:06:27Z</time>
  <course>175.67</course>
  <speed>0.0</speed>
  <fix>3d</fix>
</trkpt>
<trkpt lat="33.810313" lon="-118.393867">
  <ele>-0.12</ele>
  <time>2026-09-02T22:06:27Z</time>
  <course>0.0</course>
  <speed>0.0</speed>
  <fix>3d</fix>
</trkpt>
<trkpt lat="33.810313" lon="-118.393867">
  <ele>0.0</ele>
  <time>2026-09-02T22:06:27Z</time>
  <course>176.17</course>
  <speed>0.0</speed>
  <fix>3d</fix>
</trkpt>
<trkpt lat="33.810313" lon="-118.393867">
  <ele>-0.13</ele>
  <time>2026-09-02T22:06:27Z</time>
  <course>0.0</course>
  <speed>0.0</speed>
  <fix>3d</fix>
</trkpt>
<trkpt lat="33.810313" lon="-118.393867">
  <ele>0.0</ele>
  <time>2026-09-02T22:06:27Z</time>
  <course>176.65</course>
  <speed>0.0</speed>
  <fix>3d</fix>
</trkpt>
<trkpt lat="33.810313" lon="-118.393867">
  <ele>-0.13</ele>
  <time>2026-09-02T22:06:27Z</time>
  <course>0.0</course>
  <speed>0.0</speed>
  <fix>3d</fix>
</trkpt>
<trkpt lat="33.810313" lon="-118.393867">
  <ele>0.0</ele>
  <time>2026-09-02T22:06:27Z</time>
  <course>177.12</course>
  <speed>0.0</speed>
  <fix>3d</fix>
</trkpt>
<trkpt lat="33.810313" lon="-118.393867">
  <ele>-0.13</ele>
  <time>2026-09-02T22:06:27Z</time>
  <course>0.0</course>
  <speed>0.0</speed>
  <fix>3d</fix>
</trkpt>
<trkpt lat="33.810313" lon="-118.393867">
  <ele>0.0</ele>
  <time>2026-09-02T22:06:27Z</time>
  <course>177.57</course>
  <speed>0.0</speed>
  <fix>3d</fix>
</trkpt>
<trkpt lat="33.810313" lon="-118.393867">
  <ele>-0.13</ele>
  <time>2026-09-02T22:06:27Z</time>
  <course>0.0</course>
  <speed>0.0</speed>
  <fix>3d</fix>
</trkpt>
<trkpt lat="33.810313" lon="-118.393867">
  <ele>0.0</ele>
  <time>2026-09-02T22:06:27Z</time>
  <course>178.02</course>
  <speed>0.0</speed>
  <fix>3d</fix>
</trkpt>
<trkpt lat="33.810313" lon="-118.393867">
  <ele>-0.14</ele>
  <time>2026-09-02T22:06:27Z</time>
  <course>0.0</course>
  <speed>0.0</speed>
  <fix>3d</fix>
</trkpt>
<trkpt lat="33.810313" lon="-118.393867">
  <ele>0.0</ele>
  <time>2026-09-02T22:06:27Z</time>
  <course>178.45</course>
  <speed>0.0</speed>
  <fix>3d</fix>
</trkpt>
<trkpt lat="33.810313" lon="-118.393867">
  <ele>-0.14</ele>
  <time>2026-09-02T22:06:27Z</time>
  <course>0.0</course>
  <speed>0.0</speed>
  <fix>3d</fix>
</trkpt>
<trkpt lat="33.810313" lon="-118.393867">
  <ele>0.0</ele>
  <time>2026-09-02T22:06:27Z</time>
  <course>178.87</course>
  <speed>0.0</speed>
  <fix>3d</fix>
</trkpt>
<trkpt lat="33.810313" lon="-118.393867">
  <ele>-0.14</ele>
  <time>2026-09-02T22:06:27Z</time>
  <course>0.0</course>
  <speed>0.0</speed>
  <fix>3d</fix>
</trkpt>
<trkpt lat="33.810313" lon="-118.393867">
  <ele>0.0</ele>
  <time>2026-09-02T22:06:27Z</time>
  <course>179.27</course>
  <speed>0.0</speed>
  <fix>3d</fix>
</trkpt>
<trkpt lat="33.810313" lon="-118.393867">
  <ele>-0.14</ele>
  <time>2026-09-02T22:06:27Z</time>
  <course>0.0</course>
  <speed>0.0</speed>
  <fix>3d</fix>
</trkpt>
<trkpt lat="33.810313" lon="-118.393867">
  <ele>0.0</ele>
  <time>2026-09-02T22:06:27Z</time>
  <course>179.66</course>
  <speed>0.0</speed>
  <fix>3d</fix>
</trkpt>
<trkpt lat="33.810313" lon="-118.393867">
  <ele>-0.14</ele>
  <time>2026-09-02T22:06:27Z</time>
  <course>0.0</course>
  <speed>0.0</speed>
  <fix>3d</fix>
</trkpt>
<trkpt lat="33.810313" lon="-118.393867">
  <ele>0.0</ele>
  <time>2026-09-02T22:06:27Z</time>
  <course>180.05</course>
  <speed>0.0</speed>
  <fix>3d</fix>
</trkpt>
<trkpt lat="33.810313" lon="-118.393867">
  <ele>-0.14</ele>
  <time>2026-09-02T22:06:27Z</time>
  <course>0.0</course>
  <speed>0.0</speed>
  <fix>3d</fix>
</trkpt>
<trkpt lat="33.810313" lon="-118.393867">
  <ele>0.0</ele>
  <time>2026-09-02T22:06:27Z</time>
  <course>180.41</course>
  <speed>0.0</speed>
  <fix>3d</fix>
</trkpt>
<trkpt lat="33.810313" lon="-118.393867">
  <ele>-0.14</ele>
  <time>2026-09-02T22:06:27Z</time>
  <course>0.0</course>
  <speed>0.0</speed>
  <fix>3d</fix>
</trkpt>
<trkpt lat="33.810313" lon="-118.393867">
  <ele>0.0</ele>
  <time>2026-09-02T22:06:27Z</time>
  <course>180.76</course>
  <speed>0.0</speed>
  <fix>3d</fix>
</trkpt>
<trkpt lat="33.810313" lon="-118.393867">
  <ele>-0.14</ele>
  <time>2026-09-02T22:06:27Z</time>
  <course>0.0</course>
  <speed>0.0</speed>
  <fix>3d</fix>
</trkpt>
<trkpt lat="33.810313" lon="-118.393867">
  <ele>0.0</ele>
  <time>2026-09-02T22:06:27Z</time>
  <course>181.1</course>
  <speed>0.0</speed>
  <fix>3d</fix>
</trkpt>
<trkpt lat="33.810313" lon="-118.393867">
  <ele>-0.13</ele>
  <time>2026-09-02T22:06:27Z</time>
  <course>0.0</course>
  <speed>0.0</speed>
  <fix>3d</fix>
</trkpt>
<trkpt lat="33.810313" lon="-118.393867">
  <ele>0.0</ele>
  <time>2026-09-02T22:06:27Z</time>
  <course>181.43</course>
  <speed>0.0</speed>
  <fix>3d</fix>
</trkpt>
<trkpt lat="33.810313" lon="-118.393867">
  <ele>-0.13</ele>
  <time>2026-09-02T22:06:27Z</time>
  <course>0.0</course>
  <speed>0.0</speed>
  <fix>3d</fix>
</trkpt>
<trkpt lat="33.810313" lon="-118.393867">
  <ele>0.0</ele>
  <time>2026-09-02T22:06:27Z</time>
  <course>181.75</course>
  <speed>0.0</speed>
  <fix>3d</fix>
</trkpt>
<trkpt lat="33.810313" lon="-118.393867">
  <ele>-0.12</ele>
  <time>2026-09-02T22:06:27Z</time>
  <course>0.0</course>
  <speed>0.0</speed>
  <fix>3d</fix>
</trkpt>
<trkpt lat="33.810313" lon="-118.393867">
  <ele>0.0</ele>
  <time>2026-09-02T22:06:27Z</time>
  <course>182.05</course>
  <speed>0.0</speed>
  <fix>3d</fix>
</trkpt>
<trkpt lat="33.810313" lon="-118.393867">
  <ele>-0.12</ele>
  <time>2026-09-02T22:06:27Z</time>
  <course>0.0</course>
  <speed>0.0</speed>
  <fix>3d</fix>
</trkpt>
<trkpt lat="33.810313" lon="-118.393867">
  <ele>0.0</ele>
  <time>2026-09-02T22:06:27Z</time>
  <course>182.35</course>
  <speed>0.0</speed>
  <fix>3d</fix>
</trkpt>
<trkpt lat="33.810313" lon="-118.393867">
  <ele>-0.12</ele>
  <time>2026-09-02T22:06:27Z</time>
  <course>0.0</course>
  <speed>0.0</speed>
  <fix>3d</fix>
</trkpt>
<trkpt lat="33.810313" lon="-118.393867">
  <ele>0.0</ele>
  <time>2026-09-02T22:06:27Z</time>
  <course>182.63</course>
  <speed>0.0</speed>
  <fix>3d</fix>
</trkpt>
<trkpt lat="33.810313" lon="-118.393867">
  <ele>-0.12</ele>
  <time>2026-09-02T22:06:27Z</time>
  <course>0.0</course>
  <speed>0.0</speed>
  <fix>3d</fix>
</trkpt>
<trkpt lat="33.810313" lon="-118.393867">
  <ele>0.0</ele>
  <time>2026-09-02T22:06:27Z</time>
  <course>182.9</course>
  <speed>0.0</speed>
  <fix>3d</fix>
</trkpt>
<trkpt lat="33.810313" lon="-118.393867">
  <ele>-0.11</ele>
  <time>2026-09-02T22:06:27Z</time>
  <course>0.0</course>
  <speed>0.0</speed>
  <fix>3d</fix>
</trkpt>
<trkpt lat="33.810313" lon="-118.393867">
  <ele>0.0</ele>
  <time>2026-09-02T22:06:27Z</time>
  <course>183.16</course>
  <speed>0.0</speed>
  <fix>3d</fix>
</trkpt>
<trkpt lat="33.810313" lon="-118.393867">
  <ele>-0.11</ele>
  <time>2026-09-02T22:06:27Z</time>
  <course>0.0</course>
  <speed>0.0</speed>
  <fix>3d</fix>
</trkpt>
<trkpt lat="33.810313" lon="-118.393867">
  <ele>0.0</ele>
  <time>2026-09-02T22:06:27Z</time>
  <course>183.41</course>
  <speed>0.0</speed>
  <fix>3d</fix>
</trkpt>
<trkpt lat="33.810313" lon="-118.393867">
  <ele>-0.11</ele>
  <time>2026-09-02T22:06:27Z</time>
  <course>0.0</course>
  <speed>0.0</speed>
  <fix>3d</fix>
</trkpt>
<trkpt lat="33.810313" lon="-118.393867">
  <ele>0.0</ele>
  <time>2026-09-02T22:06:27Z</time>
  <course>183.65</course>
  <speed>0.0</speed>
  <fix>3d</fix>
</trkpt>
<trkpt lat="33.810313" lon="-118.393867">
  <ele>-0.11</ele>
  <time>2026-09-02T22:06:27Z</time>
  <course>0.0</course>
  <speed>0.0</speed>
  <fix>3d</fix>
</trkpt>
<trkpt lat="33.810313" lon="-118.393867">
  <ele>0.0</ele>
  <time>2026-09-02T22:06:27Z</time>
  <course>183.88</course>
  <speed>0.0</speed>
  <fix>3d</fix>
</trkpt>
<trkpt lat="33.810313" lon="-118.393867">
  <ele>-0.12</ele>
  <time>2026-09-02T22:06:27Z</time>
  <course>0.0</course>
  <speed>0.0</speed>
  <fix>3d</fix>
</trkpt>
<trkpt lat="33.810313" lon="-118.393867">
  <ele>0.0</ele>
  <time>2026-09-02T22:06:27Z</time>
  <course>184.11</course>
  <speed>0.0</speed>
  <fix>3d</fix>
</trkpt>
<trkpt lat="33.810313" lon="-118.393867">
  <ele>-0.12</ele>
  <time>2026-09-02T22:06:27Z</time>
  <course>0.0</course>
  <speed>0.0</speed>
  <fix>3d</fix>
</trkpt>
<trkpt lat="33.810313" lon="-118.393867">
  <ele>0.0</ele>
  <time>2026-09-02T22:06:27Z</time>
  <course>184.32</course>
  <speed>0.0</speed>
  <fix>3d</fix>
</trkpt>
<trkpt lat="33.810313" lon="-118.393867">
  <ele>-0.13</ele>
  <time>2026-09-02T22:06:27Z</time>
  <course>0.0</course>
  <speed>0.0</speed>
  <fix>3d</fix>
</trkpt>
<trkpt lat="33.810313" lon="-118.393867">
  <ele>0.0</ele>
  <time>2026-09-02T22:06:27Z</time>
  <course>184.52</course>
  <speed>0.0</speed>
  <fix>3d</fix>
</trkpt>
<trkpt lat="33.810313" lon="-118.393867">
  <ele>-0.13</ele>
  <time>2026-09-02T22:06:27Z</time>
  <course>0.0</course>
  <speed>0.0</speed>
  <fix>3d</fix>
</trkpt>
<trkpt lat="33.810313" lon="-118.393867">
  <ele>0.0</ele>
  <time>2026-09-02T22:06:27Z</time>
  <course>184.72</course>
  <speed>0.0</speed>
  <fix>3d</fix>
</trkpt>
<trkpt lat="33.810313" lon="-118.393867">
  <ele>-0.13</ele>
  <time>2026-09-02T22:06:27Z</time>
  <course>0.0</course>
  <speed>0.0</speed>
  <fix>3d</fix>
</trkpt>
<trkpt lat="33.810313" lon="-118.393867">
  <ele>0.0</ele>
  <time>2026-09-02T22:06:27Z</time>
  <course>184.91</course>
  <speed>0.0</speed>
  <fix>3d</fix>
</trkpt>
<trkpt lat="33.810313" lon="-118.393867">
  <ele>-0.13</ele>
  <time>2026-09-02T22:06:27Z</time>
  <course>0.0</course>
  <speed>0.0</speed>
  <fix>3d</fix>
</trkpt>
<trkpt lat="33.810313" lon="-118.393867">
  <ele>0.0</ele>
  <time>2026-09-02T22:06:27Z</time>
  <course>185.09</course>
  <speed>0.0</speed>
  <fix>3d</fix>
</trkpt>
<trkpt lat="33.810313" lon="-118.393867">
  <ele>-0.14</ele>
  <time>2026-09-02T22:06:27Z</time>
  <course>0.0</course>
  <speed>0.0</speed>
  <fix>3d</fix>
</trkpt>
<trkpt lat="33.810313" lon="-118.393867">
  <ele>0.0</ele>
  <time>2026-09-02T22:06:27Z</time>
  <course>185.26</course>
  <speed>0.0</speed>
  <fix>3d</fix>
</trkpt>
<trkpt lat="33.810313" lon="-118.393867">
  <ele>-0.14</ele>
  <time>2026-09-02T22:06:27Z</time>
  <course>0.0</course>
  <speed>0.0</speed>
  <fix>3d</fix>
</trkpt>
<trkpt lat="33.810313" lon="-118.393867">
  <ele>0.0</ele>
  <time>2026-09-02T22:06:27Z</time>
  <course>185.42</course>
  <speed>0.0</speed>
  <fix>3d</fix>
</trkpt>
<trkpt lat="33.810313" lon="-118.393867">
  <ele>-0.13</ele>
  <time>2026-09-02T22:06:27Z</time>
  <course>0.0</course>
  <speed>0.0</speed>
  <fix>3d</fix>
</trkpt>
<trkpt lat="33.810313" lon="-118.393867">
  <ele>0.0</ele>
  <time>2026-09-02T22:06:27Z</time>
  <course>185.58</course>
  <speed>0.0</speed>
  <fix>3d</fix>
</trkpt>
<trkpt lat="33.810313" lon="-118.393867">
  <ele>-0.13</ele>
  <time>2026-09-02T22:06:27Z</time>
  <course>0.0</course>
  <speed>0.0</speed>
  <fix>3d</fix>
</trkpt>
<trkpt lat="33.810313" lon="-118.393867">
  <ele>0.0</ele>
  <time>2026-09-02T22:06:27Z</time>
  <course>185.73</course>
  <speed>0.0</speed>
  <fix>3d</fix>
</trkpt>
<trkpt lat="33.810313" lon="-118.393867">
  <ele>-0.13</ele>
  <time>2026-09-02T22:06:27Z</time>
  <course>0.0</course>
  <speed>0.0</speed>
  <fix>3d</fix>
</trkpt>
<trkpt lat="33.810313" lon="-118.393867">
  <ele>0.0</ele>
  <time>2026-09-02T22:06:27Z</time>
  <course>185.87</course>
  <speed>0.0</speed>
  <fix>3d</fix>
</trkpt>
<trkpt lat="33.810313" lon="-118.393867">
  <ele>-0.13</ele>
  <time>2026-09-02T22:06:27Z</time>
  <course>0.0</course>
  <speed>0.0</speed>
  <fix>3d</fix>
</trkpt>
<trkpt lat="33.810313" lon="-118.393867">
  <ele>0.0</ele>
  <time>2026-09-02T22:06:27Z</time>
  <course>186.01</course>
  <speed>0.0</speed>
  <fix>3d</fix>
</trkpt>
<trkpt lat="33.810313" lon="-118.393867">
  <ele>-0.12</ele>
  <time>2026-09-02T22:06:27Z</time>
  <course>0.0</course>
  <speed>0.0</speed>
  <fix>3d</fix>
</trkpt>
<trkpt lat="33.810313" lon="-118.393867">
  <ele>0.0</ele>
  <time>2026-09-02T22:06:27Z</time>
  <course>186.14</course>
  <speed>0.0</speed>
  <fix>3d</fix>
</trkpt>
<trkpt lat="33.810313" lon="-118.393867">
  <ele>-0.12</ele>
  <time>2026-09-02T22:06:27Z</time>
  <course>0.0</course>
  <speed>0.0</speed>
  <fix>3d</fix>
</trkpt>
<trkpt lat="33.810313" lon="-118.393867">
  <ele>0.0</ele>
  <time>2026-09-02T22:06:27Z</time>
  <course>186.27</course>
  <speed>0.0</speed>
  <fix>3d</fix>
</trkpt>
<trkpt lat="33.810313" lon="-118.393867">
  <ele>-0.12</ele>
  <time>2026-09-02T22:06:27Z</time>
  <course>0.0</course>
  <speed>0.0</speed>
  <fix>3d</fix>
</trkpt>
<trkpt lat="33.810313" lon="-118.393867">
  <ele>0.0</ele>
  <time>2026-09-02T22:06:27Z</time>
  <course>186.39</course>
  <speed>0.0</speed>
  <fix>3d</fix>
</trkpt>
<trkpt lat="33.810313" lon="-118.393867">
  <ele>-0.12</ele>
  <time>2026-09-02T22:06:27Z</time>
  <course>0.0</course>
  <speed>0.0</speed>
  <fix>3d</fix>
</trkpt>
<trkpt lat="33.810313" lon="-118.393867">
  <ele>0.0</ele>
  <time>2026-09-02T22:06:27Z</time>
  <course>186.5</course>
  <speed>0.0</speed>
  <fix>3d</fix>
</trkpt>
<trkpt lat="33.810313" lon="-118.393867">
  <ele>-0.12</ele>
  <time>2026-09-02T22:06:27Z</time>
  <course>0.0</course>
  <speed>0.0</speed>
  <fix>3d</fix>
</trkpt>
<trkpt lat="33.810313" lon="-118.393867">
  <ele>0.0</ele>
  <time>2026-09-02T22:06:27Z</time>
  <course>186.61</course>
  <speed>0.0</speed>
  <fix>3d</fix>
</trkpt>
<trkpt lat="33.810313" lon="-118.393867">
  <ele>-0.12</ele>
  <time>2026-09-02T22:06:27Z</time>
  <course>0.0</course>
  <speed>0.0</speed>
  <fix>3d</fix>
</trkpt>
<trkpt lat="33.810313" lon="-118.393867">
  <ele>0.0</ele>
  <time>2026-09-02T22:06:27Z</time>
  <course>186.72</course>
  <speed>0.0</speed>
  <fix>3d</fix>
</trkpt>
<trkpt lat="33.810313" lon="-118.393867">
  <ele>-0.12</ele>
  <time>2026-09-02T22:06:27Z</time>
  <course>0.0</course>
  <speed>0.0</speed>
  <fix>3d</fix>
</trkpt>
<trkpt lat="33.810313" lon="-118.393867">
  <ele>0.0</ele>
  <time>2026-09-02T22:06:27Z</time>
  <course>186.82</course>
  <speed>0.0</speed>
  <fix>3d</fix>
</trkpt>
<trkpt lat="33.810313" lon="-118.393867">
  <ele>-0.12</ele>
  <time>2026-09-02T22:06:27Z</time>
  <course>0.0</course>
  <speed>0.0</speed>
  <fix>3d</fix>
</trkpt>
<trkpt lat="33.810313" lon="-118.393867">
  <ele>0.0</ele>
  <time>2026-09-02T22:06:27Z</time>
  <course>186.91</course>
  <speed>0.0</speed>
  <fix>3d</fix>
</trkpt>
<trkpt lat="33.810313" lon="-118.393867">
  <ele>-0.12</ele>
  <time>2026-09-02T22:06:27Z</time>
  <course>0.0</course>
  <speed>0.0</speed>
  <fix>3d</fix>
</trkpt>
<trkpt lat="33.810313" lon="-118.393867">
  <ele>0.0</ele>
  <time>2026-09-02T22:06:28Z</time>
  <course>187.0</course>
  <speed>0.0</speed>
  <fix>3d</fix>
</trkpt>
<trkpt lat="33.810313" lon="-118.393867">
  <ele>-0.12</ele>
  <time>2026-09-02T22:06:28Z</time>
  <course>0.0</course>
  <speed>0.0</speed>
  <fix>3d</fix>
</trkpt>
<trkpt lat="33.810313" lon="-118.393867">
  <ele>0.0</ele>
  <time>2026-09-02T22:06:28Z</time>
  <course>187.09</course>
  <speed>0.0</speed>
  <fix>3d</fix>
</trkpt>
<trkpt lat="33.810313" lon="-118.393867">
  <ele>-0.13</ele>
  <time>2026-09-02T22:06:28Z</time>
  <course>0.0</course>
  <speed>0.0</speed>
  <fix>3d</fix>
</trkpt>
<trkpt lat="33.810313" lon="-118.393867">
  <ele>0.0</ele>
  <time>2026-09-02T22:06:28Z</time>
  <course>187.17</course>
  <speed>0.0</speed>
  <fix>3d</fix>
</trkpt>
<trkpt lat="33.810313" lon="-118.393867">
  <ele>-0.13</ele>
  <time>2026-09-02T22:06:28Z</time>
  <course>0.0</course>
  <speed>0.0</speed>
  <fix>3d</fix>
</trkpt>
<trkpt lat="33.810313" lon="-118.393867">
  <ele>0.0</ele>
  <time>2026-09-02T22:06:28Z</time>
  <course>187.25</course>
  <speed>0.0</speed>
  <fix>3d</fix>
</trkpt>
<trkpt lat="33.810313" lon="-118.393867">
  <ele>-0.13</ele>
  <time>2026-09-02T22:06:28Z</time>
  <course>0.0</course>
  <speed>0.0</speed>
  <fix>3d</fix>
</trkpt>
<trkpt lat="33.810313" lon="-118.393867">
  <ele>0.0</ele>
  <time>2026-09-02T22:06:28Z</time>
  <course>187.33</course>
  <speed>0.0</speed>
  <fix>3d</fix>
</trkpt>
<trkpt lat="33.810313" lon="-118.393867">
  <ele>-0.13</ele>
  <time>2026-09-02T22:06:28Z</time>
  <course>0.0</course>
  <speed>0.0</speed>
  <fix>3d</fix>
</trkpt>
<trkpt lat="33.810313" lon="-118.393867">
  <ele>0.0</ele>
  <time>2026-09-02T22:06:28Z</time>
  <course>187.4</course>
  <speed>0.0</speed>
  <fix>3d</fix>
</trkpt>
<trkpt lat="33.810313" lon="-118.393867">
  <ele>-0.13</ele>
  <time>2026-09-02T22:06:28Z</time>
  <course>0.0</course>
  <speed>0.0</speed>
  <fix>3d</fix>
</trkpt>
<trkpt lat="33.810313" lon="-118.393867">
  <ele>0.0</ele>
  <time>2026-09-02T22:06:28Z</time>
  <course>187.47</course>
  <speed>0.0</speed>
  <fix>3d</fix>
</trkpt>
<trkpt lat="33.810313" lon="-118.393867">
  <ele>-0.13</ele>
  <time>2026-09-02T22:06:28Z</time>
  <course>0.0</course>
  <speed>0.0</speed>
  <fix>3d</fix>
</trkpt>
<trkpt lat="33.810313" lon="-118.393867">
  <ele>0.0</ele>
  <time>2026-09-02T22:06:28Z</time>
  <course>187.53</course>
  <speed>0.0</speed>
  <fix>3d</fix>
</trkpt>
<trkpt lat="33.810313" lon="-118.393867">
  <ele>-0.13</ele>
  <time>2026-09-02T22:06:28Z</time>
  <course>0.0</course>
  <speed>0.0</speed>
  <fix>3d</fix>
</trkpt>
<trkpt lat="33.810313" lon="-118.393867">
  <ele>0.0</ele>
  <time>2026-09-02T22:06:28Z</time>
  <course>187.59</course>
  <speed>0.0</speed>
  <fix>3d</fix>
</trkpt>
<trkpt lat="33.810313" lon="-118.393867">
  <ele>-0.13</ele>
  <time>2026-09-02T22:06:28Z</time>
  <course>0.0</course>
  <speed>0.0</speed>
  <fix>3d</fix>
</trkpt>
<trkpt lat="33.810313" lon="-118.393867">
  <ele>0.0</ele>
  <time>2026-09-02T22:06:28Z</time>
  <course>187.65</course>
  <speed>0.0</speed>
  <fix>3d</fix>
</trkpt>
<trkpt lat="33.810313" lon="-118.393867">
  <ele>-0.12</ele>
  <time>2026-09-02T22:06:28Z</time>
  <course>0.0</course>
  <speed>0.0</speed>
  <fix>3d</fix>
</trkpt>
<trkpt lat="33.810313" lon="-118.393867">
  <ele>0.0</ele>
  <time>2026-09-02T22:06:28Z</time>
  <course>187.71</course>
  <speed>0.0</speed>
  <fix>3d</fix>
</trkpt>
<trkpt lat="33.810313" lon="-118.393867">
  <ele>-0.12</ele>
  <time>2026-09-02T22:06:28Z</time>
  <course>0.0</course>
  <speed>0.0</speed>
  <fix>3d</fix>
</trkpt>
<trkpt lat="33.810313" lon="-118.393867">
  <ele>0.0</ele>
  <time>2026-09-02T22:06:28Z</time>
  <course>187.76</course>
  <speed>0.0</speed>
  <fix>3d</fix>
</trkpt>
<trkpt lat="33.810313" lon="-118.393867">
  <ele>-0.12</ele>
  <time>2026-09-02T22:06:28Z</time>
  <course>0.0</course>
  <speed>0.0</speed>
  <fix>3d</fix>
</trkpt>
<trkpt lat="33.810313" lon="-118.393867">
  <ele>0.0</ele>
  <time>2026-09-02T22:06:28Z</time>
  <course>187.81</course>
  <speed>0.0</speed>
  <fix>3d</fix>
</trkpt>
<trkpt lat="33.810313" lon="-118.393867">
  <ele>-0.12</ele>
  <time>2026-09-02T22:06:28Z</time>
  <course>0.0</course>
  <speed>0.0</speed>
  <fix>3d</fix>
</trkpt>
<trkpt lat="33.810313" lon="-118.393867">
  <ele>0.0</ele>
  <time>2026-09-02T22:06:28Z</time>
  <course>187.86</course>
  <speed>0.0</speed>
  <fix>3d</fix>
</trkpt>
<trkpt lat="33.810313" lon="-118.393867">
  <ele>-0.12</ele>
  <time>2026-09-02T22:06:28Z</time>
  <course>0.0</course>
  <speed>0.0</speed>
  <fix>3d</fix>
</trkpt>
<trkpt lat="33.810313" lon="-118.393867">
  <ele>0.0</ele>
  <time>2026-09-02T22:06:28Z</time>
  <course>187.91</course>
  <speed>0.0</speed>
  <fix>3d</fix>
</trkpt>
<trkpt lat="33.810313" lon="-118.393867">
  <ele>-0.12</ele>
  <time>2026-09-02T22:06:28Z</time>
  <course>0.0</course>
  <speed>0.0</speed>
  <fix>3d</fix>
</trkpt>
<trkpt lat="33.810313" lon="-118.393867">
  <ele>0.0</ele>
  <time>2026-09-02T22:06:28Z</time>
  <course>187.95</course>
  <speed>0.0</speed>
  <fix>3d</fix>
</trkpt>
<trkpt lat="33.810313" lon="-118.393867">
  <ele>-0.12</ele>
  <time>2026-09-02T22:06:28Z</time>
  <course>0.0</course>
  <speed>0.0</speed>
  <fix>3d</fix>
</trkpt>
<trkpt lat="33.810313" lon="-118.393867">
  <ele>0.0</ele>
  <time>2026-09-02T22:06:28Z</time>
  <course>187.99</course>
  <speed>0.0</speed>
  <fix>3d</fix>
</trkpt>
<trkpt lat="33.810313" lon="-118.393867">
  <ele>-0.12</ele>
  <time>2026-09-02T22:06:28Z</time>
  <course>0.0</course>
  <speed>0.0</speed>
  <fix>3d</fix>
</trkpt>
<trkpt lat="33.810313" lon="-118.393867">
  <ele>0.0</ele>
  <time>2026-09-02T22:06:28Z</time>
  <course>188.03</course>
  <speed>0.0</speed>
  <fix>3d</fix>
</trkpt>
<trkpt lat="33.810313" lon="-118.393867">
  <ele>-0.12</ele>
  <time>2026-09-02T22:06:28Z</time>
  <course>0.0</course>
  <speed>0.0</speed>
  <fix>3d</fix>
</trkpt>
<trkpt lat="33.810313" lon="-118.393867">
  <ele>0.0</ele>
  <time>2026-09-02T22:06:28Z</time>
  <course>188.07</course>
  <speed>0.0</speed>
  <fix>3d</fix>
</trkpt>
<trkpt lat="33.810313" lon="-118.393867">
  <ele>-0.12</ele>
  <time>2026-09-02T22:06:28Z</time>
  <course>0.0</course>
  <speed>0.0</speed>
  <fix>3d</fix>
</trkpt>
<trkpt lat="33.810313" lon="-118.393867">
  <ele>0.0</ele>
  <time>2026-09-02T22:06:28Z</time>
  <course>188.1</course>
  <speed>0.0</speed>
  <fix>3d</fix>
</trkpt>
<trkpt lat="33.810313" lon="-118.393867">
  <ele>-0.13</ele>
  <time>2026-09-02T22:06:28Z</time>
  <course>0.0</course>
  <speed>0.0</speed>
  <fix>3d</fix>
</trkpt>
<trkpt lat="33.810313" lon="-118.393867">
  <ele>0.0</ele>
  <time>2026-09-02T22:06:28Z</time>
  <course>188.13</course>
  <speed>0.0</speed>
  <fix>3d</fix>
</trkpt>
<trkpt lat="33.810313" lon="-118.393867">
  <ele>-0.13</ele>
  <time>2026-09-02T22:06:28Z</time>
  <course>0.0</course>
  <speed>0.0</speed>
  <fix>3d</fix>
</trkpt>
<trkpt lat="33.810313" lon="-118.393867">
  <ele>0.0</ele>
  <time>2026-09-02T22:06:28Z</time>
  <course>188.17</course>
  <speed>0.0</speed>
  <fix>3d</fix>
</trkpt>
<trkpt lat="33.810313" lon="-118.393867">
  <ele>-0.13</ele>
  <time>2026-09-02T22:06:28Z</time>
  <course>0.0</course>
  <speed>0.0</speed>
  <fix>3d</fix>
</trkpt>
<trkpt lat="33.810313" lon="-118.393867">
  <ele>0.0</ele>
  <time>2026-09-02T22:06:28Z</time>
  <course>188.19</course>
  <speed>0.0</speed>
  <fix>3d</fix>
</trkpt>
<trkpt lat="33.810313" lon="-118.393867">
  <ele>-0.13</ele>
  <time>2026-09-02T22:06:28Z</time>
  <course>0.0</course>
  <speed>0.0</speed>
  <fix>3d</fix>
</trkpt>
<trkpt lat="33.810313" lon="-118.393867">
  <ele>0.0</ele>
  <time>2026-09-02T22:06:28Z</time>
  <course>188.22</course>
  <speed>0.0</speed>
  <fix>3d</fix>
</trkpt>
<trkpt lat="33.810313" lon="-118.393867">
  <ele>-0.13</ele>
  <time>2026-09-02T22:06:28Z</time>
  <course>0.0</course>
  <speed>0.0</speed>
  <fix>3d</fix>
</trkpt>
<trkpt lat="33.810313" lon="-118.393867">
  <ele>0.0</ele>
  <time>2026-09-02T22:06:28Z</time>
  <course>188.25</course>
  <speed>0.0</speed>
  <fix>3d</fix>
</trkpt>
<trkpt lat="33.810313" lon="-118.393867">
  <ele>-0.13</ele>
  <time>2026-09-02T22:06:28Z</time>
  <course>0.0</course>
  <speed>0.0</speed>
  <fix>3d</fix>
</trkpt>
<trkpt lat="33.810313" lon="-118.393867">
  <ele>0.0</ele>
  <time>2026-09-02T22:06:28Z</time>
  <course>188.27</course>
  <speed>0.0</speed>
  <fix>3d</fix>
</trkpt>
<trkpt lat="33.810313" lon="-118.393867">
  <ele>-0.12</ele>
  <time>2026-09-02T22:06:28Z</time>
  <course>0.0</course>
  <speed>0.0</speed>
  <fix>3d</fix>
</trkpt>
<trkpt lat="33.810313" lon="-118.393867">
  <ele>0.0</ele>
  <time>2026-09-02T22:06:28Z</time>
  <course>188.3</course>
  <speed>0.0</speed>
  <fix>3d</fix>
</trkpt>
<trkpt lat="33.810313" lon="-118.393867">
  <ele>-0.12</ele>
  <time>2026-09-02T22:06:28Z</time>
  <course>0.0</course>
  <speed>0.0</speed>
  <fix>3d</fix>
</trkpt>
<trkpt lat="33.810313" lon="-118.393867">
  <ele>0.0</ele>
  <time>2026-09-02T22:06:28Z</time>
  <course>188.32</course>
  <speed>0.0</speed>
  <fix>3d</fix>
</trkpt>
<trkpt lat="33.810313" lon="-118.393867">
  <ele>-0.12</ele>
  <time>2026-09-02T22:06:28Z</time>
  <course>0.0</course>
  <speed>0.0</speed>
  <fix>3d</fix>
</trkpt>
<trkpt lat="33.810313" lon="-118.393867">
  <ele>0.0</ele>
  <time>2026-09-02T22:06:28Z</time>
  <course>188.34</course>
  <speed>0.0</speed>
  <fix>3d</fix>
</trkpt>
<trkpt lat="33.810313" lon="-118.393867">
  <ele>-0.12</ele>
  <time>2026-09-02T22:06:28Z</time>
  <course>0.0</course>
  <speed>0.0</speed>
  <fix>3d</fix>
</trkpt>
<trkpt lat="33.810313" lon="-118.393867">
  <ele>0.0</ele>
  <time>2026-09-02T22:06:28Z</time>
  <course>188.36</course>
  <speed>0.0</speed>
  <fix>3d</fix>
</trkpt>
<trkpt lat="33.810313" lon="-118.393867">
  <ele>-0.12</ele>
  <time>2026-09-02T22:06:28Z</time>
  <course>0.0</course>
  <speed>0.0</speed>
  <fix>3d</fix>
</trkpt>
<trkpt lat="33.810313" lon="-118.393867">
  <ele>0.0</ele>
  <time>2026-09-02T22:06:28Z</time>
  <course>188.38</course>
  <speed>0.0</speed>
  <fix>3d</fix>
</trkpt>
<trkpt lat="33.810313" lon="-118.393867">
  <ele>-0.12</ele>
  <time>2026-09-02T22:06:28Z</time>
  <course>0.0</course>
  <speed>0.0</speed>
  <fix>3d</fix>
</trkpt>
<trkpt lat="33.810313" lon="-118.393867">
  <ele>0.0</ele>
  <time>2026-09-02T22:06:28Z</time>
  <course>188.39</course>
  <speed>0.0</speed>
  <fix>3d</fix>
</trkpt>
<trkpt lat="33.810313" lon="-118.393867">
  <ele>-0.12</ele>
  <time>2026-09-02T22:06:28Z</time>
  <course>0.0</course>
  <speed>0.0</speed>
  <fix>3d</fix>
</trkpt>
<trkpt lat="33.810313" lon="-118.393867">
  <ele>0.0</ele>
  <time>2026-09-02T22:06:28Z</time>
  <course>188.41</course>
  <speed>0.0</speed>
  <fix>3d</fix>
</trkpt>
<trkpt lat="33.810313" lon="-118.393867">
  <ele>-0.12</ele>
  <time>2026-09-02T22:06:28Z</time>
  <course>0.0</course>
  <speed>0.0</speed>
  <fix>3d</fix>
</trkpt>
<trkpt lat="33.810313" lon="-118.393867">
  <ele>0.0</ele>
  <time>2026-09-02T22:06:28Z</time>
  <course>188.43</course>
  <speed>0.0</speed>
  <fix>3d</fix>
</trkpt>
<trkpt lat="33.810313" lon="-118.393867">
  <ele>-0.12</ele>
  <time>2026-09-02T22:06:28Z</time>
  <course>0.0</course>
  <speed>0.0</speed>
  <fix>3d</fix>
</trkpt>
<trkpt lat="33.810313" lon="-118.393867">
  <ele>0.0</ele>
  <time>2026-09-02T22:06:28Z</time>
  <course>188.44</course>
  <speed>0.0</speed>
  <fix>3d</fix>
</trkpt>
<trkpt lat="33.810313" lon="-118.393867">
  <ele>-0.12</ele>
  <time>2026-09-02T22:06:28Z</time>
  <course>0.0</course>
  <speed>0.0</speed>
  <fix>3d</fix>
</trkpt>
<trkpt lat="33.810313" lon="-118.393867">
  <ele>0.0</ele>
  <time>2026-09-02T22:06:28Z</time>
  <course>188.45</course>
  <speed>0.0</speed>
  <fix>3d</fix>
</trkpt>
<trkpt lat="33.810313" lon="-118.393867">
  <ele>-0.13</ele>
  <time>2026-09-02T22:06:28Z</time>
  <course>0.0</course>
  <speed>0.0</speed>
  <fix>3d</fix>
</trkpt>
<trkpt lat="33.810313" lon="-118.393867">
  <ele>0.0</ele>
  <time>2026-09-02T22:06:28Z</time>
  <course>188.46</course>
  <speed>0.0</speed>
  <fix>3d</fix>
</trkpt>
<trkpt lat="33.810313" lon="-118.393867">
  <ele>-0.13</ele>
  <time>2026-09-02T22:06:28Z</time>
  <course>0.0</course>
  <speed>0.0</speed>
  <fix>3d</fix>
</trkpt>
<trkpt lat="33.810313" lon="-118.393867">
  <ele>0.0</ele>
  <time>2026-09-02T22:06:28Z</time>
  <course>188.48</course>
  <speed>0.0</speed>
  <fix>3d</fix>
</trkpt>
<trkpt lat="33.810313" lon="-118.393867">
  <ele>-0.13</ele>
  <time>2026-09-02T22:06:28Z</time>
  <course>0.0</course>
  <speed>0.0</speed>
  <fix>3d</fix>
</trkpt>
<trkpt lat="33.810313" lon="-118.393867">
  <ele>0.0</ele>
  <time>2026-09-02T22:06:28Z</time>
  <course>188.49</course>
  <speed>0.0</speed>
  <fix>3d</fix>
</trkpt>
<trkpt lat="33.810313" lon="-118.393867">
  <ele>-0.13</ele>
  <time>2026-09-02T22:06:28Z</time>
  <course>0.0</course>
  <speed>0.0</speed>
  <fix>3d</fix>
</trkpt>
<trkpt lat="33.810313" lon="-118.393867">
  <ele>0.0</ele>
  <time>2026-09-02T22:06:28Z</time>
  <course>188.49</course>
  <speed>0.0</speed>
  <fix>3d</fix>
</trkpt>
<trkpt lat="33.810313" lon="-118.393867">
  <ele>-0.13</ele>
  <time>2026-09-02T22:06:28Z</time>
  <course>0.0</course>
  <speed>0.0</speed>
  <fix>3d</fix>
</trkpt>
<trkpt lat="33.810313" lon="-118.393867">
  <ele>0.0</ele>
  <time>2026-09-02T22:06:28Z</time>
  <course>188.5</course>
  <speed>0.0</speed>
  <fix>3d</fix>
</trkpt>
<trkpt lat="33.810313" lon="-118.393867">
  <ele>-0.13</ele>
  <time>2026-09-02T22:06:28Z</time>
  <course>0.0</course>
  <speed>0.0</speed>
  <fix>3d</fix>
</trkpt>
<trkpt lat="33.810313" lon="-118.393867">
  <ele>0.0</ele>
  <time>2026-09-02T22:06:28Z</time>
  <course>188.51</course>
  <speed>0.0</speed>
  <fix>3d</fix>
</trkpt>
<trkpt lat="33.810313" lon="-118.393867">
  <ele>-0.12</ele>
  <time>2026-09-02T22:06:28Z</time>
  <course>0.0</course>
  <speed>0.0</speed>
  <fix>3d</fix>
</trkpt>
<trkpt lat="33.810313" lon="-118.393867">
  <ele>0.0</ele>
  <time>2026-09-02T22:06:28Z</time>
  <course>188.52</course>
  <speed>0.0</speed>
  <fix>3d</fix>
</trkpt>
<trkpt lat="33.810313" lon="-118.393867">
  <ele>-0.12</ele>
  <time>2026-09-02T22:06:28Z</time>
  <course>0.0</course>
  <speed>0.0</speed>
  <fix>3d</fix>
</trkpt>
<trkpt lat="33.810313" lon="-118.393867">
  <ele>0.0</ele>
  <time>2026-09-02T22:06:28Z</time>
  <course>188.53</course>
  <speed>0.0</speed>
  <fix>3d</fix>
</trkpt>
<trkpt lat="33.810313" lon="-118.393867">
  <ele>-0.12</ele>
  <time>2026-09-02T22:06:28Z</time>
  <course>0.0</course>
  <speed>0.0</speed>
  <fix>3d</fix>
</trkpt>
<trkpt lat="33.810313" lon="-118.393867">
  <ele>0.0</ele>
  <time>2026-09-02T22:06:28Z</time>
  <course>188.53</course>
  <speed>0.0</speed>
  <fix>3d</fix>
</trkpt>
<trkpt lat="33.810313" lon="-118.393867">
  <ele>-0.12</ele>
  <time>2026-09-02T22:06:28Z</time>
  <course>0.0</course>
  <speed>0.0</speed>
  <fix>3d</fix>
</trkpt>
<trkpt lat="33.810313" lon="-118.393867">
  <ele>0.0</ele>
  <time>2026-09-02T22:06:28Z</time>
  <course>188.54</course>
  <speed>0.0</speed>
  <fix>3d</fix>
</trkpt>
<trkpt lat="33.810313" lon="-118.393867">
  <ele>-0.12</ele>
  <time>2026-09-02T22:06:28Z</time>
  <course>0.0</course>
  <speed>0.0</speed>
  <fix>3d</fix>
</trkpt>
<trkpt lat="33.810313" lon="-118.393867">
  <ele>0.0</ele>
  <time>2026-09-02T22:06:28Z</time>
  <course>188.54</course>
  <speed>0.0</speed>
  <fix>3d</fix>
</trkpt>
<trkpt lat="33.810313" lon="-118.393867">
  <ele>-0.12</ele>
  <time>2026-09-02T22:06:28Z</time>
  <course>0.0</course>
  <speed>0.0</speed>
  <fix>3d</fix>
</trkpt>
<trkpt lat="33.810313" lon="-118.393867">
  <ele>0.0</ele>
  <time>2026-09-02T22:06:28Z</time>
  <course>188.54</course>
  <speed>0.0</speed>
  <fix>3d</fix>
</trkpt>
<trkpt lat="33.810313" lon="-118.393867">
  <ele>-0.12</ele>
  <time>2026-09-02T22:06:28Z</time>
  <course>0.0</course>
  <speed>0.0</speed>
  <fix>3d</fix>
</trkpt>
<trkpt lat="33.810313" lon="-118.393867">
  <ele>0.0</ele>
  <time>2026-09-02T22:06:28Z</time>
  <course>188.55</course>
  <speed>0.0</speed>
  <fix>3d</fix>
</trkpt>
<trkpt lat="33.810313" lon="-118.393867">
  <ele>-0.12</ele>
  <time>2026-09-02T22:06:28Z</time>
  <course>0.0</course>
  <speed>0.0</speed>
  <fix>3d</fix>
</trkpt>
<trkpt lat="33.810313" lon="-118.393867">
  <ele>0.0</ele>
  <time>2026-09-02T22:06:28Z</time>
  <course>188.55</course>
  <speed>0.0</speed>
  <fix>3d</fix>
</trkpt>
<trkpt lat="33.810313" lon="-118.393867">
  <ele>-0.12</ele>
  <time>2026-09-02T22:06:28Z</time>
  <course>0.0</course>
  <speed>0.0</speed>
  <fix>3d</fix>
</trkpt>
<trkpt lat="33.810313" lon="-118.393867">
  <ele>0.0</ele>
  <time>2026-09-02T22:06:28Z</time>
  <course>188.55</course>
  <speed>0.0</speed>
  <fix>3d</fix>
</trkpt>
<trkpt lat="33.810313" lon="-118.393867">
  <ele>-0.12</ele>
  <time>2026-09-02T22:06:28Z</time>
  <course>0.0</course>
  <speed>0.0</speed>
  <fix>3d</fix>
</trkpt>
<trkpt lat="33.810313" lon="-118.393867">
  <ele>-0.126</ele>
  <time>2026-09-02T22:06:28Z</time>
  <course>188.55</course>
  <speed>0.0</speed>
  <fix>3d</fix>
</trkpt>
<trkpt lat="33.810313" lon="-118.393867">
  <ele>-0.13</ele>
  <time>2026-09-02T22:06:28Z</time>
  <course>0.0</course>
  <speed>0.0</speed>
  <fix>3d</fix>
</trkpt>
<trkpt lat="33.810313" lon="-118.393867">
  <ele>-0.126</ele>
  <time>2026-09-02T22:06:28Z</time>
  <course>188.56</course>
  <speed>0.0</speed>
  <fix>3d</fix>
</trkpt>
<trkpt lat="33.810313" lon="-118.393867">
  <ele>-0.13</ele>
  <time>2026-09-02T22:06:28Z</time>
  <course>0.0</course>
  <speed>0.0</speed>
  <fix>3d</fix>
</trkpt>
<trkpt lat="33.810313" lon="-118.393867">
  <ele>-0.124</ele>
  <time>2026-09-02T22:06:28Z</time>
  <course>188.56</course>
  <speed>0.0</speed>
  <fix>3d</fix>
</trkpt>
<trkpt lat="33.810313" lon="-118.393867">
  <ele>-0.13</ele>
  <time>2026-09-02T22:06:28Z</time>
  <course>0.0</course>
  <speed>0.0</speed>
  <fix>3d</fix>
</trkpt>
<trkpt lat="33.810313" lon="-118.393867">
  <ele>-0.123</ele>
  <time>2026-09-02T22:06:28Z</time>
  <course>188.56</course>
  <speed>0.0</speed>
  <fix>3d</fix>
</trkpt>
<trkpt lat="33.810313" lon="-118.393867">
  <ele>-0.13</ele>
  <time>2026-09-02T22:06:28Z</time>
  <course>0.0</course>
  <speed>0.0</speed>
  <fix>3d</fix>
</trkpt>
<trkpt lat="33.810313" lon="-118.393867">
  <ele>-0.121</ele>
  <time>2026-09-02T22:06:28Z</time>
  <course>188.56</course>
  <speed>0.0</speed>
  <fix>3d</fix>
</trkpt>
<trkpt lat="33.810313" lon="-118.393867">
  <ele>-0.12</ele>
  <time>2026-09-02T22:06:28Z</time>
  <course>0.0</course>
  <speed>0.0</speed>
  <fix>3d</fix>
</trkpt>
<trkpt lat="33.810313" lon="-118.393867">
  <ele>-0.12</ele>
  <time>2026-09-02T22:06:28Z</time>
  <course>188.56</course>
  <speed>0.0</speed>
  <fix>3d</fix>
</trkpt>
<trkpt lat="33.810313" lon="-118.393867">
  <ele>-0.12</ele>
  <time>2026-09-02T22:06:28Z</time>
  <course>0.0</course>
  <speed>0.0</speed>
  <fix>3d</fix>
</trkpt>
<trkpt lat="33.810313" lon="-118.393867">
  <ele>-0.119</ele>
  <time>2026-09-02T22:06:28Z</time>
  <course>188.56</course>
  <speed>0.0</speed>
  <fix>3d</fix>
</trkpt>
<trkpt lat="33.810313" lon="-118.393867">
  <ele>-0.12</ele>
  <time>2026-09-02T22:06:28Z</time>
  <course>0.0</course>
  <speed>0.0</speed>
  <fix>3d</fix>
</trkpt>
<trkpt lat="33.810313" lon="-118.393867">
  <ele>-0.12</ele>
  <time>2026-09-02T22:06:28Z</time>
  <course>188.56</course>
  <speed>0.0</speed>
  <fix>3d</fix>
</trkpt>
<trkpt lat="33.810313" lon="-118.393867">
  <ele>-0.12</ele>
  <time>2026-09-02T22:06:28Z</time>
  <course>0.0</course>
  <speed>0.0</speed>
  <fix>3d</fix>
</trkpt>
<trkpt lat="33.810313" lon="-118.393867">
  <ele>-0.124</ele>
  <time>2026-09-02T22:06:28Z</time>
  <course>188.55</course>
  <speed>0.0</speed>
  <fix>3d</fix>
</trkpt>
<trkpt lat="33.810313" lon="-118.393867">
  <ele>-0.12</ele>
  <time>2026-09-02T22:06:28Z</time>
  <course>0.0</course>
  <speed>0.0</speed>
  <fix>3d</fix>
</trkpt>
<trkpt lat="33.810313" lon="-118.393867">
  <ele>-0.127</ele>
  <time>2026-09-02T22:06:28Z</time>
  <course>188.55</course>
  <speed>0.0</speed>
  <fix>3d</fix>
</trkpt>
<trkpt lat="33.810313" lon="-118.393867">
  <ele>-0.12</ele>
  <time>2026-09-02T22:06:28Z</time>
  <course>0.0</course>
  <speed>0.0</speed>
  <fix>3d</fix>
</trkpt>
<trkpt lat="33.810313" lon="-118.393867">
  <ele>-0.13</ele>
  <time>2026-09-02T22:06:28Z</time>
  <course>188.55</course>
  <speed>0.0</speed>
  <fix>3d</fix>
</trkpt>
<trkpt lat="33.810313" lon="-118.393867">
  <ele>-0.12</ele>
  <time>2026-09-02T22:06:28Z</time>
  <course>0.0</course>
  <speed>0.0</speed>
  <fix>3d</fix>
</trkpt>
<trkpt lat="33.810313" lon="-118.393867">
  <ele>-0.132</ele>
  <time>2026-09-02T22:06:28Z</time>
  <course>188.55</course>
  <speed>0.0</speed>
  <fix>3d</fix>
</trkpt>
<trkpt lat="33.810313" lon="-118.393867">
  <ele>-0.12</ele>
  <time>2026-09-02T22:06:28Z</time>
  <course>0.0</course>
  <speed>0.0</speed>
  <fix>3d</fix>
</trkpt>
<trkpt lat="33.810313" lon="-118.393867">
  <ele>-0.132</ele>
  <time>2026-09-02T22:06:28Z</time>
  <course>188.55</course>
  <speed>0.0</speed>
  <fix>3d</fix>
</trkpt>
<trkpt lat="33.810313" lon="-118.393867">
  <ele>-0.12</ele>
  <time>2026-09-02T22:06:28Z</time>
  <course>0.0</course>
  <speed>0.0</speed>
  <fix>3d</fix>
</trkpt>
<trkpt lat="33.810313" lon="-118.393867">
  <ele>-0.132</ele>
  <time>2026-09-02T22:06:28Z</time>
  <course>188.55</course>
  <speed>0.0</speed>
  <fix>3d</fix>
</trkpt>
<trkpt lat="33.810313" lon="-118.393867">
  <ele>-0.12</ele>
  <time>2026-09-02T22:06:28Z</time>
  <course>0.0</course>
  <speed>0.0</speed>
  <fix>3d</fix>
</trkpt>
<trkpt lat="33.810313" lon="-118.393867">
  <ele>-0.132</ele>
  <time>2026-09-02T22:06:28Z</time>
  <course>188.55</course>
  <speed>0.0</speed>
  <fix>3d</fix>
</trkpt>
<trkpt lat="33.810313" lon="-118.393867">
  <ele>-0.12</ele>
  <time>2026-09-02T22:06:28Z</time>
  <course>0.0</course>
  <speed>0.0</speed>
  <fix>3d</fix>
</trkpt>
<trkpt lat="33.810313" lon="-118.393867">
  <ele>-0.131</ele>
  <time>2026-09-02T22:06:28Z</time>
  <course>188.55</course>
  <speed>0.0</speed>
  <fix>3d</fix>
</trkpt>
<trkpt lat="33.810313" lon="-118.393867">
  <ele>-0.12</ele>
  <time>2026-09-02T22:06:28Z</time>
  <course>0.0</course>
  <speed>0.0</speed>
  <fix>3d</fix>
</trkpt>
<trkpt lat="33.810313" lon="-118.393867">
  <ele>-0.129</ele>
  <time>2026-09-02T22:06:28Z</time>
  <course>188.54</course>
  <speed>0.0</speed>
  <fix>3d</fix>
</trkpt>
<trkpt lat="33.810313" lon="-118.393867">
  <ele>-0.13</ele>
  <time>2026-09-02T22:06:28Z</time>
  <course>0.0</course>
  <speed>0.0</speed>
  <fix>3d</fix>
</trkpt>
<trkpt lat="33.810313" lon="-118.393867">
  <ele>-0.128</ele>
  <time>2026-09-02T22:06:28Z</time>
  <course>188.54</course>
  <speed>0.0</speed>
  <fix>3d</fix>
</trkpt>
<trkpt lat="33.810313" lon="-118.393867">
  <ele>-0.13</ele>
  <time>2026-09-02T22:06:28Z</time>
  <course>0.0</course>
  <speed>0.0</speed>
  <fix>3d</fix>
</trkpt>
<trkpt lat="33.810313" lon="-118.393867">
  <ele>-0.125</ele>
  <time>2026-09-02T22:06:28Z</time>
  <course>188.53</course>
  <speed>0.0</speed>
  <fix>3d</fix>
</trkpt>
<trkpt lat="33.810313" lon="-118.393867">
  <ele>-0.12</ele>
  <time>2026-09-02T22:06:28Z</time>
  <course>0.0</course>
  <speed>0.0</speed>
  <fix>3d</fix>
</trkpt>
<trkpt lat="33.810313" lon="-118.393867">
  <ele>-0.123</ele>
  <time>2026-09-02T22:06:28Z</time>
  <course>188.53</course>
  <speed>0.0</speed>
  <fix>3d</fix>
</trkpt>
<trkpt lat="33.810313" lon="-118.393867">
  <ele>-0.12</ele>
  <time>2026-09-02T22:06:28Z</time>
  <course>0.0</course>
  <speed>0.0</speed>
  <fix>3d</fix>
</trkpt>
<trkpt lat="33.810313" lon="-118.393867">
  <ele>-0.121</ele>
  <time>2026-09-02T22:06:28Z</time>
  <course>188.52</course>
  <speed>0.0</speed>
  <fix>3d</fix>
</trkpt>
<trkpt lat="33.810313" lon="-118.393867">
  <ele>-0.12</ele>
  <time>2026-09-02T22:06:28Z</time>
  <course>0.0</course>
  <speed>0.0</speed>
  <fix>3d</fix>
</trkpt>
<trkpt lat="33.810313" lon="-118.393867">
  <ele>-0.121</ele>
  <time>2026-09-02T22:06:28Z</time>
  <course>188.52</course>
  <speed>0.0</speed>
  <fix>3d</fix>
</trkpt>
<trkpt lat="33.810313" lon="-118.393867">
  <ele>-0.12</ele>
  <time>2026-09-02T22:06:28Z</time>
  <course>0.0</course>
  <speed>0.0</speed>
  <fix>3d</fix>
</trkpt>
<trkpt lat="33.810313" lon="-118.393867">
  <ele>-0.122</ele>
  <time>2026-09-02T22:06:28Z</time>
  <course>188.51</course>
  <speed>0.0</speed>
  <fix>3d</fix>
</trkpt>
<trkpt lat="33.810313" lon="-118.393867">
  <ele>-0.12</ele>
  <time>2026-09-02T22:06:28Z</time>
  <course>0.0</course>
  <speed>0.0</speed>
  <fix>3d</fix>
</trkpt>
<trkpt lat="33.810313" lon="-118.393867">
  <ele>-0.123</ele>
  <time>2026-09-02T22:06:28Z</time>
  <course>188.51</course>
  <speed>0.0</speed>
  <fix>3d</fix>
</trkpt>
<trkpt lat="33.810313" lon="-118.393867">
  <ele>-0.12</ele>
  <time>2026-09-02T22:06:28Z</time>
  <course>0.0</course>
  <speed>0.0</speed>
  <fix>3d</fix>
</trkpt>
<trkpt lat="33.810313" lon="-118.393867">
  <ele>-0.126</ele>
  <time>2026-09-02T22:06:28Z</time>
  <course>188.5</course>
  <speed>0.0</speed>
  <fix>3d</fix>
</trkpt>
<trkpt lat="33.810313" lon="-118.393867">
  <ele>-0.12</ele>
  <time>2026-09-02T22:06:28Z</time>
  <course>0.0</course>
  <speed>0.0</speed>
  <fix>3d</fix>
</trkpt>
<trkpt lat="33.810313" lon="-118.393867">
  <ele>-0.127</ele>
  <time>2026-09-02T22:06:28Z</time>
  <course>188.5</course>
  <speed>0.0</speed>
  <fix>3d</fix>
</trkpt>
<trkpt lat="33.810313" lon="-118.393867">
  <ele>-0.12</ele>
  <time>2026-09-02T22:06:28Z</time>
  <course>0.0</course>
  <speed>0.0</speed>
  <fix>3d</fix>
</trkpt>
<trkpt lat="33.810313" lon="-118.393867">
  <ele>-0.128</ele>
  <time>2026-09-02T22:06:28Z</time>
  <course>188.49</course>
  <speed>0.0</speed>
  <fix>3d</fix>
</trkpt>
<trkpt lat="33.810313" lon="-118.393867">
  <ele>-0.12</ele>
  <time>2026-09-02T22:06:28Z</time>
  <course>0.0</course>
  <speed>0.0</speed>
  <fix>3d</fix>
</trkpt>
<trkpt lat="33.810313" lon="-118.393867">
  <ele>-0.127</ele>
  <time>2026-09-02T22:06:28Z</time>
  <course>188.48</course>
  <speed>0.0</speed>
  <fix>3d</fix>
</trkpt>
<trkpt lat="33.810313" lon="-118.393867">
  <ele>-0.12</ele>
  <time>2026-09-02T22:06:28Z</time>
  <course>0.0</course>
  <speed>0.0</speed>
  <fix>3d</fix>
</trkpt>
<trkpt lat="33.810313" lon="-118.393867">
  <ele>-0.127</ele>
  <time>2026-09-02T22:06:28Z</time>
  <course>188.48</course>
  <speed>0.0</speed>
  <fix>3d</fix>
</trkpt>
<trkpt lat="33.810313" lon="-118.393867">
  <ele>-0.12</ele>
  <time>2026-09-02T22:06:28Z</time>
  <course>0.0</course>
  <speed>0.0</speed>
  <fix>3d</fix>
</trkpt>
<trkpt lat="33.810313" lon="-118.393867">
  <ele>-0.127</ele>
  <time>2026-09-02T22:06:28Z</time>
  <course>188.47</course>
  <speed>0.01</speed>
  <fix>3d</fix>
</trkpt>
<trkpt lat="33.810313" lon="-118.393867">
  <ele>-0.12</ele>
  <time>2026-09-02T22:06:28Z</time>
  <course>0.0</course>
  <speed>0.0</speed>
  <fix>3d</fix>
</trkpt>
<trkpt lat="33.810313" lon="-118.393867">
  <ele>-0.127</ele>
  <time>2026-09-02T22:06:28Z</time>
  <course>188.47</course>
  <speed>0.01</speed>
  <fix>3d</fix>
</trkpt>
<trkpt lat="33.810313" lon="-118.393867">
  <ele>-0.12</ele>
  <time>2026-09-02T22:06:28Z</time>
  <course>0.0</course>
  <speed>0.0</speed>
  <fix>3d</fix>
</trkpt>
<trkpt lat="33.810313" lon="-118.393867">
  <ele>-0.126</ele>
  <time>2026-09-02T22:06:28Z</time>
  <course>188.46</course>
  <speed>0.01</speed>
  <fix>3d</fix>
</trkpt>
<trkpt lat="33.810313" lon="-118.393867">
  <ele>-0.12</ele>
  <time>2026-09-02T22:06:28Z</time>
  <course>0.0</course>
  <speed>0.0</speed>
  <fix>3d</fix>
</trkpt>
<trkpt lat="33.810313" lon="-118.393867">
  <ele>-0.126</ele>
  <time>2026-09-02T22:06:28Z</time>
  <course>188.45</course>
  <speed>0.01</speed>
  <fix>3d</fix>
</trkpt>
<trkpt lat="33.810313" lon="-118.393867">
  <ele>-0.12</ele>
  <time>2026-09-02T22:06:28Z</time>
  <course>0.0</course>
  <speed>0.0</speed>
  <fix>3d</fix>
</trkpt>
<trkpt lat="33.810313" lon="-118.393867">
  <ele>-0.126</ele>
  <time>2026-09-02T22:06:28Z</time>
  <course>188.45</course>
  <speed>0.01</speed>
  <fix>3d</fix>
</trkpt>
<trkpt lat="33.810313" lon="-118.393867">
  <ele>-0.12</ele>
  <time>2026-09-02T22:06:28Z</time>
  <course>0.0</course>
  <speed>0.0</speed>
  <fix>3d</fix>
</trkpt>
<trkpt lat="33.810313" lon="-118.393867">
  <ele>-0.125</ele>
  <time>2026-09-02T22:06:28Z</time>
  <course>188.44</course>
  <speed>0.01</speed>
  <fix>3d</fix>
</trkpt>
<trkpt lat="33.810313" lon="-118.393867">
  <ele>-0.12</ele>
  <time>2026-09-02T22:06:28Z</time>
  <course>0.0</course>
  <speed>0.0</speed>
  <fix>3d</fix>
</trkpt>
<trkpt lat="33.810313" lon="-118.393867">
  <ele>-0.126</ele>
  <time>2026-09-02T22:06:28Z</time>
  <course>188.43</course>
  <speed>0.01</speed>
  <fix>3d</fix>
</trkpt>
<trkpt lat="33.810313" lon="-118.393867">
  <ele>-0.12</ele>
  <time>2026-09-02T22:06:28Z</time>
  <course>0.0</course>
  <speed>0.0</speed>
  <fix>3d</fix>
</trkpt>
<trkpt lat="33.810313" lon="-118.393867">
  <ele>-0.127</ele>
  <time>2026-09-02T22:06:28Z</time>
  <course>188.42</course>
  <speed>0.01</speed>
  <fix>3d</fix>
</trkpt>
<trkpt lat="33.810313" lon="-118.393867">
  <ele>-0.12</ele>
  <time>2026-09-02T22:06:28Z</time>
  <course>0.0</course>
  <speed>0.0</speed>
  <fix>3d</fix>
</trkpt>
<trkpt lat="33.810313" lon="-118.393867">
  <ele>-0.128</ele>
  <time>2026-09-02T22:06:28Z</time>
  <course>188.42</course>
  <speed>0.01</speed>
  <fix>3d</fix>
</trkpt>
<trkpt lat="33.810313" lon="-118.393867">
  <ele>-0.12</ele>
  <time>2026-09-02T22:06:28Z</time>
  <course>0.0</course>
  <speed>0.0</speed>
  <fix>3d</fix>
</trkpt>
<trkpt lat="33.810313" lon="-118.393867">
  <ele>-0.129</ele>
  <time>2026-09-02T22:06:28Z</time>
  <course>188.41</course>
  <speed>0.01</speed>
  <fix>3d</fix>
</trkpt>
<trkpt lat="33.810313" lon="-118.393867">
  <ele>-0.12</ele>
  <time>2026-09-02T22:06:28Z</time>
  <course>0.0</course>
  <speed>0.0</speed>
  <fix>3d</fix>
</trkpt>
<trkpt lat="33.810313" lon="-118.393867">
  <ele>-0.129</ele>
  <time>2026-09-02T22:06:28Z</time>
  <course>188.4</course>
  <speed>0.01</speed>
  <fix>3d</fix>
</trkpt>
<trkpt lat="33.810313" lon="-118.393867">
  <ele>-0.12</ele>
  <time>2026-09-02T22:06:28Z</time>
  <course>0.0</course>
  <speed>0.0</speed>
  <fix>3d</fix>
</trkpt>
<trkpt lat="33.810313" lon="-118.393867">
  <ele>-0.13</ele>
  <time>2026-09-02T22:06:28Z</time>
  <course>188.4</course>
  <speed>0.01414213562373095</speed>
  <fix>3d</fix>
</trkpt>
<trkpt lat="33.810313" lon="-118.393867">
  <ele>-0.12</ele>
  <time>2026-09-02T22:06:28Z</time>
  <course>0.0</course>
  <speed>0.0</speed>
  <fix>3d</fix>
</trkpt>
<trkpt lat="33.810313" lon="-118.393867">
  <ele>-0.13</ele>
  <time>2026-09-02T22:06:28Z</time>
  <course>188.39</course>
  <speed>0.01414213562373095</speed>
  <fix>3d</fix>
</trkpt>
<trkpt lat="33.810313" lon="-118.393867">
  <ele>-0.12</ele>
  <time>2026-09-02T22:06:28Z</time>
  <course>0.0</course>
  <speed>0.0</speed>
  <fix>3d</fix>
</trkpt>
<trkpt lat="33.810313" lon="-118.393867">
  <ele>-0.13</ele>
  <time>2026-09-02T22:06:28Z</time>
  <course>188.38</course>
  <speed>0.01414213562373095</speed>
  <fix>3d</fix>
</trkpt>
<trkpt lat="33.810313" lon="-118.393867">
  <ele>-0.12</ele>
  <time>2026-09-02T22:06:28Z</time>
  <course>0.0</course>
  <speed>0.0</speed>
  <fix>3d</fix>
</trkpt>
<trkpt lat="33.810313" lon="-118.393867">
  <ele>-0.129</ele>
  <time>2026-09-02T22:06:28Z</time>
  <course>188.37</course>
  <speed>0.01414213562373095</speed>
  <fix>3d</fix>
</trkpt>
<trkpt lat="33.810313" lon="-118.393867">
  <ele>-0.12</ele>
  <time>2026-09-02T22:06:28Z</time>
  <course>0.0</course>
  <speed>0.0</speed>
  <fix>3d</fix>
</trkpt>
<trkpt lat="33.810313" lon="-118.393867">
  <ele>-0.128</ele>
  <time>2026-09-02T22:06:28Z</time>
  <course>188.37</course>
  <speed>0.01414213562373095</speed>
  <fix>3d</fix>
</trkpt>
<trkpt lat="33.810313" lon="-118.393867">
  <ele>-0.12</ele>
  <time>2026-09-02T22:06:28Z</time>
  <course>0.0</course>
  <speed>0.0</speed>
  <fix>3d</fix>
</trkpt>
<trkpt lat="33.810313" lon="-118.393867">
  <ele>-0.126</ele>
  <time>2026-09-02T22:06:28Z</time>
  <course>188.36</course>
  <speed>0.01414213562373095</speed>
  <fix>3d</fix>
</trkpt>
<trkpt lat="33.810313" lon="-118.393867">
  <ele>-0.12</ele>
  <time>2026-09-02T22:06:28Z</time>
  <course>0.0</course>
  <speed>0.0</speed>
  <fix>3d</fix>
</trkpt>
<trkpt lat="33.810313" lon="-118.393867">
  <ele>-0.124</ele>
  <time>2026-09-02T22:06:28Z</time>
  <course>188.35</course>
  <speed>0.01414213562373095</speed>
  <fix>3d</fix>
</trkpt>
<trkpt lat="33.810313" lon="-118.393867">
  <ele>-0.12</ele>
  <time>2026-09-02T22:06:28Z</time>
  <course>0.0</course>
  <speed>0.0</speed>
  <fix>3d</fix>
</trkpt>
<trkpt lat="33.810313" lon="-118.393867">
  <ele>-0.122</ele>
  <time>2026-09-02T22:06:28Z</time>
  <course>188.34</course>
  <speed>0.01414213562373095</speed>
  <fix>3d</fix>
</trkpt>
<trkpt lat="33.810313" lon="-118.393867">
  <ele>-0.12</ele>
  <time>2026-09-02T22:06:28Z</time>
  <course>0.0</course>
  <speed>0.0</speed>
  <fix>3d</fix>
</trkpt>
<trkpt lat="33.810313" lon="-118.393867">
  <ele>-0.123</ele>
  <time>2026-09-02T22:06:28Z</time>
  <course>188.33</course>
  <speed>0.01414213562373095</speed>
  <fix>3d</fix>
</trkpt>
<trkpt lat="33.810313" lon="-118.393867">
  <ele>-0.12</ele>
  <time>2026-09-02T22:06:28Z</time>
  <course>0.0</course>
  <speed>0.0</speed>
  <fix>3d</fix>
</trkpt>
<trkpt lat="33.810313" lon="-118.393867">
  <ele>-0.125</ele>
  <time>2026-09-02T22:06:28Z</time>
  <course>188.33</course>
  <speed>0.01414213562373095</speed>
  <fix>3d</fix>
</trkpt>
<trkpt lat="33.810313" lon="-118.393867">
  <ele>-0.12</ele>
  <time>2026-09-02T22:06:28Z</time>
  <course>0.0</course>
  <speed>0.0</speed>
  <fix>3d</fix>
</trkpt>
<trkpt lat="33.810313" lon="-118.393867">
  <ele>-0.128</ele>
  <time>2026-09-02T22:06:28Z</time>
  <course>188.32</course>
  <speed>0.01414213562373095</speed>
  <fix>3d</fix>
</trkpt>
<trkpt lat="33.810313" lon="-118.393867">
  <ele>-0.12</ele>
  <time>2026-09-02T22:06:28Z</time>
  <course>0.0</course>
  <speed>0.0</speed>
  <fix>3d</fix>
</trkpt>
<trkpt lat="33.810313" lon="-118.393867">
  <ele>-0.132</ele>
  <time>2026-09-02T22:06:28Z</time>
  <course>188.31</course>
  <speed>0.01414213562373095</speed>
  <fix>3d</fix>
</trkpt>
<trkpt lat="33.810313" lon="-118.393867">
  <ele>-0.12</ele>
  <time>2026-09-02T22:06:28Z</time>
  <course>0.0</course>
  <speed>0.0</speed>
  <fix>3d</fix>
</trkpt>
<trkpt lat="33.810313" lon="-118.393867">
  <ele>-0.135</ele>
  <time>2026-09-02T22:06:28Z</time>
  <course>188.3</course>
  <speed>0.01414213562373095</speed>
  <fix>3d</fix>
</trkpt>
<trkpt lat="33.810313" lon="-118.393867">
  <ele>-0.12</ele>
  <time>2026-09-02T22:06:28Z</time>
  <course>0.0</course>
  <speed>0.0</speed>
  <fix>3d</fix>
</trkpt>
<trkpt lat="33.810313" lon="-118.393867">
  <ele>-0.135</ele>
  <time>2026-09-02T22:06:28Z</time>
  <course>188.3</course>
  <speed>0.01414213562373095</speed>
  <fix>3d</fix>
</trkpt>
<trkpt lat="33.810313" lon="-118.393867">
  <ele>-0.12</ele>
  <time>2026-09-02T22:06:28Z</time>
  <course>0.0</course>
  <speed>0.0</speed>
  <fix>3d</fix>
</trkpt>
<trkpt lat="33.810313" lon="-118.393867">
  <ele>-0.134</ele>
  <time>2026-09-02T22:06:28Z</time>
  <course>188.29</course>
  <speed>0.01414213562373095</speed>
  <fix>3d</fix>
</trkpt>
<trkpt lat="33.810313" lon="-118.393867">
  <ele>-0.12</ele>
  <time>2026-09-02T22:06:28Z</time>
  <course>0.0</course>
  <speed>0.0</speed>
  <fix>3d</fix>
</trkpt>
<trkpt lat="33.810313" lon="-118.393867">
  <ele>-0.132</ele>
  <time>2026-09-02T22:06:28Z</time>
  <course>188.28</course>
  <speed>0.01414213562373095</speed>
  <fix>3d</fix>
</trkpt>
<trkpt lat="33.810313" lon="-118.393867">
  <ele>-0.12</ele>
  <time>2026-09-02T22:06:28Z</time>
  <course>0.0</course>
  <speed>0.0</speed>
  <fix>3d</fix>
</trkpt>
<trkpt lat="33.810313" lon="-118.393867">
  <ele>-0.129</ele>
  <time>2026-09-02T22:06:28Z</time>
  <course>188.27</course>
  <speed>0.01414213562373095</speed>
  <fix>3d</fix>
</trkpt>
<trkpt lat="33.810313" lon="-118.393867">
  <ele>-0.12</ele>
  <time>2026-09-02T22:06:28Z</time>
  <course>0.0</course>
  <speed>0.0</speed>
  <fix>3d</fix>
</trkpt>
<trkpt lat="33.810313" lon="-118.393867">
  <ele>-0.127</ele>
  <time>2026-09-02T22:06:28Z</time>
  <course>188.26</course>
  <speed>0.01414213562373095</speed>
  <fix>3d</fix>
</trkpt>
<trkpt lat="33.810313" lon="-118.393867">
  <ele>-0.12</ele>
  <time>2026-09-02T22:06:28Z</time>
  <course>0.0</course>
  <speed>0.0</speed>
  <fix>3d</fix>
</trkpt>
<trkpt lat="33.810313" lon="-118.393867">
  <ele>-0.124</ele>
  <time>2026-09-02T22:06:28Z</time>
  <course>188.25</course>
  <speed>0.01414213562373095</speed>
  <fix>3d</fix>
</trkpt>
<trkpt lat="33.810313" lon="-118.393867">
  <ele>-0.12</ele>
  <time>2026-09-02T22:06:28Z</time>
  <course>0.0</course>
  <speed>0.0</speed>
  <fix>3d</fix>
</trkpt>
<trkpt lat="33.810313" lon="-118.393867">
  <ele>-0.123</ele>
  <time>2026-09-02T22:06:28Z</time>
  <course>188.25</course>
  <speed>0.01414213562373095</speed>
  <fix>3d</fix>
</trkpt>
<trkpt lat="33.810313" lon="-118.393867">
  <ele>-0.12</ele>
  <time>2026-09-02T22:06:28Z</time>
  <course>0.0</course>
  <speed>0.0</speed>
  <fix>3d</fix>
</trkpt>
<trkpt lat="33.810313" lon="-118.393867">
  <ele>-0.124</ele>
  <time>2026-09-02T22:06:28Z</time>
  <course>188.24</course>
  <speed>0.01414213562373095</speed>
  <fix>3d</fix>
</trkpt>
<trkpt lat="33.810313" lon="-118.393867">
  <ele>-0.12</ele>
  <time>2026-09-02T22:06:28Z</time>
  <course>0.0</course>
  <speed>0.0</speed>
  <fix>3d</fix>
</trkpt>
<trkpt lat="33.810313" lon="-118.393867">
  <ele>-0.126</ele>
  <time>2026-09-02T22:06:28Z</time>
  <course>188.23</course>
  <speed>0.01414213562373095</speed>
  <fix>3d</fix>
</trkpt>
<trkpt lat="33.810313" lon="-118.393867">
  <ele>-0.12</ele>
  <time>2026-09-02T22:06:28Z</time>
  <course>0.0</course>
  <speed>0.0</speed>
  <fix>3d</fix>
</trkpt>
<trkpt lat="33.810313" lon="-118.393867">
  <ele>-0.127</ele>
  <time>2026-09-02T22:06:28Z</time>
  <course>188.22</course>
  <speed>0.01414213562373095</speed>
  <fix>3d</fix>
</trkpt>
<trkpt lat="33.810313" lon="-118.393867">
  <ele>-0.12</ele>
  <time>2026-09-02T22:06:28Z</time>
  <course>0.0</course>
  <speed>0.0</speed>
  <fix>3d</fix>
</trkpt>
<trkpt lat="33.810313" lon="-118.393867">
  <ele>-0.129</ele>
  <time>2026-09-02T22:06:28Z</time>
  <course>188.21</course>
  <speed>0.01414213562373095</speed>
  <fix>3d</fix>
</trkpt>
<trkpt lat="33.810313" lon="-118.393867">
  <ele>-0.12</ele>
  <time>2026-09-02T22:06:28Z</time>
  <course>0.0</course>
  <speed>0.0</speed>
  <fix>3d</fix>
</trkpt>
<trkpt lat="33.810313" lon="-118.393867">
  <ele>-0.129</ele>
  <time>2026-09-02T22:06:28Z</time>
  <course>188.21</course>
  <speed>0.01414213562373095</speed>
  <fix>3d</fix>
</trkpt>
<trkpt lat="33.810313" lon="-118.393867">
  <ele>-0.12</ele>
  <time>2026-09-02T22:06:28Z</time>
  <course>0.0</course>
  <speed>0.0</speed>
  <fix>3d</fix>
</trkpt>
<trkpt lat="33.810313" lon="-118.393867">
  <ele>-0.129</ele>
  <time>2026-09-02T22:06:28Z</time>
  <course>188.2</course>
  <speed>0.01414213562373095</speed>
  <fix>3d</fix>
</trkpt>
<trkpt lat="33.810313" lon="-118.393867">
  <ele>-0.12</ele>
  <time>2026-09-02T22:06:28Z</time>
  <course>0.0</course>
  <speed>0.0</speed>
  <fix>3d</fix>
</trkpt>
<trkpt lat="33.810313" lon="-118.393867">
  <ele>-0.128</ele>
  <time>2026-09-02T22:06:28Z</time>
  <course>188.19</course>
  <speed>0.01414213562373095</speed>
  <fix>3d</fix>
</trkpt>
<trkpt lat="33.810313" lon="-118.393867">
  <ele>-0.12</ele>
  <time>2026-09-02T22:06:28Z</time>
  <course>0.0</course>
  <speed>0.0</speed>
  <fix>3d</fix>
</trkpt>
<trkpt lat="33.810313" lon="-118.393867">
  <ele>-0.128</ele>
  <time>2026-09-02T22:06:28Z</time>
  <course>188.18</course>
  <speed>0.01414213562373095</speed>
  <fix>3d</fix>
</trkpt>
<trkpt lat="33.810313" lon="-118.393867">
  <ele>-0.12</ele>
  <time>2026-09-02T22:06:28Z</time>
  <course>0.0</course>
  <speed>0.0</speed>
  <fix>3d</fix>
</trkpt>
<trkpt lat="33.810313" lon="-118.393867">
  <ele>-0.127</ele>
  <time>2026-09-02T22:06:28Z</time>
  <course>188.17</course>
  <speed>0.01414213562373095</speed>
  <fix>3d</fix>
</trkpt>
<trkpt lat="33.810313" lon="-118.393867">
  <ele>-0.12</ele>
  <time>2026-09-02T22:06:28Z</time>
  <course>0.0</course>
  <speed>0.0</speed>
  <fix>3d</fix>
</trkpt>
<trkpt lat="33.810313" lon="-118.393867">
  <ele>-0.127</ele>
  <time>2026-09-02T22:06:28Z</time>
  <course>188.16</course>
  <speed>0.01414213562373095</speed>
  <fix>3d</fix>
</trkpt>
<trkpt lat="33.810313" lon="-118.393867">
  <ele>-0.12</ele>
  <time>2026-09-02T22:06:28Z</time>
  <course>0.0</course>
  <speed>0.0</speed>
  <fix>3d</fix>
</trkpt>
<trkpt lat="33.810313" lon="-118.393867">
  <ele>-0.128</ele>
  <time>2026-09-02T22:06:28Z</time>
  <course>188.16</course>
  <speed>0.01414213562373095</speed>
  <fix>3d</fix>
</trkpt>
<trkpt lat="33.810313" lon="-118.393867">
  <ele>-0.12</ele>
  <time>2026-09-02T22:06:28Z</time>
  <course>0.0</course>
  <speed>0.0</speed>
  <fix>3d</fix>
</trkpt>
<trkpt lat="33.810313" lon="-118.393867">
  <ele>-0.129</ele>
  <time>2026-09-02T22:06:28Z</time>
  <course>188.15</course>
  <speed>0.01414213562373095</speed>
  <fix>3d</fix>
</trkpt>
<trkpt lat="33.810313" lon="-118.393867">
  <ele>-0.12</ele>
  <time>2026-09-02T22:06:28Z</time>
  <course>0.0</course>
  <speed>0.0</speed>
  <fix>3d</fix>
</trkpt>
<trkpt lat="33.810313" lon="-118.393867">
  <ele>-0.131</ele>
  <time>2026-09-02T22:06:28Z</time>
  <course>188.14</course>
  <speed>0.01414213562373095</speed>
  <fix>3d</fix>
</trkpt>
<trkpt lat="33.810313" lon="-118.393867">
  <ele>-0.12</ele>
  <time>2026-09-02T22:06:28Z</time>
  <course>0.0</course>
  <speed>0.0</speed>
  <fix>3d</fix>
</trkpt>
<trkpt lat="33.810313" lon="-118.393867">
  <ele>-0.133</ele>
  <time>2026-09-02T22:06:28Z</time>
  <course>188.13</course>
  <speed>0.01414213562373095</speed>
  <fix>3d</fix>
</trkpt>
<trkpt lat="33.810313" lon="-118.393867">
  <ele>-0.12</ele>
  <time>2026-09-02T22:06:28Z</time>
  <course>0.0</course>
  <speed>0.0</speed>
  <fix>3d</fix>
</trkpt>
<trkpt lat="33.810313" lon="-118.393867">
  <ele>-0.135</ele>
  <time>2026-09-02T22:06:28Z</time>
  <course>188.12</course>
  <speed>0.01414213562373095</speed>
  <fix>3d</fix>
</trkpt>
<trkpt lat="33.810313" lon="-118.393867">
  <ele>-0.12</ele>
  <time>2026-09-02T22:06:28Z</time>
  <course>0.0</course>
  <speed>0.0</speed>
  <fix>3d</fix>
</trkpt>
<trkpt lat="33.810313" lon="-118.393867">
  <ele>-0.136</ele>
  <time>2026-09-02T22:06:28Z</time>
  <course>188.12</course>
  <speed>0.01414213562373095</speed>
  <fix>3d</fix>
</trkpt>
<trkpt lat="33.810313" lon="-118.393867">
  <ele>-0.12</ele>
  <time>2026-09-02T22:06:28Z</time>
  <course>0.0</course>
  <speed>0.0</speed>
  <fix>3d</fix>
</trkpt>
<trkpt lat="33.810313" lon="-118.393867">
  <ele>-0.136</ele>
  <time>2026-09-02T22:06:28Z</time>
  <course>188.11</course>
  <speed>0.01414213562373095</speed>
  <fix>3d</fix>
</trkpt>
<trkpt lat="33.810313" lon="-118.393867">
  <ele>-0.12</ele>
  <time>2026-09-02T22:06:28Z</time>
  <course>0.0</course>
  <speed>0.0</speed>
  <fix>3d</fix>
</trkpt>
<trkpt lat="33.810313" lon="-118.393867">
  <ele>-0.136</ele>
  <time>2026-09-02T22:06:28Z</time>
  <course>188.1</course>
  <speed>0.01414213562373095</speed>
  <fix>3d</fix>
</trkpt>
<trkpt lat="33.810313" lon="-118.393867">
  <ele>-0.12</ele>
  <time>2026-09-02T22:06:28Z</time>
  <course>0.0</course>
  <speed>0.0</speed>
  <fix>3d</fix>
</trkpt>
<trkpt lat="33.810313" lon="-118.393867">
  <ele>-0.135</ele>
  <time>2026-09-02T22:06:28Z</time>
  <course>188.09</course>
  <speed>0.01414213562373095</speed>
  <fix>3d</fix>
</trkpt>
<trkpt lat="33.810313" lon="-118.393867">
  <ele>-0.12</ele>
  <time>2026-09-02T22:06:28Z</time>
  <course>0.0</course>
  <speed>0.0</speed>
  <fix>3d</fix>
</trkpt>
<trkpt lat="33.810313" lon="-118.393867">
  <ele>-0.134</ele>
  <time>2026-09-02T22:06:28Z</time>
  <course>188.08</course>
  <speed>0.01414213562373095</speed>
  <fix>3d</fix>
</trkpt>
<trkpt lat="33.810313" lon="-118.393867">
  <ele>-0.12</ele>
  <time>2026-09-02T22:06:28Z</time>
  <course>0.0</course>
  <speed>0.0</speed>
  <fix>3d</fix>
</trkpt>
<trkpt lat="33.810313" lon="-118.393867">
  <ele>-0.131</ele>
  <time>2026-09-02T22:06:28Z</time>
  <course>188.07</course>
  <speed>0.022360679774997897</speed>
  <fix>3d</fix>
</trkpt>
<trkpt lat="33.810313" lon="-118.393867">
  <ele>-0.12</ele>
  <time>2026-09-02T22:06:28Z</time>
  <course>0.0</course>
  <speed>0.0</speed>
  <fix>3d</fix>
</trkpt>
<trkpt lat="33.810313" lon="-118.393867">
  <ele>-0.128</ele>
  <time>2026-09-02T22:06:28Z</time>
  <course>188.07</course>
  <speed>0.022360679774997897</speed>
  <fix>3d</fix>
</trkpt>
<trkpt lat="33.810313" lon="-118.393867">
  <ele>-0.12</ele>
  <time>2026-09-02T22:06:28Z</time>
  <course>0.0</course>
  <speed>0.0</speed>
  <fix>3d</fix>
</trkpt>
<trkpt lat="33.810313" lon="-118.393867">
  <ele>-0.126</ele>
  <time>2026-09-02T22:06:28Z</time>
  <course>188.06</course>
  <speed>0.022360679774997897</speed>
  <fix>3d</fix>
</trkpt>
<trkpt lat="33.810313" lon="-118.393867">
  <ele>-0.12</ele>
  <time>2026-09-02T22:06:28Z</time>
  <course>0.0</course>
  <speed>0.0</speed>
  <fix>3d</fix>
</trkpt>
<trkpt lat="33.810313" lon="-118.393867">
  <ele>-0.126</ele>
  <time>2026-09-02T22:06:28Z</time>
  <course>188.05</course>
  <speed>0.022360679774997897</speed>
  <fix>3d</fix>
</trkpt>
<trkpt lat="33.810313" lon="-118.393867">
  <ele>-0.12</ele>
  <time>2026-09-02T22:06:28Z</time>
  <course>0.0</course>
  <speed>0.0</speed>
  <fix>3d</fix>
</trkpt>
<trkpt lat="33.810313" lon="-118.393867">
  <ele>-0.126</ele>
  <time>2026-09-02T22:06:28Z</time>
  <course>188.04</course>
  <speed>0.022360679774997897</speed>
  <fix>3d</fix>
</trkpt>
<trkpt lat="33.810313" lon="-118.393867">
  <ele>-0.12</ele>
  <time>2026-09-02T22:06:28Z</time>
  <course>0.0</course>
  <speed>0.0</speed>
  <fix>3d</fix>
</trkpt>
<trkpt lat="33.810313" lon="-118.393867">
  <ele>-0.127</ele>
  <time>2026-09-02T22:06:28Z</time>
  <course>188.03</course>
  <speed>0.022360679774997897</speed>
  <fix>3d</fix>
</trkpt>
<trkpt lat="33.810313" lon="-118.393867">
  <ele>-0.12</ele>
  <time>2026-09-02T22:06:28Z</time>
  <course>0.0</course>
  <speed>0.0</speed>
  <fix>3d</fix>
</trkpt>
<trkpt lat="33.810313" lon="-118.393867">
  <ele>-0.127</ele>
  <time>2026-09-02T22:06:28Z</time>
  <course>188.03</course>
  <speed>0.022360679774997897</speed>
  <fix>3d</fix>
</trkpt>
<trkpt lat="33.810313" lon="-118.393867">
  <ele>-0.12</ele>
  <time>2026-09-02T22:06:28Z</time>
  <course>0.0</course>
  <speed>0.0</speed>
  <fix>3d</fix>
</trkpt>
<trkpt lat="33.810313" lon="-118.393867">
  <ele>-0.127</ele>
  <time>2026-09-02T22:06:28Z</time>
  <course>188.02</course>
  <speed>0.022360679774997897</speed>
  <fix>3d</fix>
</trkpt>
<trkpt lat="33.810313" lon="-118.393867">
  <ele>-0.12</ele>
  <time>2026-09-02T22:06:28Z</time>
  <course>0.0</course>
  <speed>0.0</speed>
  <fix>3d</fix>
</trkpt>
<trkpt lat="33.810313" lon="-118.393867">
  <ele>-0.128</ele>
  <time>2026-09-02T22:06:28Z</time>
  <course>188.01</course>
  <speed>0.022360679774997897</speed>
  <fix>3d</fix>
</trkpt>
<trkpt lat="33.810313" lon="-118.393867">
  <ele>-0.12</ele>
  <time>2026-09-02T22:06:28Z</time>
  <course>0.0</course>
  <speed>0.0</speed>
  <fix>3d</fix>
</trkpt>
<trkpt lat="33.810313" lon="-118.393867">
  <ele>-0.128</ele>
  <time>2026-09-02T22:06:28Z</time>
  <course>188.0</course>
  <speed>0.022360679774997897</speed>
  <fix>3d</fix>
</trkpt>
<trkpt lat="33.810313" lon="-118.393867">
  <ele>-0.12</ele>
  <time>2026-09-02T22:06:28Z</time>
  <course>0.0</course>
  <speed>0.0</speed>
  <fix>3d</fix>
</trkpt>
<trkpt lat="33.810313" lon="-118.393867">
  <ele>-0.127</ele>
  <time>2026-09-02T22:06:28Z</time>
  <course>187.99</course>
  <speed>0.022360679774997897</speed>
  <fix>3d</fix>
</trkpt>
<trkpt lat="33.810313" lon="-118.393867">
  <ele>-0.12</ele>
  <time>2026-09-02T22:06:28Z</time>
  <course>0.0</course>
  <speed>0.0</speed>
  <fix>3d</fix>
</trkpt>
<trkpt lat="33.810313" lon="-118.393867">
  <ele>-0.126</ele>
  <time>2026-09-02T22:06:28Z</time>
  <course>187.98</course>
  <speed>0.022360679774997897</speed>
  <fix>3d</fix>
</trkpt>
<trkpt lat="33.810313" lon="-118.393867">
  <ele>-0.12</ele>
  <time>2026-09-02T22:06:28Z</time>
  <course>0.0</course>
  <speed>0.0</speed>
  <fix>3d</fix>
</trkpt>
<trkpt lat="33.810313" lon="-118.393867">
  <ele>-0.123</ele>
  <time>2026-09-02T22:06:28Z</time>
  <course>187.98</course>
  <speed>0.022360679774997897</speed>
  <fix>3d</fix>
</trkpt>
<trkpt lat="33.810313" lon="-118.393867">
  <ele>-0.12</ele>
  <time>2026-09-02T22:06:28Z</time>
  <course>0.0</course>
  <speed>0.0</speed>
  <fix>3d</fix>
</trkpt>
<trkpt lat="33.810313" lon="-118.393867">
  <ele>-0.121</ele>
  <time>2026-09-02T22:06:28Z</time>
  <course>187.97</course>
  <speed>0.022360679774997897</speed>
  <fix>3d</fix>
</trkpt>
<trkpt lat="33.810313" lon="-118.393867">
  <ele>-0.12</ele>
  <time>2026-09-02T22:06:28Z</time>
  <course>0.0</course>
  <speed>0.0</speed>
  <fix>3d</fix>
</trkpt>
<trkpt lat="33.810313" lon="-118.393867">
  <ele>-0.12</ele>
  <time>2026-09-02T22:06:28Z</time>
  <course>187.96</course>
  <speed>0.022360679774997897</speed>
  <fix>3d</fix>
</trkpt>
<trkpt lat="33.810313" lon="-118.393867">
  <ele>-0.12</ele>
  <time>2026-09-02T22:06:28Z</time>
  <course>0.0</course>
  <speed>0.0</speed>
  <fix>3d</fix>
</trkpt>
<trkpt lat="33.810313" lon="-118.393867">
  <ele>-0.12</ele>
  <time>2026-09-02T22:06:28Z</time>
  <course>187.95</course>
  <speed>0.022360679774997897</speed>
  <fix>3d</fix>
</trkpt>
<trkpt lat="33.810313" lon="-118.393867">
  <ele>-0.12</ele>
  <time>2026-09-02T22:06:28Z</time>
  <course>0.0</course>
  <speed>0.0</speed>
  <fix>3d</fix>
</trkpt>
<trkpt lat="33.810313" lon="-118.393867">
  <ele>-0.122</ele>
  <time>2026-09-02T22:06:28Z</time>
  <course>187.94</course>
  <speed>0.022360679774997897</speed>
  <fix>3d</fix>
</trkpt>
<trkpt lat="33.810313" lon="-118.393867">
  <ele>-0.12</ele>
  <time>2026-09-02T22:06:28Z</time>
  <course>0.0</course>
  <speed>0.0</speed>
  <fix>3d</fix>
</trkpt>
<trkpt lat="33.810313" lon="-118.393867">
  <ele>-0.125</ele>
  <time>2026-09-02T22:06:28Z</time>
  <course>187.94</course>
  <speed>0.022360679774997897</speed>
  <fix>3d</fix>
</trkpt>
<trkpt lat="33.810313" lon="-118.393867">
  <ele>-0.12</ele>
  <time>2026-09-02T22:06:28Z</time>
  <course>0.0</course>
  <speed>0.0</speed>
  <fix>3d</fix>
</trkpt>
<trkpt lat="33.810313" lon="-118.393867">
  <ele>-0.129</ele>
  <time>2026-09-02T22:06:28Z</time>
  <course>187.93</course>
  <speed>0.022360679774997897</speed>
  <fix>3d</fix>
</trkpt>
<trkpt lat="33.810313" lon="-118.393867">
  <ele>-0.12</ele>
  <time>2026-09-02T22:06:28Z</time>
  <course>0.0</course>
  <speed>0.0</speed>
  <fix>3d</fix>
</trkpt>
<trkpt lat="33.810313" lon="-118.393867">
  <ele>-0.131</ele>
  <time>2026-09-02T22:06:28Z</time>
  <course>187.92</course>
  <speed>0.022360679774997897</speed>
  <fix>3d</fix>
</trkpt>
<trkpt lat="33.810313" lon="-118.393867">
  <ele>-0.12</ele>
  <time>2026-09-02T22:06:28Z</time>
  <course>0.0</course>
  <speed>0.0</speed>
  <fix>3d</fix>
</trkpt>
<trkpt lat="33.810313" lon="-118.393867">
  <ele>-0.132</ele>
  <time>2026-09-02T22:06:28Z</time>
  <course>187.91</course>
  <speed>0.022360679774997897</speed>
  <fix>3d</fix>
</trkpt>
<trkpt lat="33.810313" lon="-118.393867">
  <ele>-0.12</ele>
  <time>2026-09-02T22:06:28Z</time>
  <course>0.0</course>
  <speed>0.0</speed>
  <fix>3d</fix>
</trkpt>
<trkpt lat="33.810313" lon="-118.393867">
  <ele>-0.132</ele>
  <time>2026-09-02T22:06:28Z</time>
  <course>187.9</course>
  <speed>0.022360679774997897</speed>
  <fix>3d</fix>
</trkpt>
<trkpt lat="33.810313" lon="-118.393867">
  <ele>-0.12</ele>
  <time>2026-09-02T22:06:28Z</time>
  <course>0.0</course>
  <speed>0.0</speed>
  <fix>3d</fix>
</trkpt>
<trkpt lat="33.810313" lon="-118.393867">
  <ele>-0.132</ele>
  <time>2026-09-02T22:06:28Z</time>
  <course>187.9</course>
  <speed>0.022360679774997897</speed>
  <fix>3d</fix>
</trkpt>
<trkpt lat="33.810313" lon="-118.393867">
  <ele>-0.12</ele>
  <time>2026-09-02T22:06:28Z</time>
  <course>0.0</course>
  <speed>0.0</speed>
  <fix>3d</fix>
</trkpt>
<trkpt lat="33.810313" lon="-118.393867">
  <ele>-0.13</ele>
  <time>2026-09-02T22:06:28Z</time>
  <course>187.89</course>
  <speed>0.022360679774997897</speed>
  <fix>3d</fix>
</trkpt>
<trkpt lat="33.810313" lon="-118.393867">
  <ele>-0.12</ele>
  <time>2026-09-02T22:06:28Z</time>
  <course>0.0</course>
  <speed>0.0</speed>
  <fix>3d</fix>
</trkpt>
<trkpt lat="33.810313" lon="-118.393867">
  <ele>-0.127</ele>
  <time>2026-09-02T22:06:28Z</time>
  <course>187.88</course>
  <speed>0.022360679774997897</speed>
  <fix>3d</fix>
</trkpt>
<trkpt lat="33.810313" lon="-118.393867">
  <ele>-0.12</ele>
  <time>2026-09-02T22:06:28Z</time>
  <course>0.0</course>
  <speed>0.0</speed>
  <fix>3d</fix>
</trkpt>
<trkpt lat="33.810313" lon="-118.393867">
  <ele>-0.123</ele>
  <time>2026-09-02T22:06:28Z</time>
  <course>187.87</course>
  <speed>0.022360679774997897</speed>
  <fix>3d</fix>
</trkpt>
<trkpt lat="33.810313" lon="-118.393867">
  <ele>-0.12</ele>
  <time>2026-09-02T22:06:28Z</time>
  <course>0.0</course>
  <speed>0.0</speed>
  <fix>3d</fix>
</trkpt>
<trkpt lat="33.810313" lon="-118.393867">
  <ele>-0.121</ele>
  <time>2026-09-02T22:06:28Z</time>
  <course>187.87</course>
  <speed>0.022360679774997897</speed>
  <fix>3d</fix>
</trkpt>
<trkpt lat="33.810313" lon="-118.393867">
  <ele>-0.12</ele>
  <time>2026-09-02T22:06:28Z</time>
  <course>0.0</course>
  <speed>0.0</speed>
  <fix>3d</fix>
</trkpt>
<trkpt lat="33.810313" lon="-118.393867">
  <ele>-0.121</ele>
  <time>2026-09-02T22:06:28Z</time>
  <course>187.86</course>
  <speed>0.022360679774997897</speed>
  <fix>3d</fix>
</trkpt>
<trkpt lat="33.810313" lon="-118.393867">
  <ele>-0.12</ele>
  <time>2026-09-02T22:06:28Z</time>
  <course>0.0</course>
  <speed>0.0</speed>
  <fix>3d</fix>
</trkpt>
<trkpt lat="33.810313" lon="-118.393867">
  <ele>-0.123</ele>
  <time>2026-09-02T22:06:28Z</time>
  <course>187.85</course>
  <speed>0.022360679774997897</speed>
  <fix>3d</fix>
</trkpt>
<trkpt lat="33.810313" lon="-118.393867">
  <ele>-0.12</ele>
  <time>2026-09-02T22:06:28Z</time>
  <course>0.0</course>
  <speed>0.0</speed>
  <fix>3d</fix>
</trkpt>
<trkpt lat="33.810313" lon="-118.393867">
  <ele>-0.124</ele>
  <time>2026-09-02T22:06:28Z</time>
  <course>187.84</course>
  <speed>0.022360679774997897</speed>
  <fix>3d</fix>
</trkpt>
<trkpt lat="33.810313" lon="-118.393867">
  <ele>-0.12</ele>
  <time>2026-09-02T22:06:28Z</time>
  <course>0.0</course>
  <speed>0.0</speed>
  <fix>3d</fix>
</trkpt>
<trkpt lat="33.810313" lon="-118.393867">
  <ele>-0.126</ele>
  <time>2026-09-02T22:06:28Z</time>
  <course>187.83</course>
  <speed>0.022360679774997897</speed>
  <fix>3d</fix>
</trkpt>
<trkpt lat="33.810313" lon="-118.393867">
  <ele>-0.12</ele>
  <time>2026-09-02T22:06:28Z</time>
  <course>0.0</course>
  <speed>0.0</speed>
  <fix>3d</fix>
</trkpt>
<trkpt lat="33.810313" lon="-118.393867">
  <ele>-0.127</ele>
  <time>2026-09-02T22:06:28Z</time>
  <course>187.83</course>
  <speed>0.022360679774997897</speed>
  <fix>3d</fix>
</trkpt>
<trkpt lat="33.810313" lon="-118.393867">
  <ele>-0.12</ele>
  <time>2026-09-02T22:06:28Z</time>
  <course>0.0</course>
  <speed>0.0</speed>
  <fix>3d</fix>
</trkpt>
<trkpt lat="33.810313" lon="-118.393867">
  <ele>-0.127</ele>
  <time>2026-09-02T22:06:28Z</time>
  <course>187.82</course>
  <speed>0.022360679774997897</speed>
  <fix>3d</fix>
</trkpt>
<trkpt lat="33.810313" lon="-118.393867">
  <ele>-0.12</ele>
  <time>2026-09-02T22:06:28Z</time>
  <course>0.0</course>
  <speed>0.0</speed>
  <fix>3d</fix>
</trkpt>
<trkpt lat="33.810313" lon="-118.393867">
  <ele>-0.127</ele>
  <time>2026-09-02T22:06:28Z</time>
  <course>187.81</course>
  <speed>0.022360679774997897</speed>
  <fix>3d</fix>
</trkpt>
<trkpt lat="33.810313" lon="-118.393867">
  <ele>-0.12</ele>
  <time>2026-09-02T22:06:28Z</time>
  <course>0.0</course>
  <speed>0.0</speed>
  <fix>3d</fix>
</trkpt>
<trkpt lat="33.810313" lon="-118.393867">
  <ele>-0.126</ele>
  <time>2026-09-02T22:06:28Z</time>
  <course>187.8</course>
  <speed>0.022360679774997897</speed>
  <fix>3d</fix>
</trkpt>
<trkpt lat="33.810313" lon="-118.393867">
  <ele>-0.12</ele>
  <time>2026-09-02T22:06:28Z</time>
  <course>0.0</course>
  <speed>0.0</speed>
  <fix>3d</fix>
</trkpt>
<trkpt lat="33.810313" lon="-118.393867">
  <ele>-0.124</ele>
  <time>2026-09-02T22:06:28Z</time>
  <course>187.8</course>
  <speed>0.022360679774997897</speed>
  <fix>3d</fix>
</trkpt>
<trkpt lat="33.810313" lon="-118.393867">
  <ele>-0.12</ele>
  <time>2026-09-02T22:06:28Z</time>
  <course>0.0</course>
  <speed>0.0</speed>
  <fix>3d</fix>
</trkpt>
<trkpt lat="33.810313" lon="-118.393867">
  <ele>-0.121</ele>
  <time>2026-09-02T22:06:28Z</time>
  <course>187.79</course>
  <speed>0.022360679774997897</speed>
  <fix>3d</fix>
</trkpt>
<trkpt lat="33.810313" lon="-118.393867">
  <ele>-0.12</ele>
  <time>2026-09-02T22:06:28Z</time>
  <course>0.0</course>
  <speed>0.0</speed>
  <fix>3d</fix>
</trkpt>
<trkpt lat="33.810313" lon="-118.393867">
  <ele>-0.119</ele>
  <time>2026-09-02T22:06:28Z</time>
  <course>187.78</course>
  <speed>0.022360679774997897</speed>
  <fix>3d</fix>
</trkpt>
<trkpt lat="33.810313" lon="-118.393867">
  <ele>-0.12</ele>
  <time>2026-09-02T22:06:28Z</time>
  <course>0.0</course>
  <speed>0.0</speed>
  <fix>3d</fix>
</trkpt>
<trkpt lat="33.810313" lon="-118.393867">
  <ele>-0.118</ele>
  <time>2026-09-02T22:06:28Z</time>
  <course>187.77</course>
  <speed>0.022360679774997897</speed>
  <fix>3d</fix>
</trkpt>
<trkpt lat="33.810313" lon="-118.393867">
  <ele>-0.12</ele>
  <time>2026-09-02T22:06:28Z</time>
  <course>0.0</course>
  <speed>0.0</speed>
  <fix>3d</fix>
</trkpt>
<trkpt lat="33.810313" lon="-118.393867">
  <ele>-0.118</ele>
  <time>2026-09-02T22:06:28Z</time>
  <course>187.76</course>
  <speed>0.022360679774997897</speed>
  <fix>3d</fix>
</trkpt>
<trkpt lat="33.810313" lon="-118.393867">
  <ele>-0.12</ele>
  <time>2026-09-02T22:06:28Z</time>
  <course>0.0</course>
  <speed>0.0</speed>
  <fix>3d</fix>
</trkpt>
<trkpt lat="33.810313" lon="-118.393867">
  <ele>-0.119</ele>
  <time>2026-09-02T22:06:28Z</time>
  <course>187.76</course>
  <speed>0.022360679774997897</speed>
  <fix>3d</fix>
</trkpt>
<trkpt lat="33.810313" lon="-118.393867">
  <ele>-0.12</ele>
  <time>2026-09-02T22:06:28Z</time>
  <course>0.0</course>
  <speed>0.0</speed>
  <fix>3d</fix>
</trkpt>
<trkpt lat="33.810313" lon="-118.393867">
  <ele>-0.12</ele>
  <time>2026-09-02T22:06:28Z</time>
  <course>187.75</course>
  <speed>0.022360679774997897</speed>
  <fix>3d</fix>
</trkpt>
<trkpt lat="33.810313" lon="-118.393867">
  <ele>-0.12</ele>
  <time>2026-09-02T22:06:28Z</time>
  <course>0.0</course>
  <speed>0.0</speed>
  <fix>3d</fix>
</trkpt>
<trkpt lat="33.810313" lon="-118.393867">
  <ele>-0.12</ele>
  <time>2026-09-02T22:06:28Z</time>
  <course>187.74</course>
  <speed>0.0282842712474619</speed>
  <fix>3d</fix>
</trkpt>
<trkpt lat="33.810313" lon="-118.393867">
  <ele>-0.12</ele>
  <time>2026-09-02T22:06:28Z</time>
  <course>0.0</course>
  <speed>0.0</speed>
  <fix>3d</fix>
</trkpt>
<trkpt lat="33.810313" lon="-118.393867">
  <ele>-0.12</ele>
  <time>2026-09-02T22:06:28Z</time>
  <course>187.74</course>
  <speed>0.0282842712474619</speed>
  <fix>3d</fix>
</trkpt>
<trkpt lat="33.810313" lon="-118.393867">
  <ele>-0.12</ele>
  <time>2026-09-02T22:06:28Z</time>
  <course>0.0</course>
  <speed>0.0</speed>
  <fix>3d</fix>
</trkpt>
<trkpt lat="33.810313" lon="-118.393867">
  <ele>-0.119</ele>
  <time>2026-09-02T22:06:28Z</time>
  <course>187.73</course>
  <speed>0.0282842712474619</speed>
  <fix>3d</fix>
</trkpt>
<trkpt lat="33.810313" lon="-118.393867">
  <ele>-0.12</ele>
  <time>2026-09-02T22:06:28Z</time>
  <course>0.0</course>
  <speed>0.0</speed>
  <fix>3d</fix>
</trkpt>
<trkpt lat="33.810313" lon="-118.393867">
  <ele>-0.118</ele>
  <time>2026-09-02T22:06:28Z</time>
  <course>187.72</course>
  <speed>0.0282842712474619</speed>
  <fix>3d</fix>
</trkpt>
<trkpt lat="33.810313" lon="-118.393867">
  <ele>-0.12</ele>
  <time>2026-09-02T22:06:28Z</time>
  <course>0.0</course>
  <speed>0.0</speed>
  <fix>3d</fix>
</trkpt>
<trkpt lat="33.810313" lon="-118.393867">
  <ele>-0.116</ele>
  <time>2026-09-02T22:06:28Z</time>
  <course>187.71</course>
  <speed>0.0282842712474619</speed>
  <fix>3d</fix>
</trkpt>
<trkpt lat="33.810313" lon="-118.393867">
  <ele>-0.12</ele>
  <time>2026-09-02T22:06:28Z</time>
  <course>0.0</course>
  <speed>0.0</speed>
  <fix>3d</fix>
</trkpt>
<trkpt lat="33.810313" lon="-118.393867">
  <ele>-0.113</ele>
  <time>2026-09-02T22:06:28Z</time>
  <course>187.71</course>
  <speed>0.0282842712474619</speed>
  <fix>3d</fix>
</trkpt>
<trkpt lat="33.810313" lon="-118.393867">
  <ele>-0.12</ele>
  <time>2026-09-02T22:06:28Z</time>
  <course>0.0</course>
  <speed>0.0</speed>
  <fix>3d</fix>
</trkpt>
<trkpt lat="33.810313" lon="-118.393867">
  <ele>-0.112</ele>
  <time>2026-09-02T22:06:28Z</time>
  <course>187.7</course>
  <speed>0.0282842712474619</speed>
  <fix>3d</fix>
</trkpt>
<trkpt lat="33.810313" lon="-118.393867">
  <ele>-0.12</ele>
  <time>2026-09-02T22:06:28Z</time>
  <course>0.0</course>
  <speed>0.0</speed>
  <fix>3d</fix>
</trkpt>
<trkpt lat="33.810313" lon="-118.393867">
  <ele>-0.113</ele>
  <time>2026-09-02T22:06:28Z</time>
  <course>187.69</course>
  <speed>0.0282842712474619</speed>
  <fix>3d</fix>
</trkpt>
<trkpt lat="33.810313" lon="-118.393867">
  <ele>-0.12</ele>
  <time>2026-09-02T22:06:28Z</time>
  <course>0.0</course>
  <speed>0.0</speed>
  <fix>3d</fix>
</trkpt>
<trkpt lat="33.810313" lon="-118.393867">
  <ele>-0.115</ele>
  <time>2026-09-02T22:06:28Z</time>
  <course>187.68</course>
  <speed>0.0282842712474619</speed>
  <fix>3d</fix>
</trkpt>
<trkpt lat="33.810313" lon="-118.393867">
  <ele>-0.12</ele>
  <time>2026-09-02T22:06:28Z</time>
  <course>0.0</course>
  <speed>0.0</speed>
  <fix>3d</fix>
</trkpt>
<trkpt lat="33.810313" lon="-118.393867">
  <ele>-0.119</ele>
  <time>2026-09-02T22:06:28Z</time>
  <course>187.68</course>
  <speed>0.0282842712474619</speed>
  <fix>3d</fix>
</trkpt>
<trkpt lat="33.810313" lon="-118.393867">
  <ele>-0.12</ele>
  <time>2026-09-02T22:06:28Z</time>
  <course>0.0</course>
  <speed>0.0</speed>
  <fix>3d</fix>
</trkpt>
<trkpt lat="33.810313" lon="-118.393867">
  <ele>-0.124</ele>
  <time>2026-09-02T22:06:28Z</time>
  <course>187.67</course>
  <speed>0.0282842712474619</speed>
  <fix>3d</fix>
</trkpt>
<trkpt lat="33.810313" lon="-118.393867">
  <ele>-0.12</ele>
  <time>2026-09-02T22:06:28Z</time>
  <course>0.0</course>
  <speed>0.0</speed>
  <fix>3d</fix>
</trkpt>
<trkpt lat="33.810313" lon="-118.393867">
  <ele>-0.129</ele>
  <time>2026-09-02T22:06:28Z</time>
  <course>187.66</course>
  <speed>0.0282842712474619</speed>
  <fix>3d</fix>
</trkpt>
<trkpt lat="33.810313" lon="-118.393867">
  <ele>-0.12</ele>
  <time>2026-09-02T22:06:28Z</time>
  <course>0.0</course>
  <speed>0.0</speed>
  <fix>3d</fix>
</trkpt>
<trkpt lat="33.810313" lon="-118.393867">
  <ele>-0.133</ele>
  <time>2026-09-02T22:06:28Z</time>
  <course>187.66</course>
  <speed>0.0282842712474619</speed>
  <fix>3d</fix>
</trkpt>
<trkpt lat="33.810313" lon="-118.393867">
  <ele>-0.12</ele>
  <time>2026-09-02T22:06:28Z</time>
  <course>0.0</course>
  <speed>0.0</speed>
  <fix>3d</fix>
</trkpt>
<trkpt lat="33.810313" lon="-118.393867">
  <ele>-0.135</ele>
  <time>2026-09-02T22:06:28Z</time>
  <course>187.65</course>
  <speed>0.0282842712474619</speed>
  <fix>3d</fix>
</trkpt>
<trkpt lat="33.810313" lon="-118.393867">
  <ele>-0.12</ele>
  <time>2026-09-02T22:06:28Z</time>
  <course>0.0</course>
  <speed>0.0</speed>
  <fix>3d</fix>
</trkpt>
<trkpt lat="33.810313" lon="-118.393867">
  <ele>-0.135</ele>
  <time>2026-09-02T22:06:28Z</time>
  <course>187.64</course>
  <speed>0.0282842712474619</speed>
  <fix>3d</fix>
</trkpt>
<trkpt lat="33.810313" lon="-118.393867">
  <ele>-0.12</ele>
  <time>2026-09-02T22:06:28Z</time>
  <course>0.0</course>
  <speed>0.0</speed>
  <fix>3d</fix>
</trkpt>
<trkpt lat="33.810313" lon="-118.393867">
  <ele>-0.135</ele>
  <time>2026-09-02T22:06:28Z</time>
  <course>187.64</course>
  <speed>0.0282842712474619</speed>
  <fix>3d</fix>
</trkpt>
<trkpt lat="33.810313" lon="-118.393867">
  <ele>-0.12</ele>
  <time>2026-09-02T22:06:28Z</time>
  <course>0.0</course>
  <speed>0.0</speed>
  <fix>3d</fix>
</trkpt>
<trkpt lat="33.810313" lon="-118.393867">
  <ele>-0.133</ele>
  <time>2026-09-02T22:06:28Z</time>
  <course>187.63</course>
  <speed>0.0282842712474619</speed>
  <fix>3d</fix>
</trkpt>
<trkpt lat="33.810313" lon="-118.393867">
  <ele>-0.12</ele>
  <time>2026-09-02T22:06:28Z</time>
  <course>0.0</course>
  <speed>0.0</speed>
  <fix>3d</fix>
</trkpt>
<trkpt lat="33.810313" lon="-118.393867">
  <ele>-0.132</ele>
  <time>2026-09-02T22:06:28Z</time>
  <course>187.63</course>
  <speed>0.03605551275463989</speed>
  <fix>3d</fix>
</trkpt>
<trkpt lat="33.810313" lon="-118.393867">
  <ele>-0.12</ele>
  <time>2026-09-02T22:06:28Z</time>
  <course>0.0</course>
  <speed>0.0</speed>
  <fix>3d</fix>
</trkpt>
<trkpt lat="33.810313" lon="-118.393867">
  <ele>-0.132</ele>
  <time>2026-09-02T22:06:28Z</time>
  <course>187.62</course>
  <speed>0.03605551275463989</speed>
  <fix>3d</fix>
</trkpt>
<trkpt lat="33.810313" lon="-118.393867">
  <ele>-0.12</ele>
  <time>2026-09-02T22:06:28Z</time>
  <course>0.0</course>
  <speed>0.0</speed>
  <fix>3d</fix>
</trkpt>
<trkpt lat="33.810313" lon="-118.393867">
  <ele>-0.133</ele>
  <time>2026-09-02T22:06:28Z</time>
  <course>187.61</course>
  <speed>0.03605551275463989</speed>
  <fix>3d</fix>
</trkpt>
<trkpt lat="33.810313" lon="-118.393867">
  <ele>-0.12</ele>
  <time>2026-09-02T22:06:28Z</time>
  <course>0.0</course>
  <speed>0.0</speed>
  <fix>3d</fix>
</trkpt>
<trkpt lat="33.810313" lon="-118.393867">
  <ele>-0.134</ele>
  <time>2026-09-02T22:06:28Z</time>
  <course>187.6</course>
  <speed>0.03605551275463989</speed>
  <fix>3d</fix>
</trkpt>
<trkpt lat="33.810313" lon="-118.393867">
  <ele>-0.12</ele>
  <time>2026-09-02T22:06:28Z</time>
  <course>0.0</course>
  <speed>0.0</speed>
  <fix>3d</fix>
</trkpt>
<trkpt lat="33.810313" lon="-118.393867">
  <ele>-0.134</ele>
  <time>2026-09-02T22:06:28Z</time>
  <course>187.6</course>
  <speed>0.03605551275463989</speed>
  <fix>3d</fix>
</trkpt>
<trkpt lat="33.810313" lon="-118.393867">
  <ele>-0.12</ele>
  <time>2026-09-02T22:06:28Z</time>
  <course>0.0</course>
  <speed>0.0</speed>
  <fix>3d</fix>
</trkpt>
<trkpt lat="33.810313" lon="-118.393867">
  <ele>-0.134</ele>
  <time>2026-09-02T22:06:28Z</time>
  <course>187.59</course>
  <speed>0.03605551275463989</speed>
  <fix>3d</fix>
</trkpt>
<trkpt lat="33.810313" lon="-118.393867">
  <ele>-0.12</ele>
  <time>2026-09-02T22:06:28Z</time>
  <course>0.0</course>
  <speed>0.0</speed>
  <fix>3d</fix>
</trkpt>
<trkpt lat="33.810313" lon="-118.393867">
  <ele>-0.132</ele>
  <time>2026-09-02T22:06:28Z</time>
  <course>187.58</course>
  <speed>0.03605551275463989</speed>
  <fix>3d</fix>
</trkpt>
<trkpt lat="33.810313" lon="-118.393867">
  <ele>-0.12</ele>
  <time>2026-09-02T22:06:28Z</time>
  <course>0.0</course>
  <speed>0.0</speed>
  <fix>3d</fix>
</trkpt>
<trkpt lat="33.810313" lon="-118.393867">
  <ele>-0.129</ele>
  <time>2026-09-02T22:06:29Z</time>
  <course>187.58</course>
  <speed>0.03605551275463989</speed>
  <fix>3d</fix>
</trkpt>
<trkpt lat="33.810313" lon="-118.393867">
  <ele>-0.12</ele>
  <time>2026-09-02T22:06:29Z</time>
  <course>0.0</course>
  <speed>0.0</speed>
  <fix>3d</fix>
</trkpt>
<trkpt lat="33.810313" lon="-118.393867">
  <ele>-0.127</ele>
  <time>2026-09-02T22:06:29Z</time>
  <course>187.57</course>
  <speed>0.03605551275463989</speed>
  <fix>3d</fix>
</trkpt>
<trkpt lat="33.810313" lon="-118.393867">
  <ele>-0.12</ele>
  <time>2026-09-02T22:06:29Z</time>
  <course>0.0</course>
  <speed>0.0</speed>
  <fix>3d</fix>
</trkpt>
<trkpt lat="33.810313" lon="-118.393867">
  <ele>-0.125</ele>
  <time>2026-09-02T22:06:29Z</time>
  <course>187.56</course>
  <speed>0.03605551275463989</speed>
  <fix>3d</fix>
</trkpt>
<trkpt lat="33.810313" lon="-118.393867">
  <ele>-0.12</ele>
  <time>2026-09-02T22:06:29Z</time>
  <course>0.0</course>
  <speed>0.0</speed>
  <fix>3d</fix>
</trkpt>
<trkpt lat="33.810313" lon="-118.393867">
  <ele>-0.122</ele>
  <time>2026-09-02T22:06:29Z</time>
  <course>187.56</course>
  <speed>0.03605551275463989</speed>
  <fix>3d</fix>
</trkpt>
<trkpt lat="33.810313" lon="-118.393867">
  <ele>-0.12</ele>
  <time>2026-09-02T22:06:29Z</time>
  <course>0.0</course>
  <speed>0.0</speed>
  <fix>3d</fix>
</trkpt>
<trkpt lat="33.810313" lon="-118.393867">
  <ele>-0.119</ele>
  <time>2026-09-02T22:06:29Z</time>
  <course>187.55</course>
  <speed>0.03605551275463989</speed>
  <fix>3d</fix>
</trkpt>
<trkpt lat="33.810313" lon="-118.393867">
  <ele>-0.12</ele>
  <time>2026-09-02T22:06:29Z</time>
  <course>0.0</course>
  <speed>0.0</speed>
  <fix>3d</fix>
</trkpt>
<trkpt lat="33.810313" lon="-118.393867">
  <ele>-0.117</ele>
  <time>2026-09-02T22:06:29Z</time>
  <course>187.54</course>
  <speed>0.03605551275463989</speed>
  <fix>3d</fix>
</trkpt>
<trkpt lat="33.810313" lon="-118.393867">
  <ele>-0.12</ele>
  <time>2026-09-02T22:06:29Z</time>
  <course>0.0</course>
  <speed>0.0</speed>
  <fix>3d</fix>
</trkpt>
<trkpt lat="33.810313" lon="-118.393867">
  <ele>-0.117</ele>
  <time>2026-09-02T22:06:29Z</time>
  <course>187.54</course>
  <speed>0.03605551275463989</speed>
  <fix>3d</fix>
</trkpt>
<trkpt lat="33.810313" lon="-118.393867">
  <ele>-0.12</ele>
  <time>2026-09-02T22:06:29Z</time>
  <course>0.0</course>
  <speed>0.0</speed>
  <fix>3d</fix>
</trkpt>
<trkpt lat="33.810313" lon="-118.393867">
  <ele>-0.118</ele>
  <time>2026-09-02T22:06:29Z</time>
  <course>187.53</course>
  <speed>0.03605551275463989</speed>
  <fix>3d</fix>
</trkpt>
<trkpt lat="33.810313" lon="-118.393867">
  <ele>-0.12</ele>
  <time>2026-09-02T22:06:29Z</time>
  <course>0.0</course>
  <speed>0.0</speed>
  <fix>3d</fix>
</trkpt>
<trkpt lat="33.810313" lon="-118.393867">
  <ele>-0.119</ele>
  <time>2026-09-02T22:06:29Z</time>
  <course>187.52</course>
  <speed>0.03605551275463989</speed>
  <fix>3d</fix>
</trkpt>
<trkpt lat="33.810313" lon="-118.393867">
  <ele>-0.12</ele>
  <time>2026-09-02T22:06:29Z</time>
  <course>0.0</course>
  <speed>0.0</speed>
  <fix>3d</fix>
</trkpt>
<trkpt lat="33.810313" lon="-118.393867">
  <ele>-0.12</ele>
  <time>2026-09-02T22:06:29Z</time>
  <course>187.52</course>
  <speed>0.03605551275463989</speed>
  <fix>3d</fix>
</trkpt>
<trkpt lat="33.810313" lon="-118.393867">
  <ele>-0.12</ele>
  <time>2026-09-02T22:06:29Z</time>
  <course>0.0</course>
  <speed>0.0</speed>
  <fix>3d</fix>
</trkpt>
<trkpt lat="33.810313" lon="-118.393867">
  <ele>-0.121</ele>
  <time>2026-09-02T22:06:29Z</time>
  <course>187.51</course>
  <speed>0.03605551275463989</speed>
  <fix>3d</fix>
</trkpt>
<trkpt lat="33.810313" lon="-118.393867">
  <ele>-0.12</ele>
  <time>2026-09-02T22:06:29Z</time>
  <course>0.0</course>
  <speed>0.0</speed>
  <fix>3d</fix>
</trkpt>
<trkpt lat="33.810313" lon="-118.393867">
  <ele>-0.121</ele>
  <time>2026-09-02T22:06:29Z</time>
  <course>187.51</course>
  <speed>0.03605551275463989</speed>
  <fix>3d</fix>
</trkpt>
<trkpt lat="33.810313" lon="-118.393867">
  <ele>-0.12</ele>
  <time>2026-09-02T22:06:29Z</time>
  <course>0.0</course>
  <speed>0.0</speed>
  <fix>3d</fix>
</trkpt>
<trkpt lat="33.810313" lon="-118.393867">
  <ele>-0.121</ele>
  <time>2026-09-02T22:06:29Z</time>
  <course>187.5</course>
  <speed>0.03605551275463989</speed>
  <fix>3d</fix>
</trkpt>
<trkpt lat="33.810313" lon="-118.393867">
  <ele>-0.12</ele>
  <time>2026-09-02T22:06:29Z</time>
  <course>0.0</course>
  <speed>0.0</speed>
  <fix>3d</fix>
</trkpt>
<trkpt lat="33.810313" lon="-118.393867">
  <ele>-0.121</ele>
  <time>2026-09-02T22:06:29Z</time>
  <course>187.49</course>
  <speed>0.03605551275463989</speed>
  <fix>3d</fix>
</trkpt>
<trkpt lat="33.810313" lon="-118.393867">
  <ele>-0.12</ele>
  <time>2026-09-02T22:06:29Z</time>
  <course>0.0</course>
  <speed>0.0</speed>
  <fix>3d</fix>
</trkpt>
<trkpt lat="33.810313" lon="-118.393867">
  <ele>-0.121</ele>
  <time>2026-09-02T22:06:29Z</time>
  <course>187.49</course>
  <speed>0.03605551275463989</speed>
  <fix>3d</fix>
</trkpt>
<trkpt lat="33.810313" lon="-118.393867">
  <ele>-0.12</ele>
  <time>2026-09-02T22:06:29Z</time>
  <course>0.0</course>
  <speed>0.0</speed>
  <fix>3d</fix>
</trkpt>
<trkpt lat="33.810313" lon="-118.393867">
  <ele>-0.121</ele>
  <time>2026-09-02T22:06:29Z</time>
  <course>187.48</course>
  <speed>0.03605551275463989</speed>
  <fix>3d</fix>
</trkpt>
<trkpt lat="33.810313" lon="-118.393867">
  <ele>-0.12</ele>
  <time>2026-09-02T22:06:29Z</time>
  <course>0.0</course>
  <speed>0.0</speed>
  <fix>3d</fix>
</trkpt>
<trkpt lat="33.810313" lon="-118.393867">
  <ele>-0.122</ele>
  <time>2026-09-02T22:06:29Z</time>
  <course>187.47</course>
  <speed>0.03605551275463989</speed>
  <fix>3d</fix>
</trkpt>
<trkpt lat="33.810313" lon="-118.393867">
  <ele>-0.12</ele>
  <time>2026-09-02T22:06:29Z</time>
  <course>0.0</course>
  <speed>0.0</speed>
  <fix>3d</fix>
</trkpt>
<trkpt lat="33.810313" lon="-118.393867">
  <ele>-0.124</ele>
  <time>2026-09-02T22:06:29Z</time>
  <course>187.47</course>
  <speed>0.03605551275463989</speed>
  <fix>3d</fix>
</trkpt>
<trkpt lat="33.810313" lon="-118.393867">
  <ele>-0.12</ele>
  <time>2026-09-02T22:06:29Z</time>
  <course>0.0</course>
  <speed>0.0</speed>
  <fix>3d</fix>
</trkpt>
<trkpt lat="33.810313" lon="-118.393867">
  <ele>-0.127</ele>
  <time>2026-09-02T22:06:29Z</time>
  <course>187.46</course>
  <speed>0.03605551275463989</speed>
  <fix>3d</fix>
</trkpt>
<trkpt lat="33.810313" lon="-118.393867">
  <ele>-0.12</ele>
  <time>2026-09-02T22:06:29Z</time>
  <course>0.0</course>
  <speed>0.0</speed>
  <fix>3d</fix>
</trkpt>
<trkpt lat="33.810313" lon="-118.393867">
  <ele>-0.129</ele>
  <time>2026-09-02T22:06:29Z</time>
  <course>187.45</course>
  <speed>0.03605551275463989</speed>
  <fix>3d</fix>
</trkpt>
<trkpt lat="33.810313" lon="-118.393867">
  <ele>-0.12</ele>
  <time>2026-09-02T22:06:29Z</time>
  <course>0.0</course>
  <speed>0.0</speed>
  <fix>3d</fix>
</trkpt>
<trkpt lat="33.810313" lon="-118.393867">
  <ele>-0.131</ele>
  <time>2026-09-02T22:06:29Z</time>
  <course>187.45</course>
  <speed>0.03605551275463989</speed>
  <fix>3d</fix>
</trkpt>
<trkpt lat="33.810313" lon="-118.393867">
  <ele>-0.12</ele>
  <time>2026-09-02T22:06:29Z</time>
  <course>0.0</course>
  <speed>0.0</speed>
  <fix>3d</fix>
</trkpt>
<trkpt lat="33.810313" lon="-118.393867">
  <ele>-0.132</ele>
  <time>2026-09-02T22:06:29Z</time>
  <course>187.44</course>
  <speed>0.03605551275463989</speed>
  <fix>3d</fix>
</trkpt>
<trkpt lat="33.810313" lon="-118.393867">
  <ele>-0.12</ele>
  <time>2026-09-02T22:06:29Z</time>
  <course>0.0</course>
  <speed>0.0</speed>
  <fix>3d</fix>
</trkpt>
<trkpt lat="33.810313" lon="-118.393867">
  <ele>-0.132</ele>
  <time>2026-09-02T22:06:29Z</time>
  <course>187.44</course>
  <speed>0.03605551275463989</speed>
  <fix>3d</fix>
</trkpt>
<trkpt lat="33.810313" lon="-118.393867">
  <ele>-0.12</ele>
  <time>2026-09-02T22:06:29Z</time>
  <course>0.0</course>
  <speed>0.0</speed>
  <fix>3d</fix>
</trkpt>
<trkpt lat="33.810313" lon="-118.393867">
  <ele>-0.132</ele>
  <time>2026-09-02T22:06:29Z</time>
  <course>187.43</course>
  <speed>0.03605551275463989</speed>
  <fix>3d</fix>
</trkpt>
<trkpt lat="33.810313" lon="-118.393867">
  <ele>-0.12</ele>
  <time>2026-09-02T22:06:29Z</time>
  <course>0.0</course>
  <speed>0.0</speed>
  <fix>3d</fix>
</trkpt>
<trkpt lat="33.810313" lon="-118.393867">
  <ele>-0.132</ele>
  <time>2026-09-02T22:06:29Z</time>
  <course>187.42</course>
  <speed>0.03605551275463989</speed>
  <fix>3d</fix>
</trkpt>
<trkpt lat="33.810313" lon="-118.393867">
  <ele>-0.12</ele>
  <time>2026-09-02T22:06:29Z</time>
  <course>0.0</course>
  <speed>0.0</speed>
  <fix>3d</fix>
</trkpt>
<trkpt lat="33.810313" lon="-118.393867">
  <ele>-0.131</ele>
  <time>2026-09-02T22:06:29Z</time>
  <course>187.42</course>
  <speed>0.03605551275463989</speed>
  <fix>3d</fix>
</trkpt>
<trkpt lat="33.810313" lon="-118.393867">
  <ele>-0.12</ele>
  <time>2026-09-02T22:06:29Z</time>
  <course>0.0</course>
  <speed>0.0</speed>
  <fix>3d</fix>
</trkpt>
<trkpt lat="33.810313" lon="-118.393867">
  <ele>-0.131</ele>
  <time>2026-09-02T22:06:29Z</time>
  <course>187.41</course>
  <speed>0.03605551275463989</speed>
  <fix>3d</fix>
</trkpt>
<trkpt lat="33.810313" lon="-118.393867">
  <ele>-0.12</ele>
  <time>2026-09-02T22:06:29Z</time>
  <course>0.0</course>
  <speed>0.0</speed>
  <fix>3d</fix>
</trkpt>
<trkpt lat="33.810313" lon="-118.393867">
  <ele>-0.132</ele>
  <time>2026-09-02T22:06:29Z</time>
  <course>187.41</course>
  <speed>0.03605551275463989</speed>
  <fix>3d</fix>
</trkpt>
<trkpt lat="33.810313" lon="-118.393867">
  <ele>-0.12</ele>
  <time>2026-09-02T22:06:29Z</time>
  <course>0.0</course>
  <speed>0.0</speed>
  <fix>3d</fix>
</trkpt>
<trkpt lat="33.810313" lon="-118.393867">
  <ele>-0.134</ele>
  <time>2026-09-02T22:06:29Z</time>
  <course>187.4</course>
  <speed>0.03605551275463989</speed>
  <fix>3d</fix>
</trkpt>
<trkpt lat="33.810313" lon="-118.393867">
  <ele>-0.12</ele>
  <time>2026-09-02T22:06:29Z</time>
  <course>0.0</course>
  <speed>0.0</speed>
  <fix>3d</fix>
</trkpt>
<trkpt lat="33.810313" lon="-118.393867">
  <ele>-0.137</ele>
  <time>2026-09-02T22:06:29Z</time>
  <course>187.39</course>
  <speed>0.03605551275463989</speed>
  <fix>3d</fix>
</trkpt>
<trkpt lat="33.810313" lon="-118.393867">
  <ele>-0.12</ele>
  <time>2026-09-02T22:06:29Z</time>
  <course>0.0</course>
  <speed>0.0</speed>
  <fix>3d</fix>
</trkpt>
<trkpt lat="33.810313" lon="-118.393867">
  <ele>-0.139</ele>
  <time>2026-09-02T22:06:29Z</time>
  <course>187.39</course>
  <speed>0.03605551275463989</speed>
  <fix>3d</fix>
</trkpt>
<trkpt lat="33.810313" lon="-118.393867">
  <ele>-0.12</ele>
  <time>2026-09-02T22:06:29Z</time>
  <course>0.0</course>
  <speed>0.0</speed>
  <fix>3d</fix>
</trkpt>
<trkpt lat="33.810313" lon="-118.393867">
  <ele>-0.141</ele>
  <time>2026-09-02T22:06:29Z</time>
  <course>187.38</course>
  <speed>0.03605551275463989</speed>
  <fix>3d</fix>
</trkpt>
<trkpt lat="33.810313" lon="-118.393867">
  <ele>-0.12</ele>
  <time>2026-09-02T22:06:29Z</time>
  <course>0.0</course>
  <speed>0.0</speed>
  <fix>3d</fix>
</trkpt>
<trkpt lat="33.810313" lon="-118.393867">
  <ele>-0.141</ele>
  <time>2026-09-02T22:06:29Z</time>
  <course>187.38</course>
  <speed>0.03605551275463989</speed>
  <fix>3d</fix>
</trkpt>
<trkpt lat="33.810313" lon="-118.393867">
  <ele>-0.12</ele>
  <time>2026-09-02T22:06:29Z</time>
  <course>0.0</course>
  <speed>0.0</speed>
  <fix>3d</fix>
</trkpt>
<trkpt lat="33.810313" lon="-118.393867">
  <ele>-0.139</ele>
  <time>2026-09-02T22:06:29Z</time>
  <course>187.37</course>
  <speed>0.03605551275463989</speed>
  <fix>3d</fix>
</trkpt>
<trkpt lat="33.810313" lon="-118.393867">
  <ele>-0.12</ele>
  <time>2026-09-02T22:06:29Z</time>
  <course>0.0</course>
  <speed>0.0</speed>
  <fix>3d</fix>
</trkpt>
<trkpt lat="33.810313" lon="-118.393867">
  <ele>-0.136</ele>
  <time>2026-09-02T22:06:29Z</time>
  <course>187.36</course>
  <speed>0.03605551275463989</speed>
  <fix>3d</fix>
</trkpt>
<trkpt lat="33.810313" lon="-118.393867">
  <ele>-0.12</ele>
  <time>2026-09-02T22:06:29Z</time>
  <course>0.0</course>
  <speed>0.0</speed>
  <fix>3d</fix>
</trkpt>
<trkpt lat="33.810313" lon="-118.393867">
  <ele>-0.132</ele>
  <time>2026-09-02T22:06:29Z</time>
  <course>187.36</course>
  <speed>0.03605551275463989</speed>
  <fix>3d</fix>
</trkpt>
<trkpt lat="33.810313" lon="-118.393867">
  <ele>-0.12</ele>
  <time>2026-09-02T22:06:29Z</time>
  <course>0.0</course>
  <speed>0.0</speed>
  <fix>3d</fix>
</trkpt>
<trkpt lat="33.810313" lon="-118.393867">
  <ele>-0.129</ele>
  <time>2026-09-02T22:06:29Z</time>
  <course>187.35</course>
  <speed>0.03605551275463989</speed>
  <fix>3d</fix>
</trkpt>
<trkpt lat="33.810313" lon="-118.393867">
  <ele>-0.12</ele>
  <time>2026-09-02T22:06:29Z</time>
  <course>0.0</course>
  <speed>0.0</speed>
  <fix>3d</fix>
</trkpt>
<trkpt lat="33.810313" lon="-118.393867">
  <ele>-0.127</ele>
  <time>2026-09-02T22:06:29Z</time>
  <course>187.35</course>
  <speed>0.03605551275463989</speed>
  <fix>3d</fix>
</trkpt>
<trkpt lat="33.810313" lon="-118.393867">
  <ele>-0.12</ele>
  <time>2026-09-02T22:06:29Z</time>
  <course>0.0</course>
  <speed>0.0</speed>
  <fix>3d</fix>
</trkpt>
<trkpt lat="33.810313" lon="-118.393867">
  <ele>-0.126</ele>
  <time>2026-09-02T22:06:29Z</time>
  <course>187.34</course>
  <speed>0.03605551275463989</speed>
  <fix>3d</fix>
</trkpt>
<trkpt lat="33.810313" lon="-118.393867">
  <ele>-0.12</ele>
  <time>2026-09-02T22:06:29Z</time>
  <course>0.0</course>
  <speed>0.0</speed>
  <fix>3d</fix>
</trkpt>
<trkpt lat="33.810313" lon="-118.393867">
  <ele>-0.126</ele>
  <time>2026-09-02T22:06:29Z</time>
  <course>187.33</course>
  <speed>0.03605551275463989</speed>
  <fix>3d</fix>
</trkpt>
<trkpt lat="33.810313" lon="-118.393867">
  <ele>-0.12</ele>
  <time>2026-09-02T22:06:29Z</time>
  <course>0.0</course>
  <speed>0.0</speed>
  <fix>3d</fix>
</trkpt>
<trkpt lat="33.810313" lon="-118.393867">
  <ele>-0.127</ele>
  <time>2026-09-02T22:06:29Z</time>
  <course>187.33</course>
  <speed>0.03605551275463989</speed>
  <fix>3d</fix>
</trkpt>
<trkpt lat="33.810313" lon="-118.393867">
  <ele>-0.12</ele>
  <time>2026-09-02T22:06:29Z</time>
  <course>0.0</course>
  <speed>0.0</speed>
  <fix>3d</fix>
</trkpt>
<trkpt lat="33.810313" lon="-118.393867">
  <ele>-0.126</ele>
  <time>2026-09-02T22:06:29Z</time>
  <course>187.32</course>
  <speed>0.03605551275463989</speed>
  <fix>3d</fix>
</trkpt>
<trkpt lat="33.810313" lon="-118.393867">
  <ele>-0.12</ele>
  <time>2026-09-02T22:06:29Z</time>
  <course>0.0</course>
  <speed>0.0</speed>
  <fix>3d</fix>
</trkpt>
<trkpt lat="33.810313" lon="-118.393867">
  <ele>-0.126</ele>
  <time>2026-09-02T22:06:29Z</time>
  <course>187.32</course>
  <speed>0.03605551275463989</speed>
  <fix>3d</fix>
</trkpt>
<trkpt lat="33.810313" lon="-118.393867">
  <ele>-0.12</ele>
  <time>2026-09-02T22:06:29Z</time>
  <course>0.0</course>
  <speed>0.0</speed>
  <fix>3d</fix>
</trkpt>
<trkpt lat="33.810313" lon="-118.393867">
  <ele>-0.125</ele>
  <time>2026-09-02T22:06:29Z</time>
  <course>187.31</course>
  <speed>0.03605551275463989</speed>
  <fix>3d</fix>
</trkpt>
<trkpt lat="33.810313" lon="-118.393867">
  <ele>-0.12</ele>
  <time>2026-09-02T22:06:29Z</time>
  <course>0.0</course>
  <speed>0.0</speed>
  <fix>3d</fix>
</trkpt>
<trkpt lat="33.810313" lon="-118.393867">
  <ele>-0.124</ele>
  <time>2026-09-02T22:06:29Z</time>
  <course>187.31</course>
  <speed>0.03605551275463989</speed>
  <fix>3d</fix>
</trkpt>
<trkpt lat="33.810313" lon="-118.393867">
  <ele>-0.12</ele>
  <time>2026-09-02T22:06:29Z</time>
  <course>0.0</course>
  <speed>0.0</speed>
  <fix>3d</fix>
</trkpt>
<trkpt lat="33.810313" lon="-118.393867">
  <ele>-0.122</ele>
  <time>2026-09-02T22:06:29Z</time>
  <course>187.3</course>
  <speed>0.03605551275463989</speed>
  <fix>3d</fix>
</trkpt>
<trkpt lat="33.810313" lon="-118.393867">
  <ele>-0.12</ele>
  <time>2026-09-02T22:06:29Z</time>
  <course>0.0</course>
  <speed>0.0</speed>
  <fix>3d</fix>
</trkpt>
<trkpt lat="33.810313" lon="-118.393867">
  <ele>-0.121</ele>
  <time>2026-09-02T22:06:29Z</time>
  <course>187.29</course>
  <speed>0.03605551275463989</speed>
  <fix>3d</fix>
</trkpt>
<trkpt lat="33.810313" lon="-118.393867">
  <ele>-0.12</ele>
  <time>2026-09-02T22:06:29Z</time>
  <course>0.0</course>
  <speed>0.0</speed>
  <fix>3d</fix>
</trkpt>
<trkpt lat="33.810313" lon="-118.393867">
  <ele>-0.122</ele>
  <time>2026-09-02T22:06:29Z</time>
  <course>187.29</course>
  <speed>0.03605551275463989</speed>
  <fix>3d</fix>
</trkpt>
<trkpt lat="33.810313" lon="-118.393867">
  <ele>-0.12</ele>
  <time>2026-09-02T22:06:29Z</time>
  <course>0.0</course>
  <speed>0.0</speed>
  <fix>3d</fix>
</trkpt>
<trkpt lat="33.810313" lon="-118.393867">
  <ele>-0.124</ele>
  <time>2026-09-02T22:06:29Z</time>
  <course>187.28</course>
  <speed>0.03605551275463989</speed>
  <fix>3d</fix>
</trkpt>
<trkpt lat="33.810313" lon="-118.393867">
  <ele>-0.12</ele>
  <time>2026-09-02T22:06:29Z</time>
  <course>0.0</course>
  <speed>0.0</speed>
  <fix>3d</fix>
</trkpt>
<trkpt lat="33.810313" lon="-118.393867">
  <ele>-0.128</ele>
  <time>2026-09-02T22:06:29Z</time>
  <course>187.28</course>
  <speed>0.03605551275463989</speed>
  <fix>3d</fix>
</trkpt>
<trkpt lat="33.810313" lon="-118.393867">
  <ele>-0.12</ele>
  <time>2026-09-02T22:06:29Z</time>
  <course>0.0</course>
  <speed>0.0</speed>
  <fix>3d</fix>
</trkpt>
<trkpt lat="33.810313" lon="-118.393867">
  <ele>-0.13</ele>
  <time>2026-09-02T22:06:29Z</time>
  <course>187.27</course>
  <speed>0.03605551275463989</speed>
  <fix>3d</fix>
</trkpt>
<trkpt lat="33.810313" lon="-118.393867">
  <ele>-0.12</ele>
  <time>2026-09-02T22:06:29Z</time>
  <course>0.0</course>
  <speed>0.0</speed>
  <fix>3d</fix>
</trkpt>
<trkpt lat="33.810313" lon="-118.393867">
  <ele>-0.133</ele>
  <time>2026-09-02T22:06:29Z</time>
  <course>187.27</course>
  <speed>0.03605551275463989</speed>
  <fix>3d</fix>
</trkpt>
<trkpt lat="33.810313" lon="-118.393867">
  <ele>-0.12</ele>
  <time>2026-09-02T22:06:29Z</time>
  <course>0.0</course>
  <speed>0.0</speed>
  <fix>3d</fix>
</trkpt>
<trkpt lat="33.810313" lon="-118.393867">
  <ele>-0.135</ele>
  <time>2026-09-02T22:06:29Z</time>
  <course>187.26</course>
  <speed>0.03605551275463989</speed>
  <fix>3d</fix>
</trkpt>
<trkpt lat="33.810313" lon="-118.393867">
  <ele>-0.12</ele>
  <time>2026-09-02T22:06:29Z</time>
  <course>0.0</course>
  <speed>0.0</speed>
  <fix>3d</fix>
</trkpt>
<trkpt lat="33.810313" lon="-118.393867">
  <ele>-0.136</ele>
  <time>2026-09-02T22:06:29Z</time>
  <course>187.26</course>
  <speed>0.03605551275463989</speed>
  <fix>3d</fix>
</trkpt>
<trkpt lat="33.810313" lon="-118.393867">
  <ele>-0.12</ele>
  <time>2026-09-02T22:06:29Z</time>
  <course>0.0</course>
  <speed>0.0</speed>
  <fix>3d</fix>
</trkpt>
<trkpt lat="33.810313" lon="-118.393867">
  <ele>-0.136</ele>
  <time>2026-09-02T22:06:29Z</time>
  <course>187.25</course>
  <speed>0.03605551275463989</speed>
  <fix>3d</fix>
</trkpt>
<trkpt lat="33.810313" lon="-118.393867">
  <ele>-0.12</ele>
  <time>2026-09-02T22:06:29Z</time>
  <course>0.0</course>
  <speed>0.0</speed>
  <fix>3d</fix>
</trkpt>
<trkpt lat="33.810313" lon="-118.393867">
  <ele>-0.135</ele>
  <time>2026-09-02T22:06:29Z</time>
  <course>187.25</course>
  <speed>0.03605551275463989</speed>
  <fix>3d</fix>
</trkpt>
<trkpt lat="33.810313" lon="-118.393867">
  <ele>-0.12</ele>
  <time>2026-09-02T22:06:29Z</time>
  <course>0.0</course>
  <speed>0.0</speed>
  <fix>3d</fix>
</trkpt>
<trkpt lat="33.810313" lon="-118.393867">
  <ele>-0.134</ele>
  <time>2026-09-02T22:06:29Z</time>
  <course>187.24</course>
  <speed>0.03605551275463989</speed>
  <fix>3d</fix>
</trkpt>
<trkpt lat="33.810313" lon="-118.393867">
  <ele>-0.12</ele>
  <time>2026-09-02T22:06:29Z</time>
  <course>0.0</course>
  <speed>0.0</speed>
  <fix>3d</fix>
</trkpt>
<trkpt lat="33.810313" lon="-118.393867">
  <ele>-0.132</ele>
  <time>2026-09-02T22:06:29Z</time>
  <course>187.24</course>
  <speed>0.03605551275463989</speed>
  <fix>3d</fix>
</trkpt>
<trkpt lat="33.810313" lon="-118.393867">
  <ele>-0.12</ele>
  <time>2026-09-02T22:06:29Z</time>
  <course>0.0</course>
  <speed>0.0</speed>
  <fix>3d</fix>
</trkpt>
<trkpt lat="33.810313" lon="-118.393867">
  <ele>-0.131</ele>
  <time>2026-09-02T22:06:29Z</time>
  <course>187.23</course>
  <speed>0.03605551275463989</speed>
  <fix>3d</fix>
</trkpt>
<trkpt lat="33.810313" lon="-118.393867">
  <ele>-0.12</ele>
  <time>2026-09-02T22:06:29Z</time>
  <course>0.0</course>
  <speed>0.0</speed>
  <fix>3d</fix>
</trkpt>
<trkpt lat="33.810313" lon="-118.393867">
  <ele>-0.131</ele>
  <time>2026-09-02T22:06:29Z</time>
  <course>187.22</course>
  <speed>0.03605551275463989</speed>
  <fix>3d</fix>
</trkpt>
<trkpt lat="33.810313" lon="-118.393867">
  <ele>-0.12</ele>
  <time>2026-09-02T22:06:29Z</time>
  <course>0.0</course>
  <speed>0.0</speed>
  <fix>3d</fix>
</trkpt>
<trkpt lat="33.810313" lon="-118.393867">
  <ele>-0.132</ele>
  <time>2026-09-02T22:06:29Z</time>
  <course>187.22</course>
  <speed>0.03605551275463989</speed>
  <fix>3d</fix>
</trkpt>
<trkpt lat="33.810313" lon="-118.393867">
  <ele>-0.12</ele>
  <time>2026-09-02T22:06:29Z</time>
  <course>0.0</course>
  <speed>0.0</speed>
  <fix>3d</fix>
</trkpt>
<trkpt lat="33.810313" lon="-118.393867">
  <ele>-0.132</ele>
  <time>2026-09-02T22:06:29Z</time>
  <course>187.21</course>
  <speed>0.03605551275463989</speed>
  <fix>3d</fix>
</trkpt>
<trkpt lat="33.810313" lon="-118.393867">
  <ele>-0.12</ele>
  <time>2026-09-02T22:06:29Z</time>
  <course>0.0</course>
  <speed>0.0</speed>
  <fix>3d</fix>
</trkpt>
<trkpt lat="33.810313" lon="-118.393867">
  <ele>-0.133</ele>
  <time>2026-09-02T22:06:29Z</time>
  <course>187.21</course>
  <speed>0.03605551275463989</speed>
  <fix>3d</fix>
</trkpt>
<trkpt lat="33.810313" lon="-118.393867">
  <ele>-0.12</ele>
  <time>2026-09-02T22:06:29Z</time>
  <course>0.0</course>
  <speed>0.0</speed>
  <fix>3d</fix>
</trkpt>
<trkpt lat="33.810313" lon="-118.393867">
  <ele>-0.132</ele>
  <time>2026-09-02T22:06:29Z</time>
  <course>187.2</course>
  <speed>0.03605551275463989</speed>
  <fix>3d</fix>
</trkpt>
<trkpt lat="33.810313" lon="-118.393867">
  <ele>-0.12</ele>
  <time>2026-09-02T22:06:29Z</time>
  <course>0.0</course>
  <speed>0.0</speed>
  <fix>3d</fix>
</trkpt>
<trkpt lat="33.810313" lon="-118.393867">
  <ele>-0.131</ele>
  <time>2026-09-02T22:06:29Z</time>
  <course>187.2</course>
  <speed>0.03605551275463989</speed>
  <fix>3d</fix>
</trkpt>
<trkpt lat="33.810313" lon="-118.393867">
  <ele>-0.12</ele>
  <time>2026-09-02T22:06:29Z</time>
  <course>0.0</course>
  <speed>0.0</speed>
  <fix>3d</fix>
</trkpt>
<trkpt lat="33.810313" lon="-118.393867">
  <ele>-0.129</ele>
  <time>2026-09-02T22:06:29Z</time>
  <course>187.19</course>
  <speed>0.03605551275463989</speed>
  <fix>3d</fix>
</trkpt>
<trkpt lat="33.810313" lon="-118.393867">
  <ele>-0.12</ele>
  <time>2026-09-02T22:06:29Z</time>
  <course>0.0</course>
  <speed>0.0</speed>
  <fix>3d</fix>
</trkpt>
<trkpt lat="33.810313" lon="-118.393867">
  <ele>-0.126</ele>
  <time>2026-09-02T22:06:29Z</time>
  <course>187.19</course>
  <speed>0.03605551275463989</speed>
  <fix>3d</fix>
</trkpt>
<trkpt lat="33.810313" lon="-118.393867">
  <ele>-0.12</ele>
  <time>2026-09-02T22:06:29Z</time>
  <course>0.0</course>
  <speed>0.0</speed>
  <fix>3d</fix>
</trkpt>
<trkpt lat="33.810313" lon="-118.393867">
  <ele>-0.124</ele>
  <time>2026-09-02T22:06:29Z</time>
  <course>187.18</course>
  <speed>0.03605551275463989</speed>
  <fix>3d</fix>
</trkpt>
<trkpt lat="33.810313" lon="-118.393867">
  <ele>-0.12</ele>
  <time>2026-09-02T22:06:29Z</time>
  <course>0.0</course>
  <speed>0.0</speed>
  <fix>3d</fix>
</trkpt>
<trkpt lat="33.810313" lon="-118.393867">
  <ele>-0.123</ele>
  <time>2026-09-02T22:06:29Z</time>
  <course>187.18</course>
  <speed>0.03605551275463989</speed>
  <fix>3d</fix>
</trkpt>
<trkpt lat="33.810313" lon="-118.393867">
  <ele>-0.12</ele>
  <time>2026-09-02T22:06:29Z</time>
  <course>0.0</course>
  <speed>0.0</speed>
  <fix>3d</fix>
</trkpt>
<trkpt lat="33.810313" lon="-118.393867">
  <ele>-0.123</ele>
  <time>2026-09-02T22:06:29Z</time>
  <course>187.17</course>
  <speed>0.03605551275463989</speed>
  <fix>3d</fix>
</trkpt>
<trkpt lat="33.810313" lon="-118.393867">
  <ele>-0.12</ele>
  <time>2026-09-02T22:06:29Z</time>
  <course>0.0</course>
  <speed>0.0</speed>
  <fix>3d</fix>
</trkpt>
<trkpt lat="33.810313" lon="-118.393867">
  <ele>-0.122</ele>
  <time>2026-09-02T22:06:29Z</time>
  <course>187.17</course>
  <speed>0.0</speed>
  <fix>3d</fix>
</trkpt>
<trkpt lat="33.810313" lon="-118.393867">
  <ele>-0.12</ele>
  <time>2026-09-02T22:06:29Z</time>
  <course>0.0</course>
  <speed>0.0</speed>
  <fix>3d</fix>
</trkpt>
<trkpt lat="33.810313" lon="-118.393867">
  <ele>-0.121</ele>
  <time>2026-09-02T22:06:29Z</time>
  <course>187.16</course>
  <speed>0.0</speed>
  <fix>3d</fix>
</trkpt>
<trkpt lat="33.810313" lon="-118.393867">
  <ele>-0.12</ele>
  <time>2026-09-02T22:06:29Z</time>
  <course>0.0</course>
  <speed>0.0</speed>
  <fix>3d</fix>
</trkpt>
<trkpt lat="33.810313" lon="-118.393867">
  <ele>-0.12</ele>
  <time>2026-09-02T22:06:29Z</time>
  <course>187.16</course>
  <speed>0.0</speed>
  <fix>3d</fix>
</trkpt>
<trkpt lat="33.810313" lon="-118.393867">
  <ele>-0.12</ele>
  <time>2026-09-02T22:06:29Z</time>
  <course>0.0</course>
  <speed>0.0</speed>
  <fix>3d</fix>
</trkpt>
<trkpt lat="33.810313" lon="-118.393867">
  <ele>-0.119</ele>
  <time>2026-09-02T22:06:29Z</time>
  <course>187.15</course>
  <speed>0.0</speed>
  <fix>3d</fix>
</trkpt>
<trkpt lat="33.810313" lon="-118.393867">
  <ele>-0.12</ele>
  <time>2026-09-02T22:06:29Z</time>
  <course>0.0</course>
  <speed>0.0</speed>
  <fix>3d</fix>
</trkpt>
<trkpt lat="33.810313" lon="-118.393867">
  <ele>-0.116</ele>
  <time>2026-09-02T22:06:29Z</time>
  <course>187.15</course>
  <speed>0.0</speed>
  <fix>3d</fix>
</trkpt>
<trkpt lat="33.810313" lon="-118.393867">
  <ele>-0.12</ele>
  <time>2026-09-02T22:06:29Z</time>
  <course>0.0</course>
  <speed>0.0</speed>
  <fix>3d</fix>
</trkpt>
<trkpt lat="33.810313" lon="-118.393867">
  <ele>-0.114</ele>
  <time>2026-09-02T22:06:29Z</time>
  <course>187.14</course>
  <speed>0.0</speed>
  <fix>3d</fix>
</trkpt>
<trkpt lat="33.810313" lon="-118.393867">
  <ele>-0.12</ele>
  <time>2026-09-02T22:06:29Z</time>
  <course>0.0</course>
  <speed>0.0</speed>
  <fix>3d</fix>
</trkpt>
<trkpt lat="33.810313" lon="-118.393867">
  <ele>-0.113</ele>
  <time>2026-09-02T22:06:29Z</time>
  <course>187.14</course>
  <speed>0.0</speed>
  <fix>3d</fix>
</trkpt>
<trkpt lat="33.810313" lon="-118.393867">
  <ele>-0.12</ele>
  <time>2026-09-02T22:06:29Z</time>
  <course>0.0</course>
  <speed>0.0</speed>
  <fix>3d</fix>
</trkpt>
<trkpt lat="33.810313" lon="-118.393867">
  <ele>-0.112</ele>
  <time>2026-09-02T22:06:29Z</time>
  <course>187.13</course>
  <speed>0.0</speed>
  <fix>3d</fix>
</trkpt>
<trkpt lat="33.810313" lon="-118.393867">
  <ele>-0.12</ele>
  <time>2026-09-02T22:06:29Z</time>
  <course>0.0</course>
  <speed>0.0</speed>
  <fix>3d</fix>
</trkpt>
<trkpt lat="33.810313" lon="-118.393867">
  <ele>-0.113</ele>
  <time>2026-09-02T22:06:29Z</time>
  <course>187.13</course>
  <speed>0.0</speed>
  <fix>3d</fix>
</trkpt>
<trkpt lat="33.810313" lon="-118.393867">
  <ele>-0.12</ele>
  <time>2026-09-02T22:06:29Z</time>
  <course>0.0</course>
  <speed>0.0</speed>
  <fix>3d</fix>
</trkpt>
<trkpt lat="33.810313" lon="-118.393867">
  <ele>-0.114</ele>
  <time>2026-09-02T22:06:29Z</time>
  <course>187.12</course>
  <speed>0.0</speed>
  <fix>3d</fix>
</trkpt>
<trkpt lat="33.810313" lon="-118.393867">
  <ele>-0.12</ele>
  <time>2026-09-02T22:06:29Z</time>
  <course>0.0</course>
  <speed>0.0</speed>
  <fix>3d</fix>
</trkpt>
<trkpt lat="33.810313" lon="-118.393867">
  <ele>-0.117</ele>
  <time>2026-09-02T22:06:29Z</time>
  <course>187.12</course>
  <speed>0.0</speed>
  <fix>3d</fix>
</trkpt>
<trkpt lat="33.810313" lon="-118.393867">
  <ele>-0.12</ele>
  <time>2026-09-02T22:06:29Z</time>
  <course>0.0</course>
  <speed>0.0</speed>
  <fix>3d</fix>
</trkpt>
<trkpt lat="33.810313" lon="-118.393867">
  <ele>-0.119</ele>
  <time>2026-09-02T22:06:29Z</time>
  <course>187.11</course>
  <speed>0.01</speed>
  <fix>3d</fix>
</trkpt>
<trkpt lat="33.810313" lon="-118.393867">
  <ele>-0.12</ele>
  <time>2026-09-02T22:06:29Z</time>
  <course>0.0</course>
  <speed>0.0</speed>
  <fix>3d</fix>
</trkpt>
<trkpt lat="33.810313" lon="-118.393867">
  <ele>-0.12</ele>
  <time>2026-09-02T22:06:29Z</time>
  <course>187.11</course>
  <speed>0.01</speed>
  <fix>3d</fix>
</trkpt>
<trkpt lat="33.810313" lon="-118.393867">
  <ele>-0.12</ele>
  <time>2026-09-02T22:06:29Z</time>
  <course>0.0</course>
  <speed>0.0</speed>
  <fix>3d</fix>
</trkpt>
<trkpt lat="33.810313" lon="-118.393867">
  <ele>-0.121</ele>
  <time>2026-09-02T22:06:29Z</time>
  <course>187.1</course>
  <speed>0.01</speed>
  <fix>3d</fix>
</trkpt>
<trkpt lat="33.810313" lon="-118.393867">
  <ele>-0.12</ele>
  <time>2026-09-02T22:06:29Z</time>
  <course>0.0</course>
  <speed>0.0</speed>
  <fix>3d</fix>
</trkpt>
<trkpt lat="33.810313" lon="-118.393867">
  <ele>-0.122</ele>
  <time>2026-09-02T22:06:29Z</time>
  <course>187.1</course>
  <speed>0.01414213562373095</speed>
  <fix>3d</fix>
</trkpt>
<trkpt lat="33.810313" lon="-118.393867">
  <ele>-0.12</ele>
  <time>2026-09-02T22:06:29Z</time>
  <course>0.0</course>
  <speed>0.0</speed>
  <fix>3d</fix>
</trkpt>
<trkpt lat="33.810313" lon="-118.393867">
  <ele>-0.122</ele>
  <time>2026-09-02T22:06:29Z</time>
  <course>187.09</course>
  <speed>0.01414213562373095</speed>
  <fix>3d</fix>
</trkpt>
<trkpt lat="33.810313" lon="-118.393867">
  <ele>-0.12</ele>
  <time>2026-09-02T22:06:29Z</time>
  <course>0.0</course>
  <speed>0.0</speed>
  <fix>3d</fix>
</trkpt>
<trkpt lat="33.810313" lon="-118.393867">
  <ele>-0.123</ele>
  <time>2026-09-02T22:06:29Z</time>
  <course>187.09</course>
  <speed>0.01414213562373095</speed>
  <fix>3d</fix>
</trkpt>
<trkpt lat="33.810313" lon="-118.393867">
  <ele>-0.12</ele>
  <time>2026-09-02T22:06:29Z</time>
  <course>0.0</course>
  <speed>0.0</speed>
  <fix>3d</fix>
</trkpt>
<trkpt lat="33.810313" lon="-118.393867">
  <ele>-0.124</ele>
  <time>2026-09-02T22:06:29Z</time>
  <course>187.08</course>
  <speed>0.01414213562373095</speed>
  <fix>3d</fix>
</trkpt>
<trkpt lat="33.810313" lon="-118.393867">
  <ele>-0.12</ele>
  <time>2026-09-02T22:06:29Z</time>
  <course>0.0</course>
  <speed>0.0</speed>
  <fix>3d</fix>
</trkpt>
<trkpt lat="33.810313" lon="-118.393867">
  <ele>-0.126</ele>
  <time>2026-09-02T22:06:29Z</time>
  <course>187.08</course>
  <speed>0.01414213562373095</speed>
  <fix>3d</fix>
</trkpt>
<trkpt lat="33.810313" lon="-118.393867">
  <ele>-0.12</ele>
  <time>2026-09-02T22:06:29Z</time>
  <course>0.0</course>
  <speed>0.0</speed>
  <fix>3d</fix>
</trkpt>
<trkpt lat="33.810313" lon="-118.393867">
  <ele>-0.128</ele>
  <time>2026-09-02T22:06:29Z</time>
  <course>187.07</course>
  <speed>0.01414213562373095</speed>
  <fix>3d</fix>
</trkpt>
<trkpt lat="33.810313" lon="-118.393867">
  <ele>-0.12</ele>
  <time>2026-09-02T22:06:29Z</time>
  <course>0.0</course>
  <speed>0.0</speed>
  <fix>3d</fix>
</trkpt>
<trkpt lat="33.810313" lon="-118.393867">
  <ele>-0.131</ele>
  <time>2026-09-02T22:06:29Z</time>
  <course>187.07</course>
  <speed>0.01414213562373095</speed>
  <fix>3d</fix>
</trkpt>
<trkpt lat="33.810313" lon="-118.393867">
  <ele>-0.12</ele>
  <time>2026-09-02T22:06:29Z</time>
  <course>0.0</course>
  <speed>0.0</speed>
  <fix>3d</fix>
</trkpt>
<trkpt lat="33.810313" lon="-118.393867">
  <ele>-0.134</ele>
  <time>2026-09-02T22:06:29Z</time>
  <course>187.06</course>
  <speed>0.022360679774997897</speed>
  <fix>3d</fix>
</trkpt>
<trkpt lat="33.810313" lon="-118.393867">
  <ele>-0.12</ele>
  <time>2026-09-02T22:06:29Z</time>
  <course>0.0</course>
  <speed>0.0</speed>
  <fix>3d</fix>
</trkpt>
<trkpt lat="33.810313" lon="-118.393867">
  <ele>-0.136</ele>
  <time>2026-09-02T22:06:29Z</time>
  <course>187.06</course>
  <speed>0.022360679774997897</speed>
  <fix>3d</fix>
</trkpt>
<trkpt lat="33.810313" lon="-118.393867">
  <ele>-0.12</ele>
  <time>2026-09-02T22:06:29Z</time>
  <course>0.0</course>
  <speed>0.0</speed>
  <fix>3d</fix>
</trkpt>
<trkpt lat="33.810313" lon="-118.393867">
  <ele>-0.137</ele>
  <time>2026-09-02T22:06:29Z</time>
  <course>187.06</course>
  <speed>0.022360679774997897</speed>
  <fix>3d</fix>
</trkpt>
<trkpt lat="33.810313" lon="-118.393867">
  <ele>-0.12</ele>
  <time>2026-09-02T22:06:29Z</time>
  <course>0.0</course>
  <speed>0.0</speed>
  <fix>3d</fix>
</trkpt>
<trkpt lat="33.810313" lon="-118.393867">
  <ele>-0.137</ele>
  <time>2026-09-02T22:06:29Z</time>
  <course>187.05</course>
  <speed>0.022360679774997897</speed>
  <fix>3d</fix>
</trkpt>
<trkpt lat="33.810313" lon="-118.393867">
  <ele>-0.12</ele>
  <time>2026-09-02T22:06:29Z</time>
  <course>0.0</course>
  <speed>0.0</speed>
  <fix>3d</fix>
</trkpt>
<trkpt lat="33.810313" lon="-118.393867">
  <ele>-0.135</ele>
  <time>2026-09-02T22:06:29Z</time>
  <course>187.05</course>
  <speed>0.022360679774997897</speed>
  <fix>3d</fix>
</trkpt>
<trkpt lat="33.810313" lon="-118.393867">
  <ele>-0.12</ele>
  <time>2026-09-02T22:06:29Z</time>
  <course>0.0</course>
  <speed>0.0</speed>
  <fix>3d</fix>
</trkpt>
<trkpt lat="33.810313" lon="-118.393867">
  <ele>-0.133</ele>
  <time>2026-09-02T22:06:29Z</time>
  <course>187.04</course>
  <speed>0.022360679774997897</speed>
  <fix>3d</fix>
</trkpt>
<trkpt lat="33.810313" lon="-118.393867">
  <ele>-0.12</ele>
  <time>2026-09-02T22:06:29Z</time>
  <course>0.0</course>
  <speed>0.0</speed>
  <fix>3d</fix>
</trkpt>
<trkpt lat="33.8103131" lon="-118.3938671">
  <ele>-0.131</ele>
  <time>2026-09-02T22:06:29Z</time>
  <course>187.04</course>
  <speed>0.022360679774997897</speed>
  <fix>3d</fix>
</trkpt>
<trkpt lat="33.810313" lon="-118.393867">
  <ele>-0.12</ele>
  <time>2026-09-02T22:06:29Z</time>
  <course>0.0</course>
  <speed>0.0</speed>
  <fix>3d</fix>
</trkpt>
<trkpt lat="33.8103131" lon="-118.3938671">
  <ele>-0.129</ele>
  <time>2026-09-02T22:06:29Z</time>
  <course>187.03</course>
  <speed>0.0282842712474619</speed>
  <fix>3d</fix>
</trkpt>
<trkpt lat="33.810313" lon="-118.393867">
  <ele>-0.12</ele>
  <time>2026-09-02T22:06:29Z</time>
  <course>0.0</course>
  <speed>0.0</speed>
  <fix>3d</fix>
</trkpt>
<trkpt lat="33.8103131" lon="-118.3938671">
  <ele>-0.129</ele>
  <time>2026-09-02T22:06:29Z</time>
  <course>187.03</course>
  <speed>0.0282842712474619</speed>
  <fix>3d</fix>
</trkpt>
<trkpt lat="33.810313" lon="-118.393867">
  <ele>-0.12</ele>
  <time>2026-09-02T22:06:29Z</time>
  <course>0.0</course>
  <speed>0.0</speed>
  <fix>3d</fix>
</trkpt>
<trkpt lat="33.8103131" lon="-118.3938671">
  <ele>-0.128</ele>
  <time>2026-09-02T22:06:29Z</time>
  <course>187.02</course>
  <speed>0.0282842712474619</speed>
  <fix>3d</fix>
</trkpt>
<trkpt lat="33.810313" lon="-118.393867">
  <ele>-0.12</ele>
  <time>2026-09-02T22:06:29Z</time>
  <course>0.0</course>
  <speed>0.0</speed>
  <fix>3d</fix>
</trkpt>
<trkpt lat="33.8103131" lon="-118.3938671">
  <ele>-0.129</ele>
  <time>2026-09-02T22:06:29Z</time>
  <course>187.02</course>
  <speed>0.0282842712474619</speed>
  <fix>3d</fix>
</trkpt>
<trkpt lat="33.810313" lon="-118.393867">
  <ele>-0.12</ele>
  <time>2026-09-02T22:06:29Z</time>
  <course>0.0</course>
  <speed>0.0</speed>
  <fix>3d</fix>
</trkpt>
<trkpt lat="33.8103131" lon="-118.3938671">
  <ele>-0.13</ele>
  <time>2026-09-02T22:06:29Z</time>
  <course>187.01</course>
  <speed>0.0282842712474619</speed>
  <fix>3d</fix>
</trkpt>
<trkpt lat="33.810313" lon="-118.393867">
  <ele>-0.12</ele>
  <time>2026-09-02T22:06:29Z</time>
  <course>0.0</course>
  <speed>0.0</speed>
  <fix>3d</fix>
</trkpt>
<trkpt lat="33.8103131" lon="-118.3938671">
  <ele>-0.131</ele>
  <time>2026-09-02T22:06:29Z</time>
  <course>187.01</course>
  <speed>0.0282842712474619</speed>
  <fix>3d</fix>
</trkpt>
<trkpt lat="33.810313" lon="-118.393867">
  <ele>-0.12</ele>
  <time>2026-09-02T22:06:29Z</time>
  <course>0.0</course>
  <speed>0.0</speed>
  <fix>3d</fix>
</trkpt>
<trkpt lat="33.8103131" lon="-118.3938671">
  <ele>-0.13</ele>
  <time>2026-09-02T22:06:29Z</time>
  <course>187.0</course>
  <speed>0.0282842712474619</speed>
  <fix>3d</fix>
</trkpt>
<trkpt lat="33.810313" lon="-118.393867">
  <ele>-0.12</ele>
  <time>2026-09-02T22:06:29Z</time>
  <course>0.0</course>
  <speed>0.0</speed>
  <fix>3d</fix>
</trkpt>
<trkpt lat="33.8103131" lon="-118.3938671">
  <ele>-0.13</ele>
  <time>2026-09-02T22:06:29Z</time>
  <course>187.0</course>
  <speed>0.0282842712474619</speed>
  <fix>3d</fix>
</trkpt>
<trkpt lat="33.810313" lon="-118.393867">
  <ele>-0.12</ele>
  <time>2026-09-02T22:06:29Z</time>
  <course>0.0</course>
  <speed>0.0</speed>
  <fix>3d</fix>
</trkpt>
<trkpt lat="33.8103131" lon="-118.3938671">
  <ele>-0.129</ele>
  <time>2026-09-02T22:06:29Z</time>
  <course>186.99</course>
  <speed>0.0282842712474619</speed>
  <fix>3d</fix>
</trkpt>
<trkpt lat="33.810313" lon="-118.393867">
  <ele>-0.12</ele>
  <time>2026-09-02T22:06:29Z</time>
  <course>0.0</course>
  <speed>0.0</speed>
  <fix>3d</fix>
</trkpt>
<trkpt lat="33.8103131" lon="-118.3938671">
  <ele>-0.128</ele>
  <time>2026-09-02T22:06:29Z</time>
  <course>186.99</course>
  <speed>0.03605551275463989</speed>
  <fix>3d</fix>
</trkpt>
<trkpt lat="33.810313" lon="-118.393867">
  <ele>-0.12</ele>
  <time>2026-09-02T22:06:29Z</time>
  <course>0.0</course>
  <speed>0.0</speed>
  <fix>3d</fix>
</trkpt>
<trkpt lat="33.8103131" lon="-118.3938671">
  <ele>-0.128</ele>
  <time>2026-09-02T22:06:29Z</time>
  <course>186.99</course>
  <speed>0.03605551275463989</speed>
  <fix>3d</fix>
</trkpt>
<trkpt lat="33.810313" lon="-118.393867">
  <ele>-0.12</ele>
  <time>2026-09-02T22:06:29Z</time>
  <course>0.0</course>
  <speed>0.0</speed>
  <fix>3d</fix>
</trkpt>
<trkpt lat="33.8103131" lon="-118.3938671">
  <ele>-0.128</ele>
  <time>2026-09-02T22:06:29Z</time>
  <course>186.98</course>
  <speed>0.03605551275463989</speed>
  <fix>3d</fix>
</trkpt>
<trkpt lat="33.810313" lon="-118.393867">
  <ele>-0.12</ele>
  <time>2026-09-02T22:06:29Z</time>
  <course>0.0</course>
  <speed>0.0</speed>
  <fix>3d</fix>
</trkpt>
<trkpt lat="33.8103131" lon="-118.3938671">
  <ele>-0.129</ele>
  <time>2026-09-02T22:06:29Z</time>
  <course>186.98</course>
  <speed>0.03605551275463989</speed>
  <fix>3d</fix>
</trkpt>
<trkpt lat="33.810313" lon="-118.393867">
  <ele>-0.12</ele>
  <time>2026-09-02T22:06:29Z</time>
  <course>0.0</course>
  <speed>0.0</speed>
  <fix>3d</fix>
</trkpt>
<trkpt lat="33.8103131" lon="-118.3938671">
  <ele>-0.132</ele>
  <time>2026-09-02T22:06:29Z</time>
  <course>186.97</course>
  <speed>0.03605551275463989</speed>
  <fix>3d</fix>
</trkpt>
<trkpt lat="33.810313" lon="-118.393867">
  <ele>-0.12</ele>
  <time>2026-09-02T22:06:29Z</time>
  <course>0.0</course>
  <speed>0.0</speed>
  <fix>3d</fix>
</trkpt>
<trkpt lat="33.8103131" lon="-118.3938671">
  <ele>-0.133</ele>
  <time>2026-09-02T22:06:29Z</time>
  <course>186.97</course>
  <speed>0.03605551275463989</speed>
  <fix>3d</fix>
</trkpt>
<trkpt lat="33.810313" lon="-118.393867">
  <ele>-0.12</ele>
  <time>2026-09-02T22:06:29Z</time>
  <course>0.0</course>
  <speed>0.0</speed>
  <fix>3d</fix>
</trkpt>
<trkpt lat="33.8103132" lon="-118.3938671">
  <ele>-0.134</ele>
  <time>2026-09-02T22:06:29Z</time>
  <course>186.96</course>
  <speed>0.03605551275463989</speed>
  <fix>3d</fix>
</trkpt>
<trkpt lat="33.810313" lon="-118.393867">
  <ele>-0.12</ele>
  <time>2026-09-02T22:06:29Z</time>
  <course>0.0</course>
  <speed>0.0</speed>
  <fix>3d</fix>
</trkpt>
<trkpt lat="33.8103132" lon="-118.3938671">
  <ele>-0.132</ele>
  <time>2026-09-02T22:06:29Z</time>
  <course>186.96</course>
  <speed>0.03605551275463989</speed>
  <fix>3d</fix>
</trkpt>
<trkpt lat="33.810313" lon="-118.393867">
  <ele>-0.12</ele>
  <time>2026-09-02T22:06:29Z</time>
  <course>0.0</course>
  <speed>0.0</speed>
  <fix>3d</fix>
</trkpt>
<trkpt lat="33.8103132" lon="-118.3938671">
  <ele>-0.131</ele>
  <time>2026-09-02T22:06:29Z</time>
  <course>186.96</course>
  <speed>0.03605551275463989</speed>
  <fix>3d</fix>
</trkpt>
<trkpt lat="33.810313" lon="-118.393867">
  <ele>-0.12</ele>
  <time>2026-09-02T22:06:29Z</time>
  <course>0.0</course>
  <speed>0.0</speed>
  <fix>3d</fix>
</trkpt>
<trkpt lat="33.8103132" lon="-118.3938671">
  <ele>-0.13</ele>
  <time>2026-09-02T22:06:29Z</time>
  <course>186.95</course>
  <speed>0.03605551275463989</speed>
  <fix>3d</fix>
</trkpt>
<trkpt lat="33.810313" lon="-118.393867">
  <ele>-0.12</ele>
  <time>2026-09-02T22:06:29Z</time>
  <course>0.0</course>
  <speed>0.0</speed>
  <fix>3d</fix>
</trkpt>
<trkpt lat="33.8103132" lon="-118.3938672">
  <ele>-0.129</ele>
  <time>2026-09-02T22:06:29Z</time>
  <course>186.95</course>
  <speed>0.03605551275463989</speed>
  <fix>3d</fix>
</trkpt>
<trkpt lat="33.810313" lon="-118.393867">
  <ele>-0.12</ele>
  <time>2026-09-02T22:06:29Z</time>
  <course>0.0</course>
  <speed>0.0</speed>
  <fix>3d</fix>
</trkpt>
<trkpt lat="33.8103132" lon="-118.3938672">
  <ele>-0.128</ele>
  <time>2026-09-02T22:06:29Z</time>
  <course>186.94</course>
  <speed>0.0282842712474619</speed>
  <fix>3d</fix>
</trkpt>
<trkpt lat="33.810313" lon="-118.393867">
  <ele>-0.12</ele>
  <time>2026-09-02T22:06:29Z</time>
  <course>0.0</course>
  <speed>0.0</speed>
  <fix>3d</fix>
</trkpt>
<trkpt lat="33.8103132" lon="-118.3938672">
  <ele>-0.128</ele>
  <time>2026-09-02T22:06:29Z</time>
  <course>186.94</course>
  <speed>0.0282842712474619</speed>
  <fix>3d</fix>
</trkpt>
<trkpt lat="33.810313" lon="-118.393867">
  <ele>-0.12</ele>
  <time>2026-09-02T22:06:29Z</time>
  <course>0.0</course>
  <speed>0.0</speed>
  <fix>3d</fix>
</trkpt>
<trkpt lat="33.8103132" lon="-118.3938672">
  <ele>-0.127</ele>
  <time>2026-09-02T22:06:29Z</time>
  <course>186.94</course>
  <speed>0.0282842712474619</speed>
  <fix>3d</fix>
</trkpt>
<trkpt lat="33.810313" lon="-118.393867">
  <ele>-0.12</ele>
  <time>2026-09-02T22:06:29Z</time>
  <course>0.0</course>
  <speed>0.0</speed>
  <fix>3d</fix>
</trkpt>
<trkpt lat="33.8103132" lon="-118.3938672">
  <ele>-0.128</ele>
  <time>2026-09-02T22:06:29Z</time>
  <course>186.93</course>
  <speed>0.0282842712474619</speed>
  <fix>3d</fix>
</trkpt>
<trkpt lat="33.810313" lon="-118.393867">
  <ele>-0.12</ele>
  <time>2026-09-02T22:06:29Z</time>
  <course>0.0</course>
  <speed>0.0</speed>
  <fix>3d</fix>
</trkpt>
<trkpt lat="33.8103132" lon="-118.3938672">
  <ele>-0.128</ele>
  <time>2026-09-02T22:06:29Z</time>
  <course>186.93</course>
  <speed>0.0282842712474619</speed>
  <fix>3d</fix>
</trkpt>
<trkpt lat="33.810313" lon="-118.393867">
  <ele>-0.12</ele>
  <time>2026-09-02T22:06:29Z</time>
  <course>0.0</course>
  <speed>0.0</speed>
  <fix>3d</fix>
</trkpt>
<trkpt lat="33.8103132" lon="-118.3938672">
  <ele>-0.127</ele>
  <time>2026-09-02T22:06:29Z</time>
  <course>186.92</course>
  <speed>0.0282842712474619</speed>
  <fix>3d</fix>
</trkpt>
<trkpt lat="33.810313" lon="-118.393867">
  <ele>-0.12</ele>
  <time>2026-09-02T22:06:29Z</time>
  <course>0.0</course>
  <speed>0.0</speed>
  <fix>3d</fix>
</trkpt>
<trkpt lat="33.8103132" lon="-118.3938671">
  <ele>-0.126</ele>
  <time>2026-09-02T22:06:29Z</time>
  <course>186.92</course>
  <speed>0.0282842712474619</speed>
  <fix>3d</fix>
</trkpt>
<trkpt lat="33.810313" lon="-118.393867">
  <ele>-0.12</ele>
  <time>2026-09-02T22:06:29Z</time>
  <course>0.0</course>
  <speed>0.0</speed>
  <fix>3d</fix>
</trkpt>
<trkpt lat="33.8103132" lon="-118.3938671">
  <ele>-0.125</ele>
  <time>2026-09-02T22:06:29Z</time>
  <course>186.92</course>
  <speed>0.0282842712474619</speed>
  <fix>3d</fix>
</trkpt>
<trkpt lat="33.810313" lon="-118.393867">
  <ele>-0.12</ele>
  <time>2026-09-02T22:06:29Z</time>
  <course>0.0</course>
  <speed>0.0</speed>
  <fix>3d</fix>
</trkpt>
<trkpt lat="33.8103132" lon="-118.3938671">
  <ele>-0.124</ele>
  <time>2026-09-02T22:06:29Z</time>
  <course>186.91</course>
  <speed>0.0282842712474619</speed>
  <fix>3d</fix>
</trkpt>
<trkpt lat="33.810313" lon="-118.393867">
  <ele>-0.12</ele>
  <time>2026-09-02T22:06:29Z</time>
  <course>0.0</course>
  <speed>0.0</speed>
  <fix>3d</fix>
</trkpt>
<trkpt lat="33.8103132" lon="-118.3938671">
  <ele>-0.122</ele>
  <time>2026-09-02T22:06:29Z</time>
  <course>186.91</course>
  <speed>0.0282842712474619</speed>
  <fix>3d</fix>
</trkpt>
<trkpt lat="33.810313" lon="-118.393867">
  <ele>-0.12</ele>
  <time>2026-09-02T22:06:29Z</time>
  <course>0.0</course>
  <speed>0.0</speed>
  <fix>3d</fix>
</trkpt>
<trkpt lat="33.8103132" lon="-118.3938671">
  <ele>-0.121</ele>
  <time>2026-09-02T22:06:29Z</time>
  <course>186.91</course>
  <speed>0.0282842712474619</speed>
  <fix>3d</fix>
</trkpt>
<trkpt lat="33.810313" lon="-118.393867">
  <ele>-0.12</ele>
  <time>2026-09-02T22:06:29Z</time>
  <course>0.0</course>
  <speed>0.0</speed>
  <fix>3d</fix>
</trkpt>
<trkpt lat="33.8103132" lon="-118.3938671">
  <ele>-0.12</ele>
  <time>2026-09-02T22:06:29Z</time>
  <course>186.9</course>
  <speed>0.0282842712474619</speed>
  <fix>3d</fix>
</trkpt>
<trkpt lat="33.810313" lon="-118.393867">
  <ele>-0.12</ele>
  <time>2026-09-02T22:06:29Z</time>
  <course>0.0</course>
  <speed>0.0</speed>
  <fix>3d</fix>
</trkpt>
<trkpt lat="33.8103132" lon="-118.3938671">
  <ele>-0.119</ele>
  <time>2026-09-02T22:06:29Z</time>
  <course>186.9</course>
  <speed>0.022360679774997897</speed>
  <fix>3d</fix>
</trkpt>
<trkpt lat="33.810313" lon="-118.393867">
  <ele>-0.12</ele>
  <time>2026-09-02T22:06:29Z</time>
  <course>0.0</course>
  <speed>0.0</speed>
  <fix>3d</fix>
</trkpt>
<trkpt lat="33.8103131" lon="-118.3938671">
  <ele>-0.118</ele>
  <time>2026-09-02T22:06:29Z</time>
  <course>186.89</course>
  <speed>0.022360679774997897</speed>
  <fix>3d</fix>
</trkpt>
<trkpt lat="33.810313" lon="-118.393867">
  <ele>-0.12</ele>
  <time>2026-09-02T22:06:29Z</time>
  <course>0.0</course>
  <speed>0.0</speed>
  <fix>3d</fix>
</trkpt>
<trkpt lat="33.8103131" lon="-118.3938671">
  <ele>-0.119</ele>
  <time>2026-09-02T22:06:29Z</time>
  <course>186.89</course>
  <speed>0.022360679774997897</speed>
  <fix>3d</fix>
</trkpt>
<trkpt lat="33.810313" lon="-118.393867">
  <ele>-0.12</ele>
  <time>2026-09-02T22:06:29Z</time>
  <course>0.0</course>
  <speed>0.0</speed>
  <fix>3d</fix>
</trkpt>
<trkpt lat="33.8103131" lon="-118.3938671">
  <ele>-0.119</ele>
  <time>2026-09-02T22:06:29Z</time>
  <course>186.89</course>
  <speed>0.022360679774997897</speed>
  <fix>3d</fix>
</trkpt>
<trkpt lat="33.810313" lon="-118.393867">
  <ele>-0.12</ele>
  <time>2026-09-02T22:06:29Z</time>
  <course>0.0</course>
  <speed>0.0</speed>
  <fix>3d</fix>
</trkpt>
<trkpt lat="33.8103131" lon="-118.3938671">
  <ele>-0.119</ele>
  <time>2026-09-02T22:06:29Z</time>
  <course>186.88</course>
  <speed>0.022360679774997897</speed>
  <fix>3d</fix>
</trkpt>
<trkpt lat="33.810313" lon="-118.393867">
  <ele>-0.12</ele>
  <time>2026-09-02T22:06:29Z</time>
  <course>0.0</course>
  <speed>0.0</speed>
  <fix>3d</fix>
</trkpt>
<trkpt lat="33.8103131" lon="-118.3938671">
  <ele>-0.119</ele>
  <time>2026-09-02T22:06:29Z</time>
  <course>186.88</course>
  <speed>0.022360679774997897</speed>
  <fix>3d</fix>
</trkpt>
<trkpt lat="33.810313" lon="-118.393867">
  <ele>-0.12</ele>
  <time>2026-09-02T22:06:29Z</time>
  <course>0.0</course>
  <speed>0.0</speed>
  <fix>3d</fix>
</trkpt>
<trkpt lat="33.8103131" lon="-118.3938671">
  <ele>-0.119</ele>
  <time>2026-09-02T22:06:29Z</time>
  <course>186.88</course>
  <speed>0.022360679774997897</speed>
  <fix>3d</fix>
</trkpt>
<trkpt lat="33.810313" lon="-118.393867">
  <ele>-0.12</ele>
  <time>2026-09-02T22:06:29Z</time>
  <course>0.0</course>
  <speed>0.0</speed>
  <fix>3d</fix>
</trkpt>
<trkpt lat="33.8103131" lon="-118.3938671">
  <ele>-0.119</ele>
  <time>2026-09-02T22:06:29Z</time>
  <course>186.87</course>
  <speed>0.022360679774997897</speed>
  <fix>3d</fix>
</trkpt>
<trkpt lat="33.810313" lon="-118.393867">
  <ele>-0.12</ele>
  <time>2026-09-02T22:06:29Z</time>
  <course>0.0</course>
  <speed>0.0</speed>
  <fix>3d</fix>
</trkpt>
<trkpt lat="33.8103131" lon="-118.3938671">
  <ele>-0.121</ele>
  <time>2026-09-02T22:06:29Z</time>
  <course>186.87</course>
  <speed>0.022360679774997897</speed>
  <fix>3d</fix>
</trkpt>
<trkpt lat="33.810313" lon="-118.393867">
  <ele>-0.12</ele>
  <time>2026-09-02T22:06:29Z</time>
  <course>0.0</course>
  <speed>0.0</speed>
  <fix>3d</fix>
</trkpt>
<trkpt lat="33.8103131" lon="-118.3938671">
  <ele>-0.124</ele>
  <time>2026-09-02T22:06:29Z</time>
  <course>186.87</course>
  <speed>0.022360679774997897</speed>
  <fix>3d</fix>
</trkpt>
<trkpt lat="33.810313" lon="-118.393867">
  <ele>-0.12</ele>
  <time>2026-09-02T22:06:29Z</time>
  <course>0.0</course>
  <speed>0.0</speed>
  <fix>3d</fix>
</trkpt>
<trkpt lat="33.8103131" lon="-118.3938671">
  <ele>-0.126</ele>
  <time>2026-09-02T22:06:29Z</time>
  <course>186.87</course>
  <speed>0.022360679774997897</speed>
  <fix>3d</fix>
</trkpt>
<trkpt lat="33.810313" lon="-118.393867">
  <ele>-0.12</ele>
  <time>2026-09-02T22:06:29Z</time>
  <course>0.0</course>
  <speed>0.0</speed>
  <fix>3d</fix>
</trkpt>
<trkpt lat="33.8103131" lon="-118.3938671">
  <ele>-0.128</ele>
  <time>2026-09-02T22:06:29Z</time>
  <course>186.86</course>
  <speed>0.022360679774997897</speed>
  <fix>3d</fix>
</trkpt>
<trkpt lat="33.810313" lon="-118.393867">
  <ele>-0.12</ele>
  <time>2026-09-02T22:06:29Z</time>
  <course>0.0</course>
  <speed>0.0</speed>
  <fix>3d</fix>
</trkpt>
<trkpt lat="33.8103131" lon="-118.3938671">
  <ele>-0.131</ele>
  <time>2026-09-02T22:06:29Z</time>
  <course>186.86</course>
  <speed>0.022360679774997897</speed>
  <fix>3d</fix>
</trkpt>
<trkpt lat="33.810313" lon="-118.393867">
  <ele>-0.12</ele>
  <time>2026-09-02T22:06:29Z</time>
  <course>0.0</course>
  <speed>0.0</speed>
  <fix>3d</fix>
</trkpt>
<trkpt lat="33.8103131" lon="-118.3938671">
  <ele>-0.133</ele>
  <time>2026-09-02T22:06:29Z</time>
  <course>186.86</course>
  <speed>0.022360679774997897</speed>
  <fix>3d</fix>
</trkpt>
<trkpt lat="33.810313" lon="-118.393867">
  <ele>-0.12</ele>
  <time>2026-09-02T22:06:29Z</time>
  <course>0.0</course>
  <speed>0.0</speed>
  <fix>3d</fix>
</trkpt>
<trkpt lat="33.8103131" lon="-118.3938671">
  <ele>-0.133</ele>
  <time>2026-09-02T22:06:29Z</time>
  <course>186.85</course>
  <speed>0.022360679774997897</speed>
  <fix>3d</fix>
</trkpt>
<trkpt lat="33.810313" lon="-118.393867">
  <ele>-0.12</ele>
  <time>2026-09-02T22:06:29Z</time>
  <course>0.0</course>
  <speed>0.0</speed>
  <fix>3d</fix>
</trkpt>
<trkpt lat="33.8103131" lon="-118.3938671">
  <ele>-0.132</ele>
  <time>2026-09-02T22:06:29Z</time>
  <course>186.85</course>
  <speed>0.022360679774997897</speed>
  <fix>3d</fix>
</trkpt>
<trkpt lat="33.810313" lon="-118.393867">
  <ele>-0.12</ele>
  <time>2026-09-02T22:06:29Z</time>
  <course>0.0</course>
  <speed>0.0</speed>
  <fix>3d</fix>
</trkpt>
<trkpt lat="33.8103131" lon="-118.3938671">
  <ele>-0.131</ele>
  <time>2026-09-02T22:06:29Z</time>
  <course>186.85</course>
  <speed>0.022360679774997897</speed>
  <fix>3d</fix>
</trkpt>
<trkpt lat="33.810313" lon="-118.393867">
  <ele>-0.12</ele>
  <time>2026-09-02T22:06:29Z</time>
  <course>0.0</course>
  <speed>0.0</speed>
  <fix>3d</fix>
</trkpt>
<trkpt lat="33.8103131" lon="-118.3938671">
  <ele>-0.129</ele>
  <time>2026-09-02T22:06:29Z</time>
  <course>186.84</course>
  <speed>0.022360679774997897</speed>
  <fix>3d</fix>
</trkpt>
<trkpt lat="33.810313" lon="-118.393867">
  <ele>-0.12</ele>
  <time>2026-09-02T22:06:29Z</time>
  <course>0.0</course>
  <speed>0.0</speed>
  <fix>3d</fix>
</trkpt>
<trkpt lat="33.8103131" lon="-118.3938671">
  <ele>-0.128</ele>
  <time>2026-09-02T22:06:29Z</time>
  <course>186.84</course>
  <speed>0.022360679774997897</speed>
  <fix>3d</fix>
</trkpt>
<trkpt lat="33.810313" lon="-118.393867">
  <ele>-0.12</ele>
  <time>2026-09-02T22:06:29Z</time>
  <course>0.0</course>
  <speed>0.0</speed>
  <fix>3d</fix>
</trkpt>
<trkpt lat="33.8103131" lon="-118.3938671">
  <ele>-0.128</ele>
  <time>2026-09-02T22:06:29Z</time>
  <course>186.84</course>
  <speed>0.022360679774997897</speed>
  <fix>3d</fix>
</trkpt>
<trkpt lat="33.810313" lon="-118.393867">
  <ele>-0.12</ele>
  <time>2026-09-02T22:06:29Z</time>
  <course>0.0</course>
  <speed>0.0</speed>
  <fix>3d</fix>
</trkpt>
<trkpt lat="33.8103131" lon="-118.3938671">
  <ele>-0.128</ele>
  <time>2026-09-02T22:06:29Z</time>
  <course>186.83</course>
  <speed>0.022360679774997897</speed>
  <fix>3d</fix>
</trkpt>
<trkpt lat="33.810313" lon="-118.393867">
  <ele>-0.12</ele>
  <time>2026-09-02T22:06:29Z</time>
  <course>0.0</course>
  <speed>0.0</speed>
  <fix>3d</fix>
</trkpt>
<trkpt lat="33.8103131" lon="-118.3938671">
  <ele>-0.128</ele>
  <time>2026-09-02T22:06:29Z</time>
  <course>186.83</course>
  <speed>0.022360679774997897</speed>
  <fix>3d</fix>
</trkpt>
<trkpt lat="33.810313" lon="-118.393867">
  <ele>-0.12</ele>
  <time>2026-09-02T22:06:29Z</time>
  <course>0.0</course>
  <speed>0.0</speed>
  <fix>3d</fix>
</trkpt>
<trkpt lat="33.8103131" lon="-118.3938671">
  <ele>-0.127</ele>
  <time>2026-09-02T22:06:29Z</time>
  <course>186.83</course>
  <speed>0.022360679774997897</speed>
  <fix>3d</fix>
</trkpt>
<trkpt lat="33.810313" lon="-118.393867">
  <ele>-0.12</ele>
  <time>2026-09-02T22:06:29Z</time>
  <course>0.0</course>
  <speed>0.0</speed>
  <fix>3d</fix>
</trkpt>
<trkpt lat="33.8103131" lon="-118.3938671">
  <ele>-0.126</ele>
  <time>2026-09-02T22:06:29Z</time>
  <course>186.82</course>
  <speed>0.022360679774997897</speed>
  <fix>3d</fix>
</trkpt>
<trkpt lat="33.810313" lon="-118.393867">
  <ele>-0.12</ele>
  <time>2026-09-02T22:06:29Z</time>
  <course>0.0</course>
  <speed>0.0</speed>
  <fix>3d</fix>
</trkpt>
<trkpt lat="33.8103131" lon="-118.3938671">
  <ele>-0.125</ele>
  <time>2026-09-02T22:06:29Z</time>
  <course>186.82</course>
  <speed>0.022360679774997897</speed>
  <fix>3d</fix>
</trkpt>
<trkpt lat="33.810313" lon="-118.393867">
  <ele>-0.12</ele>
  <time>2026-09-02T22:06:29Z</time>
  <course>0.0</course>
  <speed>0.0</speed>
  <fix>3d</fix>
</trkpt>
<trkpt lat="33.8103131" lon="-118.3938671">
  <ele>-0.124</ele>
  <time>2026-09-02T22:06:29Z</time>
  <course>186.82</course>
  <speed>0.022360679774997897</speed>
  <fix>3d</fix>
</trkpt>
<trkpt lat="33.810313" lon="-118.393867">
  <ele>-0.12</ele>
  <time>2026-09-02T22:06:29Z</time>
  <course>0.0</course>
  <speed>0.0</speed>
  <fix>3d</fix>
</trkpt>
<trkpt lat="33.8103131" lon="-118.3938671">
  <ele>-0.123</ele>
  <time>2026-09-02T22:06:29Z</time>
  <course>186.81</course>
  <speed>0.022360679774997897</speed>
  <fix>3d</fix>
</trkpt>
<trkpt lat="33.810313" lon="-118.393867">
  <ele>-0.12</ele>
  <time>2026-09-02T22:06:29Z</time>
  <course>0.0</course>
  <speed>0.0</speed>
  <fix>3d</fix>
</trkpt>
<trkpt lat="33.8103131" lon="-118.3938671">
  <ele>-0.122</ele>
  <time>2026-09-02T22:06:29Z</time>
  <course>186.81</course>
  <speed>0.022360679774997897</speed>
  <fix>3d</fix>
</trkpt>
<trkpt lat="33.810313" lon="-118.393867">
  <ele>-0.12</ele>
  <time>2026-09-02T22:06:29Z</time>
  <course>0.0</course>
  <speed>0.0</speed>
  <fix>3d</fix>
</trkpt>
<trkpt lat="33.8103131" lon="-118.3938671">
  <ele>-0.122</ele>
  <time>2026-09-02T22:06:29Z</time>
  <course>186.81</course>
  <speed>0.022360679774997897</speed>
  <fix>3d</fix>
</trkpt>
<trkpt lat="33.810313" lon="-118.393867">
  <ele>-0.12</ele>
  <time>2026-09-02T22:06:29Z</time>
  <course>0.0</course>
  <speed>0.0</speed>
  <fix>3d</fix>
</trkpt>
<trkpt lat="33.8103131" lon="-118.3938671">
  <ele>-0.122</ele>
  <time>2026-09-02T22:06:29Z</time>
  <course>186.81</course>
  <speed>0.022360679774997897</speed>
  <fix>3d</fix>
</trkpt>
<trkpt lat="33.810313" lon="-118.393867">
  <ele>-0.12</ele>
  <time>2026-09-02T22:06:29Z</time>
  <course>0.0</course>
  <speed>0.0</speed>
  <fix>3d</fix>
</trkpt>
<trkpt lat="33.8103131" lon="-118.3938671">
  <ele>-0.121</ele>
  <time>2026-09-02T22:06:29Z</time>
  <course>186.8</course>
  <speed>0.022360679774997897</speed>
  <fix>3d</fix>
</trkpt>
<trkpt lat="33.810313" lon="-118.393867">
  <ele>-0.12</ele>
  <time>2026-09-02T22:06:29Z</time>
  <course>0.0</course>
  <speed>0.0</speed>
  <fix>3d</fix>
</trkpt>
<trkpt lat="33.8103131" lon="-118.3938671">
  <ele>-0.122</ele>
  <time>2026-09-02T22:06:29Z</time>
  <course>186.8</course>
  <speed>0.022360679774997897</speed>
  <fix>3d</fix>
</trkpt>
<trkpt lat="33.810313" lon="-118.393867">
  <ele>-0.12</ele>
  <time>2026-09-02T22:06:29Z</time>
  <course>0.0</course>
  <speed>0.0</speed>
  <fix>3d</fix>
</trkpt>
<trkpt lat="33.8103131" lon="-118.3938671">
  <ele>-0.122</ele>
  <time>2026-09-02T22:06:29Z</time>
  <course>186.8</course>
  <speed>0.022360679774997897</speed>
  <fix>3d</fix>
</trkpt>
<trkpt lat="33.810313" lon="-118.393867">
  <ele>-0.12</ele>
  <time>2026-09-02T22:06:29Z</time>
  <course>0.0</course>
  <speed>0.0</speed>
  <fix>3d</fix>
</trkpt>
<trkpt lat="33.8103131" lon="-118.3938671">
  <ele>-0.122</ele>
  <time>2026-09-02T22:06:29Z</time>
  <course>186.79</course>
  <speed>0.022360679774997897</speed>
  <fix>3d</fix>
</trkpt>
<trkpt lat="33.810313" lon="-118.393867">
  <ele>-0.12</ele>
  <time>2026-09-02T22:06:29Z</time>
  <course>0.0</course>
  <speed>0.0</speed>
  <fix>3d</fix>
</trkpt>
<trkpt lat="33.8103131" lon="-118.3938671">
  <ele>-0.122</ele>
  <time>2026-09-02T22:06:29Z</time>
  <course>186.79</course>
  <speed>0.022360679774997897</speed>
  <fix>3d</fix>
</trkpt>
<trkpt lat="33.810313" lon="-118.393867">
  <ele>-0.12</ele>
  <time>2026-09-02T22:06:29Z</time>
  <course>0.0</course>
  <speed>0.0</speed>
  <fix>3d</fix>
</trkpt>
<trkpt lat="33.8103131" lon="-118.3938671">
  <ele>-0.122</ele>
  <time>2026-09-02T22:06:29Z</time>
  <course>186.79</course>
  <speed>0.022360679774997897</speed>
  <fix>3d</fix>
</trkpt>
<trkpt lat="33.810313" lon="-118.393867">
  <ele>-0.12</ele>
  <time>2026-09-02T22:06:29Z</time>
  <course>0.0</course>
  <speed>0.0</speed>
  <fix>3d</fix>
</trkpt>
<trkpt lat="33.8103131" lon="-118.3938671">
  <ele>-0.121</ele>
  <time>2026-09-02T22:06:29Z</time>
  <course>186.79</course>
  <speed>0.022360679774997897</speed>
  <fix>3d</fix>
</trkpt>
<trkpt lat="33.810313" lon="-118.393867">
  <ele>-0.12</ele>
  <time>2026-09-02T22:06:29Z</time>
  <course>0.0</course>
  <speed>0.0</speed>
  <fix>3d</fix>
</trkpt>
<trkpt lat="33.8103131" lon="-118.3938671">
  <ele>-0.12</ele>
  <time>2026-09-02T22:06:29Z</time>
  <course>186.78</course>
  <speed>0.022360679774997897</speed>
  <fix>3d</fix>
</trkpt>
<trkpt lat="33.810313" lon="-118.393867">
  <ele>-0.12</ele>
  <time>2026-09-02T22:06:29Z</time>
  <course>0.0</course>
  <speed>0.0</speed>
  <fix>3d</fix>
</trkpt>
<trkpt lat="33.8103131" lon="-118.3938671">
  <ele>-0.12</ele>
  <time>2026-09-02T22:06:29Z</time>
  <course>186.78</course>
  <speed>0.022360679774997897</speed>
  <fix>3d</fix>
</trkpt>
<trkpt lat="33.810313" lon="-118.393867">
  <ele>-0.12</ele>
  <time>2026-09-02T22:06:29Z</time>
  <course>0.0</course>
  <speed>0.0</speed>
  <fix>3d</fix>
</trkpt>
<trkpt lat="33.8103131" lon="-118.3938671">
  <ele>-0.12</ele>
  <time>2026-09-02T22:06:29Z</time>
  <course>186.78</course>
  <speed>0.022360679774997897</speed>
  <fix>3d</fix>
</trkpt>
<trkpt lat="33.810313" lon="-118.393867">
  <ele>-0.12</ele>
  <time>2026-09-02T22:06:29Z</time>
  <course>0.0</course>
  <speed>0.0</speed>
  <fix>3d</fix>
</trkpt>
<trkpt lat="33.8103131" lon="-118.3938671">
  <ele>-0.122</ele>
  <time>2026-09-02T22:06:29Z</time>
  <course>186.77</course>
  <speed>0.022360679774997897</speed>
  <fix>3d</fix>
</trkpt>
<trkpt lat="33.810313" lon="-118.393867">
  <ele>-0.12</ele>
  <time>2026-09-02T22:06:29Z</time>
  <course>0.0</course>
  <speed>0.0</speed>
  <fix>3d</fix>
</trkpt>
<trkpt lat="33.8103131" lon="-118.3938671">
  <ele>-0.125</ele>
  <time>2026-09-02T22:06:29Z</time>
  <course>186.77</course>
  <speed>0.022360679774997897</speed>
  <fix>3d</fix>
</trkpt>
<trkpt lat="33.810313" lon="-118.393867">
  <ele>-0.12</ele>
  <time>2026-09-02T22:06:29Z</time>
  <course>0.0</course>
  <speed>0.0</speed>
  <fix>3d</fix>
</trkpt>
<trkpt lat="33.8103131" lon="-118.3938671">
  <ele>-0.128</ele>
  <time>2026-09-02T22:06:29Z</time>
  <course>186.77</course>
  <speed>0.022360679774997897</speed>
  <fix>3d</fix>
</trkpt>
<trkpt lat="33.810313" lon="-118.393867">
  <ele>-0.12</ele>
  <time>2026-09-02T22:06:29Z</time>
  <course>0.0</course>
  <speed>0.0</speed>
  <fix>3d</fix>
</trkpt>
<trkpt lat="33.8103131" lon="-118.3938671">
  <ele>-0.13</ele>
  <time>2026-09-02T22:06:29Z</time>
  <course>186.77</course>
  <speed>0.022360679774997897</speed>
  <fix>3d</fix>
</trkpt>
<trkpt lat="33.810313" lon="-118.393867">
  <ele>-0.12</ele>
  <time>2026-09-02T22:06:29Z</time>
  <course>0.0</course>
  <speed>0.0</speed>
  <fix>3d</fix>
</trkpt>
<trkpt lat="33.8103131" lon="-118.3938671">
  <ele>-0.13</ele>
  <time>2026-09-02T22:06:29Z</time>
  <course>186.76</course>
  <speed>0.022360679774997897</speed>
  <fix>3d</fix>
</trkpt>
<trkpt lat="33.810313" lon="-118.393867">
  <ele>-0.12</ele>
  <time>2026-09-02T22:06:29Z</time>
  <course>0.0</course>
  <speed>0.0</speed>
  <fix>3d</fix>
</trkpt>
<trkpt lat="33.8103131" lon="-118.3938671">
  <ele>-0.129</ele>
  <time>2026-09-02T22:06:29Z</time>
  <course>186.76</course>
  <speed>0.022360679774997897</speed>
  <fix>3d</fix>
</trkpt>
<trkpt lat="33.810313" lon="-118.393867">
  <ele>-0.12</ele>
  <time>2026-09-02T22:06:29Z</time>
  <course>0.0</course>
  <speed>0.0</speed>
  <fix>3d</fix>
</trkpt>
<trkpt lat="33.8103131" lon="-118.3938671">
  <ele>-0.127</ele>
  <time>2026-09-02T22:06:29Z</time>
  <course>186.76</course>
  <speed>0.022360679774997897</speed>
  <fix>3d</fix>
</trkpt>
<trkpt lat="33.810313" lon="-118.393867">
  <ele>-0.12</ele>
  <time>2026-09-02T22:06:29Z</time>
  <course>0.0</course>
  <speed>0.0</speed>
  <fix>3d</fix>
</trkpt>
<trkpt lat="33.8103131" lon="-118.3938671">
  <ele>-0.125</ele>
  <time>2026-09-02T22:06:29Z</time>
  <course>186.75</course>
  <speed>0.022360679774997897</speed>
  <fix>3d</fix>
</trkpt>
<trkpt lat="33.810313" lon="-118.393867">
  <ele>-0.12</ele>
  <time>2026-09-02T22:06:29Z</time>
  <course>0.0</course>
  <speed>0.0</speed>
  <fix>3d</fix>
</trkpt>
<trkpt lat="33.8103131" lon="-118.3938671">
  <ele>-0.124</ele>
  <time>2026-09-02T22:06:29Z</time>
  <course>186.75</course>
  <speed>0.022360679774997897</speed>
  <fix>3d</fix>
</trkpt>
<trkpt lat="33.810313" lon="-118.393867">
  <ele>-0.12</ele>
  <time>2026-09-02T22:06:29Z</time>
  <course>0.0</course>
  <speed>0.0</speed>
  <fix>3d</fix>
</trkpt>
<trkpt lat="33.8103131" lon="-118.3938671">
  <ele>-0.124</ele>
  <time>2026-09-02T22:06:29Z</time>
  <course>186.75</course>
  <speed>0.022360679774997897</speed>
  <fix>3d</fix>
</trkpt>
<trkpt lat="33.810313" lon="-118.393867">
  <ele>-0.12</ele>
  <time>2026-09-02T22:06:29Z</time>
  <course>0.0</course>
  <speed>0.0</speed>
  <fix>3d</fix>
</trkpt>
<trkpt lat="33.8103131" lon="-118.3938671">
  <ele>-0.123</ele>
  <time>2026-09-02T22:06:29Z</time>
  <course>186.75</course>
  <speed>0.022360679774997897</speed>
  <fix>3d</fix>
</trkpt>
<trkpt lat="33.810313" lon="-118.393867">
  <ele>-0.12</ele>
  <time>2026-09-02T22:06:29Z</time>
  <course>0.0</course>
  <speed>0.0</speed>
  <fix>3d</fix>
</trkpt>
<trkpt lat="33.8103131" lon="-118.3938671">
  <ele>-0.122</ele>
  <time>2026-09-02T22:06:29Z</time>
  <course>186.74</course>
  <speed>0.022360679774997897</speed>
  <fix>3d</fix>
</trkpt>
<trkpt lat="33.810313" lon="-118.393867">
  <ele>-0.12</ele>
  <time>2026-09-02T22:06:29Z</time>
  <course>0.0</course>
  <speed>0.0</speed>
  <fix>3d</fix>
</trkpt>
<trkpt lat="33.8103131" lon="-118.3938671">
  <ele>-0.122</ele>
  <time>2026-09-02T22:06:29Z</time>
  <course>186.74</course>
  <speed>0.022360679774997897</speed>
  <fix>3d</fix>
</trkpt>
<trkpt lat="33.810313" lon="-118.393867">
  <ele>-0.12</ele>
  <time>2026-09-02T22:06:29Z</time>
  <course>0.0</course>
  <speed>0.0</speed>
  <fix>3d</fix>
</trkpt>
<trkpt lat="33.8103131" lon="-118.3938671">
  <ele>-0.122</ele>
  <time>2026-09-02T22:06:29Z</time>
  <course>186.74</course>
  <speed>0.022360679774997897</speed>
  <fix>3d</fix>
</trkpt>
<trkpt lat="33.810313" lon="-118.393867">
  <ele>-0.12</ele>
  <time>2026-09-02T22:06:29Z</time>
  <course>0.0</course>
  <speed>0.0</speed>
  <fix>3d</fix>
</trkpt>
<trkpt lat="33.8103131" lon="-118.3938671">
  <ele>-0.122</ele>
  <time>2026-09-02T22:06:29Z</time>
  <course>186.74</course>
  <speed>0.022360679774997897</speed>
  <fix>3d</fix>
</trkpt>
<trkpt lat="33.810313" lon="-118.393867">
  <ele>-0.12</ele>
  <time>2026-09-02T22:06:29Z</time>
  <course>0.0</course>
  <speed>0.0</speed>
  <fix>3d</fix>
</trkpt>
<trkpt lat="33.8103131" lon="-118.3938671">
  <ele>-0.121</ele>
  <time>2026-09-02T22:06:29Z</time>
  <course>186.73</course>
  <speed>0.022360679774997897</speed>
  <fix>3d</fix>
</trkpt>
<trkpt lat="33.810313" lon="-118.393867">
  <ele>-0.12</ele>
  <time>2026-09-02T22:06:29Z</time>
  <course>0.0</course>
  <speed>0.0</speed>
  <fix>3d</fix>
</trkpt>
<trkpt lat="33.8103131" lon="-118.3938671">
  <ele>-0.12</ele>
  <time>2026-09-02T22:06:29Z</time>
  <course>186.73</course>
  <speed>0.022360679774997897</speed>
  <fix>3d</fix>
</trkpt>
<trkpt lat="33.810313" lon="-118.393867">
  <ele>-0.12</ele>
  <time>2026-09-02T22:06:29Z</time>
  <course>0.0</course>
  <speed>0.0</speed>
  <fix>3d</fix>
</trkpt>
<trkpt lat="33.8103131" lon="-118.3938671">
  <ele>-0.12</ele>
  <time>2026-09-02T22:06:29Z</time>
  <course>186.73</course>
  <speed>0.022360679774997897</speed>
  <fix>3d</fix>
</trkpt>
<trkpt lat="33.810313" lon="-118.393867">
  <ele>-0.12</ele>
  <time>2026-09-02T22:06:29Z</time>
  <course>0.0</course>
  <speed>0.0</speed>
  <fix>3d</fix>
</trkpt>
<trkpt lat="33.8103131" lon="-118.3938671">
  <ele>-0.12</ele>
  <time>2026-09-02T22:06:29Z</time>
  <course>186.72</course>
  <speed>0.022360679774997897</speed>
  <fix>3d</fix>
</trkpt>
<trkpt lat="33.810313" lon="-118.393867">
  <ele>-0.12</ele>
  <time>2026-09-02T22:06:29Z</time>
  <course>0.0</course>
  <speed>0.0</speed>
  <fix>3d</fix>
</trkpt>
<trkpt lat="33.8103131" lon="-118.3938671">
  <ele>-0.121</ele>
  <time>2026-09-02T22:06:29Z</time>
  <course>186.72</course>
  <speed>0.022360679774997897</speed>
  <fix>3d</fix>
</trkpt>
<trkpt lat="33.810313" lon="-118.393867">
  <ele>-0.12</ele>
  <time>2026-09-02T22:06:29Z</time>
  <course>0.0</course>
  <speed>0.0</speed>
  <fix>3d</fix>
</trkpt>
<trkpt lat="33.8103131" lon="-118.3938671">
  <ele>-0.123</ele>
  <time>2026-09-02T22:06:29Z</time>
  <course>186.72</course>
  <speed>0.022360679774997897</speed>
  <fix>3d</fix>
</trkpt>
<trkpt lat="33.810313" lon="-118.393867">
  <ele>-0.12</ele>
  <time>2026-09-02T22:06:29Z</time>
  <course>0.0</course>
  <speed>0.0</speed>
  <fix>3d</fix>
</trkpt>
<trkpt lat="33.8103131" lon="-118.3938671">
  <ele>-0.125</ele>
  <time>2026-09-02T22:06:29Z</time>
  <course>186.72</course>
  <speed>0.022360679774997897</speed>
  <fix>3d</fix>
</trkpt>
<trkpt lat="33.810313" lon="-118.393867">
  <ele>-0.12</ele>
  <time>2026-09-02T22:06:29Z</time>
  <course>0.0</course>
  <speed>0.0</speed>
  <fix>3d</fix>
</trkpt>
<trkpt lat="33.8103131" lon="-118.3938671">
  <ele>-0.127</ele>
  <time>2026-09-02T22:06:29Z</time>
  <course>186.71</course>
  <speed>0.022360679774997897</speed>
  <fix>3d</fix>
</trkpt>
<trkpt lat="33.810313" lon="-118.393867">
  <ele>-0.12</ele>
  <time>2026-09-02T22:06:29Z</time>
  <course>0.0</course>
  <speed>0.0</speed>
  <fix>3d</fix>
</trkpt>
<trkpt lat="33.8103131" lon="-118.3938671">
  <ele>-0.127</ele>
  <time>2026-09-02T22:06:29Z</time>
  <course>186.71</course>
  <speed>0.022360679774997897</speed>
  <fix>3d</fix>
</trkpt>
<trkpt lat="33.810313" lon="-118.393867">
  <ele>-0.12</ele>
  <time>2026-09-02T22:06:29Z</time>
  <course>0.0</course>
  <speed>0.0</speed>
  <fix>3d</fix>
</trkpt>
<trkpt lat="33.8103131" lon="-118.3938671">
  <ele>-0.128</ele>
  <time>2026-09-02T22:06:29Z</time>
  <course>186.71</course>
  <speed>0.022360679774997897</speed>
  <fix>3d</fix>
</trkpt>
<trkpt lat="33.810313" lon="-118.393867">
  <ele>-0.12</ele>
  <time>2026-09-02T22:06:29Z</time>
  <course>0.0</course>
  <speed>0.0</speed>
  <fix>3d</fix>
</trkpt>
<trkpt lat="33.8103131" lon="-118.3938671">
  <ele>-0.127</ele>
  <time>2026-09-02T22:06:29Z</time>
  <course>186.71</course>
  <speed>0.022360679774997897</speed>
  <fix>3d</fix>
</trkpt>
<trkpt lat="33.810313" lon="-118.393867">
  <ele>-0.12</ele>
  <time>2026-09-02T22:06:29Z</time>
  <course>0.0</course>
  <speed>0.0</speed>
  <fix>3d</fix>
</trkpt>
<trkpt lat="33.8103131" lon="-118.3938671">
  <ele>-0.125</ele>
  <time>2026-09-02T22:06:29Z</time>
  <course>186.7</course>
  <speed>0.022360679774997897</speed>
  <fix>3d</fix>
</trkpt>
<trkpt lat="33.810313" lon="-118.393867">
  <ele>-0.12</ele>
  <time>2026-09-02T22:06:29Z</time>
  <course>0.0</course>
  <speed>0.0</speed>
  <fix>3d</fix>
</trkpt>
<trkpt lat="33.8103131" lon="-118.3938671">
  <ele>-0.125</ele>
  <time>2026-09-02T22:06:29Z</time>
  <course>186.7</course>
  <speed>0.022360679774997897</speed>
  <fix>3d</fix>
</trkpt>
<trkpt lat="33.810313" lon="-118.393867">
  <ele>-0.12</ele>
  <time>2026-09-02T22:06:29Z</time>
  <course>0.0</course>
  <speed>0.0</speed>
  <fix>3d</fix>
</trkpt>
<trkpt lat="33.8103131" lon="-118.3938671">
  <ele>-0.125</ele>
  <time>2026-09-02T22:06:29Z</time>
  <course>186.7</course>
  <speed>0.022360679774997897</speed>
  <fix>3d</fix>
</trkpt>
<trkpt lat="33.810313" lon="-118.393867">
  <ele>-0.12</ele>
  <time>2026-09-02T22:06:29Z</time>
  <course>0.0</course>
  <speed>0.0</speed>
  <fix>3d</fix>
</trkpt>
<trkpt lat="33.8103131" lon="-118.3938671">
  <ele>-0.126</ele>
  <time>2026-09-02T22:06:29Z</time>
  <course>186.7</course>
  <speed>0.022360679774997897</speed>
  <fix>3d</fix>
</trkpt>
<trkpt lat="33.810313" lon="-118.393867">
  <ele>-0.12</ele>
  <time>2026-09-02T22:06:29Z</time>
  <course>0.0</course>
  <speed>0.0</speed>
  <fix>3d</fix>
</trkpt>
<trkpt lat="33.8103131" lon="-118.3938671">
  <ele>-0.128</ele>
  <time>2026-09-02T22:06:29Z</time>
  <course>186.69</course>
  <speed>0.022360679774997897</speed>
  <fix>3d</fix>
</trkpt>
<trkpt lat="33.810313" lon="-118.393867">
  <ele>-0.12</ele>
  <time>2026-09-02T22:06:29Z</time>
  <course>0.0</course>
  <speed>0.0</speed>
  <fix>3d</fix>
</trkpt>
<trkpt lat="33.8103131" lon="-118.3938671">
  <ele>-0.131</ele>
  <time>2026-09-02T22:06:29Z</time>
  <course>186.69</course>
  <speed>0.022360679774997897</speed>
  <fix>3d</fix>
</trkpt>
<trkpt lat="33.810313" lon="-118.393867">
  <ele>-0.12</ele>
  <time>2026-09-02T22:06:29Z</time>
  <course>0.0</course>
  <speed>0.0</speed>
  <fix>3d</fix>
</trkpt>
<trkpt lat="33.8103131" lon="-118.3938671">
  <ele>-0.133</ele>
  <time>2026-09-02T22:06:29Z</time>
  <course>186.69</course>
  <speed>0.022360679774997897</speed>
  <fix>3d</fix>
</trkpt>
<trkpt lat="33.810313" lon="-118.393867">
  <ele>-0.12</ele>
  <time>2026-09-02T22:06:29Z</time>
  <course>0.0</course>
  <speed>0.0</speed>
  <fix>3d</fix>
</trkpt>
<trkpt lat="33.8103131" lon="-118.3938671">
  <ele>-0.133</ele>
  <time>2026-09-02T22:06:29Z</time>
  <course>186.69</course>
  <speed>0.022360679774997897</speed>
  <fix>3d</fix>
</trkpt>
<trkpt lat="33.810313" lon="-118.393867">
  <ele>-0.12</ele>
  <time>2026-09-02T22:06:29Z</time>
  <course>0.0</course>
  <speed>0.0</speed>
  <fix>3d</fix>
</trkpt>
<trkpt lat="33.8103131" lon="-118.3938671">
  <ele>-0.132</ele>
  <time>2026-09-02T22:06:29Z</time>
  <course>186.68</course>
  <speed>0.022360679774997897</speed>
  <fix>3d</fix>
</trkpt>
<trkpt lat="33.810313" lon="-118.393867">
  <ele>-0.12</ele>
  <time>2026-09-02T22:06:29Z</time>
  <course>0.0</course>
  <speed>0.0</speed>
  <fix>3d</fix>
</trkpt>
<trkpt lat="33.8103131" lon="-118.3938671">
  <ele>-0.132</ele>
  <time>2026-09-02T22:06:29Z</time>
  <course>186.68</course>
  <speed>0.022360679774997897</speed>
  <fix>3d</fix>
</trkpt>
<trkpt lat="33.810313" lon="-118.393867">
  <ele>-0.12</ele>
  <time>2026-09-02T22:06:29Z</time>
  <course>0.0</course>
  <speed>0.0</speed>
  <fix>3d</fix>
</trkpt>
<trkpt lat="33.8103131" lon="-118.3938671">
  <ele>-0.131</ele>
  <time>2026-09-02T22:06:29Z</time>
  <course>186.68</course>
  <speed>0.022360679774997897</speed>
  <fix>3d</fix>
</trkpt>
<trkpt lat="33.810313" lon="-118.393867">
  <ele>-0.12</ele>
  <time>2026-09-02T22:06:29Z</time>
  <course>0.0</course>
  <speed>0.0</speed>
  <fix>3d</fix>
</trkpt>
<trkpt lat="33.8103131" lon="-118.3938671">
  <ele>-0.13</ele>
  <time>2026-09-02T22:06:29Z</time>
  <course>186.68</course>
  <speed>0.022360679774997897</speed>
  <fix>3d</fix>
</trkpt>
<trkpt lat="33.810313" lon="-118.393867">
  <ele>-0.12</ele>
  <time>2026-09-02T22:06:29Z</time>
  <course>0.0</course>
  <speed>0.0</speed>
  <fix>3d</fix>
</trkpt>
<trkpt lat="33.8103131" lon="-118.3938671">
  <ele>-0.13</ele>
  <time>2026-09-02T22:06:29Z</time>
  <course>186.67</course>
  <speed>0.022360679774997897</speed>
  <fix>3d</fix>
</trkpt>
<trkpt lat="33.810313" lon="-118.393867">
  <ele>-0.12</ele>
  <time>2026-09-02T22:06:30Z</time>
  <course>0.0</course>
  <speed>0.0</speed>
  <fix>3d</fix>
</trkpt>
<trkpt lat="33.8103131" lon="-118.3938671">
  <ele>-0.13</ele>
  <time>2026-09-02T22:06:30Z</time>
  <course>186.67</course>
  <speed>0.022360679774997897</speed>
  <fix>3d</fix>
</trkpt>
<trkpt lat="33.810313" lon="-118.393867">
  <ele>-0.12</ele>
  <time>2026-09-02T22:06:30Z</time>
  <course>0.0</course>
  <speed>0.0</speed>
  <fix>3d</fix>
</trkpt>
<trkpt lat="33.8103131" lon="-118.3938671">
  <ele>-0.129</ele>
  <time>2026-09-02T22:06:30Z</time>
  <course>186.67</course>
  <speed>0.022360679774997897</speed>
  <fix>3d</fix>
</trkpt>
<trkpt lat="33.810313" lon="-118.393867">
  <ele>-0.12</ele>
  <time>2026-09-02T22:06:30Z</time>
  <course>0.0</course>
  <speed>0.0</speed>
  <fix>3d</fix>
</trkpt>
<trkpt lat="33.8103131" lon="-118.3938671">
  <ele>-0.13</ele>
  <time>2026-09-02T22:06:30Z</time>
  <course>186.67</course>
  <speed>0.022360679774997897</speed>
  <fix>3d</fix>
</trkpt>
<trkpt lat="33.810313" lon="-118.393867">
  <ele>-0.12</ele>
  <time>2026-09-02T22:06:30Z</time>
  <course>0.0</course>
  <speed>0.0</speed>
  <fix>3d</fix>
</trkpt>
<trkpt lat="33.8103131" lon="-118.3938671">
  <ele>-0.13</ele>
  <time>2026-09-02T22:06:30Z</time>
  <course>186.67</course>
  <speed>0.022360679774997897</speed>
  <fix>3d</fix>
</trkpt>
<trkpt lat="33.810313" lon="-118.393867">
  <ele>-0.12</ele>
  <time>2026-09-02T22:06:30Z</time>
  <course>0.0</course>
  <speed>0.0</speed>
  <fix>3d</fix>
</trkpt>
<trkpt lat="33.8103131" lon="-118.3938671">
  <ele>-0.129</ele>
  <time>2026-09-02T22:06:30Z</time>
  <course>186.66</course>
  <speed>0.022360679774997897</speed>
  <fix>3d</fix>
</trkpt>
<trkpt lat="33.810313" lon="-118.393867">
  <ele>-0.12</ele>
  <time>2026-09-02T22:06:30Z</time>
  <course>0.0</course>
  <speed>0.0</speed>
  <fix>3d</fix>
</trkpt>
<trkpt lat="33.8103131" lon="-118.3938671">
  <ele>-0.128</ele>
  <time>2026-09-02T22:06:30Z</time>
  <course>186.66</course>
  <speed>0.022360679774997897</speed>
  <fix>3d</fix>
</trkpt>
<trkpt lat="33.810313" lon="-118.393867">
  <ele>-0.12</ele>
  <time>2026-09-02T22:06:30Z</time>
  <course>0.0</course>
  <speed>0.0</speed>
  <fix>3d</fix>
</trkpt>
<trkpt lat="33.8103131" lon="-118.3938671">
  <ele>-0.126</ele>
  <time>2026-09-02T22:06:30Z</time>
  <course>186.66</course>
  <speed>0.022360679774997897</speed>
  <fix>3d</fix>
</trkpt>
<trkpt lat="33.810313" lon="-118.393867">
  <ele>-0.12</ele>
  <time>2026-09-02T22:06:30Z</time>
  <course>0.0</course>
  <speed>0.0</speed>
  <fix>3d</fix>
</trkpt>
<trkpt lat="33.8103131" lon="-118.3938671">
  <ele>-0.124</ele>
  <time>2026-09-02T22:06:30Z</time>
  <course>186.66</course>
  <speed>0.022360679774997897</speed>
  <fix>3d</fix>
</trkpt>
<trkpt lat="33.810313" lon="-118.393867">
  <ele>-0.12</ele>
  <time>2026-09-02T22:06:30Z</time>
  <course>0.0</course>
  <speed>0.0</speed>
  <fix>3d</fix>
</trkpt>
<trkpt lat="33.8103131" lon="-118.3938671">
  <ele>-0.122</ele>
  <time>2026-09-02T22:06:30Z</time>
  <course>186.65</course>
  <speed>0.022360679774997897</speed>
  <fix>3d</fix>
</trkpt>
<trkpt lat="33.810313" lon="-118.393867">
  <ele>-0.12</ele>
  <time>2026-09-02T22:06:30Z</time>
  <course>0.0</course>
  <speed>0.0</speed>
  <fix>3d</fix>
</trkpt>
<trkpt lat="33.8103131" lon="-118.3938671">
  <ele>-0.121</ele>
  <time>2026-09-02T22:06:30Z</time>
  <course>186.65</course>
  <speed>0.022360679774997897</speed>
  <fix>3d</fix>
</trkpt>
<trkpt lat="33.810313" lon="-118.393867">
  <ele>-0.12</ele>
  <time>2026-09-02T22:06:30Z</time>
  <course>0.0</course>
  <speed>0.0</speed>
  <fix>3d</fix>
</trkpt>
<trkpt lat="33.8103131" lon="-118.3938671">
  <ele>-0.122</ele>
  <time>2026-09-02T22:06:30Z</time>
  <course>186.65</course>
  <speed>0.022360679774997897</speed>
  <fix>3d</fix>
</trkpt>
<trkpt lat="33.810313" lon="-118.393867">
  <ele>-0.12</ele>
  <time>2026-09-02T22:06:30Z</time>
  <course>0.0</course>
  <speed>0.0</speed>
  <fix>3d</fix>
</trkpt>
<trkpt lat="33.8103131" lon="-118.3938671">
  <ele>-0.124</ele>
  <time>2026-09-02T22:06:30Z</time>
  <course>186.65</course>
  <speed>0.022360679774997897</speed>
  <fix>3d</fix>
</trkpt>
<trkpt lat="33.810313" lon="-118.393867">
  <ele>-0.12</ele>
  <time>2026-09-02T22:06:30Z</time>
  <course>0.0</course>
  <speed>0.0</speed>
  <fix>3d</fix>
</trkpt>
<trkpt lat="33.8103131" lon="-118.3938671">
  <ele>-0.127</ele>
  <time>2026-09-02T22:06:30Z</time>
  <course>186.64</course>
  <speed>0.022360679774997897</speed>
  <fix>3d</fix>
</trkpt>
<trkpt lat="33.810313" lon="-118.393867">
  <ele>-0.12</ele>
  <time>2026-09-02T22:06:30Z</time>
  <course>0.0</course>
  <speed>0.0</speed>
  <fix>3d</fix>
</trkpt>
<trkpt lat="33.8103131" lon="-118.3938671">
  <ele>-0.128</ele>
  <time>2026-09-02T22:06:30Z</time>
  <course>186.64</course>
  <speed>0.022360679774997897</speed>
  <fix>3d</fix>
</trkpt>
<trkpt lat="33.810313" lon="-118.393867">
  <ele>-0.12</ele>
  <time>2026-09-02T22:06:30Z</time>
  <course>0.0</course>
  <speed>0.0</speed>
  <fix>3d</fix>
</trkpt>
<trkpt lat="33.8103131" lon="-118.3938671">
  <ele>-0.129</ele>
  <time>2026-09-02T22:06:30Z</time>
  <course>186.64</course>
  <speed>0.022360679774997897</speed>
  <fix>3d</fix>
</trkpt>
<trkpt lat="33.810313" lon="-118.393867">
  <ele>-0.12</ele>
  <time>2026-09-02T22:06:30Z</time>
  <course>0.0</course>
  <speed>0.0</speed>
  <fix>3d</fix>
</trkpt>
<trkpt lat="33.8103131" lon="-118.3938671">
  <ele>-0.13</ele>
  <time>2026-09-02T22:06:30Z</time>
  <course>186.64</course>
  <speed>0.022360679774997897</speed>
  <fix>3d</fix>
</trkpt>
<trkpt lat="33.810313" lon="-118.393867">
  <ele>-0.12</ele>
  <time>2026-09-02T22:06:30Z</time>
  <course>0.0</course>
  <speed>0.0</speed>
  <fix>3d</fix>
</trkpt>
<trkpt lat="33.8103131" lon="-118.3938671">
  <ele>-0.129</ele>
  <time>2026-09-02T22:06:30Z</time>
  <course>186.64</course>
  <speed>0.022360679774997897</speed>
  <fix>3d</fix>
</trkpt>
<trkpt lat="33.810313" lon="-118.393867">
  <ele>-0.12</ele>
  <time>2026-09-02T22:06:30Z</time>
  <course>0.0</course>
  <speed>0.0</speed>
  <fix>3d</fix>
</trkpt>
<trkpt lat="33.8103131" lon="-118.3938671">
  <ele>-0.128</ele>
  <time>2026-09-02T22:06:30Z</time>
  <course>186.63</course>
  <speed>0.022360679774997897</speed>
  <fix>3d</fix>
</trkpt>
<trkpt lat="33.810313" lon="-118.393867">
  <ele>-0.12</ele>
  <time>2026-09-02T22:06:30Z</time>
  <course>0.0</course>
  <speed>0.0</speed>
  <fix>3d</fix>
</trkpt>
<trkpt lat="33.8103131" lon="-118.3938671">
  <ele>-0.127</ele>
  <time>2026-09-02T22:06:30Z</time>
  <course>186.63</course>
  <speed>0.022360679774997897</speed>
  <fix>3d</fix>
</trkpt>
<trkpt lat="33.810313" lon="-118.393867">
  <ele>-0.12</ele>
  <time>2026-09-02T22:06:30Z</time>
  <course>0.0</course>
  <speed>0.0</speed>
  <fix>3d</fix>
</trkpt>
<trkpt lat="33.8103131" lon="-118.3938671">
  <ele>-0.126</ele>
  <time>2026-09-02T22:06:30Z</time>
  <course>186.63</course>
  <speed>0.022360679774997897</speed>
  <fix>3d</fix>
</trkpt>
<trkpt lat="33.810313" lon="-118.393867">
  <ele>-0.12</ele>
  <time>2026-09-02T22:06:30Z</time>
  <course>0.0</course>
  <speed>0.0</speed>
  <fix>3d</fix>
</trkpt>
<trkpt lat="33.8103131" lon="-118.3938671">
  <ele>-0.126</ele>
  <time>2026-09-02T22:06:30Z</time>
  <course>186.63</course>
  <speed>0.022360679774997897</speed>
  <fix>3d</fix>
</trkpt>
<trkpt lat="33.810313" lon="-118.393867">
  <ele>-0.12</ele>
  <time>2026-09-02T22:06:30Z</time>
  <course>0.0</course>
  <speed>0.0</speed>
  <fix>3d</fix>
</trkpt>
<trkpt lat="33.8103131" lon="-118.3938671">
  <ele>-0.126</ele>
  <time>2026-09-02T22:06:30Z</time>
  <course>186.62</course>
  <speed>0.022360679774997897</speed>
  <fix>3d</fix>
</trkpt>
<trkpt lat="33.810313" lon="-118.393867">
  <ele>-0.12</ele>
  <time>2026-09-02T22:06:30Z</time>
  <course>0.0</course>
  <speed>0.0</speed>
  <fix>3d</fix>
</trkpt>
<trkpt lat="33.8103131" lon="-118.3938671">
  <ele>-0.127</ele>
  <time>2026-09-02T22:06:30Z</time>
  <course>186.62</course>
  <speed>0.022360679774997897</speed>
  <fix>3d</fix>
</trkpt>
<trkpt lat="33.810313" lon="-118.393867">
  <ele>-0.12</ele>
  <time>2026-09-02T22:06:30Z</time>
  <course>0.0</course>
  <speed>0.0</speed>
  <fix>3d</fix>
</trkpt>
<trkpt lat="33.8103131" lon="-118.3938671">
  <ele>-0.127</ele>
  <time>2026-09-02T22:06:30Z</time>
  <course>186.62</course>
  <speed>0.022360679774997897</speed>
  <fix>3d</fix>
</trkpt>
<trkpt lat="33.810313" lon="-118.393867">
  <ele>-0.12</ele>
  <time>2026-09-02T22:06:30Z</time>
  <course>0.0</course>
  <speed>0.0</speed>
  <fix>3d</fix>
</trkpt>
<trkpt lat="33.8103131" lon="-118.3938671">
  <ele>-0.127</ele>
  <time>2026-09-02T22:06:30Z</time>
  <course>186.62</course>
  <speed>0.022360679774997897</speed>
  <fix>3d</fix>
</trkpt>
<trkpt lat="33.810313" lon="-118.393867">
  <ele>-0.12</ele>
  <time>2026-09-02T22:06:30Z</time>
  <course>0.0</course>
  <speed>0.0</speed>
  <fix>3d</fix>
</trkpt>
<trkpt lat="33.8103131" lon="-118.3938671">
  <ele>-0.127</ele>
  <time>2026-09-02T22:06:30Z</time>
  <course>186.62</course>
  <speed>0.022360679774997897</speed>
  <fix>3d</fix>
</trkpt>
<trkpt lat="33.810313" lon="-118.393867">
  <ele>-0.12</ele>
  <time>2026-09-02T22:06:30Z</time>
  <course>0.0</course>
  <speed>0.0</speed>
  <fix>3d</fix>
</trkpt>
<trkpt lat="33.8103131" lon="-118.3938671">
  <ele>-0.127</ele>
  <time>2026-09-02T22:06:30Z</time>
  <course>186.61</course>
  <speed>0.022360679774997897</speed>
  <fix>3d</fix>
</trkpt>
<trkpt lat="33.810313" lon="-118.393867">
  <ele>-0.12</ele>
  <time>2026-09-02T22:06:30Z</time>
  <course>0.0</course>
  <speed>0.0</speed>
  <fix>3d</fix>
</trkpt>
<trkpt lat="33.8103131" lon="-118.3938671">
  <ele>-0.126</ele>
  <time>2026-09-02T22:06:30Z</time>
  <course>186.61</course>
  <speed>0.022360679774997897</speed>
  <fix>3d</fix>
</trkpt>
<trkpt lat="33.810313" lon="-118.393867">
  <ele>-0.12</ele>
  <time>2026-09-02T22:06:30Z</time>
  <course>0.0</course>
  <speed>0.0</speed>
  <fix>3d</fix>
</trkpt>
<trkpt lat="33.8103131" lon="-118.3938671">
  <ele>-0.125</ele>
  <time>2026-09-02T22:06:30Z</time>
  <course>186.61</course>
  <speed>0.022360679774997897</speed>
  <fix>3d</fix>
</trkpt>
<trkpt lat="33.810313" lon="-118.393867">
  <ele>-0.12</ele>
  <time>2026-09-02T22:06:30Z</time>
  <course>0.0</course>
  <speed>0.0</speed>
  <fix>3d</fix>
</trkpt>
<trkpt lat="33.8103131" lon="-118.3938671">
  <ele>-0.125</ele>
  <time>2026-09-02T22:06:30Z</time>
  <course>186.61</course>
  <speed>0.022360679774997897</speed>
  <fix>3d</fix>
</trkpt>
<trkpt lat="33.810313" lon="-118.393867">
  <ele>-0.12</ele>
  <time>2026-09-02T22:06:30Z</time>
  <course>0.0</course>
  <speed>0.0</speed>
  <fix>3d</fix>
</trkpt>
<trkpt lat="33.8103131" lon="-118.3938671">
  <ele>-0.125</ele>
  <time>2026-09-02T22:06:30Z</time>
  <course>186.6</course>
  <speed>0.022360679774997897</speed>
  <fix>3d</fix>
</trkpt>
<trkpt lat="33.810313" lon="-118.393867">
  <ele>-0.12</ele>
  <time>2026-09-02T22:06:30Z</time>
  <course>0.0</course>
  <speed>0.0</speed>
  <fix>3d</fix>
</trkpt>
<trkpt lat="33.8103131" lon="-118.3938671">
  <ele>-0.126</ele>
  <time>2026-09-02T22:06:30Z</time>
  <course>186.6</course>
  <speed>0.022360679774997897</speed>
  <fix>3d</fix>
</trkpt>
<trkpt lat="33.810313" lon="-118.393867">
  <ele>-0.12</ele>
  <time>2026-09-02T22:06:30Z</time>
  <course>0.0</course>
  <speed>0.0</speed>
  <fix>3d</fix>
</trkpt>
<trkpt lat="33.8103131" lon="-118.3938671">
  <ele>-0.126</ele>
  <time>2026-09-02T22:06:30Z</time>
  <course>186.6</course>
  <speed>0.022360679774997897</speed>
  <fix>3d</fix>
</trkpt>
<trkpt lat="33.810313" lon="-118.393867">
  <ele>-0.12</ele>
  <time>2026-09-02T22:06:30Z</time>
  <course>0.0</course>
  <speed>0.0</speed>
  <fix>3d</fix>
</trkpt>
<trkpt lat="33.8103131" lon="-118.3938671">
  <ele>-0.128</ele>
  <time>2026-09-02T22:06:30Z</time>
  <course>186.6</course>
  <speed>0.022360679774997897</speed>
  <fix>3d</fix>
</trkpt>
<trkpt lat="33.810313" lon="-118.393867">
  <ele>-0.12</ele>
  <time>2026-09-02T22:06:30Z</time>
  <course>0.0</course>
  <speed>0.0</speed>
  <fix>3d</fix>
</trkpt>
<trkpt lat="33.8103131" lon="-118.3938671">
  <ele>-0.13</ele>
  <time>2026-09-02T22:06:30Z</time>
  <course>186.6</course>
  <speed>0.022360679774997897</speed>
  <fix>3d</fix>
</trkpt>
<trkpt lat="33.810313" lon="-118.393867">
  <ele>-0.12</ele>
  <time>2026-09-02T22:06:30Z</time>
  <course>0.0</course>
  <speed>0.0</speed>
  <fix>3d</fix>
</trkpt>
<trkpt lat="33.8103131" lon="-118.3938671">
  <ele>-0.132</ele>
  <time>2026-09-02T22:06:30Z</time>
  <course>186.59</course>
  <speed>0.022360679774997897</speed>
  <fix>3d</fix>
</trkpt>
<trkpt lat="33.810313" lon="-118.393867">
  <ele>-0.12</ele>
  <time>2026-09-02T22:06:30Z</time>
  <course>0.0</course>
  <speed>0.0</speed>
  <fix>3d</fix>
</trkpt>
<trkpt lat="33.8103131" lon="-118.3938671">
  <ele>-0.132</ele>
  <time>2026-09-02T22:06:30Z</time>
  <course>186.59</course>
  <speed>0.022360679774997897</speed>
  <fix>3d</fix>
</trkpt>
<trkpt lat="33.810313" lon="-118.393867">
  <ele>-0.12</ele>
  <time>2026-09-02T22:06:30Z</time>
  <course>0.0</course>
  <speed>0.0</speed>
  <fix>3d</fix>
</trkpt>
<trkpt lat="33.8103131" lon="-118.3938671">
  <ele>-0.132</ele>
  <time>2026-09-02T22:06:30Z</time>
  <course>186.59</course>
  <speed>0.022360679774997897</speed>
  <fix>3d</fix>
</trkpt>
<trkpt lat="33.810313" lon="-118.393867">
  <ele>-0.12</ele>
  <time>2026-09-02T22:06:30Z</time>
  <course>0.0</course>
  <speed>0.0</speed>
  <fix>3d</fix>
</trkpt>
<trkpt lat="33.8103131" lon="-118.3938671">
  <ele>-0.13</ele>
  <time>2026-09-02T22:06:30Z</time>
  <course>186.59</course>
  <speed>0.022360679774997897</speed>
  <fix>3d</fix>
</trkpt>
<trkpt lat="33.810313" lon="-118.393867">
  <ele>-0.12</ele>
  <time>2026-09-02T22:06:30Z</time>
  <course>0.0</course>
  <speed>0.0</speed>
  <fix>3d</fix>
</trkpt>
<trkpt lat="33.8103131" lon="-118.3938671">
  <ele>-0.129</ele>
  <time>2026-09-02T22:06:30Z</time>
  <course>186.59</course>
  <speed>0.022360679774997897</speed>
  <fix>3d</fix>
</trkpt>
<trkpt lat="33.810313" lon="-118.393867">
  <ele>-0.12</ele>
  <time>2026-09-02T22:06:30Z</time>
  <course>0.0</course>
  <speed>0.0</speed>
  <fix>3d</fix>
</trkpt>
<trkpt lat="33.8103131" lon="-118.3938671">
  <ele>-0.129</ele>
  <time>2026-09-02T22:06:30Z</time>
  <course>186.58</course>
  <speed>0.022360679774997897</speed>
  <fix>3d</fix>
</trkpt>
<trkpt lat="33.810313" lon="-118.393867">
  <ele>-0.12</ele>
  <time>2026-09-02T22:06:30Z</time>
  <course>0.0</course>
  <speed>0.0</speed>
  <fix>3d</fix>
</trkpt>
<trkpt lat="33.8103131" lon="-118.3938671">
  <ele>-0.13</ele>
  <time>2026-09-02T22:06:30Z</time>
  <course>186.58</course>
  <speed>0.022360679774997897</speed>
  <fix>3d</fix>
</trkpt>
<trkpt lat="33.810313" lon="-118.393867">
  <ele>-0.12</ele>
  <time>2026-09-02T22:06:30Z</time>
  <course>0.0</course>
  <speed>0.0</speed>
  <fix>3d</fix>
</trkpt>
<trkpt lat="33.8103131" lon="-118.3938671">
  <ele>-0.132</ele>
  <time>2026-09-02T22:06:30Z</time>
  <course>186.58</course>
  <speed>0.022360679774997897</speed>
  <fix>3d</fix>
</trkpt>
<trkpt lat="33.810313" lon="-118.393867">
  <ele>-0.12</ele>
  <time>2026-09-02T22:06:30Z</time>
  <course>0.0</course>
  <speed>0.0</speed>
  <fix>3d</fix>
</trkpt>
<trkpt lat="33.8103131" lon="-118.3938671">
  <ele>-0.133</ele>
  <time>2026-09-02T22:06:30Z</time>
  <course>186.58</course>
  <speed>0.022360679774997897</speed>
  <fix>3d</fix>
</trkpt>
<trkpt lat="33.810313" lon="-118.393867">
  <ele>-0.12</ele>
  <time>2026-09-02T22:06:30Z</time>
  <course>0.0</course>
  <speed>0.0</speed>
  <fix>3d</fix>
</trkpt>
<trkpt lat="33.8103131" lon="-118.3938671">
  <ele>-0.133</ele>
  <time>2026-09-02T22:06:30Z</time>
  <course>186.58</course>
  <speed>0.022360679774997897</speed>
  <fix>3d</fix>
</trkpt>
<trkpt lat="33.810313" lon="-118.393867">
  <ele>-0.12</ele>
  <time>2026-09-02T22:06:30Z</time>
  <course>0.0</course>
  <speed>0.0</speed>
  <fix>3d</fix>
</trkpt>
<trkpt lat="33.8103131" lon="-118.3938671">
  <ele>-0.132</ele>
  <time>2026-09-02T22:06:30Z</time>
  <course>186.57</course>
  <speed>0.022360679774997897</speed>
  <fix>3d</fix>
</trkpt>
<trkpt lat="33.810313" lon="-118.393867">
  <ele>-0.12</ele>
  <time>2026-09-02T22:06:30Z</time>
  <course>0.0</course>
  <speed>0.0</speed>
  <fix>3d</fix>
</trkpt>
<trkpt lat="33.8103131" lon="-118.3938671">
  <ele>-0.13</ele>
  <time>2026-09-02T22:06:30Z</time>
  <course>186.57</course>
  <speed>0.022360679774997897</speed>
  <fix>3d</fix>
</trkpt>
<trkpt lat="33.810313" lon="-118.393867">
  <ele>-0.12</ele>
  <time>2026-09-02T22:06:30Z</time>
  <course>0.0</course>
  <speed>0.0</speed>
  <fix>3d</fix>
</trkpt>
<trkpt lat="33.8103131" lon="-118.3938671">
  <ele>-0.128</ele>
  <time>2026-09-02T22:06:30Z</time>
  <course>186.57</course>
  <speed>0.022360679774997897</speed>
  <fix>3d</fix>
</trkpt>
<trkpt lat="33.810313" lon="-118.393867">
  <ele>-0.12</ele>
  <time>2026-09-02T22:06:30Z</time>
  <course>0.0</course>
  <speed>0.0</speed>
  <fix>3d</fix>
</trkpt>
<trkpt lat="33.8103131" lon="-118.3938671">
  <ele>-0.125</ele>
  <time>2026-09-02T22:06:30Z</time>
  <course>186.57</course>
  <speed>0.022360679774997897</speed>
  <fix>3d</fix>
</trkpt>
<trkpt lat="33.810313" lon="-118.393867">
  <ele>-0.12</ele>
  <time>2026-09-02T22:06:30Z</time>
  <course>0.0</course>
  <speed>0.0</speed>
  <fix>3d</fix>
</trkpt>
<trkpt lat="33.8103131" lon="-118.3938671">
  <ele>-0.124</ele>
  <time>2026-09-02T22:06:30Z</time>
  <course>186.57</course>
  <speed>0.022360679774997897</speed>
  <fix>3d</fix>
</trkpt>
<trkpt lat="33.810313" lon="-118.393867">
  <ele>-0.12</ele>
  <time>2026-09-02T22:06:30Z</time>
  <course>0.0</course>
  <speed>0.0</speed>
  <fix>3d</fix>
</trkpt>
<trkpt lat="33.8103131" lon="-118.3938671">
  <ele>-0.125</ele>
  <time>2026-09-02T22:06:30Z</time>
  <course>186.56</course>
  <speed>0.022360679774997897</speed>
  <fix>3d</fix>
</trkpt>
<trkpt lat="33.810313" lon="-118.393867">
  <ele>-0.12</ele>
  <time>2026-09-02T22:06:30Z</time>
  <course>0.0</course>
  <speed>0.0</speed>
  <fix>3d</fix>
</trkpt>
<trkpt lat="33.8103131" lon="-118.3938671">
  <ele>-0.126</ele>
  <time>2026-09-02T22:06:30Z</time>
  <course>186.56</course>
  <speed>0.022360679774997897</speed>
  <fix>3d</fix>
</trkpt>
<trkpt lat="33.810313" lon="-118.393867">
  <ele>-0.12</ele>
  <time>2026-09-02T22:06:30Z</time>
  <course>0.0</course>
  <speed>0.0</speed>
  <fix>3d</fix>
</trkpt>
<trkpt lat="33.8103131" lon="-118.3938671">
  <ele>-0.126</ele>
  <time>2026-09-02T22:06:30Z</time>
  <course>186.56</course>
  <speed>0.022360679774997897</speed>
  <fix>3d</fix>
</trkpt>
<trkpt lat="33.810313" lon="-118.393867">
  <ele>-0.12</ele>
  <time>2026-09-02T22:06:30Z</time>
  <course>0.0</course>
  <speed>0.0</speed>
  <fix>3d</fix>
</trkpt>
<trkpt lat="33.8103131" lon="-118.3938671">
  <ele>-0.127</ele>
  <time>2026-09-02T22:06:30Z</time>
  <course>186.56</course>
  <speed>0.022360679774997897</speed>
  <fix>3d</fix>
</trkpt>
<trkpt lat="33.810313" lon="-118.393867">
  <ele>-0.12</ele>
  <time>2026-09-02T22:06:30Z</time>
  <course>0.0</course>
  <speed>0.0</speed>
  <fix>3d</fix>
</trkpt>
<trkpt lat="33.8103131" lon="-118.3938671">
  <ele>-0.127</ele>
  <time>2026-09-02T22:06:30Z</time>
  <course>186.56</course>
  <speed>0.022360679774997897</speed>
  <fix>3d</fix>
</trkpt>
<trkpt lat="33.810313" lon="-118.393867">
  <ele>-0.12</ele>
  <time>2026-09-02T22:06:30Z</time>
  <course>0.0</course>
  <speed>0.0</speed>
  <fix>3d</fix>
</trkpt>
<trkpt lat="33.8103131" lon="-118.3938671">
  <ele>-0.126</ele>
  <time>2026-09-02T22:06:30Z</time>
  <course>186.55</course>
  <speed>0.022360679774997897</speed>
  <fix>3d</fix>
</trkpt>
<trkpt lat="33.810313" lon="-118.393867">
  <ele>-0.12</ele>
  <time>2026-09-02T22:06:30Z</time>
  <course>0.0</course>
  <speed>0.0</speed>
  <fix>3d</fix>
</trkpt>
<trkpt lat="33.8103131" lon="-118.3938671">
  <ele>-0.125</ele>
  <time>2026-09-02T22:06:30Z</time>
  <course>186.55</course>
  <speed>0.022360679774997897</speed>
  <fix>3d</fix>
</trkpt>
<trkpt lat="33.810313" lon="-118.393867">
  <ele>-0.12</ele>
  <time>2026-09-02T22:06:30Z</time>
  <course>0.0</course>
  <speed>0.0</speed>
  <fix>3d</fix>
</trkpt>
<trkpt lat="33.8103131" lon="-118.3938671">
  <ele>-0.125</ele>
  <time>2026-09-02T22:06:30Z</time>
  <course>186.55</course>
  <speed>0.022360679774997897</speed>
  <fix>3d</fix>
</trkpt>
<trkpt lat="33.810313" lon="-118.393867">
  <ele>-0.12</ele>
  <time>2026-09-02T22:06:30Z</time>
  <course>0.0</course>
  <speed>0.0</speed>
  <fix>3d</fix>
</trkpt>
<trkpt lat="33.8103131" lon="-118.3938671">
  <ele>-0.125</ele>
  <time>2026-09-02T22:06:30Z</time>
  <course>186.55</course>
  <speed>0.022360679774997897</speed>
  <fix>3d</fix>
</trkpt>
<trkpt lat="33.810313" lon="-118.393867">
  <ele>-0.12</ele>
  <time>2026-09-02T22:06:30Z</time>
  <course>0.0</course>
  <speed>0.0</speed>
  <fix>3d</fix>
</trkpt>
<trkpt lat="33.8103131" lon="-118.3938671">
  <ele>-0.125</ele>
  <time>2026-09-02T22:06:30Z</time>
  <course>186.55</course>
  <speed>0.022360679774997897</speed>
  <fix>3d</fix>
</trkpt>
<trkpt lat="33.810313" lon="-118.393867">
  <ele>-0.12</ele>
  <time>2026-09-02T22:06:30Z</time>
  <course>0.0</course>
  <speed>0.0</speed>
  <fix>3d</fix>
</trkpt>
<trkpt lat="33.8103131" lon="-118.3938671">
  <ele>-0.125</ele>
  <time>2026-09-02T22:06:30Z</time>
  <course>186.55</course>
  <speed>0.022360679774997897</speed>
  <fix>3d</fix>
</trkpt>
<trkpt lat="33.810313" lon="-118.393867">
  <ele>-0.12</ele>
  <time>2026-09-02T22:06:30Z</time>
  <course>0.0</course>
  <speed>0.0</speed>
  <fix>3d</fix>
</trkpt>
<trkpt lat="33.8103131" lon="-118.3938671">
  <ele>-0.124</ele>
  <time>2026-09-02T22:06:30Z</time>
  <course>186.54</course>
  <speed>0.022360679774997897</speed>
  <fix>3d</fix>
</trkpt>
<trkpt lat="33.810313" lon="-118.393867">
  <ele>-0.12</ele>
  <time>2026-09-02T22:06:30Z</time>
  <course>0.0</course>
  <speed>0.0</speed>
  <fix>3d</fix>
</trkpt>
<trkpt lat="33.8103131" lon="-118.3938671">
  <ele>-0.125</ele>
  <time>2026-09-02T22:06:30Z</time>
  <course>186.54</course>
  <speed>0.022360679774997897</speed>
  <fix>3d</fix>
</trkpt>
<trkpt lat="33.810313" lon="-118.393867">
  <ele>-0.12</ele>
  <time>2026-09-02T22:06:30Z</time>
  <course>0.0</course>
  <speed>0.0</speed>
  <fix>3d</fix>
</trkpt>
<trkpt lat="33.8103131" lon="-118.3938671">
  <ele>-0.126</ele>
  <time>2026-09-02T22:06:30Z</time>
  <course>186.54</course>
  <speed>0.022360679774997897</speed>
  <fix>3d</fix>
</trkpt>
<trkpt lat="33.810313" lon="-118.393867">
  <ele>-0.12</ele>
  <time>2026-09-02T22:06:30Z</time>
  <course>0.0</course>
  <speed>0.0</speed>
  <fix>3d</fix>
</trkpt>
<trkpt lat="33.8103131" lon="-118.3938671">
  <ele>-0.126</ele>
  <time>2026-09-02T22:06:30Z</time>
  <course>186.54</course>
  <speed>0.022360679774997897</speed>
  <fix>3d</fix>
</trkpt>
<trkpt lat="33.810313" lon="-118.393867">
  <ele>-0.12</ele>
  <time>2026-09-02T22:06:30Z</time>
  <course>0.0</course>
  <speed>0.0</speed>
  <fix>3d</fix>
</trkpt>
<trkpt lat="33.8103131" lon="-118.3938671">
  <ele>-0.126</ele>
  <time>2026-09-02T22:06:30Z</time>
  <course>186.54</course>
  <speed>0.022360679774997897</speed>
  <fix>3d</fix>
</trkpt>
<trkpt lat="33.810313" lon="-118.393867">
  <ele>-0.12</ele>
  <time>2026-09-02T22:06:30Z</time>
  <course>0.0</course>
  <speed>0.0</speed>
  <fix>3d</fix>
</trkpt>
<trkpt lat="33.8103131" lon="-118.3938671">
  <ele>-0.125</ele>
  <time>2026-09-02T22:06:30Z</time>
  <course>186.53</course>
  <speed>0.022360679774997897</speed>
  <fix>3d</fix>
</trkpt>
<trkpt lat="33.810313" lon="-118.393867">
  <ele>-0.12</ele>
  <time>2026-09-02T22:06:30Z</time>
  <course>0.0</course>
  <speed>0.0</speed>
  <fix>3d</fix>
</trkpt>
<trkpt lat="33.8103131" lon="-118.3938671">
  <ele>-0.124</ele>
  <time>2026-09-02T22:06:30Z</time>
  <course>186.53</course>
  <speed>0.022360679774997897</speed>
  <fix>3d</fix>
</trkpt>
<trkpt lat="33.810313" lon="-118.393867">
  <ele>-0.12</ele>
  <time>2026-09-02T22:06:30Z</time>
  <course>0.0</course>
  <speed>0.0</speed>
  <fix>3d</fix>
</trkpt>
<trkpt lat="33.8103131" lon="-118.3938671">
  <ele>-0.122</ele>
  <time>2026-09-02T22:06:30Z</time>
  <course>186.53</course>
  <speed>0.022360679774997897</speed>
  <fix>3d</fix>
</trkpt>
<trkpt lat="33.810313" lon="-118.393867">
  <ele>-0.12</ele>
  <time>2026-09-02T22:06:30Z</time>
  <course>0.0</course>
  <speed>0.0</speed>
  <fix>3d</fix>
</trkpt>
<trkpt lat="33.8103131" lon="-118.3938671">
  <ele>-0.121</ele>
  <time>2026-09-02T22:06:30Z</time>
  <course>186.53</course>
  <speed>0.022360679774997897</speed>
  <fix>3d</fix>
</trkpt>
<trkpt lat="33.810313" lon="-118.393867">
  <ele>-0.12</ele>
  <time>2026-09-02T22:06:30Z</time>
  <course>0.0</course>
  <speed>0.0</speed>
  <fix>3d</fix>
</trkpt>
<trkpt lat="33.8103131" lon="-118.3938671">
  <ele>-0.12</ele>
  <time>2026-09-02T22:06:30Z</time>
  <course>186.53</course>
  <speed>0.022360679774997897</speed>
  <fix>3d</fix>
</trkpt>
<trkpt lat="33.810313" lon="-118.393867">
  <ele>-0.12</ele>
  <time>2026-09-02T22:06:30Z</time>
  <course>0.0</course>
  <speed>0.0</speed>
  <fix>3d</fix>
</trkpt>
<trkpt lat="33.8103131" lon="-118.3938671">
  <ele>-0.12</ele>
  <time>2026-09-02T22:06:30Z</time>
  <course>186.53</course>
  <speed>0.022360679774997897</speed>
  <fix>3d</fix>
</trkpt>
<trkpt lat="33.810313" lon="-118.393867">
  <ele>-0.12</ele>
  <time>2026-09-02T22:06:30Z</time>
  <course>0.0</course>
  <speed>0.0</speed>
  <fix>3d</fix>
</trkpt>
<trkpt lat="33.8103131" lon="-118.3938671">
  <ele>-0.12</ele>
  <time>2026-09-02T22:06:30Z</time>
  <course>186.52</course>
  <speed>0.022360679774997897</speed>
  <fix>3d</fix>
</trkpt>
<trkpt lat="33.810313" lon="-118.393867">
  <ele>-0.12</ele>
  <time>2026-09-02T22:06:30Z</time>
  <course>0.0</course>
  <speed>0.0</speed>
  <fix>3d</fix>
</trkpt>
<trkpt lat="33.8103131" lon="-118.3938671">
  <ele>-0.12</ele>
  <time>2026-09-02T22:06:30Z</time>
  <course>186.52</course>
  <speed>0.022360679774997897</speed>
  <fix>3d</fix>
</trkpt>
<trkpt lat="33.810313" lon="-118.393867">
  <ele>-0.12</ele>
  <time>2026-09-02T22:06:30Z</time>
  <course>0.0</course>
  <speed>0.0</speed>
  <fix>3d</fix>
</trkpt>
<trkpt lat="33.8103131" lon="-118.3938671">
  <ele>-0.121</ele>
  <time>2026-09-02T22:06:30Z</time>
  <course>186.52</course>
  <speed>0.022360679774997897</speed>
  <fix>3d</fix>
</trkpt>
<trkpt lat="33.810313" lon="-118.393867">
  <ele>-0.12</ele>
  <time>2026-09-02T22:06:30Z</time>
  <course>0.0</course>
  <speed>0.0</speed>
  <fix>3d</fix>
</trkpt>
<trkpt lat="33.8103131" lon="-118.3938671">
  <ele>-0.122</ele>
  <time>2026-09-02T22:06:30Z</time>
  <course>186.52</course>
  <speed>0.022360679774997897</speed>
  <fix>3d</fix>
</trkpt>
<trkpt lat="33.810313" lon="-118.393867">
  <ele>-0.12</ele>
  <time>2026-09-02T22:06:30Z</time>
  <course>0.0</course>
  <speed>0.0</speed>
  <fix>3d</fix>
</trkpt>
<trkpt lat="33.8103131" lon="-118.3938671">
  <ele>-0.122</ele>
  <time>2026-09-02T22:06:30Z</time>
  <course>186.52</course>
  <speed>0.022360679774997897</speed>
  <fix>3d</fix>
</trkpt>
<trkpt lat="33.810313" lon="-118.393867">
  <ele>-0.12</ele>
  <time>2026-09-02T22:06:30Z</time>
  <course>0.0</course>
  <speed>0.0</speed>
  <fix>3d</fix>
</trkpt>
<trkpt lat="33.8103131" lon="-118.3938671">
  <ele>-0.122</ele>
  <time>2026-09-02T22:06:30Z</time>
  <course>186.52</course>
  <speed>0.022360679774997897</speed>
  <fix>3d</fix>
</trkpt>
<trkpt lat="33.810313" lon="-118.393867">
  <ele>-0.12</ele>
  <time>2026-09-02T22:06:30Z</time>
  <course>0.0</course>
  <speed>0.0</speed>
  <fix>3d</fix>
</trkpt>
<trkpt lat="33.8103131" lon="-118.3938671">
  <ele>-0.122</ele>
  <time>2026-09-02T22:06:30Z</time>
  <course>186.52</course>
  <speed>0.022360679774997897</speed>
  <fix>3d</fix>
</trkpt>
<trkpt lat="33.810313" lon="-118.393867">
  <ele>-0.12</ele>
  <time>2026-09-02T22:06:30Z</time>
  <course>0.0</course>
  <speed>0.0</speed>
  <fix>3d</fix>
</trkpt>
<trkpt lat="33.8103131" lon="-118.3938671">
  <ele>-0.121</ele>
  <time>2026-09-02T22:06:30Z</time>
  <course>186.51</course>
  <speed>0.022360679774997897</speed>
  <fix>3d</fix>
</trkpt>
<trkpt lat="33.810313" lon="-118.393867">
  <ele>-0.12</ele>
  <time>2026-09-02T22:06:30Z</time>
  <course>0.0</course>
  <speed>0.0</speed>
  <fix>3d</fix>
</trkpt>
<trkpt lat="33.8103131" lon="-118.3938671">
  <ele>-0.121</ele>
  <time>2026-09-02T22:06:30Z</time>
  <course>186.51</course>
  <speed>0.022360679774997897</speed>
  <fix>3d</fix>
</trkpt>
<trkpt lat="33.810313" lon="-118.393867">
  <ele>-0.12</ele>
  <time>2026-09-02T22:06:30Z</time>
  <course>0.0</course>
  <speed>0.0</speed>
  <fix>3d</fix>
</trkpt>
<trkpt lat="33.8103131" lon="-118.3938671">
  <ele>-0.122</ele>
  <time>2026-09-02T22:06:30Z</time>
  <course>186.51</course>
  <speed>0.022360679774997897</speed>
  <fix>3d</fix>
</trkpt>
<trkpt lat="33.810313" lon="-118.393867">
  <ele>-0.12</ele>
  <time>2026-09-02T22:06:30Z</time>
  <course>0.0</course>
  <speed>0.0</speed>
  <fix>3d</fix>
</trkpt>
<trkpt lat="33.8103131" lon="-118.3938671">
  <ele>-0.125</ele>
  <time>2026-09-02T22:06:30Z</time>
  <course>186.51</course>
  <speed>0.022360679774997897</speed>
  <fix>3d</fix>
</trkpt>
<trkpt lat="33.810313" lon="-118.393867">
  <ele>-0.12</ele>
  <time>2026-09-02T22:06:30Z</time>
  <course>0.0</course>
  <speed>0.0</speed>
  <fix>3d</fix>
</trkpt>
<trkpt lat="33.8103131" lon="-118.3938671">
  <ele>-0.127</ele>
  <time>2026-09-02T22:06:30Z</time>
  <course>186.51</course>
  <speed>0.022360679774997897</speed>
  <fix>3d</fix>
</trkpt>
<trkpt lat="33.810313" lon="-118.393867">
  <ele>-0.12</ele>
  <time>2026-09-02T22:06:30Z</time>
  <course>0.0</course>
  <speed>0.0</speed>
  <fix>3d</fix>
</trkpt>
<trkpt lat="33.8103131" lon="-118.3938671">
  <ele>-0.13</ele>
  <time>2026-09-02T22:06:30Z</time>
  <course>186.51</course>
  <speed>0.022360679774997897</speed>
  <fix>3d</fix>
</trkpt>
<trkpt lat="33.810313" lon="-118.393867">
  <ele>-0.12</ele>
  <time>2026-09-02T22:06:30Z</time>
  <course>0.0</course>
  <speed>0.0</speed>
  <fix>3d</fix>
</trkpt>
<trkpt lat="33.8103131" lon="-118.3938671">
  <ele>-0.132</ele>
  <time>2026-09-02T22:06:30Z</time>
  <course>186.5</course>
  <speed>0.022360679774997897</speed>
  <fix>3d</fix>
</trkpt>
<trkpt lat="33.810313" lon="-118.393867">
  <ele>-0.12</ele>
  <time>2026-09-02T22:06:30Z</time>
  <course>0.0</course>
  <speed>0.0</speed>
  <fix>3d</fix>
</trkpt>
<trkpt lat="33.8103131" lon="-118.3938671">
  <ele>-0.133</ele>
  <time>2026-09-02T22:06:30Z</time>
  <course>186.5</course>
  <speed>0.022360679774997897</speed>
  <fix>3d</fix>
</trkpt>
<trkpt lat="33.810313" lon="-118.393867">
  <ele>-0.12</ele>
  <time>2026-09-02T22:06:30Z</time>
  <course>0.0</course>
  <speed>0.0</speed>
  <fix>3d</fix>
</trkpt>
<trkpt lat="33.8103131" lon="-118.3938671">
  <ele>-0.133</ele>
  <time>2026-09-02T22:06:30Z</time>
  <course>186.5</course>
  <speed>0.022360679774997897</speed>
  <fix>3d</fix>
</trkpt>
<trkpt lat="33.810313" lon="-118.393867">
  <ele>-0.12</ele>
  <time>2026-09-02T22:06:30Z</time>
  <course>0.0</course>
  <speed>0.0</speed>
  <fix>3d</fix>
</trkpt>
<trkpt lat="33.8103131" lon="-118.3938671">
  <ele>-0.133</ele>
  <time>2026-09-02T22:06:30Z</time>
  <course>186.5</course>
  <speed>0.022360679774997897</speed>
  <fix>3d</fix>
</trkpt>
<trkpt lat="33.810313" lon="-118.393867">
  <ele>-0.12</ele>
  <time>2026-09-02T22:06:30Z</time>
  <course>0.0</course>
  <speed>0.0</speed>
  <fix>3d</fix>
</trkpt>
<trkpt lat="33.8103131" lon="-118.3938671">
  <ele>-0.133</ele>
  <time>2026-09-02T22:06:30Z</time>
  <course>186.5</course>
  <speed>0.022360679774997897</speed>
  <fix>3d</fix>
</trkpt>
<trkpt lat="33.810313" lon="-118.393867">
  <ele>-0.12</ele>
  <time>2026-09-02T22:06:30Z</time>
  <course>0.0</course>
  <speed>0.0</speed>
  <fix>3d</fix>
</trkpt>
<trkpt lat="33.8103131" lon="-118.3938671">
  <ele>-0.133</ele>
  <time>2026-09-02T22:06:30Z</time>
  <course>186.5</course>
  <speed>0.022360679774997897</speed>
  <fix>3d</fix>
</trkpt>
<trkpt lat="33.810313" lon="-118.393867">
  <ele>-0.12</ele>
  <time>2026-09-02T22:06:30Z</time>
  <course>0.0</course>
  <speed>0.0</speed>
  <fix>3d</fix>
</trkpt>
<trkpt lat="33.8103131" lon="-118.3938671">
  <ele>-0.134</ele>
  <time>2026-09-02T22:06:30Z</time>
  <course>186.49</course>
  <speed>0.022360679774997897</speed>
  <fix>3d</fix>
</trkpt>
<trkpt lat="33.810313" lon="-118.393867">
  <ele>-0.12</ele>
  <time>2026-09-02T22:06:30Z</time>
  <course>0.0</course>
  <speed>0.0</speed>
  <fix>3d</fix>
</trkpt>
<trkpt lat="33.8103131" lon="-118.3938671">
  <ele>-0.134</ele>
  <time>2026-09-02T22:06:30Z</time>
  <course>186.49</course>
  <speed>0.022360679774997897</speed>
  <fix>3d</fix>
</trkpt>
<trkpt lat="33.810313" lon="-118.393867">
  <ele>-0.12</ele>
  <time>2026-09-02T22:06:30Z</time>
  <course>0.0</course>
  <speed>0.0</speed>
  <fix>3d</fix>
</trkpt>
<trkpt lat="33.8103131" lon="-118.3938671">
  <ele>-0.134</ele>
  <time>2026-09-02T22:06:30Z</time>
  <course>186.49</course>
  <speed>0.022360679774997897</speed>
  <fix>3d</fix>
</trkpt>
<trkpt lat="33.810313" lon="-118.393867">
  <ele>-0.12</ele>
  <time>2026-09-02T22:06:30Z</time>
  <course>0.0</course>
  <speed>0.0</speed>
  <fix>3d</fix>
</trkpt>
<trkpt lat="33.8103131" lon="-118.3938671">
  <ele>-0.134</ele>
  <time>2026-09-02T22:06:30Z</time>
  <course>186.49</course>
  <speed>0.022360679774997897</speed>
  <fix>3d</fix>
</trkpt>
<trkpt lat="33.810313" lon="-118.393867">
  <ele>-0.12</ele>
  <time>2026-09-02T22:06:30Z</time>
  <course>0.0</course>
  <speed>0.0</speed>
  <fix>3d</fix>
</trkpt>
<trkpt lat="33.8103131" lon="-118.3938671">
  <ele>-0.133</ele>
  <time>2026-09-02T22:06:30Z</time>
  <course>186.49</course>
  <speed>0.022360679774997897</speed>
  <fix>3d</fix>
</trkpt>
<trkpt lat="33.810313" lon="-118.393867">
  <ele>-0.12</ele>
  <time>2026-09-02T22:06:30Z</time>
  <course>0.0</course>
  <speed>0.0</speed>
  <fix>3d</fix>
</trkpt>
<trkpt lat="33.8103131" lon="-118.3938671">
  <ele>-0.132</ele>
  <time>2026-09-02T22:06:30Z</time>
  <course>186.49</course>
  <speed>0.022360679774997897</speed>
  <fix>3d</fix>
</trkpt>
<trkpt lat="33.810313" lon="-118.393867">
  <ele>-0.12</ele>
  <time>2026-09-02T22:06:30Z</time>
  <course>0.0</course>
  <speed>0.0</speed>
  <fix>3d</fix>
</trkpt>
<trkpt lat="33.8103131" lon="-118.3938671">
  <ele>-0.129</ele>
  <time>2026-09-02T22:06:30Z</time>
  <course>186.48</course>
  <speed>0.022360679774997897</speed>
  <fix>3d</fix>
</trkpt>
<trkpt lat="33.810313" lon="-118.393867">
  <ele>-0.12</ele>
  <time>2026-09-02T22:06:30Z</time>
  <course>0.0</course>
  <speed>0.0</speed>
  <fix>3d</fix>
</trkpt>
<trkpt lat="33.8103131" lon="-118.3938671">
  <ele>-0.126</ele>
  <time>2026-09-02T22:06:30Z</time>
  <course>186.48</course>
  <speed>0.022360679774997897</speed>
  <fix>3d</fix>
</trkpt>
<trkpt lat="33.810313" lon="-118.393867">
  <ele>-0.12</ele>
  <time>2026-09-02T22:06:30Z</time>
  <course>0.0</course>
  <speed>0.0</speed>
  <fix>3d</fix>
</trkpt>
<trkpt lat="33.8103131" lon="-118.3938671">
  <ele>-0.122</ele>
  <time>2026-09-02T22:06:30Z</time>
  <course>186.48</course>
  <speed>0.022360679774997897</speed>
  <fix>3d</fix>
</trkpt>
<trkpt lat="33.810313" lon="-118.393867">
  <ele>-0.12</ele>
  <time>2026-09-02T22:06:30Z</time>
  <course>0.0</course>
  <speed>0.0</speed>
  <fix>3d</fix>
</trkpt>
<trkpt lat="33.8103131" lon="-118.3938671">
  <ele>-0.12</ele>
  <time>2026-09-02T22:06:30Z</time>
  <course>186.48</course>
  <speed>0.022360679774997897</speed>
  <fix>3d</fix>
</trkpt>
<trkpt lat="33.810313" lon="-118.393867">
  <ele>-0.12</ele>
  <time>2026-09-02T22:06:30Z</time>
  <course>0.0</course>
  <speed>0.0</speed>
  <fix>3d</fix>
</trkpt>
<trkpt lat="33.8103131" lon="-118.3938671">
  <ele>-0.12</ele>
  <time>2026-09-02T22:06:30Z</time>
  <course>186.48</course>
  <speed>0.022360679774997897</speed>
  <fix>3d</fix>
</trkpt>
<trkpt lat="33.810313" lon="-118.393867">
  <ele>-0.12</ele>
  <time>2026-09-02T22:06:30Z</time>
  <course>0.0</course>
  <speed>0.0</speed>
  <fix>3d</fix>
</trkpt>
<trkpt lat="33.8103131" lon="-118.3938671">
  <ele>-0.119</ele>
  <time>2026-09-02T22:06:30Z</time>
  <course>186.48</course>
  <speed>0.022360679774997897</speed>
  <fix>3d</fix>
</trkpt>
<trkpt lat="33.810313" lon="-118.393867">
  <ele>-0.12</ele>
  <time>2026-09-02T22:06:30Z</time>
  <course>0.0</course>
  <speed>0.0</speed>
  <fix>3d</fix>
</trkpt>
<trkpt lat="33.8103131" lon="-118.3938671">
  <ele>-0.12</ele>
  <time>2026-09-02T22:06:30Z</time>
  <course>186.47</course>
  <speed>0.022360679774997897</speed>
  <fix>3d</fix>
</trkpt>
<trkpt lat="33.810313" lon="-118.393867">
  <ele>-0.12</ele>
  <time>2026-09-02T22:06:30Z</time>
  <course>0.0</course>
  <speed>0.0</speed>
  <fix>3d</fix>
</trkpt>
<trkpt lat="33.8103131" lon="-118.3938671">
  <ele>-0.12</ele>
  <time>2026-09-02T22:06:30Z</time>
  <course>186.47</course>
  <speed>0.022360679774997897</speed>
  <fix>3d</fix>
</trkpt>
<trkpt lat="33.810313" lon="-118.393867">
  <ele>-0.12</ele>
  <time>2026-09-02T22:06:30Z</time>
  <course>0.0</course>
  <speed>0.0</speed>
  <fix>3d</fix>
</trkpt>
<trkpt lat="33.8103131" lon="-118.3938671">
  <ele>-0.119</ele>
  <time>2026-09-02T22:06:30Z</time>
  <course>186.47</course>
  <speed>0.022360679774997897</speed>
  <fix>3d</fix>
</trkpt>
<trkpt lat="33.810313" lon="-118.393867">
  <ele>-0.12</ele>
  <time>2026-09-02T22:06:30Z</time>
  <course>0.0</course>
  <speed>0.0</speed>
  <fix>3d</fix>
</trkpt>
<trkpt lat="33.8103131" lon="-118.3938671">
  <ele>-0.119</ele>
  <time>2026-09-02T22:06:30Z</time>
  <course>186.47</course>
  <speed>0.022360679774997897</speed>
  <fix>3d</fix>
</trkpt>
<trkpt lat="33.810313" lon="-118.393867">
  <ele>-0.12</ele>
  <time>2026-09-02T22:06:30Z</time>
  <course>0.0</course>
  <speed>0.0</speed>
  <fix>3d</fix>
</trkpt>
<trkpt lat="33.8103131" lon="-118.3938671">
  <ele>-0.119</ele>
  <time>2026-09-02T22:06:30Z</time>
  <course>186.47</course>
  <speed>0.022360679774997897</speed>
  <fix>3d</fix>
</trkpt>
<trkpt lat="33.810313" lon="-118.393867">
  <ele>-0.12</ele>
  <time>2026-09-02T22:06:30Z</time>
  <course>0.0</course>
  <speed>0.0</speed>
  <fix>3d</fix>
</trkpt>
<trkpt lat="33.8103131" lon="-118.3938671">
  <ele>-0.118</ele>
  <time>2026-09-02T22:06:30Z</time>
  <course>186.47</course>
  <speed>0.022360679774997897</speed>
  <fix>3d</fix>
</trkpt>
<trkpt lat="33.810313" lon="-118.393867">
  <ele>-0.12</ele>
  <time>2026-09-02T22:06:30Z</time>
  <course>0.0</course>
  <speed>0.0</speed>
  <fix>3d</fix>
</trkpt>
<trkpt lat="33.8103131" lon="-118.3938671">
  <ele>-0.117</ele>
  <time>2026-09-02T22:06:30Z</time>
  <course>186.47</course>
  <speed>0.022360679774997897</speed>
  <fix>3d</fix>
</trkpt>
<trkpt lat="33.810313" lon="-118.393867">
  <ele>-0.12</ele>
  <time>2026-09-02T22:06:30Z</time>
  <course>0.0</course>
  <speed>0.0</speed>
  <fix>3d</fix>
</trkpt>
<trkpt lat="33.8103131" lon="-118.3938671">
  <ele>-0.116</ele>
  <time>2026-09-02T22:06:30Z</time>
  <course>186.46</course>
  <speed>0.022360679774997897</speed>
  <fix>3d</fix>
</trkpt>
<trkpt lat="33.810313" lon="-118.393867">
  <ele>-0.12</ele>
  <time>2026-09-02T22:06:30Z</time>
  <course>0.0</course>
  <speed>0.0</speed>
  <fix>3d</fix>
</trkpt>
<trkpt lat="33.8103131" lon="-118.3938671">
  <ele>-0.116</ele>
  <time>2026-09-02T22:06:30Z</time>
  <course>186.46</course>
  <speed>0.022360679774997897</speed>
  <fix>3d</fix>
</trkpt>
<trkpt lat="33.810313" lon="-118.393867">
  <ele>-0.12</ele>
  <time>2026-09-02T22:06:30Z</time>
  <course>0.0</course>
  <speed>0.0</speed>
  <fix>3d</fix>
</trkpt>
<trkpt lat="33.8103131" lon="-118.3938671">
  <ele>-0.117</ele>
  <time>2026-09-02T22:06:30Z</time>
  <course>186.46</course>
  <speed>0.022360679774997897</speed>
  <fix>3d</fix>
</trkpt>
<trkpt lat="33.810313" lon="-118.393867">
  <ele>-0.12</ele>
  <time>2026-09-02T22:06:30Z</time>
  <course>0.0</course>
  <speed>0.0</speed>
  <fix>3d</fix>
</trkpt>
<trkpt lat="33.8103131" lon="-118.3938671">
  <ele>-0.118</ele>
  <time>2026-09-02T22:06:30Z</time>
  <course>186.46</course>
  <speed>0.022360679774997897</speed>
  <fix>3d</fix>
</trkpt>
<trkpt lat="33.810313" lon="-118.393867">
  <ele>-0.12</ele>
  <time>2026-09-02T22:06:30Z</time>
  <course>0.0</course>
  <speed>0.0</speed>
  <fix>3d</fix>
</trkpt>
<trkpt lat="33.8103131" lon="-118.3938671">
  <ele>-0.12</ele>
  <time>2026-09-02T22:06:30Z</time>
  <course>186.46</course>
  <speed>0.022360679774997897</speed>
  <fix>3d</fix>
</trkpt>
<trkpt lat="33.810313" lon="-118.393867">
  <ele>-0.12</ele>
  <time>2026-09-02T22:06:30Z</time>
  <course>0.0</course>
  <speed>0.0</speed>
  <fix>3d</fix>
</trkpt>
<trkpt lat="33.8103131" lon="-118.3938671">
  <ele>-0.121</ele>
  <time>2026-09-02T22:06:30Z</time>
  <course>186.46</course>
  <speed>0.022360679774997897</speed>
  <fix>3d</fix>
</trkpt>
<trkpt lat="33.810313" lon="-118.393867">
  <ele>-0.12</ele>
  <time>2026-09-02T22:06:30Z</time>
  <course>0.0</course>
  <speed>0.0</speed>
  <fix>3d</fix>
</trkpt>
<trkpt lat="33.8103131" lon="-118.3938671">
  <ele>-0.121</ele>
  <time>2026-09-02T22:06:30Z</time>
  <course>186.46</course>
  <speed>0.022360679774997897</speed>
  <fix>3d</fix>
</trkpt>
<trkpt lat="33.810313" lon="-118.393867">
  <ele>-0.12</ele>
  <time>2026-09-02T22:06:30Z</time>
  <course>0.0</course>
  <speed>0.0</speed>
  <fix>3d</fix>
</trkpt>
<trkpt lat="33.8103131" lon="-118.3938671">
  <ele>-0.12</ele>
  <time>2026-09-02T22:06:30Z</time>
  <course>186.45</course>
  <speed>0.022360679774997897</speed>
  <fix>3d</fix>
</trkpt>
<trkpt lat="33.810313" lon="-118.393867">
  <ele>-0.12</ele>
  <time>2026-09-02T22:06:30Z</time>
  <course>0.0</course>
  <speed>0.0</speed>
  <fix>3d</fix>
</trkpt>
<trkpt lat="33.8103131" lon="-118.3938671">
  <ele>-0.119</ele>
  <time>2026-09-02T22:06:30Z</time>
  <course>186.45</course>
  <speed>0.022360679774997897</speed>
  <fix>3d</fix>
</trkpt>
<trkpt lat="33.810313" lon="-118.393867">
  <ele>-0.12</ele>
  <time>2026-09-02T22:06:30Z</time>
  <course>0.0</course>
  <speed>0.0</speed>
  <fix>3d</fix>
</trkpt>
<trkpt lat="33.8103131" lon="-118.3938671">
  <ele>-0.118</ele>
  <time>2026-09-02T22:06:30Z</time>
  <course>186.45</course>
  <speed>0.022360679774997897</speed>
  <fix>3d</fix>
</trkpt>
<trkpt lat="33.810313" lon="-118.393867">
  <ele>-0.12</ele>
  <time>2026-09-02T22:06:30Z</time>
  <course>0.0</course>
  <speed>0.0</speed>
  <fix>3d</fix>
</trkpt>
<trkpt lat="33.8103131" lon="-118.3938671">
  <ele>-0.118</ele>
  <time>2026-09-02T22:06:30Z</time>
  <course>186.45</course>
  <speed>0.022360679774997897</speed>
  <fix>3d</fix>
</trkpt>
<trkpt lat="33.810313" lon="-118.393867">
  <ele>-0.12</ele>
  <time>2026-09-02T22:06:30Z</time>
  <course>0.0</course>
  <speed>0.0</speed>
  <fix>3d</fix>
</trkpt>
<trkpt lat="33.8103131" lon="-118.3938671">
  <ele>-0.119</ele>
  <time>2026-09-02T22:06:30Z</time>
  <course>186.45</course>
  <speed>0.022360679774997897</speed>
  <fix>3d</fix>
</trkpt>
<trkpt lat="33.810313" lon="-118.393867">
  <ele>-0.12</ele>
  <time>2026-09-02T22:06:30Z</time>
  <course>0.0</course>
  <speed>0.0</speed>
  <fix>3d</fix>
</trkpt>
<trkpt lat="33.8103132" lon="-118.3938671">
  <ele>-0.12</ele>
  <time>2026-09-02T22:06:30Z</time>
  <course>186.45</course>
  <speed>0.022360679774997897</speed>
  <fix>3d</fix>
</trkpt>
<trkpt lat="33.810313" lon="-118.393867">
  <ele>-0.12</ele>
  <time>2026-09-02T22:06:30Z</time>
  <course>0.0</course>
  <speed>0.0</speed>
  <fix>3d</fix>
</trkpt>
<trkpt lat="33.8103131" lon="-118.3938671">
  <ele>-0.121</ele>
  <time>2026-09-02T22:06:30Z</time>
  <course>186.45</course>
  <speed>0.022360679774997897</speed>
  <fix>3d</fix>
</trkpt>
<trkpt lat="33.810313" lon="-118.393867">
  <ele>-0.12</ele>
  <time>2026-09-02T22:06:30Z</time>
  <course>0.0</course>
  <speed>0.0</speed>
  <fix>3d</fix>
</trkpt>
<trkpt lat="33.8103132" lon="-118.3938671">
  <ele>-0.123</ele>
  <time>2026-09-02T22:06:30Z</time>
  <course>186.44</course>
  <speed>0.022360679774997897</speed>
  <fix>3d</fix>
</trkpt>
<trkpt lat="33.810313" lon="-118.393867">
  <ele>-0.12</ele>
  <time>2026-09-02T22:06:30Z</time>
  <course>0.0</course>
  <speed>0.0</speed>
  <fix>3d</fix>
</trkpt>
<trkpt lat="33.8103131" lon="-118.3938671">
  <ele>-0.125</ele>
  <time>2026-09-02T22:06:30Z</time>
  <course>186.44</course>
  <speed>0.022360679774997897</speed>
  <fix>3d</fix>
</trkpt>
<trkpt lat="33.810313" lon="-118.393867">
  <ele>-0.12</ele>
  <time>2026-09-02T22:06:30Z</time>
  <course>0.0</course>
  <speed>0.0</speed>
  <fix>3d</fix>
</trkpt>
<trkpt lat="33.8103132" lon="-118.3938671">
  <ele>-0.126</ele>
  <time>2026-09-02T22:06:30Z</time>
  <course>186.44</course>
  <speed>0.022360679774997897</speed>
  <fix>3d</fix>
</trkpt>
<trkpt lat="33.810313" lon="-118.393867">
  <ele>-0.12</ele>
  <time>2026-09-02T22:06:30Z</time>
  <course>0.0</course>
  <speed>0.0</speed>
  <fix>3d</fix>
</trkpt>
<trkpt lat="33.8103131" lon="-118.3938671">
  <ele>-0.127</ele>
  <time>2026-09-02T22:06:30Z</time>
  <course>186.44</course>
  <speed>0.022360679774997897</speed>
  <fix>3d</fix>
</trkpt>
<trkpt lat="33.810313" lon="-118.393867">
  <ele>-0.12</ele>
  <time>2026-09-02T22:06:30Z</time>
  <course>0.0</course>
  <speed>0.0</speed>
  <fix>3d</fix>
</trkpt>
<trkpt lat="33.8103132" lon="-118.3938671">
  <ele>-0.128</ele>
  <time>2026-09-02T22:06:30Z</time>
  <course>186.44</course>
  <speed>0.022360679774997897</speed>
  <fix>3d</fix>
</trkpt>
<trkpt lat="33.810313" lon="-118.393867">
  <ele>-0.12</ele>
  <time>2026-09-02T22:06:30Z</time>
  <course>0.0</course>
  <speed>0.0</speed>
  <fix>3d</fix>
</trkpt>
<trkpt lat="33.8103131" lon="-118.3938671">
  <ele>-0.13</ele>
  <time>2026-09-02T22:06:30Z</time>
  <course>186.44</course>
  <speed>0.022360679774997897</speed>
  <fix>3d</fix>
</trkpt>
<trkpt lat="33.810313" lon="-118.393867">
  <ele>-0.12</ele>
  <time>2026-09-02T22:06:30Z</time>
  <course>0.0</course>
  <speed>0.0</speed>
  <fix>3d</fix>
</trkpt>
<trkpt lat="33.8103132" lon="-118.3938671">
  <ele>-0.131</ele>
  <time>2026-09-02T22:06:30Z</time>
  <course>186.44</course>
  <speed>0.022360679774997897</speed>
  <fix>3d</fix>
</trkpt>
<trkpt lat="33.810313" lon="-118.393867">
  <ele>-0.12</ele>
  <time>2026-09-02T22:06:30Z</time>
  <course>0.0</course>
  <speed>0.0</speed>
  <fix>3d</fix>
</trkpt>
<trkpt lat="33.8103131" lon="-118.3938671">
  <ele>-0.133</ele>
  <time>2026-09-02T22:06:30Z</time>
  <course>186.43</course>
  <speed>0.022360679774997897</speed>
  <fix>3d</fix>
</trkpt>
<trkpt lat="33.810313" lon="-118.393867">
  <ele>-0.12</ele>
  <time>2026-09-02T22:06:30Z</time>
  <course>0.0</course>
  <speed>0.0</speed>
  <fix>3d</fix>
</trkpt>
<trkpt lat="33.8103132" lon="-118.3938671">
  <ele>-0.135</ele>
  <time>2026-09-02T22:06:30Z</time>
  <course>186.43</course>
  <speed>0.022360679774997897</speed>
  <fix>3d</fix>
</trkpt>
<trkpt lat="33.810313" lon="-118.393867">
  <ele>-0.12</ele>
  <time>2026-09-02T22:06:30Z</time>
  <course>0.0</course>
  <speed>0.0</speed>
  <fix>3d</fix>
</trkpt>
<trkpt lat="33.8103131" lon="-118.3938671">
  <ele>-0.136</ele>
  <time>2026-09-02T22:06:30Z</time>
  <course>186.43</course>
  <speed>0.022360679774997897</speed>
  <fix>3d</fix>
</trkpt>
<trkpt lat="33.810313" lon="-118.393867">
  <ele>-0.12</ele>
  <time>2026-09-02T22:06:30Z</time>
  <course>0.0</course>
  <speed>0.0</speed>
  <fix>3d</fix>
</trkpt>
<trkpt lat="33.8103132" lon="-118.3938671">
  <ele>-0.137</ele>
  <time>2026-09-02T22:06:30Z</time>
  <course>186.43</course>
  <speed>0.022360679774997897</speed>
  <fix>3d</fix>
</trkpt>
<trkpt lat="33.810313" lon="-118.393867">
  <ele>-0.12</ele>
  <time>2026-09-02T22:06:30Z</time>
  <course>0.0</course>
  <speed>0.0</speed>
  <fix>3d</fix>
</trkpt>
<trkpt lat="33.8103132" lon="-118.3938671">
  <ele>-0.138</ele>
  <time>2026-09-02T22:06:30Z</time>
  <course>186.43</course>
  <speed>0.022360679774997897</speed>
  <fix>3d</fix>
</trkpt>
<trkpt lat="33.810313" lon="-118.393867">
  <ele>-0.12</ele>
  <time>2026-09-02T22:06:30Z</time>
  <course>0.0</course>
  <speed>0.0</speed>
  <fix>3d</fix>
</trkpt>
<trkpt lat="33.8103132" lon="-118.3938671">
  <ele>-0.138</ele>
  <time>2026-09-02T22:06:30Z</time>
  <course>186.43</course>
  <speed>0.022360679774997897</speed>
  <fix>3d</fix>
</trkpt>
<trkpt lat="33.810313" lon="-118.393867">
  <ele>-0.12</ele>
  <time>2026-09-02T22:06:30Z</time>
  <course>0.0</course>
  <speed>0.0</speed>
  <fix>3d</fix>
</trkpt>
<trkpt lat="33.8103132" lon="-118.3938671">
  <ele>-0.136</ele>
  <time>2026-09-02T22:06:30Z</time>
  <course>186.43</course>
  <speed>0.022360679774997897</speed>
  <fix>3d</fix>
</trkpt>
<trkpt lat="33.810313" lon="-118.393867">
  <ele>-0.12</ele>
  <time>2026-09-02T22:06:30Z</time>
  <course>0.0</course>
  <speed>0.0</speed>
  <fix>3d</fix>
</trkpt>
<trkpt lat="33.8103132" lon="-118.3938671">
  <ele>-0.134</ele>
  <time>2026-09-02T22:06:30Z</time>
  <course>186.43</course>
  <speed>0.022360679774997897</speed>
  <fix>3d</fix>
</trkpt>
<trkpt lat="33.810313" lon="-118.393867">
  <ele>-0.12</ele>
  <time>2026-09-02T22:06:30Z</time>
  <course>0.0</course>
  <speed>0.0</speed>
  <fix>3d</fix>
</trkpt>
<trkpt lat="33.8103132" lon="-118.3938671">
  <ele>-0.133</ele>
  <time>2026-09-02T22:06:30Z</time>
  <course>186.42</course>
  <speed>0.022360679774997897</speed>
  <fix>3d</fix>
</trkpt>
<trkpt lat="33.810313" lon="-118.393867">
  <ele>-0.12</ele>
  <time>2026-09-02T22:06:30Z</time>
  <course>0.0</course>
  <speed>0.0</speed>
  <fix>3d</fix>
</trkpt>
<trkpt lat="33.8103132" lon="-118.3938671">
  <ele>-0.133</ele>
  <time>2026-09-02T22:06:30Z</time>
  <course>186.42</course>
  <speed>0.022360679774997897</speed>
  <fix>3d</fix>
</trkpt>
<trkpt lat="33.810313" lon="-118.393867">
  <ele>-0.12</ele>
  <time>2026-09-02T22:06:30Z</time>
  <course>0.0</course>
  <speed>0.0</speed>
  <fix>3d</fix>
</trkpt>
<trkpt lat="33.8103132" lon="-118.3938671">
  <ele>-0.132</ele>
  <time>2026-09-02T22:06:30Z</time>
  <course>186.42</course>
  <speed>0.022360679774997897</speed>
  <fix>3d</fix>
</trkpt>
<trkpt lat="33.810313" lon="-118.393867">
  <ele>-0.12</ele>
  <time>2026-09-02T22:06:30Z</time>
  <course>0.0</course>
  <speed>0.0</speed>
  <fix>3d</fix>
</trkpt>
<trkpt lat="33.8103132" lon="-118.3938671">
  <ele>-0.132</ele>
  <time>2026-09-02T22:06:30Z</time>
  <course>186.42</course>
  <speed>0.022360679774997897</speed>
  <fix>3d</fix>
</trkpt>
<trkpt lat="33.810313" lon="-118.393867">
  <ele>-0.12</ele>
  <time>2026-09-02T22:06:30Z</time>
  <course>0.0</course>
  <speed>0.0</speed>
  <fix>3d</fix>
</trkpt>
<trkpt lat="33.8103132" lon="-118.3938671">
  <ele>-0.132</ele>
  <time>2026-09-02T22:06:30Z</time>
  <course>186.42</course>
  <speed>0.022360679774997897</speed>
  <fix>3d</fix>
</trkpt>
<trkpt lat="33.810313" lon="-118.393867">
  <ele>-0.12</ele>
  <time>2026-09-02T22:06:30Z</time>
  <course>0.0</course>
  <speed>0.0</speed>
  <fix>3d</fix>
</trkpt>
<trkpt lat="33.8103132" lon="-118.3938671">
  <ele>-0.132</ele>
  <time>2026-09-02T22:06:30Z</time>
  <course>186.42</course>
  <speed>0.022360679774997897</speed>
  <fix>3d</fix>
</trkpt>
<trkpt lat="33.810313" lon="-118.393867">
  <ele>-0.12</ele>
  <time>2026-09-02T22:06:30Z</time>
  <course>0.0</course>
  <speed>0.0</speed>
  <fix>3d</fix>
</trkpt>
<trkpt lat="33.8103132" lon="-118.3938671">
  <ele>-0.132</ele>
  <time>2026-09-02T22:06:30Z</time>
  <course>186.42</course>
  <speed>0.022360679774997897</speed>
  <fix>3d</fix>
</trkpt>
<trkpt lat="33.810313" lon="-118.393867">
  <ele>-0.12</ele>
  <time>2026-09-02T22:06:30Z</time>
  <course>0.0</course>
  <speed>0.0</speed>
  <fix>3d</fix>
</trkpt>
<trkpt lat="33.8103132" lon="-118.3938671">
  <ele>-0.132</ele>
  <time>2026-09-02T22:06:30Z</time>
  <course>186.41</course>
  <speed>0.022360679774997897</speed>
  <fix>3d</fix>
</trkpt>
<trkpt lat="33.810313" lon="-118.393867">
  <ele>-0.12</ele>
  <time>2026-09-02T22:06:30Z</time>
  <course>0.0</course>
  <speed>0.0</speed>
  <fix>3d</fix>
</trkpt>
<trkpt lat="33.8103132" lon="-118.3938671">
  <ele>-0.131</ele>
  <time>2026-09-02T22:06:30Z</time>
  <course>186.41</course>
  <speed>0.022360679774997897</speed>
  <fix>3d</fix>
</trkpt>
<trkpt lat="33.810313" lon="-118.393867">
  <ele>-0.12</ele>
  <time>2026-09-02T22:06:30Z</time>
  <course>0.0</course>
  <speed>0.0</speed>
  <fix>3d</fix>
</trkpt>
<trkpt lat="33.8103132" lon="-118.3938671">
  <ele>-0.13</ele>
  <time>2026-09-02T22:06:30Z</time>
  <course>186.41</course>
  <speed>0.022360679774997897</speed>
  <fix>3d</fix>
</trkpt>
<trkpt lat="33.810313" lon="-118.393867">
  <ele>-0.12</ele>
  <time>2026-09-02T22:06:30Z</time>
  <course>0.0</course>
  <speed>0.0</speed>
  <fix>3d</fix>
</trkpt>
<trkpt lat="33.8103132" lon="-118.3938671">
  <ele>-0.129</ele>
  <time>2026-09-02T22:06:30Z</time>
  <course>186.41</course>
  <speed>0.022360679774997897</speed>
  <fix>3d</fix>
</trkpt>
<trkpt lat="33.810313" lon="-118.393867">
  <ele>-0.12</ele>
  <time>2026-09-02T22:06:30Z</time>
  <course>0.0</course>
  <speed>0.0</speed>
  <fix>3d</fix>
</trkpt>
<trkpt lat="33.8103132" lon="-118.3938671">
  <ele>-0.127</ele>
  <time>2026-09-02T22:06:30Z</time>
  <course>186.41</course>
  <speed>0.022360679774997897</speed>
  <fix>3d</fix>
</trkpt>
<trkpt lat="33.810313" lon="-118.393867">
  <ele>-0.12</ele>
  <time>2026-09-02T22:06:30Z</time>
  <course>0.0</course>
  <speed>0.0</speed>
  <fix>3d</fix>
</trkpt>
<trkpt lat="33.8103132" lon="-118.3938671">
  <ele>-0.125</ele>
  <time>2026-09-02T22:06:30Z</time>
  <course>186.41</course>
  <speed>0.022360679774997897</speed>
  <fix>3d</fix>
</trkpt>
<trkpt lat="33.810313" lon="-118.393867">
  <ele>-0.12</ele>
  <time>2026-09-02T22:06:30Z</time>
  <course>0.0</course>
  <speed>0.0</speed>
  <fix>3d</fix>
</trkpt>
<trkpt lat="33.8103132" lon="-118.3938671">
  <ele>-0.123</ele>
  <time>2026-09-02T22:06:30Z</time>
  <course>186.41</course>
  <speed>0.022360679774997897</speed>
  <fix>3d</fix>
</trkpt>
<trkpt lat="33.810313" lon="-118.393867">
  <ele>-0.12</ele>
  <time>2026-09-02T22:06:30Z</time>
  <course>0.0</course>
  <speed>0.0</speed>
  <fix>3d</fix>
</trkpt>
<trkpt lat="33.8103132" lon="-118.3938671">
  <ele>-0.123</ele>
  <time>2026-09-02T22:06:30Z</time>
  <course>186.41</course>
  <speed>0.022360679774997897</speed>
  <fix>3d</fix>
</trkpt>
<trkpt lat="33.810313" lon="-118.393867">
  <ele>-0.12</ele>
  <time>2026-09-02T22:06:30Z</time>
  <course>0.0</course>
  <speed>0.0</speed>
  <fix>3d</fix>
</trkpt>
<trkpt lat="33.8103132" lon="-118.3938671">
  <ele>-0.124</ele>
  <time>2026-09-02T22:06:30Z</time>
  <course>186.41</course>
  <speed>0.022360679774997897</speed>
  <fix>3d</fix>
</trkpt>
<trkpt lat="33.810313" lon="-118.393867">
  <ele>-0.12</ele>
  <time>2026-09-02T22:06:30Z</time>
  <course>0.0</course>
  <speed>0.0</speed>
  <fix>3d</fix>
</trkpt>
<trkpt lat="33.8103132" lon="-118.3938671">
  <ele>-0.125</ele>
  <time>2026-09-02T22:06:30Z</time>
  <course>186.4</course>
  <speed>0.022360679774997897</speed>
  <fix>3d</fix>
</trkpt>
<trkpt lat="33.810313" lon="-118.393867">
  <ele>-0.12</ele>
  <time>2026-09-02T22:06:30Z</time>
  <course>0.0</course>
  <speed>0.0</speed>
  <fix>3d</fix>
</trkpt>
<trkpt lat="33.8103132" lon="-118.3938671">
  <ele>-0.125</ele>
  <time>2026-09-02T22:06:30Z</time>
  <course>186.4</course>
  <speed>0.022360679774997897</speed>
  <fix>3d</fix>
</trkpt>
<trkpt lat="33.810313" lon="-118.393867">
  <ele>-0.12</ele>
  <time>2026-09-02T22:06:30Z</time>
  <course>0.0</course>
  <speed>0.0</speed>
  <fix>3d</fix>
</trkpt>
<trkpt lat="33.8103132" lon="-118.3938671">
  <ele>-0.125</ele>
  <time>2026-09-02T22:06:30Z</time>
  <course>186.4</course>
  <speed>0.022360679774997897</speed>
  <fix>3d</fix>
</trkpt>
<trkpt lat="33.810313" lon="-118.393867">
  <ele>-0.12</ele>
  <time>2026-09-02T22:06:30Z</time>
  <course>0.0</course>
  <speed>0.0</speed>
  <fix>3d</fix>
</trkpt>
<trkpt lat="33.8103132" lon="-118.3938671">
  <ele>-0.125</ele>
  <time>2026-09-02T22:06:30Z</time>
  <course>186.4</course>
  <speed>0.022360679774997897</speed>
  <fix>3d</fix>
</trkpt>
<trkpt lat="33.810313" lon="-118.393867">
  <ele>-0.12</ele>
  <time>2026-09-02T22:06:30Z</time>
  <course>0.0</course>
  <speed>0.0</speed>
  <fix>3d</fix>
</trkpt>
<trkpt lat="33.8103132" lon="-118.3938671">
  <ele>-0.126</ele>
  <time>2026-09-02T22:06:30Z</time>
  <course>186.4</course>
  <speed>0.022360679774997897</speed>
  <fix>3d</fix>
</trkpt>
<trkpt lat="33.810313" lon="-118.393867">
  <ele>-0.12</ele>
  <time>2026-09-02T22:06:30Z</time>
  <course>0.0</course>
  <speed>0.0</speed>
  <fix>3d</fix>
</trkpt>
<trkpt lat="33.8103132" lon="-118.3938671">
  <ele>-0.127</ele>
  <time>2026-09-02T22:06:30Z</time>
  <course>186.4</course>
  <speed>0.022360679774997897</speed>
  <fix>3d</fix>
</trkpt>
<trkpt lat="33.810313" lon="-118.393867">
  <ele>-0.12</ele>
  <time>2026-09-02T22:06:30Z</time>
  <course>0.0</course>
  <speed>0.0</speed>
  <fix>3d</fix>
</trkpt>
<trkpt lat="33.8103132" lon="-118.3938671">
  <ele>-0.129</ele>
  <time>2026-09-02T22:06:30Z</time>
  <course>186.4</course>
  <speed>0.022360679774997897</speed>
  <fix>3d</fix>
</trkpt>
<trkpt lat="33.810313" lon="-118.393867">
  <ele>-0.12</ele>
  <time>2026-09-02T22:06:30Z</time>
  <course>0.0</course>
  <speed>0.0</speed>
  <fix>3d</fix>
</trkpt>
<trkpt lat="33.8103132" lon="-118.3938671">
  <ele>-0.131</ele>
  <time>2026-09-02T22:06:30Z</time>
  <course>186.4</course>
  <speed>0.022360679774997897</speed>
  <fix>3d</fix>
</trkpt>
<trkpt lat="33.810313" lon="-118.393867">
  <ele>-0.12</ele>
  <time>2026-09-02T22:06:30Z</time>
  <course>0.0</course>
  <speed>0.0</speed>
  <fix>3d</fix>
</trkpt>
<trkpt lat="33.8103132" lon="-118.3938671">
  <ele>-0.133</ele>
  <time>2026-09-02T22:06:30Z</time>
  <course>186.39</course>
  <speed>0.022360679774997897</speed>
  <fix>3d</fix>
</trkpt>
<trkpt lat="33.810313" lon="-118.393867">
  <ele>-0.12</ele>
  <time>2026-09-02T22:06:30Z</time>
  <course>0.0</course>
  <speed>0.0</speed>
  <fix>3d</fix>
</trkpt>
<trkpt lat="33.8103132" lon="-118.3938671">
  <ele>-0.135</ele>
  <time>2026-09-02T22:06:30Z</time>
  <course>186.39</course>
  <speed>0.022360679774997897</speed>
  <fix>3d</fix>
</trkpt>
<trkpt lat="33.810313" lon="-118.393867">
  <ele>-0.12</ele>
  <time>2026-09-02T22:06:30Z</time>
  <course>0.0</course>
  <speed>0.0</speed>
  <fix>3d</fix>
</trkpt>
<trkpt lat="33.8103132" lon="-118.3938671">
  <ele>-0.136</ele>
  <time>2026-09-02T22:06:30Z</time>
  <course>186.39</course>
  <speed>0.022360679774997897</speed>
  <fix>3d</fix>
</trkpt>
<trkpt lat="33.810313" lon="-118.393867">
  <ele>-0.12</ele>
  <time>2026-09-02T22:06:30Z</time>
  <course>0.0</course>
  <speed>0.0</speed>
  <fix>3d</fix>
</trkpt>
<trkpt lat="33.8103132" lon="-118.3938671">
  <ele>-0.135</ele>
  <time>2026-09-02T22:06:30Z</time>
  <course>186.39</course>
  <speed>0.022360679774997897</speed>
  <fix>3d</fix>
</trkpt>
<trkpt lat="33.810313" lon="-118.393867">
  <ele>-0.12</ele>
  <time>2026-09-02T22:06:30Z</time>
  <course>0.0</course>
  <speed>0.0</speed>
  <fix>3d</fix>
</trkpt>
<trkpt lat="33.8103132" lon="-118.3938671">
  <ele>-0.134</ele>
  <time>2026-09-02T22:06:30Z</time>
  <course>186.39</course>
  <speed>0.022360679774997897</speed>
  <fix>3d</fix>
</trkpt>
<trkpt lat="33.810313" lon="-118.393867">
  <ele>-0.12</ele>
  <time>2026-09-02T22:06:30Z</time>
  <course>0.0</course>
  <speed>0.0</speed>
  <fix>3d</fix>
</trkpt>
<trkpt lat="33.8103132" lon="-118.3938671">
  <ele>-0.132</ele>
  <time>2026-09-02T22:06:30Z</time>
  <course>186.39</course>
  <speed>0.022360679774997897</speed>
  <fix>3d</fix>
</trkpt>
<trkpt lat="33.810313" lon="-118.393867">
  <ele>-0.12</ele>
  <time>2026-09-02T22:06:30Z</time>
  <course>0.0</course>
  <speed>0.0</speed>
  <fix>3d</fix>
</trkpt>
<trkpt lat="33.8103132" lon="-118.3938671">
  <ele>-0.131</ele>
  <time>2026-09-02T22:06:30Z</time>
  <course>186.39</course>
  <speed>0.022360679774997897</speed>
  <fix>3d</fix>
</trkpt>
<trkpt lat="33.810313" lon="-118.393867">
  <ele>-0.12</ele>
  <time>2026-09-02T22:06:30Z</time>
  <course>0.0</course>
  <speed>0.0</speed>
  <fix>3d</fix>
</trkpt>
<trkpt lat="33.8103132" lon="-118.3938671">
  <ele>-0.13</ele>
  <time>2026-09-02T22:06:30Z</time>
  <course>186.39</course>
  <speed>0.022360679774997897</speed>
  <fix>3d</fix>
</trkpt>
<trkpt lat="33.810313" lon="-118.393867">
  <ele>-0.12</ele>
  <time>2026-09-02T22:06:30Z</time>
  <course>0.0</course>
  <speed>0.0</speed>
  <fix>3d</fix>
</trkpt>
<trkpt lat="33.8103132" lon="-118.3938671">
  <ele>-0.13</ele>
  <time>2026-09-02T22:06:30Z</time>
  <course>186.39</course>
  <speed>0.022360679774997897</speed>
  <fix>3d</fix>
</trkpt>
<trkpt lat="33.810313" lon="-118.393867">
  <ele>-0.12</ele>
  <time>2026-09-02T22:06:30Z</time>
  <course>0.0</course>
  <speed>0.0</speed>
  <fix>3d</fix>
</trkpt>
<trkpt lat="33.8103132" lon="-118.3938671">
  <ele>-0.131</ele>
  <time>2026-09-02T22:06:30Z</time>
  <course>186.38</course>
  <speed>0.022360679774997897</speed>
  <fix>3d</fix>
</trkpt>
<trkpt lat="33.810313" lon="-118.393867">
  <ele>-0.12</ele>
  <time>2026-09-02T22:06:30Z</time>
  <course>0.0</course>
  <speed>0.0</speed>
  <fix>3d</fix>
</trkpt>
<trkpt lat="33.8103132" lon="-118.3938671">
  <ele>-0.131</ele>
  <time>2026-09-02T22:06:30Z</time>
  <course>186.38</course>
  <speed>0.022360679774997897</speed>
  <fix>3d</fix>
</trkpt>
<trkpt lat="33.810313" lon="-118.393867">
  <ele>-0.12</ele>
  <time>2026-09-02T22:06:30Z</time>
  <course>0.0</course>
  <speed>0.0</speed>
  <fix>3d</fix>
</trkpt>
<trkpt lat="33.8103132" lon="-118.3938671">
  <ele>-0.131</ele>
  <time>2026-09-02T22:06:30Z</time>
  <course>186.38</course>
  <speed>0.022360679774997897</speed>
  <fix>3d</fix>
</trkpt>
<trkpt lat="33.810313" lon="-118.393867">
  <ele>-0.12</ele>
  <time>2026-09-02T22:06:30Z</time>
  <course>0.0</course>
  <speed>0.0</speed>
  <fix>3d</fix>
</trkpt>
<trkpt lat="33.8103132" lon="-118.3938671">
  <ele>-0.131</ele>
  <time>2026-09-02T22:06:30Z</time>
  <course>186.38</course>
  <speed>0.022360679774997897</speed>
  <fix>3d</fix>
</trkpt>
<trkpt lat="33.810313" lon="-118.393867">
  <ele>-0.12</ele>
  <time>2026-09-02T22:06:30Z</time>
  <course>0.0</course>
  <speed>0.0</speed>
  <fix>3d</fix>
</trkpt>
<trkpt lat="33.8103132" lon="-118.3938671">
  <ele>-0.131</ele>
  <time>2026-09-02T22:06:30Z</time>
  <course>186.38</course>
  <speed>0.022360679774997897</speed>
  <fix>3d</fix>
</trkpt>
<trkpt lat="33.810313" lon="-118.393867">
  <ele>-0.12</ele>
  <time>2026-09-02T22:06:30Z</time>
  <course>0.0</course>
  <speed>0.0</speed>
  <fix>3d</fix>
</trkpt>
<trkpt lat="33.8103132" lon="-118.3938671">
  <ele>-0.13</ele>
  <time>2026-09-02T22:06:30Z</time>
  <course>186.38</course>
  <speed>0.022360679774997897</speed>
  <fix>3d</fix>
</trkpt>
<trkpt lat="33.810313" lon="-118.393867">
  <ele>-0.12</ele>
  <time>2026-09-02T22:06:30Z</time>
  <course>0.0</course>
  <speed>0.0</speed>
  <fix>3d</fix>
</trkpt>
<trkpt lat="33.8103132" lon="-118.3938671">
  <ele>-0.13</ele>
  <time>2026-09-02T22:06:30Z</time>
  <course>186.38</course>
  <speed>0.022360679774997897</speed>
  <fix>3d</fix>
</trkpt>
<trkpt lat="33.810313" lon="-118.393867">
  <ele>-0.12</ele>
  <time>2026-09-02T22:06:30Z</time>
  <course>0.0</course>
  <speed>0.0</speed>
  <fix>3d</fix>
</trkpt>
<trkpt lat="33.8103132" lon="-118.3938671">
  <ele>-0.13</ele>
  <time>2026-09-02T22:06:30Z</time>
  <course>186.38</course>
  <speed>0.022360679774997897</speed>
  <fix>3d</fix>
</trkpt>
<trkpt lat="33.810313" lon="-118.393867">
  <ele>-0.12</ele>
  <time>2026-09-02T22:06:30Z</time>
  <course>0.0</course>
  <speed>0.0</speed>
  <fix>3d</fix>
</trkpt>
<trkpt lat="33.8103132" lon="-118.3938671">
  <ele>-0.129</ele>
  <time>2026-09-02T22:06:30Z</time>
  <course>186.38</course>
  <speed>0.022360679774997897</speed>
  <fix>3d</fix>
</trkpt>
<trkpt lat="33.810313" lon="-118.393867">
  <ele>-0.12</ele>
  <time>2026-09-02T22:06:30Z</time>
  <course>0.0</course>
  <speed>0.0</speed>
  <fix>3d</fix>
</trkpt>
<trkpt lat="33.8103132" lon="-118.3938671">
  <ele>-0.128</ele>
  <time>2026-09-02T22:06:30Z</time>
  <course>186.37</course>
  <speed>0.022360679774997897</speed>
  <fix>3d</fix>
</trkpt>
<trkpt lat="33.810313" lon="-118.393867">
  <ele>-0.12</ele>
  <time>2026-09-02T22:06:30Z</time>
  <course>0.0</course>
  <speed>0.0</speed>
  <fix>3d</fix>
</trkpt>
<trkpt lat="33.8103132" lon="-118.3938671">
  <ele>-0.127</ele>
  <time>2026-09-02T22:06:30Z</time>
  <course>186.37</course>
  <speed>0.022360679774997897</speed>
  <fix>3d</fix>
</trkpt>
<trkpt lat="33.810313" lon="-118.393867">
  <ele>-0.12</ele>
  <time>2026-09-02T22:06:30Z</time>
  <course>0.0</course>
  <speed>0.0</speed>
  <fix>3d</fix>
</trkpt>
<trkpt lat="33.8103132" lon="-118.3938671">
  <ele>-0.127</ele>
  <time>2026-09-02T22:06:30Z</time>
  <course>186.37</course>
  <speed>0.022360679774997897</speed>
  <fix>3d</fix>
</trkpt>
<trkpt lat="33.810313" lon="-118.393867">
  <ele>-0.12</ele>
  <time>2026-09-02T22:06:30Z</time>
  <course>0.0</course>
  <speed>0.0</speed>
  <fix>3d</fix>
</trkpt>
<trkpt lat="33.8103132" lon="-118.3938671">
  <ele>-0.128</ele>
  <time>2026-09-02T22:06:30Z</time>
  <course>186.37</course>
  <speed>0.022360679774997897</speed>
  <fix>3d</fix>
</trkpt>
<trkpt lat="33.810313" lon="-118.393867">
  <ele>-0.12</ele>
  <time>2026-09-02T22:06:30Z</time>
  <course>0.0</course>
  <speed>0.0</speed>
  <fix>3d</fix>
</trkpt>
<trkpt lat="33.8103132" lon="-118.3938671">
  <ele>-0.129</ele>
  <time>2026-09-02T22:06:30Z</time>
  <course>186.37</course>
  <speed>0.022360679774997897</speed>
  <fix>3d</fix>
</trkpt>
<trkpt lat="33.810313" lon="-118.393867">
  <ele>-0.12</ele>
  <time>2026-09-02T22:06:30Z</time>
  <course>0.0</course>
  <speed>0.0</speed>
  <fix>3d</fix>
</trkpt>
<trkpt lat="33.8103132" lon="-118.3938671">
  <ele>-0.129</ele>
  <time>2026-09-02T22:06:30Z</time>
  <course>186.37</course>
  <speed>0.022360679774997897</speed>
  <fix>3d</fix>
</trkpt>
<trkpt lat="33.810313" lon="-118.393867">
  <ele>-0.12</ele>
  <time>2026-09-02T22:06:30Z</time>
  <course>0.0</course>
  <speed>0.0</speed>
  <fix>3d</fix>
</trkpt>
<trkpt lat="33.8103132" lon="-118.3938671">
  <ele>-0.128</ele>
  <time>2026-09-02T22:06:30Z</time>
  <course>186.37</course>
  <speed>0.022360679774997897</speed>
  <fix>3d</fix>
</trkpt>
<trkpt lat="33.810313" lon="-118.393867">
  <ele>-0.12</ele>
  <time>2026-09-02T22:06:30Z</time>
  <course>0.0</course>
  <speed>0.0</speed>
  <fix>3d</fix>
</trkpt>
<trkpt lat="33.8103132" lon="-118.3938671">
  <ele>-0.128</ele>
  <time>2026-09-02T22:06:30Z</time>
  <course>186.37</course>
  <speed>0.022360679774997897</speed>
  <fix>3d</fix>
</trkpt>
<trkpt lat="33.810313" lon="-118.393867">
  <ele>-0.12</ele>
  <time>2026-09-02T22:06:30Z</time>
  <course>0.0</course>
  <speed>0.0</speed>
  <fix>3d</fix>
</trkpt>
<trkpt lat="33.8103132" lon="-118.3938671">
  <ele>-0.127</ele>
  <time>2026-09-02T22:06:30Z</time>
  <course>186.37</course>
  <speed>0.022360679774997897</speed>
  <fix>3d</fix>
</trkpt>
<trkpt lat="33.810313" lon="-118.393867">
  <ele>-0.12</ele>
  <time>2026-09-02T22:06:30Z</time>
  <course>0.0</course>
  <speed>0.0</speed>
  <fix>3d</fix>
</trkpt>
<trkpt lat="33.8103132" lon="-118.3938671">
  <ele>-0.126</ele>
  <time>2026-09-02T22:06:30Z</time>
  <course>186.36</course>
  <speed>0.022360679774997897</speed>
  <fix>3d</fix>
</trkpt>
<trkpt lat="33.810313" lon="-118.393867">
  <ele>-0.12</ele>
  <time>2026-09-02T22:06:30Z</time>
  <course>0.0</course>
  <speed>0.0</speed>
  <fix>3d</fix>
</trkpt>
<trkpt lat="33.8103132" lon="-118.3938671">
  <ele>-0.124</ele>
  <time>2026-09-02T22:06:30Z</time>
  <course>186.36</course>
  <speed>0.022360679774997897</speed>
  <fix>3d</fix>
</trkpt>
<trkpt lat="33.810313" lon="-118.393867">
  <ele>-0.12</ele>
  <time>2026-09-02T22:06:30Z</time>
  <course>0.0</course>
  <speed>0.0</speed>
  <fix>3d</fix>
</trkpt>
<trkpt lat="33.8103132" lon="-118.3938671">
  <ele>-0.122</ele>
  <time>2026-09-02T22:06:30Z</time>
  <course>186.36</course>
  <speed>0.022360679774997897</speed>
  <fix>3d</fix>
</trkpt>
<trkpt lat="33.810313" lon="-118.393867">
  <ele>-0.12</ele>
  <time>2026-09-02T22:06:30Z</time>
  <course>0.0</course>
  <speed>0.0</speed>
  <fix>3d</fix>
</trkpt>
<trkpt lat="33.8103132" lon="-118.3938671">
  <ele>-0.12</ele>
  <time>2026-09-02T22:06:30Z</time>
  <course>186.36</course>
  <speed>0.022360679774997897</speed>
  <fix>3d</fix>
</trkpt>
<trkpt lat="33.810313" lon="-118.393867">
  <ele>-0.12</ele>
  <time>2026-09-02T22:06:30Z</time>
  <course>0.0</course>
  <speed>0.0</speed>
  <fix>3d</fix>
</trkpt>
<trkpt lat="33.8103132" lon="-118.3938671">
  <ele>-0.119</ele>
  <time>2026-09-02T22:06:31Z</time>
  <course>186.36</course>
  <speed>0.022360679774997897</speed>
  <fix>3d</fix>
</trkpt>
<trkpt lat="33.810313" lon="-118.393867">
  <ele>-0.12</ele>
  <time>2026-09-02T22:06:31Z</time>
  <course>0.0</course>
  <speed>0.0</speed>
  <fix>3d</fix>
</trkpt>
<trkpt lat="33.8103132" lon="-118.3938671">
  <ele>-0.119</ele>
  <time>2026-09-02T22:06:31Z</time>
  <course>186.36</course>
  <speed>0.022360679774997897</speed>
  <fix>3d</fix>
</trkpt>
<trkpt lat="33.810313" lon="-118.393867">
  <ele>-0.12</ele>
  <time>2026-09-02T22:06:31Z</time>
  <course>0.0</course>
  <speed>0.0</speed>
  <fix>3d</fix>
</trkpt>
<trkpt lat="33.8103132" lon="-118.3938671">
  <ele>-0.119</ele>
  <time>2026-09-02T22:06:31Z</time>
  <course>186.36</course>
  <speed>0.022360679774997897</speed>
  <fix>3d</fix>
</trkpt>
<trkpt lat="33.810313" lon="-118.393867">
  <ele>-0.12</ele>
  <time>2026-09-02T22:06:31Z</time>
  <course>0.0</course>
  <speed>0.0</speed>
  <fix>3d</fix>
</trkpt>
<trkpt lat="33.8103132" lon="-118.3938671">
  <ele>-0.119</ele>
  <time>2026-09-02T22:06:31Z</time>
  <course>186.36</course>
  <speed>0.022360679774997897</speed>
  <fix>3d</fix>
</trkpt>
<trkpt lat="33.810313" lon="-118.393867">
  <ele>-0.12</ele>
  <time>2026-09-02T22:06:31Z</time>
  <course>0.0</course>
  <speed>0.0</speed>
  <fix>3d</fix>
</trkpt>
<trkpt lat="33.8103132" lon="-118.3938671">
  <ele>-0.118</ele>
  <time>2026-09-02T22:06:31Z</time>
  <course>186.36</course>
  <speed>0.022360679774997897</speed>
  <fix>3d</fix>
</trkpt>
<trkpt lat="33.810313" lon="-118.393867">
  <ele>-0.12</ele>
  <time>2026-09-02T22:06:31Z</time>
  <course>0.0</course>
  <speed>0.0</speed>
  <fix>3d</fix>
</trkpt>
<trkpt lat="33.8103132" lon="-118.3938671">
  <ele>-0.117</ele>
  <time>2026-09-02T22:06:31Z</time>
  <course>186.36</course>
  <speed>0.022360679774997897</speed>
  <fix>3d</fix>
</trkpt>
<trkpt lat="33.810313" lon="-118.393867">
  <ele>-0.12</ele>
  <time>2026-09-02T22:06:31Z</time>
  <course>0.0</course>
  <speed>0.0</speed>
  <fix>3d</fix>
</trkpt>
<trkpt lat="33.8103132" lon="-118.3938671">
  <ele>-0.118</ele>
  <time>2026-09-02T22:06:31Z</time>
  <course>186.36</course>
  <speed>0.022360679774997897</speed>
  <fix>3d</fix>
</trkpt>
<trkpt lat="33.810313" lon="-118.393867">
  <ele>-0.12</ele>
  <time>2026-09-02T22:06:31Z</time>
  <course>0.0</course>
  <speed>0.0</speed>
  <fix>3d</fix>
</trkpt>
<trkpt lat="33.8103132" lon="-118.3938671">
  <ele>-0.119</ele>
  <time>2026-09-02T22:06:31Z</time>
  <course>186.36</course>
  <speed>0.022360679774997897</speed>
  <fix>3d</fix>
</trkpt>
<trkpt lat="33.810313" lon="-118.393867">
  <ele>-0.12</ele>
  <time>2026-09-02T22:06:31Z</time>
  <course>0.0</course>
  <speed>0.0</speed>
  <fix>3d</fix>
</trkpt>
<trkpt lat="33.8103132" lon="-118.3938671">
  <ele>-0.121</ele>
  <time>2026-09-02T22:06:31Z</time>
  <course>186.35</course>
  <speed>0.022360679774997897</speed>
  <fix>3d</fix>
</trkpt>
<trkpt lat="33.810313" lon="-118.393867">
  <ele>-0.12</ele>
  <time>2026-09-02T22:06:31Z</time>
  <course>0.0</course>
  <speed>0.0</speed>
  <fix>3d</fix>
</trkpt>
<trkpt lat="33.8103132" lon="-118.3938671">
  <ele>-0.123</ele>
  <time>2026-09-02T22:06:31Z</time>
  <course>186.35</course>
  <speed>0.022360679774997897</speed>
  <fix>3d</fix>
</trkpt>
<trkpt lat="33.810313" lon="-118.393867">
  <ele>-0.12</ele>
  <time>2026-09-02T22:06:31Z</time>
  <course>0.0</course>
  <speed>0.0</speed>
  <fix>3d</fix>
</trkpt>
<trkpt lat="33.8103132" lon="-118.3938671">
  <ele>-0.125</ele>
  <time>2026-09-02T22:06:31Z</time>
  <course>186.35</course>
  <speed>0.022360679774997897</speed>
  <fix>3d</fix>
</trkpt>
<trkpt lat="33.810313" lon="-118.393867">
  <ele>-0.12</ele>
  <time>2026-09-02T22:06:31Z</time>
  <course>0.0</course>
  <speed>0.0</speed>
  <fix>3d</fix>
</trkpt>
<trkpt lat="33.8103132" lon="-118.3938671">
  <ele>-0.127</ele>
  <time>2026-09-02T22:06:31Z</time>
  <course>186.35</course>
  <speed>0.022360679774997897</speed>
  <fix>3d</fix>
</trkpt>
<trkpt lat="33.810313" lon="-118.393867">
  <ele>-0.12</ele>
  <time>2026-09-02T22:06:31Z</time>
  <course>0.0</course>
  <speed>0.0</speed>
  <fix>3d</fix>
</trkpt>
<trkpt lat="33.8103132" lon="-118.3938671">
  <ele>-0.128</ele>
  <time>2026-09-02T22:06:31Z</time>
  <course>186.35</course>
  <speed>0.022360679774997897</speed>
  <fix>3d</fix>
</trkpt>
<trkpt lat="33.810313" lon="-118.393867">
  <ele>-0.12</ele>
  <time>2026-09-02T22:06:31Z</time>
  <course>0.0</course>
  <speed>0.0</speed>
  <fix>3d</fix>
</trkpt>
<trkpt lat="33.8103132" lon="-118.3938671">
  <ele>-0.129</ele>
  <time>2026-09-02T22:06:31Z</time>
  <course>186.35</course>
  <speed>0.022360679774997897</speed>
  <fix>3d</fix>
</trkpt>
<trkpt lat="33.810313" lon="-118.393867">
  <ele>-0.12</ele>
  <time>2026-09-02T22:06:31Z</time>
  <course>0.0</course>
  <speed>0.0</speed>
  <fix>3d</fix>
</trkpt>
<trkpt lat="33.8103132" lon="-118.3938671">
  <ele>-0.13</ele>
  <time>2026-09-02T22:06:31Z</time>
  <course>186.35</course>
  <speed>0.022360679774997897</speed>
  <fix>3d</fix>
</trkpt>
<trkpt lat="33.810313" lon="-118.393867">
  <ele>-0.12</ele>
  <time>2026-09-02T22:06:31Z</time>
  <course>0.0</course>
  <speed>0.0</speed>
  <fix>3d</fix>
</trkpt>
<trkpt lat="33.8103132" lon="-118.3938671">
  <ele>-0.132</ele>
  <time>2026-09-02T22:06:31Z</time>
  <course>186.35</course>
  <speed>0.022360679774997897</speed>
  <fix>3d</fix>
</trkpt>
<trkpt lat="33.810313" lon="-118.393867">
  <ele>-0.12</ele>
  <time>2026-09-02T22:06:31Z</time>
  <course>0.0</course>
  <speed>0.0</speed>
  <fix>3d</fix>
</trkpt>
<trkpt lat="33.8103132" lon="-118.3938671">
  <ele>-0.132</ele>
  <time>2026-09-02T22:06:31Z</time>
  <course>186.35</course>
  <speed>0.022360679774997897</speed>
  <fix>3d</fix>
</trkpt>
<trkpt lat="33.810313" lon="-118.393867">
  <ele>-0.12</ele>
  <time>2026-09-02T22:06:31Z</time>
  <course>0.0</course>
  <speed>0.0</speed>
  <fix>3d</fix>
</trkpt>
<trkpt lat="33.8103132" lon="-118.3938671">
  <ele>-0.132</ele>
  <time>2026-09-02T22:06:31Z</time>
  <course>186.35</course>
  <speed>0.022360679774997897</speed>
  <fix>3d</fix>
</trkpt>
<trkpt lat="33.810313" lon="-118.393867">
  <ele>-0.12</ele>
  <time>2026-09-02T22:06:31Z</time>
  <course>0.0</course>
  <speed>0.0</speed>
  <fix>3d</fix>
</trkpt>
<trkpt lat="33.8103132" lon="-118.3938671">
  <ele>-0.132</ele>
  <time>2026-09-02T22:06:31Z</time>
  <course>186.35</course>
  <speed>0.022360679774997897</speed>
  <fix>3d</fix>
</trkpt>
<trkpt lat="33.810313" lon="-118.393867">
  <ele>-0.12</ele>
  <time>2026-09-02T22:06:31Z</time>
  <course>0.0</course>
  <speed>0.0</speed>
  <fix>3d</fix>
</trkpt>
<trkpt lat="33.8103132" lon="-118.3938671">
  <ele>-0.132</ele>
  <time>2026-09-02T22:06:31Z</time>
  <course>186.34</course>
  <speed>0.022360679774997897</speed>
  <fix>3d</fix>
</trkpt>
<trkpt lat="33.810313" lon="-118.393867">
  <ele>-0.12</ele>
  <time>2026-09-02T22:06:31Z</time>
  <course>0.0</course>
  <speed>0.0</speed>
  <fix>3d</fix>
</trkpt>
<trkpt lat="33.8103132" lon="-118.3938671">
  <ele>-0.132</ele>
  <time>2026-09-02T22:06:31Z</time>
  <course>186.34</course>
  <speed>0.022360679774997897</speed>
  <fix>3d</fix>
</trkpt>
<trkpt lat="33.810313" lon="-118.393867">
  <ele>-0.12</ele>
  <time>2026-09-02T22:06:31Z</time>
  <course>0.0</course>
  <speed>0.0</speed>
  <fix>3d</fix>
</trkpt>
<trkpt lat="33.8103132" lon="-118.3938671">
  <ele>-0.132</ele>
  <time>2026-09-02T22:06:31Z</time>
  <course>186.34</course>
  <speed>0.022360679774997897</speed>
  <fix>3d</fix>
</trkpt>
<trkpt lat="33.810313" lon="-118.393867">
  <ele>-0.12</ele>
  <time>2026-09-02T22:06:31Z</time>
  <course>0.0</course>
  <speed>0.0</speed>
  <fix>3d</fix>
</trkpt>
<trkpt lat="33.8103132" lon="-118.3938671">
  <ele>-0.131</ele>
  <time>2026-09-02T22:06:31Z</time>
  <course>186.34</course>
  <speed>0.022360679774997897</speed>
  <fix>3d</fix>
</trkpt>
<trkpt lat="33.810313" lon="-118.393867">
  <ele>-0.12</ele>
  <time>2026-09-02T22:06:31Z</time>
  <course>0.0</course>
  <speed>0.0</speed>
  <fix>3d</fix>
</trkpt>
<trkpt lat="33.8103132" lon="-118.3938671">
  <ele>-0.13</ele>
  <time>2026-09-02T22:06:31Z</time>
  <course>186.34</course>
  <speed>0.022360679774997897</speed>
  <fix>3d</fix>
</trkpt>
<trkpt lat="33.810313" lon="-118.393867">
  <ele>-0.12</ele>
  <time>2026-09-02T22:06:31Z</time>
  <course>0.0</course>
  <speed>0.0</speed>
  <fix>3d</fix>
</trkpt>
<trkpt lat="33.8103132" lon="-118.3938671">
  <ele>-0.13</ele>
  <time>2026-09-02T22:06:31Z</time>
  <course>186.34</course>
  <speed>0.022360679774997897</speed>
  <fix>3d</fix>
</trkpt>
<trkpt lat="33.810313" lon="-118.393867">
  <ele>-0.12</ele>
  <time>2026-09-02T22:06:31Z</time>
  <course>0.0</course>
  <speed>0.0</speed>
  <fix>3d</fix>
</trkpt>
<trkpt lat="33.8103132" lon="-118.3938671">
  <ele>-0.129</ele>
  <time>2026-09-02T22:06:31Z</time>
  <course>186.34</course>
  <speed>0.022360679774997897</speed>
  <fix>3d</fix>
</trkpt>
<trkpt lat="33.810313" lon="-118.393867">
  <ele>-0.12</ele>
  <time>2026-09-02T22:06:31Z</time>
  <course>0.0</course>
  <speed>0.0</speed>
  <fix>3d</fix>
</trkpt>
<trkpt lat="33.8103132" lon="-118.3938671">
  <ele>-0.128</ele>
  <time>2026-09-02T22:06:31Z</time>
  <course>186.34</course>
  <speed>0.022360679774997897</speed>
  <fix>3d</fix>
</trkpt>
<trkpt lat="33.810313" lon="-118.393867">
  <ele>-0.12</ele>
  <time>2026-09-02T22:06:31Z</time>
  <course>0.0</course>
  <speed>0.0</speed>
  <fix>3d</fix>
</trkpt>
<trkpt lat="33.8103132" lon="-118.3938671">
  <ele>-0.127</ele>
  <time>2026-09-02T22:06:31Z</time>
  <course>186.34</course>
  <speed>0.022360679774997897</speed>
  <fix>3d</fix>
</trkpt>
<trkpt lat="33.810313" lon="-118.393867">
  <ele>-0.12</ele>
  <time>2026-09-02T22:06:31Z</time>
  <course>0.0</course>
  <speed>0.0</speed>
  <fix>3d</fix>
</trkpt>
<trkpt lat="33.8103132" lon="-118.3938671">
  <ele>-0.126</ele>
  <time>2026-09-02T22:06:31Z</time>
  <course>186.34</course>
  <speed>0.022360679774997897</speed>
  <fix>3d</fix>
</trkpt>
<trkpt lat="33.810313" lon="-118.393867">
  <ele>-0.12</ele>
  <time>2026-09-02T22:06:31Z</time>
  <course>0.0</course>
  <speed>0.0</speed>
  <fix>3d</fix>
</trkpt>
<trkpt lat="33.8103132" lon="-118.3938671">
  <ele>-0.126</ele>
  <time>2026-09-02T22:06:31Z</time>
  <course>186.34</course>
  <speed>0.022360679774997897</speed>
  <fix>3d</fix>
</trkpt>
<trkpt lat="33.810313" lon="-118.393867">
  <ele>-0.12</ele>
  <time>2026-09-02T22:06:31Z</time>
  <course>0.0</course>
  <speed>0.0</speed>
  <fix>3d</fix>
</trkpt>
<trkpt lat="33.8103132" lon="-118.3938671">
  <ele>-0.127</ele>
  <time>2026-09-02T22:06:31Z</time>
  <course>186.34</course>
  <speed>0.022360679774997897</speed>
  <fix>3d</fix>
</trkpt>
<trkpt lat="33.810313" lon="-118.393867">
  <ele>-0.12</ele>
  <time>2026-09-02T22:06:31Z</time>
  <course>0.0</course>
  <speed>0.0</speed>
  <fix>3d</fix>
</trkpt>
<trkpt lat="33.8103132" lon="-118.3938671">
  <ele>-0.128</ele>
  <time>2026-09-02T22:06:31Z</time>
  <course>186.33</course>
  <speed>0.022360679774997897</speed>
  <fix>3d</fix>
</trkpt>
<trkpt lat="33.810313" lon="-118.393867">
  <ele>-0.12</ele>
  <time>2026-09-02T22:06:31Z</time>
  <course>0.0</course>
  <speed>0.0</speed>
  <fix>3d</fix>
</trkpt>
<trkpt lat="33.8103132" lon="-118.3938671">
  <ele>-0.129</ele>
  <time>2026-09-02T22:06:31Z</time>
  <course>186.33</course>
  <speed>0.022360679774997897</speed>
  <fix>3d</fix>
</trkpt>
<trkpt lat="33.810313" lon="-118.393867">
  <ele>-0.12</ele>
  <time>2026-09-02T22:06:31Z</time>
  <course>0.0</course>
  <speed>0.0</speed>
  <fix>3d</fix>
</trkpt>
<trkpt lat="33.8103132" lon="-118.3938671">
  <ele>-0.129</ele>
  <time>2026-09-02T22:06:31Z</time>
  <course>186.33</course>
  <speed>0.022360679774997897</speed>
  <fix>3d</fix>
</trkpt>
<trkpt lat="33.810313" lon="-118.393867">
  <ele>-0.12</ele>
  <time>2026-09-02T22:06:31Z</time>
  <course>0.0</course>
  <speed>0.0</speed>
  <fix>3d</fix>
</trkpt>
<trkpt lat="33.8103132" lon="-118.3938671">
  <ele>-0.128</ele>
  <time>2026-09-02T22:06:31Z</time>
  <course>186.33</course>
  <speed>0.022360679774997897</speed>
  <fix>3d</fix>
</trkpt>
<trkpt lat="33.810313" lon="-118.393867">
  <ele>-0.12</ele>
  <time>2026-09-02T22:06:31Z</time>
  <course>0.0</course>
  <speed>0.0</speed>
  <fix>3d</fix>
</trkpt>
<trkpt lat="33.8103132" lon="-118.3938671">
  <ele>-0.127</ele>
  <time>2026-09-02T22:06:31Z</time>
  <course>186.33</course>
  <speed>0.022360679774997897</speed>
  <fix>3d</fix>
</trkpt>
<trkpt lat="33.810313" lon="-118.393867">
  <ele>-0.12</ele>
  <time>2026-09-02T22:06:31Z</time>
  <course>0.0</course>
  <speed>0.0</speed>
  <fix>3d</fix>
</trkpt>
<trkpt lat="33.8103132" lon="-118.3938671">
  <ele>-0.126</ele>
  <time>2026-09-02T22:06:31Z</time>
  <course>186.33</course>
  <speed>0.022360679774997897</speed>
  <fix>3d</fix>
</trkpt>
<trkpt lat="33.810313" lon="-118.393867">
  <ele>-0.12</ele>
  <time>2026-09-02T22:06:31Z</time>
  <course>0.0</course>
  <speed>0.0</speed>
  <fix>3d</fix>
</trkpt>
<trkpt lat="33.8103132" lon="-118.3938671">
  <ele>-0.125</ele>
  <time>2026-09-02T22:06:31Z</time>
  <course>186.33</course>
  <speed>0.022360679774997897</speed>
  <fix>3d</fix>
</trkpt>
<trkpt lat="33.810313" lon="-118.393867">
  <ele>-0.12</ele>
  <time>2026-09-02T22:06:31Z</time>
  <course>0.0</course>
  <speed>0.0</speed>
  <fix>3d</fix>
</trkpt>
<trkpt lat="33.8103132" lon="-118.3938671">
  <ele>-0.126</ele>
  <time>2026-09-02T22:06:31Z</time>
  <course>186.33</course>
  <speed>0.022360679774997897</speed>
  <fix>3d</fix>
</trkpt>
<trkpt lat="33.810313" lon="-118.393867">
  <ele>-0.12</ele>
  <time>2026-09-02T22:06:31Z</time>
  <course>0.0</course>
  <speed>0.0</speed>
  <fix>3d</fix>
</trkpt>
<trkpt lat="33.8103132" lon="-118.3938671">
  <ele>-0.127</ele>
  <time>2026-09-02T22:06:31Z</time>
  <course>186.33</course>
  <speed>0.022360679774997897</speed>
  <fix>3d</fix>
</trkpt>
<trkpt lat="33.810313" lon="-118.393867">
  <ele>-0.12</ele>
  <time>2026-09-02T22:06:31Z</time>
  <course>0.0</course>
  <speed>0.0</speed>
  <fix>3d</fix>
</trkpt>
<trkpt lat="33.8103132" lon="-118.3938671">
  <ele>-0.129</ele>
  <time>2026-09-02T22:06:31Z</time>
  <course>186.33</course>
  <speed>0.022360679774997897</speed>
  <fix>3d</fix>
</trkpt>
<trkpt lat="33.810313" lon="-118.393867">
  <ele>-0.12</ele>
  <time>2026-09-02T22:06:31Z</time>
  <course>0.0</course>
  <speed>0.0</speed>
  <fix>3d</fix>
</trkpt>
<trkpt lat="33.8103132" lon="-118.3938671">
  <ele>-0.129</ele>
  <time>2026-09-02T22:06:31Z</time>
  <course>186.33</course>
  <speed>0.022360679774997897</speed>
  <fix>3d</fix>
</trkpt>
<trkpt lat="33.810313" lon="-118.393867">
  <ele>-0.12</ele>
  <time>2026-09-02T22:06:31Z</time>
  <course>0.0</course>
  <speed>0.0</speed>
  <fix>3d</fix>
</trkpt>
<trkpt lat="33.8103132" lon="-118.3938672">
  <ele>-0.13</ele>
  <time>2026-09-02T22:06:31Z</time>
  <course>186.32</course>
  <speed>0.022360679774997897</speed>
  <fix>3d</fix>
</trkpt>
<trkpt lat="33.810313" lon="-118.393867">
  <ele>-0.12</ele>
  <time>2026-09-02T22:06:31Z</time>
  <course>0.0</course>
  <speed>0.0</speed>
  <fix>3d</fix>
</trkpt>
<trkpt lat="33.8103132" lon="-118.3938672">
  <ele>-0.13</ele>
  <time>2026-09-02T22:06:31Z</time>
  <course>186.32</course>
  <speed>0.022360679774997897</speed>
  <fix>3d</fix>
</trkpt>
<trkpt lat="33.810313" lon="-118.393867">
  <ele>-0.12</ele>
  <time>2026-09-02T22:06:31Z</time>
  <course>0.0</course>
  <speed>0.0</speed>
  <fix>3d</fix>
</trkpt>
<trkpt lat="33.8103132" lon="-118.3938672">
  <ele>-0.128</ele>
  <time>2026-09-02T22:06:31Z</time>
  <course>186.32</course>
  <speed>0.022360679774997897</speed>
  <fix>3d</fix>
</trkpt>
<trkpt lat="33.810313" lon="-118.393867">
  <ele>-0.12</ele>
  <time>2026-09-02T22:06:31Z</time>
  <course>0.0</course>
  <speed>0.0</speed>
  <fix>3d</fix>
</trkpt>
<trkpt lat="33.8103132" lon="-118.3938672">
  <ele>-0.127</ele>
  <time>2026-09-02T22:06:31Z</time>
  <course>186.32</course>
  <speed>0.022360679774997897</speed>
  <fix>3d</fix>
</trkpt>
<trkpt lat="33.810313" lon="-118.393867">
  <ele>-0.12</ele>
  <time>2026-09-02T22:06:31Z</time>
  <course>0.0</course>
  <speed>0.0</speed>
  <fix>3d</fix>
</trkpt>
<trkpt lat="33.8103132" lon="-118.3938671">
  <ele>-0.125</ele>
  <time>2026-09-02T22:06:31Z</time>
  <course>186.32</course>
  <speed>0.022360679774997897</speed>
  <fix>3d</fix>
</trkpt>
<trkpt lat="33.810313" lon="-118.393867">
  <ele>-0.12</ele>
  <time>2026-09-02T22:06:31Z</time>
  <course>0.0</course>
  <speed>0.0</speed>
  <fix>3d</fix>
</trkpt>
<trkpt lat="33.8103132" lon="-118.3938671">
  <ele>-0.124</ele>
  <time>2026-09-02T22:06:31Z</time>
  <course>186.32</course>
  <speed>0.022360679774997897</speed>
  <fix>3d</fix>
</trkpt>
<trkpt lat="33.810313" lon="-118.393867">
  <ele>-0.12</ele>
  <time>2026-09-02T22:06:31Z</time>
  <course>0.0</course>
  <speed>0.0</speed>
  <fix>3d</fix>
</trkpt>
<trkpt lat="33.8103132" lon="-118.3938671">
  <ele>-0.123</ele>
  <time>2026-09-02T22:06:31Z</time>
  <course>186.32</course>
  <speed>0.022360679774997897</speed>
  <fix>3d</fix>
</trkpt>
<trkpt lat="33.810313" lon="-118.393867">
  <ele>-0.12</ele>
  <time>2026-09-02T22:06:31Z</time>
  <course>0.0</course>
  <speed>0.0</speed>
  <fix>3d</fix>
</trkpt>
<trkpt lat="33.8103132" lon="-118.3938671">
  <ele>-0.123</ele>
  <time>2026-09-02T22:06:31Z</time>
  <course>186.32</course>
  <speed>0.022360679774997897</speed>
  <fix>3d</fix>
</trkpt>
<trkpt lat="33.810313" lon="-118.393867">
  <ele>-0.12</ele>
  <time>2026-09-02T22:06:31Z</time>
  <course>0.0</course>
  <speed>0.0</speed>
  <fix>3d</fix>
</trkpt>
<trkpt lat="33.8103132" lon="-118.3938672">
  <ele>-0.122</ele>
  <time>2026-09-02T22:06:31Z</time>
  <course>186.32</course>
  <speed>0.022360679774997897</speed>
  <fix>3d</fix>
</trkpt>
<trkpt lat="33.810313" lon="-118.393867">
  <ele>-0.12</ele>
  <time>2026-09-02T22:06:31Z</time>
  <course>0.0</course>
  <speed>0.0</speed>
  <fix>3d</fix>
</trkpt>
<trkpt lat="33.8103132" lon="-118.3938671">
  <ele>-0.121</ele>
  <time>2026-09-02T22:06:31Z</time>
  <course>186.32</course>
  <speed>0.022360679774997897</speed>
  <fix>3d</fix>
</trkpt>
<trkpt lat="33.810313" lon="-118.393867">
  <ele>-0.12</ele>
  <time>2026-09-02T22:06:31Z</time>
  <course>0.0</course>
  <speed>0.0</speed>
  <fix>3d</fix>
</trkpt>
<trkpt lat="33.8103132" lon="-118.3938672">
  <ele>-0.119</ele>
  <time>2026-09-02T22:06:31Z</time>
  <course>186.32</course>
  <speed>0.022360679774997897</speed>
  <fix>3d</fix>
</trkpt>
<trkpt lat="33.810313" lon="-118.393867">
  <ele>-0.12</ele>
  <time>2026-09-02T22:06:31Z</time>
  <course>0.0</course>
  <speed>0.0</speed>
  <fix>3d</fix>
</trkpt>
<trkpt lat="33.8103132" lon="-118.3938671">
  <ele>-0.118</ele>
  <time>2026-09-02T22:06:31Z</time>
  <course>186.32</course>
  <speed>0.022360679774997897</speed>
  <fix>3d</fix>
</trkpt>
<trkpt lat="33.810313" lon="-118.393867">
  <ele>-0.12</ele>
  <time>2026-09-02T22:06:31Z</time>
  <course>0.0</course>
  <speed>0.0</speed>
  <fix>3d</fix>
</trkpt>
<trkpt lat="33.8103132" lon="-118.3938672">
  <ele>-0.115</ele>
  <time>2026-09-02T22:06:31Z</time>
  <course>186.31</course>
  <speed>0.022360679774997897</speed>
  <fix>3d</fix>
</trkpt>
<trkpt lat="33.810313" lon="-118.393867">
  <ele>-0.12</ele>
  <time>2026-09-02T22:06:31Z</time>
  <course>0.0</course>
  <speed>0.0</speed>
  <fix>3d</fix>
</trkpt>
<trkpt lat="33.8103132" lon="-118.3938671">
  <ele>-0.114</ele>
  <time>2026-09-02T22:06:31Z</time>
  <course>186.31</course>
  <speed>0.022360679774997897</speed>
  <fix>3d</fix>
</trkpt>
<trkpt lat="33.810313" lon="-118.393867">
  <ele>-0.12</ele>
  <time>2026-09-02T22:06:31Z</time>
  <course>0.0</course>
  <speed>0.0</speed>
  <fix>3d</fix>
</trkpt>
<trkpt lat="33.8103132" lon="-118.3938672">
  <ele>-0.112</ele>
  <time>2026-09-02T22:06:31Z</time>
  <course>186.31</course>
  <speed>0.022360679774997897</speed>
  <fix>3d</fix>
</trkpt>
<trkpt lat="33.810313" lon="-118.393867">
  <ele>-0.12</ele>
  <time>2026-09-02T22:06:31Z</time>
  <course>0.0</course>
  <speed>0.0</speed>
  <fix>3d</fix>
</trkpt>
<trkpt lat="33.8103132" lon="-118.3938672">
  <ele>-0.11</ele>
  <time>2026-09-02T22:06:31Z</time>
  <course>186.31</course>
  <speed>0.022360679774997897</speed>
  <fix>3d</fix>
</trkpt>
<trkpt lat="33.810313" lon="-118.393867">
  <ele>-0.12</ele>
  <time>2026-09-02T22:06:31Z</time>
  <course>0.0</course>
  <speed>0.0</speed>
  <fix>3d</fix>
</trkpt>
<trkpt lat="33.8103132" lon="-118.3938672">
  <ele>-0.11</ele>
  <time>2026-09-02T22:06:31Z</time>
  <course>186.31</course>
  <speed>0.022360679774997897</speed>
  <fix>3d</fix>
</trkpt>
<trkpt lat="33.810313" lon="-118.393867">
  <ele>-0.12</ele>
  <time>2026-09-02T22:06:31Z</time>
  <course>0.0</course>
  <speed>0.0</speed>
  <fix>3d</fix>
</trkpt>
<trkpt lat="33.8103132" lon="-118.3938672">
  <ele>-0.11</ele>
  <time>2026-09-02T22:06:31Z</time>
  <course>186.31</course>
  <speed>0.022360679774997897</speed>
  <fix>3d</fix>
</trkpt>
<trkpt lat="33.810313" lon="-118.393867">
  <ele>-0.12</ele>
  <time>2026-09-02T22:06:31Z</time>
  <course>0.0</course>
  <speed>0.0</speed>
  <fix>3d</fix>
</trkpt>
<trkpt lat="33.8103132" lon="-118.3938672">
  <ele>-0.11</ele>
  <time>2026-09-02T22:06:31Z</time>
  <course>186.31</course>
  <speed>0.022360679774997897</speed>
  <fix>3d</fix>
</trkpt>
<trkpt lat="33.810313" lon="-118.393867">
  <ele>-0.12</ele>
  <time>2026-09-02T22:06:31Z</time>
  <course>0.0</course>
  <speed>0.0</speed>
  <fix>3d</fix>
</trkpt>
<trkpt lat="33.8103132" lon="-118.3938672">
  <ele>-0.112</ele>
  <time>2026-09-02T22:06:31Z</time>
  <course>186.31</course>
  <speed>0.022360679774997897</speed>
  <fix>3d</fix>
</trkpt>
<trkpt lat="33.810313" lon="-118.393867">
  <ele>-0.12</ele>
  <time>2026-09-02T22:06:31Z</time>
  <course>0.0</course>
  <speed>0.0</speed>
  <fix>3d</fix>
</trkpt>
<trkpt lat="33.8103132" lon="-118.3938672">
  <ele>-0.115</ele>
  <time>2026-09-02T22:06:31Z</time>
  <course>186.31</course>
  <speed>0.022360679774997897</speed>
  <fix>3d</fix>
</trkpt>
<trkpt lat="33.810313" lon="-118.393867">
  <ele>-0.12</ele>
  <time>2026-09-02T22:06:31Z</time>
  <course>0.0</course>
  <speed>0.0</speed>
  <fix>3d</fix>
</trkpt>
<trkpt lat="33.8103132" lon="-118.3938672">
  <ele>-0.116</ele>
  <time>2026-09-02T22:06:31Z</time>
  <course>186.31</course>
  <speed>0.022360679774997897</speed>
  <fix>3d</fix>
</trkpt>
<trkpt lat="33.810313" lon="-118.393867">
  <ele>-0.12</ele>
  <time>2026-09-02T22:06:31Z</time>
  <course>0.0</course>
  <speed>0.0</speed>
  <fix>3d</fix>
</trkpt>
<trkpt lat="33.8103132" lon="-118.3938672">
  <ele>-0.118</ele>
  <time>2026-09-02T22:06:31Z</time>
  <course>186.31</course>
  <speed>0.022360679774997897</speed>
  <fix>3d</fix>
</trkpt>
<trkpt lat="33.810313" lon="-118.393867">
  <ele>-0.12</ele>
  <time>2026-09-02T22:06:31Z</time>
  <course>0.0</course>
  <speed>0.0</speed>
  <fix>3d</fix>
</trkpt>
<trkpt lat="33.8103132" lon="-118.3938672">
  <ele>-0.118</ele>
  <time>2026-09-02T22:06:31Z</time>
  <course>186.31</course>
  <speed>0.022360679774997897</speed>
  <fix>3d</fix>
</trkpt>
<trkpt lat="33.810313" lon="-118.393867">
  <ele>-0.12</ele>
  <time>2026-09-02T22:06:31Z</time>
  <course>0.0</course>
  <speed>0.0</speed>
  <fix>3d</fix>
</trkpt>
<trkpt lat="33.8103132" lon="-118.3938672">
  <ele>-0.117</ele>
  <time>2026-09-02T22:06:31Z</time>
  <course>186.31</course>
  <speed>0.022360679774997897</speed>
  <fix>3d</fix>
</trkpt>
<trkpt lat="33.810313" lon="-118.393867">
  <ele>-0.12</ele>
  <time>2026-09-02T22:06:31Z</time>
  <course>0.0</course>
  <speed>0.0</speed>
  <fix>3d</fix>
</trkpt>
<trkpt lat="33.8103132" lon="-118.3938672">
  <ele>-0.118</ele>
  <time>2026-09-02T22:06:31Z</time>
  <course>186.3</course>
  <speed>0.022360679774997897</speed>
  <fix>3d</fix>
</trkpt>
<trkpt lat="33.810313" lon="-118.393867">
  <ele>-0.12</ele>
  <time>2026-09-02T22:06:31Z</time>
  <course>0.0</course>
  <speed>0.0</speed>
  <fix>3d</fix>
</trkpt>
<trkpt lat="33.8103132" lon="-118.3938672">
  <ele>-0.119</ele>
  <time>2026-09-02T22:06:31Z</time>
  <course>186.3</course>
  <speed>0.022360679774997897</speed>
  <fix>3d</fix>
</trkpt>
<trkpt lat="33.810313" lon="-118.393867">
  <ele>-0.12</ele>
  <time>2026-09-02T22:06:31Z</time>
  <course>0.0</course>
  <speed>0.0</speed>
  <fix>3d</fix>
</trkpt>
<trkpt lat="33.8103132" lon="-118.3938672">
  <ele>-0.12</ele>
  <time>2026-09-02T22:06:31Z</time>
  <course>186.3</course>
  <speed>0.022360679774997897</speed>
  <fix>3d</fix>
</trkpt>
<trkpt lat="33.810313" lon="-118.393867">
  <ele>-0.12</ele>
  <time>2026-09-02T22:06:31Z</time>
  <course>0.0</course>
  <speed>0.0</speed>
  <fix>3d</fix>
</trkpt>
<trkpt lat="33.8103132" lon="-118.3938672">
  <ele>-0.123</ele>
  <time>2026-09-02T22:06:31Z</time>
  <course>186.3</course>
  <speed>0.022360679774997897</speed>
  <fix>3d</fix>
</trkpt>
<trkpt lat="33.810313" lon="-118.393867">
  <ele>-0.12</ele>
  <time>2026-09-02T22:06:31Z</time>
  <course>0.0</course>
  <speed>0.0</speed>
  <fix>3d</fix>
</trkpt>
<trkpt lat="33.8103132" lon="-118.3938672">
  <ele>-0.125</ele>
  <time>2026-09-02T22:06:31Z</time>
  <course>186.3</course>
  <speed>0.022360679774997897</speed>
  <fix>3d</fix>
</trkpt>
<trkpt lat="33.810313" lon="-118.393867">
  <ele>-0.12</ele>
  <time>2026-09-02T22:06:31Z</time>
  <course>0.0</course>
  <speed>0.0</speed>
  <fix>3d</fix>
</trkpt>
<trkpt lat="33.8103132" lon="-118.3938672">
  <ele>-0.126</ele>
  <time>2026-09-02T22:06:31Z</time>
  <course>186.3</course>
  <speed>0.022360679774997897</speed>
  <fix>3d</fix>
</trkpt>
<trkpt lat="33.810313" lon="-118.393867">
  <ele>-0.12</ele>
  <time>2026-09-02T22:06:31Z</time>
  <course>0.0</course>
  <speed>0.0</speed>
  <fix>3d</fix>
</trkpt>
<trkpt lat="33.8103132" lon="-118.3938672">
  <ele>-0.126</ele>
  <time>2026-09-02T22:06:31Z</time>
  <course>186.3</course>
  <speed>0.022360679774997897</speed>
  <fix>3d</fix>
</trkpt>
<trkpt lat="33.810313" lon="-118.393867">
  <ele>-0.12</ele>
  <time>2026-09-02T22:06:31Z</time>
  <course>0.0</course>
  <speed>0.0</speed>
  <fix>3d</fix>
</trkpt>
<trkpt lat="33.8103132" lon="-118.3938672">
  <ele>-0.125</ele>
  <time>2026-09-02T22:06:31Z</time>
  <course>186.3</course>
  <speed>0.022360679774997897</speed>
  <fix>3d</fix>
</trkpt>
<trkpt lat="33.810313" lon="-118.393867">
  <ele>-0.12</ele>
  <time>2026-09-02T22:06:31Z</time>
  <course>0.0</course>
  <speed>0.0</speed>
  <fix>3d</fix>
</trkpt>
<trkpt lat="33.8103132" lon="-118.3938672">
  <ele>-0.125</ele>
  <time>2026-09-02T22:06:31Z</time>
  <course>186.3</course>
  <speed>0.022360679774997897</speed>
  <fix>3d</fix>
</trkpt>
<trkpt lat="33.810313" lon="-118.393867">
  <ele>-0.12</ele>
  <time>2026-09-02T22:06:31Z</time>
  <course>0.0</course>
  <speed>0.0</speed>
  <fix>3d</fix>
</trkpt>
<trkpt lat="33.8103132" lon="-118.3938672">
  <ele>-0.124</ele>
  <time>2026-09-02T22:06:31Z</time>
  <course>186.3</course>
  <speed>0.022360679774997897</speed>
  <fix>3d</fix>
</trkpt>
<trkpt lat="33.810313" lon="-118.393867">
  <ele>-0.12</ele>
  <time>2026-09-02T22:06:31Z</time>
  <course>0.0</course>
  <speed>0.0</speed>
  <fix>3d</fix>
</trkpt>
<trkpt lat="33.8103132" lon="-118.3938672">
  <ele>-0.123</ele>
  <time>2026-09-02T22:06:31Z</time>
  <course>186.3</course>
  <speed>0.022360679774997897</speed>
  <fix>3d</fix>
</trkpt>
<trkpt lat="33.810313" lon="-118.393867">
  <ele>-0.12</ele>
  <time>2026-09-02T22:06:31Z</time>
  <course>0.0</course>
  <speed>0.0</speed>
  <fix>3d</fix>
</trkpt>
<trkpt lat="33.8103132" lon="-118.3938672">
  <ele>-0.123</ele>
  <time>2026-09-02T22:06:31Z</time>
  <course>186.3</course>
  <speed>0.022360679774997897</speed>
  <fix>3d</fix>
</trkpt>
<trkpt lat="33.810313" lon="-118.393867">
  <ele>-0.12</ele>
  <time>2026-09-02T22:06:31Z</time>
  <course>0.0</course>
  <speed>0.0</speed>
  <fix>3d</fix>
</trkpt>
<trkpt lat="33.8103132" lon="-118.3938672">
  <ele>-0.123</ele>
  <time>2026-09-02T22:06:31Z</time>
  <course>186.3</course>
  <speed>0.022360679774997897</speed>
  <fix>3d</fix>
</trkpt>
<trkpt lat="33.810313" lon="-118.393867">
  <ele>-0.12</ele>
  <time>2026-09-02T22:06:31Z</time>
  <course>0.0</course>
  <speed>0.0</speed>
  <fix>3d</fix>
</trkpt>
<trkpt lat="33.8103132" lon="-118.3938672">
  <ele>-0.124</ele>
  <time>2026-09-02T22:06:31Z</time>
  <course>186.3</course>
  <speed>0.022360679774997897</speed>
  <fix>3d</fix>
</trkpt>
<trkpt lat="33.810313" lon="-118.393867">
  <ele>-0.12</ele>
  <time>2026-09-02T22:06:31Z</time>
  <course>0.0</course>
  <speed>0.0</speed>
  <fix>3d</fix>
</trkpt>
<trkpt lat="33.8103132" lon="-118.3938672">
  <ele>-0.125</ele>
  <time>2026-09-02T22:06:31Z</time>
  <course>186.29</course>
  <speed>0.022360679774997897</speed>
  <fix>3d</fix>
</trkpt>
<trkpt lat="33.810313" lon="-118.393867">
  <ele>-0.12</ele>
  <time>2026-09-02T22:06:31Z</time>
  <course>0.0</course>
  <speed>0.0</speed>
  <fix>3d</fix>
</trkpt>
<trkpt lat="33.8103132" lon="-118.3938672">
  <ele>-0.125</ele>
  <time>2026-09-02T22:06:31Z</time>
  <course>186.29</course>
  <speed>0.022360679774997897</speed>
  <fix>3d</fix>
</trkpt>
<trkpt lat="33.810313" lon="-118.393867">
  <ele>-0.12</ele>
  <time>2026-09-02T22:06:31Z</time>
  <course>0.0</course>
  <speed>0.0</speed>
  <fix>3d</fix>
</trkpt>
<trkpt lat="33.8103132" lon="-118.3938672">
  <ele>-0.125</ele>
  <time>2026-09-02T22:06:31Z</time>
  <course>186.29</course>
  <speed>0.022360679774997897</speed>
  <fix>3d</fix>
</trkpt>
<trkpt lat="33.810313" lon="-118.393867">
  <ele>-0.12</ele>
  <time>2026-09-02T22:06:31Z</time>
  <course>0.0</course>
  <speed>0.0</speed>
  <fix>3d</fix>
</trkpt>
<trkpt lat="33.8103132" lon="-118.3938672">
  <ele>-0.125</ele>
  <time>2026-09-02T22:06:31Z</time>
  <course>186.29</course>
  <speed>0.022360679774997897</speed>
  <fix>3d</fix>
</trkpt>
<trkpt lat="33.810313" lon="-118.393867">
  <ele>-0.12</ele>
  <time>2026-09-02T22:06:31Z</time>
  <course>0.0</course>
  <speed>0.0</speed>
  <fix>3d</fix>
</trkpt>
<trkpt lat="33.8103132" lon="-118.3938672">
  <ele>-0.125</ele>
  <time>2026-09-02T22:06:31Z</time>
  <course>186.29</course>
  <speed>0.022360679774997897</speed>
  <fix>3d</fix>
</trkpt>
<trkpt lat="33.810313" lon="-118.393867">
  <ele>-0.12</ele>
  <time>2026-09-02T22:06:31Z</time>
  <course>0.0</course>
  <speed>0.0</speed>
  <fix>3d</fix>
</trkpt>
<trkpt lat="33.8103132" lon="-118.3938672">
  <ele>-0.126</ele>
  <time>2026-09-02T22:06:31Z</time>
  <course>186.29</course>
  <speed>0.022360679774997897</speed>
  <fix>3d</fix>
</trkpt>
<trkpt lat="33.810313" lon="-118.393867">
  <ele>-0.12</ele>
  <time>2026-09-02T22:06:31Z</time>
  <course>0.0</course>
  <speed>0.0</speed>
  <fix>3d</fix>
</trkpt>
<trkpt lat="33.8103132" lon="-118.3938672">
  <ele>-0.126</ele>
  <time>2026-09-02T22:06:31Z</time>
  <course>186.29</course>
  <speed>0.022360679774997897</speed>
  <fix>3d</fix>
</trkpt>
<trkpt lat="33.810313" lon="-118.393867">
  <ele>-0.12</ele>
  <time>2026-09-02T22:06:31Z</time>
  <course>0.0</course>
  <speed>0.0</speed>
  <fix>3d</fix>
</trkpt>
<trkpt lat="33.8103132" lon="-118.3938672">
  <ele>-0.126</ele>
  <time>2026-09-02T22:06:31Z</time>
  <course>186.29</course>
  <speed>0.022360679774997897</speed>
  <fix>3d</fix>
</trkpt>
<trkpt lat="33.810313" lon="-118.393867">
  <ele>-0.12</ele>
  <time>2026-09-02T22:06:31Z</time>
  <course>0.0</course>
  <speed>0.0</speed>
  <fix>3d</fix>
</trkpt>
<trkpt lat="33.8103132" lon="-118.3938672">
  <ele>-0.128</ele>
  <time>2026-09-02T22:06:31Z</time>
  <course>186.29</course>
  <speed>0.022360679774997897</speed>
  <fix>3d</fix>
</trkpt>
<trkpt lat="33.810313" lon="-118.393867">
  <ele>-0.12</ele>
  <time>2026-09-02T22:06:31Z</time>
  <course>0.0</course>
  <speed>0.0</speed>
  <fix>3d</fix>
</trkpt>
<trkpt lat="33.8103132" lon="-118.3938672">
  <ele>-0.129</ele>
  <time>2026-09-02T22:06:31Z</time>
  <course>186.29</course>
  <speed>0.022360679774997897</speed>
  <fix>3d</fix>
</trkpt>
<trkpt lat="33.810313" lon="-118.393867">
  <ele>-0.12</ele>
  <time>2026-09-02T22:06:31Z</time>
  <course>0.0</course>
  <speed>0.0</speed>
  <fix>3d</fix>
</trkpt>
<trkpt lat="33.8103132" lon="-118.3938672">
  <ele>-0.13</ele>
  <time>2026-09-02T22:06:31Z</time>
  <course>186.29</course>
  <speed>0.022360679774997897</speed>
  <fix>3d</fix>
</trkpt>
<trkpt lat="33.810313" lon="-118.393867">
  <ele>-0.12</ele>
  <time>2026-09-02T22:06:31Z</time>
  <course>0.0</course>
  <speed>0.0</speed>
  <fix>3d</fix>
</trkpt>
<trkpt lat="33.8103132" lon="-118.3938672">
  <ele>-0.13</ele>
  <time>2026-09-02T22:06:31Z</time>
  <course>186.29</course>
  <speed>0.022360679774997897</speed>
  <fix>3d</fix>
</trkpt>
<trkpt lat="33.810313" lon="-118.393867">
  <ele>-0.12</ele>
  <time>2026-09-02T22:06:31Z</time>
  <course>0.0</course>
  <speed>0.0</speed>
  <fix>3d</fix>
</trkpt>
<trkpt lat="33.8103132" lon="-118.3938671">
  <ele>-0.13</ele>
  <time>2026-09-02T22:06:31Z</time>
  <course>186.29</course>
  <speed>0.022360679774997897</speed>
  <fix>3d</fix>
</trkpt>
<trkpt lat="33.810313" lon="-118.393867">
  <ele>-0.12</ele>
  <time>2026-09-02T22:06:31Z</time>
  <course>0.0</course>
  <speed>0.0</speed>
  <fix>3d</fix>
</trkpt>
<trkpt lat="33.8103132" lon="-118.3938672">
  <ele>-0.13</ele>
  <time>2026-09-02T22:06:31Z</time>
  <course>186.29</course>
  <speed>0.022360679774997897</speed>
  <fix>3d</fix>
</trkpt>
<trkpt lat="33.810313" lon="-118.393867">
  <ele>-0.12</ele>
  <time>2026-09-02T22:06:31Z</time>
  <course>0.0</course>
  <speed>0.0</speed>
  <fix>3d</fix>
</trkpt>
<trkpt lat="33.8103132" lon="-118.3938671">
  <ele>-0.129</ele>
  <time>2026-09-02T22:06:31Z</time>
  <course>186.29</course>
  <speed>0.022360679774997897</speed>
  <fix>3d</fix>
</trkpt>
<trkpt lat="33.810313" lon="-118.393867">
  <ele>-0.12</ele>
  <time>2026-09-02T22:06:31Z</time>
  <course>0.0</course>
  <speed>0.0</speed>
  <fix>3d</fix>
</trkpt>
<trkpt lat="33.8103132" lon="-118.3938672">
  <ele>-0.129</ele>
  <time>2026-09-02T22:06:31Z</time>
  <course>186.29</course>
  <speed>0.022360679774997897</speed>
  <fix>3d</fix>
</trkpt>
<trkpt lat="33.810313" lon="-118.393867">
  <ele>-0.12</ele>
  <time>2026-09-02T22:06:31Z</time>
  <course>0.0</course>
  <speed>0.0</speed>
  <fix>3d</fix>
</trkpt>
<trkpt lat="33.8103132" lon="-118.3938671">
  <ele>-0.129</ele>
  <time>2026-09-02T22:06:31Z</time>
  <course>186.28</course>
  <speed>0.022360679774997897</speed>
  <fix>3d</fix>
</trkpt>
<trkpt lat="33.810313" lon="-118.393867">
  <ele>-0.12</ele>
  <time>2026-09-02T22:06:31Z</time>
  <course>0.0</course>
  <speed>0.0</speed>
  <fix>3d</fix>
</trkpt>
<trkpt lat="33.8103132" lon="-118.3938672">
  <ele>-0.128</ele>
  <time>2026-09-02T22:06:31Z</time>
  <course>186.28</course>
  <speed>0.022360679774997897</speed>
  <fix>3d</fix>
</trkpt>
<trkpt lat="33.810313" lon="-118.393867">
  <ele>-0.12</ele>
  <time>2026-09-02T22:06:31Z</time>
  <course>0.0</course>
  <speed>0.0</speed>
  <fix>3d</fix>
</trkpt>
<trkpt lat="33.8103132" lon="-118.3938671">
  <ele>-0.127</ele>
  <time>2026-09-02T22:06:31Z</time>
  <course>186.28</course>
  <speed>0.022360679774997897</speed>
  <fix>3d</fix>
</trkpt>
<trkpt lat="33.810313" lon="-118.393867">
  <ele>-0.12</ele>
  <time>2026-09-02T22:06:31Z</time>
  <course>0.0</course>
  <speed>0.0</speed>
  <fix>3d</fix>
</trkpt>
<trkpt lat="33.8103132" lon="-118.3938672">
  <ele>-0.127</ele>
  <time>2026-09-02T22:06:31Z</time>
  <course>186.28</course>
  <speed>0.022360679774997897</speed>
  <fix>3d</fix>
</trkpt>
<trkpt lat="33.810313" lon="-118.393867">
  <ele>-0.12</ele>
  <time>2026-09-02T22:06:31Z</time>
  <course>0.0</course>
  <speed>0.0</speed>
  <fix>3d</fix>
</trkpt>
<trkpt lat="33.8103132" lon="-118.3938671">
  <ele>-0.126</ele>
  <time>2026-09-02T22:06:31Z</time>
  <course>186.28</course>
  <speed>0.022360679774997897</speed>
  <fix>3d</fix>
</trkpt>
<trkpt lat="33.810313" lon="-118.393867">
  <ele>-0.12</ele>
  <time>2026-09-02T22:06:31Z</time>
  <course>0.0</course>
  <speed>0.0</speed>
  <fix>3d</fix>
</trkpt>
<trkpt lat="33.8103132" lon="-118.3938672">
  <ele>-0.126</ele>
  <time>2026-09-02T22:06:31Z</time>
  <course>186.28</course>
  <speed>0.022360679774997897</speed>
  <fix>3d</fix>
</trkpt>
<trkpt lat="33.810313" lon="-118.393867">
  <ele>-0.12</ele>
  <time>2026-09-02T22:06:31Z</time>
  <course>0.0</course>
  <speed>0.0</speed>
  <fix>3d</fix>
</trkpt>
<trkpt lat="33.8103132" lon="-118.3938671">
  <ele>-0.126</ele>
  <time>2026-09-02T22:06:31Z</time>
  <course>186.28</course>
  <speed>0.022360679774997897</speed>
  <fix>3d</fix>
</trkpt>
<trkpt lat="33.810313" lon="-118.393867">
  <ele>-0.12</ele>
  <time>2026-09-02T22:06:31Z</time>
  <course>0.0</course>
  <speed>0.0</speed>
  <fix>3d</fix>
</trkpt>
<trkpt lat="33.8103132" lon="-118.3938672">
  <ele>-0.125</ele>
  <time>2026-09-02T22:06:31Z</time>
  <course>186.28</course>
  <speed>0.022360679774997897</speed>
  <fix>3d</fix>
</trkpt>
<trkpt lat="33.810313" lon="-118.393867">
  <ele>-0.12</ele>
  <time>2026-09-02T22:06:31Z</time>
  <course>0.0</course>
  <speed>0.0</speed>
  <fix>3d</fix>
</trkpt>
<trkpt lat="33.8103132" lon="-118.3938671">
  <ele>-0.123</ele>
  <time>2026-09-02T22:06:31Z</time>
  <course>186.28</course>
  <speed>0.022360679774997897</speed>
  <fix>3d</fix>
</trkpt>
<trkpt lat="33.810313" lon="-118.393867">
  <ele>-0.12</ele>
  <time>2026-09-02T22:06:31Z</time>
  <course>0.0</course>
  <speed>0.0</speed>
  <fix>3d</fix>
</trkpt>
<trkpt lat="33.8103132" lon="-118.3938672">
  <ele>-0.122</ele>
  <time>2026-09-02T22:06:31Z</time>
  <course>186.28</course>
  <speed>0.022360679774997897</speed>
  <fix>3d</fix>
</trkpt>
<trkpt lat="33.810313" lon="-118.393867">
  <ele>-0.12</ele>
  <time>2026-09-02T22:06:31Z</time>
  <course>0.0</course>
  <speed>0.0</speed>
  <fix>3d</fix>
</trkpt>
<trkpt lat="33.8103132" lon="-118.3938671">
  <ele>-0.121</ele>
  <time>2026-09-02T22:06:31Z</time>
  <course>186.28</course>
  <speed>0.022360679774997897</speed>
  <fix>3d</fix>
</trkpt>
<trkpt lat="33.810313" lon="-118.393867">
  <ele>-0.12</ele>
  <time>2026-09-02T22:06:31Z</time>
  <course>0.0</course>
  <speed>0.0</speed>
  <fix>3d</fix>
</trkpt>
<trkpt lat="33.8103132" lon="-118.3938672">
  <ele>-0.12</ele>
  <time>2026-09-02T22:06:31Z</time>
  <course>186.28</course>
  <speed>0.022360679774997897</speed>
  <fix>3d</fix>
</trkpt>
<trkpt lat="33.810313" lon="-118.393867">
  <ele>-0.12</ele>
  <time>2026-09-02T22:06:31Z</time>
  <course>0.0</course>
  <speed>0.0</speed>
  <fix>3d</fix>
</trkpt>
<trkpt lat="33.8103132" lon="-118.3938671">
  <ele>-0.12</ele>
  <time>2026-09-02T22:06:31Z</time>
  <course>186.28</course>
  <speed>0.022360679774997897</speed>
  <fix>3d</fix>
</trkpt>
<trkpt lat="33.810313" lon="-118.393867">
  <ele>-0.12</ele>
  <time>2026-09-02T22:06:31Z</time>
  <course>0.0</course>
  <speed>0.0</speed>
  <fix>3d</fix>
</trkpt>
<trkpt lat="33.8103132" lon="-118.3938672">
  <ele>-0.12</ele>
  <time>2026-09-02T22:06:31Z</time>
  <course>186.28</course>
  <speed>0.022360679774997897</speed>
  <fix>3d</fix>
</trkpt>
<trkpt lat="33.810313" lon="-118.393867">
  <ele>-0.12</ele>
  <time>2026-09-02T22:06:31Z</time>
  <course>0.0</course>
  <speed>0.0</speed>
  <fix>3d</fix>
</trkpt>
<trkpt lat="33.8103132" lon="-118.3938671">
  <ele>-0.121</ele>
  <time>2026-09-02T22:06:31Z</time>
  <course>186.28</course>
  <speed>0.022360679774997897</speed>
  <fix>3d</fix>
</trkpt>
<trkpt lat="33.810313" lon="-118.393867">
  <ele>-0.12</ele>
  <time>2026-09-02T22:06:31Z</time>
  <course>0.0</course>
  <speed>0.0</speed>
  <fix>3d</fix>
</trkpt>
<trkpt lat="33.8103132" lon="-118.3938672">
  <ele>-0.123</ele>
  <time>2026-09-02T22:06:31Z</time>
  <course>186.27</course>
  <speed>0.022360679774997897</speed>
  <fix>3d</fix>
</trkpt>
<trkpt lat="33.810313" lon="-118.393867">
  <ele>-0.12</ele>
  <time>2026-09-02T22:06:31Z</time>
  <course>0.0</course>
  <speed>0.0</speed>
  <fix>3d</fix>
</trkpt>
<trkpt lat="33.8103132" lon="-118.3938671">
  <ele>-0.125</ele>
  <time>2026-09-02T22:06:31Z</time>
  <course>186.27</course>
  <speed>0.022360679774997897</speed>
  <fix>3d</fix>
</trkpt>
<trkpt lat="33.810313" lon="-118.393867">
  <ele>-0.12</ele>
  <time>2026-09-02T22:06:31Z</time>
  <course>0.0</course>
  <speed>0.0</speed>
  <fix>3d</fix>
</trkpt>
<trkpt lat="33.8103132" lon="-118.3938672">
  <ele>-0.127</ele>
  <time>2026-09-02T22:06:31Z</time>
  <course>186.27</course>
  <speed>0.022360679774997897</speed>
  <fix>3d</fix>
</trkpt>
<trkpt lat="33.810313" lon="-118.393867">
  <ele>-0.12</ele>
  <time>2026-09-02T22:06:31Z</time>
  <course>0.0</course>
  <speed>0.0</speed>
  <fix>3d</fix>
</trkpt>
<trkpt lat="33.8103132" lon="-118.3938671">
  <ele>-0.128</ele>
  <time>2026-09-02T22:06:31Z</time>
  <course>186.27</course>
  <speed>0.022360679774997897</speed>
  <fix>3d</fix>
</trkpt>
<trkpt lat="33.810313" lon="-118.393867">
  <ele>-0.12</ele>
  <time>2026-09-02T22:06:31Z</time>
  <course>0.0</course>
  <speed>0.0</speed>
  <fix>3d</fix>
</trkpt>
<trkpt lat="33.8103132" lon="-118.3938672">
  <ele>-0.129</ele>
  <time>2026-09-02T22:06:31Z</time>
  <course>186.27</course>
  <speed>0.022360679774997897</speed>
  <fix>3d</fix>
</trkpt>
<trkpt lat="33.810313" lon="-118.393867">
  <ele>-0.12</ele>
  <time>2026-09-02T22:06:31Z</time>
  <course>0.0</course>
  <speed>0.0</speed>
  <fix>3d</fix>
</trkpt>
<trkpt lat="33.8103132" lon="-118.3938671">
  <ele>-0.13</ele>
  <time>2026-09-02T22:06:31Z</time>
  <course>186.27</course>
  <speed>0.022360679774997897</speed>
  <fix>3d</fix>
</trkpt>
<trkpt lat="33.810313" lon="-118.393867">
  <ele>-0.12</ele>
  <time>2026-09-02T22:06:31Z</time>
  <course>0.0</course>
  <speed>0.0</speed>
  <fix>3d</fix>
</trkpt>
<trkpt lat="33.8103132" lon="-118.3938672">
  <ele>-0.132</ele>
  <time>2026-09-02T22:06:31Z</time>
  <course>186.27</course>
  <speed>0.022360679774997897</speed>
  <fix>3d</fix>
</trkpt>
<trkpt lat="33.810313" lon="-118.393867">
  <ele>-0.12</ele>
  <time>2026-09-02T22:06:31Z</time>
  <course>0.0</course>
  <speed>0.0</speed>
  <fix>3d</fix>
</trkpt>
<trkpt lat="33.8103132" lon="-118.3938671">
  <ele>-0.134</ele>
  <time>2026-09-02T22:06:31Z</time>
  <course>186.27</course>
  <speed>0.022360679774997897</speed>
  <fix>3d</fix>
</trkpt>
<trkpt lat="33.810313" lon="-118.393867">
  <ele>-0.12</ele>
  <time>2026-09-02T22:06:31Z</time>
  <course>0.0</course>
  <speed>0.0</speed>
  <fix>3d</fix>
</trkpt>
<trkpt lat="33.8103132" lon="-118.3938672">
  <ele>-0.134</ele>
  <time>2026-09-02T22:06:31Z</time>
  <course>186.27</course>
  <speed>0.022360679774997897</speed>
  <fix>3d</fix>
</trkpt>
<trkpt lat="33.810313" lon="-118.393867">
  <ele>-0.12</ele>
  <time>2026-09-02T22:06:31Z</time>
  <course>0.0</course>
  <speed>0.0</speed>
  <fix>3d</fix>
</trkpt>
<trkpt lat="33.8103132" lon="-118.3938671">
  <ele>-0.135</ele>
  <time>2026-09-02T22:06:31Z</time>
  <course>186.27</course>
  <speed>0.022360679774997897</speed>
  <fix>3d</fix>
</trkpt>
<trkpt lat="33.810313" lon="-118.393867">
  <ele>-0.12</ele>
  <time>2026-09-02T22:06:31Z</time>
  <course>0.0</course>
  <speed>0.0</speed>
  <fix>3d</fix>
</trkpt>
<trkpt lat="33.8103132" lon="-118.3938672">
  <ele>-0.136</ele>
  <time>2026-09-02T22:06:31Z</time>
  <course>186.27</course>
  <speed>0.022360679774997897</speed>
  <fix>3d</fix>
</trkpt>
<trkpt lat="33.810313" lon="-118.393867">
  <ele>-0.12</ele>
  <time>2026-09-02T22:06:31Z</time>
  <course>0.0</course>
  <speed>0.0</speed>
  <fix>3d</fix>
</trkpt>
<trkpt lat="33.8103132" lon="-118.3938671">
  <ele>-0.137</ele>
  <time>2026-09-02T22:06:31Z</time>
  <course>186.27</course>
  <speed>0.022360679774997897</speed>
  <fix>3d</fix>
</trkpt>
<trkpt lat="33.810313" lon="-118.393867">
  <ele>-0.12</ele>
  <time>2026-09-02T22:06:31Z</time>
  <course>0.0</course>
  <speed>0.0</speed>
  <fix>3d</fix>
</trkpt>
<trkpt lat="33.8103132" lon="-118.3938671">
  <ele>-0.137</ele>
  <time>2026-09-02T22:06:31Z</time>
  <course>186.27</course>
  <speed>0.022360679774997897</speed>
  <fix>3d</fix>
</trkpt>
<trkpt lat="33.810313" lon="-118.393867">
  <ele>-0.12</ele>
  <time>2026-09-02T22:06:31Z</time>
  <course>0.0</course>
  <speed>0.0</speed>
  <fix>3d</fix>
</trkpt>
<trkpt lat="33.8103132" lon="-118.3938671">
  <ele>-0.137</ele>
  <time>2026-09-02T22:06:31Z</time>
  <course>186.27</course>
  <speed>0.022360679774997897</speed>
  <fix>3d</fix>
</trkpt>
<trkpt lat="33.810313" lon="-118.393867">
  <ele>-0.12</ele>
  <time>2026-09-02T22:06:31Z</time>
  <course>0.0</course>
  <speed>0.0</speed>
  <fix>3d</fix>
</trkpt>
<trkpt lat="33.8103132" lon="-118.3938671">
  <ele>-0.136</ele>
  <time>2026-09-02T22:06:31Z</time>
  <course>186.27</course>
  <speed>0.022360679774997897</speed>
  <fix>3d</fix>
</trkpt>
<trkpt lat="33.810313" lon="-118.393867">
  <ele>-0.12</ele>
  <time>2026-09-02T22:06:31Z</time>
  <course>0.0</course>
  <speed>0.0</speed>
  <fix>3d</fix>
</trkpt>
<trkpt lat="33.8103132" lon="-118.3938671">
  <ele>-0.135</ele>
  <time>2026-09-02T22:06:31Z</time>
  <course>186.27</course>
  <speed>0.022360679774997897</speed>
  <fix>3d</fix>
</trkpt>
<trkpt lat="33.810313" lon="-118.393867">
  <ele>-0.12</ele>
  <time>2026-09-02T22:06:31Z</time>
  <course>0.0</course>
  <speed>0.0</speed>
  <fix>3d</fix>
</trkpt>
<trkpt lat="33.8103132" lon="-118.3938671">
  <ele>-0.134</ele>
  <time>2026-09-02T22:06:31Z</time>
  <course>186.27</course>
  <speed>0.022360679774997897</speed>
  <fix>3d</fix>
</trkpt>
<trkpt lat="33.810313" lon="-118.393867">
  <ele>-0.12</ele>
  <time>2026-09-02T22:06:31Z</time>
  <course>0.0</course>
  <speed>0.0</speed>
  <fix>3d</fix>
</trkpt>
<trkpt lat="33.8103132" lon="-118.3938671">
  <ele>-0.133</ele>
  <time>2026-09-02T22:06:31Z</time>
  <course>186.27</course>
  <speed>0.022360679774997897</speed>
  <fix>3d</fix>
</trkpt>
<trkpt lat="33.810313" lon="-118.393867">
  <ele>-0.12</ele>
  <time>2026-09-02T22:06:31Z</time>
  <course>0.0</course>
  <speed>0.0</speed>
  <fix>3d</fix>
</trkpt>
<trkpt lat="33.8103132" lon="-118.3938671">
  <ele>-0.132</ele>
  <time>2026-09-02T22:06:31Z</time>
  <course>186.27</course>
  <speed>0.022360679774997897</speed>
  <fix>3d</fix>
</trkpt>
<trkpt lat="33.810313" lon="-118.393867">
  <ele>-0.12</ele>
  <time>2026-09-02T22:06:31Z</time>
  <course>0.0</course>
  <speed>0.0</speed>
  <fix>3d</fix>
</trkpt>
<trkpt lat="33.8103132" lon="-118.3938671">
  <ele>-0.132</ele>
  <time>2026-09-02T22:06:31Z</time>
  <course>186.27</course>
  <speed>0.022360679774997897</speed>
  <fix>3d</fix>
</trkpt>
<trkpt lat="33.810313" lon="-118.393867">
  <ele>-0.12</ele>
  <time>2026-09-02T22:06:31Z</time>
  <course>0.0</course>
  <speed>0.0</speed>
  <fix>3d</fix>
</trkpt>
<trkpt lat="33.8103132" lon="-118.3938672">
  <ele>-0.133</ele>
  <time>2026-09-02T22:06:31Z</time>
  <course>186.27</course>
  <speed>0.022360679774997897</speed>
  <fix>3d</fix>
</trkpt>
<trkpt lat="33.810313" lon="-118.393867">
  <ele>-0.12</ele>
  <time>2026-09-02T22:06:31Z</time>
  <course>0.0</course>
  <speed>0.0</speed>
  <fix>3d</fix>
</trkpt>
<trkpt lat="33.8103132" lon="-118.3938672">
  <ele>-0.133</ele>
  <time>2026-09-02T22:06:31Z</time>
  <course>186.26</course>
  <speed>0.022360679774997897</speed>
  <fix>3d</fix>
</trkpt>
<trkpt lat="33.810313" lon="-118.393867">
  <ele>-0.12</ele>
  <time>2026-09-02T22:06:31Z</time>
  <course>0.0</course>
  <speed>0.0</speed>
  <fix>3d</fix>
</trkpt>
<trkpt lat="33.8103132" lon="-118.3938672">
  <ele>-0.132</ele>
  <time>2026-09-02T22:06:31Z</time>
  <course>186.26</course>
  <speed>0.022360679774997897</speed>
  <fix>3d</fix>
</trkpt>
<trkpt lat="33.810313" lon="-118.393867">
  <ele>-0.12</ele>
  <time>2026-09-02T22:06:31Z</time>
  <course>0.0</course>
  <speed>0.0</speed>
  <fix>3d</fix>
</trkpt>
<trkpt lat="33.8103132" lon="-118.3938672">
  <ele>-0.131</ele>
  <time>2026-09-02T22:06:31Z</time>
  <course>186.26</course>
  <speed>0.022360679774997897</speed>
  <fix>3d</fix>
</trkpt>
<trkpt lat="33.810313" lon="-118.393867">
  <ele>-0.12</ele>
  <time>2026-09-02T22:06:31Z</time>
  <course>0.0</course>
  <speed>0.0</speed>
  <fix>3d</fix>
</trkpt>
<trkpt lat="33.8103132" lon="-118.3938672">
  <ele>-0.13</ele>
  <time>2026-09-02T22:06:31Z</time>
  <course>186.26</course>
  <speed>0.022360679774997897</speed>
  <fix>3d</fix>
</trkpt>
<trkpt lat="33.810313" lon="-118.393867">
  <ele>-0.12</ele>
  <time>2026-09-02T22:06:31Z</time>
  <course>0.0</course>
  <speed>0.0</speed>
  <fix>3d</fix>
</trkpt>
<trkpt lat="33.8103132" lon="-118.3938672">
  <ele>-0.13</ele>
  <time>2026-09-02T22:06:31Z</time>
  <course>186.26</course>
  <speed>0.022360679774997897</speed>
  <fix>3d</fix>
</trkpt>
<trkpt lat="33.810313" lon="-118.393867">
  <ele>-0.12</ele>
  <time>2026-09-02T22:06:31Z</time>
  <course>0.0</course>
  <speed>0.0</speed>
  <fix>3d</fix>
</trkpt>
<trkpt lat="33.8103132" lon="-118.3938672">
  <ele>-0.13</ele>
  <time>2026-09-02T22:06:31Z</time>
  <course>186.26</course>
  <speed>0.022360679774997897</speed>
  <fix>3d</fix>
</trkpt>
<trkpt lat="33.810313" lon="-118.393867">
  <ele>-0.12</ele>
  <time>2026-09-02T22:06:31Z</time>
  <course>0.0</course>
  <speed>0.0</speed>
  <fix>3d</fix>
</trkpt>
<trkpt lat="33.8103132" lon="-118.3938672">
  <ele>-0.13</ele>
  <time>2026-09-02T22:06:31Z</time>
  <course>186.26</course>
  <speed>0.022360679774997897</speed>
  <fix>3d</fix>
</trkpt>
<trkpt lat="33.810313" lon="-118.393867">
  <ele>-0.12</ele>
  <time>2026-09-02T22:06:31Z</time>
  <course>0.0</course>
  <speed>0.0</speed>
  <fix>3d</fix>
</trkpt>
<trkpt lat="33.8103132" lon="-118.3938672">
  <ele>-0.129</ele>
  <time>2026-09-02T22:06:31Z</time>
  <course>186.26</course>
  <speed>0.022360679774997897</speed>
  <fix>3d</fix>
</trkpt>
<trkpt lat="33.810313" lon="-118.393867">
  <ele>-0.12</ele>
  <time>2026-09-02T22:06:31Z</time>
  <course>0.0</course>
  <speed>0.0</speed>
  <fix>3d</fix>
</trkpt>
<trkpt lat="33.8103132" lon="-118.3938672">
  <ele>-0.129</ele>
  <time>2026-09-02T22:06:31Z</time>
  <course>186.26</course>
  <speed>0.022360679774997897</speed>
  <fix>3d</fix>
</trkpt>
<trkpt lat="33.810313" lon="-118.393867">
  <ele>-0.12</ele>
  <time>2026-09-02T22:06:31Z</time>
  <course>0.0</course>
  <speed>0.0</speed>
  <fix>3d</fix>
</trkpt>
<trkpt lat="33.8103132" lon="-118.3938672">
  <ele>-0.129</ele>
  <time>2026-09-02T22:06:31Z</time>
  <course>186.26</course>
  <speed>0.022360679774997897</speed>
  <fix>3d</fix>
</trkpt>
<trkpt lat="33.810313" lon="-118.393867">
  <ele>-0.12</ele>
  <time>2026-09-02T22:06:31Z</time>
  <course>0.0</course>
  <speed>0.0</speed>
  <fix>3d</fix>
</trkpt>
<trkpt lat="33.8103132" lon="-118.3938671">
  <ele>-0.128</ele>
  <time>2026-09-02T22:06:31Z</time>
  <course>186.26</course>
  <speed>0.022360679774997897</speed>
  <fix>3d</fix>
</trkpt>
<trkpt lat="33.810313" lon="-118.393867">
  <ele>-0.12</ele>
  <time>2026-09-02T22:06:31Z</time>
  <course>0.0</course>
  <speed>0.0</speed>
  <fix>3d</fix>
</trkpt>
<trkpt lat="33.8103132" lon="-118.3938671">
  <ele>-0.126</ele>
  <time>2026-09-02T22:06:31Z</time>
  <course>186.26</course>
  <speed>0.022360679774997897</speed>
  <fix>3d</fix>
</trkpt>
<trkpt lat="33.810313" lon="-118.393867">
  <ele>-0.12</ele>
  <time>2026-09-02T22:06:31Z</time>
  <course>0.0</course>
  <speed>0.0</speed>
  <fix>3d</fix>
</trkpt>
<trkpt lat="33.8103132" lon="-118.3938671">
  <ele>-0.123</ele>
  <time>2026-09-02T22:06:31Z</time>
  <course>186.26</course>
  <speed>0.022360679774997897</speed>
  <fix>3d</fix>
</trkpt>
<trkpt lat="33.810313" lon="-118.393867">
  <ele>-0.12</ele>
  <time>2026-09-02T22:06:31Z</time>
  <course>0.0</course>
  <speed>0.0</speed>
  <fix>3d</fix>
</trkpt>
<trkpt lat="33.8103132" lon="-118.3938671">
  <ele>-0.121</ele>
  <time>2026-09-02T22:06:31Z</time>
  <course>186.26</course>
  <speed>0.022360679774997897</speed>
  <fix>3d</fix>
</trkpt>
<trkpt lat="33.810313" lon="-118.393867">
  <ele>-0.12</ele>
  <time>2026-09-02T22:06:31Z</time>
  <course>0.0</course>
  <speed>0.0</speed>
  <fix>3d</fix>
</trkpt>
<trkpt lat="33.8103132" lon="-118.3938671">
  <ele>-0.118</ele>
  <time>2026-09-02T22:06:31Z</time>
  <course>186.26</course>
  <speed>0.022360679774997897</speed>
  <fix>3d</fix>
</trkpt>
<trkpt lat="33.810313" lon="-118.393867">
  <ele>-0.12</ele>
  <time>2026-09-02T22:06:31Z</time>
  <course>0.0</course>
  <speed>0.0</speed>
  <fix>3d</fix>
</trkpt>
<trkpt lat="33.8103132" lon="-118.3938671">
  <ele>-0.115</ele>
  <time>2026-09-02T22:06:31Z</time>
  <course>186.26</course>
  <speed>0.022360679774997897</speed>
  <fix>3d</fix>
</trkpt>
<trkpt lat="33.810313" lon="-118.393867">
  <ele>-0.12</ele>
  <time>2026-09-02T22:06:31Z</time>
  <course>0.0</course>
  <speed>0.0</speed>
  <fix>3d</fix>
</trkpt>
<trkpt lat="33.8103132" lon="-118.3938671">
  <ele>-0.115</ele>
  <time>2026-09-02T22:06:31Z</time>
  <course>186.26</course>
  <speed>0.022360679774997897</speed>
  <fix>3d</fix>
</trkpt>
<trkpt lat="33.810313" lon="-118.393867">
  <ele>-0.12</ele>
  <time>2026-09-02T22:06:31Z</time>
  <course>0.0</course>
  <speed>0.0</speed>
  <fix>3d</fix>
</trkpt>
<trkpt lat="33.8103132" lon="-118.3938671">
  <ele>-0.116</ele>
  <time>2026-09-02T22:06:31Z</time>
  <course>186.26</course>
  <speed>0.022360679774997897</speed>
  <fix>3d</fix>
</trkpt>
<trkpt lat="33.810313" lon="-118.393867">
  <ele>-0.12</ele>
  <time>2026-09-02T22:06:31Z</time>
  <course>0.0</course>
  <speed>0.0</speed>
  <fix>3d</fix>
</trkpt>
<trkpt lat="33.8103132" lon="-118.3938671">
  <ele>-0.118</ele>
  <time>2026-09-02T22:06:31Z</time>
  <course>186.26</course>
  <speed>0.022360679774997897</speed>
  <fix>3d</fix>
</trkpt>
<trkpt lat="33.810313" lon="-118.393867">
  <ele>-0.12</ele>
  <time>2026-09-02T22:06:31Z</time>
  <course>0.0</course>
  <speed>0.0</speed>
  <fix>3d</fix>
</trkpt>
<trkpt lat="33.8103132" lon="-118.3938671">
  <ele>-0.12</ele>
  <time>2026-09-02T22:06:31Z</time>
  <course>186.26</course>
  <speed>0.022360679774997897</speed>
  <fix>3d</fix>
</trkpt>
<trkpt lat="33.810313" lon="-118.393867">
  <ele>-0.12</ele>
  <time>2026-09-02T22:06:31Z</time>
  <course>0.0</course>
  <speed>0.0</speed>
  <fix>3d</fix>
</trkpt>
<trkpt lat="33.8103132" lon="-118.3938671">
  <ele>-0.121</ele>
  <time>2026-09-02T22:06:31Z</time>
  <course>186.26</course>
  <speed>0.022360679774997897</speed>
  <fix>3d</fix>
</trkpt>
<trkpt lat="33.810313" lon="-118.393867">
  <ele>-0.12</ele>
  <time>2026-09-02T22:06:31Z</time>
  <course>0.0</course>
  <speed>0.0</speed>
  <fix>3d</fix>
</trkpt>
<trkpt lat="33.8103132" lon="-118.3938671">
  <ele>-0.121</ele>
  <time>2026-09-02T22:06:31Z</time>
  <course>186.26</course>
  <speed>0.022360679774997897</speed>
  <fix>3d</fix>
</trkpt>
<trkpt lat="33.810313" lon="-118.393867">
  <ele>-0.12</ele>
  <time>2026-09-02T22:06:31Z</time>
  <course>0.0</course>
  <speed>0.0</speed>
  <fix>3d</fix>
</trkpt>
<trkpt lat="33.8103132" lon="-118.3938671">
  <ele>-0.122</ele>
  <time>2026-09-02T22:06:31Z</time>
  <course>186.26</course>
  <speed>0.022360679774997897</speed>
  <fix>3d</fix>
</trkpt>
<trkpt lat="33.810313" lon="-118.393867">
  <ele>-0.12</ele>
  <time>2026-09-02T22:06:31Z</time>
  <course>0.0</course>
  <speed>0.0</speed>
  <fix>3d</fix>
</trkpt>
<trkpt lat="33.8103132" lon="-118.3938671">
  <ele>-0.122</ele>
  <time>2026-09-02T22:06:31Z</time>
  <course>186.25</course>
  <speed>0.022360679774997897</speed>
  <fix>3d</fix>
</trkpt>
<trkpt lat="33.810313" lon="-118.393867">
  <ele>-0.12</ele>
  <time>2026-09-02T22:06:31Z</time>
  <course>0.0</course>
  <speed>0.0</speed>
  <fix>3d</fix>
</trkpt>
<trkpt lat="33.8103132" lon="-118.3938671">
  <ele>-0.122</ele>
  <time>2026-09-02T22:06:31Z</time>
  <course>186.25</course>
  <speed>0.022360679774997897</speed>
  <fix>3d</fix>
</trkpt>
<trkpt lat="33.810313" lon="-118.393867">
  <ele>-0.12</ele>
  <time>2026-09-02T22:06:31Z</time>
  <course>0.0</course>
  <speed>0.0</speed>
  <fix>3d</fix>
</trkpt>
<trkpt lat="33.8103132" lon="-118.3938671">
  <ele>-0.121</ele>
  <time>2026-09-02T22:06:31Z</time>
  <course>186.25</course>
  <speed>0.022360679774997897</speed>
  <fix>3d</fix>
</trkpt>
<trkpt lat="33.810313" lon="-118.393867">
  <ele>-0.12</ele>
  <time>2026-09-02T22:06:31Z</time>
  <course>0.0</course>
  <speed>0.0</speed>
  <fix>3d</fix>
</trkpt>
<trkpt lat="33.8103132" lon="-118.3938671">
  <ele>-0.12</ele>
  <time>2026-09-02T22:06:31Z</time>
  <course>186.25</course>
  <speed>0.022360679774997897</speed>
  <fix>3d</fix>
</trkpt>
<trkpt lat="33.810313" lon="-118.393867">
  <ele>-0.12</ele>
  <time>2026-09-02T22:06:31Z</time>
  <course>0.0</course>
  <speed>0.0</speed>
  <fix>3d</fix>
</trkpt>
<trkpt lat="33.8103132" lon="-118.3938671">
  <ele>-0.12</ele>
  <time>2026-09-02T22:06:31Z</time>
  <course>186.25</course>
  <speed>0.022360679774997897</speed>
  <fix>3d</fix>
</trkpt>
<trkpt lat="33.810313" lon="-118.393867">
  <ele>-0.12</ele>
  <time>2026-09-02T22:06:31Z</time>
  <course>0.0</course>
  <speed>0.0</speed>
  <fix>3d</fix>
</trkpt>
<trkpt lat="33.8103132" lon="-118.3938671">
  <ele>-0.121</ele>
  <time>2026-09-02T22:06:31Z</time>
  <course>186.25</course>
  <speed>0.022360679774997897</speed>
  <fix>3d</fix>
</trkpt>
<trkpt lat="33.810313" lon="-118.393867">
  <ele>-0.12</ele>
  <time>2026-09-02T22:06:31Z</time>
  <course>0.0</course>
  <speed>0.0</speed>
  <fix>3d</fix>
</trkpt>
<trkpt lat="33.8103132" lon="-118.3938671">
  <ele>-0.122</ele>
  <time>2026-09-02T22:06:31Z</time>
  <course>186.25</course>
  <speed>0.022360679774997897</speed>
  <fix>3d</fix>
</trkpt>
<trkpt lat="33.810313" lon="-118.393867">
  <ele>-0.12</ele>
  <time>2026-09-02T22:06:31Z</time>
  <course>0.0</course>
  <speed>0.0</speed>
  <fix>3d</fix>
</trkpt>
<trkpt lat="33.8103132" lon="-118.3938671">
  <ele>-0.122</ele>
  <time>2026-09-02T22:06:31Z</time>
  <course>186.25</course>
  <speed>0.022360679774997897</speed>
  <fix>3d</fix>
</trkpt>
<trkpt lat="33.810313" lon="-118.393867">
  <ele>-0.12</ele>
  <time>2026-09-02T22:06:31Z</time>
  <course>0.0</course>
  <speed>0.0</speed>
  <fix>3d</fix>
</trkpt>
<trkpt lat="33.8103132" lon="-118.3938671">
  <ele>-0.122</ele>
  <time>2026-09-02T22:06:31Z</time>
  <course>186.25</course>
  <speed>0.022360679774997897</speed>
  <fix>3d</fix>
</trkpt>
<trkpt lat="33.810313" lon="-118.393867">
  <ele>-0.12</ele>
  <time>2026-09-02T22:06:31Z</time>
  <course>0.0</course>
  <speed>0.0</speed>
  <fix>3d</fix>
</trkpt>
<trkpt lat="33.8103132" lon="-118.3938671">
  <ele>-0.123</ele>
  <time>2026-09-02T22:06:31Z</time>
  <course>186.25</course>
  <speed>0.022360679774997897</speed>
  <fix>3d</fix>
</trkpt>
<trkpt lat="33.810313" lon="-118.393867">
  <ele>-0.12</ele>
  <time>2026-09-02T22:06:31Z</time>
  <course>0.0</course>
  <speed>0.0</speed>
  <fix>3d</fix>
</trkpt>
<trkpt lat="33.8103132" lon="-118.3938671">
  <ele>-0.123</ele>
  <time>2026-09-02T22:06:31Z</time>
  <course>186.25</course>
  <speed>0.022360679774997897</speed>
  <fix>3d</fix>
</trkpt>
<trkpt lat="33.810313" lon="-118.393867">
  <ele>-0.12</ele>
  <time>2026-09-02T22:06:31Z</time>
  <course>0.0</course>
  <speed>0.0</speed>
  <fix>3d</fix>
</trkpt>
<trkpt lat="33.8103132" lon="-118.3938671">
  <ele>-0.122</ele>
  <time>2026-09-02T22:06:31Z</time>
  <course>186.25</course>
  <speed>0.022360679774997897</speed>
  <fix>3d</fix>
</trkpt>
<trkpt lat="33.810313" lon="-118.393867">
  <ele>-0.12</ele>
  <time>2026-09-02T22:06:31Z</time>
  <course>0.0</course>
  <speed>0.0</speed>
  <fix>3d</fix>
</trkpt>
<trkpt lat="33.8103132" lon="-118.3938671">
  <ele>-0.121</ele>
  <time>2026-09-02T22:06:31Z</time>
  <course>186.25</course>
  <speed>0.022360679774997897</speed>
  <fix>3d</fix>
</trkpt>
<trkpt lat="33.810313" lon="-118.393867">
  <ele>-0.12</ele>
  <time>2026-09-02T22:06:31Z</time>
  <course>0.0</course>
  <speed>0.0</speed>
  <fix>3d</fix>
</trkpt>
<trkpt lat="33.8103132" lon="-118.3938671">
  <ele>-0.121</ele>
  <time>2026-09-02T22:06:31Z</time>
  <course>186.25</course>
  <speed>0.022360679774997897</speed>
  <fix>3d</fix>
</trkpt>
<trkpt lat="33.810313" lon="-118.393867">
  <ele>-0.12</ele>
  <time>2026-09-02T22:06:31Z</time>
  <course>0.0</course>
  <speed>0.0</speed>
  <fix>3d</fix>
</trkpt>
<trkpt lat="33.8103132" lon="-118.3938671">
  <ele>-0.121</ele>
  <time>2026-09-02T22:06:31Z</time>
  <course>186.25</course>
  <speed>0.022360679774997897</speed>
  <fix>3d</fix>
</trkpt>
<trkpt lat="33.810313" lon="-118.393867">
  <ele>-0.12</ele>
  <time>2026-09-02T22:06:31Z</time>
  <course>0.0</course>
  <speed>0.0</speed>
  <fix>3d</fix>
</trkpt>
<trkpt lat="33.8103132" lon="-118.3938671">
  <ele>-0.12</ele>
  <time>2026-09-02T22:06:31Z</time>
  <course>186.25</course>
  <speed>0.022360679774997897</speed>
  <fix>3d</fix>
</trkpt>
<trkpt lat="33.810313" lon="-118.393867">
  <ele>-0.12</ele>
  <time>2026-09-02T22:06:31Z</time>
  <course>0.0</course>
  <speed>0.0</speed>
  <fix>3d</fix>
</trkpt>
<trkpt lat="33.8103132" lon="-118.3938671">
  <ele>-0.12</ele>
  <time>2026-09-02T22:06:31Z</time>
  <course>186.25</course>
  <speed>0.022360679774997897</speed>
  <fix>3d</fix>
</trkpt>
<trkpt lat="33.810313" lon="-118.393867">
  <ele>-0.12</ele>
  <time>2026-09-02T22:06:31Z</time>
  <course>0.0</course>
  <speed>0.0</speed>
  <fix>3d</fix>
</trkpt>
<trkpt lat="33.8103132" lon="-118.3938671">
  <ele>-0.121</ele>
  <time>2026-09-02T22:06:31Z</time>
  <course>186.25</course>
  <speed>0.022360679774997897</speed>
  <fix>3d</fix>
</trkpt>
<trkpt lat="33.810313" lon="-118.393867">
  <ele>-0.12</ele>
  <time>2026-09-02T22:06:31Z</time>
  <course>0.0</course>
  <speed>0.0</speed>
  <fix>3d</fix>
</trkpt>
<trkpt lat="33.8103132" lon="-118.3938671">
  <ele>-0.122</ele>
  <time>2026-09-02T22:06:31Z</time>
  <course>186.25</course>
  <speed>0.022360679774997897</speed>
  <fix>3d</fix>
</trkpt>
<trkpt lat="33.810313" lon="-118.393867">
  <ele>-0.12</ele>
  <time>2026-09-02T22:06:31Z</time>
  <course>0.0</course>
  <speed>0.0</speed>
  <fix>3d</fix>
</trkpt>
<trkpt lat="33.8103132" lon="-118.3938671">
  <ele>-0.125</ele>
  <time>2026-09-02T22:06:31Z</time>
  <course>186.25</course>
  <speed>0.022360679774997897</speed>
  <fix>3d</fix>
</trkpt>
<trkpt lat="33.810313" lon="-118.393867">
  <ele>-0.12</ele>
  <time>2026-09-02T22:06:31Z</time>
  <course>0.0</course>
  <speed>0.0</speed>
  <fix>3d</fix>
</trkpt>
<trkpt lat="33.8103132" lon="-118.3938671">
  <ele>-0.126</ele>
  <time>2026-09-02T22:06:31Z</time>
  <course>186.25</course>
  <speed>0.022360679774997897</speed>
  <fix>3d</fix>
</trkpt>
<trkpt lat="33.810313" lon="-118.393867">
  <ele>-0.12</ele>
  <time>2026-09-02T22:06:31Z</time>
  <course>0.0</course>
  <speed>0.0</speed>
  <fix>3d</fix>
</trkpt>
<trkpt lat="33.8103132" lon="-118.3938671">
  <ele>-0.126</ele>
  <time>2026-09-02T22:06:31Z</time>
  <course>186.25</course>
  <speed>0.022360679774997897</speed>
  <fix>3d</fix>
</trkpt>
<trkpt lat="33.810313" lon="-118.393867">
  <ele>-0.12</ele>
  <time>2026-09-02T22:06:31Z</time>
  <course>0.0</course>
  <speed>0.0</speed>
  <fix>3d</fix>
</trkpt>
<trkpt lat="33.8103132" lon="-118.3938671">
  <ele>-0.126</ele>
  <time>2026-09-02T22:06:31Z</time>
  <course>186.25</course>
  <speed>0.022360679774997897</speed>
  <fix>3d</fix>
</trkpt>
<trkpt lat="33.810313" lon="-118.393867">
  <ele>-0.12</ele>
  <time>2026-09-02T22:06:31Z</time>
  <course>0.0</course>
  <speed>0.0</speed>
  <fix>3d</fix>
</trkpt>
<trkpt lat="33.8103132" lon="-118.3938671">
  <ele>-0.126</ele>
  <time>2026-09-02T22:06:31Z</time>
  <course>186.24</course>
  <speed>0.022360679774997897</speed>
  <fix>3d</fix>
</trkpt>
<trkpt lat="33.810313" lon="-118.393867">
  <ele>-0.12</ele>
  <time>2026-09-02T22:06:31Z</time>
  <course>0.0</course>
  <speed>0.0</speed>
  <fix>3d</fix>
</trkpt>
<trkpt lat="33.8103132" lon="-118.3938671">
  <ele>-0.126</ele>
  <time>2026-09-02T22:06:31Z</time>
  <course>186.24</course>
  <speed>0.022360679774997897</speed>
  <fix>3d</fix>
</trkpt>
<trkpt lat="33.810313" lon="-118.393867">
  <ele>-0.12</ele>
  <time>2026-09-02T22:06:31Z</time>
  <course>0.0</course>
  <speed>0.0</speed>
  <fix>3d</fix>
</trkpt>
<trkpt lat="33.8103132" lon="-118.3938671">
  <ele>-0.127</ele>
  <time>2026-09-02T22:06:31Z</time>
  <course>186.24</course>
  <speed>0.022360679774997897</speed>
  <fix>3d</fix>
</trkpt>
<trkpt lat="33.810313" lon="-118.393867">
  <ele>-0.12</ele>
  <time>2026-09-02T22:06:31Z</time>
  <course>0.0</course>
  <speed>0.0</speed>
  <fix>3d</fix>
</trkpt>
<trkpt lat="33.8103132" lon="-118.3938671">
  <ele>-0.127</ele>
  <time>2026-09-02T22:06:31Z</time>
  <course>186.24</course>
  <speed>0.022360679774997897</speed>
  <fix>3d</fix>
</trkpt>
<trkpt lat="33.810313" lon="-118.393867">
  <ele>-0.12</ele>
  <time>2026-09-02T22:06:31Z</time>
  <course>0.0</course>
  <speed>0.0</speed>
  <fix>3d</fix>
</trkpt>
<trkpt lat="33.8103132" lon="-118.3938671">
  <ele>-0.127</ele>
  <time>2026-09-02T22:06:31Z</time>
  <course>186.24</course>
  <speed>0.022360679774997897</speed>
  <fix>3d</fix>
</trkpt>
<trkpt lat="33.810313" lon="-118.393867">
  <ele>-0.12</ele>
  <time>2026-09-02T22:06:31Z</time>
  <course>0.0</course>
  <speed>0.0</speed>
  <fix>3d</fix>
</trkpt>
<trkpt lat="33.8103132" lon="-118.3938671">
  <ele>-0.128</ele>
  <time>2026-09-02T22:06:31Z</time>
  <course>186.24</course>
  <speed>0.022360679774997897</speed>
  <fix>3d</fix>
</trkpt>
<trkpt lat="33.810313" lon="-118.393867">
  <ele>-0.12</ele>
  <time>2026-09-02T22:06:31Z</time>
  <course>0.0</course>
  <speed>0.0</speed>
  <fix>3d</fix>
</trkpt>
<trkpt lat="33.8103132" lon="-118.3938671">
  <ele>-0.128</ele>
  <time>2026-09-02T22:06:31Z</time>
  <course>186.24</course>
  <speed>0.022360679774997897</speed>
  <fix>3d</fix>
</trkpt>
<trkpt lat="33.810313" lon="-118.393867">
  <ele>-0.12</ele>
  <time>2026-09-02T22:06:31Z</time>
  <course>0.0</course>
  <speed>0.0</speed>
  <fix>3d</fix>
</trkpt>
<trkpt lat="33.8103132" lon="-118.3938671">
  <ele>-0.129</ele>
  <time>2026-09-02T22:06:31Z</time>
  <course>186.24</course>
  <speed>0.022360679774997897</speed>
  <fix>3d</fix>
</trkpt>
<trkpt lat="33.810313" lon="-118.393867">
  <ele>-0.12</ele>
  <time>2026-09-02T22:06:31Z</time>
  <course>0.0</course>
  <speed>0.0</speed>
  <fix>3d</fix>
</trkpt>
<trkpt lat="33.8103132" lon="-118.3938671">
  <ele>-0.129</ele>
  <time>2026-09-02T22:06:31Z</time>
  <course>186.24</course>
  <speed>0.022360679774997897</speed>
  <fix>3d</fix>
</trkpt>
<trkpt lat="33.810313" lon="-118.393867">
  <ele>-0.12</ele>
  <time>2026-09-02T22:06:31Z</time>
  <course>0.0</course>
  <speed>0.0</speed>
  <fix>3d</fix>
</trkpt>
<trkpt lat="33.8103132" lon="-118.3938671">
  <ele>-0.129</ele>
  <time>2026-09-02T22:06:31Z</time>
  <course>186.24</course>
  <speed>0.022360679774997897</speed>
  <fix>3d</fix>
</trkpt>
<trkpt lat="33.810313" lon="-118.393867">
  <ele>-0.12</ele>
  <time>2026-09-02T22:06:31Z</time>
  <course>0.0</course>
  <speed>0.0</speed>
  <fix>3d</fix>
</trkpt>
<trkpt lat="33.8103132" lon="-118.3938671">
  <ele>-0.13</ele>
  <time>2026-09-02T22:06:32Z</time>
  <course>186.24</course>
  <speed>0.022360679774997897</speed>
  <fix>3d</fix>
</trkpt>
<trkpt lat="33.810313" lon="-118.393867">
  <ele>-0.12</ele>
  <time>2026-09-02T22:06:32Z</time>
  <course>0.0</course>
  <speed>0.0</speed>
  <fix>3d</fix>
</trkpt>
<trkpt lat="33.8103132" lon="-118.3938672">
  <ele>-0.131</ele>
  <time>2026-09-02T22:06:32Z</time>
  <course>186.24</course>
  <speed>0.022360679774997897</speed>
  <fix>3d</fix>
</trkpt>
<trkpt lat="33.810313" lon="-118.393867">
  <ele>-0.12</ele>
  <time>2026-09-02T22:06:32Z</time>
  <course>0.0</course>
  <speed>0.0</speed>
  <fix>3d</fix>
</trkpt>
<trkpt lat="33.8103132" lon="-118.3938671">
  <ele>-0.132</ele>
  <time>2026-09-02T22:06:32Z</time>
  <course>186.24</course>
  <speed>0.022360679774997897</speed>
  <fix>3d</fix>
</trkpt>
<trkpt lat="33.810313" lon="-118.393867">
  <ele>-0.12</ele>
  <time>2026-09-02T22:06:32Z</time>
  <course>0.0</course>
  <speed>0.0</speed>
  <fix>3d</fix>
</trkpt>
<trkpt lat="33.8103132" lon="-118.3938672">
  <ele>-0.133</ele>
  <time>2026-09-02T22:06:32Z</time>
  <course>186.24</course>
  <speed>0.022360679774997897</speed>
  <fix>3d</fix>
</trkpt>
<trkpt lat="33.810313" lon="-118.393867">
  <ele>-0.12</ele>
  <time>2026-09-02T22:06:32Z</time>
  <course>0.0</course>
  <speed>0.0</speed>
  <fix>3d</fix>
</trkpt>
<trkpt lat="33.8103132" lon="-118.3938671">
  <ele>-0.133</ele>
  <time>2026-09-02T22:06:32Z</time>
  <course>186.24</course>
  <speed>0.022360679774997897</speed>
  <fix>3d</fix>
</trkpt>
<trkpt lat="33.810313" lon="-118.393867">
  <ele>-0.12</ele>
  <time>2026-09-02T22:06:32Z</time>
  <course>0.0</course>
  <speed>0.0</speed>
  <fix>3d</fix>
</trkpt>
<trkpt lat="33.8103132" lon="-118.3938672">
  <ele>-0.132</ele>
  <time>2026-09-02T22:06:32Z</time>
  <course>186.24</course>
  <speed>0.022360679774997897</speed>
  <fix>3d</fix>
</trkpt>
<trkpt lat="33.810313" lon="-118.393867">
  <ele>-0.12</ele>
  <time>2026-09-02T22:06:32Z</time>
  <course>0.0</course>
  <speed>0.0</speed>
  <fix>3d</fix>
</trkpt>
<trkpt lat="33.8103132" lon="-118.3938671">
  <ele>-0.131</ele>
  <time>2026-09-02T22:06:32Z</time>
  <course>186.24</course>
  <speed>0.022360679774997897</speed>
  <fix>3d</fix>
</trkpt>
<trkpt lat="33.810313" lon="-118.393867">
  <ele>-0.12</ele>
  <time>2026-09-02T22:06:32Z</time>
  <course>0.0</course>
  <speed>0.0</speed>
  <fix>3d</fix>
</trkpt>
<trkpt lat="33.8103132" lon="-118.3938672">
  <ele>-0.13</ele>
  <time>2026-09-02T22:06:32Z</time>
  <course>186.24</course>
  <speed>0.022360679774997897</speed>
  <fix>3d</fix>
</trkpt>
<trkpt lat="33.810313" lon="-118.393867">
  <ele>-0.12</ele>
  <time>2026-09-02T22:06:32Z</time>
  <course>0.0</course>
  <speed>0.0</speed>
  <fix>3d</fix>
</trkpt>
<trkpt lat="33.8103132" lon="-118.3938671">
  <ele>-0.128</ele>
  <time>2026-09-02T22:06:32Z</time>
  <course>186.24</course>
  <speed>0.022360679774997897</speed>
  <fix>3d</fix>
</trkpt>
<trkpt lat="33.810313" lon="-118.393867">
  <ele>-0.12</ele>
  <time>2026-09-02T22:06:32Z</time>
  <course>0.0</course>
  <speed>0.0</speed>
  <fix>3d</fix>
</trkpt>
<trkpt lat="33.8103132" lon="-118.3938672">
  <ele>-0.127</ele>
  <time>2026-09-02T22:06:32Z</time>
  <course>186.24</course>
  <speed>0.022360679774997897</speed>
  <fix>3d</fix>
</trkpt>
<trkpt lat="33.810313" lon="-118.393867">
  <ele>-0.12</ele>
  <time>2026-09-02T22:06:32Z</time>
  <course>0.0</course>
  <speed>0.0</speed>
  <fix>3d</fix>
</trkpt>
<trkpt lat="33.8103132" lon="-118.3938671">
  <ele>-0.127</ele>
  <time>2026-09-02T22:06:32Z</time>
  <course>186.24</course>
  <speed>0.022360679774997897</speed>
  <fix>3d</fix>
</trkpt>
<trkpt lat="33.810313" lon="-118.393867">
  <ele>-0.12</ele>
  <time>2026-09-02T22:06:32Z</time>
  <course>0.0</course>
  <speed>0.0</speed>
  <fix>3d</fix>
</trkpt>
<trkpt lat="33.8103132" lon="-118.3938672">
  <ele>-0.129</ele>
  <time>2026-09-02T22:06:32Z</time>
  <course>186.24</course>
  <speed>0.022360679774997897</speed>
  <fix>3d</fix>
</trkpt>
<trkpt lat="33.810313" lon="-118.393867">
  <ele>-0.12</ele>
  <time>2026-09-02T22:06:32Z</time>
  <course>0.0</course>
  <speed>0.0</speed>
  <fix>3d</fix>
</trkpt>
<trkpt lat="33.8103132" lon="-118.3938671">
  <ele>-0.13</ele>
  <time>2026-09-02T22:06:32Z</time>
  <course>186.24</course>
  <speed>0.022360679774997897</speed>
  <fix>3d</fix>
</trkpt>
<trkpt lat="33.810313" lon="-118.393867">
  <ele>-0.12</ele>
  <time>2026-09-02T22:06:32Z</time>
  <course>0.0</course>
  <speed>0.0</speed>
  <fix>3d</fix>
</trkpt>
<trkpt lat="33.8103132" lon="-118.3938672">
  <ele>-0.131</ele>
  <time>2026-09-02T22:06:32Z</time>
  <course>186.24</course>
  <speed>0.022360679774997897</speed>
  <fix>3d</fix>
</trkpt>
<trkpt lat="33.810313" lon="-118.393867">
  <ele>-0.12</ele>
  <time>2026-09-02T22:06:32Z</time>
  <course>0.0</course>
  <speed>0.0</speed>
  <fix>3d</fix>
</trkpt>
<trkpt lat="33.8103132" lon="-118.3938672">
  <ele>-0.131</ele>
  <time>2026-09-02T22:06:32Z</time>
  <course>186.24</course>
  <speed>0.022360679774997897</speed>
  <fix>3d</fix>
</trkpt>
<trkpt lat="33.810313" lon="-118.393867">
  <ele>-0.12</ele>
  <time>2026-09-02T22:06:32Z</time>
  <course>0.0</course>
  <speed>0.0</speed>
  <fix>3d</fix>
</trkpt>
<trkpt lat="33.8103132" lon="-118.3938672">
  <ele>-0.133</ele>
  <time>2026-09-02T22:06:32Z</time>
  <course>186.24</course>
  <speed>0.022360679774997897</speed>
  <fix>3d</fix>
</trkpt>
<trkpt lat="33.810313" lon="-118.393867">
  <ele>-0.12</ele>
  <time>2026-09-02T22:06:32Z</time>
  <course>0.0</course>
  <speed>0.0</speed>
  <fix>3d</fix>
</trkpt>
<trkpt lat="33.8103132" lon="-118.3938672">
  <ele>-0.132</ele>
  <time>2026-09-02T22:06:32Z</time>
  <course>186.24</course>
  <speed>0.022360679774997897</speed>
  <fix>3d</fix>
</trkpt>
<trkpt lat="33.810313" lon="-118.393867">
  <ele>-0.12</ele>
  <time>2026-09-02T22:06:32Z</time>
  <course>0.0</course>
  <speed>0.0</speed>
  <fix>3d</fix>
</trkpt>
<trkpt lat="33.8103132" lon="-118.3938672">
  <ele>-0.131</ele>
  <time>2026-09-02T22:06:32Z</time>
  <course>186.24</course>
  <speed>0.022360679774997897</speed>
  <fix>3d</fix>
</trkpt>
<trkpt lat="33.810313" lon="-118.393867">
  <ele>-0.12</ele>
  <time>2026-09-02T22:06:32Z</time>
  <course>0.0</course>
  <speed>0.0</speed>
  <fix>3d</fix>
</trkpt>
<trkpt lat="33.8103132" lon="-118.3938672">
  <ele>-0.13</ele>
  <time>2026-09-02T22:06:32Z</time>
  <course>186.24</course>
  <speed>0.022360679774997897</speed>
  <fix>3d</fix>
</trkpt>
<trkpt lat="33.810313" lon="-118.393867">
  <ele>-0.12</ele>
  <time>2026-09-02T22:06:32Z</time>
  <course>0.0</course>
  <speed>0.0</speed>
  <fix>3d</fix>
</trkpt>
<trkpt lat="33.8103132" lon="-118.3938672">
  <ele>-0.129</ele>
  <time>2026-09-02T22:06:32Z</time>
  <course>186.23</course>
  <speed>0.022360679774997897</speed>
  <fix>3d</fix>
</trkpt>
<trkpt lat="33.810313" lon="-118.393867">
  <ele>-0.12</ele>
  <time>2026-09-02T22:06:32Z</time>
  <course>0.0</course>
  <speed>0.0</speed>
  <fix>3d</fix>
</trkpt>
<trkpt lat="33.8103132" lon="-118.3938672">
  <ele>-0.127</ele>
  <time>2026-09-02T22:06:32Z</time>
  <course>186.23</course>
  <speed>0.022360679774997897</speed>
  <fix>3d</fix>
</trkpt>
<trkpt lat="33.810313" lon="-118.393867">
  <ele>-0.12</ele>
  <time>2026-09-02T22:06:32Z</time>
  <course>0.0</course>
  <speed>0.0</speed>
  <fix>3d</fix>
</trkpt>
<trkpt lat="33.8103132" lon="-118.3938672">
  <ele>-0.126</ele>
  <time>2026-09-02T22:06:32Z</time>
  <course>186.23</course>
  <speed>0.022360679774997897</speed>
  <fix>3d</fix>
</trkpt>
<trkpt lat="33.810313" lon="-118.393867">
  <ele>-0.12</ele>
  <time>2026-09-02T22:06:32Z</time>
  <course>0.0</course>
  <speed>0.0</speed>
  <fix>3d</fix>
</trkpt>
<trkpt lat="33.8103132" lon="-118.3938672">
  <ele>-0.126</ele>
  <time>2026-09-02T22:06:32Z</time>
  <course>186.23</course>
  <speed>0.022360679774997897</speed>
  <fix>3d</fix>
</trkpt>
<trkpt lat="33.810313" lon="-118.393867">
  <ele>-0.12</ele>
  <time>2026-09-02T22:06:32Z</time>
  <course>0.0</course>
  <speed>0.0</speed>
  <fix>3d</fix>
</trkpt>
<trkpt lat="33.8103132" lon="-118.3938672">
  <ele>-0.127</ele>
  <time>2026-09-02T22:06:32Z</time>
  <course>186.23</course>
  <speed>0.022360679774997897</speed>
  <fix>3d</fix>
</trkpt>
<trkpt lat="33.810313" lon="-118.393867">
  <ele>-0.12</ele>
  <time>2026-09-02T22:06:32Z</time>
  <course>0.0</course>
  <speed>0.0</speed>
  <fix>3d</fix>
</trkpt>
<trkpt lat="33.8103132" lon="-118.3938672">
  <ele>-0.129</ele>
  <time>2026-09-02T22:06:32Z</time>
  <course>186.23</course>
  <speed>0.022360679774997897</speed>
  <fix>3d</fix>
</trkpt>
<trkpt lat="33.810313" lon="-118.393867">
  <ele>-0.12</ele>
  <time>2026-09-02T22:06:32Z</time>
  <course>0.0</course>
  <speed>0.0</speed>
  <fix>3d</fix>
</trkpt>
<trkpt lat="33.8103132" lon="-118.3938672">
  <ele>-0.13</ele>
  <time>2026-09-02T22:06:32Z</time>
  <course>186.23</course>
  <speed>0.022360679774997897</speed>
  <fix>3d</fix>
</trkpt>
<trkpt lat="33.810313" lon="-118.393867">
  <ele>-0.12</ele>
  <time>2026-09-02T22:06:32Z</time>
  <course>0.0</course>
  <speed>0.0</speed>
  <fix>3d</fix>
</trkpt>
<trkpt lat="33.8103132" lon="-118.3938672">
  <ele>-0.131</ele>
  <time>2026-09-02T22:06:32Z</time>
  <course>186.23</course>
  <speed>0.022360679774997897</speed>
  <fix>3d</fix>
</trkpt>
<trkpt lat="33.810313" lon="-118.393867">
  <ele>-0.12</ele>
  <time>2026-09-02T22:06:32Z</time>
  <course>0.0</course>
  <speed>0.0</speed>
  <fix>3d</fix>
</trkpt>
<trkpt lat="33.8103132" lon="-118.3938672">
  <ele>-0.131</ele>
  <time>2026-09-02T22:06:32Z</time>
  <course>186.23</course>
  <speed>0.022360679774997897</speed>
  <fix>3d</fix>
</trkpt>
<trkpt lat="33.810313" lon="-118.393867">
  <ele>-0.12</ele>
  <time>2026-09-02T22:06:32Z</time>
  <course>0.0</course>
  <speed>0.0</speed>
  <fix>3d</fix>
</trkpt>
<trkpt lat="33.8103132" lon="-118.3938672">
  <ele>-0.131</ele>
  <time>2026-09-02T22:06:32Z</time>
  <course>186.23</course>
  <speed>0.022360679774997897</speed>
  <fix>3d</fix>
</trkpt>
<trkpt lat="33.810313" lon="-118.393867">
  <ele>-0.12</ele>
  <time>2026-09-02T22:06:32Z</time>
  <course>0.0</course>
  <speed>0.0</speed>
  <fix>3d</fix>
</trkpt>
<trkpt lat="33.8103132" lon="-118.3938672">
  <ele>-0.131</ele>
  <time>2026-09-02T22:06:32Z</time>
  <course>186.23</course>
  <speed>0.022360679774997897</speed>
  <fix>3d</fix>
</trkpt>
<trkpt lat="33.810313" lon="-118.393867">
  <ele>-0.12</ele>
  <time>2026-09-02T22:06:32Z</time>
  <course>0.0</course>
  <speed>0.0</speed>
  <fix>3d</fix>
</trkpt>
<trkpt lat="33.8103132" lon="-118.3938672">
  <ele>-0.13</ele>
  <time>2026-09-02T22:06:32Z</time>
  <course>186.23</course>
  <speed>0.022360679774997897</speed>
  <fix>3d</fix>
</trkpt>
<trkpt lat="33.810313" lon="-118.393867">
  <ele>-0.12</ele>
  <time>2026-09-02T22:06:32Z</time>
  <course>0.0</course>
  <speed>0.0</speed>
  <fix>3d</fix>
</trkpt>
<trkpt lat="33.8103132" lon="-118.3938672">
  <ele>-0.129</ele>
  <time>2026-09-02T22:06:32Z</time>
  <course>186.23</course>
  <speed>0.022360679774997897</speed>
  <fix>3d</fix>
</trkpt>
<trkpt lat="33.810313" lon="-118.393867">
  <ele>-0.12</ele>
  <time>2026-09-02T22:06:32Z</time>
  <course>0.0</course>
  <speed>0.0</speed>
  <fix>3d</fix>
</trkpt>
<trkpt lat="33.8103132" lon="-118.3938672">
  <ele>-0.128</ele>
  <time>2026-09-02T22:06:32Z</time>
  <course>186.23</course>
  <speed>0.022360679774997897</speed>
  <fix>3d</fix>
</trkpt>
<trkpt lat="33.810313" lon="-118.393867">
  <ele>-0.12</ele>
  <time>2026-09-02T22:06:32Z</time>
  <course>0.0</course>
  <speed>0.0</speed>
  <fix>3d</fix>
</trkpt>
<trkpt lat="33.8103132" lon="-118.3938672">
  <ele>-0.129</ele>
  <time>2026-09-02T22:06:32Z</time>
  <course>186.23</course>
  <speed>0.022360679774997897</speed>
  <fix>3d</fix>
</trkpt>
<trkpt lat="33.810313" lon="-118.393867">
  <ele>-0.12</ele>
  <time>2026-09-02T22:06:32Z</time>
  <course>0.0</course>
  <speed>0.0</speed>
  <fix>3d</fix>
</trkpt>
<trkpt lat="33.8103132" lon="-118.3938671">
  <ele>-0.128</ele>
  <time>2026-09-02T22:06:32Z</time>
  <course>186.23</course>
  <speed>0.022360679774997897</speed>
  <fix>3d</fix>
</trkpt>
<trkpt lat="33.810313" lon="-118.393867">
  <ele>-0.12</ele>
  <time>2026-09-02T22:06:32Z</time>
  <course>0.0</course>
  <speed>0.0</speed>
  <fix>3d</fix>
</trkpt>
<trkpt lat="33.8103132" lon="-118.3938672">
  <ele>-0.128</ele>
  <time>2026-09-02T22:06:32Z</time>
  <course>186.23</course>
  <speed>0.022360679774997897</speed>
  <fix>3d</fix>
</trkpt>
<trkpt lat="33.810313" lon="-118.393867">
  <ele>-0.12</ele>
  <time>2026-09-02T22:06:32Z</time>
  <course>0.0</course>
  <speed>0.0</speed>
  <fix>3d</fix>
</trkpt>
<trkpt lat="33.8103132" lon="-118.3938671">
  <ele>-0.128</ele>
  <time>2026-09-02T22:06:32Z</time>
  <course>186.23</course>
  <speed>0.022360679774997897</speed>
  <fix>3d</fix>
</trkpt>
<trkpt lat="33.810313" lon="-118.393867">
  <ele>-0.12</ele>
  <time>2026-09-02T22:06:32Z</time>
  <course>0.0</course>
  <speed>0.0</speed>
  <fix>3d</fix>
</trkpt>
<trkpt lat="33.8103132" lon="-118.3938672">
  <ele>-0.128</ele>
  <time>2026-09-02T22:06:32Z</time>
  <course>186.23</course>
  <speed>0.022360679774997897</speed>
  <fix>3d</fix>
</trkpt>
<trkpt lat="33.810313" lon="-118.393867">
  <ele>-0.12</ele>
  <time>2026-09-02T22:06:32Z</time>
  <course>0.0</course>
  <speed>0.0</speed>
  <fix>3d</fix>
</trkpt>
<trkpt lat="33.8103132" lon="-118.3938671">
  <ele>-0.128</ele>
  <time>2026-09-02T22:06:32Z</time>
  <course>186.23</course>
  <speed>0.022360679774997897</speed>
  <fix>3d</fix>
</trkpt>
<trkpt lat="33.810313" lon="-118.393867">
  <ele>-0.12</ele>
  <time>2026-09-02T22:06:32Z</time>
  <course>0.0</course>
  <speed>0.0</speed>
  <fix>3d</fix>
</trkpt>
<trkpt lat="33.8103132" lon="-118.3938672">
  <ele>-0.129</ele>
  <time>2026-09-02T22:06:32Z</time>
  <course>186.23</course>
  <speed>0.022360679774997897</speed>
  <fix>3d</fix>
</trkpt>
<trkpt lat="33.810313" lon="-118.393867">
  <ele>-0.12</ele>
  <time>2026-09-02T22:06:32Z</time>
  <course>0.0</course>
  <speed>0.0</speed>
  <fix>3d</fix>
</trkpt>
<trkpt lat="33.8103132" lon="-118.3938671">
  <ele>-0.13</ele>
  <time>2026-09-02T22:06:32Z</time>
  <course>186.23</course>
  <speed>0.022360679774997897</speed>
  <fix>3d</fix>
</trkpt>
<trkpt lat="33.810313" lon="-118.393867">
  <ele>-0.12</ele>
  <time>2026-09-02T22:06:32Z</time>
  <course>0.0</course>
  <speed>0.0</speed>
  <fix>3d</fix>
</trkpt>
<trkpt lat="33.8103132" lon="-118.3938672">
  <ele>-0.13</ele>
  <time>2026-09-02T22:06:32Z</time>
  <course>186.23</course>
  <speed>0.022360679774997897</speed>
  <fix>3d</fix>
</trkpt>
<trkpt lat="33.810313" lon="-118.393867">
  <ele>-0.12</ele>
  <time>2026-09-02T22:06:32Z</time>
  <course>0.0</course>
  <speed>0.0</speed>
  <fix>3d</fix>
</trkpt>
<trkpt lat="33.8103132" lon="-118.3938671">
  <ele>-0.13</ele>
  <time>2026-09-02T22:06:32Z</time>
  <course>186.23</course>
  <speed>0.022360679774997897</speed>
  <fix>3d</fix>
</trkpt>
<trkpt lat="33.810313" lon="-118.393867">
  <ele>-0.12</ele>
  <time>2026-09-02T22:06:32Z</time>
  <course>0.0</course>
  <speed>0.0</speed>
  <fix>3d</fix>
</trkpt>
<trkpt lat="33.8103132" lon="-118.3938672">
  <ele>-0.131</ele>
  <time>2026-09-02T22:06:32Z</time>
  <course>186.23</course>
  <speed>0.022360679774997897</speed>
  <fix>3d</fix>
</trkpt>
<trkpt lat="33.810313" lon="-118.393867">
  <ele>-0.12</ele>
  <time>2026-09-02T22:06:32Z</time>
  <course>0.0</course>
  <speed>0.0</speed>
  <fix>3d</fix>
</trkpt>
<trkpt lat="33.8103132" lon="-118.3938671">
  <ele>-0.132</ele>
  <time>2026-09-02T22:06:32Z</time>
  <course>186.23</course>
  <speed>0.022360679774997897</speed>
  <fix>3d</fix>
</trkpt>
<trkpt lat="33.810313" lon="-118.393867">
  <ele>-0.12</ele>
  <time>2026-09-02T22:06:32Z</time>
  <course>0.0</course>
  <speed>0.0</speed>
  <fix>3d</fix>
</trkpt>
<trkpt lat="33.8103132" lon="-118.3938671">
  <ele>-0.133</ele>
  <time>2026-09-02T22:06:32Z</time>
  <course>186.23</course>
  <speed>0.022360679774997897</speed>
  <fix>3d</fix>
</trkpt>
<trkpt lat="33.810313" lon="-118.393867">
  <ele>-0.12</ele>
  <time>2026-09-02T22:06:32Z</time>
  <course>0.0</course>
  <speed>0.0</speed>
  <fix>3d</fix>
</trkpt>
<trkpt lat="33.8103132" lon="-118.3938671">
  <ele>-0.133</ele>
  <time>2026-09-02T22:06:32Z</time>
  <course>186.23</course>
  <speed>0.022360679774997897</speed>
  <fix>3d</fix>
</trkpt>
<trkpt lat="33.810313" lon="-118.393867">
  <ele>-0.12</ele>
  <time>2026-09-02T22:06:32Z</time>
  <course>0.0</course>
  <speed>0.0</speed>
  <fix>3d</fix>
</trkpt>
<trkpt lat="33.8103132" lon="-118.3938671">
  <ele>-0.132</ele>
  <time>2026-09-02T22:06:32Z</time>
  <course>186.23</course>
  <speed>0.022360679774997897</speed>
  <fix>3d</fix>
</trkpt>
<trkpt lat="33.810313" lon="-118.393867">
  <ele>-0.12</ele>
  <time>2026-09-02T22:06:32Z</time>
  <course>0.0</course>
  <speed>0.0</speed>
  <fix>3d</fix>
</trkpt>
<trkpt lat="33.8103132" lon="-118.3938671">
  <ele>-0.131</ele>
  <time>2026-09-02T22:06:32Z</time>
  <course>186.23</course>
  <speed>0.022360679774997897</speed>
  <fix>3d</fix>
</trkpt>
<trkpt lat="33.810313" lon="-118.393867">
  <ele>-0.12</ele>
  <time>2026-09-02T22:06:32Z</time>
  <course>0.0</course>
  <speed>0.0</speed>
  <fix>3d</fix>
</trkpt>
<trkpt lat="33.8103132" lon="-118.3938671">
  <ele>-0.13</ele>
  <time>2026-09-02T22:06:32Z</time>
  <course>186.23</course>
  <speed>0.022360679774997897</speed>
  <fix>3d</fix>
</trkpt>
<trkpt lat="33.810313" lon="-118.393867">
  <ele>-0.12</ele>
  <time>2026-09-02T22:06:32Z</time>
  <course>0.0</course>
  <speed>0.0</speed>
  <fix>3d</fix>
</trkpt>
<trkpt lat="33.8103132" lon="-118.3938671">
  <ele>-0.129</ele>
  <time>2026-09-02T22:06:32Z</time>
  <course>186.23</course>
  <speed>0.022360679774997897</speed>
  <fix>3d</fix>
</trkpt>
<trkpt lat="33.810313" lon="-118.393867">
  <ele>-0.12</ele>
  <time>2026-09-02T22:06:32Z</time>
  <course>0.0</course>
  <speed>0.0</speed>
  <fix>3d</fix>
</trkpt>
<trkpt lat="33.8103132" lon="-118.3938671">
  <ele>-0.13</ele>
  <time>2026-09-02T22:06:32Z</time>
  <course>186.23</course>
  <speed>0.022360679774997897</speed>
  <fix>3d</fix>
</trkpt>
<trkpt lat="33.810313" lon="-118.393867">
  <ele>-0.12</ele>
  <time>2026-09-02T22:06:32Z</time>
  <course>0.0</course>
  <speed>0.0</speed>
  <fix>3d</fix>
</trkpt>
<trkpt lat="33.8103132" lon="-118.3938671">
  <ele>-0.13</ele>
  <time>2026-09-02T22:06:32Z</time>
  <course>186.23</course>
  <speed>0.022360679774997897</speed>
  <fix>3d</fix>
</trkpt>
<trkpt lat="33.810313" lon="-118.393867">
  <ele>-0.12</ele>
  <time>2026-09-02T22:06:32Z</time>
  <course>0.0</course>
  <speed>0.0</speed>
  <fix>3d</fix>
</trkpt>
<trkpt lat="33.8103132" lon="-118.3938671">
  <ele>-0.13</ele>
  <time>2026-09-02T22:06:32Z</time>
  <course>186.23</course>
  <speed>0.022360679774997897</speed>
  <fix>3d</fix>
</trkpt>
<trkpt lat="33.810313" lon="-118.393867">
  <ele>-0.12</ele>
  <time>2026-09-02T22:06:32Z</time>
  <course>0.0</course>
  <speed>0.0</speed>
  <fix>3d</fix>
</trkpt>
<trkpt lat="33.8103132" lon="-118.3938671">
  <ele>-0.128</ele>
  <time>2026-09-02T22:06:32Z</time>
  <course>186.23</course>
  <speed>0.022360679774997897</speed>
  <fix>3d</fix>
</trkpt>
<trkpt lat="33.810313" lon="-118.393867">
  <ele>-0.12</ele>
  <time>2026-09-02T22:06:32Z</time>
  <course>0.0</course>
  <speed>0.0</speed>
  <fix>3d</fix>
</trkpt>
<trkpt lat="33.8103132" lon="-118.3938671">
  <ele>-0.127</ele>
  <time>2026-09-02T22:06:32Z</time>
  <course>186.22</course>
  <speed>0.022360679774997897</speed>
  <fix>3d</fix>
</trkpt>
<trkpt lat="33.810313" lon="-118.393867">
  <ele>-0.12</ele>
  <time>2026-09-02T22:06:32Z</time>
  <course>0.0</course>
  <speed>0.0</speed>
  <fix>3d</fix>
</trkpt>
<trkpt lat="33.8103132" lon="-118.3938671">
  <ele>-0.126</ele>
  <time>2026-09-02T22:06:32Z</time>
  <course>186.22</course>
  <speed>0.022360679774997897</speed>
  <fix>3d</fix>
</trkpt>
<trkpt lat="33.810313" lon="-118.393867">
  <ele>-0.12</ele>
  <time>2026-09-02T22:06:32Z</time>
  <course>0.0</course>
  <speed>0.0</speed>
  <fix>3d</fix>
</trkpt>
<trkpt lat="33.8103132" lon="-118.3938671">
  <ele>-0.125</ele>
  <time>2026-09-02T22:06:32Z</time>
  <course>186.22</course>
  <speed>0.022360679774997897</speed>
  <fix>3d</fix>
</trkpt>
<trkpt lat="33.810313" lon="-118.393867">
  <ele>-0.12</ele>
  <time>2026-09-02T22:06:32Z</time>
  <course>0.0</course>
  <speed>0.0</speed>
  <fix>3d</fix>
</trkpt>
<trkpt lat="33.8103132" lon="-118.3938671">
  <ele>-0.124</ele>
  <time>2026-09-02T22:06:32Z</time>
  <course>186.22</course>
  <speed>0.022360679774997897</speed>
  <fix>3d</fix>
</trkpt>
<trkpt lat="33.810313" lon="-118.393867">
  <ele>-0.12</ele>
  <time>2026-09-02T22:06:32Z</time>
  <course>0.0</course>
  <speed>0.0</speed>
  <fix>3d</fix>
</trkpt>
<trkpt lat="33.8103132" lon="-118.3938671">
  <ele>-0.123</ele>
  <time>2026-09-02T22:06:32Z</time>
  <course>186.22</course>
  <speed>0.022360679774997897</speed>
  <fix>3d</fix>
</trkpt>
<trkpt lat="33.810313" lon="-118.393867">
  <ele>-0.12</ele>
  <time>2026-09-02T22:06:32Z</time>
  <course>0.0</course>
  <speed>0.0</speed>
  <fix>3d</fix>
</trkpt>
<trkpt lat="33.8103132" lon="-118.3938671">
  <ele>-0.121</ele>
  <time>2026-09-02T22:06:32Z</time>
  <course>186.22</course>
  <speed>0.022360679774997897</speed>
  <fix>3d</fix>
</trkpt>
<trkpt lat="33.810313" lon="-118.393867">
  <ele>-0.12</ele>
  <time>2026-09-02T22:06:32Z</time>
  <course>0.0</course>
  <speed>0.0</speed>
  <fix>3d</fix>
</trkpt>
<trkpt lat="33.8103132" lon="-118.3938671">
  <ele>-0.119</ele>
  <time>2026-09-02T22:06:32Z</time>
  <course>186.22</course>
  <speed>0.022360679774997897</speed>
  <fix>3d</fix>
</trkpt>
<trkpt lat="33.810313" lon="-118.393867">
  <ele>-0.12</ele>
  <time>2026-09-02T22:06:32Z</time>
  <course>0.0</course>
  <speed>0.0</speed>
  <fix>3d</fix>
</trkpt>
<trkpt lat="33.8103132" lon="-118.3938671">
  <ele>-0.118</ele>
  <time>2026-09-02T22:06:32Z</time>
  <course>186.22</course>
  <speed>0.022360679774997897</speed>
  <fix>3d</fix>
</trkpt>
<trkpt lat="33.810313" lon="-118.393867">
  <ele>-0.12</ele>
  <time>2026-09-02T22:06:32Z</time>
  <course>0.0</course>
  <speed>0.0</speed>
  <fix>3d</fix>
</trkpt>
<trkpt lat="33.8103132" lon="-118.3938671">
  <ele>-0.119</ele>
  <time>2026-09-02T22:06:32Z</time>
  <course>186.22</course>
  <speed>0.022360679774997897</speed>
  <fix>3d</fix>
</trkpt>
<trkpt lat="33.810313" lon="-118.393867">
  <ele>-0.12</ele>
  <time>2026-09-02T22:06:32Z</time>
  <course>0.0</course>
  <speed>0.0</speed>
  <fix>3d</fix>
</trkpt>
<trkpt lat="33.8103132" lon="-118.3938671">
  <ele>-0.119</ele>
  <time>2026-09-02T22:06:32Z</time>
  <course>186.22</course>
  <speed>0.022360679774997897</speed>
  <fix>3d</fix>
</trkpt>
<trkpt lat="33.810313" lon="-118.393867">
  <ele>-0.12</ele>
  <time>2026-09-02T22:06:32Z</time>
  <course>0.0</course>
  <speed>0.0</speed>
  <fix>3d</fix>
</trkpt>
<trkpt lat="33.8103132" lon="-118.3938672">
  <ele>-0.12</ele>
  <time>2026-09-02T22:06:32Z</time>
  <course>186.22</course>
  <speed>0.022360679774997897</speed>
  <fix>3d</fix>
</trkpt>
<trkpt lat="33.810313" lon="-118.393867">
  <ele>-0.12</ele>
  <time>2026-09-02T22:06:32Z</time>
  <course>0.0</course>
  <speed>0.0</speed>
  <fix>3d</fix>
</trkpt>
<trkpt lat="33.8103132" lon="-118.3938672">
  <ele>-0.12</ele>
  <time>2026-09-02T22:06:32Z</time>
  <course>186.22</course>
  <speed>0.022360679774997897</speed>
  <fix>3d</fix>
</trkpt>
<trkpt lat="33.810313" lon="-118.393867">
  <ele>-0.12</ele>
  <time>2026-09-02T22:06:32Z</time>
  <course>0.0</course>
  <speed>0.0</speed>
  <fix>3d</fix>
</trkpt>
<trkpt lat="33.8103132" lon="-118.3938672">
  <ele>-0.12</ele>
  <time>2026-09-02T22:06:32Z</time>
  <course>186.22</course>
  <speed>0.022360679774997897</speed>
  <fix>3d</fix>
</trkpt>
<trkpt lat="33.810313" lon="-118.393867">
  <ele>-0.12</ele>
  <time>2026-09-02T22:06:32Z</time>
  <course>0.0</course>
  <speed>0.0</speed>
  <fix>3d</fix>
</trkpt>
<trkpt lat="33.8103132" lon="-118.3938672">
  <ele>-0.121</ele>
  <time>2026-09-02T22:06:32Z</time>
  <course>186.22</course>
  <speed>0.022360679774997897</speed>
  <fix>3d</fix>
</trkpt>
<trkpt lat="33.810313" lon="-118.393867">
  <ele>-0.12</ele>
  <time>2026-09-02T22:06:32Z</time>
  <course>0.0</course>
  <speed>0.0</speed>
  <fix>3d</fix>
</trkpt>
<trkpt lat="33.8103132" lon="-118.3938672">
  <ele>-0.121</ele>
  <time>2026-09-02T22:06:32Z</time>
  <course>186.22</course>
  <speed>0.022360679774997897</speed>
  <fix>3d</fix>
</trkpt>
<trkpt lat="33.810313" lon="-118.393867">
  <ele>-0.12</ele>
  <time>2026-09-02T22:06:32Z</time>
  <course>0.0</course>
  <speed>0.0</speed>
  <fix>3d</fix>
</trkpt>
<trkpt lat="33.8103132" lon="-118.3938672">
  <ele>-0.121</ele>
  <time>2026-09-02T22:06:32Z</time>
  <course>186.22</course>
  <speed>0.022360679774997897</speed>
  <fix>3d</fix>
</trkpt>
<trkpt lat="33.810313" lon="-118.393867">
  <ele>-0.12</ele>
  <time>2026-09-02T22:06:32Z</time>
  <course>0.0</course>
  <speed>0.0</speed>
  <fix>3d</fix>
</trkpt>
<trkpt lat="33.8103132" lon="-118.3938672">
  <ele>-0.122</ele>
  <time>2026-09-02T22:06:32Z</time>
  <course>186.22</course>
  <speed>0.022360679774997897</speed>
  <fix>3d</fix>
</trkpt>
<trkpt lat="33.810313" lon="-118.393867">
  <ele>-0.12</ele>
  <time>2026-09-02T22:06:32Z</time>
  <course>0.0</course>
  <speed>0.0</speed>
  <fix>3d</fix>
</trkpt>
<trkpt lat="33.8103132" lon="-118.3938672">
  <ele>-0.123</ele>
  <time>2026-09-02T22:06:32Z</time>
  <course>186.22</course>
  <speed>0.022360679774997897</speed>
  <fix>3d</fix>
</trkpt>
<trkpt lat="33.810313" lon="-118.393867">
  <ele>-0.12</ele>
  <time>2026-09-02T22:06:32Z</time>
  <course>0.0</course>
  <speed>0.0</speed>
  <fix>3d</fix>
</trkpt>
<trkpt lat="33.8103132" lon="-118.3938672">
  <ele>-0.123</ele>
  <time>2026-09-02T22:06:32Z</time>
  <course>186.22</course>
  <speed>0.022360679774997897</speed>
  <fix>3d</fix>
</trkpt>
<trkpt lat="33.810313" lon="-118.393867">
  <ele>-0.12</ele>
  <time>2026-09-02T22:06:32Z</time>
  <course>0.0</course>
  <speed>0.0</speed>
  <fix>3d</fix>
</trkpt>
<trkpt lat="33.8103132" lon="-118.3938672">
  <ele>-0.123</ele>
  <time>2026-09-02T22:06:32Z</time>
  <course>186.22</course>
  <speed>0.022360679774997897</speed>
  <fix>3d</fix>
</trkpt>
<trkpt lat="33.810313" lon="-118.393867">
  <ele>-0.12</ele>
  <time>2026-09-02T22:06:32Z</time>
  <course>0.0</course>
  <speed>0.0</speed>
  <fix>3d</fix>
</trkpt>
<trkpt lat="33.8103132" lon="-118.3938672">
  <ele>-0.122</ele>
  <time>2026-09-02T22:06:32Z</time>
  <course>186.22</course>
  <speed>0.022360679774997897</speed>
  <fix>3d</fix>
</trkpt>
<trkpt lat="33.810313" lon="-118.393867">
  <ele>-0.12</ele>
  <time>2026-09-02T22:06:32Z</time>
  <course>0.0</course>
  <speed>0.0</speed>
  <fix>3d</fix>
</trkpt>
<trkpt lat="33.8103132" lon="-118.3938672">
  <ele>-0.121</ele>
  <time>2026-09-02T22:06:32Z</time>
  <course>186.22</course>
  <speed>0.022360679774997897</speed>
  <fix>3d</fix>
</trkpt>
<trkpt lat="33.810313" lon="-118.393867">
  <ele>-0.12</ele>
  <time>2026-09-02T22:06:32Z</time>
  <course>0.0</course>
  <speed>0.0</speed>
  <fix>3d</fix>
</trkpt>
<trkpt lat="33.8103132" lon="-118.3938672">
  <ele>-0.12</ele>
  <time>2026-09-02T22:06:32Z</time>
  <course>186.22</course>
  <speed>0.022360679774997897</speed>
  <fix>3d</fix>
</trkpt>
<trkpt lat="33.810313" lon="-118.393867">
  <ele>-0.12</ele>
  <time>2026-09-02T22:06:32Z</time>
  <course>0.0</course>
  <speed>0.0</speed>
  <fix>3d</fix>
</trkpt>
<trkpt lat="33.8103132" lon="-118.3938672">
  <ele>-0.119</ele>
  <time>2026-09-02T22:06:32Z</time>
  <course>186.22</course>
  <speed>0.022360679774997897</speed>
  <fix>3d</fix>
</trkpt>
<trkpt lat="33.810313" lon="-118.393867">
  <ele>-0.12</ele>
  <time>2026-09-02T22:06:32Z</time>
  <course>0.0</course>
  <speed>0.0</speed>
  <fix>3d</fix>
</trkpt>
<trkpt lat="33.8103132" lon="-118.3938672">
  <ele>-0.118</ele>
  <time>2026-09-02T22:06:32Z</time>
  <course>186.22</course>
  <speed>0.022360679774997897</speed>
  <fix>3d</fix>
</trkpt>
<trkpt lat="33.810313" lon="-118.393867">
  <ele>-0.12</ele>
  <time>2026-09-02T22:06:32Z</time>
  <course>0.0</course>
  <speed>0.0</speed>
  <fix>3d</fix>
</trkpt>
<trkpt lat="33.8103132" lon="-118.3938672">
  <ele>-0.118</ele>
  <time>2026-09-02T22:06:32Z</time>
  <course>186.22</course>
  <speed>0.022360679774997897</speed>
  <fix>3d</fix>
</trkpt>
<trkpt lat="33.810313" lon="-118.393867">
  <ele>-0.12</ele>
  <time>2026-09-02T22:06:32Z</time>
  <course>0.0</course>
  <speed>0.0</speed>
  <fix>3d</fix>
</trkpt>
<trkpt lat="33.8103132" lon="-118.3938672">
  <ele>-0.118</ele>
  <time>2026-09-02T22:06:32Z</time>
  <course>186.22</course>
  <speed>0.022360679774997897</speed>
  <fix>3d</fix>
</trkpt>
<trkpt lat="33.810313" lon="-118.393867">
  <ele>-0.12</ele>
  <time>2026-09-02T22:06:32Z</time>
  <course>0.0</course>
  <speed>0.0</speed>
  <fix>3d</fix>
</trkpt>
<trkpt lat="33.8103132" lon="-118.3938672">
  <ele>-0.118</ele>
  <time>2026-09-02T22:06:32Z</time>
  <course>186.22</course>
  <speed>0.022360679774997897</speed>
  <fix>3d</fix>
</trkpt>
<trkpt lat="33.810313" lon="-118.393867">
  <ele>-0.12</ele>
  <time>2026-09-02T22:06:32Z</time>
  <course>0.0</course>
  <speed>0.0</speed>
  <fix>3d</fix>
</trkpt>
<trkpt lat="33.8103132" lon="-118.3938672">
  <ele>-0.12</ele>
  <time>2026-09-02T22:06:32Z</time>
  <course>186.22</course>
  <speed>0.022360679774997897</speed>
  <fix>3d</fix>
</trkpt>
<trkpt lat="33.810313" lon="-118.393867">
  <ele>-0.12</ele>
  <time>2026-09-02T22:06:32Z</time>
  <course>0.0</course>
  <speed>0.0</speed>
  <fix>3d</fix>
</trkpt>
<trkpt lat="33.8103132" lon="-118.3938672">
  <ele>-0.12</ele>
  <time>2026-09-02T22:06:32Z</time>
  <course>186.22</course>
  <speed>0.022360679774997897</speed>
  <fix>3d</fix>
</trkpt>
<trkpt lat="33.810313" lon="-118.393867">
  <ele>-0.12</ele>
  <time>2026-09-02T22:06:32Z</time>
  <course>0.0</course>
  <speed>0.0</speed>
  <fix>3d</fix>
</trkpt>
<trkpt lat="33.8103132" lon="-118.3938672">
  <ele>-0.122</ele>
  <time>2026-09-02T22:06:32Z</time>
  <course>186.22</course>
  <speed>0.022360679774997897</speed>
  <fix>3d</fix>
</trkpt>
<trkpt lat="33.810313" lon="-118.393867">
  <ele>-0.12</ele>
  <time>2026-09-02T22:06:32Z</time>
  <course>0.0</course>
  <speed>0.0</speed>
  <fix>3d</fix>
</trkpt>
<trkpt lat="33.8103132" lon="-118.3938672">
  <ele>-0.123</ele>
  <time>2026-09-02T22:06:32Z</time>
  <course>186.22</course>
  <speed>0.022360679774997897</speed>
  <fix>3d</fix>
</trkpt>
<trkpt lat="33.810313" lon="-118.393867">
  <ele>-0.12</ele>
  <time>2026-09-02T22:06:32Z</time>
  <course>0.0</course>
  <speed>0.0</speed>
  <fix>3d</fix>
</trkpt>
<trkpt lat="33.8103132" lon="-118.3938672">
  <ele>-0.125</ele>
  <time>2026-09-02T22:06:32Z</time>
  <course>186.22</course>
  <speed>0.022360679774997897</speed>
  <fix>3d</fix>
</trkpt>
<trkpt lat="33.810313" lon="-118.393867">
  <ele>-0.12</ele>
  <time>2026-09-02T22:06:32Z</time>
  <course>0.0</course>
  <speed>0.0</speed>
  <fix>3d</fix>
</trkpt>
<trkpt lat="33.8103132" lon="-118.3938672">
  <ele>-0.127</ele>
  <time>2026-09-02T22:06:32Z</time>
  <course>186.22</course>
  <speed>0.022360679774997897</speed>
  <fix>3d</fix>
</trkpt>
<trkpt lat="33.810313" lon="-118.393867">
  <ele>-0.12</ele>
  <time>2026-09-02T22:06:32Z</time>
  <course>0.0</course>
  <speed>0.0</speed>
  <fix>3d</fix>
</trkpt>
<trkpt lat="33.8103132" lon="-118.3938672">
  <ele>-0.129</ele>
  <time>2026-09-02T22:06:32Z</time>
  <course>186.22</course>
  <speed>0.022360679774997897</speed>
  <fix>3d</fix>
</trkpt>
<trkpt lat="33.810313" lon="-118.393867">
  <ele>-0.12</ele>
  <time>2026-09-02T22:06:32Z</time>
  <course>0.0</course>
  <speed>0.0</speed>
  <fix>3d</fix>
</trkpt>
<trkpt lat="33.8103132" lon="-118.3938672">
  <ele>-0.13</ele>
  <time>2026-09-02T22:06:32Z</time>
  <course>186.22</course>
  <speed>0.022360679774997897</speed>
  <fix>3d</fix>
</trkpt>
<trkpt lat="33.810313" lon="-118.393867">
  <ele>-0.12</ele>
  <time>2026-09-02T22:06:32Z</time>
  <course>0.0</course>
  <speed>0.0</speed>
  <fix>3d</fix>
</trkpt>
<trkpt lat="33.8103132" lon="-118.3938672">
  <ele>-0.13</ele>
  <time>2026-09-02T22:06:32Z</time>
  <course>186.22</course>
  <speed>0.022360679774997897</speed>
  <fix>3d</fix>
</trkpt>
<trkpt lat="33.810313" lon="-118.393867">
  <ele>-0.12</ele>
  <time>2026-09-02T22:06:32Z</time>
  <course>0.0</course>
  <speed>0.0</speed>
  <fix>3d</fix>
</trkpt>
<trkpt lat="33.8103132" lon="-118.3938672">
  <ele>-0.131</ele>
  <time>2026-09-02T22:06:32Z</time>
  <course>186.22</course>
  <speed>0.022360679774997897</speed>
  <fix>3d</fix>
</trkpt>
<trkpt lat="33.810313" lon="-118.393867">
  <ele>-0.12</ele>
  <time>2026-09-02T22:06:32Z</time>
  <course>0.0</course>
  <speed>0.0</speed>
  <fix>3d</fix>
</trkpt>
<trkpt lat="33.8103132" lon="-118.3938672">
  <ele>-0.13</ele>
  <time>2026-09-02T22:06:32Z</time>
  <course>186.22</course>
  <speed>0.022360679774997897</speed>
  <fix>3d</fix>
</trkpt>
<trkpt lat="33.810313" lon="-118.393867">
  <ele>-0.12</ele>
  <time>2026-09-02T22:06:32Z</time>
  <course>0.0</course>
  <speed>0.0</speed>
  <fix>3d</fix>
</trkpt>
<trkpt lat="33.8103132" lon="-118.3938672">
  <ele>-0.129</ele>
  <time>2026-09-02T22:06:32Z</time>
  <course>186.22</course>
  <speed>0.022360679774997897</speed>
  <fix>3d</fix>
</trkpt>
<trkpt lat="33.810313" lon="-118.393867">
  <ele>-0.12</ele>
  <time>2026-09-02T22:06:32Z</time>
  <course>0.0</course>
  <speed>0.0</speed>
  <fix>3d</fix>
</trkpt>
<trkpt lat="33.8103132" lon="-118.3938672">
  <ele>-0.127</ele>
  <time>2026-09-02T22:06:32Z</time>
  <course>186.22</course>
  <speed>0.022360679774997897</speed>
  <fix>3d</fix>
</trkpt>
<trkpt lat="33.810313" lon="-118.393867">
  <ele>-0.12</ele>
  <time>2026-09-02T22:06:32Z</time>
  <course>0.0</course>
  <speed>0.0</speed>
  <fix>3d</fix>
</trkpt>
<trkpt lat="33.8103132" lon="-118.3938672">
  <ele>-0.125</ele>
  <time>2026-09-02T22:06:32Z</time>
  <course>186.22</course>
  <speed>0.022360679774997897</speed>
  <fix>3d</fix>
</trkpt>
<trkpt lat="33.810313" lon="-118.393867">
  <ele>-0.12</ele>
  <time>2026-09-02T22:06:32Z</time>
  <course>0.0</course>
  <speed>0.0</speed>
  <fix>3d</fix>
</trkpt>
<trkpt lat="33.8103132" lon="-118.3938672">
  <ele>-0.124</ele>
  <time>2026-09-02T22:06:32Z</time>
  <course>186.22</course>
  <speed>0.022360679774997897</speed>
  <fix>3d</fix>
</trkpt>
<trkpt lat="33.810313" lon="-118.393867">
  <ele>-0.12</ele>
  <time>2026-09-02T22:06:32Z</time>
  <course>0.0</course>
  <speed>0.0</speed>
  <fix>3d</fix>
</trkpt>
<trkpt lat="33.8103132" lon="-118.3938672">
  <ele>-0.123</ele>
  <time>2026-09-02T22:06:32Z</time>
  <course>186.22</course>
  <speed>0.022360679774997897</speed>
  <fix>3d</fix>
</trkpt>
<trkpt lat="33.810313" lon="-118.393867">
  <ele>-0.12</ele>
  <time>2026-09-02T22:06:32Z</time>
  <course>0.0</course>
  <speed>0.0</speed>
  <fix>3d</fix>
</trkpt>
<trkpt lat="33.8103132" lon="-118.3938672">
  <ele>-0.122</ele>
  <time>2026-09-02T22:06:32Z</time>
  <course>186.22</course>
  <speed>0.022360679774997897</speed>
  <fix>3d</fix>
</trkpt>
<trkpt lat="33.810313" lon="-118.393867">
  <ele>-0.12</ele>
  <time>2026-09-02T22:06:32Z</time>
  <course>0.0</course>
  <speed>0.0</speed>
  <fix>3d</fix>
</trkpt>
<trkpt lat="33.8103132" lon="-118.3938672">
  <ele>-0.12</ele>
  <time>2026-09-02T22:06:32Z</time>
  <course>186.22</course>
  <speed>0.022360679774997897</speed>
  <fix>3d</fix>
</trkpt>
<trkpt lat="33.810313" lon="-118.393867">
  <ele>-0.12</ele>
  <time>2026-09-02T22:06:32Z</time>
  <course>0.0</course>
  <speed>0.0</speed>
  <fix>3d</fix>
</trkpt>
<trkpt lat="33.8103132" lon="-118.3938672">
  <ele>-0.118</ele>
  <time>2026-09-02T22:06:32Z</time>
  <course>186.22</course>
  <speed>0.022360679774997897</speed>
  <fix>3d</fix>
</trkpt>
<trkpt lat="33.810313" lon="-118.393867">
  <ele>-0.12</ele>
  <time>2026-09-02T22:06:32Z</time>
  <course>0.0</course>
  <speed>0.0</speed>
  <fix>3d</fix>
</trkpt>
<trkpt lat="33.8103132" lon="-118.3938672">
  <ele>-0.117</ele>
  <time>2026-09-02T22:06:32Z</time>
  <course>186.22</course>
  <speed>0.022360679774997897</speed>
  <fix>3d</fix>
</trkpt>
<trkpt lat="33.810313" lon="-118.393867">
  <ele>-0.12</ele>
  <time>2026-09-02T22:06:32Z</time>
  <course>0.0</course>
  <speed>0.0</speed>
  <fix>3d</fix>
</trkpt>
<trkpt lat="33.8103132" lon="-118.3938672">
  <ele>-0.117</ele>
  <time>2026-09-02T22:06:32Z</time>
  <course>186.22</course>
  <speed>0.022360679774997897</speed>
  <fix>3d</fix>
</trkpt>
<trkpt lat="33.810313" lon="-118.393867">
  <ele>-0.12</ele>
  <time>2026-09-02T22:06:32Z</time>
  <course>0.0</course>
  <speed>0.0</speed>
  <fix>3d</fix>
</trkpt>
<trkpt lat="33.8103132" lon="-118.3938672">
  <ele>-0.117</ele>
  <time>2026-09-02T22:06:32Z</time>
  <course>186.22</course>
  <speed>0.022360679774997897</speed>
  <fix>3d</fix>
</trkpt>
<trkpt lat="33.810313" lon="-118.393867">
  <ele>-0.12</ele>
  <time>2026-09-02T22:06:32Z</time>
  <course>0.0</course>
  <speed>0.0</speed>
  <fix>3d</fix>
</trkpt>
<trkpt lat="33.8103132" lon="-118.3938672">
  <ele>-0.116</ele>
  <time>2026-09-02T22:06:32Z</time>
  <course>186.22</course>
  <speed>0.022360679774997897</speed>
  <fix>3d</fix>
</trkpt>
<trkpt lat="33.810313" lon="-118.393867">
  <ele>-0.12</ele>
  <time>2026-09-02T22:06:32Z</time>
  <course>0.0</course>
  <speed>0.0</speed>
  <fix>3d</fix>
</trkpt>
<trkpt lat="33.8103132" lon="-118.3938672">
  <ele>-0.116</ele>
  <time>2026-09-02T22:06:32Z</time>
  <course>186.22</course>
  <speed>0.022360679774997897</speed>
  <fix>3d</fix>
</trkpt>
<trkpt lat="33.810313" lon="-118.393867">
  <ele>-0.12</ele>
  <time>2026-09-02T22:06:32Z</time>
  <course>0.0</course>
  <speed>0.0</speed>
  <fix>3d</fix>
</trkpt>
<trkpt lat="33.8103132" lon="-118.3938672">
  <ele>-0.115</ele>
  <time>2026-09-02T22:06:32Z</time>
  <course>186.22</course>
  <speed>0.022360679774997897</speed>
  <fix>3d</fix>
</trkpt>
<trkpt lat="33.810313" lon="-118.393867">
  <ele>-0.12</ele>
  <time>2026-09-02T22:06:32Z</time>
  <course>0.0</course>
  <speed>0.0</speed>
  <fix>3d</fix>
</trkpt>
<trkpt lat="33.8103132" lon="-118.3938672">
  <ele>-0.115</ele>
  <time>2026-09-02T22:06:32Z</time>
  <course>186.22</course>
  <speed>0.022360679774997897</speed>
  <fix>3d</fix>
</trkpt>
<trkpt lat="33.810313" lon="-118.393867">
  <ele>-0.12</ele>
  <time>2026-09-02T22:06:32Z</time>
  <course>0.0</course>
  <speed>0.0</speed>
  <fix>3d</fix>
</trkpt>
<trkpt lat="33.8103132" lon="-118.3938672">
  <ele>-0.115</ele>
  <time>2026-09-02T22:06:32Z</time>
  <course>186.22</course>
  <speed>0.022360679774997897</speed>
  <fix>3d</fix>
</trkpt>
<trkpt lat="33.810313" lon="-118.393867">
  <ele>-0.12</ele>
  <time>2026-09-02T22:06:32Z</time>
  <course>0.0</course>
  <speed>0.0</speed>
  <fix>3d</fix>
</trkpt>
<trkpt lat="33.8103132" lon="-118.3938672">
  <ele>-0.116</ele>
  <time>2026-09-02T22:06:32Z</time>
  <course>186.22</course>
  <speed>0.022360679774997897</speed>
  <fix>3d</fix>
</trkpt>
<trkpt lat="33.810313" lon="-118.393867">
  <ele>-0.12</ele>
  <time>2026-09-02T22:06:32Z</time>
  <course>0.0</course>
  <speed>0.0</speed>
  <fix>3d</fix>
</trkpt>
<trkpt lat="33.8103132" lon="-118.3938672">
  <ele>-0.118</ele>
  <time>2026-09-02T22:06:32Z</time>
  <course>186.22</course>
  <speed>0.022360679774997897</speed>
  <fix>3d</fix>
</trkpt>
<trkpt lat="33.810313" lon="-118.393867">
  <ele>-0.12</ele>
  <time>2026-09-02T22:06:32Z</time>
  <course>0.0</course>
  <speed>0.0</speed>
  <fix>3d</fix>
</trkpt>
<trkpt lat="33.8103132" lon="-118.3938672">
  <ele>-0.119</ele>
  <time>2026-09-02T22:06:32Z</time>
  <course>186.21</course>
  <speed>0.022360679774997897</speed>
  <fix>3d</fix>
</trkpt>
<trkpt lat="33.810313" lon="-118.393867">
  <ele>-0.12</ele>
  <time>2026-09-02T22:06:32Z</time>
  <course>0.0</course>
  <speed>0.0</speed>
  <fix>3d</fix>
</trkpt>
<trkpt lat="33.8103132" lon="-118.3938672">
  <ele>-0.12</ele>
  <time>2026-09-02T22:06:32Z</time>
  <course>186.21</course>
  <speed>0.022360679774997897</speed>
  <fix>3d</fix>
</trkpt>
<trkpt lat="33.810313" lon="-118.393867">
  <ele>-0.12</ele>
  <time>2026-09-02T22:06:32Z</time>
  <course>0.0</course>
  <speed>0.0</speed>
  <fix>3d</fix>
</trkpt>
<trkpt lat="33.8103132" lon="-118.3938672">
  <ele>-0.121</ele>
  <time>2026-09-02T22:06:32Z</time>
  <course>186.21</course>
  <speed>0.022360679774997897</speed>
  <fix>3d</fix>
</trkpt>
<trkpt lat="33.810313" lon="-118.393867">
  <ele>-0.12</ele>
  <time>2026-09-02T22:06:32Z</time>
  <course>0.0</course>
  <speed>0.0</speed>
  <fix>3d</fix>
</trkpt>
<trkpt lat="33.8103132" lon="-118.3938672">
  <ele>-0.122</ele>
  <time>2026-09-02T22:06:32Z</time>
  <course>186.21</course>
  <speed>0.022360679774997897</speed>
  <fix>3d</fix>
</trkpt>
<trkpt lat="33.810313" lon="-118.393867">
  <ele>-0.12</ele>
  <time>2026-09-02T22:06:32Z</time>
  <course>0.0</course>
  <speed>0.0</speed>
  <fix>3d</fix>
</trkpt>
<trkpt lat="33.8103132" lon="-118.3938672">
  <ele>-0.123</ele>
  <time>2026-09-02T22:06:32Z</time>
  <course>186.21</course>
  <speed>0.022360679774997897</speed>
  <fix>3d</fix>
</trkpt>
<trkpt lat="33.810313" lon="-118.393867">
  <ele>-0.12</ele>
  <time>2026-09-02T22:06:32Z</time>
  <course>0.0</course>
  <speed>0.0</speed>
  <fix>3d</fix>
</trkpt>
<trkpt lat="33.8103132" lon="-118.3938672">
  <ele>-0.125</ele>
  <time>2026-09-02T22:06:32Z</time>
  <course>186.21</course>
  <speed>0.022360679774997897</speed>
  <fix>3d</fix>
</trkpt>
<trkpt lat="33.810313" lon="-118.393867">
  <ele>-0.12</ele>
  <time>2026-09-02T22:06:32Z</time>
  <course>0.0</course>
  <speed>0.0</speed>
  <fix>3d</fix>
</trkpt>
<trkpt lat="33.8103132" lon="-118.3938672">
  <ele>-0.127</ele>
  <time>2026-09-02T22:06:32Z</time>
  <course>186.21</course>
  <speed>0.022360679774997897</speed>
  <fix>3d</fix>
</trkpt>
<trkpt lat="33.810313" lon="-118.393867">
  <ele>-0.12</ele>
  <time>2026-09-02T22:06:32Z</time>
  <course>0.0</course>
  <speed>0.0</speed>
  <fix>3d</fix>
</trkpt>
<trkpt lat="33.8103132" lon="-118.3938672">
  <ele>-0.128</ele>
  <time>2026-09-02T22:06:32Z</time>
  <course>186.21</course>
  <speed>0.022360679774997897</speed>
  <fix>3d</fix>
</trkpt>
<trkpt lat="33.810313" lon="-118.393867">
  <ele>-0.12</ele>
  <time>2026-09-02T22:06:32Z</time>
  <course>0.0</course>
  <speed>0.0</speed>
  <fix>3d</fix>
</trkpt>
<trkpt lat="33.8103132" lon="-118.3938672">
  <ele>-0.13</ele>
  <time>2026-09-02T22:06:32Z</time>
  <course>186.21</course>
  <speed>0.022360679774997897</speed>
  <fix>3d</fix>
</trkpt>
<trkpt lat="33.810313" lon="-118.393867">
  <ele>-0.12</ele>
  <time>2026-09-02T22:06:32Z</time>
  <course>0.0</course>
  <speed>0.0</speed>
  <fix>3d</fix>
</trkpt>
<trkpt lat="33.8103132" lon="-118.3938672">
  <ele>-0.133</ele>
  <time>2026-09-02T22:06:32Z</time>
  <course>186.21</course>
  <speed>0.022360679774997897</speed>
  <fix>3d</fix>
</trkpt>
<trkpt lat="33.810313" lon="-118.393867">
  <ele>-0.12</ele>
  <time>2026-09-02T22:06:32Z</time>
  <course>0.0</course>
  <speed>0.0</speed>
  <fix>3d</fix>
</trkpt>
<trkpt lat="33.8103132" lon="-118.3938672">
  <ele>-0.135</ele>
  <time>2026-09-02T22:06:32Z</time>
  <course>186.21</course>
  <speed>0.022360679774997897</speed>
  <fix>3d</fix>
</trkpt>
<trkpt lat="33.810313" lon="-118.393867">
  <ele>-0.12</ele>
  <time>2026-09-02T22:06:32Z</time>
  <course>0.0</course>
  <speed>0.0</speed>
  <fix>3d</fix>
</trkpt>
<trkpt lat="33.8103132" lon="-118.3938672">
  <ele>-0.138</ele>
  <time>2026-09-02T22:06:32Z</time>
  <course>186.21</course>
  <speed>0.022360679774997897</speed>
  <fix>3d</fix>
</trkpt>
<trkpt lat="33.810313" lon="-118.393867">
  <ele>-0.12</ele>
  <time>2026-09-02T22:06:32Z</time>
  <course>0.0</course>
  <speed>0.0</speed>
  <fix>3d</fix>
</trkpt>
<trkpt lat="33.8103132" lon="-118.3938672">
  <ele>-0.14</ele>
  <time>2026-09-02T22:06:32Z</time>
  <course>186.21</course>
  <speed>0.022360679774997897</speed>
  <fix>3d</fix>
</trkpt>
<trkpt lat="33.810313" lon="-118.393867">
  <ele>-0.12</ele>
  <time>2026-09-02T22:06:32Z</time>
  <course>0.0</course>
  <speed>0.0</speed>
  <fix>3d</fix>
</trkpt>
<trkpt lat="33.8103132" lon="-118.3938672">
  <ele>-0.141</ele>
  <time>2026-09-02T22:06:32Z</time>
  <course>186.21</course>
  <speed>0.022360679774997897</speed>
  <fix>3d</fix>
</trkpt>
<trkpt lat="33.810313" lon="-118.393867">
  <ele>-0.12</ele>
  <time>2026-09-02T22:06:32Z</time>
  <course>0.0</course>
  <speed>0.0</speed>
  <fix>3d</fix>
</trkpt>
<trkpt lat="33.8103132" lon="-118.3938672">
  <ele>-0.141</ele>
  <time>2026-09-02T22:06:32Z</time>
  <course>186.21</course>
  <speed>0.022360679774997897</speed>
  <fix>3d</fix>
</trkpt>
<trkpt lat="33.810313" lon="-118.393867">
  <ele>-0.12</ele>
  <time>2026-09-02T22:06:32Z</time>
  <course>0.0</course>
  <speed>0.0</speed>
  <fix>3d</fix>
</trkpt>
<trkpt lat="33.8103132" lon="-118.3938672">
  <ele>-0.141</ele>
  <time>2026-09-02T22:06:32Z</time>
  <course>186.21</course>
  <speed>0.022360679774997897</speed>
  <fix>3d</fix>
</trkpt>
<trkpt lat="33.810313" lon="-118.393867">
  <ele>-0.12</ele>
  <time>2026-09-02T22:06:32Z</time>
  <course>0.0</course>
  <speed>0.0</speed>
  <fix>3d</fix>
</trkpt>
<trkpt lat="33.8103132" lon="-118.3938672">
  <ele>-0.141</ele>
  <time>2026-09-02T22:06:32Z</time>
  <course>186.21</course>
  <speed>0.022360679774997897</speed>
  <fix>3d</fix>
</trkpt>
<trkpt lat="33.810313" lon="-118.393867">
  <ele>-0.12</ele>
  <time>2026-09-02T22:06:32Z</time>
  <course>0.0</course>
  <speed>0.0</speed>
  <fix>3d</fix>
</trkpt>
<trkpt lat="33.8103132" lon="-118.3938672">
  <ele>-0.139</ele>
  <time>2026-09-02T22:06:32Z</time>
  <course>186.21</course>
  <speed>0.022360679774997897</speed>
  <fix>3d</fix>
</trkpt>
<trkpt lat="33.810313" lon="-118.393867">
  <ele>-0.12</ele>
  <time>2026-09-02T22:06:32Z</time>
  <course>0.0</course>
  <speed>0.0</speed>
  <fix>3d</fix>
</trkpt>
<trkpt lat="33.8103132" lon="-118.3938672">
  <ele>-0.138</ele>
  <time>2026-09-02T22:06:32Z</time>
  <course>186.21</course>
  <speed>0.022360679774997897</speed>
  <fix>3d</fix>
</trkpt>
<trkpt lat="33.810313" lon="-118.393867">
  <ele>-0.12</ele>
  <time>2026-09-02T22:06:32Z</time>
  <course>0.0</course>
  <speed>0.0</speed>
  <fix>3d</fix>
</trkpt>
<trkpt lat="33.8103132" lon="-118.3938672">
  <ele>-0.137</ele>
  <time>2026-09-02T22:06:32Z</time>
  <course>186.21</course>
  <speed>0.022360679774997897</speed>
  <fix>3d</fix>
</trkpt>
<trkpt lat="33.810313" lon="-118.393867">
  <ele>-0.12</ele>
  <time>2026-09-02T22:06:32Z</time>
  <course>0.0</course>
  <speed>0.0</speed>
  <fix>3d</fix>
</trkpt>
<trkpt lat="33.8103132" lon="-118.3938672">
  <ele>-0.136</ele>
  <time>2026-09-02T22:06:32Z</time>
  <course>186.21</course>
  <speed>0.022360679774997897</speed>
  <fix>3d</fix>
</trkpt>
<trkpt lat="33.810313" lon="-118.393867">
  <ele>-0.12</ele>
  <time>2026-09-02T22:06:32Z</time>
  <course>0.0</course>
  <speed>0.0</speed>
  <fix>3d</fix>
</trkpt>
<trkpt lat="33.8103132" lon="-118.3938672">
  <ele>-0.137</ele>
  <time>2026-09-02T22:06:32Z</time>
  <course>186.21</course>
  <speed>0.022360679774997897</speed>
  <fix>3d</fix>
</trkpt>
<trkpt lat="33.810313" lon="-118.393867">
  <ele>-0.12</ele>
  <time>2026-09-02T22:06:32Z</time>
  <course>0.0</course>
  <speed>0.0</speed>
  <fix>3d</fix>
</trkpt>
<trkpt lat="33.8103132" lon="-118.3938672">
  <ele>-0.137</ele>
  <time>2026-09-02T22:06:32Z</time>
  <course>186.21</course>
  <speed>0.022360679774997897</speed>
  <fix>3d</fix>
</trkpt>
<trkpt lat="33.810313" lon="-118.393867">
  <ele>-0.12</ele>
  <time>2026-09-02T22:06:32Z</time>
  <course>0.0</course>
  <speed>0.0</speed>
  <fix>3d</fix>
</trkpt>
<trkpt lat="33.8103132" lon="-118.3938672">
  <ele>-0.137</ele>
  <time>2026-09-02T22:06:32Z</time>
  <course>186.21</course>
  <speed>0.022360679774997897</speed>
  <fix>3d</fix>
</trkpt>
<trkpt lat="33.810313" lon="-118.393867">
  <ele>-0.12</ele>
  <time>2026-09-02T22:06:32Z</time>
  <course>0.0</course>
  <speed>0.0</speed>
  <fix>3d</fix>
</trkpt>
<trkpt lat="33.8103132" lon="-118.3938672">
  <ele>-0.138</ele>
  <time>2026-09-02T22:06:32Z</time>
  <course>186.21</course>
  <speed>0.022360679774997897</speed>
  <fix>3d</fix>
</trkpt>
<trkpt lat="33.810313" lon="-118.393867">
  <ele>-0.12</ele>
  <time>2026-09-02T22:06:32Z</time>
  <course>0.0</course>
  <speed>0.0</speed>
  <fix>3d</fix>
</trkpt>
<trkpt lat="33.8103132" lon="-118.3938672">
  <ele>-0.137</ele>
  <time>2026-09-02T22:06:32Z</time>
  <course>186.21</course>
  <speed>0.022360679774997897</speed>
  <fix>3d</fix>
</trkpt>
<trkpt lat="33.810313" lon="-118.393867">
  <ele>-0.12</ele>
  <time>2026-09-02T22:06:32Z</time>
  <course>0.0</course>
  <speed>0.0</speed>
  <fix>3d</fix>
</trkpt>
<trkpt lat="33.8103132" lon="-118.3938672">
  <ele>-0.135</ele>
  <time>2026-09-02T22:06:32Z</time>
  <course>186.21</course>
  <speed>0.022360679774997897</speed>
  <fix>3d</fix>
</trkpt>
<trkpt lat="33.810313" lon="-118.393867">
  <ele>-0.12</ele>
  <time>2026-09-02T22:06:32Z</time>
  <course>0.0</course>
  <speed>0.0</speed>
  <fix>3d</fix>
</trkpt>
<trkpt lat="33.8103132" lon="-118.3938672">
  <ele>-0.132</ele>
  <time>2026-09-02T22:06:32Z</time>
  <course>186.21</course>
  <speed>0.0282842712474619</speed>
  <fix>3d</fix>
</trkpt>
<trkpt lat="33.810313" lon="-118.393867">
  <ele>-0.12</ele>
  <time>2026-09-02T22:06:32Z</time>
  <course>0.0</course>
  <speed>0.0</speed>
  <fix>3d</fix>
</trkpt>
<trkpt lat="33.8103132" lon="-118.3938672">
  <ele>-0.131</ele>
  <time>2026-09-02T22:06:32Z</time>
  <course>186.21</course>
  <speed>0.022360679774997897</speed>
  <fix>3d</fix>
</trkpt>
<trkpt lat="33.810313" lon="-118.393867">
  <ele>-0.12</ele>
  <time>2026-09-02T22:06:32Z</time>
  <course>0.0</course>
  <speed>0.0</speed>
  <fix>3d</fix>
</trkpt>
<trkpt lat="33.8103132" lon="-118.3938672">
  <ele>-0.13</ele>
  <time>2026-09-02T22:06:32Z</time>
  <course>186.21</course>
  <speed>0.022360679774997897</speed>
  <fix>3d</fix>
</trkpt>
<trkpt lat="33.810313" lon="-118.393867">
  <ele>-0.12</ele>
  <time>2026-09-02T22:06:32Z</time>
  <course>0.0</course>
  <speed>0.0</speed>
  <fix>3d</fix>
</trkpt>
<trkpt lat="33.8103132" lon="-118.3938672">
  <ele>-0.128</ele>
  <time>2026-09-02T22:06:32Z</time>
  <course>186.21</course>
  <speed>0.022360679774997897</speed>
  <fix>3d</fix>
</trkpt>
<trkpt lat="33.810313" lon="-118.393867">
  <ele>-0.12</ele>
  <time>2026-09-02T22:06:32Z</time>
  <course>0.0</course>
  <speed>0.0</speed>
  <fix>3d</fix>
</trkpt>
<trkpt lat="33.8103132" lon="-118.3938672">
  <ele>-0.127</ele>
  <time>2026-09-02T22:06:32Z</time>
  <course>186.21</course>
  <speed>0.022360679774997897</speed>
  <fix>3d</fix>
</trkpt>
<trkpt lat="33.810313" lon="-118.393867">
  <ele>-0.12</ele>
  <time>2026-09-02T22:06:32Z</time>
  <course>0.0</course>
  <speed>0.0</speed>
  <fix>3d</fix>
</trkpt>
<trkpt lat="33.8103132" lon="-118.3938672">
  <ele>-0.127</ele>
  <time>2026-09-02T22:06:32Z</time>
  <course>186.21</course>
  <speed>0.022360679774997897</speed>
  <fix>3d</fix>
</trkpt>
<trkpt lat="33.810313" lon="-118.393867">
  <ele>-0.12</ele>
  <time>2026-09-02T22:06:32Z</time>
  <course>0.0</course>
  <speed>0.0</speed>
  <fix>3d</fix>
</trkpt>
<trkpt lat="33.8103132" lon="-118.3938672">
  <ele>-0.126</ele>
  <time>2026-09-02T22:06:32Z</time>
  <course>186.21</course>
  <speed>0.022360679774997897</speed>
  <fix>3d</fix>
</trkpt>
<trkpt lat="33.810313" lon="-118.393867">
  <ele>-0.12</ele>
  <time>2026-09-02T22:06:32Z</time>
  <course>0.0</course>
  <speed>0.0</speed>
  <fix>3d</fix>
</trkpt>
<trkpt lat="33.8103132" lon="-118.3938672">
  <ele>-0.127</ele>
  <time>2026-09-02T22:06:32Z</time>
  <course>186.21</course>
  <speed>0.022360679774997897</speed>
  <fix>3d</fix>
</trkpt>
<trkpt lat="33.810313" lon="-118.393867">
  <ele>-0.12</ele>
  <time>2026-09-02T22:06:32Z</time>
  <course>0.0</course>
  <speed>0.0</speed>
  <fix>3d</fix>
</trkpt>
<trkpt lat="33.8103132" lon="-118.3938672">
  <ele>-0.126</ele>
  <time>2026-09-02T22:06:32Z</time>
  <course>186.21</course>
  <speed>0.022360679774997897</speed>
  <fix>3d</fix>
</trkpt>
<trkpt lat="33.810313" lon="-118.393867">
  <ele>-0.12</ele>
  <time>2026-09-02T22:06:32Z</time>
  <course>0.0</course>
  <speed>0.0</speed>
  <fix>3d</fix>
</trkpt>
<trkpt lat="33.8103132" lon="-118.3938672">
  <ele>-0.126</ele>
  <time>2026-09-02T22:06:32Z</time>
  <course>186.21</course>
  <speed>0.022360679774997897</speed>
  <fix>3d</fix>
</trkpt>
<trkpt lat="33.810313" lon="-118.393867">
  <ele>-0.12</ele>
  <time>2026-09-02T22:06:32Z</time>
  <course>0.0</course>
  <speed>0.0</speed>
  <fix>3d</fix>
</trkpt>
<trkpt lat="33.8103132" lon="-118.3938672">
  <ele>-0.125</ele>
  <time>2026-09-02T22:06:32Z</time>
  <course>186.21</course>
  <speed>0.0282842712474619</speed>
  <fix>3d</fix>
</trkpt>
<trkpt lat="33.810313" lon="-118.393867">
  <ele>-0.12</ele>
  <time>2026-09-02T22:06:32Z</time>
  <course>0.0</course>
  <speed>0.0</speed>
  <fix>3d</fix>
</trkpt>
<trkpt lat="33.8103132" lon="-118.3938672">
  <ele>-0.125</ele>
  <time>2026-09-02T22:06:32Z</time>
  <course>186.21</course>
  <speed>0.0282842712474619</speed>
  <fix>3d</fix>
</trkpt>
<trkpt lat="33.810313" lon="-118.393867">
  <ele>-0.12</ele>
  <time>2026-09-02T22:06:32Z</time>
  <course>0.0</course>
  <speed>0.0</speed>
  <fix>3d</fix>
</trkpt>
<trkpt lat="33.8103132" lon="-118.3938672">
  <ele>-0.124</ele>
  <time>2026-09-02T22:06:32Z</time>
  <course>186.21</course>
  <speed>0.0282842712474619</speed>
  <fix>3d</fix>
</trkpt>
<trkpt lat="33.810313" lon="-118.393867">
  <ele>-0.12</ele>
  <time>2026-09-02T22:06:32Z</time>
  <course>0.0</course>
  <speed>0.0</speed>
  <fix>3d</fix>
</trkpt>
<trkpt lat="33.8103132" lon="-118.3938672">
  <ele>-0.123</ele>
  <time>2026-09-02T22:06:32Z</time>
  <course>186.21</course>
  <speed>0.0282842712474619</speed>
  <fix>3d</fix>
</trkpt>
<trkpt lat="33.810313" lon="-118.393867">
  <ele>-0.12</ele>
  <time>2026-09-02T22:06:32Z</time>
  <course>0.0</course>
  <speed>0.0</speed>
  <fix>3d</fix>
</trkpt>
<trkpt lat="33.8103132" lon="-118.3938672">
  <ele>-0.123</ele>
  <time>2026-09-02T22:06:32Z</time>
  <course>186.21</course>
  <speed>0.0282842712474619</speed>
  <fix>3d</fix>
</trkpt>
<trkpt lat="33.810313" lon="-118.393867">
  <ele>-0.12</ele>
  <time>2026-09-02T22:06:32Z</time>
  <course>0.0</course>
  <speed>0.0</speed>
  <fix>3d</fix>
</trkpt>
<trkpt lat="33.8103132" lon="-118.3938672">
  <ele>-0.125</ele>
  <time>2026-09-02T22:06:32Z</time>
  <course>186.21</course>
  <speed>0.0282842712474619</speed>
  <fix>3d</fix>
</trkpt>
<trkpt lat="33.810313" lon="-118.393867">
  <ele>-0.12</ele>
  <time>2026-09-02T22:06:32Z</time>
  <course>0.0</course>
  <speed>0.0</speed>
  <fix>3d</fix>
</trkpt>
<trkpt lat="33.8103132" lon="-118.3938672">
  <ele>-0.126</ele>
  <time>2026-09-02T22:06:32Z</time>
  <course>186.21</course>
  <speed>0.0282842712474619</speed>
  <fix>3d</fix>
</trkpt>
<trkpt lat="33.810313" lon="-118.393867">
  <ele>-0.12</ele>
  <time>2026-09-02T22:06:32Z</time>
  <course>0.0</course>
  <speed>0.0</speed>
  <fix>3d</fix>
</trkpt>
<trkpt lat="33.8103132" lon="-118.3938672">
  <ele>-0.128</ele>
  <time>2026-09-02T22:06:32Z</time>
  <course>186.21</course>
  <speed>0.0282842712474619</speed>
  <fix>3d</fix>
</trkpt>
<trkpt lat="33.810313" lon="-118.393867">
  <ele>-0.12</ele>
  <time>2026-09-02T22:06:32Z</time>
  <course>0.0</course>
  <speed>0.0</speed>
  <fix>3d</fix>
</trkpt>
<trkpt lat="33.8103132" lon="-118.3938672">
  <ele>-0.128</ele>
  <time>2026-09-02T22:06:32Z</time>
  <course>186.21</course>
  <speed>0.0282842712474619</speed>
  <fix>3d</fix>
</trkpt>
<trkpt lat="33.810313" lon="-118.393867">
  <ele>-0.12</ele>
  <time>2026-09-02T22:06:32Z</time>
  <course>0.0</course>
  <speed>0.0</speed>
  <fix>3d</fix>
</trkpt>
<trkpt lat="33.8103132" lon="-118.3938672">
  <ele>-0.127</ele>
  <time>2026-09-02T22:06:32Z</time>
  <course>186.21</course>
  <speed>0.0282842712474619</speed>
  <fix>3d</fix>
</trkpt>
<trkpt lat="33.810313" lon="-118.393867">
  <ele>-0.12</ele>
  <time>2026-09-02T22:06:32Z</time>
  <course>0.0</course>
  <speed>0.0</speed>
  <fix>3d</fix>
</trkpt>
<trkpt lat="33.8103132" lon="-118.3938672">
  <ele>-0.125</ele>
  <time>2026-09-02T22:06:32Z</time>
  <course>186.21</course>
  <speed>0.0282842712474619</speed>
  <fix>3d</fix>
</trkpt>
<trkpt lat="33.810313" lon="-118.393867">
  <ele>-0.12</ele>
  <time>2026-09-02T22:06:32Z</time>
  <course>0.0</course>
  <speed>0.0</speed>
  <fix>3d</fix>
</trkpt>
<trkpt lat="33.8103132" lon="-118.3938672">
  <ele>-0.12</ele>
  <time>2026-09-02T22:06:32Z</time>
  <course>186.21</course>
  <speed>0.0282842712474619</speed>
  <fix>3d</fix>
</trkpt>
<trkpt lat="33.810313" lon="-118.393867">
  <ele>-0.12</ele>
  <time>2026-09-02T22:06:32Z</time>
  <course>0.0</course>
  <speed>0.0</speed>
  <fix>3d</fix>
</trkpt>
<trkpt lat="33.8103132" lon="-118.3938672">
  <ele>-0.123</ele>
  <time>2026-09-02T22:06:33Z</time>
  <course>186.21</course>
  <speed>0.0282842712474619</speed>
  <fix>3d</fix>
</trkpt>
<trkpt lat="33.810313" lon="-118.393867">
  <ele>-0.12</ele>
  <time>2026-09-02T22:06:33Z</time>
  <course>0.0</course>
  <speed>0.0</speed>
  <fix>3d</fix>
</trkpt>
<trkpt lat="33.8103132" lon="-118.3938672">
  <ele>-0.125</ele>
  <time>2026-09-02T22:06:33Z</time>
  <course>186.21</course>
  <speed>0.0282842712474619</speed>
  <fix>3d</fix>
</trkpt>
<trkpt lat="33.810313" lon="-118.393867">
  <ele>-0.12</ele>
  <time>2026-09-02T22:06:33Z</time>
  <course>0.0</course>
  <speed>0.0</speed>
  <fix>3d</fix>
</trkpt>
<trkpt lat="33.8103132" lon="-118.3938672">
  <ele>-0.126</ele>
  <time>2026-09-02T22:06:33Z</time>
  <course>186.21</course>
  <speed>0.0282842712474619</speed>
  <fix>3d</fix>
</trkpt>
<trkpt lat="33.810313" lon="-118.393867">
  <ele>-0.12</ele>
  <time>2026-09-02T22:06:33Z</time>
  <course>0.0</course>
  <speed>0.0</speed>
  <fix>3d</fix>
</trkpt>
<trkpt lat="33.8103132" lon="-118.3938672">
  <ele>-0.127</ele>
  <time>2026-09-02T22:06:33Z</time>
  <course>186.21</course>
  <speed>0.0282842712474619</speed>
  <fix>3d</fix>
</trkpt>
<trkpt lat="33.810313" lon="-118.393867">
  <ele>-0.12</ele>
  <time>2026-09-02T22:06:33Z</time>
  <course>0.0</course>
  <speed>0.0</speed>
  <fix>3d</fix>
</trkpt>
<trkpt lat="33.8103132" lon="-118.3938672">
  <ele>-0.127</ele>
  <time>2026-09-02T22:06:33Z</time>
  <course>186.21</course>
  <speed>0.0282842712474619</speed>
  <fix>3d</fix>
</trkpt>
<trkpt lat="33.810313" lon="-118.393867">
  <ele>-0.12</ele>
  <time>2026-09-02T22:06:33Z</time>
  <course>0.0</course>
  <speed>0.0</speed>
  <fix>3d</fix>
</trkpt>
<trkpt lat="33.8103132" lon="-118.3938672">
  <ele>-0.128</ele>
  <time>2026-09-02T22:06:33Z</time>
  <course>186.21</course>
  <speed>0.0282842712474619</speed>
  <fix>3d</fix>
</trkpt>
<trkpt lat="33.810313" lon="-118.393867">
  <ele>-0.12</ele>
  <time>2026-09-02T22:06:33Z</time>
  <course>0.0</course>
  <speed>0.0</speed>
  <fix>3d</fix>
</trkpt>
<trkpt lat="33.8103132" lon="-118.3938672">
  <ele>-0.13</ele>
  <time>2026-09-02T22:06:33Z</time>
  <course>186.21</course>
  <speed>0.0282842712474619</speed>
  <fix>3d</fix>
</trkpt>
<trkpt lat="33.810313" lon="-118.393867">
  <ele>-0.12</ele>
  <time>2026-09-02T22:06:33Z</time>
  <course>0.0</course>
  <speed>0.0</speed>
  <fix>3d</fix>
</trkpt>
<trkpt lat="33.8103132" lon="-118.3938672">
  <ele>-0.132</ele>
  <time>2026-09-02T22:06:33Z</time>
  <course>186.21</course>
  <speed>0.0282842712474619</speed>
  <fix>3d</fix>
</trkpt>
<trkpt lat="33.810313" lon="-118.393867">
  <ele>-0.12</ele>
  <time>2026-09-02T22:06:33Z</time>
  <course>0.0</course>
  <speed>0.0</speed>
  <fix>3d</fix>
</trkpt>
<trkpt lat="33.8103132" lon="-118.3938672">
  <ele>-0.134</ele>
  <time>2026-09-02T22:06:33Z</time>
  <course>186.21</course>
  <speed>0.0282842712474619</speed>
  <fix>3d</fix>
</trkpt>
<trkpt lat="33.810313" lon="-118.393867">
  <ele>-0.12</ele>
  <time>2026-09-02T22:06:33Z</time>
  <course>0.0</course>
  <speed>0.0</speed>
  <fix>3d</fix>
</trkpt>
<trkpt lat="33.8103132" lon="-118.3938672">
  <ele>-0.135</ele>
  <time>2026-09-02T22:06:33Z</time>
  <course>186.21</course>
  <speed>0.0282842712474619</speed>
  <fix>3d</fix>
</trkpt>
<trkpt lat="33.810313" lon="-118.393867">
  <ele>-0.12</ele>
  <time>2026-09-02T22:06:33Z</time>
  <course>0.0</course>
  <speed>0.0</speed>
  <fix>3d</fix>
</trkpt>
<trkpt lat="33.8103132" lon="-118.3938672">
  <ele>-0.136</ele>
  <time>2026-09-02T22:06:33Z</time>
  <course>186.21</course>
  <speed>0.0282842712474619</speed>
  <fix>3d</fix>
</trkpt>
<trkpt lat="33.810313" lon="-118.393867">
  <ele>-0.12</ele>
  <time>2026-09-02T22:06:33Z</time>
  <course>0.0</course>
  <speed>0.0</speed>
  <fix>3d</fix>
</trkpt>
<trkpt lat="33.8103132" lon="-118.3938672">
  <ele>-0.136</ele>
  <time>2026-09-02T22:06:33Z</time>
  <course>186.21</course>
  <speed>0.0282842712474619</speed>
  <fix>3d</fix>
</trkpt>
<trkpt lat="33.810313" lon="-118.393867">
  <ele>-0.12</ele>
  <time>2026-09-02T22:06:33Z</time>
  <course>0.0</course>
  <speed>0.0</speed>
  <fix>3d</fix>
</trkpt>
<trkpt lat="33.8103132" lon="-118.3938672">
  <ele>-0.136</ele>
  <time>2026-09-02T22:06:33Z</time>
  <course>186.21</course>
  <speed>0.0282842712474619</speed>
  <fix>3d</fix>
</trkpt>
<trkpt lat="33.810313" lon="-118.393867">
  <ele>-0.12</ele>
  <time>2026-09-02T22:06:33Z</time>
  <course>0.0</course>
  <speed>0.0</speed>
  <fix>3d</fix>
</trkpt>
<trkpt lat="33.8103132" lon="-118.3938672">
  <ele>-0.135</ele>
  <time>2026-09-02T22:06:33Z</time>
  <course>186.21</course>
  <speed>0.0282842712474619</speed>
  <fix>3d</fix>
</trkpt>
<trkpt lat="33.810313" lon="-118.393867">
  <ele>-0.12</ele>
  <time>2026-09-02T22:06:33Z</time>
  <course>0.0</course>
  <speed>0.0</speed>
  <fix>3d</fix>
</trkpt>
<trkpt lat="33.8103132" lon="-118.3938672">
  <ele>-0.135</ele>
  <time>2026-09-02T22:06:33Z</time>
  <course>186.21</course>
  <speed>0.0282842712474619</speed>
  <fix>3d</fix>
</trkpt>
<trkpt lat="33.810313" lon="-118.393867">
  <ele>-0.12</ele>
  <time>2026-09-02T22:06:33Z</time>
  <course>0.0</course>
  <speed>0.0</speed>
  <fix>3d</fix>
</trkpt>
<trkpt lat="33.8103132" lon="-118.3938672">
  <ele>-0.134</ele>
  <time>2026-09-02T22:06:33Z</time>
  <course>186.21</course>
  <speed>0.0282842712474619</speed>
  <fix>3d</fix>
</trkpt>
<trkpt lat="33.810313" lon="-118.393867">
  <ele>-0.12</ele>
  <time>2026-09-02T22:06:33Z</time>
  <course>0.0</course>
  <speed>0.0</speed>
  <fix>3d</fix>
</trkpt>
<trkpt lat="33.8103132" lon="-118.3938672">
  <ele>-0.132</ele>
  <time>2026-09-02T22:06:33Z</time>
  <course>186.21</course>
  <speed>0.0282842712474619</speed>
  <fix>3d</fix>
</trkpt>
<trkpt lat="33.810313" lon="-118.393867">
  <ele>-0.12</ele>
  <time>2026-09-02T22:06:33Z</time>
  <course>0.0</course>
  <speed>0.0</speed>
  <fix>3d</fix>
</trkpt>
<trkpt lat="33.8103132" lon="-118.3938672">
  <ele>-0.13</ele>
  <time>2026-09-02T22:06:33Z</time>
  <course>186.21</course>
  <speed>0.0282842712474619</speed>
  <fix>3d</fix>
</trkpt>
<trkpt lat="33.810313" lon="-118.393867">
  <ele>-0.12</ele>
  <time>2026-09-02T22:06:33Z</time>
  <course>0.0</course>
  <speed>0.0</speed>
  <fix>3d</fix>
</trkpt>
<trkpt lat="33.8103132" lon="-118.3938672">
  <ele>-0.13</ele>
  <time>2026-09-02T22:06:33Z</time>
  <course>186.21</course>
  <speed>0.0282842712474619</speed>
  <fix>3d</fix>
</trkpt>
<trkpt lat="33.810313" lon="-118.393867">
  <ele>-0.12</ele>
  <time>2026-09-02T22:06:33Z</time>
  <course>0.0</course>
  <speed>0.0</speed>
  <fix>3d</fix>
</trkpt>
<trkpt lat="33.8103132" lon="-118.3938672">
  <ele>-0.13</ele>
  <time>2026-09-02T22:06:33Z</time>
  <course>186.21</course>
  <speed>0.0282842712474619</speed>
  <fix>3d</fix>
</trkpt>
<trkpt lat="33.810313" lon="-118.393867">
  <ele>-0.12</ele>
  <time>2026-09-02T22:06:33Z</time>
  <course>0.0</course>
  <speed>0.0</speed>
  <fix>3d</fix>
</trkpt>
<trkpt lat="33.8103132" lon="-118.3938672">
  <ele>-0.13</ele>
  <time>2026-09-02T22:06:33Z</time>
  <course>186.21</course>
  <speed>0.0282842712474619</speed>
  <fix>3d</fix>
</trkpt>
<trkpt lat="33.810313" lon="-118.393867">
  <ele>-0.12</ele>
  <time>2026-09-02T22:06:33Z</time>
  <course>0.0</course>
  <speed>0.0</speed>
  <fix>3d</fix>
</trkpt>
<trkpt lat="33.8103132" lon="-118.3938672">
  <ele>-0.129</ele>
  <time>2026-09-02T22:06:33Z</time>
  <course>186.21</course>
  <speed>0.0282842712474619</speed>
  <fix>3d</fix>
</trkpt>
<trkpt lat="33.810313" lon="-118.393867">
  <ele>-0.12</ele>
  <time>2026-09-02T22:06:33Z</time>
  <course>0.0</course>
  <speed>0.0</speed>
  <fix>3d</fix>
</trkpt>
<trkpt lat="33.8103132" lon="-118.3938672">
  <ele>-0.129</ele>
  <time>2026-09-02T22:06:33Z</time>
  <course>186.21</course>
  <speed>0.0282842712474619</speed>
  <fix>3d</fix>
</trkpt>
<trkpt lat="33.810313" lon="-118.393867">
  <ele>-0.12</ele>
  <time>2026-09-02T22:06:33Z</time>
  <course>0.0</course>
  <speed>0.0</speed>
  <fix>3d</fix>
</trkpt>
<trkpt lat="33.8103132" lon="-118.3938672">
  <ele>-0.128</ele>
  <time>2026-09-02T22:06:33Z</time>
  <course>186.21</course>
  <speed>0.0282842712474619</speed>
  <fix>3d</fix>
</trkpt>
<trkpt lat="33.810313" lon="-118.393867">
  <ele>-0.12</ele>
  <time>2026-09-02T22:06:33Z</time>
  <course>0.0</course>
  <speed>0.0</speed>
  <fix>3d</fix>
</trkpt>
<trkpt lat="33.8103132" lon="-118.3938672">
  <ele>-0.126</ele>
  <time>2026-09-02T22:06:33Z</time>
  <course>186.21</course>
  <speed>0.022360679774997897</speed>
  <fix>3d</fix>
</trkpt>
<trkpt lat="33.810313" lon="-118.393867">
  <ele>-0.12</ele>
  <time>2026-09-02T22:06:33Z</time>
  <course>0.0</course>
  <speed>0.0</speed>
  <fix>3d</fix>
</trkpt>
<trkpt lat="33.8103132" lon="-118.3938672">
  <ele>-0.126</ele>
  <time>2026-09-02T22:06:33Z</time>
  <course>186.21</course>
  <speed>0.0282842712474619</speed>
  <fix>3d</fix>
</trkpt>
<trkpt lat="33.810313" lon="-118.393867">
  <ele>-0.12</ele>
  <time>2026-09-02T22:06:33Z</time>
  <course>0.0</course>
  <speed>0.0</speed>
  <fix>3d</fix>
</trkpt>
<trkpt lat="33.8103132" lon="-118.3938672">
  <ele>-0.124</ele>
  <time>2026-09-02T22:06:33Z</time>
  <course>186.2</course>
  <speed>0.022360679774997897</speed>
  <fix>3d</fix>
</trkpt>
<trkpt lat="33.810313" lon="-118.393867">
  <ele>-0.12</ele>
  <time>2026-09-02T22:06:33Z</time>
  <course>0.0</course>
  <speed>0.0</speed>
  <fix>3d</fix>
</trkpt>
<trkpt lat="33.8103132" lon="-118.3938672">
  <ele>-0.124</ele>
  <time>2026-09-02T22:06:33Z</time>
  <course>186.2</course>
  <speed>0.0282842712474619</speed>
  <fix>3d</fix>
</trkpt>
<trkpt lat="33.810313" lon="-118.393867">
  <ele>-0.12</ele>
  <time>2026-09-02T22:06:33Z</time>
  <course>0.0</course>
  <speed>0.0</speed>
  <fix>3d</fix>
</trkpt>
<trkpt lat="33.8103132" lon="-118.3938672">
  <ele>-0.124</ele>
  <time>2026-09-02T22:06:33Z</time>
  <course>186.2</course>
  <speed>0.022360679774997897</speed>
  <fix>3d</fix>
</trkpt>
<trkpt lat="33.810313" lon="-118.393867">
  <ele>-0.12</ele>
  <time>2026-09-02T22:06:33Z</time>
  <course>0.0</course>
  <speed>0.0</speed>
  <fix>3d</fix>
</trkpt>
<trkpt lat="33.8103132" lon="-118.3938672">
  <ele>-0.125</ele>
  <time>2026-09-02T22:06:33Z</time>
  <course>186.2</course>
  <speed>0.0282842712474619</speed>
  <fix>3d</fix>
</trkpt>
<trkpt lat="33.810313" lon="-118.393867">
  <ele>-0.12</ele>
  <time>2026-09-02T22:06:33Z</time>
  <course>0.0</course>
  <speed>0.0</speed>
  <fix>3d</fix>
</trkpt>
<trkpt lat="33.8103132" lon="-118.3938672">
  <ele>-0.126</ele>
  <time>2026-09-02T22:06:33Z</time>
  <course>186.2</course>
  <speed>0.022360679774997897</speed>
  <fix>3d</fix>
</trkpt>
<trkpt lat="33.810313" lon="-118.393867">
  <ele>-0.12</ele>
  <time>2026-09-02T22:06:33Z</time>
  <course>0.0</course>
  <speed>0.0</speed>
  <fix>3d</fix>
</trkpt>
<trkpt lat="33.8103132" lon="-118.3938672">
  <ele>-0.126</ele>
  <time>2026-09-02T22:06:33Z</time>
  <course>186.2</course>
  <speed>0.0282842712474619</speed>
  <fix>3d</fix>
</trkpt>
<trkpt lat="33.810313" lon="-118.393867">
  <ele>-0.12</ele>
  <time>2026-09-02T22:06:33Z</time>
  <course>0.0</course>
  <speed>0.0</speed>
  <fix>3d</fix>
</trkpt>
<trkpt lat="33.8103132" lon="-118.3938672">
  <ele>-0.126</ele>
  <time>2026-09-02T22:06:33Z</time>
  <course>186.2</course>
  <speed>0.022360679774997897</speed>
  <fix>3d</fix>
</trkpt>
<trkpt lat="33.810313" lon="-118.393867">
  <ele>-0.12</ele>
  <time>2026-09-02T22:06:33Z</time>
  <course>0.0</course>
  <speed>0.0</speed>
  <fix>3d</fix>
</trkpt>
<trkpt lat="33.8103132" lon="-118.3938672">
  <ele>-0.125</ele>
  <time>2026-09-02T22:06:33Z</time>
  <course>186.2</course>
  <speed>0.022360679774997897</speed>
  <fix>3d</fix>
</trkpt>
<trkpt lat="33.810313" lon="-118.393867">
  <ele>-0.12</ele>
  <time>2026-09-02T22:06:33Z</time>
  <course>0.0</course>
  <speed>0.0</speed>
  <fix>3d</fix>
</trkpt>
<trkpt lat="33.8103132" lon="-118.3938672">
  <ele>-0.124</ele>
  <time>2026-09-02T22:06:33Z</time>
  <course>186.2</course>
  <speed>0.022360679774997897</speed>
  <fix>3d</fix>
</trkpt>
<trkpt lat="33.810313" lon="-118.393867">
  <ele>-0.12</ele>
  <time>2026-09-02T22:06:33Z</time>
  <course>0.0</course>
  <speed>0.0</speed>
  <fix>3d</fix>
</trkpt>
<trkpt lat="33.8103132" lon="-118.3938672">
  <ele>-0.123</ele>
  <time>2026-09-02T22:06:33Z</time>
  <course>186.2</course>
  <speed>0.022360679774997897</speed>
  <fix>3d</fix>
</trkpt>
<trkpt lat="33.810313" lon="-118.393867">
  <ele>-0.12</ele>
  <time>2026-09-02T22:06:33Z</time>
  <course>0.0</course>
  <speed>0.0</speed>
  <fix>3d</fix>
</trkpt>
<trkpt lat="33.8103132" lon="-118.3938672">
  <ele>-0.123</ele>
  <time>2026-09-02T22:06:33Z</time>
  <course>186.2</course>
  <speed>0.022360679774997897</speed>
  <fix>3d</fix>
</trkpt>
<trkpt lat="33.810313" lon="-118.393867">
  <ele>-0.12</ele>
  <time>2026-09-02T22:06:33Z</time>
  <course>0.0</course>
  <speed>0.0</speed>
  <fix>3d</fix>
</trkpt>
<trkpt lat="33.8103132" lon="-118.3938672">
  <ele>-0.123</ele>
  <time>2026-09-02T22:06:33Z</time>
  <course>186.2</course>
  <speed>0.022360679774997897</speed>
  <fix>3d</fix>
</trkpt>
<trkpt lat="33.810313" lon="-118.393867">
  <ele>-0.12</ele>
  <time>2026-09-02T22:06:33Z</time>
  <course>0.0</course>
  <speed>0.0</speed>
  <fix>3d</fix>
</trkpt>
<trkpt lat="33.8103132" lon="-118.3938672">
  <ele>-0.123</ele>
  <time>2026-09-02T22:06:33Z</time>
  <course>186.2</course>
  <speed>0.022360679774997897</speed>
  <fix>3d</fix>
</trkpt>
<trkpt lat="33.810313" lon="-118.393867">
  <ele>-0.12</ele>
  <time>2026-09-02T22:06:33Z</time>
  <course>0.0</course>
  <speed>0.0</speed>
  <fix>3d</fix>
</trkpt>
<trkpt lat="33.8103132" lon="-118.3938672">
  <ele>-0.123</ele>
  <time>2026-09-02T22:06:33Z</time>
  <course>186.2</course>
  <speed>0.022360679774997897</speed>
  <fix>3d</fix>
</trkpt>
<trkpt lat="33.810313" lon="-118.393867">
  <ele>-0.12</ele>
  <time>2026-09-02T22:06:33Z</time>
  <course>0.0</course>
  <speed>0.0</speed>
  <fix>3d</fix>
</trkpt>
<trkpt lat="33.8103132" lon="-118.3938672">
  <ele>-0.123</ele>
  <time>2026-09-02T22:06:33Z</time>
  <course>186.2</course>
  <speed>0.022360679774997897</speed>
  <fix>3d</fix>
</trkpt>
<trkpt lat="33.810313" lon="-118.393867">
  <ele>-0.12</ele>
  <time>2026-09-02T22:06:33Z</time>
  <course>0.0</course>
  <speed>0.0</speed>
  <fix>3d</fix>
</trkpt>
<trkpt lat="33.8103132" lon="-118.3938672">
  <ele>-0.124</ele>
  <time>2026-09-02T22:06:33Z</time>
  <course>186.2</course>
  <speed>0.022360679774997897</speed>
  <fix>3d</fix>
</trkpt>
<trkpt lat="33.810313" lon="-118.393867">
  <ele>-0.12</ele>
  <time>2026-09-02T22:06:33Z</time>
  <course>0.0</course>
  <speed>0.0</speed>
  <fix>3d</fix>
</trkpt>
<trkpt lat="33.8103132" lon="-118.3938672">
  <ele>-0.124</ele>
  <time>2026-09-02T22:06:33Z</time>
  <course>186.2</course>
  <speed>0.022360679774997897</speed>
  <fix>3d</fix>
</trkpt>
<trkpt lat="33.810313" lon="-118.393867">
  <ele>-0.12</ele>
  <time>2026-09-02T22:06:33Z</time>
  <course>0.0</course>
  <speed>0.0</speed>
  <fix>3d</fix>
</trkpt>
<trkpt lat="33.8103132" lon="-118.3938672">
  <ele>-0.124</ele>
  <time>2026-09-02T22:06:33Z</time>
  <course>186.2</course>
  <speed>0.022360679774997897</speed>
  <fix>3d</fix>
</trkpt>
<trkpt lat="33.810313" lon="-118.393867">
  <ele>-0.12</ele>
  <time>2026-09-02T22:06:33Z</time>
  <course>0.0</course>
  <speed>0.0</speed>
  <fix>3d</fix>
</trkpt>
<trkpt lat="33.8103132" lon="-118.3938672">
  <ele>-0.126</ele>
  <time>2026-09-02T22:06:33Z</time>
  <course>186.2</course>
  <speed>0.022360679774997897</speed>
  <fix>3d</fix>
</trkpt>
<trkpt lat="33.810313" lon="-118.393867">
  <ele>-0.12</ele>
  <time>2026-09-02T22:06:33Z</time>
  <course>0.0</course>
  <speed>0.0</speed>
  <fix>3d</fix>
</trkpt>
<trkpt lat="33.8103132" lon="-118.3938672">
  <ele>-0.127</ele>
  <time>2026-09-02T22:06:33Z</time>
  <course>186.2</course>
  <speed>0.022360679774997897</speed>
  <fix>3d</fix>
</trkpt>
<trkpt lat="33.810313" lon="-118.393867">
  <ele>-0.12</ele>
  <time>2026-09-02T22:06:33Z</time>
  <course>0.0</course>
  <speed>0.0</speed>
  <fix>3d</fix>
</trkpt>
<trkpt lat="33.8103132" lon="-118.3938672">
  <ele>-0.128</ele>
  <time>2026-09-02T22:06:33Z</time>
  <course>186.2</course>
  <speed>0.022360679774997897</speed>
  <fix>3d</fix>
</trkpt>
<trkpt lat="33.810313" lon="-118.393867">
  <ele>-0.12</ele>
  <time>2026-09-02T22:06:33Z</time>
  <course>0.0</course>
  <speed>0.0</speed>
  <fix>3d</fix>
</trkpt>
<trkpt lat="33.8103132" lon="-118.3938672">
  <ele>-0.129</ele>
  <time>2026-09-02T22:06:33Z</time>
  <course>186.2</course>
  <speed>0.022360679774997897</speed>
  <fix>3d</fix>
</trkpt>
<trkpt lat="33.810313" lon="-118.393867">
  <ele>-0.12</ele>
  <time>2026-09-02T22:06:33Z</time>
  <course>0.0</course>
  <speed>0.0</speed>
  <fix>3d</fix>
</trkpt>
<trkpt lat="33.8103132" lon="-118.3938672">
  <ele>-0.128</ele>
  <time>2026-09-02T22:06:33Z</time>
  <course>186.2</course>
  <speed>0.022360679774997897</speed>
  <fix>3d</fix>
</trkpt>
<trkpt lat="33.810313" lon="-118.393867">
  <ele>-0.12</ele>
  <time>2026-09-02T22:06:33Z</time>
  <course>0.0</course>
  <speed>0.0</speed>
  <fix>3d</fix>
</trkpt>
<trkpt lat="33.8103132" lon="-118.3938672">
  <ele>-0.127</ele>
  <time>2026-09-02T22:06:33Z</time>
  <course>186.2</course>
  <speed>0.022360679774997897</speed>
  <fix>3d</fix>
</trkpt>
<trkpt lat="33.810313" lon="-118.393867">
  <ele>-0.12</ele>
  <time>2026-09-02T22:06:33Z</time>
  <course>0.0</course>
  <speed>0.0</speed>
  <fix>3d</fix>
</trkpt>
<trkpt lat="33.8103132" lon="-118.3938672">
  <ele>-0.125</ele>
  <time>2026-09-02T22:06:33Z</time>
  <course>186.2</course>
  <speed>0.022360679774997897</speed>
  <fix>3d</fix>
</trkpt>
<trkpt lat="33.810313" lon="-118.393867">
  <ele>-0.12</ele>
  <time>2026-09-02T22:06:33Z</time>
  <course>0.0</course>
  <speed>0.0</speed>
  <fix>3d</fix>
</trkpt>
<trkpt lat="33.8103132" lon="-118.3938672">
  <ele>-0.124</ele>
  <time>2026-09-02T22:06:33Z</time>
  <course>186.2</course>
  <speed>0.022360679774997897</speed>
  <fix>3d</fix>
</trkpt>
<trkpt lat="33.810313" lon="-118.393867">
  <ele>-0.12</ele>
  <time>2026-09-02T22:06:33Z</time>
  <course>0.0</course>
  <speed>0.0</speed>
  <fix>3d</fix>
</trkpt>
<trkpt lat="33.8103132" lon="-118.3938672">
  <ele>-0.122</ele>
  <time>2026-09-02T22:06:33Z</time>
  <course>186.2</course>
  <speed>0.022360679774997897</speed>
  <fix>3d</fix>
</trkpt>
<trkpt lat="33.810313" lon="-118.393867">
  <ele>-0.12</ele>
  <time>2026-09-02T22:06:33Z</time>
  <course>0.0</course>
  <speed>0.0</speed>
  <fix>3d</fix>
</trkpt>
<trkpt lat="33.8103132" lon="-118.3938672">
  <ele>-0.121</ele>
  <time>2026-09-02T22:06:33Z</time>
  <course>186.2</course>
  <speed>0.022360679774997897</speed>
  <fix>3d</fix>
</trkpt>
<trkpt lat="33.810313" lon="-118.393867">
  <ele>-0.12</ele>
  <time>2026-09-02T22:06:33Z</time>
  <course>0.0</course>
  <speed>0.0</speed>
  <fix>3d</fix>
</trkpt>
<trkpt lat="33.8103132" lon="-118.3938672">
  <ele>-0.12</ele>
  <time>2026-09-02T22:06:33Z</time>
  <course>186.2</course>
  <speed>0.022360679774997897</speed>
  <fix>3d</fix>
</trkpt>
<trkpt lat="33.810313" lon="-118.393867">
  <ele>-0.12</ele>
  <time>2026-09-02T22:06:33Z</time>
  <course>0.0</course>
  <speed>0.0</speed>
  <fix>3d</fix>
</trkpt>
<trkpt lat="33.8103132" lon="-118.3938672">
  <ele>-0.119</ele>
  <time>2026-09-02T22:06:33Z</time>
  <course>186.2</course>
  <speed>0.022360679774997897</speed>
  <fix>3d</fix>
</trkpt>
<trkpt lat="33.810313" lon="-118.393867">
  <ele>-0.12</ele>
  <time>2026-09-02T22:06:33Z</time>
  <course>0.0</course>
  <speed>0.0</speed>
  <fix>3d</fix>
</trkpt>
<trkpt lat="33.8103132" lon="-118.3938672">
  <ele>-0.12</ele>
  <time>2026-09-02T22:06:33Z</time>
  <course>186.2</course>
  <speed>0.022360679774997897</speed>
  <fix>3d</fix>
</trkpt>
<trkpt lat="33.810313" lon="-118.393867">
  <ele>-0.12</ele>
  <time>2026-09-02T22:06:33Z</time>
  <course>0.0</course>
  <speed>0.0</speed>
  <fix>3d</fix>
</trkpt>
<trkpt lat="33.8103132" lon="-118.3938672">
  <ele>-0.12</ele>
  <time>2026-09-02T22:06:33Z</time>
  <course>186.2</course>
  <speed>0.022360679774997897</speed>
  <fix>3d</fix>
</trkpt>
<trkpt lat="33.810313" lon="-118.393867">
  <ele>-0.12</ele>
  <time>2026-09-02T22:06:33Z</time>
  <course>0.0</course>
  <speed>0.0</speed>
  <fix>3d</fix>
</trkpt>
<trkpt lat="33.8103132" lon="-118.3938672">
  <ele>-0.121</ele>
  <time>2026-09-02T22:06:33Z</time>
  <course>186.2</course>
  <speed>0.022360679774997897</speed>
  <fix>3d</fix>
</trkpt>
<trkpt lat="33.810313" lon="-118.393867">
  <ele>-0.12</ele>
  <time>2026-09-02T22:06:33Z</time>
  <course>0.0</course>
  <speed>0.0</speed>
  <fix>3d</fix>
</trkpt>
<trkpt lat="33.8103132" lon="-118.3938672">
  <ele>-0.122</ele>
  <time>2026-09-02T22:06:33Z</time>
  <course>186.2</course>
  <speed>0.022360679774997897</speed>
  <fix>3d</fix>
</trkpt>
<trkpt lat="33.810313" lon="-118.393867">
  <ele>-0.12</ele>
  <time>2026-09-02T22:06:33Z</time>
  <course>0.0</course>
  <speed>0.0</speed>
  <fix>3d</fix>
</trkpt>
<trkpt lat="33.8103132" lon="-118.3938672">
  <ele>-0.122</ele>
  <time>2026-09-02T22:06:33Z</time>
  <course>186.2</course>
  <speed>0.022360679774997897</speed>
  <fix>3d</fix>
</trkpt>
<trkpt lat="33.810313" lon="-118.393867">
  <ele>-0.12</ele>
  <time>2026-09-02T22:06:33Z</time>
  <course>0.0</course>
  <speed>0.0</speed>
  <fix>3d</fix>
</trkpt>
<trkpt lat="33.8103132" lon="-118.3938672">
  <ele>-0.123</ele>
  <time>2026-09-02T22:06:33Z</time>
  <course>186.2</course>
  <speed>0.022360679774997897</speed>
  <fix>3d</fix>
</trkpt>
<trkpt lat="33.810313" lon="-118.393867">
  <ele>-0.12</ele>
  <time>2026-09-02T22:06:33Z</time>
  <course>0.0</course>
  <speed>0.0</speed>
  <fix>3d</fix>
</trkpt>
<trkpt lat="33.8103132" lon="-118.3938672">
  <ele>-0.123</ele>
  <time>2026-09-02T22:06:33Z</time>
  <course>186.2</course>
  <speed>0.022360679774997897</speed>
  <fix>3d</fix>
</trkpt>
<trkpt lat="33.810313" lon="-118.393867">
  <ele>-0.12</ele>
  <time>2026-09-02T22:06:33Z</time>
  <course>0.0</course>
  <speed>0.0</speed>
  <fix>3d</fix>
</trkpt>
<trkpt lat="33.8103132" lon="-118.3938672">
  <ele>-0.123</ele>
  <time>2026-09-02T22:06:33Z</time>
  <course>186.2</course>
  <speed>0.022360679774997897</speed>
  <fix>3d</fix>
</trkpt>
<trkpt lat="33.810313" lon="-118.393867">
  <ele>-0.12</ele>
  <time>2026-09-02T22:06:33Z</time>
  <course>0.0</course>
  <speed>0.0</speed>
  <fix>3d</fix>
</trkpt>
<trkpt lat="33.8103132" lon="-118.3938672">
  <ele>-0.124</ele>
  <time>2026-09-02T22:06:33Z</time>
  <course>186.2</course>
  <speed>0.022360679774997897</speed>
  <fix>3d</fix>
</trkpt>
<trkpt lat="33.810313" lon="-118.393867">
  <ele>-0.12</ele>
  <time>2026-09-02T22:06:33Z</time>
  <course>0.0</course>
  <speed>0.0</speed>
  <fix>3d</fix>
</trkpt>
<trkpt lat="33.8103132" lon="-118.3938672">
  <ele>-0.124</ele>
  <time>2026-09-02T22:06:33Z</time>
  <course>186.2</course>
  <speed>0.022360679774997897</speed>
  <fix>3d</fix>
</trkpt>
<trkpt lat="33.810313" lon="-118.393867">
  <ele>-0.12</ele>
  <time>2026-09-02T22:06:33Z</time>
  <course>0.0</course>
  <speed>0.0</speed>
  <fix>3d</fix>
</trkpt>
<trkpt lat="33.8103132" lon="-118.3938672">
  <ele>-0.124</ele>
  <time>2026-09-02T22:06:33Z</time>
  <course>186.2</course>
  <speed>0.022360679774997897</speed>
  <fix>3d</fix>
</trkpt>
<trkpt lat="33.810313" lon="-118.393867">
  <ele>-0.12</ele>
  <time>2026-09-02T22:06:33Z</time>
  <course>0.0</course>
  <speed>0.0</speed>
  <fix>3d</fix>
</trkpt>
<trkpt lat="33.8103132" lon="-118.3938672">
  <ele>-0.124</ele>
  <time>2026-09-02T22:06:33Z</time>
  <course>186.2</course>
  <speed>0.022360679774997897</speed>
  <fix>3d</fix>
</trkpt>
<trkpt lat="33.810313" lon="-118.393867">
  <ele>-0.12</ele>
  <time>2026-09-02T22:06:33Z</time>
  <course>0.0</course>
  <speed>0.0</speed>
  <fix>3d</fix>
</trkpt>
<trkpt lat="33.8103132" lon="-118.3938672">
  <ele>-0.125</ele>
  <time>2026-09-02T22:06:33Z</time>
  <course>186.2</course>
  <speed>0.022360679774997897</speed>
  <fix>3d</fix>
</trkpt>
<trkpt lat="33.810313" lon="-118.393867">
  <ele>-0.12</ele>
  <time>2026-09-02T22:06:33Z</time>
  <course>0.0</course>
  <speed>0.0</speed>
  <fix>3d</fix>
</trkpt>
<trkpt lat="33.8103132" lon="-118.3938672">
  <ele>-0.125</ele>
  <time>2026-09-02T22:06:33Z</time>
  <course>186.2</course>
  <speed>0.022360679774997897</speed>
  <fix>3d</fix>
</trkpt>
<trkpt lat="33.810313" lon="-118.393867">
  <ele>-0.12</ele>
  <time>2026-09-02T22:06:33Z</time>
  <course>0.0</course>
  <speed>0.0</speed>
  <fix>3d</fix>
</trkpt>
<trkpt lat="33.8103132" lon="-118.3938672">
  <ele>-0.125</ele>
  <time>2026-09-02T22:06:33Z</time>
  <course>186.2</course>
  <speed>0.022360679774997897</speed>
  <fix>3d</fix>
</trkpt>
<trkpt lat="33.810313" lon="-118.393867">
  <ele>-0.12</ele>
  <time>2026-09-02T22:06:33Z</time>
  <course>0.0</course>
  <speed>0.0</speed>
  <fix>3d</fix>
</trkpt>
<trkpt lat="33.8103132" lon="-118.3938672">
  <ele>-0.126</ele>
  <time>2026-09-02T22:06:33Z</time>
  <course>186.2</course>
  <speed>0.022360679774997897</speed>
  <fix>3d</fix>
</trkpt>
<trkpt lat="33.810313" lon="-118.393867">
  <ele>-0.12</ele>
  <time>2026-09-02T22:06:33Z</time>
  <course>0.0</course>
  <speed>0.0</speed>
  <fix>3d</fix>
</trkpt>
<trkpt lat="33.8103132" lon="-118.3938672">
  <ele>-0.127</ele>
  <time>2026-09-02T22:06:33Z</time>
  <course>186.2</course>
  <speed>0.022360679774997897</speed>
  <fix>3d</fix>
</trkpt>
<trkpt lat="33.810313" lon="-118.393867">
  <ele>-0.12</ele>
  <time>2026-09-02T22:06:33Z</time>
  <course>0.0</course>
  <speed>0.0</speed>
  <fix>3d</fix>
</trkpt>
<trkpt lat="33.8103132" lon="-118.3938672">
  <ele>-0.128</ele>
  <time>2026-09-02T22:06:33Z</time>
  <course>186.2</course>
  <speed>0.022360679774997897</speed>
  <fix>3d</fix>
</trkpt>
<trkpt lat="33.810313" lon="-118.393867">
  <ele>-0.12</ele>
  <time>2026-09-02T22:06:33Z</time>
  <course>0.0</course>
  <speed>0.0</speed>
  <fix>3d</fix>
</trkpt>
<trkpt lat="33.8103132" lon="-118.3938672">
  <ele>-0.129</ele>
  <time>2026-09-02T22:06:33Z</time>
  <course>186.2</course>
  <speed>0.022360679774997897</speed>
  <fix>3d</fix>
</trkpt>
<trkpt lat="33.810313" lon="-118.393867">
  <ele>-0.12</ele>
  <time>2026-09-02T22:06:33Z</time>
  <course>0.0</course>
  <speed>0.0</speed>
  <fix>3d</fix>
</trkpt>
<trkpt lat="33.8103132" lon="-118.3938672">
  <ele>-0.131</ele>
  <time>2026-09-02T22:06:33Z</time>
  <course>186.2</course>
  <speed>0.022360679774997897</speed>
  <fix>3d</fix>
</trkpt>
<trkpt lat="33.810313" lon="-118.393867">
  <ele>-0.12</ele>
  <time>2026-09-02T22:06:33Z</time>
  <course>0.0</course>
  <speed>0.0</speed>
  <fix>3d</fix>
</trkpt>
<trkpt lat="33.8103132" lon="-118.3938672">
  <ele>-0.133</ele>
  <time>2026-09-02T22:06:33Z</time>
  <course>186.2</course>
  <speed>0.022360679774997897</speed>
  <fix>3d</fix>
</trkpt>
<trkpt lat="33.810313" lon="-118.393867">
  <ele>-0.12</ele>
  <time>2026-09-02T22:06:33Z</time>
  <course>0.0</course>
  <speed>0.0</speed>
  <fix>3d</fix>
</trkpt>
<trkpt lat="33.8103132" lon="-118.3938672">
  <ele>-0.134</ele>
  <time>2026-09-02T22:06:33Z</time>
  <course>186.2</course>
  <speed>0.022360679774997897</speed>
  <fix>3d</fix>
</trkpt>
<trkpt lat="33.810313" lon="-118.393867">
  <ele>-0.12</ele>
  <time>2026-09-02T22:06:33Z</time>
  <course>0.0</course>
  <speed>0.0</speed>
  <fix>3d</fix>
</trkpt>
<trkpt lat="33.8103132" lon="-118.3938672">
  <ele>-0.134</ele>
  <time>2026-09-02T22:06:33Z</time>
  <course>186.2</course>
  <speed>0.022360679774997897</speed>
  <fix>3d</fix>
</trkpt>
<trkpt lat="33.810313" lon="-118.393867">
  <ele>-0.12</ele>
  <time>2026-09-02T22:06:33Z</time>
  <course>0.0</course>
  <speed>0.0</speed>
  <fix>3d</fix>
</trkpt>
<trkpt lat="33.8103132" lon="-118.3938672">
  <ele>-0.135</ele>
  <time>2026-09-02T22:06:33Z</time>
  <course>186.2</course>
  <speed>0.022360679774997897</speed>
  <fix>3d</fix>
</trkpt>
<trkpt lat="33.810313" lon="-118.393867">
  <ele>-0.12</ele>
  <time>2026-09-02T22:06:33Z</time>
  <course>0.0</course>
  <speed>0.0</speed>
  <fix>3d</fix>
</trkpt>
<trkpt lat="33.8103132" lon="-118.3938672">
  <ele>-0.136</ele>
  <time>2026-09-02T22:06:33Z</time>
  <course>186.2</course>
  <speed>0.022360679774997897</speed>
  <fix>3d</fix>
</trkpt>
<trkpt lat="33.810313" lon="-118.393867">
  <ele>-0.12</ele>
  <time>2026-09-02T22:06:33Z</time>
  <course>0.0</course>
  <speed>0.0</speed>
  <fix>3d</fix>
</trkpt>
<trkpt lat="33.8103132" lon="-118.3938672">
  <ele>-0.135</ele>
  <time>2026-09-02T22:06:33Z</time>
  <course>186.2</course>
  <speed>0.022360679774997897</speed>
  <fix>3d</fix>
</trkpt>
<trkpt lat="33.810313" lon="-118.393867">
  <ele>-0.12</ele>
  <time>2026-09-02T22:06:33Z</time>
  <course>0.0</course>
  <speed>0.0</speed>
  <fix>3d</fix>
</trkpt>
<trkpt lat="33.8103132" lon="-118.3938672">
  <ele>-0.133</ele>
  <time>2026-09-02T22:06:33Z</time>
  <course>186.2</course>
  <speed>0.022360679774997897</speed>
  <fix>3d</fix>
</trkpt>
<trkpt lat="33.810313" lon="-118.393867">
  <ele>-0.12</ele>
  <time>2026-09-02T22:06:33Z</time>
  <course>0.0</course>
  <speed>0.0</speed>
  <fix>3d</fix>
</trkpt>
<trkpt lat="33.8103132" lon="-118.3938672">
  <ele>-0.132</ele>
  <time>2026-09-02T22:06:33Z</time>
  <course>186.2</course>
  <speed>0.022360679774997897</speed>
  <fix>3d</fix>
</trkpt>
<trkpt lat="33.810313" lon="-118.393867">
  <ele>-0.12</ele>
  <time>2026-09-02T22:06:33Z</time>
  <course>0.0</course>
  <speed>0.0</speed>
  <fix>3d</fix>
</trkpt>
<trkpt lat="33.8103132" lon="-118.3938672">
  <ele>-0.132</ele>
  <time>2026-09-02T22:06:33Z</time>
  <course>186.2</course>
  <speed>0.022360679774997897</speed>
  <fix>3d</fix>
</trkpt>
<trkpt lat="33.810313" lon="-118.393867">
  <ele>-0.12</ele>
  <time>2026-09-02T22:06:33Z</time>
  <course>0.0</course>
  <speed>0.0</speed>
  <fix>3d</fix>
</trkpt>
<trkpt lat="33.8103132" lon="-118.3938672">
  <ele>-0.132</ele>
  <time>2026-09-02T22:06:33Z</time>
  <course>186.2</course>
  <speed>0.022360679774997897</speed>
  <fix>3d</fix>
</trkpt>
<trkpt lat="33.810313" lon="-118.393867">
  <ele>-0.12</ele>
  <time>2026-09-02T22:06:33Z</time>
  <course>0.0</course>
  <speed>0.0</speed>
  <fix>3d</fix>
</trkpt>
<trkpt lat="33.8103132" lon="-118.3938672">
  <ele>-0.132</ele>
  <time>2026-09-02T22:06:33Z</time>
  <course>186.2</course>
  <speed>0.022360679774997897</speed>
  <fix>3d</fix>
</trkpt>
<trkpt lat="33.810313" lon="-118.393867">
  <ele>-0.12</ele>
  <time>2026-09-02T22:06:33Z</time>
  <course>0.0</course>
  <speed>0.0</speed>
  <fix>3d</fix>
</trkpt>
<trkpt lat="33.8103132" lon="-118.3938672">
  <ele>-0.131</ele>
  <time>2026-09-02T22:06:33Z</time>
  <course>186.2</course>
  <speed>0.022360679774997897</speed>
  <fix>3d</fix>
</trkpt>
<trkpt lat="33.810313" lon="-118.393867">
  <ele>-0.12</ele>
  <time>2026-09-02T22:06:33Z</time>
  <course>0.0</course>
  <speed>0.0</speed>
  <fix>3d</fix>
</trkpt>
<trkpt lat="33.8103132" lon="-118.3938672">
  <ele>-0.131</ele>
  <time>2026-09-02T22:06:33Z</time>
  <course>186.2</course>
  <speed>0.022360679774997897</speed>
  <fix>3d</fix>
</trkpt>
<trkpt lat="33.810313" lon="-118.393867">
  <ele>-0.12</ele>
  <time>2026-09-02T22:06:33Z</time>
  <course>0.0</course>
  <speed>0.0</speed>
  <fix>3d</fix>
</trkpt>
<trkpt lat="33.8103132" lon="-118.3938672">
  <ele>-0.131</ele>
  <time>2026-09-02T22:06:33Z</time>
  <course>186.2</course>
  <speed>0.022360679774997897</speed>
  <fix>3d</fix>
</trkpt>
<trkpt lat="33.810313" lon="-118.393867">
  <ele>-0.12</ele>
  <time>2026-09-02T22:06:33Z</time>
  <course>0.0</course>
  <speed>0.0</speed>
  <fix>3d</fix>
</trkpt>
<trkpt lat="33.8103132" lon="-118.3938672">
  <ele>-0.131</ele>
  <time>2026-09-02T22:06:33Z</time>
  <course>186.2</course>
  <speed>0.022360679774997897</speed>
  <fix>3d</fix>
</trkpt>
<trkpt lat="33.810313" lon="-118.393867">
  <ele>-0.12</ele>
  <time>2026-09-02T22:06:33Z</time>
  <course>0.0</course>
  <speed>0.0</speed>
  <fix>3d</fix>
</trkpt>
<trkpt lat="33.8103132" lon="-118.3938672">
  <ele>-0.132</ele>
  <time>2026-09-02T22:06:33Z</time>
  <course>186.2</course>
  <speed>0.022360679774997897</speed>
  <fix>3d</fix>
</trkpt>
<trkpt lat="33.810313" lon="-118.393867">
  <ele>-0.12</ele>
  <time>2026-09-02T22:06:33Z</time>
  <course>0.0</course>
  <speed>0.0</speed>
  <fix>3d</fix>
</trkpt>
<trkpt lat="33.8103132" lon="-118.3938672">
  <ele>-0.132</ele>
  <time>2026-09-02T22:06:33Z</time>
  <course>186.2</course>
  <speed>0.022360679774997897</speed>
  <fix>3d</fix>
</trkpt>
<trkpt lat="33.810313" lon="-118.393867">
  <ele>-0.12</ele>
  <time>2026-09-02T22:06:33Z</time>
  <course>0.0</course>
  <speed>0.0</speed>
  <fix>3d</fix>
</trkpt>
<trkpt lat="33.8103132" lon="-118.3938672">
  <ele>-0.13</ele>
  <time>2026-09-02T22:06:33Z</time>
  <course>186.2</course>
  <speed>0.022360679774997897</speed>
  <fix>3d</fix>
</trkpt>
<trkpt lat="33.810313" lon="-118.393867">
  <ele>-0.12</ele>
  <time>2026-09-02T22:06:33Z</time>
  <course>0.0</course>
  <speed>0.0</speed>
  <fix>3d</fix>
</trkpt>
<trkpt lat="33.8103132" lon="-118.3938672">
  <ele>-0.129</ele>
  <time>2026-09-02T22:06:33Z</time>
  <course>186.2</course>
  <speed>0.022360679774997897</speed>
  <fix>3d</fix>
</trkpt>
<trkpt lat="33.810313" lon="-118.393867">
  <ele>-0.12</ele>
  <time>2026-09-02T22:06:33Z</time>
  <course>0.0</course>
  <speed>0.0</speed>
  <fix>3d</fix>
</trkpt>
<trkpt lat="33.8103132" lon="-118.3938672">
  <ele>-0.128</ele>
  <time>2026-09-02T22:06:33Z</time>
  <course>186.2</course>
  <speed>0.022360679774997897</speed>
  <fix>3d</fix>
</trkpt>
<trkpt lat="33.810313" lon="-118.393867">
  <ele>-0.12</ele>
  <time>2026-09-02T22:06:33Z</time>
  <course>0.0</course>
  <speed>0.0</speed>
  <fix>3d</fix>
</trkpt>
<trkpt lat="33.8103132" lon="-118.3938672">
  <ele>-0.128</ele>
  <time>2026-09-02T22:06:33Z</time>
  <course>186.2</course>
  <speed>0.022360679774997897</speed>
  <fix>3d</fix>
</trkpt>
<trkpt lat="33.810313" lon="-118.393867">
  <ele>-0.12</ele>
  <time>2026-09-02T22:06:33Z</time>
  <course>0.0</course>
  <speed>0.0</speed>
  <fix>3d</fix>
</trkpt>
<trkpt lat="33.8103132" lon="-118.3938672">
  <ele>-0.128</ele>
  <time>2026-09-02T22:06:33Z</time>
  <course>186.2</course>
  <speed>0.022360679774997897</speed>
  <fix>3d</fix>
</trkpt>
<trkpt lat="33.810313" lon="-118.393867">
  <ele>-0.12</ele>
  <time>2026-09-02T22:06:33Z</time>
  <course>0.0</course>
  <speed>0.0</speed>
  <fix>3d</fix>
</trkpt>
<trkpt lat="33.8103132" lon="-118.3938672">
  <ele>-0.128</ele>
  <time>2026-09-02T22:06:33Z</time>
  <course>186.2</course>
  <speed>0.022360679774997897</speed>
  <fix>3d</fix>
</trkpt>
<trkpt lat="33.810313" lon="-118.393867">
  <ele>-0.12</ele>
  <time>2026-09-02T22:06:33Z</time>
  <course>0.0</course>
  <speed>0.0</speed>
  <fix>3d</fix>
</trkpt>
<trkpt lat="33.8103132" lon="-118.3938672">
  <ele>-0.128</ele>
  <time>2026-09-02T22:06:33Z</time>
  <course>186.2</course>
  <speed>0.022360679774997897</speed>
  <fix>3d</fix>
</trkpt>
<trkpt lat="33.810313" lon="-118.393867">
  <ele>-0.12</ele>
  <time>2026-09-02T22:06:33Z</time>
  <course>0.0</course>
  <speed>0.0</speed>
  <fix>3d</fix>
</trkpt>
<trkpt lat="33.8103132" lon="-118.3938672">
  <ele>-0.128</ele>
  <time>2026-09-02T22:06:33Z</time>
  <course>186.2</course>
  <speed>0.022360679774997897</speed>
  <fix>3d</fix>
</trkpt>
<trkpt lat="33.810313" lon="-118.393867">
  <ele>-0.12</ele>
  <time>2026-09-02T22:06:33Z</time>
  <course>0.0</course>
  <speed>0.0</speed>
  <fix>3d</fix>
</trkpt>
<trkpt lat="33.8103132" lon="-118.3938672">
  <ele>-0.129</ele>
  <time>2026-09-02T22:06:33Z</time>
  <course>186.2</course>
  <speed>0.022360679774997897</speed>
  <fix>3d</fix>
</trkpt>
<trkpt lat="33.810313" lon="-118.393867">
  <ele>-0.12</ele>
  <time>2026-09-02T22:06:33Z</time>
  <course>0.0</course>
  <speed>0.0</speed>
  <fix>3d</fix>
</trkpt>
<trkpt lat="33.8103132" lon="-118.3938672">
  <ele>-0.13</ele>
  <time>2026-09-02T22:06:33Z</time>
  <course>186.2</course>
  <speed>0.022360679774997897</speed>
  <fix>3d</fix>
</trkpt>
<trkpt lat="33.810313" lon="-118.393867">
  <ele>-0.12</ele>
  <time>2026-09-02T22:06:33Z</time>
  <course>0.0</course>
  <speed>0.0</speed>
  <fix>3d</fix>
</trkpt>
<trkpt lat="33.8103132" lon="-118.3938672">
  <ele>-0.13</ele>
  <time>2026-09-02T22:06:33Z</time>
  <course>186.2</course>
  <speed>0.022360679774997897</speed>
  <fix>3d</fix>
</trkpt>
<trkpt lat="33.810313" lon="-118.393867">
  <ele>-0.12</ele>
  <time>2026-09-02T22:06:33Z</time>
  <course>0.0</course>
  <speed>0.0</speed>
  <fix>3d</fix>
</trkpt>
<trkpt lat="33.8103132" lon="-118.3938672">
  <ele>-0.131</ele>
  <time>2026-09-02T22:06:33Z</time>
  <course>186.2</course>
  <speed>0.022360679774997897</speed>
  <fix>3d</fix>
</trkpt>
<trkpt lat="33.810313" lon="-118.393867">
  <ele>-0.12</ele>
  <time>2026-09-02T22:06:33Z</time>
  <course>0.0</course>
  <speed>0.0</speed>
  <fix>3d</fix>
</trkpt>
<trkpt lat="33.8103132" lon="-118.3938672">
  <ele>-0.132</ele>
  <time>2026-09-02T22:06:33Z</time>
  <course>186.2</course>
  <speed>0.022360679774997897</speed>
  <fix>3d</fix>
</trkpt>
<trkpt lat="33.810313" lon="-118.393867">
  <ele>-0.12</ele>
  <time>2026-09-02T22:06:33Z</time>
  <course>0.0</course>
  <speed>0.0</speed>
  <fix>3d</fix>
</trkpt>
<trkpt lat="33.8103132" lon="-118.3938672">
  <ele>-0.133</ele>
  <time>2026-09-02T22:06:33Z</time>
  <course>186.2</course>
  <speed>0.022360679774997897</speed>
  <fix>3d</fix>
</trkpt>
<trkpt lat="33.810313" lon="-118.393867">
  <ele>-0.12</ele>
  <time>2026-09-02T22:06:33Z</time>
  <course>0.0</course>
  <speed>0.0</speed>
  <fix>3d</fix>
</trkpt>
<trkpt lat="33.8103132" lon="-118.3938672">
  <ele>-0.134</ele>
  <time>2026-09-02T22:06:33Z</time>
  <course>186.2</course>
  <speed>0.022360679774997897</speed>
  <fix>3d</fix>
</trkpt>
<trkpt lat="33.810313" lon="-118.393867">
  <ele>-0.12</ele>
  <time>2026-09-02T22:06:33Z</time>
  <course>0.0</course>
  <speed>0.0</speed>
  <fix>3d</fix>
</trkpt>
<trkpt lat="33.8103132" lon="-118.3938672">
  <ele>-0.135</ele>
  <time>2026-09-02T22:06:33Z</time>
  <course>186.2</course>
  <speed>0.022360679774997897</speed>
  <fix>3d</fix>
</trkpt>
<trkpt lat="33.810313" lon="-118.393867">
  <ele>-0.12</ele>
  <time>2026-09-02T22:06:33Z</time>
  <course>0.0</course>
  <speed>0.0</speed>
  <fix>3d</fix>
</trkpt>
<trkpt lat="33.8103132" lon="-118.3938672">
  <ele>-0.136</ele>
  <time>2026-09-02T22:06:33Z</time>
  <course>186.2</course>
  <speed>0.022360679774997897</speed>
  <fix>3d</fix>
</trkpt>
<trkpt lat="33.810313" lon="-118.393867">
  <ele>-0.12</ele>
  <time>2026-09-02T22:06:33Z</time>
  <course>0.0</course>
  <speed>0.0</speed>
  <fix>3d</fix>
</trkpt>
<trkpt lat="33.8103132" lon="-118.3938672">
  <ele>-0.136</ele>
  <time>2026-09-02T22:06:33Z</time>
  <course>186.2</course>
  <speed>0.022360679774997897</speed>
  <fix>3d</fix>
</trkpt>
<trkpt lat="33.810313" lon="-118.393867">
  <ele>-0.12</ele>
  <time>2026-09-02T22:06:33Z</time>
  <course>0.0</course>
  <speed>0.0</speed>
  <fix>3d</fix>
</trkpt>
<trkpt lat="33.8103132" lon="-118.3938672">
  <ele>-0.134</ele>
  <time>2026-09-02T22:06:33Z</time>
  <course>186.2</course>
  <speed>0.022360679774997897</speed>
  <fix>3d</fix>
</trkpt>
<trkpt lat="33.810313" lon="-118.393867">
  <ele>-0.12</ele>
  <time>2026-09-02T22:06:33Z</time>
  <course>0.0</course>
  <speed>0.0</speed>
  <fix>3d</fix>
</trkpt>
<trkpt lat="33.8103132" lon="-118.3938672">
  <ele>-0.133</ele>
  <time>2026-09-02T22:06:33Z</time>
  <course>186.2</course>
  <speed>0.022360679774997897</speed>
  <fix>3d</fix>
</trkpt>
<trkpt lat="33.810313" lon="-118.393867">
  <ele>-0.12</ele>
  <time>2026-09-02T22:06:33Z</time>
  <course>0.0</course>
  <speed>0.0</speed>
  <fix>3d</fix>
</trkpt>
<trkpt lat="33.8103132" lon="-118.3938672">
  <ele>-0.131</ele>
  <time>2026-09-02T22:06:33Z</time>
  <course>186.2</course>
  <speed>0.022360679774997897</speed>
  <fix>3d</fix>
</trkpt>
<trkpt lat="33.810313" lon="-118.393867">
  <ele>-0.12</ele>
  <time>2026-09-02T22:06:33Z</time>
  <course>0.0</course>
  <speed>0.0</speed>
  <fix>3d</fix>
</trkpt>
<trkpt lat="33.8103132" lon="-118.3938672">
  <ele>-0.13</ele>
  <time>2026-09-02T22:06:33Z</time>
  <course>186.2</course>
  <speed>0.022360679774997897</speed>
  <fix>3d</fix>
</trkpt>
<trkpt lat="33.810313" lon="-118.393867">
  <ele>-0.12</ele>
  <time>2026-09-02T22:06:33Z</time>
  <course>0.0</course>
  <speed>0.0</speed>
  <fix>3d</fix>
</trkpt>
<trkpt lat="33.8103132" lon="-118.3938672">
  <ele>-0.13</ele>
  <time>2026-09-02T22:06:33Z</time>
  <course>186.2</course>
  <speed>0.022360679774997897</speed>
  <fix>3d</fix>
</trkpt>
<trkpt lat="33.810313" lon="-118.393867">
  <ele>-0.12</ele>
  <time>2026-09-02T22:06:33Z</time>
  <course>0.0</course>
  <speed>0.0</speed>
  <fix>3d</fix>
</trkpt>
<trkpt lat="33.8103132" lon="-118.3938672">
  <ele>-0.131</ele>
  <time>2026-09-02T22:06:33Z</time>
  <course>186.2</course>
  <speed>0.022360679774997897</speed>
  <fix>3d</fix>
</trkpt>
<trkpt lat="33.810313" lon="-118.393867">
  <ele>-0.12</ele>
  <time>2026-09-02T22:06:33Z</time>
  <course>0.0</course>
  <speed>0.0</speed>
  <fix>3d</fix>
</trkpt>
<trkpt lat="33.8103132" lon="-118.3938672">
  <ele>-0.13</ele>
  <time>2026-09-02T22:06:33Z</time>
  <course>186.2</course>
  <speed>0.022360679774997897</speed>
  <fix>3d</fix>
</trkpt>
<trkpt lat="33.810313" lon="-118.393867">
  <ele>-0.12</ele>
  <time>2026-09-02T22:06:33Z</time>
  <course>0.0</course>
  <speed>0.0</speed>
  <fix>3d</fix>
</trkpt>
<trkpt lat="33.8103132" lon="-118.3938672">
  <ele>-0.13</ele>
  <time>2026-09-02T22:06:33Z</time>
  <course>186.2</course>
  <speed>0.022360679774997897</speed>
  <fix>3d</fix>
</trkpt>
<trkpt lat="33.810313" lon="-118.393867">
  <ele>-0.12</ele>
  <time>2026-09-02T22:06:33Z</time>
  <course>0.0</course>
  <speed>0.0</speed>
  <fix>3d</fix>
</trkpt>
<trkpt lat="33.8103132" lon="-118.3938672">
  <ele>-0.131</ele>
  <time>2026-09-02T22:06:33Z</time>
  <course>186.2</course>
  <speed>0.022360679774997897</speed>
  <fix>3d</fix>
</trkpt>
<trkpt lat="33.810313" lon="-118.393867">
  <ele>-0.12</ele>
  <time>2026-09-02T22:06:33Z</time>
  <course>0.0</course>
  <speed>0.0</speed>
  <fix>3d</fix>
</trkpt>
<trkpt lat="33.8103132" lon="-118.3938672">
  <ele>-0.131</ele>
  <time>2026-09-02T22:06:33Z</time>
  <course>186.2</course>
  <speed>0.022360679774997897</speed>
  <fix>3d</fix>
</trkpt>
<trkpt lat="33.810313" lon="-118.393867">
  <ele>-0.12</ele>
  <time>2026-09-02T22:06:33Z</time>
  <course>0.0</course>
  <speed>0.0</speed>
  <fix>3d</fix>
</trkpt>
<trkpt lat="33.8103132" lon="-118.3938672">
  <ele>-0.13</ele>
  <time>2026-09-02T22:06:33Z</time>
  <course>186.2</course>
  <speed>0.022360679774997897</speed>
  <fix>3d</fix>
</trkpt>
<trkpt lat="33.810313" lon="-118.393867">
  <ele>-0.12</ele>
  <time>2026-09-02T22:06:33Z</time>
  <course>0.0</course>
  <speed>0.0</speed>
  <fix>3d</fix>
</trkpt>
<trkpt lat="33.8103132" lon="-118.3938672">
  <ele>-0.128</ele>
  <time>2026-09-02T22:06:33Z</time>
  <course>186.2</course>
  <speed>0.022360679774997897</speed>
  <fix>3d</fix>
</trkpt>
<trkpt lat="33.810313" lon="-118.393867">
  <ele>-0.12</ele>
  <time>2026-09-02T22:06:33Z</time>
  <course>0.0</course>
  <speed>0.0</speed>
  <fix>3d</fix>
</trkpt>
<trkpt lat="33.8103132" lon="-118.3938672">
  <ele>-0.127</ele>
  <time>2026-09-02T22:06:33Z</time>
  <course>186.2</course>
  <speed>0.022360679774997897</speed>
  <fix>3d</fix>
</trkpt>
<trkpt lat="33.810313" lon="-118.393867">
  <ele>-0.12</ele>
  <time>2026-09-02T22:06:33Z</time>
  <course>0.0</course>
  <speed>0.0</speed>
  <fix>3d</fix>
</trkpt>
<trkpt lat="33.8103132" lon="-118.3938672">
  <ele>-0.126</ele>
  <time>2026-09-02T22:06:33Z</time>
  <course>186.2</course>
  <speed>0.022360679774997897</speed>
  <fix>3d</fix>
</trkpt>
<trkpt lat="33.810313" lon="-118.393867">
  <ele>-0.12</ele>
  <time>2026-09-02T22:06:33Z</time>
  <course>0.0</course>
  <speed>0.0</speed>
  <fix>3d</fix>
</trkpt>
<trkpt lat="33.8103132" lon="-118.3938672">
  <ele>-0.125</ele>
  <time>2026-09-02T22:06:33Z</time>
  <course>186.2</course>
  <speed>0.022360679774997897</speed>
  <fix>3d</fix>
</trkpt>
<trkpt lat="33.810313" lon="-118.393867">
  <ele>-0.12</ele>
  <time>2026-09-02T22:06:33Z</time>
  <course>0.0</course>
  <speed>0.0</speed>
  <fix>3d</fix>
</trkpt>
<trkpt lat="33.8103132" lon="-118.3938672">
  <ele>-0.126</ele>
  <time>2026-09-02T22:06:33Z</time>
  <course>186.2</course>
  <speed>0.022360679774997897</speed>
  <fix>3d</fix>
</trkpt>
<trkpt lat="33.810313" lon="-118.393867">
  <ele>-0.12</ele>
  <time>2026-09-02T22:06:33Z</time>
  <course>0.0</course>
  <speed>0.0</speed>
  <fix>3d</fix>
</trkpt>
<trkpt lat="33.8103132" lon="-118.3938672">
  <ele>-0.126</ele>
  <time>2026-09-02T22:06:33Z</time>
  <course>186.2</course>
  <speed>0.022360679774997897</speed>
  <fix>3d</fix>
</trkpt>
<trkpt lat="33.810313" lon="-118.393867">
  <ele>-0.12</ele>
  <time>2026-09-02T22:06:33Z</time>
  <course>0.0</course>
  <speed>0.0</speed>
  <fix>3d</fix>
</trkpt>
<trkpt lat="33.8103132" lon="-118.3938672">
  <ele>-0.126</ele>
  <time>2026-09-02T22:06:33Z</time>
  <course>186.2</course>
  <speed>0.022360679774997897</speed>
  <fix>3d</fix>
</trkpt>
<trkpt lat="33.810313" lon="-118.393867">
  <ele>-0.12</ele>
  <time>2026-09-02T22:06:33Z</time>
  <course>0.0</course>
  <speed>0.0</speed>
  <fix>3d</fix>
</trkpt>
<trkpt lat="33.8103132" lon="-118.3938672">
  <ele>-0.126</ele>
  <time>2026-09-02T22:06:33Z</time>
  <course>186.2</course>
  <speed>0.022360679774997897</speed>
  <fix>3d</fix>
</trkpt>
<trkpt lat="33.810313" lon="-118.393867">
  <ele>-0.12</ele>
  <time>2026-09-02T22:06:33Z</time>
  <course>0.0</course>
  <speed>0.0</speed>
  <fix>3d</fix>
</trkpt>
<trkpt lat="33.8103132" lon="-118.3938672">
  <ele>-0.126</ele>
  <time>2026-09-02T22:06:33Z</time>
  <course>186.2</course>
  <speed>0.022360679774997897</speed>
  <fix>3d</fix>
</trkpt>
<trkpt lat="33.810313" lon="-118.393867">
  <ele>-0.12</ele>
  <time>2026-09-02T22:06:33Z</time>
  <course>0.0</course>
  <speed>0.0</speed>
  <fix>3d</fix>
</trkpt>
<trkpt lat="33.8103132" lon="-118.3938672">
  <ele>-0.126</ele>
  <time>2026-09-02T22:06:33Z</time>
  <course>186.2</course>
  <speed>0.022360679774997897</speed>
  <fix>3d</fix>
</trkpt>
<trkpt lat="33.810313" lon="-118.393867">
  <ele>-0.12</ele>
  <time>2026-09-02T22:06:33Z</time>
  <course>0.0</course>
  <speed>0.0</speed>
  <fix>3d</fix>
</trkpt>
<trkpt lat="33.8103132" lon="-118.3938672">
  <ele>-0.125</ele>
  <time>2026-09-02T22:06:33Z</time>
  <course>186.2</course>
  <speed>0.022360679774997897</speed>
  <fix>3d</fix>
</trkpt>
<trkpt lat="33.810313" lon="-118.393867">
  <ele>-0.12</ele>
  <time>2026-09-02T22:06:33Z</time>
  <course>0.0</course>
  <speed>0.0</speed>
  <fix>3d</fix>
</trkpt>
<trkpt lat="33.8103132" lon="-118.3938672">
  <ele>-0.124</ele>
  <time>2026-09-02T22:06:33Z</time>
  <course>186.2</course>
  <speed>0.022360679774997897</speed>
  <fix>3d</fix>
</trkpt>
<trkpt lat="33.810313" lon="-118.393867">
  <ele>-0.12</ele>
  <time>2026-09-02T22:06:33Z</time>
  <course>0.0</course>
  <speed>0.0</speed>
  <fix>3d</fix>
</trkpt>
<trkpt lat="33.8103132" lon="-118.3938672">
  <ele>-0.124</ele>
  <time>2026-09-02T22:06:33Z</time>
  <course>186.2</course>
  <speed>0.022360679774997897</speed>
  <fix>3d</fix>
</trkpt>
<trkpt lat="33.810313" lon="-118.393867">
  <ele>-0.12</ele>
  <time>2026-09-02T22:06:33Z</time>
  <course>0.0</course>
  <speed>0.0</speed>
  <fix>3d</fix>
</trkpt>
<trkpt lat="33.8103132" lon="-118.3938672">
  <ele>-0.123</ele>
  <time>2026-09-02T22:06:33Z</time>
  <course>186.2</course>
  <speed>0.022360679774997897</speed>
  <fix>3d</fix>
</trkpt>
<trkpt lat="33.810313" lon="-118.393867">
  <ele>-0.12</ele>
  <time>2026-09-02T22:06:33Z</time>
  <course>0.0</course>
  <speed>0.0</speed>
  <fix>3d</fix>
</trkpt>
<trkpt lat="33.8103132" lon="-118.3938672">
  <ele>-0.123</ele>
  <time>2026-09-02T22:06:33Z</time>
  <course>186.2</course>
  <speed>0.022360679774997897</speed>
  <fix>3d</fix>
</trkpt>
<trkpt lat="33.810313" lon="-118.393867">
  <ele>-0.12</ele>
  <time>2026-09-02T22:06:33Z</time>
  <course>0.0</course>
  <speed>0.0</speed>
  <fix>3d</fix>
</trkpt>
<trkpt lat="33.8103132" lon="-118.3938672">
  <ele>-0.123</ele>
  <time>2026-09-02T22:06:33Z</time>
  <course>186.2</course>
  <speed>0.022360679774997897</speed>
  <fix>3d</fix>
</trkpt>
<trkpt lat="33.810313" lon="-118.393867">
  <ele>-0.12</ele>
  <time>2026-09-02T22:06:33Z</time>
  <course>0.0</course>
  <speed>0.0</speed>
  <fix>3d</fix>
</trkpt>
<trkpt lat="33.8103132" lon="-118.3938672">
  <ele>-0.123</ele>
  <time>2026-09-02T22:06:33Z</time>
  <course>186.2</course>
  <speed>0.022360679774997897</speed>
  <fix>3d</fix>
</trkpt>
<trkpt lat="33.810313" lon="-118.393867">
  <ele>-0.12</ele>
  <time>2026-09-02T22:06:33Z</time>
  <course>0.0</course>
  <speed>0.0</speed>
  <fix>3d</fix>
</trkpt>
<trkpt lat="33.8103132" lon="-118.3938672">
  <ele>-0.124</ele>
  <time>2026-09-02T22:06:33Z</time>
  <course>186.2</course>
  <speed>0.022360679774997897</speed>
  <fix>3d</fix>
</trkpt>
<trkpt lat="33.810313" lon="-118.393867">
  <ele>-0.12</ele>
  <time>2026-09-02T22:06:33Z</time>
  <course>0.0</course>
  <speed>0.0</speed>
  <fix>3d</fix>
</trkpt>
<trkpt lat="33.8103132" lon="-118.3938672">
  <ele>-0.123</ele>
  <time>2026-09-02T22:06:33Z</time>
  <course>186.2</course>
  <speed>0.022360679774997897</speed>
  <fix>3d</fix>
</trkpt>
<trkpt lat="33.810313" lon="-118.393867">
  <ele>-0.12</ele>
  <time>2026-09-02T22:06:33Z</time>
  <course>0.0</course>
  <speed>0.0</speed>
  <fix>3d</fix>
</trkpt>
<trkpt lat="33.8103132" lon="-118.3938672">
  <ele>-0.123</ele>
  <time>2026-09-02T22:06:33Z</time>
  <course>186.2</course>
  <speed>0.022360679774997897</speed>
  <fix>3d</fix>
</trkpt>
<trkpt lat="33.810313" lon="-118.393867">
  <ele>-0.12</ele>
  <time>2026-09-02T22:06:33Z</time>
  <course>0.0</course>
  <speed>0.0</speed>
  <fix>3d</fix>
</trkpt>
<trkpt lat="33.8103132" lon="-118.3938672">
  <ele>-0.122</ele>
  <time>2026-09-02T22:06:33Z</time>
  <course>186.2</course>
  <speed>0.022360679774997897</speed>
  <fix>3d</fix>
</trkpt>
<trkpt lat="33.810313" lon="-118.393867">
  <ele>-0.12</ele>
  <time>2026-09-02T22:06:33Z</time>
  <course>0.0</course>
  <speed>0.0</speed>
  <fix>3d</fix>
</trkpt>
<trkpt lat="33.8103132" lon="-118.3938672">
  <ele>-0.122</ele>
  <time>2026-09-02T22:06:33Z</time>
  <course>186.2</course>
  <speed>0.022360679774997897</speed>
  <fix>3d</fix>
</trkpt>
<trkpt lat="33.810313" lon="-118.393867">
  <ele>-0.12</ele>
  <time>2026-09-02T22:06:33Z</time>
  <course>0.0</course>
  <speed>0.0</speed>
  <fix>3d</fix>
</trkpt>
<trkpt lat="33.8103132" lon="-118.3938672">
  <ele>-0.122</ele>
  <time>2026-09-02T22:06:33Z</time>
  <course>186.2</course>
  <speed>0.022360679774997897</speed>
  <fix>3d</fix>
</trkpt>
<trkpt lat="33.810313" lon="-118.393867">
  <ele>-0.12</ele>
  <time>2026-09-02T22:06:33Z</time>
  <course>0.0</course>
  <speed>0.0</speed>
  <fix>3d</fix>
</trkpt>
<trkpt lat="33.8103132" lon="-118.3938672">
  <ele>-0.123</ele>
  <time>2026-09-02T22:06:33Z</time>
  <course>186.2</course>
  <speed>0.022360679774997897</speed>
  <fix>3d</fix>
</trkpt>
<trkpt lat="33.810313" lon="-118.393867">
  <ele>-0.12</ele>
  <time>2026-09-02T22:06:33Z</time>
  <course>0.0</course>
  <speed>0.0</speed>
  <fix>3d</fix>
</trkpt>
<trkpt lat="33.8103132" lon="-118.3938672">
  <ele>-0.124</ele>
  <time>2026-09-02T22:06:33Z</time>
  <course>186.2</course>
  <speed>0.022360679774997897</speed>
  <fix>3d</fix>
</trkpt>
<trkpt lat="33.810313" lon="-118.393867">
  <ele>-0.12</ele>
  <time>2026-09-02T22:06:33Z</time>
  <course>0.0</course>
  <speed>0.0</speed>
  <fix>3d</fix>
</trkpt>
<trkpt lat="33.8103132" lon="-118.3938672">
  <ele>-0.126</ele>
  <time>2026-09-02T22:06:33Z</time>
  <course>186.2</course>
  <speed>0.022360679774997897</speed>
  <fix>3d</fix>
</trkpt>
<trkpt lat="33.810313" lon="-118.393867">
  <ele>-0.12</ele>
  <time>2026-09-02T22:06:33Z</time>
  <course>0.0</course>
  <speed>0.0</speed>
  <fix>3d</fix>
</trkpt>
<trkpt lat="33.8103132" lon="-118.3938672">
  <ele>-0.129</ele>
  <time>2026-09-02T22:06:33Z</time>
  <course>186.2</course>
  <speed>0.022360679774997897</speed>
  <fix>3d</fix>
</trkpt>
<trkpt lat="33.810313" lon="-118.393867">
  <ele>-0.12</ele>
  <time>2026-09-02T22:06:33Z</time>
  <course>0.0</course>
  <speed>0.0</speed>
  <fix>3d</fix>
</trkpt>
<trkpt lat="33.8103132" lon="-118.3938672">
  <ele>-0.13</ele>
  <time>2026-09-02T22:06:33Z</time>
  <course>186.2</course>
  <speed>0.022360679774997897</speed>
  <fix>3d</fix>
</trkpt>
<trkpt lat="33.810313" lon="-118.393867">
  <ele>-0.12</ele>
  <time>2026-09-02T22:06:33Z</time>
  <course>0.0</course>
  <speed>0.0</speed>
  <fix>3d</fix>
</trkpt>
<trkpt lat="33.8103132" lon="-118.3938672">
  <ele>-0.131</ele>
  <time>2026-09-02T22:06:33Z</time>
  <course>186.2</course>
  <speed>0.022360679774997897</speed>
  <fix>3d</fix>
</trkpt>
<trkpt lat="33.810313" lon="-118.393867">
  <ele>-0.12</ele>
  <time>2026-09-02T22:06:33Z</time>
  <course>0.0</course>
  <speed>0.0</speed>
  <fix>3d</fix>
</trkpt>
<trkpt lat="33.8103132" lon="-118.3938672">
  <ele>-0.131</ele>
  <time>2026-09-02T22:06:33Z</time>
  <course>186.2</course>
  <speed>0.022360679774997897</speed>
  <fix>3d</fix>
</trkpt>
<trkpt lat="33.810313" lon="-118.393867">
  <ele>-0.12</ele>
  <time>2026-09-02T22:06:33Z</time>
  <course>0.0</course>
  <speed>0.0</speed>
  <fix>3d</fix>
</trkpt>
<trkpt lat="33.8103132" lon="-118.3938672">
  <ele>-0.131</ele>
  <time>2026-09-02T22:06:33Z</time>
  <course>186.2</course>
  <speed>0.022360679774997897</speed>
  <fix>3d</fix>
</trkpt>
<trkpt lat="33.810313" lon="-118.393867">
  <ele>-0.12</ele>
  <time>2026-09-02T22:06:33Z</time>
  <course>0.0</course>
  <speed>0.0</speed>
  <fix>3d</fix>
</trkpt>
<trkpt lat="33.8103132" lon="-118.3938672">
  <ele>-0.131</ele>
  <time>2026-09-02T22:06:33Z</time>
  <course>186.2</course>
  <speed>0.022360679774997897</speed>
  <fix>3d</fix>
</trkpt>
<trkpt lat="33.810313" lon="-118.393867">
  <ele>-0.12</ele>
  <time>2026-09-02T22:06:33Z</time>
  <course>0.0</course>
  <speed>0.0</speed>
  <fix>3d</fix>
</trkpt>
<trkpt lat="33.8103132" lon="-118.3938672">
  <ele>-0.132</ele>
  <time>2026-09-02T22:06:33Z</time>
  <course>186.2</course>
  <speed>0.022360679774997897</speed>
  <fix>3d</fix>
</trkpt>
<trkpt lat="33.810313" lon="-118.393867">
  <ele>-0.12</ele>
  <time>2026-09-02T22:06:33Z</time>
  <course>0.0</course>
  <speed>0.0</speed>
  <fix>3d</fix>
</trkpt>
<trkpt lat="33.8103132" lon="-118.3938672">
  <ele>-0.132</ele>
  <time>2026-09-02T22:06:33Z</time>
  <course>186.2</course>
  <speed>0.022360679774997897</speed>
  <fix>3d</fix>
</trkpt>
<trkpt lat="33.810313" lon="-118.393867">
  <ele>-0.12</ele>
  <time>2026-09-02T22:06:33Z</time>
  <course>0.0</course>
  <speed>0.0</speed>
  <fix>3d</fix>
</trkpt>
<trkpt lat="33.8103132" lon="-118.3938672">
  <ele>-0.133</ele>
  <time>2026-09-02T22:06:33Z</time>
  <course>186.2</course>
  <speed>0.022360679774997897</speed>
  <fix>3d</fix>
</trkpt>
<trkpt lat="33.810313" lon="-118.393867">
  <ele>-0.12</ele>
  <time>2026-09-02T22:06:33Z</time>
  <course>0.0</course>
  <speed>0.0</speed>
  <fix>3d</fix>
</trkpt>
<trkpt lat="33.8103132" lon="-118.3938672">
  <ele>-0.134</ele>
  <time>2026-09-02T22:06:33Z</time>
  <course>186.2</course>
  <speed>0.022360679774997897</speed>
  <fix>3d</fix>
</trkpt>
<trkpt lat="33.810313" lon="-118.393867">
  <ele>-0.12</ele>
  <time>2026-09-02T22:06:33Z</time>
  <course>0.0</course>
  <speed>0.0</speed>
  <fix>3d</fix>
</trkpt>
<trkpt lat="33.8103132" lon="-118.3938672">
  <ele>-0.133</ele>
  <time>2026-09-02T22:06:33Z</time>
  <course>186.2</course>
  <speed>0.022360679774997897</speed>
  <fix>3d</fix>
</trkpt>
<trkpt lat="33.810313" lon="-118.393867">
  <ele>-0.12</ele>
  <time>2026-09-02T22:06:33Z</time>
  <course>0.0</course>
  <speed>0.0</speed>
  <fix>3d</fix>
</trkpt>
<trkpt lat="33.8103132" lon="-118.3938672">
  <ele>-0.132</ele>
  <time>2026-09-02T22:06:33Z</time>
  <course>186.2</course>
  <speed>0.022360679774997897</speed>
  <fix>3d</fix>
</trkpt>
<trkpt lat="33.810313" lon="-118.393867">
  <ele>-0.12</ele>
  <time>2026-09-02T22:06:33Z</time>
  <course>0.0</course>
  <speed>0.0</speed>
  <fix>3d</fix>
</trkpt>
<trkpt lat="33.8103132" lon="-118.3938672">
  <ele>-0.13</ele>
  <time>2026-09-02T22:06:33Z</time>
  <course>186.2</course>
  <speed>0.022360679774997897</speed>
  <fix>3d</fix>
</trkpt>
<trkpt lat="33.810313" lon="-118.393867">
  <ele>-0.12</ele>
  <time>2026-09-02T22:06:33Z</time>
  <course>0.0</course>
  <speed>0.0</speed>
  <fix>3d</fix>
</trkpt>
<trkpt lat="33.8103132" lon="-118.3938672">
  <ele>-0.128</ele>
  <time>2026-09-02T22:06:33Z</time>
  <course>186.2</course>
  <speed>0.022360679774997897</speed>
  <fix>3d</fix>
</trkpt>
<trkpt lat="33.810313" lon="-118.393867">
  <ele>-0.12</ele>
  <time>2026-09-02T22:06:33Z</time>
  <course>0.0</course>
  <speed>0.0</speed>
  <fix>3d</fix>
</trkpt>
<trkpt lat="33.8103132" lon="-118.3938672">
  <ele>-0.127</ele>
  <time>2026-09-02T22:06:33Z</time>
  <course>186.2</course>
  <speed>0.022360679774997897</speed>
  <fix>3d</fix>
</trkpt>
<trkpt lat="33.810313" lon="-118.393867">
  <ele>-0.12</ele>
  <time>2026-09-02T22:06:33Z</time>
  <course>0.0</course>
  <speed>0.0</speed>
  <fix>3d</fix>
</trkpt>
<trkpt lat="33.8103132" lon="-118.3938672">
  <ele>-0.126</ele>
  <time>2026-09-02T22:06:33Z</time>
  <course>186.2</course>
  <speed>0.022360679774997897</speed>
  <fix>3d</fix>
</trkpt>
<trkpt lat="33.810313" lon="-118.393867">
  <ele>-0.12</ele>
  <time>2026-09-02T22:06:33Z</time>
  <course>0.0</course>
  <speed>0.0</speed>
  <fix>3d</fix>
</trkpt>
<trkpt lat="33.8103132" lon="-118.3938672">
  <ele>-0.126</ele>
  <time>2026-09-02T22:06:33Z</time>
  <course>186.2</course>
  <speed>0.022360679774997897</speed>
  <fix>3d</fix>
</trkpt>
<trkpt lat="33.810313" lon="-118.393867">
  <ele>-0.12</ele>
  <time>2026-09-02T22:06:33Z</time>
  <course>0.0</course>
  <speed>0.0</speed>
  <fix>3d</fix>
</trkpt>
<trkpt lat="33.8103132" lon="-118.3938672">
  <ele>-0.125</ele>
  <time>2026-09-02T22:06:33Z</time>
  <course>186.2</course>
  <speed>0.022360679774997897</speed>
  <fix>3d</fix>
</trkpt>
<trkpt lat="33.810313" lon="-118.393867">
  <ele>-0.12</ele>
  <time>2026-09-02T22:06:33Z</time>
  <course>0.0</course>
  <speed>0.0</speed>
  <fix>3d</fix>
</trkpt>
<trkpt lat="33.8103132" lon="-118.3938672">
  <ele>-0.125</ele>
  <time>2026-09-02T22:06:34Z</time>
  <course>186.2</course>
  <speed>0.022360679774997897</speed>
  <fix>3d</fix>
</trkpt>
<trkpt lat="33.810313" lon="-118.393867">
  <ele>-0.12</ele>
  <time>2026-09-02T22:06:34Z</time>
  <course>0.0</course>
  <speed>0.0</speed>
  <fix>3d</fix>
</trkpt>
<trkpt lat="33.8103132" lon="-118.3938672">
  <ele>-0.125</ele>
  <time>2026-09-02T22:06:34Z</time>
  <course>186.2</course>
  <speed>0.022360679774997897</speed>
  <fix>3d</fix>
</trkpt>
<trkpt lat="33.810313" lon="-118.393867">
  <ele>-0.12</ele>
  <time>2026-09-02T22:06:34Z</time>
  <course>0.0</course>
  <speed>0.0</speed>
  <fix>3d</fix>
</trkpt>
<trkpt lat="33.8103132" lon="-118.3938672">
  <ele>-0.124</ele>
  <time>2026-09-02T22:06:34Z</time>
  <course>186.2</course>
  <speed>0.022360679774997897</speed>
  <fix>3d</fix>
</trkpt>
<trkpt lat="33.810313" lon="-118.393867">
  <ele>-0.12</ele>
  <time>2026-09-02T22:06:34Z</time>
  <course>0.0</course>
  <speed>0.0</speed>
  <fix>3d</fix>
</trkpt>
<trkpt lat="33.8103132" lon="-118.3938672">
  <ele>-0.123</ele>
  <time>2026-09-02T22:06:34Z</time>
  <course>186.2</course>
  <speed>0.022360679774997897</speed>
  <fix>3d</fix>
</trkpt>
<trkpt lat="33.810313" lon="-118.393867">
  <ele>-0.12</ele>
  <time>2026-09-02T22:06:34Z</time>
  <course>0.0</course>
  <speed>0.0</speed>
  <fix>3d</fix>
</trkpt>
<trkpt lat="33.8103132" lon="-118.3938672">
  <ele>-0.124</ele>
  <time>2026-09-02T22:06:34Z</time>
  <course>186.2</course>
  <speed>0.022360679774997897</speed>
  <fix>3d</fix>
</trkpt>
<trkpt lat="33.810313" lon="-118.393867">
  <ele>-0.12</ele>
  <time>2026-09-02T22:06:34Z</time>
  <course>0.0</course>
  <speed>0.0</speed>
  <fix>3d</fix>
</trkpt>
<trkpt lat="33.8103132" lon="-118.3938672">
  <ele>-0.126</ele>
  <time>2026-09-02T22:06:34Z</time>
  <course>186.2</course>
  <speed>0.022360679774997897</speed>
  <fix>3d</fix>
</trkpt>
<trkpt lat="33.810313" lon="-118.393867">
  <ele>-0.12</ele>
  <time>2026-09-02T22:06:34Z</time>
  <course>0.0</course>
  <speed>0.0</speed>
  <fix>3d</fix>
</trkpt>
<trkpt lat="33.8103132" lon="-118.3938672">
  <ele>-0.128</ele>
  <time>2026-09-02T22:06:34Z</time>
  <course>186.2</course>
  <speed>0.022360679774997897</speed>
  <fix>3d</fix>
</trkpt>
<trkpt lat="33.810313" lon="-118.393867">
  <ele>-0.12</ele>
  <time>2026-09-02T22:06:34Z</time>
  <course>0.0</course>
  <speed>0.0</speed>
  <fix>3d</fix>
</trkpt>
<trkpt lat="33.8103132" lon="-118.3938672">
  <ele>-0.13</ele>
  <time>2026-09-02T22:06:34Z</time>
  <course>186.2</course>
  <speed>0.022360679774997897</speed>
  <fix>3d</fix>
</trkpt>
<trkpt lat="33.810313" lon="-118.393867">
  <ele>-0.12</ele>
  <time>2026-09-02T22:06:34Z</time>
  <course>0.0</course>
  <speed>0.0</speed>
  <fix>3d</fix>
</trkpt>
<trkpt lat="33.8103132" lon="-118.3938672">
  <ele>-0.132</ele>
  <time>2026-09-02T22:06:34Z</time>
  <course>186.2</course>
  <speed>0.022360679774997897</speed>
  <fix>3d</fix>
</trkpt>
<trkpt lat="33.810313" lon="-118.393867">
  <ele>-0.12</ele>
  <time>2026-09-02T22:06:34Z</time>
  <course>0.0</course>
  <speed>0.0</speed>
  <fix>3d</fix>
</trkpt>
<trkpt lat="33.8103132" lon="-118.3938672">
  <ele>-0.133</ele>
  <time>2026-09-02T22:06:34Z</time>
  <course>186.2</course>
  <speed>0.022360679774997897</speed>
  <fix>3d</fix>
</trkpt>
<trkpt lat="33.810313" lon="-118.393867">
  <ele>-0.12</ele>
  <time>2026-09-02T22:06:34Z</time>
  <course>0.0</course>
  <speed>0.0</speed>
  <fix>3d</fix>
</trkpt>
<trkpt lat="33.8103132" lon="-118.3938672">
  <ele>-0.135</ele>
  <time>2026-09-02T22:06:34Z</time>
  <course>186.2</course>
  <speed>0.022360679774997897</speed>
  <fix>3d</fix>
</trkpt>
<trkpt lat="33.810313" lon="-118.393867">
  <ele>-0.12</ele>
  <time>2026-09-02T22:06:34Z</time>
  <course>0.0</course>
  <speed>0.0</speed>
  <fix>3d</fix>
</trkpt>
<trkpt lat="33.8103132" lon="-118.3938672">
  <ele>-0.135</ele>
  <time>2026-09-02T22:06:34Z</time>
  <course>186.2</course>
  <speed>0.022360679774997897</speed>
  <fix>3d</fix>
</trkpt>
<trkpt lat="33.810313" lon="-118.393867">
  <ele>-0.12</ele>
  <time>2026-09-02T22:06:34Z</time>
  <course>0.0</course>
  <speed>0.0</speed>
  <fix>3d</fix>
</trkpt>
<trkpt lat="33.8103132" lon="-118.3938672">
  <ele>-0.134</ele>
  <time>2026-09-02T22:06:34Z</time>
  <course>186.2</course>
  <speed>0.022360679774997897</speed>
  <fix>3d</fix>
</trkpt>
<trkpt lat="33.810313" lon="-118.393867">
  <ele>-0.12</ele>
  <time>2026-09-02T22:06:34Z</time>
  <course>0.0</course>
  <speed>0.0</speed>
  <fix>3d</fix>
</trkpt>
<trkpt lat="33.8103132" lon="-118.3938672">
  <ele>-0.166</ele>
  <time>2026-09-02T22:06:34Z</time>
  <course>186.2</course>
  <speed>0.01414213562373095</speed>
  <fix>3d</fix>
</trkpt>
<trkpt lat="33.810313" lon="-118.393867">
  <ele>-0.12</ele>
  <time>2026-09-02T22:06:34Z</time>
  <course>0.0</course>
  <speed>0.0</speed>
  <fix>3d</fix>
</trkpt>
<trkpt lat="33.8103132" lon="-118.3938672">
  <ele>-0.26</ele>
  <time>2026-09-02T22:06:34Z</time>
  <course>186.2</course>
  <speed>0.01414213562373095</speed>
  <fix>3d</fix>
</trkpt>
<trkpt lat="33.810313" lon="-118.393867">
  <ele>-0.14</ele>
  <time>2026-09-02T22:06:34Z</time>
  <course>0.0</course>
  <speed>0.0</speed>
  <fix>3d</fix>
</trkpt>
<trkpt lat="33.8103132" lon="-118.3938672">
  <ele>-0.376</ele>
  <time>2026-09-02T22:06:34Z</time>
  <course>186.2</course>
  <speed>0.01414213562373095</speed>
  <fix>3d</fix>
</trkpt>
<trkpt lat="33.810313" lon="-118.393867">
  <ele>-0.14</ele>
  <time>2026-09-02T22:06:34Z</time>
  <course>0.0</course>
  <speed>0.0</speed>
  <fix>3d</fix>
</trkpt>
<trkpt lat="33.8103132" lon="-118.3938672">
  <ele>-0.501</ele>
  <time>2026-09-02T22:06:34Z</time>
  <course>186.2</course>
  <speed>0.01414213562373095</speed>
  <fix>3d</fix>
</trkpt>
<trkpt lat="33.810313" lon="-118.393867">
  <ele>-0.28</ele>
  <time>2026-09-02T22:06:34Z</time>
  <course>0.0</course>
  <speed>0.0</speed>
  <fix>3d</fix>
</trkpt>
<trkpt lat="33.8103132" lon="-118.3938672">
  <ele>-0.631</ele>
  <time>2026-09-02T22:06:34Z</time>
  <course>186.2</course>
  <speed>0.01414213562373095</speed>
  <fix>3d</fix>
</trkpt>
<trkpt lat="33.810313" lon="-118.393867">
  <ele>-0.28</ele>
  <time>2026-09-02T22:06:34Z</time>
  <course>0.0</course>
  <speed>0.0</speed>
  <fix>3d</fix>
</trkpt>
<trkpt lat="33.8103132" lon="-118.3938672">
  <ele>-0.763</ele>
  <time>2026-09-02T22:06:34Z</time>
  <course>186.2</course>
  <speed>0.01414213562373095</speed>
  <fix>3d</fix>
</trkpt>
<trkpt lat="33.810313" lon="-118.393867">
  <ele>-0.51</ele>
  <time>2026-09-02T22:06:34Z</time>
  <course>0.0</course>
  <speed>0.0</speed>
  <fix>3d</fix>
</trkpt>
<trkpt lat="33.8103132" lon="-118.3938672">
  <ele>-0.866</ele>
  <time>2026-09-02T22:06:34Z</time>
  <course>186.2</course>
  <speed>0.01414213562373095</speed>
  <fix>3d</fix>
</trkpt>
<trkpt lat="33.810313" lon="-118.393867">
  <ele>-0.51</ele>
  <time>2026-09-02T22:06:34Z</time>
  <course>0.0</course>
  <speed>0.0</speed>
  <fix>3d</fix>
</trkpt>
<trkpt lat="33.8103132" lon="-118.3938672">
  <ele>-0.933</ele>
  <time>2026-09-02T22:06:34Z</time>
  <course>186.2</course>
  <speed>0.01414213562373095</speed>
  <fix>3d</fix>
</trkpt>
<trkpt lat="33.810313" lon="-118.393867">
  <ele>-0.73</ele>
  <time>2026-09-02T22:06:34Z</time>
  <course>0.0</course>
  <speed>0.0</speed>
  <fix>3d</fix>
</trkpt>
<trkpt lat="33.8103132" lon="-118.3938672">
  <ele>-0.983</ele>
  <time>2026-09-02T22:06:34Z</time>
  <course>186.2</course>
  <speed>0.01414213562373095</speed>
  <fix>3d</fix>
</trkpt>
<trkpt lat="33.810313" lon="-118.393867">
  <ele>-0.73</ele>
  <time>2026-09-02T22:06:34Z</time>
  <course>0.0</course>
  <speed>0.0</speed>
  <fix>3d</fix>
</trkpt>
<trkpt lat="33.8103132" lon="-118.3938672">
  <ele>-1.021</ele>
  <time>2026-09-02T22:06:34Z</time>
  <course>186.2</course>
  <speed>0.01</speed>
  <fix>3d</fix>
</trkpt>
<trkpt lat="33.810313" lon="-118.393867">
  <ele>-0.87</ele>
  <time>2026-09-02T22:06:34Z</time>
  <course>0.0</course>
  <speed>0.0</speed>
  <fix>3d</fix>
</trkpt>
<trkpt lat="33.8103132" lon="-118.3938672">
  <ele>-1.051</ele>
  <time>2026-09-02T22:06:34Z</time>
  <course>186.2</course>
  <speed>0.01</speed>
  <fix>3d</fix>
</trkpt>
<trkpt lat="33.810313" lon="-118.393867">
  <ele>-0.87</ele>
  <time>2026-09-02T22:06:34Z</time>
  <course>0.0</course>
  <speed>0.0</speed>
  <fix>3d</fix>
</trkpt>
<trkpt lat="33.8103132" lon="-118.3938672">
  <ele>-1.076</ele>
  <time>2026-09-02T22:06:34Z</time>
  <course>186.2</course>
  <speed>0.01</speed>
  <fix>3d</fix>
</trkpt>
<trkpt lat="33.810313" lon="-118.393867">
  <ele>-0.95</ele>
  <time>2026-09-02T22:06:34Z</time>
  <course>0.0</course>
  <speed>0.0</speed>
  <fix>3d</fix>
</trkpt>
<trkpt lat="33.8103132" lon="-118.3938672">
  <ele>-1.095</ele>
  <time>2026-09-02T22:06:34Z</time>
  <course>186.2</course>
  <speed>0.0</speed>
  <fix>3d</fix>
</trkpt>
<trkpt lat="33.810313" lon="-118.393867">
  <ele>-0.95</ele>
  <time>2026-09-02T22:06:34Z</time>
  <course>0.0</course>
  <speed>0.0</speed>
  <fix>3d</fix>
</trkpt>
<trkpt lat="33.8103131" lon="-118.3938671">
  <ele>-1.111</ele>
  <time>2026-09-02T22:06:34Z</time>
  <course>186.2</course>
  <speed>0.0</speed>
  <fix>3d</fix>
</trkpt>
<trkpt lat="33.810313" lon="-118.393867">
  <ele>-1.0</ele>
  <time>2026-09-02T22:06:34Z</time>
  <course>0.0</course>
  <speed>0.0</speed>
  <fix>3d</fix>
</trkpt>
<trkpt lat="33.8103131" lon="-118.3938671">
  <ele>-1.123</ele>
  <time>2026-09-02T22:06:35Z</time>
  <course>186.2</course>
  <speed>0.0</speed>
  <fix>3d</fix>
</trkpt>
<trkpt lat="33.810313" lon="-118.393867">
  <ele>-1.0</ele>
  <time>2026-09-02T22:06:35Z</time>
  <course>0.0</course>
  <speed>0.0</speed>
  <fix>3d</fix>
</trkpt>
<trkpt lat="33.8103131" lon="-118.3938671">
  <ele>-1.134</ele>
  <time>2026-09-02T22:06:35Z</time>
  <course>186.2</course>
  <speed>0.0</speed>
  <fix>3d</fix>
</trkpt>
<trkpt lat="33.810313" lon="-118.393867">
  <ele>-1.03</ele>
  <time>2026-09-02T22:06:35Z</time>
  <course>0.0</course>
  <speed>0.0</speed>
  <fix>3d</fix>
</trkpt>
<trkpt lat="33.8103131" lon="-118.3938671">
  <ele>-1.143</ele>
  <time>2026-09-02T22:06:35Z</time>
  <course>186.2</course>
  <speed>0.0</speed>
  <fix>3d</fix>
</trkpt>
<trkpt lat="33.810313" lon="-118.393867">
  <ele>-1.03</ele>
  <time>2026-09-02T22:06:35Z</time>
  <course>0.0</course>
  <speed>0.0</speed>
  <fix>3d</fix>
</trkpt>
<trkpt lat="33.8103131" lon="-118.3938671">
  <ele>-1.151</ele>
  <time>2026-09-02T22:06:35Z</time>
  <course>186.2</course>
  <speed>0.0</speed>
  <fix>3d</fix>
</trkpt>
<trkpt lat="33.810313" lon="-118.393867">
  <ele>-1.06</ele>
  <time>2026-09-02T22:06:35Z</time>
  <course>0.0</course>
  <speed>0.0</speed>
  <fix>3d</fix>
</trkpt>
<trkpt lat="33.8103131" lon="-118.3938671">
  <ele>-1.156</ele>
  <time>2026-09-02T22:06:35Z</time>
  <course>186.2</course>
  <speed>0.0</speed>
  <fix>3d</fix>
</trkpt>
<trkpt lat="33.810313" lon="-118.393867">
  <ele>-1.06</ele>
  <time>2026-09-02T22:06:35Z</time>
  <course>0.0</course>
  <speed>0.0</speed>
  <fix>3d</fix>
</trkpt>
<trkpt lat="33.8103131" lon="-118.3938671">
  <ele>-1.16</ele>
  <time>2026-09-02T22:06:35Z</time>
  <course>186.2</course>
  <speed>0.0</speed>
  <fix>3d</fix>
</trkpt>
<trkpt lat="33.810313" lon="-118.393867">
  <ele>-1.07</ele>
  <time>2026-09-02T22:06:35Z</time>
  <course>0.0</course>
  <speed>0.0</speed>
  <fix>3d</fix>
</trkpt>
<trkpt lat="33.8103131" lon="-118.3938671">
  <ele>-1.163</ele>
  <time>2026-09-02T22:06:35Z</time>
  <course>186.2</course>
  <speed>0.0</speed>
  <fix>3d</fix>
</trkpt>
<trkpt lat="33.810313" lon="-118.393867">
  <ele>-1.07</ele>
  <time>2026-09-02T22:06:35Z</time>
  <course>0.0</course>
  <speed>0.0</speed>
  <fix>3d</fix>
</trkpt>
<trkpt lat="33.8103131" lon="-118.3938671">
  <ele>-1.165</ele>
  <time>2026-09-02T22:06:35Z</time>
  <course>186.2</course>
  <speed>0.0</speed>
  <fix>3d</fix>
</trkpt>
<trkpt lat="33.810313" lon="-118.393867">
  <ele>-1.09</ele>
  <time>2026-09-02T22:06:35Z</time>
  <course>0.0</course>
  <speed>0.0</speed>
  <fix>3d</fix>
</trkpt>
<trkpt lat="33.8103131" lon="-118.3938671">
  <ele>-1.167</ele>
  <time>2026-09-02T22:06:35Z</time>
  <course>186.2</course>
  <speed>0.0</speed>
  <fix>3d</fix>
</trkpt>
<trkpt lat="33.810313" lon="-118.393867">
  <ele>-1.09</ele>
  <time>2026-09-02T22:06:35Z</time>
  <course>0.0</course>
  <speed>0.0</speed>
  <fix>3d</fix>
</trkpt>
<trkpt lat="33.8103131" lon="-118.3938671">
  <ele>-1.168</ele>
  <time>2026-09-02T22:06:35Z</time>
  <course>186.2</course>
  <speed>0.0</speed>
  <fix>3d</fix>
</trkpt>
<trkpt lat="33.810313" lon="-118.393867">
  <ele>-1.1</ele>
  <time>2026-09-02T22:06:35Z</time>
  <course>0.0</course>
  <speed>0.0</speed>
  <fix>3d</fix>
</trkpt>
<trkpt lat="33.8103131" lon="-118.3938671">
  <ele>-1.169</ele>
  <time>2026-09-02T22:06:35Z</time>
  <course>186.2</course>
  <speed>0.01</speed>
  <fix>3d</fix>
</trkpt>
<trkpt lat="33.810313" lon="-118.393867">
  <ele>-1.1</ele>
  <time>2026-09-02T22:06:35Z</time>
  <course>0.0</course>
  <speed>0.0</speed>
  <fix>3d</fix>
</trkpt>
<trkpt lat="33.8103131" lon="-118.3938671">
  <ele>-1.169</ele>
  <time>2026-09-02T22:06:35Z</time>
  <course>186.2</course>
  <speed>0.01</speed>
  <fix>3d</fix>
</trkpt>
<trkpt lat="33.810313" lon="-118.393867">
  <ele>-1.11</ele>
  <time>2026-09-02T22:06:35Z</time>
  <course>0.0</course>
  <speed>0.0</speed>
  <fix>3d</fix>
</trkpt>
<trkpt lat="33.8103131" lon="-118.3938671">
  <ele>-1.169</ele>
  <time>2026-09-02T22:06:35Z</time>
  <course>186.2</course>
  <speed>0.01</speed>
  <fix>3d</fix>
</trkpt>
<trkpt lat="33.810313" lon="-118.393867">
  <ele>-1.11</ele>
  <time>2026-09-02T22:06:35Z</time>
  <course>0.0</course>
  <speed>0.0</speed>
  <fix>3d</fix>
</trkpt>
<trkpt lat="33.8103131" lon="-118.3938671">
  <ele>-1.169</ele>
  <time>2026-09-02T22:06:35Z</time>
  <course>186.2</course>
  <speed>0.01</speed>
  <fix>3d</fix>
</trkpt>
<trkpt lat="33.810313" lon="-118.393867">
  <ele>-1.11</ele>
  <time>2026-09-02T22:06:35Z</time>
  <course>0.0</course>
  <speed>0.0</speed>
  <fix>3d</fix>
</trkpt>
<trkpt lat="33.8103131" lon="-118.3938671">
  <ele>-1.167</ele>
  <time>2026-09-02T22:06:35Z</time>
  <course>186.2</course>
  <speed>0.01414213562373095</speed>
  <fix>3d</fix>
</trkpt>
<trkpt lat="33.810313" lon="-118.393867">
  <ele>-1.11</ele>
  <time>2026-09-02T22:06:35Z</time>
  <course>0.0</course>
  <speed>0.0</speed>
  <fix>3d</fix>
</trkpt>
<trkpt lat="33.8103131" lon="-118.3938671">
  <ele>-1.165</ele>
  <time>2026-09-02T22:06:35Z</time>
  <course>186.2</course>
  <speed>0.01414213562373095</speed>
  <fix>3d</fix>
</trkpt>
<trkpt lat="33.810313" lon="-118.393867">
  <ele>-1.12</ele>
  <time>2026-09-02T22:06:35Z</time>
  <course>0.0</course>
  <speed>0.0</speed>
  <fix>3d</fix>
</trkpt>
<trkpt lat="33.8103131" lon="-118.3938671">
  <ele>-1.162</ele>
  <time>2026-09-02T22:06:35Z</time>
  <course>186.2</course>
  <speed>0.01414213562373095</speed>
  <fix>3d</fix>
</trkpt>
<trkpt lat="33.810313" lon="-118.393867">
  <ele>-1.12</ele>
  <time>2026-09-02T22:06:35Z</time>
  <course>0.0</course>
  <speed>0.0</speed>
  <fix>3d</fix>
</trkpt>
<trkpt lat="33.8103131" lon="-118.3938671">
  <ele>-1.159</ele>
  <time>2026-09-02T22:06:35Z</time>
  <course>186.19</course>
  <speed>0.01414213562373095</speed>
  <fix>3d</fix>
</trkpt>
<trkpt lat="33.810313" lon="-118.393867">
  <ele>-1.12</ele>
  <time>2026-09-02T22:06:35Z</time>
  <course>0.0</course>
  <speed>0.0</speed>
  <fix>3d</fix>
</trkpt>
<trkpt lat="33.8103131" lon="-118.3938671">
  <ele>-1.156</ele>
  <time>2026-09-02T22:06:35Z</time>
  <course>186.19</course>
  <speed>0.01414213562373095</speed>
  <fix>3d</fix>
</trkpt>
<trkpt lat="33.810313" lon="-118.393867">
  <ele>-1.12</ele>
  <time>2026-09-02T22:06:35Z</time>
  <course>0.0</course>
  <speed>0.0</speed>
  <fix>3d</fix>
</trkpt>
<trkpt lat="33.8103131" lon="-118.3938671">
  <ele>-1.152</ele>
  <time>2026-09-02T22:06:35Z</time>
  <course>186.19</course>
  <speed>0.01414213562373095</speed>
  <fix>3d</fix>
</trkpt>
<trkpt lat="33.810313" lon="-118.393867">
  <ele>-1.12</ele>
  <time>2026-09-02T22:06:35Z</time>
  <course>0.0</course>
  <speed>0.0</speed>
  <fix>3d</fix>
</trkpt>
<trkpt lat="33.8103131" lon="-118.3938671">
  <ele>-1.148</ele>
  <time>2026-09-02T22:06:35Z</time>
  <course>186.19</course>
  <speed>0.01414213562373095</speed>
  <fix>3d</fix>
</trkpt>
<trkpt lat="33.810313" lon="-118.393867">
  <ele>-1.12</ele>
  <time>2026-09-02T22:06:35Z</time>
  <course>0.0</course>
  <speed>0.0</speed>
  <fix>3d</fix>
</trkpt>
<trkpt lat="33.8103131" lon="-118.3938671">
  <ele>-1.144</ele>
  <time>2026-09-02T22:06:35Z</time>
  <course>186.19</course>
  <speed>0.01414213562373095</speed>
  <fix>3d</fix>
</trkpt>
<trkpt lat="33.810313" lon="-118.393867">
  <ele>-1.11</ele>
  <time>2026-09-02T22:06:35Z</time>
  <course>0.0</course>
  <speed>0.0</speed>
  <fix>3d</fix>
</trkpt>
<trkpt lat="33.8103131" lon="-118.3938671">
  <ele>-1.138</ele>
  <time>2026-09-02T22:06:35Z</time>
  <course>186.19</course>
  <speed>0.01414213562373095</speed>
  <fix>3d</fix>
</trkpt>
<trkpt lat="33.810313" lon="-118.393867">
  <ele>-1.11</ele>
  <time>2026-09-02T22:06:35Z</time>
  <course>0.0</course>
  <speed>0.0</speed>
  <fix>3d</fix>
</trkpt>
<trkpt lat="33.8103131" lon="-118.3938671">
  <ele>-1.133</ele>
  <time>2026-09-02T22:06:35Z</time>
  <course>186.19</course>
  <speed>0.01414213562373095</speed>
  <fix>3d</fix>
</trkpt>
<trkpt lat="33.810313" lon="-118.393867">
  <ele>-1.11</ele>
  <time>2026-09-02T22:06:35Z</time>
  <course>0.0</course>
  <speed>0.0</speed>
  <fix>3d</fix>
</trkpt>
<trkpt lat="33.8103131" lon="-118.3938671">
  <ele>-1.126</ele>
  <time>2026-09-02T22:06:35Z</time>
  <course>186.19</course>
  <speed>0.01414213562373095</speed>
  <fix>3d</fix>
</trkpt>
<trkpt lat="33.810313" lon="-118.393867">
  <ele>-1.11</ele>
  <time>2026-09-02T22:06:35Z</time>
  <course>0.0</course>
  <speed>0.0</speed>
  <fix>3d</fix>
</trkpt>
<trkpt lat="33.8103131" lon="-118.3938671">
  <ele>-1.12</ele>
  <time>2026-09-02T22:06:35Z</time>
  <course>186.19</course>
  <speed>0.01414213562373095</speed>
  <fix>3d</fix>
</trkpt>
<trkpt lat="33.810313" lon="-118.393867">
  <ele>-1.1</ele>
  <time>2026-09-02T22:06:35Z</time>
  <course>0.0</course>
  <speed>0.0</speed>
  <fix>3d</fix>
</trkpt>
<trkpt lat="33.8103131" lon="-118.3938671">
  <ele>-1.114</ele>
  <time>2026-09-02T22:06:35Z</time>
  <course>186.19</course>
  <speed>0.01414213562373095</speed>
  <fix>3d</fix>
</trkpt>
<trkpt lat="33.810313" lon="-118.393867">
  <ele>-1.1</ele>
  <time>2026-09-02T22:06:35Z</time>
  <course>0.0</course>
  <speed>0.0</speed>
  <fix>3d</fix>
</trkpt>
<trkpt lat="33.8103131" lon="-118.3938671">
  <ele>-1.107</ele>
  <time>2026-09-02T22:06:35Z</time>
  <course>186.19</course>
  <speed>0.01414213562373095</speed>
  <fix>3d</fix>
</trkpt>
<trkpt lat="33.810313" lon="-118.393867">
  <ele>-1.09</ele>
  <time>2026-09-02T22:06:35Z</time>
  <course>0.0</course>
  <speed>0.0</speed>
  <fix>3d</fix>
</trkpt>
<trkpt lat="33.8103131" lon="-118.3938671">
  <ele>-1.101</ele>
  <time>2026-09-02T22:06:35Z</time>
  <course>186.19</course>
  <speed>0.01414213562373095</speed>
  <fix>3d</fix>
</trkpt>
<trkpt lat="33.810313" lon="-118.393867">
  <ele>-1.09</ele>
  <time>2026-09-02T22:06:35Z</time>
  <course>0.0</course>
  <speed>0.0</speed>
  <fix>3d</fix>
</trkpt>
<trkpt lat="33.8103131" lon="-118.3938671">
  <ele>-1.095</ele>
  <time>2026-09-02T22:06:35Z</time>
  <course>186.19</course>
  <speed>0.01414213562373095</speed>
  <fix>3d</fix>
</trkpt>
<trkpt lat="33.810313" lon="-118.393867">
  <ele>-1.08</ele>
  <time>2026-09-02T22:06:35Z</time>
  <course>0.0</course>
  <speed>0.0</speed>
  <fix>3d</fix>
</trkpt>
<trkpt lat="33.8103131" lon="-118.3938671">
  <ele>-1.087</ele>
  <time>2026-09-02T22:06:35Z</time>
  <course>186.19</course>
  <speed>0.01414213562373095</speed>
  <fix>3d</fix>
</trkpt>
<trkpt lat="33.810313" lon="-118.393867">
  <ele>-1.08</ele>
  <time>2026-09-02T22:06:35Z</time>
  <course>0.0</course>
  <speed>0.0</speed>
  <fix>3d</fix>
</trkpt>
<trkpt lat="33.8103131" lon="-118.3938671">
  <ele>-1.08</ele>
  <time>2026-09-02T22:06:35Z</time>
  <course>186.19</course>
  <speed>0.022360679774997897</speed>
  <fix>3d</fix>
</trkpt>
<trkpt lat="33.810313" lon="-118.393867">
  <ele>-1.06</ele>
  <time>2026-09-02T22:06:35Z</time>
  <course>0.0</course>
  <speed>0.0</speed>
  <fix>3d</fix>
</trkpt>
<trkpt lat="33.8103131" lon="-118.3938671">
  <ele>-1.071</ele>
  <time>2026-09-02T22:06:35Z</time>
  <course>186.19</course>
  <speed>0.022360679774997897</speed>
  <fix>3d</fix>
</trkpt>
<trkpt lat="33.810313" lon="-118.393867">
  <ele>-1.06</ele>
  <time>2026-09-02T22:06:35Z</time>
  <course>0.0</course>
  <speed>0.0</speed>
  <fix>3d</fix>
</trkpt>
<trkpt lat="33.8103131" lon="-118.3938671">
  <ele>-1.063</ele>
  <time>2026-09-02T22:06:35Z</time>
  <course>186.19</course>
  <speed>0.022360679774997897</speed>
  <fix>3d</fix>
</trkpt>
<trkpt lat="33.810313" lon="-118.393867">
  <ele>-1.05</ele>
  <time>2026-09-02T22:06:35Z</time>
  <course>0.0</course>
  <speed>0.0</speed>
  <fix>3d</fix>
</trkpt>
<trkpt lat="33.8103131" lon="-118.3938671">
  <ele>-1.055</ele>
  <time>2026-09-02T22:06:35Z</time>
  <course>186.19</course>
  <speed>0.022360679774997897</speed>
  <fix>3d</fix>
</trkpt>
<trkpt lat="33.810313" lon="-118.393867">
  <ele>-1.05</ele>
  <time>2026-09-02T22:06:35Z</time>
  <course>0.0</course>
  <speed>0.0</speed>
  <fix>3d</fix>
</trkpt>
<trkpt lat="33.8103131" lon="-118.3938671">
  <ele>-1.047</ele>
  <time>2026-09-02T22:06:35Z</time>
  <course>186.19</course>
  <speed>0.022360679774997897</speed>
  <fix>3d</fix>
</trkpt>
<trkpt lat="33.810313" lon="-118.393867">
  <ele>-1.03</ele>
  <time>2026-09-02T22:06:35Z</time>
  <course>0.0</course>
  <speed>0.0</speed>
  <fix>3d</fix>
</trkpt>
<trkpt lat="33.8103131" lon="-118.3938671">
  <ele>-1.039</ele>
  <time>2026-09-02T22:06:35Z</time>
  <course>186.19</course>
  <speed>0.022360679774997897</speed>
  <fix>3d</fix>
</trkpt>
<trkpt lat="33.810313" lon="-118.393867">
  <ele>-1.03</ele>
  <time>2026-09-02T22:06:35Z</time>
  <course>0.0</course>
  <speed>0.0</speed>
  <fix>3d</fix>
</trkpt>
<trkpt lat="33.8103131" lon="-118.3938671">
  <ele>-1.031</ele>
  <time>2026-09-02T22:06:35Z</time>
  <course>186.19</course>
  <speed>0.022360679774997897</speed>
  <fix>3d</fix>
</trkpt>
<trkpt lat="33.810313" lon="-118.393867">
  <ele>-1.02</ele>
  <time>2026-09-02T22:06:35Z</time>
  <course>0.0</course>
  <speed>0.0</speed>
  <fix>3d</fix>
</trkpt>
<trkpt lat="33.8103131" lon="-118.3938671">
  <ele>-1.021</ele>
  <time>2026-09-02T22:06:35Z</time>
  <course>186.19</course>
  <speed>0.022360679774997897</speed>
  <fix>3d</fix>
</trkpt>
<trkpt lat="33.810313" lon="-118.393867">
  <ele>-1.02</ele>
  <time>2026-09-02T22:06:35Z</time>
  <course>0.0</course>
  <speed>0.0</speed>
  <fix>3d</fix>
</trkpt>
<trkpt lat="33.8103131" lon="-118.3938671">
  <ele>-1.012</ele>
  <time>2026-09-02T22:06:35Z</time>
  <course>186.19</course>
  <speed>0.022360679774997897</speed>
  <fix>3d</fix>
</trkpt>
<trkpt lat="33.810313" lon="-118.393867">
  <ele>-1.0</ele>
  <time>2026-09-02T22:06:35Z</time>
  <course>0.0</course>
  <speed>0.0</speed>
  <fix>3d</fix>
</trkpt>
<trkpt lat="33.8103131" lon="-118.3938671">
  <ele>-1.003</ele>
  <time>2026-09-02T22:06:35Z</time>
  <course>186.19</course>
  <speed>0.022360679774997897</speed>
  <fix>3d</fix>
</trkpt>
<trkpt lat="33.810313" lon="-118.393867">
  <ele>-1.0</ele>
  <time>2026-09-02T22:06:35Z</time>
  <course>0.0</course>
  <speed>0.0</speed>
  <fix>3d</fix>
</trkpt>
<trkpt lat="33.8103131" lon="-118.3938671">
  <ele>-0.995</ele>
  <time>2026-09-02T22:06:35Z</time>
  <course>186.19</course>
  <speed>0.022360679774997897</speed>
  <fix>3d</fix>
</trkpt>
<trkpt lat="33.810313" lon="-118.393867">
  <ele>-0.99</ele>
  <time>2026-09-02T22:06:35Z</time>
  <course>0.0</course>
  <speed>0.0</speed>
  <fix>3d</fix>
</trkpt>
<trkpt lat="33.8103131" lon="-118.3938671">
  <ele>-0.986</ele>
  <time>2026-09-02T22:06:35Z</time>
  <course>186.19</course>
  <speed>0.022360679774997897</speed>
  <fix>3d</fix>
</trkpt>
<trkpt lat="33.810313" lon="-118.393867">
  <ele>-0.99</ele>
  <time>2026-09-02T22:06:35Z</time>
  <course>0.0</course>
  <speed>0.0</speed>
  <fix>3d</fix>
</trkpt>
<trkpt lat="33.8103131" lon="-118.3938671">
  <ele>-0.978</ele>
  <time>2026-09-02T22:06:35Z</time>
  <course>186.19</course>
  <speed>0.022360679774997897</speed>
  <fix>3d</fix>
</trkpt>
<trkpt lat="33.810313" lon="-118.393867">
  <ele>-0.97</ele>
  <time>2026-09-02T22:06:35Z</time>
  <course>0.0</course>
  <speed>0.0</speed>
  <fix>3d</fix>
</trkpt>
<trkpt lat="33.8103131" lon="-118.3938671">
  <ele>-0.968</ele>
  <time>2026-09-02T22:06:35Z</time>
  <course>186.19</course>
  <speed>0.022360679774997897</speed>
  <fix>3d</fix>
</trkpt>
<trkpt lat="33.810313" lon="-118.393867">
  <ele>-0.97</ele>
  <time>2026-09-02T22:06:35Z</time>
  <course>0.0</course>
  <speed>0.0</speed>
  <fix>3d</fix>
</trkpt>
<trkpt lat="33.8103131" lon="-118.3938671">
  <ele>-0.957</ele>
  <time>2026-09-02T22:06:35Z</time>
  <course>186.19</course>
  <speed>0.022360679774997897</speed>
  <fix>3d</fix>
</trkpt>
<trkpt lat="33.810313" lon="-118.393867">
  <ele>-0.95</ele>
  <time>2026-09-02T22:06:35Z</time>
  <course>0.0</course>
  <speed>0.0</speed>
  <fix>3d</fix>
</trkpt>
<trkpt lat="33.8103131" lon="-118.3938671">
  <ele>-0.946</ele>
  <time>2026-09-02T22:06:35Z</time>
  <course>186.18</course>
  <speed>0.022360679774997897</speed>
  <fix>3d</fix>
</trkpt>
<trkpt lat="33.810313" lon="-118.393867">
  <ele>-0.95</ele>
  <time>2026-09-02T22:06:35Z</time>
  <course>0.0</course>
  <speed>0.0</speed>
  <fix>3d</fix>
</trkpt>
<trkpt lat="33.8103131" lon="-118.3938671">
  <ele>-0.937</ele>
  <time>2026-09-02T22:06:35Z</time>
  <course>186.18</course>
  <speed>0.022360679774997897</speed>
  <fix>3d</fix>
</trkpt>
<trkpt lat="33.810313" lon="-118.393867">
  <ele>-0.93</ele>
  <time>2026-09-02T22:06:35Z</time>
  <course>0.0</course>
  <speed>0.0</speed>
  <fix>3d</fix>
</trkpt>
<trkpt lat="33.8103131" lon="-118.3938671">
  <ele>-0.927</ele>
  <time>2026-09-02T22:06:35Z</time>
  <course>186.18</course>
  <speed>0.022360679774997897</speed>
  <fix>3d</fix>
</trkpt>
<trkpt lat="33.810313" lon="-118.393867">
  <ele>-0.93</ele>
  <time>2026-09-02T22:06:35Z</time>
  <course>0.0</course>
  <speed>0.0</speed>
  <fix>3d</fix>
</trkpt>
<trkpt lat="33.8103131" lon="-118.3938671">
  <ele>-0.918</ele>
  <time>2026-09-02T22:06:35Z</time>
  <course>186.18</course>
  <speed>0.022360679774997897</speed>
  <fix>3d</fix>
</trkpt>
<trkpt lat="33.810313" lon="-118.393867">
  <ele>-0.91</ele>
  <time>2026-09-02T22:06:35Z</time>
  <course>0.0</course>
  <speed>0.0</speed>
  <fix>3d</fix>
</trkpt>
<trkpt lat="33.8103131" lon="-118.3938671">
  <ele>-0.91</ele>
  <time>2026-09-02T22:06:35Z</time>
  <course>186.18</course>
  <speed>0.022360679774997897</speed>
  <fix>3d</fix>
</trkpt>
<trkpt lat="33.810313" lon="-118.393867">
  <ele>-0.91</ele>
  <time>2026-09-02T22:06:35Z</time>
  <course>0.0</course>
  <speed>0.0</speed>
  <fix>3d</fix>
</trkpt>
<trkpt lat="33.8103131" lon="-118.3938671">
  <ele>-0.901</ele>
  <time>2026-09-02T22:06:35Z</time>
  <course>186.18</course>
  <speed>0.022360679774997897</speed>
  <fix>3d</fix>
</trkpt>
<trkpt lat="33.810313" lon="-118.393867">
  <ele>-0.9</ele>
  <time>2026-09-02T22:06:35Z</time>
  <course>0.0</course>
  <speed>0.0</speed>
  <fix>3d</fix>
</trkpt>
<trkpt lat="33.8103131" lon="-118.3938671">
  <ele>-0.892</ele>
  <time>2026-09-02T22:06:35Z</time>
  <course>186.18</course>
  <speed>0.022360679774997897</speed>
  <fix>3d</fix>
</trkpt>
<trkpt lat="33.810313" lon="-118.393867">
  <ele>-0.9</ele>
  <time>2026-09-02T22:06:35Z</time>
  <course>0.0</course>
  <speed>0.0</speed>
  <fix>3d</fix>
</trkpt>
<trkpt lat="33.8103131" lon="-118.3938671">
  <ele>-0.882</ele>
  <time>2026-09-02T22:06:35Z</time>
  <course>186.18</course>
  <speed>0.022360679774997897</speed>
  <fix>3d</fix>
</trkpt>
<trkpt lat="33.810313" lon="-118.393867">
  <ele>-0.88</ele>
  <time>2026-09-02T22:06:35Z</time>
  <course>0.0</course>
  <speed>0.0</speed>
  <fix>3d</fix>
</trkpt>
<trkpt lat="33.8103131" lon="-118.3938671">
  <ele>-0.872</ele>
  <time>2026-09-02T22:06:35Z</time>
  <course>186.18</course>
  <speed>0.022360679774997897</speed>
  <fix>3d</fix>
</trkpt>
<trkpt lat="33.810313" lon="-118.393867">
  <ele>-0.88</ele>
  <time>2026-09-02T22:06:35Z</time>
  <course>0.0</course>
  <speed>0.0</speed>
  <fix>3d</fix>
</trkpt>
<trkpt lat="33.8103131" lon="-118.3938671">
  <ele>-0.863</ele>
  <time>2026-09-02T22:06:35Z</time>
  <course>186.18</course>
  <speed>0.022360679774997897</speed>
  <fix>3d</fix>
</trkpt>
<trkpt lat="33.810313" lon="-118.393867">
  <ele>-0.86</ele>
  <time>2026-09-02T22:06:35Z</time>
  <course>0.0</course>
  <speed>0.0</speed>
  <fix>3d</fix>
</trkpt>
<trkpt lat="33.8103131" lon="-118.3938671">
  <ele>-0.854</ele>
  <time>2026-09-02T22:06:35Z</time>
  <course>186.18</course>
  <speed>0.022360679774997897</speed>
  <fix>3d</fix>
</trkpt>
<trkpt lat="33.810313" lon="-118.393867">
  <ele>-0.86</ele>
  <time>2026-09-02T22:06:35Z</time>
  <course>0.0</course>
  <speed>0.0</speed>
  <fix>3d</fix>
</trkpt>
<trkpt lat="33.8103131" lon="-118.3938671">
  <ele>-0.843</ele>
  <time>2026-09-02T22:06:35Z</time>
  <course>186.18</course>
  <speed>0.022360679774997897</speed>
  <fix>3d</fix>
</trkpt>
<trkpt lat="33.810313" lon="-118.393867">
  <ele>-0.84</ele>
  <time>2026-09-02T22:06:35Z</time>
  <course>0.0</course>
  <speed>0.0</speed>
  <fix>3d</fix>
</trkpt>
<trkpt lat="33.8103131" lon="-118.3938671">
  <ele>-0.831</ele>
  <time>2026-09-02T22:06:35Z</time>
  <course>186.18</course>
  <speed>0.022360679774997897</speed>
  <fix>3d</fix>
</trkpt>
<trkpt lat="33.810313" lon="-118.393867">
  <ele>-0.84</ele>
  <time>2026-09-02T22:06:35Z</time>
  <course>0.0</course>
  <speed>0.0</speed>
  <fix>3d</fix>
</trkpt>
<trkpt lat="33.8103131" lon="-118.3938671">
  <ele>-0.819</ele>
  <time>2026-09-02T22:06:35Z</time>
  <course>186.18</course>
  <speed>0.022360679774997897</speed>
  <fix>3d</fix>
</trkpt>
<trkpt lat="33.810313" lon="-118.393867">
  <ele>-0.82</ele>
  <time>2026-09-02T22:06:35Z</time>
  <course>0.0</course>
  <speed>0.0</speed>
  <fix>3d</fix>
</trkpt>
<trkpt lat="33.8103131" lon="-118.3938671">
  <ele>-0.807</ele>
  <time>2026-09-02T22:06:35Z</time>
  <course>186.18</course>
  <speed>0.0282842712474619</speed>
  <fix>3d</fix>
</trkpt>
<trkpt lat="33.810313" lon="-118.393867">
  <ele>-0.82</ele>
  <time>2026-09-02T22:06:35Z</time>
  <course>0.0</course>
  <speed>0.0</speed>
  <fix>3d</fix>
</trkpt>
<trkpt lat="33.8103131" lon="-118.3938671">
  <ele>-0.797</ele>
  <time>2026-09-02T22:06:35Z</time>
  <course>186.18</course>
  <speed>0.0282842712474619</speed>
  <fix>3d</fix>
</trkpt>
<trkpt lat="33.810313" lon="-118.393867">
  <ele>-0.8</ele>
  <time>2026-09-02T22:06:35Z</time>
  <course>0.0</course>
  <speed>0.0</speed>
  <fix>3d</fix>
</trkpt>
<trkpt lat="33.8103131" lon="-118.3938671">
  <ele>-0.787</ele>
  <time>2026-09-02T22:06:35Z</time>
  <course>186.18</course>
  <speed>0.0282842712474619</speed>
  <fix>3d</fix>
</trkpt>
<trkpt lat="33.810313" lon="-118.393867">
  <ele>-0.8</ele>
  <time>2026-09-02T22:06:35Z</time>
  <course>0.0</course>
  <speed>0.0</speed>
  <fix>3d</fix>
</trkpt>
<trkpt lat="33.8103131" lon="-118.3938671">
  <ele>-0.778</ele>
  <time>2026-09-02T22:06:35Z</time>
  <course>186.18</course>
  <speed>0.0282842712474619</speed>
  <fix>3d</fix>
</trkpt>
<trkpt lat="33.810313" lon="-118.393867">
  <ele>-0.78</ele>
  <time>2026-09-02T22:06:35Z</time>
  <course>0.0</course>
  <speed>0.0</speed>
  <fix>3d</fix>
</trkpt>
<trkpt lat="33.8103131" lon="-118.3938671">
  <ele>-0.77</ele>
  <time>2026-09-02T22:06:35Z</time>
  <course>186.18</course>
  <speed>0.0282842712474619</speed>
  <fix>3d</fix>
</trkpt>
<trkpt lat="33.810313" lon="-118.393867">
  <ele>-0.78</ele>
  <time>2026-09-02T22:06:35Z</time>
  <course>0.0</course>
  <speed>0.0</speed>
  <fix>3d</fix>
</trkpt>
<trkpt lat="33.8103131" lon="-118.3938671">
  <ele>-0.761</ele>
  <time>2026-09-02T22:06:35Z</time>
  <course>186.18</course>
  <speed>0.0282842712474619</speed>
  <fix>3d</fix>
</trkpt>
<trkpt lat="33.810313" lon="-118.393867">
  <ele>-0.76</ele>
  <time>2026-09-02T22:06:35Z</time>
  <course>0.0</course>
  <speed>0.0</speed>
  <fix>3d</fix>
</trkpt>
<trkpt lat="33.8103131" lon="-118.3938671">
  <ele>-0.754</ele>
  <time>2026-09-02T22:06:35Z</time>
  <course>186.18</course>
  <speed>0.0282842712474619</speed>
  <fix>3d</fix>
</trkpt>
<trkpt lat="33.810313" lon="-118.393867">
  <ele>-0.76</ele>
  <time>2026-09-02T22:06:35Z</time>
  <course>0.0</course>
  <speed>0.0</speed>
  <fix>3d</fix>
</trkpt>
<trkpt lat="33.8103131" lon="-118.3938671">
  <ele>-0.78</ele>
  <time>2026-09-02T22:06:35Z</time>
  <course>186.18</course>
  <speed>0.022360679774997897</speed>
  <fix>3d</fix>
</trkpt>
<trkpt lat="33.810313" lon="-118.393867">
  <ele>-0.75</ele>
  <time>2026-09-02T22:06:35Z</time>
  <course>275.0</course>
  <speed>0.0</speed>
  <fix>3d</fix>
</trkpt>
<trkpt lat="33.8103131" lon="-118.3938671">
  <ele>-0.873</ele>
  <time>2026-09-02T22:06:35Z</time>
  <course>186.18</course>
  <speed>0.022360679774997897</speed>
  <fix>3d</fix>
</trkpt>
<trkpt lat="33.810313" lon="-118.393867">
  <ele>-0.75</ele>
  <time>2026-09-02T22:06:35Z</time>
  <course>275.0</course>
  <speed>0.0</speed>
  <fix>3d</fix>
</trkpt>
<trkpt lat="33.8103131" lon="-118.3938671">
  <ele>-0.994</ele>
  <time>2026-09-02T22:06:35Z</time>
  <course>186.18</course>
  <speed>0.01414213562373095</speed>
  <fix>3d</fix>
</trkpt>
<trkpt lat="33.810313" lon="-118.393867">
  <ele>-0.81</ele>
  <time>2026-09-02T22:06:35Z</time>
  <course>275.0</course>
  <speed>0.0</speed>
  <fix>3d</fix>
</trkpt>
<trkpt lat="33.8103131" lon="-118.3938671">
  <ele>-1.124</ele>
  <time>2026-09-02T22:06:35Z</time>
  <course>186.18</course>
  <speed>0.01414213562373095</speed>
  <fix>3d</fix>
</trkpt>
<trkpt lat="33.810313" lon="-118.393867">
  <ele>-0.81</ele>
  <time>2026-09-02T22:06:35Z</time>
  <course>275.0</course>
  <speed>0.0</speed>
  <fix>3d</fix>
</trkpt>
<trkpt lat="33.8103131" lon="-118.3938671">
  <ele>-1.257</ele>
  <time>2026-09-02T22:06:35Z</time>
  <course>186.18</course>
  <speed>0.01414213562373095</speed>
  <fix>3d</fix>
</trkpt>
<trkpt lat="33.810313" lon="-118.393867">
  <ele>-1.0</ele>
  <time>2026-09-02T22:06:35Z</time>
  <course>275.0</course>
  <speed>0.0</speed>
  <fix>3d</fix>
</trkpt>
<trkpt lat="33.8103131" lon="-118.3938671">
  <ele>-1.362</ele>
  <time>2026-09-02T22:06:35Z</time>
  <course>186.18</course>
  <speed>0.01414213562373095</speed>
  <fix>3d</fix>
</trkpt>
<trkpt lat="33.810313" lon="-118.393867">
  <ele>-1.0</ele>
  <time>2026-09-02T22:06:35Z</time>
  <course>275.0</course>
  <speed>0.0</speed>
  <fix>3d</fix>
</trkpt>
<trkpt lat="33.8103131" lon="-118.3938671">
  <ele>-1.431</ele>
  <time>2026-09-02T22:06:35Z</time>
  <course>186.18</course>
  <speed>0.01414213562373095</speed>
  <fix>3d</fix>
</trkpt>
<trkpt lat="33.810313" lon="-118.393867">
  <ele>-1.22</ele>
  <time>2026-09-02T22:06:35Z</time>
  <course>275.0</course>
  <speed>0.0</speed>
  <fix>3d</fix>
</trkpt>
<trkpt lat="33.8103131" lon="-118.3938671">
  <ele>-1.481</ele>
  <time>2026-09-02T22:06:35Z</time>
  <course>186.17</course>
  <speed>0.01414213562373095</speed>
  <fix>3d</fix>
</trkpt>
<trkpt lat="33.810313" lon="-118.393867">
  <ele>-1.22</ele>
  <time>2026-09-02T22:06:35Z</time>
  <course>275.0</course>
  <speed>0.0</speed>
  <fix>3d</fix>
</trkpt>
<trkpt lat="33.8103131" lon="-118.3938671">
  <ele>-1.519</ele>
  <time>2026-09-02T22:06:35Z</time>
  <course>186.17</course>
  <speed>0.01414213562373095</speed>
  <fix>3d</fix>
</trkpt>
<trkpt lat="33.810313" lon="-118.393867">
  <ele>-1.36</ele>
  <time>2026-09-02T22:06:35Z</time>
  <course>95.0</course>
  <speed>0.0</speed>
  <fix>3d</fix>
</trkpt>
<trkpt lat="33.8103131" lon="-118.3938671">
  <ele>-1.549</ele>
  <time>2026-09-02T22:06:35Z</time>
  <course>186.17</course>
  <speed>0.01414213562373095</speed>
  <fix>3d</fix>
</trkpt>
<trkpt lat="33.810313" lon="-118.393867">
  <ele>-1.36</ele>
  <time>2026-09-02T22:06:35Z</time>
  <course>95.0</course>
  <speed>0.0</speed>
  <fix>3d</fix>
</trkpt>
<trkpt lat="33.8103131" lon="-118.3938671">
  <ele>-1.573</ele>
  <time>2026-09-02T22:06:35Z</time>
  <course>186.17</course>
  <speed>0.01414213562373095</speed>
  <fix>3d</fix>
</trkpt>
<trkpt lat="33.810313" lon="-118.393867">
  <ele>-1.43</ele>
  <time>2026-09-02T22:06:35Z</time>
  <course>95.0</course>
  <speed>0.0</speed>
  <fix>3d</fix>
</trkpt>
<trkpt lat="33.8103131" lon="-118.3938671">
  <ele>-1.592</ele>
  <time>2026-09-02T22:06:35Z</time>
  <course>186.17</course>
  <speed>0.01414213562373095</speed>
  <fix>3d</fix>
</trkpt>
<trkpt lat="33.810313" lon="-118.393867">
  <ele>-1.43</ele>
  <time>2026-09-02T22:06:35Z</time>
  <course>95.0</course>
  <speed>0.0</speed>
  <fix>3d</fix>
</trkpt>
<trkpt lat="33.8103131" lon="-118.3938671">
  <ele>-1.606</ele>
  <time>2026-09-02T22:06:35Z</time>
  <course>186.17</course>
  <speed>0.01414213562373095</speed>
  <fix>3d</fix>
</trkpt>
<trkpt lat="33.810313" lon="-118.393867">
  <ele>-1.48</ele>
  <time>2026-09-02T22:06:35Z</time>
  <course>95.0</course>
  <speed>0.0</speed>
  <fix>3d</fix>
</trkpt>
<trkpt lat="33.8103131" lon="-118.3938671">
  <ele>-1.617</ele>
  <time>2026-09-02T22:06:35Z</time>
  <course>186.17</course>
  <speed>0.01414213562373095</speed>
  <fix>3d</fix>
</trkpt>
<trkpt lat="33.810313" lon="-118.393867">
  <ele>-1.48</ele>
  <time>2026-09-02T22:06:35Z</time>
  <course>95.0</course>
  <speed>0.0</speed>
  <fix>3d</fix>
</trkpt>
<trkpt lat="33.8103131" lon="-118.3938671">
  <ele>-1.626</ele>
  <time>2026-09-02T22:06:35Z</time>
  <course>186.17</course>
  <speed>0.01414213562373095</speed>
  <fix>3d</fix>
</trkpt>
<trkpt lat="33.810313" lon="-118.393867">
  <ele>-1.51</ele>
  <time>2026-09-02T22:06:35Z</time>
  <course>95.0</course>
  <speed>0.0</speed>
  <fix>3d</fix>
</trkpt>
<trkpt lat="33.8103131" lon="-118.3938671">
  <ele>-1.635</ele>
  <time>2026-09-02T22:06:35Z</time>
  <course>186.17</course>
  <speed>0.01414213562373095</speed>
  <fix>3d</fix>
</trkpt>
<trkpt lat="33.810313" lon="-118.393867">
  <ele>-1.51</ele>
  <time>2026-09-02T22:06:35Z</time>
  <course>95.0</course>
  <speed>0.0</speed>
  <fix>3d</fix>
</trkpt>
<trkpt lat="33.8103131" lon="-118.3938671">
  <ele>-1.642</ele>
  <time>2026-09-02T22:06:35Z</time>
  <course>186.17</course>
  <speed>0.01414213562373095</speed>
  <fix>3d</fix>
</trkpt>
<trkpt lat="33.810313" lon="-118.393867">
  <ele>-1.54</ele>
  <time>2026-09-02T22:06:35Z</time>
  <course>95.0</course>
  <speed>0.0</speed>
  <fix>3d</fix>
</trkpt>
<trkpt lat="33.8103131" lon="-118.3938671">
  <ele>-1.647</ele>
  <time>2026-09-02T22:06:35Z</time>
  <course>186.17</course>
  <speed>0.01414213562373095</speed>
  <fix>3d</fix>
</trkpt>
<trkpt lat="33.810313" lon="-118.393867">
  <ele>-1.54</ele>
  <time>2026-09-02T22:06:35Z</time>
  <course>95.0</course>
  <speed>0.0</speed>
  <fix>3d</fix>
</trkpt>
<trkpt lat="33.8103131" lon="-118.3938671">
  <ele>-1.65</ele>
  <time>2026-09-02T22:06:35Z</time>
  <course>186.17</course>
  <speed>0.01414213562373095</speed>
  <fix>3d</fix>
</trkpt>
<trkpt lat="33.810313" lon="-118.393867">
  <ele>-1.56</ele>
  <time>2026-09-02T22:06:35Z</time>
  <course>95.0</course>
  <speed>0.0</speed>
  <fix>3d</fix>
</trkpt>
<trkpt lat="33.8103131" lon="-118.3938671">
  <ele>-1.652</ele>
  <time>2026-09-02T22:06:35Z</time>
  <course>186.17</course>
  <speed>0.01414213562373095</speed>
  <fix>3d</fix>
</trkpt>
<trkpt lat="33.810313" lon="-118.393867">
  <ele>-1.56</ele>
  <time>2026-09-02T22:06:35Z</time>
  <course>95.0</course>
  <speed>0.0</speed>
  <fix>3d</fix>
</trkpt>
<trkpt lat="33.8103131" lon="-118.3938671">
  <ele>-1.654</ele>
  <time>2026-09-02T22:06:35Z</time>
  <course>186.17</course>
  <speed>0.01414213562373095</speed>
  <fix>3d</fix>
</trkpt>
<trkpt lat="33.810313" lon="-118.393867">
  <ele>-1.57</ele>
  <time>2026-09-02T22:06:35Z</time>
  <course>95.0</course>
  <speed>0.0</speed>
  <fix>3d</fix>
</trkpt>
<trkpt lat="33.8103131" lon="-118.3938671">
  <ele>-1.655</ele>
  <time>2026-09-02T22:06:35Z</time>
  <course>186.17</course>
  <speed>0.01414213562373095</speed>
  <fix>3d</fix>
</trkpt>
<trkpt lat="33.810313" lon="-118.393867">
  <ele>-1.57</ele>
  <time>2026-09-02T22:06:35Z</time>
  <course>95.0</course>
  <speed>0.0</speed>
  <fix>3d</fix>
</trkpt>
<trkpt lat="33.8103131" lon="-118.3938671">
  <ele>-1.656</ele>
  <time>2026-09-02T22:06:35Z</time>
  <course>186.17</course>
  <speed>0.01414213562373095</speed>
  <fix>3d</fix>
</trkpt>
<trkpt lat="33.810313" lon="-118.393867">
  <ele>-1.58</ele>
  <time>2026-09-02T22:06:35Z</time>
  <course>95.0</course>
  <speed>0.0</speed>
  <fix>3d</fix>
</trkpt>
<trkpt lat="33.8103131" lon="-118.3938671">
  <ele>-1.657</ele>
  <time>2026-09-02T22:06:35Z</time>
  <course>186.17</course>
  <speed>0.01414213562373095</speed>
  <fix>3d</fix>
</trkpt>
<trkpt lat="33.810313" lon="-118.393867">
  <ele>-1.58</ele>
  <time>2026-09-02T22:06:35Z</time>
  <course>95.0</course>
  <speed>0.0</speed>
  <fix>3d</fix>
</trkpt>
<trkpt lat="33.8103131" lon="-118.3938671">
  <ele>-1.656</ele>
  <time>2026-09-02T22:06:35Z</time>
  <course>186.17</course>
  <speed>0.01414213562373095</speed>
  <fix>3d</fix>
</trkpt>
<trkpt lat="33.810313" lon="-118.393867">
  <ele>-1.59</ele>
  <time>2026-09-02T22:06:35Z</time>
  <course>95.0</course>
  <speed>0.0</speed>
  <fix>3d</fix>
</trkpt>
<trkpt lat="33.8103131" lon="-118.3938671">
  <ele>-1.655</ele>
  <time>2026-09-02T22:06:35Z</time>
  <course>186.17</course>
  <speed>0.01414213562373095</speed>
  <fix>3d</fix>
</trkpt>
<trkpt lat="33.810313" lon="-118.393867">
  <ele>-1.59</ele>
  <time>2026-09-02T22:06:35Z</time>
  <course>95.0</course>
  <speed>0.0</speed>
  <fix>3d</fix>
</trkpt>
<trkpt lat="33.8103131" lon="-118.3938671">
  <ele>-1.653</ele>
  <time>2026-09-02T22:06:35Z</time>
  <course>186.17</course>
  <speed>0.01414213562373095</speed>
  <fix>3d</fix>
</trkpt>
<trkpt lat="33.810313" lon="-118.393867">
  <ele>-1.6</ele>
  <time>2026-09-02T22:06:35Z</time>
  <course>95.0</course>
  <speed>0.0</speed>
  <fix>3d</fix>
</trkpt>
<trkpt lat="33.8103131" lon="-118.3938671">
  <ele>-1.65</ele>
  <time>2026-09-02T22:06:35Z</time>
  <course>186.17</course>
  <speed>0.01414213562373095</speed>
  <fix>3d</fix>
</trkpt>
<trkpt lat="33.810313" lon="-118.393867">
  <ele>-1.6</ele>
  <time>2026-09-02T22:06:35Z</time>
  <course>95.0</course>
  <speed>0.0</speed>
  <fix>3d</fix>
</trkpt>
<trkpt lat="33.8103131" lon="-118.3938671">
  <ele>-1.645</ele>
  <time>2026-09-02T22:06:35Z</time>
  <course>186.17</course>
  <speed>0.01414213562373095</speed>
  <fix>3d</fix>
</trkpt>
<trkpt lat="33.810313" lon="-118.393867">
  <ele>-1.6</ele>
  <time>2026-09-02T22:06:35Z</time>
  <course>95.0</course>
  <speed>0.0</speed>
  <fix>3d</fix>
</trkpt>
<trkpt lat="33.8103131" lon="-118.3938671">
  <ele>-1.641</ele>
  <time>2026-09-02T22:06:35Z</time>
  <course>186.16</course>
  <speed>0.01414213562373095</speed>
  <fix>3d</fix>
</trkpt>
<trkpt lat="33.810313" lon="-118.393867">
  <ele>-1.6</ele>
  <time>2026-09-02T22:06:35Z</time>
  <course>95.0</course>
  <speed>0.0</speed>
  <fix>3d</fix>
</trkpt>
<trkpt lat="33.8103131" lon="-118.3938671">
  <ele>-1.67</ele>
  <time>2026-09-02T22:06:35Z</time>
  <course>186.16</course>
  <speed>0.01414213562373095</speed>
  <fix>3d</fix>
</trkpt>
<trkpt lat="33.810313" lon="-118.393867">
  <ele>-1.6</ele>
  <time>2026-09-02T22:06:35Z</time>
  <course>95.0</course>
  <speed>0.0</speed>
  <fix>3d</fix>
</trkpt>
<trkpt lat="33.8103131" lon="-118.3938671">
  <ele>-1.762</ele>
  <time>2026-09-02T22:06:35Z</time>
  <course>186.16</course>
  <speed>0.01414213562373095</speed>
  <fix>3d</fix>
</trkpt>
<trkpt lat="33.810313" lon="-118.393867">
  <ele>-1.6</ele>
  <time>2026-09-02T22:06:35Z</time>
  <course>95.0</course>
  <speed>0.0</speed>
  <fix>3d</fix>
</trkpt>
<trkpt lat="33.8103131" lon="-118.3938671">
  <ele>-1.88</ele>
  <time>2026-09-02T22:06:35Z</time>
  <course>186.16</course>
  <speed>0.01414213562373095</speed>
  <fix>3d</fix>
</trkpt>
<trkpt lat="33.810313" lon="-118.393867">
  <ele>-1.68</ele>
  <time>2026-09-02T22:06:35Z</time>
  <course>275.0</course>
  <speed>0.0</speed>
  <fix>3d</fix>
</trkpt>
<trkpt lat="33.8103131" lon="-118.3938671">
  <ele>-2.005</ele>
  <time>2026-09-02T22:06:35Z</time>
  <course>186.16</course>
  <speed>0.01414213562373095</speed>
  <fix>3d</fix>
</trkpt>
<trkpt lat="33.810313" lon="-118.393867">
  <ele>-1.68</ele>
  <time>2026-09-02T22:06:35Z</time>
  <course>275.0</course>
  <speed>0.0</speed>
  <fix>3d</fix>
</trkpt>
<trkpt lat="33.8103131" lon="-118.3938671">
  <ele>-2.135</ele>
  <time>2026-09-02T22:06:35Z</time>
  <course>186.16</course>
  <speed>0.01414213562373095</speed>
  <fix>3d</fix>
</trkpt>
<trkpt lat="33.810313" lon="-118.393867">
  <ele>-1.87</ele>
  <time>2026-09-02T22:06:35Z</time>
  <course>275.0</course>
  <speed>0.0</speed>
  <fix>3d</fix>
</trkpt>
<trkpt lat="33.8103131" lon="-118.3938671">
  <ele>-2.237</ele>
  <time>2026-09-02T22:06:35Z</time>
  <course>186.16</course>
  <speed>0.01414213562373095</speed>
  <fix>3d</fix>
</trkpt>
<trkpt lat="33.810313" lon="-118.393867">
  <ele>-1.87</ele>
  <time>2026-09-02T22:06:35Z</time>
  <course>275.0</course>
  <speed>0.0</speed>
  <fix>3d</fix>
</trkpt>
<trkpt lat="33.8103131" lon="-118.3938671">
  <ele>-2.302</ele>
  <time>2026-09-02T22:06:35Z</time>
  <course>186.16</course>
  <speed>0.01414213562373095</speed>
  <fix>3d</fix>
</trkpt>
<trkpt lat="33.810313" lon="-118.393867">
  <ele>-2.09</ele>
  <time>2026-09-02T22:06:35Z</time>
  <course>275.0</course>
  <speed>0.0</speed>
  <fix>3d</fix>
</trkpt>
<trkpt lat="33.8103131" lon="-118.3938671">
  <ele>-2.351</ele>
  <time>2026-09-02T22:06:35Z</time>
  <course>186.16</course>
  <speed>0.01414213562373095</speed>
  <fix>3d</fix>
</trkpt>
<trkpt lat="33.810313" lon="-118.393867">
  <ele>-2.09</ele>
  <time>2026-09-02T22:06:35Z</time>
  <course>275.0</course>
  <speed>0.0</speed>
  <fix>3d</fix>
</trkpt>
<trkpt lat="33.8103131" lon="-118.3938671">
  <ele>-2.391</ele>
  <time>2026-09-02T22:06:35Z</time>
  <course>186.16</course>
  <speed>0.01414213562373095</speed>
  <fix>3d</fix>
</trkpt>
<trkpt lat="33.810313" lon="-118.393867">
  <ele>-2.23</ele>
  <time>2026-09-02T22:06:35Z</time>
  <course>275.0</course>
  <speed>0.0</speed>
  <fix>3d</fix>
</trkpt>
<trkpt lat="33.8103131" lon="-118.3938671">
  <ele>-2.423</ele>
  <time>2026-09-02T22:06:35Z</time>
  <course>186.16</course>
  <speed>0.01414213562373095</speed>
  <fix>3d</fix>
</trkpt>
<trkpt lat="33.810313" lon="-118.393867">
  <ele>-2.23</ele>
  <time>2026-09-02T22:06:35Z</time>
  <course>275.0</course>
  <speed>0.0</speed>
  <fix>3d</fix>
</trkpt>
<trkpt lat="33.8103131" lon="-118.3938671">
  <ele>-2.448</ele>
  <time>2026-09-02T22:06:35Z</time>
  <course>186.16</course>
  <speed>0.01414213562373095</speed>
  <fix>3d</fix>
</trkpt>
<trkpt lat="33.810313" lon="-118.393867">
  <ele>-2.31</ele>
  <time>2026-09-02T22:06:35Z</time>
  <course>275.0</course>
  <speed>0.0</speed>
  <fix>3d</fix>
</trkpt>
<trkpt lat="33.8103131" lon="-118.3938671">
  <ele>-2.468</ele>
  <time>2026-09-02T22:06:35Z</time>
  <course>186.16</course>
  <speed>0.01414213562373095</speed>
  <fix>3d</fix>
</trkpt>
<trkpt lat="33.810313" lon="-118.393867">
  <ele>-2.31</ele>
  <time>2026-09-02T22:06:35Z</time>
  <course>275.0</course>
  <speed>0.0</speed>
  <fix>3d</fix>
</trkpt>
<trkpt lat="33.8103131" lon="-118.3938671">
  <ele>-2.484</ele>
  <time>2026-09-02T22:06:35Z</time>
  <course>186.16</course>
  <speed>0.01414213562373095</speed>
  <fix>3d</fix>
</trkpt>
<trkpt lat="33.810313" lon="-118.393867">
  <ele>-2.36</ele>
  <time>2026-09-02T22:06:35Z</time>
  <course>275.0</course>
  <speed>0.0</speed>
  <fix>3d</fix>
</trkpt>
<trkpt lat="33.8103131" lon="-118.3938671">
  <ele>-2.498</ele>
  <time>2026-09-02T22:06:35Z</time>
  <course>186.16</course>
  <speed>0.01414213562373095</speed>
  <fix>3d</fix>
</trkpt>
<trkpt lat="33.810313" lon="-118.393867">
  <ele>-2.36</ele>
  <time>2026-09-02T22:06:35Z</time>
  <course>275.0</course>
  <speed>0.0</speed>
  <fix>3d</fix>
</trkpt>
<trkpt lat="33.8103131" lon="-118.3938671">
  <ele>-2.51</ele>
  <time>2026-09-02T22:06:35Z</time>
  <course>186.15</course>
  <speed>0.01414213562373095</speed>
  <fix>3d</fix>
</trkpt>
<trkpt lat="33.810313" lon="-118.393867">
  <ele>-2.39</ele>
  <time>2026-09-02T22:06:35Z</time>
  <course>275.0</course>
  <speed>0.0</speed>
  <fix>3d</fix>
</trkpt>
<trkpt lat="33.8103131" lon="-118.3938671">
  <ele>-2.519</ele>
  <time>2026-09-02T22:06:35Z</time>
  <course>186.15</course>
  <speed>0.01414213562373095</speed>
  <fix>3d</fix>
</trkpt>
<trkpt lat="33.810313" lon="-118.393867">
  <ele>-2.39</ele>
  <time>2026-09-02T22:06:35Z</time>
  <course>275.0</course>
  <speed>0.0</speed>
  <fix>3d</fix>
</trkpt>
<trkpt lat="33.8103131" lon="-118.3938671">
  <ele>-2.526</ele>
  <time>2026-09-02T22:06:35Z</time>
  <course>186.15</course>
  <speed>0.01414213562373095</speed>
  <fix>3d</fix>
</trkpt>
<trkpt lat="33.810313" lon="-118.393867">
  <ele>-2.41</ele>
  <time>2026-09-02T22:06:35Z</time>
  <course>275.0</course>
  <speed>0.0</speed>
  <fix>3d</fix>
</trkpt>
<trkpt lat="33.8103131" lon="-118.3938671">
  <ele>-2.532</ele>
  <time>2026-09-02T22:06:35Z</time>
  <course>186.15</course>
  <speed>0.01414213562373095</speed>
  <fix>3d</fix>
</trkpt>
<trkpt lat="33.810313" lon="-118.393867">
  <ele>-2.41</ele>
  <time>2026-09-02T22:06:35Z</time>
  <course>275.0</course>
  <speed>0.0</speed>
  <fix>3d</fix>
</trkpt>
<trkpt lat="33.8103131" lon="-118.3938671">
  <ele>-2.536</ele>
  <time>2026-09-02T22:06:35Z</time>
  <course>186.15</course>
  <speed>0.01414213562373095</speed>
  <fix>3d</fix>
</trkpt>
<trkpt lat="33.810313" lon="-118.393867">
  <ele>-2.43</ele>
  <time>2026-09-02T22:06:35Z</time>
  <course>275.0</course>
  <speed>0.0</speed>
  <fix>3d</fix>
</trkpt>
<trkpt lat="33.8103131" lon="-118.3938671">
  <ele>-2.54</ele>
  <time>2026-09-02T22:06:35Z</time>
  <course>186.15</course>
  <speed>0.01414213562373095</speed>
  <fix>3d</fix>
</trkpt>
<trkpt lat="33.810313" lon="-118.393867">
  <ele>-2.43</ele>
  <time>2026-09-02T22:06:35Z</time>
  <course>275.0</course>
  <speed>0.0</speed>
  <fix>3d</fix>
</trkpt>
<trkpt lat="33.8103131" lon="-118.3938671">
  <ele>-2.543</ele>
  <time>2026-09-02T22:06:35Z</time>
  <course>186.15</course>
  <speed>0.01414213562373095</speed>
  <fix>3d</fix>
</trkpt>
<trkpt lat="33.810313" lon="-118.393867">
  <ele>-2.45</ele>
  <time>2026-09-02T22:06:35Z</time>
  <course>275.0</course>
  <speed>0.0</speed>
  <fix>3d</fix>
</trkpt>
<trkpt lat="33.8103131" lon="-118.3938671">
  <ele>-2.546</ele>
  <time>2026-09-02T22:06:35Z</time>
  <course>186.15</course>
  <speed>0.01414213562373095</speed>
  <fix>3d</fix>
</trkpt>
<trkpt lat="33.810313" lon="-118.393867">
  <ele>-2.45</ele>
  <time>2026-09-02T22:06:35Z</time>
  <course>275.0</course>
  <speed>0.0</speed>
  <fix>3d</fix>
</trkpt>
<trkpt lat="33.8103131" lon="-118.3938671">
  <ele>-2.549</ele>
  <time>2026-09-02T22:06:35Z</time>
  <course>186.15</course>
  <speed>0.022360679774997897</speed>
  <fix>3d</fix>
</trkpt>
<trkpt lat="33.810313" lon="-118.393867">
  <ele>-2.46</ele>
  <time>2026-09-02T22:06:35Z</time>
  <course>275.0</course>
  <speed>0.0</speed>
  <fix>3d</fix>
</trkpt>
<trkpt lat="33.8103131" lon="-118.3938671">
  <ele>-2.552</ele>
  <time>2026-09-02T22:06:35Z</time>
  <course>186.15</course>
  <speed>0.022360679774997897</speed>
  <fix>3d</fix>
</trkpt>
<trkpt lat="33.810313" lon="-118.393867">
  <ele>-2.46</ele>
  <time>2026-09-02T22:06:35Z</time>
  <course>275.0</course>
  <speed>0.0</speed>
  <fix>3d</fix>
</trkpt>
<trkpt lat="33.8103131" lon="-118.3938671">
  <ele>-2.555</ele>
  <time>2026-09-02T22:06:35Z</time>
  <course>186.15</course>
  <speed>0.022360679774997897</speed>
  <fix>3d</fix>
</trkpt>
<trkpt lat="33.810313" lon="-118.393867">
  <ele>-2.47</ele>
  <time>2026-09-02T22:06:35Z</time>
  <course>275.0</course>
  <speed>0.0</speed>
  <fix>3d</fix>
</trkpt>
<trkpt lat="33.8103131" lon="-118.3938671">
  <ele>-2.556</ele>
  <time>2026-09-02T22:06:35Z</time>
  <course>186.15</course>
  <speed>0.022360679774997897</speed>
  <fix>3d</fix>
</trkpt>
<trkpt lat="33.810313" lon="-118.393867">
  <ele>-2.47</ele>
  <time>2026-09-02T22:06:35Z</time>
  <course>275.0</course>
  <speed>0.0</speed>
  <fix>3d</fix>
</trkpt>
<trkpt lat="33.8103131" lon="-118.3938671">
  <ele>-2.557</ele>
  <time>2026-09-02T22:06:35Z</time>
  <course>186.15</course>
  <speed>0.022360679774997897</speed>
  <fix>3d</fix>
</trkpt>
<trkpt lat="33.810313" lon="-118.393867">
  <ele>-2.47</ele>
  <time>2026-09-02T22:06:35Z</time>
  <course>275.0</course>
  <speed>0.0</speed>
  <fix>3d</fix>
</trkpt>
<trkpt lat="33.8103131" lon="-118.3938671">
  <ele>-2.558</ele>
  <time>2026-09-02T22:06:35Z</time>
  <course>186.15</course>
  <speed>0.022360679774997897</speed>
  <fix>3d</fix>
</trkpt>
<trkpt lat="33.810313" lon="-118.393867">
  <ele>-2.47</ele>
  <time>2026-09-02T22:06:35Z</time>
  <course>275.0</course>
  <speed>0.0</speed>
  <fix>3d</fix>
</trkpt>
<trkpt lat="33.8103131" lon="-118.3938671">
  <ele>-2.558</ele>
  <time>2026-09-02T22:06:35Z</time>
  <course>186.15</course>
  <speed>0.022360679774997897</speed>
  <fix>3d</fix>
</trkpt>
<trkpt lat="33.810313" lon="-118.393867">
  <ele>-2.48</ele>
  <time>2026-09-02T22:06:35Z</time>
  <course>275.0</course>
  <speed>0.0</speed>
  <fix>3d</fix>
</trkpt>
<trkpt lat="33.8103131" lon="-118.3938671">
  <ele>-2.557</ele>
  <time>2026-09-02T22:06:35Z</time>
  <course>186.14</course>
  <speed>0.022360679774997897</speed>
  <fix>3d</fix>
</trkpt>
<trkpt lat="33.810313" lon="-118.393867">
  <ele>-2.48</ele>
  <time>2026-09-02T22:06:35Z</time>
  <course>275.0</course>
  <speed>0.0</speed>
  <fix>3d</fix>
</trkpt>
<trkpt lat="33.8103131" lon="-118.3938671">
  <ele>-2.588</ele>
  <time>2026-09-02T22:06:35Z</time>
  <course>186.14</course>
  <speed>0.022360679774997897</speed>
  <fix>3d</fix>
</trkpt>
<trkpt lat="33.810313" lon="-118.393867">
  <ele>-2.48</ele>
  <time>2026-09-02T22:06:35Z</time>
  <course>275.0</course>
  <speed>0.0</speed>
  <fix>3d</fix>
</trkpt>
<trkpt lat="33.8103131" lon="-118.3938671">
  <ele>-2.683</ele>
  <time>2026-09-02T22:06:35Z</time>
  <course>186.14</course>
  <speed>0.01414213562373095</speed>
  <fix>3d</fix>
</trkpt>
<trkpt lat="33.810313" lon="-118.393867">
  <ele>-2.48</ele>
  <time>2026-09-02T22:06:35Z</time>
  <course>275.0</course>
  <speed>0.0</speed>
  <fix>3d</fix>
</trkpt>
<trkpt lat="33.8103131" lon="-118.3938671">
  <ele>-2.8</ele>
  <time>2026-09-02T22:06:35Z</time>
  <course>186.14</course>
  <speed>0.01414213562373095</speed>
  <fix>3d</fix>
</trkpt>
<trkpt lat="33.810313" lon="-118.393867">
  <ele>-2.55</ele>
  <time>2026-09-02T22:06:35Z</time>
  <course>275.0</course>
  <speed>0.0</speed>
  <fix>3d</fix>
</trkpt>
<trkpt lat="33.8103131" lon="-118.3938671">
  <ele>-2.926</ele>
  <time>2026-09-02T22:06:35Z</time>
  <course>186.14</course>
  <speed>0.01414213562373095</speed>
  <fix>3d</fix>
</trkpt>
<trkpt lat="33.810313" lon="-118.393867">
  <ele>-2.55</ele>
  <time>2026-09-02T22:06:35Z</time>
  <course>275.0</course>
  <speed>0.0</speed>
  <fix>3d</fix>
</trkpt>
<trkpt lat="33.8103131" lon="-118.3938671">
  <ele>-3.056</ele>
  <time>2026-09-02T22:06:35Z</time>
  <course>186.14</course>
  <speed>0.01414213562373095</speed>
  <fix>3d</fix>
</trkpt>
<trkpt lat="33.810313" lon="-118.393867">
  <ele>-2.75</ele>
  <time>2026-09-02T22:06:35Z</time>
  <course>275.0</course>
  <speed>0.0</speed>
  <fix>3d</fix>
</trkpt>
<trkpt lat="33.8103131" lon="-118.3938671">
  <ele>-3.159</ele>
  <time>2026-09-02T22:06:35Z</time>
  <course>186.14</course>
  <speed>0.01414213562373095</speed>
  <fix>3d</fix>
</trkpt>
<trkpt lat="33.810313" lon="-118.393867">
  <ele>-2.75</ele>
  <time>2026-09-02T22:06:35Z</time>
  <course>275.0</course>
  <speed>0.0</speed>
  <fix>3d</fix>
</trkpt>
<trkpt lat="33.8103131" lon="-118.3938671">
  <ele>-3.225</ele>
  <time>2026-09-02T22:06:35Z</time>
  <course>186.14</course>
  <speed>0.01414213562373095</speed>
  <fix>3d</fix>
</trkpt>
<trkpt lat="33.810313" lon="-118.393867">
  <ele>-2.96</ele>
  <time>2026-09-02T22:06:35Z</time>
  <course>274.99</course>
  <speed>0.0</speed>
  <fix>3d</fix>
</trkpt>
<trkpt lat="33.8103131" lon="-118.3938671">
  <ele>-3.274</ele>
  <time>2026-09-02T22:06:35Z</time>
  <course>186.14</course>
  <speed>0.022360679774997897</speed>
  <fix>3d</fix>
</trkpt>
<trkpt lat="33.810313" lon="-118.393867">
  <ele>-2.96</ele>
  <time>2026-09-02T22:06:35Z</time>
  <course>274.99</course>
  <speed>0.0</speed>
  <fix>3d</fix>
</trkpt>
<trkpt lat="33.8103131" lon="-118.3938671">
  <ele>-3.312</ele>
  <time>2026-09-02T22:06:35Z</time>
  <course>186.14</course>
  <speed>0.022360679774997897</speed>
  <fix>3d</fix>
</trkpt>
<trkpt lat="33.810313" lon="-118.393867">
  <ele>-3.11</ele>
  <time>2026-09-02T22:06:35Z</time>
  <course>95.0</course>
  <speed>0.0</speed>
  <fix>3d</fix>
</trkpt>
<trkpt lat="33.8103131" lon="-118.3938671">
  <ele>-3.342</ele>
  <time>2026-09-02T22:06:35Z</time>
  <course>186.14</course>
  <speed>0.022360679774997897</speed>
  <fix>3d</fix>
</trkpt>
<trkpt lat="33.810313" lon="-118.393867">
  <ele>-3.11</ele>
  <time>2026-09-02T22:06:35Z</time>
  <course>95.0</course>
  <speed>0.0</speed>
  <fix>3d</fix>
</trkpt>
<trkpt lat="33.8103131" lon="-118.3938671">
  <ele>-3.366</ele>
  <time>2026-09-02T22:06:35Z</time>
  <course>186.14</course>
  <speed>0.01414213562373095</speed>
  <fix>3d</fix>
</trkpt>
<trkpt lat="33.810313" lon="-118.393867">
  <ele>-3.18</ele>
  <time>2026-09-02T22:06:35Z</time>
  <course>95.0</course>
  <speed>0.0</speed>
  <fix>3d</fix>
</trkpt>
<trkpt lat="33.8103131" lon="-118.3938671">
  <ele>-3.384</ele>
  <time>2026-09-02T22:06:35Z</time>
  <course>186.14</course>
  <speed>0.01414213562373095</speed>
  <fix>3d</fix>
</trkpt>
<trkpt lat="33.810313" lon="-118.393867">
  <ele>-3.18</ele>
  <time>2026-09-02T22:06:35Z</time>
  <course>95.0</course>
  <speed>0.0</speed>
  <fix>3d</fix>
</trkpt>
<trkpt lat="33.8103131" lon="-118.3938671">
  <ele>-3.398</ele>
  <time>2026-09-02T22:06:35Z</time>
  <course>186.14</course>
  <speed>0.01414213562373095</speed>
  <fix>3d</fix>
</trkpt>
<trkpt lat="33.810313" lon="-118.393867">
  <ele>-3.23</ele>
  <time>2026-09-02T22:06:35Z</time>
  <course>95.0</course>
  <speed>0.0</speed>
  <fix>3d</fix>
</trkpt>
<trkpt lat="33.8103131" lon="-118.3938671">
  <ele>-3.409</ele>
  <time>2026-09-02T22:06:35Z</time>
  <course>186.13</course>
  <speed>0.01414213562373095</speed>
  <fix>3d</fix>
</trkpt>
<trkpt lat="33.810313" lon="-118.393867">
  <ele>-3.23</ele>
  <time>2026-09-02T22:06:35Z</time>
  <course>95.0</course>
  <speed>0.0</speed>
  <fix>3d</fix>
</trkpt>
<trkpt lat="33.8103131" lon="-118.3938671">
  <ele>-3.417</ele>
  <time>2026-09-02T22:06:35Z</time>
  <course>186.13</course>
  <speed>0.01414213562373095</speed>
  <fix>3d</fix>
</trkpt>
<trkpt lat="33.810313" lon="-118.393867">
  <ele>-3.26</ele>
  <time>2026-09-02T22:06:35Z</time>
  <course>95.0</course>
  <speed>0.0</speed>
  <fix>3d</fix>
</trkpt>
<trkpt lat="33.8103131" lon="-118.3938671">
  <ele>-3.424</ele>
  <time>2026-09-02T22:06:35Z</time>
  <course>186.13</course>
  <speed>0.01414213562373095</speed>
  <fix>3d</fix>
</trkpt>
<trkpt lat="33.810313" lon="-118.393867">
  <ele>-3.26</ele>
  <time>2026-09-02T22:06:35Z</time>
  <course>95.0</course>
  <speed>0.0</speed>
  <fix>3d</fix>
</trkpt>
<trkpt lat="33.8103131" lon="-118.3938671">
  <ele>-3.429</ele>
  <time>2026-09-02T22:06:35Z</time>
  <course>186.13</course>
  <speed>0.022360679774997897</speed>
  <fix>3d</fix>
</trkpt>
<trkpt lat="33.810313" lon="-118.393867">
  <ele>-3.29</ele>
  <time>2026-09-02T22:06:35Z</time>
  <course>95.0</course>
  <speed>0.0</speed>
  <fix>3d</fix>
</trkpt>
<trkpt lat="33.8103131" lon="-118.3938671">
  <ele>-3.434</ele>
  <time>2026-09-02T22:06:35Z</time>
  <course>186.13</course>
  <speed>0.022360679774997897</speed>
  <fix>3d</fix>
</trkpt>
<trkpt lat="33.810313" lon="-118.393867">
  <ele>-3.29</ele>
  <time>2026-09-02T22:06:35Z</time>
  <course>95.0</course>
  <speed>0.0</speed>
  <fix>3d</fix>
</trkpt>
<trkpt lat="33.8103131" lon="-118.3938671">
  <ele>-3.438</ele>
  <time>2026-09-02T22:06:35Z</time>
  <course>186.13</course>
  <speed>0.022360679774997897</speed>
  <fix>3d</fix>
</trkpt>
<trkpt lat="33.810313" lon="-118.393867">
  <ele>-3.3</ele>
  <time>2026-09-02T22:06:35Z</time>
  <course>95.0</course>
  <speed>0.0</speed>
  <fix>3d</fix>
</trkpt>
<trkpt lat="33.8103131" lon="-118.3938671">
  <ele>-3.442</ele>
  <time>2026-09-02T22:06:35Z</time>
  <course>186.13</course>
  <speed>0.022360679774997897</speed>
  <fix>3d</fix>
</trkpt>
<trkpt lat="33.810313" lon="-118.393867">
  <ele>-3.3</ele>
  <time>2026-09-02T22:06:35Z</time>
  <course>95.0</course>
  <speed>0.0</speed>
  <fix>3d</fix>
</trkpt>
<trkpt lat="33.8103131" lon="-118.3938671">
  <ele>-3.445</ele>
  <time>2026-09-02T22:06:35Z</time>
  <course>186.13</course>
  <speed>0.022360679774997897</speed>
  <fix>3d</fix>
</trkpt>
<trkpt lat="33.810313" lon="-118.393867">
  <ele>-3.32</ele>
  <time>2026-09-02T22:06:35Z</time>
  <course>95.0</course>
  <speed>0.0</speed>
  <fix>3d</fix>
</trkpt>
<trkpt lat="33.8103131" lon="-118.3938671">
  <ele>-3.448</ele>
  <time>2026-09-02T22:06:35Z</time>
  <course>186.13</course>
  <speed>0.022360679774997897</speed>
  <fix>3d</fix>
</trkpt>
<trkpt lat="33.810313" lon="-118.393867">
  <ele>-3.32</ele>
  <time>2026-09-02T22:06:35Z</time>
  <course>95.0</course>
  <speed>0.0</speed>
  <fix>3d</fix>
</trkpt>
<trkpt lat="33.8103131" lon="-118.3938671">
  <ele>-3.45</ele>
  <time>2026-09-02T22:06:35Z</time>
  <course>186.13</course>
  <speed>0.022360679774997897</speed>
  <fix>3d</fix>
</trkpt>
<trkpt lat="33.810313" lon="-118.393867">
  <ele>-3.33</ele>
  <time>2026-09-02T22:06:35Z</time>
  <course>95.0</course>
  <speed>0.0</speed>
  <fix>3d</fix>
</trkpt>
<trkpt lat="33.8103131" lon="-118.3938671">
  <ele>-3.452</ele>
  <time>2026-09-02T22:06:35Z</time>
  <course>186.13</course>
  <speed>0.022360679774997897</speed>
  <fix>3d</fix>
</trkpt>
<trkpt lat="33.810313" lon="-118.393867">
  <ele>-3.33</ele>
  <time>2026-09-02T22:06:35Z</time>
  <course>95.0</course>
  <speed>0.0</speed>
  <fix>3d</fix>
</trkpt>
<trkpt lat="33.8103132" lon="-118.3938672">
  <ele>-3.453</ele>
  <time>2026-09-02T22:06:35Z</time>
  <course>186.13</course>
  <speed>0.0282842712474619</speed>
  <fix>3d</fix>
</trkpt>
<trkpt lat="33.810313" lon="-118.393867">
  <ele>-3.34</ele>
  <time>2026-09-02T22:06:35Z</time>
  <course>95.0</course>
  <speed>0.0</speed>
  <fix>3d</fix>
</trkpt>
<trkpt lat="33.8103132" lon="-118.3938672">
  <ele>-3.453</ele>
  <time>2026-09-02T22:06:35Z</time>
  <course>186.12</course>
  <speed>0.0282842712474619</speed>
  <fix>3d</fix>
</trkpt>
<trkpt lat="33.810313" lon="-118.393867">
  <ele>-3.34</ele>
  <time>2026-09-02T22:06:35Z</time>
  <course>95.0</course>
  <speed>0.0</speed>
  <fix>3d</fix>
</trkpt>
<trkpt lat="33.8103132" lon="-118.3938672">
  <ele>-3.453</ele>
  <time>2026-09-02T22:06:35Z</time>
  <course>186.12</course>
  <speed>0.03605551275463989</speed>
  <fix>3d</fix>
</trkpt>
<trkpt lat="33.810313" lon="-118.393867">
  <ele>-3.34</ele>
  <time>2026-09-02T22:06:35Z</time>
  <course>95.0</course>
  <speed>0.0</speed>
  <fix>3d</fix>
</trkpt>
<trkpt lat="33.8103133" lon="-118.3938672">
  <ele>-3.453</ele>
  <time>2026-09-02T22:06:35Z</time>
  <course>186.12</course>
  <speed>0.03605551275463989</speed>
  <fix>3d</fix>
</trkpt>
<trkpt lat="33.810313" lon="-118.393867">
  <ele>-3.34</ele>
  <time>2026-09-02T22:06:35Z</time>
  <course>95.0</course>
  <speed>0.0</speed>
  <fix>3d</fix>
</trkpt>
<trkpt lat="33.8103133" lon="-118.3938673">
  <ele>-3.453</ele>
  <time>2026-09-02T22:06:35Z</time>
  <course>186.12</course>
  <speed>0.03605551275463989</speed>
  <fix>3d</fix>
</trkpt>
<trkpt lat="33.810313" lon="-118.393867">
  <ele>-3.35</ele>
  <time>2026-09-02T22:06:35Z</time>
  <course>95.0</course>
  <speed>0.0</speed>
  <fix>3d</fix>
</trkpt>
<trkpt lat="33.8103133" lon="-118.3938673">
  <ele>-3.451</ele>
  <time>2026-09-02T22:06:35Z</time>
  <course>186.12</course>
  <speed>0.03605551275463989</speed>
  <fix>3d</fix>
</trkpt>
<trkpt lat="33.810313" lon="-118.393867">
  <ele>-3.35</ele>
  <time>2026-09-02T22:06:35Z</time>
  <course>95.0</course>
  <speed>0.0</speed>
  <fix>3d</fix>
</trkpt>
<trkpt lat="33.8103134" lon="-118.3938673">
  <ele>-3.448</ele>
  <time>2026-09-02T22:06:35Z</time>
  <course>186.12</course>
  <speed>0.03605551275463989</speed>
  <fix>3d</fix>
</trkpt>
<trkpt lat="33.810313" lon="-118.393867">
  <ele>-3.35</ele>
  <time>2026-09-02T22:06:36Z</time>
  <course>95.0</course>
  <speed>0.0</speed>
  <fix>3d</fix>
</trkpt>
<trkpt lat="33.8103134" lon="-118.3938674">
  <ele>-3.445</ele>
  <time>2026-09-02T22:06:36Z</time>
  <course>186.12</course>
  <speed>0.04242640687119285</speed>
  <fix>3d</fix>
</trkpt>
<trkpt lat="33.810313" lon="-118.393867">
  <ele>-3.35</ele>
  <time>2026-09-02T22:06:36Z</time>
  <course>95.0</course>
  <speed>0.0</speed>
  <fix>3d</fix>
</trkpt>
<trkpt lat="33.8103134" lon="-118.3938674">
  <ele>-3.44</ele>
  <time>2026-09-02T22:06:36Z</time>
  <course>186.12</course>
  <speed>0.05</speed>
  <fix>3d</fix>
</trkpt>
<trkpt lat="33.810313" lon="-118.393867">
  <ele>-3.35</ele>
  <time>2026-09-02T22:06:36Z</time>
  <course>95.0</course>
  <speed>0.0</speed>
  <fix>3d</fix>
</trkpt>
<trkpt lat="33.8103135" lon="-118.3938674">
  <ele>-3.435</ele>
  <time>2026-09-02T22:06:36Z</time>
  <course>186.12</course>
  <speed>0.05</speed>
  <fix>3d</fix>
</trkpt>
<trkpt lat="33.810313" lon="-118.393867">
  <ele>-3.35</ele>
  <time>2026-09-02T22:06:36Z</time>
  <course>95.0</course>
  <speed>0.0</speed>
  <fix>3d</fix>
</trkpt>
<trkpt lat="33.8103135" lon="-118.3938675">
  <ele>-3.43</ele>
  <time>2026-09-02T22:06:36Z</time>
  <course>186.12</course>
  <speed>0.05</speed>
  <fix>3d</fix>
</trkpt>
<trkpt lat="33.810313" lon="-118.393867">
  <ele>-3.34</ele>
  <time>2026-09-02T22:06:36Z</time>
  <course>95.0</course>
  <speed>0.0</speed>
  <fix>3d</fix>
</trkpt>
<trkpt lat="33.8103136" lon="-118.3938675">
  <ele>-3.424</ele>
  <time>2026-09-02T22:06:36Z</time>
  <course>186.12</course>
  <speed>0.05</speed>
  <fix>3d</fix>
</trkpt>
<trkpt lat="33.810313" lon="-118.393867">
  <ele>-3.34</ele>
  <time>2026-09-02T22:06:36Z</time>
  <course>95.0</course>
  <speed>0.0</speed>
  <fix>3d</fix>
</trkpt>
<trkpt lat="33.8103136" lon="-118.3938676">
  <ele>-3.42</ele>
  <time>2026-09-02T22:06:36Z</time>
  <course>186.11</course>
  <speed>0.05</speed>
  <fix>3d</fix>
</trkpt>
<trkpt lat="33.810313" lon="-118.393867">
  <ele>-3.34</ele>
  <time>2026-09-02T22:06:36Z</time>
  <course>95.0</course>
  <speed>0.0</speed>
  <fix>3d</fix>
</trkpt>
<trkpt lat="33.8103136" lon="-118.3938676">
  <ele>-3.414</ele>
  <time>2026-09-02T22:06:36Z</time>
  <course>186.11</course>
  <speed>0.06403124237432849</speed>
  <fix>3d</fix>
</trkpt>
<trkpt lat="33.810313" lon="-118.393867">
  <ele>-3.34</ele>
  <time>2026-09-02T22:06:36Z</time>
  <course>95.0</course>
  <speed>0.0</speed>
  <fix>3d</fix>
</trkpt>
<trkpt lat="33.8103137" lon="-118.3938677">
  <ele>-3.407</ele>
  <time>2026-09-02T22:06:36Z</time>
  <course>186.11</course>
  <speed>0.06403124237432849</speed>
  <fix>3d</fix>
</trkpt>
<trkpt lat="33.810313" lon="-118.393867">
  <ele>-3.33</ele>
  <time>2026-09-02T22:06:36Z</time>
  <course>95.0</course>
  <speed>0.0</speed>
  <fix>3d</fix>
</trkpt>
<trkpt lat="33.8103138" lon="-118.3938677">
  <ele>-3.399</ele>
  <time>2026-09-02T22:06:36Z</time>
  <course>186.11</course>
  <speed>0.06403124237432849</speed>
  <fix>3d</fix>
</trkpt>
<trkpt lat="33.810313" lon="-118.393867">
  <ele>-3.33</ele>
  <time>2026-09-02T22:06:36Z</time>
  <course>95.0</course>
  <speed>0.0</speed>
  <fix>3d</fix>
</trkpt>
<trkpt lat="33.8103138" lon="-118.3938678">
  <ele>-3.392</ele>
  <time>2026-09-02T22:06:36Z</time>
  <course>186.11</course>
  <speed>0.06403124237432849</speed>
  <fix>3d</fix>
</trkpt>
<trkpt lat="33.810313" lon="-118.393867">
  <ele>-3.32</ele>
  <time>2026-09-02T22:06:36Z</time>
  <course>95.0</course>
  <speed>0.0</speed>
  <fix>3d</fix>
</trkpt>
<trkpt lat="33.8103138" lon="-118.3938678">
  <ele>-3.384</ele>
  <time>2026-09-02T22:06:36Z</time>
  <course>186.11</course>
  <speed>0.07211102550927978</speed>
  <fix>3d</fix>
</trkpt>
<trkpt lat="33.810313" lon="-118.393867">
  <ele>-3.32</ele>
  <time>2026-09-02T22:06:36Z</time>
  <course>95.0</course>
  <speed>0.0</speed>
  <fix>3d</fix>
</trkpt>
<trkpt lat="33.8103139" lon="-118.3938678">
  <ele>-3.377</ele>
  <time>2026-09-02T22:06:36Z</time>
  <course>186.11</course>
  <speed>0.07211102550927978</speed>
  <fix>3d</fix>
</trkpt>
<trkpt lat="33.810313" lon="-118.393867">
  <ele>-3.31</ele>
  <time>2026-09-02T22:06:36Z</time>
  <course>95.0</course>
  <speed>0.0</speed>
  <fix>3d</fix>
</trkpt>
<trkpt lat="33.8103139" lon="-118.3938679">
  <ele>-3.371</ele>
  <time>2026-09-02T22:06:36Z</time>
  <course>186.11</course>
  <speed>0.07810249675906654</speed>
  <fix>3d</fix>
</trkpt>
<trkpt lat="33.810313" lon="-118.393867">
  <ele>-3.31</ele>
  <time>2026-09-02T22:06:36Z</time>
  <course>95.0</course>
  <speed>0.0</speed>
  <fix>3d</fix>
</trkpt>
<trkpt lat="33.810314" lon="-118.3938679">
  <ele>-3.365</ele>
  <time>2026-09-02T22:06:36Z</time>
  <course>186.11</course>
  <speed>0.07810249675906654</speed>
  <fix>3d</fix>
</trkpt>
<trkpt lat="33.810313" lon="-118.393867">
  <ele>-3.29</ele>
  <time>2026-09-02T22:06:36Z</time>
  <course>95.0</course>
  <speed>0.0</speed>
  <fix>3d</fix>
</trkpt>
<trkpt lat="33.810314" lon="-118.393868">
  <ele>-3.359</ele>
  <time>2026-09-02T22:06:36Z</time>
  <course>186.11</course>
  <speed>0.07810249675906654</speed>
  <fix>3d</fix>
</trkpt>
<trkpt lat="33.810313" lon="-118.393867">
  <ele>-3.29</ele>
  <time>2026-09-02T22:06:36Z</time>
  <course>95.0</course>
  <speed>0.0</speed>
  <fix>3d</fix>
</trkpt>
<trkpt lat="33.8103141" lon="-118.3938681">
  <ele>-3.352</ele>
  <time>2026-09-02T22:06:36Z</time>
  <course>186.1</course>
  <speed>0.08602325267042626</speed>
  <fix>3d</fix>
</trkpt>
<trkpt lat="33.810313" lon="-118.393867">
  <ele>-3.28</ele>
  <time>2026-09-02T22:06:36Z</time>
  <course>95.0</course>
  <speed>0.0</speed>
  <fix>3d</fix>
</trkpt>
<trkpt lat="33.8103142" lon="-118.3938681">
  <ele>-3.345</ele>
  <time>2026-09-02T22:06:36Z</time>
  <course>186.1</course>
  <speed>0.08602325267042626</speed>
  <fix>3d</fix>
</trkpt>
<trkpt lat="33.810313" lon="-118.393867">
  <ele>-3.28</ele>
  <time>2026-09-02T22:06:36Z</time>
  <course>95.0</course>
  <speed>0.0</speed>
  <fix>3d</fix>
</trkpt>
<trkpt lat="33.8103142" lon="-118.3938682">
  <ele>-3.337</ele>
  <time>2026-09-02T22:06:36Z</time>
  <course>186.1</course>
  <speed>0.09219544457292887</speed>
  <fix>3d</fix>
</trkpt>
<trkpt lat="33.810313" lon="-118.393867">
  <ele>-3.26</ele>
  <time>2026-09-02T22:06:36Z</time>
  <course>95.0</course>
  <speed>0.0</speed>
  <fix>3d</fix>
</trkpt>
<trkpt lat="33.8103143" lon="-118.3938683">
  <ele>-3.328</ele>
  <time>2026-09-02T22:06:36Z</time>
  <course>186.1</course>
  <speed>0.09219544457292887</speed>
  <fix>3d</fix>
</trkpt>
<trkpt lat="33.810313" lon="-118.393867">
  <ele>-3.26</ele>
  <time>2026-09-02T22:06:36Z</time>
  <course>95.0</course>
  <speed>0.0</speed>
  <fix>3d</fix>
</trkpt>
<trkpt lat="33.8103144" lon="-118.3938683">
  <ele>-3.318</ele>
  <time>2026-09-02T22:06:36Z</time>
  <course>186.1</course>
  <speed>0.1</speed>
  <fix>3d</fix>
</trkpt>
<trkpt lat="33.810313" lon="-118.393867">
  <ele>-3.25</ele>
  <time>2026-09-02T22:06:36Z</time>
  <course>95.0</course>
  <speed>0.0</speed>
  <fix>3d</fix>
</trkpt>
<trkpt lat="33.8103144" lon="-118.3938684">
  <ele>-3.307</ele>
  <time>2026-09-02T22:06:36Z</time>
  <course>186.1</course>
  <speed>0.1</speed>
  <fix>3d</fix>
</trkpt>
<trkpt lat="33.810313" lon="-118.393867">
  <ele>-3.25</ele>
  <time>2026-09-02T22:06:36Z</time>
  <course>95.0</course>
  <speed>0.0</speed>
  <fix>3d</fix>
</trkpt>
<trkpt lat="33.8103145" lon="-118.3938684">
  <ele>-3.297</ele>
  <time>2026-09-02T22:06:36Z</time>
  <course>186.1</course>
  <speed>0.1</speed>
  <fix>3d</fix>
</trkpt>
<trkpt lat="33.810313" lon="-118.393867">
  <ele>-3.23</ele>
  <time>2026-09-02T22:06:36Z</time>
  <course>95.0</course>
  <speed>0.0</speed>
  <fix>3d</fix>
</trkpt>
<trkpt lat="33.8103145" lon="-118.3938685">
  <ele>-3.285</ele>
  <time>2026-09-02T22:06:36Z</time>
  <course>186.1</course>
  <speed>0.1</speed>
  <fix>3d</fix>
</trkpt>
<trkpt lat="33.810313" lon="-118.393867">
  <ele>-3.23</ele>
  <time>2026-09-02T22:06:36Z</time>
  <course>95.0</course>
  <speed>0.0</speed>
  <fix>3d</fix>
</trkpt>
<trkpt lat="33.8103146" lon="-118.3938685">
  <ele>-3.274</ele>
  <time>2026-09-02T22:06:36Z</time>
  <course>186.09</course>
  <speed>0.1063014581273465</speed>
  <fix>3d</fix>
</trkpt>
<trkpt lat="33.810313" lon="-118.393867">
  <ele>-3.22</ele>
  <time>2026-09-02T22:06:36Z</time>
  <course>95.0</course>
  <speed>0.0</speed>
  <fix>3d</fix>
</trkpt>
<trkpt lat="33.8103146" lon="-118.3938686">
  <ele>-3.263</ele>
  <time>2026-09-02T22:06:36Z</time>
  <course>186.09</course>
  <speed>0.1063014581273465</speed>
  <fix>3d</fix>
</trkpt>
<trkpt lat="33.810313" lon="-118.393867">
  <ele>-3.22</ele>
  <time>2026-09-02T22:06:36Z</time>
  <course>95.0</course>
  <speed>0.0</speed>
  <fix>3d</fix>
</trkpt>
<trkpt lat="33.8103147" lon="-118.3938686">
  <ele>-3.253</ele>
  <time>2026-09-02T22:06:36Z</time>
  <course>186.09</course>
  <speed>0.11401754250991379</speed>
  <fix>3d</fix>
</trkpt>
<trkpt lat="33.810313" lon="-118.393867">
  <ele>-3.2</ele>
  <time>2026-09-02T22:06:36Z</time>
  <course>95.0</course>
  <speed>0.0</speed>
  <fix>3d</fix>
</trkpt>
<trkpt lat="33.8103148" lon="-118.3938687">
  <ele>-3.242</ele>
  <time>2026-09-02T22:06:36Z</time>
  <course>186.09</course>
  <speed>0.11401754250991379</speed>
  <fix>3d</fix>
</trkpt>
<trkpt lat="33.810313" lon="-118.393867">
  <ele>-3.2</ele>
  <time>2026-09-02T22:06:36Z</time>
  <course>95.0</course>
  <speed>0.0</speed>
  <fix>3d</fix>
</trkpt>
<trkpt lat="33.8103149" lon="-118.3938688">
  <ele>-3.232</ele>
  <time>2026-09-02T22:06:36Z</time>
  <course>186.09</course>
  <speed>0.11401754250991379</speed>
  <fix>3d</fix>
</trkpt>
<trkpt lat="33.810313" lon="-118.393867">
  <ele>-3.18</ele>
  <time>2026-09-02T22:06:36Z</time>
  <course>95.0</course>
  <speed>0.0</speed>
  <fix>3d</fix>
</trkpt>
<trkpt lat="33.810315" lon="-118.3938689">
  <ele>-3.222</ele>
  <time>2026-09-02T22:06:36Z</time>
  <course>186.09</course>
  <speed>0.12806248474865697</speed>
  <fix>3d</fix>
</trkpt>
<trkpt lat="33.810313" lon="-118.393867">
  <ele>-3.18</ele>
  <time>2026-09-02T22:06:36Z</time>
  <course>95.0</course>
  <speed>0.0</speed>
  <fix>3d</fix>
</trkpt>
<trkpt lat="33.8103151" lon="-118.393869">
  <ele>-3.212</ele>
  <time>2026-09-02T22:06:36Z</time>
  <course>186.09</course>
  <speed>0.12806248474865697</speed>
  <fix>3d</fix>
</trkpt>
<trkpt lat="33.810313" lon="-118.393867">
  <ele>-3.16</ele>
  <time>2026-09-02T22:06:36Z</time>
  <course>95.0</course>
  <speed>0.0</speed>
  <fix>3d</fix>
</trkpt>
<trkpt lat="33.8103151" lon="-118.3938691">
  <ele>-3.203</ele>
  <time>2026-09-02T22:06:36Z</time>
  <course>186.09</course>
  <speed>0.12806248474865697</speed>
  <fix>3d</fix>
</trkpt>
<trkpt lat="33.810313" lon="-118.393867">
  <ele>-3.16</ele>
  <time>2026-09-02T22:06:36Z</time>
  <course>95.0</course>
  <speed>0.0</speed>
  <fix>3d</fix>
</trkpt>
<trkpt lat="33.8103152" lon="-118.3938691">
  <ele>-3.193</ele>
  <time>2026-09-02T22:06:36Z</time>
  <course>186.08</course>
  <speed>0.12806248474865697</speed>
  <fix>3d</fix>
</trkpt>
<trkpt lat="33.810313" lon="-118.393867">
  <ele>-3.14</ele>
  <time>2026-09-02T22:06:36Z</time>
  <course>95.0</course>
  <speed>0.0</speed>
  <fix>3d</fix>
</trkpt>
<trkpt lat="33.8103152" lon="-118.3938691">
  <ele>-3.185</ele>
  <time>2026-09-02T22:06:36Z</time>
  <course>186.08</course>
  <speed>0.12806248474865697</speed>
  <fix>3d</fix>
</trkpt>
<trkpt lat="33.810313" lon="-118.393867">
  <ele>-3.14</ele>
  <time>2026-09-02T22:06:36Z</time>
  <course>95.0</course>
  <speed>0.0</speed>
  <fix>3d</fix>
</trkpt>
<trkpt lat="33.8103152" lon="-118.3938691">
  <ele>-3.178</ele>
  <time>2026-09-02T22:06:36Z</time>
  <course>186.08</course>
  <speed>0.12806248474865697</speed>
  <fix>3d</fix>
</trkpt>
<trkpt lat="33.810313" lon="-118.393867">
  <ele>-3.13</ele>
  <time>2026-09-02T22:06:36Z</time>
  <course>95.0</course>
  <speed>0.0</speed>
  <fix>3d</fix>
</trkpt>
<trkpt lat="33.8103153" lon="-118.3938692">
  <ele>-3.169</ele>
  <time>2026-09-02T22:06:36Z</time>
  <course>186.08</course>
  <speed>0.12806248474865697</speed>
  <fix>3d</fix>
</trkpt>
<trkpt lat="33.810313" lon="-118.393867">
  <ele>-3.13</ele>
  <time>2026-09-02T22:06:36Z</time>
  <course>95.0</course>
  <speed>0.0</speed>
  <fix>3d</fix>
</trkpt>
<trkpt lat="33.8103154" lon="-118.3938693">
  <ele>-3.16</ele>
  <time>2026-09-02T22:06:36Z</time>
  <course>186.08</course>
  <speed>0.13601470508735444</speed>
  <fix>3d</fix>
</trkpt>
<trkpt lat="33.810313" lon="-118.393867">
  <ele>-3.11</ele>
  <time>2026-09-02T22:06:36Z</time>
  <course>95.0</course>
  <speed>0.0</speed>
  <fix>3d</fix>
</trkpt>
<trkpt lat="33.8103154" lon="-118.3938693">
  <ele>-3.151</ele>
  <time>2026-09-02T22:06:36Z</time>
  <course>186.08</course>
  <speed>0.14212670403551894</speed>
  <fix>3d</fix>
</trkpt>
<trkpt lat="33.810313" lon="-118.393867">
  <ele>-3.11</ele>
  <time>2026-09-02T22:06:36Z</time>
  <course>95.0</course>
  <speed>0.0</speed>
  <fix>3d</fix>
</trkpt>
<trkpt lat="33.8103155" lon="-118.3938694">
  <ele>-3.142</ele>
  <time>2026-09-02T22:06:36Z</time>
  <course>186.08</course>
  <speed>0.14212670403551894</speed>
  <fix>3d</fix>
</trkpt>
<trkpt lat="33.810313" lon="-118.393867">
  <ele>-3.09</ele>
  <time>2026-09-02T22:06:36Z</time>
  <course>95.0</course>
  <speed>0.0</speed>
  <fix>3d</fix>
</trkpt>
<trkpt lat="33.8103156" lon="-118.3938695">
  <ele>-3.134</ele>
  <time>2026-09-02T22:06:36Z</time>
  <course>186.08</course>
  <speed>0.14212670403551894</speed>
  <fix>3d</fix>
</trkpt>
<trkpt lat="33.810313" lon="-118.393867">
  <ele>-3.09</ele>
  <time>2026-09-02T22:06:36Z</time>
  <course>95.0</course>
  <speed>0.0</speed>
  <fix>3d</fix>
</trkpt>
<trkpt lat="33.8103157" lon="-118.3938696">
  <ele>-3.126</ele>
  <time>2026-09-02T22:06:36Z</time>
  <course>186.07</course>
  <speed>0.15</speed>
  <fix>3d</fix>
</trkpt>
<trkpt lat="33.810313" lon="-118.393867">
  <ele>-3.07</ele>
  <time>2026-09-02T22:06:36Z</time>
  <course>95.0</course>
  <speed>0.0</speed>
  <fix>3d</fix>
</trkpt>
<trkpt lat="33.8103158" lon="-118.3938697">
  <ele>-3.118</ele>
  <time>2026-09-02T22:06:36Z</time>
  <course>186.07</course>
  <speed>0.15620499351813308</speed>
  <fix>3d</fix>
</trkpt>
<trkpt lat="33.810313" lon="-118.393867">
  <ele>-3.07</ele>
  <time>2026-09-02T22:06:36Z</time>
  <course>95.0</course>
  <speed>0.0</speed>
  <fix>3d</fix>
</trkpt>
<trkpt lat="33.8103158" lon="-118.3938697">
  <ele>-3.11</ele>
  <time>2026-09-02T22:06:36Z</time>
  <course>186.07</course>
  <speed>0.15620499351813308</speed>
  <fix>3d</fix>
</trkpt>
<trkpt lat="33.810313" lon="-118.393867">
  <ele>-3.05</ele>
  <time>2026-09-02T22:06:36Z</time>
  <course>95.0</course>
  <speed>0.0</speed>
  <fix>3d</fix>
</trkpt>
<trkpt lat="33.8103158" lon="-118.3938697">
  <ele>-3.103</ele>
  <time>2026-09-02T22:06:36Z</time>
  <course>186.07</course>
  <speed>0.15</speed>
  <fix>3d</fix>
</trkpt>
<trkpt lat="33.810313" lon="-118.393867">
  <ele>-3.05</ele>
  <time>2026-09-02T22:06:36Z</time>
  <course>95.0</course>
  <speed>0.0</speed>
  <fix>3d</fix>
</trkpt>
<trkpt lat="33.8103158" lon="-118.3938697">
  <ele>-3.096</ele>
  <time>2026-09-02T22:06:36Z</time>
  <course>186.07</course>
  <speed>0.15</speed>
  <fix>3d</fix>
</trkpt>
<trkpt lat="33.810313" lon="-118.393867">
  <ele>-3.03</ele>
  <time>2026-09-02T22:06:36Z</time>
  <course>95.0</course>
  <speed>0.0</speed>
  <fix>3d</fix>
</trkpt>
<trkpt lat="33.8103159" lon="-118.3938698">
  <ele>-3.089</ele>
  <time>2026-09-02T22:06:36Z</time>
  <course>186.07</course>
  <speed>0.15620499351813308</speed>
  <fix>3d</fix>
</trkpt>
<trkpt lat="33.810313" lon="-118.393867">
  <ele>-3.03</ele>
  <time>2026-09-02T22:06:36Z</time>
  <course>95.0</course>
  <speed>0.0</speed>
  <fix>3d</fix>
</trkpt>
<trkpt lat="33.8103159" lon="-118.3938698">
  <ele>-3.08</ele>
  <time>2026-09-02T22:06:36Z</time>
  <course>186.07</course>
  <speed>0.15620499351813308</speed>
  <fix>3d</fix>
</trkpt>
<trkpt lat="33.810313" lon="-118.393867">
  <ele>-3.01</ele>
  <time>2026-09-02T22:06:36Z</time>
  <course>95.0</course>
  <speed>0.0</speed>
  <fix>3d</fix>
</trkpt>
<trkpt lat="33.810316" lon="-118.3938699">
  <ele>-3.071</ele>
  <time>2026-09-02T22:06:36Z</time>
  <course>186.06</course>
  <speed>0.15620499351813308</speed>
  <fix>3d</fix>
</trkpt>
<trkpt lat="33.810313" lon="-118.393867">
  <ele>-3.01</ele>
  <time>2026-09-02T22:06:36Z</time>
  <course>95.0</course>
  <speed>0.0</speed>
  <fix>3d</fix>
</trkpt>
<trkpt lat="33.8103161" lon="-118.39387">
  <ele>-3.062</ele>
  <time>2026-09-02T22:06:36Z</time>
  <course>186.06</course>
  <speed>0.16401219466856726</speed>
  <fix>3d</fix>
</trkpt>
<trkpt lat="33.810313" lon="-118.393867">
  <ele>-2.99</ele>
  <time>2026-09-02T22:06:36Z</time>
  <course>95.0</course>
  <speed>0.0</speed>
  <fix>3d</fix>
</trkpt>
<trkpt lat="33.8103162" lon="-118.3938701">
  <ele>-3.051</ele>
  <time>2026-09-02T22:06:36Z</time>
  <course>186.06</course>
  <speed>0.16401219466856726</speed>
  <fix>3d</fix>
</trkpt>
<trkpt lat="33.810313" lon="-118.393867">
  <ele>-2.99</ele>
  <time>2026-09-02T22:06:36Z</time>
  <course>95.0</course>
  <speed>0.0</speed>
  <fix>3d</fix>
</trkpt>
<trkpt lat="33.8103163" lon="-118.3938702">
  <ele>-3.04</ele>
  <time>2026-09-02T22:06:36Z</time>
  <course>186.06</course>
  <speed>0.17029386365926402</speed>
  <fix>3d</fix>
</trkpt>
<trkpt lat="33.810313" lon="-118.393867">
  <ele>-2.98</ele>
  <time>2026-09-02T22:06:36Z</time>
  <course>95.0</course>
  <speed>0.0</speed>
  <fix>3d</fix>
</trkpt>
<trkpt lat="33.8103165" lon="-118.3938703">
  <ele>-3.03</ele>
  <time>2026-09-02T22:06:36Z</time>
  <course>186.06</course>
  <speed>0.17804493814764857</speed>
  <fix>3d</fix>
</trkpt>
<trkpt lat="33.810313" lon="-118.393867">
  <ele>-2.98</ele>
  <time>2026-09-02T22:06:36Z</time>
  <course>95.0</course>
  <speed>0.0</speed>
  <fix>3d</fix>
</trkpt>
<trkpt lat="33.8103164" lon="-118.3938703">
  <ele>-3.02</ele>
  <time>2026-09-02T22:06:36Z</time>
  <course>186.06</course>
  <speed>0.17029386365926402</speed>
  <fix>3d</fix>
</trkpt>
<trkpt lat="33.810313" lon="-118.393867">
  <ele>-2.96</ele>
  <time>2026-09-02T22:06:36Z</time>
  <course>95.0</course>
  <speed>0.0</speed>
  <fix>3d</fix>
</trkpt>
<trkpt lat="33.8103163" lon="-118.3938702">
  <ele>-3.008</ele>
  <time>2026-09-02T22:06:36Z</time>
  <course>186.06</course>
  <speed>0.17029386365926402</speed>
  <fix>3d</fix>
</trkpt>
<trkpt lat="33.810313" lon="-118.393867">
  <ele>-2.96</ele>
  <time>2026-09-02T22:06:36Z</time>
  <course>95.0</course>
  <speed>0.0</speed>
  <fix>3d</fix>
</trkpt>
<trkpt lat="33.8103163" lon="-118.3938702">
  <ele>-2.997</ele>
  <time>2026-09-02T22:06:36Z</time>
  <course>186.05</course>
  <speed>0.16401219466856726</speed>
  <fix>3d</fix>
</trkpt>
<trkpt lat="33.810313" lon="-118.393867">
  <ele>-2.94</ele>
  <time>2026-09-02T22:06:36Z</time>
  <course>95.0</course>
  <speed>0.0</speed>
  <fix>3d</fix>
</trkpt>
<trkpt lat="33.8103163" lon="-118.3938702">
  <ele>-2.987</ele>
  <time>2026-09-02T22:06:36Z</time>
  <course>186.05</course>
  <speed>0.16401219466856726</speed>
  <fix>3d</fix>
</trkpt>
<trkpt lat="33.810313" lon="-118.393867">
  <ele>-2.94</ele>
  <time>2026-09-02T22:06:36Z</time>
  <course>95.0</course>
  <speed>0.0</speed>
  <fix>3d</fix>
</trkpt>
<trkpt lat="33.8103164" lon="-118.3938703">
  <ele>-2.976</ele>
  <time>2026-09-02T22:06:36Z</time>
  <course>186.05</course>
  <speed>0.17029386365926402</speed>
  <fix>3d</fix>
</trkpt>
<trkpt lat="33.810313" lon="-118.393867">
  <ele>-2.92</ele>
  <time>2026-09-02T22:06:36Z</time>
  <course>95.0</course>
  <speed>0.0</speed>
  <fix>3d</fix>
</trkpt>
<trkpt lat="33.8103165" lon="-118.3938704">
  <ele>-2.966</ele>
  <time>2026-09-02T22:06:36Z</time>
  <course>186.05</course>
  <speed>0.17029386365926402</speed>
  <fix>3d</fix>
</trkpt>
<trkpt lat="33.810313" lon="-118.393867">
  <ele>-2.92</ele>
  <time>2026-09-02T22:06:36Z</time>
  <course>95.0</course>
  <speed>0.0</speed>
  <fix>3d</fix>
</trkpt>
<trkpt lat="33.8103166" lon="-118.3938704">
  <ele>-2.955</ele>
  <time>2026-09-02T22:06:36Z</time>
  <course>186.05</course>
  <speed>0.17804493814764857</speed>
  <fix>3d</fix>
</trkpt>
<trkpt lat="33.810313" lon="-118.393867">
  <ele>-2.9</ele>
  <time>2026-09-02T22:06:36Z</time>
  <course>95.0</course>
  <speed>0.0</speed>
  <fix>3d</fix>
</trkpt>
<trkpt lat="33.8103167" lon="-118.3938706">
  <ele>-2.945</ele>
  <time>2026-09-02T22:06:36Z</time>
  <course>186.05</course>
  <speed>0.17804493814764857</speed>
  <fix>3d</fix>
</trkpt>
<trkpt lat="33.810313" lon="-118.393867">
  <ele>-2.9</ele>
  <time>2026-09-02T22:06:36Z</time>
  <course>95.0</course>
  <speed>0.0</speed>
  <fix>3d</fix>
</trkpt>
<trkpt lat="33.8103168" lon="-118.3938707">
  <ele>-2.935</ele>
  <time>2026-09-02T22:06:36Z</time>
  <course>186.05</course>
  <speed>0.17804493814764857</speed>
  <fix>3d</fix>
</trkpt>
<trkpt lat="33.810313" lon="-118.393867">
  <ele>-2.88</ele>
  <time>2026-09-02T22:06:36Z</time>
  <course>95.0</course>
  <speed>0.0</speed>
  <fix>3d</fix>
</trkpt>
<trkpt lat="33.8103169" lon="-118.3938708">
  <ele>-2.926</ele>
  <time>2026-09-02T22:06:36Z</time>
  <course>186.05</course>
  <speed>0.19209372712298545</speed>
  <fix>3d</fix>
</trkpt>
<trkpt lat="33.810313" lon="-118.393867">
  <ele>-2.88</ele>
  <time>2026-09-02T22:06:36Z</time>
  <course>95.0</course>
  <speed>0.0</speed>
  <fix>3d</fix>
</trkpt>
<trkpt lat="33.8103168" lon="-118.3938707">
  <ele>-2.916</ele>
  <time>2026-09-02T22:06:36Z</time>
  <course>186.04</course>
  <speed>0.18439088914585774</speed>
  <fix>3d</fix>
</trkpt>
<trkpt lat="33.810313" lon="-118.393867">
  <ele>-2.86</ele>
  <time>2026-09-02T22:06:36Z</time>
  <course>95.0</course>
  <speed>0.0</speed>
  <fix>3d</fix>
</trkpt>
<trkpt lat="33.8103167" lon="-118.3938706">
  <ele>-2.906</ele>
  <time>2026-09-02T22:06:36Z</time>
  <course>186.04</course>
  <speed>0.17804493814764857</speed>
  <fix>3d</fix>
</trkpt>
<trkpt lat="33.810313" lon="-118.393867">
  <ele>-2.86</ele>
  <time>2026-09-02T22:06:36Z</time>
  <course>95.0</course>
  <speed>0.0</speed>
  <fix>3d</fix>
</trkpt>
<trkpt lat="33.8103166" lon="-118.3938705">
  <ele>-2.896</ele>
  <time>2026-09-02T22:06:36Z</time>
  <course>186.04</course>
  <speed>0.17804493814764857</speed>
  <fix>3d</fix>
</trkpt>
<trkpt lat="33.810313" lon="-118.393867">
  <ele>-2.84</ele>
  <time>2026-09-02T22:06:36Z</time>
  <course>95.0</course>
  <speed>0.0</speed>
  <fix>3d</fix>
</trkpt>
<trkpt lat="33.8103166" lon="-118.3938705">
  <ele>-2.887</ele>
  <time>2026-09-02T22:06:36Z</time>
  <course>186.04</course>
  <speed>0.17804493814764857</speed>
  <fix>3d</fix>
</trkpt>
<trkpt lat="33.810313" lon="-118.393867">
  <ele>-2.84</ele>
  <time>2026-09-02T22:06:36Z</time>
  <course>95.0</course>
  <speed>0.0</speed>
  <fix>3d</fix>
</trkpt>
<trkpt lat="33.8103167" lon="-118.3938706">
  <ele>-2.877</ele>
  <time>2026-09-02T22:06:36Z</time>
  <course>186.04</course>
  <speed>0.17804493814764857</speed>
  <fix>3d</fix>
</trkpt>
<trkpt lat="33.810313" lon="-118.393867">
  <ele>-2.82</ele>
  <time>2026-09-02T22:06:36Z</time>
  <course>95.0</course>
  <speed>0.0</speed>
  <fix>3d</fix>
</trkpt>
<trkpt lat="33.8103168" lon="-118.3938706">
  <ele>-2.868</ele>
  <time>2026-09-02T22:06:36Z</time>
  <course>186.04</course>
  <speed>0.17804493814764857</speed>
  <fix>3d</fix>
</trkpt>
<trkpt lat="33.810313" lon="-118.393867">
  <ele>-2.82</ele>
  <time>2026-09-02T22:06:36Z</time>
  <course>95.0</course>
  <speed>0.0</speed>
  <fix>3d</fix>
</trkpt>
<trkpt lat="33.8103168" lon="-118.3938707">
  <ele>-2.86</ele>
  <time>2026-09-02T22:06:36Z</time>
  <course>186.04</course>
  <speed>0.18439088914585774</speed>
  <fix>3d</fix>
</trkpt>
<trkpt lat="33.810313" lon="-118.393867">
  <ele>-2.8</ele>
  <time>2026-09-02T22:06:36Z</time>
  <course>95.0</course>
  <speed>0.0</speed>
  <fix>3d</fix>
</trkpt>
<trkpt lat="33.810317" lon="-118.3938708">
  <ele>-2.851</ele>
  <time>2026-09-02T22:06:36Z</time>
  <course>186.03</course>
  <speed>0.19209372712298545</speed>
  <fix>3d</fix>
</trkpt>
<trkpt lat="33.810313" lon="-118.393867">
  <ele>-2.8</ele>
  <time>2026-09-02T22:06:36Z</time>
  <course>95.0</course>
  <speed>0.0</speed>
  <fix>3d</fix>
</trkpt>
<trkpt lat="33.8103171" lon="-118.393871">
  <ele>-2.842</ele>
  <time>2026-09-02T22:06:36Z</time>
  <course>186.03</course>
  <speed>0.19209372712298545</speed>
  <fix>3d</fix>
</trkpt>
<trkpt lat="33.810313" lon="-118.393867">
  <ele>-2.79</ele>
  <time>2026-09-02T22:06:36Z</time>
  <course>95.0</course>
  <speed>0.0</speed>
  <fix>3d</fix>
</trkpt>
<trkpt lat="33.8103172" lon="-118.3938711">
  <ele>-2.831</ele>
  <time>2026-09-02T22:06:36Z</time>
  <course>186.03</course>
  <speed>0.19209372712298545</speed>
  <fix>3d</fix>
</trkpt>
<trkpt lat="33.810313" lon="-118.393867">
  <ele>-2.79</ele>
  <time>2026-09-02T22:06:36Z</time>
  <course>95.0</course>
  <speed>0.0</speed>
  <fix>3d</fix>
</trkpt>
<trkpt lat="33.8103171" lon="-118.393871">
  <ele>-2.821</ele>
  <time>2026-09-02T22:06:36Z</time>
  <course>186.03</course>
  <speed>0.19209372712298545</speed>
  <fix>3d</fix>
</trkpt>
<trkpt lat="33.810313" lon="-118.393867">
  <ele>-2.77</ele>
  <time>2026-09-02T22:06:36Z</time>
  <course>95.0</course>
  <speed>0.0</speed>
  <fix>3d</fix>
</trkpt>
<trkpt lat="33.8103169" lon="-118.3938708">
  <ele>-2.81</ele>
  <time>2026-09-02T22:06:36Z</time>
  <course>186.03</course>
  <speed>0.18439088914585774</speed>
  <fix>3d</fix>
</trkpt>
<trkpt lat="33.810313" lon="-118.393867">
  <ele>-2.77</ele>
  <time>2026-09-02T22:06:36Z</time>
  <course>95.0</course>
  <speed>0.0</speed>
  <fix>3d</fix>
</trkpt>
<trkpt lat="33.8103168" lon="-118.3938707">
  <ele>-2.8</ele>
  <time>2026-09-02T22:06:36Z</time>
  <course>186.03</course>
  <speed>0.17804493814764857</speed>
  <fix>3d</fix>
</trkpt>
<trkpt lat="33.810313" lon="-118.393867">
  <ele>-2.75</ele>
  <time>2026-09-02T22:06:36Z</time>
  <course>95.0</course>
  <speed>0.0</speed>
  <fix>3d</fix>
</trkpt>
<trkpt lat="33.8103168" lon="-118.3938707">
  <ele>-2.79</ele>
  <time>2026-09-02T22:06:36Z</time>
  <course>186.03</course>
  <speed>0.17804493814764857</speed>
  <fix>3d</fix>
</trkpt>
<trkpt lat="33.810313" lon="-118.393867">
  <ele>-2.75</ele>
  <time>2026-09-02T22:06:36Z</time>
  <course>95.0</course>
  <speed>0.0</speed>
  <fix>3d</fix>
</trkpt>
<trkpt lat="33.8103168" lon="-118.3938707">
  <ele>-2.781</ele>
  <time>2026-09-02T22:06:36Z</time>
  <course>186.02</course>
  <speed>0.17804493814764857</speed>
  <fix>3d</fix>
</trkpt>
<trkpt lat="33.810313" lon="-118.393867">
  <ele>-2.73</ele>
  <time>2026-09-02T22:06:36Z</time>
  <course>95.0</course>
  <speed>0.0</speed>
  <fix>3d</fix>
</trkpt>
<trkpt lat="33.8103169" lon="-118.3938708">
  <ele>-2.772</ele>
  <time>2026-09-02T22:06:36Z</time>
  <course>186.02</course>
  <speed>0.18439088914585774</speed>
  <fix>3d</fix>
</trkpt>
<trkpt lat="33.810313" lon="-118.393867">
  <ele>-2.73</ele>
  <time>2026-09-02T22:06:36Z</time>
  <course>95.0</course>
  <speed>0.0</speed>
  <fix>3d</fix>
</trkpt>
<trkpt lat="33.810317" lon="-118.3938708">
  <ele>-2.763</ele>
  <time>2026-09-02T22:06:36Z</time>
  <course>186.02</course>
  <speed>0.19209372712298545</speed>
  <fix>3d</fix>
</trkpt>
<trkpt lat="33.810313" lon="-118.393867">
  <ele>-2.71</ele>
  <time>2026-09-02T22:06:36Z</time>
  <course>95.0</course>
  <speed>0.0</speed>
  <fix>3d</fix>
</trkpt>
<trkpt lat="33.8103171" lon="-118.3938709">
  <ele>-2.754</ele>
  <time>2026-09-02T22:06:36Z</time>
  <course>186.02</course>
  <speed>0.19209372712298545</speed>
  <fix>3d</fix>
</trkpt>
<trkpt lat="33.810313" lon="-118.393867">
  <ele>-2.71</ele>
  <time>2026-09-02T22:06:36Z</time>
  <course>95.0</course>
  <speed>0.0</speed>
  <fix>3d</fix>
</trkpt>
<trkpt lat="33.8103172" lon="-118.3938711">
  <ele>-2.744</ele>
  <time>2026-09-02T22:06:36Z</time>
  <course>186.02</course>
  <speed>0.19209372712298545</speed>
  <fix>3d</fix>
</trkpt>
<trkpt lat="33.810313" lon="-118.393867">
  <ele>-2.69</ele>
  <time>2026-09-02T22:06:36Z</time>
  <course>95.0</course>
  <speed>0.0</speed>
  <fix>3d</fix>
</trkpt>
<trkpt lat="33.8103173" lon="-118.3938712">
  <ele>-2.734</ele>
  <time>2026-09-02T22:06:36Z</time>
  <course>186.02</course>
  <speed>0.20615528128088303</speed>
  <fix>3d</fix>
</trkpt>
<trkpt lat="33.810313" lon="-118.393867">
  <ele>-2.69</ele>
  <time>2026-09-02T22:06:36Z</time>
  <course>95.0</course>
  <speed>0.0</speed>
  <fix>3d</fix>
</trkpt>
<trkpt lat="33.8103172" lon="-118.393871">
  <ele>-2.725</ele>
  <time>2026-09-02T22:06:36Z</time>
  <course>186.02</course>
  <speed>0.19209372712298545</speed>
  <fix>3d</fix>
</trkpt>
<trkpt lat="33.810313" lon="-118.393867">
  <ele>-2.67</ele>
  <time>2026-09-02T22:06:36Z</time>
  <course>95.0</course>
  <speed>0.0</speed>
  <fix>3d</fix>
</trkpt>
<trkpt lat="33.8103169" lon="-118.3938708">
  <ele>-2.716</ele>
  <time>2026-09-02T22:06:36Z</time>
  <course>186.01</course>
  <speed>0.19209372712298545</speed>
  <fix>3d</fix>
</trkpt>
<trkpt lat="33.810313" lon="-118.393867">
  <ele>-2.67</ele>
  <time>2026-09-02T22:06:36Z</time>
  <course>95.0</course>
  <speed>0.0</speed>
  <fix>3d</fix>
</trkpt>
<trkpt lat="33.8103168" lon="-118.3938707">
  <ele>-2.707</ele>
  <time>2026-09-02T22:06:36Z</time>
  <course>186.01</course>
  <speed>0.18439088914585774</speed>
  <fix>3d</fix>
</trkpt>
<trkpt lat="33.810313" lon="-118.393867">
  <ele>-2.65</ele>
  <time>2026-09-02T22:06:36Z</time>
  <course>95.0</course>
  <speed>0.0</speed>
  <fix>3d</fix>
</trkpt>
<trkpt lat="33.8103168" lon="-118.3938707">
  <ele>-2.697</ele>
  <time>2026-09-02T22:06:36Z</time>
  <course>186.01</course>
  <speed>0.18439088914585774</speed>
  <fix>3d</fix>
</trkpt>
<trkpt lat="33.810313" lon="-118.393867">
  <ele>-2.65</ele>
  <time>2026-09-02T22:06:36Z</time>
  <course>95.0</course>
  <speed>0.0</speed>
  <fix>3d</fix>
</trkpt>
<trkpt lat="33.8103168" lon="-118.3938707">
  <ele>-2.687</ele>
  <time>2026-09-02T22:06:36Z</time>
  <course>186.01</course>
  <speed>0.18439088914585774</speed>
  <fix>3d</fix>
</trkpt>
<trkpt lat="33.810313" lon="-118.393867">
  <ele>-2.63</ele>
  <time>2026-09-02T22:06:36Z</time>
  <course>95.0</course>
  <speed>0.0</speed>
  <fix>3d</fix>
</trkpt>
<trkpt lat="33.8103168" lon="-118.3938707">
  <ele>-2.678</ele>
  <time>2026-09-02T22:06:36Z</time>
  <course>186.01</course>
  <speed>0.19209372712298545</speed>
  <fix>3d</fix>
</trkpt>
<trkpt lat="33.810313" lon="-118.393867">
  <ele>-2.63</ele>
  <time>2026-09-02T22:06:36Z</time>
  <course>95.0</course>
  <speed>0.0</speed>
  <fix>3d</fix>
</trkpt>
<trkpt lat="33.8103169" lon="-118.3938708">
  <ele>-2.669</ele>
  <time>2026-09-02T22:06:36Z</time>
  <course>186.01</course>
  <speed>0.19209372712298545</speed>
  <fix>3d</fix>
</trkpt>
<trkpt lat="33.810313" lon="-118.393867">
  <ele>-2.61</ele>
  <time>2026-09-02T22:06:36Z</time>
  <course>95.0</course>
  <speed>0.0</speed>
  <fix>3d</fix>
</trkpt>
<trkpt lat="33.810317" lon="-118.3938709">
  <ele>-2.661</ele>
  <time>2026-09-02T22:06:36Z</time>
  <course>186.01</course>
  <speed>0.19209372712298545</speed>
  <fix>3d</fix>
</trkpt>
<trkpt lat="33.810313" lon="-118.393867">
  <ele>-2.61</ele>
  <time>2026-09-02T22:06:36Z</time>
  <course>95.0</course>
  <speed>0.0</speed>
  <fix>3d</fix>
</trkpt>
<trkpt lat="33.8103171" lon="-118.393871">
  <ele>-2.651</ele>
  <time>2026-09-02T22:06:36Z</time>
  <course>186.01</course>
  <speed>0.19209372712298545</speed>
  <fix>3d</fix>
</trkpt>
<trkpt lat="33.810313" lon="-118.393867">
  <ele>-2.59</ele>
  <time>2026-09-02T22:06:36Z</time>
  <course>95.0</course>
  <speed>0.0</speed>
  <fix>3d</fix>
</trkpt>
<trkpt lat="33.8103173" lon="-118.3938712">
  <ele>-2.642</ele>
  <time>2026-09-02T22:06:36Z</time>
  <course>186.0</course>
  <speed>0.20615528128088303</speed>
  <fix>3d</fix>
</trkpt>
<trkpt lat="33.810313" lon="-118.393867">
  <ele>-2.59</ele>
  <time>2026-09-02T22:06:36Z</time>
  <course>95.0</course>
  <speed>0.0</speed>
  <fix>3d</fix>
</trkpt>
<trkpt lat="33.8103174" lon="-118.3938713">
  <ele>-2.632</ele>
  <time>2026-09-02T22:06:36Z</time>
  <course>186.0</course>
  <speed>0.20615528128088303</speed>
  <fix>3d</fix>
</trkpt>
<trkpt lat="33.810313" lon="-118.393867">
  <ele>-2.58</ele>
  <time>2026-09-02T22:06:36Z</time>
  <course>95.0</course>
  <speed>0.0</speed>
  <fix>3d</fix>
</trkpt>
<trkpt lat="33.8103172" lon="-118.3938711">
  <ele>-2.622</ele>
  <time>2026-09-02T22:06:36Z</time>
  <course>186.0</course>
  <speed>0.20615528128088303</speed>
  <fix>3d</fix>
</trkpt>
<trkpt lat="33.810313" lon="-118.393867">
  <ele>-2.58</ele>
  <time>2026-09-02T22:06:36Z</time>
  <course>95.0</course>
  <speed>0.0</speed>
  <fix>3d</fix>
</trkpt>
<trkpt lat="33.8103169" lon="-118.3938708">
  <ele>-2.612</ele>
  <time>2026-09-02T22:06:36Z</time>
  <course>186.0</course>
  <speed>0.19209372712298545</speed>
  <fix>3d</fix>
</trkpt>
<trkpt lat="33.810313" lon="-118.393867">
  <ele>-2.56</ele>
  <time>2026-09-02T22:06:36Z</time>
  <course>95.0</course>
  <speed>0.0</speed>
  <fix>3d</fix>
</trkpt>
<trkpt lat="33.8103168" lon="-118.3938707">
  <ele>-2.602</ele>
  <time>2026-09-02T22:06:36Z</time>
  <course>186.0</course>
  <speed>0.19209372712298545</speed>
  <fix>3d</fix>
</trkpt>
<trkpt lat="33.810313" lon="-118.393867">
  <ele>-2.56</ele>
  <time>2026-09-02T22:06:36Z</time>
  <course>95.0</course>
  <speed>0.0</speed>
  <fix>3d</fix>
</trkpt>
<trkpt lat="33.8103167" lon="-118.3938706">
  <ele>-2.591</ele>
  <time>2026-09-02T22:06:36Z</time>
  <course>186.0</course>
  <speed>0.19209372712298545</speed>
  <fix>3d</fix>
</trkpt>
<trkpt lat="33.810313" lon="-118.393867">
  <ele>-2.54</ele>
  <time>2026-09-02T22:06:36Z</time>
  <course>95.0</course>
  <speed>0.0</speed>
  <fix>3d</fix>
</trkpt>
<trkpt lat="33.8103167" lon="-118.3938706">
  <ele>-2.58</ele>
  <time>2026-09-02T22:06:36Z</time>
  <course>186.0</course>
  <speed>0.19209372712298545</speed>
  <fix>3d</fix>
</trkpt>
<trkpt lat="33.810313" lon="-118.393867">
  <ele>-2.54</ele>
  <time>2026-09-02T22:06:36Z</time>
  <course>95.0</course>
  <speed>0.0</speed>
  <fix>3d</fix>
</trkpt>
<trkpt lat="33.8103168" lon="-118.3938707">
  <ele>-2.569</ele>
  <time>2026-09-02T22:06:36Z</time>
  <course>185.99</course>
  <speed>0.19209372712298545</speed>
  <fix>3d</fix>
</trkpt>
<trkpt lat="33.810313" lon="-118.393867">
  <ele>-2.52</ele>
  <time>2026-09-02T22:06:36Z</time>
  <course>95.0</course>
  <speed>0.0</speed>
  <fix>3d</fix>
</trkpt>
<trkpt lat="33.8103168" lon="-118.3938707">
  <ele>-2.556</ele>
  <time>2026-09-02T22:06:36Z</time>
  <course>185.99</course>
  <speed>0.19209372712298545</speed>
  <fix>3d</fix>
</trkpt>
<trkpt lat="33.810313" lon="-118.393867">
  <ele>-2.52</ele>
  <time>2026-09-02T22:06:36Z</time>
  <course>95.0</course>
  <speed>0.0</speed>
  <fix>3d</fix>
</trkpt>
<trkpt lat="33.8103169" lon="-118.3938708">
  <ele>-2.543</ele>
  <time>2026-09-02T22:06:36Z</time>
  <course>185.99</course>
  <speed>0.19209372712298545</speed>
  <fix>3d</fix>
</trkpt>
<trkpt lat="33.810313" lon="-118.393867">
  <ele>-2.5</ele>
  <time>2026-09-02T22:06:36Z</time>
  <course>95.0</course>
  <speed>0.0</speed>
  <fix>3d</fix>
</trkpt>
<trkpt lat="33.8103171" lon="-118.393871">
  <ele>-2.531</ele>
  <time>2026-09-02T22:06:36Z</time>
  <course>185.99</course>
  <speed>0.20615528128088303</speed>
  <fix>3d</fix>
</trkpt>
<trkpt lat="33.810313" lon="-118.393867">
  <ele>-2.5</ele>
  <time>2026-09-02T22:06:36Z</time>
  <course>95.0</course>
  <speed>0.0</speed>
  <fix>3d</fix>
</trkpt>
<trkpt lat="33.8103172" lon="-118.3938711">
  <ele>-2.52</ele>
  <time>2026-09-02T22:06:36Z</time>
  <course>185.99</course>
  <speed>0.20615528128088303</speed>
  <fix>3d</fix>
</trkpt>
<trkpt lat="33.810313" lon="-118.3938669">
  <ele>-2.48</ele>
  <time>2026-09-02T22:06:36Z</time>
  <course>95.0</course>
  <speed>0.0</speed>
  <fix>3d</fix>
</trkpt>
<trkpt lat="33.8103174" lon="-118.3938712">
  <ele>-2.509</ele>
  <time>2026-09-02T22:06:36Z</time>
  <course>185.99</course>
  <speed>0.20615528128088303</speed>
  <fix>3d</fix>
</trkpt>
<trkpt lat="33.810313" lon="-118.3938669">
  <ele>-2.48</ele>
  <time>2026-09-02T22:06:36Z</time>
  <course>95.0</course>
  <speed>0.0</speed>
  <fix>3d</fix>
</trkpt>
<trkpt lat="33.8103171" lon="-118.393871">
  <ele>-2.498</ele>
  <time>2026-09-02T22:06:36Z</time>
  <course>185.99</course>
  <speed>0.20615528128088303</speed>
  <fix>3d</fix>
</trkpt>
<trkpt lat="33.810313" lon="-118.3938669">
  <ele>-2.46</ele>
  <time>2026-09-02T22:06:36Z</time>
  <course>95.0</course>
  <speed>0.0</speed>
  <fix>3d</fix>
</trkpt>
<trkpt lat="33.8103168" lon="-118.3938707">
  <ele>-2.489</ele>
  <time>2026-09-02T22:06:36Z</time>
  <course>185.98</course>
  <speed>0.19209372712298545</speed>
  <fix>3d</fix>
</trkpt>
<trkpt lat="33.810313" lon="-118.3938669">
  <ele>-2.46</ele>
  <time>2026-09-02T22:06:36Z</time>
  <course>95.0</course>
  <speed>0.0</speed>
  <fix>3d</fix>
</trkpt>
<trkpt lat="33.8103166" lon="-118.3938705">
  <ele>-2.48</ele>
  <time>2026-09-02T22:06:36Z</time>
  <course>185.98</course>
  <speed>0.19209372712298545</speed>
  <fix>3d</fix>
</trkpt>
<trkpt lat="33.810313" lon="-118.3938669">
  <ele>-2.44</ele>
  <time>2026-09-02T22:06:36Z</time>
  <course>95.0</course>
  <speed>0.0</speed>
  <fix>3d</fix>
</trkpt>
<trkpt lat="33.8103165" lon="-118.3938704">
  <ele>-2.471</ele>
  <time>2026-09-02T22:06:36Z</time>
  <course>185.98</course>
  <speed>0.19209372712298545</speed>
  <fix>3d</fix>
</trkpt>
<trkpt lat="33.810313" lon="-118.3938669">
  <ele>-2.44</ele>
  <time>2026-09-02T22:06:36Z</time>
  <course>95.0</course>
  <speed>0.0</speed>
  <fix>3d</fix>
</trkpt>
<trkpt lat="33.8103165" lon="-118.3938704">
  <ele>-2.462</ele>
  <time>2026-09-02T22:06:36Z</time>
  <course>185.98</course>
  <speed>0.19209372712298545</speed>
  <fix>3d</fix>
</trkpt>
<trkpt lat="33.810313" lon="-118.3938669">
  <ele>-2.42</ele>
  <time>2026-09-02T22:06:36Z</time>
  <course>95.0</course>
  <speed>0.0</speed>
  <fix>3d</fix>
</trkpt>
<trkpt lat="33.8103165" lon="-118.3938704">
  <ele>-2.454</ele>
  <time>2026-09-02T22:06:36Z</time>
  <course>185.98</course>
  <speed>0.19209372712298545</speed>
  <fix>3d</fix>
</trkpt>
<trkpt lat="33.810313" lon="-118.3938669">
  <ele>-2.42</ele>
  <time>2026-09-02T22:06:36Z</time>
  <course>95.0</course>
  <speed>0.0</speed>
  <fix>3d</fix>
</trkpt>
<trkpt lat="33.8103166" lon="-118.3938705">
  <ele>-2.446</ele>
  <time>2026-09-02T22:06:36Z</time>
  <course>185.98</course>
  <speed>0.19209372712298545</speed>
  <fix>3d</fix>
</trkpt>
<trkpt lat="33.810313" lon="-118.3938669">
  <ele>-2.4</ele>
  <time>2026-09-02T22:06:36Z</time>
  <course>95.0</course>
  <speed>0.0</speed>
  <fix>3d</fix>
</trkpt>
<trkpt lat="33.8103167" lon="-118.3938706">
  <ele>-2.437</ele>
  <time>2026-09-02T22:06:36Z</time>
  <course>185.98</course>
  <speed>0.20615528128088303</speed>
  <fix>3d</fix>
</trkpt>
<trkpt lat="33.810313" lon="-118.3938669">
  <ele>-2.4</ele>
  <time>2026-09-02T22:06:36Z</time>
  <course>95.0</course>
  <speed>0.0</speed>
  <fix>3d</fix>
</trkpt>
<trkpt lat="33.8103168" lon="-118.3938707">
  <ele>-2.428</ele>
  <time>2026-09-02T22:06:36Z</time>
  <course>185.97</course>
  <speed>0.20615528128088303</speed>
  <fix>3d</fix>
</trkpt>
<trkpt lat="33.810313" lon="-118.3938669">
  <ele>-2.38</ele>
  <time>2026-09-02T22:06:36Z</time>
  <course>95.0</course>
  <speed>0.0</speed>
  <fix>3d</fix>
</trkpt>
<trkpt lat="33.810317" lon="-118.3938709">
  <ele>-2.418</ele>
  <time>2026-09-02T22:06:36Z</time>
  <course>185.97</course>
  <speed>0.20615528128088303</speed>
  <fix>3d</fix>
</trkpt>
<trkpt lat="33.810313" lon="-118.3938669">
  <ele>-2.38</ele>
  <time>2026-09-02T22:06:36Z</time>
  <course>95.0</course>
  <speed>0.0</speed>
  <fix>3d</fix>
</trkpt>
<trkpt lat="33.8103171" lon="-118.393871">
  <ele>-2.407</ele>
  <time>2026-09-02T22:06:36Z</time>
  <course>185.97</course>
  <speed>0.22022715545545238</speed>
  <fix>3d</fix>
</trkpt>
<trkpt lat="33.810313" lon="-118.3938669">
  <ele>-2.37</ele>
  <time>2026-09-02T22:06:36Z</time>
  <course>95.0</course>
  <speed>0.0</speed>
  <fix>3d</fix>
</trkpt>
<trkpt lat="33.8103169" lon="-118.3938708">
  <ele>-2.396</ele>
  <time>2026-09-02T22:06:36Z</time>
  <course>185.97</course>
  <speed>0.20615528128088303</speed>
  <fix>3d</fix>
</trkpt>
<trkpt lat="33.810313" lon="-118.3938669">
  <ele>-2.37</ele>
  <time>2026-09-02T22:06:36Z</time>
  <course>95.0</course>
  <speed>0.0</speed>
  <fix>3d</fix>
</trkpt>
<trkpt lat="33.8103165" lon="-118.3938704">
  <ele>-2.386</ele>
  <time>2026-09-02T22:06:36Z</time>
  <course>185.97</course>
  <speed>0.20615528128088303</speed>
  <fix>3d</fix>
</trkpt>
<trkpt lat="33.810313" lon="-118.3938669">
  <ele>-2.35</ele>
  <time>2026-09-02T22:06:36Z</time>
  <course>95.0</course>
  <speed>0.0</speed>
  <fix>3d</fix>
</trkpt>
<trkpt lat="33.8103163" lon="-118.3938702">
  <ele>-2.376</ele>
  <time>2026-09-02T22:06:36Z</time>
  <course>185.97</course>
  <speed>0.19209372712298545</speed>
  <fix>3d</fix>
</trkpt>
<trkpt lat="33.810313" lon="-118.3938669">
  <ele>-2.35</ele>
  <time>2026-09-02T22:06:36Z</time>
  <course>95.0</course>
  <speed>0.0</speed>
  <fix>3d</fix>
</trkpt>
<trkpt lat="33.8103162" lon="-118.3938701">
  <ele>-2.365</ele>
  <time>2026-09-02T22:06:36Z</time>
  <course>185.97</course>
  <speed>0.19209372712298545</speed>
  <fix>3d</fix>
</trkpt>
<trkpt lat="33.810313" lon="-118.3938669">
  <ele>-2.33</ele>
  <time>2026-09-02T22:06:36Z</time>
  <course>95.0</course>
  <speed>0.0</speed>
  <fix>3d</fix>
</trkpt>
<trkpt lat="33.8103162" lon="-118.3938701">
  <ele>-2.354</ele>
  <time>2026-09-02T22:06:36Z</time>
  <course>185.96</course>
  <speed>0.19209372712298545</speed>
  <fix>3d</fix>
</trkpt>
<trkpt lat="33.810313" lon="-118.3938669">
  <ele>-2.33</ele>
  <time>2026-09-02T22:06:36Z</time>
  <course>95.0</course>
  <speed>0.0</speed>
  <fix>3d</fix>
</trkpt>
<trkpt lat="33.8103162" lon="-118.3938701">
  <ele>-2.342</ele>
  <time>2026-09-02T22:06:36Z</time>
  <course>185.96</course>
  <speed>0.19209372712298545</speed>
  <fix>3d</fix>
</trkpt>
<trkpt lat="33.810313" lon="-118.3938669">
  <ele>-2.31</ele>
  <time>2026-09-02T22:06:36Z</time>
  <course>95.0</course>
  <speed>0.0</speed>
  <fix>3d</fix>
</trkpt>
<trkpt lat="33.8103163" lon="-118.3938702">
  <ele>-2.33</ele>
  <time>2026-09-02T22:06:36Z</time>
  <course>185.96</course>
  <speed>0.19209372712298545</speed>
  <fix>3d</fix>
</trkpt>
<trkpt lat="33.810313" lon="-118.3938669">
  <ele>-2.31</ele>
  <time>2026-09-02T22:06:36Z</time>
  <course>95.0</course>
  <speed>0.0</speed>
  <fix>3d</fix>
</trkpt>
<trkpt lat="33.8103164" lon="-118.3938703">
  <ele>-2.319</ele>
  <time>2026-09-02T22:06:36Z</time>
  <course>185.96</course>
  <speed>0.20615528128088303</speed>
  <fix>3d</fix>
</trkpt>
<trkpt lat="33.810313" lon="-118.3938669">
  <ele>-2.29</ele>
  <time>2026-09-02T22:06:36Z</time>
  <course>95.0</course>
  <speed>0.0</speed>
  <fix>3d</fix>
</trkpt>
<trkpt lat="33.8103165" lon="-118.3938704">
  <ele>-2.309</ele>
  <time>2026-09-02T22:06:36Z</time>
  <course>185.96</course>
  <speed>0.20615528128088303</speed>
  <fix>3d</fix>
</trkpt>
<trkpt lat="33.810313" lon="-118.3938669">
  <ele>-2.29</ele>
  <time>2026-09-02T22:06:36Z</time>
  <course>95.0</course>
  <speed>0.0</speed>
  <fix>3d</fix>
</trkpt>
<trkpt lat="33.8103166" lon="-118.3938706">
  <ele>-2.298</ele>
  <time>2026-09-02T22:06:36Z</time>
  <course>185.96</course>
  <speed>0.20615528128088303</speed>
  <fix>3d</fix>
</trkpt>
<trkpt lat="33.810313" lon="-118.3938669">
  <ele>-2.27</ele>
  <time>2026-09-02T22:06:36Z</time>
  <course>95.0</course>
  <speed>0.0</speed>
  <fix>3d</fix>
</trkpt>
<trkpt lat="33.8103164" lon="-118.3938703">
  <ele>-2.288</ele>
  <time>2026-09-02T22:06:36Z</time>
  <course>185.96</course>
  <speed>0.20615528128088303</speed>
  <fix>3d</fix>
</trkpt>
<trkpt lat="33.810313" lon="-118.3938669">
  <ele>-2.27</ele>
  <time>2026-09-02T22:06:36Z</time>
  <course>95.0</course>
  <speed>0.0</speed>
  <fix>3d</fix>
</trkpt>
<trkpt lat="33.810316" lon="-118.3938699">
  <ele>-2.278</ele>
  <time>2026-09-02T22:06:36Z</time>
  <course>185.96</course>
  <speed>0.19209372712298545</speed>
  <fix>3d</fix>
</trkpt>
<trkpt lat="33.810313" lon="-118.3938669">
  <ele>-2.25</ele>
  <time>2026-09-02T22:06:36Z</time>
  <course>95.0</course>
  <speed>0.0</speed>
  <fix>3d</fix>
</trkpt>
<trkpt lat="33.8103158" lon="-118.3938697">
  <ele>-2.268</ele>
  <time>2026-09-02T22:06:36Z</time>
  <course>185.95</course>
  <speed>0.19209372712298545</speed>
  <fix>3d</fix>
</trkpt>
<trkpt lat="33.810313" lon="-118.3938669">
  <ele>-2.25</ele>
  <time>2026-09-02T22:06:36Z</time>
  <course>95.0</course>
  <speed>0.0</speed>
  <fix>3d</fix>
</trkpt>
<trkpt lat="33.8103157" lon="-118.3938696">
  <ele>-2.26</ele>
  <time>2026-09-02T22:06:36Z</time>
  <course>185.95</course>
  <speed>0.19209372712298545</speed>
  <fix>3d</fix>
</trkpt>
<trkpt lat="33.810313" lon="-118.3938669">
  <ele>-2.23</ele>
  <time>2026-09-02T22:06:36Z</time>
  <course>95.0</course>
  <speed>0.0</speed>
  <fix>3d</fix>
</trkpt>
<trkpt lat="33.8103156" lon="-118.3938696">
  <ele>-2.252</ele>
  <time>2026-09-02T22:06:36Z</time>
  <course>185.95</course>
  <speed>0.19209372712298545</speed>
  <fix>3d</fix>
</trkpt>
<trkpt lat="33.810313" lon="-118.3938669">
  <ele>-2.23</ele>
  <time>2026-09-02T22:06:36Z</time>
  <course>95.0</course>
  <speed>0.0</speed>
  <fix>3d</fix>
</trkpt>
<trkpt lat="33.8103157" lon="-118.3938696">
  <ele>-2.245</ele>
  <time>2026-09-02T22:06:36Z</time>
  <course>185.95</course>
  <speed>0.19209372712298545</speed>
  <fix>3d</fix>
</trkpt>
<trkpt lat="33.810313" lon="-118.3938669">
  <ele>-2.21</ele>
  <time>2026-09-02T22:06:36Z</time>
  <course>95.0</course>
  <speed>0.0</speed>
  <fix>3d</fix>
</trkpt>
<trkpt lat="33.8103158" lon="-118.3938697">
  <ele>-2.238</ele>
  <time>2026-09-02T22:06:36Z</time>
  <course>185.95</course>
  <speed>0.19209372712298545</speed>
  <fix>3d</fix>
</trkpt>
<trkpt lat="33.810313" lon="-118.3938669">
  <ele>-2.21</ele>
  <time>2026-09-02T22:06:36Z</time>
  <course>95.0</course>
  <speed>0.0</speed>
  <fix>3d</fix>
</trkpt>
<trkpt lat="33.8103159" lon="-118.3938698">
  <ele>-2.23</ele>
  <time>2026-09-02T22:06:36Z</time>
  <course>185.95</course>
  <speed>0.20615528128088303</speed>
  <fix>3d</fix>
</trkpt>
<trkpt lat="33.810313" lon="-118.3938669">
  <ele>-2.19</ele>
  <time>2026-09-02T22:06:36Z</time>
  <course>95.0</course>
  <speed>0.0</speed>
  <fix>3d</fix>
</trkpt>
<trkpt lat="33.810316" lon="-118.3938699">
  <ele>-2.223</ele>
  <time>2026-09-02T22:06:36Z</time>
  <course>185.95</course>
  <speed>0.20615528128088303</speed>
  <fix>3d</fix>
</trkpt>
<trkpt lat="33.810313" lon="-118.3938669">
  <ele>-2.19</ele>
  <time>2026-09-02T22:06:36Z</time>
  <course>95.0</course>
  <speed>0.0</speed>
  <fix>3d</fix>
</trkpt>
<trkpt lat="33.8103161" lon="-118.3938701">
  <ele>-2.215</ele>
  <time>2026-09-02T22:06:36Z</time>
  <course>185.95</course>
  <speed>0.20615528128088303</speed>
  <fix>3d</fix>
</trkpt>
<trkpt lat="33.810313" lon="-118.3938669">
  <ele>-2.18</ele>
  <time>2026-09-02T22:06:36Z</time>
  <course>95.0</course>
  <speed>0.0</speed>
  <fix>3d</fix>
</trkpt>
<trkpt lat="33.8103163" lon="-118.3938702">
  <ele>-2.207</ele>
  <time>2026-09-02T22:06:36Z</time>
  <course>185.94</course>
  <speed>0.22022715545545238</speed>
  <fix>3d</fix>
</trkpt>
<trkpt lat="33.810313" lon="-118.3938669">
  <ele>-2.18</ele>
  <time>2026-09-02T22:06:36Z</time>
  <course>95.0</course>
  <speed>0.0</speed>
  <fix>3d</fix>
</trkpt>
<trkpt lat="33.810316" lon="-118.3938699">
  <ele>-2.199</ele>
  <time>2026-09-02T22:06:36Z</time>
  <course>185.94</course>
  <speed>0.20615528128088303</speed>
  <fix>3d</fix>
</trkpt>
<trkpt lat="33.810313" lon="-118.3938669">
  <ele>-2.16</ele>
  <time>2026-09-02T22:06:36Z</time>
  <course>95.0</course>
  <speed>0.0</speed>
  <fix>3d</fix>
</trkpt>
<trkpt lat="33.8103156" lon="-118.3938695">
  <ele>-2.19</ele>
  <time>2026-09-02T22:06:36Z</time>
  <course>185.94</course>
  <speed>0.20615528128088303</speed>
  <fix>3d</fix>
</trkpt>
<trkpt lat="33.810313" lon="-118.3938669">
  <ele>-2.16</ele>
  <time>2026-09-02T22:06:36Z</time>
  <course>95.0</course>
  <speed>0.0</speed>
  <fix>3d</fix>
</trkpt>
<trkpt lat="33.8103154" lon="-118.3938693">
  <ele>-2.18</ele>
  <time>2026-09-02T22:06:36Z</time>
  <course>185.94</course>
  <speed>0.19209372712298545</speed>
  <fix>3d</fix>
</trkpt>
<trkpt lat="33.810313" lon="-118.3938669">
  <ele>-2.14</ele>
  <time>2026-09-02T22:06:36Z</time>
  <course>95.0</course>
  <speed>0.0</speed>
  <fix>3d</fix>
</trkpt>
<trkpt lat="33.8103153" lon="-118.3938692">
  <ele>-2.169</ele>
  <time>2026-09-02T22:06:36Z</time>
  <course>185.94</course>
  <speed>0.19209372712298545</speed>
  <fix>3d</fix>
</trkpt>
<trkpt lat="33.810313" lon="-118.3938669">
  <ele>-2.14</ele>
  <time>2026-09-02T22:06:36Z</time>
  <course>95.0</course>
  <speed>0.0</speed>
  <fix>3d</fix>
</trkpt>
<trkpt lat="33.8103152" lon="-118.3938692">
  <ele>-2.158</ele>
  <time>2026-09-02T22:06:36Z</time>
  <course>185.94</course>
  <speed>0.19209372712298545</speed>
  <fix>3d</fix>
</trkpt>
<trkpt lat="33.810313" lon="-118.3938669">
  <ele>-2.12</ele>
  <time>2026-09-02T22:06:36Z</time>
  <course>95.0</course>
  <speed>0.0</speed>
  <fix>3d</fix>
</trkpt>
<trkpt lat="33.8103153" lon="-118.3938692">
  <ele>-2.146</ele>
  <time>2026-09-02T22:06:36Z</time>
  <course>185.94</course>
  <speed>0.19209372712298545</speed>
  <fix>3d</fix>
</trkpt>
<trkpt lat="33.810313" lon="-118.3938669">
  <ele>-2.12</ele>
  <time>2026-09-02T22:06:36Z</time>
  <course>95.0</course>
  <speed>0.0</speed>
  <fix>3d</fix>
</trkpt>
<trkpt lat="33.8103153" lon="-118.3938693">
  <ele>-2.134</ele>
  <time>2026-09-02T22:06:36Z</time>
  <course>185.94</course>
  <speed>0.20615528128088303</speed>
  <fix>3d</fix>
</trkpt>
<trkpt lat="33.810313" lon="-118.3938669">
  <ele>-2.1</ele>
  <time>2026-09-02T22:06:36Z</time>
  <course>95.0</course>
  <speed>0.0</speed>
  <fix>3d</fix>
</trkpt>
<trkpt lat="33.8103154" lon="-118.3938694">
  <ele>-2.123</ele>
  <time>2026-09-02T22:06:36Z</time>
  <course>185.93</course>
  <speed>0.20615528128088303</speed>
  <fix>3d</fix>
</trkpt>
<trkpt lat="33.810313" lon="-118.3938669">
  <ele>-2.1</ele>
  <time>2026-09-02T22:06:36Z</time>
  <course>95.0</course>
  <speed>0.0</speed>
  <fix>3d</fix>
</trkpt>
<trkpt lat="33.8103156" lon="-118.3938695">
  <ele>-2.113</ele>
  <time>2026-09-02T22:06:36Z</time>
  <course>185.93</course>
  <speed>0.20615528128088303</speed>
  <fix>3d</fix>
</trkpt>
<trkpt lat="33.810313" lon="-118.3938669">
  <ele>-2.08</ele>
  <time>2026-09-02T22:06:36Z</time>
  <course>95.0</course>
  <speed>0.0</speed>
  <fix>3d</fix>
</trkpt>
<trkpt lat="33.8103157" lon="-118.3938696">
  <ele>-2.102</ele>
  <time>2026-09-02T22:06:36Z</time>
  <course>185.93</course>
  <speed>0.21400934559032694</speed>
  <fix>3d</fix>
</trkpt>
<trkpt lat="33.810313" lon="-118.3938669">
  <ele>-2.08</ele>
  <time>2026-09-02T22:06:36Z</time>
  <course>95.0</course>
  <speed>0.0</speed>
  <fix>3d</fix>
</trkpt>
<trkpt lat="33.8103159" lon="-118.3938698">
  <ele>-2.092</ele>
  <time>2026-09-02T22:06:36Z</time>
  <course>185.93</course>
  <speed>0.22022715545545238</speed>
  <fix>3d</fix>
</trkpt>
<trkpt lat="33.810313" lon="-118.3938669">
  <ele>-2.06</ele>
  <time>2026-09-02T22:06:36Z</time>
  <course>95.0</course>
  <speed>0.0</speed>
  <fix>3d</fix>
</trkpt>
<trkpt lat="33.8103156" lon="-118.3938695">
  <ele>-2.082</ele>
  <time>2026-09-02T22:06:36Z</time>
  <course>185.93</course>
  <speed>0.20615528128088303</speed>
  <fix>3d</fix>
</trkpt>
<trkpt lat="33.810313" lon="-118.3938669">
  <ele>-2.06</ele>
  <time>2026-09-02T22:06:36Z</time>
  <course>95.0</course>
  <speed>0.0</speed>
  <fix>3d</fix>
</trkpt>
<trkpt lat="33.8103151" lon="-118.3938691">
  <ele>-2.071</ele>
  <time>2026-09-02T22:06:36Z</time>
  <course>185.93</course>
  <speed>0.20615528128088303</speed>
  <fix>3d</fix>
</trkpt>
<trkpt lat="33.810313" lon="-118.3938669">
  <ele>-2.04</ele>
  <time>2026-09-02T22:06:36Z</time>
  <course>95.0</course>
  <speed>0.0</speed>
  <fix>3d</fix>
</trkpt>
<trkpt lat="33.8103149" lon="-118.3938689">
  <ele>-2.061</ele>
  <time>2026-09-02T22:06:36Z</time>
  <course>185.93</course>
  <speed>0.19209372712298545</speed>
  <fix>3d</fix>
</trkpt>
<trkpt lat="33.810313" lon="-118.3938669">
  <ele>-2.04</ele>
  <time>2026-09-02T22:06:36Z</time>
  <course>95.0</course>
  <speed>0.0</speed>
  <fix>3d</fix>
</trkpt>
<trkpt lat="33.8103148" lon="-118.3938687">
  <ele>-2.052</ele>
  <time>2026-09-02T22:06:36Z</time>
  <course>185.93</course>
  <speed>0.19209372712298545</speed>
  <fix>3d</fix>
</trkpt>
<trkpt lat="33.810313" lon="-118.3938669">
  <ele>-2.02</ele>
  <time>2026-09-02T22:06:36Z</time>
  <course>95.0</course>
  <speed>0.0</speed>
  <fix>3d</fix>
</trkpt>
<trkpt lat="33.8103147" lon="-118.3938687">
  <ele>-2.042</ele>
  <time>2026-09-02T22:06:36Z</time>
  <course>185.92</course>
  <speed>0.19209372712298545</speed>
  <fix>3d</fix>
</trkpt>
<trkpt lat="33.810313" lon="-118.3938669">
  <ele>-2.02</ele>
  <time>2026-09-02T22:06:36Z</time>
  <course>95.0</course>
  <speed>0.0</speed>
  <fix>3d</fix>
</trkpt>
<trkpt lat="33.8103148" lon="-118.3938687">
  <ele>-2.032</ele>
  <time>2026-09-02T22:06:36Z</time>
  <course>185.92</course>
  <speed>0.19209372712298545</speed>
  <fix>3d</fix>
</trkpt>
<trkpt lat="33.810313" lon="-118.3938669">
  <ele>-2.0</ele>
  <time>2026-09-02T22:06:36Z</time>
  <course>95.0</course>
  <speed>0.0</speed>
  <fix>3d</fix>
</trkpt>
<trkpt lat="33.8103148" lon="-118.3938688">
  <ele>-2.023</ele>
  <time>2026-09-02T22:06:36Z</time>
  <course>185.92</course>
  <speed>0.20615528128088303</speed>
  <fix>3d</fix>
</trkpt>
<trkpt lat="33.810313" lon="-118.3938669">
  <ele>-2.0</ele>
  <time>2026-09-02T22:06:36Z</time>
  <course>95.0</course>
  <speed>0.0</speed>
  <fix>3d</fix>
</trkpt>
<trkpt lat="33.810315" lon="-118.3938689">
  <ele>-2.013</ele>
  <time>2026-09-02T22:06:36Z</time>
  <course>185.92</course>
  <speed>0.20615528128088303</speed>
  <fix>3d</fix>
</trkpt>
<trkpt lat="33.810313" lon="-118.3938669">
  <ele>-1.98</ele>
  <time>2026-09-02T22:06:36Z</time>
  <course>95.0</course>
  <speed>0.0</speed>
  <fix>3d</fix>
</trkpt>
<trkpt lat="33.8103151" lon="-118.393869">
  <ele>-2.005</ele>
  <time>2026-09-02T22:06:36Z</time>
  <course>185.92</course>
  <speed>0.20615528128088303</speed>
  <fix>3d</fix>
</trkpt>
<trkpt lat="33.810313" lon="-118.3938669">
  <ele>-1.98</ele>
  <time>2026-09-02T22:06:36Z</time>
  <course>95.0</course>
  <speed>0.0</speed>
  <fix>3d</fix>
</trkpt>
<trkpt lat="33.8103152" lon="-118.3938692">
  <ele>-1.996</ele>
  <time>2026-09-02T22:06:36Z</time>
  <course>185.92</course>
  <speed>0.22022715545545238</speed>
  <fix>3d</fix>
</trkpt>
<trkpt lat="33.810313" lon="-118.3938669">
  <ele>-1.97</ele>
  <time>2026-09-02T22:06:36Z</time>
  <course>95.0</course>
  <speed>0.0</speed>
  <fix>3d</fix>
</trkpt>
<trkpt lat="33.8103149" lon="-118.3938689">
  <ele>-1.989</ele>
  <time>2026-09-02T22:06:36Z</time>
  <course>185.92</course>
  <speed>0.20615528128088303</speed>
  <fix>3d</fix>
</trkpt>
<trkpt lat="33.810313" lon="-118.3938669">
  <ele>-1.97</ele>
  <time>2026-09-02T22:06:36Z</time>
  <course>95.0</course>
  <speed>0.0</speed>
  <fix>3d</fix>
</trkpt>
<trkpt lat="33.8103146" lon="-118.3938686">
  <ele>-1.98</ele>
  <time>2026-09-02T22:06:36Z</time>
  <course>185.92</course>
  <speed>0.20615528128088303</speed>
  <fix>3d</fix>
</trkpt>
<trkpt lat="33.810313" lon="-118.3938669">
  <ele>-1.95</ele>
  <time>2026-09-02T22:06:36Z</time>
  <course>95.0</course>
  <speed>0.0</speed>
  <fix>3d</fix>
</trkpt>
<trkpt lat="33.8103144" lon="-118.3938684">
  <ele>-1.971</ele>
  <time>2026-09-02T22:06:36Z</time>
  <course>185.91</course>
  <speed>0.19209372712298545</speed>
  <fix>3d</fix>
</trkpt>
<trkpt lat="33.810313" lon="-118.3938669">
  <ele>-1.95</ele>
  <time>2026-09-02T22:06:36Z</time>
  <course>95.0</course>
  <speed>0.0</speed>
  <fix>3d</fix>
</trkpt>
<trkpt lat="33.8103143" lon="-118.3938682">
  <ele>-1.96</ele>
  <time>2026-09-02T22:06:36Z</time>
  <course>185.91</course>
  <speed>0.19209372712298545</speed>
  <fix>3d</fix>
</trkpt>
<trkpt lat="33.810313" lon="-118.3938669">
  <ele>-1.93</ele>
  <time>2026-09-02T22:06:36Z</time>
  <course>95.0</course>
  <speed>0.0</speed>
  <fix>3d</fix>
</trkpt>
<trkpt lat="33.8103142" lon="-118.3938682">
  <ele>-1.95</ele>
  <time>2026-09-02T22:06:36Z</time>
  <course>185.91</course>
  <speed>0.19209372712298545</speed>
  <fix>3d</fix>
</trkpt>
<trkpt lat="33.810313" lon="-118.3938669">
  <ele>-1.93</ele>
  <time>2026-09-02T22:06:36Z</time>
  <course>95.0</course>
  <speed>0.0</speed>
  <fix>3d</fix>
</trkpt>
<trkpt lat="33.8103143" lon="-118.3938682">
  <ele>-1.939</ele>
  <time>2026-09-02T22:06:36Z</time>
  <course>185.91</course>
  <speed>0.19209372712298545</speed>
  <fix>3d</fix>
</trkpt>
<trkpt lat="33.810313" lon="-118.3938669">
  <ele>-1.91</ele>
  <time>2026-09-02T22:06:36Z</time>
  <course>95.0</course>
  <speed>0.0</speed>
  <fix>3d</fix>
</trkpt>
<trkpt lat="33.8103143" lon="-118.3938683">
  <ele>-1.929</ele>
  <time>2026-09-02T22:06:36Z</time>
  <course>185.91</course>
  <speed>0.20615528128088303</speed>
  <fix>3d</fix>
</trkpt>
<trkpt lat="33.810313" lon="-118.3938669">
  <ele>-1.91</ele>
  <time>2026-09-02T22:06:36Z</time>
  <course>95.0</course>
  <speed>0.0</speed>
  <fix>3d</fix>
</trkpt>
<trkpt lat="33.8103144" lon="-118.3938684">
  <ele>-1.918</ele>
  <time>2026-09-02T22:06:36Z</time>
  <course>185.91</course>
  <speed>0.20615528128088303</speed>
  <fix>3d</fix>
</trkpt>
<trkpt lat="33.810313" lon="-118.3938669">
  <ele>-1.89</ele>
  <time>2026-09-02T22:06:36Z</time>
  <course>95.0</course>
  <speed>0.0</speed>
  <fix>3d</fix>
</trkpt>
<trkpt lat="33.8103146" lon="-118.3938685">
  <ele>-1.908</ele>
  <time>2026-09-02T22:06:36Z</time>
  <course>185.91</course>
  <speed>0.20615528128088303</speed>
  <fix>3d</fix>
</trkpt>
<trkpt lat="33.810313" lon="-118.3938669">
  <ele>-1.89</ele>
  <time>2026-09-02T22:06:36Z</time>
  <course>95.0</course>
  <speed>0.0</speed>
  <fix>3d</fix>
</trkpt>
<trkpt lat="33.8103147" lon="-118.3938686">
  <ele>-1.898</ele>
  <time>2026-09-02T22:06:36Z</time>
  <course>185.9</course>
  <speed>0.22022715545545238</speed>
  <fix>3d</fix>
</trkpt>
<trkpt lat="33.810313" lon="-118.3938669">
  <ele>-1.87</ele>
  <time>2026-09-02T22:06:36Z</time>
  <course>95.0</course>
  <speed>0.0</speed>
  <fix>3d</fix>
</trkpt>
<trkpt lat="33.8103144" lon="-118.3938684">
  <ele>-1.888</ele>
  <time>2026-09-02T22:06:36Z</time>
  <course>185.9</course>
  <speed>0.20615528128088303</speed>
  <fix>3d</fix>
</trkpt>
<trkpt lat="33.810313" lon="-118.3938669">
  <ele>-1.87</ele>
  <time>2026-09-02T22:06:36Z</time>
  <course>95.0</course>
  <speed>0.0</speed>
  <fix>3d</fix>
</trkpt>
<trkpt lat="33.810314" lon="-118.393868">
  <ele>-1.878</ele>
  <time>2026-09-02T22:06:36Z</time>
  <course>185.9</course>
  <speed>0.20615528128088303</speed>
  <fix>3d</fix>
</trkpt>
<trkpt lat="33.810313" lon="-118.3938669">
  <ele>-1.85</ele>
  <time>2026-09-02T22:06:36Z</time>
  <course>95.0</course>
  <speed>0.0</speed>
  <fix>3d</fix>
</trkpt>
<trkpt lat="33.8103138" lon="-118.3938678">
  <ele>-1.869</ele>
  <time>2026-09-02T22:06:36Z</time>
  <course>185.9</course>
  <speed>0.19209372712298545</speed>
  <fix>3d</fix>
</trkpt>
<trkpt lat="33.810313" lon="-118.3938669">
  <ele>-1.85</ele>
  <time>2026-09-02T22:06:36Z</time>
  <course>95.0</course>
  <speed>0.0</speed>
  <fix>3d</fix>
</trkpt>
<trkpt lat="33.8103137" lon="-118.3938677">
  <ele>-1.86</ele>
  <time>2026-09-02T22:06:36Z</time>
  <course>185.9</course>
  <speed>0.19209372712298545</speed>
  <fix>3d</fix>
</trkpt>
<trkpt lat="33.810313" lon="-118.3938669">
  <ele>-1.83</ele>
  <time>2026-09-02T22:06:36Z</time>
  <course>95.0</course>
  <speed>0.0</speed>
  <fix>3d</fix>
</trkpt>
<trkpt lat="33.8103136" lon="-118.3938676">
  <ele>-1.851</ele>
  <time>2026-09-02T22:06:36Z</time>
  <course>185.9</course>
  <speed>0.19209372712298545</speed>
  <fix>3d</fix>
</trkpt>
<trkpt lat="33.810313" lon="-118.3938669">
  <ele>-1.83</ele>
  <time>2026-09-02T22:06:36Z</time>
  <course>95.0</course>
  <speed>0.0</speed>
  <fix>3d</fix>
</trkpt>
<trkpt lat="33.8103137" lon="-118.3938677">
  <ele>-1.842</ele>
  <time>2026-09-02T22:06:36Z</time>
  <course>185.9</course>
  <speed>0.19209372712298545</speed>
  <fix>3d</fix>
</trkpt>
<trkpt lat="33.810313" lon="-118.3938669">
  <ele>-1.81</ele>
  <time>2026-09-02T22:06:36Z</time>
  <course>95.0</course>
  <speed>0.0</speed>
  <fix>3d</fix>
</trkpt>
<trkpt lat="33.8103137" lon="-118.3938677">
  <ele>-1.832</ele>
  <time>2026-09-02T22:06:36Z</time>
  <course>185.9</course>
  <speed>0.20615528128088303</speed>
  <fix>3d</fix>
</trkpt>
<trkpt lat="33.810313" lon="-118.3938669">
  <ele>-1.81</ele>
  <time>2026-09-02T22:06:36Z</time>
  <course>95.0</course>
  <speed>0.0</speed>
  <fix>3d</fix>
</trkpt>
<trkpt lat="33.8103139" lon="-118.3938678">
  <ele>-1.823</ele>
  <time>2026-09-02T22:06:36Z</time>
  <course>185.9</course>
  <speed>0.20615528128088303</speed>
  <fix>3d</fix>
</trkpt>
<trkpt lat="33.810313" lon="-118.3938669">
  <ele>-1.79</ele>
  <time>2026-09-02T22:06:36Z</time>
  <course>95.0</course>
  <speed>0.0</speed>
  <fix>3d</fix>
</trkpt>
<trkpt lat="33.810314" lon="-118.393868">
  <ele>-1.813</ele>
  <time>2026-09-02T22:06:36Z</time>
  <course>185.89</course>
  <speed>0.20615528128088303</speed>
  <fix>3d</fix>
</trkpt>
<trkpt lat="33.810313" lon="-118.3938669">
  <ele>-1.79</ele>
  <time>2026-09-02T22:06:36Z</time>
  <course>95.0</course>
  <speed>0.0</speed>
  <fix>3d</fix>
</trkpt>
<trkpt lat="33.8103141" lon="-118.3938681">
  <ele>-1.804</ele>
  <time>2026-09-02T22:06:36Z</time>
  <course>185.89</course>
  <speed>0.22022715545545238</speed>
  <fix>3d</fix>
</trkpt>
<trkpt lat="33.810313" lon="-118.3938669">
  <ele>-1.77</ele>
  <time>2026-09-02T22:06:36Z</time>
  <course>95.0</course>
  <speed>0.0</speed>
  <fix>3d</fix>
</trkpt>
<trkpt lat="33.8103143" lon="-118.3938683">
  <ele>-1.795</ele>
  <time>2026-09-02T22:06:36Z</time>
  <course>185.89</course>
  <speed>0.22022715545545238</speed>
  <fix>3d</fix>
</trkpt>
<trkpt lat="33.810313" lon="-118.3938669">
  <ele>-1.77</ele>
  <time>2026-09-02T22:06:36Z</time>
  <course>95.0</course>
  <speed>0.0</speed>
  <fix>3d</fix>
</trkpt>
<trkpt lat="33.8103139" lon="-118.3938679">
  <ele>-1.787</ele>
  <time>2026-09-02T22:06:36Z</time>
  <course>185.89</course>
  <speed>0.21400934559032694</speed>
  <fix>3d</fix>
</trkpt>
<trkpt lat="33.810313" lon="-118.3938669">
  <ele>-1.76</ele>
  <time>2026-09-02T22:06:36Z</time>
  <course>95.0</course>
  <speed>0.0</speed>
  <fix>3d</fix>
</trkpt>
<trkpt lat="33.8103135" lon="-118.3938675">
  <ele>-1.778</ele>
  <time>2026-09-02T22:06:36Z</time>
  <course>185.89</course>
  <speed>0.20615528128088303</speed>
  <fix>3d</fix>
</trkpt>
<trkpt lat="33.810313" lon="-118.3938669">
  <ele>-1.76</ele>
  <time>2026-09-02T22:06:36Z</time>
  <course>95.0</course>
  <speed>0.0</speed>
  <fix>3d</fix>
</trkpt>
<trkpt lat="33.8103133" lon="-118.3938673">
  <ele>-1.768</ele>
  <time>2026-09-02T22:06:36Z</time>
  <course>185.89</course>
  <speed>0.20615528128088303</speed>
  <fix>3d</fix>
</trkpt>
<trkpt lat="33.810313" lon="-118.3938669">
  <ele>-1.74</ele>
  <time>2026-09-02T22:06:36Z</time>
  <course>95.0</course>
  <speed>0.0</speed>
  <fix>3d</fix>
</trkpt>
<trkpt lat="33.8103132" lon="-118.3938672">
  <ele>-1.758</ele>
  <time>2026-09-02T22:06:36Z</time>
  <course>185.89</course>
  <speed>0.19849433241279207</speed>
  <fix>3d</fix>
</trkpt>
<trkpt lat="33.810313" lon="-118.3938669">
  <ele>-1.74</ele>
  <time>2026-09-02T22:06:36Z</time>
  <course>95.0</course>
  <speed>0.0</speed>
  <fix>3d</fix>
</trkpt>
<trkpt lat="33.8103132" lon="-118.3938672">
  <ele>-1.748</ele>
  <time>2026-09-02T22:06:36Z</time>
  <course>185.89</course>
  <speed>0.20615528128088303</speed>
  <fix>3d</fix>
</trkpt>
<trkpt lat="33.810313" lon="-118.3938669">
  <ele>-1.72</ele>
  <time>2026-09-02T22:06:36Z</time>
  <course>95.0</course>
  <speed>0.0</speed>
  <fix>3d</fix>
</trkpt>
<trkpt lat="33.8103132" lon="-118.3938672">
  <ele>-1.738</ele>
  <time>2026-09-02T22:06:36Z</time>
  <course>185.88</course>
  <speed>0.20615528128088303</speed>
  <fix>3d</fix>
</trkpt>
<trkpt lat="33.810313" lon="-118.3938669">
  <ele>-1.72</ele>
  <time>2026-09-02T22:06:36Z</time>
  <course>95.0</course>
  <speed>0.0</speed>
  <fix>3d</fix>
</trkpt>
<trkpt lat="33.8103133" lon="-118.3938673">
  <ele>-1.728</ele>
  <time>2026-09-02T22:06:36Z</time>
  <course>185.88</course>
  <speed>0.20615528128088303</speed>
  <fix>3d</fix>
</trkpt>
<trkpt lat="33.810313" lon="-118.3938669">
  <ele>-1.7</ele>
  <time>2026-09-02T22:06:36Z</time>
  <course>95.0</course>
  <speed>0.0</speed>
  <fix>3d</fix>
</trkpt>
<trkpt lat="33.8103134" lon="-118.3938674">
  <ele>-1.719</ele>
  <time>2026-09-02T22:06:36Z</time>
  <course>185.88</course>
  <speed>0.20615528128088303</speed>
  <fix>3d</fix>
</trkpt>
<trkpt lat="33.810313" lon="-118.3938669">
  <ele>-1.7</ele>
  <time>2026-09-02T22:06:36Z</time>
  <course>95.0</course>
  <speed>0.0</speed>
  <fix>3d</fix>
</trkpt>
<trkpt lat="33.8103136" lon="-118.3938676">
  <ele>-1.709</ele>
  <time>2026-09-02T22:06:36Z</time>
  <course>185.88</course>
  <speed>0.22022715545545238</speed>
  <fix>3d</fix>
</trkpt>
<trkpt lat="33.810313" lon="-118.3938669">
  <ele>-1.68</ele>
  <time>2026-09-02T22:06:36Z</time>
  <course>95.0</course>
  <speed>0.0</speed>
  <fix>3d</fix>
</trkpt>
<trkpt lat="33.8103137" lon="-118.3938677">
  <ele>-1.698</ele>
  <time>2026-09-02T22:06:36Z</time>
  <course>185.88</course>
  <speed>0.22022715545545238</speed>
  <fix>3d</fix>
</trkpt>
<trkpt lat="33.810313" lon="-118.3938669">
  <ele>-1.68</ele>
  <time>2026-09-02T22:06:36Z</time>
  <course>95.0</course>
  <speed>0.0</speed>
  <fix>3d</fix>
</trkpt>
<trkpt lat="33.8103133" lon="-118.3938673">
  <ele>-1.687</ele>
  <time>2026-09-02T22:06:36Z</time>
  <course>185.88</course>
  <speed>0.21400934559032694</speed>
  <fix>3d</fix>
</trkpt>
<trkpt lat="33.810313" lon="-118.3938669">
  <ele>-1.66</ele>
  <time>2026-09-02T22:06:36Z</time>
  <course>95.0</course>
  <speed>0.0</speed>
  <fix>3d</fix>
</trkpt>
<trkpt lat="33.810313" lon="-118.393867">
  <ele>-1.677</ele>
  <time>2026-09-02T22:06:36Z</time>
  <course>185.88</course>
  <speed>0.20615528128088303</speed>
  <fix>3d</fix>
</trkpt>
<trkpt lat="33.810313" lon="-118.3938669">
  <ele>-1.66</ele>
  <time>2026-09-02T22:06:36Z</time>
  <course>95.0</course>
  <speed>0.0</speed>
  <fix>3d</fix>
</trkpt>
<trkpt lat="33.8103127" lon="-118.3938668">
  <ele>-1.668</ele>
  <time>2026-09-02T22:06:36Z</time>
  <course>185.88</course>
  <speed>0.20615528128088303</speed>
  <fix>3d</fix>
</trkpt>
<trkpt lat="33.810313" lon="-118.3938669">
  <ele>-1.64</ele>
  <time>2026-09-02T22:06:36Z</time>
  <course>95.0</course>
  <speed>0.0</speed>
  <fix>3d</fix>
</trkpt>
<trkpt lat="33.8103126" lon="-118.3938667">
  <ele>-1.658</ele>
  <time>2026-09-02T22:06:36Z</time>
  <course>185.87</course>
  <speed>0.19849433241279207</speed>
  <fix>3d</fix>
</trkpt>
<trkpt lat="33.810313" lon="-118.3938669">
  <ele>-1.64</ele>
  <time>2026-09-02T22:06:36Z</time>
  <course>95.0</course>
  <speed>0.0</speed>
  <fix>3d</fix>
</trkpt>
<trkpt lat="33.8103126" lon="-118.3938666">
  <ele>-1.649</ele>
  <time>2026-09-02T22:06:36Z</time>
  <course>185.87</course>
  <speed>0.20615528128088303</speed>
  <fix>3d</fix>
</trkpt>
<trkpt lat="33.810313" lon="-118.3938669">
  <ele>-1.62</ele>
  <time>2026-09-02T22:06:36Z</time>
  <course>95.0</course>
  <speed>0.0</speed>
  <fix>3d</fix>
</trkpt>
<trkpt lat="33.8103127" lon="-118.3938667">
  <ele>-1.64</ele>
  <time>2026-09-02T22:06:36Z</time>
  <course>185.87</course>
  <speed>0.20615528128088303</speed>
  <fix>3d</fix>
</trkpt>
<trkpt lat="33.810313" lon="-118.3938669">
  <ele>-1.62</ele>
  <time>2026-09-02T22:06:36Z</time>
  <course>95.0</course>
  <speed>0.0</speed>
  <fix>3d</fix>
</trkpt>
<trkpt lat="33.8103127" lon="-118.3938668">
  <ele>-1.631</ele>
  <time>2026-09-02T22:06:36Z</time>
  <course>185.87</course>
  <speed>0.20615528128088303</speed>
  <fix>3d</fix>
</trkpt>
<trkpt lat="33.810313" lon="-118.3938669">
  <ele>-1.6</ele>
  <time>2026-09-02T22:06:36Z</time>
  <course>95.0</course>
  <speed>0.0</speed>
  <fix>3d</fix>
</trkpt>
<trkpt lat="33.8103129" lon="-118.3938669">
  <ele>-1.622</ele>
  <time>2026-09-02T22:06:36Z</time>
  <course>185.87</course>
  <speed>0.20615528128088303</speed>
  <fix>3d</fix>
</trkpt>
<trkpt lat="33.810313" lon="-118.3938669">
  <ele>-1.6</ele>
  <time>2026-09-02T22:06:36Z</time>
  <course>95.0</course>
  <speed>0.0</speed>
  <fix>3d</fix>
</trkpt>
<trkpt lat="33.810313" lon="-118.393867">
  <ele>-1.612</ele>
  <time>2026-09-02T22:06:36Z</time>
  <course>185.87</course>
  <speed>0.22022715545545238</speed>
  <fix>3d</fix>
</trkpt>
<trkpt lat="33.810313" lon="-118.3938669">
  <ele>-1.58</ele>
  <time>2026-09-02T22:06:36Z</time>
  <course>95.0</course>
  <speed>0.0</speed>
  <fix>3d</fix>
</trkpt>
<trkpt lat="33.8103132" lon="-118.3938672">
  <ele>-1.602</ele>
  <time>2026-09-02T22:06:36Z</time>
  <course>185.87</course>
  <speed>0.22022715545545238</speed>
  <fix>3d</fix>
</trkpt>
<trkpt lat="33.810313" lon="-118.3938669">
  <ele>-1.58</ele>
  <time>2026-09-02T22:06:36Z</time>
  <course>95.0</course>
  <speed>0.0</speed>
  <fix>3d</fix>
</trkpt>
<trkpt lat="33.8103129" lon="-118.3938669">
  <ele>-1.591</ele>
  <time>2026-09-02T22:06:36Z</time>
  <course>185.87</course>
  <speed>0.22022715545545238</speed>
  <fix>3d</fix>
</trkpt>
<trkpt lat="33.810313" lon="-118.3938669">
  <ele>-1.56</ele>
  <time>2026-09-02T22:06:36Z</time>
  <course>95.0</course>
  <speed>0.0</speed>
  <fix>3d</fix>
</trkpt>
<trkpt lat="33.8103125" lon="-118.3938665">
  <ele>-1.582</ele>
  <time>2026-09-02T22:06:36Z</time>
  <course>185.86</course>
  <speed>0.20615528128088303</speed>
  <fix>3d</fix>
</trkpt>
<trkpt lat="33.810313" lon="-118.3938669">
  <ele>-1.56</ele>
  <time>2026-09-02T22:06:36Z</time>
  <course>95.0</course>
  <speed>0.0</speed>
  <fix>3d</fix>
</trkpt>
<trkpt lat="33.8103123" lon="-118.3938663">
  <ele>-1.573</ele>
  <time>2026-09-02T22:06:36Z</time>
  <course>185.86</course>
  <speed>0.20615528128088303</speed>
  <fix>3d</fix>
</trkpt>
<trkpt lat="33.810313" lon="-118.3938669">
  <ele>-1.55</ele>
  <time>2026-09-02T22:06:36Z</time>
  <course>95.0</course>
  <speed>0.0</speed>
  <fix>3d</fix>
</trkpt>
<trkpt lat="33.8103121" lon="-118.3938662">
  <ele>-1.562</ele>
  <time>2026-09-02T22:06:36Z</time>
  <course>185.86</course>
  <speed>0.20615528128088303</speed>
  <fix>3d</fix>
</trkpt>
<trkpt lat="33.810313" lon="-118.3938669">
  <ele>-1.55</ele>
  <time>2026-09-02T22:06:36Z</time>
  <course>95.0</course>
  <speed>0.0</speed>
  <fix>3d</fix>
</trkpt>
<trkpt lat="33.8103121" lon="-118.3938661">
  <ele>-1.552</ele>
  <time>2026-09-02T22:06:36Z</time>
  <course>185.86</course>
  <speed>0.20615528128088303</speed>
  <fix>3d</fix>
</trkpt>
<trkpt lat="33.810313" lon="-118.3938669">
  <ele>-1.53</ele>
  <time>2026-09-02T22:06:36Z</time>
  <course>95.0</course>
  <speed>0.0</speed>
  <fix>3d</fix>
</trkpt>
<trkpt lat="33.8103122" lon="-118.3938662">
  <ele>-1.543</ele>
  <time>2026-09-02T22:06:36Z</time>
  <course>185.86</course>
  <speed>0.20615528128088303</speed>
  <fix>3d</fix>
</trkpt>
<trkpt lat="33.810313" lon="-118.3938669">
  <ele>-1.53</ele>
  <time>2026-09-02T22:06:36Z</time>
  <course>95.0</course>
  <speed>0.0</speed>
  <fix>3d</fix>
</trkpt>
<trkpt lat="33.8103122" lon="-118.3938663">
  <ele>-1.533</ele>
  <time>2026-09-02T22:06:36Z</time>
  <course>185.86</course>
  <speed>0.20615528128088303</speed>
  <fix>3d</fix>
</trkpt>
<trkpt lat="33.810313" lon="-118.3938669">
  <ele>-1.51</ele>
  <time>2026-09-02T22:06:36Z</time>
  <course>95.0</course>
  <speed>0.0</speed>
  <fix>3d</fix>
</trkpt>
<trkpt lat="33.8103124" lon="-118.3938664">
  <ele>-1.523</ele>
  <time>2026-09-02T22:06:36Z</time>
  <course>185.86</course>
  <speed>0.20615528128088303</speed>
  <fix>3d</fix>
</trkpt>
<trkpt lat="33.810313" lon="-118.3938669">
  <ele>-1.51</ele>
  <time>2026-09-02T22:06:36Z</time>
  <course>95.0</course>
  <speed>0.0</speed>
  <fix>3d</fix>
</trkpt>
<trkpt lat="33.8103125" lon="-118.3938665">
  <ele>-1.513</ele>
  <time>2026-09-02T22:06:36Z</time>
  <course>185.86</course>
  <speed>0.22022715545545238</speed>
  <fix>3d</fix>
</trkpt>
<trkpt lat="33.810313" lon="-118.3938669">
  <ele>-1.49</ele>
  <time>2026-09-02T22:06:36Z</time>
  <course>95.0</course>
  <speed>0.0</speed>
  <fix>3d</fix>
</trkpt>
<trkpt lat="33.8103126" lon="-118.3938667">
  <ele>-1.502</ele>
  <time>2026-09-02T22:06:36Z</time>
  <course>185.85</course>
  <speed>0.22022715545545238</speed>
  <fix>3d</fix>
</trkpt>
<trkpt lat="33.810313" lon="-118.3938669">
  <ele>-1.49</ele>
  <time>2026-09-02T22:06:36Z</time>
  <course>95.0</course>
  <speed>0.0</speed>
  <fix>3d</fix>
</trkpt>
<trkpt lat="33.8103124" lon="-118.3938664">
  <ele>-1.49</ele>
  <time>2026-09-02T22:06:36Z</time>
  <course>185.85</course>
  <speed>0.22022715545545238</speed>
  <fix>3d</fix>
</trkpt>
<trkpt lat="33.810313" lon="-118.3938669">
  <ele>-1.47</ele>
  <time>2026-09-02T22:06:36Z</time>
  <course>95.0</course>
  <speed>0.0</speed>
  <fix>3d</fix>
</trkpt>
<trkpt lat="33.810312" lon="-118.393866">
  <ele>-1.479</ele>
  <time>2026-09-02T22:06:36Z</time>
  <course>185.85</course>
  <speed>0.20615528128088303</speed>
  <fix>3d</fix>
</trkpt>
<trkpt lat="33.810313" lon="-118.3938669">
  <ele>-1.47</ele>
  <time>2026-09-02T22:06:36Z</time>
  <course>95.0</course>
  <speed>0.0</speed>
  <fix>3d</fix>
</trkpt>
<trkpt lat="33.8103118" lon="-118.3938658">
  <ele>-1.467</ele>
  <time>2026-09-02T22:06:36Z</time>
  <course>185.85</course>
  <speed>0.20615528128088303</speed>
  <fix>3d</fix>
</trkpt>
<trkpt lat="33.810313" lon="-118.3938669">
  <ele>-1.45</ele>
  <time>2026-09-02T22:06:36Z</time>
  <course>95.0</course>
  <speed>0.0</speed>
  <fix>3d</fix>
</trkpt>
<trkpt lat="33.8103117" lon="-118.3938657">
  <ele>-1.456</ele>
  <time>2026-09-02T22:06:36Z</time>
  <course>185.85</course>
  <speed>0.20615528128088303</speed>
  <fix>3d</fix>
</trkpt>
<trkpt lat="33.810313" lon="-118.3938669">
  <ele>-1.45</ele>
  <time>2026-09-02T22:06:36Z</time>
  <course>95.0</course>
  <speed>0.0</speed>
  <fix>3d</fix>
</trkpt>
<trkpt lat="33.8103116" lon="-118.3938657">
  <ele>-1.444</ele>
  <time>2026-09-02T22:06:36Z</time>
  <course>185.85</course>
  <speed>0.20615528128088303</speed>
  <fix>3d</fix>
</trkpt>
<trkpt lat="33.810313" lon="-118.3938669">
  <ele>-1.43</ele>
  <time>2026-09-02T22:06:36Z</time>
  <course>95.0</course>
  <speed>0.0</speed>
  <fix>3d</fix>
</trkpt>
<trkpt lat="33.8103117" lon="-118.3938657">
  <ele>-1.434</ele>
  <time>2026-09-02T22:06:36Z</time>
  <course>185.85</course>
  <speed>0.20615528128088303</speed>
  <fix>3d</fix>
</trkpt>
<trkpt lat="33.810313" lon="-118.3938669">
  <ele>-1.43</ele>
  <time>2026-09-02T22:06:36Z</time>
  <course>95.0</course>
  <speed>0.0</speed>
  <fix>3d</fix>
</trkpt>
<trkpt lat="33.8103118" lon="-118.3938658">
  <ele>-1.424</ele>
  <time>2026-09-02T22:06:36Z</time>
  <course>185.85</course>
  <speed>0.20615528128088303</speed>
  <fix>3d</fix>
</trkpt>
<trkpt lat="33.810313" lon="-118.3938669">
  <ele>-1.41</ele>
  <time>2026-09-02T22:06:36Z</time>
  <course>95.0</course>
  <speed>0.0</speed>
  <fix>3d</fix>
</trkpt>
<trkpt lat="33.8103119" lon="-118.3938659">
  <ele>-1.413</ele>
  <time>2026-09-02T22:06:36Z</time>
  <course>185.85</course>
  <speed>0.20615528128088303</speed>
  <fix>3d</fix>
</trkpt>
<trkpt lat="33.810313" lon="-118.3938669">
  <ele>-1.41</ele>
  <time>2026-09-02T22:06:37Z</time>
  <course>95.0</course>
  <speed>0.0</speed>
  <fix>3d</fix>
</trkpt>
<trkpt lat="33.810312" lon="-118.393866">
  <ele>-1.402</ele>
  <time>2026-09-02T22:06:37Z</time>
  <course>185.84</course>
  <speed>0.22022715545545238</speed>
  <fix>3d</fix>
</trkpt>
<trkpt lat="33.810313" lon="-118.3938669">
  <ele>-1.39</ele>
  <time>2026-09-02T22:06:37Z</time>
  <course>95.0</course>
  <speed>0.0</speed>
  <fix>3d</fix>
</trkpt>
<trkpt lat="33.8103122" lon="-118.3938662">
  <ele>-1.392</ele>
  <time>2026-09-02T22:06:37Z</time>
  <course>185.84</course>
  <speed>0.22022715545545238</speed>
  <fix>3d</fix>
</trkpt>
<trkpt lat="33.810313" lon="-118.3938669">
  <ele>-1.39</ele>
  <time>2026-09-02T22:06:37Z</time>
  <course>95.0</course>
  <speed>0.0</speed>
  <fix>3d</fix>
</trkpt>
<trkpt lat="33.8103123" lon="-118.3938664">
  <ele>-1.381</ele>
  <time>2026-09-02T22:06:37Z</time>
  <course>185.84</course>
  <speed>0.23430749027719963</speed>
  <fix>3d</fix>
</trkpt>
<trkpt lat="33.810313" lon="-118.3938669">
  <ele>-1.37</ele>
  <time>2026-09-02T22:06:37Z</time>
  <course>95.0</course>
  <speed>0.0</speed>
  <fix>3d</fix>
</trkpt>
<trkpt lat="33.8103121" lon="-118.3938661">
  <ele>-1.371</ele>
  <time>2026-09-02T22:06:37Z</time>
  <course>185.84</course>
  <speed>0.22022715545545238</speed>
  <fix>3d</fix>
</trkpt>
<trkpt lat="33.810313" lon="-118.3938669">
  <ele>-1.37</ele>
  <time>2026-09-02T22:06:37Z</time>
  <course>95.0</course>
  <speed>0.0</speed>
  <fix>3d</fix>
</trkpt>
<trkpt lat="33.8103117" lon="-118.3938657">
  <ele>-1.362</ele>
  <time>2026-09-02T22:06:37Z</time>
  <course>185.84</course>
  <speed>0.212602916254693</speed>
  <fix>3d</fix>
</trkpt>
<trkpt lat="33.810313" lon="-118.3938668">
  <ele>-1.36</ele>
  <time>2026-09-02T22:06:37Z</time>
  <course>95.0</course>
  <speed>0.0</speed>
  <fix>3d</fix>
</trkpt>
<trkpt lat="33.8103115" lon="-118.3938655">
  <ele>-1.354</ele>
  <time>2026-09-02T22:06:37Z</time>
  <course>185.84</course>
  <speed>0.20615528128088303</speed>
  <fix>3d</fix>
</trkpt>
<trkpt lat="33.810313" lon="-118.3938668">
  <ele>-1.36</ele>
  <time>2026-09-02T22:06:37Z</time>
  <course>95.0</course>
  <speed>0.0</speed>
  <fix>3d</fix>
</trkpt>
<trkpt lat="33.8103114" lon="-118.3938654">
  <ele>-1.346</ele>
  <time>2026-09-02T22:06:37Z</time>
  <course>185.84</course>
  <speed>0.20615528128088303</speed>
  <fix>3d</fix>
</trkpt>
<trkpt lat="33.810313" lon="-118.3938668">
  <ele>-1.34</ele>
  <time>2026-09-02T22:06:37Z</time>
  <course>95.0</course>
  <speed>0.0</speed>
  <fix>3d</fix>
</trkpt>
<trkpt lat="33.8103114" lon="-118.3938654">
  <ele>-1.338</ele>
  <time>2026-09-02T22:06:37Z</time>
  <course>185.84</course>
  <speed>0.20615528128088303</speed>
  <fix>3d</fix>
</trkpt>
<trkpt lat="33.810313" lon="-118.3938668">
  <ele>-1.34</ele>
  <time>2026-09-02T22:06:37Z</time>
  <course>95.0</course>
  <speed>0.0</speed>
  <fix>3d</fix>
</trkpt>
<trkpt lat="33.8103114" lon="-118.3938654">
  <ele>-1.33</ele>
  <time>2026-09-02T22:06:37Z</time>
  <course>185.84</course>
  <speed>0.20615528128088303</speed>
  <fix>3d</fix>
</trkpt>
<trkpt lat="33.810313" lon="-118.3938668">
  <ele>-1.31</ele>
  <time>2026-09-02T22:06:37Z</time>
  <course>95.0</course>
  <speed>0.0</speed>
  <fix>3d</fix>
</trkpt>
<trkpt lat="33.8103115" lon="-118.3938655">
  <ele>-1.322</ele>
  <time>2026-09-02T22:06:37Z</time>
  <course>185.83</course>
  <speed>0.22022715545545238</speed>
  <fix>3d</fix>
</trkpt>
<trkpt lat="33.810313" lon="-118.3938668">
  <ele>-1.31</ele>
  <time>2026-09-02T22:06:37Z</time>
  <course>95.0</course>
  <speed>0.0</speed>
  <fix>3d</fix>
</trkpt>
<trkpt lat="33.8103116" lon="-118.3938656">
  <ele>-1.313</ele>
  <time>2026-09-02T22:06:37Z</time>
  <course>185.83</course>
  <speed>0.22022715545545238</speed>
  <fix>3d</fix>
</trkpt>
<trkpt lat="33.810313" lon="-118.3938668">
  <ele>-1.3</ele>
  <time>2026-09-02T22:06:37Z</time>
  <course>95.0</course>
  <speed>0.0</speed>
  <fix>3d</fix>
</trkpt>
<trkpt lat="33.8103117" lon="-118.3938658">
  <ele>-1.304</ele>
  <time>2026-09-02T22:06:37Z</time>
  <course>185.83</course>
  <speed>0.22022715545545238</speed>
  <fix>3d</fix>
</trkpt>
<trkpt lat="33.810313" lon="-118.3938668">
  <ele>-1.3</ele>
  <time>2026-09-02T22:06:37Z</time>
  <course>95.0</course>
  <speed>0.0</speed>
  <fix>3d</fix>
</trkpt>
<trkpt lat="33.8103119" lon="-118.3938659">
  <ele>-1.295</ele>
  <time>2026-09-02T22:06:37Z</time>
  <course>185.83</course>
  <speed>0.22803508501982758</speed>
  <fix>3d</fix>
</trkpt>
<trkpt lat="33.810313" lon="-118.3938668">
  <ele>-1.28</ele>
  <time>2026-09-02T22:06:37Z</time>
  <course>95.0</course>
  <speed>0.0</speed>
  <fix>3d</fix>
</trkpt>
<trkpt lat="33.8103121" lon="-118.3938661">
  <ele>-1.286</ele>
  <time>2026-09-02T22:06:37Z</time>
  <course>185.83</course>
  <speed>0.23430749027719963</speed>
  <fix>3d</fix>
</trkpt>
<trkpt lat="33.810313" lon="-118.3938668">
  <ele>-1.28</ele>
  <time>2026-09-02T22:06:37Z</time>
  <course>95.0</course>
  <speed>0.0</speed>
  <fix>3d</fix>
</trkpt>
<trkpt lat="33.8103118" lon="-118.3938658">
  <ele>-1.276</ele>
  <time>2026-09-02T22:06:37Z</time>
  <course>185.83</course>
  <speed>0.22803508501982758</speed>
  <fix>3d</fix>
</trkpt>
<trkpt lat="33.810313" lon="-118.3938668">
  <ele>-1.26</ele>
  <time>2026-09-02T22:06:37Z</time>
  <course>95.0</course>
  <speed>0.0</speed>
  <fix>3d</fix>
</trkpt>
<trkpt lat="33.8103114" lon="-118.3938654">
  <ele>-1.267</ele>
  <time>2026-09-02T22:06:37Z</time>
  <course>185.83</course>
  <speed>0.22022715545545238</speed>
  <fix>3d</fix>
</trkpt>
<trkpt lat="33.810313" lon="-118.3938668">
  <ele>-1.26</ele>
  <time>2026-09-02T22:06:37Z</time>
  <course>95.0</course>
  <speed>0.0</speed>
  <fix>3d</fix>
</trkpt>
<trkpt lat="33.8103112" lon="-118.3938652">
  <ele>-1.257</ele>
  <time>2026-09-02T22:06:37Z</time>
  <course>185.83</course>
  <speed>0.20615528128088303</speed>
  <fix>3d</fix>
</trkpt>
<trkpt lat="33.810313" lon="-118.3938668">
  <ele>-1.24</ele>
  <time>2026-09-02T22:06:37Z</time>
  <course>95.0</course>
  <speed>0.0</speed>
  <fix>3d</fix>
</trkpt>
<trkpt lat="33.8103111" lon="-118.3938651">
  <ele>-1.246</ele>
  <time>2026-09-02T22:06:37Z</time>
  <course>185.82</course>
  <speed>0.20615528128088303</speed>
  <fix>3d</fix>
</trkpt>
<trkpt lat="33.810313" lon="-118.3938668">
  <ele>-1.24</ele>
  <time>2026-09-02T22:06:37Z</time>
  <course>95.0</course>
  <speed>0.0</speed>
  <fix>3d</fix>
</trkpt>
<trkpt lat="33.8103111" lon="-118.3938651">
  <ele>-1.235</ele>
  <time>2026-09-02T22:06:37Z</time>
  <course>185.82</course>
  <speed>0.20615528128088303</speed>
  <fix>3d</fix>
</trkpt>
<trkpt lat="33.810313" lon="-118.3938668">
  <ele>-1.22</ele>
  <time>2026-09-02T22:06:37Z</time>
  <course>95.0</course>
  <speed>0.0</speed>
  <fix>3d</fix>
</trkpt>
<trkpt lat="33.8103111" lon="-118.3938651">
  <ele>-1.225</ele>
  <time>2026-09-02T22:06:37Z</time>
  <course>185.82</course>
  <speed>0.22022715545545238</speed>
  <fix>3d</fix>
</trkpt>
<trkpt lat="33.810313" lon="-118.3938668">
  <ele>-1.22</ele>
  <time>2026-09-02T22:06:37Z</time>
  <course>95.0</course>
  <speed>0.0</speed>
  <fix>3d</fix>
</trkpt>
<trkpt lat="33.8103112" lon="-118.3938652">
  <ele>-1.216</ele>
  <time>2026-09-02T22:06:37Z</time>
  <course>185.82</course>
  <speed>0.22022715545545238</speed>
  <fix>3d</fix>
</trkpt>
<trkpt lat="33.810313" lon="-118.3938668">
  <ele>-1.2</ele>
  <time>2026-09-02T22:06:37Z</time>
  <course>95.0</course>
  <speed>0.0</speed>
  <fix>3d</fix>
</trkpt>
<trkpt lat="33.8103113" lon="-118.3938653">
  <ele>-1.207</ele>
  <time>2026-09-02T22:06:37Z</time>
  <course>185.82</course>
  <speed>0.22022715545545238</speed>
  <fix>3d</fix>
</trkpt>
<trkpt lat="33.810313" lon="-118.3938668">
  <ele>-1.2</ele>
  <time>2026-09-02T22:06:37Z</time>
  <course>95.0</course>
  <speed>0.0</speed>
  <fix>3d</fix>
</trkpt>
<trkpt lat="33.8103114" lon="-118.3938655">
  <ele>-1.199</ele>
  <time>2026-09-02T22:06:37Z</time>
  <course>185.82</course>
  <speed>0.22022715545545238</speed>
  <fix>3d</fix>
</trkpt>
<trkpt lat="33.810313" lon="-118.3938668">
  <ele>-1.18</ele>
  <time>2026-09-02T22:06:37Z</time>
  <course>95.0</course>
  <speed>0.0</speed>
  <fix>3d</fix>
</trkpt>
<trkpt lat="33.8103116" lon="-118.3938656">
  <ele>-1.19</ele>
  <time>2026-09-02T22:06:37Z</time>
  <course>185.82</course>
  <speed>0.23430749027719963</speed>
  <fix>3d</fix>
</trkpt>
<trkpt lat="33.810313" lon="-118.3938668">
  <ele>-1.18</ele>
  <time>2026-09-02T22:06:37Z</time>
  <course>95.0</course>
  <speed>0.0</speed>
  <fix>3d</fix>
</trkpt>
<trkpt lat="33.8103113" lon="-118.3938654">
  <ele>-1.18</ele>
  <time>2026-09-02T22:06:37Z</time>
  <course>185.82</course>
  <speed>0.22022715545545238</speed>
  <fix>3d</fix>
</trkpt>
<trkpt lat="33.810313" lon="-118.3938668">
  <ele>-1.16</ele>
  <time>2026-09-02T22:06:37Z</time>
  <course>95.0</course>
  <speed>0.0</speed>
  <fix>3d</fix>
</trkpt>
<trkpt lat="33.810311" lon="-118.393865">
  <ele>-1.171</ele>
  <time>2026-09-02T22:06:37Z</time>
  <course>185.82</course>
  <speed>0.22022715545545238</speed>
  <fix>3d</fix>
</trkpt>
<trkpt lat="33.810313" lon="-118.3938668">
  <ele>-1.16</ele>
  <time>2026-09-02T22:06:37Z</time>
  <course>95.0</course>
  <speed>0.0</speed>
  <fix>3d</fix>
</trkpt>
<trkpt lat="33.8103108" lon="-118.3938648">
  <ele>-1.161</ele>
  <time>2026-09-02T22:06:37Z</time>
  <course>185.81</course>
  <speed>0.20615528128088303</speed>
  <fix>3d</fix>
</trkpt>
<trkpt lat="33.810313" lon="-118.3938668">
  <ele>-1.15</ele>
  <time>2026-09-02T22:06:37Z</time>
  <course>95.0</course>
  <speed>0.0</speed>
  <fix>3d</fix>
</trkpt>
<trkpt lat="33.8103107" lon="-118.3938647">
  <ele>-1.152</ele>
  <time>2026-09-02T22:06:37Z</time>
  <course>185.81</course>
  <speed>0.20615528128088303</speed>
  <fix>3d</fix>
</trkpt>
<trkpt lat="33.810313" lon="-118.3938668">
  <ele>-1.15</ele>
  <time>2026-09-02T22:06:37Z</time>
  <course>95.0</course>
  <speed>0.0</speed>
  <fix>3d</fix>
</trkpt>
<trkpt lat="33.8103106" lon="-118.3938647">
  <ele>-1.144</ele>
  <time>2026-09-02T22:06:37Z</time>
  <course>185.81</course>
  <speed>0.20615528128088303</speed>
  <fix>3d</fix>
</trkpt>
<trkpt lat="33.810313" lon="-118.3938668">
  <ele>-1.13</ele>
  <time>2026-09-02T22:06:37Z</time>
  <course>95.0</course>
  <speed>0.0</speed>
  <fix>3d</fix>
</trkpt>
<trkpt lat="33.8103107" lon="-118.3938647">
  <ele>-1.135</ele>
  <time>2026-09-02T22:06:37Z</time>
  <course>185.81</course>
  <speed>0.20615528128088303</speed>
  <fix>3d</fix>
</trkpt>
<trkpt lat="33.810313" lon="-118.3938668">
  <ele>-1.13</ele>
  <time>2026-09-02T22:06:37Z</time>
  <course>95.0</course>
  <speed>0.0</speed>
  <fix>3d</fix>
</trkpt>
<trkpt lat="33.8103108" lon="-118.3938648">
  <ele>-1.125</ele>
  <time>2026-09-02T22:06:37Z</time>
  <course>185.81</course>
  <speed>0.22022715545545238</speed>
  <fix>3d</fix>
</trkpt>
<trkpt lat="33.810313" lon="-118.3938668">
  <ele>-1.11</ele>
  <time>2026-09-02T22:06:37Z</time>
  <course>95.0</course>
  <speed>0.0</speed>
  <fix>3d</fix>
</trkpt>
<trkpt lat="33.8103109" lon="-118.3938649">
  <ele>-1.114</ele>
  <time>2026-09-02T22:06:37Z</time>
  <course>185.81</course>
  <speed>0.22022715545545238</speed>
  <fix>3d</fix>
</trkpt>
<trkpt lat="33.810313" lon="-118.3938668">
  <ele>-1.11</ele>
  <time>2026-09-02T22:06:37Z</time>
  <course>95.0</course>
  <speed>0.0</speed>
  <fix>3d</fix>
</trkpt>
<trkpt lat="33.810313" lon="-118.3938668">
  <ele>-1.104</ele>
  <time>2026-09-02T22:06:37Z</time>
  <course>185.81</course>
  <speed>0.19209372712298545</speed>
  <fix>3d</fix>
</trkpt>
<trkpt lat="33.810313" lon="-118.3938668">
  <ele>-1.09</ele>
  <time>2026-09-02T22:06:37Z</time>
  <course>95.0</course>
  <speed>0.0</speed>
  <fix>3d</fix>
</trkpt>
<trkpt lat="33.8103131" lon="-118.3938669">
  <ele>-1.093</ele>
  <time>2026-09-02T22:06:37Z</time>
  <course>185.81</course>
  <speed>0.17029386365926402</speed>
  <fix>3d</fix>
</trkpt>
<trkpt lat="33.810313" lon="-118.3938668">
  <ele>-1.09</ele>
  <time>2026-09-02T22:06:37Z</time>
  <course>95.0</course>
  <speed>0.0</speed>
  <fix>3d</fix>
</trkpt>
<trkpt lat="33.8103131" lon="-118.3938669">
  <ele>-1.083</ele>
  <time>2026-09-02T22:06:37Z</time>
  <course>185.81</course>
  <speed>0.14212670403551894</speed>
  <fix>3d</fix>
</trkpt>
<trkpt lat="33.810313" lon="-118.3938668">
  <ele>-1.06</ele>
  <time>2026-09-02T22:06:37Z</time>
  <course>95.0</course>
  <speed>0.0</speed>
  <fix>3d</fix>
</trkpt>
<trkpt lat="33.810313" lon="-118.3938668">
  <ele>-1.072</ele>
  <time>2026-09-02T22:06:37Z</time>
  <course>185.81</course>
  <speed>0.11401754250991379</speed>
  <fix>3d</fix>
</trkpt>
<trkpt lat="33.810313" lon="-118.3938668">
  <ele>-1.06</ele>
  <time>2026-09-02T22:06:37Z</time>
  <course>95.0</course>
  <speed>0.0</speed>
  <fix>3d</fix>
</trkpt>
<trkpt lat="33.810313" lon="-118.3938668">
  <ele>-1.06</ele>
  <time>2026-09-02T22:06:37Z</time>
  <course>185.8</course>
  <speed>0.1</speed>
  <fix>3d</fix>
</trkpt>
<trkpt lat="33.810313" lon="-118.3938668">
  <ele>-1.05</ele>
  <time>2026-09-02T22:06:37Z</time>
  <course>95.0</course>
  <speed>0.0</speed>
  <fix>3d</fix>
</trkpt>
<trkpt lat="33.810313" lon="-118.3938668">
  <ele>-1.049</ele>
  <time>2026-09-02T22:06:37Z</time>
  <course>185.8</course>
  <speed>0.09219544457292887</speed>
  <fix>3d</fix>
</trkpt>
<trkpt lat="33.810313" lon="-118.3938668">
  <ele>-1.05</ele>
  <time>2026-09-02T22:06:37Z</time>
  <course>95.0</course>
  <speed>0.0</speed>
  <fix>3d</fix>
</trkpt>
<trkpt lat="33.8103131" lon="-118.3938669">
  <ele>-1.038</ele>
  <time>2026-09-02T22:06:37Z</time>
  <course>185.8</course>
  <speed>0.08602325267042626</speed>
  <fix>3d</fix>
</trkpt>
<trkpt lat="33.810313" lon="-118.3938668">
  <ele>-1.03</ele>
  <time>2026-09-02T22:06:37Z</time>
  <course>95.0</course>
  <speed>0.0</speed>
  <fix>3d</fix>
</trkpt>
<trkpt lat="33.8103131" lon="-118.3938669">
  <ele>-1.028</ele>
  <time>2026-09-02T22:06:37Z</time>
  <course>185.8</course>
  <speed>0.08602325267042626</speed>
  <fix>3d</fix>
</trkpt>
<trkpt lat="33.810313" lon="-118.3938668">
  <ele>-1.03</ele>
  <time>2026-09-02T22:06:37Z</time>
  <course>95.0</course>
  <speed>0.0</speed>
  <fix>3d</fix>
</trkpt>
<trkpt lat="33.8103131" lon="-118.3938669">
  <ele>-1.019</ele>
  <time>2026-09-02T22:06:37Z</time>
  <course>185.8</course>
  <speed>0.08602325267042626</speed>
  <fix>3d</fix>
</trkpt>
<trkpt lat="33.810313" lon="-118.3938668">
  <ele>-1.01</ele>
  <time>2026-09-02T22:06:37Z</time>
  <course>95.0</course>
  <speed>0.0</speed>
  <fix>3d</fix>
</trkpt>
<trkpt lat="33.8103131" lon="-118.3938669">
  <ele>-1.009</ele>
  <time>2026-09-02T22:06:37Z</time>
  <course>185.8</course>
  <speed>0.08602325267042626</speed>
  <fix>3d</fix>
</trkpt>
<trkpt lat="33.810313" lon="-118.3938668">
  <ele>-1.01</ele>
  <time>2026-09-02T22:06:37Z</time>
  <course>95.0</course>
  <speed>0.0</speed>
  <fix>3d</fix>
</trkpt>
<trkpt lat="33.8103133" lon="-118.3938671">
  <ele>-0.999</ele>
  <time>2026-09-02T22:06:37Z</time>
  <course>185.8</course>
  <speed>0.09219544457292887</speed>
  <fix>3d</fix>
</trkpt>
<trkpt lat="33.810313" lon="-118.3938668">
  <ele>-0.99</ele>
  <time>2026-09-02T22:06:37Z</time>
  <course>95.0</course>
  <speed>0.0</speed>
  <fix>3d</fix>
</trkpt>
<trkpt lat="33.8103134" lon="-118.3938672">
  <ele>-0.989</ele>
  <time>2026-09-02T22:06:37Z</time>
  <course>185.8</course>
  <speed>0.09219544457292887</speed>
  <fix>3d</fix>
</trkpt>
<trkpt lat="33.810313" lon="-118.3938668">
  <ele>-0.99</ele>
  <time>2026-09-02T22:06:37Z</time>
  <course>95.0</course>
  <speed>0.0</speed>
  <fix>3d</fix>
</trkpt>
<trkpt lat="33.8103135" lon="-118.3938673">
  <ele>-0.979</ele>
  <time>2026-09-02T22:06:37Z</time>
  <course>185.8</course>
  <speed>0.1</speed>
  <fix>3d</fix>
</trkpt>
<trkpt lat="33.810313" lon="-118.3938668">
  <ele>-0.97</ele>
  <time>2026-09-02T22:06:37Z</time>
  <course>95.0</course>
  <speed>0.0</speed>
  <fix>3d</fix>
</trkpt>
<trkpt lat="33.8103135" lon="-118.3938673">
  <ele>-0.97</ele>
  <time>2026-09-02T22:06:37Z</time>
  <course>185.8</course>
  <speed>0.1</speed>
  <fix>3d</fix>
</trkpt>
<trkpt lat="33.810313" lon="-118.3938668">
  <ele>-0.97</ele>
  <time>2026-09-02T22:06:37Z</time>
  <course>95.0</course>
  <speed>0.0</speed>
  <fix>3d</fix>
</trkpt>
<trkpt lat="33.8103135" lon="-118.3938673">
  <ele>-0.96</ele>
  <time>2026-09-02T22:06:37Z</time>
  <course>185.8</course>
  <speed>0.1</speed>
  <fix>3d</fix>
</trkpt>
<trkpt lat="33.810313" lon="-118.3938668">
  <ele>-0.96</ele>
  <time>2026-09-02T22:06:37Z</time>
  <course>95.0</course>
  <speed>0.0</speed>
  <fix>3d</fix>
</trkpt>
<trkpt lat="33.8103136" lon="-118.3938674">
  <ele>-0.95</ele>
  <time>2026-09-02T22:06:37Z</time>
  <course>185.8</course>
  <speed>0.1</speed>
  <fix>3d</fix>
</trkpt>
<trkpt lat="33.810313" lon="-118.3938668">
  <ele>-0.96</ele>
  <time>2026-09-02T22:06:37Z</time>
  <course>95.0</course>
  <speed>0.0</speed>
  <fix>3d</fix>
</trkpt>
<trkpt lat="33.8103137" lon="-118.3938675">
  <ele>-0.94</ele>
  <time>2026-09-02T22:06:37Z</time>
  <course>185.8</course>
  <speed>0.1063014581273465</speed>
  <fix>3d</fix>
</trkpt>
<trkpt lat="33.810313" lon="-118.3938668">
  <ele>-0.94</ele>
  <time>2026-09-02T22:06:37Z</time>
  <course>95.0</course>
  <speed>0.0</speed>
  <fix>3d</fix>
</trkpt>
<trkpt lat="33.8103138" lon="-118.3938676">
  <ele>-0.93</ele>
  <time>2026-09-02T22:06:37Z</time>
  <course>185.8</course>
  <speed>0.1063014581273465</speed>
  <fix>3d</fix>
</trkpt>
<trkpt lat="33.810313" lon="-118.3938668">
  <ele>-0.94</ele>
  <time>2026-09-02T22:06:37Z</time>
  <course>95.0</course>
  <speed>0.0</speed>
  <fix>3d</fix>
</trkpt>
<trkpt lat="33.8103139" lon="-118.3938677">
  <ele>-0.921</ele>
  <time>2026-09-02T22:06:37Z</time>
  <course>185.8</course>
  <speed>0.11401754250991379</speed>
  <fix>3d</fix>
</trkpt>
<trkpt lat="33.810313" lon="-118.3938668">
  <ele>-0.92</ele>
  <time>2026-09-02T22:06:37Z</time>
  <course>95.0</course>
  <speed>0.0</speed>
  <fix>3d</fix>
</trkpt>
<trkpt lat="33.810314" lon="-118.3938678">
  <ele>-0.911</ele>
  <time>2026-09-02T22:06:37Z</time>
  <course>185.79</course>
  <speed>0.11401754250991379</speed>
  <fix>3d</fix>
</trkpt>
<trkpt lat="33.810313" lon="-118.3938668">
  <ele>-0.92</ele>
  <time>2026-09-02T22:06:37Z</time>
  <course>95.0</course>
  <speed>0.0</speed>
  <fix>3d</fix>
</trkpt>
<trkpt lat="33.8103142" lon="-118.393868">
  <ele>-0.901</ele>
  <time>2026-09-02T22:06:37Z</time>
  <course>185.79</course>
  <speed>0.12041594578792296</speed>
  <fix>3d</fix>
</trkpt>
<trkpt lat="33.810313" lon="-118.3938668">
  <ele>-0.9</ele>
  <time>2026-09-02T22:06:37Z</time>
  <course>95.0</course>
  <speed>0.0</speed>
  <fix>3d</fix>
</trkpt>
<trkpt lat="33.8103142" lon="-118.393868">
  <ele>-0.889</ele>
  <time>2026-09-02T22:06:37Z</time>
  <course>185.79</course>
  <speed>0.12806248474865697</speed>
  <fix>3d</fix>
</trkpt>
<trkpt lat="33.810313" lon="-118.3938668">
  <ele>-0.9</ele>
  <time>2026-09-02T22:06:37Z</time>
  <course>95.0</course>
  <speed>0.0</speed>
  <fix>3d</fix>
</trkpt>
<trkpt lat="33.8103143" lon="-118.3938681">
  <ele>-0.878</ele>
  <time>2026-09-02T22:06:37Z</time>
  <course>185.79</course>
  <speed>0.12806248474865697</speed>
  <fix>3d</fix>
</trkpt>
<trkpt lat="33.810313" lon="-118.3938668">
  <ele>-0.88</ele>
  <time>2026-09-02T22:06:37Z</time>
  <course>95.0</course>
  <speed>0.0</speed>
  <fix>3d</fix>
</trkpt>
<trkpt lat="33.8103144" lon="-118.3938682">
  <ele>-0.867</ele>
  <time>2026-09-02T22:06:37Z</time>
  <course>185.79</course>
  <speed>0.12806248474865697</speed>
  <fix>3d</fix>
</trkpt>
<trkpt lat="33.810313" lon="-118.3938668">
  <ele>-0.88</ele>
  <time>2026-09-02T22:06:37Z</time>
  <course>95.0</course>
  <speed>0.0</speed>
  <fix>3d</fix>
</trkpt>
<trkpt lat="33.8103144" lon="-118.3938682">
  <ele>-0.856</ele>
  <time>2026-09-02T22:06:37Z</time>
  <course>185.79</course>
  <speed>0.12806248474865697</speed>
  <fix>3d</fix>
</trkpt>
<trkpt lat="33.810313" lon="-118.3938668">
  <ele>-0.86</ele>
  <time>2026-09-02T22:06:37Z</time>
  <course>95.0</course>
  <speed>0.0</speed>
  <fix>3d</fix>
</trkpt>
<trkpt lat="33.8103145" lon="-118.3938683">
  <ele>-0.847</ele>
  <time>2026-09-02T22:06:37Z</time>
  <course>185.79</course>
  <speed>0.12806248474865697</speed>
  <fix>3d</fix>
</trkpt>
<trkpt lat="33.810313" lon="-118.3938668">
  <ele>-0.86</ele>
  <time>2026-09-02T22:06:37Z</time>
  <course>95.0</course>
  <speed>0.0</speed>
  <fix>3d</fix>
</trkpt>
<trkpt lat="33.8103146" lon="-118.3938684">
  <ele>-0.837</ele>
  <time>2026-09-02T22:06:37Z</time>
  <course>185.79</course>
  <speed>0.14212670403551894</speed>
  <fix>3d</fix>
</trkpt>
<trkpt lat="33.810313" lon="-118.3938668">
  <ele>-0.84</ele>
  <time>2026-09-02T22:06:37Z</time>
  <course>95.0</course>
  <speed>0.0</speed>
  <fix>3d</fix>
</trkpt>
<trkpt lat="33.8103147" lon="-118.3938685">
  <ele>-0.828</ele>
  <time>2026-09-02T22:06:37Z</time>
  <course>185.79</course>
  <speed>0.14212670403551894</speed>
  <fix>3d</fix>
</trkpt>
<trkpt lat="33.810313" lon="-118.3938668">
  <ele>-0.84</ele>
  <time>2026-09-02T22:06:37Z</time>
  <course>95.0</course>
  <speed>0.0</speed>
  <fix>3d</fix>
</trkpt>
<trkpt lat="33.8103148" lon="-118.3938686">
  <ele>-0.818</ele>
  <time>2026-09-02T22:06:37Z</time>
  <course>185.79</course>
  <speed>0.14212670403551894</speed>
  <fix>3d</fix>
</trkpt>
<trkpt lat="33.810313" lon="-118.3938668">
  <ele>-0.82</ele>
  <time>2026-09-02T22:06:37Z</time>
  <course>95.0</course>
  <speed>0.0</speed>
  <fix>3d</fix>
</trkpt>
<trkpt lat="33.8103149" lon="-118.3938687">
  <ele>-0.808</ele>
  <time>2026-09-02T22:06:37Z</time>
  <course>185.79</course>
  <speed>0.14212670403551894</speed>
  <fix>3d</fix>
</trkpt>
<trkpt lat="33.810313" lon="-118.3938668">
  <ele>-0.82</ele>
  <time>2026-09-02T22:06:37Z</time>
  <course>95.0</course>
  <speed>0.0</speed>
  <fix>3d</fix>
</trkpt>
<trkpt lat="33.8103151" lon="-118.3938688">
  <ele>-0.799</ele>
  <time>2026-09-02T22:06:37Z</time>
  <course>185.79</course>
  <speed>0.15620499351813308</speed>
  <fix>3d</fix>
</trkpt>
<trkpt lat="33.810313" lon="-118.3938668">
  <ele>-0.8</ele>
  <time>2026-09-02T22:06:37Z</time>
  <course>95.0</course>
  <speed>0.0</speed>
  <fix>3d</fix>
</trkpt>
<trkpt lat="33.8103151" lon="-118.3938689">
  <ele>-0.791</ele>
  <time>2026-09-02T22:06:37Z</time>
  <course>185.79</course>
  <speed>0.15620499351813308</speed>
  <fix>3d</fix>
</trkpt>
<trkpt lat="33.810313" lon="-118.3938668">
  <ele>-0.8</ele>
  <time>2026-09-02T22:06:37Z</time>
  <course>95.0</course>
  <speed>0.0</speed>
  <fix>3d</fix>
</trkpt>
<trkpt lat="33.8103153" lon="-118.393869">
  <ele>-0.783</ele>
  <time>2026-09-02T22:06:37Z</time>
  <course>185.78</course>
  <speed>0.16401219466856726</speed>
  <fix>3d</fix>
</trkpt>
<trkpt lat="33.810313" lon="-118.3938668">
  <ele>-0.78</ele>
  <time>2026-09-02T22:06:37Z</time>
  <course>95.0</course>
  <speed>0.0</speed>
  <fix>3d</fix>
</trkpt>
<trkpt lat="33.8103154" lon="-118.3938692">
  <ele>-0.774</ele>
  <time>2026-09-02T22:06:37Z</time>
  <course>185.78</course>
  <speed>0.17029386365926402</speed>
  <fix>3d</fix>
</trkpt>
<trkpt lat="33.810313" lon="-118.3938668">
  <ele>-0.78</ele>
  <time>2026-09-02T22:06:37Z</time>
  <course>95.0</course>
  <speed>0.0</speed>
  <fix>3d</fix>
</trkpt>
<trkpt lat="33.8103154" lon="-118.3938692">
  <ele>-0.765</ele>
  <time>2026-09-02T22:06:37Z</time>
  <course>185.78</course>
  <speed>0.17029386365926402</speed>
  <fix>3d</fix>
</trkpt>
<trkpt lat="33.810313" lon="-118.3938668">
  <ele>-0.76</ele>
  <time>2026-09-02T22:06:37Z</time>
  <course>95.0</course>
  <speed>0.0</speed>
  <fix>3d</fix>
</trkpt>
<trkpt lat="33.8103154" lon="-118.3938692">
  <ele>-0.756</ele>
  <time>2026-09-02T22:06:37Z</time>
  <course>185.78</course>
  <speed>0.16401219466856726</speed>
  <fix>3d</fix>
</trkpt>
<trkpt lat="33.810313" lon="-118.3938668">
  <ele>-0.76</ele>
  <time>2026-09-02T22:06:37Z</time>
  <course>95.0</course>
  <speed>0.0</speed>
  <fix>3d</fix>
</trkpt>
<trkpt lat="33.8103155" lon="-118.3938692">
  <ele>-0.745</ele>
  <time>2026-09-02T22:06:37Z</time>
  <course>185.78</course>
  <speed>0.16401219466856726</speed>
  <fix>3d</fix>
</trkpt>
<trkpt lat="33.810313" lon="-118.3938668">
  <ele>-0.75</ele>
  <time>2026-09-02T22:06:37Z</time>
  <course>95.0</course>
  <speed>0.0</speed>
  <fix>3d</fix>
</trkpt>
<trkpt lat="33.8103155" lon="-118.3938693">
  <ele>-0.735</ele>
  <time>2026-09-02T22:06:37Z</time>
  <course>185.78</course>
  <speed>0.16401219466856726</speed>
  <fix>3d</fix>
</trkpt>
<trkpt lat="33.810313" lon="-118.3938668">
  <ele>-0.75</ele>
  <time>2026-09-02T22:06:37Z</time>
  <course>95.0</course>
  <speed>0.0</speed>
  <fix>3d</fix>
</trkpt>
<trkpt lat="33.8103156" lon="-118.3938694">
  <ele>-0.725</ele>
  <time>2026-09-02T22:06:37Z</time>
  <course>185.78</course>
  <speed>0.17029386365926402</speed>
  <fix>3d</fix>
</trkpt>
<trkpt lat="33.810313" lon="-118.3938668">
  <ele>-0.73</ele>
  <time>2026-09-02T22:06:37Z</time>
  <course>95.0</course>
  <speed>0.0</speed>
  <fix>3d</fix>
</trkpt>
<trkpt lat="33.8103157" lon="-118.3938695">
  <ele>-0.717</ele>
  <time>2026-09-02T22:06:37Z</time>
  <course>185.78</course>
  <speed>0.17029386365926402</speed>
  <fix>3d</fix>
</trkpt>
<trkpt lat="33.810313" lon="-118.3938668">
  <ele>-0.73</ele>
  <time>2026-09-02T22:06:37Z</time>
  <course>95.0</course>
  <speed>0.0</speed>
  <fix>3d</fix>
</trkpt>
<trkpt lat="33.8103158" lon="-118.3938696">
  <ele>-0.708</ele>
  <time>2026-09-02T22:06:37Z</time>
  <course>185.78</course>
  <speed>0.17804493814764857</speed>
  <fix>3d</fix>
</trkpt>
<trkpt lat="33.810313" lon="-118.3938668">
  <ele>-0.71</ele>
  <time>2026-09-02T22:06:37Z</time>
  <course>95.0</course>
  <speed>0.0</speed>
  <fix>3d</fix>
</trkpt>
<trkpt lat="33.810316" lon="-118.3938697">
  <ele>-0.699</ele>
  <time>2026-09-02T22:06:37Z</time>
  <course>185.78</course>
  <speed>0.17804493814764857</speed>
  <fix>3d</fix>
</trkpt>
<trkpt lat="33.810313" lon="-118.3938668">
  <ele>-0.71</ele>
  <time>2026-09-02T22:06:37Z</time>
  <course>95.0</course>
  <speed>0.0</speed>
  <fix>3d</fix>
</trkpt>
<trkpt lat="33.8103161" lon="-118.3938699">
  <ele>-0.689</ele>
  <time>2026-09-02T22:06:37Z</time>
  <course>185.78</course>
  <speed>0.18439088914585774</speed>
  <fix>3d</fix>
</trkpt>
<trkpt lat="33.810313" lon="-118.3938668">
  <ele>-0.69</ele>
  <time>2026-09-02T22:06:37Z</time>
  <course>95.0</course>
  <speed>0.0</speed>
  <fix>3d</fix>
</trkpt>
<trkpt lat="33.8103162" lon="-118.39387">
  <ele>-0.68</ele>
  <time>2026-09-02T22:06:37Z</time>
  <course>185.77</course>
  <speed>0.19209372712298545</speed>
  <fix>3d</fix>
</trkpt>
<trkpt lat="33.810313" lon="-118.3938668">
  <ele>-0.69</ele>
  <time>2026-09-02T22:06:37Z</time>
  <course>95.0</course>
  <speed>0.0</speed>
  <fix>3d</fix>
</trkpt>
<trkpt lat="33.8103162" lon="-118.39387">
  <ele>-0.671</ele>
  <time>2026-09-02T22:06:37Z</time>
  <course>185.77</course>
  <speed>0.19209372712298545</speed>
  <fix>3d</fix>
</trkpt>
<trkpt lat="33.810313" lon="-118.3938668">
  <ele>-0.67</ele>
  <time>2026-09-02T22:06:37Z</time>
  <course>95.0</course>
  <speed>0.0</speed>
  <fix>3d</fix>
</trkpt>
<trkpt lat="33.8103162" lon="-118.3938699">
  <ele>-0.66</ele>
  <time>2026-09-02T22:06:37Z</time>
  <course>185.77</course>
  <speed>0.18439088914585774</speed>
  <fix>3d</fix>
</trkpt>
<trkpt lat="33.810313" lon="-118.3938668">
  <ele>-0.67</ele>
  <time>2026-09-02T22:06:37Z</time>
  <course>95.0</course>
  <speed>0.0</speed>
  <fix>3d</fix>
</trkpt>
<trkpt lat="33.8103162" lon="-118.3938699">
  <ele>-0.65</ele>
  <time>2026-09-02T22:06:37Z</time>
  <course>185.77</course>
  <speed>0.18439088914585774</speed>
  <fix>3d</fix>
</trkpt>
<trkpt lat="33.810313" lon="-118.3938668">
  <ele>-0.65</ele>
  <time>2026-09-02T22:06:37Z</time>
  <course>95.0</course>
  <speed>0.0</speed>
  <fix>3d</fix>
</trkpt>
<trkpt lat="33.8103162" lon="-118.39387">
  <ele>-0.64</ele>
  <time>2026-09-02T22:06:37Z</time>
  <course>185.77</course>
  <speed>0.18439088914585774</speed>
  <fix>3d</fix>
</trkpt>
<trkpt lat="33.810313" lon="-118.3938668">
  <ele>-0.65</ele>
  <time>2026-09-02T22:06:37Z</time>
  <course>95.0</course>
  <speed>0.0</speed>
  <fix>3d</fix>
</trkpt>
<trkpt lat="33.8103163" lon="-118.39387">
  <ele>-0.629</ele>
  <time>2026-09-02T22:06:37Z</time>
  <course>185.77</course>
  <speed>0.18439088914585774</speed>
  <fix>3d</fix>
</trkpt>
<trkpt lat="33.810313" lon="-118.3938668">
  <ele>-0.63</ele>
  <time>2026-09-02T22:06:37Z</time>
  <course>95.0</course>
  <speed>0.0</speed>
  <fix>3d</fix>
</trkpt>
<trkpt lat="33.8103164" lon="-118.3938701">
  <ele>-0.618</ele>
  <time>2026-09-02T22:06:37Z</time>
  <course>185.77</course>
  <speed>0.19209372712298545</speed>
  <fix>3d</fix>
</trkpt>
<trkpt lat="33.810313" lon="-118.3938668">
  <ele>-0.63</ele>
  <time>2026-09-02T22:06:37Z</time>
  <course>95.0</course>
  <speed>0.0</speed>
  <fix>3d</fix>
</trkpt>
<trkpt lat="33.8103165" lon="-118.3938703">
  <ele>-0.609</ele>
  <time>2026-09-02T22:06:37Z</time>
  <course>185.77</course>
  <speed>0.19209372712298545</speed>
  <fix>3d</fix>
</trkpt>
<trkpt lat="33.810313" lon="-118.3938668">
  <ele>-0.61</ele>
  <time>2026-09-02T22:06:37Z</time>
  <course>95.0</course>
  <speed>0.0</speed>
  <fix>3d</fix>
</trkpt>
<trkpt lat="33.8103166" lon="-118.3938704">
  <ele>-0.599</ele>
  <time>2026-09-02T22:06:37Z</time>
  <course>185.77</course>
  <speed>0.19209372712298545</speed>
  <fix>3d</fix>
</trkpt>
<trkpt lat="33.810313" lon="-118.3938668">
  <ele>-0.61</ele>
  <time>2026-09-02T22:06:37Z</time>
  <course>95.0</course>
  <speed>0.0</speed>
  <fix>3d</fix>
</trkpt>
<trkpt lat="33.8103168" lon="-118.3938705">
  <ele>-0.591</ele>
  <time>2026-09-02T22:06:37Z</time>
  <course>185.77</course>
  <speed>0.20615528128088303</speed>
  <fix>3d</fix>
</trkpt>
<trkpt lat="33.810313" lon="-118.3938668">
  <ele>-0.59</ele>
  <time>2026-09-02T22:06:37Z</time>
  <course>95.0</course>
  <speed>0.0</speed>
  <fix>3d</fix>
</trkpt>
<trkpt lat="33.8103169" lon="-118.3938707">
  <ele>-0.581</ele>
  <time>2026-09-02T22:06:37Z</time>
  <course>185.77</course>
  <speed>0.20615528128088303</speed>
  <fix>3d</fix>
</trkpt>
<trkpt lat="33.810313" lon="-118.3938668">
  <ele>-0.59</ele>
  <time>2026-09-02T22:06:37Z</time>
  <course>95.0</course>
  <speed>0.0</speed>
  <fix>3d</fix>
</trkpt>
<trkpt lat="33.8103171" lon="-118.3938708">
  <ele>-0.571</ele>
  <time>2026-09-02T22:06:37Z</time>
  <course>185.76</course>
  <speed>0.21400934559032694</speed>
  <fix>3d</fix>
</trkpt>
<trkpt lat="33.810313" lon="-118.3938668">
  <ele>-0.57</ele>
  <time>2026-09-02T22:06:37Z</time>
  <course>95.0</course>
  <speed>0.0</speed>
  <fix>3d</fix>
</trkpt>
<trkpt lat="33.810317" lon="-118.3938707">
  <ele>-0.561</ele>
  <time>2026-09-02T22:06:37Z</time>
  <course>185.76</course>
  <speed>0.20615528128088303</speed>
  <fix>3d</fix>
</trkpt>
<trkpt lat="33.810313" lon="-118.3938668">
  <ele>-0.57</ele>
  <time>2026-09-02T22:06:37Z</time>
  <course>95.0</course>
  <speed>0.0</speed>
  <fix>3d</fix>
</trkpt>
<trkpt lat="33.8103168" lon="-118.3938706">
  <ele>-0.552</ele>
  <time>2026-09-02T22:06:37Z</time>
  <course>185.76</course>
  <speed>0.20615528128088303</speed>
  <fix>3d</fix>
</trkpt>
<trkpt lat="33.810313" lon="-118.3938668">
  <ele>-0.55</ele>
  <time>2026-09-02T22:06:37Z</time>
  <course>95.0</course>
  <speed>0.0</speed>
  <fix>3d</fix>
</trkpt>
<trkpt lat="33.8103168" lon="-118.3938706">
  <ele>-0.543</ele>
  <time>2026-09-02T22:06:37Z</time>
  <course>185.76</course>
  <speed>0.20615528128088303</speed>
  <fix>3d</fix>
</trkpt>
<trkpt lat="33.810313" lon="-118.3938668">
  <ele>-0.55</ele>
  <time>2026-09-02T22:06:37Z</time>
  <course>95.0</course>
  <speed>0.0</speed>
  <fix>3d</fix>
</trkpt>
<trkpt lat="33.8103168" lon="-118.3938706">
  <ele>-0.533</ele>
  <time>2026-09-02T22:06:37Z</time>
  <course>185.76</course>
  <speed>0.20615528128088303</speed>
  <fix>3d</fix>
</trkpt>
<trkpt lat="33.810313" lon="-118.3938668">
  <ele>-0.53</ele>
  <time>2026-09-02T22:06:37Z</time>
  <course>95.0</course>
  <speed>0.0</speed>
  <fix>3d</fix>
</trkpt>
<trkpt lat="33.8103169" lon="-118.3938706">
  <ele>-0.524</ele>
  <time>2026-09-02T22:06:37Z</time>
  <course>185.76</course>
  <speed>0.20615528128088303</speed>
  <fix>3d</fix>
</trkpt>
<trkpt lat="33.810313" lon="-118.3938668">
  <ele>-0.53</ele>
  <time>2026-09-02T22:06:37Z</time>
  <course>95.0</course>
  <speed>0.0</speed>
  <fix>3d</fix>
</trkpt>
<trkpt lat="33.810317" lon="-118.3938707">
  <ele>-0.514</ele>
  <time>2026-09-02T22:06:37Z</time>
  <course>185.76</course>
  <speed>0.20615528128088303</speed>
  <fix>3d</fix>
</trkpt>
<trkpt lat="33.810313" lon="-118.3938668">
  <ele>-0.52</ele>
  <time>2026-09-02T22:06:37Z</time>
  <course>95.0</course>
  <speed>0.0</speed>
  <fix>3d</fix>
</trkpt>
<trkpt lat="33.8103171" lon="-118.3938708">
  <ele>-0.505</ele>
  <time>2026-09-02T22:06:37Z</time>
  <course>185.76</course>
  <speed>0.20615528128088303</speed>
  <fix>3d</fix>
</trkpt>
<trkpt lat="33.810313" lon="-118.3938668">
  <ele>-0.52</ele>
  <time>2026-09-02T22:06:37Z</time>
  <course>95.0</course>
  <speed>0.0</speed>
  <fix>3d</fix>
</trkpt>
<trkpt lat="33.8103172" lon="-118.393871">
  <ele>-0.496</ele>
  <time>2026-09-02T22:06:37Z</time>
  <course>185.76</course>
  <speed>0.20615528128088303</speed>
  <fix>3d</fix>
</trkpt>
<trkpt lat="33.810313" lon="-118.3938668">
  <ele>-0.5</ele>
  <time>2026-09-02T22:06:37Z</time>
  <course>95.0</course>
  <speed>0.0</speed>
  <fix>3d</fix>
</trkpt>
<trkpt lat="33.8103174" lon="-118.3938711">
  <ele>-0.486</ele>
  <time>2026-09-02T22:06:37Z</time>
  <course>185.76</course>
  <speed>0.22022715545545238</speed>
  <fix>3d</fix>
</trkpt>
<trkpt lat="33.810313" lon="-118.3938668">
  <ele>-0.5</ele>
  <time>2026-09-02T22:06:37Z</time>
  <course>95.0</course>
  <speed>0.0</speed>
  <fix>3d</fix>
</trkpt>
<trkpt lat="33.8103175" lon="-118.3938713">
  <ele>-0.477</ele>
  <time>2026-09-02T22:06:37Z</time>
  <course>185.76</course>
  <speed>0.22022715545545238</speed>
  <fix>3d</fix>
</trkpt>
<trkpt lat="33.810313" lon="-118.3938668">
  <ele>-0.48</ele>
  <time>2026-09-02T22:06:37Z</time>
  <course>95.0</course>
  <speed>0.0</speed>
  <fix>3d</fix>
</trkpt>
<trkpt lat="33.8103174" lon="-118.3938711">
  <ele>-0.468</ele>
  <time>2026-09-02T22:06:37Z</time>
  <course>185.76</course>
  <speed>0.22022715545545238</speed>
  <fix>3d</fix>
</trkpt>
<trkpt lat="33.810313" lon="-118.3938668">
  <ele>-0.48</ele>
  <time>2026-09-02T22:06:37Z</time>
  <course>95.0</course>
  <speed>0.0</speed>
  <fix>3d</fix>
</trkpt>
<trkpt lat="33.8103172" lon="-118.3938709">
  <ele>-0.458</ele>
  <time>2026-09-02T22:06:37Z</time>
  <course>185.76</course>
  <speed>0.20615528128088303</speed>
  <fix>3d</fix>
</trkpt>
<trkpt lat="33.810313" lon="-118.3938668">
  <ele>-0.45</ele>
  <time>2026-09-02T22:06:37Z</time>
  <course>95.0</course>
  <speed>0.0</speed>
  <fix>3d</fix>
</trkpt>
<trkpt lat="33.8103171" lon="-118.3938709">
  <ele>-0.449</ele>
  <time>2026-09-02T22:06:37Z</time>
  <course>185.75</course>
  <speed>0.20615528128088303</speed>
  <fix>3d</fix>
</trkpt>
<trkpt lat="33.810313" lon="-118.3938668">
  <ele>-0.45</ele>
  <time>2026-09-02T22:06:37Z</time>
  <course>95.0</course>
  <speed>0.0</speed>
  <fix>3d</fix>
</trkpt>
<trkpt lat="33.8103171" lon="-118.3938709">
  <ele>-0.438</ele>
  <time>2026-09-02T22:06:37Z</time>
  <course>185.75</course>
  <speed>0.20615528128088303</speed>
  <fix>3d</fix>
</trkpt>
<trkpt lat="33.810313" lon="-118.3938668">
  <ele>-0.44</ele>
  <time>2026-09-02T22:06:37Z</time>
  <course>95.0</course>
  <speed>0.0</speed>
  <fix>3d</fix>
</trkpt>
<trkpt lat="33.8103172" lon="-118.3938709">
  <ele>-0.427</ele>
  <time>2026-09-02T22:06:37Z</time>
  <course>185.75</course>
  <speed>0.20615528128088303</speed>
  <fix>3d</fix>
</trkpt>
<trkpt lat="33.810313" lon="-118.3938668">
  <ele>-0.44</ele>
  <time>2026-09-02T22:06:37Z</time>
  <course>95.0</course>
  <speed>0.0</speed>
  <fix>3d</fix>
</trkpt>
<trkpt lat="33.8103172" lon="-118.393871">
  <ele>-0.417</ele>
  <time>2026-09-02T22:06:37Z</time>
  <course>185.75</course>
  <speed>0.20615528128088303</speed>
  <fix>3d</fix>
</trkpt>
<trkpt lat="33.810313" lon="-118.3938668">
  <ele>-0.42</ele>
  <time>2026-09-02T22:06:37Z</time>
  <course>95.0</course>
  <speed>0.0</speed>
  <fix>3d</fix>
</trkpt>
<trkpt lat="33.8103173" lon="-118.3938711">
  <ele>-0.408</ele>
  <time>2026-09-02T22:06:37Z</time>
  <course>185.75</course>
  <speed>0.20615528128088303</speed>
  <fix>3d</fix>
</trkpt>
<trkpt lat="33.810313" lon="-118.3938668">
  <ele>-0.42</ele>
  <time>2026-09-02T22:06:37Z</time>
  <course>95.0</course>
  <speed>0.0</speed>
  <fix>3d</fix>
</trkpt>
<trkpt lat="33.8103175" lon="-118.3938712">
  <ele>-0.399</ele>
  <time>2026-09-02T22:06:37Z</time>
  <course>185.75</course>
  <speed>0.22022715545545238</speed>
  <fix>3d</fix>
</trkpt>
<trkpt lat="33.810313" lon="-118.3938668">
  <ele>-0.39</ele>
  <time>2026-09-02T22:06:37Z</time>
  <course>95.0</course>
  <speed>0.0</speed>
  <fix>3d</fix>
</trkpt>
<trkpt lat="33.8103176" lon="-118.3938714">
  <ele>-0.391</ele>
  <time>2026-09-02T22:06:37Z</time>
  <course>185.75</course>
  <speed>0.22022715545545238</speed>
  <fix>3d</fix>
</trkpt>
<trkpt lat="33.810313" lon="-118.3938668">
  <ele>-0.39</ele>
  <time>2026-09-02T22:06:37Z</time>
  <course>95.0</course>
  <speed>0.0</speed>
  <fix>3d</fix>
</trkpt>
<trkpt lat="33.8103178" lon="-118.3938715">
  <ele>-0.383</ele>
  <time>2026-09-02T22:06:37Z</time>
  <course>185.75</course>
  <speed>0.22803508501982758</speed>
  <fix>3d</fix>
</trkpt>
<trkpt lat="33.810313" lon="-118.3938668">
  <ele>-0.38</ele>
  <time>2026-09-02T22:06:37Z</time>
  <course>95.0</course>
  <speed>0.0</speed>
  <fix>3d</fix>
</trkpt>
<trkpt lat="33.8103176" lon="-118.3938713">
  <ele>-0.374</ele>
  <time>2026-09-02T22:06:37Z</time>
  <course>185.75</course>
  <speed>0.22022715545545238</speed>
  <fix>3d</fix>
</trkpt>
<trkpt lat="33.810313" lon="-118.3938668">
  <ele>-0.38</ele>
  <time>2026-09-02T22:06:37Z</time>
  <course>95.0</course>
  <speed>0.0</speed>
  <fix>3d</fix>
</trkpt>
<trkpt lat="33.8103173" lon="-118.3938711">
  <ele>-0.365</ele>
  <time>2026-09-02T22:06:37Z</time>
  <course>185.75</course>
  <speed>0.20615528128088303</speed>
  <fix>3d</fix>
</trkpt>
<trkpt lat="33.810313" lon="-118.3938668">
  <ele>-0.36</ele>
  <time>2026-09-02T22:06:37Z</time>
  <course>95.0</course>
  <speed>0.0</speed>
  <fix>3d</fix>
</trkpt>
<trkpt lat="33.8103172" lon="-118.393871">
  <ele>-0.356</ele>
  <time>2026-09-02T22:06:37Z</time>
  <course>185.75</course>
  <speed>0.20615528128088303</speed>
  <fix>3d</fix>
</trkpt>
<trkpt lat="33.810313" lon="-118.3938668">
  <ele>-0.36</ele>
  <time>2026-09-02T22:06:37Z</time>
  <course>95.0</course>
  <speed>0.0</speed>
  <fix>3d</fix>
</trkpt>
<trkpt lat="33.8103172" lon="-118.393871">
  <ele>-0.345</ele>
  <time>2026-09-02T22:06:37Z</time>
  <course>185.74</course>
  <speed>0.20615528128088303</speed>
  <fix>3d</fix>
</trkpt>
<trkpt lat="33.810313" lon="-118.3938668">
  <ele>-0.35</ele>
  <time>2026-09-02T22:06:37Z</time>
  <course>95.0</course>
  <speed>0.0</speed>
  <fix>3d</fix>
</trkpt>
<trkpt lat="33.8103172" lon="-118.393871">
  <ele>-0.334</ele>
  <time>2026-09-02T22:06:37Z</time>
  <course>185.74</course>
  <speed>0.20615528128088303</speed>
  <fix>3d</fix>
</trkpt>
<trkpt lat="33.810313" lon="-118.3938668">
  <ele>-0.35</ele>
  <time>2026-09-02T22:06:37Z</time>
  <course>95.0</course>
  <speed>0.0</speed>
  <fix>3d</fix>
</trkpt>
<trkpt lat="33.8103173" lon="-118.3938711">
  <ele>-0.323</ele>
  <time>2026-09-02T22:06:37Z</time>
  <course>185.74</course>
  <speed>0.20615528128088303</speed>
  <fix>3d</fix>
</trkpt>
<trkpt lat="33.810313" lon="-118.3938668">
  <ele>-0.32</ele>
  <time>2026-09-02T22:06:37Z</time>
  <course>95.0</course>
  <speed>0.0</speed>
  <fix>3d</fix>
</trkpt>
<trkpt lat="33.8103174" lon="-118.3938712">
  <ele>-0.311</ele>
  <time>2026-09-02T22:06:37Z</time>
  <course>185.74</course>
  <speed>0.21400934559032694</speed>
  <fix>3d</fix>
</trkpt>
<trkpt lat="33.810313" lon="-118.3938668">
  <ele>-0.32</ele>
  <time>2026-09-02T22:06:37Z</time>
  <course>95.0</course>
  <speed>0.0</speed>
  <fix>3d</fix>
</trkpt>
<trkpt lat="33.8103175" lon="-118.3938713">
  <ele>-0.3</ele>
  <time>2026-09-02T22:06:37Z</time>
  <course>185.74</course>
  <speed>0.22022715545545238</speed>
  <fix>3d</fix>
</trkpt>
<trkpt lat="33.810313" lon="-118.3938668">
  <ele>-0.31</ele>
  <time>2026-09-02T22:06:37Z</time>
  <course>95.0</course>
  <speed>0.0</speed>
  <fix>3d</fix>
</trkpt>
<trkpt lat="33.8103177" lon="-118.3938714">
  <ele>-0.29</ele>
  <time>2026-09-02T22:06:37Z</time>
  <course>185.74</course>
  <speed>0.22022715545545238</speed>
  <fix>3d</fix>
</trkpt>
<trkpt lat="33.810313" lon="-118.3938668">
  <ele>-0.31</ele>
  <time>2026-09-02T22:06:37Z</time>
  <course>95.0</course>
  <speed>0.0</speed>
  <fix>3d</fix>
</trkpt>
<trkpt lat="33.8103178" lon="-118.3938716">
  <ele>-0.28</ele>
  <time>2026-09-02T22:06:37Z</time>
  <course>185.74</course>
  <speed>0.22803508501982758</speed>
  <fix>3d</fix>
</trkpt>
<trkpt lat="33.810313" lon="-118.3938668">
  <ele>-0.29</ele>
  <time>2026-09-02T22:06:37Z</time>
  <course>95.0</course>
  <speed>0.0</speed>
  <fix>3d</fix>
</trkpt>
<trkpt lat="33.8103176" lon="-118.3938713">
  <ele>-0.27</ele>
  <time>2026-09-02T22:06:37Z</time>
  <course>185.74</course>
  <speed>0.22022715545545238</speed>
  <fix>3d</fix>
</trkpt>
<trkpt lat="33.810313" lon="-118.3938668">
  <ele>-0.29</ele>
  <time>2026-09-02T22:06:37Z</time>
  <course>95.0</course>
  <speed>0.0</speed>
  <fix>3d</fix>
</trkpt>
<trkpt lat="33.8103173" lon="-118.3938711">
  <ele>-0.26</ele>
  <time>2026-09-02T22:06:37Z</time>
  <course>185.74</course>
  <speed>0.20615528128088303</speed>
  <fix>3d</fix>
</trkpt>
<trkpt lat="33.810313" lon="-118.3938668">
  <ele>-0.26</ele>
  <time>2026-09-02T22:06:37Z</time>
  <course>95.0</course>
  <speed>0.0</speed>
  <fix>3d</fix>
</trkpt>
<trkpt lat="33.8103172" lon="-118.393871">
  <ele>-0.249</ele>
  <time>2026-09-02T22:06:37Z</time>
  <course>185.74</course>
  <speed>0.20615528128088303</speed>
  <fix>3d</fix>
</trkpt>
<trkpt lat="33.810313" lon="-118.3938668">
  <ele>-0.26</ele>
  <time>2026-09-02T22:06:37Z</time>
  <course>95.0</course>
  <speed>0.0</speed>
  <fix>3d</fix>
</trkpt>
<trkpt lat="33.8103172" lon="-118.3938709">
  <ele>-0.239</ele>
  <time>2026-09-02T22:06:37Z</time>
  <course>185.74</course>
  <speed>0.20615528128088303</speed>
  <fix>3d</fix>
</trkpt>
<trkpt lat="33.810313" lon="-118.3938668">
  <ele>-0.25</ele>
  <time>2026-09-02T22:06:37Z</time>
  <course>95.0</course>
  <speed>0.0</speed>
  <fix>3d</fix>
</trkpt>
<trkpt lat="33.8103172" lon="-118.3938709">
  <ele>-0.228</ele>
  <time>2026-09-02T22:06:37Z</time>
  <course>185.74</course>
  <speed>0.20615528128088303</speed>
  <fix>3d</fix>
</trkpt>
<trkpt lat="33.810313" lon="-118.3938668">
  <ele>-0.25</ele>
  <time>2026-09-02T22:06:37Z</time>
  <course>95.0</course>
  <speed>0.0</speed>
  <fix>3d</fix>
</trkpt>
<trkpt lat="33.8103172" lon="-118.393871">
  <ele>-0.217</ele>
  <time>2026-09-02T22:06:37Z</time>
  <course>185.74</course>
  <speed>0.20615528128088303</speed>
  <fix>3d</fix>
</trkpt>
<trkpt lat="33.810313" lon="-118.3938668">
  <ele>-0.22</ele>
  <time>2026-09-02T22:06:37Z</time>
  <course>95.0</course>
  <speed>0.0</speed>
  <fix>3d</fix>
</trkpt>
<trkpt lat="33.8103173" lon="-118.3938711">
  <ele>-0.207</ele>
  <time>2026-09-02T22:06:37Z</time>
  <course>185.74</course>
  <speed>0.20615528128088303</speed>
  <fix>3d</fix>
</trkpt>
<trkpt lat="33.810313" lon="-118.3938668">
  <ele>-0.22</ele>
  <time>2026-09-02T22:06:37Z</time>
  <course>95.0</course>
  <speed>0.0</speed>
  <fix>3d</fix>
</trkpt>
<trkpt lat="33.8103175" lon="-118.3938712">
  <ele>-0.197</ele>
  <time>2026-09-02T22:06:37Z</time>
  <course>185.73</course>
  <speed>0.21400934559032694</speed>
  <fix>3d</fix>
</trkpt>
<trkpt lat="33.810313" lon="-118.3938668">
  <ele>-0.21</ele>
  <time>2026-09-02T22:06:37Z</time>
  <course>95.0</course>
  <speed>0.0</speed>
  <fix>3d</fix>
</trkpt>
<trkpt lat="33.8103176" lon="-118.3938713">
  <ele>-0.187</ele>
  <time>2026-09-02T22:06:37Z</time>
  <course>185.73</course>
  <speed>0.22022715545545238</speed>
  <fix>3d</fix>
</trkpt>
<trkpt lat="33.810313" lon="-118.3938668">
  <ele>-0.21</ele>
  <time>2026-09-02T22:06:37Z</time>
  <course>95.0</course>
  <speed>0.0</speed>
  <fix>3d</fix>
</trkpt>
<trkpt lat="33.8103178" lon="-118.3938715">
  <ele>-0.177</ele>
  <time>2026-09-02T22:06:37Z</time>
  <course>185.73</course>
  <speed>0.22022715545545238</speed>
  <fix>3d</fix>
</trkpt>
<trkpt lat="33.810313" lon="-118.3938668">
  <ele>-0.19</ele>
  <time>2026-09-02T22:06:37Z</time>
  <course>95.0</course>
  <speed>0.0</speed>
  <fix>3d</fix>
</trkpt>
<trkpt lat="33.8103175" lon="-118.3938713">
  <ele>-0.166</ele>
  <time>2026-09-02T22:06:37Z</time>
  <course>185.73</course>
  <speed>0.22022715545545238</speed>
  <fix>3d</fix>
</trkpt>
<trkpt lat="33.810313" lon="-118.3938668">
  <ele>-0.19</ele>
  <time>2026-09-02T22:06:37Z</time>
  <course>95.0</course>
  <speed>0.0</speed>
  <fix>3d</fix>
</trkpt>
<trkpt lat="33.8103172" lon="-118.393871">
  <ele>-0.157</ele>
  <time>2026-09-02T22:06:37Z</time>
  <course>185.73</course>
  <speed>0.20615528128088303</speed>
  <fix>3d</fix>
</trkpt>
<trkpt lat="33.810313" lon="-118.3938667">
  <ele>-0.17</ele>
  <time>2026-09-02T22:06:37Z</time>
  <course>95.0</course>
  <speed>0.0</speed>
  <fix>3d</fix>
</trkpt>
<trkpt lat="33.8103171" lon="-118.3938708">
  <ele>-0.148</ele>
  <time>2026-09-02T22:06:37Z</time>
  <course>185.73</course>
  <speed>0.20615528128088303</speed>
  <fix>3d</fix>
</trkpt>
<trkpt lat="33.810313" lon="-118.3938667">
  <ele>-0.17</ele>
  <time>2026-09-02T22:06:37Z</time>
  <course>95.0</course>
  <speed>0.0</speed>
  <fix>3d</fix>
</trkpt>
<trkpt lat="33.810317" lon="-118.3938708">
  <ele>-0.14</ele>
  <time>2026-09-02T22:06:37Z</time>
  <course>185.73</course>
  <speed>0.20615528128088303</speed>
  <fix>3d</fix>
</trkpt>
<trkpt lat="33.810313" lon="-118.3938667">
  <ele>-0.15</ele>
  <time>2026-09-02T22:06:37Z</time>
  <course>95.0</course>
  <speed>0.0</speed>
  <fix>3d</fix>
</trkpt>
<trkpt lat="33.810317" lon="-118.3938708">
  <ele>-0.131</ele>
  <time>2026-09-02T22:06:37Z</time>
  <course>185.73</course>
  <speed>0.20615528128088303</speed>
  <fix>3d</fix>
</trkpt>
<trkpt lat="33.810313" lon="-118.3938667">
  <ele>-0.15</ele>
  <time>2026-09-02T22:06:37Z</time>
  <course>95.0</course>
  <speed>0.0</speed>
  <fix>3d</fix>
</trkpt>
<trkpt lat="33.8103171" lon="-118.3938708">
  <ele>-0.121</ele>
  <time>2026-09-02T22:06:37Z</time>
  <course>185.73</course>
  <speed>0.20615528128088303</speed>
  <fix>3d</fix>
</trkpt>
<trkpt lat="33.810313" lon="-118.3938667">
  <ele>-0.14</ele>
  <time>2026-09-02T22:06:37Z</time>
  <course>95.0</course>
  <speed>0.0</speed>
  <fix>3d</fix>
</trkpt>
<trkpt lat="33.8103172" lon="-118.3938709">
  <ele>-0.112</ele>
  <time>2026-09-02T22:06:37Z</time>
  <course>185.73</course>
  <speed>0.20615528128088303</speed>
  <fix>3d</fix>
</trkpt>
<trkpt lat="33.810313" lon="-118.3938667">
  <ele>-0.14</ele>
  <time>2026-09-02T22:06:37Z</time>
  <course>95.0</course>
  <speed>0.0</speed>
  <fix>3d</fix>
</trkpt>
<trkpt lat="33.8103173" lon="-118.393871">
  <ele>-0.106</ele>
  <time>2026-09-02T22:06:37Z</time>
  <course>185.73</course>
  <speed>0.20615528128088303</speed>
  <fix>3d</fix>
</trkpt>
<trkpt lat="33.810313" lon="-118.3938667">
  <ele>-0.12</ele>
  <time>2026-09-02T22:06:37Z</time>
  <course>95.0</course>
  <speed>0.0</speed>
  <fix>3d</fix>
</trkpt>
<trkpt lat="33.8103174" lon="-118.3938712">
  <ele>-0.106</ele>
  <time>2026-09-02T22:06:37Z</time>
  <course>185.73</course>
  <speed>0.21400934559032694</speed>
  <fix>3d</fix>
</trkpt>
<trkpt lat="33.810313" lon="-118.3938667">
  <ele>-0.12</ele>
  <time>2026-09-02T22:06:37Z</time>
  <course>95.0</course>
  <speed>0.0</speed>
  <fix>3d</fix>
</trkpt>
<trkpt lat="33.8103176" lon="-118.3938713">
  <ele>-0.111</ele>
  <time>2026-09-02T22:06:37Z</time>
  <course>185.72</course>
  <speed>0.22022715545545238</speed>
  <fix>3d</fix>
</trkpt>
<trkpt lat="33.810313" lon="-118.3938667">
  <ele>-0.11</ele>
  <time>2026-09-02T22:06:37Z</time>
  <course>95.0</course>
  <speed>0.0</speed>
  <fix>3d</fix>
</trkpt>
<trkpt lat="33.8103173" lon="-118.3938711">
  <ele>-0.119</ele>
  <time>2026-09-02T22:06:37Z</time>
  <course>185.72</course>
  <speed>0.21400934559032694</speed>
  <fix>3d</fix>
</trkpt>
<trkpt lat="33.810313" lon="-118.3938667">
  <ele>-0.11</ele>
  <time>2026-09-02T22:06:37Z</time>
  <course>95.0</course>
  <speed>0.0</speed>
  <fix>3d</fix>
</trkpt>
<trkpt lat="33.810317" lon="-118.3938708">
  <ele>-0.129</ele>
  <time>2026-09-02T22:06:37Z</time>
  <course>185.72</course>
  <speed>0.20615528128088303</speed>
  <fix>3d</fix>
</trkpt>
<trkpt lat="33.810313" lon="-118.3938667">
  <ele>-0.11</ele>
  <time>2026-09-02T22:06:37Z</time>
  <course>95.0</course>
  <speed>0.0</speed>
  <fix>3d</fix>
</trkpt>
<trkpt lat="33.8103168" lon="-118.3938706">
  <ele>-0.137</ele>
  <time>2026-09-02T22:06:37Z</time>
  <course>185.72</course>
  <speed>0.2</speed>
  <fix>3d</fix>
</trkpt>
<trkpt lat="33.810313" lon="-118.3938667">
  <ele>-0.11</ele>
  <time>2026-09-02T22:06:37Z</time>
  <course>95.0</course>
  <speed>0.0</speed>
  <fix>3d</fix>
</trkpt>
<trkpt lat="33.8103168" lon="-118.3938705">
  <ele>-0.144</ele>
  <time>2026-09-02T22:06:37Z</time>
  <course>185.72</course>
  <speed>0.19209372712298545</speed>
  <fix>3d</fix>
</trkpt>
<trkpt lat="33.810313" lon="-118.3938667">
  <ele>-0.13</ele>
  <time>2026-09-02T22:06:37Z</time>
  <course>95.0</course>
  <speed>0.0</speed>
  <fix>3d</fix>
</trkpt>
<trkpt lat="33.8103167" lon="-118.3938705">
  <ele>-0.151</ele>
  <time>2026-09-02T22:06:37Z</time>
  <course>185.72</course>
  <speed>0.19209372712298545</speed>
  <fix>3d</fix>
</trkpt>
<trkpt lat="33.810313" lon="-118.3938667">
  <ele>-0.13</ele>
  <time>2026-09-02T22:06:37Z</time>
  <course>95.0</course>
  <speed>0.0</speed>
  <fix>3d</fix>
</trkpt>
<trkpt lat="33.8103168" lon="-118.3938706">
  <ele>-0.157</ele>
  <time>2026-09-02T22:06:37Z</time>
  <course>185.72</course>
  <speed>0.2</speed>
  <fix>3d</fix>
</trkpt>
<trkpt lat="33.810313" lon="-118.3938667">
  <ele>-0.14</ele>
  <time>2026-09-02T22:06:37Z</time>
  <course>95.0</course>
  <speed>0.0</speed>
  <fix>3d</fix>
</trkpt>
<trkpt lat="33.8103169" lon="-118.3938706">
  <ele>-0.164</ele>
  <time>2026-09-02T22:06:37Z</time>
  <course>185.72</course>
  <speed>0.20615528128088303</speed>
  <fix>3d</fix>
</trkpt>
<trkpt lat="33.810313" lon="-118.3938667">
  <ele>-0.14</ele>
  <time>2026-09-02T22:06:37Z</time>
  <course>95.0</course>
  <speed>0.0</speed>
  <fix>3d</fix>
</trkpt>
<trkpt lat="33.810317" lon="-118.3938708">
  <ele>-0.17</ele>
  <time>2026-09-02T22:06:37Z</time>
  <course>185.72</course>
  <speed>0.20615528128088303</speed>
  <fix>3d</fix>
</trkpt>
<trkpt lat="33.810313" lon="-118.3938667">
  <ele>-0.15</ele>
  <time>2026-09-02T22:06:37Z</time>
  <course>95.0</course>
  <speed>0.0</speed>
  <fix>3d</fix>
</trkpt>
<trkpt lat="33.8103171" lon="-118.3938709">
  <ele>-0.174</ele>
  <time>2026-09-02T22:06:37Z</time>
  <course>185.72</course>
  <speed>0.20615528128088303</speed>
  <fix>3d</fix>
</trkpt>
<trkpt lat="33.810313" lon="-118.3938667">
  <ele>-0.15</ele>
  <time>2026-09-02T22:06:37Z</time>
  <course>95.0</course>
  <speed>0.0</speed>
  <fix>3d</fix>
</trkpt>
<trkpt lat="33.8103173" lon="-118.393871">
  <ele>-0.177</ele>
  <time>2026-09-02T22:06:37Z</time>
  <course>185.72</course>
  <speed>0.21400934559032694</speed>
  <fix>3d</fix>
</trkpt>
<trkpt lat="33.810313" lon="-118.3938667">
  <ele>-0.16</ele>
  <time>2026-09-02T22:06:37Z</time>
  <course>95.0</course>
  <speed>0.0</speed>
  <fix>3d</fix>
</trkpt>
<trkpt lat="33.8103174" lon="-118.3938712">
  <ele>-0.18</ele>
  <time>2026-09-02T22:06:37Z</time>
  <course>185.72</course>
  <speed>0.22022715545545238</speed>
  <fix>3d</fix>
</trkpt>
<trkpt lat="33.810313" lon="-118.3938667">
  <ele>-0.16</ele>
  <time>2026-09-02T22:06:37Z</time>
  <course>95.0</course>
  <speed>0.0</speed>
  <fix>3d</fix>
</trkpt>
<trkpt lat="33.8103172" lon="-118.393871">
  <ele>-0.181</ele>
  <time>2026-09-02T22:06:37Z</time>
  <course>185.72</course>
  <speed>0.21400934559032694</speed>
  <fix>3d</fix>
</trkpt>
<trkpt lat="33.810313" lon="-118.3938667">
  <ele>-0.16</ele>
  <time>2026-09-02T22:06:37Z</time>
  <course>95.0</course>
  <speed>0.0</speed>
  <fix>3d</fix>
</trkpt>
<trkpt lat="33.8103168" lon="-118.3938706">
  <ele>-0.181</ele>
  <time>2026-09-02T22:06:37Z</time>
  <course>185.71</course>
  <speed>0.20615528128088303</speed>
  <fix>3d</fix>
</trkpt>
<trkpt lat="33.810313" lon="-118.3938667">
  <ele>-0.16</ele>
  <time>2026-09-02T22:06:37Z</time>
  <course>95.0</course>
  <speed>0.0</speed>
  <fix>3d</fix>
</trkpt>
<trkpt lat="33.8103166" lon="-118.3938704">
  <ele>-0.179</ele>
  <time>2026-09-02T22:06:37Z</time>
  <course>185.71</course>
  <speed>0.2</speed>
  <fix>3d</fix>
</trkpt>
<trkpt lat="33.810313" lon="-118.3938667">
  <ele>-0.16</ele>
  <time>2026-09-02T22:06:37Z</time>
  <course>95.0</course>
  <speed>0.0</speed>
  <fix>3d</fix>
</trkpt>
<trkpt lat="33.8103166" lon="-118.3938703">
  <ele>-0.177</ele>
  <time>2026-09-02T22:06:37Z</time>
  <course>185.71</course>
  <speed>0.19209372712298545</speed>
  <fix>3d</fix>
</trkpt>
<trkpt lat="33.810313" lon="-118.3938667">
  <ele>-0.16</ele>
  <time>2026-09-02T22:06:37Z</time>
  <course>95.0</course>
  <speed>0.0</speed>
  <fix>3d</fix>
</trkpt>
<trkpt lat="33.8103165" lon="-118.3938703">
  <ele>-0.174</ele>
  <time>2026-09-02T22:06:37Z</time>
  <course>185.71</course>
  <speed>0.2</speed>
  <fix>3d</fix>
</trkpt>
<trkpt lat="33.810313" lon="-118.3938667">
  <ele>-0.16</ele>
  <time>2026-09-02T22:06:37Z</time>
  <course>95.0</course>
  <speed>0.0</speed>
  <fix>3d</fix>
</trkpt>
<trkpt lat="33.8103166" lon="-118.3938704">
  <ele>-0.173</ele>
  <time>2026-09-02T22:06:37Z</time>
  <course>185.71</course>
  <speed>0.2</speed>
  <fix>3d</fix>
</trkpt>
<trkpt lat="33.810313" lon="-118.3938667">
  <ele>-0.16</ele>
  <time>2026-09-02T22:06:37Z</time>
  <course>95.0</course>
  <speed>0.0</speed>
  <fix>3d</fix>
</trkpt>
<trkpt lat="33.8103167" lon="-118.3938704">
  <ele>-0.17</ele>
  <time>2026-09-02T22:06:37Z</time>
  <course>185.71</course>
  <speed>0.20615528128088303</speed>
  <fix>3d</fix>
</trkpt>
<trkpt lat="33.810313" lon="-118.3938667">
  <ele>-0.16</ele>
  <time>2026-09-02T22:06:37Z</time>
  <course>95.0</course>
  <speed>0.0</speed>
  <fix>3d</fix>
</trkpt>
<trkpt lat="33.8103168" lon="-118.3938705">
  <ele>-0.167</ele>
  <time>2026-09-02T22:06:37Z</time>
  <course>185.71</course>
  <speed>0.20615528128088303</speed>
  <fix>3d</fix>
</trkpt>
<trkpt lat="33.810313" lon="-118.3938667">
  <ele>-0.16</ele>
  <time>2026-09-02T22:06:37Z</time>
  <course>95.0</course>
  <speed>0.0</speed>
  <fix>3d</fix>
</trkpt>
<trkpt lat="33.8103169" lon="-118.3938707">
  <ele>-0.162</ele>
  <time>2026-09-02T22:06:37Z</time>
  <course>185.71</course>
  <speed>0.21400934559032694</speed>
  <fix>3d</fix>
</trkpt>
<trkpt lat="33.810313" lon="-118.3938667">
  <ele>-0.15</ele>
  <time>2026-09-02T22:06:37Z</time>
  <course>95.0</course>
  <speed>0.0</speed>
  <fix>3d</fix>
</trkpt>
<trkpt lat="33.8103171" lon="-118.3938708">
  <ele>-0.157</ele>
  <time>2026-09-02T22:06:37Z</time>
  <course>185.71</course>
  <speed>0.21400934559032694</speed>
  <fix>3d</fix>
</trkpt>
<trkpt lat="33.810313" lon="-118.3938667">
  <ele>-0.15</ele>
  <time>2026-09-02T22:06:37Z</time>
  <course>95.0</course>
  <speed>0.0</speed>
  <fix>3d</fix>
</trkpt>
<trkpt lat="33.8103172" lon="-118.393871">
  <ele>-0.151</ele>
  <time>2026-09-02T22:06:37Z</time>
  <course>185.71</course>
  <speed>0.22022715545545238</speed>
  <fix>3d</fix>
</trkpt>
<trkpt lat="33.810313" lon="-118.3938667">
  <ele>-0.14</ele>
  <time>2026-09-02T22:06:37Z</time>
  <course>95.0</course>
  <speed>0.0</speed>
  <fix>3d</fix>
</trkpt>
<trkpt lat="33.8103169" lon="-118.3938707">
  <ele>-0.145</ele>
  <time>2026-09-02T22:06:37Z</time>
  <course>185.71</course>
  <speed>0.21400934559032694</speed>
  <fix>3d</fix>
</trkpt>
<trkpt lat="33.810313" lon="-118.3938667">
  <ele>-0.14</ele>
  <time>2026-09-02T22:06:37Z</time>
  <course>95.0</course>
  <speed>0.0</speed>
  <fix>3d</fix>
</trkpt>
<trkpt lat="33.8103166" lon="-118.3938704">
  <ele>-0.139</ele>
  <time>2026-09-02T22:06:37Z</time>
  <course>185.71</course>
  <speed>0.20615528128088303</speed>
  <fix>3d</fix>
</trkpt>
<trkpt lat="33.810313" lon="-118.3938667">
  <ele>-0.13</ele>
  <time>2026-09-02T22:06:37Z</time>
  <course>95.0</course>
  <speed>0.0</speed>
  <fix>3d</fix>
</trkpt>
<trkpt lat="33.8103164" lon="-118.3938702">
  <ele>-0.133</ele>
  <time>2026-09-02T22:06:37Z</time>
  <course>185.71</course>
  <speed>0.2</speed>
  <fix>3d</fix>
</trkpt>
<trkpt lat="33.810313" lon="-118.3938667">
  <ele>-0.13</ele>
  <time>2026-09-02T22:06:37Z</time>
  <course>95.0</course>
  <speed>0.0</speed>
  <fix>3d</fix>
</trkpt>
<trkpt lat="33.8103163" lon="-118.3938701">
  <ele>-0.128</ele>
  <time>2026-09-02T22:06:37Z</time>
  <course>185.71</course>
  <speed>0.19209372712298545</speed>
  <fix>3d</fix>
</trkpt>
<trkpt lat="33.810313" lon="-118.3938667">
  <ele>-0.12</ele>
  <time>2026-09-02T22:06:37Z</time>
  <course>95.0</course>
  <speed>0.0</speed>
  <fix>3d</fix>
</trkpt>
<trkpt lat="33.8103162" lon="-118.39387">
  <ele>-0.124</ele>
  <time>2026-09-02T22:06:37Z</time>
  <course>185.71</course>
  <speed>0.19209372712298545</speed>
  <fix>3d</fix>
</trkpt>
<trkpt lat="33.810313" lon="-118.3938667">
  <ele>-0.12</ele>
  <time>2026-09-02T22:06:37Z</time>
  <course>95.0</course>
  <speed>0.0</speed>
  <fix>3d</fix>
</trkpt>
<trkpt lat="33.8103163" lon="-118.3938701">
  <ele>-0.124</ele>
  <time>2026-09-02T22:06:37Z</time>
  <course>185.71</course>
  <speed>0.2</speed>
  <fix>3d</fix>
</trkpt>
<trkpt lat="33.810313" lon="-118.3938667">
  <ele>-0.11</ele>
  <time>2026-09-02T22:06:37Z</time>
  <course>95.0</course>
  <speed>0.0</speed>
  <fix>3d</fix>
</trkpt>
<trkpt lat="33.8103163" lon="-118.3938701">
  <ele>-0.127</ele>
  <time>2026-09-02T22:06:37Z</time>
  <course>185.7</course>
  <speed>0.2</speed>
  <fix>3d</fix>
</trkpt>
<trkpt lat="33.810313" lon="-118.3938667">
  <ele>-0.11</ele>
  <time>2026-09-02T22:06:37Z</time>
  <course>95.0</course>
  <speed>0.0</speed>
  <fix>3d</fix>
</trkpt>
<trkpt lat="33.8103165" lon="-118.3938702">
  <ele>-0.131</ele>
  <time>2026-09-02T22:06:37Z</time>
  <course>185.7</course>
  <speed>0.20615528128088303</speed>
  <fix>3d</fix>
</trkpt>
<trkpt lat="33.810313" lon="-118.3938667">
  <ele>-0.11</ele>
  <time>2026-09-02T22:06:37Z</time>
  <course>95.0</course>
  <speed>0.0</speed>
  <fix>3d</fix>
</trkpt>
<trkpt lat="33.8103166" lon="-118.3938704">
  <ele>-0.135</ele>
  <time>2026-09-02T22:06:37Z</time>
  <course>185.7</course>
  <speed>0.20615528128088303</speed>
  <fix>3d</fix>
</trkpt>
<trkpt lat="33.810313" lon="-118.3938667">
  <ele>-0.11</ele>
  <time>2026-09-02T22:06:37Z</time>
  <course>95.0</course>
  <speed>0.0</speed>
  <fix>3d</fix>
</trkpt>
<trkpt lat="33.8103167" lon="-118.3938705">
  <ele>-0.139</ele>
  <time>2026-09-02T22:06:37Z</time>
  <course>185.7</course>
  <speed>0.21400934559032694</speed>
  <fix>3d</fix>
</trkpt>
<trkpt lat="33.810313" lon="-118.3938667">
  <ele>-0.12</ele>
  <time>2026-09-02T22:06:37Z</time>
  <course>95.0</course>
  <speed>0.0</speed>
  <fix>3d</fix>
</trkpt>
<trkpt lat="33.8103169" lon="-118.3938707">
  <ele>-0.141</ele>
  <time>2026-09-02T22:06:37Z</time>
  <course>185.7</course>
  <speed>0.22022715545545238</speed>
  <fix>3d</fix>
</trkpt>
<trkpt lat="33.810313" lon="-118.3938667">
  <ele>-0.12</ele>
  <time>2026-09-02T22:06:37Z</time>
  <course>95.0</course>
  <speed>0.0</speed>
  <fix>3d</fix>
</trkpt>
<trkpt lat="33.8103166" lon="-118.3938704">
  <ele>-0.143</ele>
  <time>2026-09-02T22:06:37Z</time>
  <course>185.7</course>
  <speed>0.21400934559032694</speed>
  <fix>3d</fix>
</trkpt>
<trkpt lat="33.810313" lon="-118.3938667">
  <ele>-0.13</ele>
  <time>2026-09-02T22:06:37Z</time>
  <course>95.0</course>
  <speed>0.0</speed>
  <fix>3d</fix>
</trkpt>
<trkpt lat="33.8103162" lon="-118.39387">
  <ele>-0.145</ele>
  <time>2026-09-02T22:06:37Z</time>
  <course>185.7</course>
  <speed>0.20615528128088303</speed>
  <fix>3d</fix>
</trkpt>
<trkpt lat="33.810313" lon="-118.3938667">
  <ele>-0.13</ele>
  <time>2026-09-02T22:06:37Z</time>
  <course>95.0</course>
  <speed>0.0</speed>
  <fix>3d</fix>
</trkpt>
<trkpt lat="33.810316" lon="-118.3938698">
  <ele>-0.148</ele>
  <time>2026-09-02T22:06:37Z</time>
  <course>185.7</course>
  <speed>0.19209372712298545</speed>
  <fix>3d</fix>
</trkpt>
<trkpt lat="33.810313" lon="-118.3938667">
  <ele>-0.13</ele>
  <time>2026-09-02T22:06:37Z</time>
  <course>95.0</course>
  <speed>0.0</speed>
  <fix>3d</fix>
</trkpt>
<trkpt lat="33.8103159" lon="-118.3938697">
  <ele>-0.15</ele>
  <time>2026-09-02T22:06:37Z</time>
  <course>185.7</course>
  <speed>0.19209372712298545</speed>
  <fix>3d</fix>
</trkpt>
<trkpt lat="33.810313" lon="-118.3938667">
  <ele>-0.13</ele>
  <time>2026-09-02T22:06:37Z</time>
  <course>95.0</course>
  <speed>0.0</speed>
  <fix>3d</fix>
</trkpt>
<trkpt lat="33.8103159" lon="-118.3938697">
  <ele>-0.151</ele>
  <time>2026-09-02T22:06:37Z</time>
  <course>185.7</course>
  <speed>0.19209372712298545</speed>
  <fix>3d</fix>
</trkpt>
<trkpt lat="33.810313" lon="-118.3938667">
  <ele>-0.14</ele>
  <time>2026-09-02T22:06:37Z</time>
  <course>95.0</course>
  <speed>0.0</speed>
  <fix>3d</fix>
</trkpt>
<trkpt lat="33.8103159" lon="-118.3938697">
  <ele>-0.152</ele>
  <time>2026-09-02T22:06:37Z</time>
  <course>185.7</course>
  <speed>0.19209372712298545</speed>
  <fix>3d</fix>
</trkpt>
<trkpt lat="33.810313" lon="-118.3938667">
  <ele>-0.14</ele>
  <time>2026-09-02T22:06:37Z</time>
  <course>95.0</course>
  <speed>0.0</speed>
  <fix>3d</fix>
</trkpt>
<trkpt lat="33.810316" lon="-118.3938698">
  <ele>-0.152</ele>
  <time>2026-09-02T22:06:37Z</time>
  <course>185.7</course>
  <speed>0.2</speed>
  <fix>3d</fix>
</trkpt>
<trkpt lat="33.810313" lon="-118.3938667">
  <ele>-0.14</ele>
  <time>2026-09-02T22:06:37Z</time>
  <course>95.0</course>
  <speed>0.0</speed>
  <fix>3d</fix>
</trkpt>
<trkpt lat="33.8103161" lon="-118.3938699">
  <ele>-0.15</ele>
  <time>2026-09-02T22:06:37Z</time>
  <course>185.7</course>
  <speed>0.20615528128088303</speed>
  <fix>3d</fix>
</trkpt>
<trkpt lat="33.810313" lon="-118.3938667">
  <ele>-0.14</ele>
  <time>2026-09-02T22:06:37Z</time>
  <course>95.0</course>
  <speed>0.0</speed>
  <fix>3d</fix>
</trkpt>
<trkpt lat="33.8103162" lon="-118.39387">
  <ele>-0.148</ele>
  <time>2026-09-02T22:06:37Z</time>
  <course>185.7</course>
  <speed>0.20615528128088303</speed>
  <fix>3d</fix>
</trkpt>
<trkpt lat="33.810313" lon="-118.3938667">
  <ele>-0.14</ele>
  <time>2026-09-02T22:06:37Z</time>
  <course>95.0</course>
  <speed>0.0</speed>
  <fix>3d</fix>
</trkpt>
<trkpt lat="33.8103164" lon="-118.3938702">
  <ele>-0.144</ele>
  <time>2026-09-02T22:06:37Z</time>
  <course>185.7</course>
  <speed>0.21400934559032694</speed>
  <fix>3d</fix>
</trkpt>
<trkpt lat="33.810313" lon="-118.3938667">
  <ele>-0.14</ele>
  <time>2026-09-02T22:06:37Z</time>
  <course>95.0</course>
  <speed>0.0</speed>
  <fix>3d</fix>
</trkpt>
<trkpt lat="33.8103161" lon="-118.3938699">
  <ele>-0.14</ele>
  <time>2026-09-02T22:06:37Z</time>
  <course>185.69</course>
  <speed>0.20615528128088303</speed>
  <fix>3d</fix>
</trkpt>
<trkpt lat="33.810313" lon="-118.3938667">
  <ele>-0.14</ele>
  <time>2026-09-02T22:06:37Z</time>
  <course>95.0</course>
  <speed>0.0</speed>
  <fix>3d</fix>
</trkpt>
<trkpt lat="33.8103158" lon="-118.3938696">
  <ele>-0.135</ele>
  <time>2026-09-02T22:06:37Z</time>
  <course>185.69</course>
  <speed>0.19209372712298545</speed>
  <fix>3d</fix>
</trkpt>
<trkpt lat="33.810313" lon="-118.3938667">
  <ele>-0.14</ele>
  <time>2026-09-02T22:06:37Z</time>
  <course>95.0</course>
  <speed>0.0</speed>
  <fix>3d</fix>
</trkpt>
<trkpt lat="33.8103156" lon="-118.3938694">
  <ele>-0.129</ele>
  <time>2026-09-02T22:06:37Z</time>
  <course>185.69</course>
  <speed>0.19209372712298545</speed>
  <fix>3d</fix>
</trkpt>
<trkpt lat="33.810313" lon="-118.3938667">
  <ele>-0.13</ele>
  <time>2026-09-02T22:06:37Z</time>
  <course>95.0</course>
  <speed>0.0</speed>
  <fix>3d</fix>
</trkpt>
<trkpt lat="33.8103155" lon="-118.3938693">
  <ele>-0.124</ele>
  <time>2026-09-02T22:06:37Z</time>
  <course>185.69</course>
  <speed>0.19209372712298545</speed>
  <fix>3d</fix>
</trkpt>
<trkpt lat="33.810313" lon="-118.3938667">
  <ele>-0.13</ele>
  <time>2026-09-02T22:06:37Z</time>
  <course>95.0</course>
  <speed>0.0</speed>
  <fix>3d</fix>
</trkpt>
<trkpt lat="33.8103155" lon="-118.3938693">
  <ele>-0.119</ele>
  <time>2026-09-02T22:06:37Z</time>
  <course>185.69</course>
  <speed>0.19209372712298545</speed>
  <fix>3d</fix>
</trkpt>
<trkpt lat="33.810313" lon="-118.3938667">
  <ele>-0.12</ele>
  <time>2026-09-02T22:06:37Z</time>
  <course>95.0</course>
  <speed>0.0</speed>
  <fix>3d</fix>
</trkpt>
<trkpt lat="33.8103155" lon="-118.3938693">
  <ele>-0.114</ele>
  <time>2026-09-02T22:06:37Z</time>
  <course>185.69</course>
  <speed>0.19209372712298545</speed>
  <fix>3d</fix>
</trkpt>
<trkpt lat="33.810313" lon="-118.3938667">
  <ele>-0.12</ele>
  <time>2026-09-02T22:06:37Z</time>
  <course>95.0</course>
  <speed>0.0</speed>
  <fix>3d</fix>
</trkpt>
<trkpt lat="33.8103156" lon="-118.3938694">
  <ele>-0.112</ele>
  <time>2026-09-02T22:06:37Z</time>
  <course>185.69</course>
  <speed>0.19209372712298545</speed>
  <fix>3d</fix>
</trkpt>
<trkpt lat="33.810313" lon="-118.3938667">
  <ele>-0.12</ele>
  <time>2026-09-02T22:06:37Z</time>
  <course>95.0</course>
  <speed>0.0</speed>
  <fix>3d</fix>
</trkpt>
<trkpt lat="33.8103157" lon="-118.3938695">
  <ele>-0.113</ele>
  <time>2026-09-02T22:06:37Z</time>
  <course>185.69</course>
  <speed>0.19209372712298545</speed>
  <fix>3d</fix>
</trkpt>
<trkpt lat="33.810313" lon="-118.3938667">
  <ele>-0.12</ele>
  <time>2026-09-02T22:06:37Z</time>
  <course>95.0</course>
  <speed>0.0</speed>
  <fix>3d</fix>
</trkpt>
<trkpt lat="33.8103158" lon="-118.3938696">
  <ele>-0.116</ele>
  <time>2026-09-02T22:06:37Z</time>
  <course>185.69</course>
  <speed>0.2</speed>
  <fix>3d</fix>
</trkpt>
<trkpt lat="33.810313" lon="-118.3938667">
  <ele>-0.11</ele>
  <time>2026-09-02T22:06:37Z</time>
  <course>95.0</course>
  <speed>0.0</speed>
  <fix>3d</fix>
</trkpt>
<trkpt lat="33.8103158" lon="-118.3938697">
  <ele>-0.122</ele>
  <time>2026-09-02T22:06:37Z</time>
  <course>185.69</course>
  <speed>0.20615528128088303</speed>
  <fix>3d</fix>
</trkpt>
<trkpt lat="33.810313" lon="-118.3938667">
  <ele>-0.11</ele>
  <time>2026-09-02T22:06:37Z</time>
  <course>95.0</course>
  <speed>0.0</speed>
  <fix>3d</fix>
</trkpt>
<trkpt lat="33.8103157" lon="-118.3938695">
  <ele>-0.127</ele>
  <time>2026-09-02T22:06:37Z</time>
  <course>185.69</course>
  <speed>0.2</speed>
  <fix>3d</fix>
</trkpt>
<trkpt lat="33.810313" lon="-118.3938667">
  <ele>-0.11</ele>
  <time>2026-09-02T22:06:37Z</time>
  <course>95.0</course>
  <speed>0.0</speed>
  <fix>3d</fix>
</trkpt>
<trkpt lat="33.8103153" lon="-118.3938692">
  <ele>-0.131</ele>
  <time>2026-09-02T22:06:37Z</time>
  <course>185.69</course>
  <speed>0.19209372712298545</speed>
  <fix>3d</fix>
</trkpt>
<trkpt lat="33.810313" lon="-118.3938667">
  <ele>-0.11</ele>
  <time>2026-09-02T22:06:37Z</time>
  <course>95.0</course>
  <speed>0.0</speed>
  <fix>3d</fix>
</trkpt>
<trkpt lat="33.8103151" lon="-118.393869">
  <ele>-0.134</ele>
  <time>2026-09-02T22:06:37Z</time>
  <course>185.69</course>
  <speed>0.19209372712298545</speed>
  <fix>3d</fix>
</trkpt>
<trkpt lat="33.810313" lon="-118.3938667">
  <ele>-0.12</ele>
  <time>2026-09-02T22:06:37Z</time>
  <course>95.0</course>
  <speed>0.0</speed>
  <fix>3d</fix>
</trkpt>
<trkpt lat="33.810315" lon="-118.3938689">
  <ele>-0.136</ele>
  <time>2026-09-02T22:06:37Z</time>
  <course>185.69</course>
  <speed>0.18601075237738274</speed>
  <fix>3d</fix>
</trkpt>
<trkpt lat="33.810313" lon="-118.3938667">
  <ele>-0.12</ele>
  <time>2026-09-02T22:06:37Z</time>
  <course>95.0</course>
  <speed>0.0</speed>
  <fix>3d</fix>
</trkpt>
<trkpt lat="33.810315" lon="-118.3938688">
  <ele>-0.137</ele>
  <time>2026-09-02T22:06:37Z</time>
  <course>185.69</course>
  <speed>0.18601075237738274</speed>
  <fix>3d</fix>
</trkpt>
<trkpt lat="33.810313" lon="-118.3938667">
  <ele>-0.13</ele>
  <time>2026-09-02T22:06:37Z</time>
  <course>95.0</course>
  <speed>0.0</speed>
  <fix>3d</fix>
</trkpt>
<trkpt lat="33.810315" lon="-118.3938689">
  <ele>-0.139</ele>
  <time>2026-09-02T22:06:37Z</time>
  <course>185.69</course>
  <speed>0.19209372712298545</speed>
  <fix>3d</fix>
</trkpt>
<trkpt lat="33.810313" lon="-118.3938667">
  <ele>-0.13</ele>
  <time>2026-09-02T22:06:37Z</time>
  <course>95.0</course>
  <speed>0.0</speed>
  <fix>3d</fix>
</trkpt>
<trkpt lat="33.8103151" lon="-118.3938689">
  <ele>-0.14</ele>
  <time>2026-09-02T22:06:37Z</time>
  <course>185.69</course>
  <speed>0.19209372712298545</speed>
  <fix>3d</fix>
</trkpt>
<trkpt lat="33.810313" lon="-118.3938667">
  <ele>-0.13</ele>
  <time>2026-09-02T22:06:37Z</time>
  <course>95.0</course>
  <speed>0.0</speed>
  <fix>3d</fix>
</trkpt>
<trkpt lat="33.8103152" lon="-118.3938691">
  <ele>-0.142</ele>
  <time>2026-09-02T22:06:37Z</time>
  <course>185.69</course>
  <speed>0.19209372712298545</speed>
  <fix>3d</fix>
</trkpt>
<trkpt lat="33.810313" lon="-118.3938667">
  <ele>-0.13</ele>
  <time>2026-09-02T22:06:37Z</time>
  <course>95.0</course>
  <speed>0.0</speed>
  <fix>3d</fix>
</trkpt>
<trkpt lat="33.8103153" lon="-118.3938692">
  <ele>-0.142</ele>
  <time>2026-09-02T22:06:37Z</time>
  <course>185.69</course>
  <speed>0.2</speed>
  <fix>3d</fix>
</trkpt>
<trkpt lat="33.810313" lon="-118.3938667">
  <ele>-0.14</ele>
  <time>2026-09-02T22:06:37Z</time>
  <course>95.0</course>
  <speed>0.0</speed>
  <fix>3d</fix>
</trkpt>
<trkpt lat="33.8103155" lon="-118.3938693">
  <ele>-0.142</ele>
  <time>2026-09-02T22:06:37Z</time>
  <course>185.68</course>
  <speed>0.20615528128088303</speed>
  <fix>3d</fix>
</trkpt>
<trkpt lat="33.810313" lon="-118.3938667">
  <ele>-0.14</ele>
  <time>2026-09-02T22:06:37Z</time>
  <course>95.0</course>
  <speed>0.0</speed>
  <fix>3d</fix>
</trkpt>
<trkpt lat="33.8103152" lon="-118.3938691">
  <ele>-0.142</ele>
  <time>2026-09-02T22:06:38Z</time>
  <course>185.68</course>
  <speed>0.19209372712298545</speed>
  <fix>3d</fix>
</trkpt>
<trkpt lat="33.810313" lon="-118.3938667">
  <ele>-0.13</ele>
  <time>2026-09-02T22:06:38Z</time>
  <course>95.0</course>
  <speed>0.0</speed>
  <fix>3d</fix>
</trkpt>
<trkpt lat="33.8103149" lon="-118.3938687">
  <ele>-0.141</ele>
  <time>2026-09-02T22:06:38Z</time>
  <course>185.68</course>
  <speed>0.19209372712298545</speed>
  <fix>3d</fix>
</trkpt>
<trkpt lat="33.810313" lon="-118.3938667">
  <ele>-0.13</ele>
  <time>2026-09-02T22:06:38Z</time>
  <course>95.0</course>
  <speed>0.0</speed>
  <fix>3d</fix>
</trkpt>
<trkpt lat="33.8103147" lon="-118.3938685">
  <ele>-0.14</ele>
  <time>2026-09-02T22:06:38Z</time>
  <course>185.68</course>
  <speed>0.17804493814764857</speed>
  <fix>3d</fix>
</trkpt>
<trkpt lat="33.810313" lon="-118.3938667">
  <ele>-0.13</ele>
  <time>2026-09-02T22:06:38Z</time>
  <course>95.0</course>
  <speed>0.0</speed>
  <fix>3d</fix>
</trkpt>
<trkpt lat="33.8103146" lon="-118.3938684">
  <ele>-0.137</ele>
  <time>2026-09-02T22:06:38Z</time>
  <course>185.68</course>
  <speed>0.17804493814764857</speed>
  <fix>3d</fix>
</trkpt>
<trkpt lat="33.810313" lon="-118.3938667">
  <ele>-0.13</ele>
  <time>2026-09-02T22:06:38Z</time>
  <course>95.0</course>
  <speed>0.0</speed>
  <fix>3d</fix>
</trkpt>
<trkpt lat="33.8103145" lon="-118.3938684">
  <ele>-0.134</ele>
  <time>2026-09-02T22:06:38Z</time>
  <course>185.68</course>
  <speed>0.17804493814764857</speed>
  <fix>3d</fix>
</trkpt>
<trkpt lat="33.810313" lon="-118.3938667">
  <ele>-0.12</ele>
  <time>2026-09-02T22:06:38Z</time>
  <course>95.0</course>
  <speed>0.0</speed>
  <fix>3d</fix>
</trkpt>
<trkpt lat="33.8103146" lon="-118.3938685">
  <ele>-0.13</ele>
  <time>2026-09-02T22:06:38Z</time>
  <course>185.68</course>
  <speed>0.18601075237738274</speed>
  <fix>3d</fix>
</trkpt>
<trkpt lat="33.810313" lon="-118.3938667">
  <ele>-0.12</ele>
  <time>2026-09-02T22:06:38Z</time>
  <course>95.0</course>
  <speed>0.0</speed>
  <fix>3d</fix>
</trkpt>
<trkpt lat="33.8103147" lon="-118.3938685">
  <ele>-0.127</ele>
  <time>2026-09-02T22:06:38Z</time>
  <course>185.68</course>
  <speed>0.19209372712298545</speed>
  <fix>3d</fix>
</trkpt>
<trkpt lat="33.810313" lon="-118.3938667">
  <ele>-0.12</ele>
  <time>2026-09-02T22:06:38Z</time>
  <course>95.0</course>
  <speed>0.0</speed>
  <fix>3d</fix>
</trkpt>
<trkpt lat="33.8103148" lon="-118.3938686">
  <ele>-0.126</ele>
  <time>2026-09-02T22:06:38Z</time>
  <course>185.68</course>
  <speed>0.19209372712298545</speed>
  <fix>3d</fix>
</trkpt>
<trkpt lat="33.810313" lon="-118.3938667">
  <ele>-0.12</ele>
  <time>2026-09-02T22:06:38Z</time>
  <course>95.0</course>
  <speed>0.0</speed>
  <fix>3d</fix>
</trkpt>
<trkpt lat="33.8103149" lon="-118.3938688">
  <ele>-0.128</ele>
  <time>2026-09-02T22:06:38Z</time>
  <course>185.68</course>
  <speed>0.19209372712298545</speed>
  <fix>3d</fix>
</trkpt>
<trkpt lat="33.810313" lon="-118.3938667">
  <ele>-0.11</ele>
  <time>2026-09-02T22:06:38Z</time>
  <course>95.0</course>
  <speed>0.0</speed>
  <fix>3d</fix>
</trkpt>
<trkpt lat="33.810315" lon="-118.3938689">
  <ele>-0.131</ele>
  <time>2026-09-02T22:06:38Z</time>
  <course>185.68</course>
  <speed>0.2</speed>
  <fix>3d</fix>
</trkpt>
<trkpt lat="33.810313" lon="-118.3938667">
  <ele>-0.11</ele>
  <time>2026-09-02T22:06:38Z</time>
  <course>95.0</course>
  <speed>0.0</speed>
  <fix>3d</fix>
</trkpt>
<trkpt lat="33.8103152" lon="-118.393869">
  <ele>-0.135</ele>
  <time>2026-09-02T22:06:38Z</time>
  <course>185.68</course>
  <speed>0.20615528128088303</speed>
  <fix>3d</fix>
</trkpt>
<trkpt lat="33.810313" lon="-118.3938667">
  <ele>-0.11</ele>
  <time>2026-09-02T22:06:38Z</time>
  <course>95.0</course>
  <speed>0.0</speed>
  <fix>3d</fix>
</trkpt>
<trkpt lat="33.8103149" lon="-118.3938688">
  <ele>-0.138</ele>
  <time>2026-09-02T22:06:38Z</time>
  <course>185.68</course>
  <speed>0.2</speed>
  <fix>3d</fix>
</trkpt>
<trkpt lat="33.810313" lon="-118.3938667">
  <ele>-0.11</ele>
  <time>2026-09-02T22:06:38Z</time>
  <course>95.0</course>
  <speed>0.0</speed>
  <fix>3d</fix>
</trkpt>
<trkpt lat="33.8103146" lon="-118.3938685">
  <ele>-0.141</ele>
  <time>2026-09-02T22:06:38Z</time>
  <course>185.68</course>
  <speed>0.19209372712298545</speed>
  <fix>3d</fix>
</trkpt>
<trkpt lat="33.810313" lon="-118.3938667">
  <ele>-0.12</ele>
  <time>2026-09-02T22:06:38Z</time>
  <course>95.0</course>
  <speed>0.0</speed>
  <fix>3d</fix>
</trkpt>
<trkpt lat="33.8103144" lon="-118.3938683">
  <ele>-0.143</ele>
  <time>2026-09-02T22:06:38Z</time>
  <course>185.68</course>
  <speed>0.18601075237738274</speed>
  <fix>3d</fix>
</trkpt>
<trkpt lat="33.810313" lon="-118.3938667">
  <ele>-0.12</ele>
  <time>2026-09-02T22:06:38Z</time>
  <course>95.0</course>
  <speed>0.0</speed>
  <fix>3d</fix>
</trkpt>
<trkpt lat="33.8103143" lon="-118.3938682">
  <ele>-0.143</ele>
  <time>2026-09-02T22:06:38Z</time>
  <course>185.68</course>
  <speed>0.17804493814764857</speed>
  <fix>3d</fix>
</trkpt>
<trkpt lat="33.810313" lon="-118.3938667">
  <ele>-0.13</ele>
  <time>2026-09-02T22:06:38Z</time>
  <course>95.0</course>
  <speed>0.0</speed>
  <fix>3d</fix>
</trkpt>
<trkpt lat="33.8103142" lon="-118.3938681">
  <ele>-0.142</ele>
  <time>2026-09-02T22:06:38Z</time>
  <course>185.68</course>
  <speed>0.17804493814764857</speed>
  <fix>3d</fix>
</trkpt>
<trkpt lat="33.810313" lon="-118.3938667">
  <ele>-0.13</ele>
  <time>2026-09-02T22:06:38Z</time>
  <course>95.0</course>
  <speed>0.0</speed>
  <fix>3d</fix>
</trkpt>
<trkpt lat="33.8103143" lon="-118.3938682">
  <ele>-0.14</ele>
  <time>2026-09-02T22:06:38Z</time>
  <course>185.68</course>
  <speed>0.19209372712298545</speed>
  <fix>3d</fix>
</trkpt>
<trkpt lat="33.810313" lon="-118.3938667">
  <ele>-0.13</ele>
  <time>2026-09-02T22:06:38Z</time>
  <course>95.0</course>
  <speed>0.0</speed>
  <fix>3d</fix>
</trkpt>
<trkpt lat="33.8103144" lon="-118.3938683">
  <ele>-0.139</ele>
  <time>2026-09-02T22:06:38Z</time>
  <course>185.68</course>
  <speed>0.19209372712298545</speed>
  <fix>3d</fix>
</trkpt>
<trkpt lat="33.810313" lon="-118.3938667">
  <ele>-0.13</ele>
  <time>2026-09-02T22:06:38Z</time>
  <course>95.0</course>
  <speed>0.0</speed>
  <fix>3d</fix>
</trkpt>
<trkpt lat="33.8103145" lon="-118.3938684">
  <ele>-0.138</ele>
  <time>2026-09-02T22:06:38Z</time>
  <course>185.68</course>
  <speed>0.19209372712298545</speed>
  <fix>3d</fix>
</trkpt>
<trkpt lat="33.810313" lon="-118.3938667">
  <ele>-0.13</ele>
  <time>2026-09-02T22:06:38Z</time>
  <course>95.0</course>
  <speed>0.0</speed>
  <fix>3d</fix>
</trkpt>
<trkpt lat="33.8103146" lon="-118.3938685">
  <ele>-0.137</ele>
  <time>2026-09-02T22:06:38Z</time>
  <course>185.68</course>
  <speed>0.2</speed>
  <fix>3d</fix>
</trkpt>
<trkpt lat="33.810313" lon="-118.3938667">
  <ele>-0.13</ele>
  <time>2026-09-02T22:06:38Z</time>
  <course>95.0</course>
  <speed>0.0</speed>
  <fix>3d</fix>
</trkpt>
<trkpt lat="33.8103147" lon="-118.3938686">
  <ele>-0.135</ele>
  <time>2026-09-02T22:06:38Z</time>
  <course>185.68</course>
  <speed>0.20615528128088303</speed>
  <fix>3d</fix>
</trkpt>
<trkpt lat="33.810313" lon="-118.3938667">
  <ele>-0.13</ele>
  <time>2026-09-02T22:06:38Z</time>
  <course>95.0</course>
  <speed>0.0</speed>
  <fix>3d</fix>
</trkpt>
<trkpt lat="33.8103149" lon="-118.3938688">
  <ele>-0.132</ele>
  <time>2026-09-02T22:06:38Z</time>
  <course>185.67</course>
  <speed>0.20615528128088303</speed>
  <fix>3d</fix>
</trkpt>
<trkpt lat="33.810313" lon="-118.3938667">
  <ele>-0.13</ele>
  <time>2026-09-02T22:06:38Z</time>
  <course>95.0</course>
  <speed>0.0</speed>
  <fix>3d</fix>
</trkpt>
<trkpt lat="33.8103146" lon="-118.3938685">
  <ele>-0.128</ele>
  <time>2026-09-02T22:06:38Z</time>
  <course>185.67</course>
  <speed>0.2</speed>
  <fix>3d</fix>
</trkpt>
<trkpt lat="33.810313" lon="-118.3938667">
  <ele>-0.12</ele>
  <time>2026-09-02T22:06:38Z</time>
  <course>95.0</course>
  <speed>0.0</speed>
  <fix>3d</fix>
</trkpt>
<trkpt lat="33.8103143" lon="-118.3938682">
  <ele>-0.124</ele>
  <time>2026-09-02T22:06:38Z</time>
  <course>185.67</course>
  <speed>0.19209372712298545</speed>
  <fix>3d</fix>
</trkpt>
<trkpt lat="33.810313" lon="-118.3938667">
  <ele>-0.12</ele>
  <time>2026-09-02T22:06:38Z</time>
  <course>95.0</course>
  <speed>0.0</speed>
  <fix>3d</fix>
</trkpt>
<trkpt lat="33.8103141" lon="-118.393868">
  <ele>-0.121</ele>
  <time>2026-09-02T22:06:38Z</time>
  <course>185.67</course>
  <speed>0.19209372712298545</speed>
  <fix>3d</fix>
</trkpt>
<trkpt lat="33.810313" lon="-118.3938667">
  <ele>-0.12</ele>
  <time>2026-09-02T22:06:38Z</time>
  <course>95.0</course>
  <speed>0.0</speed>
  <fix>3d</fix>
</trkpt>
<trkpt lat="33.810314" lon="-118.3938679">
  <ele>-0.122</ele>
  <time>2026-09-02T22:06:38Z</time>
  <course>185.67</course>
  <speed>0.18601075237738274</speed>
  <fix>3d</fix>
</trkpt>
<trkpt lat="33.810313" lon="-118.3938667">
  <ele>-0.12</ele>
  <time>2026-09-02T22:06:38Z</time>
  <course>95.0</course>
  <speed>0.0</speed>
  <fix>3d</fix>
</trkpt>
<trkpt lat="33.8103139" lon="-118.3938679">
  <ele>-0.125</ele>
  <time>2026-09-02T22:06:38Z</time>
  <course>185.67</course>
  <speed>0.18601075237738274</speed>
  <fix>3d</fix>
</trkpt>
<trkpt lat="33.810313" lon="-118.3938667">
  <ele>-0.12</ele>
  <time>2026-09-02T22:06:38Z</time>
  <course>95.0</course>
  <speed>0.0</speed>
  <fix>3d</fix>
</trkpt>
<trkpt lat="33.810314" lon="-118.3938679">
  <ele>-0.128</ele>
  <time>2026-09-02T22:06:38Z</time>
  <course>185.67</course>
  <speed>0.19209372712298545</speed>
  <fix>3d</fix>
</trkpt>
<trkpt lat="33.810313" lon="-118.3938667">
  <ele>-0.12</ele>
  <time>2026-09-02T22:06:38Z</time>
  <course>95.0</course>
  <speed>0.0</speed>
  <fix>3d</fix>
</trkpt>
<trkpt lat="33.810314" lon="-118.393868">
  <ele>-0.132</ele>
  <time>2026-09-02T22:06:38Z</time>
  <course>185.67</course>
  <speed>0.19209372712298545</speed>
  <fix>3d</fix>
</trkpt>
<trkpt lat="33.810313" lon="-118.3938667">
  <ele>-0.12</ele>
  <time>2026-09-02T22:06:38Z</time>
  <course>95.0</course>
  <speed>0.0</speed>
  <fix>3d</fix>
</trkpt>
<trkpt lat="33.8103141" lon="-118.3938681">
  <ele>-0.137</ele>
  <time>2026-09-02T22:06:38Z</time>
  <course>185.67</course>
  <speed>0.19209372712298545</speed>
  <fix>3d</fix>
</trkpt>
<trkpt lat="33.810313" lon="-118.3938667">
  <ele>-0.12</ele>
  <time>2026-09-02T22:06:38Z</time>
  <course>95.0</course>
  <speed>0.0</speed>
  <fix>3d</fix>
</trkpt>
<trkpt lat="33.8103143" lon="-118.3938682">
  <ele>-0.14</ele>
  <time>2026-09-02T22:06:38Z</time>
  <course>185.67</course>
  <speed>0.2</speed>
  <fix>3d</fix>
</trkpt>
<trkpt lat="33.810313" lon="-118.3938667">
  <ele>-0.12</ele>
  <time>2026-09-02T22:06:38Z</time>
  <course>95.0</course>
  <speed>0.0</speed>
  <fix>3d</fix>
</trkpt>
<trkpt lat="33.8103144" lon="-118.3938683">
  <ele>-0.143</ele>
  <time>2026-09-02T22:06:38Z</time>
  <course>185.67</course>
  <speed>0.20615528128088303</speed>
  <fix>3d</fix>
</trkpt>
<trkpt lat="33.810313" lon="-118.3938667">
  <ele>-0.12</ele>
  <time>2026-09-02T22:06:38Z</time>
  <course>95.0</course>
  <speed>0.0</speed>
  <fix>3d</fix>
</trkpt>
<trkpt lat="33.8103146" lon="-118.3938685">
  <ele>-0.145</ele>
  <time>2026-09-02T22:06:38Z</time>
  <course>185.67</course>
  <speed>0.20615528128088303</speed>
  <fix>3d</fix>
</trkpt>
<trkpt lat="33.810313" lon="-118.3938667">
  <ele>-0.13</ele>
  <time>2026-09-02T22:06:38Z</time>
  <course>95.0</course>
  <speed>0.0</speed>
  <fix>3d</fix>
</trkpt>
<trkpt lat="33.8103142" lon="-118.3938681">
  <ele>-0.146</ele>
  <time>2026-09-02T22:06:38Z</time>
  <course>185.67</course>
  <speed>0.2</speed>
  <fix>3d</fix>
</trkpt>
<trkpt lat="33.810313" lon="-118.3938667">
  <ele>-0.13</ele>
  <time>2026-09-02T22:06:38Z</time>
  <course>95.0</course>
  <speed>0.0</speed>
  <fix>3d</fix>
</trkpt>
<trkpt lat="33.8103139" lon="-118.3938678">
  <ele>-0.145</ele>
  <time>2026-09-02T22:06:38Z</time>
  <course>185.67</course>
  <speed>0.19209372712298545</speed>
  <fix>3d</fix>
</trkpt>
<trkpt lat="33.810313" lon="-118.3938667">
  <ele>-0.13</ele>
  <time>2026-09-02T22:06:38Z</time>
  <course>95.0</course>
  <speed>0.0</speed>
  <fix>3d</fix>
</trkpt>
<trkpt lat="33.8103137" lon="-118.3938676">
  <ele>-0.142</ele>
  <time>2026-09-02T22:06:38Z</time>
  <course>185.67</course>
  <speed>0.19209372712298545</speed>
  <fix>3d</fix>
</trkpt>
<trkpt lat="33.810313" lon="-118.3938667">
  <ele>-0.13</ele>
  <time>2026-09-02T22:06:38Z</time>
  <course>95.0</course>
  <speed>0.0</speed>
  <fix>3d</fix>
</trkpt>
<trkpt lat="33.8103136" lon="-118.3938676">
  <ele>-0.139</ele>
  <time>2026-09-02T22:06:38Z</time>
  <course>185.67</course>
  <speed>0.18601075237738274</speed>
  <fix>3d</fix>
</trkpt>
<trkpt lat="33.810313" lon="-118.3938667">
  <ele>-0.13</ele>
  <time>2026-09-02T22:06:38Z</time>
  <course>95.0</course>
  <speed>0.0</speed>
  <fix>3d</fix>
</trkpt>
<trkpt lat="33.8103136" lon="-118.3938675">
  <ele>-0.136</ele>
  <time>2026-09-02T22:06:38Z</time>
  <course>185.67</course>
  <speed>0.19209372712298545</speed>
  <fix>3d</fix>
</trkpt>
<trkpt lat="33.810313" lon="-118.3938667">
  <ele>-0.13</ele>
  <time>2026-09-02T22:06:38Z</time>
  <course>95.0</course>
  <speed>0.0</speed>
  <fix>3d</fix>
</trkpt>
<trkpt lat="33.8103137" lon="-118.3938676">
  <ele>-0.133</ele>
  <time>2026-09-02T22:06:38Z</time>
  <course>185.67</course>
  <speed>0.19209372712298545</speed>
  <fix>3d</fix>
</trkpt>
<trkpt lat="33.810313" lon="-118.3938667">
  <ele>-0.12</ele>
  <time>2026-09-02T22:06:38Z</time>
  <course>95.0</course>
  <speed>0.0</speed>
  <fix>3d</fix>
</trkpt>
<trkpt lat="33.8103137" lon="-118.3938677">
  <ele>-0.129</ele>
  <time>2026-09-02T22:06:38Z</time>
  <course>185.67</course>
  <speed>0.19209372712298545</speed>
  <fix>3d</fix>
</trkpt>
<trkpt lat="33.810313" lon="-118.3938667">
  <ele>-0.12</ele>
  <time>2026-09-02T22:06:38Z</time>
  <course>95.0</course>
  <speed>0.0</speed>
  <fix>3d</fix>
</trkpt>
<trkpt lat="33.8103138" lon="-118.3938678">
  <ele>-0.127</ele>
  <time>2026-09-02T22:06:38Z</time>
  <course>185.66</course>
  <speed>0.19209372712298545</speed>
  <fix>3d</fix>
</trkpt>
<trkpt lat="33.810313" lon="-118.3938667">
  <ele>-0.12</ele>
  <time>2026-09-02T22:06:38Z</time>
  <course>95.0</course>
  <speed>0.0</speed>
  <fix>3d</fix>
</trkpt>
<trkpt lat="33.810314" lon="-118.3938679">
  <ele>-0.126</ele>
  <time>2026-09-02T22:06:38Z</time>
  <course>185.66</course>
  <speed>0.2</speed>
  <fix>3d</fix>
</trkpt>
<trkpt lat="33.810313" lon="-118.3938667">
  <ele>-0.12</ele>
  <time>2026-09-02T22:06:38Z</time>
  <course>95.0</course>
  <speed>0.0</speed>
  <fix>3d</fix>
</trkpt>
<trkpt lat="33.8103141" lon="-118.393868">
  <ele>-0.127</ele>
  <time>2026-09-02T22:06:38Z</time>
  <course>185.66</course>
  <speed>0.20615528128088303</speed>
  <fix>3d</fix>
</trkpt>
<trkpt lat="33.810313" lon="-118.3938667">
  <ele>-0.12</ele>
  <time>2026-09-02T22:06:38Z</time>
  <course>95.0</course>
  <speed>0.0</speed>
  <fix>3d</fix>
</trkpt>
<trkpt lat="33.8103138" lon="-118.3938677">
  <ele>-0.129</ele>
  <time>2026-09-02T22:06:38Z</time>
  <course>185.66</course>
  <speed>0.19209372712298545</speed>
  <fix>3d</fix>
</trkpt>
<trkpt lat="33.810313" lon="-118.3938667">
  <ele>-0.12</ele>
  <time>2026-09-02T22:06:38Z</time>
  <course>95.0</course>
  <speed>0.0</speed>
  <fix>3d</fix>
</trkpt>
<trkpt lat="33.8103135" lon="-118.3938674">
  <ele>-0.131</ele>
  <time>2026-09-02T22:06:38Z</time>
  <course>185.66</course>
  <speed>0.19209372712298545</speed>
  <fix>3d</fix>
</trkpt>
<trkpt lat="33.810313" lon="-118.3938667">
  <ele>-0.12</ele>
  <time>2026-09-02T22:06:38Z</time>
  <course>95.0</course>
  <speed>0.0</speed>
  <fix>3d</fix>
</trkpt>
<trkpt lat="33.8103133" lon="-118.3938672">
  <ele>-0.131</ele>
  <time>2026-09-02T22:06:38Z</time>
  <course>185.66</course>
  <speed>0.17804493814764857</speed>
  <fix>3d</fix>
</trkpt>
<trkpt lat="33.810313" lon="-118.3938667">
  <ele>-0.12</ele>
  <time>2026-09-02T22:06:38Z</time>
  <course>95.0</course>
  <speed>0.0</speed>
  <fix>3d</fix>
</trkpt>
<trkpt lat="33.8103132" lon="-118.3938672">
  <ele>-0.131</ele>
  <time>2026-09-02T22:06:38Z</time>
  <course>185.66</course>
  <speed>0.17804493814764857</speed>
  <fix>3d</fix>
</trkpt>
<trkpt lat="33.810313" lon="-118.3938667">
  <ele>-0.12</ele>
  <time>2026-09-02T22:06:38Z</time>
  <course>95.0</course>
  <speed>0.0</speed>
  <fix>3d</fix>
</trkpt>
<trkpt lat="33.8103132" lon="-118.3938671">
  <ele>-0.132</ele>
  <time>2026-09-02T22:06:38Z</time>
  <course>185.66</course>
  <speed>0.17804493814764857</speed>
  <fix>3d</fix>
</trkpt>
<trkpt lat="33.810313" lon="-118.3938667">
  <ele>-0.12</ele>
  <time>2026-09-02T22:06:38Z</time>
  <course>95.0</course>
  <speed>0.0</speed>
  <fix>3d</fix>
</trkpt>
<trkpt lat="33.8103132" lon="-118.3938672">
  <ele>-0.132</ele>
  <time>2026-09-02T22:06:38Z</time>
  <course>185.66</course>
  <speed>0.17804493814764857</speed>
  <fix>3d</fix>
</trkpt>
<trkpt lat="33.810313" lon="-118.3938667">
  <ele>-0.13</ele>
  <time>2026-09-02T22:06:38Z</time>
  <course>95.0</course>
  <speed>0.0</speed>
  <fix>3d</fix>
</trkpt>
<trkpt lat="33.8103133" lon="-118.3938673">
  <ele>-0.132</ele>
  <time>2026-09-02T22:06:38Z</time>
  <course>185.66</course>
  <speed>0.19209372712298545</speed>
  <fix>3d</fix>
</trkpt>
<trkpt lat="33.810313" lon="-118.3938667">
  <ele>-0.13</ele>
  <time>2026-09-02T22:06:38Z</time>
  <course>95.0</course>
  <speed>0.0</speed>
  <fix>3d</fix>
</trkpt>
<trkpt lat="33.8103134" lon="-118.3938674">
  <ele>-0.131</ele>
  <time>2026-09-02T22:06:38Z</time>
  <course>185.66</course>
  <speed>0.19209372712298545</speed>
  <fix>3d</fix>
</trkpt>
<trkpt lat="33.810313" lon="-118.3938667">
  <ele>-0.13</ele>
  <time>2026-09-02T22:06:38Z</time>
  <course>95.0</course>
  <speed>0.0</speed>
  <fix>3d</fix>
</trkpt>
<trkpt lat="33.8103136" lon="-118.3938675">
  <ele>-0.13</ele>
  <time>2026-09-02T22:06:38Z</time>
  <course>185.66</course>
  <speed>0.19209372712298545</speed>
  <fix>3d</fix>
</trkpt>
<trkpt lat="33.810313" lon="-118.3938667">
  <ele>-0.13</ele>
  <time>2026-09-02T22:06:38Z</time>
  <course>95.0</course>
  <speed>0.0</speed>
  <fix>3d</fix>
</trkpt>
<trkpt lat="33.8103137" lon="-118.3938676">
  <ele>-0.128</ele>
  <time>2026-09-02T22:06:38Z</time>
  <course>185.66</course>
  <speed>0.2</speed>
  <fix>3d</fix>
</trkpt>
<trkpt lat="33.810313" lon="-118.3938667">
  <ele>-0.13</ele>
  <time>2026-09-02T22:06:38Z</time>
  <course>95.0</course>
  <speed>0.0</speed>
  <fix>3d</fix>
</trkpt>
<trkpt lat="33.8103135" lon="-118.3938674">
  <ele>-0.125</ele>
  <time>2026-09-02T22:06:38Z</time>
  <course>185.66</course>
  <speed>0.19209372712298545</speed>
  <fix>3d</fix>
</trkpt>
<trkpt lat="33.810313" lon="-118.3938667">
  <ele>-0.13</ele>
  <time>2026-09-02T22:06:38Z</time>
  <course>95.0</course>
  <speed>0.0</speed>
  <fix>3d</fix>
</trkpt>
<trkpt lat="33.8103131" lon="-118.3938671">
  <ele>-0.121</ele>
  <time>2026-09-02T22:06:38Z</time>
  <course>185.66</course>
  <speed>0.19209372712298545</speed>
  <fix>3d</fix>
</trkpt>
<trkpt lat="33.810313" lon="-118.3938667">
  <ele>-0.12</ele>
  <time>2026-09-02T22:06:38Z</time>
  <course>95.0</course>
  <speed>0.0</speed>
  <fix>3d</fix>
</trkpt>
<trkpt lat="33.810313" lon="-118.3938669">
  <ele>-0.117</ele>
  <time>2026-09-02T22:06:38Z</time>
  <course>185.66</course>
  <speed>0.17804493814764857</speed>
  <fix>3d</fix>
</trkpt>
<trkpt lat="33.810313" lon="-118.3938667">
  <ele>-0.12</ele>
  <time>2026-09-02T22:06:38Z</time>
  <course>95.0</course>
  <speed>0.0</speed>
  <fix>3d</fix>
</trkpt>
<trkpt lat="33.8103129" lon="-118.3938668">
  <ele>-0.115</ele>
  <time>2026-09-02T22:06:38Z</time>
  <course>185.66</course>
  <speed>0.17804493814764857</speed>
  <fix>3d</fix>
</trkpt>
<trkpt lat="33.810313" lon="-118.3938667">
  <ele>-0.12</ele>
  <time>2026-09-02T22:06:38Z</time>
  <course>95.0</course>
  <speed>0.0</speed>
  <fix>3d</fix>
</trkpt>
<trkpt lat="33.8103129" lon="-118.3938668">
  <ele>-0.115</ele>
  <time>2026-09-02T22:06:38Z</time>
  <course>185.66</course>
  <speed>0.17804493814764857</speed>
  <fix>3d</fix>
</trkpt>
<trkpt lat="33.810313" lon="-118.3938667">
  <ele>-0.12</ele>
  <time>2026-09-02T22:06:38Z</time>
  <course>95.0</course>
  <speed>0.0</speed>
  <fix>3d</fix>
</trkpt>
<trkpt lat="33.8103129" lon="-118.3938669">
  <ele>-0.117</ele>
  <time>2026-09-02T22:06:38Z</time>
  <course>185.66</course>
  <speed>0.17804493814764857</speed>
  <fix>3d</fix>
</trkpt>
<trkpt lat="33.810313" lon="-118.3938667">
  <ele>-0.12</ele>
  <time>2026-09-02T22:06:38Z</time>
  <course>95.0</course>
  <speed>0.0</speed>
  <fix>3d</fix>
</trkpt>
<trkpt lat="33.810313" lon="-118.3938669">
  <ele>-0.12</ele>
  <time>2026-09-02T22:06:38Z</time>
  <course>185.66</course>
  <speed>0.18439088914585774</speed>
  <fix>3d</fix>
</trkpt>
<trkpt lat="33.810313" lon="-118.3938667">
  <ele>-0.12</ele>
  <time>2026-09-02T22:06:38Z</time>
  <course>95.0</course>
  <speed>0.0</speed>
  <fix>3d</fix>
</trkpt>
<trkpt lat="33.8103131" lon="-118.393867">
  <ele>-0.123</ele>
  <time>2026-09-02T22:06:38Z</time>
  <course>185.66</course>
  <speed>0.19209372712298545</speed>
  <fix>3d</fix>
</trkpt>
<trkpt lat="33.810313" lon="-118.3938667">
  <ele>-0.12</ele>
  <time>2026-09-02T22:06:38Z</time>
  <course>95.0</course>
  <speed>0.0</speed>
  <fix>3d</fix>
</trkpt>
<trkpt lat="33.8103132" lon="-118.3938671">
  <ele>-0.126</ele>
  <time>2026-09-02T22:06:38Z</time>
  <course>185.66</course>
  <speed>0.19209372712298545</speed>
  <fix>3d</fix>
</trkpt>
<trkpt lat="33.810313" lon="-118.3938667">
  <ele>-0.12</ele>
  <time>2026-09-02T22:06:38Z</time>
  <course>95.0</course>
  <speed>0.0</speed>
  <fix>3d</fix>
</trkpt>
<trkpt lat="33.8103133" lon="-118.3938673">
  <ele>-0.127</ele>
  <time>2026-09-02T22:06:38Z</time>
  <course>185.66</course>
  <speed>0.19209372712298545</speed>
  <fix>3d</fix>
</trkpt>
<trkpt lat="33.810313" lon="-118.3938666">
  <ele>-0.12</ele>
  <time>2026-09-02T22:06:38Z</time>
  <course>95.0</course>
  <speed>0.0</speed>
  <fix>3d</fix>
</trkpt>
<trkpt lat="33.8103131" lon="-118.3938671">
  <ele>-0.129</ele>
  <time>2026-09-02T22:06:38Z</time>
  <course>185.65</course>
  <speed>0.19209372712298545</speed>
  <fix>3d</fix>
</trkpt>
<trkpt lat="33.810313" lon="-118.3938666">
  <ele>-0.12</ele>
  <time>2026-09-02T22:06:38Z</time>
  <course>95.0</course>
  <speed>0.0</speed>
  <fix>3d</fix>
</trkpt>
<trkpt lat="33.8103128" lon="-118.3938668">
  <ele>-0.129</ele>
  <time>2026-09-02T22:06:38Z</time>
  <course>185.65</course>
  <speed>0.17804493814764857</speed>
  <fix>3d</fix>
</trkpt>
<trkpt lat="33.810313" lon="-118.3938666">
  <ele>-0.13</ele>
  <time>2026-09-02T22:06:38Z</time>
  <course>95.0</course>
  <speed>0.0</speed>
  <fix>3d</fix>
</trkpt>
<trkpt lat="33.8103126" lon="-118.3938666">
  <ele>-0.129</ele>
  <time>2026-09-02T22:06:38Z</time>
  <course>185.65</course>
  <speed>0.17804493814764857</speed>
  <fix>3d</fix>
</trkpt>
<trkpt lat="33.810313" lon="-118.3938666">
  <ele>-0.13</ele>
  <time>2026-09-02T22:06:38Z</time>
  <course>95.0</course>
  <speed>0.0</speed>
  <fix>3d</fix>
</trkpt>
<trkpt lat="33.8103126" lon="-118.3938665">
  <ele>-0.129</ele>
  <time>2026-09-02T22:06:38Z</time>
  <course>185.65</course>
  <speed>0.17804493814764857</speed>
  <fix>3d</fix>
</trkpt>
<trkpt lat="33.810313" lon="-118.3938666">
  <ele>-0.13</ele>
  <time>2026-09-02T22:06:38Z</time>
  <course>95.0</course>
  <speed>0.0</speed>
  <fix>3d</fix>
</trkpt>
<trkpt lat="33.8103125" lon="-118.3938665">
  <ele>-0.129</ele>
  <time>2026-09-02T22:06:38Z</time>
  <course>185.65</course>
  <speed>0.17804493814764857</speed>
  <fix>3d</fix>
</trkpt>
<trkpt lat="33.810313" lon="-118.3938666">
  <ele>-0.13</ele>
  <time>2026-09-02T22:06:38Z</time>
  <course>95.0</course>
  <speed>0.0</speed>
  <fix>3d</fix>
</trkpt>
<trkpt lat="33.8103126" lon="-118.3938666">
  <ele>-0.127</ele>
  <time>2026-09-02T22:06:38Z</time>
  <course>185.65</course>
  <speed>0.17804493814764857</speed>
  <fix>3d</fix>
</trkpt>
<trkpt lat="33.810313" lon="-118.3938666">
  <ele>-0.12</ele>
  <time>2026-09-02T22:06:38Z</time>
  <course>95.0</course>
  <speed>0.0</speed>
  <fix>3d</fix>
</trkpt>
<trkpt lat="33.8103127" lon="-118.3938666">
  <ele>-0.125</ele>
  <time>2026-09-02T22:06:38Z</time>
  <course>185.65</course>
  <speed>0.18439088914585774</speed>
  <fix>3d</fix>
</trkpt>
<trkpt lat="33.810313" lon="-118.3938666">
  <ele>-0.12</ele>
  <time>2026-09-02T22:06:38Z</time>
  <course>95.0</course>
  <speed>0.0</speed>
  <fix>3d</fix>
</trkpt>
<trkpt lat="33.8103128" lon="-118.3938667">
  <ele>-0.123</ele>
  <time>2026-09-02T22:06:38Z</time>
  <course>185.65</course>
  <speed>0.19209372712298545</speed>
  <fix>3d</fix>
</trkpt>
<trkpt lat="33.810313" lon="-118.3938666">
  <ele>-0.12</ele>
  <time>2026-09-02T22:06:38Z</time>
  <course>95.0</course>
  <speed>0.0</speed>
  <fix>3d</fix>
</trkpt>
<trkpt lat="33.8103129" lon="-118.3938669">
  <ele>-0.123</ele>
  <time>2026-09-02T22:06:38Z</time>
  <course>185.65</course>
  <speed>0.19209372712298545</speed>
  <fix>3d</fix>
</trkpt>
<trkpt lat="33.810313" lon="-118.3938666">
  <ele>-0.12</ele>
  <time>2026-09-02T22:06:38Z</time>
  <course>95.0</course>
  <speed>0.0</speed>
  <fix>3d</fix>
</trkpt>
<trkpt lat="33.810313" lon="-118.393867">
  <ele>-0.125</ele>
  <time>2026-09-02T22:06:38Z</time>
  <course>185.65</course>
  <speed>0.19209372712298545</speed>
  <fix>3d</fix>
</trkpt>
<trkpt lat="33.810313" lon="-118.3938666">
  <ele>-0.12</ele>
  <time>2026-09-02T22:06:38Z</time>
  <course>95.0</course>
  <speed>0.0</speed>
  <fix>3d</fix>
</trkpt>
<trkpt lat="33.8103128" lon="-118.3938668">
  <ele>-0.128</ele>
  <time>2026-09-02T22:06:38Z</time>
  <course>185.65</course>
  <speed>0.19209372712298545</speed>
  <fix>3d</fix>
</trkpt>
<trkpt lat="33.810313" lon="-118.3938666">
  <ele>-0.12</ele>
  <time>2026-09-02T22:06:38Z</time>
  <course>95.0</course>
  <speed>0.0</speed>
  <fix>3d</fix>
</trkpt>
<trkpt lat="33.8103125" lon="-118.3938665">
  <ele>-0.132</ele>
  <time>2026-09-02T22:06:38Z</time>
  <course>185.65</course>
  <speed>0.17804493814764857</speed>
  <fix>3d</fix>
</trkpt>
<trkpt lat="33.810313" lon="-118.3938666">
  <ele>-0.12</ele>
  <time>2026-09-02T22:06:38Z</time>
  <course>95.0</course>
  <speed>0.0</speed>
  <fix>3d</fix>
</trkpt>
<trkpt lat="33.8103124" lon="-118.3938663">
  <ele>-0.135</ele>
  <time>2026-09-02T22:06:38Z</time>
  <course>185.65</course>
  <speed>0.17804493814764857</speed>
  <fix>3d</fix>
</trkpt>
<trkpt lat="33.810313" lon="-118.3938666">
  <ele>-0.12</ele>
  <time>2026-09-02T22:06:38Z</time>
  <course>95.0</course>
  <speed>0.0</speed>
  <fix>3d</fix>
</trkpt>
<trkpt lat="33.8103123" lon="-118.3938663">
  <ele>-0.136</ele>
  <time>2026-09-02T22:06:38Z</time>
  <course>185.65</course>
  <speed>0.17804493814764857</speed>
  <fix>3d</fix>
</trkpt>
<trkpt lat="33.810313" lon="-118.3938666">
  <ele>-0.12</ele>
  <time>2026-09-02T22:06:38Z</time>
  <course>95.0</course>
  <speed>0.0</speed>
  <fix>3d</fix>
</trkpt>
<trkpt lat="33.8103123" lon="-118.3938663">
  <ele>-0.137</ele>
  <time>2026-09-02T22:06:38Z</time>
  <course>185.65</course>
  <speed>0.17804493814764857</speed>
  <fix>3d</fix>
</trkpt>
<trkpt lat="33.810313" lon="-118.3938666">
  <ele>-0.12</ele>
  <time>2026-09-02T22:06:38Z</time>
  <course>95.0</course>
  <speed>0.0</speed>
  <fix>3d</fix>
</trkpt>
<trkpt lat="33.8103123" lon="-118.3938663">
  <ele>-0.138</ele>
  <time>2026-09-02T22:06:38Z</time>
  <course>185.65</course>
  <speed>0.17804493814764857</speed>
  <fix>3d</fix>
</trkpt>
<trkpt lat="33.810313" lon="-118.3938666">
  <ele>-0.12</ele>
  <time>2026-09-02T22:06:38Z</time>
  <course>95.0</course>
  <speed>0.0</speed>
  <fix>3d</fix>
</trkpt>
<trkpt lat="33.8103124" lon="-118.3938664">
  <ele>-0.138</ele>
  <time>2026-09-02T22:06:38Z</time>
  <course>185.65</course>
  <speed>0.17804493814764857</speed>
  <fix>3d</fix>
</trkpt>
<trkpt lat="33.810313" lon="-118.3938666">
  <ele>-0.12</ele>
  <time>2026-09-02T22:06:38Z</time>
  <course>95.0</course>
  <speed>0.0</speed>
  <fix>3d</fix>
</trkpt>
<trkpt lat="33.8103125" lon="-118.3938665">
  <ele>-0.137</ele>
  <time>2026-09-02T22:06:38Z</time>
  <course>185.65</course>
  <speed>0.19209372712298545</speed>
  <fix>3d</fix>
</trkpt>
<trkpt lat="33.810313" lon="-118.3938666">
  <ele>-0.13</ele>
  <time>2026-09-02T22:06:38Z</time>
  <course>95.0</course>
  <speed>0.0</speed>
  <fix>3d</fix>
</trkpt>
<trkpt lat="33.8103126" lon="-118.3938666">
  <ele>-0.135</ele>
  <time>2026-09-02T22:06:38Z</time>
  <course>185.65</course>
  <speed>0.19209372712298545</speed>
  <fix>3d</fix>
</trkpt>
<trkpt lat="33.810313" lon="-118.3938666">
  <ele>-0.13</ele>
  <time>2026-09-02T22:06:38Z</time>
  <course>95.0</course>
  <speed>0.0</speed>
  <fix>3d</fix>
</trkpt>
<trkpt lat="33.8103128" lon="-118.3938668">
  <ele>-0.132</ele>
  <time>2026-09-02T22:06:38Z</time>
  <course>185.65</course>
  <speed>0.19209372712298545</speed>
  <fix>3d</fix>
</trkpt>
<trkpt lat="33.810313" lon="-118.3938666">
  <ele>-0.12</ele>
  <time>2026-09-02T22:06:38Z</time>
  <course>95.0</course>
  <speed>0.0</speed>
  <fix>3d</fix>
</trkpt>
<trkpt lat="33.8103126" lon="-118.3938666">
  <ele>-0.128</ele>
  <time>2026-09-02T22:06:38Z</time>
  <course>185.65</course>
  <speed>0.19209372712298545</speed>
  <fix>3d</fix>
</trkpt>
<trkpt lat="33.810313" lon="-118.3938666">
  <ele>-0.12</ele>
  <time>2026-09-02T22:06:38Z</time>
  <course>95.0</course>
  <speed>0.0</speed>
  <fix>3d</fix>
</trkpt>
<trkpt lat="33.8103123" lon="-118.3938663">
  <ele>-0.125</ele>
  <time>2026-09-02T22:06:38Z</time>
  <course>185.65</course>
  <speed>0.17804493814764857</speed>
  <fix>3d</fix>
</trkpt>
<trkpt lat="33.810313" lon="-118.3938666">
  <ele>-0.12</ele>
  <time>2026-09-02T22:06:38Z</time>
  <course>95.0</course>
  <speed>0.0</speed>
  <fix>3d</fix>
</trkpt>
<trkpt lat="33.8103121" lon="-118.3938661">
  <ele>-0.124</ele>
  <time>2026-09-02T22:06:38Z</time>
  <course>185.65</course>
  <speed>0.17804493814764857</speed>
  <fix>3d</fix>
</trkpt>
<trkpt lat="33.810313" lon="-118.3938666">
  <ele>-0.12</ele>
  <time>2026-09-02T22:06:38Z</time>
  <course>95.0</course>
  <speed>0.0</speed>
  <fix>3d</fix>
</trkpt>
<trkpt lat="33.8103121" lon="-118.3938661">
  <ele>-0.124</ele>
  <time>2026-09-02T22:06:38Z</time>
  <course>185.65</course>
  <speed>0.17804493814764857</speed>
  <fix>3d</fix>
</trkpt>
<trkpt lat="33.810313" lon="-118.3938666">
  <ele>-0.12</ele>
  <time>2026-09-02T22:06:38Z</time>
  <course>95.0</course>
  <speed>0.0</speed>
  <fix>3d</fix>
</trkpt>
<trkpt lat="33.8103121" lon="-118.3938661">
  <ele>-0.127</ele>
  <time>2026-09-02T22:06:38Z</time>
  <course>185.65</course>
  <speed>0.17804493814764857</speed>
  <fix>3d</fix>
</trkpt>
<trkpt lat="33.810313" lon="-118.3938666">
  <ele>-0.12</ele>
  <time>2026-09-02T22:06:38Z</time>
  <course>95.0</course>
  <speed>0.0</speed>
  <fix>3d</fix>
</trkpt>
<trkpt lat="33.8103121" lon="-118.3938661">
  <ele>-0.13</ele>
  <time>2026-09-02T22:06:38Z</time>
  <course>185.64</course>
  <speed>0.17804493814764857</speed>
  <fix>3d</fix>
</trkpt>
<trkpt lat="33.810313" lon="-118.3938666">
  <ele>-0.12</ele>
  <time>2026-09-02T22:06:38Z</time>
  <course>95.0</course>
  <speed>0.0</speed>
  <fix>3d</fix>
</trkpt>
<trkpt lat="33.8103122" lon="-118.3938662">
  <ele>-0.132</ele>
  <time>2026-09-02T22:06:38Z</time>
  <course>185.64</course>
  <speed>0.17804493814764857</speed>
  <fix>3d</fix>
</trkpt>
<trkpt lat="33.810313" lon="-118.3938666">
  <ele>-0.12</ele>
  <time>2026-09-02T22:06:38Z</time>
  <course>95.0</course>
  <speed>0.0</speed>
  <fix>3d</fix>
</trkpt>
<trkpt lat="33.8103123" lon="-118.3938663">
  <ele>-0.133</ele>
  <time>2026-09-02T22:06:38Z</time>
  <course>185.64</course>
  <speed>0.19209372712298545</speed>
  <fix>3d</fix>
</trkpt>
<trkpt lat="33.810313" lon="-118.3938666">
  <ele>-0.12</ele>
  <time>2026-09-02T22:06:38Z</time>
  <course>95.0</course>
  <speed>0.0</speed>
  <fix>3d</fix>
</trkpt>
<trkpt lat="33.8103124" lon="-118.3938664">
  <ele>-0.132</ele>
  <time>2026-09-02T22:06:38Z</time>
  <course>185.64</course>
  <speed>0.19209372712298545</speed>
  <fix>3d</fix>
</trkpt>
<trkpt lat="33.810313" lon="-118.3938666">
  <ele>-0.12</ele>
  <time>2026-09-02T22:06:38Z</time>
  <course>95.0</course>
  <speed>0.0</speed>
  <fix>3d</fix>
</trkpt>
<trkpt lat="33.810313" lon="-118.3938666">
  <ele>-0.131</ele>
  <time>2026-09-02T22:06:38Z</time>
  <course>185.64</course>
  <speed>0.17029386365926402</speed>
  <fix>3d</fix>
</trkpt>
<trkpt lat="33.810313" lon="-118.3938666">
  <ele>-0.12</ele>
  <time>2026-09-02T22:06:38Z</time>
  <course>95.0</course>
  <speed>0.0</speed>
  <fix>3d</fix>
</trkpt>
<trkpt lat="33.8103131" lon="-118.3938667">
  <ele>-0.131</ele>
  <time>2026-09-02T22:06:38Z</time>
  <course>185.64</course>
  <speed>0.14212670403551894</speed>
  <fix>3d</fix>
</trkpt>
<trkpt lat="33.810313" lon="-118.3938666">
  <ele>-0.12</ele>
  <time>2026-09-02T22:06:38Z</time>
  <course>95.0</course>
  <speed>0.0</speed>
  <fix>3d</fix>
</trkpt>
<trkpt lat="33.8103131" lon="-118.3938667">
  <ele>-0.13</ele>
  <time>2026-09-02T22:06:38Z</time>
  <course>185.64</course>
  <speed>0.12041594578792296</speed>
  <fix>3d</fix>
</trkpt>
<trkpt lat="33.810313" lon="-118.3938666">
  <ele>-0.12</ele>
  <time>2026-09-02T22:06:38Z</time>
  <course>95.0</course>
  <speed>0.0</speed>
  <fix>3d</fix>
</trkpt>
<trkpt lat="33.8103131" lon="-118.3938667">
  <ele>-0.127</ele>
  <time>2026-09-02T22:06:38Z</time>
  <course>185.64</course>
  <speed>0.1</speed>
  <fix>3d</fix>
</trkpt>
<trkpt lat="33.810313" lon="-118.3938666">
  <ele>-0.12</ele>
  <time>2026-09-02T22:06:38Z</time>
  <course>95.0</course>
  <speed>0.0</speed>
  <fix>3d</fix>
</trkpt>
<trkpt lat="33.8103131" lon="-118.3938667">
  <ele>-0.124</ele>
  <time>2026-09-02T22:06:38Z</time>
  <course>185.64</course>
  <speed>0.08602325267042626</speed>
  <fix>3d</fix>
</trkpt>
<trkpt lat="33.810313" lon="-118.3938666">
  <ele>-0.12</ele>
  <time>2026-09-02T22:06:38Z</time>
  <course>95.0</course>
  <speed>0.0</speed>
  <fix>3d</fix>
</trkpt>
<trkpt lat="33.8103131" lon="-118.3938667">
  <ele>-0.122</ele>
  <time>2026-09-02T22:06:38Z</time>
  <course>185.64</course>
  <speed>0.07810249675906654</speed>
  <fix>3d</fix>
</trkpt>
<trkpt lat="33.810313" lon="-118.3938666">
  <ele>-0.12</ele>
  <time>2026-09-02T22:06:38Z</time>
  <course>95.0</course>
  <speed>0.0</speed>
  <fix>3d</fix>
</trkpt>
<trkpt lat="33.8103131" lon="-118.3938667">
  <ele>-0.12</ele>
  <time>2026-09-02T22:06:38Z</time>
  <course>185.64</course>
  <speed>0.07810249675906654</speed>
  <fix>3d</fix>
</trkpt>
<trkpt lat="33.810313" lon="-118.3938666">
  <ele>-0.12</ele>
  <time>2026-09-02T22:06:38Z</time>
  <course>95.0</course>
  <speed>0.0</speed>
  <fix>3d</fix>
</trkpt>
<trkpt lat="33.8103131" lon="-118.3938667">
  <ele>-0.121</ele>
  <time>2026-09-02T22:06:38Z</time>
  <course>185.64</course>
  <speed>0.07810249675906654</speed>
  <fix>3d</fix>
</trkpt>
<trkpt lat="33.810313" lon="-118.3938666">
  <ele>-0.12</ele>
  <time>2026-09-02T22:06:38Z</time>
  <course>95.0</course>
  <speed>0.0</speed>
  <fix>3d</fix>
</trkpt>
<trkpt lat="33.8103131" lon="-118.3938667">
  <ele>-0.124</ele>
  <time>2026-09-02T22:06:38Z</time>
  <course>185.64</course>
  <speed>0.07810249675906654</speed>
  <fix>3d</fix>
</trkpt>
<trkpt lat="33.810313" lon="-118.3938666">
  <ele>-0.12</ele>
  <time>2026-09-02T22:06:38Z</time>
  <course>95.0</course>
  <speed>0.0</speed>
  <fix>3d</fix>
</trkpt>
<trkpt lat="33.8103131" lon="-118.3938667">
  <ele>-0.128</ele>
  <time>2026-09-02T22:06:38Z</time>
  <course>185.64</course>
  <speed>0.07810249675906654</speed>
  <fix>3d</fix>
</trkpt>
<trkpt lat="33.810313" lon="-118.3938666">
  <ele>-0.12</ele>
  <time>2026-09-02T22:06:38Z</time>
  <course>95.0</course>
  <speed>0.0</speed>
  <fix>3d</fix>
</trkpt>
<trkpt lat="33.8103132" lon="-118.3938668">
  <ele>-0.13</ele>
  <time>2026-09-02T22:06:38Z</time>
  <course>185.64</course>
  <speed>0.07810249675906654</speed>
  <fix>3d</fix>
</trkpt>
<trkpt lat="33.810313" lon="-118.3938666">
  <ele>-0.12</ele>
  <time>2026-09-02T22:06:38Z</time>
  <course>95.0</course>
  <speed>0.0</speed>
  <fix>3d</fix>
</trkpt>
<trkpt lat="33.8103134" lon="-118.393867">
  <ele>-0.132</ele>
  <time>2026-09-02T22:06:38Z</time>
  <course>185.64</course>
  <speed>0.07810249675906654</speed>
  <fix>3d</fix>
</trkpt>
<trkpt lat="33.810313" lon="-118.3938666">
  <ele>-0.12</ele>
  <time>2026-09-02T22:06:38Z</time>
  <course>95.0</course>
  <speed>0.0</speed>
  <fix>3d</fix>
</trkpt>
<trkpt lat="33.8103134" lon="-118.393867">
  <ele>-0.132</ele>
  <time>2026-09-02T22:06:38Z</time>
  <course>185.64</course>
  <speed>0.08602325267042626</speed>
  <fix>3d</fix>
</trkpt>
<trkpt lat="33.810313" lon="-118.3938666">
  <ele>-0.12</ele>
  <time>2026-09-02T22:06:38Z</time>
  <course>95.0</course>
  <speed>0.0</speed>
  <fix>3d</fix>
</trkpt>
<trkpt lat="33.8103135" lon="-118.3938671">
  <ele>-0.132</ele>
  <time>2026-09-02T22:06:38Z</time>
  <course>185.64</course>
  <speed>0.08602325267042626</speed>
  <fix>3d</fix>
</trkpt>
<trkpt lat="33.810313" lon="-118.3938666">
  <ele>-0.12</ele>
  <time>2026-09-02T22:06:38Z</time>
  <course>95.0</course>
  <speed>0.0</speed>
  <fix>3d</fix>
</trkpt>
<trkpt lat="33.8103135" lon="-118.3938671">
  <ele>-0.13</ele>
  <time>2026-09-02T22:06:38Z</time>
  <course>185.64</course>
  <speed>0.08602325267042626</speed>
  <fix>3d</fix>
</trkpt>
<trkpt lat="33.810313" lon="-118.3938666">
  <ele>-0.12</ele>
  <time>2026-09-02T22:06:38Z</time>
  <course>95.0</course>
  <speed>0.0</speed>
  <fix>3d</fix>
</trkpt>
<trkpt lat="33.8103135" lon="-118.3938671">
  <ele>-0.128</ele>
  <time>2026-09-02T22:06:38Z</time>
  <course>185.64</course>
  <speed>0.09219544457292887</speed>
  <fix>3d</fix>
</trkpt>
<trkpt lat="33.810313" lon="-118.3938666">
  <ele>-0.12</ele>
  <time>2026-09-02T22:06:38Z</time>
  <course>95.0</course>
  <speed>0.0</speed>
  <fix>3d</fix>
</trkpt>
<trkpt lat="33.8103136" lon="-118.3938672">
  <ele>-0.124</ele>
  <time>2026-09-02T22:06:38Z</time>
  <course>185.64</course>
  <speed>0.09219544457292887</speed>
  <fix>3d</fix>
</trkpt>
<trkpt lat="33.810313" lon="-118.3938666">
  <ele>-0.12</ele>
  <time>2026-09-02T22:06:38Z</time>
  <course>95.0</course>
  <speed>0.0</speed>
  <fix>3d</fix>
</trkpt>
<trkpt lat="33.8103137" lon="-118.3938673">
  <ele>-0.121</ele>
  <time>2026-09-02T22:06:38Z</time>
  <course>185.64</course>
  <speed>0.09219544457292887</speed>
  <fix>3d</fix>
</trkpt>
<trkpt lat="33.810313" lon="-118.3938666">
  <ele>-0.12</ele>
  <time>2026-09-02T22:06:38Z</time>
  <course>95.0</course>
  <speed>0.0</speed>
  <fix>3d</fix>
</trkpt>
<trkpt lat="33.8103138" lon="-118.3938674">
  <ele>-0.119</ele>
  <time>2026-09-02T22:06:38Z</time>
  <course>185.64</course>
  <speed>0.1</speed>
  <fix>3d</fix>
</trkpt>
<trkpt lat="33.810313" lon="-118.3938666">
  <ele>-0.12</ele>
  <time>2026-09-02T22:06:38Z</time>
  <course>95.0</course>
  <speed>0.0</speed>
  <fix>3d</fix>
</trkpt>
<trkpt lat="33.8103139" lon="-118.3938674">
  <ele>-0.118</ele>
  <time>2026-09-02T22:06:38Z</time>
  <course>185.64</course>
  <speed>0.1</speed>
  <fix>3d</fix>
</trkpt>
<trkpt lat="33.810313" lon="-118.3938666">
  <ele>-0.12</ele>
  <time>2026-09-02T22:06:38Z</time>
  <course>95.0</course>
  <speed>0.0</speed>
  <fix>3d</fix>
</trkpt>
<trkpt lat="33.810314" lon="-118.3938675">
  <ele>-0.118</ele>
  <time>2026-09-02T22:06:38Z</time>
  <course>185.64</course>
  <speed>0.1063014581273465</speed>
  <fix>3d</fix>
</trkpt>
<trkpt lat="33.810313" lon="-118.3938666">
  <ele>-0.12</ele>
  <time>2026-09-02T22:06:38Z</time>
  <course>95.0</course>
  <speed>0.0</speed>
  <fix>3d</fix>
</trkpt>
<trkpt lat="33.8103142" lon="-118.3938677">
  <ele>-0.119</ele>
  <time>2026-09-02T22:06:38Z</time>
  <course>185.64</course>
  <speed>0.11401754250991379</speed>
  <fix>3d</fix>
</trkpt>
<trkpt lat="33.810313" lon="-118.3938666">
  <ele>-0.12</ele>
  <time>2026-09-02T22:06:38Z</time>
  <course>95.0</course>
  <speed>0.0</speed>
  <fix>3d</fix>
</trkpt>
<trkpt lat="33.8103142" lon="-118.3938678">
  <ele>-0.121</ele>
  <time>2026-09-02T22:06:38Z</time>
  <course>185.64</course>
  <speed>0.11401754250991379</speed>
  <fix>3d</fix>
</trkpt>
<trkpt lat="33.810313" lon="-118.3938666">
  <ele>-0.12</ele>
  <time>2026-09-02T22:06:38Z</time>
  <course>95.0</course>
  <speed>0.0</speed>
  <fix>3d</fix>
</trkpt>
<trkpt lat="33.8103143" lon="-118.3938678">
  <ele>-0.122</ele>
  <time>2026-09-02T22:06:38Z</time>
  <course>185.64</course>
  <speed>0.11401754250991379</speed>
  <fix>3d</fix>
</trkpt>
<trkpt lat="33.810313" lon="-118.3938666">
  <ele>-0.12</ele>
  <time>2026-09-02T22:06:38Z</time>
  <course>95.0</course>
  <speed>0.0</speed>
  <fix>3d</fix>
</trkpt>
<trkpt lat="33.8103143" lon="-118.3938679">
  <ele>-0.124</ele>
  <time>2026-09-02T22:06:38Z</time>
  <course>185.64</course>
  <speed>0.12041594578792296</speed>
  <fix>3d</fix>
</trkpt>
<trkpt lat="33.810313" lon="-118.3938666">
  <ele>-0.12</ele>
  <time>2026-09-02T22:06:38Z</time>
  <course>95.0</course>
  <speed>0.0</speed>
  <fix>3d</fix>
</trkpt>
<trkpt lat="33.8103144" lon="-118.3938679">
  <ele>-0.125</ele>
  <time>2026-09-02T22:06:38Z</time>
  <course>185.64</course>
  <speed>0.12041594578792296</speed>
  <fix>3d</fix>
</trkpt>
<trkpt lat="33.810313" lon="-118.3938666">
  <ele>-0.12</ele>
  <time>2026-09-02T22:06:38Z</time>
  <course>95.0</course>
  <speed>0.0</speed>
  <fix>3d</fix>
</trkpt>
<trkpt lat="33.8103144" lon="-118.393868">
  <ele>-0.125</ele>
  <time>2026-09-02T22:06:38Z</time>
  <course>185.64</course>
  <speed>0.12806248474865697</speed>
  <fix>3d</fix>
</trkpt>
<trkpt lat="33.810313" lon="-118.3938666">
  <ele>-0.12</ele>
  <time>2026-09-02T22:06:38Z</time>
  <course>95.0</course>
  <speed>0.0</speed>
  <fix>3d</fix>
</trkpt>
<trkpt lat="33.8103145" lon="-118.3938681">
  <ele>-0.123</ele>
  <time>2026-09-02T22:06:38Z</time>
  <course>185.64</course>
  <speed>0.12806248474865697</speed>
  <fix>3d</fix>
</trkpt>
<trkpt lat="33.810313" lon="-118.3938666">
  <ele>-0.12</ele>
  <time>2026-09-02T22:06:38Z</time>
  <course>95.0</course>
  <speed>0.0</speed>
  <fix>3d</fix>
</trkpt>
<trkpt lat="33.8103146" lon="-118.3938681">
  <ele>-0.121</ele>
  <time>2026-09-02T22:06:38Z</time>
  <course>185.64</course>
  <speed>0.12806248474865697</speed>
  <fix>3d</fix>
</trkpt>
<trkpt lat="33.810313" lon="-118.3938666">
  <ele>-0.12</ele>
  <time>2026-09-02T22:06:38Z</time>
  <course>95.0</course>
  <speed>0.0</speed>
  <fix>3d</fix>
</trkpt>
<trkpt lat="33.8103147" lon="-118.3938682">
  <ele>-0.117</ele>
  <time>2026-09-02T22:06:38Z</time>
  <course>185.64</course>
  <speed>0.12806248474865697</speed>
  <fix>3d</fix>
</trkpt>
<trkpt lat="33.810313" lon="-118.3938666">
  <ele>-0.12</ele>
  <time>2026-09-02T22:06:38Z</time>
  <course>95.0</course>
  <speed>0.0</speed>
  <fix>3d</fix>
</trkpt>
<trkpt lat="33.8103148" lon="-118.3938683">
  <ele>-0.115</ele>
  <time>2026-09-02T22:06:38Z</time>
  <course>185.64</course>
  <speed>0.12806248474865697</speed>
  <fix>3d</fix>
</trkpt>
<trkpt lat="33.810313" lon="-118.3938666">
  <ele>-0.12</ele>
  <time>2026-09-02T22:06:38Z</time>
  <course>95.0</course>
  <speed>0.0</speed>
  <fix>3d</fix>
</trkpt>
<trkpt lat="33.8103149" lon="-118.3938685">
  <ele>-0.115</ele>
  <time>2026-09-02T22:06:38Z</time>
  <course>185.64</course>
  <speed>0.14212670403551894</speed>
  <fix>3d</fix>
</trkpt>
<trkpt lat="33.810313" lon="-118.3938666">
  <ele>-0.12</ele>
  <time>2026-09-02T22:06:38Z</time>
  <course>95.0</course>
  <speed>0.0</speed>
  <fix>3d</fix>
</trkpt>
<trkpt lat="33.810315" lon="-118.3938685">
  <ele>-0.117</ele>
  <time>2026-09-02T22:06:38Z</time>
  <course>185.64</course>
  <speed>0.14212670403551894</speed>
  <fix>3d</fix>
</trkpt>
<trkpt lat="33.810313" lon="-118.3938666">
  <ele>-0.12</ele>
  <time>2026-09-02T22:06:38Z</time>
  <course>95.0</course>
  <speed>0.0</speed>
  <fix>3d</fix>
</trkpt>
<trkpt lat="33.8103151" lon="-118.3938686">
  <ele>-0.12</ele>
  <time>2026-09-02T22:06:38Z</time>
  <course>185.64</course>
  <speed>0.14212670403551894</speed>
  <fix>3d</fix>
</trkpt>
<trkpt lat="33.810313" lon="-118.3938666">
  <ele>-0.12</ele>
  <time>2026-09-02T22:06:38Z</time>
  <course>95.0</course>
  <speed>0.0</speed>
  <fix>3d</fix>
</trkpt>
<trkpt lat="33.8103151" lon="-118.3938687">
  <ele>-0.123</ele>
  <time>2026-09-02T22:06:38Z</time>
  <course>185.64</course>
  <speed>0.14212670403551894</speed>
  <fix>3d</fix>
</trkpt>
<trkpt lat="33.810313" lon="-118.3938666">
  <ele>-0.12</ele>
  <time>2026-09-02T22:06:38Z</time>
  <course>95.0</course>
  <speed>0.0</speed>
  <fix>3d</fix>
</trkpt>
<trkpt lat="33.8103151" lon="-118.3938687">
  <ele>-0.127</ele>
  <time>2026-09-02T22:06:38Z</time>
  <course>185.64</course>
  <speed>0.14212670403551894</speed>
  <fix>3d</fix>
</trkpt>
<trkpt lat="33.810313" lon="-118.3938666">
  <ele>-0.12</ele>
  <time>2026-09-02T22:06:38Z</time>
  <course>95.0</course>
  <speed>0.0</speed>
  <fix>3d</fix>
</trkpt>
<trkpt lat="33.8103152" lon="-118.3938687">
  <ele>-0.129</ele>
  <time>2026-09-02T22:06:38Z</time>
  <course>185.64</course>
  <speed>0.14212670403551894</speed>
  <fix>3d</fix>
</trkpt>
<trkpt lat="33.810313" lon="-118.3938666">
  <ele>-0.12</ele>
  <time>2026-09-02T22:06:38Z</time>
  <course>95.0</course>
  <speed>0.0</speed>
  <fix>3d</fix>
</trkpt>
<trkpt lat="33.8103152" lon="-118.3938688">
  <ele>-0.131</ele>
  <time>2026-09-02T22:06:38Z</time>
  <course>185.64</course>
  <speed>0.14212670403551894</speed>
  <fix>3d</fix>
</trkpt>
<trkpt lat="33.810313" lon="-118.3938666">
  <ele>-0.12</ele>
  <time>2026-09-02T22:06:38Z</time>
  <course>95.0</course>
  <speed>0.0</speed>
  <fix>3d</fix>
</trkpt>
<trkpt lat="33.8103153" lon="-118.3938688">
  <ele>-0.132</ele>
  <time>2026-09-02T22:06:38Z</time>
  <course>185.64</course>
  <speed>0.15</speed>
  <fix>3d</fix>
</trkpt>
<trkpt lat="33.810313" lon="-118.3938666">
  <ele>-0.12</ele>
  <time>2026-09-02T22:06:38Z</time>
  <course>95.0</course>
  <speed>0.0</speed>
  <fix>3d</fix>
</trkpt>
<trkpt lat="33.8103154" lon="-118.3938689">
  <ele>-0.132</ele>
  <time>2026-09-02T22:06:38Z</time>
  <course>185.64</course>
  <speed>0.15620499351813308</speed>
  <fix>3d</fix>
</trkpt>
<trkpt lat="33.810313" lon="-118.3938666">
  <ele>-0.12</ele>
  <time>2026-09-02T22:06:38Z</time>
  <course>95.0</course>
  <speed>0.0</speed>
  <fix>3d</fix>
</trkpt>
<trkpt lat="33.8103155" lon="-118.393869">
  <ele>-0.131</ele>
  <time>2026-09-02T22:06:38Z</time>
  <course>185.64</course>
  <speed>0.15620499351813308</speed>
  <fix>3d</fix>
</trkpt>
<trkpt lat="33.810313" lon="-118.3938666">
  <ele>-0.12</ele>
  <time>2026-09-02T22:06:38Z</time>
  <course>95.0</course>
  <speed>0.0</speed>
  <fix>3d</fix>
</trkpt>
<trkpt lat="33.8103156" lon="-118.3938691">
  <ele>-0.129</ele>
  <time>2026-09-02T22:06:38Z</time>
  <course>185.64</course>
  <speed>0.15620499351813308</speed>
  <fix>3d</fix>
</trkpt>
<trkpt lat="33.810313" lon="-118.3938666">
  <ele>-0.12</ele>
  <time>2026-09-02T22:06:38Z</time>
  <course>95.0</course>
  <speed>0.0</speed>
  <fix>3d</fix>
</trkpt>
<trkpt lat="33.8103157" lon="-118.3938693">
  <ele>-0.126</ele>
  <time>2026-09-02T22:06:38Z</time>
  <course>185.64</course>
  <speed>0.16401219466856726</speed>
  <fix>3d</fix>
</trkpt>
<trkpt lat="33.810313" lon="-118.3938666">
  <ele>-0.12</ele>
  <time>2026-09-02T22:06:38Z</time>
  <course>95.0</course>
  <speed>0.0</speed>
  <fix>3d</fix>
</trkpt>
<trkpt lat="33.8103159" lon="-118.3938694">
  <ele>-0.125</ele>
  <time>2026-09-02T22:06:38Z</time>
  <course>185.63</course>
  <speed>0.17029386365926402</speed>
  <fix>3d</fix>
</trkpt>
<trkpt lat="33.810313" lon="-118.3938666">
  <ele>-0.12</ele>
  <time>2026-09-02T22:06:38Z</time>
  <course>95.0</course>
  <speed>0.0</speed>
  <fix>3d</fix>
</trkpt>
<trkpt lat="33.810316" lon="-118.3938695">
  <ele>-0.124</ele>
  <time>2026-09-02T22:06:38Z</time>
  <course>185.63</course>
  <speed>0.17804493814764857</speed>
  <fix>3d</fix>
</trkpt>
<trkpt lat="33.810313" lon="-118.3938666">
  <ele>-0.12</ele>
  <time>2026-09-02T22:06:38Z</time>
  <course>95.0</course>
  <speed>0.0</speed>
  <fix>3d</fix>
</trkpt>
<trkpt lat="33.810316" lon="-118.3938695">
  <ele>-0.125</ele>
  <time>2026-09-02T22:06:38Z</time>
  <course>185.63</course>
  <speed>0.17029386365926402</speed>
  <fix>3d</fix>
</trkpt>
<trkpt lat="33.810313" lon="-118.3938666">
  <ele>-0.12</ele>
  <time>2026-09-02T22:06:38Z</time>
  <course>95.0</course>
  <speed>0.0</speed>
  <fix>3d</fix>
</trkpt>
<trkpt lat="33.8103159" lon="-118.3938694">
  <ele>-0.128</ele>
  <time>2026-09-02T22:06:38Z</time>
  <course>185.63</course>
  <speed>0.16401219466856726</speed>
  <fix>3d</fix>
</trkpt>
<trkpt lat="33.810313" lon="-118.3938666">
  <ele>-0.12</ele>
  <time>2026-09-02T22:06:38Z</time>
  <course>95.0</course>
  <speed>0.0</speed>
  <fix>3d</fix>
</trkpt>
<trkpt lat="33.8103159" lon="-118.3938694">
  <ele>-0.131</ele>
  <time>2026-09-02T22:06:38Z</time>
  <course>185.63</course>
  <speed>0.16401219466856726</speed>
  <fix>3d</fix>
</trkpt>
<trkpt lat="33.810313" lon="-118.3938666">
  <ele>-0.12</ele>
  <time>2026-09-02T22:06:38Z</time>
  <course>95.0</course>
  <speed>0.0</speed>
  <fix>3d</fix>
</trkpt>
<trkpt lat="33.8103159" lon="-118.3938695">
  <ele>-0.134</ele>
  <time>2026-09-02T22:06:38Z</time>
  <course>185.63</course>
  <speed>0.16401219466856726</speed>
  <fix>3d</fix>
</trkpt>
<trkpt lat="33.810313" lon="-118.3938666">
  <ele>-0.12</ele>
  <time>2026-09-02T22:06:38Z</time>
  <course>95.0</course>
  <speed>0.0</speed>
  <fix>3d</fix>
</trkpt>
<trkpt lat="33.810316" lon="-118.3938695">
  <ele>-0.137</ele>
  <time>2026-09-02T22:06:38Z</time>
  <course>185.63</course>
  <speed>0.17029386365926402</speed>
  <fix>3d</fix>
</trkpt>
<trkpt lat="33.810313" lon="-118.3938666">
  <ele>-0.12</ele>
  <time>2026-09-02T22:06:38Z</time>
  <course>95.0</course>
  <speed>0.0</speed>
  <fix>3d</fix>
</trkpt>
<trkpt lat="33.8103161" lon="-118.3938696">
  <ele>-0.138</ele>
  <time>2026-09-02T22:06:38Z</time>
  <course>185.63</course>
  <speed>0.17029386365926402</speed>
  <fix>3d</fix>
</trkpt>
<trkpt lat="33.810313" lon="-118.3938666">
  <ele>-0.12</ele>
  <time>2026-09-02T22:06:38Z</time>
  <course>95.0</course>
  <speed>0.0</speed>
  <fix>3d</fix>
</trkpt>
<trkpt lat="33.8103162" lon="-118.3938697">
  <ele>-0.138</ele>
  <time>2026-09-02T22:06:38Z</time>
  <course>185.63</course>
  <speed>0.17804493814764857</speed>
  <fix>3d</fix>
</trkpt>
<trkpt lat="33.810313" lon="-118.3938666">
  <ele>-0.12</ele>
  <time>2026-09-02T22:06:38Z</time>
  <course>95.0</course>
  <speed>0.0</speed>
  <fix>3d</fix>
</trkpt>
<trkpt lat="33.8103163" lon="-118.3938698">
  <ele>-0.137</ele>
  <time>2026-09-02T22:06:38Z</time>
  <course>185.63</course>
  <speed>0.17804493814764857</speed>
  <fix>3d</fix>
</trkpt>
<trkpt lat="33.810313" lon="-118.3938666">
  <ele>-0.12</ele>
  <time>2026-09-02T22:06:38Z</time>
  <course>95.0</course>
  <speed>0.0</speed>
  <fix>3d</fix>
</trkpt>
<trkpt lat="33.8103164" lon="-118.3938699">
  <ele>-0.134</ele>
  <time>2026-09-02T22:06:38Z</time>
  <course>185.63</course>
  <speed>0.18439088914585774</speed>
  <fix>3d</fix>
</trkpt>
<trkpt lat="33.810313" lon="-118.3938666">
  <ele>-0.12</ele>
  <time>2026-09-02T22:06:38Z</time>
  <course>95.0</course>
  <speed>0.0</speed>
  <fix>3d</fix>
</trkpt>
<trkpt lat="33.8103166" lon="-118.3938701">
  <ele>-0.132</ele>
  <time>2026-09-02T22:06:38Z</time>
  <course>185.63</course>
  <speed>0.19209372712298545</speed>
  <fix>3d</fix>
</trkpt>
<trkpt lat="33.810313" lon="-118.3938666">
  <ele>-0.12</ele>
  <time>2026-09-02T22:06:38Z</time>
  <course>95.0</course>
  <speed>0.0</speed>
  <fix>3d</fix>
</trkpt>
<trkpt lat="33.8103165" lon="-118.39387">
  <ele>-0.13</ele>
  <time>2026-09-02T22:06:38Z</time>
  <course>185.63</course>
  <speed>0.18439088914585774</speed>
  <fix>3d</fix>
</trkpt>
<trkpt lat="33.810313" lon="-118.3938666">
  <ele>-0.12</ele>
  <time>2026-09-02T22:06:38Z</time>
  <course>95.0</course>
  <speed>0.0</speed>
  <fix>3d</fix>
</trkpt>
<trkpt lat="33.8103164" lon="-118.3938699">
  <ele>-0.129</ele>
  <time>2026-09-02T22:06:38Z</time>
  <course>185.63</course>
  <speed>0.17804493814764857</speed>
  <fix>3d</fix>
</trkpt>
<trkpt lat="33.810313" lon="-118.3938666">
  <ele>-0.12</ele>
  <time>2026-09-02T22:06:38Z</time>
  <course>95.0</course>
  <speed>0.0</speed>
  <fix>3d</fix>
</trkpt>
<trkpt lat="33.8103164" lon="-118.3938699">
  <ele>-0.129</ele>
  <time>2026-09-02T22:06:38Z</time>
  <course>185.63</course>
  <speed>0.17804493814764857</speed>
  <fix>3d</fix>
</trkpt>
<trkpt lat="33.810313" lon="-118.3938666">
  <ele>-0.12</ele>
  <time>2026-09-02T22:06:38Z</time>
  <course>95.0</course>
  <speed>0.0</speed>
  <fix>3d</fix>
</trkpt>
<trkpt lat="33.8103164" lon="-118.3938699">
  <ele>-0.131</ele>
  <time>2026-09-02T22:06:38Z</time>
  <course>185.63</course>
  <speed>0.17804493814764857</speed>
  <fix>3d</fix>
</trkpt>
<trkpt lat="33.810313" lon="-118.3938666">
  <ele>-0.12</ele>
  <time>2026-09-02T22:06:38Z</time>
  <course>95.0</course>
  <speed>0.0</speed>
  <fix>3d</fix>
</trkpt>
<trkpt lat="33.8103164" lon="-118.3938699">
  <ele>-0.134</ele>
  <time>2026-09-02T22:06:38Z</time>
  <course>185.63</course>
  <speed>0.17804493814764857</speed>
  <fix>3d</fix>
</trkpt>
<trkpt lat="33.810313" lon="-118.3938666">
  <ele>-0.12</ele>
  <time>2026-09-02T22:06:38Z</time>
  <course>95.0</course>
  <speed>0.0</speed>
  <fix>3d</fix>
</trkpt>
<trkpt lat="33.8103165" lon="-118.39387">
  <ele>-0.135</ele>
  <time>2026-09-02T22:06:38Z</time>
  <course>185.63</course>
  <speed>0.17804493814764857</speed>
  <fix>3d</fix>
</trkpt>
<trkpt lat="33.810313" lon="-118.3938666">
  <ele>-0.12</ele>
  <time>2026-09-02T22:06:38Z</time>
  <course>95.0</course>
  <speed>0.0</speed>
  <fix>3d</fix>
</trkpt>
<trkpt lat="33.8103166" lon="-118.3938701">
  <ele>-0.136</ele>
  <time>2026-09-02T22:06:38Z</time>
  <course>185.63</course>
  <speed>0.18439088914585774</speed>
  <fix>3d</fix>
</trkpt>
<trkpt lat="33.810313" lon="-118.3938666">
  <ele>-0.12</ele>
  <time>2026-09-02T22:06:38Z</time>
  <course>95.0</course>
  <speed>0.0</speed>
  <fix>3d</fix>
</trkpt>
<trkpt lat="33.8103167" lon="-118.3938702">
  <ele>-0.136</ele>
  <time>2026-09-02T22:06:38Z</time>
  <course>185.63</course>
  <speed>0.19209372712298545</speed>
  <fix>3d</fix>
</trkpt>
<trkpt lat="33.810313" lon="-118.3938666">
  <ele>-0.12</ele>
  <time>2026-09-02T22:06:38Z</time>
  <course>95.0</course>
  <speed>0.0</speed>
  <fix>3d</fix>
</trkpt>
<trkpt lat="33.8103168" lon="-118.3938703">
  <ele>-0.136</ele>
  <time>2026-09-02T22:06:38Z</time>
  <course>185.63</course>
  <speed>0.19209372712298545</speed>
  <fix>3d</fix>
</trkpt>
<trkpt lat="33.810313" lon="-118.3938666">
  <ele>-0.12</ele>
  <time>2026-09-02T22:06:38Z</time>
  <course>95.0</course>
  <speed>0.0</speed>
  <fix>3d</fix>
</trkpt>
<trkpt lat="33.810317" lon="-118.3938705">
  <ele>-0.134</ele>
  <time>2026-09-02T22:06:38Z</time>
  <course>185.63</course>
  <speed>0.19209372712298545</speed>
  <fix>3d</fix>
</trkpt>
<trkpt lat="33.810313" lon="-118.3938666">
  <ele>-0.12</ele>
  <time>2026-09-02T22:06:38Z</time>
  <course>95.0</course>
  <speed>0.0</speed>
  <fix>3d</fix>
</trkpt>
<trkpt lat="33.8103169" lon="-118.3938704">
  <ele>-0.132</ele>
  <time>2026-09-02T22:06:38Z</time>
  <course>185.63</course>
  <speed>0.19209372712298545</speed>
  <fix>3d</fix>
</trkpt>
<trkpt lat="33.810313" lon="-118.3938666">
  <ele>-0.12</ele>
  <time>2026-09-02T22:06:38Z</time>
  <course>95.0</course>
  <speed>0.0</speed>
  <fix>3d</fix>
</trkpt>
<trkpt lat="33.8103167" lon="-118.3938702">
  <ele>-0.129</ele>
  <time>2026-09-02T22:06:38Z</time>
  <course>185.63</course>
  <speed>0.19209372712298545</speed>
  <fix>3d</fix>
</trkpt>
<trkpt lat="33.810313" lon="-118.3938666">
  <ele>-0.12</ele>
  <time>2026-09-02T22:06:38Z</time>
  <course>95.0</course>
  <speed>0.0</speed>
  <fix>3d</fix>
</trkpt>
<trkpt lat="33.8103166" lon="-118.3938701">
  <ele>-0.128</ele>
  <time>2026-09-02T22:06:38Z</time>
  <course>185.63</course>
  <speed>0.18439088914585774</speed>
  <fix>3d</fix>
</trkpt>
<trkpt lat="33.810313" lon="-118.3938666">
  <ele>-0.12</ele>
  <time>2026-09-02T22:06:38Z</time>
  <course>95.0</course>
  <speed>0.0</speed>
  <fix>3d</fix>
</trkpt>
<trkpt lat="33.8103166" lon="-118.3938701">
  <ele>-0.127</ele>
  <time>2026-09-02T22:06:38Z</time>
  <course>185.63</course>
  <speed>0.17804493814764857</speed>
  <fix>3d</fix>
</trkpt>
<trkpt lat="33.810313" lon="-118.3938666">
  <ele>-0.12</ele>
  <time>2026-09-02T22:06:38Z</time>
  <course>95.0</course>
  <speed>0.0</speed>
  <fix>3d</fix>
</trkpt>
<trkpt lat="33.8103167" lon="-118.3938702">
  <ele>-0.128</ele>
  <time>2026-09-02T22:06:38Z</time>
  <course>185.63</course>
  <speed>0.18439088914585774</speed>
  <fix>3d</fix>
</trkpt>
<trkpt lat="33.810313" lon="-118.3938666">
  <ele>-0.12</ele>
  <time>2026-09-02T22:06:38Z</time>
  <course>95.0</course>
  <speed>0.0</speed>
  <fix>3d</fix>
</trkpt>
<trkpt lat="33.8103167" lon="-118.3938702">
  <ele>-0.13</ele>
  <time>2026-09-02T22:06:38Z</time>
  <course>185.63</course>
  <speed>0.19209372712298545</speed>
  <fix>3d</fix>
</trkpt>
<trkpt lat="33.810313" lon="-118.3938666">
  <ele>-0.12</ele>
  <time>2026-09-02T22:06:38Z</time>
  <course>95.0</course>
  <speed>0.0</speed>
  <fix>3d</fix>
</trkpt>
<trkpt lat="33.8103168" lon="-118.3938703">
  <ele>-0.132</ele>
  <time>2026-09-02T22:06:38Z</time>
  <course>185.63</course>
  <speed>0.19209372712298545</speed>
  <fix>3d</fix>
</trkpt>
<trkpt lat="33.810313" lon="-118.3938666">
  <ele>-0.12</ele>
  <time>2026-09-02T22:06:38Z</time>
  <course>95.0</course>
  <speed>0.0</speed>
  <fix>3d</fix>
</trkpt>
<trkpt lat="33.8103169" lon="-118.3938704">
  <ele>-0.133</ele>
  <time>2026-09-02T22:06:38Z</time>
  <course>185.62</course>
  <speed>0.19209372712298545</speed>
  <fix>3d</fix>
</trkpt>
<trkpt lat="33.810313" lon="-118.3938666">
  <ele>-0.12</ele>
  <time>2026-09-02T22:06:38Z</time>
  <course>95.0</course>
  <speed>0.0</speed>
  <fix>3d</fix>
</trkpt>
<trkpt lat="33.8103171" lon="-118.3938706">
  <ele>-0.132</ele>
  <time>2026-09-02T22:06:38Z</time>
  <course>185.62</course>
  <speed>0.19209372712298545</speed>
  <fix>3d</fix>
</trkpt>
<trkpt lat="33.810313" lon="-118.3938666">
  <ele>-0.12</ele>
  <time>2026-09-02T22:06:38Z</time>
  <course>95.0</course>
  <speed>0.0</speed>
  <fix>3d</fix>
</trkpt>
<trkpt lat="33.8103172" lon="-118.3938707">
  <ele>-0.13</ele>
  <time>2026-09-02T22:06:38Z</time>
  <course>185.62</course>
  <speed>0.20615528128088303</speed>
  <fix>3d</fix>
</trkpt>
<trkpt lat="33.810313" lon="-118.3938666">
  <ele>-0.12</ele>
  <time>2026-09-02T22:06:38Z</time>
  <course>95.0</course>
  <speed>0.0</speed>
  <fix>3d</fix>
</trkpt>
<trkpt lat="33.8103174" lon="-118.3938708">
  <ele>-0.128</ele>
  <time>2026-09-02T22:06:38Z</time>
  <course>185.62</course>
  <speed>0.20615528128088303</speed>
  <fix>3d</fix>
</trkpt>
<trkpt lat="33.810313" lon="-118.3938666">
  <ele>-0.12</ele>
  <time>2026-09-02T22:06:38Z</time>
  <course>95.0</course>
  <speed>0.0</speed>
  <fix>3d</fix>
</trkpt>
<trkpt lat="33.8103172" lon="-118.3938707">
  <ele>-0.126</ele>
  <time>2026-09-02T22:06:38Z</time>
  <course>185.62</course>
  <speed>0.20615528128088303</speed>
  <fix>3d</fix>
</trkpt>
<trkpt lat="33.810313" lon="-118.3938666">
  <ele>-0.12</ele>
  <time>2026-09-02T22:06:38Z</time>
  <course>95.0</course>
  <speed>0.0</speed>
  <fix>3d</fix>
</trkpt>
<trkpt lat="33.810317" lon="-118.3938705">
  <ele>-0.123</ele>
  <time>2026-09-02T22:06:38Z</time>
  <course>185.62</course>
  <speed>0.19209372712298545</speed>
  <fix>3d</fix>
</trkpt>
<trkpt lat="33.810313" lon="-118.3938666">
  <ele>-0.12</ele>
  <time>2026-09-02T22:06:38Z</time>
  <course>95.0</course>
  <speed>0.0</speed>
  <fix>3d</fix>
</trkpt>
<trkpt lat="33.8103169" lon="-118.3938704">
  <ele>-0.121</ele>
  <time>2026-09-02T22:06:38Z</time>
  <course>185.62</course>
  <speed>0.19209372712298545</speed>
  <fix>3d</fix>
</trkpt>
<trkpt lat="33.810313" lon="-118.3938666">
  <ele>-0.12</ele>
  <time>2026-09-02T22:06:38Z</time>
  <course>95.0</course>
  <speed>0.0</speed>
  <fix>3d</fix>
</trkpt>
<trkpt lat="33.8103168" lon="-118.3938703">
  <ele>-0.12</ele>
  <time>2026-09-02T22:06:38Z</time>
  <course>185.62</course>
  <speed>0.19209372712298545</speed>
  <fix>3d</fix>
</trkpt>
<trkpt lat="33.810313" lon="-118.3938666">
  <ele>-0.12</ele>
  <time>2026-09-02T22:06:38Z</time>
  <course>95.0</course>
  <speed>0.0</speed>
  <fix>3d</fix>
</trkpt>
<trkpt lat="33.8103169" lon="-118.3938704">
  <ele>-0.121</ele>
  <time>2026-09-02T22:06:38Z</time>
  <course>185.62</course>
  <speed>0.19209372712298545</speed>
  <fix>3d</fix>
</trkpt>
<trkpt lat="33.810313" lon="-118.3938666">
  <ele>-0.12</ele>
  <time>2026-09-02T22:06:38Z</time>
  <course>95.0</course>
  <speed>0.0</speed>
  <fix>3d</fix>
</trkpt>
<trkpt lat="33.8103169" lon="-118.3938704">
  <ele>-0.122</ele>
  <time>2026-09-02T22:06:38Z</time>
  <course>185.62</course>
  <speed>0.19209372712298545</speed>
  <fix>3d</fix>
</trkpt>
<trkpt lat="33.810313" lon="-118.3938666">
  <ele>-0.12</ele>
  <time>2026-09-02T22:06:38Z</time>
  <course>95.0</course>
  <speed>0.0</speed>
  <fix>3d</fix>
</trkpt>
<trkpt lat="33.810317" lon="-118.3938705">
  <ele>-0.123</ele>
  <time>2026-09-02T22:06:38Z</time>
  <course>185.62</course>
  <speed>0.19209372712298545</speed>
  <fix>3d</fix>
</trkpt>
<trkpt lat="33.810313" lon="-118.3938666">
  <ele>-0.12</ele>
  <time>2026-09-02T22:06:38Z</time>
  <course>95.0</course>
  <speed>0.0</speed>
  <fix>3d</fix>
</trkpt>
<trkpt lat="33.8103171" lon="-118.3938706">
  <ele>-0.126</ele>
  <time>2026-09-02T22:06:38Z</time>
  <course>185.62</course>
  <speed>0.19209372712298545</speed>
  <fix>3d</fix>
</trkpt>
<trkpt lat="33.810313" lon="-118.3938666">
  <ele>-0.12</ele>
  <time>2026-09-02T22:06:38Z</time>
  <course>95.0</course>
  <speed>0.0</speed>
  <fix>3d</fix>
</trkpt>
<trkpt lat="33.8103173" lon="-118.3938707">
  <ele>-0.127</ele>
  <time>2026-09-02T22:06:38Z</time>
  <course>185.62</course>
  <speed>0.20615528128088303</speed>
  <fix>3d</fix>
</trkpt>
<trkpt lat="33.810313" lon="-118.3938666">
  <ele>-0.12</ele>
  <time>2026-09-02T22:06:38Z</time>
  <course>95.0</course>
  <speed>0.0</speed>
  <fix>3d</fix>
</trkpt>
<trkpt lat="33.8103174" lon="-118.3938709">
  <ele>-0.127</ele>
  <time>2026-09-02T22:06:38Z</time>
  <course>185.62</course>
  <speed>0.20615528128088303</speed>
  <fix>3d</fix>
</trkpt>
<trkpt lat="33.810313" lon="-118.3938666">
  <ele>-0.12</ele>
  <time>2026-09-02T22:06:38Z</time>
  <course>95.0</course>
  <speed>0.0</speed>
  <fix>3d</fix>
</trkpt>
<trkpt lat="33.8103175" lon="-118.393871">
  <ele>-0.126</ele>
  <time>2026-09-02T22:06:38Z</time>
  <course>185.62</course>
  <speed>0.21400934559032694</speed>
  <fix>3d</fix>
</trkpt>
<trkpt lat="33.810313" lon="-118.3938666">
  <ele>-0.12</ele>
  <time>2026-09-02T22:06:38Z</time>
  <course>95.0</course>
  <speed>0.0</speed>
  <fix>3d</fix>
</trkpt>
<trkpt lat="33.8103173" lon="-118.3938708">
  <ele>-0.125</ele>
  <time>2026-09-02T22:06:38Z</time>
  <course>185.62</course>
  <speed>0.20615528128088303</speed>
  <fix>3d</fix>
</trkpt>
<trkpt lat="33.810313" lon="-118.3938666">
  <ele>-0.12</ele>
  <time>2026-09-02T22:06:38Z</time>
  <course>95.0</course>
  <speed>0.0</speed>
  <fix>3d</fix>
</trkpt>
<trkpt lat="33.810317" lon="-118.3938705">
  <ele>-0.125</ele>
  <time>2026-09-02T22:06:38Z</time>
  <course>185.62</course>
  <speed>0.19209372712298545</speed>
  <fix>3d</fix>
</trkpt>
<trkpt lat="33.810313" lon="-118.3938666">
  <ele>-0.12</ele>
  <time>2026-09-02T22:06:38Z</time>
  <course>95.0</course>
  <speed>0.0</speed>
  <fix>3d</fix>
</trkpt>
<trkpt lat="33.8103169" lon="-118.3938704">
  <ele>-0.125</ele>
  <time>2026-09-02T22:06:38Z</time>
  <course>185.62</course>
  <speed>0.19209372712298545</speed>
  <fix>3d</fix>
</trkpt>
<trkpt lat="33.810313" lon="-118.3938666">
  <ele>-0.12</ele>
  <time>2026-09-02T22:06:38Z</time>
  <course>95.0</course>
  <speed>0.0</speed>
  <fix>3d</fix>
</trkpt>
<trkpt lat="33.8103169" lon="-118.3938704">
  <ele>-0.126</ele>
  <time>2026-09-02T22:06:38Z</time>
  <course>185.62</course>
  <speed>0.19209372712298545</speed>
  <fix>3d</fix>
</trkpt>
<trkpt lat="33.810313" lon="-118.3938666">
  <ele>-0.12</ele>
  <time>2026-09-02T22:06:38Z</time>
  <course>95.0</course>
  <speed>0.0</speed>
  <fix>3d</fix>
</trkpt>
<trkpt lat="33.8103169" lon="-118.3938704">
  <ele>-0.127</ele>
  <time>2026-09-02T22:06:38Z</time>
  <course>185.62</course>
  <speed>0.19209372712298545</speed>
  <fix>3d</fix>
</trkpt>
<trkpt lat="33.810313" lon="-118.3938666">
  <ele>-0.12</ele>
  <time>2026-09-02T22:06:38Z</time>
  <course>95.0</course>
  <speed>0.0</speed>
  <fix>3d</fix>
</trkpt>
<trkpt lat="33.8103169" lon="-118.3938704">
  <ele>-0.129</ele>
  <time>2026-09-02T22:06:38Z</time>
  <course>185.62</course>
  <speed>0.19209372712298545</speed>
  <fix>3d</fix>
</trkpt>
<trkpt lat="33.810313" lon="-118.3938666">
  <ele>-0.12</ele>
  <time>2026-09-02T22:06:38Z</time>
  <course>95.0</course>
  <speed>0.0</speed>
  <fix>3d</fix>
</trkpt>
<trkpt lat="33.810317" lon="-118.3938705">
  <ele>-0.131</ele>
  <time>2026-09-02T22:06:38Z</time>
  <course>185.62</course>
  <speed>0.19209372712298545</speed>
  <fix>3d</fix>
</trkpt>
<trkpt lat="33.810313" lon="-118.3938666">
  <ele>-0.12</ele>
  <time>2026-09-02T22:06:38Z</time>
  <course>95.0</course>
  <speed>0.0</speed>
  <fix>3d</fix>
</trkpt>
<trkpt lat="33.8103171" lon="-118.3938706">
  <ele>-0.132</ele>
  <time>2026-09-02T22:06:38Z</time>
  <course>185.62</course>
  <speed>0.20615528128088303</speed>
  <fix>3d</fix>
</trkpt>
<trkpt lat="33.810313" lon="-118.3938666">
  <ele>-0.12</ele>
  <time>2026-09-02T22:06:38Z</time>
  <course>95.0</course>
  <speed>0.0</speed>
  <fix>3d</fix>
</trkpt>
<trkpt lat="33.8103173" lon="-118.3938707">
  <ele>-0.132</ele>
  <time>2026-09-02T22:06:38Z</time>
  <course>185.62</course>
  <speed>0.20615528128088303</speed>
  <fix>3d</fix>
</trkpt>
<trkpt lat="33.810313" lon="-118.3938666">
  <ele>-0.12</ele>
  <time>2026-09-02T22:06:38Z</time>
  <course>95.0</course>
  <speed>0.0</speed>
  <fix>3d</fix>
</trkpt>
<trkpt lat="33.8103174" lon="-118.3938709">
  <ele>-0.132</ele>
  <time>2026-09-02T22:06:38Z</time>
  <course>185.62</course>
  <speed>0.20615528128088303</speed>
  <fix>3d</fix>
</trkpt>
<trkpt lat="33.810313" lon="-118.3938666">
  <ele>-0.12</ele>
  <time>2026-09-02T22:06:38Z</time>
  <course>95.0</course>
  <speed>0.0</speed>
  <fix>3d</fix>
</trkpt>
<trkpt lat="33.8103171" lon="-118.3938706">
  <ele>-0.13</ele>
  <time>2026-09-02T22:06:38Z</time>
  <course>185.62</course>
  <speed>0.20615528128088303</speed>
  <fix>3d</fix>
</trkpt>
<trkpt lat="33.810313" lon="-118.3938666">
  <ele>-0.12</ele>
  <time>2026-09-02T22:06:38Z</time>
  <course>95.0</course>
  <speed>0.0</speed>
  <fix>3d</fix>
</trkpt>
<trkpt lat="33.8103168" lon="-118.3938703">
  <ele>-0.127</ele>
  <time>2026-09-02T22:06:38Z</time>
  <course>185.62</course>
  <speed>0.19209372712298545</speed>
  <fix>3d</fix>
</trkpt>
<trkpt lat="33.810313" lon="-118.3938666">
  <ele>-0.12</ele>
  <time>2026-09-02T22:06:38Z</time>
  <course>95.0</course>
  <speed>0.0</speed>
  <fix>3d</fix>
</trkpt>
<trkpt lat="33.8103167" lon="-118.3938702">
  <ele>-0.125</ele>
  <time>2026-09-02T22:06:38Z</time>
  <course>185.62</course>
  <speed>0.19209372712298545</speed>
  <fix>3d</fix>
</trkpt>
<trkpt lat="33.810313" lon="-118.3938666">
  <ele>-0.12</ele>
  <time>2026-09-02T22:06:38Z</time>
  <course>95.0</course>
  <speed>0.0</speed>
  <fix>3d</fix>
</trkpt>
<trkpt lat="33.8103166" lon="-118.3938701">
  <ele>-0.124</ele>
  <time>2026-09-02T22:06:39Z</time>
  <course>185.62</course>
  <speed>0.19209372712298545</speed>
  <fix>3d</fix>
</trkpt>
<trkpt lat="33.810313" lon="-118.3938666">
  <ele>-0.12</ele>
  <time>2026-09-02T22:06:39Z</time>
  <course>95.0</course>
  <speed>0.0</speed>
  <fix>3d</fix>
</trkpt>
<trkpt lat="33.8103166" lon="-118.3938701">
  <ele>-0.124</ele>
  <time>2026-09-02T22:06:39Z</time>
  <course>185.62</course>
  <speed>0.19209372712298545</speed>
  <fix>3d</fix>
</trkpt>
<trkpt lat="33.810313" lon="-118.3938666">
  <ele>-0.12</ele>
  <time>2026-09-02T22:06:39Z</time>
  <course>95.0</course>
  <speed>0.0</speed>
  <fix>3d</fix>
</trkpt>
<trkpt lat="33.8103167" lon="-118.3938702">
  <ele>-0.125</ele>
  <time>2026-09-02T22:06:39Z</time>
  <course>185.62</course>
  <speed>0.19209372712298545</speed>
  <fix>3d</fix>
</trkpt>
<trkpt lat="33.810313" lon="-118.3938666">
  <ele>-0.12</ele>
  <time>2026-09-02T22:06:39Z</time>
  <course>95.0</course>
  <speed>0.0</speed>
  <fix>3d</fix>
</trkpt>
<trkpt lat="33.8103168" lon="-118.3938703">
  <ele>-0.127</ele>
  <time>2026-09-02T22:06:39Z</time>
  <course>185.61</course>
  <speed>0.19209372712298545</speed>
  <fix>3d</fix>
</trkpt>
<trkpt lat="33.810313" lon="-118.3938666">
  <ele>-0.12</ele>
  <time>2026-09-02T22:06:39Z</time>
  <course>95.0</course>
  <speed>0.0</speed>
  <fix>3d</fix>
</trkpt>
<trkpt lat="33.8103169" lon="-118.3938704">
  <ele>-0.13</ele>
  <time>2026-09-02T22:06:39Z</time>
  <course>185.61</course>
  <speed>0.19209372712298545</speed>
  <fix>3d</fix>
</trkpt>
<trkpt lat="33.810313" lon="-118.3938666">
  <ele>-0.12</ele>
  <time>2026-09-02T22:06:39Z</time>
  <course>95.0</course>
  <speed>0.0</speed>
  <fix>3d</fix>
</trkpt>
<trkpt lat="33.810317" lon="-118.3938705">
  <ele>-0.131</ele>
  <time>2026-09-02T22:06:39Z</time>
  <course>185.61</course>
  <speed>0.20615528128088303</speed>
  <fix>3d</fix>
</trkpt>
<trkpt lat="33.810313" lon="-118.3938666">
  <ele>-0.12</ele>
  <time>2026-09-02T22:06:39Z</time>
  <course>95.0</course>
  <speed>0.0</speed>
  <fix>3d</fix>
</trkpt>
<trkpt lat="33.8103171" lon="-118.3938706">
  <ele>-0.132</ele>
  <time>2026-09-02T22:06:39Z</time>
  <course>185.61</course>
  <speed>0.20615528128088303</speed>
  <fix>3d</fix>
</trkpt>
<trkpt lat="33.810313" lon="-118.3938666">
  <ele>-0.12</ele>
  <time>2026-09-02T22:06:39Z</time>
  <course>95.0</course>
  <speed>0.0</speed>
  <fix>3d</fix>
</trkpt>
<trkpt lat="33.8103169" lon="-118.3938704">
  <ele>-0.131</ele>
  <time>2026-09-02T22:06:39Z</time>
  <course>185.61</course>
  <speed>0.19849433241279207</speed>
  <fix>3d</fix>
</trkpt>
<trkpt lat="33.810313" lon="-118.3938666">
  <ele>-0.12</ele>
  <time>2026-09-02T22:06:39Z</time>
  <course>95.0</course>
  <speed>0.0</speed>
  <fix>3d</fix>
</trkpt>
<trkpt lat="33.8103166" lon="-118.3938701">
  <ele>-0.129</ele>
  <time>2026-09-02T22:06:39Z</time>
  <course>185.61</course>
  <speed>0.19209372712298545</speed>
  <fix>3d</fix>
</trkpt>
<trkpt lat="33.810313" lon="-118.3938666">
  <ele>-0.12</ele>
  <time>2026-09-02T22:06:39Z</time>
  <course>95.0</course>
  <speed>0.0</speed>
  <fix>3d</fix>
</trkpt>
<trkpt lat="33.8103164" lon="-118.3938699">
  <ele>-0.127</ele>
  <time>2026-09-02T22:06:39Z</time>
  <course>185.61</course>
  <speed>0.18439088914585774</speed>
  <fix>3d</fix>
</trkpt>
<trkpt lat="33.810313" lon="-118.3938666">
  <ele>-0.12</ele>
  <time>2026-09-02T22:06:39Z</time>
  <course>95.0</course>
  <speed>0.0</speed>
  <fix>3d</fix>
</trkpt>
<trkpt lat="33.8103163" lon="-118.3938699">
  <ele>-0.126</ele>
  <time>2026-09-02T22:06:39Z</time>
  <course>185.61</course>
  <speed>0.18439088914585774</speed>
  <fix>3d</fix>
</trkpt>
<trkpt lat="33.810313" lon="-118.3938666">
  <ele>-0.12</ele>
  <time>2026-09-02T22:06:39Z</time>
  <course>95.0</course>
  <speed>0.0</speed>
  <fix>3d</fix>
</trkpt>
<trkpt lat="33.8103163" lon="-118.3938699">
  <ele>-0.124</ele>
  <time>2026-09-02T22:06:39Z</time>
  <course>185.61</course>
  <speed>0.18439088914585774</speed>
  <fix>3d</fix>
</trkpt>
<trkpt lat="33.810313" lon="-118.3938666">
  <ele>-0.12</ele>
  <time>2026-09-02T22:06:39Z</time>
  <course>95.0</course>
  <speed>0.0</speed>
  <fix>3d</fix>
</trkpt>
<trkpt lat="33.8103164" lon="-118.3938699">
  <ele>-0.123</ele>
  <time>2026-09-02T22:06:39Z</time>
  <course>185.61</course>
  <speed>0.18439088914585774</speed>
  <fix>3d</fix>
</trkpt>
<trkpt lat="33.810313" lon="-118.3938665">
  <ele>-0.12</ele>
  <time>2026-09-02T22:06:39Z</time>
  <course>95.0</course>
  <speed>0.0</speed>
  <fix>3d</fix>
</trkpt>
<trkpt lat="33.8103165" lon="-118.39387">
  <ele>-0.124</ele>
  <time>2026-09-02T22:06:39Z</time>
  <course>185.61</course>
  <speed>0.19209372712298545</speed>
  <fix>3d</fix>
</trkpt>
<trkpt lat="33.810313" lon="-118.3938665">
  <ele>-0.12</ele>
  <time>2026-09-02T22:06:39Z</time>
  <course>95.0</course>
  <speed>0.0</speed>
  <fix>3d</fix>
</trkpt>
<trkpt lat="33.8103166" lon="-118.3938701">
  <ele>-0.126</ele>
  <time>2026-09-02T22:06:39Z</time>
  <course>185.61</course>
  <speed>0.19209372712298545</speed>
  <fix>3d</fix>
</trkpt>
<trkpt lat="33.810313" lon="-118.3938665">
  <ele>-0.12</ele>
  <time>2026-09-02T22:06:39Z</time>
  <course>95.0</course>
  <speed>0.0</speed>
  <fix>3d</fix>
</trkpt>
<trkpt lat="33.8103167" lon="-118.3938702">
  <ele>-0.128</ele>
  <time>2026-09-02T22:06:39Z</time>
  <course>185.61</course>
  <speed>0.19209372712298545</speed>
  <fix>3d</fix>
</trkpt>
<trkpt lat="33.810313" lon="-118.3938665">
  <ele>-0.12</ele>
  <time>2026-09-02T22:06:39Z</time>
  <course>95.0</course>
  <speed>0.0</speed>
  <fix>3d</fix>
</trkpt>
<trkpt lat="33.8103168" lon="-118.3938703">
  <ele>-0.128</ele>
  <time>2026-09-02T22:06:39Z</time>
  <course>185.61</course>
  <speed>0.20615528128088303</speed>
  <fix>3d</fix>
</trkpt>
<trkpt lat="33.810313" lon="-118.3938665">
  <ele>-0.12</ele>
  <time>2026-09-02T22:06:39Z</time>
  <course>95.0</course>
  <speed>0.0</speed>
  <fix>3d</fix>
</trkpt>
<trkpt lat="33.8103166" lon="-118.3938701">
  <ele>-0.128</ele>
  <time>2026-09-02T22:06:39Z</time>
  <course>185.61</course>
  <speed>0.19209372712298545</speed>
  <fix>3d</fix>
</trkpt>
<trkpt lat="33.810313" lon="-118.3938665">
  <ele>-0.12</ele>
  <time>2026-09-02T22:06:39Z</time>
  <course>95.0</course>
  <speed>0.0</speed>
  <fix>3d</fix>
</trkpt>
<trkpt lat="33.8103163" lon="-118.3938698">
  <ele>-0.127</ele>
  <time>2026-09-02T22:06:39Z</time>
  <course>185.61</course>
  <speed>0.18439088914585774</speed>
  <fix>3d</fix>
</trkpt>
<trkpt lat="33.810313" lon="-118.3938665">
  <ele>-0.12</ele>
  <time>2026-09-02T22:06:39Z</time>
  <course>95.0</course>
  <speed>0.0</speed>
  <fix>3d</fix>
</trkpt>
<trkpt lat="33.8103161" lon="-118.3938696">
  <ele>-0.125</ele>
  <time>2026-09-02T22:06:39Z</time>
  <course>185.61</course>
  <speed>0.17804493814764857</speed>
  <fix>3d</fix>
</trkpt>
<trkpt lat="33.810313" lon="-118.3938665">
  <ele>-0.12</ele>
  <time>2026-09-02T22:06:39Z</time>
  <course>95.0</course>
  <speed>0.0</speed>
  <fix>3d</fix>
</trkpt>
<trkpt lat="33.810316" lon="-118.3938695">
  <ele>-0.123</ele>
  <time>2026-09-02T22:06:39Z</time>
  <course>185.61</course>
  <speed>0.17804493814764857</speed>
  <fix>3d</fix>
</trkpt>
<trkpt lat="33.810313" lon="-118.3938665">
  <ele>-0.12</ele>
  <time>2026-09-02T22:06:39Z</time>
  <course>95.0</course>
  <speed>0.0</speed>
  <fix>3d</fix>
</trkpt>
<trkpt lat="33.810316" lon="-118.3938695">
  <ele>-0.12</ele>
  <time>2026-09-02T22:06:39Z</time>
  <course>185.61</course>
  <speed>0.17804493814764857</speed>
  <fix>3d</fix>
</trkpt>
<trkpt lat="33.810313" lon="-118.3938665">
  <ele>-0.12</ele>
  <time>2026-09-02T22:06:39Z</time>
  <course>95.0</course>
  <speed>0.0</speed>
  <fix>3d</fix>
</trkpt>
<trkpt lat="33.810316" lon="-118.3938695">
  <ele>-0.119</ele>
  <time>2026-09-02T22:06:39Z</time>
  <course>185.61</course>
  <speed>0.18439088914585774</speed>
  <fix>3d</fix>
</trkpt>
<trkpt lat="33.810313" lon="-118.3938665">
  <ele>-0.12</ele>
  <time>2026-09-02T22:06:39Z</time>
  <course>95.0</course>
  <speed>0.0</speed>
  <fix>3d</fix>
</trkpt>
<trkpt lat="33.8103161" lon="-118.3938696">
  <ele>-0.119</ele>
  <time>2026-09-02T22:06:39Z</time>
  <course>185.61</course>
  <speed>0.18439088914585774</speed>
  <fix>3d</fix>
</trkpt>
<trkpt lat="33.810313" lon="-118.3938665">
  <ele>-0.12</ele>
  <time>2026-09-02T22:06:39Z</time>
  <course>95.0</course>
  <speed>0.0</speed>
  <fix>3d</fix>
</trkpt>
<trkpt lat="33.8103162" lon="-118.3938697">
  <ele>-0.12</ele>
  <time>2026-09-02T22:06:39Z</time>
  <course>185.61</course>
  <speed>0.19209372712298545</speed>
  <fix>3d</fix>
</trkpt>
<trkpt lat="33.810313" lon="-118.3938665">
  <ele>-0.12</ele>
  <time>2026-09-02T22:06:39Z</time>
  <course>95.0</course>
  <speed>0.0</speed>
  <fix>3d</fix>
</trkpt>
<trkpt lat="33.8103163" lon="-118.3938698">
  <ele>-0.122</ele>
  <time>2026-09-02T22:06:39Z</time>
  <course>185.61</course>
  <speed>0.19209372712298545</speed>
  <fix>3d</fix>
</trkpt>
<trkpt lat="33.810313" lon="-118.3938665">
  <ele>-0.12</ele>
  <time>2026-09-02T22:06:39Z</time>
  <course>95.0</course>
  <speed>0.0</speed>
  <fix>3d</fix>
</trkpt>
<trkpt lat="33.8103165" lon="-118.39387">
  <ele>-0.126</ele>
  <time>2026-09-02T22:06:39Z</time>
  <course>185.61</course>
  <speed>0.19209372712298545</speed>
  <fix>3d</fix>
</trkpt>
<trkpt lat="33.810313" lon="-118.3938665">
  <ele>-0.12</ele>
  <time>2026-09-02T22:06:39Z</time>
  <course>95.0</course>
  <speed>0.0</speed>
  <fix>3d</fix>
</trkpt>
<trkpt lat="33.8103166" lon="-118.3938701">
  <ele>-0.129</ele>
  <time>2026-09-02T22:06:39Z</time>
  <course>185.61</course>
  <speed>0.20615528128088303</speed>
  <fix>3d</fix>
</trkpt>
<trkpt lat="33.810313" lon="-118.3938665">
  <ele>-0.12</ele>
  <time>2026-09-02T22:06:39Z</time>
  <course>95.0</course>
  <speed>0.0</speed>
  <fix>3d</fix>
</trkpt>
<trkpt lat="33.8103164" lon="-118.3938699">
  <ele>-0.131</ele>
  <time>2026-09-02T22:06:39Z</time>
  <course>185.61</course>
  <speed>0.19209372712298545</speed>
  <fix>3d</fix>
</trkpt>
<trkpt lat="33.810313" lon="-118.3938665">
  <ele>-0.12</ele>
  <time>2026-09-02T22:06:39Z</time>
  <course>95.0</course>
  <speed>0.0</speed>
  <fix>3d</fix>
</trkpt>
<trkpt lat="33.810316" lon="-118.3938696">
  <ele>-0.131</ele>
  <time>2026-09-02T22:06:39Z</time>
  <course>185.61</course>
  <speed>0.19209372712298545</speed>
  <fix>3d</fix>
</trkpt>
<trkpt lat="33.810313" lon="-118.3938665">
  <ele>-0.12</ele>
  <time>2026-09-02T22:06:39Z</time>
  <course>95.0</course>
  <speed>0.0</speed>
  <fix>3d</fix>
</trkpt>
<trkpt lat="33.8103158" lon="-118.3938694">
  <ele>-0.13</ele>
  <time>2026-09-02T22:06:39Z</time>
  <course>185.61</course>
  <speed>0.18439088914585774</speed>
  <fix>3d</fix>
</trkpt>
<trkpt lat="33.810313" lon="-118.3938665">
  <ele>-0.12</ele>
  <time>2026-09-02T22:06:39Z</time>
  <course>95.0</course>
  <speed>0.0</speed>
  <fix>3d</fix>
</trkpt>
<trkpt lat="33.8103157" lon="-118.3938693">
  <ele>-0.129</ele>
  <time>2026-09-02T22:06:39Z</time>
  <course>185.61</course>
  <speed>0.17804493814764857</speed>
  <fix>3d</fix>
</trkpt>
<trkpt lat="33.810313" lon="-118.3938665">
  <ele>-0.12</ele>
  <time>2026-09-02T22:06:39Z</time>
  <course>95.0</course>
  <speed>0.0</speed>
  <fix>3d</fix>
</trkpt>
<trkpt lat="33.8103157" lon="-118.3938693">
  <ele>-0.128</ele>
  <time>2026-09-02T22:06:39Z</time>
  <course>185.61</course>
  <speed>0.17804493814764857</speed>
  <fix>3d</fix>
</trkpt>
<trkpt lat="33.810313" lon="-118.3938665">
  <ele>-0.12</ele>
  <time>2026-09-02T22:06:39Z</time>
  <course>95.0</course>
  <speed>0.0</speed>
  <fix>3d</fix>
</trkpt>
<trkpt lat="33.8103158" lon="-118.3938693">
  <ele>-0.127</ele>
  <time>2026-09-02T22:06:39Z</time>
  <course>185.61</course>
  <speed>0.18439088914585774</speed>
  <fix>3d</fix>
</trkpt>
<trkpt lat="33.810313" lon="-118.3938665">
  <ele>-0.12</ele>
  <time>2026-09-02T22:06:39Z</time>
  <course>95.0</course>
  <speed>0.0</speed>
  <fix>3d</fix>
</trkpt>
<trkpt lat="33.8103158" lon="-118.3938694">
  <ele>-0.126</ele>
  <time>2026-09-02T22:06:39Z</time>
  <course>185.61</course>
  <speed>0.18439088914585774</speed>
  <fix>3d</fix>
</trkpt>
<trkpt lat="33.810313" lon="-118.3938665">
  <ele>-0.12</ele>
  <time>2026-09-02T22:06:39Z</time>
  <course>95.0</course>
  <speed>0.0</speed>
  <fix>3d</fix>
</trkpt>
<trkpt lat="33.8103159" lon="-118.3938695">
  <ele>-0.127</ele>
  <time>2026-09-02T22:06:39Z</time>
  <course>185.61</course>
  <speed>0.19209372712298545</speed>
  <fix>3d</fix>
</trkpt>
<trkpt lat="33.810313" lon="-118.3938665">
  <ele>-0.12</ele>
  <time>2026-09-02T22:06:39Z</time>
  <course>95.0</course>
  <speed>0.0</speed>
  <fix>3d</fix>
</trkpt>
<trkpt lat="33.8103161" lon="-118.3938696">
  <ele>-0.129</ele>
  <time>2026-09-02T22:06:39Z</time>
  <course>185.61</course>
  <speed>0.19209372712298545</speed>
  <fix>3d</fix>
</trkpt>
<trkpt lat="33.810313" lon="-118.3938665">
  <ele>-0.12</ele>
  <time>2026-09-02T22:06:39Z</time>
  <course>95.0</course>
  <speed>0.0</speed>
  <fix>3d</fix>
</trkpt>
<trkpt lat="33.8103162" lon="-118.3938697">
  <ele>-0.131</ele>
  <time>2026-09-02T22:06:39Z</time>
  <course>185.61</course>
  <speed>0.19209372712298545</speed>
  <fix>3d</fix>
</trkpt>
<trkpt lat="33.810313" lon="-118.3938665">
  <ele>-0.12</ele>
  <time>2026-09-02T22:06:39Z</time>
  <course>95.0</course>
  <speed>0.0</speed>
  <fix>3d</fix>
</trkpt>
<trkpt lat="33.8103159" lon="-118.3938695">
  <ele>-0.133</ele>
  <time>2026-09-02T22:06:39Z</time>
  <course>185.61</course>
  <speed>0.19209372712298545</speed>
  <fix>3d</fix>
</trkpt>
<trkpt lat="33.810313" lon="-118.3938665">
  <ele>-0.12</ele>
  <time>2026-09-02T22:06:39Z</time>
  <course>95.0</course>
  <speed>0.0</speed>
  <fix>3d</fix>
</trkpt>
<trkpt lat="33.8103156" lon="-118.3938691">
  <ele>-0.135</ele>
  <time>2026-09-02T22:06:39Z</time>
  <course>185.61</course>
  <speed>0.18439088914585774</speed>
  <fix>3d</fix>
</trkpt>
<trkpt lat="33.810313" lon="-118.3938665">
  <ele>-0.12</ele>
  <time>2026-09-02T22:06:39Z</time>
  <course>95.0</course>
  <speed>0.0</speed>
  <fix>3d</fix>
</trkpt>
<trkpt lat="33.8103155" lon="-118.3938691">
  <ele>-0.136</ele>
  <time>2026-09-02T22:06:39Z</time>
  <course>185.61</course>
  <speed>0.17804493814764857</speed>
  <fix>3d</fix>
</trkpt>
<trkpt lat="33.810313" lon="-118.3938665">
  <ele>-0.12</ele>
  <time>2026-09-02T22:06:39Z</time>
  <course>95.0</course>
  <speed>0.0</speed>
  <fix>3d</fix>
</trkpt>
<trkpt lat="33.8103154" lon="-118.393869">
  <ele>-0.137</ele>
  <time>2026-09-02T22:06:39Z</time>
  <course>185.61</course>
  <speed>0.17804493814764857</speed>
  <fix>3d</fix>
</trkpt>
<trkpt lat="33.810313" lon="-118.3938665">
  <ele>-0.12</ele>
  <time>2026-09-02T22:06:39Z</time>
  <course>95.0</course>
  <speed>0.0</speed>
  <fix>3d</fix>
</trkpt>
<trkpt lat="33.8103154" lon="-118.3938689">
  <ele>-0.137</ele>
  <time>2026-09-02T22:06:39Z</time>
  <course>185.6</course>
  <speed>0.17804493814764857</speed>
  <fix>3d</fix>
</trkpt>
<trkpt lat="33.810313" lon="-118.3938665">
  <ele>-0.12</ele>
  <time>2026-09-02T22:06:39Z</time>
  <course>95.0</course>
  <speed>0.0</speed>
  <fix>3d</fix>
</trkpt>
<trkpt lat="33.8103154" lon="-118.393869">
  <ele>-0.136</ele>
  <time>2026-09-02T22:06:39Z</time>
  <course>185.6</course>
  <speed>0.17804493814764857</speed>
  <fix>3d</fix>
</trkpt>
<trkpt lat="33.810313" lon="-118.3938665">
  <ele>-0.12</ele>
  <time>2026-09-02T22:06:39Z</time>
  <course>95.0</course>
  <speed>0.0</speed>
  <fix>3d</fix>
</trkpt>
<trkpt lat="33.8103155" lon="-118.393869">
  <ele>-0.136</ele>
  <time>2026-09-02T22:06:39Z</time>
  <course>185.6</course>
  <speed>0.18439088914585774</speed>
  <fix>3d</fix>
</trkpt>
<trkpt lat="33.810313" lon="-118.3938665">
  <ele>-0.12</ele>
  <time>2026-09-02T22:06:39Z</time>
  <course>95.0</course>
  <speed>0.0</speed>
  <fix>3d</fix>
</trkpt>
<trkpt lat="33.8103156" lon="-118.3938691">
  <ele>-0.137</ele>
  <time>2026-09-02T22:06:39Z</time>
  <course>185.6</course>
  <speed>0.18439088914585774</speed>
  <fix>3d</fix>
</trkpt>
<trkpt lat="33.810313" lon="-118.3938665">
  <ele>-0.12</ele>
  <time>2026-09-02T22:06:39Z</time>
  <course>95.0</course>
  <speed>0.0</speed>
  <fix>3d</fix>
</trkpt>
<trkpt lat="33.8103156" lon="-118.3938692">
  <ele>-0.138</ele>
  <time>2026-09-02T22:06:39Z</time>
  <course>185.6</course>
  <speed>0.19209372712298545</speed>
  <fix>3d</fix>
</trkpt>
<trkpt lat="33.810313" lon="-118.3938665">
  <ele>-0.12</ele>
  <time>2026-09-02T22:06:39Z</time>
  <course>95.0</course>
  <speed>0.0</speed>
  <fix>3d</fix>
</trkpt>
<trkpt lat="33.8103158" lon="-118.3938693">
  <ele>-0.139</ele>
  <time>2026-09-02T22:06:39Z</time>
  <course>185.6</course>
  <speed>0.19209372712298545</speed>
  <fix>3d</fix>
</trkpt>
<trkpt lat="33.810313" lon="-118.3938665">
  <ele>-0.12</ele>
  <time>2026-09-02T22:06:39Z</time>
  <course>95.0</course>
  <speed>0.0</speed>
  <fix>3d</fix>
</trkpt>
<trkpt lat="33.8103156" lon="-118.3938691">
  <ele>-0.139</ele>
  <time>2026-09-02T22:06:39Z</time>
  <course>185.6</course>
  <speed>0.19209372712298545</speed>
  <fix>3d</fix>
</trkpt>
<trkpt lat="33.810313" lon="-118.3938665">
  <ele>-0.12</ele>
  <time>2026-09-02T22:06:39Z</time>
  <course>95.0</course>
  <speed>0.0</speed>
  <fix>3d</fix>
</trkpt>
<trkpt lat="33.8103153" lon="-118.3938688">
  <ele>-0.139</ele>
  <time>2026-09-02T22:06:39Z</time>
  <course>185.6</course>
  <speed>0.17804493814764857</speed>
  <fix>3d</fix>
</trkpt>
<trkpt lat="33.810313" lon="-118.3938665">
  <ele>-0.12</ele>
  <time>2026-09-02T22:06:39Z</time>
  <course>95.0</course>
  <speed>0.0</speed>
  <fix>3d</fix>
</trkpt>
<trkpt lat="33.8103151" lon="-118.3938686">
  <ele>-0.138</ele>
  <time>2026-09-02T22:06:39Z</time>
  <course>185.6</course>
  <speed>0.17804493814764857</speed>
  <fix>3d</fix>
</trkpt>
<trkpt lat="33.810313" lon="-118.3938665">
  <ele>-0.12</ele>
  <time>2026-09-02T22:06:39Z</time>
  <course>95.0</course>
  <speed>0.0</speed>
  <fix>3d</fix>
</trkpt>
<trkpt lat="33.810315" lon="-118.3938685">
  <ele>-0.137</ele>
  <time>2026-09-02T22:06:39Z</time>
  <course>185.6</course>
  <speed>0.17804493814764857</speed>
  <fix>3d</fix>
</trkpt>
<trkpt lat="33.810313" lon="-118.3938665">
  <ele>-0.12</ele>
  <time>2026-09-02T22:06:39Z</time>
  <course>95.0</course>
  <speed>0.0</speed>
  <fix>3d</fix>
</trkpt>
<trkpt lat="33.810315" lon="-118.3938685">
  <ele>-0.135</ele>
  <time>2026-09-02T22:06:39Z</time>
  <course>185.6</course>
  <speed>0.17804493814764857</speed>
  <fix>3d</fix>
</trkpt>
<trkpt lat="33.810313" lon="-118.3938665">
  <ele>-0.12</ele>
  <time>2026-09-02T22:06:39Z</time>
  <course>95.0</course>
  <speed>0.0</speed>
  <fix>3d</fix>
</trkpt>
<trkpt lat="33.810315" lon="-118.3938686">
  <ele>-0.132</ele>
  <time>2026-09-02T22:06:39Z</time>
  <course>185.6</course>
  <speed>0.17804493814764857</speed>
  <fix>3d</fix>
</trkpt>
<trkpt lat="33.810313" lon="-118.3938665">
  <ele>-0.12</ele>
  <time>2026-09-02T22:06:39Z</time>
  <course>95.0</course>
  <speed>0.0</speed>
  <fix>3d</fix>
</trkpt>
<trkpt lat="33.8103151" lon="-118.3938686">
  <ele>-0.13</ele>
  <time>2026-09-02T22:06:39Z</time>
  <course>185.6</course>
  <speed>0.17804493814764857</speed>
  <fix>3d</fix>
</trkpt>
<trkpt lat="33.810313" lon="-118.3938665">
  <ele>-0.12</ele>
  <time>2026-09-02T22:06:39Z</time>
  <course>95.0</course>
  <speed>0.0</speed>
  <fix>3d</fix>
</trkpt>
<trkpt lat="33.8103152" lon="-118.3938687">
  <ele>-0.128</ele>
  <time>2026-09-02T22:06:39Z</time>
  <course>185.6</course>
  <speed>0.18439088914585774</speed>
  <fix>3d</fix>
</trkpt>
<trkpt lat="33.810313" lon="-118.3938665">
  <ele>-0.12</ele>
  <time>2026-09-02T22:06:39Z</time>
  <course>95.0</course>
  <speed>0.0</speed>
  <fix>3d</fix>
</trkpt>
<trkpt lat="33.8103153" lon="-118.3938688">
  <ele>-0.128</ele>
  <time>2026-09-02T22:06:39Z</time>
  <course>185.6</course>
  <speed>0.19209372712298545</speed>
  <fix>3d</fix>
</trkpt>
<trkpt lat="33.810313" lon="-118.3938665">
  <ele>-0.12</ele>
  <time>2026-09-02T22:06:39Z</time>
  <course>95.0</course>
  <speed>0.0</speed>
  <fix>3d</fix>
</trkpt>
<trkpt lat="33.8103154" lon="-118.393869">
  <ele>-0.128</ele>
  <time>2026-09-02T22:06:39Z</time>
  <course>185.6</course>
  <speed>0.19209372712298545</speed>
  <fix>3d</fix>
</trkpt>
<trkpt lat="33.810313" lon="-118.3938665">
  <ele>-0.12</ele>
  <time>2026-09-02T22:06:39Z</time>
  <course>95.0</course>
  <speed>0.0</speed>
  <fix>3d</fix>
</trkpt>
<trkpt lat="33.8103156" lon="-118.3938691">
  <ele>-0.129</ele>
  <time>2026-09-02T22:06:39Z</time>
  <course>185.6</course>
  <speed>0.19209372712298545</speed>
  <fix>3d</fix>
</trkpt>
<trkpt lat="33.810313" lon="-118.3938665">
  <ele>-0.12</ele>
  <time>2026-09-02T22:06:39Z</time>
  <course>95.0</course>
  <speed>0.0</speed>
  <fix>3d</fix>
</trkpt>
<trkpt lat="33.8103153" lon="-118.3938689">
  <ele>-0.131</ele>
  <time>2026-09-02T22:06:39Z</time>
  <course>185.6</course>
  <speed>0.19209372712298545</speed>
  <fix>3d</fix>
</trkpt>
<trkpt lat="33.810313" lon="-118.3938665">
  <ele>-0.12</ele>
  <time>2026-09-02T22:06:39Z</time>
  <course>95.0</course>
  <speed>0.0</speed>
  <fix>3d</fix>
</trkpt>
<trkpt lat="33.810315" lon="-118.3938685">
  <ele>-0.131</ele>
  <time>2026-09-02T22:06:39Z</time>
  <course>185.6</course>
  <speed>0.18439088914585774</speed>
  <fix>3d</fix>
</trkpt>
<trkpt lat="33.810313" lon="-118.3938665">
  <ele>-0.12</ele>
  <time>2026-09-02T22:06:39Z</time>
  <course>95.0</course>
  <speed>0.0</speed>
  <fix>3d</fix>
</trkpt>
<trkpt lat="33.8103148" lon="-118.3938683">
  <ele>-0.13</ele>
  <time>2026-09-02T22:06:39Z</time>
  <course>185.6</course>
  <speed>0.17804493814764857</speed>
  <fix>3d</fix>
</trkpt>
<trkpt lat="33.810313" lon="-118.3938665">
  <ele>-0.12</ele>
  <time>2026-09-02T22:06:39Z</time>
  <course>95.0</course>
  <speed>0.0</speed>
  <fix>3d</fix>
</trkpt>
<trkpt lat="33.8103147" lon="-118.3938683">
  <ele>-0.13</ele>
  <time>2026-09-02T22:06:39Z</time>
  <course>185.6</course>
  <speed>0.17804493814764857</speed>
  <fix>3d</fix>
</trkpt>
<trkpt lat="33.810313" lon="-118.3938665">
  <ele>-0.12</ele>
  <time>2026-09-02T22:06:39Z</time>
  <course>95.0</course>
  <speed>0.0</speed>
  <fix>3d</fix>
</trkpt>
<trkpt lat="33.8103147" lon="-118.3938682">
  <ele>-0.129</ele>
  <time>2026-09-02T22:06:39Z</time>
  <course>185.6</course>
  <speed>0.17804493814764857</speed>
  <fix>3d</fix>
</trkpt>
<trkpt lat="33.810313" lon="-118.3938665">
  <ele>-0.12</ele>
  <time>2026-09-02T22:06:39Z</time>
  <course>95.0</course>
  <speed>0.0</speed>
  <fix>3d</fix>
</trkpt>
<trkpt lat="33.8103147" lon="-118.3938683">
  <ele>-0.127</ele>
  <time>2026-09-02T22:06:39Z</time>
  <course>185.6</course>
  <speed>0.17804493814764857</speed>
  <fix>3d</fix>
</trkpt>
<trkpt lat="33.810313" lon="-118.3938665">
  <ele>-0.12</ele>
  <time>2026-09-02T22:06:39Z</time>
  <course>95.0</course>
  <speed>0.0</speed>
  <fix>3d</fix>
</trkpt>
<trkpt lat="33.8103148" lon="-118.3938683">
  <ele>-0.126</ele>
  <time>2026-09-02T22:06:39Z</time>
  <course>185.6</course>
  <speed>0.17804493814764857</speed>
  <fix>3d</fix>
</trkpt>
<trkpt lat="33.810313" lon="-118.3938665">
  <ele>-0.12</ele>
  <time>2026-09-02T22:06:39Z</time>
  <course>95.0</course>
  <speed>0.0</speed>
  <fix>3d</fix>
</trkpt>
<trkpt lat="33.8103149" lon="-118.3938684">
  <ele>-0.125</ele>
  <time>2026-09-02T22:06:39Z</time>
  <course>185.6</course>
  <speed>0.18439088914585774</speed>
  <fix>3d</fix>
</trkpt>
<trkpt lat="33.810313" lon="-118.3938665">
  <ele>-0.12</ele>
  <time>2026-09-02T22:06:39Z</time>
  <course>95.0</course>
  <speed>0.0</speed>
  <fix>3d</fix>
</trkpt>
<trkpt lat="33.810315" lon="-118.3938686">
  <ele>-0.125</ele>
  <time>2026-09-02T22:06:39Z</time>
  <course>185.6</course>
  <speed>0.19209372712298545</speed>
  <fix>3d</fix>
</trkpt>
<trkpt lat="33.810313" lon="-118.3938665">
  <ele>-0.12</ele>
  <time>2026-09-02T22:06:39Z</time>
  <course>95.0</course>
  <speed>0.0</speed>
  <fix>3d</fix>
</trkpt>
<trkpt lat="33.8103151" lon="-118.3938687">
  <ele>-0.126</ele>
  <time>2026-09-02T22:06:39Z</time>
  <course>185.6</course>
  <speed>0.19209372712298545</speed>
  <fix>3d</fix>
</trkpt>
<trkpt lat="33.810313" lon="-118.3938665">
  <ele>-0.12</ele>
  <time>2026-09-02T22:06:39Z</time>
  <course>95.0</course>
  <speed>0.0</speed>
  <fix>3d</fix>
</trkpt>
<trkpt lat="33.8103153" lon="-118.3938688">
  <ele>-0.128</ele>
  <time>2026-09-02T22:06:39Z</time>
  <course>185.6</course>
  <speed>0.19849433241279207</speed>
  <fix>3d</fix>
</trkpt>
<trkpt lat="33.810313" lon="-118.3938665">
  <ele>-0.12</ele>
  <time>2026-09-02T22:06:39Z</time>
  <course>95.0</course>
  <speed>0.0</speed>
  <fix>3d</fix>
</trkpt>
<trkpt lat="33.810315" lon="-118.3938686">
  <ele>-0.129</ele>
  <time>2026-09-02T22:06:39Z</time>
  <course>185.6</course>
  <speed>0.19209372712298545</speed>
  <fix>3d</fix>
</trkpt>
<trkpt lat="33.810313" lon="-118.3938665">
  <ele>-0.12</ele>
  <time>2026-09-02T22:06:39Z</time>
  <course>95.0</course>
  <speed>0.0</speed>
  <fix>3d</fix>
</trkpt>
<trkpt lat="33.8103147" lon="-118.3938682">
  <ele>-0.129</ele>
  <time>2026-09-02T22:06:39Z</time>
  <course>185.6</course>
  <speed>0.18439088914585774</speed>
  <fix>3d</fix>
</trkpt>
<trkpt lat="33.810313" lon="-118.3938665">
  <ele>-0.12</ele>
  <time>2026-09-02T22:06:39Z</time>
  <course>95.0</course>
  <speed>0.0</speed>
  <fix>3d</fix>
</trkpt>
<trkpt lat="33.8103145" lon="-118.393868">
  <ele>-0.128</ele>
  <time>2026-09-02T22:06:39Z</time>
  <course>185.6</course>
  <speed>0.17804493814764857</speed>
  <fix>3d</fix>
</trkpt>
<trkpt lat="33.810313" lon="-118.3938665">
  <ele>-0.12</ele>
  <time>2026-09-02T22:06:39Z</time>
  <course>95.0</course>
  <speed>0.0</speed>
  <fix>3d</fix>
</trkpt>
<trkpt lat="33.8103144" lon="-118.3938679">
  <ele>-0.126</ele>
  <time>2026-09-02T22:06:39Z</time>
  <course>185.6</course>
  <speed>0.17804493814764857</speed>
  <fix>3d</fix>
</trkpt>
<trkpt lat="33.810313" lon="-118.3938665">
  <ele>-0.12</ele>
  <time>2026-09-02T22:06:39Z</time>
  <course>95.0</course>
  <speed>0.0</speed>
  <fix>3d</fix>
</trkpt>
<trkpt lat="33.8103144" lon="-118.3938679">
  <ele>-0.124</ele>
  <time>2026-09-02T22:06:39Z</time>
  <course>185.6</course>
  <speed>0.17804493814764857</speed>
  <fix>3d</fix>
</trkpt>
<trkpt lat="33.810313" lon="-118.3938665">
  <ele>-0.12</ele>
  <time>2026-09-02T22:06:39Z</time>
  <course>95.0</course>
  <speed>0.0</speed>
  <fix>3d</fix>
</trkpt>
<trkpt lat="33.8103144" lon="-118.393868">
  <ele>-0.123</ele>
  <time>2026-09-02T22:06:39Z</time>
  <course>185.6</course>
  <speed>0.17804493814764857</speed>
  <fix>3d</fix>
</trkpt>
<trkpt lat="33.810313" lon="-118.3938665">
  <ele>-0.12</ele>
  <time>2026-09-02T22:06:39Z</time>
  <course>95.0</course>
  <speed>0.0</speed>
  <fix>3d</fix>
</trkpt>
<trkpt lat="33.8103145" lon="-118.393868">
  <ele>-0.122</ele>
  <time>2026-09-02T22:06:39Z</time>
  <course>185.6</course>
  <speed>0.18439088914585774</speed>
  <fix>3d</fix>
</trkpt>
<trkpt lat="33.810313" lon="-118.3938665">
  <ele>-0.12</ele>
  <time>2026-09-02T22:06:39Z</time>
  <course>95.0</course>
  <speed>0.0</speed>
  <fix>3d</fix>
</trkpt>
<trkpt lat="33.8103146" lon="-118.3938681">
  <ele>-0.123</ele>
  <time>2026-09-02T22:06:39Z</time>
  <course>185.6</course>
  <speed>0.18439088914585774</speed>
  <fix>3d</fix>
</trkpt>
<trkpt lat="33.810313" lon="-118.3938665">
  <ele>-0.12</ele>
  <time>2026-09-02T22:06:39Z</time>
  <course>95.0</course>
  <speed>0.0</speed>
  <fix>3d</fix>
</trkpt>
<trkpt lat="33.8103147" lon="-118.3938682">
  <ele>-0.124</ele>
  <time>2026-09-02T22:06:39Z</time>
  <course>185.6</course>
  <speed>0.19209372712298545</speed>
  <fix>3d</fix>
</trkpt>
<trkpt lat="33.810313" lon="-118.3938665">
  <ele>-0.12</ele>
  <time>2026-09-02T22:06:39Z</time>
  <course>95.0</course>
  <speed>0.0</speed>
  <fix>3d</fix>
</trkpt>
<trkpt lat="33.8103148" lon="-118.3938684">
  <ele>-0.124</ele>
  <time>2026-09-02T22:06:39Z</time>
  <course>185.6</course>
  <speed>0.19209372712298545</speed>
  <fix>3d</fix>
</trkpt>
<trkpt lat="33.810313" lon="-118.3938665">
  <ele>-0.12</ele>
  <time>2026-09-02T22:06:39Z</time>
  <course>95.0</course>
  <speed>0.0</speed>
  <fix>3d</fix>
</trkpt>
<trkpt lat="33.8103146" lon="-118.3938681">
  <ele>-0.124</ele>
  <time>2026-09-02T22:06:39Z</time>
  <course>185.6</course>
  <speed>0.19209372712298545</speed>
  <fix>3d</fix>
</trkpt>
<trkpt lat="33.810313" lon="-118.3938665">
  <ele>-0.12</ele>
  <time>2026-09-02T22:06:39Z</time>
  <course>95.0</course>
  <speed>0.0</speed>
  <fix>3d</fix>
</trkpt>
<trkpt lat="33.8103142" lon="-118.3938678">
  <ele>-0.123</ele>
  <time>2026-09-02T22:06:39Z</time>
  <course>185.6</course>
  <speed>0.17804493814764857</speed>
  <fix>3d</fix>
</trkpt>
<trkpt lat="33.810313" lon="-118.3938665">
  <ele>-0.12</ele>
  <time>2026-09-02T22:06:39Z</time>
  <course>95.0</course>
  <speed>0.0</speed>
  <fix>3d</fix>
</trkpt>
<trkpt lat="33.810314" lon="-118.3938676">
  <ele>-0.121</ele>
  <time>2026-09-02T22:06:39Z</time>
  <course>185.6</course>
  <speed>0.17804493814764857</speed>
  <fix>3d</fix>
</trkpt>
<trkpt lat="33.810313" lon="-118.3938665">
  <ele>-0.12</ele>
  <time>2026-09-02T22:06:39Z</time>
  <course>95.0</course>
  <speed>0.0</speed>
  <fix>3d</fix>
</trkpt>
<trkpt lat="33.8103139" lon="-118.3938675">
  <ele>-0.119</ele>
  <time>2026-09-02T22:06:39Z</time>
  <course>185.6</course>
  <speed>0.17804493814764857</speed>
  <fix>3d</fix>
</trkpt>
<trkpt lat="33.810313" lon="-118.3938665">
  <ele>-0.12</ele>
  <time>2026-09-02T22:06:39Z</time>
  <course>95.0</course>
  <speed>0.0</speed>
  <fix>3d</fix>
</trkpt>
<trkpt lat="33.8103139" lon="-118.3938675">
  <ele>-0.117</ele>
  <time>2026-09-02T22:06:39Z</time>
  <course>185.6</course>
  <speed>0.17804493814764857</speed>
  <fix>3d</fix>
</trkpt>
<trkpt lat="33.810313" lon="-118.3938665">
  <ele>-0.12</ele>
  <time>2026-09-02T22:06:39Z</time>
  <course>95.0</course>
  <speed>0.0</speed>
  <fix>3d</fix>
</trkpt>
<trkpt lat="33.810314" lon="-118.3938675">
  <ele>-0.116</ele>
  <time>2026-09-02T22:06:39Z</time>
  <course>185.6</course>
  <speed>0.17804493814764857</speed>
  <fix>3d</fix>
</trkpt>
<trkpt lat="33.810313" lon="-118.3938665">
  <ele>-0.12</ele>
  <time>2026-09-02T22:06:39Z</time>
  <course>95.0</course>
  <speed>0.0</speed>
  <fix>3d</fix>
</trkpt>
<trkpt lat="33.810314" lon="-118.3938676">
  <ele>-0.117</ele>
  <time>2026-09-02T22:06:39Z</time>
  <course>185.6</course>
  <speed>0.17804493814764857</speed>
  <fix>3d</fix>
</trkpt>
<trkpt lat="33.810313" lon="-118.3938665">
  <ele>-0.12</ele>
  <time>2026-09-02T22:06:39Z</time>
  <course>95.0</course>
  <speed>0.0</speed>
  <fix>3d</fix>
</trkpt>
<trkpt lat="33.8103141" lon="-118.3938677">
  <ele>-0.118</ele>
  <time>2026-09-02T22:06:39Z</time>
  <course>185.6</course>
  <speed>0.18439088914585774</speed>
  <fix>3d</fix>
</trkpt>
<trkpt lat="33.810313" lon="-118.3938665">
  <ele>-0.12</ele>
  <time>2026-09-02T22:06:39Z</time>
  <course>95.0</course>
  <speed>0.0</speed>
  <fix>3d</fix>
</trkpt>
<trkpt lat="33.8103142" lon="-118.3938678">
  <ele>-0.121</ele>
  <time>2026-09-02T22:06:39Z</time>
  <course>185.6</course>
  <speed>0.19209372712298545</speed>
  <fix>3d</fix>
</trkpt>
<trkpt lat="33.810313" lon="-118.3938665">
  <ele>-0.12</ele>
  <time>2026-09-02T22:06:39Z</time>
  <course>95.0</course>
  <speed>0.0</speed>
  <fix>3d</fix>
</trkpt>
<trkpt lat="33.8103144" lon="-118.3938679">
  <ele>-0.124</ele>
  <time>2026-09-02T22:06:39Z</time>
  <course>185.6</course>
  <speed>0.19209372712298545</speed>
  <fix>3d</fix>
</trkpt>
<trkpt lat="33.810313" lon="-118.3938665">
  <ele>-0.12</ele>
  <time>2026-09-02T22:06:39Z</time>
  <course>95.0</course>
  <speed>0.0</speed>
  <fix>3d</fix>
</trkpt>
<trkpt lat="33.8103145" lon="-118.3938681">
  <ele>-0.125</ele>
  <time>2026-09-02T22:06:39Z</time>
  <course>185.6</course>
  <speed>0.19209372712298545</speed>
  <fix>3d</fix>
</trkpt>
<trkpt lat="33.810313" lon="-118.3938665">
  <ele>-0.12</ele>
  <time>2026-09-02T22:06:39Z</time>
  <course>95.0</course>
  <speed>0.0</speed>
  <fix>3d</fix>
</trkpt>
<trkpt lat="33.8103143" lon="-118.3938678">
  <ele>-0.126</ele>
  <time>2026-09-02T22:06:39Z</time>
  <course>185.6</course>
  <speed>0.19209372712298545</speed>
  <fix>3d</fix>
</trkpt>
<trkpt lat="33.810313" lon="-118.3938665">
  <ele>-0.12</ele>
  <time>2026-09-02T22:06:39Z</time>
  <course>95.0</course>
  <speed>0.0</speed>
  <fix>3d</fix>
</trkpt>
<trkpt lat="33.8103139" lon="-118.3938675">
  <ele>-0.124</ele>
  <time>2026-09-02T22:06:39Z</time>
  <course>185.6</course>
  <speed>0.18439088914585774</speed>
  <fix>3d</fix>
</trkpt>
<trkpt lat="33.810313" lon="-118.3938665">
  <ele>-0.12</ele>
  <time>2026-09-02T22:06:39Z</time>
  <course>95.0</course>
  <speed>0.0</speed>
  <fix>3d</fix>
</trkpt>
<trkpt lat="33.8103138" lon="-118.3938673">
  <ele>-0.122</ele>
  <time>2026-09-02T22:06:39Z</time>
  <course>185.6</course>
  <speed>0.17804493814764857</speed>
  <fix>3d</fix>
</trkpt>
<trkpt lat="33.810313" lon="-118.3938665">
  <ele>-0.12</ele>
  <time>2026-09-02T22:06:39Z</time>
  <course>95.0</course>
  <speed>0.0</speed>
  <fix>3d</fix>
</trkpt>
<trkpt lat="33.8103137" lon="-118.3938672">
  <ele>-0.12</ele>
  <time>2026-09-02T22:06:39Z</time>
  <course>185.59</course>
  <speed>0.17804493814764857</speed>
  <fix>3d</fix>
</trkpt>
<trkpt lat="33.810313" lon="-118.3938665">
  <ele>-0.12</ele>
  <time>2026-09-02T22:06:39Z</time>
  <course>95.0</course>
  <speed>0.0</speed>
  <fix>3d</fix>
</trkpt>
<trkpt lat="33.8103136" lon="-118.3938672">
  <ele>-0.119</ele>
  <time>2026-09-02T22:06:39Z</time>
  <course>185.59</course>
  <speed>0.17804493814764857</speed>
  <fix>3d</fix>
</trkpt>
<trkpt lat="33.810313" lon="-118.3938665">
  <ele>-0.12</ele>
  <time>2026-09-02T22:06:39Z</time>
  <course>95.0</course>
  <speed>0.0</speed>
  <fix>3d</fix>
</trkpt>
<trkpt lat="33.8103137" lon="-118.3938672">
  <ele>-0.119</ele>
  <time>2026-09-02T22:06:39Z</time>
  <course>185.59</course>
  <speed>0.17804493814764857</speed>
  <fix>3d</fix>
</trkpt>
<trkpt lat="33.810313" lon="-118.3938665">
  <ele>-0.12</ele>
  <time>2026-09-02T22:06:39Z</time>
  <course>95.0</course>
  <speed>0.0</speed>
  <fix>3d</fix>
</trkpt>
<trkpt lat="33.8103137" lon="-118.3938673">
  <ele>-0.12</ele>
  <time>2026-09-02T22:06:39Z</time>
  <course>185.59</course>
  <speed>0.17804493814764857</speed>
  <fix>3d</fix>
</trkpt>
<trkpt lat="33.810313" lon="-118.3938665">
  <ele>-0.12</ele>
  <time>2026-09-02T22:06:39Z</time>
  <course>95.0</course>
  <speed>0.0</speed>
  <fix>3d</fix>
</trkpt>
<trkpt lat="33.8103138" lon="-118.3938674">
  <ele>-0.121</ele>
  <time>2026-09-02T22:06:39Z</time>
  <course>185.59</course>
  <speed>0.18439088914585774</speed>
  <fix>3d</fix>
</trkpt>
<trkpt lat="33.810313" lon="-118.3938665">
  <ele>-0.12</ele>
  <time>2026-09-02T22:06:39Z</time>
  <course>95.0</course>
  <speed>0.0</speed>
  <fix>3d</fix>
</trkpt>
<trkpt lat="33.810314" lon="-118.3938675">
  <ele>-0.123</ele>
  <time>2026-09-02T22:06:39Z</time>
  <course>185.59</course>
  <speed>0.19209372712298545</speed>
  <fix>3d</fix>
</trkpt>
<trkpt lat="33.810313" lon="-118.3938665">
  <ele>-0.12</ele>
  <time>2026-09-02T22:06:39Z</time>
  <course>95.0</course>
  <speed>0.0</speed>
  <fix>3d</fix>
</trkpt>
<trkpt lat="33.8103141" lon="-118.3938677">
  <ele>-0.125</ele>
  <time>2026-09-02T22:06:39Z</time>
  <course>185.59</course>
  <speed>0.19209372712298545</speed>
  <fix>3d</fix>
</trkpt>
<trkpt lat="33.810313" lon="-118.3938665">
  <ele>-0.12</ele>
  <time>2026-09-02T22:06:39Z</time>
  <course>95.0</course>
  <speed>0.0</speed>
  <fix>3d</fix>
</trkpt>
<trkpt lat="33.8103139" lon="-118.3938674">
  <ele>-0.126</ele>
  <time>2026-09-02T22:06:39Z</time>
  <course>185.59</course>
  <speed>0.19209372712298545</speed>
  <fix>3d</fix>
</trkpt>
<trkpt lat="33.810313" lon="-118.3938665">
  <ele>-0.12</ele>
  <time>2026-09-02T22:06:39Z</time>
  <course>95.0</course>
  <speed>0.0</speed>
  <fix>3d</fix>
</trkpt>
<trkpt lat="33.8103135" lon="-118.3938671">
  <ele>-0.126</ele>
  <time>2026-09-02T22:06:39Z</time>
  <course>185.59</course>
  <speed>0.17804493814764857</speed>
  <fix>3d</fix>
</trkpt>
<trkpt lat="33.810313" lon="-118.3938665">
  <ele>-0.12</ele>
  <time>2026-09-02T22:06:39Z</time>
  <course>95.0</course>
  <speed>0.0</speed>
  <fix>3d</fix>
</trkpt>
<trkpt lat="33.8103133" lon="-118.3938669">
  <ele>-0.124</ele>
  <time>2026-09-02T22:06:39Z</time>
  <course>185.59</course>
  <speed>0.17804493814764857</speed>
  <fix>3d</fix>
</trkpt>
<trkpt lat="33.810313" lon="-118.3938665">
  <ele>-0.12</ele>
  <time>2026-09-02T22:06:39Z</time>
  <course>95.0</course>
  <speed>0.0</speed>
  <fix>3d</fix>
</trkpt>
<trkpt lat="33.8103133" lon="-118.3938668">
  <ele>-0.123</ele>
  <time>2026-09-02T22:06:39Z</time>
  <course>185.59</course>
  <speed>0.17804493814764857</speed>
  <fix>3d</fix>
</trkpt>
<trkpt lat="33.810313" lon="-118.3938665">
  <ele>-0.12</ele>
  <time>2026-09-02T22:06:39Z</time>
  <course>95.0</course>
  <speed>0.0</speed>
  <fix>3d</fix>
</trkpt>
<trkpt lat="33.8103132" lon="-118.3938668">
  <ele>-0.121</ele>
  <time>2026-09-02T22:06:39Z</time>
  <course>185.59</course>
  <speed>0.17804493814764857</speed>
  <fix>3d</fix>
</trkpt>
<trkpt lat="33.810313" lon="-118.3938665">
  <ele>-0.12</ele>
  <time>2026-09-02T22:06:39Z</time>
  <course>95.0</course>
  <speed>0.0</speed>
  <fix>3d</fix>
</trkpt>
<trkpt lat="33.8103133" lon="-118.3938669">
  <ele>-0.121</ele>
  <time>2026-09-02T22:06:39Z</time>
  <course>185.59</course>
  <speed>0.17804493814764857</speed>
  <fix>3d</fix>
</trkpt>
<trkpt lat="33.810313" lon="-118.3938665">
  <ele>-0.12</ele>
  <time>2026-09-02T22:06:39Z</time>
  <course>95.0</course>
  <speed>0.0</speed>
  <fix>3d</fix>
</trkpt>
<trkpt lat="33.8103133" lon="-118.3938669">
  <ele>-0.122</ele>
  <time>2026-09-02T22:06:39Z</time>
  <course>185.59</course>
  <speed>0.17804493814764857</speed>
  <fix>3d</fix>
</trkpt>
<trkpt lat="33.810313" lon="-118.3938665">
  <ele>-0.12</ele>
  <time>2026-09-02T22:06:39Z</time>
  <course>95.0</course>
  <speed>0.0</speed>
  <fix>3d</fix>
</trkpt>
<trkpt lat="33.8103134" lon="-118.393867">
  <ele>-0.125</ele>
  <time>2026-09-02T22:06:39Z</time>
  <course>185.59</course>
  <speed>0.18439088914585774</speed>
  <fix>3d</fix>
</trkpt>
<trkpt lat="33.810313" lon="-118.3938665">
  <ele>-0.12</ele>
  <time>2026-09-02T22:06:39Z</time>
  <course>95.0</course>
  <speed>0.0</speed>
  <fix>3d</fix>
</trkpt>
<trkpt lat="33.8103136" lon="-118.3938671">
  <ele>-0.127</ele>
  <time>2026-09-02T22:06:39Z</time>
  <course>185.59</course>
  <speed>0.19209372712298545</speed>
  <fix>3d</fix>
</trkpt>
<trkpt lat="33.810313" lon="-118.3938665">
  <ele>-0.12</ele>
  <time>2026-09-02T22:06:39Z</time>
  <course>95.0</course>
  <speed>0.0</speed>
  <fix>3d</fix>
</trkpt>
<trkpt lat="33.8103137" lon="-118.3938673">
  <ele>-0.128</ele>
  <time>2026-09-02T22:06:39Z</time>
  <course>185.59</course>
  <speed>0.19209372712298545</speed>
  <fix>3d</fix>
</trkpt>
<trkpt lat="33.810313" lon="-118.3938665">
  <ele>-0.12</ele>
  <time>2026-09-02T22:06:39Z</time>
  <course>95.0</course>
  <speed>0.0</speed>
  <fix>3d</fix>
</trkpt>
<trkpt lat="33.8103139" lon="-118.3938674">
  <ele>-0.129</ele>
  <time>2026-09-02T22:06:39Z</time>
  <course>185.59</course>
  <speed>0.19209372712298545</speed>
  <fix>3d</fix>
</trkpt>
<trkpt lat="33.810313" lon="-118.3938665">
  <ele>-0.12</ele>
  <time>2026-09-02T22:06:39Z</time>
  <course>95.0</course>
  <speed>0.0</speed>
  <fix>3d</fix>
</trkpt>
<trkpt lat="33.8103135" lon="-118.3938671">
  <ele>-0.13</ele>
  <time>2026-09-02T22:06:39Z</time>
  <course>185.59</course>
  <speed>0.19209372712298545</speed>
  <fix>3d</fix>
</trkpt>
<trkpt lat="33.810313" lon="-118.3938665">
  <ele>-0.12</ele>
  <time>2026-09-02T22:06:39Z</time>
  <course>95.0</course>
  <speed>0.0</speed>
  <fix>3d</fix>
</trkpt>
<trkpt lat="33.8103132" lon="-118.3938668">
  <ele>-0.13</ele>
  <time>2026-09-02T22:06:39Z</time>
  <course>185.59</course>
  <speed>0.17804493814764857</speed>
  <fix>3d</fix>
</trkpt>
<trkpt lat="33.810313" lon="-118.3938665">
  <ele>-0.12</ele>
  <time>2026-09-02T22:06:39Z</time>
  <course>95.0</course>
  <speed>0.0</speed>
  <fix>3d</fix>
</trkpt>
<trkpt lat="33.8103131" lon="-118.3938667">
  <ele>-0.13</ele>
  <time>2026-09-02T22:06:39Z</time>
  <course>185.59</course>
  <speed>0.17804493814764857</speed>
  <fix>3d</fix>
</trkpt>
<trkpt lat="33.810313" lon="-118.3938665">
  <ele>-0.12</ele>
  <time>2026-09-02T22:06:39Z</time>
  <course>95.0</course>
  <speed>0.0</speed>
  <fix>3d</fix>
</trkpt>
<trkpt lat="33.810313" lon="-118.3938666">
  <ele>-0.131</ele>
  <time>2026-09-02T22:06:39Z</time>
  <course>185.59</course>
  <speed>0.17804493814764857</speed>
  <fix>3d</fix>
</trkpt>
<trkpt lat="33.810313" lon="-118.3938665">
  <ele>-0.12</ele>
  <time>2026-09-02T22:06:39Z</time>
  <course>95.0</course>
  <speed>0.0</speed>
  <fix>3d</fix>
</trkpt>
<trkpt lat="33.810313" lon="-118.3938666">
  <ele>-0.13</ele>
  <time>2026-09-02T22:06:39Z</time>
  <course>185.59</course>
  <speed>0.17804493814764857</speed>
  <fix>3d</fix>
</trkpt>
<trkpt lat="33.810313" lon="-118.3938665">
  <ele>-0.12</ele>
  <time>2026-09-02T22:06:39Z</time>
  <course>95.0</course>
  <speed>0.0</speed>
  <fix>3d</fix>
</trkpt>
<trkpt lat="33.810313" lon="-118.3938666">
  <ele>-0.13</ele>
  <time>2026-09-02T22:06:39Z</time>
  <course>185.59</course>
  <speed>0.17804493814764857</speed>
  <fix>3d</fix>
</trkpt>
<trkpt lat="33.810313" lon="-118.3938665">
  <ele>-0.12</ele>
  <time>2026-09-02T22:06:39Z</time>
  <course>95.0</course>
  <speed>0.0</speed>
  <fix>3d</fix>
</trkpt>
<trkpt lat="33.8103131" lon="-118.3938667">
  <ele>-0.13</ele>
  <time>2026-09-02T22:06:39Z</time>
  <course>185.59</course>
  <speed>0.17804493814764857</speed>
  <fix>3d</fix>
</trkpt>
<trkpt lat="33.810313" lon="-118.3938665">
  <ele>-0.12</ele>
  <time>2026-09-02T22:06:39Z</time>
  <course>95.0</course>
  <speed>0.0</speed>
  <fix>3d</fix>
</trkpt>
<trkpt lat="33.8103132" lon="-118.3938668">
  <ele>-0.131</ele>
  <time>2026-09-02T22:06:39Z</time>
  <course>185.59</course>
  <speed>0.18439088914585774</speed>
  <fix>3d</fix>
</trkpt>
<trkpt lat="33.810313" lon="-118.3938665">
  <ele>-0.12</ele>
  <time>2026-09-02T22:06:39Z</time>
  <course>95.0</course>
  <speed>0.0</speed>
  <fix>3d</fix>
</trkpt>
<trkpt lat="33.8103133" lon="-118.3938669">
  <ele>-0.133</ele>
  <time>2026-09-02T22:06:39Z</time>
  <course>185.59</course>
  <speed>0.19209372712298545</speed>
  <fix>3d</fix>
</trkpt>
<trkpt lat="33.810313" lon="-118.3938665">
  <ele>-0.12</ele>
  <time>2026-09-02T22:06:39Z</time>
  <course>95.0</course>
  <speed>0.0</speed>
  <fix>3d</fix>
</trkpt>
<trkpt lat="33.8103135" lon="-118.393867">
  <ele>-0.134</ele>
  <time>2026-09-02T22:06:39Z</time>
  <course>185.59</course>
  <speed>0.19209372712298545</speed>
  <fix>3d</fix>
</trkpt>
<trkpt lat="33.810313" lon="-118.3938665">
  <ele>-0.12</ele>
  <time>2026-09-02T22:06:39Z</time>
  <course>95.0</course>
  <speed>0.0</speed>
  <fix>3d</fix>
</trkpt>
<trkpt lat="33.8103132" lon="-118.3938668">
  <ele>-0.136</ele>
  <time>2026-09-02T22:06:39Z</time>
  <course>185.59</course>
  <speed>0.19209372712298545</speed>
  <fix>3d</fix>
</trkpt>
<trkpt lat="33.810313" lon="-118.3938665">
  <ele>-0.12</ele>
  <time>2026-09-02T22:06:39Z</time>
  <course>95.0</course>
  <speed>0.0</speed>
  <fix>3d</fix>
</trkpt>
<trkpt lat="33.8103129" lon="-118.3938665">
  <ele>-0.136</ele>
  <time>2026-09-02T22:06:39Z</time>
  <course>185.59</course>
  <speed>0.17804493814764857</speed>
  <fix>3d</fix>
</trkpt>
<trkpt lat="33.810313" lon="-118.3938665">
  <ele>-0.12</ele>
  <time>2026-09-02T22:06:39Z</time>
  <course>95.0</course>
  <speed>0.0</speed>
  <fix>3d</fix>
</trkpt>
<trkpt lat="33.8103127" lon="-118.3938663">
  <ele>-0.136</ele>
  <time>2026-09-02T22:06:39Z</time>
  <course>185.59</course>
  <speed>0.17804493814764857</speed>
  <fix>3d</fix>
</trkpt>
<trkpt lat="33.810313" lon="-118.3938665">
  <ele>-0.12</ele>
  <time>2026-09-02T22:06:39Z</time>
  <course>95.0</course>
  <speed>0.0</speed>
  <fix>3d</fix>
</trkpt>
<trkpt lat="33.8103127" lon="-118.3938662">
  <ele>-0.135</ele>
  <time>2026-09-02T22:06:39Z</time>
  <course>185.59</course>
  <speed>0.17804493814764857</speed>
  <fix>3d</fix>
</trkpt>
<trkpt lat="33.810313" lon="-118.3938665">
  <ele>-0.12</ele>
  <time>2026-09-02T22:06:39Z</time>
  <course>95.0</course>
  <speed>0.0</speed>
  <fix>3d</fix>
</trkpt>
<trkpt lat="33.8103126" lon="-118.3938662">
  <ele>-0.134</ele>
  <time>2026-09-02T22:06:39Z</time>
  <course>185.59</course>
  <speed>0.17804493814764857</speed>
  <fix>3d</fix>
</trkpt>
<trkpt lat="33.810313" lon="-118.3938665">
  <ele>-0.12</ele>
  <time>2026-09-02T22:06:39Z</time>
  <course>95.0</course>
  <speed>0.0</speed>
  <fix>3d</fix>
</trkpt>
<trkpt lat="33.8103127" lon="-118.3938663">
  <ele>-0.133</ele>
  <time>2026-09-02T22:06:39Z</time>
  <course>185.59</course>
  <speed>0.17804493814764857</speed>
  <fix>3d</fix>
</trkpt>
<trkpt lat="33.810313" lon="-118.3938665">
  <ele>-0.12</ele>
  <time>2026-09-02T22:06:39Z</time>
  <course>95.0</course>
  <speed>0.0</speed>
  <fix>3d</fix>
</trkpt>
<trkpt lat="33.8103128" lon="-118.3938664">
  <ele>-0.133</ele>
  <time>2026-09-02T22:06:39Z</time>
  <course>185.59</course>
  <speed>0.17804493814764857</speed>
  <fix>3d</fix>
</trkpt>
<trkpt lat="33.810313" lon="-118.3938665">
  <ele>-0.12</ele>
  <time>2026-09-02T22:06:39Z</time>
  <course>95.0</course>
  <speed>0.0</speed>
  <fix>3d</fix>
</trkpt>
<trkpt lat="33.8103129" lon="-118.3938665">
  <ele>-0.133</ele>
  <time>2026-09-02T22:06:39Z</time>
  <course>185.59</course>
  <speed>0.18439088914585774</speed>
  <fix>3d</fix>
</trkpt>
<trkpt lat="33.810313" lon="-118.3938665">
  <ele>-0.12</ele>
  <time>2026-09-02T22:06:39Z</time>
  <course>95.0</course>
  <speed>0.0</speed>
  <fix>3d</fix>
</trkpt>
<trkpt lat="33.810313" lon="-118.3938666">
  <ele>-0.134</ele>
  <time>2026-09-02T22:06:39Z</time>
  <course>185.59</course>
  <speed>0.19209372712298545</speed>
  <fix>3d</fix>
</trkpt>
<trkpt lat="33.810313" lon="-118.3938665">
  <ele>-0.12</ele>
  <time>2026-09-02T22:06:39Z</time>
  <course>95.0</course>
  <speed>0.0</speed>
  <fix>3d</fix>
</trkpt>
<trkpt lat="33.8103131" lon="-118.3938667">
  <ele>-0.135</ele>
  <time>2026-09-02T22:06:39Z</time>
  <course>185.59</course>
  <speed>0.19209372712298545</speed>
  <fix>3d</fix>
</trkpt>
<trkpt lat="33.810313" lon="-118.3938665">
  <ele>-0.12</ele>
  <time>2026-09-02T22:06:39Z</time>
  <course>95.0</course>
  <speed>0.0</speed>
  <fix>3d</fix>
</trkpt>
<trkpt lat="33.8103129" lon="-118.3938664">
  <ele>-0.134</ele>
  <time>2026-09-02T22:06:39Z</time>
  <course>185.59</course>
  <speed>0.18439088914585774</speed>
  <fix>3d</fix>
</trkpt>
<trkpt lat="33.810313" lon="-118.3938665">
  <ele>-0.12</ele>
  <time>2026-09-02T22:06:39Z</time>
  <course>95.0</course>
  <speed>0.0</speed>
  <fix>3d</fix>
</trkpt>
<trkpt lat="33.8103126" lon="-118.3938662">
  <ele>-0.133</ele>
  <time>2026-09-02T22:06:39Z</time>
  <course>185.59</course>
  <speed>0.17804493814764857</speed>
  <fix>3d</fix>
</trkpt>
<trkpt lat="33.810313" lon="-118.3938665">
  <ele>-0.12</ele>
  <time>2026-09-02T22:06:39Z</time>
  <course>95.0</course>
  <speed>0.0</speed>
  <fix>3d</fix>
</trkpt>
<trkpt lat="33.8103124" lon="-118.393866">
  <ele>-0.13</ele>
  <time>2026-09-02T22:06:39Z</time>
  <course>185.59</course>
  <speed>0.17804493814764857</speed>
  <fix>3d</fix>
</trkpt>
<trkpt lat="33.810313" lon="-118.3938665">
  <ele>-0.12</ele>
  <time>2026-09-02T22:06:39Z</time>
  <course>95.0</course>
  <speed>0.0</speed>
  <fix>3d</fix>
</trkpt>
<trkpt lat="33.8103124" lon="-118.393866">
  <ele>-0.128</ele>
  <time>2026-09-02T22:06:39Z</time>
  <course>185.59</course>
  <speed>0.17804493814764857</speed>
  <fix>3d</fix>
</trkpt>
<trkpt lat="33.810313" lon="-118.3938665">
  <ele>-0.12</ele>
  <time>2026-09-02T22:06:39Z</time>
  <course>95.0</course>
  <speed>0.0</speed>
  <fix>3d</fix>
</trkpt>
<trkpt lat="33.8103124" lon="-118.393866">
  <ele>-0.127</ele>
  <time>2026-09-02T22:06:39Z</time>
  <course>185.59</course>
  <speed>0.17804493814764857</speed>
  <fix>3d</fix>
</trkpt>
<trkpt lat="33.810313" lon="-118.3938665">
  <ele>-0.12</ele>
  <time>2026-09-02T22:06:39Z</time>
  <course>95.0</course>
  <speed>0.0</speed>
  <fix>3d</fix>
</trkpt>
<trkpt lat="33.8103124" lon="-118.393866">
  <ele>-0.125</ele>
  <time>2026-09-02T22:06:39Z</time>
  <course>185.59</course>
  <speed>0.17804493814764857</speed>
  <fix>3d</fix>
</trkpt>
<trkpt lat="33.810313" lon="-118.3938665">
  <ele>-0.12</ele>
  <time>2026-09-02T22:06:39Z</time>
  <course>95.0</course>
  <speed>0.0</speed>
  <fix>3d</fix>
</trkpt>
<trkpt lat="33.8103125" lon="-118.3938661">
  <ele>-0.124</ele>
  <time>2026-09-02T22:06:39Z</time>
  <course>185.59</course>
  <speed>0.17804493814764857</speed>
  <fix>3d</fix>
</trkpt>
<trkpt lat="33.810313" lon="-118.3938665">
  <ele>-0.12</ele>
  <time>2026-09-02T22:06:39Z</time>
  <course>95.0</course>
  <speed>0.0</speed>
  <fix>3d</fix>
</trkpt>
<trkpt lat="33.8103126" lon="-118.3938662">
  <ele>-0.122</ele>
  <time>2026-09-02T22:06:39Z</time>
  <course>185.59</course>
  <speed>0.18439088914585774</speed>
  <fix>3d</fix>
</trkpt>
<trkpt lat="33.810313" lon="-118.3938665">
  <ele>-0.12</ele>
  <time>2026-09-02T22:06:39Z</time>
  <course>95.0</course>
  <speed>0.0</speed>
  <fix>3d</fix>
</trkpt>
<trkpt lat="33.8103127" lon="-118.3938663">
  <ele>-0.122</ele>
  <time>2026-09-02T22:06:39Z</time>
  <course>185.59</course>
  <speed>0.19209372712298545</speed>
  <fix>3d</fix>
</trkpt>
<trkpt lat="33.810313" lon="-118.3938665">
  <ele>-0.12</ele>
  <time>2026-09-02T22:06:39Z</time>
  <course>95.0</course>
  <speed>0.0</speed>
  <fix>3d</fix>
</trkpt>
<trkpt lat="33.8103128" lon="-118.3938664">
  <ele>-0.123</ele>
  <time>2026-09-02T22:06:39Z</time>
  <course>185.59</course>
  <speed>0.19209372712298545</speed>
  <fix>3d</fix>
</trkpt>
<trkpt lat="33.810313" lon="-118.3938665">
  <ele>-0.12</ele>
  <time>2026-09-02T22:06:39Z</time>
  <course>95.0</course>
  <speed>0.0</speed>
  <fix>3d</fix>
</trkpt>
<trkpt lat="33.8103126" lon="-118.3938662">
  <ele>-0.125</ele>
  <time>2026-09-02T22:06:39Z</time>
  <course>185.59</course>
  <speed>0.18439088914585774</speed>
  <fix>3d</fix>
</trkpt>
<trkpt lat="33.810313" lon="-118.3938665">
  <ele>-0.12</ele>
  <time>2026-09-02T22:06:39Z</time>
  <course>95.0</course>
  <speed>0.0</speed>
  <fix>3d</fix>
</trkpt>
<trkpt lat="33.8103123" lon="-118.3938659">
  <ele>-0.126</ele>
  <time>2026-09-02T22:06:39Z</time>
  <course>185.59</course>
  <speed>0.17804493814764857</speed>
  <fix>3d</fix>
</trkpt>
<trkpt lat="33.810313" lon="-118.3938665">
  <ele>-0.12</ele>
  <time>2026-09-02T22:06:39Z</time>
  <course>95.0</course>
  <speed>0.0</speed>
  <fix>3d</fix>
</trkpt>
<trkpt lat="33.8103122" lon="-118.3938658">
  <ele>-0.126</ele>
  <time>2026-09-02T22:06:39Z</time>
  <course>185.59</course>
  <speed>0.17804493814764857</speed>
  <fix>3d</fix>
</trkpt>
<trkpt lat="33.810313" lon="-118.3938665">
  <ele>-0.12</ele>
  <time>2026-09-02T22:06:39Z</time>
  <course>95.0</course>
  <speed>0.0</speed>
  <fix>3d</fix>
</trkpt>
<trkpt lat="33.8103121" lon="-118.3938657">
  <ele>-0.127</ele>
  <time>2026-09-02T22:06:39Z</time>
  <course>185.59</course>
  <speed>0.17804493814764857</speed>
  <fix>3d</fix>
</trkpt>
<trkpt lat="33.810313" lon="-118.3938665">
  <ele>-0.12</ele>
  <time>2026-09-02T22:06:39Z</time>
  <course>95.0</course>
  <speed>0.0</speed>
  <fix>3d</fix>
</trkpt>
<trkpt lat="33.8103121" lon="-118.3938657">
  <ele>-0.128</ele>
  <time>2026-09-02T22:06:39Z</time>
  <course>185.59</course>
  <speed>0.17804493814764857</speed>
  <fix>3d</fix>
</trkpt>
<trkpt lat="33.810313" lon="-118.3938665">
  <ele>-0.12</ele>
  <time>2026-09-02T22:06:39Z</time>
  <course>95.0</course>
  <speed>0.0</speed>
  <fix>3d</fix>
</trkpt>
<trkpt lat="33.8103122" lon="-118.3938658">
  <ele>-0.129</ele>
  <time>2026-09-02T22:06:39Z</time>
  <course>185.59</course>
  <speed>0.17804493814764857</speed>
  <fix>3d</fix>
</trkpt>
<trkpt lat="33.810313" lon="-118.3938665">
  <ele>-0.12</ele>
  <time>2026-09-02T22:06:39Z</time>
  <course>95.0</course>
  <speed>0.0</speed>
  <fix>3d</fix>
</trkpt>
<trkpt lat="33.8103122" lon="-118.3938658">
  <ele>-0.13</ele>
  <time>2026-09-02T22:06:39Z</time>
  <course>185.59</course>
  <speed>0.17804493814764857</speed>
  <fix>3d</fix>
</trkpt>
<trkpt lat="33.810313" lon="-118.3938665">
  <ele>-0.12</ele>
  <time>2026-09-02T22:06:39Z</time>
  <course>95.0</course>
  <speed>0.0</speed>
  <fix>3d</fix>
</trkpt>
<trkpt lat="33.8103123" lon="-118.3938659">
  <ele>-0.132</ele>
  <time>2026-09-02T22:06:39Z</time>
  <course>185.59</course>
  <speed>0.18439088914585774</speed>
  <fix>3d</fix>
</trkpt>
<trkpt lat="33.810313" lon="-118.3938665">
  <ele>-0.12</ele>
  <time>2026-09-02T22:06:39Z</time>
  <course>95.0</course>
  <speed>0.0</speed>
  <fix>3d</fix>
</trkpt>
<trkpt lat="33.8103125" lon="-118.3938661">
  <ele>-0.133</ele>
  <time>2026-09-02T22:06:39Z</time>
  <course>185.59</course>
  <speed>0.19209372712298545</speed>
  <fix>3d</fix>
</trkpt>
<trkpt lat="33.810313" lon="-118.3938665">
  <ele>-0.12</ele>
  <time>2026-09-02T22:06:39Z</time>
  <course>95.0</course>
  <speed>0.0</speed>
  <fix>3d</fix>
</trkpt>
<trkpt lat="33.8103126" lon="-118.3938662">
  <ele>-0.133</ele>
  <time>2026-09-02T22:06:39Z</time>
  <course>185.59</course>
  <speed>0.19209372712298545</speed>
  <fix>3d</fix>
</trkpt>
<trkpt lat="33.810313" lon="-118.3938665">
  <ele>-0.12</ele>
  <time>2026-09-02T22:06:39Z</time>
  <course>95.0</course>
  <speed>0.0</speed>
  <fix>3d</fix>
</trkpt>
<trkpt lat="33.8103124" lon="-118.393866">
  <ele>-0.132</ele>
  <time>2026-09-02T22:06:39Z</time>
  <course>185.59</course>
  <speed>0.19209372712298545</speed>
  <fix>3d</fix>
</trkpt>
<trkpt lat="33.810313" lon="-118.3938665">
  <ele>-0.12</ele>
  <time>2026-09-02T22:06:39Z</time>
  <course>95.0</course>
  <speed>0.0</speed>
  <fix>3d</fix>
</trkpt>
<trkpt lat="33.8103121" lon="-118.3938657">
  <ele>-0.131</ele>
  <time>2026-09-02T22:06:39Z</time>
  <course>185.59</course>
  <speed>0.17804493814764857</speed>
  <fix>3d</fix>
</trkpt>
<trkpt lat="33.810313" lon="-118.3938665">
  <ele>-0.12</ele>
  <time>2026-09-02T22:06:39Z</time>
  <course>95.0</course>
  <speed>0.0</speed>
  <fix>3d</fix>
</trkpt>
<trkpt lat="33.810312" lon="-118.3938656">
  <ele>-0.13</ele>
  <time>2026-09-02T22:06:39Z</time>
  <course>185.59</course>
  <speed>0.17804493814764857</speed>
  <fix>3d</fix>
</trkpt>
<trkpt lat="33.810313" lon="-118.3938665">
  <ele>-0.12</ele>
  <time>2026-09-02T22:06:39Z</time>
  <course>95.0</course>
  <speed>0.0</speed>
  <fix>3d</fix>
</trkpt>
<trkpt lat="33.8103119" lon="-118.3938655">
  <ele>-0.129</ele>
  <time>2026-09-02T22:06:39Z</time>
  <course>185.59</course>
  <speed>0.17804493814764857</speed>
  <fix>3d</fix>
</trkpt>
<trkpt lat="33.810313" lon="-118.3938665">
  <ele>-0.12</ele>
  <time>2026-09-02T22:06:39Z</time>
  <course>95.0</course>
  <speed>0.0</speed>
  <fix>3d</fix>
</trkpt>
<trkpt lat="33.8103119" lon="-118.3938655">
  <ele>-0.13</ele>
  <time>2026-09-02T22:06:39Z</time>
  <course>185.59</course>
  <speed>0.17804493814764857</speed>
  <fix>3d</fix>
</trkpt>
<trkpt lat="33.810313" lon="-118.3938665">
  <ele>-0.12</ele>
  <time>2026-09-02T22:06:39Z</time>
  <course>95.0</course>
  <speed>0.0</speed>
  <fix>3d</fix>
</trkpt>
<trkpt lat="33.810312" lon="-118.3938656">
  <ele>-0.132</ele>
  <time>2026-09-02T22:06:39Z</time>
  <course>185.59</course>
  <speed>0.17804493814764857</speed>
  <fix>3d</fix>
</trkpt>
<trkpt lat="33.810313" lon="-118.3938665">
  <ele>-0.12</ele>
  <time>2026-09-02T22:06:39Z</time>
  <course>95.0</course>
  <speed>0.0</speed>
  <fix>3d</fix>
</trkpt>
<trkpt lat="33.810312" lon="-118.3938656">
  <ele>-0.133</ele>
  <time>2026-09-02T22:06:39Z</time>
  <course>185.59</course>
  <speed>0.17804493814764857</speed>
  <fix>3d</fix>
</trkpt>
<trkpt lat="33.810313" lon="-118.3938665">
  <ele>-0.12</ele>
  <time>2026-09-02T22:06:39Z</time>
  <course>95.0</course>
  <speed>0.0</speed>
  <fix>3d</fix>
</trkpt>
<trkpt lat="33.8103121" lon="-118.3938657">
  <ele>-0.136</ele>
  <time>2026-09-02T22:06:39Z</time>
  <course>185.59</course>
  <speed>0.17804493814764857</speed>
  <fix>3d</fix>
</trkpt>
<trkpt lat="33.810313" lon="-118.3938665">
  <ele>-0.12</ele>
  <time>2026-09-02T22:06:39Z</time>
  <course>95.0</course>
  <speed>0.0</speed>
  <fix>3d</fix>
</trkpt>
<trkpt lat="33.810313" lon="-118.3938664">
  <ele>-0.138</ele>
  <time>2026-09-02T22:06:39Z</time>
  <course>185.59</course>
  <speed>0.16401219466856726</speed>
  <fix>3d</fix>
</trkpt>
<trkpt lat="33.810313" lon="-118.3938664">
  <ele>-0.12</ele>
  <time>2026-09-02T22:06:39Z</time>
  <course>95.0</course>
  <speed>0.0</speed>
  <fix>3d</fix>
</trkpt>
<trkpt lat="33.8103131" lon="-118.3938665">
  <ele>-0.138</ele>
  <time>2026-09-02T22:06:39Z</time>
  <course>185.59</course>
  <speed>0.14212670403551894</speed>
  <fix>3d</fix>
</trkpt>
<trkpt lat="33.810313" lon="-118.3938664">
  <ele>-0.12</ele>
  <time>2026-09-02T22:06:39Z</time>
  <course>95.0</course>
  <speed>0.0</speed>
  <fix>3d</fix>
</trkpt>
<trkpt lat="33.8103131" lon="-118.3938665">
  <ele>-0.137</ele>
  <time>2026-09-02T22:06:39Z</time>
  <course>185.59</course>
  <speed>0.11401754250991379</speed>
  <fix>3d</fix>
</trkpt>
<trkpt lat="33.810313" lon="-118.3938664">
  <ele>-0.12</ele>
  <time>2026-09-02T22:06:39Z</time>
  <course>95.0</course>
  <speed>0.0</speed>
  <fix>3d</fix>
</trkpt>
<trkpt lat="33.8103131" lon="-118.3938664">
  <ele>-0.136</ele>
  <time>2026-09-02T22:06:39Z</time>
  <course>185.59</course>
  <speed>0.1</speed>
  <fix>3d</fix>
</trkpt>
<trkpt lat="33.810313" lon="-118.3938664">
  <ele>-0.12</ele>
  <time>2026-09-02T22:06:39Z</time>
  <course>95.0</course>
  <speed>0.0</speed>
  <fix>3d</fix>
</trkpt>
<trkpt lat="33.810313" lon="-118.3938664">
  <ele>-0.135</ele>
  <time>2026-09-02T22:06:39Z</time>
  <course>185.59</course>
  <speed>0.07810249675906654</speed>
  <fix>3d</fix>
</trkpt>
<trkpt lat="33.810313" lon="-118.3938664">
  <ele>-0.12</ele>
  <time>2026-09-02T22:06:39Z</time>
  <course>95.0</course>
  <speed>0.0</speed>
  <fix>3d</fix>
</trkpt>
<trkpt lat="33.810313" lon="-118.3938664">
  <ele>-0.134</ele>
  <time>2026-09-02T22:06:39Z</time>
  <course>185.59</course>
  <speed>0.06403124237432849</speed>
  <fix>3d</fix>
</trkpt>
<trkpt lat="33.810313" lon="-118.3938664">
  <ele>-0.12</ele>
  <time>2026-09-02T22:06:39Z</time>
  <course>95.0</course>
  <speed>0.0</speed>
  <fix>3d</fix>
</trkpt>
<trkpt lat="33.810313" lon="-118.3938664">
  <ele>-0.133</ele>
  <time>2026-09-02T22:06:39Z</time>
  <course>185.59</course>
  <speed>0.05</speed>
  <fix>3d</fix>
</trkpt>
<trkpt lat="33.810313" lon="-118.3938664">
  <ele>-0.12</ele>
  <time>2026-09-02T22:06:39Z</time>
  <course>95.0</course>
  <speed>0.0</speed>
  <fix>3d</fix>
</trkpt>
<trkpt lat="33.810313" lon="-118.3938664">
  <ele>-0.133</ele>
  <time>2026-09-02T22:06:39Z</time>
  <course>185.59</course>
  <speed>0.05</speed>
  <fix>3d</fix>
</trkpt>
<trkpt lat="33.810313" lon="-118.3938664">
  <ele>-0.12</ele>
  <time>2026-09-02T22:06:39Z</time>
  <course>95.0</course>
  <speed>0.0</speed>
  <fix>3d</fix>
</trkpt>
<trkpt lat="33.810313" lon="-118.3938664">
  <ele>-0.134</ele>
  <time>2026-09-02T22:06:39Z</time>
  <course>185.59</course>
  <speed>0.03605551275463989</speed>
  <fix>3d</fix>
</trkpt>
<trkpt lat="33.810313" lon="-118.3938664">
  <ele>-0.12</ele>
  <time>2026-09-02T22:06:39Z</time>
  <course>95.0</course>
  <speed>0.0</speed>
  <fix>3d</fix>
</trkpt>
<trkpt lat="33.810313" lon="-118.3938664">
  <ele>-0.133</ele>
  <time>2026-09-02T22:06:39Z</time>
  <course>185.59</course>
  <speed>0.03605551275463989</speed>
  <fix>3d</fix>
</trkpt>
<trkpt lat="33.810313" lon="-118.3938664">
  <ele>-0.12</ele>
  <time>2026-09-02T22:06:39Z</time>
  <course>95.0</course>
  <speed>0.0</speed>
  <fix>3d</fix>
</trkpt>
<trkpt lat="33.810313" lon="-118.3938664">
  <ele>-0.133</ele>
  <time>2026-09-02T22:06:39Z</time>
  <course>185.59</course>
  <speed>0.0282842712474619</speed>
  <fix>3d</fix>
</trkpt>
<trkpt lat="33.810313" lon="-118.3938664">
  <ele>-0.12</ele>
  <time>2026-09-02T22:06:39Z</time>
  <course>95.0</course>
  <speed>0.0</speed>
  <fix>3d</fix>
</trkpt>
<trkpt lat="33.810313" lon="-118.3938664">
  <ele>-0.132</ele>
  <time>2026-09-02T22:06:39Z</time>
  <course>185.59</course>
  <speed>0.0282842712474619</speed>
  <fix>3d</fix>
</trkpt>
<trkpt lat="33.810313" lon="-118.3938664">
  <ele>-0.12</ele>
  <time>2026-09-02T22:06:39Z</time>
  <course>95.0</course>
  <speed>0.0</speed>
  <fix>3d</fix>
</trkpt>
<trkpt lat="33.810313" lon="-118.3938664">
  <ele>-0.131</ele>
  <time>2026-09-02T22:06:39Z</time>
  <course>185.59</course>
  <speed>0.0282842712474619</speed>
  <fix>3d</fix>
</trkpt>
<trkpt lat="33.810313" lon="-118.3938664">
  <ele>-0.12</ele>
  <time>2026-09-02T22:06:39Z</time>
  <course>95.0</course>
  <speed>0.0</speed>
  <fix>3d</fix>
</trkpt>
<trkpt lat="33.810313" lon="-118.3938664">
  <ele>-0.13</ele>
  <time>2026-09-02T22:06:39Z</time>
  <course>185.59</course>
  <speed>0.022360679774997897</speed>
  <fix>3d</fix>
</trkpt>
<trkpt lat="33.810313" lon="-118.3938664">
  <ele>-0.12</ele>
  <time>2026-09-02T22:06:39Z</time>
  <course>95.0</course>
  <speed>0.0</speed>
  <fix>3d</fix>
</trkpt>
<trkpt lat="33.810313" lon="-118.3938664">
  <ele>-0.128</ele>
  <time>2026-09-02T22:06:39Z</time>
  <course>185.59</course>
  <speed>0.022360679774997897</speed>
  <fix>3d</fix>
</trkpt>
<trkpt lat="33.810313" lon="-118.3938664">
  <ele>-0.12</ele>
  <time>2026-09-02T22:06:39Z</time>
  <course>95.0</course>
  <speed>0.0</speed>
  <fix>3d</fix>
</trkpt>
<trkpt lat="33.810313" lon="-118.3938664">
  <ele>-0.127</ele>
  <time>2026-09-02T22:06:39Z</time>
  <course>185.59</course>
  <speed>0.022360679774997897</speed>
  <fix>3d</fix>
</trkpt>
<trkpt lat="33.810313" lon="-118.3938664">
  <ele>-0.12</ele>
  <time>2026-09-02T22:06:39Z</time>
  <course>95.0</course>
  <speed>0.0</speed>
  <fix>3d</fix>
</trkpt>
<trkpt lat="33.810313" lon="-118.3938664">
  <ele>-0.126</ele>
  <time>2026-09-02T22:06:39Z</time>
  <course>185.59</course>
  <speed>0.022360679774997897</speed>
  <fix>3d</fix>
</trkpt>
<trkpt lat="33.810313" lon="-118.3938664">
  <ele>-0.12</ele>
  <time>2026-09-02T22:06:39Z</time>
  <course>95.0</course>
  <speed>0.0</speed>
  <fix>3d</fix>
</trkpt>
<trkpt lat="33.810313" lon="-118.3938664">
  <ele>-0.126</ele>
  <time>2026-09-02T22:06:39Z</time>
  <course>185.59</course>
  <speed>0.022360679774997897</speed>
  <fix>3d</fix>
</trkpt>
<trkpt lat="33.810313" lon="-118.3938664">
  <ele>-0.12</ele>
  <time>2026-09-02T22:06:39Z</time>
  <course>95.0</course>
  <speed>0.0</speed>
  <fix>3d</fix>
</trkpt>
<trkpt lat="33.810313" lon="-118.3938664">
  <ele>-0.127</ele>
  <time>2026-09-02T22:06:39Z</time>
  <course>185.59</course>
  <speed>0.022360679774997897</speed>
  <fix>3d</fix>
</trkpt>
<trkpt lat="33.810313" lon="-118.3938664">
  <ele>-0.12</ele>
  <time>2026-09-02T22:06:39Z</time>
  <course>95.0</course>
  <speed>0.0</speed>
  <fix>3d</fix>
</trkpt>
<trkpt lat="33.810313" lon="-118.3938664">
  <ele>-0.129</ele>
  <time>2026-09-02T22:06:39Z</time>
  <course>185.59</course>
  <speed>0.022360679774997897</speed>
  <fix>3d</fix>
</trkpt>
<trkpt lat="33.810313" lon="-118.3938664">
  <ele>-0.12</ele>
  <time>2026-09-02T22:06:39Z</time>
  <course>95.0</course>
  <speed>0.0</speed>
  <fix>3d</fix>
</trkpt>
<trkpt lat="33.810313" lon="-118.3938664">
  <ele>-0.13</ele>
  <time>2026-09-02T22:06:39Z</time>
  <course>185.59</course>
  <speed>0.022360679774997897</speed>
  <fix>3d</fix>
</trkpt>
<trkpt lat="33.810313" lon="-118.3938664">
  <ele>-0.12</ele>
  <time>2026-09-02T22:06:39Z</time>
  <course>95.0</course>
  <speed>0.0</speed>
  <fix>3d</fix>
</trkpt>
<trkpt lat="33.810313" lon="-118.3938664">
  <ele>-0.13</ele>
  <time>2026-09-02T22:06:39Z</time>
  <course>185.59</course>
  <speed>0.022360679774997897</speed>
  <fix>3d</fix>
</trkpt>
<trkpt lat="33.810313" lon="-118.3938664">
  <ele>-0.12</ele>
  <time>2026-09-02T22:06:39Z</time>
  <course>95.0</course>
  <speed>0.0</speed>
  <fix>3d</fix>
</trkpt>
<trkpt lat="33.810313" lon="-118.3938664">
  <ele>-0.129</ele>
  <time>2026-09-02T22:06:39Z</time>
  <course>185.59</course>
  <speed>0.022360679774997897</speed>
  <fix>3d</fix>
</trkpt>
<trkpt lat="33.810313" lon="-118.3938664">
  <ele>-0.12</ele>
  <time>2026-09-02T22:06:39Z</time>
  <course>95.0</course>
  <speed>0.0</speed>
  <fix>3d</fix>
</trkpt>
<trkpt lat="33.8103131" lon="-118.3938665">
  <ele>-0.127</ele>
  <time>2026-09-02T22:06:39Z</time>
  <course>185.59</course>
  <speed>0.0282842712474619</speed>
  <fix>3d</fix>
</trkpt>
<trkpt lat="33.810313" lon="-118.3938664">
  <ele>-0.12</ele>
  <time>2026-09-02T22:06:39Z</time>
  <course>95.0</course>
  <speed>0.0</speed>
  <fix>3d</fix>
</trkpt>
<trkpt lat="33.8103131" lon="-118.3938665">
  <ele>-0.125</ele>
  <time>2026-09-02T22:06:39Z</time>
  <course>185.59</course>
  <speed>0.0282842712474619</speed>
  <fix>3d</fix>
</trkpt>
<trkpt lat="33.810313" lon="-118.3938664">
  <ele>-0.12</ele>
  <time>2026-09-02T22:06:39Z</time>
  <course>95.0</course>
  <speed>0.0</speed>
  <fix>3d</fix>
</trkpt>
<trkpt lat="33.8103131" lon="-118.3938665">
  <ele>-0.122</ele>
  <time>2026-09-02T22:06:39Z</time>
  <course>185.59</course>
  <speed>0.0282842712474619</speed>
  <fix>3d</fix>
</trkpt>
<trkpt lat="33.810313" lon="-118.3938664">
  <ele>-0.12</ele>
  <time>2026-09-02T22:06:39Z</time>
  <course>95.0</course>
  <speed>0.0</speed>
  <fix>3d</fix>
</trkpt>
<trkpt lat="33.8103131" lon="-118.3938665">
  <ele>-0.12</ele>
  <time>2026-09-02T22:06:39Z</time>
  <course>185.59</course>
  <speed>0.03605551275463989</speed>
  <fix>3d</fix>
</trkpt>
<trkpt lat="33.810313" lon="-118.3938664">
  <ele>-0.12</ele>
  <time>2026-09-02T22:06:39Z</time>
  <course>95.0</course>
  <speed>0.0</speed>
  <fix>3d</fix>
</trkpt>
<trkpt lat="33.8103131" lon="-118.3938665">
  <ele>-0.121</ele>
  <time>2026-09-02T22:06:39Z</time>
  <course>185.6</course>
  <speed>0.03605551275463989</speed>
  <fix>3d</fix>
</trkpt>
<trkpt lat="33.810313" lon="-118.3938664">
  <ele>-0.12</ele>
  <time>2026-09-02T22:06:39Z</time>
  <course>95.0</course>
  <speed>0.0</speed>
  <fix>3d</fix>
</trkpt>
<trkpt lat="33.8103132" lon="-118.3938666">
  <ele>-0.122</ele>
  <time>2026-09-02T22:06:39Z</time>
  <course>185.6</course>
  <speed>0.04242640687119285</speed>
  <fix>3d</fix>
</trkpt>
<trkpt lat="33.810313" lon="-118.3938664">
  <ele>-0.12</ele>
  <time>2026-09-02T22:06:39Z</time>
  <course>95.0</course>
  <speed>0.0</speed>
  <fix>3d</fix>
</trkpt>
<trkpt lat="33.8103132" lon="-118.3938666">
  <ele>-0.124</ele>
  <time>2026-09-02T22:06:39Z</time>
  <course>185.6</course>
  <speed>0.05</speed>
  <fix>3d</fix>
</trkpt>
<trkpt lat="33.810313" lon="-118.3938664">
  <ele>-0.12</ele>
  <time>2026-09-02T22:06:39Z</time>
  <course>95.0</course>
  <speed>0.0</speed>
  <fix>3d</fix>
</trkpt>
<trkpt lat="33.8103133" lon="-118.3938667">
  <ele>-0.125</ele>
  <time>2026-09-02T22:06:39Z</time>
  <course>185.6</course>
  <speed>0.05</speed>
  <fix>3d</fix>
</trkpt>
<trkpt lat="33.810313" lon="-118.3938664">
  <ele>-0.12</ele>
  <time>2026-09-02T22:06:39Z</time>
  <course>95.0</course>
  <speed>0.0</speed>
  <fix>3d</fix>
</trkpt>
<trkpt lat="33.8103133" lon="-118.3938667">
  <ele>-0.127</ele>
  <time>2026-09-02T22:06:39Z</time>
  <course>185.6</course>
  <speed>0.05</speed>
  <fix>3d</fix>
</trkpt>
<trkpt lat="33.810313" lon="-118.3938664">
  <ele>-0.12</ele>
  <time>2026-09-02T22:06:39Z</time>
  <course>95.0</course>
  <speed>0.0</speed>
  <fix>3d</fix>
</trkpt>
<trkpt lat="33.8103134" lon="-118.3938668">
  <ele>-0.128</ele>
  <time>2026-09-02T22:06:39Z</time>
  <course>185.6</course>
  <speed>0.05</speed>
  <fix>3d</fix>
</trkpt>
<trkpt lat="33.810313" lon="-118.3938664">
  <ele>-0.12</ele>
  <time>2026-09-02T22:06:39Z</time>
  <course>95.0</course>
  <speed>0.0</speed>
  <fix>3d</fix>
</trkpt>
<trkpt lat="33.8103135" lon="-118.3938669">
  <ele>-0.129</ele>
  <time>2026-09-02T22:06:39Z</time>
  <course>185.6</course>
  <speed>0.06403124237432849</speed>
  <fix>3d</fix>
</trkpt>
<trkpt lat="33.810313" lon="-118.3938664">
  <ele>-0.12</ele>
  <time>2026-09-02T22:06:39Z</time>
  <course>95.0</course>
  <speed>0.0</speed>
  <fix>3d</fix>
</trkpt>
<trkpt lat="33.8103135" lon="-118.3938669">
  <ele>-0.129</ele>
  <time>2026-09-02T22:06:39Z</time>
  <course>185.6</course>
  <speed>0.06403124237432849</speed>
  <fix>3d</fix>
</trkpt>
<trkpt lat="33.810313" lon="-118.3938664">
  <ele>-0.12</ele>
  <time>2026-09-02T22:06:39Z</time>
  <course>95.0</course>
  <speed>0.0</speed>
  <fix>3d</fix>
</trkpt>
<trkpt lat="33.8103136" lon="-118.3938669">
  <ele>-0.129</ele>
  <time>2026-09-02T22:06:39Z</time>
  <course>185.6</course>
  <speed>0.06403124237432849</speed>
  <fix>3d</fix>
</trkpt>
<trkpt lat="33.810313" lon="-118.3938664">
  <ele>-0.12</ele>
  <time>2026-09-02T22:06:39Z</time>
  <course>95.0</course>
  <speed>0.0</speed>
  <fix>3d</fix>
</trkpt>
<trkpt lat="33.8103136" lon="-118.393867">
  <ele>-0.13</ele>
  <time>2026-09-02T22:06:39Z</time>
  <course>185.6</course>
  <speed>0.06403124237432849</speed>
  <fix>3d</fix>
</trkpt>
<trkpt lat="33.810313" lon="-118.3938664">
  <ele>-0.12</ele>
  <time>2026-09-02T22:06:39Z</time>
  <course>95.0</course>
  <speed>0.0</speed>
  <fix>3d</fix>
</trkpt>
<trkpt lat="33.8103137" lon="-118.3938671">
  <ele>-0.131</ele>
  <time>2026-09-02T22:06:39Z</time>
  <course>185.6</course>
  <speed>0.07810249675906654</speed>
  <fix>3d</fix>
</trkpt>
<trkpt lat="33.810313" lon="-118.3938664">
  <ele>-0.12</ele>
  <time>2026-09-02T22:06:39Z</time>
  <course>95.0</course>
  <speed>0.0</speed>
  <fix>3d</fix>
</trkpt>
<trkpt lat="33.8103138" lon="-118.3938671">
  <ele>-0.132</ele>
  <time>2026-09-02T22:06:39Z</time>
  <course>185.6</course>
  <speed>0.07810249675906654</speed>
  <fix>3d</fix>
</trkpt>
<trkpt lat="33.810313" lon="-118.3938664">
  <ele>-0.12</ele>
  <time>2026-09-02T22:06:39Z</time>
  <course>95.0</course>
  <speed>0.0</speed>
  <fix>3d</fix>
</trkpt>
<trkpt lat="33.8103138" lon="-118.3938672">
  <ele>-0.132</ele>
  <time>2026-09-02T22:06:39Z</time>
  <course>185.6</course>
  <speed>0.07810249675906654</speed>
  <fix>3d</fix>
</trkpt>
<trkpt lat="33.810313" lon="-118.3938664">
  <ele>-0.12</ele>
  <time>2026-09-02T22:06:39Z</time>
  <course>95.0</course>
  <speed>0.0</speed>
  <fix>3d</fix>
</trkpt>
<trkpt lat="33.8103139" lon="-118.3938673">
  <ele>-0.132</ele>
  <time>2026-09-02T22:06:39Z</time>
  <course>185.6</course>
  <speed>0.08602325267042626</speed>
  <fix>3d</fix>
</trkpt>
<trkpt lat="33.810313" lon="-118.3938664">
  <ele>-0.12</ele>
  <time>2026-09-02T22:06:39Z</time>
  <course>95.0</course>
  <speed>0.0</speed>
  <fix>3d</fix>
</trkpt>
<trkpt lat="33.810314" lon="-118.3938673">
  <ele>-0.132</ele>
  <time>2026-09-02T22:06:39Z</time>
  <course>185.6</course>
  <speed>0.08602325267042626</speed>
  <fix>3d</fix>
</trkpt>
<trkpt lat="33.810313" lon="-118.3938664">
  <ele>-0.12</ele>
  <time>2026-09-02T22:06:39Z</time>
  <course>95.0</course>
  <speed>0.0</speed>
  <fix>3d</fix>
</trkpt>
<trkpt lat="33.810314" lon="-118.3938674">
  <ele>-0.131</ele>
  <time>2026-09-02T22:06:39Z</time>
  <course>185.6</course>
  <speed>0.09219544457292887</speed>
  <fix>3d</fix>
</trkpt>
<trkpt lat="33.810313" lon="-118.3938664">
  <ele>-0.12</ele>
  <time>2026-09-02T22:06:39Z</time>
  <course>95.0</course>
  <speed>0.0</speed>
  <fix>3d</fix>
</trkpt>
<trkpt lat="33.8103141" lon="-118.3938675">
  <ele>-0.13</ele>
  <time>2026-09-02T22:06:39Z</time>
  <course>185.6</course>
  <speed>0.09219544457292887</speed>
  <fix>3d</fix>
</trkpt>
<trkpt lat="33.810313" lon="-118.3938664">
  <ele>-0.12</ele>
  <time>2026-09-02T22:06:39Z</time>
  <course>95.0</course>
  <speed>0.0</speed>
  <fix>3d</fix>
</trkpt>
<trkpt lat="33.8103142" lon="-118.3938675">
  <ele>-0.129</ele>
  <time>2026-09-02T22:06:39Z</time>
  <course>185.6</course>
  <speed>0.1</speed>
  <fix>3d</fix>
</trkpt>
<trkpt lat="33.810313" lon="-118.3938664">
  <ele>-0.12</ele>
  <time>2026-09-02T22:06:39Z</time>
  <course>95.0</course>
  <speed>0.0</speed>
  <fix>3d</fix>
</trkpt>
<trkpt lat="33.8103142" lon="-118.3938676">
  <ele>-0.126</ele>
  <time>2026-09-02T22:06:39Z</time>
  <course>185.6</course>
  <speed>0.1</speed>
  <fix>3d</fix>
</trkpt>
<trkpt lat="33.810313" lon="-118.3938664">
  <ele>-0.12</ele>
  <time>2026-09-02T22:06:39Z</time>
  <course>95.0</course>
  <speed>0.0</speed>
  <fix>3d</fix>
</trkpt>
<trkpt lat="33.8103143" lon="-118.3938677">
  <ele>-0.125</ele>
  <time>2026-09-02T22:06:39Z</time>
  <course>185.6</course>
  <speed>0.1</speed>
  <fix>3d</fix>
</trkpt>
<trkpt lat="33.810313" lon="-118.3938664">
  <ele>-0.12</ele>
  <time>2026-09-02T22:06:39Z</time>
  <course>95.0</course>
  <speed>0.0</speed>
  <fix>3d</fix>
</trkpt>
<trkpt lat="33.8103144" lon="-118.3938678">
  <ele>-0.124</ele>
  <time>2026-09-02T22:06:39Z</time>
  <course>185.6</course>
  <speed>0.1063014581273465</speed>
  <fix>3d</fix>
</trkpt>
<trkpt lat="33.810313" lon="-118.3938664">
  <ele>-0.12</ele>
  <time>2026-09-02T22:06:39Z</time>
  <course>95.0</course>
  <speed>0.0</speed>
  <fix>3d</fix>
</trkpt>
<trkpt lat="33.8103145" lon="-118.3938678">
  <ele>-0.125</ele>
  <time>2026-09-02T22:06:39Z</time>
  <course>185.6</course>
  <speed>0.11401754250991379</speed>
  <fix>3d</fix>
</trkpt>
<trkpt lat="33.810313" lon="-118.3938664">
  <ele>-0.12</ele>
  <time>2026-09-02T22:06:39Z</time>
  <course>95.0</course>
  <speed>0.0</speed>
  <fix>3d</fix>
</trkpt>
<trkpt lat="33.8103146" lon="-118.3938679">
  <ele>-0.125</ele>
  <time>2026-09-02T22:06:39Z</time>
  <course>185.6</course>
  <speed>0.11401754250991379</speed>
  <fix>3d</fix>
</trkpt>
<trkpt lat="33.810313" lon="-118.3938664">
  <ele>-0.12</ele>
  <time>2026-09-02T22:06:39Z</time>
  <course>95.0</course>
  <speed>0.0</speed>
  <fix>3d</fix>
</trkpt>
<trkpt lat="33.8103147" lon="-118.393868">
  <ele>-0.125</ele>
  <time>2026-09-02T22:06:40Z</time>
  <course>185.6</course>
  <speed>0.11401754250991379</speed>
  <fix>3d</fix>
</trkpt>
<trkpt lat="33.810313" lon="-118.3938664">
  <ele>-0.12</ele>
  <time>2026-09-02T22:06:40Z</time>
  <course>95.0</course>
  <speed>0.0</speed>
  <fix>3d</fix>
</trkpt>
<trkpt lat="33.8103148" lon="-118.3938681">
  <ele>-0.125</ele>
  <time>2026-09-02T22:06:40Z</time>
  <course>185.6</course>
  <speed>0.12806248474865697</speed>
  <fix>3d</fix>
</trkpt>
<trkpt lat="33.810313" lon="-118.3938664">
  <ele>-0.12</ele>
  <time>2026-09-02T22:06:40Z</time>
  <course>95.0</course>
  <speed>0.0</speed>
  <fix>3d</fix>
</trkpt>
<trkpt lat="33.8103148" lon="-118.3938682">
  <ele>-0.124</ele>
  <time>2026-09-02T22:06:40Z</time>
  <course>185.6</course>
  <speed>0.12806248474865697</speed>
  <fix>3d</fix>
</trkpt>
<trkpt lat="33.810313" lon="-118.3938664">
  <ele>-0.12</ele>
  <time>2026-09-02T22:06:40Z</time>
  <course>95.0</course>
  <speed>0.0</speed>
  <fix>3d</fix>
</trkpt>
<trkpt lat="33.8103149" lon="-118.3938682">
  <ele>-0.124</ele>
  <time>2026-09-02T22:06:40Z</time>
  <course>185.6</course>
  <speed>0.12806248474865697</speed>
  <fix>3d</fix>
</trkpt>
<trkpt lat="33.810313" lon="-118.3938664">
  <ele>-0.12</ele>
  <time>2026-09-02T22:06:40Z</time>
  <course>95.0</course>
  <speed>0.0</speed>
  <fix>3d</fix>
</trkpt>
<trkpt lat="33.8103149" lon="-118.3938683">
  <ele>-0.123</ele>
  <time>2026-09-02T22:06:40Z</time>
  <course>185.6</course>
  <speed>0.12806248474865697</speed>
  <fix>3d</fix>
</trkpt>
<trkpt lat="33.810313" lon="-118.3938664">
  <ele>-0.12</ele>
  <time>2026-09-02T22:06:40Z</time>
  <course>95.0</course>
  <speed>0.0</speed>
  <fix>3d</fix>
</trkpt>
<trkpt lat="33.810315" lon="-118.3938683">
  <ele>-0.123</ele>
  <time>2026-09-02T22:06:40Z</time>
  <course>185.6</course>
  <speed>0.12806248474865697</speed>
  <fix>3d</fix>
</trkpt>
<trkpt lat="33.810313" lon="-118.3938664">
  <ele>-0.12</ele>
  <time>2026-09-02T22:06:40Z</time>
  <course>95.0</course>
  <speed>0.0</speed>
  <fix>3d</fix>
</trkpt>
<trkpt lat="33.8103151" lon="-118.3938684">
  <ele>-0.123</ele>
  <time>2026-09-02T22:06:40Z</time>
  <course>185.6</course>
  <speed>0.13601470508735444</speed>
  <fix>3d</fix>
</trkpt>
<trkpt lat="33.810313" lon="-118.3938664">
  <ele>-0.12</ele>
  <time>2026-09-02T22:06:40Z</time>
  <course>95.0</course>
  <speed>0.0</speed>
  <fix>3d</fix>
</trkpt>
<trkpt lat="33.8103152" lon="-118.3938685">
  <ele>-0.124</ele>
  <time>2026-09-02T22:06:40Z</time>
  <course>185.6</course>
  <speed>0.14212670403551894</speed>
  <fix>3d</fix>
</trkpt>
<trkpt lat="33.810313" lon="-118.3938664">
  <ele>-0.12</ele>
  <time>2026-09-02T22:06:40Z</time>
  <course>95.0</course>
  <speed>0.0</speed>
  <fix>3d</fix>
</trkpt>
<trkpt lat="33.8103153" lon="-118.3938686">
  <ele>-0.125</ele>
  <time>2026-09-02T22:06:40Z</time>
  <course>185.6</course>
  <speed>0.14212670403551894</speed>
  <fix>3d</fix>
</trkpt>
<trkpt lat="33.810313" lon="-118.3938664">
  <ele>-0.12</ele>
  <time>2026-09-02T22:06:40Z</time>
  <course>95.0</course>
  <speed>0.0</speed>
  <fix>3d</fix>
</trkpt>
<trkpt lat="33.8103154" lon="-118.3938687">
  <ele>-0.127</ele>
  <time>2026-09-02T22:06:40Z</time>
  <course>185.6</course>
  <speed>0.14212670403551894</speed>
  <fix>3d</fix>
</trkpt>
<trkpt lat="33.810313" lon="-118.3938664">
  <ele>-0.12</ele>
  <time>2026-09-02T22:06:40Z</time>
  <course>95.0</course>
  <speed>0.0</speed>
  <fix>3d</fix>
</trkpt>
<trkpt lat="33.8103155" lon="-118.3938688">
  <ele>-0.128</ele>
  <time>2026-09-02T22:06:40Z</time>
  <course>185.6</course>
  <speed>0.15</speed>
  <fix>3d</fix>
</trkpt>
<trkpt lat="33.810313" lon="-118.3938664">
  <ele>-0.12</ele>
  <time>2026-09-02T22:06:40Z</time>
  <course>95.0</course>
  <speed>0.0</speed>
  <fix>3d</fix>
</trkpt>
<trkpt lat="33.8103156" lon="-118.3938689">
  <ele>-0.13</ele>
  <time>2026-09-02T22:06:40Z</time>
  <course>185.6</course>
  <speed>0.15620499351813308</speed>
  <fix>3d</fix>
</trkpt>
<trkpt lat="33.810313" lon="-118.3938664">
  <ele>-0.12</ele>
  <time>2026-09-02T22:06:40Z</time>
  <course>95.0</course>
  <speed>0.0</speed>
  <fix>3d</fix>
</trkpt>
<trkpt lat="33.8103157" lon="-118.393869">
  <ele>-0.132</ele>
  <time>2026-09-02T22:06:40Z</time>
  <course>185.6</course>
  <speed>0.15620499351813308</speed>
  <fix>3d</fix>
</trkpt>
<trkpt lat="33.810313" lon="-118.3938664">
  <ele>-0.12</ele>
  <time>2026-09-02T22:06:40Z</time>
  <course>95.0</course>
  <speed>0.0</speed>
  <fix>3d</fix>
</trkpt>
<trkpt lat="33.8103157" lon="-118.393869">
  <ele>-0.134</ele>
  <time>2026-09-02T22:06:40Z</time>
  <course>185.6</course>
  <speed>0.15620499351813308</speed>
  <fix>3d</fix>
</trkpt>
<trkpt lat="33.810313" lon="-118.3938664">
  <ele>-0.12</ele>
  <time>2026-09-02T22:06:40Z</time>
  <course>95.0</course>
  <speed>0.0</speed>
  <fix>3d</fix>
</trkpt>
<trkpt lat="33.8103157" lon="-118.393869">
  <ele>-0.134</ele>
  <time>2026-09-02T22:06:40Z</time>
  <course>185.6</course>
  <speed>0.15620499351813308</speed>
  <fix>3d</fix>
</trkpt>
<trkpt lat="33.810313" lon="-118.3938664">
  <ele>-0.12</ele>
  <time>2026-09-02T22:06:40Z</time>
  <course>95.0</course>
  <speed>0.0</speed>
  <fix>3d</fix>
</trkpt>
<trkpt lat="33.8103158" lon="-118.3938691">
  <ele>-0.133</ele>
  <time>2026-09-02T22:06:40Z</time>
  <course>185.6</course>
  <speed>0.15620499351813308</speed>
  <fix>3d</fix>
</trkpt>
<trkpt lat="33.810313" lon="-118.3938664">
  <ele>-0.12</ele>
  <time>2026-09-02T22:06:40Z</time>
  <course>95.0</course>
  <speed>0.0</speed>
  <fix>3d</fix>
</trkpt>
<trkpt lat="33.8103159" lon="-118.3938692">
  <ele>-0.132</ele>
  <time>2026-09-02T22:06:40Z</time>
  <course>185.6</course>
  <speed>0.16401219466856726</speed>
  <fix>3d</fix>
</trkpt>
<trkpt lat="33.810313" lon="-118.3938664">
  <ele>-0.12</ele>
  <time>2026-09-02T22:06:40Z</time>
  <course>95.0</course>
  <speed>0.0</speed>
  <fix>3d</fix>
</trkpt>
<trkpt lat="33.810316" lon="-118.3938693">
  <ele>-0.131</ele>
  <time>2026-09-02T22:06:40Z</time>
  <course>185.6</course>
  <speed>0.16401219466856726</speed>
  <fix>3d</fix>
</trkpt>
<trkpt lat="33.810313" lon="-118.3938664">
  <ele>-0.12</ele>
  <time>2026-09-02T22:06:40Z</time>
  <course>95.0</course>
  <speed>0.0</speed>
  <fix>3d</fix>
</trkpt>
<trkpt lat="33.8103161" lon="-118.3938694">
  <ele>-0.131</ele>
  <time>2026-09-02T22:06:40Z</time>
  <course>185.6</course>
  <speed>0.17029386365926402</speed>
  <fix>3d</fix>
</trkpt>
<trkpt lat="33.810313" lon="-118.3938664">
  <ele>-0.12</ele>
  <time>2026-09-02T22:06:40Z</time>
  <course>95.0</course>
  <speed>0.0</speed>
  <fix>3d</fix>
</trkpt>
<trkpt lat="33.8103162" lon="-118.3938695">
  <ele>-0.131</ele>
  <time>2026-09-02T22:06:40Z</time>
  <course>185.6</course>
  <speed>0.17029386365926402</speed>
  <fix>3d</fix>
</trkpt>
<trkpt lat="33.810313" lon="-118.3938664">
  <ele>-0.12</ele>
  <time>2026-09-02T22:06:40Z</time>
  <course>95.0</course>
  <speed>0.0</speed>
  <fix>3d</fix>
</trkpt>
<trkpt lat="33.8103163" lon="-118.3938696">
  <ele>-0.131</ele>
  <time>2026-09-02T22:06:40Z</time>
  <course>185.6</course>
  <speed>0.17804493814764857</speed>
  <fix>3d</fix>
</trkpt>
<trkpt lat="33.810313" lon="-118.3938664">
  <ele>-0.12</ele>
  <time>2026-09-02T22:06:40Z</time>
  <course>95.0</course>
  <speed>0.0</speed>
  <fix>3d</fix>
</trkpt>
<trkpt lat="33.8103164" lon="-118.3938697">
  <ele>-0.129</ele>
  <time>2026-09-02T22:06:40Z</time>
  <course>185.6</course>
  <speed>0.17804493814764857</speed>
  <fix>3d</fix>
</trkpt>
<trkpt lat="33.810313" lon="-118.3938664">
  <ele>-0.12</ele>
  <time>2026-09-02T22:06:40Z</time>
  <course>95.0</course>
  <speed>0.0</speed>
  <fix>3d</fix>
</trkpt>
<trkpt lat="33.8103166" lon="-118.3938699">
  <ele>-0.128</ele>
  <time>2026-09-02T22:06:40Z</time>
  <course>185.6</course>
  <speed>0.18439088914585774</speed>
  <fix>3d</fix>
</trkpt>
<trkpt lat="33.810313" lon="-118.3938664">
  <ele>-0.12</ele>
  <time>2026-09-02T22:06:40Z</time>
  <course>95.0</course>
  <speed>0.0</speed>
  <fix>3d</fix>
</trkpt>
<trkpt lat="33.8103166" lon="-118.3938699">
  <ele>-0.125</ele>
  <time>2026-09-02T22:06:40Z</time>
  <course>185.6</course>
  <speed>0.18439088914585774</speed>
  <fix>3d</fix>
</trkpt>
<trkpt lat="33.810313" lon="-118.3938664">
  <ele>-0.12</ele>
  <time>2026-09-02T22:06:40Z</time>
  <course>95.0</course>
  <speed>0.0</speed>
  <fix>3d</fix>
</trkpt>
<trkpt lat="33.8103165" lon="-118.3938698">
  <ele>-0.123</ele>
  <time>2026-09-02T22:06:40Z</time>
  <course>185.6</course>
  <speed>0.17804493814764857</speed>
  <fix>3d</fix>
</trkpt>
<trkpt lat="33.810313" lon="-118.3938664">
  <ele>-0.12</ele>
  <time>2026-09-02T22:06:40Z</time>
  <course>95.0</course>
  <speed>0.0</speed>
  <fix>3d</fix>
</trkpt>
<trkpt lat="33.8103165" lon="-118.3938698">
  <ele>-0.122</ele>
  <time>2026-09-02T22:06:40Z</time>
  <course>185.6</course>
  <speed>0.17804493814764857</speed>
  <fix>3d</fix>
</trkpt>
<trkpt lat="33.810313" lon="-118.3938664">
  <ele>-0.12</ele>
  <time>2026-09-02T22:06:40Z</time>
  <course>95.0</course>
  <speed>0.0</speed>
  <fix>3d</fix>
</trkpt>
<trkpt lat="33.8103166" lon="-118.3938699">
  <ele>-0.121</ele>
  <time>2026-09-02T22:06:40Z</time>
  <course>185.6</course>
  <speed>0.17804493814764857</speed>
  <fix>3d</fix>
</trkpt>
<trkpt lat="33.810313" lon="-118.3938664">
  <ele>-0.12</ele>
  <time>2026-09-02T22:06:40Z</time>
  <course>95.0</course>
  <speed>0.0</speed>
  <fix>3d</fix>
</trkpt>
<trkpt lat="33.8103166" lon="-118.3938699">
  <ele>-0.119</ele>
  <time>2026-09-02T22:06:40Z</time>
  <course>185.6</course>
  <speed>0.17804493814764857</speed>
  <fix>3d</fix>
</trkpt>
<trkpt lat="33.810313" lon="-118.3938664">
  <ele>-0.12</ele>
  <time>2026-09-02T22:06:40Z</time>
  <course>95.0</course>
  <speed>0.0</speed>
  <fix>3d</fix>
</trkpt>
<trkpt lat="33.8103167" lon="-118.39387">
  <ele>-0.119</ele>
  <time>2026-09-02T22:06:40Z</time>
  <course>185.6</course>
  <speed>0.18439088914585774</speed>
  <fix>3d</fix>
</trkpt>
<trkpt lat="33.810313" lon="-118.3938664">
  <ele>-0.12</ele>
  <time>2026-09-02T22:06:40Z</time>
  <course>95.0</course>
  <speed>0.0</speed>
  <fix>3d</fix>
</trkpt>
<trkpt lat="33.8103169" lon="-118.3938701">
  <ele>-0.121</ele>
  <time>2026-09-02T22:06:40Z</time>
  <course>185.6</course>
  <speed>0.19209372712298545</speed>
  <fix>3d</fix>
</trkpt>
<trkpt lat="33.810313" lon="-118.3938664">
  <ele>-0.12</ele>
  <time>2026-09-02T22:06:40Z</time>
  <course>95.0</course>
  <speed>0.0</speed>
  <fix>3d</fix>
</trkpt>
<trkpt lat="33.810317" lon="-118.3938703">
  <ele>-0.123</ele>
  <time>2026-09-02T22:06:40Z</time>
  <course>185.6</course>
  <speed>0.19209372712298545</speed>
  <fix>3d</fix>
</trkpt>
<trkpt lat="33.810313" lon="-118.3938664">
  <ele>-0.12</ele>
  <time>2026-09-02T22:06:40Z</time>
  <course>95.0</course>
  <speed>0.0</speed>
  <fix>3d</fix>
</trkpt>
<trkpt lat="33.8103171" lon="-118.3938704">
  <ele>-0.125</ele>
  <time>2026-09-02T22:06:40Z</time>
  <course>185.6</course>
  <speed>0.19209372712298545</speed>
  <fix>3d</fix>
</trkpt>
<trkpt lat="33.810313" lon="-118.3938664">
  <ele>-0.12</ele>
  <time>2026-09-02T22:06:40Z</time>
  <course>95.0</course>
  <speed>0.0</speed>
  <fix>3d</fix>
</trkpt>
<trkpt lat="33.8103172" lon="-118.3938705">
  <ele>-0.126</ele>
  <time>2026-09-02T22:06:40Z</time>
  <course>185.6</course>
  <speed>0.20615528128088303</speed>
  <fix>3d</fix>
</trkpt>
<trkpt lat="33.810313" lon="-118.3938664">
  <ele>-0.12</ele>
  <time>2026-09-02T22:06:40Z</time>
  <course>95.0</course>
  <speed>0.0</speed>
  <fix>3d</fix>
</trkpt>
<trkpt lat="33.8103174" lon="-118.3938707">
  <ele>-0.127</ele>
  <time>2026-09-02T22:06:40Z</time>
  <course>185.6</course>
  <speed>0.20615528128088303</speed>
  <fix>3d</fix>
</trkpt>
<trkpt lat="33.810313" lon="-118.3938664">
  <ele>-0.12</ele>
  <time>2026-09-02T22:06:40Z</time>
  <course>95.0</course>
  <speed>0.0</speed>
  <fix>3d</fix>
</trkpt>
<trkpt lat="33.8103173" lon="-118.3938706">
  <ele>-0.127</ele>
  <time>2026-09-02T22:06:40Z</time>
  <course>185.6</course>
  <speed>0.20615528128088303</speed>
  <fix>3d</fix>
</trkpt>
<trkpt lat="33.810313" lon="-118.3938664">
  <ele>-0.12</ele>
  <time>2026-09-02T22:06:40Z</time>
  <course>95.0</course>
  <speed>0.0</speed>
  <fix>3d</fix>
</trkpt>
<trkpt lat="33.8103172" lon="-118.3938705">
  <ele>-0.125</ele>
  <time>2026-09-02T22:06:40Z</time>
  <course>185.6</course>
  <speed>0.19209372712298545</speed>
  <fix>3d</fix>
</trkpt>
<trkpt lat="33.810313" lon="-118.3938664">
  <ele>-0.12</ele>
  <time>2026-09-02T22:06:40Z</time>
  <course>95.0</course>
  <speed>0.0</speed>
  <fix>3d</fix>
</trkpt>
<trkpt lat="33.8103172" lon="-118.3938705">
  <ele>-0.125</ele>
  <time>2026-09-02T22:06:40Z</time>
  <course>185.6</course>
  <speed>0.19209372712298545</speed>
  <fix>3d</fix>
</trkpt>
<trkpt lat="33.810313" lon="-118.3938664">
  <ele>-0.12</ele>
  <time>2026-09-02T22:06:40Z</time>
  <course>95.0</course>
  <speed>0.0</speed>
  <fix>3d</fix>
</trkpt>
<trkpt lat="33.8103172" lon="-118.3938705">
  <ele>-0.125</ele>
  <time>2026-09-02T22:06:40Z</time>
  <course>185.6</course>
  <speed>0.19209372712298545</speed>
  <fix>3d</fix>
</trkpt>
<trkpt lat="33.810313" lon="-118.3938664">
  <ele>-0.12</ele>
  <time>2026-09-02T22:06:40Z</time>
  <course>95.0</course>
  <speed>0.0</speed>
  <fix>3d</fix>
</trkpt>
<trkpt lat="33.8103173" lon="-118.3938705">
  <ele>-0.124</ele>
  <time>2026-09-02T22:06:40Z</time>
  <course>185.6</course>
  <speed>0.19209372712298545</speed>
  <fix>3d</fix>
</trkpt>
<trkpt lat="33.810313" lon="-118.3938664">
  <ele>-0.12</ele>
  <time>2026-09-02T22:06:40Z</time>
  <course>95.0</course>
  <speed>0.0</speed>
  <fix>3d</fix>
</trkpt>
<trkpt lat="33.8103173" lon="-118.3938706">
  <ele>-0.123</ele>
  <time>2026-09-02T22:06:40Z</time>
  <course>185.6</course>
  <speed>0.19209372712298545</speed>
  <fix>3d</fix>
</trkpt>
<trkpt lat="33.810313" lon="-118.3938664">
  <ele>-0.12</ele>
  <time>2026-09-02T22:06:40Z</time>
  <course>95.0</course>
  <speed>0.0</speed>
  <fix>3d</fix>
</trkpt>
<trkpt lat="33.8103174" lon="-118.3938707">
  <ele>-0.123</ele>
  <time>2026-09-02T22:06:40Z</time>
  <course>185.6</course>
  <speed>0.20615528128088303</speed>
  <fix>3d</fix>
</trkpt>
<trkpt lat="33.810313" lon="-118.3938664">
  <ele>-0.12</ele>
  <time>2026-09-02T22:06:40Z</time>
  <course>95.0</course>
  <speed>0.0</speed>
  <fix>3d</fix>
</trkpt>
<trkpt lat="33.8103176" lon="-118.3938708">
  <ele>-0.124</ele>
  <time>2026-09-02T22:06:40Z</time>
  <course>185.6</course>
  <speed>0.20615528128088303</speed>
  <fix>3d</fix>
</trkpt>
<trkpt lat="33.810313" lon="-118.3938664">
  <ele>-0.12</ele>
  <time>2026-09-02T22:06:40Z</time>
  <course>95.0</course>
  <speed>0.0</speed>
  <fix>3d</fix>
</trkpt>
<trkpt lat="33.8103177" lon="-118.393871">
  <ele>-0.125</ele>
  <time>2026-09-02T22:06:40Z</time>
  <course>185.6</course>
  <speed>0.20615528128088303</speed>
  <fix>3d</fix>
</trkpt>
<trkpt lat="33.810313" lon="-118.3938664">
  <ele>-0.12</ele>
  <time>2026-09-02T22:06:40Z</time>
  <course>95.0</course>
  <speed>0.0</speed>
  <fix>3d</fix>
</trkpt>
<trkpt lat="33.8103179" lon="-118.3938711">
  <ele>-0.125</ele>
  <time>2026-09-02T22:06:40Z</time>
  <course>185.59</course>
  <speed>0.21400934559032694</speed>
  <fix>3d</fix>
</trkpt>
<trkpt lat="33.810313" lon="-118.3938664">
  <ele>-0.12</ele>
  <time>2026-09-02T22:06:40Z</time>
  <course>95.0</course>
  <speed>0.0</speed>
  <fix>3d</fix>
</trkpt>
<trkpt lat="33.810318" lon="-118.3938713">
  <ele>-0.125</ele>
  <time>2026-09-02T22:06:40Z</time>
  <course>185.59</course>
  <speed>0.22022715545545238</speed>
  <fix>3d</fix>
</trkpt>
<trkpt lat="33.810313" lon="-118.3938664">
  <ele>-0.12</ele>
  <time>2026-09-02T22:06:40Z</time>
  <course>95.0</course>
  <speed>0.0</speed>
  <fix>3d</fix>
</trkpt>
<trkpt lat="33.8103178" lon="-118.3938711">
  <ele>-0.125</ele>
  <time>2026-09-02T22:06:40Z</time>
  <course>185.59</course>
  <speed>0.20615528128088303</speed>
  <fix>3d</fix>
</trkpt>
<trkpt lat="33.810313" lon="-118.3938664">
  <ele>-0.12</ele>
  <time>2026-09-02T22:06:40Z</time>
  <course>95.0</course>
  <speed>0.0</speed>
  <fix>3d</fix>
</trkpt>
<trkpt lat="33.8103177" lon="-118.3938709">
  <ele>-0.126</ele>
  <time>2026-09-02T22:06:40Z</time>
  <course>185.59</course>
  <speed>0.20615528128088303</speed>
  <fix>3d</fix>
</trkpt>
<trkpt lat="33.810313" lon="-118.3938664">
  <ele>-0.12</ele>
  <time>2026-09-02T22:06:40Z</time>
  <course>95.0</course>
  <speed>0.0</speed>
  <fix>3d</fix>
</trkpt>
<trkpt lat="33.8103176" lon="-118.3938709">
  <ele>-0.128</ele>
  <time>2026-09-02T22:06:40Z</time>
  <course>185.59</course>
  <speed>0.20615528128088303</speed>
  <fix>3d</fix>
</trkpt>
<trkpt lat="33.810313" lon="-118.3938664">
  <ele>-0.12</ele>
  <time>2026-09-02T22:06:40Z</time>
  <course>95.0</course>
  <speed>0.0</speed>
  <fix>3d</fix>
</trkpt>
<trkpt lat="33.8103176" lon="-118.3938709">
  <ele>-0.13</ele>
  <time>2026-09-02T22:06:40Z</time>
  <course>185.59</course>
  <speed>0.20615528128088303</speed>
  <fix>3d</fix>
</trkpt>
<trkpt lat="33.810313" lon="-118.3938664">
  <ele>-0.12</ele>
  <time>2026-09-02T22:06:40Z</time>
  <course>95.0</course>
  <speed>0.0</speed>
  <fix>3d</fix>
</trkpt>
<trkpt lat="33.8103176" lon="-118.3938709">
  <ele>-0.132</ele>
  <time>2026-09-02T22:06:40Z</time>
  <course>185.59</course>
  <speed>0.20615528128088303</speed>
  <fix>3d</fix>
</trkpt>
<trkpt lat="33.810313" lon="-118.3938664">
  <ele>-0.12</ele>
  <time>2026-09-02T22:06:40Z</time>
  <course>95.0</course>
  <speed>0.0</speed>
  <fix>3d</fix>
</trkpt>
<trkpt lat="33.8103177" lon="-118.393871">
  <ele>-0.134</ele>
  <time>2026-09-02T22:06:40Z</time>
  <course>185.59</course>
  <speed>0.20615528128088303</speed>
  <fix>3d</fix>
</trkpt>
<trkpt lat="33.810313" lon="-118.3938664">
  <ele>-0.12</ele>
  <time>2026-09-02T22:06:40Z</time>
  <course>95.0</course>
  <speed>0.0</speed>
  <fix>3d</fix>
</trkpt>
<trkpt lat="33.8103178" lon="-118.3938711">
  <ele>-0.136</ele>
  <time>2026-09-02T22:06:40Z</time>
  <course>185.59</course>
  <speed>0.20615528128088303</speed>
  <fix>3d</fix>
</trkpt>
<trkpt lat="33.810313" lon="-118.3938664">
  <ele>-0.12</ele>
  <time>2026-09-02T22:06:40Z</time>
  <course>95.0</course>
  <speed>0.0</speed>
  <fix>3d</fix>
</trkpt>
<trkpt lat="33.8103179" lon="-118.3938712">
  <ele>-0.138</ele>
  <time>2026-09-02T22:06:40Z</time>
  <course>185.59</course>
  <speed>0.20615528128088303</speed>
  <fix>3d</fix>
</trkpt>
<trkpt lat="33.810313" lon="-118.3938664">
  <ele>-0.12</ele>
  <time>2026-09-02T22:06:40Z</time>
  <course>95.0</course>
  <speed>0.0</speed>
  <fix>3d</fix>
</trkpt>
<trkpt lat="33.8103181" lon="-118.3938713">
  <ele>-0.14</ele>
  <time>2026-09-02T22:06:40Z</time>
  <course>185.59</course>
  <speed>0.22022715545545238</speed>
  <fix>3d</fix>
</trkpt>
<trkpt lat="33.810313" lon="-118.3938664">
  <ele>-0.12</ele>
  <time>2026-09-02T22:06:40Z</time>
  <course>95.0</course>
  <speed>0.0</speed>
  <fix>3d</fix>
</trkpt>
<trkpt lat="33.8103182" lon="-118.3938715">
  <ele>-0.14</ele>
  <time>2026-09-02T22:06:40Z</time>
  <course>185.59</course>
  <speed>0.22022715545545238</speed>
  <fix>3d</fix>
</trkpt>
<trkpt lat="33.810313" lon="-118.3938664">
  <ele>-0.12</ele>
  <time>2026-09-02T22:06:40Z</time>
  <course>95.0</course>
  <speed>0.0</speed>
  <fix>3d</fix>
</trkpt>
<trkpt lat="33.810318" lon="-118.3938713">
  <ele>-0.14</ele>
  <time>2026-09-02T22:06:40Z</time>
  <course>185.59</course>
  <speed>0.20615528128088303</speed>
  <fix>3d</fix>
</trkpt>
<trkpt lat="33.810313" lon="-118.3938664">
  <ele>-0.12</ele>
  <time>2026-09-02T22:06:40Z</time>
  <course>95.0</course>
  <speed>0.0</speed>
  <fix>3d</fix>
</trkpt>
<trkpt lat="33.8103178" lon="-118.393871">
  <ele>-0.139</ele>
  <time>2026-09-02T22:06:40Z</time>
  <course>185.59</course>
  <speed>0.20615528128088303</speed>
  <fix>3d</fix>
</trkpt>
<trkpt lat="33.810313" lon="-118.3938664">
  <ele>-0.12</ele>
  <time>2026-09-02T22:06:40Z</time>
  <course>95.0</course>
  <speed>0.0</speed>
  <fix>3d</fix>
</trkpt>
<trkpt lat="33.8103177" lon="-118.3938709">
  <ele>-0.137</ele>
  <time>2026-09-02T22:06:40Z</time>
  <course>185.59</course>
  <speed>0.19849433241279207</speed>
  <fix>3d</fix>
</trkpt>
<trkpt lat="33.810313" lon="-118.3938664">
  <ele>-0.12</ele>
  <time>2026-09-02T22:06:40Z</time>
  <course>95.0</course>
  <speed>0.0</speed>
  <fix>3d</fix>
</trkpt>
<trkpt lat="33.8103176" lon="-118.3938709">
  <ele>-0.136</ele>
  <time>2026-09-02T22:06:40Z</time>
  <course>185.59</course>
  <speed>0.19209372712298545</speed>
  <fix>3d</fix>
</trkpt>
<trkpt lat="33.810313" lon="-118.3938664">
  <ele>-0.12</ele>
  <time>2026-09-02T22:06:40Z</time>
  <course>95.0</course>
  <speed>0.0</speed>
  <fix>3d</fix>
</trkpt>
<trkpt lat="33.8103176" lon="-118.3938709">
  <ele>-0.136</ele>
  <time>2026-09-02T22:06:40Z</time>
  <course>185.59</course>
  <speed>0.19209372712298545</speed>
  <fix>3d</fix>
</trkpt>
<trkpt lat="33.810313" lon="-118.3938664">
  <ele>-0.12</ele>
  <time>2026-09-02T22:06:40Z</time>
  <course>95.0</course>
  <speed>0.0</speed>
  <fix>3d</fix>
</trkpt>
<trkpt lat="33.8103177" lon="-118.393871">
  <ele>-0.135</ele>
  <time>2026-09-02T22:06:40Z</time>
  <course>185.59</course>
  <speed>0.19849433241279207</speed>
  <fix>3d</fix>
</trkpt>
<trkpt lat="33.810313" lon="-118.3938664">
  <ele>-0.12</ele>
  <time>2026-09-02T22:06:40Z</time>
  <course>95.0</course>
  <speed>0.0</speed>
  <fix>3d</fix>
</trkpt>
<trkpt lat="33.8103178" lon="-118.3938711">
  <ele>-0.134</ele>
  <time>2026-09-02T22:06:40Z</time>
  <course>185.59</course>
  <speed>0.20615528128088303</speed>
  <fix>3d</fix>
</trkpt>
<trkpt lat="33.810313" lon="-118.3938664">
  <ele>-0.12</ele>
  <time>2026-09-02T22:06:40Z</time>
  <course>95.0</course>
  <speed>0.0</speed>
  <fix>3d</fix>
</trkpt>
<trkpt lat="33.8103179" lon="-118.3938712">
  <ele>-0.131</ele>
  <time>2026-09-02T22:06:40Z</time>
  <course>185.59</course>
  <speed>0.20615528128088303</speed>
  <fix>3d</fix>
</trkpt>
<trkpt lat="33.810313" lon="-118.3938664">
  <ele>-0.12</ele>
  <time>2026-09-02T22:06:40Z</time>
  <course>95.0</course>
  <speed>0.0</speed>
  <fix>3d</fix>
</trkpt>
<trkpt lat="33.810318" lon="-118.3938713">
  <ele>-0.128</ele>
  <time>2026-09-02T22:06:40Z</time>
  <course>185.59</course>
  <speed>0.20615528128088303</speed>
  <fix>3d</fix>
</trkpt>
<trkpt lat="33.810313" lon="-118.3938664">
  <ele>-0.12</ele>
  <time>2026-09-02T22:06:40Z</time>
  <course>95.0</course>
  <speed>0.0</speed>
  <fix>3d</fix>
</trkpt>
<trkpt lat="33.8103182" lon="-118.3938715">
  <ele>-0.125</ele>
  <time>2026-09-02T22:06:40Z</time>
  <course>185.59</course>
  <speed>0.21400934559032694</speed>
  <fix>3d</fix>
</trkpt>
<trkpt lat="33.810313" lon="-118.3938664">
  <ele>-0.12</ele>
  <time>2026-09-02T22:06:40Z</time>
  <course>95.0</course>
  <speed>0.0</speed>
  <fix>3d</fix>
</trkpt>
<trkpt lat="33.8103183" lon="-118.3938716">
  <ele>-0.122</ele>
  <time>2026-09-02T22:06:40Z</time>
  <course>185.59</course>
  <speed>0.22022715545545238</speed>
  <fix>3d</fix>
</trkpt>
<trkpt lat="33.810313" lon="-118.3938664">
  <ele>-0.12</ele>
  <time>2026-09-02T22:06:40Z</time>
  <course>95.0</course>
  <speed>0.0</speed>
  <fix>3d</fix>
</trkpt>
<trkpt lat="33.8103181" lon="-118.3938714">
  <ele>-0.119</ele>
  <time>2026-09-02T22:06:40Z</time>
  <course>185.59</course>
  <speed>0.20615528128088303</speed>
  <fix>3d</fix>
</trkpt>
<trkpt lat="33.810313" lon="-118.3938664">
  <ele>-0.12</ele>
  <time>2026-09-02T22:06:40Z</time>
  <course>95.0</course>
  <speed>0.0</speed>
  <fix>3d</fix>
</trkpt>
<trkpt lat="33.8103179" lon="-118.3938711">
  <ele>-0.118</ele>
  <time>2026-09-02T22:06:40Z</time>
  <course>185.59</course>
  <speed>0.20615528128088303</speed>
  <fix>3d</fix>
</trkpt>
<trkpt lat="33.810313" lon="-118.3938664">
  <ele>-0.12</ele>
  <time>2026-09-02T22:06:40Z</time>
  <course>95.0</course>
  <speed>0.0</speed>
  <fix>3d</fix>
</trkpt>
<trkpt lat="33.8103177" lon="-118.393871">
  <ele>-0.118</ele>
  <time>2026-09-02T22:06:40Z</time>
  <course>185.59</course>
  <speed>0.19209372712298545</speed>
  <fix>3d</fix>
</trkpt>
<trkpt lat="33.810313" lon="-118.3938664">
  <ele>-0.12</ele>
  <time>2026-09-02T22:06:40Z</time>
  <course>95.0</course>
  <speed>0.0</speed>
  <fix>3d</fix>
</trkpt>
<trkpt lat="33.8103176" lon="-118.3938709">
  <ele>-0.119</ele>
  <time>2026-09-02T22:06:40Z</time>
  <course>185.59</course>
  <speed>0.19209372712298545</speed>
  <fix>3d</fix>
</trkpt>
<trkpt lat="33.810313" lon="-118.3938664">
  <ele>-0.12</ele>
  <time>2026-09-02T22:06:40Z</time>
  <course>95.0</course>
  <speed>0.0</speed>
  <fix>3d</fix>
</trkpt>
<trkpt lat="33.8103176" lon="-118.3938709">
  <ele>-0.12</ele>
  <time>2026-09-02T22:06:40Z</time>
  <course>185.59</course>
  <speed>0.19209372712298545</speed>
  <fix>3d</fix>
</trkpt>
<trkpt lat="33.810313" lon="-118.3938664">
  <ele>-0.12</ele>
  <time>2026-09-02T22:06:40Z</time>
  <course>95.0</course>
  <speed>0.0</speed>
  <fix>3d</fix>
</trkpt>
<trkpt lat="33.8103177" lon="-118.3938709">
  <ele>-0.119</ele>
  <time>2026-09-02T22:06:40Z</time>
  <course>185.59</course>
  <speed>0.19209372712298545</speed>
  <fix>3d</fix>
</trkpt>
<trkpt lat="33.810313" lon="-118.3938664">
  <ele>-0.12</ele>
  <time>2026-09-02T22:06:40Z</time>
  <course>95.0</course>
  <speed>0.0</speed>
  <fix>3d</fix>
</trkpt>
<trkpt lat="33.8103178" lon="-118.393871">
  <ele>-0.12</ele>
  <time>2026-09-02T22:06:40Z</time>
  <course>185.59</course>
  <speed>0.19849433241279207</speed>
  <fix>3d</fix>
</trkpt>
<trkpt lat="33.810313" lon="-118.3938664">
  <ele>-0.12</ele>
  <time>2026-09-02T22:06:40Z</time>
  <course>95.0</course>
  <speed>0.0</speed>
  <fix>3d</fix>
</trkpt>
<trkpt lat="33.8103179" lon="-118.3938711">
  <ele>-0.119</ele>
  <time>2026-09-02T22:06:40Z</time>
  <course>185.59</course>
  <speed>0.20615528128088303</speed>
  <fix>3d</fix>
</trkpt>
<trkpt lat="33.810313" lon="-118.3938664">
  <ele>-0.12</ele>
  <time>2026-09-02T22:06:40Z</time>
  <course>95.0</course>
  <speed>0.0</speed>
  <fix>3d</fix>
</trkpt>
<trkpt lat="33.810318" lon="-118.3938713">
  <ele>-0.119</ele>
  <time>2026-09-02T22:06:40Z</time>
  <course>185.59</course>
  <speed>0.20615528128088303</speed>
  <fix>3d</fix>
</trkpt>
<trkpt lat="33.810313" lon="-118.3938664">
  <ele>-0.12</ele>
  <time>2026-09-02T22:06:40Z</time>
  <course>95.0</course>
  <speed>0.0</speed>
  <fix>3d</fix>
</trkpt>
<trkpt lat="33.8103181" lon="-118.3938714">
  <ele>-0.117</ele>
  <time>2026-09-02T22:06:40Z</time>
  <course>185.59</course>
  <speed>0.20615528128088303</speed>
  <fix>3d</fix>
</trkpt>
<trkpt lat="33.810313" lon="-118.3938664">
  <ele>-0.12</ele>
  <time>2026-09-02T22:06:40Z</time>
  <course>95.0</course>
  <speed>0.0</speed>
  <fix>3d</fix>
</trkpt>
<trkpt lat="33.8103179" lon="-118.3938712">
  <ele>-0.116</ele>
  <time>2026-09-02T22:06:40Z</time>
  <course>185.59</course>
  <speed>0.20615528128088303</speed>
  <fix>3d</fix>
</trkpt>
<trkpt lat="33.810313" lon="-118.3938664">
  <ele>-0.12</ele>
  <time>2026-09-02T22:06:40Z</time>
  <course>95.0</course>
  <speed>0.0</speed>
  <fix>3d</fix>
</trkpt>
<trkpt lat="33.8103176" lon="-118.3938709">
  <ele>-0.116</ele>
  <time>2026-09-02T22:06:40Z</time>
  <course>185.59</course>
  <speed>0.19209372712298545</speed>
  <fix>3d</fix>
</trkpt>
<trkpt lat="33.810313" lon="-118.3938664">
  <ele>-0.12</ele>
  <time>2026-09-02T22:06:40Z</time>
  <course>95.0</course>
  <speed>0.0</speed>
  <fix>3d</fix>
</trkpt>
<trkpt lat="33.8103174" lon="-118.3938707">
  <ele>-0.117</ele>
  <time>2026-09-02T22:06:40Z</time>
  <course>185.59</course>
  <speed>0.19209372712298545</speed>
  <fix>3d</fix>
</trkpt>
<trkpt lat="33.810313" lon="-118.3938664">
  <ele>-0.12</ele>
  <time>2026-09-02T22:06:40Z</time>
  <course>95.0</course>
  <speed>0.0</speed>
  <fix>3d</fix>
</trkpt>
<trkpt lat="33.8103173" lon="-118.3938706">
  <ele>-0.119</ele>
  <time>2026-09-02T22:06:40Z</time>
  <course>185.59</course>
  <speed>0.18439088914585774</speed>
  <fix>3d</fix>
</trkpt>
<trkpt lat="33.810313" lon="-118.3938664">
  <ele>-0.12</ele>
  <time>2026-09-02T22:06:40Z</time>
  <course>95.0</course>
  <speed>0.0</speed>
  <fix>3d</fix>
</trkpt>
<trkpt lat="33.8103173" lon="-118.3938706">
  <ele>-0.121</ele>
  <time>2026-09-02T22:06:40Z</time>
  <course>185.59</course>
  <speed>0.18439088914585774</speed>
  <fix>3d</fix>
</trkpt>
<trkpt lat="33.810313" lon="-118.3938664">
  <ele>-0.12</ele>
  <time>2026-09-02T22:06:40Z</time>
  <course>95.0</course>
  <speed>0.0</speed>
  <fix>3d</fix>
</trkpt>
<trkpt lat="33.8103174" lon="-118.3938707">
  <ele>-0.123</ele>
  <time>2026-09-02T22:06:40Z</time>
  <course>185.59</course>
  <speed>0.19209372712298545</speed>
  <fix>3d</fix>
</trkpt>
<trkpt lat="33.810313" lon="-118.3938664">
  <ele>-0.12</ele>
  <time>2026-09-02T22:06:40Z</time>
  <course>95.0</course>
  <speed>0.0</speed>
  <fix>3d</fix>
</trkpt>
<trkpt lat="33.8103174" lon="-118.3938707">
  <ele>-0.126</ele>
  <time>2026-09-02T22:06:40Z</time>
  <course>185.59</course>
  <speed>0.19209372712298545</speed>
  <fix>3d</fix>
</trkpt>
<trkpt lat="33.810313" lon="-118.3938664">
  <ele>-0.12</ele>
  <time>2026-09-02T22:06:40Z</time>
  <course>95.0</course>
  <speed>0.0</speed>
  <fix>3d</fix>
</trkpt>
<trkpt lat="33.8103176" lon="-118.3938708">
  <ele>-0.127</ele>
  <time>2026-09-02T22:06:40Z</time>
  <course>185.59</course>
  <speed>0.19209372712298545</speed>
  <fix>3d</fix>
</trkpt>
<trkpt lat="33.810313" lon="-118.3938664">
  <ele>-0.12</ele>
  <time>2026-09-02T22:06:40Z</time>
  <course>95.0</course>
  <speed>0.0</speed>
  <fix>3d</fix>
</trkpt>
<trkpt lat="33.8103177" lon="-118.393871">
  <ele>-0.129</ele>
  <time>2026-09-02T22:06:40Z</time>
  <course>185.59</course>
  <speed>0.19849433241279207</speed>
  <fix>3d</fix>
</trkpt>
<trkpt lat="33.810313" lon="-118.3938664">
  <ele>-0.12</ele>
  <time>2026-09-02T22:06:40Z</time>
  <course>95.0</course>
  <speed>0.0</speed>
  <fix>3d</fix>
</trkpt>
<trkpt lat="33.8103178" lon="-118.3938711">
  <ele>-0.13</ele>
  <time>2026-09-02T22:06:40Z</time>
  <course>185.59</course>
  <speed>0.20615528128088303</speed>
  <fix>3d</fix>
</trkpt>
<trkpt lat="33.810313" lon="-118.3938664">
  <ele>-0.12</ele>
  <time>2026-09-02T22:06:40Z</time>
  <course>95.0</course>
  <speed>0.0</speed>
  <fix>3d</fix>
</trkpt>
<trkpt lat="33.8103176" lon="-118.3938709">
  <ele>-0.131</ele>
  <time>2026-09-02T22:06:40Z</time>
  <course>185.59</course>
  <speed>0.19209372712298545</speed>
  <fix>3d</fix>
</trkpt>
<trkpt lat="33.810313" lon="-118.3938664">
  <ele>-0.12</ele>
  <time>2026-09-02T22:06:40Z</time>
  <course>95.0</course>
  <speed>0.0</speed>
  <fix>3d</fix>
</trkpt>
<trkpt lat="33.8103173" lon="-118.3938705">
  <ele>-0.131</ele>
  <time>2026-09-02T22:06:40Z</time>
  <course>185.59</course>
  <speed>0.18439088914585774</speed>
  <fix>3d</fix>
</trkpt>
<trkpt lat="33.810313" lon="-118.3938664">
  <ele>-0.12</ele>
  <time>2026-09-02T22:06:40Z</time>
  <course>95.0</course>
  <speed>0.0</speed>
  <fix>3d</fix>
</trkpt>
<trkpt lat="33.8103171" lon="-118.3938704">
  <ele>-0.132</ele>
  <time>2026-09-02T22:06:40Z</time>
  <course>185.59</course>
  <speed>0.18439088914585774</speed>
  <fix>3d</fix>
</trkpt>
<trkpt lat="33.810313" lon="-118.3938664">
  <ele>-0.12</ele>
  <time>2026-09-02T22:06:40Z</time>
  <course>95.0</course>
  <speed>0.0</speed>
  <fix>3d</fix>
</trkpt>
<trkpt lat="33.810317" lon="-118.3938703">
  <ele>-0.134</ele>
  <time>2026-09-02T22:06:40Z</time>
  <course>185.59</course>
  <speed>0.17804493814764857</speed>
  <fix>3d</fix>
</trkpt>
<trkpt lat="33.810313" lon="-118.3938664">
  <ele>-0.12</ele>
  <time>2026-09-02T22:06:40Z</time>
  <course>95.0</course>
  <speed>0.0</speed>
  <fix>3d</fix>
</trkpt>
<trkpt lat="33.810317" lon="-118.3938703">
  <ele>-0.135</ele>
  <time>2026-09-02T22:06:40Z</time>
  <course>185.59</course>
  <speed>0.17804493814764857</speed>
  <fix>3d</fix>
</trkpt>
<trkpt lat="33.810313" lon="-118.3938664">
  <ele>-0.12</ele>
  <time>2026-09-02T22:06:40Z</time>
  <course>95.0</course>
  <speed>0.0</speed>
  <fix>3d</fix>
</trkpt>
<trkpt lat="33.810317" lon="-118.3938703">
  <ele>-0.134</ele>
  <time>2026-09-02T22:06:40Z</time>
  <course>185.59</course>
  <speed>0.17804493814764857</speed>
  <fix>3d</fix>
</trkpt>
<trkpt lat="33.810313" lon="-118.3938664">
  <ele>-0.12</ele>
  <time>2026-09-02T22:06:40Z</time>
  <course>95.0</course>
  <speed>0.0</speed>
  <fix>3d</fix>
</trkpt>
<trkpt lat="33.8103171" lon="-118.3938704">
  <ele>-0.134</ele>
  <time>2026-09-02T22:06:40Z</time>
  <course>185.59</course>
  <speed>0.18439088914585774</speed>
  <fix>3d</fix>
</trkpt>
<trkpt lat="33.810313" lon="-118.3938664">
  <ele>-0.12</ele>
  <time>2026-09-02T22:06:40Z</time>
  <course>95.0</course>
  <speed>0.0</speed>
  <fix>3d</fix>
</trkpt>
<trkpt lat="33.8103172" lon="-118.3938705">
  <ele>-0.134</ele>
  <time>2026-09-02T22:06:40Z</time>
  <course>185.59</course>
  <speed>0.19209372712298545</speed>
  <fix>3d</fix>
</trkpt>
<trkpt lat="33.810313" lon="-118.3938664">
  <ele>-0.12</ele>
  <time>2026-09-02T22:06:40Z</time>
  <course>95.0</course>
  <speed>0.0</speed>
  <fix>3d</fix>
</trkpt>
<trkpt lat="33.8103173" lon="-118.3938706">
  <ele>-0.134</ele>
  <time>2026-09-02T22:06:40Z</time>
  <course>185.59</course>
  <speed>0.19209372712298545</speed>
  <fix>3d</fix>
</trkpt>
<trkpt lat="33.810313" lon="-118.3938664">
  <ele>-0.12</ele>
  <time>2026-09-02T22:06:40Z</time>
  <course>95.0</course>
  <speed>0.0</speed>
  <fix>3d</fix>
</trkpt>
<trkpt lat="33.8103174" lon="-118.3938707">
  <ele>-0.133</ele>
  <time>2026-09-02T22:06:40Z</time>
  <course>185.59</course>
  <speed>0.19209372712298545</speed>
  <fix>3d</fix>
</trkpt>
<trkpt lat="33.810313" lon="-118.3938664">
  <ele>-0.12</ele>
  <time>2026-09-02T22:06:40Z</time>
  <course>95.0</course>
  <speed>0.0</speed>
  <fix>3d</fix>
</trkpt>
<trkpt lat="33.8103172" lon="-118.3938705">
  <ele>-0.131</ele>
  <time>2026-09-02T22:06:40Z</time>
  <course>185.59</course>
  <speed>0.19209372712298545</speed>
  <fix>3d</fix>
</trkpt>
<trkpt lat="33.810313" lon="-118.3938664">
  <ele>-0.12</ele>
  <time>2026-09-02T22:06:40Z</time>
  <course>95.0</course>
  <speed>0.0</speed>
  <fix>3d</fix>
</trkpt>
<trkpt lat="33.8103169" lon="-118.3938702">
  <ele>-0.129</ele>
  <time>2026-09-02T22:06:40Z</time>
  <course>185.59</course>
  <speed>0.17804493814764857</speed>
  <fix>3d</fix>
</trkpt>
<trkpt lat="33.810313" lon="-118.3938664">
  <ele>-0.12</ele>
  <time>2026-09-02T22:06:40Z</time>
  <course>95.0</course>
  <speed>0.0</speed>
  <fix>3d</fix>
</trkpt>
<trkpt lat="33.8103167" lon="-118.39387">
  <ele>-0.127</ele>
  <time>2026-09-02T22:06:40Z</time>
  <course>185.59</course>
  <speed>0.17804493814764857</speed>
  <fix>3d</fix>
</trkpt>
<trkpt lat="33.810313" lon="-118.3938664">
  <ele>-0.12</ele>
  <time>2026-09-02T22:06:40Z</time>
  <course>95.0</course>
  <speed>0.0</speed>
  <fix>3d</fix>
</trkpt>
<trkpt lat="33.8103166" lon="-118.3938699">
  <ele>-0.126</ele>
  <time>2026-09-02T22:06:40Z</time>
  <course>185.59</course>
  <speed>0.17029386365926402</speed>
  <fix>3d</fix>
</trkpt>
<trkpt lat="33.810313" lon="-118.3938664">
  <ele>-0.12</ele>
  <time>2026-09-02T22:06:40Z</time>
  <course>95.0</course>
  <speed>0.0</speed>
  <fix>3d</fix>
</trkpt>
<trkpt lat="33.8103166" lon="-118.3938699">
  <ele>-0.126</ele>
  <time>2026-09-02T22:06:40Z</time>
  <course>185.59</course>
  <speed>0.17029386365926402</speed>
  <fix>3d</fix>
</trkpt>
<trkpt lat="33.810313" lon="-118.3938664">
  <ele>-0.12</ele>
  <time>2026-09-02T22:06:40Z</time>
  <course>95.0</course>
  <speed>0.0</speed>
  <fix>3d</fix>
</trkpt>
<trkpt lat="33.8103166" lon="-118.3938699">
  <ele>-0.127</ele>
  <time>2026-09-02T22:06:40Z</time>
  <course>185.59</course>
  <speed>0.17804493814764857</speed>
  <fix>3d</fix>
</trkpt>
<trkpt lat="33.810313" lon="-118.3938664">
  <ele>-0.12</ele>
  <time>2026-09-02T22:06:40Z</time>
  <course>95.0</course>
  <speed>0.0</speed>
  <fix>3d</fix>
</trkpt>
<trkpt lat="33.8103167" lon="-118.39387">
  <ele>-0.128</ele>
  <time>2026-09-02T22:06:40Z</time>
  <course>185.59</course>
  <speed>0.17804493814764857</speed>
  <fix>3d</fix>
</trkpt>
<trkpt lat="33.810313" lon="-118.3938664">
  <ele>-0.12</ele>
  <time>2026-09-02T22:06:40Z</time>
  <course>95.0</course>
  <speed>0.0</speed>
  <fix>3d</fix>
</trkpt>
<trkpt lat="33.8103168" lon="-118.3938701">
  <ele>-0.127</ele>
  <time>2026-09-02T22:06:40Z</time>
  <course>185.59</course>
  <speed>0.17804493814764857</speed>
  <fix>3d</fix>
</trkpt>
<trkpt lat="33.810313" lon="-118.3938664">
  <ele>-0.12</ele>
  <time>2026-09-02T22:06:40Z</time>
  <course>95.0</course>
  <speed>0.0</speed>
  <fix>3d</fix>
</trkpt>
<trkpt lat="33.8103169" lon="-118.3938702">
  <ele>-0.126</ele>
  <time>2026-09-02T22:06:40Z</time>
  <course>185.59</course>
  <speed>0.18439088914585774</speed>
  <fix>3d</fix>
</trkpt>
<trkpt lat="33.810313" lon="-118.3938664">
  <ele>-0.12</ele>
  <time>2026-09-02T22:06:40Z</time>
  <course>95.0</course>
  <speed>0.0</speed>
  <fix>3d</fix>
</trkpt>
<trkpt lat="33.810317" lon="-118.3938703">
  <ele>-0.125</ele>
  <time>2026-09-02T22:06:40Z</time>
  <course>185.59</course>
  <speed>0.19209372712298545</speed>
  <fix>3d</fix>
</trkpt>
<trkpt lat="33.810313" lon="-118.3938664">
  <ele>-0.12</ele>
  <time>2026-09-02T22:06:40Z</time>
  <course>95.0</course>
  <speed>0.0</speed>
  <fix>3d</fix>
</trkpt>
<trkpt lat="33.8103172" lon="-118.3938705">
  <ele>-0.124</ele>
  <time>2026-09-02T22:06:40Z</time>
  <course>185.59</course>
  <speed>0.19209372712298545</speed>
  <fix>3d</fix>
</trkpt>
<trkpt lat="33.810313" lon="-118.3938664">
  <ele>-0.12</ele>
  <time>2026-09-02T22:06:40Z</time>
  <course>95.0</course>
  <speed>0.0</speed>
  <fix>3d</fix>
</trkpt>
<trkpt lat="33.8103169" lon="-118.3938702">
  <ele>-0.124</ele>
  <time>2026-09-02T22:06:40Z</time>
  <course>185.59</course>
  <speed>0.19209372712298545</speed>
  <fix>3d</fix>
</trkpt>
<trkpt lat="33.810313" lon="-118.3938664">
  <ele>-0.12</ele>
  <time>2026-09-02T22:06:40Z</time>
  <course>95.0</course>
  <speed>0.0</speed>
  <fix>3d</fix>
</trkpt>
<trkpt lat="33.8103166" lon="-118.3938699">
  <ele>-0.123</ele>
  <time>2026-09-02T22:06:40Z</time>
  <course>185.59</course>
  <speed>0.17804493814764857</speed>
  <fix>3d</fix>
</trkpt>
<trkpt lat="33.810313" lon="-118.3938663">
  <ele>-0.12</ele>
  <time>2026-09-02T22:06:40Z</time>
  <course>95.0</course>
  <speed>0.0</speed>
  <fix>3d</fix>
</trkpt>
<trkpt lat="33.8103164" lon="-118.3938697">
  <ele>-0.123</ele>
  <time>2026-09-02T22:06:40Z</time>
  <course>185.59</course>
  <speed>0.17804493814764857</speed>
  <fix>3d</fix>
</trkpt>
<trkpt lat="33.810313" lon="-118.3938663">
  <ele>-0.12</ele>
  <time>2026-09-02T22:06:40Z</time>
  <course>95.0</course>
  <speed>0.0</speed>
  <fix>3d</fix>
</trkpt>
<trkpt lat="33.8103163" lon="-118.3938696">
  <ele>-0.124</ele>
  <time>2026-09-02T22:06:40Z</time>
  <course>185.59</course>
  <speed>0.17029386365926402</speed>
  <fix>3d</fix>
</trkpt>
<trkpt lat="33.810313" lon="-118.3938663">
  <ele>-0.12</ele>
  <time>2026-09-02T22:06:40Z</time>
  <course>95.0</course>
  <speed>0.0</speed>
  <fix>3d</fix>
</trkpt>
<trkpt lat="33.8103163" lon="-118.3938696">
  <ele>-0.124</ele>
  <time>2026-09-02T22:06:40Z</time>
  <course>185.59</course>
  <speed>0.17029386365926402</speed>
  <fix>3d</fix>
</trkpt>
<trkpt lat="33.810313" lon="-118.3938663">
  <ele>-0.12</ele>
  <time>2026-09-02T22:06:40Z</time>
  <course>95.0</course>
  <speed>0.0</speed>
  <fix>3d</fix>
</trkpt>
<trkpt lat="33.8103163" lon="-118.3938696">
  <ele>-0.125</ele>
  <time>2026-09-02T22:06:40Z</time>
  <course>185.59</course>
  <speed>0.17804493814764857</speed>
  <fix>3d</fix>
</trkpt>
<trkpt lat="33.810313" lon="-118.3938663">
  <ele>-0.12</ele>
  <time>2026-09-02T22:06:40Z</time>
  <course>95.0</course>
  <speed>0.0</speed>
  <fix>3d</fix>
</trkpt>
<trkpt lat="33.8103164" lon="-118.3938697">
  <ele>-0.126</ele>
  <time>2026-09-02T22:06:40Z</time>
  <course>185.59</course>
  <speed>0.17804493814764857</speed>
  <fix>3d</fix>
</trkpt>
<trkpt lat="33.810313" lon="-118.3938663">
  <ele>-0.12</ele>
  <time>2026-09-02T22:06:40Z</time>
  <course>95.0</course>
  <speed>0.0</speed>
  <fix>3d</fix>
</trkpt>
<trkpt lat="33.8103165" lon="-118.3938698">
  <ele>-0.126</ele>
  <time>2026-09-02T22:06:40Z</time>
  <course>185.59</course>
  <speed>0.17804493814764857</speed>
  <fix>3d</fix>
</trkpt>
<trkpt lat="33.810313" lon="-118.3938663">
  <ele>-0.12</ele>
  <time>2026-09-02T22:06:40Z</time>
  <course>95.0</course>
  <speed>0.0</speed>
  <fix>3d</fix>
</trkpt>
<trkpt lat="33.8103166" lon="-118.3938699">
  <ele>-0.126</ele>
  <time>2026-09-02T22:06:40Z</time>
  <course>185.59</course>
  <speed>0.18439088914585774</speed>
  <fix>3d</fix>
</trkpt>
<trkpt lat="33.810313" lon="-118.3938663">
  <ele>-0.12</ele>
  <time>2026-09-02T22:06:40Z</time>
  <course>95.0</course>
  <speed>0.0</speed>
  <fix>3d</fix>
</trkpt>
<trkpt lat="33.8103167" lon="-118.39387">
  <ele>-0.126</ele>
  <time>2026-09-02T22:06:40Z</time>
  <course>185.59</course>
  <speed>0.19209372712298545</speed>
  <fix>3d</fix>
</trkpt>
<trkpt lat="33.810313" lon="-118.3938663">
  <ele>-0.12</ele>
  <time>2026-09-02T22:06:40Z</time>
  <course>95.0</course>
  <speed>0.0</speed>
  <fix>3d</fix>
</trkpt>
<trkpt lat="33.8103168" lon="-118.3938701">
  <ele>-0.126</ele>
  <time>2026-09-02T22:06:40Z</time>
  <course>185.59</course>
  <speed>0.19209372712298545</speed>
  <fix>3d</fix>
</trkpt>
<trkpt lat="33.810313" lon="-118.3938663">
  <ele>-0.12</ele>
  <time>2026-09-02T22:06:40Z</time>
  <course>95.0</course>
  <speed>0.0</speed>
  <fix>3d</fix>
</trkpt>
<trkpt lat="33.8103166" lon="-118.3938699">
  <ele>-0.126</ele>
  <time>2026-09-02T22:06:40Z</time>
  <course>185.59</course>
  <speed>0.18439088914585774</speed>
  <fix>3d</fix>
</trkpt>
<trkpt lat="33.810313" lon="-118.3938663">
  <ele>-0.12</ele>
  <time>2026-09-02T22:06:40Z</time>
  <course>95.0</course>
  <speed>0.0</speed>
  <fix>3d</fix>
</trkpt>
<trkpt lat="33.8103162" lon="-118.3938695">
  <ele>-0.127</ele>
  <time>2026-09-02T22:06:40Z</time>
  <course>185.59</course>
  <speed>0.17804493814764857</speed>
  <fix>3d</fix>
</trkpt>
<trkpt lat="33.810313" lon="-118.3938663">
  <ele>-0.12</ele>
  <time>2026-09-02T22:06:40Z</time>
  <course>95.0</course>
  <speed>0.0</speed>
  <fix>3d</fix>
</trkpt>
<trkpt lat="33.810316" lon="-118.3938693">
  <ele>-0.129</ele>
  <time>2026-09-02T22:06:40Z</time>
  <course>185.59</course>
  <speed>0.17029386365926402</speed>
  <fix>3d</fix>
</trkpt>
<trkpt lat="33.810313" lon="-118.3938663">
  <ele>-0.12</ele>
  <time>2026-09-02T22:06:40Z</time>
  <course>95.0</course>
  <speed>0.0</speed>
  <fix>3d</fix>
</trkpt>
<trkpt lat="33.8103159" lon="-118.3938692">
  <ele>-0.13</ele>
  <time>2026-09-02T22:06:40Z</time>
  <course>185.59</course>
  <speed>0.17029386365926402</speed>
  <fix>3d</fix>
</trkpt>
<trkpt lat="33.810313" lon="-118.3938663">
  <ele>-0.12</ele>
  <time>2026-09-02T22:06:40Z</time>
  <course>95.0</course>
  <speed>0.0</speed>
  <fix>3d</fix>
</trkpt>
<trkpt lat="33.8103159" lon="-118.3938692">
  <ele>-0.132</ele>
  <time>2026-09-02T22:06:40Z</time>
  <course>185.59</course>
  <speed>0.17029386365926402</speed>
  <fix>3d</fix>
</trkpt>
<trkpt lat="33.810313" lon="-118.3938663">
  <ele>-0.12</ele>
  <time>2026-09-02T22:06:40Z</time>
  <course>95.0</course>
  <speed>0.0</speed>
  <fix>3d</fix>
</trkpt>
<trkpt lat="33.8103159" lon="-118.3938692">
  <ele>-0.133</ele>
  <time>2026-09-02T22:06:40Z</time>
  <course>185.59</course>
  <speed>0.17029386365926402</speed>
  <fix>3d</fix>
</trkpt>
<trkpt lat="33.810313" lon="-118.3938663">
  <ele>-0.12</ele>
  <time>2026-09-02T22:06:40Z</time>
  <course>95.0</course>
  <speed>0.0</speed>
  <fix>3d</fix>
</trkpt>
<trkpt lat="33.810316" lon="-118.3938693">
  <ele>-0.134</ele>
  <time>2026-09-02T22:06:40Z</time>
  <course>185.59</course>
  <speed>0.17804493814764857</speed>
  <fix>3d</fix>
</trkpt>
<trkpt lat="33.810313" lon="-118.3938663">
  <ele>-0.12</ele>
  <time>2026-09-02T22:06:40Z</time>
  <course>95.0</course>
  <speed>0.0</speed>
  <fix>3d</fix>
</trkpt>
<trkpt lat="33.8103161" lon="-118.3938694">
  <ele>-0.135</ele>
  <time>2026-09-02T22:06:40Z</time>
  <course>185.59</course>
  <speed>0.17804493814764857</speed>
  <fix>3d</fix>
</trkpt>
<trkpt lat="33.810313" lon="-118.3938663">
  <ele>-0.12</ele>
  <time>2026-09-02T22:06:40Z</time>
  <course>95.0</course>
  <speed>0.0</speed>
  <fix>3d</fix>
</trkpt>
<trkpt lat="33.8103162" lon="-118.3938695">
  <ele>-0.135</ele>
  <time>2026-09-02T22:06:40Z</time>
  <course>185.59</course>
  <speed>0.18439088914585774</speed>
  <fix>3d</fix>
</trkpt>
<trkpt lat="33.810313" lon="-118.3938663">
  <ele>-0.12</ele>
  <time>2026-09-02T22:06:40Z</time>
  <course>95.0</course>
  <speed>0.0</speed>
  <fix>3d</fix>
</trkpt>
<trkpt lat="33.8103163" lon="-118.3938696">
  <ele>-0.136</ele>
  <time>2026-09-02T22:06:40Z</time>
  <course>185.59</course>
  <speed>0.19209372712298545</speed>
  <fix>3d</fix>
</trkpt>
<trkpt lat="33.810313" lon="-118.3938663">
  <ele>-0.12</ele>
  <time>2026-09-02T22:06:40Z</time>
  <course>95.0</course>
  <speed>0.0</speed>
  <fix>3d</fix>
</trkpt>
<trkpt lat="33.8103165" lon="-118.3938698">
  <ele>-0.135</ele>
  <time>2026-09-02T22:06:40Z</time>
  <course>185.59</course>
  <speed>0.19209372712298545</speed>
  <fix>3d</fix>
</trkpt>
<trkpt lat="33.810313" lon="-118.3938663">
  <ele>-0.12</ele>
  <time>2026-09-02T22:06:40Z</time>
  <course>95.0</course>
  <speed>0.0</speed>
  <fix>3d</fix>
</trkpt>
<trkpt lat="33.8103162" lon="-118.3938695">
  <ele>-0.135</ele>
  <time>2026-09-02T22:06:40Z</time>
  <course>185.59</course>
  <speed>0.18439088914585774</speed>
  <fix>3d</fix>
</trkpt>
<trkpt lat="33.810313" lon="-118.3938663">
  <ele>-0.12</ele>
  <time>2026-09-02T22:06:40Z</time>
  <course>95.0</course>
  <speed>0.0</speed>
  <fix>3d</fix>
</trkpt>
<trkpt lat="33.8103158" lon="-118.3938691">
  <ele>-0.134</ele>
  <time>2026-09-02T22:06:40Z</time>
  <course>185.59</course>
  <speed>0.17804493814764857</speed>
  <fix>3d</fix>
</trkpt>
<trkpt lat="33.810313" lon="-118.3938663">
  <ele>-0.12</ele>
  <time>2026-09-02T22:06:40Z</time>
  <course>95.0</course>
  <speed>0.0</speed>
  <fix>3d</fix>
</trkpt>
<trkpt lat="33.8103156" lon="-118.3938689">
  <ele>-0.133</ele>
  <time>2026-09-02T22:06:40Z</time>
  <course>185.59</course>
  <speed>0.17029386365926402</speed>
  <fix>3d</fix>
</trkpt>
<trkpt lat="33.810313" lon="-118.3938663">
  <ele>-0.12</ele>
  <time>2026-09-02T22:06:40Z</time>
  <course>95.0</course>
  <speed>0.0</speed>
  <fix>3d</fix>
</trkpt>
<trkpt lat="33.8103155" lon="-118.3938688">
  <ele>-0.132</ele>
  <time>2026-09-02T22:06:40Z</time>
  <course>185.59</course>
  <speed>0.17029386365926402</speed>
  <fix>3d</fix>
</trkpt>
<trkpt lat="33.810313" lon="-118.3938663">
  <ele>-0.12</ele>
  <time>2026-09-02T22:06:40Z</time>
  <course>95.0</course>
  <speed>0.0</speed>
  <fix>3d</fix>
</trkpt>
<trkpt lat="33.8103155" lon="-118.3938688">
  <ele>-0.131</ele>
  <time>2026-09-02T22:06:40Z</time>
  <course>185.59</course>
  <speed>0.17029386365926402</speed>
  <fix>3d</fix>
</trkpt>
<trkpt lat="33.810313" lon="-118.3938663">
  <ele>-0.12</ele>
  <time>2026-09-02T22:06:40Z</time>
  <course>95.0</course>
  <speed>0.0</speed>
  <fix>3d</fix>
</trkpt>
<trkpt lat="33.8103155" lon="-118.3938688">
  <ele>-0.129</ele>
  <time>2026-09-02T22:06:40Z</time>
  <course>185.59</course>
  <speed>0.17029386365926402</speed>
  <fix>3d</fix>
</trkpt>
<trkpt lat="33.810313" lon="-118.3938663">
  <ele>-0.12</ele>
  <time>2026-09-02T22:06:40Z</time>
  <course>95.0</course>
  <speed>0.0</speed>
  <fix>3d</fix>
</trkpt>
<trkpt lat="33.8103156" lon="-118.3938689">
  <ele>-0.128</ele>
  <time>2026-09-02T22:06:40Z</time>
  <course>185.59</course>
  <speed>0.17804493814764857</speed>
  <fix>3d</fix>
</trkpt>
<trkpt lat="33.810313" lon="-118.3938663">
  <ele>-0.12</ele>
  <time>2026-09-02T22:06:40Z</time>
  <course>95.0</course>
  <speed>0.0</speed>
  <fix>3d</fix>
</trkpt>
<trkpt lat="33.8103157" lon="-118.393869">
  <ele>-0.127</ele>
  <time>2026-09-02T22:06:40Z</time>
  <course>185.59</course>
  <speed>0.17804493814764857</speed>
  <fix>3d</fix>
</trkpt>
<trkpt lat="33.810313" lon="-118.3938663">
  <ele>-0.12</ele>
  <time>2026-09-02T22:06:40Z</time>
  <course>95.0</course>
  <speed>0.0</speed>
  <fix>3d</fix>
</trkpt>
<trkpt lat="33.8103158" lon="-118.3938691">
  <ele>-0.126</ele>
  <time>2026-09-02T22:06:40Z</time>
  <course>185.59</course>
  <speed>0.18439088914585774</speed>
  <fix>3d</fix>
</trkpt>
<trkpt lat="33.810313" lon="-118.3938663">
  <ele>-0.12</ele>
  <time>2026-09-02T22:06:40Z</time>
  <course>95.0</course>
  <speed>0.0</speed>
  <fix>3d</fix>
</trkpt>
<trkpt lat="33.8103159" lon="-118.3938692">
  <ele>-0.126</ele>
  <time>2026-09-02T22:06:40Z</time>
  <course>185.59</course>
  <speed>0.19209372712298545</speed>
  <fix>3d</fix>
</trkpt>
<trkpt lat="33.810313" lon="-118.3938663">
  <ele>-0.12</ele>
  <time>2026-09-02T22:06:40Z</time>
  <course>95.0</course>
  <speed>0.0</speed>
  <fix>3d</fix>
</trkpt>
<trkpt lat="33.8103156" lon="-118.393869">
  <ele>-0.125</ele>
  <time>2026-09-02T22:06:40Z</time>
  <course>185.59</course>
  <speed>0.17804493814764857</speed>
  <fix>3d</fix>
</trkpt>
<trkpt lat="33.810313" lon="-118.3938663">
  <ele>-0.12</ele>
  <time>2026-09-02T22:06:40Z</time>
  <course>95.0</course>
  <speed>0.0</speed>
  <fix>3d</fix>
</trkpt>
<trkpt lat="33.8103153" lon="-118.3938686">
  <ele>-0.125</ele>
  <time>2026-09-02T22:06:40Z</time>
  <course>185.59</course>
  <speed>0.17029386365926402</speed>
  <fix>3d</fix>
</trkpt>
<trkpt lat="33.810313" lon="-118.3938663">
  <ele>-0.12</ele>
  <time>2026-09-02T22:06:40Z</time>
  <course>95.0</course>
  <speed>0.0</speed>
  <fix>3d</fix>
</trkpt>
<trkpt lat="33.8103151" lon="-118.3938684">
  <ele>-0.126</ele>
  <time>2026-09-02T22:06:40Z</time>
  <course>185.59</course>
  <speed>0.17029386365926402</speed>
  <fix>3d</fix>
</trkpt>
<trkpt lat="33.810313" lon="-118.3938663">
  <ele>-0.12</ele>
  <time>2026-09-02T22:06:40Z</time>
  <course>95.0</course>
  <speed>0.0</speed>
  <fix>3d</fix>
</trkpt>
<trkpt lat="33.810315" lon="-118.3938683">
  <ele>-0.126</ele>
  <time>2026-09-02T22:06:40Z</time>
  <course>185.59</course>
  <speed>0.17029386365926402</speed>
  <fix>3d</fix>
</trkpt>
<trkpt lat="33.810313" lon="-118.3938663">
  <ele>-0.12</ele>
  <time>2026-09-02T22:06:40Z</time>
  <course>95.0</course>
  <speed>0.0</speed>
  <fix>3d</fix>
</trkpt>
<trkpt lat="33.810315" lon="-118.3938683">
  <ele>-0.127</ele>
  <time>2026-09-02T22:06:40Z</time>
  <course>185.59</course>
  <speed>0.17029386365926402</speed>
  <fix>3d</fix>
</trkpt>
<trkpt lat="33.810313" lon="-118.3938663">
  <ele>-0.12</ele>
  <time>2026-09-02T22:06:40Z</time>
  <course>95.0</course>
  <speed>0.0</speed>
  <fix>3d</fix>
</trkpt>
<trkpt lat="33.810315" lon="-118.3938683">
  <ele>-0.127</ele>
  <time>2026-09-02T22:06:40Z</time>
  <course>185.59</course>
  <speed>0.17029386365926402</speed>
  <fix>3d</fix>
</trkpt>
<trkpt lat="33.810313" lon="-118.3938663">
  <ele>-0.12</ele>
  <time>2026-09-02T22:06:40Z</time>
  <course>95.0</course>
  <speed>0.0</speed>
  <fix>3d</fix>
</trkpt>
<trkpt lat="33.810315" lon="-118.3938684">
  <ele>-0.126</ele>
  <time>2026-09-02T22:06:40Z</time>
  <course>185.59</course>
  <speed>0.17029386365926402</speed>
  <fix>3d</fix>
</trkpt>
<trkpt lat="33.810313" lon="-118.3938663">
  <ele>-0.12</ele>
  <time>2026-09-02T22:06:40Z</time>
  <course>95.0</course>
  <speed>0.0</speed>
  <fix>3d</fix>
</trkpt>
<trkpt lat="33.8103151" lon="-118.3938685">
  <ele>-0.126</ele>
  <time>2026-09-02T22:06:40Z</time>
  <course>185.59</course>
  <speed>0.17804493814764857</speed>
  <fix>3d</fix>
</trkpt>
<trkpt lat="33.810313" lon="-118.3938663">
  <ele>-0.12</ele>
  <time>2026-09-02T22:06:40Z</time>
  <course>95.0</course>
  <speed>0.0</speed>
  <fix>3d</fix>
</trkpt>
<trkpt lat="33.8103152" lon="-118.3938686">
  <ele>-0.124</ele>
  <time>2026-09-02T22:06:40Z</time>
  <course>185.59</course>
  <speed>0.17804493814764857</speed>
  <fix>3d</fix>
</trkpt>
<trkpt lat="33.810313" lon="-118.3938663">
  <ele>-0.12</ele>
  <time>2026-09-02T22:06:40Z</time>
  <course>95.0</course>
  <speed>0.0</speed>
  <fix>3d</fix>
</trkpt>
<trkpt lat="33.8103154" lon="-118.3938687">
  <ele>-0.123</ele>
  <time>2026-09-02T22:06:40Z</time>
  <course>185.59</course>
  <speed>0.18439088914585774</speed>
  <fix>3d</fix>
</trkpt>
<trkpt lat="33.810313" lon="-118.3938663">
  <ele>-0.12</ele>
  <time>2026-09-02T22:06:40Z</time>
  <course>95.0</course>
  <speed>0.0</speed>
  <fix>3d</fix>
</trkpt>
<trkpt lat="33.8103155" lon="-118.3938688">
  <ele>-0.122</ele>
  <time>2026-09-02T22:06:40Z</time>
  <course>185.59</course>
  <speed>0.19209372712298545</speed>
  <fix>3d</fix>
</trkpt>
<trkpt lat="33.810313" lon="-118.3938663">
  <ele>-0.12</ele>
  <time>2026-09-02T22:06:40Z</time>
  <course>95.0</course>
  <speed>0.0</speed>
  <fix>3d</fix>
</trkpt>
<trkpt lat="33.8103153" lon="-118.3938686">
  <ele>-0.121</ele>
  <time>2026-09-02T22:06:40Z</time>
  <course>185.59</course>
  <speed>0.18439088914585774</speed>
  <fix>3d</fix>
</trkpt>
<trkpt lat="33.810313" lon="-118.3938663">
  <ele>-0.12</ele>
  <time>2026-09-02T22:06:40Z</time>
  <course>95.0</course>
  <speed>0.0</speed>
  <fix>3d</fix>
</trkpt>
<trkpt lat="33.8103149" lon="-118.3938682">
  <ele>-0.12</ele>
  <time>2026-09-02T22:06:40Z</time>
  <course>185.59</course>
  <speed>0.17804493814764857</speed>
  <fix>3d</fix>
</trkpt>
<trkpt lat="33.810313" lon="-118.3938663">
  <ele>-0.12</ele>
  <time>2026-09-02T22:06:40Z</time>
  <course>95.0</course>
  <speed>0.0</speed>
  <fix>3d</fix>
</trkpt>
<trkpt lat="33.8103147" lon="-118.393868">
  <ele>-0.12</ele>
  <time>2026-09-02T22:06:40Z</time>
  <course>185.59</course>
  <speed>0.17029386365926402</speed>
  <fix>3d</fix>
</trkpt>
<trkpt lat="33.810313" lon="-118.3938663">
  <ele>-0.12</ele>
  <time>2026-09-02T22:06:40Z</time>
  <course>95.0</course>
  <speed>0.0</speed>
  <fix>3d</fix>
</trkpt>
<trkpt lat="33.8103147" lon="-118.393868">
  <ele>-0.12</ele>
  <time>2026-09-02T22:06:40Z</time>
  <course>185.59</course>
  <speed>0.17029386365926402</speed>
  <fix>3d</fix>
</trkpt>
<trkpt lat="33.810313" lon="-118.3938663">
  <ele>-0.12</ele>
  <time>2026-09-02T22:06:40Z</time>
  <course>95.0</course>
  <speed>0.0</speed>
  <fix>3d</fix>
</trkpt>
<trkpt lat="33.8103147" lon="-118.393868">
  <ele>-0.121</ele>
  <time>2026-09-02T22:06:40Z</time>
  <course>185.59</course>
  <speed>0.17029386365926402</speed>
  <fix>3d</fix>
</trkpt>
<trkpt lat="33.810313" lon="-118.3938663">
  <ele>-0.12</ele>
  <time>2026-09-02T22:06:40Z</time>
  <course>95.0</course>
  <speed>0.0</speed>
  <fix>3d</fix>
</trkpt>
<trkpt lat="33.8103147" lon="-118.393868">
  <ele>-0.122</ele>
  <time>2026-09-02T22:06:40Z</time>
  <course>185.59</course>
  <speed>0.17029386365926402</speed>
  <fix>3d</fix>
</trkpt>
<trkpt lat="33.810313" lon="-118.3938663">
  <ele>-0.12</ele>
  <time>2026-09-02T22:06:40Z</time>
  <course>95.0</course>
  <speed>0.0</speed>
  <fix>3d</fix>
</trkpt>
<trkpt lat="33.8103147" lon="-118.393868">
  <ele>-0.122</ele>
  <time>2026-09-02T22:06:40Z</time>
  <course>185.59</course>
  <speed>0.17804493814764857</speed>
  <fix>3d</fix>
</trkpt>
<trkpt lat="33.810313" lon="-118.3938663">
  <ele>-0.12</ele>
  <time>2026-09-02T22:06:40Z</time>
  <course>95.0</course>
  <speed>0.0</speed>
  <fix>3d</fix>
</trkpt>
<trkpt lat="33.8103148" lon="-118.3938681">
  <ele>-0.121</ele>
  <time>2026-09-02T22:06:40Z</time>
  <course>185.59</course>
  <speed>0.17804493814764857</speed>
  <fix>3d</fix>
</trkpt>
<trkpt lat="33.810313" lon="-118.3938663">
  <ele>-0.12</ele>
  <time>2026-09-02T22:06:40Z</time>
  <course>95.0</course>
  <speed>0.0</speed>
  <fix>3d</fix>
</trkpt>
<trkpt lat="33.8103149" lon="-118.3938682">
  <ele>-0.121</ele>
  <time>2026-09-02T22:06:40Z</time>
  <course>185.59</course>
  <speed>0.18439088914585774</speed>
  <fix>3d</fix>
</trkpt>
<trkpt lat="33.810313" lon="-118.3938663">
  <ele>-0.12</ele>
  <time>2026-09-02T22:06:40Z</time>
  <course>95.0</course>
  <speed>0.0</speed>
  <fix>3d</fix>
</trkpt>
<trkpt lat="33.810315" lon="-118.3938683">
  <ele>-0.122</ele>
  <time>2026-09-02T22:06:40Z</time>
  <course>185.59</course>
  <speed>0.18439088914585774</speed>
  <fix>3d</fix>
</trkpt>
<trkpt lat="33.810313" lon="-118.3938663">
  <ele>-0.12</ele>
  <time>2026-09-02T22:06:40Z</time>
  <course>95.0</course>
  <speed>0.0</speed>
  <fix>3d</fix>
</trkpt>
<trkpt lat="33.8103151" lon="-118.3938685">
  <ele>-0.122</ele>
  <time>2026-09-02T22:06:40Z</time>
  <course>185.59</course>
  <speed>0.19209372712298545</speed>
  <fix>3d</fix>
</trkpt>
<trkpt lat="33.810313" lon="-118.3938663">
  <ele>-0.12</ele>
  <time>2026-09-02T22:06:40Z</time>
  <course>95.0</course>
  <speed>0.0</speed>
  <fix>3d</fix>
</trkpt>
<trkpt lat="33.8103149" lon="-118.3938682">
  <ele>-0.122</ele>
  <time>2026-09-02T22:06:40Z</time>
  <course>185.59</course>
  <speed>0.18439088914585774</speed>
  <fix>3d</fix>
</trkpt>
<trkpt lat="33.810313" lon="-118.3938663">
  <ele>-0.12</ele>
  <time>2026-09-02T22:06:40Z</time>
  <course>95.0</course>
  <speed>0.0</speed>
  <fix>3d</fix>
</trkpt>
<trkpt lat="33.8103146" lon="-118.3938679">
  <ele>-0.123</ele>
  <time>2026-09-02T22:06:40Z</time>
  <course>185.59</course>
  <speed>0.17804493814764857</speed>
  <fix>3d</fix>
</trkpt>
<trkpt lat="33.810313" lon="-118.3938663">
  <ele>-0.12</ele>
  <time>2026-09-02T22:06:40Z</time>
  <course>95.0</course>
  <speed>0.0</speed>
  <fix>3d</fix>
</trkpt>
<trkpt lat="33.8103144" lon="-118.3938677">
  <ele>-0.122</ele>
  <time>2026-09-02T22:06:40Z</time>
  <course>185.59</course>
  <speed>0.17029386365926402</speed>
  <fix>3d</fix>
</trkpt>
<trkpt lat="33.810313" lon="-118.3938663">
  <ele>-0.12</ele>
  <time>2026-09-02T22:06:40Z</time>
  <course>95.0</course>
  <speed>0.0</speed>
  <fix>3d</fix>
</trkpt>
<trkpt lat="33.8103143" lon="-118.3938676">
  <ele>-0.122</ele>
  <time>2026-09-02T22:06:40Z</time>
  <course>185.59</course>
  <speed>0.17029386365926402</speed>
  <fix>3d</fix>
</trkpt>
<trkpt lat="33.810313" lon="-118.3938663">
  <ele>-0.12</ele>
  <time>2026-09-02T22:06:40Z</time>
  <course>95.0</course>
  <speed>0.0</speed>
  <fix>3d</fix>
</trkpt>
<trkpt lat="33.8103143" lon="-118.3938676">
  <ele>-0.122</ele>
  <time>2026-09-02T22:06:40Z</time>
  <course>185.59</course>
  <speed>0.17029386365926402</speed>
  <fix>3d</fix>
</trkpt>
<trkpt lat="33.810313" lon="-118.3938663">
  <ele>-0.12</ele>
  <time>2026-09-02T22:06:40Z</time>
  <course>95.0</course>
  <speed>0.0</speed>
  <fix>3d</fix>
</trkpt>
<trkpt lat="33.8103143" lon="-118.3938676">
  <ele>-0.123</ele>
  <time>2026-09-02T22:06:40Z</time>
  <course>185.59</course>
  <speed>0.17029386365926402</speed>
  <fix>3d</fix>
</trkpt>
<trkpt lat="33.810313" lon="-118.3938663">
  <ele>-0.12</ele>
  <time>2026-09-02T22:06:40Z</time>
  <course>95.0</course>
  <speed>0.0</speed>
  <fix>3d</fix>
</trkpt>
<trkpt lat="33.8103144" lon="-118.3938677">
  <ele>-0.122</ele>
  <time>2026-09-02T22:06:40Z</time>
  <course>185.59</course>
  <speed>0.17804493814764857</speed>
  <fix>3d</fix>
</trkpt>
<trkpt lat="33.810313" lon="-118.3938663">
  <ele>-0.12</ele>
  <time>2026-09-02T22:06:40Z</time>
  <course>95.0</course>
  <speed>0.0</speed>
  <fix>3d</fix>
</trkpt>
<trkpt lat="33.8103145" lon="-118.3938678">
  <ele>-0.123</ele>
  <time>2026-09-02T22:06:40Z</time>
  <course>185.59</course>
  <speed>0.17804493814764857</speed>
  <fix>3d</fix>
</trkpt>
<trkpt lat="33.810313" lon="-118.3938663">
  <ele>-0.12</ele>
  <time>2026-09-02T22:06:40Z</time>
  <course>95.0</course>
  <speed>0.0</speed>
  <fix>3d</fix>
</trkpt>
<trkpt lat="33.8103146" lon="-118.3938679">
  <ele>-0.123</ele>
  <time>2026-09-02T22:06:40Z</time>
  <course>185.59</course>
  <speed>0.18439088914585774</speed>
  <fix>3d</fix>
</trkpt>
<trkpt lat="33.810313" lon="-118.3938663">
  <ele>-0.12</ele>
  <time>2026-09-02T22:06:40Z</time>
  <course>95.0</course>
  <speed>0.0</speed>
  <fix>3d</fix>
</trkpt>
<trkpt lat="33.8103147" lon="-118.393868">
  <ele>-0.125</ele>
  <time>2026-09-02T22:06:40Z</time>
  <course>185.59</course>
  <speed>0.19209372712298545</speed>
  <fix>3d</fix>
</trkpt>
<trkpt lat="33.810313" lon="-118.3938663">
  <ele>-0.12</ele>
  <time>2026-09-02T22:06:40Z</time>
  <course>95.0</course>
  <speed>0.0</speed>
  <fix>3d</fix>
</trkpt>
<trkpt lat="33.8103144" lon="-118.3938678">
  <ele>-0.127</ele>
  <time>2026-09-02T22:06:40Z</time>
  <course>185.59</course>
  <speed>0.18439088914585774</speed>
  <fix>3d</fix>
</trkpt>
<trkpt lat="33.810313" lon="-118.3938663">
  <ele>-0.12</ele>
  <time>2026-09-02T22:06:40Z</time>
  <course>95.0</course>
  <speed>0.0</speed>
  <fix>3d</fix>
</trkpt>
<trkpt lat="33.8103141" lon="-118.3938674">
  <ele>-0.129</ele>
  <time>2026-09-02T22:06:40Z</time>
  <course>185.59</course>
  <speed>0.17804493814764857</speed>
  <fix>3d</fix>
</trkpt>
<trkpt lat="33.810313" lon="-118.3938663">
  <ele>-0.12</ele>
  <time>2026-09-02T22:06:40Z</time>
  <course>95.0</course>
  <speed>0.0</speed>
  <fix>3d</fix>
</trkpt>
<trkpt lat="33.8103139" lon="-118.3938672">
  <ele>-0.132</ele>
  <time>2026-09-02T22:06:40Z</time>
  <course>185.59</course>
  <speed>0.17029386365926402</speed>
  <fix>3d</fix>
</trkpt>
<trkpt lat="33.810313" lon="-118.3938663">
  <ele>-0.12</ele>
  <time>2026-09-02T22:06:40Z</time>
  <course>95.0</course>
  <speed>0.0</speed>
  <fix>3d</fix>
</trkpt>
<trkpt lat="33.8103138" lon="-118.3938671">
  <ele>-0.133</ele>
  <time>2026-09-02T22:06:40Z</time>
  <course>185.59</course>
  <speed>0.17029386365926402</speed>
  <fix>3d</fix>
</trkpt>
<trkpt lat="33.810313" lon="-118.3938663">
  <ele>-0.12</ele>
  <time>2026-09-02T22:06:40Z</time>
  <course>95.0</course>
  <speed>0.0</speed>
  <fix>3d</fix>
</trkpt>
<trkpt lat="33.8103138" lon="-118.3938671">
  <ele>-0.133</ele>
  <time>2026-09-02T22:06:40Z</time>
  <course>185.59</course>
  <speed>0.17029386365926402</speed>
  <fix>3d</fix>
</trkpt>
<trkpt lat="33.810313" lon="-118.3938663">
  <ele>-0.12</ele>
  <time>2026-09-02T22:06:40Z</time>
  <course>95.0</course>
  <speed>0.0</speed>
  <fix>3d</fix>
</trkpt>
<trkpt lat="33.8103138" lon="-118.3938671">
  <ele>-0.131</ele>
  <time>2026-09-02T22:06:40Z</time>
  <course>185.59</course>
  <speed>0.17029386365926402</speed>
  <fix>3d</fix>
</trkpt>
<trkpt lat="33.810313" lon="-118.3938663">
  <ele>-0.12</ele>
  <time>2026-09-02T22:06:40Z</time>
  <course>95.0</course>
  <speed>0.0</speed>
  <fix>3d</fix>
</trkpt>
<trkpt lat="33.8103139" lon="-118.3938672">
  <ele>-0.129</ele>
  <time>2026-09-02T22:06:40Z</time>
  <course>185.59</course>
  <speed>0.17804493814764857</speed>
  <fix>3d</fix>
</trkpt>
<trkpt lat="33.810313" lon="-118.3938663">
  <ele>-0.12</ele>
  <time>2026-09-02T22:06:40Z</time>
  <course>95.0</course>
  <speed>0.0</speed>
  <fix>3d</fix>
</trkpt>
<trkpt lat="33.810314" lon="-118.3938673">
  <ele>-0.128</ele>
  <time>2026-09-02T22:06:40Z</time>
  <course>185.59</course>
  <speed>0.17804493814764857</speed>
  <fix>3d</fix>
</trkpt>
<trkpt lat="33.810313" lon="-118.3938663">
  <ele>-0.12</ele>
  <time>2026-09-02T22:06:40Z</time>
  <course>95.0</course>
  <speed>0.0</speed>
  <fix>3d</fix>
</trkpt>
<trkpt lat="33.8103141" lon="-118.3938674">
  <ele>-0.127</ele>
  <time>2026-09-02T22:06:40Z</time>
  <course>185.59</course>
  <speed>0.18439088914585774</speed>
  <fix>3d</fix>
</trkpt>
<trkpt lat="33.810313" lon="-118.3938663">
  <ele>-0.12</ele>
  <time>2026-09-02T22:06:40Z</time>
  <course>95.0</course>
  <speed>0.0</speed>
  <fix>3d</fix>
</trkpt>
<trkpt lat="33.8103142" lon="-118.3938675">
  <ele>-0.127</ele>
  <time>2026-09-02T22:06:40Z</time>
  <course>185.59</course>
  <speed>0.18439088914585774</speed>
  <fix>3d</fix>
</trkpt>
<trkpt lat="33.810313" lon="-118.3938663">
  <ele>-0.12</ele>
  <time>2026-09-02T22:06:40Z</time>
  <course>95.0</course>
  <speed>0.0</speed>
  <fix>3d</fix>
</trkpt>
<trkpt lat="33.8103144" lon="-118.3938677">
  <ele>-0.127</ele>
  <time>2026-09-02T22:06:40Z</time>
  <course>185.59</course>
  <speed>0.19209372712298545</speed>
  <fix>3d</fix>
</trkpt>
<trkpt lat="33.810313" lon="-118.3938663">
  <ele>-0.12</ele>
  <time>2026-09-02T22:06:40Z</time>
  <course>95.0</course>
  <speed>0.0</speed>
  <fix>3d</fix>
</trkpt>
<trkpt lat="33.8103141" lon="-118.3938674">
  <ele>-0.126</ele>
  <time>2026-09-02T22:06:40Z</time>
  <course>185.59</course>
  <speed>0.18439088914585774</speed>
  <fix>3d</fix>
</trkpt>
<trkpt lat="33.810313" lon="-118.3938663">
  <ele>-0.12</ele>
  <time>2026-09-02T22:06:40Z</time>
  <course>95.0</course>
  <speed>0.0</speed>
  <fix>3d</fix>
</trkpt>
<trkpt lat="33.8103138" lon="-118.3938671">
  <ele>-0.127</ele>
  <time>2026-09-02T22:06:40Z</time>
  <course>185.59</course>
  <speed>0.17804493814764857</speed>
  <fix>3d</fix>
</trkpt>
<trkpt lat="33.810313" lon="-118.3938663">
  <ele>-0.12</ele>
  <time>2026-09-02T22:06:40Z</time>
  <course>95.0</course>
  <speed>0.0</speed>
  <fix>3d</fix>
</trkpt>
<trkpt lat="33.8103136" lon="-118.3938669">
  <ele>-0.127</ele>
  <time>2026-09-02T22:06:40Z</time>
  <course>185.59</course>
  <speed>0.17029386365926402</speed>
  <fix>3d</fix>
</trkpt>
<trkpt lat="33.810313" lon="-118.3938663">
  <ele>-0.12</ele>
  <time>2026-09-02T22:06:40Z</time>
  <course>95.0</course>
  <speed>0.0</speed>
  <fix>3d</fix>
</trkpt>
<trkpt lat="33.8103135" lon="-118.3938668">
  <ele>-0.127</ele>
  <time>2026-09-02T22:06:40Z</time>
  <course>185.59</course>
  <speed>0.17029386365926402</speed>
  <fix>3d</fix>
</trkpt>
<trkpt lat="33.810313" lon="-118.3938663">
  <ele>-0.12</ele>
  <time>2026-09-02T22:06:40Z</time>
  <course>95.0</course>
  <speed>0.0</speed>
  <fix>3d</fix>
</trkpt>
<trkpt lat="33.8103134" lon="-118.3938668">
  <ele>-0.126</ele>
  <time>2026-09-02T22:06:40Z</time>
  <course>185.59</course>
  <speed>0.17029386365926402</speed>
  <fix>3d</fix>
</trkpt>
<trkpt lat="33.810313" lon="-118.3938663">
  <ele>-0.12</ele>
  <time>2026-09-02T22:06:40Z</time>
  <course>95.0</course>
  <speed>0.0</speed>
  <fix>3d</fix>
</trkpt>
<trkpt lat="33.8103135" lon="-118.3938668">
  <ele>-0.126</ele>
  <time>2026-09-02T22:06:40Z</time>
  <course>185.59</course>
  <speed>0.17804493814764857</speed>
  <fix>3d</fix>
</trkpt>
<trkpt lat="33.810313" lon="-118.3938663">
  <ele>-0.12</ele>
  <time>2026-09-02T22:06:40Z</time>
  <course>95.0</course>
  <speed>0.0</speed>
  <fix>3d</fix>
</trkpt>
<trkpt lat="33.8103135" lon="-118.3938669">
  <ele>-0.126</ele>
  <time>2026-09-02T22:06:40Z</time>
  <course>185.59</course>
  <speed>0.17804493814764857</speed>
  <fix>3d</fix>
</trkpt>
<trkpt lat="33.810313" lon="-118.3938663">
  <ele>-0.12</ele>
  <time>2026-09-02T22:06:40Z</time>
  <course>95.0</course>
  <speed>0.0</speed>
  <fix>3d</fix>
</trkpt>
<trkpt lat="33.8103136" lon="-118.393867">
  <ele>-0.125</ele>
  <time>2026-09-02T22:06:40Z</time>
  <course>185.59</course>
  <speed>0.18439088914585774</speed>
  <fix>3d</fix>
</trkpt>
<trkpt lat="33.810313" lon="-118.3938663">
  <ele>-0.12</ele>
  <time>2026-09-02T22:06:40Z</time>
  <course>95.0</course>
  <speed>0.0</speed>
  <fix>3d</fix>
</trkpt>
<trkpt lat="33.8103137" lon="-118.3938671">
  <ele>-0.125</ele>
  <time>2026-09-02T22:06:40Z</time>
  <course>185.59</course>
  <speed>0.18439088914585774</speed>
  <fix>3d</fix>
</trkpt>
<trkpt lat="33.810313" lon="-118.3938663">
  <ele>-0.12</ele>
  <time>2026-09-02T22:06:40Z</time>
  <course>95.0</course>
  <speed>0.0</speed>
  <fix>3d</fix>
</trkpt>
<trkpt lat="33.8103139" lon="-118.3938672">
  <ele>-0.125</ele>
  <time>2026-09-02T22:06:40Z</time>
  <course>185.59</course>
  <speed>0.19209372712298545</speed>
  <fix>3d</fix>
</trkpt>
<trkpt lat="33.810313" lon="-118.3938663">
  <ele>-0.12</ele>
  <time>2026-09-02T22:06:40Z</time>
  <course>95.0</course>
  <speed>0.0</speed>
  <fix>3d</fix>
</trkpt>
<trkpt lat="33.810314" lon="-118.3938674">
  <ele>-0.125</ele>
  <time>2026-09-02T22:06:40Z</time>
  <course>185.59</course>
  <speed>0.19209372712298545</speed>
  <fix>3d</fix>
</trkpt>
<trkpt lat="33.810313" lon="-118.3938663">
  <ele>-0.12</ele>
  <time>2026-09-02T22:06:40Z</time>
  <course>95.0</course>
  <speed>0.0</speed>
  <fix>3d</fix>
</trkpt>
<trkpt lat="33.8103137" lon="-118.393867">
  <ele>-0.125</ele>
  <time>2026-09-02T22:06:40Z</time>
  <course>185.59</course>
  <speed>0.18439088914585774</speed>
  <fix>3d</fix>
</trkpt>
<trkpt lat="33.810313" lon="-118.3938663">
  <ele>-0.12</ele>
  <time>2026-09-02T22:06:40Z</time>
  <course>95.0</course>
  <speed>0.0</speed>
  <fix>3d</fix>
</trkpt>
<trkpt lat="33.8103134" lon="-118.3938667">
  <ele>-0.127</ele>
  <time>2026-09-02T22:06:40Z</time>
  <course>185.59</course>
  <speed>0.17804493814764857</speed>
  <fix>3d</fix>
</trkpt>
<trkpt lat="33.810313" lon="-118.3938663">
  <ele>-0.12</ele>
  <time>2026-09-02T22:06:40Z</time>
  <course>95.0</course>
  <speed>0.0</speed>
  <fix>3d</fix>
</trkpt>
<trkpt lat="33.8103132" lon="-118.3938665">
  <ele>-0.128</ele>
  <time>2026-09-02T22:06:40Z</time>
  <course>185.59</course>
  <speed>0.17804493814764857</speed>
  <fix>3d</fix>
</trkpt>
<trkpt lat="33.810313" lon="-118.3938663">
  <ele>-0.12</ele>
  <time>2026-09-02T22:06:40Z</time>
  <course>95.0</course>
  <speed>0.0</speed>
  <fix>3d</fix>
</trkpt>
<trkpt lat="33.8103131" lon="-118.3938664">
  <ele>-0.129</ele>
  <time>2026-09-02T22:06:40Z</time>
  <course>185.59</course>
  <speed>0.17804493814764857</speed>
  <fix>3d</fix>
</trkpt>
<trkpt lat="33.810313" lon="-118.3938663">
  <ele>-0.12</ele>
  <time>2026-09-02T22:06:40Z</time>
  <course>95.0</course>
  <speed>0.0</speed>
  <fix>3d</fix>
</trkpt>
<trkpt lat="33.8103131" lon="-118.3938664">
  <ele>-0.129</ele>
  <time>2026-09-02T22:06:40Z</time>
  <course>185.59</course>
  <speed>0.17804493814764857</speed>
  <fix>3d</fix>
</trkpt>
<trkpt lat="33.810313" lon="-118.3938663">
  <ele>-0.12</ele>
  <time>2026-09-02T22:06:40Z</time>
  <course>95.0</course>
  <speed>0.0</speed>
  <fix>3d</fix>
</trkpt>
<trkpt lat="33.8103131" lon="-118.3938665">
  <ele>-0.13</ele>
  <time>2026-09-02T22:06:40Z</time>
  <course>185.59</course>
  <speed>0.17804493814764857</speed>
  <fix>3d</fix>
</trkpt>
<trkpt lat="33.810313" lon="-118.3938663">
  <ele>-0.12</ele>
  <time>2026-09-02T22:06:40Z</time>
  <course>95.0</course>
  <speed>0.0</speed>
  <fix>3d</fix>
</trkpt>
<trkpt lat="33.8103132" lon="-118.3938665">
  <ele>-0.13</ele>
  <time>2026-09-02T22:06:40Z</time>
  <course>185.59</course>
  <speed>0.17804493814764857</speed>
  <fix>3d</fix>
</trkpt>
<trkpt lat="33.810313" lon="-118.3938663">
  <ele>-0.12</ele>
  <time>2026-09-02T22:06:40Z</time>
  <course>95.0</course>
  <speed>0.0</speed>
  <fix>3d</fix>
</trkpt>
<trkpt lat="33.8103133" lon="-118.3938666">
  <ele>-0.13</ele>
  <time>2026-09-02T22:06:40Z</time>
  <course>185.59</course>
  <speed>0.18439088914585774</speed>
  <fix>3d</fix>
</trkpt>
<trkpt lat="33.810313" lon="-118.3938663">
  <ele>-0.12</ele>
  <time>2026-09-02T22:06:40Z</time>
  <course>95.0</course>
  <speed>0.0</speed>
  <fix>3d</fix>
</trkpt>
<trkpt lat="33.8103134" lon="-118.3938668">
  <ele>-0.131</ele>
  <time>2026-09-02T22:06:40Z</time>
  <course>185.59</course>
  <speed>0.19209372712298545</speed>
  <fix>3d</fix>
</trkpt>
<trkpt lat="33.810313" lon="-118.3938663">
  <ele>-0.12</ele>
  <time>2026-09-02T22:06:40Z</time>
  <course>95.0</course>
  <speed>0.0</speed>
  <fix>3d</fix>
</trkpt>
<trkpt lat="33.8103136" lon="-118.3938669">
  <ele>-0.131</ele>
  <time>2026-09-02T22:06:40Z</time>
  <course>185.59</course>
  <speed>0.19209372712298545</speed>
  <fix>3d</fix>
</trkpt>
<trkpt lat="33.810313" lon="-118.3938663">
  <ele>-0.12</ele>
  <time>2026-09-02T22:06:40Z</time>
  <course>95.0</course>
  <speed>0.0</speed>
  <fix>3d</fix>
</trkpt>
<trkpt lat="33.8103132" lon="-118.3938666">
  <ele>-0.132</ele>
  <time>2026-09-02T22:06:40Z</time>
  <course>185.59</course>
  <speed>0.18439088914585774</speed>
  <fix>3d</fix>
</trkpt>
<trkpt lat="33.810313" lon="-118.3938663">
  <ele>-0.12</ele>
  <time>2026-09-02T22:06:40Z</time>
  <course>95.0</course>
  <speed>0.0</speed>
  <fix>3d</fix>
</trkpt>
<trkpt lat="33.8103129" lon="-118.3938663">
  <ele>-0.133</ele>
  <time>2026-09-02T22:06:40Z</time>
  <course>185.59</course>
  <speed>0.17804493814764857</speed>
  <fix>3d</fix>
</trkpt>
<trkpt lat="33.810313" lon="-118.3938663">
  <ele>-0.12</ele>
  <time>2026-09-02T22:06:40Z</time>
  <course>95.0</course>
  <speed>0.0</speed>
  <fix>3d</fix>
</trkpt>
<trkpt lat="33.8103128" lon="-118.3938661">
  <ele>-0.134</ele>
  <time>2026-09-02T22:06:40Z</time>
  <course>185.59</course>
  <speed>0.17804493814764857</speed>
  <fix>3d</fix>
</trkpt>
<trkpt lat="33.810313" lon="-118.3938663">
  <ele>-0.12</ele>
  <time>2026-09-02T22:06:40Z</time>
  <course>95.0</course>
  <speed>0.0</speed>
  <fix>3d</fix>
</trkpt>
<trkpt lat="33.8103127" lon="-118.393866">
  <ele>-0.134</ele>
  <time>2026-09-02T22:06:40Z</time>
  <course>185.59</course>
  <speed>0.17029386365926402</speed>
  <fix>3d</fix>
</trkpt>
<trkpt lat="33.810313" lon="-118.3938663">
  <ele>-0.12</ele>
  <time>2026-09-02T22:06:40Z</time>
  <course>95.0</course>
  <speed>0.0</speed>
  <fix>3d</fix>
</trkpt>
<trkpt lat="33.8103127" lon="-118.393866">
  <ele>-0.134</ele>
  <time>2026-09-02T22:06:40Z</time>
  <course>185.59</course>
  <speed>0.17029386365926402</speed>
  <fix>3d</fix>
</trkpt>
<trkpt lat="33.810313" lon="-118.3938663">
  <ele>-0.12</ele>
  <time>2026-09-02T22:06:40Z</time>
  <course>95.0</course>
  <speed>0.0</speed>
  <fix>3d</fix>
</trkpt>
<trkpt lat="33.8103127" lon="-118.393866">
  <ele>-0.132</ele>
  <time>2026-09-02T22:06:40Z</time>
  <course>185.59</course>
  <speed>0.17804493814764857</speed>
  <fix>3d</fix>
</trkpt>
<trkpt lat="33.810313" lon="-118.3938663">
  <ele>-0.12</ele>
  <time>2026-09-02T22:06:40Z</time>
  <course>95.0</course>
  <speed>0.0</speed>
  <fix>3d</fix>
</trkpt>
<trkpt lat="33.8103128" lon="-118.3938661">
  <ele>-0.129</ele>
  <time>2026-09-02T22:06:40Z</time>
  <course>185.59</course>
  <speed>0.17804493814764857</speed>
  <fix>3d</fix>
</trkpt>
<trkpt lat="33.810313" lon="-118.3938663">
  <ele>-0.12</ele>
  <time>2026-09-02T22:06:40Z</time>
  <course>95.0</course>
  <speed>0.0</speed>
  <fix>3d</fix>
</trkpt>
<trkpt lat="33.8103129" lon="-118.3938662">
  <ele>-0.127</ele>
  <time>2026-09-02T22:06:41Z</time>
  <course>185.59</course>
  <speed>0.18439088914585774</speed>
  <fix>3d</fix>
</trkpt>
<trkpt lat="33.810313" lon="-118.3938663">
  <ele>-0.12</ele>
  <time>2026-09-02T22:06:41Z</time>
  <course>95.0</course>
  <speed>0.0</speed>
  <fix>3d</fix>
</trkpt>
<trkpt lat="33.810313" lon="-118.3938663">
  <ele>-0.127</ele>
  <time>2026-09-02T22:06:41Z</time>
  <course>185.59</course>
  <speed>0.18439088914585774</speed>
  <fix>3d</fix>
</trkpt>
<trkpt lat="33.810313" lon="-118.3938663">
  <ele>-0.12</ele>
  <time>2026-09-02T22:06:41Z</time>
  <course>95.0</course>
  <speed>0.0</speed>
  <fix>3d</fix>
</trkpt>
<trkpt lat="33.8103131" lon="-118.3938665">
  <ele>-0.126</ele>
  <time>2026-09-02T22:06:41Z</time>
  <course>185.59</course>
  <speed>0.19209372712298545</speed>
  <fix>3d</fix>
</trkpt>
<trkpt lat="33.810313" lon="-118.3938663">
  <ele>-0.12</ele>
  <time>2026-09-02T22:06:41Z</time>
  <course>95.0</course>
  <speed>0.0</speed>
  <fix>3d</fix>
</trkpt>
<trkpt lat="33.8103129" lon="-118.3938662">
  <ele>-0.126</ele>
  <time>2026-09-02T22:06:41Z</time>
  <course>185.59</course>
  <speed>0.18439088914585774</speed>
  <fix>3d</fix>
</trkpt>
<trkpt lat="33.810313" lon="-118.3938663">
  <ele>-0.12</ele>
  <time>2026-09-02T22:06:41Z</time>
  <course>95.0</course>
  <speed>0.0</speed>
  <fix>3d</fix>
</trkpt>
<trkpt lat="33.8103126" lon="-118.3938659">
  <ele>-0.127</ele>
  <time>2026-09-02T22:06:41Z</time>
  <course>185.59</course>
  <speed>0.17804493814764857</speed>
  <fix>3d</fix>
</trkpt>
<trkpt lat="33.810313" lon="-118.3938663">
  <ele>-0.12</ele>
  <time>2026-09-02T22:06:41Z</time>
  <course>95.0</course>
  <speed>0.0</speed>
  <fix>3d</fix>
</trkpt>
<trkpt lat="33.8103124" lon="-118.3938658">
  <ele>-0.126</ele>
  <time>2026-09-02T22:06:41Z</time>
  <course>185.59</course>
  <speed>0.17804493814764857</speed>
  <fix>3d</fix>
</trkpt>
<trkpt lat="33.810313" lon="-118.3938663">
  <ele>-0.12</ele>
  <time>2026-09-02T22:06:41Z</time>
  <course>95.0</course>
  <speed>0.0</speed>
  <fix>3d</fix>
</trkpt>
<trkpt lat="33.8103123" lon="-118.3938657">
  <ele>-0.126</ele>
  <time>2026-09-02T22:06:41Z</time>
  <course>185.59</course>
  <speed>0.17029386365926402</speed>
  <fix>3d</fix>
</trkpt>
<trkpt lat="33.810313" lon="-118.3938663">
  <ele>-0.12</ele>
  <time>2026-09-02T22:06:41Z</time>
  <course>95.0</course>
  <speed>0.0</speed>
  <fix>3d</fix>
</trkpt>
<trkpt lat="33.8103123" lon="-118.3938657">
  <ele>-0.126</ele>
  <time>2026-09-02T22:06:41Z</time>
  <course>185.59</course>
  <speed>0.17029386365926402</speed>
  <fix>3d</fix>
</trkpt>
<trkpt lat="33.810313" lon="-118.3938663">
  <ele>-0.12</ele>
  <time>2026-09-02T22:06:41Z</time>
  <course>95.0</course>
  <speed>0.0</speed>
  <fix>3d</fix>
</trkpt>
<trkpt lat="33.8103124" lon="-118.3938657">
  <ele>-0.127</ele>
  <time>2026-09-02T22:06:41Z</time>
  <course>185.59</course>
  <speed>0.17804493814764857</speed>
  <fix>3d</fix>
</trkpt>
<trkpt lat="33.810313" lon="-118.3938663">
  <ele>-0.12</ele>
  <time>2026-09-02T22:06:41Z</time>
  <course>95.0</course>
  <speed>0.0</speed>
  <fix>3d</fix>
</trkpt>
<trkpt lat="33.8103124" lon="-118.3938658">
  <ele>-0.128</ele>
  <time>2026-09-02T22:06:41Z</time>
  <course>185.59</course>
  <speed>0.17804493814764857</speed>
  <fix>3d</fix>
</trkpt>
<trkpt lat="33.810313" lon="-118.3938663">
  <ele>-0.12</ele>
  <time>2026-09-02T22:06:41Z</time>
  <course>95.0</course>
  <speed>0.0</speed>
  <fix>3d</fix>
</trkpt>
<trkpt lat="33.8103125" lon="-118.3938659">
  <ele>-0.129</ele>
  <time>2026-09-02T22:06:41Z</time>
  <course>185.59</course>
  <speed>0.18439088914585774</speed>
  <fix>3d</fix>
</trkpt>
<trkpt lat="33.810313" lon="-118.3938663">
  <ele>-0.12</ele>
  <time>2026-09-02T22:06:41Z</time>
  <course>95.0</course>
  <speed>0.0</speed>
  <fix>3d</fix>
</trkpt>
<trkpt lat="33.8103126" lon="-118.393866">
  <ele>-0.13</ele>
  <time>2026-09-02T22:06:41Z</time>
  <course>185.59</course>
  <speed>0.18439088914585774</speed>
  <fix>3d</fix>
</trkpt>
<trkpt lat="33.810313" lon="-118.3938663">
  <ele>-0.12</ele>
  <time>2026-09-02T22:06:41Z</time>
  <course>95.0</course>
  <speed>0.0</speed>
  <fix>3d</fix>
</trkpt>
<trkpt lat="33.8103128" lon="-118.3938661">
  <ele>-0.131</ele>
  <time>2026-09-02T22:06:41Z</time>
  <course>185.59</course>
  <speed>0.19209372712298545</speed>
  <fix>3d</fix>
</trkpt>
<trkpt lat="33.810313" lon="-118.3938663">
  <ele>-0.12</ele>
  <time>2026-09-02T22:06:41Z</time>
  <course>95.0</course>
  <speed>0.0</speed>
  <fix>3d</fix>
</trkpt>
<trkpt lat="33.8103126" lon="-118.3938659">
  <ele>-0.132</ele>
  <time>2026-09-02T22:06:41Z</time>
  <course>185.59</course>
  <speed>0.18439088914585774</speed>
  <fix>3d</fix>
</trkpt>
<trkpt lat="33.810313" lon="-118.3938663">
  <ele>-0.12</ele>
  <time>2026-09-02T22:06:41Z</time>
  <course>95.0</course>
  <speed>0.0</speed>
  <fix>3d</fix>
</trkpt>
<trkpt lat="33.8103123" lon="-118.3938656">
  <ele>-0.132</ele>
  <time>2026-09-02T22:06:41Z</time>
  <course>185.59</course>
  <speed>0.17804493814764857</speed>
  <fix>3d</fix>
</trkpt>
<trkpt lat="33.810313" lon="-118.3938663">
  <ele>-0.12</ele>
  <time>2026-09-02T22:06:41Z</time>
  <course>95.0</course>
  <speed>0.0</speed>
  <fix>3d</fix>
</trkpt>
<trkpt lat="33.8103121" lon="-118.3938654">
  <ele>-0.132</ele>
  <time>2026-09-02T22:06:41Z</time>
  <course>185.59</course>
  <speed>0.17804493814764857</speed>
  <fix>3d</fix>
</trkpt>
<trkpt lat="33.810313" lon="-118.3938663">
  <ele>-0.12</ele>
  <time>2026-09-02T22:06:41Z</time>
  <course>95.0</course>
  <speed>0.0</speed>
  <fix>3d</fix>
</trkpt>
<trkpt lat="33.810312" lon="-118.3938654">
  <ele>-0.132</ele>
  <time>2026-09-02T22:06:41Z</time>
  <course>185.59</course>
  <speed>0.17029386365926402</speed>
  <fix>3d</fix>
</trkpt>
<trkpt lat="33.810313" lon="-118.3938663">
  <ele>-0.12</ele>
  <time>2026-09-02T22:06:41Z</time>
  <course>95.0</course>
  <speed>0.0</speed>
  <fix>3d</fix>
</trkpt>
<trkpt lat="33.810312" lon="-118.3938654">
  <ele>-0.132</ele>
  <time>2026-09-02T22:06:41Z</time>
  <course>185.59</course>
  <speed>0.17029386365926402</speed>
  <fix>3d</fix>
</trkpt>
<trkpt lat="33.810313" lon="-118.3938663">
  <ele>-0.12</ele>
  <time>2026-09-02T22:06:41Z</time>
  <course>95.0</course>
  <speed>0.0</speed>
  <fix>3d</fix>
</trkpt>
<trkpt lat="33.8103121" lon="-118.3938654">
  <ele>-0.132</ele>
  <time>2026-09-02T22:06:41Z</time>
  <course>185.59</course>
  <speed>0.17804493814764857</speed>
  <fix>3d</fix>
</trkpt>
<trkpt lat="33.810313" lon="-118.3938663">
  <ele>-0.12</ele>
  <time>2026-09-02T22:06:41Z</time>
  <course>95.0</course>
  <speed>0.0</speed>
  <fix>3d</fix>
</trkpt>
<trkpt lat="33.8103121" lon="-118.3938655">
  <ele>-0.132</ele>
  <time>2026-09-02T22:06:41Z</time>
  <course>185.59</course>
  <speed>0.17804493814764857</speed>
  <fix>3d</fix>
</trkpt>
<trkpt lat="33.810313" lon="-118.3938663">
  <ele>-0.12</ele>
  <time>2026-09-02T22:06:41Z</time>
  <course>95.0</course>
  <speed>0.0</speed>
  <fix>3d</fix>
</trkpt>
<trkpt lat="33.810313" lon="-118.3938663">
  <ele>-0.132</ele>
  <time>2026-09-02T22:06:41Z</time>
  <course>185.59</course>
  <speed>0.15620499351813308</speed>
  <fix>3d</fix>
</trkpt>
<trkpt lat="33.810313" lon="-118.3938663">
  <ele>-0.12</ele>
  <time>2026-09-02T22:06:41Z</time>
  <course>95.0</course>
  <speed>0.0</speed>
  <fix>3d</fix>
</trkpt>
<trkpt lat="33.810313" lon="-118.3938663">
  <ele>-0.133</ele>
  <time>2026-09-02T22:06:41Z</time>
  <course>185.59</course>
  <speed>0.14212670403551894</speed>
  <fix>3d</fix>
</trkpt>
<trkpt lat="33.810313" lon="-118.3938663">
  <ele>-0.12</ele>
  <time>2026-09-02T22:06:41Z</time>
  <course>95.0</course>
  <speed>0.0</speed>
  <fix>3d</fix>
</trkpt>
<trkpt lat="33.810313" lon="-118.3938663">
  <ele>-0.133</ele>
  <time>2026-09-02T22:06:41Z</time>
  <course>185.59</course>
  <speed>0.11401754250991379</speed>
  <fix>3d</fix>
</trkpt>
<trkpt lat="33.810313" lon="-118.3938663">
  <ele>-0.12</ele>
  <time>2026-09-02T22:06:41Z</time>
  <course>95.0</course>
  <speed>0.0</speed>
  <fix>3d</fix>
</trkpt>
<trkpt lat="33.810313" lon="-118.3938663">
  <ele>-0.132</ele>
  <time>2026-09-02T22:06:41Z</time>
  <course>185.59</course>
  <speed>0.09219544457292887</speed>
  <fix>3d</fix>
</trkpt>
<trkpt lat="33.810313" lon="-118.3938663">
  <ele>-0.12</ele>
  <time>2026-09-02T22:06:41Z</time>
  <course>95.0</course>
  <speed>0.0</speed>
  <fix>3d</fix>
</trkpt>
<trkpt lat="33.810313" lon="-118.3938663">
  <ele>-0.13</ele>
  <time>2026-09-02T22:06:41Z</time>
  <course>185.59</course>
  <speed>0.07810249675906654</speed>
  <fix>3d</fix>
</trkpt>
<trkpt lat="33.810313" lon="-118.3938663">
  <ele>-0.12</ele>
  <time>2026-09-02T22:06:41Z</time>
  <course>95.0</course>
  <speed>0.0</speed>
  <fix>3d</fix>
</trkpt>
<trkpt lat="33.810313" lon="-118.3938663">
  <ele>-0.128</ele>
  <time>2026-09-02T22:06:41Z</time>
  <course>185.59</course>
  <speed>0.06403124237432849</speed>
  <fix>3d</fix>
</trkpt>
<trkpt lat="33.810313" lon="-118.3938663">
  <ele>-0.12</ele>
  <time>2026-09-02T22:06:41Z</time>
  <course>95.0</course>
  <speed>0.0</speed>
  <fix>3d</fix>
</trkpt>
<trkpt lat="33.810313" lon="-118.3938663">
  <ele>-0.127</ele>
  <time>2026-09-02T22:06:41Z</time>
  <course>185.59</course>
  <speed>0.05</speed>
  <fix>3d</fix>
</trkpt>
<trkpt lat="33.810313" lon="-118.3938663">
  <ele>-0.12</ele>
  <time>2026-09-02T22:06:41Z</time>
  <course>95.0</course>
  <speed>0.0</speed>
  <fix>3d</fix>
</trkpt>
<trkpt lat="33.8103129" lon="-118.3938662">
  <ele>-0.125</ele>
  <time>2026-09-02T22:06:41Z</time>
  <course>185.59</course>
  <speed>0.05</speed>
  <fix>3d</fix>
</trkpt>
<trkpt lat="33.810313" lon="-118.3938663">
  <ele>-0.12</ele>
  <time>2026-09-02T22:06:41Z</time>
  <course>95.0</course>
  <speed>0.0</speed>
  <fix>3d</fix>
</trkpt>
<trkpt lat="33.8103129" lon="-118.3938662">
  <ele>-0.124</ele>
  <time>2026-09-02T22:06:41Z</time>
  <course>185.59</course>
  <speed>0.03605551275463989</speed>
  <fix>3d</fix>
</trkpt>
<trkpt lat="33.810313" lon="-118.3938663">
  <ele>-0.12</ele>
  <time>2026-09-02T22:06:41Z</time>
  <course>95.0</course>
  <speed>0.0</speed>
  <fix>3d</fix>
</trkpt>
<trkpt lat="33.8103129" lon="-118.3938662">
  <ele>-0.125</ele>
  <time>2026-09-02T22:06:41Z</time>
  <course>185.59</course>
  <speed>0.03605551275463989</speed>
  <fix>3d</fix>
</trkpt>
<trkpt lat="33.810313" lon="-118.3938663">
  <ele>-0.12</ele>
  <time>2026-09-02T22:06:41Z</time>
  <course>95.0</course>
  <speed>0.0</speed>
  <fix>3d</fix>
</trkpt>
<trkpt lat="33.8103129" lon="-118.3938662">
  <ele>-0.124</ele>
  <time>2026-09-02T22:06:41Z</time>
  <course>185.59</course>
  <speed>0.0282842712474619</speed>
  <fix>3d</fix>
</trkpt>
<trkpt lat="33.810313" lon="-118.3938663">
  <ele>-0.12</ele>
  <time>2026-09-02T22:06:41Z</time>
  <course>95.0</course>
  <speed>0.0</speed>
  <fix>3d</fix>
</trkpt>
<trkpt lat="33.8103129" lon="-118.3938662">
  <ele>-0.124</ele>
  <time>2026-09-02T22:06:41Z</time>
  <course>185.59</course>
  <speed>0.0282842712474619</speed>
  <fix>3d</fix>
</trkpt>
<trkpt lat="33.810313" lon="-118.3938663">
  <ele>-0.12</ele>
  <time>2026-09-02T22:06:41Z</time>
  <course>95.0</course>
  <speed>0.0</speed>
  <fix>3d</fix>
</trkpt>
<trkpt lat="33.8103129" lon="-118.3938662">
  <ele>-0.137</ele>
  <time>2026-09-02T22:06:41Z</time>
  <course>185.59</course>
  <speed>0.022360679774997897</speed>
  <fix>3d</fix>
</trkpt>
<trkpt lat="33.810313" lon="-118.3938663">
  <ele>-0.12</ele>
  <time>2026-09-02T22:06:41Z</time>
  <course>95.0</course>
  <speed>0.0</speed>
  <fix>3d</fix>
</trkpt>
<trkpt lat="33.8103129" lon="-118.3938662">
  <ele>-0.218</ele>
  <time>2026-09-02T22:06:41Z</time>
  <course>185.59</course>
  <speed>0.01414213562373095</speed>
  <fix>3d</fix>
</trkpt>
<trkpt lat="33.810313" lon="-118.3938663">
  <ele>-0.12</ele>
  <time>2026-09-02T22:06:41Z</time>
  <course>95.0</course>
  <speed>0.0</speed>
  <fix>3d</fix>
</trkpt>
<trkpt lat="33.8103129" lon="-118.3938662">
  <ele>-0.332</ele>
  <time>2026-09-02T22:06:41Z</time>
  <course>185.59</course>
  <speed>0.01414213562373095</speed>
  <fix>3d</fix>
</trkpt>
<trkpt lat="33.810313" lon="-118.3938663">
  <ele>-0.17</ele>
  <time>2026-09-02T22:06:41Z</time>
  <course>95.0</course>
  <speed>0.0</speed>
  <fix>3d</fix>
</trkpt>
<trkpt lat="33.8103129" lon="-118.3938662">
  <ele>-0.458</ele>
  <time>2026-09-02T22:06:41Z</time>
  <course>185.59</course>
  <speed>0.01414213562373095</speed>
  <fix>3d</fix>
</trkpt>
<trkpt lat="33.810313" lon="-118.3938663">
  <ele>-0.17</ele>
  <time>2026-09-02T22:06:41Z</time>
  <course>95.0</course>
  <speed>0.0</speed>
  <fix>3d</fix>
</trkpt>
<trkpt lat="33.8103129" lon="-118.3938662">
  <ele>-0.588</ele>
  <time>2026-09-02T22:06:41Z</time>
  <course>185.59</course>
  <speed>0.01414213562373095</speed>
  <fix>3d</fix>
</trkpt>
<trkpt lat="33.810313" lon="-118.3938663">
  <ele>-0.35</ele>
  <time>2026-09-02T22:06:41Z</time>
  <course>94.99</course>
  <speed>0.0</speed>
  <fix>3d</fix>
</trkpt>
<trkpt lat="33.8103129" lon="-118.3938662">
  <ele>-0.691</ele>
  <time>2026-09-02T22:06:41Z</time>
  <course>185.59</course>
  <speed>0.01414213562373095</speed>
  <fix>3d</fix>
</trkpt>
<trkpt lat="33.810313" lon="-118.3938663">
  <ele>-0.35</ele>
  <time>2026-09-02T22:06:41Z</time>
  <course>94.99</course>
  <speed>0.0</speed>
  <fix>3d</fix>
</trkpt>
<trkpt lat="33.810313" lon="-118.3938663">
  <ele>-0.759</ele>
  <time>2026-09-02T22:06:41Z</time>
  <course>185.59</course>
  <speed>0.01414213562373095</speed>
  <fix>3d</fix>
</trkpt>
<trkpt lat="33.810313" lon="-118.3938663">
  <ele>-0.57</ele>
  <time>2026-09-02T22:06:41Z</time>
  <course>95.0</course>
  <speed>0.0</speed>
  <fix>3d</fix>
</trkpt>
<trkpt lat="33.810313" lon="-118.3938663">
  <ele>-0.809</ele>
  <time>2026-09-02T22:06:41Z</time>
  <course>185.59</course>
  <speed>0.01414213562373095</speed>
  <fix>3d</fix>
</trkpt>
<trkpt lat="33.810313" lon="-118.3938663">
  <ele>-0.57</ele>
  <time>2026-09-02T22:06:41Z</time>
  <course>95.0</course>
  <speed>0.0</speed>
  <fix>3d</fix>
</trkpt>
<trkpt lat="33.810313" lon="-118.3938663">
  <ele>-0.849</ele>
  <time>2026-09-02T22:06:41Z</time>
  <course>185.59</course>
  <speed>0.01414213562373095</speed>
  <fix>3d</fix>
</trkpt>
<trkpt lat="33.810313" lon="-118.3938663">
  <ele>-0.72</ele>
  <time>2026-09-02T22:06:41Z</time>
  <course>95.0</course>
  <speed>0.0</speed>
  <fix>3d</fix>
</trkpt>
<trkpt lat="33.810313" lon="-118.3938663">
  <ele>-0.882</ele>
  <time>2026-09-02T22:06:41Z</time>
  <course>185.6</course>
  <speed>0.01414213562373095</speed>
  <fix>3d</fix>
</trkpt>
<trkpt lat="33.810313" lon="-118.3938663">
  <ele>-0.72</ele>
  <time>2026-09-02T22:06:41Z</time>
  <course>95.0</course>
  <speed>0.0</speed>
  <fix>3d</fix>
</trkpt>
<trkpt lat="33.810313" lon="-118.3938663">
  <ele>-0.908</ele>
  <time>2026-09-02T22:06:41Z</time>
  <course>185.6</course>
  <speed>0.01414213562373095</speed>
  <fix>3d</fix>
</trkpt>
<trkpt lat="33.810313" lon="-118.3938663">
  <ele>-0.79</ele>
  <time>2026-09-02T22:06:41Z</time>
  <course>95.0</course>
  <speed>0.0</speed>
  <fix>3d</fix>
</trkpt>
<trkpt lat="33.810313" lon="-118.3938663">
  <ele>-0.929</ele>
  <time>2026-09-02T22:06:41Z</time>
  <course>185.6</course>
  <speed>0.01414213562373095</speed>
  <fix>3d</fix>
</trkpt>
<trkpt lat="33.810313" lon="-118.3938663">
  <ele>-0.79</ele>
  <time>2026-09-02T22:06:41Z</time>
  <course>95.0</course>
  <speed>0.0</speed>
  <fix>3d</fix>
</trkpt>
<trkpt lat="33.810313" lon="-118.3938663">
  <ele>-0.946</ele>
  <time>2026-09-02T22:06:41Z</time>
  <course>185.6</course>
  <speed>0.01414213562373095</speed>
  <fix>3d</fix>
</trkpt>
<trkpt lat="33.810313" lon="-118.3938663">
  <ele>-0.84</ele>
  <time>2026-09-02T22:06:41Z</time>
  <course>95.0</course>
  <speed>0.0</speed>
  <fix>3d</fix>
</trkpt>
<trkpt lat="33.810313" lon="-118.3938663">
  <ele>-0.96</ele>
  <time>2026-09-02T22:06:41Z</time>
  <course>185.6</course>
  <speed>0.022360679774997897</speed>
  <fix>3d</fix>
</trkpt>
<trkpt lat="33.810313" lon="-118.3938663">
  <ele>-0.84</ele>
  <time>2026-09-02T22:06:41Z</time>
  <course>95.0</course>
  <speed>0.0</speed>
  <fix>3d</fix>
</trkpt>
<trkpt lat="33.810313" lon="-118.3938663">
  <ele>-0.97</ele>
  <time>2026-09-02T22:06:41Z</time>
  <course>185.6</course>
  <speed>0.022360679774997897</speed>
  <fix>3d</fix>
</trkpt>
<trkpt lat="33.810313" lon="-118.3938663">
  <ele>-0.87</ele>
  <time>2026-09-02T22:06:41Z</time>
  <course>95.0</course>
  <speed>0.0</speed>
  <fix>3d</fix>
</trkpt>
<trkpt lat="33.810313" lon="-118.3938663">
  <ele>-0.979</ele>
  <time>2026-09-02T22:06:41Z</time>
  <course>185.6</course>
  <speed>0.022360679774997897</speed>
  <fix>3d</fix>
</trkpt>
<trkpt lat="33.810313" lon="-118.3938663">
  <ele>-0.87</ele>
  <time>2026-09-02T22:06:41Z</time>
  <course>95.0</course>
  <speed>0.0</speed>
  <fix>3d</fix>
</trkpt>
<trkpt lat="33.8103131" lon="-118.3938664">
  <ele>-0.986</ele>
  <time>2026-09-02T22:06:41Z</time>
  <course>185.6</course>
  <speed>0.022360679774997897</speed>
  <fix>3d</fix>
</trkpt>
<trkpt lat="33.810313" lon="-118.3938663">
  <ele>-0.9</ele>
  <time>2026-09-02T22:06:41Z</time>
  <course>95.0</course>
  <speed>0.0</speed>
  <fix>3d</fix>
</trkpt>
<trkpt lat="33.8103131" lon="-118.3938664">
  <ele>-0.991</ele>
  <time>2026-09-02T22:06:41Z</time>
  <course>185.6</course>
  <speed>0.022360679774997897</speed>
  <fix>3d</fix>
</trkpt>
<trkpt lat="33.810313" lon="-118.3938663">
  <ele>-0.9</ele>
  <time>2026-09-02T22:06:41Z</time>
  <course>95.0</course>
  <speed>0.0</speed>
  <fix>3d</fix>
</trkpt>
<trkpt lat="33.8103131" lon="-118.3938664">
  <ele>-0.995</ele>
  <time>2026-09-02T22:06:41Z</time>
  <course>185.6</course>
  <speed>0.022360679774997897</speed>
  <fix>3d</fix>
</trkpt>
<trkpt lat="33.810313" lon="-118.3938663">
  <ele>-0.92</ele>
  <time>2026-09-02T22:06:41Z</time>
  <course>95.0</course>
  <speed>0.0</speed>
  <fix>3d</fix>
</trkpt>
<trkpt lat="33.8103131" lon="-118.3938664">
  <ele>-1.0</ele>
  <time>2026-09-02T22:06:41Z</time>
  <course>185.6</course>
  <speed>0.022360679774997897</speed>
  <fix>3d</fix>
</trkpt>
<trkpt lat="33.810313" lon="-118.3938663">
  <ele>-0.92</ele>
  <time>2026-09-02T22:06:41Z</time>
  <course>95.0</course>
  <speed>0.0</speed>
  <fix>3d</fix>
</trkpt>
<trkpt lat="33.8103131" lon="-118.3938664">
  <ele>-1.002</ele>
  <time>2026-09-02T22:06:41Z</time>
  <course>185.6</course>
  <speed>0.022360679774997897</speed>
  <fix>3d</fix>
</trkpt>
<trkpt lat="33.810313" lon="-118.3938663">
  <ele>-0.93</ele>
  <time>2026-09-02T22:06:41Z</time>
  <course>95.0</course>
  <speed>0.0</speed>
  <fix>3d</fix>
</trkpt>
<trkpt lat="33.8103131" lon="-118.3938664">
  <ele>-1.004</ele>
  <time>2026-09-02T22:06:41Z</time>
  <course>185.6</course>
  <speed>0.022360679774997897</speed>
  <fix>3d</fix>
</trkpt>
<trkpt lat="33.810313" lon="-118.3938663">
  <ele>-0.93</ele>
  <time>2026-09-02T22:06:41Z</time>
  <course>95.0</course>
  <speed>0.0</speed>
  <fix>3d</fix>
</trkpt>
<trkpt lat="33.8103131" lon="-118.3938664">
  <ele>-1.005</ele>
  <time>2026-09-02T22:06:41Z</time>
  <course>185.6</course>
  <speed>0.022360679774997897</speed>
  <fix>3d</fix>
</trkpt>
<trkpt lat="33.810313" lon="-118.3938663">
  <ele>-0.94</ele>
  <time>2026-09-02T22:06:41Z</time>
  <course>95.0</course>
  <speed>0.0</speed>
  <fix>3d</fix>
</trkpt>
<trkpt lat="33.8103131" lon="-118.3938664">
  <ele>-1.005</ele>
  <time>2026-09-02T22:06:41Z</time>
  <course>185.6</course>
  <speed>0.0282842712474619</speed>
  <fix>3d</fix>
</trkpt>
<trkpt lat="33.810313" lon="-118.3938663">
  <ele>-0.94</ele>
  <time>2026-09-02T22:06:41Z</time>
  <course>95.0</course>
  <speed>0.0</speed>
  <fix>3d</fix>
</trkpt>
<trkpt lat="33.8103131" lon="-118.3938664">
  <ele>-1.004</ele>
  <time>2026-09-02T22:06:41Z</time>
  <course>185.6</course>
  <speed>0.0282842712474619</speed>
  <fix>3d</fix>
</trkpt>
<trkpt lat="33.810313" lon="-118.3938663">
  <ele>-0.95</ele>
  <time>2026-09-02T22:06:41Z</time>
  <course>95.0</course>
  <speed>0.0</speed>
  <fix>3d</fix>
</trkpt>
<trkpt lat="33.8103131" lon="-118.3938664">
  <ele>-1.002</ele>
  <time>2026-09-02T22:06:41Z</time>
  <course>185.6</course>
  <speed>0.0282842712474619</speed>
  <fix>3d</fix>
</trkpt>
<trkpt lat="33.810313" lon="-118.3938663">
  <ele>-0.95</ele>
  <time>2026-09-02T22:06:41Z</time>
  <course>95.0</course>
  <speed>0.0</speed>
  <fix>3d</fix>
</trkpt>
<trkpt lat="33.8103131" lon="-118.3938664">
  <ele>-1.001</ele>
  <time>2026-09-02T22:06:41Z</time>
  <course>185.6</course>
  <speed>0.0282842712474619</speed>
  <fix>3d</fix>
</trkpt>
<trkpt lat="33.810313" lon="-118.3938663">
  <ele>-0.96</ele>
  <time>2026-09-02T22:06:41Z</time>
  <course>95.0</course>
  <speed>0.0</speed>
  <fix>3d</fix>
</trkpt>
<trkpt lat="33.8103131" lon="-118.3938664">
  <ele>-0.999</ele>
  <time>2026-09-02T22:06:41Z</time>
  <course>185.6</course>
  <speed>0.0282842712474619</speed>
  <fix>3d</fix>
</trkpt>
<trkpt lat="33.810313" lon="-118.3938663">
  <ele>-0.96</ele>
  <time>2026-09-02T22:06:41Z</time>
  <course>95.0</course>
  <speed>0.0</speed>
  <fix>3d</fix>
</trkpt>
<trkpt lat="33.8103131" lon="-118.3938664">
  <ele>-0.996</ele>
  <time>2026-09-02T22:06:41Z</time>
  <course>185.6</course>
  <speed>0.0282842712474619</speed>
  <fix>3d</fix>
</trkpt>
<trkpt lat="33.810313" lon="-118.3938663">
  <ele>-0.96</ele>
  <time>2026-09-02T22:06:41Z</time>
  <course>95.0</course>
  <speed>0.0</speed>
  <fix>3d</fix>
</trkpt>
<trkpt lat="33.8103131" lon="-118.3938664">
  <ele>-0.994</ele>
  <time>2026-09-02T22:06:41Z</time>
  <course>185.6</course>
  <speed>0.0282842712474619</speed>
  <fix>3d</fix>
</trkpt>
<trkpt lat="33.810313" lon="-118.3938663">
  <ele>-0.96</ele>
  <time>2026-09-02T22:06:41Z</time>
  <course>95.0</course>
  <speed>0.0</speed>
  <fix>3d</fix>
</trkpt>
<trkpt lat="33.8103131" lon="-118.3938664">
  <ele>-0.991</ele>
  <time>2026-09-02T22:06:41Z</time>
  <course>185.6</course>
  <speed>0.0282842712474619</speed>
  <fix>3d</fix>
</trkpt>
<trkpt lat="33.810313" lon="-118.3938663">
  <ele>-0.96</ele>
  <time>2026-09-02T22:06:41Z</time>
  <course>95.0</course>
  <speed>0.0</speed>
  <fix>3d</fix>
</trkpt>
<trkpt lat="33.8103131" lon="-118.3938664">
  <ele>-0.987</ele>
  <time>2026-09-02T22:06:41Z</time>
  <course>185.6</course>
  <speed>0.0282842712474619</speed>
  <fix>3d</fix>
</trkpt>
<trkpt lat="33.810313" lon="-118.3938663">
  <ele>-0.96</ele>
  <time>2026-09-02T22:06:41Z</time>
  <course>95.0</course>
  <speed>0.0</speed>
  <fix>3d</fix>
</trkpt>
<trkpt lat="33.8103132" lon="-118.3938665">
  <ele>-0.983</ele>
  <time>2026-09-02T22:06:41Z</time>
  <course>185.6</course>
  <speed>0.0282842712474619</speed>
  <fix>3d</fix>
</trkpt>
<trkpt lat="33.810313" lon="-118.3938662">
  <ele>-0.96</ele>
  <time>2026-09-02T22:06:41Z</time>
  <course>95.0</course>
  <speed>0.0</speed>
  <fix>3d</fix>
</trkpt>
<trkpt lat="33.8103132" lon="-118.3938665">
  <ele>-0.979</ele>
  <time>2026-09-02T22:06:41Z</time>
  <course>185.6</course>
  <speed>0.0282842712474619</speed>
  <fix>3d</fix>
</trkpt>
<trkpt lat="33.810313" lon="-118.3938662">
  <ele>-0.96</ele>
  <time>2026-09-02T22:06:41Z</time>
  <course>95.0</course>
  <speed>0.0</speed>
  <fix>3d</fix>
</trkpt>
<trkpt lat="33.8103132" lon="-118.3938665">
  <ele>-0.975</ele>
  <time>2026-09-02T22:06:41Z</time>
  <course>185.61</course>
  <speed>0.0282842712474619</speed>
  <fix>3d</fix>
</trkpt>
<trkpt lat="33.810313" lon="-118.3938662">
  <ele>-0.95</ele>
  <time>2026-09-02T22:06:41Z</time>
  <course>95.0</course>
  <speed>0.0</speed>
  <fix>3d</fix>
</trkpt>
<trkpt lat="33.8103132" lon="-118.3938665">
  <ele>-0.97</ele>
  <time>2026-09-02T22:06:41Z</time>
  <course>185.61</course>
  <speed>0.0282842712474619</speed>
  <fix>3d</fix>
</trkpt>
<trkpt lat="33.810313" lon="-118.3938662">
  <ele>-0.95</ele>
  <time>2026-09-02T22:06:41Z</time>
  <course>95.0</course>
  <speed>0.0</speed>
  <fix>3d</fix>
</trkpt>
<trkpt lat="33.8103132" lon="-118.3938665">
  <ele>-0.964</ele>
  <time>2026-09-02T22:06:41Z</time>
  <course>185.61</course>
  <speed>0.0282842712474619</speed>
  <fix>3d</fix>
</trkpt>
<trkpt lat="33.810313" lon="-118.3938662">
  <ele>-0.95</ele>
  <time>2026-09-02T22:06:41Z</time>
  <course>95.0</course>
  <speed>0.0</speed>
  <fix>3d</fix>
</trkpt>
<trkpt lat="33.8103132" lon="-118.3938665">
  <ele>-0.958</ele>
  <time>2026-09-02T22:06:41Z</time>
  <course>185.61</course>
  <speed>0.0282842712474619</speed>
  <fix>3d</fix>
</trkpt>
<trkpt lat="33.810313" lon="-118.3938662">
  <ele>-0.95</ele>
  <time>2026-09-02T22:06:41Z</time>
  <course>95.0</course>
  <speed>0.0</speed>
  <fix>3d</fix>
</trkpt>
<trkpt lat="33.8103132" lon="-118.3938665">
  <ele>-0.952</ele>
  <time>2026-09-02T22:06:41Z</time>
  <course>185.61</course>
  <speed>0.0282842712474619</speed>
  <fix>3d</fix>
</trkpt>
<trkpt lat="33.810313" lon="-118.3938662">
  <ele>-0.94</ele>
  <time>2026-09-02T22:06:41Z</time>
  <course>95.0</course>
  <speed>0.0</speed>
  <fix>3d</fix>
</trkpt>
<trkpt lat="33.8103132" lon="-118.3938665">
  <ele>-0.946</ele>
  <time>2026-09-02T22:06:41Z</time>
  <course>185.61</course>
  <speed>0.0282842712474619</speed>
  <fix>3d</fix>
</trkpt>
<trkpt lat="33.810313" lon="-118.3938662">
  <ele>-0.94</ele>
  <time>2026-09-02T22:06:41Z</time>
  <course>95.0</course>
  <speed>0.0</speed>
  <fix>3d</fix>
</trkpt>
<trkpt lat="33.8103132" lon="-118.3938665">
  <ele>-0.939</ele>
  <time>2026-09-02T22:06:41Z</time>
  <course>185.61</course>
  <speed>0.0282842712474619</speed>
  <fix>3d</fix>
</trkpt>
<trkpt lat="33.810313" lon="-118.3938662">
  <ele>-0.93</ele>
  <time>2026-09-02T22:06:41Z</time>
  <course>95.0</course>
  <speed>0.0</speed>
  <fix>3d</fix>
</trkpt>
<trkpt lat="33.8103132" lon="-118.3938665">
  <ele>-0.93</ele>
  <time>2026-09-02T22:06:41Z</time>
  <course>185.61</course>
  <speed>0.0282842712474619</speed>
  <fix>3d</fix>
</trkpt>
<trkpt lat="33.810313" lon="-118.3938662">
  <ele>-0.93</ele>
  <time>2026-09-02T22:06:41Z</time>
  <course>95.0</course>
  <speed>0.0</speed>
  <fix>3d</fix>
</trkpt>
<trkpt lat="33.8103132" lon="-118.3938665">
  <ele>-0.923</ele>
  <time>2026-09-02T22:06:41Z</time>
  <course>185.61</course>
  <speed>0.0282842712474619</speed>
  <fix>3d</fix>
</trkpt>
<trkpt lat="33.810313" lon="-118.3938662">
  <ele>-0.92</ele>
  <time>2026-09-02T22:06:41Z</time>
  <course>95.0</course>
  <speed>0.0</speed>
  <fix>3d</fix>
</trkpt>
<trkpt lat="33.8103132" lon="-118.3938665">
  <ele>-0.916</ele>
  <time>2026-09-02T22:06:41Z</time>
  <course>185.61</course>
  <speed>0.0282842712474619</speed>
  <fix>3d</fix>
</trkpt>
<trkpt lat="33.810313" lon="-118.3938662">
  <ele>-0.92</ele>
  <time>2026-09-02T22:06:41Z</time>
  <course>95.0</course>
  <speed>0.0</speed>
  <fix>3d</fix>
</trkpt>
<trkpt lat="33.8103132" lon="-118.3938665">
  <ele>-0.909</ele>
  <time>2026-09-02T22:06:41Z</time>
  <course>185.61</course>
  <speed>0.0282842712474619</speed>
  <fix>3d</fix>
</trkpt>
<trkpt lat="33.810313" lon="-118.3938662">
  <ele>-0.9</ele>
  <time>2026-09-02T22:06:41Z</time>
  <course>95.0</course>
  <speed>0.0</speed>
  <fix>3d</fix>
</trkpt>
<trkpt lat="33.8103132" lon="-118.3938665">
  <ele>-0.902</ele>
  <time>2026-09-02T22:06:41Z</time>
  <course>185.61</course>
  <speed>0.0282842712474619</speed>
  <fix>3d</fix>
</trkpt>
<trkpt lat="33.810313" lon="-118.3938662">
  <ele>-0.9</ele>
  <time>2026-09-02T22:06:41Z</time>
  <course>95.0</course>
  <speed>0.0</speed>
  <fix>3d</fix>
</trkpt>
<trkpt lat="33.8103132" lon="-118.3938665">
  <ele>-0.894</ele>
  <time>2026-09-02T22:06:41Z</time>
  <course>185.61</course>
  <speed>0.0282842712474619</speed>
  <fix>3d</fix>
</trkpt>
<trkpt lat="33.810313" lon="-118.3938662">
  <ele>-0.89</ele>
  <time>2026-09-02T22:06:41Z</time>
  <course>95.0</course>
  <speed>0.0</speed>
  <fix>3d</fix>
</trkpt>
<trkpt lat="33.8103132" lon="-118.3938665">
  <ele>-0.885</ele>
  <time>2026-09-02T22:06:41Z</time>
  <course>185.61</course>
  <speed>0.0282842712474619</speed>
  <fix>3d</fix>
</trkpt>
<trkpt lat="33.810313" lon="-118.3938662">
  <ele>-0.89</ele>
  <time>2026-09-02T22:06:41Z</time>
  <course>95.0</course>
  <speed>0.0</speed>
  <fix>3d</fix>
</trkpt>
<trkpt lat="33.8103132" lon="-118.3938665">
  <ele>-0.877</ele>
  <time>2026-09-02T22:06:41Z</time>
  <course>185.61</course>
  <speed>0.0282842712474619</speed>
  <fix>3d</fix>
</trkpt>
<trkpt lat="33.810313" lon="-118.3938662">
  <ele>-0.88</ele>
  <time>2026-09-02T22:06:41Z</time>
  <course>95.0</course>
  <speed>0.0</speed>
  <fix>3d</fix>
</trkpt>
<trkpt lat="33.8103132" lon="-118.3938665">
  <ele>-0.868</ele>
  <time>2026-09-02T22:06:41Z</time>
  <course>185.61</course>
  <speed>0.0282842712474619</speed>
  <fix>3d</fix>
</trkpt>
<trkpt lat="33.810313" lon="-118.3938662">
  <ele>-0.88</ele>
  <time>2026-09-02T22:06:41Z</time>
  <course>95.0</course>
  <speed>0.0</speed>
  <fix>3d</fix>
</trkpt>
<trkpt lat="33.8103132" lon="-118.3938665">
  <ele>-0.86</ele>
  <time>2026-09-02T22:06:41Z</time>
  <course>185.61</course>
  <speed>0.0282842712474619</speed>
  <fix>3d</fix>
</trkpt>
<trkpt lat="33.810313" lon="-118.3938662">
  <ele>-0.86</ele>
  <time>2026-09-02T22:06:41Z</time>
  <course>95.0</course>
  <speed>0.0</speed>
  <fix>3d</fix>
</trkpt>
<trkpt lat="33.8103132" lon="-118.3938665">
  <ele>-0.852</ele>
  <time>2026-09-02T22:06:41Z</time>
  <course>185.61</course>
  <speed>0.0282842712474619</speed>
  <fix>3d</fix>
</trkpt>
<trkpt lat="33.810313" lon="-118.3938662">
  <ele>-0.86</ele>
  <time>2026-09-02T22:06:41Z</time>
  <course>95.0</course>
  <speed>0.0</speed>
  <fix>3d</fix>
</trkpt>
<trkpt lat="33.8103132" lon="-118.3938664">
  <ele>-0.844</ele>
  <time>2026-09-02T22:06:41Z</time>
  <course>185.61</course>
  <speed>0.0282842712474619</speed>
  <fix>3d</fix>
</trkpt>
<trkpt lat="33.810313" lon="-118.3938662">
  <ele>-0.85</ele>
  <time>2026-09-02T22:06:41Z</time>
  <course>95.0</course>
  <speed>0.0</speed>
  <fix>3d</fix>
</trkpt>
<trkpt lat="33.8103132" lon="-118.3938664">
  <ele>-0.836</ele>
  <time>2026-09-02T22:06:41Z</time>
  <course>185.61</course>
  <speed>0.0282842712474619</speed>
  <fix>3d</fix>
</trkpt>
<trkpt lat="33.810313" lon="-118.3938662">
  <ele>-0.85</ele>
  <time>2026-09-02T22:06:41Z</time>
  <course>95.0</course>
  <speed>0.0</speed>
  <fix>3d</fix>
</trkpt>
<trkpt lat="33.8103132" lon="-118.3938664">
  <ele>-0.801</ele>
  <time>2026-09-02T22:06:41Z</time>
  <course>185.62</course>
  <speed>0.022360679774997897</speed>
  <fix>3d</fix>
</trkpt>
<trkpt lat="33.810313" lon="-118.3938662">
  <ele>-0.81</ele>
  <time>2026-09-02T22:06:41Z</time>
  <course>95.0</course>
  <speed>0.0</speed>
  <fix>3d</fix>
</trkpt>
<trkpt lat="33.8103132" lon="-118.3938664">
  <ele>-0.774</ele>
  <time>2026-09-02T22:06:41Z</time>
  <course>185.62</course>
  <speed>0.022360679774997897</speed>
  <fix>3d</fix>
</trkpt>
<trkpt lat="33.810313" lon="-118.3938662">
  <ele>-0.78</ele>
  <time>2026-09-02T22:06:41Z</time>
  <course>95.0</course>
  <speed>0.0</speed>
  <fix>3d</fix>
</trkpt>
<trkpt lat="33.8103132" lon="-118.3938664">
  <ele>-0.764</ele>
  <time>2026-09-02T22:06:41Z</time>
  <course>185.62</course>
  <speed>0.022360679774997897</speed>
  <fix>3d</fix>
</trkpt>
<trkpt lat="33.810313" lon="-118.3938662">
  <ele>-0.78</ele>
  <time>2026-09-02T22:06:41Z</time>
  <course>95.0</course>
  <speed>0.0</speed>
  <fix>3d</fix>
</trkpt>
<trkpt lat="33.8103132" lon="-118.3938664">
  <ele>-0.754</ele>
  <time>2026-09-02T22:06:41Z</time>
  <course>185.62</course>
  <speed>0.022360679774997897</speed>
  <fix>3d</fix>
</trkpt>
<trkpt lat="33.810313" lon="-118.3938662">
  <ele>-0.76</ele>
  <time>2026-09-02T22:06:41Z</time>
  <course>95.0</course>
  <speed>0.0</speed>
  <fix>3d</fix>
</trkpt>
<trkpt lat="33.8103132" lon="-118.3938664">
  <ele>-0.745</ele>
  <time>2026-09-02T22:06:41Z</time>
  <course>185.62</course>
  <speed>0.022360679774997897</speed>
  <fix>3d</fix>
</trkpt>
<trkpt lat="33.810313" lon="-118.3938662">
  <ele>-0.76</ele>
  <time>2026-09-02T22:06:41Z</time>
  <course>95.0</course>
  <speed>0.0</speed>
  <fix>3d</fix>
</trkpt>
<trkpt lat="33.8103132" lon="-118.3938664">
  <ele>-0.737</ele>
  <time>2026-09-02T22:06:41Z</time>
  <course>185.62</course>
  <speed>0.022360679774997897</speed>
  <fix>3d</fix>
</trkpt>
<trkpt lat="33.810313" lon="-118.3938662">
  <ele>-0.74</ele>
  <time>2026-09-02T22:06:41Z</time>
  <course>95.0</course>
  <speed>0.0</speed>
  <fix>3d</fix>
</trkpt>
<trkpt lat="33.8103132" lon="-118.3938664">
  <ele>-0.729</ele>
  <time>2026-09-02T22:06:41Z</time>
  <course>185.62</course>
  <speed>0.022360679774997897</speed>
  <fix>3d</fix>
</trkpt>
<trkpt lat="33.810313" lon="-118.3938662">
  <ele>-0.74</ele>
  <time>2026-09-02T22:06:41Z</time>
  <course>95.0</course>
  <speed>0.0</speed>
  <fix>3d</fix>
</trkpt>
<trkpt lat="33.8103132" lon="-118.3938664">
  <ele>-0.719</ele>
  <time>2026-09-02T22:06:41Z</time>
  <course>185.62</course>
  <speed>0.022360679774997897</speed>
  <fix>3d</fix>
</trkpt>
<trkpt lat="33.810313" lon="-118.3938662">
  <ele>-0.72</ele>
  <time>2026-09-02T22:06:41Z</time>
  <course>95.0</course>
  <speed>0.0</speed>
  <fix>3d</fix>
</trkpt>
<trkpt lat="33.8103132" lon="-118.3938664">
  <ele>-0.709</ele>
  <time>2026-09-02T22:06:41Z</time>
  <course>185.62</course>
  <speed>0.022360679774997897</speed>
  <fix>3d</fix>
</trkpt>
<trkpt lat="33.810313" lon="-118.3938662">
  <ele>-0.72</ele>
  <time>2026-09-02T22:06:41Z</time>
  <course>95.0</course>
  <speed>0.0</speed>
  <fix>3d</fix>
</trkpt>
<trkpt lat="33.8103132" lon="-118.3938664">
  <ele>-0.699</ele>
  <time>2026-09-02T22:06:41Z</time>
  <course>185.62</course>
  <speed>0.022360679774997897</speed>
  <fix>3d</fix>
</trkpt>
<trkpt lat="33.810313" lon="-118.3938662">
  <ele>-0.7</ele>
  <time>2026-09-02T22:06:41Z</time>
  <course>95.0</course>
  <speed>0.0</speed>
  <fix>3d</fix>
</trkpt>
<trkpt lat="33.8103132" lon="-118.3938664">
  <ele>-0.689</ele>
  <time>2026-09-02T22:06:41Z</time>
  <course>185.62</course>
  <speed>0.022360679774997897</speed>
  <fix>3d</fix>
</trkpt>
<trkpt lat="33.810313" lon="-118.3938662">
  <ele>-0.7</ele>
  <time>2026-09-02T22:06:41Z</time>
  <course>95.0</course>
  <speed>0.0</speed>
  <fix>3d</fix>
</trkpt>
<trkpt lat="33.8103132" lon="-118.3938664">
  <ele>-0.68</ele>
  <time>2026-09-02T22:06:41Z</time>
  <course>185.62</course>
  <speed>0.022360679774997897</speed>
  <fix>3d</fix>
</trkpt>
<trkpt lat="33.810313" lon="-118.3938662">
  <ele>-0.68</ele>
  <time>2026-09-02T22:06:41Z</time>
  <course>95.0</course>
  <speed>0.0</speed>
  <fix>3d</fix>
</trkpt>
<trkpt lat="33.8103132" lon="-118.3938664">
  <ele>-0.671</ele>
  <time>2026-09-02T22:06:41Z</time>
  <course>185.62</course>
  <speed>0.022360679774997897</speed>
  <fix>3d</fix>
</trkpt>
<trkpt lat="33.810313" lon="-118.3938662">
  <ele>-0.68</ele>
  <time>2026-09-02T22:06:41Z</time>
  <course>95.0</course>
  <speed>0.0</speed>
  <fix>3d</fix>
</trkpt>
<trkpt lat="33.8103132" lon="-118.3938664">
  <ele>-0.662</ele>
  <time>2026-09-02T22:06:41Z</time>
  <course>185.62</course>
  <speed>0.022360679774997897</speed>
  <fix>3d</fix>
</trkpt>
<trkpt lat="33.810313" lon="-118.3938662">
  <ele>-0.65</ele>
  <time>2026-09-02T22:06:41Z</time>
  <course>95.0</course>
  <speed>0.0</speed>
  <fix>3d</fix>
</trkpt>
<trkpt lat="33.8103132" lon="-118.3938664">
  <ele>-0.653</ele>
  <time>2026-09-02T22:06:41Z</time>
  <course>185.62</course>
  <speed>0.022360679774997897</speed>
  <fix>3d</fix>
</trkpt>
<trkpt lat="33.810313" lon="-118.3938662">
  <ele>-0.65</ele>
  <time>2026-09-02T22:06:41Z</time>
  <course>95.0</course>
  <speed>0.0</speed>
  <fix>3d</fix>
</trkpt>
<trkpt lat="33.8103132" lon="-118.3938664">
  <ele>-0.642</ele>
  <time>2026-09-02T22:06:41Z</time>
  <course>185.62</course>
  <speed>0.022360679774997897</speed>
  <fix>3d</fix>
</trkpt>
<trkpt lat="33.810313" lon="-118.3938662">
  <ele>-0.64</ele>
  <time>2026-09-02T22:06:41Z</time>
  <course>95.0</course>
  <speed>0.0</speed>
  <fix>3d</fix>
</trkpt>
<trkpt lat="33.8103132" lon="-118.3938664">
  <ele>-0.631</ele>
  <time>2026-09-02T22:06:41Z</time>
  <course>185.62</course>
  <speed>0.022360679774997897</speed>
  <fix>3d</fix>
</trkpt>
<trkpt lat="33.810313" lon="-118.3938662">
  <ele>-0.64</ele>
  <time>2026-09-02T22:06:41Z</time>
  <course>95.0</course>
  <speed>0.0</speed>
  <fix>3d</fix>
</trkpt>
<trkpt lat="33.8103132" lon="-118.3938664">
  <ele>-0.621</ele>
  <time>2026-09-02T22:06:41Z</time>
  <course>185.63</course>
  <speed>0.022360679774997897</speed>
  <fix>3d</fix>
</trkpt>
<trkpt lat="33.810313" lon="-118.3938662">
  <ele>-0.63</ele>
  <time>2026-09-02T22:06:41Z</time>
  <course>95.0</course>
  <speed>0.0</speed>
  <fix>3d</fix>
</trkpt>
<trkpt lat="33.8103132" lon="-118.3938664">
  <ele>-0.612</ele>
  <time>2026-09-02T22:06:41Z</time>
  <course>185.63</course>
  <speed>0.022360679774997897</speed>
  <fix>3d</fix>
</trkpt>
<trkpt lat="33.810313" lon="-118.3938662">
  <ele>-0.63</ele>
  <time>2026-09-02T22:06:41Z</time>
  <course>95.0</course>
  <speed>0.0</speed>
  <fix>3d</fix>
</trkpt>
<trkpt lat="33.8103132" lon="-118.3938664">
  <ele>-0.603</ele>
  <time>2026-09-02T22:06:41Z</time>
  <course>185.63</course>
  <speed>0.022360679774997897</speed>
  <fix>3d</fix>
</trkpt>
<trkpt lat="33.810313" lon="-118.3938662">
  <ele>-0.61</ele>
  <time>2026-09-02T22:06:41Z</time>
  <course>95.0</course>
  <speed>0.0</speed>
  <fix>3d</fix>
</trkpt>
<trkpt lat="33.8103132" lon="-118.3938664">
  <ele>-0.594</ele>
  <time>2026-09-02T22:06:41Z</time>
  <course>185.63</course>
  <speed>0.022360679774997897</speed>
  <fix>3d</fix>
</trkpt>
<trkpt lat="33.810313" lon="-118.3938662">
  <ele>-0.61</ele>
  <time>2026-09-02T22:06:41Z</time>
  <course>95.0</course>
  <speed>0.0</speed>
  <fix>3d</fix>
</trkpt>
<trkpt lat="33.8103132" lon="-118.3938664">
  <ele>-0.585</ele>
  <time>2026-09-02T22:06:41Z</time>
  <course>185.63</course>
  <speed>0.022360679774997897</speed>
  <fix>3d</fix>
</trkpt>
<trkpt lat="33.810313" lon="-118.3938662">
  <ele>-0.59</ele>
  <time>2026-09-02T22:06:41Z</time>
  <course>95.0</course>
  <speed>0.0</speed>
  <fix>3d</fix>
</trkpt>
<trkpt lat="33.8103132" lon="-118.3938664">
  <ele>-0.575</ele>
  <time>2026-09-02T22:06:41Z</time>
  <course>185.63</course>
  <speed>0.022360679774997897</speed>
  <fix>3d</fix>
</trkpt>
<trkpt lat="33.810313" lon="-118.3938662">
  <ele>-0.59</ele>
  <time>2026-09-02T22:06:41Z</time>
  <course>95.0</course>
  <speed>0.0</speed>
  <fix>3d</fix>
</trkpt>
<trkpt lat="33.8103132" lon="-118.3938664">
  <ele>-0.565</ele>
  <time>2026-09-02T22:06:41Z</time>
  <course>185.63</course>
  <speed>0.022360679774997897</speed>
  <fix>3d</fix>
</trkpt>
<trkpt lat="33.810313" lon="-118.3938662">
  <ele>-0.57</ele>
  <time>2026-09-02T22:06:41Z</time>
  <course>95.0</course>
  <speed>0.0</speed>
  <fix>3d</fix>
</trkpt>
<trkpt lat="33.8103132" lon="-118.3938664">
  <ele>-0.553</ele>
  <time>2026-09-02T22:06:41Z</time>
  <course>185.63</course>
  <speed>0.022360679774997897</speed>
  <fix>3d</fix>
</trkpt>
<trkpt lat="33.810313" lon="-118.3938662">
  <ele>-0.57</ele>
  <time>2026-09-02T22:06:41Z</time>
  <course>95.0</course>
  <speed>0.0</speed>
  <fix>3d</fix>
</trkpt>
<trkpt lat="33.8103132" lon="-118.3938664">
  <ele>-0.542</ele>
  <time>2026-09-02T22:06:41Z</time>
  <course>185.63</course>
  <speed>0.022360679774997897</speed>
  <fix>3d</fix>
</trkpt>
<trkpt lat="33.810313" lon="-118.3938662">
  <ele>-0.55</ele>
  <time>2026-09-02T22:06:41Z</time>
  <course>95.0</course>
  <speed>0.0</speed>
  <fix>3d</fix>
</trkpt>
<trkpt lat="33.8103132" lon="-118.3938664">
  <ele>-0.53</ele>
  <time>2026-09-02T22:06:41Z</time>
  <course>185.63</course>
  <speed>0.022360679774997897</speed>
  <fix>3d</fix>
</trkpt>
<trkpt lat="33.810313" lon="-118.3938662">
  <ele>-0.55</ele>
  <time>2026-09-02T22:06:41Z</time>
  <course>95.0</course>
  <speed>0.0</speed>
  <fix>3d</fix>
</trkpt>
<trkpt lat="33.8103132" lon="-118.3938664">
  <ele>-0.519</ele>
  <time>2026-09-02T22:06:41Z</time>
  <course>185.63</course>
  <speed>0.0282842712474619</speed>
  <fix>3d</fix>
</trkpt>
<trkpt lat="33.810313" lon="-118.3938662">
  <ele>-0.53</ele>
  <time>2026-09-02T22:06:41Z</time>
  <course>95.0</course>
  <speed>0.0</speed>
  <fix>3d</fix>
</trkpt>
<trkpt lat="33.4368002" lon="-117.0859339">
  <ele>-0.11</ele>
  <time>2026-09-02T22:06:42Z</time>
  <course>0.0</course>
  <speed>0.0</speed>
  <fix>3d</fix>
</trkpt>
<trkpt lat="33.4368002" lon="-117.0859339">
  <ele>-0.11</ele>
  <time>2026-09-02T22:06:42Z</time>
  <course>0.0</course>
  <speed>0.0</speed>
  <fix>3d</fix>
</trkpt>
<trkpt lat="33.810313" lon="-118.393867">
  <ele>0.0</ele>
  <time>2026-09-02T22:06:42Z</time>
  <course>173.5</course>
  <speed>0.0</speed>
  <fix>3d</fix>
</trkpt>
<trkpt lat="33.810313" lon="-118.393867">
  <ele>-0.11</ele>
  <time>2026-09-02T22:06:42Z</time>
  <course>0.0</course>
  <speed>0.0</speed>
  <fix>3d</fix>
</trkpt>
<trkpt lat="33.810313" lon="-118.393867">
  <ele>0.0</ele>
  <time>2026-09-02T22:06:42Z</time>
  <course>173.61</course>
  <speed>0.0</speed>
  <fix>3d</fix>
</trkpt>
<trkpt lat="33.810313" lon="-118.393867">
  <ele>-0.11</ele>
  <time>2026-09-02T22:06:42Z</time>
  <course>0.0</course>
  <speed>0.0</speed>
  <fix>3d</fix>
</trkpt>
<trkpt lat="33.810313" lon="-118.393867">
  <ele>0.0</ele>
  <time>2026-09-02T22:06:42Z</time>
  <course>173.98</course>
  <speed>0.0</speed>
  <fix>3d</fix>
</trkpt>
<trkpt lat="33.810313" lon="-118.393867">
  <ele>-0.11</ele>
  <time>2026-09-02T22:06:42Z</time>
  <course>0.0</course>
  <speed>0.0</speed>
  <fix>3d</fix>
</trkpt>
<trkpt lat="33.810313" lon="-118.393867">
  <ele>0.0</ele>
  <time>2026-09-02T22:06:42Z</time>
  <course>174.51</course>
  <speed>0.0</speed>
  <fix>3d</fix>
</trkpt>
<trkpt lat="33.810313" lon="-118.393867">
  <ele>-0.11</ele>
  <time>2026-09-02T22:06:42Z</time>
  <course>0.0</course>
  <speed>0.0</speed>
  <fix>3d</fix>
</trkpt>
<trkpt lat="33.810313" lon="-118.393867">
  <ele>0.0</ele>
  <time>2026-09-02T22:06:42Z</time>
  <course>175.07</course>
  <speed>0.0</speed>
  <fix>3d</fix>
</trkpt>
<trkpt lat="33.810313" lon="-118.393867">
  <ele>-0.12</ele>
  <time>2026-09-02T22:06:42Z</time>
  <course>0.0</course>
  <speed>0.0</speed>
  <fix>3d</fix>
</trkpt>
<trkpt lat="33.810313" lon="-118.393867">
  <ele>0.0</ele>
  <time>2026-09-02T22:06:42Z</time>
  <course>175.61</course>
  <speed>0.0</speed>
  <fix>3d</fix>
</trkpt>
<trkpt lat="33.810313" lon="-118.393867">
  <ele>-0.12</ele>
  <time>2026-09-02T22:06:42Z</time>
  <course>0.0</course>
  <speed>0.0</speed>
  <fix>3d</fix>
</trkpt>
<trkpt lat="33.810313" lon="-118.393867">
  <ele>0.0</ele>
  <time>2026-09-02T22:06:42Z</time>
  <course>176.12</course>
  <speed>0.0</speed>
  <fix>3d</fix>
</trkpt>
<trkpt lat="33.810313" lon="-118.393867">
  <ele>-0.13</ele>
  <time>2026-09-02T22:06:42Z</time>
  <course>0.0</course>
  <speed>0.0</speed>
  <fix>3d</fix>
</trkpt>
<trkpt lat="33.810313" lon="-118.393867">
  <ele>0.0</ele>
  <time>2026-09-02T22:06:42Z</time>
  <course>176.6</course>
  <speed>0.0</speed>
  <fix>3d</fix>
</trkpt>
<trkpt lat="33.810313" lon="-118.393867">
  <ele>-0.13</ele>
  <time>2026-09-02T22:06:42Z</time>
  <course>0.0</course>
  <speed>0.0</speed>
  <fix>3d</fix>
</trkpt>
<trkpt lat="33.810313" lon="-118.393867">
  <ele>0.0</ele>
  <time>2026-09-02T22:06:42Z</time>
  <course>177.07</course>
  <speed>0.0</speed>
  <fix>3d</fix>
</trkpt>
<trkpt lat="33.810313" lon="-118.393867">
  <ele>-0.13</ele>
  <time>2026-09-02T22:06:42Z</time>
  <course>0.0</course>
  <speed>0.0</speed>
  <fix>3d</fix>
</trkpt>
<trkpt lat="33.810313" lon="-118.393867">
  <ele>0.0</ele>
  <time>2026-09-02T22:06:42Z</time>
  <course>177.53</course>
  <speed>0.0</speed>
  <fix>3d</fix>
</trkpt>
<trkpt lat="33.810313" lon="-118.393867">
  <ele>-0.13</ele>
  <time>2026-09-02T22:06:42Z</time>
  <course>0.0</course>
  <speed>0.0</speed>
  <fix>3d</fix>
</trkpt>
<trkpt lat="33.810313" lon="-118.393867">
  <ele>0.0</ele>
  <time>2026-09-02T22:06:42Z</time>
  <course>177.97</course>
  <speed>0.0</speed>
  <fix>3d</fix>
</trkpt>
<trkpt lat="33.810313" lon="-118.393867">
  <ele>-0.14</ele>
  <time>2026-09-02T22:06:42Z</time>
  <course>0.0</course>
  <speed>0.0</speed>
  <fix>3d</fix>
</trkpt>
<trkpt lat="33.810313" lon="-118.393867">
  <ele>0.0</ele>
  <time>2026-09-02T22:06:42Z</time>
  <course>178.4</course>
  <speed>0.0</speed>
  <fix>3d</fix>
</trkpt>
<trkpt lat="33.810313" lon="-118.393867">
  <ele>-0.14</ele>
  <time>2026-09-02T22:06:42Z</time>
  <course>0.0</course>
  <speed>0.0</speed>
  <fix>3d</fix>
</trkpt>
<trkpt lat="33.810313" lon="-118.393867">
  <ele>0.0</ele>
  <time>2026-09-02T22:06:42Z</time>
  <course>178.83</course>
  <speed>0.0</speed>
  <fix>3d</fix>
</trkpt>
<trkpt lat="33.810313" lon="-118.393867">
  <ele>-0.14</ele>
  <time>2026-09-02T22:06:42Z</time>
  <course>0.0</course>
  <speed>0.0</speed>
  <fix>3d</fix>
</trkpt>
<trkpt lat="33.810313" lon="-118.393867">
  <ele>0.0</ele>
  <time>2026-09-02T22:06:42Z</time>
  <course>179.23</course>
  <speed>0.0</speed>
  <fix>3d</fix>
</trkpt>
<trkpt lat="33.810313" lon="-118.393867">
  <ele>-0.14</ele>
  <time>2026-09-02T22:06:42Z</time>
  <course>0.0</course>
  <speed>0.0</speed>
  <fix>3d</fix>
</trkpt>
<trkpt lat="33.810313" lon="-118.393867">
  <ele>0.0</ele>
  <time>2026-09-02T22:06:42Z</time>
  <course>179.62</course>
  <speed>0.0</speed>
  <fix>3d</fix>
</trkpt>
<trkpt lat="33.810313" lon="-118.393867">
  <ele>-0.14</ele>
  <time>2026-09-02T22:06:42Z</time>
  <course>0.0</course>
  <speed>0.0</speed>
  <fix>3d</fix>
</trkpt>
<trkpt lat="33.810313" lon="-118.393867">
  <ele>0.0</ele>
  <time>2026-09-02T22:06:42Z</time>
  <course>180.01</course>
  <speed>0.0</speed>
  <fix>3d</fix>
</trkpt>
<trkpt lat="33.810313" lon="-118.393867">
  <ele>-0.14</ele>
  <time>2026-09-02T22:06:42Z</time>
  <course>0.0</course>
  <speed>0.0</speed>
  <fix>3d</fix>
</trkpt>
<trkpt lat="33.810313" lon="-118.393867">
  <ele>0.0</ele>
  <time>2026-09-02T22:06:42Z</time>
  <course>180.37</course>
  <speed>0.0</speed>
  <fix>3d</fix>
</trkpt>
<trkpt lat="33.810313" lon="-118.393867">
  <ele>-0.14</ele>
  <time>2026-09-02T22:06:42Z</time>
  <course>0.0</course>
  <speed>0.0</speed>
  <fix>3d</fix>
</trkpt>
<trkpt lat="33.810313" lon="-118.393867">
  <ele>0.0</ele>
  <time>2026-09-02T22:06:42Z</time>
  <course>180.73</course>
  <speed>0.0</speed>
  <fix>3d</fix>
</trkpt>
<trkpt lat="33.810313" lon="-118.393867">
  <ele>-0.14</ele>
  <time>2026-09-02T22:06:42Z</time>
  <course>0.0</course>
  <speed>0.0</speed>
  <fix>3d</fix>
</trkpt>
<trkpt lat="33.810313" lon="-118.393867">
  <ele>0.0</ele>
  <time>2026-09-02T22:06:42Z</time>
  <course>181.07</course>
  <speed>0.0</speed>
  <fix>3d</fix>
</trkpt>
<trkpt lat="33.810313" lon="-118.393867">
  <ele>-0.13</ele>
  <time>2026-09-02T22:06:42Z</time>
  <course>0.0</course>
  <speed>0.0</speed>
  <fix>3d</fix>
</trkpt>
<trkpt lat="33.810313" lon="-118.393867">
  <ele>0.0</ele>
  <time>2026-09-02T22:06:42Z</time>
  <course>181.4</course>
  <speed>0.0</speed>
  <fix>3d</fix>
</trkpt>
<trkpt lat="33.810313" lon="-118.393867">
  <ele>-0.13</ele>
  <time>2026-09-02T22:06:42Z</time>
  <course>0.0</course>
  <speed>0.0</speed>
  <fix>3d</fix>
</trkpt>
<trkpt lat="33.810313" lon="-118.393867">
  <ele>0.0</ele>
  <time>2026-09-02T22:06:42Z</time>
  <course>181.72</course>
  <speed>0.0</speed>
  <fix>3d</fix>
</trkpt>
<trkpt lat="33.810313" lon="-118.393867">
  <ele>-0.12</ele>
  <time>2026-09-02T22:06:42Z</time>
  <course>0.0</course>
  <speed>0.0</speed>
  <fix>3d</fix>
</trkpt>
<trkpt lat="33.810313" lon="-118.393867">
  <ele>0.0</ele>
  <time>2026-09-02T22:06:42Z</time>
  <course>182.02</course>
  <speed>0.0</speed>
  <fix>3d</fix>
</trkpt>
<trkpt lat="33.810313" lon="-118.393867">
  <ele>-0.12</ele>
  <time>2026-09-02T22:06:42Z</time>
  <course>0.0</course>
  <speed>0.0</speed>
  <fix>3d</fix>
</trkpt>
<trkpt lat="33.810313" lon="-118.393867">
  <ele>0.0</ele>
  <time>2026-09-02T22:06:42Z</time>
  <course>182.32</course>
  <speed>0.0</speed>
  <fix>3d</fix>
</trkpt>
<trkpt lat="33.810313" lon="-118.393867">
  <ele>-0.12</ele>
  <time>2026-09-02T22:06:42Z</time>
  <course>0.0</course>
  <speed>0.0</speed>
  <fix>3d</fix>
</trkpt>
<trkpt lat="33.810313" lon="-118.393867">
  <ele>0.0</ele>
  <time>2026-09-02T22:06:42Z</time>
  <course>182.6</course>
  <speed>0.0</speed>
  <fix>3d</fix>
</trkpt>
<trkpt lat="33.810313" lon="-118.393867">
  <ele>-0.12</ele>
  <time>2026-09-02T22:06:42Z</time>
  <course>0.0</course>
  <speed>0.0</speed>
  <fix>3d</fix>
</trkpt>
<trkpt lat="33.810313" lon="-118.393867">
  <ele>0.0</ele>
  <time>2026-09-02T22:06:42Z</time>
  <course>182.87</course>
  <speed>0.0</speed>
  <fix>3d</fix>
</trkpt>
<trkpt lat="33.810313" lon="-118.393867">
  <ele>-0.11</ele>
  <time>2026-09-02T22:06:42Z</time>
  <course>0.0</course>
  <speed>0.0</speed>
  <fix>3d</fix>
</trkpt>
<trkpt lat="33.810313" lon="-118.393867">
  <ele>0.0</ele>
  <time>2026-09-02T22:06:42Z</time>
  <course>183.14</course>
  <speed>0.0</speed>
  <fix>3d</fix>
</trkpt>
<trkpt lat="33.810313" lon="-118.393867">
  <ele>-0.11</ele>
  <time>2026-09-02T22:06:42Z</time>
  <course>0.0</course>
  <speed>0.0</speed>
  <fix>3d</fix>
</trkpt>
<trkpt lat="33.810313" lon="-118.393867">
  <ele>0.0</ele>
  <time>2026-09-02T22:06:42Z</time>
  <course>183.39</course>
  <speed>0.0</speed>
  <fix>3d</fix>
</trkpt>
<trkpt lat="33.810313" lon="-118.393867">
  <ele>-0.11</ele>
  <time>2026-09-02T22:06:42Z</time>
  <course>0.0</course>
  <speed>0.0</speed>
  <fix>3d</fix>
</trkpt>
<trkpt lat="33.810313" lon="-118.393867">
  <ele>0.0</ele>
  <time>2026-09-02T22:06:42Z</time>
  <course>183.63</course>
  <speed>0.0</speed>
  <fix>3d</fix>
</trkpt>
<trkpt lat="33.810313" lon="-118.393867">
  <ele>-0.11</ele>
  <time>2026-09-02T22:06:42Z</time>
  <course>0.0</course>
  <speed>0.0</speed>
  <fix>3d</fix>
</trkpt>
<trkpt lat="33.810313" lon="-118.393867">
  <ele>0.0</ele>
  <time>2026-09-02T22:06:42Z</time>
  <course>183.86</course>
  <speed>0.0</speed>
  <fix>3d</fix>
</trkpt>
<trkpt lat="33.810313" lon="-118.393867">
  <ele>-0.12</ele>
  <time>2026-09-02T22:06:42Z</time>
  <course>0.0</course>
  <speed>0.0</speed>
  <fix>3d</fix>
</trkpt>
<trkpt lat="33.810313" lon="-118.393867">
  <ele>0.0</ele>
  <time>2026-09-02T22:06:42Z</time>
  <course>184.08</course>
  <speed>0.0</speed>
  <fix>3d</fix>
</trkpt>
<trkpt lat="33.810313" lon="-118.393867">
  <ele>-0.12</ele>
  <time>2026-09-02T22:06:42Z</time>
  <course>0.0</course>
  <speed>0.0</speed>
  <fix>3d</fix>
</trkpt>
<trkpt lat="33.810313" lon="-118.393867">
  <ele>0.0</ele>
  <time>2026-09-02T22:06:42Z</time>
  <course>184.3</course>
  <speed>0.0</speed>
  <fix>3d</fix>
</trkpt>
<trkpt lat="33.810313" lon="-118.393867">
  <ele>-0.13</ele>
  <time>2026-09-02T22:06:42Z</time>
  <course>0.0</course>
  <speed>0.0</speed>
  <fix>3d</fix>
</trkpt>
<trkpt lat="33.810313" lon="-118.393867">
  <ele>0.0</ele>
  <time>2026-09-02T22:06:42Z</time>
  <course>184.5</course>
  <speed>0.0</speed>
  <fix>3d</fix>
</trkpt>
<trkpt lat="33.810313" lon="-118.393867">
  <ele>-0.13</ele>
  <time>2026-09-02T22:06:42Z</time>
  <course>0.0</course>
  <speed>0.0</speed>
  <fix>3d</fix>
</trkpt>
<trkpt lat="33.810313" lon="-118.393867">
  <ele>0.0</ele>
  <time>2026-09-02T22:06:42Z</time>
  <course>184.7</course>
  <speed>0.0</speed>
  <fix>3d</fix>
</trkpt>
<trkpt lat="33.810313" lon="-118.393867">
  <ele>-0.13</ele>
  <time>2026-09-02T22:06:42Z</time>
  <course>0.0</course>
  <speed>0.0</speed>
  <fix>3d</fix>
</trkpt>
<trkpt lat="33.810313" lon="-118.393867">
  <ele>0.0</ele>
  <time>2026-09-02T22:06:42Z</time>
  <course>184.89</course>
  <speed>0.0</speed>
  <fix>3d</fix>
</trkpt>
<trkpt lat="33.810313" lon="-118.393867">
  <ele>-0.13</ele>
  <time>2026-09-02T22:06:42Z</time>
  <course>0.0</course>
  <speed>0.0</speed>
  <fix>3d</fix>
</trkpt>
<trkpt lat="33.810313" lon="-118.393867">
  <ele>0.0</ele>
  <time>2026-09-02T22:06:42Z</time>
  <course>185.07</course>
  <speed>0.0</speed>
  <fix>3d</fix>
</trkpt>
<trkpt lat="33.810313" lon="-118.393867">
  <ele>-0.14</ele>
  <time>2026-09-02T22:06:42Z</time>
  <course>0.0</course>
  <speed>0.0</speed>
  <fix>3d</fix>
</trkpt>
<trkpt lat="33.810313" lon="-118.393867">
  <ele>0.0</ele>
  <time>2026-09-02T22:06:42Z</time>
  <course>185.24</course>
  <speed>0.0</speed>
  <fix>3d</fix>
</trkpt>
<trkpt lat="33.810313" lon="-118.393867">
  <ele>-0.14</ele>
  <time>2026-09-02T22:06:42Z</time>
  <course>0.0</course>
  <speed>0.0</speed>
  <fix>3d</fix>
</trkpt>
<trkpt lat="33.810313" lon="-118.393867">
  <ele>0.0</ele>
  <time>2026-09-02T22:06:42Z</time>
  <course>185.41</course>
  <speed>0.0</speed>
  <fix>3d</fix>
</trkpt>
<trkpt lat="33.810313" lon="-118.393867">
  <ele>-0.13</ele>
  <time>2026-09-02T22:06:42Z</time>
  <course>0.0</course>
  <speed>0.0</speed>
  <fix>3d</fix>
</trkpt>
<trkpt lat="33.810313" lon="-118.393867">
  <ele>0.0</ele>
  <time>2026-09-02T22:06:42Z</time>
  <course>185.56</course>
  <speed>0.0</speed>
  <fix>3d</fix>
</trkpt>
<trkpt lat="33.810313" lon="-118.393867">
  <ele>-0.13</ele>
  <time>2026-09-02T22:06:42Z</time>
  <course>0.0</course>
  <speed>0.0</speed>
  <fix>3d</fix>
</trkpt>
<trkpt lat="33.810313" lon="-118.393867">
  <ele>0.0</ele>
  <time>2026-09-02T22:06:42Z</time>
  <course>185.72</course>
  <speed>0.0</speed>
  <fix>3d</fix>
</trkpt>
<trkpt lat="33.810313" lon="-118.393867">
  <ele>-0.13</ele>
  <time>2026-09-02T22:06:42Z</time>
  <course>0.0</course>
  <speed>0.0</speed>
  <fix>3d</fix>
</trkpt>
<trkpt lat="33.810313" lon="-118.393867">
  <ele>0.0</ele>
  <time>2026-09-02T22:06:42Z</time>
  <course>185.86</course>
  <speed>0.0</speed>
  <fix>3d</fix>
</trkpt>
<trkpt lat="33.810313" lon="-118.393867">
  <ele>-0.13</ele>
  <time>2026-09-02T22:06:42Z</time>
  <course>0.0</course>
  <speed>0.0</speed>
  <fix>3d</fix>
</trkpt>
<trkpt lat="33.810313" lon="-118.393867">
  <ele>0.0</ele>
  <time>2026-09-02T22:06:42Z</time>
  <course>186.0</course>
  <speed>0.0</speed>
  <fix>3d</fix>
</trkpt>
<trkpt lat="33.810313" lon="-118.393867">
  <ele>-0.12</ele>
  <time>2026-09-02T22:06:42Z</time>
  <course>0.0</course>
  <speed>0.0</speed>
  <fix>3d</fix>
</trkpt>
<trkpt lat="33.810313" lon="-118.393867">
  <ele>0.0</ele>
  <time>2026-09-02T22:06:42Z</time>
  <course>186.13</course>
  <speed>0.0</speed>
  <fix>3d</fix>
</trkpt>
<trkpt lat="33.810313" lon="-118.393867">
  <ele>-0.12</ele>
  <time>2026-09-02T22:06:42Z</time>
  <course>0.0</course>
  <speed>0.0</speed>
  <fix>3d</fix>
</trkpt>
<trkpt lat="33.810313" lon="-118.393867">
  <ele>0.0</ele>
  <time>2026-09-02T22:06:42Z</time>
  <course>186.26</course>
  <speed>0.0</speed>
  <fix>3d</fix>
</trkpt>
<trkpt lat="33.810313" lon="-118.393867">
  <ele>-0.12</ele>
  <time>2026-09-02T22:06:42Z</time>
  <course>0.0</course>
  <speed>0.0</speed>
  <fix>3d</fix>
</trkpt>
<trkpt lat="33.810313" lon="-118.393867">
  <ele>0.0</ele>
  <time>2026-09-02T22:06:42Z</time>
  <course>186.38</course>
  <speed>0.0</speed>
  <fix>3d</fix>
</trkpt>
<trkpt lat="33.810313" lon="-118.393867">
  <ele>-0.12</ele>
  <time>2026-09-02T22:06:42Z</time>
  <course>0.0</course>
  <speed>0.0</speed>
  <fix>3d</fix>
</trkpt>
<trkpt lat="33.810313" lon="-118.393867">
  <ele>0.0</ele>
  <time>2026-09-02T22:06:42Z</time>
  <course>186.49</course>
  <speed>0.0</speed>
  <fix>3d</fix>
</trkpt>
<trkpt lat="33.810313" lon="-118.393867">
  <ele>-0.12</ele>
  <time>2026-09-02T22:06:42Z</time>
  <course>0.0</course>
  <speed>0.0</speed>
  <fix>3d</fix>
</trkpt>
<trkpt lat="33.810313" lon="-118.393867">
  <ele>0.0</ele>
  <time>2026-09-02T22:06:42Z</time>
  <course>186.6</course>
  <speed>0.0</speed>
  <fix>3d</fix>
</trkpt>
<trkpt lat="33.810313" lon="-118.393867">
  <ele>-0.12</ele>
  <time>2026-09-02T22:06:42Z</time>
  <course>0.0</course>
  <speed>0.0</speed>
  <fix>3d</fix>
</trkpt>
<trkpt lat="33.810313" lon="-118.393867">
  <ele>0.0</ele>
  <time>2026-09-02T22:06:42Z</time>
  <course>186.71</course>
  <speed>0.0</speed>
  <fix>3d</fix>
</trkpt>
<trkpt lat="33.810313" lon="-118.393867">
  <ele>-0.12</ele>
  <time>2026-09-02T22:06:42Z</time>
  <course>0.0</course>
  <speed>0.0</speed>
  <fix>3d</fix>
</trkpt>
<trkpt lat="33.810313" lon="-118.393867">
  <ele>0.0</ele>
  <time>2026-09-02T22:06:42Z</time>
  <course>186.81</course>
  <speed>0.0</speed>
  <fix>3d</fix>
</trkpt>
<trkpt lat="33.810313" lon="-118.393867">
  <ele>-0.12</ele>
  <time>2026-09-02T22:06:42Z</time>
  <course>0.0</course>
  <speed>0.0</speed>
  <fix>3d</fix>
</trkpt>
<trkpt lat="33.810313" lon="-118.393867">
  <ele>0.0</ele>
  <time>2026-09-02T22:06:42Z</time>
  <course>186.9</course>
  <speed>0.0</speed>
  <fix>3d</fix>
</trkpt>
<trkpt lat="33.810313" lon="-118.393867">
  <ele>-0.12</ele>
  <time>2026-09-02T22:06:42Z</time>
  <course>0.0</course>
  <speed>0.0</speed>
  <fix>3d</fix>
</trkpt>
<trkpt lat="33.810313" lon="-118.393867">
  <ele>0.0</ele>
  <time>2026-09-02T22:06:42Z</time>
  <course>187.0</course>
  <speed>0.0</speed>
  <fix>3d</fix>
</trkpt>
<trkpt lat="33.810313" lon="-118.393867">
  <ele>-0.12</ele>
  <time>2026-09-02T22:06:42Z</time>
  <course>0.0</course>
  <speed>0.0</speed>
  <fix>3d</fix>
</trkpt>
<trkpt lat="33.810313" lon="-118.393867">
  <ele>0.0</ele>
  <time>2026-09-02T22:06:42Z</time>
  <course>187.08</course>
  <speed>0.0</speed>
  <fix>3d</fix>
</trkpt>
<trkpt lat="33.810313" lon="-118.393867">
  <ele>-0.13</ele>
  <time>2026-09-02T22:06:42Z</time>
  <course>0.0</course>
  <speed>0.0</speed>
  <fix>3d</fix>
</trkpt>
<trkpt lat="33.810313" lon="-118.393867">
  <ele>0.0</ele>
  <time>2026-09-02T22:06:42Z</time>
  <course>187.17</course>
  <speed>0.0</speed>
  <fix>3d</fix>
</trkpt>
<trkpt lat="33.810313" lon="-118.393867">
  <ele>-0.13</ele>
  <time>2026-09-02T22:06:42Z</time>
  <course>0.0</course>
  <speed>0.0</speed>
  <fix>3d</fix>
</trkpt>
<trkpt lat="33.810313" lon="-118.393867">
  <ele>0.0</ele>
  <time>2026-09-02T22:06:42Z</time>
  <course>187.24</course>
  <speed>0.0</speed>
  <fix>3d</fix>
</trkpt>
<trkpt lat="33.810313" lon="-118.393867">
  <ele>-0.13</ele>
  <time>2026-09-02T22:06:42Z</time>
  <course>0.0</course>
  <speed>0.0</speed>
  <fix>3d</fix>
</trkpt>
<trkpt lat="33.810313" lon="-118.393867">
  <ele>0.0</ele>
  <time>2026-09-02T22:06:42Z</time>
  <course>187.32</course>
  <speed>0.0</speed>
  <fix>3d</fix>
</trkpt>
<trkpt lat="33.810313" lon="-118.393867">
  <ele>-0.13</ele>
  <time>2026-09-02T22:06:42Z</time>
  <course>0.0</course>
  <speed>0.0</speed>
  <fix>3d</fix>
</trkpt>
<trkpt lat="33.810313" lon="-118.393867">
  <ele>0.0</ele>
  <time>2026-09-02T22:06:42Z</time>
  <course>187.39</course>
  <speed>0.0</speed>
  <fix>3d</fix>
</trkpt>
<trkpt lat="33.810313" lon="-118.393867">
  <ele>-0.13</ele>
  <time>2026-09-02T22:06:42Z</time>
  <course>0.0</course>
  <speed>0.0</speed>
  <fix>3d</fix>
</trkpt>
<trkpt lat="33.810313" lon="-118.393867">
  <ele>0.0</ele>
  <time>2026-09-02T22:06:42Z</time>
  <course>187.46</course>
  <speed>0.0</speed>
  <fix>3d</fix>
</trkpt>
<trkpt lat="33.810313" lon="-118.393867">
  <ele>-0.13</ele>
  <time>2026-09-02T22:06:42Z</time>
  <course>0.0</course>
  <speed>0.0</speed>
  <fix>3d</fix>
</trkpt>
<trkpt lat="33.810313" lon="-118.393867">
  <ele>0.0</ele>
  <time>2026-09-02T22:06:42Z</time>
  <course>187.53</course>
  <speed>0.0</speed>
  <fix>3d</fix>
</trkpt>
<trkpt lat="33.810313" lon="-118.393867">
  <ele>-0.13</ele>
  <time>2026-09-02T22:06:42Z</time>
  <course>0.0</course>
  <speed>0.0</speed>
  <fix>3d</fix>
</trkpt>
<trkpt lat="33.810313" lon="-118.393867">
  <ele>0.0</ele>
  <time>2026-09-02T22:06:42Z</time>
  <course>187.59</course>
  <speed>0.0</speed>
  <fix>3d</fix>
</trkpt>
<trkpt lat="33.810313" lon="-118.393867">
  <ele>-0.13</ele>
  <time>2026-09-02T22:06:42Z</time>
  <course>0.0</course>
  <speed>0.0</speed>
  <fix>3d</fix>
</trkpt>
<trkpt lat="33.810313" lon="-118.393867">
  <ele>0.0</ele>
  <time>2026-09-02T22:06:42Z</time>
  <course>187.65</course>
  <speed>0.0</speed>
  <fix>3d</fix>
</trkpt>
<trkpt lat="33.810313" lon="-118.393867">
  <ele>-0.12</ele>
  <time>2026-09-02T22:06:42Z</time>
  <course>0.0</course>
  <speed>0.0</speed>
  <fix>3d</fix>
</trkpt>
<trkpt lat="33.810313" lon="-118.393867">
  <ele>0.0</ele>
  <time>2026-09-02T22:06:42Z</time>
  <course>187.7</course>
  <speed>0.0</speed>
  <fix>3d</fix>
</trkpt>
<trkpt lat="33.810313" lon="-118.393867">
  <ele>-0.12</ele>
  <time>2026-09-02T22:06:42Z</time>
  <course>0.0</course>
  <speed>0.0</speed>
  <fix>3d</fix>
</trkpt>
<trkpt lat="33.810313" lon="-118.393867">
  <ele>0.0</ele>
  <time>2026-09-02T22:06:42Z</time>
  <course>187.76</course>
  <speed>0.0</speed>
  <fix>3d</fix>
</trkpt>
<trkpt lat="33.810313" lon="-118.393867">
  <ele>-0.12</ele>
  <time>2026-09-02T22:06:42Z</time>
  <course>0.0</course>
  <speed>0.0</speed>
  <fix>3d</fix>
</trkpt>
<trkpt lat="33.810313" lon="-118.393867">
  <ele>0.0</ele>
  <time>2026-09-02T22:06:42Z</time>
  <course>187.81</course>
  <speed>0.0</speed>
  <fix>3d</fix>
</trkpt>
<trkpt lat="33.810313" lon="-118.393867">
  <ele>-0.12</ele>
  <time>2026-09-02T22:06:42Z</time>
  <course>0.0</course>
  <speed>0.0</speed>
  <fix>3d</fix>
</trkpt>
<trkpt lat="33.810313" lon="-118.393867">
  <ele>0.0</ele>
  <time>2026-09-02T22:06:42Z</time>
  <course>187.86</course>
  <speed>0.0</speed>
  <fix>3d</fix>
</trkpt>
<trkpt lat="33.810313" lon="-118.393867">
  <ele>-0.12</ele>
  <time>2026-09-02T22:06:42Z</time>
  <course>0.0</course>
  <speed>0.0</speed>
  <fix>3d</fix>
</trkpt>
<trkpt lat="33.810313" lon="-118.393867">
  <ele>0.0</ele>
  <time>2026-09-02T22:06:42Z</time>
  <course>187.9</course>
  <speed>0.0</speed>
  <fix>3d</fix>
</trkpt>
<trkpt lat="33.810313" lon="-118.393867">
  <ele>-0.12</ele>
  <time>2026-09-02T22:06:42Z</time>
  <course>0.0</course>
  <speed>0.0</speed>
  <fix>3d</fix>
</trkpt>
<trkpt lat="33.810313" lon="-118.393867">
  <ele>0.0</ele>
  <time>2026-09-02T22:06:42Z</time>
  <course>187.94</course>
  <speed>0.0</speed>
  <fix>3d</fix>
</trkpt>
<trkpt lat="33.810313" lon="-118.393867">
  <ele>-0.12</ele>
  <time>2026-09-02T22:06:42Z</time>
  <course>0.0</course>
  <speed>0.0</speed>
  <fix>3d</fix>
</trkpt>
<trkpt lat="33.810313" lon="-118.393867">
  <ele>0.0</ele>
  <time>2026-09-02T22:06:42Z</time>
  <course>187.99</course>
  <speed>0.0</speed>
  <fix>3d</fix>
</trkpt>
<trkpt lat="33.810313" lon="-118.393867">
  <ele>-0.12</ele>
  <time>2026-09-02T22:06:42Z</time>
  <course>0.0</course>
  <speed>0.0</speed>
  <fix>3d</fix>
</trkpt>
<trkpt lat="33.810313" lon="-118.393867">
  <ele>0.0</ele>
  <time>2026-09-02T22:06:42Z</time>
  <course>188.02</course>
  <speed>0.0</speed>
  <fix>3d</fix>
</trkpt>
<trkpt lat="33.810313" lon="-118.393867">
  <ele>-0.12</ele>
  <time>2026-09-02T22:06:42Z</time>
  <course>0.0</course>
  <speed>0.0</speed>
  <fix>3d</fix>
</trkpt>
<trkpt lat="33.810313" lon="-118.393867">
  <ele>0.0</ele>
  <time>2026-09-02T22:06:42Z</time>
  <course>188.06</course>
  <speed>0.0</speed>
  <fix>3d</fix>
</trkpt>
<trkpt lat="33.810313" lon="-118.393867">
  <ele>-0.12</ele>
  <time>2026-09-02T22:06:42Z</time>
  <course>0.0</course>
  <speed>0.0</speed>
  <fix>3d</fix>
</trkpt>
<trkpt lat="33.810313" lon="-118.393867">
  <ele>0.0</ele>
  <time>2026-09-02T22:06:42Z</time>
  <course>188.1</course>
  <speed>0.0</speed>
  <fix>3d</fix>
</trkpt>
<trkpt lat="33.810313" lon="-118.393867">
  <ele>-0.13</ele>
  <time>2026-09-02T22:06:42Z</time>
  <course>0.0</course>
  <speed>0.0</speed>
  <fix>3d</fix>
</trkpt>
<trkpt lat="33.810313" lon="-118.393867">
  <ele>0.0</ele>
  <time>2026-09-02T22:06:42Z</time>
  <course>188.13</course>
  <speed>0.0</speed>
  <fix>3d</fix>
</trkpt>
<trkpt lat="33.810313" lon="-118.393867">
  <ele>-0.13</ele>
  <time>2026-09-02T22:06:42Z</time>
  <course>0.0</course>
  <speed>0.0</speed>
  <fix>3d</fix>
</trkpt>
<trkpt lat="33.810313" lon="-118.393867">
  <ele>0.0</ele>
  <time>2026-09-02T22:06:42Z</time>
  <course>188.16</course>
  <speed>0.0</speed>
  <fix>3d</fix>
</trkpt>
<trkpt lat="33.810313" lon="-118.393867">
  <ele>-0.13</ele>
  <time>2026-09-02T22:06:42Z</time>
  <course>0.0</course>
  <speed>0.0</speed>
  <fix>3d</fix>
</trkpt>
<trkpt lat="33.810313" lon="-118.393867">
  <ele>0.0</ele>
  <time>2026-09-02T22:06:42Z</time>
  <course>188.19</course>
  <speed>0.0</speed>
  <fix>3d</fix>
</trkpt>
<trkpt lat="33.810313" lon="-118.393867">
  <ele>-0.13</ele>
  <time>2026-09-02T22:06:42Z</time>
  <course>0.0</course>
  <speed>0.0</speed>
  <fix>3d</fix>
</trkpt>
<trkpt lat="33.810313" lon="-118.393867">
  <ele>0.0</ele>
  <time>2026-09-02T22:06:42Z</time>
  <course>188.22</course>
  <speed>0.0</speed>
  <fix>3d</fix>
</trkpt>
<trkpt lat="33.810313" lon="-118.393867">
  <ele>-0.13</ele>
  <time>2026-09-02T22:06:42Z</time>
  <course>0.0</course>
  <speed>0.0</speed>
  <fix>3d</fix>
</trkpt>
<trkpt lat="33.810313" lon="-118.393867">
  <ele>0.0</ele>
  <time>2026-09-02T22:06:42Z</time>
  <course>188.24</course>
  <speed>0.0</speed>
  <fix>3d</fix>
</trkpt>
<trkpt lat="33.810313" lon="-118.393867">
  <ele>-0.13</ele>
  <time>2026-09-02T22:06:42Z</time>
  <course>0.0</course>
  <speed>0.0</speed>
  <fix>3d</fix>
</trkpt>
<trkpt lat="33.810313" lon="-118.393867">
  <ele>0.0</ele>
  <time>2026-09-02T22:06:42Z</time>
  <course>188.27</course>
  <speed>0.0</speed>
  <fix>3d</fix>
</trkpt>
<trkpt lat="33.810313" lon="-118.393867">
  <ele>-0.12</ele>
  <time>2026-09-02T22:06:42Z</time>
  <course>0.0</course>
  <speed>0.0</speed>
  <fix>3d</fix>
</trkpt>
<trkpt lat="33.810313" lon="-118.393867">
  <ele>0.0</ele>
  <time>2026-09-02T22:06:42Z</time>
  <course>188.29</course>
  <speed>0.0</speed>
  <fix>3d</fix>
</trkpt>
<trkpt lat="33.810313" lon="-118.393867">
  <ele>-0.12</ele>
  <time>2026-09-02T22:06:42Z</time>
  <course>0.0</course>
  <speed>0.0</speed>
  <fix>3d</fix>
</trkpt>
<trkpt lat="33.810313" lon="-118.393867">
  <ele>0.0</ele>
  <time>2026-09-02T22:06:42Z</time>
  <course>188.32</course>
  <speed>0.0</speed>
  <fix>3d</fix>
</trkpt>
<trkpt lat="33.810313" lon="-118.393867">
  <ele>-0.12</ele>
  <time>2026-09-02T22:06:42Z</time>
  <course>0.0</course>
  <speed>0.0</speed>
  <fix>3d</fix>
</trkpt>
<trkpt lat="33.810313" lon="-118.393867">
  <ele>0.0</ele>
  <time>2026-09-02T22:06:42Z</time>
  <course>188.34</course>
  <speed>0.0</speed>
  <fix>3d</fix>
</trkpt>
<trkpt lat="33.810313" lon="-118.393867">
  <ele>-0.12</ele>
  <time>2026-09-02T22:06:42Z</time>
  <course>0.0</course>
  <speed>0.0</speed>
  <fix>3d</fix>
</trkpt>
<trkpt lat="33.810313" lon="-118.393867">
  <ele>0.0</ele>
  <time>2026-09-02T22:06:42Z</time>
  <course>188.36</course>
  <speed>0.0</speed>
  <fix>3d</fix>
</trkpt>
<trkpt lat="33.810313" lon="-118.393867">
  <ele>-0.12</ele>
  <time>2026-09-02T22:06:42Z</time>
  <course>0.0</course>
  <speed>0.0</speed>
  <fix>3d</fix>
</trkpt>
<trkpt lat="33.810313" lon="-118.393867">
  <ele>0.0</ele>
  <time>2026-09-02T22:06:42Z</time>
  <course>188.38</course>
  <speed>0.0</speed>
  <fix>3d</fix>
</trkpt>
<trkpt lat="33.810313" lon="-118.393867">
  <ele>-0.12</ele>
  <time>2026-09-02T22:06:42Z</time>
  <course>0.0</course>
  <speed>0.0</speed>
  <fix>3d</fix>
</trkpt>
<trkpt lat="33.810313" lon="-118.393867">
  <ele>0.0</ele>
  <time>2026-09-02T22:06:42Z</time>
  <course>188.39</course>
  <speed>0.0</speed>
  <fix>3d</fix>
</trkpt>
<trkpt lat="33.810313" lon="-118.393867">
  <ele>-0.12</ele>
  <time>2026-09-02T22:06:42Z</time>
  <course>0.0</course>
  <speed>0.0</speed>
  <fix>3d</fix>
</trkpt>
<trkpt lat="33.810313" lon="-118.393867">
  <ele>0.0</ele>
  <time>2026-09-02T22:06:42Z</time>
  <course>188.41</course>
  <speed>0.0</speed>
  <fix>3d</fix>
</trkpt>
<trkpt lat="33.810313" lon="-118.393867">
  <ele>-0.12</ele>
  <time>2026-09-02T22:06:42Z</time>
  <course>0.0</course>
  <speed>0.0</speed>
  <fix>3d</fix>
</trkpt>
<trkpt lat="33.810313" lon="-118.393867">
  <ele>0.0</ele>
  <time>2026-09-02T22:06:42Z</time>
  <course>188.42</course>
  <speed>0.0</speed>
  <fix>3d</fix>
</trkpt>
<trkpt lat="33.810313" lon="-118.393867">
  <ele>-0.12</ele>
  <time>2026-09-02T22:06:42Z</time>
  <course>0.0</course>
  <speed>0.0</speed>
  <fix>3d</fix>
</trkpt>
<trkpt lat="33.810313" lon="-118.393867">
  <ele>0.0</ele>
  <time>2026-09-02T22:06:42Z</time>
  <course>188.44</course>
  <speed>0.0</speed>
  <fix>3d</fix>
</trkpt>
<trkpt lat="33.810313" lon="-118.393867">
  <ele>-0.12</ele>
  <time>2026-09-02T22:06:42Z</time>
  <course>0.0</course>
  <speed>0.0</speed>
  <fix>3d</fix>
</trkpt>
<trkpt lat="33.810313" lon="-118.393867">
  <ele>0.0</ele>
  <time>2026-09-02T22:06:42Z</time>
  <course>188.45</course>
  <speed>0.0</speed>
  <fix>3d</fix>
</trkpt>
<trkpt lat="33.810313" lon="-118.393867">
  <ele>-0.13</ele>
  <time>2026-09-02T22:06:42Z</time>
  <course>0.0</course>
  <speed>0.0</speed>
  <fix>3d</fix>
</trkpt>
<trkpt lat="33.810313" lon="-118.393867">
  <ele>0.0</ele>
  <time>2026-09-02T22:06:42Z</time>
  <course>188.46</course>
  <speed>0.0</speed>
  <fix>3d</fix>
</trkpt>
<trkpt lat="33.810313" lon="-118.393867">
  <ele>-0.13</ele>
  <time>2026-09-02T22:06:42Z</time>
  <course>0.0</course>
  <speed>0.0</speed>
  <fix>3d</fix>
</trkpt>
<trkpt lat="33.810313" lon="-118.393867">
  <ele>0.0</ele>
  <time>2026-09-02T22:06:42Z</time>
  <course>188.47</course>
  <speed>0.0</speed>
  <fix>3d</fix>
</trkpt>
<trkpt lat="33.810313" lon="-118.393867">
  <ele>-0.13</ele>
  <time>2026-09-02T22:06:42Z</time>
  <course>0.0</course>
  <speed>0.0</speed>
  <fix>3d</fix>
</trkpt>
<trkpt lat="33.810313" lon="-118.393867">
  <ele>0.0</ele>
  <time>2026-09-02T22:06:42Z</time>
  <course>188.48</course>
  <speed>0.0</speed>
  <fix>3d</fix>
</trkpt>
<trkpt lat="33.810313" lon="-118.393867">
  <ele>-0.13</ele>
  <time>2026-09-02T22:06:42Z</time>
  <course>0.0</course>
  <speed>0.0</speed>
  <fix>3d</fix>
</trkpt>
<trkpt lat="33.810313" lon="-118.393867">
  <ele>0.0</ele>
  <time>2026-09-02T22:06:42Z</time>
  <course>188.49</course>
  <speed>0.0</speed>
  <fix>3d</fix>
</trkpt>
<trkpt lat="33.810313" lon="-118.393867">
  <ele>-0.13</ele>
  <time>2026-09-02T22:06:42Z</time>
  <course>0.0</course>
  <speed>0.0</speed>
  <fix>3d</fix>
</trkpt>
<trkpt lat="33.810313" lon="-118.393867">
  <ele>0.0</ele>
  <time>2026-09-02T22:06:42Z</time>
  <course>188.5</course>
  <speed>0.0</speed>
  <fix>3d</fix>
</trkpt>
<trkpt lat="33.810313" lon="-118.393867">
  <ele>-0.13</ele>
  <time>2026-09-02T22:06:42Z</time>
  <course>0.0</course>
  <speed>0.0</speed>
  <fix>3d</fix>
</trkpt>
<trkpt lat="33.810313" lon="-118.393867">
  <ele>0.0</ele>
  <time>2026-09-02T22:06:42Z</time>
  <course>188.51</course>
  <speed>0.0</speed>
  <fix>3d</fix>
</trkpt>
<trkpt lat="33.810313" lon="-118.393867">
  <ele>-0.12</ele>
  <time>2026-09-02T22:06:42Z</time>
  <course>0.0</course>
  <speed>0.0</speed>
  <fix>3d</fix>
</trkpt>
<trkpt lat="33.810313" lon="-118.393867">
  <ele>0.0</ele>
  <time>2026-09-02T22:06:42Z</time>
  <course>188.52</course>
  <speed>0.0</speed>
  <fix>3d</fix>
</trkpt>
<trkpt lat="33.810313" lon="-118.393867">
  <ele>-0.12</ele>
  <time>2026-09-02T22:06:42Z</time>
  <course>0.0</course>
  <speed>0.0</speed>
  <fix>3d</fix>
</trkpt>
<trkpt lat="33.810313" lon="-118.393867">
  <ele>0.0</ele>
  <time>2026-09-02T22:06:42Z</time>
  <course>188.53</course>
  <speed>0.0</speed>
  <fix>3d</fix>
</trkpt>
<trkpt lat="33.810313" lon="-118.393867">
  <ele>-0.12</ele>
  <time>2026-09-02T22:06:42Z</time>
  <course>0.0</course>
  <speed>0.0</speed>
  <fix>3d</fix>
</trkpt>
<trkpt lat="33.810313" lon="-118.393867">
  <ele>0.0</ele>
  <time>2026-09-02T22:06:42Z</time>
  <course>188.53</course>
  <speed>0.0</speed>
  <fix>3d</fix>
</trkpt>
<trkpt lat="33.810313" lon="-118.393867">
  <ele>-0.12</ele>
  <time>2026-09-02T22:06:42Z</time>
  <course>0.0</course>
  <speed>0.0</speed>
  <fix>3d</fix>
</trkpt>
<trkpt lat="33.810313" lon="-118.393867">
  <ele>0.0</ele>
  <time>2026-09-02T22:06:42Z</time>
  <course>188.54</course>
  <speed>0.0</speed>
  <fix>3d</fix>
</trkpt>
<trkpt lat="33.810313" lon="-118.393867">
  <ele>-0.12</ele>
  <time>2026-09-02T22:06:42Z</time>
  <course>0.0</course>
  <speed>0.0</speed>
  <fix>3d</fix>
</trkpt>
<trkpt lat="33.810313" lon="-118.393867">
  <ele>0.0</ele>
  <time>2026-09-02T22:06:42Z</time>
  <course>188.54</course>
  <speed>0.0</speed>
  <fix>3d</fix>
</trkpt>
<trkpt lat="33.810313" lon="-118.393867">
  <ele>-0.12</ele>
  <time>2026-09-02T22:06:42Z</time>
  <course>0.0</course>
  <speed>0.0</speed>
  <fix>3d</fix>
</trkpt>
<trkpt lat="33.810313" lon="-118.393867">
  <ele>0.0</ele>
  <time>2026-09-02T22:06:42Z</time>
  <course>188.54</course>
  <speed>0.0</speed>
  <fix>3d</fix>
</trkpt>
<trkpt lat="33.810313" lon="-118.393867">
  <ele>-0.12</ele>
  <time>2026-09-02T22:06:42Z</time>
  <course>0.0</course>
  <speed>0.0</speed>
  <fix>3d</fix>
</trkpt>
<trkpt lat="33.810313" lon="-118.393867">
  <ele>0.0</ele>
  <time>2026-09-02T22:06:42Z</time>
  <course>188.55</course>
  <speed>0.0</speed>
  <fix>3d</fix>
</trkpt>
<trkpt lat="33.810313" lon="-118.393867">
  <ele>-0.12</ele>
  <time>2026-09-02T22:06:42Z</time>
  <course>0.0</course>
  <speed>0.0</speed>
  <fix>3d</fix>
</trkpt>
<trkpt lat="33.810313" lon="-118.393867">
  <ele>0.0</ele>
  <time>2026-09-02T22:06:42Z</time>
  <course>188.55</course>
  <speed>0.0</speed>
  <fix>3d</fix>
</trkpt>
<trkpt lat="33.810313" lon="-118.393867">
  <ele>-0.12</ele>
  <time>2026-09-02T22:06:42Z</time>
  <course>0.0</course>
  <speed>0.0</speed>
  <fix>3d</fix>
</trkpt>
<trkpt lat="33.810313" lon="-118.393867">
  <ele>0.0</ele>
  <time>2026-09-02T22:06:42Z</time>
  <course>188.55</course>
  <speed>0.0</speed>
  <fix>3d</fix>
</trkpt>
<trkpt lat="33.810313" lon="-118.393867">
  <ele>-0.12</ele>
  <time>2026-09-02T22:06:42Z</time>
  <course>0.0</course>
  <speed>0.0</speed>
  <fix>3d</fix>
</trkpt>
<trkpt lat="33.810313" lon="-118.393867">
  <ele>-0.126</ele>
  <time>2026-09-02T22:06:42Z</time>
  <course>188.55</course>
  <speed>0.0</speed>
  <fix>3d</fix>
</trkpt>
<trkpt lat="33.810313" lon="-118.393867">
  <ele>-0.13</ele>
  <time>2026-09-02T22:06:42Z</time>
  <course>0.0</course>
  <speed>0.0</speed>
  <fix>3d</fix>
</trkpt>
<trkpt lat="33.810313" lon="-118.393867">
  <ele>-0.126</ele>
  <time>2026-09-02T22:06:42Z</time>
  <course>188.56</course>
  <speed>0.0</speed>
  <fix>3d</fix>
</trkpt>
<trkpt lat="33.810313" lon="-118.393867">
  <ele>-0.13</ele>
  <time>2026-09-02T22:06:42Z</time>
  <course>0.0</course>
  <speed>0.0</speed>
  <fix>3d</fix>
</trkpt>
<trkpt lat="33.810313" lon="-118.393867">
  <ele>-0.125</ele>
  <time>2026-09-02T22:06:42Z</time>
  <course>188.56</course>
  <speed>0.0</speed>
  <fix>3d</fix>
</trkpt>
<trkpt lat="33.810313" lon="-118.393867">
  <ele>-0.13</ele>
  <time>2026-09-02T22:06:42Z</time>
  <course>0.0</course>
  <speed>0.0</speed>
  <fix>3d</fix>
</trkpt>
<trkpt lat="33.810313" lon="-118.393867">
  <ele>-0.123</ele>
  <time>2026-09-02T22:06:42Z</time>
  <course>188.56</course>
  <speed>0.0</speed>
  <fix>3d</fix>
</trkpt>
<trkpt lat="33.810313" lon="-118.393867">
  <ele>-0.13</ele>
  <time>2026-09-02T22:06:42Z</time>
  <course>0.0</course>
  <speed>0.0</speed>
  <fix>3d</fix>
</trkpt>
<trkpt lat="33.810313" lon="-118.393867">
  <ele>-0.121</ele>
  <time>2026-09-02T22:06:42Z</time>
  <course>188.56</course>
  <speed>0.0</speed>
  <fix>3d</fix>
</trkpt>
<trkpt lat="33.810313" lon="-118.393867">
  <ele>-0.12</ele>
  <time>2026-09-02T22:06:42Z</time>
  <course>0.0</course>
  <speed>0.0</speed>
  <fix>3d</fix>
</trkpt>
<trkpt lat="33.810313" lon="-118.393867">
  <ele>-0.12</ele>
  <time>2026-09-02T22:06:42Z</time>
  <course>188.56</course>
  <speed>0.0</speed>
  <fix>3d</fix>
</trkpt>
<trkpt lat="33.810313" lon="-118.393867">
  <ele>-0.12</ele>
  <time>2026-09-02T22:06:42Z</time>
  <course>0.0</course>
  <speed>0.0</speed>
  <fix>3d</fix>
</trkpt>
<trkpt lat="33.810313" lon="-118.393867">
  <ele>-0.119</ele>
  <time>2026-09-02T22:06:42Z</time>
  <course>188.56</course>
  <speed>0.0</speed>
  <fix>3d</fix>
</trkpt>
<trkpt lat="33.810313" lon="-118.393867">
  <ele>-0.12</ele>
  <time>2026-09-02T22:06:42Z</time>
  <course>0.0</course>
  <speed>0.0</speed>
  <fix>3d</fix>
</trkpt>
<trkpt lat="33.810313" lon="-118.393867">
  <ele>-0.12</ele>
  <time>2026-09-02T22:06:42Z</time>
  <course>188.56</course>
  <speed>0.0</speed>
  <fix>3d</fix>
</trkpt>
<trkpt lat="33.810313" lon="-118.393867">
  <ele>-0.12</ele>
  <time>2026-09-02T22:06:42Z</time>
  <course>0.0</course>
  <speed>0.0</speed>
  <fix>3d</fix>
</trkpt>
<trkpt lat="33.810313" lon="-118.393867">
  <ele>-0.123</ele>
  <time>2026-09-02T22:06:42Z</time>
  <course>188.55</course>
  <speed>0.0</speed>
  <fix>3d</fix>
</trkpt>
<trkpt lat="33.810313" lon="-118.393867">
  <ele>-0.12</ele>
  <time>2026-09-02T22:06:42Z</time>
  <course>0.0</course>
  <speed>0.0</speed>
  <fix>3d</fix>
</trkpt>
<trkpt lat="33.810313" lon="-118.393867">
  <ele>-0.127</ele>
  <time>2026-09-02T22:06:42Z</time>
  <course>188.55</course>
  <speed>0.0</speed>
  <fix>3d</fix>
</trkpt>
<trkpt lat="33.810313" lon="-118.393867">
  <ele>-0.12</ele>
  <time>2026-09-02T22:06:42Z</time>
  <course>0.0</course>
  <speed>0.0</speed>
  <fix>3d</fix>
</trkpt>
<trkpt lat="33.810313" lon="-118.393867">
  <ele>-0.13</ele>
  <time>2026-09-02T22:06:42Z</time>
  <course>188.55</course>
  <speed>0.0</speed>
  <fix>3d</fix>
</trkpt>
<trkpt lat="33.810313" lon="-118.393867">
  <ele>-0.12</ele>
  <time>2026-09-02T22:06:42Z</time>
  <course>0.0</course>
  <speed>0.0</speed>
  <fix>3d</fix>
</trkpt>
<trkpt lat="33.810313" lon="-118.393867">
  <ele>-0.132</ele>
  <time>2026-09-02T22:06:42Z</time>
  <course>188.55</course>
  <speed>0.0</speed>
  <fix>3d</fix>
</trkpt>
<trkpt lat="33.810313" lon="-118.393867">
  <ele>-0.12</ele>
  <time>2026-09-02T22:06:42Z</time>
  <course>0.0</course>
  <speed>0.0</speed>
  <fix>3d</fix>
</trkpt>
<trkpt lat="33.810313" lon="-118.393867">
  <ele>-0.132</ele>
  <time>2026-09-02T22:06:42Z</time>
  <course>188.55</course>
  <speed>0.0</speed>
  <fix>3d</fix>
</trkpt>
<trkpt lat="33.810313" lon="-118.393867">
  <ele>-0.12</ele>
  <time>2026-09-02T22:06:42Z</time>
  <course>0.0</course>
  <speed>0.0</speed>
  <fix>3d</fix>
</trkpt>
<trkpt lat="33.810313" lon="-118.393867">
  <ele>-0.132</ele>
  <time>2026-09-02T22:06:42Z</time>
  <course>188.55</course>
  <speed>0.0</speed>
  <fix>3d</fix>
</trkpt>
<trkpt lat="33.810313" lon="-118.393867">
  <ele>-0.12</ele>
  <time>2026-09-02T22:06:42Z</time>
  <course>0.0</course>
  <speed>0.0</speed>
  <fix>3d</fix>
</trkpt>
<trkpt lat="33.810313" lon="-118.393867">
  <ele>-0.132</ele>
  <time>2026-09-02T22:06:42Z</time>
  <course>188.55</course>
  <speed>0.0</speed>
  <fix>3d</fix>
</trkpt>
<trkpt lat="33.810313" lon="-118.393867">
  <ele>-0.12</ele>
  <time>2026-09-02T22:06:42Z</time>
  <course>0.0</course>
  <speed>0.0</speed>
  <fix>3d</fix>
</trkpt>
<trkpt lat="33.810313" lon="-118.393867">
  <ele>-0.131</ele>
  <time>2026-09-02T22:06:42Z</time>
  <course>188.55</course>
  <speed>0.0</speed>
  <fix>3d</fix>
</trkpt>
<trkpt lat="33.810313" lon="-118.393867">
  <ele>-0.12</ele>
  <time>2026-09-02T22:06:42Z</time>
  <course>0.0</course>
  <speed>0.0</speed>
  <fix>3d</fix>
</trkpt>
<trkpt lat="33.810313" lon="-118.393867">
  <ele>-0.129</ele>
  <time>2026-09-02T22:06:42Z</time>
  <course>188.54</course>
  <speed>0.0</speed>
  <fix>3d</fix>
</trkpt>
<trkpt lat="33.810313" lon="-118.393867">
  <ele>-0.13</ele>
  <time>2026-09-02T22:06:42Z</time>
  <course>0.0</course>
  <speed>0.0</speed>
  <fix>3d</fix>
</trkpt>
<trkpt lat="33.810313" lon="-118.393867">
  <ele>-0.128</ele>
  <time>2026-09-02T22:06:42Z</time>
  <course>188.54</course>
  <speed>0.0</speed>
  <fix>3d</fix>
</trkpt>
<trkpt lat="33.810313" lon="-118.393867">
  <ele>-0.13</ele>
  <time>2026-09-02T22:06:42Z</time>
  <course>0.0</course>
  <speed>0.0</speed>
  <fix>3d</fix>
</trkpt>
<trkpt lat="33.810313" lon="-118.393867">
  <ele>-0.125</ele>
  <time>2026-09-02T22:06:42Z</time>
  <course>188.53</course>
  <speed>0.0</speed>
  <fix>3d</fix>
</trkpt>
<trkpt lat="33.810313" lon="-118.393867">
  <ele>-0.12</ele>
  <time>2026-09-02T22:06:42Z</time>
  <course>0.0</course>
  <speed>0.0</speed>
  <fix>3d</fix>
</trkpt>
<trkpt lat="33.810313" lon="-118.393867">
  <ele>-0.123</ele>
  <time>2026-09-02T22:06:42Z</time>
  <course>188.53</course>
  <speed>0.0</speed>
  <fix>3d</fix>
</trkpt>
<trkpt lat="33.810313" lon="-118.393867">
  <ele>-0.12</ele>
  <time>2026-09-02T22:06:42Z</time>
  <course>0.0</course>
  <speed>0.0</speed>
  <fix>3d</fix>
</trkpt>
<trkpt lat="33.810313" lon="-118.393867">
  <ele>-0.121</ele>
  <time>2026-09-02T22:06:42Z</time>
  <course>188.52</course>
  <speed>0.0</speed>
  <fix>3d</fix>
</trkpt>
<trkpt lat="33.810313" lon="-118.393867">
  <ele>-0.12</ele>
  <time>2026-09-02T22:06:42Z</time>
  <course>0.0</course>
  <speed>0.0</speed>
  <fix>3d</fix>
</trkpt>
<trkpt lat="33.810313" lon="-118.393867">
  <ele>-0.121</ele>
  <time>2026-09-02T22:06:42Z</time>
  <course>188.52</course>
  <speed>0.0</speed>
  <fix>3d</fix>
</trkpt>
<trkpt lat="33.810313" lon="-118.393867">
  <ele>-0.12</ele>
  <time>2026-09-02T22:06:42Z</time>
  <course>0.0</course>
  <speed>0.0</speed>
  <fix>3d</fix>
</trkpt>
<trkpt lat="33.810313" lon="-118.393867">
  <ele>-0.121</ele>
  <time>2026-09-02T22:06:42Z</time>
  <course>188.51</course>
  <speed>0.0</speed>
  <fix>3d</fix>
</trkpt>
<trkpt lat="33.810313" lon="-118.393867">
  <ele>-0.12</ele>
  <time>2026-09-02T22:06:42Z</time>
  <course>0.0</course>
  <speed>0.0</speed>
  <fix>3d</fix>
</trkpt>
<trkpt lat="33.810313" lon="-118.393867">
  <ele>-0.123</ele>
  <time>2026-09-02T22:06:42Z</time>
  <course>188.51</course>
  <speed>0.0</speed>
  <fix>3d</fix>
</trkpt>
<trkpt lat="33.810313" lon="-118.393867">
  <ele>-0.12</ele>
  <time>2026-09-02T22:06:42Z</time>
  <course>0.0</course>
  <speed>0.0</speed>
  <fix>3d</fix>
</trkpt>
<trkpt lat="33.810313" lon="-118.393867">
  <ele>-0.126</ele>
  <time>2026-09-02T22:06:42Z</time>
  <course>188.5</course>
  <speed>0.0</speed>
  <fix>3d</fix>
</trkpt>
<trkpt lat="33.810313" lon="-118.393867">
  <ele>-0.12</ele>
  <time>2026-09-02T22:06:42Z</time>
  <course>0.0</course>
  <speed>0.0</speed>
  <fix>3d</fix>
</trkpt>
<trkpt lat="33.810313" lon="-118.393867">
  <ele>-0.127</ele>
  <time>2026-09-02T22:06:42Z</time>
  <course>188.5</course>
  <speed>0.0</speed>
  <fix>3d</fix>
</trkpt>
<trkpt lat="33.810313" lon="-118.393867">
  <ele>-0.12</ele>
  <time>2026-09-02T22:06:42Z</time>
  <course>0.0</course>
  <speed>0.0</speed>
  <fix>3d</fix>
</trkpt>
<trkpt lat="33.810313" lon="-118.393867">
  <ele>-0.128</ele>
  <time>2026-09-02T22:06:42Z</time>
  <course>188.49</course>
  <speed>0.0</speed>
  <fix>3d</fix>
</trkpt>
<trkpt lat="33.810313" lon="-118.393867">
  <ele>-0.12</ele>
  <time>2026-09-02T22:06:42Z</time>
  <course>0.0</course>
  <speed>0.0</speed>
  <fix>3d</fix>
</trkpt>
<trkpt lat="33.810313" lon="-118.393867">
  <ele>-0.127</ele>
  <time>2026-09-02T22:06:42Z</time>
  <course>188.49</course>
  <speed>0.0</speed>
  <fix>3d</fix>
</trkpt>
<trkpt lat="33.810313" lon="-118.393867">
  <ele>-0.12</ele>
  <time>2026-09-02T22:06:42Z</time>
  <course>0.0</course>
  <speed>0.0</speed>
  <fix>3d</fix>
</trkpt>
<trkpt lat="33.810313" lon="-118.393867">
  <ele>-0.127</ele>
  <time>2026-09-02T22:06:42Z</time>
  <course>188.48</course>
  <speed>0.0</speed>
  <fix>3d</fix>
</trkpt>
<trkpt lat="33.810313" lon="-118.393867">
  <ele>-0.12</ele>
  <time>2026-09-02T22:06:42Z</time>
  <course>0.0</course>
  <speed>0.0</speed>
  <fix>3d</fix>
</trkpt>
<trkpt lat="33.810313" lon="-118.393867">
  <ele>-0.127</ele>
  <time>2026-09-02T22:06:42Z</time>
  <course>188.47</course>
  <speed>0.01</speed>
  <fix>3d</fix>
</trkpt>
<trkpt lat="33.810313" lon="-118.393867">
  <ele>-0.12</ele>
  <time>2026-09-02T22:06:42Z</time>
  <course>0.0</course>
  <speed>0.0</speed>
  <fix>3d</fix>
</trkpt>
<trkpt lat="33.810313" lon="-118.393867">
  <ele>-0.127</ele>
  <time>2026-09-02T22:06:42Z</time>
  <course>188.47</course>
  <speed>0.01</speed>
  <fix>3d</fix>
</trkpt>
<trkpt lat="33.810313" lon="-118.393867">
  <ele>-0.12</ele>
  <time>2026-09-02T22:06:42Z</time>
  <course>0.0</course>
  <speed>0.0</speed>
  <fix>3d</fix>
</trkpt>
<trkpt lat="33.810313" lon="-118.393867">
  <ele>-0.127</ele>
  <time>2026-09-02T22:06:42Z</time>
  <course>188.46</course>
  <speed>0.01</speed>
  <fix>3d</fix>
</trkpt>
<trkpt lat="33.810313" lon="-118.393867">
  <ele>-0.12</ele>
  <time>2026-09-02T22:06:42Z</time>
  <course>0.0</course>
  <speed>0.0</speed>
  <fix>3d</fix>
</trkpt>
<trkpt lat="33.810313" lon="-118.393867">
  <ele>-0.126</ele>
  <time>2026-09-02T22:06:42Z</time>
  <course>188.45</course>
  <speed>0.01</speed>
  <fix>3d</fix>
</trkpt>
<trkpt lat="33.810313" lon="-118.393867">
  <ele>-0.12</ele>
  <time>2026-09-02T22:06:42Z</time>
  <course>0.0</course>
  <speed>0.0</speed>
  <fix>3d</fix>
</trkpt>
<trkpt lat="33.810313" lon="-118.393867">
  <ele>-0.126</ele>
  <time>2026-09-02T22:06:42Z</time>
  <course>188.45</course>
  <speed>0.01</speed>
  <fix>3d</fix>
</trkpt>
<trkpt lat="33.810313" lon="-118.393867">
  <ele>-0.12</ele>
  <time>2026-09-02T22:06:42Z</time>
  <course>0.0</course>
  <speed>0.0</speed>
  <fix>3d</fix>
</trkpt>
<trkpt lat="33.810313" lon="-118.393867">
  <ele>-0.125</ele>
  <time>2026-09-02T22:06:42Z</time>
  <course>188.44</course>
  <speed>0.01</speed>
  <fix>3d</fix>
</trkpt>
<trkpt lat="33.810313" lon="-118.393867">
  <ele>-0.12</ele>
  <time>2026-09-02T22:06:42Z</time>
  <course>0.0</course>
  <speed>0.0</speed>
  <fix>3d</fix>
</trkpt>
<trkpt lat="33.810313" lon="-118.393867">
  <ele>-0.126</ele>
  <time>2026-09-02T22:06:42Z</time>
  <course>188.43</course>
  <speed>0.01</speed>
  <fix>3d</fix>
</trkpt>
<trkpt lat="33.810313" lon="-118.393867">
  <ele>-0.12</ele>
  <time>2026-09-02T22:06:42Z</time>
  <course>0.0</course>
  <speed>0.0</speed>
  <fix>3d</fix>
</trkpt>
<trkpt lat="33.810313" lon="-118.393867">
  <ele>-0.127</ele>
  <time>2026-09-02T22:06:42Z</time>
  <course>188.42</course>
  <speed>0.01</speed>
  <fix>3d</fix>
</trkpt>
<trkpt lat="33.810313" lon="-118.393867">
  <ele>-0.12</ele>
  <time>2026-09-02T22:06:42Z</time>
  <course>0.0</course>
  <speed>0.0</speed>
  <fix>3d</fix>
</trkpt>
<trkpt lat="33.810313" lon="-118.393867">
  <ele>-0.128</ele>
  <time>2026-09-02T22:06:42Z</time>
  <course>188.42</course>
  <speed>0.01</speed>
  <fix>3d</fix>
</trkpt>
<trkpt lat="33.810313" lon="-118.393867">
  <ele>-0.12</ele>
  <time>2026-09-02T22:06:42Z</time>
  <course>0.0</course>
  <speed>0.0</speed>
  <fix>3d</fix>
</trkpt>
<trkpt lat="33.810313" lon="-118.393867">
  <ele>-0.129</ele>
  <time>2026-09-02T22:06:42Z</time>
  <course>188.41</course>
  <speed>0.01</speed>
  <fix>3d</fix>
</trkpt>
<trkpt lat="33.810313" lon="-118.393867">
  <ele>-0.12</ele>
  <time>2026-09-02T22:06:42Z</time>
  <course>0.0</course>
  <speed>0.0</speed>
  <fix>3d</fix>
</trkpt>
<trkpt lat="33.810313" lon="-118.393867">
  <ele>-0.129</ele>
  <time>2026-09-02T22:06:42Z</time>
  <course>188.4</course>
  <speed>0.01</speed>
  <fix>3d</fix>
</trkpt>
<trkpt lat="33.810313" lon="-118.393867">
  <ele>-0.12</ele>
  <time>2026-09-02T22:06:42Z</time>
  <course>0.0</course>
  <speed>0.0</speed>
  <fix>3d</fix>
</trkpt>
<trkpt lat="33.810313" lon="-118.393867">
  <ele>-0.13</ele>
  <time>2026-09-02T22:06:42Z</time>
  <course>188.4</course>
  <speed>0.01414213562373095</speed>
  <fix>3d</fix>
</trkpt>
<trkpt lat="33.810313" lon="-118.393867">
  <ele>-0.12</ele>
  <time>2026-09-02T22:06:42Z</time>
  <course>0.0</course>
  <speed>0.0</speed>
  <fix>3d</fix>
</trkpt>
<trkpt lat="33.810313" lon="-118.393867">
  <ele>-0.13</ele>
  <time>2026-09-02T22:06:42Z</time>
  <course>188.39</course>
  <speed>0.01414213562373095</speed>
  <fix>3d</fix>
</trkpt>
<trkpt lat="33.810313" lon="-118.393867">
  <ele>-0.12</ele>
  <time>2026-09-02T22:06:42Z</time>
  <course>0.0</course>
  <speed>0.0</speed>
  <fix>3d</fix>
</trkpt>
<trkpt lat="33.810313" lon="-118.393867">
  <ele>-0.13</ele>
  <time>2026-09-02T22:06:42Z</time>
  <course>188.38</course>
  <speed>0.01414213562373095</speed>
  <fix>3d</fix>
</trkpt>
<trkpt lat="33.810313" lon="-118.393867">
  <ele>-0.12</ele>
  <time>2026-09-02T22:06:42Z</time>
  <course>0.0</course>
  <speed>0.0</speed>
  <fix>3d</fix>
</trkpt>
<trkpt lat="33.810313" lon="-118.393867">
  <ele>-0.129</ele>
  <time>2026-09-02T22:06:43Z</time>
  <course>188.37</course>
  <speed>0.01414213562373095</speed>
  <fix>3d</fix>
</trkpt>
<trkpt lat="33.810313" lon="-118.393867">
  <ele>-0.12</ele>
  <time>2026-09-02T22:06:43Z</time>
  <course>0.0</course>
  <speed>0.0</speed>
  <fix>3d</fix>
</trkpt>
<trkpt lat="33.810313" lon="-118.393867">
  <ele>-0.128</ele>
  <time>2026-09-02T22:06:43Z</time>
  <course>188.37</course>
  <speed>0.01414213562373095</speed>
  <fix>3d</fix>
</trkpt>
<trkpt lat="33.810313" lon="-118.393867">
  <ele>-0.12</ele>
  <time>2026-09-02T22:06:43Z</time>
  <course>0.0</course>
  <speed>0.0</speed>
  <fix>3d</fix>
</trkpt>
<trkpt lat="33.810313" lon="-118.393867">
  <ele>-0.126</ele>
  <time>2026-09-02T22:06:43Z</time>
  <course>188.36</course>
  <speed>0.01414213562373095</speed>
  <fix>3d</fix>
</trkpt>
<trkpt lat="33.810313" lon="-118.393867">
  <ele>-0.12</ele>
  <time>2026-09-02T22:06:43Z</time>
  <course>0.0</course>
  <speed>0.0</speed>
  <fix>3d</fix>
</trkpt>
<trkpt lat="33.810313" lon="-118.393867">
  <ele>-0.124</ele>
  <time>2026-09-02T22:06:43Z</time>
  <course>188.35</course>
  <speed>0.01414213562373095</speed>
  <fix>3d</fix>
</trkpt>
<trkpt lat="33.810313" lon="-118.393867">
  <ele>-0.12</ele>
  <time>2026-09-02T22:06:43Z</time>
  <course>0.0</course>
  <speed>0.0</speed>
  <fix>3d</fix>
</trkpt>
<trkpt lat="33.810313" lon="-118.393867">
  <ele>-0.122</ele>
  <time>2026-09-02T22:06:43Z</time>
  <course>188.34</course>
  <speed>0.01414213562373095</speed>
  <fix>3d</fix>
</trkpt>
<trkpt lat="33.810313" lon="-118.393867">
  <ele>-0.12</ele>
  <time>2026-09-02T22:06:43Z</time>
  <course>0.0</course>
  <speed>0.0</speed>
  <fix>3d</fix>
</trkpt>
<trkpt lat="33.810313" lon="-118.393867">
  <ele>-0.123</ele>
  <time>2026-09-02T22:06:43Z</time>
  <course>188.34</course>
  <speed>0.01414213562373095</speed>
  <fix>3d</fix>
</trkpt>
<trkpt lat="33.810313" lon="-118.393867">
  <ele>-0.12</ele>
  <time>2026-09-02T22:06:43Z</time>
  <course>0.0</course>
  <speed>0.0</speed>
  <fix>3d</fix>
</trkpt>
<trkpt lat="33.810313" lon="-118.393867">
  <ele>-0.125</ele>
  <time>2026-09-02T22:06:43Z</time>
  <course>188.33</course>
  <speed>0.01414213562373095</speed>
  <fix>3d</fix>
</trkpt>
<trkpt lat="33.810313" lon="-118.393867">
  <ele>-0.12</ele>
  <time>2026-09-02T22:06:43Z</time>
  <course>0.0</course>
  <speed>0.0</speed>
  <fix>3d</fix>
</trkpt>
<trkpt lat="33.810313" lon="-118.393867">
  <ele>-0.128</ele>
  <time>2026-09-02T22:06:43Z</time>
  <course>188.32</course>
  <speed>0.01414213562373095</speed>
  <fix>3d</fix>
</trkpt>
<trkpt lat="33.810313" lon="-118.393867">
  <ele>-0.12</ele>
  <time>2026-09-02T22:06:43Z</time>
  <course>0.0</course>
  <speed>0.0</speed>
  <fix>3d</fix>
</trkpt>
<trkpt lat="33.810313" lon="-118.393867">
  <ele>-0.131</ele>
  <time>2026-09-02T22:06:43Z</time>
  <course>188.31</course>
  <speed>0.01414213562373095</speed>
  <fix>3d</fix>
</trkpt>
<trkpt lat="33.810313" lon="-118.393867">
  <ele>-0.12</ele>
  <time>2026-09-02T22:06:43Z</time>
  <course>0.0</course>
  <speed>0.0</speed>
  <fix>3d</fix>
</trkpt>
<trkpt lat="33.810313" lon="-118.393867">
  <ele>-0.134</ele>
  <time>2026-09-02T22:06:43Z</time>
  <course>188.3</course>
  <speed>0.01414213562373095</speed>
  <fix>3d</fix>
</trkpt>
<trkpt lat="33.810313" lon="-118.393867">
  <ele>-0.12</ele>
  <time>2026-09-02T22:06:43Z</time>
  <course>0.0</course>
  <speed>0.0</speed>
  <fix>3d</fix>
</trkpt>
<trkpt lat="33.810313" lon="-118.393867">
  <ele>-0.135</ele>
  <time>2026-09-02T22:06:43Z</time>
  <course>188.3</course>
  <speed>0.01414213562373095</speed>
  <fix>3d</fix>
</trkpt>
<trkpt lat="33.810313" lon="-118.393867">
  <ele>-0.12</ele>
  <time>2026-09-02T22:06:43Z</time>
  <course>0.0</course>
  <speed>0.0</speed>
  <fix>3d</fix>
</trkpt>
<trkpt lat="33.810313" lon="-118.393867">
  <ele>-0.134</ele>
  <time>2026-09-02T22:06:43Z</time>
  <course>188.29</course>
  <speed>0.01414213562373095</speed>
  <fix>3d</fix>
</trkpt>
<trkpt lat="33.810313" lon="-118.393867">
  <ele>-0.12</ele>
  <time>2026-09-02T22:06:43Z</time>
  <course>0.0</course>
  <speed>0.0</speed>
  <fix>3d</fix>
</trkpt>
<trkpt lat="33.810313" lon="-118.393867">
  <ele>-0.132</ele>
  <time>2026-09-02T22:06:43Z</time>
  <course>188.28</course>
  <speed>0.01414213562373095</speed>
  <fix>3d</fix>
</trkpt>
<trkpt lat="33.810313" lon="-118.393867">
  <ele>-0.12</ele>
  <time>2026-09-02T22:06:43Z</time>
  <course>0.0</course>
  <speed>0.0</speed>
  <fix>3d</fix>
</trkpt>
<trkpt lat="33.810313" lon="-118.393867">
  <ele>-0.13</ele>
  <time>2026-09-02T22:06:43Z</time>
  <course>188.27</course>
  <speed>0.01414213562373095</speed>
  <fix>3d</fix>
</trkpt>
<trkpt lat="33.810313" lon="-118.393867">
  <ele>-0.12</ele>
  <time>2026-09-02T22:06:43Z</time>
  <course>0.0</course>
  <speed>0.0</speed>
  <fix>3d</fix>
</trkpt>
<trkpt lat="33.810313" lon="-118.393867">
  <ele>-0.127</ele>
  <time>2026-09-02T22:06:43Z</time>
  <course>188.26</course>
  <speed>0.01414213562373095</speed>
  <fix>3d</fix>
</trkpt>
<trkpt lat="33.810313" lon="-118.393867">
  <ele>-0.12</ele>
  <time>2026-09-02T22:06:43Z</time>
  <course>0.0</course>
  <speed>0.0</speed>
  <fix>3d</fix>
</trkpt>
<trkpt lat="33.810313" lon="-118.393867">
  <ele>-0.125</ele>
  <time>2026-09-02T22:06:43Z</time>
  <course>188.25</course>
  <speed>0.01414213562373095</speed>
  <fix>3d</fix>
</trkpt>
<trkpt lat="33.810313" lon="-118.393867">
  <ele>-0.12</ele>
  <time>2026-09-02T22:06:43Z</time>
  <course>0.0</course>
  <speed>0.0</speed>
  <fix>3d</fix>
</trkpt>
<trkpt lat="33.810313" lon="-118.393867">
  <ele>-0.123</ele>
  <time>2026-09-02T22:06:43Z</time>
  <course>188.25</course>
  <speed>0.01414213562373095</speed>
  <fix>3d</fix>
</trkpt>
<trkpt lat="33.810313" lon="-118.393867">
  <ele>-0.12</ele>
  <time>2026-09-02T22:06:43Z</time>
  <course>0.0</course>
  <speed>0.0</speed>
  <fix>3d</fix>
</trkpt>
<trkpt lat="33.810313" lon="-118.393867">
  <ele>-0.124</ele>
  <time>2026-09-02T22:06:43Z</time>
  <course>188.24</course>
  <speed>0.01414213562373095</speed>
  <fix>3d</fix>
</trkpt>
<trkpt lat="33.810313" lon="-118.393867">
  <ele>-0.12</ele>
  <time>2026-09-02T22:06:43Z</time>
  <course>0.0</course>
  <speed>0.0</speed>
  <fix>3d</fix>
</trkpt>
<trkpt lat="33.810313" lon="-118.393867">
  <ele>-0.125</ele>
  <time>2026-09-02T22:06:43Z</time>
  <course>188.23</course>
  <speed>0.01414213562373095</speed>
  <fix>3d</fix>
</trkpt>
<trkpt lat="33.810313" lon="-118.393867">
  <ele>-0.12</ele>
  <time>2026-09-02T22:06:43Z</time>
  <course>0.0</course>
  <speed>0.0</speed>
  <fix>3d</fix>
</trkpt>
<trkpt lat="33.810313" lon="-118.393867">
  <ele>-0.127</ele>
  <time>2026-09-02T22:06:43Z</time>
  <course>188.22</course>
  <speed>0.01414213562373095</speed>
  <fix>3d</fix>
</trkpt>
<trkpt lat="33.810313" lon="-118.393867">
  <ele>-0.12</ele>
  <time>2026-09-02T22:06:43Z</time>
  <course>0.0</course>
  <speed>0.0</speed>
  <fix>3d</fix>
</trkpt>
<trkpt lat="33.810313" lon="-118.393867">
  <ele>-0.128</ele>
  <time>2026-09-02T22:06:43Z</time>
  <course>188.21</course>
  <speed>0.01414213562373095</speed>
  <fix>3d</fix>
</trkpt>
<trkpt lat="33.810313" lon="-118.393867">
  <ele>-0.12</ele>
  <time>2026-09-02T22:06:43Z</time>
  <course>0.0</course>
  <speed>0.0</speed>
  <fix>3d</fix>
</trkpt>
<trkpt lat="33.810313" lon="-118.393867">
  <ele>-0.129</ele>
  <time>2026-09-02T22:06:43Z</time>
  <course>188.21</course>
  <speed>0.01414213562373095</speed>
  <fix>3d</fix>
</trkpt>
<trkpt lat="33.810313" lon="-118.393867">
  <ele>-0.12</ele>
  <time>2026-09-02T22:06:43Z</time>
  <course>0.0</course>
  <speed>0.0</speed>
  <fix>3d</fix>
</trkpt>
<trkpt lat="33.810313" lon="-118.393867">
  <ele>-0.129</ele>
  <time>2026-09-02T22:06:43Z</time>
  <course>188.2</course>
  <speed>0.01414213562373095</speed>
  <fix>3d</fix>
</trkpt>
<trkpt lat="33.810313" lon="-118.393867">
  <ele>-0.12</ele>
  <time>2026-09-02T22:06:43Z</time>
  <course>0.0</course>
  <speed>0.0</speed>
  <fix>3d</fix>
</trkpt>
<trkpt lat="33.810313" lon="-118.393867">
  <ele>-0.128</ele>
  <time>2026-09-02T22:06:43Z</time>
  <course>188.19</course>
  <speed>0.01414213562373095</speed>
  <fix>3d</fix>
</trkpt>
<trkpt lat="33.810313" lon="-118.393867">
  <ele>-0.12</ele>
  <time>2026-09-02T22:06:43Z</time>
  <course>0.0</course>
  <speed>0.0</speed>
  <fix>3d</fix>
</trkpt>
<trkpt lat="33.810313" lon="-118.393867">
  <ele>-0.128</ele>
  <time>2026-09-02T22:06:43Z</time>
  <course>188.18</course>
  <speed>0.01414213562373095</speed>
  <fix>3d</fix>
</trkpt>
<trkpt lat="33.810313" lon="-118.393867">
  <ele>-0.12</ele>
  <time>2026-09-02T22:06:43Z</time>
  <course>0.0</course>
  <speed>0.0</speed>
  <fix>3d</fix>
</trkpt>
<trkpt lat="33.810313" lon="-118.393867">
  <ele>-0.127</ele>
  <time>2026-09-02T22:06:43Z</time>
  <course>188.17</course>
  <speed>0.01414213562373095</speed>
  <fix>3d</fix>
</trkpt>
<trkpt lat="33.810313" lon="-118.393867">
  <ele>-0.12</ele>
  <time>2026-09-02T22:06:43Z</time>
  <course>0.0</course>
  <speed>0.0</speed>
  <fix>3d</fix>
</trkpt>
<trkpt lat="33.810313" lon="-118.393867">
  <ele>-0.127</ele>
  <time>2026-09-02T22:06:43Z</time>
  <course>188.16</course>
  <speed>0.01414213562373095</speed>
  <fix>3d</fix>
</trkpt>
<trkpt lat="33.810313" lon="-118.393867">
  <ele>-0.12</ele>
  <time>2026-09-02T22:06:43Z</time>
  <course>0.0</course>
  <speed>0.0</speed>
  <fix>3d</fix>
</trkpt>
<trkpt lat="33.810313" lon="-118.393867">
  <ele>-0.128</ele>
  <time>2026-09-02T22:06:43Z</time>
  <course>188.16</course>
  <speed>0.01414213562373095</speed>
  <fix>3d</fix>
</trkpt>
<trkpt lat="33.810313" lon="-118.393867">
  <ele>-0.12</ele>
  <time>2026-09-02T22:06:43Z</time>
  <course>0.0</course>
  <speed>0.0</speed>
  <fix>3d</fix>
</trkpt>
<trkpt lat="33.810313" lon="-118.393867">
  <ele>-0.129</ele>
  <time>2026-09-02T22:06:43Z</time>
  <course>188.15</course>
  <speed>0.01414213562373095</speed>
  <fix>3d</fix>
</trkpt>
<trkpt lat="33.810313" lon="-118.393867">
  <ele>-0.12</ele>
  <time>2026-09-02T22:06:43Z</time>
  <course>0.0</course>
  <speed>0.0</speed>
  <fix>3d</fix>
</trkpt>
<trkpt lat="33.810313" lon="-118.393867">
  <ele>-0.131</ele>
  <time>2026-09-02T22:06:43Z</time>
  <course>188.14</course>
  <speed>0.01414213562373095</speed>
  <fix>3d</fix>
</trkpt>
<trkpt lat="33.810313" lon="-118.393867">
  <ele>-0.12</ele>
  <time>2026-09-02T22:06:43Z</time>
  <course>0.0</course>
  <speed>0.0</speed>
  <fix>3d</fix>
</trkpt>
<trkpt lat="33.810313" lon="-118.393867">
  <ele>-0.133</ele>
  <time>2026-09-02T22:06:43Z</time>
  <course>188.13</course>
  <speed>0.01414213562373095</speed>
  <fix>3d</fix>
</trkpt>
<trkpt lat="33.810313" lon="-118.393867">
  <ele>-0.12</ele>
  <time>2026-09-02T22:06:43Z</time>
  <course>0.0</course>
  <speed>0.0</speed>
  <fix>3d</fix>
</trkpt>
<trkpt lat="33.810313" lon="-118.393867">
  <ele>-0.135</ele>
  <time>2026-09-02T22:06:43Z</time>
  <course>188.12</course>
  <speed>0.01414213562373095</speed>
  <fix>3d</fix>
</trkpt>
<trkpt lat="33.810313" lon="-118.393867">
  <ele>-0.12</ele>
  <time>2026-09-02T22:06:43Z</time>
  <course>0.0</course>
  <speed>0.0</speed>
  <fix>3d</fix>
</trkpt>
<trkpt lat="33.810313" lon="-118.393867">
  <ele>-0.136</ele>
  <time>2026-09-02T22:06:43Z</time>
  <course>188.12</course>
  <speed>0.01414213562373095</speed>
  <fix>3d</fix>
</trkpt>
<trkpt lat="33.810313" lon="-118.393867">
  <ele>-0.12</ele>
  <time>2026-09-02T22:06:43Z</time>
  <course>0.0</course>
  <speed>0.0</speed>
  <fix>3d</fix>
</trkpt>
<trkpt lat="33.810313" lon="-118.393867">
  <ele>-0.136</ele>
  <time>2026-09-02T22:06:43Z</time>
  <course>188.11</course>
  <speed>0.01414213562373095</speed>
  <fix>3d</fix>
</trkpt>
<trkpt lat="33.810313" lon="-118.393867">
  <ele>-0.12</ele>
  <time>2026-09-02T22:06:43Z</time>
  <course>0.0</course>
  <speed>0.0</speed>
  <fix>3d</fix>
</trkpt>
<trkpt lat="33.810313" lon="-118.393867">
  <ele>-0.136</ele>
  <time>2026-09-02T22:06:43Z</time>
  <course>188.1</course>
  <speed>0.01414213562373095</speed>
  <fix>3d</fix>
</trkpt>
<trkpt lat="33.810313" lon="-118.393867">
  <ele>-0.12</ele>
  <time>2026-09-02T22:06:43Z</time>
  <course>0.0</course>
  <speed>0.0</speed>
  <fix>3d</fix>
</trkpt>
<trkpt lat="33.810313" lon="-118.393867">
  <ele>-0.135</ele>
  <time>2026-09-02T22:06:43Z</time>
  <course>188.09</course>
  <speed>0.01414213562373095</speed>
  <fix>3d</fix>
</trkpt>
<trkpt lat="33.810313" lon="-118.393867">
  <ele>-0.12</ele>
  <time>2026-09-02T22:06:43Z</time>
  <course>0.0</course>
  <speed>0.0</speed>
  <fix>3d</fix>
</trkpt>
<trkpt lat="33.810313" lon="-118.393867">
  <ele>-0.134</ele>
  <time>2026-09-02T22:06:43Z</time>
  <course>188.08</course>
  <speed>0.01414213562373095</speed>
  <fix>3d</fix>
</trkpt>
<trkpt lat="33.810313" lon="-118.393867">
  <ele>-0.12</ele>
  <time>2026-09-02T22:06:43Z</time>
  <course>0.0</course>
  <speed>0.0</speed>
  <fix>3d</fix>
</trkpt>
<trkpt lat="33.810313" lon="-118.393867">
  <ele>-0.131</ele>
  <time>2026-09-02T22:06:43Z</time>
  <course>188.07</course>
  <speed>0.022360679774997897</speed>
  <fix>3d</fix>
</trkpt>
<trkpt lat="33.810313" lon="-118.393867">
  <ele>-0.12</ele>
  <time>2026-09-02T22:06:43Z</time>
  <course>0.0</course>
  <speed>0.0</speed>
  <fix>3d</fix>
</trkpt>
<trkpt lat="33.810313" lon="-118.393867">
  <ele>-0.128</ele>
  <time>2026-09-02T22:06:43Z</time>
  <course>188.07</course>
  <speed>0.022360679774997897</speed>
  <fix>3d</fix>
</trkpt>
<trkpt lat="33.810313" lon="-118.393867">
  <ele>-0.12</ele>
  <time>2026-09-02T22:06:43Z</time>
  <course>0.0</course>
  <speed>0.0</speed>
  <fix>3d</fix>
</trkpt>
<trkpt lat="33.810313" lon="-118.393867">
  <ele>-0.127</ele>
  <time>2026-09-02T22:06:43Z</time>
  <course>188.06</course>
  <speed>0.022360679774997897</speed>
  <fix>3d</fix>
</trkpt>
<trkpt lat="33.810313" lon="-118.393867">
  <ele>-0.12</ele>
  <time>2026-09-02T22:06:43Z</time>
  <course>0.0</course>
  <speed>0.0</speed>
  <fix>3d</fix>
</trkpt>
<trkpt lat="33.810313" lon="-118.393867">
  <ele>-0.126</ele>
  <time>2026-09-02T22:06:43Z</time>
  <course>188.05</course>
  <speed>0.022360679774997897</speed>
  <fix>3d</fix>
</trkpt>
<trkpt lat="33.810313" lon="-118.393867">
  <ele>-0.12</ele>
  <time>2026-09-02T22:06:43Z</time>
  <course>0.0</course>
  <speed>0.0</speed>
  <fix>3d</fix>
</trkpt>
<trkpt lat="33.810313" lon="-118.393867">
  <ele>-0.126</ele>
  <time>2026-09-02T22:06:43Z</time>
  <course>188.04</course>
  <speed>0.022360679774997897</speed>
  <fix>3d</fix>
</trkpt>
<trkpt lat="33.810313" lon="-118.393867">
  <ele>-0.12</ele>
  <time>2026-09-02T22:06:43Z</time>
  <course>0.0</course>
  <speed>0.0</speed>
  <fix>3d</fix>
</trkpt>
<trkpt lat="33.810313" lon="-118.393867">
  <ele>-0.127</ele>
  <time>2026-09-02T22:06:43Z</time>
  <course>188.03</course>
  <speed>0.022360679774997897</speed>
  <fix>3d</fix>
</trkpt>
<trkpt lat="33.810313" lon="-118.393867">
  <ele>-0.12</ele>
  <time>2026-09-02T22:06:43Z</time>
  <course>0.0</course>
  <speed>0.0</speed>
  <fix>3d</fix>
</trkpt>
<trkpt lat="33.810313" lon="-118.393867">
  <ele>-0.127</ele>
  <time>2026-09-02T22:06:43Z</time>
  <course>188.03</course>
  <speed>0.022360679774997897</speed>
  <fix>3d</fix>
</trkpt>
<trkpt lat="33.810313" lon="-118.393867">
  <ele>-0.12</ele>
  <time>2026-09-02T22:06:43Z</time>
  <course>0.0</course>
  <speed>0.0</speed>
  <fix>3d</fix>
</trkpt>
<trkpt lat="33.810313" lon="-118.393867">
  <ele>-0.127</ele>
  <time>2026-09-02T22:06:43Z</time>
  <course>188.02</course>
  <speed>0.022360679774997897</speed>
  <fix>3d</fix>
</trkpt>
<trkpt lat="33.810313" lon="-118.393867">
  <ele>-0.12</ele>
  <time>2026-09-02T22:06:43Z</time>
  <course>0.0</course>
  <speed>0.0</speed>
  <fix>3d</fix>
</trkpt>
<trkpt lat="33.810313" lon="-118.393867">
  <ele>-0.128</ele>
  <time>2026-09-02T22:06:43Z</time>
  <course>188.01</course>
  <speed>0.022360679774997897</speed>
  <fix>3d</fix>
</trkpt>
<trkpt lat="33.810313" lon="-118.393867">
  <ele>-0.12</ele>
  <time>2026-09-02T22:06:43Z</time>
  <course>0.0</course>
  <speed>0.0</speed>
  <fix>3d</fix>
</trkpt>
<trkpt lat="33.810313" lon="-118.393867">
  <ele>-0.128</ele>
  <time>2026-09-02T22:06:43Z</time>
  <course>188.0</course>
  <speed>0.022360679774997897</speed>
  <fix>3d</fix>
</trkpt>
<trkpt lat="33.810313" lon="-118.393867">
  <ele>-0.12</ele>
  <time>2026-09-02T22:06:43Z</time>
  <course>0.0</course>
  <speed>0.0</speed>
  <fix>3d</fix>
</trkpt>
<trkpt lat="33.810313" lon="-118.393867">
  <ele>-0.128</ele>
  <time>2026-09-02T22:06:43Z</time>
  <course>187.99</course>
  <speed>0.022360679774997897</speed>
  <fix>3d</fix>
</trkpt>
<trkpt lat="33.810313" lon="-118.393867">
  <ele>-0.12</ele>
  <time>2026-09-02T22:06:43Z</time>
  <course>0.0</course>
  <speed>0.0</speed>
  <fix>3d</fix>
</trkpt>
<trkpt lat="33.810313" lon="-118.393867">
  <ele>-0.126</ele>
  <time>2026-09-02T22:06:43Z</time>
  <course>187.99</course>
  <speed>0.022360679774997897</speed>
  <fix>3d</fix>
</trkpt>
<trkpt lat="33.810313" lon="-118.393867">
  <ele>-0.12</ele>
  <time>2026-09-02T22:06:43Z</time>
  <course>0.0</course>
  <speed>0.0</speed>
  <fix>3d</fix>
</trkpt>
<trkpt lat="33.810313" lon="-118.393867">
  <ele>-0.124</ele>
  <time>2026-09-02T22:06:43Z</time>
  <course>187.98</course>
  <speed>0.022360679774997897</speed>
  <fix>3d</fix>
</trkpt>
<trkpt lat="33.810313" lon="-118.393867">
  <ele>-0.12</ele>
  <time>2026-09-02T22:06:43Z</time>
  <course>0.0</course>
  <speed>0.0</speed>
  <fix>3d</fix>
</trkpt>
<trkpt lat="33.810313" lon="-118.393867">
  <ele>-0.122</ele>
  <time>2026-09-02T22:06:43Z</time>
  <course>187.97</course>
  <speed>0.022360679774997897</speed>
  <fix>3d</fix>
</trkpt>
<trkpt lat="33.810313" lon="-118.393867">
  <ele>-0.12</ele>
  <time>2026-09-02T22:06:43Z</time>
  <course>0.0</course>
  <speed>0.0</speed>
  <fix>3d</fix>
</trkpt>
<trkpt lat="33.810313" lon="-118.393867">
  <ele>-0.12</ele>
  <time>2026-09-02T22:06:43Z</time>
  <course>187.96</course>
  <speed>0.022360679774997897</speed>
  <fix>3d</fix>
</trkpt>
<trkpt lat="33.810313" lon="-118.393867">
  <ele>-0.12</ele>
  <time>2026-09-02T22:06:43Z</time>
  <course>0.0</course>
  <speed>0.0</speed>
  <fix>3d</fix>
</trkpt>
<trkpt lat="33.810313" lon="-118.393867">
  <ele>-0.12</ele>
  <time>2026-09-02T22:06:43Z</time>
  <course>187.95</course>
  <speed>0.022360679774997897</speed>
  <fix>3d</fix>
</trkpt>
<trkpt lat="33.810313" lon="-118.393867">
  <ele>-0.12</ele>
  <time>2026-09-02T22:06:43Z</time>
  <course>0.0</course>
  <speed>0.0</speed>
  <fix>3d</fix>
</trkpt>
<trkpt lat="33.810313" lon="-118.393867">
  <ele>-0.122</ele>
  <time>2026-09-02T22:06:43Z</time>
  <course>187.94</course>
  <speed>0.022360679774997897</speed>
  <fix>3d</fix>
</trkpt>
<trkpt lat="33.810313" lon="-118.393867">
  <ele>-0.12</ele>
  <time>2026-09-02T22:06:43Z</time>
  <course>0.0</course>
  <speed>0.0</speed>
  <fix>3d</fix>
</trkpt>
<trkpt lat="33.810313" lon="-118.393867">
  <ele>-0.125</ele>
  <time>2026-09-02T22:06:43Z</time>
  <course>187.94</course>
  <speed>0.022360679774997897</speed>
  <fix>3d</fix>
</trkpt>
<trkpt lat="33.810313" lon="-118.393867">
  <ele>-0.12</ele>
  <time>2026-09-02T22:06:43Z</time>
  <course>0.0</course>
  <speed>0.0</speed>
  <fix>3d</fix>
</trkpt>
<trkpt lat="33.810313" lon="-118.393867">
  <ele>-0.128</ele>
  <time>2026-09-02T22:06:43Z</time>
  <course>187.93</course>
  <speed>0.022360679774997897</speed>
  <fix>3d</fix>
</trkpt>
<trkpt lat="33.810313" lon="-118.393867">
  <ele>-0.12</ele>
  <time>2026-09-02T22:06:43Z</time>
  <course>0.0</course>
  <speed>0.0</speed>
  <fix>3d</fix>
</trkpt>
<trkpt lat="33.810313" lon="-118.393867">
  <ele>-0.131</ele>
  <time>2026-09-02T22:06:43Z</time>
  <course>187.92</course>
  <speed>0.022360679774997897</speed>
  <fix>3d</fix>
</trkpt>
<trkpt lat="33.810313" lon="-118.393867">
  <ele>-0.12</ele>
  <time>2026-09-02T22:06:43Z</time>
  <course>0.0</course>
  <speed>0.0</speed>
  <fix>3d</fix>
</trkpt>
<trkpt lat="33.810313" lon="-118.393867">
  <ele>-0.132</ele>
  <time>2026-09-02T22:06:43Z</time>
  <course>187.91</course>
  <speed>0.022360679774997897</speed>
  <fix>3d</fix>
</trkpt>
<trkpt lat="33.810313" lon="-118.393867">
  <ele>-0.12</ele>
  <time>2026-09-02T22:06:43Z</time>
  <course>0.0</course>
  <speed>0.0</speed>
  <fix>3d</fix>
</trkpt>
<trkpt lat="33.810313" lon="-118.393867">
  <ele>-0.132</ele>
  <time>2026-09-02T22:06:43Z</time>
  <course>187.91</course>
  <speed>0.022360679774997897</speed>
  <fix>3d</fix>
</trkpt>
<trkpt lat="33.810313" lon="-118.393867">
  <ele>-0.12</ele>
  <time>2026-09-02T22:06:43Z</time>
  <course>0.0</course>
  <speed>0.0</speed>
  <fix>3d</fix>
</trkpt>
<trkpt lat="33.810313" lon="-118.393867">
  <ele>-0.132</ele>
  <time>2026-09-02T22:06:43Z</time>
  <course>187.9</course>
  <speed>0.022360679774997897</speed>
  <fix>3d</fix>
</trkpt>
<trkpt lat="33.810313" lon="-118.393867">
  <ele>-0.12</ele>
  <time>2026-09-02T22:06:43Z</time>
  <course>0.0</course>
  <speed>0.0</speed>
  <fix>3d</fix>
</trkpt>
<trkpt lat="33.810313" lon="-118.393867">
  <ele>-0.13</ele>
  <time>2026-09-02T22:06:43Z</time>
  <course>187.89</course>
  <speed>0.022360679774997897</speed>
  <fix>3d</fix>
</trkpt>
<trkpt lat="33.810313" lon="-118.393867">
  <ele>-0.12</ele>
  <time>2026-09-02T22:06:43Z</time>
  <course>0.0</course>
  <speed>0.0</speed>
  <fix>3d</fix>
</trkpt>
<trkpt lat="33.810313" lon="-118.393867">
  <ele>-0.127</ele>
  <time>2026-09-02T22:06:43Z</time>
  <course>187.88</course>
  <speed>0.022360679774997897</speed>
  <fix>3d</fix>
</trkpt>
<trkpt lat="33.810313" lon="-118.393867">
  <ele>-0.12</ele>
  <time>2026-09-02T22:06:43Z</time>
  <course>0.0</course>
  <speed>0.0</speed>
  <fix>3d</fix>
</trkpt>
<trkpt lat="33.810313" lon="-118.393867">
  <ele>-0.123</ele>
  <time>2026-09-02T22:06:43Z</time>
  <course>187.87</course>
  <speed>0.022360679774997897</speed>
  <fix>3d</fix>
</trkpt>
<trkpt lat="33.810313" lon="-118.393867">
  <ele>-0.12</ele>
  <time>2026-09-02T22:06:43Z</time>
  <course>0.0</course>
  <speed>0.0</speed>
  <fix>3d</fix>
</trkpt>
<trkpt lat="33.810313" lon="-118.393867">
  <ele>-0.121</ele>
  <time>2026-09-02T22:06:43Z</time>
  <course>187.87</course>
  <speed>0.022360679774997897</speed>
  <fix>3d</fix>
</trkpt>
<trkpt lat="33.810313" lon="-118.393867">
  <ele>-0.12</ele>
  <time>2026-09-02T22:06:43Z</time>
  <course>0.0</course>
  <speed>0.0</speed>
  <fix>3d</fix>
</trkpt>
<trkpt lat="33.810313" lon="-118.393867">
  <ele>-0.121</ele>
  <time>2026-09-02T22:06:43Z</time>
  <course>187.86</course>
  <speed>0.022360679774997897</speed>
  <fix>3d</fix>
</trkpt>
<trkpt lat="33.810313" lon="-118.393867">
  <ele>-0.12</ele>
  <time>2026-09-02T22:06:43Z</time>
  <course>0.0</course>
  <speed>0.0</speed>
  <fix>3d</fix>
</trkpt>
<trkpt lat="33.810313" lon="-118.393867">
  <ele>-0.123</ele>
  <time>2026-09-02T22:06:43Z</time>
  <course>187.85</course>
  <speed>0.022360679774997897</speed>
  <fix>3d</fix>
</trkpt>
<trkpt lat="33.810313" lon="-118.393867">
  <ele>-0.12</ele>
  <time>2026-09-02T22:06:43Z</time>
  <course>0.0</course>
  <speed>0.0</speed>
  <fix>3d</fix>
</trkpt>
<trkpt lat="33.810313" lon="-118.393867">
  <ele>-0.124</ele>
  <time>2026-09-02T22:06:43Z</time>
  <course>187.84</course>
  <speed>0.022360679774997897</speed>
  <fix>3d</fix>
</trkpt>
<trkpt lat="33.810313" lon="-118.393867">
  <ele>-0.12</ele>
  <time>2026-09-02T22:06:43Z</time>
  <course>0.0</course>
  <speed>0.0</speed>
  <fix>3d</fix>
</trkpt>
<trkpt lat="33.810313" lon="-118.393867">
  <ele>-0.126</ele>
  <time>2026-09-02T22:06:43Z</time>
  <course>187.83</course>
  <speed>0.022360679774997897</speed>
  <fix>3d</fix>
</trkpt>
<trkpt lat="33.810313" lon="-118.393867">
  <ele>-0.12</ele>
  <time>2026-09-02T22:06:43Z</time>
  <course>0.0</course>
  <speed>0.0</speed>
  <fix>3d</fix>
</trkpt>
<trkpt lat="33.810313" lon="-118.393867">
  <ele>-0.127</ele>
  <time>2026-09-02T22:06:43Z</time>
  <course>187.83</course>
  <speed>0.022360679774997897</speed>
  <fix>3d</fix>
</trkpt>
<trkpt lat="33.810313" lon="-118.393867">
  <ele>-0.12</ele>
  <time>2026-09-02T22:06:43Z</time>
  <course>0.0</course>
  <speed>0.0</speed>
  <fix>3d</fix>
</trkpt>
<trkpt lat="33.810313" lon="-118.393867">
  <ele>-0.127</ele>
  <time>2026-09-02T22:06:43Z</time>
  <course>187.82</course>
  <speed>0.022360679774997897</speed>
  <fix>3d</fix>
</trkpt>
<trkpt lat="33.810313" lon="-118.393867">
  <ele>-0.12</ele>
  <time>2026-09-02T22:06:43Z</time>
  <course>0.0</course>
  <speed>0.0</speed>
  <fix>3d</fix>
</trkpt>
<trkpt lat="33.810313" lon="-118.393867">
  <ele>-0.127</ele>
  <time>2026-09-02T22:06:43Z</time>
  <course>187.81</course>
  <speed>0.022360679774997897</speed>
  <fix>3d</fix>
</trkpt>
<trkpt lat="33.810313" lon="-118.393867">
  <ele>-0.12</ele>
  <time>2026-09-02T22:06:43Z</time>
  <course>0.0</course>
  <speed>0.0</speed>
  <fix>3d</fix>
</trkpt>
<trkpt lat="33.810313" lon="-118.393867">
  <ele>-0.126</ele>
  <time>2026-09-02T22:06:43Z</time>
  <course>187.8</course>
  <speed>0.022360679774997897</speed>
  <fix>3d</fix>
</trkpt>
<trkpt lat="33.810313" lon="-118.393867">
  <ele>-0.12</ele>
  <time>2026-09-02T22:06:43Z</time>
  <course>0.0</course>
  <speed>0.0</speed>
  <fix>3d</fix>
</trkpt>
<trkpt lat="33.810313" lon="-118.393867">
  <ele>-0.124</ele>
  <time>2026-09-02T22:06:43Z</time>
  <course>187.8</course>
  <speed>0.022360679774997897</speed>
  <fix>3d</fix>
</trkpt>
<trkpt lat="33.810313" lon="-118.393867">
  <ele>-0.12</ele>
  <time>2026-09-02T22:06:43Z</time>
  <course>0.0</course>
  <speed>0.0</speed>
  <fix>3d</fix>
</trkpt>
<trkpt lat="33.810313" lon="-118.393867">
  <ele>-0.121</ele>
  <time>2026-09-02T22:06:43Z</time>
  <course>187.79</course>
  <speed>0.022360679774997897</speed>
  <fix>3d</fix>
</trkpt>
<trkpt lat="33.810313" lon="-118.393867">
  <ele>-0.12</ele>
  <time>2026-09-02T22:06:43Z</time>
  <course>0.0</course>
  <speed>0.0</speed>
  <fix>3d</fix>
</trkpt>
<trkpt lat="33.810313" lon="-118.393867">
  <ele>-0.119</ele>
  <time>2026-09-02T22:06:43Z</time>
  <course>187.78</course>
  <speed>0.022360679774997897</speed>
  <fix>3d</fix>
</trkpt>
<trkpt lat="33.810313" lon="-118.393867">
  <ele>-0.12</ele>
  <time>2026-09-02T22:06:43Z</time>
  <course>0.0</course>
  <speed>0.0</speed>
  <fix>3d</fix>
</trkpt>
<trkpt lat="33.810313" lon="-118.393867">
  <ele>-0.118</ele>
  <time>2026-09-02T22:06:43Z</time>
  <course>187.77</course>
  <speed>0.022360679774997897</speed>
  <fix>3d</fix>
</trkpt>
<trkpt lat="33.810313" lon="-118.393867">
  <ele>-0.12</ele>
  <time>2026-09-02T22:06:43Z</time>
  <course>0.0</course>
  <speed>0.0</speed>
  <fix>3d</fix>
</trkpt>
<trkpt lat="33.810313" lon="-118.393867">
  <ele>-0.118</ele>
  <time>2026-09-02T22:06:43Z</time>
  <course>187.77</course>
  <speed>0.022360679774997897</speed>
  <fix>3d</fix>
</trkpt>
<trkpt lat="33.810313" lon="-118.393867">
  <ele>-0.12</ele>
  <time>2026-09-02T22:06:43Z</time>
  <course>0.0</course>
  <speed>0.0</speed>
  <fix>3d</fix>
</trkpt>
<trkpt lat="33.810313" lon="-118.393867">
  <ele>-0.119</ele>
  <time>2026-09-02T22:06:43Z</time>
  <course>187.76</course>
  <speed>0.022360679774997897</speed>
  <fix>3d</fix>
</trkpt>
<trkpt lat="33.810313" lon="-118.393867">
  <ele>-0.12</ele>
  <time>2026-09-02T22:06:43Z</time>
  <course>0.0</course>
  <speed>0.0</speed>
  <fix>3d</fix>
</trkpt>
<trkpt lat="33.810313" lon="-118.393867">
  <ele>-0.12</ele>
  <time>2026-09-02T22:06:43Z</time>
  <course>187.75</course>
  <speed>0.022360679774997897</speed>
  <fix>3d</fix>
</trkpt>
<trkpt lat="33.810313" lon="-118.393867">
  <ele>-0.12</ele>
  <time>2026-09-02T22:06:43Z</time>
  <course>0.0</course>
  <speed>0.0</speed>
  <fix>3d</fix>
</trkpt>
<trkpt lat="33.810313" lon="-118.393867">
  <ele>-0.12</ele>
  <time>2026-09-02T22:06:43Z</time>
  <course>187.74</course>
  <speed>0.0282842712474619</speed>
  <fix>3d</fix>
</trkpt>
<trkpt lat="33.810313" lon="-118.393867">
  <ele>-0.12</ele>
  <time>2026-09-02T22:06:43Z</time>
  <course>0.0</course>
  <speed>0.0</speed>
  <fix>3d</fix>
</trkpt>
<trkpt lat="33.810313" lon="-118.393867">
  <ele>-0.12</ele>
  <time>2026-09-02T22:06:43Z</time>
  <course>187.74</course>
  <speed>0.0282842712474619</speed>
  <fix>3d</fix>
</trkpt>
<trkpt lat="33.810313" lon="-118.393867">
  <ele>-0.12</ele>
  <time>2026-09-02T22:06:43Z</time>
  <course>0.0</course>
  <speed>0.0</speed>
  <fix>3d</fix>
</trkpt>
<trkpt lat="33.810313" lon="-118.393867">
  <ele>-0.119</ele>
  <time>2026-09-02T22:06:43Z</time>
  <course>187.73</course>
  <speed>0.0282842712474619</speed>
  <fix>3d</fix>
</trkpt>
<trkpt lat="33.810313" lon="-118.393867">
  <ele>-0.12</ele>
  <time>2026-09-02T22:06:43Z</time>
  <course>0.0</course>
  <speed>0.0</speed>
  <fix>3d</fix>
</trkpt>
<trkpt lat="33.810313" lon="-118.393867">
  <ele>-0.118</ele>
  <time>2026-09-02T22:06:43Z</time>
  <course>187.72</course>
  <speed>0.0282842712474619</speed>
  <fix>3d</fix>
</trkpt>
<trkpt lat="33.810313" lon="-118.393867">
  <ele>-0.12</ele>
  <time>2026-09-02T22:06:43Z</time>
  <course>0.0</course>
  <speed>0.0</speed>
  <fix>3d</fix>
</trkpt>
<trkpt lat="33.810313" lon="-118.393867">
  <ele>-0.116</ele>
  <time>2026-09-02T22:06:43Z</time>
  <course>187.71</course>
  <speed>0.0282842712474619</speed>
  <fix>3d</fix>
</trkpt>
<trkpt lat="33.810313" lon="-118.393867">
  <ele>-0.12</ele>
  <time>2026-09-02T22:06:43Z</time>
  <course>0.0</course>
  <speed>0.0</speed>
  <fix>3d</fix>
</trkpt>
<trkpt lat="33.810313" lon="-118.393867">
  <ele>-0.114</ele>
  <time>2026-09-02T22:06:43Z</time>
  <course>187.71</course>
  <speed>0.0282842712474619</speed>
  <fix>3d</fix>
</trkpt>
<trkpt lat="33.810313" lon="-118.393867">
  <ele>-0.12</ele>
  <time>2026-09-02T22:06:43Z</time>
  <course>0.0</course>
  <speed>0.0</speed>
  <fix>3d</fix>
</trkpt>
<trkpt lat="33.810313" lon="-118.393867">
  <ele>-0.112</ele>
  <time>2026-09-02T22:06:43Z</time>
  <course>187.7</course>
  <speed>0.0282842712474619</speed>
  <fix>3d</fix>
</trkpt>
<trkpt lat="33.810313" lon="-118.393867">
  <ele>-0.12</ele>
  <time>2026-09-02T22:06:43Z</time>
  <course>0.0</course>
  <speed>0.0</speed>
  <fix>3d</fix>
</trkpt>
<trkpt lat="33.810313" lon="-118.393867">
  <ele>-0.113</ele>
  <time>2026-09-02T22:06:43Z</time>
  <course>187.69</course>
  <speed>0.0282842712474619</speed>
  <fix>3d</fix>
</trkpt>
<trkpt lat="33.810313" lon="-118.393867">
  <ele>-0.12</ele>
  <time>2026-09-02T22:06:43Z</time>
  <course>0.0</course>
  <speed>0.0</speed>
  <fix>3d</fix>
</trkpt>
<trkpt lat="33.810313" lon="-118.393867">
  <ele>-0.115</ele>
  <time>2026-09-02T22:06:43Z</time>
  <course>187.69</course>
  <speed>0.0282842712474619</speed>
  <fix>3d</fix>
</trkpt>
<trkpt lat="33.810313" lon="-118.393867">
  <ele>-0.12</ele>
  <time>2026-09-02T22:06:43Z</time>
  <course>0.0</course>
  <speed>0.0</speed>
  <fix>3d</fix>
</trkpt>
<trkpt lat="33.810313" lon="-118.393867">
  <ele>-0.119</ele>
  <time>2026-09-02T22:06:43Z</time>
  <course>187.68</course>
  <speed>0.0282842712474619</speed>
  <fix>3d</fix>
</trkpt>
<trkpt lat="33.810313" lon="-118.393867">
  <ele>-0.12</ele>
  <time>2026-09-02T22:06:43Z</time>
  <course>0.0</course>
  <speed>0.0</speed>
  <fix>3d</fix>
</trkpt>
<trkpt lat="33.810313" lon="-118.393867">
  <ele>-0.123</ele>
  <time>2026-09-02T22:06:43Z</time>
  <course>187.67</course>
  <speed>0.0282842712474619</speed>
  <fix>3d</fix>
</trkpt>
<trkpt lat="33.810313" lon="-118.393867">
  <ele>-0.12</ele>
  <time>2026-09-02T22:06:43Z</time>
  <course>0.0</course>
  <speed>0.0</speed>
  <fix>3d</fix>
</trkpt>
<trkpt lat="33.810313" lon="-118.393867">
  <ele>-0.128</ele>
  <time>2026-09-02T22:06:43Z</time>
  <course>187.66</course>
  <speed>0.0282842712474619</speed>
  <fix>3d</fix>
</trkpt>
<trkpt lat="33.810313" lon="-118.393867">
  <ele>-0.12</ele>
  <time>2026-09-02T22:06:43Z</time>
  <course>0.0</course>
  <speed>0.0</speed>
  <fix>3d</fix>
</trkpt>
<trkpt lat="33.810313" lon="-118.393867">
  <ele>-0.132</ele>
  <time>2026-09-02T22:06:43Z</time>
  <course>187.66</course>
  <speed>0.0282842712474619</speed>
  <fix>3d</fix>
</trkpt>
<trkpt lat="33.810313" lon="-118.393867">
  <ele>-0.12</ele>
  <time>2026-09-02T22:06:43Z</time>
  <course>0.0</course>
  <speed>0.0</speed>
  <fix>3d</fix>
</trkpt>
<trkpt lat="33.810313" lon="-118.393867">
  <ele>-0.134</ele>
  <time>2026-09-02T22:06:43Z</time>
  <course>187.65</course>
  <speed>0.0282842712474619</speed>
  <fix>3d</fix>
</trkpt>
<trkpt lat="33.810313" lon="-118.393867">
  <ele>-0.12</ele>
  <time>2026-09-02T22:06:43Z</time>
  <course>0.0</course>
  <speed>0.0</speed>
  <fix>3d</fix>
</trkpt>
<trkpt lat="33.810313" lon="-118.393867">
  <ele>-0.135</ele>
  <time>2026-09-02T22:06:43Z</time>
  <course>187.64</course>
  <speed>0.0282842712474619</speed>
  <fix>3d</fix>
</trkpt>
<trkpt lat="33.810313" lon="-118.393867">
  <ele>-0.12</ele>
  <time>2026-09-02T22:06:43Z</time>
  <course>0.0</course>
  <speed>0.0</speed>
  <fix>3d</fix>
</trkpt>
<trkpt lat="33.810313" lon="-118.393867">
  <ele>-0.135</ele>
  <time>2026-09-02T22:06:43Z</time>
  <course>187.64</course>
  <speed>0.0282842712474619</speed>
  <fix>3d</fix>
</trkpt>
<trkpt lat="33.810313" lon="-118.393867">
  <ele>-0.12</ele>
  <time>2026-09-02T22:06:43Z</time>
  <course>0.0</course>
  <speed>0.0</speed>
  <fix>3d</fix>
</trkpt>
<trkpt lat="33.810313" lon="-118.393867">
  <ele>-0.133</ele>
  <time>2026-09-02T22:06:43Z</time>
  <course>187.63</course>
  <speed>0.0282842712474619</speed>
  <fix>3d</fix>
</trkpt>
<trkpt lat="33.810313" lon="-118.393867">
  <ele>-0.12</ele>
  <time>2026-09-02T22:06:43Z</time>
  <course>0.0</course>
  <speed>0.0</speed>
  <fix>3d</fix>
</trkpt>
<trkpt lat="33.810313" lon="-118.393867">
  <ele>-0.132</ele>
  <time>2026-09-02T22:06:43Z</time>
  <course>187.63</course>
  <speed>0.0282842712474619</speed>
  <fix>3d</fix>
</trkpt>
<trkpt lat="33.810313" lon="-118.393867">
  <ele>-0.12</ele>
  <time>2026-09-02T22:06:43Z</time>
  <course>0.0</course>
  <speed>0.0</speed>
  <fix>3d</fix>
</trkpt>
<trkpt lat="33.810313" lon="-118.393867">
  <ele>-0.132</ele>
  <time>2026-09-02T22:06:43Z</time>
  <course>187.62</course>
  <speed>0.03605551275463989</speed>
  <fix>3d</fix>
</trkpt>
<trkpt lat="33.810313" lon="-118.393867">
  <ele>-0.12</ele>
  <time>2026-09-02T22:06:43Z</time>
  <course>0.0</course>
  <speed>0.0</speed>
  <fix>3d</fix>
</trkpt>
<trkpt lat="33.810313" lon="-118.393867">
  <ele>-0.132</ele>
  <time>2026-09-02T22:06:43Z</time>
  <course>187.61</course>
  <speed>0.03605551275463989</speed>
  <fix>3d</fix>
</trkpt>
<trkpt lat="33.810313" lon="-118.393867">
  <ele>-0.12</ele>
  <time>2026-09-02T22:06:43Z</time>
  <course>0.0</course>
  <speed>0.0</speed>
  <fix>3d</fix>
</trkpt>
<trkpt lat="33.810313" lon="-118.393867">
  <ele>-0.133</ele>
  <time>2026-09-02T22:06:43Z</time>
  <course>187.61</course>
  <speed>0.03605551275463989</speed>
  <fix>3d</fix>
</trkpt>
<trkpt lat="33.810313" lon="-118.393867">
  <ele>-0.12</ele>
  <time>2026-09-02T22:06:43Z</time>
  <course>0.0</course>
  <speed>0.0</speed>
  <fix>3d</fix>
</trkpt>
<trkpt lat="33.810313" lon="-118.393867">
  <ele>-0.134</ele>
  <time>2026-09-02T22:06:43Z</time>
  <course>187.6</course>
  <speed>0.03605551275463989</speed>
  <fix>3d</fix>
</trkpt>
<trkpt lat="33.810313" lon="-118.393867">
  <ele>-0.12</ele>
  <time>2026-09-02T22:06:43Z</time>
  <course>0.0</course>
  <speed>0.0</speed>
  <fix>3d</fix>
</trkpt>
<trkpt lat="33.810313" lon="-118.393867">
  <ele>-0.133</ele>
  <time>2026-09-02T22:06:43Z</time>
  <course>187.59</course>
  <speed>0.03605551275463989</speed>
  <fix>3d</fix>
</trkpt>
<trkpt lat="33.810313" lon="-118.393867">
  <ele>-0.12</ele>
  <time>2026-09-02T22:06:43Z</time>
  <course>0.0</course>
  <speed>0.0</speed>
  <fix>3d</fix>
</trkpt>
<trkpt lat="33.810313" lon="-118.393867">
  <ele>-0.132</ele>
  <time>2026-09-02T22:06:43Z</time>
  <course>187.59</course>
  <speed>0.03605551275463989</speed>
  <fix>3d</fix>
</trkpt>
<trkpt lat="33.810313" lon="-118.393867">
  <ele>-0.12</ele>
  <time>2026-09-02T22:06:43Z</time>
  <course>0.0</course>
  <speed>0.0</speed>
  <fix>3d</fix>
</trkpt>
<trkpt lat="33.810313" lon="-118.393867">
  <ele>-0.13</ele>
  <time>2026-09-02T22:06:43Z</time>
  <course>187.58</course>
  <speed>0.03605551275463989</speed>
  <fix>3d</fix>
</trkpt>
<trkpt lat="33.810313" lon="-118.393867">
  <ele>-0.12</ele>
  <time>2026-09-02T22:06:43Z</time>
  <course>0.0</course>
  <speed>0.0</speed>
  <fix>3d</fix>
</trkpt>
<trkpt lat="33.810313" lon="-118.393867">
  <ele>-0.127</ele>
  <time>2026-09-02T22:06:43Z</time>
  <course>187.57</course>
  <speed>0.03605551275463989</speed>
  <fix>3d</fix>
</trkpt>
<trkpt lat="33.810313" lon="-118.393867">
  <ele>-0.12</ele>
  <time>2026-09-02T22:06:43Z</time>
  <course>0.0</course>
  <speed>0.0</speed>
  <fix>3d</fix>
</trkpt>
<trkpt lat="33.810313" lon="-118.393867">
  <ele>-0.125</ele>
  <time>2026-09-02T22:06:43Z</time>
  <course>187.57</course>
  <speed>0.03605551275463989</speed>
  <fix>3d</fix>
</trkpt>
<trkpt lat="33.810313" lon="-118.393867">
  <ele>-0.12</ele>
  <time>2026-09-02T22:06:43Z</time>
  <course>0.0</course>
  <speed>0.0</speed>
  <fix>3d</fix>
</trkpt>
<trkpt lat="33.810313" lon="-118.393867">
  <ele>-0.122</ele>
  <time>2026-09-02T22:06:43Z</time>
  <course>187.56</course>
  <speed>0.03605551275463989</speed>
  <fix>3d</fix>
</trkpt>
<trkpt lat="33.810313" lon="-118.393867">
  <ele>-0.12</ele>
  <time>2026-09-02T22:06:43Z</time>
  <course>0.0</course>
  <speed>0.0</speed>
  <fix>3d</fix>
</trkpt>
<trkpt lat="33.810313" lon="-118.393867">
  <ele>-0.119</ele>
  <time>2026-09-02T22:06:43Z</time>
  <course>187.55</course>
  <speed>0.03605551275463989</speed>
  <fix>3d</fix>
</trkpt>
<trkpt lat="33.810313" lon="-118.393867">
  <ele>-0.12</ele>
  <time>2026-09-02T22:06:43Z</time>
  <course>0.0</course>
  <speed>0.0</speed>
  <fix>3d</fix>
</trkpt>
<trkpt lat="33.810313" lon="-118.393867">
  <ele>-0.117</ele>
  <time>2026-09-02T22:06:43Z</time>
  <course>187.55</course>
  <speed>0.03605551275463989</speed>
  <fix>3d</fix>
</trkpt>
<trkpt lat="33.810313" lon="-118.393867">
  <ele>-0.12</ele>
  <time>2026-09-02T22:06:43Z</time>
  <course>0.0</course>
  <speed>0.0</speed>
  <fix>3d</fix>
</trkpt>
<trkpt lat="33.810313" lon="-118.393867">
  <ele>-0.117</ele>
  <time>2026-09-02T22:06:43Z</time>
  <course>187.54</course>
  <speed>0.03605551275463989</speed>
  <fix>3d</fix>
</trkpt>
<trkpt lat="33.810313" lon="-118.393867">
  <ele>-0.12</ele>
  <time>2026-09-02T22:06:43Z</time>
  <course>0.0</course>
  <speed>0.0</speed>
  <fix>3d</fix>
</trkpt>
<trkpt lat="33.810313" lon="-118.393867">
  <ele>-0.118</ele>
  <time>2026-09-02T22:06:43Z</time>
  <course>187.53</course>
  <speed>0.03605551275463989</speed>
  <fix>3d</fix>
</trkpt>
<trkpt lat="33.810313" lon="-118.393867">
  <ele>-0.12</ele>
  <time>2026-09-02T22:06:43Z</time>
  <course>0.0</course>
  <speed>0.0</speed>
  <fix>3d</fix>
</trkpt>
<trkpt lat="33.810313" lon="-118.393867">
  <ele>-0.119</ele>
  <time>2026-09-02T22:06:43Z</time>
  <course>187.53</course>
  <speed>0.03605551275463989</speed>
  <fix>3d</fix>
</trkpt>
<trkpt lat="33.810313" lon="-118.393867">
  <ele>-0.12</ele>
  <time>2026-09-02T22:06:43Z</time>
  <course>0.0</course>
  <speed>0.0</speed>
  <fix>3d</fix>
</trkpt>
<trkpt lat="33.810313" lon="-118.393867">
  <ele>-0.12</ele>
  <time>2026-09-02T22:06:43Z</time>
  <course>187.52</course>
  <speed>0.03605551275463989</speed>
  <fix>3d</fix>
</trkpt>
<trkpt lat="33.810313" lon="-118.393867">
  <ele>-0.12</ele>
  <time>2026-09-02T22:06:43Z</time>
  <course>0.0</course>
  <speed>0.0</speed>
  <fix>3d</fix>
</trkpt>
<trkpt lat="33.810313" lon="-118.393867">
  <ele>-0.121</ele>
  <time>2026-09-02T22:06:43Z</time>
  <course>187.51</course>
  <speed>0.03605551275463989</speed>
  <fix>3d</fix>
</trkpt>
<trkpt lat="33.810313" lon="-118.393867">
  <ele>-0.12</ele>
  <time>2026-09-02T22:06:43Z</time>
  <course>0.0</course>
  <speed>0.0</speed>
  <fix>3d</fix>
</trkpt>
<trkpt lat="33.810313" lon="-118.393867">
  <ele>-0.121</ele>
  <time>2026-09-02T22:06:43Z</time>
  <course>187.51</course>
  <speed>0.03605551275463989</speed>
  <fix>3d</fix>
</trkpt>
<trkpt lat="33.810313" lon="-118.393867">
  <ele>-0.12</ele>
  <time>2026-09-02T22:06:43Z</time>
  <course>0.0</course>
  <speed>0.0</speed>
  <fix>3d</fix>
</trkpt>
<trkpt lat="33.810313" lon="-118.393867">
  <ele>-0.121</ele>
  <time>2026-09-02T22:06:43Z</time>
  <course>187.5</course>
  <speed>0.03605551275463989</speed>
  <fix>3d</fix>
</trkpt>
<trkpt lat="33.810313" lon="-118.393867">
  <ele>-0.12</ele>
  <time>2026-09-02T22:06:43Z</time>
  <course>0.0</course>
  <speed>0.0</speed>
  <fix>3d</fix>
</trkpt>
<trkpt lat="33.810313" lon="-118.393867">
  <ele>-0.121</ele>
  <time>2026-09-02T22:06:43Z</time>
  <course>187.49</course>
  <speed>0.03605551275463989</speed>
  <fix>3d</fix>
</trkpt>
<trkpt lat="33.810313" lon="-118.393867">
  <ele>-0.12</ele>
  <time>2026-09-02T22:06:43Z</time>
  <course>0.0</course>
  <speed>0.0</speed>
  <fix>3d</fix>
</trkpt>
<trkpt lat="33.810313" lon="-118.393867">
  <ele>-0.121</ele>
  <time>2026-09-02T22:06:43Z</time>
  <course>187.49</course>
  <speed>0.03605551275463989</speed>
  <fix>3d</fix>
</trkpt>
<trkpt lat="33.810313" lon="-118.393867">
  <ele>-0.12</ele>
  <time>2026-09-02T22:06:43Z</time>
  <course>0.0</course>
  <speed>0.0</speed>
  <fix>3d</fix>
</trkpt>
<trkpt lat="33.810313" lon="-118.393867">
  <ele>-0.121</ele>
  <time>2026-09-02T22:06:43Z</time>
  <course>187.48</course>
  <speed>0.03605551275463989</speed>
  <fix>3d</fix>
</trkpt>
<trkpt lat="33.810313" lon="-118.393867">
  <ele>-0.12</ele>
  <time>2026-09-02T22:06:43Z</time>
  <course>0.0</course>
  <speed>0.0</speed>
  <fix>3d</fix>
</trkpt>
<trkpt lat="33.810313" lon="-118.393867">
  <ele>-0.122</ele>
  <time>2026-09-02T22:06:43Z</time>
  <course>187.47</course>
  <speed>0.03605551275463989</speed>
  <fix>3d</fix>
</trkpt>
<trkpt lat="33.810313" lon="-118.393867">
  <ele>-0.12</ele>
  <time>2026-09-02T22:06:43Z</time>
  <course>0.0</course>
  <speed>0.0</speed>
  <fix>3d</fix>
</trkpt>
<trkpt lat="33.810313" lon="-118.393867">
  <ele>-0.124</ele>
  <time>2026-09-02T22:06:43Z</time>
  <course>187.47</course>
  <speed>0.03605551275463989</speed>
  <fix>3d</fix>
</trkpt>
<trkpt lat="33.810313" lon="-118.393867">
  <ele>-0.12</ele>
  <time>2026-09-02T22:06:43Z</time>
  <course>0.0</course>
  <speed>0.0</speed>
  <fix>3d</fix>
</trkpt>
<trkpt lat="33.810313" lon="-118.393867">
  <ele>-0.127</ele>
  <time>2026-09-02T22:06:43Z</time>
  <course>187.46</course>
  <speed>0.03605551275463989</speed>
  <fix>3d</fix>
</trkpt>
<trkpt lat="33.810313" lon="-118.393867">
  <ele>-0.12</ele>
  <time>2026-09-02T22:06:43Z</time>
  <course>0.0</course>
  <speed>0.0</speed>
  <fix>3d</fix>
</trkpt>
<trkpt lat="33.810313" lon="-118.393867">
  <ele>-0.129</ele>
  <time>2026-09-02T22:06:43Z</time>
  <course>187.46</course>
  <speed>0.03605551275463989</speed>
  <fix>3d</fix>
</trkpt>
<trkpt lat="33.810313" lon="-118.393867">
  <ele>-0.12</ele>
  <time>2026-09-02T22:06:43Z</time>
  <course>0.0</course>
  <speed>0.0</speed>
  <fix>3d</fix>
</trkpt>
<trkpt lat="33.810313" lon="-118.393867">
  <ele>-0.131</ele>
  <time>2026-09-02T22:06:43Z</time>
  <course>187.45</course>
  <speed>0.03605551275463989</speed>
  <fix>3d</fix>
</trkpt>
<trkpt lat="33.810313" lon="-118.393867">
  <ele>-0.12</ele>
  <time>2026-09-02T22:06:43Z</time>
  <course>0.0</course>
  <speed>0.0</speed>
  <fix>3d</fix>
</trkpt>
<trkpt lat="33.810313" lon="-118.393867">
  <ele>-0.132</ele>
  <time>2026-09-02T22:06:43Z</time>
  <course>187.44</course>
  <speed>0.03605551275463989</speed>
  <fix>3d</fix>
</trkpt>
<trkpt lat="33.810313" lon="-118.393867">
  <ele>-0.12</ele>
  <time>2026-09-02T22:06:43Z</time>
  <course>0.0</course>
  <speed>0.0</speed>
  <fix>3d</fix>
</trkpt>
<trkpt lat="33.810313" lon="-118.393867">
  <ele>-0.132</ele>
  <time>2026-09-02T22:06:43Z</time>
  <course>187.44</course>
  <speed>0.03605551275463989</speed>
  <fix>3d</fix>
</trkpt>
<trkpt lat="33.810313" lon="-118.393867">
  <ele>-0.12</ele>
  <time>2026-09-02T22:06:43Z</time>
  <course>0.0</course>
  <speed>0.0</speed>
  <fix>3d</fix>
</trkpt>
<trkpt lat="33.810313" lon="-118.393867">
  <ele>-0.132</ele>
  <time>2026-09-02T22:06:43Z</time>
  <course>187.43</course>
  <speed>0.03605551275463989</speed>
  <fix>3d</fix>
</trkpt>
<trkpt lat="33.810313" lon="-118.393867">
  <ele>-0.12</ele>
  <time>2026-09-02T22:06:43Z</time>
  <course>0.0</course>
  <speed>0.0</speed>
  <fix>3d</fix>
</trkpt>
<trkpt lat="33.810313" lon="-118.393867">
  <ele>-0.132</ele>
  <time>2026-09-02T22:06:43Z</time>
  <course>187.42</course>
  <speed>0.03605551275463989</speed>
  <fix>3d</fix>
</trkpt>
<trkpt lat="33.810313" lon="-118.393867">
  <ele>-0.12</ele>
  <time>2026-09-02T22:06:43Z</time>
  <course>0.0</course>
  <speed>0.0</speed>
  <fix>3d</fix>
</trkpt>
<trkpt lat="33.810313" lon="-118.393867">
  <ele>-0.131</ele>
  <time>2026-09-02T22:06:43Z</time>
  <course>187.42</course>
  <speed>0.03605551275463989</speed>
  <fix>3d</fix>
</trkpt>
<trkpt lat="33.810313" lon="-118.393867">
  <ele>-0.12</ele>
  <time>2026-09-02T22:06:43Z</time>
  <course>0.0</course>
  <speed>0.0</speed>
  <fix>3d</fix>
</trkpt>
<trkpt lat="33.810313" lon="-118.393867">
  <ele>-0.131</ele>
  <time>2026-09-02T22:06:43Z</time>
  <course>187.41</course>
  <speed>0.03605551275463989</speed>
  <fix>3d</fix>
</trkpt>
<trkpt lat="33.810313" lon="-118.393867">
  <ele>-0.12</ele>
  <time>2026-09-02T22:06:43Z</time>
  <course>0.0</course>
  <speed>0.0</speed>
  <fix>3d</fix>
</trkpt>
<trkpt lat="33.810313" lon="-118.393867">
  <ele>-0.132</ele>
  <time>2026-09-02T22:06:43Z</time>
  <course>187.41</course>
  <speed>0.03605551275463989</speed>
  <fix>3d</fix>
</trkpt>
<trkpt lat="33.810313" lon="-118.393867">
  <ele>-0.12</ele>
  <time>2026-09-02T22:06:43Z</time>
  <course>0.0</course>
  <speed>0.0</speed>
  <fix>3d</fix>
</trkpt>
<trkpt lat="33.810313" lon="-118.393867">
  <ele>-0.134</ele>
  <time>2026-09-02T22:06:43Z</time>
  <course>187.4</course>
  <speed>0.03605551275463989</speed>
  <fix>3d</fix>
</trkpt>
<trkpt lat="33.810313" lon="-118.393867">
  <ele>-0.12</ele>
  <time>2026-09-02T22:06:43Z</time>
  <course>0.0</course>
  <speed>0.0</speed>
  <fix>3d</fix>
</trkpt>
<trkpt lat="33.810313" lon="-118.393867">
  <ele>-0.137</ele>
  <time>2026-09-02T22:06:43Z</time>
  <course>187.39</course>
  <speed>0.03605551275463989</speed>
  <fix>3d</fix>
</trkpt>
<trkpt lat="33.810313" lon="-118.393867">
  <ele>-0.12</ele>
  <time>2026-09-02T22:06:43Z</time>
  <course>0.0</course>
  <speed>0.0</speed>
  <fix>3d</fix>
</trkpt>
<trkpt lat="33.810313" lon="-118.393867">
  <ele>-0.139</ele>
  <time>2026-09-02T22:06:43Z</time>
  <course>187.39</course>
  <speed>0.03605551275463989</speed>
  <fix>3d</fix>
</trkpt>
<trkpt lat="33.810313" lon="-118.393867">
  <ele>-0.12</ele>
  <time>2026-09-02T22:06:43Z</time>
  <course>0.0</course>
  <speed>0.0</speed>
  <fix>3d</fix>
</trkpt>
<trkpt lat="33.810313" lon="-118.393867">
  <ele>-0.141</ele>
  <time>2026-09-02T22:06:43Z</time>
  <course>187.38</course>
  <speed>0.03605551275463989</speed>
  <fix>3d</fix>
</trkpt>
<trkpt lat="33.810313" lon="-118.393867">
  <ele>-0.12</ele>
  <time>2026-09-02T22:06:43Z</time>
  <course>0.0</course>
  <speed>0.0</speed>
  <fix>3d</fix>
</trkpt>
<trkpt lat="33.810313" lon="-118.393867">
  <ele>-0.141</ele>
  <time>2026-09-02T22:06:43Z</time>
  <course>187.38</course>
  <speed>0.03605551275463989</speed>
  <fix>3d</fix>
</trkpt>
<trkpt lat="33.810313" lon="-118.393867">
  <ele>-0.12</ele>
  <time>2026-09-02T22:06:43Z</time>
  <course>0.0</course>
  <speed>0.0</speed>
  <fix>3d</fix>
</trkpt>
<trkpt lat="33.810313" lon="-118.393867">
  <ele>-0.139</ele>
  <time>2026-09-02T22:06:43Z</time>
  <course>187.37</course>
  <speed>0.03605551275463989</speed>
  <fix>3d</fix>
</trkpt>
<trkpt lat="33.810313" lon="-118.393867">
  <ele>-0.12</ele>
  <time>2026-09-02T22:06:43Z</time>
  <course>0.0</course>
  <speed>0.0</speed>
  <fix>3d</fix>
</trkpt>
<trkpt lat="33.810313" lon="-118.393867">
  <ele>-0.136</ele>
  <time>2026-09-02T22:06:43Z</time>
  <course>187.36</course>
  <speed>0.03605551275463989</speed>
  <fix>3d</fix>
</trkpt>
<trkpt lat="33.810313" lon="-118.393867">
  <ele>-0.12</ele>
  <time>2026-09-02T22:06:43Z</time>
  <course>0.0</course>
  <speed>0.0</speed>
  <fix>3d</fix>
</trkpt>
<trkpt lat="33.810313" lon="-118.393867">
  <ele>-0.133</ele>
  <time>2026-09-02T22:06:43Z</time>
  <course>187.36</course>
  <speed>0.03605551275463989</speed>
  <fix>3d</fix>
</trkpt>
<trkpt lat="33.810313" lon="-118.393867">
  <ele>-0.12</ele>
  <time>2026-09-02T22:06:43Z</time>
  <course>0.0</course>
  <speed>0.0</speed>
  <fix>3d</fix>
</trkpt>
<trkpt lat="33.810313" lon="-118.393867">
  <ele>-0.129</ele>
  <time>2026-09-02T22:06:43Z</time>
  <course>187.35</course>
  <speed>0.03605551275463989</speed>
  <fix>3d</fix>
</trkpt>
<trkpt lat="33.810313" lon="-118.393867">
  <ele>-0.12</ele>
  <time>2026-09-02T22:06:43Z</time>
  <course>0.0</course>
  <speed>0.0</speed>
  <fix>3d</fix>
</trkpt>
<trkpt lat="33.810313" lon="-118.393867">
  <ele>-0.127</ele>
  <time>2026-09-02T22:06:43Z</time>
  <course>187.35</course>
  <speed>0.03605551275463989</speed>
  <fix>3d</fix>
</trkpt>
<trkpt lat="33.810313" lon="-118.393867">
  <ele>-0.12</ele>
  <time>2026-09-02T22:06:43Z</time>
  <course>0.0</course>
  <speed>0.0</speed>
  <fix>3d</fix>
</trkpt>
<trkpt lat="33.810313" lon="-118.393867">
  <ele>-0.127</ele>
  <time>2026-09-02T22:06:43Z</time>
  <course>187.34</course>
  <speed>0.03605551275463989</speed>
  <fix>3d</fix>
</trkpt>
<trkpt lat="33.810313" lon="-118.393867">
  <ele>-0.12</ele>
  <time>2026-09-02T22:06:43Z</time>
  <course>0.0</course>
  <speed>0.0</speed>
  <fix>3d</fix>
</trkpt>
<trkpt lat="33.810313" lon="-118.393867">
  <ele>-0.126</ele>
  <time>2026-09-02T22:06:43Z</time>
  <course>187.34</course>
  <speed>0.03605551275463989</speed>
  <fix>3d</fix>
</trkpt>
<trkpt lat="33.810313" lon="-118.393867">
  <ele>-0.12</ele>
  <time>2026-09-02T22:06:43Z</time>
  <course>0.0</course>
  <speed>0.0</speed>
  <fix>3d</fix>
</trkpt>
<trkpt lat="33.810313" lon="-118.393867">
  <ele>-0.126</ele>
  <time>2026-09-02T22:06:43Z</time>
  <course>187.33</course>
  <speed>0.03605551275463989</speed>
  <fix>3d</fix>
</trkpt>
<trkpt lat="33.810313" lon="-118.393867">
  <ele>-0.12</ele>
  <time>2026-09-02T22:06:43Z</time>
  <course>0.0</course>
  <speed>0.0</speed>
  <fix>3d</fix>
</trkpt>
<trkpt lat="33.810313" lon="-118.393867">
  <ele>-0.126</ele>
  <time>2026-09-02T22:06:43Z</time>
  <course>187.32</course>
  <speed>0.03605551275463989</speed>
  <fix>3d</fix>
</trkpt>
<trkpt lat="33.810313" lon="-118.393867">
  <ele>-0.12</ele>
  <time>2026-09-02T22:06:43Z</time>
  <course>0.0</course>
  <speed>0.0</speed>
  <fix>3d</fix>
</trkpt>
<trkpt lat="33.810313" lon="-118.393867">
  <ele>-0.126</ele>
  <time>2026-09-02T22:06:43Z</time>
  <course>187.32</course>
  <speed>0.03605551275463989</speed>
  <fix>3d</fix>
</trkpt>
<trkpt lat="33.810313" lon="-118.393867">
  <ele>-0.12</ele>
  <time>2026-09-02T22:06:43Z</time>
  <course>0.0</course>
  <speed>0.0</speed>
  <fix>3d</fix>
</trkpt>
<trkpt lat="33.810313" lon="-118.393867">
  <ele>-0.125</ele>
  <time>2026-09-02T22:06:43Z</time>
  <course>187.31</course>
  <speed>0.03605551275463989</speed>
  <fix>3d</fix>
</trkpt>
<trkpt lat="33.810313" lon="-118.393867">
  <ele>-0.12</ele>
  <time>2026-09-02T22:06:43Z</time>
  <course>0.0</course>
  <speed>0.0</speed>
  <fix>3d</fix>
</trkpt>
<trkpt lat="33.810313" lon="-118.393867">
  <ele>-0.124</ele>
  <time>2026-09-02T22:06:43Z</time>
  <course>187.31</course>
  <speed>0.03605551275463989</speed>
  <fix>3d</fix>
</trkpt>
<trkpt lat="33.810313" lon="-118.393867">
  <ele>-0.12</ele>
  <time>2026-09-02T22:06:43Z</time>
  <course>0.0</course>
  <speed>0.0</speed>
  <fix>3d</fix>
</trkpt>
<trkpt lat="33.810313" lon="-118.393867">
  <ele>-0.122</ele>
  <time>2026-09-02T22:06:43Z</time>
  <course>187.3</course>
  <speed>0.03605551275463989</speed>
  <fix>3d</fix>
</trkpt>
<trkpt lat="33.810313" lon="-118.393867">
  <ele>-0.12</ele>
  <time>2026-09-02T22:06:43Z</time>
  <course>0.0</course>
  <speed>0.0</speed>
  <fix>3d</fix>
</trkpt>
<trkpt lat="33.810313" lon="-118.393867">
  <ele>-0.121</ele>
  <time>2026-09-02T22:06:43Z</time>
  <course>187.3</course>
  <speed>0.03605551275463989</speed>
  <fix>3d</fix>
</trkpt>
<trkpt lat="33.810313" lon="-118.393867">
  <ele>-0.12</ele>
  <time>2026-09-02T22:06:43Z</time>
  <course>0.0</course>
  <speed>0.0</speed>
  <fix>3d</fix>
</trkpt>
<trkpt lat="33.810313" lon="-118.393867">
  <ele>-0.122</ele>
  <time>2026-09-02T22:06:43Z</time>
  <course>187.29</course>
  <speed>0.03605551275463989</speed>
  <fix>3d</fix>
</trkpt>
<trkpt lat="33.810313" lon="-118.393867">
  <ele>-0.12</ele>
  <time>2026-09-02T22:06:43Z</time>
  <course>0.0</course>
  <speed>0.0</speed>
  <fix>3d</fix>
</trkpt>
<trkpt lat="33.810313" lon="-118.393867">
  <ele>-0.124</ele>
  <time>2026-09-02T22:06:43Z</time>
  <course>187.28</course>
  <speed>0.03605551275463989</speed>
  <fix>3d</fix>
</trkpt>
<trkpt lat="33.810313" lon="-118.393867">
  <ele>-0.12</ele>
  <time>2026-09-02T22:06:43Z</time>
  <course>0.0</course>
  <speed>0.0</speed>
  <fix>3d</fix>
</trkpt>
<trkpt lat="33.810313" lon="-118.393867">
  <ele>-0.127</ele>
  <time>2026-09-02T22:06:43Z</time>
  <course>187.28</course>
  <speed>0.03605551275463989</speed>
  <fix>3d</fix>
</trkpt>
<trkpt lat="33.810313" lon="-118.393867">
  <ele>-0.12</ele>
  <time>2026-09-02T22:06:43Z</time>
  <course>0.0</course>
  <speed>0.0</speed>
  <fix>3d</fix>
</trkpt>
<trkpt lat="33.810313" lon="-118.393867">
  <ele>-0.13</ele>
  <time>2026-09-02T22:06:43Z</time>
  <course>187.27</course>
  <speed>0.03605551275463989</speed>
  <fix>3d</fix>
</trkpt>
<trkpt lat="33.810313" lon="-118.393867">
  <ele>-0.12</ele>
  <time>2026-09-02T22:06:43Z</time>
  <course>0.0</course>
  <speed>0.0</speed>
  <fix>3d</fix>
</trkpt>
<trkpt lat="33.810313" lon="-118.393867">
  <ele>-0.132</ele>
  <time>2026-09-02T22:06:43Z</time>
  <course>187.27</course>
  <speed>0.03605551275463989</speed>
  <fix>3d</fix>
</trkpt>
<trkpt lat="33.810313" lon="-118.393867">
  <ele>-0.12</ele>
  <time>2026-09-02T22:06:43Z</time>
  <course>0.0</course>
  <speed>0.0</speed>
  <fix>3d</fix>
</trkpt>
<trkpt lat="33.810313" lon="-118.393867">
  <ele>-0.134</ele>
  <time>2026-09-02T22:06:43Z</time>
  <course>187.26</course>
  <speed>0.03605551275463989</speed>
  <fix>3d</fix>
</trkpt>
<trkpt lat="33.810313" lon="-118.393867">
  <ele>-0.12</ele>
  <time>2026-09-02T22:06:43Z</time>
  <course>0.0</course>
  <speed>0.0</speed>
  <fix>3d</fix>
</trkpt>
<trkpt lat="33.810313" lon="-118.393867">
  <ele>-0.136</ele>
  <time>2026-09-02T22:06:43Z</time>
  <course>187.26</course>
  <speed>0.03605551275463989</speed>
  <fix>3d</fix>
</trkpt>
<trkpt lat="33.810313" lon="-118.393867">
  <ele>-0.12</ele>
  <time>2026-09-02T22:06:43Z</time>
  <course>0.0</course>
  <speed>0.0</speed>
  <fix>3d</fix>
</trkpt>
<trkpt lat="33.810313" lon="-118.393867">
  <ele>-0.136</ele>
  <time>2026-09-02T22:06:43Z</time>
  <course>187.25</course>
  <speed>0.03605551275463989</speed>
  <fix>3d</fix>
</trkpt>
<trkpt lat="33.810313" lon="-118.393867">
  <ele>-0.12</ele>
  <time>2026-09-02T22:06:43Z</time>
  <course>0.0</course>
  <speed>0.0</speed>
  <fix>3d</fix>
</trkpt>
<trkpt lat="33.810313" lon="-118.393867">
  <ele>-0.135</ele>
  <time>2026-09-02T22:06:43Z</time>
  <course>187.25</course>
  <speed>0.03605551275463989</speed>
  <fix>3d</fix>
</trkpt>
<trkpt lat="33.810313" lon="-118.393867">
  <ele>-0.12</ele>
  <time>2026-09-02T22:06:43Z</time>
  <course>0.0</course>
  <speed>0.0</speed>
  <fix>3d</fix>
</trkpt>
<trkpt lat="33.810313" lon="-118.393867">
  <ele>-0.134</ele>
  <time>2026-09-02T22:06:43Z</time>
  <course>187.24</course>
  <speed>0.03605551275463989</speed>
  <fix>3d</fix>
</trkpt>
<trkpt lat="33.810313" lon="-118.393867">
  <ele>-0.12</ele>
  <time>2026-09-02T22:06:43Z</time>
  <course>0.0</course>
  <speed>0.0</speed>
  <fix>3d</fix>
</trkpt>
<trkpt lat="33.810313" lon="-118.393867">
  <ele>-0.132</ele>
  <time>2026-09-02T22:06:43Z</time>
  <course>187.24</course>
  <speed>0.03605551275463989</speed>
  <fix>3d</fix>
</trkpt>
<trkpt lat="33.810313" lon="-118.393867">
  <ele>-0.12</ele>
  <time>2026-09-02T22:06:43Z</time>
  <course>0.0</course>
  <speed>0.0</speed>
  <fix>3d</fix>
</trkpt>
<trkpt lat="33.810313" lon="-118.393867">
  <ele>-0.131</ele>
  <time>2026-09-02T22:06:43Z</time>
  <course>187.23</course>
  <speed>0.03605551275463989</speed>
  <fix>3d</fix>
</trkpt>
<trkpt lat="33.810313" lon="-118.393867">
  <ele>-0.12</ele>
  <time>2026-09-02T22:06:43Z</time>
  <course>0.0</course>
  <speed>0.0</speed>
  <fix>3d</fix>
</trkpt>
<trkpt lat="33.810313" lon="-118.393867">
  <ele>-0.131</ele>
  <time>2026-09-02T22:06:43Z</time>
  <course>187.23</course>
  <speed>0.03605551275463989</speed>
  <fix>3d</fix>
</trkpt>
<trkpt lat="33.810313" lon="-118.393867">
  <ele>-0.12</ele>
  <time>2026-09-02T22:06:43Z</time>
  <course>0.0</course>
  <speed>0.0</speed>
  <fix>3d</fix>
</trkpt>
<trkpt lat="33.810313" lon="-118.393867">
  <ele>-0.132</ele>
  <time>2026-09-02T22:06:43Z</time>
  <course>187.22</course>
  <speed>0.03605551275463989</speed>
  <fix>3d</fix>
</trkpt>
<trkpt lat="33.810313" lon="-118.393867">
  <ele>-0.12</ele>
  <time>2026-09-02T22:06:43Z</time>
  <course>0.0</course>
  <speed>0.0</speed>
  <fix>3d</fix>
</trkpt>
<trkpt lat="33.810313" lon="-118.393867">
  <ele>-0.132</ele>
  <time>2026-09-02T22:06:43Z</time>
  <course>187.21</course>
  <speed>0.03605551275463989</speed>
  <fix>3d</fix>
</trkpt>
<trkpt lat="33.810313" lon="-118.393867">
  <ele>-0.12</ele>
  <time>2026-09-02T22:06:43Z</time>
  <course>0.0</course>
  <speed>0.0</speed>
  <fix>3d</fix>
</trkpt>
<trkpt lat="33.810313" lon="-118.393867">
  <ele>-0.133</ele>
  <time>2026-09-02T22:06:43Z</time>
  <course>187.21</course>
  <speed>0.03605551275463989</speed>
  <fix>3d</fix>
</trkpt>
<trkpt lat="33.810313" lon="-118.393867">
  <ele>-0.12</ele>
  <time>2026-09-02T22:06:43Z</time>
  <course>0.0</course>
  <speed>0.0</speed>
  <fix>3d</fix>
</trkpt>
<trkpt lat="33.810313" lon="-118.393867">
  <ele>-0.132</ele>
  <time>2026-09-02T22:06:43Z</time>
  <course>187.2</course>
  <speed>0.03605551275463989</speed>
  <fix>3d</fix>
</trkpt>
<trkpt lat="33.810313" lon="-118.393867">
  <ele>-0.12</ele>
  <time>2026-09-02T22:06:43Z</time>
  <course>0.0</course>
  <speed>0.0</speed>
  <fix>3d</fix>
</trkpt>
<trkpt lat="33.810313" lon="-118.393867">
  <ele>-0.131</ele>
  <time>2026-09-02T22:06:43Z</time>
  <course>187.2</course>
  <speed>0.03605551275463989</speed>
  <fix>3d</fix>
</trkpt>
<trkpt lat="33.810313" lon="-118.393867">
  <ele>-0.12</ele>
  <time>2026-09-02T22:06:43Z</time>
  <course>0.0</course>
  <speed>0.0</speed>
  <fix>3d</fix>
</trkpt>
<trkpt lat="33.810313" lon="-118.393867">
  <ele>-0.129</ele>
  <time>2026-09-02T22:06:43Z</time>
  <course>187.19</course>
  <speed>0.03605551275463989</speed>
  <fix>3d</fix>
</trkpt>
<trkpt lat="33.810313" lon="-118.393867">
  <ele>-0.12</ele>
  <time>2026-09-02T22:06:43Z</time>
  <course>0.0</course>
  <speed>0.0</speed>
  <fix>3d</fix>
</trkpt>
<trkpt lat="33.810313" lon="-118.393867">
  <ele>-0.126</ele>
  <time>2026-09-02T22:06:43Z</time>
  <course>187.19</course>
  <speed>0.03605551275463989</speed>
  <fix>3d</fix>
</trkpt>
<trkpt lat="33.810313" lon="-118.393867">
  <ele>-0.12</ele>
  <time>2026-09-02T22:06:43Z</time>
  <course>0.0</course>
  <speed>0.0</speed>
  <fix>3d</fix>
</trkpt>
<trkpt lat="33.810313" lon="-118.393867">
  <ele>-0.124</ele>
  <time>2026-09-02T22:06:43Z</time>
  <course>187.18</course>
  <speed>0.03605551275463989</speed>
  <fix>3d</fix>
</trkpt>
<trkpt lat="33.810313" lon="-118.393867">
  <ele>-0.12</ele>
  <time>2026-09-02T22:06:43Z</time>
  <course>0.0</course>
  <speed>0.0</speed>
  <fix>3d</fix>
</trkpt>
<trkpt lat="33.810313" lon="-118.393867">
  <ele>-0.123</ele>
  <time>2026-09-02T22:06:43Z</time>
  <course>187.18</course>
  <speed>0.03605551275463989</speed>
  <fix>3d</fix>
</trkpt>
<trkpt lat="33.810313" lon="-118.393867">
  <ele>-0.12</ele>
  <time>2026-09-02T22:06:43Z</time>
  <course>0.0</course>
  <speed>0.0</speed>
  <fix>3d</fix>
</trkpt>
<trkpt lat="33.810313" lon="-118.393867">
  <ele>-0.123</ele>
  <time>2026-09-02T22:06:43Z</time>
  <course>187.17</course>
  <speed>0.03605551275463989</speed>
  <fix>3d</fix>
</trkpt>
<trkpt lat="33.810313" lon="-118.393867">
  <ele>-0.12</ele>
  <time>2026-09-02T22:06:43Z</time>
  <course>0.0</course>
  <speed>0.0</speed>
  <fix>3d</fix>
</trkpt>
<trkpt lat="33.810313" lon="-118.393867">
  <ele>-0.122</ele>
  <time>2026-09-02T22:06:43Z</time>
  <course>187.17</course>
  <speed>0.0</speed>
  <fix>3d</fix>
</trkpt>
<trkpt lat="33.810313" lon="-118.393867">
  <ele>-0.12</ele>
  <time>2026-09-02T22:06:43Z</time>
  <course>0.0</course>
  <speed>0.0</speed>
  <fix>3d</fix>
</trkpt>
<trkpt lat="33.810313" lon="-118.393867">
  <ele>-0.121</ele>
  <time>2026-09-02T22:06:43Z</time>
  <course>187.16</course>
  <speed>0.0</speed>
  <fix>3d</fix>
</trkpt>
<trkpt lat="33.810313" lon="-118.393867">
  <ele>-0.12</ele>
  <time>2026-09-02T22:06:43Z</time>
  <course>0.0</course>
  <speed>0.0</speed>
  <fix>3d</fix>
</trkpt>
<trkpt lat="33.810313" lon="-118.393867">
  <ele>-0.121</ele>
  <time>2026-09-02T22:06:43Z</time>
  <course>187.16</course>
  <speed>0.0</speed>
  <fix>3d</fix>
</trkpt>
<trkpt lat="33.810313" lon="-118.393867">
  <ele>-0.12</ele>
  <time>2026-09-02T22:06:43Z</time>
  <course>0.0</course>
  <speed>0.0</speed>
  <fix>3d</fix>
</trkpt>
<trkpt lat="33.810313" lon="-118.393867">
  <ele>-0.119</ele>
  <time>2026-09-02T22:06:43Z</time>
  <course>187.15</course>
  <speed>0.0</speed>
  <fix>3d</fix>
</trkpt>
<trkpt lat="33.810313" lon="-118.393867">
  <ele>-0.12</ele>
  <time>2026-09-02T22:06:43Z</time>
  <course>0.0</course>
  <speed>0.0</speed>
  <fix>3d</fix>
</trkpt>
<trkpt lat="33.810313" lon="-118.393867">
  <ele>-0.116</ele>
  <time>2026-09-02T22:06:43Z</time>
  <course>187.15</course>
  <speed>0.0</speed>
  <fix>3d</fix>
</trkpt>
<trkpt lat="33.810313" lon="-118.393867">
  <ele>-0.12</ele>
  <time>2026-09-02T22:06:43Z</time>
  <course>0.0</course>
  <speed>0.0</speed>
  <fix>3d</fix>
</trkpt>
<trkpt lat="33.810313" lon="-118.393867">
  <ele>-0.114</ele>
  <time>2026-09-02T22:06:43Z</time>
  <course>187.14</course>
  <speed>0.0</speed>
  <fix>3d</fix>
</trkpt>
<trkpt lat="33.810313" lon="-118.393867">
  <ele>-0.12</ele>
  <time>2026-09-02T22:06:43Z</time>
  <course>0.0</course>
  <speed>0.0</speed>
  <fix>3d</fix>
</trkpt>
<trkpt lat="33.810313" lon="-118.393867">
  <ele>-0.113</ele>
  <time>2026-09-02T22:06:43Z</time>
  <course>187.14</course>
  <speed>0.0</speed>
  <fix>3d</fix>
</trkpt>
<trkpt lat="33.810313" lon="-118.393867">
  <ele>-0.12</ele>
  <time>2026-09-02T22:06:43Z</time>
  <course>0.0</course>
  <speed>0.0</speed>
  <fix>3d</fix>
</trkpt>
<trkpt lat="33.810313" lon="-118.393867">
  <ele>-0.112</ele>
  <time>2026-09-02T22:06:43Z</time>
  <course>187.13</course>
  <speed>0.0</speed>
  <fix>3d</fix>
</trkpt>
<trkpt lat="33.810313" lon="-118.393867">
  <ele>-0.12</ele>
  <time>2026-09-02T22:06:43Z</time>
  <course>0.0</course>
  <speed>0.0</speed>
  <fix>3d</fix>
</trkpt>
<trkpt lat="33.810313" lon="-118.393867">
  <ele>-0.113</ele>
  <time>2026-09-02T22:06:43Z</time>
  <course>187.13</course>
  <speed>0.0</speed>
  <fix>3d</fix>
</trkpt>
<trkpt lat="33.810313" lon="-118.393867">
  <ele>-0.12</ele>
  <time>2026-09-02T22:06:43Z</time>
  <course>0.0</course>
  <speed>0.0</speed>
  <fix>3d</fix>
</trkpt>
<trkpt lat="33.810313" lon="-118.393867">
  <ele>-0.114</ele>
  <time>2026-09-02T22:06:44Z</time>
  <course>187.12</course>
  <speed>0.0</speed>
  <fix>3d</fix>
</trkpt>
<trkpt lat="33.810313" lon="-118.393867">
  <ele>-0.12</ele>
  <time>2026-09-02T22:06:44Z</time>
  <course>0.0</course>
  <speed>0.0</speed>
  <fix>3d</fix>
</trkpt>
<trkpt lat="33.810313" lon="-118.393867">
  <ele>-0.116</ele>
  <time>2026-09-02T22:06:44Z</time>
  <course>187.12</course>
  <speed>0.0</speed>
  <fix>3d</fix>
</trkpt>
<trkpt lat="33.810313" lon="-118.393867">
  <ele>-0.12</ele>
  <time>2026-09-02T22:06:44Z</time>
  <course>0.0</course>
  <speed>0.0</speed>
  <fix>3d</fix>
</trkpt>
<trkpt lat="33.810313" lon="-118.393867">
  <ele>-0.119</ele>
  <time>2026-09-02T22:06:44Z</time>
  <course>187.11</course>
  <speed>0.01</speed>
  <fix>3d</fix>
</trkpt>
<trkpt lat="33.810313" lon="-118.393867">
  <ele>-0.12</ele>
  <time>2026-09-02T22:06:44Z</time>
  <course>0.0</course>
  <speed>0.0</speed>
  <fix>3d</fix>
</trkpt>
<trkpt lat="33.810313" lon="-118.393867">
  <ele>-0.12</ele>
  <time>2026-09-02T22:06:44Z</time>
  <course>187.11</course>
  <speed>0.01</speed>
  <fix>3d</fix>
</trkpt>
<trkpt lat="33.810313" lon="-118.393867">
  <ele>-0.12</ele>
  <time>2026-09-02T22:06:44Z</time>
  <course>0.0</course>
  <speed>0.0</speed>
  <fix>3d</fix>
</trkpt>
<trkpt lat="33.810313" lon="-118.393867">
  <ele>-0.121</ele>
  <time>2026-09-02T22:06:44Z</time>
  <course>187.1</course>
  <speed>0.01</speed>
  <fix>3d</fix>
</trkpt>
<trkpt lat="33.810313" lon="-118.393867">
  <ele>-0.12</ele>
  <time>2026-09-02T22:06:44Z</time>
  <course>0.0</course>
  <speed>0.0</speed>
  <fix>3d</fix>
</trkpt>
<trkpt lat="33.810313" lon="-118.393867">
  <ele>-0.122</ele>
  <time>2026-09-02T22:06:44Z</time>
  <course>187.1</course>
  <speed>0.01414213562373095</speed>
  <fix>3d</fix>
</trkpt>
<trkpt lat="33.810313" lon="-118.393867">
  <ele>-0.12</ele>
  <time>2026-09-02T22:06:44Z</time>
  <course>0.0</course>
  <speed>0.0</speed>
  <fix>3d</fix>
</trkpt>
<trkpt lat="33.810313" lon="-118.393867">
  <ele>-0.122</ele>
  <time>2026-09-02T22:06:44Z</time>
  <course>187.1</course>
  <speed>0.01414213562373095</speed>
  <fix>3d</fix>
</trkpt>
<trkpt lat="33.810313" lon="-118.393867">
  <ele>-0.12</ele>
  <time>2026-09-02T22:06:44Z</time>
  <course>0.0</course>
  <speed>0.0</speed>
  <fix>3d</fix>
</trkpt>
<trkpt lat="33.810313" lon="-118.393867">
  <ele>-0.123</ele>
  <time>2026-09-02T22:06:44Z</time>
  <course>187.09</course>
  <speed>0.01414213562373095</speed>
  <fix>3d</fix>
</trkpt>
<trkpt lat="33.810313" lon="-118.393867">
  <ele>-0.12</ele>
  <time>2026-09-02T22:06:44Z</time>
  <course>0.0</course>
  <speed>0.0</speed>
  <fix>3d</fix>
</trkpt>
<trkpt lat="33.810313" lon="-118.393867">
  <ele>-0.124</ele>
  <time>2026-09-02T22:06:44Z</time>
  <course>187.09</course>
  <speed>0.01414213562373095</speed>
  <fix>3d</fix>
</trkpt>
<trkpt lat="33.810313" lon="-118.393867">
  <ele>-0.12</ele>
  <time>2026-09-02T22:06:44Z</time>
  <course>0.0</course>
  <speed>0.0</speed>
  <fix>3d</fix>
</trkpt>
<trkpt lat="33.810313" lon="-118.393867">
  <ele>-0.126</ele>
  <time>2026-09-02T22:06:44Z</time>
  <course>187.08</course>
  <speed>0.01414213562373095</speed>
  <fix>3d</fix>
</trkpt>
<trkpt lat="33.810313" lon="-118.393867">
  <ele>-0.12</ele>
  <time>2026-09-02T22:06:44Z</time>
  <course>0.0</course>
  <speed>0.0</speed>
  <fix>3d</fix>
</trkpt>
<trkpt lat="33.810313" lon="-118.393867">
  <ele>-0.128</ele>
  <time>2026-09-02T22:06:44Z</time>
  <course>187.08</course>
  <speed>0.01414213562373095</speed>
  <fix>3d</fix>
</trkpt>
<trkpt lat="33.810313" lon="-118.393867">
  <ele>-0.12</ele>
  <time>2026-09-02T22:06:44Z</time>
  <course>0.0</course>
  <speed>0.0</speed>
  <fix>3d</fix>
</trkpt>
<trkpt lat="33.810313" lon="-118.393867">
  <ele>-0.13</ele>
  <time>2026-09-02T22:06:44Z</time>
  <course>187.07</course>
  <speed>0.01414213562373095</speed>
  <fix>3d</fix>
</trkpt>
<trkpt lat="33.810313" lon="-118.393867">
  <ele>-0.12</ele>
  <time>2026-09-02T22:06:44Z</time>
  <course>0.0</course>
  <speed>0.0</speed>
  <fix>3d</fix>
</trkpt>
<trkpt lat="33.810313" lon="-118.393867">
  <ele>-0.134</ele>
  <time>2026-09-02T22:06:44Z</time>
  <course>187.07</course>
  <speed>0.022360679774997897</speed>
  <fix>3d</fix>
</trkpt>
<trkpt lat="33.810313" lon="-118.393867">
  <ele>-0.12</ele>
  <time>2026-09-02T22:06:44Z</time>
  <course>0.0</course>
  <speed>0.0</speed>
  <fix>3d</fix>
</trkpt>
<trkpt lat="33.810313" lon="-118.393867">
  <ele>-0.136</ele>
  <time>2026-09-02T22:06:44Z</time>
  <course>187.06</course>
  <speed>0.022360679774997897</speed>
  <fix>3d</fix>
</trkpt>
<trkpt lat="33.810313" lon="-118.393867">
  <ele>-0.12</ele>
  <time>2026-09-02T22:06:44Z</time>
  <course>0.0</course>
  <speed>0.0</speed>
  <fix>3d</fix>
</trkpt>
<trkpt lat="33.810313" lon="-118.393867">
  <ele>-0.137</ele>
  <time>2026-09-02T22:06:44Z</time>
  <course>187.06</course>
  <speed>0.022360679774997897</speed>
  <fix>3d</fix>
</trkpt>
<trkpt lat="33.810313" lon="-118.393867">
  <ele>-0.12</ele>
  <time>2026-09-02T22:06:44Z</time>
  <course>0.0</course>
  <speed>0.0</speed>
  <fix>3d</fix>
</trkpt>
<trkpt lat="33.810313" lon="-118.393867">
  <ele>-0.137</ele>
  <time>2026-09-02T22:06:44Z</time>
  <course>187.05</course>
  <speed>0.022360679774997897</speed>
  <fix>3d</fix>
</trkpt>
<trkpt lat="33.810313" lon="-118.393867">
  <ele>-0.12</ele>
  <time>2026-09-02T22:06:44Z</time>
  <course>0.0</course>
  <speed>0.0</speed>
  <fix>3d</fix>
</trkpt>
<trkpt lat="33.810313" lon="-118.393867">
  <ele>-0.136</ele>
  <time>2026-09-02T22:06:44Z</time>
  <course>187.05</course>
  <speed>0.022360679774997897</speed>
  <fix>3d</fix>
</trkpt>
<trkpt lat="33.810313" lon="-118.393867">
  <ele>-0.12</ele>
  <time>2026-09-02T22:06:44Z</time>
  <course>0.0</course>
  <speed>0.0</speed>
  <fix>3d</fix>
</trkpt>
<trkpt lat="33.810313" lon="-118.393867">
  <ele>-0.133</ele>
  <time>2026-09-02T22:06:44Z</time>
  <course>187.04</course>
  <speed>0.022360679774997897</speed>
  <fix>3d</fix>
</trkpt>
<trkpt lat="33.810313" lon="-118.393867">
  <ele>-0.12</ele>
  <time>2026-09-02T22:06:44Z</time>
  <course>0.0</course>
  <speed>0.0</speed>
  <fix>3d</fix>
</trkpt>
<trkpt lat="33.8103131" lon="-118.3938671">
  <ele>-0.131</ele>
  <time>2026-09-02T22:06:44Z</time>
  <course>187.04</course>
  <speed>0.022360679774997897</speed>
  <fix>3d</fix>
</trkpt>
<trkpt lat="33.810313" lon="-118.393867">
  <ele>-0.12</ele>
  <time>2026-09-02T22:06:44Z</time>
  <course>0.0</course>
  <speed>0.0</speed>
  <fix>3d</fix>
</trkpt>
<trkpt lat="33.8103131" lon="-118.3938671">
  <ele>-0.129</ele>
  <time>2026-09-02T22:06:44Z</time>
  <course>187.03</course>
  <speed>0.0282842712474619</speed>
  <fix>3d</fix>
</trkpt>
<trkpt lat="33.810313" lon="-118.393867">
  <ele>-0.12</ele>
  <time>2026-09-02T22:06:44Z</time>
  <course>0.0</course>
  <speed>0.0</speed>
  <fix>3d</fix>
</trkpt>
<trkpt lat="33.8103131" lon="-118.3938671">
  <ele>-0.129</ele>
  <time>2026-09-02T22:06:44Z</time>
  <course>187.03</course>
  <speed>0.0282842712474619</speed>
  <fix>3d</fix>
</trkpt>
<trkpt lat="33.810313" lon="-118.393867">
  <ele>-0.12</ele>
  <time>2026-09-02T22:06:44Z</time>
  <course>0.0</course>
  <speed>0.0</speed>
  <fix>3d</fix>
</trkpt>
<trkpt lat="33.8103131" lon="-118.3938671">
  <ele>-0.128</ele>
  <time>2026-09-02T22:06:44Z</time>
  <course>187.02</course>
  <speed>0.0282842712474619</speed>
  <fix>3d</fix>
</trkpt>
<trkpt lat="33.810313" lon="-118.393867">
  <ele>-0.12</ele>
  <time>2026-09-02T22:06:44Z</time>
  <course>0.0</course>
  <speed>0.0</speed>
  <fix>3d</fix>
</trkpt>
<trkpt lat="33.8103131" lon="-118.3938671">
  <ele>-0.129</ele>
  <time>2026-09-02T22:06:44Z</time>
  <course>187.02</course>
  <speed>0.0282842712474619</speed>
  <fix>3d</fix>
</trkpt>
<trkpt lat="33.810313" lon="-118.393867">
  <ele>-0.12</ele>
  <time>2026-09-02T22:06:44Z</time>
  <course>0.0</course>
  <speed>0.0</speed>
  <fix>3d</fix>
</trkpt>
<trkpt lat="33.8103131" lon="-118.3938671">
  <ele>-0.13</ele>
  <time>2026-09-02T22:06:44Z</time>
  <course>187.01</course>
  <speed>0.0282842712474619</speed>
  <fix>3d</fix>
</trkpt>
<trkpt lat="33.810313" lon="-118.393867">
  <ele>-0.12</ele>
  <time>2026-09-02T22:06:44Z</time>
  <course>0.0</course>
  <speed>0.0</speed>
  <fix>3d</fix>
</trkpt>
<trkpt lat="33.8103131" lon="-118.3938671">
  <ele>-0.131</ele>
  <time>2026-09-02T22:06:44Z</time>
  <course>187.01</course>
  <speed>0.0282842712474619</speed>
  <fix>3d</fix>
</trkpt>
<trkpt lat="33.810313" lon="-118.393867">
  <ele>-0.12</ele>
  <time>2026-09-02T22:06:44Z</time>
  <course>0.0</course>
  <speed>0.0</speed>
  <fix>3d</fix>
</trkpt>
<trkpt lat="33.8103131" lon="-118.3938671">
  <ele>-0.13</ele>
  <time>2026-09-02T22:06:44Z</time>
  <course>187.0</course>
  <speed>0.0282842712474619</speed>
  <fix>3d</fix>
</trkpt>
<trkpt lat="33.810313" lon="-118.393867">
  <ele>-0.12</ele>
  <time>2026-09-02T22:06:44Z</time>
  <course>0.0</course>
  <speed>0.0</speed>
  <fix>3d</fix>
</trkpt>
<trkpt lat="33.8103131" lon="-118.3938671">
  <ele>-0.13</ele>
  <time>2026-09-02T22:06:44Z</time>
  <course>187.0</course>
  <speed>0.0282842712474619</speed>
  <fix>3d</fix>
</trkpt>
<trkpt lat="33.810313" lon="-118.393867">
  <ele>-0.12</ele>
  <time>2026-09-02T22:06:44Z</time>
  <course>0.0</course>
  <speed>0.0</speed>
  <fix>3d</fix>
</trkpt>
<trkpt lat="33.8103131" lon="-118.3938671">
  <ele>-0.129</ele>
  <time>2026-09-02T22:06:44Z</time>
  <course>187.0</course>
  <speed>0.0282842712474619</speed>
  <fix>3d</fix>
</trkpt>
<trkpt lat="33.810313" lon="-118.393867">
  <ele>-0.12</ele>
  <time>2026-09-02T22:06:44Z</time>
  <course>0.0</course>
  <speed>0.0</speed>
  <fix>3d</fix>
</trkpt>
<trkpt lat="33.8103131" lon="-118.3938671">
  <ele>-0.128</ele>
  <time>2026-09-02T22:06:44Z</time>
  <course>186.99</course>
  <speed>0.03605551275463989</speed>
  <fix>3d</fix>
</trkpt>
<trkpt lat="33.810313" lon="-118.393867">
  <ele>-0.12</ele>
  <time>2026-09-02T22:06:44Z</time>
  <course>0.0</course>
  <speed>0.0</speed>
  <fix>3d</fix>
</trkpt>
<trkpt lat="33.8103131" lon="-118.3938671">
  <ele>-0.128</ele>
  <time>2026-09-02T22:06:44Z</time>
  <course>186.99</course>
  <speed>0.03605551275463989</speed>
  <fix>3d</fix>
</trkpt>
<trkpt lat="33.810313" lon="-118.393867">
  <ele>-0.12</ele>
  <time>2026-09-02T22:06:44Z</time>
  <course>0.0</course>
  <speed>0.0</speed>
  <fix>3d</fix>
</trkpt>
<trkpt lat="33.8103131" lon="-118.3938671">
  <ele>-0.128</ele>
  <time>2026-09-02T22:06:44Z</time>
  <course>186.98</course>
  <speed>0.03605551275463989</speed>
  <fix>3d</fix>
</trkpt>
<trkpt lat="33.810313" lon="-118.393867">
  <ele>-0.12</ele>
  <time>2026-09-02T22:06:44Z</time>
  <course>0.0</course>
  <speed>0.0</speed>
  <fix>3d</fix>
</trkpt>
<trkpt lat="33.8103131" lon="-118.3938671">
  <ele>-0.129</ele>
  <time>2026-09-02T22:06:44Z</time>
  <course>186.98</course>
  <speed>0.03605551275463989</speed>
  <fix>3d</fix>
</trkpt>
<trkpt lat="33.810313" lon="-118.393867">
  <ele>-0.12</ele>
  <time>2026-09-02T22:06:44Z</time>
  <course>0.0</course>
  <speed>0.0</speed>
  <fix>3d</fix>
</trkpt>
<trkpt lat="33.8103131" lon="-118.3938671">
  <ele>-0.131</ele>
  <time>2026-09-02T22:06:44Z</time>
  <course>186.97</course>
  <speed>0.03605551275463989</speed>
  <fix>3d</fix>
</trkpt>
<trkpt lat="33.810313" lon="-118.393867">
  <ele>-0.12</ele>
  <time>2026-09-02T22:06:44Z</time>
  <course>0.0</course>
  <speed>0.0</speed>
  <fix>3d</fix>
</trkpt>
<trkpt lat="33.8103131" lon="-118.3938671">
  <ele>-0.133</ele>
  <time>2026-09-02T22:06:44Z</time>
  <course>186.97</course>
  <speed>0.03605551275463989</speed>
  <fix>3d</fix>
</trkpt>
<trkpt lat="33.810313" lon="-118.393867">
  <ele>-0.12</ele>
  <time>2026-09-02T22:06:44Z</time>
  <course>0.0</course>
  <speed>0.0</speed>
  <fix>3d</fix>
</trkpt>
<trkpt lat="33.8103132" lon="-118.3938671">
  <ele>-0.134</ele>
  <time>2026-09-02T22:06:44Z</time>
  <course>186.96</course>
  <speed>0.03605551275463989</speed>
  <fix>3d</fix>
</trkpt>
<trkpt lat="33.810313" lon="-118.393867">
  <ele>-0.12</ele>
  <time>2026-09-02T22:06:44Z</time>
  <course>0.0</course>
  <speed>0.0</speed>
  <fix>3d</fix>
</trkpt>
<trkpt lat="33.8103132" lon="-118.3938671">
  <ele>-0.133</ele>
  <time>2026-09-02T22:06:44Z</time>
  <course>186.96</course>
  <speed>0.03605551275463989</speed>
  <fix>3d</fix>
</trkpt>
<trkpt lat="33.810313" lon="-118.393867">
  <ele>-0.12</ele>
  <time>2026-09-02T22:06:44Z</time>
  <course>0.0</course>
  <speed>0.0</speed>
  <fix>3d</fix>
</trkpt>
<trkpt lat="33.8103132" lon="-118.3938671">
  <ele>-0.131</ele>
  <time>2026-09-02T22:06:44Z</time>
  <course>186.96</course>
  <speed>0.03605551275463989</speed>
  <fix>3d</fix>
</trkpt>
<trkpt lat="33.810313" lon="-118.393867">
  <ele>-0.12</ele>
  <time>2026-09-02T22:06:44Z</time>
  <course>0.0</course>
  <speed>0.0</speed>
  <fix>3d</fix>
</trkpt>
<trkpt lat="33.8103132" lon="-118.3938671">
  <ele>-0.13</ele>
  <time>2026-09-02T22:06:44Z</time>
  <course>186.95</course>
  <speed>0.03605551275463989</speed>
  <fix>3d</fix>
</trkpt>
<trkpt lat="33.810313" lon="-118.393867">
  <ele>-0.12</ele>
  <time>2026-09-02T22:06:44Z</time>
  <course>0.0</course>
  <speed>0.0</speed>
  <fix>3d</fix>
</trkpt>
<trkpt lat="33.8103132" lon="-118.3938672">
  <ele>-0.129</ele>
  <time>2026-09-02T22:06:44Z</time>
  <course>186.95</course>
  <speed>0.03605551275463989</speed>
  <fix>3d</fix>
</trkpt>
<trkpt lat="33.810313" lon="-118.393867">
  <ele>-0.12</ele>
  <time>2026-09-02T22:06:44Z</time>
  <course>0.0</course>
  <speed>0.0</speed>
  <fix>3d</fix>
</trkpt>
<trkpt lat="33.8103132" lon="-118.3938672">
  <ele>-0.128</ele>
  <time>2026-09-02T22:06:44Z</time>
  <course>186.94</course>
  <speed>0.03605551275463989</speed>
  <fix>3d</fix>
</trkpt>
<trkpt lat="33.810313" lon="-118.393867">
  <ele>-0.12</ele>
  <time>2026-09-02T22:06:44Z</time>
  <course>0.0</course>
  <speed>0.0</speed>
  <fix>3d</fix>
</trkpt>
<trkpt lat="33.8103132" lon="-118.3938672">
  <ele>-0.128</ele>
  <time>2026-09-02T22:06:44Z</time>
  <course>186.94</course>
  <speed>0.0282842712474619</speed>
  <fix>3d</fix>
</trkpt>
<trkpt lat="33.810313" lon="-118.393867">
  <ele>-0.12</ele>
  <time>2026-09-02T22:06:44Z</time>
  <course>0.0</course>
  <speed>0.0</speed>
  <fix>3d</fix>
</trkpt>
<trkpt lat="33.8103132" lon="-118.3938672">
  <ele>-0.127</ele>
  <time>2026-09-02T22:06:44Z</time>
  <course>186.94</course>
  <speed>0.0282842712474619</speed>
  <fix>3d</fix>
</trkpt>
<trkpt lat="33.810313" lon="-118.393867">
  <ele>-0.12</ele>
  <time>2026-09-02T22:06:44Z</time>
  <course>0.0</course>
  <speed>0.0</speed>
  <fix>3d</fix>
</trkpt>
<trkpt lat="33.8103132" lon="-118.3938672">
  <ele>-0.128</ele>
  <time>2026-09-02T22:06:44Z</time>
  <course>186.93</course>
  <speed>0.0282842712474619</speed>
  <fix>3d</fix>
</trkpt>
<trkpt lat="33.810313" lon="-118.393867">
  <ele>-0.12</ele>
  <time>2026-09-02T22:06:44Z</time>
  <course>0.0</course>
  <speed>0.0</speed>
  <fix>3d</fix>
</trkpt>
<trkpt lat="33.8103132" lon="-118.3938672">
  <ele>-0.128</ele>
  <time>2026-09-02T22:06:44Z</time>
  <course>186.93</course>
  <speed>0.0282842712474619</speed>
  <fix>3d</fix>
</trkpt>
<trkpt lat="33.810313" lon="-118.393867">
  <ele>-0.12</ele>
  <time>2026-09-02T22:06:44Z</time>
  <course>0.0</course>
  <speed>0.0</speed>
  <fix>3d</fix>
</trkpt>
<trkpt lat="33.8103132" lon="-118.3938672">
  <ele>-0.127</ele>
  <time>2026-09-02T22:06:44Z</time>
  <course>186.92</course>
  <speed>0.0282842712474619</speed>
  <fix>3d</fix>
</trkpt>
<trkpt lat="33.810313" lon="-118.393867">
  <ele>-0.12</ele>
  <time>2026-09-02T22:06:44Z</time>
  <course>0.0</course>
  <speed>0.0</speed>
  <fix>3d</fix>
</trkpt>
<trkpt lat="33.8103132" lon="-118.3938672">
  <ele>-0.126</ele>
  <time>2026-09-02T22:06:44Z</time>
  <course>186.92</course>
  <speed>0.0282842712474619</speed>
  <fix>3d</fix>
</trkpt>
<trkpt lat="33.810313" lon="-118.393867">
  <ele>-0.12</ele>
  <time>2026-09-02T22:06:44Z</time>
  <course>0.0</course>
  <speed>0.0</speed>
  <fix>3d</fix>
</trkpt>
<trkpt lat="33.8103132" lon="-118.3938671">
  <ele>-0.125</ele>
  <time>2026-09-02T22:06:44Z</time>
  <course>186.92</course>
  <speed>0.0282842712474619</speed>
  <fix>3d</fix>
</trkpt>
<trkpt lat="33.810313" lon="-118.393867">
  <ele>-0.12</ele>
  <time>2026-09-02T22:06:44Z</time>
  <course>0.0</course>
  <speed>0.0</speed>
  <fix>3d</fix>
</trkpt>
<trkpt lat="33.8103132" lon="-118.3938671">
  <ele>-0.124</ele>
  <time>2026-09-02T22:06:44Z</time>
  <course>186.91</course>
  <speed>0.0282842712474619</speed>
  <fix>3d</fix>
</trkpt>
<trkpt lat="33.810313" lon="-118.393867">
  <ele>-0.12</ele>
  <time>2026-09-02T22:06:44Z</time>
  <course>0.0</course>
  <speed>0.0</speed>
  <fix>3d</fix>
</trkpt>
<trkpt lat="33.8103132" lon="-118.3938671">
  <ele>-0.122</ele>
  <time>2026-09-02T22:06:44Z</time>
  <course>186.91</course>
  <speed>0.0282842712474619</speed>
  <fix>3d</fix>
</trkpt>
<trkpt lat="33.810313" lon="-118.393867">
  <ele>-0.12</ele>
  <time>2026-09-02T22:06:44Z</time>
  <course>0.0</course>
  <speed>0.0</speed>
  <fix>3d</fix>
</trkpt>
<trkpt lat="33.8103132" lon="-118.3938671">
  <ele>-0.121</ele>
  <time>2026-09-02T22:06:44Z</time>
  <course>186.91</course>
  <speed>0.0282842712474619</speed>
  <fix>3d</fix>
</trkpt>
<trkpt lat="33.810313" lon="-118.393867">
  <ele>-0.12</ele>
  <time>2026-09-02T22:06:44Z</time>
  <course>0.0</course>
  <speed>0.0</speed>
  <fix>3d</fix>
</trkpt>
<trkpt lat="33.8103132" lon="-118.3938671">
  <ele>-0.12</ele>
  <time>2026-09-02T22:06:44Z</time>
  <course>186.9</course>
  <speed>0.0282842712474619</speed>
  <fix>3d</fix>
</trkpt>
<trkpt lat="33.810313" lon="-118.393867">
  <ele>-0.12</ele>
  <time>2026-09-02T22:06:44Z</time>
  <course>0.0</course>
  <speed>0.0</speed>
  <fix>3d</fix>
</trkpt>
<trkpt lat="33.8103132" lon="-118.3938671">
  <ele>-0.119</ele>
  <time>2026-09-02T22:06:44Z</time>
  <course>186.9</course>
  <speed>0.022360679774997897</speed>
  <fix>3d</fix>
</trkpt>
<trkpt lat="33.810313" lon="-118.393867">
  <ele>-0.12</ele>
  <time>2026-09-02T22:06:44Z</time>
  <course>0.0</course>
  <speed>0.0</speed>
  <fix>3d</fix>
</trkpt>
<trkpt lat="33.8103131" lon="-118.3938671">
  <ele>-0.119</ele>
  <time>2026-09-02T22:06:44Z</time>
  <course>186.89</course>
  <speed>0.022360679774997897</speed>
  <fix>3d</fix>
</trkpt>
<trkpt lat="33.810313" lon="-118.393867">
  <ele>-0.12</ele>
  <time>2026-09-02T22:06:44Z</time>
  <course>0.0</course>
  <speed>0.0</speed>
  <fix>3d</fix>
</trkpt>
<trkpt lat="33.8103131" lon="-118.3938671">
  <ele>-0.119</ele>
  <time>2026-09-02T22:06:44Z</time>
  <course>186.89</course>
  <speed>0.022360679774997897</speed>
  <fix>3d</fix>
</trkpt>
<trkpt lat="33.810313" lon="-118.393867">
  <ele>-0.12</ele>
  <time>2026-09-02T22:06:44Z</time>
  <course>0.0</course>
  <speed>0.0</speed>
  <fix>3d</fix>
</trkpt>
<trkpt lat="33.8103131" lon="-118.3938671">
  <ele>-0.119</ele>
  <time>2026-09-02T22:06:44Z</time>
  <course>186.89</course>
  <speed>0.022360679774997897</speed>
  <fix>3d</fix>
</trkpt>
<trkpt lat="33.810313" lon="-118.393867">
  <ele>-0.12</ele>
  <time>2026-09-02T22:06:44Z</time>
  <course>0.0</course>
  <speed>0.0</speed>
  <fix>3d</fix>
</trkpt>
<trkpt lat="33.8103131" lon="-118.3938671">
  <ele>-0.119</ele>
  <time>2026-09-02T22:06:44Z</time>
  <course>186.88</course>
  <speed>0.022360679774997897</speed>
  <fix>3d</fix>
</trkpt>
<trkpt lat="33.810313" lon="-118.393867">
  <ele>-0.12</ele>
  <time>2026-09-02T22:06:44Z</time>
  <course>0.0</course>
  <speed>0.0</speed>
  <fix>3d</fix>
</trkpt>
<trkpt lat="33.8103131" lon="-118.3938671">
  <ele>-0.119</ele>
  <time>2026-09-02T22:06:44Z</time>
  <course>186.88</course>
  <speed>0.022360679774997897</speed>
  <fix>3d</fix>
</trkpt>
<trkpt lat="33.810313" lon="-118.393867">
  <ele>-0.12</ele>
  <time>2026-09-02T22:06:44Z</time>
  <course>0.0</course>
  <speed>0.0</speed>
  <fix>3d</fix>
</trkpt>
<trkpt lat="33.8103131" lon="-118.3938671">
  <ele>-0.119</ele>
  <time>2026-09-02T22:06:44Z</time>
  <course>186.88</course>
  <speed>0.022360679774997897</speed>
  <fix>3d</fix>
</trkpt>
<trkpt lat="33.810313" lon="-118.393867">
  <ele>-0.12</ele>
  <time>2026-09-02T22:06:44Z</time>
  <course>0.0</course>
  <speed>0.0</speed>
  <fix>3d</fix>
</trkpt>
<trkpt lat="33.8103131" lon="-118.3938671">
  <ele>-0.12</ele>
  <time>2026-09-02T22:06:44Z</time>
  <course>186.87</course>
  <speed>0.022360679774997897</speed>
  <fix>3d</fix>
</trkpt>
<trkpt lat="33.810313" lon="-118.393867">
  <ele>-0.12</ele>
  <time>2026-09-02T22:06:44Z</time>
  <course>0.0</course>
  <speed>0.0</speed>
  <fix>3d</fix>
</trkpt>
<trkpt lat="33.8103131" lon="-118.3938671">
  <ele>-0.121</ele>
  <time>2026-09-02T22:06:44Z</time>
  <course>186.87</course>
  <speed>0.022360679774997897</speed>
  <fix>3d</fix>
</trkpt>
<trkpt lat="33.810313" lon="-118.393867">
  <ele>-0.12</ele>
  <time>2026-09-02T22:06:44Z</time>
  <course>0.0</course>
  <speed>0.0</speed>
  <fix>3d</fix>
</trkpt>
<trkpt lat="33.8103131" lon="-118.3938671">
  <ele>-0.124</ele>
  <time>2026-09-02T22:06:44Z</time>
  <course>186.87</course>
  <speed>0.022360679774997897</speed>
  <fix>3d</fix>
</trkpt>
<trkpt lat="33.810313" lon="-118.393867">
  <ele>-0.12</ele>
  <time>2026-09-02T22:06:44Z</time>
  <course>0.0</course>
  <speed>0.0</speed>
  <fix>3d</fix>
</trkpt>
<trkpt lat="33.8103131" lon="-118.3938671">
  <ele>-0.126</ele>
  <time>2026-09-02T22:06:44Z</time>
  <course>186.87</course>
  <speed>0.022360679774997897</speed>
  <fix>3d</fix>
</trkpt>
<trkpt lat="33.810313" lon="-118.393867">
  <ele>-0.12</ele>
  <time>2026-09-02T22:06:44Z</time>
  <course>0.0</course>
  <speed>0.0</speed>
  <fix>3d</fix>
</trkpt>
<trkpt lat="33.8103131" lon="-118.3938671">
  <ele>-0.128</ele>
  <time>2026-09-02T22:06:44Z</time>
  <course>186.86</course>
  <speed>0.022360679774997897</speed>
  <fix>3d</fix>
</trkpt>
<trkpt lat="33.810313" lon="-118.393867">
  <ele>-0.12</ele>
  <time>2026-09-02T22:06:44Z</time>
  <course>0.0</course>
  <speed>0.0</speed>
  <fix>3d</fix>
</trkpt>
<trkpt lat="33.8103131" lon="-118.3938671">
  <ele>-0.131</ele>
  <time>2026-09-02T22:06:44Z</time>
  <course>186.86</course>
  <speed>0.022360679774997897</speed>
  <fix>3d</fix>
</trkpt>
<trkpt lat="33.810313" lon="-118.393867">
  <ele>-0.12</ele>
  <time>2026-09-02T22:06:44Z</time>
  <course>0.0</course>
  <speed>0.0</speed>
  <fix>3d</fix>
</trkpt>
<trkpt lat="33.8103131" lon="-118.3938671">
  <ele>-0.133</ele>
  <time>2026-09-02T22:06:44Z</time>
  <course>186.86</course>
  <speed>0.022360679774997897</speed>
  <fix>3d</fix>
</trkpt>
<trkpt lat="33.810313" lon="-118.393867">
  <ele>-0.12</ele>
  <time>2026-09-02T22:06:44Z</time>
  <course>0.0</course>
  <speed>0.0</speed>
  <fix>3d</fix>
</trkpt>
<trkpt lat="33.8103131" lon="-118.3938671">
  <ele>-0.133</ele>
  <time>2026-09-02T22:06:44Z</time>
  <course>186.85</course>
  <speed>0.022360679774997897</speed>
  <fix>3d</fix>
</trkpt>
<trkpt lat="33.810313" lon="-118.393867">
  <ele>-0.12</ele>
  <time>2026-09-02T22:06:44Z</time>
  <course>0.0</course>
  <speed>0.0</speed>
  <fix>3d</fix>
</trkpt>
<trkpt lat="33.8103131" lon="-118.3938671">
  <ele>-0.132</ele>
  <time>2026-09-02T22:06:44Z</time>
  <course>186.85</course>
  <speed>0.022360679774997897</speed>
  <fix>3d</fix>
</trkpt>
<trkpt lat="33.810313" lon="-118.393867">
  <ele>-0.12</ele>
  <time>2026-09-02T22:06:44Z</time>
  <course>0.0</course>
  <speed>0.0</speed>
  <fix>3d</fix>
</trkpt>
<trkpt lat="33.8103131" lon="-118.3938671">
  <ele>-0.131</ele>
  <time>2026-09-02T22:06:44Z</time>
  <course>186.85</course>
  <speed>0.022360679774997897</speed>
  <fix>3d</fix>
</trkpt>
<trkpt lat="33.810313" lon="-118.393867">
  <ele>-0.12</ele>
  <time>2026-09-02T22:06:44Z</time>
  <course>0.0</course>
  <speed>0.0</speed>
  <fix>3d</fix>
</trkpt>
<trkpt lat="33.8103131" lon="-118.3938671">
  <ele>-0.129</ele>
  <time>2026-09-02T22:06:44Z</time>
  <course>186.84</course>
  <speed>0.022360679774997897</speed>
  <fix>3d</fix>
</trkpt>
<trkpt lat="33.810313" lon="-118.393867">
  <ele>-0.12</ele>
  <time>2026-09-02T22:06:44Z</time>
  <course>0.0</course>
  <speed>0.0</speed>
  <fix>3d</fix>
</trkpt>
<trkpt lat="33.8103131" lon="-118.3938671">
  <ele>-0.128</ele>
  <time>2026-09-02T22:06:44Z</time>
  <course>186.84</course>
  <speed>0.022360679774997897</speed>
  <fix>3d</fix>
</trkpt>
<trkpt lat="33.810313" lon="-118.393867">
  <ele>-0.12</ele>
  <time>2026-09-02T22:06:44Z</time>
  <course>0.0</course>
  <speed>0.0</speed>
  <fix>3d</fix>
</trkpt>
<trkpt lat="33.8103131" lon="-118.3938671">
  <ele>-0.128</ele>
  <time>2026-09-02T22:06:44Z</time>
  <course>186.84</course>
  <speed>0.022360679774997897</speed>
  <fix>3d</fix>
</trkpt>
<trkpt lat="33.810313" lon="-118.393867">
  <ele>-0.12</ele>
  <time>2026-09-02T22:06:44Z</time>
  <course>0.0</course>
  <speed>0.0</speed>
  <fix>3d</fix>
</trkpt>
<trkpt lat="33.8103131" lon="-118.3938671">
  <ele>-0.128</ele>
  <time>2026-09-02T22:06:44Z</time>
  <course>186.83</course>
  <speed>0.022360679774997897</speed>
  <fix>3d</fix>
</trkpt>
<trkpt lat="33.810313" lon="-118.393867">
  <ele>-0.12</ele>
  <time>2026-09-02T22:06:44Z</time>
  <course>0.0</course>
  <speed>0.0</speed>
  <fix>3d</fix>
</trkpt>
<trkpt lat="33.8103131" lon="-118.3938671">
  <ele>-0.128</ele>
  <time>2026-09-02T22:06:44Z</time>
  <course>186.83</course>
  <speed>0.022360679774997897</speed>
  <fix>3d</fix>
</trkpt>
<trkpt lat="33.810313" lon="-118.393867">
  <ele>-0.12</ele>
  <time>2026-09-02T22:06:44Z</time>
  <course>0.0</course>
  <speed>0.0</speed>
  <fix>3d</fix>
</trkpt>
<trkpt lat="33.8103131" lon="-118.3938671">
  <ele>-0.127</ele>
  <time>2026-09-02T22:06:44Z</time>
  <course>186.83</course>
  <speed>0.022360679774997897</speed>
  <fix>3d</fix>
</trkpt>
<trkpt lat="33.810313" lon="-118.393867">
  <ele>-0.12</ele>
  <time>2026-09-02T22:06:44Z</time>
  <course>0.0</course>
  <speed>0.0</speed>
  <fix>3d</fix>
</trkpt>
<trkpt lat="33.8103131" lon="-118.3938671">
  <ele>-0.126</ele>
  <time>2026-09-02T22:06:44Z</time>
  <course>186.82</course>
  <speed>0.022360679774997897</speed>
  <fix>3d</fix>
</trkpt>
<trkpt lat="33.810313" lon="-118.393867">
  <ele>-0.12</ele>
  <time>2026-09-02T22:06:44Z</time>
  <course>0.0</course>
  <speed>0.0</speed>
  <fix>3d</fix>
</trkpt>
<trkpt lat="33.8103131" lon="-118.3938671">
  <ele>-0.125</ele>
  <time>2026-09-02T22:06:44Z</time>
  <course>186.82</course>
  <speed>0.022360679774997897</speed>
  <fix>3d</fix>
</trkpt>
<trkpt lat="33.810313" lon="-118.393867">
  <ele>-0.12</ele>
  <time>2026-09-02T22:06:44Z</time>
  <course>0.0</course>
  <speed>0.0</speed>
  <fix>3d</fix>
</trkpt>
<trkpt lat="33.8103131" lon="-118.3938671">
  <ele>-0.124</ele>
  <time>2026-09-02T22:06:44Z</time>
  <course>186.82</course>
  <speed>0.022360679774997897</speed>
  <fix>3d</fix>
</trkpt>
<trkpt lat="33.810313" lon="-118.393867">
  <ele>-0.12</ele>
  <time>2026-09-02T22:06:44Z</time>
  <course>0.0</course>
  <speed>0.0</speed>
  <fix>3d</fix>
</trkpt>
<trkpt lat="33.8103131" lon="-118.3938671">
  <ele>-0.123</ele>
  <time>2026-09-02T22:06:44Z</time>
  <course>186.82</course>
  <speed>0.022360679774997897</speed>
  <fix>3d</fix>
</trkpt>
<trkpt lat="33.810313" lon="-118.393867">
  <ele>-0.12</ele>
  <time>2026-09-02T22:06:44Z</time>
  <course>0.0</course>
  <speed>0.0</speed>
  <fix>3d</fix>
</trkpt>
<trkpt lat="33.8103131" lon="-118.3938671">
  <ele>-0.122</ele>
  <time>2026-09-02T22:06:44Z</time>
  <course>186.81</course>
  <speed>0.022360679774997897</speed>
  <fix>3d</fix>
</trkpt>
<trkpt lat="33.810313" lon="-118.393867">
  <ele>-0.12</ele>
  <time>2026-09-02T22:06:44Z</time>
  <course>0.0</course>
  <speed>0.0</speed>
  <fix>3d</fix>
</trkpt>
<trkpt lat="33.8103131" lon="-118.3938671">
  <ele>-0.122</ele>
  <time>2026-09-02T22:06:44Z</time>
  <course>186.81</course>
  <speed>0.022360679774997897</speed>
  <fix>3d</fix>
</trkpt>
<trkpt lat="33.810313" lon="-118.393867">
  <ele>-0.12</ele>
  <time>2026-09-02T22:06:44Z</time>
  <course>0.0</course>
  <speed>0.0</speed>
  <fix>3d</fix>
</trkpt>
<trkpt lat="33.8103131" lon="-118.3938671">
  <ele>-0.122</ele>
  <time>2026-09-02T22:06:44Z</time>
  <course>186.81</course>
  <speed>0.022360679774997897</speed>
  <fix>3d</fix>
</trkpt>
<trkpt lat="33.810313" lon="-118.393867">
  <ele>-0.12</ele>
  <time>2026-09-02T22:06:44Z</time>
  <course>0.0</course>
  <speed>0.0</speed>
  <fix>3d</fix>
</trkpt>
<trkpt lat="33.8103131" lon="-118.3938671">
  <ele>-0.121</ele>
  <time>2026-09-02T22:06:44Z</time>
  <course>186.8</course>
  <speed>0.022360679774997897</speed>
  <fix>3d</fix>
</trkpt>
<trkpt lat="33.810313" lon="-118.393867">
  <ele>-0.12</ele>
  <time>2026-09-02T22:06:44Z</time>
  <course>0.0</course>
  <speed>0.0</speed>
  <fix>3d</fix>
</trkpt>
<trkpt lat="33.8103131" lon="-118.3938671">
  <ele>-0.122</ele>
  <time>2026-09-02T22:06:44Z</time>
  <course>186.8</course>
  <speed>0.022360679774997897</speed>
  <fix>3d</fix>
</trkpt>
<trkpt lat="33.810313" lon="-118.393867">
  <ele>-0.12</ele>
  <time>2026-09-02T22:06:44Z</time>
  <course>0.0</course>
  <speed>0.0</speed>
  <fix>3d</fix>
</trkpt>
<trkpt lat="33.8103131" lon="-118.3938671">
  <ele>-0.122</ele>
  <time>2026-09-02T22:06:44Z</time>
  <course>186.8</course>
  <speed>0.022360679774997897</speed>
  <fix>3d</fix>
</trkpt>
<trkpt lat="33.810313" lon="-118.393867">
  <ele>-0.12</ele>
  <time>2026-09-02T22:06:44Z</time>
  <course>0.0</course>
  <speed>0.0</speed>
  <fix>3d</fix>
</trkpt>
<trkpt lat="33.8103131" lon="-118.3938671">
  <ele>-0.122</ele>
  <time>2026-09-02T22:06:44Z</time>
  <course>186.79</course>
  <speed>0.022360679774997897</speed>
  <fix>3d</fix>
</trkpt>
<trkpt lat="33.810313" lon="-118.393867">
  <ele>-0.12</ele>
  <time>2026-09-02T22:06:44Z</time>
  <course>0.0</course>
  <speed>0.0</speed>
  <fix>3d</fix>
</trkpt>
<trkpt lat="33.8103131" lon="-118.3938671">
  <ele>-0.122</ele>
  <time>2026-09-02T22:06:44Z</time>
  <course>186.79</course>
  <speed>0.022360679774997897</speed>
  <fix>3d</fix>
</trkpt>
<trkpt lat="33.810313" lon="-118.393867">
  <ele>-0.12</ele>
  <time>2026-09-02T22:06:44Z</time>
  <course>0.0</course>
  <speed>0.0</speed>
  <fix>3d</fix>
</trkpt>
<trkpt lat="33.8103131" lon="-118.3938671">
  <ele>-0.122</ele>
  <time>2026-09-02T22:06:44Z</time>
  <course>186.79</course>
  <speed>0.022360679774997897</speed>
  <fix>3d</fix>
</trkpt>
<trkpt lat="33.810313" lon="-118.393867">
  <ele>-0.12</ele>
  <time>2026-09-02T22:06:44Z</time>
  <course>0.0</course>
  <speed>0.0</speed>
  <fix>3d</fix>
</trkpt>
<trkpt lat="33.8103131" lon="-118.3938671">
  <ele>-0.121</ele>
  <time>2026-09-02T22:06:44Z</time>
  <course>186.79</course>
  <speed>0.022360679774997897</speed>
  <fix>3d</fix>
</trkpt>
<trkpt lat="33.810313" lon="-118.393867">
  <ele>-0.12</ele>
  <time>2026-09-02T22:06:44Z</time>
  <course>0.0</course>
  <speed>0.0</speed>
  <fix>3d</fix>
</trkpt>
<trkpt lat="33.8103131" lon="-118.3938671">
  <ele>-0.12</ele>
  <time>2026-09-02T22:06:44Z</time>
  <course>186.78</course>
  <speed>0.022360679774997897</speed>
  <fix>3d</fix>
</trkpt>
<trkpt lat="33.810313" lon="-118.393867">
  <ele>-0.12</ele>
  <time>2026-09-02T22:06:44Z</time>
  <course>0.0</course>
  <speed>0.0</speed>
  <fix>3d</fix>
</trkpt>
<trkpt lat="33.8103131" lon="-118.3938671">
  <ele>-0.12</ele>
  <time>2026-09-02T22:06:44Z</time>
  <course>186.78</course>
  <speed>0.022360679774997897</speed>
  <fix>3d</fix>
</trkpt>
<trkpt lat="33.810313" lon="-118.393867">
  <ele>-0.12</ele>
  <time>2026-09-02T22:06:44Z</time>
  <course>0.0</course>
  <speed>0.0</speed>
  <fix>3d</fix>
</trkpt>
<trkpt lat="33.8103131" lon="-118.3938671">
  <ele>-0.12</ele>
  <time>2026-09-02T22:06:44Z</time>
  <course>186.78</course>
  <speed>0.022360679774997897</speed>
  <fix>3d</fix>
</trkpt>
<trkpt lat="33.810313" lon="-118.393867">
  <ele>-0.12</ele>
  <time>2026-09-02T22:06:44Z</time>
  <course>0.0</course>
  <speed>0.0</speed>
  <fix>3d</fix>
</trkpt>
<trkpt lat="33.8103131" lon="-118.3938671">
  <ele>-0.122</ele>
  <time>2026-09-02T22:06:44Z</time>
  <course>186.77</course>
  <speed>0.022360679774997897</speed>
  <fix>3d</fix>
</trkpt>
<trkpt lat="33.810313" lon="-118.393867">
  <ele>-0.12</ele>
  <time>2026-09-02T22:06:44Z</time>
  <course>0.0</course>
  <speed>0.0</speed>
  <fix>3d</fix>
</trkpt>
<trkpt lat="33.8103131" lon="-118.3938671">
  <ele>-0.125</ele>
  <time>2026-09-02T22:06:44Z</time>
  <course>186.77</course>
  <speed>0.022360679774997897</speed>
  <fix>3d</fix>
</trkpt>
<trkpt lat="33.810313" lon="-118.393867">
  <ele>-0.12</ele>
  <time>2026-09-02T22:06:44Z</time>
  <course>0.0</course>
  <speed>0.0</speed>
  <fix>3d</fix>
</trkpt>
<trkpt lat="33.8103131" lon="-118.3938671">
  <ele>-0.128</ele>
  <time>2026-09-02T22:06:44Z</time>
  <course>186.77</course>
  <speed>0.022360679774997897</speed>
  <fix>3d</fix>
</trkpt>
<trkpt lat="33.810313" lon="-118.393867">
  <ele>-0.12</ele>
  <time>2026-09-02T22:06:44Z</time>
  <course>0.0</course>
  <speed>0.0</speed>
  <fix>3d</fix>
</trkpt>
<trkpt lat="33.8103131" lon="-118.3938671">
  <ele>-0.13</ele>
  <time>2026-09-02T22:06:44Z</time>
  <course>186.77</course>
  <speed>0.022360679774997897</speed>
  <fix>3d</fix>
</trkpt>
<trkpt lat="33.810313" lon="-118.393867">
  <ele>-0.12</ele>
  <time>2026-09-02T22:06:44Z</time>
  <course>0.0</course>
  <speed>0.0</speed>
  <fix>3d</fix>
</trkpt>
<trkpt lat="33.8103131" lon="-118.3938671">
  <ele>-0.13</ele>
  <time>2026-09-02T22:06:44Z</time>
  <course>186.76</course>
  <speed>0.022360679774997897</speed>
  <fix>3d</fix>
</trkpt>
<trkpt lat="33.810313" lon="-118.393867">
  <ele>-0.12</ele>
  <time>2026-09-02T22:06:44Z</time>
  <course>0.0</course>
  <speed>0.0</speed>
  <fix>3d</fix>
</trkpt>
<trkpt lat="33.8103131" lon="-118.3938671">
  <ele>-0.129</ele>
  <time>2026-09-02T22:06:44Z</time>
  <course>186.76</course>
  <speed>0.022360679774997897</speed>
  <fix>3d</fix>
</trkpt>
<trkpt lat="33.810313" lon="-118.393867">
  <ele>-0.12</ele>
  <time>2026-09-02T22:06:44Z</time>
  <course>0.0</course>
  <speed>0.0</speed>
  <fix>3d</fix>
</trkpt>
<trkpt lat="33.8103131" lon="-118.3938671">
  <ele>-0.127</ele>
  <time>2026-09-02T22:06:44Z</time>
  <course>186.76</course>
  <speed>0.022360679774997897</speed>
  <fix>3d</fix>
</trkpt>
<trkpt lat="33.810313" lon="-118.393867">
  <ele>-0.12</ele>
  <time>2026-09-02T22:06:44Z</time>
  <course>0.0</course>
  <speed>0.0</speed>
  <fix>3d</fix>
</trkpt>
<trkpt lat="33.8103131" lon="-118.3938671">
  <ele>-0.125</ele>
  <time>2026-09-02T22:06:44Z</time>
  <course>186.75</course>
  <speed>0.022360679774997897</speed>
  <fix>3d</fix>
</trkpt>
<trkpt lat="33.810313" lon="-118.393867">
  <ele>-0.12</ele>
  <time>2026-09-02T22:06:44Z</time>
  <course>0.0</course>
  <speed>0.0</speed>
  <fix>3d</fix>
</trkpt>
<trkpt lat="33.8103131" lon="-118.3938671">
  <ele>-0.125</ele>
  <time>2026-09-02T22:06:44Z</time>
  <course>186.75</course>
  <speed>0.022360679774997897</speed>
  <fix>3d</fix>
</trkpt>
<trkpt lat="33.810313" lon="-118.393867">
  <ele>-0.12</ele>
  <time>2026-09-02T22:06:44Z</time>
  <course>0.0</course>
  <speed>0.0</speed>
  <fix>3d</fix>
</trkpt>
<trkpt lat="33.8103131" lon="-118.3938671">
  <ele>-0.124</ele>
  <time>2026-09-02T22:06:44Z</time>
  <course>186.75</course>
  <speed>0.022360679774997897</speed>
  <fix>3d</fix>
</trkpt>
<trkpt lat="33.810313" lon="-118.393867">
  <ele>-0.12</ele>
  <time>2026-09-02T22:06:44Z</time>
  <course>0.0</course>
  <speed>0.0</speed>
  <fix>3d</fix>
</trkpt>
<trkpt lat="33.8103131" lon="-118.3938671">
  <ele>-0.123</ele>
  <time>2026-09-02T22:06:44Z</time>
  <course>186.75</course>
  <speed>0.022360679774997897</speed>
  <fix>3d</fix>
</trkpt>
<trkpt lat="33.810313" lon="-118.393867">
  <ele>-0.12</ele>
  <time>2026-09-02T22:06:44Z</time>
  <course>0.0</course>
  <speed>0.0</speed>
  <fix>3d</fix>
</trkpt>
<trkpt lat="33.8103131" lon="-118.3938671">
  <ele>-0.122</ele>
  <time>2026-09-02T22:06:44Z</time>
  <course>186.74</course>
  <speed>0.022360679774997897</speed>
  <fix>3d</fix>
</trkpt>
<trkpt lat="33.810313" lon="-118.393867">
  <ele>-0.12</ele>
  <time>2026-09-02T22:06:44Z</time>
  <course>0.0</course>
  <speed>0.0</speed>
  <fix>3d</fix>
</trkpt>
<trkpt lat="33.8103131" lon="-118.3938671">
  <ele>-0.122</ele>
  <time>2026-09-02T22:06:44Z</time>
  <course>186.74</course>
  <speed>0.022360679774997897</speed>
  <fix>3d</fix>
</trkpt>
<trkpt lat="33.810313" lon="-118.393867">
  <ele>-0.12</ele>
  <time>2026-09-02T22:06:44Z</time>
  <course>0.0</course>
  <speed>0.0</speed>
  <fix>3d</fix>
</trkpt>
<trkpt lat="33.8103131" lon="-118.3938671">
  <ele>-0.122</ele>
  <time>2026-09-02T22:06:44Z</time>
  <course>186.74</course>
  <speed>0.022360679774997897</speed>
  <fix>3d</fix>
</trkpt>
<trkpt lat="33.810313" lon="-118.393867">
  <ele>-0.12</ele>
  <time>2026-09-02T22:06:44Z</time>
  <course>0.0</course>
  <speed>0.0</speed>
  <fix>3d</fix>
</trkpt>
<trkpt lat="33.8103131" lon="-118.3938671">
  <ele>-0.122</ele>
  <time>2026-09-02T22:06:44Z</time>
  <course>186.74</course>
  <speed>0.022360679774997897</speed>
  <fix>3d</fix>
</trkpt>
<trkpt lat="33.810313" lon="-118.393867">
  <ele>-0.12</ele>
  <time>2026-09-02T22:06:44Z</time>
  <course>0.0</course>
  <speed>0.0</speed>
  <fix>3d</fix>
</trkpt>
<trkpt lat="33.8103131" lon="-118.3938671">
  <ele>-0.121</ele>
  <time>2026-09-02T22:06:44Z</time>
  <course>186.73</course>
  <speed>0.022360679774997897</speed>
  <fix>3d</fix>
</trkpt>
<trkpt lat="33.810313" lon="-118.393867">
  <ele>-0.12</ele>
  <time>2026-09-02T22:06:44Z</time>
  <course>0.0</course>
  <speed>0.0</speed>
  <fix>3d</fix>
</trkpt>
<trkpt lat="33.8103131" lon="-118.3938671">
  <ele>-0.12</ele>
  <time>2026-09-02T22:06:44Z</time>
  <course>186.73</course>
  <speed>0.022360679774997897</speed>
  <fix>3d</fix>
</trkpt>
<trkpt lat="33.810313" lon="-118.393867">
  <ele>-0.12</ele>
  <time>2026-09-02T22:06:44Z</time>
  <course>0.0</course>
  <speed>0.0</speed>
  <fix>3d</fix>
</trkpt>
<trkpt lat="33.8103131" lon="-118.3938671">
  <ele>-0.12</ele>
  <time>2026-09-02T22:06:44Z</time>
  <course>186.73</course>
  <speed>0.022360679774997897</speed>
  <fix>3d</fix>
</trkpt>
<trkpt lat="33.810313" lon="-118.393867">
  <ele>-0.12</ele>
  <time>2026-09-02T22:06:44Z</time>
  <course>0.0</course>
  <speed>0.0</speed>
  <fix>3d</fix>
</trkpt>
<trkpt lat="33.8103131" lon="-118.3938671">
  <ele>-0.12</ele>
  <time>2026-09-02T22:06:44Z</time>
  <course>186.73</course>
  <speed>0.022360679774997897</speed>
  <fix>3d</fix>
</trkpt>
<trkpt lat="33.810313" lon="-118.393867">
  <ele>-0.12</ele>
  <time>2026-09-02T22:06:44Z</time>
  <course>0.0</course>
  <speed>0.0</speed>
  <fix>3d</fix>
</trkpt>
<trkpt lat="33.8103131" lon="-118.3938671">
  <ele>-0.121</ele>
  <time>2026-09-02T22:06:44Z</time>
  <course>186.72</course>
  <speed>0.022360679774997897</speed>
  <fix>3d</fix>
</trkpt>
<trkpt lat="33.810313" lon="-118.393867">
  <ele>-0.12</ele>
  <time>2026-09-02T22:06:44Z</time>
  <course>0.0</course>
  <speed>0.0</speed>
  <fix>3d</fix>
</trkpt>
<trkpt lat="33.8103131" lon="-118.3938671">
  <ele>-0.122</ele>
  <time>2026-09-02T22:06:44Z</time>
  <course>186.72</course>
  <speed>0.022360679774997897</speed>
  <fix>3d</fix>
</trkpt>
<trkpt lat="33.810313" lon="-118.393867">
  <ele>-0.12</ele>
  <time>2026-09-02T22:06:44Z</time>
  <course>0.0</course>
  <speed>0.0</speed>
  <fix>3d</fix>
</trkpt>
<trkpt lat="33.8103131" lon="-118.3938671">
  <ele>-0.124</ele>
  <time>2026-09-02T22:06:44Z</time>
  <course>186.72</course>
  <speed>0.022360679774997897</speed>
  <fix>3d</fix>
</trkpt>
<trkpt lat="33.810313" lon="-118.393867">
  <ele>-0.12</ele>
  <time>2026-09-02T22:06:44Z</time>
  <course>0.0</course>
  <speed>0.0</speed>
  <fix>3d</fix>
</trkpt>
<trkpt lat="33.8103131" lon="-118.3938671">
  <ele>-0.126</ele>
  <time>2026-09-02T22:06:44Z</time>
  <course>186.71</course>
  <speed>0.022360679774997897</speed>
  <fix>3d</fix>
</trkpt>
<trkpt lat="33.810313" lon="-118.393867">
  <ele>-0.12</ele>
  <time>2026-09-02T22:06:44Z</time>
  <course>0.0</course>
  <speed>0.0</speed>
  <fix>3d</fix>
</trkpt>
<trkpt lat="33.8103131" lon="-118.3938671">
  <ele>-0.127</ele>
  <time>2026-09-02T22:06:44Z</time>
  <course>186.71</course>
  <speed>0.022360679774997897</speed>
  <fix>3d</fix>
</trkpt>
<trkpt lat="33.810313" lon="-118.393867">
  <ele>-0.12</ele>
  <time>2026-09-02T22:06:44Z</time>
  <course>0.0</course>
  <speed>0.0</speed>
  <fix>3d</fix>
</trkpt>
<trkpt lat="33.8103131" lon="-118.3938671">
  <ele>-0.128</ele>
  <time>2026-09-02T22:06:44Z</time>
  <course>186.71</course>
  <speed>0.022360679774997897</speed>
  <fix>3d</fix>
</trkpt>
<trkpt lat="33.810313" lon="-118.393867">
  <ele>-0.12</ele>
  <time>2026-09-02T22:06:44Z</time>
  <course>0.0</course>
  <speed>0.0</speed>
  <fix>3d</fix>
</trkpt>
<trkpt lat="33.8103131" lon="-118.3938671">
  <ele>-0.127</ele>
  <time>2026-09-02T22:06:44Z</time>
  <course>186.71</course>
  <speed>0.022360679774997897</speed>
  <fix>3d</fix>
</trkpt>
<trkpt lat="33.810313" lon="-118.393867">
  <ele>-0.12</ele>
  <time>2026-09-02T22:06:44Z</time>
  <course>0.0</course>
  <speed>0.0</speed>
  <fix>3d</fix>
</trkpt>
<trkpt lat="33.8103131" lon="-118.3938671">
  <ele>-0.126</ele>
  <time>2026-09-02T22:06:44Z</time>
  <course>186.7</course>
  <speed>0.022360679774997897</speed>
  <fix>3d</fix>
</trkpt>
<trkpt lat="33.810313" lon="-118.393867">
  <ele>-0.12</ele>
  <time>2026-09-02T22:06:44Z</time>
  <course>0.0</course>
  <speed>0.0</speed>
  <fix>3d</fix>
</trkpt>
<trkpt lat="33.8103131" lon="-118.3938671">
  <ele>-0.125</ele>
  <time>2026-09-02T22:06:44Z</time>
  <course>186.7</course>
  <speed>0.022360679774997897</speed>
  <fix>3d</fix>
</trkpt>
<trkpt lat="33.810313" lon="-118.393867">
  <ele>-0.12</ele>
  <time>2026-09-02T22:06:44Z</time>
  <course>0.0</course>
  <speed>0.0</speed>
  <fix>3d</fix>
</trkpt>
<trkpt lat="33.8103131" lon="-118.3938671">
  <ele>-0.125</ele>
  <time>2026-09-02T22:06:44Z</time>
  <course>186.7</course>
  <speed>0.022360679774997897</speed>
  <fix>3d</fix>
</trkpt>
<trkpt lat="33.810313" lon="-118.393867">
  <ele>-0.12</ele>
  <time>2026-09-02T22:06:44Z</time>
  <course>0.0</course>
  <speed>0.0</speed>
  <fix>3d</fix>
</trkpt>
<trkpt lat="33.8103131" lon="-118.3938671">
  <ele>-0.126</ele>
  <time>2026-09-02T22:06:44Z</time>
  <course>186.7</course>
  <speed>0.022360679774997897</speed>
  <fix>3d</fix>
</trkpt>
<trkpt lat="33.810313" lon="-118.393867">
  <ele>-0.12</ele>
  <time>2026-09-02T22:06:44Z</time>
  <course>0.0</course>
  <speed>0.0</speed>
  <fix>3d</fix>
</trkpt>
<trkpt lat="33.8103131" lon="-118.3938671">
  <ele>-0.128</ele>
  <time>2026-09-02T22:06:44Z</time>
  <course>186.69</course>
  <speed>0.022360679774997897</speed>
  <fix>3d</fix>
</trkpt>
<trkpt lat="33.810313" lon="-118.393867">
  <ele>-0.12</ele>
  <time>2026-09-02T22:06:44Z</time>
  <course>0.0</course>
  <speed>0.0</speed>
  <fix>3d</fix>
</trkpt>
<trkpt lat="33.8103131" lon="-118.3938671">
  <ele>-0.131</ele>
  <time>2026-09-02T22:06:44Z</time>
  <course>186.69</course>
  <speed>0.022360679774997897</speed>
  <fix>3d</fix>
</trkpt>
<trkpt lat="33.810313" lon="-118.393867">
  <ele>-0.12</ele>
  <time>2026-09-02T22:06:44Z</time>
  <course>0.0</course>
  <speed>0.0</speed>
  <fix>3d</fix>
</trkpt>
<trkpt lat="33.8103131" lon="-118.3938671">
  <ele>-0.133</ele>
  <time>2026-09-02T22:06:44Z</time>
  <course>186.69</course>
  <speed>0.022360679774997897</speed>
  <fix>3d</fix>
</trkpt>
<trkpt lat="33.810313" lon="-118.393867">
  <ele>-0.12</ele>
  <time>2026-09-02T22:06:44Z</time>
  <course>0.0</course>
  <speed>0.0</speed>
  <fix>3d</fix>
</trkpt>
<trkpt lat="33.8103131" lon="-118.3938671">
  <ele>-0.133</ele>
  <time>2026-09-02T22:06:44Z</time>
  <course>186.69</course>
  <speed>0.022360679774997897</speed>
  <fix>3d</fix>
</trkpt>
<trkpt lat="33.810313" lon="-118.393867">
  <ele>-0.12</ele>
  <time>2026-09-02T22:06:44Z</time>
  <course>0.0</course>
  <speed>0.0</speed>
  <fix>3d</fix>
</trkpt>
<trkpt lat="33.8103131" lon="-118.3938671">
  <ele>-0.132</ele>
  <time>2026-09-02T22:06:44Z</time>
  <course>186.68</course>
  <speed>0.022360679774997897</speed>
  <fix>3d</fix>
</trkpt>
<trkpt lat="33.810313" lon="-118.393867">
  <ele>-0.12</ele>
  <time>2026-09-02T22:06:44Z</time>
  <course>0.0</course>
  <speed>0.0</speed>
  <fix>3d</fix>
</trkpt>
<trkpt lat="33.8103131" lon="-118.3938671">
  <ele>-0.132</ele>
  <time>2026-09-02T22:06:44Z</time>
  <course>186.68</course>
  <speed>0.022360679774997897</speed>
  <fix>3d</fix>
</trkpt>
<trkpt lat="33.810313" lon="-118.393867">
  <ele>-0.12</ele>
  <time>2026-09-02T22:06:44Z</time>
  <course>0.0</course>
  <speed>0.0</speed>
  <fix>3d</fix>
</trkpt>
<trkpt lat="33.8103131" lon="-118.3938671">
  <ele>-0.131</ele>
  <time>2026-09-02T22:06:44Z</time>
  <course>186.68</course>
  <speed>0.022360679774997897</speed>
  <fix>3d</fix>
</trkpt>
<trkpt lat="33.810313" lon="-118.393867">
  <ele>-0.12</ele>
  <time>2026-09-02T22:06:44Z</time>
  <course>0.0</course>
  <speed>0.0</speed>
  <fix>3d</fix>
</trkpt>
<trkpt lat="33.8103131" lon="-118.3938671">
  <ele>-0.13</ele>
  <time>2026-09-02T22:06:44Z</time>
  <course>186.68</course>
  <speed>0.022360679774997897</speed>
  <fix>3d</fix>
</trkpt>
<trkpt lat="33.810313" lon="-118.393867">
  <ele>-0.12</ele>
  <time>2026-09-02T22:06:44Z</time>
  <course>0.0</course>
  <speed>0.0</speed>
  <fix>3d</fix>
</trkpt>
<trkpt lat="33.8103131" lon="-118.3938671">
  <ele>-0.13</ele>
  <time>2026-09-02T22:06:44Z</time>
  <course>186.67</course>
  <speed>0.022360679774997897</speed>
  <fix>3d</fix>
</trkpt>
<trkpt lat="33.810313" lon="-118.393867">
  <ele>-0.12</ele>
  <time>2026-09-02T22:06:44Z</time>
  <course>0.0</course>
  <speed>0.0</speed>
  <fix>3d</fix>
</trkpt>
<trkpt lat="33.8103131" lon="-118.3938671">
  <ele>-0.13</ele>
  <time>2026-09-02T22:06:44Z</time>
  <course>186.67</course>
  <speed>0.022360679774997897</speed>
  <fix>3d</fix>
</trkpt>
<trkpt lat="33.810313" lon="-118.393867">
  <ele>-0.12</ele>
  <time>2026-09-02T22:06:44Z</time>
  <course>0.0</course>
  <speed>0.0</speed>
  <fix>3d</fix>
</trkpt>
<trkpt lat="33.8103131" lon="-118.3938671">
  <ele>-0.129</ele>
  <time>2026-09-02T22:06:44Z</time>
  <course>186.67</course>
  <speed>0.022360679774997897</speed>
  <fix>3d</fix>
</trkpt>
<trkpt lat="33.810313" lon="-118.393867">
  <ele>-0.12</ele>
  <time>2026-09-02T22:06:44Z</time>
  <course>0.0</course>
  <speed>0.0</speed>
  <fix>3d</fix>
</trkpt>
<trkpt lat="33.8103131" lon="-118.3938671">
  <ele>-0.13</ele>
  <time>2026-09-02T22:06:44Z</time>
  <course>186.67</course>
  <speed>0.022360679774997897</speed>
  <fix>3d</fix>
</trkpt>
<trkpt lat="33.810313" lon="-118.393867">
  <ele>-0.12</ele>
  <time>2026-09-02T22:06:44Z</time>
  <course>0.0</course>
  <speed>0.0</speed>
  <fix>3d</fix>
</trkpt>
<trkpt lat="33.8103131" lon="-118.3938671">
  <ele>-0.13</ele>
  <time>2026-09-02T22:06:44Z</time>
  <course>186.67</course>
  <speed>0.022360679774997897</speed>
  <fix>3d</fix>
</trkpt>
<trkpt lat="33.810313" lon="-118.393867">
  <ele>-0.12</ele>
  <time>2026-09-02T22:06:44Z</time>
  <course>0.0</course>
  <speed>0.0</speed>
  <fix>3d</fix>
</trkpt>
<trkpt lat="33.8103131" lon="-118.3938671">
  <ele>-0.13</ele>
  <time>2026-09-02T22:06:44Z</time>
  <course>186.66</course>
  <speed>0.022360679774997897</speed>
  <fix>3d</fix>
</trkpt>
<trkpt lat="33.810313" lon="-118.393867">
  <ele>-0.12</ele>
  <time>2026-09-02T22:06:44Z</time>
  <course>0.0</course>
  <speed>0.0</speed>
  <fix>3d</fix>
</trkpt>
<trkpt lat="33.4368002" lon="-117.0859339">
  <ele>-0.11</ele>
  <time>2026-09-02T22:06:45Z</time>
  <course>0.0</course>
  <speed>0.0</speed>
  <fix>3d</fix>
</trkpt>
<trkpt lat="33.4368002" lon="-117.0859339">
  <ele>-0.11</ele>
  <time>2026-09-02T22:06:45Z</time>
  <course>0.0</course>
  <speed>0.0</speed>
  <fix>3d</fix>
</trkpt>
<trkpt lat="33.810313" lon="-118.393867">
  <ele>0.0</ele>
  <time>2026-09-02T22:06:45Z</time>
  <course>173.5</course>
  <speed>0.0</speed>
  <fix>3d</fix>
</trkpt>
<trkpt lat="33.810313" lon="-118.393867">
  <ele>-0.11</ele>
  <time>2026-09-02T22:06:45Z</time>
  <course>0.0</course>
  <speed>0.0</speed>
  <fix>3d</fix>
</trkpt>
<trkpt lat="33.4368002" lon="-117.0859339">
  <ele>-0.11</ele>
  <time>2026-09-02T22:06:47Z</time>
  <course>0.0</course>
  <speed>0.0</speed>
  <fix>3d</fix>
</trkpt>
<trkpt lat="33.4368002" lon="-117.0859339">
  <ele>-0.11</ele>
  <time>2026-09-02T22:06:48Z</time>
  <course>0.0</course>
  <speed>0.0</speed>
  <fix>3d</fix>
</trkpt>
<trkpt lat="33.810313" lon="-118.393867">
  <ele>0.0</ele>
  <time>2026-09-02T22:06:48Z</time>
  <course>173.5</course>
  <speed>0.0</speed>
  <fix>3d</fix>
</trkpt>
<trkpt lat="33.810313" lon="-118.393867">
  <ele>-0.11</ele>
  <time>2026-09-02T22:06:48Z</time>
  <course>0.0</course>
  <speed>0.0</speed>
  <fix>3d</fix>
</trkpt>
<trkpt lat="33.810313" lon="-118.393867">
  <ele>0.0</ele>
  <time>2026-09-02T22:06:48Z</time>
  <course>173.64</course>
  <speed>0.0</speed>
  <fix>3d</fix>
</trkpt>
<trkpt lat="33.810313" lon="-118.393867">
  <ele>-0.11</ele>
  <time>2026-09-02T22:06:48Z</time>
  <course>0.0</course>
  <speed>0.0</speed>
  <fix>3d</fix>
</trkpt>
<trkpt lat="33.810313" lon="-118.393867">
  <ele>0.0</ele>
  <time>2026-09-02T22:06:48Z</time>
  <course>174.03</course>
  <speed>0.0</speed>
  <fix>3d</fix>
</trkpt>
<trkpt lat="33.810313" lon="-118.393867">
  <ele>-0.11</ele>
  <time>2026-09-02T22:06:48Z</time>
  <course>0.0</course>
  <speed>0.0</speed>
  <fix>3d</fix>
</trkpt>
<trkpt lat="33.810313" lon="-118.393867">
  <ele>0.0</ele>
  <time>2026-09-02T22:06:48Z</time>
  <course>174.57</course>
  <speed>0.0</speed>
  <fix>3d</fix>
</trkpt>
<trkpt lat="33.810313" lon="-118.393867">
  <ele>-0.11</ele>
  <time>2026-09-02T22:06:48Z</time>
  <course>0.0</course>
  <speed>0.0</speed>
  <fix>3d</fix>
</trkpt>
<trkpt lat="33.810313" lon="-118.393867">
  <ele>0.0</ele>
  <time>2026-09-02T22:06:48Z</time>
  <course>175.13</course>
  <speed>0.0</speed>
  <fix>3d</fix>
</trkpt>
<trkpt lat="33.810313" lon="-118.393867">
  <ele>-0.12</ele>
  <time>2026-09-02T22:06:48Z</time>
  <course>0.0</course>
  <speed>0.0</speed>
  <fix>3d</fix>
</trkpt>
<trkpt lat="33.810313" lon="-118.393867">
  <ele>0.0</ele>
  <time>2026-09-02T22:06:48Z</time>
  <course>175.67</course>
  <speed>0.0</speed>
  <fix>3d</fix>
</trkpt>
<trkpt lat="33.810313" lon="-118.393867">
  <ele>-0.12</ele>
  <time>2026-09-02T22:06:48Z</time>
  <course>0.0</course>
  <speed>0.0</speed>
  <fix>3d</fix>
</trkpt>
<trkpt lat="33.810313" lon="-118.393867">
  <ele>0.0</ele>
  <time>2026-09-02T22:06:48Z</time>
  <course>176.17</course>
  <speed>0.0</speed>
  <fix>3d</fix>
</trkpt>
<trkpt lat="33.810313" lon="-118.393867">
  <ele>-0.13</ele>
  <time>2026-09-02T22:06:48Z</time>
  <course>0.0</course>
  <speed>0.0</speed>
  <fix>3d</fix>
</trkpt>
<trkpt lat="33.810313" lon="-118.393867">
  <ele>0.0</ele>
  <time>2026-09-02T22:06:48Z</time>
  <course>176.65</course>
  <speed>0.0</speed>
  <fix>3d</fix>
</trkpt>
<trkpt lat="33.810313" lon="-118.393867">
  <ele>-0.13</ele>
  <time>2026-09-02T22:06:48Z</time>
  <course>0.0</course>
  <speed>0.0</speed>
  <fix>3d</fix>
</trkpt>
<trkpt lat="33.810313" lon="-118.393867">
  <ele>0.0</ele>
  <time>2026-09-02T22:06:48Z</time>
  <course>177.12</course>
  <speed>0.0</speed>
  <fix>3d</fix>
</trkpt>
<trkpt lat="33.810313" lon="-118.393867">
  <ele>-0.13</ele>
  <time>2026-09-02T22:06:48Z</time>
  <course>0.0</course>
  <speed>0.0</speed>
  <fix>3d</fix>
</trkpt>
<trkpt lat="33.810313" lon="-118.393867">
  <ele>0.0</ele>
  <time>2026-09-02T22:06:48Z</time>
  <course>177.57</course>
  <speed>0.0</speed>
  <fix>3d</fix>
</trkpt>
<trkpt lat="33.810313" lon="-118.393867">
  <ele>-0.13</ele>
  <time>2026-09-02T22:06:48Z</time>
  <course>0.0</course>
  <speed>0.0</speed>
  <fix>3d</fix>
</trkpt>
<trkpt lat="33.810313" lon="-118.393867">
  <ele>0.0</ele>
  <time>2026-09-02T22:06:48Z</time>
  <course>178.02</course>
  <speed>0.0</speed>
  <fix>3d</fix>
</trkpt>
<trkpt lat="33.810313" lon="-118.393867">
  <ele>-0.14</ele>
  <time>2026-09-02T22:06:48Z</time>
  <course>0.0</course>
  <speed>0.0</speed>
  <fix>3d</fix>
</trkpt>
<trkpt lat="33.810313" lon="-118.393867">
  <ele>0.0</ele>
  <time>2026-09-02T22:06:48Z</time>
  <course>178.45</course>
  <speed>0.0</speed>
  <fix>3d</fix>
</trkpt>
<trkpt lat="33.810313" lon="-118.393867">
  <ele>-0.14</ele>
  <time>2026-09-02T22:06:48Z</time>
  <course>0.0</course>
  <speed>0.0</speed>
  <fix>3d</fix>
</trkpt>
<trkpt lat="33.810313" lon="-118.393867">
  <ele>0.0</ele>
  <time>2026-09-02T22:06:48Z</time>
  <course>178.87</course>
  <speed>0.0</speed>
  <fix>3d</fix>
</trkpt>
<trkpt lat="33.810313" lon="-118.393867">
  <ele>-0.14</ele>
  <time>2026-09-02T22:06:48Z</time>
  <course>0.0</course>
  <speed>0.0</speed>
  <fix>3d</fix>
</trkpt>
<trkpt lat="33.810313" lon="-118.393867">
  <ele>0.0</ele>
  <time>2026-09-02T22:06:48Z</time>
  <course>179.27</course>
  <speed>0.0</speed>
  <fix>3d</fix>
</trkpt>
<trkpt lat="33.810313" lon="-118.393867">
  <ele>-0.14</ele>
  <time>2026-09-02T22:06:48Z</time>
  <course>0.0</course>
  <speed>0.0</speed>
  <fix>3d</fix>
</trkpt>
<trkpt lat="33.810313" lon="-118.393867">
  <ele>0.0</ele>
  <time>2026-09-02T22:06:48Z</time>
  <course>179.66</course>
  <speed>0.0</speed>
  <fix>3d</fix>
</trkpt>
<trkpt lat="33.810313" lon="-118.393867">
  <ele>-0.14</ele>
  <time>2026-09-02T22:06:48Z</time>
  <course>0.0</course>
  <speed>0.0</speed>
  <fix>3d</fix>
</trkpt>
<trkpt lat="33.810313" lon="-118.393867">
  <ele>0.0</ele>
  <time>2026-09-02T22:06:48Z</time>
  <course>180.05</course>
  <speed>0.0</speed>
  <fix>3d</fix>
</trkpt>
<trkpt lat="33.810313" lon="-118.393867">
  <ele>-0.14</ele>
  <time>2026-09-02T22:06:48Z</time>
  <course>0.0</course>
  <speed>0.0</speed>
  <fix>3d</fix>
</trkpt>
<trkpt lat="33.810313" lon="-118.393867">
  <ele>0.0</ele>
  <time>2026-09-02T22:06:48Z</time>
  <course>180.41</course>
  <speed>0.0</speed>
  <fix>3d</fix>
</trkpt>
<trkpt lat="33.810313" lon="-118.393867">
  <ele>-0.14</ele>
  <time>2026-09-02T22:06:48Z</time>
  <course>0.0</course>
  <speed>0.0</speed>
  <fix>3d</fix>
</trkpt>
<trkpt lat="33.810313" lon="-118.393867">
  <ele>0.0</ele>
  <time>2026-09-02T22:06:48Z</time>
  <course>180.76</course>
  <speed>0.0</speed>
  <fix>3d</fix>
</trkpt>
<trkpt lat="33.810313" lon="-118.393867">
  <ele>-0.14</ele>
  <time>2026-09-02T22:06:48Z</time>
  <course>0.0</course>
  <speed>0.0</speed>
  <fix>3d</fix>
</trkpt>
<trkpt lat="33.810313" lon="-118.393867">
  <ele>0.0</ele>
  <time>2026-09-02T22:06:48Z</time>
  <course>181.1</course>
  <speed>0.0</speed>
  <fix>3d</fix>
</trkpt>
<trkpt lat="33.810313" lon="-118.393867">
  <ele>-0.13</ele>
  <time>2026-09-02T22:06:48Z</time>
  <course>0.0</course>
  <speed>0.0</speed>
  <fix>3d</fix>
</trkpt>
<trkpt lat="33.810313" lon="-118.393867">
  <ele>0.0</ele>
  <time>2026-09-02T22:06:48Z</time>
  <course>181.43</course>
  <speed>0.0</speed>
  <fix>3d</fix>
</trkpt>
<trkpt lat="33.810313" lon="-118.393867">
  <ele>-0.13</ele>
  <time>2026-09-02T22:06:48Z</time>
  <course>0.0</course>
  <speed>0.0</speed>
  <fix>3d</fix>
</trkpt>
<trkpt lat="33.810313" lon="-118.393867">
  <ele>0.0</ele>
  <time>2026-09-02T22:06:48Z</time>
  <course>181.75</course>
  <speed>0.0</speed>
  <fix>3d</fix>
</trkpt>
<trkpt lat="33.810313" lon="-118.393867">
  <ele>-0.12</ele>
  <time>2026-09-02T22:06:48Z</time>
  <course>0.0</course>
  <speed>0.0</speed>
  <fix>3d</fix>
</trkpt>
<trkpt lat="33.810313" lon="-118.393867">
  <ele>0.0</ele>
  <time>2026-09-02T22:06:48Z</time>
  <course>182.05</course>
  <speed>0.0</speed>
  <fix>3d</fix>
</trkpt>
<trkpt lat="33.810313" lon="-118.393867">
  <ele>-0.12</ele>
  <time>2026-09-02T22:06:48Z</time>
  <course>0.0</course>
  <speed>0.0</speed>
  <fix>3d</fix>
</trkpt>
<trkpt lat="33.810313" lon="-118.393867">
  <ele>0.0</ele>
  <time>2026-09-02T22:06:48Z</time>
  <course>182.35</course>
  <speed>0.0</speed>
  <fix>3d</fix>
</trkpt>
<trkpt lat="33.810313" lon="-118.393867">
  <ele>-0.12</ele>
  <time>2026-09-02T22:06:48Z</time>
  <course>0.0</course>
  <speed>0.0</speed>
  <fix>3d</fix>
</trkpt>
<trkpt lat="33.810313" lon="-118.393867">
  <ele>0.0</ele>
  <time>2026-09-02T22:06:48Z</time>
  <course>182.63</course>
  <speed>0.0</speed>
  <fix>3d</fix>
</trkpt>
<trkpt lat="33.810313" lon="-118.393867">
  <ele>-0.12</ele>
  <time>2026-09-02T22:06:48Z</time>
  <course>0.0</course>
  <speed>0.0</speed>
  <fix>3d</fix>
</trkpt>
<trkpt lat="33.810313" lon="-118.393867">
  <ele>0.0</ele>
  <time>2026-09-02T22:06:48Z</time>
  <course>182.9</course>
  <speed>0.0</speed>
  <fix>3d</fix>
</trkpt>
<trkpt lat="33.810313" lon="-118.393867">
  <ele>-0.11</ele>
  <time>2026-09-02T22:06:48Z</time>
  <course>0.0</course>
  <speed>0.0</speed>
  <fix>3d</fix>
</trkpt>
<trkpt lat="33.810313" lon="-118.393867">
  <ele>0.0</ele>
  <time>2026-09-02T22:06:48Z</time>
  <course>183.16</course>
  <speed>0.0</speed>
  <fix>3d</fix>
</trkpt>
<trkpt lat="33.810313" lon="-118.393867">
  <ele>-0.11</ele>
  <time>2026-09-02T22:06:48Z</time>
  <course>0.0</course>
  <speed>0.0</speed>
  <fix>3d</fix>
</trkpt>
<trkpt lat="33.810313" lon="-118.393867">
  <ele>0.0</ele>
  <time>2026-09-02T22:06:48Z</time>
  <course>183.41</course>
  <speed>0.0</speed>
  <fix>3d</fix>
</trkpt>
<trkpt lat="33.810313" lon="-118.393867">
  <ele>-0.11</ele>
  <time>2026-09-02T22:06:48Z</time>
  <course>0.0</course>
  <speed>0.0</speed>
  <fix>3d</fix>
</trkpt>
<trkpt lat="33.810313" lon="-118.393867">
  <ele>0.0</ele>
  <time>2026-09-02T22:06:48Z</time>
  <course>183.65</course>
  <speed>0.0</speed>
  <fix>3d</fix>
</trkpt>
<trkpt lat="33.810313" lon="-118.393867">
  <ele>-0.11</ele>
  <time>2026-09-02T22:06:48Z</time>
  <course>0.0</course>
  <speed>0.0</speed>
  <fix>3d</fix>
</trkpt>
<trkpt lat="33.810313" lon="-118.393867">
  <ele>0.0</ele>
  <time>2026-09-02T22:06:48Z</time>
  <course>183.88</course>
  <speed>0.0</speed>
  <fix>3d</fix>
</trkpt>
<trkpt lat="33.810313" lon="-118.393867">
  <ele>-0.12</ele>
  <time>2026-09-02T22:06:48Z</time>
  <course>0.0</course>
  <speed>0.0</speed>
  <fix>3d</fix>
</trkpt>
<trkpt lat="33.810313" lon="-118.393867">
  <ele>0.0</ele>
  <time>2026-09-02T22:06:48Z</time>
  <course>184.11</course>
  <speed>0.0</speed>
  <fix>3d</fix>
</trkpt>
<trkpt lat="33.810313" lon="-118.393867">
  <ele>-0.12</ele>
  <time>2026-09-02T22:06:48Z</time>
  <course>0.0</course>
  <speed>0.0</speed>
  <fix>3d</fix>
</trkpt>
<trkpt lat="33.810313" lon="-118.393867">
  <ele>0.0</ele>
  <time>2026-09-02T22:06:48Z</time>
  <course>184.32</course>
  <speed>0.0</speed>
  <fix>3d</fix>
</trkpt>
<trkpt lat="33.810313" lon="-118.393867">
  <ele>-0.13</ele>
  <time>2026-09-02T22:06:48Z</time>
  <course>0.0</course>
  <speed>0.0</speed>
  <fix>3d</fix>
</trkpt>
<trkpt lat="33.810313" lon="-118.393867">
  <ele>0.0</ele>
  <time>2026-09-02T22:06:48Z</time>
  <course>184.52</course>
  <speed>0.0</speed>
  <fix>3d</fix>
</trkpt>
<trkpt lat="33.810313" lon="-118.393867">
  <ele>-0.13</ele>
  <time>2026-09-02T22:06:48Z</time>
  <course>0.0</course>
  <speed>0.0</speed>
  <fix>3d</fix>
</trkpt>
<trkpt lat="33.810313" lon="-118.393867">
  <ele>0.0</ele>
  <time>2026-09-02T22:06:48Z</time>
  <course>184.72</course>
  <speed>0.0</speed>
  <fix>3d</fix>
</trkpt>
<trkpt lat="33.810313" lon="-118.393867">
  <ele>-0.13</ele>
  <time>2026-09-02T22:06:48Z</time>
  <course>0.0</course>
  <speed>0.0</speed>
  <fix>3d</fix>
</trkpt>
<trkpt lat="33.810313" lon="-118.393867">
  <ele>0.0</ele>
  <time>2026-09-02T22:06:48Z</time>
  <course>184.91</course>
  <speed>0.0</speed>
  <fix>3d</fix>
</trkpt>
<trkpt lat="33.810313" lon="-118.393867">
  <ele>-0.13</ele>
  <time>2026-09-02T22:06:48Z</time>
  <course>0.0</course>
  <speed>0.0</speed>
  <fix>3d</fix>
</trkpt>
<trkpt lat="33.810313" lon="-118.393867">
  <ele>0.0</ele>
  <time>2026-09-02T22:06:48Z</time>
  <course>185.09</course>
  <speed>0.0</speed>
  <fix>3d</fix>
</trkpt>
<trkpt lat="33.810313" lon="-118.393867">
  <ele>-0.14</ele>
  <time>2026-09-02T22:06:48Z</time>
  <course>0.0</course>
  <speed>0.0</speed>
  <fix>3d</fix>
</trkpt>
<trkpt lat="33.810313" lon="-118.393867">
  <ele>0.0</ele>
  <time>2026-09-02T22:06:48Z</time>
  <course>185.26</course>
  <speed>0.0</speed>
  <fix>3d</fix>
</trkpt>
<trkpt lat="33.810313" lon="-118.393867">
  <ele>-0.14</ele>
  <time>2026-09-02T22:06:48Z</time>
  <course>0.0</course>
  <speed>0.0</speed>
  <fix>3d</fix>
</trkpt>
<trkpt lat="33.810313" lon="-118.393867">
  <ele>0.0</ele>
  <time>2026-09-02T22:06:48Z</time>
  <course>185.42</course>
  <speed>0.0</speed>
  <fix>3d</fix>
</trkpt>
<trkpt lat="33.810313" lon="-118.393867">
  <ele>-0.13</ele>
  <time>2026-09-02T22:06:48Z</time>
  <course>0.0</course>
  <speed>0.0</speed>
  <fix>3d</fix>
</trkpt>
<trkpt lat="33.810313" lon="-118.393867">
  <ele>0.0</ele>
  <time>2026-09-02T22:06:48Z</time>
  <course>185.58</course>
  <speed>0.0</speed>
  <fix>3d</fix>
</trkpt>
<trkpt lat="33.810313" lon="-118.393867">
  <ele>-0.13</ele>
  <time>2026-09-02T22:06:48Z</time>
  <course>0.0</course>
  <speed>0.0</speed>
  <fix>3d</fix>
</trkpt>
<trkpt lat="33.810313" lon="-118.393867">
  <ele>0.0</ele>
  <time>2026-09-02T22:06:48Z</time>
  <course>185.73</course>
  <speed>0.0</speed>
  <fix>3d</fix>
</trkpt>
<trkpt lat="33.810313" lon="-118.393867">
  <ele>-0.13</ele>
  <time>2026-09-02T22:06:48Z</time>
  <course>0.0</course>
  <speed>0.0</speed>
  <fix>3d</fix>
</trkpt>
<trkpt lat="33.810313" lon="-118.393867">
  <ele>0.0</ele>
  <time>2026-09-02T22:06:48Z</time>
  <course>185.87</course>
  <speed>0.0</speed>
  <fix>3d</fix>
</trkpt>
<trkpt lat="33.810313" lon="-118.393867">
  <ele>-0.13</ele>
  <time>2026-09-02T22:06:48Z</time>
  <course>0.0</course>
  <speed>0.0</speed>
  <fix>3d</fix>
</trkpt>
<trkpt lat="33.810313" lon="-118.393867">
  <ele>0.0</ele>
  <time>2026-09-02T22:06:48Z</time>
  <course>186.01</course>
  <speed>0.0</speed>
  <fix>3d</fix>
</trkpt>
<trkpt lat="33.810313" lon="-118.393867">
  <ele>-0.12</ele>
  <time>2026-09-02T22:06:48Z</time>
  <course>0.0</course>
  <speed>0.0</speed>
  <fix>3d</fix>
</trkpt>
<trkpt lat="33.810313" lon="-118.393867">
  <ele>0.0</ele>
  <time>2026-09-02T22:06:48Z</time>
  <course>186.14</course>
  <speed>0.0</speed>
  <fix>3d</fix>
</trkpt>
<trkpt lat="33.810313" lon="-118.393867">
  <ele>-0.12</ele>
  <time>2026-09-02T22:06:48Z</time>
  <course>0.0</course>
  <speed>0.0</speed>
  <fix>3d</fix>
</trkpt>
<trkpt lat="33.810313" lon="-118.393867">
  <ele>0.0</ele>
  <time>2026-09-02T22:06:48Z</time>
  <course>186.27</course>
  <speed>0.0</speed>
  <fix>3d</fix>
</trkpt>
<trkpt lat="33.810313" lon="-118.393867">
  <ele>-0.12</ele>
  <time>2026-09-02T22:06:48Z</time>
  <course>0.0</course>
  <speed>0.0</speed>
  <fix>3d</fix>
</trkpt>
<trkpt lat="33.810313" lon="-118.393867">
  <ele>0.0</ele>
  <time>2026-09-02T22:06:48Z</time>
  <course>186.39</course>
  <speed>0.0</speed>
  <fix>3d</fix>
</trkpt>
<trkpt lat="33.810313" lon="-118.393867">
  <ele>-0.12</ele>
  <time>2026-09-02T22:06:48Z</time>
  <course>0.0</course>
  <speed>0.0</speed>
  <fix>3d</fix>
</trkpt>
<trkpt lat="33.810313" lon="-118.393867">
  <ele>0.0</ele>
  <time>2026-09-02T22:06:48Z</time>
  <course>186.5</course>
  <speed>0.0</speed>
  <fix>3d</fix>
</trkpt>
<trkpt lat="33.810313" lon="-118.393867">
  <ele>-0.12</ele>
  <time>2026-09-02T22:06:48Z</time>
  <course>0.0</course>
  <speed>0.0</speed>
  <fix>3d</fix>
</trkpt>
<trkpt lat="33.810313" lon="-118.393867">
  <ele>0.0</ele>
  <time>2026-09-02T22:06:48Z</time>
  <course>186.61</course>
  <speed>0.0</speed>
  <fix>3d</fix>
</trkpt>
<trkpt lat="33.810313" lon="-118.393867">
  <ele>-0.12</ele>
  <time>2026-09-02T22:06:48Z</time>
  <course>0.0</course>
  <speed>0.0</speed>
  <fix>3d</fix>
</trkpt>
<trkpt lat="33.810313" lon="-118.393867">
  <ele>0.0</ele>
  <time>2026-09-02T22:06:48Z</time>
  <course>186.72</course>
  <speed>0.0</speed>
  <fix>3d</fix>
</trkpt>
<trkpt lat="33.810313" lon="-118.393867">
  <ele>-0.12</ele>
  <time>2026-09-02T22:06:48Z</time>
  <course>0.0</course>
  <speed>0.0</speed>
  <fix>3d</fix>
</trkpt>
<trkpt lat="33.810313" lon="-118.393867">
  <ele>0.0</ele>
  <time>2026-09-02T22:06:48Z</time>
  <course>186.82</course>
  <speed>0.0</speed>
  <fix>3d</fix>
</trkpt>
<trkpt lat="33.810313" lon="-118.393867">
  <ele>-0.12</ele>
  <time>2026-09-02T22:06:48Z</time>
  <course>0.0</course>
  <speed>0.0</speed>
  <fix>3d</fix>
</trkpt>
<trkpt lat="33.810313" lon="-118.393867">
  <ele>0.0</ele>
  <time>2026-09-02T22:06:48Z</time>
  <course>186.91</course>
  <speed>0.0</speed>
  <fix>3d</fix>
</trkpt>
<trkpt lat="33.810313" lon="-118.393867">
  <ele>-0.12</ele>
  <time>2026-09-02T22:06:48Z</time>
  <course>0.0</course>
  <speed>0.0</speed>
  <fix>3d</fix>
</trkpt>
<trkpt lat="33.810313" lon="-118.393867">
  <ele>0.0</ele>
  <time>2026-09-02T22:06:48Z</time>
  <course>187.0</course>
  <speed>0.0</speed>
  <fix>3d</fix>
</trkpt>
<trkpt lat="33.810313" lon="-118.393867">
  <ele>-0.12</ele>
  <time>2026-09-02T22:06:48Z</time>
  <course>0.0</course>
  <speed>0.0</speed>
  <fix>3d</fix>
</trkpt>
<trkpt lat="33.810313" lon="-118.393867">
  <ele>0.0</ele>
  <time>2026-09-02T22:06:48Z</time>
  <course>187.09</course>
  <speed>0.0</speed>
  <fix>3d</fix>
</trkpt>
<trkpt lat="33.810313" lon="-118.393867">
  <ele>-0.13</ele>
  <time>2026-09-02T22:06:48Z</time>
  <course>0.0</course>
  <speed>0.0</speed>
  <fix>3d</fix>
</trkpt>
<trkpt lat="33.810313" lon="-118.393867">
  <ele>0.0</ele>
  <time>2026-09-02T22:06:48Z</time>
  <course>187.17</course>
  <speed>0.0</speed>
  <fix>3d</fix>
</trkpt>
<trkpt lat="33.810313" lon="-118.393867">
  <ele>-0.13</ele>
  <time>2026-09-02T22:06:48Z</time>
  <course>0.0</course>
  <speed>0.0</speed>
  <fix>3d</fix>
</trkpt>
<trkpt lat="33.810313" lon="-118.393867">
  <ele>0.0</ele>
  <time>2026-09-02T22:06:48Z</time>
  <course>187.25</course>
  <speed>0.0</speed>
  <fix>3d</fix>
</trkpt>
<trkpt lat="33.810313" lon="-118.393867">
  <ele>-0.13</ele>
  <time>2026-09-02T22:06:48Z</time>
  <course>0.0</course>
  <speed>0.0</speed>
  <fix>3d</fix>
</trkpt>
<trkpt lat="33.810313" lon="-118.393867">
  <ele>0.0</ele>
  <time>2026-09-02T22:06:48Z</time>
  <course>187.33</course>
  <speed>0.0</speed>
  <fix>3d</fix>
</trkpt>
<trkpt lat="33.810313" lon="-118.393867">
  <ele>-0.13</ele>
  <time>2026-09-02T22:06:48Z</time>
  <course>0.0</course>
  <speed>0.0</speed>
  <fix>3d</fix>
</trkpt>
<trkpt lat="33.810313" lon="-118.393867">
  <ele>0.0</ele>
  <time>2026-09-02T22:06:48Z</time>
  <course>187.4</course>
  <speed>0.0</speed>
  <fix>3d</fix>
</trkpt>
<trkpt lat="33.810313" lon="-118.393867">
  <ele>-0.13</ele>
  <time>2026-09-02T22:06:48Z</time>
  <course>0.0</course>
  <speed>0.0</speed>
  <fix>3d</fix>
</trkpt>
<trkpt lat="33.810313" lon="-118.393867">
  <ele>0.0</ele>
  <time>2026-09-02T22:06:48Z</time>
  <course>187.47</course>
  <speed>0.0</speed>
  <fix>3d</fix>
</trkpt>
<trkpt lat="33.810313" lon="-118.393867">
  <ele>-0.13</ele>
  <time>2026-09-02T22:06:48Z</time>
  <course>0.0</course>
  <speed>0.0</speed>
  <fix>3d</fix>
</trkpt>
<trkpt lat="33.810313" lon="-118.393867">
  <ele>0.0</ele>
  <time>2026-09-02T22:06:48Z</time>
  <course>187.53</course>
  <speed>0.0</speed>
  <fix>3d</fix>
</trkpt>
<trkpt lat="33.810313" lon="-118.393867">
  <ele>-0.13</ele>
  <time>2026-09-02T22:06:48Z</time>
  <course>0.0</course>
  <speed>0.0</speed>
  <fix>3d</fix>
</trkpt>
<trkpt lat="33.810313" lon="-118.393867">
  <ele>0.0</ele>
  <time>2026-09-02T22:06:48Z</time>
  <course>187.59</course>
  <speed>0.0</speed>
  <fix>3d</fix>
</trkpt>
<trkpt lat="33.810313" lon="-118.393867">
  <ele>-0.13</ele>
  <time>2026-09-02T22:06:48Z</time>
  <course>0.0</course>
  <speed>0.0</speed>
  <fix>3d</fix>
</trkpt>
<trkpt lat="33.810313" lon="-118.393867">
  <ele>0.0</ele>
  <time>2026-09-02T22:06:48Z</time>
  <course>187.65</course>
  <speed>0.0</speed>
  <fix>3d</fix>
</trkpt>
<trkpt lat="33.810313" lon="-118.393867">
  <ele>-0.12</ele>
  <time>2026-09-02T22:06:48Z</time>
  <course>0.0</course>
  <speed>0.0</speed>
  <fix>3d</fix>
</trkpt>
<trkpt lat="33.810313" lon="-118.393867">
  <ele>0.0</ele>
  <time>2026-09-02T22:06:48Z</time>
  <course>187.71</course>
  <speed>0.0</speed>
  <fix>3d</fix>
</trkpt>
<trkpt lat="33.810313" lon="-118.393867">
  <ele>-0.12</ele>
  <time>2026-09-02T22:06:48Z</time>
  <course>0.0</course>
  <speed>0.0</speed>
  <fix>3d</fix>
</trkpt>
<trkpt lat="33.810313" lon="-118.393867">
  <ele>0.0</ele>
  <time>2026-09-02T22:06:48Z</time>
  <course>187.76</course>
  <speed>0.0</speed>
  <fix>3d</fix>
</trkpt>
<trkpt lat="33.810313" lon="-118.393867">
  <ele>-0.12</ele>
  <time>2026-09-02T22:06:48Z</time>
  <course>0.0</course>
  <speed>0.0</speed>
  <fix>3d</fix>
</trkpt>
<trkpt lat="33.810313" lon="-118.393867">
  <ele>0.0</ele>
  <time>2026-09-02T22:06:48Z</time>
  <course>187.81</course>
  <speed>0.0</speed>
  <fix>3d</fix>
</trkpt>
<trkpt lat="33.810313" lon="-118.393867">
  <ele>-0.12</ele>
  <time>2026-09-02T22:06:48Z</time>
  <course>0.0</course>
  <speed>0.0</speed>
  <fix>3d</fix>
</trkpt>
<trkpt lat="33.810313" lon="-118.393867">
  <ele>0.0</ele>
  <time>2026-09-02T22:06:48Z</time>
  <course>187.86</course>
  <speed>0.0</speed>
  <fix>3d</fix>
</trkpt>
<trkpt lat="33.810313" lon="-118.393867">
  <ele>-0.12</ele>
  <time>2026-09-02T22:06:48Z</time>
  <course>0.0</course>
  <speed>0.0</speed>
  <fix>3d</fix>
</trkpt>
<trkpt lat="33.810313" lon="-118.393867">
  <ele>0.0</ele>
  <time>2026-09-02T22:06:48Z</time>
  <course>187.91</course>
  <speed>0.0</speed>
  <fix>3d</fix>
</trkpt>
<trkpt lat="33.810313" lon="-118.393867">
  <ele>-0.12</ele>
  <time>2026-09-02T22:06:48Z</time>
  <course>0.0</course>
  <speed>0.0</speed>
  <fix>3d</fix>
</trkpt>
<trkpt lat="33.810313" lon="-118.393867">
  <ele>0.0</ele>
  <time>2026-09-02T22:06:48Z</time>
  <course>187.95</course>
  <speed>0.0</speed>
  <fix>3d</fix>
</trkpt>
<trkpt lat="33.810313" lon="-118.393867">
  <ele>-0.12</ele>
  <time>2026-09-02T22:06:48Z</time>
  <course>0.0</course>
  <speed>0.0</speed>
  <fix>3d</fix>
</trkpt>
<trkpt lat="33.810313" lon="-118.393867">
  <ele>0.0</ele>
  <time>2026-09-02T22:06:48Z</time>
  <course>187.99</course>
  <speed>0.0</speed>
  <fix>3d</fix>
</trkpt>
<trkpt lat="33.810313" lon="-118.393867">
  <ele>-0.12</ele>
  <time>2026-09-02T22:06:48Z</time>
  <course>0.0</course>
  <speed>0.0</speed>
  <fix>3d</fix>
</trkpt>
<trkpt lat="33.810313" lon="-118.393867">
  <ele>0.0</ele>
  <time>2026-09-02T22:06:48Z</time>
  <course>188.03</course>
  <speed>0.0</speed>
  <fix>3d</fix>
</trkpt>
<trkpt lat="33.810313" lon="-118.393867">
  <ele>-0.12</ele>
  <time>2026-09-02T22:06:48Z</time>
  <course>0.0</course>
  <speed>0.0</speed>
  <fix>3d</fix>
</trkpt>
<trkpt lat="33.810313" lon="-118.393867">
  <ele>0.0</ele>
  <time>2026-09-02T22:06:48Z</time>
  <course>188.07</course>
  <speed>0.0</speed>
  <fix>3d</fix>
</trkpt>
<trkpt lat="33.810313" lon="-118.393867">
  <ele>-0.12</ele>
  <time>2026-09-02T22:06:48Z</time>
  <course>0.0</course>
  <speed>0.0</speed>
  <fix>3d</fix>
</trkpt>
<trkpt lat="33.810313" lon="-118.393867">
  <ele>0.0</ele>
  <time>2026-09-02T22:06:48Z</time>
  <course>188.1</course>
  <speed>0.0</speed>
  <fix>3d</fix>
</trkpt>
<trkpt lat="33.810313" lon="-118.393867">
  <ele>-0.13</ele>
  <time>2026-09-02T22:06:48Z</time>
  <course>0.0</course>
  <speed>0.0</speed>
  <fix>3d</fix>
</trkpt>
<trkpt lat="33.810313" lon="-118.393867">
  <ele>0.0</ele>
  <time>2026-09-02T22:06:48Z</time>
  <course>188.13</course>
  <speed>0.0</speed>
  <fix>3d</fix>
</trkpt>
<trkpt lat="33.810313" lon="-118.393867">
  <ele>-0.13</ele>
  <time>2026-09-02T22:06:48Z</time>
  <course>0.0</course>
  <speed>0.0</speed>
  <fix>3d</fix>
</trkpt>
<trkpt lat="33.810313" lon="-118.393867">
  <ele>0.0</ele>
  <time>2026-09-02T22:06:48Z</time>
  <course>188.17</course>
  <speed>0.0</speed>
  <fix>3d</fix>
</trkpt>
<trkpt lat="33.810313" lon="-118.393867">
  <ele>-0.13</ele>
  <time>2026-09-02T22:06:48Z</time>
  <course>0.0</course>
  <speed>0.0</speed>
  <fix>3d</fix>
</trkpt>
<trkpt lat="33.810313" lon="-118.393867">
  <ele>0.0</ele>
  <time>2026-09-02T22:06:48Z</time>
  <course>188.19</course>
  <speed>0.0</speed>
  <fix>3d</fix>
</trkpt>
<trkpt lat="33.810313" lon="-118.393867">
  <ele>-0.13</ele>
  <time>2026-09-02T22:06:48Z</time>
  <course>0.0</course>
  <speed>0.0</speed>
  <fix>3d</fix>
</trkpt>
<trkpt lat="33.810313" lon="-118.393867">
  <ele>0.0</ele>
  <time>2026-09-02T22:06:48Z</time>
  <course>188.22</course>
  <speed>0.0</speed>
  <fix>3d</fix>
</trkpt>
<trkpt lat="33.810313" lon="-118.393867">
  <ele>-0.13</ele>
  <time>2026-09-02T22:06:48Z</time>
  <course>0.0</course>
  <speed>0.0</speed>
  <fix>3d</fix>
</trkpt>
<trkpt lat="33.810313" lon="-118.393867">
  <ele>0.0</ele>
  <time>2026-09-02T22:06:48Z</time>
  <course>188.25</course>
  <speed>0.0</speed>
  <fix>3d</fix>
</trkpt>
<trkpt lat="33.810313" lon="-118.393867">
  <ele>-0.13</ele>
  <time>2026-09-02T22:06:48Z</time>
  <course>0.0</course>
  <speed>0.0</speed>
  <fix>3d</fix>
</trkpt>
<trkpt lat="33.810313" lon="-118.393867">
  <ele>0.0</ele>
  <time>2026-09-02T22:06:48Z</time>
  <course>188.27</course>
  <speed>0.0</speed>
  <fix>3d</fix>
</trkpt>
<trkpt lat="33.810313" lon="-118.393867">
  <ele>-0.12</ele>
  <time>2026-09-02T22:06:48Z</time>
  <course>0.0</course>
  <speed>0.0</speed>
  <fix>3d</fix>
</trkpt>
<trkpt lat="33.810313" lon="-118.393867">
  <ele>0.0</ele>
  <time>2026-09-02T22:06:48Z</time>
  <course>188.3</course>
  <speed>0.0</speed>
  <fix>3d</fix>
</trkpt>
<trkpt lat="33.810313" lon="-118.393867">
  <ele>-0.12</ele>
  <time>2026-09-02T22:06:48Z</time>
  <course>0.0</course>
  <speed>0.0</speed>
  <fix>3d</fix>
</trkpt>
<trkpt lat="33.810313" lon="-118.393867">
  <ele>0.0</ele>
  <time>2026-09-02T22:06:48Z</time>
  <course>188.32</course>
  <speed>0.0</speed>
  <fix>3d</fix>
</trkpt>
<trkpt lat="33.810313" lon="-118.393867">
  <ele>-0.12</ele>
  <time>2026-09-02T22:06:48Z</time>
  <course>0.0</course>
  <speed>0.0</speed>
  <fix>3d</fix>
</trkpt>
<trkpt lat="33.810313" lon="-118.393867">
  <ele>0.0</ele>
  <time>2026-09-02T22:06:48Z</time>
  <course>188.34</course>
  <speed>0.0</speed>
  <fix>3d</fix>
</trkpt>
<trkpt lat="33.810313" lon="-118.393867">
  <ele>-0.12</ele>
  <time>2026-09-02T22:06:48Z</time>
  <course>0.0</course>
  <speed>0.0</speed>
  <fix>3d</fix>
</trkpt>
<trkpt lat="33.810313" lon="-118.393867">
  <ele>0.0</ele>
  <time>2026-09-02T22:06:48Z</time>
  <course>188.36</course>
  <speed>0.0</speed>
  <fix>3d</fix>
</trkpt>
<trkpt lat="33.810313" lon="-118.393867">
  <ele>-0.12</ele>
  <time>2026-09-02T22:06:48Z</time>
  <course>0.0</course>
  <speed>0.0</speed>
  <fix>3d</fix>
</trkpt>
<trkpt lat="33.810313" lon="-118.393867">
  <ele>0.0</ele>
  <time>2026-09-02T22:06:48Z</time>
  <course>188.38</course>
  <speed>0.0</speed>
  <fix>3d</fix>
</trkpt>
<trkpt lat="33.810313" lon="-118.393867">
  <ele>-0.12</ele>
  <time>2026-09-02T22:06:48Z</time>
  <course>0.0</course>
  <speed>0.0</speed>
  <fix>3d</fix>
</trkpt>
<trkpt lat="33.810313" lon="-118.393867">
  <ele>0.0</ele>
  <time>2026-09-02T22:06:48Z</time>
  <course>188.39</course>
  <speed>0.0</speed>
  <fix>3d</fix>
</trkpt>
<trkpt lat="33.810313" lon="-118.393867">
  <ele>-0.12</ele>
  <time>2026-09-02T22:06:48Z</time>
  <course>0.0</course>
  <speed>0.0</speed>
  <fix>3d</fix>
</trkpt>
<trkpt lat="33.810313" lon="-118.393867">
  <ele>0.0</ele>
  <time>2026-09-02T22:06:48Z</time>
  <course>188.41</course>
  <speed>0.0</speed>
  <fix>3d</fix>
</trkpt>
<trkpt lat="33.810313" lon="-118.393867">
  <ele>-0.12</ele>
  <time>2026-09-02T22:06:48Z</time>
  <course>0.0</course>
  <speed>0.0</speed>
  <fix>3d</fix>
</trkpt>
<trkpt lat="33.810313" lon="-118.393867">
  <ele>0.0</ele>
  <time>2026-09-02T22:06:48Z</time>
  <course>188.43</course>
  <speed>0.0</speed>
  <fix>3d</fix>
</trkpt>
<trkpt lat="33.810313" lon="-118.393867">
  <ele>-0.12</ele>
  <time>2026-09-02T22:06:48Z</time>
  <course>0.0</course>
  <speed>0.0</speed>
  <fix>3d</fix>
</trkpt>
<trkpt lat="33.810313" lon="-118.393867">
  <ele>0.0</ele>
  <time>2026-09-02T22:06:48Z</time>
  <course>188.44</course>
  <speed>0.0</speed>
  <fix>3d</fix>
</trkpt>
<trkpt lat="33.810313" lon="-118.393867">
  <ele>-0.12</ele>
  <time>2026-09-02T22:06:48Z</time>
  <course>0.0</course>
  <speed>0.0</speed>
  <fix>3d</fix>
</trkpt>
<trkpt lat="33.810313" lon="-118.393867">
  <ele>0.0</ele>
  <time>2026-09-02T22:06:48Z</time>
  <course>188.45</course>
  <speed>0.0</speed>
  <fix>3d</fix>
</trkpt>
<trkpt lat="33.810313" lon="-118.393867">
  <ele>-0.13</ele>
  <time>2026-09-02T22:06:48Z</time>
  <course>0.0</course>
  <speed>0.0</speed>
  <fix>3d</fix>
</trkpt>
<trkpt lat="33.810313" lon="-118.393867">
  <ele>0.0</ele>
  <time>2026-09-02T22:06:48Z</time>
  <course>188.46</course>
  <speed>0.0</speed>
  <fix>3d</fix>
</trkpt>
<trkpt lat="33.810313" lon="-118.393867">
  <ele>-0.13</ele>
  <time>2026-09-02T22:06:48Z</time>
  <course>0.0</course>
  <speed>0.0</speed>
  <fix>3d</fix>
</trkpt>
<trkpt lat="33.810313" lon="-118.393867">
  <ele>0.0</ele>
  <time>2026-09-02T22:06:48Z</time>
  <course>188.48</course>
  <speed>0.0</speed>
  <fix>3d</fix>
</trkpt>
<trkpt lat="33.810313" lon="-118.393867">
  <ele>-0.13</ele>
  <time>2026-09-02T22:06:48Z</time>
  <course>0.0</course>
  <speed>0.0</speed>
  <fix>3d</fix>
</trkpt>
<trkpt lat="33.810313" lon="-118.393867">
  <ele>0.0</ele>
  <time>2026-09-02T22:06:48Z</time>
  <course>188.49</course>
  <speed>0.0</speed>
  <fix>3d</fix>
</trkpt>
<trkpt lat="33.810313" lon="-118.393867">
  <ele>-0.13</ele>
  <time>2026-09-02T22:06:48Z</time>
  <course>0.0</course>
  <speed>0.0</speed>
  <fix>3d</fix>
</trkpt>
<trkpt lat="33.810313" lon="-118.393867">
  <ele>0.0</ele>
  <time>2026-09-02T22:06:48Z</time>
  <course>188.49</course>
  <speed>0.0</speed>
  <fix>3d</fix>
</trkpt>
<trkpt lat="33.810313" lon="-118.393867">
  <ele>-0.13</ele>
  <time>2026-09-02T22:06:48Z</time>
  <course>0.0</course>
  <speed>0.0</speed>
  <fix>3d</fix>
</trkpt>
<trkpt lat="33.810313" lon="-118.393867">
  <ele>0.0</ele>
  <time>2026-09-02T22:06:48Z</time>
  <course>188.5</course>
  <speed>0.0</speed>
  <fix>3d</fix>
</trkpt>
<trkpt lat="33.810313" lon="-118.393867">
  <ele>-0.13</ele>
  <time>2026-09-02T22:06:48Z</time>
  <course>0.0</course>
  <speed>0.0</speed>
  <fix>3d</fix>
</trkpt>
<trkpt lat="33.810313" lon="-118.393867">
  <ele>0.0</ele>
  <time>2026-09-02T22:06:48Z</time>
  <course>188.51</course>
  <speed>0.0</speed>
  <fix>3d</fix>
</trkpt>
<trkpt lat="33.810313" lon="-118.393867">
  <ele>-0.12</ele>
  <time>2026-09-02T22:06:48Z</time>
  <course>0.0</course>
  <speed>0.0</speed>
  <fix>3d</fix>
</trkpt>
<trkpt lat="33.810313" lon="-118.393867">
  <ele>0.0</ele>
  <time>2026-09-02T22:06:48Z</time>
  <course>188.52</course>
  <speed>0.0</speed>
  <fix>3d</fix>
</trkpt>
<trkpt lat="33.810313" lon="-118.393867">
  <ele>-0.12</ele>
  <time>2026-09-02T22:06:48Z</time>
  <course>0.0</course>
  <speed>0.0</speed>
  <fix>3d</fix>
</trkpt>
<trkpt lat="33.810313" lon="-118.393867">
  <ele>0.0</ele>
  <time>2026-09-02T22:06:48Z</time>
  <course>188.53</course>
  <speed>0.0</speed>
  <fix>3d</fix>
</trkpt>
<trkpt lat="33.810313" lon="-118.393867">
  <ele>-0.12</ele>
  <time>2026-09-02T22:06:48Z</time>
  <course>0.0</course>
  <speed>0.0</speed>
  <fix>3d</fix>
</trkpt>
<trkpt lat="33.810313" lon="-118.393867">
  <ele>0.0</ele>
  <time>2026-09-02T22:06:48Z</time>
  <course>188.53</course>
  <speed>0.0</speed>
  <fix>3d</fix>
</trkpt>
<trkpt lat="33.810313" lon="-118.393867">
  <ele>-0.12</ele>
  <time>2026-09-02T22:06:48Z</time>
  <course>0.0</course>
  <speed>0.0</speed>
  <fix>3d</fix>
</trkpt>
<trkpt lat="33.810313" lon="-118.393867">
  <ele>0.0</ele>
  <time>2026-09-02T22:06:48Z</time>
  <course>188.54</course>
  <speed>0.0</speed>
  <fix>3d</fix>
</trkpt>
<trkpt lat="33.810313" lon="-118.393867">
  <ele>-0.12</ele>
  <time>2026-09-02T22:06:48Z</time>
  <course>0.0</course>
  <speed>0.0</speed>
  <fix>3d</fix>
</trkpt>
<trkpt lat="33.810313" lon="-118.393867">
  <ele>0.0</ele>
  <time>2026-09-02T22:06:48Z</time>
  <course>188.54</course>
  <speed>0.0</speed>
  <fix>3d</fix>
</trkpt>
<trkpt lat="33.810313" lon="-118.393867">
  <ele>-0.12</ele>
  <time>2026-09-02T22:06:48Z</time>
  <course>0.0</course>
  <speed>0.0</speed>
  <fix>3d</fix>
</trkpt>
<trkpt lat="33.810313" lon="-118.393867">
  <ele>0.0</ele>
  <time>2026-09-02T22:06:48Z</time>
  <course>188.54</course>
  <speed>0.0</speed>
  <fix>3d</fix>
</trkpt>
<trkpt lat="33.810313" lon="-118.393867">
  <ele>-0.12</ele>
  <time>2026-09-02T22:06:48Z</time>
  <course>0.0</course>
  <speed>0.0</speed>
  <fix>3d</fix>
</trkpt>
<trkpt lat="33.810313" lon="-118.393867">
  <ele>0.0</ele>
  <time>2026-09-02T22:06:48Z</time>
  <course>188.55</course>
  <speed>0.0</speed>
  <fix>3d</fix>
</trkpt>
<trkpt lat="33.810313" lon="-118.393867">
  <ele>-0.12</ele>
  <time>2026-09-02T22:06:48Z</time>
  <course>0.0</course>
  <speed>0.0</speed>
  <fix>3d</fix>
</trkpt>
<trkpt lat="33.810313" lon="-118.393867">
  <ele>0.0</ele>
  <time>2026-09-02T22:06:48Z</time>
  <course>188.55</course>
  <speed>0.0</speed>
  <fix>3d</fix>
</trkpt>
<trkpt lat="33.810313" lon="-118.393867">
  <ele>-0.12</ele>
  <time>2026-09-02T22:06:48Z</time>
  <course>0.0</course>
  <speed>0.0</speed>
  <fix>3d</fix>
</trkpt>
<trkpt lat="33.810313" lon="-118.393867">
  <ele>0.0</ele>
  <time>2026-09-02T22:06:48Z</time>
  <course>188.55</course>
  <speed>0.0</speed>
  <fix>3d</fix>
</trkpt>
<trkpt lat="33.810313" lon="-118.393867">
  <ele>-0.12</ele>
  <time>2026-09-02T22:06:48Z</time>
  <course>0.0</course>
  <speed>0.0</speed>
  <fix>3d</fix>
</trkpt>
<trkpt lat="33.810313" lon="-118.393867">
  <ele>-0.126</ele>
  <time>2026-09-02T22:06:48Z</time>
  <course>188.55</course>
  <speed>0.0</speed>
  <fix>3d</fix>
</trkpt>
<trkpt lat="33.810313" lon="-118.393867">
  <ele>-0.13</ele>
  <time>2026-09-02T22:06:48Z</time>
  <course>0.0</course>
  <speed>0.0</speed>
  <fix>3d</fix>
</trkpt>
<trkpt lat="33.810313" lon="-118.393867">
  <ele>-0.126</ele>
  <time>2026-09-02T22:06:48Z</time>
  <course>188.56</course>
  <speed>0.0</speed>
  <fix>3d</fix>
</trkpt>
<trkpt lat="33.810313" lon="-118.393867">
  <ele>-0.13</ele>
  <time>2026-09-02T22:06:48Z</time>
  <course>0.0</course>
  <speed>0.0</speed>
  <fix>3d</fix>
</trkpt>
<trkpt lat="33.810313" lon="-118.393867">
  <ele>-0.124</ele>
  <time>2026-09-02T22:06:48Z</time>
  <course>188.56</course>
  <speed>0.0</speed>
  <fix>3d</fix>
</trkpt>
<trkpt lat="33.810313" lon="-118.393867">
  <ele>-0.13</ele>
  <time>2026-09-02T22:06:48Z</time>
  <course>0.0</course>
  <speed>0.0</speed>
  <fix>3d</fix>
</trkpt>
<trkpt lat="33.810313" lon="-118.393867">
  <ele>-0.123</ele>
  <time>2026-09-02T22:06:48Z</time>
  <course>188.56</course>
  <speed>0.0</speed>
  <fix>3d</fix>
</trkpt>
<trkpt lat="33.810313" lon="-118.393867">
  <ele>-0.13</ele>
  <time>2026-09-02T22:06:48Z</time>
  <course>0.0</course>
  <speed>0.0</speed>
  <fix>3d</fix>
</trkpt>
<trkpt lat="33.810313" lon="-118.393867">
  <ele>-0.121</ele>
  <time>2026-09-02T22:06:48Z</time>
  <course>188.56</course>
  <speed>0.0</speed>
  <fix>3d</fix>
</trkpt>
<trkpt lat="33.810313" lon="-118.393867">
  <ele>-0.12</ele>
  <time>2026-09-02T22:06:48Z</time>
  <course>0.0</course>
  <speed>0.0</speed>
  <fix>3d</fix>
</trkpt>
<trkpt lat="33.810313" lon="-118.393867">
  <ele>-0.12</ele>
  <time>2026-09-02T22:06:48Z</time>
  <course>188.56</course>
  <speed>0.0</speed>
  <fix>3d</fix>
</trkpt>
<trkpt lat="33.810313" lon="-118.393867">
  <ele>-0.12</ele>
  <time>2026-09-02T22:06:48Z</time>
  <course>0.0</course>
  <speed>0.0</speed>
  <fix>3d</fix>
</trkpt>
<trkpt lat="33.810313" lon="-118.393867">
  <ele>-0.119</ele>
  <time>2026-09-02T22:06:48Z</time>
  <course>188.56</course>
  <speed>0.0</speed>
  <fix>3d</fix>
</trkpt>
<trkpt lat="33.810313" lon="-118.393867">
  <ele>-0.12</ele>
  <time>2026-09-02T22:06:48Z</time>
  <course>0.0</course>
  <speed>0.0</speed>
  <fix>3d</fix>
</trkpt>
<trkpt lat="33.810313" lon="-118.393867">
  <ele>-0.12</ele>
  <time>2026-09-02T22:06:48Z</time>
  <course>188.56</course>
  <speed>0.0</speed>
  <fix>3d</fix>
</trkpt>
<trkpt lat="33.810313" lon="-118.393867">
  <ele>-0.12</ele>
  <time>2026-09-02T22:06:48Z</time>
  <course>0.0</course>
  <speed>0.0</speed>
  <fix>3d</fix>
</trkpt>
<trkpt lat="33.810313" lon="-118.393867">
  <ele>-0.124</ele>
  <time>2026-09-02T22:06:48Z</time>
  <course>188.55</course>
  <speed>0.0</speed>
  <fix>3d</fix>
</trkpt>
<trkpt lat="33.810313" lon="-118.393867">
  <ele>-0.12</ele>
  <time>2026-09-02T22:06:48Z</time>
  <course>0.0</course>
  <speed>0.0</speed>
  <fix>3d</fix>
</trkpt>
<trkpt lat="33.810313" lon="-118.393867">
  <ele>-0.127</ele>
  <time>2026-09-02T22:06:48Z</time>
  <course>188.55</course>
  <speed>0.0</speed>
  <fix>3d</fix>
</trkpt>
<trkpt lat="33.810313" lon="-118.393867">
  <ele>-0.12</ele>
  <time>2026-09-02T22:06:48Z</time>
  <course>0.0</course>
  <speed>0.0</speed>
  <fix>3d</fix>
</trkpt>
<trkpt lat="33.810313" lon="-118.393867">
  <ele>-0.13</ele>
  <time>2026-09-02T22:06:48Z</time>
  <course>188.55</course>
  <speed>0.0</speed>
  <fix>3d</fix>
</trkpt>
<trkpt lat="33.810313" lon="-118.393867">
  <ele>-0.12</ele>
  <time>2026-09-02T22:06:48Z</time>
  <course>0.0</course>
  <speed>0.0</speed>
  <fix>3d</fix>
</trkpt>
<trkpt lat="33.810313" lon="-118.393867">
  <ele>-0.132</ele>
  <time>2026-09-02T22:06:48Z</time>
  <course>188.55</course>
  <speed>0.0</speed>
  <fix>3d</fix>
</trkpt>
<trkpt lat="33.810313" lon="-118.393867">
  <ele>-0.12</ele>
  <time>2026-09-02T22:06:48Z</time>
  <course>0.0</course>
  <speed>0.0</speed>
  <fix>3d</fix>
</trkpt>
<trkpt lat="33.810313" lon="-118.393867">
  <ele>-0.132</ele>
  <time>2026-09-02T22:06:48Z</time>
  <course>188.55</course>
  <speed>0.0</speed>
  <fix>3d</fix>
</trkpt>
<trkpt lat="33.810313" lon="-118.393867">
  <ele>-0.12</ele>
  <time>2026-09-02T22:06:48Z</time>
  <course>0.0</course>
  <speed>0.0</speed>
  <fix>3d</fix>
</trkpt>
<trkpt lat="33.810313" lon="-118.393867">
  <ele>-0.132</ele>
  <time>2026-09-02T22:06:48Z</time>
  <course>188.55</course>
  <speed>0.0</speed>
  <fix>3d</fix>
</trkpt>
<trkpt lat="33.810313" lon="-118.393867">
  <ele>-0.12</ele>
  <time>2026-09-02T22:06:48Z</time>
  <course>0.0</course>
  <speed>0.0</speed>
  <fix>3d</fix>
</trkpt>
<trkpt lat="33.810313" lon="-118.393867">
  <ele>-0.132</ele>
  <time>2026-09-02T22:06:48Z</time>
  <course>188.55</course>
  <speed>0.0</speed>
  <fix>3d</fix>
</trkpt>
<trkpt lat="33.810313" lon="-118.393867">
  <ele>-0.12</ele>
  <time>2026-09-02T22:06:48Z</time>
  <course>0.0</course>
  <speed>0.0</speed>
  <fix>3d</fix>
</trkpt>
<trkpt lat="33.810313" lon="-118.393867">
  <ele>-0.131</ele>
  <time>2026-09-02T22:06:48Z</time>
  <course>188.55</course>
  <speed>0.0</speed>
  <fix>3d</fix>
</trkpt>
<trkpt lat="33.810313" lon="-118.393867">
  <ele>-0.12</ele>
  <time>2026-09-02T22:06:48Z</time>
  <course>0.0</course>
  <speed>0.0</speed>
  <fix>3d</fix>
</trkpt>
<trkpt lat="33.810313" lon="-118.393867">
  <ele>-0.129</ele>
  <time>2026-09-02T22:06:48Z</time>
  <course>188.54</course>
  <speed>0.0</speed>
  <fix>3d</fix>
</trkpt>
<trkpt lat="33.810313" lon="-118.393867">
  <ele>-0.13</ele>
  <time>2026-09-02T22:06:48Z</time>
  <course>0.0</course>
  <speed>0.0</speed>
  <fix>3d</fix>
</trkpt>
<trkpt lat="33.810313" lon="-118.393867">
  <ele>-0.128</ele>
  <time>2026-09-02T22:06:48Z</time>
  <course>188.54</course>
  <speed>0.0</speed>
  <fix>3d</fix>
</trkpt>
<trkpt lat="33.810313" lon="-118.393867">
  <ele>-0.13</ele>
  <time>2026-09-02T22:06:48Z</time>
  <course>0.0</course>
  <speed>0.0</speed>
  <fix>3d</fix>
</trkpt>
<trkpt lat="33.810313" lon="-118.393867">
  <ele>-0.125</ele>
  <time>2026-09-02T22:06:48Z</time>
  <course>188.53</course>
  <speed>0.0</speed>
  <fix>3d</fix>
</trkpt>
<trkpt lat="33.810313" lon="-118.393867">
  <ele>-0.12</ele>
  <time>2026-09-02T22:06:48Z</time>
  <course>0.0</course>
  <speed>0.0</speed>
  <fix>3d</fix>
</trkpt>
<trkpt lat="33.810313" lon="-118.393867">
  <ele>-0.123</ele>
  <time>2026-09-02T22:06:48Z</time>
  <course>188.53</course>
  <speed>0.0</speed>
  <fix>3d</fix>
</trkpt>
<trkpt lat="33.810313" lon="-118.393867">
  <ele>-0.12</ele>
  <time>2026-09-02T22:06:48Z</time>
  <course>0.0</course>
  <speed>0.0</speed>
  <fix>3d</fix>
</trkpt>
<trkpt lat="33.810313" lon="-118.393867">
  <ele>-0.121</ele>
  <time>2026-09-02T22:06:48Z</time>
  <course>188.52</course>
  <speed>0.0</speed>
  <fix>3d</fix>
</trkpt>
<trkpt lat="33.810313" lon="-118.393867">
  <ele>-0.12</ele>
  <time>2026-09-02T22:06:48Z</time>
  <course>0.0</course>
  <speed>0.0</speed>
  <fix>3d</fix>
</trkpt>
<trkpt lat="33.810313" lon="-118.393867">
  <ele>-0.121</ele>
  <time>2026-09-02T22:06:48Z</time>
  <course>188.52</course>
  <speed>0.0</speed>
  <fix>3d</fix>
</trkpt>
<trkpt lat="33.810313" lon="-118.393867">
  <ele>-0.12</ele>
  <time>2026-09-02T22:06:48Z</time>
  <course>0.0</course>
  <speed>0.0</speed>
  <fix>3d</fix>
</trkpt>
<trkpt lat="33.810313" lon="-118.393867">
  <ele>-0.122</ele>
  <time>2026-09-02T22:06:48Z</time>
  <course>188.51</course>
  <speed>0.0</speed>
  <fix>3d</fix>
</trkpt>
<trkpt lat="33.810313" lon="-118.393867">
  <ele>-0.12</ele>
  <time>2026-09-02T22:06:48Z</time>
  <course>0.0</course>
  <speed>0.0</speed>
  <fix>3d</fix>
</trkpt>
<trkpt lat="33.810313" lon="-118.393867">
  <ele>-0.123</ele>
  <time>2026-09-02T22:06:48Z</time>
  <course>188.51</course>
  <speed>0.0</speed>
  <fix>3d</fix>
</trkpt>
<trkpt lat="33.810313" lon="-118.393867">
  <ele>-0.12</ele>
  <time>2026-09-02T22:06:48Z</time>
  <course>0.0</course>
  <speed>0.0</speed>
  <fix>3d</fix>
</trkpt>
<trkpt lat="33.810313" lon="-118.393867">
  <ele>-0.126</ele>
  <time>2026-09-02T22:06:48Z</time>
  <course>188.5</course>
  <speed>0.0</speed>
  <fix>3d</fix>
</trkpt>
<trkpt lat="33.810313" lon="-118.393867">
  <ele>-0.12</ele>
  <time>2026-09-02T22:06:48Z</time>
  <course>0.0</course>
  <speed>0.0</speed>
  <fix>3d</fix>
</trkpt>
<trkpt lat="33.810313" lon="-118.393867">
  <ele>-0.127</ele>
  <time>2026-09-02T22:06:48Z</time>
  <course>188.5</course>
  <speed>0.0</speed>
  <fix>3d</fix>
</trkpt>
<trkpt lat="33.810313" lon="-118.393867">
  <ele>-0.12</ele>
  <time>2026-09-02T22:06:48Z</time>
  <course>0.0</course>
  <speed>0.0</speed>
  <fix>3d</fix>
</trkpt>
<trkpt lat="33.810313" lon="-118.393867">
  <ele>-0.128</ele>
  <time>2026-09-02T22:06:48Z</time>
  <course>188.49</course>
  <speed>0.0</speed>
  <fix>3d</fix>
</trkpt>
<trkpt lat="33.810313" lon="-118.393867">
  <ele>-0.12</ele>
  <time>2026-09-02T22:06:48Z</time>
  <course>0.0</course>
  <speed>0.0</speed>
  <fix>3d</fix>
</trkpt>
<trkpt lat="33.810313" lon="-118.393867">
  <ele>-0.127</ele>
  <time>2026-09-02T22:06:48Z</time>
  <course>188.48</course>
  <speed>0.0</speed>
  <fix>3d</fix>
</trkpt>
<trkpt lat="33.810313" lon="-118.393867">
  <ele>-0.12</ele>
  <time>2026-09-02T22:06:48Z</time>
  <course>0.0</course>
  <speed>0.0</speed>
  <fix>3d</fix>
</trkpt>
<trkpt lat="33.810313" lon="-118.393867">
  <ele>-0.127</ele>
  <time>2026-09-02T22:06:48Z</time>
  <course>188.48</course>
  <speed>0.0</speed>
  <fix>3d</fix>
</trkpt>
<trkpt lat="33.810313" lon="-118.393867">
  <ele>-0.12</ele>
  <time>2026-09-02T22:06:48Z</time>
  <course>0.0</course>
  <speed>0.0</speed>
  <fix>3d</fix>
</trkpt>
<trkpt lat="33.810313" lon="-118.393867">
  <ele>-0.127</ele>
  <time>2026-09-02T22:06:48Z</time>
  <course>188.47</course>
  <speed>0.01</speed>
  <fix>3d</fix>
</trkpt>
<trkpt lat="33.810313" lon="-118.393867">
  <ele>-0.12</ele>
  <time>2026-09-02T22:06:48Z</time>
  <course>0.0</course>
  <speed>0.0</speed>
  <fix>3d</fix>
</trkpt>
<trkpt lat="33.810313" lon="-118.393867">
  <ele>-0.127</ele>
  <time>2026-09-02T22:06:48Z</time>
  <course>188.47</course>
  <speed>0.01</speed>
  <fix>3d</fix>
</trkpt>
<trkpt lat="33.810313" lon="-118.393867">
  <ele>-0.12</ele>
  <time>2026-09-02T22:06:48Z</time>
  <course>0.0</course>
  <speed>0.0</speed>
  <fix>3d</fix>
</trkpt>
<trkpt lat="33.810313" lon="-118.393867">
  <ele>-0.126</ele>
  <time>2026-09-02T22:06:48Z</time>
  <course>188.46</course>
  <speed>0.01</speed>
  <fix>3d</fix>
</trkpt>
<trkpt lat="33.810313" lon="-118.393867">
  <ele>-0.12</ele>
  <time>2026-09-02T22:06:48Z</time>
  <course>0.0</course>
  <speed>0.0</speed>
  <fix>3d</fix>
</trkpt>
<trkpt lat="33.810313" lon="-118.393867">
  <ele>-0.126</ele>
  <time>2026-09-02T22:06:48Z</time>
  <course>188.45</course>
  <speed>0.01</speed>
  <fix>3d</fix>
</trkpt>
<trkpt lat="33.810313" lon="-118.393867">
  <ele>-0.12</ele>
  <time>2026-09-02T22:06:48Z</time>
  <course>0.0</course>
  <speed>0.0</speed>
  <fix>3d</fix>
</trkpt>
<trkpt lat="33.810313" lon="-118.393867">
  <ele>-0.126</ele>
  <time>2026-09-02T22:06:48Z</time>
  <course>188.45</course>
  <speed>0.01</speed>
  <fix>3d</fix>
</trkpt>
<trkpt lat="33.810313" lon="-118.393867">
  <ele>-0.12</ele>
  <time>2026-09-02T22:06:48Z</time>
  <course>0.0</course>
  <speed>0.0</speed>
  <fix>3d</fix>
</trkpt>
<trkpt lat="33.810313" lon="-118.393867">
  <ele>-0.125</ele>
  <time>2026-09-02T22:06:48Z</time>
  <course>188.44</course>
  <speed>0.01</speed>
  <fix>3d</fix>
</trkpt>
<trkpt lat="33.810313" lon="-118.393867">
  <ele>-0.12</ele>
  <time>2026-09-02T22:06:48Z</time>
  <course>0.0</course>
  <speed>0.0</speed>
  <fix>3d</fix>
</trkpt>
<trkpt lat="33.810313" lon="-118.393867">
  <ele>-0.126</ele>
  <time>2026-09-02T22:06:48Z</time>
  <course>188.43</course>
  <speed>0.01</speed>
  <fix>3d</fix>
</trkpt>
<trkpt lat="33.810313" lon="-118.393867">
  <ele>-0.12</ele>
  <time>2026-09-02T22:06:48Z</time>
  <course>0.0</course>
  <speed>0.0</speed>
  <fix>3d</fix>
</trkpt>
<trkpt lat="33.810313" lon="-118.393867">
  <ele>-0.127</ele>
  <time>2026-09-02T22:06:48Z</time>
  <course>188.42</course>
  <speed>0.01</speed>
  <fix>3d</fix>
</trkpt>
<trkpt lat="33.810313" lon="-118.393867">
  <ele>-0.12</ele>
  <time>2026-09-02T22:06:48Z</time>
  <course>0.0</course>
  <speed>0.0</speed>
  <fix>3d</fix>
</trkpt>
<trkpt lat="33.810313" lon="-118.393867">
  <ele>-0.128</ele>
  <time>2026-09-02T22:06:48Z</time>
  <course>188.42</course>
  <speed>0.01</speed>
  <fix>3d</fix>
</trkpt>
<trkpt lat="33.810313" lon="-118.393867">
  <ele>-0.12</ele>
  <time>2026-09-02T22:06:48Z</time>
  <course>0.0</course>
  <speed>0.0</speed>
  <fix>3d</fix>
</trkpt>
<trkpt lat="33.810313" lon="-118.393867">
  <ele>-0.129</ele>
  <time>2026-09-02T22:06:48Z</time>
  <course>188.41</course>
  <speed>0.01</speed>
  <fix>3d</fix>
</trkpt>
<trkpt lat="33.810313" lon="-118.393867">
  <ele>-0.12</ele>
  <time>2026-09-02T22:06:48Z</time>
  <course>0.0</course>
  <speed>0.0</speed>
  <fix>3d</fix>
</trkpt>
<trkpt lat="33.810313" lon="-118.393867">
  <ele>-0.129</ele>
  <time>2026-09-02T22:06:48Z</time>
  <course>188.4</course>
  <speed>0.01</speed>
  <fix>3d</fix>
</trkpt>
<trkpt lat="33.810313" lon="-118.393867">
  <ele>-0.12</ele>
  <time>2026-09-02T22:06:48Z</time>
  <course>0.0</course>
  <speed>0.0</speed>
  <fix>3d</fix>
</trkpt>
<trkpt lat="33.810313" lon="-118.393867">
  <ele>-0.13</ele>
  <time>2026-09-02T22:06:48Z</time>
  <course>188.4</course>
  <speed>0.01414213562373095</speed>
  <fix>3d</fix>
</trkpt>
<trkpt lat="33.810313" lon="-118.393867">
  <ele>-0.12</ele>
  <time>2026-09-02T22:06:48Z</time>
  <course>0.0</course>
  <speed>0.0</speed>
  <fix>3d</fix>
</trkpt>
<trkpt lat="33.810313" lon="-118.393867">
  <ele>-0.13</ele>
  <time>2026-09-02T22:06:48Z</time>
  <course>188.39</course>
  <speed>0.01414213562373095</speed>
  <fix>3d</fix>
</trkpt>
<trkpt lat="33.810313" lon="-118.393867">
  <ele>-0.12</ele>
  <time>2026-09-02T22:06:48Z</time>
  <course>0.0</course>
  <speed>0.0</speed>
  <fix>3d</fix>
</trkpt>
<trkpt lat="33.810313" lon="-118.393867">
  <ele>-0.13</ele>
  <time>2026-09-02T22:06:48Z</time>
  <course>188.38</course>
  <speed>0.01414213562373095</speed>
  <fix>3d</fix>
</trkpt>
<trkpt lat="33.810313" lon="-118.393867">
  <ele>-0.12</ele>
  <time>2026-09-02T22:06:48Z</time>
  <course>0.0</course>
  <speed>0.0</speed>
  <fix>3d</fix>
</trkpt>
<trkpt lat="33.810313" lon="-118.393867">
  <ele>-0.129</ele>
  <time>2026-09-02T22:06:48Z</time>
  <course>188.37</course>
  <speed>0.01414213562373095</speed>
  <fix>3d</fix>
</trkpt>
<trkpt lat="33.810313" lon="-118.393867">
  <ele>-0.12</ele>
  <time>2026-09-02T22:06:48Z</time>
  <course>0.0</course>
  <speed>0.0</speed>
  <fix>3d</fix>
</trkpt>
<trkpt lat="33.810313" lon="-118.393867">
  <ele>-0.128</ele>
  <time>2026-09-02T22:06:48Z</time>
  <course>188.37</course>
  <speed>0.01414213562373095</speed>
  <fix>3d</fix>
</trkpt>
<trkpt lat="33.810313" lon="-118.393867">
  <ele>-0.12</ele>
  <time>2026-09-02T22:06:48Z</time>
  <course>0.0</course>
  <speed>0.0</speed>
  <fix>3d</fix>
</trkpt>
<trkpt lat="33.810313" lon="-118.393867">
  <ele>-0.126</ele>
  <time>2026-09-02T22:06:48Z</time>
  <course>188.36</course>
  <speed>0.01414213562373095</speed>
  <fix>3d</fix>
</trkpt>
<trkpt lat="33.810313" lon="-118.393867">
  <ele>-0.12</ele>
  <time>2026-09-02T22:06:48Z</time>
  <course>0.0</course>
  <speed>0.0</speed>
  <fix>3d</fix>
</trkpt>
<trkpt lat="33.810313" lon="-118.393867">
  <ele>-0.124</ele>
  <time>2026-09-02T22:06:48Z</time>
  <course>188.35</course>
  <speed>0.01414213562373095</speed>
  <fix>3d</fix>
</trkpt>
<trkpt lat="33.810313" lon="-118.393867">
  <ele>-0.12</ele>
  <time>2026-09-02T22:06:48Z</time>
  <course>0.0</course>
  <speed>0.0</speed>
  <fix>3d</fix>
</trkpt>
<trkpt lat="33.810313" lon="-118.393867">
  <ele>-0.122</ele>
  <time>2026-09-02T22:06:48Z</time>
  <course>188.34</course>
  <speed>0.01414213562373095</speed>
  <fix>3d</fix>
</trkpt>
<trkpt lat="33.810313" lon="-118.393867">
  <ele>-0.12</ele>
  <time>2026-09-02T22:06:48Z</time>
  <course>0.0</course>
  <speed>0.0</speed>
  <fix>3d</fix>
</trkpt>
<trkpt lat="33.810313" lon="-118.393867">
  <ele>-0.123</ele>
  <time>2026-09-02T22:06:48Z</time>
  <course>188.33</course>
  <speed>0.01414213562373095</speed>
  <fix>3d</fix>
</trkpt>
<trkpt lat="33.810313" lon="-118.393867">
  <ele>-0.12</ele>
  <time>2026-09-02T22:06:48Z</time>
  <course>0.0</course>
  <speed>0.0</speed>
  <fix>3d</fix>
</trkpt>
<trkpt lat="33.810313" lon="-118.393867">
  <ele>-0.125</ele>
  <time>2026-09-02T22:06:48Z</time>
  <course>188.33</course>
  <speed>0.01414213562373095</speed>
  <fix>3d</fix>
</trkpt>
<trkpt lat="33.810313" lon="-118.393867">
  <ele>-0.12</ele>
  <time>2026-09-02T22:06:48Z</time>
  <course>0.0</course>
  <speed>0.0</speed>
  <fix>3d</fix>
</trkpt>
<trkpt lat="33.810313" lon="-118.393867">
  <ele>-0.128</ele>
  <time>2026-09-02T22:06:48Z</time>
  <course>188.32</course>
  <speed>0.01414213562373095</speed>
  <fix>3d</fix>
</trkpt>
<trkpt lat="33.810313" lon="-118.393867">
  <ele>-0.12</ele>
  <time>2026-09-02T22:06:48Z</time>
  <course>0.0</course>
  <speed>0.0</speed>
  <fix>3d</fix>
</trkpt>
<trkpt lat="33.810313" lon="-118.393867">
  <ele>-0.132</ele>
  <time>2026-09-02T22:06:48Z</time>
  <course>188.31</course>
  <speed>0.01414213562373095</speed>
  <fix>3d</fix>
</trkpt>
<trkpt lat="33.810313" lon="-118.393867">
  <ele>-0.12</ele>
  <time>2026-09-02T22:06:48Z</time>
  <course>0.0</course>
  <speed>0.0</speed>
  <fix>3d</fix>
</trkpt>
<trkpt lat="33.810313" lon="-118.393867">
  <ele>-0.135</ele>
  <time>2026-09-02T22:06:48Z</time>
  <course>188.3</course>
  <speed>0.01414213562373095</speed>
  <fix>3d</fix>
</trkpt>
<trkpt lat="33.810313" lon="-118.393867">
  <ele>-0.12</ele>
  <time>2026-09-02T22:06:48Z</time>
  <course>0.0</course>
  <speed>0.0</speed>
  <fix>3d</fix>
</trkpt>
<trkpt lat="33.810313" lon="-118.393867">
  <ele>-0.135</ele>
  <time>2026-09-02T22:06:48Z</time>
  <course>188.3</course>
  <speed>0.01414213562373095</speed>
  <fix>3d</fix>
</trkpt>
<trkpt lat="33.810313" lon="-118.393867">
  <ele>-0.12</ele>
  <time>2026-09-02T22:06:48Z</time>
  <course>0.0</course>
  <speed>0.0</speed>
  <fix>3d</fix>
</trkpt>
<trkpt lat="33.810313" lon="-118.393867">
  <ele>-0.134</ele>
  <time>2026-09-02T22:06:48Z</time>
  <course>188.29</course>
  <speed>0.01414213562373095</speed>
  <fix>3d</fix>
</trkpt>
<trkpt lat="33.810313" lon="-118.393867">
  <ele>-0.12</ele>
  <time>2026-09-02T22:06:48Z</time>
  <course>0.0</course>
  <speed>0.0</speed>
  <fix>3d</fix>
</trkpt>
<trkpt lat="33.810313" lon="-118.393867">
  <ele>-0.132</ele>
  <time>2026-09-02T22:06:48Z</time>
  <course>188.28</course>
  <speed>0.01414213562373095</speed>
  <fix>3d</fix>
</trkpt>
<trkpt lat="33.810313" lon="-118.393867">
  <ele>-0.12</ele>
  <time>2026-09-02T22:06:48Z</time>
  <course>0.0</course>
  <speed>0.0</speed>
  <fix>3d</fix>
</trkpt>
<trkpt lat="33.810313" lon="-118.393867">
  <ele>-0.129</ele>
  <time>2026-09-02T22:06:48Z</time>
  <course>188.27</course>
  <speed>0.01414213562373095</speed>
  <fix>3d</fix>
</trkpt>
<trkpt lat="33.810313" lon="-118.393867">
  <ele>-0.12</ele>
  <time>2026-09-02T22:06:48Z</time>
  <course>0.0</course>
  <speed>0.0</speed>
  <fix>3d</fix>
</trkpt>
<trkpt lat="33.810313" lon="-118.393867">
  <ele>-0.127</ele>
  <time>2026-09-02T22:06:48Z</time>
  <course>188.26</course>
  <speed>0.01414213562373095</speed>
  <fix>3d</fix>
</trkpt>
<trkpt lat="33.810313" lon="-118.393867">
  <ele>-0.12</ele>
  <time>2026-09-02T22:06:48Z</time>
  <course>0.0</course>
  <speed>0.0</speed>
  <fix>3d</fix>
</trkpt>
<trkpt lat="33.810313" lon="-118.393867">
  <ele>-0.124</ele>
  <time>2026-09-02T22:06:48Z</time>
  <course>188.25</course>
  <speed>0.01414213562373095</speed>
  <fix>3d</fix>
</trkpt>
<trkpt lat="33.810313" lon="-118.393867">
  <ele>-0.12</ele>
  <time>2026-09-02T22:06:48Z</time>
  <course>0.0</course>
  <speed>0.0</speed>
  <fix>3d</fix>
</trkpt>
<trkpt lat="33.810313" lon="-118.393867">
  <ele>-0.123</ele>
  <time>2026-09-02T22:06:48Z</time>
  <course>188.25</course>
  <speed>0.01414213562373095</speed>
  <fix>3d</fix>
</trkpt>
<trkpt lat="33.810313" lon="-118.393867">
  <ele>-0.12</ele>
  <time>2026-09-02T22:06:48Z</time>
  <course>0.0</course>
  <speed>0.0</speed>
  <fix>3d</fix>
</trkpt>
<trkpt lat="33.810313" lon="-118.393867">
  <ele>-0.124</ele>
  <time>2026-09-02T22:06:48Z</time>
  <course>188.24</course>
  <speed>0.01414213562373095</speed>
  <fix>3d</fix>
</trkpt>
<trkpt lat="33.810313" lon="-118.393867">
  <ele>-0.12</ele>
  <time>2026-09-02T22:06:48Z</time>
  <course>0.0</course>
  <speed>0.0</speed>
  <fix>3d</fix>
</trkpt>
<trkpt lat="33.810313" lon="-118.393867">
  <ele>-0.126</ele>
  <time>2026-09-02T22:06:48Z</time>
  <course>188.23</course>
  <speed>0.01414213562373095</speed>
  <fix>3d</fix>
</trkpt>
<trkpt lat="33.810313" lon="-118.393867">
  <ele>-0.12</ele>
  <time>2026-09-02T22:06:48Z</time>
  <course>0.0</course>
  <speed>0.0</speed>
  <fix>3d</fix>
</trkpt>
<trkpt lat="33.810313" lon="-118.393867">
  <ele>-0.127</ele>
  <time>2026-09-02T22:06:48Z</time>
  <course>188.22</course>
  <speed>0.01414213562373095</speed>
  <fix>3d</fix>
</trkpt>
<trkpt lat="33.810313" lon="-118.393867">
  <ele>-0.12</ele>
  <time>2026-09-02T22:06:48Z</time>
  <course>0.0</course>
  <speed>0.0</speed>
  <fix>3d</fix>
</trkpt>
<trkpt lat="33.810313" lon="-118.393867">
  <ele>-0.129</ele>
  <time>2026-09-02T22:06:48Z</time>
  <course>188.21</course>
  <speed>0.01414213562373095</speed>
  <fix>3d</fix>
</trkpt>
<trkpt lat="33.810313" lon="-118.393867">
  <ele>-0.12</ele>
  <time>2026-09-02T22:06:48Z</time>
  <course>0.0</course>
  <speed>0.0</speed>
  <fix>3d</fix>
</trkpt>
<trkpt lat="33.810313" lon="-118.393867">
  <ele>-0.129</ele>
  <time>2026-09-02T22:06:48Z</time>
  <course>188.21</course>
  <speed>0.01414213562373095</speed>
  <fix>3d</fix>
</trkpt>
<trkpt lat="33.810313" lon="-118.393867">
  <ele>-0.12</ele>
  <time>2026-09-02T22:06:48Z</time>
  <course>0.0</course>
  <speed>0.0</speed>
  <fix>3d</fix>
</trkpt>
<trkpt lat="33.810313" lon="-118.393867">
  <ele>-0.129</ele>
  <time>2026-09-02T22:06:48Z</time>
  <course>188.2</course>
  <speed>0.01414213562373095</speed>
  <fix>3d</fix>
</trkpt>
<trkpt lat="33.810313" lon="-118.393867">
  <ele>-0.12</ele>
  <time>2026-09-02T22:06:48Z</time>
  <course>0.0</course>
  <speed>0.0</speed>
  <fix>3d</fix>
</trkpt>
<trkpt lat="33.810313" lon="-118.393867">
  <ele>-0.128</ele>
  <time>2026-09-02T22:06:48Z</time>
  <course>188.19</course>
  <speed>0.01414213562373095</speed>
  <fix>3d</fix>
</trkpt>
<trkpt lat="33.810313" lon="-118.393867">
  <ele>-0.12</ele>
  <time>2026-09-02T22:06:48Z</time>
  <course>0.0</course>
  <speed>0.0</speed>
  <fix>3d</fix>
</trkpt>
<trkpt lat="33.810313" lon="-118.393867">
  <ele>-0.128</ele>
  <time>2026-09-02T22:06:48Z</time>
  <course>188.18</course>
  <speed>0.01414213562373095</speed>
  <fix>3d</fix>
</trkpt>
<trkpt lat="33.810313" lon="-118.393867">
  <ele>-0.12</ele>
  <time>2026-09-02T22:06:48Z</time>
  <course>0.0</course>
  <speed>0.0</speed>
  <fix>3d</fix>
</trkpt>
<trkpt lat="33.810313" lon="-118.393867">
  <ele>-0.127</ele>
  <time>2026-09-02T22:06:48Z</time>
  <course>188.17</course>
  <speed>0.01414213562373095</speed>
  <fix>3d</fix>
</trkpt>
<trkpt lat="33.810313" lon="-118.393867">
  <ele>-0.12</ele>
  <time>2026-09-02T22:06:48Z</time>
  <course>0.0</course>
  <speed>0.0</speed>
  <fix>3d</fix>
</trkpt>
<trkpt lat="33.810313" lon="-118.393867">
  <ele>-0.127</ele>
  <time>2026-09-02T22:06:48Z</time>
  <course>188.16</course>
  <speed>0.01414213562373095</speed>
  <fix>3d</fix>
</trkpt>
<trkpt lat="33.810313" lon="-118.393867">
  <ele>-0.12</ele>
  <time>2026-09-02T22:06:48Z</time>
  <course>0.0</course>
  <speed>0.0</speed>
  <fix>3d</fix>
</trkpt>
<trkpt lat="33.810313" lon="-118.393867">
  <ele>-0.128</ele>
  <time>2026-09-02T22:06:48Z</time>
  <course>188.16</course>
  <speed>0.01414213562373095</speed>
  <fix>3d</fix>
</trkpt>
<trkpt lat="33.810313" lon="-118.393867">
  <ele>-0.12</ele>
  <time>2026-09-02T22:06:48Z</time>
  <course>0.0</course>
  <speed>0.0</speed>
  <fix>3d</fix>
</trkpt>
<trkpt lat="33.810313" lon="-118.393867">
  <ele>-0.129</ele>
  <time>2026-09-02T22:06:48Z</time>
  <course>188.15</course>
  <speed>0.01414213562373095</speed>
  <fix>3d</fix>
</trkpt>
<trkpt lat="33.810313" lon="-118.393867">
  <ele>-0.12</ele>
  <time>2026-09-02T22:06:48Z</time>
  <course>0.0</course>
  <speed>0.0</speed>
  <fix>3d</fix>
</trkpt>
<trkpt lat="33.810313" lon="-118.393867">
  <ele>-0.131</ele>
  <time>2026-09-02T22:06:48Z</time>
  <course>188.14</course>
  <speed>0.01414213562373095</speed>
  <fix>3d</fix>
</trkpt>
<trkpt lat="33.810313" lon="-118.393867">
  <ele>-0.12</ele>
  <time>2026-09-02T22:06:48Z</time>
  <course>0.0</course>
  <speed>0.0</speed>
  <fix>3d</fix>
</trkpt>
<trkpt lat="33.810313" lon="-118.393867">
  <ele>-0.133</ele>
  <time>2026-09-02T22:06:48Z</time>
  <course>188.13</course>
  <speed>0.01414213562373095</speed>
  <fix>3d</fix>
</trkpt>
<trkpt lat="33.810313" lon="-118.393867">
  <ele>-0.12</ele>
  <time>2026-09-02T22:06:48Z</time>
  <course>0.0</course>
  <speed>0.0</speed>
  <fix>3d</fix>
</trkpt>
<trkpt lat="33.810313" lon="-118.393867">
  <ele>-0.135</ele>
  <time>2026-09-02T22:06:48Z</time>
  <course>188.12</course>
  <speed>0.01414213562373095</speed>
  <fix>3d</fix>
</trkpt>
<trkpt lat="33.810313" lon="-118.393867">
  <ele>-0.12</ele>
  <time>2026-09-02T22:06:48Z</time>
  <course>0.0</course>
  <speed>0.0</speed>
  <fix>3d</fix>
</trkpt>
<trkpt lat="33.810313" lon="-118.393867">
  <ele>-0.136</ele>
  <time>2026-09-02T22:06:48Z</time>
  <course>188.12</course>
  <speed>0.01414213562373095</speed>
  <fix>3d</fix>
</trkpt>
<trkpt lat="33.810313" lon="-118.393867">
  <ele>-0.12</ele>
  <time>2026-09-02T22:06:48Z</time>
  <course>0.0</course>
  <speed>0.0</speed>
  <fix>3d</fix>
</trkpt>
<trkpt lat="33.810313" lon="-118.393867">
  <ele>-0.136</ele>
  <time>2026-09-02T22:06:48Z</time>
  <course>188.11</course>
  <speed>0.01414213562373095</speed>
  <fix>3d</fix>
</trkpt>
<trkpt lat="33.810313" lon="-118.393867">
  <ele>-0.12</ele>
  <time>2026-09-02T22:06:48Z</time>
  <course>0.0</course>
  <speed>0.0</speed>
  <fix>3d</fix>
</trkpt>
<trkpt lat="33.810313" lon="-118.393867">
  <ele>-0.136</ele>
  <time>2026-09-02T22:06:48Z</time>
  <course>188.1</course>
  <speed>0.01414213562373095</speed>
  <fix>3d</fix>
</trkpt>
<trkpt lat="33.810313" lon="-118.393867">
  <ele>-0.12</ele>
  <time>2026-09-02T22:06:48Z</time>
  <course>0.0</course>
  <speed>0.0</speed>
  <fix>3d</fix>
</trkpt>
<trkpt lat="33.810313" lon="-118.393867">
  <ele>-0.135</ele>
  <time>2026-09-02T22:06:48Z</time>
  <course>188.09</course>
  <speed>0.01414213562373095</speed>
  <fix>3d</fix>
</trkpt>
<trkpt lat="33.810313" lon="-118.393867">
  <ele>-0.12</ele>
  <time>2026-09-02T22:06:48Z</time>
  <course>0.0</course>
  <speed>0.0</speed>
  <fix>3d</fix>
</trkpt>
<trkpt lat="33.810313" lon="-118.393867">
  <ele>-0.134</ele>
  <time>2026-09-02T22:06:48Z</time>
  <course>188.08</course>
  <speed>0.01414213562373095</speed>
  <fix>3d</fix>
</trkpt>
<trkpt lat="33.810313" lon="-118.393867">
  <ele>-0.12</ele>
  <time>2026-09-02T22:06:48Z</time>
  <course>0.0</course>
  <speed>0.0</speed>
  <fix>3d</fix>
</trkpt>
<trkpt lat="33.810313" lon="-118.393867">
  <ele>-0.131</ele>
  <time>2026-09-02T22:06:48Z</time>
  <course>188.07</course>
  <speed>0.022360679774997897</speed>
  <fix>3d</fix>
</trkpt>
<trkpt lat="33.810313" lon="-118.393867">
  <ele>-0.12</ele>
  <time>2026-09-02T22:06:48Z</time>
  <course>0.0</course>
  <speed>0.0</speed>
  <fix>3d</fix>
</trkpt>
<trkpt lat="33.810313" lon="-118.393867">
  <ele>-0.128</ele>
  <time>2026-09-02T22:06:48Z</time>
  <course>188.07</course>
  <speed>0.022360679774997897</speed>
  <fix>3d</fix>
</trkpt>
<trkpt lat="33.810313" lon="-118.393867">
  <ele>-0.12</ele>
  <time>2026-09-02T22:06:48Z</time>
  <course>0.0</course>
  <speed>0.0</speed>
  <fix>3d</fix>
</trkpt>
<trkpt lat="33.810313" lon="-118.393867">
  <ele>-0.126</ele>
  <time>2026-09-02T22:06:48Z</time>
  <course>188.06</course>
  <speed>0.022360679774997897</speed>
  <fix>3d</fix>
</trkpt>
<trkpt lat="33.810313" lon="-118.393867">
  <ele>-0.12</ele>
  <time>2026-09-02T22:06:48Z</time>
  <course>0.0</course>
  <speed>0.0</speed>
  <fix>3d</fix>
</trkpt>
<trkpt lat="33.810313" lon="-118.393867">
  <ele>-0.126</ele>
  <time>2026-09-02T22:06:48Z</time>
  <course>188.05</course>
  <speed>0.022360679774997897</speed>
  <fix>3d</fix>
</trkpt>
<trkpt lat="33.810313" lon="-118.393867">
  <ele>-0.12</ele>
  <time>2026-09-02T22:06:48Z</time>
  <course>0.0</course>
  <speed>0.0</speed>
  <fix>3d</fix>
</trkpt>
<trkpt lat="33.810313" lon="-118.393867">
  <ele>-0.126</ele>
  <time>2026-09-02T22:06:48Z</time>
  <course>188.04</course>
  <speed>0.022360679774997897</speed>
  <fix>3d</fix>
</trkpt>
<trkpt lat="33.810313" lon="-118.393867">
  <ele>-0.12</ele>
  <time>2026-09-02T22:06:48Z</time>
  <course>0.0</course>
  <speed>0.0</speed>
  <fix>3d</fix>
</trkpt>
<trkpt lat="33.810313" lon="-118.393867">
  <ele>-0.127</ele>
  <time>2026-09-02T22:06:48Z</time>
  <course>188.03</course>
  <speed>0.022360679774997897</speed>
  <fix>3d</fix>
</trkpt>
<trkpt lat="33.810313" lon="-118.393867">
  <ele>-0.12</ele>
  <time>2026-09-02T22:06:48Z</time>
  <course>0.0</course>
  <speed>0.0</speed>
  <fix>3d</fix>
</trkpt>
<trkpt lat="33.810313" lon="-118.393867">
  <ele>-0.127</ele>
  <time>2026-09-02T22:06:48Z</time>
  <course>188.03</course>
  <speed>0.022360679774997897</speed>
  <fix>3d</fix>
</trkpt>
<trkpt lat="33.810313" lon="-118.393867">
  <ele>-0.12</ele>
  <time>2026-09-02T22:06:48Z</time>
  <course>0.0</course>
  <speed>0.0</speed>
  <fix>3d</fix>
</trkpt>
<trkpt lat="33.810313" lon="-118.393867">
  <ele>-0.127</ele>
  <time>2026-09-02T22:06:48Z</time>
  <course>188.02</course>
  <speed>0.022360679774997897</speed>
  <fix>3d</fix>
</trkpt>
<trkpt lat="33.810313" lon="-118.393867">
  <ele>-0.12</ele>
  <time>2026-09-02T22:06:48Z</time>
  <course>0.0</course>
  <speed>0.0</speed>
  <fix>3d</fix>
</trkpt>
<trkpt lat="33.810313" lon="-118.393867">
  <ele>-0.128</ele>
  <time>2026-09-02T22:06:48Z</time>
  <course>188.01</course>
  <speed>0.022360679774997897</speed>
  <fix>3d</fix>
</trkpt>
<trkpt lat="33.810313" lon="-118.393867">
  <ele>-0.12</ele>
  <time>2026-09-02T22:06:48Z</time>
  <course>0.0</course>
  <speed>0.0</speed>
  <fix>3d</fix>
</trkpt>
<trkpt lat="33.810313" lon="-118.393867">
  <ele>-0.128</ele>
  <time>2026-09-02T22:06:48Z</time>
  <course>188.0</course>
  <speed>0.022360679774997897</speed>
  <fix>3d</fix>
</trkpt>
<trkpt lat="33.810313" lon="-118.393867">
  <ele>-0.12</ele>
  <time>2026-09-02T22:06:48Z</time>
  <course>0.0</course>
  <speed>0.0</speed>
  <fix>3d</fix>
</trkpt>
<trkpt lat="33.810313" lon="-118.393867">
  <ele>-0.127</ele>
  <time>2026-09-02T22:06:48Z</time>
  <course>187.99</course>
  <speed>0.022360679774997897</speed>
  <fix>3d</fix>
</trkpt>
<trkpt lat="33.810313" lon="-118.393867">
  <ele>-0.12</ele>
  <time>2026-09-02T22:06:48Z</time>
  <course>0.0</course>
  <speed>0.0</speed>
  <fix>3d</fix>
</trkpt>
<trkpt lat="33.810313" lon="-118.393867">
  <ele>-0.126</ele>
  <time>2026-09-02T22:06:48Z</time>
  <course>187.98</course>
  <speed>0.022360679774997897</speed>
  <fix>3d</fix>
</trkpt>
<trkpt lat="33.810313" lon="-118.393867">
  <ele>-0.12</ele>
  <time>2026-09-02T22:06:48Z</time>
  <course>0.0</course>
  <speed>0.0</speed>
  <fix>3d</fix>
</trkpt>
<trkpt lat="33.810313" lon="-118.393867">
  <ele>-0.123</ele>
  <time>2026-09-02T22:06:48Z</time>
  <course>187.98</course>
  <speed>0.022360679774997897</speed>
  <fix>3d</fix>
</trkpt>
<trkpt lat="33.810313" lon="-118.393867">
  <ele>-0.12</ele>
  <time>2026-09-02T22:06:48Z</time>
  <course>0.0</course>
  <speed>0.0</speed>
  <fix>3d</fix>
</trkpt>
<trkpt lat="33.810313" lon="-118.393867">
  <ele>-0.121</ele>
  <time>2026-09-02T22:06:48Z</time>
  <course>187.97</course>
  <speed>0.022360679774997897</speed>
  <fix>3d</fix>
</trkpt>
<trkpt lat="33.810313" lon="-118.393867">
  <ele>-0.12</ele>
  <time>2026-09-02T22:06:48Z</time>
  <course>0.0</course>
  <speed>0.0</speed>
  <fix>3d</fix>
</trkpt>
<trkpt lat="33.810313" lon="-118.393867">
  <ele>-0.12</ele>
  <time>2026-09-02T22:06:48Z</time>
  <course>187.96</course>
  <speed>0.022360679774997897</speed>
  <fix>3d</fix>
</trkpt>
<trkpt lat="33.810313" lon="-118.393867">
  <ele>-0.12</ele>
  <time>2026-09-02T22:06:48Z</time>
  <course>0.0</course>
  <speed>0.0</speed>
  <fix>3d</fix>
</trkpt>
<trkpt lat="33.810313" lon="-118.393867">
  <ele>-0.12</ele>
  <time>2026-09-02T22:06:48Z</time>
  <course>187.95</course>
  <speed>0.022360679774997897</speed>
  <fix>3d</fix>
</trkpt>
<trkpt lat="33.810313" lon="-118.393867">
  <ele>-0.12</ele>
  <time>2026-09-02T22:06:48Z</time>
  <course>0.0</course>
  <speed>0.0</speed>
  <fix>3d</fix>
</trkpt>
<trkpt lat="33.810313" lon="-118.393867">
  <ele>-0.122</ele>
  <time>2026-09-02T22:06:48Z</time>
  <course>187.94</course>
  <speed>0.022360679774997897</speed>
  <fix>3d</fix>
</trkpt>
<trkpt lat="33.810313" lon="-118.393867">
  <ele>-0.12</ele>
  <time>2026-09-02T22:06:48Z</time>
  <course>0.0</course>
  <speed>0.0</speed>
  <fix>3d</fix>
</trkpt>
<trkpt lat="33.810313" lon="-118.393867">
  <ele>-0.125</ele>
  <time>2026-09-02T22:06:48Z</time>
  <course>187.94</course>
  <speed>0.022360679774997897</speed>
  <fix>3d</fix>
</trkpt>
<trkpt lat="33.810313" lon="-118.393867">
  <ele>-0.12</ele>
  <time>2026-09-02T22:06:48Z</time>
  <course>0.0</course>
  <speed>0.0</speed>
  <fix>3d</fix>
</trkpt>
<trkpt lat="33.810313" lon="-118.393867">
  <ele>-0.129</ele>
  <time>2026-09-02T22:06:48Z</time>
  <course>187.93</course>
  <speed>0.022360679774997897</speed>
  <fix>3d</fix>
</trkpt>
<trkpt lat="33.810313" lon="-118.393867">
  <ele>-0.12</ele>
  <time>2026-09-02T22:06:48Z</time>
  <course>0.0</course>
  <speed>0.0</speed>
  <fix>3d</fix>
</trkpt>
<trkpt lat="33.810313" lon="-118.393867">
  <ele>-0.131</ele>
  <time>2026-09-02T22:06:48Z</time>
  <course>187.92</course>
  <speed>0.022360679774997897</speed>
  <fix>3d</fix>
</trkpt>
<trkpt lat="33.810313" lon="-118.393867">
  <ele>-0.12</ele>
  <time>2026-09-02T22:06:48Z</time>
  <course>0.0</course>
  <speed>0.0</speed>
  <fix>3d</fix>
</trkpt>
<trkpt lat="33.810313" lon="-118.393867">
  <ele>-0.132</ele>
  <time>2026-09-02T22:06:48Z</time>
  <course>187.91</course>
  <speed>0.022360679774997897</speed>
  <fix>3d</fix>
</trkpt>
<trkpt lat="33.810313" lon="-118.393867">
  <ele>-0.12</ele>
  <time>2026-09-02T22:06:48Z</time>
  <course>0.0</course>
  <speed>0.0</speed>
  <fix>3d</fix>
</trkpt>
<trkpt lat="33.810313" lon="-118.393867">
  <ele>-0.132</ele>
  <time>2026-09-02T22:06:48Z</time>
  <course>187.9</course>
  <speed>0.022360679774997897</speed>
  <fix>3d</fix>
</trkpt>
<trkpt lat="33.810313" lon="-118.393867">
  <ele>-0.12</ele>
  <time>2026-09-02T22:06:48Z</time>
  <course>0.0</course>
  <speed>0.0</speed>
  <fix>3d</fix>
</trkpt>
<trkpt lat="33.810313" lon="-118.393867">
  <ele>-0.132</ele>
  <time>2026-09-02T22:06:48Z</time>
  <course>187.9</course>
  <speed>0.022360679774997897</speed>
  <fix>3d</fix>
</trkpt>
<trkpt lat="33.810313" lon="-118.393867">
  <ele>-0.12</ele>
  <time>2026-09-02T22:06:48Z</time>
  <course>0.0</course>
  <speed>0.0</speed>
  <fix>3d</fix>
</trkpt>
<trkpt lat="33.810313" lon="-118.393867">
  <ele>-0.13</ele>
  <time>2026-09-02T22:06:48Z</time>
  <course>187.89</course>
  <speed>0.022360679774997897</speed>
  <fix>3d</fix>
</trkpt>
<trkpt lat="33.810313" lon="-118.393867">
  <ele>-0.12</ele>
  <time>2026-09-02T22:06:48Z</time>
  <course>0.0</course>
  <speed>0.0</speed>
  <fix>3d</fix>
</trkpt>
<trkpt lat="33.810313" lon="-118.393867">
  <ele>-0.127</ele>
  <time>2026-09-02T22:06:48Z</time>
  <course>187.88</course>
  <speed>0.022360679774997897</speed>
  <fix>3d</fix>
</trkpt>
<trkpt lat="33.810313" lon="-118.393867">
  <ele>-0.12</ele>
  <time>2026-09-02T22:06:48Z</time>
  <course>0.0</course>
  <speed>0.0</speed>
  <fix>3d</fix>
</trkpt>
<trkpt lat="33.810313" lon="-118.393867">
  <ele>-0.123</ele>
  <time>2026-09-02T22:06:48Z</time>
  <course>187.87</course>
  <speed>0.022360679774997897</speed>
  <fix>3d</fix>
</trkpt>
<trkpt lat="33.810313" lon="-118.393867">
  <ele>-0.12</ele>
  <time>2026-09-02T22:06:48Z</time>
  <course>0.0</course>
  <speed>0.0</speed>
  <fix>3d</fix>
</trkpt>
<trkpt lat="33.810313" lon="-118.393867">
  <ele>-0.121</ele>
  <time>2026-09-02T22:06:48Z</time>
  <course>187.87</course>
  <speed>0.022360679774997897</speed>
  <fix>3d</fix>
</trkpt>
<trkpt lat="33.810313" lon="-118.393867">
  <ele>-0.12</ele>
  <time>2026-09-02T22:06:48Z</time>
  <course>0.0</course>
  <speed>0.0</speed>
  <fix>3d</fix>
</trkpt>
<trkpt lat="33.810313" lon="-118.393867">
  <ele>-0.121</ele>
  <time>2026-09-02T22:06:48Z</time>
  <course>187.86</course>
  <speed>0.022360679774997897</speed>
  <fix>3d</fix>
</trkpt>
<trkpt lat="33.810313" lon="-118.393867">
  <ele>-0.12</ele>
  <time>2026-09-02T22:06:48Z</time>
  <course>0.0</course>
  <speed>0.0</speed>
  <fix>3d</fix>
</trkpt>
<trkpt lat="33.810313" lon="-118.393867">
  <ele>-0.123</ele>
  <time>2026-09-02T22:06:48Z</time>
  <course>187.85</course>
  <speed>0.022360679774997897</speed>
  <fix>3d</fix>
</trkpt>
<trkpt lat="33.810313" lon="-118.393867">
  <ele>-0.12</ele>
  <time>2026-09-02T22:06:48Z</time>
  <course>0.0</course>
  <speed>0.0</speed>
  <fix>3d</fix>
</trkpt>
<trkpt lat="33.810313" lon="-118.393867">
  <ele>-0.124</ele>
  <time>2026-09-02T22:06:48Z</time>
  <course>187.84</course>
  <speed>0.022360679774997897</speed>
  <fix>3d</fix>
</trkpt>
<trkpt lat="33.810313" lon="-118.393867">
  <ele>-0.12</ele>
  <time>2026-09-02T22:06:48Z</time>
  <course>0.0</course>
  <speed>0.0</speed>
  <fix>3d</fix>
</trkpt>
<trkpt lat="33.810313" lon="-118.393867">
  <ele>-0.126</ele>
  <time>2026-09-02T22:06:48Z</time>
  <course>187.83</course>
  <speed>0.022360679774997897</speed>
  <fix>3d</fix>
</trkpt>
<trkpt lat="33.810313" lon="-118.393867">
  <ele>-0.12</ele>
  <time>2026-09-02T22:06:48Z</time>
  <course>0.0</course>
  <speed>0.0</speed>
  <fix>3d</fix>
</trkpt>
<trkpt lat="33.810313" lon="-118.393867">
  <ele>-0.127</ele>
  <time>2026-09-02T22:06:48Z</time>
  <course>187.83</course>
  <speed>0.022360679774997897</speed>
  <fix>3d</fix>
</trkpt>
<trkpt lat="33.810313" lon="-118.393867">
  <ele>-0.12</ele>
  <time>2026-09-02T22:06:48Z</time>
  <course>0.0</course>
  <speed>0.0</speed>
  <fix>3d</fix>
</trkpt>
<trkpt lat="33.810313" lon="-118.393867">
  <ele>-0.127</ele>
  <time>2026-09-02T22:06:48Z</time>
  <course>187.82</course>
  <speed>0.022360679774997897</speed>
  <fix>3d</fix>
</trkpt>
<trkpt lat="33.810313" lon="-118.393867">
  <ele>-0.12</ele>
  <time>2026-09-02T22:06:48Z</time>
  <course>0.0</course>
  <speed>0.0</speed>
  <fix>3d</fix>
</trkpt>
<trkpt lat="33.810313" lon="-118.393867">
  <ele>-0.127</ele>
  <time>2026-09-02T22:06:48Z</time>
  <course>187.81</course>
  <speed>0.022360679774997897</speed>
  <fix>3d</fix>
</trkpt>
<trkpt lat="33.810313" lon="-118.393867">
  <ele>-0.12</ele>
  <time>2026-09-02T22:06:48Z</time>
  <course>0.0</course>
  <speed>0.0</speed>
  <fix>3d</fix>
</trkpt>
<trkpt lat="33.810313" lon="-118.393867">
  <ele>-0.126</ele>
  <time>2026-09-02T22:06:48Z</time>
  <course>187.8</course>
  <speed>0.022360679774997897</speed>
  <fix>3d</fix>
</trkpt>
<trkpt lat="33.810313" lon="-118.393867">
  <ele>-0.12</ele>
  <time>2026-09-02T22:06:48Z</time>
  <course>0.0</course>
  <speed>0.0</speed>
  <fix>3d</fix>
</trkpt>
<trkpt lat="33.810313" lon="-118.393867">
  <ele>-0.124</ele>
  <time>2026-09-02T22:06:48Z</time>
  <course>187.8</course>
  <speed>0.022360679774997897</speed>
  <fix>3d</fix>
</trkpt>
<trkpt lat="33.810313" lon="-118.393867">
  <ele>-0.12</ele>
  <time>2026-09-02T22:06:48Z</time>
  <course>0.0</course>
  <speed>0.0</speed>
  <fix>3d</fix>
</trkpt>
<trkpt lat="33.810313" lon="-118.393867">
  <ele>-0.121</ele>
  <time>2026-09-02T22:06:48Z</time>
  <course>187.79</course>
  <speed>0.022360679774997897</speed>
  <fix>3d</fix>
</trkpt>
<trkpt lat="33.810313" lon="-118.393867">
  <ele>-0.12</ele>
  <time>2026-09-02T22:06:48Z</time>
  <course>0.0</course>
  <speed>0.0</speed>
  <fix>3d</fix>
</trkpt>
<trkpt lat="33.810313" lon="-118.393867">
  <ele>-0.119</ele>
  <time>2026-09-02T22:06:48Z</time>
  <course>187.78</course>
  <speed>0.022360679774997897</speed>
  <fix>3d</fix>
</trkpt>
<trkpt lat="33.810313" lon="-118.393867">
  <ele>-0.12</ele>
  <time>2026-09-02T22:06:48Z</time>
  <course>0.0</course>
  <speed>0.0</speed>
  <fix>3d</fix>
</trkpt>
<trkpt lat="33.810313" lon="-118.393867">
  <ele>-0.118</ele>
  <time>2026-09-02T22:06:48Z</time>
  <course>187.77</course>
  <speed>0.022360679774997897</speed>
  <fix>3d</fix>
</trkpt>
<trkpt lat="33.810313" lon="-118.393867">
  <ele>-0.12</ele>
  <time>2026-09-02T22:06:48Z</time>
  <course>0.0</course>
  <speed>0.0</speed>
  <fix>3d</fix>
</trkpt>
<trkpt lat="33.810313" lon="-118.393867">
  <ele>-0.118</ele>
  <time>2026-09-02T22:06:48Z</time>
  <course>187.76</course>
  <speed>0.022360679774997897</speed>
  <fix>3d</fix>
</trkpt>
<trkpt lat="33.810313" lon="-118.393867">
  <ele>-0.12</ele>
  <time>2026-09-02T22:06:48Z</time>
  <course>0.0</course>
  <speed>0.0</speed>
  <fix>3d</fix>
</trkpt>
<trkpt lat="33.810313" lon="-118.393867">
  <ele>-0.119</ele>
  <time>2026-09-02T22:06:48Z</time>
  <course>187.76</course>
  <speed>0.022360679774997897</speed>
  <fix>3d</fix>
</trkpt>
<trkpt lat="33.810313" lon="-118.393867">
  <ele>-0.12</ele>
  <time>2026-09-02T22:06:48Z</time>
  <course>0.0</course>
  <speed>0.0</speed>
  <fix>3d</fix>
</trkpt>
<trkpt lat="33.810313" lon="-118.393867">
  <ele>-0.12</ele>
  <time>2026-09-02T22:06:49Z</time>
  <course>187.75</course>
  <speed>0.022360679774997897</speed>
  <fix>3d</fix>
</trkpt>
<trkpt lat="33.810313" lon="-118.393867">
  <ele>-0.12</ele>
  <time>2026-09-02T22:06:49Z</time>
  <course>0.0</course>
  <speed>0.0</speed>
  <fix>3d</fix>
</trkpt>
<trkpt lat="33.810313" lon="-118.393867">
  <ele>-0.12</ele>
  <time>2026-09-02T22:06:49Z</time>
  <course>187.74</course>
  <speed>0.0282842712474619</speed>
  <fix>3d</fix>
</trkpt>
<trkpt lat="33.810313" lon="-118.393867">
  <ele>-0.12</ele>
  <time>2026-09-02T22:06:49Z</time>
  <course>0.0</course>
  <speed>0.0</speed>
  <fix>3d</fix>
</trkpt>
<trkpt lat="33.810313" lon="-118.393867">
  <ele>-0.12</ele>
  <time>2026-09-02T22:06:49Z</time>
  <course>187.74</course>
  <speed>0.0282842712474619</speed>
  <fix>3d</fix>
</trkpt>
<trkpt lat="33.810313" lon="-118.393867">
  <ele>-0.12</ele>
  <time>2026-09-02T22:06:49Z</time>
  <course>0.0</course>
  <speed>0.0</speed>
  <fix>3d</fix>
</trkpt>
<trkpt lat="33.810313" lon="-118.393867">
  <ele>-0.119</ele>
  <time>2026-09-02T22:06:49Z</time>
  <course>187.73</course>
  <speed>0.0282842712474619</speed>
  <fix>3d</fix>
</trkpt>
<trkpt lat="33.810313" lon="-118.393867">
  <ele>-0.12</ele>
  <time>2026-09-02T22:06:49Z</time>
  <course>0.0</course>
  <speed>0.0</speed>
  <fix>3d</fix>
</trkpt>
<trkpt lat="33.810313" lon="-118.393867">
  <ele>-0.118</ele>
  <time>2026-09-02T22:06:49Z</time>
  <course>187.72</course>
  <speed>0.0282842712474619</speed>
  <fix>3d</fix>
</trkpt>
<trkpt lat="33.810313" lon="-118.393867">
  <ele>-0.12</ele>
  <time>2026-09-02T22:06:49Z</time>
  <course>0.0</course>
  <speed>0.0</speed>
  <fix>3d</fix>
</trkpt>
<trkpt lat="33.810313" lon="-118.393867">
  <ele>-0.116</ele>
  <time>2026-09-02T22:06:49Z</time>
  <course>187.71</course>
  <speed>0.0282842712474619</speed>
  <fix>3d</fix>
</trkpt>
<trkpt lat="33.810313" lon="-118.393867">
  <ele>-0.12</ele>
  <time>2026-09-02T22:06:49Z</time>
  <course>0.0</course>
  <speed>0.0</speed>
  <fix>3d</fix>
</trkpt>
<trkpt lat="33.810313" lon="-118.393867">
  <ele>-0.113</ele>
  <time>2026-09-02T22:06:49Z</time>
  <course>187.71</course>
  <speed>0.0282842712474619</speed>
  <fix>3d</fix>
</trkpt>
<trkpt lat="33.810313" lon="-118.393867">
  <ele>-0.12</ele>
  <time>2026-09-02T22:06:49Z</time>
  <course>0.0</course>
  <speed>0.0</speed>
  <fix>3d</fix>
</trkpt>
<trkpt lat="33.810313" lon="-118.393867">
  <ele>-0.112</ele>
  <time>2026-09-02T22:06:49Z</time>
  <course>187.7</course>
  <speed>0.0282842712474619</speed>
  <fix>3d</fix>
</trkpt>
<trkpt lat="33.810313" lon="-118.393867">
  <ele>-0.12</ele>
  <time>2026-09-02T22:06:49Z</time>
  <course>0.0</course>
  <speed>0.0</speed>
  <fix>3d</fix>
</trkpt>
<trkpt lat="33.810313" lon="-118.393867">
  <ele>-0.113</ele>
  <time>2026-09-02T22:06:49Z</time>
  <course>187.69</course>
  <speed>0.0282842712474619</speed>
  <fix>3d</fix>
</trkpt>
<trkpt lat="33.810313" lon="-118.393867">
  <ele>-0.12</ele>
  <time>2026-09-02T22:06:49Z</time>
  <course>0.0</course>
  <speed>0.0</speed>
  <fix>3d</fix>
</trkpt>
<trkpt lat="33.810313" lon="-118.393867">
  <ele>-0.115</ele>
  <time>2026-09-02T22:06:49Z</time>
  <course>187.68</course>
  <speed>0.0282842712474619</speed>
  <fix>3d</fix>
</trkpt>
<trkpt lat="33.810313" lon="-118.393867">
  <ele>-0.12</ele>
  <time>2026-09-02T22:06:49Z</time>
  <course>0.0</course>
  <speed>0.0</speed>
  <fix>3d</fix>
</trkpt>
<trkpt lat="33.810313" lon="-118.393867">
  <ele>-0.119</ele>
  <time>2026-09-02T22:06:49Z</time>
  <course>187.68</course>
  <speed>0.0282842712474619</speed>
  <fix>3d</fix>
</trkpt>
<trkpt lat="33.810313" lon="-118.393867">
  <ele>-0.12</ele>
  <time>2026-09-02T22:06:49Z</time>
  <course>0.0</course>
  <speed>0.0</speed>
  <fix>3d</fix>
</trkpt>
<trkpt lat="33.810313" lon="-118.393867">
  <ele>-0.124</ele>
  <time>2026-09-02T22:06:49Z</time>
  <course>187.67</course>
  <speed>0.0282842712474619</speed>
  <fix>3d</fix>
</trkpt>
<trkpt lat="33.810313" lon="-118.393867">
  <ele>-0.12</ele>
  <time>2026-09-02T22:06:49Z</time>
  <course>0.0</course>
  <speed>0.0</speed>
  <fix>3d</fix>
</trkpt>
<trkpt lat="33.810313" lon="-118.393867">
  <ele>-0.129</ele>
  <time>2026-09-02T22:06:49Z</time>
  <course>187.66</course>
  <speed>0.0282842712474619</speed>
  <fix>3d</fix>
</trkpt>
<trkpt lat="33.810313" lon="-118.393867">
  <ele>-0.12</ele>
  <time>2026-09-02T22:06:49Z</time>
  <course>0.0</course>
  <speed>0.0</speed>
  <fix>3d</fix>
</trkpt>
<trkpt lat="33.810313" lon="-118.393867">
  <ele>-0.133</ele>
  <time>2026-09-02T22:06:49Z</time>
  <course>187.66</course>
  <speed>0.0282842712474619</speed>
  <fix>3d</fix>
</trkpt>
<trkpt lat="33.810313" lon="-118.393867">
  <ele>-0.12</ele>
  <time>2026-09-02T22:06:49Z</time>
  <course>0.0</course>
  <speed>0.0</speed>
  <fix>3d</fix>
</trkpt>
<trkpt lat="33.810313" lon="-118.393867">
  <ele>-0.135</ele>
  <time>2026-09-02T22:06:49Z</time>
  <course>187.65</course>
  <speed>0.0282842712474619</speed>
  <fix>3d</fix>
</trkpt>
<trkpt lat="33.810313" lon="-118.393867">
  <ele>-0.12</ele>
  <time>2026-09-02T22:06:49Z</time>
  <course>0.0</course>
  <speed>0.0</speed>
  <fix>3d</fix>
</trkpt>
<trkpt lat="33.810313" lon="-118.393867">
  <ele>-0.135</ele>
  <time>2026-09-02T22:06:49Z</time>
  <course>187.64</course>
  <speed>0.0282842712474619</speed>
  <fix>3d</fix>
</trkpt>
<trkpt lat="33.810313" lon="-118.393867">
  <ele>-0.12</ele>
  <time>2026-09-02T22:06:49Z</time>
  <course>0.0</course>
  <speed>0.0</speed>
  <fix>3d</fix>
</trkpt>
<trkpt lat="33.810313" lon="-118.393867">
  <ele>-0.135</ele>
  <time>2026-09-02T22:06:49Z</time>
  <course>187.64</course>
  <speed>0.0282842712474619</speed>
  <fix>3d</fix>
</trkpt>
<trkpt lat="33.810313" lon="-118.393867">
  <ele>-0.12</ele>
  <time>2026-09-02T22:06:49Z</time>
  <course>0.0</course>
  <speed>0.0</speed>
  <fix>3d</fix>
</trkpt>
<trkpt lat="33.810313" lon="-118.393867">
  <ele>-0.133</ele>
  <time>2026-09-02T22:06:49Z</time>
  <course>187.63</course>
  <speed>0.0282842712474619</speed>
  <fix>3d</fix>
</trkpt>
<trkpt lat="33.810313" lon="-118.393867">
  <ele>-0.12</ele>
  <time>2026-09-02T22:06:49Z</time>
  <course>0.0</course>
  <speed>0.0</speed>
  <fix>3d</fix>
</trkpt>
<trkpt lat="33.810313" lon="-118.393867">
  <ele>-0.132</ele>
  <time>2026-09-02T22:06:49Z</time>
  <course>187.63</course>
  <speed>0.03605551275463989</speed>
  <fix>3d</fix>
</trkpt>
<trkpt lat="33.810313" lon="-118.393867">
  <ele>-0.12</ele>
  <time>2026-09-02T22:06:49Z</time>
  <course>0.0</course>
  <speed>0.0</speed>
  <fix>3d</fix>
</trkpt>
<trkpt lat="33.810313" lon="-118.393867">
  <ele>-0.132</ele>
  <time>2026-09-02T22:06:49Z</time>
  <course>187.62</course>
  <speed>0.03605551275463989</speed>
  <fix>3d</fix>
</trkpt>
<trkpt lat="33.810313" lon="-118.393867">
  <ele>-0.12</ele>
  <time>2026-09-02T22:06:49Z</time>
  <course>0.0</course>
  <speed>0.0</speed>
  <fix>3d</fix>
</trkpt>
<trkpt lat="33.810313" lon="-118.393867">
  <ele>-0.133</ele>
  <time>2026-09-02T22:06:49Z</time>
  <course>187.61</course>
  <speed>0.03605551275463989</speed>
  <fix>3d</fix>
</trkpt>
<trkpt lat="33.810313" lon="-118.393867">
  <ele>-0.12</ele>
  <time>2026-09-02T22:06:49Z</time>
  <course>0.0</course>
  <speed>0.0</speed>
  <fix>3d</fix>
</trkpt>
<trkpt lat="33.810313" lon="-118.393867">
  <ele>-0.134</ele>
  <time>2026-09-02T22:06:49Z</time>
  <course>187.6</course>
  <speed>0.03605551275463989</speed>
  <fix>3d</fix>
</trkpt>
<trkpt lat="33.810313" lon="-118.393867">
  <ele>-0.12</ele>
  <time>2026-09-02T22:06:49Z</time>
  <course>0.0</course>
  <speed>0.0</speed>
  <fix>3d</fix>
</trkpt>
<trkpt lat="33.810313" lon="-118.393867">
  <ele>-0.134</ele>
  <time>2026-09-02T22:06:49Z</time>
  <course>187.6</course>
  <speed>0.03605551275463989</speed>
  <fix>3d</fix>
</trkpt>
<trkpt lat="33.810313" lon="-118.393867">
  <ele>-0.12</ele>
  <time>2026-09-02T22:06:49Z</time>
  <course>0.0</course>
  <speed>0.0</speed>
  <fix>3d</fix>
</trkpt>
<trkpt lat="33.810313" lon="-118.393867">
  <ele>-0.134</ele>
  <time>2026-09-02T22:06:49Z</time>
  <course>187.59</course>
  <speed>0.03605551275463989</speed>
  <fix>3d</fix>
</trkpt>
<trkpt lat="33.810313" lon="-118.393867">
  <ele>-0.12</ele>
  <time>2026-09-02T22:06:49Z</time>
  <course>0.0</course>
  <speed>0.0</speed>
  <fix>3d</fix>
</trkpt>
<trkpt lat="33.810313" lon="-118.393867">
  <ele>-0.132</ele>
  <time>2026-09-02T22:06:49Z</time>
  <course>187.58</course>
  <speed>0.03605551275463989</speed>
  <fix>3d</fix>
</trkpt>
<trkpt lat="33.810313" lon="-118.393867">
  <ele>-0.12</ele>
  <time>2026-09-02T22:06:49Z</time>
  <course>0.0</course>
  <speed>0.0</speed>
  <fix>3d</fix>
</trkpt>
<trkpt lat="33.810313" lon="-118.393867">
  <ele>-0.129</ele>
  <time>2026-09-02T22:06:49Z</time>
  <course>187.58</course>
  <speed>0.03605551275463989</speed>
  <fix>3d</fix>
</trkpt>
<trkpt lat="33.810313" lon="-118.393867">
  <ele>-0.12</ele>
  <time>2026-09-02T22:06:49Z</time>
  <course>0.0</course>
  <speed>0.0</speed>
  <fix>3d</fix>
</trkpt>
<trkpt lat="33.810313" lon="-118.393867">
  <ele>-0.127</ele>
  <time>2026-09-02T22:06:49Z</time>
  <course>187.57</course>
  <speed>0.03605551275463989</speed>
  <fix>3d</fix>
</trkpt>
<trkpt lat="33.810313" lon="-118.393867">
  <ele>-0.12</ele>
  <time>2026-09-02T22:06:49Z</time>
  <course>0.0</course>
  <speed>0.0</speed>
  <fix>3d</fix>
</trkpt>
<trkpt lat="33.810313" lon="-118.393867">
  <ele>-0.125</ele>
  <time>2026-09-02T22:06:49Z</time>
  <course>187.56</course>
  <speed>0.03605551275463989</speed>
  <fix>3d</fix>
</trkpt>
<trkpt lat="33.810313" lon="-118.393867">
  <ele>-0.12</ele>
  <time>2026-09-02T22:06:49Z</time>
  <course>0.0</course>
  <speed>0.0</speed>
  <fix>3d</fix>
</trkpt>
<trkpt lat="33.810313" lon="-118.393867">
  <ele>-0.122</ele>
  <time>2026-09-02T22:06:49Z</time>
  <course>187.56</course>
  <speed>0.03605551275463989</speed>
  <fix>3d</fix>
</trkpt>
<trkpt lat="33.810313" lon="-118.393867">
  <ele>-0.12</ele>
  <time>2026-09-02T22:06:49Z</time>
  <course>0.0</course>
  <speed>0.0</speed>
  <fix>3d</fix>
</trkpt>
<trkpt lat="33.810313" lon="-118.393867">
  <ele>-0.119</ele>
  <time>2026-09-02T22:06:49Z</time>
  <course>187.55</course>
  <speed>0.03605551275463989</speed>
  <fix>3d</fix>
</trkpt>
<trkpt lat="33.810313" lon="-118.393867">
  <ele>-0.12</ele>
  <time>2026-09-02T22:06:49Z</time>
  <course>0.0</course>
  <speed>0.0</speed>
  <fix>3d</fix>
</trkpt>
<trkpt lat="33.810313" lon="-118.393867">
  <ele>-0.117</ele>
  <time>2026-09-02T22:06:49Z</time>
  <course>187.54</course>
  <speed>0.03605551275463989</speed>
  <fix>3d</fix>
</trkpt>
<trkpt lat="33.810313" lon="-118.393867">
  <ele>-0.12</ele>
  <time>2026-09-02T22:06:49Z</time>
  <course>0.0</course>
  <speed>0.0</speed>
  <fix>3d</fix>
</trkpt>
<trkpt lat="33.810313" lon="-118.393867">
  <ele>-0.117</ele>
  <time>2026-09-02T22:06:49Z</time>
  <course>187.54</course>
  <speed>0.03605551275463989</speed>
  <fix>3d</fix>
</trkpt>
<trkpt lat="33.810313" lon="-118.393867">
  <ele>-0.12</ele>
  <time>2026-09-02T22:06:49Z</time>
  <course>0.0</course>
  <speed>0.0</speed>
  <fix>3d</fix>
</trkpt>
<trkpt lat="33.810313" lon="-118.393867">
  <ele>-0.118</ele>
  <time>2026-09-02T22:06:49Z</time>
  <course>187.53</course>
  <speed>0.03605551275463989</speed>
  <fix>3d</fix>
</trkpt>
<trkpt lat="33.810313" lon="-118.393867">
  <ele>-0.12</ele>
  <time>2026-09-02T22:06:49Z</time>
  <course>0.0</course>
  <speed>0.0</speed>
  <fix>3d</fix>
</trkpt>
<trkpt lat="33.810313" lon="-118.393867">
  <ele>-0.119</ele>
  <time>2026-09-02T22:06:49Z</time>
  <course>187.52</course>
  <speed>0.03605551275463989</speed>
  <fix>3d</fix>
</trkpt>
<trkpt lat="33.810313" lon="-118.393867">
  <ele>-0.12</ele>
  <time>2026-09-02T22:06:49Z</time>
  <course>0.0</course>
  <speed>0.0</speed>
  <fix>3d</fix>
</trkpt>
<trkpt lat="33.810313" lon="-118.393867">
  <ele>-0.12</ele>
  <time>2026-09-02T22:06:49Z</time>
  <course>187.52</course>
  <speed>0.03605551275463989</speed>
  <fix>3d</fix>
</trkpt>
<trkpt lat="33.810313" lon="-118.393867">
  <ele>-0.12</ele>
  <time>2026-09-02T22:06:49Z</time>
  <course>0.0</course>
  <speed>0.0</speed>
  <fix>3d</fix>
</trkpt>
<trkpt lat="33.810313" lon="-118.393867">
  <ele>-0.121</ele>
  <time>2026-09-02T22:06:49Z</time>
  <course>187.51</course>
  <speed>0.03605551275463989</speed>
  <fix>3d</fix>
</trkpt>
<trkpt lat="33.810313" lon="-118.393867">
  <ele>-0.12</ele>
  <time>2026-09-02T22:06:49Z</time>
  <course>0.0</course>
  <speed>0.0</speed>
  <fix>3d</fix>
</trkpt>
<trkpt lat="33.810313" lon="-118.393867">
  <ele>-0.121</ele>
  <time>2026-09-02T22:06:49Z</time>
  <course>187.51</course>
  <speed>0.03605551275463989</speed>
  <fix>3d</fix>
</trkpt>
<trkpt lat="33.810313" lon="-118.393867">
  <ele>-0.12</ele>
  <time>2026-09-02T22:06:49Z</time>
  <course>0.0</course>
  <speed>0.0</speed>
  <fix>3d</fix>
</trkpt>
<trkpt lat="33.810313" lon="-118.393867">
  <ele>-0.121</ele>
  <time>2026-09-02T22:06:49Z</time>
  <course>187.5</course>
  <speed>0.03605551275463989</speed>
  <fix>3d</fix>
</trkpt>
<trkpt lat="33.810313" lon="-118.393867">
  <ele>-0.12</ele>
  <time>2026-09-02T22:06:49Z</time>
  <course>0.0</course>
  <speed>0.0</speed>
  <fix>3d</fix>
</trkpt>
<trkpt lat="33.810313" lon="-118.393867">
  <ele>-0.121</ele>
  <time>2026-09-02T22:06:49Z</time>
  <course>187.49</course>
  <speed>0.03605551275463989</speed>
  <fix>3d</fix>
</trkpt>
<trkpt lat="33.810313" lon="-118.393867">
  <ele>-0.12</ele>
  <time>2026-09-02T22:06:49Z</time>
  <course>0.0</course>
  <speed>0.0</speed>
  <fix>3d</fix>
</trkpt>
<trkpt lat="33.810313" lon="-118.393867">
  <ele>-0.121</ele>
  <time>2026-09-02T22:06:49Z</time>
  <course>187.49</course>
  <speed>0.03605551275463989</speed>
  <fix>3d</fix>
</trkpt>
<trkpt lat="33.810313" lon="-118.393867">
  <ele>-0.12</ele>
  <time>2026-09-02T22:06:49Z</time>
  <course>0.0</course>
  <speed>0.0</speed>
  <fix>3d</fix>
</trkpt>
<trkpt lat="33.810313" lon="-118.393867">
  <ele>-0.121</ele>
  <time>2026-09-02T22:06:49Z</time>
  <course>187.48</course>
  <speed>0.03605551275463989</speed>
  <fix>3d</fix>
</trkpt>
<trkpt lat="33.810313" lon="-118.393867">
  <ele>-0.12</ele>
  <time>2026-09-02T22:06:49Z</time>
  <course>0.0</course>
  <speed>0.0</speed>
  <fix>3d</fix>
</trkpt>
<trkpt lat="33.810313" lon="-118.393867">
  <ele>-0.122</ele>
  <time>2026-09-02T22:06:49Z</time>
  <course>187.47</course>
  <speed>0.03605551275463989</speed>
  <fix>3d</fix>
</trkpt>
<trkpt lat="33.810313" lon="-118.393867">
  <ele>-0.12</ele>
  <time>2026-09-02T22:06:49Z</time>
  <course>0.0</course>
  <speed>0.0</speed>
  <fix>3d</fix>
</trkpt>
<trkpt lat="33.810313" lon="-118.393867">
  <ele>-0.124</ele>
  <time>2026-09-02T22:06:49Z</time>
  <course>187.47</course>
  <speed>0.03605551275463989</speed>
  <fix>3d</fix>
</trkpt>
<trkpt lat="33.810313" lon="-118.393867">
  <ele>-0.12</ele>
  <time>2026-09-02T22:06:49Z</time>
  <course>0.0</course>
  <speed>0.0</speed>
  <fix>3d</fix>
</trkpt>
<trkpt lat="33.810313" lon="-118.393867">
  <ele>-0.127</ele>
  <time>2026-09-02T22:06:49Z</time>
  <course>187.46</course>
  <speed>0.03605551275463989</speed>
  <fix>3d</fix>
</trkpt>
<trkpt lat="33.810313" lon="-118.393867">
  <ele>-0.12</ele>
  <time>2026-09-02T22:06:49Z</time>
  <course>0.0</course>
  <speed>0.0</speed>
  <fix>3d</fix>
</trkpt>
<trkpt lat="33.810313" lon="-118.393867">
  <ele>-0.129</ele>
  <time>2026-09-02T22:06:49Z</time>
  <course>187.45</course>
  <speed>0.03605551275463989</speed>
  <fix>3d</fix>
</trkpt>
<trkpt lat="33.810313" lon="-118.393867">
  <ele>-0.12</ele>
  <time>2026-09-02T22:06:49Z</time>
  <course>0.0</course>
  <speed>0.0</speed>
  <fix>3d</fix>
</trkpt>
<trkpt lat="33.810313" lon="-118.393867">
  <ele>-0.131</ele>
  <time>2026-09-02T22:06:49Z</time>
  <course>187.45</course>
  <speed>0.03605551275463989</speed>
  <fix>3d</fix>
</trkpt>
<trkpt lat="33.810313" lon="-118.393867">
  <ele>-0.12</ele>
  <time>2026-09-02T22:06:49Z</time>
  <course>0.0</course>
  <speed>0.0</speed>
  <fix>3d</fix>
</trkpt>
<trkpt lat="33.810313" lon="-118.393867">
  <ele>-0.132</ele>
  <time>2026-09-02T22:06:49Z</time>
  <course>187.44</course>
  <speed>0.03605551275463989</speed>
  <fix>3d</fix>
</trkpt>
<trkpt lat="33.810313" lon="-118.393867">
  <ele>-0.12</ele>
  <time>2026-09-02T22:06:49Z</time>
  <course>0.0</course>
  <speed>0.0</speed>
  <fix>3d</fix>
</trkpt>
<trkpt lat="33.810313" lon="-118.393867">
  <ele>-0.132</ele>
  <time>2026-09-02T22:06:49Z</time>
  <course>187.44</course>
  <speed>0.03605551275463989</speed>
  <fix>3d</fix>
</trkpt>
<trkpt lat="33.810313" lon="-118.393867">
  <ele>-0.12</ele>
  <time>2026-09-02T22:06:49Z</time>
  <course>0.0</course>
  <speed>0.0</speed>
  <fix>3d</fix>
</trkpt>
<trkpt lat="33.810313" lon="-118.393867">
  <ele>-0.132</ele>
  <time>2026-09-02T22:06:49Z</time>
  <course>187.43</course>
  <speed>0.03605551275463989</speed>
  <fix>3d</fix>
</trkpt>
<trkpt lat="33.810313" lon="-118.393867">
  <ele>-0.12</ele>
  <time>2026-09-02T22:06:49Z</time>
  <course>0.0</course>
  <speed>0.0</speed>
  <fix>3d</fix>
</trkpt>
<trkpt lat="33.810313" lon="-118.393867">
  <ele>-0.132</ele>
  <time>2026-09-02T22:06:49Z</time>
  <course>187.42</course>
  <speed>0.03605551275463989</speed>
  <fix>3d</fix>
</trkpt>
<trkpt lat="33.810313" lon="-118.393867">
  <ele>-0.12</ele>
  <time>2026-09-02T22:06:49Z</time>
  <course>0.0</course>
  <speed>0.0</speed>
  <fix>3d</fix>
</trkpt>
<trkpt lat="33.810313" lon="-118.393867">
  <ele>-0.131</ele>
  <time>2026-09-02T22:06:49Z</time>
  <course>187.42</course>
  <speed>0.03605551275463989</speed>
  <fix>3d</fix>
</trkpt>
<trkpt lat="33.810313" lon="-118.393867">
  <ele>-0.12</ele>
  <time>2026-09-02T22:06:49Z</time>
  <course>0.0</course>
  <speed>0.0</speed>
  <fix>3d</fix>
</trkpt>
<trkpt lat="33.810313" lon="-118.393867">
  <ele>-0.131</ele>
  <time>2026-09-02T22:06:49Z</time>
  <course>187.41</course>
  <speed>0.03605551275463989</speed>
  <fix>3d</fix>
</trkpt>
<trkpt lat="33.810313" lon="-118.393867">
  <ele>-0.12</ele>
  <time>2026-09-02T22:06:49Z</time>
  <course>0.0</course>
  <speed>0.0</speed>
  <fix>3d</fix>
</trkpt>
<trkpt lat="33.810313" lon="-118.393867">
  <ele>-0.132</ele>
  <time>2026-09-02T22:06:49Z</time>
  <course>187.41</course>
  <speed>0.03605551275463989</speed>
  <fix>3d</fix>
</trkpt>
<trkpt lat="33.810313" lon="-118.393867">
  <ele>-0.12</ele>
  <time>2026-09-02T22:06:49Z</time>
  <course>0.0</course>
  <speed>0.0</speed>
  <fix>3d</fix>
</trkpt>
<trkpt lat="33.810313" lon="-118.393867">
  <ele>-0.134</ele>
  <time>2026-09-02T22:06:49Z</time>
  <course>187.4</course>
  <speed>0.03605551275463989</speed>
  <fix>3d</fix>
</trkpt>
<trkpt lat="33.810313" lon="-118.393867">
  <ele>-0.12</ele>
  <time>2026-09-02T22:06:49Z</time>
  <course>0.0</course>
  <speed>0.0</speed>
  <fix>3d</fix>
</trkpt>
<trkpt lat="33.810313" lon="-118.393867">
  <ele>-0.137</ele>
  <time>2026-09-02T22:06:49Z</time>
  <course>187.39</course>
  <speed>0.03605551275463989</speed>
  <fix>3d</fix>
</trkpt>
<trkpt lat="33.810313" lon="-118.393867">
  <ele>-0.12</ele>
  <time>2026-09-02T22:06:49Z</time>
  <course>0.0</course>
  <speed>0.0</speed>
  <fix>3d</fix>
</trkpt>
<trkpt lat="33.810313" lon="-118.393867">
  <ele>-0.139</ele>
  <time>2026-09-02T22:06:49Z</time>
  <course>187.39</course>
  <speed>0.03605551275463989</speed>
  <fix>3d</fix>
</trkpt>
<trkpt lat="33.810313" lon="-118.393867">
  <ele>-0.12</ele>
  <time>2026-09-02T22:06:49Z</time>
  <course>0.0</course>
  <speed>0.0</speed>
  <fix>3d</fix>
</trkpt>
<trkpt lat="33.810313" lon="-118.393867">
  <ele>-0.141</ele>
  <time>2026-09-02T22:06:49Z</time>
  <course>187.38</course>
  <speed>0.03605551275463989</speed>
  <fix>3d</fix>
</trkpt>
<trkpt lat="33.810313" lon="-118.393867">
  <ele>-0.12</ele>
  <time>2026-09-02T22:06:49Z</time>
  <course>0.0</course>
  <speed>0.0</speed>
  <fix>3d</fix>
</trkpt>
<trkpt lat="33.810313" lon="-118.393867">
  <ele>-0.141</ele>
  <time>2026-09-02T22:06:49Z</time>
  <course>187.38</course>
  <speed>0.03605551275463989</speed>
  <fix>3d</fix>
</trkpt>
<trkpt lat="33.810313" lon="-118.393867">
  <ele>-0.12</ele>
  <time>2026-09-02T22:06:49Z</time>
  <course>0.0</course>
  <speed>0.0</speed>
  <fix>3d</fix>
</trkpt>
<trkpt lat="33.810313" lon="-118.393867">
  <ele>-0.139</ele>
  <time>2026-09-02T22:06:49Z</time>
  <course>187.37</course>
  <speed>0.03605551275463989</speed>
  <fix>3d</fix>
</trkpt>
<trkpt lat="33.810313" lon="-118.393867">
  <ele>-0.12</ele>
  <time>2026-09-02T22:06:49Z</time>
  <course>0.0</course>
  <speed>0.0</speed>
  <fix>3d</fix>
</trkpt>
<trkpt lat="33.810313" lon="-118.393867">
  <ele>-0.136</ele>
  <time>2026-09-02T22:06:49Z</time>
  <course>187.36</course>
  <speed>0.03605551275463989</speed>
  <fix>3d</fix>
</trkpt>
<trkpt lat="33.810313" lon="-118.393867">
  <ele>-0.12</ele>
  <time>2026-09-02T22:06:49Z</time>
  <course>0.0</course>
  <speed>0.0</speed>
  <fix>3d</fix>
</trkpt>
<trkpt lat="33.810313" lon="-118.393867">
  <ele>-0.132</ele>
  <time>2026-09-02T22:06:49Z</time>
  <course>187.36</course>
  <speed>0.03605551275463989</speed>
  <fix>3d</fix>
</trkpt>
<trkpt lat="33.810313" lon="-118.393867">
  <ele>-0.12</ele>
  <time>2026-09-02T22:06:49Z</time>
  <course>0.0</course>
  <speed>0.0</speed>
  <fix>3d</fix>
</trkpt>
<trkpt lat="33.810313" lon="-118.393867">
  <ele>-0.129</ele>
  <time>2026-09-02T22:06:49Z</time>
  <course>187.35</course>
  <speed>0.03605551275463989</speed>
  <fix>3d</fix>
</trkpt>
<trkpt lat="33.810313" lon="-118.393867">
  <ele>-0.12</ele>
  <time>2026-09-02T22:06:49Z</time>
  <course>0.0</course>
  <speed>0.0</speed>
  <fix>3d</fix>
</trkpt>
<trkpt lat="33.810313" lon="-118.393867">
  <ele>-0.127</ele>
  <time>2026-09-02T22:06:49Z</time>
  <course>187.35</course>
  <speed>0.03605551275463989</speed>
  <fix>3d</fix>
</trkpt>
<trkpt lat="33.810313" lon="-118.393867">
  <ele>-0.12</ele>
  <time>2026-09-02T22:06:49Z</time>
  <course>0.0</course>
  <speed>0.0</speed>
  <fix>3d</fix>
</trkpt>
<trkpt lat="33.810313" lon="-118.393867">
  <ele>-0.126</ele>
  <time>2026-09-02T22:06:49Z</time>
  <course>187.34</course>
  <speed>0.03605551275463989</speed>
  <fix>3d</fix>
</trkpt>
<trkpt lat="33.810313" lon="-118.393867">
  <ele>-0.12</ele>
  <time>2026-09-02T22:06:49Z</time>
  <course>0.0</course>
  <speed>0.0</speed>
  <fix>3d</fix>
</trkpt>
<trkpt lat="33.810313" lon="-118.393867">
  <ele>-0.126</ele>
  <time>2026-09-02T22:06:49Z</time>
  <course>187.33</course>
  <speed>0.03605551275463989</speed>
  <fix>3d</fix>
</trkpt>
<trkpt lat="33.810313" lon="-118.393867">
  <ele>-0.12</ele>
  <time>2026-09-02T22:06:49Z</time>
  <course>0.0</course>
  <speed>0.0</speed>
  <fix>3d</fix>
</trkpt>
<trkpt lat="33.810313" lon="-118.393867">
  <ele>-0.127</ele>
  <time>2026-09-02T22:06:49Z</time>
  <course>187.33</course>
  <speed>0.03605551275463989</speed>
  <fix>3d</fix>
</trkpt>
<trkpt lat="33.810313" lon="-118.393867">
  <ele>-0.12</ele>
  <time>2026-09-02T22:06:49Z</time>
  <course>0.0</course>
  <speed>0.0</speed>
  <fix>3d</fix>
</trkpt>
<trkpt lat="33.810313" lon="-118.393867">
  <ele>-0.126</ele>
  <time>2026-09-02T22:06:49Z</time>
  <course>187.32</course>
  <speed>0.03605551275463989</speed>
  <fix>3d</fix>
</trkpt>
<trkpt lat="33.810313" lon="-118.393867">
  <ele>-0.12</ele>
  <time>2026-09-02T22:06:49Z</time>
  <course>0.0</course>
  <speed>0.0</speed>
  <fix>3d</fix>
</trkpt>
<trkpt lat="33.810313" lon="-118.393867">
  <ele>-0.126</ele>
  <time>2026-09-02T22:06:49Z</time>
  <course>187.32</course>
  <speed>0.03605551275463989</speed>
  <fix>3d</fix>
</trkpt>
<trkpt lat="33.810313" lon="-118.393867">
  <ele>-0.12</ele>
  <time>2026-09-02T22:06:49Z</time>
  <course>0.0</course>
  <speed>0.0</speed>
  <fix>3d</fix>
</trkpt>
<trkpt lat="33.810313" lon="-118.393867">
  <ele>-0.125</ele>
  <time>2026-09-02T22:06:49Z</time>
  <course>187.31</course>
  <speed>0.03605551275463989</speed>
  <fix>3d</fix>
</trkpt>
<trkpt lat="33.810313" lon="-118.393867">
  <ele>-0.12</ele>
  <time>2026-09-02T22:06:49Z</time>
  <course>0.0</course>
  <speed>0.0</speed>
  <fix>3d</fix>
</trkpt>
<trkpt lat="33.810313" lon="-118.393867">
  <ele>-0.124</ele>
  <time>2026-09-02T22:06:49Z</time>
  <course>187.31</course>
  <speed>0.03605551275463989</speed>
  <fix>3d</fix>
</trkpt>
<trkpt lat="33.810313" lon="-118.393867">
  <ele>-0.12</ele>
  <time>2026-09-02T22:06:49Z</time>
  <course>0.0</course>
  <speed>0.0</speed>
  <fix>3d</fix>
</trkpt>
<trkpt lat="33.810313" lon="-118.393867">
  <ele>-0.122</ele>
  <time>2026-09-02T22:06:49Z</time>
  <course>187.3</course>
  <speed>0.03605551275463989</speed>
  <fix>3d</fix>
</trkpt>
<trkpt lat="33.810313" lon="-118.393867">
  <ele>-0.12</ele>
  <time>2026-09-02T22:06:49Z</time>
  <course>0.0</course>
  <speed>0.0</speed>
  <fix>3d</fix>
</trkpt>
<trkpt lat="33.810313" lon="-118.393867">
  <ele>-0.121</ele>
  <time>2026-09-02T22:06:49Z</time>
  <course>187.29</course>
  <speed>0.03605551275463989</speed>
  <fix>3d</fix>
</trkpt>
<trkpt lat="33.810313" lon="-118.393867">
  <ele>-0.12</ele>
  <time>2026-09-02T22:06:49Z</time>
  <course>0.0</course>
  <speed>0.0</speed>
  <fix>3d</fix>
</trkpt>
<trkpt lat="33.810313" lon="-118.393867">
  <ele>-0.122</ele>
  <time>2026-09-02T22:06:49Z</time>
  <course>187.29</course>
  <speed>0.03605551275463989</speed>
  <fix>3d</fix>
</trkpt>
<trkpt lat="33.810313" lon="-118.393867">
  <ele>-0.12</ele>
  <time>2026-09-02T22:06:49Z</time>
  <course>0.0</course>
  <speed>0.0</speed>
  <fix>3d</fix>
</trkpt>
<trkpt lat="33.810313" lon="-118.393867">
  <ele>-0.124</ele>
  <time>2026-09-02T22:06:49Z</time>
  <course>187.28</course>
  <speed>0.03605551275463989</speed>
  <fix>3d</fix>
</trkpt>
<trkpt lat="33.810313" lon="-118.393867">
  <ele>-0.12</ele>
  <time>2026-09-02T22:06:49Z</time>
  <course>0.0</course>
  <speed>0.0</speed>
  <fix>3d</fix>
</trkpt>
<trkpt lat="33.810313" lon="-118.393867">
  <ele>-0.128</ele>
  <time>2026-09-02T22:06:49Z</time>
  <course>187.28</course>
  <speed>0.03605551275463989</speed>
  <fix>3d</fix>
</trkpt>
<trkpt lat="33.810313" lon="-118.393867">
  <ele>-0.12</ele>
  <time>2026-09-02T22:06:49Z</time>
  <course>0.0</course>
  <speed>0.0</speed>
  <fix>3d</fix>
</trkpt>
<trkpt lat="33.810313" lon="-118.393867">
  <ele>-0.13</ele>
  <time>2026-09-02T22:06:49Z</time>
  <course>187.27</course>
  <speed>0.03605551275463989</speed>
  <fix>3d</fix>
</trkpt>
<trkpt lat="33.810313" lon="-118.393867">
  <ele>-0.12</ele>
  <time>2026-09-02T22:06:49Z</time>
  <course>0.0</course>
  <speed>0.0</speed>
  <fix>3d</fix>
</trkpt>
<trkpt lat="33.810313" lon="-118.393867">
  <ele>-0.133</ele>
  <time>2026-09-02T22:06:49Z</time>
  <course>187.27</course>
  <speed>0.03605551275463989</speed>
  <fix>3d</fix>
</trkpt>
<trkpt lat="33.810313" lon="-118.393867">
  <ele>-0.12</ele>
  <time>2026-09-02T22:06:49Z</time>
  <course>0.0</course>
  <speed>0.0</speed>
  <fix>3d</fix>
</trkpt>
<trkpt lat="33.810313" lon="-118.393867">
  <ele>-0.135</ele>
  <time>2026-09-02T22:06:49Z</time>
  <course>187.26</course>
  <speed>0.03605551275463989</speed>
  <fix>3d</fix>
</trkpt>
<trkpt lat="33.810313" lon="-118.393867">
  <ele>-0.12</ele>
  <time>2026-09-02T22:06:49Z</time>
  <course>0.0</course>
  <speed>0.0</speed>
  <fix>3d</fix>
</trkpt>
<trkpt lat="33.810313" lon="-118.393867">
  <ele>-0.136</ele>
  <time>2026-09-02T22:06:49Z</time>
  <course>187.26</course>
  <speed>0.03605551275463989</speed>
  <fix>3d</fix>
</trkpt>
<trkpt lat="33.810313" lon="-118.393867">
  <ele>-0.12</ele>
  <time>2026-09-02T22:06:49Z</time>
  <course>0.0</course>
  <speed>0.0</speed>
  <fix>3d</fix>
</trkpt>
<trkpt lat="33.810313" lon="-118.393867">
  <ele>-0.136</ele>
  <time>2026-09-02T22:06:49Z</time>
  <course>187.25</course>
  <speed>0.03605551275463989</speed>
  <fix>3d</fix>
</trkpt>
<trkpt lat="33.810313" lon="-118.393867">
  <ele>-0.12</ele>
  <time>2026-09-02T22:06:49Z</time>
  <course>0.0</course>
  <speed>0.0</speed>
  <fix>3d</fix>
</trkpt>
<trkpt lat="33.810313" lon="-118.393867">
  <ele>-0.135</ele>
  <time>2026-09-02T22:06:49Z</time>
  <course>187.25</course>
  <speed>0.03605551275463989</speed>
  <fix>3d</fix>
</trkpt>
<trkpt lat="33.810313" lon="-118.393867">
  <ele>-0.12</ele>
  <time>2026-09-02T22:06:49Z</time>
  <course>0.0</course>
  <speed>0.0</speed>
  <fix>3d</fix>
</trkpt>
<trkpt lat="33.810313" lon="-118.393867">
  <ele>-0.134</ele>
  <time>2026-09-02T22:06:49Z</time>
  <course>187.24</course>
  <speed>0.03605551275463989</speed>
  <fix>3d</fix>
</trkpt>
<trkpt lat="33.810313" lon="-118.393867">
  <ele>-0.12</ele>
  <time>2026-09-02T22:06:49Z</time>
  <course>0.0</course>
  <speed>0.0</speed>
  <fix>3d</fix>
</trkpt>
<trkpt lat="33.810313" lon="-118.393867">
  <ele>-0.132</ele>
  <time>2026-09-02T22:06:49Z</time>
  <course>187.24</course>
  <speed>0.03605551275463989</speed>
  <fix>3d</fix>
</trkpt>
<trkpt lat="33.810313" lon="-118.393867">
  <ele>-0.12</ele>
  <time>2026-09-02T22:06:49Z</time>
  <course>0.0</course>
  <speed>0.0</speed>
  <fix>3d</fix>
</trkpt>
<trkpt lat="33.810313" lon="-118.393867">
  <ele>-0.131</ele>
  <time>2026-09-02T22:06:49Z</time>
  <course>187.23</course>
  <speed>0.03605551275463989</speed>
  <fix>3d</fix>
</trkpt>
<trkpt lat="33.810313" lon="-118.393867">
  <ele>-0.12</ele>
  <time>2026-09-02T22:06:49Z</time>
  <course>0.0</course>
  <speed>0.0</speed>
  <fix>3d</fix>
</trkpt>
<trkpt lat="33.810313" lon="-118.393867">
  <ele>-0.131</ele>
  <time>2026-09-02T22:06:49Z</time>
  <course>187.22</course>
  <speed>0.03605551275463989</speed>
  <fix>3d</fix>
</trkpt>
<trkpt lat="33.810313" lon="-118.393867">
  <ele>-0.12</ele>
  <time>2026-09-02T22:06:49Z</time>
  <course>0.0</course>
  <speed>0.0</speed>
  <fix>3d</fix>
</trkpt>
<trkpt lat="33.810313" lon="-118.393867">
  <ele>-0.132</ele>
  <time>2026-09-02T22:06:49Z</time>
  <course>187.22</course>
  <speed>0.03605551275463989</speed>
  <fix>3d</fix>
</trkpt>
<trkpt lat="33.810313" lon="-118.393867">
  <ele>-0.12</ele>
  <time>2026-09-02T22:06:49Z</time>
  <course>0.0</course>
  <speed>0.0</speed>
  <fix>3d</fix>
</trkpt>
<trkpt lat="33.810313" lon="-118.393867">
  <ele>-0.132</ele>
  <time>2026-09-02T22:06:49Z</time>
  <course>187.21</course>
  <speed>0.03605551275463989</speed>
  <fix>3d</fix>
</trkpt>
<trkpt lat="33.810313" lon="-118.393867">
  <ele>-0.12</ele>
  <time>2026-09-02T22:06:49Z</time>
  <course>0.0</course>
  <speed>0.0</speed>
  <fix>3d</fix>
</trkpt>
<trkpt lat="33.810313" lon="-118.393867">
  <ele>-0.133</ele>
  <time>2026-09-02T22:06:49Z</time>
  <course>187.21</course>
  <speed>0.03605551275463989</speed>
  <fix>3d</fix>
</trkpt>
<trkpt lat="33.810313" lon="-118.393867">
  <ele>-0.12</ele>
  <time>2026-09-02T22:06:49Z</time>
  <course>0.0</course>
  <speed>0.0</speed>
  <fix>3d</fix>
</trkpt>
<trkpt lat="33.810313" lon="-118.393867">
  <ele>-0.132</ele>
  <time>2026-09-02T22:06:49Z</time>
  <course>187.2</course>
  <speed>0.03605551275463989</speed>
  <fix>3d</fix>
</trkpt>
<trkpt lat="33.810313" lon="-118.393867">
  <ele>-0.12</ele>
  <time>2026-09-02T22:06:49Z</time>
  <course>0.0</course>
  <speed>0.0</speed>
  <fix>3d</fix>
</trkpt>
<trkpt lat="33.810313" lon="-118.393867">
  <ele>-0.131</ele>
  <time>2026-09-02T22:06:49Z</time>
  <course>187.2</course>
  <speed>0.03605551275463989</speed>
  <fix>3d</fix>
</trkpt>
<trkpt lat="33.810313" lon="-118.393867">
  <ele>-0.12</ele>
  <time>2026-09-02T22:06:49Z</time>
  <course>0.0</course>
  <speed>0.0</speed>
  <fix>3d</fix>
</trkpt>
<trkpt lat="33.810313" lon="-118.393867">
  <ele>-0.129</ele>
  <time>2026-09-02T22:06:49Z</time>
  <course>187.19</course>
  <speed>0.03605551275463989</speed>
  <fix>3d</fix>
</trkpt>
<trkpt lat="33.810313" lon="-118.393867">
  <ele>-0.12</ele>
  <time>2026-09-02T22:06:49Z</time>
  <course>0.0</course>
  <speed>0.0</speed>
  <fix>3d</fix>
</trkpt>
<trkpt lat="33.810313" lon="-118.393867">
  <ele>-0.126</ele>
  <time>2026-09-02T22:06:49Z</time>
  <course>187.19</course>
  <speed>0.03605551275463989</speed>
  <fix>3d</fix>
</trkpt>
<trkpt lat="33.810313" lon="-118.393867">
  <ele>-0.12</ele>
  <time>2026-09-02T22:06:49Z</time>
  <course>0.0</course>
  <speed>0.0</speed>
  <fix>3d</fix>
</trkpt>
<trkpt lat="33.810313" lon="-118.393867">
  <ele>-0.124</ele>
  <time>2026-09-02T22:06:49Z</time>
  <course>187.18</course>
  <speed>0.03605551275463989</speed>
  <fix>3d</fix>
</trkpt>
<trkpt lat="33.810313" lon="-118.393867">
  <ele>-0.12</ele>
  <time>2026-09-02T22:06:49Z</time>
  <course>0.0</course>
  <speed>0.0</speed>
  <fix>3d</fix>
</trkpt>
<trkpt lat="33.810313" lon="-118.393867">
  <ele>-0.123</ele>
  <time>2026-09-02T22:06:49Z</time>
  <course>187.18</course>
  <speed>0.03605551275463989</speed>
  <fix>3d</fix>
</trkpt>
<trkpt lat="33.810313" lon="-118.393867">
  <ele>-0.12</ele>
  <time>2026-09-02T22:06:49Z</time>
  <course>0.0</course>
  <speed>0.0</speed>
  <fix>3d</fix>
</trkpt>
<trkpt lat="33.810313" lon="-118.393867">
  <ele>-0.123</ele>
  <time>2026-09-02T22:06:49Z</time>
  <course>187.17</course>
  <speed>0.03605551275463989</speed>
  <fix>3d</fix>
</trkpt>
<trkpt lat="33.810313" lon="-118.393867">
  <ele>-0.12</ele>
  <time>2026-09-02T22:06:49Z</time>
  <course>0.0</course>
  <speed>0.0</speed>
  <fix>3d</fix>
</trkpt>
<trkpt lat="33.810313" lon="-118.393867">
  <ele>-0.122</ele>
  <time>2026-09-02T22:06:49Z</time>
  <course>187.17</course>
  <speed>0.0</speed>
  <fix>3d</fix>
</trkpt>
<trkpt lat="33.810313" lon="-118.393867">
  <ele>-0.12</ele>
  <time>2026-09-02T22:06:49Z</time>
  <course>0.0</course>
  <speed>0.0</speed>
  <fix>3d</fix>
</trkpt>
<trkpt lat="33.810313" lon="-118.393867">
  <ele>-0.121</ele>
  <time>2026-09-02T22:06:49Z</time>
  <course>187.16</course>
  <speed>0.0</speed>
  <fix>3d</fix>
</trkpt>
<trkpt lat="33.810313" lon="-118.393867">
  <ele>-0.12</ele>
  <time>2026-09-02T22:06:49Z</time>
  <course>0.0</course>
  <speed>0.0</speed>
  <fix>3d</fix>
</trkpt>
<trkpt lat="33.810313" lon="-118.393867">
  <ele>-0.12</ele>
  <time>2026-09-02T22:06:49Z</time>
  <course>187.16</course>
  <speed>0.0</speed>
  <fix>3d</fix>
</trkpt>
<trkpt lat="33.810313" lon="-118.393867">
  <ele>-0.12</ele>
  <time>2026-09-02T22:06:49Z</time>
  <course>0.0</course>
  <speed>0.0</speed>
  <fix>3d</fix>
</trkpt>
<trkpt lat="33.810313" lon="-118.393867">
  <ele>-0.119</ele>
  <time>2026-09-02T22:06:49Z</time>
  <course>187.15</course>
  <speed>0.0</speed>
  <fix>3d</fix>
</trkpt>
<trkpt lat="33.810313" lon="-118.393867">
  <ele>-0.12</ele>
  <time>2026-09-02T22:06:49Z</time>
  <course>0.0</course>
  <speed>0.0</speed>
  <fix>3d</fix>
</trkpt>
<trkpt lat="33.810313" lon="-118.393867">
  <ele>-0.116</ele>
  <time>2026-09-02T22:06:49Z</time>
  <course>187.15</course>
  <speed>0.0</speed>
  <fix>3d</fix>
</trkpt>
<trkpt lat="33.810313" lon="-118.393867">
  <ele>-0.12</ele>
  <time>2026-09-02T22:06:49Z</time>
  <course>0.0</course>
  <speed>0.0</speed>
  <fix>3d</fix>
</trkpt>
<trkpt lat="33.810313" lon="-118.393867">
  <ele>-0.114</ele>
  <time>2026-09-02T22:06:49Z</time>
  <course>187.14</course>
  <speed>0.0</speed>
  <fix>3d</fix>
</trkpt>
<trkpt lat="33.810313" lon="-118.393867">
  <ele>-0.12</ele>
  <time>2026-09-02T22:06:49Z</time>
  <course>0.0</course>
  <speed>0.0</speed>
  <fix>3d</fix>
</trkpt>
<trkpt lat="33.810313" lon="-118.393867">
  <ele>-0.113</ele>
  <time>2026-09-02T22:06:49Z</time>
  <course>187.14</course>
  <speed>0.0</speed>
  <fix>3d</fix>
</trkpt>
<trkpt lat="33.810313" lon="-118.393867">
  <ele>-0.12</ele>
  <time>2026-09-02T22:06:49Z</time>
  <course>0.0</course>
  <speed>0.0</speed>
  <fix>3d</fix>
</trkpt>
<trkpt lat="33.810313" lon="-118.393867">
  <ele>-0.112</ele>
  <time>2026-09-02T22:06:49Z</time>
  <course>187.13</course>
  <speed>0.0</speed>
  <fix>3d</fix>
</trkpt>
<trkpt lat="33.810313" lon="-118.393867">
  <ele>-0.12</ele>
  <time>2026-09-02T22:06:49Z</time>
  <course>0.0</course>
  <speed>0.0</speed>
  <fix>3d</fix>
</trkpt>
<trkpt lat="33.810313" lon="-118.393867">
  <ele>-0.113</ele>
  <time>2026-09-02T22:06:49Z</time>
  <course>187.13</course>
  <speed>0.0</speed>
  <fix>3d</fix>
</trkpt>
<trkpt lat="33.810313" lon="-118.393867">
  <ele>-0.12</ele>
  <time>2026-09-02T22:06:49Z</time>
  <course>0.0</course>
  <speed>0.0</speed>
  <fix>3d</fix>
</trkpt>
<trkpt lat="33.810313" lon="-118.393867">
  <ele>-0.114</ele>
  <time>2026-09-02T22:06:49Z</time>
  <course>187.12</course>
  <speed>0.0</speed>
  <fix>3d</fix>
</trkpt>
<trkpt lat="33.810313" lon="-118.393867">
  <ele>-0.12</ele>
  <time>2026-09-02T22:06:49Z</time>
  <course>0.0</course>
  <speed>0.0</speed>
  <fix>3d</fix>
</trkpt>
<trkpt lat="33.810313" lon="-118.393867">
  <ele>-0.117</ele>
  <time>2026-09-02T22:06:49Z</time>
  <course>187.12</course>
  <speed>0.0</speed>
  <fix>3d</fix>
</trkpt>
<trkpt lat="33.810313" lon="-118.393867">
  <ele>-0.12</ele>
  <time>2026-09-02T22:06:49Z</time>
  <course>0.0</course>
  <speed>0.0</speed>
  <fix>3d</fix>
</trkpt>
<trkpt lat="33.810313" lon="-118.393867">
  <ele>-0.119</ele>
  <time>2026-09-02T22:06:49Z</time>
  <course>187.11</course>
  <speed>0.01</speed>
  <fix>3d</fix>
</trkpt>
<trkpt lat="33.810313" lon="-118.393867">
  <ele>-0.12</ele>
  <time>2026-09-02T22:06:49Z</time>
  <course>0.0</course>
  <speed>0.0</speed>
  <fix>3d</fix>
</trkpt>
<trkpt lat="33.810313" lon="-118.393867">
  <ele>-0.12</ele>
  <time>2026-09-02T22:06:49Z</time>
  <course>187.11</course>
  <speed>0.01</speed>
  <fix>3d</fix>
</trkpt>
<trkpt lat="33.810313" lon="-118.393867">
  <ele>-0.12</ele>
  <time>2026-09-02T22:06:49Z</time>
  <course>0.0</course>
  <speed>0.0</speed>
  <fix>3d</fix>
</trkpt>
<trkpt lat="33.4368002" lon="-117.0859339">
  <ele>-0.11</ele>
  <time>2026-09-02T22:06:54Z</time>
  <course>0.0</course>
  <speed>0.0</speed>
  <fix>3d</fix>
</trkpt>
<trkpt lat="33.4368002" lon="-117.0859339">
  <ele>-0.11</ele>
  <time>2026-09-02T22:06:54Z</time>
  <course>0.0</course>
  <speed>0.0</speed>
  <fix>3d</fix>
</trkpt>
<trkpt lat="33.810313" lon="-118.393867">
  <ele>0.0</ele>
  <time>2026-09-02T22:06:54Z</time>
  <course>173.5</course>
  <speed>0.0</speed>
  <fix>3d</fix>
</trkpt>
<trkpt lat="33.810313" lon="-118.393867">
  <ele>-0.11</ele>
  <time>2026-09-02T22:06:54Z</time>
  <course>0.0</course>
  <speed>0.0</speed>
  <fix>3d</fix>
</trkpt>
<trkpt lat="33.810313" lon="-118.393867">
  <ele>0.0</ele>
  <time>2026-09-02T22:06:54Z</time>
  <course>173.64</course>
  <speed>0.0</speed>
  <fix>3d</fix>
</trkpt>
<trkpt lat="33.810313" lon="-118.393867">
  <ele>-0.11</ele>
  <time>2026-09-02T22:06:54Z</time>
  <course>0.0</course>
  <speed>0.0</speed>
  <fix>3d</fix>
</trkpt>
<trkpt lat="33.810313" lon="-118.393867">
  <ele>0.0</ele>
  <time>2026-09-02T22:06:54Z</time>
  <course>174.05</course>
  <speed>0.0</speed>
  <fix>3d</fix>
</trkpt>
<trkpt lat="33.810313" lon="-118.393867">
  <ele>-0.11</ele>
  <time>2026-09-02T22:06:54Z</time>
  <course>0.0</course>
  <speed>0.0</speed>
  <fix>3d</fix>
</trkpt>
<trkpt lat="33.810313" lon="-118.393867">
  <ele>0.0</ele>
  <time>2026-09-02T22:06:54Z</time>
  <course>174.58</course>
  <speed>0.0</speed>
  <fix>3d</fix>
</trkpt>
<trkpt lat="33.810313" lon="-118.393867">
  <ele>-0.11</ele>
  <time>2026-09-02T22:06:54Z</time>
  <course>0.0</course>
  <speed>0.0</speed>
  <fix>3d</fix>
</trkpt>
<trkpt lat="33.810313" lon="-118.393867">
  <ele>0.0</ele>
  <time>2026-09-02T22:06:54Z</time>
  <course>175.14</course>
  <speed>0.0</speed>
  <fix>3d</fix>
</trkpt>
<trkpt lat="33.810313" lon="-118.393867">
  <ele>-0.12</ele>
  <time>2026-09-02T22:06:54Z</time>
  <course>0.0</course>
  <speed>0.0</speed>
  <fix>3d</fix>
</trkpt>
<trkpt lat="33.810313" lon="-118.393867">
  <ele>0.0</ele>
  <time>2026-09-02T22:06:54Z</time>
  <course>175.68</course>
  <speed>0.0</speed>
  <fix>3d</fix>
</trkpt>
<trkpt lat="33.810313" lon="-118.393867">
  <ele>-0.12</ele>
  <time>2026-09-02T22:06:54Z</time>
  <course>0.0</course>
  <speed>0.0</speed>
  <fix>3d</fix>
</trkpt>
<trkpt lat="33.810313" lon="-118.393867">
  <ele>0.0</ele>
  <time>2026-09-02T22:06:54Z</time>
  <course>176.18</course>
  <speed>0.0</speed>
  <fix>3d</fix>
</trkpt>
<trkpt lat="33.810313" lon="-118.393867">
  <ele>-0.13</ele>
  <time>2026-09-02T22:06:54Z</time>
  <course>0.0</course>
  <speed>0.0</speed>
  <fix>3d</fix>
</trkpt>
<trkpt lat="33.810313" lon="-118.393867">
  <ele>0.0</ele>
  <time>2026-09-02T22:06:54Z</time>
  <course>176.66</course>
  <speed>0.0</speed>
  <fix>3d</fix>
</trkpt>
<trkpt lat="33.810313" lon="-118.393867">
  <ele>-0.13</ele>
  <time>2026-09-02T22:06:54Z</time>
  <course>0.0</course>
  <speed>0.0</speed>
  <fix>3d</fix>
</trkpt>
<trkpt lat="33.810313" lon="-118.393867">
  <ele>0.0</ele>
  <time>2026-09-02T22:06:54Z</time>
  <course>177.12</course>
  <speed>0.0</speed>
  <fix>3d</fix>
</trkpt>
<trkpt lat="33.810313" lon="-118.393867">
  <ele>-0.13</ele>
  <time>2026-09-02T22:06:54Z</time>
  <course>0.0</course>
  <speed>0.0</speed>
  <fix>3d</fix>
</trkpt>
<trkpt lat="33.810313" lon="-118.393867">
  <ele>0.0</ele>
  <time>2026-09-02T22:06:54Z</time>
  <course>177.57</course>
  <speed>0.0</speed>
  <fix>3d</fix>
</trkpt>
<trkpt lat="33.810313" lon="-118.393867">
  <ele>-0.13</ele>
  <time>2026-09-02T22:06:54Z</time>
  <course>0.0</course>
  <speed>0.0</speed>
  <fix>3d</fix>
</trkpt>
<trkpt lat="33.810313" lon="-118.393867">
  <ele>0.0</ele>
  <time>2026-09-02T22:06:54Z</time>
  <course>178.02</course>
  <speed>0.0</speed>
  <fix>3d</fix>
</trkpt>
<trkpt lat="33.810313" lon="-118.393867">
  <ele>-0.14</ele>
  <time>2026-09-02T22:06:54Z</time>
  <course>0.0</course>
  <speed>0.0</speed>
  <fix>3d</fix>
</trkpt>
<trkpt lat="33.810313" lon="-118.393867">
  <ele>0.0</ele>
  <time>2026-09-02T22:06:54Z</time>
  <course>178.46</course>
  <speed>0.0</speed>
  <fix>3d</fix>
</trkpt>
<trkpt lat="33.810313" lon="-118.393867">
  <ele>-0.14</ele>
  <time>2026-09-02T22:06:54Z</time>
  <course>0.0</course>
  <speed>0.0</speed>
  <fix>3d</fix>
</trkpt>
<trkpt lat="33.810313" lon="-118.393867">
  <ele>0.0</ele>
  <time>2026-09-02T22:06:54Z</time>
  <course>178.88</course>
  <speed>0.0</speed>
  <fix>3d</fix>
</trkpt>
<trkpt lat="33.810313" lon="-118.393867">
  <ele>-0.14</ele>
  <time>2026-09-02T22:06:54Z</time>
  <course>0.0</course>
  <speed>0.0</speed>
  <fix>3d</fix>
</trkpt>
<trkpt lat="33.810313" lon="-118.393867">
  <ele>0.0</ele>
  <time>2026-09-02T22:06:54Z</time>
  <course>179.28</course>
  <speed>0.0</speed>
  <fix>3d</fix>
</trkpt>
<trkpt lat="33.810313" lon="-118.393867">
  <ele>-0.14</ele>
  <time>2026-09-02T22:06:54Z</time>
  <course>0.0</course>
  <speed>0.0</speed>
  <fix>3d</fix>
</trkpt>
<trkpt lat="33.810313" lon="-118.393867">
  <ele>0.0</ele>
  <time>2026-09-02T22:06:54Z</time>
  <course>179.67</course>
  <speed>0.0</speed>
  <fix>3d</fix>
</trkpt>
<trkpt lat="33.810313" lon="-118.393867">
  <ele>-0.14</ele>
  <time>2026-09-02T22:06:54Z</time>
  <course>0.0</course>
  <speed>0.0</speed>
  <fix>3d</fix>
</trkpt>
<trkpt lat="33.810313" lon="-118.393867">
  <ele>0.0</ele>
  <time>2026-09-02T22:06:54Z</time>
  <course>180.06</course>
  <speed>0.0</speed>
  <fix>3d</fix>
</trkpt>
<trkpt lat="33.810313" lon="-118.393867">
  <ele>-0.14</ele>
  <time>2026-09-02T22:06:54Z</time>
  <course>0.0</course>
  <speed>0.0</speed>
  <fix>3d</fix>
</trkpt>
<trkpt lat="33.810313" lon="-118.393867">
  <ele>0.0</ele>
  <time>2026-09-02T22:06:54Z</time>
  <course>180.42</course>
  <speed>0.0</speed>
  <fix>3d</fix>
</trkpt>
<trkpt lat="33.810313" lon="-118.393867">
  <ele>-0.14</ele>
  <time>2026-09-02T22:06:54Z</time>
  <course>0.0</course>
  <speed>0.0</speed>
  <fix>3d</fix>
</trkpt>
<trkpt lat="33.810313" lon="-118.393867">
  <ele>0.0</ele>
  <time>2026-09-02T22:06:54Z</time>
  <course>180.77</course>
  <speed>0.0</speed>
  <fix>3d</fix>
</trkpt>
<trkpt lat="33.810313" lon="-118.393867">
  <ele>-0.14</ele>
  <time>2026-09-02T22:06:54Z</time>
  <course>0.0</course>
  <speed>0.0</speed>
  <fix>3d</fix>
</trkpt>
<trkpt lat="33.810313" lon="-118.393867">
  <ele>0.0</ele>
  <time>2026-09-02T22:06:54Z</time>
  <course>181.11</course>
  <speed>0.0</speed>
  <fix>3d</fix>
</trkpt>
<trkpt lat="33.810313" lon="-118.393867">
  <ele>-0.13</ele>
  <time>2026-09-02T22:06:54Z</time>
  <course>0.0</course>
  <speed>0.0</speed>
  <fix>3d</fix>
</trkpt>
<trkpt lat="33.810313" lon="-118.393867">
  <ele>0.0</ele>
  <time>2026-09-02T22:06:54Z</time>
  <course>181.44</course>
  <speed>0.0</speed>
  <fix>3d</fix>
</trkpt>
<trkpt lat="33.810313" lon="-118.393867">
  <ele>-0.13</ele>
  <time>2026-09-02T22:06:54Z</time>
  <course>0.0</course>
  <speed>0.0</speed>
  <fix>3d</fix>
</trkpt>
<trkpt lat="33.810313" lon="-118.393867">
  <ele>0.0</ele>
  <time>2026-09-02T22:06:54Z</time>
  <course>181.76</course>
  <speed>0.0</speed>
  <fix>3d</fix>
</trkpt>
<trkpt lat="33.810313" lon="-118.393867">
  <ele>-0.12</ele>
  <time>2026-09-02T22:06:54Z</time>
  <course>0.0</course>
  <speed>0.0</speed>
  <fix>3d</fix>
</trkpt>
<trkpt lat="33.810313" lon="-118.393867">
  <ele>0.0</ele>
  <time>2026-09-02T22:06:54Z</time>
  <course>182.06</course>
  <speed>0.0</speed>
  <fix>3d</fix>
</trkpt>
<trkpt lat="33.810313" lon="-118.393867">
  <ele>-0.12</ele>
  <time>2026-09-02T22:06:54Z</time>
  <course>0.0</course>
  <speed>0.0</speed>
  <fix>3d</fix>
</trkpt>
<trkpt lat="33.810313" lon="-118.393867">
  <ele>0.0</ele>
  <time>2026-09-02T22:06:54Z</time>
  <course>182.35</course>
  <speed>0.0</speed>
  <fix>3d</fix>
</trkpt>
<trkpt lat="33.810313" lon="-118.393867">
  <ele>-0.12</ele>
  <time>2026-09-02T22:06:54Z</time>
  <course>0.0</course>
  <speed>0.0</speed>
  <fix>3d</fix>
</trkpt>
<trkpt lat="33.810313" lon="-118.393867">
  <ele>0.0</ele>
  <time>2026-09-02T22:06:54Z</time>
  <course>182.64</course>
  <speed>0.0</speed>
  <fix>3d</fix>
</trkpt>
<trkpt lat="33.810313" lon="-118.393867">
  <ele>-0.12</ele>
  <time>2026-09-02T22:06:54Z</time>
  <course>0.0</course>
  <speed>0.0</speed>
  <fix>3d</fix>
</trkpt>
<trkpt lat="33.810313" lon="-118.393867">
  <ele>0.0</ele>
  <time>2026-09-02T22:06:54Z</time>
  <course>182.91</course>
  <speed>0.0</speed>
  <fix>3d</fix>
</trkpt>
<trkpt lat="33.810313" lon="-118.393867">
  <ele>-0.11</ele>
  <time>2026-09-02T22:06:54Z</time>
  <course>0.0</course>
  <speed>0.0</speed>
  <fix>3d</fix>
</trkpt>
<trkpt lat="33.810313" lon="-118.393867">
  <ele>0.0</ele>
  <time>2026-09-02T22:06:54Z</time>
  <course>183.17</course>
  <speed>0.0</speed>
  <fix>3d</fix>
</trkpt>
<trkpt lat="33.810313" lon="-118.393867">
  <ele>-0.11</ele>
  <time>2026-09-02T22:06:54Z</time>
  <course>0.0</course>
  <speed>0.0</speed>
  <fix>3d</fix>
</trkpt>
<trkpt lat="33.810313" lon="-118.393867">
  <ele>0.0</ele>
  <time>2026-09-02T22:06:54Z</time>
  <course>183.42</course>
  <speed>0.0</speed>
  <fix>3d</fix>
</trkpt>
<trkpt lat="33.810313" lon="-118.393867">
  <ele>-0.11</ele>
  <time>2026-09-02T22:06:54Z</time>
  <course>0.0</course>
  <speed>0.0</speed>
  <fix>3d</fix>
</trkpt>
<trkpt lat="33.810313" lon="-118.393867">
  <ele>0.0</ele>
  <time>2026-09-02T22:06:54Z</time>
  <course>183.66</course>
  <speed>0.0</speed>
  <fix>3d</fix>
</trkpt>
<trkpt lat="33.810313" lon="-118.393867">
  <ele>-0.11</ele>
  <time>2026-09-02T22:06:54Z</time>
  <course>0.0</course>
  <speed>0.0</speed>
  <fix>3d</fix>
</trkpt>
<trkpt lat="33.810313" lon="-118.393867">
  <ele>0.0</ele>
  <time>2026-09-02T22:06:54Z</time>
  <course>183.89</course>
  <speed>0.0</speed>
  <fix>3d</fix>
</trkpt>
<trkpt lat="33.810313" lon="-118.393867">
  <ele>-0.12</ele>
  <time>2026-09-02T22:06:54Z</time>
  <course>0.0</course>
  <speed>0.0</speed>
  <fix>3d</fix>
</trkpt>
<trkpt lat="33.810313" lon="-118.393867">
  <ele>0.0</ele>
  <time>2026-09-02T22:06:54Z</time>
  <course>184.11</course>
  <speed>0.0</speed>
  <fix>3d</fix>
</trkpt>
<trkpt lat="33.810313" lon="-118.393867">
  <ele>-0.12</ele>
  <time>2026-09-02T22:06:54Z</time>
  <course>0.0</course>
  <speed>0.0</speed>
  <fix>3d</fix>
</trkpt>
<trkpt lat="33.810313" lon="-118.393867">
  <ele>0.0</ele>
  <time>2026-09-02T22:06:54Z</time>
  <course>184.32</course>
  <speed>0.0</speed>
  <fix>3d</fix>
</trkpt>
<trkpt lat="33.810313" lon="-118.393867">
  <ele>-0.13</ele>
  <time>2026-09-02T22:06:54Z</time>
  <course>0.0</course>
  <speed>0.0</speed>
  <fix>3d</fix>
</trkpt>
<trkpt lat="33.810313" lon="-118.393867">
  <ele>0.0</ele>
  <time>2026-09-02T22:06:54Z</time>
  <course>184.52</course>
  <speed>0.0</speed>
  <fix>3d</fix>
</trkpt>
<trkpt lat="33.810313" lon="-118.393867">
  <ele>-0.13</ele>
  <time>2026-09-02T22:06:54Z</time>
  <course>0.0</course>
  <speed>0.0</speed>
  <fix>3d</fix>
</trkpt>
<trkpt lat="33.810313" lon="-118.393867">
  <ele>0.0</ele>
  <time>2026-09-02T22:06:54Z</time>
  <course>184.72</course>
  <speed>0.0</speed>
  <fix>3d</fix>
</trkpt>
<trkpt lat="33.810313" lon="-118.393867">
  <ele>-0.13</ele>
  <time>2026-09-02T22:06:54Z</time>
  <course>0.0</course>
  <speed>0.0</speed>
  <fix>3d</fix>
</trkpt>
<trkpt lat="33.810313" lon="-118.393867">
  <ele>0.0</ele>
  <time>2026-09-02T22:06:54Z</time>
  <course>184.91</course>
  <speed>0.0</speed>
  <fix>3d</fix>
</trkpt>
<trkpt lat="33.810313" lon="-118.393867">
  <ele>-0.13</ele>
  <time>2026-09-02T22:06:54Z</time>
  <course>0.0</course>
  <speed>0.0</speed>
  <fix>3d</fix>
</trkpt>
<trkpt lat="33.810313" lon="-118.393867">
  <ele>0.0</ele>
  <time>2026-09-02T22:06:54Z</time>
  <course>185.09</course>
  <speed>0.0</speed>
  <fix>3d</fix>
</trkpt>
<trkpt lat="33.810313" lon="-118.393867">
  <ele>-0.14</ele>
  <time>2026-09-02T22:06:54Z</time>
  <course>0.0</course>
  <speed>0.0</speed>
  <fix>3d</fix>
</trkpt>
<trkpt lat="33.810313" lon="-118.393867">
  <ele>0.0</ele>
  <time>2026-09-02T22:06:54Z</time>
  <course>185.26</course>
  <speed>0.0</speed>
  <fix>3d</fix>
</trkpt>
<trkpt lat="33.810313" lon="-118.393867">
  <ele>-0.14</ele>
  <time>2026-09-02T22:06:54Z</time>
  <course>0.0</course>
  <speed>0.0</speed>
  <fix>3d</fix>
</trkpt>
<trkpt lat="33.810313" lon="-118.393867">
  <ele>0.0</ele>
  <time>2026-09-02T22:06:54Z</time>
  <course>185.43</course>
  <speed>0.0</speed>
  <fix>3d</fix>
</trkpt>
<trkpt lat="33.810313" lon="-118.393867">
  <ele>-0.13</ele>
  <time>2026-09-02T22:06:54Z</time>
  <course>0.0</course>
  <speed>0.0</speed>
  <fix>3d</fix>
</trkpt>
<trkpt lat="33.810313" lon="-118.393867">
  <ele>0.0</ele>
  <time>2026-09-02T22:06:54Z</time>
  <course>185.58</course>
  <speed>0.0</speed>
  <fix>3d</fix>
</trkpt>
<trkpt lat="33.810313" lon="-118.393867">
  <ele>-0.13</ele>
  <time>2026-09-02T22:06:54Z</time>
  <course>0.0</course>
  <speed>0.0</speed>
  <fix>3d</fix>
</trkpt>
<trkpt lat="33.810313" lon="-118.393867">
  <ele>0.0</ele>
  <time>2026-09-02T22:06:54Z</time>
  <course>185.73</course>
  <speed>0.0</speed>
  <fix>3d</fix>
</trkpt>
<trkpt lat="33.810313" lon="-118.393867">
  <ele>-0.13</ele>
  <time>2026-09-02T22:06:54Z</time>
  <course>0.0</course>
  <speed>0.0</speed>
  <fix>3d</fix>
</trkpt>
<trkpt lat="33.810313" lon="-118.393867">
  <ele>0.0</ele>
  <time>2026-09-02T22:06:54Z</time>
  <course>185.88</course>
  <speed>0.0</speed>
  <fix>3d</fix>
</trkpt>
<trkpt lat="33.810313" lon="-118.393867">
  <ele>-0.13</ele>
  <time>2026-09-02T22:06:54Z</time>
  <course>0.0</course>
  <speed>0.0</speed>
  <fix>3d</fix>
</trkpt>
<trkpt lat="33.810313" lon="-118.393867">
  <ele>0.0</ele>
  <time>2026-09-02T22:06:54Z</time>
  <course>186.01</course>
  <speed>0.0</speed>
  <fix>3d</fix>
</trkpt>
<trkpt lat="33.810313" lon="-118.393867">
  <ele>-0.12</ele>
  <time>2026-09-02T22:06:54Z</time>
  <course>0.0</course>
  <speed>0.0</speed>
  <fix>3d</fix>
</trkpt>
<trkpt lat="33.810313" lon="-118.393867">
  <ele>0.0</ele>
  <time>2026-09-02T22:06:54Z</time>
  <course>186.15</course>
  <speed>0.0</speed>
  <fix>3d</fix>
</trkpt>
<trkpt lat="33.810313" lon="-118.393867">
  <ele>-0.12</ele>
  <time>2026-09-02T22:06:54Z</time>
  <course>0.0</course>
  <speed>0.0</speed>
  <fix>3d</fix>
</trkpt>
<trkpt lat="33.810313" lon="-118.393867">
  <ele>0.0</ele>
  <time>2026-09-02T22:06:54Z</time>
  <course>186.27</course>
  <speed>0.0</speed>
  <fix>3d</fix>
</trkpt>
<trkpt lat="33.810313" lon="-118.393867">
  <ele>-0.12</ele>
  <time>2026-09-02T22:06:54Z</time>
  <course>0.0</course>
  <speed>0.0</speed>
  <fix>3d</fix>
</trkpt>
<trkpt lat="33.810313" lon="-118.393867">
  <ele>0.0</ele>
  <time>2026-09-02T22:06:54Z</time>
  <course>186.39</course>
  <speed>0.0</speed>
  <fix>3d</fix>
</trkpt>
<trkpt lat="33.810313" lon="-118.393867">
  <ele>-0.12</ele>
  <time>2026-09-02T22:06:54Z</time>
  <course>0.0</course>
  <speed>0.0</speed>
  <fix>3d</fix>
</trkpt>
<trkpt lat="33.810313" lon="-118.393867">
  <ele>0.0</ele>
  <time>2026-09-02T22:06:54Z</time>
  <course>186.51</course>
  <speed>0.0</speed>
  <fix>3d</fix>
</trkpt>
<trkpt lat="33.810313" lon="-118.393867">
  <ele>-0.12</ele>
  <time>2026-09-02T22:06:54Z</time>
  <course>0.0</course>
  <speed>0.0</speed>
  <fix>3d</fix>
</trkpt>
<trkpt lat="33.810313" lon="-118.393867">
  <ele>0.0</ele>
  <time>2026-09-02T22:06:54Z</time>
  <course>186.62</course>
  <speed>0.0</speed>
  <fix>3d</fix>
</trkpt>
<trkpt lat="33.810313" lon="-118.393867">
  <ele>-0.12</ele>
  <time>2026-09-02T22:06:54Z</time>
  <course>0.0</course>
  <speed>0.0</speed>
  <fix>3d</fix>
</trkpt>
<trkpt lat="33.810313" lon="-118.393867">
  <ele>0.0</ele>
  <time>2026-09-02T22:06:54Z</time>
  <course>186.72</course>
  <speed>0.0</speed>
  <fix>3d</fix>
</trkpt>
<trkpt lat="33.810313" lon="-118.393867">
  <ele>-0.12</ele>
  <time>2026-09-02T22:06:54Z</time>
  <course>0.0</course>
  <speed>0.0</speed>
  <fix>3d</fix>
</trkpt>
<trkpt lat="33.810313" lon="-118.393867">
  <ele>0.0</ele>
  <time>2026-09-02T22:06:54Z</time>
  <course>186.82</course>
  <speed>0.0</speed>
  <fix>3d</fix>
</trkpt>
<trkpt lat="33.810313" lon="-118.393867">
  <ele>-0.12</ele>
  <time>2026-09-02T22:06:54Z</time>
  <course>0.0</course>
  <speed>0.0</speed>
  <fix>3d</fix>
</trkpt>
<trkpt lat="33.810313" lon="-118.393867">
  <ele>0.0</ele>
  <time>2026-09-02T22:06:54Z</time>
  <course>186.92</course>
  <speed>0.0</speed>
  <fix>3d</fix>
</trkpt>
<trkpt lat="33.810313" lon="-118.393867">
  <ele>-0.12</ele>
  <time>2026-09-02T22:06:54Z</time>
  <course>0.0</course>
  <speed>0.0</speed>
  <fix>3d</fix>
</trkpt>
<trkpt lat="33.810313" lon="-118.393867">
  <ele>0.0</ele>
  <time>2026-09-02T22:06:54Z</time>
  <course>187.01</course>
  <speed>0.0</speed>
  <fix>3d</fix>
</trkpt>
<trkpt lat="33.810313" lon="-118.393867">
  <ele>-0.12</ele>
  <time>2026-09-02T22:06:54Z</time>
  <course>0.0</course>
  <speed>0.0</speed>
  <fix>3d</fix>
</trkpt>
<trkpt lat="33.4368002" lon="-117.0859339">
  <ele>-0.11</ele>
  <time>2026-09-02T22:06:58Z</time>
  <course>0.0</course>
  <speed>0.0</speed>
  <fix>3d</fix>
</trkpt>
<trkpt lat="33.4368002" lon="-117.0859339">
  <ele>-0.11</ele>
  <time>2026-09-02T22:06:58Z</time>
  <course>0.0</course>
  <speed>0.0</speed>
  <fix>3d</fix>
</trkpt>
<trkpt lat="33.810313" lon="-118.393867">
  <ele>-0.11</ele>
  <time>2026-09-02T22:06:58Z</time>
  <course>0.0</course>
  <speed>0.0</speed>
  <fix>3d</fix>
</trkpt>
<trkpt lat="33.810313" lon="-118.393867">
  <ele>-0.11</ele>
  <time>2026-09-02T22:06:58Z</time>
  <course>0.0</course>
  <speed>0.0</speed>
  <fix>3d</fix>
</trkpt>
<trkpt lat="33.810313" lon="-118.393867">
  <ele>-0.11</ele>
  <time>2026-09-02T22:06:58Z</time>
  <course>0.0</course>
  <speed>0.0</speed>
  <fix>3d</fix>
</trkpt>
<trkpt lat="33.810313" lon="-118.393867">
  <ele>-0.11</ele>
  <time>2026-09-02T22:06:58Z</time>
  <course>0.0</course>
  <speed>0.0</speed>
  <fix>3d</fix>
</trkpt>
<trkpt lat="33.810313" lon="-118.393867">
  <ele>-0.12</ele>
  <time>2026-09-02T22:06:58Z</time>
  <course>0.0</course>
  <speed>0.0</speed>
  <fix>3d</fix>
</trkpt>
<trkpt lat="33.810313" lon="-118.393867">
  <ele>-0.12</ele>
  <time>2026-09-02T22:06:58Z</time>
  <course>0.0</course>
  <speed>0.0</speed>
  <fix>3d</fix>
</trkpt>
<trkpt lat="33.810313" lon="-118.393867">
  <ele>-0.13</ele>
  <time>2026-09-02T22:06:58Z</time>
  <course>0.0</course>
  <speed>0.0</speed>
  <fix>3d</fix>
</trkpt>
<trkpt lat="33.810313" lon="-118.393867">
  <ele>-0.13</ele>
  <time>2026-09-02T22:06:58Z</time>
  <course>0.0</course>
  <speed>0.0</speed>
  <fix>3d</fix>
</trkpt>
<trkpt lat="33.810313" lon="-118.393867">
  <ele>-0.13</ele>
  <time>2026-09-02T22:06:58Z</time>
  <course>0.0</course>
  <speed>0.0</speed>
  <fix>3d</fix>
</trkpt>
<trkpt lat="33.810313" lon="-118.393867">
  <ele>-0.13</ele>
  <time>2026-09-02T22:06:58Z</time>
  <course>0.0</course>
  <speed>0.0</speed>
  <fix>3d</fix>
</trkpt>
<trkpt lat="33.810313" lon="-118.393867">
  <ele>-0.14</ele>
  <time>2026-09-02T22:06:58Z</time>
  <course>0.0</course>
  <speed>0.0</speed>
  <fix>3d</fix>
</trkpt>
<trkpt lat="33.810313" lon="-118.393867">
  <ele>-0.14</ele>
  <time>2026-09-02T22:06:58Z</time>
  <course>0.0</course>
  <speed>0.0</speed>
  <fix>3d</fix>
</trkpt>
<trkpt lat="33.810313" lon="-118.393867">
  <ele>-0.14</ele>
  <time>2026-09-02T22:06:58Z</time>
  <course>0.0</course>
  <speed>0.0</speed>
  <fix>3d</fix>
</trkpt>
<trkpt lat="33.810313" lon="-118.393867">
  <ele>-0.14</ele>
  <time>2026-09-02T22:06:58Z</time>
  <course>0.0</course>
  <speed>0.0</speed>
  <fix>3d</fix>
</trkpt>
<trkpt lat="33.810313" lon="-118.393867">
  <ele>-0.14</ele>
  <time>2026-09-02T22:06:58Z</time>
  <course>0.0</course>
  <speed>0.0</speed>
  <fix>3d</fix>
</trkpt>
<trkpt lat="33.810313" lon="-118.393867">
  <ele>-0.14</ele>
  <time>2026-09-02T22:06:58Z</time>
  <course>0.0</course>
  <speed>0.0</speed>
  <fix>3d</fix>
</trkpt>
<trkpt lat="33.810313" lon="-118.393867">
  <ele>-0.14</ele>
  <time>2026-09-02T22:06:58Z</time>
  <course>0.0</course>
  <speed>0.0</speed>
  <fix>3d</fix>
</trkpt>
<trkpt lat="33.810313" lon="-118.393867">
  <ele>-0.14</ele>
  <time>2026-09-02T22:06:58Z</time>
  <course>0.0</course>
  <speed>0.0</speed>
  <fix>3d</fix>
</trkpt>
<trkpt lat="33.810313" lon="-118.393867">
  <ele>-0.13</ele>
  <time>2026-09-02T22:06:58Z</time>
  <course>0.0</course>
  <speed>0.0</speed>
  <fix>3d</fix>
</trkpt>
<trkpt lat="33.810313" lon="-118.393867">
  <ele>-0.13</ele>
  <time>2026-09-02T22:06:58Z</time>
  <course>0.0</course>
  <speed>0.0</speed>
  <fix>3d</fix>
</trkpt>
<trkpt lat="33.810313" lon="-118.393867">
  <ele>-0.12</ele>
  <time>2026-09-02T22:06:58Z</time>
  <course>0.0</course>
  <speed>0.0</speed>
  <fix>3d</fix>
</trkpt>
<trkpt lat="33.810313" lon="-118.393867">
  <ele>-0.12</ele>
  <time>2026-09-02T22:06:58Z</time>
  <course>0.0</course>
  <speed>0.0</speed>
  <fix>3d</fix>
</trkpt>
<trkpt lat="33.810313" lon="-118.393867">
  <ele>-0.12</ele>
  <time>2026-09-02T22:06:58Z</time>
  <course>0.0</course>
  <speed>0.0</speed>
  <fix>3d</fix>
</trkpt>
<trkpt lat="33.810313" lon="-118.393867">
  <ele>-0.12</ele>
  <time>2026-09-02T22:06:58Z</time>
  <course>0.0</course>
  <speed>0.0</speed>
  <fix>3d</fix>
</trkpt>
<trkpt lat="33.810313" lon="-118.393867">
  <ele>-0.11</ele>
  <time>2026-09-02T22:06:58Z</time>
  <course>0.0</course>
  <speed>0.0</speed>
  <fix>3d</fix>
</trkpt>
<trkpt lat="33.810313" lon="-118.393867">
  <ele>-0.11</ele>
  <time>2026-09-02T22:06:58Z</time>
  <course>0.0</course>
  <speed>0.0</speed>
  <fix>3d</fix>
</trkpt>
<trkpt lat="33.810313" lon="-118.393867">
  <ele>-0.11</ele>
  <time>2026-09-02T22:06:58Z</time>
  <course>0.0</course>
  <speed>0.0</speed>
  <fix>3d</fix>
</trkpt>
<trkpt lat="33.810313" lon="-118.393867">
  <ele>-0.11</ele>
  <time>2026-09-02T22:06:58Z</time>
  <course>0.0</course>
  <speed>0.0</speed>
  <fix>3d</fix>
</trkpt>
<trkpt lat="33.810313" lon="-118.393867">
  <ele>-0.12</ele>
  <time>2026-09-02T22:06:58Z</time>
  <course>0.0</course>
  <speed>0.0</speed>
  <fix>3d</fix>
</trkpt>
<trkpt lat="33.810313" lon="-118.393867">
  <ele>-0.12</ele>
  <time>2026-09-02T22:06:58Z</time>
  <course>0.0</course>
  <speed>0.0</speed>
  <fix>3d</fix>
</trkpt>
<trkpt lat="33.810313" lon="-118.393867">
  <ele>-0.13</ele>
  <time>2026-09-02T22:06:58Z</time>
  <course>0.0</course>
  <speed>0.0</speed>
  <fix>3d</fix>
</trkpt>
<trkpt lat="33.810313" lon="-118.393867">
  <ele>-0.13</ele>
  <time>2026-09-02T22:06:58Z</time>
  <course>0.0</course>
  <speed>0.0</speed>
  <fix>3d</fix>
</trkpt>
<trkpt lat="33.810313" lon="-118.393867">
  <ele>-0.13</ele>
  <time>2026-09-02T22:06:58Z</time>
  <course>0.0</course>
  <speed>0.0</speed>
  <fix>3d</fix>
</trkpt>
<trkpt lat="33.810313" lon="-118.393867">
  <ele>-0.13</ele>
  <time>2026-09-02T22:06:58Z</time>
  <course>0.0</course>
  <speed>0.0</speed>
  <fix>3d</fix>
</trkpt>
<trkpt lat="33.810313" lon="-118.393867">
  <ele>-0.14</ele>
  <time>2026-09-02T22:06:58Z</time>
  <course>0.0</course>
  <speed>0.0</speed>
  <fix>3d</fix>
</trkpt>
<trkpt lat="33.810313" lon="-118.393867">
  <ele>-0.14</ele>
  <time>2026-09-02T22:06:58Z</time>
  <course>0.0</course>
  <speed>0.0</speed>
  <fix>3d</fix>
</trkpt>
<trkpt lat="33.810313" lon="-118.393867">
  <ele>-0.13</ele>
  <time>2026-09-02T22:06:58Z</time>
  <course>0.0</course>
  <speed>0.0</speed>
  <fix>3d</fix>
</trkpt>
<trkpt lat="33.810313" lon="-118.393867">
  <ele>-0.13</ele>
  <time>2026-09-02T22:06:58Z</time>
  <course>0.0</course>
  <speed>0.0</speed>
  <fix>3d</fix>
</trkpt>
<trkpt lat="33.810313" lon="-118.393867">
  <ele>-0.13</ele>
  <time>2026-09-02T22:06:58Z</time>
  <course>0.0</course>
  <speed>0.0</speed>
  <fix>3d</fix>
</trkpt>
<trkpt lat="33.810313" lon="-118.393867">
  <ele>-0.13</ele>
  <time>2026-09-02T22:06:58Z</time>
  <course>0.0</course>
  <speed>0.0</speed>
  <fix>3d</fix>
</trkpt>
<trkpt lat="33.810313" lon="-118.393867">
  <ele>-0.12</ele>
  <time>2026-09-02T22:06:58Z</time>
  <course>0.0</course>
  <speed>0.0</speed>
  <fix>3d</fix>
</trkpt>
<trkpt lat="33.810313" lon="-118.393867">
  <ele>-0.12</ele>
  <time>2026-09-02T22:06:58Z</time>
  <course>0.0</course>
  <speed>0.0</speed>
  <fix>3d</fix>
</trkpt>
<trkpt lat="33.810313" lon="-118.393867">
  <ele>-0.12</ele>
  <time>2026-09-02T22:06:58Z</time>
  <course>0.0</course>
  <speed>0.0</speed>
  <fix>3d</fix>
</trkpt>
<trkpt lat="33.810313" lon="-118.393867">
  <ele>-0.12</ele>
  <time>2026-09-02T22:06:58Z</time>
  <course>0.0</course>
  <speed>0.0</speed>
  <fix>3d</fix>
</trkpt>
<trkpt lat="33.810313" lon="-118.393867">
  <ele>-0.12</ele>
  <time>2026-09-02T22:06:58Z</time>
  <course>0.0</course>
  <speed>0.0</speed>
  <fix>3d</fix>
</trkpt>
<trkpt lat="33.810313" lon="-118.393867">
  <ele>-0.12</ele>
  <time>2026-09-02T22:06:58Z</time>
  <course>0.0</course>
  <speed>0.0</speed>
  <fix>3d</fix>
</trkpt>
<trkpt lat="33.810313" lon="-118.393867">
  <ele>-0.12</ele>
  <time>2026-09-02T22:06:58Z</time>
  <course>0.0</course>
  <speed>0.0</speed>
  <fix>3d</fix>
</trkpt>
<trkpt lat="33.810313" lon="-118.393867">
  <ele>-0.12</ele>
  <time>2026-09-02T22:06:58Z</time>
  <course>0.0</course>
  <speed>0.0</speed>
  <fix>3d</fix>
</trkpt>
<trkpt lat="33.810313" lon="-118.393867">
  <ele>-0.12</ele>
  <time>2026-09-02T22:06:58Z</time>
  <course>0.0</course>
  <speed>0.0</speed>
  <fix>3d</fix>
</trkpt>
<trkpt lat="33.810313" lon="-118.393867">
  <ele>-0.12</ele>
  <time>2026-09-02T22:06:58Z</time>
  <course>0.0</course>
  <speed>0.0</speed>
  <fix>3d</fix>
</trkpt>
<trkpt lat="33.810313" lon="-118.393867">
  <ele>-0.13</ele>
  <time>2026-09-02T22:06:58Z</time>
  <course>0.0</course>
  <speed>0.0</speed>
  <fix>3d</fix>
</trkpt>
<trkpt lat="33.810313" lon="-118.393867">
  <ele>-0.13</ele>
  <time>2026-09-02T22:06:58Z</time>
  <course>0.0</course>
  <speed>0.0</speed>
  <fix>3d</fix>
</trkpt>
<trkpt lat="33.810313" lon="-118.393867">
  <ele>-0.13</ele>
  <time>2026-09-02T22:06:58Z</time>
  <course>0.0</course>
  <speed>0.0</speed>
  <fix>3d</fix>
</trkpt>
<trkpt lat="33.810313" lon="-118.393867">
  <ele>-0.13</ele>
  <time>2026-09-02T22:06:58Z</time>
  <course>0.0</course>
  <speed>0.0</speed>
  <fix>3d</fix>
</trkpt>
<trkpt lat="33.810313" lon="-118.393867">
  <ele>-0.13</ele>
  <time>2026-09-02T22:06:58Z</time>
  <course>0.0</course>
  <speed>0.0</speed>
  <fix>3d</fix>
</trkpt>
<trkpt lat="33.810313" lon="-118.393867">
  <ele>-0.13</ele>
  <time>2026-09-02T22:06:58Z</time>
  <course>0.0</course>
  <speed>0.0</speed>
  <fix>3d</fix>
</trkpt>
<trkpt lat="33.810313" lon="-118.393867">
  <ele>-0.13</ele>
  <time>2026-09-02T22:06:58Z</time>
  <course>0.0</course>
  <speed>0.0</speed>
  <fix>3d</fix>
</trkpt>
<trkpt lat="33.810313" lon="-118.393867">
  <ele>-0.13</ele>
  <time>2026-09-02T22:06:58Z</time>
  <course>0.0</course>
  <speed>0.0</speed>
  <fix>3d</fix>
</trkpt>
<trkpt lat="33.810313" lon="-118.393867">
  <ele>-0.12</ele>
  <time>2026-09-02T22:06:58Z</time>
  <course>0.0</course>
  <speed>0.0</speed>
  <fix>3d</fix>
</trkpt>
<trkpt lat="33.810313" lon="-118.393867">
  <ele>-0.12</ele>
  <time>2026-09-02T22:06:58Z</time>
  <course>0.0</course>
  <speed>0.0</speed>
  <fix>3d</fix>
</trkpt>
<trkpt lat="33.810313" lon="-118.393867">
  <ele>-0.12</ele>
  <time>2026-09-02T22:06:58Z</time>
  <course>0.0</course>
  <speed>0.0</speed>
  <fix>3d</fix>
</trkpt>
<trkpt lat="33.810313" lon="-118.393867">
  <ele>-0.12</ele>
  <time>2026-09-02T22:06:58Z</time>
  <course>0.0</course>
  <speed>0.0</speed>
  <fix>3d</fix>
</trkpt>
<trkpt lat="33.810313" lon="-118.393867">
  <ele>-0.12</ele>
  <time>2026-09-02T22:06:58Z</time>
  <course>0.0</course>
  <speed>0.0</speed>
  <fix>3d</fix>
</trkpt>
<trkpt lat="33.810313" lon="-118.393867">
  <ele>-0.12</ele>
  <time>2026-09-02T22:06:58Z</time>
  <course>0.0</course>
  <speed>0.0</speed>
  <fix>3d</fix>
</trkpt>
<trkpt lat="33.810313" lon="-118.393867">
  <ele>-0.12</ele>
  <time>2026-09-02T22:06:58Z</time>
  <course>0.0</course>
  <speed>0.0</speed>
  <fix>3d</fix>
</trkpt>
<trkpt lat="33.810313" lon="-118.393867">
  <ele>-0.12</ele>
  <time>2026-09-02T22:06:58Z</time>
  <course>0.0</course>
  <speed>0.0</speed>
  <fix>3d</fix>
</trkpt>
<trkpt lat="33.810313" lon="-118.393867">
  <ele>-0.12</ele>
  <time>2026-09-02T22:06:58Z</time>
  <course>0.0</course>
  <speed>0.0</speed>
  <fix>3d</fix>
</trkpt>
<trkpt lat="33.810313" lon="-118.393867">
  <ele>-0.12</ele>
  <time>2026-09-02T22:06:58Z</time>
  <course>0.0</course>
  <speed>0.0</speed>
  <fix>3d</fix>
</trkpt>
<trkpt lat="33.810313" lon="-118.393867">
  <ele>-0.13</ele>
  <time>2026-09-02T22:06:58Z</time>
  <course>0.0</course>
  <speed>0.0</speed>
  <fix>3d</fix>
</trkpt>
<trkpt lat="33.810313" lon="-118.393867">
  <ele>-0.13</ele>
  <time>2026-09-02T22:06:58Z</time>
  <course>0.0</course>
  <speed>0.0</speed>
  <fix>3d</fix>
</trkpt>
<trkpt lat="33.810313" lon="-118.393867">
  <ele>-0.13</ele>
  <time>2026-09-02T22:06:58Z</time>
  <course>0.0</course>
  <speed>0.0</speed>
  <fix>3d</fix>
</trkpt>
<trkpt lat="33.810313" lon="-118.393867">
  <ele>-0.13</ele>
  <time>2026-09-02T22:06:58Z</time>
  <course>0.0</course>
  <speed>0.0</speed>
  <fix>3d</fix>
</trkpt>
<trkpt lat="33.810313" lon="-118.393867">
  <ele>0.0</ele>
  <time>2026-09-02T22:06:58Z</time>
  <course>173.5</course>
  <speed>0.0</speed>
  <fix>3d</fix>
</trkpt>
<trkpt lat="33.810313" lon="-118.393867">
  <ele>-0.13</ele>
  <time>2026-09-02T22:06:58Z</time>
  <course>0.0</course>
  <speed>0.0</speed>
  <fix>3d</fix>
</trkpt>
<trkpt lat="33.810313" lon="-118.393867">
  <ele>0.0</ele>
  <time>2026-09-02T22:06:58Z</time>
  <course>173.59</course>
  <speed>0.0</speed>
  <fix>3d</fix>
</trkpt>
<trkpt lat="33.810313" lon="-118.393867">
  <ele>-0.13</ele>
  <time>2026-09-02T22:06:58Z</time>
  <course>0.0</course>
  <speed>0.0</speed>
  <fix>3d</fix>
</trkpt>
<trkpt lat="33.810313" lon="-118.393867">
  <ele>0.0</ele>
  <time>2026-09-02T22:06:58Z</time>
  <course>173.86</course>
  <speed>0.0</speed>
  <fix>3d</fix>
</trkpt>
<trkpt lat="33.810313" lon="-118.393867">
  <ele>-0.12</ele>
  <time>2026-09-02T22:06:58Z</time>
  <course>0.0</course>
  <speed>0.0</speed>
  <fix>3d</fix>
</trkpt>
<trkpt lat="33.810313" lon="-118.393867">
  <ele>0.0</ele>
  <time>2026-09-02T22:06:58Z</time>
  <course>174.23</course>
  <speed>0.0</speed>
  <fix>3d</fix>
</trkpt>
<trkpt lat="33.810313" lon="-118.393867">
  <ele>-0.12</ele>
  <time>2026-09-02T22:06:58Z</time>
  <course>0.0</course>
  <speed>0.0</speed>
  <fix>3d</fix>
</trkpt>
<trkpt lat="33.810313" lon="-118.393867">
  <ele>0.0</ele>
  <time>2026-09-02T22:06:58Z</time>
  <course>174.61</course>
  <speed>0.0</speed>
  <fix>3d</fix>
</trkpt>
<trkpt lat="33.810313" lon="-118.393867">
  <ele>-0.12</ele>
  <time>2026-09-02T22:06:58Z</time>
  <course>0.0</course>
  <speed>0.0</speed>
  <fix>3d</fix>
</trkpt>
<trkpt lat="33.810313" lon="-118.393867">
  <ele>0.0</ele>
  <time>2026-09-02T22:06:58Z</time>
  <course>174.98</course>
  <speed>0.0</speed>
  <fix>3d</fix>
</trkpt>
<trkpt lat="33.810313" lon="-118.393867">
  <ele>-0.12</ele>
  <time>2026-09-02T22:06:58Z</time>
  <course>0.0</course>
  <speed>0.0</speed>
  <fix>3d</fix>
</trkpt>
<trkpt lat="33.810313" lon="-118.393867">
  <ele>0.0</ele>
  <time>2026-09-02T22:06:58Z</time>
  <course>175.33</course>
  <speed>0.0</speed>
  <fix>3d</fix>
</trkpt>
<trkpt lat="33.810313" lon="-118.393867">
  <ele>-0.12</ele>
  <time>2026-09-02T22:06:58Z</time>
  <course>0.0</course>
  <speed>0.0</speed>
  <fix>3d</fix>
</trkpt>
<trkpt lat="33.810313" lon="-118.393867">
  <ele>0.0</ele>
  <time>2026-09-02T22:06:58Z</time>
  <course>175.66</course>
  <speed>0.0</speed>
  <fix>3d</fix>
</trkpt>
<trkpt lat="33.810313" lon="-118.393867">
  <ele>-0.12</ele>
  <time>2026-09-02T22:06:58Z</time>
  <course>0.0</course>
  <speed>0.0</speed>
  <fix>3d</fix>
</trkpt>
<trkpt lat="33.4368002" lon="-117.0859339">
  <ele>-0.11</ele>
  <time>2026-09-02T22:06:59Z</time>
  <course>0.0</course>
  <speed>0.0</speed>
  <fix>3d</fix>
</trkpt>
<trkpt lat="33.4368002" lon="-117.0859339">
  <ele>-0.11</ele>
  <time>2026-09-02T22:06:59Z</time>
  <course>0.0</course>
  <speed>0.0</speed>
  <fix>3d</fix>
</trkpt>
<trkpt lat="33.810313" lon="-118.393867">
  <ele>0.0</ele>
  <time>2026-09-02T22:06:59Z</time>
  <course>173.5</course>
  <speed>0.0</speed>
  <fix>3d</fix>
</trkpt>
<trkpt lat="33.810313" lon="-118.393867">
  <ele>-0.11</ele>
  <time>2026-09-02T22:06:59Z</time>
  <course>0.0</course>
  <speed>0.0</speed>
  <fix>3d</fix>
</trkpt>
<trkpt lat="33.4368002" lon="-117.0859339">
  <ele>-0.11</ele>
  <time>2026-09-02T22:07:05Z</time>
  <course>0.0</course>
  <speed>0.0</speed>
  <fix>3d</fix>
</trkpt>
<trkpt lat="33.4368002" lon="-117.0859339">
  <ele>-0.11</ele>
  <time>2026-09-02T22:07:05Z</time>
  <course>0.0</course>
  <speed>0.0</speed>
  <fix>3d</fix>
</trkpt>
<trkpt lat="33.810313" lon="-118.393867">
  <ele>0.0</ele>
  <time>2026-09-02T22:07:05Z</time>
  <course>173.5</course>
  <speed>0.0</speed>
  <fix>3d</fix>
</trkpt>
<trkpt lat="33.810313" lon="-118.393867">
  <ele>-0.11</ele>
  <time>2026-09-02T22:07:05Z</time>
  <course>0.0</course>
  <speed>0.0</speed>
  <fix>3d</fix>
</trkpt>
<trkpt lat="33.810313" lon="-118.393867">
  <ele>0.0</ele>
  <time>2026-09-02T22:07:05Z</time>
  <course>173.64</course>
  <speed>0.0</speed>
  <fix>3d</fix>
</trkpt>
<trkpt lat="33.810313" lon="-118.393867">
  <ele>-0.11</ele>
  <time>2026-09-02T22:07:05Z</time>
  <course>0.0</course>
  <speed>0.0</speed>
  <fix>3d</fix>
</trkpt>
<trkpt lat="33.810313" lon="-118.393867">
  <ele>0.0</ele>
  <time>2026-09-02T22:07:05Z</time>
  <course>174.03</course>
  <speed>0.0</speed>
  <fix>3d</fix>
</trkpt>
<trkpt lat="33.810313" lon="-118.393867">
  <ele>-0.11</ele>
  <time>2026-09-02T22:07:05Z</time>
  <course>0.0</course>
  <speed>0.0</speed>
  <fix>3d</fix>
</trkpt>
<trkpt lat="33.810313" lon="-118.393867">
  <ele>0.0</ele>
  <time>2026-09-02T22:07:05Z</time>
  <course>174.57</course>
  <speed>0.0</speed>
  <fix>3d</fix>
</trkpt>
<trkpt lat="33.810313" lon="-118.393867">
  <ele>-0.11</ele>
  <time>2026-09-02T22:07:05Z</time>
  <course>0.0</course>
  <speed>0.0</speed>
  <fix>3d</fix>
</trkpt>
<trkpt lat="33.810313" lon="-118.393867">
  <ele>0.0</ele>
  <time>2026-09-02T22:07:05Z</time>
  <course>175.13</course>
  <speed>0.0</speed>
  <fix>3d</fix>
</trkpt>
<trkpt lat="33.810313" lon="-118.393867">
  <ele>-0.12</ele>
  <time>2026-09-02T22:07:05Z</time>
  <course>0.0</course>
  <speed>0.0</speed>
  <fix>3d</fix>
</trkpt>
<trkpt lat="33.810313" lon="-118.393867">
  <ele>0.0</ele>
  <time>2026-09-02T22:07:05Z</time>
  <course>175.67</course>
  <speed>0.0</speed>
  <fix>3d</fix>
</trkpt>
<trkpt lat="33.810313" lon="-118.393867">
  <ele>-0.12</ele>
  <time>2026-09-02T22:07:05Z</time>
  <course>0.0</course>
  <speed>0.0</speed>
  <fix>3d</fix>
</trkpt>
<trkpt lat="33.810313" lon="-118.393867">
  <ele>0.0</ele>
  <time>2026-09-02T22:07:05Z</time>
  <course>176.17</course>
  <speed>0.0</speed>
  <fix>3d</fix>
</trkpt>
<trkpt lat="33.810313" lon="-118.393867">
  <ele>-0.13</ele>
  <time>2026-09-02T22:07:05Z</time>
  <course>0.0</course>
  <speed>0.0</speed>
  <fix>3d</fix>
</trkpt>
<trkpt lat="33.810313" lon="-118.393867">
  <ele>0.0</ele>
  <time>2026-09-02T22:07:05Z</time>
  <course>176.65</course>
  <speed>0.0</speed>
  <fix>3d</fix>
</trkpt>
<trkpt lat="33.810313" lon="-118.393867">
  <ele>-0.13</ele>
  <time>2026-09-02T22:07:05Z</time>
  <course>0.0</course>
  <speed>0.0</speed>
  <fix>3d</fix>
</trkpt>
<trkpt lat="33.810313" lon="-118.393867">
  <ele>0.0</ele>
  <time>2026-09-02T22:07:05Z</time>
  <course>177.12</course>
  <speed>0.0</speed>
  <fix>3d</fix>
</trkpt>
<trkpt lat="33.810313" lon="-118.393867">
  <ele>-0.13</ele>
  <time>2026-09-02T22:07:05Z</time>
  <course>0.0</course>
  <speed>0.0</speed>
  <fix>3d</fix>
</trkpt>
<trkpt lat="33.810313" lon="-118.393867">
  <ele>0.0</ele>
  <time>2026-09-02T22:07:05Z</time>
  <course>177.57</course>
  <speed>0.0</speed>
  <fix>3d</fix>
</trkpt>
<trkpt lat="33.810313" lon="-118.393867">
  <ele>-0.13</ele>
  <time>2026-09-02T22:07:05Z</time>
  <course>0.0</course>
  <speed>0.0</speed>
  <fix>3d</fix>
</trkpt>
<trkpt lat="33.810313" lon="-118.393867">
  <ele>0.0</ele>
  <time>2026-09-02T22:07:05Z</time>
  <course>178.02</course>
  <speed>0.0</speed>
  <fix>3d</fix>
</trkpt>
<trkpt lat="33.810313" lon="-118.393867">
  <ele>-0.14</ele>
  <time>2026-09-02T22:07:05Z</time>
  <course>0.0</course>
  <speed>0.0</speed>
  <fix>3d</fix>
</trkpt>
<trkpt lat="33.810313" lon="-118.393867">
  <ele>0.0</ele>
  <time>2026-09-02T22:07:05Z</time>
  <course>178.45</course>
  <speed>0.0</speed>
  <fix>3d</fix>
</trkpt>
<trkpt lat="33.810313" lon="-118.393867">
  <ele>-0.14</ele>
  <time>2026-09-02T22:07:05Z</time>
  <course>0.0</course>
  <speed>0.0</speed>
  <fix>3d</fix>
</trkpt>
<trkpt lat="33.810313" lon="-118.393867">
  <ele>0.0</ele>
  <time>2026-09-02T22:07:05Z</time>
  <course>178.87</course>
  <speed>0.0</speed>
  <fix>3d</fix>
</trkpt>
<trkpt lat="33.810313" lon="-118.393867">
  <ele>-0.14</ele>
  <time>2026-09-02T22:07:05Z</time>
  <course>0.0</course>
  <speed>0.0</speed>
  <fix>3d</fix>
</trkpt>
<trkpt lat="33.810313" lon="-118.393867">
  <ele>0.0</ele>
  <time>2026-09-02T22:07:05Z</time>
  <course>179.27</course>
  <speed>0.0</speed>
  <fix>3d</fix>
</trkpt>
<trkpt lat="33.810313" lon="-118.393867">
  <ele>-0.14</ele>
  <time>2026-09-02T22:07:05Z</time>
  <course>0.0</course>
  <speed>0.0</speed>
  <fix>3d</fix>
</trkpt>
<trkpt lat="33.810313" lon="-118.393867">
  <ele>0.0</ele>
  <time>2026-09-02T22:07:05Z</time>
  <course>179.66</course>
  <speed>0.0</speed>
  <fix>3d</fix>
</trkpt>
<trkpt lat="33.810313" lon="-118.393867">
  <ele>-0.14</ele>
  <time>2026-09-02T22:07:05Z</time>
  <course>0.0</course>
  <speed>0.0</speed>
  <fix>3d</fix>
</trkpt>
<trkpt lat="33.810313" lon="-118.393867">
  <ele>0.0</ele>
  <time>2026-09-02T22:07:05Z</time>
  <course>180.05</course>
  <speed>0.0</speed>
  <fix>3d</fix>
</trkpt>
<trkpt lat="33.810313" lon="-118.393867">
  <ele>-0.14</ele>
  <time>2026-09-02T22:07:05Z</time>
  <course>0.0</course>
  <speed>0.0</speed>
  <fix>3d</fix>
</trkpt>
<trkpt lat="33.810313" lon="-118.393867">
  <ele>0.0</ele>
  <time>2026-09-02T22:07:05Z</time>
  <course>180.41</course>
  <speed>0.0</speed>
  <fix>3d</fix>
</trkpt>
<trkpt lat="33.810313" lon="-118.393867">
  <ele>-0.14</ele>
  <time>2026-09-02T22:07:05Z</time>
  <course>0.0</course>
  <speed>0.0</speed>
  <fix>3d</fix>
</trkpt>
<trkpt lat="33.810313" lon="-118.393867">
  <ele>0.0</ele>
  <time>2026-09-02T22:07:05Z</time>
  <course>180.76</course>
  <speed>0.0</speed>
  <fix>3d</fix>
</trkpt>
<trkpt lat="33.810313" lon="-118.393867">
  <ele>-0.14</ele>
  <time>2026-09-02T22:07:05Z</time>
  <course>0.0</course>
  <speed>0.0</speed>
  <fix>3d</fix>
</trkpt>
<trkpt lat="33.810313" lon="-118.393867">
  <ele>0.0</ele>
  <time>2026-09-02T22:07:05Z</time>
  <course>181.1</course>
  <speed>0.0</speed>
  <fix>3d</fix>
</trkpt>
<trkpt lat="33.810313" lon="-118.393867">
  <ele>-0.13</ele>
  <time>2026-09-02T22:07:05Z</time>
  <course>0.0</course>
  <speed>0.0</speed>
  <fix>3d</fix>
</trkpt>
<trkpt lat="33.810313" lon="-118.393867">
  <ele>0.0</ele>
  <time>2026-09-02T22:07:05Z</time>
  <course>181.43</course>
  <speed>0.0</speed>
  <fix>3d</fix>
</trkpt>
<trkpt lat="33.810313" lon="-118.393867">
  <ele>-0.13</ele>
  <time>2026-09-02T22:07:05Z</time>
  <course>0.0</course>
  <speed>0.0</speed>
  <fix>3d</fix>
</trkpt>
<trkpt lat="33.810313" lon="-118.393867">
  <ele>0.0</ele>
  <time>2026-09-02T22:07:05Z</time>
  <course>181.75</course>
  <speed>0.0</speed>
  <fix>3d</fix>
</trkpt>
<trkpt lat="33.810313" lon="-118.393867">
  <ele>-0.12</ele>
  <time>2026-09-02T22:07:05Z</time>
  <course>0.0</course>
  <speed>0.0</speed>
  <fix>3d</fix>
</trkpt>
<trkpt lat="33.810313" lon="-118.393867">
  <ele>0.0</ele>
  <time>2026-09-02T22:07:05Z</time>
  <course>182.05</course>
  <speed>0.0</speed>
  <fix>3d</fix>
</trkpt>
<trkpt lat="33.810313" lon="-118.393867">
  <ele>-0.12</ele>
  <time>2026-09-02T22:07:05Z</time>
  <course>0.0</course>
  <speed>0.0</speed>
  <fix>3d</fix>
</trkpt>
<trkpt lat="33.810313" lon="-118.393867">
  <ele>0.0</ele>
  <time>2026-09-02T22:07:05Z</time>
  <course>182.35</course>
  <speed>0.0</speed>
  <fix>3d</fix>
</trkpt>
<trkpt lat="33.810313" lon="-118.393867">
  <ele>-0.12</ele>
  <time>2026-09-02T22:07:05Z</time>
  <course>0.0</course>
  <speed>0.0</speed>
  <fix>3d</fix>
</trkpt>
<trkpt lat="33.810313" lon="-118.393867">
  <ele>0.0</ele>
  <time>2026-09-02T22:07:05Z</time>
  <course>182.63</course>
  <speed>0.0</speed>
  <fix>3d</fix>
</trkpt>
<trkpt lat="33.810313" lon="-118.393867">
  <ele>-0.12</ele>
  <time>2026-09-02T22:07:05Z</time>
  <course>0.0</course>
  <speed>0.0</speed>
  <fix>3d</fix>
</trkpt>
<trkpt lat="33.810313" lon="-118.393867">
  <ele>0.0</ele>
  <time>2026-09-02T22:07:05Z</time>
  <course>182.9</course>
  <speed>0.0</speed>
  <fix>3d</fix>
</trkpt>
<trkpt lat="33.810313" lon="-118.393867">
  <ele>-0.11</ele>
  <time>2026-09-02T22:07:05Z</time>
  <course>0.0</course>
  <speed>0.0</speed>
  <fix>3d</fix>
</trkpt>
<trkpt lat="33.810313" lon="-118.393867">
  <ele>0.0</ele>
  <time>2026-09-02T22:07:05Z</time>
  <course>183.16</course>
  <speed>0.0</speed>
  <fix>3d</fix>
</trkpt>
<trkpt lat="33.810313" lon="-118.393867">
  <ele>-0.11</ele>
  <time>2026-09-02T22:07:05Z</time>
  <course>0.0</course>
  <speed>0.0</speed>
  <fix>3d</fix>
</trkpt>
<trkpt lat="33.810313" lon="-118.393867">
  <ele>0.0</ele>
  <time>2026-09-02T22:07:05Z</time>
  <course>183.41</course>
  <speed>0.0</speed>
  <fix>3d</fix>
</trkpt>
<trkpt lat="33.810313" lon="-118.393867">
  <ele>-0.11</ele>
  <time>2026-09-02T22:07:05Z</time>
  <course>0.0</course>
  <speed>0.0</speed>
  <fix>3d</fix>
</trkpt>
<trkpt lat="33.810313" lon="-118.393867">
  <ele>0.0</ele>
  <time>2026-09-02T22:07:05Z</time>
  <course>183.65</course>
  <speed>0.0</speed>
  <fix>3d</fix>
</trkpt>
<trkpt lat="33.810313" lon="-118.393867">
  <ele>-0.11</ele>
  <time>2026-09-02T22:07:05Z</time>
  <course>0.0</course>
  <speed>0.0</speed>
  <fix>3d</fix>
</trkpt>
<trkpt lat="33.810313" lon="-118.393867">
  <ele>0.0</ele>
  <time>2026-09-02T22:07:05Z</time>
  <course>183.88</course>
  <speed>0.0</speed>
  <fix>3d</fix>
</trkpt>
<trkpt lat="33.810313" lon="-118.393867">
  <ele>-0.12</ele>
  <time>2026-09-02T22:07:05Z</time>
  <course>0.0</course>
  <speed>0.0</speed>
  <fix>3d</fix>
</trkpt>
<trkpt lat="33.810313" lon="-118.393867">
  <ele>0.0</ele>
  <time>2026-09-02T22:07:05Z</time>
  <course>184.11</course>
  <speed>0.0</speed>
  <fix>3d</fix>
</trkpt>
<trkpt lat="33.810313" lon="-118.393867">
  <ele>-0.12</ele>
  <time>2026-09-02T22:07:05Z</time>
  <course>0.0</course>
  <speed>0.0</speed>
  <fix>3d</fix>
</trkpt>
<trkpt lat="33.810313" lon="-118.393867">
  <ele>0.0</ele>
  <time>2026-09-02T22:07:05Z</time>
  <course>184.32</course>
  <speed>0.0</speed>
  <fix>3d</fix>
</trkpt>
<trkpt lat="33.810313" lon="-118.393867">
  <ele>-0.13</ele>
  <time>2026-09-02T22:07:05Z</time>
  <course>0.0</course>
  <speed>0.0</speed>
  <fix>3d</fix>
</trkpt>
<trkpt lat="33.810313" lon="-118.393867">
  <ele>0.0</ele>
  <time>2026-09-02T22:07:05Z</time>
  <course>184.52</course>
  <speed>0.0</speed>
  <fix>3d</fix>
</trkpt>
<trkpt lat="33.810313" lon="-118.393867">
  <ele>-0.13</ele>
  <time>2026-09-02T22:07:05Z</time>
  <course>0.0</course>
  <speed>0.0</speed>
  <fix>3d</fix>
</trkpt>
<trkpt lat="33.810313" lon="-118.393867">
  <ele>0.0</ele>
  <time>2026-09-02T22:07:05Z</time>
  <course>184.72</course>
  <speed>0.0</speed>
  <fix>3d</fix>
</trkpt>
<trkpt lat="33.810313" lon="-118.393867">
  <ele>-0.13</ele>
  <time>2026-09-02T22:07:05Z</time>
  <course>0.0</course>
  <speed>0.0</speed>
  <fix>3d</fix>
</trkpt>
<trkpt lat="33.810313" lon="-118.393867">
  <ele>0.0</ele>
  <time>2026-09-02T22:07:05Z</time>
  <course>184.91</course>
  <speed>0.0</speed>
  <fix>3d</fix>
</trkpt>
<trkpt lat="33.810313" lon="-118.393867">
  <ele>-0.13</ele>
  <time>2026-09-02T22:07:05Z</time>
  <course>0.0</course>
  <speed>0.0</speed>
  <fix>3d</fix>
</trkpt>
<trkpt lat="33.810313" lon="-118.393867">
  <ele>0.0</ele>
  <time>2026-09-02T22:07:05Z</time>
  <course>185.09</course>
  <speed>0.0</speed>
  <fix>3d</fix>
</trkpt>
<trkpt lat="33.810313" lon="-118.393867">
  <ele>-0.14</ele>
  <time>2026-09-02T22:07:05Z</time>
  <course>0.0</course>
  <speed>0.0</speed>
  <fix>3d</fix>
</trkpt>
<trkpt lat="33.810313" lon="-118.393867">
  <ele>0.0</ele>
  <time>2026-09-02T22:07:05Z</time>
  <course>185.26</course>
  <speed>0.0</speed>
  <fix>3d</fix>
</trkpt>
<trkpt lat="33.810313" lon="-118.393867">
  <ele>-0.14</ele>
  <time>2026-09-02T22:07:05Z</time>
  <course>0.0</course>
  <speed>0.0</speed>
  <fix>3d</fix>
</trkpt>
<trkpt lat="33.810313" lon="-118.393867">
  <ele>0.0</ele>
  <time>2026-09-02T22:07:05Z</time>
  <course>185.42</course>
  <speed>0.0</speed>
  <fix>3d</fix>
</trkpt>
<trkpt lat="33.810313" lon="-118.393867">
  <ele>-0.13</ele>
  <time>2026-09-02T22:07:05Z</time>
  <course>0.0</course>
  <speed>0.0</speed>
  <fix>3d</fix>
</trkpt>
<trkpt lat="33.810313" lon="-118.393867">
  <ele>0.0</ele>
  <time>2026-09-02T22:07:05Z</time>
  <course>185.58</course>
  <speed>0.0</speed>
  <fix>3d</fix>
</trkpt>
<trkpt lat="33.810313" lon="-118.393867">
  <ele>-0.13</ele>
  <time>2026-09-02T22:07:05Z</time>
  <course>0.0</course>
  <speed>0.0</speed>
  <fix>3d</fix>
</trkpt>
<trkpt lat="33.810313" lon="-118.393867">
  <ele>0.0</ele>
  <time>2026-09-02T22:07:05Z</time>
  <course>185.73</course>
  <speed>0.0</speed>
  <fix>3d</fix>
</trkpt>
<trkpt lat="33.810313" lon="-118.393867">
  <ele>-0.13</ele>
  <time>2026-09-02T22:07:05Z</time>
  <course>0.0</course>
  <speed>0.0</speed>
  <fix>3d</fix>
</trkpt>
<trkpt lat="33.810313" lon="-118.393867">
  <ele>0.0</ele>
  <time>2026-09-02T22:07:05Z</time>
  <course>185.87</course>
  <speed>0.0</speed>
  <fix>3d</fix>
</trkpt>
<trkpt lat="33.810313" lon="-118.393867">
  <ele>-0.13</ele>
  <time>2026-09-02T22:07:05Z</time>
  <course>0.0</course>
  <speed>0.0</speed>
  <fix>3d</fix>
</trkpt>
<trkpt lat="33.810313" lon="-118.393867">
  <ele>0.0</ele>
  <time>2026-09-02T22:07:05Z</time>
  <course>186.01</course>
  <speed>0.0</speed>
  <fix>3d</fix>
</trkpt>
<trkpt lat="33.810313" lon="-118.393867">
  <ele>-0.12</ele>
  <time>2026-09-02T22:07:05Z</time>
  <course>0.0</course>
  <speed>0.0</speed>
  <fix>3d</fix>
</trkpt>
<trkpt lat="33.810313" lon="-118.393867">
  <ele>0.0</ele>
  <time>2026-09-02T22:07:05Z</time>
  <course>186.14</course>
  <speed>0.0</speed>
  <fix>3d</fix>
</trkpt>
<trkpt lat="33.810313" lon="-118.393867">
  <ele>-0.12</ele>
  <time>2026-09-02T22:07:05Z</time>
  <course>0.0</course>
  <speed>0.0</speed>
  <fix>3d</fix>
</trkpt>
<trkpt lat="33.810313" lon="-118.393867">
  <ele>0.0</ele>
  <time>2026-09-02T22:07:05Z</time>
  <course>186.27</course>
  <speed>0.0</speed>
  <fix>3d</fix>
</trkpt>
<trkpt lat="33.810313" lon="-118.393867">
  <ele>-0.12</ele>
  <time>2026-09-02T22:07:05Z</time>
  <course>0.0</course>
  <speed>0.0</speed>
  <fix>3d</fix>
</trkpt>
<trkpt lat="33.810313" lon="-118.393867">
  <ele>0.0</ele>
  <time>2026-09-02T22:07:05Z</time>
  <course>186.39</course>
  <speed>0.0</speed>
  <fix>3d</fix>
</trkpt>
<trkpt lat="33.810313" lon="-118.393867">
  <ele>-0.12</ele>
  <time>2026-09-02T22:07:05Z</time>
  <course>0.0</course>
  <speed>0.0</speed>
  <fix>3d</fix>
</trkpt>
<trkpt lat="33.810313" lon="-118.393867">
  <ele>0.0</ele>
  <time>2026-09-02T22:07:05Z</time>
  <course>186.5</course>
  <speed>0.0</speed>
  <fix>3d</fix>
</trkpt>
<trkpt lat="33.810313" lon="-118.393867">
  <ele>-0.12</ele>
  <time>2026-09-02T22:07:05Z</time>
  <course>0.0</course>
  <speed>0.0</speed>
  <fix>3d</fix>
</trkpt>
<trkpt lat="33.810313" lon="-118.393867">
  <ele>0.0</ele>
  <time>2026-09-02T22:07:05Z</time>
  <course>186.61</course>
  <speed>0.0</speed>
  <fix>3d</fix>
</trkpt>
<trkpt lat="33.810313" lon="-118.393867">
  <ele>-0.12</ele>
  <time>2026-09-02T22:07:05Z</time>
  <course>0.0</course>
  <speed>0.0</speed>
  <fix>3d</fix>
</trkpt>
<trkpt lat="33.810313" lon="-118.393867">
  <ele>0.0</ele>
  <time>2026-09-02T22:07:05Z</time>
  <course>186.72</course>
  <speed>0.0</speed>
  <fix>3d</fix>
</trkpt>
<trkpt lat="33.810313" lon="-118.393867">
  <ele>-0.12</ele>
  <time>2026-09-02T22:07:05Z</time>
  <course>0.0</course>
  <speed>0.0</speed>
  <fix>3d</fix>
</trkpt>
<trkpt lat="33.810313" lon="-118.393867">
  <ele>0.0</ele>
  <time>2026-09-02T22:07:05Z</time>
  <course>186.82</course>
  <speed>0.0</speed>
  <fix>3d</fix>
</trkpt>
<trkpt lat="33.810313" lon="-118.393867">
  <ele>-0.12</ele>
  <time>2026-09-02T22:07:05Z</time>
  <course>0.0</course>
  <speed>0.0</speed>
  <fix>3d</fix>
</trkpt>
<trkpt lat="33.810313" lon="-118.393867">
  <ele>0.0</ele>
  <time>2026-09-02T22:07:05Z</time>
  <course>186.91</course>
  <speed>0.0</speed>
  <fix>3d</fix>
</trkpt>
<trkpt lat="33.810313" lon="-118.393867">
  <ele>-0.12</ele>
  <time>2026-09-02T22:07:05Z</time>
  <course>0.0</course>
  <speed>0.0</speed>
  <fix>3d</fix>
</trkpt>
<trkpt lat="33.810313" lon="-118.393867">
  <ele>0.0</ele>
  <time>2026-09-02T22:07:05Z</time>
  <course>187.0</course>
  <speed>0.0</speed>
  <fix>3d</fix>
</trkpt>
<trkpt lat="33.810313" lon="-118.393867">
  <ele>-0.12</ele>
  <time>2026-09-02T22:07:05Z</time>
  <course>0.0</course>
  <speed>0.0</speed>
  <fix>3d</fix>
</trkpt>
<trkpt lat="33.810313" lon="-118.393867">
  <ele>0.0</ele>
  <time>2026-09-02T22:07:05Z</time>
  <course>187.09</course>
  <speed>0.0</speed>
  <fix>3d</fix>
</trkpt>
<trkpt lat="33.810313" lon="-118.393867">
  <ele>-0.13</ele>
  <time>2026-09-02T22:07:05Z</time>
  <course>0.0</course>
  <speed>0.0</speed>
  <fix>3d</fix>
</trkpt>
<trkpt lat="33.810313" lon="-118.393867">
  <ele>0.0</ele>
  <time>2026-09-02T22:07:05Z</time>
  <course>187.17</course>
  <speed>0.0</speed>
  <fix>3d</fix>
</trkpt>
<trkpt lat="33.810313" lon="-118.393867">
  <ele>-0.13</ele>
  <time>2026-09-02T22:07:05Z</time>
  <course>0.0</course>
  <speed>0.0</speed>
  <fix>3d</fix>
</trkpt>
<trkpt lat="33.810313" lon="-118.393867">
  <ele>0.0</ele>
  <time>2026-09-02T22:07:05Z</time>
  <course>187.25</course>
  <speed>0.0</speed>
  <fix>3d</fix>
</trkpt>
<trkpt lat="33.810313" lon="-118.393867">
  <ele>-0.13</ele>
  <time>2026-09-02T22:07:05Z</time>
  <course>0.0</course>
  <speed>0.0</speed>
  <fix>3d</fix>
</trkpt>
<trkpt lat="33.810313" lon="-118.393867">
  <ele>0.0</ele>
  <time>2026-09-02T22:07:05Z</time>
  <course>187.33</course>
  <speed>0.0</speed>
  <fix>3d</fix>
</trkpt>
<trkpt lat="33.810313" lon="-118.393867">
  <ele>-0.13</ele>
  <time>2026-09-02T22:07:05Z</time>
  <course>0.0</course>
  <speed>0.0</speed>
  <fix>3d</fix>
</trkpt>
<trkpt lat="33.810313" lon="-118.393867">
  <ele>0.0</ele>
  <time>2026-09-02T22:07:05Z</time>
  <course>187.4</course>
  <speed>0.0</speed>
  <fix>3d</fix>
</trkpt>
<trkpt lat="33.810313" lon="-118.393867">
  <ele>-0.13</ele>
  <time>2026-09-02T22:07:05Z</time>
  <course>0.0</course>
  <speed>0.0</speed>
  <fix>3d</fix>
</trkpt>
<trkpt lat="33.810313" lon="-118.393867">
  <ele>0.0</ele>
  <time>2026-09-02T22:07:05Z</time>
  <course>187.47</course>
  <speed>0.0</speed>
  <fix>3d</fix>
</trkpt>
<trkpt lat="33.810313" lon="-118.393867">
  <ele>-0.13</ele>
  <time>2026-09-02T22:07:05Z</time>
  <course>0.0</course>
  <speed>0.0</speed>
  <fix>3d</fix>
</trkpt>
<trkpt lat="33.810313" lon="-118.393867">
  <ele>0.0</ele>
  <time>2026-09-02T22:07:05Z</time>
  <course>187.53</course>
  <speed>0.0</speed>
  <fix>3d</fix>
</trkpt>
<trkpt lat="33.810313" lon="-118.393867">
  <ele>-0.13</ele>
  <time>2026-09-02T22:07:05Z</time>
  <course>0.0</course>
  <speed>0.0</speed>
  <fix>3d</fix>
</trkpt>
<trkpt lat="33.810313" lon="-118.393867">
  <ele>0.0</ele>
  <time>2026-09-02T22:07:05Z</time>
  <course>187.59</course>
  <speed>0.0</speed>
  <fix>3d</fix>
</trkpt>
<trkpt lat="33.810313" lon="-118.393867">
  <ele>-0.13</ele>
  <time>2026-09-02T22:07:05Z</time>
  <course>0.0</course>
  <speed>0.0</speed>
  <fix>3d</fix>
</trkpt>
<trkpt lat="33.810313" lon="-118.393867">
  <ele>0.0</ele>
  <time>2026-09-02T22:07:05Z</time>
  <course>187.65</course>
  <speed>0.0</speed>
  <fix>3d</fix>
</trkpt>
<trkpt lat="33.810313" lon="-118.393867">
  <ele>-0.12</ele>
  <time>2026-09-02T22:07:05Z</time>
  <course>0.0</course>
  <speed>0.0</speed>
  <fix>3d</fix>
</trkpt>
<trkpt lat="33.810313" lon="-118.393867">
  <ele>0.0</ele>
  <time>2026-09-02T22:07:05Z</time>
  <course>187.71</course>
  <speed>0.0</speed>
  <fix>3d</fix>
</trkpt>
<trkpt lat="33.810313" lon="-118.393867">
  <ele>-0.12</ele>
  <time>2026-09-02T22:07:05Z</time>
  <course>0.0</course>
  <speed>0.0</speed>
  <fix>3d</fix>
</trkpt>
<trkpt lat="33.810313" lon="-118.393867">
  <ele>0.0</ele>
  <time>2026-09-02T22:07:05Z</time>
  <course>187.76</course>
  <speed>0.0</speed>
  <fix>3d</fix>
</trkpt>
<trkpt lat="33.810313" lon="-118.393867">
  <ele>-0.12</ele>
  <time>2026-09-02T22:07:05Z</time>
  <course>0.0</course>
  <speed>0.0</speed>
  <fix>3d</fix>
</trkpt>
<trkpt lat="33.810313" lon="-118.393867">
  <ele>0.0</ele>
  <time>2026-09-02T22:07:05Z</time>
  <course>187.81</course>
  <speed>0.0</speed>
  <fix>3d</fix>
</trkpt>
<trkpt lat="33.810313" lon="-118.393867">
  <ele>-0.12</ele>
  <time>2026-09-02T22:07:05Z</time>
  <course>0.0</course>
  <speed>0.0</speed>
  <fix>3d</fix>
</trkpt>
<trkpt lat="33.810313" lon="-118.393867">
  <ele>0.0</ele>
  <time>2026-09-02T22:07:05Z</time>
  <course>187.86</course>
  <speed>0.0</speed>
  <fix>3d</fix>
</trkpt>
<trkpt lat="33.810313" lon="-118.393867">
  <ele>-0.12</ele>
  <time>2026-09-02T22:07:05Z</time>
  <course>0.0</course>
  <speed>0.0</speed>
  <fix>3d</fix>
</trkpt>
<trkpt lat="33.810313" lon="-118.393867">
  <ele>0.0</ele>
  <time>2026-09-02T22:07:05Z</time>
  <course>187.91</course>
  <speed>0.0</speed>
  <fix>3d</fix>
</trkpt>
<trkpt lat="33.810313" lon="-118.393867">
  <ele>-0.12</ele>
  <time>2026-09-02T22:07:05Z</time>
  <course>0.0</course>
  <speed>0.0</speed>
  <fix>3d</fix>
</trkpt>
<trkpt lat="33.810313" lon="-118.393867">
  <ele>0.0</ele>
  <time>2026-09-02T22:07:05Z</time>
  <course>187.95</course>
  <speed>0.0</speed>
  <fix>3d</fix>
</trkpt>
<trkpt lat="33.810313" lon="-118.393867">
  <ele>-0.12</ele>
  <time>2026-09-02T22:07:05Z</time>
  <course>0.0</course>
  <speed>0.0</speed>
  <fix>3d</fix>
</trkpt>
<trkpt lat="33.810313" lon="-118.393867">
  <ele>0.0</ele>
  <time>2026-09-02T22:07:05Z</time>
  <course>187.99</course>
  <speed>0.0</speed>
  <fix>3d</fix>
</trkpt>
<trkpt lat="33.810313" lon="-118.393867">
  <ele>-0.12</ele>
  <time>2026-09-02T22:07:05Z</time>
  <course>0.0</course>
  <speed>0.0</speed>
  <fix>3d</fix>
</trkpt>
<trkpt lat="33.810313" lon="-118.393867">
  <ele>0.0</ele>
  <time>2026-09-02T22:07:05Z</time>
  <course>188.03</course>
  <speed>0.0</speed>
  <fix>3d</fix>
</trkpt>
<trkpt lat="33.810313" lon="-118.393867">
  <ele>-0.12</ele>
  <time>2026-09-02T22:07:05Z</time>
  <course>0.0</course>
  <speed>0.0</speed>
  <fix>3d</fix>
</trkpt>
<trkpt lat="33.810313" lon="-118.393867">
  <ele>0.0</ele>
  <time>2026-09-02T22:07:05Z</time>
  <course>188.07</course>
  <speed>0.0</speed>
  <fix>3d</fix>
</trkpt>
<trkpt lat="33.810313" lon="-118.393867">
  <ele>-0.12</ele>
  <time>2026-09-02T22:07:05Z</time>
  <course>0.0</course>
  <speed>0.0</speed>
  <fix>3d</fix>
</trkpt>
<trkpt lat="33.810313" lon="-118.393867">
  <ele>0.0</ele>
  <time>2026-09-02T22:07:05Z</time>
  <course>188.1</course>
  <speed>0.0</speed>
  <fix>3d</fix>
</trkpt>
<trkpt lat="33.810313" lon="-118.393867">
  <ele>-0.13</ele>
  <time>2026-09-02T22:07:05Z</time>
  <course>0.0</course>
  <speed>0.0</speed>
  <fix>3d</fix>
</trkpt>
<trkpt lat="33.810313" lon="-118.393867">
  <ele>0.0</ele>
  <time>2026-09-02T22:07:05Z</time>
  <course>188.13</course>
  <speed>0.0</speed>
  <fix>3d</fix>
</trkpt>
<trkpt lat="33.810313" lon="-118.393867">
  <ele>-0.13</ele>
  <time>2026-09-02T22:07:05Z</time>
  <course>0.0</course>
  <speed>0.0</speed>
  <fix>3d</fix>
</trkpt>
<trkpt lat="33.810313" lon="-118.393867">
  <ele>0.0</ele>
  <time>2026-09-02T22:07:05Z</time>
  <course>188.17</course>
  <speed>0.0</speed>
  <fix>3d</fix>
</trkpt>
<trkpt lat="33.810313" lon="-118.393867">
  <ele>-0.13</ele>
  <time>2026-09-02T22:07:05Z</time>
  <course>0.0</course>
  <speed>0.0</speed>
  <fix>3d</fix>
</trkpt>
<trkpt lat="33.810313" lon="-118.393867">
  <ele>0.0</ele>
  <time>2026-09-02T22:07:05Z</time>
  <course>188.19</course>
  <speed>0.0</speed>
  <fix>3d</fix>
</trkpt>
<trkpt lat="33.810313" lon="-118.393867">
  <ele>-0.13</ele>
  <time>2026-09-02T22:07:05Z</time>
  <course>0.0</course>
  <speed>0.0</speed>
  <fix>3d</fix>
</trkpt>
<trkpt lat="33.810313" lon="-118.393867">
  <ele>0.0</ele>
  <time>2026-09-02T22:07:05Z</time>
  <course>188.22</course>
  <speed>0.0</speed>
  <fix>3d</fix>
</trkpt>
<trkpt lat="33.810313" lon="-118.393867">
  <ele>-0.13</ele>
  <time>2026-09-02T22:07:05Z</time>
  <course>0.0</course>
  <speed>0.0</speed>
  <fix>3d</fix>
</trkpt>
<trkpt lat="33.810313" lon="-118.393867">
  <ele>0.0</ele>
  <time>2026-09-02T22:07:05Z</time>
  <course>188.25</course>
  <speed>0.0</speed>
  <fix>3d</fix>
</trkpt>
<trkpt lat="33.810313" lon="-118.393867">
  <ele>-0.13</ele>
  <time>2026-09-02T22:07:05Z</time>
  <course>0.0</course>
  <speed>0.0</speed>
  <fix>3d</fix>
</trkpt>
<trkpt lat="33.810313" lon="-118.393867">
  <ele>0.0</ele>
  <time>2026-09-02T22:07:05Z</time>
  <course>188.27</course>
  <speed>0.0</speed>
  <fix>3d</fix>
</trkpt>
<trkpt lat="33.810313" lon="-118.393867">
  <ele>-0.12</ele>
  <time>2026-09-02T22:07:05Z</time>
  <course>0.0</course>
  <speed>0.0</speed>
  <fix>3d</fix>
</trkpt>
<trkpt lat="33.810313" lon="-118.393867">
  <ele>0.0</ele>
  <time>2026-09-02T22:07:05Z</time>
  <course>188.3</course>
  <speed>0.0</speed>
  <fix>3d</fix>
</trkpt>
<trkpt lat="33.810313" lon="-118.393867">
  <ele>-0.12</ele>
  <time>2026-09-02T22:07:05Z</time>
  <course>0.0</course>
  <speed>0.0</speed>
  <fix>3d</fix>
</trkpt>
<trkpt lat="33.810313" lon="-118.393867">
  <ele>0.0</ele>
  <time>2026-09-02T22:07:05Z</time>
  <course>188.32</course>
  <speed>0.0</speed>
  <fix>3d</fix>
</trkpt>
<trkpt lat="33.810313" lon="-118.393867">
  <ele>-0.12</ele>
  <time>2026-09-02T22:07:05Z</time>
  <course>0.0</course>
  <speed>0.0</speed>
  <fix>3d</fix>
</trkpt>
<trkpt lat="33.810313" lon="-118.393867">
  <ele>0.0</ele>
  <time>2026-09-02T22:07:05Z</time>
  <course>188.34</course>
  <speed>0.0</speed>
  <fix>3d</fix>
</trkpt>
<trkpt lat="33.810313" lon="-118.393867">
  <ele>-0.12</ele>
  <time>2026-09-02T22:07:05Z</time>
  <course>0.0</course>
  <speed>0.0</speed>
  <fix>3d</fix>
</trkpt>
<trkpt lat="33.810313" lon="-118.393867">
  <ele>0.0</ele>
  <time>2026-09-02T22:07:05Z</time>
  <course>188.36</course>
  <speed>0.0</speed>
  <fix>3d</fix>
</trkpt>
<trkpt lat="33.810313" lon="-118.393867">
  <ele>-0.12</ele>
  <time>2026-09-02T22:07:05Z</time>
  <course>0.0</course>
  <speed>0.0</speed>
  <fix>3d</fix>
</trkpt>
<trkpt lat="33.810313" lon="-118.393867">
  <ele>0.0</ele>
  <time>2026-09-02T22:07:05Z</time>
  <course>188.38</course>
  <speed>0.0</speed>
  <fix>3d</fix>
</trkpt>
<trkpt lat="33.810313" lon="-118.393867">
  <ele>-0.12</ele>
  <time>2026-09-02T22:07:05Z</time>
  <course>0.0</course>
  <speed>0.0</speed>
  <fix>3d</fix>
</trkpt>
<trkpt lat="33.810313" lon="-118.393867">
  <ele>0.0</ele>
  <time>2026-09-02T22:07:05Z</time>
  <course>188.39</course>
  <speed>0.0</speed>
  <fix>3d</fix>
</trkpt>
<trkpt lat="33.810313" lon="-118.393867">
  <ele>-0.12</ele>
  <time>2026-09-02T22:07:05Z</time>
  <course>0.0</course>
  <speed>0.0</speed>
  <fix>3d</fix>
</trkpt>
<trkpt lat="33.810313" lon="-118.393867">
  <ele>0.0</ele>
  <time>2026-09-02T22:07:05Z</time>
  <course>188.41</course>
  <speed>0.0</speed>
  <fix>3d</fix>
</trkpt>
<trkpt lat="33.810313" lon="-118.393867">
  <ele>-0.12</ele>
  <time>2026-09-02T22:07:05Z</time>
  <course>0.0</course>
  <speed>0.0</speed>
  <fix>3d</fix>
</trkpt>
<trkpt lat="33.810313" lon="-118.393867">
  <ele>0.0</ele>
  <time>2026-09-02T22:07:05Z</time>
  <course>188.43</course>
  <speed>0.0</speed>
  <fix>3d</fix>
</trkpt>
<trkpt lat="33.810313" lon="-118.393867">
  <ele>-0.12</ele>
  <time>2026-09-02T22:07:05Z</time>
  <course>0.0</course>
  <speed>0.0</speed>
  <fix>3d</fix>
</trkpt>
<trkpt lat="33.810313" lon="-118.393867">
  <ele>0.0</ele>
  <time>2026-09-02T22:07:05Z</time>
  <course>188.44</course>
  <speed>0.0</speed>
  <fix>3d</fix>
</trkpt>
<trkpt lat="33.810313" lon="-118.393867">
  <ele>-0.12</ele>
  <time>2026-09-02T22:07:05Z</time>
  <course>0.0</course>
  <speed>0.0</speed>
  <fix>3d</fix>
</trkpt>
<trkpt lat="33.810313" lon="-118.393867">
  <ele>0.0</ele>
  <time>2026-09-02T22:07:05Z</time>
  <course>188.45</course>
  <speed>0.0</speed>
  <fix>3d</fix>
</trkpt>
<trkpt lat="33.810313" lon="-118.393867">
  <ele>-0.13</ele>
  <time>2026-09-02T22:07:05Z</time>
  <course>0.0</course>
  <speed>0.0</speed>
  <fix>3d</fix>
</trkpt>
<trkpt lat="33.810313" lon="-118.393867">
  <ele>0.0</ele>
  <time>2026-09-02T22:07:05Z</time>
  <course>188.46</course>
  <speed>0.0</speed>
  <fix>3d</fix>
</trkpt>
<trkpt lat="33.810313" lon="-118.393867">
  <ele>-0.13</ele>
  <time>2026-09-02T22:07:05Z</time>
  <course>0.0</course>
  <speed>0.0</speed>
  <fix>3d</fix>
</trkpt>
<trkpt lat="33.810313" lon="-118.393867">
  <ele>0.0</ele>
  <time>2026-09-02T22:07:05Z</time>
  <course>188.48</course>
  <speed>0.0</speed>
  <fix>3d</fix>
</trkpt>
<trkpt lat="33.810313" lon="-118.393867">
  <ele>-0.13</ele>
  <time>2026-09-02T22:07:05Z</time>
  <course>0.0</course>
  <speed>0.0</speed>
  <fix>3d</fix>
</trkpt>
<trkpt lat="33.810313" lon="-118.393867">
  <ele>0.0</ele>
  <time>2026-09-02T22:07:05Z</time>
  <course>188.49</course>
  <speed>0.0</speed>
  <fix>3d</fix>
</trkpt>
<trkpt lat="33.810313" lon="-118.393867">
  <ele>-0.13</ele>
  <time>2026-09-02T22:07:05Z</time>
  <course>0.0</course>
  <speed>0.0</speed>
  <fix>3d</fix>
</trkpt>
<trkpt lat="33.810313" lon="-118.393867">
  <ele>0.0</ele>
  <time>2026-09-02T22:07:05Z</time>
  <course>188.49</course>
  <speed>0.0</speed>
  <fix>3d</fix>
</trkpt>
<trkpt lat="33.810313" lon="-118.393867">
  <ele>-0.13</ele>
  <time>2026-09-02T22:07:05Z</time>
  <course>0.0</course>
  <speed>0.0</speed>
  <fix>3d</fix>
</trkpt>
<trkpt lat="33.810313" lon="-118.393867">
  <ele>0.0</ele>
  <time>2026-09-02T22:07:05Z</time>
  <course>188.5</course>
  <speed>0.0</speed>
  <fix>3d</fix>
</trkpt>
<trkpt lat="33.810313" lon="-118.393867">
  <ele>-0.13</ele>
  <time>2026-09-02T22:07:05Z</time>
  <course>0.0</course>
  <speed>0.0</speed>
  <fix>3d</fix>
</trkpt>
<trkpt lat="33.810313" lon="-118.393867">
  <ele>0.0</ele>
  <time>2026-09-02T22:07:05Z</time>
  <course>188.51</course>
  <speed>0.0</speed>
  <fix>3d</fix>
</trkpt>
<trkpt lat="33.810313" lon="-118.393867">
  <ele>-0.12</ele>
  <time>2026-09-02T22:07:05Z</time>
  <course>0.0</course>
  <speed>0.0</speed>
  <fix>3d</fix>
</trkpt>
<trkpt lat="33.810313" lon="-118.393867">
  <ele>0.0</ele>
  <time>2026-09-02T22:07:05Z</time>
  <course>188.52</course>
  <speed>0.0</speed>
  <fix>3d</fix>
</trkpt>
<trkpt lat="33.810313" lon="-118.393867">
  <ele>-0.12</ele>
  <time>2026-09-02T22:07:05Z</time>
  <course>0.0</course>
  <speed>0.0</speed>
  <fix>3d</fix>
</trkpt>
<trkpt lat="33.810313" lon="-118.393867">
  <ele>0.0</ele>
  <time>2026-09-02T22:07:05Z</time>
  <course>188.53</course>
  <speed>0.0</speed>
  <fix>3d</fix>
</trkpt>
<trkpt lat="33.810313" lon="-118.393867">
  <ele>-0.12</ele>
  <time>2026-09-02T22:07:05Z</time>
  <course>0.0</course>
  <speed>0.0</speed>
  <fix>3d</fix>
</trkpt>
<trkpt lat="33.810313" lon="-118.393867">
  <ele>0.0</ele>
  <time>2026-09-02T22:07:05Z</time>
  <course>188.53</course>
  <speed>0.0</speed>
  <fix>3d</fix>
</trkpt>
<trkpt lat="33.810313" lon="-118.393867">
  <ele>-0.12</ele>
  <time>2026-09-02T22:07:05Z</time>
  <course>0.0</course>
  <speed>0.0</speed>
  <fix>3d</fix>
</trkpt>
<trkpt lat="33.810313" lon="-118.393867">
  <ele>0.0</ele>
  <time>2026-09-02T22:07:05Z</time>
  <course>188.54</course>
  <speed>0.0</speed>
  <fix>3d</fix>
</trkpt>
<trkpt lat="33.810313" lon="-118.393867">
  <ele>-0.12</ele>
  <time>2026-09-02T22:07:05Z</time>
  <course>0.0</course>
  <speed>0.0</speed>
  <fix>3d</fix>
</trkpt>
<trkpt lat="33.810313" lon="-118.393867">
  <ele>0.0</ele>
  <time>2026-09-02T22:07:05Z</time>
  <course>188.54</course>
  <speed>0.0</speed>
  <fix>3d</fix>
</trkpt>
<trkpt lat="33.810313" lon="-118.393867">
  <ele>-0.12</ele>
  <time>2026-09-02T22:07:05Z</time>
  <course>0.0</course>
  <speed>0.0</speed>
  <fix>3d</fix>
</trkpt>
<trkpt lat="33.810313" lon="-118.393867">
  <ele>0.0</ele>
  <time>2026-09-02T22:07:05Z</time>
  <course>188.54</course>
  <speed>0.0</speed>
  <fix>3d</fix>
</trkpt>
<trkpt lat="33.810313" lon="-118.393867">
  <ele>-0.12</ele>
  <time>2026-09-02T22:07:05Z</time>
  <course>0.0</course>
  <speed>0.0</speed>
  <fix>3d</fix>
</trkpt>
<trkpt lat="33.810313" lon="-118.393867">
  <ele>0.0</ele>
  <time>2026-09-02T22:07:05Z</time>
  <course>188.55</course>
  <speed>0.0</speed>
  <fix>3d</fix>
</trkpt>
<trkpt lat="33.810313" lon="-118.393867">
  <ele>-0.12</ele>
  <time>2026-09-02T22:07:05Z</time>
  <course>0.0</course>
  <speed>0.0</speed>
  <fix>3d</fix>
</trkpt>
<trkpt lat="33.810313" lon="-118.393867">
  <ele>0.0</ele>
  <time>2026-09-02T22:07:05Z</time>
  <course>188.55</course>
  <speed>0.0</speed>
  <fix>3d</fix>
</trkpt>
<trkpt lat="33.810313" lon="-118.393867">
  <ele>-0.12</ele>
  <time>2026-09-02T22:07:05Z</time>
  <course>0.0</course>
  <speed>0.0</speed>
  <fix>3d</fix>
</trkpt>
<trkpt lat="33.810313" lon="-118.393867">
  <ele>0.0</ele>
  <time>2026-09-02T22:07:05Z</time>
  <course>188.55</course>
  <speed>0.0</speed>
  <fix>3d</fix>
</trkpt>
<trkpt lat="33.810313" lon="-118.393867">
  <ele>-0.12</ele>
  <time>2026-09-02T22:07:05Z</time>
  <course>0.0</course>
  <speed>0.0</speed>
  <fix>3d</fix>
</trkpt>
<trkpt lat="33.810313" lon="-118.393867">
  <ele>-0.126</ele>
  <time>2026-09-02T22:07:05Z</time>
  <course>188.55</course>
  <speed>0.0</speed>
  <fix>3d</fix>
</trkpt>
<trkpt lat="33.810313" lon="-118.393867">
  <ele>-0.13</ele>
  <time>2026-09-02T22:07:05Z</time>
  <course>0.0</course>
  <speed>0.0</speed>
  <fix>3d</fix>
</trkpt>
<trkpt lat="33.810313" lon="-118.393867">
  <ele>-0.126</ele>
  <time>2026-09-02T22:07:05Z</time>
  <course>188.56</course>
  <speed>0.0</speed>
  <fix>3d</fix>
</trkpt>
<trkpt lat="33.810313" lon="-118.393867">
  <ele>-0.13</ele>
  <time>2026-09-02T22:07:05Z</time>
  <course>0.0</course>
  <speed>0.0</speed>
  <fix>3d</fix>
</trkpt>
<trkpt lat="33.810313" lon="-118.393867">
  <ele>-0.124</ele>
  <time>2026-09-02T22:07:05Z</time>
  <course>188.56</course>
  <speed>0.0</speed>
  <fix>3d</fix>
</trkpt>
<trkpt lat="33.810313" lon="-118.393867">
  <ele>-0.13</ele>
  <time>2026-09-02T22:07:05Z</time>
  <course>0.0</course>
  <speed>0.0</speed>
  <fix>3d</fix>
</trkpt>
<trkpt lat="33.810313" lon="-118.393867">
  <ele>-0.123</ele>
  <time>2026-09-02T22:07:06Z</time>
  <course>188.56</course>
  <speed>0.0</speed>
  <fix>3d</fix>
</trkpt>
<trkpt lat="33.810313" lon="-118.393867">
  <ele>-0.13</ele>
  <time>2026-09-02T22:07:06Z</time>
  <course>0.0</course>
  <speed>0.0</speed>
  <fix>3d</fix>
</trkpt>
<trkpt lat="33.810313" lon="-118.393867">
  <ele>-0.121</ele>
  <time>2026-09-02T22:07:06Z</time>
  <course>188.56</course>
  <speed>0.0</speed>
  <fix>3d</fix>
</trkpt>
<trkpt lat="33.810313" lon="-118.393867">
  <ele>-0.12</ele>
  <time>2026-09-02T22:07:06Z</time>
  <course>0.0</course>
  <speed>0.0</speed>
  <fix>3d</fix>
</trkpt>
<trkpt lat="33.810313" lon="-118.393867">
  <ele>-0.12</ele>
  <time>2026-09-02T22:07:06Z</time>
  <course>188.56</course>
  <speed>0.0</speed>
  <fix>3d</fix>
</trkpt>
<trkpt lat="33.810313" lon="-118.393867">
  <ele>-0.12</ele>
  <time>2026-09-02T22:07:06Z</time>
  <course>0.0</course>
  <speed>0.0</speed>
  <fix>3d</fix>
</trkpt>
<trkpt lat="33.810313" lon="-118.393867">
  <ele>-0.119</ele>
  <time>2026-09-02T22:07:06Z</time>
  <course>188.56</course>
  <speed>0.0</speed>
  <fix>3d</fix>
</trkpt>
<trkpt lat="33.810313" lon="-118.393867">
  <ele>-0.12</ele>
  <time>2026-09-02T22:07:06Z</time>
  <course>0.0</course>
  <speed>0.0</speed>
  <fix>3d</fix>
</trkpt>
<trkpt lat="33.810313" lon="-118.393867">
  <ele>-0.12</ele>
  <time>2026-09-02T22:07:06Z</time>
  <course>188.56</course>
  <speed>0.0</speed>
  <fix>3d</fix>
</trkpt>
<trkpt lat="33.810313" lon="-118.393867">
  <ele>-0.12</ele>
  <time>2026-09-02T22:07:06Z</time>
  <course>0.0</course>
  <speed>0.0</speed>
  <fix>3d</fix>
</trkpt>
<trkpt lat="33.810313" lon="-118.393867">
  <ele>-0.124</ele>
  <time>2026-09-02T22:07:06Z</time>
  <course>188.55</course>
  <speed>0.0</speed>
  <fix>3d</fix>
</trkpt>
<trkpt lat="33.810313" lon="-118.393867">
  <ele>-0.12</ele>
  <time>2026-09-02T22:07:06Z</time>
  <course>0.0</course>
  <speed>0.0</speed>
  <fix>3d</fix>
</trkpt>
<trkpt lat="33.810313" lon="-118.393867">
  <ele>-0.127</ele>
  <time>2026-09-02T22:07:06Z</time>
  <course>188.55</course>
  <speed>0.0</speed>
  <fix>3d</fix>
</trkpt>
<trkpt lat="33.810313" lon="-118.393867">
  <ele>-0.12</ele>
  <time>2026-09-02T22:07:06Z</time>
  <course>0.0</course>
  <speed>0.0</speed>
  <fix>3d</fix>
</trkpt>
<trkpt lat="33.810313" lon="-118.393867">
  <ele>-0.13</ele>
  <time>2026-09-02T22:07:06Z</time>
  <course>188.55</course>
  <speed>0.0</speed>
  <fix>3d</fix>
</trkpt>
<trkpt lat="33.810313" lon="-118.393867">
  <ele>-0.12</ele>
  <time>2026-09-02T22:07:06Z</time>
  <course>0.0</course>
  <speed>0.0</speed>
  <fix>3d</fix>
</trkpt>
<trkpt lat="33.810313" lon="-118.393867">
  <ele>-0.132</ele>
  <time>2026-09-02T22:07:06Z</time>
  <course>188.55</course>
  <speed>0.0</speed>
  <fix>3d</fix>
</trkpt>
<trkpt lat="33.810313" lon="-118.393867">
  <ele>-0.12</ele>
  <time>2026-09-02T22:07:06Z</time>
  <course>0.0</course>
  <speed>0.0</speed>
  <fix>3d</fix>
</trkpt>
<trkpt lat="33.810313" lon="-118.393867">
  <ele>-0.132</ele>
  <time>2026-09-02T22:07:06Z</time>
  <course>188.55</course>
  <speed>0.0</speed>
  <fix>3d</fix>
</trkpt>
<trkpt lat="33.810313" lon="-118.393867">
  <ele>-0.12</ele>
  <time>2026-09-02T22:07:06Z</time>
  <course>0.0</course>
  <speed>0.0</speed>
  <fix>3d</fix>
</trkpt>
<trkpt lat="33.810313" lon="-118.393867">
  <ele>-0.132</ele>
  <time>2026-09-02T22:07:06Z</time>
  <course>188.55</course>
  <speed>0.0</speed>
  <fix>3d</fix>
</trkpt>
<trkpt lat="33.810313" lon="-118.393867">
  <ele>-0.12</ele>
  <time>2026-09-02T22:07:06Z</time>
  <course>0.0</course>
  <speed>0.0</speed>
  <fix>3d</fix>
</trkpt>
<trkpt lat="33.810313" lon="-118.393867">
  <ele>-0.132</ele>
  <time>2026-09-02T22:07:06Z</time>
  <course>188.55</course>
  <speed>0.0</speed>
  <fix>3d</fix>
</trkpt>
<trkpt lat="33.810313" lon="-118.393867">
  <ele>-0.12</ele>
  <time>2026-09-02T22:07:06Z</time>
  <course>0.0</course>
  <speed>0.0</speed>
  <fix>3d</fix>
</trkpt>
<trkpt lat="33.810313" lon="-118.393867">
  <ele>-0.131</ele>
  <time>2026-09-02T22:07:06Z</time>
  <course>188.55</course>
  <speed>0.0</speed>
  <fix>3d</fix>
</trkpt>
<trkpt lat="33.810313" lon="-118.393867">
  <ele>-0.12</ele>
  <time>2026-09-02T22:07:06Z</time>
  <course>0.0</course>
  <speed>0.0</speed>
  <fix>3d</fix>
</trkpt>
<trkpt lat="33.810313" lon="-118.393867">
  <ele>-0.129</ele>
  <time>2026-09-02T22:07:06Z</time>
  <course>188.54</course>
  <speed>0.0</speed>
  <fix>3d</fix>
</trkpt>
<trkpt lat="33.810313" lon="-118.393867">
  <ele>-0.13</ele>
  <time>2026-09-02T22:07:06Z</time>
  <course>0.0</course>
  <speed>0.0</speed>
  <fix>3d</fix>
</trkpt>
<trkpt lat="33.810313" lon="-118.393867">
  <ele>-0.128</ele>
  <time>2026-09-02T22:07:06Z</time>
  <course>188.54</course>
  <speed>0.0</speed>
  <fix>3d</fix>
</trkpt>
<trkpt lat="33.810313" lon="-118.393867">
  <ele>-0.13</ele>
  <time>2026-09-02T22:07:06Z</time>
  <course>0.0</course>
  <speed>0.0</speed>
  <fix>3d</fix>
</trkpt>
<trkpt lat="33.810313" lon="-118.393867">
  <ele>-0.125</ele>
  <time>2026-09-02T22:07:06Z</time>
  <course>188.53</course>
  <speed>0.0</speed>
  <fix>3d</fix>
</trkpt>
<trkpt lat="33.810313" lon="-118.393867">
  <ele>-0.12</ele>
  <time>2026-09-02T22:07:06Z</time>
  <course>0.0</course>
  <speed>0.0</speed>
  <fix>3d</fix>
</trkpt>
<trkpt lat="33.810313" lon="-118.393867">
  <ele>-0.123</ele>
  <time>2026-09-02T22:07:06Z</time>
  <course>188.53</course>
  <speed>0.0</speed>
  <fix>3d</fix>
</trkpt>
<trkpt lat="33.810313" lon="-118.393867">
  <ele>-0.12</ele>
  <time>2026-09-02T22:07:06Z</time>
  <course>0.0</course>
  <speed>0.0</speed>
  <fix>3d</fix>
</trkpt>
<trkpt lat="33.810313" lon="-118.393867">
  <ele>-0.121</ele>
  <time>2026-09-02T22:07:06Z</time>
  <course>188.52</course>
  <speed>0.0</speed>
  <fix>3d</fix>
</trkpt>
<trkpt lat="33.810313" lon="-118.393867">
  <ele>-0.12</ele>
  <time>2026-09-02T22:07:06Z</time>
  <course>0.0</course>
  <speed>0.0</speed>
  <fix>3d</fix>
</trkpt>
<trkpt lat="33.810313" lon="-118.393867">
  <ele>-0.121</ele>
  <time>2026-09-02T22:07:06Z</time>
  <course>188.52</course>
  <speed>0.0</speed>
  <fix>3d</fix>
</trkpt>
<trkpt lat="33.810313" lon="-118.393867">
  <ele>-0.12</ele>
  <time>2026-09-02T22:07:06Z</time>
  <course>0.0</course>
  <speed>0.0</speed>
  <fix>3d</fix>
</trkpt>
<trkpt lat="33.810313" lon="-118.393867">
  <ele>-0.122</ele>
  <time>2026-09-02T22:07:06Z</time>
  <course>188.51</course>
  <speed>0.0</speed>
  <fix>3d</fix>
</trkpt>
<trkpt lat="33.810313" lon="-118.393867">
  <ele>-0.12</ele>
  <time>2026-09-02T22:07:06Z</time>
  <course>0.0</course>
  <speed>0.0</speed>
  <fix>3d</fix>
</trkpt>
<trkpt lat="33.810313" lon="-118.393867">
  <ele>-0.123</ele>
  <time>2026-09-02T22:07:06Z</time>
  <course>188.51</course>
  <speed>0.0</speed>
  <fix>3d</fix>
</trkpt>
<trkpt lat="33.810313" lon="-118.393867">
  <ele>-0.12</ele>
  <time>2026-09-02T22:07:06Z</time>
  <course>0.0</course>
  <speed>0.0</speed>
  <fix>3d</fix>
</trkpt>
<trkpt lat="33.810313" lon="-118.393867">
  <ele>-0.126</ele>
  <time>2026-09-02T22:07:06Z</time>
  <course>188.5</course>
  <speed>0.0</speed>
  <fix>3d</fix>
</trkpt>
<trkpt lat="33.810313" lon="-118.393867">
  <ele>-0.12</ele>
  <time>2026-09-02T22:07:06Z</time>
  <course>0.0</course>
  <speed>0.0</speed>
  <fix>3d</fix>
</trkpt>
<trkpt lat="33.810313" lon="-118.393867">
  <ele>-0.127</ele>
  <time>2026-09-02T22:07:06Z</time>
  <course>188.5</course>
  <speed>0.0</speed>
  <fix>3d</fix>
</trkpt>
<trkpt lat="33.810313" lon="-118.393867">
  <ele>-0.12</ele>
  <time>2026-09-02T22:07:06Z</time>
  <course>0.0</course>
  <speed>0.0</speed>
  <fix>3d</fix>
</trkpt>
<trkpt lat="33.810313" lon="-118.393867">
  <ele>-0.128</ele>
  <time>2026-09-02T22:07:06Z</time>
  <course>188.49</course>
  <speed>0.0</speed>
  <fix>3d</fix>
</trkpt>
<trkpt lat="33.810313" lon="-118.393867">
  <ele>-0.12</ele>
  <time>2026-09-02T22:07:06Z</time>
  <course>0.0</course>
  <speed>0.0</speed>
  <fix>3d</fix>
</trkpt>
<trkpt lat="33.810313" lon="-118.393867">
  <ele>-0.127</ele>
  <time>2026-09-02T22:07:06Z</time>
  <course>188.48</course>
  <speed>0.0</speed>
  <fix>3d</fix>
</trkpt>
<trkpt lat="33.810313" lon="-118.393867">
  <ele>-0.12</ele>
  <time>2026-09-02T22:07:06Z</time>
  <course>0.0</course>
  <speed>0.0</speed>
  <fix>3d</fix>
</trkpt>
<trkpt lat="33.810313" lon="-118.393867">
  <ele>-0.126</ele>
  <time>2026-09-02T22:07:06Z</time>
  <course>188.46</course>
  <speed>0.01</speed>
  <fix>3d</fix>
</trkpt>
<trkpt lat="33.810313" lon="-118.393867">
  <ele>-0.12</ele>
  <time>2026-09-02T22:07:06Z</time>
  <course>0.0</course>
  <speed>0.0</speed>
  <fix>3d</fix>
</trkpt>
<trkpt lat="33.810313" lon="-118.393867">
  <ele>-0.125</ele>
  <time>2026-09-02T22:07:06Z</time>
  <course>188.44</course>
  <speed>0.01</speed>
  <fix>3d</fix>
</trkpt>
<trkpt lat="33.810313" lon="-118.393867">
  <ele>-0.12</ele>
  <time>2026-09-02T22:07:06Z</time>
  <course>0.0</course>
  <speed>0.0</speed>
  <fix>3d</fix>
</trkpt>
<trkpt lat="33.810313" lon="-118.393867">
  <ele>-0.126</ele>
  <time>2026-09-02T22:07:06Z</time>
  <course>188.43</course>
  <speed>0.01</speed>
  <fix>3d</fix>
</trkpt>
<trkpt lat="33.810313" lon="-118.393867">
  <ele>-0.12</ele>
  <time>2026-09-02T22:07:06Z</time>
  <course>0.0</course>
  <speed>0.0</speed>
  <fix>3d</fix>
</trkpt>
<trkpt lat="33.810313" lon="-118.393867">
  <ele>-0.128</ele>
  <time>2026-09-02T22:07:06Z</time>
  <course>188.42</course>
  <speed>0.01</speed>
  <fix>3d</fix>
</trkpt>
<trkpt lat="33.810313" lon="-118.393867">
  <ele>-0.12</ele>
  <time>2026-09-02T22:07:06Z</time>
  <course>0.0</course>
  <speed>0.0</speed>
  <fix>3d</fix>
</trkpt>
<trkpt lat="33.810313" lon="-118.393867">
  <ele>-0.129</ele>
  <time>2026-09-02T22:07:06Z</time>
  <course>188.41</course>
  <speed>0.01</speed>
  <fix>3d</fix>
</trkpt>
<trkpt lat="33.810313" lon="-118.393867">
  <ele>-0.12</ele>
  <time>2026-09-02T22:07:06Z</time>
  <course>0.0</course>
  <speed>0.0</speed>
  <fix>3d</fix>
</trkpt>
<trkpt lat="33.810313" lon="-118.393867">
  <ele>-0.129</ele>
  <time>2026-09-02T22:07:06Z</time>
  <course>188.4</course>
  <speed>0.01</speed>
  <fix>3d</fix>
</trkpt>
<trkpt lat="33.810313" lon="-118.393867">
  <ele>-0.12</ele>
  <time>2026-09-02T22:07:06Z</time>
  <course>0.0</course>
  <speed>0.0</speed>
  <fix>3d</fix>
</trkpt>
<trkpt lat="33.810313" lon="-118.393867">
  <ele>-0.13</ele>
  <time>2026-09-02T22:07:06Z</time>
  <course>188.4</course>
  <speed>0.01414213562373095</speed>
  <fix>3d</fix>
</trkpt>
<trkpt lat="33.810313" lon="-118.393867">
  <ele>-0.12</ele>
  <time>2026-09-02T22:07:06Z</time>
  <course>0.0</course>
  <speed>0.0</speed>
  <fix>3d</fix>
</trkpt>
<trkpt lat="33.810313" lon="-118.393867">
  <ele>-0.13</ele>
  <time>2026-09-02T22:07:06Z</time>
  <course>188.39</course>
  <speed>0.01414213562373095</speed>
  <fix>3d</fix>
</trkpt>
<trkpt lat="33.810313" lon="-118.393867">
  <ele>-0.12</ele>
  <time>2026-09-02T22:07:06Z</time>
  <course>0.0</course>
  <speed>0.0</speed>
  <fix>3d</fix>
</trkpt>
<trkpt lat="33.810313" lon="-118.393867">
  <ele>-0.13</ele>
  <time>2026-09-02T22:07:06Z</time>
  <course>188.38</course>
  <speed>0.01414213562373095</speed>
  <fix>3d</fix>
</trkpt>
<trkpt lat="33.810313" lon="-118.393867">
  <ele>-0.12</ele>
  <time>2026-09-02T22:07:06Z</time>
  <course>0.0</course>
  <speed>0.0</speed>
  <fix>3d</fix>
</trkpt>
<trkpt lat="33.810313" lon="-118.393867">
  <ele>-0.129</ele>
  <time>2026-09-02T22:07:06Z</time>
  <course>188.37</course>
  <speed>0.01414213562373095</speed>
  <fix>3d</fix>
</trkpt>
<trkpt lat="33.810313" lon="-118.393867">
  <ele>-0.12</ele>
  <time>2026-09-02T22:07:06Z</time>
  <course>0.0</course>
  <speed>0.0</speed>
  <fix>3d</fix>
</trkpt>
<trkpt lat="33.810313" lon="-118.393867">
  <ele>-0.128</ele>
  <time>2026-09-02T22:07:06Z</time>
  <course>188.36</course>
  <speed>0.01414213562373095</speed>
  <fix>3d</fix>
</trkpt>
<trkpt lat="33.810313" lon="-118.393867">
  <ele>-0.12</ele>
  <time>2026-09-02T22:07:06Z</time>
  <course>0.0</course>
  <speed>0.0</speed>
  <fix>3d</fix>
</trkpt>
<trkpt lat="33.810313" lon="-118.393867">
  <ele>-0.126</ele>
  <time>2026-09-02T22:07:06Z</time>
  <course>188.36</course>
  <speed>0.01414213562373095</speed>
  <fix>3d</fix>
</trkpt>
<trkpt lat="33.810313" lon="-118.393867">
  <ele>-0.12</ele>
  <time>2026-09-02T22:07:06Z</time>
  <course>0.0</course>
  <speed>0.0</speed>
  <fix>3d</fix>
</trkpt>
<trkpt lat="33.810313" lon="-118.393867">
  <ele>-0.123</ele>
  <time>2026-09-02T22:07:06Z</time>
  <course>188.35</course>
  <speed>0.01414213562373095</speed>
  <fix>3d</fix>
</trkpt>
<trkpt lat="33.810313" lon="-118.393867">
  <ele>-0.12</ele>
  <time>2026-09-02T22:07:06Z</time>
  <course>0.0</course>
  <speed>0.0</speed>
  <fix>3d</fix>
</trkpt>
<trkpt lat="33.810313" lon="-118.393867">
  <ele>-0.122</ele>
  <time>2026-09-02T22:07:06Z</time>
  <course>188.34</course>
  <speed>0.01414213562373095</speed>
  <fix>3d</fix>
</trkpt>
<trkpt lat="33.810313" lon="-118.393867">
  <ele>-0.12</ele>
  <time>2026-09-02T22:07:06Z</time>
  <course>0.0</course>
  <speed>0.0</speed>
  <fix>3d</fix>
</trkpt>
<trkpt lat="33.810313" lon="-118.393867">
  <ele>-0.123</ele>
  <time>2026-09-02T22:07:06Z</time>
  <course>188.33</course>
  <speed>0.01414213562373095</speed>
  <fix>3d</fix>
</trkpt>
<trkpt lat="33.810313" lon="-118.393867">
  <ele>-0.12</ele>
  <time>2026-09-02T22:07:06Z</time>
  <course>0.0</course>
  <speed>0.0</speed>
  <fix>3d</fix>
</trkpt>
<trkpt lat="33.810313" lon="-118.393867">
  <ele>-0.125</ele>
  <time>2026-09-02T22:07:06Z</time>
  <course>188.33</course>
  <speed>0.01414213562373095</speed>
  <fix>3d</fix>
</trkpt>
<trkpt lat="33.810313" lon="-118.393867">
  <ele>-0.12</ele>
  <time>2026-09-02T22:07:06Z</time>
  <course>0.0</course>
  <speed>0.0</speed>
  <fix>3d</fix>
</trkpt>
<trkpt lat="33.810313" lon="-118.393867">
  <ele>-0.128</ele>
  <time>2026-09-02T22:07:06Z</time>
  <course>188.32</course>
  <speed>0.01414213562373095</speed>
  <fix>3d</fix>
</trkpt>
<trkpt lat="33.810313" lon="-118.393867">
  <ele>-0.12</ele>
  <time>2026-09-02T22:07:06Z</time>
  <course>0.0</course>
  <speed>0.0</speed>
  <fix>3d</fix>
</trkpt>
<trkpt lat="33.810313" lon="-118.393867">
  <ele>-0.132</ele>
  <time>2026-09-02T22:07:06Z</time>
  <course>188.31</course>
  <speed>0.01414213562373095</speed>
  <fix>3d</fix>
</trkpt>
<trkpt lat="33.810313" lon="-118.393867">
  <ele>-0.12</ele>
  <time>2026-09-02T22:07:06Z</time>
  <course>0.0</course>
  <speed>0.0</speed>
  <fix>3d</fix>
</trkpt>
<trkpt lat="33.810313" lon="-118.393867">
  <ele>-0.135</ele>
  <time>2026-09-02T22:07:06Z</time>
  <course>188.3</course>
  <speed>0.01414213562373095</speed>
  <fix>3d</fix>
</trkpt>
<trkpt lat="33.810313" lon="-118.393867">
  <ele>-0.12</ele>
  <time>2026-09-02T22:07:06Z</time>
  <course>0.0</course>
  <speed>0.0</speed>
  <fix>3d</fix>
</trkpt>
<trkpt lat="33.810313" lon="-118.393867">
  <ele>-0.135</ele>
  <time>2026-09-02T22:07:06Z</time>
  <course>188.3</course>
  <speed>0.01414213562373095</speed>
  <fix>3d</fix>
</trkpt>
<trkpt lat="33.810313" lon="-118.393867">
  <ele>-0.12</ele>
  <time>2026-09-02T22:07:06Z</time>
  <course>0.0</course>
  <speed>0.0</speed>
  <fix>3d</fix>
</trkpt>
<trkpt lat="33.810313" lon="-118.393867">
  <ele>-0.134</ele>
  <time>2026-09-02T22:07:06Z</time>
  <course>188.29</course>
  <speed>0.01414213562373095</speed>
  <fix>3d</fix>
</trkpt>
<trkpt lat="33.810313" lon="-118.393867">
  <ele>-0.12</ele>
  <time>2026-09-02T22:07:06Z</time>
  <course>0.0</course>
  <speed>0.0</speed>
  <fix>3d</fix>
</trkpt>
<trkpt lat="33.810313" lon="-118.393867">
  <ele>-0.132</ele>
  <time>2026-09-02T22:07:06Z</time>
  <course>188.28</course>
  <speed>0.01414213562373095</speed>
  <fix>3d</fix>
</trkpt>
<trkpt lat="33.810313" lon="-118.393867">
  <ele>-0.12</ele>
  <time>2026-09-02T22:07:06Z</time>
  <course>0.0</course>
  <speed>0.0</speed>
  <fix>3d</fix>
</trkpt>
<trkpt lat="33.810313" lon="-118.393867">
  <ele>-0.129</ele>
  <time>2026-09-02T22:07:06Z</time>
  <course>188.27</course>
  <speed>0.01414213562373095</speed>
  <fix>3d</fix>
</trkpt>
<trkpt lat="33.810313" lon="-118.393867">
  <ele>-0.12</ele>
  <time>2026-09-02T22:07:06Z</time>
  <course>0.0</course>
  <speed>0.0</speed>
  <fix>3d</fix>
</trkpt>
<trkpt lat="33.810313" lon="-118.393867">
  <ele>-0.127</ele>
  <time>2026-09-02T22:07:06Z</time>
  <course>188.26</course>
  <speed>0.01414213562373095</speed>
  <fix>3d</fix>
</trkpt>
<trkpt lat="33.810313" lon="-118.393867">
  <ele>-0.12</ele>
  <time>2026-09-02T22:07:06Z</time>
  <course>0.0</course>
  <speed>0.0</speed>
  <fix>3d</fix>
</trkpt>
<trkpt lat="33.810313" lon="-118.393867">
  <ele>-0.124</ele>
  <time>2026-09-02T22:07:06Z</time>
  <course>188.25</course>
  <speed>0.01414213562373095</speed>
  <fix>3d</fix>
</trkpt>
<trkpt lat="33.810313" lon="-118.393867">
  <ele>-0.12</ele>
  <time>2026-09-02T22:07:06Z</time>
  <course>0.0</course>
  <speed>0.0</speed>
  <fix>3d</fix>
</trkpt>
<trkpt lat="33.810313" lon="-118.393867">
  <ele>-0.123</ele>
  <time>2026-09-02T22:07:06Z</time>
  <course>188.25</course>
  <speed>0.01414213562373095</speed>
  <fix>3d</fix>
</trkpt>
<trkpt lat="33.810313" lon="-118.393867">
  <ele>-0.12</ele>
  <time>2026-09-02T22:07:06Z</time>
  <course>0.0</course>
  <speed>0.0</speed>
  <fix>3d</fix>
</trkpt>
<trkpt lat="33.810313" lon="-118.393867">
  <ele>-0.124</ele>
  <time>2026-09-02T22:07:06Z</time>
  <course>188.24</course>
  <speed>0.01414213562373095</speed>
  <fix>3d</fix>
</trkpt>
<trkpt lat="33.810313" lon="-118.393867">
  <ele>-0.12</ele>
  <time>2026-09-02T22:07:06Z</time>
  <course>0.0</course>
  <speed>0.0</speed>
  <fix>3d</fix>
</trkpt>
<trkpt lat="33.4368002" lon="-117.0859339">
  <ele>-0.11</ele>
  <time>2026-09-02T22:07:06Z</time>
  <course>0.0</course>
  <speed>0.0</speed>
  <fix>3d</fix>
</trkpt>
<trkpt lat="33.4368002" lon="-117.0859339">
  <ele>-0.11</ele>
  <time>2026-09-02T22:07:06Z</time>
  <course>0.0</course>
  <speed>0.0</speed>
  <fix>3d</fix>
</trkpt>
<trkpt lat="33.810313" lon="-118.393867">
  <ele>0.0</ele>
  <time>2026-09-02T22:07:06Z</time>
  <course>173.5</course>
  <speed>0.0</speed>
  <fix>3d</fix>
</trkpt>
<trkpt lat="33.810313" lon="-118.393867">
  <ele>-0.11</ele>
  <time>2026-09-02T22:07:06Z</time>
  <course>0.0</course>
  <speed>0.0</speed>
  <fix>3d</fix>
</trkpt>
<trkpt lat="33.810313" lon="-118.393867">
  <ele>0.0</ele>
  <time>2026-09-02T22:07:06Z</time>
  <course>173.61</course>
  <speed>0.0</speed>
  <fix>3d</fix>
</trkpt>
<trkpt lat="33.810313" lon="-118.393867">
  <ele>-0.11</ele>
  <time>2026-09-02T22:07:06Z</time>
  <course>0.0</course>
  <speed>0.0</speed>
  <fix>3d</fix>
</trkpt>
<trkpt lat="33.810313" lon="-118.393867">
  <ele>0.0</ele>
  <time>2026-09-02T22:07:06Z</time>
  <course>173.98</course>
  <speed>0.0</speed>
  <fix>3d</fix>
</trkpt>
<trkpt lat="33.810313" lon="-118.393867">
  <ele>-0.11</ele>
  <time>2026-09-02T22:07:06Z</time>
  <course>0.0</course>
  <speed>0.0</speed>
  <fix>3d</fix>
</trkpt>
<trkpt lat="33.810313" lon="-118.393867">
  <ele>0.0</ele>
  <time>2026-09-02T22:07:06Z</time>
  <course>174.51</course>
  <speed>0.0</speed>
  <fix>3d</fix>
</trkpt>
<trkpt lat="33.810313" lon="-118.393867">
  <ele>-0.11</ele>
  <time>2026-09-02T22:07:06Z</time>
  <course>0.0</course>
  <speed>0.0</speed>
  <fix>3d</fix>
</trkpt>
<trkpt lat="33.810313" lon="-118.393867">
  <ele>0.0</ele>
  <time>2026-09-02T22:07:06Z</time>
  <course>175.07</course>
  <speed>0.0</speed>
  <fix>3d</fix>
</trkpt>
<trkpt lat="33.810313" lon="-118.393867">
  <ele>-0.12</ele>
  <time>2026-09-02T22:07:06Z</time>
  <course>0.0</course>
  <speed>0.0</speed>
  <fix>3d</fix>
</trkpt>
<trkpt lat="33.810313" lon="-118.393867">
  <ele>0.0</ele>
  <time>2026-09-02T22:07:06Z</time>
  <course>175.61</course>
  <speed>0.0</speed>
  <fix>3d</fix>
</trkpt>
<trkpt lat="33.810313" lon="-118.393867">
  <ele>-0.12</ele>
  <time>2026-09-02T22:07:06Z</time>
  <course>0.0</course>
  <speed>0.0</speed>
  <fix>3d</fix>
</trkpt>
<trkpt lat="33.810313" lon="-118.393867">
  <ele>0.0</ele>
  <time>2026-09-02T22:07:06Z</time>
  <course>176.12</course>
  <speed>0.0</speed>
  <fix>3d</fix>
</trkpt>
<trkpt lat="33.810313" lon="-118.393867">
  <ele>-0.13</ele>
  <time>2026-09-02T22:07:06Z</time>
  <course>0.0</course>
  <speed>0.0</speed>
  <fix>3d</fix>
</trkpt>
<trkpt lat="33.810313" lon="-118.393867">
  <ele>0.0</ele>
  <time>2026-09-02T22:07:06Z</time>
  <course>176.6</course>
  <speed>0.0</speed>
  <fix>3d</fix>
</trkpt>
<trkpt lat="33.810313" lon="-118.393867">
  <ele>-0.13</ele>
  <time>2026-09-02T22:07:06Z</time>
  <course>0.0</course>
  <speed>0.0</speed>
  <fix>3d</fix>
</trkpt>
<trkpt lat="33.810313" lon="-118.393867">
  <ele>0.0</ele>
  <time>2026-09-02T22:07:06Z</time>
  <course>177.07</course>
  <speed>0.0</speed>
  <fix>3d</fix>
</trkpt>
<trkpt lat="33.810313" lon="-118.393867">
  <ele>-0.13</ele>
  <time>2026-09-02T22:07:06Z</time>
  <course>0.0</course>
  <speed>0.0</speed>
  <fix>3d</fix>
</trkpt>
<trkpt lat="33.810313" lon="-118.393867">
  <ele>0.0</ele>
  <time>2026-09-02T22:07:06Z</time>
  <course>177.53</course>
  <speed>0.0</speed>
  <fix>3d</fix>
</trkpt>
<trkpt lat="33.810313" lon="-118.393867">
  <ele>-0.13</ele>
  <time>2026-09-02T22:07:06Z</time>
  <course>0.0</course>
  <speed>0.0</speed>
  <fix>3d</fix>
</trkpt>
<trkpt lat="33.810313" lon="-118.393867">
  <ele>0.0</ele>
  <time>2026-09-02T22:07:06Z</time>
  <course>177.97</course>
  <speed>0.0</speed>
  <fix>3d</fix>
</trkpt>
<trkpt lat="33.810313" lon="-118.393867">
  <ele>-0.14</ele>
  <time>2026-09-02T22:07:06Z</time>
  <course>0.0</course>
  <speed>0.0</speed>
  <fix>3d</fix>
</trkpt>
<trkpt lat="33.810313" lon="-118.393867">
  <ele>0.0</ele>
  <time>2026-09-02T22:07:06Z</time>
  <course>178.4</course>
  <speed>0.0</speed>
  <fix>3d</fix>
</trkpt>
<trkpt lat="33.810313" lon="-118.393867">
  <ele>-0.14</ele>
  <time>2026-09-02T22:07:06Z</time>
  <course>0.0</course>
  <speed>0.0</speed>
  <fix>3d</fix>
</trkpt>
<trkpt lat="33.810313" lon="-118.393867">
  <ele>0.0</ele>
  <time>2026-09-02T22:07:06Z</time>
  <course>178.83</course>
  <speed>0.0</speed>
  <fix>3d</fix>
</trkpt>
<trkpt lat="33.810313" lon="-118.393867">
  <ele>-0.14</ele>
  <time>2026-09-02T22:07:06Z</time>
  <course>0.0</course>
  <speed>0.0</speed>
  <fix>3d</fix>
</trkpt>
<trkpt lat="33.810313" lon="-118.393867">
  <ele>0.0</ele>
  <time>2026-09-02T22:07:06Z</time>
  <course>179.23</course>
  <speed>0.0</speed>
  <fix>3d</fix>
</trkpt>
<trkpt lat="33.810313" lon="-118.393867">
  <ele>-0.14</ele>
  <time>2026-09-02T22:07:06Z</time>
  <course>0.0</course>
  <speed>0.0</speed>
  <fix>3d</fix>
</trkpt>
<trkpt lat="33.810313" lon="-118.393867">
  <ele>0.0</ele>
  <time>2026-09-02T22:07:06Z</time>
  <course>179.62</course>
  <speed>0.0</speed>
  <fix>3d</fix>
</trkpt>
<trkpt lat="33.810313" lon="-118.393867">
  <ele>-0.14</ele>
  <time>2026-09-02T22:07:06Z</time>
  <course>0.0</course>
  <speed>0.0</speed>
  <fix>3d</fix>
</trkpt>
<trkpt lat="33.810313" lon="-118.393867">
  <ele>0.0</ele>
  <time>2026-09-02T22:07:06Z</time>
  <course>180.01</course>
  <speed>0.0</speed>
  <fix>3d</fix>
</trkpt>
<trkpt lat="33.810313" lon="-118.393867">
  <ele>-0.14</ele>
  <time>2026-09-02T22:07:06Z</time>
  <course>0.0</course>
  <speed>0.0</speed>
  <fix>3d</fix>
</trkpt>
<trkpt lat="33.810313" lon="-118.393867">
  <ele>0.0</ele>
  <time>2026-09-02T22:07:06Z</time>
  <course>180.37</course>
  <speed>0.0</speed>
  <fix>3d</fix>
</trkpt>
<trkpt lat="33.810313" lon="-118.393867">
  <ele>-0.14</ele>
  <time>2026-09-02T22:07:06Z</time>
  <course>0.0</course>
  <speed>0.0</speed>
  <fix>3d</fix>
</trkpt>
<trkpt lat="33.810313" lon="-118.393867">
  <ele>0.0</ele>
  <time>2026-09-02T22:07:06Z</time>
  <course>180.73</course>
  <speed>0.0</speed>
  <fix>3d</fix>
</trkpt>
<trkpt lat="33.810313" lon="-118.393867">
  <ele>-0.14</ele>
  <time>2026-09-02T22:07:06Z</time>
  <course>0.0</course>
  <speed>0.0</speed>
  <fix>3d</fix>
</trkpt>
<trkpt lat="33.810313" lon="-118.393867">
  <ele>0.0</ele>
  <time>2026-09-02T22:07:06Z</time>
  <course>181.07</course>
  <speed>0.0</speed>
  <fix>3d</fix>
</trkpt>
<trkpt lat="33.810313" lon="-118.393867">
  <ele>-0.13</ele>
  <time>2026-09-02T22:07:06Z</time>
  <course>0.0</course>
  <speed>0.0</speed>
  <fix>3d</fix>
</trkpt>
<trkpt lat="33.810313" lon="-118.393867">
  <ele>0.0</ele>
  <time>2026-09-02T22:07:06Z</time>
  <course>181.4</course>
  <speed>0.0</speed>
  <fix>3d</fix>
</trkpt>
<trkpt lat="33.810313" lon="-118.393867">
  <ele>-0.13</ele>
  <time>2026-09-02T22:07:06Z</time>
  <course>0.0</course>
  <speed>0.0</speed>
  <fix>3d</fix>
</trkpt>
<trkpt lat="33.810313" lon="-118.393867">
  <ele>0.0</ele>
  <time>2026-09-02T22:07:06Z</time>
  <course>181.72</course>
  <speed>0.0</speed>
  <fix>3d</fix>
</trkpt>
<trkpt lat="33.810313" lon="-118.393867">
  <ele>-0.12</ele>
  <time>2026-09-02T22:07:06Z</time>
  <course>0.0</course>
  <speed>0.0</speed>
  <fix>3d</fix>
</trkpt>
<trkpt lat="33.810313" lon="-118.393867">
  <ele>0.0</ele>
  <time>2026-09-02T22:07:06Z</time>
  <course>182.02</course>
  <speed>0.0</speed>
  <fix>3d</fix>
</trkpt>
<trkpt lat="33.810313" lon="-118.393867">
  <ele>-0.12</ele>
  <time>2026-09-02T22:07:06Z</time>
  <course>0.0</course>
  <speed>0.0</speed>
  <fix>3d</fix>
</trkpt>
<trkpt lat="33.810313" lon="-118.393867">
  <ele>0.0</ele>
  <time>2026-09-02T22:07:06Z</time>
  <course>182.32</course>
  <speed>0.0</speed>
  <fix>3d</fix>
</trkpt>
<trkpt lat="33.810313" lon="-118.393867">
  <ele>-0.12</ele>
  <time>2026-09-02T22:07:06Z</time>
  <course>0.0</course>
  <speed>0.0</speed>
  <fix>3d</fix>
</trkpt>
<trkpt lat="33.810313" lon="-118.393867">
  <ele>0.0</ele>
  <time>2026-09-02T22:07:06Z</time>
  <course>182.6</course>
  <speed>0.0</speed>
  <fix>3d</fix>
</trkpt>
<trkpt lat="33.810313" lon="-118.393867">
  <ele>-0.12</ele>
  <time>2026-09-02T22:07:06Z</time>
  <course>0.0</course>
  <speed>0.0</speed>
  <fix>3d</fix>
</trkpt>
<trkpt lat="33.810313" lon="-118.393867">
  <ele>0.0</ele>
  <time>2026-09-02T22:07:06Z</time>
  <course>182.87</course>
  <speed>0.0</speed>
  <fix>3d</fix>
</trkpt>
<trkpt lat="33.810313" lon="-118.393867">
  <ele>-0.11</ele>
  <time>2026-09-02T22:07:06Z</time>
  <course>0.0</course>
  <speed>0.0</speed>
  <fix>3d</fix>
</trkpt>
<trkpt lat="33.810313" lon="-118.393867">
  <ele>0.0</ele>
  <time>2026-09-02T22:07:06Z</time>
  <course>183.14</course>
  <speed>0.0</speed>
  <fix>3d</fix>
</trkpt>
<trkpt lat="33.810313" lon="-118.393867">
  <ele>-0.11</ele>
  <time>2026-09-02T22:07:06Z</time>
  <course>0.0</course>
  <speed>0.0</speed>
  <fix>3d</fix>
</trkpt>
<trkpt lat="33.810313" lon="-118.393867">
  <ele>0.0</ele>
  <time>2026-09-02T22:07:06Z</time>
  <course>183.39</course>
  <speed>0.0</speed>
  <fix>3d</fix>
</trkpt>
<trkpt lat="33.810313" lon="-118.393867">
  <ele>-0.11</ele>
  <time>2026-09-02T22:07:06Z</time>
  <course>0.0</course>
  <speed>0.0</speed>
  <fix>3d</fix>
</trkpt>
<trkpt lat="33.810313" lon="-118.393867">
  <ele>0.0</ele>
  <time>2026-09-02T22:07:06Z</time>
  <course>183.63</course>
  <speed>0.0</speed>
  <fix>3d</fix>
</trkpt>
<trkpt lat="33.810313" lon="-118.393867">
  <ele>-0.11</ele>
  <time>2026-09-02T22:07:06Z</time>
  <course>0.0</course>
  <speed>0.0</speed>
  <fix>3d</fix>
</trkpt>
<trkpt lat="33.810313" lon="-118.393867">
  <ele>0.0</ele>
  <time>2026-09-02T22:07:06Z</time>
  <course>183.86</course>
  <speed>0.0</speed>
  <fix>3d</fix>
</trkpt>
<trkpt lat="33.810313" lon="-118.393867">
  <ele>-0.12</ele>
  <time>2026-09-02T22:07:06Z</time>
  <course>0.0</course>
  <speed>0.0</speed>
  <fix>3d</fix>
</trkpt>
<trkpt lat="33.810313" lon="-118.393867">
  <ele>0.0</ele>
  <time>2026-09-02T22:07:06Z</time>
  <course>184.08</course>
  <speed>0.0</speed>
  <fix>3d</fix>
</trkpt>
<trkpt lat="33.810313" lon="-118.393867">
  <ele>-0.12</ele>
  <time>2026-09-02T22:07:06Z</time>
  <course>0.0</course>
  <speed>0.0</speed>
  <fix>3d</fix>
</trkpt>
<trkpt lat="33.810313" lon="-118.393867">
  <ele>0.0</ele>
  <time>2026-09-02T22:07:06Z</time>
  <course>184.3</course>
  <speed>0.0</speed>
  <fix>3d</fix>
</trkpt>
<trkpt lat="33.810313" lon="-118.393867">
  <ele>-0.13</ele>
  <time>2026-09-02T22:07:06Z</time>
  <course>0.0</course>
  <speed>0.0</speed>
  <fix>3d</fix>
</trkpt>
<trkpt lat="33.810313" lon="-118.393867">
  <ele>0.0</ele>
  <time>2026-09-02T22:07:06Z</time>
  <course>184.5</course>
  <speed>0.0</speed>
  <fix>3d</fix>
</trkpt>
<trkpt lat="33.810313" lon="-118.393867">
  <ele>-0.13</ele>
  <time>2026-09-02T22:07:06Z</time>
  <course>0.0</course>
  <speed>0.0</speed>
  <fix>3d</fix>
</trkpt>
<trkpt lat="33.810313" lon="-118.393867">
  <ele>0.0</ele>
  <time>2026-09-02T22:07:06Z</time>
  <course>184.7</course>
  <speed>0.0</speed>
  <fix>3d</fix>
</trkpt>
<trkpt lat="33.810313" lon="-118.393867">
  <ele>-0.13</ele>
  <time>2026-09-02T22:07:06Z</time>
  <course>0.0</course>
  <speed>0.0</speed>
  <fix>3d</fix>
</trkpt>
<trkpt lat="33.810313" lon="-118.393867">
  <ele>0.0</ele>
  <time>2026-09-02T22:07:06Z</time>
  <course>184.89</course>
  <speed>0.0</speed>
  <fix>3d</fix>
</trkpt>
<trkpt lat="33.810313" lon="-118.393867">
  <ele>-0.13</ele>
  <time>2026-09-02T22:07:06Z</time>
  <course>0.0</course>
  <speed>0.0</speed>
  <fix>3d</fix>
</trkpt>
<trkpt lat="33.810313" lon="-118.393867">
  <ele>0.0</ele>
  <time>2026-09-02T22:07:06Z</time>
  <course>185.07</course>
  <speed>0.0</speed>
  <fix>3d</fix>
</trkpt>
<trkpt lat="33.810313" lon="-118.393867">
  <ele>-0.14</ele>
  <time>2026-09-02T22:07:06Z</time>
  <course>0.0</course>
  <speed>0.0</speed>
  <fix>3d</fix>
</trkpt>
<trkpt lat="33.810313" lon="-118.393867">
  <ele>0.0</ele>
  <time>2026-09-02T22:07:06Z</time>
  <course>185.24</course>
  <speed>0.0</speed>
  <fix>3d</fix>
</trkpt>
<trkpt lat="33.810313" lon="-118.393867">
  <ele>-0.14</ele>
  <time>2026-09-02T22:07:06Z</time>
  <course>0.0</course>
  <speed>0.0</speed>
  <fix>3d</fix>
</trkpt>
<trkpt lat="33.810313" lon="-118.393867">
  <ele>0.0</ele>
  <time>2026-09-02T22:07:06Z</time>
  <course>185.41</course>
  <speed>0.0</speed>
  <fix>3d</fix>
</trkpt>
<trkpt lat="33.810313" lon="-118.393867">
  <ele>-0.13</ele>
  <time>2026-09-02T22:07:06Z</time>
  <course>0.0</course>
  <speed>0.0</speed>
  <fix>3d</fix>
</trkpt>
<trkpt lat="33.810313" lon="-118.393867">
  <ele>0.0</ele>
  <time>2026-09-02T22:07:06Z</time>
  <course>185.56</course>
  <speed>0.0</speed>
  <fix>3d</fix>
</trkpt>
<trkpt lat="33.810313" lon="-118.393867">
  <ele>-0.13</ele>
  <time>2026-09-02T22:07:07Z</time>
  <course>0.0</course>
  <speed>0.0</speed>
  <fix>3d</fix>
</trkpt>
<trkpt lat="33.810313" lon="-118.393867">
  <ele>0.0</ele>
  <time>2026-09-02T22:07:07Z</time>
  <course>185.72</course>
  <speed>0.0</speed>
  <fix>3d</fix>
</trkpt>
<trkpt lat="33.810313" lon="-118.393867">
  <ele>-0.13</ele>
  <time>2026-09-02T22:07:07Z</time>
  <course>0.0</course>
  <speed>0.0</speed>
  <fix>3d</fix>
</trkpt>
<trkpt lat="33.810313" lon="-118.393867">
  <ele>0.0</ele>
  <time>2026-09-02T22:07:07Z</time>
  <course>185.86</course>
  <speed>0.0</speed>
  <fix>3d</fix>
</trkpt>
<trkpt lat="33.810313" lon="-118.393867">
  <ele>-0.13</ele>
  <time>2026-09-02T22:07:07Z</time>
  <course>0.0</course>
  <speed>0.0</speed>
  <fix>3d</fix>
</trkpt>
<trkpt lat="33.810313" lon="-118.393867">
  <ele>0.0</ele>
  <time>2026-09-02T22:07:07Z</time>
  <course>186.0</course>
  <speed>0.0</speed>
  <fix>3d</fix>
</trkpt>
<trkpt lat="33.810313" lon="-118.393867">
  <ele>-0.12</ele>
  <time>2026-09-02T22:07:07Z</time>
  <course>0.0</course>
  <speed>0.0</speed>
  <fix>3d</fix>
</trkpt>
<trkpt lat="33.810313" lon="-118.393867">
  <ele>0.0</ele>
  <time>2026-09-02T22:07:07Z</time>
  <course>186.13</course>
  <speed>0.0</speed>
  <fix>3d</fix>
</trkpt>
<trkpt lat="33.810313" lon="-118.393867">
  <ele>-0.12</ele>
  <time>2026-09-02T22:07:07Z</time>
  <course>0.0</course>
  <speed>0.0</speed>
  <fix>3d</fix>
</trkpt>
<trkpt lat="33.810313" lon="-118.393867">
  <ele>0.0</ele>
  <time>2026-09-02T22:07:07Z</time>
  <course>186.26</course>
  <speed>0.0</speed>
  <fix>3d</fix>
</trkpt>
<trkpt lat="33.810313" lon="-118.393867">
  <ele>-0.12</ele>
  <time>2026-09-02T22:07:07Z</time>
  <course>0.0</course>
  <speed>0.0</speed>
  <fix>3d</fix>
</trkpt>
<trkpt lat="33.810313" lon="-118.393867">
  <ele>0.0</ele>
  <time>2026-09-02T22:07:07Z</time>
  <course>186.38</course>
  <speed>0.0</speed>
  <fix>3d</fix>
</trkpt>
<trkpt lat="33.810313" lon="-118.393867">
  <ele>-0.12</ele>
  <time>2026-09-02T22:07:07Z</time>
  <course>0.0</course>
  <speed>0.0</speed>
  <fix>3d</fix>
</trkpt>
<trkpt lat="33.810313" lon="-118.393867">
  <ele>0.0</ele>
  <time>2026-09-02T22:07:07Z</time>
  <course>186.49</course>
  <speed>0.0</speed>
  <fix>3d</fix>
</trkpt>
<trkpt lat="33.810313" lon="-118.393867">
  <ele>-0.12</ele>
  <time>2026-09-02T22:07:07Z</time>
  <course>0.0</course>
  <speed>0.0</speed>
  <fix>3d</fix>
</trkpt>
<trkpt lat="33.810313" lon="-118.393867">
  <ele>0.0</ele>
  <time>2026-09-02T22:07:07Z</time>
  <course>186.6</course>
  <speed>0.0</speed>
  <fix>3d</fix>
</trkpt>
<trkpt lat="33.810313" lon="-118.393867">
  <ele>-0.12</ele>
  <time>2026-09-02T22:07:07Z</time>
  <course>0.0</course>
  <speed>0.0</speed>
  <fix>3d</fix>
</trkpt>
<trkpt lat="33.810313" lon="-118.393867">
  <ele>0.0</ele>
  <time>2026-09-02T22:07:07Z</time>
  <course>186.71</course>
  <speed>0.0</speed>
  <fix>3d</fix>
</trkpt>
<trkpt lat="33.810313" lon="-118.393867">
  <ele>-0.12</ele>
  <time>2026-09-02T22:07:07Z</time>
  <course>0.0</course>
  <speed>0.0</speed>
  <fix>3d</fix>
</trkpt>
<trkpt lat="33.810313" lon="-118.393867">
  <ele>0.0</ele>
  <time>2026-09-02T22:07:07Z</time>
  <course>186.81</course>
  <speed>0.0</speed>
  <fix>3d</fix>
</trkpt>
<trkpt lat="33.810313" lon="-118.393867">
  <ele>-0.12</ele>
  <time>2026-09-02T22:07:07Z</time>
  <course>0.0</course>
  <speed>0.0</speed>
  <fix>3d</fix>
</trkpt>
<trkpt lat="33.810313" lon="-118.393867">
  <ele>0.0</ele>
  <time>2026-09-02T22:07:07Z</time>
  <course>186.9</course>
  <speed>0.0</speed>
  <fix>3d</fix>
</trkpt>
<trkpt lat="33.810313" lon="-118.393867">
  <ele>-0.12</ele>
  <time>2026-09-02T22:07:07Z</time>
  <course>0.0</course>
  <speed>0.0</speed>
  <fix>3d</fix>
</trkpt>
<trkpt lat="33.810313" lon="-118.393867">
  <ele>0.0</ele>
  <time>2026-09-02T22:07:07Z</time>
  <course>187.0</course>
  <speed>0.0</speed>
  <fix>3d</fix>
</trkpt>
<trkpt lat="33.810313" lon="-118.393867">
  <ele>-0.12</ele>
  <time>2026-09-02T22:07:07Z</time>
  <course>0.0</course>
  <speed>0.0</speed>
  <fix>3d</fix>
</trkpt>
<trkpt lat="33.810313" lon="-118.393867">
  <ele>0.0</ele>
  <time>2026-09-02T22:07:07Z</time>
  <course>187.08</course>
  <speed>0.0</speed>
  <fix>3d</fix>
</trkpt>
<trkpt lat="33.810313" lon="-118.393867">
  <ele>-0.13</ele>
  <time>2026-09-02T22:07:07Z</time>
  <course>0.0</course>
  <speed>0.0</speed>
  <fix>3d</fix>
</trkpt>
<trkpt lat="33.810313" lon="-118.393867">
  <ele>0.0</ele>
  <time>2026-09-02T22:07:07Z</time>
  <course>187.17</course>
  <speed>0.0</speed>
  <fix>3d</fix>
</trkpt>
<trkpt lat="33.810313" lon="-118.393867">
  <ele>-0.13</ele>
  <time>2026-09-02T22:07:07Z</time>
  <course>0.0</course>
  <speed>0.0</speed>
  <fix>3d</fix>
</trkpt>
<trkpt lat="33.810313" lon="-118.393867">
  <ele>0.0</ele>
  <time>2026-09-02T22:07:07Z</time>
  <course>187.24</course>
  <speed>0.0</speed>
  <fix>3d</fix>
</trkpt>
<trkpt lat="33.810313" lon="-118.393867">
  <ele>-0.13</ele>
  <time>2026-09-02T22:07:07Z</time>
  <course>0.0</course>
  <speed>0.0</speed>
  <fix>3d</fix>
</trkpt>
<trkpt lat="33.810313" lon="-118.393867">
  <ele>0.0</ele>
  <time>2026-09-02T22:07:07Z</time>
  <course>187.32</course>
  <speed>0.0</speed>
  <fix>3d</fix>
</trkpt>
<trkpt lat="33.810313" lon="-118.393867">
  <ele>-0.13</ele>
  <time>2026-09-02T22:07:07Z</time>
  <course>0.0</course>
  <speed>0.0</speed>
  <fix>3d</fix>
</trkpt>
<trkpt lat="33.810313" lon="-118.393867">
  <ele>0.0</ele>
  <time>2026-09-02T22:07:07Z</time>
  <course>187.39</course>
  <speed>0.0</speed>
  <fix>3d</fix>
</trkpt>
<trkpt lat="33.810313" lon="-118.393867">
  <ele>-0.13</ele>
  <time>2026-09-02T22:07:07Z</time>
  <course>0.0</course>
  <speed>0.0</speed>
  <fix>3d</fix>
</trkpt>
<trkpt lat="33.810313" lon="-118.393867">
  <ele>0.0</ele>
  <time>2026-09-02T22:07:07Z</time>
  <course>187.46</course>
  <speed>0.0</speed>
  <fix>3d</fix>
</trkpt>
<trkpt lat="33.810313" lon="-118.393867">
  <ele>-0.13</ele>
  <time>2026-09-02T22:07:07Z</time>
  <course>0.0</course>
  <speed>0.0</speed>
  <fix>3d</fix>
</trkpt>
<trkpt lat="33.810313" lon="-118.393867">
  <ele>0.0</ele>
  <time>2026-09-02T22:07:07Z</time>
  <course>187.53</course>
  <speed>0.0</speed>
  <fix>3d</fix>
</trkpt>
<trkpt lat="33.810313" lon="-118.393867">
  <ele>-0.13</ele>
  <time>2026-09-02T22:07:07Z</time>
  <course>0.0</course>
  <speed>0.0</speed>
  <fix>3d</fix>
</trkpt>
<trkpt lat="33.810313" lon="-118.393867">
  <ele>0.0</ele>
  <time>2026-09-02T22:07:07Z</time>
  <course>187.59</course>
  <speed>0.0</speed>
  <fix>3d</fix>
</trkpt>
<trkpt lat="33.810313" lon="-118.393867">
  <ele>-0.13</ele>
  <time>2026-09-02T22:07:07Z</time>
  <course>0.0</course>
  <speed>0.0</speed>
  <fix>3d</fix>
</trkpt>
<trkpt lat="33.810313" lon="-118.393867">
  <ele>0.0</ele>
  <time>2026-09-02T22:07:07Z</time>
  <course>187.65</course>
  <speed>0.0</speed>
  <fix>3d</fix>
</trkpt>
<trkpt lat="33.810313" lon="-118.393867">
  <ele>-0.12</ele>
  <time>2026-09-02T22:07:07Z</time>
  <course>0.0</course>
  <speed>0.0</speed>
  <fix>3d</fix>
</trkpt>
<trkpt lat="33.810313" lon="-118.393867">
  <ele>0.0</ele>
  <time>2026-09-02T22:07:07Z</time>
  <course>187.7</course>
  <speed>0.0</speed>
  <fix>3d</fix>
</trkpt>
<trkpt lat="33.810313" lon="-118.393867">
  <ele>-0.12</ele>
  <time>2026-09-02T22:07:07Z</time>
  <course>0.0</course>
  <speed>0.0</speed>
  <fix>3d</fix>
</trkpt>
<trkpt lat="33.810313" lon="-118.393867">
  <ele>0.0</ele>
  <time>2026-09-02T22:07:07Z</time>
  <course>187.76</course>
  <speed>0.0</speed>
  <fix>3d</fix>
</trkpt>
<trkpt lat="33.810313" lon="-118.393867">
  <ele>-0.12</ele>
  <time>2026-09-02T22:07:07Z</time>
  <course>0.0</course>
  <speed>0.0</speed>
  <fix>3d</fix>
</trkpt>
<trkpt lat="33.810313" lon="-118.393867">
  <ele>0.0</ele>
  <time>2026-09-02T22:07:07Z</time>
  <course>187.81</course>
  <speed>0.0</speed>
  <fix>3d</fix>
</trkpt>
<trkpt lat="33.810313" lon="-118.393867">
  <ele>-0.12</ele>
  <time>2026-09-02T22:07:07Z</time>
  <course>0.0</course>
  <speed>0.0</speed>
  <fix>3d</fix>
</trkpt>
<trkpt lat="33.810313" lon="-118.393867">
  <ele>0.0</ele>
  <time>2026-09-02T22:07:07Z</time>
  <course>187.86</course>
  <speed>0.0</speed>
  <fix>3d</fix>
</trkpt>
<trkpt lat="33.810313" lon="-118.393867">
  <ele>-0.12</ele>
  <time>2026-09-02T22:07:07Z</time>
  <course>0.0</course>
  <speed>0.0</speed>
  <fix>3d</fix>
</trkpt>
<trkpt lat="33.810313" lon="-118.393867">
  <ele>0.0</ele>
  <time>2026-09-02T22:07:07Z</time>
  <course>187.9</course>
  <speed>0.0</speed>
  <fix>3d</fix>
</trkpt>
<trkpt lat="33.810313" lon="-118.393867">
  <ele>-0.12</ele>
  <time>2026-09-02T22:07:07Z</time>
  <course>0.0</course>
  <speed>0.0</speed>
  <fix>3d</fix>
</trkpt>
<trkpt lat="33.810313" lon="-118.393867">
  <ele>0.0</ele>
  <time>2026-09-02T22:07:07Z</time>
  <course>187.94</course>
  <speed>0.0</speed>
  <fix>3d</fix>
</trkpt>
<trkpt lat="33.810313" lon="-118.393867">
  <ele>-0.12</ele>
  <time>2026-09-02T22:07:07Z</time>
  <course>0.0</course>
  <speed>0.0</speed>
  <fix>3d</fix>
</trkpt>
<trkpt lat="33.810313" lon="-118.393867">
  <ele>0.0</ele>
  <time>2026-09-02T22:07:07Z</time>
  <course>187.99</course>
  <speed>0.0</speed>
  <fix>3d</fix>
</trkpt>
<trkpt lat="33.810313" lon="-118.393867">
  <ele>-0.12</ele>
  <time>2026-09-02T22:07:07Z</time>
  <course>0.0</course>
  <speed>0.0</speed>
  <fix>3d</fix>
</trkpt>
<trkpt lat="33.810313" lon="-118.393867">
  <ele>0.0</ele>
  <time>2026-09-02T22:07:07Z</time>
  <course>188.02</course>
  <speed>0.0</speed>
  <fix>3d</fix>
</trkpt>
<trkpt lat="33.810313" lon="-118.393867">
  <ele>-0.12</ele>
  <time>2026-09-02T22:07:07Z</time>
  <course>0.0</course>
  <speed>0.0</speed>
  <fix>3d</fix>
</trkpt>
<trkpt lat="33.810313" lon="-118.393867">
  <ele>0.0</ele>
  <time>2026-09-02T22:07:07Z</time>
  <course>188.06</course>
  <speed>0.0</speed>
  <fix>3d</fix>
</trkpt>
<trkpt lat="33.810313" lon="-118.393867">
  <ele>-0.12</ele>
  <time>2026-09-02T22:07:07Z</time>
  <course>0.0</course>
  <speed>0.0</speed>
  <fix>3d</fix>
</trkpt>
<trkpt lat="33.810313" lon="-118.393867">
  <ele>0.0</ele>
  <time>2026-09-02T22:07:07Z</time>
  <course>188.1</course>
  <speed>0.0</speed>
  <fix>3d</fix>
</trkpt>
<trkpt lat="33.810313" lon="-118.393867">
  <ele>-0.13</ele>
  <time>2026-09-02T22:07:07Z</time>
  <course>0.0</course>
  <speed>0.0</speed>
  <fix>3d</fix>
</trkpt>
<trkpt lat="33.810313" lon="-118.393867">
  <ele>0.0</ele>
  <time>2026-09-02T22:07:07Z</time>
  <course>188.13</course>
  <speed>0.0</speed>
  <fix>3d</fix>
</trkpt>
<trkpt lat="33.810313" lon="-118.393867">
  <ele>-0.13</ele>
  <time>2026-09-02T22:07:07Z</time>
  <course>0.0</course>
  <speed>0.0</speed>
  <fix>3d</fix>
</trkpt>
<trkpt lat="33.810313" lon="-118.393867">
  <ele>0.0</ele>
  <time>2026-09-02T22:07:07Z</time>
  <course>188.16</course>
  <speed>0.0</speed>
  <fix>3d</fix>
</trkpt>
<trkpt lat="33.810313" lon="-118.393867">
  <ele>-0.13</ele>
  <time>2026-09-02T22:07:07Z</time>
  <course>0.0</course>
  <speed>0.0</speed>
  <fix>3d</fix>
</trkpt>
<trkpt lat="33.810313" lon="-118.393867">
  <ele>0.0</ele>
  <time>2026-09-02T22:07:07Z</time>
  <course>188.19</course>
  <speed>0.0</speed>
  <fix>3d</fix>
</trkpt>
<trkpt lat="33.810313" lon="-118.393867">
  <ele>-0.13</ele>
  <time>2026-09-02T22:07:07Z</time>
  <course>0.0</course>
  <speed>0.0</speed>
  <fix>3d</fix>
</trkpt>
<trkpt lat="33.810313" lon="-118.393867">
  <ele>0.0</ele>
  <time>2026-09-02T22:07:07Z</time>
  <course>188.22</course>
  <speed>0.0</speed>
  <fix>3d</fix>
</trkpt>
<trkpt lat="33.810313" lon="-118.393867">
  <ele>-0.13</ele>
  <time>2026-09-02T22:07:07Z</time>
  <course>0.0</course>
  <speed>0.0</speed>
  <fix>3d</fix>
</trkpt>
<trkpt lat="33.810313" lon="-118.393867">
  <ele>0.0</ele>
  <time>2026-09-02T22:07:07Z</time>
  <course>188.24</course>
  <speed>0.0</speed>
  <fix>3d</fix>
</trkpt>
<trkpt lat="33.810313" lon="-118.393867">
  <ele>-0.13</ele>
  <time>2026-09-02T22:07:07Z</time>
  <course>0.0</course>
  <speed>0.0</speed>
  <fix>3d</fix>
</trkpt>
<trkpt lat="33.810313" lon="-118.393867">
  <ele>0.0</ele>
  <time>2026-09-02T22:07:07Z</time>
  <course>188.27</course>
  <speed>0.0</speed>
  <fix>3d</fix>
</trkpt>
<trkpt lat="33.810313" lon="-118.393867">
  <ele>-0.12</ele>
  <time>2026-09-02T22:07:07Z</time>
  <course>0.0</course>
  <speed>0.0</speed>
  <fix>3d</fix>
</trkpt>
<trkpt lat="33.810313" lon="-118.393867">
  <ele>0.0</ele>
  <time>2026-09-02T22:07:07Z</time>
  <course>188.29</course>
  <speed>0.0</speed>
  <fix>3d</fix>
</trkpt>
<trkpt lat="33.810313" lon="-118.393867">
  <ele>-0.12</ele>
  <time>2026-09-02T22:07:07Z</time>
  <course>0.0</course>
  <speed>0.0</speed>
  <fix>3d</fix>
</trkpt>
<trkpt lat="33.810313" lon="-118.393867">
  <ele>0.0</ele>
  <time>2026-09-02T22:07:07Z</time>
  <course>188.32</course>
  <speed>0.0</speed>
  <fix>3d</fix>
</trkpt>
<trkpt lat="33.810313" lon="-118.393867">
  <ele>-0.12</ele>
  <time>2026-09-02T22:07:07Z</time>
  <course>0.0</course>
  <speed>0.0</speed>
  <fix>3d</fix>
</trkpt>
<trkpt lat="33.810313" lon="-118.393867">
  <ele>0.0</ele>
  <time>2026-09-02T22:07:07Z</time>
  <course>188.34</course>
  <speed>0.0</speed>
  <fix>3d</fix>
</trkpt>
<trkpt lat="33.810313" lon="-118.393867">
  <ele>-0.12</ele>
  <time>2026-09-02T22:07:07Z</time>
  <course>0.0</course>
  <speed>0.0</speed>
  <fix>3d</fix>
</trkpt>
<trkpt lat="33.810313" lon="-118.393867">
  <ele>0.0</ele>
  <time>2026-09-02T22:07:07Z</time>
  <course>188.36</course>
  <speed>0.0</speed>
  <fix>3d</fix>
</trkpt>
<trkpt lat="33.810313" lon="-118.393867">
  <ele>-0.12</ele>
  <time>2026-09-02T22:07:07Z</time>
  <course>0.0</course>
  <speed>0.0</speed>
  <fix>3d</fix>
</trkpt>
<trkpt lat="33.810313" lon="-118.393867">
  <ele>0.0</ele>
  <time>2026-09-02T22:07:07Z</time>
  <course>188.38</course>
  <speed>0.0</speed>
  <fix>3d</fix>
</trkpt>
<trkpt lat="33.810313" lon="-118.393867">
  <ele>-0.12</ele>
  <time>2026-09-02T22:07:07Z</time>
  <course>0.0</course>
  <speed>0.0</speed>
  <fix>3d</fix>
</trkpt>
<trkpt lat="33.810313" lon="-118.393867">
  <ele>0.0</ele>
  <time>2026-09-02T22:07:07Z</time>
  <course>188.39</course>
  <speed>0.0</speed>
  <fix>3d</fix>
</trkpt>
<trkpt lat="33.810313" lon="-118.393867">
  <ele>-0.12</ele>
  <time>2026-09-02T22:07:07Z</time>
  <course>0.0</course>
  <speed>0.0</speed>
  <fix>3d</fix>
</trkpt>
<trkpt lat="33.810313" lon="-118.393867">
  <ele>0.0</ele>
  <time>2026-09-02T22:07:07Z</time>
  <course>188.41</course>
  <speed>0.0</speed>
  <fix>3d</fix>
</trkpt>
<trkpt lat="33.810313" lon="-118.393867">
  <ele>-0.12</ele>
  <time>2026-09-02T22:07:07Z</time>
  <course>0.0</course>
  <speed>0.0</speed>
  <fix>3d</fix>
</trkpt>
<trkpt lat="33.810313" lon="-118.393867">
  <ele>0.0</ele>
  <time>2026-09-02T22:07:07Z</time>
  <course>188.42</course>
  <speed>0.0</speed>
  <fix>3d</fix>
</trkpt>
<trkpt lat="33.810313" lon="-118.393867">
  <ele>-0.12</ele>
  <time>2026-09-02T22:07:07Z</time>
  <course>0.0</course>
  <speed>0.0</speed>
  <fix>3d</fix>
</trkpt>
<trkpt lat="33.810313" lon="-118.393867">
  <ele>0.0</ele>
  <time>2026-09-02T22:07:07Z</time>
  <course>188.44</course>
  <speed>0.0</speed>
  <fix>3d</fix>
</trkpt>
<trkpt lat="33.810313" lon="-118.393867">
  <ele>-0.12</ele>
  <time>2026-09-02T22:07:07Z</time>
  <course>0.0</course>
  <speed>0.0</speed>
  <fix>3d</fix>
</trkpt>
<trkpt lat="33.810313" lon="-118.393867">
  <ele>0.0</ele>
  <time>2026-09-02T22:07:07Z</time>
  <course>188.45</course>
  <speed>0.0</speed>
  <fix>3d</fix>
</trkpt>
<trkpt lat="33.810313" lon="-118.393867">
  <ele>-0.13</ele>
  <time>2026-09-02T22:07:07Z</time>
  <course>0.0</course>
  <speed>0.0</speed>
  <fix>3d</fix>
</trkpt>
<trkpt lat="33.810313" lon="-118.393867">
  <ele>0.0</ele>
  <time>2026-09-02T22:07:07Z</time>
  <course>188.46</course>
  <speed>0.0</speed>
  <fix>3d</fix>
</trkpt>
<trkpt lat="33.810313" lon="-118.393867">
  <ele>-0.13</ele>
  <time>2026-09-02T22:07:07Z</time>
  <course>0.0</course>
  <speed>0.0</speed>
  <fix>3d</fix>
</trkpt>
<trkpt lat="33.810313" lon="-118.393867">
  <ele>0.0</ele>
  <time>2026-09-02T22:07:07Z</time>
  <course>188.47</course>
  <speed>0.0</speed>
  <fix>3d</fix>
</trkpt>
<trkpt lat="33.810313" lon="-118.393867">
  <ele>-0.13</ele>
  <time>2026-09-02T22:07:07Z</time>
  <course>0.0</course>
  <speed>0.0</speed>
  <fix>3d</fix>
</trkpt>
<trkpt lat="33.810313" lon="-118.393867">
  <ele>0.0</ele>
  <time>2026-09-02T22:07:07Z</time>
  <course>188.48</course>
  <speed>0.0</speed>
  <fix>3d</fix>
</trkpt>
<trkpt lat="33.810313" lon="-118.393867">
  <ele>-0.13</ele>
  <time>2026-09-02T22:07:07Z</time>
  <course>0.0</course>
  <speed>0.0</speed>
  <fix>3d</fix>
</trkpt>
<trkpt lat="33.810313" lon="-118.393867">
  <ele>0.0</ele>
  <time>2026-09-02T22:07:07Z</time>
  <course>188.49</course>
  <speed>0.0</speed>
  <fix>3d</fix>
</trkpt>
<trkpt lat="33.810313" lon="-118.393867">
  <ele>-0.13</ele>
  <time>2026-09-02T22:07:07Z</time>
  <course>0.0</course>
  <speed>0.0</speed>
  <fix>3d</fix>
</trkpt>
<trkpt lat="33.810313" lon="-118.393867">
  <ele>0.0</ele>
  <time>2026-09-02T22:07:07Z</time>
  <course>188.5</course>
  <speed>0.0</speed>
  <fix>3d</fix>
</trkpt>
<trkpt lat="33.810313" lon="-118.393867">
  <ele>-0.13</ele>
  <time>2026-09-02T22:07:07Z</time>
  <course>0.0</course>
  <speed>0.0</speed>
  <fix>3d</fix>
</trkpt>
<trkpt lat="33.810313" lon="-118.393867">
  <ele>0.0</ele>
  <time>2026-09-02T22:07:07Z</time>
  <course>188.51</course>
  <speed>0.0</speed>
  <fix>3d</fix>
</trkpt>
<trkpt lat="33.810313" lon="-118.393867">
  <ele>-0.12</ele>
  <time>2026-09-02T22:07:07Z</time>
  <course>0.0</course>
  <speed>0.0</speed>
  <fix>3d</fix>
</trkpt>
<trkpt lat="33.810313" lon="-118.393867">
  <ele>0.0</ele>
  <time>2026-09-02T22:07:07Z</time>
  <course>188.52</course>
  <speed>0.0</speed>
  <fix>3d</fix>
</trkpt>
<trkpt lat="33.810313" lon="-118.393867">
  <ele>-0.12</ele>
  <time>2026-09-02T22:07:07Z</time>
  <course>0.0</course>
  <speed>0.0</speed>
  <fix>3d</fix>
</trkpt>
<trkpt lat="33.810313" lon="-118.393867">
  <ele>0.0</ele>
  <time>2026-09-02T22:07:07Z</time>
  <course>188.53</course>
  <speed>0.0</speed>
  <fix>3d</fix>
</trkpt>
<trkpt lat="33.810313" lon="-118.393867">
  <ele>-0.12</ele>
  <time>2026-09-02T22:07:07Z</time>
  <course>0.0</course>
  <speed>0.0</speed>
  <fix>3d</fix>
</trkpt>
<trkpt lat="33.810313" lon="-118.393867">
  <ele>0.0</ele>
  <time>2026-09-02T22:07:07Z</time>
  <course>188.53</course>
  <speed>0.0</speed>
  <fix>3d</fix>
</trkpt>
<trkpt lat="33.810313" lon="-118.393867">
  <ele>-0.12</ele>
  <time>2026-09-02T22:07:07Z</time>
  <course>0.0</course>
  <speed>0.0</speed>
  <fix>3d</fix>
</trkpt>
<trkpt lat="33.810313" lon="-118.393867">
  <ele>0.0</ele>
  <time>2026-09-02T22:07:07Z</time>
  <course>188.54</course>
  <speed>0.0</speed>
  <fix>3d</fix>
</trkpt>
<trkpt lat="33.810313" lon="-118.393867">
  <ele>-0.12</ele>
  <time>2026-09-02T22:07:07Z</time>
  <course>0.0</course>
  <speed>0.0</speed>
  <fix>3d</fix>
</trkpt>
<trkpt lat="33.810313" lon="-118.393867">
  <ele>0.0</ele>
  <time>2026-09-02T22:07:07Z</time>
  <course>188.54</course>
  <speed>0.0</speed>
  <fix>3d</fix>
</trkpt>
<trkpt lat="33.810313" lon="-118.393867">
  <ele>-0.12</ele>
  <time>2026-09-02T22:07:07Z</time>
  <course>0.0</course>
  <speed>0.0</speed>
  <fix>3d</fix>
</trkpt>
<trkpt lat="33.810313" lon="-118.393867">
  <ele>0.0</ele>
  <time>2026-09-02T22:07:07Z</time>
  <course>188.54</course>
  <speed>0.0</speed>
  <fix>3d</fix>
</trkpt>
<trkpt lat="33.810313" lon="-118.393867">
  <ele>-0.12</ele>
  <time>2026-09-02T22:07:07Z</time>
  <course>0.0</course>
  <speed>0.0</speed>
  <fix>3d</fix>
</trkpt>
<trkpt lat="33.810313" lon="-118.393867">
  <ele>0.0</ele>
  <time>2026-09-02T22:07:07Z</time>
  <course>188.55</course>
  <speed>0.0</speed>
  <fix>3d</fix>
</trkpt>
<trkpt lat="33.810313" lon="-118.393867">
  <ele>-0.12</ele>
  <time>2026-09-02T22:07:07Z</time>
  <course>0.0</course>
  <speed>0.0</speed>
  <fix>3d</fix>
</trkpt>
<trkpt lat="33.810313" lon="-118.393867">
  <ele>0.0</ele>
  <time>2026-09-02T22:07:07Z</time>
  <course>188.55</course>
  <speed>0.0</speed>
  <fix>3d</fix>
</trkpt>
<trkpt lat="33.810313" lon="-118.393867">
  <ele>-0.12</ele>
  <time>2026-09-02T22:07:07Z</time>
  <course>0.0</course>
  <speed>0.0</speed>
  <fix>3d</fix>
</trkpt>
<trkpt lat="33.810313" lon="-118.393867">
  <ele>0.0</ele>
  <time>2026-09-02T22:07:07Z</time>
  <course>188.55</course>
  <speed>0.0</speed>
  <fix>3d</fix>
</trkpt>
<trkpt lat="33.810313" lon="-118.393867">
  <ele>-0.12</ele>
  <time>2026-09-02T22:07:07Z</time>
  <course>0.0</course>
  <speed>0.0</speed>
  <fix>3d</fix>
</trkpt>
<trkpt lat="33.810313" lon="-118.393867">
  <ele>-0.126</ele>
  <time>2026-09-02T22:07:07Z</time>
  <course>188.55</course>
  <speed>0.0</speed>
  <fix>3d</fix>
</trkpt>
<trkpt lat="33.810313" lon="-118.393867">
  <ele>-0.13</ele>
  <time>2026-09-02T22:07:07Z</time>
  <course>0.0</course>
  <speed>0.0</speed>
  <fix>3d</fix>
</trkpt>
<trkpt lat="33.810313" lon="-118.393867">
  <ele>-0.126</ele>
  <time>2026-09-02T22:07:07Z</time>
  <course>188.56</course>
  <speed>0.0</speed>
  <fix>3d</fix>
</trkpt>
<trkpt lat="33.810313" lon="-118.393867">
  <ele>-0.13</ele>
  <time>2026-09-02T22:07:07Z</time>
  <course>0.0</course>
  <speed>0.0</speed>
  <fix>3d</fix>
</trkpt>
<trkpt lat="33.810313" lon="-118.393867">
  <ele>-0.125</ele>
  <time>2026-09-02T22:07:07Z</time>
  <course>188.56</course>
  <speed>0.0</speed>
  <fix>3d</fix>
</trkpt>
<trkpt lat="33.810313" lon="-118.393867">
  <ele>-0.13</ele>
  <time>2026-09-02T22:07:07Z</time>
  <course>0.0</course>
  <speed>0.0</speed>
  <fix>3d</fix>
</trkpt>
<trkpt lat="33.810313" lon="-118.393867">
  <ele>-0.123</ele>
  <time>2026-09-02T22:07:07Z</time>
  <course>188.56</course>
  <speed>0.0</speed>
  <fix>3d</fix>
</trkpt>
<trkpt lat="33.810313" lon="-118.393867">
  <ele>-0.13</ele>
  <time>2026-09-02T22:07:07Z</time>
  <course>0.0</course>
  <speed>0.0</speed>
  <fix>3d</fix>
</trkpt>
<trkpt lat="33.810313" lon="-118.393867">
  <ele>-0.121</ele>
  <time>2026-09-02T22:07:07Z</time>
  <course>188.56</course>
  <speed>0.0</speed>
  <fix>3d</fix>
</trkpt>
<trkpt lat="33.810313" lon="-118.393867">
  <ele>-0.12</ele>
  <time>2026-09-02T22:07:07Z</time>
  <course>0.0</course>
  <speed>0.0</speed>
  <fix>3d</fix>
</trkpt>
<trkpt lat="33.810313" lon="-118.393867">
  <ele>-0.12</ele>
  <time>2026-09-02T22:07:07Z</time>
  <course>188.56</course>
  <speed>0.0</speed>
  <fix>3d</fix>
</trkpt>
<trkpt lat="33.810313" lon="-118.393867">
  <ele>-0.12</ele>
  <time>2026-09-02T22:07:07Z</time>
  <course>0.0</course>
  <speed>0.0</speed>
  <fix>3d</fix>
</trkpt>
<trkpt lat="33.810313" lon="-118.393867">
  <ele>-0.119</ele>
  <time>2026-09-02T22:07:07Z</time>
  <course>188.56</course>
  <speed>0.0</speed>
  <fix>3d</fix>
</trkpt>
<trkpt lat="33.810313" lon="-118.393867">
  <ele>-0.12</ele>
  <time>2026-09-02T22:07:07Z</time>
  <course>0.0</course>
  <speed>0.0</speed>
  <fix>3d</fix>
</trkpt>
<trkpt lat="33.810313" lon="-118.393867">
  <ele>-0.12</ele>
  <time>2026-09-02T22:07:07Z</time>
  <course>188.56</course>
  <speed>0.0</speed>
  <fix>3d</fix>
</trkpt>
<trkpt lat="33.810313" lon="-118.393867">
  <ele>-0.12</ele>
  <time>2026-09-02T22:07:07Z</time>
  <course>0.0</course>
  <speed>0.0</speed>
  <fix>3d</fix>
</trkpt>
<trkpt lat="33.810313" lon="-118.393867">
  <ele>-0.123</ele>
  <time>2026-09-02T22:07:07Z</time>
  <course>188.55</course>
  <speed>0.0</speed>
  <fix>3d</fix>
</trkpt>
<trkpt lat="33.810313" lon="-118.393867">
  <ele>-0.12</ele>
  <time>2026-09-02T22:07:07Z</time>
  <course>0.0</course>
  <speed>0.0</speed>
  <fix>3d</fix>
</trkpt>
<trkpt lat="33.810313" lon="-118.393867">
  <ele>-0.127</ele>
  <time>2026-09-02T22:07:07Z</time>
  <course>188.55</course>
  <speed>0.0</speed>
  <fix>3d</fix>
</trkpt>
<trkpt lat="33.810313" lon="-118.393867">
  <ele>-0.12</ele>
  <time>2026-09-02T22:07:07Z</time>
  <course>0.0</course>
  <speed>0.0</speed>
  <fix>3d</fix>
</trkpt>
<trkpt lat="33.810313" lon="-118.393867">
  <ele>-0.13</ele>
  <time>2026-09-02T22:07:07Z</time>
  <course>188.55</course>
  <speed>0.0</speed>
  <fix>3d</fix>
</trkpt>
<trkpt lat="33.810313" lon="-118.393867">
  <ele>-0.12</ele>
  <time>2026-09-02T22:07:07Z</time>
  <course>0.0</course>
  <speed>0.0</speed>
  <fix>3d</fix>
</trkpt>
<trkpt lat="33.810313" lon="-118.393867">
  <ele>-0.132</ele>
  <time>2026-09-02T22:07:07Z</time>
  <course>188.55</course>
  <speed>0.0</speed>
  <fix>3d</fix>
</trkpt>
<trkpt lat="33.810313" lon="-118.393867">
  <ele>-0.12</ele>
  <time>2026-09-02T22:07:07Z</time>
  <course>0.0</course>
  <speed>0.0</speed>
  <fix>3d</fix>
</trkpt>
<trkpt lat="33.810313" lon="-118.393867">
  <ele>-0.132</ele>
  <time>2026-09-02T22:07:07Z</time>
  <course>188.55</course>
  <speed>0.0</speed>
  <fix>3d</fix>
</trkpt>
<trkpt lat="33.810313" lon="-118.393867">
  <ele>-0.12</ele>
  <time>2026-09-02T22:07:07Z</time>
  <course>0.0</course>
  <speed>0.0</speed>
  <fix>3d</fix>
</trkpt>
<trkpt lat="33.810313" lon="-118.393867">
  <ele>-0.132</ele>
  <time>2026-09-02T22:07:07Z</time>
  <course>188.55</course>
  <speed>0.0</speed>
  <fix>3d</fix>
</trkpt>
<trkpt lat="33.810313" lon="-118.393867">
  <ele>-0.12</ele>
  <time>2026-09-02T22:07:07Z</time>
  <course>0.0</course>
  <speed>0.0</speed>
  <fix>3d</fix>
</trkpt>
<trkpt lat="33.810313" lon="-118.393867">
  <ele>-0.132</ele>
  <time>2026-09-02T22:07:07Z</time>
  <course>188.55</course>
  <speed>0.0</speed>
  <fix>3d</fix>
</trkpt>
<trkpt lat="33.810313" lon="-118.393867">
  <ele>-0.12</ele>
  <time>2026-09-02T22:07:07Z</time>
  <course>0.0</course>
  <speed>0.0</speed>
  <fix>3d</fix>
</trkpt>
<trkpt lat="33.810313" lon="-118.393867">
  <ele>-0.131</ele>
  <time>2026-09-02T22:07:07Z</time>
  <course>188.55</course>
  <speed>0.0</speed>
  <fix>3d</fix>
</trkpt>
<trkpt lat="33.810313" lon="-118.393867">
  <ele>-0.12</ele>
  <time>2026-09-02T22:07:07Z</time>
  <course>0.0</course>
  <speed>0.0</speed>
  <fix>3d</fix>
</trkpt>
<trkpt lat="33.810313" lon="-118.393867">
  <ele>-0.129</ele>
  <time>2026-09-02T22:07:07Z</time>
  <course>188.54</course>
  <speed>0.0</speed>
  <fix>3d</fix>
</trkpt>
<trkpt lat="33.810313" lon="-118.393867">
  <ele>-0.13</ele>
  <time>2026-09-02T22:07:07Z</time>
  <course>0.0</course>
  <speed>0.0</speed>
  <fix>3d</fix>
</trkpt>
<trkpt lat="33.810313" lon="-118.393867">
  <ele>-0.128</ele>
  <time>2026-09-02T22:07:07Z</time>
  <course>188.54</course>
  <speed>0.0</speed>
  <fix>3d</fix>
</trkpt>
<trkpt lat="33.810313" lon="-118.393867">
  <ele>-0.13</ele>
  <time>2026-09-02T22:07:07Z</time>
  <course>0.0</course>
  <speed>0.0</speed>
  <fix>3d</fix>
</trkpt>
<trkpt lat="33.810313" lon="-118.393867">
  <ele>-0.125</ele>
  <time>2026-09-02T22:07:07Z</time>
  <course>188.53</course>
  <speed>0.0</speed>
  <fix>3d</fix>
</trkpt>
<trkpt lat="33.810313" lon="-118.393867">
  <ele>-0.12</ele>
  <time>2026-09-02T22:07:07Z</time>
  <course>0.0</course>
  <speed>0.0</speed>
  <fix>3d</fix>
</trkpt>
<trkpt lat="33.810313" lon="-118.393867">
  <ele>-0.123</ele>
  <time>2026-09-02T22:07:07Z</time>
  <course>188.53</course>
  <speed>0.0</speed>
  <fix>3d</fix>
</trkpt>
<trkpt lat="33.810313" lon="-118.393867">
  <ele>-0.12</ele>
  <time>2026-09-02T22:07:07Z</time>
  <course>0.0</course>
  <speed>0.0</speed>
  <fix>3d</fix>
</trkpt>
<trkpt lat="33.810313" lon="-118.393867">
  <ele>-0.121</ele>
  <time>2026-09-02T22:07:07Z</time>
  <course>188.52</course>
  <speed>0.0</speed>
  <fix>3d</fix>
</trkpt>
<trkpt lat="33.810313" lon="-118.393867">
  <ele>-0.12</ele>
  <time>2026-09-02T22:07:07Z</time>
  <course>0.0</course>
  <speed>0.0</speed>
  <fix>3d</fix>
</trkpt>
<trkpt lat="33.810313" lon="-118.393867">
  <ele>-0.121</ele>
  <time>2026-09-02T22:07:07Z</time>
  <course>188.52</course>
  <speed>0.0</speed>
  <fix>3d</fix>
</trkpt>
<trkpt lat="33.810313" lon="-118.393867">
  <ele>-0.12</ele>
  <time>2026-09-02T22:07:07Z</time>
  <course>0.0</course>
  <speed>0.0</speed>
  <fix>3d</fix>
</trkpt>
<trkpt lat="33.810313" lon="-118.393867">
  <ele>-0.121</ele>
  <time>2026-09-02T22:07:07Z</time>
  <course>188.51</course>
  <speed>0.0</speed>
  <fix>3d</fix>
</trkpt>
<trkpt lat="33.810313" lon="-118.393867">
  <ele>-0.12</ele>
  <time>2026-09-02T22:07:07Z</time>
  <course>0.0</course>
  <speed>0.0</speed>
  <fix>3d</fix>
</trkpt>
<trkpt lat="33.810313" lon="-118.393867">
  <ele>-0.123</ele>
  <time>2026-09-02T22:07:07Z</time>
  <course>188.51</course>
  <speed>0.0</speed>
  <fix>3d</fix>
</trkpt>
<trkpt lat="33.810313" lon="-118.393867">
  <ele>-0.12</ele>
  <time>2026-09-02T22:07:07Z</time>
  <course>0.0</course>
  <speed>0.0</speed>
  <fix>3d</fix>
</trkpt>
<trkpt lat="33.810313" lon="-118.393867">
  <ele>-0.126</ele>
  <time>2026-09-02T22:07:07Z</time>
  <course>188.5</course>
  <speed>0.0</speed>
  <fix>3d</fix>
</trkpt>
<trkpt lat="33.810313" lon="-118.393867">
  <ele>-0.12</ele>
  <time>2026-09-02T22:07:07Z</time>
  <course>0.0</course>
  <speed>0.0</speed>
  <fix>3d</fix>
</trkpt>
<trkpt lat="33.810313" lon="-118.393867">
  <ele>-0.127</ele>
  <time>2026-09-02T22:07:07Z</time>
  <course>188.5</course>
  <speed>0.0</speed>
  <fix>3d</fix>
</trkpt>
<trkpt lat="33.810313" lon="-118.393867">
  <ele>-0.12</ele>
  <time>2026-09-02T22:07:07Z</time>
  <course>0.0</course>
  <speed>0.0</speed>
  <fix>3d</fix>
</trkpt>
<trkpt lat="33.810313" lon="-118.393867">
  <ele>-0.128</ele>
  <time>2026-09-02T22:07:07Z</time>
  <course>188.49</course>
  <speed>0.0</speed>
  <fix>3d</fix>
</trkpt>
<trkpt lat="33.810313" lon="-118.393867">
  <ele>-0.12</ele>
  <time>2026-09-02T22:07:07Z</time>
  <course>0.0</course>
  <speed>0.0</speed>
  <fix>3d</fix>
</trkpt>
<trkpt lat="33.810313" lon="-118.393867">
  <ele>-0.127</ele>
  <time>2026-09-02T22:07:07Z</time>
  <course>188.49</course>
  <speed>0.0</speed>
  <fix>3d</fix>
</trkpt>
<trkpt lat="33.810313" lon="-118.393867">
  <ele>-0.12</ele>
  <time>2026-09-02T22:07:07Z</time>
  <course>0.0</course>
  <speed>0.0</speed>
  <fix>3d</fix>
</trkpt>
<trkpt lat="33.810313" lon="-118.393867">
  <ele>-0.127</ele>
  <time>2026-09-02T22:07:07Z</time>
  <course>188.48</course>
  <speed>0.0</speed>
  <fix>3d</fix>
</trkpt>
<trkpt lat="33.810313" lon="-118.393867">
  <ele>-0.12</ele>
  <time>2026-09-02T22:07:07Z</time>
  <course>0.0</course>
  <speed>0.0</speed>
  <fix>3d</fix>
</trkpt>
<trkpt lat="33.810313" lon="-118.393867">
  <ele>-0.127</ele>
  <time>2026-09-02T22:07:07Z</time>
  <course>188.47</course>
  <speed>0.01</speed>
  <fix>3d</fix>
</trkpt>
<trkpt lat="33.810313" lon="-118.393867">
  <ele>-0.12</ele>
  <time>2026-09-02T22:07:07Z</time>
  <course>0.0</course>
  <speed>0.0</speed>
  <fix>3d</fix>
</trkpt>
<trkpt lat="33.810313" lon="-118.393867">
  <ele>-0.127</ele>
  <time>2026-09-02T22:07:07Z</time>
  <course>188.47</course>
  <speed>0.01</speed>
  <fix>3d</fix>
</trkpt>
<trkpt lat="33.810313" lon="-118.393867">
  <ele>-0.12</ele>
  <time>2026-09-02T22:07:07Z</time>
  <course>0.0</course>
  <speed>0.0</speed>
  <fix>3d</fix>
</trkpt>
<trkpt lat="33.810313" lon="-118.393867">
  <ele>-0.127</ele>
  <time>2026-09-02T22:07:07Z</time>
  <course>188.46</course>
  <speed>0.01</speed>
  <fix>3d</fix>
</trkpt>
<trkpt lat="33.810313" lon="-118.393867">
  <ele>-0.12</ele>
  <time>2026-09-02T22:07:07Z</time>
  <course>0.0</course>
  <speed>0.0</speed>
  <fix>3d</fix>
</trkpt>
<trkpt lat="33.810313" lon="-118.393867">
  <ele>-0.126</ele>
  <time>2026-09-02T22:07:07Z</time>
  <course>188.45</course>
  <speed>0.01</speed>
  <fix>3d</fix>
</trkpt>
<trkpt lat="33.810313" lon="-118.393867">
  <ele>-0.12</ele>
  <time>2026-09-02T22:07:07Z</time>
  <course>0.0</course>
  <speed>0.0</speed>
  <fix>3d</fix>
</trkpt>
<trkpt lat="33.810313" lon="-118.393867">
  <ele>-0.126</ele>
  <time>2026-09-02T22:07:07Z</time>
  <course>188.45</course>
  <speed>0.01</speed>
  <fix>3d</fix>
</trkpt>
<trkpt lat="33.810313" lon="-118.393867">
  <ele>-0.12</ele>
  <time>2026-09-02T22:07:07Z</time>
  <course>0.0</course>
  <speed>0.0</speed>
  <fix>3d</fix>
</trkpt>
<trkpt lat="33.810313" lon="-118.393867">
  <ele>-0.125</ele>
  <time>2026-09-02T22:07:07Z</time>
  <course>188.44</course>
  <speed>0.01</speed>
  <fix>3d</fix>
</trkpt>
<trkpt lat="33.810313" lon="-118.393867">
  <ele>-0.12</ele>
  <time>2026-09-02T22:07:07Z</time>
  <course>0.0</course>
  <speed>0.0</speed>
  <fix>3d</fix>
</trkpt>
<trkpt lat="33.810313" lon="-118.393867">
  <ele>-0.126</ele>
  <time>2026-09-02T22:07:07Z</time>
  <course>188.43</course>
  <speed>0.01</speed>
  <fix>3d</fix>
</trkpt>
<trkpt lat="33.810313" lon="-118.393867">
  <ele>-0.12</ele>
  <time>2026-09-02T22:07:07Z</time>
  <course>0.0</course>
  <speed>0.0</speed>
  <fix>3d</fix>
</trkpt>
<trkpt lat="33.810313" lon="-118.393867">
  <ele>-0.127</ele>
  <time>2026-09-02T22:07:07Z</time>
  <course>188.42</course>
  <speed>0.01</speed>
  <fix>3d</fix>
</trkpt>
<trkpt lat="33.810313" lon="-118.393867">
  <ele>-0.12</ele>
  <time>2026-09-02T22:07:07Z</time>
  <course>0.0</course>
  <speed>0.0</speed>
  <fix>3d</fix>
</trkpt>
<trkpt lat="33.810313" lon="-118.393867">
  <ele>-0.128</ele>
  <time>2026-09-02T22:07:07Z</time>
  <course>188.42</course>
  <speed>0.01</speed>
  <fix>3d</fix>
</trkpt>
<trkpt lat="33.810313" lon="-118.393867">
  <ele>-0.12</ele>
  <time>2026-09-02T22:07:07Z</time>
  <course>0.0</course>
  <speed>0.0</speed>
  <fix>3d</fix>
</trkpt>
<trkpt lat="33.810313" lon="-118.393867">
  <ele>-0.129</ele>
  <time>2026-09-02T22:07:07Z</time>
  <course>188.41</course>
  <speed>0.01</speed>
  <fix>3d</fix>
</trkpt>
<trkpt lat="33.810313" lon="-118.393867">
  <ele>-0.12</ele>
  <time>2026-09-02T22:07:07Z</time>
  <course>0.0</course>
  <speed>0.0</speed>
  <fix>3d</fix>
</trkpt>
<trkpt lat="33.810313" lon="-118.393867">
  <ele>-0.129</ele>
  <time>2026-09-02T22:07:07Z</time>
  <course>188.4</course>
  <speed>0.01</speed>
  <fix>3d</fix>
</trkpt>
<trkpt lat="33.810313" lon="-118.393867">
  <ele>-0.12</ele>
  <time>2026-09-02T22:07:07Z</time>
  <course>0.0</course>
  <speed>0.0</speed>
  <fix>3d</fix>
</trkpt>
<trkpt lat="33.810313" lon="-118.393867">
  <ele>-0.13</ele>
  <time>2026-09-02T22:07:07Z</time>
  <course>188.4</course>
  <speed>0.01414213562373095</speed>
  <fix>3d</fix>
</trkpt>
<trkpt lat="33.810313" lon="-118.393867">
  <ele>-0.12</ele>
  <time>2026-09-02T22:07:07Z</time>
  <course>0.0</course>
  <speed>0.0</speed>
  <fix>3d</fix>
</trkpt>
<trkpt lat="33.810313" lon="-118.393867">
  <ele>-0.13</ele>
  <time>2026-09-02T22:07:07Z</time>
  <course>188.39</course>
  <speed>0.01414213562373095</speed>
  <fix>3d</fix>
</trkpt>
<trkpt lat="33.810313" lon="-118.393867">
  <ele>-0.12</ele>
  <time>2026-09-02T22:07:07Z</time>
  <course>0.0</course>
  <speed>0.0</speed>
  <fix>3d</fix>
</trkpt>
<trkpt lat="33.810313" lon="-118.393867">
  <ele>-0.13</ele>
  <time>2026-09-02T22:07:07Z</time>
  <course>188.38</course>
  <speed>0.01414213562373095</speed>
  <fix>3d</fix>
</trkpt>
<trkpt lat="33.810313" lon="-118.393867">
  <ele>-0.12</ele>
  <time>2026-09-02T22:07:07Z</time>
  <course>0.0</course>
  <speed>0.0</speed>
  <fix>3d</fix>
</trkpt>
<trkpt lat="33.810313" lon="-118.393867">
  <ele>-0.129</ele>
  <time>2026-09-02T22:07:07Z</time>
  <course>188.37</course>
  <speed>0.01414213562373095</speed>
  <fix>3d</fix>
</trkpt>
<trkpt lat="33.810313" lon="-118.393867">
  <ele>-0.12</ele>
  <time>2026-09-02T22:07:07Z</time>
  <course>0.0</course>
  <speed>0.0</speed>
  <fix>3d</fix>
</trkpt>
<trkpt lat="33.810313" lon="-118.393867">
  <ele>-0.128</ele>
  <time>2026-09-02T22:07:07Z</time>
  <course>188.37</course>
  <speed>0.01414213562373095</speed>
  <fix>3d</fix>
</trkpt>
<trkpt lat="33.810313" lon="-118.393867">
  <ele>-0.12</ele>
  <time>2026-09-02T22:07:07Z</time>
  <course>0.0</course>
  <speed>0.0</speed>
  <fix>3d</fix>
</trkpt>
<trkpt lat="33.810313" lon="-118.393867">
  <ele>-0.126</ele>
  <time>2026-09-02T22:07:07Z</time>
  <course>188.36</course>
  <speed>0.01414213562373095</speed>
  <fix>3d</fix>
</trkpt>
<trkpt lat="33.810313" lon="-118.393867">
  <ele>-0.12</ele>
  <time>2026-09-02T22:07:07Z</time>
  <course>0.0</course>
  <speed>0.0</speed>
  <fix>3d</fix>
</trkpt>
<trkpt lat="33.810313" lon="-118.393867">
  <ele>-0.124</ele>
  <time>2026-09-02T22:07:07Z</time>
  <course>188.35</course>
  <speed>0.01414213562373095</speed>
  <fix>3d</fix>
</trkpt>
<trkpt lat="33.810313" lon="-118.393867">
  <ele>-0.12</ele>
  <time>2026-09-02T22:07:07Z</time>
  <course>0.0</course>
  <speed>0.0</speed>
  <fix>3d</fix>
</trkpt>
<trkpt lat="33.810313" lon="-118.393867">
  <ele>-0.122</ele>
  <time>2026-09-02T22:07:07Z</time>
  <course>188.34</course>
  <speed>0.01414213562373095</speed>
  <fix>3d</fix>
</trkpt>
<trkpt lat="33.810313" lon="-118.393867">
  <ele>-0.12</ele>
  <time>2026-09-02T22:07:07Z</time>
  <course>0.0</course>
  <speed>0.0</speed>
  <fix>3d</fix>
</trkpt>
<trkpt lat="33.810313" lon="-118.393867">
  <ele>-0.123</ele>
  <time>2026-09-02T22:07:07Z</time>
  <course>188.34</course>
  <speed>0.01414213562373095</speed>
  <fix>3d</fix>
</trkpt>
<trkpt lat="33.810313" lon="-118.393867">
  <ele>-0.12</ele>
  <time>2026-09-02T22:07:07Z</time>
  <course>0.0</course>
  <speed>0.0</speed>
  <fix>3d</fix>
</trkpt>
<trkpt lat="33.810313" lon="-118.393867">
  <ele>-0.125</ele>
  <time>2026-09-02T22:07:07Z</time>
  <course>188.33</course>
  <speed>0.01414213562373095</speed>
  <fix>3d</fix>
</trkpt>
<trkpt lat="33.810313" lon="-118.393867">
  <ele>-0.12</ele>
  <time>2026-09-02T22:07:07Z</time>
  <course>0.0</course>
  <speed>0.0</speed>
  <fix>3d</fix>
</trkpt>
<trkpt lat="33.810313" lon="-118.393867">
  <ele>-0.128</ele>
  <time>2026-09-02T22:07:07Z</time>
  <course>188.32</course>
  <speed>0.01414213562373095</speed>
  <fix>3d</fix>
</trkpt>
<trkpt lat="33.810313" lon="-118.393867">
  <ele>-0.12</ele>
  <time>2026-09-02T22:07:07Z</time>
  <course>0.0</course>
  <speed>0.0</speed>
  <fix>3d</fix>
</trkpt>
<trkpt lat="33.810313" lon="-118.393867">
  <ele>-0.131</ele>
  <time>2026-09-02T22:07:07Z</time>
  <course>188.31</course>
  <speed>0.01414213562373095</speed>
  <fix>3d</fix>
</trkpt>
<trkpt lat="33.810313" lon="-118.393867">
  <ele>-0.12</ele>
  <time>2026-09-02T22:07:07Z</time>
  <course>0.0</course>
  <speed>0.0</speed>
  <fix>3d</fix>
</trkpt>
<trkpt lat="33.810313" lon="-118.393867">
  <ele>-0.134</ele>
  <time>2026-09-02T22:07:07Z</time>
  <course>188.3</course>
  <speed>0.01414213562373095</speed>
  <fix>3d</fix>
</trkpt>
<trkpt lat="33.810313" lon="-118.393867">
  <ele>-0.12</ele>
  <time>2026-09-02T22:07:07Z</time>
  <course>0.0</course>
  <speed>0.0</speed>
  <fix>3d</fix>
</trkpt>
<trkpt lat="33.810313" lon="-118.393867">
  <ele>-0.135</ele>
  <time>2026-09-02T22:07:07Z</time>
  <course>188.3</course>
  <speed>0.01414213562373095</speed>
  <fix>3d</fix>
</trkpt>
<trkpt lat="33.810313" lon="-118.393867">
  <ele>-0.12</ele>
  <time>2026-09-02T22:07:07Z</time>
  <course>0.0</course>
  <speed>0.0</speed>
  <fix>3d</fix>
</trkpt>
<trkpt lat="33.810313" lon="-118.393867">
  <ele>-0.134</ele>
  <time>2026-09-02T22:07:07Z</time>
  <course>188.29</course>
  <speed>0.01414213562373095</speed>
  <fix>3d</fix>
</trkpt>
<trkpt lat="33.810313" lon="-118.393867">
  <ele>-0.12</ele>
  <time>2026-09-02T22:07:07Z</time>
  <course>0.0</course>
  <speed>0.0</speed>
  <fix>3d</fix>
</trkpt>
<trkpt lat="33.810313" lon="-118.393867">
  <ele>-0.132</ele>
  <time>2026-09-02T22:07:07Z</time>
  <course>188.28</course>
  <speed>0.01414213562373095</speed>
  <fix>3d</fix>
</trkpt>
<trkpt lat="33.810313" lon="-118.393867">
  <ele>-0.12</ele>
  <time>2026-09-02T22:07:07Z</time>
  <course>0.0</course>
  <speed>0.0</speed>
  <fix>3d</fix>
</trkpt>
<trkpt lat="33.810313" lon="-118.393867">
  <ele>-0.13</ele>
  <time>2026-09-02T22:07:07Z</time>
  <course>188.27</course>
  <speed>0.01414213562373095</speed>
  <fix>3d</fix>
</trkpt>
<trkpt lat="33.810313" lon="-118.393867">
  <ele>-0.12</ele>
  <time>2026-09-02T22:07:07Z</time>
  <course>0.0</course>
  <speed>0.0</speed>
  <fix>3d</fix>
</trkpt>
<trkpt lat="33.810313" lon="-118.393867">
  <ele>-0.127</ele>
  <time>2026-09-02T22:07:07Z</time>
  <course>188.26</course>
  <speed>0.01414213562373095</speed>
  <fix>3d</fix>
</trkpt>
<trkpt lat="33.810313" lon="-118.393867">
  <ele>-0.12</ele>
  <time>2026-09-02T22:07:07Z</time>
  <course>0.0</course>
  <speed>0.0</speed>
  <fix>3d</fix>
</trkpt>
<trkpt lat="33.810313" lon="-118.393867">
  <ele>-0.125</ele>
  <time>2026-09-02T22:07:07Z</time>
  <course>188.25</course>
  <speed>0.01414213562373095</speed>
  <fix>3d</fix>
</trkpt>
<trkpt lat="33.810313" lon="-118.393867">
  <ele>-0.12</ele>
  <time>2026-09-02T22:07:07Z</time>
  <course>0.0</course>
  <speed>0.0</speed>
  <fix>3d</fix>
</trkpt>
<trkpt lat="33.810313" lon="-118.393867">
  <ele>-0.123</ele>
  <time>2026-09-02T22:07:07Z</time>
  <course>188.25</course>
  <speed>0.01414213562373095</speed>
  <fix>3d</fix>
</trkpt>
<trkpt lat="33.810313" lon="-118.393867">
  <ele>-0.12</ele>
  <time>2026-09-02T22:07:07Z</time>
  <course>0.0</course>
  <speed>0.0</speed>
  <fix>3d</fix>
</trkpt>
<trkpt lat="33.810313" lon="-118.393867">
  <ele>-0.124</ele>
  <time>2026-09-02T22:07:07Z</time>
  <course>188.24</course>
  <speed>0.01414213562373095</speed>
  <fix>3d</fix>
</trkpt>
<trkpt lat="33.810313" lon="-118.393867">
  <ele>-0.12</ele>
  <time>2026-09-02T22:07:07Z</time>
  <course>0.0</course>
  <speed>0.0</speed>
  <fix>3d</fix>
</trkpt>
<trkpt lat="33.810313" lon="-118.393867">
  <ele>-0.125</ele>
  <time>2026-09-02T22:07:07Z</time>
  <course>188.23</course>
  <speed>0.01414213562373095</speed>
  <fix>3d</fix>
</trkpt>
<trkpt lat="33.810313" lon="-118.393867">
  <ele>-0.12</ele>
  <time>2026-09-02T22:07:07Z</time>
  <course>0.0</course>
  <speed>0.0</speed>
  <fix>3d</fix>
</trkpt>
<trkpt lat="33.810313" lon="-118.393867">
  <ele>-0.127</ele>
  <time>2026-09-02T22:07:07Z</time>
  <course>188.22</course>
  <speed>0.01414213562373095</speed>
  <fix>3d</fix>
</trkpt>
<trkpt lat="33.810313" lon="-118.393867">
  <ele>-0.12</ele>
  <time>2026-09-02T22:07:07Z</time>
  <course>0.0</course>
  <speed>0.0</speed>
  <fix>3d</fix>
</trkpt>
<trkpt lat="33.810313" lon="-118.393867">
  <ele>-0.128</ele>
  <time>2026-09-02T22:07:07Z</time>
  <course>188.21</course>
  <speed>0.01414213562373095</speed>
  <fix>3d</fix>
</trkpt>
<trkpt lat="33.810313" lon="-118.393867">
  <ele>-0.12</ele>
  <time>2026-09-02T22:07:07Z</time>
  <course>0.0</course>
  <speed>0.0</speed>
  <fix>3d</fix>
</trkpt>
<trkpt lat="33.810313" lon="-118.393867">
  <ele>-0.129</ele>
  <time>2026-09-02T22:07:07Z</time>
  <course>188.21</course>
  <speed>0.01414213562373095</speed>
  <fix>3d</fix>
</trkpt>
<trkpt lat="33.810313" lon="-118.393867">
  <ele>-0.12</ele>
  <time>2026-09-02T22:07:07Z</time>
  <course>0.0</course>
  <speed>0.0</speed>
  <fix>3d</fix>
</trkpt>
<trkpt lat="33.810313" lon="-118.393867">
  <ele>-0.129</ele>
  <time>2026-09-02T22:07:07Z</time>
  <course>188.2</course>
  <speed>0.01414213562373095</speed>
  <fix>3d</fix>
</trkpt>
<trkpt lat="33.810313" lon="-118.393867">
  <ele>-0.12</ele>
  <time>2026-09-02T22:07:07Z</time>
  <course>0.0</course>
  <speed>0.0</speed>
  <fix>3d</fix>
</trkpt>
<trkpt lat="33.810313" lon="-118.393867">
  <ele>-0.128</ele>
  <time>2026-09-02T22:07:07Z</time>
  <course>188.19</course>
  <speed>0.01414213562373095</speed>
  <fix>3d</fix>
</trkpt>
<trkpt lat="33.810313" lon="-118.393867">
  <ele>-0.12</ele>
  <time>2026-09-02T22:07:07Z</time>
  <course>0.0</course>
  <speed>0.0</speed>
  <fix>3d</fix>
</trkpt>
<trkpt lat="33.810313" lon="-118.393867">
  <ele>-0.128</ele>
  <time>2026-09-02T22:07:07Z</time>
  <course>188.18</course>
  <speed>0.01414213562373095</speed>
  <fix>3d</fix>
</trkpt>
<trkpt lat="33.810313" lon="-118.393867">
  <ele>-0.12</ele>
  <time>2026-09-02T22:07:07Z</time>
  <course>0.0</course>
  <speed>0.0</speed>
  <fix>3d</fix>
</trkpt>
<trkpt lat="33.810313" lon="-118.393867">
  <ele>-0.127</ele>
  <time>2026-09-02T22:07:07Z</time>
  <course>188.17</course>
  <speed>0.01414213562373095</speed>
  <fix>3d</fix>
</trkpt>
<trkpt lat="33.810313" lon="-118.393867">
  <ele>-0.12</ele>
  <time>2026-09-02T22:07:07Z</time>
  <course>0.0</course>
  <speed>0.0</speed>
  <fix>3d</fix>
</trkpt>
<trkpt lat="33.810313" lon="-118.393867">
  <ele>-0.127</ele>
  <time>2026-09-02T22:07:07Z</time>
  <course>188.16</course>
  <speed>0.01414213562373095</speed>
  <fix>3d</fix>
</trkpt>
<trkpt lat="33.810313" lon="-118.393867">
  <ele>-0.12</ele>
  <time>2026-09-02T22:07:07Z</time>
  <course>0.0</course>
  <speed>0.0</speed>
  <fix>3d</fix>
</trkpt>
<trkpt lat="33.810313" lon="-118.393867">
  <ele>-0.128</ele>
  <time>2026-09-02T22:07:07Z</time>
  <course>188.16</course>
  <speed>0.01414213562373095</speed>
  <fix>3d</fix>
</trkpt>
<trkpt lat="33.810313" lon="-118.393867">
  <ele>-0.12</ele>
  <time>2026-09-02T22:07:07Z</time>
  <course>0.0</course>
  <speed>0.0</speed>
  <fix>3d</fix>
</trkpt>
<trkpt lat="33.810313" lon="-118.393867">
  <ele>-0.129</ele>
  <time>2026-09-02T22:07:07Z</time>
  <course>188.15</course>
  <speed>0.01414213562373095</speed>
  <fix>3d</fix>
</trkpt>
<trkpt lat="33.810313" lon="-118.393867">
  <ele>-0.12</ele>
  <time>2026-09-02T22:07:07Z</time>
  <course>0.0</course>
  <speed>0.0</speed>
  <fix>3d</fix>
</trkpt>
<trkpt lat="33.810313" lon="-118.393867">
  <ele>-0.131</ele>
  <time>2026-09-02T22:07:07Z</time>
  <course>188.14</course>
  <speed>0.01414213562373095</speed>
  <fix>3d</fix>
</trkpt>
<trkpt lat="33.810313" lon="-118.393867">
  <ele>-0.12</ele>
  <time>2026-09-02T22:07:07Z</time>
  <course>0.0</course>
  <speed>0.0</speed>
  <fix>3d</fix>
</trkpt>
<trkpt lat="33.810313" lon="-118.393867">
  <ele>-0.133</ele>
  <time>2026-09-02T22:07:07Z</time>
  <course>188.13</course>
  <speed>0.01414213562373095</speed>
  <fix>3d</fix>
</trkpt>
<trkpt lat="33.810313" lon="-118.393867">
  <ele>-0.12</ele>
  <time>2026-09-02T22:07:07Z</time>
  <course>0.0</course>
  <speed>0.0</speed>
  <fix>3d</fix>
</trkpt>
<trkpt lat="33.810313" lon="-118.393867">
  <ele>-0.135</ele>
  <time>2026-09-02T22:07:07Z</time>
  <course>188.12</course>
  <speed>0.01414213562373095</speed>
  <fix>3d</fix>
</trkpt>
<trkpt lat="33.810313" lon="-118.393867">
  <ele>-0.12</ele>
  <time>2026-09-02T22:07:07Z</time>
  <course>0.0</course>
  <speed>0.0</speed>
  <fix>3d</fix>
</trkpt>
<trkpt lat="33.810313" lon="-118.393867">
  <ele>-0.136</ele>
  <time>2026-09-02T22:07:07Z</time>
  <course>188.12</course>
  <speed>0.01414213562373095</speed>
  <fix>3d</fix>
</trkpt>
<trkpt lat="33.810313" lon="-118.393867">
  <ele>-0.12</ele>
  <time>2026-09-02T22:07:07Z</time>
  <course>0.0</course>
  <speed>0.0</speed>
  <fix>3d</fix>
</trkpt>
<trkpt lat="33.810313" lon="-118.393867">
  <ele>-0.136</ele>
  <time>2026-09-02T22:07:07Z</time>
  <course>188.11</course>
  <speed>0.01414213562373095</speed>
  <fix>3d</fix>
</trkpt>
<trkpt lat="33.810313" lon="-118.393867">
  <ele>-0.12</ele>
  <time>2026-09-02T22:07:07Z</time>
  <course>0.0</course>
  <speed>0.0</speed>
  <fix>3d</fix>
</trkpt>
<trkpt lat="33.810313" lon="-118.393867">
  <ele>-0.136</ele>
  <time>2026-09-02T22:07:07Z</time>
  <course>188.1</course>
  <speed>0.01414213562373095</speed>
  <fix>3d</fix>
</trkpt>
<trkpt lat="33.810313" lon="-118.393867">
  <ele>-0.12</ele>
  <time>2026-09-02T22:07:07Z</time>
  <course>0.0</course>
  <speed>0.0</speed>
  <fix>3d</fix>
</trkpt>
<trkpt lat="33.810313" lon="-118.393867">
  <ele>-0.135</ele>
  <time>2026-09-02T22:07:07Z</time>
  <course>188.09</course>
  <speed>0.01414213562373095</speed>
  <fix>3d</fix>
</trkpt>
<trkpt lat="33.810313" lon="-118.393867">
  <ele>-0.12</ele>
  <time>2026-09-02T22:07:07Z</time>
  <course>0.0</course>
  <speed>0.0</speed>
  <fix>3d</fix>
</trkpt>
<trkpt lat="33.810313" lon="-118.393867">
  <ele>-0.134</ele>
  <time>2026-09-02T22:07:07Z</time>
  <course>188.08</course>
  <speed>0.01414213562373095</speed>
  <fix>3d</fix>
</trkpt>
<trkpt lat="33.810313" lon="-118.393867">
  <ele>-0.12</ele>
  <time>2026-09-02T22:07:07Z</time>
  <course>0.0</course>
  <speed>0.0</speed>
  <fix>3d</fix>
</trkpt>
<trkpt lat="33.810313" lon="-118.393867">
  <ele>-0.131</ele>
  <time>2026-09-02T22:07:07Z</time>
  <course>188.07</course>
  <speed>0.022360679774997897</speed>
  <fix>3d</fix>
</trkpt>
<trkpt lat="33.810313" lon="-118.393867">
  <ele>-0.12</ele>
  <time>2026-09-02T22:07:07Z</time>
  <course>0.0</course>
  <speed>0.0</speed>
  <fix>3d</fix>
</trkpt>
<trkpt lat="33.810313" lon="-118.393867">
  <ele>-0.128</ele>
  <time>2026-09-02T22:07:07Z</time>
  <course>188.07</course>
  <speed>0.022360679774997897</speed>
  <fix>3d</fix>
</trkpt>
<trkpt lat="33.810313" lon="-118.393867">
  <ele>-0.12</ele>
  <time>2026-09-02T22:07:07Z</time>
  <course>0.0</course>
  <speed>0.0</speed>
  <fix>3d</fix>
</trkpt>
<trkpt lat="33.810313" lon="-118.393867">
  <ele>-0.127</ele>
  <time>2026-09-02T22:07:07Z</time>
  <course>188.06</course>
  <speed>0.022360679774997897</speed>
  <fix>3d</fix>
</trkpt>
<trkpt lat="33.810313" lon="-118.393867">
  <ele>-0.12</ele>
  <time>2026-09-02T22:07:07Z</time>
  <course>0.0</course>
  <speed>0.0</speed>
  <fix>3d</fix>
</trkpt>
<trkpt lat="33.810313" lon="-118.393867">
  <ele>-0.126</ele>
  <time>2026-09-02T22:07:07Z</time>
  <course>188.05</course>
  <speed>0.022360679774997897</speed>
  <fix>3d</fix>
</trkpt>
<trkpt lat="33.810313" lon="-118.393867">
  <ele>-0.12</ele>
  <time>2026-09-02T22:07:07Z</time>
  <course>0.0</course>
  <speed>0.0</speed>
  <fix>3d</fix>
</trkpt>
<trkpt lat="33.810313" lon="-118.393867">
  <ele>-0.126</ele>
  <time>2026-09-02T22:07:07Z</time>
  <course>188.04</course>
  <speed>0.022360679774997897</speed>
  <fix>3d</fix>
</trkpt>
<trkpt lat="33.810313" lon="-118.393867">
  <ele>-0.12</ele>
  <time>2026-09-02T22:07:07Z</time>
  <course>0.0</course>
  <speed>0.0</speed>
  <fix>3d</fix>
</trkpt>
<trkpt lat="33.810313" lon="-118.393867">
  <ele>-0.127</ele>
  <time>2026-09-02T22:07:07Z</time>
  <course>188.03</course>
  <speed>0.022360679774997897</speed>
  <fix>3d</fix>
</trkpt>
<trkpt lat="33.810313" lon="-118.393867">
  <ele>-0.12</ele>
  <time>2026-09-02T22:07:07Z</time>
  <course>0.0</course>
  <speed>0.0</speed>
  <fix>3d</fix>
</trkpt>
<trkpt lat="33.810313" lon="-118.393867">
  <ele>-0.127</ele>
  <time>2026-09-02T22:07:07Z</time>
  <course>188.03</course>
  <speed>0.022360679774997897</speed>
  <fix>3d</fix>
</trkpt>
<trkpt lat="33.810313" lon="-118.393867">
  <ele>-0.12</ele>
  <time>2026-09-02T22:07:07Z</time>
  <course>0.0</course>
  <speed>0.0</speed>
  <fix>3d</fix>
</trkpt>
<trkpt lat="33.810313" lon="-118.393867">
  <ele>-0.127</ele>
  <time>2026-09-02T22:07:07Z</time>
  <course>188.02</course>
  <speed>0.022360679774997897</speed>
  <fix>3d</fix>
</trkpt>
<trkpt lat="33.810313" lon="-118.393867">
  <ele>-0.12</ele>
  <time>2026-09-02T22:07:07Z</time>
  <course>0.0</course>
  <speed>0.0</speed>
  <fix>3d</fix>
</trkpt>
<trkpt lat="33.810313" lon="-118.393867">
  <ele>-0.128</ele>
  <time>2026-09-02T22:07:07Z</time>
  <course>188.01</course>
  <speed>0.022360679774997897</speed>
  <fix>3d</fix>
</trkpt>
<trkpt lat="33.810313" lon="-118.393867">
  <ele>-0.12</ele>
  <time>2026-09-02T22:07:07Z</time>
  <course>0.0</course>
  <speed>0.0</speed>
  <fix>3d</fix>
</trkpt>
<trkpt lat="33.810313" lon="-118.393867">
  <ele>-0.128</ele>
  <time>2026-09-02T22:07:07Z</time>
  <course>188.0</course>
  <speed>0.022360679774997897</speed>
  <fix>3d</fix>
</trkpt>
<trkpt lat="33.810313" lon="-118.393867">
  <ele>-0.12</ele>
  <time>2026-09-02T22:07:07Z</time>
  <course>0.0</course>
  <speed>0.0</speed>
  <fix>3d</fix>
</trkpt>
<trkpt lat="33.810313" lon="-118.393867">
  <ele>-0.128</ele>
  <time>2026-09-02T22:07:07Z</time>
  <course>187.99</course>
  <speed>0.022360679774997897</speed>
  <fix>3d</fix>
</trkpt>
<trkpt lat="33.810313" lon="-118.393867">
  <ele>-0.12</ele>
  <time>2026-09-02T22:07:07Z</time>
  <course>0.0</course>
  <speed>0.0</speed>
  <fix>3d</fix>
</trkpt>
<trkpt lat="33.810313" lon="-118.393867">
  <ele>-0.126</ele>
  <time>2026-09-02T22:07:07Z</time>
  <course>187.99</course>
  <speed>0.022360679774997897</speed>
  <fix>3d</fix>
</trkpt>
<trkpt lat="33.810313" lon="-118.393867">
  <ele>-0.12</ele>
  <time>2026-09-02T22:07:07Z</time>
  <course>0.0</course>
  <speed>0.0</speed>
  <fix>3d</fix>
</trkpt>
<trkpt lat="33.810313" lon="-118.393867">
  <ele>-0.124</ele>
  <time>2026-09-02T22:07:07Z</time>
  <course>187.98</course>
  <speed>0.022360679774997897</speed>
  <fix>3d</fix>
</trkpt>
<trkpt lat="33.810313" lon="-118.393867">
  <ele>-0.12</ele>
  <time>2026-09-02T22:07:07Z</time>
  <course>0.0</course>
  <speed>0.0</speed>
  <fix>3d</fix>
</trkpt>
<trkpt lat="33.810313" lon="-118.393867">
  <ele>-0.122</ele>
  <time>2026-09-02T22:07:07Z</time>
  <course>187.97</course>
  <speed>0.022360679774997897</speed>
  <fix>3d</fix>
</trkpt>
<trkpt lat="33.810313" lon="-118.393867">
  <ele>-0.12</ele>
  <time>2026-09-02T22:07:07Z</time>
  <course>0.0</course>
  <speed>0.0</speed>
  <fix>3d</fix>
</trkpt>
<trkpt lat="33.810313" lon="-118.393867">
  <ele>-0.12</ele>
  <time>2026-09-02T22:07:07Z</time>
  <course>187.96</course>
  <speed>0.022360679774997897</speed>
  <fix>3d</fix>
</trkpt>
<trkpt lat="33.810313" lon="-118.393867">
  <ele>-0.12</ele>
  <time>2026-09-02T22:07:07Z</time>
  <course>0.0</course>
  <speed>0.0</speed>
  <fix>3d</fix>
</trkpt>
<trkpt lat="33.810313" lon="-118.393867">
  <ele>-0.12</ele>
  <time>2026-09-02T22:07:07Z</time>
  <course>187.95</course>
  <speed>0.022360679774997897</speed>
  <fix>3d</fix>
</trkpt>
<trkpt lat="33.810313" lon="-118.393867">
  <ele>-0.12</ele>
  <time>2026-09-02T22:07:07Z</time>
  <course>0.0</course>
  <speed>0.0</speed>
  <fix>3d</fix>
</trkpt>
<trkpt lat="33.810313" lon="-118.393867">
  <ele>-0.122</ele>
  <time>2026-09-02T22:07:07Z</time>
  <course>187.94</course>
  <speed>0.022360679774997897</speed>
  <fix>3d</fix>
</trkpt>
<trkpt lat="33.810313" lon="-118.393867">
  <ele>-0.12</ele>
  <time>2026-09-02T22:07:07Z</time>
  <course>0.0</course>
  <speed>0.0</speed>
  <fix>3d</fix>
</trkpt>
<trkpt lat="33.810313" lon="-118.393867">
  <ele>-0.125</ele>
  <time>2026-09-02T22:07:07Z</time>
  <course>187.94</course>
  <speed>0.022360679774997897</speed>
  <fix>3d</fix>
</trkpt>
<trkpt lat="33.810313" lon="-118.393867">
  <ele>-0.12</ele>
  <time>2026-09-02T22:07:07Z</time>
  <course>0.0</course>
  <speed>0.0</speed>
  <fix>3d</fix>
</trkpt>
<trkpt lat="33.810313" lon="-118.393867">
  <ele>-0.128</ele>
  <time>2026-09-02T22:07:07Z</time>
  <course>187.93</course>
  <speed>0.022360679774997897</speed>
  <fix>3d</fix>
</trkpt>
<trkpt lat="33.810313" lon="-118.393867">
  <ele>-0.12</ele>
  <time>2026-09-02T22:07:07Z</time>
  <course>0.0</course>
  <speed>0.0</speed>
  <fix>3d</fix>
</trkpt>
<trkpt lat="33.810313" lon="-118.393867">
  <ele>-0.131</ele>
  <time>2026-09-02T22:07:07Z</time>
  <course>187.92</course>
  <speed>0.022360679774997897</speed>
  <fix>3d</fix>
</trkpt>
<trkpt lat="33.810313" lon="-118.393867">
  <ele>-0.12</ele>
  <time>2026-09-02T22:07:07Z</time>
  <course>0.0</course>
  <speed>0.0</speed>
  <fix>3d</fix>
</trkpt>
<trkpt lat="33.810313" lon="-118.393867">
  <ele>-0.132</ele>
  <time>2026-09-02T22:07:07Z</time>
  <course>187.91</course>
  <speed>0.022360679774997897</speed>
  <fix>3d</fix>
</trkpt>
<trkpt lat="33.810313" lon="-118.393867">
  <ele>-0.12</ele>
  <time>2026-09-02T22:07:07Z</time>
  <course>0.0</course>
  <speed>0.0</speed>
  <fix>3d</fix>
</trkpt>
<trkpt lat="33.810313" lon="-118.393867">
  <ele>-0.132</ele>
  <time>2026-09-02T22:07:07Z</time>
  <course>187.91</course>
  <speed>0.022360679774997897</speed>
  <fix>3d</fix>
</trkpt>
<trkpt lat="33.810313" lon="-118.393867">
  <ele>-0.12</ele>
  <time>2026-09-02T22:07:07Z</time>
  <course>0.0</course>
  <speed>0.0</speed>
  <fix>3d</fix>
</trkpt>
<trkpt lat="33.810313" lon="-118.393867">
  <ele>-0.132</ele>
  <time>2026-09-02T22:07:07Z</time>
  <course>187.9</course>
  <speed>0.022360679774997897</speed>
  <fix>3d</fix>
</trkpt>
<trkpt lat="33.810313" lon="-118.393867">
  <ele>-0.12</ele>
  <time>2026-09-02T22:07:07Z</time>
  <course>0.0</course>
  <speed>0.0</speed>
  <fix>3d</fix>
</trkpt>
<trkpt lat="33.810313" lon="-118.393867">
  <ele>-0.13</ele>
  <time>2026-09-02T22:07:07Z</time>
  <course>187.89</course>
  <speed>0.022360679774997897</speed>
  <fix>3d</fix>
</trkpt>
<trkpt lat="33.810313" lon="-118.393867">
  <ele>-0.12</ele>
  <time>2026-09-02T22:07:07Z</time>
  <course>0.0</course>
  <speed>0.0</speed>
  <fix>3d</fix>
</trkpt>
<trkpt lat="33.810313" lon="-118.393867">
  <ele>-0.127</ele>
  <time>2026-09-02T22:07:07Z</time>
  <course>187.88</course>
  <speed>0.022360679774997897</speed>
  <fix>3d</fix>
</trkpt>
<trkpt lat="33.810313" lon="-118.393867">
  <ele>-0.12</ele>
  <time>2026-09-02T22:07:07Z</time>
  <course>0.0</course>
  <speed>0.0</speed>
  <fix>3d</fix>
</trkpt>
<trkpt lat="33.810313" lon="-118.393867">
  <ele>-0.123</ele>
  <time>2026-09-02T22:07:07Z</time>
  <course>187.87</course>
  <speed>0.022360679774997897</speed>
  <fix>3d</fix>
</trkpt>
<trkpt lat="33.810313" lon="-118.393867">
  <ele>-0.12</ele>
  <time>2026-09-02T22:07:07Z</time>
  <course>0.0</course>
  <speed>0.0</speed>
  <fix>3d</fix>
</trkpt>
<trkpt lat="33.810313" lon="-118.393867">
  <ele>-0.121</ele>
  <time>2026-09-02T22:07:07Z</time>
  <course>187.87</course>
  <speed>0.022360679774997897</speed>
  <fix>3d</fix>
</trkpt>
<trkpt lat="33.810313" lon="-118.393867">
  <ele>-0.12</ele>
  <time>2026-09-02T22:07:07Z</time>
  <course>0.0</course>
  <speed>0.0</speed>
  <fix>3d</fix>
</trkpt>
<trkpt lat="33.810313" lon="-118.393867">
  <ele>-0.121</ele>
  <time>2026-09-02T22:07:07Z</time>
  <course>187.86</course>
  <speed>0.022360679774997897</speed>
  <fix>3d</fix>
</trkpt>
<trkpt lat="33.810313" lon="-118.393867">
  <ele>-0.12</ele>
  <time>2026-09-02T22:07:07Z</time>
  <course>0.0</course>
  <speed>0.0</speed>
  <fix>3d</fix>
</trkpt>
<trkpt lat="33.810313" lon="-118.393867">
  <ele>-0.123</ele>
  <time>2026-09-02T22:07:07Z</time>
  <course>187.85</course>
  <speed>0.022360679774997897</speed>
  <fix>3d</fix>
</trkpt>
<trkpt lat="33.810313" lon="-118.393867">
  <ele>-0.12</ele>
  <time>2026-09-02T22:07:07Z</time>
  <course>0.0</course>
  <speed>0.0</speed>
  <fix>3d</fix>
</trkpt>
<trkpt lat="33.810313" lon="-118.393867">
  <ele>-0.124</ele>
  <time>2026-09-02T22:07:07Z</time>
  <course>187.84</course>
  <speed>0.022360679774997897</speed>
  <fix>3d</fix>
</trkpt>
<trkpt lat="33.810313" lon="-118.393867">
  <ele>-0.12</ele>
  <time>2026-09-02T22:07:07Z</time>
  <course>0.0</course>
  <speed>0.0</speed>
  <fix>3d</fix>
</trkpt>
<trkpt lat="33.810313" lon="-118.393867">
  <ele>-0.126</ele>
  <time>2026-09-02T22:07:07Z</time>
  <course>187.83</course>
  <speed>0.022360679774997897</speed>
  <fix>3d</fix>
</trkpt>
<trkpt lat="33.810313" lon="-118.393867">
  <ele>-0.12</ele>
  <time>2026-09-02T22:07:07Z</time>
  <course>0.0</course>
  <speed>0.0</speed>
  <fix>3d</fix>
</trkpt>
<trkpt lat="33.810313" lon="-118.393867">
  <ele>-0.127</ele>
  <time>2026-09-02T22:07:07Z</time>
  <course>187.83</course>
  <speed>0.022360679774997897</speed>
  <fix>3d</fix>
</trkpt>
<trkpt lat="33.810313" lon="-118.393867">
  <ele>-0.12</ele>
  <time>2026-09-02T22:07:07Z</time>
  <course>0.0</course>
  <speed>0.0</speed>
  <fix>3d</fix>
</trkpt>
<trkpt lat="33.810313" lon="-118.393867">
  <ele>-0.127</ele>
  <time>2026-09-02T22:07:07Z</time>
  <course>187.82</course>
  <speed>0.022360679774997897</speed>
  <fix>3d</fix>
</trkpt>
<trkpt lat="33.810313" lon="-118.393867">
  <ele>-0.12</ele>
  <time>2026-09-02T22:07:07Z</time>
  <course>0.0</course>
  <speed>0.0</speed>
  <fix>3d</fix>
</trkpt>
<trkpt lat="33.810313" lon="-118.393867">
  <ele>-0.127</ele>
  <time>2026-09-02T22:07:07Z</time>
  <course>187.81</course>
  <speed>0.022360679774997897</speed>
  <fix>3d</fix>
</trkpt>
<trkpt lat="33.810313" lon="-118.393867">
  <ele>-0.12</ele>
  <time>2026-09-02T22:07:07Z</time>
  <course>0.0</course>
  <speed>0.0</speed>
  <fix>3d</fix>
</trkpt>
<trkpt lat="33.810313" lon="-118.393867">
  <ele>-0.126</ele>
  <time>2026-09-02T22:07:07Z</time>
  <course>187.8</course>
  <speed>0.022360679774997897</speed>
  <fix>3d</fix>
</trkpt>
<trkpt lat="33.810313" lon="-118.393867">
  <ele>-0.12</ele>
  <time>2026-09-02T22:07:07Z</time>
  <course>0.0</course>
  <speed>0.0</speed>
  <fix>3d</fix>
</trkpt>
<trkpt lat="33.810313" lon="-118.393867">
  <ele>-0.124</ele>
  <time>2026-09-02T22:07:07Z</time>
  <course>187.8</course>
  <speed>0.022360679774997897</speed>
  <fix>3d</fix>
</trkpt>
<trkpt lat="33.810313" lon="-118.393867">
  <ele>-0.12</ele>
  <time>2026-09-02T22:07:07Z</time>
  <course>0.0</course>
  <speed>0.0</speed>
  <fix>3d</fix>
</trkpt>
<trkpt lat="33.810313" lon="-118.393867">
  <ele>-0.121</ele>
  <time>2026-09-02T22:07:07Z</time>
  <course>187.79</course>
  <speed>0.022360679774997897</speed>
  <fix>3d</fix>
</trkpt>
<trkpt lat="33.810313" lon="-118.393867">
  <ele>-0.12</ele>
  <time>2026-09-02T22:07:07Z</time>
  <course>0.0</course>
  <speed>0.0</speed>
  <fix>3d</fix>
</trkpt>
<trkpt lat="33.810313" lon="-118.393867">
  <ele>-0.119</ele>
  <time>2026-09-02T22:07:07Z</time>
  <course>187.78</course>
  <speed>0.022360679774997897</speed>
  <fix>3d</fix>
</trkpt>
<trkpt lat="33.810313" lon="-118.393867">
  <ele>-0.12</ele>
  <time>2026-09-02T22:07:07Z</time>
  <course>0.0</course>
  <speed>0.0</speed>
  <fix>3d</fix>
</trkpt>
<trkpt lat="33.810313" lon="-118.393867">
  <ele>-0.118</ele>
  <time>2026-09-02T22:07:07Z</time>
  <course>187.77</course>
  <speed>0.022360679774997897</speed>
  <fix>3d</fix>
</trkpt>
<trkpt lat="33.810313" lon="-118.393867">
  <ele>-0.12</ele>
  <time>2026-09-02T22:07:07Z</time>
  <course>0.0</course>
  <speed>0.0</speed>
  <fix>3d</fix>
</trkpt>
<trkpt lat="33.810313" lon="-118.393867">
  <ele>-0.118</ele>
  <time>2026-09-02T22:07:07Z</time>
  <course>187.77</course>
  <speed>0.022360679774997897</speed>
  <fix>3d</fix>
</trkpt>
<trkpt lat="33.810313" lon="-118.393867">
  <ele>-0.12</ele>
  <time>2026-09-02T22:07:07Z</time>
  <course>0.0</course>
  <speed>0.0</speed>
  <fix>3d</fix>
</trkpt>
<trkpt lat="33.810313" lon="-118.393867">
  <ele>-0.119</ele>
  <time>2026-09-02T22:07:07Z</time>
  <course>187.76</course>
  <speed>0.022360679774997897</speed>
  <fix>3d</fix>
</trkpt>
<trkpt lat="33.810313" lon="-118.393867">
  <ele>-0.12</ele>
  <time>2026-09-02T22:07:07Z</time>
  <course>0.0</course>
  <speed>0.0</speed>
  <fix>3d</fix>
</trkpt>
<trkpt lat="33.810313" lon="-118.393867">
  <ele>-0.12</ele>
  <time>2026-09-02T22:07:07Z</time>
  <course>187.75</course>
  <speed>0.022360679774997897</speed>
  <fix>3d</fix>
</trkpt>
<trkpt lat="33.810313" lon="-118.393867">
  <ele>-0.12</ele>
  <time>2026-09-02T22:07:07Z</time>
  <course>0.0</course>
  <speed>0.0</speed>
  <fix>3d</fix>
</trkpt>
<trkpt lat="33.810313" lon="-118.393867">
  <ele>-0.12</ele>
  <time>2026-09-02T22:07:07Z</time>
  <course>187.74</course>
  <speed>0.0282842712474619</speed>
  <fix>3d</fix>
</trkpt>
<trkpt lat="33.810313" lon="-118.393867">
  <ele>-0.12</ele>
  <time>2026-09-02T22:07:07Z</time>
  <course>0.0</course>
  <speed>0.0</speed>
  <fix>3d</fix>
</trkpt>
<trkpt lat="33.810313" lon="-118.393867">
  <ele>-0.12</ele>
  <time>2026-09-02T22:07:07Z</time>
  <course>187.74</course>
  <speed>0.0282842712474619</speed>
  <fix>3d</fix>
</trkpt>
<trkpt lat="33.810313" lon="-118.393867">
  <ele>-0.12</ele>
  <time>2026-09-02T22:07:07Z</time>
  <course>0.0</course>
  <speed>0.0</speed>
  <fix>3d</fix>
</trkpt>
<trkpt lat="33.810313" lon="-118.393867">
  <ele>-0.119</ele>
  <time>2026-09-02T22:07:07Z</time>
  <course>187.73</course>
  <speed>0.0282842712474619</speed>
  <fix>3d</fix>
</trkpt>
<trkpt lat="33.810313" lon="-118.393867">
  <ele>-0.12</ele>
  <time>2026-09-02T22:07:07Z</time>
  <course>0.0</course>
  <speed>0.0</speed>
  <fix>3d</fix>
</trkpt>
<trkpt lat="33.810313" lon="-118.393867">
  <ele>-0.118</ele>
  <time>2026-09-02T22:07:07Z</time>
  <course>187.72</course>
  <speed>0.0282842712474619</speed>
  <fix>3d</fix>
</trkpt>
<trkpt lat="33.810313" lon="-118.393867">
  <ele>-0.12</ele>
  <time>2026-09-02T22:07:07Z</time>
  <course>0.0</course>
  <speed>0.0</speed>
  <fix>3d</fix>
</trkpt>
<trkpt lat="33.810313" lon="-118.393867">
  <ele>-0.116</ele>
  <time>2026-09-02T22:07:07Z</time>
  <course>187.71</course>
  <speed>0.0282842712474619</speed>
  <fix>3d</fix>
</trkpt>
<trkpt lat="33.810313" lon="-118.393867">
  <ele>-0.12</ele>
  <time>2026-09-02T22:07:07Z</time>
  <course>0.0</course>
  <speed>0.0</speed>
  <fix>3d</fix>
</trkpt>
<trkpt lat="33.810313" lon="-118.393867">
  <ele>-0.114</ele>
  <time>2026-09-02T22:07:07Z</time>
  <course>187.71</course>
  <speed>0.0282842712474619</speed>
  <fix>3d</fix>
</trkpt>
<trkpt lat="33.810313" lon="-118.393867">
  <ele>-0.12</ele>
  <time>2026-09-02T22:07:07Z</time>
  <course>0.0</course>
  <speed>0.0</speed>
  <fix>3d</fix>
</trkpt>
<trkpt lat="33.810313" lon="-118.393867">
  <ele>-0.112</ele>
  <time>2026-09-02T22:07:07Z</time>
  <course>187.7</course>
  <speed>0.0282842712474619</speed>
  <fix>3d</fix>
</trkpt>
<trkpt lat="33.810313" lon="-118.393867">
  <ele>-0.12</ele>
  <time>2026-09-02T22:07:07Z</time>
  <course>0.0</course>
  <speed>0.0</speed>
  <fix>3d</fix>
</trkpt>
<trkpt lat="33.810313" lon="-118.393867">
  <ele>-0.113</ele>
  <time>2026-09-02T22:07:07Z</time>
  <course>187.69</course>
  <speed>0.0282842712474619</speed>
  <fix>3d</fix>
</trkpt>
<trkpt lat="33.810313" lon="-118.393867">
  <ele>-0.12</ele>
  <time>2026-09-02T22:07:07Z</time>
  <course>0.0</course>
  <speed>0.0</speed>
  <fix>3d</fix>
</trkpt>
<trkpt lat="33.810313" lon="-118.393867">
  <ele>-0.115</ele>
  <time>2026-09-02T22:07:07Z</time>
  <course>187.69</course>
  <speed>0.0282842712474619</speed>
  <fix>3d</fix>
</trkpt>
<trkpt lat="33.810313" lon="-118.393867">
  <ele>-0.12</ele>
  <time>2026-09-02T22:07:07Z</time>
  <course>0.0</course>
  <speed>0.0</speed>
  <fix>3d</fix>
</trkpt>
<trkpt lat="33.810313" lon="-118.393867">
  <ele>-0.119</ele>
  <time>2026-09-02T22:07:07Z</time>
  <course>187.68</course>
  <speed>0.0282842712474619</speed>
  <fix>3d</fix>
</trkpt>
<trkpt lat="33.810313" lon="-118.393867">
  <ele>-0.12</ele>
  <time>2026-09-02T22:07:07Z</time>
  <course>0.0</course>
  <speed>0.0</speed>
  <fix>3d</fix>
</trkpt>
<trkpt lat="33.810313" lon="-118.393867">
  <ele>-0.123</ele>
  <time>2026-09-02T22:07:07Z</time>
  <course>187.67</course>
  <speed>0.0282842712474619</speed>
  <fix>3d</fix>
</trkpt>
<trkpt lat="33.810313" lon="-118.393867">
  <ele>-0.12</ele>
  <time>2026-09-02T22:07:07Z</time>
  <course>0.0</course>
  <speed>0.0</speed>
  <fix>3d</fix>
</trkpt>
<trkpt lat="33.810313" lon="-118.393867">
  <ele>-0.128</ele>
  <time>2026-09-02T22:07:07Z</time>
  <course>187.66</course>
  <speed>0.0282842712474619</speed>
  <fix>3d</fix>
</trkpt>
<trkpt lat="33.810313" lon="-118.393867">
  <ele>-0.12</ele>
  <time>2026-09-02T22:07:07Z</time>
  <course>0.0</course>
  <speed>0.0</speed>
  <fix>3d</fix>
</trkpt>
<trkpt lat="33.810313" lon="-118.393867">
  <ele>-0.132</ele>
  <time>2026-09-02T22:07:07Z</time>
  <course>187.66</course>
  <speed>0.0282842712474619</speed>
  <fix>3d</fix>
</trkpt>
<trkpt lat="33.810313" lon="-118.393867">
  <ele>-0.12</ele>
  <time>2026-09-02T22:07:07Z</time>
  <course>0.0</course>
  <speed>0.0</speed>
  <fix>3d</fix>
</trkpt>
<trkpt lat="33.810313" lon="-118.393867">
  <ele>-0.134</ele>
  <time>2026-09-02T22:07:07Z</time>
  <course>187.65</course>
  <speed>0.0282842712474619</speed>
  <fix>3d</fix>
</trkpt>
<trkpt lat="33.810313" lon="-118.393867">
  <ele>-0.12</ele>
  <time>2026-09-02T22:07:07Z</time>
  <course>0.0</course>
  <speed>0.0</speed>
  <fix>3d</fix>
</trkpt>
<trkpt lat="33.810313" lon="-118.393867">
  <ele>-0.135</ele>
  <time>2026-09-02T22:07:07Z</time>
  <course>187.64</course>
  <speed>0.0282842712474619</speed>
  <fix>3d</fix>
</trkpt>
<trkpt lat="33.810313" lon="-118.393867">
  <ele>-0.12</ele>
  <time>2026-09-02T22:07:07Z</time>
  <course>0.0</course>
  <speed>0.0</speed>
  <fix>3d</fix>
</trkpt>
<trkpt lat="33.810313" lon="-118.393867">
  <ele>-0.135</ele>
  <time>2026-09-02T22:07:07Z</time>
  <course>187.64</course>
  <speed>0.0282842712474619</speed>
  <fix>3d</fix>
</trkpt>
<trkpt lat="33.810313" lon="-118.393867">
  <ele>-0.12</ele>
  <time>2026-09-02T22:07:07Z</time>
  <course>0.0</course>
  <speed>0.0</speed>
  <fix>3d</fix>
</trkpt>
<trkpt lat="33.810313" lon="-118.393867">
  <ele>-0.133</ele>
  <time>2026-09-02T22:07:07Z</time>
  <course>187.63</course>
  <speed>0.0282842712474619</speed>
  <fix>3d</fix>
</trkpt>
<trkpt lat="33.810313" lon="-118.393867">
  <ele>-0.12</ele>
  <time>2026-09-02T22:07:07Z</time>
  <course>0.0</course>
  <speed>0.0</speed>
  <fix>3d</fix>
</trkpt>
<trkpt lat="33.810313" lon="-118.393867">
  <ele>-0.132</ele>
  <time>2026-09-02T22:07:07Z</time>
  <course>187.63</course>
  <speed>0.0282842712474619</speed>
  <fix>3d</fix>
</trkpt>
<trkpt lat="33.810313" lon="-118.393867">
  <ele>-0.12</ele>
  <time>2026-09-02T22:07:07Z</time>
  <course>0.0</course>
  <speed>0.0</speed>
  <fix>3d</fix>
</trkpt>
<trkpt lat="33.810313" lon="-118.393867">
  <ele>-0.132</ele>
  <time>2026-09-02T22:07:07Z</time>
  <course>187.62</course>
  <speed>0.03605551275463989</speed>
  <fix>3d</fix>
</trkpt>
<trkpt lat="33.810313" lon="-118.393867">
  <ele>-0.12</ele>
  <time>2026-09-02T22:07:07Z</time>
  <course>0.0</course>
  <speed>0.0</speed>
  <fix>3d</fix>
</trkpt>
<trkpt lat="33.810313" lon="-118.393867">
  <ele>-0.132</ele>
  <time>2026-09-02T22:07:07Z</time>
  <course>187.61</course>
  <speed>0.03605551275463989</speed>
  <fix>3d</fix>
</trkpt>
<trkpt lat="33.810313" lon="-118.393867">
  <ele>-0.12</ele>
  <time>2026-09-02T22:07:07Z</time>
  <course>0.0</course>
  <speed>0.0</speed>
  <fix>3d</fix>
</trkpt>
<trkpt lat="33.810313" lon="-118.393867">
  <ele>-0.133</ele>
  <time>2026-09-02T22:07:07Z</time>
  <course>187.61</course>
  <speed>0.03605551275463989</speed>
  <fix>3d</fix>
</trkpt>
<trkpt lat="33.810313" lon="-118.393867">
  <ele>-0.12</ele>
  <time>2026-09-02T22:07:07Z</time>
  <course>0.0</course>
  <speed>0.0</speed>
  <fix>3d</fix>
</trkpt>
<trkpt lat="33.810313" lon="-118.393867">
  <ele>-0.134</ele>
  <time>2026-09-02T22:07:07Z</time>
  <course>187.6</course>
  <speed>0.03605551275463989</speed>
  <fix>3d</fix>
</trkpt>
<trkpt lat="33.810313" lon="-118.393867">
  <ele>-0.12</ele>
  <time>2026-09-02T22:07:07Z</time>
  <course>0.0</course>
  <speed>0.0</speed>
  <fix>3d</fix>
</trkpt>
<trkpt lat="33.810313" lon="-118.393867">
  <ele>-0.133</ele>
  <time>2026-09-02T22:07:07Z</time>
  <course>187.59</course>
  <speed>0.03605551275463989</speed>
  <fix>3d</fix>
</trkpt>
<trkpt lat="33.810313" lon="-118.393867">
  <ele>-0.12</ele>
  <time>2026-09-02T22:07:07Z</time>
  <course>0.0</course>
  <speed>0.0</speed>
  <fix>3d</fix>
</trkpt>
<trkpt lat="33.810313" lon="-118.393867">
  <ele>-0.132</ele>
  <time>2026-09-02T22:07:07Z</time>
  <course>187.59</course>
  <speed>0.03605551275463989</speed>
  <fix>3d</fix>
</trkpt>
<trkpt lat="33.810313" lon="-118.393867">
  <ele>-0.12</ele>
  <time>2026-09-02T22:07:08Z</time>
  <course>0.0</course>
  <speed>0.0</speed>
  <fix>3d</fix>
</trkpt>
<trkpt lat="33.810313" lon="-118.393867">
  <ele>-0.13</ele>
  <time>2026-09-02T22:07:08Z</time>
  <course>187.58</course>
  <speed>0.03605551275463989</speed>
  <fix>3d</fix>
</trkpt>
<trkpt lat="33.810313" lon="-118.393867">
  <ele>-0.12</ele>
  <time>2026-09-02T22:07:08Z</time>
  <course>0.0</course>
  <speed>0.0</speed>
  <fix>3d</fix>
</trkpt>
<trkpt lat="33.810313" lon="-118.393867">
  <ele>-0.127</ele>
  <time>2026-09-02T22:07:08Z</time>
  <course>187.57</course>
  <speed>0.03605551275463989</speed>
  <fix>3d</fix>
</trkpt>
<trkpt lat="33.810313" lon="-118.393867">
  <ele>-0.12</ele>
  <time>2026-09-02T22:07:08Z</time>
  <course>0.0</course>
  <speed>0.0</speed>
  <fix>3d</fix>
</trkpt>
<trkpt lat="33.810313" lon="-118.393867">
  <ele>-0.125</ele>
  <time>2026-09-02T22:07:08Z</time>
  <course>187.57</course>
  <speed>0.03605551275463989</speed>
  <fix>3d</fix>
</trkpt>
<trkpt lat="33.810313" lon="-118.393867">
  <ele>-0.12</ele>
  <time>2026-09-02T22:07:08Z</time>
  <course>0.0</course>
  <speed>0.0</speed>
  <fix>3d</fix>
</trkpt>
<trkpt lat="33.810313" lon="-118.393867">
  <ele>-0.122</ele>
  <time>2026-09-02T22:07:08Z</time>
  <course>187.56</course>
  <speed>0.03605551275463989</speed>
  <fix>3d</fix>
</trkpt>
<trkpt lat="33.810313" lon="-118.393867">
  <ele>-0.12</ele>
  <time>2026-09-02T22:07:08Z</time>
  <course>0.0</course>
  <speed>0.0</speed>
  <fix>3d</fix>
</trkpt>
<trkpt lat="33.810313" lon="-118.393867">
  <ele>-0.119</ele>
  <time>2026-09-02T22:07:08Z</time>
  <course>187.55</course>
  <speed>0.03605551275463989</speed>
  <fix>3d</fix>
</trkpt>
<trkpt lat="33.810313" lon="-118.393867">
  <ele>-0.12</ele>
  <time>2026-09-02T22:07:08Z</time>
  <course>0.0</course>
  <speed>0.0</speed>
  <fix>3d</fix>
</trkpt>
<trkpt lat="33.810313" lon="-118.393867">
  <ele>-0.117</ele>
  <time>2026-09-02T22:07:08Z</time>
  <course>187.55</course>
  <speed>0.03605551275463989</speed>
  <fix>3d</fix>
</trkpt>
<trkpt lat="33.810313" lon="-118.393867">
  <ele>-0.12</ele>
  <time>2026-09-02T22:07:08Z</time>
  <course>0.0</course>
  <speed>0.0</speed>
  <fix>3d</fix>
</trkpt>
<trkpt lat="33.810313" lon="-118.393867">
  <ele>-0.117</ele>
  <time>2026-09-02T22:07:08Z</time>
  <course>187.54</course>
  <speed>0.03605551275463989</speed>
  <fix>3d</fix>
</trkpt>
<trkpt lat="33.810313" lon="-118.393867">
  <ele>-0.12</ele>
  <time>2026-09-02T22:07:08Z</time>
  <course>0.0</course>
  <speed>0.0</speed>
  <fix>3d</fix>
</trkpt>
<trkpt lat="33.810313" lon="-118.393867">
  <ele>-0.118</ele>
  <time>2026-09-02T22:07:08Z</time>
  <course>187.53</course>
  <speed>0.03605551275463989</speed>
  <fix>3d</fix>
</trkpt>
<trkpt lat="33.810313" lon="-118.393867">
  <ele>-0.12</ele>
  <time>2026-09-02T22:07:08Z</time>
  <course>0.0</course>
  <speed>0.0</speed>
  <fix>3d</fix>
</trkpt>
<trkpt lat="33.810313" lon="-118.393867">
  <ele>-0.119</ele>
  <time>2026-09-02T22:07:08Z</time>
  <course>187.53</course>
  <speed>0.03605551275463989</speed>
  <fix>3d</fix>
</trkpt>
<trkpt lat="33.810313" lon="-118.393867">
  <ele>-0.12</ele>
  <time>2026-09-02T22:07:08Z</time>
  <course>0.0</course>
  <speed>0.0</speed>
  <fix>3d</fix>
</trkpt>
<trkpt lat="33.810313" lon="-118.393867">
  <ele>-0.12</ele>
  <time>2026-09-02T22:07:08Z</time>
  <course>187.52</course>
  <speed>0.03605551275463989</speed>
  <fix>3d</fix>
</trkpt>
<trkpt lat="33.810313" lon="-118.393867">
  <ele>-0.12</ele>
  <time>2026-09-02T22:07:08Z</time>
  <course>0.0</course>
  <speed>0.0</speed>
  <fix>3d</fix>
</trkpt>
<trkpt lat="33.810313" lon="-118.393867">
  <ele>-0.121</ele>
  <time>2026-09-02T22:07:08Z</time>
  <course>187.51</course>
  <speed>0.03605551275463989</speed>
  <fix>3d</fix>
</trkpt>
<trkpt lat="33.810313" lon="-118.393867">
  <ele>-0.12</ele>
  <time>2026-09-02T22:07:08Z</time>
  <course>0.0</course>
  <speed>0.0</speed>
  <fix>3d</fix>
</trkpt>
<trkpt lat="33.810313" lon="-118.393867">
  <ele>-0.121</ele>
  <time>2026-09-02T22:07:08Z</time>
  <course>187.51</course>
  <speed>0.03605551275463989</speed>
  <fix>3d</fix>
</trkpt>
<trkpt lat="33.810313" lon="-118.393867">
  <ele>-0.12</ele>
  <time>2026-09-02T22:07:08Z</time>
  <course>0.0</course>
  <speed>0.0</speed>
  <fix>3d</fix>
</trkpt>
<trkpt lat="33.810313" lon="-118.393867">
  <ele>-0.121</ele>
  <time>2026-09-02T22:07:08Z</time>
  <course>187.5</course>
  <speed>0.03605551275463989</speed>
  <fix>3d</fix>
</trkpt>
<trkpt lat="33.810313" lon="-118.393867">
  <ele>-0.12</ele>
  <time>2026-09-02T22:07:08Z</time>
  <course>0.0</course>
  <speed>0.0</speed>
  <fix>3d</fix>
</trkpt>
<trkpt lat="33.810313" lon="-118.393867">
  <ele>-0.121</ele>
  <time>2026-09-02T22:07:08Z</time>
  <course>187.49</course>
  <speed>0.03605551275463989</speed>
  <fix>3d</fix>
</trkpt>
<trkpt lat="33.810313" lon="-118.393867">
  <ele>-0.12</ele>
  <time>2026-09-02T22:07:08Z</time>
  <course>0.0</course>
  <speed>0.0</speed>
  <fix>3d</fix>
</trkpt>
<trkpt lat="33.810313" lon="-118.393867">
  <ele>-0.121</ele>
  <time>2026-09-02T22:07:08Z</time>
  <course>187.49</course>
  <speed>0.03605551275463989</speed>
  <fix>3d</fix>
</trkpt>
<trkpt lat="33.810313" lon="-118.393867">
  <ele>-0.12</ele>
  <time>2026-09-02T22:07:08Z</time>
  <course>0.0</course>
  <speed>0.0</speed>
  <fix>3d</fix>
</trkpt>
<trkpt lat="33.810313" lon="-118.393867">
  <ele>-0.121</ele>
  <time>2026-09-02T22:07:08Z</time>
  <course>187.48</course>
  <speed>0.03605551275463989</speed>
  <fix>3d</fix>
</trkpt>
<trkpt lat="33.810313" lon="-118.393867">
  <ele>-0.12</ele>
  <time>2026-09-02T22:07:08Z</time>
  <course>0.0</course>
  <speed>0.0</speed>
  <fix>3d</fix>
</trkpt>
<trkpt lat="33.810313" lon="-118.393867">
  <ele>-0.122</ele>
  <time>2026-09-02T22:07:08Z</time>
  <course>187.47</course>
  <speed>0.03605551275463989</speed>
  <fix>3d</fix>
</trkpt>
<trkpt lat="33.810313" lon="-118.393867">
  <ele>-0.12</ele>
  <time>2026-09-02T22:07:08Z</time>
  <course>0.0</course>
  <speed>0.0</speed>
  <fix>3d</fix>
</trkpt>
<trkpt lat="33.810313" lon="-118.393867">
  <ele>-0.124</ele>
  <time>2026-09-02T22:07:08Z</time>
  <course>187.47</course>
  <speed>0.03605551275463989</speed>
  <fix>3d</fix>
</trkpt>
<trkpt lat="33.810313" lon="-118.393867">
  <ele>-0.12</ele>
  <time>2026-09-02T22:07:08Z</time>
  <course>0.0</course>
  <speed>0.0</speed>
  <fix>3d</fix>
</trkpt>
<trkpt lat="33.810313" lon="-118.393867">
  <ele>-0.127</ele>
  <time>2026-09-02T22:07:08Z</time>
  <course>187.46</course>
  <speed>0.03605551275463989</speed>
  <fix>3d</fix>
</trkpt>
<trkpt lat="33.810313" lon="-118.393867">
  <ele>-0.12</ele>
  <time>2026-09-02T22:07:08Z</time>
  <course>0.0</course>
  <speed>0.0</speed>
  <fix>3d</fix>
</trkpt>
<trkpt lat="33.810313" lon="-118.393867">
  <ele>-0.129</ele>
  <time>2026-09-02T22:07:08Z</time>
  <course>187.46</course>
  <speed>0.03605551275463989</speed>
  <fix>3d</fix>
</trkpt>
<trkpt lat="33.810313" lon="-118.393867">
  <ele>-0.12</ele>
  <time>2026-09-02T22:07:08Z</time>
  <course>0.0</course>
  <speed>0.0</speed>
  <fix>3d</fix>
</trkpt>
<trkpt lat="33.810313" lon="-118.393867">
  <ele>-0.131</ele>
  <time>2026-09-02T22:07:08Z</time>
  <course>187.45</course>
  <speed>0.03605551275463989</speed>
  <fix>3d</fix>
</trkpt>
<trkpt lat="33.810313" lon="-118.393867">
  <ele>-0.12</ele>
  <time>2026-09-02T22:07:08Z</time>
  <course>0.0</course>
  <speed>0.0</speed>
  <fix>3d</fix>
</trkpt>
<trkpt lat="33.810313" lon="-118.393867">
  <ele>-0.132</ele>
  <time>2026-09-02T22:07:08Z</time>
  <course>187.44</course>
  <speed>0.03605551275463989</speed>
  <fix>3d</fix>
</trkpt>
<trkpt lat="33.810313" lon="-118.393867">
  <ele>-0.12</ele>
  <time>2026-09-02T22:07:08Z</time>
  <course>0.0</course>
  <speed>0.0</speed>
  <fix>3d</fix>
</trkpt>
<trkpt lat="33.810313" lon="-118.393867">
  <ele>-0.132</ele>
  <time>2026-09-02T22:07:08Z</time>
  <course>187.44</course>
  <speed>0.03605551275463989</speed>
  <fix>3d</fix>
</trkpt>
<trkpt lat="33.810313" lon="-118.393867">
  <ele>-0.12</ele>
  <time>2026-09-02T22:07:08Z</time>
  <course>0.0</course>
  <speed>0.0</speed>
  <fix>3d</fix>
</trkpt>
<trkpt lat="33.810313" lon="-118.393867">
  <ele>-0.132</ele>
  <time>2026-09-02T22:07:08Z</time>
  <course>187.43</course>
  <speed>0.03605551275463989</speed>
  <fix>3d</fix>
</trkpt>
<trkpt lat="33.810313" lon="-118.393867">
  <ele>-0.12</ele>
  <time>2026-09-02T22:07:08Z</time>
  <course>0.0</course>
  <speed>0.0</speed>
  <fix>3d</fix>
</trkpt>
<trkpt lat="33.810313" lon="-118.393867">
  <ele>-0.132</ele>
  <time>2026-09-02T22:07:08Z</time>
  <course>187.42</course>
  <speed>0.03605551275463989</speed>
  <fix>3d</fix>
</trkpt>
<trkpt lat="33.810313" lon="-118.393867">
  <ele>-0.12</ele>
  <time>2026-09-02T22:07:08Z</time>
  <course>0.0</course>
  <speed>0.0</speed>
  <fix>3d</fix>
</trkpt>
<trkpt lat="33.810313" lon="-118.393867">
  <ele>-0.131</ele>
  <time>2026-09-02T22:07:08Z</time>
  <course>187.42</course>
  <speed>0.03605551275463989</speed>
  <fix>3d</fix>
</trkpt>
<trkpt lat="33.810313" lon="-118.393867">
  <ele>-0.12</ele>
  <time>2026-09-02T22:07:08Z</time>
  <course>0.0</course>
  <speed>0.0</speed>
  <fix>3d</fix>
</trkpt>
<trkpt lat="33.810313" lon="-118.393867">
  <ele>-0.131</ele>
  <time>2026-09-02T22:07:08Z</time>
  <course>187.41</course>
  <speed>0.03605551275463989</speed>
  <fix>3d</fix>
</trkpt>
<trkpt lat="33.810313" lon="-118.393867">
  <ele>-0.12</ele>
  <time>2026-09-02T22:07:08Z</time>
  <course>0.0</course>
  <speed>0.0</speed>
  <fix>3d</fix>
</trkpt>
<trkpt lat="33.810313" lon="-118.393867">
  <ele>-0.132</ele>
  <time>2026-09-02T22:07:08Z</time>
  <course>187.41</course>
  <speed>0.03605551275463989</speed>
  <fix>3d</fix>
</trkpt>
<trkpt lat="33.810313" lon="-118.393867">
  <ele>-0.12</ele>
  <time>2026-09-02T22:07:08Z</time>
  <course>0.0</course>
  <speed>0.0</speed>
  <fix>3d</fix>
</trkpt>
<trkpt lat="33.810313" lon="-118.393867">
  <ele>-0.134</ele>
  <time>2026-09-02T22:07:08Z</time>
  <course>187.4</course>
  <speed>0.03605551275463989</speed>
  <fix>3d</fix>
</trkpt>
<trkpt lat="33.810313" lon="-118.393867">
  <ele>-0.12</ele>
  <time>2026-09-02T22:07:08Z</time>
  <course>0.0</course>
  <speed>0.0</speed>
  <fix>3d</fix>
</trkpt>
<trkpt lat="33.810313" lon="-118.393867">
  <ele>-0.137</ele>
  <time>2026-09-02T22:07:08Z</time>
  <course>187.39</course>
  <speed>0.03605551275463989</speed>
  <fix>3d</fix>
</trkpt>
<trkpt lat="33.810313" lon="-118.393867">
  <ele>-0.12</ele>
  <time>2026-09-02T22:07:08Z</time>
  <course>0.0</course>
  <speed>0.0</speed>
  <fix>3d</fix>
</trkpt>
<trkpt lat="33.810313" lon="-118.393867">
  <ele>-0.139</ele>
  <time>2026-09-02T22:07:08Z</time>
  <course>187.39</course>
  <speed>0.03605551275463989</speed>
  <fix>3d</fix>
</trkpt>
<trkpt lat="33.810313" lon="-118.393867">
  <ele>-0.12</ele>
  <time>2026-09-02T22:07:08Z</time>
  <course>0.0</course>
  <speed>0.0</speed>
  <fix>3d</fix>
</trkpt>
<trkpt lat="33.810313" lon="-118.393867">
  <ele>-0.141</ele>
  <time>2026-09-02T22:07:08Z</time>
  <course>187.38</course>
  <speed>0.03605551275463989</speed>
  <fix>3d</fix>
</trkpt>
<trkpt lat="33.810313" lon="-118.393867">
  <ele>-0.12</ele>
  <time>2026-09-02T22:07:08Z</time>
  <course>0.0</course>
  <speed>0.0</speed>
  <fix>3d</fix>
</trkpt>
<trkpt lat="33.810313" lon="-118.393867">
  <ele>-0.141</ele>
  <time>2026-09-02T22:07:08Z</time>
  <course>187.38</course>
  <speed>0.03605551275463989</speed>
  <fix>3d</fix>
</trkpt>
<trkpt lat="33.810313" lon="-118.393867">
  <ele>-0.12</ele>
  <time>2026-09-02T22:07:08Z</time>
  <course>0.0</course>
  <speed>0.0</speed>
  <fix>3d</fix>
</trkpt>
<trkpt lat="33.810313" lon="-118.393867">
  <ele>-0.139</ele>
  <time>2026-09-02T22:07:08Z</time>
  <course>187.37</course>
  <speed>0.03605551275463989</speed>
  <fix>3d</fix>
</trkpt>
<trkpt lat="33.810313" lon="-118.393867">
  <ele>-0.12</ele>
  <time>2026-09-02T22:07:08Z</time>
  <course>0.0</course>
  <speed>0.0</speed>
  <fix>3d</fix>
</trkpt>
<trkpt lat="33.810313" lon="-118.393867">
  <ele>-0.136</ele>
  <time>2026-09-02T22:07:08Z</time>
  <course>187.36</course>
  <speed>0.03605551275463989</speed>
  <fix>3d</fix>
</trkpt>
<trkpt lat="33.810313" lon="-118.393867">
  <ele>-0.12</ele>
  <time>2026-09-02T22:07:08Z</time>
  <course>0.0</course>
  <speed>0.0</speed>
  <fix>3d</fix>
</trkpt>
<trkpt lat="33.810313" lon="-118.393867">
  <ele>-0.133</ele>
  <time>2026-09-02T22:07:08Z</time>
  <course>187.36</course>
  <speed>0.03605551275463989</speed>
  <fix>3d</fix>
</trkpt>
<trkpt lat="33.810313" lon="-118.393867">
  <ele>-0.12</ele>
  <time>2026-09-02T22:07:08Z</time>
  <course>0.0</course>
  <speed>0.0</speed>
  <fix>3d</fix>
</trkpt>
<trkpt lat="33.810313" lon="-118.393867">
  <ele>-0.129</ele>
  <time>2026-09-02T22:07:08Z</time>
  <course>187.35</course>
  <speed>0.03605551275463989</speed>
  <fix>3d</fix>
</trkpt>
<trkpt lat="33.810313" lon="-118.393867">
  <ele>-0.12</ele>
  <time>2026-09-02T22:07:08Z</time>
  <course>0.0</course>
  <speed>0.0</speed>
  <fix>3d</fix>
</trkpt>
<trkpt lat="33.810313" lon="-118.393867">
  <ele>-0.127</ele>
  <time>2026-09-02T22:07:08Z</time>
  <course>187.35</course>
  <speed>0.03605551275463989</speed>
  <fix>3d</fix>
</trkpt>
<trkpt lat="33.810313" lon="-118.393867">
  <ele>-0.12</ele>
  <time>2026-09-02T22:07:08Z</time>
  <course>0.0</course>
  <speed>0.0</speed>
  <fix>3d</fix>
</trkpt>
<trkpt lat="33.810313" lon="-118.393867">
  <ele>-0.127</ele>
  <time>2026-09-02T22:07:08Z</time>
  <course>187.34</course>
  <speed>0.03605551275463989</speed>
  <fix>3d</fix>
</trkpt>
<trkpt lat="33.810313" lon="-118.393867">
  <ele>-0.12</ele>
  <time>2026-09-02T22:07:08Z</time>
  <course>0.0</course>
  <speed>0.0</speed>
  <fix>3d</fix>
</trkpt>
<trkpt lat="33.810313" lon="-118.393867">
  <ele>-0.126</ele>
  <time>2026-09-02T22:07:08Z</time>
  <course>187.34</course>
  <speed>0.03605551275463989</speed>
  <fix>3d</fix>
</trkpt>
<trkpt lat="33.810313" lon="-118.393867">
  <ele>-0.12</ele>
  <time>2026-09-02T22:07:08Z</time>
  <course>0.0</course>
  <speed>0.0</speed>
  <fix>3d</fix>
</trkpt>
<trkpt lat="33.810313" lon="-118.393867">
  <ele>-0.126</ele>
  <time>2026-09-02T22:07:08Z</time>
  <course>187.33</course>
  <speed>0.03605551275463989</speed>
  <fix>3d</fix>
</trkpt>
<trkpt lat="33.810313" lon="-118.393867">
  <ele>-0.12</ele>
  <time>2026-09-02T22:07:08Z</time>
  <course>0.0</course>
  <speed>0.0</speed>
  <fix>3d</fix>
</trkpt>
<trkpt lat="33.810313" lon="-118.393867">
  <ele>-0.126</ele>
  <time>2026-09-02T22:07:08Z</time>
  <course>187.32</course>
  <speed>0.03605551275463989</speed>
  <fix>3d</fix>
</trkpt>
<trkpt lat="33.810313" lon="-118.393867">
  <ele>-0.12</ele>
  <time>2026-09-02T22:07:08Z</time>
  <course>0.0</course>
  <speed>0.0</speed>
  <fix>3d</fix>
</trkpt>
<trkpt lat="33.810313" lon="-118.393867">
  <ele>-0.126</ele>
  <time>2026-09-02T22:07:08Z</time>
  <course>187.32</course>
  <speed>0.03605551275463989</speed>
  <fix>3d</fix>
</trkpt>
<trkpt lat="33.810313" lon="-118.393867">
  <ele>-0.12</ele>
  <time>2026-09-02T22:07:08Z</time>
  <course>0.0</course>
  <speed>0.0</speed>
  <fix>3d</fix>
</trkpt>
<trkpt lat="33.810313" lon="-118.393867">
  <ele>-0.125</ele>
  <time>2026-09-02T22:07:08Z</time>
  <course>187.31</course>
  <speed>0.03605551275463989</speed>
  <fix>3d</fix>
</trkpt>
<trkpt lat="33.810313" lon="-118.393867">
  <ele>-0.12</ele>
  <time>2026-09-02T22:07:08Z</time>
  <course>0.0</course>
  <speed>0.0</speed>
  <fix>3d</fix>
</trkpt>
<trkpt lat="33.810313" lon="-118.393867">
  <ele>-0.124</ele>
  <time>2026-09-02T22:07:08Z</time>
  <course>187.31</course>
  <speed>0.03605551275463989</speed>
  <fix>3d</fix>
</trkpt>
<trkpt lat="33.810313" lon="-118.393867">
  <ele>-0.12</ele>
  <time>2026-09-02T22:07:08Z</time>
  <course>0.0</course>
  <speed>0.0</speed>
  <fix>3d</fix>
</trkpt>
<trkpt lat="33.810313" lon="-118.393867">
  <ele>-0.122</ele>
  <time>2026-09-02T22:07:08Z</time>
  <course>187.3</course>
  <speed>0.03605551275463989</speed>
  <fix>3d</fix>
</trkpt>
<trkpt lat="33.810313" lon="-118.393867">
  <ele>-0.12</ele>
  <time>2026-09-02T22:07:08Z</time>
  <course>0.0</course>
  <speed>0.0</speed>
  <fix>3d</fix>
</trkpt>
<trkpt lat="33.810313" lon="-118.393867">
  <ele>-0.121</ele>
  <time>2026-09-02T22:07:08Z</time>
  <course>187.3</course>
  <speed>0.03605551275463989</speed>
  <fix>3d</fix>
</trkpt>
<trkpt lat="33.810313" lon="-118.393867">
  <ele>-0.12</ele>
  <time>2026-09-02T22:07:08Z</time>
  <course>0.0</course>
  <speed>0.0</speed>
  <fix>3d</fix>
</trkpt>
<trkpt lat="33.810313" lon="-118.393867">
  <ele>-0.122</ele>
  <time>2026-09-02T22:07:08Z</time>
  <course>187.29</course>
  <speed>0.03605551275463989</speed>
  <fix>3d</fix>
</trkpt>
<trkpt lat="33.810313" lon="-118.393867">
  <ele>-0.12</ele>
  <time>2026-09-02T22:07:08Z</time>
  <course>0.0</course>
  <speed>0.0</speed>
  <fix>3d</fix>
</trkpt>
<trkpt lat="33.810313" lon="-118.393867">
  <ele>-0.124</ele>
  <time>2026-09-02T22:07:08Z</time>
  <course>187.28</course>
  <speed>0.03605551275463989</speed>
  <fix>3d</fix>
</trkpt>
<trkpt lat="33.810313" lon="-118.393867">
  <ele>-0.12</ele>
  <time>2026-09-02T22:07:08Z</time>
  <course>0.0</course>
  <speed>0.0</speed>
  <fix>3d</fix>
</trkpt>
<trkpt lat="33.810313" lon="-118.393867">
  <ele>-0.127</ele>
  <time>2026-09-02T22:07:08Z</time>
  <course>187.28</course>
  <speed>0.03605551275463989</speed>
  <fix>3d</fix>
</trkpt>
<trkpt lat="33.810313" lon="-118.393867">
  <ele>-0.12</ele>
  <time>2026-09-02T22:07:08Z</time>
  <course>0.0</course>
  <speed>0.0</speed>
  <fix>3d</fix>
</trkpt>
<trkpt lat="33.810313" lon="-118.393867">
  <ele>-0.13</ele>
  <time>2026-09-02T22:07:08Z</time>
  <course>187.27</course>
  <speed>0.03605551275463989</speed>
  <fix>3d</fix>
</trkpt>
<trkpt lat="33.810313" lon="-118.393867">
  <ele>-0.12</ele>
  <time>2026-09-02T22:07:08Z</time>
  <course>0.0</course>
  <speed>0.0</speed>
  <fix>3d</fix>
</trkpt>
<trkpt lat="33.810313" lon="-118.393867">
  <ele>-0.132</ele>
  <time>2026-09-02T22:07:08Z</time>
  <course>187.27</course>
  <speed>0.03605551275463989</speed>
  <fix>3d</fix>
</trkpt>
<trkpt lat="33.810313" lon="-118.393867">
  <ele>-0.12</ele>
  <time>2026-09-02T22:07:08Z</time>
  <course>0.0</course>
  <speed>0.0</speed>
  <fix>3d</fix>
</trkpt>
<trkpt lat="33.810313" lon="-118.393867">
  <ele>-0.134</ele>
  <time>2026-09-02T22:07:08Z</time>
  <course>187.26</course>
  <speed>0.03605551275463989</speed>
  <fix>3d</fix>
</trkpt>
<trkpt lat="33.810313" lon="-118.393867">
  <ele>-0.12</ele>
  <time>2026-09-02T22:07:08Z</time>
  <course>0.0</course>
  <speed>0.0</speed>
  <fix>3d</fix>
</trkpt>
<trkpt lat="33.810313" lon="-118.393867">
  <ele>-0.136</ele>
  <time>2026-09-02T22:07:08Z</time>
  <course>187.26</course>
  <speed>0.03605551275463989</speed>
  <fix>3d</fix>
</trkpt>
<trkpt lat="33.810313" lon="-118.393867">
  <ele>-0.12</ele>
  <time>2026-09-02T22:07:08Z</time>
  <course>0.0</course>
  <speed>0.0</speed>
  <fix>3d</fix>
</trkpt>
<trkpt lat="33.810313" lon="-118.393867">
  <ele>-0.136</ele>
  <time>2026-09-02T22:07:08Z</time>
  <course>187.25</course>
  <speed>0.03605551275463989</speed>
  <fix>3d</fix>
</trkpt>
<trkpt lat="33.810313" lon="-118.393867">
  <ele>-0.12</ele>
  <time>2026-09-02T22:07:08Z</time>
  <course>0.0</course>
  <speed>0.0</speed>
  <fix>3d</fix>
</trkpt>
<trkpt lat="33.810313" lon="-118.393867">
  <ele>-0.135</ele>
  <time>2026-09-02T22:07:08Z</time>
  <course>187.25</course>
  <speed>0.03605551275463989</speed>
  <fix>3d</fix>
</trkpt>
<trkpt lat="33.810313" lon="-118.393867">
  <ele>-0.12</ele>
  <time>2026-09-02T22:07:08Z</time>
  <course>0.0</course>
  <speed>0.0</speed>
  <fix>3d</fix>
</trkpt>
<trkpt lat="33.810313" lon="-118.393867">
  <ele>-0.134</ele>
  <time>2026-09-02T22:07:08Z</time>
  <course>187.24</course>
  <speed>0.03605551275463989</speed>
  <fix>3d</fix>
</trkpt>
<trkpt lat="33.810313" lon="-118.393867">
  <ele>-0.12</ele>
  <time>2026-09-02T22:07:08Z</time>
  <course>0.0</course>
  <speed>0.0</speed>
  <fix>3d</fix>
</trkpt>
<trkpt lat="33.810313" lon="-118.393867">
  <ele>-0.132</ele>
  <time>2026-09-02T22:07:08Z</time>
  <course>187.24</course>
  <speed>0.03605551275463989</speed>
  <fix>3d</fix>
</trkpt>
<trkpt lat="33.810313" lon="-118.393867">
  <ele>-0.12</ele>
  <time>2026-09-02T22:07:08Z</time>
  <course>0.0</course>
  <speed>0.0</speed>
  <fix>3d</fix>
</trkpt>
<trkpt lat="33.810313" lon="-118.393867">
  <ele>-0.131</ele>
  <time>2026-09-02T22:07:08Z</time>
  <course>187.23</course>
  <speed>0.03605551275463989</speed>
  <fix>3d</fix>
</trkpt>
<trkpt lat="33.810313" lon="-118.393867">
  <ele>-0.12</ele>
  <time>2026-09-02T22:07:08Z</time>
  <course>0.0</course>
  <speed>0.0</speed>
  <fix>3d</fix>
</trkpt>
<trkpt lat="33.810313" lon="-118.393867">
  <ele>-0.131</ele>
  <time>2026-09-02T22:07:08Z</time>
  <course>187.23</course>
  <speed>0.03605551275463989</speed>
  <fix>3d</fix>
</trkpt>
<trkpt lat="33.810313" lon="-118.393867">
  <ele>-0.12</ele>
  <time>2026-09-02T22:07:08Z</time>
  <course>0.0</course>
  <speed>0.0</speed>
  <fix>3d</fix>
</trkpt>
<trkpt lat="33.810313" lon="-118.393867">
  <ele>-0.132</ele>
  <time>2026-09-02T22:07:08Z</time>
  <course>187.22</course>
  <speed>0.03605551275463989</speed>
  <fix>3d</fix>
</trkpt>
<trkpt lat="33.810313" lon="-118.393867">
  <ele>-0.12</ele>
  <time>2026-09-02T22:07:08Z</time>
  <course>0.0</course>
  <speed>0.0</speed>
  <fix>3d</fix>
</trkpt>
<trkpt lat="33.810313" lon="-118.393867">
  <ele>-0.132</ele>
  <time>2026-09-02T22:07:08Z</time>
  <course>187.21</course>
  <speed>0.03605551275463989</speed>
  <fix>3d</fix>
</trkpt>
<trkpt lat="33.810313" lon="-118.393867">
  <ele>-0.12</ele>
  <time>2026-09-02T22:07:08Z</time>
  <course>0.0</course>
  <speed>0.0</speed>
  <fix>3d</fix>
</trkpt>
<trkpt lat="33.810313" lon="-118.393867">
  <ele>-0.133</ele>
  <time>2026-09-02T22:07:08Z</time>
  <course>187.21</course>
  <speed>0.03605551275463989</speed>
  <fix>3d</fix>
</trkpt>
<trkpt lat="33.810313" lon="-118.393867">
  <ele>-0.12</ele>
  <time>2026-09-02T22:07:08Z</time>
  <course>0.0</course>
  <speed>0.0</speed>
  <fix>3d</fix>
</trkpt>
<trkpt lat="33.810313" lon="-118.393867">
  <ele>-0.132</ele>
  <time>2026-09-02T22:07:08Z</time>
  <course>187.2</course>
  <speed>0.03605551275463989</speed>
  <fix>3d</fix>
</trkpt>
<trkpt lat="33.810313" lon="-118.393867">
  <ele>-0.12</ele>
  <time>2026-09-02T22:07:08Z</time>
  <course>0.0</course>
  <speed>0.0</speed>
  <fix>3d</fix>
</trkpt>
<trkpt lat="33.810313" lon="-118.393867">
  <ele>-0.131</ele>
  <time>2026-09-02T22:07:08Z</time>
  <course>187.2</course>
  <speed>0.03605551275463989</speed>
  <fix>3d</fix>
</trkpt>
<trkpt lat="33.810313" lon="-118.393867">
  <ele>-0.12</ele>
  <time>2026-09-02T22:07:08Z</time>
  <course>0.0</course>
  <speed>0.0</speed>
  <fix>3d</fix>
</trkpt>
<trkpt lat="33.810313" lon="-118.393867">
  <ele>-0.129</ele>
  <time>2026-09-02T22:07:08Z</time>
  <course>187.19</course>
  <speed>0.03605551275463989</speed>
  <fix>3d</fix>
</trkpt>
<trkpt lat="33.810313" lon="-118.393867">
  <ele>-0.12</ele>
  <time>2026-09-02T22:07:08Z</time>
  <course>0.0</course>
  <speed>0.0</speed>
  <fix>3d</fix>
</trkpt>
<trkpt lat="33.810313" lon="-118.393867">
  <ele>-0.126</ele>
  <time>2026-09-02T22:07:08Z</time>
  <course>187.19</course>
  <speed>0.03605551275463989</speed>
  <fix>3d</fix>
</trkpt>
<trkpt lat="33.810313" lon="-118.393867">
  <ele>-0.12</ele>
  <time>2026-09-02T22:07:08Z</time>
  <course>0.0</course>
  <speed>0.0</speed>
  <fix>3d</fix>
</trkpt>
<trkpt lat="33.810313" lon="-118.393867">
  <ele>-0.124</ele>
  <time>2026-09-02T22:07:08Z</time>
  <course>187.18</course>
  <speed>0.03605551275463989</speed>
  <fix>3d</fix>
</trkpt>
<trkpt lat="33.810313" lon="-118.393867">
  <ele>-0.12</ele>
  <time>2026-09-02T22:07:08Z</time>
  <course>0.0</course>
  <speed>0.0</speed>
  <fix>3d</fix>
</trkpt>
<trkpt lat="33.810313" lon="-118.393867">
  <ele>-0.123</ele>
  <time>2026-09-02T22:07:08Z</time>
  <course>187.18</course>
  <speed>0.03605551275463989</speed>
  <fix>3d</fix>
</trkpt>
<trkpt lat="33.810313" lon="-118.393867">
  <ele>-0.12</ele>
  <time>2026-09-02T22:07:08Z</time>
  <course>0.0</course>
  <speed>0.0</speed>
  <fix>3d</fix>
</trkpt>
<trkpt lat="33.810313" lon="-118.393867">
  <ele>-0.123</ele>
  <time>2026-09-02T22:07:08Z</time>
  <course>187.17</course>
  <speed>0.03605551275463989</speed>
  <fix>3d</fix>
</trkpt>
<trkpt lat="33.810313" lon="-118.393867">
  <ele>-0.12</ele>
  <time>2026-09-02T22:07:08Z</time>
  <course>0.0</course>
  <speed>0.0</speed>
  <fix>3d</fix>
</trkpt>
<trkpt lat="33.810313" lon="-118.393867">
  <ele>-0.122</ele>
  <time>2026-09-02T22:07:08Z</time>
  <course>187.17</course>
  <speed>0.0</speed>
  <fix>3d</fix>
</trkpt>
<trkpt lat="33.810313" lon="-118.393867">
  <ele>-0.12</ele>
  <time>2026-09-02T22:07:08Z</time>
  <course>0.0</course>
  <speed>0.0</speed>
  <fix>3d</fix>
</trkpt>
<trkpt lat="33.810313" lon="-118.393867">
  <ele>-0.121</ele>
  <time>2026-09-02T22:07:08Z</time>
  <course>187.16</course>
  <speed>0.0</speed>
  <fix>3d</fix>
</trkpt>
<trkpt lat="33.810313" lon="-118.393867">
  <ele>-0.12</ele>
  <time>2026-09-02T22:07:08Z</time>
  <course>0.0</course>
  <speed>0.0</speed>
  <fix>3d</fix>
</trkpt>
<trkpt lat="33.810313" lon="-118.393867">
  <ele>-0.121</ele>
  <time>2026-09-02T22:07:08Z</time>
  <course>187.16</course>
  <speed>0.0</speed>
  <fix>3d</fix>
</trkpt>
<trkpt lat="33.810313" lon="-118.393867">
  <ele>-0.12</ele>
  <time>2026-09-02T22:07:08Z</time>
  <course>0.0</course>
  <speed>0.0</speed>
  <fix>3d</fix>
</trkpt>
<trkpt lat="33.810313" lon="-118.393867">
  <ele>-0.119</ele>
  <time>2026-09-02T22:07:08Z</time>
  <course>187.15</course>
  <speed>0.0</speed>
  <fix>3d</fix>
</trkpt>
<trkpt lat="33.810313" lon="-118.393867">
  <ele>-0.12</ele>
  <time>2026-09-02T22:07:08Z</time>
  <course>0.0</course>
  <speed>0.0</speed>
  <fix>3d</fix>
</trkpt>
<trkpt lat="33.810313" lon="-118.393867">
  <ele>-0.116</ele>
  <time>2026-09-02T22:07:08Z</time>
  <course>187.15</course>
  <speed>0.0</speed>
  <fix>3d</fix>
</trkpt>
<trkpt lat="33.810313" lon="-118.393867">
  <ele>-0.12</ele>
  <time>2026-09-02T22:07:08Z</time>
  <course>0.0</course>
  <speed>0.0</speed>
  <fix>3d</fix>
</trkpt>
<trkpt lat="33.810313" lon="-118.393867">
  <ele>-0.114</ele>
  <time>2026-09-02T22:07:08Z</time>
  <course>187.14</course>
  <speed>0.0</speed>
  <fix>3d</fix>
</trkpt>
<trkpt lat="33.810313" lon="-118.393867">
  <ele>-0.12</ele>
  <time>2026-09-02T22:07:08Z</time>
  <course>0.0</course>
  <speed>0.0</speed>
  <fix>3d</fix>
</trkpt>
<trkpt lat="33.810313" lon="-118.393867">
  <ele>-0.113</ele>
  <time>2026-09-02T22:07:08Z</time>
  <course>187.14</course>
  <speed>0.0</speed>
  <fix>3d</fix>
</trkpt>
<trkpt lat="33.810313" lon="-118.393867">
  <ele>-0.12</ele>
  <time>2026-09-02T22:07:08Z</time>
  <course>0.0</course>
  <speed>0.0</speed>
  <fix>3d</fix>
</trkpt>
<trkpt lat="33.810313" lon="-118.393867">
  <ele>-0.112</ele>
  <time>2026-09-02T22:07:08Z</time>
  <course>187.13</course>
  <speed>0.0</speed>
  <fix>3d</fix>
</trkpt>
<trkpt lat="33.810313" lon="-118.393867">
  <ele>-0.12</ele>
  <time>2026-09-02T22:07:08Z</time>
  <course>0.0</course>
  <speed>0.0</speed>
  <fix>3d</fix>
</trkpt>
<trkpt lat="33.810313" lon="-118.393867">
  <ele>-0.113</ele>
  <time>2026-09-02T22:07:08Z</time>
  <course>187.13</course>
  <speed>0.0</speed>
  <fix>3d</fix>
</trkpt>
<trkpt lat="33.810313" lon="-118.393867">
  <ele>-0.12</ele>
  <time>2026-09-02T22:07:08Z</time>
  <course>0.0</course>
  <speed>0.0</speed>
  <fix>3d</fix>
</trkpt>
<trkpt lat="33.810313" lon="-118.393867">
  <ele>-0.114</ele>
  <time>2026-09-02T22:07:08Z</time>
  <course>187.12</course>
  <speed>0.0</speed>
  <fix>3d</fix>
</trkpt>
<trkpt lat="33.810313" lon="-118.393867">
  <ele>-0.12</ele>
  <time>2026-09-02T22:07:08Z</time>
  <course>0.0</course>
  <speed>0.0</speed>
  <fix>3d</fix>
</trkpt>
<trkpt lat="33.810313" lon="-118.393867">
  <ele>-0.116</ele>
  <time>2026-09-02T22:07:08Z</time>
  <course>187.12</course>
  <speed>0.0</speed>
  <fix>3d</fix>
</trkpt>
<trkpt lat="33.810313" lon="-118.393867">
  <ele>-0.12</ele>
  <time>2026-09-02T22:07:08Z</time>
  <course>0.0</course>
  <speed>0.0</speed>
  <fix>3d</fix>
</trkpt>
<trkpt lat="33.810313" lon="-118.393867">
  <ele>-0.119</ele>
  <time>2026-09-02T22:07:08Z</time>
  <course>187.11</course>
  <speed>0.01</speed>
  <fix>3d</fix>
</trkpt>
<trkpt lat="33.810313" lon="-118.393867">
  <ele>-0.12</ele>
  <time>2026-09-02T22:07:08Z</time>
  <course>0.0</course>
  <speed>0.0</speed>
  <fix>3d</fix>
</trkpt>
<trkpt lat="33.810313" lon="-118.393867">
  <ele>-0.12</ele>
  <time>2026-09-02T22:07:08Z</time>
  <course>187.11</course>
  <speed>0.01</speed>
  <fix>3d</fix>
</trkpt>
<trkpt lat="33.810313" lon="-118.393867">
  <ele>-0.12</ele>
  <time>2026-09-02T22:07:08Z</time>
  <course>0.0</course>
  <speed>0.0</speed>
  <fix>3d</fix>
</trkpt>
<trkpt lat="33.810313" lon="-118.393867">
  <ele>-0.121</ele>
  <time>2026-09-02T22:07:08Z</time>
  <course>187.1</course>
  <speed>0.01</speed>
  <fix>3d</fix>
</trkpt>
<trkpt lat="33.810313" lon="-118.393867">
  <ele>-0.12</ele>
  <time>2026-09-02T22:07:08Z</time>
  <course>0.0</course>
  <speed>0.0</speed>
  <fix>3d</fix>
</trkpt>
<trkpt lat="33.810313" lon="-118.393867">
  <ele>-0.122</ele>
  <time>2026-09-02T22:07:08Z</time>
  <course>187.1</course>
  <speed>0.01414213562373095</speed>
  <fix>3d</fix>
</trkpt>
<trkpt lat="33.810313" lon="-118.393867">
  <ele>-0.12</ele>
  <time>2026-09-02T22:07:08Z</time>
  <course>0.0</course>
  <speed>0.0</speed>
  <fix>3d</fix>
</trkpt>
<trkpt lat="33.810313" lon="-118.393867">
  <ele>-0.122</ele>
  <time>2026-09-02T22:07:08Z</time>
  <course>187.1</course>
  <speed>0.01414213562373095</speed>
  <fix>3d</fix>
</trkpt>
<trkpt lat="33.810313" lon="-118.393867">
  <ele>-0.12</ele>
  <time>2026-09-02T22:07:08Z</time>
  <course>0.0</course>
  <speed>0.0</speed>
  <fix>3d</fix>
</trkpt>
<trkpt lat="33.810313" lon="-118.393867">
  <ele>-0.123</ele>
  <time>2026-09-02T22:07:08Z</time>
  <course>187.09</course>
  <speed>0.01414213562373095</speed>
  <fix>3d</fix>
</trkpt>
<trkpt lat="33.810313" lon="-118.393867">
  <ele>-0.12</ele>
  <time>2026-09-02T22:07:08Z</time>
  <course>0.0</course>
  <speed>0.0</speed>
  <fix>3d</fix>
</trkpt>
<trkpt lat="33.810313" lon="-118.393867">
  <ele>-0.124</ele>
  <time>2026-09-02T22:07:08Z</time>
  <course>187.09</course>
  <speed>0.01414213562373095</speed>
  <fix>3d</fix>
</trkpt>
<trkpt lat="33.810313" lon="-118.393867">
  <ele>-0.12</ele>
  <time>2026-09-02T22:07:08Z</time>
  <course>0.0</course>
  <speed>0.0</speed>
  <fix>3d</fix>
</trkpt>
<trkpt lat="33.810313" lon="-118.393867">
  <ele>-0.126</ele>
  <time>2026-09-02T22:07:08Z</time>
  <course>187.08</course>
  <speed>0.01414213562373095</speed>
  <fix>3d</fix>
</trkpt>
<trkpt lat="33.810313" lon="-118.393867">
  <ele>-0.12</ele>
  <time>2026-09-02T22:07:08Z</time>
  <course>0.0</course>
  <speed>0.0</speed>
  <fix>3d</fix>
</trkpt>
<trkpt lat="33.810313" lon="-118.393867">
  <ele>-0.128</ele>
  <time>2026-09-02T22:07:08Z</time>
  <course>187.08</course>
  <speed>0.01414213562373095</speed>
  <fix>3d</fix>
</trkpt>
<trkpt lat="33.810313" lon="-118.393867">
  <ele>-0.12</ele>
  <time>2026-09-02T22:07:08Z</time>
  <course>0.0</course>
  <speed>0.0</speed>
  <fix>3d</fix>
</trkpt>
<trkpt lat="33.810313" lon="-118.393867">
  <ele>-0.13</ele>
  <time>2026-09-02T22:07:08Z</time>
  <course>187.07</course>
  <speed>0.01414213562373095</speed>
  <fix>3d</fix>
</trkpt>
<trkpt lat="33.810313" lon="-118.393867">
  <ele>-0.12</ele>
  <time>2026-09-02T22:07:08Z</time>
  <course>0.0</course>
  <speed>0.0</speed>
  <fix>3d</fix>
</trkpt>
<trkpt lat="33.810313" lon="-118.393867">
  <ele>-0.134</ele>
  <time>2026-09-02T22:07:08Z</time>
  <course>187.07</course>
  <speed>0.01414213562373095</speed>
  <fix>3d</fix>
</trkpt>
<trkpt lat="33.810313" lon="-118.393867">
  <ele>-0.12</ele>
  <time>2026-09-02T22:07:08Z</time>
  <course>0.0</course>
  <speed>0.0</speed>
  <fix>3d</fix>
</trkpt>
<trkpt lat="33.810313" lon="-118.393867">
  <ele>-0.136</ele>
  <time>2026-09-02T22:07:08Z</time>
  <course>187.06</course>
  <speed>0.01414213562373095</speed>
  <fix>3d</fix>
</trkpt>
<trkpt lat="33.810313" lon="-118.393867">
  <ele>-0.12</ele>
  <time>2026-09-02T22:07:08Z</time>
  <course>0.0</course>
  <speed>0.0</speed>
  <fix>3d</fix>
</trkpt>
<trkpt lat="33.810313" lon="-118.393867">
  <ele>-0.137</ele>
  <time>2026-09-02T22:07:08Z</time>
  <course>187.06</course>
  <speed>0.01414213562373095</speed>
  <fix>3d</fix>
</trkpt>
<trkpt lat="33.810313" lon="-118.393867">
  <ele>-0.12</ele>
  <time>2026-09-02T22:07:08Z</time>
  <course>0.0</course>
  <speed>0.0</speed>
  <fix>3d</fix>
</trkpt>
<trkpt lat="33.810313" lon="-118.393867">
  <ele>-0.137</ele>
  <time>2026-09-02T22:07:08Z</time>
  <course>187.05</course>
  <speed>0.01414213562373095</speed>
  <fix>3d</fix>
</trkpt>
<trkpt lat="33.810313" lon="-118.393867">
  <ele>-0.12</ele>
  <time>2026-09-02T22:07:08Z</time>
  <course>0.0</course>
  <speed>0.0</speed>
  <fix>3d</fix>
</trkpt>
<trkpt lat="33.810313" lon="-118.393867">
  <ele>-0.136</ele>
  <time>2026-09-02T22:07:08Z</time>
  <course>187.05</course>
  <speed>0.01414213562373095</speed>
  <fix>3d</fix>
</trkpt>
<trkpt lat="33.810313" lon="-118.393867">
  <ele>-0.12</ele>
  <time>2026-09-02T22:07:08Z</time>
  <course>0.0</course>
  <speed>0.0</speed>
  <fix>3d</fix>
</trkpt>
<trkpt lat="33.810313" lon="-118.393867">
  <ele>-0.133</ele>
  <time>2026-09-02T22:07:08Z</time>
  <course>187.04</course>
  <speed>0.01414213562373095</speed>
  <fix>3d</fix>
</trkpt>
<trkpt lat="33.810313" lon="-118.393867">
  <ele>-0.12</ele>
  <time>2026-09-02T22:07:08Z</time>
  <course>0.0</course>
  <speed>0.0</speed>
  <fix>3d</fix>
</trkpt>
<trkpt lat="33.810313" lon="-118.393867">
  <ele>-0.131</ele>
  <time>2026-09-02T22:07:08Z</time>
  <course>187.04</course>
  <speed>0.01414213562373095</speed>
  <fix>3d</fix>
</trkpt>
<trkpt lat="33.810313" lon="-118.393867">
  <ele>-0.12</ele>
  <time>2026-09-02T22:07:08Z</time>
  <course>0.0</course>
  <speed>0.0</speed>
  <fix>3d</fix>
</trkpt>
<trkpt lat="33.810313" lon="-118.393867">
  <ele>-0.129</ele>
  <time>2026-09-02T22:07:08Z</time>
  <course>187.03</course>
  <speed>0.01414213562373095</speed>
  <fix>3d</fix>
</trkpt>
<trkpt lat="33.810313" lon="-118.393867">
  <ele>-0.12</ele>
  <time>2026-09-02T22:07:08Z</time>
  <course>0.0</course>
  <speed>0.0</speed>
  <fix>3d</fix>
</trkpt>
<trkpt lat="33.810313" lon="-118.393867">
  <ele>-0.129</ele>
  <time>2026-09-02T22:07:08Z</time>
  <course>187.03</course>
  <speed>0.01</speed>
  <fix>3d</fix>
</trkpt>
<trkpt lat="33.810313" lon="-118.393867">
  <ele>-0.12</ele>
  <time>2026-09-02T22:07:08Z</time>
  <course>0.0</course>
  <speed>0.0</speed>
  <fix>3d</fix>
</trkpt>
<trkpt lat="33.810313" lon="-118.393867">
  <ele>-0.128</ele>
  <time>2026-09-02T22:07:08Z</time>
  <course>187.02</course>
  <speed>0.01</speed>
  <fix>3d</fix>
</trkpt>
<trkpt lat="33.810313" lon="-118.393867">
  <ele>-0.12</ele>
  <time>2026-09-02T22:07:08Z</time>
  <course>0.0</course>
  <speed>0.0</speed>
  <fix>3d</fix>
</trkpt>
<trkpt lat="33.810313" lon="-118.393867">
  <ele>-0.129</ele>
  <time>2026-09-02T22:07:08Z</time>
  <course>187.02</course>
  <speed>0.01</speed>
  <fix>3d</fix>
</trkpt>
<trkpt lat="33.810313" lon="-118.393867">
  <ele>-0.12</ele>
  <time>2026-09-02T22:07:08Z</time>
  <course>0.0</course>
  <speed>0.0</speed>
  <fix>3d</fix>
</trkpt>
<trkpt lat="33.810313" lon="-118.393867">
  <ele>-0.13</ele>
  <time>2026-09-02T22:07:08Z</time>
  <course>187.01</course>
  <speed>0.01</speed>
  <fix>3d</fix>
</trkpt>
<trkpt lat="33.810313" lon="-118.393867">
  <ele>-0.12</ele>
  <time>2026-09-02T22:07:08Z</time>
  <course>0.0</course>
  <speed>0.0</speed>
  <fix>3d</fix>
</trkpt>
<trkpt lat="33.810313" lon="-118.393867">
  <ele>-0.131</ele>
  <time>2026-09-02T22:07:08Z</time>
  <course>187.01</course>
  <speed>0.01</speed>
  <fix>3d</fix>
</trkpt>
<trkpt lat="33.810313" lon="-118.393867">
  <ele>-0.12</ele>
  <time>2026-09-02T22:07:08Z</time>
  <course>0.0</course>
  <speed>0.0</speed>
  <fix>3d</fix>
</trkpt>
<trkpt lat="33.810313" lon="-118.393867">
  <ele>-0.13</ele>
  <time>2026-09-02T22:07:08Z</time>
  <course>187.0</course>
  <speed>0.0</speed>
  <fix>3d</fix>
</trkpt>
<trkpt lat="33.810313" lon="-118.393867">
  <ele>-0.12</ele>
  <time>2026-09-02T22:07:08Z</time>
  <course>0.0</course>
  <speed>0.0</speed>
  <fix>3d</fix>
</trkpt>
<trkpt lat="33.810313" lon="-118.393867">
  <ele>-0.13</ele>
  <time>2026-09-02T22:07:08Z</time>
  <course>187.0</course>
  <speed>0.0</speed>
  <fix>3d</fix>
</trkpt>
<trkpt lat="33.810313" lon="-118.393867">
  <ele>-0.12</ele>
  <time>2026-09-02T22:07:08Z</time>
  <course>0.0</course>
  <speed>0.0</speed>
  <fix>3d</fix>
</trkpt>
<trkpt lat="33.810313" lon="-118.393867">
  <ele>-0.129</ele>
  <time>2026-09-02T22:07:08Z</time>
  <course>186.99</course>
  <speed>0.0</speed>
  <fix>3d</fix>
</trkpt>
<trkpt lat="33.810313" lon="-118.393867">
  <ele>-0.12</ele>
  <time>2026-09-02T22:07:08Z</time>
  <course>0.0</course>
  <speed>0.0</speed>
  <fix>3d</fix>
</trkpt>
<trkpt lat="33.810313" lon="-118.393867">
  <ele>-0.128</ele>
  <time>2026-09-02T22:07:08Z</time>
  <course>186.99</course>
  <speed>0.0</speed>
  <fix>3d</fix>
</trkpt>
<trkpt lat="33.810313" lon="-118.393867">
  <ele>-0.12</ele>
  <time>2026-09-02T22:07:08Z</time>
  <course>0.0</course>
  <speed>0.0</speed>
  <fix>3d</fix>
</trkpt>
<trkpt lat="33.810313" lon="-118.393867">
  <ele>-0.128</ele>
  <time>2026-09-02T22:07:08Z</time>
  <course>186.98</course>
  <speed>0.0</speed>
  <fix>3d</fix>
</trkpt>
<trkpt lat="33.810313" lon="-118.393867">
  <ele>-0.12</ele>
  <time>2026-09-02T22:07:08Z</time>
  <course>0.0</course>
  <speed>0.0</speed>
  <fix>3d</fix>
</trkpt>
<trkpt lat="33.810313" lon="-118.393867">
  <ele>-0.128</ele>
  <time>2026-09-02T22:07:08Z</time>
  <course>186.98</course>
  <speed>0.0</speed>
  <fix>3d</fix>
</trkpt>
<trkpt lat="33.810313" lon="-118.393867">
  <ele>-0.12</ele>
  <time>2026-09-02T22:07:08Z</time>
  <course>0.0</course>
  <speed>0.0</speed>
  <fix>3d</fix>
</trkpt>
<trkpt lat="33.810313" lon="-118.393867">
  <ele>-0.129</ele>
  <time>2026-09-02T22:07:08Z</time>
  <course>186.97</course>
  <speed>0.0</speed>
  <fix>3d</fix>
</trkpt>
<trkpt lat="33.810313" lon="-118.393867">
  <ele>-0.12</ele>
  <time>2026-09-02T22:07:08Z</time>
  <course>0.0</course>
  <speed>0.0</speed>
  <fix>3d</fix>
</trkpt>
<trkpt lat="33.810313" lon="-118.393867">
  <ele>-0.131</ele>
  <time>2026-09-02T22:07:08Z</time>
  <course>186.97</course>
  <speed>0.0</speed>
  <fix>3d</fix>
</trkpt>
<trkpt lat="33.810313" lon="-118.393867">
  <ele>-0.12</ele>
  <time>2026-09-02T22:07:08Z</time>
  <course>0.0</course>
  <speed>0.0</speed>
  <fix>3d</fix>
</trkpt>
<trkpt lat="33.810313" lon="-118.393867">
  <ele>-0.133</ele>
  <time>2026-09-02T22:07:08Z</time>
  <course>186.96</course>
  <speed>0.0</speed>
  <fix>3d</fix>
</trkpt>
<trkpt lat="33.810313" lon="-118.393867">
  <ele>-0.12</ele>
  <time>2026-09-02T22:07:08Z</time>
  <course>0.0</course>
  <speed>0.0</speed>
  <fix>3d</fix>
</trkpt>
<trkpt lat="33.810313" lon="-118.393867">
  <ele>-0.134</ele>
  <time>2026-09-02T22:07:08Z</time>
  <course>186.96</course>
  <speed>0.0</speed>
  <fix>3d</fix>
</trkpt>
<trkpt lat="33.810313" lon="-118.393867">
  <ele>-0.12</ele>
  <time>2026-09-02T22:07:08Z</time>
  <course>0.0</course>
  <speed>0.0</speed>
  <fix>3d</fix>
</trkpt>
<trkpt lat="33.810313" lon="-118.393867">
  <ele>-0.133</ele>
  <time>2026-09-02T22:07:08Z</time>
  <course>186.95</course>
  <speed>0.0</speed>
  <fix>3d</fix>
</trkpt>
<trkpt lat="33.810313" lon="-118.393867">
  <ele>-0.12</ele>
  <time>2026-09-02T22:07:08Z</time>
  <course>0.0</course>
  <speed>0.0</speed>
  <fix>3d</fix>
</trkpt>
<trkpt lat="33.810313" lon="-118.393867">
  <ele>-0.131</ele>
  <time>2026-09-02T22:07:08Z</time>
  <course>186.95</course>
  <speed>0.0</speed>
  <fix>3d</fix>
</trkpt>
<trkpt lat="33.810313" lon="-118.393867">
  <ele>-0.12</ele>
  <time>2026-09-02T22:07:08Z</time>
  <course>0.0</course>
  <speed>0.0</speed>
  <fix>3d</fix>
</trkpt>
<trkpt lat="33.810313" lon="-118.393867">
  <ele>-0.13</ele>
  <time>2026-09-02T22:07:08Z</time>
  <course>186.94</course>
  <speed>0.0</speed>
  <fix>3d</fix>
</trkpt>
<trkpt lat="33.810313" lon="-118.393867">
  <ele>-0.12</ele>
  <time>2026-09-02T22:07:08Z</time>
  <course>0.0</course>
  <speed>0.0</speed>
  <fix>3d</fix>
</trkpt>
<trkpt lat="33.810313" lon="-118.393867">
  <ele>-0.129</ele>
  <time>2026-09-02T22:07:08Z</time>
  <course>186.94</course>
  <speed>0.0</speed>
  <fix>3d</fix>
</trkpt>
<trkpt lat="33.810313" lon="-118.393867">
  <ele>-0.12</ele>
  <time>2026-09-02T22:07:08Z</time>
  <course>0.0</course>
  <speed>0.0</speed>
  <fix>3d</fix>
</trkpt>
<trkpt lat="33.810313" lon="-118.393867">
  <ele>-0.129</ele>
  <time>2026-09-02T22:07:08Z</time>
  <course>186.93</course>
  <speed>0.0</speed>
  <fix>3d</fix>
</trkpt>
<trkpt lat="33.810313" lon="-118.393867">
  <ele>-0.12</ele>
  <time>2026-09-02T22:07:08Z</time>
  <course>0.0</course>
  <speed>0.0</speed>
  <fix>3d</fix>
</trkpt>
<trkpt lat="33.810313" lon="-118.393867">
  <ele>-0.128</ele>
  <time>2026-09-02T22:07:08Z</time>
  <course>186.93</course>
  <speed>0.0</speed>
  <fix>3d</fix>
</trkpt>
<trkpt lat="33.810313" lon="-118.393867">
  <ele>-0.12</ele>
  <time>2026-09-02T22:07:08Z</time>
  <course>0.0</course>
  <speed>0.0</speed>
  <fix>3d</fix>
</trkpt>
<trkpt lat="33.810313" lon="-118.393867">
  <ele>-0.127</ele>
  <time>2026-09-02T22:07:08Z</time>
  <course>186.92</course>
  <speed>0.0</speed>
  <fix>3d</fix>
</trkpt>
<trkpt lat="33.810313" lon="-118.393867">
  <ele>-0.12</ele>
  <time>2026-09-02T22:07:08Z</time>
  <course>0.0</course>
  <speed>0.0</speed>
  <fix>3d</fix>
</trkpt>
<trkpt lat="33.810313" lon="-118.393867">
  <ele>-0.128</ele>
  <time>2026-09-02T22:07:08Z</time>
  <course>186.92</course>
  <speed>0.0</speed>
  <fix>3d</fix>
</trkpt>
<trkpt lat="33.810313" lon="-118.393867">
  <ele>-0.12</ele>
  <time>2026-09-02T22:07:08Z</time>
  <course>0.0</course>
  <speed>0.0</speed>
  <fix>3d</fix>
</trkpt>
<trkpt lat="33.810313" lon="-118.393867">
  <ele>-0.128</ele>
  <time>2026-09-02T22:07:08Z</time>
  <course>186.92</course>
  <speed>0.0</speed>
  <fix>3d</fix>
</trkpt>
<trkpt lat="33.810313" lon="-118.393867">
  <ele>-0.12</ele>
  <time>2026-09-02T22:07:08Z</time>
  <course>0.0</course>
  <speed>0.0</speed>
  <fix>3d</fix>
</trkpt>
<trkpt lat="33.810313" lon="-118.393867">
  <ele>-0.127</ele>
  <time>2026-09-02T22:07:08Z</time>
  <course>186.91</course>
  <speed>0.0</speed>
  <fix>3d</fix>
</trkpt>
<trkpt lat="33.810313" lon="-118.393867">
  <ele>-0.12</ele>
  <time>2026-09-02T22:07:08Z</time>
  <course>0.0</course>
  <speed>0.0</speed>
  <fix>3d</fix>
</trkpt>
<trkpt lat="33.810313" lon="-118.393867">
  <ele>-0.127</ele>
  <time>2026-09-02T22:07:08Z</time>
  <course>186.91</course>
  <speed>0.0</speed>
  <fix>3d</fix>
</trkpt>
<trkpt lat="33.810313" lon="-118.393867">
  <ele>-0.12</ele>
  <time>2026-09-02T22:07:08Z</time>
  <course>0.0</course>
  <speed>0.0</speed>
  <fix>3d</fix>
</trkpt>
<trkpt lat="33.810313" lon="-118.393867">
  <ele>-0.125</ele>
  <time>2026-09-02T22:07:08Z</time>
  <course>186.9</course>
  <speed>0.0</speed>
  <fix>3d</fix>
</trkpt>
<trkpt lat="33.810313" lon="-118.393867">
  <ele>-0.12</ele>
  <time>2026-09-02T22:07:08Z</time>
  <course>0.0</course>
  <speed>0.0</speed>
  <fix>3d</fix>
</trkpt>
<trkpt lat="33.810313" lon="-118.393867">
  <ele>-0.124</ele>
  <time>2026-09-02T22:07:08Z</time>
  <course>186.9</course>
  <speed>0.0</speed>
  <fix>3d</fix>
</trkpt>
<trkpt lat="33.810313" lon="-118.393867">
  <ele>-0.12</ele>
  <time>2026-09-02T22:07:08Z</time>
  <course>0.0</course>
  <speed>0.0</speed>
  <fix>3d</fix>
</trkpt>
<trkpt lat="33.810313" lon="-118.393867">
  <ele>-0.123</ele>
  <time>2026-09-02T22:07:08Z</time>
  <course>186.89</course>
  <speed>0.0</speed>
  <fix>3d</fix>
</trkpt>
<trkpt lat="33.810313" lon="-118.393867">
  <ele>-0.12</ele>
  <time>2026-09-02T22:07:08Z</time>
  <course>0.0</course>
  <speed>0.0</speed>
  <fix>3d</fix>
</trkpt>
<trkpt lat="33.810313" lon="-118.393867">
  <ele>-0.121</ele>
  <time>2026-09-02T22:07:08Z</time>
  <course>186.89</course>
  <speed>0.0</speed>
  <fix>3d</fix>
</trkpt>
<trkpt lat="33.810313" lon="-118.393867">
  <ele>-0.12</ele>
  <time>2026-09-02T22:07:08Z</time>
  <course>0.0</course>
  <speed>0.0</speed>
  <fix>3d</fix>
</trkpt>
<trkpt lat="33.810313" lon="-118.393867">
  <ele>-0.12</ele>
  <time>2026-09-02T22:07:08Z</time>
  <course>186.88</course>
  <speed>0.01</speed>
  <fix>3d</fix>
</trkpt>
<trkpt lat="33.810313" lon="-118.393867">
  <ele>-0.12</ele>
  <time>2026-09-02T22:07:08Z</time>
  <course>0.0</course>
  <speed>0.0</speed>
  <fix>3d</fix>
</trkpt>
<trkpt lat="33.810313" lon="-118.393867">
  <ele>-0.119</ele>
  <time>2026-09-02T22:07:08Z</time>
  <course>186.88</course>
  <speed>0.01</speed>
  <fix>3d</fix>
</trkpt>
<trkpt lat="33.810313" lon="-118.393867">
  <ele>-0.12</ele>
  <time>2026-09-02T22:07:08Z</time>
  <course>0.0</course>
  <speed>0.0</speed>
  <fix>3d</fix>
</trkpt>
<trkpt lat="33.810313" lon="-118.393867">
  <ele>-0.119</ele>
  <time>2026-09-02T22:07:08Z</time>
  <course>186.87</course>
  <speed>0.01</speed>
  <fix>3d</fix>
</trkpt>
<trkpt lat="33.810313" lon="-118.393867">
  <ele>-0.12</ele>
  <time>2026-09-02T22:07:08Z</time>
  <course>0.0</course>
  <speed>0.0</speed>
  <fix>3d</fix>
</trkpt>
<trkpt lat="33.810313" lon="-118.393867">
  <ele>-0.119</ele>
  <time>2026-09-02T22:07:08Z</time>
  <course>186.87</course>
  <speed>0.01</speed>
  <fix>3d</fix>
</trkpt>
<trkpt lat="33.810313" lon="-118.393867">
  <ele>-0.12</ele>
  <time>2026-09-02T22:07:08Z</time>
  <course>0.0</course>
  <speed>0.0</speed>
  <fix>3d</fix>
</trkpt>
<trkpt lat="33.810313" lon="-118.393867">
  <ele>-0.119</ele>
  <time>2026-09-02T22:07:08Z</time>
  <course>186.86</course>
  <speed>0.01</speed>
  <fix>3d</fix>
</trkpt>
<trkpt lat="33.810313" lon="-118.393867">
  <ele>-0.12</ele>
  <time>2026-09-02T22:07:08Z</time>
  <course>0.0</course>
  <speed>0.0</speed>
  <fix>3d</fix>
</trkpt>
<trkpt lat="33.810313" lon="-118.393867">
  <ele>-0.119</ele>
  <time>2026-09-02T22:07:08Z</time>
  <course>186.86</course>
  <speed>0.01</speed>
  <fix>3d</fix>
</trkpt>
<trkpt lat="33.810313" lon="-118.393867">
  <ele>-0.12</ele>
  <time>2026-09-02T22:07:08Z</time>
  <course>0.0</course>
  <speed>0.0</speed>
  <fix>3d</fix>
</trkpt>
<trkpt lat="33.810313" lon="-118.393867">
  <ele>-0.119</ele>
  <time>2026-09-02T22:07:08Z</time>
  <course>186.85</course>
  <speed>0.01</speed>
  <fix>3d</fix>
</trkpt>
<trkpt lat="33.810313" lon="-118.393867">
  <ele>-0.12</ele>
  <time>2026-09-02T22:07:08Z</time>
  <course>0.0</course>
  <speed>0.0</speed>
  <fix>3d</fix>
</trkpt>
<trkpt lat="33.810313" lon="-118.393867">
  <ele>-0.119</ele>
  <time>2026-09-02T22:07:08Z</time>
  <course>186.85</course>
  <speed>0.01</speed>
  <fix>3d</fix>
</trkpt>
<trkpt lat="33.810313" lon="-118.393867">
  <ele>-0.12</ele>
  <time>2026-09-02T22:07:08Z</time>
  <course>0.0</course>
  <speed>0.0</speed>
  <fix>3d</fix>
</trkpt>
<trkpt lat="33.810313" lon="-118.393867">
  <ele>-0.12</ele>
  <time>2026-09-02T22:07:08Z</time>
  <course>186.84</course>
  <speed>0.01414213562373095</speed>
  <fix>3d</fix>
</trkpt>
<trkpt lat="33.810313" lon="-118.393867">
  <ele>-0.12</ele>
  <time>2026-09-02T22:07:08Z</time>
  <course>0.0</course>
  <speed>0.0</speed>
  <fix>3d</fix>
</trkpt>
<trkpt lat="33.810313" lon="-118.393867">
  <ele>-0.121</ele>
  <time>2026-09-02T22:07:08Z</time>
  <course>186.84</course>
  <speed>0.01414213562373095</speed>
  <fix>3d</fix>
</trkpt>
<trkpt lat="33.810313" lon="-118.393867">
  <ele>-0.12</ele>
  <time>2026-09-02T22:07:08Z</time>
  <course>0.0</course>
  <speed>0.0</speed>
  <fix>3d</fix>
</trkpt>
<trkpt lat="33.810313" lon="-118.393867">
  <ele>-0.124</ele>
  <time>2026-09-02T22:07:08Z</time>
  <course>186.83</course>
  <speed>0.01414213562373095</speed>
  <fix>3d</fix>
</trkpt>
<trkpt lat="33.810313" lon="-118.393867">
  <ele>-0.12</ele>
  <time>2026-09-02T22:07:08Z</time>
  <course>0.0</course>
  <speed>0.0</speed>
  <fix>3d</fix>
</trkpt>
<trkpt lat="33.810313" lon="-118.393867">
  <ele>-0.125</ele>
  <time>2026-09-02T22:07:08Z</time>
  <course>186.83</course>
  <speed>0.01414213562373095</speed>
  <fix>3d</fix>
</trkpt>
<trkpt lat="33.810313" lon="-118.393867">
  <ele>-0.12</ele>
  <time>2026-09-02T22:07:08Z</time>
  <course>0.0</course>
  <speed>0.0</speed>
  <fix>3d</fix>
</trkpt>
<trkpt lat="33.810313" lon="-118.393867">
  <ele>-0.128</ele>
  <time>2026-09-02T22:07:08Z</time>
  <course>186.82</course>
  <speed>0.01414213562373095</speed>
  <fix>3d</fix>
</trkpt>
<trkpt lat="33.810313" lon="-118.393867">
  <ele>-0.12</ele>
  <time>2026-09-02T22:07:08Z</time>
  <course>0.0</course>
  <speed>0.0</speed>
  <fix>3d</fix>
</trkpt>
<trkpt lat="33.810313" lon="-118.393867">
  <ele>-0.13</ele>
  <time>2026-09-02T22:07:08Z</time>
  <course>186.82</course>
  <speed>0.01414213562373095</speed>
  <fix>3d</fix>
</trkpt>
<trkpt lat="33.810313" lon="-118.393867">
  <ele>-0.12</ele>
  <time>2026-09-02T22:07:08Z</time>
  <course>0.0</course>
  <speed>0.0</speed>
  <fix>3d</fix>
</trkpt>
<trkpt lat="33.810313" lon="-118.393867">
  <ele>-0.132</ele>
  <time>2026-09-02T22:07:08Z</time>
  <course>186.82</course>
  <speed>0.01414213562373095</speed>
  <fix>3d</fix>
</trkpt>
<trkpt lat="33.810313" lon="-118.393867">
  <ele>-0.12</ele>
  <time>2026-09-02T22:07:08Z</time>
  <course>0.0</course>
  <speed>0.0</speed>
  <fix>3d</fix>
</trkpt>
<trkpt lat="33.810313" lon="-118.393867">
  <ele>-0.133</ele>
  <time>2026-09-02T22:07:08Z</time>
  <course>186.81</course>
  <speed>0.01414213562373095</speed>
  <fix>3d</fix>
</trkpt>
<trkpt lat="33.810313" lon="-118.393867">
  <ele>-0.12</ele>
  <time>2026-09-02T22:07:08Z</time>
  <course>0.0</course>
  <speed>0.0</speed>
  <fix>3d</fix>
</trkpt>
<trkpt lat="33.810313" lon="-118.393867">
  <ele>-0.132</ele>
  <time>2026-09-02T22:07:08Z</time>
  <course>186.81</course>
  <speed>0.01414213562373095</speed>
  <fix>3d</fix>
</trkpt>
<trkpt lat="33.810313" lon="-118.393867">
  <ele>-0.12</ele>
  <time>2026-09-02T22:07:08Z</time>
  <course>0.0</course>
  <speed>0.0</speed>
  <fix>3d</fix>
</trkpt>
<trkpt lat="33.810313" lon="-118.393867">
  <ele>-0.13</ele>
  <time>2026-09-02T22:07:08Z</time>
  <course>186.8</course>
  <speed>0.01414213562373095</speed>
  <fix>3d</fix>
</trkpt>
<trkpt lat="33.810313" lon="-118.393867">
  <ele>-0.12</ele>
  <time>2026-09-02T22:07:08Z</time>
  <course>0.0</course>
  <speed>0.0</speed>
  <fix>3d</fix>
</trkpt>
<trkpt lat="33.810313" lon="-118.393867">
  <ele>-0.129</ele>
  <time>2026-09-02T22:07:08Z</time>
  <course>186.8</course>
  <speed>0.01414213562373095</speed>
  <fix>3d</fix>
</trkpt>
<trkpt lat="33.810313" lon="-118.393867">
  <ele>-0.12</ele>
  <time>2026-09-02T22:07:08Z</time>
  <course>0.0</course>
  <speed>0.0</speed>
  <fix>3d</fix>
</trkpt>
<trkpt lat="33.8103131" lon="-118.393867">
  <ele>-0.128</ele>
  <time>2026-09-02T22:07:08Z</time>
  <course>186.79</course>
  <speed>0.01414213562373095</speed>
  <fix>3d</fix>
</trkpt>
<trkpt lat="33.810313" lon="-118.393867">
  <ele>-0.12</ele>
  <time>2026-09-02T22:07:08Z</time>
  <course>0.0</course>
  <speed>0.0</speed>
  <fix>3d</fix>
</trkpt>
<trkpt lat="33.8103131" lon="-118.393867">
  <ele>-0.128</ele>
  <time>2026-09-02T22:07:08Z</time>
  <course>186.79</course>
  <speed>0.01414213562373095</speed>
  <fix>3d</fix>
</trkpt>
<trkpt lat="33.810313" lon="-118.393867">
  <ele>-0.12</ele>
  <time>2026-09-02T22:07:08Z</time>
  <course>0.0</course>
  <speed>0.0</speed>
  <fix>3d</fix>
</trkpt>
<trkpt lat="33.8103131" lon="-118.3938671">
  <ele>-0.128</ele>
  <time>2026-09-02T22:07:08Z</time>
  <course>186.78</course>
  <speed>0.01414213562373095</speed>
  <fix>3d</fix>
</trkpt>
<trkpt lat="33.810313" lon="-118.393867">
  <ele>-0.12</ele>
  <time>2026-09-02T22:07:08Z</time>
  <course>0.0</course>
  <speed>0.0</speed>
  <fix>3d</fix>
</trkpt>
<trkpt lat="33.8103131" lon="-118.3938671">
  <ele>-0.128</ele>
  <time>2026-09-02T22:07:08Z</time>
  <course>186.78</course>
  <speed>0.01414213562373095</speed>
  <fix>3d</fix>
</trkpt>
<trkpt lat="33.810313" lon="-118.393867">
  <ele>-0.12</ele>
  <time>2026-09-02T22:07:08Z</time>
  <course>0.0</course>
  <speed>0.0</speed>
  <fix>3d</fix>
</trkpt>
<trkpt lat="33.8103131" lon="-118.3938671">
  <ele>-0.127</ele>
  <time>2026-09-02T22:07:08Z</time>
  <course>186.77</course>
  <speed>0.01414213562373095</speed>
  <fix>3d</fix>
</trkpt>
<trkpt lat="33.810313" lon="-118.393867">
  <ele>-0.12</ele>
  <time>2026-09-02T22:07:08Z</time>
  <course>0.0</course>
  <speed>0.0</speed>
  <fix>3d</fix>
</trkpt>
<trkpt lat="33.8103131" lon="-118.3938671">
  <ele>-0.126</ele>
  <time>2026-09-02T22:07:08Z</time>
  <course>186.77</course>
  <speed>0.01414213562373095</speed>
  <fix>3d</fix>
</trkpt>
<trkpt lat="33.810313" lon="-118.393867">
  <ele>-0.12</ele>
  <time>2026-09-02T22:07:08Z</time>
  <course>0.0</course>
  <speed>0.0</speed>
  <fix>3d</fix>
</trkpt>
<trkpt lat="33.8103131" lon="-118.3938671">
  <ele>-0.125</ele>
  <time>2026-09-02T22:07:08Z</time>
  <course>186.76</course>
  <speed>0.022360679774997897</speed>
  <fix>3d</fix>
</trkpt>
<trkpt lat="33.810313" lon="-118.393867">
  <ele>-0.12</ele>
  <time>2026-09-02T22:07:08Z</time>
  <course>0.0</course>
  <speed>0.0</speed>
  <fix>3d</fix>
</trkpt>
<trkpt lat="33.8103131" lon="-118.3938671">
  <ele>-0.124</ele>
  <time>2026-09-02T22:07:08Z</time>
  <course>186.76</course>
  <speed>0.022360679774997897</speed>
  <fix>3d</fix>
</trkpt>
<trkpt lat="33.810313" lon="-118.393867">
  <ele>-0.12</ele>
  <time>2026-09-02T22:07:08Z</time>
  <course>0.0</course>
  <speed>0.0</speed>
  <fix>3d</fix>
</trkpt>
<trkpt lat="33.8103131" lon="-118.3938671">
  <ele>-0.123</ele>
  <time>2026-09-02T22:07:08Z</time>
  <course>186.75</course>
  <speed>0.022360679774997897</speed>
  <fix>3d</fix>
</trkpt>
<trkpt lat="33.810313" lon="-118.393867">
  <ele>-0.12</ele>
  <time>2026-09-02T22:07:08Z</time>
  <course>0.0</course>
  <speed>0.0</speed>
  <fix>3d</fix>
</trkpt>
<trkpt lat="33.8103131" lon="-118.3938671">
  <ele>-0.122</ele>
  <time>2026-09-02T22:07:08Z</time>
  <course>186.75</course>
  <speed>0.022360679774997897</speed>
  <fix>3d</fix>
</trkpt>
<trkpt lat="33.810313" lon="-118.393867">
  <ele>-0.12</ele>
  <time>2026-09-02T22:07:08Z</time>
  <course>0.0</course>
  <speed>0.0</speed>
  <fix>3d</fix>
</trkpt>
<trkpt lat="33.8103131" lon="-118.3938671">
  <ele>-0.122</ele>
  <time>2026-09-02T22:07:08Z</time>
  <course>186.74</course>
  <speed>0.022360679774997897</speed>
  <fix>3d</fix>
</trkpt>
<trkpt lat="33.810313" lon="-118.393867">
  <ele>-0.12</ele>
  <time>2026-09-02T22:07:08Z</time>
  <course>0.0</course>
  <speed>0.0</speed>
  <fix>3d</fix>
</trkpt>
<trkpt lat="33.8103131" lon="-118.3938671">
  <ele>-0.122</ele>
  <time>2026-09-02T22:07:08Z</time>
  <course>186.74</course>
  <speed>0.022360679774997897</speed>
  <fix>3d</fix>
</trkpt>
<trkpt lat="33.810313" lon="-118.393867">
  <ele>-0.12</ele>
  <time>2026-09-02T22:07:08Z</time>
  <course>0.0</course>
  <speed>0.0</speed>
  <fix>3d</fix>
</trkpt>
<trkpt lat="33.8103131" lon="-118.3938671">
  <ele>-0.121</ele>
  <time>2026-09-02T22:07:08Z</time>
  <course>186.73</course>
  <speed>0.022360679774997897</speed>
  <fix>3d</fix>
</trkpt>
<trkpt lat="33.810313" lon="-118.393867">
  <ele>-0.12</ele>
  <time>2026-09-02T22:07:08Z</time>
  <course>0.0</course>
  <speed>0.0</speed>
  <fix>3d</fix>
</trkpt>
<trkpt lat="33.8103131" lon="-118.3938671">
  <ele>-0.122</ele>
  <time>2026-09-02T22:07:08Z</time>
  <course>186.73</course>
  <speed>0.022360679774997897</speed>
  <fix>3d</fix>
</trkpt>
<trkpt lat="33.810313" lon="-118.393867">
  <ele>-0.12</ele>
  <time>2026-09-02T22:07:08Z</time>
  <course>0.0</course>
  <speed>0.0</speed>
  <fix>3d</fix>
</trkpt>
<trkpt lat="33.8103131" lon="-118.3938671">
  <ele>-0.122</ele>
  <time>2026-09-02T22:07:08Z</time>
  <course>186.72</course>
  <speed>0.022360679774997897</speed>
  <fix>3d</fix>
</trkpt>
<trkpt lat="33.810313" lon="-118.393867">
  <ele>-0.12</ele>
  <time>2026-09-02T22:07:08Z</time>
  <course>0.0</course>
  <speed>0.0</speed>
  <fix>3d</fix>
</trkpt>
<trkpt lat="33.8103131" lon="-118.3938671">
  <ele>-0.123</ele>
  <time>2026-09-02T22:07:08Z</time>
  <course>186.72</course>
  <speed>0.022360679774997897</speed>
  <fix>3d</fix>
</trkpt>
<trkpt lat="33.810313" lon="-118.393867">
  <ele>-0.12</ele>
  <time>2026-09-02T22:07:08Z</time>
  <course>0.0</course>
  <speed>0.0</speed>
  <fix>3d</fix>
</trkpt>
<trkpt lat="33.8103131" lon="-118.3938671">
  <ele>-0.122</ele>
  <time>2026-09-02T22:07:08Z</time>
  <course>186.71</course>
  <speed>0.022360679774997897</speed>
  <fix>3d</fix>
</trkpt>
<trkpt lat="33.810313" lon="-118.393867">
  <ele>-0.12</ele>
  <time>2026-09-02T22:07:08Z</time>
  <course>0.0</course>
  <speed>0.0</speed>
  <fix>3d</fix>
</trkpt>
<trkpt lat="33.8103131" lon="-118.3938671">
  <ele>-0.122</ele>
  <time>2026-09-02T22:07:08Z</time>
  <course>186.71</course>
  <speed>0.022360679774997897</speed>
  <fix>3d</fix>
</trkpt>
<trkpt lat="33.810313" lon="-118.393867">
  <ele>-0.12</ele>
  <time>2026-09-02T22:07:08Z</time>
  <course>0.0</course>
  <speed>0.0</speed>
  <fix>3d</fix>
</trkpt>
<trkpt lat="33.8103131" lon="-118.3938671">
  <ele>-0.121</ele>
  <time>2026-09-02T22:07:08Z</time>
  <course>186.71</course>
  <speed>0.022360679774997897</speed>
  <fix>3d</fix>
</trkpt>
<trkpt lat="33.810313" lon="-118.393867">
  <ele>-0.12</ele>
  <time>2026-09-02T22:07:08Z</time>
  <course>0.0</course>
  <speed>0.0</speed>
  <fix>3d</fix>
</trkpt>
<trkpt lat="33.8103131" lon="-118.3938671">
  <ele>-0.12</ele>
  <time>2026-09-02T22:07:08Z</time>
  <course>186.7</course>
  <speed>0.022360679774997897</speed>
  <fix>3d</fix>
</trkpt>
<trkpt lat="33.810313" lon="-118.393867">
  <ele>-0.12</ele>
  <time>2026-09-02T22:07:08Z</time>
  <course>0.0</course>
  <speed>0.0</speed>
  <fix>3d</fix>
</trkpt>
<trkpt lat="33.8103131" lon="-118.3938671">
  <ele>-0.12</ele>
  <time>2026-09-02T22:07:08Z</time>
  <course>186.7</course>
  <speed>0.022360679774997897</speed>
  <fix>3d</fix>
</trkpt>
<trkpt lat="33.810313" lon="-118.393867">
  <ele>-0.12</ele>
  <time>2026-09-02T22:07:08Z</time>
  <course>0.0</course>
  <speed>0.0</speed>
  <fix>3d</fix>
</trkpt>
<trkpt lat="33.8103131" lon="-118.3938671">
  <ele>-0.12</ele>
  <time>2026-09-02T22:07:08Z</time>
  <course>186.69</course>
  <speed>0.0282842712474619</speed>
  <fix>3d</fix>
</trkpt>
<trkpt lat="33.810313" lon="-118.393867">
  <ele>-0.12</ele>
  <time>2026-09-02T22:07:08Z</time>
  <course>0.0</course>
  <speed>0.0</speed>
  <fix>3d</fix>
</trkpt>
<trkpt lat="33.8103131" lon="-118.3938671">
  <ele>-0.122</ele>
  <time>2026-09-02T22:07:08Z</time>
  <course>186.69</course>
  <speed>0.0282842712474619</speed>
  <fix>3d</fix>
</trkpt>
<trkpt lat="33.810313" lon="-118.393867">
  <ele>-0.12</ele>
  <time>2026-09-02T22:07:08Z</time>
  <course>0.0</course>
  <speed>0.0</speed>
  <fix>3d</fix>
</trkpt>
<trkpt lat="33.8103131" lon="-118.3938671">
  <ele>-0.124</ele>
  <time>2026-09-02T22:07:08Z</time>
  <course>186.68</course>
  <speed>0.0282842712474619</speed>
  <fix>3d</fix>
</trkpt>
<trkpt lat="33.810313" lon="-118.393867">
  <ele>-0.12</ele>
  <time>2026-09-02T22:07:08Z</time>
  <course>0.0</course>
  <speed>0.0</speed>
  <fix>3d</fix>
</trkpt>
<trkpt lat="33.8103131" lon="-118.3938671">
  <ele>-0.127</ele>
  <time>2026-09-02T22:07:08Z</time>
  <course>186.68</course>
  <speed>0.0282842712474619</speed>
  <fix>3d</fix>
</trkpt>
<trkpt lat="33.810313" lon="-118.393867">
  <ele>-0.12</ele>
  <time>2026-09-02T22:07:08Z</time>
  <course>0.0</course>
  <speed>0.0</speed>
  <fix>3d</fix>
</trkpt>
<trkpt lat="33.8103131" lon="-118.3938671">
  <ele>-0.129</ele>
  <time>2026-09-02T22:07:08Z</time>
  <course>186.67</course>
  <speed>0.0282842712474619</speed>
  <fix>3d</fix>
</trkpt>
<trkpt lat="33.810313" lon="-118.393867">
  <ele>-0.12</ele>
  <time>2026-09-02T22:07:08Z</time>
  <course>0.0</course>
  <speed>0.0</speed>
  <fix>3d</fix>
</trkpt>
<trkpt lat="33.8103131" lon="-118.3938671">
  <ele>-0.13</ele>
  <time>2026-09-02T22:07:08Z</time>
  <course>186.67</course>
  <speed>0.0282842712474619</speed>
  <fix>3d</fix>
</trkpt>
<trkpt lat="33.810313" lon="-118.393867">
  <ele>-0.12</ele>
  <time>2026-09-02T22:07:08Z</time>
  <course>0.0</course>
  <speed>0.0</speed>
  <fix>3d</fix>
</trkpt>
<trkpt lat="33.8103131" lon="-118.3938671">
  <ele>-0.129</ele>
  <time>2026-09-02T22:07:08Z</time>
  <course>186.67</course>
  <speed>0.0282842712474619</speed>
  <fix>3d</fix>
</trkpt>
<trkpt lat="33.810313" lon="-118.393867">
  <ele>-0.12</ele>
  <time>2026-09-02T22:07:08Z</time>
  <course>0.0</course>
  <speed>0.0</speed>
  <fix>3d</fix>
</trkpt>
<trkpt lat="33.8103132" lon="-118.3938671">
  <ele>-0.127</ele>
  <time>2026-09-02T22:07:08Z</time>
  <course>186.66</course>
  <speed>0.0282842712474619</speed>
  <fix>3d</fix>
</trkpt>
<trkpt lat="33.810313" lon="-118.393867">
  <ele>-0.12</ele>
  <time>2026-09-02T22:07:08Z</time>
  <course>0.0</course>
  <speed>0.0</speed>
  <fix>3d</fix>
</trkpt>
<trkpt lat="33.8103132" lon="-118.3938671">
  <ele>-0.125</ele>
  <time>2026-09-02T22:07:08Z</time>
  <course>186.66</course>
  <speed>0.0282842712474619</speed>
  <fix>3d</fix>
</trkpt>
<trkpt lat="33.810313" lon="-118.393867">
  <ele>-0.12</ele>
  <time>2026-09-02T22:07:08Z</time>
  <course>0.0</course>
  <speed>0.0</speed>
  <fix>3d</fix>
</trkpt>
<trkpt lat="33.8103132" lon="-118.3938671">
  <ele>-0.124</ele>
  <time>2026-09-02T22:07:08Z</time>
  <course>186.65</course>
  <speed>0.0282842712474619</speed>
  <fix>3d</fix>
</trkpt>
<trkpt lat="33.810313" lon="-118.393867">
  <ele>-0.12</ele>
  <time>2026-09-02T22:07:08Z</time>
  <course>0.0</course>
  <speed>0.0</speed>
  <fix>3d</fix>
</trkpt>
<trkpt lat="33.8103132" lon="-118.3938672">
  <ele>-0.124</ele>
  <time>2026-09-02T22:07:08Z</time>
  <course>186.65</course>
  <speed>0.0282842712474619</speed>
  <fix>3d</fix>
</trkpt>
<trkpt lat="33.810313" lon="-118.393867">
  <ele>-0.12</ele>
  <time>2026-09-02T22:07:08Z</time>
  <course>0.0</course>
  <speed>0.0</speed>
  <fix>3d</fix>
</trkpt>
<trkpt lat="33.8103132" lon="-118.3938672">
  <ele>-0.123</ele>
  <time>2026-09-02T22:07:08Z</time>
  <course>186.64</course>
  <speed>0.0282842712474619</speed>
  <fix>3d</fix>
</trkpt>
<trkpt lat="33.810313" lon="-118.393867">
  <ele>-0.12</ele>
  <time>2026-09-02T22:07:08Z</time>
  <course>0.0</course>
  <speed>0.0</speed>
  <fix>3d</fix>
</trkpt>
<trkpt lat="33.8103132" lon="-118.3938672">
  <ele>-0.122</ele>
  <time>2026-09-02T22:07:08Z</time>
  <course>186.64</course>
  <speed>0.0282842712474619</speed>
  <fix>3d</fix>
</trkpt>
<trkpt lat="33.810313" lon="-118.393867">
  <ele>-0.12</ele>
  <time>2026-09-02T22:07:08Z</time>
  <course>0.0</course>
  <speed>0.0</speed>
  <fix>3d</fix>
</trkpt>
<trkpt lat="33.8103132" lon="-118.3938672">
  <ele>-0.122</ele>
  <time>2026-09-02T22:07:08Z</time>
  <course>186.64</course>
  <speed>0.0282842712474619</speed>
  <fix>3d</fix>
</trkpt>
<trkpt lat="33.810313" lon="-118.393867">
  <ele>-0.12</ele>
  <time>2026-09-02T22:07:08Z</time>
  <course>0.0</course>
  <speed>0.0</speed>
  <fix>3d</fix>
</trkpt>
<trkpt lat="33.8103132" lon="-118.3938672">
  <ele>-0.122</ele>
  <time>2026-09-02T22:07:08Z</time>
  <course>186.63</course>
  <speed>0.0282842712474619</speed>
  <fix>3d</fix>
</trkpt>
<trkpt lat="33.810313" lon="-118.393867">
  <ele>-0.12</ele>
  <time>2026-09-02T22:07:08Z</time>
  <course>0.0</course>
  <speed>0.0</speed>
  <fix>3d</fix>
</trkpt>
<trkpt lat="33.8103132" lon="-118.3938672">
  <ele>-0.122</ele>
  <time>2026-09-02T22:07:08Z</time>
  <course>186.63</course>
  <speed>0.0282842712474619</speed>
  <fix>3d</fix>
</trkpt>
<trkpt lat="33.810313" lon="-118.393867">
  <ele>-0.12</ele>
  <time>2026-09-02T22:07:08Z</time>
  <course>0.0</course>
  <speed>0.0</speed>
  <fix>3d</fix>
</trkpt>
<trkpt lat="33.8103132" lon="-118.3938672">
  <ele>-0.121</ele>
  <time>2026-09-02T22:07:08Z</time>
  <course>186.62</course>
  <speed>0.0282842712474619</speed>
  <fix>3d</fix>
</trkpt>
<trkpt lat="33.810313" lon="-118.393867">
  <ele>-0.12</ele>
  <time>2026-09-02T22:07:08Z</time>
  <course>0.0</course>
  <speed>0.0</speed>
  <fix>3d</fix>
</trkpt>
<trkpt lat="33.8103132" lon="-118.3938672">
  <ele>-0.12</ele>
  <time>2026-09-02T22:07:08Z</time>
  <course>186.62</course>
  <speed>0.0282842712474619</speed>
  <fix>3d</fix>
</trkpt>
<trkpt lat="33.810313" lon="-118.393867">
  <ele>-0.12</ele>
  <time>2026-09-02T22:07:08Z</time>
  <course>0.0</course>
  <speed>0.0</speed>
  <fix>3d</fix>
</trkpt>
<trkpt lat="33.8103132" lon="-118.3938672">
  <ele>-0.12</ele>
  <time>2026-09-02T22:07:08Z</time>
  <course>186.61</course>
  <speed>0.0282842712474619</speed>
  <fix>3d</fix>
</trkpt>
<trkpt lat="33.810313" lon="-118.393867">
  <ele>-0.12</ele>
  <time>2026-09-02T22:07:08Z</time>
  <course>0.0</course>
  <speed>0.0</speed>
  <fix>3d</fix>
</trkpt>
<trkpt lat="33.8103132" lon="-118.3938672">
  <ele>-0.12</ele>
  <time>2026-09-02T22:07:08Z</time>
  <course>186.61</course>
  <speed>0.0282842712474619</speed>
  <fix>3d</fix>
</trkpt>
<trkpt lat="33.810313" lon="-118.393867">
  <ele>-0.12</ele>
  <time>2026-09-02T22:07:08Z</time>
  <course>0.0</course>
  <speed>0.0</speed>
  <fix>3d</fix>
</trkpt>
<trkpt lat="33.8103132" lon="-118.3938672">
  <ele>-0.121</ele>
  <time>2026-09-02T22:07:08Z</time>
  <course>186.61</course>
  <speed>0.0282842712474619</speed>
  <fix>3d</fix>
</trkpt>
<trkpt lat="33.810313" lon="-118.393867">
  <ele>-0.12</ele>
  <time>2026-09-02T22:07:08Z</time>
  <course>0.0</course>
  <speed>0.0</speed>
  <fix>3d</fix>
</trkpt>
<trkpt lat="33.8103132" lon="-118.3938672">
  <ele>-0.122</ele>
  <time>2026-09-02T22:07:08Z</time>
  <course>186.6</course>
  <speed>0.0282842712474619</speed>
  <fix>3d</fix>
</trkpt>
<trkpt lat="33.810313" lon="-118.393867">
  <ele>-0.12</ele>
  <time>2026-09-02T22:07:08Z</time>
  <course>0.0</course>
  <speed>0.0</speed>
  <fix>3d</fix>
</trkpt>
<trkpt lat="33.8103132" lon="-118.3938672">
  <ele>-0.124</ele>
  <time>2026-09-02T22:07:08Z</time>
  <course>186.6</course>
  <speed>0.0282842712474619</speed>
  <fix>3d</fix>
</trkpt>
<trkpt lat="33.810313" lon="-118.393867">
  <ele>-0.12</ele>
  <time>2026-09-02T22:07:08Z</time>
  <course>0.0</course>
  <speed>0.0</speed>
  <fix>3d</fix>
</trkpt>
<trkpt lat="33.8103132" lon="-118.3938672">
  <ele>-0.126</ele>
  <time>2026-09-02T22:07:08Z</time>
  <course>186.6</course>
  <speed>0.0282842712474619</speed>
  <fix>3d</fix>
</trkpt>
<trkpt lat="33.810313" lon="-118.393867">
  <ele>-0.12</ele>
  <time>2026-09-02T22:07:08Z</time>
  <course>0.0</course>
  <speed>0.0</speed>
  <fix>3d</fix>
</trkpt>
<trkpt lat="33.8103132" lon="-118.3938672">
  <ele>-0.127</ele>
  <time>2026-09-02T22:07:08Z</time>
  <course>186.59</course>
  <speed>0.0282842712474619</speed>
  <fix>3d</fix>
</trkpt>
<trkpt lat="33.810313" lon="-118.393867">
  <ele>-0.12</ele>
  <time>2026-09-02T22:07:08Z</time>
  <course>0.0</course>
  <speed>0.0</speed>
  <fix>3d</fix>
</trkpt>
<trkpt lat="33.8103132" lon="-118.3938672">
  <ele>-0.127</ele>
  <time>2026-09-02T22:07:08Z</time>
  <course>186.59</course>
  <speed>0.0282842712474619</speed>
  <fix>3d</fix>
</trkpt>
<trkpt lat="33.810313" lon="-118.393867">
  <ele>-0.12</ele>
  <time>2026-09-02T22:07:08Z</time>
  <course>0.0</course>
  <speed>0.0</speed>
  <fix>3d</fix>
</trkpt>
<trkpt lat="33.8103132" lon="-118.3938672">
  <ele>-0.127</ele>
  <time>2026-09-02T22:07:08Z</time>
  <course>186.58</course>
  <speed>0.0282842712474619</speed>
  <fix>3d</fix>
</trkpt>
<trkpt lat="33.810313" lon="-118.393867">
  <ele>-0.12</ele>
  <time>2026-09-02T22:07:08Z</time>
  <course>0.0</course>
  <speed>0.0</speed>
  <fix>3d</fix>
</trkpt>
<trkpt lat="33.8103132" lon="-118.3938672">
  <ele>-0.125</ele>
  <time>2026-09-02T22:07:08Z</time>
  <course>186.58</course>
  <speed>0.0282842712474619</speed>
  <fix>3d</fix>
</trkpt>
<trkpt lat="33.810313" lon="-118.393867">
  <ele>-0.12</ele>
  <time>2026-09-02T22:07:08Z</time>
  <course>0.0</course>
  <speed>0.0</speed>
  <fix>3d</fix>
</trkpt>
<trkpt lat="33.8103132" lon="-118.3938672">
  <ele>-0.125</ele>
  <time>2026-09-02T22:07:08Z</time>
  <course>186.58</course>
  <speed>0.022360679774997897</speed>
  <fix>3d</fix>
</trkpt>
<trkpt lat="33.810313" lon="-118.393867">
  <ele>-0.12</ele>
  <time>2026-09-02T22:07:08Z</time>
  <course>0.0</course>
  <speed>0.0</speed>
  <fix>3d</fix>
</trkpt>
<trkpt lat="33.8103132" lon="-118.3938672">
  <ele>-0.125</ele>
  <time>2026-09-02T22:07:08Z</time>
  <course>186.57</course>
  <speed>0.022360679774997897</speed>
  <fix>3d</fix>
</trkpt>
<trkpt lat="33.810313" lon="-118.393867">
  <ele>-0.12</ele>
  <time>2026-09-02T22:07:08Z</time>
  <course>0.0</course>
  <speed>0.0</speed>
  <fix>3d</fix>
</trkpt>
<trkpt lat="33.8103132" lon="-118.3938672">
  <ele>-0.125</ele>
  <time>2026-09-02T22:07:08Z</time>
  <course>186.57</course>
  <speed>0.022360679774997897</speed>
  <fix>3d</fix>
</trkpt>
<trkpt lat="33.810313" lon="-118.393867">
  <ele>-0.12</ele>
  <time>2026-09-02T22:07:08Z</time>
  <course>0.0</course>
  <speed>0.0</speed>
  <fix>3d</fix>
</trkpt>
<trkpt lat="33.8103132" lon="-118.3938671">
  <ele>-0.128</ele>
  <time>2026-09-02T22:07:08Z</time>
  <course>186.57</course>
  <speed>0.022360679774997897</speed>
  <fix>3d</fix>
</trkpt>
<trkpt lat="33.810313" lon="-118.393867">
  <ele>-0.12</ele>
  <time>2026-09-02T22:07:08Z</time>
  <course>0.0</course>
  <speed>0.0</speed>
  <fix>3d</fix>
</trkpt>
<trkpt lat="33.8103131" lon="-118.3938671">
  <ele>-0.13</ele>
  <time>2026-09-02T22:07:08Z</time>
  <course>186.56</course>
  <speed>0.022360679774997897</speed>
  <fix>3d</fix>
</trkpt>
<trkpt lat="33.810313" lon="-118.393867">
  <ele>-0.12</ele>
  <time>2026-09-02T22:07:08Z</time>
  <course>0.0</course>
  <speed>0.0</speed>
  <fix>3d</fix>
</trkpt>
<trkpt lat="33.8103131" lon="-118.3938671">
  <ele>-0.132</ele>
  <time>2026-09-02T22:07:08Z</time>
  <course>186.56</course>
  <speed>0.01414213562373095</speed>
  <fix>3d</fix>
</trkpt>
<trkpt lat="33.810313" lon="-118.393867">
  <ele>-0.12</ele>
  <time>2026-09-02T22:07:08Z</time>
  <course>0.0</course>
  <speed>0.0</speed>
  <fix>3d</fix>
</trkpt>
<trkpt lat="33.8103131" lon="-118.3938671">
  <ele>-0.132</ele>
  <time>2026-09-02T22:07:08Z</time>
  <course>186.56</course>
  <speed>0.01414213562373095</speed>
  <fix>3d</fix>
</trkpt>
<trkpt lat="33.810313" lon="-118.393867">
  <ele>-0.12</ele>
  <time>2026-09-02T22:07:08Z</time>
  <course>0.0</course>
  <speed>0.0</speed>
  <fix>3d</fix>
</trkpt>
<trkpt lat="33.4368002" lon="-117.0859339">
  <ele>-0.11</ele>
  <time>2026-09-02T22:07:09Z</time>
  <course>0.0</course>
  <speed>0.0</speed>
  <fix>3d</fix>
</trkpt>
<trkpt lat="33.4368002" lon="-117.0859339">
  <ele>-0.11</ele>
  <time>2026-09-02T22:07:09Z</time>
  <course>0.0</course>
  <speed>0.0</speed>
  <fix>3d</fix>
</trkpt>
<trkpt lat="33.810313" lon="-118.393867">
  <ele>0.0</ele>
  <time>2026-09-02T22:07:09Z</time>
  <course>173.5</course>
  <speed>0.0</speed>
  <fix>3d</fix>
</trkpt>
<trkpt lat="33.810313" lon="-118.393867">
  <ele>-0.11</ele>
  <time>2026-09-02T22:07:09Z</time>
  <course>0.0</course>
  <speed>0.0</speed>
  <fix>3d</fix>
</trkpt>
<trkpt lat="33.810313" lon="-118.393867">
  <ele>0.0</ele>
  <time>2026-09-02T22:07:09Z</time>
  <course>173.61</course>
  <speed>0.0</speed>
  <fix>3d</fix>
</trkpt>
<trkpt lat="33.810313" lon="-118.393867">
  <ele>-0.11</ele>
  <time>2026-09-02T22:07:09Z</time>
  <course>0.0</course>
  <speed>0.0</speed>
  <fix>3d</fix>
</trkpt>
<trkpt lat="33.810313" lon="-118.393867">
  <ele>0.0</ele>
  <time>2026-09-02T22:07:09Z</time>
  <course>173.98</course>
  <speed>0.0</speed>
  <fix>3d</fix>
</trkpt>
<trkpt lat="33.810313" lon="-118.393867">
  <ele>-0.11</ele>
  <time>2026-09-02T22:07:09Z</time>
  <course>0.0</course>
  <speed>0.0</speed>
  <fix>3d</fix>
</trkpt>
<trkpt lat="33.810313" lon="-118.393867">
  <ele>0.0</ele>
  <time>2026-09-02T22:07:09Z</time>
  <course>174.51</course>
  <speed>0.0</speed>
  <fix>3d</fix>
</trkpt>
<trkpt lat="33.810313" lon="-118.393867">
  <ele>-0.11</ele>
  <time>2026-09-02T22:07:09Z</time>
  <course>0.0</course>
  <speed>0.0</speed>
  <fix>3d</fix>
</trkpt>
<trkpt lat="33.810313" lon="-118.393867">
  <ele>0.0</ele>
  <time>2026-09-02T22:07:09Z</time>
  <course>175.07</course>
  <speed>0.0</speed>
  <fix>3d</fix>
</trkpt>
<trkpt lat="33.810313" lon="-118.393867">
  <ele>-0.12</ele>
  <time>2026-09-02T22:07:09Z</time>
  <course>0.0</course>
  <speed>0.0</speed>
  <fix>3d</fix>
</trkpt>
<trkpt lat="33.810313" lon="-118.393867">
  <ele>0.0</ele>
  <time>2026-09-02T22:07:09Z</time>
  <course>175.61</course>
  <speed>0.0</speed>
  <fix>3d</fix>
</trkpt>
<trkpt lat="33.810313" lon="-118.393867">
  <ele>-0.12</ele>
  <time>2026-09-02T22:07:09Z</time>
  <course>0.0</course>
  <speed>0.0</speed>
  <fix>3d</fix>
</trkpt>
<trkpt lat="33.810313" lon="-118.393867">
  <ele>0.0</ele>
  <time>2026-09-02T22:07:09Z</time>
  <course>176.12</course>
  <speed>0.0</speed>
  <fix>3d</fix>
</trkpt>
<trkpt lat="33.810313" lon="-118.393867">
  <ele>-0.13</ele>
  <time>2026-09-02T22:07:09Z</time>
  <course>0.0</course>
  <speed>0.0</speed>
  <fix>3d</fix>
</trkpt>
<trkpt lat="33.810313" lon="-118.393867">
  <ele>0.0</ele>
  <time>2026-09-02T22:07:09Z</time>
  <course>176.6</course>
  <speed>0.0</speed>
  <fix>3d</fix>
</trkpt>
<trkpt lat="33.810313" lon="-118.393867">
  <ele>-0.13</ele>
  <time>2026-09-02T22:07:09Z</time>
  <course>0.0</course>
  <speed>0.0</speed>
  <fix>3d</fix>
</trkpt>
<trkpt lat="33.810313" lon="-118.393867">
  <ele>0.0</ele>
  <time>2026-09-02T22:07:09Z</time>
  <course>177.07</course>
  <speed>0.0</speed>
  <fix>3d</fix>
</trkpt>
<trkpt lat="33.810313" lon="-118.393867">
  <ele>-0.13</ele>
  <time>2026-09-02T22:07:09Z</time>
  <course>0.0</course>
  <speed>0.0</speed>
  <fix>3d</fix>
</trkpt>
<trkpt lat="33.810313" lon="-118.393867">
  <ele>0.0</ele>
  <time>2026-09-02T22:07:09Z</time>
  <course>177.53</course>
  <speed>0.0</speed>
  <fix>3d</fix>
</trkpt>
<trkpt lat="33.810313" lon="-118.393867">
  <ele>-0.13</ele>
  <time>2026-09-02T22:07:09Z</time>
  <course>0.0</course>
  <speed>0.0</speed>
  <fix>3d</fix>
</trkpt>
<trkpt lat="33.810313" lon="-118.393867">
  <ele>0.0</ele>
  <time>2026-09-02T22:07:09Z</time>
  <course>177.97</course>
  <speed>0.0</speed>
  <fix>3d</fix>
</trkpt>
<trkpt lat="33.810313" lon="-118.393867">
  <ele>-0.14</ele>
  <time>2026-09-02T22:07:09Z</time>
  <course>0.0</course>
  <speed>0.0</speed>
  <fix>3d</fix>
</trkpt>
<trkpt lat="33.810313" lon="-118.393867">
  <ele>0.0</ele>
  <time>2026-09-02T22:07:09Z</time>
  <course>178.4</course>
  <speed>0.0</speed>
  <fix>3d</fix>
</trkpt>
<trkpt lat="33.810313" lon="-118.393867">
  <ele>-0.14</ele>
  <time>2026-09-02T22:07:09Z</time>
  <course>0.0</course>
  <speed>0.0</speed>
  <fix>3d</fix>
</trkpt>
<trkpt lat="33.810313" lon="-118.393867">
  <ele>0.0</ele>
  <time>2026-09-02T22:07:09Z</time>
  <course>178.83</course>
  <speed>0.0</speed>
  <fix>3d</fix>
</trkpt>
<trkpt lat="33.810313" lon="-118.393867">
  <ele>-0.14</ele>
  <time>2026-09-02T22:07:09Z</time>
  <course>0.0</course>
  <speed>0.0</speed>
  <fix>3d</fix>
</trkpt>
<trkpt lat="33.810313" lon="-118.393867">
  <ele>0.0</ele>
  <time>2026-09-02T22:07:09Z</time>
  <course>179.23</course>
  <speed>0.0</speed>
  <fix>3d</fix>
</trkpt>
<trkpt lat="33.810313" lon="-118.393867">
  <ele>-0.14</ele>
  <time>2026-09-02T22:07:09Z</time>
  <course>0.0</course>
  <speed>0.0</speed>
  <fix>3d</fix>
</trkpt>
<trkpt lat="33.810313" lon="-118.393867">
  <ele>0.0</ele>
  <time>2026-09-02T22:07:09Z</time>
  <course>179.62</course>
  <speed>0.0</speed>
  <fix>3d</fix>
</trkpt>
<trkpt lat="33.810313" lon="-118.393867">
  <ele>-0.14</ele>
  <time>2026-09-02T22:07:09Z</time>
  <course>0.0</course>
  <speed>0.0</speed>
  <fix>3d</fix>
</trkpt>
<trkpt lat="33.810313" lon="-118.393867">
  <ele>0.0</ele>
  <time>2026-09-02T22:07:09Z</time>
  <course>180.01</course>
  <speed>0.0</speed>
  <fix>3d</fix>
</trkpt>
<trkpt lat="33.810313" lon="-118.393867">
  <ele>-0.14</ele>
  <time>2026-09-02T22:07:09Z</time>
  <course>0.0</course>
  <speed>0.0</speed>
  <fix>3d</fix>
</trkpt>
<trkpt lat="33.810313" lon="-118.393867">
  <ele>0.0</ele>
  <time>2026-09-02T22:07:09Z</time>
  <course>180.37</course>
  <speed>0.0</speed>
  <fix>3d</fix>
</trkpt>
<trkpt lat="33.810313" lon="-118.393867">
  <ele>-0.14</ele>
  <time>2026-09-02T22:07:09Z</time>
  <course>0.0</course>
  <speed>0.0</speed>
  <fix>3d</fix>
</trkpt>
<trkpt lat="33.810313" lon="-118.393867">
  <ele>0.0</ele>
  <time>2026-09-02T22:07:09Z</time>
  <course>180.73</course>
  <speed>0.0</speed>
  <fix>3d</fix>
</trkpt>
<trkpt lat="33.810313" lon="-118.393867">
  <ele>-0.14</ele>
  <time>2026-09-02T22:07:09Z</time>
  <course>0.0</course>
  <speed>0.0</speed>
  <fix>3d</fix>
</trkpt>
<trkpt lat="33.810313" lon="-118.393867">
  <ele>0.0</ele>
  <time>2026-09-02T22:07:09Z</time>
  <course>181.07</course>
  <speed>0.0</speed>
  <fix>3d</fix>
</trkpt>
<trkpt lat="33.810313" lon="-118.393867">
  <ele>-0.13</ele>
  <time>2026-09-02T22:07:09Z</time>
  <course>0.0</course>
  <speed>0.0</speed>
  <fix>3d</fix>
</trkpt>
<trkpt lat="33.810313" lon="-118.393867">
  <ele>0.0</ele>
  <time>2026-09-02T22:07:09Z</time>
  <course>181.4</course>
  <speed>0.0</speed>
  <fix>3d</fix>
</trkpt>
<trkpt lat="33.810313" lon="-118.393867">
  <ele>-0.13</ele>
  <time>2026-09-02T22:07:09Z</time>
  <course>0.0</course>
  <speed>0.0</speed>
  <fix>3d</fix>
</trkpt>
<trkpt lat="33.810313" lon="-118.393867">
  <ele>0.0</ele>
  <time>2026-09-02T22:07:09Z</time>
  <course>181.72</course>
  <speed>0.0</speed>
  <fix>3d</fix>
</trkpt>
<trkpt lat="33.810313" lon="-118.393867">
  <ele>-0.12</ele>
  <time>2026-09-02T22:07:09Z</time>
  <course>0.0</course>
  <speed>0.0</speed>
  <fix>3d</fix>
</trkpt>
<trkpt lat="33.810313" lon="-118.393867">
  <ele>0.0</ele>
  <time>2026-09-02T22:07:09Z</time>
  <course>182.02</course>
  <speed>0.0</speed>
  <fix>3d</fix>
</trkpt>
<trkpt lat="33.810313" lon="-118.393867">
  <ele>-0.12</ele>
  <time>2026-09-02T22:07:09Z</time>
  <course>0.0</course>
  <speed>0.0</speed>
  <fix>3d</fix>
</trkpt>
<trkpt lat="33.810313" lon="-118.393867">
  <ele>0.0</ele>
  <time>2026-09-02T22:07:09Z</time>
  <course>182.32</course>
  <speed>0.0</speed>
  <fix>3d</fix>
</trkpt>
<trkpt lat="33.810313" lon="-118.393867">
  <ele>-0.12</ele>
  <time>2026-09-02T22:07:09Z</time>
  <course>0.0</course>
  <speed>0.0</speed>
  <fix>3d</fix>
</trkpt>
<trkpt lat="33.810313" lon="-118.393867">
  <ele>0.0</ele>
  <time>2026-09-02T22:07:09Z</time>
  <course>182.6</course>
  <speed>0.0</speed>
  <fix>3d</fix>
</trkpt>
<trkpt lat="33.810313" lon="-118.393867">
  <ele>-0.12</ele>
  <time>2026-09-02T22:07:09Z</time>
  <course>0.0</course>
  <speed>0.0</speed>
  <fix>3d</fix>
</trkpt>
<trkpt lat="33.810313" lon="-118.393867">
  <ele>0.0</ele>
  <time>2026-09-02T22:07:09Z</time>
  <course>182.87</course>
  <speed>0.0</speed>
  <fix>3d</fix>
</trkpt>
<trkpt lat="33.810313" lon="-118.393867">
  <ele>-0.11</ele>
  <time>2026-09-02T22:07:09Z</time>
  <course>0.0</course>
  <speed>0.0</speed>
  <fix>3d</fix>
</trkpt>
<trkpt lat="33.810313" lon="-118.393867">
  <ele>0.0</ele>
  <time>2026-09-02T22:07:09Z</time>
  <course>183.14</course>
  <speed>0.0</speed>
  <fix>3d</fix>
</trkpt>
<trkpt lat="33.810313" lon="-118.393867">
  <ele>-0.11</ele>
  <time>2026-09-02T22:07:09Z</time>
  <course>0.0</course>
  <speed>0.0</speed>
  <fix>3d</fix>
</trkpt>
<trkpt lat="33.810313" lon="-118.393867">
  <ele>0.0</ele>
  <time>2026-09-02T22:07:09Z</time>
  <course>183.39</course>
  <speed>0.0</speed>
  <fix>3d</fix>
</trkpt>
<trkpt lat="33.810313" lon="-118.393867">
  <ele>-0.11</ele>
  <time>2026-09-02T22:07:09Z</time>
  <course>0.0</course>
  <speed>0.0</speed>
  <fix>3d</fix>
</trkpt>
<trkpt lat="33.810313" lon="-118.393867">
  <ele>0.0</ele>
  <time>2026-09-02T22:07:09Z</time>
  <course>183.63</course>
  <speed>0.0</speed>
  <fix>3d</fix>
</trkpt>
<trkpt lat="33.810313" lon="-118.393867">
  <ele>-0.11</ele>
  <time>2026-09-02T22:07:09Z</time>
  <course>0.0</course>
  <speed>0.0</speed>
  <fix>3d</fix>
</trkpt>
<trkpt lat="33.810313" lon="-118.393867">
  <ele>0.0</ele>
  <time>2026-09-02T22:07:09Z</time>
  <course>183.86</course>
  <speed>0.0</speed>
  <fix>3d</fix>
</trkpt>
<trkpt lat="33.810313" lon="-118.393867">
  <ele>-0.12</ele>
  <time>2026-09-02T22:07:09Z</time>
  <course>0.0</course>
  <speed>0.0</speed>
  <fix>3d</fix>
</trkpt>
<trkpt lat="33.810313" lon="-118.393867">
  <ele>0.0</ele>
  <time>2026-09-02T22:07:09Z</time>
  <course>184.08</course>
  <speed>0.0</speed>
  <fix>3d</fix>
</trkpt>
<trkpt lat="33.810313" lon="-118.393867">
  <ele>-0.12</ele>
  <time>2026-09-02T22:07:09Z</time>
  <course>0.0</course>
  <speed>0.0</speed>
  <fix>3d</fix>
</trkpt>
<trkpt lat="33.810313" lon="-118.393867">
  <ele>0.0</ele>
  <time>2026-09-02T22:07:09Z</time>
  <course>184.3</course>
  <speed>0.0</speed>
  <fix>3d</fix>
</trkpt>
<trkpt lat="33.810313" lon="-118.393867">
  <ele>-0.13</ele>
  <time>2026-09-02T22:07:09Z</time>
  <course>0.0</course>
  <speed>0.0</speed>
  <fix>3d</fix>
</trkpt>
<trkpt lat="33.810313" lon="-118.393867">
  <ele>0.0</ele>
  <time>2026-09-02T22:07:09Z</time>
  <course>184.5</course>
  <speed>0.0</speed>
  <fix>3d</fix>
</trkpt>
<trkpt lat="33.810313" lon="-118.393867">
  <ele>-0.13</ele>
  <time>2026-09-02T22:07:09Z</time>
  <course>0.0</course>
  <speed>0.0</speed>
  <fix>3d</fix>
</trkpt>
<trkpt lat="33.810313" lon="-118.393867">
  <ele>0.0</ele>
  <time>2026-09-02T22:07:09Z</time>
  <course>184.7</course>
  <speed>0.0</speed>
  <fix>3d</fix>
</trkpt>
<trkpt lat="33.810313" lon="-118.393867">
  <ele>-0.13</ele>
  <time>2026-09-02T22:07:09Z</time>
  <course>0.0</course>
  <speed>0.0</speed>
  <fix>3d</fix>
</trkpt>
<trkpt lat="33.810313" lon="-118.393867">
  <ele>0.0</ele>
  <time>2026-09-02T22:07:09Z</time>
  <course>184.89</course>
  <speed>0.0</speed>
  <fix>3d</fix>
</trkpt>
<trkpt lat="33.810313" lon="-118.393867">
  <ele>-0.13</ele>
  <time>2026-09-02T22:07:09Z</time>
  <course>0.0</course>
  <speed>0.0</speed>
  <fix>3d</fix>
</trkpt>
<trkpt lat="33.810313" lon="-118.393867">
  <ele>0.0</ele>
  <time>2026-09-02T22:07:09Z</time>
  <course>185.07</course>
  <speed>0.0</speed>
  <fix>3d</fix>
</trkpt>
<trkpt lat="33.810313" lon="-118.393867">
  <ele>-0.14</ele>
  <time>2026-09-02T22:07:09Z</time>
  <course>0.0</course>
  <speed>0.0</speed>
  <fix>3d</fix>
</trkpt>
<trkpt lat="33.810313" lon="-118.393867">
  <ele>0.0</ele>
  <time>2026-09-02T22:07:09Z</time>
  <course>185.24</course>
  <speed>0.0</speed>
  <fix>3d</fix>
</trkpt>
<trkpt lat="33.810313" lon="-118.393867">
  <ele>-0.14</ele>
  <time>2026-09-02T22:07:09Z</time>
  <course>0.0</course>
  <speed>0.0</speed>
  <fix>3d</fix>
</trkpt>
<trkpt lat="33.810313" lon="-118.393867">
  <ele>0.0</ele>
  <time>2026-09-02T22:07:09Z</time>
  <course>185.41</course>
  <speed>0.0</speed>
  <fix>3d</fix>
</trkpt>
<trkpt lat="33.810313" lon="-118.393867">
  <ele>-0.13</ele>
  <time>2026-09-02T22:07:09Z</time>
  <course>0.0</course>
  <speed>0.0</speed>
  <fix>3d</fix>
</trkpt>
<trkpt lat="33.810313" lon="-118.393867">
  <ele>0.0</ele>
  <time>2026-09-02T22:07:09Z</time>
  <course>185.56</course>
  <speed>0.0</speed>
  <fix>3d</fix>
</trkpt>
<trkpt lat="33.810313" lon="-118.393867">
  <ele>-0.13</ele>
  <time>2026-09-02T22:07:09Z</time>
  <course>0.0</course>
  <speed>0.0</speed>
  <fix>3d</fix>
</trkpt>
<trkpt lat="33.810313" lon="-118.393867">
  <ele>0.0</ele>
  <time>2026-09-02T22:07:09Z</time>
  <course>185.72</course>
  <speed>0.0</speed>
  <fix>3d</fix>
</trkpt>
<trkpt lat="33.810313" lon="-118.393867">
  <ele>-0.13</ele>
  <time>2026-09-02T22:07:09Z</time>
  <course>0.0</course>
  <speed>0.0</speed>
  <fix>3d</fix>
</trkpt>
<trkpt lat="33.810313" lon="-118.393867">
  <ele>0.0</ele>
  <time>2026-09-02T22:07:09Z</time>
  <course>185.86</course>
  <speed>0.0</speed>
  <fix>3d</fix>
</trkpt>
<trkpt lat="33.810313" lon="-118.393867">
  <ele>-0.13</ele>
  <time>2026-09-02T22:07:09Z</time>
  <course>0.0</course>
  <speed>0.0</speed>
  <fix>3d</fix>
</trkpt>
<trkpt lat="33.810313" lon="-118.393867">
  <ele>0.0</ele>
  <time>2026-09-02T22:07:09Z</time>
  <course>186.0</course>
  <speed>0.0</speed>
  <fix>3d</fix>
</trkpt>
<trkpt lat="33.810313" lon="-118.393867">
  <ele>-0.12</ele>
  <time>2026-09-02T22:07:09Z</time>
  <course>0.0</course>
  <speed>0.0</speed>
  <fix>3d</fix>
</trkpt>
<trkpt lat="33.810313" lon="-118.393867">
  <ele>0.0</ele>
  <time>2026-09-02T22:07:09Z</time>
  <course>186.13</course>
  <speed>0.0</speed>
  <fix>3d</fix>
</trkpt>
<trkpt lat="33.810313" lon="-118.393867">
  <ele>-0.12</ele>
  <time>2026-09-02T22:07:09Z</time>
  <course>0.0</course>
  <speed>0.0</speed>
  <fix>3d</fix>
</trkpt>
<trkpt lat="33.810313" lon="-118.393867">
  <ele>0.0</ele>
  <time>2026-09-02T22:07:09Z</time>
  <course>186.26</course>
  <speed>0.0</speed>
  <fix>3d</fix>
</trkpt>
<trkpt lat="33.810313" lon="-118.393867">
  <ele>-0.12</ele>
  <time>2026-09-02T22:07:09Z</time>
  <course>0.0</course>
  <speed>0.0</speed>
  <fix>3d</fix>
</trkpt>
<trkpt lat="33.810313" lon="-118.393867">
  <ele>0.0</ele>
  <time>2026-09-02T22:07:09Z</time>
  <course>186.38</course>
  <speed>0.0</speed>
  <fix>3d</fix>
</trkpt>
<trkpt lat="33.810313" lon="-118.393867">
  <ele>-0.12</ele>
  <time>2026-09-02T22:07:09Z</time>
  <course>0.0</course>
  <speed>0.0</speed>
  <fix>3d</fix>
</trkpt>
<trkpt lat="33.810313" lon="-118.393867">
  <ele>0.0</ele>
  <time>2026-09-02T22:07:09Z</time>
  <course>186.49</course>
  <speed>0.0</speed>
  <fix>3d</fix>
</trkpt>
<trkpt lat="33.810313" lon="-118.393867">
  <ele>-0.12</ele>
  <time>2026-09-02T22:07:09Z</time>
  <course>0.0</course>
  <speed>0.0</speed>
  <fix>3d</fix>
</trkpt>
<trkpt lat="33.810313" lon="-118.393867">
  <ele>0.0</ele>
  <time>2026-09-02T22:07:09Z</time>
  <course>186.6</course>
  <speed>0.0</speed>
  <fix>3d</fix>
</trkpt>
<trkpt lat="33.810313" lon="-118.393867">
  <ele>-0.12</ele>
  <time>2026-09-02T22:07:09Z</time>
  <course>0.0</course>
  <speed>0.0</speed>
  <fix>3d</fix>
</trkpt>
<trkpt lat="33.810313" lon="-118.393867">
  <ele>0.0</ele>
  <time>2026-09-02T22:07:09Z</time>
  <course>186.71</course>
  <speed>0.0</speed>
  <fix>3d</fix>
</trkpt>
<trkpt lat="33.810313" lon="-118.393867">
  <ele>-0.12</ele>
  <time>2026-09-02T22:07:09Z</time>
  <course>0.0</course>
  <speed>0.0</speed>
  <fix>3d</fix>
</trkpt>
<trkpt lat="33.810313" lon="-118.393867">
  <ele>0.0</ele>
  <time>2026-09-02T22:07:09Z</time>
  <course>186.81</course>
  <speed>0.0</speed>
  <fix>3d</fix>
</trkpt>
<trkpt lat="33.810313" lon="-118.393867">
  <ele>-0.12</ele>
  <time>2026-09-02T22:07:09Z</time>
  <course>0.0</course>
  <speed>0.0</speed>
  <fix>3d</fix>
</trkpt>
<trkpt lat="33.810313" lon="-118.393867">
  <ele>0.0</ele>
  <time>2026-09-02T22:07:09Z</time>
  <course>186.9</course>
  <speed>0.0</speed>
  <fix>3d</fix>
</trkpt>
<trkpt lat="33.810313" lon="-118.393867">
  <ele>-0.12</ele>
  <time>2026-09-02T22:07:09Z</time>
  <course>0.0</course>
  <speed>0.0</speed>
  <fix>3d</fix>
</trkpt>
<trkpt lat="33.810313" lon="-118.393867">
  <ele>0.0</ele>
  <time>2026-09-02T22:07:09Z</time>
  <course>187.0</course>
  <speed>0.0</speed>
  <fix>3d</fix>
</trkpt>
<trkpt lat="33.810313" lon="-118.393867">
  <ele>-0.12</ele>
  <time>2026-09-02T22:07:09Z</time>
  <course>0.0</course>
  <speed>0.0</speed>
  <fix>3d</fix>
</trkpt>
<trkpt lat="33.810313" lon="-118.393867">
  <ele>0.0</ele>
  <time>2026-09-02T22:07:09Z</time>
  <course>187.08</course>
  <speed>0.0</speed>
  <fix>3d</fix>
</trkpt>
<trkpt lat="33.810313" lon="-118.393867">
  <ele>-0.13</ele>
  <time>2026-09-02T22:07:09Z</time>
  <course>0.0</course>
  <speed>0.0</speed>
  <fix>3d</fix>
</trkpt>
<trkpt lat="33.810313" lon="-118.393867">
  <ele>0.0</ele>
  <time>2026-09-02T22:07:09Z</time>
  <course>187.17</course>
  <speed>0.0</speed>
  <fix>3d</fix>
</trkpt>
<trkpt lat="33.810313" lon="-118.393867">
  <ele>-0.13</ele>
  <time>2026-09-02T22:07:09Z</time>
  <course>0.0</course>
  <speed>0.0</speed>
  <fix>3d</fix>
</trkpt>
<trkpt lat="33.810313" lon="-118.393867">
  <ele>0.0</ele>
  <time>2026-09-02T22:07:09Z</time>
  <course>187.24</course>
  <speed>0.0</speed>
  <fix>3d</fix>
</trkpt>
<trkpt lat="33.810313" lon="-118.393867">
  <ele>-0.13</ele>
  <time>2026-09-02T22:07:09Z</time>
  <course>0.0</course>
  <speed>0.0</speed>
  <fix>3d</fix>
</trkpt>
<trkpt lat="33.810313" lon="-118.393867">
  <ele>0.0</ele>
  <time>2026-09-02T22:07:09Z</time>
  <course>187.32</course>
  <speed>0.0</speed>
  <fix>3d</fix>
</trkpt>
<trkpt lat="33.810313" lon="-118.393867">
  <ele>-0.13</ele>
  <time>2026-09-02T22:07:09Z</time>
  <course>0.0</course>
  <speed>0.0</speed>
  <fix>3d</fix>
</trkpt>
<trkpt lat="33.810313" lon="-118.393867">
  <ele>0.0</ele>
  <time>2026-09-02T22:07:09Z</time>
  <course>187.39</course>
  <speed>0.0</speed>
  <fix>3d</fix>
</trkpt>
<trkpt lat="33.810313" lon="-118.393867">
  <ele>-0.13</ele>
  <time>2026-09-02T22:07:09Z</time>
  <course>0.0</course>
  <speed>0.0</speed>
  <fix>3d</fix>
</trkpt>
<trkpt lat="33.810313" lon="-118.393867">
  <ele>0.0</ele>
  <time>2026-09-02T22:07:09Z</time>
  <course>187.46</course>
  <speed>0.0</speed>
  <fix>3d</fix>
</trkpt>
<trkpt lat="33.810313" lon="-118.393867">
  <ele>-0.13</ele>
  <time>2026-09-02T22:07:09Z</time>
  <course>0.0</course>
  <speed>0.0</speed>
  <fix>3d</fix>
</trkpt>
<trkpt lat="33.810313" lon="-118.393867">
  <ele>0.0</ele>
  <time>2026-09-02T22:07:09Z</time>
  <course>187.53</course>
  <speed>0.0</speed>
  <fix>3d</fix>
</trkpt>
<trkpt lat="33.810313" lon="-118.393867">
  <ele>-0.13</ele>
  <time>2026-09-02T22:07:09Z</time>
  <course>0.0</course>
  <speed>0.0</speed>
  <fix>3d</fix>
</trkpt>
<trkpt lat="33.810313" lon="-118.393867">
  <ele>0.0</ele>
  <time>2026-09-02T22:07:09Z</time>
  <course>187.59</course>
  <speed>0.0</speed>
  <fix>3d</fix>
</trkpt>
<trkpt lat="33.810313" lon="-118.393867">
  <ele>-0.13</ele>
  <time>2026-09-02T22:07:09Z</time>
  <course>0.0</course>
  <speed>0.0</speed>
  <fix>3d</fix>
</trkpt>
<trkpt lat="33.810313" lon="-118.393867">
  <ele>0.0</ele>
  <time>2026-09-02T22:07:09Z</time>
  <course>187.65</course>
  <speed>0.0</speed>
  <fix>3d</fix>
</trkpt>
<trkpt lat="33.810313" lon="-118.393867">
  <ele>-0.12</ele>
  <time>2026-09-02T22:07:09Z</time>
  <course>0.0</course>
  <speed>0.0</speed>
  <fix>3d</fix>
</trkpt>
<trkpt lat="33.810313" lon="-118.393867">
  <ele>0.0</ele>
  <time>2026-09-02T22:07:09Z</time>
  <course>187.7</course>
  <speed>0.0</speed>
  <fix>3d</fix>
</trkpt>
<trkpt lat="33.810313" lon="-118.393867">
  <ele>-0.12</ele>
  <time>2026-09-02T22:07:09Z</time>
  <course>0.0</course>
  <speed>0.0</speed>
  <fix>3d</fix>
</trkpt>
<trkpt lat="33.810313" lon="-118.393867">
  <ele>0.0</ele>
  <time>2026-09-02T22:07:09Z</time>
  <course>187.76</course>
  <speed>0.0</speed>
  <fix>3d</fix>
</trkpt>
<trkpt lat="33.810313" lon="-118.393867">
  <ele>-0.12</ele>
  <time>2026-09-02T22:07:09Z</time>
  <course>0.0</course>
  <speed>0.0</speed>
  <fix>3d</fix>
</trkpt>
<trkpt lat="33.810313" lon="-118.393867">
  <ele>0.0</ele>
  <time>2026-09-02T22:07:09Z</time>
  <course>187.81</course>
  <speed>0.0</speed>
  <fix>3d</fix>
</trkpt>
<trkpt lat="33.810313" lon="-118.393867">
  <ele>-0.12</ele>
  <time>2026-09-02T22:07:09Z</time>
  <course>0.0</course>
  <speed>0.0</speed>
  <fix>3d</fix>
</trkpt>
<trkpt lat="33.810313" lon="-118.393867">
  <ele>0.0</ele>
  <time>2026-09-02T22:07:09Z</time>
  <course>187.86</course>
  <speed>0.0</speed>
  <fix>3d</fix>
</trkpt>
<trkpt lat="33.810313" lon="-118.393867">
  <ele>-0.12</ele>
  <time>2026-09-02T22:07:09Z</time>
  <course>0.0</course>
  <speed>0.0</speed>
  <fix>3d</fix>
</trkpt>
<trkpt lat="33.810313" lon="-118.393867">
  <ele>0.0</ele>
  <time>2026-09-02T22:07:09Z</time>
  <course>187.9</course>
  <speed>0.0</speed>
  <fix>3d</fix>
</trkpt>
<trkpt lat="33.810313" lon="-118.393867">
  <ele>-0.12</ele>
  <time>2026-09-02T22:07:09Z</time>
  <course>0.0</course>
  <speed>0.0</speed>
  <fix>3d</fix>
</trkpt>
<trkpt lat="33.810313" lon="-118.393867">
  <ele>0.0</ele>
  <time>2026-09-02T22:07:09Z</time>
  <course>187.94</course>
  <speed>0.0</speed>
  <fix>3d</fix>
</trkpt>
<trkpt lat="33.810313" lon="-118.393867">
  <ele>-0.12</ele>
  <time>2026-09-02T22:07:09Z</time>
  <course>0.0</course>
  <speed>0.0</speed>
  <fix>3d</fix>
</trkpt>
<trkpt lat="33.810313" lon="-118.393867">
  <ele>0.0</ele>
  <time>2026-09-02T22:07:09Z</time>
  <course>187.99</course>
  <speed>0.0</speed>
  <fix>3d</fix>
</trkpt>
<trkpt lat="33.810313" lon="-118.393867">
  <ele>-0.12</ele>
  <time>2026-09-02T22:07:09Z</time>
  <course>0.0</course>
  <speed>0.0</speed>
  <fix>3d</fix>
</trkpt>
<trkpt lat="33.810313" lon="-118.393867">
  <ele>0.0</ele>
  <time>2026-09-02T22:07:09Z</time>
  <course>188.02</course>
  <speed>0.0</speed>
  <fix>3d</fix>
</trkpt>
<trkpt lat="33.810313" lon="-118.393867">
  <ele>-0.12</ele>
  <time>2026-09-02T22:07:09Z</time>
  <course>0.0</course>
  <speed>0.0</speed>
  <fix>3d</fix>
</trkpt>
<trkpt lat="33.810313" lon="-118.393867">
  <ele>0.0</ele>
  <time>2026-09-02T22:07:09Z</time>
  <course>188.06</course>
  <speed>0.0</speed>
  <fix>3d</fix>
</trkpt>
<trkpt lat="33.810313" lon="-118.393867">
  <ele>-0.12</ele>
  <time>2026-09-02T22:07:09Z</time>
  <course>0.0</course>
  <speed>0.0</speed>
  <fix>3d</fix>
</trkpt>
<trkpt lat="33.810313" lon="-118.393867">
  <ele>0.0</ele>
  <time>2026-09-02T22:07:09Z</time>
  <course>188.1</course>
  <speed>0.0</speed>
  <fix>3d</fix>
</trkpt>
<trkpt lat="33.810313" lon="-118.393867">
  <ele>-0.13</ele>
  <time>2026-09-02T22:07:09Z</time>
  <course>0.0</course>
  <speed>0.0</speed>
  <fix>3d</fix>
</trkpt>
<trkpt lat="33.810313" lon="-118.393867">
  <ele>0.0</ele>
  <time>2026-09-02T22:07:09Z</time>
  <course>188.13</course>
  <speed>0.0</speed>
  <fix>3d</fix>
</trkpt>
<trkpt lat="33.810313" lon="-118.393867">
  <ele>-0.13</ele>
  <time>2026-09-02T22:07:09Z</time>
  <course>0.0</course>
  <speed>0.0</speed>
  <fix>3d</fix>
</trkpt>
<trkpt lat="33.810313" lon="-118.393867">
  <ele>0.0</ele>
  <time>2026-09-02T22:07:09Z</time>
  <course>188.16</course>
  <speed>0.0</speed>
  <fix>3d</fix>
</trkpt>
<trkpt lat="33.810313" lon="-118.393867">
  <ele>-0.13</ele>
  <time>2026-09-02T22:07:09Z</time>
  <course>0.0</course>
  <speed>0.0</speed>
  <fix>3d</fix>
</trkpt>
<trkpt lat="33.810313" lon="-118.393867">
  <ele>0.0</ele>
  <time>2026-09-02T22:07:09Z</time>
  <course>188.19</course>
  <speed>0.0</speed>
  <fix>3d</fix>
</trkpt>
<trkpt lat="33.810313" lon="-118.393867">
  <ele>-0.13</ele>
  <time>2026-09-02T22:07:09Z</time>
  <course>0.0</course>
  <speed>0.0</speed>
  <fix>3d</fix>
</trkpt>
<trkpt lat="33.810313" lon="-118.393867">
  <ele>0.0</ele>
  <time>2026-09-02T22:07:09Z</time>
  <course>188.22</course>
  <speed>0.0</speed>
  <fix>3d</fix>
</trkpt>
<trkpt lat="33.810313" lon="-118.393867">
  <ele>-0.13</ele>
  <time>2026-09-02T22:07:09Z</time>
  <course>0.0</course>
  <speed>0.0</speed>
  <fix>3d</fix>
</trkpt>
<trkpt lat="33.810313" lon="-118.393867">
  <ele>0.0</ele>
  <time>2026-09-02T22:07:09Z</time>
  <course>188.24</course>
  <speed>0.0</speed>
  <fix>3d</fix>
</trkpt>
<trkpt lat="33.810313" lon="-118.393867">
  <ele>-0.13</ele>
  <time>2026-09-02T22:07:09Z</time>
  <course>0.0</course>
  <speed>0.0</speed>
  <fix>3d</fix>
</trkpt>
<trkpt lat="33.810313" lon="-118.393867">
  <ele>0.0</ele>
  <time>2026-09-02T22:07:09Z</time>
  <course>188.27</course>
  <speed>0.0</speed>
  <fix>3d</fix>
</trkpt>
<trkpt lat="33.810313" lon="-118.393867">
  <ele>-0.12</ele>
  <time>2026-09-02T22:07:09Z</time>
  <course>0.0</course>
  <speed>0.0</speed>
  <fix>3d</fix>
</trkpt>
<trkpt lat="33.810313" lon="-118.393867">
  <ele>0.0</ele>
  <time>2026-09-02T22:07:09Z</time>
  <course>188.29</course>
  <speed>0.0</speed>
  <fix>3d</fix>
</trkpt>
<trkpt lat="33.810313" lon="-118.393867">
  <ele>-0.12</ele>
  <time>2026-09-02T22:07:09Z</time>
  <course>0.0</course>
  <speed>0.0</speed>
  <fix>3d</fix>
</trkpt>
<trkpt lat="33.810313" lon="-118.393867">
  <ele>0.0</ele>
  <time>2026-09-02T22:07:09Z</time>
  <course>188.32</course>
  <speed>0.0</speed>
  <fix>3d</fix>
</trkpt>
<trkpt lat="33.810313" lon="-118.393867">
  <ele>-0.12</ele>
  <time>2026-09-02T22:07:09Z</time>
  <course>0.0</course>
  <speed>0.0</speed>
  <fix>3d</fix>
</trkpt>
<trkpt lat="33.810313" lon="-118.393867">
  <ele>0.0</ele>
  <time>2026-09-02T22:07:09Z</time>
  <course>188.34</course>
  <speed>0.0</speed>
  <fix>3d</fix>
</trkpt>
<trkpt lat="33.810313" lon="-118.393867">
  <ele>-0.12</ele>
  <time>2026-09-02T22:07:09Z</time>
  <course>0.0</course>
  <speed>0.0</speed>
  <fix>3d</fix>
</trkpt>
<trkpt lat="33.810313" lon="-118.393867">
  <ele>0.0</ele>
  <time>2026-09-02T22:07:09Z</time>
  <course>188.36</course>
  <speed>0.0</speed>
  <fix>3d</fix>
</trkpt>
<trkpt lat="33.810313" lon="-118.393867">
  <ele>-0.12</ele>
  <time>2026-09-02T22:07:09Z</time>
  <course>0.0</course>
  <speed>0.0</speed>
  <fix>3d</fix>
</trkpt>
<trkpt lat="33.810313" lon="-118.393867">
  <ele>0.0</ele>
  <time>2026-09-02T22:07:09Z</time>
  <course>188.38</course>
  <speed>0.0</speed>
  <fix>3d</fix>
</trkpt>
<trkpt lat="33.810313" lon="-118.393867">
  <ele>-0.12</ele>
  <time>2026-09-02T22:07:09Z</time>
  <course>0.0</course>
  <speed>0.0</speed>
  <fix>3d</fix>
</trkpt>
<trkpt lat="33.810313" lon="-118.393867">
  <ele>0.0</ele>
  <time>2026-09-02T22:07:09Z</time>
  <course>188.39</course>
  <speed>0.0</speed>
  <fix>3d</fix>
</trkpt>
<trkpt lat="33.810313" lon="-118.393867">
  <ele>-0.12</ele>
  <time>2026-09-02T22:07:09Z</time>
  <course>0.0</course>
  <speed>0.0</speed>
  <fix>3d</fix>
</trkpt>
<trkpt lat="33.810313" lon="-118.393867">
  <ele>0.0</ele>
  <time>2026-09-02T22:07:09Z</time>
  <course>188.41</course>
  <speed>0.0</speed>
  <fix>3d</fix>
</trkpt>
<trkpt lat="33.810313" lon="-118.393867">
  <ele>-0.12</ele>
  <time>2026-09-02T22:07:09Z</time>
  <course>0.0</course>
  <speed>0.0</speed>
  <fix>3d</fix>
</trkpt>
<trkpt lat="33.810313" lon="-118.393867">
  <ele>0.0</ele>
  <time>2026-09-02T22:07:09Z</time>
  <course>188.42</course>
  <speed>0.0</speed>
  <fix>3d</fix>
</trkpt>
<trkpt lat="33.810313" lon="-118.393867">
  <ele>-0.12</ele>
  <time>2026-09-02T22:07:09Z</time>
  <course>0.0</course>
  <speed>0.0</speed>
  <fix>3d</fix>
</trkpt>
<trkpt lat="33.810313" lon="-118.393867">
  <ele>0.0</ele>
  <time>2026-09-02T22:07:09Z</time>
  <course>188.44</course>
  <speed>0.0</speed>
  <fix>3d</fix>
</trkpt>
<trkpt lat="33.810313" lon="-118.393867">
  <ele>-0.12</ele>
  <time>2026-09-02T22:07:09Z</time>
  <course>0.0</course>
  <speed>0.0</speed>
  <fix>3d</fix>
</trkpt>
<trkpt lat="33.810313" lon="-118.393867">
  <ele>0.0</ele>
  <time>2026-09-02T22:07:09Z</time>
  <course>188.45</course>
  <speed>0.0</speed>
  <fix>3d</fix>
</trkpt>
<trkpt lat="33.810313" lon="-118.393867">
  <ele>-0.13</ele>
  <time>2026-09-02T22:07:09Z</time>
  <course>0.0</course>
  <speed>0.0</speed>
  <fix>3d</fix>
</trkpt>
<trkpt lat="33.810313" lon="-118.393867">
  <ele>0.0</ele>
  <time>2026-09-02T22:07:09Z</time>
  <course>188.46</course>
  <speed>0.0</speed>
  <fix>3d</fix>
</trkpt>
<trkpt lat="33.810313" lon="-118.393867">
  <ele>-0.13</ele>
  <time>2026-09-02T22:07:09Z</time>
  <course>0.0</course>
  <speed>0.0</speed>
  <fix>3d</fix>
</trkpt>
<trkpt lat="33.810313" lon="-118.393867">
  <ele>0.0</ele>
  <time>2026-09-02T22:07:09Z</time>
  <course>188.47</course>
  <speed>0.0</speed>
  <fix>3d</fix>
</trkpt>
<trkpt lat="33.810313" lon="-118.393867">
  <ele>-0.13</ele>
  <time>2026-09-02T22:07:09Z</time>
  <course>0.0</course>
  <speed>0.0</speed>
  <fix>3d</fix>
</trkpt>
<trkpt lat="33.810313" lon="-118.393867">
  <ele>0.0</ele>
  <time>2026-09-02T22:07:09Z</time>
  <course>188.48</course>
  <speed>0.0</speed>
  <fix>3d</fix>
</trkpt>
<trkpt lat="33.810313" lon="-118.393867">
  <ele>-0.13</ele>
  <time>2026-09-02T22:07:09Z</time>
  <course>0.0</course>
  <speed>0.0</speed>
  <fix>3d</fix>
</trkpt>
<trkpt lat="33.810313" lon="-118.393867">
  <ele>0.0</ele>
  <time>2026-09-02T22:07:09Z</time>
  <course>188.49</course>
  <speed>0.0</speed>
  <fix>3d</fix>
</trkpt>
<trkpt lat="33.810313" lon="-118.393867">
  <ele>-0.13</ele>
  <time>2026-09-02T22:07:09Z</time>
  <course>0.0</course>
  <speed>0.0</speed>
  <fix>3d</fix>
</trkpt>
<trkpt lat="33.810313" lon="-118.393867">
  <ele>0.0</ele>
  <time>2026-09-02T22:07:09Z</time>
  <course>188.5</course>
  <speed>0.0</speed>
  <fix>3d</fix>
</trkpt>
<trkpt lat="33.810313" lon="-118.393867">
  <ele>-0.13</ele>
  <time>2026-09-02T22:07:09Z</time>
  <course>0.0</course>
  <speed>0.0</speed>
  <fix>3d</fix>
</trkpt>
<trkpt lat="33.810313" lon="-118.393867">
  <ele>0.0</ele>
  <time>2026-09-02T22:07:09Z</time>
  <course>188.51</course>
  <speed>0.0</speed>
  <fix>3d</fix>
</trkpt>
<trkpt lat="33.810313" lon="-118.393867">
  <ele>-0.12</ele>
  <time>2026-09-02T22:07:09Z</time>
  <course>0.0</course>
  <speed>0.0</speed>
  <fix>3d</fix>
</trkpt>
<trkpt lat="33.810313" lon="-118.393867">
  <ele>0.0</ele>
  <time>2026-09-02T22:07:09Z</time>
  <course>188.52</course>
  <speed>0.0</speed>
  <fix>3d</fix>
</trkpt>
<trkpt lat="33.810313" lon="-118.393867">
  <ele>-0.12</ele>
  <time>2026-09-02T22:07:09Z</time>
  <course>0.0</course>
  <speed>0.0</speed>
  <fix>3d</fix>
</trkpt>
<trkpt lat="33.810313" lon="-118.393867">
  <ele>0.0</ele>
  <time>2026-09-02T22:07:09Z</time>
  <course>188.53</course>
  <speed>0.0</speed>
  <fix>3d</fix>
</trkpt>
<trkpt lat="33.810313" lon="-118.393867">
  <ele>-0.12</ele>
  <time>2026-09-02T22:07:09Z</time>
  <course>0.0</course>
  <speed>0.0</speed>
  <fix>3d</fix>
</trkpt>
<trkpt lat="33.810313" lon="-118.393867">
  <ele>0.0</ele>
  <time>2026-09-02T22:07:09Z</time>
  <course>188.53</course>
  <speed>0.0</speed>
  <fix>3d</fix>
</trkpt>
<trkpt lat="33.810313" lon="-118.393867">
  <ele>-0.12</ele>
  <time>2026-09-02T22:07:09Z</time>
  <course>0.0</course>
  <speed>0.0</speed>
  <fix>3d</fix>
</trkpt>
<trkpt lat="33.810313" lon="-118.393867">
  <ele>0.0</ele>
  <time>2026-09-02T22:07:09Z</time>
  <course>188.54</course>
  <speed>0.0</speed>
  <fix>3d</fix>
</trkpt>
<trkpt lat="33.810313" lon="-118.393867">
  <ele>-0.12</ele>
  <time>2026-09-02T22:07:09Z</time>
  <course>0.0</course>
  <speed>0.0</speed>
  <fix>3d</fix>
</trkpt>
<trkpt lat="33.810313" lon="-118.393867">
  <ele>0.0</ele>
  <time>2026-09-02T22:07:09Z</time>
  <course>188.54</course>
  <speed>0.0</speed>
  <fix>3d</fix>
</trkpt>
<trkpt lat="33.810313" lon="-118.393867">
  <ele>-0.12</ele>
  <time>2026-09-02T22:07:09Z</time>
  <course>0.0</course>
  <speed>0.0</speed>
  <fix>3d</fix>
</trkpt>
<trkpt lat="33.810313" lon="-118.393867">
  <ele>0.0</ele>
  <time>2026-09-02T22:07:09Z</time>
  <course>188.54</course>
  <speed>0.0</speed>
  <fix>3d</fix>
</trkpt>
<trkpt lat="33.810313" lon="-118.393867">
  <ele>-0.12</ele>
  <time>2026-09-02T22:07:09Z</time>
  <course>0.0</course>
  <speed>0.0</speed>
  <fix>3d</fix>
</trkpt>
<trkpt lat="33.810313" lon="-118.393867">
  <ele>0.0</ele>
  <time>2026-09-02T22:07:09Z</time>
  <course>188.55</course>
  <speed>0.0</speed>
  <fix>3d</fix>
</trkpt>
<trkpt lat="33.810313" lon="-118.393867">
  <ele>-0.12</ele>
  <time>2026-09-02T22:07:09Z</time>
  <course>0.0</course>
  <speed>0.0</speed>
  <fix>3d</fix>
</trkpt>
<trkpt lat="33.810313" lon="-118.393867">
  <ele>0.0</ele>
  <time>2026-09-02T22:07:09Z</time>
  <course>188.55</course>
  <speed>0.0</speed>
  <fix>3d</fix>
</trkpt>
<trkpt lat="33.810313" lon="-118.393867">
  <ele>-0.12</ele>
  <time>2026-09-02T22:07:09Z</time>
  <course>0.0</course>
  <speed>0.0</speed>
  <fix>3d</fix>
</trkpt>
<trkpt lat="33.810313" lon="-118.393867">
  <ele>0.0</ele>
  <time>2026-09-02T22:07:09Z</time>
  <course>188.55</course>
  <speed>0.0</speed>
  <fix>3d</fix>
</trkpt>
<trkpt lat="33.810313" lon="-118.393867">
  <ele>-0.12</ele>
  <time>2026-09-02T22:07:09Z</time>
  <course>0.0</course>
  <speed>0.0</speed>
  <fix>3d</fix>
</trkpt>
<trkpt lat="33.810313" lon="-118.393867">
  <ele>-0.126</ele>
  <time>2026-09-02T22:07:09Z</time>
  <course>188.55</course>
  <speed>0.0</speed>
  <fix>3d</fix>
</trkpt>
<trkpt lat="33.810313" lon="-118.393867">
  <ele>-0.13</ele>
  <time>2026-09-02T22:07:09Z</time>
  <course>0.0</course>
  <speed>0.0</speed>
  <fix>3d</fix>
</trkpt>
<trkpt lat="33.810313" lon="-118.393867">
  <ele>-0.126</ele>
  <time>2026-09-02T22:07:09Z</time>
  <course>188.56</course>
  <speed>0.0</speed>
  <fix>3d</fix>
</trkpt>
<trkpt lat="33.810313" lon="-118.393867">
  <ele>-0.13</ele>
  <time>2026-09-02T22:07:09Z</time>
  <course>0.0</course>
  <speed>0.0</speed>
  <fix>3d</fix>
</trkpt>
<trkpt lat="33.810313" lon="-118.393867">
  <ele>-0.125</ele>
  <time>2026-09-02T22:07:09Z</time>
  <course>188.56</course>
  <speed>0.0</speed>
  <fix>3d</fix>
</trkpt>
<trkpt lat="33.810313" lon="-118.393867">
  <ele>-0.13</ele>
  <time>2026-09-02T22:07:09Z</time>
  <course>0.0</course>
  <speed>0.0</speed>
  <fix>3d</fix>
</trkpt>
<trkpt lat="33.810313" lon="-118.393867">
  <ele>-0.123</ele>
  <time>2026-09-02T22:07:09Z</time>
  <course>188.56</course>
  <speed>0.0</speed>
  <fix>3d</fix>
</trkpt>
<trkpt lat="33.810313" lon="-118.393867">
  <ele>-0.13</ele>
  <time>2026-09-02T22:07:09Z</time>
  <course>0.0</course>
  <speed>0.0</speed>
  <fix>3d</fix>
</trkpt>
<trkpt lat="33.810313" lon="-118.393867">
  <ele>-0.121</ele>
  <time>2026-09-02T22:07:09Z</time>
  <course>188.56</course>
  <speed>0.0</speed>
  <fix>3d</fix>
</trkpt>
<trkpt lat="33.810313" lon="-118.393867">
  <ele>-0.12</ele>
  <time>2026-09-02T22:07:09Z</time>
  <course>0.0</course>
  <speed>0.0</speed>
  <fix>3d</fix>
</trkpt>
<trkpt lat="33.810313" lon="-118.393867">
  <ele>-0.12</ele>
  <time>2026-09-02T22:07:09Z</time>
  <course>188.56</course>
  <speed>0.0</speed>
  <fix>3d</fix>
</trkpt>
<trkpt lat="33.810313" lon="-118.393867">
  <ele>-0.12</ele>
  <time>2026-09-02T22:07:09Z</time>
  <course>0.0</course>
  <speed>0.0</speed>
  <fix>3d</fix>
</trkpt>
<trkpt lat="33.810313" lon="-118.393867">
  <ele>-0.119</ele>
  <time>2026-09-02T22:07:09Z</time>
  <course>188.56</course>
  <speed>0.0</speed>
  <fix>3d</fix>
</trkpt>
<trkpt lat="33.810313" lon="-118.393867">
  <ele>-0.12</ele>
  <time>2026-09-02T22:07:09Z</time>
  <course>0.0</course>
  <speed>0.0</speed>
  <fix>3d</fix>
</trkpt>
<trkpt lat="33.810313" lon="-118.393867">
  <ele>-0.12</ele>
  <time>2026-09-02T22:07:09Z</time>
  <course>188.56</course>
  <speed>0.0</speed>
  <fix>3d</fix>
</trkpt>
<trkpt lat="33.810313" lon="-118.393867">
  <ele>-0.12</ele>
  <time>2026-09-02T22:07:09Z</time>
  <course>0.0</course>
  <speed>0.0</speed>
  <fix>3d</fix>
</trkpt>
<trkpt lat="33.810313" lon="-118.393867">
  <ele>-0.123</ele>
  <time>2026-09-02T22:07:09Z</time>
  <course>188.55</course>
  <speed>0.0</speed>
  <fix>3d</fix>
</trkpt>
<trkpt lat="33.810313" lon="-118.393867">
  <ele>-0.12</ele>
  <time>2026-09-02T22:07:09Z</time>
  <course>0.0</course>
  <speed>0.0</speed>
  <fix>3d</fix>
</trkpt>
<trkpt lat="33.810313" lon="-118.393867">
  <ele>-0.127</ele>
  <time>2026-09-02T22:07:09Z</time>
  <course>188.55</course>
  <speed>0.0</speed>
  <fix>3d</fix>
</trkpt>
<trkpt lat="33.810313" lon="-118.393867">
  <ele>-0.12</ele>
  <time>2026-09-02T22:07:09Z</time>
  <course>0.0</course>
  <speed>0.0</speed>
  <fix>3d</fix>
</trkpt>
<trkpt lat="33.810313" lon="-118.393867">
  <ele>-0.13</ele>
  <time>2026-09-02T22:07:09Z</time>
  <course>188.55</course>
  <speed>0.0</speed>
  <fix>3d</fix>
</trkpt>
<trkpt lat="33.810313" lon="-118.393867">
  <ele>-0.12</ele>
  <time>2026-09-02T22:07:09Z</time>
  <course>0.0</course>
  <speed>0.0</speed>
  <fix>3d</fix>
</trkpt>
<trkpt lat="33.810313" lon="-118.393867">
  <ele>-0.132</ele>
  <time>2026-09-02T22:07:09Z</time>
  <course>188.55</course>
  <speed>0.0</speed>
  <fix>3d</fix>
</trkpt>
<trkpt lat="33.810313" lon="-118.393867">
  <ele>-0.12</ele>
  <time>2026-09-02T22:07:09Z</time>
  <course>0.0</course>
  <speed>0.0</speed>
  <fix>3d</fix>
</trkpt>
<trkpt lat="33.810313" lon="-118.393867">
  <ele>-0.132</ele>
  <time>2026-09-02T22:07:09Z</time>
  <course>188.55</course>
  <speed>0.0</speed>
  <fix>3d</fix>
</trkpt>
<trkpt lat="33.810313" lon="-118.393867">
  <ele>-0.12</ele>
  <time>2026-09-02T22:07:09Z</time>
  <course>0.0</course>
  <speed>0.0</speed>
  <fix>3d</fix>
</trkpt>
<trkpt lat="33.810313" lon="-118.393867">
  <ele>-0.132</ele>
  <time>2026-09-02T22:07:09Z</time>
  <course>188.55</course>
  <speed>0.0</speed>
  <fix>3d</fix>
</trkpt>
<trkpt lat="33.810313" lon="-118.393867">
  <ele>-0.12</ele>
  <time>2026-09-02T22:07:09Z</time>
  <course>0.0</course>
  <speed>0.0</speed>
  <fix>3d</fix>
</trkpt>
<trkpt lat="33.810313" lon="-118.393867">
  <ele>-0.132</ele>
  <time>2026-09-02T22:07:09Z</time>
  <course>188.55</course>
  <speed>0.0</speed>
  <fix>3d</fix>
</trkpt>
<trkpt lat="33.810313" lon="-118.393867">
  <ele>-0.12</ele>
  <time>2026-09-02T22:07:09Z</time>
  <course>0.0</course>
  <speed>0.0</speed>
  <fix>3d</fix>
</trkpt>
<trkpt lat="33.810313" lon="-118.393867">
  <ele>-0.131</ele>
  <time>2026-09-02T22:07:09Z</time>
  <course>188.55</course>
  <speed>0.0</speed>
  <fix>3d</fix>
</trkpt>
<trkpt lat="33.810313" lon="-118.393867">
  <ele>-0.12</ele>
  <time>2026-09-02T22:07:09Z</time>
  <course>0.0</course>
  <speed>0.0</speed>
  <fix>3d</fix>
</trkpt>
<trkpt lat="33.810313" lon="-118.393867">
  <ele>-0.129</ele>
  <time>2026-09-02T22:07:09Z</time>
  <course>188.54</course>
  <speed>0.0</speed>
  <fix>3d</fix>
</trkpt>
<trkpt lat="33.810313" lon="-118.393867">
  <ele>-0.13</ele>
  <time>2026-09-02T22:07:09Z</time>
  <course>0.0</course>
  <speed>0.0</speed>
  <fix>3d</fix>
</trkpt>
<trkpt lat="33.810313" lon="-118.393867">
  <ele>-0.128</ele>
  <time>2026-09-02T22:07:09Z</time>
  <course>188.54</course>
  <speed>0.0</speed>
  <fix>3d</fix>
</trkpt>
<trkpt lat="33.810313" lon="-118.393867">
  <ele>-0.13</ele>
  <time>2026-09-02T22:07:09Z</time>
  <course>0.0</course>
  <speed>0.0</speed>
  <fix>3d</fix>
</trkpt>
<trkpt lat="33.810313" lon="-118.393867">
  <ele>-0.125</ele>
  <time>2026-09-02T22:07:09Z</time>
  <course>188.53</course>
  <speed>0.0</speed>
  <fix>3d</fix>
</trkpt>
<trkpt lat="33.810313" lon="-118.393867">
  <ele>-0.12</ele>
  <time>2026-09-02T22:07:09Z</time>
  <course>0.0</course>
  <speed>0.0</speed>
  <fix>3d</fix>
</trkpt>
<trkpt lat="33.810313" lon="-118.393867">
  <ele>-0.123</ele>
  <time>2026-09-02T22:07:09Z</time>
  <course>188.53</course>
  <speed>0.0</speed>
  <fix>3d</fix>
</trkpt>
<trkpt lat="33.810313" lon="-118.393867">
  <ele>-0.12</ele>
  <time>2026-09-02T22:07:09Z</time>
  <course>0.0</course>
  <speed>0.0</speed>
  <fix>3d</fix>
</trkpt>
<trkpt lat="33.810313" lon="-118.393867">
  <ele>-0.121</ele>
  <time>2026-09-02T22:07:09Z</time>
  <course>188.52</course>
  <speed>0.0</speed>
  <fix>3d</fix>
</trkpt>
<trkpt lat="33.810313" lon="-118.393867">
  <ele>-0.12</ele>
  <time>2026-09-02T22:07:09Z</time>
  <course>0.0</course>
  <speed>0.0</speed>
  <fix>3d</fix>
</trkpt>
<trkpt lat="33.810313" lon="-118.393867">
  <ele>-0.121</ele>
  <time>2026-09-02T22:07:09Z</time>
  <course>188.52</course>
  <speed>0.0</speed>
  <fix>3d</fix>
</trkpt>
<trkpt lat="33.810313" lon="-118.393867">
  <ele>-0.12</ele>
  <time>2026-09-02T22:07:09Z</time>
  <course>0.0</course>
  <speed>0.0</speed>
  <fix>3d</fix>
</trkpt>
<trkpt lat="33.810313" lon="-118.393867">
  <ele>-0.121</ele>
  <time>2026-09-02T22:07:09Z</time>
  <course>188.51</course>
  <speed>0.0</speed>
  <fix>3d</fix>
</trkpt>
<trkpt lat="33.810313" lon="-118.393867">
  <ele>-0.12</ele>
  <time>2026-09-02T22:07:09Z</time>
  <course>0.0</course>
  <speed>0.0</speed>
  <fix>3d</fix>
</trkpt>
<trkpt lat="33.810313" lon="-118.393867">
  <ele>-0.123</ele>
  <time>2026-09-02T22:07:09Z</time>
  <course>188.51</course>
  <speed>0.0</speed>
  <fix>3d</fix>
</trkpt>
<trkpt lat="33.810313" lon="-118.393867">
  <ele>-0.12</ele>
  <time>2026-09-02T22:07:09Z</time>
  <course>0.0</course>
  <speed>0.0</speed>
  <fix>3d</fix>
</trkpt>
<trkpt lat="33.810313" lon="-118.393867">
  <ele>-0.126</ele>
  <time>2026-09-02T22:07:09Z</time>
  <course>188.5</course>
  <speed>0.0</speed>
  <fix>3d</fix>
</trkpt>
<trkpt lat="33.810313" lon="-118.393867">
  <ele>-0.12</ele>
  <time>2026-09-02T22:07:09Z</time>
  <course>0.0</course>
  <speed>0.0</speed>
  <fix>3d</fix>
</trkpt>
<trkpt lat="33.810313" lon="-118.393867">
  <ele>-0.127</ele>
  <time>2026-09-02T22:07:09Z</time>
  <course>188.5</course>
  <speed>0.0</speed>
  <fix>3d</fix>
</trkpt>
<trkpt lat="33.810313" lon="-118.393867">
  <ele>-0.12</ele>
  <time>2026-09-02T22:07:09Z</time>
  <course>0.0</course>
  <speed>0.0</speed>
  <fix>3d</fix>
</trkpt>
<trkpt lat="33.810313" lon="-118.393867">
  <ele>-0.128</ele>
  <time>2026-09-02T22:07:09Z</time>
  <course>188.49</course>
  <speed>0.0</speed>
  <fix>3d</fix>
</trkpt>
<trkpt lat="33.810313" lon="-118.393867">
  <ele>-0.12</ele>
  <time>2026-09-02T22:07:09Z</time>
  <course>0.0</course>
  <speed>0.0</speed>
  <fix>3d</fix>
</trkpt>
<trkpt lat="33.810313" lon="-118.393867">
  <ele>-0.127</ele>
  <time>2026-09-02T22:07:09Z</time>
  <course>188.49</course>
  <speed>0.0</speed>
  <fix>3d</fix>
</trkpt>
<trkpt lat="33.810313" lon="-118.393867">
  <ele>-0.12</ele>
  <time>2026-09-02T22:07:09Z</time>
  <course>0.0</course>
  <speed>0.0</speed>
  <fix>3d</fix>
</trkpt>
<trkpt lat="33.810313" lon="-118.393867">
  <ele>-0.127</ele>
  <time>2026-09-02T22:07:09Z</time>
  <course>188.48</course>
  <speed>0.0</speed>
  <fix>3d</fix>
</trkpt>
<trkpt lat="33.810313" lon="-118.393867">
  <ele>-0.12</ele>
  <time>2026-09-02T22:07:09Z</time>
  <course>0.0</course>
  <speed>0.0</speed>
  <fix>3d</fix>
</trkpt>
<trkpt lat="33.810313" lon="-118.393867">
  <ele>-0.127</ele>
  <time>2026-09-02T22:07:09Z</time>
  <course>188.47</course>
  <speed>0.01</speed>
  <fix>3d</fix>
</trkpt>
<trkpt lat="33.810313" lon="-118.393867">
  <ele>-0.12</ele>
  <time>2026-09-02T22:07:09Z</time>
  <course>0.0</course>
  <speed>0.0</speed>
  <fix>3d</fix>
</trkpt>
<trkpt lat="33.810313" lon="-118.393867">
  <ele>-0.127</ele>
  <time>2026-09-02T22:07:09Z</time>
  <course>188.47</course>
  <speed>0.01</speed>
  <fix>3d</fix>
</trkpt>
<trkpt lat="33.810313" lon="-118.393867">
  <ele>-0.12</ele>
  <time>2026-09-02T22:07:09Z</time>
  <course>0.0</course>
  <speed>0.0</speed>
  <fix>3d</fix>
</trkpt>
<trkpt lat="33.810313" lon="-118.393867">
  <ele>-0.127</ele>
  <time>2026-09-02T22:07:09Z</time>
  <course>188.46</course>
  <speed>0.01</speed>
  <fix>3d</fix>
</trkpt>
<trkpt lat="33.810313" lon="-118.393867">
  <ele>-0.12</ele>
  <time>2026-09-02T22:07:09Z</time>
  <course>0.0</course>
  <speed>0.0</speed>
  <fix>3d</fix>
</trkpt>
<trkpt lat="33.810313" lon="-118.393867">
  <ele>-0.126</ele>
  <time>2026-09-02T22:07:09Z</time>
  <course>188.45</course>
  <speed>0.01</speed>
  <fix>3d</fix>
</trkpt>
<trkpt lat="33.810313" lon="-118.393867">
  <ele>-0.12</ele>
  <time>2026-09-02T22:07:09Z</time>
  <course>0.0</course>
  <speed>0.0</speed>
  <fix>3d</fix>
</trkpt>
<trkpt lat="33.810313" lon="-118.393867">
  <ele>-0.126</ele>
  <time>2026-09-02T22:07:09Z</time>
  <course>188.45</course>
  <speed>0.01</speed>
  <fix>3d</fix>
</trkpt>
<trkpt lat="33.810313" lon="-118.393867">
  <ele>-0.12</ele>
  <time>2026-09-02T22:07:09Z</time>
  <course>0.0</course>
  <speed>0.0</speed>
  <fix>3d</fix>
</trkpt>
<trkpt lat="33.810313" lon="-118.393867">
  <ele>-0.125</ele>
  <time>2026-09-02T22:07:09Z</time>
  <course>188.44</course>
  <speed>0.01</speed>
  <fix>3d</fix>
</trkpt>
<trkpt lat="33.810313" lon="-118.393867">
  <ele>-0.12</ele>
  <time>2026-09-02T22:07:09Z</time>
  <course>0.0</course>
  <speed>0.0</speed>
  <fix>3d</fix>
</trkpt>
<trkpt lat="33.810313" lon="-118.393867">
  <ele>-0.126</ele>
  <time>2026-09-02T22:07:09Z</time>
  <course>188.43</course>
  <speed>0.01</speed>
  <fix>3d</fix>
</trkpt>
<trkpt lat="33.810313" lon="-118.393867">
  <ele>-0.12</ele>
  <time>2026-09-02T22:07:09Z</time>
  <course>0.0</course>
  <speed>0.0</speed>
  <fix>3d</fix>
</trkpt>
<trkpt lat="33.810313" lon="-118.393867">
  <ele>-0.127</ele>
  <time>2026-09-02T22:07:09Z</time>
  <course>188.42</course>
  <speed>0.01</speed>
  <fix>3d</fix>
</trkpt>
<trkpt lat="33.810313" lon="-118.393867">
  <ele>-0.12</ele>
  <time>2026-09-02T22:07:09Z</time>
  <course>0.0</course>
  <speed>0.0</speed>
  <fix>3d</fix>
</trkpt>
<trkpt lat="33.810313" lon="-118.393867">
  <ele>-0.128</ele>
  <time>2026-09-02T22:07:09Z</time>
  <course>188.42</course>
  <speed>0.01</speed>
  <fix>3d</fix>
</trkpt>
<trkpt lat="33.810313" lon="-118.393867">
  <ele>-0.12</ele>
  <time>2026-09-02T22:07:09Z</time>
  <course>0.0</course>
  <speed>0.0</speed>
  <fix>3d</fix>
</trkpt>
<trkpt lat="33.810313" lon="-118.393867">
  <ele>-0.129</ele>
  <time>2026-09-02T22:07:09Z</time>
  <course>188.41</course>
  <speed>0.01</speed>
  <fix>3d</fix>
</trkpt>
<trkpt lat="33.810313" lon="-118.393867">
  <ele>-0.12</ele>
  <time>2026-09-02T22:07:09Z</time>
  <course>0.0</course>
  <speed>0.0</speed>
  <fix>3d</fix>
</trkpt>
<trkpt lat="33.810313" lon="-118.393867">
  <ele>-0.129</ele>
  <time>2026-09-02T22:07:09Z</time>
  <course>188.4</course>
  <speed>0.01</speed>
  <fix>3d</fix>
</trkpt>
<trkpt lat="33.810313" lon="-118.393867">
  <ele>-0.12</ele>
  <time>2026-09-02T22:07:09Z</time>
  <course>0.0</course>
  <speed>0.0</speed>
  <fix>3d</fix>
</trkpt>
<trkpt lat="33.810313" lon="-118.393867">
  <ele>-0.13</ele>
  <time>2026-09-02T22:07:09Z</time>
  <course>188.4</course>
  <speed>0.01414213562373095</speed>
  <fix>3d</fix>
</trkpt>
<trkpt lat="33.810313" lon="-118.393867">
  <ele>-0.12</ele>
  <time>2026-09-02T22:07:09Z</time>
  <course>0.0</course>
  <speed>0.0</speed>
  <fix>3d</fix>
</trkpt>
<trkpt lat="33.810313" lon="-118.393867">
  <ele>-0.13</ele>
  <time>2026-09-02T22:07:09Z</time>
  <course>188.39</course>
  <speed>0.01414213562373095</speed>
  <fix>3d</fix>
</trkpt>
<trkpt lat="33.810313" lon="-118.393867">
  <ele>-0.12</ele>
  <time>2026-09-02T22:07:09Z</time>
  <course>0.0</course>
  <speed>0.0</speed>
  <fix>3d</fix>
</trkpt>
<trkpt lat="33.810313" lon="-118.393867">
  <ele>-0.13</ele>
  <time>2026-09-02T22:07:09Z</time>
  <course>188.38</course>
  <speed>0.01414213562373095</speed>
  <fix>3d</fix>
</trkpt>
<trkpt lat="33.810313" lon="-118.393867">
  <ele>-0.12</ele>
  <time>2026-09-02T22:07:09Z</time>
  <course>0.0</course>
  <speed>0.0</speed>
  <fix>3d</fix>
</trkpt>
<trkpt lat="33.810313" lon="-118.393867">
  <ele>-0.129</ele>
  <time>2026-09-02T22:07:09Z</time>
  <course>188.37</course>
  <speed>0.01414213562373095</speed>
  <fix>3d</fix>
</trkpt>
<trkpt lat="33.810313" lon="-118.393867">
  <ele>-0.12</ele>
  <time>2026-09-02T22:07:09Z</time>
  <course>0.0</course>
  <speed>0.0</speed>
  <fix>3d</fix>
</trkpt>
<trkpt lat="33.810313" lon="-118.393867">
  <ele>-0.128</ele>
  <time>2026-09-02T22:07:09Z</time>
  <course>188.37</course>
  <speed>0.01414213562373095</speed>
  <fix>3d</fix>
</trkpt>
<trkpt lat="33.810313" lon="-118.393867">
  <ele>-0.12</ele>
  <time>2026-09-02T22:07:09Z</time>
  <course>0.0</course>
  <speed>0.0</speed>
  <fix>3d</fix>
</trkpt>
<trkpt lat="33.810313" lon="-118.393867">
  <ele>-0.126</ele>
  <time>2026-09-02T22:07:09Z</time>
  <course>188.36</course>
  <speed>0.01414213562373095</speed>
  <fix>3d</fix>
</trkpt>
<trkpt lat="33.810313" lon="-118.393867">
  <ele>-0.12</ele>
  <time>2026-09-02T22:07:09Z</time>
  <course>0.0</course>
  <speed>0.0</speed>
  <fix>3d</fix>
</trkpt>
<trkpt lat="33.810313" lon="-118.393867">
  <ele>-0.124</ele>
  <time>2026-09-02T22:07:09Z</time>
  <course>188.35</course>
  <speed>0.01414213562373095</speed>
  <fix>3d</fix>
</trkpt>
<trkpt lat="33.810313" lon="-118.393867">
  <ele>-0.12</ele>
  <time>2026-09-02T22:07:09Z</time>
  <course>0.0</course>
  <speed>0.0</speed>
  <fix>3d</fix>
</trkpt>
<trkpt lat="33.810313" lon="-118.393867">
  <ele>-0.122</ele>
  <time>2026-09-02T22:07:09Z</time>
  <course>188.34</course>
  <speed>0.01414213562373095</speed>
  <fix>3d</fix>
</trkpt>
<trkpt lat="33.810313" lon="-118.393867">
  <ele>-0.12</ele>
  <time>2026-09-02T22:07:09Z</time>
  <course>0.0</course>
  <speed>0.0</speed>
  <fix>3d</fix>
</trkpt>
<trkpt lat="33.810313" lon="-118.393867">
  <ele>-0.123</ele>
  <time>2026-09-02T22:07:09Z</time>
  <course>188.34</course>
  <speed>0.01414213562373095</speed>
  <fix>3d</fix>
</trkpt>
<trkpt lat="33.810313" lon="-118.393867">
  <ele>-0.12</ele>
  <time>2026-09-02T22:07:09Z</time>
  <course>0.0</course>
  <speed>0.0</speed>
  <fix>3d</fix>
</trkpt>
<trkpt lat="33.810313" lon="-118.393867">
  <ele>-0.125</ele>
  <time>2026-09-02T22:07:09Z</time>
  <course>188.33</course>
  <speed>0.01414213562373095</speed>
  <fix>3d</fix>
</trkpt>
<trkpt lat="33.810313" lon="-118.393867">
  <ele>-0.12</ele>
  <time>2026-09-02T22:07:09Z</time>
  <course>0.0</course>
  <speed>0.0</speed>
  <fix>3d</fix>
</trkpt>
<trkpt lat="33.810313" lon="-118.393867">
  <ele>-0.128</ele>
  <time>2026-09-02T22:07:09Z</time>
  <course>188.32</course>
  <speed>0.01414213562373095</speed>
  <fix>3d</fix>
</trkpt>
<trkpt lat="33.810313" lon="-118.393867">
  <ele>-0.12</ele>
  <time>2026-09-02T22:07:09Z</time>
  <course>0.0</course>
  <speed>0.0</speed>
  <fix>3d</fix>
</trkpt>
<trkpt lat="33.810313" lon="-118.393867">
  <ele>-0.131</ele>
  <time>2026-09-02T22:07:09Z</time>
  <course>188.31</course>
  <speed>0.01414213562373095</speed>
  <fix>3d</fix>
</trkpt>
<trkpt lat="33.810313" lon="-118.393867">
  <ele>-0.12</ele>
  <time>2026-09-02T22:07:09Z</time>
  <course>0.0</course>
  <speed>0.0</speed>
  <fix>3d</fix>
</trkpt>
<trkpt lat="33.810313" lon="-118.393867">
  <ele>-0.134</ele>
  <time>2026-09-02T22:07:09Z</time>
  <course>188.3</course>
  <speed>0.01414213562373095</speed>
  <fix>3d</fix>
</trkpt>
<trkpt lat="33.810313" lon="-118.393867">
  <ele>-0.12</ele>
  <time>2026-09-02T22:07:09Z</time>
  <course>0.0</course>
  <speed>0.0</speed>
  <fix>3d</fix>
</trkpt>
<trkpt lat="33.810313" lon="-118.393867">
  <ele>-0.135</ele>
  <time>2026-09-02T22:07:10Z</time>
  <course>188.3</course>
  <speed>0.01414213562373095</speed>
  <fix>3d</fix>
</trkpt>
<trkpt lat="33.810313" lon="-118.393867">
  <ele>-0.12</ele>
  <time>2026-09-02T22:07:10Z</time>
  <course>0.0</course>
  <speed>0.0</speed>
  <fix>3d</fix>
</trkpt>
<trkpt lat="33.810313" lon="-118.393867">
  <ele>-0.134</ele>
  <time>2026-09-02T22:07:10Z</time>
  <course>188.29</course>
  <speed>0.01414213562373095</speed>
  <fix>3d</fix>
</trkpt>
<trkpt lat="33.810313" lon="-118.393867">
  <ele>-0.12</ele>
  <time>2026-09-02T22:07:10Z</time>
  <course>0.0</course>
  <speed>0.0</speed>
  <fix>3d</fix>
</trkpt>
<trkpt lat="33.810313" lon="-118.393867">
  <ele>-0.132</ele>
  <time>2026-09-02T22:07:10Z</time>
  <course>188.28</course>
  <speed>0.01414213562373095</speed>
  <fix>3d</fix>
</trkpt>
<trkpt lat="33.810313" lon="-118.393867">
  <ele>-0.12</ele>
  <time>2026-09-02T22:07:10Z</time>
  <course>0.0</course>
  <speed>0.0</speed>
  <fix>3d</fix>
</trkpt>
<trkpt lat="33.810313" lon="-118.393867">
  <ele>-0.13</ele>
  <time>2026-09-02T22:07:10Z</time>
  <course>188.27</course>
  <speed>0.01414213562373095</speed>
  <fix>3d</fix>
</trkpt>
<trkpt lat="33.810313" lon="-118.393867">
  <ele>-0.12</ele>
  <time>2026-09-02T22:07:10Z</time>
  <course>0.0</course>
  <speed>0.0</speed>
  <fix>3d</fix>
</trkpt>
<trkpt lat="33.810313" lon="-118.393867">
  <ele>-0.127</ele>
  <time>2026-09-02T22:07:10Z</time>
  <course>188.26</course>
  <speed>0.01414213562373095</speed>
  <fix>3d</fix>
</trkpt>
<trkpt lat="33.810313" lon="-118.393867">
  <ele>-0.12</ele>
  <time>2026-09-02T22:07:10Z</time>
  <course>0.0</course>
  <speed>0.0</speed>
  <fix>3d</fix>
</trkpt>
<trkpt lat="33.810313" lon="-118.393867">
  <ele>-0.125</ele>
  <time>2026-09-02T22:07:10Z</time>
  <course>188.25</course>
  <speed>0.01414213562373095</speed>
  <fix>3d</fix>
</trkpt>
<trkpt lat="33.810313" lon="-118.393867">
  <ele>-0.12</ele>
  <time>2026-09-02T22:07:10Z</time>
  <course>0.0</course>
  <speed>0.0</speed>
  <fix>3d</fix>
</trkpt>
<trkpt lat="33.810313" lon="-118.393867">
  <ele>-0.123</ele>
  <time>2026-09-02T22:07:10Z</time>
  <course>188.25</course>
  <speed>0.01414213562373095</speed>
  <fix>3d</fix>
</trkpt>
<trkpt lat="33.810313" lon="-118.393867">
  <ele>-0.12</ele>
  <time>2026-09-02T22:07:10Z</time>
  <course>0.0</course>
  <speed>0.0</speed>
  <fix>3d</fix>
</trkpt>
<trkpt lat="33.810313" lon="-118.393867">
  <ele>-0.124</ele>
  <time>2026-09-02T22:07:10Z</time>
  <course>188.24</course>
  <speed>0.01414213562373095</speed>
  <fix>3d</fix>
</trkpt>
<trkpt lat="33.810313" lon="-118.393867">
  <ele>-0.12</ele>
  <time>2026-09-02T22:07:10Z</time>
  <course>0.0</course>
  <speed>0.0</speed>
  <fix>3d</fix>
</trkpt>
<trkpt lat="33.810313" lon="-118.393867">
  <ele>-0.125</ele>
  <time>2026-09-02T22:07:10Z</time>
  <course>188.23</course>
  <speed>0.01414213562373095</speed>
  <fix>3d</fix>
</trkpt>
<trkpt lat="33.810313" lon="-118.393867">
  <ele>-0.12</ele>
  <time>2026-09-02T22:07:10Z</time>
  <course>0.0</course>
  <speed>0.0</speed>
  <fix>3d</fix>
</trkpt>
<trkpt lat="33.810313" lon="-118.393867">
  <ele>-0.127</ele>
  <time>2026-09-02T22:07:10Z</time>
  <course>188.22</course>
  <speed>0.01414213562373095</speed>
  <fix>3d</fix>
</trkpt>
<trkpt lat="33.810313" lon="-118.393867">
  <ele>-0.12</ele>
  <time>2026-09-02T22:07:10Z</time>
  <course>0.0</course>
  <speed>0.0</speed>
  <fix>3d</fix>
</trkpt>
<trkpt lat="33.810313" lon="-118.393867">
  <ele>-0.128</ele>
  <time>2026-09-02T22:07:10Z</time>
  <course>188.21</course>
  <speed>0.01414213562373095</speed>
  <fix>3d</fix>
</trkpt>
<trkpt lat="33.810313" lon="-118.393867">
  <ele>-0.12</ele>
  <time>2026-09-02T22:07:10Z</time>
  <course>0.0</course>
  <speed>0.0</speed>
  <fix>3d</fix>
</trkpt>
<trkpt lat="33.810313" lon="-118.393867">
  <ele>-0.129</ele>
  <time>2026-09-02T22:07:10Z</time>
  <course>188.21</course>
  <speed>0.01414213562373095</speed>
  <fix>3d</fix>
</trkpt>
<trkpt lat="33.810313" lon="-118.393867">
  <ele>-0.12</ele>
  <time>2026-09-02T22:07:10Z</time>
  <course>0.0</course>
  <speed>0.0</speed>
  <fix>3d</fix>
</trkpt>
<trkpt lat="33.810313" lon="-118.393867">
  <ele>-0.129</ele>
  <time>2026-09-02T22:07:10Z</time>
  <course>188.2</course>
  <speed>0.01414213562373095</speed>
  <fix>3d</fix>
</trkpt>
<trkpt lat="33.810313" lon="-118.393867">
  <ele>-0.12</ele>
  <time>2026-09-02T22:07:10Z</time>
  <course>0.0</course>
  <speed>0.0</speed>
  <fix>3d</fix>
</trkpt>
<trkpt lat="33.810313" lon="-118.393867">
  <ele>-0.128</ele>
  <time>2026-09-02T22:07:10Z</time>
  <course>188.19</course>
  <speed>0.01414213562373095</speed>
  <fix>3d</fix>
</trkpt>
<trkpt lat="33.810313" lon="-118.393867">
  <ele>-0.12</ele>
  <time>2026-09-02T22:07:10Z</time>
  <course>0.0</course>
  <speed>0.0</speed>
  <fix>3d</fix>
</trkpt>
<trkpt lat="33.810313" lon="-118.393867">
  <ele>-0.128</ele>
  <time>2026-09-02T22:07:10Z</time>
  <course>188.18</course>
  <speed>0.01414213562373095</speed>
  <fix>3d</fix>
</trkpt>
<trkpt lat="33.810313" lon="-118.393867">
  <ele>-0.12</ele>
  <time>2026-09-02T22:07:10Z</time>
  <course>0.0</course>
  <speed>0.0</speed>
  <fix>3d</fix>
</trkpt>
<trkpt lat="33.810313" lon="-118.393867">
  <ele>-0.127</ele>
  <time>2026-09-02T22:07:10Z</time>
  <course>188.17</course>
  <speed>0.01414213562373095</speed>
  <fix>3d</fix>
</trkpt>
<trkpt lat="33.810313" lon="-118.393867">
  <ele>-0.12</ele>
  <time>2026-09-02T22:07:10Z</time>
  <course>0.0</course>
  <speed>0.0</speed>
  <fix>3d</fix>
</trkpt>
<trkpt lat="33.810313" lon="-118.393867">
  <ele>-0.127</ele>
  <time>2026-09-02T22:07:10Z</time>
  <course>188.16</course>
  <speed>0.01414213562373095</speed>
  <fix>3d</fix>
</trkpt>
<trkpt lat="33.810313" lon="-118.393867">
  <ele>-0.12</ele>
  <time>2026-09-02T22:07:10Z</time>
  <course>0.0</course>
  <speed>0.0</speed>
  <fix>3d</fix>
</trkpt>
<trkpt lat="33.810313" lon="-118.393867">
  <ele>-0.128</ele>
  <time>2026-09-02T22:07:10Z</time>
  <course>188.16</course>
  <speed>0.01414213562373095</speed>
  <fix>3d</fix>
</trkpt>
<trkpt lat="33.810313" lon="-118.393867">
  <ele>-0.12</ele>
  <time>2026-09-02T22:07:10Z</time>
  <course>0.0</course>
  <speed>0.0</speed>
  <fix>3d</fix>
</trkpt>
<trkpt lat="33.810313" lon="-118.393867">
  <ele>-0.129</ele>
  <time>2026-09-02T22:07:10Z</time>
  <course>188.15</course>
  <speed>0.01414213562373095</speed>
  <fix>3d</fix>
</trkpt>
<trkpt lat="33.810313" lon="-118.393867">
  <ele>-0.12</ele>
  <time>2026-09-02T22:07:10Z</time>
  <course>0.0</course>
  <speed>0.0</speed>
  <fix>3d</fix>
</trkpt>
<trkpt lat="33.810313" lon="-118.393867">
  <ele>-0.131</ele>
  <time>2026-09-02T22:07:10Z</time>
  <course>188.14</course>
  <speed>0.01414213562373095</speed>
  <fix>3d</fix>
</trkpt>
<trkpt lat="33.810313" lon="-118.393867">
  <ele>-0.12</ele>
  <time>2026-09-02T22:07:10Z</time>
  <course>0.0</course>
  <speed>0.0</speed>
  <fix>3d</fix>
</trkpt>
<trkpt lat="33.810313" lon="-118.393867">
  <ele>-0.133</ele>
  <time>2026-09-02T22:07:10Z</time>
  <course>188.13</course>
  <speed>0.01414213562373095</speed>
  <fix>3d</fix>
</trkpt>
<trkpt lat="33.810313" lon="-118.393867">
  <ele>-0.12</ele>
  <time>2026-09-02T22:07:10Z</time>
  <course>0.0</course>
  <speed>0.0</speed>
  <fix>3d</fix>
</trkpt>
<trkpt lat="33.810313" lon="-118.393867">
  <ele>-0.135</ele>
  <time>2026-09-02T22:07:10Z</time>
  <course>188.12</course>
  <speed>0.01414213562373095</speed>
  <fix>3d</fix>
</trkpt>
<trkpt lat="33.810313" lon="-118.393867">
  <ele>-0.12</ele>
  <time>2026-09-02T22:07:10Z</time>
  <course>0.0</course>
  <speed>0.0</speed>
  <fix>3d</fix>
</trkpt>
<trkpt lat="33.810313" lon="-118.393867">
  <ele>-0.136</ele>
  <time>2026-09-02T22:07:10Z</time>
  <course>188.12</course>
  <speed>0.01414213562373095</speed>
  <fix>3d</fix>
</trkpt>
<trkpt lat="33.810313" lon="-118.393867">
  <ele>-0.12</ele>
  <time>2026-09-02T22:07:10Z</time>
  <course>0.0</course>
  <speed>0.0</speed>
  <fix>3d</fix>
</trkpt>
<trkpt lat="33.810313" lon="-118.393867">
  <ele>-0.136</ele>
  <time>2026-09-02T22:07:10Z</time>
  <course>188.11</course>
  <speed>0.01414213562373095</speed>
  <fix>3d</fix>
</trkpt>
<trkpt lat="33.810313" lon="-118.393867">
  <ele>-0.12</ele>
  <time>2026-09-02T22:07:10Z</time>
  <course>0.0</course>
  <speed>0.0</speed>
  <fix>3d</fix>
</trkpt>
<trkpt lat="33.810313" lon="-118.393867">
  <ele>-0.136</ele>
  <time>2026-09-02T22:07:10Z</time>
  <course>188.1</course>
  <speed>0.01414213562373095</speed>
  <fix>3d</fix>
</trkpt>
<trkpt lat="33.810313" lon="-118.393867">
  <ele>-0.12</ele>
  <time>2026-09-02T22:07:10Z</time>
  <course>0.0</course>
  <speed>0.0</speed>
  <fix>3d</fix>
</trkpt>
<trkpt lat="33.810313" lon="-118.393867">
  <ele>-0.135</ele>
  <time>2026-09-02T22:07:10Z</time>
  <course>188.09</course>
  <speed>0.01414213562373095</speed>
  <fix>3d</fix>
</trkpt>
<trkpt lat="33.810313" lon="-118.393867">
  <ele>-0.12</ele>
  <time>2026-09-02T22:07:10Z</time>
  <course>0.0</course>
  <speed>0.0</speed>
  <fix>3d</fix>
</trkpt>
<trkpt lat="33.810313" lon="-118.393867">
  <ele>-0.134</ele>
  <time>2026-09-02T22:07:10Z</time>
  <course>188.08</course>
  <speed>0.01414213562373095</speed>
  <fix>3d</fix>
</trkpt>
<trkpt lat="33.810313" lon="-118.393867">
  <ele>-0.12</ele>
  <time>2026-09-02T22:07:10Z</time>
  <course>0.0</course>
  <speed>0.0</speed>
  <fix>3d</fix>
</trkpt>
<trkpt lat="33.810313" lon="-118.393867">
  <ele>-0.131</ele>
  <time>2026-09-02T22:07:10Z</time>
  <course>188.07</course>
  <speed>0.022360679774997897</speed>
  <fix>3d</fix>
</trkpt>
<trkpt lat="33.810313" lon="-118.393867">
  <ele>-0.12</ele>
  <time>2026-09-02T22:07:10Z</time>
  <course>0.0</course>
  <speed>0.0</speed>
  <fix>3d</fix>
</trkpt>
<trkpt lat="33.810313" lon="-118.393867">
  <ele>-0.128</ele>
  <time>2026-09-02T22:07:10Z</time>
  <course>188.07</course>
  <speed>0.022360679774997897</speed>
  <fix>3d</fix>
</trkpt>
<trkpt lat="33.810313" lon="-118.393867">
  <ele>-0.12</ele>
  <time>2026-09-02T22:07:10Z</time>
  <course>0.0</course>
  <speed>0.0</speed>
  <fix>3d</fix>
</trkpt>
<trkpt lat="33.810313" lon="-118.393867">
  <ele>-0.127</ele>
  <time>2026-09-02T22:07:10Z</time>
  <course>188.06</course>
  <speed>0.022360679774997897</speed>
  <fix>3d</fix>
</trkpt>
<trkpt lat="33.810313" lon="-118.393867">
  <ele>-0.12</ele>
  <time>2026-09-02T22:07:10Z</time>
  <course>0.0</course>
  <speed>0.0</speed>
  <fix>3d</fix>
</trkpt>
<trkpt lat="33.810313" lon="-118.393867">
  <ele>-0.126</ele>
  <time>2026-09-02T22:07:10Z</time>
  <course>188.05</course>
  <speed>0.022360679774997897</speed>
  <fix>3d</fix>
</trkpt>
<trkpt lat="33.810313" lon="-118.393867">
  <ele>-0.12</ele>
  <time>2026-09-02T22:07:10Z</time>
  <course>0.0</course>
  <speed>0.0</speed>
  <fix>3d</fix>
</trkpt>
<trkpt lat="33.810313" lon="-118.393867">
  <ele>-0.126</ele>
  <time>2026-09-02T22:07:10Z</time>
  <course>188.04</course>
  <speed>0.022360679774997897</speed>
  <fix>3d</fix>
</trkpt>
<trkpt lat="33.810313" lon="-118.393867">
  <ele>-0.12</ele>
  <time>2026-09-02T22:07:10Z</time>
  <course>0.0</course>
  <speed>0.0</speed>
  <fix>3d</fix>
</trkpt>
<trkpt lat="33.810313" lon="-118.393867">
  <ele>-0.127</ele>
  <time>2026-09-02T22:07:10Z</time>
  <course>188.03</course>
  <speed>0.022360679774997897</speed>
  <fix>3d</fix>
</trkpt>
<trkpt lat="33.810313" lon="-118.393867">
  <ele>-0.12</ele>
  <time>2026-09-02T22:07:10Z</time>
  <course>0.0</course>
  <speed>0.0</speed>
  <fix>3d</fix>
</trkpt>
<trkpt lat="33.810313" lon="-118.393867">
  <ele>-0.127</ele>
  <time>2026-09-02T22:07:10Z</time>
  <course>188.03</course>
  <speed>0.022360679774997897</speed>
  <fix>3d</fix>
</trkpt>
<trkpt lat="33.810313" lon="-118.393867">
  <ele>-0.12</ele>
  <time>2026-09-02T22:07:10Z</time>
  <course>0.0</course>
  <speed>0.0</speed>
  <fix>3d</fix>
</trkpt>
<trkpt lat="33.810313" lon="-118.393867">
  <ele>-0.127</ele>
  <time>2026-09-02T22:07:10Z</time>
  <course>188.02</course>
  <speed>0.022360679774997897</speed>
  <fix>3d</fix>
</trkpt>
<trkpt lat="33.810313" lon="-118.393867">
  <ele>-0.12</ele>
  <time>2026-09-02T22:07:10Z</time>
  <course>0.0</course>
  <speed>0.0</speed>
  <fix>3d</fix>
</trkpt>
<trkpt lat="33.810313" lon="-118.393867">
  <ele>-0.128</ele>
  <time>2026-09-02T22:07:10Z</time>
  <course>188.01</course>
  <speed>0.022360679774997897</speed>
  <fix>3d</fix>
</trkpt>
<trkpt lat="33.810313" lon="-118.393867">
  <ele>-0.12</ele>
  <time>2026-09-02T22:07:10Z</time>
  <course>0.0</course>
  <speed>0.0</speed>
  <fix>3d</fix>
</trkpt>
<trkpt lat="33.810313" lon="-118.393867">
  <ele>-0.128</ele>
  <time>2026-09-02T22:07:10Z</time>
  <course>188.0</course>
  <speed>0.022360679774997897</speed>
  <fix>3d</fix>
</trkpt>
<trkpt lat="33.810313" lon="-118.393867">
  <ele>-0.12</ele>
  <time>2026-09-02T22:07:10Z</time>
  <course>0.0</course>
  <speed>0.0</speed>
  <fix>3d</fix>
</trkpt>
<trkpt lat="33.810313" lon="-118.393867">
  <ele>-0.128</ele>
  <time>2026-09-02T22:07:10Z</time>
  <course>187.99</course>
  <speed>0.022360679774997897</speed>
  <fix>3d</fix>
</trkpt>
<trkpt lat="33.810313" lon="-118.393867">
  <ele>-0.12</ele>
  <time>2026-09-02T22:07:10Z</time>
  <course>0.0</course>
  <speed>0.0</speed>
  <fix>3d</fix>
</trkpt>
<trkpt lat="33.810313" lon="-118.393867">
  <ele>-0.126</ele>
  <time>2026-09-02T22:07:10Z</time>
  <course>187.99</course>
  <speed>0.022360679774997897</speed>
  <fix>3d</fix>
</trkpt>
<trkpt lat="33.810313" lon="-118.393867">
  <ele>-0.12</ele>
  <time>2026-09-02T22:07:10Z</time>
  <course>0.0</course>
  <speed>0.0</speed>
  <fix>3d</fix>
</trkpt>
<trkpt lat="33.810313" lon="-118.393867">
  <ele>-0.124</ele>
  <time>2026-09-02T22:07:10Z</time>
  <course>187.98</course>
  <speed>0.022360679774997897</speed>
  <fix>3d</fix>
</trkpt>
<trkpt lat="33.810313" lon="-118.393867">
  <ele>-0.12</ele>
  <time>2026-09-02T22:07:10Z</time>
  <course>0.0</course>
  <speed>0.0</speed>
  <fix>3d</fix>
</trkpt>
<trkpt lat="33.810313" lon="-118.393867">
  <ele>-0.122</ele>
  <time>2026-09-02T22:07:10Z</time>
  <course>187.97</course>
  <speed>0.022360679774997897</speed>
  <fix>3d</fix>
</trkpt>
<trkpt lat="33.810313" lon="-118.393867">
  <ele>-0.12</ele>
  <time>2026-09-02T22:07:10Z</time>
  <course>0.0</course>
  <speed>0.0</speed>
  <fix>3d</fix>
</trkpt>
<trkpt lat="33.810313" lon="-118.393867">
  <ele>-0.12</ele>
  <time>2026-09-02T22:07:10Z</time>
  <course>187.96</course>
  <speed>0.022360679774997897</speed>
  <fix>3d</fix>
</trkpt>
<trkpt lat="33.810313" lon="-118.393867">
  <ele>-0.12</ele>
  <time>2026-09-02T22:07:10Z</time>
  <course>0.0</course>
  <speed>0.0</speed>
  <fix>3d</fix>
</trkpt>
<trkpt lat="33.810313" lon="-118.393867">
  <ele>-0.12</ele>
  <time>2026-09-02T22:07:10Z</time>
  <course>187.95</course>
  <speed>0.022360679774997897</speed>
  <fix>3d</fix>
</trkpt>
<trkpt lat="33.810313" lon="-118.393867">
  <ele>-0.12</ele>
  <time>2026-09-02T22:07:10Z</time>
  <course>0.0</course>
  <speed>0.0</speed>
  <fix>3d</fix>
</trkpt>
<trkpt lat="33.810313" lon="-118.393867">
  <ele>-0.122</ele>
  <time>2026-09-02T22:07:10Z</time>
  <course>187.94</course>
  <speed>0.022360679774997897</speed>
  <fix>3d</fix>
</trkpt>
<trkpt lat="33.810313" lon="-118.393867">
  <ele>-0.12</ele>
  <time>2026-09-02T22:07:10Z</time>
  <course>0.0</course>
  <speed>0.0</speed>
  <fix>3d</fix>
</trkpt>
<trkpt lat="33.810313" lon="-118.393867">
  <ele>-0.125</ele>
  <time>2026-09-02T22:07:10Z</time>
  <course>187.94</course>
  <speed>0.022360679774997897</speed>
  <fix>3d</fix>
</trkpt>
<trkpt lat="33.810313" lon="-118.393867">
  <ele>-0.12</ele>
  <time>2026-09-02T22:07:10Z</time>
  <course>0.0</course>
  <speed>0.0</speed>
  <fix>3d</fix>
</trkpt>
<trkpt lat="33.810313" lon="-118.393867">
  <ele>-0.128</ele>
  <time>2026-09-02T22:07:10Z</time>
  <course>187.93</course>
  <speed>0.022360679774997897</speed>
  <fix>3d</fix>
</trkpt>
<trkpt lat="33.810313" lon="-118.393867">
  <ele>-0.12</ele>
  <time>2026-09-02T22:07:10Z</time>
  <course>0.0</course>
  <speed>0.0</speed>
  <fix>3d</fix>
</trkpt>
<trkpt lat="33.810313" lon="-118.393867">
  <ele>-0.131</ele>
  <time>2026-09-02T22:07:10Z</time>
  <course>187.92</course>
  <speed>0.022360679774997897</speed>
  <fix>3d</fix>
</trkpt>
<trkpt lat="33.810313" lon="-118.393867">
  <ele>-0.12</ele>
  <time>2026-09-02T22:07:10Z</time>
  <course>0.0</course>
  <speed>0.0</speed>
  <fix>3d</fix>
</trkpt>
<trkpt lat="33.810313" lon="-118.393867">
  <ele>-0.132</ele>
  <time>2026-09-02T22:07:10Z</time>
  <course>187.91</course>
  <speed>0.022360679774997897</speed>
  <fix>3d</fix>
</trkpt>
<trkpt lat="33.810313" lon="-118.393867">
  <ele>-0.12</ele>
  <time>2026-09-02T22:07:10Z</time>
  <course>0.0</course>
  <speed>0.0</speed>
  <fix>3d</fix>
</trkpt>
<trkpt lat="33.810313" lon="-118.393867">
  <ele>-0.132</ele>
  <time>2026-09-02T22:07:10Z</time>
  <course>187.91</course>
  <speed>0.022360679774997897</speed>
  <fix>3d</fix>
</trkpt>
<trkpt lat="33.810313" lon="-118.393867">
  <ele>-0.12</ele>
  <time>2026-09-02T22:07:10Z</time>
  <course>0.0</course>
  <speed>0.0</speed>
  <fix>3d</fix>
</trkpt>
<trkpt lat="33.810313" lon="-118.393867">
  <ele>-0.132</ele>
  <time>2026-09-02T22:07:10Z</time>
  <course>187.9</course>
  <speed>0.022360679774997897</speed>
  <fix>3d</fix>
</trkpt>
<trkpt lat="33.810313" lon="-118.393867">
  <ele>-0.12</ele>
  <time>2026-09-02T22:07:10Z</time>
  <course>0.0</course>
  <speed>0.0</speed>
  <fix>3d</fix>
</trkpt>
<trkpt lat="33.810313" lon="-118.393867">
  <ele>-0.13</ele>
  <time>2026-09-02T22:07:10Z</time>
  <course>187.89</course>
  <speed>0.022360679774997897</speed>
  <fix>3d</fix>
</trkpt>
<trkpt lat="33.810313" lon="-118.393867">
  <ele>-0.12</ele>
  <time>2026-09-02T22:07:10Z</time>
  <course>0.0</course>
  <speed>0.0</speed>
  <fix>3d</fix>
</trkpt>
<trkpt lat="33.810313" lon="-118.393867">
  <ele>-0.127</ele>
  <time>2026-09-02T22:07:10Z</time>
  <course>187.88</course>
  <speed>0.022360679774997897</speed>
  <fix>3d</fix>
</trkpt>
<trkpt lat="33.810313" lon="-118.393867">
  <ele>-0.12</ele>
  <time>2026-09-02T22:07:10Z</time>
  <course>0.0</course>
  <speed>0.0</speed>
  <fix>3d</fix>
</trkpt>
<trkpt lat="33.810313" lon="-118.393867">
  <ele>-0.123</ele>
  <time>2026-09-02T22:07:10Z</time>
  <course>187.87</course>
  <speed>0.022360679774997897</speed>
  <fix>3d</fix>
</trkpt>
<trkpt lat="33.810313" lon="-118.393867">
  <ele>-0.12</ele>
  <time>2026-09-02T22:07:10Z</time>
  <course>0.0</course>
  <speed>0.0</speed>
  <fix>3d</fix>
</trkpt>
<trkpt lat="33.810313" lon="-118.393867">
  <ele>-0.121</ele>
  <time>2026-09-02T22:07:10Z</time>
  <course>187.87</course>
  <speed>0.022360679774997897</speed>
  <fix>3d</fix>
</trkpt>
<trkpt lat="33.810313" lon="-118.393867">
  <ele>-0.12</ele>
  <time>2026-09-02T22:07:10Z</time>
  <course>0.0</course>
  <speed>0.0</speed>
  <fix>3d</fix>
</trkpt>
<trkpt lat="33.810313" lon="-118.393867">
  <ele>-0.121</ele>
  <time>2026-09-02T22:07:10Z</time>
  <course>187.86</course>
  <speed>0.022360679774997897</speed>
  <fix>3d</fix>
</trkpt>
<trkpt lat="33.810313" lon="-118.393867">
  <ele>-0.12</ele>
  <time>2026-09-02T22:07:10Z</time>
  <course>0.0</course>
  <speed>0.0</speed>
  <fix>3d</fix>
</trkpt>
<trkpt lat="33.810313" lon="-118.393867">
  <ele>-0.123</ele>
  <time>2026-09-02T22:07:10Z</time>
  <course>187.85</course>
  <speed>0.022360679774997897</speed>
  <fix>3d</fix>
</trkpt>
<trkpt lat="33.810313" lon="-118.393867">
  <ele>-0.12</ele>
  <time>2026-09-02T22:07:10Z</time>
  <course>0.0</course>
  <speed>0.0</speed>
  <fix>3d</fix>
</trkpt>
<trkpt lat="33.810313" lon="-118.393867">
  <ele>-0.124</ele>
  <time>2026-09-02T22:07:10Z</time>
  <course>187.84</course>
  <speed>0.022360679774997897</speed>
  <fix>3d</fix>
</trkpt>
<trkpt lat="33.810313" lon="-118.393867">
  <ele>-0.12</ele>
  <time>2026-09-02T22:07:10Z</time>
  <course>0.0</course>
  <speed>0.0</speed>
  <fix>3d</fix>
</trkpt>
<trkpt lat="33.810313" lon="-118.393867">
  <ele>-0.126</ele>
  <time>2026-09-02T22:07:10Z</time>
  <course>187.83</course>
  <speed>0.022360679774997897</speed>
  <fix>3d</fix>
</trkpt>
<trkpt lat="33.810313" lon="-118.393867">
  <ele>-0.12</ele>
  <time>2026-09-02T22:07:10Z</time>
  <course>0.0</course>
  <speed>0.0</speed>
  <fix>3d</fix>
</trkpt>
<trkpt lat="33.810313" lon="-118.393867">
  <ele>-0.127</ele>
  <time>2026-09-02T22:07:10Z</time>
  <course>187.83</course>
  <speed>0.022360679774997897</speed>
  <fix>3d</fix>
</trkpt>
<trkpt lat="33.810313" lon="-118.393867">
  <ele>-0.12</ele>
  <time>2026-09-02T22:07:10Z</time>
  <course>0.0</course>
  <speed>0.0</speed>
  <fix>3d</fix>
</trkpt>
<trkpt lat="33.810313" lon="-118.393867">
  <ele>-0.127</ele>
  <time>2026-09-02T22:07:10Z</time>
  <course>187.82</course>
  <speed>0.022360679774997897</speed>
  <fix>3d</fix>
</trkpt>
<trkpt lat="33.810313" lon="-118.393867">
  <ele>-0.12</ele>
  <time>2026-09-02T22:07:10Z</time>
  <course>0.0</course>
  <speed>0.0</speed>
  <fix>3d</fix>
</trkpt>
<trkpt lat="33.810313" lon="-118.393867">
  <ele>-0.127</ele>
  <time>2026-09-02T22:07:10Z</time>
  <course>187.81</course>
  <speed>0.022360679774997897</speed>
  <fix>3d</fix>
</trkpt>
<trkpt lat="33.810313" lon="-118.393867">
  <ele>-0.12</ele>
  <time>2026-09-02T22:07:10Z</time>
  <course>0.0</course>
  <speed>0.0</speed>
  <fix>3d</fix>
</trkpt>
<trkpt lat="33.810313" lon="-118.393867">
  <ele>-0.126</ele>
  <time>2026-09-02T22:07:10Z</time>
  <course>187.8</course>
  <speed>0.022360679774997897</speed>
  <fix>3d</fix>
</trkpt>
<trkpt lat="33.810313" lon="-118.393867">
  <ele>-0.12</ele>
  <time>2026-09-02T22:07:10Z</time>
  <course>0.0</course>
  <speed>0.0</speed>
  <fix>3d</fix>
</trkpt>
<trkpt lat="33.810313" lon="-118.393867">
  <ele>-0.124</ele>
  <time>2026-09-02T22:07:10Z</time>
  <course>187.8</course>
  <speed>0.022360679774997897</speed>
  <fix>3d</fix>
</trkpt>
<trkpt lat="33.810313" lon="-118.393867">
  <ele>-0.12</ele>
  <time>2026-09-02T22:07:10Z</time>
  <course>0.0</course>
  <speed>0.0</speed>
  <fix>3d</fix>
</trkpt>
<trkpt lat="33.810313" lon="-118.393867">
  <ele>-0.121</ele>
  <time>2026-09-02T22:07:10Z</time>
  <course>187.79</course>
  <speed>0.022360679774997897</speed>
  <fix>3d</fix>
</trkpt>
<trkpt lat="33.810313" lon="-118.393867">
  <ele>-0.12</ele>
  <time>2026-09-02T22:07:10Z</time>
  <course>0.0</course>
  <speed>0.0</speed>
  <fix>3d</fix>
</trkpt>
<trkpt lat="33.810313" lon="-118.393867">
  <ele>-0.119</ele>
  <time>2026-09-02T22:07:10Z</time>
  <course>187.78</course>
  <speed>0.022360679774997897</speed>
  <fix>3d</fix>
</trkpt>
<trkpt lat="33.810313" lon="-118.393867">
  <ele>-0.12</ele>
  <time>2026-09-02T22:07:10Z</time>
  <course>0.0</course>
  <speed>0.0</speed>
  <fix>3d</fix>
</trkpt>
<trkpt lat="33.810313" lon="-118.393867">
  <ele>-0.118</ele>
  <time>2026-09-02T22:07:10Z</time>
  <course>187.77</course>
  <speed>0.022360679774997897</speed>
  <fix>3d</fix>
</trkpt>
<trkpt lat="33.810313" lon="-118.393867">
  <ele>-0.12</ele>
  <time>2026-09-02T22:07:10Z</time>
  <course>0.0</course>
  <speed>0.0</speed>
  <fix>3d</fix>
</trkpt>
<trkpt lat="33.810313" lon="-118.393867">
  <ele>-0.118</ele>
  <time>2026-09-02T22:07:10Z</time>
  <course>187.77</course>
  <speed>0.022360679774997897</speed>
  <fix>3d</fix>
</trkpt>
<trkpt lat="33.810313" lon="-118.393867">
  <ele>-0.12</ele>
  <time>2026-09-02T22:07:10Z</time>
  <course>0.0</course>
  <speed>0.0</speed>
  <fix>3d</fix>
</trkpt>
<trkpt lat="33.810313" lon="-118.393867">
  <ele>-0.119</ele>
  <time>2026-09-02T22:07:10Z</time>
  <course>187.76</course>
  <speed>0.022360679774997897</speed>
  <fix>3d</fix>
</trkpt>
<trkpt lat="33.810313" lon="-118.393867">
  <ele>-0.12</ele>
  <time>2026-09-02T22:07:10Z</time>
  <course>0.0</course>
  <speed>0.0</speed>
  <fix>3d</fix>
</trkpt>
<trkpt lat="33.810313" lon="-118.393867">
  <ele>-0.12</ele>
  <time>2026-09-02T22:07:10Z</time>
  <course>187.75</course>
  <speed>0.022360679774997897</speed>
  <fix>3d</fix>
</trkpt>
<trkpt lat="33.810313" lon="-118.393867">
  <ele>-0.12</ele>
  <time>2026-09-02T22:07:10Z</time>
  <course>0.0</course>
  <speed>0.0</speed>
  <fix>3d</fix>
</trkpt>
<trkpt lat="33.810313" lon="-118.393867">
  <ele>-0.12</ele>
  <time>2026-09-02T22:07:10Z</time>
  <course>187.74</course>
  <speed>0.0282842712474619</speed>
  <fix>3d</fix>
</trkpt>
<trkpt lat="33.810313" lon="-118.393867">
  <ele>-0.12</ele>
  <time>2026-09-02T22:07:10Z</time>
  <course>0.0</course>
  <speed>0.0</speed>
  <fix>3d</fix>
</trkpt>
<trkpt lat="33.810313" lon="-118.393867">
  <ele>-0.12</ele>
  <time>2026-09-02T22:07:10Z</time>
  <course>187.74</course>
  <speed>0.0282842712474619</speed>
  <fix>3d</fix>
</trkpt>
<trkpt lat="33.810313" lon="-118.393867">
  <ele>-0.12</ele>
  <time>2026-09-02T22:07:10Z</time>
  <course>0.0</course>
  <speed>0.0</speed>
  <fix>3d</fix>
</trkpt>
<trkpt lat="33.810313" lon="-118.393867">
  <ele>-0.119</ele>
  <time>2026-09-02T22:07:10Z</time>
  <course>187.73</course>
  <speed>0.0282842712474619</speed>
  <fix>3d</fix>
</trkpt>
<trkpt lat="33.810313" lon="-118.393867">
  <ele>-0.12</ele>
  <time>2026-09-02T22:07:10Z</time>
  <course>0.0</course>
  <speed>0.0</speed>
  <fix>3d</fix>
</trkpt>
<trkpt lat="33.810313" lon="-118.393867">
  <ele>-0.118</ele>
  <time>2026-09-02T22:07:10Z</time>
  <course>187.72</course>
  <speed>0.0282842712474619</speed>
  <fix>3d</fix>
</trkpt>
<trkpt lat="33.810313" lon="-118.393867">
  <ele>-0.12</ele>
  <time>2026-09-02T22:07:10Z</time>
  <course>0.0</course>
  <speed>0.0</speed>
  <fix>3d</fix>
</trkpt>
<trkpt lat="33.810313" lon="-118.393867">
  <ele>-0.116</ele>
  <time>2026-09-02T22:07:10Z</time>
  <course>187.71</course>
  <speed>0.0282842712474619</speed>
  <fix>3d</fix>
</trkpt>
<trkpt lat="33.810313" lon="-118.393867">
  <ele>-0.12</ele>
  <time>2026-09-02T22:07:10Z</time>
  <course>0.0</course>
  <speed>0.0</speed>
  <fix>3d</fix>
</trkpt>
<trkpt lat="33.810313" lon="-118.393867">
  <ele>-0.114</ele>
  <time>2026-09-02T22:07:10Z</time>
  <course>187.71</course>
  <speed>0.0282842712474619</speed>
  <fix>3d</fix>
</trkpt>
<trkpt lat="33.810313" lon="-118.393867">
  <ele>-0.12</ele>
  <time>2026-09-02T22:07:10Z</time>
  <course>0.0</course>
  <speed>0.0</speed>
  <fix>3d</fix>
</trkpt>
<trkpt lat="33.810313" lon="-118.393867">
  <ele>-0.112</ele>
  <time>2026-09-02T22:07:10Z</time>
  <course>187.7</course>
  <speed>0.0282842712474619</speed>
  <fix>3d</fix>
</trkpt>
<trkpt lat="33.810313" lon="-118.393867">
  <ele>-0.12</ele>
  <time>2026-09-02T22:07:10Z</time>
  <course>0.0</course>
  <speed>0.0</speed>
  <fix>3d</fix>
</trkpt>
<trkpt lat="33.810313" lon="-118.393867">
  <ele>-0.113</ele>
  <time>2026-09-02T22:07:10Z</time>
  <course>187.69</course>
  <speed>0.0282842712474619</speed>
  <fix>3d</fix>
</trkpt>
<trkpt lat="33.810313" lon="-118.393867">
  <ele>-0.12</ele>
  <time>2026-09-02T22:07:10Z</time>
  <course>0.0</course>
  <speed>0.0</speed>
  <fix>3d</fix>
</trkpt>
<trkpt lat="33.810313" lon="-118.393867">
  <ele>-0.115</ele>
  <time>2026-09-02T22:07:10Z</time>
  <course>187.69</course>
  <speed>0.0282842712474619</speed>
  <fix>3d</fix>
</trkpt>
<trkpt lat="33.810313" lon="-118.393867">
  <ele>-0.12</ele>
  <time>2026-09-02T22:07:10Z</time>
  <course>0.0</course>
  <speed>0.0</speed>
  <fix>3d</fix>
</trkpt>
<trkpt lat="33.810313" lon="-118.393867">
  <ele>-0.119</ele>
  <time>2026-09-02T22:07:10Z</time>
  <course>187.68</course>
  <speed>0.0282842712474619</speed>
  <fix>3d</fix>
</trkpt>
<trkpt lat="33.810313" lon="-118.393867">
  <ele>-0.12</ele>
  <time>2026-09-02T22:07:10Z</time>
  <course>0.0</course>
  <speed>0.0</speed>
  <fix>3d</fix>
</trkpt>
<trkpt lat="33.810313" lon="-118.393867">
  <ele>-0.123</ele>
  <time>2026-09-02T22:07:10Z</time>
  <course>187.67</course>
  <speed>0.0282842712474619</speed>
  <fix>3d</fix>
</trkpt>
<trkpt lat="33.810313" lon="-118.393867">
  <ele>-0.12</ele>
  <time>2026-09-02T22:07:10Z</time>
  <course>0.0</course>
  <speed>0.0</speed>
  <fix>3d</fix>
</trkpt>
<trkpt lat="33.810313" lon="-118.393867">
  <ele>-0.128</ele>
  <time>2026-09-02T22:07:10Z</time>
  <course>187.66</course>
  <speed>0.0282842712474619</speed>
  <fix>3d</fix>
</trkpt>
<trkpt lat="33.810313" lon="-118.393867">
  <ele>-0.12</ele>
  <time>2026-09-02T22:07:10Z</time>
  <course>0.0</course>
  <speed>0.0</speed>
  <fix>3d</fix>
</trkpt>
<trkpt lat="33.810313" lon="-118.393867">
  <ele>-0.132</ele>
  <time>2026-09-02T22:07:10Z</time>
  <course>187.66</course>
  <speed>0.0282842712474619</speed>
  <fix>3d</fix>
</trkpt>
<trkpt lat="33.810313" lon="-118.393867">
  <ele>-0.12</ele>
  <time>2026-09-02T22:07:10Z</time>
  <course>0.0</course>
  <speed>0.0</speed>
  <fix>3d</fix>
</trkpt>
<trkpt lat="33.810313" lon="-118.393867">
  <ele>-0.134</ele>
  <time>2026-09-02T22:07:10Z</time>
  <course>187.65</course>
  <speed>0.0282842712474619</speed>
  <fix>3d</fix>
</trkpt>
<trkpt lat="33.810313" lon="-118.393867">
  <ele>-0.12</ele>
  <time>2026-09-02T22:07:10Z</time>
  <course>0.0</course>
  <speed>0.0</speed>
  <fix>3d</fix>
</trkpt>
<trkpt lat="33.810313" lon="-118.393867">
  <ele>-0.135</ele>
  <time>2026-09-02T22:07:10Z</time>
  <course>187.64</course>
  <speed>0.0282842712474619</speed>
  <fix>3d</fix>
</trkpt>
<trkpt lat="33.810313" lon="-118.393867">
  <ele>-0.12</ele>
  <time>2026-09-02T22:07:10Z</time>
  <course>0.0</course>
  <speed>0.0</speed>
  <fix>3d</fix>
</trkpt>
<trkpt lat="33.810313" lon="-118.393867">
  <ele>-0.135</ele>
  <time>2026-09-02T22:07:10Z</time>
  <course>187.64</course>
  <speed>0.0282842712474619</speed>
  <fix>3d</fix>
</trkpt>
<trkpt lat="33.810313" lon="-118.393867">
  <ele>-0.12</ele>
  <time>2026-09-02T22:07:10Z</time>
  <course>0.0</course>
  <speed>0.0</speed>
  <fix>3d</fix>
</trkpt>
<trkpt lat="33.810313" lon="-118.393867">
  <ele>-0.133</ele>
  <time>2026-09-02T22:07:10Z</time>
  <course>187.63</course>
  <speed>0.0282842712474619</speed>
  <fix>3d</fix>
</trkpt>
<trkpt lat="33.810313" lon="-118.393867">
  <ele>-0.12</ele>
  <time>2026-09-02T22:07:10Z</time>
  <course>0.0</course>
  <speed>0.0</speed>
  <fix>3d</fix>
</trkpt>
<trkpt lat="33.810313" lon="-118.393867">
  <ele>-0.132</ele>
  <time>2026-09-02T22:07:10Z</time>
  <course>187.63</course>
  <speed>0.0282842712474619</speed>
  <fix>3d</fix>
</trkpt>
<trkpt lat="33.810313" lon="-118.393867">
  <ele>-0.12</ele>
  <time>2026-09-02T22:07:10Z</time>
  <course>0.0</course>
  <speed>0.0</speed>
  <fix>3d</fix>
</trkpt>
<trkpt lat="33.4368002" lon="-117.0859339">
  <ele>-0.11</ele>
  <time>2026-09-02T22:07:10Z</time>
  <course>0.0</course>
  <speed>0.0</speed>
  <fix>3d</fix>
</trkpt>
<trkpt lat="33.4368002" lon="-117.0859339">
  <ele>-0.11</ele>
  <time>2026-09-02T22:07:10Z</time>
  <course>0.0</course>
  <speed>0.0</speed>
  <fix>3d</fix>
</trkpt>
<trkpt lat="33.810313" lon="-118.393867">
  <ele>0.0</ele>
  <time>2026-09-02T22:07:10Z</time>
  <course>173.5</course>
  <speed>0.0</speed>
  <fix>3d</fix>
</trkpt>
<trkpt lat="33.810313" lon="-118.393867">
  <ele>-0.11</ele>
  <time>2026-09-02T22:07:10Z</time>
  <course>0.0</course>
  <speed>0.0</speed>
  <fix>3d</fix>
</trkpt>
<trkpt lat="33.810313" lon="-118.393867">
  <ele>0.0</ele>
  <time>2026-09-02T22:07:10Z</time>
  <course>173.61</course>
  <speed>0.0</speed>
  <fix>3d</fix>
</trkpt>
<trkpt lat="33.810313" lon="-118.393867">
  <ele>-0.11</ele>
  <time>2026-09-02T22:07:10Z</time>
  <course>0.0</course>
  <speed>0.0</speed>
  <fix>3d</fix>
</trkpt>
<trkpt lat="33.810313" lon="-118.393867">
  <ele>0.0</ele>
  <time>2026-09-02T22:07:10Z</time>
  <course>173.98</course>
  <speed>0.0</speed>
  <fix>3d</fix>
</trkpt>
<trkpt lat="33.810313" lon="-118.393867">
  <ele>-0.11</ele>
  <time>2026-09-02T22:07:10Z</time>
  <course>0.0</course>
  <speed>0.0</speed>
  <fix>3d</fix>
</trkpt>
<trkpt lat="33.810313" lon="-118.393867">
  <ele>0.0</ele>
  <time>2026-09-02T22:07:10Z</time>
  <course>174.51</course>
  <speed>0.0</speed>
  <fix>3d</fix>
</trkpt>
<trkpt lat="33.810313" lon="-118.393867">
  <ele>-0.11</ele>
  <time>2026-09-02T22:07:10Z</time>
  <course>0.0</course>
  <speed>0.0</speed>
  <fix>3d</fix>
</trkpt>
<trkpt lat="33.810313" lon="-118.393867">
  <ele>0.0</ele>
  <time>2026-09-02T22:07:10Z</time>
  <course>175.07</course>
  <speed>0.0</speed>
  <fix>3d</fix>
</trkpt>
<trkpt lat="33.810313" lon="-118.393867">
  <ele>-0.12</ele>
  <time>2026-09-02T22:07:10Z</time>
  <course>0.0</course>
  <speed>0.0</speed>
  <fix>3d</fix>
</trkpt>
<trkpt lat="33.810313" lon="-118.393867">
  <ele>0.0</ele>
  <time>2026-09-02T22:07:10Z</time>
  <course>175.61</course>
  <speed>0.0</speed>
  <fix>3d</fix>
</trkpt>
<trkpt lat="33.810313" lon="-118.393867">
  <ele>-0.12</ele>
  <time>2026-09-02T22:07:10Z</time>
  <course>0.0</course>
  <speed>0.0</speed>
  <fix>3d</fix>
</trkpt>
<trkpt lat="33.810313" lon="-118.393867">
  <ele>0.0</ele>
  <time>2026-09-02T22:07:10Z</time>
  <course>176.12</course>
  <speed>0.0</speed>
  <fix>3d</fix>
</trkpt>
<trkpt lat="33.810313" lon="-118.393867">
  <ele>-0.13</ele>
  <time>2026-09-02T22:07:10Z</time>
  <course>0.0</course>
  <speed>0.0</speed>
  <fix>3d</fix>
</trkpt>
<trkpt lat="33.810313" lon="-118.393867">
  <ele>0.0</ele>
  <time>2026-09-02T22:07:10Z</time>
  <course>176.6</course>
  <speed>0.0</speed>
  <fix>3d</fix>
</trkpt>
<trkpt lat="33.810313" lon="-118.393867">
  <ele>-0.13</ele>
  <time>2026-09-02T22:07:10Z</time>
  <course>0.0</course>
  <speed>0.0</speed>
  <fix>3d</fix>
</trkpt>
<trkpt lat="33.810313" lon="-118.393867">
  <ele>0.0</ele>
  <time>2026-09-02T22:07:10Z</time>
  <course>177.07</course>
  <speed>0.0</speed>
  <fix>3d</fix>
</trkpt>
<trkpt lat="33.810313" lon="-118.393867">
  <ele>-0.13</ele>
  <time>2026-09-02T22:07:10Z</time>
  <course>0.0</course>
  <speed>0.0</speed>
  <fix>3d</fix>
</trkpt>
<trkpt lat="33.810313" lon="-118.393867">
  <ele>0.0</ele>
  <time>2026-09-02T22:07:10Z</time>
  <course>177.53</course>
  <speed>0.0</speed>
  <fix>3d</fix>
</trkpt>
<trkpt lat="33.810313" lon="-118.393867">
  <ele>-0.13</ele>
  <time>2026-09-02T22:07:10Z</time>
  <course>0.0</course>
  <speed>0.0</speed>
  <fix>3d</fix>
</trkpt>
<trkpt lat="33.810313" lon="-118.393867">
  <ele>0.0</ele>
  <time>2026-09-02T22:07:10Z</time>
  <course>177.97</course>
  <speed>0.0</speed>
  <fix>3d</fix>
</trkpt>
<trkpt lat="33.810313" lon="-118.393867">
  <ele>-0.14</ele>
  <time>2026-09-02T22:07:10Z</time>
  <course>0.0</course>
  <speed>0.0</speed>
  <fix>3d</fix>
</trkpt>
<trkpt lat="33.810313" lon="-118.393867">
  <ele>0.0</ele>
  <time>2026-09-02T22:07:10Z</time>
  <course>178.4</course>
  <speed>0.0</speed>
  <fix>3d</fix>
</trkpt>
<trkpt lat="33.810313" lon="-118.393867">
  <ele>-0.14</ele>
  <time>2026-09-02T22:07:10Z</time>
  <course>0.0</course>
  <speed>0.0</speed>
  <fix>3d</fix>
</trkpt>
<trkpt lat="33.810313" lon="-118.393867">
  <ele>0.0</ele>
  <time>2026-09-02T22:07:10Z</time>
  <course>178.83</course>
  <speed>0.0</speed>
  <fix>3d</fix>
</trkpt>
<trkpt lat="33.810313" lon="-118.393867">
  <ele>-0.14</ele>
  <time>2026-09-02T22:07:10Z</time>
  <course>0.0</course>
  <speed>0.0</speed>
  <fix>3d</fix>
</trkpt>
<trkpt lat="33.810313" lon="-118.393867">
  <ele>0.0</ele>
  <time>2026-09-02T22:07:10Z</time>
  <course>179.23</course>
  <speed>0.0</speed>
  <fix>3d</fix>
</trkpt>
<trkpt lat="33.810313" lon="-118.393867">
  <ele>-0.14</ele>
  <time>2026-09-02T22:07:10Z</time>
  <course>0.0</course>
  <speed>0.0</speed>
  <fix>3d</fix>
</trkpt>
<trkpt lat="33.810313" lon="-118.393867">
  <ele>0.0</ele>
  <time>2026-09-02T22:07:10Z</time>
  <course>179.62</course>
  <speed>0.0</speed>
  <fix>3d</fix>
</trkpt>
<trkpt lat="33.810313" lon="-118.393867">
  <ele>-0.14</ele>
  <time>2026-09-02T22:07:10Z</time>
  <course>0.0</course>
  <speed>0.0</speed>
  <fix>3d</fix>
</trkpt>
<trkpt lat="33.810313" lon="-118.393867">
  <ele>0.0</ele>
  <time>2026-09-02T22:07:10Z</time>
  <course>180.01</course>
  <speed>0.0</speed>
  <fix>3d</fix>
</trkpt>
<trkpt lat="33.810313" lon="-118.393867">
  <ele>-0.14</ele>
  <time>2026-09-02T22:07:10Z</time>
  <course>0.0</course>
  <speed>0.0</speed>
  <fix>3d</fix>
</trkpt>
<trkpt lat="33.810313" lon="-118.393867">
  <ele>0.0</ele>
  <time>2026-09-02T22:07:10Z</time>
  <course>180.37</course>
  <speed>0.0</speed>
  <fix>3d</fix>
</trkpt>
<trkpt lat="33.810313" lon="-118.393867">
  <ele>-0.14</ele>
  <time>2026-09-02T22:07:10Z</time>
  <course>0.0</course>
  <speed>0.0</speed>
  <fix>3d</fix>
</trkpt>
<trkpt lat="33.810313" lon="-118.393867">
  <ele>0.0</ele>
  <time>2026-09-02T22:07:10Z</time>
  <course>180.73</course>
  <speed>0.0</speed>
  <fix>3d</fix>
</trkpt>
<trkpt lat="33.810313" lon="-118.393867">
  <ele>-0.14</ele>
  <time>2026-09-02T22:07:10Z</time>
  <course>0.0</course>
  <speed>0.0</speed>
  <fix>3d</fix>
</trkpt>
<trkpt lat="33.810313" lon="-118.393867">
  <ele>0.0</ele>
  <time>2026-09-02T22:07:10Z</time>
  <course>181.07</course>
  <speed>0.0</speed>
  <fix>3d</fix>
</trkpt>
<trkpt lat="33.810313" lon="-118.393867">
  <ele>-0.13</ele>
  <time>2026-09-02T22:07:10Z</time>
  <course>0.0</course>
  <speed>0.0</speed>
  <fix>3d</fix>
</trkpt>
<trkpt lat="33.810313" lon="-118.393867">
  <ele>0.0</ele>
  <time>2026-09-02T22:07:10Z</time>
  <course>181.4</course>
  <speed>0.0</speed>
  <fix>3d</fix>
</trkpt>
<trkpt lat="33.810313" lon="-118.393867">
  <ele>-0.13</ele>
  <time>2026-09-02T22:07:10Z</time>
  <course>0.0</course>
  <speed>0.0</speed>
  <fix>3d</fix>
</trkpt>
<trkpt lat="33.810313" lon="-118.393867">
  <ele>0.0</ele>
  <time>2026-09-02T22:07:10Z</time>
  <course>181.72</course>
  <speed>0.0</speed>
  <fix>3d</fix>
</trkpt>
<trkpt lat="33.810313" lon="-118.393867">
  <ele>-0.12</ele>
  <time>2026-09-02T22:07:10Z</time>
  <course>0.0</course>
  <speed>0.0</speed>
  <fix>3d</fix>
</trkpt>
<trkpt lat="33.810313" lon="-118.393867">
  <ele>0.0</ele>
  <time>2026-09-02T22:07:10Z</time>
  <course>182.02</course>
  <speed>0.0</speed>
  <fix>3d</fix>
</trkpt>
<trkpt lat="33.810313" lon="-118.393867">
  <ele>-0.12</ele>
  <time>2026-09-02T22:07:10Z</time>
  <course>0.0</course>
  <speed>0.0</speed>
  <fix>3d</fix>
</trkpt>
<trkpt lat="33.810313" lon="-118.393867">
  <ele>0.0</ele>
  <time>2026-09-02T22:07:10Z</time>
  <course>182.32</course>
  <speed>0.0</speed>
  <fix>3d</fix>
</trkpt>
<trkpt lat="33.810313" lon="-118.393867">
  <ele>-0.12</ele>
  <time>2026-09-02T22:07:10Z</time>
  <course>0.0</course>
  <speed>0.0</speed>
  <fix>3d</fix>
</trkpt>
<trkpt lat="33.810313" lon="-118.393867">
  <ele>0.0</ele>
  <time>2026-09-02T22:07:10Z</time>
  <course>182.6</course>
  <speed>0.0</speed>
  <fix>3d</fix>
</trkpt>
<trkpt lat="33.810313" lon="-118.393867">
  <ele>-0.12</ele>
  <time>2026-09-02T22:07:10Z</time>
  <course>0.0</course>
  <speed>0.0</speed>
  <fix>3d</fix>
</trkpt>
<trkpt lat="33.810313" lon="-118.393867">
  <ele>0.0</ele>
  <time>2026-09-02T22:07:10Z</time>
  <course>182.87</course>
  <speed>0.0</speed>
  <fix>3d</fix>
</trkpt>
<trkpt lat="33.810313" lon="-118.393867">
  <ele>-0.11</ele>
  <time>2026-09-02T22:07:10Z</time>
  <course>0.0</course>
  <speed>0.0</speed>
  <fix>3d</fix>
</trkpt>
<trkpt lat="33.810313" lon="-118.393867">
  <ele>0.0</ele>
  <time>2026-09-02T22:07:10Z</time>
  <course>183.14</course>
  <speed>0.0</speed>
  <fix>3d</fix>
</trkpt>
<trkpt lat="33.810313" lon="-118.393867">
  <ele>-0.11</ele>
  <time>2026-09-02T22:07:10Z</time>
  <course>0.0</course>
  <speed>0.0</speed>
  <fix>3d</fix>
</trkpt>
<trkpt lat="33.810313" lon="-118.393867">
  <ele>0.0</ele>
  <time>2026-09-02T22:07:10Z</time>
  <course>183.39</course>
  <speed>0.0</speed>
  <fix>3d</fix>
</trkpt>
<trkpt lat="33.810313" lon="-118.393867">
  <ele>-0.11</ele>
  <time>2026-09-02T22:07:10Z</time>
  <course>0.0</course>
  <speed>0.0</speed>
  <fix>3d</fix>
</trkpt>
<trkpt lat="33.810313" lon="-118.393867">
  <ele>0.0</ele>
  <time>2026-09-02T22:07:10Z</time>
  <course>183.63</course>
  <speed>0.0</speed>
  <fix>3d</fix>
</trkpt>
<trkpt lat="33.810313" lon="-118.393867">
  <ele>-0.11</ele>
  <time>2026-09-02T22:07:10Z</time>
  <course>0.0</course>
  <speed>0.0</speed>
  <fix>3d</fix>
</trkpt>
<trkpt lat="33.810313" lon="-118.393867">
  <ele>0.0</ele>
  <time>2026-09-02T22:07:10Z</time>
  <course>183.86</course>
  <speed>0.0</speed>
  <fix>3d</fix>
</trkpt>
<trkpt lat="33.810313" lon="-118.393867">
  <ele>-0.12</ele>
  <time>2026-09-02T22:07:10Z</time>
  <course>0.0</course>
  <speed>0.0</speed>
  <fix>3d</fix>
</trkpt>
<trkpt lat="33.810313" lon="-118.393867">
  <ele>0.0</ele>
  <time>2026-09-02T22:07:10Z</time>
  <course>184.08</course>
  <speed>0.0</speed>
  <fix>3d</fix>
</trkpt>
<trkpt lat="33.810313" lon="-118.393867">
  <ele>-0.12</ele>
  <time>2026-09-02T22:07:10Z</time>
  <course>0.0</course>
  <speed>0.0</speed>
  <fix>3d</fix>
</trkpt>
<trkpt lat="33.810313" lon="-118.393867">
  <ele>0.0</ele>
  <time>2026-09-02T22:07:10Z</time>
  <course>184.3</course>
  <speed>0.0</speed>
  <fix>3d</fix>
</trkpt>
<trkpt lat="33.810313" lon="-118.393867">
  <ele>-0.13</ele>
  <time>2026-09-02T22:07:10Z</time>
  <course>0.0</course>
  <speed>0.0</speed>
  <fix>3d</fix>
</trkpt>
<trkpt lat="33.810313" lon="-118.393867">
  <ele>0.0</ele>
  <time>2026-09-02T22:07:10Z</time>
  <course>184.5</course>
  <speed>0.0</speed>
  <fix>3d</fix>
</trkpt>
<trkpt lat="33.810313" lon="-118.393867">
  <ele>-0.13</ele>
  <time>2026-09-02T22:07:10Z</time>
  <course>0.0</course>
  <speed>0.0</speed>
  <fix>3d</fix>
</trkpt>
<trkpt lat="33.810313" lon="-118.393867">
  <ele>0.0</ele>
  <time>2026-09-02T22:07:10Z</time>
  <course>184.7</course>
  <speed>0.0</speed>
  <fix>3d</fix>
</trkpt>
<trkpt lat="33.810313" lon="-118.393867">
  <ele>-0.13</ele>
  <time>2026-09-02T22:07:10Z</time>
  <course>0.0</course>
  <speed>0.0</speed>
  <fix>3d</fix>
</trkpt>
<trkpt lat="33.810313" lon="-118.393867">
  <ele>0.0</ele>
  <time>2026-09-02T22:07:10Z</time>
  <course>184.89</course>
  <speed>0.0</speed>
  <fix>3d</fix>
</trkpt>
<trkpt lat="33.810313" lon="-118.393867">
  <ele>-0.13</ele>
  <time>2026-09-02T22:07:10Z</time>
  <course>0.0</course>
  <speed>0.0</speed>
  <fix>3d</fix>
</trkpt>
<trkpt lat="33.810313" lon="-118.393867">
  <ele>0.0</ele>
  <time>2026-09-02T22:07:10Z</time>
  <course>185.07</course>
  <speed>0.0</speed>
  <fix>3d</fix>
</trkpt>
<trkpt lat="33.810313" lon="-118.393867">
  <ele>-0.14</ele>
  <time>2026-09-02T22:07:10Z</time>
  <course>0.0</course>
  <speed>0.0</speed>
  <fix>3d</fix>
</trkpt>
<trkpt lat="33.810313" lon="-118.393867">
  <ele>0.0</ele>
  <time>2026-09-02T22:07:10Z</time>
  <course>185.24</course>
  <speed>0.0</speed>
  <fix>3d</fix>
</trkpt>
<trkpt lat="33.810313" lon="-118.393867">
  <ele>-0.14</ele>
  <time>2026-09-02T22:07:10Z</time>
  <course>0.0</course>
  <speed>0.0</speed>
  <fix>3d</fix>
</trkpt>
<trkpt lat="33.810313" lon="-118.393867">
  <ele>0.0</ele>
  <time>2026-09-02T22:07:10Z</time>
  <course>185.41</course>
  <speed>0.0</speed>
  <fix>3d</fix>
</trkpt>
<trkpt lat="33.810313" lon="-118.393867">
  <ele>-0.13</ele>
  <time>2026-09-02T22:07:10Z</time>
  <course>0.0</course>
  <speed>0.0</speed>
  <fix>3d</fix>
</trkpt>
<trkpt lat="33.810313" lon="-118.393867">
  <ele>0.0</ele>
  <time>2026-09-02T22:07:10Z</time>
  <course>185.56</course>
  <speed>0.0</speed>
  <fix>3d</fix>
</trkpt>
<trkpt lat="33.810313" lon="-118.393867">
  <ele>-0.13</ele>
  <time>2026-09-02T22:07:10Z</time>
  <course>0.0</course>
  <speed>0.0</speed>
  <fix>3d</fix>
</trkpt>
<trkpt lat="33.810313" lon="-118.393867">
  <ele>0.0</ele>
  <time>2026-09-02T22:07:10Z</time>
  <course>185.72</course>
  <speed>0.0</speed>
  <fix>3d</fix>
</trkpt>
<trkpt lat="33.810313" lon="-118.393867">
  <ele>-0.13</ele>
  <time>2026-09-02T22:07:10Z</time>
  <course>0.0</course>
  <speed>0.0</speed>
  <fix>3d</fix>
</trkpt>
<trkpt lat="33.810313" lon="-118.393867">
  <ele>0.0</ele>
  <time>2026-09-02T22:07:10Z</time>
  <course>185.86</course>
  <speed>0.0</speed>
  <fix>3d</fix>
</trkpt>
<trkpt lat="33.810313" lon="-118.393867">
  <ele>-0.13</ele>
  <time>2026-09-02T22:07:10Z</time>
  <course>0.0</course>
  <speed>0.0</speed>
  <fix>3d</fix>
</trkpt>
<trkpt lat="33.810313" lon="-118.393867">
  <ele>0.0</ele>
  <time>2026-09-02T22:07:10Z</time>
  <course>186.0</course>
  <speed>0.0</speed>
  <fix>3d</fix>
</trkpt>
<trkpt lat="33.810313" lon="-118.393867">
  <ele>-0.12</ele>
  <time>2026-09-02T22:07:10Z</time>
  <course>0.0</course>
  <speed>0.0</speed>
  <fix>3d</fix>
</trkpt>
<trkpt lat="33.810313" lon="-118.393867">
  <ele>0.0</ele>
  <time>2026-09-02T22:07:10Z</time>
  <course>186.13</course>
  <speed>0.0</speed>
  <fix>3d</fix>
</trkpt>
<trkpt lat="33.810313" lon="-118.393867">
  <ele>-0.12</ele>
  <time>2026-09-02T22:07:10Z</time>
  <course>0.0</course>
  <speed>0.0</speed>
  <fix>3d</fix>
</trkpt>
<trkpt lat="33.810313" lon="-118.393867">
  <ele>0.0</ele>
  <time>2026-09-02T22:07:10Z</time>
  <course>186.26</course>
  <speed>0.0</speed>
  <fix>3d</fix>
</trkpt>
<trkpt lat="33.810313" lon="-118.393867">
  <ele>-0.12</ele>
  <time>2026-09-02T22:07:10Z</time>
  <course>0.0</course>
  <speed>0.0</speed>
  <fix>3d</fix>
</trkpt>
<trkpt lat="33.810313" lon="-118.393867">
  <ele>0.0</ele>
  <time>2026-09-02T22:07:10Z</time>
  <course>186.38</course>
  <speed>0.0</speed>
  <fix>3d</fix>
</trkpt>
<trkpt lat="33.810313" lon="-118.393867">
  <ele>-0.12</ele>
  <time>2026-09-02T22:07:10Z</time>
  <course>0.0</course>
  <speed>0.0</speed>
  <fix>3d</fix>
</trkpt>
<trkpt lat="33.810313" lon="-118.393867">
  <ele>0.0</ele>
  <time>2026-09-02T22:07:10Z</time>
  <course>186.49</course>
  <speed>0.0</speed>
  <fix>3d</fix>
</trkpt>
<trkpt lat="33.810313" lon="-118.393867">
  <ele>-0.12</ele>
  <time>2026-09-02T22:07:10Z</time>
  <course>0.0</course>
  <speed>0.0</speed>
  <fix>3d</fix>
</trkpt>
<trkpt lat="33.810313" lon="-118.393867">
  <ele>0.0</ele>
  <time>2026-09-02T22:07:10Z</time>
  <course>186.6</course>
  <speed>0.0</speed>
  <fix>3d</fix>
</trkpt>
<trkpt lat="33.810313" lon="-118.393867">
  <ele>-0.12</ele>
  <time>2026-09-02T22:07:10Z</time>
  <course>0.0</course>
  <speed>0.0</speed>
  <fix>3d</fix>
</trkpt>
<trkpt lat="33.810313" lon="-118.393867">
  <ele>0.0</ele>
  <time>2026-09-02T22:07:10Z</time>
  <course>186.71</course>
  <speed>0.0</speed>
  <fix>3d</fix>
</trkpt>
<trkpt lat="33.810313" lon="-118.393867">
  <ele>-0.12</ele>
  <time>2026-09-02T22:07:10Z</time>
  <course>0.0</course>
  <speed>0.0</speed>
  <fix>3d</fix>
</trkpt>
<trkpt lat="33.810313" lon="-118.393867">
  <ele>0.0</ele>
  <time>2026-09-02T22:07:10Z</time>
  <course>186.81</course>
  <speed>0.0</speed>
  <fix>3d</fix>
</trkpt>
<trkpt lat="33.810313" lon="-118.393867">
  <ele>-0.12</ele>
  <time>2026-09-02T22:07:10Z</time>
  <course>0.0</course>
  <speed>0.0</speed>
  <fix>3d</fix>
</trkpt>
<trkpt lat="33.810313" lon="-118.393867">
  <ele>0.0</ele>
  <time>2026-09-02T22:07:10Z</time>
  <course>186.9</course>
  <speed>0.0</speed>
  <fix>3d</fix>
</trkpt>
<trkpt lat="33.810313" lon="-118.393867">
  <ele>-0.12</ele>
  <time>2026-09-02T22:07:10Z</time>
  <course>0.0</course>
  <speed>0.0</speed>
  <fix>3d</fix>
</trkpt>
<trkpt lat="33.810313" lon="-118.393867">
  <ele>0.0</ele>
  <time>2026-09-02T22:07:10Z</time>
  <course>187.0</course>
  <speed>0.0</speed>
  <fix>3d</fix>
</trkpt>
<trkpt lat="33.810313" lon="-118.393867">
  <ele>-0.12</ele>
  <time>2026-09-02T22:07:10Z</time>
  <course>0.0</course>
  <speed>0.0</speed>
  <fix>3d</fix>
</trkpt>
<trkpt lat="33.810313" lon="-118.393867">
  <ele>0.0</ele>
  <time>2026-09-02T22:07:10Z</time>
  <course>187.08</course>
  <speed>0.0</speed>
  <fix>3d</fix>
</trkpt>
<trkpt lat="33.810313" lon="-118.393867">
  <ele>-0.13</ele>
  <time>2026-09-02T22:07:10Z</time>
  <course>0.0</course>
  <speed>0.0</speed>
  <fix>3d</fix>
</trkpt>
<trkpt lat="33.810313" lon="-118.393867">
  <ele>0.0</ele>
  <time>2026-09-02T22:07:10Z</time>
  <course>187.17</course>
  <speed>0.0</speed>
  <fix>3d</fix>
</trkpt>
<trkpt lat="33.810313" lon="-118.393867">
  <ele>-0.13</ele>
  <time>2026-09-02T22:07:10Z</time>
  <course>0.0</course>
  <speed>0.0</speed>
  <fix>3d</fix>
</trkpt>
<trkpt lat="33.810313" lon="-118.393867">
  <ele>0.0</ele>
  <time>2026-09-02T22:07:10Z</time>
  <course>187.24</course>
  <speed>0.0</speed>
  <fix>3d</fix>
</trkpt>
<trkpt lat="33.810313" lon="-118.393867">
  <ele>-0.13</ele>
  <time>2026-09-02T22:07:10Z</time>
  <course>0.0</course>
  <speed>0.0</speed>
  <fix>3d</fix>
</trkpt>
<trkpt lat="33.810313" lon="-118.393867">
  <ele>0.0</ele>
  <time>2026-09-02T22:07:10Z</time>
  <course>187.32</course>
  <speed>0.0</speed>
  <fix>3d</fix>
</trkpt>
<trkpt lat="33.810313" lon="-118.393867">
  <ele>-0.13</ele>
  <time>2026-09-02T22:07:10Z</time>
  <course>0.0</course>
  <speed>0.0</speed>
  <fix>3d</fix>
</trkpt>
<trkpt lat="33.810313" lon="-118.393867">
  <ele>0.0</ele>
  <time>2026-09-02T22:07:10Z</time>
  <course>187.39</course>
  <speed>0.0</speed>
  <fix>3d</fix>
</trkpt>
<trkpt lat="33.810313" lon="-118.393867">
  <ele>-0.13</ele>
  <time>2026-09-02T22:07:10Z</time>
  <course>0.0</course>
  <speed>0.0</speed>
  <fix>3d</fix>
</trkpt>
<trkpt lat="33.810313" lon="-118.393867">
  <ele>0.0</ele>
  <time>2026-09-02T22:07:11Z</time>
  <course>187.46</course>
  <speed>0.0</speed>
  <fix>3d</fix>
</trkpt>
<trkpt lat="33.810313" lon="-118.393867">
  <ele>-0.13</ele>
  <time>2026-09-02T22:07:11Z</time>
  <course>0.0</course>
  <speed>0.0</speed>
  <fix>3d</fix>
</trkpt>
<trkpt lat="33.810313" lon="-118.393867">
  <ele>0.0</ele>
  <time>2026-09-02T22:07:11Z</time>
  <course>187.53</course>
  <speed>0.0</speed>
  <fix>3d</fix>
</trkpt>
<trkpt lat="33.810313" lon="-118.393867">
  <ele>-0.13</ele>
  <time>2026-09-02T22:07:11Z</time>
  <course>0.0</course>
  <speed>0.0</speed>
  <fix>3d</fix>
</trkpt>
<trkpt lat="33.810313" lon="-118.393867">
  <ele>0.0</ele>
  <time>2026-09-02T22:07:11Z</time>
  <course>187.59</course>
  <speed>0.0</speed>
  <fix>3d</fix>
</trkpt>
<trkpt lat="33.810313" lon="-118.393867">
  <ele>-0.13</ele>
  <time>2026-09-02T22:07:11Z</time>
  <course>0.0</course>
  <speed>0.0</speed>
  <fix>3d</fix>
</trkpt>
<trkpt lat="33.810313" lon="-118.393867">
  <ele>0.0</ele>
  <time>2026-09-02T22:07:11Z</time>
  <course>187.65</course>
  <speed>0.0</speed>
  <fix>3d</fix>
</trkpt>
<trkpt lat="33.810313" lon="-118.393867">
  <ele>-0.12</ele>
  <time>2026-09-02T22:07:11Z</time>
  <course>0.0</course>
  <speed>0.0</speed>
  <fix>3d</fix>
</trkpt>
<trkpt lat="33.810313" lon="-118.393867">
  <ele>0.0</ele>
  <time>2026-09-02T22:07:11Z</time>
  <course>187.7</course>
  <speed>0.0</speed>
  <fix>3d</fix>
</trkpt>
<trkpt lat="33.810313" lon="-118.393867">
  <ele>-0.12</ele>
  <time>2026-09-02T22:07:11Z</time>
  <course>0.0</course>
  <speed>0.0</speed>
  <fix>3d</fix>
</trkpt>
<trkpt lat="33.810313" lon="-118.393867">
  <ele>0.0</ele>
  <time>2026-09-02T22:07:11Z</time>
  <course>187.76</course>
  <speed>0.0</speed>
  <fix>3d</fix>
</trkpt>
<trkpt lat="33.810313" lon="-118.393867">
  <ele>-0.12</ele>
  <time>2026-09-02T22:07:11Z</time>
  <course>0.0</course>
  <speed>0.0</speed>
  <fix>3d</fix>
</trkpt>
<trkpt lat="33.810313" lon="-118.393867">
  <ele>0.0</ele>
  <time>2026-09-02T22:07:11Z</time>
  <course>187.81</course>
  <speed>0.0</speed>
  <fix>3d</fix>
</trkpt>
<trkpt lat="33.810313" lon="-118.393867">
  <ele>-0.12</ele>
  <time>2026-09-02T22:07:11Z</time>
  <course>0.0</course>
  <speed>0.0</speed>
  <fix>3d</fix>
</trkpt>
<trkpt lat="33.810313" lon="-118.393867">
  <ele>0.0</ele>
  <time>2026-09-02T22:07:11Z</time>
  <course>187.86</course>
  <speed>0.0</speed>
  <fix>3d</fix>
</trkpt>
<trkpt lat="33.810313" lon="-118.393867">
  <ele>-0.12</ele>
  <time>2026-09-02T22:07:11Z</time>
  <course>0.0</course>
  <speed>0.0</speed>
  <fix>3d</fix>
</trkpt>
<trkpt lat="33.810313" lon="-118.393867">
  <ele>0.0</ele>
  <time>2026-09-02T22:07:11Z</time>
  <course>187.9</course>
  <speed>0.0</speed>
  <fix>3d</fix>
</trkpt>
<trkpt lat="33.810313" lon="-118.393867">
  <ele>-0.12</ele>
  <time>2026-09-02T22:07:11Z</time>
  <course>0.0</course>
  <speed>0.0</speed>
  <fix>3d</fix>
</trkpt>
<trkpt lat="33.810313" lon="-118.393867">
  <ele>0.0</ele>
  <time>2026-09-02T22:07:11Z</time>
  <course>187.94</course>
  <speed>0.0</speed>
  <fix>3d</fix>
</trkpt>
<trkpt lat="33.810313" lon="-118.393867">
  <ele>-0.12</ele>
  <time>2026-09-02T22:07:11Z</time>
  <course>0.0</course>
  <speed>0.0</speed>
  <fix>3d</fix>
</trkpt>
<trkpt lat="33.810313" lon="-118.393867">
  <ele>0.0</ele>
  <time>2026-09-02T22:07:11Z</time>
  <course>187.99</course>
  <speed>0.0</speed>
  <fix>3d</fix>
</trkpt>
<trkpt lat="33.810313" lon="-118.393867">
  <ele>-0.12</ele>
  <time>2026-09-02T22:07:11Z</time>
  <course>0.0</course>
  <speed>0.0</speed>
  <fix>3d</fix>
</trkpt>
<trkpt lat="33.810313" lon="-118.393867">
  <ele>0.0</ele>
  <time>2026-09-02T22:07:11Z</time>
  <course>188.02</course>
  <speed>0.0</speed>
  <fix>3d</fix>
</trkpt>
<trkpt lat="33.810313" lon="-118.393867">
  <ele>-0.12</ele>
  <time>2026-09-02T22:07:11Z</time>
  <course>0.0</course>
  <speed>0.0</speed>
  <fix>3d</fix>
</trkpt>
<trkpt lat="33.810313" lon="-118.393867">
  <ele>0.0</ele>
  <time>2026-09-02T22:07:11Z</time>
  <course>188.06</course>
  <speed>0.0</speed>
  <fix>3d</fix>
</trkpt>
<trkpt lat="33.810313" lon="-118.393867">
  <ele>-0.12</ele>
  <time>2026-09-02T22:07:11Z</time>
  <course>0.0</course>
  <speed>0.0</speed>
  <fix>3d</fix>
</trkpt>
<trkpt lat="33.810313" lon="-118.393867">
  <ele>0.0</ele>
  <time>2026-09-02T22:07:11Z</time>
  <course>188.1</course>
  <speed>0.0</speed>
  <fix>3d</fix>
</trkpt>
<trkpt lat="33.810313" lon="-118.393867">
  <ele>-0.13</ele>
  <time>2026-09-02T22:07:11Z</time>
  <course>0.0</course>
  <speed>0.0</speed>
  <fix>3d</fix>
</trkpt>
<trkpt lat="33.810313" lon="-118.393867">
  <ele>0.0</ele>
  <time>2026-09-02T22:07:11Z</time>
  <course>188.13</course>
  <speed>0.0</speed>
  <fix>3d</fix>
</trkpt>
<trkpt lat="33.810313" lon="-118.393867">
  <ele>-0.13</ele>
  <time>2026-09-02T22:07:11Z</time>
  <course>0.0</course>
  <speed>0.0</speed>
  <fix>3d</fix>
</trkpt>
<trkpt lat="33.810313" lon="-118.393867">
  <ele>0.0</ele>
  <time>2026-09-02T22:07:11Z</time>
  <course>188.16</course>
  <speed>0.0</speed>
  <fix>3d</fix>
</trkpt>
<trkpt lat="33.810313" lon="-118.393867">
  <ele>-0.13</ele>
  <time>2026-09-02T22:07:11Z</time>
  <course>0.0</course>
  <speed>0.0</speed>
  <fix>3d</fix>
</trkpt>
<trkpt lat="33.810313" lon="-118.393867">
  <ele>0.0</ele>
  <time>2026-09-02T22:07:11Z</time>
  <course>188.19</course>
  <speed>0.0</speed>
  <fix>3d</fix>
</trkpt>
<trkpt lat="33.810313" lon="-118.393867">
  <ele>-0.13</ele>
  <time>2026-09-02T22:07:11Z</time>
  <course>0.0</course>
  <speed>0.0</speed>
  <fix>3d</fix>
</trkpt>
<trkpt lat="33.810313" lon="-118.393867">
  <ele>0.0</ele>
  <time>2026-09-02T22:07:11Z</time>
  <course>188.22</course>
  <speed>0.0</speed>
  <fix>3d</fix>
</trkpt>
<trkpt lat="33.810313" lon="-118.393867">
  <ele>-0.13</ele>
  <time>2026-09-02T22:07:11Z</time>
  <course>0.0</course>
  <speed>0.0</speed>
  <fix>3d</fix>
</trkpt>
<trkpt lat="33.810313" lon="-118.393867">
  <ele>0.0</ele>
  <time>2026-09-02T22:07:11Z</time>
  <course>188.24</course>
  <speed>0.0</speed>
  <fix>3d</fix>
</trkpt>
<trkpt lat="33.810313" lon="-118.393867">
  <ele>-0.13</ele>
  <time>2026-09-02T22:07:11Z</time>
  <course>0.0</course>
  <speed>0.0</speed>
  <fix>3d</fix>
</trkpt>
<trkpt lat="33.810313" lon="-118.393867">
  <ele>0.0</ele>
  <time>2026-09-02T22:07:11Z</time>
  <course>188.27</course>
  <speed>0.0</speed>
  <fix>3d</fix>
</trkpt>
<trkpt lat="33.810313" lon="-118.393867">
  <ele>-0.12</ele>
  <time>2026-09-02T22:07:11Z</time>
  <course>0.0</course>
  <speed>0.0</speed>
  <fix>3d</fix>
</trkpt>
<trkpt lat="33.810313" lon="-118.393867">
  <ele>0.0</ele>
  <time>2026-09-02T22:07:11Z</time>
  <course>188.29</course>
  <speed>0.0</speed>
  <fix>3d</fix>
</trkpt>
<trkpt lat="33.810313" lon="-118.393867">
  <ele>-0.12</ele>
  <time>2026-09-02T22:07:11Z</time>
  <course>0.0</course>
  <speed>0.0</speed>
  <fix>3d</fix>
</trkpt>
<trkpt lat="33.810313" lon="-118.393867">
  <ele>0.0</ele>
  <time>2026-09-02T22:07:11Z</time>
  <course>188.32</course>
  <speed>0.0</speed>
  <fix>3d</fix>
</trkpt>
<trkpt lat="33.810313" lon="-118.393867">
  <ele>-0.12</ele>
  <time>2026-09-02T22:07:11Z</time>
  <course>0.0</course>
  <speed>0.0</speed>
  <fix>3d</fix>
</trkpt>
<trkpt lat="33.810313" lon="-118.393867">
  <ele>0.0</ele>
  <time>2026-09-02T22:07:11Z</time>
  <course>188.34</course>
  <speed>0.0</speed>
  <fix>3d</fix>
</trkpt>
<trkpt lat="33.810313" lon="-118.393867">
  <ele>-0.12</ele>
  <time>2026-09-02T22:07:11Z</time>
  <course>0.0</course>
  <speed>0.0</speed>
  <fix>3d</fix>
</trkpt>
<trkpt lat="33.810313" lon="-118.393867">
  <ele>0.0</ele>
  <time>2026-09-02T22:07:11Z</time>
  <course>188.36</course>
  <speed>0.0</speed>
  <fix>3d</fix>
</trkpt>
<trkpt lat="33.810313" lon="-118.393867">
  <ele>-0.12</ele>
  <time>2026-09-02T22:07:11Z</time>
  <course>0.0</course>
  <speed>0.0</speed>
  <fix>3d</fix>
</trkpt>
<trkpt lat="33.810313" lon="-118.393867">
  <ele>0.0</ele>
  <time>2026-09-02T22:07:11Z</time>
  <course>188.38</course>
  <speed>0.0</speed>
  <fix>3d</fix>
</trkpt>
<trkpt lat="33.810313" lon="-118.393867">
  <ele>-0.12</ele>
  <time>2026-09-02T22:07:11Z</time>
  <course>0.0</course>
  <speed>0.0</speed>
  <fix>3d</fix>
</trkpt>
<trkpt lat="33.810313" lon="-118.393867">
  <ele>0.0</ele>
  <time>2026-09-02T22:07:11Z</time>
  <course>188.39</course>
  <speed>0.0</speed>
  <fix>3d</fix>
</trkpt>
<trkpt lat="33.810313" lon="-118.393867">
  <ele>-0.12</ele>
  <time>2026-09-02T22:07:11Z</time>
  <course>0.0</course>
  <speed>0.0</speed>
  <fix>3d</fix>
</trkpt>
<trkpt lat="33.810313" lon="-118.393867">
  <ele>0.0</ele>
  <time>2026-09-02T22:07:11Z</time>
  <course>188.41</course>
  <speed>0.0</speed>
  <fix>3d</fix>
</trkpt>
<trkpt lat="33.810313" lon="-118.393867">
  <ele>-0.12</ele>
  <time>2026-09-02T22:07:11Z</time>
  <course>0.0</course>
  <speed>0.0</speed>
  <fix>3d</fix>
</trkpt>
<trkpt lat="33.810313" lon="-118.393867">
  <ele>0.0</ele>
  <time>2026-09-02T22:07:11Z</time>
  <course>188.42</course>
  <speed>0.0</speed>
  <fix>3d</fix>
</trkpt>
<trkpt lat="33.810313" lon="-118.393867">
  <ele>-0.12</ele>
  <time>2026-09-02T22:07:11Z</time>
  <course>0.0</course>
  <speed>0.0</speed>
  <fix>3d</fix>
</trkpt>
<trkpt lat="33.810313" lon="-118.393867">
  <ele>0.0</ele>
  <time>2026-09-02T22:07:11Z</time>
  <course>188.44</course>
  <speed>0.0</speed>
  <fix>3d</fix>
</trkpt>
<trkpt lat="33.810313" lon="-118.393867">
  <ele>-0.12</ele>
  <time>2026-09-02T22:07:11Z</time>
  <course>0.0</course>
  <speed>0.0</speed>
  <fix>3d</fix>
</trkpt>
<trkpt lat="33.810313" lon="-118.393867">
  <ele>0.0</ele>
  <time>2026-09-02T22:07:11Z</time>
  <course>188.45</course>
  <speed>0.0</speed>
  <fix>3d</fix>
</trkpt>
<trkpt lat="33.810313" lon="-118.393867">
  <ele>-0.13</ele>
  <time>2026-09-02T22:07:11Z</time>
  <course>0.0</course>
  <speed>0.0</speed>
  <fix>3d</fix>
</trkpt>
<trkpt lat="33.810313" lon="-118.393867">
  <ele>0.0</ele>
  <time>2026-09-02T22:07:11Z</time>
  <course>188.46</course>
  <speed>0.0</speed>
  <fix>3d</fix>
</trkpt>
<trkpt lat="33.810313" lon="-118.393867">
  <ele>-0.13</ele>
  <time>2026-09-02T22:07:11Z</time>
  <course>0.0</course>
  <speed>0.0</speed>
  <fix>3d</fix>
</trkpt>
<trkpt lat="33.810313" lon="-118.393867">
  <ele>0.0</ele>
  <time>2026-09-02T22:07:11Z</time>
  <course>188.47</course>
  <speed>0.0</speed>
  <fix>3d</fix>
</trkpt>
<trkpt lat="33.810313" lon="-118.393867">
  <ele>-0.13</ele>
  <time>2026-09-02T22:07:11Z</time>
  <course>0.0</course>
  <speed>0.0</speed>
  <fix>3d</fix>
</trkpt>
<trkpt lat="33.810313" lon="-118.393867">
  <ele>0.0</ele>
  <time>2026-09-02T22:07:11Z</time>
  <course>188.48</course>
  <speed>0.0</speed>
  <fix>3d</fix>
</trkpt>
<trkpt lat="33.810313" lon="-118.393867">
  <ele>-0.13</ele>
  <time>2026-09-02T22:07:11Z</time>
  <course>0.0</course>
  <speed>0.0</speed>
  <fix>3d</fix>
</trkpt>
<trkpt lat="33.810313" lon="-118.393867">
  <ele>0.0</ele>
  <time>2026-09-02T22:07:11Z</time>
  <course>188.49</course>
  <speed>0.0</speed>
  <fix>3d</fix>
</trkpt>
<trkpt lat="33.810313" lon="-118.393867">
  <ele>-0.13</ele>
  <time>2026-09-02T22:07:11Z</time>
  <course>0.0</course>
  <speed>0.0</speed>
  <fix>3d</fix>
</trkpt>
<trkpt lat="33.810313" lon="-118.393867">
  <ele>0.0</ele>
  <time>2026-09-02T22:07:11Z</time>
  <course>188.5</course>
  <speed>0.0</speed>
  <fix>3d</fix>
</trkpt>
<trkpt lat="33.810313" lon="-118.393867">
  <ele>-0.13</ele>
  <time>2026-09-02T22:07:11Z</time>
  <course>0.0</course>
  <speed>0.0</speed>
  <fix>3d</fix>
</trkpt>
<trkpt lat="33.810313" lon="-118.393867">
  <ele>0.0</ele>
  <time>2026-09-02T22:07:11Z</time>
  <course>188.51</course>
  <speed>0.0</speed>
  <fix>3d</fix>
</trkpt>
<trkpt lat="33.810313" lon="-118.393867">
  <ele>-0.12</ele>
  <time>2026-09-02T22:07:11Z</time>
  <course>0.0</course>
  <speed>0.0</speed>
  <fix>3d</fix>
</trkpt>
<trkpt lat="33.810313" lon="-118.393867">
  <ele>0.0</ele>
  <time>2026-09-02T22:07:11Z</time>
  <course>188.52</course>
  <speed>0.0</speed>
  <fix>3d</fix>
</trkpt>
<trkpt lat="33.810313" lon="-118.393867">
  <ele>-0.12</ele>
  <time>2026-09-02T22:07:11Z</time>
  <course>0.0</course>
  <speed>0.0</speed>
  <fix>3d</fix>
</trkpt>
<trkpt lat="33.810313" lon="-118.393867">
  <ele>0.0</ele>
  <time>2026-09-02T22:07:11Z</time>
  <course>188.53</course>
  <speed>0.0</speed>
  <fix>3d</fix>
</trkpt>
<trkpt lat="33.810313" lon="-118.393867">
  <ele>-0.12</ele>
  <time>2026-09-02T22:07:11Z</time>
  <course>0.0</course>
  <speed>0.0</speed>
  <fix>3d</fix>
</trkpt>
<trkpt lat="33.810313" lon="-118.393867">
  <ele>0.0</ele>
  <time>2026-09-02T22:07:11Z</time>
  <course>188.53</course>
  <speed>0.0</speed>
  <fix>3d</fix>
</trkpt>
<trkpt lat="33.810313" lon="-118.393867">
  <ele>-0.12</ele>
  <time>2026-09-02T22:07:11Z</time>
  <course>0.0</course>
  <speed>0.0</speed>
  <fix>3d</fix>
</trkpt>
<trkpt lat="33.810313" lon="-118.393867">
  <ele>0.0</ele>
  <time>2026-09-02T22:07:11Z</time>
  <course>188.54</course>
  <speed>0.0</speed>
  <fix>3d</fix>
</trkpt>
<trkpt lat="33.810313" lon="-118.393867">
  <ele>-0.12</ele>
  <time>2026-09-02T22:07:11Z</time>
  <course>0.0</course>
  <speed>0.0</speed>
  <fix>3d</fix>
</trkpt>
<trkpt lat="33.810313" lon="-118.393867">
  <ele>0.0</ele>
  <time>2026-09-02T22:07:11Z</time>
  <course>188.54</course>
  <speed>0.0</speed>
  <fix>3d</fix>
</trkpt>
<trkpt lat="33.810313" lon="-118.393867">
  <ele>-0.12</ele>
  <time>2026-09-02T22:07:11Z</time>
  <course>0.0</course>
  <speed>0.0</speed>
  <fix>3d</fix>
</trkpt>
<trkpt lat="33.810313" lon="-118.393867">
  <ele>0.0</ele>
  <time>2026-09-02T22:07:11Z</time>
  <course>188.54</course>
  <speed>0.0</speed>
  <fix>3d</fix>
</trkpt>
<trkpt lat="33.810313" lon="-118.393867">
  <ele>-0.12</ele>
  <time>2026-09-02T22:07:11Z</time>
  <course>0.0</course>
  <speed>0.0</speed>
  <fix>3d</fix>
</trkpt>
<trkpt lat="33.810313" lon="-118.393867">
  <ele>0.0</ele>
  <time>2026-09-02T22:07:11Z</time>
  <course>188.55</course>
  <speed>0.0</speed>
  <fix>3d</fix>
</trkpt>
<trkpt lat="33.810313" lon="-118.393867">
  <ele>-0.12</ele>
  <time>2026-09-02T22:07:11Z</time>
  <course>0.0</course>
  <speed>0.0</speed>
  <fix>3d</fix>
</trkpt>
<trkpt lat="33.810313" lon="-118.393867">
  <ele>0.0</ele>
  <time>2026-09-02T22:07:11Z</time>
  <course>188.55</course>
  <speed>0.0</speed>
  <fix>3d</fix>
</trkpt>
<trkpt lat="33.810313" lon="-118.393867">
  <ele>-0.12</ele>
  <time>2026-09-02T22:07:11Z</time>
  <course>0.0</course>
  <speed>0.0</speed>
  <fix>3d</fix>
</trkpt>
<trkpt lat="33.810313" lon="-118.393867">
  <ele>0.0</ele>
  <time>2026-09-02T22:07:11Z</time>
  <course>188.55</course>
  <speed>0.0</speed>
  <fix>3d</fix>
</trkpt>
<trkpt lat="33.810313" lon="-118.393867">
  <ele>-0.12</ele>
  <time>2026-09-02T22:07:11Z</time>
  <course>0.0</course>
  <speed>0.0</speed>
  <fix>3d</fix>
</trkpt>
<trkpt lat="33.810313" lon="-118.393867">
  <ele>-0.126</ele>
  <time>2026-09-02T22:07:11Z</time>
  <course>188.55</course>
  <speed>0.0</speed>
  <fix>3d</fix>
</trkpt>
<trkpt lat="33.810313" lon="-118.393867">
  <ele>-0.13</ele>
  <time>2026-09-02T22:07:11Z</time>
  <course>0.0</course>
  <speed>0.0</speed>
  <fix>3d</fix>
</trkpt>
<trkpt lat="33.810313" lon="-118.393867">
  <ele>-0.126</ele>
  <time>2026-09-02T22:07:11Z</time>
  <course>188.56</course>
  <speed>0.0</speed>
  <fix>3d</fix>
</trkpt>
<trkpt lat="33.810313" lon="-118.393867">
  <ele>-0.13</ele>
  <time>2026-09-02T22:07:11Z</time>
  <course>0.0</course>
  <speed>0.0</speed>
  <fix>3d</fix>
</trkpt>
<trkpt lat="33.810313" lon="-118.393867">
  <ele>-0.125</ele>
  <time>2026-09-02T22:07:11Z</time>
  <course>188.56</course>
  <speed>0.0</speed>
  <fix>3d</fix>
</trkpt>
<trkpt lat="33.810313" lon="-118.393867">
  <ele>-0.13</ele>
  <time>2026-09-02T22:07:11Z</time>
  <course>0.0</course>
  <speed>0.0</speed>
  <fix>3d</fix>
</trkpt>
<trkpt lat="33.810313" lon="-118.393867">
  <ele>-0.123</ele>
  <time>2026-09-02T22:07:11Z</time>
  <course>188.56</course>
  <speed>0.0</speed>
  <fix>3d</fix>
</trkpt>
<trkpt lat="33.810313" lon="-118.393867">
  <ele>-0.13</ele>
  <time>2026-09-02T22:07:11Z</time>
  <course>0.0</course>
  <speed>0.0</speed>
  <fix>3d</fix>
</trkpt>
<trkpt lat="33.810313" lon="-118.393867">
  <ele>-0.121</ele>
  <time>2026-09-02T22:07:11Z</time>
  <course>188.56</course>
  <speed>0.0</speed>
  <fix>3d</fix>
</trkpt>
<trkpt lat="33.810313" lon="-118.393867">
  <ele>-0.12</ele>
  <time>2026-09-02T22:07:11Z</time>
  <course>0.0</course>
  <speed>0.0</speed>
  <fix>3d</fix>
</trkpt>
<trkpt lat="33.810313" lon="-118.393867">
  <ele>-0.12</ele>
  <time>2026-09-02T22:07:11Z</time>
  <course>188.56</course>
  <speed>0.0</speed>
  <fix>3d</fix>
</trkpt>
<trkpt lat="33.810313" lon="-118.393867">
  <ele>-0.12</ele>
  <time>2026-09-02T22:07:11Z</time>
  <course>0.0</course>
  <speed>0.0</speed>
  <fix>3d</fix>
</trkpt>
<trkpt lat="33.810313" lon="-118.393867">
  <ele>-0.119</ele>
  <time>2026-09-02T22:07:11Z</time>
  <course>188.56</course>
  <speed>0.0</speed>
  <fix>3d</fix>
</trkpt>
<trkpt lat="33.810313" lon="-118.393867">
  <ele>-0.12</ele>
  <time>2026-09-02T22:07:11Z</time>
  <course>0.0</course>
  <speed>0.0</speed>
  <fix>3d</fix>
</trkpt>
<trkpt lat="33.810313" lon="-118.393867">
  <ele>-0.12</ele>
  <time>2026-09-02T22:07:11Z</time>
  <course>188.56</course>
  <speed>0.0</speed>
  <fix>3d</fix>
</trkpt>
<trkpt lat="33.810313" lon="-118.393867">
  <ele>-0.12</ele>
  <time>2026-09-02T22:07:11Z</time>
  <course>0.0</course>
  <speed>0.0</speed>
  <fix>3d</fix>
</trkpt>
<trkpt lat="33.810313" lon="-118.393867">
  <ele>-0.123</ele>
  <time>2026-09-02T22:07:11Z</time>
  <course>188.55</course>
  <speed>0.0</speed>
  <fix>3d</fix>
</trkpt>
<trkpt lat="33.810313" lon="-118.393867">
  <ele>-0.12</ele>
  <time>2026-09-02T22:07:11Z</time>
  <course>0.0</course>
  <speed>0.0</speed>
  <fix>3d</fix>
</trkpt>
<trkpt lat="33.810313" lon="-118.393867">
  <ele>-0.127</ele>
  <time>2026-09-02T22:07:11Z</time>
  <course>188.55</course>
  <speed>0.0</speed>
  <fix>3d</fix>
</trkpt>
<trkpt lat="33.810313" lon="-118.393867">
  <ele>-0.12</ele>
  <time>2026-09-02T22:07:11Z</time>
  <course>0.0</course>
  <speed>0.0</speed>
  <fix>3d</fix>
</trkpt>
<trkpt lat="33.810313" lon="-118.393867">
  <ele>-0.13</ele>
  <time>2026-09-02T22:07:11Z</time>
  <course>188.55</course>
  <speed>0.0</speed>
  <fix>3d</fix>
</trkpt>
<trkpt lat="33.810313" lon="-118.393867">
  <ele>-0.12</ele>
  <time>2026-09-02T22:07:11Z</time>
  <course>0.0</course>
  <speed>0.0</speed>
  <fix>3d</fix>
</trkpt>
<trkpt lat="33.810313" lon="-118.393867">
  <ele>-0.132</ele>
  <time>2026-09-02T22:07:11Z</time>
  <course>188.55</course>
  <speed>0.0</speed>
  <fix>3d</fix>
</trkpt>
<trkpt lat="33.810313" lon="-118.393867">
  <ele>-0.12</ele>
  <time>2026-09-02T22:07:11Z</time>
  <course>0.0</course>
  <speed>0.0</speed>
  <fix>3d</fix>
</trkpt>
<trkpt lat="33.810313" lon="-118.393867">
  <ele>-0.132</ele>
  <time>2026-09-02T22:07:11Z</time>
  <course>188.55</course>
  <speed>0.0</speed>
  <fix>3d</fix>
</trkpt>
<trkpt lat="33.810313" lon="-118.393867">
  <ele>-0.12</ele>
  <time>2026-09-02T22:07:11Z</time>
  <course>0.0</course>
  <speed>0.0</speed>
  <fix>3d</fix>
</trkpt>
<trkpt lat="33.810313" lon="-118.393867">
  <ele>-0.132</ele>
  <time>2026-09-02T22:07:11Z</time>
  <course>188.55</course>
  <speed>0.0</speed>
  <fix>3d</fix>
</trkpt>
<trkpt lat="33.810313" lon="-118.393867">
  <ele>-0.12</ele>
  <time>2026-09-02T22:07:11Z</time>
  <course>0.0</course>
  <speed>0.0</speed>
  <fix>3d</fix>
</trkpt>
<trkpt lat="33.810313" lon="-118.393867">
  <ele>-0.132</ele>
  <time>2026-09-02T22:07:11Z</time>
  <course>188.55</course>
  <speed>0.0</speed>
  <fix>3d</fix>
</trkpt>
<trkpt lat="33.810313" lon="-118.393867">
  <ele>-0.12</ele>
  <time>2026-09-02T22:07:11Z</time>
  <course>0.0</course>
  <speed>0.0</speed>
  <fix>3d</fix>
</trkpt>
<trkpt lat="33.810313" lon="-118.393867">
  <ele>-0.131</ele>
  <time>2026-09-02T22:07:11Z</time>
  <course>188.55</course>
  <speed>0.0</speed>
  <fix>3d</fix>
</trkpt>
<trkpt lat="33.810313" lon="-118.393867">
  <ele>-0.12</ele>
  <time>2026-09-02T22:07:11Z</time>
  <course>0.0</course>
  <speed>0.0</speed>
  <fix>3d</fix>
</trkpt>
<trkpt lat="33.810313" lon="-118.393867">
  <ele>-0.129</ele>
  <time>2026-09-02T22:07:11Z</time>
  <course>188.54</course>
  <speed>0.0</speed>
  <fix>3d</fix>
</trkpt>
<trkpt lat="33.810313" lon="-118.393867">
  <ele>-0.13</ele>
  <time>2026-09-02T22:07:11Z</time>
  <course>0.0</course>
  <speed>0.0</speed>
  <fix>3d</fix>
</trkpt>
<trkpt lat="33.810313" lon="-118.393867">
  <ele>-0.128</ele>
  <time>2026-09-02T22:07:11Z</time>
  <course>188.54</course>
  <speed>0.0</speed>
  <fix>3d</fix>
</trkpt>
<trkpt lat="33.810313" lon="-118.393867">
  <ele>-0.13</ele>
  <time>2026-09-02T22:07:11Z</time>
  <course>0.0</course>
  <speed>0.0</speed>
  <fix>3d</fix>
</trkpt>
<trkpt lat="33.810313" lon="-118.393867">
  <ele>-0.125</ele>
  <time>2026-09-02T22:07:11Z</time>
  <course>188.53</course>
  <speed>0.0</speed>
  <fix>3d</fix>
</trkpt>
<trkpt lat="33.810313" lon="-118.393867">
  <ele>-0.12</ele>
  <time>2026-09-02T22:07:11Z</time>
  <course>0.0</course>
  <speed>0.0</speed>
  <fix>3d</fix>
</trkpt>
<trkpt lat="33.810313" lon="-118.393867">
  <ele>-0.123</ele>
  <time>2026-09-02T22:07:11Z</time>
  <course>188.53</course>
  <speed>0.0</speed>
  <fix>3d</fix>
</trkpt>
<trkpt lat="33.810313" lon="-118.393867">
  <ele>-0.12</ele>
  <time>2026-09-02T22:07:11Z</time>
  <course>0.0</course>
  <speed>0.0</speed>
  <fix>3d</fix>
</trkpt>
<trkpt lat="33.810313" lon="-118.393867">
  <ele>-0.121</ele>
  <time>2026-09-02T22:07:11Z</time>
  <course>188.52</course>
  <speed>0.0</speed>
  <fix>3d</fix>
</trkpt>
<trkpt lat="33.810313" lon="-118.393867">
  <ele>-0.12</ele>
  <time>2026-09-02T22:07:11Z</time>
  <course>0.0</course>
  <speed>0.0</speed>
  <fix>3d</fix>
</trkpt>
<trkpt lat="33.810313" lon="-118.393867">
  <ele>-0.121</ele>
  <time>2026-09-02T22:07:11Z</time>
  <course>188.52</course>
  <speed>0.0</speed>
  <fix>3d</fix>
</trkpt>
<trkpt lat="33.810313" lon="-118.393867">
  <ele>-0.12</ele>
  <time>2026-09-02T22:07:11Z</time>
  <course>0.0</course>
  <speed>0.0</speed>
  <fix>3d</fix>
</trkpt>
<trkpt lat="33.810313" lon="-118.393867">
  <ele>-0.121</ele>
  <time>2026-09-02T22:07:11Z</time>
  <course>188.51</course>
  <speed>0.0</speed>
  <fix>3d</fix>
</trkpt>
<trkpt lat="33.810313" lon="-118.393867">
  <ele>-0.12</ele>
  <time>2026-09-02T22:07:11Z</time>
  <course>0.0</course>
  <speed>0.0</speed>
  <fix>3d</fix>
</trkpt>
<trkpt lat="33.810313" lon="-118.393867">
  <ele>-0.123</ele>
  <time>2026-09-02T22:07:11Z</time>
  <course>188.51</course>
  <speed>0.0</speed>
  <fix>3d</fix>
</trkpt>
<trkpt lat="33.810313" lon="-118.393867">
  <ele>-0.12</ele>
  <time>2026-09-02T22:07:11Z</time>
  <course>0.0</course>
  <speed>0.0</speed>
  <fix>3d</fix>
</trkpt>
<trkpt lat="33.810313" lon="-118.393867">
  <ele>-0.126</ele>
  <time>2026-09-02T22:07:11Z</time>
  <course>188.5</course>
  <speed>0.0</speed>
  <fix>3d</fix>
</trkpt>
<trkpt lat="33.810313" lon="-118.393867">
  <ele>-0.12</ele>
  <time>2026-09-02T22:07:11Z</time>
  <course>0.0</course>
  <speed>0.0</speed>
  <fix>3d</fix>
</trkpt>
<trkpt lat="33.810313" lon="-118.393867">
  <ele>-0.127</ele>
  <time>2026-09-02T22:07:11Z</time>
  <course>188.5</course>
  <speed>0.0</speed>
  <fix>3d</fix>
</trkpt>
<trkpt lat="33.810313" lon="-118.393867">
  <ele>-0.12</ele>
  <time>2026-09-02T22:07:11Z</time>
  <course>0.0</course>
  <speed>0.0</speed>
  <fix>3d</fix>
</trkpt>
<trkpt lat="33.810313" lon="-118.393867">
  <ele>-0.128</ele>
  <time>2026-09-02T22:07:11Z</time>
  <course>188.49</course>
  <speed>0.0</speed>
  <fix>3d</fix>
</trkpt>
<trkpt lat="33.810313" lon="-118.393867">
  <ele>-0.12</ele>
  <time>2026-09-02T22:07:11Z</time>
  <course>0.0</course>
  <speed>0.0</speed>
  <fix>3d</fix>
</trkpt>
<trkpt lat="33.810313" lon="-118.393867">
  <ele>-0.127</ele>
  <time>2026-09-02T22:07:11Z</time>
  <course>188.49</course>
  <speed>0.0</speed>
  <fix>3d</fix>
</trkpt>
<trkpt lat="33.810313" lon="-118.393867">
  <ele>-0.12</ele>
  <time>2026-09-02T22:07:11Z</time>
  <course>0.0</course>
  <speed>0.0</speed>
  <fix>3d</fix>
</trkpt>
<trkpt lat="33.810313" lon="-118.393867">
  <ele>-0.127</ele>
  <time>2026-09-02T22:07:11Z</time>
  <course>188.48</course>
  <speed>0.0</speed>
  <fix>3d</fix>
</trkpt>
<trkpt lat="33.810313" lon="-118.393867">
  <ele>-0.12</ele>
  <time>2026-09-02T22:07:11Z</time>
  <course>0.0</course>
  <speed>0.0</speed>
  <fix>3d</fix>
</trkpt>
<trkpt lat="33.810313" lon="-118.393867">
  <ele>-0.127</ele>
  <time>2026-09-02T22:07:11Z</time>
  <course>188.47</course>
  <speed>0.01</speed>
  <fix>3d</fix>
</trkpt>
<trkpt lat="33.810313" lon="-118.393867">
  <ele>-0.12</ele>
  <time>2026-09-02T22:07:11Z</time>
  <course>0.0</course>
  <speed>0.0</speed>
  <fix>3d</fix>
</trkpt>
<trkpt lat="33.810313" lon="-118.393867">
  <ele>-0.127</ele>
  <time>2026-09-02T22:07:11Z</time>
  <course>188.47</course>
  <speed>0.01</speed>
  <fix>3d</fix>
</trkpt>
<trkpt lat="33.810313" lon="-118.393867">
  <ele>-0.12</ele>
  <time>2026-09-02T22:07:11Z</time>
  <course>0.0</course>
  <speed>0.0</speed>
  <fix>3d</fix>
</trkpt>
<trkpt lat="33.810313" lon="-118.393867">
  <ele>-0.127</ele>
  <time>2026-09-02T22:07:11Z</time>
  <course>188.46</course>
  <speed>0.01</speed>
  <fix>3d</fix>
</trkpt>
<trkpt lat="33.810313" lon="-118.393867">
  <ele>-0.12</ele>
  <time>2026-09-02T22:07:11Z</time>
  <course>0.0</course>
  <speed>0.0</speed>
  <fix>3d</fix>
</trkpt>
<trkpt lat="33.810313" lon="-118.393867">
  <ele>-0.126</ele>
  <time>2026-09-02T22:07:11Z</time>
  <course>188.45</course>
  <speed>0.01</speed>
  <fix>3d</fix>
</trkpt>
<trkpt lat="33.810313" lon="-118.393867">
  <ele>-0.12</ele>
  <time>2026-09-02T22:07:11Z</time>
  <course>0.0</course>
  <speed>0.0</speed>
  <fix>3d</fix>
</trkpt>
<trkpt lat="33.810313" lon="-118.393867">
  <ele>-0.126</ele>
  <time>2026-09-02T22:07:11Z</time>
  <course>188.45</course>
  <speed>0.01</speed>
  <fix>3d</fix>
</trkpt>
<trkpt lat="33.810313" lon="-118.393867">
  <ele>-0.12</ele>
  <time>2026-09-02T22:07:11Z</time>
  <course>0.0</course>
  <speed>0.0</speed>
  <fix>3d</fix>
</trkpt>
<trkpt lat="33.810313" lon="-118.393867">
  <ele>-0.125</ele>
  <time>2026-09-02T22:07:11Z</time>
  <course>188.44</course>
  <speed>0.01</speed>
  <fix>3d</fix>
</trkpt>
<trkpt lat="33.810313" lon="-118.393867">
  <ele>-0.12</ele>
  <time>2026-09-02T22:07:11Z</time>
  <course>0.0</course>
  <speed>0.0</speed>
  <fix>3d</fix>
</trkpt>
<trkpt lat="33.810313" lon="-118.393867">
  <ele>-0.126</ele>
  <time>2026-09-02T22:07:11Z</time>
  <course>188.43</course>
  <speed>0.01</speed>
  <fix>3d</fix>
</trkpt>
<trkpt lat="33.810313" lon="-118.393867">
  <ele>-0.12</ele>
  <time>2026-09-02T22:07:11Z</time>
  <course>0.0</course>
  <speed>0.0</speed>
  <fix>3d</fix>
</trkpt>
<trkpt lat="33.810313" lon="-118.393867">
  <ele>-0.127</ele>
  <time>2026-09-02T22:07:11Z</time>
  <course>188.42</course>
  <speed>0.01</speed>
  <fix>3d</fix>
</trkpt>
<trkpt lat="33.810313" lon="-118.393867">
  <ele>-0.12</ele>
  <time>2026-09-02T22:07:11Z</time>
  <course>0.0</course>
  <speed>0.0</speed>
  <fix>3d</fix>
</trkpt>
<trkpt lat="33.810313" lon="-118.393867">
  <ele>-0.128</ele>
  <time>2026-09-02T22:07:11Z</time>
  <course>188.42</course>
  <speed>0.01</speed>
  <fix>3d</fix>
</trkpt>
<trkpt lat="33.810313" lon="-118.393867">
  <ele>-0.12</ele>
  <time>2026-09-02T22:07:11Z</time>
  <course>0.0</course>
  <speed>0.0</speed>
  <fix>3d</fix>
</trkpt>
<trkpt lat="33.810313" lon="-118.393867">
  <ele>-0.129</ele>
  <time>2026-09-02T22:07:11Z</time>
  <course>188.41</course>
  <speed>0.01</speed>
  <fix>3d</fix>
</trkpt>
<trkpt lat="33.810313" lon="-118.393867">
  <ele>-0.12</ele>
  <time>2026-09-02T22:07:11Z</time>
  <course>0.0</course>
  <speed>0.0</speed>
  <fix>3d</fix>
</trkpt>
<trkpt lat="33.810313" lon="-118.393867">
  <ele>-0.129</ele>
  <time>2026-09-02T22:07:11Z</time>
  <course>188.4</course>
  <speed>0.01</speed>
  <fix>3d</fix>
</trkpt>
<trkpt lat="33.810313" lon="-118.393867">
  <ele>-0.12</ele>
  <time>2026-09-02T22:07:11Z</time>
  <course>0.0</course>
  <speed>0.0</speed>
  <fix>3d</fix>
</trkpt>
<trkpt lat="33.810313" lon="-118.393867">
  <ele>-0.13</ele>
  <time>2026-09-02T22:07:11Z</time>
  <course>188.4</course>
  <speed>0.01414213562373095</speed>
  <fix>3d</fix>
</trkpt>
<trkpt lat="33.810313" lon="-118.393867">
  <ele>-0.12</ele>
  <time>2026-09-02T22:07:11Z</time>
  <course>0.0</course>
  <speed>0.0</speed>
  <fix>3d</fix>
</trkpt>
<trkpt lat="33.810313" lon="-118.393867">
  <ele>-0.13</ele>
  <time>2026-09-02T22:07:11Z</time>
  <course>188.39</course>
  <speed>0.01414213562373095</speed>
  <fix>3d</fix>
</trkpt>
<trkpt lat="33.810313" lon="-118.393867">
  <ele>-0.12</ele>
  <time>2026-09-02T22:07:11Z</time>
  <course>0.0</course>
  <speed>0.0</speed>
  <fix>3d</fix>
</trkpt>
<trkpt lat="33.810313" lon="-118.393867">
  <ele>-0.13</ele>
  <time>2026-09-02T22:07:11Z</time>
  <course>188.38</course>
  <speed>0.01414213562373095</speed>
  <fix>3d</fix>
</trkpt>
<trkpt lat="33.810313" lon="-118.393867">
  <ele>-0.12</ele>
  <time>2026-09-02T22:07:11Z</time>
  <course>0.0</course>
  <speed>0.0</speed>
  <fix>3d</fix>
</trkpt>
<trkpt lat="33.810313" lon="-118.393867">
  <ele>-0.129</ele>
  <time>2026-09-02T22:07:11Z</time>
  <course>188.37</course>
  <speed>0.01414213562373095</speed>
  <fix>3d</fix>
</trkpt>
<trkpt lat="33.810313" lon="-118.393867">
  <ele>-0.12</ele>
  <time>2026-09-02T22:07:11Z</time>
  <course>0.0</course>
  <speed>0.0</speed>
  <fix>3d</fix>
</trkpt>
<trkpt lat="33.810313" lon="-118.393867">
  <ele>-0.128</ele>
  <time>2026-09-02T22:07:11Z</time>
  <course>188.37</course>
  <speed>0.01414213562373095</speed>
  <fix>3d</fix>
</trkpt>
<trkpt lat="33.810313" lon="-118.393867">
  <ele>-0.12</ele>
  <time>2026-09-02T22:07:11Z</time>
  <course>0.0</course>
  <speed>0.0</speed>
  <fix>3d</fix>
</trkpt>
<trkpt lat="33.810313" lon="-118.393867">
  <ele>-0.126</ele>
  <time>2026-09-02T22:07:11Z</time>
  <course>188.36</course>
  <speed>0.01414213562373095</speed>
  <fix>3d</fix>
</trkpt>
<trkpt lat="33.810313" lon="-118.393867">
  <ele>-0.12</ele>
  <time>2026-09-02T22:07:11Z</time>
  <course>0.0</course>
  <speed>0.0</speed>
  <fix>3d</fix>
</trkpt>
<trkpt lat="33.810313" lon="-118.393867">
  <ele>-0.124</ele>
  <time>2026-09-02T22:07:11Z</time>
  <course>188.35</course>
  <speed>0.01414213562373095</speed>
  <fix>3d</fix>
</trkpt>
<trkpt lat="33.810313" lon="-118.393867">
  <ele>-0.12</ele>
  <time>2026-09-02T22:07:11Z</time>
  <course>0.0</course>
  <speed>0.0</speed>
  <fix>3d</fix>
</trkpt>
<trkpt lat="33.810313" lon="-118.393867">
  <ele>-0.122</ele>
  <time>2026-09-02T22:07:11Z</time>
  <course>188.34</course>
  <speed>0.01414213562373095</speed>
  <fix>3d</fix>
</trkpt>
<trkpt lat="33.810313" lon="-118.393867">
  <ele>-0.12</ele>
  <time>2026-09-02T22:07:11Z</time>
  <course>0.0</course>
  <speed>0.0</speed>
  <fix>3d</fix>
</trkpt>
<trkpt lat="33.810313" lon="-118.393867">
  <ele>-0.123</ele>
  <time>2026-09-02T22:07:11Z</time>
  <course>188.34</course>
  <speed>0.01414213562373095</speed>
  <fix>3d</fix>
</trkpt>
<trkpt lat="33.810313" lon="-118.393867">
  <ele>-0.12</ele>
  <time>2026-09-02T22:07:11Z</time>
  <course>0.0</course>
  <speed>0.0</speed>
  <fix>3d</fix>
</trkpt>
<trkpt lat="33.810313" lon="-118.393867">
  <ele>-0.125</ele>
  <time>2026-09-02T22:07:11Z</time>
  <course>188.33</course>
  <speed>0.01414213562373095</speed>
  <fix>3d</fix>
</trkpt>
<trkpt lat="33.810313" lon="-118.393867">
  <ele>-0.12</ele>
  <time>2026-09-02T22:07:11Z</time>
  <course>0.0</course>
  <speed>0.0</speed>
  <fix>3d</fix>
</trkpt>
<trkpt lat="33.810313" lon="-118.393867">
  <ele>-0.128</ele>
  <time>2026-09-02T22:07:11Z</time>
  <course>188.32</course>
  <speed>0.01414213562373095</speed>
  <fix>3d</fix>
</trkpt>
<trkpt lat="33.810313" lon="-118.393867">
  <ele>-0.12</ele>
  <time>2026-09-02T22:07:11Z</time>
  <course>0.0</course>
  <speed>0.0</speed>
  <fix>3d</fix>
</trkpt>
<trkpt lat="33.810313" lon="-118.393867">
  <ele>-0.131</ele>
  <time>2026-09-02T22:07:11Z</time>
  <course>188.31</course>
  <speed>0.01414213562373095</speed>
  <fix>3d</fix>
</trkpt>
<trkpt lat="33.810313" lon="-118.393867">
  <ele>-0.12</ele>
  <time>2026-09-02T22:07:11Z</time>
  <course>0.0</course>
  <speed>0.0</speed>
  <fix>3d</fix>
</trkpt>
<trkpt lat="33.810313" lon="-118.393867">
  <ele>-0.134</ele>
  <time>2026-09-02T22:07:11Z</time>
  <course>188.3</course>
  <speed>0.01414213562373095</speed>
  <fix>3d</fix>
</trkpt>
<trkpt lat="33.810313" lon="-118.393867">
  <ele>-0.12</ele>
  <time>2026-09-02T22:07:11Z</time>
  <course>0.0</course>
  <speed>0.0</speed>
  <fix>3d</fix>
</trkpt>
<trkpt lat="33.810313" lon="-118.393867">
  <ele>-0.135</ele>
  <time>2026-09-02T22:07:11Z</time>
  <course>188.3</course>
  <speed>0.01414213562373095</speed>
  <fix>3d</fix>
</trkpt>
<trkpt lat="33.810313" lon="-118.393867">
  <ele>-0.12</ele>
  <time>2026-09-02T22:07:11Z</time>
  <course>0.0</course>
  <speed>0.0</speed>
  <fix>3d</fix>
</trkpt>
<trkpt lat="33.810313" lon="-118.393867">
  <ele>-0.134</ele>
  <time>2026-09-02T22:07:11Z</time>
  <course>188.29</course>
  <speed>0.01414213562373095</speed>
  <fix>3d</fix>
</trkpt>
<trkpt lat="33.810313" lon="-118.393867">
  <ele>-0.12</ele>
  <time>2026-09-02T22:07:11Z</time>
  <course>0.0</course>
  <speed>0.0</speed>
  <fix>3d</fix>
</trkpt>
<trkpt lat="33.810313" lon="-118.393867">
  <ele>-0.132</ele>
  <time>2026-09-02T22:07:11Z</time>
  <course>188.28</course>
  <speed>0.01414213562373095</speed>
  <fix>3d</fix>
</trkpt>
<trkpt lat="33.810313" lon="-118.393867">
  <ele>-0.12</ele>
  <time>2026-09-02T22:07:11Z</time>
  <course>0.0</course>
  <speed>0.0</speed>
  <fix>3d</fix>
</trkpt>
<trkpt lat="33.810313" lon="-118.393867">
  <ele>-0.13</ele>
  <time>2026-09-02T22:07:11Z</time>
  <course>188.27</course>
  <speed>0.01414213562373095</speed>
  <fix>3d</fix>
</trkpt>
<trkpt lat="33.810313" lon="-118.393867">
  <ele>-0.12</ele>
  <time>2026-09-02T22:07:11Z</time>
  <course>0.0</course>
  <speed>0.0</speed>
  <fix>3d</fix>
</trkpt>
<trkpt lat="33.810313" lon="-118.393867">
  <ele>-0.127</ele>
  <time>2026-09-02T22:07:11Z</time>
  <course>188.26</course>
  <speed>0.01414213562373095</speed>
  <fix>3d</fix>
</trkpt>
<trkpt lat="33.810313" lon="-118.393867">
  <ele>-0.12</ele>
  <time>2026-09-02T22:07:11Z</time>
  <course>0.0</course>
  <speed>0.0</speed>
  <fix>3d</fix>
</trkpt>
<trkpt lat="33.810313" lon="-118.393867">
  <ele>-0.125</ele>
  <time>2026-09-02T22:07:11Z</time>
  <course>188.25</course>
  <speed>0.01414213562373095</speed>
  <fix>3d</fix>
</trkpt>
<trkpt lat="33.810313" lon="-118.393867">
  <ele>-0.12</ele>
  <time>2026-09-02T22:07:11Z</time>
  <course>0.0</course>
  <speed>0.0</speed>
  <fix>3d</fix>
</trkpt>
<trkpt lat="33.810313" lon="-118.393867">
  <ele>-0.123</ele>
  <time>2026-09-02T22:07:11Z</time>
  <course>188.25</course>
  <speed>0.01414213562373095</speed>
  <fix>3d</fix>
</trkpt>
<trkpt lat="33.810313" lon="-118.393867">
  <ele>-0.12</ele>
  <time>2026-09-02T22:07:11Z</time>
  <course>0.0</course>
  <speed>0.0</speed>
  <fix>3d</fix>
</trkpt>
<trkpt lat="33.810313" lon="-118.393867">
  <ele>-0.124</ele>
  <time>2026-09-02T22:07:11Z</time>
  <course>188.24</course>
  <speed>0.01414213562373095</speed>
  <fix>3d</fix>
</trkpt>
<trkpt lat="33.810313" lon="-118.393867">
  <ele>-0.12</ele>
  <time>2026-09-02T22:07:11Z</time>
  <course>0.0</course>
  <speed>0.0</speed>
  <fix>3d</fix>
</trkpt>
<trkpt lat="33.810313" lon="-118.393867">
  <ele>-0.125</ele>
  <time>2026-09-02T22:07:11Z</time>
  <course>188.23</course>
  <speed>0.01414213562373095</speed>
  <fix>3d</fix>
</trkpt>
<trkpt lat="33.810313" lon="-118.393867">
  <ele>-0.12</ele>
  <time>2026-09-02T22:07:11Z</time>
  <course>0.0</course>
  <speed>0.0</speed>
  <fix>3d</fix>
</trkpt>
<trkpt lat="33.810313" lon="-118.393867">
  <ele>-0.127</ele>
  <time>2026-09-02T22:07:11Z</time>
  <course>188.22</course>
  <speed>0.01414213562373095</speed>
  <fix>3d</fix>
</trkpt>
<trkpt lat="33.810313" lon="-118.393867">
  <ele>-0.12</ele>
  <time>2026-09-02T22:07:11Z</time>
  <course>0.0</course>
  <speed>0.0</speed>
  <fix>3d</fix>
</trkpt>
<trkpt lat="33.810313" lon="-118.393867">
  <ele>-0.128</ele>
  <time>2026-09-02T22:07:11Z</time>
  <course>188.21</course>
  <speed>0.01414213562373095</speed>
  <fix>3d</fix>
</trkpt>
<trkpt lat="33.810313" lon="-118.393867">
  <ele>-0.12</ele>
  <time>2026-09-02T22:07:11Z</time>
  <course>0.0</course>
  <speed>0.0</speed>
  <fix>3d</fix>
</trkpt>
<trkpt lat="33.810313" lon="-118.393867">
  <ele>-0.129</ele>
  <time>2026-09-02T22:07:11Z</time>
  <course>188.21</course>
  <speed>0.01414213562373095</speed>
  <fix>3d</fix>
</trkpt>
<trkpt lat="33.810313" lon="-118.393867">
  <ele>-0.12</ele>
  <time>2026-09-02T22:07:11Z</time>
  <course>0.0</course>
  <speed>0.0</speed>
  <fix>3d</fix>
</trkpt>
<trkpt lat="33.810313" lon="-118.393867">
  <ele>-0.129</ele>
  <time>2026-09-02T22:07:11Z</time>
  <course>188.2</course>
  <speed>0.01414213562373095</speed>
  <fix>3d</fix>
</trkpt>
<trkpt lat="33.810313" lon="-118.393867">
  <ele>-0.12</ele>
  <time>2026-09-02T22:07:11Z</time>
  <course>0.0</course>
  <speed>0.0</speed>
  <fix>3d</fix>
</trkpt>
<trkpt lat="33.810313" lon="-118.393867">
  <ele>-0.128</ele>
  <time>2026-09-02T22:07:11Z</time>
  <course>188.19</course>
  <speed>0.01414213562373095</speed>
  <fix>3d</fix>
</trkpt>
<trkpt lat="33.810313" lon="-118.393867">
  <ele>-0.12</ele>
  <time>2026-09-02T22:07:11Z</time>
  <course>0.0</course>
  <speed>0.0</speed>
  <fix>3d</fix>
</trkpt>
<trkpt lat="33.810313" lon="-118.393867">
  <ele>-0.128</ele>
  <time>2026-09-02T22:07:11Z</time>
  <course>188.18</course>
  <speed>0.01414213562373095</speed>
  <fix>3d</fix>
</trkpt>
<trkpt lat="33.810313" lon="-118.393867">
  <ele>-0.12</ele>
  <time>2026-09-02T22:07:11Z</time>
  <course>0.0</course>
  <speed>0.0</speed>
  <fix>3d</fix>
</trkpt>
<trkpt lat="33.810313" lon="-118.393867">
  <ele>-0.127</ele>
  <time>2026-09-02T22:07:11Z</time>
  <course>188.17</course>
  <speed>0.01414213562373095</speed>
  <fix>3d</fix>
</trkpt>
<trkpt lat="33.810313" lon="-118.393867">
  <ele>-0.12</ele>
  <time>2026-09-02T22:07:11Z</time>
  <course>0.0</course>
  <speed>0.0</speed>
  <fix>3d</fix>
</trkpt>
<trkpt lat="33.810313" lon="-118.393867">
  <ele>-0.127</ele>
  <time>2026-09-02T22:07:11Z</time>
  <course>188.16</course>
  <speed>0.01414213562373095</speed>
  <fix>3d</fix>
</trkpt>
<trkpt lat="33.810313" lon="-118.393867">
  <ele>-0.12</ele>
  <time>2026-09-02T22:07:11Z</time>
  <course>0.0</course>
  <speed>0.0</speed>
  <fix>3d</fix>
</trkpt>
<trkpt lat="33.810313" lon="-118.393867">
  <ele>-0.128</ele>
  <time>2026-09-02T22:07:11Z</time>
  <course>188.16</course>
  <speed>0.01414213562373095</speed>
  <fix>3d</fix>
</trkpt>
<trkpt lat="33.810313" lon="-118.393867">
  <ele>-0.12</ele>
  <time>2026-09-02T22:07:11Z</time>
  <course>0.0</course>
  <speed>0.0</speed>
  <fix>3d</fix>
</trkpt>
<trkpt lat="33.810313" lon="-118.393867">
  <ele>-0.129</ele>
  <time>2026-09-02T22:07:11Z</time>
  <course>188.15</course>
  <speed>0.01414213562373095</speed>
  <fix>3d</fix>
</trkpt>
<trkpt lat="33.810313" lon="-118.393867">
  <ele>-0.12</ele>
  <time>2026-09-02T22:07:11Z</time>
  <course>0.0</course>
  <speed>0.0</speed>
  <fix>3d</fix>
</trkpt>
<trkpt lat="33.810313" lon="-118.393867">
  <ele>-0.131</ele>
  <time>2026-09-02T22:07:11Z</time>
  <course>188.14</course>
  <speed>0.01414213562373095</speed>
  <fix>3d</fix>
</trkpt>
<trkpt lat="33.810313" lon="-118.393867">
  <ele>-0.12</ele>
  <time>2026-09-02T22:07:11Z</time>
  <course>0.0</course>
  <speed>0.0</speed>
  <fix>3d</fix>
</trkpt>
<trkpt lat="33.810313" lon="-118.393867">
  <ele>-0.133</ele>
  <time>2026-09-02T22:07:11Z</time>
  <course>188.13</course>
  <speed>0.01414213562373095</speed>
  <fix>3d</fix>
</trkpt>
<trkpt lat="33.810313" lon="-118.393867">
  <ele>-0.12</ele>
  <time>2026-09-02T22:07:11Z</time>
  <course>0.0</course>
  <speed>0.0</speed>
  <fix>3d</fix>
</trkpt>
<trkpt lat="33.810313" lon="-118.393867">
  <ele>-0.135</ele>
  <time>2026-09-02T22:07:11Z</time>
  <course>188.12</course>
  <speed>0.01414213562373095</speed>
  <fix>3d</fix>
</trkpt>
<trkpt lat="33.810313" lon="-118.393867">
  <ele>-0.12</ele>
  <time>2026-09-02T22:07:11Z</time>
  <course>0.0</course>
  <speed>0.0</speed>
  <fix>3d</fix>
</trkpt>
<trkpt lat="33.810313" lon="-118.393867">
  <ele>-0.136</ele>
  <time>2026-09-02T22:07:11Z</time>
  <course>188.12</course>
  <speed>0.01414213562373095</speed>
  <fix>3d</fix>
</trkpt>
<trkpt lat="33.810313" lon="-118.393867">
  <ele>-0.12</ele>
  <time>2026-09-02T22:07:11Z</time>
  <course>0.0</course>
  <speed>0.0</speed>
  <fix>3d</fix>
</trkpt>
<trkpt lat="33.810313" lon="-118.393867">
  <ele>-0.136</ele>
  <time>2026-09-02T22:07:11Z</time>
  <course>188.11</course>
  <speed>0.01414213562373095</speed>
  <fix>3d</fix>
</trkpt>
<trkpt lat="33.810313" lon="-118.393867">
  <ele>-0.12</ele>
  <time>2026-09-02T22:07:11Z</time>
  <course>0.0</course>
  <speed>0.0</speed>
  <fix>3d</fix>
</trkpt>
<trkpt lat="33.810313" lon="-118.393867">
  <ele>-0.136</ele>
  <time>2026-09-02T22:07:11Z</time>
  <course>188.1</course>
  <speed>0.01414213562373095</speed>
  <fix>3d</fix>
</trkpt>
<trkpt lat="33.810313" lon="-118.393867">
  <ele>-0.12</ele>
  <time>2026-09-02T22:07:11Z</time>
  <course>0.0</course>
  <speed>0.0</speed>
  <fix>3d</fix>
</trkpt>
<trkpt lat="33.810313" lon="-118.393867">
  <ele>-0.135</ele>
  <time>2026-09-02T22:07:11Z</time>
  <course>188.09</course>
  <speed>0.01414213562373095</speed>
  <fix>3d</fix>
</trkpt>
<trkpt lat="33.810313" lon="-118.393867">
  <ele>-0.12</ele>
  <time>2026-09-02T22:07:11Z</time>
  <course>0.0</course>
  <speed>0.0</speed>
  <fix>3d</fix>
</trkpt>
<trkpt lat="33.810313" lon="-118.393867">
  <ele>-0.134</ele>
  <time>2026-09-02T22:07:11Z</time>
  <course>188.08</course>
  <speed>0.01414213562373095</speed>
  <fix>3d</fix>
</trkpt>
<trkpt lat="33.810313" lon="-118.393867">
  <ele>-0.12</ele>
  <time>2026-09-02T22:07:11Z</time>
  <course>0.0</course>
  <speed>0.0</speed>
  <fix>3d</fix>
</trkpt>
<trkpt lat="33.810313" lon="-118.393867">
  <ele>-0.131</ele>
  <time>2026-09-02T22:07:11Z</time>
  <course>188.07</course>
  <speed>0.022360679774997897</speed>
  <fix>3d</fix>
</trkpt>
<trkpt lat="33.810313" lon="-118.393867">
  <ele>-0.12</ele>
  <time>2026-09-02T22:07:11Z</time>
  <course>0.0</course>
  <speed>0.0</speed>
  <fix>3d</fix>
</trkpt>
<trkpt lat="33.810313" lon="-118.393867">
  <ele>-0.128</ele>
  <time>2026-09-02T22:07:11Z</time>
  <course>188.07</course>
  <speed>0.022360679774997897</speed>
  <fix>3d</fix>
</trkpt>
<trkpt lat="33.810313" lon="-118.393867">
  <ele>-0.12</ele>
  <time>2026-09-02T22:07:11Z</time>
  <course>0.0</course>
  <speed>0.0</speed>
  <fix>3d</fix>
</trkpt>
<trkpt lat="33.810313" lon="-118.393867">
  <ele>-0.127</ele>
  <time>2026-09-02T22:07:11Z</time>
  <course>188.06</course>
  <speed>0.022360679774997897</speed>
  <fix>3d</fix>
</trkpt>
<trkpt lat="33.810313" lon="-118.393867">
  <ele>-0.12</ele>
  <time>2026-09-02T22:07:11Z</time>
  <course>0.0</course>
  <speed>0.0</speed>
  <fix>3d</fix>
</trkpt>
<trkpt lat="33.810313" lon="-118.393867">
  <ele>-0.126</ele>
  <time>2026-09-02T22:07:11Z</time>
  <course>188.05</course>
  <speed>0.022360679774997897</speed>
  <fix>3d</fix>
</trkpt>
<trkpt lat="33.810313" lon="-118.393867">
  <ele>-0.12</ele>
  <time>2026-09-02T22:07:11Z</time>
  <course>0.0</course>
  <speed>0.0</speed>
  <fix>3d</fix>
</trkpt>
<trkpt lat="33.810313" lon="-118.393867">
  <ele>-0.126</ele>
  <time>2026-09-02T22:07:11Z</time>
  <course>188.04</course>
  <speed>0.022360679774997897</speed>
  <fix>3d</fix>
</trkpt>
<trkpt lat="33.810313" lon="-118.393867">
  <ele>-0.12</ele>
  <time>2026-09-02T22:07:11Z</time>
  <course>0.0</course>
  <speed>0.0</speed>
  <fix>3d</fix>
</trkpt>
<trkpt lat="33.810313" lon="-118.393867">
  <ele>-0.127</ele>
  <time>2026-09-02T22:07:11Z</time>
  <course>188.03</course>
  <speed>0.022360679774997897</speed>
  <fix>3d</fix>
</trkpt>
<trkpt lat="33.810313" lon="-118.393867">
  <ele>-0.12</ele>
  <time>2026-09-02T22:07:11Z</time>
  <course>0.0</course>
  <speed>0.0</speed>
  <fix>3d</fix>
</trkpt>
<trkpt lat="33.810313" lon="-118.393867">
  <ele>-0.127</ele>
  <time>2026-09-02T22:07:11Z</time>
  <course>188.03</course>
  <speed>0.022360679774997897</speed>
  <fix>3d</fix>
</trkpt>
<trkpt lat="33.810313" lon="-118.393867">
  <ele>-0.12</ele>
  <time>2026-09-02T22:07:11Z</time>
  <course>0.0</course>
  <speed>0.0</speed>
  <fix>3d</fix>
</trkpt>
<trkpt lat="33.810313" lon="-118.393867">
  <ele>-0.127</ele>
  <time>2026-09-02T22:07:11Z</time>
  <course>188.02</course>
  <speed>0.022360679774997897</speed>
  <fix>3d</fix>
</trkpt>
<trkpt lat="33.810313" lon="-118.393867">
  <ele>-0.12</ele>
  <time>2026-09-02T22:07:11Z</time>
  <course>0.0</course>
  <speed>0.0</speed>
  <fix>3d</fix>
</trkpt>
<trkpt lat="33.810313" lon="-118.393867">
  <ele>-0.128</ele>
  <time>2026-09-02T22:07:11Z</time>
  <course>188.01</course>
  <speed>0.022360679774997897</speed>
  <fix>3d</fix>
</trkpt>
<trkpt lat="33.810313" lon="-118.393867">
  <ele>-0.12</ele>
  <time>2026-09-02T22:07:11Z</time>
  <course>0.0</course>
  <speed>0.0</speed>
  <fix>3d</fix>
</trkpt>
<trkpt lat="33.810313" lon="-118.393867">
  <ele>-0.128</ele>
  <time>2026-09-02T22:07:11Z</time>
  <course>188.0</course>
  <speed>0.022360679774997897</speed>
  <fix>3d</fix>
</trkpt>
<trkpt lat="33.810313" lon="-118.393867">
  <ele>-0.12</ele>
  <time>2026-09-02T22:07:11Z</time>
  <course>0.0</course>
  <speed>0.0</speed>
  <fix>3d</fix>
</trkpt>
<trkpt lat="33.810313" lon="-118.393867">
  <ele>-0.128</ele>
  <time>2026-09-02T22:07:11Z</time>
  <course>187.99</course>
  <speed>0.022360679774997897</speed>
  <fix>3d</fix>
</trkpt>
<trkpt lat="33.810313" lon="-118.393867">
  <ele>-0.12</ele>
  <time>2026-09-02T22:07:11Z</time>
  <course>0.0</course>
  <speed>0.0</speed>
  <fix>3d</fix>
</trkpt>
<trkpt lat="33.810313" lon="-118.393867">
  <ele>-0.126</ele>
  <time>2026-09-02T22:07:11Z</time>
  <course>187.99</course>
  <speed>0.022360679774997897</speed>
  <fix>3d</fix>
</trkpt>
<trkpt lat="33.810313" lon="-118.393867">
  <ele>-0.12</ele>
  <time>2026-09-02T22:07:11Z</time>
  <course>0.0</course>
  <speed>0.0</speed>
  <fix>3d</fix>
</trkpt>
<trkpt lat="33.810313" lon="-118.393867">
  <ele>-0.124</ele>
  <time>2026-09-02T22:07:11Z</time>
  <course>187.98</course>
  <speed>0.022360679774997897</speed>
  <fix>3d</fix>
</trkpt>
<trkpt lat="33.810313" lon="-118.393867">
  <ele>-0.12</ele>
  <time>2026-09-02T22:07:11Z</time>
  <course>0.0</course>
  <speed>0.0</speed>
  <fix>3d</fix>
</trkpt>
<trkpt lat="33.810313" lon="-118.393867">
  <ele>-0.122</ele>
  <time>2026-09-02T22:07:11Z</time>
  <course>187.97</course>
  <speed>0.022360679774997897</speed>
  <fix>3d</fix>
</trkpt>
<trkpt lat="33.810313" lon="-118.393867">
  <ele>-0.12</ele>
  <time>2026-09-02T22:07:11Z</time>
  <course>0.0</course>
  <speed>0.0</speed>
  <fix>3d</fix>
</trkpt>
<trkpt lat="33.810313" lon="-118.393867">
  <ele>-0.12</ele>
  <time>2026-09-02T22:07:11Z</time>
  <course>187.96</course>
  <speed>0.022360679774997897</speed>
  <fix>3d</fix>
</trkpt>
<trkpt lat="33.810313" lon="-118.393867">
  <ele>-0.12</ele>
  <time>2026-09-02T22:07:11Z</time>
  <course>0.0</course>
  <speed>0.0</speed>
  <fix>3d</fix>
</trkpt>
<trkpt lat="33.810313" lon="-118.393867">
  <ele>-0.12</ele>
  <time>2026-09-02T22:07:11Z</time>
  <course>187.95</course>
  <speed>0.022360679774997897</speed>
  <fix>3d</fix>
</trkpt>
<trkpt lat="33.810313" lon="-118.393867">
  <ele>-0.12</ele>
  <time>2026-09-02T22:07:11Z</time>
  <course>0.0</course>
  <speed>0.0</speed>
  <fix>3d</fix>
</trkpt>
<trkpt lat="33.810313" lon="-118.393867">
  <ele>-0.122</ele>
  <time>2026-09-02T22:07:11Z</time>
  <course>187.94</course>
  <speed>0.022360679774997897</speed>
  <fix>3d</fix>
</trkpt>
<trkpt lat="33.810313" lon="-118.393867">
  <ele>-0.12</ele>
  <time>2026-09-02T22:07:11Z</time>
  <course>0.0</course>
  <speed>0.0</speed>
  <fix>3d</fix>
</trkpt>
<trkpt lat="33.810313" lon="-118.393867">
  <ele>-0.125</ele>
  <time>2026-09-02T22:07:11Z</time>
  <course>187.94</course>
  <speed>0.022360679774997897</speed>
  <fix>3d</fix>
</trkpt>
<trkpt lat="33.810313" lon="-118.393867">
  <ele>-0.12</ele>
  <time>2026-09-02T22:07:11Z</time>
  <course>0.0</course>
  <speed>0.0</speed>
  <fix>3d</fix>
</trkpt>
<trkpt lat="33.810313" lon="-118.393867">
  <ele>-0.128</ele>
  <time>2026-09-02T22:07:11Z</time>
  <course>187.93</course>
  <speed>0.022360679774997897</speed>
  <fix>3d</fix>
</trkpt>
<trkpt lat="33.810313" lon="-118.393867">
  <ele>-0.12</ele>
  <time>2026-09-02T22:07:11Z</time>
  <course>0.0</course>
  <speed>0.0</speed>
  <fix>3d</fix>
</trkpt>
<trkpt lat="33.810313" lon="-118.393867">
  <ele>-0.131</ele>
  <time>2026-09-02T22:07:11Z</time>
  <course>187.92</course>
  <speed>0.022360679774997897</speed>
  <fix>3d</fix>
</trkpt>
<trkpt lat="33.810313" lon="-118.393867">
  <ele>-0.12</ele>
  <time>2026-09-02T22:07:11Z</time>
  <course>0.0</course>
  <speed>0.0</speed>
  <fix>3d</fix>
</trkpt>
<trkpt lat="33.810313" lon="-118.393867">
  <ele>-0.132</ele>
  <time>2026-09-02T22:07:11Z</time>
  <course>187.91</course>
  <speed>0.022360679774997897</speed>
  <fix>3d</fix>
</trkpt>
<trkpt lat="33.810313" lon="-118.393867">
  <ele>-0.12</ele>
  <time>2026-09-02T22:07:11Z</time>
  <course>0.0</course>
  <speed>0.0</speed>
  <fix>3d</fix>
</trkpt>
<trkpt lat="33.810313" lon="-118.393867">
  <ele>-0.132</ele>
  <time>2026-09-02T22:07:11Z</time>
  <course>187.91</course>
  <speed>0.022360679774997897</speed>
  <fix>3d</fix>
</trkpt>
<trkpt lat="33.810313" lon="-118.393867">
  <ele>-0.12</ele>
  <time>2026-09-02T22:07:11Z</time>
  <course>0.0</course>
  <speed>0.0</speed>
  <fix>3d</fix>
</trkpt>
<trkpt lat="33.810313" lon="-118.393867">
  <ele>-0.132</ele>
  <time>2026-09-02T22:07:11Z</time>
  <course>187.9</course>
  <speed>0.022360679774997897</speed>
  <fix>3d</fix>
</trkpt>
<trkpt lat="33.810313" lon="-118.393867">
  <ele>-0.12</ele>
  <time>2026-09-02T22:07:11Z</time>
  <course>0.0</course>
  <speed>0.0</speed>
  <fix>3d</fix>
</trkpt>
<trkpt lat="33.810313" lon="-118.393867">
  <ele>-0.13</ele>
  <time>2026-09-02T22:07:11Z</time>
  <course>187.89</course>
  <speed>0.022360679774997897</speed>
  <fix>3d</fix>
</trkpt>
<trkpt lat="33.810313" lon="-118.393867">
  <ele>-0.12</ele>
  <time>2026-09-02T22:07:11Z</time>
  <course>0.0</course>
  <speed>0.0</speed>
  <fix>3d</fix>
</trkpt>
<trkpt lat="33.810313" lon="-118.393867">
  <ele>-0.127</ele>
  <time>2026-09-02T22:07:11Z</time>
  <course>187.88</course>
  <speed>0.022360679774997897</speed>
  <fix>3d</fix>
</trkpt>
<trkpt lat="33.810313" lon="-118.393867">
  <ele>-0.12</ele>
  <time>2026-09-02T22:07:11Z</time>
  <course>0.0</course>
  <speed>0.0</speed>
  <fix>3d</fix>
</trkpt>
<trkpt lat="33.810313" lon="-118.393867">
  <ele>-0.123</ele>
  <time>2026-09-02T22:07:11Z</time>
  <course>187.87</course>
  <speed>0.022360679774997897</speed>
  <fix>3d</fix>
</trkpt>
<trkpt lat="33.810313" lon="-118.393867">
  <ele>-0.12</ele>
  <time>2026-09-02T22:07:11Z</time>
  <course>0.0</course>
  <speed>0.0</speed>
  <fix>3d</fix>
</trkpt>
<trkpt lat="33.810313" lon="-118.393867">
  <ele>-0.121</ele>
  <time>2026-09-02T22:07:11Z</time>
  <course>187.87</course>
  <speed>0.022360679774997897</speed>
  <fix>3d</fix>
</trkpt>
<trkpt lat="33.810313" lon="-118.393867">
  <ele>-0.12</ele>
  <time>2026-09-02T22:07:11Z</time>
  <course>0.0</course>
  <speed>0.0</speed>
  <fix>3d</fix>
</trkpt>
<trkpt lat="33.810313" lon="-118.393867">
  <ele>-0.121</ele>
  <time>2026-09-02T22:07:11Z</time>
  <course>187.86</course>
  <speed>0.022360679774997897</speed>
  <fix>3d</fix>
</trkpt>
<trkpt lat="33.810313" lon="-118.393867">
  <ele>-0.12</ele>
  <time>2026-09-02T22:07:11Z</time>
  <course>0.0</course>
  <speed>0.0</speed>
  <fix>3d</fix>
</trkpt>
<trkpt lat="33.810313" lon="-118.393867">
  <ele>-0.123</ele>
  <time>2026-09-02T22:07:11Z</time>
  <course>187.85</course>
  <speed>0.022360679774997897</speed>
  <fix>3d</fix>
</trkpt>
<trkpt lat="33.810313" lon="-118.393867">
  <ele>-0.12</ele>
  <time>2026-09-02T22:07:11Z</time>
  <course>0.0</course>
  <speed>0.0</speed>
  <fix>3d</fix>
</trkpt>
<trkpt lat="33.810313" lon="-118.393867">
  <ele>-0.124</ele>
  <time>2026-09-02T22:07:11Z</time>
  <course>187.84</course>
  <speed>0.022360679774997897</speed>
  <fix>3d</fix>
</trkpt>
<trkpt lat="33.810313" lon="-118.393867">
  <ele>-0.12</ele>
  <time>2026-09-02T22:07:11Z</time>
  <course>0.0</course>
  <speed>0.0</speed>
  <fix>3d</fix>
</trkpt>
<trkpt lat="33.810313" lon="-118.393867">
  <ele>-0.126</ele>
  <time>2026-09-02T22:07:11Z</time>
  <course>187.83</course>
  <speed>0.022360679774997897</speed>
  <fix>3d</fix>
</trkpt>
<trkpt lat="33.810313" lon="-118.393867">
  <ele>-0.12</ele>
  <time>2026-09-02T22:07:11Z</time>
  <course>0.0</course>
  <speed>0.0</speed>
  <fix>3d</fix>
</trkpt>
<trkpt lat="33.810313" lon="-118.393867">
  <ele>-0.127</ele>
  <time>2026-09-02T22:07:11Z</time>
  <course>187.83</course>
  <speed>0.022360679774997897</speed>
  <fix>3d</fix>
</trkpt>
<trkpt lat="33.810313" lon="-118.393867">
  <ele>-0.12</ele>
  <time>2026-09-02T22:07:11Z</time>
  <course>0.0</course>
  <speed>0.0</speed>
  <fix>3d</fix>
</trkpt>
<trkpt lat="33.810313" lon="-118.393867">
  <ele>-0.127</ele>
  <time>2026-09-02T22:07:11Z</time>
  <course>187.82</course>
  <speed>0.022360679774997897</speed>
  <fix>3d</fix>
</trkpt>
<trkpt lat="33.810313" lon="-118.393867">
  <ele>-0.12</ele>
  <time>2026-09-02T22:07:11Z</time>
  <course>0.0</course>
  <speed>0.0</speed>
  <fix>3d</fix>
</trkpt>
<trkpt lat="33.810313" lon="-118.393867">
  <ele>-0.127</ele>
  <time>2026-09-02T22:07:11Z</time>
  <course>187.81</course>
  <speed>0.022360679774997897</speed>
  <fix>3d</fix>
</trkpt>
<trkpt lat="33.810313" lon="-118.393867">
  <ele>-0.12</ele>
  <time>2026-09-02T22:07:11Z</time>
  <course>0.0</course>
  <speed>0.0</speed>
  <fix>3d</fix>
</trkpt>
<trkpt lat="33.810313" lon="-118.393867">
  <ele>-0.126</ele>
  <time>2026-09-02T22:07:11Z</time>
  <course>187.8</course>
  <speed>0.022360679774997897</speed>
  <fix>3d</fix>
</trkpt>
<trkpt lat="33.810313" lon="-118.393867">
  <ele>-0.12</ele>
  <time>2026-09-02T22:07:11Z</time>
  <course>0.0</course>
  <speed>0.0</speed>
  <fix>3d</fix>
</trkpt>
<trkpt lat="33.810313" lon="-118.393867">
  <ele>-0.124</ele>
  <time>2026-09-02T22:07:11Z</time>
  <course>187.8</course>
  <speed>0.022360679774997897</speed>
  <fix>3d</fix>
</trkpt>
<trkpt lat="33.810313" lon="-118.393867">
  <ele>-0.12</ele>
  <time>2026-09-02T22:07:11Z</time>
  <course>0.0</course>
  <speed>0.0</speed>
  <fix>3d</fix>
</trkpt>
<trkpt lat="33.810313" lon="-118.393867">
  <ele>-0.121</ele>
  <time>2026-09-02T22:07:11Z</time>
  <course>187.79</course>
  <speed>0.022360679774997897</speed>
  <fix>3d</fix>
</trkpt>
<trkpt lat="33.810313" lon="-118.393867">
  <ele>-0.12</ele>
  <time>2026-09-02T22:07:11Z</time>
  <course>0.0</course>
  <speed>0.0</speed>
  <fix>3d</fix>
</trkpt>
<trkpt lat="33.810313" lon="-118.393867">
  <ele>-0.119</ele>
  <time>2026-09-02T22:07:11Z</time>
  <course>187.78</course>
  <speed>0.022360679774997897</speed>
  <fix>3d</fix>
</trkpt>
<trkpt lat="33.810313" lon="-118.393867">
  <ele>-0.12</ele>
  <time>2026-09-02T22:07:11Z</time>
  <course>0.0</course>
  <speed>0.0</speed>
  <fix>3d</fix>
</trkpt>
<trkpt lat="33.810313" lon="-118.393867">
  <ele>-0.118</ele>
  <time>2026-09-02T22:07:11Z</time>
  <course>187.77</course>
  <speed>0.022360679774997897</speed>
  <fix>3d</fix>
</trkpt>
<trkpt lat="33.810313" lon="-118.393867">
  <ele>-0.12</ele>
  <time>2026-09-02T22:07:11Z</time>
  <course>0.0</course>
  <speed>0.0</speed>
  <fix>3d</fix>
</trkpt>
<trkpt lat="33.810313" lon="-118.393867">
  <ele>-0.118</ele>
  <time>2026-09-02T22:07:11Z</time>
  <course>187.77</course>
  <speed>0.022360679774997897</speed>
  <fix>3d</fix>
</trkpt>
<trkpt lat="33.810313" lon="-118.393867">
  <ele>-0.12</ele>
  <time>2026-09-02T22:07:11Z</time>
  <course>0.0</course>
  <speed>0.0</speed>
  <fix>3d</fix>
</trkpt>
<trkpt lat="33.810313" lon="-118.393867">
  <ele>-0.119</ele>
  <time>2026-09-02T22:07:11Z</time>
  <course>187.76</course>
  <speed>0.022360679774997897</speed>
  <fix>3d</fix>
</trkpt>
<trkpt lat="33.810313" lon="-118.393867">
  <ele>-0.12</ele>
  <time>2026-09-02T22:07:11Z</time>
  <course>0.0</course>
  <speed>0.0</speed>
  <fix>3d</fix>
</trkpt>
<trkpt lat="33.810313" lon="-118.393867">
  <ele>-0.12</ele>
  <time>2026-09-02T22:07:11Z</time>
  <course>187.75</course>
  <speed>0.022360679774997897</speed>
  <fix>3d</fix>
</trkpt>
<trkpt lat="33.810313" lon="-118.393867">
  <ele>-0.12</ele>
  <time>2026-09-02T22:07:11Z</time>
  <course>0.0</course>
  <speed>0.0</speed>
  <fix>3d</fix>
</trkpt>
<trkpt lat="33.810313" lon="-118.393867">
  <ele>-0.12</ele>
  <time>2026-09-02T22:07:11Z</time>
  <course>187.74</course>
  <speed>0.0282842712474619</speed>
  <fix>3d</fix>
</trkpt>
<trkpt lat="33.810313" lon="-118.393867">
  <ele>-0.12</ele>
  <time>2026-09-02T22:07:11Z</time>
  <course>0.0</course>
  <speed>0.0</speed>
  <fix>3d</fix>
</trkpt>
<trkpt lat="33.810313" lon="-118.393867">
  <ele>-0.12</ele>
  <time>2026-09-02T22:07:11Z</time>
  <course>187.74</course>
  <speed>0.0282842712474619</speed>
  <fix>3d</fix>
</trkpt>
<trkpt lat="33.810313" lon="-118.393867">
  <ele>-0.12</ele>
  <time>2026-09-02T22:07:11Z</time>
  <course>0.0</course>
  <speed>0.0</speed>
  <fix>3d</fix>
</trkpt>
<trkpt lat="33.810313" lon="-118.393867">
  <ele>-0.119</ele>
  <time>2026-09-02T22:07:11Z</time>
  <course>187.73</course>
  <speed>0.0282842712474619</speed>
  <fix>3d</fix>
</trkpt>
<trkpt lat="33.810313" lon="-118.393867">
  <ele>-0.12</ele>
  <time>2026-09-02T22:07:11Z</time>
  <course>0.0</course>
  <speed>0.0</speed>
  <fix>3d</fix>
</trkpt>
<trkpt lat="33.810313" lon="-118.393867">
  <ele>-0.118</ele>
  <time>2026-09-02T22:07:11Z</time>
  <course>187.72</course>
  <speed>0.0282842712474619</speed>
  <fix>3d</fix>
</trkpt>
<trkpt lat="33.810313" lon="-118.393867">
  <ele>-0.12</ele>
  <time>2026-09-02T22:07:11Z</time>
  <course>0.0</course>
  <speed>0.0</speed>
  <fix>3d</fix>
</trkpt>
<trkpt lat="33.810313" lon="-118.393867">
  <ele>-0.116</ele>
  <time>2026-09-02T22:07:11Z</time>
  <course>187.71</course>
  <speed>0.0282842712474619</speed>
  <fix>3d</fix>
</trkpt>
<trkpt lat="33.810313" lon="-118.393867">
  <ele>-0.12</ele>
  <time>2026-09-02T22:07:11Z</time>
  <course>0.0</course>
  <speed>0.0</speed>
  <fix>3d</fix>
</trkpt>
<trkpt lat="33.810313" lon="-118.393867">
  <ele>-0.114</ele>
  <time>2026-09-02T22:07:11Z</time>
  <course>187.71</course>
  <speed>0.0282842712474619</speed>
  <fix>3d</fix>
</trkpt>
<trkpt lat="33.810313" lon="-118.393867">
  <ele>-0.12</ele>
  <time>2026-09-02T22:07:11Z</time>
  <course>0.0</course>
  <speed>0.0</speed>
  <fix>3d</fix>
</trkpt>
<trkpt lat="33.810313" lon="-118.393867">
  <ele>-0.112</ele>
  <time>2026-09-02T22:07:11Z</time>
  <course>187.7</course>
  <speed>0.0282842712474619</speed>
  <fix>3d</fix>
</trkpt>
<trkpt lat="33.810313" lon="-118.393867">
  <ele>-0.12</ele>
  <time>2026-09-02T22:07:11Z</time>
  <course>0.0</course>
  <speed>0.0</speed>
  <fix>3d</fix>
</trkpt>
<trkpt lat="33.810313" lon="-118.393867">
  <ele>-0.113</ele>
  <time>2026-09-02T22:07:11Z</time>
  <course>187.69</course>
  <speed>0.0282842712474619</speed>
  <fix>3d</fix>
</trkpt>
<trkpt lat="33.810313" lon="-118.393867">
  <ele>-0.12</ele>
  <time>2026-09-02T22:07:11Z</time>
  <course>0.0</course>
  <speed>0.0</speed>
  <fix>3d</fix>
</trkpt>
<trkpt lat="33.810313" lon="-118.393867">
  <ele>-0.115</ele>
  <time>2026-09-02T22:07:11Z</time>
  <course>187.69</course>
  <speed>0.0282842712474619</speed>
  <fix>3d</fix>
</trkpt>
<trkpt lat="33.810313" lon="-118.393867">
  <ele>-0.12</ele>
  <time>2026-09-02T22:07:11Z</time>
  <course>0.0</course>
  <speed>0.0</speed>
  <fix>3d</fix>
</trkpt>
<trkpt lat="33.810313" lon="-118.393867">
  <ele>-0.119</ele>
  <time>2026-09-02T22:07:11Z</time>
  <course>187.68</course>
  <speed>0.0282842712474619</speed>
  <fix>3d</fix>
</trkpt>
<trkpt lat="33.810313" lon="-118.393867">
  <ele>-0.12</ele>
  <time>2026-09-02T22:07:11Z</time>
  <course>0.0</course>
  <speed>0.0</speed>
  <fix>3d</fix>
</trkpt>
<trkpt lat="33.810313" lon="-118.393867">
  <ele>-0.123</ele>
  <time>2026-09-02T22:07:11Z</time>
  <course>187.67</course>
  <speed>0.0282842712474619</speed>
  <fix>3d</fix>
</trkpt>
<trkpt lat="33.810313" lon="-118.393867">
  <ele>-0.12</ele>
  <time>2026-09-02T22:07:11Z</time>
  <course>0.0</course>
  <speed>0.0</speed>
  <fix>3d</fix>
</trkpt>
<trkpt lat="33.810313" lon="-118.393867">
  <ele>-0.128</ele>
  <time>2026-09-02T22:07:11Z</time>
  <course>187.66</course>
  <speed>0.0282842712474619</speed>
  <fix>3d</fix>
</trkpt>
<trkpt lat="33.810313" lon="-118.393867">
  <ele>-0.12</ele>
  <time>2026-09-02T22:07:11Z</time>
  <course>0.0</course>
  <speed>0.0</speed>
  <fix>3d</fix>
</trkpt>
<trkpt lat="33.810313" lon="-118.393867">
  <ele>-0.132</ele>
  <time>2026-09-02T22:07:11Z</time>
  <course>187.66</course>
  <speed>0.0282842712474619</speed>
  <fix>3d</fix>
</trkpt>
<trkpt lat="33.810313" lon="-118.393867">
  <ele>-0.12</ele>
  <time>2026-09-02T22:07:11Z</time>
  <course>0.0</course>
  <speed>0.0</speed>
  <fix>3d</fix>
</trkpt>
<trkpt lat="33.810313" lon="-118.393867">
  <ele>-0.134</ele>
  <time>2026-09-02T22:07:11Z</time>
  <course>187.65</course>
  <speed>0.0282842712474619</speed>
  <fix>3d</fix>
</trkpt>
<trkpt lat="33.810313" lon="-118.393867">
  <ele>-0.12</ele>
  <time>2026-09-02T22:07:11Z</time>
  <course>0.0</course>
  <speed>0.0</speed>
  <fix>3d</fix>
</trkpt>
<trkpt lat="33.810313" lon="-118.393867">
  <ele>-0.135</ele>
  <time>2026-09-02T22:07:11Z</time>
  <course>187.64</course>
  <speed>0.0282842712474619</speed>
  <fix>3d</fix>
</trkpt>
<trkpt lat="33.810313" lon="-118.393867">
  <ele>-0.12</ele>
  <time>2026-09-02T22:07:11Z</time>
  <course>0.0</course>
  <speed>0.0</speed>
  <fix>3d</fix>
</trkpt>
<trkpt lat="33.810313" lon="-118.393867">
  <ele>-0.135</ele>
  <time>2026-09-02T22:07:11Z</time>
  <course>187.64</course>
  <speed>0.0282842712474619</speed>
  <fix>3d</fix>
</trkpt>
<trkpt lat="33.810313" lon="-118.393867">
  <ele>-0.12</ele>
  <time>2026-09-02T22:07:11Z</time>
  <course>0.0</course>
  <speed>0.0</speed>
  <fix>3d</fix>
</trkpt>
<trkpt lat="33.810313" lon="-118.393867">
  <ele>-0.133</ele>
  <time>2026-09-02T22:07:11Z</time>
  <course>187.63</course>
  <speed>0.0282842712474619</speed>
  <fix>3d</fix>
</trkpt>
<trkpt lat="33.810313" lon="-118.393867">
  <ele>-0.12</ele>
  <time>2026-09-02T22:07:11Z</time>
  <course>0.0</course>
  <speed>0.0</speed>
  <fix>3d</fix>
</trkpt>
<trkpt lat="33.810313" lon="-118.393867">
  <ele>-0.132</ele>
  <time>2026-09-02T22:07:11Z</time>
  <course>187.63</course>
  <speed>0.0282842712474619</speed>
  <fix>3d</fix>
</trkpt>
<trkpt lat="33.810313" lon="-118.393867">
  <ele>-0.12</ele>
  <time>2026-09-02T22:07:11Z</time>
  <course>0.0</course>
  <speed>0.0</speed>
  <fix>3d</fix>
</trkpt>
<trkpt lat="33.4368002" lon="-117.0859339">
  <ele>-0.11</ele>
  <time>2026-09-02T22:07:12Z</time>
  <course>0.0</course>
  <speed>0.0</speed>
  <fix>3d</fix>
</trkpt>
<trkpt lat="33.4368002" lon="-117.0859339">
  <ele>-0.11</ele>
  <time>2026-09-02T22:07:12Z</time>
  <course>0.0</course>
  <speed>0.0</speed>
  <fix>3d</fix>
</trkpt>
<trkpt lat="33.810313" lon="-118.393867">
  <ele>0.0</ele>
  <time>2026-09-02T22:07:12Z</time>
  <course>173.5</course>
  <speed>0.0</speed>
  <fix>3d</fix>
</trkpt>
<trkpt lat="33.810313" lon="-118.393867">
  <ele>-0.11</ele>
  <time>2026-09-02T22:07:12Z</time>
  <course>0.0</course>
  <speed>0.0</speed>
  <fix>3d</fix>
</trkpt>
<trkpt lat="33.810313" lon="-118.393867">
  <ele>0.0</ele>
  <time>2026-09-02T22:07:12Z</time>
  <course>173.61</course>
  <speed>0.0</speed>
  <fix>3d</fix>
</trkpt>
<trkpt lat="33.810313" lon="-118.393867">
  <ele>-0.11</ele>
  <time>2026-09-02T22:07:12Z</time>
  <course>0.0</course>
  <speed>0.0</speed>
  <fix>3d</fix>
</trkpt>
<trkpt lat="33.810313" lon="-118.393867">
  <ele>0.0</ele>
  <time>2026-09-02T22:07:12Z</time>
  <course>173.98</course>
  <speed>0.0</speed>
  <fix>3d</fix>
</trkpt>
<trkpt lat="33.810313" lon="-118.393867">
  <ele>-0.11</ele>
  <time>2026-09-02T22:07:12Z</time>
  <course>0.0</course>
  <speed>0.0</speed>
  <fix>3d</fix>
</trkpt>
<trkpt lat="33.810313" lon="-118.393867">
  <ele>0.0</ele>
  <time>2026-09-02T22:07:12Z</time>
  <course>174.51</course>
  <speed>0.0</speed>
  <fix>3d</fix>
</trkpt>
<trkpt lat="33.810313" lon="-118.393867">
  <ele>-0.11</ele>
  <time>2026-09-02T22:07:12Z</time>
  <course>0.0</course>
  <speed>0.0</speed>
  <fix>3d</fix>
</trkpt>
<trkpt lat="33.810313" lon="-118.393867">
  <ele>0.0</ele>
  <time>2026-09-02T22:07:12Z</time>
  <course>175.07</course>
  <speed>0.0</speed>
  <fix>3d</fix>
</trkpt>
<trkpt lat="33.810313" lon="-118.393867">
  <ele>-0.12</ele>
  <time>2026-09-02T22:07:12Z</time>
  <course>0.0</course>
  <speed>0.0</speed>
  <fix>3d</fix>
</trkpt>
<trkpt lat="33.810313" lon="-118.393867">
  <ele>0.0</ele>
  <time>2026-09-02T22:07:12Z</time>
  <course>175.61</course>
  <speed>0.0</speed>
  <fix>3d</fix>
</trkpt>
<trkpt lat="33.810313" lon="-118.393867">
  <ele>-0.12</ele>
  <time>2026-09-02T22:07:12Z</time>
  <course>0.0</course>
  <speed>0.0</speed>
  <fix>3d</fix>
</trkpt>
<trkpt lat="33.810313" lon="-118.393867">
  <ele>0.0</ele>
  <time>2026-09-02T22:07:12Z</time>
  <course>176.12</course>
  <speed>0.0</speed>
  <fix>3d</fix>
</trkpt>
<trkpt lat="33.810313" lon="-118.393867">
  <ele>-0.13</ele>
  <time>2026-09-02T22:07:12Z</time>
  <course>0.0</course>
  <speed>0.0</speed>
  <fix>3d</fix>
</trkpt>
<trkpt lat="33.810313" lon="-118.393867">
  <ele>0.0</ele>
  <time>2026-09-02T22:07:12Z</time>
  <course>176.6</course>
  <speed>0.0</speed>
  <fix>3d</fix>
</trkpt>
<trkpt lat="33.810313" lon="-118.393867">
  <ele>-0.13</ele>
  <time>2026-09-02T22:07:12Z</time>
  <course>0.0</course>
  <speed>0.0</speed>
  <fix>3d</fix>
</trkpt>
<trkpt lat="33.810313" lon="-118.393867">
  <ele>0.0</ele>
  <time>2026-09-02T22:07:12Z</time>
  <course>177.07</course>
  <speed>0.0</speed>
  <fix>3d</fix>
</trkpt>
<trkpt lat="33.810313" lon="-118.393867">
  <ele>-0.13</ele>
  <time>2026-09-02T22:07:12Z</time>
  <course>0.0</course>
  <speed>0.0</speed>
  <fix>3d</fix>
</trkpt>
<trkpt lat="33.810313" lon="-118.393867">
  <ele>0.0</ele>
  <time>2026-09-02T22:07:12Z</time>
  <course>177.53</course>
  <speed>0.0</speed>
  <fix>3d</fix>
</trkpt>
<trkpt lat="33.810313" lon="-118.393867">
  <ele>-0.13</ele>
  <time>2026-09-02T22:07:12Z</time>
  <course>0.0</course>
  <speed>0.0</speed>
  <fix>3d</fix>
</trkpt>
<trkpt lat="33.810313" lon="-118.393867">
  <ele>0.0</ele>
  <time>2026-09-02T22:07:12Z</time>
  <course>177.97</course>
  <speed>0.0</speed>
  <fix>3d</fix>
</trkpt>
<trkpt lat="33.810313" lon="-118.393867">
  <ele>-0.14</ele>
  <time>2026-09-02T22:07:12Z</time>
  <course>0.0</course>
  <speed>0.0</speed>
  <fix>3d</fix>
</trkpt>
<trkpt lat="33.810313" lon="-118.393867">
  <ele>0.0</ele>
  <time>2026-09-02T22:07:12Z</time>
  <course>178.4</course>
  <speed>0.0</speed>
  <fix>3d</fix>
</trkpt>
<trkpt lat="33.810313" lon="-118.393867">
  <ele>-0.14</ele>
  <time>2026-09-02T22:07:12Z</time>
  <course>0.0</course>
  <speed>0.0</speed>
  <fix>3d</fix>
</trkpt>
<trkpt lat="33.810313" lon="-118.393867">
  <ele>0.0</ele>
  <time>2026-09-02T22:07:12Z</time>
  <course>178.83</course>
  <speed>0.0</speed>
  <fix>3d</fix>
</trkpt>
<trkpt lat="33.810313" lon="-118.393867">
  <ele>-0.14</ele>
  <time>2026-09-02T22:07:12Z</time>
  <course>0.0</course>
  <speed>0.0</speed>
  <fix>3d</fix>
</trkpt>
<trkpt lat="33.810313" lon="-118.393867">
  <ele>0.0</ele>
  <time>2026-09-02T22:07:12Z</time>
  <course>179.23</course>
  <speed>0.0</speed>
  <fix>3d</fix>
</trkpt>
<trkpt lat="33.810313" lon="-118.393867">
  <ele>-0.14</ele>
  <time>2026-09-02T22:07:12Z</time>
  <course>0.0</course>
  <speed>0.0</speed>
  <fix>3d</fix>
</trkpt>
<trkpt lat="33.810313" lon="-118.393867">
  <ele>0.0</ele>
  <time>2026-09-02T22:07:12Z</time>
  <course>179.62</course>
  <speed>0.0</speed>
  <fix>3d</fix>
</trkpt>
<trkpt lat="33.810313" lon="-118.393867">
  <ele>-0.14</ele>
  <time>2026-09-02T22:07:12Z</time>
  <course>0.0</course>
  <speed>0.0</speed>
  <fix>3d</fix>
</trkpt>
<trkpt lat="33.810313" lon="-118.393867">
  <ele>0.0</ele>
  <time>2026-09-02T22:07:12Z</time>
  <course>180.01</course>
  <speed>0.0</speed>
  <fix>3d</fix>
</trkpt>
<trkpt lat="33.810313" lon="-118.393867">
  <ele>-0.14</ele>
  <time>2026-09-02T22:07:12Z</time>
  <course>0.0</course>
  <speed>0.0</speed>
  <fix>3d</fix>
</trkpt>
<trkpt lat="33.810313" lon="-118.393867">
  <ele>0.0</ele>
  <time>2026-09-02T22:07:12Z</time>
  <course>180.37</course>
  <speed>0.0</speed>
  <fix>3d</fix>
</trkpt>
<trkpt lat="33.810313" lon="-118.393867">
  <ele>-0.14</ele>
  <time>2026-09-02T22:07:12Z</time>
  <course>0.0</course>
  <speed>0.0</speed>
  <fix>3d</fix>
</trkpt>
<trkpt lat="33.810313" lon="-118.393867">
  <ele>0.0</ele>
  <time>2026-09-02T22:07:12Z</time>
  <course>180.73</course>
  <speed>0.0</speed>
  <fix>3d</fix>
</trkpt>
<trkpt lat="33.810313" lon="-118.393867">
  <ele>-0.14</ele>
  <time>2026-09-02T22:07:12Z</time>
  <course>0.0</course>
  <speed>0.0</speed>
  <fix>3d</fix>
</trkpt>
<trkpt lat="33.810313" lon="-118.393867">
  <ele>0.0</ele>
  <time>2026-09-02T22:07:12Z</time>
  <course>181.07</course>
  <speed>0.0</speed>
  <fix>3d</fix>
</trkpt>
<trkpt lat="33.810313" lon="-118.393867">
  <ele>-0.13</ele>
  <time>2026-09-02T22:07:12Z</time>
  <course>0.0</course>
  <speed>0.0</speed>
  <fix>3d</fix>
</trkpt>
<trkpt lat="33.810313" lon="-118.393867">
  <ele>0.0</ele>
  <time>2026-09-02T22:07:12Z</time>
  <course>181.4</course>
  <speed>0.0</speed>
  <fix>3d</fix>
</trkpt>
<trkpt lat="33.810313" lon="-118.393867">
  <ele>-0.13</ele>
  <time>2026-09-02T22:07:12Z</time>
  <course>0.0</course>
  <speed>0.0</speed>
  <fix>3d</fix>
</trkpt>
<trkpt lat="33.810313" lon="-118.393867">
  <ele>0.0</ele>
  <time>2026-09-02T22:07:12Z</time>
  <course>181.72</course>
  <speed>0.0</speed>
  <fix>3d</fix>
</trkpt>
<trkpt lat="33.810313" lon="-118.393867">
  <ele>-0.12</ele>
  <time>2026-09-02T22:07:12Z</time>
  <course>0.0</course>
  <speed>0.0</speed>
  <fix>3d</fix>
</trkpt>
<trkpt lat="33.810313" lon="-118.393867">
  <ele>0.0</ele>
  <time>2026-09-02T22:07:12Z</time>
  <course>182.02</course>
  <speed>0.0</speed>
  <fix>3d</fix>
</trkpt>
<trkpt lat="33.810313" lon="-118.393867">
  <ele>-0.12</ele>
  <time>2026-09-02T22:07:12Z</time>
  <course>0.0</course>
  <speed>0.0</speed>
  <fix>3d</fix>
</trkpt>
<trkpt lat="33.810313" lon="-118.393867">
  <ele>0.0</ele>
  <time>2026-09-02T22:07:12Z</time>
  <course>182.32</course>
  <speed>0.0</speed>
  <fix>3d</fix>
</trkpt>
<trkpt lat="33.810313" lon="-118.393867">
  <ele>-0.12</ele>
  <time>2026-09-02T22:07:12Z</time>
  <course>0.0</course>
  <speed>0.0</speed>
  <fix>3d</fix>
</trkpt>
<trkpt lat="33.810313" lon="-118.393867">
  <ele>0.0</ele>
  <time>2026-09-02T22:07:12Z</time>
  <course>182.6</course>
  <speed>0.0</speed>
  <fix>3d</fix>
</trkpt>
<trkpt lat="33.810313" lon="-118.393867">
  <ele>-0.12</ele>
  <time>2026-09-02T22:07:12Z</time>
  <course>0.0</course>
  <speed>0.0</speed>
  <fix>3d</fix>
</trkpt>
<trkpt lat="33.810313" lon="-118.393867">
  <ele>0.0</ele>
  <time>2026-09-02T22:07:12Z</time>
  <course>182.87</course>
  <speed>0.0</speed>
  <fix>3d</fix>
</trkpt>
<trkpt lat="33.810313" lon="-118.393867">
  <ele>-0.11</ele>
  <time>2026-09-02T22:07:12Z</time>
  <course>0.0</course>
  <speed>0.0</speed>
  <fix>3d</fix>
</trkpt>
<trkpt lat="33.810313" lon="-118.393867">
  <ele>0.0</ele>
  <time>2026-09-02T22:07:12Z</time>
  <course>183.14</course>
  <speed>0.0</speed>
  <fix>3d</fix>
</trkpt>
<trkpt lat="33.810313" lon="-118.393867">
  <ele>-0.11</ele>
  <time>2026-09-02T22:07:12Z</time>
  <course>0.0</course>
  <speed>0.0</speed>
  <fix>3d</fix>
</trkpt>
<trkpt lat="33.810313" lon="-118.393867">
  <ele>0.0</ele>
  <time>2026-09-02T22:07:12Z</time>
  <course>183.39</course>
  <speed>0.0</speed>
  <fix>3d</fix>
</trkpt>
<trkpt lat="33.810313" lon="-118.393867">
  <ele>-0.11</ele>
  <time>2026-09-02T22:07:12Z</time>
  <course>0.0</course>
  <speed>0.0</speed>
  <fix>3d</fix>
</trkpt>
<trkpt lat="33.810313" lon="-118.393867">
  <ele>0.0</ele>
  <time>2026-09-02T22:07:12Z</time>
  <course>183.63</course>
  <speed>0.0</speed>
  <fix>3d</fix>
</trkpt>
<trkpt lat="33.810313" lon="-118.393867">
  <ele>-0.11</ele>
  <time>2026-09-02T22:07:12Z</time>
  <course>0.0</course>
  <speed>0.0</speed>
  <fix>3d</fix>
</trkpt>
<trkpt lat="33.810313" lon="-118.393867">
  <ele>0.0</ele>
  <time>2026-09-02T22:07:12Z</time>
  <course>183.86</course>
  <speed>0.0</speed>
  <fix>3d</fix>
</trkpt>
<trkpt lat="33.810313" lon="-118.393867">
  <ele>-0.12</ele>
  <time>2026-09-02T22:07:12Z</time>
  <course>0.0</course>
  <speed>0.0</speed>
  <fix>3d</fix>
</trkpt>
<trkpt lat="33.810313" lon="-118.393867">
  <ele>0.0</ele>
  <time>2026-09-02T22:07:12Z</time>
  <course>184.08</course>
  <speed>0.0</speed>
  <fix>3d</fix>
</trkpt>
<trkpt lat="33.810313" lon="-118.393867">
  <ele>-0.12</ele>
  <time>2026-09-02T22:07:12Z</time>
  <course>0.0</course>
  <speed>0.0</speed>
  <fix>3d</fix>
</trkpt>
<trkpt lat="33.810313" lon="-118.393867">
  <ele>0.0</ele>
  <time>2026-09-02T22:07:12Z</time>
  <course>184.3</course>
  <speed>0.0</speed>
  <fix>3d</fix>
</trkpt>
<trkpt lat="33.810313" lon="-118.393867">
  <ele>-0.13</ele>
  <time>2026-09-02T22:07:12Z</time>
  <course>0.0</course>
  <speed>0.0</speed>
  <fix>3d</fix>
</trkpt>
<trkpt lat="33.810313" lon="-118.393867">
  <ele>0.0</ele>
  <time>2026-09-02T22:07:12Z</time>
  <course>184.5</course>
  <speed>0.0</speed>
  <fix>3d</fix>
</trkpt>
<trkpt lat="33.810313" lon="-118.393867">
  <ele>-0.13</ele>
  <time>2026-09-02T22:07:12Z</time>
  <course>0.0</course>
  <speed>0.0</speed>
  <fix>3d</fix>
</trkpt>
<trkpt lat="33.810313" lon="-118.393867">
  <ele>0.0</ele>
  <time>2026-09-02T22:07:12Z</time>
  <course>184.7</course>
  <speed>0.0</speed>
  <fix>3d</fix>
</trkpt>
<trkpt lat="33.810313" lon="-118.393867">
  <ele>-0.13</ele>
  <time>2026-09-02T22:07:12Z</time>
  <course>0.0</course>
  <speed>0.0</speed>
  <fix>3d</fix>
</trkpt>
<trkpt lat="33.810313" lon="-118.393867">
  <ele>0.0</ele>
  <time>2026-09-02T22:07:12Z</time>
  <course>184.89</course>
  <speed>0.0</speed>
  <fix>3d</fix>
</trkpt>
<trkpt lat="33.810313" lon="-118.393867">
  <ele>-0.13</ele>
  <time>2026-09-02T22:07:12Z</time>
  <course>0.0</course>
  <speed>0.0</speed>
  <fix>3d</fix>
</trkpt>
<trkpt lat="33.810313" lon="-118.393867">
  <ele>0.0</ele>
  <time>2026-09-02T22:07:12Z</time>
  <course>185.07</course>
  <speed>0.0</speed>
  <fix>3d</fix>
</trkpt>
<trkpt lat="33.810313" lon="-118.393867">
  <ele>-0.14</ele>
  <time>2026-09-02T22:07:12Z</time>
  <course>0.0</course>
  <speed>0.0</speed>
  <fix>3d</fix>
</trkpt>
<trkpt lat="33.810313" lon="-118.393867">
  <ele>0.0</ele>
  <time>2026-09-02T22:07:12Z</time>
  <course>185.24</course>
  <speed>0.0</speed>
  <fix>3d</fix>
</trkpt>
<trkpt lat="33.810313" lon="-118.393867">
  <ele>-0.14</ele>
  <time>2026-09-02T22:07:12Z</time>
  <course>0.0</course>
  <speed>0.0</speed>
  <fix>3d</fix>
</trkpt>
<trkpt lat="33.810313" lon="-118.393867">
  <ele>0.0</ele>
  <time>2026-09-02T22:07:12Z</time>
  <course>185.41</course>
  <speed>0.0</speed>
  <fix>3d</fix>
</trkpt>
<trkpt lat="33.810313" lon="-118.393867">
  <ele>-0.13</ele>
  <time>2026-09-02T22:07:12Z</time>
  <course>0.0</course>
  <speed>0.0</speed>
  <fix>3d</fix>
</trkpt>
<trkpt lat="33.810313" lon="-118.393867">
  <ele>0.0</ele>
  <time>2026-09-02T22:07:12Z</time>
  <course>185.56</course>
  <speed>0.0</speed>
  <fix>3d</fix>
</trkpt>
<trkpt lat="33.810313" lon="-118.393867">
  <ele>-0.13</ele>
  <time>2026-09-02T22:07:12Z</time>
  <course>0.0</course>
  <speed>0.0</speed>
  <fix>3d</fix>
</trkpt>
<trkpt lat="33.810313" lon="-118.393867">
  <ele>0.0</ele>
  <time>2026-09-02T22:07:12Z</time>
  <course>185.72</course>
  <speed>0.0</speed>
  <fix>3d</fix>
</trkpt>
<trkpt lat="33.810313" lon="-118.393867">
  <ele>-0.13</ele>
  <time>2026-09-02T22:07:12Z</time>
  <course>0.0</course>
  <speed>0.0</speed>
  <fix>3d</fix>
</trkpt>
<trkpt lat="33.810313" lon="-118.393867">
  <ele>0.0</ele>
  <time>2026-09-02T22:07:12Z</time>
  <course>185.86</course>
  <speed>0.0</speed>
  <fix>3d</fix>
</trkpt>
<trkpt lat="33.810313" lon="-118.393867">
  <ele>-0.13</ele>
  <time>2026-09-02T22:07:12Z</time>
  <course>0.0</course>
  <speed>0.0</speed>
  <fix>3d</fix>
</trkpt>
<trkpt lat="33.810313" lon="-118.393867">
  <ele>0.0</ele>
  <time>2026-09-02T22:07:12Z</time>
  <course>186.0</course>
  <speed>0.0</speed>
  <fix>3d</fix>
</trkpt>
<trkpt lat="33.810313" lon="-118.393867">
  <ele>-0.12</ele>
  <time>2026-09-02T22:07:12Z</time>
  <course>0.0</course>
  <speed>0.0</speed>
  <fix>3d</fix>
</trkpt>
<trkpt lat="33.810313" lon="-118.393867">
  <ele>0.0</ele>
  <time>2026-09-02T22:07:12Z</time>
  <course>186.13</course>
  <speed>0.0</speed>
  <fix>3d</fix>
</trkpt>
<trkpt lat="33.810313" lon="-118.393867">
  <ele>-0.12</ele>
  <time>2026-09-02T22:07:12Z</time>
  <course>0.0</course>
  <speed>0.0</speed>
  <fix>3d</fix>
</trkpt>
<trkpt lat="33.810313" lon="-118.393867">
  <ele>0.0</ele>
  <time>2026-09-02T22:07:12Z</time>
  <course>186.26</course>
  <speed>0.0</speed>
  <fix>3d</fix>
</trkpt>
<trkpt lat="33.810313" lon="-118.393867">
  <ele>-0.12</ele>
  <time>2026-09-02T22:07:12Z</time>
  <course>0.0</course>
  <speed>0.0</speed>
  <fix>3d</fix>
</trkpt>
<trkpt lat="33.810313" lon="-118.393867">
  <ele>0.0</ele>
  <time>2026-09-02T22:07:12Z</time>
  <course>186.38</course>
  <speed>0.0</speed>
  <fix>3d</fix>
</trkpt>
<trkpt lat="33.810313" lon="-118.393867">
  <ele>-0.12</ele>
  <time>2026-09-02T22:07:12Z</time>
  <course>0.0</course>
  <speed>0.0</speed>
  <fix>3d</fix>
</trkpt>
<trkpt lat="33.810313" lon="-118.393867">
  <ele>0.0</ele>
  <time>2026-09-02T22:07:12Z</time>
  <course>186.49</course>
  <speed>0.0</speed>
  <fix>3d</fix>
</trkpt>
<trkpt lat="33.810313" lon="-118.393867">
  <ele>-0.12</ele>
  <time>2026-09-02T22:07:12Z</time>
  <course>0.0</course>
  <speed>0.0</speed>
  <fix>3d</fix>
</trkpt>
<trkpt lat="33.810313" lon="-118.393867">
  <ele>0.0</ele>
  <time>2026-09-02T22:07:12Z</time>
  <course>186.6</course>
  <speed>0.0</speed>
  <fix>3d</fix>
</trkpt>
<trkpt lat="33.810313" lon="-118.393867">
  <ele>-0.12</ele>
  <time>2026-09-02T22:07:12Z</time>
  <course>0.0</course>
  <speed>0.0</speed>
  <fix>3d</fix>
</trkpt>
<trkpt lat="33.810313" lon="-118.393867">
  <ele>0.0</ele>
  <time>2026-09-02T22:07:12Z</time>
  <course>186.71</course>
  <speed>0.0</speed>
  <fix>3d</fix>
</trkpt>
<trkpt lat="33.810313" lon="-118.393867">
  <ele>-0.12</ele>
  <time>2026-09-02T22:07:12Z</time>
  <course>0.0</course>
  <speed>0.0</speed>
  <fix>3d</fix>
</trkpt>
<trkpt lat="33.810313" lon="-118.393867">
  <ele>0.0</ele>
  <time>2026-09-02T22:07:12Z</time>
  <course>186.81</course>
  <speed>0.0</speed>
  <fix>3d</fix>
</trkpt>
<trkpt lat="33.810313" lon="-118.393867">
  <ele>-0.12</ele>
  <time>2026-09-02T22:07:12Z</time>
  <course>0.0</course>
  <speed>0.0</speed>
  <fix>3d</fix>
</trkpt>
<trkpt lat="33.810313" lon="-118.393867">
  <ele>0.0</ele>
  <time>2026-09-02T22:07:12Z</time>
  <course>186.9</course>
  <speed>0.0</speed>
  <fix>3d</fix>
</trkpt>
<trkpt lat="33.810313" lon="-118.393867">
  <ele>-0.12</ele>
  <time>2026-09-02T22:07:12Z</time>
  <course>0.0</course>
  <speed>0.0</speed>
  <fix>3d</fix>
</trkpt>
<trkpt lat="33.810313" lon="-118.393867">
  <ele>0.0</ele>
  <time>2026-09-02T22:07:12Z</time>
  <course>187.0</course>
  <speed>0.0</speed>
  <fix>3d</fix>
</trkpt>
<trkpt lat="33.810313" lon="-118.393867">
  <ele>-0.12</ele>
  <time>2026-09-02T22:07:12Z</time>
  <course>0.0</course>
  <speed>0.0</speed>
  <fix>3d</fix>
</trkpt>
<trkpt lat="33.810313" lon="-118.393867">
  <ele>0.0</ele>
  <time>2026-09-02T22:07:12Z</time>
  <course>187.08</course>
  <speed>0.0</speed>
  <fix>3d</fix>
</trkpt>
<trkpt lat="33.810313" lon="-118.393867">
  <ele>-0.13</ele>
  <time>2026-09-02T22:07:12Z</time>
  <course>0.0</course>
  <speed>0.0</speed>
  <fix>3d</fix>
</trkpt>
<trkpt lat="33.810313" lon="-118.393867">
  <ele>0.0</ele>
  <time>2026-09-02T22:07:12Z</time>
  <course>187.17</course>
  <speed>0.0</speed>
  <fix>3d</fix>
</trkpt>
<trkpt lat="33.810313" lon="-118.393867">
  <ele>-0.13</ele>
  <time>2026-09-02T22:07:12Z</time>
  <course>0.0</course>
  <speed>0.0</speed>
  <fix>3d</fix>
</trkpt>
<trkpt lat="33.810313" lon="-118.393867">
  <ele>0.0</ele>
  <time>2026-09-02T22:07:12Z</time>
  <course>187.24</course>
  <speed>0.0</speed>
  <fix>3d</fix>
</trkpt>
<trkpt lat="33.810313" lon="-118.393867">
  <ele>-0.13</ele>
  <time>2026-09-02T22:07:12Z</time>
  <course>0.0</course>
  <speed>0.0</speed>
  <fix>3d</fix>
</trkpt>
<trkpt lat="33.810313" lon="-118.393867">
  <ele>0.0</ele>
  <time>2026-09-02T22:07:12Z</time>
  <course>187.32</course>
  <speed>0.0</speed>
  <fix>3d</fix>
</trkpt>
<trkpt lat="33.810313" lon="-118.393867">
  <ele>-0.13</ele>
  <time>2026-09-02T22:07:12Z</time>
  <course>0.0</course>
  <speed>0.0</speed>
  <fix>3d</fix>
</trkpt>
<trkpt lat="33.810313" lon="-118.393867">
  <ele>0.0</ele>
  <time>2026-09-02T22:07:12Z</time>
  <course>187.39</course>
  <speed>0.0</speed>
  <fix>3d</fix>
</trkpt>
<trkpt lat="33.810313" lon="-118.393867">
  <ele>-0.13</ele>
  <time>2026-09-02T22:07:12Z</time>
  <course>0.0</course>
  <speed>0.0</speed>
  <fix>3d</fix>
</trkpt>
<trkpt lat="33.810313" lon="-118.393867">
  <ele>0.0</ele>
  <time>2026-09-02T22:07:12Z</time>
  <course>187.46</course>
  <speed>0.0</speed>
  <fix>3d</fix>
</trkpt>
<trkpt lat="33.810313" lon="-118.393867">
  <ele>-0.13</ele>
  <time>2026-09-02T22:07:12Z</time>
  <course>0.0</course>
  <speed>0.0</speed>
  <fix>3d</fix>
</trkpt>
<trkpt lat="33.810313" lon="-118.393867">
  <ele>0.0</ele>
  <time>2026-09-02T22:07:12Z</time>
  <course>187.53</course>
  <speed>0.0</speed>
  <fix>3d</fix>
</trkpt>
<trkpt lat="33.810313" lon="-118.393867">
  <ele>-0.13</ele>
  <time>2026-09-02T22:07:12Z</time>
  <course>0.0</course>
  <speed>0.0</speed>
  <fix>3d</fix>
</trkpt>
<trkpt lat="33.810313" lon="-118.393867">
  <ele>0.0</ele>
  <time>2026-09-02T22:07:12Z</time>
  <course>187.59</course>
  <speed>0.0</speed>
  <fix>3d</fix>
</trkpt>
<trkpt lat="33.810313" lon="-118.393867">
  <ele>-0.13</ele>
  <time>2026-09-02T22:07:12Z</time>
  <course>0.0</course>
  <speed>0.0</speed>
  <fix>3d</fix>
</trkpt>
<trkpt lat="33.810313" lon="-118.393867">
  <ele>0.0</ele>
  <time>2026-09-02T22:07:12Z</time>
  <course>187.65</course>
  <speed>0.0</speed>
  <fix>3d</fix>
</trkpt>
<trkpt lat="33.810313" lon="-118.393867">
  <ele>-0.12</ele>
  <time>2026-09-02T22:07:12Z</time>
  <course>0.0</course>
  <speed>0.0</speed>
  <fix>3d</fix>
</trkpt>
<trkpt lat="33.810313" lon="-118.393867">
  <ele>0.0</ele>
  <time>2026-09-02T22:07:12Z</time>
  <course>187.7</course>
  <speed>0.0</speed>
  <fix>3d</fix>
</trkpt>
<trkpt lat="33.810313" lon="-118.393867">
  <ele>-0.12</ele>
  <time>2026-09-02T22:07:12Z</time>
  <course>0.0</course>
  <speed>0.0</speed>
  <fix>3d</fix>
</trkpt>
<trkpt lat="33.810313" lon="-118.393867">
  <ele>0.0</ele>
  <time>2026-09-02T22:07:12Z</time>
  <course>187.76</course>
  <speed>0.0</speed>
  <fix>3d</fix>
</trkpt>
<trkpt lat="33.810313" lon="-118.393867">
  <ele>-0.12</ele>
  <time>2026-09-02T22:07:12Z</time>
  <course>0.0</course>
  <speed>0.0</speed>
  <fix>3d</fix>
</trkpt>
<trkpt lat="33.810313" lon="-118.393867">
  <ele>0.0</ele>
  <time>2026-09-02T22:07:12Z</time>
  <course>187.81</course>
  <speed>0.0</speed>
  <fix>3d</fix>
</trkpt>
<trkpt lat="33.810313" lon="-118.393867">
  <ele>-0.12</ele>
  <time>2026-09-02T22:07:12Z</time>
  <course>0.0</course>
  <speed>0.0</speed>
  <fix>3d</fix>
</trkpt>
<trkpt lat="33.810313" lon="-118.393867">
  <ele>0.0</ele>
  <time>2026-09-02T22:07:12Z</time>
  <course>187.86</course>
  <speed>0.0</speed>
  <fix>3d</fix>
</trkpt>
<trkpt lat="33.810313" lon="-118.393867">
  <ele>-0.12</ele>
  <time>2026-09-02T22:07:12Z</time>
  <course>0.0</course>
  <speed>0.0</speed>
  <fix>3d</fix>
</trkpt>
<trkpt lat="33.810313" lon="-118.393867">
  <ele>0.0</ele>
  <time>2026-09-02T22:07:12Z</time>
  <course>187.9</course>
  <speed>0.0</speed>
  <fix>3d</fix>
</trkpt>
<trkpt lat="33.810313" lon="-118.393867">
  <ele>-0.12</ele>
  <time>2026-09-02T22:07:12Z</time>
  <course>0.0</course>
  <speed>0.0</speed>
  <fix>3d</fix>
</trkpt>
<trkpt lat="33.810313" lon="-118.393867">
  <ele>0.0</ele>
  <time>2026-09-02T22:07:12Z</time>
  <course>187.94</course>
  <speed>0.0</speed>
  <fix>3d</fix>
</trkpt>
<trkpt lat="33.810313" lon="-118.393867">
  <ele>-0.12</ele>
  <time>2026-09-02T22:07:12Z</time>
  <course>0.0</course>
  <speed>0.0</speed>
  <fix>3d</fix>
</trkpt>
<trkpt lat="33.810313" lon="-118.393867">
  <ele>0.0</ele>
  <time>2026-09-02T22:07:12Z</time>
  <course>187.99</course>
  <speed>0.0</speed>
  <fix>3d</fix>
</trkpt>
<trkpt lat="33.810313" lon="-118.393867">
  <ele>-0.12</ele>
  <time>2026-09-02T22:07:12Z</time>
  <course>0.0</course>
  <speed>0.0</speed>
  <fix>3d</fix>
</trkpt>
<trkpt lat="33.810313" lon="-118.393867">
  <ele>0.0</ele>
  <time>2026-09-02T22:07:12Z</time>
  <course>188.02</course>
  <speed>0.0</speed>
  <fix>3d</fix>
</trkpt>
<trkpt lat="33.810313" lon="-118.393867">
  <ele>-0.12</ele>
  <time>2026-09-02T22:07:12Z</time>
  <course>0.0</course>
  <speed>0.0</speed>
  <fix>3d</fix>
</trkpt>
<trkpt lat="33.810313" lon="-118.393867">
  <ele>0.0</ele>
  <time>2026-09-02T22:07:12Z</time>
  <course>188.06</course>
  <speed>0.0</speed>
  <fix>3d</fix>
</trkpt>
<trkpt lat="33.810313" lon="-118.393867">
  <ele>-0.12</ele>
  <time>2026-09-02T22:07:12Z</time>
  <course>0.0</course>
  <speed>0.0</speed>
  <fix>3d</fix>
</trkpt>
<trkpt lat="33.810313" lon="-118.393867">
  <ele>0.0</ele>
  <time>2026-09-02T22:07:12Z</time>
  <course>188.1</course>
  <speed>0.0</speed>
  <fix>3d</fix>
</trkpt>
<trkpt lat="33.810313" lon="-118.393867">
  <ele>-0.13</ele>
  <time>2026-09-02T22:07:12Z</time>
  <course>0.0</course>
  <speed>0.0</speed>
  <fix>3d</fix>
</trkpt>
<trkpt lat="33.810313" lon="-118.393867">
  <ele>0.0</ele>
  <time>2026-09-02T22:07:12Z</time>
  <course>188.13</course>
  <speed>0.0</speed>
  <fix>3d</fix>
</trkpt>
<trkpt lat="33.810313" lon="-118.393867">
  <ele>-0.13</ele>
  <time>2026-09-02T22:07:12Z</time>
  <course>0.0</course>
  <speed>0.0</speed>
  <fix>3d</fix>
</trkpt>
<trkpt lat="33.810313" lon="-118.393867">
  <ele>0.0</ele>
  <time>2026-09-02T22:07:12Z</time>
  <course>188.16</course>
  <speed>0.0</speed>
  <fix>3d</fix>
</trkpt>
<trkpt lat="33.810313" lon="-118.393867">
  <ele>-0.13</ele>
  <time>2026-09-02T22:07:12Z</time>
  <course>0.0</course>
  <speed>0.0</speed>
  <fix>3d</fix>
</trkpt>
<trkpt lat="33.810313" lon="-118.393867">
  <ele>0.0</ele>
  <time>2026-09-02T22:07:12Z</time>
  <course>188.19</course>
  <speed>0.0</speed>
  <fix>3d</fix>
</trkpt>
<trkpt lat="33.810313" lon="-118.393867">
  <ele>-0.13</ele>
  <time>2026-09-02T22:07:12Z</time>
  <course>0.0</course>
  <speed>0.0</speed>
  <fix>3d</fix>
</trkpt>
<trkpt lat="33.810313" lon="-118.393867">
  <ele>0.0</ele>
  <time>2026-09-02T22:07:12Z</time>
  <course>188.22</course>
  <speed>0.0</speed>
  <fix>3d</fix>
</trkpt>
<trkpt lat="33.810313" lon="-118.393867">
  <ele>-0.13</ele>
  <time>2026-09-02T22:07:12Z</time>
  <course>0.0</course>
  <speed>0.0</speed>
  <fix>3d</fix>
</trkpt>
<trkpt lat="33.810313" lon="-118.393867">
  <ele>0.0</ele>
  <time>2026-09-02T22:07:12Z</time>
  <course>188.24</course>
  <speed>0.0</speed>
  <fix>3d</fix>
</trkpt>
<trkpt lat="33.810313" lon="-118.393867">
  <ele>-0.13</ele>
  <time>2026-09-02T22:07:12Z</time>
  <course>0.0</course>
  <speed>0.0</speed>
  <fix>3d</fix>
</trkpt>
<trkpt lat="33.810313" lon="-118.393867">
  <ele>0.0</ele>
  <time>2026-09-02T22:07:12Z</time>
  <course>188.27</course>
  <speed>0.0</speed>
  <fix>3d</fix>
</trkpt>
<trkpt lat="33.810313" lon="-118.393867">
  <ele>-0.12</ele>
  <time>2026-09-02T22:07:12Z</time>
  <course>0.0</course>
  <speed>0.0</speed>
  <fix>3d</fix>
</trkpt>
<trkpt lat="33.810313" lon="-118.393867">
  <ele>0.0</ele>
  <time>2026-09-02T22:07:12Z</time>
  <course>188.29</course>
  <speed>0.0</speed>
  <fix>3d</fix>
</trkpt>
<trkpt lat="33.810313" lon="-118.393867">
  <ele>-0.12</ele>
  <time>2026-09-02T22:07:12Z</time>
  <course>0.0</course>
  <speed>0.0</speed>
  <fix>3d</fix>
</trkpt>
<trkpt lat="33.810313" lon="-118.393867">
  <ele>0.0</ele>
  <time>2026-09-02T22:07:12Z</time>
  <course>188.32</course>
  <speed>0.0</speed>
  <fix>3d</fix>
</trkpt>
<trkpt lat="33.810313" lon="-118.393867">
  <ele>-0.12</ele>
  <time>2026-09-02T22:07:12Z</time>
  <course>0.0</course>
  <speed>0.0</speed>
  <fix>3d</fix>
</trkpt>
<trkpt lat="33.810313" lon="-118.393867">
  <ele>0.0</ele>
  <time>2026-09-02T22:07:12Z</time>
  <course>188.34</course>
  <speed>0.0</speed>
  <fix>3d</fix>
</trkpt>
<trkpt lat="33.810313" lon="-118.393867">
  <ele>-0.12</ele>
  <time>2026-09-02T22:07:12Z</time>
  <course>0.0</course>
  <speed>0.0</speed>
  <fix>3d</fix>
</trkpt>
<trkpt lat="33.810313" lon="-118.393867">
  <ele>0.0</ele>
  <time>2026-09-02T22:07:12Z</time>
  <course>188.36</course>
  <speed>0.0</speed>
  <fix>3d</fix>
</trkpt>
<trkpt lat="33.810313" lon="-118.393867">
  <ele>-0.12</ele>
  <time>2026-09-02T22:07:12Z</time>
  <course>0.0</course>
  <speed>0.0</speed>
  <fix>3d</fix>
</trkpt>
<trkpt lat="33.810313" lon="-118.393867">
  <ele>0.0</ele>
  <time>2026-09-02T22:07:12Z</time>
  <course>188.38</course>
  <speed>0.0</speed>
  <fix>3d</fix>
</trkpt>
<trkpt lat="33.810313" lon="-118.393867">
  <ele>-0.12</ele>
  <time>2026-09-02T22:07:12Z</time>
  <course>0.0</course>
  <speed>0.0</speed>
  <fix>3d</fix>
</trkpt>
<trkpt lat="33.810313" lon="-118.393867">
  <ele>0.0</ele>
  <time>2026-09-02T22:07:12Z</time>
  <course>188.39</course>
  <speed>0.0</speed>
  <fix>3d</fix>
</trkpt>
<trkpt lat="33.810313" lon="-118.393867">
  <ele>-0.12</ele>
  <time>2026-09-02T22:07:12Z</time>
  <course>0.0</course>
  <speed>0.0</speed>
  <fix>3d</fix>
</trkpt>
<trkpt lat="33.810313" lon="-118.393867">
  <ele>0.0</ele>
  <time>2026-09-02T22:07:12Z</time>
  <course>188.41</course>
  <speed>0.0</speed>
  <fix>3d</fix>
</trkpt>
<trkpt lat="33.810313" lon="-118.393867">
  <ele>-0.12</ele>
  <time>2026-09-02T22:07:12Z</time>
  <course>0.0</course>
  <speed>0.0</speed>
  <fix>3d</fix>
</trkpt>
<trkpt lat="33.810313" lon="-118.393867">
  <ele>0.0</ele>
  <time>2026-09-02T22:07:12Z</time>
  <course>188.42</course>
  <speed>0.0</speed>
  <fix>3d</fix>
</trkpt>
<trkpt lat="33.810313" lon="-118.393867">
  <ele>-0.12</ele>
  <time>2026-09-02T22:07:12Z</time>
  <course>0.0</course>
  <speed>0.0</speed>
  <fix>3d</fix>
</trkpt>
<trkpt lat="33.810313" lon="-118.393867">
  <ele>0.0</ele>
  <time>2026-09-02T22:07:12Z</time>
  <course>188.44</course>
  <speed>0.0</speed>
  <fix>3d</fix>
</trkpt>
<trkpt lat="33.810313" lon="-118.393867">
  <ele>-0.12</ele>
  <time>2026-09-02T22:07:12Z</time>
  <course>0.0</course>
  <speed>0.0</speed>
  <fix>3d</fix>
</trkpt>
<trkpt lat="33.810313" lon="-118.393867">
  <ele>0.0</ele>
  <time>2026-09-02T22:07:12Z</time>
  <course>188.45</course>
  <speed>0.0</speed>
  <fix>3d</fix>
</trkpt>
<trkpt lat="33.810313" lon="-118.393867">
  <ele>-0.13</ele>
  <time>2026-09-02T22:07:12Z</time>
  <course>0.0</course>
  <speed>0.0</speed>
  <fix>3d</fix>
</trkpt>
<trkpt lat="33.810313" lon="-118.393867">
  <ele>0.0</ele>
  <time>2026-09-02T22:07:12Z</time>
  <course>188.46</course>
  <speed>0.0</speed>
  <fix>3d</fix>
</trkpt>
<trkpt lat="33.810313" lon="-118.393867">
  <ele>-0.13</ele>
  <time>2026-09-02T22:07:12Z</time>
  <course>0.0</course>
  <speed>0.0</speed>
  <fix>3d</fix>
</trkpt>
<trkpt lat="33.810313" lon="-118.393867">
  <ele>0.0</ele>
  <time>2026-09-02T22:07:12Z</time>
  <course>188.47</course>
  <speed>0.0</speed>
  <fix>3d</fix>
</trkpt>
<trkpt lat="33.810313" lon="-118.393867">
  <ele>-0.13</ele>
  <time>2026-09-02T22:07:12Z</time>
  <course>0.0</course>
  <speed>0.0</speed>
  <fix>3d</fix>
</trkpt>
<trkpt lat="33.810313" lon="-118.393867">
  <ele>0.0</ele>
  <time>2026-09-02T22:07:12Z</time>
  <course>188.48</course>
  <speed>0.0</speed>
  <fix>3d</fix>
</trkpt>
<trkpt lat="33.810313" lon="-118.393867">
  <ele>-0.13</ele>
  <time>2026-09-02T22:07:12Z</time>
  <course>0.0</course>
  <speed>0.0</speed>
  <fix>3d</fix>
</trkpt>
<trkpt lat="33.810313" lon="-118.393867">
  <ele>0.0</ele>
  <time>2026-09-02T22:07:12Z</time>
  <course>188.49</course>
  <speed>0.0</speed>
  <fix>3d</fix>
</trkpt>
<trkpt lat="33.810313" lon="-118.393867">
  <ele>-0.13</ele>
  <time>2026-09-02T22:07:12Z</time>
  <course>0.0</course>
  <speed>0.0</speed>
  <fix>3d</fix>
</trkpt>
<trkpt lat="33.810313" lon="-118.393867">
  <ele>0.0</ele>
  <time>2026-09-02T22:07:12Z</time>
  <course>188.5</course>
  <speed>0.0</speed>
  <fix>3d</fix>
</trkpt>
<trkpt lat="33.810313" lon="-118.393867">
  <ele>-0.13</ele>
  <time>2026-09-02T22:07:12Z</time>
  <course>0.0</course>
  <speed>0.0</speed>
  <fix>3d</fix>
</trkpt>
<trkpt lat="33.810313" lon="-118.393867">
  <ele>0.0</ele>
  <time>2026-09-02T22:07:12Z</time>
  <course>188.51</course>
  <speed>0.0</speed>
  <fix>3d</fix>
</trkpt>
<trkpt lat="33.810313" lon="-118.393867">
  <ele>-0.12</ele>
  <time>2026-09-02T22:07:12Z</time>
  <course>0.0</course>
  <speed>0.0</speed>
  <fix>3d</fix>
</trkpt>
<trkpt lat="33.810313" lon="-118.393867">
  <ele>0.0</ele>
  <time>2026-09-02T22:07:12Z</time>
  <course>188.52</course>
  <speed>0.0</speed>
  <fix>3d</fix>
</trkpt>
<trkpt lat="33.810313" lon="-118.393867">
  <ele>-0.12</ele>
  <time>2026-09-02T22:07:12Z</time>
  <course>0.0</course>
  <speed>0.0</speed>
  <fix>3d</fix>
</trkpt>
<trkpt lat="33.810313" lon="-118.393867">
  <ele>0.0</ele>
  <time>2026-09-02T22:07:12Z</time>
  <course>188.53</course>
  <speed>0.0</speed>
  <fix>3d</fix>
</trkpt>
<trkpt lat="33.810313" lon="-118.393867">
  <ele>-0.12</ele>
  <time>2026-09-02T22:07:12Z</time>
  <course>0.0</course>
  <speed>0.0</speed>
  <fix>3d</fix>
</trkpt>
<trkpt lat="33.810313" lon="-118.393867">
  <ele>0.0</ele>
  <time>2026-09-02T22:07:12Z</time>
  <course>188.53</course>
  <speed>0.0</speed>
  <fix>3d</fix>
</trkpt>
<trkpt lat="33.810313" lon="-118.393867">
  <ele>-0.12</ele>
  <time>2026-09-02T22:07:12Z</time>
  <course>0.0</course>
  <speed>0.0</speed>
  <fix>3d</fix>
</trkpt>
<trkpt lat="33.810313" lon="-118.393867">
  <ele>0.0</ele>
  <time>2026-09-02T22:07:12Z</time>
  <course>188.54</course>
  <speed>0.0</speed>
  <fix>3d</fix>
</trkpt>
<trkpt lat="33.810313" lon="-118.393867">
  <ele>-0.12</ele>
  <time>2026-09-02T22:07:12Z</time>
  <course>0.0</course>
  <speed>0.0</speed>
  <fix>3d</fix>
</trkpt>
<trkpt lat="33.810313" lon="-118.393867">
  <ele>0.0</ele>
  <time>2026-09-02T22:07:12Z</time>
  <course>188.54</course>
  <speed>0.0</speed>
  <fix>3d</fix>
</trkpt>
<trkpt lat="33.810313" lon="-118.393867">
  <ele>-0.12</ele>
  <time>2026-09-02T22:07:12Z</time>
  <course>0.0</course>
  <speed>0.0</speed>
  <fix>3d</fix>
</trkpt>
<trkpt lat="33.810313" lon="-118.393867">
  <ele>0.0</ele>
  <time>2026-09-02T22:07:12Z</time>
  <course>188.54</course>
  <speed>0.0</speed>
  <fix>3d</fix>
</trkpt>
<trkpt lat="33.810313" lon="-118.393867">
  <ele>-0.12</ele>
  <time>2026-09-02T22:07:12Z</time>
  <course>0.0</course>
  <speed>0.0</speed>
  <fix>3d</fix>
</trkpt>
<trkpt lat="33.810313" lon="-118.393867">
  <ele>0.0</ele>
  <time>2026-09-02T22:07:12Z</time>
  <course>188.55</course>
  <speed>0.0</speed>
  <fix>3d</fix>
</trkpt>
<trkpt lat="33.810313" lon="-118.393867">
  <ele>-0.12</ele>
  <time>2026-09-02T22:07:12Z</time>
  <course>0.0</course>
  <speed>0.0</speed>
  <fix>3d</fix>
</trkpt>
<trkpt lat="33.810313" lon="-118.393867">
  <ele>0.0</ele>
  <time>2026-09-02T22:07:12Z</time>
  <course>188.55</course>
  <speed>0.0</speed>
  <fix>3d</fix>
</trkpt>
<trkpt lat="33.810313" lon="-118.393867">
  <ele>-0.12</ele>
  <time>2026-09-02T22:07:12Z</time>
  <course>0.0</course>
  <speed>0.0</speed>
  <fix>3d</fix>
</trkpt>
<trkpt lat="33.810313" lon="-118.393867">
  <ele>0.0</ele>
  <time>2026-09-02T22:07:12Z</time>
  <course>188.55</course>
  <speed>0.0</speed>
  <fix>3d</fix>
</trkpt>
<trkpt lat="33.810313" lon="-118.393867">
  <ele>-0.12</ele>
  <time>2026-09-02T22:07:12Z</time>
  <course>0.0</course>
  <speed>0.0</speed>
  <fix>3d</fix>
</trkpt>
<trkpt lat="33.810313" lon="-118.393867">
  <ele>-0.126</ele>
  <time>2026-09-02T22:07:12Z</time>
  <course>188.55</course>
  <speed>0.0</speed>
  <fix>3d</fix>
</trkpt>
<trkpt lat="33.810313" lon="-118.393867">
  <ele>-0.13</ele>
  <time>2026-09-02T22:07:12Z</time>
  <course>0.0</course>
  <speed>0.0</speed>
  <fix>3d</fix>
</trkpt>
<trkpt lat="33.810313" lon="-118.393867">
  <ele>-0.126</ele>
  <time>2026-09-02T22:07:12Z</time>
  <course>188.56</course>
  <speed>0.0</speed>
  <fix>3d</fix>
</trkpt>
<trkpt lat="33.810313" lon="-118.393867">
  <ele>-0.13</ele>
  <time>2026-09-02T22:07:12Z</time>
  <course>0.0</course>
  <speed>0.0</speed>
  <fix>3d</fix>
</trkpt>
<trkpt lat="33.810313" lon="-118.393867">
  <ele>-0.125</ele>
  <time>2026-09-02T22:07:12Z</time>
  <course>188.56</course>
  <speed>0.0</speed>
  <fix>3d</fix>
</trkpt>
<trkpt lat="33.810313" lon="-118.393867">
  <ele>-0.13</ele>
  <time>2026-09-02T22:07:12Z</time>
  <course>0.0</course>
  <speed>0.0</speed>
  <fix>3d</fix>
</trkpt>
<trkpt lat="33.810313" lon="-118.393867">
  <ele>-0.123</ele>
  <time>2026-09-02T22:07:12Z</time>
  <course>188.56</course>
  <speed>0.0</speed>
  <fix>3d</fix>
</trkpt>
<trkpt lat="33.810313" lon="-118.393867">
  <ele>-0.13</ele>
  <time>2026-09-02T22:07:12Z</time>
  <course>0.0</course>
  <speed>0.0</speed>
  <fix>3d</fix>
</trkpt>
<trkpt lat="33.810313" lon="-118.393867">
  <ele>-0.121</ele>
  <time>2026-09-02T22:07:12Z</time>
  <course>188.56</course>
  <speed>0.0</speed>
  <fix>3d</fix>
</trkpt>
<trkpt lat="33.810313" lon="-118.393867">
  <ele>-0.12</ele>
  <time>2026-09-02T22:07:12Z</time>
  <course>0.0</course>
  <speed>0.0</speed>
  <fix>3d</fix>
</trkpt>
<trkpt lat="33.810313" lon="-118.393867">
  <ele>-0.12</ele>
  <time>2026-09-02T22:07:12Z</time>
  <course>188.56</course>
  <speed>0.0</speed>
  <fix>3d</fix>
</trkpt>
<trkpt lat="33.810313" lon="-118.393867">
  <ele>-0.12</ele>
  <time>2026-09-02T22:07:12Z</time>
  <course>0.0</course>
  <speed>0.0</speed>
  <fix>3d</fix>
</trkpt>
<trkpt lat="33.810313" lon="-118.393867">
  <ele>-0.119</ele>
  <time>2026-09-02T22:07:12Z</time>
  <course>188.56</course>
  <speed>0.0</speed>
  <fix>3d</fix>
</trkpt>
<trkpt lat="33.810313" lon="-118.393867">
  <ele>-0.12</ele>
  <time>2026-09-02T22:07:12Z</time>
  <course>0.0</course>
  <speed>0.0</speed>
  <fix>3d</fix>
</trkpt>
<trkpt lat="33.810313" lon="-118.393867">
  <ele>-0.12</ele>
  <time>2026-09-02T22:07:12Z</time>
  <course>188.56</course>
  <speed>0.0</speed>
  <fix>3d</fix>
</trkpt>
<trkpt lat="33.810313" lon="-118.393867">
  <ele>-0.12</ele>
  <time>2026-09-02T22:07:12Z</time>
  <course>0.0</course>
  <speed>0.0</speed>
  <fix>3d</fix>
</trkpt>
<trkpt lat="33.810313" lon="-118.393867">
  <ele>-0.123</ele>
  <time>2026-09-02T22:07:12Z</time>
  <course>188.55</course>
  <speed>0.0</speed>
  <fix>3d</fix>
</trkpt>
<trkpt lat="33.810313" lon="-118.393867">
  <ele>-0.12</ele>
  <time>2026-09-02T22:07:12Z</time>
  <course>0.0</course>
  <speed>0.0</speed>
  <fix>3d</fix>
</trkpt>
<trkpt lat="33.810313" lon="-118.393867">
  <ele>-0.127</ele>
  <time>2026-09-02T22:07:12Z</time>
  <course>188.55</course>
  <speed>0.0</speed>
  <fix>3d</fix>
</trkpt>
<trkpt lat="33.810313" lon="-118.393867">
  <ele>-0.12</ele>
  <time>2026-09-02T22:07:12Z</time>
  <course>0.0</course>
  <speed>0.0</speed>
  <fix>3d</fix>
</trkpt>
<trkpt lat="33.810313" lon="-118.393867">
  <ele>-0.13</ele>
  <time>2026-09-02T22:07:12Z</time>
  <course>188.55</course>
  <speed>0.0</speed>
  <fix>3d</fix>
</trkpt>
<trkpt lat="33.810313" lon="-118.393867">
  <ele>-0.12</ele>
  <time>2026-09-02T22:07:12Z</time>
  <course>0.0</course>
  <speed>0.0</speed>
  <fix>3d</fix>
</trkpt>
<trkpt lat="33.810313" lon="-118.393867">
  <ele>-0.132</ele>
  <time>2026-09-02T22:07:12Z</time>
  <course>188.55</course>
  <speed>0.0</speed>
  <fix>3d</fix>
</trkpt>
<trkpt lat="33.810313" lon="-118.393867">
  <ele>-0.12</ele>
  <time>2026-09-02T22:07:12Z</time>
  <course>0.0</course>
  <speed>0.0</speed>
  <fix>3d</fix>
</trkpt>
<trkpt lat="33.810313" lon="-118.393867">
  <ele>-0.132</ele>
  <time>2026-09-02T22:07:12Z</time>
  <course>188.55</course>
  <speed>0.0</speed>
  <fix>3d</fix>
</trkpt>
<trkpt lat="33.810313" lon="-118.393867">
  <ele>-0.12</ele>
  <time>2026-09-02T22:07:12Z</time>
  <course>0.0</course>
  <speed>0.0</speed>
  <fix>3d</fix>
</trkpt>
<trkpt lat="33.810313" lon="-118.393867">
  <ele>-0.132</ele>
  <time>2026-09-02T22:07:12Z</time>
  <course>188.55</course>
  <speed>0.0</speed>
  <fix>3d</fix>
</trkpt>
<trkpt lat="33.810313" lon="-118.393867">
  <ele>-0.12</ele>
  <time>2026-09-02T22:07:12Z</time>
  <course>0.0</course>
  <speed>0.0</speed>
  <fix>3d</fix>
</trkpt>
<trkpt lat="33.810313" lon="-118.393867">
  <ele>-0.132</ele>
  <time>2026-09-02T22:07:12Z</time>
  <course>188.55</course>
  <speed>0.0</speed>
  <fix>3d</fix>
</trkpt>
<trkpt lat="33.810313" lon="-118.393867">
  <ele>-0.12</ele>
  <time>2026-09-02T22:07:12Z</time>
  <course>0.0</course>
  <speed>0.0</speed>
  <fix>3d</fix>
</trkpt>
<trkpt lat="33.810313" lon="-118.393867">
  <ele>-0.131</ele>
  <time>2026-09-02T22:07:12Z</time>
  <course>188.55</course>
  <speed>0.0</speed>
  <fix>3d</fix>
</trkpt>
<trkpt lat="33.810313" lon="-118.393867">
  <ele>-0.12</ele>
  <time>2026-09-02T22:07:12Z</time>
  <course>0.0</course>
  <speed>0.0</speed>
  <fix>3d</fix>
</trkpt>
<trkpt lat="33.810313" lon="-118.393867">
  <ele>-0.129</ele>
  <time>2026-09-02T22:07:12Z</time>
  <course>188.54</course>
  <speed>0.0</speed>
  <fix>3d</fix>
</trkpt>
<trkpt lat="33.810313" lon="-118.393867">
  <ele>-0.13</ele>
  <time>2026-09-02T22:07:12Z</time>
  <course>0.0</course>
  <speed>0.0</speed>
  <fix>3d</fix>
</trkpt>
<trkpt lat="33.810313" lon="-118.393867">
  <ele>-0.128</ele>
  <time>2026-09-02T22:07:12Z</time>
  <course>188.54</course>
  <speed>0.0</speed>
  <fix>3d</fix>
</trkpt>
<trkpt lat="33.810313" lon="-118.393867">
  <ele>-0.13</ele>
  <time>2026-09-02T22:07:12Z</time>
  <course>0.0</course>
  <speed>0.0</speed>
  <fix>3d</fix>
</trkpt>
<trkpt lat="33.810313" lon="-118.393867">
  <ele>-0.125</ele>
  <time>2026-09-02T22:07:12Z</time>
  <course>188.53</course>
  <speed>0.0</speed>
  <fix>3d</fix>
</trkpt>
<trkpt lat="33.810313" lon="-118.393867">
  <ele>-0.12</ele>
  <time>2026-09-02T22:07:12Z</time>
  <course>0.0</course>
  <speed>0.0</speed>
  <fix>3d</fix>
</trkpt>
<trkpt lat="33.810313" lon="-118.393867">
  <ele>-0.123</ele>
  <time>2026-09-02T22:07:12Z</time>
  <course>188.53</course>
  <speed>0.0</speed>
  <fix>3d</fix>
</trkpt>
<trkpt lat="33.810313" lon="-118.393867">
  <ele>-0.12</ele>
  <time>2026-09-02T22:07:12Z</time>
  <course>0.0</course>
  <speed>0.0</speed>
  <fix>3d</fix>
</trkpt>
<trkpt lat="33.810313" lon="-118.393867">
  <ele>-0.121</ele>
  <time>2026-09-02T22:07:12Z</time>
  <course>188.52</course>
  <speed>0.0</speed>
  <fix>3d</fix>
</trkpt>
<trkpt lat="33.810313" lon="-118.393867">
  <ele>-0.12</ele>
  <time>2026-09-02T22:07:12Z</time>
  <course>0.0</course>
  <speed>0.0</speed>
  <fix>3d</fix>
</trkpt>
<trkpt lat="33.810313" lon="-118.393867">
  <ele>-0.121</ele>
  <time>2026-09-02T22:07:12Z</time>
  <course>188.52</course>
  <speed>0.0</speed>
  <fix>3d</fix>
</trkpt>
<trkpt lat="33.810313" lon="-118.393867">
  <ele>-0.12</ele>
  <time>2026-09-02T22:07:12Z</time>
  <course>0.0</course>
  <speed>0.0</speed>
  <fix>3d</fix>
</trkpt>
<trkpt lat="33.810313" lon="-118.393867">
  <ele>-0.121</ele>
  <time>2026-09-02T22:07:12Z</time>
  <course>188.51</course>
  <speed>0.0</speed>
  <fix>3d</fix>
</trkpt>
<trkpt lat="33.810313" lon="-118.393867">
  <ele>-0.12</ele>
  <time>2026-09-02T22:07:12Z</time>
  <course>0.0</course>
  <speed>0.0</speed>
  <fix>3d</fix>
</trkpt>
<trkpt lat="33.810313" lon="-118.393867">
  <ele>-0.123</ele>
  <time>2026-09-02T22:07:12Z</time>
  <course>188.51</course>
  <speed>0.0</speed>
  <fix>3d</fix>
</trkpt>
<trkpt lat="33.810313" lon="-118.393867">
  <ele>-0.12</ele>
  <time>2026-09-02T22:07:12Z</time>
  <course>0.0</course>
  <speed>0.0</speed>
  <fix>3d</fix>
</trkpt>
<trkpt lat="33.810313" lon="-118.393867">
  <ele>-0.126</ele>
  <time>2026-09-02T22:07:12Z</time>
  <course>188.5</course>
  <speed>0.0</speed>
  <fix>3d</fix>
</trkpt>
<trkpt lat="33.810313" lon="-118.393867">
  <ele>-0.12</ele>
  <time>2026-09-02T22:07:12Z</time>
  <course>0.0</course>
  <speed>0.0</speed>
  <fix>3d</fix>
</trkpt>
<trkpt lat="33.810313" lon="-118.393867">
  <ele>-0.127</ele>
  <time>2026-09-02T22:07:12Z</time>
  <course>188.5</course>
  <speed>0.0</speed>
  <fix>3d</fix>
</trkpt>
<trkpt lat="33.810313" lon="-118.393867">
  <ele>-0.12</ele>
  <time>2026-09-02T22:07:12Z</time>
  <course>0.0</course>
  <speed>0.0</speed>
  <fix>3d</fix>
</trkpt>
<trkpt lat="33.810313" lon="-118.393867">
  <ele>-0.128</ele>
  <time>2026-09-02T22:07:12Z</time>
  <course>188.49</course>
  <speed>0.0</speed>
  <fix>3d</fix>
</trkpt>
<trkpt lat="33.810313" lon="-118.393867">
  <ele>-0.12</ele>
  <time>2026-09-02T22:07:12Z</time>
  <course>0.0</course>
  <speed>0.0</speed>
  <fix>3d</fix>
</trkpt>
<trkpt lat="33.810313" lon="-118.393867">
  <ele>-0.127</ele>
  <time>2026-09-02T22:07:12Z</time>
  <course>188.49</course>
  <speed>0.0</speed>
  <fix>3d</fix>
</trkpt>
<trkpt lat="33.810313" lon="-118.393867">
  <ele>-0.12</ele>
  <time>2026-09-02T22:07:12Z</time>
  <course>0.0</course>
  <speed>0.0</speed>
  <fix>3d</fix>
</trkpt>
<trkpt lat="33.810313" lon="-118.393867">
  <ele>-0.127</ele>
  <time>2026-09-02T22:07:12Z</time>
  <course>188.48</course>
  <speed>0.0</speed>
  <fix>3d</fix>
</trkpt>
<trkpt lat="33.810313" lon="-118.393867">
  <ele>-0.12</ele>
  <time>2026-09-02T22:07:12Z</time>
  <course>0.0</course>
  <speed>0.0</speed>
  <fix>3d</fix>
</trkpt>
<trkpt lat="33.810313" lon="-118.393867">
  <ele>-0.127</ele>
  <time>2026-09-02T22:07:12Z</time>
  <course>188.47</course>
  <speed>0.01</speed>
  <fix>3d</fix>
</trkpt>
<trkpt lat="33.810313" lon="-118.393867">
  <ele>-0.12</ele>
  <time>2026-09-02T22:07:12Z</time>
  <course>0.0</course>
  <speed>0.0</speed>
  <fix>3d</fix>
</trkpt>
<trkpt lat="33.810313" lon="-118.393867">
  <ele>-0.127</ele>
  <time>2026-09-02T22:07:12Z</time>
  <course>188.47</course>
  <speed>0.01</speed>
  <fix>3d</fix>
</trkpt>
<trkpt lat="33.810313" lon="-118.393867">
  <ele>-0.12</ele>
  <time>2026-09-02T22:07:12Z</time>
  <course>0.0</course>
  <speed>0.0</speed>
  <fix>3d</fix>
</trkpt>
<trkpt lat="33.810313" lon="-118.393867">
  <ele>-0.127</ele>
  <time>2026-09-02T22:07:12Z</time>
  <course>188.46</course>
  <speed>0.01</speed>
  <fix>3d</fix>
</trkpt>
<trkpt lat="33.810313" lon="-118.393867">
  <ele>-0.12</ele>
  <time>2026-09-02T22:07:12Z</time>
  <course>0.0</course>
  <speed>0.0</speed>
  <fix>3d</fix>
</trkpt>
<trkpt lat="33.810313" lon="-118.393867">
  <ele>-0.126</ele>
  <time>2026-09-02T22:07:12Z</time>
  <course>188.45</course>
  <speed>0.01</speed>
  <fix>3d</fix>
</trkpt>
<trkpt lat="33.810313" lon="-118.393867">
  <ele>-0.12</ele>
  <time>2026-09-02T22:07:12Z</time>
  <course>0.0</course>
  <speed>0.0</speed>
  <fix>3d</fix>
</trkpt>
<trkpt lat="33.810313" lon="-118.393867">
  <ele>-0.126</ele>
  <time>2026-09-02T22:07:12Z</time>
  <course>188.45</course>
  <speed>0.01</speed>
  <fix>3d</fix>
</trkpt>
<trkpt lat="33.810313" lon="-118.393867">
  <ele>-0.12</ele>
  <time>2026-09-02T22:07:12Z</time>
  <course>0.0</course>
  <speed>0.0</speed>
  <fix>3d</fix>
</trkpt>
<trkpt lat="33.810313" lon="-118.393867">
  <ele>-0.125</ele>
  <time>2026-09-02T22:07:12Z</time>
  <course>188.44</course>
  <speed>0.01</speed>
  <fix>3d</fix>
</trkpt>
<trkpt lat="33.810313" lon="-118.393867">
  <ele>-0.12</ele>
  <time>2026-09-02T22:07:12Z</time>
  <course>0.0</course>
  <speed>0.0</speed>
  <fix>3d</fix>
</trkpt>
<trkpt lat="33.810313" lon="-118.393867">
  <ele>-0.126</ele>
  <time>2026-09-02T22:07:12Z</time>
  <course>188.43</course>
  <speed>0.01</speed>
  <fix>3d</fix>
</trkpt>
<trkpt lat="33.810313" lon="-118.393867">
  <ele>-0.12</ele>
  <time>2026-09-02T22:07:12Z</time>
  <course>0.0</course>
  <speed>0.0</speed>
  <fix>3d</fix>
</trkpt>
<trkpt lat="33.810313" lon="-118.393867">
  <ele>-0.127</ele>
  <time>2026-09-02T22:07:12Z</time>
  <course>188.42</course>
  <speed>0.01</speed>
  <fix>3d</fix>
</trkpt>
<trkpt lat="33.810313" lon="-118.393867">
  <ele>-0.12</ele>
  <time>2026-09-02T22:07:12Z</time>
  <course>0.0</course>
  <speed>0.0</speed>
  <fix>3d</fix>
</trkpt>
<trkpt lat="33.810313" lon="-118.393867">
  <ele>-0.128</ele>
  <time>2026-09-02T22:07:12Z</time>
  <course>188.42</course>
  <speed>0.01</speed>
  <fix>3d</fix>
</trkpt>
<trkpt lat="33.810313" lon="-118.393867">
  <ele>-0.12</ele>
  <time>2026-09-02T22:07:12Z</time>
  <course>0.0</course>
  <speed>0.0</speed>
  <fix>3d</fix>
</trkpt>
<trkpt lat="33.810313" lon="-118.393867">
  <ele>-0.129</ele>
  <time>2026-09-02T22:07:12Z</time>
  <course>188.41</course>
  <speed>0.01</speed>
  <fix>3d</fix>
</trkpt>
<trkpt lat="33.810313" lon="-118.393867">
  <ele>-0.12</ele>
  <time>2026-09-02T22:07:12Z</time>
  <course>0.0</course>
  <speed>0.0</speed>
  <fix>3d</fix>
</trkpt>
<trkpt lat="33.810313" lon="-118.393867">
  <ele>-0.129</ele>
  <time>2026-09-02T22:07:12Z</time>
  <course>188.4</course>
  <speed>0.01</speed>
  <fix>3d</fix>
</trkpt>
<trkpt lat="33.810313" lon="-118.393867">
  <ele>-0.12</ele>
  <time>2026-09-02T22:07:12Z</time>
  <course>0.0</course>
  <speed>0.0</speed>
  <fix>3d</fix>
</trkpt>
<trkpt lat="33.810313" lon="-118.393867">
  <ele>-0.13</ele>
  <time>2026-09-02T22:07:12Z</time>
  <course>188.4</course>
  <speed>0.01414213562373095</speed>
  <fix>3d</fix>
</trkpt>
<trkpt lat="33.810313" lon="-118.393867">
  <ele>-0.12</ele>
  <time>2026-09-02T22:07:12Z</time>
  <course>0.0</course>
  <speed>0.0</speed>
  <fix>3d</fix>
</trkpt>
<trkpt lat="33.810313" lon="-118.393867">
  <ele>-0.13</ele>
  <time>2026-09-02T22:07:12Z</time>
  <course>188.39</course>
  <speed>0.01414213562373095</speed>
  <fix>3d</fix>
</trkpt>
<trkpt lat="33.810313" lon="-118.393867">
  <ele>-0.12</ele>
  <time>2026-09-02T22:07:12Z</time>
  <course>0.0</course>
  <speed>0.0</speed>
  <fix>3d</fix>
</trkpt>
<trkpt lat="33.810313" lon="-118.393867">
  <ele>-0.13</ele>
  <time>2026-09-02T22:07:12Z</time>
  <course>188.38</course>
  <speed>0.01414213562373095</speed>
  <fix>3d</fix>
</trkpt>
<trkpt lat="33.810313" lon="-118.393867">
  <ele>-0.12</ele>
  <time>2026-09-02T22:07:12Z</time>
  <course>0.0</course>
  <speed>0.0</speed>
  <fix>3d</fix>
</trkpt>
<trkpt lat="33.810313" lon="-118.393867">
  <ele>-0.129</ele>
  <time>2026-09-02T22:07:12Z</time>
  <course>188.37</course>
  <speed>0.01414213562373095</speed>
  <fix>3d</fix>
</trkpt>
<trkpt lat="33.810313" lon="-118.393867">
  <ele>-0.12</ele>
  <time>2026-09-02T22:07:12Z</time>
  <course>0.0</course>
  <speed>0.0</speed>
  <fix>3d</fix>
</trkpt>
<trkpt lat="33.810313" lon="-118.393867">
  <ele>-0.128</ele>
  <time>2026-09-02T22:07:12Z</time>
  <course>188.37</course>
  <speed>0.01414213562373095</speed>
  <fix>3d</fix>
</trkpt>
<trkpt lat="33.810313" lon="-118.393867">
  <ele>-0.12</ele>
  <time>2026-09-02T22:07:12Z</time>
  <course>0.0</course>
  <speed>0.0</speed>
  <fix>3d</fix>
</trkpt>
<trkpt lat="33.810313" lon="-118.393867">
  <ele>-0.126</ele>
  <time>2026-09-02T22:07:12Z</time>
  <course>188.36</course>
  <speed>0.01414213562373095</speed>
  <fix>3d</fix>
</trkpt>
<trkpt lat="33.810313" lon="-118.393867">
  <ele>-0.12</ele>
  <time>2026-09-02T22:07:12Z</time>
  <course>0.0</course>
  <speed>0.0</speed>
  <fix>3d</fix>
</trkpt>
<trkpt lat="33.810313" lon="-118.393867">
  <ele>-0.124</ele>
  <time>2026-09-02T22:07:12Z</time>
  <course>188.35</course>
  <speed>0.01414213562373095</speed>
  <fix>3d</fix>
</trkpt>
<trkpt lat="33.810313" lon="-118.393867">
  <ele>-0.12</ele>
  <time>2026-09-02T22:07:12Z</time>
  <course>0.0</course>
  <speed>0.0</speed>
  <fix>3d</fix>
</trkpt>
<trkpt lat="33.810313" lon="-118.393867">
  <ele>-0.122</ele>
  <time>2026-09-02T22:07:12Z</time>
  <course>188.34</course>
  <speed>0.01414213562373095</speed>
  <fix>3d</fix>
</trkpt>
<trkpt lat="33.810313" lon="-118.393867">
  <ele>-0.12</ele>
  <time>2026-09-02T22:07:12Z</time>
  <course>0.0</course>
  <speed>0.0</speed>
  <fix>3d</fix>
</trkpt>
<trkpt lat="33.810313" lon="-118.393867">
  <ele>-0.123</ele>
  <time>2026-09-02T22:07:12Z</time>
  <course>188.34</course>
  <speed>0.01414213562373095</speed>
  <fix>3d</fix>
</trkpt>
<trkpt lat="33.810313" lon="-118.393867">
  <ele>-0.12</ele>
  <time>2026-09-02T22:07:12Z</time>
  <course>0.0</course>
  <speed>0.0</speed>
  <fix>3d</fix>
</trkpt>
<trkpt lat="33.810313" lon="-118.393867">
  <ele>-0.125</ele>
  <time>2026-09-02T22:07:12Z</time>
  <course>188.33</course>
  <speed>0.01414213562373095</speed>
  <fix>3d</fix>
</trkpt>
<trkpt lat="33.810313" lon="-118.393867">
  <ele>-0.12</ele>
  <time>2026-09-02T22:07:12Z</time>
  <course>0.0</course>
  <speed>0.0</speed>
  <fix>3d</fix>
</trkpt>
<trkpt lat="33.810313" lon="-118.393867">
  <ele>-0.128</ele>
  <time>2026-09-02T22:07:12Z</time>
  <course>188.32</course>
  <speed>0.01414213562373095</speed>
  <fix>3d</fix>
</trkpt>
<trkpt lat="33.810313" lon="-118.393867">
  <ele>-0.12</ele>
  <time>2026-09-02T22:07:12Z</time>
  <course>0.0</course>
  <speed>0.0</speed>
  <fix>3d</fix>
</trkpt>
<trkpt lat="33.810313" lon="-118.393867">
  <ele>-0.131</ele>
  <time>2026-09-02T22:07:12Z</time>
  <course>188.31</course>
  <speed>0.01414213562373095</speed>
  <fix>3d</fix>
</trkpt>
<trkpt lat="33.810313" lon="-118.393867">
  <ele>-0.12</ele>
  <time>2026-09-02T22:07:12Z</time>
  <course>0.0</course>
  <speed>0.0</speed>
  <fix>3d</fix>
</trkpt>
<trkpt lat="33.810313" lon="-118.393867">
  <ele>-0.134</ele>
  <time>2026-09-02T22:07:12Z</time>
  <course>188.3</course>
  <speed>0.01414213562373095</speed>
  <fix>3d</fix>
</trkpt>
<trkpt lat="33.810313" lon="-118.393867">
  <ele>-0.12</ele>
  <time>2026-09-02T22:07:12Z</time>
  <course>0.0</course>
  <speed>0.0</speed>
  <fix>3d</fix>
</trkpt>
<trkpt lat="33.810313" lon="-118.393867">
  <ele>-0.135</ele>
  <time>2026-09-02T22:07:12Z</time>
  <course>188.3</course>
  <speed>0.01414213562373095</speed>
  <fix>3d</fix>
</trkpt>
<trkpt lat="33.810313" lon="-118.393867">
  <ele>-0.12</ele>
  <time>2026-09-02T22:07:12Z</time>
  <course>0.0</course>
  <speed>0.0</speed>
  <fix>3d</fix>
</trkpt>
<trkpt lat="33.810313" lon="-118.393867">
  <ele>-0.134</ele>
  <time>2026-09-02T22:07:12Z</time>
  <course>188.29</course>
  <speed>0.01414213562373095</speed>
  <fix>3d</fix>
</trkpt>
<trkpt lat="33.810313" lon="-118.393867">
  <ele>-0.12</ele>
  <time>2026-09-02T22:07:12Z</time>
  <course>0.0</course>
  <speed>0.0</speed>
  <fix>3d</fix>
</trkpt>
<trkpt lat="33.810313" lon="-118.393867">
  <ele>-0.132</ele>
  <time>2026-09-02T22:07:12Z</time>
  <course>188.28</course>
  <speed>0.01414213562373095</speed>
  <fix>3d</fix>
</trkpt>
<trkpt lat="33.810313" lon="-118.393867">
  <ele>-0.12</ele>
  <time>2026-09-02T22:07:12Z</time>
  <course>0.0</course>
  <speed>0.0</speed>
  <fix>3d</fix>
</trkpt>
<trkpt lat="33.810313" lon="-118.393867">
  <ele>-0.13</ele>
  <time>2026-09-02T22:07:12Z</time>
  <course>188.27</course>
  <speed>0.01414213562373095</speed>
  <fix>3d</fix>
</trkpt>
<trkpt lat="33.810313" lon="-118.393867">
  <ele>-0.12</ele>
  <time>2026-09-02T22:07:12Z</time>
  <course>0.0</course>
  <speed>0.0</speed>
  <fix>3d</fix>
</trkpt>
<trkpt lat="33.810313" lon="-118.393867">
  <ele>-0.127</ele>
  <time>2026-09-02T22:07:12Z</time>
  <course>188.26</course>
  <speed>0.01414213562373095</speed>
  <fix>3d</fix>
</trkpt>
<trkpt lat="33.810313" lon="-118.393867">
  <ele>-0.12</ele>
  <time>2026-09-02T22:07:12Z</time>
  <course>0.0</course>
  <speed>0.0</speed>
  <fix>3d</fix>
</trkpt>
<trkpt lat="33.810313" lon="-118.393867">
  <ele>-0.125</ele>
  <time>2026-09-02T22:07:12Z</time>
  <course>188.25</course>
  <speed>0.01414213562373095</speed>
  <fix>3d</fix>
</trkpt>
<trkpt lat="33.810313" lon="-118.393867">
  <ele>-0.12</ele>
  <time>2026-09-02T22:07:12Z</time>
  <course>0.0</course>
  <speed>0.0</speed>
  <fix>3d</fix>
</trkpt>
<trkpt lat="33.810313" lon="-118.393867">
  <ele>-0.123</ele>
  <time>2026-09-02T22:07:12Z</time>
  <course>188.25</course>
  <speed>0.01414213562373095</speed>
  <fix>3d</fix>
</trkpt>
<trkpt lat="33.810313" lon="-118.393867">
  <ele>-0.12</ele>
  <time>2026-09-02T22:07:12Z</time>
  <course>0.0</course>
  <speed>0.0</speed>
  <fix>3d</fix>
</trkpt>
<trkpt lat="33.810313" lon="-118.393867">
  <ele>-0.124</ele>
  <time>2026-09-02T22:07:12Z</time>
  <course>188.24</course>
  <speed>0.01414213562373095</speed>
  <fix>3d</fix>
</trkpt>
<trkpt lat="33.810313" lon="-118.393867">
  <ele>-0.12</ele>
  <time>2026-09-02T22:07:12Z</time>
  <course>0.0</course>
  <speed>0.0</speed>
  <fix>3d</fix>
</trkpt>
<trkpt lat="33.810313" lon="-118.393867">
  <ele>-0.125</ele>
  <time>2026-09-02T22:07:12Z</time>
  <course>188.23</course>
  <speed>0.01414213562373095</speed>
  <fix>3d</fix>
</trkpt>
<trkpt lat="33.810313" lon="-118.393867">
  <ele>-0.12</ele>
  <time>2026-09-02T22:07:12Z</time>
  <course>0.0</course>
  <speed>0.0</speed>
  <fix>3d</fix>
</trkpt>
<trkpt lat="33.810313" lon="-118.393867">
  <ele>-0.127</ele>
  <time>2026-09-02T22:07:12Z</time>
  <course>188.22</course>
  <speed>0.01414213562373095</speed>
  <fix>3d</fix>
</trkpt>
<trkpt lat="33.810313" lon="-118.393867">
  <ele>-0.12</ele>
  <time>2026-09-02T22:07:12Z</time>
  <course>0.0</course>
  <speed>0.0</speed>
  <fix>3d</fix>
</trkpt>
<trkpt lat="33.810313" lon="-118.393867">
  <ele>-0.128</ele>
  <time>2026-09-02T22:07:12Z</time>
  <course>188.21</course>
  <speed>0.01414213562373095</speed>
  <fix>3d</fix>
</trkpt>
<trkpt lat="33.810313" lon="-118.393867">
  <ele>-0.12</ele>
  <time>2026-09-02T22:07:12Z</time>
  <course>0.0</course>
  <speed>0.0</speed>
  <fix>3d</fix>
</trkpt>
<trkpt lat="33.810313" lon="-118.393867">
  <ele>-0.129</ele>
  <time>2026-09-02T22:07:12Z</time>
  <course>188.21</course>
  <speed>0.01414213562373095</speed>
  <fix>3d</fix>
</trkpt>
<trkpt lat="33.810313" lon="-118.393867">
  <ele>-0.12</ele>
  <time>2026-09-02T22:07:12Z</time>
  <course>0.0</course>
  <speed>0.0</speed>
  <fix>3d</fix>
</trkpt>
<trkpt lat="33.810313" lon="-118.393867">
  <ele>-0.129</ele>
  <time>2026-09-02T22:07:12Z</time>
  <course>188.2</course>
  <speed>0.01414213562373095</speed>
  <fix>3d</fix>
</trkpt>
<trkpt lat="33.810313" lon="-118.393867">
  <ele>-0.12</ele>
  <time>2026-09-02T22:07:12Z</time>
  <course>0.0</course>
  <speed>0.0</speed>
  <fix>3d</fix>
</trkpt>
<trkpt lat="33.810313" lon="-118.393867">
  <ele>-0.128</ele>
  <time>2026-09-02T22:07:12Z</time>
  <course>188.19</course>
  <speed>0.01414213562373095</speed>
  <fix>3d</fix>
</trkpt>
<trkpt lat="33.810313" lon="-118.393867">
  <ele>-0.12</ele>
  <time>2026-09-02T22:07:12Z</time>
  <course>0.0</course>
  <speed>0.0</speed>
  <fix>3d</fix>
</trkpt>
<trkpt lat="33.810313" lon="-118.393867">
  <ele>-0.128</ele>
  <time>2026-09-02T22:07:12Z</time>
  <course>188.18</course>
  <speed>0.01414213562373095</speed>
  <fix>3d</fix>
</trkpt>
<trkpt lat="33.810313" lon="-118.393867">
  <ele>-0.12</ele>
  <time>2026-09-02T22:07:12Z</time>
  <course>0.0</course>
  <speed>0.0</speed>
  <fix>3d</fix>
</trkpt>
<trkpt lat="33.810313" lon="-118.393867">
  <ele>-0.127</ele>
  <time>2026-09-02T22:07:12Z</time>
  <course>188.17</course>
  <speed>0.01414213562373095</speed>
  <fix>3d</fix>
</trkpt>
<trkpt lat="33.810313" lon="-118.393867">
  <ele>-0.12</ele>
  <time>2026-09-02T22:07:12Z</time>
  <course>0.0</course>
  <speed>0.0</speed>
  <fix>3d</fix>
</trkpt>
<trkpt lat="33.810313" lon="-118.393867">
  <ele>-0.127</ele>
  <time>2026-09-02T22:07:12Z</time>
  <course>188.16</course>
  <speed>0.01414213562373095</speed>
  <fix>3d</fix>
</trkpt>
<trkpt lat="33.810313" lon="-118.393867">
  <ele>-0.12</ele>
  <time>2026-09-02T22:07:12Z</time>
  <course>0.0</course>
  <speed>0.0</speed>
  <fix>3d</fix>
</trkpt>
<trkpt lat="33.810313" lon="-118.393867">
  <ele>-0.128</ele>
  <time>2026-09-02T22:07:12Z</time>
  <course>188.16</course>
  <speed>0.01414213562373095</speed>
  <fix>3d</fix>
</trkpt>
<trkpt lat="33.810313" lon="-118.393867">
  <ele>-0.12</ele>
  <time>2026-09-02T22:07:12Z</time>
  <course>0.0</course>
  <speed>0.0</speed>
  <fix>3d</fix>
</trkpt>
<trkpt lat="33.810313" lon="-118.393867">
  <ele>-0.129</ele>
  <time>2026-09-02T22:07:12Z</time>
  <course>188.15</course>
  <speed>0.01414213562373095</speed>
  <fix>3d</fix>
</trkpt>
<trkpt lat="33.810313" lon="-118.393867">
  <ele>-0.12</ele>
  <time>2026-09-02T22:07:12Z</time>
  <course>0.0</course>
  <speed>0.0</speed>
  <fix>3d</fix>
</trkpt>
<trkpt lat="33.810313" lon="-118.393867">
  <ele>-0.131</ele>
  <time>2026-09-02T22:07:12Z</time>
  <course>188.14</course>
  <speed>0.01414213562373095</speed>
  <fix>3d</fix>
</trkpt>
<trkpt lat="33.810313" lon="-118.393867">
  <ele>-0.12</ele>
  <time>2026-09-02T22:07:12Z</time>
  <course>0.0</course>
  <speed>0.0</speed>
  <fix>3d</fix>
</trkpt>
<trkpt lat="33.810313" lon="-118.393867">
  <ele>-0.133</ele>
  <time>2026-09-02T22:07:12Z</time>
  <course>188.13</course>
  <speed>0.01414213562373095</speed>
  <fix>3d</fix>
</trkpt>
<trkpt lat="33.810313" lon="-118.393867">
  <ele>-0.12</ele>
  <time>2026-09-02T22:07:12Z</time>
  <course>0.0</course>
  <speed>0.0</speed>
  <fix>3d</fix>
</trkpt>
<trkpt lat="33.810313" lon="-118.393867">
  <ele>-0.135</ele>
  <time>2026-09-02T22:07:12Z</time>
  <course>188.12</course>
  <speed>0.01414213562373095</speed>
  <fix>3d</fix>
</trkpt>
<trkpt lat="33.810313" lon="-118.393867">
  <ele>-0.12</ele>
  <time>2026-09-02T22:07:12Z</time>
  <course>0.0</course>
  <speed>0.0</speed>
  <fix>3d</fix>
</trkpt>
<trkpt lat="33.810313" lon="-118.393867">
  <ele>-0.136</ele>
  <time>2026-09-02T22:07:12Z</time>
  <course>188.12</course>
  <speed>0.01414213562373095</speed>
  <fix>3d</fix>
</trkpt>
<trkpt lat="33.810313" lon="-118.393867">
  <ele>-0.12</ele>
  <time>2026-09-02T22:07:13Z</time>
  <course>0.0</course>
  <speed>0.0</speed>
  <fix>3d</fix>
</trkpt>
<trkpt lat="33.810313" lon="-118.393867">
  <ele>-0.136</ele>
  <time>2026-09-02T22:07:13Z</time>
  <course>188.11</course>
  <speed>0.01414213562373095</speed>
  <fix>3d</fix>
</trkpt>
<trkpt lat="33.810313" lon="-118.393867">
  <ele>-0.12</ele>
  <time>2026-09-02T22:07:13Z</time>
  <course>0.0</course>
  <speed>0.0</speed>
  <fix>3d</fix>
</trkpt>
<trkpt lat="33.810313" lon="-118.393867">
  <ele>-0.136</ele>
  <time>2026-09-02T22:07:13Z</time>
  <course>188.1</course>
  <speed>0.01414213562373095</speed>
  <fix>3d</fix>
</trkpt>
<trkpt lat="33.810313" lon="-118.393867">
  <ele>-0.12</ele>
  <time>2026-09-02T22:07:13Z</time>
  <course>0.0</course>
  <speed>0.0</speed>
  <fix>3d</fix>
</trkpt>
<trkpt lat="33.810313" lon="-118.393867">
  <ele>-0.135</ele>
  <time>2026-09-02T22:07:13Z</time>
  <course>188.09</course>
  <speed>0.01414213562373095</speed>
  <fix>3d</fix>
</trkpt>
<trkpt lat="33.810313" lon="-118.393867">
  <ele>-0.12</ele>
  <time>2026-09-02T22:07:13Z</time>
  <course>0.0</course>
  <speed>0.0</speed>
  <fix>3d</fix>
</trkpt>
<trkpt lat="33.810313" lon="-118.393867">
  <ele>-0.134</ele>
  <time>2026-09-02T22:07:13Z</time>
  <course>188.08</course>
  <speed>0.01414213562373095</speed>
  <fix>3d</fix>
</trkpt>
<trkpt lat="33.810313" lon="-118.393867">
  <ele>-0.12</ele>
  <time>2026-09-02T22:07:13Z</time>
  <course>0.0</course>
  <speed>0.0</speed>
  <fix>3d</fix>
</trkpt>
<trkpt lat="33.810313" lon="-118.393867">
  <ele>-0.131</ele>
  <time>2026-09-02T22:07:13Z</time>
  <course>188.07</course>
  <speed>0.022360679774997897</speed>
  <fix>3d</fix>
</trkpt>
<trkpt lat="33.810313" lon="-118.393867">
  <ele>-0.12</ele>
  <time>2026-09-02T22:07:13Z</time>
  <course>0.0</course>
  <speed>0.0</speed>
  <fix>3d</fix>
</trkpt>
<trkpt lat="33.810313" lon="-118.393867">
  <ele>-0.128</ele>
  <time>2026-09-02T22:07:13Z</time>
  <course>188.07</course>
  <speed>0.022360679774997897</speed>
  <fix>3d</fix>
</trkpt>
<trkpt lat="33.810313" lon="-118.393867">
  <ele>-0.12</ele>
  <time>2026-09-02T22:07:13Z</time>
  <course>0.0</course>
  <speed>0.0</speed>
  <fix>3d</fix>
</trkpt>
<trkpt lat="33.810313" lon="-118.393867">
  <ele>-0.127</ele>
  <time>2026-09-02T22:07:13Z</time>
  <course>188.06</course>
  <speed>0.022360679774997897</speed>
  <fix>3d</fix>
</trkpt>
<trkpt lat="33.810313" lon="-118.393867">
  <ele>-0.12</ele>
  <time>2026-09-02T22:07:13Z</time>
  <course>0.0</course>
  <speed>0.0</speed>
  <fix>3d</fix>
</trkpt>
<trkpt lat="33.810313" lon="-118.393867">
  <ele>-0.126</ele>
  <time>2026-09-02T22:07:13Z</time>
  <course>188.05</course>
  <speed>0.022360679774997897</speed>
  <fix>3d</fix>
</trkpt>
<trkpt lat="33.810313" lon="-118.393867">
  <ele>-0.12</ele>
  <time>2026-09-02T22:07:13Z</time>
  <course>0.0</course>
  <speed>0.0</speed>
  <fix>3d</fix>
</trkpt>
<trkpt lat="33.810313" lon="-118.393867">
  <ele>-0.126</ele>
  <time>2026-09-02T22:07:13Z</time>
  <course>188.04</course>
  <speed>0.022360679774997897</speed>
  <fix>3d</fix>
</trkpt>
<trkpt lat="33.810313" lon="-118.393867">
  <ele>-0.12</ele>
  <time>2026-09-02T22:07:13Z</time>
  <course>0.0</course>
  <speed>0.0</speed>
  <fix>3d</fix>
</trkpt>
<trkpt lat="33.810313" lon="-118.393867">
  <ele>-0.127</ele>
  <time>2026-09-02T22:07:13Z</time>
  <course>188.03</course>
  <speed>0.022360679774997897</speed>
  <fix>3d</fix>
</trkpt>
<trkpt lat="33.810313" lon="-118.393867">
  <ele>-0.12</ele>
  <time>2026-09-02T22:07:13Z</time>
  <course>0.0</course>
  <speed>0.0</speed>
  <fix>3d</fix>
</trkpt>
<trkpt lat="33.810313" lon="-118.393867">
  <ele>-0.127</ele>
  <time>2026-09-02T22:07:13Z</time>
  <course>188.03</course>
  <speed>0.022360679774997897</speed>
  <fix>3d</fix>
</trkpt>
<trkpt lat="33.810313" lon="-118.393867">
  <ele>-0.12</ele>
  <time>2026-09-02T22:07:13Z</time>
  <course>0.0</course>
  <speed>0.0</speed>
  <fix>3d</fix>
</trkpt>
<trkpt lat="33.810313" lon="-118.393867">
  <ele>-0.127</ele>
  <time>2026-09-02T22:07:13Z</time>
  <course>188.02</course>
  <speed>0.022360679774997897</speed>
  <fix>3d</fix>
</trkpt>
<trkpt lat="33.810313" lon="-118.393867">
  <ele>-0.12</ele>
  <time>2026-09-02T22:07:13Z</time>
  <course>0.0</course>
  <speed>0.0</speed>
  <fix>3d</fix>
</trkpt>
<trkpt lat="33.810313" lon="-118.393867">
  <ele>-0.128</ele>
  <time>2026-09-02T22:07:13Z</time>
  <course>188.01</course>
  <speed>0.022360679774997897</speed>
  <fix>3d</fix>
</trkpt>
<trkpt lat="33.810313" lon="-118.393867">
  <ele>-0.12</ele>
  <time>2026-09-02T22:07:13Z</time>
  <course>0.0</course>
  <speed>0.0</speed>
  <fix>3d</fix>
</trkpt>
<trkpt lat="33.810313" lon="-118.393867">
  <ele>-0.128</ele>
  <time>2026-09-02T22:07:13Z</time>
  <course>188.0</course>
  <speed>0.022360679774997897</speed>
  <fix>3d</fix>
</trkpt>
<trkpt lat="33.810313" lon="-118.393867">
  <ele>-0.12</ele>
  <time>2026-09-02T22:07:13Z</time>
  <course>0.0</course>
  <speed>0.0</speed>
  <fix>3d</fix>
</trkpt>
<trkpt lat="33.810313" lon="-118.393867">
  <ele>-0.128</ele>
  <time>2026-09-02T22:07:13Z</time>
  <course>187.99</course>
  <speed>0.022360679774997897</speed>
  <fix>3d</fix>
</trkpt>
<trkpt lat="33.810313" lon="-118.393867">
  <ele>-0.12</ele>
  <time>2026-09-02T22:07:13Z</time>
  <course>0.0</course>
  <speed>0.0</speed>
  <fix>3d</fix>
</trkpt>
<trkpt lat="33.810313" lon="-118.393867">
  <ele>-0.126</ele>
  <time>2026-09-02T22:07:13Z</time>
  <course>187.99</course>
  <speed>0.022360679774997897</speed>
  <fix>3d</fix>
</trkpt>
<trkpt lat="33.810313" lon="-118.393867">
  <ele>-0.12</ele>
  <time>2026-09-02T22:07:13Z</time>
  <course>0.0</course>
  <speed>0.0</speed>
  <fix>3d</fix>
</trkpt>
<trkpt lat="33.810313" lon="-118.393867">
  <ele>-0.124</ele>
  <time>2026-09-02T22:07:13Z</time>
  <course>187.98</course>
  <speed>0.022360679774997897</speed>
  <fix>3d</fix>
</trkpt>
<trkpt lat="33.810313" lon="-118.393867">
  <ele>-0.12</ele>
  <time>2026-09-02T22:07:13Z</time>
  <course>0.0</course>
  <speed>0.0</speed>
  <fix>3d</fix>
</trkpt>
<trkpt lat="33.810313" lon="-118.393867">
  <ele>-0.122</ele>
  <time>2026-09-02T22:07:13Z</time>
  <course>187.97</course>
  <speed>0.022360679774997897</speed>
  <fix>3d</fix>
</trkpt>
<trkpt lat="33.810313" lon="-118.393867">
  <ele>-0.12</ele>
  <time>2026-09-02T22:07:13Z</time>
  <course>0.0</course>
  <speed>0.0</speed>
  <fix>3d</fix>
</trkpt>
<trkpt lat="33.810313" lon="-118.393867">
  <ele>-0.12</ele>
  <time>2026-09-02T22:07:13Z</time>
  <course>187.96</course>
  <speed>0.022360679774997897</speed>
  <fix>3d</fix>
</trkpt>
<trkpt lat="33.810313" lon="-118.393867">
  <ele>-0.12</ele>
  <time>2026-09-02T22:07:13Z</time>
  <course>0.0</course>
  <speed>0.0</speed>
  <fix>3d</fix>
</trkpt>
<trkpt lat="33.810313" lon="-118.393867">
  <ele>-0.12</ele>
  <time>2026-09-02T22:07:13Z</time>
  <course>187.95</course>
  <speed>0.022360679774997897</speed>
  <fix>3d</fix>
</trkpt>
<trkpt lat="33.810313" lon="-118.393867">
  <ele>-0.12</ele>
  <time>2026-09-02T22:07:13Z</time>
  <course>0.0</course>
  <speed>0.0</speed>
  <fix>3d</fix>
</trkpt>
<trkpt lat="33.810313" lon="-118.393867">
  <ele>-0.122</ele>
  <time>2026-09-02T22:07:13Z</time>
  <course>187.94</course>
  <speed>0.022360679774997897</speed>
  <fix>3d</fix>
</trkpt>
<trkpt lat="33.810313" lon="-118.393867">
  <ele>-0.12</ele>
  <time>2026-09-02T22:07:13Z</time>
  <course>0.0</course>
  <speed>0.0</speed>
  <fix>3d</fix>
</trkpt>
<trkpt lat="33.810313" lon="-118.393867">
  <ele>-0.125</ele>
  <time>2026-09-02T22:07:13Z</time>
  <course>187.94</course>
  <speed>0.022360679774997897</speed>
  <fix>3d</fix>
</trkpt>
<trkpt lat="33.810313" lon="-118.393867">
  <ele>-0.12</ele>
  <time>2026-09-02T22:07:13Z</time>
  <course>0.0</course>
  <speed>0.0</speed>
  <fix>3d</fix>
</trkpt>
<trkpt lat="33.810313" lon="-118.393867">
  <ele>-0.128</ele>
  <time>2026-09-02T22:07:13Z</time>
  <course>187.93</course>
  <speed>0.022360679774997897</speed>
  <fix>3d</fix>
</trkpt>
<trkpt lat="33.810313" lon="-118.393867">
  <ele>-0.12</ele>
  <time>2026-09-02T22:07:13Z</time>
  <course>0.0</course>
  <speed>0.0</speed>
  <fix>3d</fix>
</trkpt>
<trkpt lat="33.810313" lon="-118.393867">
  <ele>-0.131</ele>
  <time>2026-09-02T22:07:13Z</time>
  <course>187.92</course>
  <speed>0.022360679774997897</speed>
  <fix>3d</fix>
</trkpt>
<trkpt lat="33.810313" lon="-118.393867">
  <ele>-0.12</ele>
  <time>2026-09-02T22:07:13Z</time>
  <course>0.0</course>
  <speed>0.0</speed>
  <fix>3d</fix>
</trkpt>
<trkpt lat="33.810313" lon="-118.393867">
  <ele>-0.132</ele>
  <time>2026-09-02T22:07:13Z</time>
  <course>187.91</course>
  <speed>0.022360679774997897</speed>
  <fix>3d</fix>
</trkpt>
<trkpt lat="33.810313" lon="-118.393867">
  <ele>-0.12</ele>
  <time>2026-09-02T22:07:13Z</time>
  <course>0.0</course>
  <speed>0.0</speed>
  <fix>3d</fix>
</trkpt>
<trkpt lat="33.810313" lon="-118.393867">
  <ele>-0.132</ele>
  <time>2026-09-02T22:07:13Z</time>
  <course>187.91</course>
  <speed>0.022360679774997897</speed>
  <fix>3d</fix>
</trkpt>
<trkpt lat="33.810313" lon="-118.393867">
  <ele>-0.12</ele>
  <time>2026-09-02T22:07:13Z</time>
  <course>0.0</course>
  <speed>0.0</speed>
  <fix>3d</fix>
</trkpt>
<trkpt lat="33.810313" lon="-118.393867">
  <ele>-0.132</ele>
  <time>2026-09-02T22:07:13Z</time>
  <course>187.9</course>
  <speed>0.022360679774997897</speed>
  <fix>3d</fix>
</trkpt>
<trkpt lat="33.810313" lon="-118.393867">
  <ele>-0.12</ele>
  <time>2026-09-02T22:07:13Z</time>
  <course>0.0</course>
  <speed>0.0</speed>
  <fix>3d</fix>
</trkpt>
<trkpt lat="33.810313" lon="-118.393867">
  <ele>-0.13</ele>
  <time>2026-09-02T22:07:13Z</time>
  <course>187.89</course>
  <speed>0.022360679774997897</speed>
  <fix>3d</fix>
</trkpt>
<trkpt lat="33.810313" lon="-118.393867">
  <ele>-0.12</ele>
  <time>2026-09-02T22:07:13Z</time>
  <course>0.0</course>
  <speed>0.0</speed>
  <fix>3d</fix>
</trkpt>
<trkpt lat="33.810313" lon="-118.393867">
  <ele>-0.127</ele>
  <time>2026-09-02T22:07:13Z</time>
  <course>187.88</course>
  <speed>0.022360679774997897</speed>
  <fix>3d</fix>
</trkpt>
<trkpt lat="33.810313" lon="-118.393867">
  <ele>-0.12</ele>
  <time>2026-09-02T22:07:13Z</time>
  <course>0.0</course>
  <speed>0.0</speed>
  <fix>3d</fix>
</trkpt>
<trkpt lat="33.810313" lon="-118.393867">
  <ele>-0.123</ele>
  <time>2026-09-02T22:07:13Z</time>
  <course>187.87</course>
  <speed>0.022360679774997897</speed>
  <fix>3d</fix>
</trkpt>
<trkpt lat="33.810313" lon="-118.393867">
  <ele>-0.12</ele>
  <time>2026-09-02T22:07:13Z</time>
  <course>0.0</course>
  <speed>0.0</speed>
  <fix>3d</fix>
</trkpt>
<trkpt lat="33.810313" lon="-118.393867">
  <ele>-0.121</ele>
  <time>2026-09-02T22:07:13Z</time>
  <course>187.87</course>
  <speed>0.022360679774997897</speed>
  <fix>3d</fix>
</trkpt>
<trkpt lat="33.810313" lon="-118.393867">
  <ele>-0.12</ele>
  <time>2026-09-02T22:07:13Z</time>
  <course>0.0</course>
  <speed>0.0</speed>
  <fix>3d</fix>
</trkpt>
<trkpt lat="33.810313" lon="-118.393867">
  <ele>-0.121</ele>
  <time>2026-09-02T22:07:13Z</time>
  <course>187.86</course>
  <speed>0.022360679774997897</speed>
  <fix>3d</fix>
</trkpt>
<trkpt lat="33.810313" lon="-118.393867">
  <ele>-0.12</ele>
  <time>2026-09-02T22:07:13Z</time>
  <course>0.0</course>
  <speed>0.0</speed>
  <fix>3d</fix>
</trkpt>
<trkpt lat="33.810313" lon="-118.393867">
  <ele>-0.123</ele>
  <time>2026-09-02T22:07:13Z</time>
  <course>187.85</course>
  <speed>0.022360679774997897</speed>
  <fix>3d</fix>
</trkpt>
<trkpt lat="33.810313" lon="-118.393867">
  <ele>-0.12</ele>
  <time>2026-09-02T22:07:13Z</time>
  <course>0.0</course>
  <speed>0.0</speed>
  <fix>3d</fix>
</trkpt>
<trkpt lat="33.810313" lon="-118.393867">
  <ele>-0.124</ele>
  <time>2026-09-02T22:07:13Z</time>
  <course>187.84</course>
  <speed>0.022360679774997897</speed>
  <fix>3d</fix>
</trkpt>
<trkpt lat="33.810313" lon="-118.393867">
  <ele>-0.12</ele>
  <time>2026-09-02T22:07:13Z</time>
  <course>0.0</course>
  <speed>0.0</speed>
  <fix>3d</fix>
</trkpt>
<trkpt lat="33.810313" lon="-118.393867">
  <ele>-0.126</ele>
  <time>2026-09-02T22:07:13Z</time>
  <course>187.83</course>
  <speed>0.022360679774997897</speed>
  <fix>3d</fix>
</trkpt>
<trkpt lat="33.810313" lon="-118.393867">
  <ele>-0.12</ele>
  <time>2026-09-02T22:07:13Z</time>
  <course>0.0</course>
  <speed>0.0</speed>
  <fix>3d</fix>
</trkpt>
<trkpt lat="33.810313" lon="-118.393867">
  <ele>-0.127</ele>
  <time>2026-09-02T22:07:13Z</time>
  <course>187.83</course>
  <speed>0.022360679774997897</speed>
  <fix>3d</fix>
</trkpt>
<trkpt lat="33.810313" lon="-118.393867">
  <ele>-0.12</ele>
  <time>2026-09-02T22:07:13Z</time>
  <course>0.0</course>
  <speed>0.0</speed>
  <fix>3d</fix>
</trkpt>
<trkpt lat="33.810313" lon="-118.393867">
  <ele>-0.127</ele>
  <time>2026-09-02T22:07:13Z</time>
  <course>187.82</course>
  <speed>0.022360679774997897</speed>
  <fix>3d</fix>
</trkpt>
<trkpt lat="33.810313" lon="-118.393867">
  <ele>-0.12</ele>
  <time>2026-09-02T22:07:13Z</time>
  <course>0.0</course>
  <speed>0.0</speed>
  <fix>3d</fix>
</trkpt>
<trkpt lat="33.810313" lon="-118.393867">
  <ele>-0.127</ele>
  <time>2026-09-02T22:07:13Z</time>
  <course>187.81</course>
  <speed>0.022360679774997897</speed>
  <fix>3d</fix>
</trkpt>
<trkpt lat="33.810313" lon="-118.393867">
  <ele>-0.12</ele>
  <time>2026-09-02T22:07:13Z</time>
  <course>0.0</course>
  <speed>0.0</speed>
  <fix>3d</fix>
</trkpt>
<trkpt lat="33.810313" lon="-118.393867">
  <ele>-0.126</ele>
  <time>2026-09-02T22:07:13Z</time>
  <course>187.8</course>
  <speed>0.022360679774997897</speed>
  <fix>3d</fix>
</trkpt>
<trkpt lat="33.810313" lon="-118.393867">
  <ele>-0.12</ele>
  <time>2026-09-02T22:07:13Z</time>
  <course>0.0</course>
  <speed>0.0</speed>
  <fix>3d</fix>
</trkpt>
<trkpt lat="33.810313" lon="-118.393867">
  <ele>-0.124</ele>
  <time>2026-09-02T22:07:13Z</time>
  <course>187.8</course>
  <speed>0.022360679774997897</speed>
  <fix>3d</fix>
</trkpt>
<trkpt lat="33.810313" lon="-118.393867">
  <ele>-0.12</ele>
  <time>2026-09-02T22:07:13Z</time>
  <course>0.0</course>
  <speed>0.0</speed>
  <fix>3d</fix>
</trkpt>
<trkpt lat="33.810313" lon="-118.393867">
  <ele>-0.121</ele>
  <time>2026-09-02T22:07:13Z</time>
  <course>187.79</course>
  <speed>0.022360679774997897</speed>
  <fix>3d</fix>
</trkpt>
<trkpt lat="33.810313" lon="-118.393867">
  <ele>-0.12</ele>
  <time>2026-09-02T22:07:13Z</time>
  <course>0.0</course>
  <speed>0.0</speed>
  <fix>3d</fix>
</trkpt>
<trkpt lat="33.810313" lon="-118.393867">
  <ele>-0.119</ele>
  <time>2026-09-02T22:07:13Z</time>
  <course>187.78</course>
  <speed>0.022360679774997897</speed>
  <fix>3d</fix>
</trkpt>
<trkpt lat="33.810313" lon="-118.393867">
  <ele>-0.12</ele>
  <time>2026-09-02T22:07:13Z</time>
  <course>0.0</course>
  <speed>0.0</speed>
  <fix>3d</fix>
</trkpt>
<trkpt lat="33.810313" lon="-118.393867">
  <ele>-0.118</ele>
  <time>2026-09-02T22:07:13Z</time>
  <course>187.77</course>
  <speed>0.022360679774997897</speed>
  <fix>3d</fix>
</trkpt>
<trkpt lat="33.810313" lon="-118.393867">
  <ele>-0.12</ele>
  <time>2026-09-02T22:07:13Z</time>
  <course>0.0</course>
  <speed>0.0</speed>
  <fix>3d</fix>
</trkpt>
<trkpt lat="33.810313" lon="-118.393867">
  <ele>-0.118</ele>
  <time>2026-09-02T22:07:13Z</time>
  <course>187.77</course>
  <speed>0.022360679774997897</speed>
  <fix>3d</fix>
</trkpt>
<trkpt lat="33.810313" lon="-118.393867">
  <ele>-0.12</ele>
  <time>2026-09-02T22:07:13Z</time>
  <course>0.0</course>
  <speed>0.0</speed>
  <fix>3d</fix>
</trkpt>
<trkpt lat="33.810313" lon="-118.393867">
  <ele>-0.119</ele>
  <time>2026-09-02T22:07:13Z</time>
  <course>187.76</course>
  <speed>0.022360679774997897</speed>
  <fix>3d</fix>
</trkpt>
<trkpt lat="33.810313" lon="-118.393867">
  <ele>-0.12</ele>
  <time>2026-09-02T22:07:13Z</time>
  <course>0.0</course>
  <speed>0.0</speed>
  <fix>3d</fix>
</trkpt>
<trkpt lat="33.810313" lon="-118.393867">
  <ele>-0.12</ele>
  <time>2026-09-02T22:07:13Z</time>
  <course>187.75</course>
  <speed>0.022360679774997897</speed>
  <fix>3d</fix>
</trkpt>
<trkpt lat="33.810313" lon="-118.393867">
  <ele>-0.12</ele>
  <time>2026-09-02T22:07:13Z</time>
  <course>0.0</course>
  <speed>0.0</speed>
  <fix>3d</fix>
</trkpt>
<trkpt lat="33.810313" lon="-118.393867">
  <ele>-0.12</ele>
  <time>2026-09-02T22:07:13Z</time>
  <course>187.74</course>
  <speed>0.0282842712474619</speed>
  <fix>3d</fix>
</trkpt>
<trkpt lat="33.810313" lon="-118.393867">
  <ele>-0.12</ele>
  <time>2026-09-02T22:07:13Z</time>
  <course>0.0</course>
  <speed>0.0</speed>
  <fix>3d</fix>
</trkpt>
<trkpt lat="33.810313" lon="-118.393867">
  <ele>-0.12</ele>
  <time>2026-09-02T22:07:13Z</time>
  <course>187.74</course>
  <speed>0.0282842712474619</speed>
  <fix>3d</fix>
</trkpt>
<trkpt lat="33.810313" lon="-118.393867">
  <ele>-0.12</ele>
  <time>2026-09-02T22:07:13Z</time>
  <course>0.0</course>
  <speed>0.0</speed>
  <fix>3d</fix>
</trkpt>
<trkpt lat="33.810313" lon="-118.393867">
  <ele>-0.119</ele>
  <time>2026-09-02T22:07:13Z</time>
  <course>187.73</course>
  <speed>0.0282842712474619</speed>
  <fix>3d</fix>
</trkpt>
<trkpt lat="33.810313" lon="-118.393867">
  <ele>-0.12</ele>
  <time>2026-09-02T22:07:13Z</time>
  <course>0.0</course>
  <speed>0.0</speed>
  <fix>3d</fix>
</trkpt>
<trkpt lat="33.810313" lon="-118.393867">
  <ele>-0.118</ele>
  <time>2026-09-02T22:07:13Z</time>
  <course>187.72</course>
  <speed>0.0282842712474619</speed>
  <fix>3d</fix>
</trkpt>
<trkpt lat="33.810313" lon="-118.393867">
  <ele>-0.12</ele>
  <time>2026-09-02T22:07:13Z</time>
  <course>0.0</course>
  <speed>0.0</speed>
  <fix>3d</fix>
</trkpt>
<trkpt lat="33.810313" lon="-118.393867">
  <ele>-0.116</ele>
  <time>2026-09-02T22:07:13Z</time>
  <course>187.71</course>
  <speed>0.0282842712474619</speed>
  <fix>3d</fix>
</trkpt>
<trkpt lat="33.810313" lon="-118.393867">
  <ele>-0.12</ele>
  <time>2026-09-02T22:07:13Z</time>
  <course>0.0</course>
  <speed>0.0</speed>
  <fix>3d</fix>
</trkpt>
<trkpt lat="33.810313" lon="-118.393867">
  <ele>-0.114</ele>
  <time>2026-09-02T22:07:13Z</time>
  <course>187.71</course>
  <speed>0.0282842712474619</speed>
  <fix>3d</fix>
</trkpt>
<trkpt lat="33.810313" lon="-118.393867">
  <ele>-0.12</ele>
  <time>2026-09-02T22:07:13Z</time>
  <course>0.0</course>
  <speed>0.0</speed>
  <fix>3d</fix>
</trkpt>
<trkpt lat="33.810313" lon="-118.393867">
  <ele>-0.112</ele>
  <time>2026-09-02T22:07:13Z</time>
  <course>187.7</course>
  <speed>0.0282842712474619</speed>
  <fix>3d</fix>
</trkpt>
<trkpt lat="33.810313" lon="-118.393867">
  <ele>-0.12</ele>
  <time>2026-09-02T22:07:13Z</time>
  <course>0.0</course>
  <speed>0.0</speed>
  <fix>3d</fix>
</trkpt>
<trkpt lat="33.810313" lon="-118.393867">
  <ele>-0.113</ele>
  <time>2026-09-02T22:07:13Z</time>
  <course>187.69</course>
  <speed>0.0282842712474619</speed>
  <fix>3d</fix>
</trkpt>
<trkpt lat="33.810313" lon="-118.393867">
  <ele>-0.12</ele>
  <time>2026-09-02T22:07:13Z</time>
  <course>0.0</course>
  <speed>0.0</speed>
  <fix>3d</fix>
</trkpt>
<trkpt lat="33.810313" lon="-118.393867">
  <ele>-0.115</ele>
  <time>2026-09-02T22:07:13Z</time>
  <course>187.69</course>
  <speed>0.0282842712474619</speed>
  <fix>3d</fix>
</trkpt>
<trkpt lat="33.810313" lon="-118.393867">
  <ele>-0.12</ele>
  <time>2026-09-02T22:07:13Z</time>
  <course>0.0</course>
  <speed>0.0</speed>
  <fix>3d</fix>
</trkpt>
<trkpt lat="33.810313" lon="-118.393867">
  <ele>-0.119</ele>
  <time>2026-09-02T22:07:13Z</time>
  <course>187.68</course>
  <speed>0.0282842712474619</speed>
  <fix>3d</fix>
</trkpt>
<trkpt lat="33.810313" lon="-118.393867">
  <ele>-0.12</ele>
  <time>2026-09-02T22:07:13Z</time>
  <course>0.0</course>
  <speed>0.0</speed>
  <fix>3d</fix>
</trkpt>
<trkpt lat="33.810313" lon="-118.393867">
  <ele>-0.123</ele>
  <time>2026-09-02T22:07:13Z</time>
  <course>187.67</course>
  <speed>0.0282842712474619</speed>
  <fix>3d</fix>
</trkpt>
<trkpt lat="33.810313" lon="-118.393867">
  <ele>-0.12</ele>
  <time>2026-09-02T22:07:13Z</time>
  <course>0.0</course>
  <speed>0.0</speed>
  <fix>3d</fix>
</trkpt>
<trkpt lat="33.810313" lon="-118.393867">
  <ele>-0.128</ele>
  <time>2026-09-02T22:07:13Z</time>
  <course>187.66</course>
  <speed>0.0282842712474619</speed>
  <fix>3d</fix>
</trkpt>
<trkpt lat="33.810313" lon="-118.393867">
  <ele>-0.12</ele>
  <time>2026-09-02T22:07:13Z</time>
  <course>0.0</course>
  <speed>0.0</speed>
  <fix>3d</fix>
</trkpt>
<trkpt lat="33.810313" lon="-118.393867">
  <ele>-0.132</ele>
  <time>2026-09-02T22:07:13Z</time>
  <course>187.66</course>
  <speed>0.0282842712474619</speed>
  <fix>3d</fix>
</trkpt>
<trkpt lat="33.810313" lon="-118.393867">
  <ele>-0.12</ele>
  <time>2026-09-02T22:07:13Z</time>
  <course>0.0</course>
  <speed>0.0</speed>
  <fix>3d</fix>
</trkpt>
<trkpt lat="33.810313" lon="-118.393867">
  <ele>-0.134</ele>
  <time>2026-09-02T22:07:13Z</time>
  <course>187.65</course>
  <speed>0.0282842712474619</speed>
  <fix>3d</fix>
</trkpt>
<trkpt lat="33.810313" lon="-118.393867">
  <ele>-0.12</ele>
  <time>2026-09-02T22:07:13Z</time>
  <course>0.0</course>
  <speed>0.0</speed>
  <fix>3d</fix>
</trkpt>
<trkpt lat="33.810313" lon="-118.393867">
  <ele>-0.135</ele>
  <time>2026-09-02T22:07:13Z</time>
  <course>187.64</course>
  <speed>0.0282842712474619</speed>
  <fix>3d</fix>
</trkpt>
<trkpt lat="33.810313" lon="-118.393867">
  <ele>-0.12</ele>
  <time>2026-09-02T22:07:13Z</time>
  <course>0.0</course>
  <speed>0.0</speed>
  <fix>3d</fix>
</trkpt>
<trkpt lat="33.810313" lon="-118.393867">
  <ele>-0.135</ele>
  <time>2026-09-02T22:07:13Z</time>
  <course>187.64</course>
  <speed>0.0282842712474619</speed>
  <fix>3d</fix>
</trkpt>
<trkpt lat="33.810313" lon="-118.393867">
  <ele>-0.12</ele>
  <time>2026-09-02T22:07:13Z</time>
  <course>0.0</course>
  <speed>0.0</speed>
  <fix>3d</fix>
</trkpt>
<trkpt lat="33.810313" lon="-118.393867">
  <ele>-0.133</ele>
  <time>2026-09-02T22:07:13Z</time>
  <course>187.63</course>
  <speed>0.0282842712474619</speed>
  <fix>3d</fix>
</trkpt>
<trkpt lat="33.810313" lon="-118.393867">
  <ele>-0.12</ele>
  <time>2026-09-02T22:07:13Z</time>
  <course>0.0</course>
  <speed>0.0</speed>
  <fix>3d</fix>
</trkpt>
<trkpt lat="33.810313" lon="-118.393867">
  <ele>-0.132</ele>
  <time>2026-09-02T22:07:13Z</time>
  <course>187.63</course>
  <speed>0.0282842712474619</speed>
  <fix>3d</fix>
</trkpt>
<trkpt lat="33.810313" lon="-118.393867">
  <ele>-0.12</ele>
  <time>2026-09-02T22:07:13Z</time>
  <course>0.0</course>
  <speed>0.0</speed>
  <fix>3d</fix>
</trkpt>
<trkpt lat="33.810313" lon="-118.393867">
  <ele>-0.132</ele>
  <time>2026-09-02T22:07:13Z</time>
  <course>187.62</course>
  <speed>0.03605551275463989</speed>
  <fix>3d</fix>
</trkpt>
<trkpt lat="33.810313" lon="-118.393867">
  <ele>-0.12</ele>
  <time>2026-09-02T22:07:13Z</time>
  <course>0.0</course>
  <speed>0.0</speed>
  <fix>3d</fix>
</trkpt>
<trkpt lat="33.810313" lon="-118.393867">
  <ele>-0.132</ele>
  <time>2026-09-02T22:07:13Z</time>
  <course>187.61</course>
  <speed>0.03605551275463989</speed>
  <fix>3d</fix>
</trkpt>
<trkpt lat="33.810313" lon="-118.393867">
  <ele>-0.12</ele>
  <time>2026-09-02T22:07:13Z</time>
  <course>0.0</course>
  <speed>0.0</speed>
  <fix>3d</fix>
</trkpt>
<trkpt lat="33.810313" lon="-118.393867">
  <ele>-0.133</ele>
  <time>2026-09-02T22:07:13Z</time>
  <course>187.61</course>
  <speed>0.03605551275463989</speed>
  <fix>3d</fix>
</trkpt>
<trkpt lat="33.810313" lon="-118.393867">
  <ele>-0.12</ele>
  <time>2026-09-02T22:07:13Z</time>
  <course>0.0</course>
  <speed>0.0</speed>
  <fix>3d</fix>
</trkpt>
<trkpt lat="33.810313" lon="-118.393867">
  <ele>-0.134</ele>
  <time>2026-09-02T22:07:13Z</time>
  <course>187.6</course>
  <speed>0.03605551275463989</speed>
  <fix>3d</fix>
</trkpt>
<trkpt lat="33.810313" lon="-118.393867">
  <ele>-0.12</ele>
  <time>2026-09-02T22:07:13Z</time>
  <course>0.0</course>
  <speed>0.0</speed>
  <fix>3d</fix>
</trkpt>
<trkpt lat="33.810313" lon="-118.393867">
  <ele>-0.133</ele>
  <time>2026-09-02T22:07:13Z</time>
  <course>187.59</course>
  <speed>0.03605551275463989</speed>
  <fix>3d</fix>
</trkpt>
<trkpt lat="33.810313" lon="-118.393867">
  <ele>-0.12</ele>
  <time>2026-09-02T22:07:13Z</time>
  <course>0.0</course>
  <speed>0.0</speed>
  <fix>3d</fix>
</trkpt>
<trkpt lat="33.810313" lon="-118.393867">
  <ele>-0.132</ele>
  <time>2026-09-02T22:07:13Z</time>
  <course>187.59</course>
  <speed>0.03605551275463989</speed>
  <fix>3d</fix>
</trkpt>
<trkpt lat="33.810313" lon="-118.393867">
  <ele>-0.12</ele>
  <time>2026-09-02T22:07:13Z</time>
  <course>0.0</course>
  <speed>0.0</speed>
  <fix>3d</fix>
</trkpt>
<trkpt lat="33.810313" lon="-118.393867">
  <ele>-0.13</ele>
  <time>2026-09-02T22:07:13Z</time>
  <course>187.58</course>
  <speed>0.03605551275463989</speed>
  <fix>3d</fix>
</trkpt>
<trkpt lat="33.810313" lon="-118.393867">
  <ele>-0.12</ele>
  <time>2026-09-02T22:07:13Z</time>
  <course>0.0</course>
  <speed>0.0</speed>
  <fix>3d</fix>
</trkpt>
<trkpt lat="33.810313" lon="-118.393867">
  <ele>-0.127</ele>
  <time>2026-09-02T22:07:13Z</time>
  <course>187.57</course>
  <speed>0.03605551275463989</speed>
  <fix>3d</fix>
</trkpt>
<trkpt lat="33.810313" lon="-118.393867">
  <ele>-0.12</ele>
  <time>2026-09-02T22:07:13Z</time>
  <course>0.0</course>
  <speed>0.0</speed>
  <fix>3d</fix>
</trkpt>
<trkpt lat="33.810313" lon="-118.393867">
  <ele>-0.125</ele>
  <time>2026-09-02T22:07:13Z</time>
  <course>187.57</course>
  <speed>0.03605551275463989</speed>
  <fix>3d</fix>
</trkpt>
<trkpt lat="33.810313" lon="-118.393867">
  <ele>-0.12</ele>
  <time>2026-09-02T22:07:13Z</time>
  <course>0.0</course>
  <speed>0.0</speed>
  <fix>3d</fix>
</trkpt>
<trkpt lat="33.810313" lon="-118.393867">
  <ele>-0.122</ele>
  <time>2026-09-02T22:07:13Z</time>
  <course>187.56</course>
  <speed>0.03605551275463989</speed>
  <fix>3d</fix>
</trkpt>
<trkpt lat="33.810313" lon="-118.393867">
  <ele>-0.12</ele>
  <time>2026-09-02T22:07:13Z</time>
  <course>0.0</course>
  <speed>0.0</speed>
  <fix>3d</fix>
</trkpt>
<trkpt lat="33.810313" lon="-118.393867">
  <ele>-0.119</ele>
  <time>2026-09-02T22:07:13Z</time>
  <course>187.55</course>
  <speed>0.03605551275463989</speed>
  <fix>3d</fix>
</trkpt>
<trkpt lat="33.810313" lon="-118.393867">
  <ele>-0.12</ele>
  <time>2026-09-02T22:07:13Z</time>
  <course>0.0</course>
  <speed>0.0</speed>
  <fix>3d</fix>
</trkpt>
<trkpt lat="33.810313" lon="-118.393867">
  <ele>-0.117</ele>
  <time>2026-09-02T22:07:13Z</time>
  <course>187.55</course>
  <speed>0.03605551275463989</speed>
  <fix>3d</fix>
</trkpt>
<trkpt lat="33.810313" lon="-118.393867">
  <ele>-0.12</ele>
  <time>2026-09-02T22:07:13Z</time>
  <course>0.0</course>
  <speed>0.0</speed>
  <fix>3d</fix>
</trkpt>
<trkpt lat="33.810313" lon="-118.393867">
  <ele>-0.117</ele>
  <time>2026-09-02T22:07:13Z</time>
  <course>187.54</course>
  <speed>0.03605551275463989</speed>
  <fix>3d</fix>
</trkpt>
<trkpt lat="33.810313" lon="-118.393867">
  <ele>-0.12</ele>
  <time>2026-09-02T22:07:13Z</time>
  <course>0.0</course>
  <speed>0.0</speed>
  <fix>3d</fix>
</trkpt>
<trkpt lat="33.810313" lon="-118.393867">
  <ele>-0.118</ele>
  <time>2026-09-02T22:07:13Z</time>
  <course>187.53</course>
  <speed>0.03605551275463989</speed>
  <fix>3d</fix>
</trkpt>
<trkpt lat="33.810313" lon="-118.393867">
  <ele>-0.12</ele>
  <time>2026-09-02T22:07:13Z</time>
  <course>0.0</course>
  <speed>0.0</speed>
  <fix>3d</fix>
</trkpt>
<trkpt lat="33.810313" lon="-118.393867">
  <ele>-0.119</ele>
  <time>2026-09-02T22:07:13Z</time>
  <course>187.53</course>
  <speed>0.03605551275463989</speed>
  <fix>3d</fix>
</trkpt>
<trkpt lat="33.810313" lon="-118.393867">
  <ele>-0.12</ele>
  <time>2026-09-02T22:07:13Z</time>
  <course>0.0</course>
  <speed>0.0</speed>
  <fix>3d</fix>
</trkpt>
<trkpt lat="33.810313" lon="-118.393867">
  <ele>-0.12</ele>
  <time>2026-09-02T22:07:13Z</time>
  <course>187.52</course>
  <speed>0.03605551275463989</speed>
  <fix>3d</fix>
</trkpt>
<trkpt lat="33.810313" lon="-118.393867">
  <ele>-0.12</ele>
  <time>2026-09-02T22:07:13Z</time>
  <course>0.0</course>
  <speed>0.0</speed>
  <fix>3d</fix>
</trkpt>
<trkpt lat="33.810313" lon="-118.393867">
  <ele>-0.121</ele>
  <time>2026-09-02T22:07:13Z</time>
  <course>187.51</course>
  <speed>0.03605551275463989</speed>
  <fix>3d</fix>
</trkpt>
<trkpt lat="33.810313" lon="-118.393867">
  <ele>-0.12</ele>
  <time>2026-09-02T22:07:13Z</time>
  <course>0.0</course>
  <speed>0.0</speed>
  <fix>3d</fix>
</trkpt>
<trkpt lat="33.810313" lon="-118.393867">
  <ele>-0.121</ele>
  <time>2026-09-02T22:07:13Z</time>
  <course>187.51</course>
  <speed>0.03605551275463989</speed>
  <fix>3d</fix>
</trkpt>
<trkpt lat="33.810313" lon="-118.393867">
  <ele>-0.12</ele>
  <time>2026-09-02T22:07:13Z</time>
  <course>0.0</course>
  <speed>0.0</speed>
  <fix>3d</fix>
</trkpt>
<trkpt lat="33.810313" lon="-118.393867">
  <ele>-0.121</ele>
  <time>2026-09-02T22:07:13Z</time>
  <course>187.5</course>
  <speed>0.03605551275463989</speed>
  <fix>3d</fix>
</trkpt>
<trkpt lat="33.810313" lon="-118.393867">
  <ele>-0.12</ele>
  <time>2026-09-02T22:07:13Z</time>
  <course>0.0</course>
  <speed>0.0</speed>
  <fix>3d</fix>
</trkpt>
<trkpt lat="33.810313" lon="-118.393867">
  <ele>-0.121</ele>
  <time>2026-09-02T22:07:13Z</time>
  <course>187.49</course>
  <speed>0.03605551275463989</speed>
  <fix>3d</fix>
</trkpt>
<trkpt lat="33.810313" lon="-118.393867">
  <ele>-0.12</ele>
  <time>2026-09-02T22:07:13Z</time>
  <course>0.0</course>
  <speed>0.0</speed>
  <fix>3d</fix>
</trkpt>
<trkpt lat="33.810313" lon="-118.393867">
  <ele>-0.121</ele>
  <time>2026-09-02T22:07:13Z</time>
  <course>187.49</course>
  <speed>0.03605551275463989</speed>
  <fix>3d</fix>
</trkpt>
<trkpt lat="33.810313" lon="-118.393867">
  <ele>-0.12</ele>
  <time>2026-09-02T22:07:13Z</time>
  <course>0.0</course>
  <speed>0.0</speed>
  <fix>3d</fix>
</trkpt>
<trkpt lat="33.810313" lon="-118.393867">
  <ele>-0.121</ele>
  <time>2026-09-02T22:07:13Z</time>
  <course>187.48</course>
  <speed>0.03605551275463989</speed>
  <fix>3d</fix>
</trkpt>
<trkpt lat="33.810313" lon="-118.393867">
  <ele>-0.12</ele>
  <time>2026-09-02T22:07:13Z</time>
  <course>0.0</course>
  <speed>0.0</speed>
  <fix>3d</fix>
</trkpt>
<trkpt lat="33.810313" lon="-118.393867">
  <ele>-0.122</ele>
  <time>2026-09-02T22:07:13Z</time>
  <course>187.47</course>
  <speed>0.03605551275463989</speed>
  <fix>3d</fix>
</trkpt>
<trkpt lat="33.810313" lon="-118.393867">
  <ele>-0.12</ele>
  <time>2026-09-02T22:07:13Z</time>
  <course>0.0</course>
  <speed>0.0</speed>
  <fix>3d</fix>
</trkpt>
<trkpt lat="33.810313" lon="-118.393867">
  <ele>-0.124</ele>
  <time>2026-09-02T22:07:13Z</time>
  <course>187.47</course>
  <speed>0.03605551275463989</speed>
  <fix>3d</fix>
</trkpt>
<trkpt lat="33.810313" lon="-118.393867">
  <ele>-0.12</ele>
  <time>2026-09-02T22:07:13Z</time>
  <course>0.0</course>
  <speed>0.0</speed>
  <fix>3d</fix>
</trkpt>
<trkpt lat="33.810313" lon="-118.393867">
  <ele>-0.127</ele>
  <time>2026-09-02T22:07:13Z</time>
  <course>187.46</course>
  <speed>0.03605551275463989</speed>
  <fix>3d</fix>
</trkpt>
<trkpt lat="33.810313" lon="-118.393867">
  <ele>-0.12</ele>
  <time>2026-09-02T22:07:13Z</time>
  <course>0.0</course>
  <speed>0.0</speed>
  <fix>3d</fix>
</trkpt>
<trkpt lat="33.810313" lon="-118.393867">
  <ele>-0.129</ele>
  <time>2026-09-02T22:07:13Z</time>
  <course>187.46</course>
  <speed>0.03605551275463989</speed>
  <fix>3d</fix>
</trkpt>
<trkpt lat="33.810313" lon="-118.393867">
  <ele>-0.12</ele>
  <time>2026-09-02T22:07:13Z</time>
  <course>0.0</course>
  <speed>0.0</speed>
  <fix>3d</fix>
</trkpt>
<trkpt lat="33.810313" lon="-118.393867">
  <ele>-0.131</ele>
  <time>2026-09-02T22:07:13Z</time>
  <course>187.45</course>
  <speed>0.03605551275463989</speed>
  <fix>3d</fix>
</trkpt>
<trkpt lat="33.810313" lon="-118.393867">
  <ele>-0.12</ele>
  <time>2026-09-02T22:07:13Z</time>
  <course>0.0</course>
  <speed>0.0</speed>
  <fix>3d</fix>
</trkpt>
<trkpt lat="33.810313" lon="-118.393867">
  <ele>-0.132</ele>
  <time>2026-09-02T22:07:13Z</time>
  <course>187.44</course>
  <speed>0.03605551275463989</speed>
  <fix>3d</fix>
</trkpt>
<trkpt lat="33.810313" lon="-118.393867">
  <ele>-0.12</ele>
  <time>2026-09-02T22:07:13Z</time>
  <course>0.0</course>
  <speed>0.0</speed>
  <fix>3d</fix>
</trkpt>
<trkpt lat="33.810313" lon="-118.393867">
  <ele>-0.132</ele>
  <time>2026-09-02T22:07:13Z</time>
  <course>187.44</course>
  <speed>0.03605551275463989</speed>
  <fix>3d</fix>
</trkpt>
<trkpt lat="33.810313" lon="-118.393867">
  <ele>-0.12</ele>
  <time>2026-09-02T22:07:13Z</time>
  <course>0.0</course>
  <speed>0.0</speed>
  <fix>3d</fix>
</trkpt>
<trkpt lat="33.810313" lon="-118.393867">
  <ele>-0.132</ele>
  <time>2026-09-02T22:07:13Z</time>
  <course>187.43</course>
  <speed>0.03605551275463989</speed>
  <fix>3d</fix>
</trkpt>
<trkpt lat="33.810313" lon="-118.393867">
  <ele>-0.12</ele>
  <time>2026-09-02T22:07:13Z</time>
  <course>0.0</course>
  <speed>0.0</speed>
  <fix>3d</fix>
</trkpt>
<trkpt lat="33.810313" lon="-118.393867">
  <ele>-0.132</ele>
  <time>2026-09-02T22:07:13Z</time>
  <course>187.42</course>
  <speed>0.03605551275463989</speed>
  <fix>3d</fix>
</trkpt>
<trkpt lat="33.810313" lon="-118.393867">
  <ele>-0.12</ele>
  <time>2026-09-02T22:07:13Z</time>
  <course>0.0</course>
  <speed>0.0</speed>
  <fix>3d</fix>
</trkpt>
<trkpt lat="33.810313" lon="-118.393867">
  <ele>-0.131</ele>
  <time>2026-09-02T22:07:13Z</time>
  <course>187.42</course>
  <speed>0.03605551275463989</speed>
  <fix>3d</fix>
</trkpt>
<trkpt lat="33.810313" lon="-118.393867">
  <ele>-0.12</ele>
  <time>2026-09-02T22:07:13Z</time>
  <course>0.0</course>
  <speed>0.0</speed>
  <fix>3d</fix>
</trkpt>
<trkpt lat="33.810313" lon="-118.393867">
  <ele>-0.131</ele>
  <time>2026-09-02T22:07:13Z</time>
  <course>187.41</course>
  <speed>0.03605551275463989</speed>
  <fix>3d</fix>
</trkpt>
<trkpt lat="33.810313" lon="-118.393867">
  <ele>-0.12</ele>
  <time>2026-09-02T22:07:13Z</time>
  <course>0.0</course>
  <speed>0.0</speed>
  <fix>3d</fix>
</trkpt>
<trkpt lat="33.810313" lon="-118.393867">
  <ele>-0.132</ele>
  <time>2026-09-02T22:07:13Z</time>
  <course>187.41</course>
  <speed>0.03605551275463989</speed>
  <fix>3d</fix>
</trkpt>
<trkpt lat="33.810313" lon="-118.393867">
  <ele>-0.12</ele>
  <time>2026-09-02T22:07:13Z</time>
  <course>0.0</course>
  <speed>0.0</speed>
  <fix>3d</fix>
</trkpt>
<trkpt lat="33.810313" lon="-118.393867">
  <ele>-0.134</ele>
  <time>2026-09-02T22:07:13Z</time>
  <course>187.4</course>
  <speed>0.03605551275463989</speed>
  <fix>3d</fix>
</trkpt>
<trkpt lat="33.810313" lon="-118.393867">
  <ele>-0.12</ele>
  <time>2026-09-02T22:07:13Z</time>
  <course>0.0</course>
  <speed>0.0</speed>
  <fix>3d</fix>
</trkpt>
<trkpt lat="33.810313" lon="-118.393867">
  <ele>-0.137</ele>
  <time>2026-09-02T22:07:13Z</time>
  <course>187.39</course>
  <speed>0.03605551275463989</speed>
  <fix>3d</fix>
</trkpt>
<trkpt lat="33.810313" lon="-118.393867">
  <ele>-0.12</ele>
  <time>2026-09-02T22:07:13Z</time>
  <course>0.0</course>
  <speed>0.0</speed>
  <fix>3d</fix>
</trkpt>
<trkpt lat="33.810313" lon="-118.393867">
  <ele>-0.139</ele>
  <time>2026-09-02T22:07:13Z</time>
  <course>187.39</course>
  <speed>0.03605551275463989</speed>
  <fix>3d</fix>
</trkpt>
<trkpt lat="33.810313" lon="-118.393867">
  <ele>-0.12</ele>
  <time>2026-09-02T22:07:13Z</time>
  <course>0.0</course>
  <speed>0.0</speed>
  <fix>3d</fix>
</trkpt>
<trkpt lat="33.810313" lon="-118.393867">
  <ele>-0.141</ele>
  <time>2026-09-02T22:07:13Z</time>
  <course>187.38</course>
  <speed>0.03605551275463989</speed>
  <fix>3d</fix>
</trkpt>
<trkpt lat="33.810313" lon="-118.393867">
  <ele>-0.12</ele>
  <time>2026-09-02T22:07:13Z</time>
  <course>0.0</course>
  <speed>0.0</speed>
  <fix>3d</fix>
</trkpt>
<trkpt lat="33.810313" lon="-118.393867">
  <ele>-0.141</ele>
  <time>2026-09-02T22:07:13Z</time>
  <course>187.38</course>
  <speed>0.03605551275463989</speed>
  <fix>3d</fix>
</trkpt>
<trkpt lat="33.810313" lon="-118.393867">
  <ele>-0.12</ele>
  <time>2026-09-02T22:07:13Z</time>
  <course>0.0</course>
  <speed>0.0</speed>
  <fix>3d</fix>
</trkpt>
<trkpt lat="33.810313" lon="-118.393867">
  <ele>-0.139</ele>
  <time>2026-09-02T22:07:13Z</time>
  <course>187.37</course>
  <speed>0.03605551275463989</speed>
  <fix>3d</fix>
</trkpt>
<trkpt lat="33.810313" lon="-118.393867">
  <ele>-0.12</ele>
  <time>2026-09-02T22:07:13Z</time>
  <course>0.0</course>
  <speed>0.0</speed>
  <fix>3d</fix>
</trkpt>
<trkpt lat="33.810313" lon="-118.393867">
  <ele>-0.136</ele>
  <time>2026-09-02T22:07:13Z</time>
  <course>187.36</course>
  <speed>0.03605551275463989</speed>
  <fix>3d</fix>
</trkpt>
<trkpt lat="33.810313" lon="-118.393867">
  <ele>-0.12</ele>
  <time>2026-09-02T22:07:13Z</time>
  <course>0.0</course>
  <speed>0.0</speed>
  <fix>3d</fix>
</trkpt>
<trkpt lat="33.810313" lon="-118.393867">
  <ele>-0.133</ele>
  <time>2026-09-02T22:07:13Z</time>
  <course>187.36</course>
  <speed>0.03605551275463989</speed>
  <fix>3d</fix>
</trkpt>
<trkpt lat="33.810313" lon="-118.393867">
  <ele>-0.12</ele>
  <time>2026-09-02T22:07:13Z</time>
  <course>0.0</course>
  <speed>0.0</speed>
  <fix>3d</fix>
</trkpt>
<trkpt lat="33.810313" lon="-118.393867">
  <ele>-0.129</ele>
  <time>2026-09-02T22:07:13Z</time>
  <course>187.35</course>
  <speed>0.03605551275463989</speed>
  <fix>3d</fix>
</trkpt>
<trkpt lat="33.810313" lon="-118.393867">
  <ele>-0.12</ele>
  <time>2026-09-02T22:07:13Z</time>
  <course>0.0</course>
  <speed>0.0</speed>
  <fix>3d</fix>
</trkpt>
<trkpt lat="33.810313" lon="-118.393867">
  <ele>-0.127</ele>
  <time>2026-09-02T22:07:13Z</time>
  <course>187.35</course>
  <speed>0.03605551275463989</speed>
  <fix>3d</fix>
</trkpt>
<trkpt lat="33.810313" lon="-118.393867">
  <ele>-0.12</ele>
  <time>2026-09-02T22:07:13Z</time>
  <course>0.0</course>
  <speed>0.0</speed>
  <fix>3d</fix>
</trkpt>
<trkpt lat="33.810313" lon="-118.393867">
  <ele>-0.127</ele>
  <time>2026-09-02T22:07:13Z</time>
  <course>187.34</course>
  <speed>0.03605551275463989</speed>
  <fix>3d</fix>
</trkpt>
<trkpt lat="33.810313" lon="-118.393867">
  <ele>-0.12</ele>
  <time>2026-09-02T22:07:13Z</time>
  <course>0.0</course>
  <speed>0.0</speed>
  <fix>3d</fix>
</trkpt>
<trkpt lat="33.810313" lon="-118.393867">
  <ele>-0.126</ele>
  <time>2026-09-02T22:07:13Z</time>
  <course>187.34</course>
  <speed>0.03605551275463989</speed>
  <fix>3d</fix>
</trkpt>
<trkpt lat="33.810313" lon="-118.393867">
  <ele>-0.12</ele>
  <time>2026-09-02T22:07:13Z</time>
  <course>0.0</course>
  <speed>0.0</speed>
  <fix>3d</fix>
</trkpt>
<trkpt lat="33.810313" lon="-118.393867">
  <ele>-0.126</ele>
  <time>2026-09-02T22:07:13Z</time>
  <course>187.33</course>
  <speed>0.03605551275463989</speed>
  <fix>3d</fix>
</trkpt>
<trkpt lat="33.810313" lon="-118.393867">
  <ele>-0.12</ele>
  <time>2026-09-02T22:07:13Z</time>
  <course>0.0</course>
  <speed>0.0</speed>
  <fix>3d</fix>
</trkpt>
<trkpt lat="33.810313" lon="-118.393867">
  <ele>-0.126</ele>
  <time>2026-09-02T22:07:13Z</time>
  <course>187.32</course>
  <speed>0.03605551275463989</speed>
  <fix>3d</fix>
</trkpt>
<trkpt lat="33.810313" lon="-118.393867">
  <ele>-0.12</ele>
  <time>2026-09-02T22:07:13Z</time>
  <course>0.0</course>
  <speed>0.0</speed>
  <fix>3d</fix>
</trkpt>
<trkpt lat="33.810313" lon="-118.393867">
  <ele>-0.126</ele>
  <time>2026-09-02T22:07:13Z</time>
  <course>187.32</course>
  <speed>0.03605551275463989</speed>
  <fix>3d</fix>
</trkpt>
<trkpt lat="33.810313" lon="-118.393867">
  <ele>-0.12</ele>
  <time>2026-09-02T22:07:13Z</time>
  <course>0.0</course>
  <speed>0.0</speed>
  <fix>3d</fix>
</trkpt>
<trkpt lat="33.810313" lon="-118.393867">
  <ele>-0.125</ele>
  <time>2026-09-02T22:07:13Z</time>
  <course>187.31</course>
  <speed>0.03605551275463989</speed>
  <fix>3d</fix>
</trkpt>
<trkpt lat="33.810313" lon="-118.393867">
  <ele>-0.12</ele>
  <time>2026-09-02T22:07:13Z</time>
  <course>0.0</course>
  <speed>0.0</speed>
  <fix>3d</fix>
</trkpt>
<trkpt lat="33.810313" lon="-118.393867">
  <ele>-0.124</ele>
  <time>2026-09-02T22:07:13Z</time>
  <course>187.31</course>
  <speed>0.03605551275463989</speed>
  <fix>3d</fix>
</trkpt>
<trkpt lat="33.810313" lon="-118.393867">
  <ele>-0.12</ele>
  <time>2026-09-02T22:07:13Z</time>
  <course>0.0</course>
  <speed>0.0</speed>
  <fix>3d</fix>
</trkpt>
<trkpt lat="33.810313" lon="-118.393867">
  <ele>-0.122</ele>
  <time>2026-09-02T22:07:13Z</time>
  <course>187.3</course>
  <speed>0.03605551275463989</speed>
  <fix>3d</fix>
</trkpt>
<trkpt lat="33.810313" lon="-118.393867">
  <ele>-0.12</ele>
  <time>2026-09-02T22:07:13Z</time>
  <course>0.0</course>
  <speed>0.0</speed>
  <fix>3d</fix>
</trkpt>
<trkpt lat="33.810313" lon="-118.393867">
  <ele>-0.121</ele>
  <time>2026-09-02T22:07:13Z</time>
  <course>187.3</course>
  <speed>0.03605551275463989</speed>
  <fix>3d</fix>
</trkpt>
<trkpt lat="33.810313" lon="-118.393867">
  <ele>-0.12</ele>
  <time>2026-09-02T22:07:13Z</time>
  <course>0.0</course>
  <speed>0.0</speed>
  <fix>3d</fix>
</trkpt>
<trkpt lat="33.810313" lon="-118.393867">
  <ele>-0.122</ele>
  <time>2026-09-02T22:07:13Z</time>
  <course>187.29</course>
  <speed>0.03605551275463989</speed>
  <fix>3d</fix>
</trkpt>
<trkpt lat="33.810313" lon="-118.393867">
  <ele>-0.12</ele>
  <time>2026-09-02T22:07:13Z</time>
  <course>0.0</course>
  <speed>0.0</speed>
  <fix>3d</fix>
</trkpt>
<trkpt lat="33.810313" lon="-118.393867">
  <ele>-0.124</ele>
  <time>2026-09-02T22:07:13Z</time>
  <course>187.28</course>
  <speed>0.03605551275463989</speed>
  <fix>3d</fix>
</trkpt>
<trkpt lat="33.810313" lon="-118.393867">
  <ele>-0.12</ele>
  <time>2026-09-02T22:07:13Z</time>
  <course>0.0</course>
  <speed>0.0</speed>
  <fix>3d</fix>
</trkpt>
<trkpt lat="33.810313" lon="-118.393867">
  <ele>-0.127</ele>
  <time>2026-09-02T22:07:13Z</time>
  <course>187.28</course>
  <speed>0.03605551275463989</speed>
  <fix>3d</fix>
</trkpt>
<trkpt lat="33.810313" lon="-118.393867">
  <ele>-0.12</ele>
  <time>2026-09-02T22:07:13Z</time>
  <course>0.0</course>
  <speed>0.0</speed>
  <fix>3d</fix>
</trkpt>
<trkpt lat="33.810313" lon="-118.393867">
  <ele>-0.13</ele>
  <time>2026-09-02T22:07:13Z</time>
  <course>187.27</course>
  <speed>0.03605551275463989</speed>
  <fix>3d</fix>
</trkpt>
<trkpt lat="33.810313" lon="-118.393867">
  <ele>-0.12</ele>
  <time>2026-09-02T22:07:13Z</time>
  <course>0.0</course>
  <speed>0.0</speed>
  <fix>3d</fix>
</trkpt>
<trkpt lat="33.810313" lon="-118.393867">
  <ele>-0.132</ele>
  <time>2026-09-02T22:07:13Z</time>
  <course>187.27</course>
  <speed>0.03605551275463989</speed>
  <fix>3d</fix>
</trkpt>
<trkpt lat="33.810313" lon="-118.393867">
  <ele>-0.12</ele>
  <time>2026-09-02T22:07:13Z</time>
  <course>0.0</course>
  <speed>0.0</speed>
  <fix>3d</fix>
</trkpt>
<trkpt lat="33.810313" lon="-118.393867">
  <ele>-0.134</ele>
  <time>2026-09-02T22:07:13Z</time>
  <course>187.26</course>
  <speed>0.03605551275463989</speed>
  <fix>3d</fix>
</trkpt>
<trkpt lat="33.810313" lon="-118.393867">
  <ele>-0.12</ele>
  <time>2026-09-02T22:07:13Z</time>
  <course>0.0</course>
  <speed>0.0</speed>
  <fix>3d</fix>
</trkpt>
<trkpt lat="33.810313" lon="-118.393867">
  <ele>-0.136</ele>
  <time>2026-09-02T22:07:13Z</time>
  <course>187.26</course>
  <speed>0.03605551275463989</speed>
  <fix>3d</fix>
</trkpt>
<trkpt lat="33.810313" lon="-118.393867">
  <ele>-0.12</ele>
  <time>2026-09-02T22:07:13Z</time>
  <course>0.0</course>
  <speed>0.0</speed>
  <fix>3d</fix>
</trkpt>
<trkpt lat="33.810313" lon="-118.393867">
  <ele>-0.136</ele>
  <time>2026-09-02T22:07:13Z</time>
  <course>187.25</course>
  <speed>0.03605551275463989</speed>
  <fix>3d</fix>
</trkpt>
<trkpt lat="33.810313" lon="-118.393867">
  <ele>-0.12</ele>
  <time>2026-09-02T22:07:13Z</time>
  <course>0.0</course>
  <speed>0.0</speed>
  <fix>3d</fix>
</trkpt>
<trkpt lat="33.810313" lon="-118.393867">
  <ele>-0.135</ele>
  <time>2026-09-02T22:07:13Z</time>
  <course>187.25</course>
  <speed>0.03605551275463989</speed>
  <fix>3d</fix>
</trkpt>
<trkpt lat="33.810313" lon="-118.393867">
  <ele>-0.12</ele>
  <time>2026-09-02T22:07:13Z</time>
  <course>0.0</course>
  <speed>0.0</speed>
  <fix>3d</fix>
</trkpt>
<trkpt lat="33.810313" lon="-118.393867">
  <ele>-0.134</ele>
  <time>2026-09-02T22:07:13Z</time>
  <course>187.24</course>
  <speed>0.03605551275463989</speed>
  <fix>3d</fix>
</trkpt>
<trkpt lat="33.810313" lon="-118.393867">
  <ele>-0.12</ele>
  <time>2026-09-02T22:07:13Z</time>
  <course>0.0</course>
  <speed>0.0</speed>
  <fix>3d</fix>
</trkpt>
<trkpt lat="33.810313" lon="-118.393867">
  <ele>-0.132</ele>
  <time>2026-09-02T22:07:13Z</time>
  <course>187.24</course>
  <speed>0.03605551275463989</speed>
  <fix>3d</fix>
</trkpt>
<trkpt lat="33.810313" lon="-118.393867">
  <ele>-0.12</ele>
  <time>2026-09-02T22:07:13Z</time>
  <course>0.0</course>
  <speed>0.0</speed>
  <fix>3d</fix>
</trkpt>
<trkpt lat="33.810313" lon="-118.393867">
  <ele>-0.131</ele>
  <time>2026-09-02T22:07:13Z</time>
  <course>187.23</course>
  <speed>0.03605551275463989</speed>
  <fix>3d</fix>
</trkpt>
<trkpt lat="33.810313" lon="-118.393867">
  <ele>-0.12</ele>
  <time>2026-09-02T22:07:13Z</time>
  <course>0.0</course>
  <speed>0.0</speed>
  <fix>3d</fix>
</trkpt>
<trkpt lat="33.810313" lon="-118.393867">
  <ele>-0.131</ele>
  <time>2026-09-02T22:07:13Z</time>
  <course>187.23</course>
  <speed>0.03605551275463989</speed>
  <fix>3d</fix>
</trkpt>
<trkpt lat="33.810313" lon="-118.393867">
  <ele>-0.12</ele>
  <time>2026-09-02T22:07:13Z</time>
  <course>0.0</course>
  <speed>0.0</speed>
  <fix>3d</fix>
</trkpt>
<trkpt lat="33.810313" lon="-118.393867">
  <ele>-0.132</ele>
  <time>2026-09-02T22:07:13Z</time>
  <course>187.22</course>
  <speed>0.03605551275463989</speed>
  <fix>3d</fix>
</trkpt>
<trkpt lat="33.810313" lon="-118.393867">
  <ele>-0.12</ele>
  <time>2026-09-02T22:07:13Z</time>
  <course>0.0</course>
  <speed>0.0</speed>
  <fix>3d</fix>
</trkpt>
<trkpt lat="33.810313" lon="-118.393867">
  <ele>-0.132</ele>
  <time>2026-09-02T22:07:13Z</time>
  <course>187.21</course>
  <speed>0.03605551275463989</speed>
  <fix>3d</fix>
</trkpt>
<trkpt lat="33.810313" lon="-118.393867">
  <ele>-0.12</ele>
  <time>2026-09-02T22:07:13Z</time>
  <course>0.0</course>
  <speed>0.0</speed>
  <fix>3d</fix>
</trkpt>
<trkpt lat="33.810313" lon="-118.393867">
  <ele>-0.133</ele>
  <time>2026-09-02T22:07:13Z</time>
  <course>187.21</course>
  <speed>0.03605551275463989</speed>
  <fix>3d</fix>
</trkpt>
<trkpt lat="33.810313" lon="-118.393867">
  <ele>-0.12</ele>
  <time>2026-09-02T22:07:13Z</time>
  <course>0.0</course>
  <speed>0.0</speed>
  <fix>3d</fix>
</trkpt>
<trkpt lat="33.810313" lon="-118.393867">
  <ele>-0.132</ele>
  <time>2026-09-02T22:07:13Z</time>
  <course>187.2</course>
  <speed>0.03605551275463989</speed>
  <fix>3d</fix>
</trkpt>
<trkpt lat="33.810313" lon="-118.393867">
  <ele>-0.12</ele>
  <time>2026-09-02T22:07:13Z</time>
  <course>0.0</course>
  <speed>0.0</speed>
  <fix>3d</fix>
</trkpt>
<trkpt lat="33.810313" lon="-118.393867">
  <ele>-0.131</ele>
  <time>2026-09-02T22:07:13Z</time>
  <course>187.2</course>
  <speed>0.03605551275463989</speed>
  <fix>3d</fix>
</trkpt>
<trkpt lat="33.810313" lon="-118.393867">
  <ele>-0.12</ele>
  <time>2026-09-02T22:07:13Z</time>
  <course>0.0</course>
  <speed>0.0</speed>
  <fix>3d</fix>
</trkpt>
<trkpt lat="33.810313" lon="-118.393867">
  <ele>-0.129</ele>
  <time>2026-09-02T22:07:13Z</time>
  <course>187.19</course>
  <speed>0.03605551275463989</speed>
  <fix>3d</fix>
</trkpt>
<trkpt lat="33.810313" lon="-118.393867">
  <ele>-0.12</ele>
  <time>2026-09-02T22:07:13Z</time>
  <course>0.0</course>
  <speed>0.0</speed>
  <fix>3d</fix>
</trkpt>
<trkpt lat="33.810313" lon="-118.393867">
  <ele>-0.126</ele>
  <time>2026-09-02T22:07:13Z</time>
  <course>187.19</course>
  <speed>0.03605551275463989</speed>
  <fix>3d</fix>
</trkpt>
<trkpt lat="33.810313" lon="-118.393867">
  <ele>-0.12</ele>
  <time>2026-09-02T22:07:13Z</time>
  <course>0.0</course>
  <speed>0.0</speed>
  <fix>3d</fix>
</trkpt>
<trkpt lat="33.810313" lon="-118.393867">
  <ele>-0.124</ele>
  <time>2026-09-02T22:07:13Z</time>
  <course>187.18</course>
  <speed>0.03605551275463989</speed>
  <fix>3d</fix>
</trkpt>
<trkpt lat="33.810313" lon="-118.393867">
  <ele>-0.12</ele>
  <time>2026-09-02T22:07:13Z</time>
  <course>0.0</course>
  <speed>0.0</speed>
  <fix>3d</fix>
</trkpt>
<trkpt lat="33.810313" lon="-118.393867">
  <ele>-0.123</ele>
  <time>2026-09-02T22:07:13Z</time>
  <course>187.18</course>
  <speed>0.03605551275463989</speed>
  <fix>3d</fix>
</trkpt>
<trkpt lat="33.810313" lon="-118.393867">
  <ele>-0.12</ele>
  <time>2026-09-02T22:07:13Z</time>
  <course>0.0</course>
  <speed>0.0</speed>
  <fix>3d</fix>
</trkpt>
<trkpt lat="33.810313" lon="-118.393867">
  <ele>-0.123</ele>
  <time>2026-09-02T22:07:13Z</time>
  <course>187.17</course>
  <speed>0.03605551275463989</speed>
  <fix>3d</fix>
</trkpt>
<trkpt lat="33.810313" lon="-118.393867">
  <ele>-0.12</ele>
  <time>2026-09-02T22:07:13Z</time>
  <course>0.0</course>
  <speed>0.0</speed>
  <fix>3d</fix>
</trkpt>
<trkpt lat="33.810313" lon="-118.393867">
  <ele>-0.122</ele>
  <time>2026-09-02T22:07:13Z</time>
  <course>187.17</course>
  <speed>0.0</speed>
  <fix>3d</fix>
</trkpt>
<trkpt lat="33.810313" lon="-118.393867">
  <ele>-0.12</ele>
  <time>2026-09-02T22:07:13Z</time>
  <course>0.0</course>
  <speed>0.0</speed>
  <fix>3d</fix>
</trkpt>
<trkpt lat="33.810313" lon="-118.393867">
  <ele>-0.121</ele>
  <time>2026-09-02T22:07:13Z</time>
  <course>187.16</course>
  <speed>0.0</speed>
  <fix>3d</fix>
</trkpt>
<trkpt lat="33.810313" lon="-118.393867">
  <ele>-0.12</ele>
  <time>2026-09-02T22:07:13Z</time>
  <course>0.0</course>
  <speed>0.0</speed>
  <fix>3d</fix>
</trkpt>
<trkpt lat="33.810313" lon="-118.393867">
  <ele>-0.121</ele>
  <time>2026-09-02T22:07:13Z</time>
  <course>187.16</course>
  <speed>0.0</speed>
  <fix>3d</fix>
</trkpt>
<trkpt lat="33.810313" lon="-118.393867">
  <ele>-0.12</ele>
  <time>2026-09-02T22:07:13Z</time>
  <course>0.0</course>
  <speed>0.0</speed>
  <fix>3d</fix>
</trkpt>
<trkpt lat="33.810313" lon="-118.393867">
  <ele>-0.119</ele>
  <time>2026-09-02T22:07:13Z</time>
  <course>187.15</course>
  <speed>0.0</speed>
  <fix>3d</fix>
</trkpt>
<trkpt lat="33.810313" lon="-118.393867">
  <ele>-0.12</ele>
  <time>2026-09-02T22:07:13Z</time>
  <course>0.0</course>
  <speed>0.0</speed>
  <fix>3d</fix>
</trkpt>
<trkpt lat="33.810313" lon="-118.393867">
  <ele>-0.116</ele>
  <time>2026-09-02T22:07:13Z</time>
  <course>187.15</course>
  <speed>0.0</speed>
  <fix>3d</fix>
</trkpt>
<trkpt lat="33.810313" lon="-118.393867">
  <ele>-0.12</ele>
  <time>2026-09-02T22:07:13Z</time>
  <course>0.0</course>
  <speed>0.0</speed>
  <fix>3d</fix>
</trkpt>
<trkpt lat="33.810313" lon="-118.393867">
  <ele>-0.114</ele>
  <time>2026-09-02T22:07:13Z</time>
  <course>187.14</course>
  <speed>0.0</speed>
  <fix>3d</fix>
</trkpt>
<trkpt lat="33.810313" lon="-118.393867">
  <ele>-0.12</ele>
  <time>2026-09-02T22:07:13Z</time>
  <course>0.0</course>
  <speed>0.0</speed>
  <fix>3d</fix>
</trkpt>
<trkpt lat="33.810313" lon="-118.393867">
  <ele>-0.113</ele>
  <time>2026-09-02T22:07:13Z</time>
  <course>187.14</course>
  <speed>0.0</speed>
  <fix>3d</fix>
</trkpt>
<trkpt lat="33.810313" lon="-118.393867">
  <ele>-0.12</ele>
  <time>2026-09-02T22:07:13Z</time>
  <course>0.0</course>
  <speed>0.0</speed>
  <fix>3d</fix>
</trkpt>
<trkpt lat="33.810313" lon="-118.393867">
  <ele>-0.112</ele>
  <time>2026-09-02T22:07:13Z</time>
  <course>187.13</course>
  <speed>0.0</speed>
  <fix>3d</fix>
</trkpt>
<trkpt lat="33.810313" lon="-118.393867">
  <ele>-0.12</ele>
  <time>2026-09-02T22:07:13Z</time>
  <course>0.0</course>
  <speed>0.0</speed>
  <fix>3d</fix>
</trkpt>
<trkpt lat="33.810313" lon="-118.393867">
  <ele>-0.113</ele>
  <time>2026-09-02T22:07:13Z</time>
  <course>187.13</course>
  <speed>0.0</speed>
  <fix>3d</fix>
</trkpt>
<trkpt lat="33.810313" lon="-118.393867">
  <ele>-0.12</ele>
  <time>2026-09-02T22:07:13Z</time>
  <course>0.0</course>
  <speed>0.0</speed>
  <fix>3d</fix>
</trkpt>
<trkpt lat="33.810313" lon="-118.393867">
  <ele>-0.114</ele>
  <time>2026-09-02T22:07:13Z</time>
  <course>187.12</course>
  <speed>0.0</speed>
  <fix>3d</fix>
</trkpt>
<trkpt lat="33.810313" lon="-118.393867">
  <ele>-0.12</ele>
  <time>2026-09-02T22:07:13Z</time>
  <course>0.0</course>
  <speed>0.0</speed>
  <fix>3d</fix>
</trkpt>
<trkpt lat="33.810313" lon="-118.393867">
  <ele>-0.116</ele>
  <time>2026-09-02T22:07:13Z</time>
  <course>187.12</course>
  <speed>0.0</speed>
  <fix>3d</fix>
</trkpt>
<trkpt lat="33.810313" lon="-118.393867">
  <ele>-0.12</ele>
  <time>2026-09-02T22:07:13Z</time>
  <course>0.0</course>
  <speed>0.0</speed>
  <fix>3d</fix>
</trkpt>
<trkpt lat="33.810313" lon="-118.393867">
  <ele>-0.119</ele>
  <time>2026-09-02T22:07:13Z</time>
  <course>187.11</course>
  <speed>0.01</speed>
  <fix>3d</fix>
</trkpt>
<trkpt lat="33.810313" lon="-118.393867">
  <ele>-0.12</ele>
  <time>2026-09-02T22:07:13Z</time>
  <course>0.0</course>
  <speed>0.0</speed>
  <fix>3d</fix>
</trkpt>
<trkpt lat="33.810313" lon="-118.393867">
  <ele>-0.12</ele>
  <time>2026-09-02T22:07:13Z</time>
  <course>187.11</course>
  <speed>0.01</speed>
  <fix>3d</fix>
</trkpt>
<trkpt lat="33.810313" lon="-118.393867">
  <ele>-0.12</ele>
  <time>2026-09-02T22:07:13Z</time>
  <course>0.0</course>
  <speed>0.0</speed>
  <fix>3d</fix>
</trkpt>
<trkpt lat="33.810313" lon="-118.393867">
  <ele>-0.121</ele>
  <time>2026-09-02T22:07:13Z</time>
  <course>187.1</course>
  <speed>0.01</speed>
  <fix>3d</fix>
</trkpt>
<trkpt lat="33.810313" lon="-118.393867">
  <ele>-0.12</ele>
  <time>2026-09-02T22:07:13Z</time>
  <course>0.0</course>
  <speed>0.0</speed>
  <fix>3d</fix>
</trkpt>
<trkpt lat="33.810313" lon="-118.393867">
  <ele>-0.122</ele>
  <time>2026-09-02T22:07:13Z</time>
  <course>187.1</course>
  <speed>0.01414213562373095</speed>
  <fix>3d</fix>
</trkpt>
<trkpt lat="33.810313" lon="-118.393867">
  <ele>-0.12</ele>
  <time>2026-09-02T22:07:13Z</time>
  <course>0.0</course>
  <speed>0.0</speed>
  <fix>3d</fix>
</trkpt>
<trkpt lat="33.810313" lon="-118.393867">
  <ele>-0.122</ele>
  <time>2026-09-02T22:07:13Z</time>
  <course>187.1</course>
  <speed>0.01414213562373095</speed>
  <fix>3d</fix>
</trkpt>
<trkpt lat="33.810313" lon="-118.393867">
  <ele>-0.12</ele>
  <time>2026-09-02T22:07:13Z</time>
  <course>0.0</course>
  <speed>0.0</speed>
  <fix>3d</fix>
</trkpt>
<trkpt lat="33.810313" lon="-118.393867">
  <ele>-0.123</ele>
  <time>2026-09-02T22:07:13Z</time>
  <course>187.09</course>
  <speed>0.01414213562373095</speed>
  <fix>3d</fix>
</trkpt>
<trkpt lat="33.810313" lon="-118.393867">
  <ele>-0.12</ele>
  <time>2026-09-02T22:07:13Z</time>
  <course>0.0</course>
  <speed>0.0</speed>
  <fix>3d</fix>
</trkpt>
<trkpt lat="33.810313" lon="-118.393867">
  <ele>-0.124</ele>
  <time>2026-09-02T22:07:13Z</time>
  <course>187.09</course>
  <speed>0.01414213562373095</speed>
  <fix>3d</fix>
</trkpt>
<trkpt lat="33.810313" lon="-118.393867">
  <ele>-0.12</ele>
  <time>2026-09-02T22:07:13Z</time>
  <course>0.0</course>
  <speed>0.0</speed>
  <fix>3d</fix>
</trkpt>
<trkpt lat="33.810313" lon="-118.393867">
  <ele>-0.126</ele>
  <time>2026-09-02T22:07:13Z</time>
  <course>187.08</course>
  <speed>0.01414213562373095</speed>
  <fix>3d</fix>
</trkpt>
<trkpt lat="33.810313" lon="-118.393867">
  <ele>-0.12</ele>
  <time>2026-09-02T22:07:13Z</time>
  <course>0.0</course>
  <speed>0.0</speed>
  <fix>3d</fix>
</trkpt>
<trkpt lat="33.810313" lon="-118.393867">
  <ele>-0.128</ele>
  <time>2026-09-02T22:07:13Z</time>
  <course>187.08</course>
  <speed>0.01414213562373095</speed>
  <fix>3d</fix>
</trkpt>
<trkpt lat="33.810313" lon="-118.393867">
  <ele>-0.12</ele>
  <time>2026-09-02T22:07:13Z</time>
  <course>0.0</course>
  <speed>0.0</speed>
  <fix>3d</fix>
</trkpt>
<trkpt lat="33.810313" lon="-118.393867">
  <ele>-0.13</ele>
  <time>2026-09-02T22:07:13Z</time>
  <course>187.07</course>
  <speed>0.01414213562373095</speed>
  <fix>3d</fix>
</trkpt>
<trkpt lat="33.810313" lon="-118.393867">
  <ele>-0.12</ele>
  <time>2026-09-02T22:07:13Z</time>
  <course>0.0</course>
  <speed>0.0</speed>
  <fix>3d</fix>
</trkpt>
<trkpt lat="33.810313" lon="-118.393867">
  <ele>-0.134</ele>
  <time>2026-09-02T22:07:13Z</time>
  <course>187.07</course>
  <speed>0.022360679774997897</speed>
  <fix>3d</fix>
</trkpt>
<trkpt lat="33.810313" lon="-118.393867">
  <ele>-0.12</ele>
  <time>2026-09-02T22:07:13Z</time>
  <course>0.0</course>
  <speed>0.0</speed>
  <fix>3d</fix>
</trkpt>
<trkpt lat="33.810313" lon="-118.393867">
  <ele>-0.136</ele>
  <time>2026-09-02T22:07:13Z</time>
  <course>187.06</course>
  <speed>0.022360679774997897</speed>
  <fix>3d</fix>
</trkpt>
<trkpt lat="33.810313" lon="-118.393867">
  <ele>-0.12</ele>
  <time>2026-09-02T22:07:13Z</time>
  <course>0.0</course>
  <speed>0.0</speed>
  <fix>3d</fix>
</trkpt>
<trkpt lat="33.810313" lon="-118.393867">
  <ele>-0.137</ele>
  <time>2026-09-02T22:07:13Z</time>
  <course>187.06</course>
  <speed>0.022360679774997897</speed>
  <fix>3d</fix>
</trkpt>
<trkpt lat="33.810313" lon="-118.393867">
  <ele>-0.12</ele>
  <time>2026-09-02T22:07:13Z</time>
  <course>0.0</course>
  <speed>0.0</speed>
  <fix>3d</fix>
</trkpt>
<trkpt lat="33.810313" lon="-118.393867">
  <ele>-0.137</ele>
  <time>2026-09-02T22:07:13Z</time>
  <course>187.05</course>
  <speed>0.022360679774997897</speed>
  <fix>3d</fix>
</trkpt>
<trkpt lat="33.810313" lon="-118.393867">
  <ele>-0.12</ele>
  <time>2026-09-02T22:07:13Z</time>
  <course>0.0</course>
  <speed>0.0</speed>
  <fix>3d</fix>
</trkpt>
<trkpt lat="33.810313" lon="-118.393867">
  <ele>-0.136</ele>
  <time>2026-09-02T22:07:13Z</time>
  <course>187.05</course>
  <speed>0.022360679774997897</speed>
  <fix>3d</fix>
</trkpt>
<trkpt lat="33.810313" lon="-118.393867">
  <ele>-0.12</ele>
  <time>2026-09-02T22:07:13Z</time>
  <course>0.0</course>
  <speed>0.0</speed>
  <fix>3d</fix>
</trkpt>
<trkpt lat="33.810313" lon="-118.393867">
  <ele>-0.133</ele>
  <time>2026-09-02T22:07:13Z</time>
  <course>187.04</course>
  <speed>0.022360679774997897</speed>
  <fix>3d</fix>
</trkpt>
<trkpt lat="33.810313" lon="-118.393867">
  <ele>-0.12</ele>
  <time>2026-09-02T22:07:13Z</time>
  <course>0.0</course>
  <speed>0.0</speed>
  <fix>3d</fix>
</trkpt>
<trkpt lat="33.8103131" lon="-118.3938671">
  <ele>-0.131</ele>
  <time>2026-09-02T22:07:13Z</time>
  <course>187.04</course>
  <speed>0.022360679774997897</speed>
  <fix>3d</fix>
</trkpt>
<trkpt lat="33.810313" lon="-118.393867">
  <ele>-0.12</ele>
  <time>2026-09-02T22:07:13Z</time>
  <course>0.0</course>
  <speed>0.0</speed>
  <fix>3d</fix>
</trkpt>
<trkpt lat="33.8103131" lon="-118.3938671">
  <ele>-0.129</ele>
  <time>2026-09-02T22:07:13Z</time>
  <course>187.03</course>
  <speed>0.0282842712474619</speed>
  <fix>3d</fix>
</trkpt>
<trkpt lat="33.810313" lon="-118.393867">
  <ele>-0.12</ele>
  <time>2026-09-02T22:07:13Z</time>
  <course>0.0</course>
  <speed>0.0</speed>
  <fix>3d</fix>
</trkpt>
<trkpt lat="33.8103131" lon="-118.3938671">
  <ele>-0.129</ele>
  <time>2026-09-02T22:07:13Z</time>
  <course>187.03</course>
  <speed>0.0282842712474619</speed>
  <fix>3d</fix>
</trkpt>
<trkpt lat="33.810313" lon="-118.393867">
  <ele>-0.12</ele>
  <time>2026-09-02T22:07:13Z</time>
  <course>0.0</course>
  <speed>0.0</speed>
  <fix>3d</fix>
</trkpt>
<trkpt lat="33.8103131" lon="-118.3938671">
  <ele>-0.128</ele>
  <time>2026-09-02T22:07:13Z</time>
  <course>187.02</course>
  <speed>0.0282842712474619</speed>
  <fix>3d</fix>
</trkpt>
<trkpt lat="33.810313" lon="-118.393867">
  <ele>-0.12</ele>
  <time>2026-09-02T22:07:13Z</time>
  <course>0.0</course>
  <speed>0.0</speed>
  <fix>3d</fix>
</trkpt>
<trkpt lat="33.8103131" lon="-118.3938671">
  <ele>-0.129</ele>
  <time>2026-09-02T22:07:13Z</time>
  <course>187.02</course>
  <speed>0.0282842712474619</speed>
  <fix>3d</fix>
</trkpt>
<trkpt lat="33.810313" lon="-118.393867">
  <ele>-0.12</ele>
  <time>2026-09-02T22:07:13Z</time>
  <course>0.0</course>
  <speed>0.0</speed>
  <fix>3d</fix>
</trkpt>
<trkpt lat="33.8103131" lon="-118.3938671">
  <ele>-0.13</ele>
  <time>2026-09-02T22:07:13Z</time>
  <course>187.01</course>
  <speed>0.0282842712474619</speed>
  <fix>3d</fix>
</trkpt>
<trkpt lat="33.810313" lon="-118.393867">
  <ele>-0.12</ele>
  <time>2026-09-02T22:07:13Z</time>
  <course>0.0</course>
  <speed>0.0</speed>
  <fix>3d</fix>
</trkpt>
<trkpt lat="33.8103131" lon="-118.3938671">
  <ele>-0.131</ele>
  <time>2026-09-02T22:07:13Z</time>
  <course>187.01</course>
  <speed>0.0282842712474619</speed>
  <fix>3d</fix>
</trkpt>
<trkpt lat="33.810313" lon="-118.393867">
  <ele>-0.12</ele>
  <time>2026-09-02T22:07:13Z</time>
  <course>0.0</course>
  <speed>0.0</speed>
  <fix>3d</fix>
</trkpt>
<trkpt lat="33.8103131" lon="-118.3938671">
  <ele>-0.13</ele>
  <time>2026-09-02T22:07:13Z</time>
  <course>187.0</course>
  <speed>0.0282842712474619</speed>
  <fix>3d</fix>
</trkpt>
<trkpt lat="33.810313" lon="-118.393867">
  <ele>-0.12</ele>
  <time>2026-09-02T22:07:13Z</time>
  <course>0.0</course>
  <speed>0.0</speed>
  <fix>3d</fix>
</trkpt>
<trkpt lat="33.8103131" lon="-118.3938671">
  <ele>-0.13</ele>
  <time>2026-09-02T22:07:13Z</time>
  <course>187.0</course>
  <speed>0.0282842712474619</speed>
  <fix>3d</fix>
</trkpt>
<trkpt lat="33.810313" lon="-118.393867">
  <ele>-0.12</ele>
  <time>2026-09-02T22:07:13Z</time>
  <course>0.0</course>
  <speed>0.0</speed>
  <fix>3d</fix>
</trkpt>
<trkpt lat="33.8103131" lon="-118.3938671">
  <ele>-0.129</ele>
  <time>2026-09-02T22:07:13Z</time>
  <course>187.0</course>
  <speed>0.0282842712474619</speed>
  <fix>3d</fix>
</trkpt>
<trkpt lat="33.810313" lon="-118.393867">
  <ele>-0.12</ele>
  <time>2026-09-02T22:07:13Z</time>
  <course>0.0</course>
  <speed>0.0</speed>
  <fix>3d</fix>
</trkpt>
<trkpt lat="33.8103131" lon="-118.3938671">
  <ele>-0.128</ele>
  <time>2026-09-02T22:07:13Z</time>
  <course>186.99</course>
  <speed>0.03605551275463989</speed>
  <fix>3d</fix>
</trkpt>
<trkpt lat="33.810313" lon="-118.393867">
  <ele>-0.12</ele>
  <time>2026-09-02T22:07:13Z</time>
  <course>0.0</course>
  <speed>0.0</speed>
  <fix>3d</fix>
</trkpt>
<trkpt lat="33.8103131" lon="-118.3938671">
  <ele>-0.128</ele>
  <time>2026-09-02T22:07:13Z</time>
  <course>186.99</course>
  <speed>0.03605551275463989</speed>
  <fix>3d</fix>
</trkpt>
<trkpt lat="33.810313" lon="-118.393867">
  <ele>-0.12</ele>
  <time>2026-09-02T22:07:13Z</time>
  <course>0.0</course>
  <speed>0.0</speed>
  <fix>3d</fix>
</trkpt>
<trkpt lat="33.8103131" lon="-118.3938671">
  <ele>-0.128</ele>
  <time>2026-09-02T22:07:13Z</time>
  <course>186.98</course>
  <speed>0.03605551275463989</speed>
  <fix>3d</fix>
</trkpt>
<trkpt lat="33.810313" lon="-118.393867">
  <ele>-0.12</ele>
  <time>2026-09-02T22:07:13Z</time>
  <course>0.0</course>
  <speed>0.0</speed>
  <fix>3d</fix>
</trkpt>
<trkpt lat="33.8103131" lon="-118.3938671">
  <ele>-0.129</ele>
  <time>2026-09-02T22:07:13Z</time>
  <course>186.98</course>
  <speed>0.03605551275463989</speed>
  <fix>3d</fix>
</trkpt>
<trkpt lat="33.810313" lon="-118.393867">
  <ele>-0.12</ele>
  <time>2026-09-02T22:07:13Z</time>
  <course>0.0</course>
  <speed>0.0</speed>
  <fix>3d</fix>
</trkpt>
<trkpt lat="33.8103131" lon="-118.3938671">
  <ele>-0.131</ele>
  <time>2026-09-02T22:07:13Z</time>
  <course>186.97</course>
  <speed>0.03605551275463989</speed>
  <fix>3d</fix>
</trkpt>
<trkpt lat="33.810313" lon="-118.393867">
  <ele>-0.12</ele>
  <time>2026-09-02T22:07:13Z</time>
  <course>0.0</course>
  <speed>0.0</speed>
  <fix>3d</fix>
</trkpt>
<trkpt lat="33.8103131" lon="-118.3938671">
  <ele>-0.133</ele>
  <time>2026-09-02T22:07:13Z</time>
  <course>186.97</course>
  <speed>0.03605551275463989</speed>
  <fix>3d</fix>
</trkpt>
<trkpt lat="33.810313" lon="-118.393867">
  <ele>-0.12</ele>
  <time>2026-09-02T22:07:13Z</time>
  <course>0.0</course>
  <speed>0.0</speed>
  <fix>3d</fix>
</trkpt>
<trkpt lat="33.8103132" lon="-118.3938671">
  <ele>-0.134</ele>
  <time>2026-09-02T22:07:13Z</time>
  <course>186.96</course>
  <speed>0.03605551275463989</speed>
  <fix>3d</fix>
</trkpt>
<trkpt lat="33.810313" lon="-118.393867">
  <ele>-0.12</ele>
  <time>2026-09-02T22:07:13Z</time>
  <course>0.0</course>
  <speed>0.0</speed>
  <fix>3d</fix>
</trkpt>
<trkpt lat="33.8103132" lon="-118.3938671">
  <ele>-0.133</ele>
  <time>2026-09-02T22:07:13Z</time>
  <course>186.96</course>
  <speed>0.03605551275463989</speed>
  <fix>3d</fix>
</trkpt>
<trkpt lat="33.810313" lon="-118.393867">
  <ele>-0.12</ele>
  <time>2026-09-02T22:07:13Z</time>
  <course>0.0</course>
  <speed>0.0</speed>
  <fix>3d</fix>
</trkpt>
<trkpt lat="33.8103132" lon="-118.3938671">
  <ele>-0.131</ele>
  <time>2026-09-02T22:07:13Z</time>
  <course>186.96</course>
  <speed>0.03605551275463989</speed>
  <fix>3d</fix>
</trkpt>
<trkpt lat="33.810313" lon="-118.393867">
  <ele>-0.12</ele>
  <time>2026-09-02T22:07:13Z</time>
  <course>0.0</course>
  <speed>0.0</speed>
  <fix>3d</fix>
</trkpt>
<trkpt lat="33.8103132" lon="-118.3938671">
  <ele>-0.13</ele>
  <time>2026-09-02T22:07:13Z</time>
  <course>186.95</course>
  <speed>0.03605551275463989</speed>
  <fix>3d</fix>
</trkpt>
<trkpt lat="33.810313" lon="-118.393867">
  <ele>-0.12</ele>
  <time>2026-09-02T22:07:13Z</time>
  <course>0.0</course>
  <speed>0.0</speed>
  <fix>3d</fix>
</trkpt>
<trkpt lat="33.8103132" lon="-118.3938672">
  <ele>-0.129</ele>
  <time>2026-09-02T22:07:13Z</time>
  <course>186.95</course>
  <speed>0.03605551275463989</speed>
  <fix>3d</fix>
</trkpt>
<trkpt lat="33.810313" lon="-118.393867">
  <ele>-0.12</ele>
  <time>2026-09-02T22:07:13Z</time>
  <course>0.0</course>
  <speed>0.0</speed>
  <fix>3d</fix>
</trkpt>
<trkpt lat="33.8103132" lon="-118.3938672">
  <ele>-0.128</ele>
  <time>2026-09-02T22:07:13Z</time>
  <course>186.94</course>
  <speed>0.03605551275463989</speed>
  <fix>3d</fix>
</trkpt>
<trkpt lat="33.810313" lon="-118.393867">
  <ele>-0.12</ele>
  <time>2026-09-02T22:07:13Z</time>
  <course>0.0</course>
  <speed>0.0</speed>
  <fix>3d</fix>
</trkpt>
<trkpt lat="33.8103132" lon="-118.3938672">
  <ele>-0.128</ele>
  <time>2026-09-02T22:07:13Z</time>
  <course>186.94</course>
  <speed>0.0282842712474619</speed>
  <fix>3d</fix>
</trkpt>
<trkpt lat="33.810313" lon="-118.393867">
  <ele>-0.12</ele>
  <time>2026-09-02T22:07:13Z</time>
  <course>0.0</course>
  <speed>0.0</speed>
  <fix>3d</fix>
</trkpt>
<trkpt lat="33.8103132" lon="-118.3938672">
  <ele>-0.127</ele>
  <time>2026-09-02T22:07:13Z</time>
  <course>186.94</course>
  <speed>0.0282842712474619</speed>
  <fix>3d</fix>
</trkpt>
<trkpt lat="33.810313" lon="-118.393867">
  <ele>-0.12</ele>
  <time>2026-09-02T22:07:13Z</time>
  <course>0.0</course>
  <speed>0.0</speed>
  <fix>3d</fix>
</trkpt>
<trkpt lat="33.8103132" lon="-118.3938672">
  <ele>-0.128</ele>
  <time>2026-09-02T22:07:13Z</time>
  <course>186.93</course>
  <speed>0.0282842712474619</speed>
  <fix>3d</fix>
</trkpt>
<trkpt lat="33.810313" lon="-118.393867">
  <ele>-0.12</ele>
  <time>2026-09-02T22:07:13Z</time>
  <course>0.0</course>
  <speed>0.0</speed>
  <fix>3d</fix>
</trkpt>
<trkpt lat="33.8103132" lon="-118.3938672">
  <ele>-0.128</ele>
  <time>2026-09-02T22:07:13Z</time>
  <course>186.93</course>
  <speed>0.0282842712474619</speed>
  <fix>3d</fix>
</trkpt>
<trkpt lat="33.810313" lon="-118.393867">
  <ele>-0.12</ele>
  <time>2026-09-02T22:07:13Z</time>
  <course>0.0</course>
  <speed>0.0</speed>
  <fix>3d</fix>
</trkpt>
<trkpt lat="33.8103132" lon="-118.3938672">
  <ele>-0.127</ele>
  <time>2026-09-02T22:07:13Z</time>
  <course>186.92</course>
  <speed>0.0282842712474619</speed>
  <fix>3d</fix>
</trkpt>
<trkpt lat="33.810313" lon="-118.393867">
  <ele>-0.12</ele>
  <time>2026-09-02T22:07:13Z</time>
  <course>0.0</course>
  <speed>0.0</speed>
  <fix>3d</fix>
</trkpt>
<trkpt lat="33.8103132" lon="-118.3938672">
  <ele>-0.126</ele>
  <time>2026-09-02T22:07:13Z</time>
  <course>186.92</course>
  <speed>0.0282842712474619</speed>
  <fix>3d</fix>
</trkpt>
<trkpt lat="33.810313" lon="-118.393867">
  <ele>-0.12</ele>
  <time>2026-09-02T22:07:13Z</time>
  <course>0.0</course>
  <speed>0.0</speed>
  <fix>3d</fix>
</trkpt>
<trkpt lat="33.8103132" lon="-118.3938671">
  <ele>-0.125</ele>
  <time>2026-09-02T22:07:13Z</time>
  <course>186.92</course>
  <speed>0.0282842712474619</speed>
  <fix>3d</fix>
</trkpt>
<trkpt lat="33.810313" lon="-118.393867">
  <ele>-0.12</ele>
  <time>2026-09-02T22:07:13Z</time>
  <course>0.0</course>
  <speed>0.0</speed>
  <fix>3d</fix>
</trkpt>
<trkpt lat="33.8103132" lon="-118.3938671">
  <ele>-0.124</ele>
  <time>2026-09-02T22:07:13Z</time>
  <course>186.91</course>
  <speed>0.0282842712474619</speed>
  <fix>3d</fix>
</trkpt>
<trkpt lat="33.810313" lon="-118.393867">
  <ele>-0.12</ele>
  <time>2026-09-02T22:07:13Z</time>
  <course>0.0</course>
  <speed>0.0</speed>
  <fix>3d</fix>
</trkpt>
<trkpt lat="33.8103132" lon="-118.3938671">
  <ele>-0.122</ele>
  <time>2026-09-02T22:07:13Z</time>
  <course>186.91</course>
  <speed>0.0282842712474619</speed>
  <fix>3d</fix>
</trkpt>
<trkpt lat="33.810313" lon="-118.393867">
  <ele>-0.12</ele>
  <time>2026-09-02T22:07:13Z</time>
  <course>0.0</course>
  <speed>0.0</speed>
  <fix>3d</fix>
</trkpt>
<trkpt lat="33.8103132" lon="-118.3938671">
  <ele>-0.121</ele>
  <time>2026-09-02T22:07:13Z</time>
  <course>186.91</course>
  <speed>0.0282842712474619</speed>
  <fix>3d</fix>
</trkpt>
<trkpt lat="33.810313" lon="-118.393867">
  <ele>-0.12</ele>
  <time>2026-09-02T22:07:13Z</time>
  <course>0.0</course>
  <speed>0.0</speed>
  <fix>3d</fix>
</trkpt>
<trkpt lat="33.8103132" lon="-118.3938671">
  <ele>-0.12</ele>
  <time>2026-09-02T22:07:13Z</time>
  <course>186.9</course>
  <speed>0.0282842712474619</speed>
  <fix>3d</fix>
</trkpt>
<trkpt lat="33.810313" lon="-118.393867">
  <ele>-0.12</ele>
  <time>2026-09-02T22:07:13Z</time>
  <course>0.0</course>
  <speed>0.0</speed>
  <fix>3d</fix>
</trkpt>
<trkpt lat="33.8103132" lon="-118.3938671">
  <ele>-0.119</ele>
  <time>2026-09-02T22:07:13Z</time>
  <course>186.9</course>
  <speed>0.022360679774997897</speed>
  <fix>3d</fix>
</trkpt>
<trkpt lat="33.810313" lon="-118.393867">
  <ele>-0.12</ele>
  <time>2026-09-02T22:07:13Z</time>
  <course>0.0</course>
  <speed>0.0</speed>
  <fix>3d</fix>
</trkpt>
<trkpt lat="33.8103131" lon="-118.3938671">
  <ele>-0.119</ele>
  <time>2026-09-02T22:07:13Z</time>
  <course>186.89</course>
  <speed>0.022360679774997897</speed>
  <fix>3d</fix>
</trkpt>
<trkpt lat="33.810313" lon="-118.393867">
  <ele>-0.12</ele>
  <time>2026-09-02T22:07:13Z</time>
  <course>0.0</course>
  <speed>0.0</speed>
  <fix>3d</fix>
</trkpt>
<trkpt lat="33.8103131" lon="-118.3938671">
  <ele>-0.119</ele>
  <time>2026-09-02T22:07:13Z</time>
  <course>186.89</course>
  <speed>0.022360679774997897</speed>
  <fix>3d</fix>
</trkpt>
<trkpt lat="33.810313" lon="-118.393867">
  <ele>-0.12</ele>
  <time>2026-09-02T22:07:13Z</time>
  <course>0.0</course>
  <speed>0.0</speed>
  <fix>3d</fix>
</trkpt>
<trkpt lat="33.8103131" lon="-118.3938671">
  <ele>-0.119</ele>
  <time>2026-09-02T22:07:13Z</time>
  <course>186.89</course>
  <speed>0.022360679774997897</speed>
  <fix>3d</fix>
</trkpt>
<trkpt lat="33.810313" lon="-118.393867">
  <ele>-0.12</ele>
  <time>2026-09-02T22:07:13Z</time>
  <course>0.0</course>
  <speed>0.0</speed>
  <fix>3d</fix>
</trkpt>
<trkpt lat="33.8103131" lon="-118.3938671">
  <ele>-0.119</ele>
  <time>2026-09-02T22:07:13Z</time>
  <course>186.88</course>
  <speed>0.022360679774997897</speed>
  <fix>3d</fix>
</trkpt>
<trkpt lat="33.810313" lon="-118.393867">
  <ele>-0.12</ele>
  <time>2026-09-02T22:07:13Z</time>
  <course>0.0</course>
  <speed>0.0</speed>
  <fix>3d</fix>
</trkpt>
<trkpt lat="33.8103131" lon="-118.3938671">
  <ele>-0.119</ele>
  <time>2026-09-02T22:07:13Z</time>
  <course>186.88</course>
  <speed>0.022360679774997897</speed>
  <fix>3d</fix>
</trkpt>
<trkpt lat="33.810313" lon="-118.393867">
  <ele>-0.12</ele>
  <time>2026-09-02T22:07:13Z</time>
  <course>0.0</course>
  <speed>0.0</speed>
  <fix>3d</fix>
</trkpt>
<trkpt lat="33.8103131" lon="-118.3938671">
  <ele>-0.119</ele>
  <time>2026-09-02T22:07:13Z</time>
  <course>186.88</course>
  <speed>0.022360679774997897</speed>
  <fix>3d</fix>
</trkpt>
<trkpt lat="33.810313" lon="-118.393867">
  <ele>-0.12</ele>
  <time>2026-09-02T22:07:13Z</time>
  <course>0.0</course>
  <speed>0.0</speed>
  <fix>3d</fix>
</trkpt>
<trkpt lat="33.8103131" lon="-118.3938671">
  <ele>-0.12</ele>
  <time>2026-09-02T22:07:13Z</time>
  <course>186.87</course>
  <speed>0.022360679774997897</speed>
  <fix>3d</fix>
</trkpt>
<trkpt lat="33.810313" lon="-118.393867">
  <ele>-0.12</ele>
  <time>2026-09-02T22:07:13Z</time>
  <course>0.0</course>
  <speed>0.0</speed>
  <fix>3d</fix>
</trkpt>
<trkpt lat="33.8103131" lon="-118.3938671">
  <ele>-0.121</ele>
  <time>2026-09-02T22:07:13Z</time>
  <course>186.87</course>
  <speed>0.022360679774997897</speed>
  <fix>3d</fix>
</trkpt>
<trkpt lat="33.810313" lon="-118.393867">
  <ele>-0.12</ele>
  <time>2026-09-02T22:07:13Z</time>
  <course>0.0</course>
  <speed>0.0</speed>
  <fix>3d</fix>
</trkpt>
<trkpt lat="33.8103131" lon="-118.3938671">
  <ele>-0.124</ele>
  <time>2026-09-02T22:07:13Z</time>
  <course>186.87</course>
  <speed>0.022360679774997897</speed>
  <fix>3d</fix>
</trkpt>
<trkpt lat="33.810313" lon="-118.393867">
  <ele>-0.12</ele>
  <time>2026-09-02T22:07:13Z</time>
  <course>0.0</course>
  <speed>0.0</speed>
  <fix>3d</fix>
</trkpt>
<trkpt lat="33.8103131" lon="-118.3938671">
  <ele>-0.126</ele>
  <time>2026-09-02T22:07:13Z</time>
  <course>186.87</course>
  <speed>0.022360679774997897</speed>
  <fix>3d</fix>
</trkpt>
<trkpt lat="33.810313" lon="-118.393867">
  <ele>-0.12</ele>
  <time>2026-09-02T22:07:13Z</time>
  <course>0.0</course>
  <speed>0.0</speed>
  <fix>3d</fix>
</trkpt>
<trkpt lat="33.8103131" lon="-118.3938671">
  <ele>-0.128</ele>
  <time>2026-09-02T22:07:13Z</time>
  <course>186.86</course>
  <speed>0.022360679774997897</speed>
  <fix>3d</fix>
</trkpt>
<trkpt lat="33.810313" lon="-118.393867">
  <ele>-0.12</ele>
  <time>2026-09-02T22:07:13Z</time>
  <course>0.0</course>
  <speed>0.0</speed>
  <fix>3d</fix>
</trkpt>
<trkpt lat="33.8103131" lon="-118.3938671">
  <ele>-0.131</ele>
  <time>2026-09-02T22:07:13Z</time>
  <course>186.86</course>
  <speed>0.022360679774997897</speed>
  <fix>3d</fix>
</trkpt>
<trkpt lat="33.810313" lon="-118.393867">
  <ele>-0.12</ele>
  <time>2026-09-02T22:07:13Z</time>
  <course>0.0</course>
  <speed>0.0</speed>
  <fix>3d</fix>
</trkpt>
<trkpt lat="33.8103131" lon="-118.3938671">
  <ele>-0.133</ele>
  <time>2026-09-02T22:07:13Z</time>
  <course>186.86</course>
  <speed>0.022360679774997897</speed>
  <fix>3d</fix>
</trkpt>
<trkpt lat="33.810313" lon="-118.393867">
  <ele>-0.12</ele>
  <time>2026-09-02T22:07:13Z</time>
  <course>0.0</course>
  <speed>0.0</speed>
  <fix>3d</fix>
</trkpt>
<trkpt lat="33.8103131" lon="-118.3938671">
  <ele>-0.133</ele>
  <time>2026-09-02T22:07:14Z</time>
  <course>186.85</course>
  <speed>0.022360679774997897</speed>
  <fix>3d</fix>
</trkpt>
<trkpt lat="33.810313" lon="-118.393867">
  <ele>-0.12</ele>
  <time>2026-09-02T22:07:14Z</time>
  <course>0.0</course>
  <speed>0.0</speed>
  <fix>3d</fix>
</trkpt>
<trkpt lat="33.8103131" lon="-118.3938671">
  <ele>-0.132</ele>
  <time>2026-09-02T22:07:14Z</time>
  <course>186.85</course>
  <speed>0.022360679774997897</speed>
  <fix>3d</fix>
</trkpt>
<trkpt lat="33.810313" lon="-118.393867">
  <ele>-0.12</ele>
  <time>2026-09-02T22:07:14Z</time>
  <course>0.0</course>
  <speed>0.0</speed>
  <fix>3d</fix>
</trkpt>
<trkpt lat="33.8103131" lon="-118.3938671">
  <ele>-0.131</ele>
  <time>2026-09-02T22:07:14Z</time>
  <course>186.85</course>
  <speed>0.022360679774997897</speed>
  <fix>3d</fix>
</trkpt>
<trkpt lat="33.810313" lon="-118.393867">
  <ele>-0.12</ele>
  <time>2026-09-02T22:07:14Z</time>
  <course>0.0</course>
  <speed>0.0</speed>
  <fix>3d</fix>
</trkpt>
<trkpt lat="33.8103131" lon="-118.3938671">
  <ele>-0.129</ele>
  <time>2026-09-02T22:07:14Z</time>
  <course>186.84</course>
  <speed>0.022360679774997897</speed>
  <fix>3d</fix>
</trkpt>
<trkpt lat="33.810313" lon="-118.393867">
  <ele>-0.12</ele>
  <time>2026-09-02T22:07:14Z</time>
  <course>0.0</course>
  <speed>0.0</speed>
  <fix>3d</fix>
</trkpt>
<trkpt lat="33.8103131" lon="-118.3938671">
  <ele>-0.128</ele>
  <time>2026-09-02T22:07:14Z</time>
  <course>186.84</course>
  <speed>0.022360679774997897</speed>
  <fix>3d</fix>
</trkpt>
<trkpt lat="33.810313" lon="-118.393867">
  <ele>-0.12</ele>
  <time>2026-09-02T22:07:14Z</time>
  <course>0.0</course>
  <speed>0.0</speed>
  <fix>3d</fix>
</trkpt>
<trkpt lat="33.8103131" lon="-118.3938671">
  <ele>-0.128</ele>
  <time>2026-09-02T22:07:14Z</time>
  <course>186.84</course>
  <speed>0.01414213562373095</speed>
  <fix>3d</fix>
</trkpt>
<trkpt lat="33.810313" lon="-118.393867">
  <ele>-0.12</ele>
  <time>2026-09-02T22:07:14Z</time>
  <course>0.0</course>
  <speed>0.0</speed>
  <fix>3d</fix>
</trkpt>
<trkpt lat="33.8103131" lon="-118.3938671">
  <ele>-0.128</ele>
  <time>2026-09-02T22:07:14Z</time>
  <course>186.83</course>
  <speed>0.01414213562373095</speed>
  <fix>3d</fix>
</trkpt>
<trkpt lat="33.810313" lon="-118.393867">
  <ele>-0.12</ele>
  <time>2026-09-02T22:07:14Z</time>
  <course>0.0</course>
  <speed>0.0</speed>
  <fix>3d</fix>
</trkpt>
<trkpt lat="33.8103131" lon="-118.3938671">
  <ele>-0.128</ele>
  <time>2026-09-02T22:07:14Z</time>
  <course>186.83</course>
  <speed>0.01414213562373095</speed>
  <fix>3d</fix>
</trkpt>
<trkpt lat="33.810313" lon="-118.393867">
  <ele>-0.12</ele>
  <time>2026-09-02T22:07:14Z</time>
  <course>0.0</course>
  <speed>0.0</speed>
  <fix>3d</fix>
</trkpt>
<trkpt lat="33.8103131" lon="-118.3938671">
  <ele>-0.127</ele>
  <time>2026-09-02T22:07:14Z</time>
  <course>186.83</course>
  <speed>0.01414213562373095</speed>
  <fix>3d</fix>
</trkpt>
<trkpt lat="33.810313" lon="-118.393867">
  <ele>-0.12</ele>
  <time>2026-09-02T22:07:14Z</time>
  <course>0.0</course>
  <speed>0.0</speed>
  <fix>3d</fix>
</trkpt>
<trkpt lat="33.8103131" lon="-118.3938671">
  <ele>-0.126</ele>
  <time>2026-09-02T22:07:15Z</time>
  <course>186.82</course>
  <speed>0.01414213562373095</speed>
  <fix>3d</fix>
</trkpt>
<trkpt lat="33.810313" lon="-118.393867">
  <ele>-0.12</ele>
  <time>2026-09-02T22:07:15Z</time>
  <course>0.0</course>
  <speed>0.0</speed>
  <fix>3d</fix>
</trkpt>
<trkpt lat="33.8103131" lon="-118.3938671">
  <ele>-0.125</ele>
  <time>2026-09-02T22:07:15Z</time>
  <course>186.82</course>
  <speed>0.01414213562373095</speed>
  <fix>3d</fix>
</trkpt>
<trkpt lat="33.810313" lon="-118.393867">
  <ele>-0.12</ele>
  <time>2026-09-02T22:07:15Z</time>
  <course>0.0</course>
  <speed>0.0</speed>
  <fix>3d</fix>
</trkpt>
<trkpt lat="33.8103131" lon="-118.3938671">
  <ele>-0.124</ele>
  <time>2026-09-02T22:07:15Z</time>
  <course>186.82</course>
  <speed>0.01</speed>
  <fix>3d</fix>
</trkpt>
<trkpt lat="33.810313" lon="-118.393867">
  <ele>-0.12</ele>
  <time>2026-09-02T22:07:15Z</time>
  <course>0.0</course>
  <speed>0.0</speed>
  <fix>3d</fix>
</trkpt>
<trkpt lat="33.8103131" lon="-118.3938671">
  <ele>-0.123</ele>
  <time>2026-09-02T22:07:15Z</time>
  <course>186.81</course>
  <speed>0.01</speed>
  <fix>3d</fix>
</trkpt>
<trkpt lat="33.810313" lon="-118.393867">
  <ele>-0.12</ele>
  <time>2026-09-02T22:07:15Z</time>
  <course>0.0</course>
  <speed>0.0</speed>
  <fix>3d</fix>
</trkpt>
<trkpt lat="33.8103131" lon="-118.3938671">
  <ele>-0.122</ele>
  <time>2026-09-02T22:07:15Z</time>
  <course>186.81</course>
  <speed>0.01</speed>
  <fix>3d</fix>
</trkpt>
<trkpt lat="33.810313" lon="-118.393867">
  <ele>-0.12</ele>
  <time>2026-09-02T22:07:15Z</time>
  <course>0.0</course>
  <speed>0.0</speed>
  <fix>3d</fix>
</trkpt>
<trkpt lat="33.8103131" lon="-118.3938671">
  <ele>-0.122</ele>
  <time>2026-09-02T22:07:15Z</time>
  <course>186.81</course>
  <speed>0.01</speed>
  <fix>3d</fix>
</trkpt>
<trkpt lat="33.810313" lon="-118.393867">
  <ele>-0.12</ele>
  <time>2026-09-02T22:07:15Z</time>
  <course>0.0</course>
  <speed>0.0</speed>
  <fix>3d</fix>
</trkpt>
<trkpt lat="33.8103131" lon="-118.3938671">
  <ele>-0.122</ele>
  <time>2026-09-02T22:07:15Z</time>
  <course>186.81</course>
  <speed>0.0</speed>
  <fix>3d</fix>
</trkpt>
<trkpt lat="33.810313" lon="-118.393867">
  <ele>-0.12</ele>
  <time>2026-09-02T22:07:15Z</time>
  <course>0.0</course>
  <speed>0.0</speed>
  <fix>3d</fix>
</trkpt>
<trkpt lat="33.8103131" lon="-118.3938671">
  <ele>-0.121</ele>
  <time>2026-09-02T22:07:15Z</time>
  <course>186.8</course>
  <speed>0.0</speed>
  <fix>3d</fix>
</trkpt>
<trkpt lat="33.810313" lon="-118.393867">
  <ele>-0.12</ele>
  <time>2026-09-02T22:07:15Z</time>
  <course>0.0</course>
  <speed>0.0</speed>
  <fix>3d</fix>
</trkpt>
<trkpt lat="33.8103131" lon="-118.3938671">
  <ele>-0.122</ele>
  <time>2026-09-02T22:07:15Z</time>
  <course>186.8</course>
  <speed>0.0</speed>
  <fix>3d</fix>
</trkpt>
<trkpt lat="33.810313" lon="-118.393867">
  <ele>-0.12</ele>
  <time>2026-09-02T22:07:15Z</time>
  <course>0.0</course>
  <speed>0.0</speed>
  <fix>3d</fix>
</trkpt>
<trkpt lat="33.8103131" lon="-118.3938671">
  <ele>-0.122</ele>
  <time>2026-09-02T22:07:15Z</time>
  <course>186.8</course>
  <speed>0.0</speed>
  <fix>3d</fix>
</trkpt>
<trkpt lat="33.810313" lon="-118.393867">
  <ele>-0.12</ele>
  <time>2026-09-02T22:07:15Z</time>
  <course>0.0</course>
  <speed>0.0</speed>
  <fix>3d</fix>
</trkpt>
<trkpt lat="33.8103131" lon="-118.3938671">
  <ele>-0.122</ele>
  <time>2026-09-02T22:07:15Z</time>
  <course>186.79</course>
  <speed>0.0</speed>
  <fix>3d</fix>
</trkpt>
<trkpt lat="33.810313" lon="-118.393867">
  <ele>-0.12</ele>
  <time>2026-09-02T22:07:16Z</time>
  <course>0.0</course>
  <speed>0.0</speed>
  <fix>3d</fix>
</trkpt>
<trkpt lat="33.8103131" lon="-118.3938671">
  <ele>-0.122</ele>
  <time>2026-09-02T22:07:16Z</time>
  <course>186.79</course>
  <speed>0.0</speed>
  <fix>3d</fix>
</trkpt>
<trkpt lat="33.810313" lon="-118.393867">
  <ele>-0.12</ele>
  <time>2026-09-02T22:07:16Z</time>
  <course>0.0</course>
  <speed>0.0</speed>
  <fix>3d</fix>
</trkpt>
<trkpt lat="33.8103131" lon="-118.3938671">
  <ele>-0.122</ele>
  <time>2026-09-02T22:07:16Z</time>
  <course>186.79</course>
  <speed>0.0</speed>
  <fix>3d</fix>
</trkpt>
<trkpt lat="33.810313" lon="-118.393867">
  <ele>-0.12</ele>
  <time>2026-09-02T22:07:16Z</time>
  <course>0.0</course>
  <speed>0.0</speed>
  <fix>3d</fix>
</trkpt>
<trkpt lat="33.8103131" lon="-118.3938671">
  <ele>-0.121</ele>
  <time>2026-09-02T22:07:16Z</time>
  <course>186.78</course>
  <speed>0.0</speed>
  <fix>3d</fix>
</trkpt>
<trkpt lat="33.810313" lon="-118.393867">
  <ele>-0.12</ele>
  <time>2026-09-02T22:07:16Z</time>
  <course>0.0</course>
  <speed>0.0</speed>
  <fix>3d</fix>
</trkpt>
<trkpt lat="33.8103131" lon="-118.3938671">
  <ele>-0.12</ele>
  <time>2026-09-02T22:07:16Z</time>
  <course>186.78</course>
  <speed>0.0</speed>
  <fix>3d</fix>
</trkpt>
<trkpt lat="33.810313" lon="-118.393867">
  <ele>-0.12</ele>
  <time>2026-09-02T22:07:16Z</time>
  <course>0.0</course>
  <speed>0.0</speed>
  <fix>3d</fix>
</trkpt>
<trkpt lat="33.8103131" lon="-118.3938671">
  <ele>-0.12</ele>
  <time>2026-09-02T22:07:16Z</time>
  <course>186.78</course>
  <speed>0.0</speed>
  <fix>3d</fix>
</trkpt>
<trkpt lat="33.810313" lon="-118.393867">
  <ele>-0.12</ele>
  <time>2026-09-02T22:07:16Z</time>
  <course>0.0</course>
  <speed>0.0</speed>
  <fix>3d</fix>
</trkpt>
<trkpt lat="33.8103131" lon="-118.3938671">
  <ele>-0.12</ele>
  <time>2026-09-02T22:07:16Z</time>
  <course>186.77</course>
  <speed>0.0</speed>
  <fix>3d</fix>
</trkpt>
<trkpt lat="33.810313" lon="-118.393867">
  <ele>-0.12</ele>
  <time>2026-09-02T22:07:16Z</time>
  <course>0.0</course>
  <speed>0.0</speed>
  <fix>3d</fix>
</trkpt>
<trkpt lat="33.8103131" lon="-118.3938671">
  <ele>-0.122</ele>
  <time>2026-09-02T22:07:16Z</time>
  <course>186.77</course>
  <speed>0.0</speed>
  <fix>3d</fix>
</trkpt>
<trkpt lat="33.810313" lon="-118.393867">
  <ele>-0.12</ele>
  <time>2026-09-02T22:07:16Z</time>
  <course>0.0</course>
  <speed>0.0</speed>
  <fix>3d</fix>
</trkpt>
<trkpt lat="33.8103131" lon="-118.3938671">
  <ele>-0.125</ele>
  <time>2026-09-02T22:07:16Z</time>
  <course>186.77</course>
  <speed>0.0</speed>
  <fix>3d</fix>
</trkpt>
<trkpt lat="33.810313" lon="-118.393867">
  <ele>-0.12</ele>
  <time>2026-09-02T22:07:16Z</time>
  <course>0.0</course>
  <speed>0.0</speed>
  <fix>3d</fix>
</trkpt>
<trkpt lat="33.8103131" lon="-118.3938671">
  <ele>-0.128</ele>
  <time>2026-09-02T22:07:16Z</time>
  <course>186.77</course>
  <speed>0.0</speed>
  <fix>3d</fix>
</trkpt>
<trkpt lat="33.810313" lon="-118.393867">
  <ele>-0.12</ele>
  <time>2026-09-02T22:07:16Z</time>
  <course>0.0</course>
  <speed>0.0</speed>
  <fix>3d</fix>
</trkpt>
<trkpt lat="33.8103131" lon="-118.3938671">
  <ele>-0.13</ele>
  <time>2026-09-02T22:07:16Z</time>
  <course>186.76</course>
  <speed>0.0</speed>
  <fix>3d</fix>
</trkpt>
<trkpt lat="33.810313" lon="-118.393867">
  <ele>-0.12</ele>
  <time>2026-09-02T22:07:16Z</time>
  <course>0.0</course>
  <speed>0.0</speed>
  <fix>3d</fix>
</trkpt>
<trkpt lat="33.8103131" lon="-118.3938671">
  <ele>-0.13</ele>
  <time>2026-09-02T22:07:16Z</time>
  <course>186.76</course>
  <speed>0.0</speed>
  <fix>3d</fix>
</trkpt>
<trkpt lat="33.810313" lon="-118.393867">
  <ele>-0.12</ele>
  <time>2026-09-02T22:07:16Z</time>
  <course>0.0</course>
  <speed>0.0</speed>
  <fix>3d</fix>
</trkpt>
<trkpt lat="33.8103131" lon="-118.3938671">
  <ele>-0.129</ele>
  <time>2026-09-02T22:07:16Z</time>
  <course>186.76</course>
  <speed>0.0</speed>
  <fix>3d</fix>
</trkpt>
<trkpt lat="33.810313" lon="-118.393867">
  <ele>-0.12</ele>
  <time>2026-09-02T22:07:16Z</time>
  <course>0.0</course>
  <speed>0.0</speed>
  <fix>3d</fix>
</trkpt>
<trkpt lat="33.8103131" lon="-118.3938671">
  <ele>-0.127</ele>
  <time>2026-09-02T22:07:16Z</time>
  <course>186.75</course>
  <speed>0.01</speed>
  <fix>3d</fix>
</trkpt>
<trkpt lat="33.810313" lon="-118.393867">
  <ele>-0.12</ele>
  <time>2026-09-02T22:07:16Z</time>
  <course>0.0</course>
  <speed>0.0</speed>
  <fix>3d</fix>
</trkpt>
<trkpt lat="33.8103131" lon="-118.3938671">
  <ele>-0.125</ele>
  <time>2026-09-02T22:07:16Z</time>
  <course>186.75</course>
  <speed>0.01</speed>
  <fix>3d</fix>
</trkpt>
<trkpt lat="33.810313" lon="-118.393867">
  <ele>-0.12</ele>
  <time>2026-09-02T22:07:16Z</time>
  <course>0.0</course>
  <speed>0.0</speed>
  <fix>3d</fix>
</trkpt>
<trkpt lat="33.8103131" lon="-118.3938671">
  <ele>-0.124</ele>
  <time>2026-09-02T22:07:16Z</time>
  <course>186.75</course>
  <speed>0.01</speed>
  <fix>3d</fix>
</trkpt>
<trkpt lat="33.810313" lon="-118.393867">
  <ele>-0.12</ele>
  <time>2026-09-02T22:07:16Z</time>
  <course>0.0</course>
  <speed>0.0</speed>
  <fix>3d</fix>
</trkpt>
<trkpt lat="33.8103131" lon="-118.3938671">
  <ele>-0.124</ele>
  <time>2026-09-02T22:07:16Z</time>
  <course>186.74</course>
  <speed>0.01</speed>
  <fix>3d</fix>
</trkpt>
<trkpt lat="33.810313" lon="-118.393867">
  <ele>-0.12</ele>
  <time>2026-09-02T22:07:16Z</time>
  <course>0.0</course>
  <speed>0.0</speed>
  <fix>3d</fix>
</trkpt>
<trkpt lat="33.8103131" lon="-118.3938671">
  <ele>-0.123</ele>
  <time>2026-09-02T22:07:16Z</time>
  <course>186.74</course>
  <speed>0.01</speed>
  <fix>3d</fix>
</trkpt>
<trkpt lat="33.810313" lon="-118.393867">
  <ele>-0.12</ele>
  <time>2026-09-02T22:07:16Z</time>
  <course>0.0</course>
  <speed>0.0</speed>
  <fix>3d</fix>
</trkpt>
<trkpt lat="33.8103131" lon="-118.3938671">
  <ele>-0.122</ele>
  <time>2026-09-02T22:07:16Z</time>
  <course>186.74</course>
  <speed>0.01</speed>
  <fix>3d</fix>
</trkpt>
<trkpt lat="33.810313" lon="-118.393867">
  <ele>-0.12</ele>
  <time>2026-09-02T22:07:16Z</time>
  <course>0.0</course>
  <speed>0.0</speed>
  <fix>3d</fix>
</trkpt>
<trkpt lat="33.8103131" lon="-118.3938671">
  <ele>-0.122</ele>
  <time>2026-09-02T22:07:16Z</time>
  <course>186.74</course>
  <speed>0.01414213562373095</speed>
  <fix>3d</fix>
</trkpt>
<trkpt lat="33.810313" lon="-118.393867">
  <ele>-0.12</ele>
  <time>2026-09-02T22:07:16Z</time>
  <course>0.0</course>
  <speed>0.0</speed>
  <fix>3d</fix>
</trkpt>
<trkpt lat="33.8103131" lon="-118.3938671">
  <ele>-0.122</ele>
  <time>2026-09-02T22:07:16Z</time>
  <course>186.73</course>
  <speed>0.01414213562373095</speed>
  <fix>3d</fix>
</trkpt>
<trkpt lat="33.810313" lon="-118.393867">
  <ele>-0.12</ele>
  <time>2026-09-02T22:07:16Z</time>
  <course>0.0</course>
  <speed>0.0</speed>
  <fix>3d</fix>
</trkpt>
<trkpt lat="33.8103131" lon="-118.3938671">
  <ele>-0.122</ele>
  <time>2026-09-02T22:07:16Z</time>
  <course>186.73</course>
  <speed>0.01414213562373095</speed>
  <fix>3d</fix>
</trkpt>
<trkpt lat="33.810313" lon="-118.393867">
  <ele>-0.12</ele>
  <time>2026-09-02T22:07:16Z</time>
  <course>0.0</course>
  <speed>0.0</speed>
  <fix>3d</fix>
</trkpt>
<trkpt lat="33.8103131" lon="-118.3938671">
  <ele>-0.121</ele>
  <time>2026-09-02T22:07:16Z</time>
  <course>186.73</course>
  <speed>0.01414213562373095</speed>
  <fix>3d</fix>
</trkpt>
<trkpt lat="33.810313" lon="-118.393867">
  <ele>-0.12</ele>
  <time>2026-09-02T22:07:16Z</time>
  <course>0.0</course>
  <speed>0.0</speed>
  <fix>3d</fix>
</trkpt>
<trkpt lat="33.8103131" lon="-118.3938671">
  <ele>-0.12</ele>
  <time>2026-09-02T22:07:16Z</time>
  <course>186.72</course>
  <speed>0.01414213562373095</speed>
  <fix>3d</fix>
</trkpt>
<trkpt lat="33.810313" lon="-118.393867">
  <ele>-0.12</ele>
  <time>2026-09-02T22:07:16Z</time>
  <course>0.0</course>
  <speed>0.0</speed>
  <fix>3d</fix>
</trkpt>
<trkpt lat="33.8103131" lon="-118.3938671">
  <ele>-0.12</ele>
  <time>2026-09-02T22:07:16Z</time>
  <course>186.72</course>
  <speed>0.01414213562373095</speed>
  <fix>3d</fix>
</trkpt>
<trkpt lat="33.810313" lon="-118.393867">
  <ele>-0.12</ele>
  <time>2026-09-02T22:07:16Z</time>
  <course>0.0</course>
  <speed>0.0</speed>
  <fix>3d</fix>
</trkpt>
<trkpt lat="33.8103131" lon="-118.3938671">
  <ele>-0.12</ele>
  <time>2026-09-02T22:07:16Z</time>
  <course>186.72</course>
  <speed>0.01414213562373095</speed>
  <fix>3d</fix>
</trkpt>
<trkpt lat="33.810313" lon="-118.393867">
  <ele>-0.12</ele>
  <time>2026-09-02T22:07:16Z</time>
  <course>0.0</course>
  <speed>0.0</speed>
  <fix>3d</fix>
</trkpt>
<trkpt lat="33.8103131" lon="-118.3938671">
  <ele>-0.121</ele>
  <time>2026-09-02T22:07:16Z</time>
  <course>186.71</course>
  <speed>0.01414213562373095</speed>
  <fix>3d</fix>
</trkpt>
<trkpt lat="33.810313" lon="-118.393867">
  <ele>-0.12</ele>
  <time>2026-09-02T22:07:16Z</time>
  <course>0.0</course>
  <speed>0.0</speed>
  <fix>3d</fix>
</trkpt>
<trkpt lat="33.8103131" lon="-118.3938671">
  <ele>-0.122</ele>
  <time>2026-09-02T22:07:16Z</time>
  <course>186.71</course>
  <speed>0.01414213562373095</speed>
  <fix>3d</fix>
</trkpt>
<trkpt lat="33.810313" lon="-118.393867">
  <ele>-0.12</ele>
  <time>2026-09-02T22:07:16Z</time>
  <course>0.0</course>
  <speed>0.0</speed>
  <fix>3d</fix>
</trkpt>
<trkpt lat="33.8103131" lon="-118.3938671">
  <ele>-0.124</ele>
  <time>2026-09-02T22:07:16Z</time>
  <course>186.71</course>
  <speed>0.01414213562373095</speed>
  <fix>3d</fix>
</trkpt>
<trkpt lat="33.810313" lon="-118.393867">
  <ele>-0.12</ele>
  <time>2026-09-02T22:07:16Z</time>
  <course>0.0</course>
  <speed>0.0</speed>
  <fix>3d</fix>
</trkpt>
<trkpt lat="33.8103131" lon="-118.3938671">
  <ele>-0.126</ele>
  <time>2026-09-02T22:07:16Z</time>
  <course>186.71</course>
  <speed>0.01414213562373095</speed>
  <fix>3d</fix>
</trkpt>
<trkpt lat="33.810313" lon="-118.393867">
  <ele>-0.12</ele>
  <time>2026-09-02T22:07:16Z</time>
  <course>0.0</course>
  <speed>0.0</speed>
  <fix>3d</fix>
</trkpt>
<trkpt lat="33.8103131" lon="-118.3938671">
  <ele>-0.127</ele>
  <time>2026-09-02T22:07:16Z</time>
  <course>186.7</course>
  <speed>0.01414213562373095</speed>
  <fix>3d</fix>
</trkpt>
<trkpt lat="33.810313" lon="-118.393867">
  <ele>-0.12</ele>
  <time>2026-09-02T22:07:16Z</time>
  <course>0.0</course>
  <speed>0.0</speed>
  <fix>3d</fix>
</trkpt>
<trkpt lat="33.8103131" lon="-118.3938671">
  <ele>-0.127</ele>
  <time>2026-09-02T22:07:16Z</time>
  <course>186.7</course>
  <speed>0.01414213562373095</speed>
  <fix>3d</fix>
</trkpt>
<trkpt lat="33.810313" lon="-118.393867">
  <ele>-0.12</ele>
  <time>2026-09-02T22:07:16Z</time>
  <course>0.0</course>
  <speed>0.0</speed>
  <fix>3d</fix>
</trkpt>
<trkpt lat="33.8103131" lon="-118.3938671">
  <ele>-0.127</ele>
  <time>2026-09-02T22:07:16Z</time>
  <course>186.7</course>
  <speed>0.01414213562373095</speed>
  <fix>3d</fix>
</trkpt>
<trkpt lat="33.810313" lon="-118.393867">
  <ele>-0.12</ele>
  <time>2026-09-02T22:07:16Z</time>
  <course>0.0</course>
  <speed>0.0</speed>
  <fix>3d</fix>
</trkpt>
<trkpt lat="33.8103131" lon="-118.3938671">
  <ele>-0.126</ele>
  <time>2026-09-02T22:07:16Z</time>
  <course>186.69</course>
  <speed>0.01414213562373095</speed>
  <fix>3d</fix>
</trkpt>
<trkpt lat="33.810313" lon="-118.393867">
  <ele>-0.12</ele>
  <time>2026-09-02T22:07:16Z</time>
  <course>0.0</course>
  <speed>0.0</speed>
  <fix>3d</fix>
</trkpt>
<trkpt lat="33.8103131" lon="-118.3938671">
  <ele>-0.125</ele>
  <time>2026-09-02T22:07:16Z</time>
  <course>186.69</course>
  <speed>0.01414213562373095</speed>
  <fix>3d</fix>
</trkpt>
<trkpt lat="33.810313" lon="-118.393867">
  <ele>-0.12</ele>
  <time>2026-09-02T22:07:16Z</time>
  <course>0.0</course>
  <speed>0.0</speed>
  <fix>3d</fix>
</trkpt>
<trkpt lat="33.8103131" lon="-118.3938671">
  <ele>-0.125</ele>
  <time>2026-09-02T22:07:16Z</time>
  <course>186.69</course>
  <speed>0.01414213562373095</speed>
  <fix>3d</fix>
</trkpt>
<trkpt lat="33.810313" lon="-118.393867">
  <ele>-0.12</ele>
  <time>2026-09-02T22:07:16Z</time>
  <course>0.0</course>
  <speed>0.0</speed>
  <fix>3d</fix>
</trkpt>
<trkpt lat="33.8103131" lon="-118.3938671">
  <ele>-0.126</ele>
  <time>2026-09-02T22:07:16Z</time>
  <course>186.68</course>
  <speed>0.01414213562373095</speed>
  <fix>3d</fix>
</trkpt>
<trkpt lat="33.810313" lon="-118.393867">
  <ele>-0.12</ele>
  <time>2026-09-02T22:07:16Z</time>
  <course>0.0</course>
  <speed>0.0</speed>
  <fix>3d</fix>
</trkpt>
<trkpt lat="33.8103131" lon="-118.3938671">
  <ele>-0.128</ele>
  <time>2026-09-02T22:07:16Z</time>
  <course>186.68</course>
  <speed>0.01414213562373095</speed>
  <fix>3d</fix>
</trkpt>
<trkpt lat="33.810313" lon="-118.393867">
  <ele>-0.12</ele>
  <time>2026-09-02T22:07:16Z</time>
  <course>0.0</course>
  <speed>0.0</speed>
  <fix>3d</fix>
</trkpt>
<trkpt lat="33.8103131" lon="-118.3938671">
  <ele>-0.131</ele>
  <time>2026-09-02T22:07:16Z</time>
  <course>186.68</course>
  <speed>0.01414213562373095</speed>
  <fix>3d</fix>
</trkpt>
<trkpt lat="33.810313" lon="-118.393867">
  <ele>-0.12</ele>
  <time>2026-09-02T22:07:16Z</time>
  <course>0.0</course>
  <speed>0.0</speed>
  <fix>3d</fix>
</trkpt>
<trkpt lat="33.8103131" lon="-118.3938671">
  <ele>-0.132</ele>
  <time>2026-09-02T22:07:16Z</time>
  <course>186.68</course>
  <speed>0.01414213562373095</speed>
  <fix>3d</fix>
</trkpt>
<trkpt lat="33.810313" lon="-118.393867">
  <ele>-0.12</ele>
  <time>2026-09-02T22:07:16Z</time>
  <course>0.0</course>
  <speed>0.0</speed>
  <fix>3d</fix>
</trkpt>
<trkpt lat="33.8103131" lon="-118.3938671">
  <ele>-0.133</ele>
  <time>2026-09-02T22:07:16Z</time>
  <course>186.67</course>
  <speed>0.01414213562373095</speed>
  <fix>3d</fix>
</trkpt>
<trkpt lat="33.810313" lon="-118.393867">
  <ele>-0.12</ele>
  <time>2026-09-02T22:07:16Z</time>
  <course>0.0</course>
  <speed>0.0</speed>
  <fix>3d</fix>
</trkpt>
<trkpt lat="33.8103131" lon="-118.3938671">
  <ele>-0.132</ele>
  <time>2026-09-02T22:07:16Z</time>
  <course>186.67</course>
  <speed>0.01414213562373095</speed>
  <fix>3d</fix>
</trkpt>
<trkpt lat="33.810313" lon="-118.393867">
  <ele>-0.12</ele>
  <time>2026-09-02T22:07:16Z</time>
  <course>0.0</course>
  <speed>0.0</speed>
  <fix>3d</fix>
</trkpt>
<trkpt lat="33.8103131" lon="-118.3938671">
  <ele>-0.132</ele>
  <time>2026-09-02T22:07:16Z</time>
  <course>186.67</course>
  <speed>0.01414213562373095</speed>
  <fix>3d</fix>
</trkpt>
<trkpt lat="33.810313" lon="-118.393867">
  <ele>-0.12</ele>
  <time>2026-09-02T22:07:16Z</time>
  <course>0.0</course>
  <speed>0.0</speed>
  <fix>3d</fix>
</trkpt>
<trkpt lat="33.8103131" lon="-118.3938671">
  <ele>-0.131</ele>
  <time>2026-09-02T22:07:16Z</time>
  <course>186.66</course>
  <speed>0.01414213562373095</speed>
  <fix>3d</fix>
</trkpt>
<trkpt lat="33.810313" lon="-118.393867">
  <ele>-0.12</ele>
  <time>2026-09-02T22:07:16Z</time>
  <course>0.0</course>
  <speed>0.0</speed>
  <fix>3d</fix>
</trkpt>
<trkpt lat="33.8103131" lon="-118.3938671">
  <ele>-0.13</ele>
  <time>2026-09-02T22:07:16Z</time>
  <course>186.66</course>
  <speed>0.022360679774997897</speed>
  <fix>3d</fix>
</trkpt>
<trkpt lat="33.810313" lon="-118.393867">
  <ele>-0.12</ele>
  <time>2026-09-02T22:07:16Z</time>
  <course>0.0</course>
  <speed>0.0</speed>
  <fix>3d</fix>
</trkpt>
<trkpt lat="33.8103131" lon="-118.3938671">
  <ele>-0.13</ele>
  <time>2026-09-02T22:07:16Z</time>
  <course>186.66</course>
  <speed>0.022360679774997897</speed>
  <fix>3d</fix>
</trkpt>
<trkpt lat="33.810313" lon="-118.393867">
  <ele>-0.12</ele>
  <time>2026-09-02T22:07:16Z</time>
  <course>0.0</course>
  <speed>0.0</speed>
  <fix>3d</fix>
</trkpt>
<trkpt lat="33.8103131" lon="-118.3938671">
  <ele>-0.13</ele>
  <time>2026-09-02T22:07:16Z</time>
  <course>186.66</course>
  <speed>0.022360679774997897</speed>
  <fix>3d</fix>
</trkpt>
<trkpt lat="33.810313" lon="-118.393867">
  <ele>-0.12</ele>
  <time>2026-09-02T22:07:16Z</time>
  <course>0.0</course>
  <speed>0.0</speed>
  <fix>3d</fix>
</trkpt>
<trkpt lat="33.8103131" lon="-118.3938671">
  <ele>-0.129</ele>
  <time>2026-09-02T22:07:16Z</time>
  <course>186.65</course>
  <speed>0.022360679774997897</speed>
  <fix>3d</fix>
</trkpt>
<trkpt lat="33.810313" lon="-118.393867">
  <ele>-0.12</ele>
  <time>2026-09-02T22:07:16Z</time>
  <course>0.0</course>
  <speed>0.0</speed>
  <fix>3d</fix>
</trkpt>
<trkpt lat="33.8103131" lon="-118.3938671">
  <ele>-0.13</ele>
  <time>2026-09-02T22:07:16Z</time>
  <course>186.65</course>
  <speed>0.022360679774997897</speed>
  <fix>3d</fix>
</trkpt>
<trkpt lat="33.810313" lon="-118.393867">
  <ele>-0.12</ele>
  <time>2026-09-02T22:07:16Z</time>
  <course>0.0</course>
  <speed>0.0</speed>
  <fix>3d</fix>
</trkpt>
<trkpt lat="33.8103131" lon="-118.3938671">
  <ele>-0.13</ele>
  <time>2026-09-02T22:07:16Z</time>
  <course>186.65</course>
  <speed>0.022360679774997897</speed>
  <fix>3d</fix>
</trkpt>
<trkpt lat="33.810313" lon="-118.393867">
  <ele>-0.12</ele>
  <time>2026-09-02T22:07:16Z</time>
  <course>0.0</course>
  <speed>0.0</speed>
  <fix>3d</fix>
</trkpt>
<trkpt lat="33.8103131" lon="-118.3938671">
  <ele>-0.13</ele>
  <time>2026-09-02T22:07:16Z</time>
  <course>186.64</course>
  <speed>0.022360679774997897</speed>
  <fix>3d</fix>
</trkpt>
<trkpt lat="33.810313" lon="-118.393867">
  <ele>-0.12</ele>
  <time>2026-09-02T22:07:16Z</time>
  <course>0.0</course>
  <speed>0.0</speed>
  <fix>3d</fix>
</trkpt>
<trkpt lat="33.8103131" lon="-118.3938671">
  <ele>-0.128</ele>
  <time>2026-09-02T22:07:16Z</time>
  <course>186.64</course>
  <speed>0.022360679774997897</speed>
  <fix>3d</fix>
</trkpt>
<trkpt lat="33.810313" lon="-118.393867">
  <ele>-0.12</ele>
  <time>2026-09-02T22:07:16Z</time>
  <course>0.0</course>
  <speed>0.0</speed>
  <fix>3d</fix>
</trkpt>
<trkpt lat="33.8103131" lon="-118.3938671">
  <ele>-0.127</ele>
  <time>2026-09-02T22:07:16Z</time>
  <course>186.64</course>
  <speed>0.022360679774997897</speed>
  <fix>3d</fix>
</trkpt>
<trkpt lat="33.810313" lon="-118.393867">
  <ele>-0.12</ele>
  <time>2026-09-02T22:07:16Z</time>
  <course>0.0</course>
  <speed>0.0</speed>
  <fix>3d</fix>
</trkpt>
<trkpt lat="33.8103131" lon="-118.3938671">
  <ele>-0.124</ele>
  <time>2026-09-02T22:07:16Z</time>
  <course>186.64</course>
  <speed>0.022360679774997897</speed>
  <fix>3d</fix>
</trkpt>
<trkpt lat="33.810313" lon="-118.393867">
  <ele>-0.12</ele>
  <time>2026-09-02T22:07:16Z</time>
  <course>0.0</course>
  <speed>0.0</speed>
  <fix>3d</fix>
</trkpt>
<trkpt lat="33.8103131" lon="-118.3938671">
  <ele>-0.122</ele>
  <time>2026-09-02T22:07:16Z</time>
  <course>186.63</course>
  <speed>0.022360679774997897</speed>
  <fix>3d</fix>
</trkpt>
<trkpt lat="33.810313" lon="-118.393867">
  <ele>-0.12</ele>
  <time>2026-09-02T22:07:16Z</time>
  <course>0.0</course>
  <speed>0.0</speed>
  <fix>3d</fix>
</trkpt>
<trkpt lat="33.8103131" lon="-118.3938671">
  <ele>-0.122</ele>
  <time>2026-09-02T22:07:16Z</time>
  <course>186.63</course>
  <speed>0.022360679774997897</speed>
  <fix>3d</fix>
</trkpt>
<trkpt lat="33.810313" lon="-118.393867">
  <ele>-0.12</ele>
  <time>2026-09-02T22:07:16Z</time>
  <course>0.0</course>
  <speed>0.0</speed>
  <fix>3d</fix>
</trkpt>
<trkpt lat="33.8103131" lon="-118.3938671">
  <ele>-0.122</ele>
  <time>2026-09-02T22:07:16Z</time>
  <course>186.63</course>
  <speed>0.022360679774997897</speed>
  <fix>3d</fix>
</trkpt>
<trkpt lat="33.810313" lon="-118.393867">
  <ele>-0.12</ele>
  <time>2026-09-02T22:07:16Z</time>
  <course>0.0</course>
  <speed>0.0</speed>
  <fix>3d</fix>
</trkpt>
<trkpt lat="33.8103131" lon="-118.3938671">
  <ele>-0.124</ele>
  <time>2026-09-02T22:07:16Z</time>
  <course>186.63</course>
  <speed>0.022360679774997897</speed>
  <fix>3d</fix>
</trkpt>
<trkpt lat="33.810313" lon="-118.393867">
  <ele>-0.12</ele>
  <time>2026-09-02T22:07:16Z</time>
  <course>0.0</course>
  <speed>0.0</speed>
  <fix>3d</fix>
</trkpt>
<trkpt lat="33.8103131" lon="-118.3938671">
  <ele>-0.126</ele>
  <time>2026-09-02T22:07:16Z</time>
  <course>186.62</course>
  <speed>0.022360679774997897</speed>
  <fix>3d</fix>
</trkpt>
<trkpt lat="33.810313" lon="-118.393867">
  <ele>-0.12</ele>
  <time>2026-09-02T22:07:16Z</time>
  <course>0.0</course>
  <speed>0.0</speed>
  <fix>3d</fix>
</trkpt>
<trkpt lat="33.8103131" lon="-118.3938671">
  <ele>-0.128</ele>
  <time>2026-09-02T22:07:16Z</time>
  <course>186.62</course>
  <speed>0.022360679774997897</speed>
  <fix>3d</fix>
</trkpt>
<trkpt lat="33.810313" lon="-118.393867">
  <ele>-0.12</ele>
  <time>2026-09-02T22:07:16Z</time>
  <course>0.0</course>
  <speed>0.0</speed>
  <fix>3d</fix>
</trkpt>
<trkpt lat="33.8103131" lon="-118.3938671">
  <ele>-0.129</ele>
  <time>2026-09-02T22:07:16Z</time>
  <course>186.62</course>
  <speed>0.022360679774997897</speed>
  <fix>3d</fix>
</trkpt>
<trkpt lat="33.810313" lon="-118.393867">
  <ele>-0.12</ele>
  <time>2026-09-02T22:07:16Z</time>
  <course>0.0</course>
  <speed>0.0</speed>
  <fix>3d</fix>
</trkpt>
<trkpt lat="33.8103131" lon="-118.3938671">
  <ele>-0.129</ele>
  <time>2026-09-02T22:07:16Z</time>
  <course>186.62</course>
  <speed>0.01414213562373095</speed>
  <fix>3d</fix>
</trkpt>
<trkpt lat="33.810313" lon="-118.393867">
  <ele>-0.12</ele>
  <time>2026-09-02T22:07:16Z</time>
  <course>0.0</course>
  <speed>0.0</speed>
  <fix>3d</fix>
</trkpt>
<trkpt lat="33.8103131" lon="-118.3938671">
  <ele>-0.129</ele>
  <time>2026-09-02T22:07:16Z</time>
  <course>186.61</course>
  <speed>0.01414213562373095</speed>
  <fix>3d</fix>
</trkpt>
<trkpt lat="33.810313" lon="-118.393867">
  <ele>-0.12</ele>
  <time>2026-09-02T22:07:16Z</time>
  <course>0.0</course>
  <speed>0.0</speed>
  <fix>3d</fix>
</trkpt>
<trkpt lat="33.8103131" lon="-118.3938671">
  <ele>-0.128</ele>
  <time>2026-09-02T22:07:16Z</time>
  <course>186.61</course>
  <speed>0.01414213562373095</speed>
  <fix>3d</fix>
</trkpt>
<trkpt lat="33.810313" lon="-118.393867">
  <ele>-0.12</ele>
  <time>2026-09-02T22:07:16Z</time>
  <course>0.0</course>
  <speed>0.0</speed>
  <fix>3d</fix>
</trkpt>
<trkpt lat="33.8103131" lon="-118.3938671">
  <ele>-0.127</ele>
  <time>2026-09-02T22:07:16Z</time>
  <course>186.61</course>
  <speed>0.01414213562373095</speed>
  <fix>3d</fix>
</trkpt>
<trkpt lat="33.810313" lon="-118.393867">
  <ele>-0.12</ele>
  <time>2026-09-02T22:07:16Z</time>
  <course>0.0</course>
  <speed>0.0</speed>
  <fix>3d</fix>
</trkpt>
<trkpt lat="33.8103131" lon="-118.3938671">
  <ele>-0.126</ele>
  <time>2026-09-02T22:07:16Z</time>
  <course>186.61</course>
  <speed>0.01414213562373095</speed>
  <fix>3d</fix>
</trkpt>
<trkpt lat="33.810313" lon="-118.393867">
  <ele>-0.12</ele>
  <time>2026-09-02T22:07:16Z</time>
  <course>0.0</course>
  <speed>0.0</speed>
  <fix>3d</fix>
</trkpt>
<trkpt lat="33.8103131" lon="-118.3938671">
  <ele>-0.126</ele>
  <time>2026-09-02T22:07:16Z</time>
  <course>186.6</course>
  <speed>0.01414213562373095</speed>
  <fix>3d</fix>
</trkpt>
<trkpt lat="33.810313" lon="-118.393867">
  <ele>-0.12</ele>
  <time>2026-09-02T22:07:16Z</time>
  <course>0.0</course>
  <speed>0.0</speed>
  <fix>3d</fix>
</trkpt>
<trkpt lat="33.8103131" lon="-118.3938671">
  <ele>-0.126</ele>
  <time>2026-09-02T22:07:16Z</time>
  <course>186.6</course>
  <speed>0.01414213562373095</speed>
  <fix>3d</fix>
</trkpt>
<trkpt lat="33.810313" lon="-118.393867">
  <ele>-0.12</ele>
  <time>2026-09-02T22:07:16Z</time>
  <course>0.0</course>
  <speed>0.0</speed>
  <fix>3d</fix>
</trkpt>
<trkpt lat="33.8103131" lon="-118.3938671">
  <ele>-0.127</ele>
  <time>2026-09-02T22:07:16Z</time>
  <course>186.6</course>
  <speed>0.01414213562373095</speed>
  <fix>3d</fix>
</trkpt>
<trkpt lat="33.810313" lon="-118.393867">
  <ele>-0.12</ele>
  <time>2026-09-02T22:07:16Z</time>
  <course>0.0</course>
  <speed>0.0</speed>
  <fix>3d</fix>
</trkpt>
<trkpt lat="33.8103131" lon="-118.3938671">
  <ele>-0.127</ele>
  <time>2026-09-02T22:07:16Z</time>
  <course>186.6</course>
  <speed>0.01414213562373095</speed>
  <fix>3d</fix>
</trkpt>
<trkpt lat="33.810313" lon="-118.393867">
  <ele>-0.12</ele>
  <time>2026-09-02T22:07:16Z</time>
  <course>0.0</course>
  <speed>0.0</speed>
  <fix>3d</fix>
</trkpt>
<trkpt lat="33.8103131" lon="-118.3938671">
  <ele>-0.127</ele>
  <time>2026-09-02T22:07:16Z</time>
  <course>186.59</course>
  <speed>0.01414213562373095</speed>
  <fix>3d</fix>
</trkpt>
<trkpt lat="33.810313" lon="-118.393867">
  <ele>-0.12</ele>
  <time>2026-09-02T22:07:16Z</time>
  <course>0.0</course>
  <speed>0.0</speed>
  <fix>3d</fix>
</trkpt>
<trkpt lat="33.8103131" lon="-118.3938671">
  <ele>-0.127</ele>
  <time>2026-09-02T22:07:16Z</time>
  <course>186.59</course>
  <speed>0.01414213562373095</speed>
  <fix>3d</fix>
</trkpt>
<trkpt lat="33.810313" lon="-118.393867">
  <ele>-0.12</ele>
  <time>2026-09-02T22:07:16Z</time>
  <course>0.0</course>
  <speed>0.0</speed>
  <fix>3d</fix>
</trkpt>
<trkpt lat="33.8103131" lon="-118.3938671">
  <ele>-0.127</ele>
  <time>2026-09-02T22:07:16Z</time>
  <course>186.59</course>
  <speed>0.01414213562373095</speed>
  <fix>3d</fix>
</trkpt>
<trkpt lat="33.810313" lon="-118.393867">
  <ele>-0.12</ele>
  <time>2026-09-02T22:07:16Z</time>
  <course>0.0</course>
  <speed>0.0</speed>
  <fix>3d</fix>
</trkpt>
<trkpt lat="33.8103131" lon="-118.3938671">
  <ele>-0.126</ele>
  <time>2026-09-02T22:07:16Z</time>
  <course>186.59</course>
  <speed>0.01414213562373095</speed>
  <fix>3d</fix>
</trkpt>
<trkpt lat="33.810313" lon="-118.393867">
  <ele>-0.12</ele>
  <time>2026-09-02T22:07:16Z</time>
  <course>0.0</course>
  <speed>0.0</speed>
  <fix>3d</fix>
</trkpt>
<trkpt lat="33.8103131" lon="-118.3938671">
  <ele>-0.125</ele>
  <time>2026-09-02T22:07:16Z</time>
  <course>186.58</course>
  <speed>0.01414213562373095</speed>
  <fix>3d</fix>
</trkpt>
<trkpt lat="33.810313" lon="-118.393867">
  <ele>-0.12</ele>
  <time>2026-09-02T22:07:16Z</time>
  <course>0.0</course>
  <speed>0.0</speed>
  <fix>3d</fix>
</trkpt>
<trkpt lat="33.8103131" lon="-118.3938671">
  <ele>-0.125</ele>
  <time>2026-09-02T22:07:16Z</time>
  <course>186.58</course>
  <speed>0.01414213562373095</speed>
  <fix>3d</fix>
</trkpt>
<trkpt lat="33.810313" lon="-118.393867">
  <ele>-0.12</ele>
  <time>2026-09-02T22:07:16Z</time>
  <course>0.0</course>
  <speed>0.0</speed>
  <fix>3d</fix>
</trkpt>
<trkpt lat="33.8103131" lon="-118.3938671">
  <ele>-0.125</ele>
  <time>2026-09-02T22:07:16Z</time>
  <course>186.58</course>
  <speed>0.01414213562373095</speed>
  <fix>3d</fix>
</trkpt>
<trkpt lat="33.810313" lon="-118.393867">
  <ele>-0.12</ele>
  <time>2026-09-02T22:07:16Z</time>
  <course>0.0</course>
  <speed>0.0</speed>
  <fix>3d</fix>
</trkpt>
<trkpt lat="33.8103131" lon="-118.3938671">
  <ele>-0.125</ele>
  <time>2026-09-02T22:07:16Z</time>
  <course>186.58</course>
  <speed>0.01414213562373095</speed>
  <fix>3d</fix>
</trkpt>
<trkpt lat="33.810313" lon="-118.393867">
  <ele>-0.12</ele>
  <time>2026-09-02T22:07:16Z</time>
  <course>0.0</course>
  <speed>0.0</speed>
  <fix>3d</fix>
</trkpt>
<trkpt lat="33.8103131" lon="-118.3938671">
  <ele>-0.126</ele>
  <time>2026-09-02T22:07:16Z</time>
  <course>186.57</course>
  <speed>0.01414213562373095</speed>
  <fix>3d</fix>
</trkpt>
<trkpt lat="33.810313" lon="-118.393867">
  <ele>-0.12</ele>
  <time>2026-09-02T22:07:16Z</time>
  <course>0.0</course>
  <speed>0.0</speed>
  <fix>3d</fix>
</trkpt>
<trkpt lat="33.8103131" lon="-118.3938671">
  <ele>-0.128</ele>
  <time>2026-09-02T22:07:16Z</time>
  <course>186.57</course>
  <speed>0.01414213562373095</speed>
  <fix>3d</fix>
</trkpt>
<trkpt lat="33.810313" lon="-118.393867">
  <ele>-0.12</ele>
  <time>2026-09-02T22:07:16Z</time>
  <course>0.0</course>
  <speed>0.0</speed>
  <fix>3d</fix>
</trkpt>
<trkpt lat="33.8103131" lon="-118.3938671">
  <ele>-0.13</ele>
  <time>2026-09-02T22:07:16Z</time>
  <course>186.57</course>
  <speed>0.01414213562373095</speed>
  <fix>3d</fix>
</trkpt>
<trkpt lat="33.810313" lon="-118.393867">
  <ele>-0.12</ele>
  <time>2026-09-02T22:07:16Z</time>
  <course>0.0</course>
  <speed>0.0</speed>
  <fix>3d</fix>
</trkpt>
<trkpt lat="33.8103131" lon="-118.3938671">
  <ele>-0.131</ele>
  <time>2026-09-02T22:07:16Z</time>
  <course>186.57</course>
  <speed>0.01414213562373095</speed>
  <fix>3d</fix>
</trkpt>
<trkpt lat="33.810313" lon="-118.393867">
  <ele>-0.12</ele>
  <time>2026-09-02T22:07:16Z</time>
  <course>0.0</course>
  <speed>0.0</speed>
  <fix>3d</fix>
</trkpt>
<trkpt lat="33.8103131" lon="-118.3938671">
  <ele>-0.132</ele>
  <time>2026-09-02T22:07:16Z</time>
  <course>186.56</course>
  <speed>0.01414213562373095</speed>
  <fix>3d</fix>
</trkpt>
<trkpt lat="33.810313" lon="-118.393867">
  <ele>-0.12</ele>
  <time>2026-09-02T22:07:16Z</time>
  <course>0.0</course>
  <speed>0.0</speed>
  <fix>3d</fix>
</trkpt>
<trkpt lat="33.8103131" lon="-118.3938671">
  <ele>-0.132</ele>
  <time>2026-09-02T22:07:16Z</time>
  <course>186.56</course>
  <speed>0.01414213562373095</speed>
  <fix>3d</fix>
</trkpt>
<trkpt lat="33.810313" lon="-118.393867">
  <ele>-0.12</ele>
  <time>2026-09-02T22:07:16Z</time>
  <course>0.0</course>
  <speed>0.0</speed>
  <fix>3d</fix>
</trkpt>
<trkpt lat="33.8103131" lon="-118.3938671">
  <ele>-0.13</ele>
  <time>2026-09-02T22:07:16Z</time>
  <course>186.56</course>
  <speed>0.022360679774997897</speed>
  <fix>3d</fix>
</trkpt>
<trkpt lat="33.810313" lon="-118.393867">
  <ele>-0.12</ele>
  <time>2026-09-02T22:07:16Z</time>
  <course>0.0</course>
  <speed>0.0</speed>
  <fix>3d</fix>
</trkpt>
<trkpt lat="33.8103131" lon="-118.3938671">
  <ele>-0.129</ele>
  <time>2026-09-02T22:07:16Z</time>
  <course>186.55</course>
  <speed>0.022360679774997897</speed>
  <fix>3d</fix>
</trkpt>
<trkpt lat="33.810313" lon="-118.393867">
  <ele>-0.12</ele>
  <time>2026-09-02T22:07:16Z</time>
  <course>0.0</course>
  <speed>0.0</speed>
  <fix>3d</fix>
</trkpt>
<trkpt lat="33.8103131" lon="-118.3938671">
  <ele>-0.129</ele>
  <time>2026-09-02T22:07:16Z</time>
  <course>186.55</course>
  <speed>0.022360679774997897</speed>
  <fix>3d</fix>
</trkpt>
<trkpt lat="33.810313" lon="-118.393867">
  <ele>-0.12</ele>
  <time>2026-09-02T22:07:16Z</time>
  <course>0.0</course>
  <speed>0.0</speed>
  <fix>3d</fix>
</trkpt>
<trkpt lat="33.8103131" lon="-118.3938671">
  <ele>-0.13</ele>
  <time>2026-09-02T22:07:16Z</time>
  <course>186.55</course>
  <speed>0.022360679774997897</speed>
  <fix>3d</fix>
</trkpt>
<trkpt lat="33.810313" lon="-118.393867">
  <ele>-0.12</ele>
  <time>2026-09-02T22:07:16Z</time>
  <course>0.0</course>
  <speed>0.0</speed>
  <fix>3d</fix>
</trkpt>
<trkpt lat="33.8103131" lon="-118.3938671">
  <ele>-0.132</ele>
  <time>2026-09-02T22:07:16Z</time>
  <course>186.55</course>
  <speed>0.022360679774997897</speed>
  <fix>3d</fix>
</trkpt>
<trkpt lat="33.810313" lon="-118.393867">
  <ele>-0.12</ele>
  <time>2026-09-02T22:07:16Z</time>
  <course>0.0</course>
  <speed>0.0</speed>
  <fix>3d</fix>
</trkpt>
<trkpt lat="33.8103131" lon="-118.3938671">
  <ele>-0.133</ele>
  <time>2026-09-02T22:07:16Z</time>
  <course>186.55</course>
  <speed>0.022360679774997897</speed>
  <fix>3d</fix>
</trkpt>
<trkpt lat="33.810313" lon="-118.393867">
  <ele>-0.12</ele>
  <time>2026-09-02T22:07:16Z</time>
  <course>0.0</course>
  <speed>0.0</speed>
  <fix>3d</fix>
</trkpt>
<trkpt lat="33.8103131" lon="-118.3938671">
  <ele>-0.133</ele>
  <time>2026-09-02T22:07:16Z</time>
  <course>186.54</course>
  <speed>0.022360679774997897</speed>
  <fix>3d</fix>
</trkpt>
<trkpt lat="33.810313" lon="-118.393867">
  <ele>-0.12</ele>
  <time>2026-09-02T22:07:16Z</time>
  <course>0.0</course>
  <speed>0.0</speed>
  <fix>3d</fix>
</trkpt>
<trkpt lat="33.8103131" lon="-118.3938671">
  <ele>-0.132</ele>
  <time>2026-09-02T22:07:16Z</time>
  <course>186.54</course>
  <speed>0.022360679774997897</speed>
  <fix>3d</fix>
</trkpt>
<trkpt lat="33.810313" lon="-118.393867">
  <ele>-0.12</ele>
  <time>2026-09-02T22:07:16Z</time>
  <course>0.0</course>
  <speed>0.0</speed>
  <fix>3d</fix>
</trkpt>
<trkpt lat="33.8103131" lon="-118.3938671">
  <ele>-0.131</ele>
  <time>2026-09-02T22:07:16Z</time>
  <course>186.54</course>
  <speed>0.022360679774997897</speed>
  <fix>3d</fix>
</trkpt>
<trkpt lat="33.810313" lon="-118.393867">
  <ele>-0.12</ele>
  <time>2026-09-02T22:07:16Z</time>
  <course>0.0</course>
  <speed>0.0</speed>
  <fix>3d</fix>
</trkpt>
<trkpt lat="33.8103131" lon="-118.3938671">
  <ele>-0.128</ele>
  <time>2026-09-02T22:07:16Z</time>
  <course>186.53</course>
  <speed>0.022360679774997897</speed>
  <fix>3d</fix>
</trkpt>
<trkpt lat="33.810313" lon="-118.393867">
  <ele>-0.12</ele>
  <time>2026-09-02T22:07:16Z</time>
  <course>0.0</course>
  <speed>0.0</speed>
  <fix>3d</fix>
</trkpt>
<trkpt lat="33.8103131" lon="-118.3938671">
  <ele>-0.125</ele>
  <time>2026-09-02T22:07:16Z</time>
  <course>186.53</course>
  <speed>0.022360679774997897</speed>
  <fix>3d</fix>
</trkpt>
<trkpt lat="33.810313" lon="-118.393867">
  <ele>-0.12</ele>
  <time>2026-09-02T22:07:16Z</time>
  <course>0.0</course>
  <speed>0.0</speed>
  <fix>3d</fix>
</trkpt>
<trkpt lat="33.8103131" lon="-118.3938671">
  <ele>-0.124</ele>
  <time>2026-09-02T22:07:16Z</time>
  <course>186.53</course>
  <speed>0.022360679774997897</speed>
  <fix>3d</fix>
</trkpt>
<trkpt lat="33.810313" lon="-118.393867">
  <ele>-0.12</ele>
  <time>2026-09-02T22:07:16Z</time>
  <course>0.0</course>
  <speed>0.0</speed>
  <fix>3d</fix>
</trkpt>
<trkpt lat="33.8103131" lon="-118.3938671">
  <ele>-0.125</ele>
  <time>2026-09-02T22:07:16Z</time>
  <course>186.53</course>
  <speed>0.022360679774997897</speed>
  <fix>3d</fix>
</trkpt>
<trkpt lat="33.810313" lon="-118.393867">
  <ele>-0.12</ele>
  <time>2026-09-02T22:07:16Z</time>
  <course>0.0</course>
  <speed>0.0</speed>
  <fix>3d</fix>
</trkpt>
<trkpt lat="33.8103131" lon="-118.3938671">
  <ele>-0.126</ele>
  <time>2026-09-02T22:07:16Z</time>
  <course>186.52</course>
  <speed>0.022360679774997897</speed>
  <fix>3d</fix>
</trkpt>
<trkpt lat="33.810313" lon="-118.393867">
  <ele>-0.12</ele>
  <time>2026-09-02T22:07:16Z</time>
  <course>0.0</course>
  <speed>0.0</speed>
  <fix>3d</fix>
</trkpt>
<trkpt lat="33.8103131" lon="-118.3938671">
  <ele>-0.126</ele>
  <time>2026-09-02T22:07:16Z</time>
  <course>186.52</course>
  <speed>0.022360679774997897</speed>
  <fix>3d</fix>
</trkpt>
<trkpt lat="33.810313" lon="-118.393867">
  <ele>-0.12</ele>
  <time>2026-09-02T22:07:16Z</time>
  <course>0.0</course>
  <speed>0.0</speed>
  <fix>3d</fix>
</trkpt>
<trkpt lat="33.8103131" lon="-118.3938671">
  <ele>-0.127</ele>
  <time>2026-09-02T22:07:16Z</time>
  <course>186.52</course>
  <speed>0.022360679774997897</speed>
  <fix>3d</fix>
</trkpt>
<trkpt lat="33.810313" lon="-118.393867">
  <ele>-0.12</ele>
  <time>2026-09-02T22:07:16Z</time>
  <course>0.0</course>
  <speed>0.0</speed>
  <fix>3d</fix>
</trkpt>
<trkpt lat="33.8103131" lon="-118.3938671">
  <ele>-0.127</ele>
  <time>2026-09-02T22:07:16Z</time>
  <course>186.52</course>
  <speed>0.022360679774997897</speed>
  <fix>3d</fix>
</trkpt>
<trkpt lat="33.810313" lon="-118.393867">
  <ele>-0.12</ele>
  <time>2026-09-02T22:07:16Z</time>
  <course>0.0</course>
  <speed>0.0</speed>
  <fix>3d</fix>
</trkpt>
<trkpt lat="33.8103131" lon="-118.3938671">
  <ele>-0.126</ele>
  <time>2026-09-02T22:07:16Z</time>
  <course>186.52</course>
  <speed>0.022360679774997897</speed>
  <fix>3d</fix>
</trkpt>
<trkpt lat="33.810313" lon="-118.393867">
  <ele>-0.12</ele>
  <time>2026-09-02T22:07:16Z</time>
  <course>0.0</course>
  <speed>0.0</speed>
  <fix>3d</fix>
</trkpt>
<trkpt lat="33.8103131" lon="-118.3938671">
  <ele>-0.125</ele>
  <time>2026-09-02T22:07:16Z</time>
  <course>186.51</course>
  <speed>0.022360679774997897</speed>
  <fix>3d</fix>
</trkpt>
<trkpt lat="33.810313" lon="-118.393867">
  <ele>-0.12</ele>
  <time>2026-09-02T22:07:16Z</time>
  <course>0.0</course>
  <speed>0.0</speed>
  <fix>3d</fix>
</trkpt>
<trkpt lat="33.8103131" lon="-118.3938671">
  <ele>-0.125</ele>
  <time>2026-09-02T22:07:16Z</time>
  <course>186.51</course>
  <speed>0.022360679774997897</speed>
  <fix>3d</fix>
</trkpt>
<trkpt lat="33.810313" lon="-118.393867">
  <ele>-0.12</ele>
  <time>2026-09-02T22:07:16Z</time>
  <course>0.0</course>
  <speed>0.0</speed>
  <fix>3d</fix>
</trkpt>
<trkpt lat="33.8103131" lon="-118.3938671">
  <ele>-0.125</ele>
  <time>2026-09-02T22:07:16Z</time>
  <course>186.51</course>
  <speed>0.022360679774997897</speed>
  <fix>3d</fix>
</trkpt>
<trkpt lat="33.810313" lon="-118.393867">
  <ele>-0.12</ele>
  <time>2026-09-02T22:07:16Z</time>
  <course>0.0</course>
  <speed>0.0</speed>
  <fix>3d</fix>
</trkpt>
<trkpt lat="33.8103131" lon="-118.3938671">
  <ele>-0.125</ele>
  <time>2026-09-02T22:07:16Z</time>
  <course>186.51</course>
  <speed>0.022360679774997897</speed>
  <fix>3d</fix>
</trkpt>
<trkpt lat="33.810313" lon="-118.393867">
  <ele>-0.12</ele>
  <time>2026-09-02T22:07:16Z</time>
  <course>0.0</course>
  <speed>0.0</speed>
  <fix>3d</fix>
</trkpt>
<trkpt lat="33.8103132" lon="-118.3938671">
  <ele>-0.125</ele>
  <time>2026-09-02T22:07:16Z</time>
  <course>186.5</course>
  <speed>0.0282842712474619</speed>
  <fix>3d</fix>
</trkpt>
<trkpt lat="33.810313" lon="-118.393867">
  <ele>-0.12</ele>
  <time>2026-09-02T22:07:16Z</time>
  <course>0.0</course>
  <speed>0.0</speed>
  <fix>3d</fix>
</trkpt>
<trkpt lat="33.8103132" lon="-118.3938671">
  <ele>-0.124</ele>
  <time>2026-09-02T22:07:16Z</time>
  <course>186.5</course>
  <speed>0.0282842712474619</speed>
  <fix>3d</fix>
</trkpt>
<trkpt lat="33.810313" lon="-118.393867">
  <ele>-0.12</ele>
  <time>2026-09-02T22:07:16Z</time>
  <course>0.0</course>
  <speed>0.0</speed>
  <fix>3d</fix>
</trkpt>
<trkpt lat="33.8103132" lon="-118.3938671">
  <ele>-0.124</ele>
  <time>2026-09-02T22:07:16Z</time>
  <course>186.5</course>
  <speed>0.0282842712474619</speed>
  <fix>3d</fix>
</trkpt>
<trkpt lat="33.810313" lon="-118.393867">
  <ele>-0.12</ele>
  <time>2026-09-02T22:07:16Z</time>
  <course>0.0</course>
  <speed>0.0</speed>
  <fix>3d</fix>
</trkpt>
<trkpt lat="33.8103132" lon="-118.3938671">
  <ele>-0.126</ele>
  <time>2026-09-02T22:07:16Z</time>
  <course>186.5</course>
  <speed>0.0282842712474619</speed>
  <fix>3d</fix>
</trkpt>
<trkpt lat="33.810313" lon="-118.393867">
  <ele>-0.12</ele>
  <time>2026-09-02T22:07:16Z</time>
  <course>0.0</course>
  <speed>0.0</speed>
  <fix>3d</fix>
</trkpt>
<trkpt lat="33.8103132" lon="-118.3938671">
  <ele>-0.126</ele>
  <time>2026-09-02T22:07:16Z</time>
  <course>186.49</course>
  <speed>0.0282842712474619</speed>
  <fix>3d</fix>
</trkpt>
<trkpt lat="33.810313" lon="-118.393867">
  <ele>-0.12</ele>
  <time>2026-09-02T22:07:16Z</time>
  <course>0.0</course>
  <speed>0.0</speed>
  <fix>3d</fix>
</trkpt>
<trkpt lat="33.8103132" lon="-118.3938671">
  <ele>-0.126</ele>
  <time>2026-09-02T22:07:16Z</time>
  <course>186.49</course>
  <speed>0.0282842712474619</speed>
  <fix>3d</fix>
</trkpt>
<trkpt lat="33.810313" lon="-118.393867">
  <ele>-0.12</ele>
  <time>2026-09-02T22:07:16Z</time>
  <course>0.0</course>
  <speed>0.0</speed>
  <fix>3d</fix>
</trkpt>
<trkpt lat="33.8103132" lon="-118.3938671">
  <ele>-0.125</ele>
  <time>2026-09-02T22:07:16Z</time>
  <course>186.49</course>
  <speed>0.0282842712474619</speed>
  <fix>3d</fix>
</trkpt>
<trkpt lat="33.810313" lon="-118.393867">
  <ele>-0.12</ele>
  <time>2026-09-02T22:07:16Z</time>
  <course>0.0</course>
  <speed>0.0</speed>
  <fix>3d</fix>
</trkpt>
<trkpt lat="33.8103132" lon="-118.3938671">
  <ele>-0.124</ele>
  <time>2026-09-02T22:07:16Z</time>
  <course>186.49</course>
  <speed>0.0282842712474619</speed>
  <fix>3d</fix>
</trkpt>
<trkpt lat="33.810313" lon="-118.393867">
  <ele>-0.12</ele>
  <time>2026-09-02T22:07:16Z</time>
  <course>0.0</course>
  <speed>0.0</speed>
  <fix>3d</fix>
</trkpt>
<trkpt lat="33.8103132" lon="-118.3938671">
  <ele>-0.123</ele>
  <time>2026-09-02T22:07:16Z</time>
  <course>186.48</course>
  <speed>0.0282842712474619</speed>
  <fix>3d</fix>
</trkpt>
<trkpt lat="33.810313" lon="-118.393867">
  <ele>-0.12</ele>
  <time>2026-09-02T22:07:16Z</time>
  <course>0.0</course>
  <speed>0.0</speed>
  <fix>3d</fix>
</trkpt>
<trkpt lat="33.8103132" lon="-118.3938671">
  <ele>-0.121</ele>
  <time>2026-09-02T22:07:16Z</time>
  <course>186.48</course>
  <speed>0.0282842712474619</speed>
  <fix>3d</fix>
</trkpt>
<trkpt lat="33.810313" lon="-118.393867">
  <ele>-0.12</ele>
  <time>2026-09-02T22:07:16Z</time>
  <course>0.0</course>
  <speed>0.0</speed>
  <fix>3d</fix>
</trkpt>
<trkpt lat="33.8103132" lon="-118.3938672">
  <ele>-0.12</ele>
  <time>2026-09-02T22:07:16Z</time>
  <course>186.48</course>
  <speed>0.0282842712474619</speed>
  <fix>3d</fix>
</trkpt>
<trkpt lat="33.810313" lon="-118.393867">
  <ele>-0.12</ele>
  <time>2026-09-02T22:07:16Z</time>
  <course>0.0</course>
  <speed>0.0</speed>
  <fix>3d</fix>
</trkpt>
<trkpt lat="33.8103132" lon="-118.3938672">
  <ele>-0.12</ele>
  <time>2026-09-02T22:07:16Z</time>
  <course>186.48</course>
  <speed>0.0282842712474619</speed>
  <fix>3d</fix>
</trkpt>
<trkpt lat="33.810313" lon="-118.393867">
  <ele>-0.12</ele>
  <time>2026-09-02T22:07:16Z</time>
  <course>0.0</course>
  <speed>0.0</speed>
  <fix>3d</fix>
</trkpt>
<trkpt lat="33.8103132" lon="-118.3938672">
  <ele>-0.12</ele>
  <time>2026-09-02T22:07:16Z</time>
  <course>186.48</course>
  <speed>0.0282842712474619</speed>
  <fix>3d</fix>
</trkpt>
<trkpt lat="33.810313" lon="-118.393867">
  <ele>-0.12</ele>
  <time>2026-09-02T22:07:16Z</time>
  <course>0.0</course>
  <speed>0.0</speed>
  <fix>3d</fix>
</trkpt>
<trkpt lat="33.8103132" lon="-118.3938672">
  <ele>-0.12</ele>
  <time>2026-09-02T22:07:16Z</time>
  <course>186.47</course>
  <speed>0.0282842712474619</speed>
  <fix>3d</fix>
</trkpt>
<trkpt lat="33.810313" lon="-118.393867">
  <ele>-0.12</ele>
  <time>2026-09-02T22:07:16Z</time>
  <course>0.0</course>
  <speed>0.0</speed>
  <fix>3d</fix>
</trkpt>
<trkpt lat="33.8103132" lon="-118.3938672">
  <ele>-0.121</ele>
  <time>2026-09-02T22:07:16Z</time>
  <course>186.47</course>
  <speed>0.0282842712474619</speed>
  <fix>3d</fix>
</trkpt>
<trkpt lat="33.810313" lon="-118.393867">
  <ele>-0.12</ele>
  <time>2026-09-02T22:07:16Z</time>
  <course>0.0</course>
  <speed>0.0</speed>
  <fix>3d</fix>
</trkpt>
<trkpt lat="33.8103132" lon="-118.3938672">
  <ele>-0.122</ele>
  <time>2026-09-02T22:07:16Z</time>
  <course>186.47</course>
  <speed>0.0282842712474619</speed>
  <fix>3d</fix>
</trkpt>
<trkpt lat="33.810313" lon="-118.393867">
  <ele>-0.12</ele>
  <time>2026-09-02T22:07:16Z</time>
  <course>0.0</course>
  <speed>0.0</speed>
  <fix>3d</fix>
</trkpt>
<trkpt lat="33.8103132" lon="-118.3938672">
  <ele>-0.122</ele>
  <time>2026-09-02T22:07:16Z</time>
  <course>186.47</course>
  <speed>0.0282842712474619</speed>
  <fix>3d</fix>
</trkpt>
<trkpt lat="33.810313" lon="-118.393867">
  <ele>-0.12</ele>
  <time>2026-09-02T22:07:16Z</time>
  <course>0.0</course>
  <speed>0.0</speed>
  <fix>3d</fix>
</trkpt>
<trkpt lat="33.8103132" lon="-118.3938672">
  <ele>-0.122</ele>
  <time>2026-09-02T22:07:16Z</time>
  <course>186.46</course>
  <speed>0.0282842712474619</speed>
  <fix>3d</fix>
</trkpt>
<trkpt lat="33.810313" lon="-118.393867">
  <ele>-0.12</ele>
  <time>2026-09-02T22:07:16Z</time>
  <course>0.0</course>
  <speed>0.0</speed>
  <fix>3d</fix>
</trkpt>
<trkpt lat="33.8103132" lon="-118.3938672">
  <ele>-0.122</ele>
  <time>2026-09-02T22:07:16Z</time>
  <course>186.46</course>
  <speed>0.0282842712474619</speed>
  <fix>3d</fix>
</trkpt>
<trkpt lat="33.810313" lon="-118.393867">
  <ele>-0.12</ele>
  <time>2026-09-02T22:07:16Z</time>
  <course>0.0</course>
  <speed>0.0</speed>
  <fix>3d</fix>
</trkpt>
<trkpt lat="33.8103132" lon="-118.3938672">
  <ele>-0.121</ele>
  <time>2026-09-02T22:07:16Z</time>
  <course>186.46</course>
  <speed>0.0282842712474619</speed>
  <fix>3d</fix>
</trkpt>
<trkpt lat="33.810313" lon="-118.393867">
  <ele>-0.12</ele>
  <time>2026-09-02T22:07:16Z</time>
  <course>0.0</course>
  <speed>0.0</speed>
  <fix>3d</fix>
</trkpt>
<trkpt lat="33.8103132" lon="-118.3938672">
  <ele>-0.121</ele>
  <time>2026-09-02T22:07:16Z</time>
  <course>186.46</course>
  <speed>0.0282842712474619</speed>
  <fix>3d</fix>
</trkpt>
<trkpt lat="33.810313" lon="-118.393867">
  <ele>-0.12</ele>
  <time>2026-09-02T22:07:16Z</time>
  <course>0.0</course>
  <speed>0.0</speed>
  <fix>3d</fix>
</trkpt>
<trkpt lat="33.8103132" lon="-118.3938672">
  <ele>-0.122</ele>
  <time>2026-09-02T22:07:16Z</time>
  <course>186.46</course>
  <speed>0.0282842712474619</speed>
  <fix>3d</fix>
</trkpt>
<trkpt lat="33.810313" lon="-118.393867">
  <ele>-0.12</ele>
  <time>2026-09-02T22:07:16Z</time>
  <course>0.0</course>
  <speed>0.0</speed>
  <fix>3d</fix>
</trkpt>
<trkpt lat="33.8103132" lon="-118.3938672">
  <ele>-0.124</ele>
  <time>2026-09-02T22:07:16Z</time>
  <course>186.45</course>
  <speed>0.0282842712474619</speed>
  <fix>3d</fix>
</trkpt>
<trkpt lat="33.810313" lon="-118.393867">
  <ele>-0.12</ele>
  <time>2026-09-02T22:07:16Z</time>
  <course>0.0</course>
  <speed>0.0</speed>
  <fix>3d</fix>
</trkpt>
<trkpt lat="33.8103132" lon="-118.3938672">
  <ele>-0.127</ele>
  <time>2026-09-02T22:07:16Z</time>
  <course>186.45</course>
  <speed>0.0282842712474619</speed>
  <fix>3d</fix>
</trkpt>
<trkpt lat="33.810313" lon="-118.393867">
  <ele>-0.12</ele>
  <time>2026-09-02T22:07:16Z</time>
  <course>0.0</course>
  <speed>0.0</speed>
  <fix>3d</fix>
</trkpt>
<trkpt lat="33.8103132" lon="-118.3938672">
  <ele>-0.13</ele>
  <time>2026-09-02T22:07:16Z</time>
  <course>186.45</course>
  <speed>0.0282842712474619</speed>
  <fix>3d</fix>
</trkpt>
<trkpt lat="33.810313" lon="-118.393867">
  <ele>-0.12</ele>
  <time>2026-09-02T22:07:16Z</time>
  <course>0.0</course>
  <speed>0.0</speed>
  <fix>3d</fix>
</trkpt>
<trkpt lat="33.8103132" lon="-118.3938672">
  <ele>-0.132</ele>
  <time>2026-09-02T22:07:16Z</time>
  <course>186.45</course>
  <speed>0.0282842712474619</speed>
  <fix>3d</fix>
</trkpt>
<trkpt lat="33.810313" lon="-118.393867">
  <ele>-0.12</ele>
  <time>2026-09-02T22:07:16Z</time>
  <course>0.0</course>
  <speed>0.0</speed>
  <fix>3d</fix>
</trkpt>
<trkpt lat="33.8103132" lon="-118.3938672">
  <ele>-0.133</ele>
  <time>2026-09-02T22:07:16Z</time>
  <course>186.45</course>
  <speed>0.0282842712474619</speed>
  <fix>3d</fix>
</trkpt>
<trkpt lat="33.810313" lon="-118.393867">
  <ele>-0.12</ele>
  <time>2026-09-02T22:07:16Z</time>
  <course>0.0</course>
  <speed>0.0</speed>
  <fix>3d</fix>
</trkpt>
<trkpt lat="33.8103132" lon="-118.3938672">
  <ele>-0.133</ele>
  <time>2026-09-02T22:07:16Z</time>
  <course>186.44</course>
  <speed>0.0282842712474619</speed>
  <fix>3d</fix>
</trkpt>
<trkpt lat="33.810313" lon="-118.393867">
  <ele>-0.12</ele>
  <time>2026-09-02T22:07:16Z</time>
  <course>0.0</course>
  <speed>0.0</speed>
  <fix>3d</fix>
</trkpt>
<trkpt lat="33.8103132" lon="-118.3938672">
  <ele>-0.133</ele>
  <time>2026-09-02T22:07:16Z</time>
  <course>186.44</course>
  <speed>0.0282842712474619</speed>
  <fix>3d</fix>
</trkpt>
<trkpt lat="33.810313" lon="-118.393867">
  <ele>-0.12</ele>
  <time>2026-09-02T22:07:16Z</time>
  <course>0.0</course>
  <speed>0.0</speed>
  <fix>3d</fix>
</trkpt>
<trkpt lat="33.8103132" lon="-118.3938672">
  <ele>-0.133</ele>
  <time>2026-09-02T22:07:16Z</time>
  <course>186.44</course>
  <speed>0.0282842712474619</speed>
  <fix>3d</fix>
</trkpt>
<trkpt lat="33.810313" lon="-118.393867">
  <ele>-0.12</ele>
  <time>2026-09-02T22:07:16Z</time>
  <course>0.0</course>
  <speed>0.0</speed>
  <fix>3d</fix>
</trkpt>
<trkpt lat="33.8103132" lon="-118.3938672">
  <ele>-0.133</ele>
  <time>2026-09-02T22:07:16Z</time>
  <course>186.44</course>
  <speed>0.0282842712474619</speed>
  <fix>3d</fix>
</trkpt>
<trkpt lat="33.810313" lon="-118.393867">
  <ele>-0.12</ele>
  <time>2026-09-02T22:07:16Z</time>
  <course>0.0</course>
  <speed>0.0</speed>
  <fix>3d</fix>
</trkpt>
<trkpt lat="33.8103132" lon="-118.3938672">
  <ele>-0.134</ele>
  <time>2026-09-02T22:07:16Z</time>
  <course>186.44</course>
  <speed>0.0282842712474619</speed>
  <fix>3d</fix>
</trkpt>
<trkpt lat="33.810313" lon="-118.393867">
  <ele>-0.12</ele>
  <time>2026-09-02T22:07:16Z</time>
  <course>0.0</course>
  <speed>0.0</speed>
  <fix>3d</fix>
</trkpt>
<trkpt lat="33.8103132" lon="-118.3938672">
  <ele>-0.134</ele>
  <time>2026-09-02T22:07:16Z</time>
  <course>186.43</course>
  <speed>0.0282842712474619</speed>
  <fix>3d</fix>
</trkpt>
<trkpt lat="33.810313" lon="-118.393867">
  <ele>-0.12</ele>
  <time>2026-09-02T22:07:16Z</time>
  <course>0.0</course>
  <speed>0.0</speed>
  <fix>3d</fix>
</trkpt>
<trkpt lat="33.8103132" lon="-118.3938672">
  <ele>-0.134</ele>
  <time>2026-09-02T22:07:16Z</time>
  <course>186.43</course>
  <speed>0.0282842712474619</speed>
  <fix>3d</fix>
</trkpt>
<trkpt lat="33.810313" lon="-118.393867">
  <ele>-0.12</ele>
  <time>2026-09-02T22:07:16Z</time>
  <course>0.0</course>
  <speed>0.0</speed>
  <fix>3d</fix>
</trkpt>
<trkpt lat="33.8103132" lon="-118.3938672">
  <ele>-0.134</ele>
  <time>2026-09-02T22:07:16Z</time>
  <course>186.43</course>
  <speed>0.0282842712474619</speed>
  <fix>3d</fix>
</trkpt>
<trkpt lat="33.810313" lon="-118.393867">
  <ele>-0.12</ele>
  <time>2026-09-02T22:07:16Z</time>
  <course>0.0</course>
  <speed>0.0</speed>
  <fix>3d</fix>
</trkpt>
<trkpt lat="33.8103132" lon="-118.3938672">
  <ele>-0.133</ele>
  <time>2026-09-02T22:07:16Z</time>
  <course>186.43</course>
  <speed>0.0282842712474619</speed>
  <fix>3d</fix>
</trkpt>
<trkpt lat="33.810313" lon="-118.393867">
  <ele>-0.12</ele>
  <time>2026-09-02T22:07:16Z</time>
  <course>0.0</course>
  <speed>0.0</speed>
  <fix>3d</fix>
</trkpt>
<trkpt lat="33.8103132" lon="-118.3938672">
  <ele>-0.132</ele>
  <time>2026-09-02T22:07:16Z</time>
  <course>186.43</course>
  <speed>0.0282842712474619</speed>
  <fix>3d</fix>
</trkpt>
<trkpt lat="33.810313" lon="-118.393867">
  <ele>-0.12</ele>
  <time>2026-09-02T22:07:16Z</time>
  <course>0.0</course>
  <speed>0.0</speed>
  <fix>3d</fix>
</trkpt>
<trkpt lat="33.8103132" lon="-118.3938672">
  <ele>-0.13</ele>
  <time>2026-09-02T22:07:16Z</time>
  <course>186.42</course>
  <speed>0.0282842712474619</speed>
  <fix>3d</fix>
</trkpt>
<trkpt lat="33.810313" lon="-118.393867">
  <ele>-0.12</ele>
  <time>2026-09-02T22:07:16Z</time>
  <course>0.0</course>
  <speed>0.0</speed>
  <fix>3d</fix>
</trkpt>
<trkpt lat="33.8103132" lon="-118.3938672">
  <ele>-0.126</ele>
  <time>2026-09-02T22:07:16Z</time>
  <course>186.42</course>
  <speed>0.0282842712474619</speed>
  <fix>3d</fix>
</trkpt>
<trkpt lat="33.810313" lon="-118.393867">
  <ele>-0.12</ele>
  <time>2026-09-02T22:07:16Z</time>
  <course>0.0</course>
  <speed>0.0</speed>
  <fix>3d</fix>
</trkpt>
<trkpt lat="33.8103132" lon="-118.3938672">
  <ele>-0.123</ele>
  <time>2026-09-02T22:07:16Z</time>
  <course>186.42</course>
  <speed>0.0282842712474619</speed>
  <fix>3d</fix>
</trkpt>
<trkpt lat="33.810313" lon="-118.393867">
  <ele>-0.12</ele>
  <time>2026-09-02T22:07:16Z</time>
  <course>0.0</course>
  <speed>0.0</speed>
  <fix>3d</fix>
</trkpt>
<trkpt lat="33.8103132" lon="-118.3938672">
  <ele>-0.121</ele>
  <time>2026-09-02T22:07:16Z</time>
  <course>186.42</course>
  <speed>0.0282842712474619</speed>
  <fix>3d</fix>
</trkpt>
<trkpt lat="33.810313" lon="-118.393867">
  <ele>-0.12</ele>
  <time>2026-09-02T22:07:16Z</time>
  <course>0.0</course>
  <speed>0.0</speed>
  <fix>3d</fix>
</trkpt>
<trkpt lat="33.8103132" lon="-118.3938672">
  <ele>-0.12</ele>
  <time>2026-09-02T22:07:16Z</time>
  <course>186.42</course>
  <speed>0.0282842712474619</speed>
  <fix>3d</fix>
</trkpt>
<trkpt lat="33.810313" lon="-118.393867">
  <ele>-0.12</ele>
  <time>2026-09-02T22:07:16Z</time>
  <course>0.0</course>
  <speed>0.0</speed>
  <fix>3d</fix>
</trkpt>
<trkpt lat="33.8103132" lon="-118.3938672">
  <ele>-0.12</ele>
  <time>2026-09-02T22:07:16Z</time>
  <course>186.41</course>
  <speed>0.0282842712474619</speed>
  <fix>3d</fix>
</trkpt>
<trkpt lat="33.810313" lon="-118.393867">
  <ele>-0.12</ele>
  <time>2026-09-02T22:07:16Z</time>
  <course>0.0</course>
  <speed>0.0</speed>
  <fix>3d</fix>
</trkpt>
<trkpt lat="33.8103132" lon="-118.3938672">
  <ele>-0.12</ele>
  <time>2026-09-02T22:07:16Z</time>
  <course>186.41</course>
  <speed>0.0282842712474619</speed>
  <fix>3d</fix>
</trkpt>
<trkpt lat="33.810313" lon="-118.393867">
  <ele>-0.12</ele>
  <time>2026-09-02T22:07:16Z</time>
  <course>0.0</course>
  <speed>0.0</speed>
  <fix>3d</fix>
</trkpt>
<trkpt lat="33.8103132" lon="-118.3938672">
  <ele>-0.12</ele>
  <time>2026-09-02T22:07:16Z</time>
  <course>186.41</course>
  <speed>0.0282842712474619</speed>
  <fix>3d</fix>
</trkpt>
<trkpt lat="33.810313" lon="-118.393867">
  <ele>-0.12</ele>
  <time>2026-09-02T22:07:16Z</time>
  <course>0.0</course>
  <speed>0.0</speed>
  <fix>3d</fix>
</trkpt>
<trkpt lat="33.8103132" lon="-118.3938672">
  <ele>-0.119</ele>
  <time>2026-09-02T22:07:16Z</time>
  <course>186.41</course>
  <speed>0.0282842712474619</speed>
  <fix>3d</fix>
</trkpt>
<trkpt lat="33.810313" lon="-118.393867">
  <ele>-0.12</ele>
  <time>2026-09-02T22:07:16Z</time>
  <course>0.0</course>
  <speed>0.0</speed>
  <fix>3d</fix>
</trkpt>
<trkpt lat="33.8103132" lon="-118.3938672">
  <ele>-0.119</ele>
  <time>2026-09-02T22:07:16Z</time>
  <course>186.41</course>
  <speed>0.0282842712474619</speed>
  <fix>3d</fix>
</trkpt>
<trkpt lat="33.810313" lon="-118.393867">
  <ele>-0.12</ele>
  <time>2026-09-02T22:07:16Z</time>
  <course>0.0</course>
  <speed>0.0</speed>
  <fix>3d</fix>
</trkpt>
<trkpt lat="33.8103132" lon="-118.3938672">
  <ele>-0.119</ele>
  <time>2026-09-02T22:07:16Z</time>
  <course>186.4</course>
  <speed>0.0282842712474619</speed>
  <fix>3d</fix>
</trkpt>
<trkpt lat="33.810313" lon="-118.393867">
  <ele>-0.12</ele>
  <time>2026-09-02T22:07:16Z</time>
  <course>0.0</course>
  <speed>0.0</speed>
  <fix>3d</fix>
</trkpt>
<trkpt lat="33.8103132" lon="-118.3938672">
  <ele>-0.118</ele>
  <time>2026-09-02T22:07:16Z</time>
  <course>186.4</course>
  <speed>0.0282842712474619</speed>
  <fix>3d</fix>
</trkpt>
<trkpt lat="33.810313" lon="-118.393867">
  <ele>-0.12</ele>
  <time>2026-09-02T22:07:16Z</time>
  <course>0.0</course>
  <speed>0.0</speed>
  <fix>3d</fix>
</trkpt>
<trkpt lat="33.8103132" lon="-118.3938672">
  <ele>-0.117</ele>
  <time>2026-09-02T22:07:16Z</time>
  <course>186.4</course>
  <speed>0.0282842712474619</speed>
  <fix>3d</fix>
</trkpt>
<trkpt lat="33.810313" lon="-118.393867">
  <ele>-0.12</ele>
  <time>2026-09-02T22:07:16Z</time>
  <course>0.0</course>
  <speed>0.0</speed>
  <fix>3d</fix>
</trkpt>
<trkpt lat="33.8103132" lon="-118.3938672">
  <ele>-0.116</ele>
  <time>2026-09-02T22:07:16Z</time>
  <course>186.4</course>
  <speed>0.0282842712474619</speed>
  <fix>3d</fix>
</trkpt>
<trkpt lat="33.810313" lon="-118.393867">
  <ele>-0.12</ele>
  <time>2026-09-02T22:07:16Z</time>
  <course>0.0</course>
  <speed>0.0</speed>
  <fix>3d</fix>
</trkpt>
<trkpt lat="33.8103132" lon="-118.3938672">
  <ele>-0.116</ele>
  <time>2026-09-02T22:07:16Z</time>
  <course>186.4</course>
  <speed>0.0282842712474619</speed>
  <fix>3d</fix>
</trkpt>
<trkpt lat="33.810313" lon="-118.393867">
  <ele>-0.12</ele>
  <time>2026-09-02T22:07:16Z</time>
  <course>0.0</course>
  <speed>0.0</speed>
  <fix>3d</fix>
</trkpt>
<trkpt lat="33.8103132" lon="-118.3938672">
  <ele>-0.117</ele>
  <time>2026-09-02T22:07:16Z</time>
  <course>186.4</course>
  <speed>0.0282842712474619</speed>
  <fix>3d</fix>
</trkpt>
<trkpt lat="33.810313" lon="-118.393867">
  <ele>-0.12</ele>
  <time>2026-09-02T22:07:16Z</time>
  <course>0.0</course>
  <speed>0.0</speed>
  <fix>3d</fix>
</trkpt>
<trkpt lat="33.8103132" lon="-118.3938672">
  <ele>-0.118</ele>
  <time>2026-09-02T22:07:16Z</time>
  <course>186.39</course>
  <speed>0.0282842712474619</speed>
  <fix>3d</fix>
</trkpt>
<trkpt lat="33.810313" lon="-118.393867">
  <ele>-0.12</ele>
  <time>2026-09-02T22:07:16Z</time>
  <course>0.0</course>
  <speed>0.0</speed>
  <fix>3d</fix>
</trkpt>
<trkpt lat="33.8103132" lon="-118.3938672">
  <ele>-0.119</ele>
  <time>2026-09-02T22:07:16Z</time>
  <course>186.39</course>
  <speed>0.0282842712474619</speed>
  <fix>3d</fix>
</trkpt>
<trkpt lat="33.810313" lon="-118.393867">
  <ele>-0.12</ele>
  <time>2026-09-02T22:07:16Z</time>
  <course>0.0</course>
  <speed>0.0</speed>
  <fix>3d</fix>
</trkpt>
<trkpt lat="33.8103132" lon="-118.3938672">
  <ele>-0.121</ele>
  <time>2026-09-02T22:07:16Z</time>
  <course>186.39</course>
  <speed>0.0282842712474619</speed>
  <fix>3d</fix>
</trkpt>
<trkpt lat="33.810313" lon="-118.393867">
  <ele>-0.12</ele>
  <time>2026-09-02T22:07:16Z</time>
  <course>0.0</course>
  <speed>0.0</speed>
  <fix>3d</fix>
</trkpt>
<trkpt lat="33.8103132" lon="-118.3938672">
  <ele>-0.121</ele>
  <time>2026-09-02T22:07:16Z</time>
  <course>186.39</course>
  <speed>0.0282842712474619</speed>
  <fix>3d</fix>
</trkpt>
<trkpt lat="33.810313" lon="-118.393867">
  <ele>-0.12</ele>
  <time>2026-09-02T22:07:16Z</time>
  <course>0.0</course>
  <speed>0.0</speed>
  <fix>3d</fix>
</trkpt>
<trkpt lat="33.8103132" lon="-118.3938672">
  <ele>-0.12</ele>
  <time>2026-09-02T22:07:16Z</time>
  <course>186.39</course>
  <speed>0.0282842712474619</speed>
  <fix>3d</fix>
</trkpt>
<trkpt lat="33.810313" lon="-118.393867">
  <ele>-0.12</ele>
  <time>2026-09-02T22:07:16Z</time>
  <course>0.0</course>
  <speed>0.0</speed>
  <fix>3d</fix>
</trkpt>
<trkpt lat="33.8103132" lon="-118.3938672">
  <ele>-0.119</ele>
  <time>2026-09-02T22:07:16Z</time>
  <course>186.38</course>
  <speed>0.0282842712474619</speed>
  <fix>3d</fix>
</trkpt>
<trkpt lat="33.810313" lon="-118.393867">
  <ele>-0.12</ele>
  <time>2026-09-02T22:07:16Z</time>
  <course>0.0</course>
  <speed>0.0</speed>
  <fix>3d</fix>
</trkpt>
<trkpt lat="33.8103132" lon="-118.3938672">
  <ele>-0.118</ele>
  <time>2026-09-02T22:07:16Z</time>
  <course>186.38</course>
  <speed>0.0282842712474619</speed>
  <fix>3d</fix>
</trkpt>
<trkpt lat="33.810313" lon="-118.393867">
  <ele>-0.12</ele>
  <time>2026-09-02T22:07:16Z</time>
  <course>0.0</course>
  <speed>0.0</speed>
  <fix>3d</fix>
</trkpt>
<trkpt lat="33.8103132" lon="-118.3938672">
  <ele>-0.118</ele>
  <time>2026-09-02T22:07:16Z</time>
  <course>186.38</course>
  <speed>0.0282842712474619</speed>
  <fix>3d</fix>
</trkpt>
<trkpt lat="33.810313" lon="-118.393867">
  <ele>-0.12</ele>
  <time>2026-09-02T22:07:16Z</time>
  <course>0.0</course>
  <speed>0.0</speed>
  <fix>3d</fix>
</trkpt>
<trkpt lat="33.8103132" lon="-118.3938672">
  <ele>-0.119</ele>
  <time>2026-09-02T22:07:16Z</time>
  <course>186.38</course>
  <speed>0.0282842712474619</speed>
  <fix>3d</fix>
</trkpt>
<trkpt lat="33.810313" lon="-118.393867">
  <ele>-0.12</ele>
  <time>2026-09-02T22:07:16Z</time>
  <course>0.0</course>
  <speed>0.0</speed>
  <fix>3d</fix>
</trkpt>
<trkpt lat="33.8103132" lon="-118.3938672">
  <ele>-0.12</ele>
  <time>2026-09-02T22:07:16Z</time>
  <course>186.38</course>
  <speed>0.0282842712474619</speed>
  <fix>3d</fix>
</trkpt>
<trkpt lat="33.810313" lon="-118.393867">
  <ele>-0.12</ele>
  <time>2026-09-02T22:07:16Z</time>
  <course>0.0</course>
  <speed>0.0</speed>
  <fix>3d</fix>
</trkpt>
<trkpt lat="33.8103132" lon="-118.3938672">
  <ele>-0.121</ele>
  <time>2026-09-02T22:07:16Z</time>
  <course>186.38</course>
  <speed>0.0282842712474619</speed>
  <fix>3d</fix>
</trkpt>
<trkpt lat="33.810313" lon="-118.393867">
  <ele>-0.12</ele>
  <time>2026-09-02T22:07:16Z</time>
  <course>0.0</course>
  <speed>0.0</speed>
  <fix>3d</fix>
</trkpt>
<trkpt lat="33.8103132" lon="-118.3938672">
  <ele>-0.122</ele>
  <time>2026-09-02T22:07:16Z</time>
  <course>186.37</course>
  <speed>0.0282842712474619</speed>
  <fix>3d</fix>
</trkpt>
<trkpt lat="33.810313" lon="-118.393867">
  <ele>-0.12</ele>
  <time>2026-09-02T22:07:16Z</time>
  <course>0.0</course>
  <speed>0.0</speed>
  <fix>3d</fix>
</trkpt>
<trkpt lat="33.8103132" lon="-118.3938672">
  <ele>-0.124</ele>
  <time>2026-09-02T22:07:16Z</time>
  <course>186.37</course>
  <speed>0.0282842712474619</speed>
  <fix>3d</fix>
</trkpt>
<trkpt lat="33.810313" lon="-118.393867">
  <ele>-0.12</ele>
  <time>2026-09-02T22:07:16Z</time>
  <course>0.0</course>
  <speed>0.0</speed>
  <fix>3d</fix>
</trkpt>
<trkpt lat="33.8103132" lon="-118.3938672">
  <ele>-0.126</ele>
  <time>2026-09-02T22:07:16Z</time>
  <course>186.37</course>
  <speed>0.0282842712474619</speed>
  <fix>3d</fix>
</trkpt>
<trkpt lat="33.810313" lon="-118.393867">
  <ele>-0.12</ele>
  <time>2026-09-02T22:07:16Z</time>
  <course>0.0</course>
  <speed>0.0</speed>
  <fix>3d</fix>
</trkpt>
<trkpt lat="33.8103132" lon="-118.3938672">
  <ele>-0.127</ele>
  <time>2026-09-02T22:07:16Z</time>
  <course>186.37</course>
  <speed>0.0282842712474619</speed>
  <fix>3d</fix>
</trkpt>
<trkpt lat="33.810313" lon="-118.393867">
  <ele>-0.12</ele>
  <time>2026-09-02T22:07:16Z</time>
  <course>0.0</course>
  <speed>0.0</speed>
  <fix>3d</fix>
</trkpt>
<trkpt lat="33.8103132" lon="-118.3938672">
  <ele>-0.128</ele>
  <time>2026-09-02T22:07:16Z</time>
  <course>186.37</course>
  <speed>0.0282842712474619</speed>
  <fix>3d</fix>
</trkpt>
<trkpt lat="33.810313" lon="-118.393867">
  <ele>-0.12</ele>
  <time>2026-09-02T22:07:16Z</time>
  <course>0.0</course>
  <speed>0.0</speed>
  <fix>3d</fix>
</trkpt>
<trkpt lat="33.8103132" lon="-118.3938672">
  <ele>-0.129</ele>
  <time>2026-09-02T22:07:16Z</time>
  <course>186.37</course>
  <speed>0.0282842712474619</speed>
  <fix>3d</fix>
</trkpt>
<trkpt lat="33.810313" lon="-118.393867">
  <ele>-0.12</ele>
  <time>2026-09-02T22:07:16Z</time>
  <course>0.0</course>
  <speed>0.0</speed>
  <fix>3d</fix>
</trkpt>
<trkpt lat="33.8103132" lon="-118.3938672">
  <ele>-0.131</ele>
  <time>2026-09-02T22:07:16Z</time>
  <course>186.36</course>
  <speed>0.0282842712474619</speed>
  <fix>3d</fix>
</trkpt>
<trkpt lat="33.810313" lon="-118.393867">
  <ele>-0.12</ele>
  <time>2026-09-02T22:07:16Z</time>
  <course>0.0</course>
  <speed>0.0</speed>
  <fix>3d</fix>
</trkpt>
<trkpt lat="33.8103132" lon="-118.3938672">
  <ele>-0.132</ele>
  <time>2026-09-02T22:07:16Z</time>
  <course>186.36</course>
  <speed>0.0282842712474619</speed>
  <fix>3d</fix>
</trkpt>
<trkpt lat="33.810313" lon="-118.393867">
  <ele>-0.12</ele>
  <time>2026-09-02T22:07:16Z</time>
  <course>0.0</course>
  <speed>0.0</speed>
  <fix>3d</fix>
</trkpt>
<trkpt lat="33.8103132" lon="-118.3938672">
  <ele>-0.134</ele>
  <time>2026-09-02T22:07:16Z</time>
  <course>186.36</course>
  <speed>0.0282842712474619</speed>
  <fix>3d</fix>
</trkpt>
<trkpt lat="33.810313" lon="-118.393867">
  <ele>-0.12</ele>
  <time>2026-09-02T22:07:16Z</time>
  <course>0.0</course>
  <speed>0.0</speed>
  <fix>3d</fix>
</trkpt>
<trkpt lat="33.8103132" lon="-118.3938672">
  <ele>-0.136</ele>
  <time>2026-09-02T22:07:16Z</time>
  <course>186.36</course>
  <speed>0.0282842712474619</speed>
  <fix>3d</fix>
</trkpt>
<trkpt lat="33.810313" lon="-118.393867">
  <ele>-0.12</ele>
  <time>2026-09-02T22:07:16Z</time>
  <course>0.0</course>
  <speed>0.0</speed>
  <fix>3d</fix>
</trkpt>
<trkpt lat="33.8103132" lon="-118.3938672">
  <ele>-0.137</ele>
  <time>2026-09-02T22:07:16Z</time>
  <course>186.36</course>
  <speed>0.0282842712474619</speed>
  <fix>3d</fix>
</trkpt>
<trkpt lat="33.810313" lon="-118.393867">
  <ele>-0.12</ele>
  <time>2026-09-02T22:07:16Z</time>
  <course>0.0</course>
  <speed>0.0</speed>
  <fix>3d</fix>
</trkpt>
<trkpt lat="33.8103132" lon="-118.3938672">
  <ele>-0.137</ele>
  <time>2026-09-02T22:07:16Z</time>
  <course>186.36</course>
  <speed>0.0282842712474619</speed>
  <fix>3d</fix>
</trkpt>
<trkpt lat="33.810313" lon="-118.393867">
  <ele>-0.12</ele>
  <time>2026-09-02T22:07:16Z</time>
  <course>0.0</course>
  <speed>0.0</speed>
  <fix>3d</fix>
</trkpt>
<trkpt lat="33.8103132" lon="-118.3938672">
  <ele>-0.137</ele>
  <time>2026-09-02T22:07:16Z</time>
  <course>186.35</course>
  <speed>0.0282842712474619</speed>
  <fix>3d</fix>
</trkpt>
<trkpt lat="33.810313" lon="-118.393867">
  <ele>-0.12</ele>
  <time>2026-09-02T22:07:16Z</time>
  <course>0.0</course>
  <speed>0.0</speed>
  <fix>3d</fix>
</trkpt>
<trkpt lat="33.8103132" lon="-118.3938672">
  <ele>-0.136</ele>
  <time>2026-09-02T22:07:16Z</time>
  <course>186.35</course>
  <speed>0.0282842712474619</speed>
  <fix>3d</fix>
</trkpt>
<trkpt lat="33.810313" lon="-118.393867">
  <ele>-0.12</ele>
  <time>2026-09-02T22:07:16Z</time>
  <course>0.0</course>
  <speed>0.0</speed>
  <fix>3d</fix>
</trkpt>
<trkpt lat="33.8103132" lon="-118.3938672">
  <ele>-0.134</ele>
  <time>2026-09-02T22:07:16Z</time>
  <course>186.35</course>
  <speed>0.0282842712474619</speed>
  <fix>3d</fix>
</trkpt>
<trkpt lat="33.810313" lon="-118.393867">
  <ele>-0.12</ele>
  <time>2026-09-02T22:07:16Z</time>
  <course>0.0</course>
  <speed>0.0</speed>
  <fix>3d</fix>
</trkpt>
<trkpt lat="33.8103132" lon="-118.3938672">
  <ele>-0.133</ele>
  <time>2026-09-02T22:07:16Z</time>
  <course>186.35</course>
  <speed>0.0282842712474619</speed>
  <fix>3d</fix>
</trkpt>
<trkpt lat="33.810313" lon="-118.393867">
  <ele>-0.12</ele>
  <time>2026-09-02T22:07:16Z</time>
  <course>0.0</course>
  <speed>0.0</speed>
  <fix>3d</fix>
</trkpt>
<trkpt lat="33.8103132" lon="-118.3938672">
  <ele>-0.133</ele>
  <time>2026-09-02T22:07:16Z</time>
  <course>186.35</course>
  <speed>0.0282842712474619</speed>
  <fix>3d</fix>
</trkpt>
<trkpt lat="33.810313" lon="-118.393867">
  <ele>-0.12</ele>
  <time>2026-09-02T22:07:16Z</time>
  <course>0.0</course>
  <speed>0.0</speed>
  <fix>3d</fix>
</trkpt>
<trkpt lat="33.8103132" lon="-118.3938672">
  <ele>-0.132</ele>
  <time>2026-09-02T22:07:16Z</time>
  <course>186.35</course>
  <speed>0.0282842712474619</speed>
  <fix>3d</fix>
</trkpt>
<trkpt lat="33.810313" lon="-118.393867">
  <ele>-0.12</ele>
  <time>2026-09-02T22:07:16Z</time>
  <course>0.0</course>
  <speed>0.0</speed>
  <fix>3d</fix>
</trkpt>
<trkpt lat="33.8103132" lon="-118.3938672">
  <ele>-0.132</ele>
  <time>2026-09-02T22:07:16Z</time>
  <course>186.34</course>
  <speed>0.0282842712474619</speed>
  <fix>3d</fix>
</trkpt>
<trkpt lat="33.810313" lon="-118.393867">
  <ele>-0.12</ele>
  <time>2026-09-02T22:07:16Z</time>
  <course>0.0</course>
  <speed>0.0</speed>
  <fix>3d</fix>
</trkpt>
<trkpt lat="33.8103132" lon="-118.3938672">
  <ele>-0.132</ele>
  <time>2026-09-02T22:07:16Z</time>
  <course>186.34</course>
  <speed>0.0282842712474619</speed>
  <fix>3d</fix>
</trkpt>
<trkpt lat="33.810313" lon="-118.393867">
  <ele>-0.12</ele>
  <time>2026-09-02T22:07:16Z</time>
  <course>0.0</course>
  <speed>0.0</speed>
  <fix>3d</fix>
</trkpt>
<trkpt lat="33.8103132" lon="-118.3938672">
  <ele>-0.132</ele>
  <time>2026-09-02T22:07:16Z</time>
  <course>186.34</course>
  <speed>0.0282842712474619</speed>
  <fix>3d</fix>
</trkpt>
<trkpt lat="33.810313" lon="-118.393867">
  <ele>-0.12</ele>
  <time>2026-09-02T22:07:16Z</time>
  <course>0.0</course>
  <speed>0.0</speed>
  <fix>3d</fix>
</trkpt>
<trkpt lat="33.8103132" lon="-118.3938672">
  <ele>-0.132</ele>
  <time>2026-09-02T22:07:16Z</time>
  <course>186.34</course>
  <speed>0.0282842712474619</speed>
  <fix>3d</fix>
</trkpt>
<trkpt lat="33.810313" lon="-118.393867">
  <ele>-0.12</ele>
  <time>2026-09-02T22:07:16Z</time>
  <course>0.0</course>
  <speed>0.0</speed>
  <fix>3d</fix>
</trkpt>
<trkpt lat="33.8103132" lon="-118.3938672">
  <ele>-0.132</ele>
  <time>2026-09-02T22:07:16Z</time>
  <course>186.34</course>
  <speed>0.0282842712474619</speed>
  <fix>3d</fix>
</trkpt>
<trkpt lat="33.810313" lon="-118.393867">
  <ele>-0.12</ele>
  <time>2026-09-02T22:07:16Z</time>
  <course>0.0</course>
  <speed>0.0</speed>
  <fix>3d</fix>
</trkpt>
<trkpt lat="33.8103132" lon="-118.3938672">
  <ele>-0.131</ele>
  <time>2026-09-02T22:07:16Z</time>
  <course>186.34</course>
  <speed>0.0282842712474619</speed>
  <fix>3d</fix>
</trkpt>
<trkpt lat="33.810313" lon="-118.393867">
  <ele>-0.12</ele>
  <time>2026-09-02T22:07:16Z</time>
  <course>0.0</course>
  <speed>0.0</speed>
  <fix>3d</fix>
</trkpt>
<trkpt lat="33.8103132" lon="-118.3938672">
  <ele>-0.13</ele>
  <time>2026-09-02T22:07:16Z</time>
  <course>186.34</course>
  <speed>0.0282842712474619</speed>
  <fix>3d</fix>
</trkpt>
<trkpt lat="33.810313" lon="-118.393867">
  <ele>-0.12</ele>
  <time>2026-09-02T22:07:16Z</time>
  <course>0.0</course>
  <speed>0.0</speed>
  <fix>3d</fix>
</trkpt>
<trkpt lat="33.8103132" lon="-118.3938672">
  <ele>-0.129</ele>
  <time>2026-09-02T22:07:16Z</time>
  <course>186.33</course>
  <speed>0.0282842712474619</speed>
  <fix>3d</fix>
</trkpt>
<trkpt lat="33.810313" lon="-118.393867">
  <ele>-0.12</ele>
  <time>2026-09-02T22:07:16Z</time>
  <course>0.0</course>
  <speed>0.0</speed>
  <fix>3d</fix>
</trkpt>
<trkpt lat="33.8103132" lon="-118.3938672">
  <ele>-0.127</ele>
  <time>2026-09-02T22:07:16Z</time>
  <course>186.33</course>
  <speed>0.0282842712474619</speed>
  <fix>3d</fix>
</trkpt>
<trkpt lat="33.810313" lon="-118.393867">
  <ele>-0.12</ele>
  <time>2026-09-02T22:07:16Z</time>
  <course>0.0</course>
  <speed>0.0</speed>
  <fix>3d</fix>
</trkpt>
<trkpt lat="33.8103132" lon="-118.3938672">
  <ele>-0.125</ele>
  <time>2026-09-02T22:07:16Z</time>
  <course>186.33</course>
  <speed>0.0282842712474619</speed>
  <fix>3d</fix>
</trkpt>
<trkpt lat="33.810313" lon="-118.393867">
  <ele>-0.12</ele>
  <time>2026-09-02T22:07:16Z</time>
  <course>0.0</course>
  <speed>0.0</speed>
  <fix>3d</fix>
</trkpt>
<trkpt lat="33.8103132" lon="-118.3938672">
  <ele>-0.124</ele>
  <time>2026-09-02T22:07:16Z</time>
  <course>186.33</course>
  <speed>0.0282842712474619</speed>
  <fix>3d</fix>
</trkpt>
<trkpt lat="33.810313" lon="-118.393867">
  <ele>-0.12</ele>
  <time>2026-09-02T22:07:16Z</time>
  <course>0.0</course>
  <speed>0.0</speed>
  <fix>3d</fix>
</trkpt>
<trkpt lat="33.8103132" lon="-118.3938672">
  <ele>-0.123</ele>
  <time>2026-09-02T22:07:16Z</time>
  <course>186.33</course>
  <speed>0.0282842712474619</speed>
  <fix>3d</fix>
</trkpt>
<trkpt lat="33.810313" lon="-118.393867">
  <ele>-0.12</ele>
  <time>2026-09-02T22:07:16Z</time>
  <course>0.0</course>
  <speed>0.0</speed>
  <fix>3d</fix>
</trkpt>
<trkpt lat="33.8103132" lon="-118.3938672">
  <ele>-0.124</ele>
  <time>2026-09-02T22:07:16Z</time>
  <course>186.33</course>
  <speed>0.0282842712474619</speed>
  <fix>3d</fix>
</trkpt>
<trkpt lat="33.810313" lon="-118.393867">
  <ele>-0.12</ele>
  <time>2026-09-02T22:07:16Z</time>
  <course>0.0</course>
  <speed>0.0</speed>
  <fix>3d</fix>
</trkpt>
<trkpt lat="33.8103132" lon="-118.3938672">
  <ele>-0.125</ele>
  <time>2026-09-02T22:07:16Z</time>
  <course>186.32</course>
  <speed>0.0282842712474619</speed>
  <fix>3d</fix>
</trkpt>
<trkpt lat="33.810313" lon="-118.393867">
  <ele>-0.12</ele>
  <time>2026-09-02T22:07:16Z</time>
  <course>0.0</course>
  <speed>0.0</speed>
  <fix>3d</fix>
</trkpt>
<trkpt lat="33.8103132" lon="-118.3938672">
  <ele>-0.125</ele>
  <time>2026-09-02T22:07:16Z</time>
  <course>186.32</course>
  <speed>0.0282842712474619</speed>
  <fix>3d</fix>
</trkpt>
<trkpt lat="33.810313" lon="-118.393867">
  <ele>-0.12</ele>
  <time>2026-09-02T22:07:16Z</time>
  <course>0.0</course>
  <speed>0.0</speed>
  <fix>3d</fix>
</trkpt>
<trkpt lat="33.8103132" lon="-118.3938672">
  <ele>-0.125</ele>
  <time>2026-09-02T22:07:16Z</time>
  <course>186.32</course>
  <speed>0.0282842712474619</speed>
  <fix>3d</fix>
</trkpt>
<trkpt lat="33.810313" lon="-118.393867">
  <ele>-0.12</ele>
  <time>2026-09-02T22:07:16Z</time>
  <course>0.0</course>
  <speed>0.0</speed>
  <fix>3d</fix>
</trkpt>
<trkpt lat="33.8103132" lon="-118.3938672">
  <ele>-0.125</ele>
  <time>2026-09-02T22:07:16Z</time>
  <course>186.32</course>
  <speed>0.0282842712474619</speed>
  <fix>3d</fix>
</trkpt>
<trkpt lat="33.810313" lon="-118.393867">
  <ele>-0.12</ele>
  <time>2026-09-02T22:07:16Z</time>
  <course>0.0</course>
  <speed>0.0</speed>
  <fix>3d</fix>
</trkpt>
<trkpt lat="33.8103132" lon="-118.3938672">
  <ele>-0.126</ele>
  <time>2026-09-02T22:07:16Z</time>
  <course>186.32</course>
  <speed>0.0282842712474619</speed>
  <fix>3d</fix>
</trkpt>
<trkpt lat="33.810313" lon="-118.393867">
  <ele>-0.12</ele>
  <time>2026-09-02T22:07:16Z</time>
  <course>0.0</course>
  <speed>0.0</speed>
  <fix>3d</fix>
</trkpt>
<trkpt lat="33.8103132" lon="-118.3938672">
  <ele>-0.127</ele>
  <time>2026-09-02T22:07:16Z</time>
  <course>186.32</course>
  <speed>0.0282842712474619</speed>
  <fix>3d</fix>
</trkpt>
<trkpt lat="33.810313" lon="-118.393867">
  <ele>-0.12</ele>
  <time>2026-09-02T22:07:16Z</time>
  <course>0.0</course>
  <speed>0.0</speed>
  <fix>3d</fix>
</trkpt>
<trkpt lat="33.8103132" lon="-118.3938672">
  <ele>-0.129</ele>
  <time>2026-09-02T22:07:16Z</time>
  <course>186.32</course>
  <speed>0.0282842712474619</speed>
  <fix>3d</fix>
</trkpt>
<trkpt lat="33.810313" lon="-118.393867">
  <ele>-0.12</ele>
  <time>2026-09-02T22:07:16Z</time>
  <course>0.0</course>
  <speed>0.0</speed>
  <fix>3d</fix>
</trkpt>
<trkpt lat="33.8103132" lon="-118.3938672">
  <ele>-0.131</ele>
  <time>2026-09-02T22:07:16Z</time>
  <course>186.32</course>
  <speed>0.0282842712474619</speed>
  <fix>3d</fix>
</trkpt>
<trkpt lat="33.810313" lon="-118.393867">
  <ele>-0.12</ele>
  <time>2026-09-02T22:07:16Z</time>
  <course>0.0</course>
  <speed>0.0</speed>
  <fix>3d</fix>
</trkpt>
<trkpt lat="33.8103132" lon="-118.3938672">
  <ele>-0.133</ele>
  <time>2026-09-02T22:07:16Z</time>
  <course>186.31</course>
  <speed>0.0282842712474619</speed>
  <fix>3d</fix>
</trkpt>
<trkpt lat="33.810313" lon="-118.393867">
  <ele>-0.12</ele>
  <time>2026-09-02T22:07:16Z</time>
  <course>0.0</course>
  <speed>0.0</speed>
  <fix>3d</fix>
</trkpt>
<trkpt lat="33.8103132" lon="-118.3938672">
  <ele>-0.135</ele>
  <time>2026-09-02T22:07:16Z</time>
  <course>186.31</course>
  <speed>0.0282842712474619</speed>
  <fix>3d</fix>
</trkpt>
<trkpt lat="33.810313" lon="-118.393867">
  <ele>-0.12</ele>
  <time>2026-09-02T22:07:16Z</time>
  <course>0.0</course>
  <speed>0.0</speed>
  <fix>3d</fix>
</trkpt>
<trkpt lat="33.8103132" lon="-118.3938672">
  <ele>-0.136</ele>
  <time>2026-09-02T22:07:16Z</time>
  <course>186.31</course>
  <speed>0.0282842712474619</speed>
  <fix>3d</fix>
</trkpt>
<trkpt lat="33.810313" lon="-118.393867">
  <ele>-0.12</ele>
  <time>2026-09-02T22:07:16Z</time>
  <course>0.0</course>
  <speed>0.0</speed>
  <fix>3d</fix>
</trkpt>
<trkpt lat="33.8103132" lon="-118.3938672">
  <ele>-0.135</ele>
  <time>2026-09-02T22:07:16Z</time>
  <course>186.31</course>
  <speed>0.0282842712474619</speed>
  <fix>3d</fix>
</trkpt>
<trkpt lat="33.810313" lon="-118.393867">
  <ele>-0.12</ele>
  <time>2026-09-02T22:07:16Z</time>
  <course>0.0</course>
  <speed>0.0</speed>
  <fix>3d</fix>
</trkpt>
<trkpt lat="33.8103132" lon="-118.3938672">
  <ele>-0.134</ele>
  <time>2026-09-02T22:07:16Z</time>
  <course>186.31</course>
  <speed>0.0282842712474619</speed>
  <fix>3d</fix>
</trkpt>
<trkpt lat="33.810313" lon="-118.393867">
  <ele>-0.12</ele>
  <time>2026-09-02T22:07:16Z</time>
  <course>0.0</course>
  <speed>0.0</speed>
  <fix>3d</fix>
</trkpt>
<trkpt lat="33.8103132" lon="-118.3938672">
  <ele>-0.133</ele>
  <time>2026-09-02T22:07:16Z</time>
  <course>186.31</course>
  <speed>0.0282842712474619</speed>
  <fix>3d</fix>
</trkpt>
<trkpt lat="33.810313" lon="-118.393867">
  <ele>-0.12</ele>
  <time>2026-09-02T22:07:16Z</time>
  <course>0.0</course>
  <speed>0.0</speed>
  <fix>3d</fix>
</trkpt>
<trkpt lat="33.8103132" lon="-118.3938672">
  <ele>-0.131</ele>
  <time>2026-09-02T22:07:16Z</time>
  <course>186.31</course>
  <speed>0.0282842712474619</speed>
  <fix>3d</fix>
</trkpt>
<trkpt lat="33.810313" lon="-118.393867">
  <ele>-0.12</ele>
  <time>2026-09-02T22:07:16Z</time>
  <course>0.0</course>
  <speed>0.0</speed>
  <fix>3d</fix>
</trkpt>
<trkpt lat="33.8103132" lon="-118.3938672">
  <ele>-0.131</ele>
  <time>2026-09-02T22:07:16Z</time>
  <course>186.31</course>
  <speed>0.0282842712474619</speed>
  <fix>3d</fix>
</trkpt>
<trkpt lat="33.810313" lon="-118.393867">
  <ele>-0.12</ele>
  <time>2026-09-02T22:07:16Z</time>
  <course>0.0</course>
  <speed>0.0</speed>
  <fix>3d</fix>
</trkpt>
<trkpt lat="33.8103132" lon="-118.3938672">
  <ele>-0.13</ele>
  <time>2026-09-02T22:07:16Z</time>
  <course>186.3</course>
  <speed>0.0282842712474619</speed>
  <fix>3d</fix>
</trkpt>
<trkpt lat="33.810313" lon="-118.393867">
  <ele>-0.12</ele>
  <time>2026-09-02T22:07:16Z</time>
  <course>0.0</course>
  <speed>0.0</speed>
  <fix>3d</fix>
</trkpt>
<trkpt lat="33.8103132" lon="-118.3938672">
  <ele>-0.131</ele>
  <time>2026-09-02T22:07:16Z</time>
  <course>186.3</course>
  <speed>0.0282842712474619</speed>
  <fix>3d</fix>
</trkpt>
<trkpt lat="33.810313" lon="-118.393867">
  <ele>-0.12</ele>
  <time>2026-09-02T22:07:16Z</time>
  <course>0.0</course>
  <speed>0.0</speed>
  <fix>3d</fix>
</trkpt>
<trkpt lat="33.8103132" lon="-118.3938672">
  <ele>-0.131</ele>
  <time>2026-09-02T22:07:16Z</time>
  <course>186.3</course>
  <speed>0.0282842712474619</speed>
  <fix>3d</fix>
</trkpt>
<trkpt lat="33.810313" lon="-118.393867">
  <ele>-0.12</ele>
  <time>2026-09-02T22:07:16Z</time>
  <course>0.0</course>
  <speed>0.0</speed>
  <fix>3d</fix>
</trkpt>
<trkpt lat="33.8103132" lon="-118.3938672">
  <ele>-0.131</ele>
  <time>2026-09-02T22:07:16Z</time>
  <course>186.3</course>
  <speed>0.0282842712474619</speed>
  <fix>3d</fix>
</trkpt>
<trkpt lat="33.810313" lon="-118.393867">
  <ele>-0.12</ele>
  <time>2026-09-02T22:07:16Z</time>
  <course>0.0</course>
  <speed>0.0</speed>
  <fix>3d</fix>
</trkpt>
<trkpt lat="33.8103132" lon="-118.3938672">
  <ele>-0.131</ele>
  <time>2026-09-02T22:07:17Z</time>
  <course>186.3</course>
  <speed>0.0282842712474619</speed>
  <fix>3d</fix>
</trkpt>
<trkpt lat="33.810313" lon="-118.393867">
  <ele>-0.12</ele>
  <time>2026-09-02T22:07:17Z</time>
  <course>0.0</course>
  <speed>0.0</speed>
  <fix>3d</fix>
</trkpt>
<trkpt lat="33.8103132" lon="-118.3938672">
  <ele>-0.131</ele>
  <time>2026-09-02T22:07:17Z</time>
  <course>186.3</course>
  <speed>0.0282842712474619</speed>
  <fix>3d</fix>
</trkpt>
<trkpt lat="33.810313" lon="-118.393867">
  <ele>-0.12</ele>
  <time>2026-09-02T22:07:17Z</time>
  <course>0.0</course>
  <speed>0.0</speed>
  <fix>3d</fix>
</trkpt>
<trkpt lat="33.8103132" lon="-118.3938672">
  <ele>-0.13</ele>
  <time>2026-09-02T22:07:17Z</time>
  <course>186.3</course>
  <speed>0.0282842712474619</speed>
  <fix>3d</fix>
</trkpt>
<trkpt lat="33.810313" lon="-118.393867">
  <ele>-0.12</ele>
  <time>2026-09-02T22:07:17Z</time>
  <course>0.0</course>
  <speed>0.0</speed>
  <fix>3d</fix>
</trkpt>
<trkpt lat="33.8103132" lon="-118.3938672">
  <ele>-0.13</ele>
  <time>2026-09-02T22:07:17Z</time>
  <course>186.29</course>
  <speed>0.0282842712474619</speed>
  <fix>3d</fix>
</trkpt>
<trkpt lat="33.810313" lon="-118.393867">
  <ele>-0.12</ele>
  <time>2026-09-02T22:07:17Z</time>
  <course>0.0</course>
  <speed>0.0</speed>
  <fix>3d</fix>
</trkpt>
<trkpt lat="33.8103132" lon="-118.3938672">
  <ele>-0.13</ele>
  <time>2026-09-02T22:07:17Z</time>
  <course>186.29</course>
  <speed>0.0282842712474619</speed>
  <fix>3d</fix>
</trkpt>
<trkpt lat="33.810313" lon="-118.393867">
  <ele>-0.12</ele>
  <time>2026-09-02T22:07:17Z</time>
  <course>0.0</course>
  <speed>0.0</speed>
  <fix>3d</fix>
</trkpt>
<trkpt lat="33.8103132" lon="-118.3938672">
  <ele>-0.129</ele>
  <time>2026-09-02T22:07:17Z</time>
  <course>186.29</course>
  <speed>0.0282842712474619</speed>
  <fix>3d</fix>
</trkpt>
<trkpt lat="33.810313" lon="-118.393867">
  <ele>-0.12</ele>
  <time>2026-09-02T22:07:17Z</time>
  <course>0.0</course>
  <speed>0.0</speed>
  <fix>3d</fix>
</trkpt>
<trkpt lat="33.8103132" lon="-118.3938672">
  <ele>-0.128</ele>
  <time>2026-09-02T22:07:17Z</time>
  <course>186.29</course>
  <speed>0.0282842712474619</speed>
  <fix>3d</fix>
</trkpt>
<trkpt lat="33.810313" lon="-118.393867">
  <ele>-0.12</ele>
  <time>2026-09-02T22:07:17Z</time>
  <course>0.0</course>
  <speed>0.0</speed>
  <fix>3d</fix>
</trkpt>
<trkpt lat="33.8103132" lon="-118.3938672">
  <ele>-0.127</ele>
  <time>2026-09-02T22:07:17Z</time>
  <course>186.29</course>
  <speed>0.0282842712474619</speed>
  <fix>3d</fix>
</trkpt>
<trkpt lat="33.810313" lon="-118.393867">
  <ele>-0.12</ele>
  <time>2026-09-02T22:07:17Z</time>
  <course>0.0</course>
  <speed>0.0</speed>
  <fix>3d</fix>
</trkpt>
<trkpt lat="33.8103132" lon="-118.3938672">
  <ele>-0.127</ele>
  <time>2026-09-02T22:07:17Z</time>
  <course>186.29</course>
  <speed>0.0282842712474619</speed>
  <fix>3d</fix>
</trkpt>
<trkpt lat="33.810313" lon="-118.393867">
  <ele>-0.12</ele>
  <time>2026-09-02T22:07:17Z</time>
  <course>0.0</course>
  <speed>0.0</speed>
  <fix>3d</fix>
</trkpt>
<trkpt lat="33.8103132" lon="-118.3938672">
  <ele>-0.128</ele>
  <time>2026-09-02T22:07:17Z</time>
  <course>186.29</course>
  <speed>0.0282842712474619</speed>
  <fix>3d</fix>
</trkpt>
<trkpt lat="33.810313" lon="-118.393867">
  <ele>-0.12</ele>
  <time>2026-09-02T22:07:17Z</time>
  <course>0.0</course>
  <speed>0.0</speed>
  <fix>3d</fix>
</trkpt>
<trkpt lat="33.8103132" lon="-118.3938672">
  <ele>-0.129</ele>
  <time>2026-09-02T22:07:17Z</time>
  <course>186.29</course>
  <speed>0.0282842712474619</speed>
  <fix>3d</fix>
</trkpt>
<trkpt lat="33.810313" lon="-118.393867">
  <ele>-0.12</ele>
  <time>2026-09-02T22:07:17Z</time>
  <course>0.0</course>
  <speed>0.0</speed>
  <fix>3d</fix>
</trkpt>
<trkpt lat="33.8103132" lon="-118.3938672">
  <ele>-0.129</ele>
  <time>2026-09-02T22:07:17Z</time>
  <course>186.28</course>
  <speed>0.0282842712474619</speed>
  <fix>3d</fix>
</trkpt>
<trkpt lat="33.810313" lon="-118.393867">
  <ele>-0.12</ele>
  <time>2026-09-02T22:07:17Z</time>
  <course>0.0</course>
  <speed>0.0</speed>
  <fix>3d</fix>
</trkpt>
<trkpt lat="33.8103132" lon="-118.3938672">
  <ele>-0.128</ele>
  <time>2026-09-02T22:07:17Z</time>
  <course>186.28</course>
  <speed>0.0282842712474619</speed>
  <fix>3d</fix>
</trkpt>
<trkpt lat="33.810313" lon="-118.393867">
  <ele>-0.12</ele>
  <time>2026-09-02T22:07:17Z</time>
  <course>0.0</course>
  <speed>0.0</speed>
  <fix>3d</fix>
</trkpt>
<trkpt lat="33.8103132" lon="-118.3938672">
  <ele>-0.128</ele>
  <time>2026-09-02T22:07:17Z</time>
  <course>186.28</course>
  <speed>0.0282842712474619</speed>
  <fix>3d</fix>
</trkpt>
<trkpt lat="33.810313" lon="-118.393867">
  <ele>-0.12</ele>
  <time>2026-09-02T22:07:17Z</time>
  <course>0.0</course>
  <speed>0.0</speed>
  <fix>3d</fix>
</trkpt>
<trkpt lat="33.8103132" lon="-118.3938672">
  <ele>-0.127</ele>
  <time>2026-09-02T22:07:17Z</time>
  <course>186.28</course>
  <speed>0.0282842712474619</speed>
  <fix>3d</fix>
</trkpt>
<trkpt lat="33.810313" lon="-118.393867">
  <ele>-0.12</ele>
  <time>2026-09-02T22:07:17Z</time>
  <course>0.0</course>
  <speed>0.0</speed>
  <fix>3d</fix>
</trkpt>
<trkpt lat="33.8103132" lon="-118.3938672">
  <ele>-0.126</ele>
  <time>2026-09-02T22:07:17Z</time>
  <course>186.28</course>
  <speed>0.0282842712474619</speed>
  <fix>3d</fix>
</trkpt>
<trkpt lat="33.810313" lon="-118.393867">
  <ele>-0.12</ele>
  <time>2026-09-02T22:07:17Z</time>
  <course>0.0</course>
  <speed>0.0</speed>
  <fix>3d</fix>
</trkpt>
<trkpt lat="33.8103132" lon="-118.3938672">
  <ele>-0.124</ele>
  <time>2026-09-02T22:07:17Z</time>
  <course>186.28</course>
  <speed>0.0282842712474619</speed>
  <fix>3d</fix>
</trkpt>
<trkpt lat="33.810313" lon="-118.393867">
  <ele>-0.12</ele>
  <time>2026-09-02T22:07:17Z</time>
  <course>0.0</course>
  <speed>0.0</speed>
  <fix>3d</fix>
</trkpt>
<trkpt lat="33.8103132" lon="-118.3938672">
  <ele>-0.122</ele>
  <time>2026-09-02T22:07:17Z</time>
  <course>186.28</course>
  <speed>0.0282842712474619</speed>
  <fix>3d</fix>
</trkpt>
<trkpt lat="33.810313" lon="-118.393867">
  <ele>-0.12</ele>
  <time>2026-09-02T22:07:17Z</time>
  <course>0.0</course>
  <speed>0.0</speed>
  <fix>3d</fix>
</trkpt>
<trkpt lat="33.8103132" lon="-118.3938672">
  <ele>-0.121</ele>
  <time>2026-09-02T22:07:17Z</time>
  <course>186.28</course>
  <speed>0.0282842712474619</speed>
  <fix>3d</fix>
</trkpt>
<trkpt lat="33.810313" lon="-118.393867">
  <ele>-0.12</ele>
  <time>2026-09-02T22:07:17Z</time>
  <course>0.0</course>
  <speed>0.0</speed>
  <fix>3d</fix>
</trkpt>
<trkpt lat="33.8103132" lon="-118.3938672">
  <ele>-0.119</ele>
  <time>2026-09-02T22:07:17Z</time>
  <course>186.27</course>
  <speed>0.0282842712474619</speed>
  <fix>3d</fix>
</trkpt>
<trkpt lat="33.810313" lon="-118.393867">
  <ele>-0.12</ele>
  <time>2026-09-02T22:07:17Z</time>
  <course>0.0</course>
  <speed>0.0</speed>
  <fix>3d</fix>
</trkpt>
<trkpt lat="33.8103132" lon="-118.3938672">
  <ele>-0.119</ele>
  <time>2026-09-02T22:07:17Z</time>
  <course>186.27</course>
  <speed>0.0282842712474619</speed>
  <fix>3d</fix>
</trkpt>
<trkpt lat="33.810313" lon="-118.393867">
  <ele>-0.12</ele>
  <time>2026-09-02T22:07:17Z</time>
  <course>0.0</course>
  <speed>0.0</speed>
  <fix>3d</fix>
</trkpt>
<trkpt lat="33.8103132" lon="-118.3938672">
  <ele>-0.119</ele>
  <time>2026-09-02T22:07:17Z</time>
  <course>186.27</course>
  <speed>0.0282842712474619</speed>
  <fix>3d</fix>
</trkpt>
<trkpt lat="33.810313" lon="-118.393867">
  <ele>-0.12</ele>
  <time>2026-09-02T22:07:17Z</time>
  <course>0.0</course>
  <speed>0.0</speed>
  <fix>3d</fix>
</trkpt>
<trkpt lat="33.8103132" lon="-118.3938672">
  <ele>-0.119</ele>
  <time>2026-09-02T22:07:17Z</time>
  <course>186.27</course>
  <speed>0.0282842712474619</speed>
  <fix>3d</fix>
</trkpt>
<trkpt lat="33.810313" lon="-118.393867">
  <ele>-0.12</ele>
  <time>2026-09-02T22:07:17Z</time>
  <course>0.0</course>
  <speed>0.0</speed>
  <fix>3d</fix>
</trkpt>
<trkpt lat="33.8103132" lon="-118.3938672">
  <ele>-0.118</ele>
  <time>2026-09-02T22:07:17Z</time>
  <course>186.27</course>
  <speed>0.0282842712474619</speed>
  <fix>3d</fix>
</trkpt>
<trkpt lat="33.810313" lon="-118.393867">
  <ele>-0.12</ele>
  <time>2026-09-02T22:07:17Z</time>
  <course>0.0</course>
  <speed>0.0</speed>
  <fix>3d</fix>
</trkpt>
<trkpt lat="33.8103132" lon="-118.3938672">
  <ele>-0.117</ele>
  <time>2026-09-02T22:07:17Z</time>
  <course>186.27</course>
  <speed>0.0282842712474619</speed>
  <fix>3d</fix>
</trkpt>
<trkpt lat="33.810313" lon="-118.393867">
  <ele>-0.12</ele>
  <time>2026-09-02T22:07:17Z</time>
  <course>0.0</course>
  <speed>0.0</speed>
  <fix>3d</fix>
</trkpt>
<trkpt lat="33.8103132" lon="-118.3938672">
  <ele>-0.118</ele>
  <time>2026-09-02T22:07:17Z</time>
  <course>186.27</course>
  <speed>0.0282842712474619</speed>
  <fix>3d</fix>
</trkpt>
<trkpt lat="33.810313" lon="-118.393867">
  <ele>-0.12</ele>
  <time>2026-09-02T22:07:17Z</time>
  <course>0.0</course>
  <speed>0.0</speed>
  <fix>3d</fix>
</trkpt>
<trkpt lat="33.8103132" lon="-118.3938672">
  <ele>-0.119</ele>
  <time>2026-09-02T22:07:17Z</time>
  <course>186.27</course>
  <speed>0.0282842712474619</speed>
  <fix>3d</fix>
</trkpt>
<trkpt lat="33.810313" lon="-118.393867">
  <ele>-0.12</ele>
  <time>2026-09-02T22:07:17Z</time>
  <course>0.0</course>
  <speed>0.0</speed>
  <fix>3d</fix>
</trkpt>
<trkpt lat="33.8103132" lon="-118.3938672">
  <ele>-0.121</ele>
  <time>2026-09-02T22:07:17Z</time>
  <course>186.26</course>
  <speed>0.0282842712474619</speed>
  <fix>3d</fix>
</trkpt>
<trkpt lat="33.810313" lon="-118.393867">
  <ele>-0.12</ele>
  <time>2026-09-02T22:07:17Z</time>
  <course>0.0</course>
  <speed>0.0</speed>
  <fix>3d</fix>
</trkpt>
<trkpt lat="33.8103132" lon="-118.3938672">
  <ele>-0.123</ele>
  <time>2026-09-02T22:07:17Z</time>
  <course>186.26</course>
  <speed>0.0282842712474619</speed>
  <fix>3d</fix>
</trkpt>
<trkpt lat="33.810313" lon="-118.393867">
  <ele>-0.12</ele>
  <time>2026-09-02T22:07:17Z</time>
  <course>0.0</course>
  <speed>0.0</speed>
  <fix>3d</fix>
</trkpt>
<trkpt lat="33.8103132" lon="-118.3938672">
  <ele>-0.125</ele>
  <time>2026-09-02T22:07:17Z</time>
  <course>186.26</course>
  <speed>0.0282842712474619</speed>
  <fix>3d</fix>
</trkpt>
<trkpt lat="33.810313" lon="-118.393867">
  <ele>-0.12</ele>
  <time>2026-09-02T22:07:17Z</time>
  <course>0.0</course>
  <speed>0.0</speed>
  <fix>3d</fix>
</trkpt>
<trkpt lat="33.8103132" lon="-118.3938672">
  <ele>-0.127</ele>
  <time>2026-09-02T22:07:17Z</time>
  <course>186.26</course>
  <speed>0.0282842712474619</speed>
  <fix>3d</fix>
</trkpt>
<trkpt lat="33.810313" lon="-118.393867">
  <ele>-0.12</ele>
  <time>2026-09-02T22:07:17Z</time>
  <course>0.0</course>
  <speed>0.0</speed>
  <fix>3d</fix>
</trkpt>
<trkpt lat="33.8103132" lon="-118.3938672">
  <ele>-0.128</ele>
  <time>2026-09-02T22:07:17Z</time>
  <course>186.26</course>
  <speed>0.0282842712474619</speed>
  <fix>3d</fix>
</trkpt>
<trkpt lat="33.810313" lon="-118.393867">
  <ele>-0.12</ele>
  <time>2026-09-02T22:07:17Z</time>
  <course>0.0</course>
  <speed>0.0</speed>
  <fix>3d</fix>
</trkpt>
<trkpt lat="33.8103132" lon="-118.3938672">
  <ele>-0.129</ele>
  <time>2026-09-02T22:07:17Z</time>
  <course>186.26</course>
  <speed>0.0282842712474619</speed>
  <fix>3d</fix>
</trkpt>
<trkpt lat="33.810313" lon="-118.393867">
  <ele>-0.12</ele>
  <time>2026-09-02T22:07:17Z</time>
  <course>0.0</course>
  <speed>0.0</speed>
  <fix>3d</fix>
</trkpt>
<trkpt lat="33.8103132" lon="-118.3938672">
  <ele>-0.13</ele>
  <time>2026-09-02T22:07:17Z</time>
  <course>186.26</course>
  <speed>0.0282842712474619</speed>
  <fix>3d</fix>
</trkpt>
<trkpt lat="33.810313" lon="-118.393867">
  <ele>-0.12</ele>
  <time>2026-09-02T22:07:17Z</time>
  <course>0.0</course>
  <speed>0.0</speed>
  <fix>3d</fix>
</trkpt>
<trkpt lat="33.8103132" lon="-118.3938672">
  <ele>-0.131</ele>
  <time>2026-09-02T22:07:17Z</time>
  <course>186.26</course>
  <speed>0.0282842712474619</speed>
  <fix>3d</fix>
</trkpt>
<trkpt lat="33.810313" lon="-118.393867">
  <ele>-0.12</ele>
  <time>2026-09-02T22:07:17Z</time>
  <course>0.0</course>
  <speed>0.0</speed>
  <fix>3d</fix>
</trkpt>
<trkpt lat="33.8103132" lon="-118.3938672">
  <ele>-0.132</ele>
  <time>2026-09-02T22:07:17Z</time>
  <course>186.26</course>
  <speed>0.0282842712474619</speed>
  <fix>3d</fix>
</trkpt>
<trkpt lat="33.810313" lon="-118.393867">
  <ele>-0.12</ele>
  <time>2026-09-02T22:07:17Z</time>
  <course>0.0</course>
  <speed>0.0</speed>
  <fix>3d</fix>
</trkpt>
<trkpt lat="33.8103132" lon="-118.3938672">
  <ele>-0.132</ele>
  <time>2026-09-02T22:07:17Z</time>
  <course>186.26</course>
  <speed>0.0282842712474619</speed>
  <fix>3d</fix>
</trkpt>
<trkpt lat="33.810313" lon="-118.393867">
  <ele>-0.12</ele>
  <time>2026-09-02T22:07:17Z</time>
  <course>0.0</course>
  <speed>0.0</speed>
  <fix>3d</fix>
</trkpt>
<trkpt lat="33.8103132" lon="-118.3938672">
  <ele>-0.132</ele>
  <time>2026-09-02T22:07:17Z</time>
  <course>186.25</course>
  <speed>0.0282842712474619</speed>
  <fix>3d</fix>
</trkpt>
<trkpt lat="33.810313" lon="-118.393867">
  <ele>-0.12</ele>
  <time>2026-09-02T22:07:17Z</time>
  <course>0.0</course>
  <speed>0.0</speed>
  <fix>3d</fix>
</trkpt>
<trkpt lat="33.8103132" lon="-118.3938672">
  <ele>-0.132</ele>
  <time>2026-09-02T22:07:17Z</time>
  <course>186.25</course>
  <speed>0.0282842712474619</speed>
  <fix>3d</fix>
</trkpt>
<trkpt lat="33.810313" lon="-118.393867">
  <ele>-0.12</ele>
  <time>2026-09-02T22:07:17Z</time>
  <course>0.0</course>
  <speed>0.0</speed>
  <fix>3d</fix>
</trkpt>
<trkpt lat="33.8103132" lon="-118.3938672">
  <ele>-0.132</ele>
  <time>2026-09-02T22:07:17Z</time>
  <course>186.25</course>
  <speed>0.0282842712474619</speed>
  <fix>3d</fix>
</trkpt>
<trkpt lat="33.810313" lon="-118.393867">
  <ele>-0.12</ele>
  <time>2026-09-02T22:07:17Z</time>
  <course>0.0</course>
  <speed>0.0</speed>
  <fix>3d</fix>
</trkpt>
<trkpt lat="33.8103132" lon="-118.3938672">
  <ele>-0.132</ele>
  <time>2026-09-02T22:07:17Z</time>
  <course>186.25</course>
  <speed>0.0282842712474619</speed>
  <fix>3d</fix>
</trkpt>
<trkpt lat="33.810313" lon="-118.393867">
  <ele>-0.12</ele>
  <time>2026-09-02T22:07:17Z</time>
  <course>0.0</course>
  <speed>0.0</speed>
  <fix>3d</fix>
</trkpt>
<trkpt lat="33.8103132" lon="-118.3938672">
  <ele>-0.132</ele>
  <time>2026-09-02T22:07:17Z</time>
  <course>186.25</course>
  <speed>0.0282842712474619</speed>
  <fix>3d</fix>
</trkpt>
<trkpt lat="33.810313" lon="-118.393867">
  <ele>-0.12</ele>
  <time>2026-09-02T22:07:17Z</time>
  <course>0.0</course>
  <speed>0.0</speed>
  <fix>3d</fix>
</trkpt>
<trkpt lat="33.8103132" lon="-118.3938672">
  <ele>-0.13</ele>
  <time>2026-09-02T22:07:17Z</time>
  <course>186.25</course>
  <speed>0.0282842712474619</speed>
  <fix>3d</fix>
</trkpt>
<trkpt lat="33.810313" lon="-118.393867">
  <ele>-0.12</ele>
  <time>2026-09-02T22:07:17Z</time>
  <course>0.0</course>
  <speed>0.0</speed>
  <fix>3d</fix>
</trkpt>
<trkpt lat="33.8103132" lon="-118.3938672">
  <ele>-0.13</ele>
  <time>2026-09-02T22:07:17Z</time>
  <course>186.25</course>
  <speed>0.0282842712474619</speed>
  <fix>3d</fix>
</trkpt>
<trkpt lat="33.810313" lon="-118.393867">
  <ele>-0.12</ele>
  <time>2026-09-02T22:07:17Z</time>
  <course>0.0</course>
  <speed>0.0</speed>
  <fix>3d</fix>
</trkpt>
<trkpt lat="33.8103132" lon="-118.3938672">
  <ele>-0.129</ele>
  <time>2026-09-02T22:07:17Z</time>
  <course>186.25</course>
  <speed>0.0282842712474619</speed>
  <fix>3d</fix>
</trkpt>
<trkpt lat="33.810313" lon="-118.393867">
  <ele>-0.12</ele>
  <time>2026-09-02T22:07:17Z</time>
  <course>0.0</course>
  <speed>0.0</speed>
  <fix>3d</fix>
</trkpt>
<trkpt lat="33.8103132" lon="-118.3938672">
  <ele>-0.128</ele>
  <time>2026-09-02T22:07:17Z</time>
  <course>186.25</course>
  <speed>0.0282842712474619</speed>
  <fix>3d</fix>
</trkpt>
<trkpt lat="33.810313" lon="-118.393867">
  <ele>-0.12</ele>
  <time>2026-09-02T22:07:17Z</time>
  <course>0.0</course>
  <speed>0.0</speed>
  <fix>3d</fix>
</trkpt>
<trkpt lat="33.8103132" lon="-118.3938672">
  <ele>-0.127</ele>
  <time>2026-09-02T22:07:17Z</time>
  <course>186.25</course>
  <speed>0.0282842712474619</speed>
  <fix>3d</fix>
</trkpt>
<trkpt lat="33.810313" lon="-118.393867">
  <ele>-0.12</ele>
  <time>2026-09-02T22:07:17Z</time>
  <course>0.0</course>
  <speed>0.0</speed>
  <fix>3d</fix>
</trkpt>
<trkpt lat="33.8103132" lon="-118.3938672">
  <ele>-0.126</ele>
  <time>2026-09-02T22:07:17Z</time>
  <course>186.24</course>
  <speed>0.0282842712474619</speed>
  <fix>3d</fix>
</trkpt>
<trkpt lat="33.810313" lon="-118.393867">
  <ele>-0.12</ele>
  <time>2026-09-02T22:07:17Z</time>
  <course>0.0</course>
  <speed>0.0</speed>
  <fix>3d</fix>
</trkpt>
<trkpt lat="33.8103132" lon="-118.3938672">
  <ele>-0.126</ele>
  <time>2026-09-02T22:07:17Z</time>
  <course>186.24</course>
  <speed>0.0282842712474619</speed>
  <fix>3d</fix>
</trkpt>
<trkpt lat="33.810313" lon="-118.393867">
  <ele>-0.12</ele>
  <time>2026-09-02T22:07:17Z</time>
  <course>0.0</course>
  <speed>0.0</speed>
  <fix>3d</fix>
</trkpt>
<trkpt lat="33.8103132" lon="-118.3938672">
  <ele>-0.127</ele>
  <time>2026-09-02T22:07:17Z</time>
  <course>186.24</course>
  <speed>0.0282842712474619</speed>
  <fix>3d</fix>
</trkpt>
<trkpt lat="33.810313" lon="-118.393867">
  <ele>-0.12</ele>
  <time>2026-09-02T22:07:17Z</time>
  <course>0.0</course>
  <speed>0.0</speed>
  <fix>3d</fix>
</trkpt>
<trkpt lat="33.8103132" lon="-118.3938672">
  <ele>-0.128</ele>
  <time>2026-09-02T22:07:17Z</time>
  <course>186.24</course>
  <speed>0.0282842712474619</speed>
  <fix>3d</fix>
</trkpt>
<trkpt lat="33.810313" lon="-118.393867">
  <ele>-0.12</ele>
  <time>2026-09-02T22:07:17Z</time>
  <course>0.0</course>
  <speed>0.0</speed>
  <fix>3d</fix>
</trkpt>
<trkpt lat="33.8103132" lon="-118.3938672">
  <ele>-0.129</ele>
  <time>2026-09-02T22:07:17Z</time>
  <course>186.24</course>
  <speed>0.0282842712474619</speed>
  <fix>3d</fix>
</trkpt>
<trkpt lat="33.810313" lon="-118.393867">
  <ele>-0.12</ele>
  <time>2026-09-02T22:07:17Z</time>
  <course>0.0</course>
  <speed>0.0</speed>
  <fix>3d</fix>
</trkpt>
<trkpt lat="33.8103132" lon="-118.3938672">
  <ele>-0.129</ele>
  <time>2026-09-02T22:07:17Z</time>
  <course>186.24</course>
  <speed>0.0282842712474619</speed>
  <fix>3d</fix>
</trkpt>
<trkpt lat="33.810313" lon="-118.393867">
  <ele>-0.12</ele>
  <time>2026-09-02T22:07:17Z</time>
  <course>0.0</course>
  <speed>0.0</speed>
  <fix>3d</fix>
</trkpt>
<trkpt lat="33.8103132" lon="-118.3938672">
  <ele>-0.128</ele>
  <time>2026-09-02T22:07:17Z</time>
  <course>186.24</course>
  <speed>0.0282842712474619</speed>
  <fix>3d</fix>
</trkpt>
<trkpt lat="33.810313" lon="-118.393867">
  <ele>-0.12</ele>
  <time>2026-09-02T22:07:17Z</time>
  <course>0.0</course>
  <speed>0.0</speed>
  <fix>3d</fix>
</trkpt>
<trkpt lat="33.8103132" lon="-118.3938672">
  <ele>-0.127</ele>
  <time>2026-09-02T22:07:17Z</time>
  <course>186.24</course>
  <speed>0.0282842712474619</speed>
  <fix>3d</fix>
</trkpt>
<trkpt lat="33.810313" lon="-118.393867">
  <ele>-0.12</ele>
  <time>2026-09-02T22:07:17Z</time>
  <course>0.0</course>
  <speed>0.0</speed>
  <fix>3d</fix>
</trkpt>
<trkpt lat="33.8103132" lon="-118.3938672">
  <ele>-0.126</ele>
  <time>2026-09-02T22:07:17Z</time>
  <course>186.24</course>
  <speed>0.0282842712474619</speed>
  <fix>3d</fix>
</trkpt>
<trkpt lat="33.810313" lon="-118.393867">
  <ele>-0.12</ele>
  <time>2026-09-02T22:07:17Z</time>
  <course>0.0</course>
  <speed>0.0</speed>
  <fix>3d</fix>
</trkpt>
<trkpt lat="33.8103132" lon="-118.3938672">
  <ele>-0.125</ele>
  <time>2026-09-02T22:07:17Z</time>
  <course>186.23</course>
  <speed>0.0282842712474619</speed>
  <fix>3d</fix>
</trkpt>
<trkpt lat="33.810313" lon="-118.393867">
  <ele>-0.12</ele>
  <time>2026-09-02T22:07:17Z</time>
  <course>0.0</course>
  <speed>0.0</speed>
  <fix>3d</fix>
</trkpt>
<trkpt lat="33.8103132" lon="-118.3938672">
  <ele>-0.125</ele>
  <time>2026-09-02T22:07:17Z</time>
  <course>186.23</course>
  <speed>0.0282842712474619</speed>
  <fix>3d</fix>
</trkpt>
<trkpt lat="33.810313" lon="-118.393867">
  <ele>-0.12</ele>
  <time>2026-09-02T22:07:17Z</time>
  <course>0.0</course>
  <speed>0.0</speed>
  <fix>3d</fix>
</trkpt>
<trkpt lat="33.8103132" lon="-118.3938672">
  <ele>-0.127</ele>
  <time>2026-09-02T22:07:17Z</time>
  <course>186.23</course>
  <speed>0.0282842712474619</speed>
  <fix>3d</fix>
</trkpt>
<trkpt lat="33.810313" lon="-118.393867">
  <ele>-0.12</ele>
  <time>2026-09-02T22:07:17Z</time>
  <course>0.0</course>
  <speed>0.0</speed>
  <fix>3d</fix>
</trkpt>
<trkpt lat="33.8103132" lon="-118.3938672">
  <ele>-0.128</ele>
  <time>2026-09-02T22:07:17Z</time>
  <course>186.23</course>
  <speed>0.0282842712474619</speed>
  <fix>3d</fix>
</trkpt>
<trkpt lat="33.810313" lon="-118.393867">
  <ele>-0.12</ele>
  <time>2026-09-02T22:07:17Z</time>
  <course>0.0</course>
  <speed>0.0</speed>
  <fix>3d</fix>
</trkpt>
<trkpt lat="33.8103132" lon="-118.3938672">
  <ele>-0.129</ele>
  <time>2026-09-02T22:07:17Z</time>
  <course>186.23</course>
  <speed>0.0282842712474619</speed>
  <fix>3d</fix>
</trkpt>
<trkpt lat="33.810313" lon="-118.393867">
  <ele>-0.12</ele>
  <time>2026-09-02T22:07:17Z</time>
  <course>0.0</course>
  <speed>0.0</speed>
  <fix>3d</fix>
</trkpt>
<trkpt lat="33.8103132" lon="-118.3938672">
  <ele>-0.13</ele>
  <time>2026-09-02T22:07:17Z</time>
  <course>186.23</course>
  <speed>0.0282842712474619</speed>
  <fix>3d</fix>
</trkpt>
<trkpt lat="33.810313" lon="-118.393867">
  <ele>-0.12</ele>
  <time>2026-09-02T22:07:17Z</time>
  <course>0.0</course>
  <speed>0.0</speed>
  <fix>3d</fix>
</trkpt>
<trkpt lat="33.8103132" lon="-118.3938672">
  <ele>-0.13</ele>
  <time>2026-09-02T22:07:17Z</time>
  <course>186.23</course>
  <speed>0.0282842712474619</speed>
  <fix>3d</fix>
</trkpt>
<trkpt lat="33.810313" lon="-118.393867">
  <ele>-0.12</ele>
  <time>2026-09-02T22:07:17Z</time>
  <course>0.0</course>
  <speed>0.0</speed>
  <fix>3d</fix>
</trkpt>
<trkpt lat="33.8103132" lon="-118.3938672">
  <ele>-0.128</ele>
  <time>2026-09-02T22:07:17Z</time>
  <course>186.23</course>
  <speed>0.0282842712474619</speed>
  <fix>3d</fix>
</trkpt>
<trkpt lat="33.810313" lon="-118.393867">
  <ele>-0.12</ele>
  <time>2026-09-02T22:07:17Z</time>
  <course>0.0</course>
  <speed>0.0</speed>
  <fix>3d</fix>
</trkpt>
<trkpt lat="33.8103132" lon="-118.3938672">
  <ele>-0.127</ele>
  <time>2026-09-02T22:07:17Z</time>
  <course>186.23</course>
  <speed>0.0282842712474619</speed>
  <fix>3d</fix>
</trkpt>
<trkpt lat="33.810313" lon="-118.393867">
  <ele>-0.12</ele>
  <time>2026-09-02T22:07:17Z</time>
  <course>0.0</course>
  <speed>0.0</speed>
  <fix>3d</fix>
</trkpt>
<trkpt lat="33.8103132" lon="-118.3938672">
  <ele>-0.125</ele>
  <time>2026-09-02T22:07:17Z</time>
  <course>186.23</course>
  <speed>0.0282842712474619</speed>
  <fix>3d</fix>
</trkpt>
<trkpt lat="33.810313" lon="-118.393867">
  <ele>-0.12</ele>
  <time>2026-09-02T22:07:17Z</time>
  <course>0.0</course>
  <speed>0.0</speed>
  <fix>3d</fix>
</trkpt>
<trkpt lat="33.8103132" lon="-118.3938672">
  <ele>-0.124</ele>
  <time>2026-09-02T22:07:17Z</time>
  <course>186.23</course>
  <speed>0.0282842712474619</speed>
  <fix>3d</fix>
</trkpt>
<trkpt lat="33.810313" lon="-118.393867">
  <ele>-0.12</ele>
  <time>2026-09-02T22:07:17Z</time>
  <course>0.0</course>
  <speed>0.0</speed>
  <fix>3d</fix>
</trkpt>
<trkpt lat="33.8103132" lon="-118.3938672">
  <ele>-0.124</ele>
  <time>2026-09-02T22:07:17Z</time>
  <course>186.22</course>
  <speed>0.0282842712474619</speed>
  <fix>3d</fix>
</trkpt>
<trkpt lat="33.810313" lon="-118.393867">
  <ele>-0.12</ele>
  <time>2026-09-02T22:07:17Z</time>
  <course>0.0</course>
  <speed>0.0</speed>
  <fix>3d</fix>
</trkpt>
<trkpt lat="33.8103132" lon="-118.3938672">
  <ele>-0.123</ele>
  <time>2026-09-02T22:07:17Z</time>
  <course>186.22</course>
  <speed>0.0282842712474619</speed>
  <fix>3d</fix>
</trkpt>
<trkpt lat="33.810313" lon="-118.393867">
  <ele>-0.12</ele>
  <time>2026-09-02T22:07:17Z</time>
  <course>0.0</course>
  <speed>0.0</speed>
  <fix>3d</fix>
</trkpt>
<trkpt lat="33.8103132" lon="-118.3938672">
  <ele>-0.123</ele>
  <time>2026-09-02T22:07:17Z</time>
  <course>186.22</course>
  <speed>0.0282842712474619</speed>
  <fix>3d</fix>
</trkpt>
<trkpt lat="33.810313" lon="-118.393867">
  <ele>-0.12</ele>
  <time>2026-09-02T22:07:17Z</time>
  <course>0.0</course>
  <speed>0.0</speed>
  <fix>3d</fix>
</trkpt>
<trkpt lat="33.8103132" lon="-118.3938672">
  <ele>-0.122</ele>
  <time>2026-09-02T22:07:17Z</time>
  <course>186.22</course>
  <speed>0.0282842712474619</speed>
  <fix>3d</fix>
</trkpt>
<trkpt lat="33.810313" lon="-118.393867">
  <ele>-0.12</ele>
  <time>2026-09-02T22:07:17Z</time>
  <course>0.0</course>
  <speed>0.0</speed>
  <fix>3d</fix>
</trkpt>
<trkpt lat="33.8103132" lon="-118.3938672">
  <ele>-0.12</ele>
  <time>2026-09-02T22:07:17Z</time>
  <course>186.22</course>
  <speed>0.0282842712474619</speed>
  <fix>3d</fix>
</trkpt>
<trkpt lat="33.810313" lon="-118.393867">
  <ele>-0.12</ele>
  <time>2026-09-02T22:07:17Z</time>
  <course>0.0</course>
  <speed>0.0</speed>
  <fix>3d</fix>
</trkpt>
<trkpt lat="33.8103132" lon="-118.3938672">
  <ele>-0.118</ele>
  <time>2026-09-02T22:07:17Z</time>
  <course>186.22</course>
  <speed>0.0282842712474619</speed>
  <fix>3d</fix>
</trkpt>
<trkpt lat="33.810313" lon="-118.393867">
  <ele>-0.12</ele>
  <time>2026-09-02T22:07:17Z</time>
  <course>0.0</course>
  <speed>0.0</speed>
  <fix>3d</fix>
</trkpt>
<trkpt lat="33.8103132" lon="-118.3938672">
  <ele>-0.116</ele>
  <time>2026-09-02T22:07:17Z</time>
  <course>186.22</course>
  <speed>0.0282842712474619</speed>
  <fix>3d</fix>
</trkpt>
<trkpt lat="33.810313" lon="-118.393867">
  <ele>-0.12</ele>
  <time>2026-09-02T22:07:17Z</time>
  <course>0.0</course>
  <speed>0.0</speed>
  <fix>3d</fix>
</trkpt>
<trkpt lat="33.8103132" lon="-118.3938672">
  <ele>-0.114</ele>
  <time>2026-09-02T22:07:17Z</time>
  <course>186.22</course>
  <speed>0.0282842712474619</speed>
  <fix>3d</fix>
</trkpt>
<trkpt lat="33.810313" lon="-118.393867">
  <ele>-0.12</ele>
  <time>2026-09-02T22:07:17Z</time>
  <course>0.0</course>
  <speed>0.0</speed>
  <fix>3d</fix>
</trkpt>
<trkpt lat="33.8103132" lon="-118.3938672">
  <ele>-0.113</ele>
  <time>2026-09-02T22:07:17Z</time>
  <course>186.22</course>
  <speed>0.0282842712474619</speed>
  <fix>3d</fix>
</trkpt>
<trkpt lat="33.810313" lon="-118.393867">
  <ele>-0.12</ele>
  <time>2026-09-02T22:07:17Z</time>
  <course>0.0</course>
  <speed>0.0</speed>
  <fix>3d</fix>
</trkpt>
<trkpt lat="33.8103132" lon="-118.3938672">
  <ele>-0.111</ele>
  <time>2026-09-02T22:07:17Z</time>
  <course>186.22</course>
  <speed>0.0282842712474619</speed>
  <fix>3d</fix>
</trkpt>
<trkpt lat="33.810313" lon="-118.393867">
  <ele>-0.12</ele>
  <time>2026-09-02T22:07:17Z</time>
  <course>0.0</course>
  <speed>0.0</speed>
  <fix>3d</fix>
</trkpt>
<trkpt lat="33.8103132" lon="-118.3938672">
  <ele>-0.11</ele>
  <time>2026-09-02T22:07:17Z</time>
  <course>186.21</course>
  <speed>0.0282842712474619</speed>
  <fix>3d</fix>
</trkpt>
<trkpt lat="33.810313" lon="-118.393867">
  <ele>-0.12</ele>
  <time>2026-09-02T22:07:17Z</time>
  <course>0.0</course>
  <speed>0.0</speed>
  <fix>3d</fix>
</trkpt>
<trkpt lat="33.8103132" lon="-118.3938672">
  <ele>-0.11</ele>
  <time>2026-09-02T22:07:17Z</time>
  <course>186.21</course>
  <speed>0.0282842712474619</speed>
  <fix>3d</fix>
</trkpt>
<trkpt lat="33.810313" lon="-118.393867">
  <ele>-0.12</ele>
  <time>2026-09-02T22:07:17Z</time>
  <course>0.0</course>
  <speed>0.0</speed>
  <fix>3d</fix>
</trkpt>
<trkpt lat="33.8103132" lon="-118.3938672">
  <ele>-0.11</ele>
  <time>2026-09-02T22:07:17Z</time>
  <course>186.21</course>
  <speed>0.0282842712474619</speed>
  <fix>3d</fix>
</trkpt>
<trkpt lat="33.810313" lon="-118.393867">
  <ele>-0.12</ele>
  <time>2026-09-02T22:07:17Z</time>
  <course>0.0</course>
  <speed>0.0</speed>
  <fix>3d</fix>
</trkpt>
<trkpt lat="33.8103132" lon="-118.3938672">
  <ele>-0.112</ele>
  <time>2026-09-02T22:07:17Z</time>
  <course>186.21</course>
  <speed>0.0282842712474619</speed>
  <fix>3d</fix>
</trkpt>
<trkpt lat="33.810313" lon="-118.393867">
  <ele>-0.12</ele>
  <time>2026-09-02T22:07:17Z</time>
  <course>0.0</course>
  <speed>0.0</speed>
  <fix>3d</fix>
</trkpt>
<trkpt lat="33.8103132" lon="-118.3938672">
  <ele>-0.114</ele>
  <time>2026-09-02T22:07:17Z</time>
  <course>186.21</course>
  <speed>0.0282842712474619</speed>
  <fix>3d</fix>
</trkpt>
<trkpt lat="33.810313" lon="-118.393867">
  <ele>-0.12</ele>
  <time>2026-09-02T22:07:17Z</time>
  <course>0.0</course>
  <speed>0.0</speed>
  <fix>3d</fix>
</trkpt>
<trkpt lat="33.8103132" lon="-118.3938672">
  <ele>-0.116</ele>
  <time>2026-09-02T22:07:17Z</time>
  <course>186.21</course>
  <speed>0.0282842712474619</speed>
  <fix>3d</fix>
</trkpt>
<trkpt lat="33.810313" lon="-118.393867">
  <ele>-0.12</ele>
  <time>2026-09-02T22:07:17Z</time>
  <course>0.0</course>
  <speed>0.0</speed>
  <fix>3d</fix>
</trkpt>
<trkpt lat="33.8103132" lon="-118.3938672">
  <ele>-0.117</ele>
  <time>2026-09-02T22:07:17Z</time>
  <course>186.21</course>
  <speed>0.0282842712474619</speed>
  <fix>3d</fix>
</trkpt>
<trkpt lat="33.810313" lon="-118.393867">
  <ele>-0.12</ele>
  <time>2026-09-02T22:07:17Z</time>
  <course>0.0</course>
  <speed>0.0</speed>
  <fix>3d</fix>
</trkpt>
<trkpt lat="33.8103132" lon="-118.3938672">
  <ele>-0.118</ele>
  <time>2026-09-02T22:07:17Z</time>
  <course>186.21</course>
  <speed>0.0282842712474619</speed>
  <fix>3d</fix>
</trkpt>
<trkpt lat="33.810313" lon="-118.393867">
  <ele>-0.12</ele>
  <time>2026-09-02T22:07:17Z</time>
  <course>0.0</course>
  <speed>0.0</speed>
  <fix>3d</fix>
</trkpt>
<trkpt lat="33.8103132" lon="-118.3938672">
  <ele>-0.118</ele>
  <time>2026-09-02T22:07:17Z</time>
  <course>186.21</course>
  <speed>0.0282842712474619</speed>
  <fix>3d</fix>
</trkpt>
<trkpt lat="33.810313" lon="-118.393867">
  <ele>-0.12</ele>
  <time>2026-09-02T22:07:17Z</time>
  <course>0.0</course>
  <speed>0.0</speed>
  <fix>3d</fix>
</trkpt>
<trkpt lat="33.8103132" lon="-118.3938672">
  <ele>-0.117</ele>
  <time>2026-09-02T22:07:17Z</time>
  <course>186.21</course>
  <speed>0.0282842712474619</speed>
  <fix>3d</fix>
</trkpt>
<trkpt lat="33.810313" lon="-118.393867">
  <ele>-0.12</ele>
  <time>2026-09-02T22:07:17Z</time>
  <course>0.0</course>
  <speed>0.0</speed>
  <fix>3d</fix>
</trkpt>
<trkpt lat="33.8103132" lon="-118.3938672">
  <ele>-0.118</ele>
  <time>2026-09-02T22:07:17Z</time>
  <course>186.21</course>
  <speed>0.0282842712474619</speed>
  <fix>3d</fix>
</trkpt>
<trkpt lat="33.810313" lon="-118.393867">
  <ele>-0.12</ele>
  <time>2026-09-02T22:07:17Z</time>
  <course>0.0</course>
  <speed>0.0</speed>
  <fix>3d</fix>
</trkpt>
<trkpt lat="33.8103132" lon="-118.3938672">
  <ele>-0.12</ele>
  <time>2026-09-02T22:07:17Z</time>
  <course>186.2</course>
  <speed>0.0282842712474619</speed>
  <fix>3d</fix>
</trkpt>
<trkpt lat="33.810313" lon="-118.393867">
  <ele>-0.12</ele>
  <time>2026-09-02T22:07:17Z</time>
  <course>0.0</course>
  <speed>0.0</speed>
  <fix>3d</fix>
</trkpt>
<trkpt lat="33.8103132" lon="-118.3938672">
  <ele>-0.122</ele>
  <time>2026-09-02T22:07:17Z</time>
  <course>186.2</course>
  <speed>0.0282842712474619</speed>
  <fix>3d</fix>
</trkpt>
<trkpt lat="33.810313" lon="-118.393867">
  <ele>-0.12</ele>
  <time>2026-09-02T22:07:17Z</time>
  <course>0.0</course>
  <speed>0.0</speed>
  <fix>3d</fix>
</trkpt>
<trkpt lat="33.8103132" lon="-118.3938672">
  <ele>-0.124</ele>
  <time>2026-09-02T22:07:17Z</time>
  <course>186.2</course>
  <speed>0.0282842712474619</speed>
  <fix>3d</fix>
</trkpt>
<trkpt lat="33.810313" lon="-118.393867">
  <ele>-0.12</ele>
  <time>2026-09-02T22:07:17Z</time>
  <course>0.0</course>
  <speed>0.0</speed>
  <fix>3d</fix>
</trkpt>
<trkpt lat="33.8103132" lon="-118.3938672">
  <ele>-0.125</ele>
  <time>2026-09-02T22:07:17Z</time>
  <course>186.2</course>
  <speed>0.0282842712474619</speed>
  <fix>3d</fix>
</trkpt>
<trkpt lat="33.810313" lon="-118.393867">
  <ele>-0.12</ele>
  <time>2026-09-02T22:07:17Z</time>
  <course>0.0</course>
  <speed>0.0</speed>
  <fix>3d</fix>
</trkpt>
<trkpt lat="33.8103132" lon="-118.3938672">
  <ele>-0.125</ele>
  <time>2026-09-02T22:07:17Z</time>
  <course>186.2</course>
  <speed>0.0282842712474619</speed>
  <fix>3d</fix>
</trkpt>
<trkpt lat="33.810313" lon="-118.393867">
  <ele>-0.12</ele>
  <time>2026-09-02T22:07:17Z</time>
  <course>0.0</course>
  <speed>0.0</speed>
  <fix>3d</fix>
</trkpt>
<trkpt lat="33.8103132" lon="-118.3938672">
  <ele>-0.125</ele>
  <time>2026-09-02T22:07:17Z</time>
  <course>186.2</course>
  <speed>0.0282842712474619</speed>
  <fix>3d</fix>
</trkpt>
<trkpt lat="33.810313" lon="-118.393867">
  <ele>-0.12</ele>
  <time>2026-09-02T22:07:17Z</time>
  <course>0.0</course>
  <speed>0.0</speed>
  <fix>3d</fix>
</trkpt>
<trkpt lat="33.8103132" lon="-118.3938672">
  <ele>-0.125</ele>
  <time>2026-09-02T22:07:17Z</time>
  <course>186.2</course>
  <speed>0.0282842712474619</speed>
  <fix>3d</fix>
</trkpt>
<trkpt lat="33.810313" lon="-118.393867">
  <ele>-0.12</ele>
  <time>2026-09-02T22:07:17Z</time>
  <course>0.0</course>
  <speed>0.0</speed>
  <fix>3d</fix>
</trkpt>
<trkpt lat="33.8103132" lon="-118.3938672">
  <ele>-0.124</ele>
  <time>2026-09-02T22:07:17Z</time>
  <course>186.2</course>
  <speed>0.0282842712474619</speed>
  <fix>3d</fix>
</trkpt>
<trkpt lat="33.810313" lon="-118.393867">
  <ele>-0.12</ele>
  <time>2026-09-02T22:07:17Z</time>
  <course>0.0</course>
  <speed>0.0</speed>
  <fix>3d</fix>
</trkpt>
<trkpt lat="33.8103132" lon="-118.3938672">
  <ele>-0.123</ele>
  <time>2026-09-02T22:07:17Z</time>
  <course>186.2</course>
  <speed>0.0282842712474619</speed>
  <fix>3d</fix>
</trkpt>
<trkpt lat="33.810313" lon="-118.393867">
  <ele>-0.12</ele>
  <time>2026-09-02T22:07:17Z</time>
  <course>0.0</course>
  <speed>0.0</speed>
  <fix>3d</fix>
</trkpt>
<trkpt lat="33.8103132" lon="-118.3938672">
  <ele>-0.123</ele>
  <time>2026-09-02T22:07:17Z</time>
  <course>186.2</course>
  <speed>0.0282842712474619</speed>
  <fix>3d</fix>
</trkpt>
<trkpt lat="33.810313" lon="-118.393867">
  <ele>-0.12</ele>
  <time>2026-09-02T22:07:17Z</time>
  <course>0.0</course>
  <speed>0.0</speed>
  <fix>3d</fix>
</trkpt>
<trkpt lat="33.8103132" lon="-118.3938672">
  <ele>-0.123</ele>
  <time>2026-09-02T22:07:17Z</time>
  <course>186.2</course>
  <speed>0.0282842712474619</speed>
  <fix>3d</fix>
</trkpt>
<trkpt lat="33.810313" lon="-118.393867">
  <ele>-0.12</ele>
  <time>2026-09-02T22:07:17Z</time>
  <course>0.0</course>
  <speed>0.0</speed>
  <fix>3d</fix>
</trkpt>
<trkpt lat="33.8103132" lon="-118.3938672">
  <ele>-0.124</ele>
  <time>2026-09-02T22:07:17Z</time>
  <course>186.2</course>
  <speed>0.0282842712474619</speed>
  <fix>3d</fix>
</trkpt>
<trkpt lat="33.810313" lon="-118.393867">
  <ele>-0.12</ele>
  <time>2026-09-02T22:07:17Z</time>
  <course>0.0</course>
  <speed>0.0</speed>
  <fix>3d</fix>
</trkpt>
<trkpt lat="33.8103132" lon="-118.3938672">
  <ele>-0.125</ele>
  <time>2026-09-02T22:07:17Z</time>
  <course>186.2</course>
  <speed>0.0282842712474619</speed>
  <fix>3d</fix>
</trkpt>
<trkpt lat="33.810313" lon="-118.393867">
  <ele>-0.12</ele>
  <time>2026-09-02T22:07:17Z</time>
  <course>0.0</course>
  <speed>0.0</speed>
  <fix>3d</fix>
</trkpt>
<trkpt lat="33.8103132" lon="-118.3938672">
  <ele>-0.125</ele>
  <time>2026-09-02T22:07:17Z</time>
  <course>186.19</course>
  <speed>0.0282842712474619</speed>
  <fix>3d</fix>
</trkpt>
<trkpt lat="33.810313" lon="-118.393867">
  <ele>-0.12</ele>
  <time>2026-09-02T22:07:17Z</time>
  <course>0.0</course>
  <speed>0.0</speed>
  <fix>3d</fix>
</trkpt>
<trkpt lat="33.8103132" lon="-118.3938672">
  <ele>-0.125</ele>
  <time>2026-09-02T22:07:17Z</time>
  <course>186.19</course>
  <speed>0.0282842712474619</speed>
  <fix>3d</fix>
</trkpt>
<trkpt lat="33.810313" lon="-118.393867">
  <ele>-0.12</ele>
  <time>2026-09-02T22:07:17Z</time>
  <course>0.0</course>
  <speed>0.0</speed>
  <fix>3d</fix>
</trkpt>
<trkpt lat="33.8103132" lon="-118.3938672">
  <ele>-0.125</ele>
  <time>2026-09-02T22:07:17Z</time>
  <course>186.19</course>
  <speed>0.0282842712474619</speed>
  <fix>3d</fix>
</trkpt>
<trkpt lat="33.810313" lon="-118.393867">
  <ele>-0.12</ele>
  <time>2026-09-02T22:07:17Z</time>
  <course>0.0</course>
  <speed>0.0</speed>
  <fix>3d</fix>
</trkpt>
<trkpt lat="33.8103132" lon="-118.3938672">
  <ele>-0.125</ele>
  <time>2026-09-02T22:07:17Z</time>
  <course>186.19</course>
  <speed>0.0282842712474619</speed>
  <fix>3d</fix>
</trkpt>
<trkpt lat="33.810313" lon="-118.393867">
  <ele>-0.12</ele>
  <time>2026-09-02T22:07:17Z</time>
  <course>0.0</course>
  <speed>0.0</speed>
  <fix>3d</fix>
</trkpt>
<trkpt lat="33.8103132" lon="-118.3938672">
  <ele>-0.125</ele>
  <time>2026-09-02T22:07:17Z</time>
  <course>186.19</course>
  <speed>0.0282842712474619</speed>
  <fix>3d</fix>
</trkpt>
<trkpt lat="33.810313" lon="-118.393867">
  <ele>-0.12</ele>
  <time>2026-09-02T22:07:17Z</time>
  <course>0.0</course>
  <speed>0.0</speed>
  <fix>3d</fix>
</trkpt>
<trkpt lat="33.8103132" lon="-118.3938672">
  <ele>-0.126</ele>
  <time>2026-09-02T22:07:17Z</time>
  <course>186.19</course>
  <speed>0.0282842712474619</speed>
  <fix>3d</fix>
</trkpt>
<trkpt lat="33.810313" lon="-118.393867">
  <ele>-0.12</ele>
  <time>2026-09-02T22:07:17Z</time>
  <course>0.0</course>
  <speed>0.0</speed>
  <fix>3d</fix>
</trkpt>
<trkpt lat="33.8103132" lon="-118.3938672">
  <ele>-0.126</ele>
  <time>2026-09-02T22:07:17Z</time>
  <course>186.19</course>
  <speed>0.0282842712474619</speed>
  <fix>3d</fix>
</trkpt>
<trkpt lat="33.810313" lon="-118.393867">
  <ele>-0.12</ele>
  <time>2026-09-02T22:07:17Z</time>
  <course>0.0</course>
  <speed>0.0</speed>
  <fix>3d</fix>
</trkpt>
<trkpt lat="33.8103132" lon="-118.3938672">
  <ele>-0.127</ele>
  <time>2026-09-02T22:07:17Z</time>
  <course>186.19</course>
  <speed>0.0282842712474619</speed>
  <fix>3d</fix>
</trkpt>
<trkpt lat="33.810313" lon="-118.393867">
  <ele>-0.12</ele>
  <time>2026-09-02T22:07:17Z</time>
  <course>0.0</course>
  <speed>0.0</speed>
  <fix>3d</fix>
</trkpt>
<trkpt lat="33.8103132" lon="-118.3938672">
  <ele>-0.129</ele>
  <time>2026-09-02T22:07:17Z</time>
  <course>186.19</course>
  <speed>0.0282842712474619</speed>
  <fix>3d</fix>
</trkpt>
<trkpt lat="33.810313" lon="-118.393867">
  <ele>-0.12</ele>
  <time>2026-09-02T22:07:17Z</time>
  <course>0.0</course>
  <speed>0.0</speed>
  <fix>3d</fix>
</trkpt>
<trkpt lat="33.8103132" lon="-118.3938672">
  <ele>-0.129</ele>
  <time>2026-09-02T22:07:17Z</time>
  <course>186.19</course>
  <speed>0.0282842712474619</speed>
  <fix>3d</fix>
</trkpt>
<trkpt lat="33.810313" lon="-118.393867">
  <ele>-0.12</ele>
  <time>2026-09-02T22:07:17Z</time>
  <course>0.0</course>
  <speed>0.0</speed>
  <fix>3d</fix>
</trkpt>
<trkpt lat="33.8103132" lon="-118.3938672">
  <ele>-0.13</ele>
  <time>2026-09-02T22:07:17Z</time>
  <course>186.19</course>
  <speed>0.0282842712474619</speed>
  <fix>3d</fix>
</trkpt>
<trkpt lat="33.810313" lon="-118.393867">
  <ele>-0.12</ele>
  <time>2026-09-02T22:07:17Z</time>
  <course>0.0</course>
  <speed>0.0</speed>
  <fix>3d</fix>
</trkpt>
<trkpt lat="33.8103132" lon="-118.3938672">
  <ele>-0.13</ele>
  <time>2026-09-02T22:07:17Z</time>
  <course>186.19</course>
  <speed>0.0282842712474619</speed>
  <fix>3d</fix>
</trkpt>
<trkpt lat="33.810313" lon="-118.393867">
  <ele>-0.12</ele>
  <time>2026-09-02T22:07:17Z</time>
  <course>0.0</course>
  <speed>0.0</speed>
  <fix>3d</fix>
</trkpt>
<trkpt lat="33.8103132" lon="-118.3938672">
  <ele>-0.13</ele>
  <time>2026-09-02T22:07:17Z</time>
  <course>186.19</course>
  <speed>0.0282842712474619</speed>
  <fix>3d</fix>
</trkpt>
<trkpt lat="33.810313" lon="-118.393867">
  <ele>-0.12</ele>
  <time>2026-09-02T22:07:17Z</time>
  <course>0.0</course>
  <speed>0.0</speed>
  <fix>3d</fix>
</trkpt>
<trkpt lat="33.8103132" lon="-118.3938672">
  <ele>-0.129</ele>
  <time>2026-09-02T22:07:17Z</time>
  <course>186.19</course>
  <speed>0.0282842712474619</speed>
  <fix>3d</fix>
</trkpt>
<trkpt lat="33.810313" lon="-118.393867">
  <ele>-0.12</ele>
  <time>2026-09-02T22:07:17Z</time>
  <course>0.0</course>
  <speed>0.0</speed>
  <fix>3d</fix>
</trkpt>
<trkpt lat="33.8103132" lon="-118.3938672">
  <ele>-0.129</ele>
  <time>2026-09-02T22:07:17Z</time>
  <course>186.19</course>
  <speed>0.0282842712474619</speed>
  <fix>3d</fix>
</trkpt>
<trkpt lat="33.810313" lon="-118.393867">
  <ele>-0.12</ele>
  <time>2026-09-02T22:07:17Z</time>
  <course>0.0</course>
  <speed>0.0</speed>
  <fix>3d</fix>
</trkpt>
<trkpt lat="33.8103132" lon="-118.3938672">
  <ele>-0.129</ele>
  <time>2026-09-02T22:07:17Z</time>
  <course>186.18</course>
  <speed>0.0282842712474619</speed>
  <fix>3d</fix>
</trkpt>
<trkpt lat="33.810313" lon="-118.393867">
  <ele>-0.12</ele>
  <time>2026-09-02T22:07:17Z</time>
  <course>0.0</course>
  <speed>0.0</speed>
  <fix>3d</fix>
</trkpt>
<trkpt lat="33.8103132" lon="-118.3938672">
  <ele>-0.128</ele>
  <time>2026-09-02T22:07:17Z</time>
  <course>186.18</course>
  <speed>0.0282842712474619</speed>
  <fix>3d</fix>
</trkpt>
<trkpt lat="33.810313" lon="-118.393867">
  <ele>-0.12</ele>
  <time>2026-09-02T22:07:17Z</time>
  <course>0.0</course>
  <speed>0.0</speed>
  <fix>3d</fix>
</trkpt>
<trkpt lat="33.8103132" lon="-118.3938672">
  <ele>-0.127</ele>
  <time>2026-09-02T22:07:17Z</time>
  <course>186.18</course>
  <speed>0.0282842712474619</speed>
  <fix>3d</fix>
</trkpt>
<trkpt lat="33.810313" lon="-118.393867">
  <ele>-0.12</ele>
  <time>2026-09-02T22:07:17Z</time>
  <course>0.0</course>
  <speed>0.0</speed>
  <fix>3d</fix>
</trkpt>
<trkpt lat="33.8103132" lon="-118.3938672">
  <ele>-0.127</ele>
  <time>2026-09-02T22:07:17Z</time>
  <course>186.18</course>
  <speed>0.0282842712474619</speed>
  <fix>3d</fix>
</trkpt>
<trkpt lat="33.810313" lon="-118.393867">
  <ele>-0.12</ele>
  <time>2026-09-02T22:07:17Z</time>
  <course>0.0</course>
  <speed>0.0</speed>
  <fix>3d</fix>
</trkpt>
<trkpt lat="33.8103132" lon="-118.3938672">
  <ele>-0.126</ele>
  <time>2026-09-02T22:07:17Z</time>
  <course>186.18</course>
  <speed>0.0282842712474619</speed>
  <fix>3d</fix>
</trkpt>
<trkpt lat="33.810313" lon="-118.393867">
  <ele>-0.12</ele>
  <time>2026-09-02T22:07:17Z</time>
  <course>0.0</course>
  <speed>0.0</speed>
  <fix>3d</fix>
</trkpt>
<trkpt lat="33.8103132" lon="-118.3938672">
  <ele>-0.126</ele>
  <time>2026-09-02T22:07:17Z</time>
  <course>186.18</course>
  <speed>0.0282842712474619</speed>
  <fix>3d</fix>
</trkpt>
<trkpt lat="33.810313" lon="-118.393867">
  <ele>-0.12</ele>
  <time>2026-09-02T22:07:17Z</time>
  <course>0.0</course>
  <speed>0.0</speed>
  <fix>3d</fix>
</trkpt>
<trkpt lat="33.8103132" lon="-118.3938672">
  <ele>-0.126</ele>
  <time>2026-09-02T22:07:17Z</time>
  <course>186.18</course>
  <speed>0.0282842712474619</speed>
  <fix>3d</fix>
</trkpt>
<trkpt lat="33.810313" lon="-118.393867">
  <ele>-0.12</ele>
  <time>2026-09-02T22:07:17Z</time>
  <course>0.0</course>
  <speed>0.0</speed>
  <fix>3d</fix>
</trkpt>
<trkpt lat="33.8103132" lon="-118.3938672">
  <ele>-0.125</ele>
  <time>2026-09-02T22:07:17Z</time>
  <course>186.18</course>
  <speed>0.0282842712474619</speed>
  <fix>3d</fix>
</trkpt>
<trkpt lat="33.810313" lon="-118.393867">
  <ele>-0.12</ele>
  <time>2026-09-02T22:07:17Z</time>
  <course>0.0</course>
  <speed>0.0</speed>
  <fix>3d</fix>
</trkpt>
<trkpt lat="33.8103132" lon="-118.3938672">
  <ele>-0.123</ele>
  <time>2026-09-02T22:07:17Z</time>
  <course>186.18</course>
  <speed>0.0282842712474619</speed>
  <fix>3d</fix>
</trkpt>
<trkpt lat="33.810313" lon="-118.393867">
  <ele>-0.12</ele>
  <time>2026-09-02T22:07:17Z</time>
  <course>0.0</course>
  <speed>0.0</speed>
  <fix>3d</fix>
</trkpt>
<trkpt lat="33.8103132" lon="-118.3938672">
  <ele>-0.122</ele>
  <time>2026-09-02T22:07:17Z</time>
  <course>186.18</course>
  <speed>0.0282842712474619</speed>
  <fix>3d</fix>
</trkpt>
<trkpt lat="33.810313" lon="-118.393867">
  <ele>-0.12</ele>
  <time>2026-09-02T22:07:17Z</time>
  <course>0.0</course>
  <speed>0.0</speed>
  <fix>3d</fix>
</trkpt>
<trkpt lat="33.8103132" lon="-118.3938672">
  <ele>-0.121</ele>
  <time>2026-09-02T22:07:17Z</time>
  <course>186.18</course>
  <speed>0.0282842712474619</speed>
  <fix>3d</fix>
</trkpt>
<trkpt lat="33.810313" lon="-118.393867">
  <ele>-0.12</ele>
  <time>2026-09-02T22:07:17Z</time>
  <course>0.0</course>
  <speed>0.0</speed>
  <fix>3d</fix>
</trkpt>
<trkpt lat="33.8103132" lon="-118.3938672">
  <ele>-0.12</ele>
  <time>2026-09-02T22:07:17Z</time>
  <course>186.18</course>
  <speed>0.0282842712474619</speed>
  <fix>3d</fix>
</trkpt>
<trkpt lat="33.810313" lon="-118.393867">
  <ele>-0.12</ele>
  <time>2026-09-02T22:07:17Z</time>
  <course>0.0</course>
  <speed>0.0</speed>
  <fix>3d</fix>
</trkpt>
<trkpt lat="33.8103132" lon="-118.3938672">
  <ele>-0.12</ele>
  <time>2026-09-02T22:07:17Z</time>
  <course>186.18</course>
  <speed>0.0282842712474619</speed>
  <fix>3d</fix>
</trkpt>
<trkpt lat="33.810313" lon="-118.393867">
  <ele>-0.12</ele>
  <time>2026-09-02T22:07:17Z</time>
  <course>0.0</course>
  <speed>0.0</speed>
  <fix>3d</fix>
</trkpt>
<trkpt lat="33.8103132" lon="-118.3938672">
  <ele>-0.12</ele>
  <time>2026-09-02T22:07:17Z</time>
  <course>186.18</course>
  <speed>0.0282842712474619</speed>
  <fix>3d</fix>
</trkpt>
<trkpt lat="33.810313" lon="-118.393867">
  <ele>-0.12</ele>
  <time>2026-09-02T22:07:17Z</time>
  <course>0.0</course>
  <speed>0.0</speed>
  <fix>3d</fix>
</trkpt>
<trkpt lat="33.8103132" lon="-118.3938672">
  <ele>-0.121</ele>
  <time>2026-09-02T22:07:17Z</time>
  <course>186.17</course>
  <speed>0.0282842712474619</speed>
  <fix>3d</fix>
</trkpt>
<trkpt lat="33.810313" lon="-118.393867">
  <ele>-0.12</ele>
  <time>2026-09-02T22:07:17Z</time>
  <course>0.0</course>
  <speed>0.0</speed>
  <fix>3d</fix>
</trkpt>
<trkpt lat="33.8103132" lon="-118.3938672">
  <ele>-0.123</ele>
  <time>2026-09-02T22:07:17Z</time>
  <course>186.17</course>
  <speed>0.0282842712474619</speed>
  <fix>3d</fix>
</trkpt>
<trkpt lat="33.810313" lon="-118.393867">
  <ele>-0.12</ele>
  <time>2026-09-02T22:07:17Z</time>
  <course>0.0</course>
  <speed>0.0</speed>
  <fix>3d</fix>
</trkpt>
<trkpt lat="33.8103132" lon="-118.3938672">
  <ele>-0.125</ele>
  <time>2026-09-02T22:07:17Z</time>
  <course>186.17</course>
  <speed>0.0282842712474619</speed>
  <fix>3d</fix>
</trkpt>
<trkpt lat="33.810313" lon="-118.393867">
  <ele>-0.12</ele>
  <time>2026-09-02T22:07:17Z</time>
  <course>0.0</course>
  <speed>0.0</speed>
  <fix>3d</fix>
</trkpt>
<trkpt lat="33.8103132" lon="-118.3938672">
  <ele>-0.126</ele>
  <time>2026-09-02T22:07:17Z</time>
  <course>186.17</course>
  <speed>0.0282842712474619</speed>
  <fix>3d</fix>
</trkpt>
<trkpt lat="33.810313" lon="-118.393867">
  <ele>-0.12</ele>
  <time>2026-09-02T22:07:17Z</time>
  <course>0.0</course>
  <speed>0.0</speed>
  <fix>3d</fix>
</trkpt>
<trkpt lat="33.8103132" lon="-118.3938672">
  <ele>-0.128</ele>
  <time>2026-09-02T22:07:17Z</time>
  <course>186.17</course>
  <speed>0.0282842712474619</speed>
  <fix>3d</fix>
</trkpt>
<trkpt lat="33.810313" lon="-118.393867">
  <ele>-0.12</ele>
  <time>2026-09-02T22:07:17Z</time>
  <course>0.0</course>
  <speed>0.0</speed>
  <fix>3d</fix>
</trkpt>
<trkpt lat="33.8103132" lon="-118.3938672">
  <ele>-0.129</ele>
  <time>2026-09-02T22:07:17Z</time>
  <course>186.17</course>
  <speed>0.0282842712474619</speed>
  <fix>3d</fix>
</trkpt>
<trkpt lat="33.810313" lon="-118.393867">
  <ele>-0.12</ele>
  <time>2026-09-02T22:07:17Z</time>
  <course>0.0</course>
  <speed>0.0</speed>
  <fix>3d</fix>
</trkpt>
<trkpt lat="33.8103132" lon="-118.3938672">
  <ele>-0.13</ele>
  <time>2026-09-02T22:07:17Z</time>
  <course>186.17</course>
  <speed>0.0282842712474619</speed>
  <fix>3d</fix>
</trkpt>
<trkpt lat="33.810313" lon="-118.393867">
  <ele>-0.12</ele>
  <time>2026-09-02T22:07:17Z</time>
  <course>0.0</course>
  <speed>0.0</speed>
  <fix>3d</fix>
</trkpt>
<trkpt lat="33.8103132" lon="-118.3938672">
  <ele>-0.132</ele>
  <time>2026-09-02T22:07:17Z</time>
  <course>186.17</course>
  <speed>0.0282842712474619</speed>
  <fix>3d</fix>
</trkpt>
<trkpt lat="33.810313" lon="-118.393867">
  <ele>-0.12</ele>
  <time>2026-09-02T22:07:17Z</time>
  <course>0.0</course>
  <speed>0.0</speed>
  <fix>3d</fix>
</trkpt>
<trkpt lat="33.8103132" lon="-118.3938672">
  <ele>-0.133</ele>
  <time>2026-09-02T22:07:17Z</time>
  <course>186.17</course>
  <speed>0.0282842712474619</speed>
  <fix>3d</fix>
</trkpt>
<trkpt lat="33.810313" lon="-118.393867">
  <ele>-0.12</ele>
  <time>2026-09-02T22:07:17Z</time>
  <course>0.0</course>
  <speed>0.0</speed>
  <fix>3d</fix>
</trkpt>
<trkpt lat="33.8103132" lon="-118.3938672">
  <ele>-0.134</ele>
  <time>2026-09-02T22:07:17Z</time>
  <course>186.17</course>
  <speed>0.0282842712474619</speed>
  <fix>3d</fix>
</trkpt>
<trkpt lat="33.810313" lon="-118.393867">
  <ele>-0.12</ele>
  <time>2026-09-02T22:07:17Z</time>
  <course>0.0</course>
  <speed>0.0</speed>
  <fix>3d</fix>
</trkpt>
<trkpt lat="33.8103132" lon="-118.3938672">
  <ele>-0.135</ele>
  <time>2026-09-02T22:07:17Z</time>
  <course>186.17</course>
  <speed>0.0282842712474619</speed>
  <fix>3d</fix>
</trkpt>
<trkpt lat="33.810313" lon="-118.393867">
  <ele>-0.12</ele>
  <time>2026-09-02T22:07:17Z</time>
  <course>0.0</course>
  <speed>0.0</speed>
  <fix>3d</fix>
</trkpt>
<trkpt lat="33.8103132" lon="-118.3938672">
  <ele>-0.136</ele>
  <time>2026-09-02T22:07:17Z</time>
  <course>186.17</course>
  <speed>0.0282842712474619</speed>
  <fix>3d</fix>
</trkpt>
<trkpt lat="33.810313" lon="-118.393867">
  <ele>-0.12</ele>
  <time>2026-09-02T22:07:17Z</time>
  <course>0.0</course>
  <speed>0.0</speed>
  <fix>3d</fix>
</trkpt>
<trkpt lat="33.8103132" lon="-118.3938672">
  <ele>-0.137</ele>
  <time>2026-09-02T22:07:17Z</time>
  <course>186.17</course>
  <speed>0.0282842712474619</speed>
  <fix>3d</fix>
</trkpt>
<trkpt lat="33.810313" lon="-118.393867">
  <ele>-0.12</ele>
  <time>2026-09-02T22:07:17Z</time>
  <course>0.0</course>
  <speed>0.0</speed>
  <fix>3d</fix>
</trkpt>
<trkpt lat="33.8103132" lon="-118.3938672">
  <ele>-0.137</ele>
  <time>2026-09-02T22:07:17Z</time>
  <course>186.17</course>
  <speed>0.0282842712474619</speed>
  <fix>3d</fix>
</trkpt>
<trkpt lat="33.810313" lon="-118.393867">
  <ele>-0.12</ele>
  <time>2026-09-02T22:07:17Z</time>
  <course>0.0</course>
  <speed>0.0</speed>
  <fix>3d</fix>
</trkpt>
<trkpt lat="33.8103132" lon="-118.3938672">
  <ele>-0.137</ele>
  <time>2026-09-02T22:07:17Z</time>
  <course>186.17</course>
  <speed>0.022360679774997897</speed>
  <fix>3d</fix>
</trkpt>
<trkpt lat="33.810313" lon="-118.393867">
  <ele>-0.12</ele>
  <time>2026-09-02T22:07:17Z</time>
  <course>0.0</course>
  <speed>0.0</speed>
  <fix>3d</fix>
</trkpt>
<trkpt lat="33.8103132" lon="-118.3938672">
  <ele>-0.137</ele>
  <time>2026-09-02T22:07:17Z</time>
  <course>186.17</course>
  <speed>0.0282842712474619</speed>
  <fix>3d</fix>
</trkpt>
<trkpt lat="33.810313" lon="-118.393867">
  <ele>-0.12</ele>
  <time>2026-09-02T22:07:17Z</time>
  <course>0.0</course>
  <speed>0.0</speed>
  <fix>3d</fix>
</trkpt>
<trkpt lat="33.8103132" lon="-118.3938672">
  <ele>-0.135</ele>
  <time>2026-09-02T22:07:17Z</time>
  <course>186.17</course>
  <speed>0.0282842712474619</speed>
  <fix>3d</fix>
</trkpt>
<trkpt lat="33.810313" lon="-118.393867">
  <ele>-0.12</ele>
  <time>2026-09-02T22:07:17Z</time>
  <course>0.0</course>
  <speed>0.0</speed>
  <fix>3d</fix>
</trkpt>
<trkpt lat="33.8103132" lon="-118.3938672">
  <ele>-0.134</ele>
  <time>2026-09-02T22:07:17Z</time>
  <course>186.16</course>
  <speed>0.0282842712474619</speed>
  <fix>3d</fix>
</trkpt>
<trkpt lat="33.810313" lon="-118.393867">
  <ele>-0.12</ele>
  <time>2026-09-02T22:07:17Z</time>
  <course>0.0</course>
  <speed>0.0</speed>
  <fix>3d</fix>
</trkpt>
<trkpt lat="33.8103132" lon="-118.3938672">
  <ele>-0.133</ele>
  <time>2026-09-02T22:07:17Z</time>
  <course>186.16</course>
  <speed>0.0282842712474619</speed>
  <fix>3d</fix>
</trkpt>
<trkpt lat="33.810313" lon="-118.393867">
  <ele>-0.12</ele>
  <time>2026-09-02T22:07:17Z</time>
  <course>0.0</course>
  <speed>0.0</speed>
  <fix>3d</fix>
</trkpt>
<trkpt lat="33.8103132" lon="-118.3938672">
  <ele>-0.132</ele>
  <time>2026-09-02T22:07:17Z</time>
  <course>186.16</course>
  <speed>0.0282842712474619</speed>
  <fix>3d</fix>
</trkpt>
<trkpt lat="33.810313" lon="-118.393867">
  <ele>-0.12</ele>
  <time>2026-09-02T22:07:17Z</time>
  <course>0.0</course>
  <speed>0.0</speed>
  <fix>3d</fix>
</trkpt>
<trkpt lat="33.8103132" lon="-118.3938672">
  <ele>-0.132</ele>
  <time>2026-09-02T22:07:17Z</time>
  <course>186.16</course>
  <speed>0.0282842712474619</speed>
  <fix>3d</fix>
</trkpt>
<trkpt lat="33.810313" lon="-118.393867">
  <ele>-0.12</ele>
  <time>2026-09-02T22:07:17Z</time>
  <course>0.0</course>
  <speed>0.0</speed>
  <fix>3d</fix>
</trkpt>
<trkpt lat="33.8103132" lon="-118.3938672">
  <ele>-0.133</ele>
  <time>2026-09-02T22:07:17Z</time>
  <course>186.16</course>
  <speed>0.0282842712474619</speed>
  <fix>3d</fix>
</trkpt>
<trkpt lat="33.810313" lon="-118.393867">
  <ele>-0.12</ele>
  <time>2026-09-02T22:07:17Z</time>
  <course>0.0</course>
  <speed>0.0</speed>
  <fix>3d</fix>
</trkpt>
<trkpt lat="33.8103132" lon="-118.3938672">
  <ele>-0.133</ele>
  <time>2026-09-02T22:07:17Z</time>
  <course>186.16</course>
  <speed>0.0282842712474619</speed>
  <fix>3d</fix>
</trkpt>
<trkpt lat="33.810313" lon="-118.393867">
  <ele>-0.12</ele>
  <time>2026-09-02T22:07:17Z</time>
  <course>0.0</course>
  <speed>0.0</speed>
  <fix>3d</fix>
</trkpt>
<trkpt lat="33.8103132" lon="-118.3938672">
  <ele>-0.132</ele>
  <time>2026-09-02T22:07:17Z</time>
  <course>186.16</course>
  <speed>0.0282842712474619</speed>
  <fix>3d</fix>
</trkpt>
<trkpt lat="33.810313" lon="-118.393867">
  <ele>-0.12</ele>
  <time>2026-09-02T22:07:17Z</time>
  <course>0.0</course>
  <speed>0.0</speed>
  <fix>3d</fix>
</trkpt>
<trkpt lat="33.8103132" lon="-118.3938672">
  <ele>-0.131</ele>
  <time>2026-09-02T22:07:17Z</time>
  <course>186.16</course>
  <speed>0.0282842712474619</speed>
  <fix>3d</fix>
</trkpt>
<trkpt lat="33.810313" lon="-118.393867">
  <ele>-0.12</ele>
  <time>2026-09-02T22:07:17Z</time>
  <course>0.0</course>
  <speed>0.0</speed>
  <fix>3d</fix>
</trkpt>
<trkpt lat="33.8103132" lon="-118.3938672">
  <ele>-0.13</ele>
  <time>2026-09-02T22:07:17Z</time>
  <course>186.16</course>
  <speed>0.0282842712474619</speed>
  <fix>3d</fix>
</trkpt>
<trkpt lat="33.810313" lon="-118.393867">
  <ele>-0.12</ele>
  <time>2026-09-02T22:07:17Z</time>
  <course>0.0</course>
  <speed>0.0</speed>
  <fix>3d</fix>
</trkpt>
<trkpt lat="33.8103132" lon="-118.3938672">
  <ele>-0.13</ele>
  <time>2026-09-02T22:07:17Z</time>
  <course>186.16</course>
  <speed>0.0282842712474619</speed>
  <fix>3d</fix>
</trkpt>
<trkpt lat="33.810313" lon="-118.393867">
  <ele>-0.12</ele>
  <time>2026-09-02T22:07:17Z</time>
  <course>0.0</course>
  <speed>0.0</speed>
  <fix>3d</fix>
</trkpt>
<trkpt lat="33.8103132" lon="-118.3938672">
  <ele>-0.13</ele>
  <time>2026-09-02T22:07:17Z</time>
  <course>186.16</course>
  <speed>0.0282842712474619</speed>
  <fix>3d</fix>
</trkpt>
<trkpt lat="33.810313" lon="-118.393867">
  <ele>-0.12</ele>
  <time>2026-09-02T22:07:17Z</time>
  <course>0.0</course>
  <speed>0.0</speed>
  <fix>3d</fix>
</trkpt>
<trkpt lat="33.8103132" lon="-118.3938672">
  <ele>-0.13</ele>
  <time>2026-09-02T22:07:17Z</time>
  <course>186.16</course>
  <speed>0.0282842712474619</speed>
  <fix>3d</fix>
</trkpt>
<trkpt lat="33.810313" lon="-118.393867">
  <ele>-0.12</ele>
  <time>2026-09-02T22:07:17Z</time>
  <course>0.0</course>
  <speed>0.0</speed>
  <fix>3d</fix>
</trkpt>
<trkpt lat="33.8103132" lon="-118.3938672">
  <ele>-0.129</ele>
  <time>2026-09-02T22:07:17Z</time>
  <course>186.16</course>
  <speed>0.0282842712474619</speed>
  <fix>3d</fix>
</trkpt>
<trkpt lat="33.810313" lon="-118.393867">
  <ele>-0.12</ele>
  <time>2026-09-02T22:07:17Z</time>
  <course>0.0</course>
  <speed>0.0</speed>
  <fix>3d</fix>
</trkpt>
<trkpt lat="33.8103132" lon="-118.3938672">
  <ele>-0.129</ele>
  <time>2026-09-02T22:07:17Z</time>
  <course>186.16</course>
  <speed>0.0282842712474619</speed>
  <fix>3d</fix>
</trkpt>
<trkpt lat="33.810313" lon="-118.393867">
  <ele>-0.12</ele>
  <time>2026-09-02T22:07:17Z</time>
  <course>0.0</course>
  <speed>0.0</speed>
  <fix>3d</fix>
</trkpt>
<trkpt lat="33.8103132" lon="-118.3938672">
  <ele>-0.129</ele>
  <time>2026-09-02T22:07:17Z</time>
  <course>186.16</course>
  <speed>0.0282842712474619</speed>
  <fix>3d</fix>
</trkpt>
<trkpt lat="33.810313" lon="-118.393867">
  <ele>-0.12</ele>
  <time>2026-09-02T22:07:17Z</time>
  <course>0.0</course>
  <speed>0.0</speed>
  <fix>3d</fix>
</trkpt>
<trkpt lat="33.8103132" lon="-118.3938672">
  <ele>-0.128</ele>
  <time>2026-09-02T22:07:17Z</time>
  <course>186.16</course>
  <speed>0.0282842712474619</speed>
  <fix>3d</fix>
</trkpt>
<trkpt lat="33.810313" lon="-118.393867">
  <ele>-0.12</ele>
  <time>2026-09-02T22:07:17Z</time>
  <course>0.0</course>
  <speed>0.0</speed>
  <fix>3d</fix>
</trkpt>
<trkpt lat="33.8103132" lon="-118.3938672">
  <ele>-0.126</ele>
  <time>2026-09-02T22:07:17Z</time>
  <course>186.16</course>
  <speed>0.0282842712474619</speed>
  <fix>3d</fix>
</trkpt>
<trkpt lat="33.810313" lon="-118.393867">
  <ele>-0.12</ele>
  <time>2026-09-02T22:07:17Z</time>
  <course>0.0</course>
  <speed>0.0</speed>
  <fix>3d</fix>
</trkpt>
<trkpt lat="33.8103132" lon="-118.3938672">
  <ele>-0.124</ele>
  <time>2026-09-02T22:07:17Z</time>
  <course>186.16</course>
  <speed>0.0282842712474619</speed>
  <fix>3d</fix>
</trkpt>
<trkpt lat="33.810313" lon="-118.393867">
  <ele>-0.12</ele>
  <time>2026-09-02T22:07:17Z</time>
  <course>0.0</course>
  <speed>0.0</speed>
  <fix>3d</fix>
</trkpt>
<trkpt lat="33.8103132" lon="-118.3938672">
  <ele>-0.121</ele>
  <time>2026-09-02T22:07:17Z</time>
  <course>186.15</course>
  <speed>0.0282842712474619</speed>
  <fix>3d</fix>
</trkpt>
<trkpt lat="33.810313" lon="-118.393867">
  <ele>-0.12</ele>
  <time>2026-09-02T22:07:17Z</time>
  <course>0.0</course>
  <speed>0.0</speed>
  <fix>3d</fix>
</trkpt>
<trkpt lat="33.8103132" lon="-118.3938672">
  <ele>-0.118</ele>
  <time>2026-09-02T22:07:17Z</time>
  <course>186.15</course>
  <speed>0.0282842712474619</speed>
  <fix>3d</fix>
</trkpt>
<trkpt lat="33.810313" lon="-118.393867">
  <ele>-0.12</ele>
  <time>2026-09-02T22:07:17Z</time>
  <course>0.0</course>
  <speed>0.0</speed>
  <fix>3d</fix>
</trkpt>
<trkpt lat="33.8103132" lon="-118.3938672">
  <ele>-0.116</ele>
  <time>2026-09-02T22:07:17Z</time>
  <course>186.15</course>
  <speed>0.0282842712474619</speed>
  <fix>3d</fix>
</trkpt>
<trkpt lat="33.810313" lon="-118.393867">
  <ele>-0.12</ele>
  <time>2026-09-02T22:07:17Z</time>
  <course>0.0</course>
  <speed>0.0</speed>
  <fix>3d</fix>
</trkpt>
<trkpt lat="33.8103132" lon="-118.3938672">
  <ele>-0.115</ele>
  <time>2026-09-02T22:07:17Z</time>
  <course>186.15</course>
  <speed>0.0282842712474619</speed>
  <fix>3d</fix>
</trkpt>
<trkpt lat="33.810313" lon="-118.393867">
  <ele>-0.12</ele>
  <time>2026-09-02T22:07:17Z</time>
  <course>0.0</course>
  <speed>0.0</speed>
  <fix>3d</fix>
</trkpt>
<trkpt lat="33.8103132" lon="-118.3938672">
  <ele>-0.116</ele>
  <time>2026-09-02T22:07:17Z</time>
  <course>186.15</course>
  <speed>0.022360679774997897</speed>
  <fix>3d</fix>
</trkpt>
<trkpt lat="33.810313" lon="-118.393867">
  <ele>-0.12</ele>
  <time>2026-09-02T22:07:17Z</time>
  <course>0.0</course>
  <speed>0.0</speed>
  <fix>3d</fix>
</trkpt>
<trkpt lat="33.4368002" lon="-117.0859339">
  <ele>-0.11</ele>
  <time>2026-09-02T22:07:18Z</time>
  <course>0.0</course>
  <speed>0.0</speed>
  <fix>3d</fix>
</trkpt>
<trkpt lat="33.4368002" lon="-117.0859339">
  <ele>-0.11</ele>
  <time>2026-09-02T22:07:18Z</time>
  <course>0.0</course>
  <speed>0.0</speed>
  <fix>3d</fix>
</trkpt>
<trkpt lat="33.810313" lon="-118.393867">
  <ele>0.0</ele>
  <time>2026-09-02T22:07:18Z</time>
  <course>173.5</course>
  <speed>0.0</speed>
  <fix>3d</fix>
</trkpt>
<trkpt lat="33.810313" lon="-118.393867">
  <ele>-0.11</ele>
  <time>2026-09-02T22:07:18Z</time>
  <course>0.0</course>
  <speed>0.0</speed>
  <fix>3d</fix>
</trkpt>
<trkpt lat="33.810313" lon="-118.393867">
  <ele>0.0</ele>
  <time>2026-09-02T22:07:18Z</time>
  <course>173.64</course>
  <speed>0.0</speed>
  <fix>3d</fix>
</trkpt>
<trkpt lat="33.810313" lon="-118.393867">
  <ele>-0.11</ele>
  <time>2026-09-02T22:07:18Z</time>
  <course>0.0</course>
  <speed>0.0</speed>
  <fix>3d</fix>
</trkpt>
<trkpt lat="33.810313" lon="-118.393867">
  <ele>0.0</ele>
  <time>2026-09-02T22:07:18Z</time>
  <course>174.03</course>
  <speed>0.0</speed>
  <fix>3d</fix>
</trkpt>
<trkpt lat="33.810313" lon="-118.393867">
  <ele>-0.11</ele>
  <time>2026-09-02T22:07:18Z</time>
  <course>0.0</course>
  <speed>0.0</speed>
  <fix>3d</fix>
</trkpt>
<trkpt lat="33.810313" lon="-118.393867">
  <ele>0.0</ele>
  <time>2026-09-02T22:07:18Z</time>
  <course>174.57</course>
  <speed>0.0</speed>
  <fix>3d</fix>
</trkpt>
<trkpt lat="33.810313" lon="-118.393867">
  <ele>-0.11</ele>
  <time>2026-09-02T22:07:18Z</time>
  <course>0.0</course>
  <speed>0.0</speed>
  <fix>3d</fix>
</trkpt>
<trkpt lat="33.810313" lon="-118.393867">
  <ele>0.0</ele>
  <time>2026-09-02T22:07:18Z</time>
  <course>175.13</course>
  <speed>0.0</speed>
  <fix>3d</fix>
</trkpt>
<trkpt lat="33.810313" lon="-118.393867">
  <ele>-0.12</ele>
  <time>2026-09-02T22:07:18Z</time>
  <course>0.0</course>
  <speed>0.0</speed>
  <fix>3d</fix>
</trkpt>
<trkpt lat="33.810313" lon="-118.393867">
  <ele>0.0</ele>
  <time>2026-09-02T22:07:18Z</time>
  <course>175.67</course>
  <speed>0.0</speed>
  <fix>3d</fix>
</trkpt>
<trkpt lat="33.810313" lon="-118.393867">
  <ele>-0.12</ele>
  <time>2026-09-02T22:07:18Z</time>
  <course>0.0</course>
  <speed>0.0</speed>
  <fix>3d</fix>
</trkpt>
<trkpt lat="33.810313" lon="-118.393867">
  <ele>0.0</ele>
  <time>2026-09-02T22:07:18Z</time>
  <course>176.17</course>
  <speed>0.0</speed>
  <fix>3d</fix>
</trkpt>
<trkpt lat="33.810313" lon="-118.393867">
  <ele>-0.13</ele>
  <time>2026-09-02T22:07:18Z</time>
  <course>0.0</course>
  <speed>0.0</speed>
  <fix>3d</fix>
</trkpt>
<trkpt lat="33.810313" lon="-118.393867">
  <ele>0.0</ele>
  <time>2026-09-02T22:07:18Z</time>
  <course>176.65</course>
  <speed>0.0</speed>
  <fix>3d</fix>
</trkpt>
<trkpt lat="33.810313" lon="-118.393867">
  <ele>-0.13</ele>
  <time>2026-09-02T22:07:18Z</time>
  <course>0.0</course>
  <speed>0.0</speed>
  <fix>3d</fix>
</trkpt>
<trkpt lat="33.810313" lon="-118.393867">
  <ele>0.0</ele>
  <time>2026-09-02T22:07:18Z</time>
  <course>178.45</course>
  <speed>0.0</speed>
  <fix>3d</fix>
</trkpt>
<trkpt lat="33.810313" lon="-118.393867">
  <ele>-0.14</ele>
  <time>2026-09-02T22:07:18Z</time>
  <course>0.0</course>
  <speed>0.0</speed>
  <fix>3d</fix>
</trkpt>
<trkpt lat="33.810313" lon="-118.393867">
  <ele>0.0</ele>
  <time>2026-09-02T22:07:18Z</time>
  <course>179.66</course>
  <speed>0.0</speed>
  <fix>3d</fix>
</trkpt>
<trkpt lat="33.810313" lon="-118.393867">
  <ele>-0.14</ele>
  <time>2026-09-02T22:07:18Z</time>
  <course>0.0</course>
  <speed>0.0</speed>
  <fix>3d</fix>
</trkpt>
<trkpt lat="33.810313" lon="-118.393867">
  <ele>0.0</ele>
  <time>2026-09-02T22:07:18Z</time>
  <course>180.05</course>
  <speed>0.0</speed>
  <fix>3d</fix>
</trkpt>
<trkpt lat="33.810313" lon="-118.393867">
  <ele>-0.14</ele>
  <time>2026-09-02T22:07:18Z</time>
  <course>0.0</course>
  <speed>0.0</speed>
  <fix>3d</fix>
</trkpt>
<trkpt lat="33.810313" lon="-118.393867">
  <ele>0.0</ele>
  <time>2026-09-02T22:07:18Z</time>
  <course>180.76</course>
  <speed>0.0</speed>
  <fix>3d</fix>
</trkpt>
<trkpt lat="33.810313" lon="-118.393867">
  <ele>-0.14</ele>
  <time>2026-09-02T22:07:18Z</time>
  <course>0.0</course>
  <speed>0.0</speed>
  <fix>3d</fix>
</trkpt>
<trkpt lat="33.810313" lon="-118.393867">
  <ele>0.0</ele>
  <time>2026-09-02T22:07:18Z</time>
  <course>181.1</course>
  <speed>0.0</speed>
  <fix>3d</fix>
</trkpt>
<trkpt lat="33.810313" lon="-118.393867">
  <ele>-0.13</ele>
  <time>2026-09-02T22:07:18Z</time>
  <course>0.0</course>
  <speed>0.0</speed>
  <fix>3d</fix>
</trkpt>
<trkpt lat="33.810313" lon="-118.393867">
  <ele>0.0</ele>
  <time>2026-09-02T22:07:18Z</time>
  <course>181.43</course>
  <speed>0.0</speed>
  <fix>3d</fix>
</trkpt>
<trkpt lat="33.810313" lon="-118.393867">
  <ele>-0.13</ele>
  <time>2026-09-02T22:07:18Z</time>
  <course>0.0</course>
  <speed>0.0</speed>
  <fix>3d</fix>
</trkpt>
<trkpt lat="33.810313" lon="-118.393867">
  <ele>0.0</ele>
  <time>2026-09-02T22:07:18Z</time>
  <course>181.75</course>
  <speed>0.0</speed>
  <fix>3d</fix>
</trkpt>
<trkpt lat="33.810313" lon="-118.393867">
  <ele>-0.12</ele>
  <time>2026-09-02T22:07:18Z</time>
  <course>0.0</course>
  <speed>0.0</speed>
  <fix>3d</fix>
</trkpt>
<trkpt lat="33.810313" lon="-118.393867">
  <ele>0.0</ele>
  <time>2026-09-02T22:07:18Z</time>
  <course>182.05</course>
  <speed>0.0</speed>
  <fix>3d</fix>
</trkpt>
<trkpt lat="33.810313" lon="-118.393867">
  <ele>-0.12</ele>
  <time>2026-09-02T22:07:18Z</time>
  <course>0.0</course>
  <speed>0.0</speed>
  <fix>3d</fix>
</trkpt>
<trkpt lat="33.810313" lon="-118.393867">
  <ele>0.0</ele>
  <time>2026-09-02T22:07:18Z</time>
  <course>182.35</course>
  <speed>0.0</speed>
  <fix>3d</fix>
</trkpt>
<trkpt lat="33.810313" lon="-118.393867">
  <ele>-0.12</ele>
  <time>2026-09-02T22:07:18Z</time>
  <course>0.0</course>
  <speed>0.0</speed>
  <fix>3d</fix>
</trkpt>
<trkpt lat="33.810313" lon="-118.393867">
  <ele>0.0</ele>
  <time>2026-09-02T22:07:18Z</time>
  <course>182.63</course>
  <speed>0.0</speed>
  <fix>3d</fix>
</trkpt>
<trkpt lat="33.810313" lon="-118.393867">
  <ele>-0.12</ele>
  <time>2026-09-02T22:07:18Z</time>
  <course>0.0</course>
  <speed>0.0</speed>
  <fix>3d</fix>
</trkpt>
<trkpt lat="33.810313" lon="-118.393867">
  <ele>0.0</ele>
  <time>2026-09-02T22:07:18Z</time>
  <course>182.9</course>
  <speed>0.0</speed>
  <fix>3d</fix>
</trkpt>
<trkpt lat="33.810313" lon="-118.393867">
  <ele>-0.11</ele>
  <time>2026-09-02T22:07:18Z</time>
  <course>0.0</course>
  <speed>0.0</speed>
  <fix>3d</fix>
</trkpt>
<trkpt lat="33.810313" lon="-118.393867">
  <ele>0.0</ele>
  <time>2026-09-02T22:07:18Z</time>
  <course>183.16</course>
  <speed>0.0</speed>
  <fix>3d</fix>
</trkpt>
<trkpt lat="33.810313" lon="-118.393867">
  <ele>-0.11</ele>
  <time>2026-09-02T22:07:18Z</time>
  <course>0.0</course>
  <speed>0.0</speed>
  <fix>3d</fix>
</trkpt>
<trkpt lat="33.810313" lon="-118.393867">
  <ele>0.0</ele>
  <time>2026-09-02T22:07:18Z</time>
  <course>183.41</course>
  <speed>0.0</speed>
  <fix>3d</fix>
</trkpt>
<trkpt lat="33.810313" lon="-118.393867">
  <ele>-0.11</ele>
  <time>2026-09-02T22:07:18Z</time>
  <course>0.0</course>
  <speed>0.0</speed>
  <fix>3d</fix>
</trkpt>
<trkpt lat="33.810313" lon="-118.393867">
  <ele>0.0</ele>
  <time>2026-09-02T22:07:18Z</time>
  <course>183.65</course>
  <speed>0.0</speed>
  <fix>3d</fix>
</trkpt>
<trkpt lat="33.810313" lon="-118.393867">
  <ele>-0.11</ele>
  <time>2026-09-02T22:07:18Z</time>
  <course>0.0</course>
  <speed>0.0</speed>
  <fix>3d</fix>
</trkpt>
<trkpt lat="33.810313" lon="-118.393867">
  <ele>0.0</ele>
  <time>2026-09-02T22:07:18Z</time>
  <course>183.88</course>
  <speed>0.0</speed>
  <fix>3d</fix>
</trkpt>
<trkpt lat="33.810313" lon="-118.393867">
  <ele>-0.12</ele>
  <time>2026-09-02T22:07:18Z</time>
  <course>0.0</course>
  <speed>0.0</speed>
  <fix>3d</fix>
</trkpt>
<trkpt lat="33.810313" lon="-118.393867">
  <ele>0.0</ele>
  <time>2026-09-02T22:07:18Z</time>
  <course>184.11</course>
  <speed>0.0</speed>
  <fix>3d</fix>
</trkpt>
<trkpt lat="33.810313" lon="-118.393867">
  <ele>-0.12</ele>
  <time>2026-09-02T22:07:18Z</time>
  <course>0.0</course>
  <speed>0.0</speed>
  <fix>3d</fix>
</trkpt>
<trkpt lat="33.810313" lon="-118.393867">
  <ele>0.0</ele>
  <time>2026-09-02T22:07:18Z</time>
  <course>184.32</course>
  <speed>0.0</speed>
  <fix>3d</fix>
</trkpt>
<trkpt lat="33.810313" lon="-118.393867">
  <ele>-0.13</ele>
  <time>2026-09-02T22:07:18Z</time>
  <course>0.0</course>
  <speed>0.0</speed>
  <fix>3d</fix>
</trkpt>
<trkpt lat="33.810313" lon="-118.393867">
  <ele>0.0</ele>
  <time>2026-09-02T22:07:18Z</time>
  <course>184.52</course>
  <speed>0.0</speed>
  <fix>3d</fix>
</trkpt>
<trkpt lat="33.810313" lon="-118.393867">
  <ele>-0.13</ele>
  <time>2026-09-02T22:07:18Z</time>
  <course>0.0</course>
  <speed>0.0</speed>
  <fix>3d</fix>
</trkpt>
<trkpt lat="33.810313" lon="-118.393867">
  <ele>0.0</ele>
  <time>2026-09-02T22:07:18Z</time>
  <course>184.72</course>
  <speed>0.0</speed>
  <fix>3d</fix>
</trkpt>
<trkpt lat="33.810313" lon="-118.393867">
  <ele>-0.13</ele>
  <time>2026-09-02T22:07:18Z</time>
  <course>0.0</course>
  <speed>0.0</speed>
  <fix>3d</fix>
</trkpt>
<trkpt lat="33.810313" lon="-118.393867">
  <ele>0.0</ele>
  <time>2026-09-02T22:07:18Z</time>
  <course>184.91</course>
  <speed>0.0</speed>
  <fix>3d</fix>
</trkpt>
<trkpt lat="33.810313" lon="-118.393867">
  <ele>-0.13</ele>
  <time>2026-09-02T22:07:18Z</time>
  <course>0.0</course>
  <speed>0.0</speed>
  <fix>3d</fix>
</trkpt>
<trkpt lat="33.810313" lon="-118.393867">
  <ele>0.0</ele>
  <time>2026-09-02T22:07:18Z</time>
  <course>185.09</course>
  <speed>0.0</speed>
  <fix>3d</fix>
</trkpt>
<trkpt lat="33.810313" lon="-118.393867">
  <ele>-0.14</ele>
  <time>2026-09-02T22:07:18Z</time>
  <course>0.0</course>
  <speed>0.0</speed>
  <fix>3d</fix>
</trkpt>
<trkpt lat="33.810313" lon="-118.393867">
  <ele>0.0</ele>
  <time>2026-09-02T22:07:18Z</time>
  <course>185.26</course>
  <speed>0.0</speed>
  <fix>3d</fix>
</trkpt>
<trkpt lat="33.810313" lon="-118.393867">
  <ele>-0.14</ele>
  <time>2026-09-02T22:07:18Z</time>
  <course>0.0</course>
  <speed>0.0</speed>
  <fix>3d</fix>
</trkpt>
<trkpt lat="33.810313" lon="-118.393867">
  <ele>0.0</ele>
  <time>2026-09-02T22:07:18Z</time>
  <course>185.42</course>
  <speed>0.0</speed>
  <fix>3d</fix>
</trkpt>
<trkpt lat="33.810313" lon="-118.393867">
  <ele>-0.13</ele>
  <time>2026-09-02T22:07:18Z</time>
  <course>0.0</course>
  <speed>0.0</speed>
  <fix>3d</fix>
</trkpt>
<trkpt lat="33.810313" lon="-118.393867">
  <ele>0.0</ele>
  <time>2026-09-02T22:07:18Z</time>
  <course>185.58</course>
  <speed>0.0</speed>
  <fix>3d</fix>
</trkpt>
<trkpt lat="33.810313" lon="-118.393867">
  <ele>-0.13</ele>
  <time>2026-09-02T22:07:18Z</time>
  <course>0.0</course>
  <speed>0.0</speed>
  <fix>3d</fix>
</trkpt>
<trkpt lat="33.810313" lon="-118.393867">
  <ele>0.0</ele>
  <time>2026-09-02T22:07:18Z</time>
  <course>185.73</course>
  <speed>0.0</speed>
  <fix>3d</fix>
</trkpt>
<trkpt lat="33.810313" lon="-118.393867">
  <ele>-0.13</ele>
  <time>2026-09-02T22:07:18Z</time>
  <course>0.0</course>
  <speed>0.0</speed>
  <fix>3d</fix>
</trkpt>
<trkpt lat="33.810313" lon="-118.393867">
  <ele>0.0</ele>
  <time>2026-09-02T22:07:18Z</time>
  <course>185.87</course>
  <speed>0.0</speed>
  <fix>3d</fix>
</trkpt>
<trkpt lat="33.810313" lon="-118.393867">
  <ele>-0.13</ele>
  <time>2026-09-02T22:07:18Z</time>
  <course>0.0</course>
  <speed>0.0</speed>
  <fix>3d</fix>
</trkpt>
<trkpt lat="33.810313" lon="-118.393867">
  <ele>0.0</ele>
  <time>2026-09-02T22:07:18Z</time>
  <course>186.01</course>
  <speed>0.0</speed>
  <fix>3d</fix>
</trkpt>
<trkpt lat="33.810313" lon="-118.393867">
  <ele>-0.12</ele>
  <time>2026-09-02T22:07:18Z</time>
  <course>0.0</course>
  <speed>0.0</speed>
  <fix>3d</fix>
</trkpt>
<trkpt lat="33.810313" lon="-118.393867">
  <ele>0.0</ele>
  <time>2026-09-02T22:07:18Z</time>
  <course>186.14</course>
  <speed>0.0</speed>
  <fix>3d</fix>
</trkpt>
<trkpt lat="33.810313" lon="-118.393867">
  <ele>-0.12</ele>
  <time>2026-09-02T22:07:18Z</time>
  <course>0.0</course>
  <speed>0.0</speed>
  <fix>3d</fix>
</trkpt>
<trkpt lat="33.810313" lon="-118.393867">
  <ele>0.0</ele>
  <time>2026-09-02T22:07:18Z</time>
  <course>186.27</course>
  <speed>0.0</speed>
  <fix>3d</fix>
</trkpt>
<trkpt lat="33.810313" lon="-118.393867">
  <ele>-0.12</ele>
  <time>2026-09-02T22:07:18Z</time>
  <course>0.0</course>
  <speed>0.0</speed>
  <fix>3d</fix>
</trkpt>
<trkpt lat="33.810313" lon="-118.393867">
  <ele>0.0</ele>
  <time>2026-09-02T22:07:18Z</time>
  <course>186.39</course>
  <speed>0.0</speed>
  <fix>3d</fix>
</trkpt>
<trkpt lat="33.810313" lon="-118.393867">
  <ele>-0.12</ele>
  <time>2026-09-02T22:07:18Z</time>
  <course>0.0</course>
  <speed>0.0</speed>
  <fix>3d</fix>
</trkpt>
<trkpt lat="33.810313" lon="-118.393867">
  <ele>0.0</ele>
  <time>2026-09-02T22:07:18Z</time>
  <course>186.5</course>
  <speed>0.0</speed>
  <fix>3d</fix>
</trkpt>
<trkpt lat="33.810313" lon="-118.393867">
  <ele>-0.12</ele>
  <time>2026-09-02T22:07:18Z</time>
  <course>0.0</course>
  <speed>0.0</speed>
  <fix>3d</fix>
</trkpt>
<trkpt lat="33.810313" lon="-118.393867">
  <ele>0.0</ele>
  <time>2026-09-02T22:07:18Z</time>
  <course>186.61</course>
  <speed>0.0</speed>
  <fix>3d</fix>
</trkpt>
<trkpt lat="33.810313" lon="-118.393867">
  <ele>-0.12</ele>
  <time>2026-09-02T22:07:18Z</time>
  <course>0.0</course>
  <speed>0.0</speed>
  <fix>3d</fix>
</trkpt>
<trkpt lat="33.810313" lon="-118.393867">
  <ele>0.0</ele>
  <time>2026-09-02T22:07:18Z</time>
  <course>186.72</course>
  <speed>0.0</speed>
  <fix>3d</fix>
</trkpt>
<trkpt lat="33.810313" lon="-118.393867">
  <ele>-0.12</ele>
  <time>2026-09-02T22:07:18Z</time>
  <course>0.0</course>
  <speed>0.0</speed>
  <fix>3d</fix>
</trkpt>
<trkpt lat="33.810313" lon="-118.393867">
  <ele>0.0</ele>
  <time>2026-09-02T22:07:18Z</time>
  <course>186.82</course>
  <speed>0.0</speed>
  <fix>3d</fix>
</trkpt>
<trkpt lat="33.810313" lon="-118.393867">
  <ele>-0.12</ele>
  <time>2026-09-02T22:07:18Z</time>
  <course>0.0</course>
  <speed>0.0</speed>
  <fix>3d</fix>
</trkpt>
<trkpt lat="33.810313" lon="-118.393867">
  <ele>0.0</ele>
  <time>2026-09-02T22:07:18Z</time>
  <course>187.17</course>
  <speed>0.0</speed>
  <fix>3d</fix>
</trkpt>
<trkpt lat="33.810313" lon="-118.393867">
  <ele>-0.13</ele>
  <time>2026-09-02T22:07:18Z</time>
  <course>0.0</course>
  <speed>0.0</speed>
  <fix>3d</fix>
</trkpt>
<trkpt lat="33.810313" lon="-118.393867">
  <ele>0.0</ele>
  <time>2026-09-02T22:07:18Z</time>
  <course>187.4</course>
  <speed>0.0</speed>
  <fix>3d</fix>
</trkpt>
<trkpt lat="33.810313" lon="-118.393867">
  <ele>-0.13</ele>
  <time>2026-09-02T22:07:18Z</time>
  <course>0.0</course>
  <speed>0.0</speed>
  <fix>3d</fix>
</trkpt>
<trkpt lat="33.810313" lon="-118.393867">
  <ele>0.0</ele>
  <time>2026-09-02T22:07:18Z</time>
  <course>187.47</course>
  <speed>0.0</speed>
  <fix>3d</fix>
</trkpt>
<trkpt lat="33.810313" lon="-118.393867">
  <ele>-0.13</ele>
  <time>2026-09-02T22:07:18Z</time>
  <course>0.0</course>
  <speed>0.0</speed>
  <fix>3d</fix>
</trkpt>
<trkpt lat="33.810313" lon="-118.393867">
  <ele>0.0</ele>
  <time>2026-09-02T22:07:18Z</time>
  <course>187.53</course>
  <speed>0.0</speed>
  <fix>3d</fix>
</trkpt>
<trkpt lat="33.810313" lon="-118.393867">
  <ele>-0.13</ele>
  <time>2026-09-02T22:07:18Z</time>
  <course>0.0</course>
  <speed>0.0</speed>
  <fix>3d</fix>
</trkpt>
<trkpt lat="33.810313" lon="-118.393867">
  <ele>0.0</ele>
  <time>2026-09-02T22:07:18Z</time>
  <course>187.59</course>
  <speed>0.0</speed>
  <fix>3d</fix>
</trkpt>
<trkpt lat="33.810313" lon="-118.393867">
  <ele>-0.13</ele>
  <time>2026-09-02T22:07:18Z</time>
  <course>0.0</course>
  <speed>0.0</speed>
  <fix>3d</fix>
</trkpt>
<trkpt lat="33.810313" lon="-118.393867">
  <ele>0.0</ele>
  <time>2026-09-02T22:07:18Z</time>
  <course>187.65</course>
  <speed>0.0</speed>
  <fix>3d</fix>
</trkpt>
<trkpt lat="33.810313" lon="-118.393867">
  <ele>-0.12</ele>
  <time>2026-09-02T22:07:18Z</time>
  <course>0.0</course>
  <speed>0.0</speed>
  <fix>3d</fix>
</trkpt>
<trkpt lat="33.810313" lon="-118.393867">
  <ele>0.0</ele>
  <time>2026-09-02T22:07:18Z</time>
  <course>187.71</course>
  <speed>0.0</speed>
  <fix>3d</fix>
</trkpt>
<trkpt lat="33.810313" lon="-118.393867">
  <ele>-0.12</ele>
  <time>2026-09-02T22:07:18Z</time>
  <course>0.0</course>
  <speed>0.0</speed>
  <fix>3d</fix>
</trkpt>
<trkpt lat="33.810313" lon="-118.393867">
  <ele>0.0</ele>
  <time>2026-09-02T22:07:18Z</time>
  <course>187.76</course>
  <speed>0.0</speed>
  <fix>3d</fix>
</trkpt>
<trkpt lat="33.810313" lon="-118.393867">
  <ele>-0.12</ele>
  <time>2026-09-02T22:07:18Z</time>
  <course>0.0</course>
  <speed>0.0</speed>
  <fix>3d</fix>
</trkpt>
<trkpt lat="33.810313" lon="-118.393867">
  <ele>0.0</ele>
  <time>2026-09-02T22:07:18Z</time>
  <course>187.81</course>
  <speed>0.0</speed>
  <fix>3d</fix>
</trkpt>
<trkpt lat="33.810313" lon="-118.393867">
  <ele>-0.12</ele>
  <time>2026-09-02T22:07:18Z</time>
  <course>0.0</course>
  <speed>0.0</speed>
  <fix>3d</fix>
</trkpt>
<trkpt lat="33.810313" lon="-118.393867">
  <ele>0.0</ele>
  <time>2026-09-02T22:07:18Z</time>
  <course>187.86</course>
  <speed>0.0</speed>
  <fix>3d</fix>
</trkpt>
<trkpt lat="33.810313" lon="-118.393867">
  <ele>-0.12</ele>
  <time>2026-09-02T22:07:18Z</time>
  <course>0.0</course>
  <speed>0.0</speed>
  <fix>3d</fix>
</trkpt>
<trkpt lat="33.810313" lon="-118.393867">
  <ele>0.0</ele>
  <time>2026-09-02T22:07:18Z</time>
  <course>187.91</course>
  <speed>0.0</speed>
  <fix>3d</fix>
</trkpt>
<trkpt lat="33.810313" lon="-118.393867">
  <ele>-0.12</ele>
  <time>2026-09-02T22:07:18Z</time>
  <course>0.0</course>
  <speed>0.0</speed>
  <fix>3d</fix>
</trkpt>
<trkpt lat="33.810313" lon="-118.393867">
  <ele>0.0</ele>
  <time>2026-09-02T22:07:18Z</time>
  <course>187.95</course>
  <speed>0.0</speed>
  <fix>3d</fix>
</trkpt>
<trkpt lat="33.810313" lon="-118.393867">
  <ele>-0.12</ele>
  <time>2026-09-02T22:07:18Z</time>
  <course>0.0</course>
  <speed>0.0</speed>
  <fix>3d</fix>
</trkpt>
<trkpt lat="33.810313" lon="-118.393867">
  <ele>0.0</ele>
  <time>2026-09-02T22:07:18Z</time>
  <course>187.99</course>
  <speed>0.0</speed>
  <fix>3d</fix>
</trkpt>
<trkpt lat="33.810313" lon="-118.393867">
  <ele>-0.12</ele>
  <time>2026-09-02T22:07:18Z</time>
  <course>0.0</course>
  <speed>0.0</speed>
  <fix>3d</fix>
</trkpt>
<trkpt lat="33.810313" lon="-118.393867">
  <ele>0.0</ele>
  <time>2026-09-02T22:07:18Z</time>
  <course>188.03</course>
  <speed>0.0</speed>
  <fix>3d</fix>
</trkpt>
<trkpt lat="33.810313" lon="-118.393867">
  <ele>-0.12</ele>
  <time>2026-09-02T22:07:18Z</time>
  <course>0.0</course>
  <speed>0.0</speed>
  <fix>3d</fix>
</trkpt>
<trkpt lat="33.810313" lon="-118.393867">
  <ele>0.0</ele>
  <time>2026-09-02T22:07:18Z</time>
  <course>188.07</course>
  <speed>0.0</speed>
  <fix>3d</fix>
</trkpt>
<trkpt lat="33.810313" lon="-118.393867">
  <ele>-0.12</ele>
  <time>2026-09-02T22:07:18Z</time>
  <course>0.0</course>
  <speed>0.0</speed>
  <fix>3d</fix>
</trkpt>
<trkpt lat="33.810313" lon="-118.393867">
  <ele>0.0</ele>
  <time>2026-09-02T22:07:18Z</time>
  <course>188.1</course>
  <speed>0.0</speed>
  <fix>3d</fix>
</trkpt>
<trkpt lat="33.810313" lon="-118.393867">
  <ele>-0.13</ele>
  <time>2026-09-02T22:07:18Z</time>
  <course>0.0</course>
  <speed>0.0</speed>
  <fix>3d</fix>
</trkpt>
<trkpt lat="33.810313" lon="-118.393867">
  <ele>0.0</ele>
  <time>2026-09-02T22:07:18Z</time>
  <course>188.13</course>
  <speed>0.0</speed>
  <fix>3d</fix>
</trkpt>
<trkpt lat="33.810313" lon="-118.393867">
  <ele>-0.13</ele>
  <time>2026-09-02T22:07:18Z</time>
  <course>0.0</course>
  <speed>0.0</speed>
  <fix>3d</fix>
</trkpt>
<trkpt lat="33.810313" lon="-118.393867">
  <ele>0.0</ele>
  <time>2026-09-02T22:07:18Z</time>
  <course>188.17</course>
  <speed>0.0</speed>
  <fix>3d</fix>
</trkpt>
<trkpt lat="33.810313" lon="-118.393867">
  <ele>-0.13</ele>
  <time>2026-09-02T22:07:18Z</time>
  <course>0.0</course>
  <speed>0.0</speed>
  <fix>3d</fix>
</trkpt>
<trkpt lat="33.810313" lon="-118.393867">
  <ele>0.0</ele>
  <time>2026-09-02T22:07:18Z</time>
  <course>188.19</course>
  <speed>0.0</speed>
  <fix>3d</fix>
</trkpt>
<trkpt lat="33.810313" lon="-118.393867">
  <ele>-0.13</ele>
  <time>2026-09-02T22:07:18Z</time>
  <course>0.0</course>
  <speed>0.0</speed>
  <fix>3d</fix>
</trkpt>
<trkpt lat="33.810313" lon="-118.393867">
  <ele>0.0</ele>
  <time>2026-09-02T22:07:18Z</time>
  <course>188.22</course>
  <speed>0.0</speed>
  <fix>3d</fix>
</trkpt>
<trkpt lat="33.810313" lon="-118.393867">
  <ele>-0.13</ele>
  <time>2026-09-02T22:07:18Z</time>
  <course>0.0</course>
  <speed>0.0</speed>
  <fix>3d</fix>
</trkpt>
<trkpt lat="33.810313" lon="-118.393867">
  <ele>0.0</ele>
  <time>2026-09-02T22:07:18Z</time>
  <course>188.25</course>
  <speed>0.0</speed>
  <fix>3d</fix>
</trkpt>
<trkpt lat="33.810313" lon="-118.393867">
  <ele>-0.13</ele>
  <time>2026-09-02T22:07:18Z</time>
  <course>0.0</course>
  <speed>0.0</speed>
  <fix>3d</fix>
</trkpt>
<trkpt lat="33.810313" lon="-118.393867">
  <ele>0.0</ele>
  <time>2026-09-02T22:07:18Z</time>
  <course>188.27</course>
  <speed>0.0</speed>
  <fix>3d</fix>
</trkpt>
<trkpt lat="33.810313" lon="-118.393867">
  <ele>-0.12</ele>
  <time>2026-09-02T22:07:18Z</time>
  <course>0.0</course>
  <speed>0.0</speed>
  <fix>3d</fix>
</trkpt>
<trkpt lat="33.810313" lon="-118.393867">
  <ele>0.0</ele>
  <time>2026-09-02T22:07:18Z</time>
  <course>188.3</course>
  <speed>0.0</speed>
  <fix>3d</fix>
</trkpt>
<trkpt lat="33.810313" lon="-118.393867">
  <ele>-0.12</ele>
  <time>2026-09-02T22:07:18Z</time>
  <course>0.0</course>
  <speed>0.0</speed>
  <fix>3d</fix>
</trkpt>
<trkpt lat="33.810313" lon="-118.393867">
  <ele>0.0</ele>
  <time>2026-09-02T22:07:18Z</time>
  <course>188.32</course>
  <speed>0.0</speed>
  <fix>3d</fix>
</trkpt>
<trkpt lat="33.810313" lon="-118.393867">
  <ele>-0.12</ele>
  <time>2026-09-02T22:07:18Z</time>
  <course>0.0</course>
  <speed>0.0</speed>
  <fix>3d</fix>
</trkpt>
<trkpt lat="33.810313" lon="-118.393867">
  <ele>0.0</ele>
  <time>2026-09-02T22:07:18Z</time>
  <course>188.34</course>
  <speed>0.0</speed>
  <fix>3d</fix>
</trkpt>
<trkpt lat="33.810313" lon="-118.393867">
  <ele>-0.12</ele>
  <time>2026-09-02T22:07:18Z</time>
  <course>0.0</course>
  <speed>0.0</speed>
  <fix>3d</fix>
</trkpt>
<trkpt lat="33.810313" lon="-118.393867">
  <ele>0.0</ele>
  <time>2026-09-02T22:07:18Z</time>
  <course>188.36</course>
  <speed>0.0</speed>
  <fix>3d</fix>
</trkpt>
<trkpt lat="33.810313" lon="-118.393867">
  <ele>-0.12</ele>
  <time>2026-09-02T22:07:18Z</time>
  <course>0.0</course>
  <speed>0.0</speed>
  <fix>3d</fix>
</trkpt>
<trkpt lat="33.810313" lon="-118.393867">
  <ele>0.0</ele>
  <time>2026-09-02T22:07:18Z</time>
  <course>188.38</course>
  <speed>0.0</speed>
  <fix>3d</fix>
</trkpt>
<trkpt lat="33.810313" lon="-118.393867">
  <ele>-0.12</ele>
  <time>2026-09-02T22:07:18Z</time>
  <course>0.0</course>
  <speed>0.0</speed>
  <fix>3d</fix>
</trkpt>
<trkpt lat="33.810313" lon="-118.393867">
  <ele>0.0</ele>
  <time>2026-09-02T22:07:18Z</time>
  <course>188.39</course>
  <speed>0.0</speed>
  <fix>3d</fix>
</trkpt>
<trkpt lat="33.810313" lon="-118.393867">
  <ele>-0.12</ele>
  <time>2026-09-02T22:07:18Z</time>
  <course>0.0</course>
  <speed>0.0</speed>
  <fix>3d</fix>
</trkpt>
<trkpt lat="33.810313" lon="-118.393867">
  <ele>0.0</ele>
  <time>2026-09-02T22:07:18Z</time>
  <course>188.41</course>
  <speed>0.0</speed>
  <fix>3d</fix>
</trkpt>
<trkpt lat="33.810313" lon="-118.393867">
  <ele>-0.12</ele>
  <time>2026-09-02T22:07:18Z</time>
  <course>0.0</course>
  <speed>0.0</speed>
  <fix>3d</fix>
</trkpt>
<trkpt lat="33.810313" lon="-118.393867">
  <ele>0.0</ele>
  <time>2026-09-02T22:07:18Z</time>
  <course>188.43</course>
  <speed>0.0</speed>
  <fix>3d</fix>
</trkpt>
<trkpt lat="33.810313" lon="-118.393867">
  <ele>-0.12</ele>
  <time>2026-09-02T22:07:18Z</time>
  <course>0.0</course>
  <speed>0.0</speed>
  <fix>3d</fix>
</trkpt>
<trkpt lat="33.810313" lon="-118.393867">
  <ele>0.0</ele>
  <time>2026-09-02T22:07:18Z</time>
  <course>188.44</course>
  <speed>0.0</speed>
  <fix>3d</fix>
</trkpt>
<trkpt lat="33.810313" lon="-118.393867">
  <ele>-0.12</ele>
  <time>2026-09-02T22:07:18Z</time>
  <course>0.0</course>
  <speed>0.0</speed>
  <fix>3d</fix>
</trkpt>
<trkpt lat="33.810313" lon="-118.393867">
  <ele>0.0</ele>
  <time>2026-09-02T22:07:18Z</time>
  <course>188.45</course>
  <speed>0.0</speed>
  <fix>3d</fix>
</trkpt>
<trkpt lat="33.810313" lon="-118.393867">
  <ele>-0.13</ele>
  <time>2026-09-02T22:07:18Z</time>
  <course>0.0</course>
  <speed>0.0</speed>
  <fix>3d</fix>
</trkpt>
<trkpt lat="33.810313" lon="-118.393867">
  <ele>0.0</ele>
  <time>2026-09-02T22:07:19Z</time>
  <course>188.46</course>
  <speed>0.0</speed>
  <fix>3d</fix>
</trkpt>
<trkpt lat="33.810313" lon="-118.393867">
  <ele>-0.13</ele>
  <time>2026-09-02T22:07:19Z</time>
  <course>0.0</course>
  <speed>0.0</speed>
  <fix>3d</fix>
</trkpt>
<trkpt lat="33.810313" lon="-118.393867">
  <ele>0.0</ele>
  <time>2026-09-02T22:07:19Z</time>
  <course>188.48</course>
  <speed>0.0</speed>
  <fix>3d</fix>
</trkpt>
<trkpt lat="33.810313" lon="-118.393867">
  <ele>-0.13</ele>
  <time>2026-09-02T22:07:19Z</time>
  <course>0.0</course>
  <speed>0.0</speed>
  <fix>3d</fix>
</trkpt>
<trkpt lat="33.810313" lon="-118.393867">
  <ele>0.0</ele>
  <time>2026-09-02T22:07:19Z</time>
  <course>188.49</course>
  <speed>0.0</speed>
  <fix>3d</fix>
</trkpt>
<trkpt lat="33.810313" lon="-118.393867">
  <ele>-0.13</ele>
  <time>2026-09-02T22:07:19Z</time>
  <course>0.0</course>
  <speed>0.0</speed>
  <fix>3d</fix>
</trkpt>
<trkpt lat="33.810313" lon="-118.393867">
  <ele>0.0</ele>
  <time>2026-09-02T22:07:19Z</time>
  <course>188.49</course>
  <speed>0.0</speed>
  <fix>3d</fix>
</trkpt>
<trkpt lat="33.810313" lon="-118.393867">
  <ele>-0.13</ele>
  <time>2026-09-02T22:07:19Z</time>
  <course>0.0</course>
  <speed>0.0</speed>
  <fix>3d</fix>
</trkpt>
<trkpt lat="33.810313" lon="-118.393867">
  <ele>0.0</ele>
  <time>2026-09-02T22:07:19Z</time>
  <course>188.5</course>
  <speed>0.0</speed>
  <fix>3d</fix>
</trkpt>
<trkpt lat="33.810313" lon="-118.393867">
  <ele>-0.13</ele>
  <time>2026-09-02T22:07:19Z</time>
  <course>0.0</course>
  <speed>0.0</speed>
  <fix>3d</fix>
</trkpt>
<trkpt lat="33.810313" lon="-118.393867">
  <ele>0.0</ele>
  <time>2026-09-02T22:07:19Z</time>
  <course>188.51</course>
  <speed>0.0</speed>
  <fix>3d</fix>
</trkpt>
<trkpt lat="33.810313" lon="-118.393867">
  <ele>-0.12</ele>
  <time>2026-09-02T22:07:19Z</time>
  <course>0.0</course>
  <speed>0.0</speed>
  <fix>3d</fix>
</trkpt>
<trkpt lat="33.810313" lon="-118.393867">
  <ele>0.0</ele>
  <time>2026-09-02T22:07:19Z</time>
  <course>188.52</course>
  <speed>0.0</speed>
  <fix>3d</fix>
</trkpt>
<trkpt lat="33.810313" lon="-118.393867">
  <ele>-0.12</ele>
  <time>2026-09-02T22:07:19Z</time>
  <course>0.0</course>
  <speed>0.0</speed>
  <fix>3d</fix>
</trkpt>
<trkpt lat="33.810313" lon="-118.393867">
  <ele>0.0</ele>
  <time>2026-09-02T22:07:19Z</time>
  <course>188.53</course>
  <speed>0.0</speed>
  <fix>3d</fix>
</trkpt>
<trkpt lat="33.810313" lon="-118.393867">
  <ele>-0.12</ele>
  <time>2026-09-02T22:07:19Z</time>
  <course>0.0</course>
  <speed>0.0</speed>
  <fix>3d</fix>
</trkpt>
<trkpt lat="33.810313" lon="-118.393867">
  <ele>0.0</ele>
  <time>2026-09-02T22:07:19Z</time>
  <course>188.53</course>
  <speed>0.0</speed>
  <fix>3d</fix>
</trkpt>
<trkpt lat="33.810313" lon="-118.393867">
  <ele>-0.12</ele>
  <time>2026-09-02T22:07:19Z</time>
  <course>0.0</course>
  <speed>0.0</speed>
  <fix>3d</fix>
</trkpt>
<trkpt lat="33.810313" lon="-118.393867">
  <ele>0.0</ele>
  <time>2026-09-02T22:07:19Z</time>
  <course>188.54</course>
  <speed>0.0</speed>
  <fix>3d</fix>
</trkpt>
<trkpt lat="33.810313" lon="-118.393867">
  <ele>-0.12</ele>
  <time>2026-09-02T22:07:19Z</time>
  <course>0.0</course>
  <speed>0.0</speed>
  <fix>3d</fix>
</trkpt>
<trkpt lat="33.810313" lon="-118.393867">
  <ele>0.0</ele>
  <time>2026-09-02T22:07:19Z</time>
  <course>188.54</course>
  <speed>0.0</speed>
  <fix>3d</fix>
</trkpt>
<trkpt lat="33.810313" lon="-118.393867">
  <ele>-0.12</ele>
  <time>2026-09-02T22:07:19Z</time>
  <course>0.0</course>
  <speed>0.0</speed>
  <fix>3d</fix>
</trkpt>
<trkpt lat="33.810313" lon="-118.393867">
  <ele>0.0</ele>
  <time>2026-09-02T22:07:19Z</time>
  <course>188.54</course>
  <speed>0.0</speed>
  <fix>3d</fix>
</trkpt>
<trkpt lat="33.810313" lon="-118.393867">
  <ele>-0.12</ele>
  <time>2026-09-02T22:07:19Z</time>
  <course>0.0</course>
  <speed>0.0</speed>
  <fix>3d</fix>
</trkpt>
<trkpt lat="33.810313" lon="-118.393867">
  <ele>0.0</ele>
  <time>2026-09-02T22:07:19Z</time>
  <course>188.55</course>
  <speed>0.0</speed>
  <fix>3d</fix>
</trkpt>
<trkpt lat="33.810313" lon="-118.393867">
  <ele>-0.12</ele>
  <time>2026-09-02T22:07:19Z</time>
  <course>0.0</course>
  <speed>0.0</speed>
  <fix>3d</fix>
</trkpt>
<trkpt lat="33.810313" lon="-118.393867">
  <ele>0.0</ele>
  <time>2026-09-02T22:07:19Z</time>
  <course>188.55</course>
  <speed>0.0</speed>
  <fix>3d</fix>
</trkpt>
<trkpt lat="33.810313" lon="-118.393867">
  <ele>-0.12</ele>
  <time>2026-09-02T22:07:19Z</time>
  <course>0.0</course>
  <speed>0.0</speed>
  <fix>3d</fix>
</trkpt>
<trkpt lat="33.810313" lon="-118.393867">
  <ele>0.0</ele>
  <time>2026-09-02T22:07:19Z</time>
  <course>188.55</course>
  <speed>0.0</speed>
  <fix>3d</fix>
</trkpt>
<trkpt lat="33.810313" lon="-118.393867">
  <ele>-0.12</ele>
  <time>2026-09-02T22:07:19Z</time>
  <course>0.0</course>
  <speed>0.0</speed>
  <fix>3d</fix>
</trkpt>
<trkpt lat="33.810313" lon="-118.393867">
  <ele>-0.126</ele>
  <time>2026-09-02T22:07:19Z</time>
  <course>188.55</course>
  <speed>0.0</speed>
  <fix>3d</fix>
</trkpt>
<trkpt lat="33.810313" lon="-118.393867">
  <ele>-0.13</ele>
  <time>2026-09-02T22:07:19Z</time>
  <course>0.0</course>
  <speed>0.0</speed>
  <fix>3d</fix>
</trkpt>
<trkpt lat="33.810313" lon="-118.393867">
  <ele>-0.126</ele>
  <time>2026-09-02T22:07:19Z</time>
  <course>188.56</course>
  <speed>0.0</speed>
  <fix>3d</fix>
</trkpt>
<trkpt lat="33.810313" lon="-118.393867">
  <ele>-0.13</ele>
  <time>2026-09-02T22:07:19Z</time>
  <course>0.0</course>
  <speed>0.0</speed>
  <fix>3d</fix>
</trkpt>
<trkpt lat="33.810313" lon="-118.393867">
  <ele>-0.124</ele>
  <time>2026-09-02T22:07:19Z</time>
  <course>188.56</course>
  <speed>0.0</speed>
  <fix>3d</fix>
</trkpt>
<trkpt lat="33.810313" lon="-118.393867">
  <ele>-0.13</ele>
  <time>2026-09-02T22:07:19Z</time>
  <course>0.0</course>
  <speed>0.0</speed>
  <fix>3d</fix>
</trkpt>
<trkpt lat="33.810313" lon="-118.393867">
  <ele>-0.123</ele>
  <time>2026-09-02T22:07:19Z</time>
  <course>188.56</course>
  <speed>0.0</speed>
  <fix>3d</fix>
</trkpt>
<trkpt lat="33.810313" lon="-118.393867">
  <ele>-0.13</ele>
  <time>2026-09-02T22:07:19Z</time>
  <course>0.0</course>
  <speed>0.0</speed>
  <fix>3d</fix>
</trkpt>
<trkpt lat="33.810313" lon="-118.393867">
  <ele>-0.121</ele>
  <time>2026-09-02T22:07:19Z</time>
  <course>188.56</course>
  <speed>0.0</speed>
  <fix>3d</fix>
</trkpt>
<trkpt lat="33.810313" lon="-118.393867">
  <ele>-0.12</ele>
  <time>2026-09-02T22:07:19Z</time>
  <course>0.0</course>
  <speed>0.0</speed>
  <fix>3d</fix>
</trkpt>
<trkpt lat="33.810313" lon="-118.393867">
  <ele>-0.12</ele>
  <time>2026-09-02T22:07:19Z</time>
  <course>188.56</course>
  <speed>0.0</speed>
  <fix>3d</fix>
</trkpt>
<trkpt lat="33.810313" lon="-118.393867">
  <ele>-0.12</ele>
  <time>2026-09-02T22:07:19Z</time>
  <course>0.0</course>
  <speed>0.0</speed>
  <fix>3d</fix>
</trkpt>
<trkpt lat="33.810313" lon="-118.393867">
  <ele>-0.119</ele>
  <time>2026-09-02T22:07:19Z</time>
  <course>188.56</course>
  <speed>0.0</speed>
  <fix>3d</fix>
</trkpt>
<trkpt lat="33.810313" lon="-118.393867">
  <ele>-0.12</ele>
  <time>2026-09-02T22:07:19Z</time>
  <course>0.0</course>
  <speed>0.0</speed>
  <fix>3d</fix>
</trkpt>
<trkpt lat="33.810313" lon="-118.393867">
  <ele>-0.12</ele>
  <time>2026-09-02T22:07:19Z</time>
  <course>188.56</course>
  <speed>0.0</speed>
  <fix>3d</fix>
</trkpt>
<trkpt lat="33.810313" lon="-118.393867">
  <ele>-0.12</ele>
  <time>2026-09-02T22:07:19Z</time>
  <course>0.0</course>
  <speed>0.0</speed>
  <fix>3d</fix>
</trkpt>
<trkpt lat="33.810313" lon="-118.393867">
  <ele>-0.124</ele>
  <time>2026-09-02T22:07:19Z</time>
  <course>188.55</course>
  <speed>0.0</speed>
  <fix>3d</fix>
</trkpt>
<trkpt lat="33.810313" lon="-118.393867">
  <ele>-0.12</ele>
  <time>2026-09-02T22:07:19Z</time>
  <course>0.0</course>
  <speed>0.0</speed>
  <fix>3d</fix>
</trkpt>
<trkpt lat="33.810313" lon="-118.393867">
  <ele>-0.127</ele>
  <time>2026-09-02T22:07:19Z</time>
  <course>188.55</course>
  <speed>0.0</speed>
  <fix>3d</fix>
</trkpt>
<trkpt lat="33.810313" lon="-118.393867">
  <ele>-0.12</ele>
  <time>2026-09-02T22:07:19Z</time>
  <course>0.0</course>
  <speed>0.0</speed>
  <fix>3d</fix>
</trkpt>
<trkpt lat="33.810313" lon="-118.393867">
  <ele>-0.13</ele>
  <time>2026-09-02T22:07:19Z</time>
  <course>188.55</course>
  <speed>0.0</speed>
  <fix>3d</fix>
</trkpt>
<trkpt lat="33.810313" lon="-118.393867">
  <ele>-0.12</ele>
  <time>2026-09-02T22:07:19Z</time>
  <course>0.0</course>
  <speed>0.0</speed>
  <fix>3d</fix>
</trkpt>
<trkpt lat="33.810313" lon="-118.393867">
  <ele>-0.132</ele>
  <time>2026-09-02T22:07:19Z</time>
  <course>188.55</course>
  <speed>0.0</speed>
  <fix>3d</fix>
</trkpt>
<trkpt lat="33.810313" lon="-118.393867">
  <ele>-0.12</ele>
  <time>2026-09-02T22:07:19Z</time>
  <course>0.0</course>
  <speed>0.0</speed>
  <fix>3d</fix>
</trkpt>
<trkpt lat="33.810313" lon="-118.393867">
  <ele>-0.132</ele>
  <time>2026-09-02T22:07:19Z</time>
  <course>188.55</course>
  <speed>0.0</speed>
  <fix>3d</fix>
</trkpt>
<trkpt lat="33.810313" lon="-118.393867">
  <ele>-0.12</ele>
  <time>2026-09-02T22:07:19Z</time>
  <course>0.0</course>
  <speed>0.0</speed>
  <fix>3d</fix>
</trkpt>
<trkpt lat="33.810313" lon="-118.393867">
  <ele>-0.132</ele>
  <time>2026-09-02T22:07:19Z</time>
  <course>188.55</course>
  <speed>0.0</speed>
  <fix>3d</fix>
</trkpt>
<trkpt lat="33.810313" lon="-118.393867">
  <ele>-0.12</ele>
  <time>2026-09-02T22:07:19Z</time>
  <course>0.0</course>
  <speed>0.0</speed>
  <fix>3d</fix>
</trkpt>
<trkpt lat="33.810313" lon="-118.393867">
  <ele>-0.132</ele>
  <time>2026-09-02T22:07:19Z</time>
  <course>188.55</course>
  <speed>0.0</speed>
  <fix>3d</fix>
</trkpt>
<trkpt lat="33.810313" lon="-118.393867">
  <ele>-0.12</ele>
  <time>2026-09-02T22:07:19Z</time>
  <course>0.0</course>
  <speed>0.0</speed>
  <fix>3d</fix>
</trkpt>
<trkpt lat="33.810313" lon="-118.393867">
  <ele>-0.131</ele>
  <time>2026-09-02T22:07:19Z</time>
  <course>188.55</course>
  <speed>0.0</speed>
  <fix>3d</fix>
</trkpt>
<trkpt lat="33.810313" lon="-118.393867">
  <ele>-0.12</ele>
  <time>2026-09-02T22:07:19Z</time>
  <course>0.0</course>
  <speed>0.0</speed>
  <fix>3d</fix>
</trkpt>
<trkpt lat="33.810313" lon="-118.393867">
  <ele>-0.129</ele>
  <time>2026-09-02T22:07:19Z</time>
  <course>188.54</course>
  <speed>0.0</speed>
  <fix>3d</fix>
</trkpt>
<trkpt lat="33.810313" lon="-118.393867">
  <ele>-0.13</ele>
  <time>2026-09-02T22:07:19Z</time>
  <course>0.0</course>
  <speed>0.0</speed>
  <fix>3d</fix>
</trkpt>
<trkpt lat="33.810313" lon="-118.393867">
  <ele>-0.128</ele>
  <time>2026-09-02T22:07:19Z</time>
  <course>188.54</course>
  <speed>0.0</speed>
  <fix>3d</fix>
</trkpt>
<trkpt lat="33.810313" lon="-118.393867">
  <ele>-0.13</ele>
  <time>2026-09-02T22:07:19Z</time>
  <course>0.0</course>
  <speed>0.0</speed>
  <fix>3d</fix>
</trkpt>
<trkpt lat="33.810313" lon="-118.393867">
  <ele>-0.125</ele>
  <time>2026-09-02T22:07:19Z</time>
  <course>188.53</course>
  <speed>0.0</speed>
  <fix>3d</fix>
</trkpt>
<trkpt lat="33.810313" lon="-118.393867">
  <ele>-0.12</ele>
  <time>2026-09-02T22:07:19Z</time>
  <course>0.0</course>
  <speed>0.0</speed>
  <fix>3d</fix>
</trkpt>
<trkpt lat="33.810313" lon="-118.393867">
  <ele>-0.123</ele>
  <time>2026-09-02T22:07:19Z</time>
  <course>188.53</course>
  <speed>0.0</speed>
  <fix>3d</fix>
</trkpt>
<trkpt lat="33.810313" lon="-118.393867">
  <ele>-0.12</ele>
  <time>2026-09-02T22:07:19Z</time>
  <course>0.0</course>
  <speed>0.0</speed>
  <fix>3d</fix>
</trkpt>
<trkpt lat="33.810313" lon="-118.393867">
  <ele>-0.121</ele>
  <time>2026-09-02T22:07:19Z</time>
  <course>188.52</course>
  <speed>0.0</speed>
  <fix>3d</fix>
</trkpt>
<trkpt lat="33.810313" lon="-118.393867">
  <ele>-0.12</ele>
  <time>2026-09-02T22:07:19Z</time>
  <course>0.0</course>
  <speed>0.0</speed>
  <fix>3d</fix>
</trkpt>
<trkpt lat="33.810313" lon="-118.393867">
  <ele>-0.121</ele>
  <time>2026-09-02T22:07:19Z</time>
  <course>188.52</course>
  <speed>0.0</speed>
  <fix>3d</fix>
</trkpt>
<trkpt lat="33.810313" lon="-118.393867">
  <ele>-0.12</ele>
  <time>2026-09-02T22:07:19Z</time>
  <course>0.0</course>
  <speed>0.0</speed>
  <fix>3d</fix>
</trkpt>
<trkpt lat="33.810313" lon="-118.393867">
  <ele>-0.122</ele>
  <time>2026-09-02T22:07:19Z</time>
  <course>188.51</course>
  <speed>0.0</speed>
  <fix>3d</fix>
</trkpt>
<trkpt lat="33.810313" lon="-118.393867">
  <ele>-0.12</ele>
  <time>2026-09-02T22:07:19Z</time>
  <course>0.0</course>
  <speed>0.0</speed>
  <fix>3d</fix>
</trkpt>
<trkpt lat="33.810313" lon="-118.393867">
  <ele>-0.123</ele>
  <time>2026-09-02T22:07:19Z</time>
  <course>188.51</course>
  <speed>0.0</speed>
  <fix>3d</fix>
</trkpt>
<trkpt lat="33.810313" lon="-118.393867">
  <ele>-0.12</ele>
  <time>2026-09-02T22:07:19Z</time>
  <course>0.0</course>
  <speed>0.0</speed>
  <fix>3d</fix>
</trkpt>
<trkpt lat="33.810313" lon="-118.393867">
  <ele>-0.126</ele>
  <time>2026-09-02T22:07:19Z</time>
  <course>188.5</course>
  <speed>0.0</speed>
  <fix>3d</fix>
</trkpt>
<trkpt lat="33.810313" lon="-118.393867">
  <ele>-0.12</ele>
  <time>2026-09-02T22:07:19Z</time>
  <course>0.0</course>
  <speed>0.0</speed>
  <fix>3d</fix>
</trkpt>
<trkpt lat="33.810313" lon="-118.393867">
  <ele>-0.127</ele>
  <time>2026-09-02T22:07:19Z</time>
  <course>188.5</course>
  <speed>0.0</speed>
  <fix>3d</fix>
</trkpt>
<trkpt lat="33.810313" lon="-118.393867">
  <ele>-0.12</ele>
  <time>2026-09-02T22:07:19Z</time>
  <course>0.0</course>
  <speed>0.0</speed>
  <fix>3d</fix>
</trkpt>
<trkpt lat="33.810313" lon="-118.393867">
  <ele>-0.128</ele>
  <time>2026-09-02T22:07:19Z</time>
  <course>188.49</course>
  <speed>0.0</speed>
  <fix>3d</fix>
</trkpt>
<trkpt lat="33.810313" lon="-118.393867">
  <ele>-0.12</ele>
  <time>2026-09-02T22:07:19Z</time>
  <course>0.0</course>
  <speed>0.0</speed>
  <fix>3d</fix>
</trkpt>
<trkpt lat="33.810313" lon="-118.393867">
  <ele>-0.127</ele>
  <time>2026-09-02T22:07:19Z</time>
  <course>188.48</course>
  <speed>0.0</speed>
  <fix>3d</fix>
</trkpt>
<trkpt lat="33.810313" lon="-118.393867">
  <ele>-0.12</ele>
  <time>2026-09-02T22:07:19Z</time>
  <course>0.0</course>
  <speed>0.0</speed>
  <fix>3d</fix>
</trkpt>
<trkpt lat="33.810313" lon="-118.393867">
  <ele>-0.127</ele>
  <time>2026-09-02T22:07:19Z</time>
  <course>188.48</course>
  <speed>0.0</speed>
  <fix>3d</fix>
</trkpt>
<trkpt lat="33.810313" lon="-118.393867">
  <ele>-0.12</ele>
  <time>2026-09-02T22:07:19Z</time>
  <course>0.0</course>
  <speed>0.0</speed>
  <fix>3d</fix>
</trkpt>
<trkpt lat="33.810313" lon="-118.393867">
  <ele>-0.127</ele>
  <time>2026-09-02T22:07:19Z</time>
  <course>188.47</course>
  <speed>0.01</speed>
  <fix>3d</fix>
</trkpt>
<trkpt lat="33.810313" lon="-118.393867">
  <ele>-0.12</ele>
  <time>2026-09-02T22:07:19Z</time>
  <course>0.0</course>
  <speed>0.0</speed>
  <fix>3d</fix>
</trkpt>
<trkpt lat="33.810313" lon="-118.393867">
  <ele>-0.127</ele>
  <time>2026-09-02T22:07:19Z</time>
  <course>188.47</course>
  <speed>0.01</speed>
  <fix>3d</fix>
</trkpt>
<trkpt lat="33.810313" lon="-118.393867">
  <ele>-0.12</ele>
  <time>2026-09-02T22:07:19Z</time>
  <course>0.0</course>
  <speed>0.0</speed>
  <fix>3d</fix>
</trkpt>
<trkpt lat="33.810313" lon="-118.393867">
  <ele>-0.126</ele>
  <time>2026-09-02T22:07:19Z</time>
  <course>188.46</course>
  <speed>0.01</speed>
  <fix>3d</fix>
</trkpt>
<trkpt lat="33.810313" lon="-118.393867">
  <ele>-0.12</ele>
  <time>2026-09-02T22:07:19Z</time>
  <course>0.0</course>
  <speed>0.0</speed>
  <fix>3d</fix>
</trkpt>
<trkpt lat="33.810313" lon="-118.393867">
  <ele>-0.126</ele>
  <time>2026-09-02T22:07:19Z</time>
  <course>188.45</course>
  <speed>0.01</speed>
  <fix>3d</fix>
</trkpt>
<trkpt lat="33.810313" lon="-118.393867">
  <ele>-0.12</ele>
  <time>2026-09-02T22:07:19Z</time>
  <course>0.0</course>
  <speed>0.0</speed>
  <fix>3d</fix>
</trkpt>
<trkpt lat="33.810313" lon="-118.393867">
  <ele>-0.126</ele>
  <time>2026-09-02T22:07:19Z</time>
  <course>188.45</course>
  <speed>0.01</speed>
  <fix>3d</fix>
</trkpt>
<trkpt lat="33.810313" lon="-118.393867">
  <ele>-0.12</ele>
  <time>2026-09-02T22:07:19Z</time>
  <course>0.0</course>
  <speed>0.0</speed>
  <fix>3d</fix>
</trkpt>
<trkpt lat="33.810313" lon="-118.393867">
  <ele>-0.125</ele>
  <time>2026-09-02T22:07:19Z</time>
  <course>188.44</course>
  <speed>0.01</speed>
  <fix>3d</fix>
</trkpt>
<trkpt lat="33.810313" lon="-118.393867">
  <ele>-0.12</ele>
  <time>2026-09-02T22:07:19Z</time>
  <course>0.0</course>
  <speed>0.0</speed>
  <fix>3d</fix>
</trkpt>
<trkpt lat="33.810313" lon="-118.393867">
  <ele>-0.126</ele>
  <time>2026-09-02T22:07:19Z</time>
  <course>188.43</course>
  <speed>0.01</speed>
  <fix>3d</fix>
</trkpt>
<trkpt lat="33.810313" lon="-118.393867">
  <ele>-0.12</ele>
  <time>2026-09-02T22:07:19Z</time>
  <course>0.0</course>
  <speed>0.0</speed>
  <fix>3d</fix>
</trkpt>
<trkpt lat="33.810313" lon="-118.393867">
  <ele>-0.127</ele>
  <time>2026-09-02T22:07:19Z</time>
  <course>188.42</course>
  <speed>0.01</speed>
  <fix>3d</fix>
</trkpt>
<trkpt lat="33.810313" lon="-118.393867">
  <ele>-0.12</ele>
  <time>2026-09-02T22:07:19Z</time>
  <course>0.0</course>
  <speed>0.0</speed>
  <fix>3d</fix>
</trkpt>
<trkpt lat="33.810313" lon="-118.393867">
  <ele>-0.128</ele>
  <time>2026-09-02T22:07:19Z</time>
  <course>188.42</course>
  <speed>0.01</speed>
  <fix>3d</fix>
</trkpt>
<trkpt lat="33.810313" lon="-118.393867">
  <ele>-0.12</ele>
  <time>2026-09-02T22:07:19Z</time>
  <course>0.0</course>
  <speed>0.0</speed>
  <fix>3d</fix>
</trkpt>
<trkpt lat="33.810313" lon="-118.393867">
  <ele>-0.129</ele>
  <time>2026-09-02T22:07:19Z</time>
  <course>188.41</course>
  <speed>0.01</speed>
  <fix>3d</fix>
</trkpt>
<trkpt lat="33.810313" lon="-118.393867">
  <ele>-0.12</ele>
  <time>2026-09-02T22:07:19Z</time>
  <course>0.0</course>
  <speed>0.0</speed>
  <fix>3d</fix>
</trkpt>
<trkpt lat="33.810313" lon="-118.393867">
  <ele>-0.129</ele>
  <time>2026-09-02T22:07:19Z</time>
  <course>188.4</course>
  <speed>0.01</speed>
  <fix>3d</fix>
</trkpt>
<trkpt lat="33.810313" lon="-118.393867">
  <ele>-0.12</ele>
  <time>2026-09-02T22:07:19Z</time>
  <course>0.0</course>
  <speed>0.0</speed>
  <fix>3d</fix>
</trkpt>
<trkpt lat="33.810313" lon="-118.393867">
  <ele>-0.13</ele>
  <time>2026-09-02T22:07:19Z</time>
  <course>188.4</course>
  <speed>0.01414213562373095</speed>
  <fix>3d</fix>
</trkpt>
<trkpt lat="33.810313" lon="-118.393867">
  <ele>-0.12</ele>
  <time>2026-09-02T22:07:19Z</time>
  <course>0.0</course>
  <speed>0.0</speed>
  <fix>3d</fix>
</trkpt>
<trkpt lat="33.810313" lon="-118.393867">
  <ele>-0.13</ele>
  <time>2026-09-02T22:07:19Z</time>
  <course>188.39</course>
  <speed>0.01414213562373095</speed>
  <fix>3d</fix>
</trkpt>
<trkpt lat="33.810313" lon="-118.393867">
  <ele>-0.12</ele>
  <time>2026-09-02T22:07:19Z</time>
  <course>0.0</course>
  <speed>0.0</speed>
  <fix>3d</fix>
</trkpt>
<trkpt lat="33.810313" lon="-118.393867">
  <ele>-0.13</ele>
  <time>2026-09-02T22:07:19Z</time>
  <course>188.38</course>
  <speed>0.01414213562373095</speed>
  <fix>3d</fix>
</trkpt>
<trkpt lat="33.810313" lon="-118.393867">
  <ele>-0.12</ele>
  <time>2026-09-02T22:07:19Z</time>
  <course>0.0</course>
  <speed>0.0</speed>
  <fix>3d</fix>
</trkpt>
<trkpt lat="33.810313" lon="-118.393867">
  <ele>-0.129</ele>
  <time>2026-09-02T22:07:19Z</time>
  <course>188.37</course>
  <speed>0.01414213562373095</speed>
  <fix>3d</fix>
</trkpt>
<trkpt lat="33.810313" lon="-118.393867">
  <ele>-0.12</ele>
  <time>2026-09-02T22:07:19Z</time>
  <course>0.0</course>
  <speed>0.0</speed>
  <fix>3d</fix>
</trkpt>
<trkpt lat="33.810313" lon="-118.393867">
  <ele>-0.128</ele>
  <time>2026-09-02T22:07:19Z</time>
  <course>188.37</course>
  <speed>0.01414213562373095</speed>
  <fix>3d</fix>
</trkpt>
<trkpt lat="33.810313" lon="-118.393867">
  <ele>-0.12</ele>
  <time>2026-09-02T22:07:19Z</time>
  <course>0.0</course>
  <speed>0.0</speed>
  <fix>3d</fix>
</trkpt>
<trkpt lat="33.810313" lon="-118.393867">
  <ele>-0.126</ele>
  <time>2026-09-02T22:07:19Z</time>
  <course>188.36</course>
  <speed>0.01414213562373095</speed>
  <fix>3d</fix>
</trkpt>
<trkpt lat="33.810313" lon="-118.393867">
  <ele>-0.12</ele>
  <time>2026-09-02T22:07:19Z</time>
  <course>0.0</course>
  <speed>0.0</speed>
  <fix>3d</fix>
</trkpt>
<trkpt lat="33.810313" lon="-118.393867">
  <ele>-0.124</ele>
  <time>2026-09-02T22:07:19Z</time>
  <course>188.35</course>
  <speed>0.01414213562373095</speed>
  <fix>3d</fix>
</trkpt>
<trkpt lat="33.810313" lon="-118.393867">
  <ele>-0.12</ele>
  <time>2026-09-02T22:07:19Z</time>
  <course>0.0</course>
  <speed>0.0</speed>
  <fix>3d</fix>
</trkpt>
<trkpt lat="33.810313" lon="-118.393867">
  <ele>-0.122</ele>
  <time>2026-09-02T22:07:19Z</time>
  <course>188.34</course>
  <speed>0.01414213562373095</speed>
  <fix>3d</fix>
</trkpt>
<trkpt lat="33.810313" lon="-118.393867">
  <ele>-0.12</ele>
  <time>2026-09-02T22:07:19Z</time>
  <course>0.0</course>
  <speed>0.0</speed>
  <fix>3d</fix>
</trkpt>
<trkpt lat="33.810313" lon="-118.393867">
  <ele>-0.123</ele>
  <time>2026-09-02T22:07:19Z</time>
  <course>188.33</course>
  <speed>0.01414213562373095</speed>
  <fix>3d</fix>
</trkpt>
<trkpt lat="33.810313" lon="-118.393867">
  <ele>-0.12</ele>
  <time>2026-09-02T22:07:19Z</time>
  <course>0.0</course>
  <speed>0.0</speed>
  <fix>3d</fix>
</trkpt>
<trkpt lat="33.810313" lon="-118.393867">
  <ele>-0.125</ele>
  <time>2026-09-02T22:07:19Z</time>
  <course>188.33</course>
  <speed>0.01414213562373095</speed>
  <fix>3d</fix>
</trkpt>
<trkpt lat="33.810313" lon="-118.393867">
  <ele>-0.12</ele>
  <time>2026-09-02T22:07:19Z</time>
  <course>0.0</course>
  <speed>0.0</speed>
  <fix>3d</fix>
</trkpt>
<trkpt lat="33.810313" lon="-118.393867">
  <ele>-0.128</ele>
  <time>2026-09-02T22:07:19Z</time>
  <course>188.32</course>
  <speed>0.01414213562373095</speed>
  <fix>3d</fix>
</trkpt>
<trkpt lat="33.810313" lon="-118.393867">
  <ele>-0.12</ele>
  <time>2026-09-02T22:07:19Z</time>
  <course>0.0</course>
  <speed>0.0</speed>
  <fix>3d</fix>
</trkpt>
<trkpt lat="33.810313" lon="-118.393867">
  <ele>-0.132</ele>
  <time>2026-09-02T22:07:19Z</time>
  <course>188.31</course>
  <speed>0.01414213562373095</speed>
  <fix>3d</fix>
</trkpt>
<trkpt lat="33.810313" lon="-118.393867">
  <ele>-0.12</ele>
  <time>2026-09-02T22:07:19Z</time>
  <course>0.0</course>
  <speed>0.0</speed>
  <fix>3d</fix>
</trkpt>
<trkpt lat="33.810313" lon="-118.393867">
  <ele>-0.135</ele>
  <time>2026-09-02T22:07:19Z</time>
  <course>188.3</course>
  <speed>0.01414213562373095</speed>
  <fix>3d</fix>
</trkpt>
<trkpt lat="33.810313" lon="-118.393867">
  <ele>-0.12</ele>
  <time>2026-09-02T22:07:19Z</time>
  <course>0.0</course>
  <speed>0.0</speed>
  <fix>3d</fix>
</trkpt>
<trkpt lat="33.810313" lon="-118.393867">
  <ele>-0.135</ele>
  <time>2026-09-02T22:07:19Z</time>
  <course>188.3</course>
  <speed>0.01414213562373095</speed>
  <fix>3d</fix>
</trkpt>
<trkpt lat="33.810313" lon="-118.393867">
  <ele>-0.12</ele>
  <time>2026-09-02T22:07:19Z</time>
  <course>0.0</course>
  <speed>0.0</speed>
  <fix>3d</fix>
</trkpt>
<trkpt lat="33.810313" lon="-118.393867">
  <ele>-0.134</ele>
  <time>2026-09-02T22:07:19Z</time>
  <course>188.29</course>
  <speed>0.01414213562373095</speed>
  <fix>3d</fix>
</trkpt>
<trkpt lat="33.810313" lon="-118.393867">
  <ele>-0.12</ele>
  <time>2026-09-02T22:07:19Z</time>
  <course>0.0</course>
  <speed>0.0</speed>
  <fix>3d</fix>
</trkpt>
<trkpt lat="33.810313" lon="-118.393867">
  <ele>-0.132</ele>
  <time>2026-09-02T22:07:19Z</time>
  <course>188.28</course>
  <speed>0.01414213562373095</speed>
  <fix>3d</fix>
</trkpt>
<trkpt lat="33.810313" lon="-118.393867">
  <ele>-0.12</ele>
  <time>2026-09-02T22:07:19Z</time>
  <course>0.0</course>
  <speed>0.0</speed>
  <fix>3d</fix>
</trkpt>
<trkpt lat="33.810313" lon="-118.393867">
  <ele>-0.129</ele>
  <time>2026-09-02T22:07:19Z</time>
  <course>188.27</course>
  <speed>0.01414213562373095</speed>
  <fix>3d</fix>
</trkpt>
<trkpt lat="33.810313" lon="-118.393867">
  <ele>-0.12</ele>
  <time>2026-09-02T22:07:19Z</time>
  <course>0.0</course>
  <speed>0.0</speed>
  <fix>3d</fix>
</trkpt>
<trkpt lat="33.810313" lon="-118.393867">
  <ele>-0.127</ele>
  <time>2026-09-02T22:07:19Z</time>
  <course>188.26</course>
  <speed>0.01414213562373095</speed>
  <fix>3d</fix>
</trkpt>
<trkpt lat="33.810313" lon="-118.393867">
  <ele>-0.12</ele>
  <time>2026-09-02T22:07:19Z</time>
  <course>0.0</course>
  <speed>0.0</speed>
  <fix>3d</fix>
</trkpt>
<trkpt lat="33.810313" lon="-118.393867">
  <ele>-0.124</ele>
  <time>2026-09-02T22:07:19Z</time>
  <course>188.25</course>
  <speed>0.01414213562373095</speed>
  <fix>3d</fix>
</trkpt>
<trkpt lat="33.810313" lon="-118.393867">
  <ele>-0.12</ele>
  <time>2026-09-02T22:07:19Z</time>
  <course>0.0</course>
  <speed>0.0</speed>
  <fix>3d</fix>
</trkpt>
<trkpt lat="33.810313" lon="-118.393867">
  <ele>-0.123</ele>
  <time>2026-09-02T22:07:19Z</time>
  <course>188.25</course>
  <speed>0.01414213562373095</speed>
  <fix>3d</fix>
</trkpt>
<trkpt lat="33.810313" lon="-118.393867">
  <ele>-0.12</ele>
  <time>2026-09-02T22:07:19Z</time>
  <course>0.0</course>
  <speed>0.0</speed>
  <fix>3d</fix>
</trkpt>
<trkpt lat="33.810313" lon="-118.393867">
  <ele>-0.124</ele>
  <time>2026-09-02T22:07:19Z</time>
  <course>188.24</course>
  <speed>0.01414213562373095</speed>
  <fix>3d</fix>
</trkpt>
<trkpt lat="33.810313" lon="-118.393867">
  <ele>-0.12</ele>
  <time>2026-09-02T22:07:19Z</time>
  <course>0.0</course>
  <speed>0.0</speed>
  <fix>3d</fix>
</trkpt>
<trkpt lat="33.810313" lon="-118.393867">
  <ele>-0.126</ele>
  <time>2026-09-02T22:07:19Z</time>
  <course>188.23</course>
  <speed>0.01414213562373095</speed>
  <fix>3d</fix>
</trkpt>
<trkpt lat="33.810313" lon="-118.393867">
  <ele>-0.12</ele>
  <time>2026-09-02T22:07:19Z</time>
  <course>0.0</course>
  <speed>0.0</speed>
  <fix>3d</fix>
</trkpt>
<trkpt lat="33.810313" lon="-118.393867">
  <ele>-0.127</ele>
  <time>2026-09-02T22:07:19Z</time>
  <course>188.22</course>
  <speed>0.01414213562373095</speed>
  <fix>3d</fix>
</trkpt>
<trkpt lat="33.810313" lon="-118.393867">
  <ele>-0.12</ele>
  <time>2026-09-02T22:07:19Z</time>
  <course>0.0</course>
  <speed>0.0</speed>
  <fix>3d</fix>
</trkpt>
<trkpt lat="33.810313" lon="-118.393867">
  <ele>-0.129</ele>
  <time>2026-09-02T22:07:19Z</time>
  <course>188.21</course>
  <speed>0.01414213562373095</speed>
  <fix>3d</fix>
</trkpt>
<trkpt lat="33.810313" lon="-118.393867">
  <ele>-0.12</ele>
  <time>2026-09-02T22:07:19Z</time>
  <course>0.0</course>
  <speed>0.0</speed>
  <fix>3d</fix>
</trkpt>
<trkpt lat="33.810313" lon="-118.393867">
  <ele>-0.129</ele>
  <time>2026-09-02T22:07:19Z</time>
  <course>188.21</course>
  <speed>0.01414213562373095</speed>
  <fix>3d</fix>
</trkpt>
<trkpt lat="33.810313" lon="-118.393867">
  <ele>-0.12</ele>
  <time>2026-09-02T22:07:19Z</time>
  <course>0.0</course>
  <speed>0.0</speed>
  <fix>3d</fix>
</trkpt>
<trkpt lat="33.810313" lon="-118.393867">
  <ele>-0.129</ele>
  <time>2026-09-02T22:07:19Z</time>
  <course>188.2</course>
  <speed>0.01414213562373095</speed>
  <fix>3d</fix>
</trkpt>
<trkpt lat="33.810313" lon="-118.393867">
  <ele>-0.12</ele>
  <time>2026-09-02T22:07:19Z</time>
  <course>0.0</course>
  <speed>0.0</speed>
  <fix>3d</fix>
</trkpt>
<trkpt lat="33.810313" lon="-118.393867">
  <ele>-0.128</ele>
  <time>2026-09-02T22:07:19Z</time>
  <course>188.19</course>
  <speed>0.01414213562373095</speed>
  <fix>3d</fix>
</trkpt>
<trkpt lat="33.810313" lon="-118.393867">
  <ele>-0.12</ele>
  <time>2026-09-02T22:07:19Z</time>
  <course>0.0</course>
  <speed>0.0</speed>
  <fix>3d</fix>
</trkpt>
<trkpt lat="33.810313" lon="-118.393867">
  <ele>-0.128</ele>
  <time>2026-09-02T22:07:19Z</time>
  <course>188.18</course>
  <speed>0.01414213562373095</speed>
  <fix>3d</fix>
</trkpt>
<trkpt lat="33.810313" lon="-118.393867">
  <ele>-0.12</ele>
  <time>2026-09-02T22:07:19Z</time>
  <course>0.0</course>
  <speed>0.0</speed>
  <fix>3d</fix>
</trkpt>
<trkpt lat="33.810313" lon="-118.393867">
  <ele>-0.127</ele>
  <time>2026-09-02T22:07:19Z</time>
  <course>188.17</course>
  <speed>0.01414213562373095</speed>
  <fix>3d</fix>
</trkpt>
<trkpt lat="33.810313" lon="-118.393867">
  <ele>-0.12</ele>
  <time>2026-09-02T22:07:19Z</time>
  <course>0.0</course>
  <speed>0.0</speed>
  <fix>3d</fix>
</trkpt>
<trkpt lat="33.810313" lon="-118.393867">
  <ele>-0.127</ele>
  <time>2026-09-02T22:07:19Z</time>
  <course>188.16</course>
  <speed>0.01414213562373095</speed>
  <fix>3d</fix>
</trkpt>
<trkpt lat="33.810313" lon="-118.393867">
  <ele>-0.12</ele>
  <time>2026-09-02T22:07:19Z</time>
  <course>0.0</course>
  <speed>0.0</speed>
  <fix>3d</fix>
</trkpt>
<trkpt lat="33.810313" lon="-118.393867">
  <ele>-0.128</ele>
  <time>2026-09-02T22:07:19Z</time>
  <course>188.16</course>
  <speed>0.01414213562373095</speed>
  <fix>3d</fix>
</trkpt>
<trkpt lat="33.810313" lon="-118.393867">
  <ele>-0.12</ele>
  <time>2026-09-02T22:07:19Z</time>
  <course>0.0</course>
  <speed>0.0</speed>
  <fix>3d</fix>
</trkpt>
<trkpt lat="33.810313" lon="-118.393867">
  <ele>-0.129</ele>
  <time>2026-09-02T22:07:19Z</time>
  <course>188.15</course>
  <speed>0.01414213562373095</speed>
  <fix>3d</fix>
</trkpt>
<trkpt lat="33.810313" lon="-118.393867">
  <ele>-0.12</ele>
  <time>2026-09-02T22:07:19Z</time>
  <course>0.0</course>
  <speed>0.0</speed>
  <fix>3d</fix>
</trkpt>
<trkpt lat="33.810313" lon="-118.393867">
  <ele>-0.131</ele>
  <time>2026-09-02T22:07:19Z</time>
  <course>188.14</course>
  <speed>0.01414213562373095</speed>
  <fix>3d</fix>
</trkpt>
<trkpt lat="33.810313" lon="-118.393867">
  <ele>-0.12</ele>
  <time>2026-09-02T22:07:19Z</time>
  <course>0.0</course>
  <speed>0.0</speed>
  <fix>3d</fix>
</trkpt>
<trkpt lat="33.810313" lon="-118.393867">
  <ele>-0.133</ele>
  <time>2026-09-02T22:07:19Z</time>
  <course>188.13</course>
  <speed>0.01414213562373095</speed>
  <fix>3d</fix>
</trkpt>
<trkpt lat="33.810313" lon="-118.393867">
  <ele>-0.12</ele>
  <time>2026-09-02T22:07:19Z</time>
  <course>0.0</course>
  <speed>0.0</speed>
  <fix>3d</fix>
</trkpt>
<trkpt lat="33.810313" lon="-118.393867">
  <ele>-0.135</ele>
  <time>2026-09-02T22:07:19Z</time>
  <course>188.12</course>
  <speed>0.01414213562373095</speed>
  <fix>3d</fix>
</trkpt>
<trkpt lat="33.810313" lon="-118.393867">
  <ele>-0.12</ele>
  <time>2026-09-02T22:07:19Z</time>
  <course>0.0</course>
  <speed>0.0</speed>
  <fix>3d</fix>
</trkpt>
<trkpt lat="33.810313" lon="-118.393867">
  <ele>-0.136</ele>
  <time>2026-09-02T22:07:19Z</time>
  <course>188.12</course>
  <speed>0.01414213562373095</speed>
  <fix>3d</fix>
</trkpt>
<trkpt lat="33.810313" lon="-118.393867">
  <ele>-0.12</ele>
  <time>2026-09-02T22:07:19Z</time>
  <course>0.0</course>
  <speed>0.0</speed>
  <fix>3d</fix>
</trkpt>
<trkpt lat="33.810313" lon="-118.393867">
  <ele>-0.136</ele>
  <time>2026-09-02T22:07:19Z</time>
  <course>188.11</course>
  <speed>0.01414213562373095</speed>
  <fix>3d</fix>
</trkpt>
<trkpt lat="33.810313" lon="-118.393867">
  <ele>-0.12</ele>
  <time>2026-09-02T22:07:19Z</time>
  <course>0.0</course>
  <speed>0.0</speed>
  <fix>3d</fix>
</trkpt>
<trkpt lat="33.810313" lon="-118.393867">
  <ele>-0.136</ele>
  <time>2026-09-02T22:07:19Z</time>
  <course>188.1</course>
  <speed>0.01414213562373095</speed>
  <fix>3d</fix>
</trkpt>
<trkpt lat="33.810313" lon="-118.393867">
  <ele>-0.12</ele>
  <time>2026-09-02T22:07:19Z</time>
  <course>0.0</course>
  <speed>0.0</speed>
  <fix>3d</fix>
</trkpt>
<trkpt lat="33.810313" lon="-118.393867">
  <ele>-0.135</ele>
  <time>2026-09-02T22:07:19Z</time>
  <course>188.09</course>
  <speed>0.01414213562373095</speed>
  <fix>3d</fix>
</trkpt>
<trkpt lat="33.810313" lon="-118.393867">
  <ele>-0.12</ele>
  <time>2026-09-02T22:07:19Z</time>
  <course>0.0</course>
  <speed>0.0</speed>
  <fix>3d</fix>
</trkpt>
<trkpt lat="33.810313" lon="-118.393867">
  <ele>-0.134</ele>
  <time>2026-09-02T22:07:19Z</time>
  <course>188.08</course>
  <speed>0.01414213562373095</speed>
  <fix>3d</fix>
</trkpt>
<trkpt lat="33.810313" lon="-118.393867">
  <ele>-0.12</ele>
  <time>2026-09-02T22:07:19Z</time>
  <course>0.0</course>
  <speed>0.0</speed>
  <fix>3d</fix>
</trkpt>
<trkpt lat="33.810313" lon="-118.393867">
  <ele>-0.131</ele>
  <time>2026-09-02T22:07:19Z</time>
  <course>188.07</course>
  <speed>0.022360679774997897</speed>
  <fix>3d</fix>
</trkpt>
<trkpt lat="33.810313" lon="-118.393867">
  <ele>-0.12</ele>
  <time>2026-09-02T22:07:19Z</time>
  <course>0.0</course>
  <speed>0.0</speed>
  <fix>3d</fix>
</trkpt>
<trkpt lat="33.810313" lon="-118.393867">
  <ele>-0.128</ele>
  <time>2026-09-02T22:07:19Z</time>
  <course>188.07</course>
  <speed>0.022360679774997897</speed>
  <fix>3d</fix>
</trkpt>
<trkpt lat="33.810313" lon="-118.393867">
  <ele>-0.12</ele>
  <time>2026-09-02T22:07:19Z</time>
  <course>0.0</course>
  <speed>0.0</speed>
  <fix>3d</fix>
</trkpt>
<trkpt lat="33.810313" lon="-118.393867">
  <ele>-0.126</ele>
  <time>2026-09-02T22:07:19Z</time>
  <course>188.06</course>
  <speed>0.022360679774997897</speed>
  <fix>3d</fix>
</trkpt>
<trkpt lat="33.810313" lon="-118.393867">
  <ele>-0.12</ele>
  <time>2026-09-02T22:07:19Z</time>
  <course>0.0</course>
  <speed>0.0</speed>
  <fix>3d</fix>
</trkpt>
<trkpt lat="33.810313" lon="-118.393867">
  <ele>-0.126</ele>
  <time>2026-09-02T22:07:19Z</time>
  <course>188.05</course>
  <speed>0.022360679774997897</speed>
  <fix>3d</fix>
</trkpt>
<trkpt lat="33.810313" lon="-118.393867">
  <ele>-0.12</ele>
  <time>2026-09-02T22:07:19Z</time>
  <course>0.0</course>
  <speed>0.0</speed>
  <fix>3d</fix>
</trkpt>
<trkpt lat="33.810313" lon="-118.393867">
  <ele>-0.126</ele>
  <time>2026-09-02T22:07:19Z</time>
  <course>188.04</course>
  <speed>0.022360679774997897</speed>
  <fix>3d</fix>
</trkpt>
<trkpt lat="33.810313" lon="-118.393867">
  <ele>-0.12</ele>
  <time>2026-09-02T22:07:19Z</time>
  <course>0.0</course>
  <speed>0.0</speed>
  <fix>3d</fix>
</trkpt>
<trkpt lat="33.810313" lon="-118.393867">
  <ele>-0.127</ele>
  <time>2026-09-02T22:07:19Z</time>
  <course>188.03</course>
  <speed>0.022360679774997897</speed>
  <fix>3d</fix>
</trkpt>
<trkpt lat="33.810313" lon="-118.393867">
  <ele>-0.12</ele>
  <time>2026-09-02T22:07:19Z</time>
  <course>0.0</course>
  <speed>0.0</speed>
  <fix>3d</fix>
</trkpt>
<trkpt lat="33.810313" lon="-118.393867">
  <ele>-0.127</ele>
  <time>2026-09-02T22:07:19Z</time>
  <course>188.03</course>
  <speed>0.022360679774997897</speed>
  <fix>3d</fix>
</trkpt>
<trkpt lat="33.810313" lon="-118.393867">
  <ele>-0.12</ele>
  <time>2026-09-02T22:07:19Z</time>
  <course>0.0</course>
  <speed>0.0</speed>
  <fix>3d</fix>
</trkpt>
<trkpt lat="33.810313" lon="-118.393867">
  <ele>-0.127</ele>
  <time>2026-09-02T22:07:19Z</time>
  <course>188.02</course>
  <speed>0.022360679774997897</speed>
  <fix>3d</fix>
</trkpt>
<trkpt lat="33.810313" lon="-118.393867">
  <ele>-0.12</ele>
  <time>2026-09-02T22:07:19Z</time>
  <course>0.0</course>
  <speed>0.0</speed>
  <fix>3d</fix>
</trkpt>
<trkpt lat="33.810313" lon="-118.393867">
  <ele>-0.128</ele>
  <time>2026-09-02T22:07:19Z</time>
  <course>188.01</course>
  <speed>0.022360679774997897</speed>
  <fix>3d</fix>
</trkpt>
<trkpt lat="33.810313" lon="-118.393867">
  <ele>-0.12</ele>
  <time>2026-09-02T22:07:19Z</time>
  <course>0.0</course>
  <speed>0.0</speed>
  <fix>3d</fix>
</trkpt>
<trkpt lat="33.810313" lon="-118.393867">
  <ele>-0.128</ele>
  <time>2026-09-02T22:07:19Z</time>
  <course>188.0</course>
  <speed>0.022360679774997897</speed>
  <fix>3d</fix>
</trkpt>
<trkpt lat="33.810313" lon="-118.393867">
  <ele>-0.12</ele>
  <time>2026-09-02T22:07:19Z</time>
  <course>0.0</course>
  <speed>0.0</speed>
  <fix>3d</fix>
</trkpt>
<trkpt lat="33.810313" lon="-118.393867">
  <ele>-0.127</ele>
  <time>2026-09-02T22:07:19Z</time>
  <course>187.99</course>
  <speed>0.022360679774997897</speed>
  <fix>3d</fix>
</trkpt>
<trkpt lat="33.810313" lon="-118.393867">
  <ele>-0.12</ele>
  <time>2026-09-02T22:07:19Z</time>
  <course>0.0</course>
  <speed>0.0</speed>
  <fix>3d</fix>
</trkpt>
<trkpt lat="33.810313" lon="-118.393867">
  <ele>-0.126</ele>
  <time>2026-09-02T22:07:19Z</time>
  <course>187.98</course>
  <speed>0.022360679774997897</speed>
  <fix>3d</fix>
</trkpt>
<trkpt lat="33.810313" lon="-118.393867">
  <ele>-0.12</ele>
  <time>2026-09-02T22:07:19Z</time>
  <course>0.0</course>
  <speed>0.0</speed>
  <fix>3d</fix>
</trkpt>
<trkpt lat="33.810313" lon="-118.393867">
  <ele>-0.123</ele>
  <time>2026-09-02T22:07:19Z</time>
  <course>187.98</course>
  <speed>0.022360679774997897</speed>
  <fix>3d</fix>
</trkpt>
<trkpt lat="33.810313" lon="-118.393867">
  <ele>-0.12</ele>
  <time>2026-09-02T22:07:19Z</time>
  <course>0.0</course>
  <speed>0.0</speed>
  <fix>3d</fix>
</trkpt>
<trkpt lat="33.810313" lon="-118.393867">
  <ele>-0.121</ele>
  <time>2026-09-02T22:07:19Z</time>
  <course>187.97</course>
  <speed>0.022360679774997897</speed>
  <fix>3d</fix>
</trkpt>
<trkpt lat="33.810313" lon="-118.393867">
  <ele>-0.12</ele>
  <time>2026-09-02T22:07:19Z</time>
  <course>0.0</course>
  <speed>0.0</speed>
  <fix>3d</fix>
</trkpt>
<trkpt lat="33.810313" lon="-118.393867">
  <ele>-0.12</ele>
  <time>2026-09-02T22:07:19Z</time>
  <course>187.96</course>
  <speed>0.022360679774997897</speed>
  <fix>3d</fix>
</trkpt>
<trkpt lat="33.810313" lon="-118.393867">
  <ele>-0.12</ele>
  <time>2026-09-02T22:07:19Z</time>
  <course>0.0</course>
  <speed>0.0</speed>
  <fix>3d</fix>
</trkpt>
<trkpt lat="33.810313" lon="-118.393867">
  <ele>-0.12</ele>
  <time>2026-09-02T22:07:19Z</time>
  <course>187.95</course>
  <speed>0.022360679774997897</speed>
  <fix>3d</fix>
</trkpt>
<trkpt lat="33.810313" lon="-118.393867">
  <ele>-0.12</ele>
  <time>2026-09-02T22:07:19Z</time>
  <course>0.0</course>
  <speed>0.0</speed>
  <fix>3d</fix>
</trkpt>
<trkpt lat="33.810313" lon="-118.393867">
  <ele>-0.122</ele>
  <time>2026-09-02T22:07:19Z</time>
  <course>187.94</course>
  <speed>0.022360679774997897</speed>
  <fix>3d</fix>
</trkpt>
<trkpt lat="33.810313" lon="-118.393867">
  <ele>-0.12</ele>
  <time>2026-09-02T22:07:19Z</time>
  <course>0.0</course>
  <speed>0.0</speed>
  <fix>3d</fix>
</trkpt>
<trkpt lat="33.810313" lon="-118.393867">
  <ele>-0.125</ele>
  <time>2026-09-02T22:07:19Z</time>
  <course>187.94</course>
  <speed>0.022360679774997897</speed>
  <fix>3d</fix>
</trkpt>
<trkpt lat="33.810313" lon="-118.393867">
  <ele>-0.12</ele>
  <time>2026-09-02T22:07:19Z</time>
  <course>0.0</course>
  <speed>0.0</speed>
  <fix>3d</fix>
</trkpt>
<trkpt lat="33.810313" lon="-118.393867">
  <ele>-0.129</ele>
  <time>2026-09-02T22:07:19Z</time>
  <course>187.93</course>
  <speed>0.022360679774997897</speed>
  <fix>3d</fix>
</trkpt>
<trkpt lat="33.810313" lon="-118.393867">
  <ele>-0.12</ele>
  <time>2026-09-02T22:07:19Z</time>
  <course>0.0</course>
  <speed>0.0</speed>
  <fix>3d</fix>
</trkpt>
<trkpt lat="33.810313" lon="-118.393867">
  <ele>-0.131</ele>
  <time>2026-09-02T22:07:19Z</time>
  <course>187.92</course>
  <speed>0.022360679774997897</speed>
  <fix>3d</fix>
</trkpt>
<trkpt lat="33.810313" lon="-118.393867">
  <ele>-0.12</ele>
  <time>2026-09-02T22:07:19Z</time>
  <course>0.0</course>
  <speed>0.0</speed>
  <fix>3d</fix>
</trkpt>
<trkpt lat="33.810313" lon="-118.393867">
  <ele>-0.132</ele>
  <time>2026-09-02T22:07:19Z</time>
  <course>187.91</course>
  <speed>0.022360679774997897</speed>
  <fix>3d</fix>
</trkpt>
<trkpt lat="33.810313" lon="-118.393867">
  <ele>-0.12</ele>
  <time>2026-09-02T22:07:19Z</time>
  <course>0.0</course>
  <speed>0.0</speed>
  <fix>3d</fix>
</trkpt>
<trkpt lat="33.810313" lon="-118.393867">
  <ele>-0.132</ele>
  <time>2026-09-02T22:07:19Z</time>
  <course>187.9</course>
  <speed>0.022360679774997897</speed>
  <fix>3d</fix>
</trkpt>
<trkpt lat="33.810313" lon="-118.393867">
  <ele>-0.12</ele>
  <time>2026-09-02T22:07:19Z</time>
  <course>0.0</course>
  <speed>0.0</speed>
  <fix>3d</fix>
</trkpt>
<trkpt lat="33.810313" lon="-118.393867">
  <ele>-0.132</ele>
  <time>2026-09-02T22:07:19Z</time>
  <course>187.9</course>
  <speed>0.022360679774997897</speed>
  <fix>3d</fix>
</trkpt>
<trkpt lat="33.810313" lon="-118.393867">
  <ele>-0.12</ele>
  <time>2026-09-02T22:07:19Z</time>
  <course>0.0</course>
  <speed>0.0</speed>
  <fix>3d</fix>
</trkpt>
<trkpt lat="33.810313" lon="-118.393867">
  <ele>-0.13</ele>
  <time>2026-09-02T22:07:19Z</time>
  <course>187.89</course>
  <speed>0.022360679774997897</speed>
  <fix>3d</fix>
</trkpt>
<trkpt lat="33.810313" lon="-118.393867">
  <ele>-0.12</ele>
  <time>2026-09-02T22:07:19Z</time>
  <course>0.0</course>
  <speed>0.0</speed>
  <fix>3d</fix>
</trkpt>
<trkpt lat="33.810313" lon="-118.393867">
  <ele>-0.127</ele>
  <time>2026-09-02T22:07:19Z</time>
  <course>187.88</course>
  <speed>0.022360679774997897</speed>
  <fix>3d</fix>
</trkpt>
<trkpt lat="33.810313" lon="-118.393867">
  <ele>-0.12</ele>
  <time>2026-09-02T22:07:19Z</time>
  <course>0.0</course>
  <speed>0.0</speed>
  <fix>3d</fix>
</trkpt>
<trkpt lat="33.810313" lon="-118.393867">
  <ele>-0.123</ele>
  <time>2026-09-02T22:07:19Z</time>
  <course>187.87</course>
  <speed>0.022360679774997897</speed>
  <fix>3d</fix>
</trkpt>
<trkpt lat="33.810313" lon="-118.393867">
  <ele>-0.12</ele>
  <time>2026-09-02T22:07:19Z</time>
  <course>0.0</course>
  <speed>0.0</speed>
  <fix>3d</fix>
</trkpt>
<trkpt lat="33.810313" lon="-118.393867">
  <ele>-0.121</ele>
  <time>2026-09-02T22:07:19Z</time>
  <course>187.87</course>
  <speed>0.022360679774997897</speed>
  <fix>3d</fix>
</trkpt>
<trkpt lat="33.810313" lon="-118.393867">
  <ele>-0.12</ele>
  <time>2026-09-02T22:07:19Z</time>
  <course>0.0</course>
  <speed>0.0</speed>
  <fix>3d</fix>
</trkpt>
<trkpt lat="33.810313" lon="-118.393867">
  <ele>-0.121</ele>
  <time>2026-09-02T22:07:19Z</time>
  <course>187.86</course>
  <speed>0.022360679774997897</speed>
  <fix>3d</fix>
</trkpt>
<trkpt lat="33.810313" lon="-118.393867">
  <ele>-0.12</ele>
  <time>2026-09-02T22:07:19Z</time>
  <course>0.0</course>
  <speed>0.0</speed>
  <fix>3d</fix>
</trkpt>
<trkpt lat="33.810313" lon="-118.393867">
  <ele>-0.123</ele>
  <time>2026-09-02T22:07:19Z</time>
  <course>187.85</course>
  <speed>0.022360679774997897</speed>
  <fix>3d</fix>
</trkpt>
<trkpt lat="33.810313" lon="-118.393867">
  <ele>-0.12</ele>
  <time>2026-09-02T22:07:19Z</time>
  <course>0.0</course>
  <speed>0.0</speed>
  <fix>3d</fix>
</trkpt>
<trkpt lat="33.810313" lon="-118.393867">
  <ele>-0.124</ele>
  <time>2026-09-02T22:07:19Z</time>
  <course>187.84</course>
  <speed>0.022360679774997897</speed>
  <fix>3d</fix>
</trkpt>
<trkpt lat="33.810313" lon="-118.393867">
  <ele>-0.12</ele>
  <time>2026-09-02T22:07:19Z</time>
  <course>0.0</course>
  <speed>0.0</speed>
  <fix>3d</fix>
</trkpt>
<trkpt lat="33.810313" lon="-118.393867">
  <ele>-0.126</ele>
  <time>2026-09-02T22:07:19Z</time>
  <course>187.83</course>
  <speed>0.022360679774997897</speed>
  <fix>3d</fix>
</trkpt>
<trkpt lat="33.810313" lon="-118.393867">
  <ele>-0.12</ele>
  <time>2026-09-02T22:07:19Z</time>
  <course>0.0</course>
  <speed>0.0</speed>
  <fix>3d</fix>
</trkpt>
<trkpt lat="33.810313" lon="-118.393867">
  <ele>-0.127</ele>
  <time>2026-09-02T22:07:19Z</time>
  <course>187.83</course>
  <speed>0.022360679774997897</speed>
  <fix>3d</fix>
</trkpt>
<trkpt lat="33.810313" lon="-118.393867">
  <ele>-0.12</ele>
  <time>2026-09-02T22:07:19Z</time>
  <course>0.0</course>
  <speed>0.0</speed>
  <fix>3d</fix>
</trkpt>
<trkpt lat="33.810313" lon="-118.393867">
  <ele>-0.127</ele>
  <time>2026-09-02T22:07:19Z</time>
  <course>187.82</course>
  <speed>0.022360679774997897</speed>
  <fix>3d</fix>
</trkpt>
<trkpt lat="33.810313" lon="-118.393867">
  <ele>-0.12</ele>
  <time>2026-09-02T22:07:19Z</time>
  <course>0.0</course>
  <speed>0.0</speed>
  <fix>3d</fix>
</trkpt>
<trkpt lat="33.810313" lon="-118.393867">
  <ele>-0.127</ele>
  <time>2026-09-02T22:07:19Z</time>
  <course>187.81</course>
  <speed>0.022360679774997897</speed>
  <fix>3d</fix>
</trkpt>
<trkpt lat="33.810313" lon="-118.393867">
  <ele>-0.12</ele>
  <time>2026-09-02T22:07:19Z</time>
  <course>0.0</course>
  <speed>0.0</speed>
  <fix>3d</fix>
</trkpt>
<trkpt lat="33.810313" lon="-118.393867">
  <ele>-0.126</ele>
  <time>2026-09-02T22:07:19Z</time>
  <course>187.8</course>
  <speed>0.022360679774997897</speed>
  <fix>3d</fix>
</trkpt>
<trkpt lat="33.810313" lon="-118.393867">
  <ele>-0.12</ele>
  <time>2026-09-02T22:07:19Z</time>
  <course>0.0</course>
  <speed>0.0</speed>
  <fix>3d</fix>
</trkpt>
<trkpt lat="33.810313" lon="-118.393867">
  <ele>-0.124</ele>
  <time>2026-09-02T22:07:19Z</time>
  <course>187.8</course>
  <speed>0.022360679774997897</speed>
  <fix>3d</fix>
</trkpt>
<trkpt lat="33.810313" lon="-118.393867">
  <ele>-0.12</ele>
  <time>2026-09-02T22:07:19Z</time>
  <course>0.0</course>
  <speed>0.0</speed>
  <fix>3d</fix>
</trkpt>
<trkpt lat="33.810313" lon="-118.393867">
  <ele>-0.121</ele>
  <time>2026-09-02T22:07:19Z</time>
  <course>187.79</course>
  <speed>0.022360679774997897</speed>
  <fix>3d</fix>
</trkpt>
<trkpt lat="33.810313" lon="-118.393867">
  <ele>-0.12</ele>
  <time>2026-09-02T22:07:19Z</time>
  <course>0.0</course>
  <speed>0.0</speed>
  <fix>3d</fix>
</trkpt>
<trkpt lat="33.810313" lon="-118.393867">
  <ele>-0.119</ele>
  <time>2026-09-02T22:07:19Z</time>
  <course>187.78</course>
  <speed>0.022360679774997897</speed>
  <fix>3d</fix>
</trkpt>
<trkpt lat="33.810313" lon="-118.393867">
  <ele>-0.12</ele>
  <time>2026-09-02T22:07:19Z</time>
  <course>0.0</course>
  <speed>0.0</speed>
  <fix>3d</fix>
</trkpt>
<trkpt lat="33.810313" lon="-118.393867">
  <ele>-0.118</ele>
  <time>2026-09-02T22:07:19Z</time>
  <course>187.77</course>
  <speed>0.022360679774997897</speed>
  <fix>3d</fix>
</trkpt>
<trkpt lat="33.810313" lon="-118.393867">
  <ele>-0.12</ele>
  <time>2026-09-02T22:07:19Z</time>
  <course>0.0</course>
  <speed>0.0</speed>
  <fix>3d</fix>
</trkpt>
<trkpt lat="33.810313" lon="-118.393867">
  <ele>-0.118</ele>
  <time>2026-09-02T22:07:19Z</time>
  <course>187.76</course>
  <speed>0.022360679774997897</speed>
  <fix>3d</fix>
</trkpt>
<trkpt lat="33.810313" lon="-118.393867">
  <ele>-0.12</ele>
  <time>2026-09-02T22:07:19Z</time>
  <course>0.0</course>
  <speed>0.0</speed>
  <fix>3d</fix>
</trkpt>
<trkpt lat="33.810313" lon="-118.393867">
  <ele>-0.119</ele>
  <time>2026-09-02T22:07:19Z</time>
  <course>187.76</course>
  <speed>0.022360679774997897</speed>
  <fix>3d</fix>
</trkpt>
<trkpt lat="33.810313" lon="-118.393867">
  <ele>-0.12</ele>
  <time>2026-09-02T22:07:19Z</time>
  <course>0.0</course>
  <speed>0.0</speed>
  <fix>3d</fix>
</trkpt>
<trkpt lat="33.810313" lon="-118.393867">
  <ele>-0.12</ele>
  <time>2026-09-02T22:07:19Z</time>
  <course>187.75</course>
  <speed>0.022360679774997897</speed>
  <fix>3d</fix>
</trkpt>
<trkpt lat="33.810313" lon="-118.393867">
  <ele>-0.12</ele>
  <time>2026-09-02T22:07:19Z</time>
  <course>0.0</course>
  <speed>0.0</speed>
  <fix>3d</fix>
</trkpt>
<trkpt lat="33.810313" lon="-118.393867">
  <ele>-0.12</ele>
  <time>2026-09-02T22:07:19Z</time>
  <course>187.74</course>
  <speed>0.0282842712474619</speed>
  <fix>3d</fix>
</trkpt>
<trkpt lat="33.810313" lon="-118.393867">
  <ele>-0.12</ele>
  <time>2026-09-02T22:07:19Z</time>
  <course>0.0</course>
  <speed>0.0</speed>
  <fix>3d</fix>
</trkpt>
<trkpt lat="33.810313" lon="-118.393867">
  <ele>-0.12</ele>
  <time>2026-09-02T22:07:19Z</time>
  <course>187.74</course>
  <speed>0.0282842712474619</speed>
  <fix>3d</fix>
</trkpt>
<trkpt lat="33.810313" lon="-118.393867">
  <ele>-0.12</ele>
  <time>2026-09-02T22:07:19Z</time>
  <course>0.0</course>
  <speed>0.0</speed>
  <fix>3d</fix>
</trkpt>
<trkpt lat="33.810313" lon="-118.393867">
  <ele>-0.119</ele>
  <time>2026-09-02T22:07:19Z</time>
  <course>187.73</course>
  <speed>0.0282842712474619</speed>
  <fix>3d</fix>
</trkpt>
<trkpt lat="33.810313" lon="-118.393867">
  <ele>-0.12</ele>
  <time>2026-09-02T22:07:19Z</time>
  <course>0.0</course>
  <speed>0.0</speed>
  <fix>3d</fix>
</trkpt>
<trkpt lat="33.810313" lon="-118.393867">
  <ele>-0.118</ele>
  <time>2026-09-02T22:07:19Z</time>
  <course>187.72</course>
  <speed>0.0282842712474619</speed>
  <fix>3d</fix>
</trkpt>
<trkpt lat="33.810313" lon="-118.393867">
  <ele>-0.12</ele>
  <time>2026-09-02T22:07:19Z</time>
  <course>0.0</course>
  <speed>0.0</speed>
  <fix>3d</fix>
</trkpt>
<trkpt lat="33.810313" lon="-118.393867">
  <ele>-0.116</ele>
  <time>2026-09-02T22:07:19Z</time>
  <course>187.71</course>
  <speed>0.0282842712474619</speed>
  <fix>3d</fix>
</trkpt>
<trkpt lat="33.810313" lon="-118.393867">
  <ele>-0.12</ele>
  <time>2026-09-02T22:07:19Z</time>
  <course>0.0</course>
  <speed>0.0</speed>
  <fix>3d</fix>
</trkpt>
<trkpt lat="33.810313" lon="-118.393867">
  <ele>-0.113</ele>
  <time>2026-09-02T22:07:19Z</time>
  <course>187.71</course>
  <speed>0.0282842712474619</speed>
  <fix>3d</fix>
</trkpt>
<trkpt lat="33.810313" lon="-118.393867">
  <ele>-0.12</ele>
  <time>2026-09-02T22:07:19Z</time>
  <course>0.0</course>
  <speed>0.0</speed>
  <fix>3d</fix>
</trkpt>
<trkpt lat="33.810313" lon="-118.393867">
  <ele>-0.112</ele>
  <time>2026-09-02T22:07:19Z</time>
  <course>187.7</course>
  <speed>0.0282842712474619</speed>
  <fix>3d</fix>
</trkpt>
<trkpt lat="33.810313" lon="-118.393867">
  <ele>-0.12</ele>
  <time>2026-09-02T22:07:19Z</time>
  <course>0.0</course>
  <speed>0.0</speed>
  <fix>3d</fix>
</trkpt>
<trkpt lat="33.810313" lon="-118.393867">
  <ele>-0.113</ele>
  <time>2026-09-02T22:07:19Z</time>
  <course>187.69</course>
  <speed>0.0282842712474619</speed>
  <fix>3d</fix>
</trkpt>
<trkpt lat="33.810313" lon="-118.393867">
  <ele>-0.12</ele>
  <time>2026-09-02T22:07:19Z</time>
  <course>0.0</course>
  <speed>0.0</speed>
  <fix>3d</fix>
</trkpt>
<trkpt lat="33.810313" lon="-118.393867">
  <ele>-0.115</ele>
  <time>2026-09-02T22:07:19Z</time>
  <course>187.68</course>
  <speed>0.0282842712474619</speed>
  <fix>3d</fix>
</trkpt>
<trkpt lat="33.810313" lon="-118.393867">
  <ele>-0.12</ele>
  <time>2026-09-02T22:07:19Z</time>
  <course>0.0</course>
  <speed>0.0</speed>
  <fix>3d</fix>
</trkpt>
<trkpt lat="33.810313" lon="-118.393867">
  <ele>-0.119</ele>
  <time>2026-09-02T22:07:19Z</time>
  <course>187.68</course>
  <speed>0.0282842712474619</speed>
  <fix>3d</fix>
</trkpt>
<trkpt lat="33.810313" lon="-118.393867">
  <ele>-0.12</ele>
  <time>2026-09-02T22:07:19Z</time>
  <course>0.0</course>
  <speed>0.0</speed>
  <fix>3d</fix>
</trkpt>
<trkpt lat="33.810313" lon="-118.393867">
  <ele>-0.124</ele>
  <time>2026-09-02T22:07:19Z</time>
  <course>187.67</course>
  <speed>0.0282842712474619</speed>
  <fix>3d</fix>
</trkpt>
<trkpt lat="33.810313" lon="-118.393867">
  <ele>-0.12</ele>
  <time>2026-09-02T22:07:19Z</time>
  <course>0.0</course>
  <speed>0.0</speed>
  <fix>3d</fix>
</trkpt>
<trkpt lat="33.810313" lon="-118.393867">
  <ele>-0.129</ele>
  <time>2026-09-02T22:07:19Z</time>
  <course>187.66</course>
  <speed>0.0282842712474619</speed>
  <fix>3d</fix>
</trkpt>
<trkpt lat="33.810313" lon="-118.393867">
  <ele>-0.12</ele>
  <time>2026-09-02T22:07:19Z</time>
  <course>0.0</course>
  <speed>0.0</speed>
  <fix>3d</fix>
</trkpt>
<trkpt lat="33.810313" lon="-118.393867">
  <ele>-0.133</ele>
  <time>2026-09-02T22:07:19Z</time>
  <course>187.66</course>
  <speed>0.0282842712474619</speed>
  <fix>3d</fix>
</trkpt>
<trkpt lat="33.810313" lon="-118.393867">
  <ele>-0.12</ele>
  <time>2026-09-02T22:07:19Z</time>
  <course>0.0</course>
  <speed>0.0</speed>
  <fix>3d</fix>
</trkpt>
<trkpt lat="33.810313" lon="-118.393867">
  <ele>-0.135</ele>
  <time>2026-09-02T22:07:19Z</time>
  <course>187.65</course>
  <speed>0.0282842712474619</speed>
  <fix>3d</fix>
</trkpt>
<trkpt lat="33.810313" lon="-118.393867">
  <ele>-0.12</ele>
  <time>2026-09-02T22:07:19Z</time>
  <course>0.0</course>
  <speed>0.0</speed>
  <fix>3d</fix>
</trkpt>
<trkpt lat="33.810313" lon="-118.393867">
  <ele>-0.135</ele>
  <time>2026-09-02T22:07:19Z</time>
  <course>187.64</course>
  <speed>0.0282842712474619</speed>
  <fix>3d</fix>
</trkpt>
<trkpt lat="33.810313" lon="-118.393867">
  <ele>-0.12</ele>
  <time>2026-09-02T22:07:19Z</time>
  <course>0.0</course>
  <speed>0.0</speed>
  <fix>3d</fix>
</trkpt>
<trkpt lat="33.810313" lon="-118.393867">
  <ele>-0.135</ele>
  <time>2026-09-02T22:07:19Z</time>
  <course>187.64</course>
  <speed>0.0282842712474619</speed>
  <fix>3d</fix>
</trkpt>
<trkpt lat="33.810313" lon="-118.393867">
  <ele>-0.12</ele>
  <time>2026-09-02T22:07:19Z</time>
  <course>0.0</course>
  <speed>0.0</speed>
  <fix>3d</fix>
</trkpt>
<trkpt lat="33.810313" lon="-118.393867">
  <ele>-0.133</ele>
  <time>2026-09-02T22:07:19Z</time>
  <course>187.63</course>
  <speed>0.0282842712474619</speed>
  <fix>3d</fix>
</trkpt>
<trkpt lat="33.810313" lon="-118.393867">
  <ele>-0.12</ele>
  <time>2026-09-02T22:07:19Z</time>
  <course>0.0</course>
  <speed>0.0</speed>
  <fix>3d</fix>
</trkpt>
<trkpt lat="33.810313" lon="-118.393867">
  <ele>-0.132</ele>
  <time>2026-09-02T22:07:19Z</time>
  <course>187.63</course>
  <speed>0.03605551275463989</speed>
  <fix>3d</fix>
</trkpt>
<trkpt lat="33.810313" lon="-118.393867">
  <ele>-0.12</ele>
  <time>2026-09-02T22:07:19Z</time>
  <course>0.0</course>
  <speed>0.0</speed>
  <fix>3d</fix>
</trkpt>
<trkpt lat="33.810313" lon="-118.393867">
  <ele>-0.132</ele>
  <time>2026-09-02T22:07:19Z</time>
  <course>187.62</course>
  <speed>0.03605551275463989</speed>
  <fix>3d</fix>
</trkpt>
<trkpt lat="33.810313" lon="-118.393867">
  <ele>-0.12</ele>
  <time>2026-09-02T22:07:19Z</time>
  <course>0.0</course>
  <speed>0.0</speed>
  <fix>3d</fix>
</trkpt>
<trkpt lat="33.810313" lon="-118.393867">
  <ele>-0.133</ele>
  <time>2026-09-02T22:07:19Z</time>
  <course>187.61</course>
  <speed>0.03605551275463989</speed>
  <fix>3d</fix>
</trkpt>
<trkpt lat="33.810313" lon="-118.393867">
  <ele>-0.12</ele>
  <time>2026-09-02T22:07:19Z</time>
  <course>0.0</course>
  <speed>0.0</speed>
  <fix>3d</fix>
</trkpt>
<trkpt lat="33.810313" lon="-118.393867">
  <ele>-0.134</ele>
  <time>2026-09-02T22:07:19Z</time>
  <course>187.6</course>
  <speed>0.03605551275463989</speed>
  <fix>3d</fix>
</trkpt>
<trkpt lat="33.810313" lon="-118.393867">
  <ele>-0.12</ele>
  <time>2026-09-02T22:07:19Z</time>
  <course>0.0</course>
  <speed>0.0</speed>
  <fix>3d</fix>
</trkpt>
<trkpt lat="33.810313" lon="-118.393867">
  <ele>-0.134</ele>
  <time>2026-09-02T22:07:19Z</time>
  <course>187.6</course>
  <speed>0.03605551275463989</speed>
  <fix>3d</fix>
</trkpt>
<trkpt lat="33.810313" lon="-118.393867">
  <ele>-0.12</ele>
  <time>2026-09-02T22:07:19Z</time>
  <course>0.0</course>
  <speed>0.0</speed>
  <fix>3d</fix>
</trkpt>
<trkpt lat="33.810313" lon="-118.393867">
  <ele>-0.134</ele>
  <time>2026-09-02T22:07:19Z</time>
  <course>187.59</course>
  <speed>0.03605551275463989</speed>
  <fix>3d</fix>
</trkpt>
<trkpt lat="33.810313" lon="-118.393867">
  <ele>-0.12</ele>
  <time>2026-09-02T22:07:19Z</time>
  <course>0.0</course>
  <speed>0.0</speed>
  <fix>3d</fix>
</trkpt>
<trkpt lat="33.810313" lon="-118.393867">
  <ele>-0.132</ele>
  <time>2026-09-02T22:07:19Z</time>
  <course>187.58</course>
  <speed>0.03605551275463989</speed>
  <fix>3d</fix>
</trkpt>
<trkpt lat="33.810313" lon="-118.393867">
  <ele>-0.12</ele>
  <time>2026-09-02T22:07:19Z</time>
  <course>0.0</course>
  <speed>0.0</speed>
  <fix>3d</fix>
</trkpt>
<trkpt lat="33.810313" lon="-118.393867">
  <ele>-0.129</ele>
  <time>2026-09-02T22:07:19Z</time>
  <course>187.58</course>
  <speed>0.03605551275463989</speed>
  <fix>3d</fix>
</trkpt>
<trkpt lat="33.810313" lon="-118.393867">
  <ele>-0.12</ele>
  <time>2026-09-02T22:07:19Z</time>
  <course>0.0</course>
  <speed>0.0</speed>
  <fix>3d</fix>
</trkpt>
<trkpt lat="33.810313" lon="-118.393867">
  <ele>-0.127</ele>
  <time>2026-09-02T22:07:19Z</time>
  <course>187.57</course>
  <speed>0.03605551275463989</speed>
  <fix>3d</fix>
</trkpt>
<trkpt lat="33.810313" lon="-118.393867">
  <ele>-0.12</ele>
  <time>2026-09-02T22:07:19Z</time>
  <course>0.0</course>
  <speed>0.0</speed>
  <fix>3d</fix>
</trkpt>
<trkpt lat="33.810313" lon="-118.393867">
  <ele>-0.125</ele>
  <time>2026-09-02T22:07:19Z</time>
  <course>187.56</course>
  <speed>0.03605551275463989</speed>
  <fix>3d</fix>
</trkpt>
<trkpt lat="33.810313" lon="-118.393867">
  <ele>-0.12</ele>
  <time>2026-09-02T22:07:19Z</time>
  <course>0.0</course>
  <speed>0.0</speed>
  <fix>3d</fix>
</trkpt>
<trkpt lat="33.810313" lon="-118.393867">
  <ele>-0.122</ele>
  <time>2026-09-02T22:07:19Z</time>
  <course>187.56</course>
  <speed>0.03605551275463989</speed>
  <fix>3d</fix>
</trkpt>
<trkpt lat="33.810313" lon="-118.393867">
  <ele>-0.12</ele>
  <time>2026-09-02T22:07:19Z</time>
  <course>0.0</course>
  <speed>0.0</speed>
  <fix>3d</fix>
</trkpt>
<trkpt lat="33.810313" lon="-118.393867">
  <ele>-0.119</ele>
  <time>2026-09-02T22:07:19Z</time>
  <course>187.55</course>
  <speed>0.03605551275463989</speed>
  <fix>3d</fix>
</trkpt>
<trkpt lat="33.810313" lon="-118.393867">
  <ele>-0.12</ele>
  <time>2026-09-02T22:07:19Z</time>
  <course>0.0</course>
  <speed>0.0</speed>
  <fix>3d</fix>
</trkpt>
<trkpt lat="33.810313" lon="-118.393867">
  <ele>-0.117</ele>
  <time>2026-09-02T22:07:19Z</time>
  <course>187.54</course>
  <speed>0.03605551275463989</speed>
  <fix>3d</fix>
</trkpt>
<trkpt lat="33.810313" lon="-118.393867">
  <ele>-0.12</ele>
  <time>2026-09-02T22:07:19Z</time>
  <course>0.0</course>
  <speed>0.0</speed>
  <fix>3d</fix>
</trkpt>
<trkpt lat="33.810313" lon="-118.393867">
  <ele>-0.117</ele>
  <time>2026-09-02T22:07:19Z</time>
  <course>187.54</course>
  <speed>0.03605551275463989</speed>
  <fix>3d</fix>
</trkpt>
<trkpt lat="33.810313" lon="-118.393867">
  <ele>-0.12</ele>
  <time>2026-09-02T22:07:19Z</time>
  <course>0.0</course>
  <speed>0.0</speed>
  <fix>3d</fix>
</trkpt>
<trkpt lat="33.810313" lon="-118.393867">
  <ele>-0.118</ele>
  <time>2026-09-02T22:07:19Z</time>
  <course>187.53</course>
  <speed>0.03605551275463989</speed>
  <fix>3d</fix>
</trkpt>
<trkpt lat="33.810313" lon="-118.393867">
  <ele>-0.12</ele>
  <time>2026-09-02T22:07:19Z</time>
  <course>0.0</course>
  <speed>0.0</speed>
  <fix>3d</fix>
</trkpt>
<trkpt lat="33.810313" lon="-118.393867">
  <ele>-0.119</ele>
  <time>2026-09-02T22:07:19Z</time>
  <course>187.52</course>
  <speed>0.03605551275463989</speed>
  <fix>3d</fix>
</trkpt>
<trkpt lat="33.810313" lon="-118.393867">
  <ele>-0.12</ele>
  <time>2026-09-02T22:07:19Z</time>
  <course>0.0</course>
  <speed>0.0</speed>
  <fix>3d</fix>
</trkpt>
<trkpt lat="33.810313" lon="-118.393867">
  <ele>-0.12</ele>
  <time>2026-09-02T22:07:19Z</time>
  <course>187.52</course>
  <speed>0.03605551275463989</speed>
  <fix>3d</fix>
</trkpt>
<trkpt lat="33.810313" lon="-118.393867">
  <ele>-0.12</ele>
  <time>2026-09-02T22:07:19Z</time>
  <course>0.0</course>
  <speed>0.0</speed>
  <fix>3d</fix>
</trkpt>
<trkpt lat="33.810313" lon="-118.393867">
  <ele>-0.121</ele>
  <time>2026-09-02T22:07:19Z</time>
  <course>187.51</course>
  <speed>0.03605551275463989</speed>
  <fix>3d</fix>
</trkpt>
<trkpt lat="33.810313" lon="-118.393867">
  <ele>-0.12</ele>
  <time>2026-09-02T22:07:19Z</time>
  <course>0.0</course>
  <speed>0.0</speed>
  <fix>3d</fix>
</trkpt>
<trkpt lat="33.810313" lon="-118.393867">
  <ele>-0.121</ele>
  <time>2026-09-02T22:07:19Z</time>
  <course>187.51</course>
  <speed>0.03605551275463989</speed>
  <fix>3d</fix>
</trkpt>
<trkpt lat="33.810313" lon="-118.393867">
  <ele>-0.12</ele>
  <time>2026-09-02T22:07:19Z</time>
  <course>0.0</course>
  <speed>0.0</speed>
  <fix>3d</fix>
</trkpt>
<trkpt lat="33.810313" lon="-118.393867">
  <ele>-0.121</ele>
  <time>2026-09-02T22:07:19Z</time>
  <course>187.5</course>
  <speed>0.03605551275463989</speed>
  <fix>3d</fix>
</trkpt>
<trkpt lat="33.810313" lon="-118.393867">
  <ele>-0.12</ele>
  <time>2026-09-02T22:07:19Z</time>
  <course>0.0</course>
  <speed>0.0</speed>
  <fix>3d</fix>
</trkpt>
<trkpt lat="33.810313" lon="-118.393867">
  <ele>-0.121</ele>
  <time>2026-09-02T22:07:19Z</time>
  <course>187.49</course>
  <speed>0.03605551275463989</speed>
  <fix>3d</fix>
</trkpt>
<trkpt lat="33.810313" lon="-118.393867">
  <ele>-0.12</ele>
  <time>2026-09-02T22:07:19Z</time>
  <course>0.0</course>
  <speed>0.0</speed>
  <fix>3d</fix>
</trkpt>
<trkpt lat="33.810313" lon="-118.393867">
  <ele>-0.121</ele>
  <time>2026-09-02T22:07:19Z</time>
  <course>187.49</course>
  <speed>0.03605551275463989</speed>
  <fix>3d</fix>
</trkpt>
<trkpt lat="33.810313" lon="-118.393867">
  <ele>-0.12</ele>
  <time>2026-09-02T22:07:19Z</time>
  <course>0.0</course>
  <speed>0.0</speed>
  <fix>3d</fix>
</trkpt>
<trkpt lat="33.810313" lon="-118.393867">
  <ele>-0.121</ele>
  <time>2026-09-02T22:07:19Z</time>
  <course>187.48</course>
  <speed>0.03605551275463989</speed>
  <fix>3d</fix>
</trkpt>
<trkpt lat="33.810313" lon="-118.393867">
  <ele>-0.12</ele>
  <time>2026-09-02T22:07:19Z</time>
  <course>0.0</course>
  <speed>0.0</speed>
  <fix>3d</fix>
</trkpt>
<trkpt lat="33.810313" lon="-118.393867">
  <ele>-0.122</ele>
  <time>2026-09-02T22:07:19Z</time>
  <course>187.47</course>
  <speed>0.03605551275463989</speed>
  <fix>3d</fix>
</trkpt>
<trkpt lat="33.810313" lon="-118.393867">
  <ele>-0.12</ele>
  <time>2026-09-02T22:07:19Z</time>
  <course>0.0</course>
  <speed>0.0</speed>
  <fix>3d</fix>
</trkpt>
<trkpt lat="33.810313" lon="-118.393867">
  <ele>-0.124</ele>
  <time>2026-09-02T22:07:19Z</time>
  <course>187.47</course>
  <speed>0.03605551275463989</speed>
  <fix>3d</fix>
</trkpt>
<trkpt lat="33.810313" lon="-118.393867">
  <ele>-0.12</ele>
  <time>2026-09-02T22:07:19Z</time>
  <course>0.0</course>
  <speed>0.0</speed>
  <fix>3d</fix>
</trkpt>
<trkpt lat="33.810313" lon="-118.393867">
  <ele>-0.127</ele>
  <time>2026-09-02T22:07:19Z</time>
  <course>187.46</course>
  <speed>0.03605551275463989</speed>
  <fix>3d</fix>
</trkpt>
<trkpt lat="33.810313" lon="-118.393867">
  <ele>-0.12</ele>
  <time>2026-09-02T22:07:19Z</time>
  <course>0.0</course>
  <speed>0.0</speed>
  <fix>3d</fix>
</trkpt>
<trkpt lat="33.810313" lon="-118.393867">
  <ele>-0.129</ele>
  <time>2026-09-02T22:07:19Z</time>
  <course>187.45</course>
  <speed>0.03605551275463989</speed>
  <fix>3d</fix>
</trkpt>
<trkpt lat="33.810313" lon="-118.393867">
  <ele>-0.12</ele>
  <time>2026-09-02T22:07:19Z</time>
  <course>0.0</course>
  <speed>0.0</speed>
  <fix>3d</fix>
</trkpt>
<trkpt lat="33.810313" lon="-118.393867">
  <ele>-0.131</ele>
  <time>2026-09-02T22:07:19Z</time>
  <course>187.45</course>
  <speed>0.03605551275463989</speed>
  <fix>3d</fix>
</trkpt>
<trkpt lat="33.810313" lon="-118.393867">
  <ele>-0.12</ele>
  <time>2026-09-02T22:07:19Z</time>
  <course>0.0</course>
  <speed>0.0</speed>
  <fix>3d</fix>
</trkpt>
<trkpt lat="33.810313" lon="-118.393867">
  <ele>-0.132</ele>
  <time>2026-09-02T22:07:19Z</time>
  <course>187.44</course>
  <speed>0.03605551275463989</speed>
  <fix>3d</fix>
</trkpt>
<trkpt lat="33.810313" lon="-118.393867">
  <ele>-0.12</ele>
  <time>2026-09-02T22:07:19Z</time>
  <course>0.0</course>
  <speed>0.0</speed>
  <fix>3d</fix>
</trkpt>
<trkpt lat="33.810313" lon="-118.393867">
  <ele>-0.132</ele>
  <time>2026-09-02T22:07:19Z</time>
  <course>187.44</course>
  <speed>0.03605551275463989</speed>
  <fix>3d</fix>
</trkpt>
<trkpt lat="33.810313" lon="-118.393867">
  <ele>-0.12</ele>
  <time>2026-09-02T22:07:19Z</time>
  <course>0.0</course>
  <speed>0.0</speed>
  <fix>3d</fix>
</trkpt>
<trkpt lat="33.810313" lon="-118.393867">
  <ele>-0.132</ele>
  <time>2026-09-02T22:07:19Z</time>
  <course>187.43</course>
  <speed>0.03605551275463989</speed>
  <fix>3d</fix>
</trkpt>
<trkpt lat="33.810313" lon="-118.393867">
  <ele>-0.12</ele>
  <time>2026-09-02T22:07:19Z</time>
  <course>0.0</course>
  <speed>0.0</speed>
  <fix>3d</fix>
</trkpt>
<trkpt lat="33.810313" lon="-118.393867">
  <ele>-0.132</ele>
  <time>2026-09-02T22:07:19Z</time>
  <course>187.42</course>
  <speed>0.03605551275463989</speed>
  <fix>3d</fix>
</trkpt>
<trkpt lat="33.810313" lon="-118.393867">
  <ele>-0.12</ele>
  <time>2026-09-02T22:07:19Z</time>
  <course>0.0</course>
  <speed>0.0</speed>
  <fix>3d</fix>
</trkpt>
<trkpt lat="33.810313" lon="-118.393867">
  <ele>-0.131</ele>
  <time>2026-09-02T22:07:19Z</time>
  <course>187.42</course>
  <speed>0.03605551275463989</speed>
  <fix>3d</fix>
</trkpt>
<trkpt lat="33.810313" lon="-118.393867">
  <ele>-0.12</ele>
  <time>2026-09-02T22:07:19Z</time>
  <course>0.0</course>
  <speed>0.0</speed>
  <fix>3d</fix>
</trkpt>
<trkpt lat="33.810313" lon="-118.393867">
  <ele>-0.131</ele>
  <time>2026-09-02T22:07:19Z</time>
  <course>187.41</course>
  <speed>0.03605551275463989</speed>
  <fix>3d</fix>
</trkpt>
<trkpt lat="33.810313" lon="-118.393867">
  <ele>-0.12</ele>
  <time>2026-09-02T22:07:19Z</time>
  <course>0.0</course>
  <speed>0.0</speed>
  <fix>3d</fix>
</trkpt>
<trkpt lat="33.810313" lon="-118.393867">
  <ele>-0.132</ele>
  <time>2026-09-02T22:07:19Z</time>
  <course>187.41</course>
  <speed>0.03605551275463989</speed>
  <fix>3d</fix>
</trkpt>
<trkpt lat="33.810313" lon="-118.393867">
  <ele>-0.12</ele>
  <time>2026-09-02T22:07:19Z</time>
  <course>0.0</course>
  <speed>0.0</speed>
  <fix>3d</fix>
</trkpt>
<trkpt lat="33.810313" lon="-118.393867">
  <ele>-0.134</ele>
  <time>2026-09-02T22:07:19Z</time>
  <course>187.4</course>
  <speed>0.03605551275463989</speed>
  <fix>3d</fix>
</trkpt>
<trkpt lat="33.810313" lon="-118.393867">
  <ele>-0.12</ele>
  <time>2026-09-02T22:07:19Z</time>
  <course>0.0</course>
  <speed>0.0</speed>
  <fix>3d</fix>
</trkpt>
<trkpt lat="33.810313" lon="-118.393867">
  <ele>-0.137</ele>
  <time>2026-09-02T22:07:19Z</time>
  <course>187.39</course>
  <speed>0.03605551275463989</speed>
  <fix>3d</fix>
</trkpt>
<trkpt lat="33.810313" lon="-118.393867">
  <ele>-0.12</ele>
  <time>2026-09-02T22:07:19Z</time>
  <course>0.0</course>
  <speed>0.0</speed>
  <fix>3d</fix>
</trkpt>
<trkpt lat="33.810313" lon="-118.393867">
  <ele>-0.139</ele>
  <time>2026-09-02T22:07:19Z</time>
  <course>187.39</course>
  <speed>0.03605551275463989</speed>
  <fix>3d</fix>
</trkpt>
<trkpt lat="33.810313" lon="-118.393867">
  <ele>-0.12</ele>
  <time>2026-09-02T22:07:19Z</time>
  <course>0.0</course>
  <speed>0.0</speed>
  <fix>3d</fix>
</trkpt>
<trkpt lat="33.810313" lon="-118.393867">
  <ele>-0.141</ele>
  <time>2026-09-02T22:07:19Z</time>
  <course>187.38</course>
  <speed>0.03605551275463989</speed>
  <fix>3d</fix>
</trkpt>
<trkpt lat="33.810313" lon="-118.393867">
  <ele>-0.12</ele>
  <time>2026-09-02T22:07:19Z</time>
  <course>0.0</course>
  <speed>0.0</speed>
  <fix>3d</fix>
</trkpt>
<trkpt lat="33.810313" lon="-118.393867">
  <ele>-0.141</ele>
  <time>2026-09-02T22:07:19Z</time>
  <course>187.38</course>
  <speed>0.03605551275463989</speed>
  <fix>3d</fix>
</trkpt>
<trkpt lat="33.810313" lon="-118.393867">
  <ele>-0.12</ele>
  <time>2026-09-02T22:07:19Z</time>
  <course>0.0</course>
  <speed>0.0</speed>
  <fix>3d</fix>
</trkpt>
<trkpt lat="33.810313" lon="-118.393867">
  <ele>-0.139</ele>
  <time>2026-09-02T22:07:19Z</time>
  <course>187.37</course>
  <speed>0.03605551275463989</speed>
  <fix>3d</fix>
</trkpt>
<trkpt lat="33.810313" lon="-118.393867">
  <ele>-0.12</ele>
  <time>2026-09-02T22:07:19Z</time>
  <course>0.0</course>
  <speed>0.0</speed>
  <fix>3d</fix>
</trkpt>
<trkpt lat="33.810313" lon="-118.393867">
  <ele>-0.136</ele>
  <time>2026-09-02T22:07:19Z</time>
  <course>187.36</course>
  <speed>0.03605551275463989</speed>
  <fix>3d</fix>
</trkpt>
<trkpt lat="33.810313" lon="-118.393867">
  <ele>-0.12</ele>
  <time>2026-09-02T22:07:19Z</time>
  <course>0.0</course>
  <speed>0.0</speed>
  <fix>3d</fix>
</trkpt>
<trkpt lat="33.810313" lon="-118.393867">
  <ele>-0.132</ele>
  <time>2026-09-02T22:07:19Z</time>
  <course>187.36</course>
  <speed>0.03605551275463989</speed>
  <fix>3d</fix>
</trkpt>
<trkpt lat="33.810313" lon="-118.393867">
  <ele>-0.12</ele>
  <time>2026-09-02T22:07:19Z</time>
  <course>0.0</course>
  <speed>0.0</speed>
  <fix>3d</fix>
</trkpt>
<trkpt lat="33.810313" lon="-118.393867">
  <ele>-0.129</ele>
  <time>2026-09-02T22:07:20Z</time>
  <course>187.35</course>
  <speed>0.03605551275463989</speed>
  <fix>3d</fix>
</trkpt>
<trkpt lat="33.810313" lon="-118.393867">
  <ele>-0.12</ele>
  <time>2026-09-02T22:07:20Z</time>
  <course>0.0</course>
  <speed>0.0</speed>
  <fix>3d</fix>
</trkpt>
<trkpt lat="33.810313" lon="-118.393867">
  <ele>-0.127</ele>
  <time>2026-09-02T22:07:20Z</time>
  <course>187.35</course>
  <speed>0.03605551275463989</speed>
  <fix>3d</fix>
</trkpt>
<trkpt lat="33.810313" lon="-118.393867">
  <ele>-0.12</ele>
  <time>2026-09-02T22:07:20Z</time>
  <course>0.0</course>
  <speed>0.0</speed>
  <fix>3d</fix>
</trkpt>
<trkpt lat="33.810313" lon="-118.393867">
  <ele>-0.126</ele>
  <time>2026-09-02T22:07:20Z</time>
  <course>187.34</course>
  <speed>0.03605551275463989</speed>
  <fix>3d</fix>
</trkpt>
<trkpt lat="33.810313" lon="-118.393867">
  <ele>-0.12</ele>
  <time>2026-09-02T22:07:20Z</time>
  <course>0.0</course>
  <speed>0.0</speed>
  <fix>3d</fix>
</trkpt>
<trkpt lat="33.810313" lon="-118.393867">
  <ele>-0.126</ele>
  <time>2026-09-02T22:07:20Z</time>
  <course>187.33</course>
  <speed>0.03605551275463989</speed>
  <fix>3d</fix>
</trkpt>
<trkpt lat="33.810313" lon="-118.393867">
  <ele>-0.12</ele>
  <time>2026-09-02T22:07:20Z</time>
  <course>0.0</course>
  <speed>0.0</speed>
  <fix>3d</fix>
</trkpt>
<trkpt lat="33.810313" lon="-118.393867">
  <ele>-0.127</ele>
  <time>2026-09-02T22:07:20Z</time>
  <course>187.33</course>
  <speed>0.03605551275463989</speed>
  <fix>3d</fix>
</trkpt>
<trkpt lat="33.810313" lon="-118.393867">
  <ele>-0.12</ele>
  <time>2026-09-02T22:07:20Z</time>
  <course>0.0</course>
  <speed>0.0</speed>
  <fix>3d</fix>
</trkpt>
<trkpt lat="33.810313" lon="-118.393867">
  <ele>-0.126</ele>
  <time>2026-09-02T22:07:20Z</time>
  <course>187.32</course>
  <speed>0.03605551275463989</speed>
  <fix>3d</fix>
</trkpt>
<trkpt lat="33.810313" lon="-118.393867">
  <ele>-0.12</ele>
  <time>2026-09-02T22:07:20Z</time>
  <course>0.0</course>
  <speed>0.0</speed>
  <fix>3d</fix>
</trkpt>
<trkpt lat="33.810313" lon="-118.393867">
  <ele>-0.126</ele>
  <time>2026-09-02T22:07:20Z</time>
  <course>187.32</course>
  <speed>0.03605551275463989</speed>
  <fix>3d</fix>
</trkpt>
<trkpt lat="33.810313" lon="-118.393867">
  <ele>-0.12</ele>
  <time>2026-09-02T22:07:20Z</time>
  <course>0.0</course>
  <speed>0.0</speed>
  <fix>3d</fix>
</trkpt>
<trkpt lat="33.810313" lon="-118.393867">
  <ele>-0.125</ele>
  <time>2026-09-02T22:07:20Z</time>
  <course>187.31</course>
  <speed>0.03605551275463989</speed>
  <fix>3d</fix>
</trkpt>
<trkpt lat="33.810313" lon="-118.393867">
  <ele>-0.12</ele>
  <time>2026-09-02T22:07:20Z</time>
  <course>0.0</course>
  <speed>0.0</speed>
  <fix>3d</fix>
</trkpt>
<trkpt lat="33.810313" lon="-118.393867">
  <ele>-0.124</ele>
  <time>2026-09-02T22:07:20Z</time>
  <course>187.31</course>
  <speed>0.03605551275463989</speed>
  <fix>3d</fix>
</trkpt>
<trkpt lat="33.810313" lon="-118.393867">
  <ele>-0.12</ele>
  <time>2026-09-02T22:07:20Z</time>
  <course>0.0</course>
  <speed>0.0</speed>
  <fix>3d</fix>
</trkpt>
<trkpt lat="33.810313" lon="-118.393867">
  <ele>-0.122</ele>
  <time>2026-09-02T22:07:20Z</time>
  <course>187.3</course>
  <speed>0.03605551275463989</speed>
  <fix>3d</fix>
</trkpt>
<trkpt lat="33.810313" lon="-118.393867">
  <ele>-0.12</ele>
  <time>2026-09-02T22:07:20Z</time>
  <course>0.0</course>
  <speed>0.0</speed>
  <fix>3d</fix>
</trkpt>
<trkpt lat="33.810313" lon="-118.393867">
  <ele>-0.121</ele>
  <time>2026-09-02T22:07:20Z</time>
  <course>187.29</course>
  <speed>0.03605551275463989</speed>
  <fix>3d</fix>
</trkpt>
<trkpt lat="33.810313" lon="-118.393867">
  <ele>-0.12</ele>
  <time>2026-09-02T22:07:20Z</time>
  <course>0.0</course>
  <speed>0.0</speed>
  <fix>3d</fix>
</trkpt>
<trkpt lat="33.810313" lon="-118.393867">
  <ele>-0.122</ele>
  <time>2026-09-02T22:07:20Z</time>
  <course>187.29</course>
  <speed>0.03605551275463989</speed>
  <fix>3d</fix>
</trkpt>
<trkpt lat="33.810313" lon="-118.393867">
  <ele>-0.12</ele>
  <time>2026-09-02T22:07:20Z</time>
  <course>0.0</course>
  <speed>0.0</speed>
  <fix>3d</fix>
</trkpt>
<trkpt lat="33.810313" lon="-118.393867">
  <ele>-0.124</ele>
  <time>2026-09-02T22:07:20Z</time>
  <course>187.28</course>
  <speed>0.03605551275463989</speed>
  <fix>3d</fix>
</trkpt>
<trkpt lat="33.810313" lon="-118.393867">
  <ele>-0.12</ele>
  <time>2026-09-02T22:07:20Z</time>
  <course>0.0</course>
  <speed>0.0</speed>
  <fix>3d</fix>
</trkpt>
<trkpt lat="33.810313" lon="-118.393867">
  <ele>-0.128</ele>
  <time>2026-09-02T22:07:20Z</time>
  <course>187.28</course>
  <speed>0.03605551275463989</speed>
  <fix>3d</fix>
</trkpt>
<trkpt lat="33.810313" lon="-118.393867">
  <ele>-0.12</ele>
  <time>2026-09-02T22:07:20Z</time>
  <course>0.0</course>
  <speed>0.0</speed>
  <fix>3d</fix>
</trkpt>
<trkpt lat="33.810313" lon="-118.393867">
  <ele>-0.13</ele>
  <time>2026-09-02T22:07:20Z</time>
  <course>187.27</course>
  <speed>0.03605551275463989</speed>
  <fix>3d</fix>
</trkpt>
<trkpt lat="33.810313" lon="-118.393867">
  <ele>-0.12</ele>
  <time>2026-09-02T22:07:20Z</time>
  <course>0.0</course>
  <speed>0.0</speed>
  <fix>3d</fix>
</trkpt>
<trkpt lat="33.810313" lon="-118.393867">
  <ele>-0.133</ele>
  <time>2026-09-02T22:07:20Z</time>
  <course>187.27</course>
  <speed>0.03605551275463989</speed>
  <fix>3d</fix>
</trkpt>
<trkpt lat="33.810313" lon="-118.393867">
  <ele>-0.12</ele>
  <time>2026-09-02T22:07:20Z</time>
  <course>0.0</course>
  <speed>0.0</speed>
  <fix>3d</fix>
</trkpt>
<trkpt lat="33.810313" lon="-118.393867">
  <ele>-0.135</ele>
  <time>2026-09-02T22:07:20Z</time>
  <course>187.26</course>
  <speed>0.03605551275463989</speed>
  <fix>3d</fix>
</trkpt>
<trkpt lat="33.810313" lon="-118.393867">
  <ele>-0.12</ele>
  <time>2026-09-02T22:07:20Z</time>
  <course>0.0</course>
  <speed>0.0</speed>
  <fix>3d</fix>
</trkpt>
<trkpt lat="33.810313" lon="-118.393867">
  <ele>-0.136</ele>
  <time>2026-09-02T22:07:20Z</time>
  <course>187.26</course>
  <speed>0.03605551275463989</speed>
  <fix>3d</fix>
</trkpt>
<trkpt lat="33.810313" lon="-118.393867">
  <ele>-0.12</ele>
  <time>2026-09-02T22:07:20Z</time>
  <course>0.0</course>
  <speed>0.0</speed>
  <fix>3d</fix>
</trkpt>
<trkpt lat="33.810313" lon="-118.393867">
  <ele>-0.136</ele>
  <time>2026-09-02T22:07:20Z</time>
  <course>187.25</course>
  <speed>0.03605551275463989</speed>
  <fix>3d</fix>
</trkpt>
<trkpt lat="33.810313" lon="-118.393867">
  <ele>-0.12</ele>
  <time>2026-09-02T22:07:20Z</time>
  <course>0.0</course>
  <speed>0.0</speed>
  <fix>3d</fix>
</trkpt>
<trkpt lat="33.810313" lon="-118.393867">
  <ele>-0.135</ele>
  <time>2026-09-02T22:07:20Z</time>
  <course>187.25</course>
  <speed>0.03605551275463989</speed>
  <fix>3d</fix>
</trkpt>
<trkpt lat="33.810313" lon="-118.393867">
  <ele>-0.12</ele>
  <time>2026-09-02T22:07:20Z</time>
  <course>0.0</course>
  <speed>0.0</speed>
  <fix>3d</fix>
</trkpt>
<trkpt lat="33.810313" lon="-118.393867">
  <ele>-0.134</ele>
  <time>2026-09-02T22:07:20Z</time>
  <course>187.24</course>
  <speed>0.03605551275463989</speed>
  <fix>3d</fix>
</trkpt>
<trkpt lat="33.810313" lon="-118.393867">
  <ele>-0.12</ele>
  <time>2026-09-02T22:07:20Z</time>
  <course>0.0</course>
  <speed>0.0</speed>
  <fix>3d</fix>
</trkpt>
<trkpt lat="33.810313" lon="-118.393867">
  <ele>-0.132</ele>
  <time>2026-09-02T22:07:20Z</time>
  <course>187.24</course>
  <speed>0.03605551275463989</speed>
  <fix>3d</fix>
</trkpt>
<trkpt lat="33.810313" lon="-118.393867">
  <ele>-0.12</ele>
  <time>2026-09-02T22:07:20Z</time>
  <course>0.0</course>
  <speed>0.0</speed>
  <fix>3d</fix>
</trkpt>
<trkpt lat="33.810313" lon="-118.393867">
  <ele>-0.131</ele>
  <time>2026-09-02T22:07:20Z</time>
  <course>187.23</course>
  <speed>0.03605551275463989</speed>
  <fix>3d</fix>
</trkpt>
<trkpt lat="33.810313" lon="-118.393867">
  <ele>-0.12</ele>
  <time>2026-09-02T22:07:20Z</time>
  <course>0.0</course>
  <speed>0.0</speed>
  <fix>3d</fix>
</trkpt>
<trkpt lat="33.810313" lon="-118.393867">
  <ele>-0.131</ele>
  <time>2026-09-02T22:07:20Z</time>
  <course>187.22</course>
  <speed>0.03605551275463989</speed>
  <fix>3d</fix>
</trkpt>
<trkpt lat="33.810313" lon="-118.393867">
  <ele>-0.12</ele>
  <time>2026-09-02T22:07:20Z</time>
  <course>0.0</course>
  <speed>0.0</speed>
  <fix>3d</fix>
</trkpt>
<trkpt lat="33.810313" lon="-118.393867">
  <ele>-0.132</ele>
  <time>2026-09-02T22:07:20Z</time>
  <course>187.22</course>
  <speed>0.03605551275463989</speed>
  <fix>3d</fix>
</trkpt>
<trkpt lat="33.810313" lon="-118.393867">
  <ele>-0.12</ele>
  <time>2026-09-02T22:07:20Z</time>
  <course>0.0</course>
  <speed>0.0</speed>
  <fix>3d</fix>
</trkpt>
<trkpt lat="33.810313" lon="-118.393867">
  <ele>-0.132</ele>
  <time>2026-09-02T22:07:20Z</time>
  <course>187.21</course>
  <speed>0.03605551275463989</speed>
  <fix>3d</fix>
</trkpt>
<trkpt lat="33.810313" lon="-118.393867">
  <ele>-0.12</ele>
  <time>2026-09-02T22:07:20Z</time>
  <course>0.0</course>
  <speed>0.0</speed>
  <fix>3d</fix>
</trkpt>
<trkpt lat="33.810313" lon="-118.393867">
  <ele>-0.133</ele>
  <time>2026-09-02T22:07:20Z</time>
  <course>187.21</course>
  <speed>0.03605551275463989</speed>
  <fix>3d</fix>
</trkpt>
<trkpt lat="33.810313" lon="-118.393867">
  <ele>-0.12</ele>
  <time>2026-09-02T22:07:20Z</time>
  <course>0.0</course>
  <speed>0.0</speed>
  <fix>3d</fix>
</trkpt>
<trkpt lat="33.810313" lon="-118.393867">
  <ele>-0.132</ele>
  <time>2026-09-02T22:07:20Z</time>
  <course>187.2</course>
  <speed>0.03605551275463989</speed>
  <fix>3d</fix>
</trkpt>
<trkpt lat="33.810313" lon="-118.393867">
  <ele>-0.12</ele>
  <time>2026-09-02T22:07:20Z</time>
  <course>0.0</course>
  <speed>0.0</speed>
  <fix>3d</fix>
</trkpt>
<trkpt lat="33.810313" lon="-118.393867">
  <ele>-0.131</ele>
  <time>2026-09-02T22:07:20Z</time>
  <course>187.2</course>
  <speed>0.03605551275463989</speed>
  <fix>3d</fix>
</trkpt>
<trkpt lat="33.810313" lon="-118.393867">
  <ele>-0.12</ele>
  <time>2026-09-02T22:07:20Z</time>
  <course>0.0</course>
  <speed>0.0</speed>
  <fix>3d</fix>
</trkpt>
<trkpt lat="33.810313" lon="-118.393867">
  <ele>-0.129</ele>
  <time>2026-09-02T22:07:20Z</time>
  <course>187.19</course>
  <speed>0.03605551275463989</speed>
  <fix>3d</fix>
</trkpt>
<trkpt lat="33.810313" lon="-118.393867">
  <ele>-0.12</ele>
  <time>2026-09-02T22:07:20Z</time>
  <course>0.0</course>
  <speed>0.0</speed>
  <fix>3d</fix>
</trkpt>
<trkpt lat="33.810313" lon="-118.393867">
  <ele>-0.126</ele>
  <time>2026-09-02T22:07:20Z</time>
  <course>187.19</course>
  <speed>0.03605551275463989</speed>
  <fix>3d</fix>
</trkpt>
<trkpt lat="33.810313" lon="-118.393867">
  <ele>-0.12</ele>
  <time>2026-09-02T22:07:20Z</time>
  <course>0.0</course>
  <speed>0.0</speed>
  <fix>3d</fix>
</trkpt>
<trkpt lat="33.810313" lon="-118.393867">
  <ele>-0.124</ele>
  <time>2026-09-02T22:07:20Z</time>
  <course>187.18</course>
  <speed>0.03605551275463989</speed>
  <fix>3d</fix>
</trkpt>
<trkpt lat="33.810313" lon="-118.393867">
  <ele>-0.12</ele>
  <time>2026-09-02T22:07:20Z</time>
  <course>0.0</course>
  <speed>0.0</speed>
  <fix>3d</fix>
</trkpt>
<trkpt lat="33.810313" lon="-118.393867">
  <ele>-0.123</ele>
  <time>2026-09-02T22:07:20Z</time>
  <course>187.18</course>
  <speed>0.03605551275463989</speed>
  <fix>3d</fix>
</trkpt>
<trkpt lat="33.810313" lon="-118.393867">
  <ele>-0.12</ele>
  <time>2026-09-02T22:07:20Z</time>
  <course>0.0</course>
  <speed>0.0</speed>
  <fix>3d</fix>
</trkpt>
<trkpt lat="33.810313" lon="-118.393867">
  <ele>-0.123</ele>
  <time>2026-09-02T22:07:20Z</time>
  <course>187.17</course>
  <speed>0.03605551275463989</speed>
  <fix>3d</fix>
</trkpt>
<trkpt lat="33.810313" lon="-118.393867">
  <ele>-0.12</ele>
  <time>2026-09-02T22:07:20Z</time>
  <course>0.0</course>
  <speed>0.0</speed>
  <fix>3d</fix>
</trkpt>
<trkpt lat="33.810313" lon="-118.393867">
  <ele>-0.122</ele>
  <time>2026-09-02T22:07:20Z</time>
  <course>187.17</course>
  <speed>0.0</speed>
  <fix>3d</fix>
</trkpt>
<trkpt lat="33.810313" lon="-118.393867">
  <ele>-0.12</ele>
  <time>2026-09-02T22:07:20Z</time>
  <course>0.0</course>
  <speed>0.0</speed>
  <fix>3d</fix>
</trkpt>
<trkpt lat="33.810313" lon="-118.393867">
  <ele>-0.121</ele>
  <time>2026-09-02T22:07:20Z</time>
  <course>187.16</course>
  <speed>0.0</speed>
  <fix>3d</fix>
</trkpt>
<trkpt lat="33.810313" lon="-118.393867">
  <ele>-0.12</ele>
  <time>2026-09-02T22:07:20Z</time>
  <course>0.0</course>
  <speed>0.0</speed>
  <fix>3d</fix>
</trkpt>
<trkpt lat="33.810313" lon="-118.393867">
  <ele>-0.12</ele>
  <time>2026-09-02T22:07:20Z</time>
  <course>187.16</course>
  <speed>0.0</speed>
  <fix>3d</fix>
</trkpt>
<trkpt lat="33.810313" lon="-118.393867">
  <ele>-0.12</ele>
  <time>2026-09-02T22:07:20Z</time>
  <course>0.0</course>
  <speed>0.0</speed>
  <fix>3d</fix>
</trkpt>
<trkpt lat="33.810313" lon="-118.393867">
  <ele>-0.119</ele>
  <time>2026-09-02T22:07:20Z</time>
  <course>187.15</course>
  <speed>0.0</speed>
  <fix>3d</fix>
</trkpt>
<trkpt lat="33.810313" lon="-118.393867">
  <ele>-0.12</ele>
  <time>2026-09-02T22:07:20Z</time>
  <course>0.0</course>
  <speed>0.0</speed>
  <fix>3d</fix>
</trkpt>
<trkpt lat="33.810313" lon="-118.393867">
  <ele>-0.116</ele>
  <time>2026-09-02T22:07:20Z</time>
  <course>187.15</course>
  <speed>0.0</speed>
  <fix>3d</fix>
</trkpt>
<trkpt lat="33.810313" lon="-118.393867">
  <ele>-0.12</ele>
  <time>2026-09-02T22:07:20Z</time>
  <course>0.0</course>
  <speed>0.0</speed>
  <fix>3d</fix>
</trkpt>
<trkpt lat="33.810313" lon="-118.393867">
  <ele>-0.114</ele>
  <time>2026-09-02T22:07:20Z</time>
  <course>187.14</course>
  <speed>0.0</speed>
  <fix>3d</fix>
</trkpt>
<trkpt lat="33.810313" lon="-118.393867">
  <ele>-0.12</ele>
  <time>2026-09-02T22:07:20Z</time>
  <course>0.0</course>
  <speed>0.0</speed>
  <fix>3d</fix>
</trkpt>
<trkpt lat="33.810313" lon="-118.393867">
  <ele>-0.113</ele>
  <time>2026-09-02T22:07:20Z</time>
  <course>187.14</course>
  <speed>0.0</speed>
  <fix>3d</fix>
</trkpt>
<trkpt lat="33.810313" lon="-118.393867">
  <ele>-0.12</ele>
  <time>2026-09-02T22:07:20Z</time>
  <course>0.0</course>
  <speed>0.0</speed>
  <fix>3d</fix>
</trkpt>
<trkpt lat="33.810313" lon="-118.393867">
  <ele>-0.112</ele>
  <time>2026-09-02T22:07:20Z</time>
  <course>187.13</course>
  <speed>0.0</speed>
  <fix>3d</fix>
</trkpt>
<trkpt lat="33.810313" lon="-118.393867">
  <ele>-0.12</ele>
  <time>2026-09-02T22:07:20Z</time>
  <course>0.0</course>
  <speed>0.0</speed>
  <fix>3d</fix>
</trkpt>
<trkpt lat="33.810313" lon="-118.393867">
  <ele>-0.113</ele>
  <time>2026-09-02T22:07:20Z</time>
  <course>187.13</course>
  <speed>0.0</speed>
  <fix>3d</fix>
</trkpt>
<trkpt lat="33.810313" lon="-118.393867">
  <ele>-0.12</ele>
  <time>2026-09-02T22:07:20Z</time>
  <course>0.0</course>
  <speed>0.0</speed>
  <fix>3d</fix>
</trkpt>
<trkpt lat="33.810313" lon="-118.393867">
  <ele>-0.114</ele>
  <time>2026-09-02T22:07:20Z</time>
  <course>187.12</course>
  <speed>0.0</speed>
  <fix>3d</fix>
</trkpt>
<trkpt lat="33.810313" lon="-118.393867">
  <ele>-0.12</ele>
  <time>2026-09-02T22:07:20Z</time>
  <course>0.0</course>
  <speed>0.0</speed>
  <fix>3d</fix>
</trkpt>
<trkpt lat="33.810313" lon="-118.393867">
  <ele>-0.117</ele>
  <time>2026-09-02T22:07:20Z</time>
  <course>187.12</course>
  <speed>0.0</speed>
  <fix>3d</fix>
</trkpt>
<trkpt lat="33.810313" lon="-118.393867">
  <ele>-0.12</ele>
  <time>2026-09-02T22:07:20Z</time>
  <course>0.0</course>
  <speed>0.0</speed>
  <fix>3d</fix>
</trkpt>
<trkpt lat="33.810313" lon="-118.393867">
  <ele>-0.119</ele>
  <time>2026-09-02T22:07:20Z</time>
  <course>187.11</course>
  <speed>0.01</speed>
  <fix>3d</fix>
</trkpt>
<trkpt lat="33.810313" lon="-118.393867">
  <ele>-0.12</ele>
  <time>2026-09-02T22:07:20Z</time>
  <course>0.0</course>
  <speed>0.0</speed>
  <fix>3d</fix>
</trkpt>
<trkpt lat="33.810313" lon="-118.393867">
  <ele>-0.12</ele>
  <time>2026-09-02T22:07:20Z</time>
  <course>187.11</course>
  <speed>0.01</speed>
  <fix>3d</fix>
</trkpt>
<trkpt lat="33.810313" lon="-118.393867">
  <ele>-0.12</ele>
  <time>2026-09-02T22:07:20Z</time>
  <course>0.0</course>
  <speed>0.0</speed>
  <fix>3d</fix>
</trkpt>
<trkpt lat="33.810313" lon="-118.393867">
  <ele>-0.121</ele>
  <time>2026-09-02T22:07:20Z</time>
  <course>187.1</course>
  <speed>0.01</speed>
  <fix>3d</fix>
</trkpt>
<trkpt lat="33.810313" lon="-118.393867">
  <ele>-0.12</ele>
  <time>2026-09-02T22:07:20Z</time>
  <course>0.0</course>
  <speed>0.0</speed>
  <fix>3d</fix>
</trkpt>
<trkpt lat="33.810313" lon="-118.393867">
  <ele>-0.122</ele>
  <time>2026-09-02T22:07:20Z</time>
  <course>187.1</course>
  <speed>0.01414213562373095</speed>
  <fix>3d</fix>
</trkpt>
<trkpt lat="33.810313" lon="-118.393867">
  <ele>-0.12</ele>
  <time>2026-09-02T22:07:20Z</time>
  <course>0.0</course>
  <speed>0.0</speed>
  <fix>3d</fix>
</trkpt>
<trkpt lat="33.810313" lon="-118.393867">
  <ele>-0.122</ele>
  <time>2026-09-02T22:07:20Z</time>
  <course>187.09</course>
  <speed>0.0824621125123532</speed>
  <fix>3d</fix>
</trkpt>
<trkpt lat="33.810313" lon="-118.393867">
  <ele>-0.12</ele>
  <time>2026-09-02T22:07:20Z</time>
  <course>0.0</course>
  <speed>0.0</speed>
  <fix>3d</fix>
</trkpt>
<trkpt lat="33.8103129" lon="-118.3938671">
  <ele>-0.12</ele>
  <time>2026-09-02T22:07:20Z</time>
  <course>187.09</course>
  <speed>0.2580697580112788</speed>
  <fix>3d</fix>
</trkpt>
<trkpt lat="33.810313" lon="-118.393867">
  <ele>-0.12</ele>
  <time>2026-09-02T22:07:20Z</time>
  <course>193.18</course>
  <speed>0.06</speed>
  <fix>3d</fix>
</trkpt>
<trkpt lat="33.8103126" lon="-118.3938673">
  <ele>-0.114</ele>
  <time>2026-09-02T22:07:20Z</time>
  <course>187.08</course>
  <speed>0.40360872141221127</speed>
  <fix>3d</fix>
</trkpt>
<trkpt lat="33.810313" lon="-118.393867">
  <ele>-0.12</ele>
  <time>2026-09-02T22:07:20Z</time>
  <course>193.18</course>
  <speed>0.06</speed>
  <fix>3d</fix>
</trkpt>
<trkpt lat="33.8103126" lon="-118.3938674">
  <ele>-0.112</ele>
  <time>2026-09-02T22:07:20Z</time>
  <course>187.08</course>
  <speed>0.43185645763378366</speed>
  <fix>3d</fix>
</trkpt>
<trkpt lat="33.8103123" lon="-118.3938676">
  <ele>-0.106</ele>
  <time>2026-09-02T22:07:20Z</time>
  <course>187.08</course>
  <speed>0.5162363799656123</speed>
  <fix>3d</fix>
</trkpt>
<trkpt lat="33.8103127" lon="-118.3938671">
  <ele>-0.11</ele>
  <time>2026-09-02T22:07:20Z</time>
  <course>211.91</course>
  <speed>0.28</speed>
  <fix>3d</fix>
</trkpt>
<trkpt lat="33.8103122" lon="-118.3938677">
  <ele>-0.104</ele>
  <time>2026-09-02T22:07:20Z</time>
  <course>187.08</course>
  <speed>0.5445181356024793</speed>
  <fix>3d</fix>
</trkpt>
<trkpt lat="33.8103122" lon="-118.3938678">
  <ele>-0.104</ele>
  <time>2026-09-02T22:07:20Z</time>
  <course>187.08</course>
  <speed>0.5586591089385369</speed>
  <fix>3d</fix>
</trkpt>
<trkpt lat="33.8103121" lon="-118.3938678">
  <ele>-0.103</ele>
  <time>2026-09-02T22:07:20Z</time>
  <course>187.08</course>
  <speed>0.5586591089385369</speed>
  <fix>3d</fix>
</trkpt>
<trkpt lat="33.8103121" lon="-118.3938678">
  <ele>-0.103</ele>
  <time>2026-09-02T22:07:20Z</time>
  <course>187.07</course>
  <speed>0.565685424949238</speed>
  <fix>3d</fix>
</trkpt>
<trkpt lat="33.8103121" lon="-118.3938679">
  <ele>-0.102</ele>
  <time>2026-09-02T22:07:20Z</time>
  <course>187.07</course>
  <speed>0.5728001396647874</speed>
  <fix>3d</fix>
</trkpt>
<trkpt lat="33.810312" lon="-118.3938679">
  <ele>-0.102</ele>
  <time>2026-09-02T22:07:20Z</time>
  <course>187.07</course>
  <speed>0.5798275605729689</speed>
  <fix>3d</fix>
</trkpt>
<trkpt lat="33.810312" lon="-118.3938679">
  <ele>-0.101</ele>
  <time>2026-09-02T22:07:20Z</time>
  <course>187.07</course>
  <speed>0.5869412236331676</speed>
  <fix>3d</fix>
</trkpt>
<trkpt lat="33.810312" lon="-118.393868">
  <ele>-0.101</ele>
  <time>2026-09-02T22:07:20Z</time>
  <course>187.07</course>
  <speed>0.5939696961966999</speed>
  <fix>3d</fix>
</trkpt>
<trkpt lat="33.8103119" lon="-118.393868">
  <ele>-0.101</ele>
  <time>2026-09-02T22:07:20Z</time>
  <course>187.07</course>
  <speed>0.5939696961966999</speed>
  <fix>3d</fix>
</trkpt>
<trkpt lat="33.8103127" lon="-118.3938671">
  <ele>-0.11</ele>
  <time>2026-09-02T22:07:20Z</time>
  <course>211.91</course>
  <speed>0.28</speed>
  <fix>3d</fix>
</trkpt>
<trkpt lat="33.8103119" lon="-118.393868">
  <ele>-0.101</ele>
  <time>2026-09-02T22:07:20Z</time>
  <course>187.07</course>
  <speed>0.5939696961966999</speed>
  <fix>3d</fix>
</trkpt>
<trkpt lat="33.8103119" lon="-118.3938681">
  <ele>-0.1</ele>
  <time>2026-09-02T22:07:20Z</time>
  <course>187.07</course>
  <speed>0.6081118318204308</speed>
  <fix>3d</fix>
</trkpt>
<trkpt lat="33.8103118" lon="-118.3938681">
  <ele>-0.1</ele>
  <time>2026-09-02T22:07:20Z</time>
  <course>187.07</course>
  <speed>0.6081118318204308</speed>
  <fix>3d</fix>
</trkpt>
<trkpt lat="33.8103118" lon="-118.3938682">
  <ele>-0.1</ele>
  <time>2026-09-02T22:07:20Z</time>
  <course>187.07</course>
  <speed>0.6152235366108809</speed>
  <fix>3d</fix>
</trkpt>
<trkpt lat="33.8103118" lon="-118.3938682">
  <ele>-0.1</ele>
  <time>2026-09-02T22:07:20Z</time>
  <course>187.07</course>
  <speed>0.6152235366108809</speed>
  <fix>3d</fix>
</trkpt>
<trkpt lat="33.8103118" lon="-118.3938682">
  <ele>-0.1</ele>
  <time>2026-09-02T22:07:20Z</time>
  <course>187.07</course>
  <speed>0.6222539674441618</speed>
  <fix>3d</fix>
</trkpt>
<trkpt lat="33.8103117" lon="-118.3938683">
  <ele>-0.099</ele>
  <time>2026-09-02T22:07:20Z</time>
  <course>187.07</course>
  <speed>0.6222539674441618</speed>
  <fix>3d</fix>
</trkpt>
<trkpt lat="33.8103117" lon="-118.3938683">
  <ele>-0.1</ele>
  <time>2026-09-02T22:07:20Z</time>
  <course>187.07</course>
  <speed>0.6293647591023825</speed>
  <fix>3d</fix>
</trkpt>
<trkpt lat="33.8103117" lon="-118.3938683">
  <ele>-0.1</ele>
  <time>2026-09-02T22:07:20Z</time>
  <course>187.06</course>
  <speed>0.6293647591023825</speed>
  <fix>3d</fix>
</trkpt>
<trkpt lat="33.8103116" lon="-118.3938684">
  <ele>-0.1</ele>
  <time>2026-09-02T22:07:20Z</time>
  <course>187.06</course>
  <speed>0.6363961030678928</speed>
  <fix>3d</fix>
</trkpt>
<trkpt lat="33.8103116" lon="-118.3938684">
  <ele>-0.1</ele>
  <time>2026-09-02T22:07:20Z</time>
  <course>187.06</course>
  <speed>0.6435060217278468</speed>
  <fix>3d</fix>
</trkpt>
<trkpt lat="33.8103115" lon="-118.3938684">
  <ele>-0.1</ele>
  <time>2026-09-02T22:07:20Z</time>
  <course>187.06</course>
  <speed>0.6435060217278468</speed>
  <fix>3d</fix>
</trkpt>
<trkpt lat="33.8103115" lon="-118.3938685">
  <ele>-0.1</ele>
  <time>2026-09-02T22:07:20Z</time>
  <course>187.06</course>
  <speed>0.6435060217278468</speed>
  <fix>3d</fix>
</trkpt>
<trkpt lat="33.8103121" lon="-118.3938676">
  <ele>-0.1</ele>
  <time>2026-09-02T22:07:20Z</time>
  <course>219.84</course>
  <speed>0.53</speed>
  <fix>3d</fix>
</trkpt>
<trkpt lat="33.8103115" lon="-118.3938685">
  <ele>-0.1</ele>
  <time>2026-09-02T22:07:20Z</time>
  <course>187.06</course>
  <speed>0.6435060217278468</speed>
  <fix>3d</fix>
</trkpt>
<trkpt lat="33.8103115" lon="-118.3938685">
  <ele>-0.1</ele>
  <time>2026-09-02T22:07:20Z</time>
  <course>187.06</course>
  <speed>0.6435060217278468</speed>
  <fix>3d</fix>
</trkpt>
<trkpt lat="33.8103114" lon="-118.3938686">
  <ele>-0.101</ele>
  <time>2026-09-02T22:07:20Z</time>
  <course>187.06</course>
  <speed>0.6576473218982953</speed>
  <fix>3d</fix>
</trkpt>
<trkpt lat="33.8103114" lon="-118.3938686">
  <ele>-0.101</ele>
  <time>2026-09-02T22:07:20Z</time>
  <course>187.06</course>
  <speed>0.6576473218982953</speed>
  <fix>3d</fix>
</trkpt>
<trkpt lat="33.8103114" lon="-118.3938686">
  <ele>-0.101</ele>
  <time>2026-09-02T22:07:20Z</time>
  <course>187.06</course>
  <speed>0.6576473218982953</speed>
  <fix>3d</fix>
</trkpt>
<trkpt lat="33.8103113" lon="-118.3938687">
  <ele>-0.102</ele>
  <time>2026-09-02T22:07:20Z</time>
  <course>187.06</course>
  <speed>0.6576473218982953</speed>
  <fix>3d</fix>
</trkpt>
<trkpt lat="33.8103113" lon="-118.3938687">
  <ele>-0.102</ele>
  <time>2026-09-02T22:07:20Z</time>
  <course>187.06</course>
  <speed>0.6576473218982953</speed>
  <fix>3d</fix>
</trkpt>
<trkpt lat="33.8103113" lon="-118.3938688">
  <ele>-0.102</ele>
  <time>2026-09-02T22:07:20Z</time>
  <course>187.06</course>
  <speed>0.6576473218982953</speed>
  <fix>3d</fix>
</trkpt>
<trkpt lat="33.8103112" lon="-118.3938688">
  <ele>-0.103</ele>
  <time>2026-09-02T22:07:20Z</time>
  <course>187.06</course>
  <speed>0.6648308055437865</speed>
  <fix>3d</fix>
</trkpt>
<trkpt lat="33.8103112" lon="-118.3938688">
  <ele>-0.103</ele>
  <time>2026-09-02T22:07:20Z</time>
  <course>187.05</course>
  <speed>0.6648308055437865</speed>
  <fix>3d</fix>
</trkpt>
<trkpt lat="33.8103112" lon="-118.3938689">
  <ele>-0.104</ele>
  <time>2026-09-02T22:07:20Z</time>
  <course>187.05</course>
  <speed>0.6717886572427374</speed>
  <fix>3d</fix>
</trkpt>
<trkpt lat="33.8103111" lon="-118.3938689">
  <ele>-0.104</ele>
  <time>2026-09-02T22:07:20Z</time>
  <course>187.05</course>
  <speed>0.6717886572427374</speed>
  <fix>3d</fix>
</trkpt>
<trkpt lat="33.8103111" lon="-118.3938689">
  <ele>-0.105</ele>
  <time>2026-09-02T22:07:20Z</time>
  <course>187.05</course>
  <speed>0.6717886572427374</speed>
  <fix>3d</fix>
</trkpt>
<trkpt lat="33.8103121" lon="-118.3938676">
  <ele>-0.1</ele>
  <time>2026-09-02T22:07:20Z</time>
  <course>219.84</course>
  <speed>0.53</speed>
  <fix>3d</fix>
</trkpt>
<trkpt lat="33.8103111" lon="-118.3938689">
  <ele>-0.105</ele>
  <time>2026-09-02T22:07:20Z</time>
  <course>187.05</course>
  <speed>0.6717886572427374</speed>
  <fix>3d</fix>
</trkpt>
<trkpt lat="33.810311" lon="-118.393869">
  <ele>-0.106</ele>
  <time>2026-09-02T22:07:20Z</time>
  <course>187.05</course>
  <speed>0.6717886572427374</speed>
  <fix>3d</fix>
</trkpt>
<trkpt lat="33.810311" lon="-118.3938691">
  <ele>-0.107</ele>
  <time>2026-09-02T22:07:20Z</time>
  <course>187.05</course>
  <speed>0.6789698078707183</speed>
  <fix>3d</fix>
</trkpt>
<trkpt lat="33.810311" lon="-118.3938691">
  <ele>-0.107</ele>
  <time>2026-09-02T22:07:20Z</time>
  <course>187.05</course>
  <speed>0.6789698078707183</speed>
  <fix>3d</fix>
</trkpt>
<trkpt lat="33.8103109" lon="-118.3938692">
  <ele>-0.108</ele>
  <time>2026-09-02T22:07:20Z</time>
  <course>187.05</course>
  <speed>0.6789698078707183</speed>
  <fix>3d</fix>
</trkpt>
<trkpt lat="33.8103109" lon="-118.3938692">
  <ele>-0.109</ele>
  <time>2026-09-02T22:07:20Z</time>
  <course>187.05</course>
  <speed>0.6789698078707183</speed>
  <fix>3d</fix>
</trkpt>
<trkpt lat="33.8103109" lon="-118.3938692">
  <ele>-0.109</ele>
  <time>2026-09-02T22:07:20Z</time>
  <course>187.05</course>
  <speed>0.6789698078707183</speed>
  <fix>3d</fix>
</trkpt>
<trkpt lat="33.8103108" lon="-118.3938693">
  <ele>-0.11</ele>
  <time>2026-09-02T22:07:20Z</time>
  <course>187.05</course>
  <speed>0.6859300255857006</speed>
  <fix>3d</fix>
</trkpt>
<trkpt lat="33.8103108" lon="-118.3938693">
  <ele>-0.11</ele>
  <time>2026-09-02T22:07:20Z</time>
  <course>187.05</course>
  <speed>0.6859300255857006</speed>
  <fix>3d</fix>
</trkpt>
<trkpt lat="33.8103107" lon="-118.3938694">
  <ele>-0.111</ele>
  <time>2026-09-02T22:07:20Z</time>
  <course>187.04</course>
  <speed>0.6859300255857006</speed>
  <fix>3d</fix>
</trkpt>
<trkpt lat="33.8103107" lon="-118.3938694">
  <ele>-0.112</ele>
  <time>2026-09-02T22:07:20Z</time>
  <course>187.04</course>
  <speed>0.6859300255857006</speed>
  <fix>3d</fix>
</trkpt>
<trkpt lat="33.8103107" lon="-118.3938694">
  <ele>-0.112</ele>
  <time>2026-09-02T22:07:20Z</time>
  <course>187.04</course>
  <speed>0.6859300255857006</speed>
  <fix>3d</fix>
</trkpt>
<trkpt lat="33.8103113" lon="-118.3938685">
  <ele>-0.09</ele>
  <time>2026-09-02T22:07:20Z</time>
  <course>222.11</course>
  <speed>0.65</speed>
  <fix>3d</fix>
</trkpt>
<trkpt lat="33.8103107" lon="-118.3938694">
  <ele>-0.113</ele>
  <time>2026-09-02T22:07:20Z</time>
  <course>187.04</course>
  <speed>0.6859300255857006</speed>
  <fix>3d</fix>
</trkpt>
<trkpt lat="33.8103106" lon="-118.3938695">
  <ele>-0.114</ele>
  <time>2026-09-02T22:07:20Z</time>
  <course>187.04</course>
  <speed>0.6859300255857006</speed>
  <fix>3d</fix>
</trkpt>
<trkpt lat="33.8103105" lon="-118.3938696">
  <ele>-0.115</ele>
  <time>2026-09-02T22:07:20Z</time>
  <course>187.04</course>
  <speed>0.6931089380465383</speed>
  <fix>3d</fix>
</trkpt>
<trkpt lat="33.8103105" lon="-118.3938696">
  <ele>-0.116</ele>
  <time>2026-09-02T22:07:20Z</time>
  <course>187.04</course>
  <speed>0.6931089380465383</speed>
  <fix>3d</fix>
</trkpt>
<trkpt lat="33.8103105" lon="-118.3938697">
  <ele>-0.117</ele>
  <time>2026-09-02T22:07:20Z</time>
  <course>187.04</course>
  <speed>0.6931089380465383</speed>
  <fix>3d</fix>
</trkpt>
<trkpt lat="33.8103104" lon="-118.3938697">
  <ele>-0.117</ele>
  <time>2026-09-02T22:07:20Z</time>
  <course>187.04</course>
  <speed>0.6931089380465383</speed>
  <fix>3d</fix>
</trkpt>
<trkpt lat="33.8103104" lon="-118.3938698">
  <ele>-0.118</ele>
  <time>2026-09-02T22:07:20Z</time>
  <course>187.04</course>
  <speed>0.6931089380465383</speed>
  <fix>3d</fix>
</trkpt>
<trkpt lat="33.8103104" lon="-118.3938698">
  <ele>-0.119</ele>
  <time>2026-09-02T22:07:20Z</time>
  <course>187.04</course>
  <speed>0.6931089380465383</speed>
  <fix>3d</fix>
</trkpt>
<trkpt lat="33.8103103" lon="-118.3938698">
  <ele>-0.119</ele>
  <time>2026-09-02T22:07:20Z</time>
  <course>187.04</course>
  <speed>0.6931089380465383</speed>
  <fix>3d</fix>
</trkpt>
<trkpt lat="33.8103103" lon="-118.3938699">
  <ele>-0.12</ele>
  <time>2026-09-02T22:07:20Z</time>
  <course>187.03</course>
  <speed>0.7000714249274855</speed>
  <fix>3d</fix>
</trkpt>
<trkpt lat="33.8103103" lon="-118.3938699">
  <ele>-0.121</ele>
  <time>2026-09-02T22:07:20Z</time>
  <course>187.03</course>
  <speed>0.7000714249274855</speed>
  <fix>3d</fix>
</trkpt>
<trkpt lat="33.8103102" lon="-118.3938699">
  <ele>-0.121</ele>
  <time>2026-09-02T22:07:20Z</time>
  <course>187.03</course>
  <speed>0.7000714249274855</speed>
  <fix>3d</fix>
</trkpt>
<trkpt lat="33.8103113" lon="-118.3938685">
  <ele>-0.09</ele>
  <time>2026-09-02T22:07:20Z</time>
  <course>222.11</course>
  <speed>0.65</speed>
  <fix>3d</fix>
</trkpt>
<trkpt lat="33.8103102" lon="-118.3938699">
  <ele>-0.121</ele>
  <time>2026-09-02T22:07:20Z</time>
  <course>187.03</course>
  <speed>0.7000714249274855</speed>
  <fix>3d</fix>
</trkpt>
<trkpt lat="33.8103101" lon="-118.39387">
  <ele>-0.123</ele>
  <time>2026-09-02T22:07:20Z</time>
  <course>187.03</course>
  <speed>0.7000714249274855</speed>
  <fix>3d</fix>
</trkpt>
<trkpt lat="33.8103101" lon="-118.3938701">
  <ele>-0.123</ele>
  <time>2026-09-02T22:07:20Z</time>
  <course>187.03</course>
  <speed>0.7000714249274855</speed>
  <fix>3d</fix>
</trkpt>
<trkpt lat="33.81031" lon="-118.3938702">
  <ele>-0.124</ele>
  <time>2026-09-02T22:07:20Z</time>
  <course>187.03</course>
  <speed>0.7000714249274855</speed>
  <fix>3d</fix>
</trkpt>
<trkpt lat="33.81031" lon="-118.3938702">
  <ele>-0.125</ele>
  <time>2026-09-02T22:07:20Z</time>
  <course>187.03</course>
  <speed>0.7000714249274855</speed>
  <fix>3d</fix>
</trkpt>
<trkpt lat="33.81031" lon="-118.3938702">
  <ele>-0.126</ele>
  <time>2026-09-02T22:07:20Z</time>
  <course>187.03</course>
  <speed>0.7000714249274855</speed>
  <fix>3d</fix>
</trkpt>
<trkpt lat="33.8103099" lon="-118.3938703">
  <ele>-0.126</ele>
  <time>2026-09-02T22:07:20Z</time>
  <course>187.03</course>
  <speed>0.7000714249274855</speed>
  <fix>3d</fix>
</trkpt>
<trkpt lat="33.8103099" lon="-118.3938703">
  <ele>-0.126</ele>
  <time>2026-09-02T22:07:20Z</time>
  <course>187.03</course>
  <speed>0.7000714249274855</speed>
  <fix>3d</fix>
</trkpt>
<trkpt lat="33.8103098" lon="-118.3938704">
  <ele>-0.127</ele>
  <time>2026-09-02T22:07:20Z</time>
  <course>187.03</course>
  <speed>0.7000714249274855</speed>
  <fix>3d</fix>
</trkpt>
<trkpt lat="33.8103098" lon="-118.3938704">
  <ele>-0.128</ele>
  <time>2026-09-02T22:07:20Z</time>
  <course>187.02</course>
  <speed>0.7000714249274855</speed>
  <fix>3d</fix>
</trkpt>
<trkpt lat="33.8103098" lon="-118.3938704">
  <ele>-0.128</ele>
  <time>2026-09-02T22:07:20Z</time>
  <course>187.02</course>
  <speed>0.7000714249274855</speed>
  <fix>3d</fix>
</trkpt>
<trkpt lat="33.8103104" lon="-118.3938695">
  <ele>-0.1</ele>
  <time>2026-09-02T22:07:20Z</time>
  <course>222.88</course>
  <speed>0.7</speed>
  <fix>3d</fix>
</trkpt>
<trkpt lat="33.8103098" lon="-118.3938705">
  <ele>-0.128</ele>
  <time>2026-09-02T22:07:20Z</time>
  <course>187.02</course>
  <speed>0.7000714249274855</speed>
  <fix>3d</fix>
</trkpt>
<trkpt lat="33.8103097" lon="-118.3938705">
  <ele>-0.128</ele>
  <time>2026-09-02T22:07:20Z</time>
  <course>187.02</course>
  <speed>0.7000714249274855</speed>
  <fix>3d</fix>
</trkpt>
<trkpt lat="33.8103097" lon="-118.3938706">
  <ele>-0.129</ele>
  <time>2026-09-02T22:07:20Z</time>
  <course>187.02</course>
  <speed>0.7000714249274855</speed>
  <fix>3d</fix>
</trkpt>
<trkpt lat="33.8103096" lon="-118.3938706">
  <ele>-0.129</ele>
  <time>2026-09-02T22:07:20Z</time>
  <course>187.02</course>
  <speed>0.7000714249274855</speed>
  <fix>3d</fix>
</trkpt>
<trkpt lat="33.8103096" lon="-118.3938706">
  <ele>-0.129</ele>
  <time>2026-09-02T22:07:20Z</time>
  <course>187.02</course>
  <speed>0.7000714249274855</speed>
  <fix>3d</fix>
</trkpt>
<trkpt lat="33.8103096" lon="-118.3938707">
  <ele>-0.129</ele>
  <time>2026-09-02T22:07:20Z</time>
  <course>187.02</course>
  <speed>0.7000714249274855</speed>
  <fix>3d</fix>
</trkpt>
<trkpt lat="33.8103095" lon="-118.3938707">
  <ele>-0.13</ele>
  <time>2026-09-02T22:07:20Z</time>
  <course>187.02</course>
  <speed>0.7000714249274855</speed>
  <fix>3d</fix>
</trkpt>
<trkpt lat="33.8103095" lon="-118.3938708">
  <ele>-0.13</ele>
  <time>2026-09-02T22:07:20Z</time>
  <course>187.02</course>
  <speed>0.7000714249274855</speed>
  <fix>3d</fix>
</trkpt>
<trkpt lat="33.8103094" lon="-118.3938708">
  <ele>-0.13</ele>
  <time>2026-09-02T22:07:20Z</time>
  <course>187.02</course>
  <speed>0.7000714249274855</speed>
  <fix>3d</fix>
</trkpt>
<trkpt lat="33.8103094" lon="-118.3938709">
  <ele>-0.13</ele>
  <time>2026-09-02T22:07:20Z</time>
  <course>187.02</course>
  <speed>0.7000714249274855</speed>
  <fix>3d</fix>
</trkpt>
<trkpt lat="33.8103094" lon="-118.3938709">
  <ele>-0.13</ele>
  <time>2026-09-02T22:07:20Z</time>
  <course>187.02</course>
  <speed>0.7000714249274855</speed>
  <fix>3d</fix>
</trkpt>
<trkpt lat="33.8103093" lon="-118.3938709">
  <ele>-0.13</ele>
  <time>2026-09-02T22:07:20Z</time>
  <course>187.02</course>
  <speed>0.7000714249274855</speed>
  <fix>3d</fix>
</trkpt>
<trkpt lat="33.8103093" lon="-118.393871">
  <ele>-0.13</ele>
  <time>2026-09-02T22:07:20Z</time>
  <course>187.02</course>
  <speed>0.7000714249274855</speed>
  <fix>3d</fix>
</trkpt>
<trkpt lat="33.8103104" lon="-118.3938695">
  <ele>-0.1</ele>
  <time>2026-09-02T22:07:20Z</time>
  <course>222.88</course>
  <speed>0.7</speed>
  <fix>3d</fix>
</trkpt>
<trkpt lat="33.8103093" lon="-118.393871">
  <ele>-0.13</ele>
  <time>2026-09-02T22:07:20Z</time>
  <course>187.02</course>
  <speed>0.7000714249274855</speed>
  <fix>3d</fix>
</trkpt>
<trkpt lat="33.8103092" lon="-118.3938711">
  <ele>-0.13</ele>
  <time>2026-09-02T22:07:20Z</time>
  <course>187.02</course>
  <speed>0.7000714249274855</speed>
  <fix>3d</fix>
</trkpt>
<trkpt lat="33.8103092" lon="-118.3938711">
  <ele>-0.13</ele>
  <time>2026-09-02T22:07:20Z</time>
  <course>187.02</course>
  <speed>0.7000714249274855</speed>
  <fix>3d</fix>
</trkpt>
<trkpt lat="33.8103091" lon="-118.3938712">
  <ele>-0.13</ele>
  <time>2026-09-02T22:07:20Z</time>
  <course>187.02</course>
  <speed>0.7000714249274855</speed>
  <fix>3d</fix>
</trkpt>
<trkpt lat="33.8103091" lon="-118.3938712">
  <ele>-0.13</ele>
  <time>2026-09-02T22:07:20Z</time>
  <course>187.02</course>
  <speed>0.7071067811865476</speed>
  <fix>3d</fix>
</trkpt>
<trkpt lat="33.8103091" lon="-118.3938712">
  <ele>-0.129</ele>
  <time>2026-09-02T22:07:20Z</time>
  <course>187.01</course>
  <speed>0.7071067811865476</speed>
  <fix>3d</fix>
</trkpt>
<trkpt lat="33.810309" lon="-118.3938713">
  <ele>-0.129</ele>
  <time>2026-09-02T22:07:20Z</time>
  <course>187.01</course>
  <speed>0.7071067811865476</speed>
  <fix>3d</fix>
</trkpt>
<trkpt lat="33.810309" lon="-118.3938713">
  <ele>-0.129</ele>
  <time>2026-09-02T22:07:20Z</time>
  <course>187.01</course>
  <speed>0.7071067811865476</speed>
  <fix>3d</fix>
</trkpt>
<trkpt lat="33.8103089" lon="-118.3938714">
  <ele>-0.128</ele>
  <time>2026-09-02T22:07:20Z</time>
  <course>187.01</course>
  <speed>0.7071067811865476</speed>
  <fix>3d</fix>
</trkpt>
<trkpt lat="33.8103089" lon="-118.3938714">
  <ele>-0.128</ele>
  <time>2026-09-02T22:07:20Z</time>
  <course>187.01</course>
  <speed>0.7071067811865476</speed>
  <fix>3d</fix>
</trkpt>
<trkpt lat="33.8103089" lon="-118.3938715">
  <ele>-0.127</ele>
  <time>2026-09-02T22:07:20Z</time>
  <course>187.01</course>
  <speed>0.7071067811865476</speed>
  <fix>3d</fix>
</trkpt>
<trkpt lat="33.8103089" lon="-118.3938715">
  <ele>-0.127</ele>
  <time>2026-09-02T22:07:20Z</time>
  <course>187.01</course>
  <speed>0.7071067811865476</speed>
  <fix>3d</fix>
</trkpt>
<trkpt lat="33.8103095" lon="-118.3938706">
  <ele>-0.11</ele>
  <time>2026-09-02T22:07:20Z</time>
  <course>223.13</course>
  <speed>0.72</speed>
  <fix>3d</fix>
</trkpt>
<trkpt lat="33.8103088" lon="-118.3938716">
  <ele>-0.126</ele>
  <time>2026-09-02T22:07:20Z</time>
  <course>187.01</course>
  <speed>0.7071067811865476</speed>
  <fix>3d</fix>
</trkpt>
<trkpt lat="33.8103087" lon="-118.3938716">
  <ele>-0.126</ele>
  <time>2026-09-02T22:07:20Z</time>
  <course>187.01</course>
  <speed>0.7071067811865476</speed>
  <fix>3d</fix>
</trkpt>
<trkpt lat="33.8103087" lon="-118.3938717">
  <ele>-0.125</ele>
  <time>2026-09-02T22:07:20Z</time>
  <course>187.01</course>
  <speed>0.7071067811865476</speed>
  <fix>3d</fix>
</trkpt>
<trkpt lat="33.8103086" lon="-118.3938717">
  <ele>-0.124</ele>
  <time>2026-09-02T22:07:20Z</time>
  <course>187.01</course>
  <speed>0.7071067811865476</speed>
  <fix>3d</fix>
</trkpt>
<trkpt lat="33.8103086" lon="-118.3938718">
  <ele>-0.124</ele>
  <time>2026-09-02T22:07:20Z</time>
  <course>187.01</course>
  <speed>0.7071067811865476</speed>
  <fix>3d</fix>
</trkpt>
<trkpt lat="33.8103086" lon="-118.3938718">
  <ele>-0.123</ele>
  <time>2026-09-02T22:07:20Z</time>
  <course>187.01</course>
  <speed>0.7071067811865476</speed>
  <fix>3d</fix>
</trkpt>
<trkpt lat="33.8103085" lon="-118.3938718">
  <ele>-0.122</ele>
  <time>2026-09-02T22:07:20Z</time>
  <course>187.0</course>
  <speed>0.7071067811865476</speed>
  <fix>3d</fix>
</trkpt>
<trkpt lat="33.8103085" lon="-118.3938719">
  <ele>-0.122</ele>
  <time>2026-09-02T22:07:20Z</time>
  <course>187.0</course>
  <speed>0.7071067811865476</speed>
  <fix>3d</fix>
</trkpt>
<trkpt lat="33.8103084" lon="-118.3938719">
  <ele>-0.121</ele>
  <time>2026-09-02T22:07:20Z</time>
  <course>187.0</course>
  <speed>0.7071067811865476</speed>
  <fix>3d</fix>
</trkpt>
<trkpt lat="33.8103084" lon="-118.393872">
  <ele>-0.12</ele>
  <time>2026-09-02T22:07:20Z</time>
  <course>187.0</course>
  <speed>0.7071067811865476</speed>
  <fix>3d</fix>
</trkpt>
<trkpt lat="33.8103084" lon="-118.393872">
  <ele>-0.12</ele>
  <time>2026-09-02T22:07:20Z</time>
  <course>187.0</course>
  <speed>0.7071067811865476</speed>
  <fix>3d</fix>
</trkpt>
<trkpt lat="33.8103095" lon="-118.3938706">
  <ele>-0.11</ele>
  <time>2026-09-02T22:07:20Z</time>
  <course>223.13</course>
  <speed>0.72</speed>
  <fix>3d</fix>
</trkpt>
<trkpt lat="33.8103084" lon="-118.393872">
  <ele>-0.12</ele>
  <time>2026-09-02T22:07:20Z</time>
  <course>187.0</course>
  <speed>0.7071067811865476</speed>
  <fix>3d</fix>
</trkpt>
<trkpt lat="33.8103083" lon="-118.3938721">
  <ele>-0.119</ele>
  <time>2026-09-02T22:07:20Z</time>
  <course>187.0</course>
  <speed>0.7071067811865476</speed>
  <fix>3d</fix>
</trkpt>
<trkpt lat="33.8103083" lon="-118.3938721">
  <ele>-0.118</ele>
  <time>2026-09-02T22:07:20Z</time>
  <course>187.0</course>
  <speed>0.7071067811865476</speed>
  <fix>3d</fix>
</trkpt>
<trkpt lat="33.8103082" lon="-118.3938722">
  <ele>-0.117</ele>
  <time>2026-09-02T22:07:20Z</time>
  <course>187.0</course>
  <speed>0.7071067811865476</speed>
  <fix>3d</fix>
</trkpt>
<trkpt lat="33.8103082" lon="-118.3938722">
  <ele>-0.116</ele>
  <time>2026-09-02T22:07:20Z</time>
  <course>187.0</course>
  <speed>0.7071067811865476</speed>
  <fix>3d</fix>
</trkpt>
<trkpt lat="33.8103081" lon="-118.3938723">
  <ele>-0.116</ele>
  <time>2026-09-02T22:07:20Z</time>
  <course>187.0</course>
  <speed>0.7071067811865476</speed>
  <fix>3d</fix>
</trkpt>
<trkpt lat="33.8103081" lon="-118.3938723">
  <ele>-0.115</ele>
  <time>2026-09-02T22:07:20Z</time>
  <course>187.0</course>
  <speed>0.7071067811865476</speed>
  <fix>3d</fix>
</trkpt>
<trkpt lat="33.8103081" lon="-118.3938723">
  <ele>-0.114</ele>
  <time>2026-09-02T22:07:20Z</time>
  <course>187.0</course>
  <speed>0.7071067811865476</speed>
  <fix>3d</fix>
</trkpt>
<trkpt lat="33.810308" lon="-118.3938724">
  <ele>-0.114</ele>
  <time>2026-09-02T22:07:20Z</time>
  <course>187.0</course>
  <speed>0.7071067811865476</speed>
  <fix>3d</fix>
</trkpt>
<trkpt lat="33.810308" lon="-118.3938724">
  <ele>-0.113</ele>
  <time>2026-09-02T22:07:20Z</time>
  <course>187.0</course>
  <speed>0.7071067811865476</speed>
  <fix>3d</fix>
</trkpt>
<trkpt lat="33.810308" lon="-118.3938725">
  <ele>-0.113</ele>
  <time>2026-09-02T22:07:20Z</time>
  <course>187.0</course>
  <speed>0.7071067811865476</speed>
  <fix>3d</fix>
</trkpt>
<trkpt lat="33.8103079" lon="-118.3938725">
  <ele>-0.112</ele>
  <time>2026-09-02T22:07:20Z</time>
  <course>187.0</course>
  <speed>0.7071067811865476</speed>
  <fix>3d</fix>
</trkpt>
<trkpt lat="33.8103079" lon="-118.3938725">
  <ele>-0.112</ele>
  <time>2026-09-02T22:07:20Z</time>
  <course>187.0</course>
  <speed>0.7071067811865476</speed>
  <fix>3d</fix>
</trkpt>
<trkpt lat="33.8103085" lon="-118.3938716">
  <ele>-0.11</ele>
  <time>2026-09-02T22:07:20Z</time>
  <course>223.22</course>
  <speed>0.73</speed>
  <fix>3d</fix>
</trkpt>
<trkpt lat="33.8103079" lon="-118.3938725">
  <ele>-0.111</ele>
  <time>2026-09-02T22:07:20Z</time>
  <course>187.0</course>
  <speed>0.7071067811865476</speed>
  <fix>3d</fix>
</trkpt>
<trkpt lat="33.8103078" lon="-118.3938726">
  <ele>-0.111</ele>
  <time>2026-09-02T22:07:20Z</time>
  <course>187.0</course>
  <speed>0.7071067811865476</speed>
  <fix>3d</fix>
</trkpt>
<trkpt lat="33.8103078" lon="-118.3938727">
  <ele>-0.11</ele>
  <time>2026-09-02T22:07:20Z</time>
  <course>187.0</course>
  <speed>0.7071067811865476</speed>
  <fix>3d</fix>
</trkpt>
<trkpt lat="33.8103078" lon="-118.3938727">
  <ele>-0.109</ele>
  <time>2026-09-02T22:07:20Z</time>
  <course>187.0</course>
  <speed>0.7071067811865476</speed>
  <fix>3d</fix>
</trkpt>
<trkpt lat="33.8103077" lon="-118.3938727">
  <ele>-0.109</ele>
  <time>2026-09-02T22:07:20Z</time>
  <course>187.0</course>
  <speed>0.7071067811865476</speed>
  <fix>3d</fix>
</trkpt>
<trkpt lat="33.8103077" lon="-118.3938728">
  <ele>-0.108</ele>
  <time>2026-09-02T22:07:20Z</time>
  <course>186.99</course>
  <speed>0.7071067811865476</speed>
  <fix>3d</fix>
</trkpt>
<trkpt lat="33.8103076" lon="-118.3938728">
  <ele>-0.107</ele>
  <time>2026-09-02T22:07:20Z</time>
  <course>186.99</course>
  <speed>0.7071067811865476</speed>
  <fix>3d</fix>
</trkpt>
<trkpt lat="33.8103076" lon="-118.3938729">
  <ele>-0.107</ele>
  <time>2026-09-02T22:07:20Z</time>
  <course>186.99</course>
  <speed>0.7071067811865476</speed>
  <fix>3d</fix>
</trkpt>
<trkpt lat="33.8103076" lon="-118.3938729">
  <ele>-0.106</ele>
  <time>2026-09-02T22:07:20Z</time>
  <course>186.99</course>
  <speed>0.7071067811865476</speed>
  <fix>3d</fix>
</trkpt>
<trkpt lat="33.8103075" lon="-118.393873">
  <ele>-0.106</ele>
  <time>2026-09-02T22:07:20Z</time>
  <course>186.99</course>
  <speed>0.7071067811865476</speed>
  <fix>3d</fix>
</trkpt>
<trkpt lat="33.8103075" lon="-118.393873">
  <ele>-0.105</ele>
  <time>2026-09-02T22:07:20Z</time>
  <course>186.99</course>
  <speed>0.7071067811865476</speed>
  <fix>3d</fix>
</trkpt>
<trkpt lat="33.8103074" lon="-118.393873">
  <ele>-0.105</ele>
  <time>2026-09-02T22:07:20Z</time>
  <course>186.99</course>
  <speed>0.7071067811865476</speed>
  <fix>3d</fix>
</trkpt>
<trkpt lat="33.8103074" lon="-118.393873">
  <ele>-0.105</ele>
  <time>2026-09-02T22:07:20Z</time>
  <course>186.99</course>
  <speed>0.7071067811865476</speed>
  <fix>3d</fix>
</trkpt>
<trkpt lat="33.8103085" lon="-118.3938716">
  <ele>-0.11</ele>
  <time>2026-09-02T22:07:20Z</time>
  <course>223.22</course>
  <speed>0.73</speed>
  <fix>3d</fix>
</trkpt>
<trkpt lat="33.8103074" lon="-118.3938731">
  <ele>-0.104</ele>
  <time>2026-09-02T22:07:20Z</time>
  <course>186.99</course>
  <speed>0.7071067811865476</speed>
  <fix>3d</fix>
</trkpt>
<trkpt lat="33.8103073" lon="-118.3938732">
  <ele>-0.104</ele>
  <time>2026-09-02T22:07:20Z</time>
  <course>186.99</course>
  <speed>0.7071067811865476</speed>
  <fix>3d</fix>
</trkpt>
<trkpt lat="33.8103073" lon="-118.3938732">
  <ele>-0.104</ele>
  <time>2026-09-02T22:07:20Z</time>
  <course>186.99</course>
  <speed>0.7071067811865476</speed>
  <fix>3d</fix>
</trkpt>
<trkpt lat="33.8103073" lon="-118.3938732">
  <ele>-0.104</ele>
  <time>2026-09-02T22:07:20Z</time>
  <course>186.99</course>
  <speed>0.7071067811865476</speed>
  <fix>3d</fix>
</trkpt>
<trkpt lat="33.8103072" lon="-118.3938733">
  <ele>-0.103</ele>
  <time>2026-09-02T22:07:20Z</time>
  <course>186.99</course>
  <speed>0.7071067811865476</speed>
  <fix>3d</fix>
</trkpt>
<trkpt lat="33.8103072" lon="-118.3938733">
  <ele>-0.103</ele>
  <time>2026-09-02T22:07:20Z</time>
  <course>186.99</course>
  <speed>0.7071067811865476</speed>
  <fix>3d</fix>
</trkpt>
<trkpt lat="33.8103072" lon="-118.3938733">
  <ele>-0.103</ele>
  <time>2026-09-02T22:07:20Z</time>
  <course>186.99</course>
  <speed>0.7142128534267639</speed>
  <fix>3d</fix>
</trkpt>
<trkpt lat="33.8103071" lon="-118.3938734">
  <ele>-0.102</ele>
  <time>2026-09-02T22:07:20Z</time>
  <course>186.99</course>
  <speed>0.7142128534267639</speed>
  <fix>3d</fix>
</trkpt>
<trkpt lat="33.8103071" lon="-118.3938734">
  <ele>-0.102</ele>
  <time>2026-09-02T22:07:20Z</time>
  <course>186.99</course>
  <speed>0.7142128534267639</speed>
  <fix>3d</fix>
</trkpt>
<trkpt lat="33.8103071" lon="-118.3938735">
  <ele>-0.102</ele>
  <time>2026-09-02T22:07:20Z</time>
  <course>186.99</course>
  <speed>0.7142128534267639</speed>
  <fix>3d</fix>
</trkpt>
<trkpt lat="33.810307" lon="-118.3938735">
  <ele>-0.102</ele>
  <time>2026-09-02T22:07:20Z</time>
  <course>186.99</course>
  <speed>0.7142128534267639</speed>
  <fix>3d</fix>
</trkpt>
<trkpt lat="33.810307" lon="-118.3938736">
  <ele>-0.102</ele>
  <time>2026-09-02T22:07:20Z</time>
  <course>186.99</course>
  <speed>0.7142128534267639</speed>
  <fix>3d</fix>
</trkpt>
<trkpt lat="33.810307" lon="-118.3938736">
  <ele>-0.102</ele>
  <time>2026-09-02T22:07:20Z</time>
  <course>186.99</course>
  <speed>0.7142128534267639</speed>
  <fix>3d</fix>
</trkpt>
<trkpt lat="33.8103076" lon="-118.3938727">
  <ele>-0.1</ele>
  <time>2026-09-02T22:07:20Z</time>
  <course>223.25</course>
  <speed>0.73</speed>
  <fix>3d</fix>
</trkpt>
<trkpt lat="33.8103069" lon="-118.3938736">
  <ele>-0.102</ele>
  <time>2026-09-02T22:07:20Z</time>
  <course>186.99</course>
  <speed>0.7142128534267639</speed>
  <fix>3d</fix>
</trkpt>
<trkpt lat="33.8103069" lon="-118.3938736">
  <ele>-0.101</ele>
  <time>2026-09-02T22:07:20Z</time>
  <course>186.98</course>
  <speed>0.7142128534267639</speed>
  <fix>3d</fix>
</trkpt>
<trkpt lat="33.8103068" lon="-118.3938737">
  <ele>-0.101</ele>
  <time>2026-09-02T22:07:20Z</time>
  <course>186.98</course>
  <speed>0.7142128534267639</speed>
  <fix>3d</fix>
</trkpt>
<trkpt lat="33.8103068" lon="-118.3938737">
  <ele>-0.101</ele>
  <time>2026-09-02T22:07:20Z</time>
  <course>186.98</course>
  <speed>0.7142128534267639</speed>
  <fix>3d</fix>
</trkpt>
<trkpt lat="33.8103068" lon="-118.3938738">
  <ele>-0.101</ele>
  <time>2026-09-02T22:07:20Z</time>
  <course>186.98</course>
  <speed>0.7142128534267639</speed>
  <fix>3d</fix>
</trkpt>
<trkpt lat="33.8103067" lon="-118.3938738">
  <ele>-0.101</ele>
  <time>2026-09-02T22:07:20Z</time>
  <course>186.98</course>
  <speed>0.7142128534267639</speed>
  <fix>3d</fix>
</trkpt>
<trkpt lat="33.8103067" lon="-118.3938738">
  <ele>-0.101</ele>
  <time>2026-09-02T22:07:20Z</time>
  <course>186.98</course>
  <speed>0.7142128534267639</speed>
  <fix>3d</fix>
</trkpt>
<trkpt lat="33.8103067" lon="-118.3938739">
  <ele>-0.102</ele>
  <time>2026-09-02T22:07:20Z</time>
  <course>186.98</course>
  <speed>0.7142128534267639</speed>
  <fix>3d</fix>
</trkpt>
<trkpt lat="33.8103066" lon="-118.3938739">
  <ele>-0.102</ele>
  <time>2026-09-02T22:07:20Z</time>
  <course>186.98</course>
  <speed>0.7142128534267639</speed>
  <fix>3d</fix>
</trkpt>
<trkpt lat="33.8103066" lon="-118.393874">
  <ele>-0.102</ele>
  <time>2026-09-02T22:07:20Z</time>
  <course>186.98</course>
  <speed>0.7142128534267639</speed>
  <fix>3d</fix>
</trkpt>
<trkpt lat="33.8103066" lon="-118.393874">
  <ele>-0.102</ele>
  <time>2026-09-02T22:07:20Z</time>
  <course>186.98</course>
  <speed>0.7142128534267639</speed>
  <fix>3d</fix>
</trkpt>
<trkpt lat="33.8103065" lon="-118.393874">
  <ele>-0.103</ele>
  <time>2026-09-02T22:07:20Z</time>
  <course>186.98</course>
  <speed>0.7142128534267639</speed>
  <fix>3d</fix>
</trkpt>
<trkpt lat="33.8103065" lon="-118.3938741">
  <ele>-0.103</ele>
  <time>2026-09-02T22:07:20Z</time>
  <course>186.98</course>
  <speed>0.7142128534267639</speed>
  <fix>3d</fix>
</trkpt>
<trkpt lat="33.8103065" lon="-118.3938741">
  <ele>-0.103</ele>
  <time>2026-09-02T22:07:20Z</time>
  <course>186.98</course>
  <speed>0.7142128534267639</speed>
  <fix>3d</fix>
</trkpt>
<trkpt lat="33.8103076" lon="-118.3938727">
  <ele>-0.1</ele>
  <time>2026-09-02T22:07:20Z</time>
  <course>223.25</course>
  <speed>0.73</speed>
  <fix>3d</fix>
</trkpt>
<trkpt lat="33.8103065" lon="-118.3938741">
  <ele>-0.103</ele>
  <time>2026-09-02T22:07:20Z</time>
  <course>186.98</course>
  <speed>0.7142128534267639</speed>
  <fix>3d</fix>
</trkpt>
<trkpt lat="33.8103064" lon="-118.3938742">
  <ele>-0.104</ele>
  <time>2026-09-02T22:07:20Z</time>
  <course>186.98</course>
  <speed>0.7072481884034769</speed>
  <fix>3d</fix>
</trkpt>
<trkpt lat="33.8103063" lon="-118.3938742">
  <ele>-0.104</ele>
  <time>2026-09-02T22:07:20Z</time>
  <course>186.98</course>
  <speed>0.7072481884034769</speed>
  <fix>3d</fix>
</trkpt>
<trkpt lat="33.8103063" lon="-118.3938743">
  <ele>-0.105</ele>
  <time>2026-09-02T22:07:20Z</time>
  <course>186.98</course>
  <speed>0.7072481884034769</speed>
  <fix>3d</fix>
</trkpt>
<trkpt lat="33.8103062" lon="-118.3938744">
  <ele>-0.105</ele>
  <time>2026-09-02T22:07:20Z</time>
  <course>186.98</course>
  <speed>0.7072481884034769</speed>
  <fix>3d</fix>
</trkpt>
<trkpt lat="33.8103062" lon="-118.3938744">
  <ele>-0.106</ele>
  <time>2026-09-02T22:07:20Z</time>
  <course>186.98</course>
  <speed>0.7072481884034769</speed>
  <fix>3d</fix>
</trkpt>
<trkpt lat="33.8103061" lon="-118.3938745">
  <ele>-0.107</ele>
  <time>2026-09-02T22:07:20Z</time>
  <course>186.98</course>
  <speed>0.7072481884034769</speed>
  <fix>3d</fix>
</trkpt>
<trkpt lat="33.8103061" lon="-118.3938745">
  <ele>-0.108</ele>
  <time>2026-09-02T22:07:20Z</time>
  <course>186.98</course>
  <speed>0.7072481884034769</speed>
  <fix>3d</fix>
</trkpt>
<trkpt lat="33.810306" lon="-118.3938746">
  <ele>-0.108</ele>
  <time>2026-09-02T22:07:20Z</time>
  <course>186.98</course>
  <speed>0.7072481884034769</speed>
  <fix>3d</fix>
</trkpt>
<trkpt lat="33.810306" lon="-118.3938746">
  <ele>-0.109</ele>
  <time>2026-09-02T22:07:20Z</time>
  <course>186.98</course>
  <speed>0.7072481884034769</speed>
  <fix>3d</fix>
</trkpt>
<trkpt lat="33.810306" lon="-118.3938746">
  <ele>-0.109</ele>
  <time>2026-09-02T22:07:20Z</time>
  <course>186.98</course>
  <speed>0.7072481884034769</speed>
  <fix>3d</fix>
</trkpt>
<trkpt lat="33.8103065" lon="-118.3938738">
  <ele>-0.09</ele>
  <time>2026-09-02T22:07:20Z</time>
  <course>223.26</course>
  <speed>0.73</speed>
  <fix>3d</fix>
</trkpt>
<trkpt lat="33.8103059" lon="-118.3938747">
  <ele>-0.11</ele>
  <time>2026-09-02T22:07:20Z</time>
  <course>186.97</course>
  <speed>0.7072481884034769</speed>
  <fix>3d</fix>
</trkpt>
<trkpt lat="33.8103059" lon="-118.3938748">
  <ele>-0.111</ele>
  <time>2026-09-02T22:07:20Z</time>
  <course>186.97</course>
  <speed>0.7072481884034769</speed>
  <fix>3d</fix>
</trkpt>
<trkpt lat="33.8103058" lon="-118.3938748">
  <ele>-0.112</ele>
  <time>2026-09-02T22:07:20Z</time>
  <course>186.97</course>
  <speed>0.7072481884034769</speed>
  <fix>3d</fix>
</trkpt>
<trkpt lat="33.8103058" lon="-118.3938749">
  <ele>-0.112</ele>
  <time>2026-09-02T22:07:20Z</time>
  <course>186.97</course>
  <speed>0.7072481884034769</speed>
  <fix>3d</fix>
</trkpt>
<trkpt lat="33.8103057" lon="-118.3938749">
  <ele>-0.113</ele>
  <time>2026-09-02T22:07:20Z</time>
  <course>186.97</course>
  <speed>0.7072481884034769</speed>
  <fix>3d</fix>
</trkpt>
<trkpt lat="33.8103057" lon="-118.3938749">
  <ele>-0.113</ele>
  <time>2026-09-02T22:07:20Z</time>
  <course>186.97</course>
  <speed>0.7072481884034769</speed>
  <fix>3d</fix>
</trkpt>
<trkpt lat="33.8103057" lon="-118.393875">
  <ele>-0.114</ele>
  <time>2026-09-02T22:07:20Z</time>
  <course>186.97</course>
  <speed>0.7072481884034769</speed>
  <fix>3d</fix>
</trkpt>
<trkpt lat="33.8103056" lon="-118.393875">
  <ele>-0.114</ele>
  <time>2026-09-02T22:07:20Z</time>
  <course>186.97</course>
  <speed>0.7072481884034769</speed>
  <fix>3d</fix>
</trkpt>
<trkpt lat="33.8103056" lon="-118.3938751">
  <ele>-0.115</ele>
  <time>2026-09-02T22:07:20Z</time>
  <course>186.97</course>
  <speed>0.7072481884034769</speed>
  <fix>3d</fix>
</trkpt>
<trkpt lat="33.8103055" lon="-118.3938751">
  <ele>-0.115</ele>
  <time>2026-09-02T22:07:20Z</time>
  <course>186.97</course>
  <speed>0.7072481884034769</speed>
  <fix>3d</fix>
</trkpt>
<trkpt lat="33.8103055" lon="-118.3938751">
  <ele>-0.116</ele>
  <time>2026-09-02T22:07:20Z</time>
  <course>186.97</course>
  <speed>0.7072481884034769</speed>
  <fix>3d</fix>
</trkpt>
<trkpt lat="33.8103055" lon="-118.3938752">
  <ele>-0.116</ele>
  <time>2026-09-02T22:07:20Z</time>
  <course>186.97</course>
  <speed>0.7072481884034769</speed>
  <fix>3d</fix>
</trkpt>
<trkpt lat="33.8103065" lon="-118.3938738">
  <ele>-0.09</ele>
  <time>2026-09-02T22:07:20Z</time>
  <course>223.26</course>
  <speed>0.73</speed>
  <fix>3d</fix>
</trkpt>
<trkpt lat="33.8103055" lon="-118.3938752">
  <ele>-0.116</ele>
  <time>2026-09-02T22:07:20Z</time>
  <course>186.97</course>
  <speed>0.7072481884034769</speed>
  <fix>3d</fix>
</trkpt>
<trkpt lat="33.8103054" lon="-118.3938753">
  <ele>-0.117</ele>
  <time>2026-09-02T22:07:20Z</time>
  <course>186.97</course>
  <speed>0.7072481884034769</speed>
  <fix>3d</fix>
</trkpt>
<trkpt lat="33.8103053" lon="-118.3938753">
  <ele>-0.118</ele>
  <time>2026-09-02T22:07:20Z</time>
  <course>186.97</course>
  <speed>0.7072481884034769</speed>
  <fix>3d</fix>
</trkpt>
<trkpt lat="33.8103053" lon="-118.3938754">
  <ele>-0.119</ele>
  <time>2026-09-02T22:07:20Z</time>
  <course>186.97</course>
  <speed>0.7072481884034769</speed>
  <fix>3d</fix>
</trkpt>
<trkpt lat="33.8103052" lon="-118.3938755">
  <ele>-0.12</ele>
  <time>2026-09-02T22:07:20Z</time>
  <course>186.97</course>
  <speed>0.7072481884034769</speed>
  <fix>3d</fix>
</trkpt>
<trkpt lat="33.8103052" lon="-118.3938755">
  <ele>-0.12</ele>
  <time>2026-09-02T22:07:20Z</time>
  <course>186.97</course>
  <speed>0.7072481884034769</speed>
  <fix>3d</fix>
</trkpt>
<trkpt lat="33.8103051" lon="-118.3938756">
  <ele>-0.121</ele>
  <time>2026-09-02T22:07:20Z</time>
  <course>186.97</course>
  <speed>0.7072481884034769</speed>
  <fix>3d</fix>
</trkpt>
<trkpt lat="33.8103051" lon="-118.3938756">
  <ele>-0.121</ele>
  <time>2026-09-02T22:07:20Z</time>
  <course>186.97</course>
  <speed>0.7072481884034769</speed>
  <fix>3d</fix>
</trkpt>
<trkpt lat="33.8103051" lon="-118.3938756">
  <ele>-0.121</ele>
  <time>2026-09-02T22:07:20Z</time>
  <course>186.97</course>
  <speed>0.7072481884034769</speed>
  <fix>3d</fix>
</trkpt>
<trkpt lat="33.810305" lon="-118.3938757">
  <ele>-0.122</ele>
  <time>2026-09-02T22:07:20Z</time>
  <course>186.97</course>
  <speed>0.7072481884034769</speed>
  <fix>3d</fix>
</trkpt>
<trkpt lat="33.810305" lon="-118.3938757">
  <ele>-0.122</ele>
  <time>2026-09-02T22:07:20Z</time>
  <course>186.97</course>
  <speed>0.7072481884034769</speed>
  <fix>3d</fix>
</trkpt>
<trkpt lat="33.8103056" lon="-118.3938749">
  <ele>-0.1</ele>
  <time>2026-09-02T22:07:20Z</time>
  <course>223.26</course>
  <speed>0.73</speed>
  <fix>3d</fix>
</trkpt>
<trkpt lat="33.8103049" lon="-118.3938758">
  <ele>-0.123</ele>
  <time>2026-09-02T22:07:20Z</time>
  <course>186.97</course>
  <speed>0.7072481884034769</speed>
  <fix>3d</fix>
</trkpt>
<trkpt lat="33.8103049" lon="-118.3938758">
  <ele>-0.123</ele>
  <time>2026-09-02T22:07:20Z</time>
  <course>186.97</course>
  <speed>0.7144928271158499</speed>
  <fix>3d</fix>
</trkpt>
<trkpt lat="33.8103048" lon="-118.3938759">
  <ele>-0.123</ele>
  <time>2026-09-02T22:07:20Z</time>
  <course>186.97</course>
  <speed>0.7144928271158499</speed>
  <fix>3d</fix>
</trkpt>
<trkpt lat="33.8103048" lon="-118.3938759">
  <ele>-0.124</ele>
  <time>2026-09-02T22:07:20Z</time>
  <course>186.97</course>
  <speed>0.7144928271158499</speed>
  <fix>3d</fix>
</trkpt>
<trkpt lat="33.8103048" lon="-118.393876">
  <ele>-0.124</ele>
  <time>2026-09-02T22:07:20Z</time>
  <course>186.97</course>
  <speed>0.7144928271158499</speed>
  <fix>3d</fix>
</trkpt>
<trkpt lat="33.8103047" lon="-118.393876">
  <ele>-0.124</ele>
  <time>2026-09-02T22:07:20Z</time>
  <course>186.96</course>
  <speed>0.7144928271158499</speed>
  <fix>3d</fix>
</trkpt>
<trkpt lat="33.8103047" lon="-118.3938761">
  <ele>-0.124</ele>
  <time>2026-09-02T22:07:20Z</time>
  <course>186.96</course>
  <speed>0.7144928271158499</speed>
  <fix>3d</fix>
</trkpt>
<trkpt lat="33.8103046" lon="-118.3938761">
  <ele>-0.125</ele>
  <time>2026-09-02T22:07:20Z</time>
  <course>186.96</course>
  <speed>0.7144928271158499</speed>
  <fix>3d</fix>
</trkpt>
<trkpt lat="33.8103045" lon="-118.3938762">
  <ele>-0.125</ele>
  <time>2026-09-02T22:07:20Z</time>
  <course>186.96</course>
  <speed>0.7144928271158499</speed>
  <fix>3d</fix>
</trkpt>
<trkpt lat="33.8103045" lon="-118.3938762">
  <ele>-0.125</ele>
  <time>2026-09-02T22:07:20Z</time>
  <course>186.96</course>
  <speed>0.7144928271158499</speed>
  <fix>3d</fix>
</trkpt>
<trkpt lat="33.8103056" lon="-118.3938749">
  <ele>-0.1</ele>
  <time>2026-09-02T22:07:20Z</time>
  <course>223.26</course>
  <speed>0.73</speed>
  <fix>3d</fix>
</trkpt>
<trkpt lat="33.8103045" lon="-118.3938762">
  <ele>-0.125</ele>
  <time>2026-09-02T22:07:20Z</time>
  <course>186.96</course>
  <speed>0.7144928271158499</speed>
  <fix>3d</fix>
</trkpt>
<trkpt lat="33.8103045" lon="-118.3938763">
  <ele>-0.125</ele>
  <time>2026-09-02T22:07:20Z</time>
  <course>186.96</course>
  <speed>0.7144928271158499</speed>
  <fix>3d</fix>
</trkpt>
<trkpt lat="33.8103044" lon="-118.3938764">
  <ele>-0.125</ele>
  <time>2026-09-02T22:07:20Z</time>
  <course>186.96</course>
  <speed>0.7144928271158499</speed>
  <fix>3d</fix>
</trkpt>
<trkpt lat="33.8103044" lon="-118.3938764">
  <ele>-0.125</ele>
  <time>2026-09-02T22:07:20Z</time>
  <course>186.96</course>
  <speed>0.7144928271158499</speed>
  <fix>3d</fix>
</trkpt>
<trkpt lat="33.8103043" lon="-118.3938765">
  <ele>-0.125</ele>
  <time>2026-09-02T22:07:20Z</time>
  <course>186.96</course>
  <speed>0.7144928271158499</speed>
  <fix>3d</fix>
</trkpt>
<trkpt lat="33.8103043" lon="-118.3938765">
  <ele>-0.125</ele>
  <time>2026-09-02T22:07:20Z</time>
  <course>186.96</course>
  <speed>0.7144928271158499</speed>
  <fix>3d</fix>
</trkpt>
<trkpt lat="33.8103042" lon="-118.3938766">
  <ele>-0.125</ele>
  <time>2026-09-02T22:07:20Z</time>
  <course>186.96</course>
  <speed>0.7144928271158499</speed>
  <fix>3d</fix>
</trkpt>
<trkpt lat="33.8103042" lon="-118.3938766">
  <ele>-0.124</ele>
  <time>2026-09-02T22:07:20Z</time>
  <course>186.96</course>
  <speed>0.7144928271158499</speed>
  <fix>3d</fix>
</trkpt>
<trkpt lat="33.8103041" lon="-118.3938767">
  <ele>-0.124</ele>
  <time>2026-09-02T22:07:20Z</time>
  <course>186.96</course>
  <speed>0.7144928271158499</speed>
  <fix>3d</fix>
</trkpt>
<trkpt lat="33.8103041" lon="-118.3938767">
  <ele>-0.124</ele>
  <time>2026-09-02T22:07:20Z</time>
  <course>186.96</course>
  <speed>0.7144928271158499</speed>
  <fix>3d</fix>
</trkpt>
<trkpt lat="33.810304" lon="-118.3938768">
  <ele>-0.123</ele>
  <time>2026-09-02T22:07:20Z</time>
  <course>186.96</course>
  <speed>0.7144928271158499</speed>
  <fix>3d</fix>
</trkpt>
<trkpt lat="33.810304" lon="-118.3938768">
  <ele>-0.123</ele>
  <time>2026-09-02T22:07:20Z</time>
  <course>186.96</course>
  <speed>0.7144928271158499</speed>
  <fix>3d</fix>
</trkpt>
<trkpt lat="33.8103047" lon="-118.393876">
  <ele>-0.11</ele>
  <time>2026-09-02T22:07:20Z</time>
  <course>223.26</course>
  <speed>0.73</speed>
  <fix>3d</fix>
</trkpt>
<trkpt lat="33.810304" lon="-118.3938769">
  <ele>-0.123</ele>
  <time>2026-09-02T22:07:20Z</time>
  <course>186.96</course>
  <speed>0.7144928271158499</speed>
  <fix>3d</fix>
</trkpt>
<trkpt lat="33.8103039" lon="-118.3938769">
  <ele>-0.122</ele>
  <time>2026-09-02T22:07:20Z</time>
  <course>186.96</course>
  <speed>0.7144928271158499</speed>
  <fix>3d</fix>
</trkpt>
<trkpt lat="33.8103039" lon="-118.3938769">
  <ele>-0.122</ele>
  <time>2026-09-02T22:07:20Z</time>
  <course>186.96</course>
  <speed>0.7144928271158499</speed>
  <fix>3d</fix>
</trkpt>
<trkpt lat="33.8103038" lon="-118.393877">
  <ele>-0.121</ele>
  <time>2026-09-02T22:07:20Z</time>
  <course>186.96</course>
  <speed>0.7144928271158499</speed>
  <fix>3d</fix>
</trkpt>
<trkpt lat="33.8103038" lon="-118.393877">
  <ele>-0.121</ele>
  <time>2026-09-02T22:07:20Z</time>
  <course>186.96</course>
  <speed>0.7144928271158499</speed>
  <fix>3d</fix>
</trkpt>
<trkpt lat="33.8103037" lon="-118.3938771">
  <ele>-0.12</ele>
  <time>2026-09-02T22:07:20Z</time>
  <course>186.96</course>
  <speed>0.7144928271158499</speed>
  <fix>3d</fix>
</trkpt>
<trkpt lat="33.8103037" lon="-118.3938771">
  <ele>-0.12</ele>
  <time>2026-09-02T22:07:20Z</time>
  <course>186.95</course>
  <speed>0.7144928271158499</speed>
  <fix>3d</fix>
</trkpt>
<trkpt lat="33.8103037" lon="-118.3938772">
  <ele>-0.119</ele>
  <time>2026-09-02T22:07:20Z</time>
  <course>186.95</course>
  <speed>0.7144928271158499</speed>
  <fix>3d</fix>
</trkpt>
<trkpt lat="33.8103036" lon="-118.3938772">
  <ele>-0.119</ele>
  <time>2026-09-02T22:07:20Z</time>
  <course>186.95</course>
  <speed>0.7144928271158499</speed>
  <fix>3d</fix>
</trkpt>
<trkpt lat="33.8103036" lon="-118.3938772">
  <ele>-0.118</ele>
  <time>2026-09-02T22:07:20Z</time>
  <course>186.95</course>
  <speed>0.7144928271158499</speed>
  <fix>3d</fix>
</trkpt>
<trkpt lat="33.8103036" lon="-118.3938773">
  <ele>-0.118</ele>
  <time>2026-09-02T22:07:20Z</time>
  <course>186.95</course>
  <speed>0.7144928271158499</speed>
  <fix>3d</fix>
</trkpt>
<trkpt lat="33.8103036" lon="-118.3938773">
  <ele>-0.118</ele>
  <time>2026-09-02T22:07:20Z</time>
  <course>186.95</course>
  <speed>0.7144928271158499</speed>
  <fix>3d</fix>
</trkpt>
<trkpt lat="33.8103047" lon="-118.393876">
  <ele>-0.11</ele>
  <time>2026-09-02T22:07:20Z</time>
  <course>223.26</course>
  <speed>0.73</speed>
  <fix>3d</fix>
</trkpt>
<trkpt lat="33.8103035" lon="-118.3938773">
  <ele>-0.118</ele>
  <time>2026-09-02T22:07:20Z</time>
  <course>186.95</course>
  <speed>0.7144928271158499</speed>
  <fix>3d</fix>
</trkpt>
<trkpt lat="33.8103035" lon="-118.3938774">
  <ele>-0.116</ele>
  <time>2026-09-02T22:07:20Z</time>
  <course>186.95</course>
  <speed>0.7144928271158499</speed>
  <fix>3d</fix>
</trkpt>
<trkpt lat="33.8103034" lon="-118.3938775">
  <ele>-0.116</ele>
  <time>2026-09-02T22:07:20Z</time>
  <course>186.95</course>
  <speed>0.7144928271158499</speed>
  <fix>3d</fix>
</trkpt>
<trkpt lat="33.8103034" lon="-118.3938775">
  <ele>-0.115</ele>
  <time>2026-09-02T22:07:20Z</time>
  <course>186.95</course>
  <speed>0.7144928271158499</speed>
  <fix>3d</fix>
</trkpt>
<trkpt lat="33.8103033" lon="-118.3938775">
  <ele>-0.115</ele>
  <time>2026-09-02T22:07:20Z</time>
  <course>186.95</course>
  <speed>0.7144928271158499</speed>
  <fix>3d</fix>
</trkpt>
<trkpt lat="33.8103033" lon="-118.3938776">
  <ele>-0.114</ele>
  <time>2026-09-02T22:07:20Z</time>
  <course>186.95</course>
  <speed>0.7144928271158499</speed>
  <fix>3d</fix>
</trkpt>
<trkpt lat="33.8103032" lon="-118.3938776">
  <ele>-0.114</ele>
  <time>2026-09-02T22:07:20Z</time>
  <course>186.95</course>
  <speed>0.7144928271158499</speed>
  <fix>3d</fix>
</trkpt>
<trkpt lat="33.8103032" lon="-118.3938777">
  <ele>-0.113</ele>
  <time>2026-09-02T22:07:20Z</time>
  <course>186.95</course>
  <speed>0.7144928271158499</speed>
  <fix>3d</fix>
</trkpt>
<trkpt lat="33.8103032" lon="-118.3938777">
  <ele>-0.113</ele>
  <time>2026-09-02T22:07:20Z</time>
  <course>186.95</course>
  <speed>0.7144928271158499</speed>
  <fix>3d</fix>
</trkpt>
<trkpt lat="33.8103031" lon="-118.3938778">
  <ele>-0.112</ele>
  <time>2026-09-02T22:07:20Z</time>
  <course>186.95</course>
  <speed>0.7144928271158499</speed>
  <fix>3d</fix>
</trkpt>
<trkpt lat="33.8103031" lon="-118.3938778">
  <ele>-0.112</ele>
  <time>2026-09-02T22:07:20Z</time>
  <course>186.95</course>
  <speed>0.7144928271158499</speed>
  <fix>3d</fix>
</trkpt>
<trkpt lat="33.8103031" lon="-118.3938778">
  <ele>-0.112</ele>
  <time>2026-09-02T22:07:20Z</time>
  <course>186.95</course>
  <speed>0.7144928271158499</speed>
  <fix>3d</fix>
</trkpt>
<trkpt lat="33.8103037" lon="-118.3938771">
  <ele>-0.11</ele>
  <time>2026-09-02T22:07:20Z</time>
  <course>223.26</course>
  <speed>0.73</speed>
  <fix>3d</fix>
</trkpt>
<trkpt lat="33.8103031" lon="-118.3938779">
  <ele>-0.112</ele>
  <time>2026-09-02T22:07:20Z</time>
  <course>186.95</course>
  <speed>0.7144928271158499</speed>
  <fix>3d</fix>
</trkpt>
<trkpt lat="33.810303" lon="-118.3938779">
  <ele>-0.111</ele>
  <time>2026-09-02T22:07:20Z</time>
  <course>186.95</course>
  <speed>0.7144928271158499</speed>
  <fix>3d</fix>
</trkpt>
<trkpt lat="33.8103029" lon="-118.393878">
  <ele>-0.11</ele>
  <time>2026-09-02T22:07:20Z</time>
  <course>186.95</course>
  <speed>0.7144928271158499</speed>
  <fix>3d</fix>
</trkpt>
<trkpt lat="33.8103029" lon="-118.393878">
  <ele>-0.11</ele>
  <time>2026-09-02T22:07:20Z</time>
  <course>186.95</course>
  <speed>0.7144928271158499</speed>
  <fix>3d</fix>
</trkpt>
<trkpt lat="33.8103029" lon="-118.3938781">
  <ele>-0.11</ele>
  <time>2026-09-02T22:07:20Z</time>
  <course>186.95</course>
  <speed>0.7144928271158499</speed>
  <fix>3d</fix>
</trkpt>
<trkpt lat="33.8103028" lon="-118.3938781">
  <ele>-0.109</ele>
  <time>2026-09-02T22:07:20Z</time>
  <course>186.95</course>
  <speed>0.7144928271158499</speed>
  <fix>3d</fix>
</trkpt>
<trkpt lat="33.8103028" lon="-118.3938782">
  <ele>-0.108</ele>
  <time>2026-09-02T22:07:20Z</time>
  <course>186.95</course>
  <speed>0.7144928271158499</speed>
  <fix>3d</fix>
</trkpt>
<trkpt lat="33.8103027" lon="-118.3938782">
  <ele>-0.108</ele>
  <time>2026-09-02T22:07:20Z</time>
  <course>186.95</course>
  <speed>0.7144928271158499</speed>
  <fix>3d</fix>
</trkpt>
<trkpt lat="33.8103027" lon="-118.3938783">
  <ele>-0.108</ele>
  <time>2026-09-02T22:07:20Z</time>
  <course>186.95</course>
  <speed>0.7144928271158499</speed>
  <fix>3d</fix>
</trkpt>
<trkpt lat="33.8103027" lon="-118.3938783">
  <ele>-0.107</ele>
  <time>2026-09-02T22:07:20Z</time>
  <course>186.95</course>
  <speed>0.7144928271158499</speed>
  <fix>3d</fix>
</trkpt>
<trkpt lat="33.8103026" lon="-118.3938784">
  <ele>-0.107</ele>
  <time>2026-09-02T22:07:20Z</time>
  <course>186.95</course>
  <speed>0.7144928271158499</speed>
  <fix>3d</fix>
</trkpt>
<trkpt lat="33.8103026" lon="-118.3938784">
  <ele>-0.106</ele>
  <time>2026-09-02T22:07:20Z</time>
  <course>186.95</course>
  <speed>0.7144928271158499</speed>
  <fix>3d</fix>
</trkpt>
<trkpt lat="33.8103037" lon="-118.3938771">
  <ele>-0.11</ele>
  <time>2026-09-02T22:07:20Z</time>
  <course>223.26</course>
  <speed>0.73</speed>
  <fix>3d</fix>
</trkpt>
<trkpt lat="33.8103026" lon="-118.3938784">
  <ele>-0.106</ele>
  <time>2026-09-02T22:07:20Z</time>
  <course>186.95</course>
  <speed>0.7144928271158499</speed>
  <fix>3d</fix>
</trkpt>
<trkpt lat="33.8103025" lon="-118.3938785">
  <ele>-0.106</ele>
  <time>2026-09-02T22:07:20Z</time>
  <course>186.94</course>
  <speed>0.7144928271158499</speed>
  <fix>3d</fix>
</trkpt>
<trkpt lat="33.8103024" lon="-118.3938785">
  <ele>-0.105</ele>
  <time>2026-09-02T22:07:20Z</time>
  <course>186.94</course>
  <speed>0.7144928271158499</speed>
  <fix>3d</fix>
</trkpt>
<trkpt lat="33.8103024" lon="-118.3938786">
  <ele>-0.105</ele>
  <time>2026-09-02T22:07:20Z</time>
  <course>186.94</course>
  <speed>0.7144928271158499</speed>
  <fix>3d</fix>
</trkpt>
<trkpt lat="33.8103024" lon="-118.3938786">
  <ele>-0.105</ele>
  <time>2026-09-02T22:07:20Z</time>
  <course>186.94</course>
  <speed>0.7144928271158499</speed>
  <fix>3d</fix>
</trkpt>
<trkpt lat="33.8103023" lon="-118.3938787">
  <ele>-0.105</ele>
  <time>2026-09-02T22:07:20Z</time>
  <course>186.94</course>
  <speed>0.7144928271158499</speed>
  <fix>3d</fix>
</trkpt>
<trkpt lat="33.8103023" lon="-118.3938787">
  <ele>-0.105</ele>
  <time>2026-09-02T22:07:20Z</time>
  <course>186.94</course>
  <speed>0.7144928271158499</speed>
  <fix>3d</fix>
</trkpt>
<trkpt lat="33.8103022" lon="-118.3938788">
  <ele>-0.105</ele>
  <time>2026-09-02T22:07:20Z</time>
  <course>186.94</course>
  <speed>0.7144928271158499</speed>
  <fix>3d</fix>
</trkpt>
<trkpt lat="33.8103022" lon="-118.3938788">
  <ele>-0.104</ele>
  <time>2026-09-02T22:07:20Z</time>
  <course>186.94</course>
  <speed>0.7144928271158499</speed>
  <fix>3d</fix>
</trkpt>
<trkpt lat="33.8103021" lon="-118.3938789">
  <ele>-0.104</ele>
  <time>2026-09-02T22:07:20Z</time>
  <course>186.94</course>
  <speed>0.7144928271158499</speed>
  <fix>3d</fix>
</trkpt>
<trkpt lat="33.8103021" lon="-118.3938789">
  <ele>-0.104</ele>
  <time>2026-09-02T22:07:20Z</time>
  <course>186.94</course>
  <speed>0.7144928271158499</speed>
  <fix>3d</fix>
</trkpt>
<trkpt lat="33.8103021" lon="-118.3938789">
  <ele>-0.104</ele>
  <time>2026-09-02T22:07:20Z</time>
  <course>186.94</course>
  <speed>0.7144928271158499</speed>
  <fix>3d</fix>
</trkpt>
<trkpt lat="33.8103028" lon="-118.3938782">
  <ele>-0.1</ele>
  <time>2026-09-02T22:07:20Z</time>
  <course>223.26</course>
  <speed>0.73</speed>
  <fix>3d</fix>
</trkpt>
<trkpt lat="33.810302" lon="-118.393879">
  <ele>-0.105</ele>
  <time>2026-09-02T22:07:20Z</time>
  <course>186.94</course>
  <speed>0.7144928271158499</speed>
  <fix>3d</fix>
</trkpt>
<trkpt lat="33.810302" lon="-118.3938791">
  <ele>-0.105</ele>
  <time>2026-09-02T22:07:20Z</time>
  <course>186.94</course>
  <speed>0.7144928271158499</speed>
  <fix>3d</fix>
</trkpt>
<trkpt lat="33.8103019" lon="-118.3938791">
  <ele>-0.105</ele>
  <time>2026-09-02T22:07:20Z</time>
  <course>186.94</course>
  <speed>0.7144928271158499</speed>
  <fix>3d</fix>
</trkpt>
<trkpt lat="33.8103019" lon="-118.3938792">
  <ele>-0.105</ele>
  <time>2026-09-02T22:07:20Z</time>
  <course>186.94</course>
  <speed>0.7144928271158499</speed>
  <fix>3d</fix>
</trkpt>
<trkpt lat="33.8103018" lon="-118.3938792">
  <ele>-0.105</ele>
  <time>2026-09-02T22:07:20Z</time>
  <course>186.94</course>
  <speed>0.7144928271158499</speed>
  <fix>3d</fix>
</trkpt>
<trkpt lat="33.8103018" lon="-118.3938793">
  <ele>-0.105</ele>
  <time>2026-09-02T22:07:20Z</time>
  <course>186.94</course>
  <speed>0.7144928271158499</speed>
  <fix>3d</fix>
</trkpt>
<trkpt lat="33.8103017" lon="-118.3938793">
  <ele>-0.106</ele>
  <time>2026-09-02T22:07:20Z</time>
  <course>186.94</course>
  <speed>0.7144928271158499</speed>
  <fix>3d</fix>
</trkpt>
<trkpt lat="33.8103017" lon="-118.3938794">
  <ele>-0.106</ele>
  <time>2026-09-02T22:07:20Z</time>
  <course>186.94</course>
  <speed>0.7144928271158499</speed>
  <fix>3d</fix>
</trkpt>
<trkpt lat="33.8103017" lon="-118.3938794">
  <ele>-0.106</ele>
  <time>2026-09-02T22:07:20Z</time>
  <course>186.94</course>
  <speed>0.7144928271158499</speed>
  <fix>3d</fix>
</trkpt>
<trkpt lat="33.8103016" lon="-118.3938794">
  <ele>-0.107</ele>
  <time>2026-09-02T22:07:20Z</time>
  <course>186.94</course>
  <speed>0.7144928271158499</speed>
  <fix>3d</fix>
</trkpt>
<trkpt lat="33.8103016" lon="-118.3938795">
  <ele>-0.107</ele>
  <time>2026-09-02T22:07:20Z</time>
  <course>186.94</course>
  <speed>0.7144928271158499</speed>
  <fix>3d</fix>
</trkpt>
<trkpt lat="33.8103028" lon="-118.3938782">
  <ele>-0.1</ele>
  <time>2026-09-02T22:07:20Z</time>
  <course>223.26</course>
  <speed>0.73</speed>
  <fix>3d</fix>
</trkpt>
<trkpt lat="33.8103016" lon="-118.3938795">
  <ele>-0.107</ele>
  <time>2026-09-02T22:07:20Z</time>
  <course>186.94</course>
  <speed>0.7144928271158499</speed>
  <fix>3d</fix>
</trkpt>
<trkpt lat="33.8103015" lon="-118.3938796">
  <ele>-0.108</ele>
  <time>2026-09-02T22:07:20Z</time>
  <course>186.94</course>
  <speed>0.7144928271158499</speed>
  <fix>3d</fix>
</trkpt>
<trkpt lat="33.8103015" lon="-118.3938796">
  <ele>-0.108</ele>
  <time>2026-09-02T22:07:20Z</time>
  <course>186.94</course>
  <speed>0.7144928271158499</speed>
  <fix>3d</fix>
</trkpt>
<trkpt lat="33.8103014" lon="-118.3938797">
  <ele>-0.109</ele>
  <time>2026-09-02T22:07:20Z</time>
  <course>186.94</course>
  <speed>0.7144928271158499</speed>
  <fix>3d</fix>
</trkpt>
<trkpt lat="33.8103014" lon="-118.3938797">
  <ele>-0.109</ele>
  <time>2026-09-02T22:07:20Z</time>
  <course>186.94</course>
  <speed>0.7144928271158499</speed>
  <fix>3d</fix>
</trkpt>
<trkpt lat="33.8103014" lon="-118.3938798">
  <ele>-0.11</ele>
  <time>2026-09-02T22:07:20Z</time>
  <course>186.94</course>
  <speed>0.7144928271158499</speed>
  <fix>3d</fix>
</trkpt>
<trkpt lat="33.8103013" lon="-118.3938798">
  <ele>-0.11</ele>
  <time>2026-09-02T22:07:20Z</time>
  <course>186.93</course>
  <speed>0.7144928271158499</speed>
  <fix>3d</fix>
</trkpt>
<trkpt lat="33.8103013" lon="-118.3938798">
  <ele>-0.11</ele>
  <time>2026-09-02T22:07:20Z</time>
  <course>186.93</course>
  <speed>0.7144928271158499</speed>
  <fix>3d</fix>
</trkpt>
<trkpt lat="33.8103012" lon="-118.3938799">
  <ele>-0.111</ele>
  <time>2026-09-02T22:07:20Z</time>
  <course>186.93</course>
  <speed>0.7144928271158499</speed>
  <fix>3d</fix>
</trkpt>
<trkpt lat="33.8103012" lon="-118.39388">
  <ele>-0.112</ele>
  <time>2026-09-02T22:07:20Z</time>
  <course>186.93</course>
  <speed>0.7144928271158499</speed>
  <fix>3d</fix>
</trkpt>
<trkpt lat="33.8103011" lon="-118.39388">
  <ele>-0.112</ele>
  <time>2026-09-02T22:07:20Z</time>
  <course>186.93</course>
  <speed>0.7144928271158499</speed>
  <fix>3d</fix>
</trkpt>
<trkpt lat="33.8103011" lon="-118.39388">
  <ele>-0.112</ele>
  <time>2026-09-02T22:07:20Z</time>
  <course>186.93</course>
  <speed>0.7144928271158499</speed>
  <fix>3d</fix>
</trkpt>
<trkpt lat="33.8103018" lon="-118.3938793">
  <ele>-0.1</ele>
  <time>2026-09-02T22:07:20Z</time>
  <course>223.26</course>
  <speed>0.73</speed>
  <fix>3d</fix>
</trkpt>
<trkpt lat="33.8103011" lon="-118.39388">
  <ele>-0.113</ele>
  <time>2026-09-02T22:07:20Z</time>
  <course>186.93</course>
  <speed>0.7144928271158499</speed>
  <fix>3d</fix>
</trkpt>
<trkpt lat="33.8103011" lon="-118.3938801">
  <ele>-0.113</ele>
  <time>2026-09-02T22:07:20Z</time>
  <course>186.93</course>
  <speed>0.7144928271158499</speed>
  <fix>3d</fix>
</trkpt>
<trkpt lat="33.810301" lon="-118.3938801">
  <ele>-0.114</ele>
  <time>2026-09-02T22:07:20Z</time>
  <course>186.93</course>
  <speed>0.7144928271158499</speed>
  <fix>3d</fix>
</trkpt>
<trkpt lat="33.810301" lon="-118.3938802">
  <ele>-0.114</ele>
  <time>2026-09-02T22:07:20Z</time>
  <course>186.93</course>
  <speed>0.7144928271158499</speed>
  <fix>3d</fix>
</trkpt>
<trkpt lat="33.810301" lon="-118.3938802">
  <ele>-0.115</ele>
  <time>2026-09-02T22:07:20Z</time>
  <course>186.93</course>
  <speed>0.7144928271158499</speed>
  <fix>3d</fix>
</trkpt>
<trkpt lat="33.8103009" lon="-118.3938803">
  <ele>-0.115</ele>
  <time>2026-09-02T22:07:20Z</time>
  <course>186.93</course>
  <speed>0.7144928271158499</speed>
  <fix>3d</fix>
</trkpt>
<trkpt lat="33.8103009" lon="-118.3938803">
  <ele>-0.116</ele>
  <time>2026-09-02T22:07:20Z</time>
  <course>186.93</course>
  <speed>0.7144928271158499</speed>
  <fix>3d</fix>
</trkpt>
<trkpt lat="33.8103008" lon="-118.3938803">
  <ele>-0.116</ele>
  <time>2026-09-02T22:07:20Z</time>
  <course>186.93</course>
  <speed>0.7144928271158499</speed>
  <fix>3d</fix>
</trkpt>
<trkpt lat="33.8103008" lon="-118.3938804">
  <ele>-0.117</ele>
  <time>2026-09-02T22:07:20Z</time>
  <course>186.93</course>
  <speed>0.7144928271158499</speed>
  <fix>3d</fix>
</trkpt>
<trkpt lat="33.8103008" lon="-118.3938804">
  <ele>-0.117</ele>
  <time>2026-09-02T22:07:20Z</time>
  <course>186.93</course>
  <speed>0.7144928271158499</speed>
  <fix>3d</fix>
</trkpt>
<trkpt lat="33.8103007" lon="-118.3938805">
  <ele>-0.117</ele>
  <time>2026-09-02T22:07:20Z</time>
  <course>186.93</course>
  <speed>0.7144928271158499</speed>
  <fix>3d</fix>
</trkpt>
<trkpt lat="33.8103007" lon="-118.3938805">
  <ele>-0.118</ele>
  <time>2026-09-02T22:07:20Z</time>
  <course>186.93</course>
  <speed>0.7144928271158499</speed>
  <fix>3d</fix>
</trkpt>
<trkpt lat="33.8103007" lon="-118.3938806">
  <ele>-0.118</ele>
  <time>2026-09-02T22:07:20Z</time>
  <course>186.93</course>
  <speed>0.7144928271158499</speed>
  <fix>3d</fix>
</trkpt>
<trkpt lat="33.8103018" lon="-118.3938793">
  <ele>-0.1</ele>
  <time>2026-09-02T22:07:20Z</time>
  <course>223.26</course>
  <speed>0.73</speed>
  <fix>3d</fix>
</trkpt>
<trkpt lat="33.8103006" lon="-118.3938806">
  <ele>-0.118</ele>
  <time>2026-09-02T22:07:20Z</time>
  <course>186.93</course>
  <speed>0.7144928271158499</speed>
  <fix>3d</fix>
</trkpt>
<trkpt lat="33.8103006" lon="-118.3938806">
  <ele>-0.119</ele>
  <time>2026-09-02T22:07:20Z</time>
  <course>186.93</course>
  <speed>0.7144928271158499</speed>
  <fix>3d</fix>
</trkpt>
<trkpt lat="33.8103005" lon="-118.3938807">
  <ele>-0.119</ele>
  <time>2026-09-02T22:07:20Z</time>
  <course>186.93</course>
  <speed>0.7144928271158499</speed>
  <fix>3d</fix>
</trkpt>
<trkpt lat="33.8103005" lon="-118.3938807">
  <ele>-0.12</ele>
  <time>2026-09-02T22:07:20Z</time>
  <course>186.93</course>
  <speed>0.7144928271158499</speed>
  <fix>3d</fix>
</trkpt>
<trkpt lat="33.8103005" lon="-118.3938808">
  <ele>-0.12</ele>
  <time>2026-09-02T22:07:20Z</time>
  <course>186.93</course>
  <speed>0.7144928271158499</speed>
  <fix>3d</fix>
</trkpt>
<trkpt lat="33.8103004" lon="-118.3938808">
  <ele>-0.12</ele>
  <time>2026-09-02T22:07:20Z</time>
  <course>186.93</course>
  <speed>0.7144928271158499</speed>
  <fix>3d</fix>
</trkpt>
<trkpt lat="33.8103004" lon="-118.3938809">
  <ele>-0.121</ele>
  <time>2026-09-02T22:07:20Z</time>
  <course>186.93</course>
  <speed>0.7144928271158499</speed>
  <fix>3d</fix>
</trkpt>
<trkpt lat="33.8103004" lon="-118.3938809">
  <ele>-0.121</ele>
  <time>2026-09-02T22:07:20Z</time>
  <course>186.93</course>
  <speed>0.7144928271158499</speed>
  <fix>3d</fix>
</trkpt>
<trkpt lat="33.8103003" lon="-118.3938809">
  <ele>-0.121</ele>
  <time>2026-09-02T22:07:20Z</time>
  <course>186.93</course>
  <speed>0.7144928271158499</speed>
  <fix>3d</fix>
</trkpt>
<trkpt lat="33.8103003" lon="-118.393881">
  <ele>-0.122</ele>
  <time>2026-09-02T22:07:20Z</time>
  <course>186.93</course>
  <speed>0.7144928271158499</speed>
  <fix>3d</fix>
</trkpt>
<trkpt lat="33.8103002" lon="-118.393881">
  <ele>-0.122</ele>
  <time>2026-09-02T22:07:20Z</time>
  <course>186.93</course>
  <speed>0.7144928271158499</speed>
  <fix>3d</fix>
</trkpt>
<trkpt lat="33.8103002" lon="-118.3938811">
  <ele>-0.122</ele>
  <time>2026-09-02T22:07:20Z</time>
  <course>186.92</course>
  <speed>0.7144928271158499</speed>
  <fix>3d</fix>
</trkpt>
<trkpt lat="33.8103002" lon="-118.3938811">
  <ele>-0.122</ele>
  <time>2026-09-02T22:07:20Z</time>
  <course>186.92</course>
  <speed>0.7144928271158499</speed>
  <fix>3d</fix>
</trkpt>
<trkpt lat="33.8103008" lon="-118.3938803">
  <ele>-0.1</ele>
  <time>2026-09-02T22:07:20Z</time>
  <course>223.26</course>
  <speed>0.73</speed>
  <fix>3d</fix>
</trkpt>
<trkpt lat="33.8103002" lon="-118.3938811">
  <ele>-0.123</ele>
  <time>2026-09-02T22:07:20Z</time>
  <course>186.92</course>
  <speed>0.7144928271158499</speed>
  <fix>3d</fix>
</trkpt>
<trkpt lat="33.8103001" lon="-118.3938812">
  <ele>-0.123</ele>
  <time>2026-09-02T22:07:20Z</time>
  <course>186.92</course>
  <speed>0.7144928271158499</speed>
  <fix>3d</fix>
</trkpt>
<trkpt lat="33.8103" lon="-118.3938812">
  <ele>-0.123</ele>
  <time>2026-09-02T22:07:20Z</time>
  <course>186.92</course>
  <speed>0.7144928271158499</speed>
  <fix>3d</fix>
</trkpt>
<trkpt lat="33.8103" lon="-118.3938813">
  <ele>-0.123</ele>
  <time>2026-09-02T22:07:20Z</time>
  <course>186.92</course>
  <speed>0.7144928271158499</speed>
  <fix>3d</fix>
</trkpt>
<trkpt lat="33.8103" lon="-118.3938813">
  <ele>-0.123</ele>
  <time>2026-09-02T22:07:20Z</time>
  <course>186.92</course>
  <speed>0.7144928271158499</speed>
  <fix>3d</fix>
</trkpt>
<trkpt lat="33.8102999" lon="-118.3938814">
  <ele>-0.124</ele>
  <time>2026-09-02T22:07:20Z</time>
  <course>186.92</course>
  <speed>0.7144928271158499</speed>
  <fix>3d</fix>
</trkpt>
<trkpt lat="33.8102999" lon="-118.3938814">
  <ele>-0.124</ele>
  <time>2026-09-02T22:07:20Z</time>
  <course>186.92</course>
  <speed>0.7144928271158499</speed>
  <fix>3d</fix>
</trkpt>
<trkpt lat="33.8102999" lon="-118.3938815">
  <ele>-0.124</ele>
  <time>2026-09-02T22:07:20Z</time>
  <course>186.92</course>
  <speed>0.7144928271158499</speed>
  <fix>3d</fix>
</trkpt>
<trkpt lat="33.8102998" lon="-118.3938815">
  <ele>-0.124</ele>
  <time>2026-09-02T22:07:20Z</time>
  <course>186.92</course>
  <speed>0.7144928271158499</speed>
  <fix>3d</fix>
</trkpt>
<trkpt lat="33.8102998" lon="-118.3938815">
  <ele>-0.124</ele>
  <time>2026-09-02T22:07:20Z</time>
  <course>186.92</course>
  <speed>0.7144928271158499</speed>
  <fix>3d</fix>
</trkpt>
<trkpt lat="33.8102997" lon="-118.3938816">
  <ele>-0.124</ele>
  <time>2026-09-02T22:07:20Z</time>
  <course>186.92</course>
  <speed>0.7144928271158499</speed>
  <fix>3d</fix>
</trkpt>
<trkpt lat="33.8102997" lon="-118.3938816">
  <ele>-0.124</ele>
  <time>2026-09-02T22:07:20Z</time>
  <course>186.92</course>
  <speed>0.7144928271158499</speed>
  <fix>3d</fix>
</trkpt>
<trkpt lat="33.8102997" lon="-118.3938817">
  <ele>-0.124</ele>
  <time>2026-09-02T22:07:20Z</time>
  <course>186.92</course>
  <speed>0.7144928271158499</speed>
  <fix>3d</fix>
</trkpt>
<trkpt lat="33.8103008" lon="-118.3938803">
  <ele>-0.1</ele>
  <time>2026-09-02T22:07:20Z</time>
  <course>223.26</course>
  <speed>0.73</speed>
  <fix>3d</fix>
</trkpt>
<trkpt lat="33.8102997" lon="-118.3938817">
  <ele>-0.124</ele>
  <time>2026-09-02T22:07:20Z</time>
  <course>186.92</course>
  <speed>0.7144928271158499</speed>
  <fix>3d</fix>
</trkpt>
<trkpt lat="33.8102996" lon="-118.3938818">
  <ele>-0.124</ele>
  <time>2026-09-02T22:07:20Z</time>
  <course>186.92</course>
  <speed>0.7144928271158499</speed>
  <fix>3d</fix>
</trkpt>
<trkpt lat="33.8102996" lon="-118.3938818">
  <ele>-0.124</ele>
  <time>2026-09-02T22:07:20Z</time>
  <course>186.92</course>
  <speed>0.7144928271158499</speed>
  <fix>3d</fix>
</trkpt>
<trkpt lat="33.8102995" lon="-118.3938818">
  <ele>-0.124</ele>
  <time>2026-09-02T22:07:20Z</time>
  <course>186.92</course>
  <speed>0.7144928271158499</speed>
  <fix>3d</fix>
</trkpt>
<trkpt lat="33.8102995" lon="-118.3938819">
  <ele>-0.124</ele>
  <time>2026-09-02T22:07:20Z</time>
  <course>186.92</course>
  <speed>0.7144928271158499</speed>
  <fix>3d</fix>
</trkpt>
<trkpt lat="33.8102994" lon="-118.3938819">
  <ele>-0.124</ele>
  <time>2026-09-02T22:07:20Z</time>
  <course>186.92</course>
  <speed>0.7144928271158499</speed>
  <fix>3d</fix>
</trkpt>
<trkpt lat="33.8102994" lon="-118.393882">
  <ele>-0.124</ele>
  <time>2026-09-02T22:07:20Z</time>
  <course>186.92</course>
  <speed>0.7144928271158499</speed>
  <fix>3d</fix>
</trkpt>
<trkpt lat="33.8102994" lon="-118.393882">
  <ele>-0.124</ele>
  <time>2026-09-02T22:07:20Z</time>
  <course>186.92</course>
  <speed>0.7144928271158499</speed>
  <fix>3d</fix>
</trkpt>
<trkpt lat="33.8102993" lon="-118.3938821">
  <ele>-0.124</ele>
  <time>2026-09-02T22:07:20Z</time>
  <course>186.92</course>
  <speed>0.7144928271158499</speed>
  <fix>3d</fix>
</trkpt>
<trkpt lat="33.8102993" lon="-118.3938821">
  <ele>-0.124</ele>
  <time>2026-09-02T22:07:20Z</time>
  <course>186.92</course>
  <speed>0.7144928271158499</speed>
  <fix>3d</fix>
</trkpt>
<trkpt lat="33.8102992" lon="-118.3938821">
  <ele>-0.124</ele>
  <time>2026-09-02T22:07:20Z</time>
  <course>186.92</course>
  <speed>0.7144928271158499</speed>
  <fix>3d</fix>
</trkpt>
<trkpt lat="33.8102992" lon="-118.3938822">
  <ele>-0.124</ele>
  <time>2026-09-02T22:07:20Z</time>
  <course>186.92</course>
  <speed>0.7144928271158499</speed>
  <fix>3d</fix>
</trkpt>
<trkpt lat="33.8102992" lon="-118.3938822">
  <ele>-0.124</ele>
  <time>2026-09-02T22:07:20Z</time>
  <course>186.92</course>
  <speed>0.7144928271158499</speed>
  <fix>3d</fix>
</trkpt>
<trkpt lat="33.8102998" lon="-118.3938814">
  <ele>-0.11</ele>
  <time>2026-09-02T22:07:20Z</time>
  <course>223.26</course>
  <speed>0.73</speed>
  <fix>3d</fix>
</trkpt>
<trkpt lat="33.8102991" lon="-118.3938823">
  <ele>-0.123</ele>
  <time>2026-09-02T22:07:20Z</time>
  <course>186.92</course>
  <speed>0.7144928271158499</speed>
  <fix>3d</fix>
</trkpt>
<trkpt lat="33.8102991" lon="-118.3938823">
  <ele>-0.123</ele>
  <time>2026-09-02T22:07:20Z</time>
  <course>186.92</course>
  <speed>0.7144928271158499</speed>
  <fix>3d</fix>
</trkpt>
<trkpt lat="33.8102991" lon="-118.3938824">
  <ele>-0.123</ele>
  <time>2026-09-02T22:07:20Z</time>
  <course>186.92</course>
  <speed>0.7144928271158499</speed>
  <fix>3d</fix>
</trkpt>
<trkpt lat="33.810299" lon="-118.3938824">
  <ele>-0.123</ele>
  <time>2026-09-02T22:07:20Z</time>
  <course>186.92</course>
  <speed>0.7144928271158499</speed>
  <fix>3d</fix>
</trkpt>
<trkpt lat="33.810299" lon="-118.3938825">
  <ele>-0.122</ele>
  <time>2026-09-02T22:07:20Z</time>
  <course>186.92</course>
  <speed>0.7144928271158499</speed>
  <fix>3d</fix>
</trkpt>
<trkpt lat="33.8102989" lon="-118.3938825">
  <ele>-0.122</ele>
  <time>2026-09-02T22:07:20Z</time>
  <course>186.91</course>
  <speed>0.7144928271158499</speed>
  <fix>3d</fix>
</trkpt>
<trkpt lat="33.8102989" lon="-118.3938825">
  <ele>-0.122</ele>
  <time>2026-09-02T22:07:20Z</time>
  <course>186.91</course>
  <speed>0.7144928271158499</speed>
  <fix>3d</fix>
</trkpt>
<trkpt lat="33.8102989" lon="-118.3938826">
  <ele>-0.121</ele>
  <time>2026-09-02T22:07:20Z</time>
  <course>186.91</course>
  <speed>0.7144928271158499</speed>
  <fix>3d</fix>
</trkpt>
<trkpt lat="33.8102988" lon="-118.3938826">
  <ele>-0.121</ele>
  <time>2026-09-02T22:07:20Z</time>
  <course>186.91</course>
  <speed>0.7144928271158499</speed>
  <fix>3d</fix>
</trkpt>
<trkpt lat="33.8102988" lon="-118.3938827">
  <ele>-0.12</ele>
  <time>2026-09-02T22:07:20Z</time>
  <course>186.91</course>
  <speed>0.7144928271158499</speed>
  <fix>3d</fix>
</trkpt>
<trkpt lat="33.8102988" lon="-118.3938827">
  <ele>-0.12</ele>
  <time>2026-09-02T22:07:20Z</time>
  <course>186.91</course>
  <speed>0.7144928271158499</speed>
  <fix>3d</fix>
</trkpt>
<trkpt lat="33.8102987" lon="-118.3938827">
  <ele>-0.12</ele>
  <time>2026-09-02T22:07:20Z</time>
  <course>186.91</course>
  <speed>0.7144928271158499</speed>
  <fix>3d</fix>
</trkpt>
<trkpt lat="33.8102987" lon="-118.3938827">
  <ele>-0.12</ele>
  <time>2026-09-02T22:07:20Z</time>
  <course>186.91</course>
  <speed>0.7144928271158499</speed>
  <fix>3d</fix>
</trkpt>
<trkpt lat="33.8102998" lon="-118.3938814">
  <ele>-0.11</ele>
  <time>2026-09-02T22:07:20Z</time>
  <course>223.26</course>
  <speed>0.73</speed>
  <fix>3d</fix>
</trkpt>
<trkpt lat="33.8102987" lon="-118.3938828">
  <ele>-0.119</ele>
  <time>2026-09-02T22:07:20Z</time>
  <course>186.91</course>
  <speed>0.7144928271158499</speed>
  <fix>3d</fix>
</trkpt>
<trkpt lat="33.8102986" lon="-118.3938829">
  <ele>-0.118</ele>
  <time>2026-09-02T22:07:20Z</time>
  <course>186.91</course>
  <speed>0.7144928271158499</speed>
  <fix>3d</fix>
</trkpt>
<trkpt lat="33.8102986" lon="-118.3938829">
  <ele>-0.118</ele>
  <time>2026-09-02T22:07:20Z</time>
  <course>186.91</course>
  <speed>0.7286288492778747</speed>
  <fix>3d</fix>
</trkpt>
<trkpt lat="33.8102985" lon="-118.393883">
  <ele>-0.117</ele>
  <time>2026-09-02T22:07:20Z</time>
  <course>186.91</course>
  <speed>0.7213875518748573</speed>
  <fix>3d</fix>
</trkpt>
<trkpt lat="33.8102985" lon="-118.393883">
  <ele>-0.117</ele>
  <time>2026-09-02T22:07:20Z</time>
  <course>186.91</course>
  <speed>0.7213875518748573</speed>
  <fix>3d</fix>
</trkpt>
<trkpt lat="33.8102984" lon="-118.393883">
  <ele>-0.116</ele>
  <time>2026-09-02T22:07:20Z</time>
  <course>186.91</course>
  <speed>0.7286288492778747</speed>
  <fix>3d</fix>
</trkpt>
<trkpt lat="33.8102984" lon="-118.3938831">
  <ele>-0.116</ele>
  <time>2026-09-02T22:07:20Z</time>
  <course>186.91</course>
  <speed>0.7286288492778747</speed>
  <fix>3d</fix>
</trkpt>
<trkpt lat="33.8102984" lon="-118.3938831">
  <ele>-0.115</ele>
  <time>2026-09-02T22:07:20Z</time>
  <course>186.91</course>
  <speed>0.7286288492778747</speed>
  <fix>3d</fix>
</trkpt>
<trkpt lat="33.8102983" lon="-118.3938832">
  <ele>-0.115</ele>
  <time>2026-09-02T22:07:20Z</time>
  <course>186.91</course>
  <speed>0.7286288492778747</speed>
  <fix>3d</fix>
</trkpt>
<trkpt lat="33.8102983" lon="-118.3938832">
  <ele>-0.115</ele>
  <time>2026-09-02T22:07:20Z</time>
  <course>186.91</course>
  <speed>0.7286288492778747</speed>
  <fix>3d</fix>
</trkpt>
<trkpt lat="33.8102983" lon="-118.3938832">
  <ele>-0.114</ele>
  <time>2026-09-02T22:07:20Z</time>
  <course>186.91</course>
  <speed>0.7286288492778747</speed>
  <fix>3d</fix>
</trkpt>
<trkpt lat="33.8102982" lon="-118.3938833">
  <ele>-0.114</ele>
  <time>2026-09-02T22:07:20Z</time>
  <course>186.91</course>
  <speed>0.7286288492778747</speed>
  <fix>3d</fix>
</trkpt>
<trkpt lat="33.8102989" lon="-118.3938825">
  <ele>-0.11</ele>
  <time>2026-09-02T22:07:20Z</time>
  <course>223.26</course>
  <speed>0.73</speed>
  <fix>3d</fix>
</trkpt>
<trkpt lat="33.8102982" lon="-118.3938833">
  <ele>-0.114</ele>
  <time>2026-09-02T22:07:20Z</time>
  <course>186.91</course>
  <speed>0.7286288492778747</speed>
  <fix>3d</fix>
</trkpt>
<trkpt lat="33.8102982" lon="-118.3938833">
  <ele>-0.113</ele>
  <time>2026-09-02T22:07:20Z</time>
  <course>186.91</course>
  <speed>0.7286288492778747</speed>
  <fix>3d</fix>
</trkpt>
<trkpt lat="33.8102981" lon="-118.3938834">
  <ele>-0.113</ele>
  <time>2026-09-02T22:07:20Z</time>
  <course>186.91</course>
  <speed>0.7286288492778747</speed>
  <fix>3d</fix>
</trkpt>
<trkpt lat="33.8102981" lon="-118.3938834">
  <ele>-0.112</ele>
  <time>2026-09-02T22:07:20Z</time>
  <course>186.91</course>
  <speed>0.7286288492778747</speed>
  <fix>3d</fix>
</trkpt>
<trkpt lat="33.810298" lon="-118.3938835">
  <ele>-0.112</ele>
  <time>2026-09-02T22:07:20Z</time>
  <course>186.91</course>
  <speed>0.7286288492778747</speed>
  <fix>3d</fix>
</trkpt>
<trkpt lat="33.810298" lon="-118.3938835">
  <ele>-0.111</ele>
  <time>2026-09-02T22:07:20Z</time>
  <course>186.91</course>
  <speed>0.7286288492778747</speed>
  <fix>3d</fix>
</trkpt>
<trkpt lat="33.810298" lon="-118.3938836">
  <ele>-0.11</ele>
  <time>2026-09-02T22:07:20Z</time>
  <course>186.91</course>
  <speed>0.7286288492778747</speed>
  <fix>3d</fix>
</trkpt>
<trkpt lat="33.8102979" lon="-118.3938836">
  <ele>-0.11</ele>
  <time>2026-09-02T22:07:20Z</time>
  <course>186.91</course>
  <speed>0.7286288492778747</speed>
  <fix>3d</fix>
</trkpt>
<trkpt lat="33.8102979" lon="-118.3938837">
  <ele>-0.11</ele>
  <time>2026-09-02T22:07:20Z</time>
  <course>186.91</course>
  <speed>0.7286288492778747</speed>
  <fix>3d</fix>
</trkpt>
<trkpt lat="33.8102979" lon="-118.3938837">
  <ele>-0.109</ele>
  <time>2026-09-02T22:07:20Z</time>
  <course>186.91</course>
  <speed>0.7286288492778747</speed>
  <fix>3d</fix>
</trkpt>
<trkpt lat="33.8102978" lon="-118.3938837">
  <ele>-0.109</ele>
  <time>2026-09-02T22:07:20Z</time>
  <course>186.9</course>
  <speed>0.7286288492778747</speed>
  <fix>3d</fix>
</trkpt>
<trkpt lat="33.8102978" lon="-118.3938838">
  <ele>-0.108</ele>
  <time>2026-09-02T22:07:20Z</time>
  <course>186.9</course>
  <speed>0.7286288492778747</speed>
  <fix>3d</fix>
</trkpt>
<trkpt lat="33.8102978" lon="-118.3938838">
  <ele>-0.108</ele>
  <time>2026-09-02T22:07:20Z</time>
  <course>186.9</course>
  <speed>0.7286288492778747</speed>
  <fix>3d</fix>
</trkpt>
<trkpt lat="33.8102978" lon="-118.3938838">
  <ele>-0.108</ele>
  <time>2026-09-02T22:07:20Z</time>
  <course>186.9</course>
  <speed>0.7286288492778747</speed>
  <fix>3d</fix>
</trkpt>
<trkpt lat="33.8102989" lon="-118.3938825">
  <ele>-0.11</ele>
  <time>2026-09-02T22:07:20Z</time>
  <course>223.26</course>
  <speed>0.73</speed>
  <fix>3d</fix>
</trkpt>
<trkpt lat="33.8102977" lon="-118.3938839">
  <ele>-0.107</ele>
  <time>2026-09-02T22:07:20Z</time>
  <course>186.9</course>
  <speed>0.7286288492778747</speed>
  <fix>3d</fix>
</trkpt>
<trkpt lat="33.8102976" lon="-118.3938839">
  <ele>-0.107</ele>
  <time>2026-09-02T22:07:20Z</time>
  <course>186.9</course>
  <speed>0.7286288492778747</speed>
  <fix>3d</fix>
</trkpt>
<trkpt lat="33.8102976" lon="-118.393884">
  <ele>-0.106</ele>
  <time>2026-09-02T22:07:20Z</time>
  <course>186.9</course>
  <speed>0.7286288492778747</speed>
  <fix>3d</fix>
</trkpt>
<trkpt lat="33.8102976" lon="-118.393884">
  <ele>-0.106</ele>
  <time>2026-09-02T22:07:20Z</time>
  <course>186.9</course>
  <speed>0.7286288492778747</speed>
  <fix>3d</fix>
</trkpt>
<trkpt lat="33.8102975" lon="-118.3938841">
  <ele>-0.106</ele>
  <time>2026-09-02T22:07:20Z</time>
  <course>186.9</course>
  <speed>0.7286288492778747</speed>
  <fix>3d</fix>
</trkpt>
<trkpt lat="33.8102975" lon="-118.3938841">
  <ele>-0.105</ele>
  <time>2026-09-02T22:07:20Z</time>
  <course>186.9</course>
  <speed>0.7286288492778747</speed>
  <fix>3d</fix>
</trkpt>
<trkpt lat="33.8102974" lon="-118.3938842">
  <ele>-0.105</ele>
  <time>2026-09-02T22:07:20Z</time>
  <course>186.9</course>
  <speed>0.7286288492778747</speed>
  <fix>3d</fix>
</trkpt>
<trkpt lat="33.8102974" lon="-118.3938842">
  <ele>-0.105</ele>
  <time>2026-09-02T22:07:20Z</time>
  <course>186.9</course>
  <speed>0.7286288492778747</speed>
  <fix>3d</fix>
</trkpt>
<trkpt lat="33.8102974" lon="-118.3938843">
  <ele>-0.105</ele>
  <time>2026-09-02T22:07:20Z</time>
  <course>186.9</course>
  <speed>0.7286288492778747</speed>
  <fix>3d</fix>
</trkpt>
<trkpt lat="33.8102973" lon="-118.3938843">
  <ele>-0.105</ele>
  <time>2026-09-02T22:07:20Z</time>
  <course>186.9</course>
  <speed>0.7286288492778747</speed>
  <fix>3d</fix>
</trkpt>
<trkpt lat="33.8102973" lon="-118.3938843">
  <ele>-0.104</ele>
  <time>2026-09-02T22:07:20Z</time>
  <course>186.9</course>
  <speed>0.7286288492778747</speed>
  <fix>3d</fix>
</trkpt>
<trkpt lat="33.8102973" lon="-118.3938844">
  <ele>-0.104</ele>
  <time>2026-09-02T22:07:20Z</time>
  <course>186.9</course>
  <speed>0.7286288492778747</speed>
  <fix>3d</fix>
</trkpt>
<trkpt lat="33.8102979" lon="-118.3938836">
  <ele>-0.1</ele>
  <time>2026-09-02T22:07:20Z</time>
  <course>223.26</course>
  <speed>0.73</speed>
  <fix>3d</fix>
</trkpt>
<trkpt lat="33.8102973" lon="-118.3938844">
  <ele>-0.104</ele>
  <time>2026-09-02T22:07:20Z</time>
  <course>186.9</course>
  <speed>0.7286288492778747</speed>
  <fix>3d</fix>
</trkpt>
<trkpt lat="33.8102972" lon="-118.3938844">
  <ele>-0.104</ele>
  <time>2026-09-02T22:07:20Z</time>
  <course>186.9</course>
  <speed>0.7286288492778747</speed>
  <fix>3d</fix>
</trkpt>
<trkpt lat="33.8102971" lon="-118.3938845">
  <ele>-0.104</ele>
  <time>2026-09-02T22:07:20Z</time>
  <course>186.9</course>
  <speed>0.7286288492778747</speed>
  <fix>3d</fix>
</trkpt>
<trkpt lat="33.8102971" lon="-118.3938845">
  <ele>-0.104</ele>
  <time>2026-09-02T22:07:20Z</time>
  <course>186.9</course>
  <speed>0.7286288492778747</speed>
  <fix>3d</fix>
</trkpt>
<trkpt lat="33.8102971" lon="-118.3938846">
  <ele>-0.104</ele>
  <time>2026-09-02T22:07:20Z</time>
  <course>186.9</course>
  <speed>0.7286288492778747</speed>
  <fix>3d</fix>
</trkpt>
<trkpt lat="33.810297" lon="-118.3938846">
  <ele>-0.104</ele>
  <time>2026-09-02T22:07:20Z</time>
  <course>186.9</course>
  <speed>0.7286288492778747</speed>
  <fix>3d</fix>
</trkpt>
<trkpt lat="33.810297" lon="-118.3938847">
  <ele>-0.104</ele>
  <time>2026-09-02T22:07:20Z</time>
  <course>186.9</course>
  <speed>0.7286288492778747</speed>
  <fix>3d</fix>
</trkpt>
<trkpt lat="33.8102969" lon="-118.3938847">
  <ele>-0.104</ele>
  <time>2026-09-02T22:07:20Z</time>
  <course>186.9</course>
  <speed>0.7286288492778747</speed>
  <fix>3d</fix>
</trkpt>
<trkpt lat="33.8102969" lon="-118.3938848">
  <ele>-0.104</ele>
  <time>2026-09-02T22:07:20Z</time>
  <course>186.9</course>
  <speed>0.7286288492778747</speed>
  <fix>3d</fix>
</trkpt>
<trkpt lat="33.8102969" lon="-118.3938848">
  <ele>-0.104</ele>
  <time>2026-09-02T22:07:20Z</time>
  <course>186.9</course>
  <speed>0.7286288492778747</speed>
  <fix>3d</fix>
</trkpt>
<trkpt lat="33.8102968" lon="-118.3938848">
  <ele>-0.104</ele>
  <time>2026-09-02T22:07:20Z</time>
  <course>186.9</course>
  <speed>0.7286288492778747</speed>
  <fix>3d</fix>
</trkpt>
<trkpt lat="33.8102968" lon="-118.3938849">
  <ele>-0.105</ele>
  <time>2026-09-02T22:07:20Z</time>
  <course>186.9</course>
  <speed>0.7286288492778747</speed>
  <fix>3d</fix>
</trkpt>
<trkpt lat="33.8102968" lon="-118.3938849">
  <ele>-0.105</ele>
  <time>2026-09-02T22:07:20Z</time>
  <course>186.9</course>
  <speed>0.7286288492778747</speed>
  <fix>3d</fix>
</trkpt>
<trkpt lat="33.8102979" lon="-118.3938836">
  <ele>-0.1</ele>
  <time>2026-09-02T22:07:20Z</time>
  <course>223.26</course>
  <speed>0.73</speed>
  <fix>3d</fix>
</trkpt>
<trkpt lat="33.8102968" lon="-118.3938849">
  <ele>-0.105</ele>
  <time>2026-09-02T22:07:20Z</time>
  <course>186.9</course>
  <speed>0.7286288492778747</speed>
  <fix>3d</fix>
</trkpt>
<trkpt lat="33.8102967" lon="-118.393885">
  <ele>-0.105</ele>
  <time>2026-09-02T22:07:20Z</time>
  <course>186.9</course>
  <speed>0.7286288492778747</speed>
  <fix>3d</fix>
</trkpt>
<trkpt lat="33.8102967" lon="-118.393885">
  <ele>-0.105</ele>
  <time>2026-09-02T22:07:20Z</time>
  <course>186.9</course>
  <speed>0.7286288492778747</speed>
  <fix>3d</fix>
</trkpt>
<trkpt lat="33.8102966" lon="-118.3938851">
  <ele>-0.106</ele>
  <time>2026-09-02T22:07:20Z</time>
  <course>186.9</course>
  <speed>0.7286288492778747</speed>
  <fix>3d</fix>
</trkpt>
<trkpt lat="33.8102966" lon="-118.3938851">
  <ele>-0.106</ele>
  <time>2026-09-02T22:07:20Z</time>
  <course>186.9</course>
  <speed>0.7286288492778747</speed>
  <fix>3d</fix>
</trkpt>
<trkpt lat="33.8102966" lon="-118.3938852">
  <ele>-0.106</ele>
  <time>2026-09-02T22:07:20Z</time>
  <course>186.89</course>
  <speed>0.7286288492778747</speed>
  <fix>3d</fix>
</trkpt>
<trkpt lat="33.8102965" lon="-118.3938852">
  <ele>-0.106</ele>
  <time>2026-09-02T22:07:20Z</time>
  <course>186.89</course>
  <speed>0.7286288492778747</speed>
  <fix>3d</fix>
</trkpt>
<trkpt lat="33.8102965" lon="-118.3938852">
  <ele>-0.106</ele>
  <time>2026-09-02T22:07:20Z</time>
  <course>186.89</course>
  <speed>0.7286288492778747</speed>
  <fix>3d</fix>
</trkpt>
<trkpt lat="33.8102964" lon="-118.3938853">
  <ele>-0.107</ele>
  <time>2026-09-02T22:07:20Z</time>
  <course>186.89</course>
  <speed>0.7286288492778747</speed>
  <fix>3d</fix>
</trkpt>
<trkpt lat="33.8102964" lon="-118.3938853">
  <ele>-0.107</ele>
  <time>2026-09-02T22:07:20Z</time>
  <course>186.89</course>
  <speed>0.7286288492778747</speed>
  <fix>3d</fix>
</trkpt>
<trkpt lat="33.8102964" lon="-118.3938854">
  <ele>-0.107</ele>
  <time>2026-09-02T22:07:20Z</time>
  <course>186.89</course>
  <speed>0.7286288492778747</speed>
  <fix>3d</fix>
</trkpt>
<trkpt lat="33.8102963" lon="-118.3938854">
  <ele>-0.107</ele>
  <time>2026-09-02T22:07:20Z</time>
  <course>186.89</course>
  <speed>0.7286288492778747</speed>
  <fix>3d</fix>
</trkpt>
<trkpt lat="33.8102963" lon="-118.3938854">
  <ele>-0.107</ele>
  <time>2026-09-02T22:07:20Z</time>
  <course>186.89</course>
  <speed>0.7286288492778747</speed>
  <fix>3d</fix>
</trkpt>
<trkpt lat="33.810297" lon="-118.3938847">
  <ele>-0.1</ele>
  <time>2026-09-02T22:07:20Z</time>
  <course>223.26</course>
  <speed>0.73</speed>
  <fix>3d</fix>
</trkpt>
<trkpt lat="33.8102963" lon="-118.3938854">
  <ele>-0.108</ele>
  <time>2026-09-02T22:07:20Z</time>
  <course>186.89</course>
  <speed>0.7286288492778747</speed>
  <fix>3d</fix>
</trkpt>
<trkpt lat="33.8102963" lon="-118.3938855">
  <ele>-0.108</ele>
  <time>2026-09-02T22:07:20Z</time>
  <course>186.89</course>
  <speed>0.7286288492778747</speed>
  <fix>3d</fix>
</trkpt>
<trkpt lat="33.8102962" lon="-118.3938856">
  <ele>-0.108</ele>
  <time>2026-09-02T22:07:20Z</time>
  <course>186.89</course>
  <speed>0.7286288492778747</speed>
  <fix>3d</fix>
</trkpt>
<trkpt lat="33.8102962" lon="-118.3938856">
  <ele>-0.108</ele>
  <time>2026-09-02T22:07:20Z</time>
  <course>186.89</course>
  <speed>0.7286288492778747</speed>
  <fix>3d</fix>
</trkpt>
<trkpt lat="33.8102961" lon="-118.3938856">
  <ele>-0.109</ele>
  <time>2026-09-02T22:07:20Z</time>
  <course>186.89</course>
  <speed>0.7286288492778747</speed>
  <fix>3d</fix>
</trkpt>
<trkpt lat="33.8102961" lon="-118.3938857">
  <ele>-0.109</ele>
  <time>2026-09-02T22:07:20Z</time>
  <course>186.89</course>
  <speed>0.7286288492778747</speed>
  <fix>3d</fix>
</trkpt>
<trkpt lat="33.8102961" lon="-118.3938857">
  <ele>-0.109</ele>
  <time>2026-09-02T22:07:20Z</time>
  <course>186.89</course>
  <speed>0.7286288492778747</speed>
  <fix>3d</fix>
</trkpt>
<trkpt lat="33.810296" lon="-118.3938858">
  <ele>-0.11</ele>
  <time>2026-09-02T22:07:20Z</time>
  <course>186.89</course>
  <speed>0.7286288492778747</speed>
  <fix>3d</fix>
</trkpt>
<trkpt lat="33.810296" lon="-118.3938858">
  <ele>-0.11</ele>
  <time>2026-09-02T22:07:20Z</time>
  <course>186.89</course>
  <speed>0.7213875518748573</speed>
  <fix>3d</fix>
</trkpt>
<trkpt lat="33.8102959" lon="-118.3938859">
  <ele>-0.11</ele>
  <time>2026-09-02T22:07:20Z</time>
  <course>186.89</course>
  <speed>0.7213875518748573</speed>
  <fix>3d</fix>
</trkpt>
<trkpt lat="33.8102959" lon="-118.3938859">
  <ele>-0.111</ele>
  <time>2026-09-02T22:07:20Z</time>
  <course>186.89</course>
  <speed>0.7213875518748573</speed>
  <fix>3d</fix>
</trkpt>
<trkpt lat="33.8102959" lon="-118.3938859">
  <ele>-0.111</ele>
  <time>2026-09-02T22:07:20Z</time>
  <course>186.89</course>
  <speed>0.7213875518748573</speed>
  <fix>3d</fix>
</trkpt>
<trkpt lat="33.8102958" lon="-118.393886">
  <ele>-0.111</ele>
  <time>2026-09-02T22:07:20Z</time>
  <course>186.89</course>
  <speed>0.7213875518748573</speed>
  <fix>3d</fix>
</trkpt>
<trkpt lat="33.810297" lon="-118.3938847">
  <ele>-0.1</ele>
  <time>2026-09-02T22:07:20Z</time>
  <course>223.26</course>
  <speed>0.73</speed>
  <fix>3d</fix>
</trkpt>
<trkpt lat="33.8102958" lon="-118.393886">
  <ele>-0.111</ele>
  <time>2026-09-02T22:07:20Z</time>
  <course>186.89</course>
  <speed>0.7213875518748573</speed>
  <fix>3d</fix>
</trkpt>
<trkpt lat="33.8102958" lon="-118.3938861">
  <ele>-0.112</ele>
  <time>2026-09-02T22:07:20Z</time>
  <course>186.89</course>
  <speed>0.7213875518748573</speed>
  <fix>3d</fix>
</trkpt>
<trkpt lat="33.8102957" lon="-118.3938861">
  <ele>-0.112</ele>
  <time>2026-09-02T22:07:20Z</time>
  <course>186.89</course>
  <speed>0.7213875518748573</speed>
  <fix>3d</fix>
</trkpt>
<trkpt lat="33.8102957" lon="-118.3938862">
  <ele>-0.113</ele>
  <time>2026-09-02T22:07:20Z</time>
  <course>186.89</course>
  <speed>0.7213875518748573</speed>
  <fix>3d</fix>
</trkpt>
<trkpt lat="33.8102956" lon="-118.3938862">
  <ele>-0.113</ele>
  <time>2026-09-02T22:07:20Z</time>
  <course>186.89</course>
  <speed>0.7213875518748573</speed>
  <fix>3d</fix>
</trkpt>
<trkpt lat="33.8102956" lon="-118.3938862">
  <ele>-0.113</ele>
  <time>2026-09-02T22:07:20Z</time>
  <course>186.89</course>
  <speed>0.7213875518748573</speed>
  <fix>3d</fix>
</trkpt>
<trkpt lat="33.8102956" lon="-118.3938863">
  <ele>-0.114</ele>
  <time>2026-09-02T22:07:20Z</time>
  <course>186.89</course>
  <speed>0.7213875518748573</speed>
  <fix>3d</fix>
</trkpt>
<trkpt lat="33.8102955" lon="-118.3938863">
  <ele>-0.114</ele>
  <time>2026-09-02T22:07:20Z</time>
  <course>186.89</course>
  <speed>0.7213875518748573</speed>
  <fix>3d</fix>
</trkpt>
<trkpt lat="33.8102955" lon="-118.3938864">
  <ele>-0.114</ele>
  <time>2026-09-02T22:07:20Z</time>
  <course>186.89</course>
  <speed>0.7213875518748573</speed>
  <fix>3d</fix>
</trkpt>
<trkpt lat="33.8102954" lon="-118.3938864">
  <ele>-0.115</ele>
  <time>2026-09-02T22:07:20Z</time>
  <course>186.88</course>
  <speed>0.7213875518748573</speed>
  <fix>3d</fix>
</trkpt>
<trkpt lat="33.8102954" lon="-118.3938865">
  <ele>-0.115</ele>
  <time>2026-09-02T22:07:20Z</time>
  <course>186.88</course>
  <speed>0.7213875518748573</speed>
  <fix>3d</fix>
</trkpt>
<trkpt lat="33.8102954" lon="-118.3938865">
  <ele>-0.115</ele>
  <time>2026-09-02T22:07:20Z</time>
  <course>186.88</course>
  <speed>0.7213875518748573</speed>
  <fix>3d</fix>
</trkpt>
<trkpt lat="33.8102954" lon="-118.3938865">
  <ele>-0.115</ele>
  <time>2026-09-02T22:07:20Z</time>
  <course>186.88</course>
  <speed>0.7213875518748573</speed>
  <fix>3d</fix>
</trkpt>
<trkpt lat="33.810296" lon="-118.3938858">
  <ele>-0.1</ele>
  <time>2026-09-02T22:07:20Z</time>
  <course>223.26</course>
  <speed>0.73</speed>
  <fix>3d</fix>
</trkpt>
<trkpt lat="33.8102954" lon="-118.3938865">
  <ele>-0.115</ele>
  <time>2026-09-02T22:07:20Z</time>
  <course>186.88</course>
  <speed>0.7213875518748573</speed>
  <fix>3d</fix>
</trkpt>
<trkpt lat="33.8102953" lon="-118.3938866">
  <ele>-0.116</ele>
  <time>2026-09-02T22:07:20Z</time>
  <course>186.88</course>
  <speed>0.7213875518748573</speed>
  <fix>3d</fix>
</trkpt>
<trkpt lat="33.8102952" lon="-118.3938867">
  <ele>-0.116</ele>
  <time>2026-09-02T22:07:20Z</time>
  <course>186.88</course>
  <speed>0.7213875518748573</speed>
  <fix>3d</fix>
</trkpt>
<trkpt lat="33.8102952" lon="-118.3938867">
  <ele>-0.116</ele>
  <time>2026-09-02T22:07:20Z</time>
  <course>186.88</course>
  <speed>0.7213875518748573</speed>
  <fix>3d</fix>
</trkpt>
<trkpt lat="33.8102952" lon="-118.3938867">
  <ele>-0.117</ele>
  <time>2026-09-02T22:07:20Z</time>
  <course>186.88</course>
  <speed>0.7213875518748573</speed>
  <fix>3d</fix>
</trkpt>
<trkpt lat="33.8102951" lon="-118.3938868">
  <ele>-0.117</ele>
  <time>2026-09-02T22:07:20Z</time>
  <course>186.88</course>
  <speed>0.7213875518748573</speed>
  <fix>3d</fix>
</trkpt>
<trkpt lat="33.8102951" lon="-118.3938868">
  <ele>-0.117</ele>
  <time>2026-09-02T22:07:20Z</time>
  <course>186.88</course>
  <speed>0.7213875518748573</speed>
  <fix>3d</fix>
</trkpt>
<trkpt lat="33.8102951" lon="-118.3938869">
  <ele>-0.117</ele>
  <time>2026-09-02T22:07:20Z</time>
  <course>186.88</course>
  <speed>0.7213875518748573</speed>
  <fix>3d</fix>
</trkpt>
<trkpt lat="33.810295" lon="-118.3938869">
  <ele>-0.117</ele>
  <time>2026-09-02T22:07:20Z</time>
  <course>186.88</course>
  <speed>0.7213875518748573</speed>
  <fix>3d</fix>
</trkpt>
<trkpt lat="33.810295" lon="-118.393887">
  <ele>-0.117</ele>
  <time>2026-09-02T22:07:20Z</time>
  <course>186.88</course>
  <speed>0.7213875518748573</speed>
  <fix>3d</fix>
</trkpt>
<trkpt lat="33.8102949" lon="-118.393887">
  <ele>-0.117</ele>
  <time>2026-09-02T22:07:20Z</time>
  <course>186.88</course>
  <speed>0.7213875518748573</speed>
  <fix>3d</fix>
</trkpt>
<trkpt lat="33.8102949" lon="-118.393887">
  <ele>-0.117</ele>
  <time>2026-09-02T22:07:20Z</time>
  <course>186.88</course>
  <speed>0.7213875518748573</speed>
  <fix>3d</fix>
</trkpt>
<trkpt lat="33.8102949" lon="-118.3938871">
  <ele>-0.117</ele>
  <time>2026-09-02T22:07:20Z</time>
  <course>186.88</course>
  <speed>0.7213875518748573</speed>
  <fix>3d</fix>
</trkpt>
<trkpt lat="33.810296" lon="-118.3938858">
  <ele>-0.1</ele>
  <time>2026-09-02T22:07:20Z</time>
  <course>223.26</course>
  <speed>0.73</speed>
  <fix>3d</fix>
</trkpt>
<trkpt lat="33.8102949" lon="-118.3938871">
  <ele>-0.117</ele>
  <time>2026-09-02T22:07:20Z</time>
  <course>186.88</course>
  <speed>0.7213875518748573</speed>
  <fix>3d</fix>
</trkpt>
<trkpt lat="33.8102948" lon="-118.3938871">
  <ele>-0.117</ele>
  <time>2026-09-02T22:07:20Z</time>
  <course>186.88</course>
  <speed>0.7213875518748573</speed>
  <fix>3d</fix>
</trkpt>
<trkpt lat="33.8102948" lon="-118.3938872">
  <ele>-0.117</ele>
  <time>2026-09-02T22:07:20Z</time>
  <course>186.88</course>
  <speed>0.7213875518748573</speed>
  <fix>3d</fix>
</trkpt>
<trkpt lat="33.8102948" lon="-118.3938872">
  <ele>-0.117</ele>
  <time>2026-09-02T22:07:20Z</time>
  <course>186.88</course>
  <speed>0.7213875518748573</speed>
  <fix>3d</fix>
</trkpt>
<trkpt lat="33.8102947" lon="-118.3938873">
  <ele>-0.117</ele>
  <time>2026-09-02T22:07:20Z</time>
  <course>186.88</course>
  <speed>0.7213875518748573</speed>
  <fix>3d</fix>
</trkpt>
<trkpt lat="33.8102947" lon="-118.3938873">
  <ele>-0.117</ele>
  <time>2026-09-02T22:07:20Z</time>
  <course>186.88</course>
  <speed>0.7213875518748573</speed>
  <fix>3d</fix>
</trkpt>
<trkpt lat="33.8102946" lon="-118.3938873">
  <ele>-0.117</ele>
  <time>2026-09-02T22:07:20Z</time>
  <course>186.88</course>
  <speed>0.7213875518748573</speed>
  <fix>3d</fix>
</trkpt>
<trkpt lat="33.8102946" lon="-118.3938874">
  <ele>-0.117</ele>
  <time>2026-09-02T22:07:20Z</time>
  <course>186.88</course>
  <speed>0.7213875518748573</speed>
  <fix>3d</fix>
</trkpt>
<trkpt lat="33.8102946" lon="-118.3938874">
  <ele>-0.117</ele>
  <time>2026-09-02T22:07:20Z</time>
  <course>186.88</course>
  <speed>0.7213875518748573</speed>
  <fix>3d</fix>
</trkpt>
<trkpt lat="33.8102945" lon="-118.3938875">
  <ele>-0.117</ele>
  <time>2026-09-02T22:07:20Z</time>
  <course>186.88</course>
  <speed>0.7213875518748573</speed>
  <fix>3d</fix>
</trkpt>
<trkpt lat="33.8102945" lon="-118.3938875">
  <ele>-0.117</ele>
  <time>2026-09-02T22:07:20Z</time>
  <course>186.88</course>
  <speed>0.7213875518748573</speed>
  <fix>3d</fix>
</trkpt>
<trkpt lat="33.8102945" lon="-118.3938875">
  <ele>-0.117</ele>
  <time>2026-09-02T22:07:20Z</time>
  <course>186.88</course>
  <speed>0.7213875518748573</speed>
  <fix>3d</fix>
</trkpt>
<trkpt lat="33.8102944" lon="-118.3938876">
  <ele>-0.117</ele>
  <time>2026-09-02T22:07:20Z</time>
  <course>186.88</course>
  <speed>0.7213875518748573</speed>
  <fix>3d</fix>
</trkpt>
<trkpt lat="33.8102944" lon="-118.3938876">
  <ele>-0.117</ele>
  <time>2026-09-02T22:07:20Z</time>
  <course>186.88</course>
  <speed>0.7213875518748573</speed>
  <fix>3d</fix>
</trkpt>
<trkpt lat="33.8102951" lon="-118.3938869">
  <ele>-0.11</ele>
  <time>2026-09-02T22:07:20Z</time>
  <course>223.26</course>
  <speed>0.73</speed>
  <fix>3d</fix>
</trkpt>
<trkpt lat="33.8102944" lon="-118.3938876">
  <ele>-0.116</ele>
  <time>2026-09-02T22:07:20Z</time>
  <course>186.88</course>
  <speed>0.7213875518748573</speed>
  <fix>3d</fix>
</trkpt>
<trkpt lat="33.8102944" lon="-118.3938877">
  <ele>-0.116</ele>
  <time>2026-09-02T22:07:20Z</time>
  <course>186.88</course>
  <speed>0.7213875518748573</speed>
  <fix>3d</fix>
</trkpt>
<trkpt lat="33.8102943" lon="-118.3938877">
  <ele>-0.116</ele>
  <time>2026-09-02T22:07:20Z</time>
  <course>186.88</course>
  <speed>0.7213875518748573</speed>
  <fix>3d</fix>
</trkpt>
<trkpt lat="33.8102943" lon="-118.3938878">
  <ele>-0.116</ele>
  <time>2026-09-02T22:07:20Z</time>
  <course>186.88</course>
  <speed>0.7213875518748573</speed>
  <fix>3d</fix>
</trkpt>
<trkpt lat="33.8102942" lon="-118.3938878">
  <ele>-0.115</ele>
  <time>2026-09-02T22:07:20Z</time>
  <course>186.88</course>
  <speed>0.7213875518748573</speed>
  <fix>3d</fix>
</trkpt>
<trkpt lat="33.8102942" lon="-118.3938879">
  <ele>-0.115</ele>
  <time>2026-09-02T22:07:20Z</time>
  <course>186.87</course>
  <speed>0.7213875518748573</speed>
  <fix>3d</fix>
</trkpt>
<trkpt lat="33.8102941" lon="-118.3938879">
  <ele>-0.115</ele>
  <time>2026-09-02T22:07:20Z</time>
  <course>186.87</course>
  <speed>0.7213875518748573</speed>
  <fix>3d</fix>
</trkpt>
<trkpt lat="33.8102941" lon="-118.3938879">
  <ele>-0.114</ele>
  <time>2026-09-02T22:07:20Z</time>
  <course>186.87</course>
  <speed>0.7213875518748573</speed>
  <fix>3d</fix>
</trkpt>
<trkpt lat="33.8102941" lon="-118.393888">
  <ele>-0.114</ele>
  <time>2026-09-02T22:07:20Z</time>
  <course>186.87</course>
  <speed>0.7213875518748573</speed>
  <fix>3d</fix>
</trkpt>
<trkpt lat="33.810294" lon="-118.393888">
  <ele>-0.114</ele>
  <time>2026-09-02T22:07:20Z</time>
  <course>186.87</course>
  <speed>0.7213875518748573</speed>
  <fix>3d</fix>
</trkpt>
<trkpt lat="33.810294" lon="-118.3938881">
  <ele>-0.113</ele>
  <time>2026-09-02T22:07:20Z</time>
  <course>186.87</course>
  <speed>0.7213875518748573</speed>
  <fix>3d</fix>
</trkpt>
<trkpt lat="33.810294" lon="-118.3938881">
  <ele>-0.113</ele>
  <time>2026-09-02T22:07:20Z</time>
  <course>186.87</course>
  <speed>0.7213875518748573</speed>
  <fix>3d</fix>
</trkpt>
<trkpt lat="33.8102939" lon="-118.3938882">
  <ele>-0.113</ele>
  <time>2026-09-02T22:07:20Z</time>
  <course>186.87</course>
  <speed>0.7213875518748573</speed>
  <fix>3d</fix>
</trkpt>
<trkpt lat="33.8102951" lon="-118.3938869">
  <ele>-0.11</ele>
  <time>2026-09-02T22:07:20Z</time>
  <course>223.26</course>
  <speed>0.73</speed>
  <fix>3d</fix>
</trkpt>
<trkpt lat="33.8102939" lon="-118.3938882">
  <ele>-0.113</ele>
  <time>2026-09-02T22:07:20Z</time>
  <course>186.87</course>
  <speed>0.7213875518748573</speed>
  <fix>3d</fix>
</trkpt>
<trkpt lat="33.8102939" lon="-118.3938882">
  <ele>-0.112</ele>
  <time>2026-09-02T22:07:20Z</time>
  <course>186.87</course>
  <speed>0.7213875518748573</speed>
  <fix>3d</fix>
</trkpt>
<trkpt lat="33.8102938" lon="-118.3938883">
  <ele>-0.112</ele>
  <time>2026-09-02T22:07:20Z</time>
  <course>186.87</course>
  <speed>0.7213875518748573</speed>
  <fix>3d</fix>
</trkpt>
<trkpt lat="33.8102938" lon="-118.3938883">
  <ele>-0.111</ele>
  <time>2026-09-02T22:07:20Z</time>
  <course>186.87</course>
  <speed>0.7213875518748573</speed>
  <fix>3d</fix>
</trkpt>
<trkpt lat="33.8102938" lon="-118.3938884">
  <ele>-0.111</ele>
  <time>2026-09-02T22:07:20Z</time>
  <course>186.87</course>
  <speed>0.7213875518748573</speed>
  <fix>3d</fix>
</trkpt>
<trkpt lat="33.8102937" lon="-118.3938884">
  <ele>-0.11</ele>
  <time>2026-09-02T22:07:20Z</time>
  <course>186.87</course>
  <speed>0.7213875518748573</speed>
  <fix>3d</fix>
</trkpt>
<trkpt lat="33.8102937" lon="-118.3938884">
  <ele>-0.11</ele>
  <time>2026-09-02T22:07:20Z</time>
  <course>186.87</course>
  <speed>0.7213875518748573</speed>
  <fix>3d</fix>
</trkpt>
<trkpt lat="33.8102937" lon="-118.3938885">
  <ele>-0.109</ele>
  <time>2026-09-02T22:07:20Z</time>
  <course>186.87</course>
  <speed>0.7213875518748573</speed>
  <fix>3d</fix>
</trkpt>
<trkpt lat="33.8102936" lon="-118.3938885">
  <ele>-0.109</ele>
  <time>2026-09-02T22:07:20Z</time>
  <course>186.87</course>
  <speed>0.7213875518748573</speed>
  <fix>3d</fix>
</trkpt>
<trkpt lat="33.8102936" lon="-118.3938886">
  <ele>-0.108</ele>
  <time>2026-09-02T22:07:20Z</time>
  <course>186.87</course>
  <speed>0.7213875518748573</speed>
  <fix>3d</fix>
</trkpt>
<trkpt lat="33.8102935" lon="-118.3938886">
  <ele>-0.108</ele>
  <time>2026-09-02T22:07:20Z</time>
  <course>186.87</course>
  <speed>0.7213875518748573</speed>
  <fix>3d</fix>
</trkpt>
<trkpt lat="33.8102935" lon="-118.3938887">
  <ele>-0.107</ele>
  <time>2026-09-02T22:07:20Z</time>
  <course>186.87</course>
  <speed>0.7213875518748573</speed>
  <fix>3d</fix>
</trkpt>
<trkpt lat="33.8102935" lon="-118.3938887">
  <ele>-0.107</ele>
  <time>2026-09-02T22:07:20Z</time>
  <course>186.87</course>
  <speed>0.7213875518748573</speed>
  <fix>3d</fix>
</trkpt>
<trkpt lat="33.8102941" lon="-118.393888">
  <ele>-0.11</ele>
  <time>2026-09-02T22:07:20Z</time>
  <course>223.26</course>
  <speed>0.73</speed>
  <fix>3d</fix>
</trkpt>
<trkpt lat="33.8102934" lon="-118.3938887">
  <ele>-0.107</ele>
  <time>2026-09-02T22:07:20Z</time>
  <course>186.87</course>
  <speed>0.7213875518748573</speed>
  <fix>3d</fix>
</trkpt>
<trkpt lat="33.8102934" lon="-118.3938888">
  <ele>-0.106</ele>
  <time>2026-09-02T22:07:20Z</time>
  <course>186.87</course>
  <speed>0.7213875518748573</speed>
  <fix>3d</fix>
</trkpt>
<trkpt lat="33.8102933" lon="-118.3938888">
  <ele>-0.106</ele>
  <time>2026-09-02T22:07:20Z</time>
  <course>186.87</course>
  <speed>0.7213875518748573</speed>
  <fix>3d</fix>
</trkpt>
<trkpt lat="33.8102933" lon="-118.3938889">
  <ele>-0.105</ele>
  <time>2026-09-02T22:07:20Z</time>
  <course>186.87</course>
  <speed>0.7213875518748573</speed>
  <fix>3d</fix>
</trkpt>
<trkpt lat="33.8102932" lon="-118.3938889">
  <ele>-0.104</ele>
  <time>2026-09-02T22:07:20Z</time>
  <course>186.87</course>
  <speed>0.7213875518748573</speed>
  <fix>3d</fix>
</trkpt>
<trkpt lat="33.8102932" lon="-118.393889">
  <ele>-0.104</ele>
  <time>2026-09-02T22:07:20Z</time>
  <course>186.87</course>
  <speed>0.7213875518748573</speed>
  <fix>3d</fix>
</trkpt>
<trkpt lat="33.8102932" lon="-118.393889">
  <ele>-0.104</ele>
  <time>2026-09-02T22:07:20Z</time>
  <course>186.87</course>
  <speed>0.7213875518748573</speed>
  <fix>3d</fix>
</trkpt>
<trkpt lat="33.8102931" lon="-118.3938891">
  <ele>-0.103</ele>
  <time>2026-09-02T22:07:20Z</time>
  <course>186.87</course>
  <speed>0.7213875518748573</speed>
  <fix>3d</fix>
</trkpt>
<trkpt lat="33.8102931" lon="-118.3938891">
  <ele>-0.103</ele>
  <time>2026-09-02T22:07:20Z</time>
  <course>186.86</course>
  <speed>0.7213875518748573</speed>
  <fix>3d</fix>
</trkpt>
<trkpt lat="33.8102931" lon="-118.3938892">
  <ele>-0.102</ele>
  <time>2026-09-02T22:07:20Z</time>
  <course>186.86</course>
  <speed>0.7213875518748573</speed>
  <fix>3d</fix>
</trkpt>
<trkpt lat="33.810293" lon="-118.3938892">
  <ele>-0.102</ele>
  <time>2026-09-02T22:07:20Z</time>
  <course>186.86</course>
  <speed>0.7213875518748573</speed>
  <fix>3d</fix>
</trkpt>
<trkpt lat="33.810293" lon="-118.3938892">
  <ele>-0.101</ele>
  <time>2026-09-02T22:07:20Z</time>
  <course>186.86</course>
  <speed>0.7213875518748573</speed>
  <fix>3d</fix>
</trkpt>
<trkpt lat="33.8102941" lon="-118.393888">
  <ele>-0.11</ele>
  <time>2026-09-02T22:07:20Z</time>
  <course>223.26</course>
  <speed>0.73</speed>
  <fix>3d</fix>
</trkpt>
<trkpt lat="33.810293" lon="-118.3938893">
  <ele>-0.101</ele>
  <time>2026-09-02T22:07:20Z</time>
  <course>186.86</course>
  <speed>0.7213875518748573</speed>
  <fix>3d</fix>
</trkpt>
<trkpt lat="33.8102929" lon="-118.3938893">
  <ele>-0.1</ele>
  <time>2026-09-02T22:07:20Z</time>
  <course>186.86</course>
  <speed>0.7213875518748573</speed>
  <fix>3d</fix>
</trkpt>
<trkpt lat="33.8102929" lon="-118.3938894">
  <ele>-0.1</ele>
  <time>2026-09-02T22:07:20Z</time>
  <course>186.86</course>
  <speed>0.7213875518748573</speed>
  <fix>3d</fix>
</trkpt>
<trkpt lat="33.8102928" lon="-118.3938894">
  <ele>-0.1</ele>
  <time>2026-09-02T22:07:20Z</time>
  <course>186.86</course>
  <speed>0.7213875518748573</speed>
  <fix>3d</fix>
</trkpt>
<trkpt lat="33.8102928" lon="-118.3938895">
  <ele>-0.1</ele>
  <time>2026-09-02T22:07:20Z</time>
  <course>186.86</course>
  <speed>0.7213875518748573</speed>
  <fix>3d</fix>
</trkpt>
<trkpt lat="33.8102928" lon="-118.3938895">
  <ele>-0.099</ele>
  <time>2026-09-02T22:07:20Z</time>
  <course>186.86</course>
  <speed>0.7213875518748573</speed>
  <fix>3d</fix>
</trkpt>
<trkpt lat="33.8102927" lon="-118.3938896">
  <ele>-0.099</ele>
  <time>2026-09-02T22:07:20Z</time>
  <course>186.86</course>
  <speed>0.7213875518748573</speed>
  <fix>3d</fix>
</trkpt>
<trkpt lat="33.8102927" lon="-118.3938896">
  <ele>-0.099</ele>
  <time>2026-09-02T22:07:20Z</time>
  <course>186.86</course>
  <speed>0.7213875518748573</speed>
  <fix>3d</fix>
</trkpt>
<trkpt lat="33.8102927" lon="-118.3938896">
  <ele>-0.098</ele>
  <time>2026-09-02T22:07:20Z</time>
  <course>186.86</course>
  <speed>0.7213875518748573</speed>
  <fix>3d</fix>
</trkpt>
<trkpt lat="33.8102926" lon="-118.3938897">
  <ele>-0.098</ele>
  <time>2026-09-02T22:07:20Z</time>
  <course>186.86</course>
  <speed>0.7213875518748573</speed>
  <fix>3d</fix>
</trkpt>
<trkpt lat="33.8102926" lon="-118.3938897">
  <ele>-0.098</ele>
  <time>2026-09-02T22:07:20Z</time>
  <course>186.86</course>
  <speed>0.7213875518748573</speed>
  <fix>3d</fix>
</trkpt>
<trkpt lat="33.8102925" lon="-118.3938898">
  <ele>-0.098</ele>
  <time>2026-09-02T22:07:20Z</time>
  <course>186.86</course>
  <speed>0.7213875518748573</speed>
  <fix>3d</fix>
</trkpt>
<trkpt lat="33.8102925" lon="-118.3938898">
  <ele>-0.098</ele>
  <time>2026-09-02T22:07:20Z</time>
  <course>186.86</course>
  <speed>0.7213875518748573</speed>
  <fix>3d</fix>
</trkpt>
<trkpt lat="33.8102925" lon="-118.3938898">
  <ele>-0.098</ele>
  <time>2026-09-02T22:07:20Z</time>
  <course>186.86</course>
  <speed>0.7213875518748573</speed>
  <fix>3d</fix>
</trkpt>
<trkpt lat="33.8102931" lon="-118.3938891">
  <ele>-0.1</ele>
  <time>2026-09-02T22:07:20Z</time>
  <course>223.26</course>
  <speed>0.73</speed>
  <fix>3d</fix>
</trkpt>
<trkpt lat="33.8102924" lon="-118.3938899">
  <ele>-0.097</ele>
  <time>2026-09-02T22:07:20Z</time>
  <course>186.86</course>
  <speed>0.7213875518748573</speed>
  <fix>3d</fix>
</trkpt>
<trkpt lat="33.8102924" lon="-118.3938899">
  <ele>-0.097</ele>
  <time>2026-09-02T22:07:20Z</time>
  <course>186.86</course>
  <speed>0.7213875518748573</speed>
  <fix>3d</fix>
</trkpt>
<trkpt lat="33.8102924" lon="-118.39389">
  <ele>-0.097</ele>
  <time>2026-09-02T22:07:20Z</time>
  <course>186.86</course>
  <speed>0.7213875518748573</speed>
  <fix>3d</fix>
</trkpt>
<trkpt lat="33.8102923" lon="-118.39389">
  <ele>-0.097</ele>
  <time>2026-09-02T22:07:20Z</time>
  <course>186.86</course>
  <speed>0.7213875518748573</speed>
  <fix>3d</fix>
</trkpt>
<trkpt lat="33.8102923" lon="-118.3938901">
  <ele>-0.097</ele>
  <time>2026-09-02T22:07:20Z</time>
  <course>186.86</course>
  <speed>0.7213875518748573</speed>
  <fix>3d</fix>
</trkpt>
<trkpt lat="33.8102922" lon="-118.3938901">
  <ele>-0.097</ele>
  <time>2026-09-02T22:07:20Z</time>
  <course>186.86</course>
  <speed>0.7213875518748573</speed>
  <fix>3d</fix>
</trkpt>
<trkpt lat="33.8102922" lon="-118.3938902">
  <ele>-0.096</ele>
  <time>2026-09-02T22:07:20Z</time>
  <course>186.86</course>
  <speed>0.7213875518748573</speed>
  <fix>3d</fix>
</trkpt>
<trkpt lat="33.8102921" lon="-118.3938902">
  <ele>-0.096</ele>
  <time>2026-09-02T22:07:20Z</time>
  <course>186.86</course>
  <speed>0.7213875518748573</speed>
  <fix>3d</fix>
</trkpt>
<trkpt lat="33.8102921" lon="-118.3938903">
  <ele>-0.096</ele>
  <time>2026-09-02T22:07:20Z</time>
  <course>186.86</course>
  <speed>0.7213875518748573</speed>
  <fix>3d</fix>
</trkpt>
<trkpt lat="33.8102921" lon="-118.3938903">
  <ele>-0.096</ele>
  <time>2026-09-02T22:07:20Z</time>
  <course>186.86</course>
  <speed>0.7213875518748573</speed>
  <fix>3d</fix>
</trkpt>
<trkpt lat="33.810292" lon="-118.3938903">
  <ele>-0.096</ele>
  <time>2026-09-02T22:07:20Z</time>
  <course>186.86</course>
  <speed>0.7213875518748573</speed>
  <fix>3d</fix>
</trkpt>
<trkpt lat="33.8102931" lon="-118.3938891">
  <ele>-0.1</ele>
  <time>2026-09-02T22:07:20Z</time>
  <course>223.26</course>
  <speed>0.73</speed>
  <fix>3d</fix>
</trkpt>
<trkpt lat="33.810292" lon="-118.3938904">
  <ele>-0.096</ele>
  <time>2026-09-02T22:07:20Z</time>
  <course>186.86</course>
  <speed>0.7213875518748573</speed>
  <fix>3d</fix>
</trkpt>
<trkpt lat="33.810292" lon="-118.3938904">
  <ele>-0.097</ele>
  <time>2026-09-02T22:07:20Z</time>
  <course>186.86</course>
  <speed>0.7213875518748573</speed>
  <fix>3d</fix>
</trkpt>
<trkpt lat="33.8102919" lon="-118.3938905">
  <ele>-0.097</ele>
  <time>2026-09-02T22:07:20Z</time>
  <course>186.86</course>
  <speed>0.7213875518748573</speed>
  <fix>3d</fix>
</trkpt>
<trkpt lat="33.8102919" lon="-118.3938905">
  <ele>-0.097</ele>
  <time>2026-09-02T22:07:20Z</time>
  <course>186.86</course>
  <speed>0.7213875518748573</speed>
  <fix>3d</fix>
</trkpt>
<trkpt lat="33.8102918" lon="-118.3938906">
  <ele>-0.097</ele>
  <time>2026-09-02T22:07:20Z</time>
  <course>186.86</course>
  <speed>0.7213875518748573</speed>
  <fix>3d</fix>
</trkpt>
<trkpt lat="33.8102918" lon="-118.3938907">
  <ele>-0.097</ele>
  <time>2026-09-02T22:07:20Z</time>
  <course>186.85</course>
  <speed>0.7213875518748573</speed>
  <fix>3d</fix>
</trkpt>
<trkpt lat="33.8102917" lon="-118.3938907">
  <ele>-0.098</ele>
  <time>2026-09-02T22:07:20Z</time>
  <course>186.85</course>
  <speed>0.7213875518748573</speed>
  <fix>3d</fix>
</trkpt>
<trkpt lat="33.8102917" lon="-118.3938907">
  <ele>-0.098</ele>
  <time>2026-09-02T22:07:20Z</time>
  <course>186.85</course>
  <speed>0.7213875518748573</speed>
  <fix>3d</fix>
</trkpt>
<trkpt lat="33.8102916" lon="-118.3938908">
  <ele>-0.098</ele>
  <time>2026-09-02T22:07:20Z</time>
  <course>186.85</course>
  <speed>0.7213875518748573</speed>
  <fix>3d</fix>
</trkpt>
<trkpt lat="33.8102916" lon="-118.3938908">
  <ele>-0.098</ele>
  <time>2026-09-02T22:07:20Z</time>
  <course>186.85</course>
  <speed>0.7213875518748573</speed>
  <fix>3d</fix>
</trkpt>
<trkpt lat="33.8102916" lon="-118.3938909">
  <ele>-0.099</ele>
  <time>2026-09-02T22:07:20Z</time>
  <course>186.85</course>
  <speed>0.7213875518748573</speed>
  <fix>3d</fix>
</trkpt>
<trkpt lat="33.8102916" lon="-118.3938909">
  <ele>-0.099</ele>
  <time>2026-09-02T22:07:20Z</time>
  <course>186.85</course>
  <speed>0.7213875518748573</speed>
  <fix>3d</fix>
</trkpt>
<trkpt lat="33.8102922" lon="-118.3938901">
  <ele>-0.1</ele>
  <time>2026-09-02T22:07:20Z</time>
  <course>223.26</course>
  <speed>0.73</speed>
  <fix>3d</fix>
</trkpt>
<trkpt lat="33.8102915" lon="-118.3938909">
  <ele>-0.099</ele>
  <time>2026-09-02T22:07:20Z</time>
  <course>186.85</course>
  <speed>0.7213875518748573</speed>
  <fix>3d</fix>
</trkpt>
<trkpt lat="33.8102915" lon="-118.393891">
  <ele>-0.1</ele>
  <time>2026-09-02T22:07:20Z</time>
  <course>186.85</course>
  <speed>0.7213875518748573</speed>
  <fix>3d</fix>
</trkpt>
<trkpt lat="33.8102914" lon="-118.393891">
  <ele>-0.1</ele>
  <time>2026-09-02T22:07:20Z</time>
  <course>186.85</course>
  <speed>0.7213875518748573</speed>
  <fix>3d</fix>
</trkpt>
<trkpt lat="33.8102914" lon="-118.3938911">
  <ele>-0.1</ele>
  <time>2026-09-02T22:07:20Z</time>
  <course>186.85</course>
  <speed>0.7213875518748573</speed>
  <fix>3d</fix>
</trkpt>
<trkpt lat="33.8102914" lon="-118.3938911">
  <ele>-0.101</ele>
  <time>2026-09-02T22:07:20Z</time>
  <course>186.85</course>
  <speed>0.7213875518748573</speed>
  <fix>3d</fix>
</trkpt>
<trkpt lat="33.8102913" lon="-118.3938912">
  <ele>-0.101</ele>
  <time>2026-09-02T22:07:20Z</time>
  <course>186.85</course>
  <speed>0.7213875518748573</speed>
  <fix>3d</fix>
</trkpt>
<trkpt lat="33.8102913" lon="-118.3938912">
  <ele>-0.101</ele>
  <time>2026-09-02T22:07:20Z</time>
  <course>186.85</course>
  <speed>0.7213875518748573</speed>
  <fix>3d</fix>
</trkpt>
<trkpt lat="33.8102912" lon="-118.3938913">
  <ele>-0.102</ele>
  <time>2026-09-02T22:07:20Z</time>
  <course>186.85</course>
  <speed>0.7213875518748573</speed>
  <fix>3d</fix>
</trkpt>
<trkpt lat="33.8102912" lon="-118.3938913">
  <ele>-0.102</ele>
  <time>2026-09-02T22:07:20Z</time>
  <course>186.85</course>
  <speed>0.7213875518748573</speed>
  <fix>3d</fix>
</trkpt>
<trkpt lat="33.8102912" lon="-118.3938913">
  <ele>-0.102</ele>
  <time>2026-09-02T22:07:20Z</time>
  <course>186.85</course>
  <speed>0.7213875518748573</speed>
  <fix>3d</fix>
</trkpt>
<trkpt lat="33.8102911" lon="-118.3938914">
  <ele>-0.102</ele>
  <time>2026-09-02T22:07:20Z</time>
  <course>186.85</course>
  <speed>0.7213875518748573</speed>
  <fix>3d</fix>
</trkpt>
<trkpt lat="33.8102911" lon="-118.3938914">
  <ele>-0.103</ele>
  <time>2026-09-02T22:07:20Z</time>
  <course>186.85</course>
  <speed>0.7213875518748573</speed>
  <fix>3d</fix>
</trkpt>
<trkpt lat="33.8102911" lon="-118.3938914">
  <ele>-0.103</ele>
  <time>2026-09-02T22:07:20Z</time>
  <course>186.85</course>
  <speed>0.7213875518748573</speed>
  <fix>3d</fix>
</trkpt>
<trkpt lat="33.8102922" lon="-118.3938901">
  <ele>-0.1</ele>
  <time>2026-09-02T22:07:20Z</time>
  <course>223.26</course>
  <speed>0.73</speed>
  <fix>3d</fix>
</trkpt>
<trkpt lat="33.8102911" lon="-118.3938915">
  <ele>-0.103</ele>
  <time>2026-09-02T22:07:20Z</time>
  <course>186.85</course>
  <speed>0.7213875518748573</speed>
  <fix>3d</fix>
</trkpt>
<trkpt lat="33.810291" lon="-118.3938915">
  <ele>-0.103</ele>
  <time>2026-09-02T22:07:20Z</time>
  <course>186.85</course>
  <speed>0.7213875518748573</speed>
  <fix>3d</fix>
</trkpt>
<trkpt lat="33.810291" lon="-118.3938916">
  <ele>-0.104</ele>
  <time>2026-09-02T22:07:20Z</time>
  <course>186.85</course>
  <speed>0.7213875518748573</speed>
  <fix>3d</fix>
</trkpt>
<trkpt lat="33.8102909" lon="-118.3938916">
  <ele>-0.104</ele>
  <time>2026-09-02T22:07:20Z</time>
  <course>186.85</course>
  <speed>0.7213875518748573</speed>
  <fix>3d</fix>
</trkpt>
<trkpt lat="33.8102909" lon="-118.3938917">
  <ele>-0.104</ele>
  <time>2026-09-02T22:07:20Z</time>
  <course>186.85</course>
  <speed>0.7213875518748573</speed>
  <fix>3d</fix>
</trkpt>
<trkpt lat="33.8102909" lon="-118.3938917">
  <ele>-0.105</ele>
  <time>2026-09-02T22:07:20Z</time>
  <course>186.85</course>
  <speed>0.7213875518748573</speed>
  <fix>3d</fix>
</trkpt>
<trkpt lat="33.8102908" lon="-118.3938917">
  <ele>-0.105</ele>
  <time>2026-09-02T22:07:20Z</time>
  <course>186.85</course>
  <speed>0.7213875518748573</speed>
  <fix>3d</fix>
</trkpt>
<trkpt lat="33.8102908" lon="-118.3938918">
  <ele>-0.105</ele>
  <time>2026-09-02T22:07:20Z</time>
  <course>186.85</course>
  <speed>0.7213875518748573</speed>
  <fix>3d</fix>
</trkpt>
<trkpt lat="33.8102907" lon="-118.3938918">
  <ele>-0.106</ele>
  <time>2026-09-02T22:07:20Z</time>
  <course>186.85</course>
  <speed>0.7213875518748573</speed>
  <fix>3d</fix>
</trkpt>
<trkpt lat="33.8102907" lon="-118.3938919">
  <ele>-0.106</ele>
  <time>2026-09-02T22:07:20Z</time>
  <course>186.85</course>
  <speed>0.7213875518748573</speed>
  <fix>3d</fix>
</trkpt>
<trkpt lat="33.8102907" lon="-118.3938919">
  <ele>-0.106</ele>
  <time>2026-09-02T22:07:20Z</time>
  <course>186.85</course>
  <speed>0.7213875518748573</speed>
  <fix>3d</fix>
</trkpt>
<trkpt lat="33.8102906" lon="-118.3938919">
  <ele>-0.107</ele>
  <time>2026-09-02T22:07:20Z</time>
  <course>186.84</course>
  <speed>0.7213875518748573</speed>
  <fix>3d</fix>
</trkpt>
<trkpt lat="33.8102906" lon="-118.393892">
  <ele>-0.107</ele>
  <time>2026-09-02T22:07:20Z</time>
  <course>186.84</course>
  <speed>0.7213875518748573</speed>
  <fix>3d</fix>
</trkpt>
<trkpt lat="33.8102906" lon="-118.393892">
  <ele>-0.107</ele>
  <time>2026-09-02T22:07:20Z</time>
  <course>186.84</course>
  <speed>0.7213875518748573</speed>
  <fix>3d</fix>
</trkpt>
<trkpt lat="33.8102912" lon="-118.3938912">
  <ele>-0.1</ele>
  <time>2026-09-02T22:07:20Z</time>
  <course>223.26</course>
  <speed>0.73</speed>
  <fix>3d</fix>
</trkpt>
<trkpt lat="33.8102905" lon="-118.3938921">
  <ele>-0.107</ele>
  <time>2026-09-02T22:07:20Z</time>
  <course>186.84</course>
  <speed>0.7213875518748573</speed>
  <fix>3d</fix>
</trkpt>
<trkpt lat="33.8102905" lon="-118.3938921">
  <ele>-0.108</ele>
  <time>2026-09-02T22:07:20Z</time>
  <course>186.84</course>
  <speed>0.7213875518748573</speed>
  <fix>3d</fix>
</trkpt>
<trkpt lat="33.8102904" lon="-118.3938922">
  <ele>-0.108</ele>
  <time>2026-09-02T22:07:20Z</time>
  <course>186.84</course>
  <speed>0.7213875518748573</speed>
  <fix>3d</fix>
</trkpt>
<trkpt lat="33.8102904" lon="-118.3938922">
  <ele>-0.108</ele>
  <time>2026-09-02T22:07:20Z</time>
  <course>186.84</course>
  <speed>0.7213875518748573</speed>
  <fix>3d</fix>
</trkpt>
<trkpt lat="33.8102904" lon="-118.3938923">
  <ele>-0.108</ele>
  <time>2026-09-02T22:07:20Z</time>
  <course>186.84</course>
  <speed>0.7213875518748573</speed>
  <fix>3d</fix>
</trkpt>
<trkpt lat="33.8102903" lon="-118.3938923">
  <ele>-0.109</ele>
  <time>2026-09-02T22:07:20Z</time>
  <course>186.84</course>
  <speed>0.7213875518748573</speed>
  <fix>3d</fix>
</trkpt>
<trkpt lat="33.8102903" lon="-118.3938924">
  <ele>-0.109</ele>
  <time>2026-09-02T22:07:20Z</time>
  <course>186.84</course>
  <speed>0.7213875518748573</speed>
  <fix>3d</fix>
</trkpt>
<trkpt lat="33.8102902" lon="-118.3938924">
  <ele>-0.109</ele>
  <time>2026-09-02T22:07:20Z</time>
  <course>186.84</course>
  <speed>0.7213875518748573</speed>
  <fix>3d</fix>
</trkpt>
<trkpt lat="33.8102902" lon="-118.3938924">
  <ele>-0.109</ele>
  <time>2026-09-02T22:07:20Z</time>
  <course>186.84</course>
  <speed>0.7213875518748573</speed>
  <fix>3d</fix>
</trkpt>
<trkpt lat="33.8102902" lon="-118.3938925">
  <ele>-0.11</ele>
  <time>2026-09-02T22:07:20Z</time>
  <course>186.84</course>
  <speed>0.7213875518748573</speed>
  <fix>3d</fix>
</trkpt>
<trkpt lat="33.8102901" lon="-118.3938925">
  <ele>-0.11</ele>
  <time>2026-09-02T22:07:20Z</time>
  <course>186.84</course>
  <speed>0.7213875518748573</speed>
  <fix>3d</fix>
</trkpt>
<trkpt lat="33.8102901" lon="-118.3938925">
  <ele>-0.11</ele>
  <time>2026-09-02T22:07:20Z</time>
  <course>186.84</course>
  <speed>0.7213875518748573</speed>
  <fix>3d</fix>
</trkpt>
<trkpt lat="33.8102912" lon="-118.3938912">
  <ele>-0.1</ele>
  <time>2026-09-02T22:07:20Z</time>
  <course>223.26</course>
  <speed>0.73</speed>
  <fix>3d</fix>
</trkpt>
<trkpt lat="33.81029" lon="-118.3938926">
  <ele>-0.11</ele>
  <time>2026-09-02T22:07:20Z</time>
  <course>186.84</course>
  <speed>0.7213875518748573</speed>
  <fix>3d</fix>
</trkpt>
<trkpt lat="33.81029" lon="-118.3938927">
  <ele>-0.11</ele>
  <time>2026-09-02T22:07:20Z</time>
  <course>186.84</course>
  <speed>0.7213875518748573</speed>
  <fix>3d</fix>
</trkpt>
<trkpt lat="33.81029" lon="-118.3938927">
  <ele>-0.11</ele>
  <time>2026-09-02T22:07:20Z</time>
  <course>186.84</course>
  <speed>0.7213875518748573</speed>
  <fix>3d</fix>
</trkpt>
<trkpt lat="33.8102899" lon="-118.3938928">
  <ele>-0.111</ele>
  <time>2026-09-02T22:07:20Z</time>
  <course>186.84</course>
  <speed>0.7213875518748573</speed>
  <fix>3d</fix>
</trkpt>
<trkpt lat="33.8102899" lon="-118.3938928">
  <ele>-0.11</ele>
  <time>2026-09-02T22:07:20Z</time>
  <course>186.84</course>
  <speed>0.7213875518748573</speed>
  <fix>3d</fix>
</trkpt>
<trkpt lat="33.8102898" lon="-118.3938929">
  <ele>-0.111</ele>
  <time>2026-09-02T22:07:20Z</time>
  <course>186.84</course>
  <speed>0.7213875518748573</speed>
  <fix>3d</fix>
</trkpt>
<trkpt lat="33.8102898" lon="-118.3938929">
  <ele>-0.111</ele>
  <time>2026-09-02T22:07:20Z</time>
  <course>186.84</course>
  <speed>0.7213875518748573</speed>
  <fix>3d</fix>
</trkpt>
<trkpt lat="33.8102898" lon="-118.393893">
  <ele>-0.11</ele>
  <time>2026-09-02T22:07:20Z</time>
  <course>186.84</course>
  <speed>0.7213875518748573</speed>
  <fix>3d</fix>
</trkpt>
<trkpt lat="33.8102897" lon="-118.393893">
  <ele>-0.111</ele>
  <time>2026-09-02T22:07:20Z</time>
  <course>186.84</course>
  <speed>0.7213875518748573</speed>
  <fix>3d</fix>
</trkpt>
<trkpt lat="33.8102897" lon="-118.393893">
  <ele>-0.111</ele>
  <time>2026-09-02T22:07:20Z</time>
  <course>186.84</course>
  <speed>0.7213875518748573</speed>
  <fix>3d</fix>
</trkpt>
<trkpt lat="33.8102896" lon="-118.3938931">
  <ele>-0.11</ele>
  <time>2026-09-02T22:07:20Z</time>
  <course>186.84</course>
  <speed>0.7213875518748573</speed>
  <fix>3d</fix>
</trkpt>
<trkpt lat="33.8102896" lon="-118.3938931">
  <ele>-0.11</ele>
  <time>2026-09-02T22:07:20Z</time>
  <course>186.84</course>
  <speed>0.7213875518748573</speed>
  <fix>3d</fix>
</trkpt>
<trkpt lat="33.8102903" lon="-118.3938923">
  <ele>-0.11</ele>
  <time>2026-09-02T22:07:20Z</time>
  <course>223.26</course>
  <speed>0.73</speed>
  <fix>3d</fix>
</trkpt>
<trkpt lat="33.8102896" lon="-118.3938931">
  <ele>-0.11</ele>
  <time>2026-09-02T22:07:20Z</time>
  <course>186.84</course>
  <speed>0.7213875518748573</speed>
  <fix>3d</fix>
</trkpt>
<trkpt lat="33.8102895" lon="-118.3938932">
  <ele>-0.11</ele>
  <time>2026-09-02T22:07:20Z</time>
  <course>186.84</course>
  <speed>0.7213875518748573</speed>
  <fix>3d</fix>
</trkpt>
<trkpt lat="33.8102895" lon="-118.3938933">
  <ele>-0.11</ele>
  <time>2026-09-02T22:07:20Z</time>
  <course>186.84</course>
  <speed>0.7213875518748573</speed>
  <fix>3d</fix>
</trkpt>
<trkpt lat="33.8102894" lon="-118.3938933">
  <ele>-0.11</ele>
  <time>2026-09-02T22:07:20Z</time>
  <course>186.84</course>
  <speed>0.7213875518748573</speed>
  <fix>3d</fix>
</trkpt>
<trkpt lat="33.8102894" lon="-118.3938934">
  <ele>-0.11</ele>
  <time>2026-09-02T22:07:20Z</time>
  <course>186.84</course>
  <speed>0.7213875518748573</speed>
  <fix>3d</fix>
</trkpt>
<trkpt lat="33.8102893" lon="-118.3938934">
  <ele>-0.11</ele>
  <time>2026-09-02T22:07:20Z</time>
  <course>186.84</course>
  <speed>0.7213875518748573</speed>
  <fix>3d</fix>
</trkpt>
<trkpt lat="33.8102893" lon="-118.3938935">
  <ele>-0.11</ele>
  <time>2026-09-02T22:07:20Z</time>
  <course>186.83</course>
  <speed>0.7213875518748573</speed>
  <fix>3d</fix>
</trkpt>
<trkpt lat="33.8102893" lon="-118.3938935">
  <ele>-0.11</ele>
  <time>2026-09-02T22:07:20Z</time>
  <course>186.83</course>
  <speed>0.7213875518748573</speed>
  <fix>3d</fix>
</trkpt>
<trkpt lat="33.8102892" lon="-118.3938936">
  <ele>-0.11</ele>
  <time>2026-09-02T22:07:20Z</time>
  <course>186.83</course>
  <speed>0.7213875518748573</speed>
  <fix>3d</fix>
</trkpt>
<trkpt lat="33.8102892" lon="-118.3938936">
  <ele>-0.11</ele>
  <time>2026-09-02T22:07:20Z</time>
  <course>186.83</course>
  <speed>0.7213875518748573</speed>
  <fix>3d</fix>
</trkpt>
<trkpt lat="33.8102892" lon="-118.3938936">
  <ele>-0.109</ele>
  <time>2026-09-02T22:07:20Z</time>
  <course>186.83</course>
  <speed>0.7213875518748573</speed>
  <fix>3d</fix>
</trkpt>
<trkpt lat="33.8102903" lon="-118.3938923">
  <ele>-0.11</ele>
  <time>2026-09-02T22:07:20Z</time>
  <course>223.26</course>
  <speed>0.73</speed>
  <fix>3d</fix>
</trkpt>
<trkpt lat="33.8102892" lon="-118.3938936">
  <ele>-0.11</ele>
  <time>2026-09-02T22:07:20Z</time>
  <course>186.83</course>
  <speed>0.7213875518748573</speed>
  <fix>3d</fix>
</trkpt>
<trkpt lat="33.8102891" lon="-118.3938937">
  <ele>-0.109</ele>
  <time>2026-09-02T22:07:20Z</time>
  <course>186.83</course>
  <speed>0.7213875518748573</speed>
  <fix>3d</fix>
</trkpt>
<trkpt lat="33.810289" lon="-118.3938938">
  <ele>-0.109</ele>
  <time>2026-09-02T22:07:20Z</time>
  <course>186.83</course>
  <speed>0.7213875518748573</speed>
  <fix>3d</fix>
</trkpt>
<trkpt lat="33.810289" lon="-118.3938938">
  <ele>-0.109</ele>
  <time>2026-09-02T22:07:20Z</time>
  <course>186.83</course>
  <speed>0.7213875518748573</speed>
  <fix>3d</fix>
</trkpt>
<trkpt lat="33.810289" lon="-118.3938939">
  <ele>-0.109</ele>
  <time>2026-09-02T22:07:20Z</time>
  <course>186.83</course>
  <speed>0.7213875518748573</speed>
  <fix>3d</fix>
</trkpt>
<trkpt lat="33.8102889" lon="-118.3938939">
  <ele>-0.109</ele>
  <time>2026-09-02T22:07:20Z</time>
  <course>186.83</course>
  <speed>0.7213875518748573</speed>
  <fix>3d</fix>
</trkpt>
<trkpt lat="33.8102889" lon="-118.3938939">
  <ele>-0.109</ele>
  <time>2026-09-02T22:07:20Z</time>
  <course>186.83</course>
  <speed>0.7213875518748573</speed>
  <fix>3d</fix>
</trkpt>
<trkpt lat="33.8102889" lon="-118.393894">
  <ele>-0.109</ele>
  <time>2026-09-02T22:07:20Z</time>
  <course>186.83</course>
  <speed>0.7213875518748573</speed>
  <fix>3d</fix>
</trkpt>
<trkpt lat="33.8102888" lon="-118.393894">
  <ele>-0.108</ele>
  <time>2026-09-02T22:07:20Z</time>
  <course>186.83</course>
  <speed>0.7213875518748573</speed>
  <fix>3d</fix>
</trkpt>
<trkpt lat="33.8102888" lon="-118.3938941">
  <ele>-0.108</ele>
  <time>2026-09-02T22:07:20Z</time>
  <course>186.83</course>
  <speed>0.7213875518748573</speed>
  <fix>3d</fix>
</trkpt>
<trkpt lat="33.8102887" lon="-118.3938941">
  <ele>-0.108</ele>
  <time>2026-09-02T22:07:20Z</time>
  <course>186.83</course>
  <speed>0.7213875518748573</speed>
  <fix>3d</fix>
</trkpt>
<trkpt lat="33.8102887" lon="-118.3938942">
  <ele>-0.108</ele>
  <time>2026-09-02T22:07:20Z</time>
  <course>186.83</course>
  <speed>0.7213875518748573</speed>
  <fix>3d</fix>
</trkpt>
<trkpt lat="33.8102887" lon="-118.3938942">
  <ele>-0.108</ele>
  <time>2026-09-02T22:07:20Z</time>
  <course>186.83</course>
  <speed>0.7213875518748573</speed>
  <fix>3d</fix>
</trkpt>
<trkpt lat="33.8102892" lon="-118.3938934">
  <ele>-0.11</ele>
  <time>2026-09-02T22:07:20Z</time>
  <course>223.26</course>
  <speed>0.73</speed>
  <fix>3d</fix>
</trkpt>
<trkpt lat="33.8102886" lon="-118.3938942">
  <ele>-0.107</ele>
  <time>2026-09-02T22:07:20Z</time>
  <course>186.83</course>
  <speed>0.7213875518748573</speed>
  <fix>3d</fix>
</trkpt>
<trkpt lat="33.8102886" lon="-118.3938943">
  <ele>-0.107</ele>
  <time>2026-09-02T22:07:20Z</time>
  <course>186.83</course>
  <speed>0.7213875518748573</speed>
  <fix>3d</fix>
</trkpt>
<trkpt lat="33.8102885" lon="-118.3938943">
  <ele>-0.107</ele>
  <time>2026-09-02T22:07:20Z</time>
  <course>186.83</course>
  <speed>0.7213875518748573</speed>
  <fix>3d</fix>
</trkpt>
<trkpt lat="33.8102885" lon="-118.3938944">
  <ele>-0.107</ele>
  <time>2026-09-02T22:07:20Z</time>
  <course>186.83</course>
  <speed>0.7213875518748573</speed>
  <fix>3d</fix>
</trkpt>
<trkpt lat="33.8102885" lon="-118.3938944">
  <ele>-0.107</ele>
  <time>2026-09-02T22:07:20Z</time>
  <course>186.83</course>
  <speed>0.7213875518748573</speed>
  <fix>3d</fix>
</trkpt>
<trkpt lat="33.8102884" lon="-118.3938945">
  <ele>-0.107</ele>
  <time>2026-09-02T22:07:20Z</time>
  <course>186.83</course>
  <speed>0.7213875518748573</speed>
  <fix>3d</fix>
</trkpt>
<trkpt lat="33.8102884" lon="-118.3938945">
  <ele>-0.107</ele>
  <time>2026-09-02T22:07:20Z</time>
  <course>186.83</course>
  <speed>0.7213875518748573</speed>
  <fix>3d</fix>
</trkpt>
<trkpt lat="33.8102884" lon="-118.3938946">
  <ele>-0.106</ele>
  <time>2026-09-02T22:07:20Z</time>
  <course>186.83</course>
  <speed>0.7213875518748573</speed>
  <fix>3d</fix>
</trkpt>
<trkpt lat="33.8102883" lon="-118.3938946">
  <ele>-0.106</ele>
  <time>2026-09-02T22:07:20Z</time>
  <course>186.83</course>
  <speed>0.7283543093852057</speed>
  <fix>3d</fix>
</trkpt>
<trkpt lat="33.8102883" lon="-118.3938946">
  <ele>-0.106</ele>
  <time>2026-09-02T22:07:20Z</time>
  <course>186.83</course>
  <speed>0.7283543093852057</speed>
  <fix>3d</fix>
</trkpt>
<trkpt lat="33.8102882" lon="-118.3938947">
  <ele>-0.106</ele>
  <time>2026-09-02T22:07:20Z</time>
  <course>186.83</course>
  <speed>0.7283543093852057</speed>
  <fix>3d</fix>
</trkpt>
<trkpt lat="33.8102882" lon="-118.3938947">
  <ele>-0.106</ele>
  <time>2026-09-02T22:07:20Z</time>
  <course>186.83</course>
  <speed>0.7283543093852057</speed>
  <fix>3d</fix>
</trkpt>
<trkpt lat="33.8102892" lon="-118.3938934">
  <ele>-0.11</ele>
  <time>2026-09-02T22:07:20Z</time>
  <course>223.26</course>
  <speed>0.73</speed>
  <fix>3d</fix>
</trkpt>
<trkpt lat="33.8102882" lon="-118.3938947">
  <ele>-0.106</ele>
  <time>2026-09-02T22:07:20Z</time>
  <course>186.83</course>
  <speed>0.7283543093852057</speed>
  <fix>3d</fix>
</trkpt>
<trkpt lat="33.8102881" lon="-118.3938948">
  <ele>-0.106</ele>
  <time>2026-09-02T22:07:20Z</time>
  <course>186.83</course>
  <speed>0.7283543093852057</speed>
  <fix>3d</fix>
</trkpt>
<trkpt lat="33.8102881" lon="-118.3938949">
  <ele>-0.106</ele>
  <time>2026-09-02T22:07:20Z</time>
  <course>186.83</course>
  <speed>0.7283543093852057</speed>
  <fix>3d</fix>
</trkpt>
<trkpt lat="33.8102881" lon="-118.3938949">
  <ele>-0.106</ele>
  <time>2026-09-02T22:07:20Z</time>
  <course>186.83</course>
  <speed>0.7283543093852057</speed>
  <fix>3d</fix>
</trkpt>
<trkpt lat="33.810288" lon="-118.3938949">
  <ele>-0.105</ele>
  <time>2026-09-02T22:07:20Z</time>
  <course>186.83</course>
  <speed>0.7283543093852057</speed>
  <fix>3d</fix>
</trkpt>
<trkpt lat="33.810288" lon="-118.393895">
  <ele>-0.105</ele>
  <time>2026-09-02T22:07:20Z</time>
  <course>186.83</course>
  <speed>0.7283543093852057</speed>
  <fix>3d</fix>
</trkpt>
<trkpt lat="33.8102879" lon="-118.393895">
  <ele>-0.105</ele>
  <time>2026-09-02T22:07:20Z</time>
  <course>186.83</course>
  <speed>0.7283543093852057</speed>
  <fix>3d</fix>
</trkpt>
<trkpt lat="33.8102879" lon="-118.3938951">
  <ele>-0.105</ele>
  <time>2026-09-02T22:07:20Z</time>
  <course>186.83</course>
  <speed>0.7283543093852057</speed>
  <fix>3d</fix>
</trkpt>
<trkpt lat="33.8102879" lon="-118.3938951">
  <ele>-0.105</ele>
  <time>2026-09-02T22:07:20Z</time>
  <course>186.83</course>
  <speed>0.7283543093852057</speed>
  <fix>3d</fix>
</trkpt>
<trkpt lat="33.8102878" lon="-118.3938951">
  <ele>-0.105</ele>
  <time>2026-09-02T22:07:20Z</time>
  <course>186.83</course>
  <speed>0.7283543093852057</speed>
  <fix>3d</fix>
</trkpt>
<trkpt lat="33.8102878" lon="-118.3938952">
  <ele>-0.105</ele>
  <time>2026-09-02T22:07:20Z</time>
  <course>186.83</course>
  <speed>0.7283543093852057</speed>
  <fix>3d</fix>
</trkpt>
<trkpt lat="33.8102878" lon="-118.3938952">
  <ele>-0.105</ele>
  <time>2026-09-02T22:07:20Z</time>
  <course>186.83</course>
  <speed>0.7283543093852057</speed>
  <fix>3d</fix>
</trkpt>
<trkpt lat="33.8102877" lon="-118.3938953">
  <ele>-0.105</ele>
  <time>2026-09-02T22:07:20Z</time>
  <course>186.82</course>
  <speed>0.7283543093852057</speed>
  <fix>3d</fix>
</trkpt>
<trkpt lat="33.8102877" lon="-118.3938953">
  <ele>-0.105</ele>
  <time>2026-09-02T22:07:20Z</time>
  <course>186.82</course>
  <speed>0.7283543093852057</speed>
  <fix>3d</fix>
</trkpt>
<trkpt lat="33.8102883" lon="-118.3938945">
  <ele>-0.1</ele>
  <time>2026-09-02T22:07:20Z</time>
  <course>223.26</course>
  <speed>0.73</speed>
  <fix>3d</fix>
</trkpt>
<trkpt lat="33.8102877" lon="-118.3938953">
  <ele>-0.105</ele>
  <time>2026-09-02T22:07:20Z</time>
  <course>186.82</course>
  <speed>0.7283543093852057</speed>
  <fix>3d</fix>
</trkpt>
<trkpt lat="33.8102876" lon="-118.3938954">
  <ele>-0.105</ele>
  <time>2026-09-02T22:07:20Z</time>
  <course>186.82</course>
  <speed>0.7283543093852057</speed>
  <fix>3d</fix>
</trkpt>
<trkpt lat="33.8102876" lon="-118.3938954">
  <ele>-0.105</ele>
  <time>2026-09-02T22:07:20Z</time>
  <course>186.82</course>
  <speed>0.7283543093852057</speed>
  <fix>3d</fix>
</trkpt>
<trkpt lat="33.8102876" lon="-118.3938955">
  <ele>-0.105</ele>
  <time>2026-09-02T22:07:20Z</time>
  <course>186.82</course>
  <speed>0.7283543093852057</speed>
  <fix>3d</fix>
</trkpt>
<trkpt lat="33.8102875" lon="-118.3938955">
  <ele>-0.105</ele>
  <time>2026-09-02T22:07:20Z</time>
  <course>186.82</course>
  <speed>0.7283543093852057</speed>
  <fix>3d</fix>
</trkpt>
<trkpt lat="33.8102875" lon="-118.3938955">
  <ele>-0.105</ele>
  <time>2026-09-02T22:07:20Z</time>
  <course>186.82</course>
  <speed>0.7283543093852057</speed>
  <fix>3d</fix>
</trkpt>
<trkpt lat="33.8102875" lon="-118.3938956">
  <ele>-0.105</ele>
  <time>2026-09-02T22:07:20Z</time>
  <course>186.82</course>
  <speed>0.7283543093852057</speed>
  <fix>3d</fix>
</trkpt>
<trkpt lat="33.8102875" lon="-118.3938956">
  <ele>-0.105</ele>
  <time>2026-09-02T22:07:20Z</time>
  <course>186.82</course>
  <speed>0.7283543093852057</speed>
  <fix>3d</fix>
</trkpt>
<trkpt lat="33.8102874" lon="-118.3938956">
  <ele>-0.105</ele>
  <time>2026-09-02T22:07:20Z</time>
  <course>186.82</course>
  <speed>0.7283543093852057</speed>
  <fix>3d</fix>
</trkpt>
<trkpt lat="33.8102874" lon="-118.3938957">
  <ele>-0.105</ele>
  <time>2026-09-02T22:07:20Z</time>
  <course>186.82</course>
  <speed>0.7283543093852057</speed>
  <fix>3d</fix>
</trkpt>
<trkpt lat="33.8102874" lon="-118.3938957">
  <ele>-0.106</ele>
  <time>2026-09-02T22:07:20Z</time>
  <course>186.82</course>
  <speed>0.7283543093852057</speed>
  <fix>3d</fix>
</trkpt>
<trkpt lat="33.8102873" lon="-118.3938957">
  <ele>-0.106</ele>
  <time>2026-09-02T22:07:20Z</time>
  <course>186.82</course>
  <speed>0.7283543093852057</speed>
  <fix>3d</fix>
</trkpt>
<trkpt lat="33.8102873" lon="-118.3938958">
  <ele>-0.106</ele>
  <time>2026-09-02T22:07:20Z</time>
  <course>186.82</course>
  <speed>0.7283543093852057</speed>
  <fix>3d</fix>
</trkpt>
<trkpt lat="33.8102873" lon="-118.3938958">
  <ele>-0.106</ele>
  <time>2026-09-02T22:07:20Z</time>
  <course>186.82</course>
  <speed>0.7283543093852057</speed>
  <fix>3d</fix>
</trkpt>
<trkpt lat="33.8102873" lon="-118.3938958">
  <ele>-0.106</ele>
  <time>2026-09-02T22:07:20Z</time>
  <course>186.82</course>
  <speed>0.7283543093852057</speed>
  <fix>3d</fix>
</trkpt>
<trkpt lat="33.8102883" lon="-118.3938945">
  <ele>-0.1</ele>
  <time>2026-09-02T22:07:20Z</time>
  <course>223.26</course>
  <speed>0.73</speed>
  <fix>3d</fix>
</trkpt>
<trkpt lat="33.8102872" lon="-118.3938958">
  <ele>-0.106</ele>
  <time>2026-09-02T22:07:20Z</time>
  <course>186.82</course>
  <speed>0.7283543093852057</speed>
  <fix>3d</fix>
</trkpt>
<trkpt lat="33.8102872" lon="-118.3938959">
  <ele>-0.106</ele>
  <time>2026-09-02T22:07:20Z</time>
  <course>186.82</course>
  <speed>0.7283543093852057</speed>
  <fix>3d</fix>
</trkpt>
<trkpt lat="33.8102872" lon="-118.3938959">
  <ele>-0.107</ele>
  <time>2026-09-02T22:07:20Z</time>
  <course>186.82</course>
  <speed>0.7283543093852057</speed>
  <fix>3d</fix>
</trkpt>
<trkpt lat="33.8102871" lon="-118.3938959">
  <ele>-0.107</ele>
  <time>2026-09-02T22:07:20Z</time>
  <course>186.82</course>
  <speed>0.7283543093852057</speed>
  <fix>3d</fix>
</trkpt>
<trkpt lat="33.8102871" lon="-118.393896">
  <ele>-0.107</ele>
  <time>2026-09-02T22:07:20Z</time>
  <course>186.82</course>
  <speed>0.7283543093852057</speed>
  <fix>3d</fix>
</trkpt>
<trkpt lat="33.8102871" lon="-118.393896">
  <ele>-0.107</ele>
  <time>2026-09-02T22:07:20Z</time>
  <course>186.82</course>
  <speed>0.7283543093852057</speed>
  <fix>3d</fix>
</trkpt>
<trkpt lat="33.8102871" lon="-118.393896">
  <ele>-0.108</ele>
  <time>2026-09-02T22:07:20Z</time>
  <course>186.82</course>
  <speed>0.7283543093852057</speed>
  <fix>3d</fix>
</trkpt>
<trkpt lat="33.810287" lon="-118.3938961">
  <ele>-0.108</ele>
  <time>2026-09-02T22:07:20Z</time>
  <course>186.82</course>
  <speed>0.7283543093852057</speed>
  <fix>3d</fix>
</trkpt>
<trkpt lat="33.810287" lon="-118.3938961">
  <ele>-0.108</ele>
  <time>2026-09-02T22:07:20Z</time>
  <course>186.82</course>
  <speed>0.7283543093852057</speed>
  <fix>3d</fix>
</trkpt>
<trkpt lat="33.810287" lon="-118.3938961">
  <ele>-0.108</ele>
  <time>2026-09-02T22:07:20Z</time>
  <course>186.82</course>
  <speed>0.7283543093852057</speed>
  <fix>3d</fix>
</trkpt>
<trkpt lat="33.8102869" lon="-118.3938962">
  <ele>-0.109</ele>
  <time>2026-09-02T22:07:20Z</time>
  <course>186.82</course>
  <speed>0.7283543093852057</speed>
  <fix>3d</fix>
</trkpt>
<trkpt lat="33.8102869" lon="-118.3938962">
  <ele>-0.109</ele>
  <time>2026-09-02T22:07:20Z</time>
  <course>186.82</course>
  <speed>0.7283543093852057</speed>
  <fix>3d</fix>
</trkpt>
<trkpt lat="33.8102869" lon="-118.3938963">
  <ele>-0.109</ele>
  <time>2026-09-02T22:07:20Z</time>
  <course>186.82</course>
  <speed>0.7283543093852057</speed>
  <fix>3d</fix>
</trkpt>
<trkpt lat="33.8102868" lon="-118.3938963">
  <ele>-0.11</ele>
  <time>2026-09-02T22:07:20Z</time>
  <course>186.82</course>
  <speed>0.7283543093852057</speed>
  <fix>3d</fix>
</trkpt>
<trkpt lat="33.8102868" lon="-118.3938963">
  <ele>-0.11</ele>
  <time>2026-09-02T22:07:20Z</time>
  <course>186.82</course>
  <speed>0.7283543093852057</speed>
  <fix>3d</fix>
</trkpt>
<trkpt lat="33.8102868" lon="-118.3938964">
  <ele>-0.11</ele>
  <time>2026-09-02T22:07:20Z</time>
  <course>186.82</course>
  <speed>0.7283543093852057</speed>
  <fix>3d</fix>
</trkpt>
<trkpt lat="33.8102868" lon="-118.3938964">
  <ele>-0.11</ele>
  <time>2026-09-02T22:07:20Z</time>
  <course>186.82</course>
  <speed>0.7283543093852057</speed>
  <fix>3d</fix>
</trkpt>
<trkpt lat="33.8102874" lon="-118.3938956">
  <ele>-0.1</ele>
  <time>2026-09-02T22:07:20Z</time>
  <course>223.26</course>
  <speed>0.73</speed>
  <fix>3d</fix>
</trkpt>
<trkpt lat="33.8102867" lon="-118.3938964">
  <ele>-0.111</ele>
  <time>2026-09-02T22:07:20Z</time>
  <course>186.82</course>
  <speed>0.7283543093852057</speed>
  <fix>3d</fix>
</trkpt>
<trkpt lat="33.8102867" lon="-118.3938965">
  <ele>-0.111</ele>
  <time>2026-09-02T22:07:20Z</time>
  <course>186.82</course>
  <speed>0.7283543093852057</speed>
  <fix>3d</fix>
</trkpt>
<trkpt lat="33.8102867" lon="-118.3938965">
  <ele>-0.111</ele>
  <time>2026-09-02T22:07:20Z</time>
  <course>186.82</course>
  <speed>0.7283543093852057</speed>
  <fix>3d</fix>
</trkpt>
<trkpt lat="33.8102866" lon="-118.3938965">
  <ele>-0.112</ele>
  <time>2026-09-02T22:07:20Z</time>
  <course>186.82</course>
  <speed>0.7283543093852057</speed>
  <fix>3d</fix>
</trkpt>
<trkpt lat="33.8102866" lon="-118.3938966">
  <ele>-0.112</ele>
  <time>2026-09-02T22:07:20Z</time>
  <course>186.82</course>
  <speed>0.7283543093852057</speed>
  <fix>3d</fix>
</trkpt>
<trkpt lat="33.8102866" lon="-118.3938966">
  <ele>-0.113</ele>
  <time>2026-09-02T22:07:20Z</time>
  <course>186.82</course>
  <speed>0.7283543093852057</speed>
  <fix>3d</fix>
</trkpt>
<trkpt lat="33.8102865" lon="-118.3938967">
  <ele>-0.113</ele>
  <time>2026-09-02T22:07:20Z</time>
  <course>186.82</course>
  <speed>0.7283543093852057</speed>
  <fix>3d</fix>
</trkpt>
<trkpt lat="33.8102865" lon="-118.3938967">
  <ele>-0.113</ele>
  <time>2026-09-02T22:07:20Z</time>
  <course>186.82</course>
  <speed>0.7283543093852057</speed>
  <fix>3d</fix>
</trkpt>
<trkpt lat="33.8102865" lon="-118.3938967">
  <ele>-0.114</ele>
  <time>2026-09-02T22:07:20Z</time>
  <course>186.82</course>
  <speed>0.7283543093852057</speed>
  <fix>3d</fix>
</trkpt>
<trkpt lat="33.8102864" lon="-118.3938968">
  <ele>-0.114</ele>
  <time>2026-09-02T22:07:20Z</time>
  <course>186.82</course>
  <speed>0.7283543093852057</speed>
  <fix>3d</fix>
</trkpt>
<trkpt lat="33.8102864" lon="-118.3938968">
  <ele>-0.114</ele>
  <time>2026-09-02T22:07:20Z</time>
  <course>186.81</course>
  <speed>0.7283543093852057</speed>
  <fix>3d</fix>
</trkpt>
<trkpt lat="33.8102864" lon="-118.3938968">
  <ele>-0.115</ele>
  <time>2026-09-02T22:07:20Z</time>
  <course>186.81</course>
  <speed>0.7283543093852057</speed>
  <fix>3d</fix>
</trkpt>
<trkpt lat="33.8102863" lon="-118.3938969">
  <ele>-0.115</ele>
  <time>2026-09-02T22:07:20Z</time>
  <course>186.81</course>
  <speed>0.7283543093852057</speed>
  <fix>3d</fix>
</trkpt>
<trkpt lat="33.8102863" lon="-118.3938969">
  <ele>-0.115</ele>
  <time>2026-09-02T22:07:20Z</time>
  <course>186.81</course>
  <speed>0.7283543093852057</speed>
  <fix>3d</fix>
</trkpt>
<trkpt lat="33.8102863" lon="-118.3938969">
  <ele>-0.115</ele>
  <time>2026-09-02T22:07:20Z</time>
  <course>186.81</course>
  <speed>0.7283543093852057</speed>
  <fix>3d</fix>
</trkpt>
<trkpt lat="33.8102874" lon="-118.3938956">
  <ele>-0.1</ele>
  <time>2026-09-02T22:07:20Z</time>
  <course>223.26</course>
  <speed>0.73</speed>
  <fix>3d</fix>
</trkpt>
<trkpt lat="33.8102862" lon="-118.393897">
  <ele>-0.116</ele>
  <time>2026-09-02T22:07:20Z</time>
  <course>186.81</course>
  <speed>0.7283543093852057</speed>
  <fix>3d</fix>
</trkpt>
<trkpt lat="33.8102862" lon="-118.393897">
  <ele>-0.116</ele>
  <time>2026-09-02T22:07:20Z</time>
  <course>186.81</course>
  <speed>0.7283543093852057</speed>
  <fix>3d</fix>
</trkpt>
<trkpt lat="33.8102862" lon="-118.3938971">
  <ele>-0.117</ele>
  <time>2026-09-02T22:07:20Z</time>
  <course>186.81</course>
  <speed>0.7283543093852057</speed>
  <fix>3d</fix>
</trkpt>
<trkpt lat="33.8102861" lon="-118.3938971">
  <ele>-0.117</ele>
  <time>2026-09-02T22:07:20Z</time>
  <course>186.81</course>
  <speed>0.7283543093852057</speed>
  <fix>3d</fix>
</trkpt>
<trkpt lat="33.8102861" lon="-118.3938971">
  <ele>-0.117</ele>
  <time>2026-09-02T22:07:20Z</time>
  <course>186.81</course>
  <speed>0.7283543093852057</speed>
  <fix>3d</fix>
</trkpt>
<trkpt lat="33.8102861" lon="-118.3938972">
  <ele>-0.117</ele>
  <time>2026-09-02T22:07:20Z</time>
  <course>186.81</course>
  <speed>0.7283543093852057</speed>
  <fix>3d</fix>
</trkpt>
<trkpt lat="33.8102861" lon="-118.3938972">
  <ele>-0.118</ele>
  <time>2026-09-02T22:07:20Z</time>
  <course>186.81</course>
  <speed>0.7283543093852057</speed>
  <fix>3d</fix>
</trkpt>
<trkpt lat="33.810286" lon="-118.3938972">
  <ele>-0.118</ele>
  <time>2026-09-02T22:07:20Z</time>
  <course>186.81</course>
  <speed>0.7283543093852057</speed>
  <fix>3d</fix>
</trkpt>
<trkpt lat="33.810286" lon="-118.3938973">
  <ele>-0.118</ele>
  <time>2026-09-02T22:07:20Z</time>
  <course>186.81</course>
  <speed>0.7283543093852057</speed>
  <fix>3d</fix>
</trkpt>
<trkpt lat="33.810286" lon="-118.3938973">
  <ele>-0.118</ele>
  <time>2026-09-02T22:07:20Z</time>
  <course>186.81</course>
  <speed>0.7283543093852057</speed>
  <fix>3d</fix>
</trkpt>
<trkpt lat="33.8102859" lon="-118.3938973">
  <ele>-0.119</ele>
  <time>2026-09-02T22:07:20Z</time>
  <course>186.81</course>
  <speed>0.7283543093852057</speed>
  <fix>3d</fix>
</trkpt>
<trkpt lat="33.8102859" lon="-118.3938974">
  <ele>-0.119</ele>
  <time>2026-09-02T22:07:20Z</time>
  <course>186.81</course>
  <speed>0.7283543093852057</speed>
  <fix>3d</fix>
</trkpt>
<trkpt lat="33.8102859" lon="-118.3938974">
  <ele>-0.119</ele>
  <time>2026-09-02T22:07:20Z</time>
  <course>186.81</course>
  <speed>0.7283543093852057</speed>
  <fix>3d</fix>
</trkpt>
<trkpt lat="33.8102858" lon="-118.3938974">
  <ele>-0.119</ele>
  <time>2026-09-02T22:07:20Z</time>
  <course>186.81</course>
  <speed>0.7283543093852057</speed>
  <fix>3d</fix>
</trkpt>
<trkpt lat="33.8102858" lon="-118.3938975">
  <ele>-0.12</ele>
  <time>2026-09-02T22:07:20Z</time>
  <course>186.81</course>
  <speed>0.7283543093852057</speed>
  <fix>3d</fix>
</trkpt>
<trkpt lat="33.8102863" lon="-118.3938967">
  <ele>-0.1</ele>
  <time>2026-09-02T22:07:20Z</time>
  <course>223.26</course>
  <speed>0.73</speed>
  <fix>3d</fix>
</trkpt>
<trkpt lat="33.8102858" lon="-118.3938975">
  <ele>-0.12</ele>
  <time>2026-09-02T22:07:20Z</time>
  <course>186.81</course>
  <speed>0.7283543093852057</speed>
  <fix>3d</fix>
</trkpt>
<trkpt lat="33.8102858" lon="-118.3938975">
  <ele>-0.12</ele>
  <time>2026-09-02T22:07:20Z</time>
  <course>186.81</course>
  <speed>0.7283543093852057</speed>
  <fix>3d</fix>
</trkpt>
<trkpt lat="33.8102858" lon="-118.3938975">
  <ele>-0.12</ele>
  <time>2026-09-02T22:07:20Z</time>
  <course>186.81</course>
  <speed>0.7283543093852057</speed>
  <fix>3d</fix>
</trkpt>
<trkpt lat="33.8102857" lon="-118.3938976">
  <ele>-0.12</ele>
  <time>2026-09-02T22:07:20Z</time>
  <course>186.81</course>
  <speed>0.7283543093852057</speed>
  <fix>3d</fix>
</trkpt>
<trkpt lat="33.8102857" lon="-118.3938976">
  <ele>-0.121</ele>
  <time>2026-09-02T22:07:20Z</time>
  <course>186.81</course>
  <speed>0.7283543093852057</speed>
  <fix>3d</fix>
</trkpt>
<trkpt lat="33.8102856" lon="-118.3938977">
  <ele>-0.121</ele>
  <time>2026-09-02T22:07:20Z</time>
  <course>186.81</course>
  <speed>0.7283543093852057</speed>
  <fix>3d</fix>
</trkpt>
<trkpt lat="33.8102856" lon="-118.3938977">
  <ele>-0.121</ele>
  <time>2026-09-02T22:07:20Z</time>
  <course>186.81</course>
  <speed>0.7283543093852057</speed>
  <fix>3d</fix>
</trkpt>
<trkpt lat="33.8102856" lon="-118.3938977">
  <ele>-0.121</ele>
  <time>2026-09-02T22:07:20Z</time>
  <course>186.81</course>
  <speed>0.7283543093852057</speed>
  <fix>3d</fix>
</trkpt>
<trkpt lat="33.8102855" lon="-118.3938978">
  <ele>-0.121</ele>
  <time>2026-09-02T22:07:20Z</time>
  <course>186.81</course>
  <speed>0.7283543093852057</speed>
  <fix>3d</fix>
</trkpt>
<trkpt lat="33.8102855" lon="-118.3938978">
  <ele>-0.121</ele>
  <time>2026-09-02T22:07:20Z</time>
  <course>186.81</course>
  <speed>0.7283543093852057</speed>
  <fix>3d</fix>
</trkpt>
<trkpt lat="33.8102855" lon="-118.3938979">
  <ele>-0.121</ele>
  <time>2026-09-02T22:07:20Z</time>
  <course>186.81</course>
  <speed>0.7283543093852057</speed>
  <fix>3d</fix>
</trkpt>
<trkpt lat="33.8102854" lon="-118.3938979">
  <ele>-0.121</ele>
  <time>2026-09-02T22:07:20Z</time>
  <course>186.81</course>
  <speed>0.7283543093852057</speed>
  <fix>3d</fix>
</trkpt>
<trkpt lat="33.8102854" lon="-118.393898">
  <ele>-0.122</ele>
  <time>2026-09-02T22:07:20Z</time>
  <course>186.81</course>
  <speed>0.7283543093852057</speed>
  <fix>3d</fix>
</trkpt>
<trkpt lat="33.8102853" lon="-118.393898">
  <ele>-0.122</ele>
  <time>2026-09-02T22:07:20Z</time>
  <course>186.81</course>
  <speed>0.7283543093852057</speed>
  <fix>3d</fix>
</trkpt>
<trkpt lat="33.8102853" lon="-118.393898">
  <ele>-0.122</ele>
  <time>2026-09-02T22:07:20Z</time>
  <course>186.81</course>
  <speed>0.7283543093852057</speed>
  <fix>3d</fix>
</trkpt>
<trkpt lat="33.8102863" lon="-118.3938967">
  <ele>-0.1</ele>
  <time>2026-09-02T22:07:20Z</time>
  <course>223.26</course>
  <speed>0.73</speed>
  <fix>3d</fix>
</trkpt>
<trkpt lat="33.8102853" lon="-118.3938981">
  <ele>-0.122</ele>
  <time>2026-09-02T22:07:20Z</time>
  <course>186.81</course>
  <speed>0.7283543093852057</speed>
  <fix>3d</fix>
</trkpt>
<trkpt lat="33.8102852" lon="-118.3938981">
  <ele>-0.122</ele>
  <time>2026-09-02T22:07:20Z</time>
  <course>186.81</course>
  <speed>0.7283543093852057</speed>
  <fix>3d</fix>
</trkpt>
<trkpt lat="33.8102852" lon="-118.3938982">
  <ele>-0.122</ele>
  <time>2026-09-02T22:07:20Z</time>
  <course>186.81</course>
  <speed>0.7283543093852057</speed>
  <fix>3d</fix>
</trkpt>
<trkpt lat="33.8102851" lon="-118.3938982">
  <ele>-0.122</ele>
  <time>2026-09-02T22:07:20Z</time>
  <course>186.81</course>
  <speed>0.7283543093852057</speed>
  <fix>3d</fix>
</trkpt>
<trkpt lat="33.8102851" lon="-118.3938983">
  <ele>-0.122</ele>
  <time>2026-09-02T22:07:20Z</time>
  <course>186.81</course>
  <speed>0.7283543093852057</speed>
  <fix>3d</fix>
</trkpt>
<trkpt lat="33.8102851" lon="-118.3938983">
  <ele>-0.122</ele>
  <time>2026-09-02T22:07:20Z</time>
  <course>186.81</course>
  <speed>0.7283543093852057</speed>
  <fix>3d</fix>
</trkpt>
<trkpt lat="33.810285" lon="-118.3938984">
  <ele>-0.122</ele>
  <time>2026-09-02T22:07:20Z</time>
  <course>186.81</course>
  <speed>0.7283543093852057</speed>
  <fix>3d</fix>
</trkpt>
<trkpt lat="33.810285" lon="-118.3938984">
  <ele>-0.121</ele>
  <time>2026-09-02T22:07:20Z</time>
  <course>186.81</course>
  <speed>0.7283543093852057</speed>
  <fix>3d</fix>
</trkpt>
<trkpt lat="33.8102849" lon="-118.3938985">
  <ele>-0.121</ele>
  <time>2026-09-02T22:07:20Z</time>
  <course>186.8</course>
  <speed>0.7283543093852057</speed>
  <fix>3d</fix>
</trkpt>
<trkpt lat="33.8102849" lon="-118.3938985">
  <ele>-0.121</ele>
  <time>2026-09-02T22:07:20Z</time>
  <course>186.8</course>
  <speed>0.7283543093852057</speed>
  <fix>3d</fix>
</trkpt>
<trkpt lat="33.8102849" lon="-118.3938985">
  <ele>-0.121</ele>
  <time>2026-09-02T22:07:20Z</time>
  <course>186.8</course>
  <speed>0.7283543093852057</speed>
  <fix>3d</fix>
</trkpt>
<trkpt lat="33.8102849" lon="-118.3938986">
  <ele>-0.121</ele>
  <time>2026-09-02T22:07:20Z</time>
  <course>186.8</course>
  <speed>0.7283543093852057</speed>
  <fix>3d</fix>
</trkpt>
<trkpt lat="33.8102854" lon="-118.3938978">
  <ele>-0.11</ele>
  <time>2026-09-02T22:07:20Z</time>
  <course>223.26</course>
  <speed>0.73</speed>
  <fix>3d</fix>
</trkpt>
<trkpt lat="33.8102848" lon="-118.3938986">
  <ele>-0.121</ele>
  <time>2026-09-02T22:07:20Z</time>
  <course>186.8</course>
  <speed>0.7283543093852057</speed>
  <fix>3d</fix>
</trkpt>
<trkpt lat="33.8102848" lon="-118.3938987">
  <ele>-0.121</ele>
  <time>2026-09-02T22:07:20Z</time>
  <course>186.8</course>
  <speed>0.7283543093852057</speed>
  <fix>3d</fix>
</trkpt>
<trkpt lat="33.8102847" lon="-118.3938987">
  <ele>-0.121</ele>
  <time>2026-09-02T22:07:20Z</time>
  <course>186.8</course>
  <speed>0.7283543093852057</speed>
  <fix>3d</fix>
</trkpt>
<trkpt lat="33.8102847" lon="-118.3938987">
  <ele>-0.12</ele>
  <time>2026-09-02T22:07:20Z</time>
  <course>186.8</course>
  <speed>0.7283543093852057</speed>
  <fix>3d</fix>
</trkpt>
<trkpt lat="33.8102847" lon="-118.3938988">
  <ele>-0.12</ele>
  <time>2026-09-02T22:07:20Z</time>
  <course>186.8</course>
  <speed>0.7283543093852057</speed>
  <fix>3d</fix>
</trkpt>
<trkpt lat="33.8102846" lon="-118.3938988">
  <ele>-0.12</ele>
  <time>2026-09-02T22:07:20Z</time>
  <course>186.8</course>
  <speed>0.7283543093852057</speed>
  <fix>3d</fix>
</trkpt>
<trkpt lat="33.8102846" lon="-118.3938989">
  <ele>-0.12</ele>
  <time>2026-09-02T22:07:20Z</time>
  <course>186.8</course>
  <speed>0.7283543093852057</speed>
  <fix>3d</fix>
</trkpt>
<trkpt lat="33.8102845" lon="-118.3938989">
  <ele>-0.119</ele>
  <time>2026-09-02T22:07:20Z</time>
  <course>186.8</course>
  <speed>0.7283543093852057</speed>
  <fix>3d</fix>
</trkpt>
<trkpt lat="33.8102845" lon="-118.393899">
  <ele>-0.119</ele>
  <time>2026-09-02T22:07:20Z</time>
  <course>186.8</course>
  <speed>0.7283543093852057</speed>
  <fix>3d</fix>
</trkpt>
<trkpt lat="33.8102844" lon="-118.393899">
  <ele>-0.119</ele>
  <time>2026-09-02T22:07:20Z</time>
  <course>186.8</course>
  <speed>0.7283543093852057</speed>
  <fix>3d</fix>
</trkpt>
<trkpt lat="33.8102844" lon="-118.3938991">
  <ele>-0.119</ele>
  <time>2026-09-02T22:07:20Z</time>
  <course>186.8</course>
  <speed>0.7283543093852057</speed>
  <fix>3d</fix>
</trkpt>
<trkpt lat="33.8102844" lon="-118.3938991">
  <ele>-0.118</ele>
  <time>2026-09-02T22:07:20Z</time>
  <course>186.8</course>
  <speed>0.7283543093852057</speed>
  <fix>3d</fix>
</trkpt>
<trkpt lat="33.8102844" lon="-118.3938991">
  <ele>-0.118</ele>
  <time>2026-09-02T22:07:20Z</time>
  <course>186.8</course>
  <speed>0.7283543093852057</speed>
  <fix>3d</fix>
</trkpt>
<trkpt lat="33.8102854" lon="-118.3938978">
  <ele>-0.11</ele>
  <time>2026-09-02T22:07:20Z</time>
  <course>223.26</course>
  <speed>0.73</speed>
  <fix>3d</fix>
</trkpt>
<trkpt lat="33.8102843" lon="-118.3938992">
  <ele>-0.118</ele>
  <time>2026-09-02T22:07:20Z</time>
  <course>186.8</course>
  <speed>0.7283543093852057</speed>
  <fix>3d</fix>
</trkpt>
<trkpt lat="33.8102843" lon="-118.3938992">
  <ele>-0.118</ele>
  <time>2026-09-02T22:07:20Z</time>
  <course>186.8</course>
  <speed>0.7283543093852057</speed>
  <fix>3d</fix>
</trkpt>
<trkpt lat="33.8102842" lon="-118.3938993">
  <ele>-0.117</ele>
  <time>2026-09-02T22:07:20Z</time>
  <course>186.8</course>
  <speed>0.7283543093852057</speed>
  <fix>3d</fix>
</trkpt>
<trkpt lat="33.8102842" lon="-118.3938993">
  <ele>-0.117</ele>
  <time>2026-09-02T22:07:20Z</time>
  <course>186.8</course>
  <speed>0.7283543093852057</speed>
  <fix>3d</fix>
</trkpt>
<trkpt lat="33.8102842" lon="-118.3938994">
  <ele>-0.117</ele>
  <time>2026-09-02T22:07:20Z</time>
  <course>186.8</course>
  <speed>0.7283543093852057</speed>
  <fix>3d</fix>
</trkpt>
<trkpt lat="33.8102841" lon="-118.3938994">
  <ele>-0.116</ele>
  <time>2026-09-02T22:07:20Z</time>
  <course>186.8</course>
  <speed>0.7283543093852057</speed>
  <fix>3d</fix>
</trkpt>
<trkpt lat="33.8102841" lon="-118.3938995">
  <ele>-0.116</ele>
  <time>2026-09-02T22:07:20Z</time>
  <course>186.8</course>
  <speed>0.7283543093852057</speed>
  <fix>3d</fix>
</trkpt>
<trkpt lat="33.810284" lon="-118.3938995">
  <ele>-0.116</ele>
  <time>2026-09-02T22:07:20Z</time>
  <course>186.8</course>
  <speed>0.7283543093852057</speed>
  <fix>3d</fix>
</trkpt>
<trkpt lat="33.810284" lon="-118.3938996">
  <ele>-0.115</ele>
  <time>2026-09-02T22:07:20Z</time>
  <course>186.8</course>
  <speed>0.7283543093852057</speed>
  <fix>3d</fix>
</trkpt>
<trkpt lat="33.8102839" lon="-118.3938996">
  <ele>-0.115</ele>
  <time>2026-09-02T22:07:20Z</time>
  <course>186.8</course>
  <speed>0.7283543093852057</speed>
  <fix>3d</fix>
</trkpt>
<trkpt lat="33.8102839" lon="-118.3938997">
  <ele>-0.115</ele>
  <time>2026-09-02T22:07:20Z</time>
  <course>186.8</course>
  <speed>0.7283543093852057</speed>
  <fix>3d</fix>
</trkpt>
<trkpt lat="33.8102839" lon="-118.3938997">
  <ele>-0.115</ele>
  <time>2026-09-02T22:07:20Z</time>
  <course>186.8</course>
  <speed>0.7283543093852057</speed>
  <fix>3d</fix>
</trkpt>
<trkpt lat="33.8102844" lon="-118.3938989">
  <ele>-0.11</ele>
  <time>2026-09-02T22:07:20Z</time>
  <course>223.26</course>
  <speed>0.73</speed>
  <fix>3d</fix>
</trkpt>
<trkpt lat="33.8102838" lon="-118.3938997">
  <ele>-0.114</ele>
  <time>2026-09-02T22:07:20Z</time>
  <course>186.8</course>
  <speed>0.7283543093852057</speed>
  <fix>3d</fix>
</trkpt>
<trkpt lat="33.8102838" lon="-118.3938998">
  <ele>-0.114</ele>
  <time>2026-09-02T22:07:20Z</time>
  <course>186.8</course>
  <speed>0.7283543093852057</speed>
  <fix>3d</fix>
</trkpt>
<trkpt lat="33.8102837" lon="-118.3938998">
  <ele>-0.114</ele>
  <time>2026-09-02T22:07:20Z</time>
  <course>186.8</course>
  <speed>0.7283543093852057</speed>
  <fix>3d</fix>
</trkpt>
<trkpt lat="33.8102837" lon="-118.3938999">
  <ele>-0.113</ele>
  <time>2026-09-02T22:07:20Z</time>
  <course>186.8</course>
  <speed>0.7283543093852057</speed>
  <fix>3d</fix>
</trkpt>
<trkpt lat="33.8102836" lon="-118.3939">
  <ele>-0.113</ele>
  <time>2026-09-02T22:07:20Z</time>
  <course>186.8</course>
  <speed>0.7283543093852057</speed>
  <fix>3d</fix>
</trkpt>
<trkpt lat="33.8102836" lon="-118.3939">
  <ele>-0.112</ele>
  <time>2026-09-02T22:07:20Z</time>
  <course>186.8</course>
  <speed>0.7283543093852057</speed>
  <fix>3d</fix>
</trkpt>
<trkpt lat="33.8102836" lon="-118.3939">
  <ele>-0.112</ele>
  <time>2026-09-02T22:07:20Z</time>
  <course>186.79</course>
  <speed>0.7283543093852057</speed>
  <fix>3d</fix>
</trkpt>
<trkpt lat="33.8102835" lon="-118.3939001">
  <ele>-0.112</ele>
  <time>2026-09-02T22:07:20Z</time>
  <course>186.79</course>
  <speed>0.7283543093852057</speed>
  <fix>3d</fix>
</trkpt>
<trkpt lat="33.8102835" lon="-118.3939001">
  <ele>-0.111</ele>
  <time>2026-09-02T22:07:20Z</time>
  <course>186.79</course>
  <speed>0.7283543093852057</speed>
  <fix>3d</fix>
</trkpt>
<trkpt lat="33.8102835" lon="-118.3939002">
  <ele>-0.111</ele>
  <time>2026-09-02T22:07:20Z</time>
  <course>186.79</course>
  <speed>0.7283543093852057</speed>
  <fix>3d</fix>
</trkpt>
<trkpt lat="33.8102834" lon="-118.3939002">
  <ele>-0.111</ele>
  <time>2026-09-02T22:07:20Z</time>
  <course>186.79</course>
  <speed>0.7283543093852057</speed>
  <fix>3d</fix>
</trkpt>
<trkpt lat="33.8102834" lon="-118.3939002">
  <ele>-0.111</ele>
  <time>2026-09-02T22:07:20Z</time>
  <course>186.79</course>
  <speed>0.7283543093852057</speed>
  <fix>3d</fix>
</trkpt>
<trkpt lat="33.8102844" lon="-118.3938989">
  <ele>-0.11</ele>
  <time>2026-09-02T22:07:20Z</time>
  <course>223.26</course>
  <speed>0.73</speed>
  <fix>3d</fix>
</trkpt>
<trkpt lat="33.8102834" lon="-118.3939002">
  <ele>-0.11</ele>
  <time>2026-09-02T22:07:20Z</time>
  <course>186.79</course>
  <speed>0.7283543093852057</speed>
  <fix>3d</fix>
</trkpt>
<trkpt lat="33.8102833" lon="-118.3939003">
  <ele>-0.11</ele>
  <time>2026-09-02T22:07:20Z</time>
  <course>186.79</course>
  <speed>0.7283543093852057</speed>
  <fix>3d</fix>
</trkpt>
<trkpt lat="33.8102833" lon="-118.3939004">
  <ele>-0.11</ele>
  <time>2026-09-02T22:07:20Z</time>
  <course>186.79</course>
  <speed>0.7283543093852057</speed>
  <fix>3d</fix>
</trkpt>
<trkpt lat="33.8102832" lon="-118.3939004">
  <ele>-0.109</ele>
  <time>2026-09-02T22:07:20Z</time>
  <course>186.79</course>
  <speed>0.7283543093852057</speed>
  <fix>3d</fix>
</trkpt>
<trkpt lat="33.8102832" lon="-118.3939005">
  <ele>-0.109</ele>
  <time>2026-09-02T22:07:20Z</time>
  <course>186.79</course>
  <speed>0.7283543093852057</speed>
  <fix>3d</fix>
</trkpt>
<trkpt lat="33.8102832" lon="-118.3939005">
  <ele>-0.109</ele>
  <time>2026-09-02T22:07:20Z</time>
  <course>186.79</course>
  <speed>0.7283543093852057</speed>
  <fix>3d</fix>
</trkpt>
<trkpt lat="33.8102831" lon="-118.3939005">
  <ele>-0.109</ele>
  <time>2026-09-02T22:07:20Z</time>
  <course>186.79</course>
  <speed>0.7283543093852057</speed>
  <fix>3d</fix>
</trkpt>
<trkpt lat="33.8102831" lon="-118.3939006">
  <ele>-0.108</ele>
  <time>2026-09-02T22:07:20Z</time>
  <course>186.79</course>
  <speed>0.7283543093852057</speed>
  <fix>3d</fix>
</trkpt>
<trkpt lat="33.8102831" lon="-118.3939006">
  <ele>-0.108</ele>
  <time>2026-09-02T22:07:20Z</time>
  <course>186.79</course>
  <speed>0.7283543093852057</speed>
  <fix>3d</fix>
</trkpt>
<trkpt lat="33.810283" lon="-118.3939007">
  <ele>-0.108</ele>
  <time>2026-09-02T22:07:20Z</time>
  <course>186.79</course>
  <speed>0.7283543093852057</speed>
  <fix>3d</fix>
</trkpt>
<trkpt lat="33.810283" lon="-118.3939007">
  <ele>-0.108</ele>
  <time>2026-09-02T22:07:20Z</time>
  <course>186.79</course>
  <speed>0.7283543093852057</speed>
  <fix>3d</fix>
</trkpt>
<trkpt lat="33.810283" lon="-118.3939008">
  <ele>-0.108</ele>
  <time>2026-09-02T22:07:20Z</time>
  <course>186.79</course>
  <speed>0.7283543093852057</speed>
  <fix>3d</fix>
</trkpt>
<trkpt lat="33.8102829" lon="-118.3939008">
  <ele>-0.108</ele>
  <time>2026-09-02T22:07:20Z</time>
  <course>186.79</course>
  <speed>0.7283543093852057</speed>
  <fix>3d</fix>
</trkpt>
<trkpt lat="33.8102835" lon="-118.3939">
  <ele>-0.1</ele>
  <time>2026-09-02T22:07:20Z</time>
  <course>223.26</course>
  <speed>0.73</speed>
  <fix>3d</fix>
</trkpt>
<trkpt lat="33.8102829" lon="-118.3939008">
  <ele>-0.108</ele>
  <time>2026-09-02T22:07:20Z</time>
  <course>186.79</course>
  <speed>0.7283543093852057</speed>
  <fix>3d</fix>
</trkpt>
<trkpt lat="33.8102829" lon="-118.3939009">
  <ele>-0.108</ele>
  <time>2026-09-02T22:07:20Z</time>
  <course>186.79</course>
  <speed>0.7283543093852057</speed>
  <fix>3d</fix>
</trkpt>
<trkpt lat="33.8102828" lon="-118.3939009">
  <ele>-0.107</ele>
  <time>2026-09-02T22:07:20Z</time>
  <course>186.79</course>
  <speed>0.7283543093852057</speed>
  <fix>3d</fix>
</trkpt>
<trkpt lat="33.8102828" lon="-118.3939009">
  <ele>-0.107</ele>
  <time>2026-09-02T22:07:20Z</time>
  <course>186.79</course>
  <speed>0.7283543093852057</speed>
  <fix>3d</fix>
</trkpt>
<trkpt lat="33.8102828" lon="-118.393901">
  <ele>-0.107</ele>
  <time>2026-09-02T22:07:20Z</time>
  <course>186.79</course>
  <speed>0.7283543093852057</speed>
  <fix>3d</fix>
</trkpt>
<trkpt lat="33.8102827" lon="-118.393901">
  <ele>-0.107</ele>
  <time>2026-09-02T22:07:20Z</time>
  <course>186.79</course>
  <speed>0.7283543093852057</speed>
  <fix>3d</fix>
</trkpt>
<trkpt lat="33.8102827" lon="-118.3939011">
  <ele>-0.107</ele>
  <time>2026-09-02T22:07:20Z</time>
  <course>186.79</course>
  <speed>0.7283543093852057</speed>
  <fix>3d</fix>
</trkpt>
<trkpt lat="33.8102827" lon="-118.3939011">
  <ele>-0.107</ele>
  <time>2026-09-02T22:07:20Z</time>
  <course>186.79</course>
  <speed>0.7283543093852057</speed>
  <fix>3d</fix>
</trkpt>
<trkpt lat="33.8102826" lon="-118.3939012">
  <ele>-0.107</ele>
  <time>2026-09-02T22:07:20Z</time>
  <course>186.79</course>
  <speed>0.7283543093852057</speed>
  <fix>3d</fix>
</trkpt>
<trkpt lat="33.8102826" lon="-118.3939012">
  <ele>-0.107</ele>
  <time>2026-09-02T22:07:20Z</time>
  <course>186.79</course>
  <speed>0.7283543093852057</speed>
  <fix>3d</fix>
</trkpt>
<trkpt lat="33.8102825" lon="-118.3939013">
  <ele>-0.107</ele>
  <time>2026-09-02T22:07:20Z</time>
  <course>186.79</course>
  <speed>0.7283543093852057</speed>
  <fix>3d</fix>
</trkpt>
<trkpt lat="33.8102825" lon="-118.3939013">
  <ele>-0.106</ele>
  <time>2026-09-02T22:07:20Z</time>
  <course>186.79</course>
  <speed>0.7283543093852057</speed>
  <fix>3d</fix>
</trkpt>
<trkpt lat="33.8102824" lon="-118.3939013">
  <ele>-0.107</ele>
  <time>2026-09-02T22:07:20Z</time>
  <course>186.79</course>
  <speed>0.7283543093852057</speed>
  <fix>3d</fix>
</trkpt>
<trkpt lat="33.8102824" lon="-118.3939013">
  <ele>-0.107</ele>
  <time>2026-09-02T22:07:20Z</time>
  <course>186.79</course>
  <speed>0.7283543093852057</speed>
  <fix>3d</fix>
</trkpt>
<trkpt lat="33.8102835" lon="-118.3939">
  <ele>-0.1</ele>
  <time>2026-09-02T22:07:20Z</time>
  <course>223.26</course>
  <speed>0.73</speed>
  <fix>3d</fix>
</trkpt>
<trkpt lat="33.8102824" lon="-118.3939014">
  <ele>-0.106</ele>
  <time>2026-09-02T22:07:20Z</time>
  <course>186.79</course>
  <speed>0.7283543093852057</speed>
  <fix>3d</fix>
</trkpt>
<trkpt lat="33.8102823" lon="-118.3939015">
  <ele>-0.106</ele>
  <time>2026-09-02T22:07:20Z</time>
  <course>186.79</course>
  <speed>0.7283543093852057</speed>
  <fix>3d</fix>
</trkpt>
<trkpt lat="33.8102823" lon="-118.3939015">
  <ele>-0.107</ele>
  <time>2026-09-02T22:07:20Z</time>
  <course>186.79</course>
  <speed>0.7212489168102785</speed>
  <fix>3d</fix>
</trkpt>
<trkpt lat="33.8102822" lon="-118.3939016">
  <ele>-0.106</ele>
  <time>2026-09-02T22:07:20Z</time>
  <course>186.79</course>
  <speed>0.7212489168102785</speed>
  <fix>3d</fix>
</trkpt>
<trkpt lat="33.8102822" lon="-118.3939016">
  <ele>-0.107</ele>
  <time>2026-09-02T22:07:20Z</time>
  <course>186.79</course>
  <speed>0.7212489168102785</speed>
  <fix>3d</fix>
</trkpt>
<trkpt lat="33.8102822" lon="-118.3939017">
  <ele>-0.107</ele>
  <time>2026-09-02T22:07:20Z</time>
  <course>186.78</course>
  <speed>0.7212489168102785</speed>
  <fix>3d</fix>
</trkpt>
<trkpt lat="33.8102821" lon="-118.3939017">
  <ele>-0.107</ele>
  <time>2026-09-02T22:07:20Z</time>
  <course>186.78</course>
  <speed>0.7212489168102785</speed>
  <fix>3d</fix>
</trkpt>
<trkpt lat="33.8102821" lon="-118.3939018">
  <ele>-0.107</ele>
  <time>2026-09-02T22:07:20Z</time>
  <course>186.78</course>
  <speed>0.7212489168102785</speed>
  <fix>3d</fix>
</trkpt>
<trkpt lat="33.8102821" lon="-118.3939018">
  <ele>-0.107</ele>
  <time>2026-09-02T22:07:20Z</time>
  <course>186.78</course>
  <speed>0.7212489168102785</speed>
  <fix>3d</fix>
</trkpt>
<trkpt lat="33.810282" lon="-118.3939018">
  <ele>-0.107</ele>
  <time>2026-09-02T22:07:20Z</time>
  <course>186.78</course>
  <speed>0.7212489168102785</speed>
  <fix>3d</fix>
</trkpt>
<trkpt lat="33.810282" lon="-118.3939019">
  <ele>-0.107</ele>
  <time>2026-09-02T22:07:20Z</time>
  <course>186.78</course>
  <speed>0.7212489168102785</speed>
  <fix>3d</fix>
</trkpt>
<trkpt lat="33.8102826" lon="-118.393901">
  <ele>-0.1</ele>
  <time>2026-09-02T22:07:20Z</time>
  <course>223.26</course>
  <speed>0.73</speed>
  <fix>3d</fix>
</trkpt>
<trkpt lat="33.810282" lon="-118.3939019">
  <ele>-0.107</ele>
  <time>2026-09-02T22:07:20Z</time>
  <course>186.78</course>
  <speed>0.7212489168102785</speed>
  <fix>3d</fix>
</trkpt>
<trkpt lat="33.8102819" lon="-118.393902">
  <ele>-0.107</ele>
  <time>2026-09-02T22:07:20Z</time>
  <course>186.78</course>
  <speed>0.7212489168102785</speed>
  <fix>3d</fix>
</trkpt>
<trkpt lat="33.8102818" lon="-118.393902">
  <ele>-0.107</ele>
  <time>2026-09-02T22:07:20Z</time>
  <course>186.78</course>
  <speed>0.7212489168102785</speed>
  <fix>3d</fix>
</trkpt>
<trkpt lat="33.8102818" lon="-118.3939021">
  <ele>-0.108</ele>
  <time>2026-09-02T22:07:20Z</time>
  <course>186.78</course>
  <speed>0.7212489168102785</speed>
  <fix>3d</fix>
</trkpt>
<trkpt lat="33.8102818" lon="-118.3939021">
  <ele>-0.108</ele>
  <time>2026-09-02T22:07:20Z</time>
  <course>186.78</course>
  <speed>0.7212489168102785</speed>
  <fix>3d</fix>
</trkpt>
<trkpt lat="33.8102817" lon="-118.3939022">
  <ele>-0.108</ele>
  <time>2026-09-02T22:07:20Z</time>
  <course>186.78</course>
  <speed>0.7212489168102785</speed>
  <fix>3d</fix>
</trkpt>
<trkpt lat="33.8102817" lon="-118.3939022">
  <ele>-0.108</ele>
  <time>2026-09-02T22:07:20Z</time>
  <course>186.78</course>
  <speed>0.7212489168102785</speed>
  <fix>3d</fix>
</trkpt>
<trkpt lat="33.8102817" lon="-118.3939022">
  <ele>-0.108</ele>
  <time>2026-09-02T22:07:20Z</time>
  <course>186.78</course>
  <speed>0.7212489168102785</speed>
  <fix>3d</fix>
</trkpt>
<trkpt lat="33.8102816" lon="-118.3939023">
  <ele>-0.108</ele>
  <time>2026-09-02T22:07:20Z</time>
  <course>186.78</course>
  <speed>0.7212489168102785</speed>
  <fix>3d</fix>
</trkpt>
<trkpt lat="33.8102816" lon="-118.3939023">
  <ele>-0.108</ele>
  <time>2026-09-02T22:07:20Z</time>
  <course>186.78</course>
  <speed>0.7212489168102785</speed>
  <fix>3d</fix>
</trkpt>
<trkpt lat="33.8102816" lon="-118.3939024">
  <ele>-0.109</ele>
  <time>2026-09-02T22:07:20Z</time>
  <course>186.78</course>
  <speed>0.7212489168102785</speed>
  <fix>3d</fix>
</trkpt>
<trkpt lat="33.8102815" lon="-118.3939024">
  <ele>-0.109</ele>
  <time>2026-09-02T22:07:20Z</time>
  <course>186.78</course>
  <speed>0.7212489168102785</speed>
  <fix>3d</fix>
</trkpt>
<trkpt lat="33.8102815" lon="-118.3939024">
  <ele>-0.109</ele>
  <time>2026-09-02T22:07:20Z</time>
  <course>186.78</course>
  <speed>0.7212489168102785</speed>
  <fix>3d</fix>
</trkpt>
<trkpt lat="33.8102826" lon="-118.393901">
  <ele>-0.1</ele>
  <time>2026-09-02T22:07:20Z</time>
  <course>223.26</course>
  <speed>0.73</speed>
  <fix>3d</fix>
</trkpt>
<trkpt lat="33.8102815" lon="-118.3939024">
  <ele>-0.109</ele>
  <time>2026-09-02T22:07:20Z</time>
  <course>186.78</course>
  <speed>0.7212489168102785</speed>
  <fix>3d</fix>
</trkpt>
<trkpt lat="33.8102814" lon="-118.3939025">
  <ele>-0.109</ele>
  <time>2026-09-02T22:07:20Z</time>
  <course>186.78</course>
  <speed>0.7212489168102785</speed>
  <fix>3d</fix>
</trkpt>
<trkpt lat="33.8102814" lon="-118.3939026">
  <ele>-0.109</ele>
  <time>2026-09-02T22:07:20Z</time>
  <course>186.78</course>
  <speed>0.7212489168102785</speed>
  <fix>3d</fix>
</trkpt>
<trkpt lat="33.8102813" lon="-118.3939026">
  <ele>-0.109</ele>
  <time>2026-09-02T22:07:20Z</time>
  <course>186.78</course>
  <speed>0.7212489168102785</speed>
  <fix>3d</fix>
</trkpt>
<trkpt lat="33.8102813" lon="-118.3939027">
  <ele>-0.109</ele>
  <time>2026-09-02T22:07:20Z</time>
  <course>186.78</course>
  <speed>0.7212489168102785</speed>
  <fix>3d</fix>
</trkpt>
<trkpt lat="33.8102812" lon="-118.3939027">
  <ele>-0.11</ele>
  <time>2026-09-02T22:07:20Z</time>
  <course>186.78</course>
  <speed>0.7212489168102785</speed>
  <fix>3d</fix>
</trkpt>
<trkpt lat="33.8102811" lon="-118.3939029">
  <ele>-0.11</ele>
  <time>2026-09-02T22:07:20Z</time>
  <course>186.78</course>
  <speed>0.7212489168102785</speed>
  <fix>3d</fix>
</trkpt>
<trkpt lat="33.8102811" lon="-118.3939029">
  <ele>-0.11</ele>
  <time>2026-09-02T22:07:20Z</time>
  <course>186.78</course>
  <speed>0.7212489168102785</speed>
  <fix>3d</fix>
</trkpt>
<trkpt lat="33.810281" lon="-118.393903">
  <ele>-0.11</ele>
  <time>2026-09-02T22:07:20Z</time>
  <course>186.78</course>
  <speed>0.7212489168102785</speed>
  <fix>3d</fix>
</trkpt>
<trkpt lat="33.810281" lon="-118.393903">
  <ele>-0.11</ele>
  <time>2026-09-02T22:07:20Z</time>
  <course>186.78</course>
  <speed>0.7212489168102785</speed>
  <fix>3d</fix>
</trkpt>
<trkpt lat="33.8102815" lon="-118.3939021">
  <ele>-0.1</ele>
  <time>2026-09-02T22:07:20Z</time>
  <course>223.26</course>
  <speed>0.73</speed>
  <fix>3d</fix>
</trkpt>
<trkpt lat="33.8102809" lon="-118.3939031">
  <ele>-0.111</ele>
  <time>2026-09-02T22:07:20Z</time>
  <course>186.77</course>
  <speed>0.7212489168102785</speed>
  <fix>3d</fix>
</trkpt>
<trkpt lat="33.8102809" lon="-118.3939031">
  <ele>-0.111</ele>
  <time>2026-09-02T22:07:20Z</time>
  <course>186.77</course>
  <speed>0.7212489168102785</speed>
  <fix>3d</fix>
</trkpt>
<trkpt lat="33.8102808" lon="-118.3939032">
  <ele>-0.111</ele>
  <time>2026-09-02T22:07:20Z</time>
  <course>186.77</course>
  <speed>0.7212489168102785</speed>
  <fix>3d</fix>
</trkpt>
<trkpt lat="33.8102808" lon="-118.3939032">
  <ele>-0.111</ele>
  <time>2026-09-02T22:07:20Z</time>
  <course>186.77</course>
  <speed>0.7212489168102785</speed>
  <fix>3d</fix>
</trkpt>
<trkpt lat="33.8102808" lon="-118.3939033">
  <ele>-0.111</ele>
  <time>2026-09-02T22:07:20Z</time>
  <course>186.77</course>
  <speed>0.7212489168102785</speed>
  <fix>3d</fix>
</trkpt>
<trkpt lat="33.8102807" lon="-118.3939033">
  <ele>-0.111</ele>
  <time>2026-09-02T22:07:20Z</time>
  <course>186.77</course>
  <speed>0.7212489168102785</speed>
  <fix>3d</fix>
</trkpt>
<trkpt lat="33.8102807" lon="-118.3939034">
  <ele>-0.112</ele>
  <time>2026-09-02T22:07:20Z</time>
  <course>186.77</course>
  <speed>0.7212489168102785</speed>
  <fix>3d</fix>
</trkpt>
<trkpt lat="33.8102806" lon="-118.3939034">
  <ele>-0.112</ele>
  <time>2026-09-02T22:07:20Z</time>
  <course>186.77</course>
  <speed>0.7212489168102785</speed>
  <fix>3d</fix>
</trkpt>
<trkpt lat="33.8102806" lon="-118.3939035">
  <ele>-0.112</ele>
  <time>2026-09-02T22:07:20Z</time>
  <course>186.77</course>
  <speed>0.7212489168102785</speed>
  <fix>3d</fix>
</trkpt>
<trkpt lat="33.8102806" lon="-118.3939035">
  <ele>-0.112</ele>
  <time>2026-09-02T22:07:20Z</time>
  <course>186.77</course>
  <speed>0.7212489168102785</speed>
  <fix>3d</fix>
</trkpt>
<trkpt lat="33.8102805" lon="-118.3939035">
  <ele>-0.112</ele>
  <time>2026-09-02T22:07:20Z</time>
  <course>186.77</course>
  <speed>0.7212489168102785</speed>
  <fix>3d</fix>
</trkpt>
<trkpt lat="33.8102815" lon="-118.3939021">
  <ele>-0.1</ele>
  <time>2026-09-02T22:07:20Z</time>
  <course>223.26</course>
  <speed>0.73</speed>
  <fix>3d</fix>
</trkpt>
<trkpt lat="33.8102805" lon="-118.3939035">
  <ele>-0.112</ele>
  <time>2026-09-02T22:07:20Z</time>
  <course>186.77</course>
  <speed>0.7212489168102785</speed>
  <fix>3d</fix>
</trkpt>
<trkpt lat="33.8102805" lon="-118.3939036">
  <ele>-0.112</ele>
  <time>2026-09-02T22:07:20Z</time>
  <course>186.77</course>
  <speed>0.7212489168102785</speed>
  <fix>3d</fix>
</trkpt>
<trkpt lat="33.8102804" lon="-118.3939037">
  <ele>-0.112</ele>
  <time>2026-09-02T22:07:20Z</time>
  <course>186.77</course>
  <speed>0.7212489168102785</speed>
  <fix>3d</fix>
</trkpt>
<trkpt lat="33.8102804" lon="-118.3939037">
  <ele>-0.112</ele>
  <time>2026-09-02T22:07:20Z</time>
  <course>186.77</course>
  <speed>0.7212489168102785</speed>
  <fix>3d</fix>
</trkpt>
<trkpt lat="33.8102803" lon="-118.3939038">
  <ele>-0.112</ele>
  <time>2026-09-02T22:07:20Z</time>
  <course>186.77</course>
  <speed>0.7212489168102785</speed>
  <fix>3d</fix>
</trkpt>
<trkpt lat="33.8102803" lon="-118.3939038">
  <ele>-0.112</ele>
  <time>2026-09-02T22:07:20Z</time>
  <course>186.77</course>
  <speed>0.7212489168102785</speed>
  <fix>3d</fix>
</trkpt>
<trkpt lat="33.8102803" lon="-118.3939038">
  <ele>-0.112</ele>
  <time>2026-09-02T22:07:20Z</time>
  <course>186.77</course>
  <speed>0.7212489168102785</speed>
  <fix>3d</fix>
</trkpt>
<trkpt lat="33.8102803" lon="-118.3939039">
  <ele>-0.112</ele>
  <time>2026-09-02T22:07:20Z</time>
  <course>186.77</course>
  <speed>0.7212489168102785</speed>
  <fix>3d</fix>
</trkpt>
<trkpt lat="33.8102802" lon="-118.3939039">
  <ele>-0.112</ele>
  <time>2026-09-02T22:07:20Z</time>
  <course>186.77</course>
  <speed>0.7212489168102785</speed>
  <fix>3d</fix>
</trkpt>
<trkpt lat="33.8102802" lon="-118.393904">
  <ele>-0.112</ele>
  <time>2026-09-02T22:07:20Z</time>
  <course>186.77</course>
  <speed>0.7212489168102785</speed>
  <fix>3d</fix>
</trkpt>
<trkpt lat="33.8102801" lon="-118.393904">
  <ele>-0.112</ele>
  <time>2026-09-02T22:07:20Z</time>
  <course>186.77</course>
  <speed>0.7212489168102785</speed>
  <fix>3d</fix>
</trkpt>
<trkpt lat="33.8102801" lon="-118.393904">
  <ele>-0.112</ele>
  <time>2026-09-02T22:07:20Z</time>
  <course>186.77</course>
  <speed>0.7212489168102785</speed>
  <fix>3d</fix>
</trkpt>
<trkpt lat="33.8102801" lon="-118.3939041">
  <ele>-0.112</ele>
  <time>2026-09-02T22:07:20Z</time>
  <course>186.77</course>
  <speed>0.7212489168102785</speed>
  <fix>3d</fix>
</trkpt>
<trkpt lat="33.8102806" lon="-118.3939032">
  <ele>-0.11</ele>
  <time>2026-09-02T22:07:20Z</time>
  <course>223.26</course>
  <speed>0.73</speed>
  <fix>3d</fix>
</trkpt>
<trkpt lat="33.81028" lon="-118.3939041">
  <ele>-0.112</ele>
  <time>2026-09-02T22:07:20Z</time>
  <course>186.77</course>
  <speed>0.7212489168102785</speed>
  <fix>3d</fix>
</trkpt>
<trkpt lat="33.81028" lon="-118.3939042">
  <ele>-0.112</ele>
  <time>2026-09-02T22:07:20Z</time>
  <course>186.77</course>
  <speed>0.7212489168102785</speed>
  <fix>3d</fix>
</trkpt>
<trkpt lat="33.8102799" lon="-118.3939042">
  <ele>-0.112</ele>
  <time>2026-09-02T22:07:20Z</time>
  <course>186.77</course>
  <speed>0.7283543093852057</speed>
  <fix>3d</fix>
</trkpt>
<trkpt lat="33.8102799" lon="-118.3939043">
  <ele>-0.112</ele>
  <time>2026-09-02T22:07:20Z</time>
  <course>186.77</course>
  <speed>0.7283543093852057</speed>
  <fix>3d</fix>
</trkpt>
<trkpt lat="33.8102799" lon="-118.3939043">
  <ele>-0.111</ele>
  <time>2026-09-02T22:07:20Z</time>
  <course>186.77</course>
  <speed>0.7283543093852057</speed>
  <fix>3d</fix>
</trkpt>
<trkpt lat="33.8102798" lon="-118.3939043">
  <ele>-0.111</ele>
  <time>2026-09-02T22:07:20Z</time>
  <course>186.77</course>
  <speed>0.7283543093852057</speed>
  <fix>3d</fix>
</trkpt>
<trkpt lat="33.8102798" lon="-118.3939044">
  <ele>-0.111</ele>
  <time>2026-09-02T22:07:20Z</time>
  <course>186.77</course>
  <speed>0.7283543093852057</speed>
  <fix>3d</fix>
</trkpt>
<trkpt lat="33.8102798" lon="-118.3939044">
  <ele>-0.111</ele>
  <time>2026-09-02T22:07:20Z</time>
  <course>186.77</course>
  <speed>0.7283543093852057</speed>
  <fix>3d</fix>
</trkpt>
<trkpt lat="33.8102797" lon="-118.3939045">
  <ele>-0.111</ele>
  <time>2026-09-02T22:07:20Z</time>
  <course>186.77</course>
  <speed>0.7283543093852057</speed>
  <fix>3d</fix>
</trkpt>
<trkpt lat="33.8102797" lon="-118.3939045">
  <ele>-0.111</ele>
  <time>2026-09-02T22:07:20Z</time>
  <course>186.77</course>
  <speed>0.7283543093852057</speed>
  <fix>3d</fix>
</trkpt>
<trkpt lat="33.8102796" lon="-118.3939046">
  <ele>-0.11</ele>
  <time>2026-09-02T22:07:20Z</time>
  <course>186.77</course>
  <speed>0.7283543093852057</speed>
  <fix>3d</fix>
</trkpt>
<trkpt lat="33.8102796" lon="-118.3939046">
  <ele>-0.11</ele>
  <time>2026-09-02T22:07:20Z</time>
  <course>186.77</course>
  <speed>0.7283543093852057</speed>
  <fix>3d</fix>
</trkpt>
<trkpt lat="33.8102796" lon="-118.3939046">
  <ele>-0.11</ele>
  <time>2026-09-02T22:07:20Z</time>
  <course>186.77</course>
  <speed>0.7283543093852057</speed>
  <fix>3d</fix>
</trkpt>
<trkpt lat="33.8102806" lon="-118.3939032">
  <ele>-0.11</ele>
  <time>2026-09-02T22:07:20Z</time>
  <course>223.26</course>
  <speed>0.73</speed>
  <fix>3d</fix>
</trkpt>
<trkpt lat="33.8102796" lon="-118.3939046">
  <ele>-0.11</ele>
  <time>2026-09-02T22:07:20Z</time>
  <course>186.77</course>
  <speed>0.7283543093852057</speed>
  <fix>3d</fix>
</trkpt>
<trkpt lat="33.8102795" lon="-118.3939047">
  <ele>-0.11</ele>
  <time>2026-09-02T22:07:20Z</time>
  <course>186.77</course>
  <speed>0.7283543093852057</speed>
  <fix>3d</fix>
</trkpt>
<trkpt lat="33.8102795" lon="-118.3939048">
  <ele>-0.109</ele>
  <time>2026-09-02T22:07:20Z</time>
  <course>186.76</course>
  <speed>0.7283543093852057</speed>
  <fix>3d</fix>
</trkpt>
<trkpt lat="33.8102794" lon="-118.3939048">
  <ele>-0.109</ele>
  <time>2026-09-02T22:07:20Z</time>
  <course>186.76</course>
  <speed>0.7283543093852057</speed>
  <fix>3d</fix>
</trkpt>
<trkpt lat="33.8102794" lon="-118.3939048">
  <ele>-0.109</ele>
  <time>2026-09-02T22:07:20Z</time>
  <course>186.76</course>
  <speed>0.7283543093852057</speed>
  <fix>3d</fix>
</trkpt>
<trkpt lat="33.8102794" lon="-118.3939049">
  <ele>-0.109</ele>
  <time>2026-09-02T22:07:20Z</time>
  <course>186.76</course>
  <speed>0.7283543093852057</speed>
  <fix>3d</fix>
</trkpt>
<trkpt lat="33.8102793" lon="-118.3939049">
  <ele>-0.109</ele>
  <time>2026-09-02T22:07:20Z</time>
  <course>186.76</course>
  <speed>0.7283543093852057</speed>
  <fix>3d</fix>
</trkpt>
<trkpt lat="33.8102793" lon="-118.393905">
  <ele>-0.108</ele>
  <time>2026-09-02T22:07:20Z</time>
  <course>186.76</course>
  <speed>0.7283543093852057</speed>
  <fix>3d</fix>
</trkpt>
<trkpt lat="33.8102792" lon="-118.393905">
  <ele>-0.108</ele>
  <time>2026-09-02T22:07:20Z</time>
  <course>186.76</course>
  <speed>0.7283543093852057</speed>
  <fix>3d</fix>
</trkpt>
<trkpt lat="33.8102792" lon="-118.3939051">
  <ele>-0.108</ele>
  <time>2026-09-02T22:07:20Z</time>
  <course>186.76</course>
  <speed>0.7283543093852057</speed>
  <fix>3d</fix>
</trkpt>
<trkpt lat="33.8102792" lon="-118.3939051">
  <ele>-0.108</ele>
  <time>2026-09-02T22:07:20Z</time>
  <course>186.76</course>
  <speed>0.7283543093852057</speed>
  <fix>3d</fix>
</trkpt>
<trkpt lat="33.8102791" lon="-118.3939052">
  <ele>-0.107</ele>
  <time>2026-09-02T22:07:20Z</time>
  <course>186.76</course>
  <speed>0.7283543093852057</speed>
  <fix>3d</fix>
</trkpt>
<trkpt lat="33.8102791" lon="-118.3939052">
  <ele>-0.107</ele>
  <time>2026-09-02T22:07:20Z</time>
  <course>186.76</course>
  <speed>0.7283543093852057</speed>
  <fix>3d</fix>
</trkpt>
<trkpt lat="33.8102796" lon="-118.3939043">
  <ele>-0.11</ele>
  <time>2026-09-02T22:07:20Z</time>
  <course>223.26</course>
  <speed>0.73</speed>
  <fix>3d</fix>
</trkpt>
<trkpt lat="33.8102791" lon="-118.3939052">
  <ele>-0.107</ele>
  <time>2026-09-02T22:07:20Z</time>
  <course>186.76</course>
  <speed>0.7283543093852057</speed>
  <fix>3d</fix>
</trkpt>
<trkpt lat="33.810279" lon="-118.3939053">
  <ele>-0.107</ele>
  <time>2026-09-02T22:07:20Z</time>
  <course>186.76</course>
  <speed>0.7283543093852057</speed>
  <fix>3d</fix>
</trkpt>
<trkpt lat="33.810279" lon="-118.3939053">
  <ele>-0.107</ele>
  <time>2026-09-02T22:07:20Z</time>
  <course>186.76</course>
  <speed>0.7283543093852057</speed>
  <fix>3d</fix>
</trkpt>
<trkpt lat="33.8102789" lon="-118.3939054">
  <ele>-0.106</ele>
  <time>2026-09-02T22:07:20Z</time>
  <course>186.76</course>
  <speed>0.7283543093852057</speed>
  <fix>3d</fix>
</trkpt>
<trkpt lat="33.8102789" lon="-118.3939054">
  <ele>-0.106</ele>
  <time>2026-09-02T22:07:20Z</time>
  <course>186.76</course>
  <speed>0.7283543093852057</speed>
  <fix>3d</fix>
</trkpt>
<trkpt lat="33.8102789" lon="-118.3939055">
  <ele>-0.106</ele>
  <time>2026-09-02T22:07:20Z</time>
  <course>186.76</course>
  <speed>0.7283543093852057</speed>
  <fix>3d</fix>
</trkpt>
<trkpt lat="33.8102788" lon="-118.3939055">
  <ele>-0.105</ele>
  <time>2026-09-02T22:07:20Z</time>
  <course>186.76</course>
  <speed>0.7283543093852057</speed>
  <fix>3d</fix>
</trkpt>
<trkpt lat="33.8102788" lon="-118.3939056">
  <ele>-0.105</ele>
  <time>2026-09-02T22:07:20Z</time>
  <course>186.76</course>
  <speed>0.7283543093852057</speed>
  <fix>3d</fix>
</trkpt>
<trkpt lat="33.8102787" lon="-118.3939056">
  <ele>-0.105</ele>
  <time>2026-09-02T22:07:20Z</time>
  <course>186.76</course>
  <speed>0.7283543093852057</speed>
  <fix>3d</fix>
</trkpt>
<trkpt lat="33.8102787" lon="-118.3939056">
  <ele>-0.105</ele>
  <time>2026-09-02T22:07:20Z</time>
  <course>186.76</course>
  <speed>0.7283543093852057</speed>
  <fix>3d</fix>
</trkpt>
<trkpt lat="33.8102787" lon="-118.3939057">
  <ele>-0.104</ele>
  <time>2026-09-02T22:07:20Z</time>
  <course>186.76</course>
  <speed>0.7283543093852057</speed>
  <fix>3d</fix>
</trkpt>
<trkpt lat="33.8102786" lon="-118.3939057">
  <ele>-0.104</ele>
  <time>2026-09-02T22:07:20Z</time>
  <course>186.76</course>
  <speed>0.7283543093852057</speed>
  <fix>3d</fix>
</trkpt>
<trkpt lat="33.8102786" lon="-118.3939057">
  <ele>-0.104</ele>
  <time>2026-09-02T22:07:20Z</time>
  <course>186.76</course>
  <speed>0.7283543093852057</speed>
  <fix>3d</fix>
</trkpt>
<trkpt lat="33.8102796" lon="-118.3939043">
  <ele>-0.11</ele>
  <time>2026-09-02T22:07:20Z</time>
  <course>223.26</course>
  <speed>0.73</speed>
  <fix>3d</fix>
</trkpt>
<trkpt lat="33.8102786" lon="-118.3939057">
  <ele>-0.104</ele>
  <time>2026-09-02T22:07:20Z</time>
  <course>186.76</course>
  <speed>0.7283543093852057</speed>
  <fix>3d</fix>
</trkpt>
<trkpt lat="33.8102785" lon="-118.3939058">
  <ele>-0.103</ele>
  <time>2026-09-02T22:07:20Z</time>
  <course>186.76</course>
  <speed>0.7283543093852057</speed>
  <fix>3d</fix>
</trkpt>
<trkpt lat="33.8102785" lon="-118.3939059">
  <ele>-0.103</ele>
  <time>2026-09-02T22:07:20Z</time>
  <course>186.76</course>
  <speed>0.7283543093852057</speed>
  <fix>3d</fix>
</trkpt>
<trkpt lat="33.8102785" lon="-118.3939059">
  <ele>-0.103</ele>
  <time>2026-09-02T22:07:20Z</time>
  <course>186.76</course>
  <speed>0.7283543093852057</speed>
  <fix>3d</fix>
</trkpt>
<trkpt lat="33.8102784" lon="-118.393906">
  <ele>-0.103</ele>
  <time>2026-09-02T22:07:20Z</time>
  <course>186.76</course>
  <speed>0.7283543093852057</speed>
  <fix>3d</fix>
</trkpt>
<trkpt lat="33.8102784" lon="-118.393906">
  <ele>-0.102</ele>
  <time>2026-09-02T22:07:20Z</time>
  <course>186.76</course>
  <speed>0.7283543093852057</speed>
  <fix>3d</fix>
</trkpt>
<trkpt lat="33.8102783" lon="-118.393906">
  <ele>-0.102</ele>
  <time>2026-09-02T22:07:20Z</time>
  <course>186.76</course>
  <speed>0.7283543093852057</speed>
  <fix>3d</fix>
</trkpt>
<trkpt lat="33.8102783" lon="-118.3939061">
  <ele>-0.102</ele>
  <time>2026-09-02T22:07:20Z</time>
  <course>186.76</course>
  <speed>0.7283543093852057</speed>
  <fix>3d</fix>
</trkpt>
<trkpt lat="33.8102783" lon="-118.3939061">
  <ele>-0.102</ele>
  <time>2026-09-02T22:07:20Z</time>
  <course>186.76</course>
  <speed>0.7283543093852057</speed>
  <fix>3d</fix>
</trkpt>
<trkpt lat="33.8102782" lon="-118.3939062">
  <ele>-0.101</ele>
  <time>2026-09-02T22:07:20Z</time>
  <course>186.76</course>
  <speed>0.7283543093852057</speed>
  <fix>3d</fix>
</trkpt>
<trkpt lat="33.8102782" lon="-118.3939062">
  <ele>-0.101</ele>
  <time>2026-09-02T22:07:20Z</time>
  <course>186.76</course>
  <speed>0.7283543093852057</speed>
  <fix>3d</fix>
</trkpt>
<trkpt lat="33.8102782" lon="-118.3939063">
  <ele>-0.101</ele>
  <time>2026-09-02T22:07:20Z</time>
  <course>186.76</course>
  <speed>0.7283543093852057</speed>
  <fix>3d</fix>
</trkpt>
<trkpt lat="33.8102781" lon="-118.3939063">
  <ele>-0.101</ele>
  <time>2026-09-02T22:07:20Z</time>
  <course>186.76</course>
  <speed>0.7283543093852057</speed>
  <fix>3d</fix>
</trkpt>
<trkpt lat="33.8102787" lon="-118.3939054">
  <ele>-0.1</ele>
  <time>2026-09-02T22:07:20Z</time>
  <course>223.26</course>
  <speed>0.73</speed>
  <fix>3d</fix>
</trkpt>
<trkpt lat="33.8102781" lon="-118.3939063">
  <ele>-0.101</ele>
  <time>2026-09-02T22:07:20Z</time>
  <course>186.76</course>
  <speed>0.7283543093852057</speed>
  <fix>3d</fix>
</trkpt>
<trkpt lat="33.8102781" lon="-118.3939064">
  <ele>-0.1</ele>
  <time>2026-09-02T22:07:20Z</time>
  <course>186.75</course>
  <speed>0.7283543093852057</speed>
  <fix>3d</fix>
</trkpt>
<trkpt lat="33.810278" lon="-118.3939064">
  <ele>-0.1</ele>
  <time>2026-09-02T22:07:20Z</time>
  <course>186.75</course>
  <speed>0.7283543093852057</speed>
  <fix>3d</fix>
</trkpt>
<trkpt lat="33.810278" lon="-118.3939065">
  <ele>-0.1</ele>
  <time>2026-09-02T22:07:20Z</time>
  <course>186.75</course>
  <speed>0.7283543093852057</speed>
  <fix>3d</fix>
</trkpt>
<trkpt lat="33.8102779" lon="-118.3939065">
  <ele>-0.1</ele>
  <time>2026-09-02T22:07:20Z</time>
  <course>186.75</course>
  <speed>0.7283543093852057</speed>
  <fix>3d</fix>
</trkpt>
<trkpt lat="33.8102779" lon="-118.3939066">
  <ele>-0.1</ele>
  <time>2026-09-02T22:07:20Z</time>
  <course>186.75</course>
  <speed>0.7283543093852057</speed>
  <fix>3d</fix>
</trkpt>
<trkpt lat="33.8102779" lon="-118.3939066">
  <ele>-0.1</ele>
  <time>2026-09-02T22:07:20Z</time>
  <course>186.75</course>
  <speed>0.7283543093852057</speed>
  <fix>3d</fix>
</trkpt>
<trkpt lat="33.8102778" lon="-118.3939067">
  <ele>-0.1</ele>
  <time>2026-09-02T22:07:20Z</time>
  <course>186.75</course>
  <speed>0.7283543093852057</speed>
  <fix>3d</fix>
</trkpt>
<trkpt lat="33.8102778" lon="-118.3939067">
  <ele>-0.1</ele>
  <time>2026-09-02T22:07:20Z</time>
  <course>186.75</course>
  <speed>0.7283543093852057</speed>
  <fix>3d</fix>
</trkpt>
<trkpt lat="33.8102777" lon="-118.3939067">
  <ele>-0.1</ele>
  <time>2026-09-02T22:07:20Z</time>
  <course>186.75</course>
  <speed>0.7283543093852057</speed>
  <fix>3d</fix>
</trkpt>
<trkpt lat="33.8102777" lon="-118.3939068">
  <ele>-0.1</ele>
  <time>2026-09-02T22:07:20Z</time>
  <course>186.75</course>
  <speed>0.7283543093852057</speed>
  <fix>3d</fix>
</trkpt>
<trkpt lat="33.8102777" lon="-118.3939068">
  <ele>-0.1</ele>
  <time>2026-09-02T22:07:20Z</time>
  <course>186.75</course>
  <speed>0.7283543093852057</speed>
  <fix>3d</fix>
</trkpt>
<trkpt lat="33.8102787" lon="-118.3939054">
  <ele>-0.1</ele>
  <time>2026-09-02T22:07:20Z</time>
  <course>223.26</course>
  <speed>0.73</speed>
  <fix>3d</fix>
</trkpt>
<trkpt lat="33.8102777" lon="-118.3939068">
  <ele>-0.1</ele>
  <time>2026-09-02T22:07:20Z</time>
  <course>186.75</course>
  <speed>0.7283543093852057</speed>
  <fix>3d</fix>
</trkpt>
<trkpt lat="33.8102776" lon="-118.3939069">
  <ele>-0.1</ele>
  <time>2026-09-02T22:07:20Z</time>
  <course>186.75</course>
  <speed>0.7283543093852057</speed>
  <fix>3d</fix>
</trkpt>
<trkpt lat="33.8102775" lon="-118.393907">
  <ele>-0.1</ele>
  <time>2026-09-02T22:07:20Z</time>
  <course>186.75</course>
  <speed>0.7283543093852057</speed>
  <fix>3d</fix>
</trkpt>
<trkpt lat="33.8102775" lon="-118.393907">
  <ele>-0.1</ele>
  <time>2026-09-02T22:07:20Z</time>
  <course>186.75</course>
  <speed>0.7283543093852057</speed>
  <fix>3d</fix>
</trkpt>
<trkpt lat="33.8102775" lon="-118.3939071">
  <ele>-0.1</ele>
  <time>2026-09-02T22:07:20Z</time>
  <course>186.75</course>
  <speed>0.7283543093852057</speed>
  <fix>3d</fix>
</trkpt>
<trkpt lat="33.8102774" lon="-118.3939071">
  <ele>-0.101</ele>
  <time>2026-09-02T22:07:20Z</time>
  <course>186.75</course>
  <speed>0.7283543093852057</speed>
  <fix>3d</fix>
</trkpt>
<trkpt lat="33.8102774" lon="-118.3939071">
  <ele>-0.101</ele>
  <time>2026-09-02T22:07:20Z</time>
  <course>186.75</course>
  <speed>0.7283543093852057</speed>
  <fix>3d</fix>
</trkpt>
<trkpt lat="33.8102774" lon="-118.3939072">
  <ele>-0.101</ele>
  <time>2026-09-02T22:07:20Z</time>
  <course>186.75</course>
  <speed>0.7283543093852057</speed>
  <fix>3d</fix>
</trkpt>
<trkpt lat="33.8102773" lon="-118.3939072">
  <ele>-0.101</ele>
  <time>2026-09-02T22:07:20Z</time>
  <course>186.75</course>
  <speed>0.7283543093852057</speed>
  <fix>3d</fix>
</trkpt>
<trkpt lat="33.8102773" lon="-118.3939073">
  <ele>-0.101</ele>
  <time>2026-09-02T22:07:20Z</time>
  <course>186.75</course>
  <speed>0.7283543093852057</speed>
  <fix>3d</fix>
</trkpt>
<trkpt lat="33.8102772" lon="-118.3939073">
  <ele>-0.101</ele>
  <time>2026-09-02T22:07:20Z</time>
  <course>186.75</course>
  <speed>0.7283543093852057</speed>
  <fix>3d</fix>
</trkpt>
<trkpt lat="33.8102772" lon="-118.3939074">
  <ele>-0.101</ele>
  <time>2026-09-02T22:07:20Z</time>
  <course>186.75</course>
  <speed>0.7283543093852057</speed>
  <fix>3d</fix>
</trkpt>
<trkpt lat="33.8102772" lon="-118.3939074">
  <ele>-0.101</ele>
  <time>2026-09-02T22:07:20Z</time>
  <course>186.75</course>
  <speed>0.7283543093852057</speed>
  <fix>3d</fix>
</trkpt>
<trkpt lat="33.8102777" lon="-118.3939065">
  <ele>-0.1</ele>
  <time>2026-09-02T22:07:20Z</time>
  <course>223.26</course>
  <speed>0.73</speed>
  <fix>3d</fix>
</trkpt>
<trkpt lat="33.8102772" lon="-118.3939074">
  <ele>-0.101</ele>
  <time>2026-09-02T22:07:20Z</time>
  <course>186.75</course>
  <speed>0.7283543093852057</speed>
  <fix>3d</fix>
</trkpt>
<trkpt lat="33.8102771" lon="-118.3939074">
  <ele>-0.101</ele>
  <time>2026-09-02T22:07:20Z</time>
  <course>186.75</course>
  <speed>0.7283543093852057</speed>
  <fix>3d</fix>
</trkpt>
<trkpt lat="33.8102771" lon="-118.3939075">
  <ele>-0.102</ele>
  <time>2026-09-02T22:07:20Z</time>
  <course>186.75</course>
  <speed>0.7283543093852057</speed>
  <fix>3d</fix>
</trkpt>
<trkpt lat="33.810277" lon="-118.3939075">
  <ele>-0.102</ele>
  <time>2026-09-02T22:07:20Z</time>
  <course>186.75</course>
  <speed>0.7283543093852057</speed>
  <fix>3d</fix>
</trkpt>
<trkpt lat="33.810277" lon="-118.3939076">
  <ele>-0.102</ele>
  <time>2026-09-02T22:07:20Z</time>
  <course>186.75</course>
  <speed>0.7283543093852057</speed>
  <fix>3d</fix>
</trkpt>
<trkpt lat="33.810277" lon="-118.3939076">
  <ele>-0.102</ele>
  <time>2026-09-02T22:07:20Z</time>
  <course>186.75</course>
  <speed>0.7283543093852057</speed>
  <fix>3d</fix>
</trkpt>
<trkpt lat="33.8102769" lon="-118.3939077">
  <ele>-0.102</ele>
  <time>2026-09-02T22:07:20Z</time>
  <course>186.75</course>
  <speed>0.7283543093852057</speed>
  <fix>3d</fix>
</trkpt>
<trkpt lat="33.8102769" lon="-118.3939077">
  <ele>-0.103</ele>
  <time>2026-09-02T22:07:20Z</time>
  <course>186.75</course>
  <speed>0.7283543093852057</speed>
  <fix>3d</fix>
</trkpt>
<trkpt lat="33.8102768" lon="-118.3939078">
  <ele>-0.103</ele>
  <time>2026-09-02T22:07:20Z</time>
  <course>186.75</course>
  <speed>0.7283543093852057</speed>
  <fix>3d</fix>
</trkpt>
<trkpt lat="33.8102768" lon="-118.3939078">
  <ele>-0.103</ele>
  <time>2026-09-02T22:07:20Z</time>
  <course>186.75</course>
  <speed>0.7283543093852057</speed>
  <fix>3d</fix>
</trkpt>
<trkpt lat="33.8102768" lon="-118.3939079">
  <ele>-0.103</ele>
  <time>2026-09-02T22:07:20Z</time>
  <course>186.75</course>
  <speed>0.7283543093852057</speed>
  <fix>3d</fix>
</trkpt>
<trkpt lat="33.8102767" lon="-118.3939079">
  <ele>-0.104</ele>
  <time>2026-09-02T22:07:20Z</time>
  <course>186.75</course>
  <speed>0.7283543093852057</speed>
  <fix>3d</fix>
</trkpt>
<trkpt lat="33.8102767" lon="-118.3939079">
  <ele>-0.104</ele>
  <time>2026-09-02T22:07:20Z</time>
  <course>186.74</course>
  <speed>0.7283543093852057</speed>
  <fix>3d</fix>
</trkpt>
<trkpt lat="33.8102777" lon="-118.3939065">
  <ele>-0.1</ele>
  <time>2026-09-02T22:07:20Z</time>
  <course>223.26</course>
  <speed>0.73</speed>
  <fix>3d</fix>
</trkpt>
<trkpt lat="33.8102767" lon="-118.3939079">
  <ele>-0.104</ele>
  <time>2026-09-02T22:07:20Z</time>
  <course>186.74</course>
  <speed>0.7283543093852057</speed>
  <fix>3d</fix>
</trkpt>
<trkpt lat="33.8102766" lon="-118.393908">
  <ele>-0.104</ele>
  <time>2026-09-02T22:07:20Z</time>
  <course>186.74</course>
  <speed>0.7283543093852057</speed>
  <fix>3d</fix>
</trkpt>
<trkpt lat="33.8102766" lon="-118.3939081">
  <ele>-0.105</ele>
  <time>2026-09-02T22:07:20Z</time>
  <course>186.74</course>
  <speed>0.7283543093852057</speed>
  <fix>3d</fix>
</trkpt>
<trkpt lat="33.8102765" lon="-118.3939081">
  <ele>-0.105</ele>
  <time>2026-09-02T22:07:20Z</time>
  <course>186.74</course>
  <speed>0.7283543093852057</speed>
  <fix>3d</fix>
</trkpt>
<trkpt lat="33.8102765" lon="-118.3939082">
  <ele>-0.105</ele>
  <time>2026-09-02T22:07:20Z</time>
  <course>186.74</course>
  <speed>0.7283543093852057</speed>
  <fix>3d</fix>
</trkpt>
<trkpt lat="33.8102765" lon="-118.3939082">
  <ele>-0.105</ele>
  <time>2026-09-02T22:07:20Z</time>
  <course>186.74</course>
  <speed>0.7283543093852057</speed>
  <fix>3d</fix>
</trkpt>
<trkpt lat="33.8102764" lon="-118.3939082">
  <ele>-0.105</ele>
  <time>2026-09-02T22:07:20Z</time>
  <course>186.74</course>
  <speed>0.7283543093852057</speed>
  <fix>3d</fix>
</trkpt>
<trkpt lat="33.8102764" lon="-118.3939083">
  <ele>-0.106</ele>
  <time>2026-09-02T22:07:20Z</time>
  <course>186.74</course>
  <speed>0.7283543093852057</speed>
  <fix>3d</fix>
</trkpt>
<trkpt lat="33.8102764" lon="-118.3939083">
  <ele>-0.106</ele>
  <time>2026-09-02T22:07:20Z</time>
  <course>186.74</course>
  <speed>0.7283543093852057</speed>
  <fix>3d</fix>
</trkpt>
<trkpt lat="33.8102763" lon="-118.3939084">
  <ele>-0.106</ele>
  <time>2026-09-02T22:07:20Z</time>
  <course>186.74</course>
  <speed>0.7283543093852057</speed>
  <fix>3d</fix>
</trkpt>
<trkpt lat="33.8102763" lon="-118.3939084">
  <ele>-0.106</ele>
  <time>2026-09-02T22:07:20Z</time>
  <course>186.74</course>
  <speed>0.7283543093852057</speed>
  <fix>3d</fix>
</trkpt>
<trkpt lat="33.8102762" lon="-118.3939085">
  <ele>-0.106</ele>
  <time>2026-09-02T22:07:20Z</time>
  <course>186.74</course>
  <speed>0.7283543093852057</speed>
  <fix>3d</fix>
</trkpt>
<trkpt lat="33.8102762" lon="-118.3939085">
  <ele>-0.106</ele>
  <time>2026-09-02T22:07:20Z</time>
  <course>186.74</course>
  <speed>0.7283543093852057</speed>
  <fix>3d</fix>
</trkpt>
<trkpt lat="33.8102767" lon="-118.3939076">
  <ele>-0.1</ele>
  <time>2026-09-02T22:07:20Z</time>
  <course>223.26</course>
  <speed>0.73</speed>
  <fix>3d</fix>
</trkpt>
<trkpt lat="33.8102762" lon="-118.3939085">
  <ele>-0.106</ele>
  <time>2026-09-02T22:07:20Z</time>
  <course>186.74</course>
  <speed>0.7283543093852057</speed>
  <fix>3d</fix>
</trkpt>
<trkpt lat="33.8102761" lon="-118.3939086">
  <ele>-0.107</ele>
  <time>2026-09-02T22:07:20Z</time>
  <course>186.74</course>
  <speed>0.7283543093852057</speed>
  <fix>3d</fix>
</trkpt>
<trkpt lat="33.8102761" lon="-118.3939086">
  <ele>-0.107</ele>
  <time>2026-09-02T22:07:20Z</time>
  <course>186.74</course>
  <speed>0.7283543093852057</speed>
  <fix>3d</fix>
</trkpt>
<trkpt lat="33.810276" lon="-118.3939087">
  <ele>-0.107</ele>
  <time>2026-09-02T22:07:20Z</time>
  <course>186.74</course>
  <speed>0.7283543093852057</speed>
  <fix>3d</fix>
</trkpt>
<trkpt lat="33.810276" lon="-118.3939087">
  <ele>-0.107</ele>
  <time>2026-09-02T22:07:20Z</time>
  <course>186.74</course>
  <speed>0.7283543093852057</speed>
  <fix>3d</fix>
</trkpt>
<trkpt lat="33.810276" lon="-118.3939088">
  <ele>-0.108</ele>
  <time>2026-09-02T22:07:20Z</time>
  <course>186.74</course>
  <speed>0.7283543093852057</speed>
  <fix>3d</fix>
</trkpt>
<trkpt lat="33.8102759" lon="-118.3939088">
  <ele>-0.108</ele>
  <time>2026-09-02T22:07:20Z</time>
  <course>186.74</course>
  <speed>0.7283543093852057</speed>
  <fix>3d</fix>
</trkpt>
<trkpt lat="33.8102759" lon="-118.3939089">
  <ele>-0.108</ele>
  <time>2026-09-02T22:07:20Z</time>
  <course>186.74</course>
  <speed>0.7283543093852057</speed>
  <fix>3d</fix>
</trkpt>
<trkpt lat="33.8102758" lon="-118.3939089">
  <ele>-0.108</ele>
  <time>2026-09-02T22:07:20Z</time>
  <course>186.74</course>
  <speed>0.7283543093852057</speed>
  <fix>3d</fix>
</trkpt>
<trkpt lat="33.8102758" lon="-118.393909">
  <ele>-0.109</ele>
  <time>2026-09-02T22:07:20Z</time>
  <course>186.74</course>
  <speed>0.7283543093852057</speed>
  <fix>3d</fix>
</trkpt>
<trkpt lat="33.8102758" lon="-118.393909">
  <ele>-0.109</ele>
  <time>2026-09-02T22:07:20Z</time>
  <course>186.74</course>
  <speed>0.7283543093852057</speed>
  <fix>3d</fix>
</trkpt>
<trkpt lat="33.8102757" lon="-118.393909">
  <ele>-0.109</ele>
  <time>2026-09-02T22:07:20Z</time>
  <course>186.74</course>
  <speed>0.7283543093852057</speed>
  <fix>3d</fix>
</trkpt>
<trkpt lat="33.8102767" lon="-118.3939076">
  <ele>-0.1</ele>
  <time>2026-09-02T22:07:20Z</time>
  <course>223.26</course>
  <speed>0.73</speed>
  <fix>3d</fix>
</trkpt>
<trkpt lat="33.8102757" lon="-118.393909">
  <ele>-0.109</ele>
  <time>2026-09-02T22:07:20Z</time>
  <course>186.74</course>
  <speed>0.7283543093852057</speed>
  <fix>3d</fix>
</trkpt>
<trkpt lat="33.8102757" lon="-118.3939091">
  <ele>-0.109</ele>
  <time>2026-09-02T22:07:20Z</time>
  <course>186.74</course>
  <speed>0.7283543093852057</speed>
  <fix>3d</fix>
</trkpt>
<trkpt lat="33.8102756" lon="-118.3939092">
  <ele>-0.109</ele>
  <time>2026-09-02T22:07:20Z</time>
  <course>186.74</course>
  <speed>0.7283543093852057</speed>
  <fix>3d</fix>
</trkpt>
<trkpt lat="33.8102756" lon="-118.3939092">
  <ele>-0.109</ele>
  <time>2026-09-02T22:07:20Z</time>
  <course>186.74</course>
  <speed>0.7283543093852057</speed>
  <fix>3d</fix>
</trkpt>
<trkpt lat="33.8102755" lon="-118.3939093">
  <ele>-0.109</ele>
  <time>2026-09-02T22:07:20Z</time>
  <course>186.74</course>
  <speed>0.7283543093852057</speed>
  <fix>3d</fix>
</trkpt>
<trkpt lat="33.8102755" lon="-118.3939093">
  <ele>-0.109</ele>
  <time>2026-09-02T22:07:20Z</time>
  <course>186.74</course>
  <speed>0.7283543093852057</speed>
  <fix>3d</fix>
</trkpt>
<trkpt lat="33.8102755" lon="-118.3939094">
  <ele>-0.109</ele>
  <time>2026-09-02T22:07:20Z</time>
  <course>186.74</course>
  <speed>0.7283543093852057</speed>
  <fix>3d</fix>
</trkpt>
<trkpt lat="33.8102754" lon="-118.3939094">
  <ele>-0.109</ele>
  <time>2026-09-02T22:07:20Z</time>
  <course>186.74</course>
  <speed>0.7283543093852057</speed>
  <fix>3d</fix>
</trkpt>
<trkpt lat="33.8102754" lon="-118.3939095">
  <ele>-0.109</ele>
  <time>2026-09-02T22:07:20Z</time>
  <course>186.74</course>
  <speed>0.7283543093852057</speed>
  <fix>3d</fix>
</trkpt>
<trkpt lat="33.8102753" lon="-118.3939095">
  <ele>-0.109</ele>
  <time>2026-09-02T22:07:20Z</time>
  <course>186.74</course>
  <speed>0.7283543093852057</speed>
  <fix>3d</fix>
</trkpt>
<trkpt lat="33.8102753" lon="-118.3939095">
  <ele>-0.109</ele>
  <time>2026-09-02T22:07:20Z</time>
  <course>186.73</course>
  <speed>0.7283543093852057</speed>
  <fix>3d</fix>
</trkpt>
<trkpt lat="33.8102753" lon="-118.3939096">
  <ele>-0.109</ele>
  <time>2026-09-02T22:07:20Z</time>
  <course>186.73</course>
  <speed>0.7283543093852057</speed>
  <fix>3d</fix>
</trkpt>
<trkpt lat="33.8102753" lon="-118.3939096">
  <ele>-0.109</ele>
  <time>2026-09-02T22:07:20Z</time>
  <course>186.73</course>
  <speed>0.7283543093852057</speed>
  <fix>3d</fix>
</trkpt>
<trkpt lat="33.8102758" lon="-118.3939087">
  <ele>-0.11</ele>
  <time>2026-09-02T22:07:20Z</time>
  <course>223.26</course>
  <speed>0.73</speed>
  <fix>3d</fix>
</trkpt>
<trkpt lat="33.8102752" lon="-118.3939097">
  <ele>-0.109</ele>
  <time>2026-09-02T22:07:20Z</time>
  <course>186.73</course>
  <speed>0.7283543093852057</speed>
  <fix>3d</fix>
</trkpt>
<trkpt lat="33.8102751" lon="-118.3939097">
  <ele>-0.109</ele>
  <time>2026-09-02T22:07:20Z</time>
  <course>186.73</course>
  <speed>0.7283543093852057</speed>
  <fix>3d</fix>
</trkpt>
<trkpt lat="33.8102751" lon="-118.3939098">
  <ele>-0.109</ele>
  <time>2026-09-02T22:07:20Z</time>
  <course>186.73</course>
  <speed>0.7283543093852057</speed>
  <fix>3d</fix>
</trkpt>
<trkpt lat="33.8102751" lon="-118.3939098">
  <ele>-0.109</ele>
  <time>2026-09-02T22:07:20Z</time>
  <course>186.73</course>
  <speed>0.7283543093852057</speed>
  <fix>3d</fix>
</trkpt>
<trkpt lat="33.810275" lon="-118.3939099">
  <ele>-0.108</ele>
  <time>2026-09-02T22:07:20Z</time>
  <course>186.73</course>
  <speed>0.7283543093852057</speed>
  <fix>3d</fix>
</trkpt>
<trkpt lat="33.810275" lon="-118.3939099">
  <ele>-0.108</ele>
  <time>2026-09-02T22:07:20Z</time>
  <course>186.73</course>
  <speed>0.7283543093852057</speed>
  <fix>3d</fix>
</trkpt>
<trkpt lat="33.8102749" lon="-118.39391">
  <ele>-0.108</ele>
  <time>2026-09-02T22:07:20Z</time>
  <course>186.73</course>
  <speed>0.7283543093852057</speed>
  <fix>3d</fix>
</trkpt>
<trkpt lat="33.8102749" lon="-118.39391">
  <ele>-0.108</ele>
  <time>2026-09-02T22:07:20Z</time>
  <course>186.73</course>
  <speed>0.7283543093852057</speed>
  <fix>3d</fix>
</trkpt>
<trkpt lat="33.8102749" lon="-118.3939101">
  <ele>-0.108</ele>
  <time>2026-09-02T22:07:20Z</time>
  <course>186.73</course>
  <speed>0.7283543093852057</speed>
  <fix>3d</fix>
</trkpt>
<trkpt lat="33.8102748" lon="-118.3939101">
  <ele>-0.108</ele>
  <time>2026-09-02T22:07:20Z</time>
  <course>186.73</course>
  <speed>0.7283543093852057</speed>
  <fix>3d</fix>
</trkpt>
<trkpt lat="33.8102748" lon="-118.3939101">
  <ele>-0.108</ele>
  <time>2026-09-02T22:07:20Z</time>
  <course>186.73</course>
  <speed>0.7283543093852057</speed>
  <fix>3d</fix>
</trkpt>
<trkpt lat="33.8102748" lon="-118.3939101">
  <ele>-0.108</ele>
  <time>2026-09-02T22:07:20Z</time>
  <course>186.73</course>
  <speed>0.7283543093852057</speed>
  <fix>3d</fix>
</trkpt>
<trkpt lat="33.8102758" lon="-118.3939087">
  <ele>-0.11</ele>
  <time>2026-09-02T22:07:20Z</time>
  <course>223.26</course>
  <speed>0.73</speed>
  <fix>3d</fix>
</trkpt>
<trkpt lat="33.8102747" lon="-118.3939102">
  <ele>-0.107</ele>
  <time>2026-09-02T22:07:20Z</time>
  <course>186.73</course>
  <speed>0.7283543093852057</speed>
  <fix>3d</fix>
</trkpt>
<trkpt lat="33.8102747" lon="-118.3939103">
  <ele>-0.107</ele>
  <time>2026-09-02T22:07:20Z</time>
  <course>186.73</course>
  <speed>0.7283543093852057</speed>
  <fix>3d</fix>
</trkpt>
<trkpt lat="33.8102746" lon="-118.3939103">
  <ele>-0.107</ele>
  <time>2026-09-02T22:07:20Z</time>
  <course>186.73</course>
  <speed>0.7283543093852057</speed>
  <fix>3d</fix>
</trkpt>
<trkpt lat="33.8102746" lon="-118.3939104">
  <ele>-0.107</ele>
  <time>2026-09-02T22:07:20Z</time>
  <course>186.73</course>
  <speed>0.7283543093852057</speed>
  <fix>3d</fix>
</trkpt>
<trkpt lat="33.8102746" lon="-118.3939104">
  <ele>-0.107</ele>
  <time>2026-09-02T22:07:20Z</time>
  <course>186.73</course>
  <speed>0.7283543093852057</speed>
  <fix>3d</fix>
</trkpt>
<trkpt lat="33.8102745" lon="-118.3939104">
  <ele>-0.106</ele>
  <time>2026-09-02T22:07:20Z</time>
  <course>186.73</course>
  <speed>0.7283543093852057</speed>
  <fix>3d</fix>
</trkpt>
<trkpt lat="33.8102745" lon="-118.3939105">
  <ele>-0.106</ele>
  <time>2026-09-02T22:07:20Z</time>
  <course>186.73</course>
  <speed>0.7283543093852057</speed>
  <fix>3d</fix>
</trkpt>
<trkpt lat="33.8102745" lon="-118.3939105">
  <ele>-0.106</ele>
  <time>2026-09-02T22:07:20Z</time>
  <course>186.73</course>
  <speed>0.7283543093852057</speed>
  <fix>3d</fix>
</trkpt>
<trkpt lat="33.8102744" lon="-118.3939106">
  <ele>-0.106</ele>
  <time>2026-09-02T22:07:20Z</time>
  <course>186.73</course>
  <speed>0.7283543093852057</speed>
  <fix>3d</fix>
</trkpt>
<trkpt lat="33.8102744" lon="-118.3939106">
  <ele>-0.106</ele>
  <time>2026-09-02T22:07:20Z</time>
  <course>186.73</course>
  <speed>0.7283543093852057</speed>
  <fix>3d</fix>
</trkpt>
<trkpt lat="33.8102744" lon="-118.3939106">
  <ele>-0.105</ele>
  <time>2026-09-02T22:07:20Z</time>
  <course>186.73</course>
  <speed>0.7283543093852057</speed>
  <fix>3d</fix>
</trkpt>
<trkpt lat="33.8102743" lon="-118.3939107">
  <ele>-0.105</ele>
  <time>2026-09-02T22:07:20Z</time>
  <course>186.73</course>
  <speed>0.7283543093852057</speed>
  <fix>3d</fix>
</trkpt>
<trkpt lat="33.8102743" lon="-118.3939107">
  <ele>-0.105</ele>
  <time>2026-09-02T22:07:20Z</time>
  <course>186.73</course>
  <speed>0.7283543093852057</speed>
  <fix>3d</fix>
</trkpt>
<trkpt lat="33.8102748" lon="-118.3939098">
  <ele>-0.11</ele>
  <time>2026-09-02T22:07:20Z</time>
  <course>223.26</course>
  <speed>0.73</speed>
  <fix>3d</fix>
</trkpt>
<trkpt lat="33.8102742" lon="-118.3939108">
  <ele>-0.105</ele>
  <time>2026-09-02T22:07:20Z</time>
  <course>186.73</course>
  <speed>0.7283543093852057</speed>
  <fix>3d</fix>
</trkpt>
<trkpt lat="33.8102742" lon="-118.3939108">
  <ele>-0.105</ele>
  <time>2026-09-02T22:07:20Z</time>
  <course>186.73</course>
  <speed>0.7283543093852057</speed>
  <fix>3d</fix>
</trkpt>
<trkpt lat="33.8102742" lon="-118.3939109">
  <ele>-0.104</ele>
  <time>2026-09-02T22:07:20Z</time>
  <course>186.73</course>
  <speed>0.7283543093852057</speed>
  <fix>3d</fix>
</trkpt>
<trkpt lat="33.8102741" lon="-118.3939109">
  <ele>-0.104</ele>
  <time>2026-09-02T22:07:20Z</time>
  <course>186.73</course>
  <speed>0.7283543093852057</speed>
  <fix>3d</fix>
</trkpt>
<trkpt lat="33.8102741" lon="-118.3939109">
  <ele>-0.104</ele>
  <time>2026-09-02T22:07:20Z</time>
  <course>186.73</course>
  <speed>0.7283543093852057</speed>
  <fix>3d</fix>
</trkpt>
<trkpt lat="33.810274" lon="-118.393911">
  <ele>-0.104</ele>
  <time>2026-09-02T22:07:20Z</time>
  <course>186.73</course>
  <speed>0.7283543093852057</speed>
  <fix>3d</fix>
</trkpt>
<trkpt lat="33.810274" lon="-118.393911">
  <ele>-0.103</ele>
  <time>2026-09-02T22:07:20Z</time>
  <course>186.73</course>
  <speed>0.7283543093852057</speed>
  <fix>3d</fix>
</trkpt>
<trkpt lat="33.810274" lon="-118.3939111">
  <ele>-0.103</ele>
  <time>2026-09-02T22:07:20Z</time>
  <course>186.73</course>
  <speed>0.7283543093852057</speed>
  <fix>3d</fix>
</trkpt>
<trkpt lat="33.8102739" lon="-118.3939111">
  <ele>-0.103</ele>
  <time>2026-09-02T22:07:20Z</time>
  <course>186.72</course>
  <speed>0.7283543093852057</speed>
  <fix>3d</fix>
</trkpt>
<trkpt lat="33.8102739" lon="-118.3939112">
  <ele>-0.103</ele>
  <time>2026-09-02T22:07:20Z</time>
  <course>186.72</course>
  <speed>0.7283543093852057</speed>
  <fix>3d</fix>
</trkpt>
<trkpt lat="33.8102739" lon="-118.3939112">
  <ele>-0.103</ele>
  <time>2026-09-02T22:07:20Z</time>
  <course>186.72</course>
  <speed>0.7283543093852057</speed>
  <fix>3d</fix>
</trkpt>
<trkpt lat="33.8102738" lon="-118.3939112">
  <ele>-0.103</ele>
  <time>2026-09-02T22:07:20Z</time>
  <course>186.72</course>
  <speed>0.7283543093852057</speed>
  <fix>3d</fix>
</trkpt>
<trkpt lat="33.8102748" lon="-118.3939098">
  <ele>-0.11</ele>
  <time>2026-09-02T22:07:20Z</time>
  <course>223.26</course>
  <speed>0.73</speed>
  <fix>3d</fix>
</trkpt>
<trkpt lat="33.8102738" lon="-118.3939113">
  <ele>-0.103</ele>
  <time>2026-09-02T22:07:20Z</time>
  <course>186.72</course>
  <speed>0.7283543093852057</speed>
  <fix>3d</fix>
</trkpt>
<trkpt lat="33.8102738" lon="-118.3939113">
  <ele>-0.102</ele>
  <time>2026-09-02T22:07:20Z</time>
  <course>186.72</course>
  <speed>0.7283543093852057</speed>
  <fix>3d</fix>
</trkpt>
<trkpt lat="33.8102737" lon="-118.3939114">
  <ele>-0.102</ele>
  <time>2026-09-02T22:07:20Z</time>
  <course>186.72</course>
  <speed>0.7283543093852057</speed>
  <fix>3d</fix>
</trkpt>
<trkpt lat="33.8102737" lon="-118.3939114">
  <ele>-0.102</ele>
  <time>2026-09-02T22:07:20Z</time>
  <course>186.72</course>
  <speed>0.7283543093852057</speed>
  <fix>3d</fix>
</trkpt>
<trkpt lat="33.8102736" lon="-118.3939115">
  <ele>-0.102</ele>
  <time>2026-09-02T22:07:20Z</time>
  <course>186.72</course>
  <speed>0.7283543093852057</speed>
  <fix>3d</fix>
</trkpt>
<trkpt lat="33.8102736" lon="-118.3939115">
  <ele>-0.102</ele>
  <time>2026-09-02T22:07:20Z</time>
  <course>186.72</course>
  <speed>0.7283543093852057</speed>
  <fix>3d</fix>
</trkpt>
<trkpt lat="33.8102736" lon="-118.3939115">
  <ele>-0.102</ele>
  <time>2026-09-02T22:07:20Z</time>
  <course>186.72</course>
  <speed>0.7283543093852057</speed>
  <fix>3d</fix>
</trkpt>
<trkpt lat="33.8102735" lon="-118.3939116">
  <ele>-0.102</ele>
  <time>2026-09-02T22:07:20Z</time>
  <course>186.72</course>
  <speed>0.7283543093852057</speed>
  <fix>3d</fix>
</trkpt>
<trkpt lat="33.8102735" lon="-118.3939116">
  <ele>-0.102</ele>
  <time>2026-09-02T22:07:20Z</time>
  <course>186.72</course>
  <speed>0.7283543093852057</speed>
  <fix>3d</fix>
</trkpt>
<trkpt lat="33.8102735" lon="-118.3939117">
  <ele>-0.102</ele>
  <time>2026-09-02T22:07:20Z</time>
  <course>186.72</course>
  <speed>0.7283543093852057</speed>
  <fix>3d</fix>
</trkpt>
<trkpt lat="33.8102734" lon="-118.3939117">
  <ele>-0.102</ele>
  <time>2026-09-02T22:07:20Z</time>
  <course>186.72</course>
  <speed>0.7283543093852057</speed>
  <fix>3d</fix>
</trkpt>
<trkpt lat="33.8102734" lon="-118.3939118">
  <ele>-0.102</ele>
  <time>2026-09-02T22:07:20Z</time>
  <course>186.72</course>
  <speed>0.7283543093852057</speed>
  <fix>3d</fix>
</trkpt>
<trkpt lat="33.8102734" lon="-118.3939118">
  <ele>-0.102</ele>
  <time>2026-09-02T22:07:20Z</time>
  <course>186.72</course>
  <speed>0.7283543093852057</speed>
  <fix>3d</fix>
</trkpt>
<trkpt lat="33.8102739" lon="-118.3939108">
  <ele>-0.1</ele>
  <time>2026-09-02T22:07:20Z</time>
  <course>223.26</course>
  <speed>0.73</speed>
  <fix>3d</fix>
</trkpt>
<trkpt lat="33.8102732" lon="-118.3939119">
  <ele>-0.102</ele>
  <time>2026-09-02T22:07:20Z</time>
  <course>186.72</course>
  <speed>0.7283543093852057</speed>
  <fix>3d</fix>
</trkpt>
<trkpt lat="33.8102732" lon="-118.393912">
  <ele>-0.102</ele>
  <time>2026-09-02T22:07:20Z</time>
  <course>186.72</course>
  <speed>0.7283543093852057</speed>
  <fix>3d</fix>
</trkpt>
<trkpt lat="33.8102732" lon="-118.393912">
  <ele>-0.102</ele>
  <time>2026-09-02T22:07:20Z</time>
  <course>186.72</course>
  <speed>0.7283543093852057</speed>
  <fix>3d</fix>
</trkpt>
<trkpt lat="33.8102731" lon="-118.3939121">
  <ele>-0.102</ele>
  <time>2026-09-02T22:07:20Z</time>
  <course>186.72</course>
  <speed>0.7283543093852057</speed>
  <fix>3d</fix>
</trkpt>
<trkpt lat="33.8102731" lon="-118.3939121">
  <ele>-0.102</ele>
  <time>2026-09-02T22:07:20Z</time>
  <course>186.72</course>
  <speed>0.7283543093852057</speed>
  <fix>3d</fix>
</trkpt>
<trkpt lat="33.810273" lon="-118.3939121">
  <ele>-0.102</ele>
  <time>2026-09-02T22:07:20Z</time>
  <course>186.72</course>
  <speed>0.7283543093852057</speed>
  <fix>3d</fix>
</trkpt>
<trkpt lat="33.810273" lon="-118.3939122">
  <ele>-0.103</ele>
  <time>2026-09-02T22:07:20Z</time>
  <course>186.72</course>
  <speed>0.7283543093852057</speed>
  <fix>3d</fix>
</trkpt>
<trkpt lat="33.810273" lon="-118.3939122">
  <ele>-0.103</ele>
  <time>2026-09-02T22:07:20Z</time>
  <course>186.72</course>
  <speed>0.7283543093852057</speed>
  <fix>3d</fix>
</trkpt>
<trkpt lat="33.8102729" lon="-118.3939123">
  <ele>-0.103</ele>
  <time>2026-09-02T22:07:20Z</time>
  <course>186.72</course>
  <speed>0.7283543093852057</speed>
  <fix>3d</fix>
</trkpt>
<trkpt lat="33.8102729" lon="-118.3939123">
  <ele>-0.103</ele>
  <time>2026-09-02T22:07:20Z</time>
  <course>186.72</course>
  <speed>0.7283543093852057</speed>
  <fix>3d</fix>
</trkpt>
<trkpt lat="33.8102729" lon="-118.3939123">
  <ele>-0.103</ele>
  <time>2026-09-02T22:07:20Z</time>
  <course>186.72</course>
  <speed>0.7283543093852057</speed>
  <fix>3d</fix>
</trkpt>
<trkpt lat="33.8102739" lon="-118.3939108">
  <ele>-0.1</ele>
  <time>2026-09-02T22:07:20Z</time>
  <course>223.26</course>
  <speed>0.73</speed>
  <fix>3d</fix>
</trkpt>
<trkpt lat="33.8102728" lon="-118.3939124">
  <ele>-0.104</ele>
  <time>2026-09-02T22:07:20Z</time>
  <course>186.72</course>
  <speed>0.7283543093852057</speed>
  <fix>3d</fix>
</trkpt>
<trkpt lat="33.8102728" lon="-118.3939125">
  <ele>-0.104</ele>
  <time>2026-09-02T22:07:20Z</time>
  <course>186.72</course>
  <speed>0.7283543093852057</speed>
  <fix>3d</fix>
</trkpt>
<trkpt lat="33.8102727" lon="-118.3939125">
  <ele>-0.104</ele>
  <time>2026-09-02T22:07:20Z</time>
  <course>186.72</course>
  <speed>0.7283543093852057</speed>
  <fix>3d</fix>
</trkpt>
<trkpt lat="33.8102727" lon="-118.3939126">
  <ele>-0.104</ele>
  <time>2026-09-02T22:07:20Z</time>
  <course>186.72</course>
  <speed>0.7283543093852057</speed>
  <fix>3d</fix>
</trkpt>
<trkpt lat="33.8102727" lon="-118.3939126">
  <ele>-0.104</ele>
  <time>2026-09-02T22:07:20Z</time>
  <course>186.72</course>
  <speed>0.7283543093852057</speed>
  <fix>3d</fix>
</trkpt>
<trkpt lat="33.8102726" lon="-118.3939127">
  <ele>-0.105</ele>
  <time>2026-09-02T22:07:20Z</time>
  <course>186.72</course>
  <speed>0.7283543093852057</speed>
  <fix>3d</fix>
</trkpt>
<trkpt lat="33.8102726" lon="-118.3939127">
  <ele>-0.105</ele>
  <time>2026-09-02T22:07:20Z</time>
  <course>186.72</course>
  <speed>0.7283543093852057</speed>
  <fix>3d</fix>
</trkpt>
<trkpt lat="33.8102725" lon="-118.3939127">
  <ele>-0.106</ele>
  <time>2026-09-02T22:07:20Z</time>
  <course>186.71</course>
  <speed>0.7283543093852057</speed>
  <fix>3d</fix>
</trkpt>
<trkpt lat="33.8102725" lon="-118.3939128">
  <ele>-0.106</ele>
  <time>2026-09-02T22:07:20Z</time>
  <course>186.71</course>
  <speed>0.7283543093852057</speed>
  <fix>3d</fix>
</trkpt>
<trkpt lat="33.8102724" lon="-118.3939128">
  <ele>-0.106</ele>
  <time>2026-09-02T22:07:20Z</time>
  <course>186.71</course>
  <speed>0.7283543093852057</speed>
  <fix>3d</fix>
</trkpt>
<trkpt lat="33.8102724" lon="-118.3939129">
  <ele>-0.106</ele>
  <time>2026-09-02T22:07:20Z</time>
  <course>186.71</course>
  <speed>0.7283543093852057</speed>
  <fix>3d</fix>
</trkpt>
<trkpt lat="33.8102724" lon="-118.3939129">
  <ele>-0.107</ele>
  <time>2026-09-02T22:07:20Z</time>
  <course>186.71</course>
  <speed>0.7283543093852057</speed>
  <fix>3d</fix>
</trkpt>
<trkpt lat="33.8102729" lon="-118.3939119">
  <ele>-0.1</ele>
  <time>2026-09-02T22:07:20Z</time>
  <course>223.26</course>
  <speed>0.73</speed>
  <fix>3d</fix>
</trkpt>
<trkpt lat="33.8102724" lon="-118.3939129">
  <ele>-0.107</ele>
  <time>2026-09-02T22:07:20Z</time>
  <course>186.71</course>
  <speed>0.7283543093852057</speed>
  <fix>3d</fix>
</trkpt>
<trkpt lat="33.8102723" lon="-118.393913">
  <ele>-0.107</ele>
  <time>2026-09-02T22:07:20Z</time>
  <course>186.71</course>
  <speed>0.7283543093852057</speed>
  <fix>3d</fix>
</trkpt>
<trkpt lat="33.8102723" lon="-118.393913">
  <ele>-0.108</ele>
  <time>2026-09-02T22:07:20Z</time>
  <course>186.71</course>
  <speed>0.7283543093852057</speed>
  <fix>3d</fix>
</trkpt>
<trkpt lat="33.8102722" lon="-118.3939131">
  <ele>-0.108</ele>
  <time>2026-09-02T22:07:20Z</time>
  <course>186.71</course>
  <speed>0.7283543093852057</speed>
  <fix>3d</fix>
</trkpt>
<trkpt lat="33.8102722" lon="-118.3939131">
  <ele>-0.109</ele>
  <time>2026-09-02T22:07:20Z</time>
  <course>186.71</course>
  <speed>0.7283543093852057</speed>
  <fix>3d</fix>
</trkpt>
<trkpt lat="33.8102721" lon="-118.3939132">
  <ele>-0.109</ele>
  <time>2026-09-02T22:07:20Z</time>
  <course>186.71</course>
  <speed>0.7283543093852057</speed>
  <fix>3d</fix>
</trkpt>
<trkpt lat="33.8102721" lon="-118.3939132">
  <ele>-0.109</ele>
  <time>2026-09-02T22:07:20Z</time>
  <course>186.71</course>
  <speed>0.7283543093852057</speed>
  <fix>3d</fix>
</trkpt>
<trkpt lat="33.8102721" lon="-118.3939133">
  <ele>-0.109</ele>
  <time>2026-09-02T22:07:20Z</time>
  <course>186.71</course>
  <speed>0.7283543093852057</speed>
  <fix>3d</fix>
</trkpt>
<trkpt lat="33.810272" lon="-118.3939133">
  <ele>-0.11</ele>
  <time>2026-09-02T22:07:20Z</time>
  <course>186.71</course>
  <speed>0.7283543093852057</speed>
  <fix>3d</fix>
</trkpt>
<trkpt lat="33.810272" lon="-118.3939134">
  <ele>-0.11</ele>
  <time>2026-09-02T22:07:20Z</time>
  <course>186.71</course>
  <speed>0.7283543093852057</speed>
  <fix>3d</fix>
</trkpt>
<trkpt lat="33.8102719" lon="-118.3939134">
  <ele>-0.11</ele>
  <time>2026-09-02T22:07:20Z</time>
  <course>186.71</course>
  <speed>0.7283543093852057</speed>
  <fix>3d</fix>
</trkpt>
<trkpt lat="33.8102719" lon="-118.3939134">
  <ele>-0.111</ele>
  <time>2026-09-02T22:07:20Z</time>
  <course>186.71</course>
  <speed>0.7283543093852057</speed>
  <fix>3d</fix>
</trkpt>
<trkpt lat="33.8102729" lon="-118.3939119">
  <ele>-0.1</ele>
  <time>2026-09-02T22:07:20Z</time>
  <course>223.26</course>
  <speed>0.73</speed>
  <fix>3d</fix>
</trkpt>
<trkpt lat="33.8102719" lon="-118.3939134">
  <ele>-0.111</ele>
  <time>2026-09-02T22:07:20Z</time>
  <course>186.71</course>
  <speed>0.7283543093852057</speed>
  <fix>3d</fix>
</trkpt>
<trkpt lat="33.8102719" lon="-118.3939135">
  <ele>-0.111</ele>
  <time>2026-09-02T22:07:20Z</time>
  <course>186.71</course>
  <speed>0.7283543093852057</speed>
  <fix>3d</fix>
</trkpt>
<trkpt lat="33.8102718" lon="-118.3939135">
  <ele>-0.111</ele>
  <time>2026-09-02T22:07:20Z</time>
  <course>186.71</course>
  <speed>0.7283543093852057</speed>
  <fix>3d</fix>
</trkpt>
<trkpt lat="33.8102718" lon="-118.3939136">
  <ele>-0.112</ele>
  <time>2026-09-02T22:07:20Z</time>
  <course>186.71</course>
  <speed>0.7283543093852057</speed>
  <fix>3d</fix>
</trkpt>
<trkpt lat="33.8102718" lon="-118.3939136">
  <ele>-0.112</ele>
  <time>2026-09-02T22:07:20Z</time>
  <course>186.71</course>
  <speed>0.7283543093852057</speed>
  <fix>3d</fix>
</trkpt>
<trkpt lat="33.8102717" lon="-118.3939137">
  <ele>-0.112</ele>
  <time>2026-09-02T22:07:20Z</time>
  <course>186.71</course>
  <speed>0.7283543093852057</speed>
  <fix>3d</fix>
</trkpt>
<trkpt lat="33.8102717" lon="-118.3939137">
  <ele>-0.112</ele>
  <time>2026-09-02T22:07:20Z</time>
  <course>186.71</course>
  <speed>0.7283543093852057</speed>
  <fix>3d</fix>
</trkpt>
<trkpt lat="33.8102717" lon="-118.3939138">
  <ele>-0.112</ele>
  <time>2026-09-02T22:07:20Z</time>
  <course>186.71</course>
  <speed>0.7283543093852057</speed>
  <fix>3d</fix>
</trkpt>
<trkpt lat="33.8102716" lon="-118.3939138">
  <ele>-0.113</ele>
  <time>2026-09-02T22:07:20Z</time>
  <course>186.71</course>
  <speed>0.7283543093852057</speed>
  <fix>3d</fix>
</trkpt>
<trkpt lat="33.8102716" lon="-118.3939138">
  <ele>-0.113</ele>
  <time>2026-09-02T22:07:20Z</time>
  <course>186.71</course>
  <speed>0.7283543093852057</speed>
  <fix>3d</fix>
</trkpt>
<trkpt lat="33.8102715" lon="-118.3939139">
  <ele>-0.113</ele>
  <time>2026-09-02T22:07:20Z</time>
  <course>186.71</course>
  <speed>0.7283543093852057</speed>
  <fix>3d</fix>
</trkpt>
<trkpt lat="33.8102715" lon="-118.3939139">
  <ele>-0.113</ele>
  <time>2026-09-02T22:07:20Z</time>
  <course>186.71</course>
  <speed>0.7283543093852057</speed>
  <fix>3d</fix>
</trkpt>
<trkpt lat="33.8102715" lon="-118.393914">
  <ele>-0.114</ele>
  <time>2026-09-02T22:07:20Z</time>
  <course>186.71</course>
  <speed>0.7283543093852057</speed>
  <fix>3d</fix>
</trkpt>
<trkpt lat="33.8102714" lon="-118.393914">
  <ele>-0.114</ele>
  <time>2026-09-02T22:07:20Z</time>
  <course>186.71</course>
  <speed>0.7283543093852057</speed>
  <fix>3d</fix>
</trkpt>
<trkpt lat="33.810272" lon="-118.393913">
  <ele>-0.1</ele>
  <time>2026-09-02T22:07:20Z</time>
  <course>223.26</course>
  <speed>0.73</speed>
  <fix>3d</fix>
</trkpt>
<trkpt lat="33.8102714" lon="-118.393914">
  <ele>-0.114</ele>
  <time>2026-09-02T22:07:20Z</time>
  <course>186.71</course>
  <speed>0.7283543093852057</speed>
  <fix>3d</fix>
</trkpt>
<trkpt lat="33.8102714" lon="-118.3939141">
  <ele>-0.114</ele>
  <time>2026-09-02T22:07:20Z</time>
  <course>186.71</course>
  <speed>0.7283543093852057</speed>
  <fix>3d</fix>
</trkpt>
<trkpt lat="33.8102713" lon="-118.3939141">
  <ele>-0.114</ele>
  <time>2026-09-02T22:07:20Z</time>
  <course>186.71</course>
  <speed>0.7283543093852057</speed>
  <fix>3d</fix>
</trkpt>
<trkpt lat="33.8102713" lon="-118.3939142">
  <ele>-0.114</ele>
  <time>2026-09-02T22:07:20Z</time>
  <course>186.71</course>
  <speed>0.7283543093852057</speed>
  <fix>3d</fix>
</trkpt>
<trkpt lat="33.8102712" lon="-118.3939142">
  <ele>-0.115</ele>
  <time>2026-09-02T22:07:20Z</time>
  <course>186.71</course>
  <speed>0.7283543093852057</speed>
  <fix>3d</fix>
</trkpt>
<trkpt lat="33.8102712" lon="-118.3939143">
  <ele>-0.115</ele>
  <time>2026-09-02T22:07:20Z</time>
  <course>186.71</course>
  <speed>0.7283543093852057</speed>
  <fix>3d</fix>
</trkpt>
<trkpt lat="33.8102712" lon="-118.3939143">
  <ele>-0.115</ele>
  <time>2026-09-02T22:07:20Z</time>
  <course>186.71</course>
  <speed>0.7283543093852057</speed>
  <fix>3d</fix>
</trkpt>
<trkpt lat="33.8102711" lon="-118.3939143">
  <ele>-0.115</ele>
  <time>2026-09-02T22:07:20Z</time>
  <course>186.71</course>
  <speed>0.7283543093852057</speed>
  <fix>3d</fix>
</trkpt>
<trkpt lat="33.8102711" lon="-118.3939144">
  <ele>-0.115</ele>
  <time>2026-09-02T22:07:20Z</time>
  <course>186.7</course>
  <speed>0.7283543093852057</speed>
  <fix>3d</fix>
</trkpt>
<trkpt lat="33.8102711" lon="-118.3939144">
  <ele>-0.115</ele>
  <time>2026-09-02T22:07:20Z</time>
  <course>186.7</course>
  <speed>0.7283543093852057</speed>
  <fix>3d</fix>
</trkpt>
<trkpt lat="33.810271" lon="-118.3939145">
  <ele>-0.115</ele>
  <time>2026-09-02T22:07:20Z</time>
  <course>186.7</course>
  <speed>0.7283543093852057</speed>
  <fix>3d</fix>
</trkpt>
<trkpt lat="33.810271" lon="-118.3939145">
  <ele>-0.115</ele>
  <time>2026-09-02T22:07:20Z</time>
  <course>186.7</course>
  <speed>0.7283543093852057</speed>
  <fix>3d</fix>
</trkpt>
<trkpt lat="33.810271" lon="-118.3939145">
  <ele>-0.115</ele>
  <time>2026-09-02T22:07:20Z</time>
  <course>186.7</course>
  <speed>0.7283543093852057</speed>
  <fix>3d</fix>
</trkpt>
<trkpt lat="33.810272" lon="-118.393913">
  <ele>-0.1</ele>
  <time>2026-09-02T22:07:20Z</time>
  <course>223.26</course>
  <speed>0.73</speed>
  <fix>3d</fix>
</trkpt>
<trkpt lat="33.810271" lon="-118.3939145">
  <ele>-0.115</ele>
  <time>2026-09-02T22:07:20Z</time>
  <course>186.7</course>
  <speed>0.7283543093852057</speed>
  <fix>3d</fix>
</trkpt>
<trkpt lat="33.8102709" lon="-118.3939146">
  <ele>-0.115</ele>
  <time>2026-09-02T22:07:20Z</time>
  <course>186.7</course>
  <speed>0.7283543093852057</speed>
  <fix>3d</fix>
</trkpt>
<trkpt lat="33.8102708" lon="-118.3939147">
  <ele>-0.115</ele>
  <time>2026-09-02T22:07:20Z</time>
  <course>186.7</course>
  <speed>0.7283543093852057</speed>
  <fix>3d</fix>
</trkpt>
<trkpt lat="33.8102708" lon="-118.3939147">
  <ele>-0.115</ele>
  <time>2026-09-02T22:07:20Z</time>
  <course>186.7</course>
  <speed>0.7283543093852057</speed>
  <fix>3d</fix>
</trkpt>
<trkpt lat="33.8102708" lon="-118.3939148">
  <ele>-0.115</ele>
  <time>2026-09-02T22:07:20Z</time>
  <course>186.7</course>
  <speed>0.7283543093852057</speed>
  <fix>3d</fix>
</trkpt>
<trkpt lat="33.8102707" lon="-118.3939148">
  <ele>-0.115</ele>
  <time>2026-09-02T22:07:20Z</time>
  <course>186.7</course>
  <speed>0.7283543093852057</speed>
  <fix>3d</fix>
</trkpt>
<trkpt lat="33.8102707" lon="-118.3939149">
  <ele>-0.115</ele>
  <time>2026-09-02T22:07:20Z</time>
  <course>186.7</course>
  <speed>0.7283543093852057</speed>
  <fix>3d</fix>
</trkpt>
<trkpt lat="33.8102706" lon="-118.3939149">
  <ele>-0.115</ele>
  <time>2026-09-02T22:07:20Z</time>
  <course>186.7</course>
  <speed>0.7283543093852057</speed>
  <fix>3d</fix>
</trkpt>
<trkpt lat="33.8102706" lon="-118.393915">
  <ele>-0.114</ele>
  <time>2026-09-02T22:07:20Z</time>
  <course>186.7</course>
  <speed>0.7283543093852057</speed>
  <fix>3d</fix>
</trkpt>
<trkpt lat="33.8102706" lon="-118.393915">
  <ele>-0.114</ele>
  <time>2026-09-02T22:07:20Z</time>
  <course>186.7</course>
  <speed>0.7283543093852057</speed>
  <fix>3d</fix>
</trkpt>
<trkpt lat="33.8102705" lon="-118.393915">
  <ele>-0.114</ele>
  <time>2026-09-02T22:07:20Z</time>
  <course>186.7</course>
  <speed>0.7283543093852057</speed>
  <fix>3d</fix>
</trkpt>
<trkpt lat="33.8102705" lon="-118.3939151">
  <ele>-0.114</ele>
  <time>2026-09-02T22:07:20Z</time>
  <course>186.7</course>
  <speed>0.7283543093852057</speed>
  <fix>3d</fix>
</trkpt>
<trkpt lat="33.8102705" lon="-118.3939151">
  <ele>-0.114</ele>
  <time>2026-09-02T22:07:20Z</time>
  <course>186.7</course>
  <speed>0.7283543093852057</speed>
  <fix>3d</fix>
</trkpt>
<trkpt lat="33.810271" lon="-118.3939141">
  <ele>-0.11</ele>
  <time>2026-09-02T22:07:20Z</time>
  <course>223.26</course>
  <speed>0.73</speed>
  <fix>3d</fix>
</trkpt>
<trkpt lat="33.8102704" lon="-118.3939152">
  <ele>-0.114</ele>
  <time>2026-09-02T22:07:20Z</time>
  <course>186.7</course>
  <speed>0.7283543093852057</speed>
  <fix>3d</fix>
</trkpt>
<trkpt lat="33.8102704" lon="-118.3939152">
  <ele>-0.114</ele>
  <time>2026-09-02T22:07:20Z</time>
  <course>186.7</course>
  <speed>0.7283543093852057</speed>
  <fix>3d</fix>
</trkpt>
<trkpt lat="33.8102703" lon="-118.3939153">
  <ele>-0.113</ele>
  <time>2026-09-02T22:07:20Z</time>
  <course>186.7</course>
  <speed>0.7283543093852057</speed>
  <fix>3d</fix>
</trkpt>
<trkpt lat="33.8102703" lon="-118.3939153">
  <ele>-0.113</ele>
  <time>2026-09-02T22:07:20Z</time>
  <course>186.7</course>
  <speed>0.7283543093852057</speed>
  <fix>3d</fix>
</trkpt>
<trkpt lat="33.8102702" lon="-118.3939154">
  <ele>-0.113</ele>
  <time>2026-09-02T22:07:20Z</time>
  <course>186.7</course>
  <speed>0.7283543093852057</speed>
  <fix>3d</fix>
</trkpt>
<trkpt lat="33.8102702" lon="-118.3939154">
  <ele>-0.113</ele>
  <time>2026-09-02T22:07:20Z</time>
  <course>186.7</course>
  <speed>0.7283543093852057</speed>
  <fix>3d</fix>
</trkpt>
<trkpt lat="33.8102701" lon="-118.3939155">
  <ele>-0.113</ele>
  <time>2026-09-02T22:07:20Z</time>
  <course>186.7</course>
  <speed>0.7283543093852057</speed>
  <fix>3d</fix>
</trkpt>
<trkpt lat="33.8102701" lon="-118.3939155">
  <ele>-0.113</ele>
  <time>2026-09-02T22:07:20Z</time>
  <course>186.7</course>
  <speed>0.7213875518748573</speed>
  <fix>3d</fix>
</trkpt>
<trkpt lat="33.8102701" lon="-118.3939156">
  <ele>-0.113</ele>
  <time>2026-09-02T22:07:20Z</time>
  <course>186.7</course>
  <speed>0.7213875518748573</speed>
  <fix>3d</fix>
</trkpt>
<trkpt lat="33.81027" lon="-118.3939156">
  <ele>-0.113</ele>
  <time>2026-09-02T22:07:20Z</time>
  <course>186.7</course>
  <speed>0.7213875518748573</speed>
  <fix>3d</fix>
</trkpt>
<trkpt lat="33.81027" lon="-118.3939156">
  <ele>-0.113</ele>
  <time>2026-09-02T22:07:20Z</time>
  <course>186.7</course>
  <speed>0.7213875518748573</speed>
  <fix>3d</fix>
</trkpt>
<trkpt lat="33.810271" lon="-118.3939141">
  <ele>-0.11</ele>
  <time>2026-09-02T22:07:20Z</time>
  <course>223.26</course>
  <speed>0.73</speed>
  <fix>3d</fix>
</trkpt>
<trkpt lat="33.81027" lon="-118.3939156">
  <ele>-0.112</ele>
  <time>2026-09-02T22:07:20Z</time>
  <course>186.7</course>
  <speed>0.7213875518748573</speed>
  <fix>3d</fix>
</trkpt>
<trkpt lat="33.8102699" lon="-118.3939157">
  <ele>-0.112</ele>
  <time>2026-09-02T22:07:20Z</time>
  <course>186.7</course>
  <speed>0.7213875518748573</speed>
  <fix>3d</fix>
</trkpt>
<trkpt lat="33.8102699" lon="-118.3939158">
  <ele>-0.112</ele>
  <time>2026-09-02T22:07:20Z</time>
  <course>186.7</course>
  <speed>0.7213875518748573</speed>
  <fix>3d</fix>
</trkpt>
<trkpt lat="33.8102699" lon="-118.3939158">
  <ele>-0.112</ele>
  <time>2026-09-02T22:07:20Z</time>
  <course>186.7</course>
  <speed>0.7213875518748573</speed>
  <fix>3d</fix>
</trkpt>
<trkpt lat="33.8102698" lon="-118.3939159">
  <ele>-0.112</ele>
  <time>2026-09-02T22:07:20Z</time>
  <course>186.7</course>
  <speed>0.7213875518748573</speed>
  <fix>3d</fix>
</trkpt>
<trkpt lat="33.8102698" lon="-118.3939159">
  <ele>-0.111</ele>
  <time>2026-09-02T22:07:20Z</time>
  <course>186.7</course>
  <speed>0.7213875518748573</speed>
  <fix>3d</fix>
</trkpt>
<trkpt lat="33.8102698" lon="-118.3939159">
  <ele>-0.111</ele>
  <time>2026-09-02T22:07:20Z</time>
  <course>186.7</course>
  <speed>0.7213875518748573</speed>
  <fix>3d</fix>
</trkpt>
<trkpt lat="33.8102697" lon="-118.393916">
  <ele>-0.111</ele>
  <time>2026-09-02T22:07:20Z</time>
  <course>186.69</course>
  <speed>0.7213875518748573</speed>
  <fix>3d</fix>
</trkpt>
<trkpt lat="33.8102697" lon="-118.393916">
  <ele>-0.111</ele>
  <time>2026-09-02T22:07:20Z</time>
  <course>186.69</course>
  <speed>0.7213875518748573</speed>
  <fix>3d</fix>
</trkpt>
<trkpt lat="33.8102696" lon="-118.3939161">
  <ele>-0.111</ele>
  <time>2026-09-02T22:07:20Z</time>
  <course>186.69</course>
  <speed>0.7213875518748573</speed>
  <fix>3d</fix>
</trkpt>
<trkpt lat="33.8102696" lon="-118.3939161">
  <ele>-0.11</ele>
  <time>2026-09-02T22:07:20Z</time>
  <course>186.69</course>
  <speed>0.7213875518748573</speed>
  <fix>3d</fix>
</trkpt>
<trkpt lat="33.8102696" lon="-118.3939161">
  <ele>-0.11</ele>
  <time>2026-09-02T22:07:20Z</time>
  <course>186.69</course>
  <speed>0.7213875518748573</speed>
  <fix>3d</fix>
</trkpt>
<trkpt lat="33.8102695" lon="-118.3939162">
  <ele>-0.11</ele>
  <time>2026-09-02T22:07:20Z</time>
  <course>186.69</course>
  <speed>0.7213875518748573</speed>
  <fix>3d</fix>
</trkpt>
<trkpt lat="33.81027" lon="-118.3939152">
  <ele>-0.11</ele>
  <time>2026-09-02T22:07:20Z</time>
  <course>223.26</course>
  <speed>0.73</speed>
  <fix>3d</fix>
</trkpt>
<trkpt lat="33.8102695" lon="-118.3939162">
  <ele>-0.11</ele>
  <time>2026-09-02T22:07:20Z</time>
  <course>186.69</course>
  <speed>0.7213875518748573</speed>
  <fix>3d</fix>
</trkpt>
<trkpt lat="33.8102695" lon="-118.3939163">
  <ele>-0.11</ele>
  <time>2026-09-02T22:07:20Z</time>
  <course>186.69</course>
  <speed>0.7213875518748573</speed>
  <fix>3d</fix>
</trkpt>
<trkpt lat="33.8102694" lon="-118.3939163">
  <ele>-0.109</ele>
  <time>2026-09-02T22:07:20Z</time>
  <course>186.69</course>
  <speed>0.7213875518748573</speed>
  <fix>3d</fix>
</trkpt>
<trkpt lat="33.8102694" lon="-118.3939164">
  <ele>-0.109</ele>
  <time>2026-09-02T22:07:20Z</time>
  <course>186.69</course>
  <speed>0.7213875518748573</speed>
  <fix>3d</fix>
</trkpt>
<trkpt lat="33.8102693" lon="-118.3939164">
  <ele>-0.109</ele>
  <time>2026-09-02T22:07:20Z</time>
  <course>186.69</course>
  <speed>0.7213875518748573</speed>
  <fix>3d</fix>
</trkpt>
<trkpt lat="33.8102693" lon="-118.3939165">
  <ele>-0.108</ele>
  <time>2026-09-02T22:07:20Z</time>
  <course>186.69</course>
  <speed>0.7213875518748573</speed>
  <fix>3d</fix>
</trkpt>
<trkpt lat="33.8102692" lon="-118.3939165">
  <ele>-0.108</ele>
  <time>2026-09-02T22:07:20Z</time>
  <course>186.69</course>
  <speed>0.7213875518748573</speed>
  <fix>3d</fix>
</trkpt>
<trkpt lat="33.8102692" lon="-118.3939166">
  <ele>-0.108</ele>
  <time>2026-09-02T22:07:20Z</time>
  <course>186.69</course>
  <speed>0.7213875518748573</speed>
  <fix>3d</fix>
</trkpt>
<trkpt lat="33.8102691" lon="-118.3939166">
  <ele>-0.108</ele>
  <time>2026-09-02T22:07:20Z</time>
  <course>186.69</course>
  <speed>0.7213875518748573</speed>
  <fix>3d</fix>
</trkpt>
<trkpt lat="33.8102691" lon="-118.3939167">
  <ele>-0.107</ele>
  <time>2026-09-02T22:07:20Z</time>
  <course>186.69</course>
  <speed>0.7213875518748573</speed>
  <fix>3d</fix>
</trkpt>
<trkpt lat="33.8102691" lon="-118.3939167">
  <ele>-0.107</ele>
  <time>2026-09-02T22:07:20Z</time>
  <course>186.69</course>
  <speed>0.7213875518748573</speed>
  <fix>3d</fix>
</trkpt>
<trkpt lat="33.81027" lon="-118.3939152">
  <ele>-0.11</ele>
  <time>2026-09-02T22:07:20Z</time>
  <course>223.26</course>
  <speed>0.73</speed>
  <fix>3d</fix>
</trkpt>
<trkpt lat="33.8102691" lon="-118.3939167">
  <ele>-0.107</ele>
  <time>2026-09-02T22:07:20Z</time>
  <course>186.69</course>
  <speed>0.7213875518748573</speed>
  <fix>3d</fix>
</trkpt>
<trkpt lat="33.810269" lon="-118.3939168">
  <ele>-0.107</ele>
  <time>2026-09-02T22:07:20Z</time>
  <course>186.69</course>
  <speed>0.7213875518748573</speed>
  <fix>3d</fix>
</trkpt>
<trkpt lat="33.810269" lon="-118.3939168">
  <ele>-0.106</ele>
  <time>2026-09-02T22:07:20Z</time>
  <course>186.69</course>
  <speed>0.7213875518748573</speed>
  <fix>3d</fix>
</trkpt>
<trkpt lat="33.8102689" lon="-118.3939169">
  <ele>-0.106</ele>
  <time>2026-09-02T22:07:20Z</time>
  <course>186.69</course>
  <speed>0.7213875518748573</speed>
  <fix>3d</fix>
</trkpt>
<trkpt lat="33.8102689" lon="-118.3939169">
  <ele>-0.106</ele>
  <time>2026-09-02T22:07:20Z</time>
  <course>186.69</course>
  <speed>0.7213875518748573</speed>
  <fix>3d</fix>
</trkpt>
<trkpt lat="33.8102688" lon="-118.393917">
  <ele>-0.106</ele>
  <time>2026-09-02T22:07:20Z</time>
  <course>186.69</course>
  <speed>0.7213875518748573</speed>
  <fix>3d</fix>
</trkpt>
<trkpt lat="33.8102688" lon="-118.393917">
  <ele>-0.105</ele>
  <time>2026-09-02T22:07:20Z</time>
  <course>186.69</course>
  <speed>0.7213875518748573</speed>
  <fix>3d</fix>
</trkpt>
<trkpt lat="33.8102688" lon="-118.3939171">
  <ele>-0.105</ele>
  <time>2026-09-02T22:07:20Z</time>
  <course>186.69</course>
  <speed>0.7213875518748573</speed>
  <fix>3d</fix>
</trkpt>
<trkpt lat="33.8102687" lon="-118.3939171">
  <ele>-0.105</ele>
  <time>2026-09-02T22:07:20Z</time>
  <course>186.69</course>
  <speed>0.7213875518748573</speed>
  <fix>3d</fix>
</trkpt>
<trkpt lat="33.8102687" lon="-118.3939171">
  <ele>-0.105</ele>
  <time>2026-09-02T22:07:20Z</time>
  <course>186.69</course>
  <speed>0.7213875518748573</speed>
  <fix>3d</fix>
</trkpt>
<trkpt lat="33.8102686" lon="-118.3939172">
  <ele>-0.104</ele>
  <time>2026-09-02T22:07:20Z</time>
  <course>186.69</course>
  <speed>0.7213875518748573</speed>
  <fix>3d</fix>
</trkpt>
<trkpt lat="33.8102686" lon="-118.3939173">
  <ele>-0.104</ele>
  <time>2026-09-02T22:07:20Z</time>
  <course>186.69</course>
  <speed>0.7213875518748573</speed>
  <fix>3d</fix>
</trkpt>
<trkpt lat="33.8102686" lon="-118.3939173">
  <ele>-0.104</ele>
  <time>2026-09-02T22:07:20Z</time>
  <course>186.69</course>
  <speed>0.7213875518748573</speed>
  <fix>3d</fix>
</trkpt>
<trkpt lat="33.8102691" lon="-118.3939163">
  <ele>-0.1</ele>
  <time>2026-09-02T22:07:20Z</time>
  <course>223.26</course>
  <speed>0.73</speed>
  <fix>3d</fix>
</trkpt>
<trkpt lat="33.8102686" lon="-118.3939173">
  <ele>-0.104</ele>
  <time>2026-09-02T22:07:20Z</time>
  <course>186.69</course>
  <speed>0.7213875518748573</speed>
  <fix>3d</fix>
</trkpt>
<trkpt lat="33.8102685" lon="-118.3939173">
  <ele>-0.104</ele>
  <time>2026-09-02T22:07:20Z</time>
  <course>186.69</course>
  <speed>0.7213875518748573</speed>
  <fix>3d</fix>
</trkpt>
<trkpt lat="33.8102685" lon="-118.3939174">
  <ele>-0.104</ele>
  <time>2026-09-02T22:07:20Z</time>
  <course>186.69</course>
  <speed>0.7213875518748573</speed>
  <fix>3d</fix>
</trkpt>
<trkpt lat="33.8102684" lon="-118.3939174">
  <ele>-0.104</ele>
  <time>2026-09-02T22:07:20Z</time>
  <course>186.69</course>
  <speed>0.7213875518748573</speed>
  <fix>3d</fix>
</trkpt>
<trkpt lat="33.8102684" lon="-118.3939175">
  <ele>-0.103</ele>
  <time>2026-09-02T22:07:20Z</time>
  <course>186.69</course>
  <speed>0.7213875518748573</speed>
  <fix>3d</fix>
</trkpt>
<trkpt lat="33.8102684" lon="-118.3939175">
  <ele>-0.103</ele>
  <time>2026-09-02T22:07:20Z</time>
  <course>186.69</course>
  <speed>0.7213875518748573</speed>
  <fix>3d</fix>
</trkpt>
<trkpt lat="33.8102683" lon="-118.3939176">
  <ele>-0.103</ele>
  <time>2026-09-02T22:07:20Z</time>
  <course>186.69</course>
  <speed>0.7213875518748573</speed>
  <fix>3d</fix>
</trkpt>
<trkpt lat="33.8102683" lon="-118.3939176">
  <ele>-0.103</ele>
  <time>2026-09-02T22:07:20Z</time>
  <course>186.69</course>
  <speed>0.7213875518748573</speed>
  <fix>3d</fix>
</trkpt>
<trkpt lat="33.8102683" lon="-118.3939177">
  <ele>-0.103</ele>
  <time>2026-09-02T22:07:20Z</time>
  <course>186.68</course>
  <speed>0.7213875518748573</speed>
  <fix>3d</fix>
</trkpt>
<trkpt lat="33.8102682" lon="-118.3939177">
  <ele>-0.103</ele>
  <time>2026-09-02T22:07:20Z</time>
  <course>186.68</course>
  <speed>0.7213875518748573</speed>
  <fix>3d</fix>
</trkpt>
<trkpt lat="33.8102682" lon="-118.3939177">
  <ele>-0.103</ele>
  <time>2026-09-02T22:07:20Z</time>
  <course>186.68</course>
  <speed>0.7213875518748573</speed>
  <fix>3d</fix>
</trkpt>
<trkpt lat="33.8102681" lon="-118.3939178">
  <ele>-0.103</ele>
  <time>2026-09-02T22:07:20Z</time>
  <course>186.68</course>
  <speed>0.7213875518748573</speed>
  <fix>3d</fix>
</trkpt>
<trkpt lat="33.8102681" lon="-118.3939178">
  <ele>-0.102</ele>
  <time>2026-09-02T22:07:20Z</time>
  <course>186.68</course>
  <speed>0.7213875518748573</speed>
  <fix>3d</fix>
</trkpt>
<trkpt lat="33.8102691" lon="-118.3939163">
  <ele>-0.1</ele>
  <time>2026-09-02T22:07:20Z</time>
  <course>223.26</course>
  <speed>0.73</speed>
  <fix>3d</fix>
</trkpt>
<trkpt lat="33.8102681" lon="-118.3939178">
  <ele>-0.102</ele>
  <time>2026-09-02T22:07:20Z</time>
  <course>186.68</course>
  <speed>0.7213875518748573</speed>
  <fix>3d</fix>
</trkpt>
<trkpt lat="33.810268" lon="-118.3939179">
  <ele>-0.102</ele>
  <time>2026-09-02T22:07:20Z</time>
  <course>186.68</course>
  <speed>0.7213875518748573</speed>
  <fix>3d</fix>
</trkpt>
<trkpt lat="33.810268" lon="-118.393918">
  <ele>-0.102</ele>
  <time>2026-09-02T22:07:20Z</time>
  <course>186.68</course>
  <speed>0.7213875518748573</speed>
  <fix>3d</fix>
</trkpt>
<trkpt lat="33.8102679" lon="-118.393918">
  <ele>-0.102</ele>
  <time>2026-09-02T22:07:20Z</time>
  <course>186.68</course>
  <speed>0.7213875518748573</speed>
  <fix>3d</fix>
</trkpt>
<trkpt lat="33.8102679" lon="-118.3939181">
  <ele>-0.102</ele>
  <time>2026-09-02T22:07:20Z</time>
  <course>186.68</course>
  <speed>0.7213875518748573</speed>
  <fix>3d</fix>
</trkpt>
<trkpt lat="33.8102679" lon="-118.3939181">
  <ele>-0.102</ele>
  <time>2026-09-02T22:07:20Z</time>
  <course>186.68</course>
  <speed>0.7213875518748573</speed>
  <fix>3d</fix>
</trkpt>
<trkpt lat="33.8102678" lon="-118.3939182">
  <ele>-0.102</ele>
  <time>2026-09-02T22:07:20Z</time>
  <course>186.68</course>
  <speed>0.7213875518748573</speed>
  <fix>3d</fix>
</trkpt>
<trkpt lat="33.8102678" lon="-118.3939182">
  <ele>-0.102</ele>
  <time>2026-09-02T22:07:20Z</time>
  <course>186.68</course>
  <speed>0.7213875518748573</speed>
  <fix>3d</fix>
</trkpt>
<trkpt lat="33.8102677" lon="-118.3939183">
  <ele>-0.103</ele>
  <time>2026-09-02T22:07:20Z</time>
  <course>186.68</course>
  <speed>0.7213875518748573</speed>
  <fix>3d</fix>
</trkpt>
<trkpt lat="33.8102677" lon="-118.3939183">
  <ele>-0.103</ele>
  <time>2026-09-02T22:07:20Z</time>
  <course>186.68</course>
  <speed>0.7213875518748573</speed>
  <fix>3d</fix>
</trkpt>
<trkpt lat="33.8102676" lon="-118.3939184">
  <ele>-0.103</ele>
  <time>2026-09-02T22:07:20Z</time>
  <course>186.68</course>
  <speed>0.7213875518748573</speed>
  <fix>3d</fix>
</trkpt>
<trkpt lat="33.8102676" lon="-118.3939184">
  <ele>-0.103</ele>
  <time>2026-09-02T22:07:20Z</time>
  <course>186.68</course>
  <speed>0.7213875518748573</speed>
  <fix>3d</fix>
</trkpt>
<trkpt lat="33.8102681" lon="-118.3939174">
  <ele>-0.1</ele>
  <time>2026-09-02T22:07:20Z</time>
  <course>223.26</course>
  <speed>0.73</speed>
  <fix>3d</fix>
</trkpt>
<trkpt lat="33.8102676" lon="-118.3939184">
  <ele>-0.103</ele>
  <time>2026-09-02T22:07:20Z</time>
  <course>186.68</course>
  <speed>0.7213875518748573</speed>
  <fix>3d</fix>
</trkpt>
<trkpt lat="33.8102675" lon="-118.3939185">
  <ele>-0.103</ele>
  <time>2026-09-02T22:07:20Z</time>
  <course>186.68</course>
  <speed>0.7213875518748573</speed>
  <fix>3d</fix>
</trkpt>
<trkpt lat="33.8102675" lon="-118.3939185">
  <ele>-0.103</ele>
  <time>2026-09-02T22:07:20Z</time>
  <course>186.68</course>
  <speed>0.7213875518748573</speed>
  <fix>3d</fix>
</trkpt>
<trkpt lat="33.8102675" lon="-118.3939186">
  <ele>-0.103</ele>
  <time>2026-09-02T22:07:20Z</time>
  <course>186.68</course>
  <speed>0.7213875518748573</speed>
  <fix>3d</fix>
</trkpt>
<trkpt lat="33.8102674" lon="-118.3939186">
  <ele>-0.103</ele>
  <time>2026-09-02T22:07:20Z</time>
  <course>186.68</course>
  <speed>0.7213875518748573</speed>
  <fix>3d</fix>
</trkpt>
<trkpt lat="33.8102674" lon="-118.3939186">
  <ele>-0.104</ele>
  <time>2026-09-02T22:07:20Z</time>
  <course>186.68</course>
  <speed>0.7213875518748573</speed>
  <fix>3d</fix>
</trkpt>
<trkpt lat="33.8102673" lon="-118.3939187">
  <ele>-0.104</ele>
  <time>2026-09-02T22:07:20Z</time>
  <course>186.68</course>
  <speed>0.7213875518748573</speed>
  <fix>3d</fix>
</trkpt>
<trkpt lat="33.8102673" lon="-118.3939187">
  <ele>-0.104</ele>
  <time>2026-09-02T22:07:20Z</time>
  <course>186.68</course>
  <speed>0.7213875518748573</speed>
  <fix>3d</fix>
</trkpt>
<trkpt lat="33.8102673" lon="-118.3939188">
  <ele>-0.104</ele>
  <time>2026-09-02T22:07:20Z</time>
  <course>186.68</course>
  <speed>0.7213875518748573</speed>
  <fix>3d</fix>
</trkpt>
<trkpt lat="33.8102672" lon="-118.3939188">
  <ele>-0.105</ele>
  <time>2026-09-02T22:07:20Z</time>
  <course>186.68</course>
  <speed>0.7213875518748573</speed>
  <fix>3d</fix>
</trkpt>
<trkpt lat="33.8102672" lon="-118.3939189">
  <ele>-0.105</ele>
  <time>2026-09-02T22:07:20Z</time>
  <course>186.68</course>
  <speed>0.7213875518748573</speed>
  <fix>3d</fix>
</trkpt>
<trkpt lat="33.8102672" lon="-118.3939189">
  <ele>-0.105</ele>
  <time>2026-09-02T22:07:20Z</time>
  <course>186.68</course>
  <speed>0.7213875518748573</speed>
  <fix>3d</fix>
</trkpt>
<trkpt lat="33.8102672" lon="-118.3939189">
  <ele>-0.105</ele>
  <time>2026-09-02T22:07:20Z</time>
  <course>186.68</course>
  <speed>0.7213875518748573</speed>
  <fix>3d</fix>
</trkpt>
<trkpt lat="33.8102681" lon="-118.3939174">
  <ele>-0.1</ele>
  <time>2026-09-02T22:07:20Z</time>
  <course>223.26</course>
  <speed>0.73</speed>
  <fix>3d</fix>
</trkpt>
<trkpt lat="33.8102671" lon="-118.3939189">
  <ele>-0.105</ele>
  <time>2026-09-02T22:07:20Z</time>
  <course>186.68</course>
  <speed>0.7213875518748573</speed>
  <fix>3d</fix>
</trkpt>
<trkpt lat="33.8102671" lon="-118.393919">
  <ele>-0.106</ele>
  <time>2026-09-02T22:07:20Z</time>
  <course>186.68</course>
  <speed>0.7213875518748573</speed>
  <fix>3d</fix>
</trkpt>
<trkpt lat="33.810267" lon="-118.3939191">
  <ele>-0.106</ele>
  <time>2026-09-02T22:07:20Z</time>
  <course>186.67</course>
  <speed>0.7213875518748573</speed>
  <fix>3d</fix>
</trkpt>
<trkpt lat="33.810267" lon="-118.3939191">
  <ele>-0.106</ele>
  <time>2026-09-02T22:07:20Z</time>
  <course>186.67</course>
  <speed>0.7213875518748573</speed>
  <fix>3d</fix>
</trkpt>
<trkpt lat="33.8102669" lon="-118.3939192">
  <ele>-0.106</ele>
  <time>2026-09-02T22:07:20Z</time>
  <course>186.67</course>
  <speed>0.7213875518748573</speed>
  <fix>3d</fix>
</trkpt>
<trkpt lat="33.8102669" lon="-118.3939192">
  <ele>-0.106</ele>
  <time>2026-09-02T22:07:20Z</time>
  <course>186.67</course>
  <speed>0.7213875518748573</speed>
  <fix>3d</fix>
</trkpt>
<trkpt lat="33.8102669" lon="-118.3939192">
  <ele>-0.107</ele>
  <time>2026-09-02T22:07:20Z</time>
  <course>186.67</course>
  <speed>0.7213875518748573</speed>
  <fix>3d</fix>
</trkpt>
<trkpt lat="33.8102668" lon="-118.3939193">
  <ele>-0.107</ele>
  <time>2026-09-02T22:07:20Z</time>
  <course>186.67</course>
  <speed>0.7213875518748573</speed>
  <fix>3d</fix>
</trkpt>
<trkpt lat="33.8102668" lon="-118.3939193">
  <ele>-0.107</ele>
  <time>2026-09-02T22:07:20Z</time>
  <course>186.67</course>
  <speed>0.7213875518748573</speed>
  <fix>3d</fix>
</trkpt>
<trkpt lat="33.8102668" lon="-118.3939194">
  <ele>-0.107</ele>
  <time>2026-09-02T22:07:20Z</time>
  <course>186.67</course>
  <speed>0.7213875518748573</speed>
  <fix>3d</fix>
</trkpt>
<trkpt lat="33.8102667" lon="-118.3939194">
  <ele>-0.107</ele>
  <time>2026-09-02T22:07:20Z</time>
  <course>186.67</course>
  <speed>0.7213875518748573</speed>
  <fix>3d</fix>
</trkpt>
<trkpt lat="33.8102667" lon="-118.3939195">
  <ele>-0.107</ele>
  <time>2026-09-02T22:07:20Z</time>
  <course>186.67</course>
  <speed>0.7213875518748573</speed>
  <fix>3d</fix>
</trkpt>
<trkpt lat="33.8102667" lon="-118.3939195">
  <ele>-0.107</ele>
  <time>2026-09-02T22:07:20Z</time>
  <course>186.67</course>
  <speed>0.7213875518748573</speed>
  <fix>3d</fix>
</trkpt>
<trkpt lat="33.8102672" lon="-118.3939185">
  <ele>-0.1</ele>
  <time>2026-09-02T22:07:20Z</time>
  <course>223.26</course>
  <speed>0.73</speed>
  <fix>3d</fix>
</trkpt>
<trkpt lat="33.8102666" lon="-118.3939195">
  <ele>-0.108</ele>
  <time>2026-09-02T22:07:20Z</time>
  <course>186.67</course>
  <speed>0.7213875518748573</speed>
  <fix>3d</fix>
</trkpt>
<trkpt lat="33.8102666" lon="-118.3939196">
  <ele>-0.108</ele>
  <time>2026-09-02T22:07:20Z</time>
  <course>186.67</course>
  <speed>0.7213875518748573</speed>
  <fix>3d</fix>
</trkpt>
<trkpt lat="33.8102665" lon="-118.3939197">
  <ele>-0.108</ele>
  <time>2026-09-02T22:07:20Z</time>
  <course>186.67</course>
  <speed>0.7213875518748573</speed>
  <fix>3d</fix>
</trkpt>
<trkpt lat="33.8102665" lon="-118.3939197">
  <ele>-0.108</ele>
  <time>2026-09-02T22:07:20Z</time>
  <course>186.67</course>
  <speed>0.7213875518748573</speed>
  <fix>3d</fix>
</trkpt>
<trkpt lat="33.8102664" lon="-118.3939197">
  <ele>-0.108</ele>
  <time>2026-09-02T22:07:20Z</time>
  <course>186.67</course>
  <speed>0.7213875518748573</speed>
  <fix>3d</fix>
</trkpt>
<trkpt lat="33.8102664" lon="-118.3939198">
  <ele>-0.108</ele>
  <time>2026-09-02T22:07:20Z</time>
  <course>186.67</course>
  <speed>0.7213875518748573</speed>
  <fix>3d</fix>
</trkpt>
<trkpt lat="33.8102664" lon="-118.3939198">
  <ele>-0.108</ele>
  <time>2026-09-02T22:07:20Z</time>
  <course>186.67</course>
  <speed>0.7213875518748573</speed>
  <fix>3d</fix>
</trkpt>
<trkpt lat="33.8102663" lon="-118.3939199">
  <ele>-0.108</ele>
  <time>2026-09-02T22:07:20Z</time>
  <course>186.67</course>
  <speed>0.7213875518748573</speed>
  <fix>3d</fix>
</trkpt>
<trkpt lat="33.8102663" lon="-118.3939199">
  <ele>-0.108</ele>
  <time>2026-09-02T22:07:20Z</time>
  <course>186.67</course>
  <speed>0.7213875518748573</speed>
  <fix>3d</fix>
</trkpt>
<trkpt lat="33.8102662" lon="-118.39392">
  <ele>-0.108</ele>
  <time>2026-09-02T22:07:20Z</time>
  <course>186.67</course>
  <speed>0.7213875518748573</speed>
  <fix>3d</fix>
</trkpt>
<trkpt lat="33.8102662" lon="-118.39392">
  <ele>-0.108</ele>
  <time>2026-09-02T22:07:20Z</time>
  <course>186.67</course>
  <speed>0.7213875518748573</speed>
  <fix>3d</fix>
</trkpt>
<trkpt lat="33.8102662" lon="-118.39392">
  <ele>-0.108</ele>
  <time>2026-09-02T22:07:20Z</time>
  <course>186.67</course>
  <speed>0.7213875518748573</speed>
  <fix>3d</fix>
</trkpt>
<trkpt lat="33.8102672" lon="-118.3939185">
  <ele>-0.1</ele>
  <time>2026-09-02T22:07:20Z</time>
  <course>223.26</course>
  <speed>0.73</speed>
  <fix>3d</fix>
</trkpt>
<trkpt lat="33.8102661" lon="-118.3939201">
  <ele>-0.108</ele>
  <time>2026-09-02T22:07:20Z</time>
  <course>186.67</course>
  <speed>0.7213875518748573</speed>
  <fix>3d</fix>
</trkpt>
<trkpt lat="33.8102661" lon="-118.3939201">
  <ele>-0.108</ele>
  <time>2026-09-02T22:07:20Z</time>
  <course>186.67</course>
  <speed>0.7213875518748573</speed>
  <fix>3d</fix>
</trkpt>
<trkpt lat="33.8102661" lon="-118.3939202">
  <ele>-0.108</ele>
  <time>2026-09-02T22:07:20Z</time>
  <course>186.67</course>
  <speed>0.7213875518748573</speed>
  <fix>3d</fix>
</trkpt>
<trkpt lat="33.810266" lon="-118.3939202">
  <ele>-0.109</ele>
  <time>2026-09-02T22:07:20Z</time>
  <course>186.67</course>
  <speed>0.7213875518748573</speed>
  <fix>3d</fix>
</trkpt>
<trkpt lat="33.810266" lon="-118.3939203">
  <ele>-0.109</ele>
  <time>2026-09-02T22:07:20Z</time>
  <course>186.67</course>
  <speed>0.7213875518748573</speed>
  <fix>3d</fix>
</trkpt>
<trkpt lat="33.8102659" lon="-118.3939203">
  <ele>-0.109</ele>
  <time>2026-09-02T22:07:20Z</time>
  <course>186.67</course>
  <speed>0.7213875518748573</speed>
  <fix>3d</fix>
</trkpt>
<trkpt lat="33.8102659" lon="-118.3939204">
  <ele>-0.109</ele>
  <time>2026-09-02T22:07:20Z</time>
  <course>186.67</course>
  <speed>0.7213875518748573</speed>
  <fix>3d</fix>
</trkpt>
<trkpt lat="33.8102658" lon="-118.3939204">
  <ele>-0.109</ele>
  <time>2026-09-02T22:07:20Z</time>
  <course>186.67</course>
  <speed>0.7213875518748573</speed>
  <fix>3d</fix>
</trkpt>
<trkpt lat="33.8102658" lon="-118.3939205">
  <ele>-0.109</ele>
  <time>2026-09-02T22:07:20Z</time>
  <course>186.67</course>
  <speed>0.7213875518748573</speed>
  <fix>3d</fix>
</trkpt>
<trkpt lat="33.8102658" lon="-118.3939205">
  <ele>-0.109</ele>
  <time>2026-09-02T22:07:20Z</time>
  <course>186.67</course>
  <speed>0.7213875518748573</speed>
  <fix>3d</fix>
</trkpt>
<trkpt lat="33.8102657" lon="-118.3939206">
  <ele>-0.109</ele>
  <time>2026-09-02T22:07:20Z</time>
  <course>186.66</course>
  <speed>0.7213875518748573</speed>
  <fix>3d</fix>
</trkpt>
<trkpt lat="33.8102657" lon="-118.3939206">
  <ele>-0.109</ele>
  <time>2026-09-02T22:07:20Z</time>
  <course>186.66</course>
  <speed>0.7213875518748573</speed>
  <fix>3d</fix>
</trkpt>
<trkpt lat="33.8102662" lon="-118.3939196">
  <ele>-0.1</ele>
  <time>2026-09-02T22:07:20Z</time>
  <course>223.26</course>
  <speed>0.73</speed>
  <fix>3d</fix>
</trkpt>
<trkpt lat="33.8102656" lon="-118.3939206">
  <ele>-0.109</ele>
  <time>2026-09-02T22:07:20Z</time>
  <course>186.66</course>
  <speed>0.7213875518748573</speed>
  <fix>3d</fix>
</trkpt>
<trkpt lat="33.8102656" lon="-118.3939207">
  <ele>-0.109</ele>
  <time>2026-09-02T22:07:20Z</time>
  <course>186.66</course>
  <speed>0.7213875518748573</speed>
  <fix>3d</fix>
</trkpt>
<trkpt lat="33.8102655" lon="-118.3939208">
  <ele>-0.109</ele>
  <time>2026-09-02T22:07:20Z</time>
  <course>186.66</course>
  <speed>0.7213875518748573</speed>
  <fix>3d</fix>
</trkpt>
<trkpt lat="33.8102655" lon="-118.3939208">
  <ele>-0.109</ele>
  <time>2026-09-02T22:07:20Z</time>
  <course>186.66</course>
  <speed>0.7213875518748573</speed>
  <fix>3d</fix>
</trkpt>
<trkpt lat="33.8102655" lon="-118.3939209">
  <ele>-0.109</ele>
  <time>2026-09-02T22:07:20Z</time>
  <course>186.66</course>
  <speed>0.7213875518748573</speed>
  <fix>3d</fix>
</trkpt>
<trkpt lat="33.8102654" lon="-118.3939209">
  <ele>-0.109</ele>
  <time>2026-09-02T22:07:20Z</time>
  <course>186.66</course>
  <speed>0.7213875518748573</speed>
  <fix>3d</fix>
</trkpt>
<trkpt lat="33.8102654" lon="-118.393921">
  <ele>-0.109</ele>
  <time>2026-09-02T22:07:20Z</time>
  <course>186.66</course>
  <speed>0.7213875518748573</speed>
  <fix>3d</fix>
</trkpt>
<trkpt lat="33.8102653" lon="-118.393921">
  <ele>-0.109</ele>
  <time>2026-09-02T22:07:20Z</time>
  <course>186.66</course>
  <speed>0.7213875518748573</speed>
  <fix>3d</fix>
</trkpt>
<trkpt lat="33.8102653" lon="-118.3939211">
  <ele>-0.108</ele>
  <time>2026-09-02T22:07:20Z</time>
  <course>186.66</course>
  <speed>0.7213875518748573</speed>
  <fix>3d</fix>
</trkpt>
<trkpt lat="33.8102653" lon="-118.3939211">
  <ele>-0.108</ele>
  <time>2026-09-02T22:07:20Z</time>
  <course>186.66</course>
  <speed>0.7213875518748573</speed>
  <fix>3d</fix>
</trkpt>
<trkpt lat="33.8102653" lon="-118.3939211">
  <ele>-0.108</ele>
  <time>2026-09-02T22:07:20Z</time>
  <course>186.66</course>
  <speed>0.7213875518748573</speed>
  <fix>3d</fix>
</trkpt>
<trkpt lat="33.8102662" lon="-118.3939196">
  <ele>-0.1</ele>
  <time>2026-09-02T22:07:20Z</time>
  <course>223.26</course>
  <speed>0.73</speed>
  <fix>3d</fix>
</trkpt>
<trkpt lat="33.8102652" lon="-118.3939212">
  <ele>-0.108</ele>
  <time>2026-09-02T22:07:20Z</time>
  <course>186.66</course>
  <speed>0.7213875518748573</speed>
  <fix>3d</fix>
</trkpt>
<trkpt lat="33.8102651" lon="-118.3939212">
  <ele>-0.108</ele>
  <time>2026-09-02T22:07:20Z</time>
  <course>186.66</course>
  <speed>0.7213875518748573</speed>
  <fix>3d</fix>
</trkpt>
<trkpt lat="33.8102651" lon="-118.3939213">
  <ele>-0.108</ele>
  <time>2026-09-02T22:07:20Z</time>
  <course>186.66</course>
  <speed>0.7213875518748573</speed>
  <fix>3d</fix>
</trkpt>
<trkpt lat="33.8102651" lon="-118.3939213">
  <ele>-0.108</ele>
  <time>2026-09-02T22:07:20Z</time>
  <course>186.66</course>
  <speed>0.7213875518748573</speed>
  <fix>3d</fix>
</trkpt>
<trkpt lat="33.810265" lon="-118.3939214">
  <ele>-0.108</ele>
  <time>2026-09-02T22:07:20Z</time>
  <course>186.66</course>
  <speed>0.7213875518748573</speed>
  <fix>3d</fix>
</trkpt>
<trkpt lat="33.810265" lon="-118.3939214">
  <ele>-0.108</ele>
  <time>2026-09-02T22:07:20Z</time>
  <course>186.66</course>
  <speed>0.7213875518748573</speed>
  <fix>3d</fix>
</trkpt>
<trkpt lat="33.8102649" lon="-118.3939215">
  <ele>-0.108</ele>
  <time>2026-09-02T22:07:20Z</time>
  <course>186.66</course>
  <speed>0.7213875518748573</speed>
  <fix>3d</fix>
</trkpt>
<trkpt lat="33.8102649" lon="-118.3939215">
  <ele>-0.107</ele>
  <time>2026-09-02T22:07:20Z</time>
  <course>186.66</course>
  <speed>0.7213875518748573</speed>
  <fix>3d</fix>
</trkpt>
<trkpt lat="33.8102648" lon="-118.3939216">
  <ele>-0.107</ele>
  <time>2026-09-02T22:07:20Z</time>
  <course>186.66</course>
  <speed>0.7213875518748573</speed>
  <fix>3d</fix>
</trkpt>
<trkpt lat="33.8102648" lon="-118.3939216">
  <ele>-0.107</ele>
  <time>2026-09-02T22:07:20Z</time>
  <course>186.66</course>
  <speed>0.7213875518748573</speed>
  <fix>3d</fix>
</trkpt>
<trkpt lat="33.8102648" lon="-118.3939217">
  <ele>-0.107</ele>
  <time>2026-09-02T22:07:20Z</time>
  <course>186.66</course>
  <speed>0.7213875518748573</speed>
  <fix>3d</fix>
</trkpt>
<trkpt lat="33.8102652" lon="-118.3939207">
  <ele>-0.11</ele>
  <time>2026-09-02T22:07:20Z</time>
  <course>223.26</course>
  <speed>0.73</speed>
  <fix>3d</fix>
</trkpt>
<trkpt lat="33.8102648" lon="-118.3939217">
  <ele>-0.107</ele>
  <time>2026-09-02T22:07:20Z</time>
  <course>186.66</course>
  <speed>0.7213875518748573</speed>
  <fix>3d</fix>
</trkpt>
<trkpt lat="33.8102646" lon="-118.3939219">
  <ele>-0.106</ele>
  <time>2026-09-02T22:07:20Z</time>
  <course>186.66</course>
  <speed>0.7213875518748573</speed>
  <fix>3d</fix>
</trkpt>
<trkpt lat="33.8102645" lon="-118.3939219">
  <ele>-0.106</ele>
  <time>2026-09-02T22:07:20Z</time>
  <course>186.66</course>
  <speed>0.7213875518748573</speed>
  <fix>3d</fix>
</trkpt>
<trkpt lat="33.8102645" lon="-118.393922">
  <ele>-0.106</ele>
  <time>2026-09-02T22:07:20Z</time>
  <course>186.66</course>
  <speed>0.7213875518748573</speed>
  <fix>3d</fix>
</trkpt>
<trkpt lat="33.8102644" lon="-118.393922">
  <ele>-0.106</ele>
  <time>2026-09-02T22:07:20Z</time>
  <course>186.66</course>
  <speed>0.7213875518748573</speed>
  <fix>3d</fix>
</trkpt>
<trkpt lat="33.8102644" lon="-118.3939221">
  <ele>-0.106</ele>
  <time>2026-09-02T22:07:20Z</time>
  <course>186.66</course>
  <speed>0.7213875518748573</speed>
  <fix>3d</fix>
</trkpt>
<trkpt lat="33.8102644" lon="-118.3939221">
  <ele>-0.106</ele>
  <time>2026-09-02T22:07:20Z</time>
  <course>186.65</course>
  <speed>0.7213875518748573</speed>
  <fix>3d</fix>
</trkpt>
<trkpt lat="33.8102643" lon="-118.3939222">
  <ele>-0.106</ele>
  <time>2026-09-02T22:07:20Z</time>
  <course>186.65</course>
  <speed>0.7213875518748573</speed>
  <fix>3d</fix>
</trkpt>
<trkpt lat="33.8102643" lon="-118.3939222">
  <ele>-0.106</ele>
  <time>2026-09-02T22:07:20Z</time>
  <course>186.65</course>
  <speed>0.7213875518748573</speed>
  <fix>3d</fix>
</trkpt>
<trkpt lat="33.8102652" lon="-118.3939207">
  <ele>-0.11</ele>
  <time>2026-09-02T22:07:20Z</time>
  <course>223.26</course>
  <speed>0.73</speed>
  <fix>3d</fix>
</trkpt>
<trkpt lat="33.8102643" lon="-118.3939222">
  <ele>-0.106</ele>
  <time>2026-09-02T22:07:20Z</time>
  <course>186.65</course>
  <speed>0.7213875518748573</speed>
  <fix>3d</fix>
</trkpt>
<trkpt lat="33.8102642" lon="-118.3939223">
  <ele>-0.106</ele>
  <time>2026-09-02T22:07:20Z</time>
  <course>186.65</course>
  <speed>0.7213875518748573</speed>
  <fix>3d</fix>
</trkpt>
<trkpt lat="33.8102642" lon="-118.3939223">
  <ele>-0.106</ele>
  <time>2026-09-02T22:07:20Z</time>
  <course>186.65</course>
  <speed>0.7213875518748573</speed>
  <fix>3d</fix>
</trkpt>
<trkpt lat="33.8102641" lon="-118.3939224">
  <ele>-0.106</ele>
  <time>2026-09-02T22:07:20Z</time>
  <course>186.65</course>
  <speed>0.7213875518748573</speed>
  <fix>3d</fix>
</trkpt>
<trkpt lat="33.8102641" lon="-118.3939224">
  <ele>-0.106</ele>
  <time>2026-09-02T22:07:20Z</time>
  <course>186.65</course>
  <speed>0.7213875518748573</speed>
  <fix>3d</fix>
</trkpt>
<trkpt lat="33.8102641" lon="-118.3939225">
  <ele>-0.105</ele>
  <time>2026-09-02T22:07:20Z</time>
  <course>186.65</course>
  <speed>0.7213875518748573</speed>
  <fix>3d</fix>
</trkpt>
<trkpt lat="33.810264" lon="-118.3939225">
  <ele>-0.105</ele>
  <time>2026-09-02T22:07:20Z</time>
  <course>186.65</course>
  <speed>0.7213875518748573</speed>
  <fix>3d</fix>
</trkpt>
<trkpt lat="33.810264" lon="-118.3939226">
  <ele>-0.105</ele>
  <time>2026-09-02T22:07:20Z</time>
  <course>186.65</course>
  <speed>0.7213875518748573</speed>
  <fix>3d</fix>
</trkpt>
<trkpt lat="33.8102639" lon="-118.3939226">
  <ele>-0.105</ele>
  <time>2026-09-02T22:07:20Z</time>
  <course>186.65</course>
  <speed>0.7213875518748573</speed>
  <fix>3d</fix>
</trkpt>
<trkpt lat="33.8102639" lon="-118.3939227">
  <ele>-0.105</ele>
  <time>2026-09-02T22:07:20Z</time>
  <course>186.65</course>
  <speed>0.7213875518748573</speed>
  <fix>3d</fix>
</trkpt>
<trkpt lat="33.8102638" lon="-118.3939227">
  <ele>-0.105</ele>
  <time>2026-09-02T22:07:20Z</time>
  <course>186.65</course>
  <speed>0.7213875518748573</speed>
  <fix>3d</fix>
</trkpt>
<trkpt lat="33.8102638" lon="-118.3939228">
  <ele>-0.105</ele>
  <time>2026-09-02T22:07:20Z</time>
  <course>186.65</course>
  <speed>0.7213875518748573</speed>
  <fix>3d</fix>
</trkpt>
<trkpt lat="33.8102643" lon="-118.3939217">
  <ele>-0.1</ele>
  <time>2026-09-02T22:07:20Z</time>
  <course>223.26</course>
  <speed>0.73</speed>
  <fix>3d</fix>
</trkpt>
<trkpt lat="33.8102638" lon="-118.3939228">
  <ele>-0.105</ele>
  <time>2026-09-02T22:07:20Z</time>
  <course>186.65</course>
  <speed>0.7213875518748573</speed>
  <fix>3d</fix>
</trkpt>
<trkpt lat="33.8102637" lon="-118.3939228">
  <ele>-0.105</ele>
  <time>2026-09-02T22:07:20Z</time>
  <course>186.65</course>
  <speed>0.7213875518748573</speed>
  <fix>3d</fix>
</trkpt>
<trkpt lat="33.8102637" lon="-118.3939229">
  <ele>-0.105</ele>
  <time>2026-09-02T22:07:20Z</time>
  <course>186.65</course>
  <speed>0.7213875518748573</speed>
  <fix>3d</fix>
</trkpt>
<trkpt lat="33.8102636" lon="-118.393923">
  <ele>-0.105</ele>
  <time>2026-09-02T22:07:20Z</time>
  <course>186.65</course>
  <speed>0.7213875518748573</speed>
  <fix>3d</fix>
</trkpt>
<trkpt lat="33.8102636" lon="-118.393923">
  <ele>-0.105</ele>
  <time>2026-09-02T22:07:20Z</time>
  <course>186.65</course>
  <speed>0.7213875518748573</speed>
  <fix>3d</fix>
</trkpt>
<trkpt lat="33.8102636" lon="-118.393923">
  <ele>-0.105</ele>
  <time>2026-09-02T22:07:20Z</time>
  <course>186.65</course>
  <speed>0.7213875518748573</speed>
  <fix>3d</fix>
</trkpt>
<trkpt lat="33.8102635" lon="-118.3939231">
  <ele>-0.105</ele>
  <time>2026-09-02T22:07:20Z</time>
  <course>186.65</course>
  <speed>0.7213875518748573</speed>
  <fix>3d</fix>
</trkpt>
<trkpt lat="33.8102635" lon="-118.3939231">
  <ele>-0.105</ele>
  <time>2026-09-02T22:07:20Z</time>
  <course>186.65</course>
  <speed>0.7213875518748573</speed>
  <fix>3d</fix>
</trkpt>
<trkpt lat="33.8102634" lon="-118.3939232">
  <ele>-0.106</ele>
  <time>2026-09-02T22:07:20Z</time>
  <course>186.65</course>
  <speed>0.7213875518748573</speed>
  <fix>3d</fix>
</trkpt>
<trkpt lat="33.8102634" lon="-118.3939232">
  <ele>-0.106</ele>
  <time>2026-09-02T22:07:20Z</time>
  <course>186.65</course>
  <speed>0.7213875518748573</speed>
  <fix>3d</fix>
</trkpt>
<trkpt lat="33.8102634" lon="-118.3939233">
  <ele>-0.106</ele>
  <time>2026-09-02T22:07:20Z</time>
  <course>186.65</course>
  <speed>0.7213875518748573</speed>
  <fix>3d</fix>
</trkpt>
<trkpt lat="33.8102633" lon="-118.3939233">
  <ele>-0.106</ele>
  <time>2026-09-02T22:07:20Z</time>
  <course>186.65</course>
  <speed>0.7213875518748573</speed>
  <fix>3d</fix>
</trkpt>
<trkpt lat="33.8102633" lon="-118.3939233">
  <ele>-0.106</ele>
  <time>2026-09-02T22:07:20Z</time>
  <course>186.65</course>
  <speed>0.7213875518748573</speed>
  <fix>3d</fix>
</trkpt>
<trkpt lat="33.8102643" lon="-118.3939217">
  <ele>-0.1</ele>
  <time>2026-09-02T22:07:20Z</time>
  <course>223.26</course>
  <speed>0.73</speed>
  <fix>3d</fix>
</trkpt>
<trkpt lat="33.8102633" lon="-118.3939234">
  <ele>-0.106</ele>
  <time>2026-09-02T22:07:20Z</time>
  <course>186.65</course>
  <speed>0.7213875518748573</speed>
  <fix>3d</fix>
</trkpt>
<trkpt lat="33.8102633" lon="-118.3939234">
  <ele>-0.106</ele>
  <time>2026-09-02T22:07:20Z</time>
  <course>186.65</course>
  <speed>0.7213875518748573</speed>
  <fix>3d</fix>
</trkpt>
<trkpt lat="33.8102632" lon="-118.3939234">
  <ele>-0.106</ele>
  <time>2026-09-02T22:07:20Z</time>
  <course>186.65</course>
  <speed>0.7213875518748573</speed>
  <fix>3d</fix>
</trkpt>
<trkpt lat="33.8102632" lon="-118.3939235">
  <ele>-0.106</ele>
  <time>2026-09-02T22:07:20Z</time>
  <course>186.65</course>
  <speed>0.7213875518748573</speed>
  <fix>3d</fix>
</trkpt>
<trkpt lat="33.8102632" lon="-118.3939235">
  <ele>-0.106</ele>
  <time>2026-09-02T22:07:20Z</time>
  <course>186.65</course>
  <speed>0.7213875518748573</speed>
  <fix>3d</fix>
</trkpt>
<trkpt lat="33.8102632" lon="-118.3939235">
  <ele>-0.106</ele>
  <time>2026-09-02T22:07:20Z</time>
  <course>186.65</course>
  <speed>0.7213875518748573</speed>
  <fix>3d</fix>
</trkpt>
<trkpt lat="33.8102631" lon="-118.3939235">
  <ele>-0.106</ele>
  <time>2026-09-02T22:07:20Z</time>
  <course>186.65</course>
  <speed>0.7213875518748573</speed>
  <fix>3d</fix>
</trkpt>
<trkpt lat="33.8102631" lon="-118.3939236">
  <ele>-0.107</ele>
  <time>2026-09-02T22:07:20Z</time>
  <course>186.65</course>
  <speed>0.7213875518748573</speed>
  <fix>3d</fix>
</trkpt>
<trkpt lat="33.8102631" lon="-118.3939236">
  <ele>-0.107</ele>
  <time>2026-09-02T22:07:20Z</time>
  <course>186.65</course>
  <speed>0.7213875518748573</speed>
  <fix>3d</fix>
</trkpt>
<trkpt lat="33.810263" lon="-118.3939237">
  <ele>-0.107</ele>
  <time>2026-09-02T22:07:20Z</time>
  <course>186.65</course>
  <speed>0.7213875518748573</speed>
  <fix>3d</fix>
</trkpt>
<trkpt lat="33.810263" lon="-118.3939237">
  <ele>-0.107</ele>
  <time>2026-09-02T22:07:20Z</time>
  <course>186.64</course>
  <speed>0.7213875518748573</speed>
  <fix>3d</fix>
</trkpt>
<trkpt lat="33.810263" lon="-118.3939237">
  <ele>-0.107</ele>
  <time>2026-09-02T22:07:20Z</time>
  <course>186.64</course>
  <speed>0.7213875518748573</speed>
  <fix>3d</fix>
</trkpt>
<trkpt lat="33.8102629" lon="-118.3939238">
  <ele>-0.108</ele>
  <time>2026-09-02T22:07:20Z</time>
  <course>186.64</course>
  <speed>0.7213875518748573</speed>
  <fix>3d</fix>
</trkpt>
<trkpt lat="33.8102629" lon="-118.3939238">
  <ele>-0.108</ele>
  <time>2026-09-02T22:07:20Z</time>
  <course>186.64</course>
  <speed>0.7213875518748573</speed>
  <fix>3d</fix>
</trkpt>
<trkpt lat="33.8102629" lon="-118.3939238">
  <ele>-0.108</ele>
  <time>2026-09-02T22:07:20Z</time>
  <course>186.64</course>
  <speed>0.7213875518748573</speed>
  <fix>3d</fix>
</trkpt>
<trkpt lat="33.8102629" lon="-118.3939238">
  <ele>-0.108</ele>
  <time>2026-09-02T22:07:20Z</time>
  <course>186.64</course>
  <speed>0.7213875518748573</speed>
  <fix>3d</fix>
</trkpt>
<trkpt lat="33.8102633" lon="-118.3939228">
  <ele>-0.1</ele>
  <time>2026-09-02T22:07:20Z</time>
  <course>223.26</course>
  <speed>0.73</speed>
  <fix>3d</fix>
</trkpt>
<trkpt lat="33.8102628" lon="-118.3939239">
  <ele>-0.108</ele>
  <time>2026-09-02T22:07:20Z</time>
  <course>186.64</course>
  <speed>0.7213875518748573</speed>
  <fix>3d</fix>
</trkpt>
<trkpt lat="33.8102628" lon="-118.3939239">
  <ele>-0.108</ele>
  <time>2026-09-02T22:07:20Z</time>
  <course>186.64</course>
  <speed>0.7213875518748573</speed>
  <fix>3d</fix>
</trkpt>
<trkpt lat="33.8102628" lon="-118.393924">
  <ele>-0.108</ele>
  <time>2026-09-02T22:07:20Z</time>
  <course>186.64</course>
  <speed>0.7213875518748573</speed>
  <fix>3d</fix>
</trkpt>
<trkpt lat="33.8102627" lon="-118.393924">
  <ele>-0.109</ele>
  <time>2026-09-02T22:07:20Z</time>
  <course>186.64</course>
  <speed>0.7213875518748573</speed>
  <fix>3d</fix>
</trkpt>
<trkpt lat="33.8102627" lon="-118.393924">
  <ele>-0.109</ele>
  <time>2026-09-02T22:07:20Z</time>
  <course>186.64</course>
  <speed>0.7213875518748573</speed>
  <fix>3d</fix>
</trkpt>
<trkpt lat="33.8102627" lon="-118.3939241">
  <ele>-0.109</ele>
  <time>2026-09-02T22:07:20Z</time>
  <course>186.64</course>
  <speed>0.7213875518748573</speed>
  <fix>3d</fix>
</trkpt>
<trkpt lat="33.8102626" lon="-118.3939241">
  <ele>-0.109</ele>
  <time>2026-09-02T22:07:20Z</time>
  <course>186.64</course>
  <speed>0.7213875518748573</speed>
  <fix>3d</fix>
</trkpt>
<trkpt lat="33.8102626" lon="-118.3939241">
  <ele>-0.109</ele>
  <time>2026-09-02T22:07:20Z</time>
  <course>186.64</course>
  <speed>0.7213875518748573</speed>
  <fix>3d</fix>
</trkpt>
<trkpt lat="33.8102626" lon="-118.3939242">
  <ele>-0.109</ele>
  <time>2026-09-02T22:07:20Z</time>
  <course>186.64</course>
  <speed>0.7213875518748573</speed>
  <fix>3d</fix>
</trkpt>
<trkpt lat="33.8102625" lon="-118.3939242">
  <ele>-0.109</ele>
  <time>2026-09-02T22:07:20Z</time>
  <course>186.64</course>
  <speed>0.7213875518748573</speed>
  <fix>3d</fix>
</trkpt>
<trkpt lat="33.8102625" lon="-118.3939243">
  <ele>-0.11</ele>
  <time>2026-09-02T22:07:20Z</time>
  <course>186.64</course>
  <speed>0.7213875518748573</speed>
  <fix>3d</fix>
</trkpt>
<trkpt lat="33.8102625" lon="-118.3939243">
  <ele>-0.11</ele>
  <time>2026-09-02T22:07:20Z</time>
  <course>186.64</course>
  <speed>0.7213875518748573</speed>
  <fix>3d</fix>
</trkpt>
<trkpt lat="33.8102624" lon="-118.3939243">
  <ele>-0.11</ele>
  <time>2026-09-02T22:07:20Z</time>
  <course>186.64</course>
  <speed>0.7213875518748573</speed>
  <fix>3d</fix>
</trkpt>
<trkpt lat="33.8102624" lon="-118.3939244">
  <ele>-0.11</ele>
  <time>2026-09-02T22:07:20Z</time>
  <course>186.64</course>
  <speed>0.7213875518748573</speed>
  <fix>3d</fix>
</trkpt>
<trkpt lat="33.8102624" lon="-118.3939244">
  <ele>-0.11</ele>
  <time>2026-09-02T22:07:20Z</time>
  <course>186.64</course>
  <speed>0.7213875518748573</speed>
  <fix>3d</fix>
</trkpt>
<trkpt lat="33.8102633" lon="-118.3939228">
  <ele>-0.1</ele>
  <time>2026-09-02T22:07:20Z</time>
  <course>223.26</course>
  <speed>0.73</speed>
  <fix>3d</fix>
</trkpt>
<trkpt lat="33.8102623" lon="-118.3939244">
  <ele>-0.11</ele>
  <time>2026-09-02T22:07:20Z</time>
  <course>186.64</course>
  <speed>0.7213875518748573</speed>
  <fix>3d</fix>
</trkpt>
<trkpt lat="33.8102623" lon="-118.3939245">
  <ele>-0.11</ele>
  <time>2026-09-02T22:07:20Z</time>
  <course>186.64</course>
  <speed>0.7213875518748573</speed>
  <fix>3d</fix>
</trkpt>
<trkpt lat="33.8102623" lon="-118.3939245">
  <ele>-0.111</ele>
  <time>2026-09-02T22:07:20Z</time>
  <course>186.64</course>
  <speed>0.7213875518748573</speed>
  <fix>3d</fix>
</trkpt>
<trkpt lat="33.8102622" lon="-118.3939246">
  <ele>-0.111</ele>
  <time>2026-09-02T22:07:20Z</time>
  <course>186.64</course>
  <speed>0.7213875518748573</speed>
  <fix>3d</fix>
</trkpt>
<trkpt lat="33.8102622" lon="-118.3939246">
  <ele>-0.111</ele>
  <time>2026-09-02T22:07:20Z</time>
  <course>186.64</course>
  <speed>0.7213875518748573</speed>
  <fix>3d</fix>
</trkpt>
<trkpt lat="33.8102621" lon="-118.3939247">
  <ele>-0.111</ele>
  <time>2026-09-02T22:07:20Z</time>
  <course>186.64</course>
  <speed>0.7213875518748573</speed>
  <fix>3d</fix>
</trkpt>
<trkpt lat="33.8102621" lon="-118.3939247">
  <ele>-0.111</ele>
  <time>2026-09-02T22:07:20Z</time>
  <course>186.64</course>
  <speed>0.7213875518748573</speed>
  <fix>3d</fix>
</trkpt>
<trkpt lat="33.8102621" lon="-118.3939248">
  <ele>-0.112</ele>
  <time>2026-09-02T22:07:20Z</time>
  <course>186.64</course>
  <speed>0.7213875518748573</speed>
  <fix>3d</fix>
</trkpt>
<trkpt lat="33.810262" lon="-118.3939248">
  <ele>-0.112</ele>
  <time>2026-09-02T22:07:20Z</time>
  <course>186.64</course>
  <speed>0.7213875518748573</speed>
  <fix>3d</fix>
</trkpt>
<trkpt lat="33.810262" lon="-118.3939249">
  <ele>-0.112</ele>
  <time>2026-09-02T22:07:20Z</time>
  <course>186.64</course>
  <speed>0.7213875518748573</speed>
  <fix>3d</fix>
</trkpt>
<trkpt lat="33.8102619" lon="-118.3939249">
  <ele>-0.112</ele>
  <time>2026-09-02T22:07:20Z</time>
  <course>186.64</course>
  <speed>0.7213875518748573</speed>
  <fix>3d</fix>
</trkpt>
<trkpt lat="33.8102619" lon="-118.3939249">
  <ele>-0.112</ele>
  <time>2026-09-02T22:07:20Z</time>
  <course>186.64</course>
  <speed>0.7213875518748573</speed>
  <fix>3d</fix>
</trkpt>
<trkpt lat="33.8102624" lon="-118.3939239">
  <ele>-0.1</ele>
  <time>2026-09-02T22:07:20Z</time>
  <course>223.26</course>
  <speed>0.73</speed>
  <fix>3d</fix>
</trkpt>
<trkpt lat="33.8102619" lon="-118.3939249">
  <ele>-0.112</ele>
  <time>2026-09-02T22:07:20Z</time>
  <course>186.64</course>
  <speed>0.7213875518748573</speed>
  <fix>3d</fix>
</trkpt>
<trkpt lat="33.8102618" lon="-118.393925">
  <ele>-0.112</ele>
  <time>2026-09-02T22:07:20Z</time>
  <course>186.64</course>
  <speed>0.7213875518748573</speed>
  <fix>3d</fix>
</trkpt>
<trkpt lat="33.8102618" lon="-118.3939251">
  <ele>-0.113</ele>
  <time>2026-09-02T22:07:20Z</time>
  <course>186.64</course>
  <speed>0.7213875518748573</speed>
  <fix>3d</fix>
</trkpt>
<trkpt lat="33.8102618" lon="-118.3939251">
  <ele>-0.113</ele>
  <time>2026-09-02T22:07:20Z</time>
  <course>186.64</course>
  <speed>0.7213875518748573</speed>
  <fix>3d</fix>
</trkpt>
<trkpt lat="33.8102617" lon="-118.3939251">
  <ele>-0.113</ele>
  <time>2026-09-02T22:07:20Z</time>
  <course>186.64</course>
  <speed>0.7213875518748573</speed>
  <fix>3d</fix>
</trkpt>
<trkpt lat="33.8102617" lon="-118.3939252">
  <ele>-0.113</ele>
  <time>2026-09-02T22:07:20Z</time>
  <course>186.64</course>
  <speed>0.7213875518748573</speed>
  <fix>3d</fix>
</trkpt>
<trkpt lat="33.8102616" lon="-118.3939252">
  <ele>-0.113</ele>
  <time>2026-09-02T22:07:20Z</time>
  <course>186.64</course>
  <speed>0.7213875518748573</speed>
  <fix>3d</fix>
</trkpt>
<trkpt lat="33.8102616" lon="-118.3939253">
  <ele>-0.113</ele>
  <time>2026-09-02T22:07:20Z</time>
  <course>186.63</course>
  <speed>0.7213875518748573</speed>
  <fix>3d</fix>
</trkpt>
<trkpt lat="33.8102616" lon="-118.3939253">
  <ele>-0.114</ele>
  <time>2026-09-02T22:07:20Z</time>
  <course>186.63</course>
  <speed>0.7213875518748573</speed>
  <fix>3d</fix>
</trkpt>
<trkpt lat="33.8102615" lon="-118.3939254">
  <ele>-0.114</ele>
  <time>2026-09-02T22:07:20Z</time>
  <course>186.63</course>
  <speed>0.7213875518748573</speed>
  <fix>3d</fix>
</trkpt>
<trkpt lat="33.8102615" lon="-118.3939254">
  <ele>-0.114</ele>
  <time>2026-09-02T22:07:20Z</time>
  <course>186.63</course>
  <speed>0.7213875518748573</speed>
  <fix>3d</fix>
</trkpt>
<trkpt lat="33.8102615" lon="-118.3939254">
  <ele>-0.114</ele>
  <time>2026-09-02T22:07:20Z</time>
  <course>186.63</course>
  <speed>0.7213875518748573</speed>
  <fix>3d</fix>
</trkpt>
<trkpt lat="33.8102614" lon="-118.3939255">
  <ele>-0.114</ele>
  <time>2026-09-02T22:07:20Z</time>
  <course>186.63</course>
  <speed>0.7213875518748573</speed>
  <fix>3d</fix>
</trkpt>
<trkpt lat="33.8102624" lon="-118.3939239">
  <ele>-0.1</ele>
  <time>2026-09-02T22:07:20Z</time>
  <course>223.26</course>
  <speed>0.73</speed>
  <fix>3d</fix>
</trkpt>
<trkpt lat="33.8102614" lon="-118.3939255">
  <ele>-0.114</ele>
  <time>2026-09-02T22:07:20Z</time>
  <course>186.63</course>
  <speed>0.7213875518748573</speed>
  <fix>3d</fix>
</trkpt>
<trkpt lat="33.8102614" lon="-118.3939256">
  <ele>-0.114</ele>
  <time>2026-09-02T22:07:20Z</time>
  <course>186.63</course>
  <speed>0.7213875518748573</speed>
  <fix>3d</fix>
</trkpt>
<trkpt lat="33.8102613" lon="-118.3939256">
  <ele>-0.114</ele>
  <time>2026-09-02T22:07:20Z</time>
  <course>186.63</course>
  <speed>0.7213875518748573</speed>
  <fix>3d</fix>
</trkpt>
<trkpt lat="33.8102613" lon="-118.3939257">
  <ele>-0.114</ele>
  <time>2026-09-02T22:07:20Z</time>
  <course>186.63</course>
  <speed>0.7213875518748573</speed>
  <fix>3d</fix>
</trkpt>
<trkpt lat="33.8102612" lon="-118.3939257">
  <ele>-0.114</ele>
  <time>2026-09-02T22:07:20Z</time>
  <course>186.63</course>
  <speed>0.7213875518748573</speed>
  <fix>3d</fix>
</trkpt>
<trkpt lat="33.8102612" lon="-118.3939258">
  <ele>-0.114</ele>
  <time>2026-09-02T22:07:20Z</time>
  <course>186.63</course>
  <speed>0.7213875518748573</speed>
  <fix>3d</fix>
</trkpt>
<trkpt lat="33.8102612" lon="-118.3939258">
  <ele>-0.114</ele>
  <time>2026-09-02T22:07:20Z</time>
  <course>186.63</course>
  <speed>0.7213875518748573</speed>
  <fix>3d</fix>
</trkpt>
<trkpt lat="33.8102611" lon="-118.3939258">
  <ele>-0.114</ele>
  <time>2026-09-02T22:07:20Z</time>
  <course>186.63</course>
  <speed>0.7213875518748573</speed>
  <fix>3d</fix>
</trkpt>
<trkpt lat="33.8102611" lon="-118.3939259">
  <ele>-0.114</ele>
  <time>2026-09-02T22:07:20Z</time>
  <course>186.63</course>
  <speed>0.7213875518748573</speed>
  <fix>3d</fix>
</trkpt>
<trkpt lat="33.810261" lon="-118.3939259">
  <ele>-0.114</ele>
  <time>2026-09-02T22:07:20Z</time>
  <course>186.63</course>
  <speed>0.7213875518748573</speed>
  <fix>3d</fix>
</trkpt>
<trkpt lat="33.810261" lon="-118.393926">
  <ele>-0.114</ele>
  <time>2026-09-02T22:07:20Z</time>
  <course>186.63</course>
  <speed>0.7213875518748573</speed>
  <fix>3d</fix>
</trkpt>
<trkpt lat="33.810261" lon="-118.393926">
  <ele>-0.114</ele>
  <time>2026-09-02T22:07:20Z</time>
  <course>186.63</course>
  <speed>0.7213875518748573</speed>
  <fix>3d</fix>
</trkpt>
<trkpt lat="33.810261" lon="-118.393926">
  <ele>-0.114</ele>
  <time>2026-09-02T22:07:20Z</time>
  <course>186.63</course>
  <speed>0.7213875518748573</speed>
  <fix>3d</fix>
</trkpt>
<trkpt lat="33.8102614" lon="-118.393925">
  <ele>-0.1</ele>
  <time>2026-09-02T22:07:20Z</time>
  <course>223.26</course>
  <speed>0.73</speed>
  <fix>3d</fix>
</trkpt>
<trkpt lat="33.8102609" lon="-118.393926">
  <ele>-0.114</ele>
  <time>2026-09-02T22:07:20Z</time>
  <course>186.63</course>
  <speed>0.7213875518748573</speed>
  <fix>3d</fix>
</trkpt>
<trkpt lat="33.8102608" lon="-118.3939261">
  <ele>-0.114</ele>
  <time>2026-09-02T22:07:20Z</time>
  <course>186.63</course>
  <speed>0.7213875518748573</speed>
  <fix>3d</fix>
</trkpt>
<trkpt lat="33.8102608" lon="-118.3939262">
  <ele>-0.113</ele>
  <time>2026-09-02T22:07:20Z</time>
  <course>186.63</course>
  <speed>0.7213875518748573</speed>
  <fix>3d</fix>
</trkpt>
<trkpt lat="33.8102608" lon="-118.3939262">
  <ele>-0.113</ele>
  <time>2026-09-02T22:07:20Z</time>
  <course>186.63</course>
  <speed>0.7213875518748573</speed>
  <fix>3d</fix>
</trkpt>
<trkpt lat="33.8102607" lon="-118.3939263">
  <ele>-0.113</ele>
  <time>2026-09-02T22:07:20Z</time>
  <course>186.63</course>
  <speed>0.7213875518748573</speed>
  <fix>3d</fix>
</trkpt>
<trkpt lat="33.8102607" lon="-118.3939263">
  <ele>-0.113</ele>
  <time>2026-09-02T22:07:20Z</time>
  <course>186.63</course>
  <speed>0.7213875518748573</speed>
  <fix>3d</fix>
</trkpt>
<trkpt lat="33.8102606" lon="-118.3939264">
  <ele>-0.113</ele>
  <time>2026-09-02T22:07:20Z</time>
  <course>186.63</course>
  <speed>0.7213875518748573</speed>
  <fix>3d</fix>
</trkpt>
<trkpt lat="33.8102606" lon="-118.3939264">
  <ele>-0.113</ele>
  <time>2026-09-02T22:07:20Z</time>
  <course>186.63</course>
  <speed>0.7213875518748573</speed>
  <fix>3d</fix>
</trkpt>
<trkpt lat="33.8102606" lon="-118.3939265">
  <ele>-0.113</ele>
  <time>2026-09-02T22:07:20Z</time>
  <course>186.63</course>
  <speed>0.7213875518748573</speed>
  <fix>3d</fix>
</trkpt>
<trkpt lat="33.8102605" lon="-118.3939265">
  <ele>-0.113</ele>
  <time>2026-09-02T22:07:20Z</time>
  <course>186.63</course>
  <speed>0.7213875518748573</speed>
  <fix>3d</fix>
</trkpt>
<trkpt lat="33.8102605" lon="-118.3939266">
  <ele>-0.113</ele>
  <time>2026-09-02T22:07:20Z</time>
  <course>186.63</course>
  <speed>0.7213875518748573</speed>
  <fix>3d</fix>
</trkpt>
<trkpt lat="33.8102605" lon="-118.3939266">
  <ele>-0.113</ele>
  <time>2026-09-02T22:07:20Z</time>
  <course>186.63</course>
  <speed>0.7213875518748573</speed>
  <fix>3d</fix>
</trkpt>
<trkpt lat="33.8102614" lon="-118.393925">
  <ele>-0.1</ele>
  <time>2026-09-02T22:07:20Z</time>
  <course>223.26</course>
  <speed>0.73</speed>
  <fix>3d</fix>
</trkpt>
<trkpt lat="33.8102604" lon="-118.3939266">
  <ele>-0.113</ele>
  <time>2026-09-02T22:07:20Z</time>
  <course>186.63</course>
  <speed>0.7213875518748573</speed>
  <fix>3d</fix>
</trkpt>
<trkpt lat="33.8102604" lon="-118.3939267">
  <ele>-0.113</ele>
  <time>2026-09-02T22:07:20Z</time>
  <course>186.63</course>
  <speed>0.7213875518748573</speed>
  <fix>3d</fix>
</trkpt>
<trkpt lat="33.8102603" lon="-118.3939267">
  <ele>-0.113</ele>
  <time>2026-09-02T22:07:20Z</time>
  <course>186.63</course>
  <speed>0.7213875518748573</speed>
  <fix>3d</fix>
</trkpt>
<trkpt lat="33.8102603" lon="-118.3939268">
  <ele>-0.113</ele>
  <time>2026-09-02T22:07:20Z</time>
  <course>186.63</course>
  <speed>0.7213875518748573</speed>
  <fix>3d</fix>
</trkpt>
<trkpt lat="33.8102603" lon="-118.3939268">
  <ele>-0.113</ele>
  <time>2026-09-02T22:07:20Z</time>
  <course>186.62</course>
  <speed>0.7213875518748573</speed>
  <fix>3d</fix>
</trkpt>
<trkpt lat="33.8102602" lon="-118.3939269">
  <ele>-0.113</ele>
  <time>2026-09-02T22:07:20Z</time>
  <course>186.62</course>
  <speed>0.7213875518748573</speed>
  <fix>3d</fix>
</trkpt>
<trkpt lat="33.8102602" lon="-118.3939269">
  <ele>-0.112</ele>
  <time>2026-09-02T22:07:20Z</time>
  <course>186.62</course>
  <speed>0.7213875518748573</speed>
  <fix>3d</fix>
</trkpt>
<trkpt lat="33.8102601" lon="-118.3939269">
  <ele>-0.112</ele>
  <time>2026-09-02T22:07:20Z</time>
  <course>186.62</course>
  <speed>0.7213875518748573</speed>
  <fix>3d</fix>
</trkpt>
<trkpt lat="33.8102601" lon="-118.393927">
  <ele>-0.112</ele>
  <time>2026-09-02T22:07:20Z</time>
  <course>186.62</course>
  <speed>0.7213875518748573</speed>
  <fix>3d</fix>
</trkpt>
<trkpt lat="33.81026" lon="-118.3939271">
  <ele>-0.112</ele>
  <time>2026-09-02T22:07:20Z</time>
  <course>186.62</course>
  <speed>0.7213875518748573</speed>
  <fix>3d</fix>
</trkpt>
<trkpt lat="33.81026" lon="-118.3939271">
  <ele>-0.112</ele>
  <time>2026-09-02T22:07:20Z</time>
  <course>186.62</course>
  <speed>0.7213875518748573</speed>
  <fix>3d</fix>
</trkpt>
<trkpt lat="33.81026" lon="-118.3939271">
  <ele>-0.112</ele>
  <time>2026-09-02T22:07:20Z</time>
  <course>186.62</course>
  <speed>0.7213875518748573</speed>
  <fix>3d</fix>
</trkpt>
<trkpt lat="33.8102604" lon="-118.3939261">
  <ele>-0.11</ele>
  <time>2026-09-02T22:07:20Z</time>
  <course>223.26</course>
  <speed>0.73</speed>
  <fix>3d</fix>
</trkpt>
<trkpt lat="33.81026" lon="-118.3939271">
  <ele>-0.112</ele>
  <time>2026-09-02T22:07:20Z</time>
  <course>186.62</course>
  <speed>0.7213875518748573</speed>
  <fix>3d</fix>
</trkpt>
<trkpt lat="33.8102599" lon="-118.3939272">
  <ele>-0.112</ele>
  <time>2026-09-02T22:07:20Z</time>
  <course>186.62</course>
  <speed>0.7213875518748573</speed>
  <fix>3d</fix>
</trkpt>
<trkpt lat="33.8102599" lon="-118.3939272">
  <ele>-0.111</ele>
  <time>2026-09-02T22:07:20Z</time>
  <course>186.62</course>
  <speed>0.7213875518748573</speed>
  <fix>3d</fix>
</trkpt>
<trkpt lat="33.8102599" lon="-118.3939273">
  <ele>-0.111</ele>
  <time>2026-09-02T22:07:20Z</time>
  <course>186.62</course>
  <speed>0.7213875518748573</speed>
  <fix>3d</fix>
</trkpt>
<trkpt lat="33.8102598" lon="-118.3939273">
  <ele>-0.111</ele>
  <time>2026-09-02T22:07:20Z</time>
  <course>186.62</course>
  <speed>0.7213875518748573</speed>
  <fix>3d</fix>
</trkpt>
<trkpt lat="33.8102598" lon="-118.3939274">
  <ele>-0.111</ele>
  <time>2026-09-02T22:07:20Z</time>
  <course>186.62</course>
  <speed>0.7213875518748573</speed>
  <fix>3d</fix>
</trkpt>
<trkpt lat="33.8102597" lon="-118.3939274">
  <ele>-0.111</ele>
  <time>2026-09-02T22:07:20Z</time>
  <course>186.62</course>
  <speed>0.7213875518748573</speed>
  <fix>3d</fix>
</trkpt>
<trkpt lat="33.8102597" lon="-118.3939275">
  <ele>-0.111</ele>
  <time>2026-09-02T22:07:20Z</time>
  <course>186.62</course>
  <speed>0.7213875518748573</speed>
  <fix>3d</fix>
</trkpt>
<trkpt lat="33.8102596" lon="-118.3939275">
  <ele>-0.111</ele>
  <time>2026-09-02T22:07:20Z</time>
  <course>186.62</course>
  <speed>0.7213875518748573</speed>
  <fix>3d</fix>
</trkpt>
<trkpt lat="33.8102596" lon="-118.3939276">
  <ele>-0.111</ele>
  <time>2026-09-02T22:07:20Z</time>
  <course>186.62</course>
  <speed>0.7213875518748573</speed>
  <fix>3d</fix>
</trkpt>
<trkpt lat="33.8102595" lon="-118.3939276">
  <ele>-0.111</ele>
  <time>2026-09-02T22:07:20Z</time>
  <course>186.62</course>
  <speed>0.7213875518748573</speed>
  <fix>3d</fix>
</trkpt>
<trkpt lat="33.8102595" lon="-118.3939277">
  <ele>-0.111</ele>
  <time>2026-09-02T22:07:20Z</time>
  <course>186.62</course>
  <speed>0.7213875518748573</speed>
  <fix>3d</fix>
</trkpt>
<trkpt lat="33.8102604" lon="-118.3939261">
  <ele>-0.11</ele>
  <time>2026-09-02T22:07:20Z</time>
  <course>223.26</course>
  <speed>0.73</speed>
  <fix>3d</fix>
</trkpt>
<trkpt lat="33.8102595" lon="-118.3939277">
  <ele>-0.111</ele>
  <time>2026-09-02T22:07:20Z</time>
  <course>186.62</course>
  <speed>0.7213875518748573</speed>
  <fix>3d</fix>
</trkpt>
<trkpt lat="33.8102594" lon="-118.3939277">
  <ele>-0.111</ele>
  <time>2026-09-02T22:07:20Z</time>
  <course>186.62</course>
  <speed>0.7213875518748573</speed>
  <fix>3d</fix>
</trkpt>
<trkpt lat="33.8102594" lon="-118.3939278">
  <ele>-0.111</ele>
  <time>2026-09-02T22:07:20Z</time>
  <course>186.62</course>
  <speed>0.7213875518748573</speed>
  <fix>3d</fix>
</trkpt>
<trkpt lat="33.8102594" lon="-118.3939278">
  <ele>-0.111</ele>
  <time>2026-09-02T22:07:20Z</time>
  <course>186.62</course>
  <speed>0.7213875518748573</speed>
  <fix>3d</fix>
</trkpt>
<trkpt lat="33.8102593" lon="-118.3939279">
  <ele>-0.111</ele>
  <time>2026-09-02T22:07:20Z</time>
  <course>186.62</course>
  <speed>0.7213875518748573</speed>
  <fix>3d</fix>
</trkpt>
<trkpt lat="33.8102593" lon="-118.3939279">
  <ele>-0.111</ele>
  <time>2026-09-02T22:07:20Z</time>
  <course>186.62</course>
  <speed>0.7213875518748573</speed>
  <fix>3d</fix>
</trkpt>
<trkpt lat="33.8102592" lon="-118.393928">
  <ele>-0.111</ele>
  <time>2026-09-02T22:07:20Z</time>
  <course>186.62</course>
  <speed>0.7213875518748573</speed>
  <fix>3d</fix>
</trkpt>
<trkpt lat="33.8102592" lon="-118.393928">
  <ele>-0.111</ele>
  <time>2026-09-02T22:07:20Z</time>
  <course>186.62</course>
  <speed>0.7213875518748573</speed>
  <fix>3d</fix>
</trkpt>
<trkpt lat="33.8102591" lon="-118.3939281">
  <ele>-0.111</ele>
  <time>2026-09-02T22:07:20Z</time>
  <course>186.62</course>
  <speed>0.7213875518748573</speed>
  <fix>3d</fix>
</trkpt>
<trkpt lat="33.8102591" lon="-118.3939281">
  <ele>-0.111</ele>
  <time>2026-09-02T22:07:20Z</time>
  <course>186.62</course>
  <speed>0.7213875518748573</speed>
  <fix>3d</fix>
</trkpt>
<trkpt lat="33.8102591" lon="-118.3939282">
  <ele>-0.111</ele>
  <time>2026-09-02T22:07:20Z</time>
  <course>186.62</course>
  <speed>0.7213875518748573</speed>
  <fix>3d</fix>
</trkpt>
<trkpt lat="33.810259" lon="-118.3939282">
  <ele>-0.111</ele>
  <time>2026-09-02T22:07:20Z</time>
  <course>186.61</course>
  <speed>0.7213875518748573</speed>
  <fix>3d</fix>
</trkpt>
<trkpt lat="33.810259" lon="-118.3939282">
  <ele>-0.111</ele>
  <time>2026-09-02T22:07:20Z</time>
  <course>186.61</course>
  <speed>0.7213875518748573</speed>
  <fix>3d</fix>
</trkpt>
<trkpt lat="33.8102595" lon="-118.3939272">
  <ele>-0.1</ele>
  <time>2026-09-02T22:07:20Z</time>
  <course>223.26</course>
  <speed>0.73</speed>
  <fix>3d</fix>
</trkpt>
<trkpt lat="33.8102589" lon="-118.3939283">
  <ele>-0.111</ele>
  <time>2026-09-02T22:07:20Z</time>
  <course>186.61</course>
  <speed>0.7213875518748573</speed>
  <fix>3d</fix>
</trkpt>
<trkpt lat="33.8102589" lon="-118.3939284">
  <ele>-0.111</ele>
  <time>2026-09-02T22:07:20Z</time>
  <course>186.61</course>
  <speed>0.7213875518748573</speed>
  <fix>3d</fix>
</trkpt>
<trkpt lat="33.8102589" lon="-118.3939284">
  <ele>-0.111</ele>
  <time>2026-09-02T22:07:20Z</time>
  <course>186.61</course>
  <speed>0.7213875518748573</speed>
  <fix>3d</fix>
</trkpt>
<trkpt lat="33.8102588" lon="-118.3939284">
  <ele>-0.111</ele>
  <time>2026-09-02T22:07:20Z</time>
  <course>186.61</course>
  <speed>0.7213875518748573</speed>
  <fix>3d</fix>
</trkpt>
<trkpt lat="33.8102588" lon="-118.3939285">
  <ele>-0.111</ele>
  <time>2026-09-02T22:07:20Z</time>
  <course>186.61</course>
  <speed>0.7213875518748573</speed>
  <fix>3d</fix>
</trkpt>
<trkpt lat="33.8102587" lon="-118.3939285">
  <ele>-0.112</ele>
  <time>2026-09-02T22:07:20Z</time>
  <course>186.61</course>
  <speed>0.7213875518748573</speed>
  <fix>3d</fix>
</trkpt>
<trkpt lat="33.8102587" lon="-118.3939286">
  <ele>-0.112</ele>
  <time>2026-09-02T22:07:20Z</time>
  <course>186.61</course>
  <speed>0.7213875518748573</speed>
  <fix>3d</fix>
</trkpt>
<trkpt lat="33.8102586" lon="-118.3939287">
  <ele>-0.112</ele>
  <time>2026-09-02T22:07:20Z</time>
  <course>186.61</course>
  <speed>0.7213875518748573</speed>
  <fix>3d</fix>
</trkpt>
<trkpt lat="33.8102586" lon="-118.3939287">
  <ele>-0.112</ele>
  <time>2026-09-02T22:07:20Z</time>
  <course>186.61</course>
  <speed>0.7213875518748573</speed>
  <fix>3d</fix>
</trkpt>
<trkpt lat="33.8102586" lon="-118.3939287">
  <ele>-0.112</ele>
  <time>2026-09-02T22:07:20Z</time>
  <course>186.61</course>
  <speed>0.7213875518748573</speed>
  <fix>3d</fix>
</trkpt>
<trkpt lat="33.8102586" lon="-118.3939287">
  <ele>-0.112</ele>
  <time>2026-09-02T22:07:20Z</time>
  <course>186.61</course>
  <speed>0.7213875518748573</speed>
  <fix>3d</fix>
</trkpt>
<trkpt lat="33.8102595" lon="-118.3939272">
  <ele>-0.1</ele>
  <time>2026-09-02T22:07:20Z</time>
  <course>223.26</course>
  <speed>0.73</speed>
  <fix>3d</fix>
</trkpt>
<trkpt lat="33.8102585" lon="-118.3939288">
  <ele>-0.112</ele>
  <time>2026-09-02T22:07:20Z</time>
  <course>186.61</course>
  <speed>0.7213875518748573</speed>
  <fix>3d</fix>
</trkpt>
<trkpt lat="33.8102585" lon="-118.3939288">
  <ele>-0.112</ele>
  <time>2026-09-02T22:07:20Z</time>
  <course>186.61</course>
  <speed>0.7213875518748573</speed>
  <fix>3d</fix>
</trkpt>
<trkpt lat="33.8102584" lon="-118.3939289">
  <ele>-0.113</ele>
  <time>2026-09-02T22:07:20Z</time>
  <course>186.61</course>
  <speed>0.7213875518748573</speed>
  <fix>3d</fix>
</trkpt>
<trkpt lat="33.8102584" lon="-118.3939289">
  <ele>-0.113</ele>
  <time>2026-09-02T22:07:20Z</time>
  <course>186.61</course>
  <speed>0.7213875518748573</speed>
  <fix>3d</fix>
</trkpt>
<trkpt lat="33.8102584" lon="-118.393929">
  <ele>-0.113</ele>
  <time>2026-09-02T22:07:20Z</time>
  <course>186.61</course>
  <speed>0.7213875518748573</speed>
  <fix>3d</fix>
</trkpt>
<trkpt lat="33.8102583" lon="-118.393929">
  <ele>-0.113</ele>
  <time>2026-09-02T22:07:20Z</time>
  <course>186.61</course>
  <speed>0.7213875518748573</speed>
  <fix>3d</fix>
</trkpt>
<trkpt lat="33.8102583" lon="-118.3939291">
  <ele>-0.113</ele>
  <time>2026-09-02T22:07:20Z</time>
  <course>186.61</course>
  <speed>0.7213875518748573</speed>
  <fix>3d</fix>
</trkpt>
<trkpt lat="33.8102582" lon="-118.3939291">
  <ele>-0.113</ele>
  <time>2026-09-02T22:07:20Z</time>
  <course>186.61</course>
  <speed>0.7213875518748573</speed>
  <fix>3d</fix>
</trkpt>
<trkpt lat="33.8102582" lon="-118.3939291">
  <ele>-0.113</ele>
  <time>2026-09-02T22:07:20Z</time>
  <course>186.61</course>
  <speed>0.7213875518748573</speed>
  <fix>3d</fix>
</trkpt>
<trkpt lat="33.8102582" lon="-118.3939292">
  <ele>-0.113</ele>
  <time>2026-09-02T22:07:20Z</time>
  <course>186.61</course>
  <speed>0.7213875518748573</speed>
  <fix>3d</fix>
</trkpt>
<trkpt lat="33.8102581" lon="-118.3939293">
  <ele>-0.114</ele>
  <time>2026-09-02T22:07:20Z</time>
  <course>186.61</course>
  <speed>0.7213875518748573</speed>
  <fix>3d</fix>
</trkpt>
<trkpt lat="33.8102581" lon="-118.3939293">
  <ele>-0.114</ele>
  <time>2026-09-02T22:07:20Z</time>
  <course>186.61</course>
  <speed>0.7213875518748573</speed>
  <fix>3d</fix>
</trkpt>
<trkpt lat="33.8102581" lon="-118.3939293">
  <ele>-0.114</ele>
  <time>2026-09-02T22:07:20Z</time>
  <course>186.61</course>
  <speed>0.7213875518748573</speed>
  <fix>3d</fix>
</trkpt>
<trkpt lat="33.8102585" lon="-118.3939283">
  <ele>-0.1</ele>
  <time>2026-09-02T22:07:20Z</time>
  <course>223.26</course>
  <speed>0.73</speed>
  <fix>3d</fix>
</trkpt>
<trkpt lat="33.8102579" lon="-118.3939294">
  <ele>-0.114</ele>
  <time>2026-09-02T22:07:20Z</time>
  <course>186.61</course>
  <speed>0.7213875518748573</speed>
  <fix>3d</fix>
</trkpt>
<trkpt lat="33.8102579" lon="-118.3939295">
  <ele>-0.114</ele>
  <time>2026-09-02T22:07:20Z</time>
  <course>186.61</course>
  <speed>0.7213875518748573</speed>
  <fix>3d</fix>
</trkpt>
<trkpt lat="33.8102578" lon="-118.3939295">
  <ele>-0.114</ele>
  <time>2026-09-02T22:07:20Z</time>
  <course>186.61</course>
  <speed>0.7213875518748573</speed>
  <fix>3d</fix>
</trkpt>
<trkpt lat="33.8102578" lon="-118.3939296">
  <ele>-0.115</ele>
  <time>2026-09-02T22:07:20Z</time>
  <course>186.61</course>
  <speed>0.7213875518748573</speed>
  <fix>3d</fix>
</trkpt>
<trkpt lat="33.8102578" lon="-118.3939296">
  <ele>-0.115</ele>
  <time>2026-09-02T22:07:20Z</time>
  <course>186.61</course>
  <speed>0.7213875518748573</speed>
  <fix>3d</fix>
</trkpt>
<trkpt lat="33.8102577" lon="-118.3939297">
  <ele>-0.115</ele>
  <time>2026-09-02T22:07:20Z</time>
  <course>186.61</course>
  <speed>0.7213875518748573</speed>
  <fix>3d</fix>
</trkpt>
<trkpt lat="33.8102577" lon="-118.3939298">
  <ele>-0.115</ele>
  <time>2026-09-02T22:07:20Z</time>
  <course>186.6</course>
  <speed>0.7213875518748573</speed>
  <fix>3d</fix>
</trkpt>
<trkpt lat="33.8102576" lon="-118.3939298">
  <ele>-0.115</ele>
  <time>2026-09-02T22:07:20Z</time>
  <course>186.6</course>
  <speed>0.7213875518748573</speed>
  <fix>3d</fix>
</trkpt>
<trkpt lat="33.8102576" lon="-118.3939298">
  <ele>-0.115</ele>
  <time>2026-09-02T22:07:20Z</time>
  <course>186.6</course>
  <speed>0.7213875518748573</speed>
  <fix>3d</fix>
</trkpt>
<trkpt lat="33.8102576" lon="-118.3939298">
  <ele>-0.115</ele>
  <time>2026-09-02T22:07:20Z</time>
  <course>186.6</course>
  <speed>0.7213875518748573</speed>
  <fix>3d</fix>
</trkpt>
<trkpt lat="33.8102585" lon="-118.3939283">
  <ele>-0.1</ele>
  <time>2026-09-02T22:07:20Z</time>
  <course>223.26</course>
  <speed>0.73</speed>
  <fix>3d</fix>
</trkpt>
<trkpt lat="33.8102575" lon="-118.3939299">
  <ele>-0.115</ele>
  <time>2026-09-02T22:07:20Z</time>
  <course>186.6</course>
  <speed>0.7213875518748573</speed>
  <fix>3d</fix>
</trkpt>
<trkpt lat="33.8102575" lon="-118.39393">
  <ele>-0.115</ele>
  <time>2026-09-02T22:07:20Z</time>
  <course>186.6</course>
  <speed>0.7213875518748573</speed>
  <fix>3d</fix>
</trkpt>
<trkpt lat="33.8102574" lon="-118.39393">
  <ele>-0.115</ele>
  <time>2026-09-02T22:07:20Z</time>
  <course>186.6</course>
  <speed>0.7213875518748573</speed>
  <fix>3d</fix>
</trkpt>
<trkpt lat="33.8102574" lon="-118.3939301">
  <ele>-0.115</ele>
  <time>2026-09-02T22:07:20Z</time>
  <course>186.6</course>
  <speed>0.7213875518748573</speed>
  <fix>3d</fix>
</trkpt>
<trkpt lat="33.8102573" lon="-118.3939301">
  <ele>-0.116</ele>
  <time>2026-09-02T22:07:20Z</time>
  <course>186.6</course>
  <speed>0.7213875518748573</speed>
  <fix>3d</fix>
</trkpt>
<trkpt lat="33.8102573" lon="-118.3939302">
  <ele>-0.116</ele>
  <time>2026-09-02T22:07:20Z</time>
  <course>186.6</course>
  <speed>0.7213875518748573</speed>
  <fix>3d</fix>
</trkpt>
<trkpt lat="33.8102573" lon="-118.3939302">
  <ele>-0.116</ele>
  <time>2026-09-02T22:07:20Z</time>
  <course>186.6</course>
  <speed>0.7213875518748573</speed>
  <fix>3d</fix>
</trkpt>
<trkpt lat="33.8102572" lon="-118.3939303">
  <ele>-0.116</ele>
  <time>2026-09-02T22:07:20Z</time>
  <course>186.6</course>
  <speed>0.7213875518748573</speed>
  <fix>3d</fix>
</trkpt>
<trkpt lat="33.8102572" lon="-118.3939303">
  <ele>-0.116</ele>
  <time>2026-09-02T22:07:20Z</time>
  <course>186.6</course>
  <speed>0.7213875518748573</speed>
  <fix>3d</fix>
</trkpt>
<trkpt lat="33.8102571" lon="-118.3939304">
  <ele>-0.116</ele>
  <time>2026-09-02T22:07:20Z</time>
  <course>186.6</course>
  <speed>0.7213875518748573</speed>
  <fix>3d</fix>
</trkpt>
<trkpt lat="33.8102571" lon="-118.3939304">
  <ele>-0.116</ele>
  <time>2026-09-02T22:07:20Z</time>
  <course>186.6</course>
  <speed>0.7213875518748573</speed>
  <fix>3d</fix>
</trkpt>
<trkpt lat="33.8102576" lon="-118.3939294">
  <ele>-0.1</ele>
  <time>2026-09-02T22:07:20Z</time>
  <course>223.26</course>
  <speed>0.73</speed>
  <fix>3d</fix>
</trkpt>
<trkpt lat="33.8102571" lon="-118.3939304">
  <ele>-0.116</ele>
  <time>2026-09-02T22:07:20Z</time>
  <course>186.6</course>
  <speed>0.7213875518748573</speed>
  <fix>3d</fix>
</trkpt>
<trkpt lat="33.810257" lon="-118.3939305">
  <ele>-0.117</ele>
  <time>2026-09-02T22:07:20Z</time>
  <course>186.6</course>
  <speed>0.7213875518748573</speed>
  <fix>3d</fix>
</trkpt>
<trkpt lat="33.810257" lon="-118.3939305">
  <ele>-0.117</ele>
  <time>2026-09-02T22:07:20Z</time>
  <course>186.6</course>
  <speed>0.7213875518748573</speed>
  <fix>3d</fix>
</trkpt>
<trkpt lat="33.810257" lon="-118.3939306">
  <ele>-0.117</ele>
  <time>2026-09-02T22:07:20Z</time>
  <course>186.6</course>
  <speed>0.7213875518748573</speed>
  <fix>3d</fix>
</trkpt>
<trkpt lat="33.8102569" lon="-118.3939306">
  <ele>-0.117</ele>
  <time>2026-09-02T22:07:20Z</time>
  <course>186.6</course>
  <speed>0.7213875518748573</speed>
  <fix>3d</fix>
</trkpt>
<trkpt lat="33.8102569" lon="-118.3939307">
  <ele>-0.117</ele>
  <time>2026-09-02T22:07:20Z</time>
  <course>186.6</course>
  <speed>0.7213875518748573</speed>
  <fix>3d</fix>
</trkpt>
<trkpt lat="33.8102568" lon="-118.3939307">
  <ele>-0.117</ele>
  <time>2026-09-02T22:07:20Z</time>
  <course>186.6</course>
  <speed>0.7213875518748573</speed>
  <fix>3d</fix>
</trkpt>
<trkpt lat="33.8102568" lon="-118.3939308">
  <ele>-0.118</ele>
  <time>2026-09-02T22:07:20Z</time>
  <course>186.6</course>
  <speed>0.7213875518748573</speed>
  <fix>3d</fix>
</trkpt>
<trkpt lat="33.8102568" lon="-118.3939308">
  <ele>-0.118</ele>
  <time>2026-09-02T22:07:20Z</time>
  <course>186.6</course>
  <speed>0.7213875518748573</speed>
  <fix>3d</fix>
</trkpt>
<trkpt lat="33.8102567" lon="-118.3939308">
  <ele>-0.118</ele>
  <time>2026-09-02T22:07:20Z</time>
  <course>186.6</course>
  <speed>0.7213875518748573</speed>
  <fix>3d</fix>
</trkpt>
<trkpt lat="33.8102567" lon="-118.3939309">
  <ele>-0.118</ele>
  <time>2026-09-02T22:07:20Z</time>
  <course>186.6</course>
  <speed>0.7213875518748573</speed>
  <fix>3d</fix>
</trkpt>
<trkpt lat="33.8102566" lon="-118.3939309">
  <ele>-0.118</ele>
  <time>2026-09-02T22:07:20Z</time>
  <course>186.6</course>
  <speed>0.7213875518748573</speed>
  <fix>3d</fix>
</trkpt>
<trkpt lat="33.8102566" lon="-118.3939309">
  <ele>-0.118</ele>
  <time>2026-09-02T22:07:20Z</time>
  <course>186.6</course>
  <speed>0.7213875518748573</speed>
  <fix>3d</fix>
</trkpt>
<trkpt lat="33.8102576" lon="-118.3939294">
  <ele>-0.1</ele>
  <time>2026-09-02T22:07:20Z</time>
  <course>223.26</course>
  <speed>0.73</speed>
  <fix>3d</fix>
</trkpt>
<trkpt lat="33.8102565" lon="-118.3939311">
  <ele>-0.118</ele>
  <time>2026-09-02T22:07:20Z</time>
  <course>186.6</course>
  <speed>0.7213875518748573</speed>
  <fix>3d</fix>
</trkpt>
<trkpt lat="33.8102565" lon="-118.3939311">
  <ele>-0.118</ele>
  <time>2026-09-02T22:07:20Z</time>
  <course>186.6</course>
  <speed>0.7213875518748573</speed>
  <fix>3d</fix>
</trkpt>
<trkpt lat="33.8102565" lon="-118.3939312">
  <ele>-0.118</ele>
  <time>2026-09-02T22:07:20Z</time>
  <course>186.6</course>
  <speed>0.7213875518748573</speed>
  <fix>3d</fix>
</trkpt>
<trkpt lat="33.8102564" lon="-118.3939312">
  <ele>-0.118</ele>
  <time>2026-09-02T22:07:20Z</time>
  <course>186.6</course>
  <speed>0.7213875518748573</speed>
  <fix>3d</fix>
</trkpt>
<trkpt lat="33.8102564" lon="-118.3939312">
  <ele>-0.119</ele>
  <time>2026-09-02T22:07:20Z</time>
  <course>186.6</course>
  <speed>0.7213875518748573</speed>
  <fix>3d</fix>
</trkpt>
<trkpt lat="33.8102563" lon="-118.3939313">
  <ele>-0.119</ele>
  <time>2026-09-02T22:07:20Z</time>
  <course>186.6</course>
  <speed>0.7213875518748573</speed>
  <fix>3d</fix>
</trkpt>
<trkpt lat="33.8102563" lon="-118.3939313">
  <ele>-0.119</ele>
  <time>2026-09-02T22:07:20Z</time>
  <course>186.6</course>
  <speed>0.7213875518748573</speed>
  <fix>3d</fix>
</trkpt>
<trkpt lat="33.8102563" lon="-118.3939314">
  <ele>-0.119</ele>
  <time>2026-09-02T22:07:20Z</time>
  <course>186.59</course>
  <speed>0.7213875518748573</speed>
  <fix>3d</fix>
</trkpt>
<trkpt lat="33.8102562" lon="-118.3939314">
  <ele>-0.119</ele>
  <time>2026-09-02T22:07:20Z</time>
  <course>186.59</course>
  <speed>0.7213875518748573</speed>
  <fix>3d</fix>
</trkpt>
<trkpt lat="33.8102562" lon="-118.3939315">
  <ele>-0.119</ele>
  <time>2026-09-02T22:07:20Z</time>
  <course>186.59</course>
  <speed>0.7213875518748573</speed>
  <fix>3d</fix>
</trkpt>
<trkpt lat="33.8102562" lon="-118.3939315">
  <ele>-0.119</ele>
  <time>2026-09-02T22:07:20Z</time>
  <course>186.59</course>
  <speed>0.7213875518748573</speed>
  <fix>3d</fix>
</trkpt>
<trkpt lat="33.8102566" lon="-118.3939305">
  <ele>-0.1</ele>
  <time>2026-09-02T22:07:20Z</time>
  <course>223.26</course>
  <speed>0.73</speed>
  <fix>3d</fix>
</trkpt>
<trkpt lat="33.8102562" lon="-118.3939315">
  <ele>-0.119</ele>
  <time>2026-09-02T22:07:20Z</time>
  <course>186.59</course>
  <speed>0.7213875518748573</speed>
  <fix>3d</fix>
</trkpt>
<trkpt lat="33.8102561" lon="-118.3939316">
  <ele>-0.119</ele>
  <time>2026-09-02T22:07:20Z</time>
  <course>186.59</course>
  <speed>0.7213875518748573</speed>
  <fix>3d</fix>
</trkpt>
<trkpt lat="33.810256" lon="-118.3939316">
  <ele>-0.118</ele>
  <time>2026-09-02T22:07:20Z</time>
  <course>186.59</course>
  <speed>0.7213875518748573</speed>
  <fix>3d</fix>
</trkpt>
<trkpt lat="33.810256" lon="-118.3939317">
  <ele>-0.118</ele>
  <time>2026-09-02T22:07:20Z</time>
  <course>186.59</course>
  <speed>0.7213875518748573</speed>
  <fix>3d</fix>
</trkpt>
<trkpt lat="33.810256" lon="-118.3939317">
  <ele>-0.118</ele>
  <time>2026-09-02T22:07:20Z</time>
  <course>186.59</course>
  <speed>0.7213875518748573</speed>
  <fix>3d</fix>
</trkpt>
<trkpt lat="33.8102559" lon="-118.3939318">
  <ele>-0.118</ele>
  <time>2026-09-02T22:07:20Z</time>
  <course>186.59</course>
  <speed>0.7213875518748573</speed>
  <fix>3d</fix>
</trkpt>
<trkpt lat="33.8102559" lon="-118.3939318">
  <ele>-0.118</ele>
  <time>2026-09-02T22:07:20Z</time>
  <course>186.59</course>
  <speed>0.7213875518748573</speed>
  <fix>3d</fix>
</trkpt>
<trkpt lat="33.8102558" lon="-118.3939318">
  <ele>-0.118</ele>
  <time>2026-09-02T22:07:20Z</time>
  <course>186.59</course>
  <speed>0.7213875518748573</speed>
  <fix>3d</fix>
</trkpt>
<trkpt lat="33.8102558" lon="-118.3939319">
  <ele>-0.118</ele>
  <time>2026-09-02T22:07:20Z</time>
  <course>186.59</course>
  <speed>0.7213875518748573</speed>
  <fix>3d</fix>
</trkpt>
<trkpt lat="33.8102558" lon="-118.3939319">
  <ele>-0.118</ele>
  <time>2026-09-02T22:07:20Z</time>
  <course>186.59</course>
  <speed>0.7213875518748573</speed>
  <fix>3d</fix>
</trkpt>
<trkpt lat="33.8102557" lon="-118.393932">
  <ele>-0.118</ele>
  <time>2026-09-02T22:07:20Z</time>
  <course>186.59</course>
  <speed>0.7213875518748573</speed>
  <fix>3d</fix>
</trkpt>
<trkpt lat="33.8102557" lon="-118.393932">
  <ele>-0.118</ele>
  <time>2026-09-02T22:07:20Z</time>
  <course>186.59</course>
  <speed>0.7213875518748573</speed>
  <fix>3d</fix>
</trkpt>
<trkpt lat="33.8102557" lon="-118.393932">
  <ele>-0.118</ele>
  <time>2026-09-02T22:07:20Z</time>
  <course>186.59</course>
  <speed>0.7213875518748573</speed>
  <fix>3d</fix>
</trkpt>
<trkpt lat="33.8102566" lon="-118.3939305">
  <ele>-0.1</ele>
  <time>2026-09-02T22:07:20Z</time>
  <course>223.26</course>
  <speed>0.73</speed>
  <fix>3d</fix>
</trkpt>
<trkpt lat="33.8102556" lon="-118.3939321">
  <ele>-0.118</ele>
  <time>2026-09-02T22:07:20Z</time>
  <course>186.59</course>
  <speed>0.7213875518748573</speed>
  <fix>3d</fix>
</trkpt>
<trkpt lat="33.8102556" lon="-118.3939322">
  <ele>-0.118</ele>
  <time>2026-09-02T22:07:20Z</time>
  <course>186.59</course>
  <speed>0.7213875518748573</speed>
  <fix>3d</fix>
</trkpt>
<trkpt lat="33.8102555" lon="-118.3939322">
  <ele>-0.118</ele>
  <time>2026-09-02T22:07:20Z</time>
  <course>186.59</course>
  <speed>0.7213875518748573</speed>
  <fix>3d</fix>
</trkpt>
<trkpt lat="33.8102555" lon="-118.3939323">
  <ele>-0.118</ele>
  <time>2026-09-02T22:07:20Z</time>
  <course>186.59</course>
  <speed>0.7213875518748573</speed>
  <fix>3d</fix>
</trkpt>
<trkpt lat="33.8102554" lon="-118.3939323">
  <ele>-0.118</ele>
  <time>2026-09-02T22:07:20Z</time>
  <course>186.59</course>
  <speed>0.7213875518748573</speed>
  <fix>3d</fix>
</trkpt>
<trkpt lat="33.8102554" lon="-118.3939324">
  <ele>-0.118</ele>
  <time>2026-09-02T22:07:20Z</time>
  <course>186.59</course>
  <speed>0.7213875518748573</speed>
  <fix>3d</fix>
</trkpt>
<trkpt lat="33.8102554" lon="-118.3939324">
  <ele>-0.117</ele>
  <time>2026-09-02T22:07:20Z</time>
  <course>186.59</course>
  <speed>0.7213875518748573</speed>
  <fix>3d</fix>
</trkpt>
<trkpt lat="33.8102553" lon="-118.3939324">
  <ele>-0.117</ele>
  <time>2026-09-02T22:07:20Z</time>
  <course>186.59</course>
  <speed>0.7213875518748573</speed>
  <fix>3d</fix>
</trkpt>
<trkpt lat="33.8102553" lon="-118.3939325">
  <ele>-0.117</ele>
  <time>2026-09-02T22:07:20Z</time>
  <course>186.59</course>
  <speed>0.7213875518748573</speed>
  <fix>3d</fix>
</trkpt>
<trkpt lat="33.8102552" lon="-118.3939325">
  <ele>-0.117</ele>
  <time>2026-09-02T22:07:20Z</time>
  <course>186.59</course>
  <speed>0.7213875518748573</speed>
  <fix>3d</fix>
</trkpt>
<trkpt lat="33.8102552" lon="-118.3939326">
  <ele>-0.117</ele>
  <time>2026-09-02T22:07:20Z</time>
  <course>186.59</course>
  <speed>0.7213875518748573</speed>
  <fix>3d</fix>
</trkpt>
<trkpt lat="33.8102556" lon="-118.3939316">
  <ele>-0.11</ele>
  <time>2026-09-02T22:07:20Z</time>
  <course>223.26</course>
  <speed>0.73</speed>
  <fix>3d</fix>
</trkpt>
<trkpt lat="33.8102552" lon="-118.3939326">
  <ele>-0.117</ele>
  <time>2026-09-02T22:07:20Z</time>
  <course>186.59</course>
  <speed>0.7213875518748573</speed>
  <fix>3d</fix>
</trkpt>
<trkpt lat="33.8102551" lon="-118.3939327">
  <ele>-0.116</ele>
  <time>2026-09-02T22:07:20Z</time>
  <course>186.59</course>
  <speed>0.7213875518748573</speed>
  <fix>3d</fix>
</trkpt>
<trkpt lat="33.8102551" lon="-118.3939327">
  <ele>-0.116</ele>
  <time>2026-09-02T22:07:20Z</time>
  <course>186.59</course>
  <speed>0.7213875518748573</speed>
  <fix>3d</fix>
</trkpt>
<trkpt lat="33.810255" lon="-118.3939328">
  <ele>-0.116</ele>
  <time>2026-09-02T22:07:20Z</time>
  <course>186.59</course>
  <speed>0.7213875518748573</speed>
  <fix>3d</fix>
</trkpt>
<trkpt lat="33.810255" lon="-118.3939328">
  <ele>-0.116</ele>
  <time>2026-09-02T22:07:20Z</time>
  <course>186.59</course>
  <speed>0.7213875518748573</speed>
  <fix>3d</fix>
</trkpt>
<trkpt lat="33.8102549" lon="-118.3939329">
  <ele>-0.116</ele>
  <time>2026-09-02T22:07:20Z</time>
  <course>186.59</course>
  <speed>0.7213875518748573</speed>
  <fix>3d</fix>
</trkpt>
<trkpt lat="33.8102549" lon="-118.3939329">
  <ele>-0.115</ele>
  <time>2026-09-02T22:07:20Z</time>
  <course>186.59</course>
  <speed>0.7213875518748573</speed>
  <fix>3d</fix>
</trkpt>
<trkpt lat="33.8102549" lon="-118.393933">
  <ele>-0.115</ele>
  <time>2026-09-02T22:07:20Z</time>
  <course>186.58</course>
  <speed>0.7213875518748573</speed>
  <fix>3d</fix>
</trkpt>
<trkpt lat="33.8102548" lon="-118.393933">
  <ele>-0.115</ele>
  <time>2026-09-02T22:07:20Z</time>
  <course>186.58</course>
  <speed>0.7213875518748573</speed>
  <fix>3d</fix>
</trkpt>
<trkpt lat="33.8102548" lon="-118.393933">
  <ele>-0.115</ele>
  <time>2026-09-02T22:07:20Z</time>
  <course>186.58</course>
  <speed>0.7213875518748573</speed>
  <fix>3d</fix>
</trkpt>
<trkpt lat="33.8102548" lon="-118.3939331">
  <ele>-0.115</ele>
  <time>2026-09-02T22:07:20Z</time>
  <course>186.58</course>
  <speed>0.7213875518748573</speed>
  <fix>3d</fix>
</trkpt>
<trkpt lat="33.8102547" lon="-118.3939331">
  <ele>-0.115</ele>
  <time>2026-09-02T22:07:20Z</time>
  <course>186.58</course>
  <speed>0.7213875518748573</speed>
  <fix>3d</fix>
</trkpt>
<trkpt lat="33.8102547" lon="-118.3939331">
  <ele>-0.115</ele>
  <time>2026-09-02T22:07:20Z</time>
  <course>186.58</course>
  <speed>0.7213875518748573</speed>
  <fix>3d</fix>
</trkpt>
<trkpt lat="33.8102556" lon="-118.3939316">
  <ele>-0.11</ele>
  <time>2026-09-02T22:07:20Z</time>
  <course>223.26</course>
  <speed>0.73</speed>
  <fix>3d</fix>
</trkpt>
<trkpt lat="33.8102546" lon="-118.3939332">
  <ele>-0.114</ele>
  <time>2026-09-02T22:07:20Z</time>
  <course>186.58</course>
  <speed>0.7213875518748573</speed>
  <fix>3d</fix>
</trkpt>
<trkpt lat="33.8102546" lon="-118.3939333">
  <ele>-0.114</ele>
  <time>2026-09-02T22:07:20Z</time>
  <course>186.58</course>
  <speed>0.7213875518748573</speed>
  <fix>3d</fix>
</trkpt>
<trkpt lat="33.8102545" lon="-118.3939333">
  <ele>-0.114</ele>
  <time>2026-09-02T22:07:20Z</time>
  <course>186.58</course>
  <speed>0.7213875518748573</speed>
  <fix>3d</fix>
</trkpt>
<trkpt lat="33.8102545" lon="-118.3939334">
  <ele>-0.114</ele>
  <time>2026-09-02T22:07:20Z</time>
  <course>186.58</course>
  <speed>0.7213875518748573</speed>
  <fix>3d</fix>
</trkpt>
<trkpt lat="33.8102545" lon="-118.3939334">
  <ele>-0.114</ele>
  <time>2026-09-02T22:07:20Z</time>
  <course>186.58</course>
  <speed>0.7213875518748573</speed>
  <fix>3d</fix>
</trkpt>
<trkpt lat="33.8102544" lon="-118.3939335">
  <ele>-0.113</ele>
  <time>2026-09-02T22:07:20Z</time>
  <course>186.58</course>
  <speed>0.7213875518748573</speed>
  <fix>3d</fix>
</trkpt>
<trkpt lat="33.8102544" lon="-118.3939335">
  <ele>-0.113</ele>
  <time>2026-09-02T22:07:20Z</time>
  <course>186.58</course>
  <speed>0.7213875518748573</speed>
  <fix>3d</fix>
</trkpt>
<trkpt lat="33.8102544" lon="-118.3939335">
  <ele>-0.113</ele>
  <time>2026-09-02T22:07:20Z</time>
  <course>186.58</course>
  <speed>0.7213875518748573</speed>
  <fix>3d</fix>
</trkpt>
<trkpt lat="33.8102543" lon="-118.3939336">
  <ele>-0.113</ele>
  <time>2026-09-02T22:07:20Z</time>
  <course>186.58</course>
  <speed>0.7213875518748573</speed>
  <fix>3d</fix>
</trkpt>
<trkpt lat="33.8102543" lon="-118.3939336">
  <ele>-0.113</ele>
  <time>2026-09-02T22:07:20Z</time>
  <course>186.58</course>
  <speed>0.7213875518748573</speed>
  <fix>3d</fix>
</trkpt>
<trkpt lat="33.8102542" lon="-118.3939337">
  <ele>-0.112</ele>
  <time>2026-09-02T22:07:20Z</time>
  <course>186.58</course>
  <speed>0.7213875518748573</speed>
  <fix>3d</fix>
</trkpt>
<trkpt lat="33.8102542" lon="-118.3939337">
  <ele>-0.112</ele>
  <time>2026-09-02T22:07:20Z</time>
  <course>186.58</course>
  <speed>0.7213875518748573</speed>
  <fix>3d</fix>
</trkpt>
<trkpt lat="33.8102547" lon="-118.3939326">
  <ele>-0.1</ele>
  <time>2026-09-02T22:07:20Z</time>
  <course>223.26</course>
  <speed>0.73</speed>
  <fix>3d</fix>
</trkpt>
<trkpt lat="33.8102542" lon="-118.3939337">
  <ele>-0.112</ele>
  <time>2026-09-02T22:07:20Z</time>
  <course>186.58</course>
  <speed>0.7213875518748573</speed>
  <fix>3d</fix>
</trkpt>
<trkpt lat="33.8102541" lon="-118.3939338">
  <ele>-0.112</ele>
  <time>2026-09-02T22:07:20Z</time>
  <course>186.58</course>
  <speed>0.7213875518748573</speed>
  <fix>3d</fix>
</trkpt>
<trkpt lat="33.8102541" lon="-118.3939339">
  <ele>-0.112</ele>
  <time>2026-09-02T22:07:20Z</time>
  <course>186.58</course>
  <speed>0.7213875518748573</speed>
  <fix>3d</fix>
</trkpt>
<trkpt lat="33.810254" lon="-118.3939339">
  <ele>-0.112</ele>
  <time>2026-09-02T22:07:20Z</time>
  <course>186.58</course>
  <speed>0.7213875518748573</speed>
  <fix>3d</fix>
</trkpt>
<trkpt lat="33.810254" lon="-118.3939339">
  <ele>-0.112</ele>
  <time>2026-09-02T22:07:20Z</time>
  <course>186.58</course>
  <speed>0.7213875518748573</speed>
  <fix>3d</fix>
</trkpt>
<trkpt lat="33.810254" lon="-118.393934">
  <ele>-0.112</ele>
  <time>2026-09-02T22:07:20Z</time>
  <course>186.58</course>
  <speed>0.7213875518748573</speed>
  <fix>3d</fix>
</trkpt>
<trkpt lat="33.8102539" lon="-118.393934">
  <ele>-0.111</ele>
  <time>2026-09-02T22:07:20Z</time>
  <course>186.58</course>
  <speed>0.7213875518748573</speed>
  <fix>3d</fix>
</trkpt>
<trkpt lat="33.8102539" lon="-118.3939341">
  <ele>-0.111</ele>
  <time>2026-09-02T22:07:20Z</time>
  <course>186.58</course>
  <speed>0.7213875518748573</speed>
  <fix>3d</fix>
</trkpt>
<trkpt lat="33.8102538" lon="-118.3939341">
  <ele>-0.111</ele>
  <time>2026-09-02T22:07:20Z</time>
  <course>186.58</course>
  <speed>0.7213875518748573</speed>
  <fix>3d</fix>
</trkpt>
<trkpt lat="33.8102538" lon="-118.3939342">
  <ele>-0.111</ele>
  <time>2026-09-02T22:07:20Z</time>
  <course>186.58</course>
  <speed>0.7213875518748573</speed>
  <fix>3d</fix>
</trkpt>
<trkpt lat="33.8102538" lon="-118.3939342">
  <ele>-0.111</ele>
  <time>2026-09-02T22:07:20Z</time>
  <course>186.58</course>
  <speed>0.7213875518748573</speed>
  <fix>3d</fix>
</trkpt>
<trkpt lat="33.8102538" lon="-118.3939342">
  <ele>-0.111</ele>
  <time>2026-09-02T22:07:20Z</time>
  <course>186.58</course>
  <speed>0.7213875518748573</speed>
  <fix>3d</fix>
</trkpt>
<trkpt lat="33.8102547" lon="-118.3939326">
  <ele>-0.1</ele>
  <time>2026-09-02T22:07:20Z</time>
  <course>223.26</course>
  <speed>0.73</speed>
  <fix>3d</fix>
</trkpt>
<trkpt lat="33.8102537" lon="-118.3939343">
  <ele>-0.111</ele>
  <time>2026-09-02T22:07:20Z</time>
  <course>186.58</course>
  <speed>0.7213875518748573</speed>
  <fix>3d</fix>
</trkpt>
<trkpt lat="33.8102536" lon="-118.3939343">
  <ele>-0.111</ele>
  <time>2026-09-02T22:07:20Z</time>
  <course>186.58</course>
  <speed>0.7213875518748573</speed>
  <fix>3d</fix>
</trkpt>
<trkpt lat="33.8102536" lon="-118.3939344">
  <ele>-0.111</ele>
  <time>2026-09-02T22:07:20Z</time>
  <course>186.58</course>
  <speed>0.7213875518748573</speed>
  <fix>3d</fix>
</trkpt>
<trkpt lat="33.8102535" lon="-118.3939345">
  <ele>-0.111</ele>
  <time>2026-09-02T22:07:20Z</time>
  <course>186.58</course>
  <speed>0.7213875518748573</speed>
  <fix>3d</fix>
</trkpt>
<trkpt lat="33.8102535" lon="-118.3939345">
  <ele>-0.111</ele>
  <time>2026-09-02T22:07:20Z</time>
  <course>186.58</course>
  <speed>0.7213875518748573</speed>
  <fix>3d</fix>
</trkpt>
<trkpt lat="33.8102535" lon="-118.3939345">
  <ele>-0.111</ele>
  <time>2026-09-02T22:07:20Z</time>
  <course>186.58</course>
  <speed>0.7213875518748573</speed>
  <fix>3d</fix>
</trkpt>
<trkpt lat="33.8102534" lon="-118.3939346">
  <ele>-0.111</ele>
  <time>2026-09-02T22:07:20Z</time>
  <course>186.58</course>
  <speed>0.7213875518748573</speed>
  <fix>3d</fix>
</trkpt>
<trkpt lat="33.8102534" lon="-118.3939346">
  <ele>-0.111</ele>
  <time>2026-09-02T22:07:20Z</time>
  <course>186.57</course>
  <speed>0.7213875518748573</speed>
  <fix>3d</fix>
</trkpt>
<trkpt lat="33.8102533" lon="-118.3939347">
  <ele>-0.111</ele>
  <time>2026-09-02T22:07:20Z</time>
  <course>186.57</course>
  <speed>0.7213875518748573</speed>
  <fix>3d</fix>
</trkpt>
<trkpt lat="33.8102533" lon="-118.3939347">
  <ele>-0.112</ele>
  <time>2026-09-02T22:07:20Z</time>
  <course>186.57</course>
  <speed>0.7213875518748573</speed>
  <fix>3d</fix>
</trkpt>
<trkpt lat="33.8102533" lon="-118.3939348">
  <ele>-0.111</ele>
  <time>2026-09-02T22:07:20Z</time>
  <course>186.57</course>
  <speed>0.7213875518748573</speed>
  <fix>3d</fix>
</trkpt>
<trkpt lat="33.8102536" lon="-118.3939337">
  <ele>-0.1</ele>
  <time>2026-09-02T22:07:20Z</time>
  <course>223.26</course>
  <speed>0.73</speed>
  <fix>3d</fix>
</trkpt>
<trkpt lat="33.8102533" lon="-118.3939348">
  <ele>-0.112</ele>
  <time>2026-09-02T22:07:20Z</time>
  <course>186.57</course>
  <speed>0.7213875518748573</speed>
  <fix>3d</fix>
</trkpt>
<trkpt lat="33.8102532" lon="-118.3939348">
  <ele>-0.112</ele>
  <time>2026-09-02T22:07:20Z</time>
  <course>186.57</course>
  <speed>0.7213875518748573</speed>
  <fix>3d</fix>
</trkpt>
<trkpt lat="33.8102532" lon="-118.3939349">
  <ele>-0.112</ele>
  <time>2026-09-02T22:07:20Z</time>
  <course>186.57</course>
  <speed>0.7213875518748573</speed>
  <fix>3d</fix>
</trkpt>
<trkpt lat="33.8102531" lon="-118.3939349">
  <ele>-0.112</ele>
  <time>2026-09-02T22:07:20Z</time>
  <course>186.57</course>
  <speed>0.7213875518748573</speed>
  <fix>3d</fix>
</trkpt>
<trkpt lat="33.8102531" lon="-118.393935">
  <ele>-0.112</ele>
  <time>2026-09-02T22:07:20Z</time>
  <course>186.57</course>
  <speed>0.7213875518748573</speed>
  <fix>3d</fix>
</trkpt>
<trkpt lat="33.810253" lon="-118.393935">
  <ele>-0.112</ele>
  <time>2026-09-02T22:07:20Z</time>
  <course>186.57</course>
  <speed>0.7213875518748573</speed>
  <fix>3d</fix>
</trkpt>
<trkpt lat="33.810253" lon="-118.3939351">
  <ele>-0.112</ele>
  <time>2026-09-02T22:07:20Z</time>
  <course>186.57</course>
  <speed>0.7213875518748573</speed>
  <fix>3d</fix>
</trkpt>
<trkpt lat="33.810253" lon="-118.3939351">
  <ele>-0.112</ele>
  <time>2026-09-02T22:07:20Z</time>
  <course>186.57</course>
  <speed>0.7213875518748573</speed>
  <fix>3d</fix>
</trkpt>
<trkpt lat="33.8102529" lon="-118.3939351">
  <ele>-0.112</ele>
  <time>2026-09-02T22:07:20Z</time>
  <course>186.57</course>
  <speed>0.7213875518748573</speed>
  <fix>3d</fix>
</trkpt>
<trkpt lat="33.8102529" lon="-118.3939352">
  <ele>-0.112</ele>
  <time>2026-09-02T22:07:20Z</time>
  <course>186.57</course>
  <speed>0.7213875518748573</speed>
  <fix>3d</fix>
</trkpt>
<trkpt lat="33.8102529" lon="-118.3939352">
  <ele>-0.112</ele>
  <time>2026-09-02T22:07:20Z</time>
  <course>186.57</course>
  <speed>0.7213875518748573</speed>
  <fix>3d</fix>
</trkpt>
<trkpt lat="33.8102528" lon="-118.3939353">
  <ele>-0.112</ele>
  <time>2026-09-02T22:07:20Z</time>
  <course>186.57</course>
  <speed>0.7213875518748573</speed>
  <fix>3d</fix>
</trkpt>
<trkpt lat="33.8102528" lon="-118.3939353">
  <ele>-0.112</ele>
  <time>2026-09-02T22:07:20Z</time>
  <course>186.57</course>
  <speed>0.7213875518748573</speed>
  <fix>3d</fix>
</trkpt>
<trkpt lat="33.8102528" lon="-118.3939353">
  <ele>-0.112</ele>
  <time>2026-09-02T22:07:20Z</time>
  <course>186.57</course>
  <speed>0.7213875518748573</speed>
  <fix>3d</fix>
</trkpt>
<trkpt lat="33.8102536" lon="-118.3939337">
  <ele>-0.1</ele>
  <time>2026-09-02T22:07:20Z</time>
  <course>223.26</course>
  <speed>0.73</speed>
  <fix>3d</fix>
</trkpt>
<trkpt lat="33.8102527" lon="-118.3939354">
  <ele>-0.112</ele>
  <time>2026-09-02T22:07:20Z</time>
  <course>186.57</course>
  <speed>0.7213875518748573</speed>
  <fix>3d</fix>
</trkpt>
<trkpt lat="33.8102527" lon="-118.3939354">
  <ele>-0.112</ele>
  <time>2026-09-02T22:07:20Z</time>
  <course>186.57</course>
  <speed>0.7213875518748573</speed>
  <fix>3d</fix>
</trkpt>
<trkpt lat="33.8102526" lon="-118.3939355">
  <ele>-0.112</ele>
  <time>2026-09-02T22:07:20Z</time>
  <course>186.57</course>
  <speed>0.7213875518748573</speed>
  <fix>3d</fix>
</trkpt>
<trkpt lat="33.8102526" lon="-118.3939355">
  <ele>-0.112</ele>
  <time>2026-09-02T22:07:20Z</time>
  <course>186.57</course>
  <speed>0.7213875518748573</speed>
  <fix>3d</fix>
</trkpt>
<trkpt lat="33.8102526" lon="-118.3939356">
  <ele>-0.112</ele>
  <time>2026-09-02T22:07:20Z</time>
  <course>186.57</course>
  <speed>0.7213875518748573</speed>
  <fix>3d</fix>
</trkpt>
<trkpt lat="33.8102525" lon="-118.3939356">
  <ele>-0.112</ele>
  <time>2026-09-02T22:07:20Z</time>
  <course>186.57</course>
  <speed>0.7213875518748573</speed>
  <fix>3d</fix>
</trkpt>
<trkpt lat="33.8102525" lon="-118.3939357">
  <ele>-0.112</ele>
  <time>2026-09-02T22:07:20Z</time>
  <course>186.57</course>
  <speed>0.7213875518748573</speed>
  <fix>3d</fix>
</trkpt>
<trkpt lat="33.8102524" lon="-118.3939357">
  <ele>-0.112</ele>
  <time>2026-09-02T22:07:20Z</time>
  <course>186.57</course>
  <speed>0.7213875518748573</speed>
  <fix>3d</fix>
</trkpt>
<trkpt lat="33.8102524" lon="-118.3939358">
  <ele>-0.112</ele>
  <time>2026-09-02T22:07:20Z</time>
  <course>186.57</course>
  <speed>0.7213875518748573</speed>
  <fix>3d</fix>
</trkpt>
<trkpt lat="33.8102523" lon="-118.3939358">
  <ele>-0.112</ele>
  <time>2026-09-02T22:07:20Z</time>
  <course>186.57</course>
  <speed>0.7213875518748573</speed>
  <fix>3d</fix>
</trkpt>
<trkpt lat="33.8102523" lon="-118.3939358">
  <ele>-0.112</ele>
  <time>2026-09-02T22:07:20Z</time>
  <course>186.57</course>
  <speed>0.7213875518748573</speed>
  <fix>3d</fix>
</trkpt>
<trkpt lat="33.8102527" lon="-118.3939348">
  <ele>-0.1</ele>
  <time>2026-09-02T22:07:20Z</time>
  <course>223.26</course>
  <speed>0.73</speed>
  <fix>3d</fix>
</trkpt>
<trkpt lat="33.8102523" lon="-118.3939359">
  <ele>-0.112</ele>
  <time>2026-09-02T22:07:20Z</time>
  <course>186.57</course>
  <speed>0.7213875518748573</speed>
  <fix>3d</fix>
</trkpt>
<trkpt lat="33.8102522" lon="-118.3939359">
  <ele>-0.112</ele>
  <time>2026-09-02T22:07:20Z</time>
  <course>186.57</course>
  <speed>0.7213875518748573</speed>
  <fix>3d</fix>
</trkpt>
<trkpt lat="33.8102522" lon="-118.393936">
  <ele>-0.112</ele>
  <time>2026-09-02T22:07:20Z</time>
  <course>186.57</course>
  <speed>0.7213875518748573</speed>
  <fix>3d</fix>
</trkpt>
<trkpt lat="33.8102521" lon="-118.393936">
  <ele>-0.112</ele>
  <time>2026-09-02T22:07:20Z</time>
  <course>186.57</course>
  <speed>0.7213875518748573</speed>
  <fix>3d</fix>
</trkpt>
<trkpt lat="33.8102521" lon="-118.3939361">
  <ele>-0.112</ele>
  <time>2026-09-02T22:07:20Z</time>
  <course>186.57</course>
  <speed>0.7213875518748573</speed>
  <fix>3d</fix>
</trkpt>
<trkpt lat="33.8102521" lon="-118.3939361">
  <ele>-0.112</ele>
  <time>2026-09-02T22:07:20Z</time>
  <course>186.57</course>
  <speed>0.7213875518748573</speed>
  <fix>3d</fix>
</trkpt>
<trkpt lat="33.810252" lon="-118.3939362">
  <ele>-0.113</ele>
  <time>2026-09-02T22:07:20Z</time>
  <course>186.57</course>
  <speed>0.7213875518748573</speed>
  <fix>3d</fix>
</trkpt>
<trkpt lat="33.810252" lon="-118.3939362">
  <ele>-0.113</ele>
  <time>2026-09-02T22:07:20Z</time>
  <course>186.57</course>
  <speed>0.7213875518748573</speed>
  <fix>3d</fix>
</trkpt>
<trkpt lat="33.8102519" lon="-118.3939362">
  <ele>-0.113</ele>
  <time>2026-09-02T22:07:20Z</time>
  <course>186.56</course>
  <speed>0.7213875518748573</speed>
  <fix>3d</fix>
</trkpt>
<trkpt lat="33.8102519" lon="-118.3939363">
  <ele>-0.113</ele>
  <time>2026-09-02T22:07:20Z</time>
  <course>186.56</course>
  <speed>0.7213875518748573</speed>
  <fix>3d</fix>
</trkpt>
<trkpt lat="33.8102518" lon="-118.3939364">
  <ele>-0.113</ele>
  <time>2026-09-02T22:07:20Z</time>
  <course>186.56</course>
  <speed>0.7213875518748573</speed>
  <fix>3d</fix>
</trkpt>
<trkpt lat="33.8102518" lon="-118.3939364">
  <ele>-0.113</ele>
  <time>2026-09-02T22:07:20Z</time>
  <course>186.56</course>
  <speed>0.7213875518748573</speed>
  <fix>3d</fix>
</trkpt>
<trkpt lat="33.8102527" lon="-118.3939348">
  <ele>-0.1</ele>
  <time>2026-09-02T22:07:20Z</time>
  <course>223.26</course>
  <speed>0.73</speed>
  <fix>3d</fix>
</trkpt>
<trkpt lat="33.8102518" lon="-118.3939364">
  <ele>-0.113</ele>
  <time>2026-09-02T22:07:20Z</time>
  <course>186.56</course>
  <speed>0.7213875518748573</speed>
  <fix>3d</fix>
</trkpt>
<trkpt lat="33.8102518" lon="-118.3939365">
  <ele>-0.113</ele>
  <time>2026-09-02T22:07:20Z</time>
  <course>186.56</course>
  <speed>0.7213875518748573</speed>
  <fix>3d</fix>
</trkpt>
<trkpt lat="33.8102517" lon="-118.3939365">
  <ele>-0.113</ele>
  <time>2026-09-02T22:07:20Z</time>
  <course>186.56</course>
  <speed>0.7213875518748573</speed>
  <fix>3d</fix>
</trkpt>
<trkpt lat="33.8102517" lon="-118.3939366">
  <ele>-0.113</ele>
  <time>2026-09-02T22:07:20Z</time>
  <course>186.56</course>
  <speed>0.7213875518748573</speed>
  <fix>3d</fix>
</trkpt>
<trkpt lat="33.8102516" lon="-118.3939366">
  <ele>-0.113</ele>
  <time>2026-09-02T22:07:20Z</time>
  <course>186.56</course>
  <speed>0.7213875518748573</speed>
  <fix>3d</fix>
</trkpt>
<trkpt lat="33.8102516" lon="-118.3939366">
  <ele>-0.112</ele>
  <time>2026-09-02T22:07:20Z</time>
  <course>186.56</course>
  <speed>0.7213875518748573</speed>
  <fix>3d</fix>
</trkpt>
<trkpt lat="33.8102516" lon="-118.3939367">
  <ele>-0.112</ele>
  <time>2026-09-02T22:07:20Z</time>
  <course>186.56</course>
  <speed>0.7213875518748573</speed>
  <fix>3d</fix>
</trkpt>
<trkpt lat="33.8102515" lon="-118.3939367">
  <ele>-0.112</ele>
  <time>2026-09-02T22:07:20Z</time>
  <course>186.56</course>
  <speed>0.7213875518748573</speed>
  <fix>3d</fix>
</trkpt>
<trkpt lat="33.8102515" lon="-118.3939368">
  <ele>-0.112</ele>
  <time>2026-09-02T22:07:20Z</time>
  <course>186.56</course>
  <speed>0.7213875518748573</speed>
  <fix>3d</fix>
</trkpt>
<trkpt lat="33.8102514" lon="-118.3939368">
  <ele>-0.112</ele>
  <time>2026-09-02T22:07:20Z</time>
  <course>186.56</course>
  <speed>0.7213875518748573</speed>
  <fix>3d</fix>
</trkpt>
<trkpt lat="33.8102514" lon="-118.3939368">
  <ele>-0.112</ele>
  <time>2026-09-02T22:07:20Z</time>
  <course>186.56</course>
  <speed>0.7213875518748573</speed>
  <fix>3d</fix>
</trkpt>
<trkpt lat="33.8102514" lon="-118.3939369">
  <ele>-0.112</ele>
  <time>2026-09-02T22:07:20Z</time>
  <course>186.56</course>
  <speed>0.7213875518748573</speed>
  <fix>3d</fix>
</trkpt>
<trkpt lat="33.8102513" lon="-118.3939369">
  <ele>-0.112</ele>
  <time>2026-09-02T22:07:20Z</time>
  <course>186.56</course>
  <speed>0.7213875518748573</speed>
  <fix>3d</fix>
</trkpt>
<trkpt lat="33.8102513" lon="-118.3939369">
  <ele>-0.112</ele>
  <time>2026-09-02T22:07:20Z</time>
  <course>186.56</course>
  <speed>0.7213875518748573</speed>
  <fix>3d</fix>
</trkpt>
<trkpt lat="33.8102518" lon="-118.3939359">
  <ele>-0.1</ele>
  <time>2026-09-02T22:07:20Z</time>
  <course>223.26</course>
  <speed>0.73</speed>
  <fix>3d</fix>
</trkpt>
<trkpt lat="33.8102513" lon="-118.393937">
  <ele>-0.112</ele>
  <time>2026-09-02T22:07:20Z</time>
  <course>186.56</course>
  <speed>0.7213875518748573</speed>
  <fix>3d</fix>
</trkpt>
<trkpt lat="33.8102512" lon="-118.3939371">
  <ele>-0.112</ele>
  <time>2026-09-02T22:07:20Z</time>
  <course>186.56</course>
  <speed>0.7213875518748573</speed>
  <fix>3d</fix>
</trkpt>
<trkpt lat="33.8102512" lon="-118.3939371">
  <ele>-0.112</ele>
  <time>2026-09-02T22:07:20Z</time>
  <course>186.56</course>
  <speed>0.7213875518748573</speed>
  <fix>3d</fix>
</trkpt>
<trkpt lat="33.8102511" lon="-118.3939371">
  <ele>-0.111</ele>
  <time>2026-09-02T22:07:20Z</time>
  <course>186.56</course>
  <speed>0.7213875518748573</speed>
  <fix>3d</fix>
</trkpt>
<trkpt lat="33.8102511" lon="-118.3939372">
  <ele>-0.111</ele>
  <time>2026-09-02T22:07:20Z</time>
  <course>186.56</course>
  <speed>0.7213875518748573</speed>
  <fix>3d</fix>
</trkpt>
<trkpt lat="33.8102511" lon="-118.3939372">
  <ele>-0.111</ele>
  <time>2026-09-02T22:07:20Z</time>
  <course>186.56</course>
  <speed>0.7213875518748573</speed>
  <fix>3d</fix>
</trkpt>
<trkpt lat="33.810251" lon="-118.3939373">
  <ele>-0.111</ele>
  <time>2026-09-02T22:07:20Z</time>
  <course>186.56</course>
  <speed>0.7213875518748573</speed>
  <fix>3d</fix>
</trkpt>
<trkpt lat="33.810251" lon="-118.3939373">
  <ele>-0.111</ele>
  <time>2026-09-02T22:07:20Z</time>
  <course>186.56</course>
  <speed>0.7213875518748573</speed>
  <fix>3d</fix>
</trkpt>
<trkpt lat="33.810251" lon="-118.3939373">
  <ele>-0.111</ele>
  <time>2026-09-02T22:07:20Z</time>
  <course>186.56</course>
  <speed>0.7213875518748573</speed>
  <fix>3d</fix>
</trkpt>
<trkpt lat="33.8102509" lon="-118.3939374">
  <ele>-0.111</ele>
  <time>2026-09-02T22:07:20Z</time>
  <course>186.56</course>
  <speed>0.7213875518748573</speed>
  <fix>3d</fix>
</trkpt>
<trkpt lat="33.8102509" lon="-118.3939374">
  <ele>-0.111</ele>
  <time>2026-09-02T22:07:20Z</time>
  <course>186.56</course>
  <speed>0.7213875518748573</speed>
  <fix>3d</fix>
</trkpt>
<trkpt lat="33.8102509" lon="-118.3939375">
  <ele>-0.11</ele>
  <time>2026-09-02T22:07:20Z</time>
  <course>186.56</course>
  <speed>0.7213875518748573</speed>
  <fix>3d</fix>
</trkpt>
<trkpt lat="33.8102509" lon="-118.3939375">
  <ele>-0.11</ele>
  <time>2026-09-02T22:07:20Z</time>
  <course>186.56</course>
  <speed>0.7213875518748573</speed>
  <fix>3d</fix>
</trkpt>
<trkpt lat="33.8102518" lon="-118.3939359">
  <ele>-0.1</ele>
  <time>2026-09-02T22:07:20Z</time>
  <course>223.26</course>
  <speed>0.73</speed>
  <fix>3d</fix>
</trkpt>
<trkpt lat="33.8102508" lon="-118.3939375">
  <ele>-0.11</ele>
  <time>2026-09-02T22:07:20Z</time>
  <course>186.56</course>
  <speed>0.7213875518748573</speed>
  <fix>3d</fix>
</trkpt>
<trkpt lat="33.8102507" lon="-118.3939376">
  <ele>-0.11</ele>
  <time>2026-09-02T22:07:20Z</time>
  <course>186.56</course>
  <speed>0.7213875518748573</speed>
  <fix>3d</fix>
</trkpt>
<trkpt lat="33.8102507" lon="-118.3939376">
  <ele>-0.11</ele>
  <time>2026-09-02T22:07:20Z</time>
  <course>186.56</course>
  <speed>0.7213875518748573</speed>
  <fix>3d</fix>
</trkpt>
<trkpt lat="33.8102507" lon="-118.3939377">
  <ele>-0.11</ele>
  <time>2026-09-02T22:07:20Z</time>
  <course>186.56</course>
  <speed>0.7213875518748573</speed>
  <fix>3d</fix>
</trkpt>
<trkpt lat="33.8102506" lon="-118.3939377">
  <ele>-0.11</ele>
  <time>2026-09-02T22:07:20Z</time>
  <course>186.56</course>
  <speed>0.7213875518748573</speed>
  <fix>3d</fix>
</trkpt>
<trkpt lat="33.8102506" lon="-118.3939378">
  <ele>-0.11</ele>
  <time>2026-09-02T22:07:20Z</time>
  <course>186.56</course>
  <speed>0.7213875518748573</speed>
  <fix>3d</fix>
</trkpt>
<trkpt lat="33.8102506" lon="-118.3939378">
  <ele>-0.109</ele>
  <time>2026-09-02T22:07:20Z</time>
  <course>186.56</course>
  <speed>0.7213875518748573</speed>
  <fix>3d</fix>
</trkpt>
<trkpt lat="33.8102505" lon="-118.3939378">
  <ele>-0.109</ele>
  <time>2026-09-02T22:07:20Z</time>
  <course>186.56</course>
  <speed>0.7213875518748573</speed>
  <fix>3d</fix>
</trkpt>
<trkpt lat="33.8102505" lon="-118.3939379">
  <ele>-0.109</ele>
  <time>2026-09-02T22:07:20Z</time>
  <course>186.56</course>
  <speed>0.7213875518748573</speed>
  <fix>3d</fix>
</trkpt>
<trkpt lat="33.8102505" lon="-118.3939379">
  <ele>-0.109</ele>
  <time>2026-09-02T22:07:20Z</time>
  <course>186.56</course>
  <speed>0.7213875518748573</speed>
  <fix>3d</fix>
</trkpt>
<trkpt lat="33.8102504" lon="-118.393938">
  <ele>-0.109</ele>
  <time>2026-09-02T22:07:20Z</time>
  <course>186.55</course>
  <speed>0.7213875518748573</speed>
  <fix>3d</fix>
</trkpt>
<trkpt lat="33.8102504" lon="-118.393938">
  <ele>-0.109</ele>
  <time>2026-09-02T22:07:20Z</time>
  <course>186.55</course>
  <speed>0.7213875518748573</speed>
  <fix>3d</fix>
</trkpt>
<trkpt lat="33.8102504" lon="-118.393938">
  <ele>-0.109</ele>
  <time>2026-09-02T22:07:20Z</time>
  <course>186.55</course>
  <speed>0.7213875518748573</speed>
  <fix>3d</fix>
</trkpt>
<trkpt lat="33.8102508" lon="-118.393937">
  <ele>-0.11</ele>
  <time>2026-09-02T22:07:20Z</time>
  <course>223.26</course>
  <speed>0.73</speed>
  <fix>3d</fix>
</trkpt>
<trkpt lat="33.8102503" lon="-118.3939381">
  <ele>-0.109</ele>
  <time>2026-09-02T22:07:20Z</time>
  <course>186.55</course>
  <speed>0.7213875518748573</speed>
  <fix>3d</fix>
</trkpt>
<trkpt lat="33.8102503" lon="-118.3939381">
  <ele>-0.109</ele>
  <time>2026-09-02T22:07:20Z</time>
  <course>186.55</course>
  <speed>0.7213875518748573</speed>
  <fix>3d</fix>
</trkpt>
<trkpt lat="33.8102502" lon="-118.3939382">
  <ele>-0.108</ele>
  <time>2026-09-02T22:07:20Z</time>
  <course>186.55</course>
  <speed>0.7213875518748573</speed>
  <fix>3d</fix>
</trkpt>
<trkpt lat="33.8102502" lon="-118.3939382">
  <ele>-0.108</ele>
  <time>2026-09-02T22:07:20Z</time>
  <course>186.55</course>
  <speed>0.7213875518748573</speed>
  <fix>3d</fix>
</trkpt>
<trkpt lat="33.8102502" lon="-118.3939382">
  <ele>-0.108</ele>
  <time>2026-09-02T22:07:20Z</time>
  <course>186.55</course>
  <speed>0.7213875518748573</speed>
  <fix>3d</fix>
</trkpt>
<trkpt lat="33.8102501" lon="-118.3939383">
  <ele>-0.108</ele>
  <time>2026-09-02T22:07:20Z</time>
  <course>186.55</course>
  <speed>0.7213875518748573</speed>
  <fix>3d</fix>
</trkpt>
<trkpt lat="33.8102501" lon="-118.3939383">
  <ele>-0.108</ele>
  <time>2026-09-02T22:07:20Z</time>
  <course>186.55</course>
  <speed>0.7213875518748573</speed>
  <fix>3d</fix>
</trkpt>
<trkpt lat="33.8102501" lon="-118.3939384">
  <ele>-0.108</ele>
  <time>2026-09-02T22:07:20Z</time>
  <course>186.55</course>
  <speed>0.7213875518748573</speed>
  <fix>3d</fix>
</trkpt>
<trkpt lat="33.81025" lon="-118.3939384">
  <ele>-0.108</ele>
  <time>2026-09-02T22:07:20Z</time>
  <course>186.55</course>
  <speed>0.7213875518748573</speed>
  <fix>3d</fix>
</trkpt>
<trkpt lat="33.81025" lon="-118.3939385">
  <ele>-0.108</ele>
  <time>2026-09-02T22:07:20Z</time>
  <course>186.55</course>
  <speed>0.7213875518748573</speed>
  <fix>3d</fix>
</trkpt>
<trkpt lat="33.8102499" lon="-118.3939385">
  <ele>-0.108</ele>
  <time>2026-09-02T22:07:20Z</time>
  <course>186.55</course>
  <speed>0.7213875518748573</speed>
  <fix>3d</fix>
</trkpt>
<trkpt lat="33.8102499" lon="-118.3939385">
  <ele>-0.108</ele>
  <time>2026-09-02T22:07:20Z</time>
  <course>186.55</course>
  <speed>0.7213875518748573</speed>
  <fix>3d</fix>
</trkpt>
<trkpt lat="33.8102499" lon="-118.3939386">
  <ele>-0.108</ele>
  <time>2026-09-02T22:07:20Z</time>
  <course>186.55</course>
  <speed>0.7213875518748573</speed>
  <fix>3d</fix>
</trkpt>
<trkpt lat="33.8102508" lon="-118.393937">
  <ele>-0.11</ele>
  <time>2026-09-02T22:07:20Z</time>
  <course>223.26</course>
  <speed>0.73</speed>
  <fix>3d</fix>
</trkpt>
<trkpt lat="33.8102499" lon="-118.3939386">
  <ele>-0.108</ele>
  <time>2026-09-02T22:07:20Z</time>
  <course>186.55</course>
  <speed>0.7213875518748573</speed>
  <fix>3d</fix>
</trkpt>
<trkpt lat="33.8102498" lon="-118.3939386">
  <ele>-0.108</ele>
  <time>2026-09-02T22:07:20Z</time>
  <course>186.55</course>
  <speed>0.7213875518748573</speed>
  <fix>3d</fix>
</trkpt>
<trkpt lat="33.8102498" lon="-118.3939387">
  <ele>-0.108</ele>
  <time>2026-09-02T22:07:20Z</time>
  <course>186.55</course>
  <speed>0.7213875518748573</speed>
  <fix>3d</fix>
</trkpt>
<trkpt lat="33.8102497" lon="-118.3939387">
  <ele>-0.108</ele>
  <time>2026-09-02T22:07:20Z</time>
  <course>186.55</course>
  <speed>0.7213875518748573</speed>
  <fix>3d</fix>
</trkpt>
<trkpt lat="33.8102497" lon="-118.3939388">
  <ele>-0.108</ele>
  <time>2026-09-02T22:07:20Z</time>
  <course>186.55</course>
  <speed>0.7213875518748573</speed>
  <fix>3d</fix>
</trkpt>
<trkpt lat="33.8102497" lon="-118.3939388">
  <ele>-0.108</ele>
  <time>2026-09-02T22:07:20Z</time>
  <course>186.55</course>
  <speed>0.7213875518748573</speed>
  <fix>3d</fix>
</trkpt>
<trkpt lat="33.8102496" lon="-118.3939389">
  <ele>-0.108</ele>
  <time>2026-09-02T22:07:20Z</time>
  <course>186.55</course>
  <speed>0.7213875518748573</speed>
  <fix>3d</fix>
</trkpt>
<trkpt lat="33.8102496" lon="-118.3939389">
  <ele>-0.108</ele>
  <time>2026-09-02T22:07:20Z</time>
  <course>186.55</course>
  <speed>0.7213875518748573</speed>
  <fix>3d</fix>
</trkpt>
<trkpt lat="33.8102495" lon="-118.393939">
  <ele>-0.108</ele>
  <time>2026-09-02T22:07:20Z</time>
  <course>186.55</course>
  <speed>0.7213875518748573</speed>
  <fix>3d</fix>
</trkpt>
<trkpt lat="33.8102495" lon="-118.393939">
  <ele>-0.108</ele>
  <time>2026-09-02T22:07:20Z</time>
  <course>186.55</course>
  <speed>0.7213875518748573</speed>
  <fix>3d</fix>
</trkpt>
<trkpt lat="33.8102495" lon="-118.393939">
  <ele>-0.108</ele>
  <time>2026-09-02T22:07:20Z</time>
  <course>186.55</course>
  <speed>0.7213875518748573</speed>
  <fix>3d</fix>
</trkpt>
<trkpt lat="33.8102494" lon="-118.3939391">
  <ele>-0.108</ele>
  <time>2026-09-02T22:07:20Z</time>
  <course>186.55</course>
  <speed>0.7213875518748573</speed>
  <fix>3d</fix>
</trkpt>
<trkpt lat="33.8102494" lon="-118.3939391">
  <ele>-0.108</ele>
  <time>2026-09-02T22:07:20Z</time>
  <course>186.55</course>
  <speed>0.7213875518748573</speed>
  <fix>3d</fix>
</trkpt>
<trkpt lat="33.8102499" lon="-118.3939381">
  <ele>-0.1</ele>
  <time>2026-09-02T22:07:20Z</time>
  <course>223.26</course>
  <speed>0.73</speed>
  <fix>3d</fix>
</trkpt>
<trkpt lat="33.8102494" lon="-118.3939391">
  <ele>-0.108</ele>
  <time>2026-09-02T22:07:20Z</time>
  <course>186.55</course>
  <speed>0.7213875518748573</speed>
  <fix>3d</fix>
</trkpt>
<trkpt lat="33.8102493" lon="-118.3939392">
  <ele>-0.108</ele>
  <time>2026-09-02T22:07:20Z</time>
  <course>186.55</course>
  <speed>0.7213875518748573</speed>
  <fix>3d</fix>
</trkpt>
<trkpt lat="33.8102493" lon="-118.3939392">
  <ele>-0.108</ele>
  <time>2026-09-02T22:07:20Z</time>
  <course>186.55</course>
  <speed>0.7213875518748573</speed>
  <fix>3d</fix>
</trkpt>
<trkpt lat="33.8102493" lon="-118.3939393">
  <ele>-0.108</ele>
  <time>2026-09-02T22:07:20Z</time>
  <course>186.55</course>
  <speed>0.7213875518748573</speed>
  <fix>3d</fix>
</trkpt>
<trkpt lat="33.8102492" lon="-118.3939393">
  <ele>-0.108</ele>
  <time>2026-09-02T22:07:20Z</time>
  <course>186.55</course>
  <speed>0.7213875518748573</speed>
  <fix>3d</fix>
</trkpt>
<trkpt lat="33.8102492" lon="-118.3939393">
  <ele>-0.108</ele>
  <time>2026-09-02T22:07:20Z</time>
  <course>186.55</course>
  <speed>0.7213875518748573</speed>
  <fix>3d</fix>
</trkpt>
<trkpt lat="33.8102491" lon="-118.3939394">
  <ele>-0.108</ele>
  <time>2026-09-02T22:07:20Z</time>
  <course>186.55</course>
  <speed>0.7213875518748573</speed>
  <fix>3d</fix>
</trkpt>
<trkpt lat="33.8102491" lon="-118.3939394">
  <ele>-0.108</ele>
  <time>2026-09-02T22:07:20Z</time>
  <course>186.55</course>
  <speed>0.7213875518748573</speed>
  <fix>3d</fix>
</trkpt>
<trkpt lat="33.8102491" lon="-118.3939395">
  <ele>-0.108</ele>
  <time>2026-09-02T22:07:20Z</time>
  <course>186.55</course>
  <speed>0.7213875518748573</speed>
  <fix>3d</fix>
</trkpt>
<trkpt lat="33.810249" lon="-118.3939396">
  <ele>-0.109</ele>
  <time>2026-09-02T22:07:20Z</time>
  <course>186.55</course>
  <speed>0.7213875518748573</speed>
  <fix>3d</fix>
</trkpt>
<trkpt lat="33.810249" lon="-118.3939396">
  <ele>-0.109</ele>
  <time>2026-09-02T22:07:20Z</time>
  <course>186.55</course>
  <speed>0.7213875518748573</speed>
  <fix>3d</fix>
</trkpt>
<trkpt lat="33.8102489" lon="-118.3939396">
  <ele>-0.109</ele>
  <time>2026-09-02T22:07:20Z</time>
  <course>186.55</course>
  <speed>0.7213875518748573</speed>
  <fix>3d</fix>
</trkpt>
<trkpt lat="33.8102489" lon="-118.3939396">
  <ele>-0.109</ele>
  <time>2026-09-02T22:07:20Z</time>
  <course>186.55</course>
  <speed>0.7213875518748573</speed>
  <fix>3d</fix>
</trkpt>
<trkpt lat="33.8102499" lon="-118.3939381">
  <ele>-0.1</ele>
  <time>2026-09-02T22:07:20Z</time>
  <course>223.26</course>
  <speed>0.73</speed>
  <fix>3d</fix>
</trkpt>
<trkpt lat="33.8102488" lon="-118.3939397">
  <ele>-0.109</ele>
  <time>2026-09-02T22:07:20Z</time>
  <course>186.54</course>
  <speed>0.7213875518748573</speed>
  <fix>3d</fix>
</trkpt>
<trkpt lat="33.8102488" lon="-118.3939398">
  <ele>-0.109</ele>
  <time>2026-09-02T22:07:20Z</time>
  <course>186.54</course>
  <speed>0.7213875518748573</speed>
  <fix>3d</fix>
</trkpt>
<trkpt lat="33.8102487" lon="-118.3939399">
  <ele>-0.109</ele>
  <time>2026-09-02T22:07:20Z</time>
  <course>186.54</course>
  <speed>0.7213875518748573</speed>
  <fix>3d</fix>
</trkpt>
<trkpt lat="33.8102487" lon="-118.3939399">
  <ele>-0.109</ele>
  <time>2026-09-02T22:07:20Z</time>
  <course>186.54</course>
  <speed>0.7213875518748573</speed>
  <fix>3d</fix>
</trkpt>
<trkpt lat="33.8102487" lon="-118.3939399">
  <ele>-0.109</ele>
  <time>2026-09-02T22:07:20Z</time>
  <course>186.54</course>
  <speed>0.7213875518748573</speed>
  <fix>3d</fix>
</trkpt>
<trkpt lat="33.8102486" lon="-118.39394">
  <ele>-0.109</ele>
  <time>2026-09-02T22:07:20Z</time>
  <course>186.54</course>
  <speed>0.7213875518748573</speed>
  <fix>3d</fix>
</trkpt>
<trkpt lat="33.8102486" lon="-118.39394">
  <ele>-0.109</ele>
  <time>2026-09-02T22:07:20Z</time>
  <course>186.54</course>
  <speed>0.7213875518748573</speed>
  <fix>3d</fix>
</trkpt>
<trkpt lat="33.8102486" lon="-118.3939401">
  <ele>-0.109</ele>
  <time>2026-09-02T22:07:20Z</time>
  <course>186.54</course>
  <speed>0.7213875518748573</speed>
  <fix>3d</fix>
</trkpt>
<trkpt lat="33.8102485" lon="-118.3939401">
  <ele>-0.11</ele>
  <time>2026-09-02T22:07:20Z</time>
  <course>186.54</course>
  <speed>0.7213875518748573</speed>
  <fix>3d</fix>
</trkpt>
<trkpt lat="33.8102485" lon="-118.3939402">
  <ele>-0.11</ele>
  <time>2026-09-02T22:07:20Z</time>
  <course>186.54</course>
  <speed>0.7213875518748573</speed>
  <fix>3d</fix>
</trkpt>
<trkpt lat="33.8102484" lon="-118.3939402">
  <ele>-0.11</ele>
  <time>2026-09-02T22:07:20Z</time>
  <course>186.54</course>
  <speed>0.7213875518748573</speed>
  <fix>3d</fix>
</trkpt>
<trkpt lat="33.8102484" lon="-118.3939402">
  <ele>-0.11</ele>
  <time>2026-09-02T22:07:20Z</time>
  <course>186.54</course>
  <speed>0.7213875518748573</speed>
  <fix>3d</fix>
</trkpt>
<trkpt lat="33.8102489" lon="-118.3939392">
  <ele>-0.1</ele>
  <time>2026-09-02T22:07:20Z</time>
  <course>223.26</course>
  <speed>0.73</speed>
  <fix>3d</fix>
</trkpt>
<trkpt lat="33.8102484" lon="-118.3939403">
  <ele>-0.11</ele>
  <time>2026-09-02T22:07:20Z</time>
  <course>186.54</course>
  <speed>0.7213875518748573</speed>
  <fix>3d</fix>
</trkpt>
<trkpt lat="33.8102483" lon="-118.3939403">
  <ele>-0.11</ele>
  <time>2026-09-02T22:07:20Z</time>
  <course>186.54</course>
  <speed>0.7213875518748573</speed>
  <fix>3d</fix>
</trkpt>
<trkpt lat="33.8102483" lon="-118.3939404">
  <ele>-0.11</ele>
  <time>2026-09-02T22:07:20Z</time>
  <course>186.54</course>
  <speed>0.7213875518748573</speed>
  <fix>3d</fix>
</trkpt>
<trkpt lat="33.8102483" lon="-118.3939404">
  <ele>-0.11</ele>
  <time>2026-09-02T22:07:20Z</time>
  <course>186.54</course>
  <speed>0.7213875518748573</speed>
  <fix>3d</fix>
</trkpt>
<trkpt lat="33.8102482" lon="-118.3939404">
  <ele>-0.11</ele>
  <time>2026-09-02T22:07:20Z</time>
  <course>186.54</course>
  <speed>0.7213875518748573</speed>
  <fix>3d</fix>
</trkpt>
<trkpt lat="33.8102482" lon="-118.3939405">
  <ele>-0.11</ele>
  <time>2026-09-02T22:07:20Z</time>
  <course>186.54</course>
  <speed>0.7213875518748573</speed>
  <fix>3d</fix>
</trkpt>
<trkpt lat="33.8102481" lon="-118.3939405">
  <ele>-0.111</ele>
  <time>2026-09-02T22:07:20Z</time>
  <course>186.54</course>
  <speed>0.7213875518748573</speed>
  <fix>3d</fix>
</trkpt>
<trkpt lat="33.8102481" lon="-118.3939406">
  <ele>-0.111</ele>
  <time>2026-09-02T22:07:20Z</time>
  <course>186.54</course>
  <speed>0.7213875518748573</speed>
  <fix>3d</fix>
</trkpt>
<trkpt lat="33.810248" lon="-118.3939406">
  <ele>-0.111</ele>
  <time>2026-09-02T22:07:20Z</time>
  <course>186.54</course>
  <speed>0.7213875518748573</speed>
  <fix>3d</fix>
</trkpt>
<trkpt lat="33.810248" lon="-118.3939407">
  <ele>-0.111</ele>
  <time>2026-09-02T22:07:20Z</time>
  <course>186.54</course>
  <speed>0.7213875518748573</speed>
  <fix>3d</fix>
</trkpt>
<trkpt lat="33.810248" lon="-118.3939407">
  <ele>-0.111</ele>
  <time>2026-09-02T22:07:20Z</time>
  <course>186.54</course>
  <speed>0.7213875518748573</speed>
  <fix>3d</fix>
</trkpt>
<trkpt lat="33.810248" lon="-118.3939407">
  <ele>-0.111</ele>
  <time>2026-09-02T22:07:20Z</time>
  <course>186.54</course>
  <speed>0.7213875518748573</speed>
  <fix>3d</fix>
</trkpt>
<trkpt lat="33.8102489" lon="-118.3939392">
  <ele>-0.1</ele>
  <time>2026-09-02T22:07:20Z</time>
  <course>223.26</course>
  <speed>0.73</speed>
  <fix>3d</fix>
</trkpt>
<trkpt lat="33.810248" lon="-118.3939408">
  <ele>-0.111</ele>
  <time>2026-09-02T22:07:20Z</time>
  <course>186.54</course>
  <speed>0.7213875518748573</speed>
  <fix>3d</fix>
</trkpt>
<trkpt lat="33.8102479" lon="-118.3939409">
  <ele>-0.111</ele>
  <time>2026-09-02T22:07:20Z</time>
  <course>186.54</course>
  <speed>0.7213875518748573</speed>
  <fix>3d</fix>
</trkpt>
<trkpt lat="33.8102478" lon="-118.3939409">
  <ele>-0.112</ele>
  <time>2026-09-02T22:07:20Z</time>
  <course>186.54</course>
  <speed>0.7213875518748573</speed>
  <fix>3d</fix>
</trkpt>
<trkpt lat="33.8102478" lon="-118.393941">
  <ele>-0.112</ele>
  <time>2026-09-02T22:07:20Z</time>
  <course>186.54</course>
  <speed>0.7213875518748573</speed>
  <fix>3d</fix>
</trkpt>
<trkpt lat="33.8102477" lon="-118.393941">
  <ele>-0.112</ele>
  <time>2026-09-02T22:07:20Z</time>
  <course>186.54</course>
  <speed>0.7213875518748573</speed>
  <fix>3d</fix>
</trkpt>
<trkpt lat="33.8102477" lon="-118.393941">
  <ele>-0.112</ele>
  <time>2026-09-02T22:07:20Z</time>
  <course>186.54</course>
  <speed>0.7213875518748573</speed>
  <fix>3d</fix>
</trkpt>
<trkpt lat="33.8102477" lon="-118.3939411">
  <ele>-0.112</ele>
  <time>2026-09-02T22:07:20Z</time>
  <course>186.54</course>
  <speed>0.7213875518748573</speed>
  <fix>3d</fix>
</trkpt>
<trkpt lat="33.8102476" lon="-118.3939411">
  <ele>-0.113</ele>
  <time>2026-09-02T22:07:20Z</time>
  <course>186.54</course>
  <speed>0.7213875518748573</speed>
  <fix>3d</fix>
</trkpt>
<trkpt lat="33.8102476" lon="-118.3939412">
  <ele>-0.113</ele>
  <time>2026-09-02T22:07:20Z</time>
  <course>186.54</course>
  <speed>0.7213875518748573</speed>
  <fix>3d</fix>
</trkpt>
<trkpt lat="33.8102475" lon="-118.3939412">
  <ele>-0.113</ele>
  <time>2026-09-02T22:07:20Z</time>
  <course>186.54</course>
  <speed>0.7213875518748573</speed>
  <fix>3d</fix>
</trkpt>
<trkpt lat="33.8102475" lon="-118.3939413">
  <ele>-0.113</ele>
  <time>2026-09-02T22:07:20Z</time>
  <course>186.54</course>
  <speed>0.7213875518748573</speed>
  <fix>3d</fix>
</trkpt>
<trkpt lat="33.8102475" lon="-118.3939413">
  <ele>-0.113</ele>
  <time>2026-09-02T22:07:20Z</time>
  <course>186.54</course>
  <speed>0.7213875518748573</speed>
  <fix>3d</fix>
</trkpt>
<trkpt lat="33.8102479" lon="-118.3939403">
  <ele>-0.1</ele>
  <time>2026-09-02T22:07:20Z</time>
  <course>223.26</course>
  <speed>0.73</speed>
  <fix>3d</fix>
</trkpt>
<trkpt lat="33.8102474" lon="-118.3939414">
  <ele>-0.114</ele>
  <time>2026-09-02T22:07:20Z</time>
  <course>186.54</course>
  <speed>0.7213875518748573</speed>
  <fix>3d</fix>
</trkpt>
<trkpt lat="33.8102474" lon="-118.3939414">
  <ele>-0.114</ele>
  <time>2026-09-02T22:07:20Z</time>
  <course>186.53</course>
  <speed>0.7213875518748573</speed>
  <fix>3d</fix>
</trkpt>
<trkpt lat="33.8102473" lon="-118.3939414">
  <ele>-0.114</ele>
  <time>2026-09-02T22:07:20Z</time>
  <course>186.53</course>
  <speed>0.7213875518748573</speed>
  <fix>3d</fix>
</trkpt>
<trkpt lat="33.8102473" lon="-118.3939415">
  <ele>-0.114</ele>
  <time>2026-09-02T22:07:20Z</time>
  <course>186.53</course>
  <speed>0.7213875518748573</speed>
  <fix>3d</fix>
</trkpt>
<trkpt lat="33.8102473" lon="-118.3939415">
  <ele>-0.114</ele>
  <time>2026-09-02T22:07:20Z</time>
  <course>186.53</course>
  <speed>0.7213875518748573</speed>
  <fix>3d</fix>
</trkpt>
<trkpt lat="33.8102472" lon="-118.3939416">
  <ele>-0.114</ele>
  <time>2026-09-02T22:07:20Z</time>
  <course>186.53</course>
  <speed>0.7213875518748573</speed>
  <fix>3d</fix>
</trkpt>
<trkpt lat="33.8102472" lon="-118.3939416">
  <ele>-0.114</ele>
  <time>2026-09-02T22:07:20Z</time>
  <course>186.53</course>
  <speed>0.7213875518748573</speed>
  <fix>3d</fix>
</trkpt>
<trkpt lat="33.8102472" lon="-118.3939417">
  <ele>-0.114</ele>
  <time>2026-09-02T22:07:20Z</time>
  <course>186.53</course>
  <speed>0.7213875518748573</speed>
  <fix>3d</fix>
</trkpt>
<trkpt lat="33.8102471" lon="-118.3939417">
  <ele>-0.115</ele>
  <time>2026-09-02T22:07:20Z</time>
  <course>186.53</course>
  <speed>0.7213875518748573</speed>
  <fix>3d</fix>
</trkpt>
<trkpt lat="33.8102471" lon="-118.3939417">
  <ele>-0.115</ele>
  <time>2026-09-02T22:07:20Z</time>
  <course>186.53</course>
  <speed>0.7213875518748573</speed>
  <fix>3d</fix>
</trkpt>
<trkpt lat="33.810247" lon="-118.3939418">
  <ele>-0.115</ele>
  <time>2026-09-02T22:07:20Z</time>
  <course>186.53</course>
  <speed>0.7213875518748573</speed>
  <fix>3d</fix>
</trkpt>
<trkpt lat="33.810247" lon="-118.3939418">
  <ele>-0.115</ele>
  <time>2026-09-02T22:07:20Z</time>
  <course>186.53</course>
  <speed>0.7213875518748573</speed>
  <fix>3d</fix>
</trkpt>
<trkpt lat="33.810247" lon="-118.3939418">
  <ele>-0.115</ele>
  <time>2026-09-02T22:07:20Z</time>
  <course>186.53</course>
  <speed>0.7213875518748573</speed>
  <fix>3d</fix>
</trkpt>
<trkpt lat="33.8102479" lon="-118.3939403">
  <ele>-0.1</ele>
  <time>2026-09-02T22:07:20Z</time>
  <course>223.26</course>
  <speed>0.73</speed>
  <fix>3d</fix>
</trkpt>
<trkpt lat="33.810247" lon="-118.3939418">
  <ele>-0.115</ele>
  <time>2026-09-02T22:07:20Z</time>
  <course>186.53</course>
  <speed>0.7213875518748573</speed>
  <fix>3d</fix>
</trkpt>
<trkpt lat="33.8102469" lon="-118.3939419">
  <ele>-0.115</ele>
  <time>2026-09-02T22:07:20Z</time>
  <course>186.53</course>
  <speed>0.7213875518748573</speed>
  <fix>3d</fix>
</trkpt>
<trkpt lat="33.8102469" lon="-118.393942">
  <ele>-0.115</ele>
  <time>2026-09-02T22:07:20Z</time>
  <course>186.53</course>
  <speed>0.7213875518748573</speed>
  <fix>3d</fix>
</trkpt>
<trkpt lat="33.8102468" lon="-118.393942">
  <ele>-0.115</ele>
  <time>2026-09-02T22:07:20Z</time>
  <course>186.53</course>
  <speed>0.7213875518748573</speed>
  <fix>3d</fix>
</trkpt>
<trkpt lat="33.8102468" lon="-118.3939421">
  <ele>-0.115</ele>
  <time>2026-09-02T22:07:20Z</time>
  <course>186.53</course>
  <speed>0.7213875518748573</speed>
  <fix>3d</fix>
</trkpt>
<trkpt lat="33.8102468" lon="-118.3939421">
  <ele>-0.115</ele>
  <time>2026-09-02T22:07:20Z</time>
  <course>186.53</course>
  <speed>0.7213875518748573</speed>
  <fix>3d</fix>
</trkpt>
<trkpt lat="33.8102467" lon="-118.3939421">
  <ele>-0.115</ele>
  <time>2026-09-02T22:07:20Z</time>
  <course>186.53</course>
  <speed>0.7213875518748573</speed>
  <fix>3d</fix>
</trkpt>
<trkpt lat="33.8102467" lon="-118.3939422">
  <ele>-0.115</ele>
  <time>2026-09-02T22:07:20Z</time>
  <course>186.53</course>
  <speed>0.7213875518748573</speed>
  <fix>3d</fix>
</trkpt>
<trkpt lat="33.8102466" lon="-118.3939422">
  <ele>-0.115</ele>
  <time>2026-09-02T22:07:20Z</time>
  <course>186.53</course>
  <speed>0.7213875518748573</speed>
  <fix>3d</fix>
</trkpt>
<trkpt lat="33.8102466" lon="-118.3939423">
  <ele>-0.115</ele>
  <time>2026-09-02T22:07:20Z</time>
  <course>186.53</course>
  <speed>0.7213875518748573</speed>
  <fix>3d</fix>
</trkpt>
<trkpt lat="33.8102466" lon="-118.3939423">
  <ele>-0.115</ele>
  <time>2026-09-02T22:07:20Z</time>
  <course>186.53</course>
  <speed>0.7213875518748573</speed>
  <fix>3d</fix>
</trkpt>
<trkpt lat="33.8102465" lon="-118.3939424">
  <ele>-0.115</ele>
  <time>2026-09-02T22:07:20Z</time>
  <course>186.53</course>
  <speed>0.7213875518748573</speed>
  <fix>3d</fix>
</trkpt>
<trkpt lat="33.8102465" lon="-118.3939424">
  <ele>-0.115</ele>
  <time>2026-09-02T22:07:20Z</time>
  <course>186.53</course>
  <speed>0.7213875518748573</speed>
  <fix>3d</fix>
</trkpt>
<trkpt lat="33.8102469" lon="-118.3939414">
  <ele>-0.1</ele>
  <time>2026-09-02T22:07:20Z</time>
  <course>223.26</course>
  <speed>0.73</speed>
  <fix>3d</fix>
</trkpt>
<trkpt lat="33.8102465" lon="-118.3939424">
  <ele>-0.115</ele>
  <time>2026-09-02T22:07:20Z</time>
  <course>186.53</course>
  <speed>0.7213875518748573</speed>
  <fix>3d</fix>
</trkpt>
<trkpt lat="33.8102464" lon="-118.3939425">
  <ele>-0.116</ele>
  <time>2026-09-02T22:07:20Z</time>
  <course>186.53</course>
  <speed>0.7213875518748573</speed>
  <fix>3d</fix>
</trkpt>
<trkpt lat="33.8102464" lon="-118.3939425">
  <ele>-0.116</ele>
  <time>2026-09-02T22:07:20Z</time>
  <course>186.53</course>
  <speed>0.7213875518748573</speed>
  <fix>3d</fix>
</trkpt>
<trkpt lat="33.8102463" lon="-118.3939426">
  <ele>-0.116</ele>
  <time>2026-09-02T22:07:20Z</time>
  <course>186.53</course>
  <speed>0.7213875518748573</speed>
  <fix>3d</fix>
</trkpt>
<trkpt lat="33.8102463" lon="-118.3939426">
  <ele>-0.115</ele>
  <time>2026-09-02T22:07:20Z</time>
  <course>186.53</course>
  <speed>0.7213875518748573</speed>
  <fix>3d</fix>
</trkpt>
<trkpt lat="33.8102463" lon="-118.3939426">
  <ele>-0.115</ele>
  <time>2026-09-02T22:07:20Z</time>
  <course>186.53</course>
  <speed>0.7213875518748573</speed>
  <fix>3d</fix>
</trkpt>
<trkpt lat="33.8102462" lon="-118.3939427">
  <ele>-0.115</ele>
  <time>2026-09-02T22:07:20Z</time>
  <course>186.53</course>
  <speed>0.7213875518748573</speed>
  <fix>3d</fix>
</trkpt>
<trkpt lat="33.8102462" lon="-118.3939427">
  <ele>-0.115</ele>
  <time>2026-09-02T22:07:20Z</time>
  <course>186.53</course>
  <speed>0.7213875518748573</speed>
  <fix>3d</fix>
</trkpt>
<trkpt lat="33.8102462" lon="-118.3939428">
  <ele>-0.115</ele>
  <time>2026-09-02T22:07:20Z</time>
  <course>186.53</course>
  <speed>0.7213875518748573</speed>
  <fix>3d</fix>
</trkpt>
<trkpt lat="33.8102461" lon="-118.3939428">
  <ele>-0.115</ele>
  <time>2026-09-02T22:07:20Z</time>
  <course>186.53</course>
  <speed>0.7213875518748573</speed>
  <fix>3d</fix>
</trkpt>
<trkpt lat="33.8102461" lon="-118.3939429">
  <ele>-0.115</ele>
  <time>2026-09-02T22:07:20Z</time>
  <course>186.53</course>
  <speed>0.7213875518748573</speed>
  <fix>3d</fix>
</trkpt>
<trkpt lat="33.810246" lon="-118.3939429">
  <ele>-0.115</ele>
  <time>2026-09-02T22:07:20Z</time>
  <course>186.53</course>
  <speed>0.7213875518748573</speed>
  <fix>3d</fix>
</trkpt>
<trkpt lat="33.810246" lon="-118.3939429">
  <ele>-0.115</ele>
  <time>2026-09-02T22:07:20Z</time>
  <course>186.53</course>
  <speed>0.7213875518748573</speed>
  <fix>3d</fix>
</trkpt>
<trkpt lat="33.8102469" lon="-118.3939414">
  <ele>-0.1</ele>
  <time>2026-09-02T22:07:20Z</time>
  <course>223.26</course>
  <speed>0.73</speed>
  <fix>3d</fix>
</trkpt>
<trkpt lat="33.810246" lon="-118.3939429">
  <ele>-0.115</ele>
  <time>2026-09-02T22:07:20Z</time>
  <course>186.53</course>
  <speed>0.7213875518748573</speed>
  <fix>3d</fix>
</trkpt>
<trkpt lat="33.8102459" lon="-118.393943">
  <ele>-0.115</ele>
  <time>2026-09-02T22:07:20Z</time>
  <course>186.53</course>
  <speed>0.7213875518748573</speed>
  <fix>3d</fix>
</trkpt>
<trkpt lat="33.8102459" lon="-118.3939431">
  <ele>-0.115</ele>
  <time>2026-09-02T22:07:20Z</time>
  <course>186.53</course>
  <speed>0.7213875518748573</speed>
  <fix>3d</fix>
</trkpt>
<trkpt lat="33.8102459" lon="-118.3939431">
  <ele>-0.114</ele>
  <time>2026-09-02T22:07:20Z</time>
  <course>186.53</course>
  <speed>0.7213875518748573</speed>
  <fix>3d</fix>
</trkpt>
<trkpt lat="33.8102458" lon="-118.3939432">
  <ele>-0.114</ele>
  <time>2026-09-02T22:07:20Z</time>
  <course>186.53</course>
  <speed>0.7213875518748573</speed>
  <fix>3d</fix>
</trkpt>
<trkpt lat="33.8102458" lon="-118.3939432">
  <ele>-0.114</ele>
  <time>2026-09-02T22:07:20Z</time>
  <course>186.53</course>
  <speed>0.7213875518748573</speed>
  <fix>3d</fix>
</trkpt>
<trkpt lat="33.8102458" lon="-118.3939432">
  <ele>-0.114</ele>
  <time>2026-09-02T22:07:20Z</time>
  <course>186.53</course>
  <speed>0.7213875518748573</speed>
  <fix>3d</fix>
</trkpt>
<trkpt lat="33.8102457" lon="-118.3939433">
  <ele>-0.114</ele>
  <time>2026-09-02T22:07:20Z</time>
  <course>186.52</course>
  <speed>0.7213875518748573</speed>
  <fix>3d</fix>
</trkpt>
<trkpt lat="33.8102457" lon="-118.3939433">
  <ele>-0.114</ele>
  <time>2026-09-02T22:07:20Z</time>
  <course>186.52</course>
  <speed>0.7213875518748573</speed>
  <fix>3d</fix>
</trkpt>
<trkpt lat="33.8102456" lon="-118.3939434">
  <ele>-0.113</ele>
  <time>2026-09-02T22:07:20Z</time>
  <course>186.52</course>
  <speed>0.7213875518748573</speed>
  <fix>3d</fix>
</trkpt>
<trkpt lat="33.8102456" lon="-118.3939434">
  <ele>-0.113</ele>
  <time>2026-09-02T22:07:20Z</time>
  <course>186.52</course>
  <speed>0.7213875518748573</speed>
  <fix>3d</fix>
</trkpt>
<trkpt lat="33.8102455" lon="-118.3939435">
  <ele>-0.113</ele>
  <time>2026-09-02T22:07:20Z</time>
  <course>186.52</course>
  <speed>0.7213875518748573</speed>
  <fix>3d</fix>
</trkpt>
<trkpt lat="33.810246" lon="-118.3939424">
  <ele>-0.11</ele>
  <time>2026-09-02T22:07:20Z</time>
  <course>223.26</course>
  <speed>0.73</speed>
  <fix>3d</fix>
</trkpt>
<trkpt lat="33.8102455" lon="-118.3939435">
  <ele>-0.113</ele>
  <time>2026-09-02T22:07:20Z</time>
  <course>186.52</course>
  <speed>0.7213875518748573</speed>
  <fix>3d</fix>
</trkpt>
<trkpt lat="33.8102455" lon="-118.3939435">
  <ele>-0.113</ele>
  <time>2026-09-02T22:07:20Z</time>
  <course>186.52</course>
  <speed>0.7213875518748573</speed>
  <fix>3d</fix>
</trkpt>
<trkpt lat="33.8102454" lon="-118.3939436">
  <ele>-0.113</ele>
  <time>2026-09-02T22:07:20Z</time>
  <course>186.52</course>
  <speed>0.7213875518748573</speed>
  <fix>3d</fix>
</trkpt>
<trkpt lat="33.8102454" lon="-118.3939437">
  <ele>-0.112</ele>
  <time>2026-09-02T22:07:20Z</time>
  <course>186.52</course>
  <speed>0.7213875518748573</speed>
  <fix>3d</fix>
</trkpt>
<trkpt lat="33.8102453" lon="-118.3939437">
  <ele>-0.112</ele>
  <time>2026-09-02T22:07:20Z</time>
  <course>186.52</course>
  <speed>0.7213875518748573</speed>
  <fix>3d</fix>
</trkpt>
<trkpt lat="33.8102453" lon="-118.3939437">
  <ele>-0.112</ele>
  <time>2026-09-02T22:07:20Z</time>
  <course>186.52</course>
  <speed>0.7213875518748573</speed>
  <fix>3d</fix>
</trkpt>
<trkpt lat="33.8102453" lon="-118.3939438">
  <ele>-0.112</ele>
  <time>2026-09-02T22:07:20Z</time>
  <course>186.52</course>
  <speed>0.7213875518748573</speed>
  <fix>3d</fix>
</trkpt>
<trkpt lat="33.8102452" lon="-118.3939438">
  <ele>-0.112</ele>
  <time>2026-09-02T22:07:20Z</time>
  <course>186.52</course>
  <speed>0.7213875518748573</speed>
  <fix>3d</fix>
</trkpt>
<trkpt lat="33.8102452" lon="-118.3939439">
  <ele>-0.112</ele>
  <time>2026-09-02T22:07:20Z</time>
  <course>186.52</course>
  <speed>0.7213875518748573</speed>
  <fix>3d</fix>
</trkpt>
<trkpt lat="33.8102451" lon="-118.3939439">
  <ele>-0.112</ele>
  <time>2026-09-02T22:07:20Z</time>
  <course>186.52</course>
  <speed>0.7213875518748573</speed>
  <fix>3d</fix>
</trkpt>
<trkpt lat="33.8102451" lon="-118.393944">
  <ele>-0.112</ele>
  <time>2026-09-02T22:07:20Z</time>
  <course>186.52</course>
  <speed>0.7213875518748573</speed>
  <fix>3d</fix>
</trkpt>
<trkpt lat="33.8102451" lon="-118.393944">
  <ele>-0.112</ele>
  <time>2026-09-02T22:07:20Z</time>
  <course>186.52</course>
  <speed>0.7213875518748573</speed>
  <fix>3d</fix>
</trkpt>
<trkpt lat="33.810246" lon="-118.3939424">
  <ele>-0.11</ele>
  <time>2026-09-02T22:07:20Z</time>
  <course>223.26</course>
  <speed>0.73</speed>
  <fix>3d</fix>
</trkpt>
<trkpt lat="33.8102451" lon="-118.393944">
  <ele>-0.112</ele>
  <time>2026-09-02T22:07:20Z</time>
  <course>186.52</course>
  <speed>0.7213875518748573</speed>
  <fix>3d</fix>
</trkpt>
<trkpt lat="33.810245" lon="-118.3939441">
  <ele>-0.111</ele>
  <time>2026-09-02T22:07:20Z</time>
  <course>186.52</course>
  <speed>0.7213875518748573</speed>
  <fix>3d</fix>
</trkpt>
<trkpt lat="33.8102449" lon="-118.3939441">
  <ele>-0.111</ele>
  <time>2026-09-02T22:07:20Z</time>
  <course>186.52</course>
  <speed>0.7213875518748573</speed>
  <fix>3d</fix>
</trkpt>
<trkpt lat="33.8102449" lon="-118.3939442">
  <ele>-0.111</ele>
  <time>2026-09-02T22:07:20Z</time>
  <course>186.52</course>
  <speed>0.7213875518748573</speed>
  <fix>3d</fix>
</trkpt>
<trkpt lat="33.8102448" lon="-118.3939443">
  <ele>-0.111</ele>
  <time>2026-09-02T22:07:20Z</time>
  <course>186.52</course>
  <speed>0.7213875518748573</speed>
  <fix>3d</fix>
</trkpt>
<trkpt lat="33.8102448" lon="-118.3939443">
  <ele>-0.111</ele>
  <time>2026-09-02T22:07:20Z</time>
  <course>186.52</course>
  <speed>0.7213875518748573</speed>
  <fix>3d</fix>
</trkpt>
<trkpt lat="33.8102448" lon="-118.3939443">
  <ele>-0.111</ele>
  <time>2026-09-02T22:07:20Z</time>
  <course>186.52</course>
  <speed>0.7213875518748573</speed>
  <fix>3d</fix>
</trkpt>
<trkpt lat="33.8102447" lon="-118.3939444">
  <ele>-0.11</ele>
  <time>2026-09-02T22:07:20Z</time>
  <course>186.52</course>
  <speed>0.7213875518748573</speed>
  <fix>3d</fix>
</trkpt>
<trkpt lat="33.8102447" lon="-118.3939444">
  <ele>-0.11</ele>
  <time>2026-09-02T22:07:20Z</time>
  <course>186.52</course>
  <speed>0.7213875518748573</speed>
  <fix>3d</fix>
</trkpt>
<trkpt lat="33.8102446" lon="-118.3939445">
  <ele>-0.11</ele>
  <time>2026-09-02T22:07:20Z</time>
  <course>186.52</course>
  <speed>0.7213875518748573</speed>
  <fix>3d</fix>
</trkpt>
<trkpt lat="33.8102446" lon="-118.3939445">
  <ele>-0.11</ele>
  <time>2026-09-02T22:07:20Z</time>
  <course>186.52</course>
  <speed>0.7213875518748573</speed>
  <fix>3d</fix>
</trkpt>
<trkpt lat="33.8102446" lon="-118.3939446">
  <ele>-0.11</ele>
  <time>2026-09-02T22:07:20Z</time>
  <course>186.52</course>
  <speed>0.7213875518748573</speed>
  <fix>3d</fix>
</trkpt>
<trkpt lat="33.810245" lon="-118.3939435">
  <ele>-0.1</ele>
  <time>2026-09-02T22:07:20Z</time>
  <course>223.26</course>
  <speed>0.73</speed>
  <fix>3d</fix>
</trkpt>
<trkpt lat="33.8102446" lon="-118.3939446">
  <ele>-0.11</ele>
  <time>2026-09-02T22:07:20Z</time>
  <course>186.52</course>
  <speed>0.7213875518748573</speed>
  <fix>3d</fix>
</trkpt>
<trkpt lat="33.8102445" lon="-118.3939446">
  <ele>-0.11</ele>
  <time>2026-09-02T22:07:20Z</time>
  <course>186.52</course>
  <speed>0.7213875518748573</speed>
  <fix>3d</fix>
</trkpt>
<trkpt lat="33.8102445" lon="-118.3939447">
  <ele>-0.11</ele>
  <time>2026-09-02T22:07:20Z</time>
  <course>186.52</course>
  <speed>0.7213875518748573</speed>
  <fix>3d</fix>
</trkpt>
<trkpt lat="33.8102444" lon="-118.3939447">
  <ele>-0.109</ele>
  <time>2026-09-02T22:07:20Z</time>
  <course>186.52</course>
  <speed>0.7213875518748573</speed>
  <fix>3d</fix>
</trkpt>
<trkpt lat="33.8102444" lon="-118.3939448">
  <ele>-0.109</ele>
  <time>2026-09-02T22:07:20Z</time>
  <course>186.52</course>
  <speed>0.7213875518748573</speed>
  <fix>3d</fix>
</trkpt>
<trkpt lat="33.8102443" lon="-118.3939449">
  <ele>-0.109</ele>
  <time>2026-09-02T22:07:20Z</time>
  <course>186.52</course>
  <speed>0.7213875518748573</speed>
  <fix>3d</fix>
</trkpt>
<trkpt lat="33.8102443" lon="-118.3939449">
  <ele>-0.109</ele>
  <time>2026-09-02T22:07:20Z</time>
  <course>186.52</course>
  <speed>0.7213875518748573</speed>
  <fix>3d</fix>
</trkpt>
<trkpt lat="33.8102442" lon="-118.3939449">
  <ele>-0.109</ele>
  <time>2026-09-02T22:07:20Z</time>
  <course>186.52</course>
  <speed>0.7213875518748573</speed>
  <fix>3d</fix>
</trkpt>
<trkpt lat="33.8102442" lon="-118.393945">
  <ele>-0.109</ele>
  <time>2026-09-02T22:07:20Z</time>
  <course>186.51</course>
  <speed>0.7213875518748573</speed>
  <fix>3d</fix>
</trkpt>
<trkpt lat="33.8102442" lon="-118.393945">
  <ele>-0.109</ele>
  <time>2026-09-02T22:07:20Z</time>
  <course>186.51</course>
  <speed>0.7213875518748573</speed>
  <fix>3d</fix>
</trkpt>
<trkpt lat="33.8102441" lon="-118.3939451">
  <ele>-0.109</ele>
  <time>2026-09-02T22:07:20Z</time>
  <course>186.51</course>
  <speed>0.7213875518748573</speed>
  <fix>3d</fix>
</trkpt>
<trkpt lat="33.8102441" lon="-118.3939451">
  <ele>-0.109</ele>
  <time>2026-09-02T22:07:20Z</time>
  <course>186.51</course>
  <speed>0.7213875518748573</speed>
  <fix>3d</fix>
</trkpt>
<trkpt lat="33.810245" lon="-118.3939435">
  <ele>-0.1</ele>
  <time>2026-09-02T22:07:20Z</time>
  <course>223.26</course>
  <speed>0.73</speed>
  <fix>3d</fix>
</trkpt>
<trkpt lat="33.8102441" lon="-118.3939451">
  <ele>-0.109</ele>
  <time>2026-09-02T22:07:20Z</time>
  <course>186.51</course>
  <speed>0.7213875518748573</speed>
  <fix>3d</fix>
</trkpt>
<trkpt lat="33.810244" lon="-118.3939452">
  <ele>-0.109</ele>
  <time>2026-09-02T22:07:20Z</time>
  <course>186.51</course>
  <speed>0.7213875518748573</speed>
  <fix>3d</fix>
</trkpt>
<trkpt lat="33.810244" lon="-118.3939452">
  <ele>-0.109</ele>
  <time>2026-09-02T22:07:20Z</time>
  <course>186.51</course>
  <speed>0.7213875518748573</speed>
  <fix>3d</fix>
</trkpt>
<trkpt lat="33.8102439" lon="-118.3939453">
  <ele>-0.109</ele>
  <time>2026-09-02T22:07:20Z</time>
  <course>186.51</course>
  <speed>0.7213875518748573</speed>
  <fix>3d</fix>
</trkpt>
<trkpt lat="33.8102439" lon="-118.3939453">
  <ele>-0.109</ele>
  <time>2026-09-02T22:07:20Z</time>
  <course>186.51</course>
  <speed>0.7213875518748573</speed>
  <fix>3d</fix>
</trkpt>
<trkpt lat="33.8102439" lon="-118.3939454">
  <ele>-0.109</ele>
  <time>2026-09-02T22:07:20Z</time>
  <course>186.51</course>
  <speed>0.7213875518748573</speed>
  <fix>3d</fix>
</trkpt>
<trkpt lat="33.8102438" lon="-118.3939454">
  <ele>-0.109</ele>
  <time>2026-09-02T22:07:20Z</time>
  <course>186.51</course>
  <speed>0.7213875518748573</speed>
  <fix>3d</fix>
</trkpt>
<trkpt lat="33.8102438" lon="-118.3939455">
  <ele>-0.109</ele>
  <time>2026-09-02T22:07:20Z</time>
  <course>186.51</course>
  <speed>0.7213875518748573</speed>
  <fix>3d</fix>
</trkpt>
<trkpt lat="33.8102437" lon="-118.3939455">
  <ele>-0.109</ele>
  <time>2026-09-02T22:07:20Z</time>
  <course>186.51</course>
  <speed>0.7213875518748573</speed>
  <fix>3d</fix>
</trkpt>
<trkpt lat="33.8102437" lon="-118.3939455">
  <ele>-0.109</ele>
  <time>2026-09-02T22:07:20Z</time>
  <course>186.51</course>
  <speed>0.7213875518748573</speed>
  <fix>3d</fix>
</trkpt>
<trkpt lat="33.8102437" lon="-118.3939456">
  <ele>-0.109</ele>
  <time>2026-09-02T22:07:20Z</time>
  <course>186.51</course>
  <speed>0.7213875518748573</speed>
  <fix>3d</fix>
</trkpt>
<trkpt lat="33.8102436" lon="-118.3939456">
  <ele>-0.109</ele>
  <time>2026-09-02T22:07:20Z</time>
  <course>186.51</course>
  <speed>0.7213875518748573</speed>
  <fix>3d</fix>
</trkpt>
<trkpt lat="33.8102436" lon="-118.3939456">
  <ele>-0.109</ele>
  <time>2026-09-02T22:07:20Z</time>
  <course>186.51</course>
  <speed>0.7213875518748573</speed>
  <fix>3d</fix>
</trkpt>
<trkpt lat="33.8102441" lon="-118.3939446">
  <ele>-0.1</ele>
  <time>2026-09-02T22:07:20Z</time>
  <course>223.26</course>
  <speed>0.73</speed>
  <fix>3d</fix>
</trkpt>
<trkpt lat="33.8102436" lon="-118.3939457">
  <ele>-0.109</ele>
  <time>2026-09-02T22:07:20Z</time>
  <course>186.51</course>
  <speed>0.7213875518748573</speed>
  <fix>3d</fix>
</trkpt>
<trkpt lat="33.8102435" lon="-118.3939457">
  <ele>-0.109</ele>
  <time>2026-09-02T22:07:20Z</time>
  <course>186.51</course>
  <speed>0.7213875518748573</speed>
  <fix>3d</fix>
</trkpt>
<trkpt lat="33.8102435" lon="-118.3939458">
  <ele>-0.109</ele>
  <time>2026-09-02T22:07:20Z</time>
  <course>186.51</course>
  <speed>0.7213875518748573</speed>
  <fix>3d</fix>
</trkpt>
<trkpt lat="33.8102435" lon="-118.3939458">
  <ele>-0.109</ele>
  <time>2026-09-02T22:07:20Z</time>
  <course>186.51</course>
  <speed>0.7213875518748573</speed>
  <fix>3d</fix>
</trkpt>
<trkpt lat="33.8102434" lon="-118.3939459">
  <ele>-0.109</ele>
  <time>2026-09-02T22:07:20Z</time>
  <course>186.51</course>
  <speed>0.7213875518748573</speed>
  <fix>3d</fix>
</trkpt>
<trkpt lat="33.8102434" lon="-118.3939459">
  <ele>-0.109</ele>
  <time>2026-09-02T22:07:20Z</time>
  <course>186.51</course>
  <speed>0.7213875518748573</speed>
  <fix>3d</fix>
</trkpt>
<trkpt lat="33.8102433" lon="-118.393946">
  <ele>-0.109</ele>
  <time>2026-09-02T22:07:20Z</time>
  <course>186.51</course>
  <speed>0.7213875518748573</speed>
  <fix>3d</fix>
</trkpt>
<trkpt lat="33.8102433" lon="-118.393946">
  <ele>-0.109</ele>
  <time>2026-09-02T22:07:20Z</time>
  <course>186.51</course>
  <speed>0.7213875518748573</speed>
  <fix>3d</fix>
</trkpt>
<trkpt lat="33.8102432" lon="-118.3939461">
  <ele>-0.109</ele>
  <time>2026-09-02T22:07:20Z</time>
  <course>186.51</course>
  <speed>0.7213875518748573</speed>
  <fix>3d</fix>
</trkpt>
<trkpt lat="33.8102432" lon="-118.3939461">
  <ele>-0.11</ele>
  <time>2026-09-02T22:07:20Z</time>
  <course>186.51</course>
  <speed>0.7213875518748573</speed>
  <fix>3d</fix>
</trkpt>
<trkpt lat="33.8102432" lon="-118.3939462">
  <ele>-0.11</ele>
  <time>2026-09-02T22:07:20Z</time>
  <course>186.51</course>
  <speed>0.7213875518748573</speed>
  <fix>3d</fix>
</trkpt>
<trkpt lat="33.8102431" lon="-118.3939462">
  <ele>-0.11</ele>
  <time>2026-09-02T22:07:20Z</time>
  <course>186.51</course>
  <speed>0.7213875518748573</speed>
  <fix>3d</fix>
</trkpt>
<trkpt lat="33.8102441" lon="-118.3939446">
  <ele>-0.1</ele>
  <time>2026-09-02T22:07:20Z</time>
  <course>223.26</course>
  <speed>0.73</speed>
  <fix>3d</fix>
</trkpt>
<trkpt lat="33.8102431" lon="-118.3939462">
  <ele>-0.11</ele>
  <time>2026-09-02T22:07:20Z</time>
  <course>186.51</course>
  <speed>0.7213875518748573</speed>
  <fix>3d</fix>
</trkpt>
<trkpt lat="33.8102431" lon="-118.3939463">
  <ele>-0.11</ele>
  <time>2026-09-02T22:07:20Z</time>
  <course>186.51</course>
  <speed>0.7213875518748573</speed>
  <fix>3d</fix>
</trkpt>
<trkpt lat="33.810243" lon="-118.3939463">
  <ele>-0.11</ele>
  <time>2026-09-02T22:07:20Z</time>
  <course>186.51</course>
  <speed>0.7213875518748573</speed>
  <fix>3d</fix>
</trkpt>
<trkpt lat="33.810243" lon="-118.3939464">
  <ele>-0.11</ele>
  <time>2026-09-02T22:07:20Z</time>
  <course>186.51</course>
  <speed>0.7213875518748573</speed>
  <fix>3d</fix>
</trkpt>
<trkpt lat="33.8102429" lon="-118.3939464">
  <ele>-0.11</ele>
  <time>2026-09-02T22:07:20Z</time>
  <course>186.51</course>
  <speed>0.7213875518748573</speed>
  <fix>3d</fix>
</trkpt>
<trkpt lat="33.8102429" lon="-118.3939465">
  <ele>-0.11</ele>
  <time>2026-09-02T22:07:20Z</time>
  <course>186.51</course>
  <speed>0.7213875518748573</speed>
  <fix>3d</fix>
</trkpt>
<trkpt lat="33.8102429" lon="-118.3939465">
  <ele>-0.11</ele>
  <time>2026-09-02T22:07:20Z</time>
  <course>186.51</course>
  <speed>0.7213875518748573</speed>
  <fix>3d</fix>
</trkpt>
<trkpt lat="33.8102428" lon="-118.3939465">
  <ele>-0.11</ele>
  <time>2026-09-02T22:07:20Z</time>
  <course>186.51</course>
  <speed>0.7213875518748573</speed>
  <fix>3d</fix>
</trkpt>
<trkpt lat="33.8102428" lon="-118.3939466">
  <ele>-0.11</ele>
  <time>2026-09-02T22:07:20Z</time>
  <course>186.51</course>
  <speed>0.7213875518748573</speed>
  <fix>3d</fix>
</trkpt>
<trkpt lat="33.8102427" lon="-118.3939466">
  <ele>-0.111</ele>
  <time>2026-09-02T22:07:20Z</time>
  <course>186.51</course>
  <speed>0.7213875518748573</speed>
  <fix>3d</fix>
</trkpt>
<trkpt lat="33.8102427" lon="-118.3939467">
  <ele>-0.111</ele>
  <time>2026-09-02T22:07:20Z</time>
  <course>186.51</course>
  <speed>0.7213875518748573</speed>
  <fix>3d</fix>
</trkpt>
<trkpt lat="33.8102427" lon="-118.3939467">
  <ele>-0.111</ele>
  <time>2026-09-02T22:07:20Z</time>
  <course>186.51</course>
  <speed>0.7213875518748573</speed>
  <fix>3d</fix>
</trkpt>
<trkpt lat="33.8102426" lon="-118.3939467">
  <ele>-0.111</ele>
  <time>2026-09-02T22:07:20Z</time>
  <course>186.51</course>
  <speed>0.7213875518748573</speed>
  <fix>3d</fix>
</trkpt>
<trkpt lat="33.8102431" lon="-118.3939457">
  <ele>-0.1</ele>
  <time>2026-09-02T22:07:20Z</time>
  <course>223.26</course>
  <speed>0.73</speed>
  <fix>3d</fix>
</trkpt>
<trkpt lat="33.8102426" lon="-118.3939467">
  <ele>-0.111</ele>
  <time>2026-09-02T22:07:20Z</time>
  <course>186.51</course>
  <speed>0.7213875518748573</speed>
  <fix>3d</fix>
</trkpt>
<trkpt lat="33.8102426" lon="-118.3939468">
  <ele>-0.111</ele>
  <time>2026-09-02T22:07:20Z</time>
  <course>186.51</course>
  <speed>0.7213875518748573</speed>
  <fix>3d</fix>
</trkpt>
<trkpt lat="33.8102425" lon="-118.3939469">
  <ele>-0.111</ele>
  <time>2026-09-02T22:07:20Z</time>
  <course>186.51</course>
  <speed>0.7213875518748573</speed>
  <fix>3d</fix>
</trkpt>
<trkpt lat="33.8102425" lon="-118.3939469">
  <ele>-0.111</ele>
  <time>2026-09-02T22:07:20Z</time>
  <course>186.51</course>
  <speed>0.7213875518748573</speed>
  <fix>3d</fix>
</trkpt>
<trkpt lat="33.8102424" lon="-118.393947">
  <ele>-0.111</ele>
  <time>2026-09-02T22:07:20Z</time>
  <course>186.51</course>
  <speed>0.7213875518748573</speed>
  <fix>3d</fix>
</trkpt>
<trkpt lat="33.8102424" lon="-118.393947">
  <ele>-0.111</ele>
  <time>2026-09-02T22:07:20Z</time>
  <course>186.51</course>
  <speed>0.7213875518748573</speed>
  <fix>3d</fix>
</trkpt>
<trkpt lat="33.8102424" lon="-118.393947">
  <ele>-0.111</ele>
  <time>2026-09-02T22:07:20Z</time>
  <course>186.5</course>
  <speed>0.7213875518748573</speed>
  <fix>3d</fix>
</trkpt>
<trkpt lat="33.8102423" lon="-118.3939471">
  <ele>-0.111</ele>
  <time>2026-09-02T22:07:20Z</time>
  <course>186.5</course>
  <speed>0.7213875518748573</speed>
  <fix>3d</fix>
</trkpt>
<trkpt lat="33.8102423" lon="-118.3939471">
  <ele>-0.112</ele>
  <time>2026-09-02T22:07:20Z</time>
  <course>186.5</course>
  <speed>0.7213875518748573</speed>
  <fix>3d</fix>
</trkpt>
<trkpt lat="33.8102422" lon="-118.3939472">
  <ele>-0.112</ele>
  <time>2026-09-02T22:07:20Z</time>
  <course>186.5</course>
  <speed>0.7213875518748573</speed>
  <fix>3d</fix>
</trkpt>
<trkpt lat="33.8102422" lon="-118.3939472">
  <ele>-0.112</ele>
  <time>2026-09-02T22:07:20Z</time>
  <course>186.5</course>
  <speed>0.7213875518748573</speed>
  <fix>3d</fix>
</trkpt>
<trkpt lat="33.8102422" lon="-118.3939473">
  <ele>-0.112</ele>
  <time>2026-09-02T22:07:20Z</time>
  <course>186.5</course>
  <speed>0.7213875518748573</speed>
  <fix>3d</fix>
</trkpt>
<trkpt lat="33.8102422" lon="-118.3939473">
  <ele>-0.112</ele>
  <time>2026-09-02T22:07:20Z</time>
  <course>186.5</course>
  <speed>0.7213875518748573</speed>
  <fix>3d</fix>
</trkpt>
<trkpt lat="33.8102431" lon="-118.3939457">
  <ele>-0.1</ele>
  <time>2026-09-02T22:07:20Z</time>
  <course>223.26</course>
  <speed>0.73</speed>
  <fix>3d</fix>
</trkpt>
<trkpt lat="33.8102421" lon="-118.3939473">
  <ele>-0.112</ele>
  <time>2026-09-02T22:07:20Z</time>
  <course>186.5</course>
  <speed>0.7213875518748573</speed>
  <fix>3d</fix>
</trkpt>
<trkpt lat="33.810242" lon="-118.3939474">
  <ele>-0.112</ele>
  <time>2026-09-02T22:07:20Z</time>
  <course>186.5</course>
  <speed>0.7213875518748573</speed>
  <fix>3d</fix>
</trkpt>
<trkpt lat="33.810242" lon="-118.3939475">
  <ele>-0.112</ele>
  <time>2026-09-02T22:07:20Z</time>
  <course>186.5</course>
  <speed>0.7213875518748573</speed>
  <fix>3d</fix>
</trkpt>
<trkpt lat="33.810242" lon="-118.3939475">
  <ele>-0.112</ele>
  <time>2026-09-02T22:07:20Z</time>
  <course>186.5</course>
  <speed>0.7213875518748573</speed>
  <fix>3d</fix>
</trkpt>
<trkpt lat="33.8102419" lon="-118.3939475">
  <ele>-0.113</ele>
  <time>2026-09-02T22:07:20Z</time>
  <course>186.5</course>
  <speed>0.7213875518748573</speed>
  <fix>3d</fix>
</trkpt>
<trkpt lat="33.8102419" lon="-118.3939476">
  <ele>-0.113</ele>
  <time>2026-09-02T22:07:20Z</time>
  <course>186.5</course>
  <speed>0.7213875518748573</speed>
  <fix>3d</fix>
</trkpt>
<trkpt lat="33.8102419" lon="-118.3939476">
  <ele>-0.113</ele>
  <time>2026-09-02T22:07:20Z</time>
  <course>186.5</course>
  <speed>0.7213875518748573</speed>
  <fix>3d</fix>
</trkpt>
<trkpt lat="33.8102418" lon="-118.3939477">
  <ele>-0.113</ele>
  <time>2026-09-02T22:07:20Z</time>
  <course>186.5</course>
  <speed>0.7213875518748573</speed>
  <fix>3d</fix>
</trkpt>
<trkpt lat="33.8102418" lon="-118.3939477">
  <ele>-0.113</ele>
  <time>2026-09-02T22:07:20Z</time>
  <course>186.5</course>
  <speed>0.7213875518748573</speed>
  <fix>3d</fix>
</trkpt>
<trkpt lat="33.8102417" lon="-118.3939478">
  <ele>-0.113</ele>
  <time>2026-09-02T22:07:20Z</time>
  <course>186.5</course>
  <speed>0.7213875518748573</speed>
  <fix>3d</fix>
</trkpt>
<trkpt lat="33.8102417" lon="-118.3939478">
  <ele>-0.113</ele>
  <time>2026-09-02T22:07:20Z</time>
  <course>186.5</course>
  <speed>0.7213875518748573</speed>
  <fix>3d</fix>
</trkpt>
<trkpt lat="33.8102417" lon="-118.3939478">
  <ele>-0.113</ele>
  <time>2026-09-02T22:07:20Z</time>
  <course>186.5</course>
  <speed>0.7213875518748573</speed>
  <fix>3d</fix>
</trkpt>
<trkpt lat="33.8102422" lon="-118.3939468">
  <ele>-0.1</ele>
  <time>2026-09-02T22:07:20Z</time>
  <course>223.26</course>
  <speed>0.73</speed>
  <fix>3d</fix>
</trkpt>
<trkpt lat="33.8102416" lon="-118.3939479">
  <ele>-0.113</ele>
  <time>2026-09-02T22:07:20Z</time>
  <course>186.5</course>
  <speed>0.7213875518748573</speed>
  <fix>3d</fix>
</trkpt>
<trkpt lat="33.8102416" lon="-118.3939479">
  <ele>-0.113</ele>
  <time>2026-09-02T22:07:20Z</time>
  <course>186.5</course>
  <speed>0.7213875518748573</speed>
  <fix>3d</fix>
</trkpt>
<trkpt lat="33.8102415" lon="-118.393948">
  <ele>-0.113</ele>
  <time>2026-09-02T22:07:20Z</time>
  <course>186.5</course>
  <speed>0.7213875518748573</speed>
  <fix>3d</fix>
</trkpt>
<trkpt lat="33.8102415" lon="-118.393948">
  <ele>-0.113</ele>
  <time>2026-09-02T22:07:20Z</time>
  <course>186.5</course>
  <speed>0.7213875518748573</speed>
  <fix>3d</fix>
</trkpt>
<trkpt lat="33.8102414" lon="-118.3939481">
  <ele>-0.113</ele>
  <time>2026-09-02T22:07:20Z</time>
  <course>186.5</course>
  <speed>0.7213875518748573</speed>
  <fix>3d</fix>
</trkpt>
<trkpt lat="33.8102414" lon="-118.3939481">
  <ele>-0.113</ele>
  <time>2026-09-02T22:07:20Z</time>
  <course>186.5</course>
  <speed>0.7213875518748573</speed>
  <fix>3d</fix>
</trkpt>
<trkpt lat="33.8102414" lon="-118.3939482">
  <ele>-0.113</ele>
  <time>2026-09-02T22:07:20Z</time>
  <course>186.5</course>
  <speed>0.7213875518748573</speed>
  <fix>3d</fix>
</trkpt>
<trkpt lat="33.8102413" lon="-118.3939482">
  <ele>-0.113</ele>
  <time>2026-09-02T22:07:20Z</time>
  <course>186.5</course>
  <speed>0.7213875518748573</speed>
  <fix>3d</fix>
</trkpt>
<trkpt lat="33.8102413" lon="-118.3939483">
  <ele>-0.113</ele>
  <time>2026-09-02T22:07:20Z</time>
  <course>186.5</course>
  <speed>0.7213875518748573</speed>
  <fix>3d</fix>
</trkpt>
<trkpt lat="33.8102413" lon="-118.3939483">
  <ele>-0.113</ele>
  <time>2026-09-02T22:07:20Z</time>
  <course>186.5</course>
  <speed>0.7213875518748573</speed>
  <fix>3d</fix>
</trkpt>
<trkpt lat="33.8102412" lon="-118.3939483">
  <ele>-0.113</ele>
  <time>2026-09-02T22:07:20Z</time>
  <course>186.5</course>
  <speed>0.7213875518748573</speed>
  <fix>3d</fix>
</trkpt>
<trkpt lat="33.8102412" lon="-118.3939483">
  <ele>-0.113</ele>
  <time>2026-09-02T22:07:20Z</time>
  <course>186.5</course>
  <speed>0.7213875518748573</speed>
  <fix>3d</fix>
</trkpt>
<trkpt lat="33.8102422" lon="-118.3939468">
  <ele>-0.1</ele>
  <time>2026-09-02T22:07:20Z</time>
  <course>223.26</course>
  <speed>0.73</speed>
  <fix>3d</fix>
</trkpt>
<trkpt lat="33.8102411" lon="-118.3939484">
  <ele>-0.113</ele>
  <time>2026-09-02T22:07:20Z</time>
  <course>186.5</course>
  <speed>0.7213875518748573</speed>
  <fix>3d</fix>
</trkpt>
<trkpt lat="33.8102411" lon="-118.3939485">
  <ele>-0.113</ele>
  <time>2026-09-02T22:07:20Z</time>
  <course>186.5</course>
  <speed>0.7213875518748573</speed>
  <fix>3d</fix>
</trkpt>
<trkpt lat="33.810241" lon="-118.3939485">
  <ele>-0.113</ele>
  <time>2026-09-02T22:07:20Z</time>
  <course>186.5</course>
  <speed>0.7213875518748573</speed>
  <fix>3d</fix>
</trkpt>
<trkpt lat="33.810241" lon="-118.3939486">
  <ele>-0.113</ele>
  <time>2026-09-02T22:07:20Z</time>
  <course>186.5</course>
  <speed>0.7213875518748573</speed>
  <fix>3d</fix>
</trkpt>
<trkpt lat="33.810241" lon="-118.3939486">
  <ele>-0.113</ele>
  <time>2026-09-02T22:07:20Z</time>
  <course>186.5</course>
  <speed>0.7213875518748573</speed>
  <fix>3d</fix>
</trkpt>
<trkpt lat="33.8102409" lon="-118.3939487">
  <ele>-0.113</ele>
  <time>2026-09-02T22:07:20Z</time>
  <course>186.5</course>
  <speed>0.7213875518748573</speed>
  <fix>3d</fix>
</trkpt>
<trkpt lat="33.8102409" lon="-118.3939487">
  <ele>-0.112</ele>
  <time>2026-09-02T22:07:20Z</time>
  <course>186.5</course>
  <speed>0.7213875518748573</speed>
  <fix>3d</fix>
</trkpt>
<trkpt lat="33.8102408" lon="-118.3939488">
  <ele>-0.112</ele>
  <time>2026-09-02T22:07:20Z</time>
  <course>186.5</course>
  <speed>0.7213875518748573</speed>
  <fix>3d</fix>
</trkpt>
<trkpt lat="33.8102408" lon="-118.3939488">
  <ele>-0.112</ele>
  <time>2026-09-02T22:07:20Z</time>
  <course>186.5</course>
  <speed>0.7213875518748573</speed>
  <fix>3d</fix>
</trkpt>
<trkpt lat="33.8102408" lon="-118.3939488">
  <ele>-0.112</ele>
  <time>2026-09-02T22:07:20Z</time>
  <course>186.5</course>
  <speed>0.7213875518748573</speed>
  <fix>3d</fix>
</trkpt>
<trkpt lat="33.8102407" lon="-118.3939489">
  <ele>-0.112</ele>
  <time>2026-09-02T22:07:20Z</time>
  <course>186.5</course>
  <speed>0.7213875518748573</speed>
  <fix>3d</fix>
</trkpt>
<trkpt lat="33.8102407" lon="-118.3939489">
  <ele>-0.112</ele>
  <time>2026-09-02T22:07:20Z</time>
  <course>186.49</course>
  <speed>0.7213875518748573</speed>
  <fix>3d</fix>
</trkpt>
<trkpt lat="33.8102412" lon="-118.3939479">
  <ele>-0.11</ele>
  <time>2026-09-02T22:07:20Z</time>
  <course>223.26</course>
  <speed>0.73</speed>
  <fix>3d</fix>
</trkpt>
<trkpt lat="33.8102407" lon="-118.3939489">
  <ele>-0.112</ele>
  <time>2026-09-02T22:07:20Z</time>
  <course>186.49</course>
  <speed>0.7213875518748573</speed>
  <fix>3d</fix>
</trkpt>
<trkpt lat="33.8102406" lon="-118.393949">
  <ele>-0.112</ele>
  <time>2026-09-02T22:07:20Z</time>
  <course>186.49</course>
  <speed>0.7213875518748573</speed>
  <fix>3d</fix>
</trkpt>
<trkpt lat="33.8102406" lon="-118.3939491">
  <ele>-0.111</ele>
  <time>2026-09-02T22:07:20Z</time>
  <course>186.49</course>
  <speed>0.7213875518748573</speed>
  <fix>3d</fix>
</trkpt>
<trkpt lat="33.8102405" lon="-118.3939491">
  <ele>-0.111</ele>
  <time>2026-09-02T22:07:20Z</time>
  <course>186.49</course>
  <speed>0.7213875518748573</speed>
  <fix>3d</fix>
</trkpt>
<trkpt lat="33.8102405" lon="-118.3939491">
  <ele>-0.111</ele>
  <time>2026-09-02T22:07:20Z</time>
  <course>186.49</course>
  <speed>0.7213875518748573</speed>
  <fix>3d</fix>
</trkpt>
<trkpt lat="33.8102405" lon="-118.3939492">
  <ele>-0.111</ele>
  <time>2026-09-02T22:07:20Z</time>
  <course>186.49</course>
  <speed>0.7213875518748573</speed>
  <fix>3d</fix>
</trkpt>
<trkpt lat="33.8102404" lon="-118.3939492">
  <ele>-0.111</ele>
  <time>2026-09-02T22:07:20Z</time>
  <course>186.49</course>
  <speed>0.7213875518748573</speed>
  <fix>3d</fix>
</trkpt>
<trkpt lat="33.8102404" lon="-118.3939493">
  <ele>-0.111</ele>
  <time>2026-09-02T22:07:20Z</time>
  <course>186.49</course>
  <speed>0.7213875518748573</speed>
  <fix>3d</fix>
</trkpt>
<trkpt lat="33.8102403" lon="-118.3939493">
  <ele>-0.111</ele>
  <time>2026-09-02T22:07:20Z</time>
  <course>186.49</course>
  <speed>0.7213875518748573</speed>
  <fix>3d</fix>
</trkpt>
<trkpt lat="33.8102403" lon="-118.3939494">
  <ele>-0.111</ele>
  <time>2026-09-02T22:07:20Z</time>
  <course>186.49</course>
  <speed>0.7213875518748573</speed>
  <fix>3d</fix>
</trkpt>
<trkpt lat="33.8102403" lon="-118.3939494">
  <ele>-0.111</ele>
  <time>2026-09-02T22:07:20Z</time>
  <course>186.49</course>
  <speed>0.7213875518748573</speed>
  <fix>3d</fix>
</trkpt>
<trkpt lat="33.8102402" lon="-118.3939494">
  <ele>-0.11</ele>
  <time>2026-09-02T22:07:20Z</time>
  <course>186.49</course>
  <speed>0.7213875518748573</speed>
  <fix>3d</fix>
</trkpt>
<trkpt lat="33.8102412" lon="-118.3939479">
  <ele>-0.11</ele>
  <time>2026-09-02T22:07:20Z</time>
  <course>223.26</course>
  <speed>0.73</speed>
  <fix>3d</fix>
</trkpt>
<trkpt lat="33.8102402" lon="-118.3939495">
  <ele>-0.11</ele>
  <time>2026-09-02T22:07:20Z</time>
  <course>186.49</course>
  <speed>0.7213875518748573</speed>
  <fix>3d</fix>
</trkpt>
<trkpt lat="33.8102402" lon="-118.3939495">
  <ele>-0.11</ele>
  <time>2026-09-02T22:07:20Z</time>
  <course>186.49</course>
  <speed>0.7213875518748573</speed>
  <fix>3d</fix>
</trkpt>
<trkpt lat="33.8102401" lon="-118.3939496">
  <ele>-0.11</ele>
  <time>2026-09-02T22:07:20Z</time>
  <course>186.49</course>
  <speed>0.7213875518748573</speed>
  <fix>3d</fix>
</trkpt>
<trkpt lat="33.8102401" lon="-118.3939496">
  <ele>-0.11</ele>
  <time>2026-09-02T22:07:20Z</time>
  <course>186.49</course>
  <speed>0.7213875518748573</speed>
  <fix>3d</fix>
</trkpt>
<trkpt lat="33.8102401" lon="-118.3939496">
  <ele>-0.11</ele>
  <time>2026-09-02T22:07:20Z</time>
  <course>186.49</course>
  <speed>0.7213875518748573</speed>
  <fix>3d</fix>
</trkpt>
<trkpt lat="33.81024" lon="-118.3939497">
  <ele>-0.11</ele>
  <time>2026-09-02T22:07:20Z</time>
  <course>186.49</course>
  <speed>0.7213875518748573</speed>
  <fix>3d</fix>
</trkpt>
<trkpt lat="33.81024" lon="-118.3939497">
  <ele>-0.11</ele>
  <time>2026-09-02T22:07:20Z</time>
  <course>186.49</course>
  <speed>0.7213875518748573</speed>
  <fix>3d</fix>
</trkpt>
<trkpt lat="33.8102399" lon="-118.3939498">
  <ele>-0.11</ele>
  <time>2026-09-02T22:07:20Z</time>
  <course>186.49</course>
  <speed>0.7213875518748573</speed>
  <fix>3d</fix>
</trkpt>
<trkpt lat="33.8102399" lon="-118.3939498">
  <ele>-0.11</ele>
  <time>2026-09-02T22:07:20Z</time>
  <course>186.49</course>
  <speed>0.7213875518748573</speed>
  <fix>3d</fix>
</trkpt>
<trkpt lat="33.8102398" lon="-118.3939499">
  <ele>-0.11</ele>
  <time>2026-09-02T22:07:20Z</time>
  <course>186.49</course>
  <speed>0.7213875518748573</speed>
  <fix>3d</fix>
</trkpt>
<trkpt lat="33.8102398" lon="-118.3939499">
  <ele>-0.11</ele>
  <time>2026-09-02T22:07:20Z</time>
  <course>186.49</course>
  <speed>0.7213875518748573</speed>
  <fix>3d</fix>
</trkpt>
<trkpt lat="33.8102398" lon="-118.39395">
  <ele>-0.11</ele>
  <time>2026-09-02T22:07:20Z</time>
  <course>186.49</course>
  <speed>0.7213875518748573</speed>
  <fix>3d</fix>
</trkpt>
<trkpt lat="33.8102398" lon="-118.39395">
  <ele>-0.11</ele>
  <time>2026-09-02T22:07:20Z</time>
  <course>186.49</course>
  <speed>0.7213875518748573</speed>
  <fix>3d</fix>
</trkpt>
<trkpt lat="33.8102402" lon="-118.393949">
  <ele>-0.1</ele>
  <time>2026-09-02T22:07:20Z</time>
  <course>223.26</course>
  <speed>0.73</speed>
  <fix>3d</fix>
</trkpt>
<trkpt lat="33.8102397" lon="-118.3939501">
  <ele>-0.11</ele>
  <time>2026-09-02T22:07:20Z</time>
  <course>186.49</course>
  <speed>0.7213875518748573</speed>
  <fix>3d</fix>
</trkpt>
<trkpt lat="33.8102396" lon="-118.3939501">
  <ele>-0.11</ele>
  <time>2026-09-02T22:07:20Z</time>
  <course>186.49</course>
  <speed>0.7213875518748573</speed>
  <fix>3d</fix>
</trkpt>
<trkpt lat="33.8102396" lon="-118.3939502">
  <ele>-0.11</ele>
  <time>2026-09-02T22:07:20Z</time>
  <course>186.49</course>
  <speed>0.7213875518748573</speed>
  <fix>3d</fix>
</trkpt>
<trkpt lat="33.8102396" lon="-118.3939502">
  <ele>-0.11</ele>
  <time>2026-09-02T22:07:20Z</time>
  <course>186.49</course>
  <speed>0.7213875518748573</speed>
  <fix>3d</fix>
</trkpt>
<trkpt lat="33.8102395" lon="-118.3939502">
  <ele>-0.109</ele>
  <time>2026-09-02T22:07:20Z</time>
  <course>186.49</course>
  <speed>0.7213875518748573</speed>
  <fix>3d</fix>
</trkpt>
<trkpt lat="33.8102395" lon="-118.3939503">
  <ele>-0.109</ele>
  <time>2026-09-02T22:07:20Z</time>
  <course>186.49</course>
  <speed>0.7213875518748573</speed>
  <fix>3d</fix>
</trkpt>
<trkpt lat="33.8102394" lon="-118.3939503">
  <ele>-0.109</ele>
  <time>2026-09-02T22:07:20Z</time>
  <course>186.49</course>
  <speed>0.7213875518748573</speed>
  <fix>3d</fix>
</trkpt>
<trkpt lat="33.8102394" lon="-118.3939504">
  <ele>-0.109</ele>
  <time>2026-09-02T22:07:20Z</time>
  <course>186.49</course>
  <speed>0.7213875518748573</speed>
  <fix>3d</fix>
</trkpt>
<trkpt lat="33.8102394" lon="-118.3939504">
  <ele>-0.109</ele>
  <time>2026-09-02T22:07:20Z</time>
  <course>186.49</course>
  <speed>0.7213875518748573</speed>
  <fix>3d</fix>
</trkpt>
<trkpt lat="33.8102393" lon="-118.3939505">
  <ele>-0.109</ele>
  <time>2026-09-02T22:07:20Z</time>
  <course>186.49</course>
  <speed>0.7213875518748573</speed>
  <fix>3d</fix>
</trkpt>
<trkpt lat="33.8102393" lon="-118.3939505">
  <ele>-0.109</ele>
  <time>2026-09-02T22:07:20Z</time>
  <course>186.49</course>
  <speed>0.7213875518748573</speed>
  <fix>3d</fix>
</trkpt>
<trkpt lat="33.8102393" lon="-118.3939505">
  <ele>-0.109</ele>
  <time>2026-09-02T22:07:20Z</time>
  <course>186.49</course>
  <speed>0.7213875518748573</speed>
  <fix>3d</fix>
</trkpt>
<trkpt lat="33.8102402" lon="-118.393949">
  <ele>-0.1</ele>
  <time>2026-09-02T22:07:20Z</time>
  <course>223.26</course>
  <speed>0.73</speed>
  <fix>3d</fix>
</trkpt>
<trkpt lat="33.8102392" lon="-118.3939506">
  <ele>-0.109</ele>
  <time>2026-09-02T22:07:21Z</time>
  <course>186.49</course>
  <speed>0.7213875518748573</speed>
  <fix>3d</fix>
</trkpt>
<trkpt lat="33.8102392" lon="-118.3939507">
  <ele>-0.109</ele>
  <time>2026-09-02T22:07:21Z</time>
  <course>186.49</course>
  <speed>0.7213875518748573</speed>
  <fix>3d</fix>
</trkpt>
<trkpt lat="33.8102391" lon="-118.3939507">
  <ele>-0.109</ele>
  <time>2026-09-02T22:07:21Z</time>
  <course>186.49</course>
  <speed>0.7213875518748573</speed>
  <fix>3d</fix>
</trkpt>
<trkpt lat="33.8102391" lon="-118.3939508">
  <ele>-0.109</ele>
  <time>2026-09-02T22:07:21Z</time>
  <course>186.49</course>
  <speed>0.7213875518748573</speed>
  <fix>3d</fix>
</trkpt>
<trkpt lat="33.810239" lon="-118.3939508">
  <ele>-0.109</ele>
  <time>2026-09-02T22:07:21Z</time>
  <course>186.49</course>
  <speed>0.7213875518748573</speed>
  <fix>3d</fix>
</trkpt>
<trkpt lat="33.810239" lon="-118.3939509">
  <ele>-0.109</ele>
  <time>2026-09-02T22:07:21Z</time>
  <course>186.49</course>
  <speed>0.7213875518748573</speed>
  <fix>3d</fix>
</trkpt>
<trkpt lat="33.8102389" lon="-118.3939509">
  <ele>-0.109</ele>
  <time>2026-09-02T22:07:21Z</time>
  <course>186.49</course>
  <speed>0.7213875518748573</speed>
  <fix>3d</fix>
</trkpt>
<trkpt lat="33.8102389" lon="-118.393951">
  <ele>-0.109</ele>
  <time>2026-09-02T22:07:21Z</time>
  <course>186.49</course>
  <speed>0.7213875518748573</speed>
  <fix>3d</fix>
</trkpt>
<trkpt lat="33.8102388" lon="-118.393951">
  <ele>-0.11</ele>
  <time>2026-09-02T22:07:21Z</time>
  <course>186.48</course>
  <speed>0.7213875518748573</speed>
  <fix>3d</fix>
</trkpt>
<trkpt lat="33.8102388" lon="-118.3939511">
  <ele>-0.11</ele>
  <time>2026-09-02T22:07:21Z</time>
  <course>186.48</course>
  <speed>0.7213875518748573</speed>
  <fix>3d</fix>
</trkpt>
<trkpt lat="33.8102393" lon="-118.3939501">
  <ele>-0.1</ele>
  <time>2026-09-02T22:07:21Z</time>
  <course>223.26</course>
  <speed>0.73</speed>
  <fix>3d</fix>
</trkpt>
<trkpt lat="33.8102388" lon="-118.3939511">
  <ele>-0.11</ele>
  <time>2026-09-02T22:07:21Z</time>
  <course>186.48</course>
  <speed>0.7213875518748573</speed>
  <fix>3d</fix>
</trkpt>
<trkpt lat="33.8102387" lon="-118.3939512">
  <ele>-0.11</ele>
  <time>2026-09-02T22:07:21Z</time>
  <course>186.48</course>
  <speed>0.7213875518748573</speed>
  <fix>3d</fix>
</trkpt>
<trkpt lat="33.8102387" lon="-118.3939512">
  <ele>-0.11</ele>
  <time>2026-09-02T22:07:21Z</time>
  <course>186.48</course>
  <speed>0.7213875518748573</speed>
  <fix>3d</fix>
</trkpt>
<trkpt lat="33.8102386" lon="-118.3939513">
  <ele>-0.11</ele>
  <time>2026-09-02T22:07:21Z</time>
  <course>186.48</course>
  <speed>0.7213875518748573</speed>
  <fix>3d</fix>
</trkpt>
<trkpt lat="33.8102386" lon="-118.3939513">
  <ele>-0.11</ele>
  <time>2026-09-02T22:07:21Z</time>
  <course>186.48</course>
  <speed>0.7213875518748573</speed>
  <fix>3d</fix>
</trkpt>
<trkpt lat="33.8102386" lon="-118.3939513">
  <ele>-0.111</ele>
  <time>2026-09-02T22:07:21Z</time>
  <course>186.48</course>
  <speed>0.7213875518748573</speed>
  <fix>3d</fix>
</trkpt>
<trkpt lat="33.8102385" lon="-118.3939514">
  <ele>-0.111</ele>
  <time>2026-09-02T22:07:21Z</time>
  <course>186.48</course>
  <speed>0.7213875518748573</speed>
  <fix>3d</fix>
</trkpt>
<trkpt lat="33.8102385" lon="-118.3939514">
  <ele>-0.111</ele>
  <time>2026-09-02T22:07:21Z</time>
  <course>186.48</course>
  <speed>0.7213875518748573</speed>
  <fix>3d</fix>
</trkpt>
<trkpt lat="33.8102385" lon="-118.3939515">
  <ele>-0.111</ele>
  <time>2026-09-02T22:07:21Z</time>
  <course>186.48</course>
  <speed>0.7213875518748573</speed>
  <fix>3d</fix>
</trkpt>
<trkpt lat="33.8102384" lon="-118.3939515">
  <ele>-0.112</ele>
  <time>2026-09-02T22:07:21Z</time>
  <course>186.48</course>
  <speed>0.7213875518748573</speed>
  <fix>3d</fix>
</trkpt>
<trkpt lat="33.8102384" lon="-118.3939516">
  <ele>-0.112</ele>
  <time>2026-09-02T22:07:21Z</time>
  <course>186.48</course>
  <speed>0.7213875518748573</speed>
  <fix>3d</fix>
</trkpt>
<trkpt lat="33.8102383" lon="-118.3939516">
  <ele>-0.112</ele>
  <time>2026-09-02T22:07:21Z</time>
  <course>186.48</course>
  <speed>0.7213875518748573</speed>
  <fix>3d</fix>
</trkpt>
<trkpt lat="33.8102383" lon="-118.3939516">
  <ele>-0.112</ele>
  <time>2026-09-02T22:07:21Z</time>
  <course>186.48</course>
  <speed>0.7213875518748573</speed>
  <fix>3d</fix>
</trkpt>
<trkpt lat="33.8102393" lon="-118.3939501">
  <ele>-0.1</ele>
  <time>2026-09-02T22:07:21Z</time>
  <course>223.26</course>
  <speed>0.73</speed>
  <fix>3d</fix>
</trkpt>
<trkpt lat="33.8102382" lon="-118.3939517">
  <ele>-0.112</ele>
  <time>2026-09-02T22:07:21Z</time>
  <course>186.48</course>
  <speed>0.7213875518748573</speed>
  <fix>3d</fix>
</trkpt>
<trkpt lat="33.8102382" lon="-118.3939518">
  <ele>-0.113</ele>
  <time>2026-09-02T22:07:21Z</time>
  <course>186.48</course>
  <speed>0.7213875518748573</speed>
  <fix>3d</fix>
</trkpt>
<trkpt lat="33.8102381" lon="-118.3939518">
  <ele>-0.113</ele>
  <time>2026-09-02T22:07:21Z</time>
  <course>186.48</course>
  <speed>0.7213875518748573</speed>
  <fix>3d</fix>
</trkpt>
<trkpt lat="33.8102381" lon="-118.3939519">
  <ele>-0.113</ele>
  <time>2026-09-02T22:07:21Z</time>
  <course>186.48</course>
  <speed>0.7213875518748573</speed>
  <fix>3d</fix>
</trkpt>
<trkpt lat="33.8102381" lon="-118.3939519">
  <ele>-0.113</ele>
  <time>2026-09-02T22:07:21Z</time>
  <course>186.48</course>
  <speed>0.7213875518748573</speed>
  <fix>3d</fix>
</trkpt>
<trkpt lat="33.810238" lon="-118.3939519">
  <ele>-0.114</ele>
  <time>2026-09-02T22:07:21Z</time>
  <course>186.48</course>
  <speed>0.7213875518748573</speed>
  <fix>3d</fix>
</trkpt>
<trkpt lat="33.810238" lon="-118.393952">
  <ele>-0.114</ele>
  <time>2026-09-02T22:07:21Z</time>
  <course>186.48</course>
  <speed>0.7213875518748573</speed>
  <fix>3d</fix>
</trkpt>
<trkpt lat="33.810238" lon="-118.393952">
  <ele>-0.114</ele>
  <time>2026-09-02T22:07:21Z</time>
  <course>186.48</course>
  <speed>0.7213875518748573</speed>
  <fix>3d</fix>
</trkpt>
<trkpt lat="33.8102379" lon="-118.3939521">
  <ele>-0.114</ele>
  <time>2026-09-02T22:07:21Z</time>
  <course>186.48</course>
  <speed>0.7213875518748573</speed>
  <fix>3d</fix>
</trkpt>
<trkpt lat="33.8102379" lon="-118.3939521">
  <ele>-0.115</ele>
  <time>2026-09-02T22:07:21Z</time>
  <course>186.48</course>
  <speed>0.7213875518748573</speed>
  <fix>3d</fix>
</trkpt>
<trkpt lat="33.8102378" lon="-118.3939522">
  <ele>-0.115</ele>
  <time>2026-09-02T22:07:21Z</time>
  <course>186.48</course>
  <speed>0.7213875518748573</speed>
  <fix>3d</fix>
</trkpt>
<trkpt lat="33.8102378" lon="-118.3939522">
  <ele>-0.115</ele>
  <time>2026-09-02T22:07:21Z</time>
  <course>186.48</course>
  <speed>0.7213875518748573</speed>
  <fix>3d</fix>
</trkpt>
<trkpt lat="33.8102383" lon="-118.3939512">
  <ele>-0.1</ele>
  <time>2026-09-02T22:07:21Z</time>
  <course>223.26</course>
  <speed>0.73</speed>
  <fix>3d</fix>
</trkpt>
<trkpt lat="33.8102378" lon="-118.3939523">
  <ele>-0.115</ele>
  <time>2026-09-02T22:07:21Z</time>
  <course>186.48</course>
  <speed>0.7213875518748573</speed>
  <fix>3d</fix>
</trkpt>
<trkpt lat="33.8102377" lon="-118.3939523">
  <ele>-0.116</ele>
  <time>2026-09-02T22:07:21Z</time>
  <course>186.48</course>
  <speed>0.7213875518748573</speed>
  <fix>3d</fix>
</trkpt>
<trkpt lat="33.8102377" lon="-118.3939524">
  <ele>-0.116</ele>
  <time>2026-09-02T22:07:21Z</time>
  <course>186.48</course>
  <speed>0.7213875518748573</speed>
  <fix>3d</fix>
</trkpt>
<trkpt lat="33.8102376" lon="-118.3939524">
  <ele>-0.116</ele>
  <time>2026-09-02T22:07:21Z</time>
  <course>186.48</course>
  <speed>0.7213875518748573</speed>
  <fix>3d</fix>
</trkpt>
<trkpt lat="33.8102376" lon="-118.3939524">
  <ele>-0.116</ele>
  <time>2026-09-02T22:07:21Z</time>
  <course>186.48</course>
  <speed>0.7213875518748573</speed>
  <fix>3d</fix>
</trkpt>
<trkpt lat="33.8102376" lon="-118.3939525">
  <ele>-0.116</ele>
  <time>2026-09-02T22:07:21Z</time>
  <course>186.48</course>
  <speed>0.7213875518748573</speed>
  <fix>3d</fix>
</trkpt>
<trkpt lat="33.8102375" lon="-118.3939525">
  <ele>-0.116</ele>
  <time>2026-09-02T22:07:21Z</time>
  <course>186.48</course>
  <speed>0.7213875518748573</speed>
  <fix>3d</fix>
</trkpt>
<trkpt lat="33.8102375" lon="-118.3939526">
  <ele>-0.117</ele>
  <time>2026-09-02T22:07:21Z</time>
  <course>186.48</course>
  <speed>0.7213875518748573</speed>
  <fix>3d</fix>
</trkpt>
<trkpt lat="33.8102374" lon="-118.3939526">
  <ele>-0.117</ele>
  <time>2026-09-02T22:07:21Z</time>
  <course>186.48</course>
  <speed>0.7213875518748573</speed>
  <fix>3d</fix>
</trkpt>
<trkpt lat="33.8102374" lon="-118.3939527">
  <ele>-0.117</ele>
  <time>2026-09-02T22:07:21Z</time>
  <course>186.48</course>
  <speed>0.7213875518748573</speed>
  <fix>3d</fix>
</trkpt>
<trkpt lat="33.8102374" lon="-118.3939527">
  <ele>-0.117</ele>
  <time>2026-09-02T22:07:21Z</time>
  <course>186.48</course>
  <speed>0.7213875518748573</speed>
  <fix>3d</fix>
</trkpt>
<trkpt lat="33.8102374" lon="-118.3939527">
  <ele>-0.117</ele>
  <time>2026-09-02T22:07:21Z</time>
  <course>186.48</course>
  <speed>0.7213875518748573</speed>
  <fix>3d</fix>
</trkpt>
<trkpt lat="33.8102383" lon="-118.3939512">
  <ele>-0.1</ele>
  <time>2026-09-02T22:07:21Z</time>
  <course>223.26</course>
  <speed>0.73</speed>
  <fix>3d</fix>
</trkpt>
<trkpt lat="33.8102373" lon="-118.3939528">
  <ele>-0.117</ele>
  <time>2026-09-02T22:07:21Z</time>
  <course>186.48</course>
  <speed>0.7213875518748573</speed>
  <fix>3d</fix>
</trkpt>
<trkpt lat="33.8102372" lon="-118.3939529">
  <ele>-0.117</ele>
  <time>2026-09-02T22:07:21Z</time>
  <course>186.48</course>
  <speed>0.7213875518748573</speed>
  <fix>3d</fix>
</trkpt>
<trkpt lat="33.8102372" lon="-118.3939529">
  <ele>-0.118</ele>
  <time>2026-09-02T22:07:21Z</time>
  <course>186.48</course>
  <speed>0.7213875518748573</speed>
  <fix>3d</fix>
</trkpt>
<trkpt lat="33.8102372" lon="-118.393953">
  <ele>-0.118</ele>
  <time>2026-09-02T22:07:21Z</time>
  <course>186.48</course>
  <speed>0.7213875518748573</speed>
  <fix>3d</fix>
</trkpt>
<trkpt lat="33.8102371" lon="-118.393953">
  <ele>-0.118</ele>
  <time>2026-09-02T22:07:21Z</time>
  <course>186.48</course>
  <speed>0.7213875518748573</speed>
  <fix>3d</fix>
</trkpt>
<trkpt lat="33.8102371" lon="-118.393953">
  <ele>-0.118</ele>
  <time>2026-09-02T22:07:21Z</time>
  <course>186.48</course>
  <speed>0.7213875518748573</speed>
  <fix>3d</fix>
</trkpt>
<trkpt lat="33.810237" lon="-118.3939531">
  <ele>-0.118</ele>
  <time>2026-09-02T22:07:21Z</time>
  <course>186.48</course>
  <speed>0.7213875518748573</speed>
  <fix>3d</fix>
</trkpt>
<trkpt lat="33.810237" lon="-118.3939531">
  <ele>-0.118</ele>
  <time>2026-09-02T22:07:21Z</time>
  <course>186.48</course>
  <speed>0.7213875518748573</speed>
  <fix>3d</fix>
</trkpt>
<trkpt lat="33.810237" lon="-118.3939532">
  <ele>-0.118</ele>
  <time>2026-09-02T22:07:21Z</time>
  <course>186.48</course>
  <speed>0.7213875518748573</speed>
  <fix>3d</fix>
</trkpt>
<trkpt lat="33.8102369" lon="-118.3939532">
  <ele>-0.118</ele>
  <time>2026-09-02T22:07:21Z</time>
  <course>186.48</course>
  <speed>0.7213875518748573</speed>
  <fix>3d</fix>
</trkpt>
<trkpt lat="33.8102369" lon="-118.3939532">
  <ele>-0.118</ele>
  <time>2026-09-02T22:07:21Z</time>
  <course>186.47</course>
  <speed>0.7213875518748573</speed>
  <fix>3d</fix>
</trkpt>
<trkpt lat="33.8102369" lon="-118.3939532">
  <ele>-0.118</ele>
  <time>2026-09-02T22:07:21Z</time>
  <course>186.47</course>
  <speed>0.7213875518748573</speed>
  <fix>3d</fix>
</trkpt>
<trkpt lat="33.8102374" lon="-118.3939523">
  <ele>-0.1</ele>
  <time>2026-09-02T22:07:21Z</time>
  <course>223.26</course>
  <speed>0.73</speed>
  <fix>3d</fix>
</trkpt>
<trkpt lat="33.8102368" lon="-118.3939533">
  <ele>-0.118</ele>
  <time>2026-09-02T22:07:21Z</time>
  <course>186.47</course>
  <speed>0.7213875518748573</speed>
  <fix>3d</fix>
</trkpt>
<trkpt lat="33.8102368" lon="-118.3939534">
  <ele>-0.118</ele>
  <time>2026-09-02T22:07:21Z</time>
  <course>186.47</course>
  <speed>0.7213875518748573</speed>
  <fix>3d</fix>
</trkpt>
<trkpt lat="33.8102367" lon="-118.3939534">
  <ele>-0.118</ele>
  <time>2026-09-02T22:07:21Z</time>
  <course>186.47</course>
  <speed>0.7213875518748573</speed>
  <fix>3d</fix>
</trkpt>
<trkpt lat="33.8102367" lon="-118.3939535">
  <ele>-0.118</ele>
  <time>2026-09-02T22:07:21Z</time>
  <course>186.47</course>
  <speed>0.7213875518748573</speed>
  <fix>3d</fix>
</trkpt>
<trkpt lat="33.8102367" lon="-118.3939535">
  <ele>-0.118</ele>
  <time>2026-09-02T22:07:21Z</time>
  <course>186.47</course>
  <speed>0.7213875518748573</speed>
  <fix>3d</fix>
</trkpt>
<trkpt lat="33.8102366" lon="-118.3939536">
  <ele>-0.118</ele>
  <time>2026-09-02T22:07:21Z</time>
  <course>186.47</course>
  <speed>0.7213875518748573</speed>
  <fix>3d</fix>
</trkpt>
<trkpt lat="33.8102366" lon="-118.3939536">
  <ele>-0.118</ele>
  <time>2026-09-02T22:07:21Z</time>
  <course>186.47</course>
  <speed>0.7213875518748573</speed>
  <fix>3d</fix>
</trkpt>
<trkpt lat="33.8102365" lon="-118.3939537">
  <ele>-0.117</ele>
  <time>2026-09-02T22:07:21Z</time>
  <course>186.47</course>
  <speed>0.7213875518748573</speed>
  <fix>3d</fix>
</trkpt>
<trkpt lat="33.8102365" lon="-118.3939537">
  <ele>-0.117</ele>
  <time>2026-09-02T22:07:21Z</time>
  <course>186.47</course>
  <speed>0.7213875518748573</speed>
  <fix>3d</fix>
</trkpt>
<trkpt lat="33.8102365" lon="-118.3939537">
  <ele>-0.117</ele>
  <time>2026-09-02T22:07:21Z</time>
  <course>186.47</course>
  <speed>0.7213875518748573</speed>
  <fix>3d</fix>
</trkpt>
<trkpt lat="33.8102364" lon="-118.3939538">
  <ele>-0.117</ele>
  <time>2026-09-02T22:07:21Z</time>
  <course>186.47</course>
  <speed>0.7213875518748573</speed>
  <fix>3d</fix>
</trkpt>
<trkpt lat="33.8102364" lon="-118.3939538">
  <ele>-0.117</ele>
  <time>2026-09-02T22:07:21Z</time>
  <course>186.47</course>
  <speed>0.7213875518748573</speed>
  <fix>3d</fix>
</trkpt>
<trkpt lat="33.8102374" lon="-118.3939523">
  <ele>-0.1</ele>
  <time>2026-09-02T22:07:21Z</time>
  <course>223.26</course>
  <speed>0.73</speed>
  <fix>3d</fix>
</trkpt>
<trkpt lat="33.8102364" lon="-118.3939538">
  <ele>-0.117</ele>
  <time>2026-09-02T22:07:21Z</time>
  <course>186.47</course>
  <speed>0.7213875518748573</speed>
  <fix>3d</fix>
</trkpt>
<trkpt lat="33.8102362" lon="-118.3939541">
  <ele>-0.116</ele>
  <time>2026-09-02T22:07:21Z</time>
  <course>186.47</course>
  <speed>0.7213875518748573</speed>
  <fix>3d</fix>
</trkpt>
<trkpt lat="33.8102361" lon="-118.3939541">
  <ele>-0.116</ele>
  <time>2026-09-02T22:07:21Z</time>
  <course>186.47</course>
  <speed>0.7213875518748573</speed>
  <fix>3d</fix>
</trkpt>
<trkpt lat="33.8102361" lon="-118.3939541">
  <ele>-0.116</ele>
  <time>2026-09-02T22:07:21Z</time>
  <course>186.47</course>
  <speed>0.7213875518748573</speed>
  <fix>3d</fix>
</trkpt>
<trkpt lat="33.8102361" lon="-118.3939542">
  <ele>-0.116</ele>
  <time>2026-09-02T22:07:21Z</time>
  <course>186.47</course>
  <speed>0.7213875518748573</speed>
  <fix>3d</fix>
</trkpt>
<trkpt lat="33.810236" lon="-118.3939542">
  <ele>-0.116</ele>
  <time>2026-09-02T22:07:21Z</time>
  <course>186.47</course>
  <speed>0.7213875518748573</speed>
  <fix>3d</fix>
</trkpt>
<trkpt lat="33.810236" lon="-118.3939543">
  <ele>-0.116</ele>
  <time>2026-09-02T22:07:21Z</time>
  <course>186.47</course>
  <speed>0.7213875518748573</speed>
  <fix>3d</fix>
</trkpt>
<trkpt lat="33.8102359" lon="-118.3939543">
  <ele>-0.116</ele>
  <time>2026-09-02T22:07:21Z</time>
  <course>186.47</course>
  <speed>0.7213875518748573</speed>
  <fix>3d</fix>
</trkpt>
<trkpt lat="33.8102359" lon="-118.3939543">
  <ele>-0.116</ele>
  <time>2026-09-02T22:07:21Z</time>
  <course>186.47</course>
  <speed>0.7213875518748573</speed>
  <fix>3d</fix>
</trkpt>
<trkpt lat="33.8102363" lon="-118.3939533">
  <ele>-0.11</ele>
  <time>2026-09-02T22:07:21Z</time>
  <course>223.26</course>
  <speed>0.73</speed>
  <fix>3d</fix>
</trkpt>
<trkpt lat="33.8102359" lon="-118.3939543">
  <ele>-0.116</ele>
  <time>2026-09-02T22:07:21Z</time>
  <course>186.47</course>
  <speed>0.7213875518748573</speed>
  <fix>3d</fix>
</trkpt>
<trkpt lat="33.8102359" lon="-118.3939544">
  <ele>-0.116</ele>
  <time>2026-09-02T22:07:21Z</time>
  <course>186.47</course>
  <speed>0.7213875518748573</speed>
  <fix>3d</fix>
</trkpt>
<trkpt lat="33.8102358" lon="-118.3939545">
  <ele>-0.115</ele>
  <time>2026-09-02T22:07:21Z</time>
  <course>186.47</course>
  <speed>0.7213875518748573</speed>
  <fix>3d</fix>
</trkpt>
<trkpt lat="33.8102358" lon="-118.3939545">
  <ele>-0.115</ele>
  <time>2026-09-02T22:07:21Z</time>
  <course>186.47</course>
  <speed>0.7213875518748573</speed>
  <fix>3d</fix>
</trkpt>
<trkpt lat="33.8102357" lon="-118.3939545">
  <ele>-0.115</ele>
  <time>2026-09-02T22:07:21Z</time>
  <course>186.47</course>
  <speed>0.7213875518748573</speed>
  <fix>3d</fix>
</trkpt>
<trkpt lat="33.8102357" lon="-118.3939546">
  <ele>-0.115</ele>
  <time>2026-09-02T22:07:21Z</time>
  <course>186.47</course>
  <speed>0.7213875518748573</speed>
  <fix>3d</fix>
</trkpt>
<trkpt lat="33.8102357" lon="-118.3939546">
  <ele>-0.115</ele>
  <time>2026-09-02T22:07:21Z</time>
  <course>186.47</course>
  <speed>0.7213875518748573</speed>
  <fix>3d</fix>
</trkpt>
<trkpt lat="33.8102356" lon="-118.3939547">
  <ele>-0.115</ele>
  <time>2026-09-02T22:07:21Z</time>
  <course>186.47</course>
  <speed>0.7213875518748573</speed>
  <fix>3d</fix>
</trkpt>
<trkpt lat="33.8102356" lon="-118.3939547">
  <ele>-0.115</ele>
  <time>2026-09-02T22:07:21Z</time>
  <course>186.47</course>
  <speed>0.7213875518748573</speed>
  <fix>3d</fix>
</trkpt>
<trkpt lat="33.8102356" lon="-118.3939547">
  <ele>-0.115</ele>
  <time>2026-09-02T22:07:21Z</time>
  <course>186.47</course>
  <speed>0.7213875518748573</speed>
  <fix>3d</fix>
</trkpt>
<trkpt lat="33.8102355" lon="-118.3939548">
  <ele>-0.115</ele>
  <time>2026-09-02T22:07:21Z</time>
  <course>186.47</course>
  <speed>0.7213875518748573</speed>
  <fix>3d</fix>
</trkpt>
<trkpt lat="33.8102355" lon="-118.3939548">
  <ele>-0.115</ele>
  <time>2026-09-02T22:07:21Z</time>
  <course>186.47</course>
  <speed>0.7213875518748573</speed>
  <fix>3d</fix>
</trkpt>
<trkpt lat="33.8102355" lon="-118.3939549">
  <ele>-0.115</ele>
  <time>2026-09-02T22:07:21Z</time>
  <course>186.47</course>
  <speed>0.7213875518748573</speed>
  <fix>3d</fix>
</trkpt>
<trkpt lat="33.8102363" lon="-118.3939533">
  <ele>-0.11</ele>
  <time>2026-09-02T22:07:21Z</time>
  <course>223.26</course>
  <speed>0.73</speed>
  <fix>3d</fix>
</trkpt>
<trkpt lat="33.8102354" lon="-118.3939549">
  <ele>-0.115</ele>
  <time>2026-09-02T22:07:21Z</time>
  <course>186.47</course>
  <speed>0.7213875518748573</speed>
  <fix>3d</fix>
</trkpt>
<trkpt lat="33.8102354" lon="-118.393955">
  <ele>-0.115</ele>
  <time>2026-09-02T22:07:21Z</time>
  <course>186.47</course>
  <speed>0.7213875518748573</speed>
  <fix>3d</fix>
</trkpt>
<trkpt lat="33.8102353" lon="-118.393955">
  <ele>-0.115</ele>
  <time>2026-09-02T22:07:21Z</time>
  <course>186.47</course>
  <speed>0.7213875518748573</speed>
  <fix>3d</fix>
</trkpt>
<trkpt lat="33.8102353" lon="-118.3939551">
  <ele>-0.115</ele>
  <time>2026-09-02T22:07:21Z</time>
  <course>186.47</course>
  <speed>0.7213875518748573</speed>
  <fix>3d</fix>
</trkpt>
<trkpt lat="33.8102352" lon="-118.3939551">
  <ele>-0.115</ele>
  <time>2026-09-02T22:07:21Z</time>
  <course>186.47</course>
  <speed>0.7213875518748573</speed>
  <fix>3d</fix>
</trkpt>
<trkpt lat="33.8102352" lon="-118.3939552">
  <ele>-0.115</ele>
  <time>2026-09-02T22:07:21Z</time>
  <course>186.47</course>
  <speed>0.7213875518748573</speed>
  <fix>3d</fix>
</trkpt>
<trkpt lat="33.8102352" lon="-118.3939552">
  <ele>-0.115</ele>
  <time>2026-09-02T22:07:21Z</time>
  <course>186.47</course>
  <speed>0.7213875518748573</speed>
  <fix>3d</fix>
</trkpt>
<trkpt lat="33.8102351" lon="-118.3939552">
  <ele>-0.115</ele>
  <time>2026-09-02T22:07:21Z</time>
  <course>186.47</course>
  <speed>0.7213875518748573</speed>
  <fix>3d</fix>
</trkpt>
<trkpt lat="33.8102351" lon="-118.3939553">
  <ele>-0.115</ele>
  <time>2026-09-02T22:07:21Z</time>
  <course>186.47</course>
  <speed>0.7213875518748573</speed>
  <fix>3d</fix>
</trkpt>
<trkpt lat="33.8102351" lon="-118.3939553">
  <ele>-0.115</ele>
  <time>2026-09-02T22:07:21Z</time>
  <course>186.47</course>
  <speed>0.7213875518748573</speed>
  <fix>3d</fix>
</trkpt>
<trkpt lat="33.810235" lon="-118.3939554">
  <ele>-0.115</ele>
  <time>2026-09-02T22:07:21Z</time>
  <course>186.47</course>
  <speed>0.7213875518748573</speed>
  <fix>3d</fix>
</trkpt>
<trkpt lat="33.810235" lon="-118.3939554">
  <ele>-0.115</ele>
  <time>2026-09-02T22:07:21Z</time>
  <course>186.47</course>
  <speed>0.7213875518748573</speed>
  <fix>3d</fix>
</trkpt>
<trkpt lat="33.810235" lon="-118.3939554">
  <ele>-0.115</ele>
  <time>2026-09-02T22:07:21Z</time>
  <course>186.47</course>
  <speed>0.7213875518748573</speed>
  <fix>3d</fix>
</trkpt>
<trkpt lat="33.8102354" lon="-118.3939544">
  <ele>-0.1</ele>
  <time>2026-09-02T22:07:21Z</time>
  <course>223.26</course>
  <speed>0.73</speed>
  <fix>3d</fix>
</trkpt>
<trkpt lat="33.8102349" lon="-118.3939555">
  <ele>-0.114</ele>
  <time>2026-09-02T22:07:21Z</time>
  <course>186.47</course>
  <speed>0.7213875518748573</speed>
  <fix>3d</fix>
</trkpt>
<trkpt lat="33.8102349" lon="-118.3939555">
  <ele>-0.115</ele>
  <time>2026-09-02T22:07:21Z</time>
  <course>186.47</course>
  <speed>0.7213875518748573</speed>
  <fix>3d</fix>
</trkpt>
<trkpt lat="33.8102348" lon="-118.3939556">
  <ele>-0.115</ele>
  <time>2026-09-02T22:07:21Z</time>
  <course>186.47</course>
  <speed>0.7213875518748573</speed>
  <fix>3d</fix>
</trkpt>
<trkpt lat="33.8102348" lon="-118.3939556">
  <ele>-0.115</ele>
  <time>2026-09-02T22:07:21Z</time>
  <course>186.47</course>
  <speed>0.7213875518748573</speed>
  <fix>3d</fix>
</trkpt>
<trkpt lat="33.8102347" lon="-118.3939557">
  <ele>-0.114</ele>
  <time>2026-09-02T22:07:21Z</time>
  <course>186.46</course>
  <speed>0.7213875518748573</speed>
  <fix>3d</fix>
</trkpt>
<trkpt lat="33.8102347" lon="-118.3939557">
  <ele>-0.114</ele>
  <time>2026-09-02T22:07:21Z</time>
  <course>186.46</course>
  <speed>0.7213875518748573</speed>
  <fix>3d</fix>
</trkpt>
<trkpt lat="33.8102346" lon="-118.3939558">
  <ele>-0.115</ele>
  <time>2026-09-02T22:07:21Z</time>
  <course>186.46</course>
  <speed>0.7213875518748573</speed>
  <fix>3d</fix>
</trkpt>
<trkpt lat="33.8102346" lon="-118.3939558">
  <ele>-0.115</ele>
  <time>2026-09-02T22:07:21Z</time>
  <course>186.46</course>
  <speed>0.7213875518748573</speed>
  <fix>3d</fix>
</trkpt>
<trkpt lat="33.8102346" lon="-118.3939559">
  <ele>-0.115</ele>
  <time>2026-09-02T22:07:21Z</time>
  <course>186.46</course>
  <speed>0.7213875518748573</speed>
  <fix>3d</fix>
</trkpt>
<trkpt lat="33.8102345" lon="-118.3939559">
  <ele>-0.115</ele>
  <time>2026-09-02T22:07:21Z</time>
  <course>186.46</course>
  <speed>0.7213875518748573</speed>
  <fix>3d</fix>
</trkpt>
<trkpt lat="33.8102345" lon="-118.3939559">
  <ele>-0.115</ele>
  <time>2026-09-02T22:07:21Z</time>
  <course>186.46</course>
  <speed>0.7213875518748573</speed>
  <fix>3d</fix>
</trkpt>
<trkpt lat="33.8102354" lon="-118.3939544">
  <ele>-0.1</ele>
  <time>2026-09-02T22:07:21Z</time>
  <course>223.26</course>
  <speed>0.73</speed>
  <fix>3d</fix>
</trkpt>
<trkpt lat="33.8102345" lon="-118.393956">
  <ele>-0.115</ele>
  <time>2026-09-02T22:07:21Z</time>
  <course>186.46</course>
  <speed>0.7213875518748573</speed>
  <fix>3d</fix>
</trkpt>
<trkpt lat="33.8102344" lon="-118.393956">
  <ele>-0.115</ele>
  <time>2026-09-02T22:07:21Z</time>
  <course>186.46</course>
  <speed>0.7213875518748573</speed>
  <fix>3d</fix>
</trkpt>
<trkpt lat="33.8102344" lon="-118.3939561">
  <ele>-0.115</ele>
  <time>2026-09-02T22:07:21Z</time>
  <course>186.46</course>
  <speed>0.7213875518748573</speed>
  <fix>3d</fix>
</trkpt>
<trkpt lat="33.8102343" lon="-118.3939561">
  <ele>-0.115</ele>
  <time>2026-09-02T22:07:21Z</time>
  <course>186.46</course>
  <speed>0.7213875518748573</speed>
  <fix>3d</fix>
</trkpt>
<trkpt lat="33.8102343" lon="-118.3939562">
  <ele>-0.115</ele>
  <time>2026-09-02T22:07:21Z</time>
  <course>186.46</course>
  <speed>0.7213875518748573</speed>
  <fix>3d</fix>
</trkpt>
<trkpt lat="33.8102342" lon="-118.3939562">
  <ele>-0.115</ele>
  <time>2026-09-02T22:07:21Z</time>
  <course>186.46</course>
  <speed>0.7213875518748573</speed>
  <fix>3d</fix>
</trkpt>
<trkpt lat="33.8102342" lon="-118.3939563">
  <ele>-0.115</ele>
  <time>2026-09-02T22:07:21Z</time>
  <course>186.46</course>
  <speed>0.7213875518748573</speed>
  <fix>3d</fix>
</trkpt>
<trkpt lat="33.8102342" lon="-118.3939563">
  <ele>-0.114</ele>
  <time>2026-09-02T22:07:21Z</time>
  <course>186.46</course>
  <speed>0.7213875518748573</speed>
  <fix>3d</fix>
</trkpt>
<trkpt lat="33.8102341" lon="-118.3939564">
  <ele>-0.115</ele>
  <time>2026-09-02T22:07:21Z</time>
  <course>186.46</course>
  <speed>0.7213875518748573</speed>
  <fix>3d</fix>
</trkpt>
<trkpt lat="33.8102341" lon="-118.3939564">
  <ele>-0.114</ele>
  <time>2026-09-02T22:07:21Z</time>
  <course>186.46</course>
  <speed>0.7213875518748573</speed>
  <fix>3d</fix>
</trkpt>
<trkpt lat="33.8102341" lon="-118.3939564">
  <ele>-0.114</ele>
  <time>2026-09-02T22:07:21Z</time>
  <course>186.46</course>
  <speed>0.7213875518748573</speed>
  <fix>3d</fix>
</trkpt>
<trkpt lat="33.810234" lon="-118.3939565">
  <ele>-0.114</ele>
  <time>2026-09-02T22:07:21Z</time>
  <course>186.46</course>
  <speed>0.7213875518748573</speed>
  <fix>3d</fix>
</trkpt>
<trkpt lat="33.8102345" lon="-118.3939555">
  <ele>-0.1</ele>
  <time>2026-09-02T22:07:21Z</time>
  <course>223.26</course>
  <speed>0.73</speed>
  <fix>3d</fix>
</trkpt>
<trkpt lat="33.810234" lon="-118.3939565">
  <ele>-0.114</ele>
  <time>2026-09-02T22:07:21Z</time>
  <course>186.46</course>
  <speed>0.7213875518748573</speed>
  <fix>3d</fix>
</trkpt>
<trkpt lat="33.810234" lon="-118.3939565">
  <ele>-0.114</ele>
  <time>2026-09-02T22:07:21Z</time>
  <course>186.46</course>
  <speed>0.7213875518748573</speed>
  <fix>3d</fix>
</trkpt>
<trkpt lat="33.8102339" lon="-118.3939566">
  <ele>-0.114</ele>
  <time>2026-09-02T22:07:21Z</time>
  <course>186.46</course>
  <speed>0.7213875518748573</speed>
  <fix>3d</fix>
</trkpt>
<trkpt lat="33.8102338" lon="-118.3939567">
  <ele>-0.114</ele>
  <time>2026-09-02T22:07:21Z</time>
  <course>186.46</course>
  <speed>0.7213875518748573</speed>
  <fix>3d</fix>
</trkpt>
<trkpt lat="33.8102338" lon="-118.3939567">
  <ele>-0.114</ele>
  <time>2026-09-02T22:07:21Z</time>
  <course>186.46</course>
  <speed>0.7213875518748573</speed>
  <fix>3d</fix>
</trkpt>
<trkpt lat="33.8102337" lon="-118.3939568">
  <ele>-0.114</ele>
  <time>2026-09-02T22:07:21Z</time>
  <course>186.46</course>
  <speed>0.7213875518748573</speed>
  <fix>3d</fix>
</trkpt>
<trkpt lat="33.8102337" lon="-118.3939568">
  <ele>-0.114</ele>
  <time>2026-09-02T22:07:21Z</time>
  <course>186.46</course>
  <speed>0.7213875518748573</speed>
  <fix>3d</fix>
</trkpt>
<trkpt lat="33.8102337" lon="-118.3939569">
  <ele>-0.114</ele>
  <time>2026-09-02T22:07:21Z</time>
  <course>186.46</course>
  <speed>0.7213875518748573</speed>
  <fix>3d</fix>
</trkpt>
<trkpt lat="33.8102336" lon="-118.3939569">
  <ele>-0.114</ele>
  <time>2026-09-02T22:07:21Z</time>
  <course>186.46</course>
  <speed>0.7213875518748573</speed>
  <fix>3d</fix>
</trkpt>
<trkpt lat="33.8102336" lon="-118.393957">
  <ele>-0.114</ele>
  <time>2026-09-02T22:07:21Z</time>
  <course>186.46</course>
  <speed>0.7213875518748573</speed>
  <fix>3d</fix>
</trkpt>
<trkpt lat="33.8102336" lon="-118.393957">
  <ele>-0.114</ele>
  <time>2026-09-02T22:07:21Z</time>
  <course>186.46</course>
  <speed>0.7213875518748573</speed>
  <fix>3d</fix>
</trkpt>
<trkpt lat="33.8102335" lon="-118.393957">
  <ele>-0.114</ele>
  <time>2026-09-02T22:07:21Z</time>
  <course>186.46</course>
  <speed>0.7213875518748573</speed>
  <fix>3d</fix>
</trkpt>
<trkpt lat="33.8102345" lon="-118.3939555">
  <ele>-0.1</ele>
  <time>2026-09-02T22:07:21Z</time>
  <course>223.26</course>
  <speed>0.73</speed>
  <fix>3d</fix>
</trkpt>
<trkpt lat="33.8102335" lon="-118.393957">
  <ele>-0.114</ele>
  <time>2026-09-02T22:07:21Z</time>
  <course>186.46</course>
  <speed>0.7213875518748573</speed>
  <fix>3d</fix>
</trkpt>
<trkpt lat="33.8102335" lon="-118.3939571">
  <ele>-0.115</ele>
  <time>2026-09-02T22:07:21Z</time>
  <course>186.46</course>
  <speed>0.7213875518748573</speed>
  <fix>3d</fix>
</trkpt>
<trkpt lat="33.8102334" lon="-118.3939571">
  <ele>-0.115</ele>
  <time>2026-09-02T22:07:21Z</time>
  <course>186.46</course>
  <speed>0.7213875518748573</speed>
  <fix>3d</fix>
</trkpt>
<trkpt lat="33.8102334" lon="-118.3939572">
  <ele>-0.114</ele>
  <time>2026-09-02T22:07:21Z</time>
  <course>186.46</course>
  <speed>0.7213875518748573</speed>
  <fix>3d</fix>
</trkpt>
<trkpt lat="33.8102334" lon="-118.3939572">
  <ele>-0.115</ele>
  <time>2026-09-02T22:07:21Z</time>
  <course>186.46</course>
  <speed>0.7213875518748573</speed>
  <fix>3d</fix>
</trkpt>
<trkpt lat="33.8102333" lon="-118.3939573">
  <ele>-0.115</ele>
  <time>2026-09-02T22:07:21Z</time>
  <course>186.46</course>
  <speed>0.7213875518748573</speed>
  <fix>3d</fix>
</trkpt>
<trkpt lat="33.8102333" lon="-118.3939573">
  <ele>-0.115</ele>
  <time>2026-09-02T22:07:21Z</time>
  <course>186.46</course>
  <speed>0.7213875518748573</speed>
  <fix>3d</fix>
</trkpt>
<trkpt lat="33.8102332" lon="-118.3939574">
  <ele>-0.115</ele>
  <time>2026-09-02T22:07:21Z</time>
  <course>186.46</course>
  <speed>0.7213875518748573</speed>
  <fix>3d</fix>
</trkpt>
<trkpt lat="33.8102332" lon="-118.3939574">
  <ele>-0.115</ele>
  <time>2026-09-02T22:07:21Z</time>
  <course>186.46</course>
  <speed>0.7213875518748573</speed>
  <fix>3d</fix>
</trkpt>
<trkpt lat="33.8102331" lon="-118.3939575">
  <ele>-0.115</ele>
  <time>2026-09-02T22:07:21Z</time>
  <course>186.46</course>
  <speed>0.7213875518748573</speed>
  <fix>3d</fix>
</trkpt>
<trkpt lat="33.8102331" lon="-118.3939575">
  <ele>-0.115</ele>
  <time>2026-09-02T22:07:21Z</time>
  <course>186.46</course>
  <speed>0.7213875518748573</speed>
  <fix>3d</fix>
</trkpt>
<trkpt lat="33.8102331" lon="-118.3939576">
  <ele>-0.115</ele>
  <time>2026-09-02T22:07:21Z</time>
  <course>186.46</course>
  <speed>0.7213875518748573</speed>
  <fix>3d</fix>
</trkpt>
<trkpt lat="33.8102331" lon="-118.3939576">
  <ele>-0.115</ele>
  <time>2026-09-02T22:07:21Z</time>
  <course>186.46</course>
  <speed>0.7213875518748573</speed>
  <fix>3d</fix>
</trkpt>
<trkpt lat="33.8102334" lon="-118.3939566">
  <ele>-0.1</ele>
  <time>2026-09-02T22:07:21Z</time>
  <course>223.26</course>
  <speed>0.73</speed>
  <fix>3d</fix>
</trkpt>
<trkpt lat="33.810233" lon="-118.3939577">
  <ele>-0.115</ele>
  <time>2026-09-02T22:07:21Z</time>
  <course>186.46</course>
  <speed>0.7213875518748573</speed>
  <fix>3d</fix>
</trkpt>
<trkpt lat="33.8102329" lon="-118.3939577">
  <ele>-0.115</ele>
  <time>2026-09-02T22:07:21Z</time>
  <course>186.46</course>
  <speed>0.7213875518748573</speed>
  <fix>3d</fix>
</trkpt>
<trkpt lat="33.8102329" lon="-118.3939578">
  <ele>-0.115</ele>
  <time>2026-09-02T22:07:21Z</time>
  <course>186.46</course>
  <speed>0.7213875518748573</speed>
  <fix>3d</fix>
</trkpt>
<trkpt lat="33.8102328" lon="-118.3939578">
  <ele>-0.115</ele>
  <time>2026-09-02T22:07:21Z</time>
  <course>186.46</course>
  <speed>0.7213875518748573</speed>
  <fix>3d</fix>
</trkpt>
<trkpt lat="33.8102328" lon="-118.3939578">
  <ele>-0.115</ele>
  <time>2026-09-02T22:07:21Z</time>
  <course>186.46</course>
  <speed>0.7213875518748573</speed>
  <fix>3d</fix>
</trkpt>
<trkpt lat="33.8102328" lon="-118.3939579">
  <ele>-0.115</ele>
  <time>2026-09-02T22:07:21Z</time>
  <course>186.46</course>
  <speed>0.7213875518748573</speed>
  <fix>3d</fix>
</trkpt>
<trkpt lat="33.8102327" lon="-118.3939579">
  <ele>-0.115</ele>
  <time>2026-09-02T22:07:21Z</time>
  <course>186.45</course>
  <speed>0.7213875518748573</speed>
  <fix>3d</fix>
</trkpt>
<trkpt lat="33.8102327" lon="-118.393958">
  <ele>-0.115</ele>
  <time>2026-09-02T22:07:21Z</time>
  <course>186.45</course>
  <speed>0.7213875518748573</speed>
  <fix>3d</fix>
</trkpt>
<trkpt lat="33.8102326" lon="-118.393958">
  <ele>-0.115</ele>
  <time>2026-09-02T22:07:21Z</time>
  <course>186.45</course>
  <speed>0.7213875518748573</speed>
  <fix>3d</fix>
</trkpt>
<trkpt lat="33.8102326" lon="-118.3939581">
  <ele>-0.115</ele>
  <time>2026-09-02T22:07:21Z</time>
  <course>186.45</course>
  <speed>0.7213875518748573</speed>
  <fix>3d</fix>
</trkpt>
<trkpt lat="33.8102326" lon="-118.3939581">
  <ele>-0.115</ele>
  <time>2026-09-02T22:07:21Z</time>
  <course>186.45</course>
  <speed>0.7213875518748573</speed>
  <fix>3d</fix>
</trkpt>
<trkpt lat="33.8102334" lon="-118.3939566">
  <ele>-0.1</ele>
  <time>2026-09-02T22:07:21Z</time>
  <course>223.26</course>
  <speed>0.73</speed>
  <fix>3d</fix>
</trkpt>
<trkpt lat="33.8102326" lon="-118.3939581">
  <ele>-0.115</ele>
  <time>2026-09-02T22:07:21Z</time>
  <course>186.45</course>
  <speed>0.7213875518748573</speed>
  <fix>3d</fix>
</trkpt>
<trkpt lat="33.8102325" lon="-118.3939582">
  <ele>-0.115</ele>
  <time>2026-09-02T22:07:21Z</time>
  <course>186.45</course>
  <speed>0.7213875518748573</speed>
  <fix>3d</fix>
</trkpt>
<trkpt lat="33.8102325" lon="-118.3939582">
  <ele>-0.115</ele>
  <time>2026-09-02T22:07:21Z</time>
  <course>186.45</course>
  <speed>0.7213875518748573</speed>
  <fix>3d</fix>
</trkpt>
<trkpt lat="33.8102324" lon="-118.3939583">
  <ele>-0.115</ele>
  <time>2026-09-02T22:07:21Z</time>
  <course>186.45</course>
  <speed>0.7213875518748573</speed>
  <fix>3d</fix>
</trkpt>
<trkpt lat="33.8102324" lon="-118.3939583">
  <ele>-0.115</ele>
  <time>2026-09-02T22:07:21Z</time>
  <course>186.45</course>
  <speed>0.7213875518748573</speed>
  <fix>3d</fix>
</trkpt>
<trkpt lat="33.8102324" lon="-118.3939583">
  <ele>-0.115</ele>
  <time>2026-09-02T22:07:21Z</time>
  <course>186.45</course>
  <speed>0.7213875518748573</speed>
  <fix>3d</fix>
</trkpt>
<trkpt lat="33.8102323" lon="-118.3939584">
  <ele>-0.115</ele>
  <time>2026-09-02T22:07:21Z</time>
  <course>186.45</course>
  <speed>0.7213875518748573</speed>
  <fix>3d</fix>
</trkpt>
<trkpt lat="33.8102323" lon="-118.3939584">
  <ele>-0.115</ele>
  <time>2026-09-02T22:07:21Z</time>
  <course>186.45</course>
  <speed>0.7213875518748573</speed>
  <fix>3d</fix>
</trkpt>
<trkpt lat="33.8102322" lon="-118.3939585">
  <ele>-0.115</ele>
  <time>2026-09-02T22:07:21Z</time>
  <course>186.45</course>
  <speed>0.7213875518748573</speed>
  <fix>3d</fix>
</trkpt>
<trkpt lat="33.8102322" lon="-118.3939585">
  <ele>-0.114</ele>
  <time>2026-09-02T22:07:21Z</time>
  <course>186.45</course>
  <speed>0.7213875518748573</speed>
  <fix>3d</fix>
</trkpt>
<trkpt lat="33.8102321" lon="-118.3939586">
  <ele>-0.114</ele>
  <time>2026-09-02T22:07:21Z</time>
  <course>186.45</course>
  <speed>0.7213875518748573</speed>
  <fix>3d</fix>
</trkpt>
<trkpt lat="33.8102321" lon="-118.3939586">
  <ele>-0.114</ele>
  <time>2026-09-02T22:07:21Z</time>
  <course>186.45</course>
  <speed>0.7213875518748573</speed>
  <fix>3d</fix>
</trkpt>
<trkpt lat="33.8102321" lon="-118.3939586">
  <ele>-0.114</ele>
  <time>2026-09-02T22:07:21Z</time>
  <course>186.45</course>
  <speed>0.7213875518748573</speed>
  <fix>3d</fix>
</trkpt>
<trkpt lat="33.8102325" lon="-118.3939577">
  <ele>-0.1</ele>
  <time>2026-09-02T22:07:21Z</time>
  <course>223.26</course>
  <speed>0.73</speed>
  <fix>3d</fix>
</trkpt>
<trkpt lat="33.810232" lon="-118.3939587">
  <ele>-0.114</ele>
  <time>2026-09-02T22:07:21Z</time>
  <course>186.45</course>
  <speed>0.7213875518748573</speed>
  <fix>3d</fix>
</trkpt>
<trkpt lat="33.810232" lon="-118.3939588">
  <ele>-0.114</ele>
  <time>2026-09-02T22:07:21Z</time>
  <course>186.45</course>
  <speed>0.7213875518748573</speed>
  <fix>3d</fix>
</trkpt>
<trkpt lat="33.8102319" lon="-118.3939588">
  <ele>-0.113</ele>
  <time>2026-09-02T22:07:21Z</time>
  <course>186.45</course>
  <speed>0.7213875518748573</speed>
  <fix>3d</fix>
</trkpt>
<trkpt lat="33.8102319" lon="-118.3939589">
  <ele>-0.113</ele>
  <time>2026-09-02T22:07:21Z</time>
  <course>186.45</course>
  <speed>0.7213875518748573</speed>
  <fix>3d</fix>
</trkpt>
<trkpt lat="33.8102318" lon="-118.3939589">
  <ele>-0.113</ele>
  <time>2026-09-02T22:07:21Z</time>
  <course>186.45</course>
  <speed>0.7213875518748573</speed>
  <fix>3d</fix>
</trkpt>
<trkpt lat="33.8102318" lon="-118.393959">
  <ele>-0.113</ele>
  <time>2026-09-02T22:07:21Z</time>
  <course>186.45</course>
  <speed>0.7213875518748573</speed>
  <fix>3d</fix>
</trkpt>
<trkpt lat="33.8102318" lon="-118.393959">
  <ele>-0.113</ele>
  <time>2026-09-02T22:07:21Z</time>
  <course>186.45</course>
  <speed>0.7213875518748573</speed>
  <fix>3d</fix>
</trkpt>
<trkpt lat="33.8102317" lon="-118.3939591">
  <ele>-0.113</ele>
  <time>2026-09-02T22:07:21Z</time>
  <course>186.45</course>
  <speed>0.7213875518748573</speed>
  <fix>3d</fix>
</trkpt>
<trkpt lat="33.8102317" lon="-118.3939591">
  <ele>-0.113</ele>
  <time>2026-09-02T22:07:21Z</time>
  <course>186.45</course>
  <speed>0.7213875518748573</speed>
  <fix>3d</fix>
</trkpt>
<trkpt lat="33.8102316" lon="-118.3939592">
  <ele>-0.113</ele>
  <time>2026-09-02T22:07:21Z</time>
  <course>186.45</course>
  <speed>0.7213875518748573</speed>
  <fix>3d</fix>
</trkpt>
<trkpt lat="33.8102316" lon="-118.3939592">
  <ele>-0.113</ele>
  <time>2026-09-02T22:07:21Z</time>
  <course>186.45</course>
  <speed>0.7213875518748573</speed>
  <fix>3d</fix>
</trkpt>
<trkpt lat="33.8102325" lon="-118.3939577">
  <ele>-0.1</ele>
  <time>2026-09-02T22:07:21Z</time>
  <course>223.26</course>
  <speed>0.73</speed>
  <fix>3d</fix>
</trkpt>
<trkpt lat="33.8102316" lon="-118.3939592">
  <ele>-0.113</ele>
  <time>2026-09-02T22:07:21Z</time>
  <course>186.45</course>
  <speed>0.7213875518748573</speed>
  <fix>3d</fix>
</trkpt>
<trkpt lat="33.8102315" lon="-118.3939593">
  <ele>-0.113</ele>
  <time>2026-09-02T22:07:21Z</time>
  <course>186.45</course>
  <speed>0.7213875518748573</speed>
  <fix>3d</fix>
</trkpt>
<trkpt lat="33.8102315" lon="-118.3939593">
  <ele>-0.112</ele>
  <time>2026-09-02T22:07:21Z</time>
  <course>186.45</course>
  <speed>0.7213875518748573</speed>
  <fix>3d</fix>
</trkpt>
<trkpt lat="33.8102315" lon="-118.3939593">
  <ele>-0.112</ele>
  <time>2026-09-02T22:07:21Z</time>
  <course>186.45</course>
  <speed>0.7213875518748573</speed>
  <fix>3d</fix>
</trkpt>
<trkpt lat="33.8102314" lon="-118.3939594">
  <ele>-0.112</ele>
  <time>2026-09-02T22:07:21Z</time>
  <course>186.45</course>
  <speed>0.7213875518748573</speed>
  <fix>3d</fix>
</trkpt>
<trkpt lat="33.8102314" lon="-118.3939594">
  <ele>-0.112</ele>
  <time>2026-09-02T22:07:21Z</time>
  <course>186.45</course>
  <speed>0.7213875518748573</speed>
  <fix>3d</fix>
</trkpt>
<trkpt lat="33.8102313" lon="-118.3939595">
  <ele>-0.112</ele>
  <time>2026-09-02T22:07:21Z</time>
  <course>186.45</course>
  <speed>0.7213875518748573</speed>
  <fix>3d</fix>
</trkpt>
<trkpt lat="33.8102313" lon="-118.3939595">
  <ele>-0.112</ele>
  <time>2026-09-02T22:07:21Z</time>
  <course>186.45</course>
  <speed>0.7213875518748573</speed>
  <fix>3d</fix>
</trkpt>
<trkpt lat="33.8102313" lon="-118.3939596">
  <ele>-0.112</ele>
  <time>2026-09-02T22:07:21Z</time>
  <course>186.45</course>
  <speed>0.7213875518748573</speed>
  <fix>3d</fix>
</trkpt>
<trkpt lat="33.8102312" lon="-118.3939596">
  <ele>-0.112</ele>
  <time>2026-09-02T22:07:21Z</time>
  <course>186.45</course>
  <speed>0.7213875518748573</speed>
  <fix>3d</fix>
</trkpt>
<trkpt lat="33.8102312" lon="-118.3939597">
  <ele>-0.112</ele>
  <time>2026-09-02T22:07:21Z</time>
  <course>186.45</course>
  <speed>0.7213875518748573</speed>
  <fix>3d</fix>
</trkpt>
<trkpt lat="33.8102311" lon="-118.3939597">
  <ele>-0.112</ele>
  <time>2026-09-02T22:07:21Z</time>
  <course>186.45</course>
  <speed>0.7213875518748573</speed>
  <fix>3d</fix>
</trkpt>
<trkpt lat="33.8102311" lon="-118.3939597">
  <ele>-0.112</ele>
  <time>2026-09-02T22:07:21Z</time>
  <course>186.45</course>
  <speed>0.7213875518748573</speed>
  <fix>3d</fix>
</trkpt>
<trkpt lat="33.8102315" lon="-118.3939588">
  <ele>-0.11</ele>
  <time>2026-09-02T22:07:21Z</time>
  <course>223.26</course>
  <speed>0.73</speed>
  <fix>3d</fix>
</trkpt>
<trkpt lat="33.810231" lon="-118.3939598">
  <ele>-0.112</ele>
  <time>2026-09-02T22:07:21Z</time>
  <course>186.45</course>
  <speed>0.7213875518748573</speed>
  <fix>3d</fix>
</trkpt>
<trkpt lat="33.810231" lon="-118.3939599">
  <ele>-0.112</ele>
  <time>2026-09-02T22:07:21Z</time>
  <course>186.45</course>
  <speed>0.7213875518748573</speed>
  <fix>3d</fix>
</trkpt>
<trkpt lat="33.810231" lon="-118.3939599">
  <ele>-0.112</ele>
  <time>2026-09-02T22:07:21Z</time>
  <course>186.45</course>
  <speed>0.7213875518748573</speed>
  <fix>3d</fix>
</trkpt>
<trkpt lat="33.8102309" lon="-118.39396">
  <ele>-0.112</ele>
  <time>2026-09-02T22:07:21Z</time>
  <course>186.45</course>
  <speed>0.7213875518748573</speed>
  <fix>3d</fix>
</trkpt>
<trkpt lat="33.8102309" lon="-118.39396">
  <ele>-0.112</ele>
  <time>2026-09-02T22:07:21Z</time>
  <course>186.45</course>
  <speed>0.7213875518748573</speed>
  <fix>3d</fix>
</trkpt>
<trkpt lat="33.8102308" lon="-118.3939601">
  <ele>-0.112</ele>
  <time>2026-09-02T22:07:21Z</time>
  <course>186.45</course>
  <speed>0.7213875518748573</speed>
  <fix>3d</fix>
</trkpt>
<trkpt lat="33.8102308" lon="-118.3939601">
  <ele>-0.112</ele>
  <time>2026-09-02T22:07:21Z</time>
  <course>186.45</course>
  <speed>0.7213875518748573</speed>
  <fix>3d</fix>
</trkpt>
<trkpt lat="33.8102308" lon="-118.3939601">
  <ele>-0.111</ele>
  <time>2026-09-02T22:07:21Z</time>
  <course>186.45</course>
  <speed>0.7213875518748573</speed>
  <fix>3d</fix>
</trkpt>
<trkpt lat="33.8102307" lon="-118.3939602">
  <ele>-0.111</ele>
  <time>2026-09-02T22:07:21Z</time>
  <course>186.45</course>
  <speed>0.7213875518748573</speed>
  <fix>3d</fix>
</trkpt>
<trkpt lat="33.8102307" lon="-118.3939602">
  <ele>-0.112</ele>
  <time>2026-09-02T22:07:21Z</time>
  <course>186.45</course>
  <speed>0.7213875518748573</speed>
  <fix>3d</fix>
</trkpt>
<trkpt lat="33.8102306" lon="-118.3939603">
  <ele>-0.111</ele>
  <time>2026-09-02T22:07:21Z</time>
  <course>186.44</course>
  <speed>0.7213875518748573</speed>
  <fix>3d</fix>
</trkpt>
<trkpt lat="33.8102315" lon="-118.3939588">
  <ele>-0.11</ele>
  <time>2026-09-02T22:07:21Z</time>
  <course>223.26</course>
  <speed>0.73</speed>
  <fix>3d</fix>
</trkpt>
<trkpt lat="33.8102306" lon="-118.3939603">
  <ele>-0.111</ele>
  <time>2026-09-02T22:07:21Z</time>
  <course>186.44</course>
  <speed>0.7213875518748573</speed>
  <fix>3d</fix>
</trkpt>
<trkpt lat="33.8102306" lon="-118.3939604">
  <ele>-0.111</ele>
  <time>2026-09-02T22:07:21Z</time>
  <course>186.44</course>
  <speed>0.7213875518748573</speed>
  <fix>3d</fix>
</trkpt>
<trkpt lat="33.8102305" lon="-118.3939604">
  <ele>-0.111</ele>
  <time>2026-09-02T22:07:21Z</time>
  <course>186.44</course>
  <speed>0.7213875518748573</speed>
  <fix>3d</fix>
</trkpt>
<trkpt lat="33.8102305" lon="-118.3939604">
  <ele>-0.111</ele>
  <time>2026-09-02T22:07:21Z</time>
  <course>186.44</course>
  <speed>0.7213875518748573</speed>
  <fix>3d</fix>
</trkpt>
<trkpt lat="33.8102305" lon="-118.3939605">
  <ele>-0.111</ele>
  <time>2026-09-02T22:07:21Z</time>
  <course>186.44</course>
  <speed>0.7213875518748573</speed>
  <fix>3d</fix>
</trkpt>
<trkpt lat="33.8102304" lon="-118.3939605">
  <ele>-0.111</ele>
  <time>2026-09-02T22:07:21Z</time>
  <course>186.44</course>
  <speed>0.7213875518748573</speed>
  <fix>3d</fix>
</trkpt>
<trkpt lat="33.8102304" lon="-118.3939606">
  <ele>-0.111</ele>
  <time>2026-09-02T22:07:21Z</time>
  <course>186.44</course>
  <speed>0.7213875518748573</speed>
  <fix>3d</fix>
</trkpt>
<trkpt lat="33.8102303" lon="-118.3939606">
  <ele>-0.111</ele>
  <time>2026-09-02T22:07:21Z</time>
  <course>186.44</course>
  <speed>0.7213875518748573</speed>
  <fix>3d</fix>
</trkpt>
<trkpt lat="33.8102303" lon="-118.3939606">
  <ele>-0.111</ele>
  <time>2026-09-02T22:07:21Z</time>
  <course>186.44</course>
  <speed>0.7213875518748573</speed>
  <fix>3d</fix>
</trkpt>
<trkpt lat="33.8102303" lon="-118.3939607">
  <ele>-0.111</ele>
  <time>2026-09-02T22:07:21Z</time>
  <course>186.44</course>
  <speed>0.7213875518748573</speed>
  <fix>3d</fix>
</trkpt>
<trkpt lat="33.8102302" lon="-118.3939607">
  <ele>-0.111</ele>
  <time>2026-09-02T22:07:21Z</time>
  <course>186.44</course>
  <speed>0.7213875518748573</speed>
  <fix>3d</fix>
</trkpt>
<trkpt lat="33.8102302" lon="-118.3939608">
  <ele>-0.111</ele>
  <time>2026-09-02T22:07:21Z</time>
  <course>186.44</course>
  <speed>0.7213875518748573</speed>
  <fix>3d</fix>
</trkpt>
<trkpt lat="33.8102302" lon="-118.3939608">
  <ele>-0.111</ele>
  <time>2026-09-02T22:07:21Z</time>
  <course>186.44</course>
  <speed>0.7213875518748573</speed>
  <fix>3d</fix>
</trkpt>
<trkpt lat="33.8102306" lon="-118.3939599">
  <ele>-0.1</ele>
  <time>2026-09-02T22:07:21Z</time>
  <course>223.26</course>
  <speed>0.73</speed>
  <fix>3d</fix>
</trkpt>
<trkpt lat="33.8102301" lon="-118.3939608">
  <ele>-0.111</ele>
  <time>2026-09-02T22:07:21Z</time>
  <course>186.44</course>
  <speed>0.7213875518748573</speed>
  <fix>3d</fix>
</trkpt>
<trkpt lat="33.8102301" lon="-118.3939609">
  <ele>-0.111</ele>
  <time>2026-09-02T22:07:21Z</time>
  <course>186.44</course>
  <speed>0.7213875518748573</speed>
  <fix>3d</fix>
</trkpt>
<trkpt lat="33.81023" lon="-118.3939609">
  <ele>-0.111</ele>
  <time>2026-09-02T22:07:21Z</time>
  <course>186.44</course>
  <speed>0.7213875518748573</speed>
  <fix>3d</fix>
</trkpt>
<trkpt lat="33.81023" lon="-118.393961">
  <ele>-0.111</ele>
  <time>2026-09-02T22:07:21Z</time>
  <course>186.44</course>
  <speed>0.7213875518748573</speed>
  <fix>3d</fix>
</trkpt>
<trkpt lat="33.81023" lon="-118.393961">
  <ele>-0.11</ele>
  <time>2026-09-02T22:07:21Z</time>
  <course>186.44</course>
  <speed>0.7213875518748573</speed>
  <fix>3d</fix>
</trkpt>
<trkpt lat="33.8102299" lon="-118.3939611">
  <ele>-0.11</ele>
  <time>2026-09-02T22:07:21Z</time>
  <course>186.44</course>
  <speed>0.7213875518748573</speed>
  <fix>3d</fix>
</trkpt>
<trkpt lat="33.8102299" lon="-118.3939611">
  <ele>-0.11</ele>
  <time>2026-09-02T22:07:21Z</time>
  <course>186.44</course>
  <speed>0.7213875518748573</speed>
  <fix>3d</fix>
</trkpt>
<trkpt lat="33.8102298" lon="-118.3939612">
  <ele>-0.11</ele>
  <time>2026-09-02T22:07:21Z</time>
  <course>186.44</course>
  <speed>0.7213875518748573</speed>
  <fix>3d</fix>
</trkpt>
<trkpt lat="33.8102298" lon="-118.3939612">
  <ele>-0.11</ele>
  <time>2026-09-02T22:07:21Z</time>
  <course>186.44</course>
  <speed>0.7213875518748573</speed>
  <fix>3d</fix>
</trkpt>
<trkpt lat="33.8102298" lon="-118.3939612">
  <ele>-0.11</ele>
  <time>2026-09-02T22:07:21Z</time>
  <course>186.44</course>
  <speed>0.7213875518748573</speed>
  <fix>3d</fix>
</trkpt>
<trkpt lat="33.8102297" lon="-118.3939613">
  <ele>-0.11</ele>
  <time>2026-09-02T22:07:21Z</time>
  <course>186.44</course>
  <speed>0.7213875518748573</speed>
  <fix>3d</fix>
</trkpt>
<trkpt lat="33.8102297" lon="-118.3939613">
  <ele>-0.11</ele>
  <time>2026-09-02T22:07:21Z</time>
  <course>186.44</course>
  <speed>0.7213875518748573</speed>
  <fix>3d</fix>
</trkpt>
<trkpt lat="33.8102297" lon="-118.3939614">
  <ele>-0.11</ele>
  <time>2026-09-02T22:07:21Z</time>
  <course>186.44</course>
  <speed>0.7213875518748573</speed>
  <fix>3d</fix>
</trkpt>
<trkpt lat="33.8102306" lon="-118.3939599">
  <ele>-0.1</ele>
  <time>2026-09-02T22:07:21Z</time>
  <course>223.26</course>
  <speed>0.73</speed>
  <fix>3d</fix>
</trkpt>
<trkpt lat="33.8102297" lon="-118.3939614">
  <ele>-0.109</ele>
  <time>2026-09-02T22:07:21Z</time>
  <course>186.44</course>
  <speed>0.7213875518748573</speed>
  <fix>3d</fix>
</trkpt>
<trkpt lat="33.8102296" lon="-118.3939615">
  <ele>-0.109</ele>
  <time>2026-09-02T22:07:21Z</time>
  <course>186.44</course>
  <speed>0.7213875518748573</speed>
  <fix>3d</fix>
</trkpt>
<trkpt lat="33.8102295" lon="-118.3939615">
  <ele>-0.109</ele>
  <time>2026-09-02T22:07:21Z</time>
  <course>186.44</course>
  <speed>0.7213875518748573</speed>
  <fix>3d</fix>
</trkpt>
<trkpt lat="33.8102295" lon="-118.3939616">
  <ele>-0.109</ele>
  <time>2026-09-02T22:07:21Z</time>
  <course>186.44</course>
  <speed>0.7213875518748573</speed>
  <fix>3d</fix>
</trkpt>
<trkpt lat="33.8102295" lon="-118.3939616">
  <ele>-0.109</ele>
  <time>2026-09-02T22:07:21Z</time>
  <course>186.44</course>
  <speed>0.7213875518748573</speed>
  <fix>3d</fix>
</trkpt>
<trkpt lat="33.8102294" lon="-118.3939616">
  <ele>-0.109</ele>
  <time>2026-09-02T22:07:21Z</time>
  <course>186.44</course>
  <speed>0.7213875518748573</speed>
  <fix>3d</fix>
</trkpt>
<trkpt lat="33.8102294" lon="-118.3939617">
  <ele>-0.109</ele>
  <time>2026-09-02T22:07:21Z</time>
  <course>186.44</course>
  <speed>0.7213875518748573</speed>
  <fix>3d</fix>
</trkpt>
<trkpt lat="33.8102293" lon="-118.3939617">
  <ele>-0.109</ele>
  <time>2026-09-02T22:07:21Z</time>
  <course>186.44</course>
  <speed>0.7213875518748573</speed>
  <fix>3d</fix>
</trkpt>
<trkpt lat="33.8102293" lon="-118.3939618">
  <ele>-0.109</ele>
  <time>2026-09-02T22:07:21Z</time>
  <course>186.44</course>
  <speed>0.7213875518748573</speed>
  <fix>3d</fix>
</trkpt>
<trkpt lat="33.8102293" lon="-118.3939618">
  <ele>-0.109</ele>
  <time>2026-09-02T22:07:21Z</time>
  <course>186.44</course>
  <speed>0.7213875518748573</speed>
  <fix>3d</fix>
</trkpt>
<trkpt lat="33.8102292" lon="-118.3939619">
  <ele>-0.109</ele>
  <time>2026-09-02T22:07:21Z</time>
  <course>186.44</course>
  <speed>0.7213875518748573</speed>
  <fix>3d</fix>
</trkpt>
<trkpt lat="33.8102292" lon="-118.3939619">
  <ele>-0.109</ele>
  <time>2026-09-02T22:07:21Z</time>
  <course>186.44</course>
  <speed>0.7213875518748573</speed>
  <fix>3d</fix>
</trkpt>
<trkpt lat="33.8102297" lon="-118.393961">
  <ele>-0.1</ele>
  <time>2026-09-02T22:07:21Z</time>
  <course>223.26</course>
  <speed>0.73</speed>
  <fix>3d</fix>
</trkpt>
<trkpt lat="33.8102292" lon="-118.3939619">
  <ele>-0.109</ele>
  <time>2026-09-02T22:07:21Z</time>
  <course>186.44</course>
  <speed>0.7213875518748573</speed>
  <fix>3d</fix>
</trkpt>
<trkpt lat="33.8102291" lon="-118.393962">
  <ele>-0.109</ele>
  <time>2026-09-02T22:07:21Z</time>
  <course>186.44</course>
  <speed>0.7213875518748573</speed>
  <fix>3d</fix>
</trkpt>
<trkpt lat="33.810229" lon="-118.3939621">
  <ele>-0.109</ele>
  <time>2026-09-02T22:07:21Z</time>
  <course>186.44</course>
  <speed>0.7213875518748573</speed>
  <fix>3d</fix>
</trkpt>
<trkpt lat="33.810229" lon="-118.3939621">
  <ele>-0.109</ele>
  <time>2026-09-02T22:07:21Z</time>
  <course>186.44</course>
  <speed>0.7213875518748573</speed>
  <fix>3d</fix>
</trkpt>
<trkpt lat="33.810229" lon="-118.3939622">
  <ele>-0.109</ele>
  <time>2026-09-02T22:07:21Z</time>
  <course>186.44</course>
  <speed>0.7213875518748573</speed>
  <fix>3d</fix>
</trkpt>
<trkpt lat="33.8102289" lon="-118.3939622">
  <ele>-0.109</ele>
  <time>2026-09-02T22:07:21Z</time>
  <course>186.44</course>
  <speed>0.7213875518748573</speed>
  <fix>3d</fix>
</trkpt>
<trkpt lat="33.8102289" lon="-118.3939623">
  <ele>-0.109</ele>
  <time>2026-09-02T22:07:21Z</time>
  <course>186.44</course>
  <speed>0.7213875518748573</speed>
  <fix>3d</fix>
</trkpt>
<trkpt lat="33.8102288" lon="-118.3939623">
  <ele>-0.109</ele>
  <time>2026-09-02T22:07:21Z</time>
  <course>186.44</course>
  <speed>0.7213875518748573</speed>
  <fix>3d</fix>
</trkpt>
<trkpt lat="33.8102288" lon="-118.3939624">
  <ele>-0.109</ele>
  <time>2026-09-02T22:07:21Z</time>
  <course>186.44</course>
  <speed>0.7213875518748573</speed>
  <fix>3d</fix>
</trkpt>
<trkpt lat="33.8102288" lon="-118.3939624">
  <ele>-0.109</ele>
  <time>2026-09-02T22:07:21Z</time>
  <course>186.44</course>
  <speed>0.7213875518748573</speed>
  <fix>3d</fix>
</trkpt>
<trkpt lat="33.8102287" lon="-118.3939624">
  <ele>-0.109</ele>
  <time>2026-09-02T22:07:21Z</time>
  <course>186.44</course>
  <speed>0.7213875518748573</speed>
  <fix>3d</fix>
</trkpt>
<trkpt lat="33.8102297" lon="-118.393961">
  <ele>-0.1</ele>
  <time>2026-09-02T22:07:21Z</time>
  <course>223.26</course>
  <speed>0.73</speed>
  <fix>3d</fix>
</trkpt>
<trkpt lat="33.8102287" lon="-118.3939625">
  <ele>-0.109</ele>
  <time>2026-09-02T22:07:21Z</time>
  <course>186.44</course>
  <speed>0.7213875518748573</speed>
  <fix>3d</fix>
</trkpt>
<trkpt lat="33.8102286" lon="-118.3939625">
  <ele>-0.109</ele>
  <time>2026-09-02T22:07:21Z</time>
  <course>186.44</course>
  <speed>0.7213875518748573</speed>
  <fix>3d</fix>
</trkpt>
<trkpt lat="33.8102286" lon="-118.3939626">
  <ele>-0.109</ele>
  <time>2026-09-02T22:07:21Z</time>
  <course>186.44</course>
  <speed>0.7213875518748573</speed>
  <fix>3d</fix>
</trkpt>
<trkpt lat="33.8102286" lon="-118.3939626">
  <ele>-0.109</ele>
  <time>2026-09-02T22:07:21Z</time>
  <course>186.44</course>
  <speed>0.7213875518748573</speed>
  <fix>3d</fix>
</trkpt>
<trkpt lat="33.8102285" lon="-118.3939627">
  <ele>-0.109</ele>
  <time>2026-09-02T22:07:21Z</time>
  <course>186.44</course>
  <speed>0.7213875518748573</speed>
  <fix>3d</fix>
</trkpt>
<trkpt lat="33.8102285" lon="-118.3939627">
  <ele>-0.109</ele>
  <time>2026-09-02T22:07:21Z</time>
  <course>186.44</course>
  <speed>0.7213875518748573</speed>
  <fix>3d</fix>
</trkpt>
<trkpt lat="33.8102285" lon="-118.3939627">
  <ele>-0.109</ele>
  <time>2026-09-02T22:07:21Z</time>
  <course>186.44</course>
  <speed>0.7213875518748573</speed>
  <fix>3d</fix>
</trkpt>
<trkpt lat="33.8102284" lon="-118.3939628">
  <ele>-0.109</ele>
  <time>2026-09-02T22:07:21Z</time>
  <course>186.44</course>
  <speed>0.7213875518748573</speed>
  <fix>3d</fix>
</trkpt>
<trkpt lat="33.8102284" lon="-118.3939628">
  <ele>-0.109</ele>
  <time>2026-09-02T22:07:21Z</time>
  <course>186.44</course>
  <speed>0.7213875518748573</speed>
  <fix>3d</fix>
</trkpt>
<trkpt lat="33.8102283" lon="-118.3939629">
  <ele>-0.109</ele>
  <time>2026-09-02T22:07:21Z</time>
  <course>186.44</course>
  <speed>0.7213875518748573</speed>
  <fix>3d</fix>
</trkpt>
<trkpt lat="33.8102283" lon="-118.3939629">
  <ele>-0.109</ele>
  <time>2026-09-02T22:07:21Z</time>
  <course>186.44</course>
  <speed>0.7213875518748573</speed>
  <fix>3d</fix>
</trkpt>
<trkpt lat="33.8102283" lon="-118.393963">
  <ele>-0.109</ele>
  <time>2026-09-02T22:07:21Z</time>
  <course>186.43</course>
  <speed>0.7213875518748573</speed>
  <fix>3d</fix>
</trkpt>
<trkpt lat="33.8102282" lon="-118.393963">
  <ele>-0.109</ele>
  <time>2026-09-02T22:07:21Z</time>
  <course>186.43</course>
  <speed>0.7213875518748573</speed>
  <fix>3d</fix>
</trkpt>
<trkpt lat="33.8102286" lon="-118.3939621">
  <ele>-0.1</ele>
  <time>2026-09-02T22:07:21Z</time>
  <course>223.26</course>
  <speed>0.73</speed>
  <fix>3d</fix>
</trkpt>
<trkpt lat="33.8102282" lon="-118.393963">
  <ele>-0.109</ele>
  <time>2026-09-02T22:07:21Z</time>
  <course>186.43</course>
  <speed>0.7213875518748573</speed>
  <fix>3d</fix>
</trkpt>
<trkpt lat="33.8102282" lon="-118.3939631">
  <ele>-0.109</ele>
  <time>2026-09-02T22:07:21Z</time>
  <course>186.43</course>
  <speed>0.7213875518748573</speed>
  <fix>3d</fix>
</trkpt>
<trkpt lat="33.8102281" lon="-118.3939631">
  <ele>-0.109</ele>
  <time>2026-09-02T22:07:21Z</time>
  <course>186.43</course>
  <speed>0.7213875518748573</speed>
  <fix>3d</fix>
</trkpt>
<trkpt lat="33.8102281" lon="-118.3939631">
  <ele>-0.109</ele>
  <time>2026-09-02T22:07:21Z</time>
  <course>186.43</course>
  <speed>0.7213875518748573</speed>
  <fix>3d</fix>
</trkpt>
<trkpt lat="33.810228" lon="-118.3939632">
  <ele>-0.109</ele>
  <time>2026-09-02T22:07:21Z</time>
  <course>186.43</course>
  <speed>0.7213875518748573</speed>
  <fix>3d</fix>
</trkpt>
<trkpt lat="33.810228" lon="-118.3939633">
  <ele>-0.109</ele>
  <time>2026-09-02T22:07:21Z</time>
  <course>186.43</course>
  <speed>0.7213875518748573</speed>
  <fix>3d</fix>
</trkpt>
<trkpt lat="33.810228" lon="-118.3939633">
  <ele>-0.109</ele>
  <time>2026-09-02T22:07:21Z</time>
  <course>186.43</course>
  <speed>0.7213875518748573</speed>
  <fix>3d</fix>
</trkpt>
<trkpt lat="33.8102279" lon="-118.3939633">
  <ele>-0.11</ele>
  <time>2026-09-02T22:07:21Z</time>
  <course>186.43</course>
  <speed>0.7213875518748573</speed>
  <fix>3d</fix>
</trkpt>
<trkpt lat="33.8102279" lon="-118.3939634">
  <ele>-0.11</ele>
  <time>2026-09-02T22:07:21Z</time>
  <course>186.43</course>
  <speed>0.7213875518748573</speed>
  <fix>3d</fix>
</trkpt>
<trkpt lat="33.8102278" lon="-118.3939634">
  <ele>-0.11</ele>
  <time>2026-09-02T22:07:21Z</time>
  <course>186.43</course>
  <speed>0.7213875518748573</speed>
  <fix>3d</fix>
</trkpt>
<trkpt lat="33.8102278" lon="-118.3939635">
  <ele>-0.11</ele>
  <time>2026-09-02T22:07:21Z</time>
  <course>186.43</course>
  <speed>0.7213875518748573</speed>
  <fix>3d</fix>
</trkpt>
<trkpt lat="33.8102278" lon="-118.3939635">
  <ele>-0.11</ele>
  <time>2026-09-02T22:07:21Z</time>
  <course>186.43</course>
  <speed>0.7213875518748573</speed>
  <fix>3d</fix>
</trkpt>
<trkpt lat="33.8102286" lon="-118.3939621">
  <ele>-0.1</ele>
  <time>2026-09-02T22:07:21Z</time>
  <course>223.26</course>
  <speed>0.73</speed>
  <fix>3d</fix>
</trkpt>
<trkpt lat="33.8102277" lon="-118.3939636">
  <ele>-0.11</ele>
  <time>2026-09-02T22:07:21Z</time>
  <course>186.43</course>
  <speed>0.7213875518748573</speed>
  <fix>3d</fix>
</trkpt>
<trkpt lat="33.8102277" lon="-118.3939636">
  <ele>-0.11</ele>
  <time>2026-09-02T22:07:21Z</time>
  <course>186.43</course>
  <speed>0.7213875518748573</speed>
  <fix>3d</fix>
</trkpt>
<trkpt lat="33.8102276" lon="-118.3939637">
  <ele>-0.11</ele>
  <time>2026-09-02T22:07:21Z</time>
  <course>186.43</course>
  <speed>0.7213875518748573</speed>
  <fix>3d</fix>
</trkpt>
<trkpt lat="33.8102276" lon="-118.3939637">
  <ele>-0.11</ele>
  <time>2026-09-02T22:07:21Z</time>
  <course>186.43</course>
  <speed>0.7213875518748573</speed>
  <fix>3d</fix>
</trkpt>
<trkpt lat="33.8102275" lon="-118.3939638">
  <ele>-0.11</ele>
  <time>2026-09-02T22:07:21Z</time>
  <course>186.43</course>
  <speed>0.7213875518748573</speed>
  <fix>3d</fix>
</trkpt>
<trkpt lat="33.8102275" lon="-118.3939638">
  <ele>-0.11</ele>
  <time>2026-09-02T22:07:21Z</time>
  <course>186.43</course>
  <speed>0.7213875518748573</speed>
  <fix>3d</fix>
</trkpt>
<trkpt lat="33.8102275" lon="-118.3939639">
  <ele>-0.11</ele>
  <time>2026-09-02T22:07:21Z</time>
  <course>186.43</course>
  <speed>0.7213875518748573</speed>
  <fix>3d</fix>
</trkpt>
<trkpt lat="33.8102274" lon="-118.3939639">
  <ele>-0.11</ele>
  <time>2026-09-02T22:07:21Z</time>
  <course>186.43</course>
  <speed>0.7213875518748573</speed>
  <fix>3d</fix>
</trkpt>
<trkpt lat="33.8102274" lon="-118.393964">
  <ele>-0.11</ele>
  <time>2026-09-02T22:07:21Z</time>
  <course>186.43</course>
  <speed>0.7213875518748573</speed>
  <fix>3d</fix>
</trkpt>
<trkpt lat="33.8102273" lon="-118.393964">
  <ele>-0.11</ele>
  <time>2026-09-02T22:07:21Z</time>
  <course>186.43</course>
  <speed>0.7213875518748573</speed>
  <fix>3d</fix>
</trkpt>
<trkpt lat="33.8102273" lon="-118.3939641">
  <ele>-0.11</ele>
  <time>2026-09-02T22:07:21Z</time>
  <course>186.43</course>
  <speed>0.7213875518748573</speed>
  <fix>3d</fix>
</trkpt>
<trkpt lat="33.8102273" lon="-118.3939641">
  <ele>-0.11</ele>
  <time>2026-09-02T22:07:21Z</time>
  <course>186.43</course>
  <speed>0.7213875518748573</speed>
  <fix>3d</fix>
</trkpt>
<trkpt lat="33.8102277" lon="-118.3939631">
  <ele>-0.1</ele>
  <time>2026-09-02T22:07:21Z</time>
  <course>223.26</course>
  <speed>0.73</speed>
  <fix>3d</fix>
</trkpt>
<trkpt lat="33.8102273" lon="-118.3939641">
  <ele>-0.11</ele>
  <time>2026-09-02T22:07:21Z</time>
  <course>186.43</course>
  <speed>0.7213875518748573</speed>
  <fix>3d</fix>
</trkpt>
<trkpt lat="33.8102272" lon="-118.3939642">
  <ele>-0.11</ele>
  <time>2026-09-02T22:07:21Z</time>
  <course>186.43</course>
  <speed>0.7213875518748573</speed>
  <fix>3d</fix>
</trkpt>
<trkpt lat="33.8102271" lon="-118.3939642">
  <ele>-0.11</ele>
  <time>2026-09-02T22:07:21Z</time>
  <course>186.43</course>
  <speed>0.7213875518748573</speed>
  <fix>3d</fix>
</trkpt>
<trkpt lat="33.8102271" lon="-118.3939643">
  <ele>-0.11</ele>
  <time>2026-09-02T22:07:21Z</time>
  <course>186.43</course>
  <speed>0.7213875518748573</speed>
  <fix>3d</fix>
</trkpt>
<trkpt lat="33.8102271" lon="-118.3939643">
  <ele>-0.111</ele>
  <time>2026-09-02T22:07:21Z</time>
  <course>186.43</course>
  <speed>0.7213875518748573</speed>
  <fix>3d</fix>
</trkpt>
<trkpt lat="33.810227" lon="-118.3939644">
  <ele>-0.111</ele>
  <time>2026-09-02T22:07:21Z</time>
  <course>186.43</course>
  <speed>0.7213875518748573</speed>
  <fix>3d</fix>
</trkpt>
<trkpt lat="33.810227" lon="-118.3939644">
  <ele>-0.111</ele>
  <time>2026-09-02T22:07:21Z</time>
  <course>186.43</course>
  <speed>0.7213875518748573</speed>
  <fix>3d</fix>
</trkpt>
<trkpt lat="33.8102269" lon="-118.3939645">
  <ele>-0.111</ele>
  <time>2026-09-02T22:07:21Z</time>
  <course>186.43</course>
  <speed>0.7213875518748573</speed>
  <fix>3d</fix>
</trkpt>
<trkpt lat="33.8102269" lon="-118.3939645">
  <ele>-0.111</ele>
  <time>2026-09-02T22:07:21Z</time>
  <course>186.43</course>
  <speed>0.7213875518748573</speed>
  <fix>3d</fix>
</trkpt>
<trkpt lat="33.8102269" lon="-118.3939645">
  <ele>-0.111</ele>
  <time>2026-09-02T22:07:21Z</time>
  <course>186.43</course>
  <speed>0.7213875518748573</speed>
  <fix>3d</fix>
</trkpt>
<trkpt lat="33.8102268" lon="-118.3939646">
  <ele>-0.111</ele>
  <time>2026-09-02T22:07:21Z</time>
  <course>186.43</course>
  <speed>0.7213875518748573</speed>
  <fix>3d</fix>
</trkpt>
<trkpt lat="33.8102268" lon="-118.3939646">
  <ele>-0.111</ele>
  <time>2026-09-02T22:07:21Z</time>
  <course>186.43</course>
  <speed>0.7213875518748573</speed>
  <fix>3d</fix>
</trkpt>
<trkpt lat="33.8102268" lon="-118.3939646">
  <ele>-0.111</ele>
  <time>2026-09-02T22:07:21Z</time>
  <course>186.43</course>
  <speed>0.7213875518748573</speed>
  <fix>3d</fix>
</trkpt>
<trkpt lat="33.8102277" lon="-118.3939631">
  <ele>-0.1</ele>
  <time>2026-09-02T22:07:21Z</time>
  <course>223.26</course>
  <speed>0.73</speed>
  <fix>3d</fix>
</trkpt>
<trkpt lat="33.8102267" lon="-118.3939647">
  <ele>-0.111</ele>
  <time>2026-09-02T22:07:21Z</time>
  <course>186.43</course>
  <speed>0.7213875518748573</speed>
  <fix>3d</fix>
</trkpt>
<trkpt lat="33.8102267" lon="-118.3939648">
  <ele>-0.111</ele>
  <time>2026-09-02T22:07:21Z</time>
  <course>186.43</course>
  <speed>0.7213875518748573</speed>
  <fix>3d</fix>
</trkpt>
<trkpt lat="33.8102266" lon="-118.3939648">
  <ele>-0.111</ele>
  <time>2026-09-02T22:07:21Z</time>
  <course>186.43</course>
  <speed>0.7213875518748573</speed>
  <fix>3d</fix>
</trkpt>
<trkpt lat="33.8102266" lon="-118.3939649">
  <ele>-0.111</ele>
  <time>2026-09-02T22:07:21Z</time>
  <course>186.43</course>
  <speed>0.7213875518748573</speed>
  <fix>3d</fix>
</trkpt>
<trkpt lat="33.8102266" lon="-118.3939649">
  <ele>-0.111</ele>
  <time>2026-09-02T22:07:21Z</time>
  <course>186.43</course>
  <speed>0.7213875518748573</speed>
  <fix>3d</fix>
</trkpt>
<trkpt lat="33.8102265" lon="-118.3939649">
  <ele>-0.111</ele>
  <time>2026-09-02T22:07:21Z</time>
  <course>186.43</course>
  <speed>0.7213875518748573</speed>
  <fix>3d</fix>
</trkpt>
<trkpt lat="33.8102265" lon="-118.393965">
  <ele>-0.111</ele>
  <time>2026-09-02T22:07:21Z</time>
  <course>186.43</course>
  <speed>0.7213875518748573</speed>
  <fix>3d</fix>
</trkpt>
<trkpt lat="33.8102264" lon="-118.393965">
  <ele>-0.111</ele>
  <time>2026-09-02T22:07:21Z</time>
  <course>186.43</course>
  <speed>0.7213875518748573</speed>
  <fix>3d</fix>
</trkpt>
<trkpt lat="33.8102264" lon="-118.3939651">
  <ele>-0.111</ele>
  <time>2026-09-02T22:07:21Z</time>
  <course>186.43</course>
  <speed>0.7213875518748573</speed>
  <fix>3d</fix>
</trkpt>
<trkpt lat="33.8102264" lon="-118.3939651">
  <ele>-0.111</ele>
  <time>2026-09-02T22:07:21Z</time>
  <course>186.43</course>
  <speed>0.7213875518748573</speed>
  <fix>3d</fix>
</trkpt>
<trkpt lat="33.8102263" lon="-118.3939652">
  <ele>-0.111</ele>
  <time>2026-09-02T22:07:21Z</time>
  <course>186.43</course>
  <speed>0.7213875518748573</speed>
  <fix>3d</fix>
</trkpt>
<trkpt lat="33.8102263" lon="-118.3939652">
  <ele>-0.111</ele>
  <time>2026-09-02T22:07:21Z</time>
  <course>186.43</course>
  <speed>0.7213875518748573</speed>
  <fix>3d</fix>
</trkpt>
<trkpt lat="33.8102267" lon="-118.3939642">
  <ele>-0.11</ele>
  <time>2026-09-02T22:07:21Z</time>
  <course>223.26</course>
  <speed>0.73</speed>
  <fix>3d</fix>
</trkpt>
<trkpt lat="33.8102263" lon="-118.3939652">
  <ele>-0.111</ele>
  <time>2026-09-02T22:07:21Z</time>
  <course>186.43</course>
  <speed>0.7213875518748573</speed>
  <fix>3d</fix>
</trkpt>
<trkpt lat="33.8102262" lon="-118.3939652">
  <ele>-0.111</ele>
  <time>2026-09-02T22:07:21Z</time>
  <course>186.43</course>
  <speed>0.7213875518748573</speed>
  <fix>3d</fix>
</trkpt>
<trkpt lat="33.8102262" lon="-118.3939653">
  <ele>-0.111</ele>
  <time>2026-09-02T22:07:21Z</time>
  <course>186.43</course>
  <speed>0.7213875518748573</speed>
  <fix>3d</fix>
</trkpt>
<trkpt lat="33.8102261" lon="-118.3939653">
  <ele>-0.11</ele>
  <time>2026-09-02T22:07:21Z</time>
  <course>186.43</course>
  <speed>0.7213875518748573</speed>
  <fix>3d</fix>
</trkpt>
<trkpt lat="33.8102261" lon="-118.3939654">
  <ele>-0.11</ele>
  <time>2026-09-02T22:07:21Z</time>
  <course>186.43</course>
  <speed>0.7213875518748573</speed>
  <fix>3d</fix>
</trkpt>
<trkpt lat="33.8102261" lon="-118.3939655">
  <ele>-0.11</ele>
  <time>2026-09-02T22:07:21Z</time>
  <course>186.43</course>
  <speed>0.7213875518748573</speed>
  <fix>3d</fix>
</trkpt>
<trkpt lat="33.810226" lon="-118.3939655">
  <ele>-0.11</ele>
  <time>2026-09-02T22:07:21Z</time>
  <course>186.43</course>
  <speed>0.7213875518748573</speed>
  <fix>3d</fix>
</trkpt>
<trkpt lat="33.810226" lon="-118.3939655">
  <ele>-0.11</ele>
  <time>2026-09-02T22:07:21Z</time>
  <course>186.43</course>
  <speed>0.7213875518748573</speed>
  <fix>3d</fix>
</trkpt>
<trkpt lat="33.8102259" lon="-118.3939656">
  <ele>-0.11</ele>
  <time>2026-09-02T22:07:21Z</time>
  <course>186.43</course>
  <speed>0.7213875518748573</speed>
  <fix>3d</fix>
</trkpt>
<trkpt lat="33.8102259" lon="-118.3939656">
  <ele>-0.11</ele>
  <time>2026-09-02T22:07:21Z</time>
  <course>186.43</course>
  <speed>0.7213875518748573</speed>
  <fix>3d</fix>
</trkpt>
<trkpt lat="33.8102259" lon="-118.3939657">
  <ele>-0.11</ele>
  <time>2026-09-02T22:07:21Z</time>
  <course>186.43</course>
  <speed>0.7213875518748573</speed>
  <fix>3d</fix>
</trkpt>
<trkpt lat="33.8102258" lon="-118.3939657">
  <ele>-0.11</ele>
  <time>2026-09-02T22:07:21Z</time>
  <course>186.42</course>
  <speed>0.7213875518748573</speed>
  <fix>3d</fix>
</trkpt>
<trkpt lat="33.8102258" lon="-118.3939657">
  <ele>-0.11</ele>
  <time>2026-09-02T22:07:21Z</time>
  <course>186.42</course>
  <speed>0.7213875518748573</speed>
  <fix>3d</fix>
</trkpt>
<trkpt lat="33.8102267" lon="-118.3939642">
  <ele>-0.11</ele>
  <time>2026-09-02T22:07:21Z</time>
  <course>223.26</course>
  <speed>0.73</speed>
  <fix>3d</fix>
</trkpt>
<trkpt lat="33.8102257" lon="-118.3939658">
  <ele>-0.109</ele>
  <time>2026-09-02T22:07:21Z</time>
  <course>186.42</course>
  <speed>0.7213875518748573</speed>
  <fix>3d</fix>
</trkpt>
<trkpt lat="33.8102257" lon="-118.3939658">
  <ele>-0.109</ele>
  <time>2026-09-02T22:07:21Z</time>
  <course>186.42</course>
  <speed>0.7213875518748573</speed>
  <fix>3d</fix>
</trkpt>
<trkpt lat="33.8102257" lon="-118.3939659">
  <ele>-0.109</ele>
  <time>2026-09-02T22:07:21Z</time>
  <course>186.42</course>
  <speed>0.7213875518748573</speed>
  <fix>3d</fix>
</trkpt>
<trkpt lat="33.8102256" lon="-118.3939659">
  <ele>-0.109</ele>
  <time>2026-09-02T22:07:21Z</time>
  <course>186.42</course>
  <speed>0.7213875518748573</speed>
  <fix>3d</fix>
</trkpt>
<trkpt lat="33.8102256" lon="-118.393966">
  <ele>-0.109</ele>
  <time>2026-09-02T22:07:21Z</time>
  <course>186.42</course>
  <speed>0.7213875518748573</speed>
  <fix>3d</fix>
</trkpt>
<trkpt lat="33.8102256" lon="-118.393966">
  <ele>-0.109</ele>
  <time>2026-09-02T22:07:21Z</time>
  <course>186.42</course>
  <speed>0.7213875518748573</speed>
  <fix>3d</fix>
</trkpt>
<trkpt lat="33.8102255" lon="-118.3939661">
  <ele>-0.108</ele>
  <time>2026-09-02T22:07:21Z</time>
  <course>186.42</course>
  <speed>0.7283543093852057</speed>
  <fix>3d</fix>
</trkpt>
<trkpt lat="33.8102254" lon="-118.3939661">
  <ele>-0.108</ele>
  <time>2026-09-02T22:07:21Z</time>
  <course>186.42</course>
  <speed>0.7283543093852057</speed>
  <fix>3d</fix>
</trkpt>
<trkpt lat="33.8102254" lon="-118.3939662">
  <ele>-0.108</ele>
  <time>2026-09-02T22:07:21Z</time>
  <course>186.42</course>
  <speed>0.7283543093852057</speed>
  <fix>3d</fix>
</trkpt>
<trkpt lat="33.8102254" lon="-118.3939662">
  <ele>-0.108</ele>
  <time>2026-09-02T22:07:21Z</time>
  <course>186.42</course>
  <speed>0.7283543093852057</speed>
  <fix>3d</fix>
</trkpt>
<trkpt lat="33.8102253" lon="-118.3939662">
  <ele>-0.108</ele>
  <time>2026-09-02T22:07:21Z</time>
  <course>186.42</course>
  <speed>0.7283543093852057</speed>
  <fix>3d</fix>
</trkpt>
<trkpt lat="33.8102258" lon="-118.3939653">
  <ele>-0.1</ele>
  <time>2026-09-02T22:07:21Z</time>
  <course>223.26</course>
  <speed>0.73</speed>
  <fix>3d</fix>
</trkpt>
<trkpt lat="33.8102253" lon="-118.3939663">
  <ele>-0.108</ele>
  <time>2026-09-02T22:07:21Z</time>
  <course>186.42</course>
  <speed>0.7283543093852057</speed>
  <fix>3d</fix>
</trkpt>
<trkpt lat="33.8102253" lon="-118.3939663">
  <ele>-0.107</ele>
  <time>2026-09-02T22:07:21Z</time>
  <course>186.42</course>
  <speed>0.7283543093852057</speed>
  <fix>3d</fix>
</trkpt>
<trkpt lat="33.8102252" lon="-118.3939664">
  <ele>-0.107</ele>
  <time>2026-09-02T22:07:21Z</time>
  <course>186.42</course>
  <speed>0.7283543093852057</speed>
  <fix>3d</fix>
</trkpt>
<trkpt lat="33.8102252" lon="-118.3939664">
  <ele>-0.107</ele>
  <time>2026-09-02T22:07:21Z</time>
  <course>186.42</course>
  <speed>0.7283543093852057</speed>
  <fix>3d</fix>
</trkpt>
<trkpt lat="33.8102251" lon="-118.3939665">
  <ele>-0.107</ele>
  <time>2026-09-02T22:07:21Z</time>
  <course>186.42</course>
  <speed>0.7283543093852057</speed>
  <fix>3d</fix>
</trkpt>
<trkpt lat="33.8102251" lon="-118.3939665">
  <ele>-0.107</ele>
  <time>2026-09-02T22:07:21Z</time>
  <course>186.42</course>
  <speed>0.7283543093852057</speed>
  <fix>3d</fix>
</trkpt>
<trkpt lat="33.810225" lon="-118.3939666">
  <ele>-0.107</ele>
  <time>2026-09-02T22:07:21Z</time>
  <course>186.42</course>
  <speed>0.7283543093852057</speed>
  <fix>3d</fix>
</trkpt>
<trkpt lat="33.810225" lon="-118.3939666">
  <ele>-0.107</ele>
  <time>2026-09-02T22:07:21Z</time>
  <course>186.42</course>
  <speed>0.7283543093852057</speed>
  <fix>3d</fix>
</trkpt>
<trkpt lat="33.810225" lon="-118.3939667">
  <ele>-0.107</ele>
  <time>2026-09-02T22:07:21Z</time>
  <course>186.42</course>
  <speed>0.7283543093852057</speed>
  <fix>3d</fix>
</trkpt>
<trkpt lat="33.8102249" lon="-118.3939667">
  <ele>-0.107</ele>
  <time>2026-09-02T22:07:21Z</time>
  <course>186.42</course>
  <speed>0.7283543093852057</speed>
  <fix>3d</fix>
</trkpt>
<trkpt lat="33.8102249" lon="-118.3939668">
  <ele>-0.107</ele>
  <time>2026-09-02T22:07:21Z</time>
  <course>186.42</course>
  <speed>0.7283543093852057</speed>
  <fix>3d</fix>
</trkpt>
<trkpt lat="33.8102258" lon="-118.3939653">
  <ele>-0.1</ele>
  <time>2026-09-02T22:07:21Z</time>
  <course>223.26</course>
  <speed>0.73</speed>
  <fix>3d</fix>
</trkpt>
<trkpt lat="33.8102249" lon="-118.3939668">
  <ele>-0.107</ele>
  <time>2026-09-02T22:07:21Z</time>
  <course>186.42</course>
  <speed>0.7283543093852057</speed>
  <fix>3d</fix>
</trkpt>
<trkpt lat="33.8102248" lon="-118.3939669">
  <ele>-0.107</ele>
  <time>2026-09-02T22:07:21Z</time>
  <course>186.42</course>
  <speed>0.7213875518748573</speed>
  <fix>3d</fix>
</trkpt>
<trkpt lat="33.8102247" lon="-118.3939669">
  <ele>-0.107</ele>
  <time>2026-09-02T22:07:21Z</time>
  <course>186.42</course>
  <speed>0.7213875518748573</speed>
  <fix>3d</fix>
</trkpt>
<trkpt lat="33.8102247" lon="-118.393967">
  <ele>-0.107</ele>
  <time>2026-09-02T22:07:21Z</time>
  <course>186.42</course>
  <speed>0.7213875518748573</speed>
  <fix>3d</fix>
</trkpt>
<trkpt lat="33.8102247" lon="-118.393967">
  <ele>-0.107</ele>
  <time>2026-09-02T22:07:21Z</time>
  <course>186.42</course>
  <speed>0.7213875518748573</speed>
  <fix>3d</fix>
</trkpt>
<trkpt lat="33.8102246" lon="-118.393967">
  <ele>-0.107</ele>
  <time>2026-09-02T22:07:21Z</time>
  <course>186.42</course>
  <speed>0.7213875518748573</speed>
  <fix>3d</fix>
</trkpt>
<trkpt lat="33.8102246" lon="-118.3939671">
  <ele>-0.107</ele>
  <time>2026-09-02T22:07:21Z</time>
  <course>186.42</course>
  <speed>0.7213875518748573</speed>
  <fix>3d</fix>
</trkpt>
<trkpt lat="33.8102246" lon="-118.3939671">
  <ele>-0.107</ele>
  <time>2026-09-02T22:07:21Z</time>
  <course>186.42</course>
  <speed>0.7213875518748573</speed>
  <fix>3d</fix>
</trkpt>
<trkpt lat="33.8102245" lon="-118.3939672">
  <ele>-0.107</ele>
  <time>2026-09-02T22:07:21Z</time>
  <course>186.42</course>
  <speed>0.7283543093852057</speed>
  <fix>3d</fix>
</trkpt>
<trkpt lat="33.8102245" lon="-118.3939672">
  <ele>-0.107</ele>
  <time>2026-09-02T22:07:21Z</time>
  <course>186.42</course>
  <speed>0.7283543093852057</speed>
  <fix>3d</fix>
</trkpt>
<trkpt lat="33.8102244" lon="-118.3939673">
  <ele>-0.107</ele>
  <time>2026-09-02T22:07:21Z</time>
  <course>186.42</course>
  <speed>0.7283543093852057</speed>
  <fix>3d</fix>
</trkpt>
<trkpt lat="33.8102244" lon="-118.3939673">
  <ele>-0.107</ele>
  <time>2026-09-02T22:07:21Z</time>
  <course>186.42</course>
  <speed>0.7283543093852057</speed>
  <fix>3d</fix>
</trkpt>
<trkpt lat="33.8102244" lon="-118.3939673">
  <ele>-0.107</ele>
  <time>2026-09-02T22:07:21Z</time>
  <course>186.42</course>
  <speed>0.7283543093852057</speed>
  <fix>3d</fix>
</trkpt>
<trkpt lat="33.8102248" lon="-118.3939664">
  <ele>-0.1</ele>
  <time>2026-09-02T22:07:21Z</time>
  <course>223.26</course>
  <speed>0.73</speed>
  <fix>3d</fix>
</trkpt>
<trkpt lat="33.8102244" lon="-118.3939673">
  <ele>-0.107</ele>
  <time>2026-09-02T22:07:21Z</time>
  <course>186.42</course>
  <speed>0.7283543093852057</speed>
  <fix>3d</fix>
</trkpt>
<trkpt lat="33.8102243" lon="-118.3939674">
  <ele>-0.107</ele>
  <time>2026-09-02T22:07:21Z</time>
  <course>186.42</course>
  <speed>0.7283543093852057</speed>
  <fix>3d</fix>
</trkpt>
<trkpt lat="33.8102243" lon="-118.3939675">
  <ele>-0.107</ele>
  <time>2026-09-02T22:07:21Z</time>
  <course>186.42</course>
  <speed>0.7283543093852057</speed>
  <fix>3d</fix>
</trkpt>
<trkpt lat="33.8102242" lon="-118.3939675">
  <ele>-0.107</ele>
  <time>2026-09-02T22:07:21Z</time>
  <course>186.42</course>
  <speed>0.7283543093852057</speed>
  <fix>3d</fix>
</trkpt>
<trkpt lat="33.8102242" lon="-118.3939676">
  <ele>-0.107</ele>
  <time>2026-09-02T22:07:21Z</time>
  <course>186.42</course>
  <speed>0.7283543093852057</speed>
  <fix>3d</fix>
</trkpt>
<trkpt lat="33.8102241" lon="-118.3939676">
  <ele>-0.107</ele>
  <time>2026-09-02T22:07:21Z</time>
  <course>186.42</course>
  <speed>0.7283543093852057</speed>
  <fix>3d</fix>
</trkpt>
<trkpt lat="33.8102241" lon="-118.3939677">
  <ele>-0.107</ele>
  <time>2026-09-02T22:07:21Z</time>
  <course>186.42</course>
  <speed>0.7283543093852057</speed>
  <fix>3d</fix>
</trkpt>
<trkpt lat="33.810224" lon="-118.3939677">
  <ele>-0.107</ele>
  <time>2026-09-02T22:07:21Z</time>
  <course>186.42</course>
  <speed>0.7283543093852057</speed>
  <fix>3d</fix>
</trkpt>
<trkpt lat="33.810224" lon="-118.3939678">
  <ele>-0.107</ele>
  <time>2026-09-02T22:07:21Z</time>
  <course>186.42</course>
  <speed>0.7283543093852057</speed>
  <fix>3d</fix>
</trkpt>
<trkpt lat="33.8102239" lon="-118.3939678">
  <ele>-0.107</ele>
  <time>2026-09-02T22:07:21Z</time>
  <course>186.42</course>
  <speed>0.7283543093852057</speed>
  <fix>3d</fix>
</trkpt>
<trkpt lat="33.8102239" lon="-118.3939679">
  <ele>-0.107</ele>
  <time>2026-09-02T22:07:21Z</time>
  <course>186.42</course>
  <speed>0.7283543093852057</speed>
  <fix>3d</fix>
</trkpt>
<trkpt lat="33.8102239" lon="-118.3939679">
  <ele>-0.107</ele>
  <time>2026-09-02T22:07:21Z</time>
  <course>186.42</course>
  <speed>0.7283543093852057</speed>
  <fix>3d</fix>
</trkpt>
<trkpt lat="33.8102248" lon="-118.3939664">
  <ele>-0.1</ele>
  <time>2026-09-02T22:07:21Z</time>
  <course>223.26</course>
  <speed>0.73</speed>
  <fix>3d</fix>
</trkpt>
<trkpt lat="33.8102239" lon="-118.3939679">
  <ele>-0.108</ele>
  <time>2026-09-02T22:07:21Z</time>
  <course>186.42</course>
  <speed>0.7283543093852057</speed>
  <fix>3d</fix>
</trkpt>
<trkpt lat="33.8102238" lon="-118.393968">
  <ele>-0.108</ele>
  <time>2026-09-02T22:07:21Z</time>
  <course>186.42</course>
  <speed>0.7283543093852057</speed>
  <fix>3d</fix>
</trkpt>
<trkpt lat="33.8102238" lon="-118.393968">
  <ele>-0.108</ele>
  <time>2026-09-02T22:07:21Z</time>
  <course>186.42</course>
  <speed>0.7283543093852057</speed>
  <fix>3d</fix>
</trkpt>
<trkpt lat="33.8102237" lon="-118.393968">
  <ele>-0.108</ele>
  <time>2026-09-02T22:07:21Z</time>
  <course>186.42</course>
  <speed>0.7283543093852057</speed>
  <fix>3d</fix>
</trkpt>
<trkpt lat="33.8102237" lon="-118.3939681">
  <ele>-0.108</ele>
  <time>2026-09-02T22:07:21Z</time>
  <course>186.42</course>
  <speed>0.7283543093852057</speed>
  <fix>3d</fix>
</trkpt>
<trkpt lat="33.8102237" lon="-118.3939682">
  <ele>-0.108</ele>
  <time>2026-09-02T22:07:21Z</time>
  <course>186.42</course>
  <speed>0.7283543093852057</speed>
  <fix>3d</fix>
</trkpt>
<trkpt lat="33.8102236" lon="-118.3939682">
  <ele>-0.108</ele>
  <time>2026-09-02T22:07:21Z</time>
  <course>186.42</course>
  <speed>0.7283543093852057</speed>
  <fix>3d</fix>
</trkpt>
<trkpt lat="33.8102236" lon="-118.3939682">
  <ele>-0.108</ele>
  <time>2026-09-02T22:07:21Z</time>
  <course>186.42</course>
  <speed>0.7283543093852057</speed>
  <fix>3d</fix>
</trkpt>
<trkpt lat="33.8102235" lon="-118.3939683">
  <ele>-0.108</ele>
  <time>2026-09-02T22:07:21Z</time>
  <course>186.42</course>
  <speed>0.7283543093852057</speed>
  <fix>3d</fix>
</trkpt>
<trkpt lat="33.8102235" lon="-118.3939683">
  <ele>-0.108</ele>
  <time>2026-09-02T22:07:21Z</time>
  <course>186.42</course>
  <speed>0.7283543093852057</speed>
  <fix>3d</fix>
</trkpt>
<trkpt lat="33.8102235" lon="-118.3939684">
  <ele>-0.108</ele>
  <time>2026-09-02T22:07:21Z</time>
  <course>186.42</course>
  <speed>0.7283543093852057</speed>
  <fix>3d</fix>
</trkpt>
<trkpt lat="33.8102234" lon="-118.3939684">
  <ele>-0.108</ele>
  <time>2026-09-02T22:07:21Z</time>
  <course>186.42</course>
  <speed>0.7283543093852057</speed>
  <fix>3d</fix>
</trkpt>
<trkpt lat="33.8102234" lon="-118.3939684">
  <ele>-0.108</ele>
  <time>2026-09-02T22:07:21Z</time>
  <course>186.42</course>
  <speed>0.7283543093852057</speed>
  <fix>3d</fix>
</trkpt>
<trkpt lat="33.8102238" lon="-118.3939675">
  <ele>-0.1</ele>
  <time>2026-09-02T22:07:21Z</time>
  <course>223.26</course>
  <speed>0.73</speed>
  <fix>3d</fix>
</trkpt>
<trkpt lat="33.8102233" lon="-118.3939685">
  <ele>-0.108</ele>
  <time>2026-09-02T22:07:21Z</time>
  <course>186.42</course>
  <speed>0.7283543093852057</speed>
  <fix>3d</fix>
</trkpt>
<trkpt lat="33.8102233" lon="-118.3939686">
  <ele>-0.108</ele>
  <time>2026-09-02T22:07:21Z</time>
  <course>186.42</course>
  <speed>0.7283543093852057</speed>
  <fix>3d</fix>
</trkpt>
<trkpt lat="33.8102232" lon="-118.3939686">
  <ele>-0.108</ele>
  <time>2026-09-02T22:07:21Z</time>
  <course>186.42</course>
  <speed>0.7283543093852057</speed>
  <fix>3d</fix>
</trkpt>
<trkpt lat="33.8102232" lon="-118.3939687">
  <ele>-0.108</ele>
  <time>2026-09-02T22:07:21Z</time>
  <course>186.42</course>
  <speed>0.7283543093852057</speed>
  <fix>3d</fix>
</trkpt>
<trkpt lat="33.8102231" lon="-118.3939688">
  <ele>-0.108</ele>
  <time>2026-09-02T22:07:21Z</time>
  <course>186.41</course>
  <speed>0.7283543093852057</speed>
  <fix>3d</fix>
</trkpt>
<trkpt lat="33.8102231" lon="-118.3939688">
  <ele>-0.108</ele>
  <time>2026-09-02T22:07:21Z</time>
  <course>186.41</course>
  <speed>0.7283543093852057</speed>
  <fix>3d</fix>
</trkpt>
<trkpt lat="33.810223" lon="-118.3939689">
  <ele>-0.108</ele>
  <time>2026-09-02T22:07:21Z</time>
  <course>186.41</course>
  <speed>0.7283543093852057</speed>
  <fix>3d</fix>
</trkpt>
<trkpt lat="33.810223" lon="-118.3939689">
  <ele>-0.108</ele>
  <time>2026-09-02T22:07:21Z</time>
  <course>186.41</course>
  <speed>0.7283543093852057</speed>
  <fix>3d</fix>
</trkpt>
<trkpt lat="33.8102229" lon="-118.3939689">
  <ele>-0.108</ele>
  <time>2026-09-02T22:07:21Z</time>
  <course>186.41</course>
  <speed>0.7283543093852057</speed>
  <fix>3d</fix>
</trkpt>
<trkpt lat="33.8102229" lon="-118.393969">
  <ele>-0.108</ele>
  <time>2026-09-02T22:07:21Z</time>
  <course>186.41</course>
  <speed>0.7283543093852057</speed>
  <fix>3d</fix>
</trkpt>
<trkpt lat="33.8102238" lon="-118.3939675">
  <ele>-0.1</ele>
  <time>2026-09-02T22:07:21Z</time>
  <course>223.26</course>
  <speed>0.73</speed>
  <fix>3d</fix>
</trkpt>
<trkpt lat="33.8102229" lon="-118.393969">
  <ele>-0.108</ele>
  <time>2026-09-02T22:07:21Z</time>
  <course>186.41</course>
  <speed>0.7283543093852057</speed>
  <fix>3d</fix>
</trkpt>
<trkpt lat="33.8102229" lon="-118.3939691">
  <ele>-0.108</ele>
  <time>2026-09-02T22:07:21Z</time>
  <course>186.41</course>
  <speed>0.7283543093852057</speed>
  <fix>3d</fix>
</trkpt>
<trkpt lat="33.8102228" lon="-118.3939691">
  <ele>-0.108</ele>
  <time>2026-09-02T22:07:21Z</time>
  <course>186.41</course>
  <speed>0.7283543093852057</speed>
  <fix>3d</fix>
</trkpt>
<trkpt lat="33.8102228" lon="-118.3939691">
  <ele>-0.108</ele>
  <time>2026-09-02T22:07:21Z</time>
  <course>186.41</course>
  <speed>0.7283543093852057</speed>
  <fix>3d</fix>
</trkpt>
<trkpt lat="33.8102227" lon="-118.3939692">
  <ele>-0.108</ele>
  <time>2026-09-02T22:07:21Z</time>
  <course>186.41</course>
  <speed>0.7283543093852057</speed>
  <fix>3d</fix>
</trkpt>
<trkpt lat="33.8102227" lon="-118.3939692">
  <ele>-0.108</ele>
  <time>2026-09-02T22:07:21Z</time>
  <course>186.41</course>
  <speed>0.7283543093852057</speed>
  <fix>3d</fix>
</trkpt>
<trkpt lat="33.8102227" lon="-118.3939692">
  <ele>-0.108</ele>
  <time>2026-09-02T22:07:21Z</time>
  <course>186.41</course>
  <speed>0.7283543093852057</speed>
  <fix>3d</fix>
</trkpt>
<trkpt lat="33.8102226" lon="-118.3939693">
  <ele>-0.108</ele>
  <time>2026-09-02T22:07:21Z</time>
  <course>186.41</course>
  <speed>0.7283543093852057</speed>
  <fix>3d</fix>
</trkpt>
<trkpt lat="33.8102226" lon="-118.3939693">
  <ele>-0.108</ele>
  <time>2026-09-02T22:07:21Z</time>
  <course>186.41</course>
  <speed>0.7283543093852057</speed>
  <fix>3d</fix>
</trkpt>
<trkpt lat="33.8102226" lon="-118.3939694">
  <ele>-0.108</ele>
  <time>2026-09-02T22:07:21Z</time>
  <course>186.41</course>
  <speed>0.7283543093852057</speed>
  <fix>3d</fix>
</trkpt>
<trkpt lat="33.8102225" lon="-118.3939694">
  <ele>-0.108</ele>
  <time>2026-09-02T22:07:21Z</time>
  <course>186.41</course>
  <speed>0.7283543093852057</speed>
  <fix>3d</fix>
</trkpt>
<trkpt lat="33.8102225" lon="-118.3939695">
  <ele>-0.108</ele>
  <time>2026-09-02T22:07:21Z</time>
  <course>186.41</course>
  <speed>0.7283543093852057</speed>
  <fix>3d</fix>
</trkpt>
<trkpt lat="33.8102225" lon="-118.3939695">
  <ele>-0.108</ele>
  <time>2026-09-02T22:07:21Z</time>
  <course>186.41</course>
  <speed>0.7283543093852057</speed>
  <fix>3d</fix>
</trkpt>
<trkpt lat="33.8102229" lon="-118.3939686">
  <ele>-0.1</ele>
  <time>2026-09-02T22:07:21Z</time>
  <course>223.26</course>
  <speed>0.73</speed>
  <fix>3d</fix>
</trkpt>
<trkpt lat="33.8102224" lon="-118.3939695">
  <ele>-0.108</ele>
  <time>2026-09-02T22:07:21Z</time>
  <course>186.41</course>
  <speed>0.7283543093852057</speed>
  <fix>3d</fix>
</trkpt>
<trkpt lat="33.8102224" lon="-118.3939696">
  <ele>-0.109</ele>
  <time>2026-09-02T22:07:21Z</time>
  <course>186.41</course>
  <speed>0.7283543093852057</speed>
  <fix>3d</fix>
</trkpt>
<trkpt lat="33.8102223" lon="-118.3939697">
  <ele>-0.109</ele>
  <time>2026-09-02T22:07:21Z</time>
  <course>186.41</course>
  <speed>0.7283543093852057</speed>
  <fix>3d</fix>
</trkpt>
<trkpt lat="33.8102223" lon="-118.3939697">
  <ele>-0.109</ele>
  <time>2026-09-02T22:07:21Z</time>
  <course>186.41</course>
  <speed>0.7283543093852057</speed>
  <fix>3d</fix>
</trkpt>
<trkpt lat="33.8102222" lon="-118.3939698">
  <ele>-0.108</ele>
  <time>2026-09-02T22:07:21Z</time>
  <course>186.41</course>
  <speed>0.7283543093852057</speed>
  <fix>3d</fix>
</trkpt>
<trkpt lat="33.8102222" lon="-118.3939698">
  <ele>-0.108</ele>
  <time>2026-09-02T22:07:21Z</time>
  <course>186.41</course>
  <speed>0.7283543093852057</speed>
  <fix>3d</fix>
</trkpt>
<trkpt lat="33.8102222" lon="-118.3939698">
  <ele>-0.108</ele>
  <time>2026-09-02T22:07:21Z</time>
  <course>186.41</course>
  <speed>0.7283543093852057</speed>
  <fix>3d</fix>
</trkpt>
<trkpt lat="33.8102221" lon="-118.3939699">
  <ele>-0.108</ele>
  <time>2026-09-02T22:07:21Z</time>
  <course>186.41</course>
  <speed>0.7283543093852057</speed>
  <fix>3d</fix>
</trkpt>
<trkpt lat="33.8102221" lon="-118.3939699">
  <ele>-0.108</ele>
  <time>2026-09-02T22:07:21Z</time>
  <course>186.41</course>
  <speed>0.7283543093852057</speed>
  <fix>3d</fix>
</trkpt>
<trkpt lat="33.810222" lon="-118.39397">
  <ele>-0.108</ele>
  <time>2026-09-02T22:07:21Z</time>
  <course>186.41</course>
  <speed>0.7283543093852057</speed>
  <fix>3d</fix>
</trkpt>
<trkpt lat="33.810222" lon="-118.39397">
  <ele>-0.108</ele>
  <time>2026-09-02T22:07:21Z</time>
  <course>186.41</course>
  <speed>0.7283543093852057</speed>
  <fix>3d</fix>
</trkpt>
<trkpt lat="33.810222" lon="-118.39397">
  <ele>-0.108</ele>
  <time>2026-09-02T22:07:21Z</time>
  <course>186.41</course>
  <speed>0.7283543093852057</speed>
  <fix>3d</fix>
</trkpt>
<trkpt lat="33.8102229" lon="-118.3939686">
  <ele>-0.1</ele>
  <time>2026-09-02T22:07:21Z</time>
  <course>223.26</course>
  <speed>0.73</speed>
  <fix>3d</fix>
</trkpt>
<trkpt lat="33.810222" lon="-118.3939701">
  <ele>-0.108</ele>
  <time>2026-09-02T22:07:21Z</time>
  <course>186.41</course>
  <speed>0.7283543093852057</speed>
  <fix>3d</fix>
</trkpt>
<trkpt lat="33.8102219" lon="-118.3939701">
  <ele>-0.108</ele>
  <time>2026-09-02T22:07:21Z</time>
  <course>186.41</course>
  <speed>0.7283543093852057</speed>
  <fix>3d</fix>
</trkpt>
<trkpt lat="33.8102219" lon="-118.3939702">
  <ele>-0.108</ele>
  <time>2026-09-02T22:07:21Z</time>
  <course>186.41</course>
  <speed>0.7283543093852057</speed>
  <fix>3d</fix>
</trkpt>
<trkpt lat="33.8102218" lon="-118.3939702">
  <ele>-0.108</ele>
  <time>2026-09-02T22:07:21Z</time>
  <course>186.41</course>
  <speed>0.7283543093852057</speed>
  <fix>3d</fix>
</trkpt>
<trkpt lat="33.8102218" lon="-118.3939703">
  <ele>-0.107</ele>
  <time>2026-09-02T22:07:21Z</time>
  <course>186.41</course>
  <speed>0.7283543093852057</speed>
  <fix>3d</fix>
</trkpt>
<trkpt lat="33.8102217" lon="-118.3939703">
  <ele>-0.107</ele>
  <time>2026-09-02T22:07:21Z</time>
  <course>186.41</course>
  <speed>0.7283543093852057</speed>
  <fix>3d</fix>
</trkpt>
<trkpt lat="33.8102217" lon="-118.3939704">
  <ele>-0.107</ele>
  <time>2026-09-02T22:07:21Z</time>
  <course>186.41</course>
  <speed>0.7283543093852057</speed>
  <fix>3d</fix>
</trkpt>
<trkpt lat="33.8102217" lon="-118.3939704">
  <ele>-0.107</ele>
  <time>2026-09-02T22:07:21Z</time>
  <course>186.41</course>
  <speed>0.7283543093852057</speed>
  <fix>3d</fix>
</trkpt>
<trkpt lat="33.8102216" lon="-118.3939705">
  <ele>-0.107</ele>
  <time>2026-09-02T22:07:21Z</time>
  <course>186.41</course>
  <speed>0.7283543093852057</speed>
  <fix>3d</fix>
</trkpt>
<trkpt lat="33.8102216" lon="-118.3939705">
  <ele>-0.107</ele>
  <time>2026-09-02T22:07:21Z</time>
  <course>186.41</course>
  <speed>0.7283543093852057</speed>
  <fix>3d</fix>
</trkpt>
<trkpt lat="33.8102215" lon="-118.3939706">
  <ele>-0.107</ele>
  <time>2026-09-02T22:07:21Z</time>
  <course>186.41</course>
  <speed>0.7283543093852057</speed>
  <fix>3d</fix>
</trkpt>
<trkpt lat="33.8102215" lon="-118.3939706">
  <ele>-0.107</ele>
  <time>2026-09-02T22:07:21Z</time>
  <course>186.41</course>
  <speed>0.7283543093852057</speed>
  <fix>3d</fix>
</trkpt>
<trkpt lat="33.8102215" lon="-118.3939706">
  <ele>-0.107</ele>
  <time>2026-09-02T22:07:21Z</time>
  <course>186.41</course>
  <speed>0.7283543093852057</speed>
  <fix>3d</fix>
</trkpt>
<trkpt lat="33.8102219" lon="-118.3939697">
  <ele>-0.11</ele>
  <time>2026-09-02T22:07:21Z</time>
  <course>223.26</course>
  <speed>0.73</speed>
  <fix>3d</fix>
</trkpt>
<trkpt lat="33.8102214" lon="-118.3939707">
  <ele>-0.106</ele>
  <time>2026-09-02T22:07:21Z</time>
  <course>186.41</course>
  <speed>0.7283543093852057</speed>
  <fix>3d</fix>
</trkpt>
<trkpt lat="33.8102214" lon="-118.3939707">
  <ele>-0.106</ele>
  <time>2026-09-02T22:07:21Z</time>
  <course>186.41</course>
  <speed>0.7283543093852057</speed>
  <fix>3d</fix>
</trkpt>
<trkpt lat="33.8102213" lon="-118.3939708">
  <ele>-0.106</ele>
  <time>2026-09-02T22:07:21Z</time>
  <course>186.41</course>
  <speed>0.7283543093852057</speed>
  <fix>3d</fix>
</trkpt>
<trkpt lat="33.8102213" lon="-118.3939708">
  <ele>-0.106</ele>
  <time>2026-09-02T22:07:21Z</time>
  <course>186.41</course>
  <speed>0.7283543093852057</speed>
  <fix>3d</fix>
</trkpt>
<trkpt lat="33.8102212" lon="-118.3939709">
  <ele>-0.106</ele>
  <time>2026-09-02T22:07:21Z</time>
  <course>186.41</course>
  <speed>0.7283543093852057</speed>
  <fix>3d</fix>
</trkpt>
<trkpt lat="33.8102212" lon="-118.3939709">
  <ele>-0.106</ele>
  <time>2026-09-02T22:07:21Z</time>
  <course>186.41</course>
  <speed>0.7283543093852057</speed>
  <fix>3d</fix>
</trkpt>
<trkpt lat="33.8102212" lon="-118.393971">
  <ele>-0.106</ele>
  <time>2026-09-02T22:07:21Z</time>
  <course>186.41</course>
  <speed>0.7283543093852057</speed>
  <fix>3d</fix>
</trkpt>
<trkpt lat="33.8102211" lon="-118.393971">
  <ele>-0.105</ele>
  <time>2026-09-02T22:07:21Z</time>
  <course>186.41</course>
  <speed>0.7283543093852057</speed>
  <fix>3d</fix>
</trkpt>
<trkpt lat="33.8102211" lon="-118.3939711">
  <ele>-0.105</ele>
  <time>2026-09-02T22:07:21Z</time>
  <course>186.41</course>
  <speed>0.7283543093852057</speed>
  <fix>3d</fix>
</trkpt>
<trkpt lat="33.810221" lon="-118.3939711">
  <ele>-0.105</ele>
  <time>2026-09-02T22:07:21Z</time>
  <course>186.41</course>
  <speed>0.7283543093852057</speed>
  <fix>3d</fix>
</trkpt>
<trkpt lat="33.810221" lon="-118.3939711">
  <ele>-0.105</ele>
  <time>2026-09-02T22:07:21Z</time>
  <course>186.41</course>
  <speed>0.7283543093852057</speed>
  <fix>3d</fix>
</trkpt>
<trkpt lat="33.8102219" lon="-118.3939697">
  <ele>-0.11</ele>
  <time>2026-09-02T22:07:21Z</time>
  <course>223.26</course>
  <speed>0.73</speed>
  <fix>3d</fix>
</trkpt>
<trkpt lat="33.810221" lon="-118.3939712">
  <ele>-0.105</ele>
  <time>2026-09-02T22:07:21Z</time>
  <course>186.41</course>
  <speed>0.7283543093852057</speed>
  <fix>3d</fix>
</trkpt>
<trkpt lat="33.8102209" lon="-118.3939712">
  <ele>-0.105</ele>
  <time>2026-09-02T22:07:21Z</time>
  <course>186.41</course>
  <speed>0.7283543093852057</speed>
  <fix>3d</fix>
</trkpt>
<trkpt lat="33.8102209" lon="-118.3939713">
  <ele>-0.105</ele>
  <time>2026-09-02T22:07:21Z</time>
  <course>186.41</course>
  <speed>0.7283543093852057</speed>
  <fix>3d</fix>
</trkpt>
<trkpt lat="33.8102209" lon="-118.3939713">
  <ele>-0.104</ele>
  <time>2026-09-02T22:07:21Z</time>
  <course>186.41</course>
  <speed>0.7283543093852057</speed>
  <fix>3d</fix>
</trkpt>
<trkpt lat="33.8102208" lon="-118.3939714">
  <ele>-0.104</ele>
  <time>2026-09-02T22:07:21Z</time>
  <course>186.41</course>
  <speed>0.7283543093852057</speed>
  <fix>3d</fix>
</trkpt>
<trkpt lat="33.8102208" lon="-118.3939714">
  <ele>-0.104</ele>
  <time>2026-09-02T22:07:21Z</time>
  <course>186.41</course>
  <speed>0.7283543093852057</speed>
  <fix>3d</fix>
</trkpt>
<trkpt lat="33.8102208" lon="-118.3939714">
  <ele>-0.104</ele>
  <time>2026-09-02T22:07:21Z</time>
  <course>186.41</course>
  <speed>0.7283543093852057</speed>
  <fix>3d</fix>
</trkpt>
<trkpt lat="33.8102207" lon="-118.3939715">
  <ele>-0.104</ele>
  <time>2026-09-02T22:07:21Z</time>
  <course>186.41</course>
  <speed>0.7283543093852057</speed>
  <fix>3d</fix>
</trkpt>
<trkpt lat="33.8102207" lon="-118.3939715">
  <ele>-0.104</ele>
  <time>2026-09-02T22:07:21Z</time>
  <course>186.41</course>
  <speed>0.7283543093852057</speed>
  <fix>3d</fix>
</trkpt>
<trkpt lat="33.8102206" lon="-118.3939716">
  <ele>-0.104</ele>
  <time>2026-09-02T22:07:21Z</time>
  <course>186.41</course>
  <speed>0.7283543093852057</speed>
  <fix>3d</fix>
</trkpt>
<trkpt lat="33.8102206" lon="-118.3939716">
  <ele>-0.104</ele>
  <time>2026-09-02T22:07:21Z</time>
  <course>186.41</course>
  <speed>0.7283543093852057</speed>
  <fix>3d</fix>
</trkpt>
<trkpt lat="33.8102205" lon="-118.3939717">
  <ele>-0.103</ele>
  <time>2026-09-02T22:07:21Z</time>
  <course>186.4</course>
  <speed>0.7283543093852057</speed>
  <fix>3d</fix>
</trkpt>
<trkpt lat="33.8102205" lon="-118.3939717">
  <ele>-0.103</ele>
  <time>2026-09-02T22:07:21Z</time>
  <course>186.4</course>
  <speed>0.7283543093852057</speed>
  <fix>3d</fix>
</trkpt>
<trkpt lat="33.810221" lon="-118.3939708">
  <ele>-0.1</ele>
  <time>2026-09-02T22:07:21Z</time>
  <course>223.26</course>
  <speed>0.73</speed>
  <fix>3d</fix>
</trkpt>
<trkpt lat="33.8102205" lon="-118.3939717">
  <ele>-0.103</ele>
  <time>2026-09-02T22:07:21Z</time>
  <course>186.4</course>
  <speed>0.7283543093852057</speed>
  <fix>3d</fix>
</trkpt>
<trkpt lat="33.8102205" lon="-118.3939718">
  <ele>-0.103</ele>
  <time>2026-09-02T22:07:21Z</time>
  <course>186.4</course>
  <speed>0.7283543093852057</speed>
  <fix>3d</fix>
</trkpt>
<trkpt lat="33.8102204" lon="-118.3939718">
  <ele>-0.103</ele>
  <time>2026-09-02T22:07:21Z</time>
  <course>186.4</course>
  <speed>0.7283543093852057</speed>
  <fix>3d</fix>
</trkpt>
<trkpt lat="33.8102204" lon="-118.3939718">
  <ele>-0.103</ele>
  <time>2026-09-02T22:07:21Z</time>
  <course>186.4</course>
  <speed>0.7283543093852057</speed>
  <fix>3d</fix>
</trkpt>
<trkpt lat="33.8102203" lon="-118.3939719">
  <ele>-0.103</ele>
  <time>2026-09-02T22:07:21Z</time>
  <course>186.4</course>
  <speed>0.7283543093852057</speed>
  <fix>3d</fix>
</trkpt>
<trkpt lat="33.8102203" lon="-118.3939719">
  <ele>-0.103</ele>
  <time>2026-09-02T22:07:21Z</time>
  <course>186.4</course>
  <speed>0.7283543093852057</speed>
  <fix>3d</fix>
</trkpt>
<trkpt lat="33.8102203" lon="-118.393972">
  <ele>-0.103</ele>
  <time>2026-09-02T22:07:21Z</time>
  <course>186.4</course>
  <speed>0.7283543093852057</speed>
  <fix>3d</fix>
</trkpt>
<trkpt lat="33.8102202" lon="-118.393972">
  <ele>-0.103</ele>
  <time>2026-09-02T22:07:21Z</time>
  <course>186.4</course>
  <speed>0.7283543093852057</speed>
  <fix>3d</fix>
</trkpt>
<trkpt lat="33.8102202" lon="-118.3939721">
  <ele>-0.102</ele>
  <time>2026-09-02T22:07:21Z</time>
  <course>186.4</course>
  <speed>0.7283543093852057</speed>
  <fix>3d</fix>
</trkpt>
<trkpt lat="33.8102201" lon="-118.3939721">
  <ele>-0.102</ele>
  <time>2026-09-02T22:07:21Z</time>
  <course>186.4</course>
  <speed>0.7283543093852057</speed>
  <fix>3d</fix>
</trkpt>
<trkpt lat="33.8102201" lon="-118.3939722">
  <ele>-0.102</ele>
  <time>2026-09-02T22:07:21Z</time>
  <course>186.4</course>
  <speed>0.7283543093852057</speed>
  <fix>3d</fix>
</trkpt>
<trkpt lat="33.81022" lon="-118.3939722">
  <ele>-0.102</ele>
  <time>2026-09-02T22:07:21Z</time>
  <course>186.4</course>
  <speed>0.7283543093852057</speed>
  <fix>3d</fix>
</trkpt>
<trkpt lat="33.810221" lon="-118.3939708">
  <ele>-0.1</ele>
  <time>2026-09-02T22:07:21Z</time>
  <course>223.26</course>
  <speed>0.73</speed>
  <fix>3d</fix>
</trkpt>
<trkpt lat="33.81022" lon="-118.3939722">
  <ele>-0.102</ele>
  <time>2026-09-02T22:07:21Z</time>
  <course>186.4</course>
  <speed>0.7283543093852057</speed>
  <fix>3d</fix>
</trkpt>
<trkpt lat="33.81022" lon="-118.3939723">
  <ele>-0.102</ele>
  <time>2026-09-02T22:07:21Z</time>
  <course>186.4</course>
  <speed>0.7283543093852057</speed>
  <fix>3d</fix>
</trkpt>
<trkpt lat="33.8102199" lon="-118.3939724">
  <ele>-0.102</ele>
  <time>2026-09-02T22:07:21Z</time>
  <course>186.4</course>
  <speed>0.7283543093852057</speed>
  <fix>3d</fix>
</trkpt>
<trkpt lat="33.8102199" lon="-118.3939724">
  <ele>-0.102</ele>
  <time>2026-09-02T22:07:21Z</time>
  <course>186.4</course>
  <speed>0.7283543093852057</speed>
  <fix>3d</fix>
</trkpt>
<trkpt lat="33.8102198" lon="-118.3939725">
  <ele>-0.102</ele>
  <time>2026-09-02T22:07:21Z</time>
  <course>186.4</course>
  <speed>0.7283543093852057</speed>
  <fix>3d</fix>
</trkpt>
<trkpt lat="33.8102198" lon="-118.3939725">
  <ele>-0.102</ele>
  <time>2026-09-02T22:07:21Z</time>
  <course>186.4</course>
  <speed>0.7283543093852057</speed>
  <fix>3d</fix>
</trkpt>
<trkpt lat="33.8102198" lon="-118.3939725">
  <ele>-0.102</ele>
  <time>2026-09-02T22:07:21Z</time>
  <course>186.4</course>
  <speed>0.7283543093852057</speed>
  <fix>3d</fix>
</trkpt>
<trkpt lat="33.8102197" lon="-118.3939726">
  <ele>-0.102</ele>
  <time>2026-09-02T22:07:21Z</time>
  <course>186.4</course>
  <speed>0.7283543093852057</speed>
  <fix>3d</fix>
</trkpt>
<trkpt lat="33.8102197" lon="-118.3939726">
  <ele>-0.102</ele>
  <time>2026-09-02T22:07:21Z</time>
  <course>186.4</course>
  <speed>0.7283543093852057</speed>
  <fix>3d</fix>
</trkpt>
<trkpt lat="33.8102197" lon="-118.3939727">
  <ele>-0.102</ele>
  <time>2026-09-02T22:07:21Z</time>
  <course>186.4</course>
  <speed>0.7283543093852057</speed>
  <fix>3d</fix>
</trkpt>
<trkpt lat="33.8102196" lon="-118.3939727">
  <ele>-0.102</ele>
  <time>2026-09-02T22:07:21Z</time>
  <course>186.4</course>
  <speed>0.7283543093852057</speed>
  <fix>3d</fix>
</trkpt>
<trkpt lat="33.8102196" lon="-118.3939728">
  <ele>-0.102</ele>
  <time>2026-09-02T22:07:21Z</time>
  <course>186.4</course>
  <speed>0.7283543093852057</speed>
  <fix>3d</fix>
</trkpt>
<trkpt lat="33.8102196" lon="-118.3939728">
  <ele>-0.102</ele>
  <time>2026-09-02T22:07:21Z</time>
  <course>186.4</course>
  <speed>0.7283543093852057</speed>
  <fix>3d</fix>
</trkpt>
<trkpt lat="33.81022" lon="-118.3939719">
  <ele>-0.1</ele>
  <time>2026-09-02T22:07:21Z</time>
  <course>223.26</course>
  <speed>0.73</speed>
  <fix>3d</fix>
</trkpt>
<trkpt lat="33.8102195" lon="-118.3939729">
  <ele>-0.101</ele>
  <time>2026-09-02T22:07:21Z</time>
  <course>186.4</course>
  <speed>0.7283543093852057</speed>
  <fix>3d</fix>
</trkpt>
<trkpt lat="33.8102194" lon="-118.3939729">
  <ele>-0.101</ele>
  <time>2026-09-02T22:07:21Z</time>
  <course>186.4</course>
  <speed>0.7283543093852057</speed>
  <fix>3d</fix>
</trkpt>
<trkpt lat="33.8102194" lon="-118.393973">
  <ele>-0.101</ele>
  <time>2026-09-02T22:07:21Z</time>
  <course>186.4</course>
  <speed>0.7283543093852057</speed>
  <fix>3d</fix>
</trkpt>
<trkpt lat="33.8102193" lon="-118.393973">
  <ele>-0.102</ele>
  <time>2026-09-02T22:07:21Z</time>
  <course>186.4</course>
  <speed>0.7283543093852057</speed>
  <fix>3d</fix>
</trkpt>
<trkpt lat="33.8102193" lon="-118.3939731">
  <ele>-0.102</ele>
  <time>2026-09-02T22:07:21Z</time>
  <course>186.4</course>
  <speed>0.7283543093852057</speed>
  <fix>3d</fix>
</trkpt>
<trkpt lat="33.8102193" lon="-118.3939731">
  <ele>-0.102</ele>
  <time>2026-09-02T22:07:21Z</time>
  <course>186.4</course>
  <speed>0.7283543093852057</speed>
  <fix>3d</fix>
</trkpt>
<trkpt lat="33.8102192" lon="-118.3939732">
  <ele>-0.102</ele>
  <time>2026-09-02T22:07:21Z</time>
  <course>186.4</course>
  <speed>0.7283543093852057</speed>
  <fix>3d</fix>
</trkpt>
<trkpt lat="33.8102192" lon="-118.3939732">
  <ele>-0.102</ele>
  <time>2026-09-02T22:07:21Z</time>
  <course>186.4</course>
  <speed>0.7283543093852057</speed>
  <fix>3d</fix>
</trkpt>
<trkpt lat="33.8102191" lon="-118.3939733">
  <ele>-0.102</ele>
  <time>2026-09-02T22:07:21Z</time>
  <course>186.4</course>
  <speed>0.7283543093852057</speed>
  <fix>3d</fix>
</trkpt>
<trkpt lat="33.8102191" lon="-118.3939733">
  <ele>-0.102</ele>
  <time>2026-09-02T22:07:21Z</time>
  <course>186.4</course>
  <speed>0.7283543093852057</speed>
  <fix>3d</fix>
</trkpt>
<trkpt lat="33.8102191" lon="-118.3939733">
  <ele>-0.102</ele>
  <time>2026-09-02T22:07:21Z</time>
  <course>186.4</course>
  <speed>0.7283543093852057</speed>
  <fix>3d</fix>
</trkpt>
<trkpt lat="33.81022" lon="-118.3939719">
  <ele>-0.1</ele>
  <time>2026-09-02T22:07:21Z</time>
  <course>223.26</course>
  <speed>0.73</speed>
  <fix>3d</fix>
</trkpt>
<trkpt lat="33.8102191" lon="-118.3939733">
  <ele>-0.102</ele>
  <time>2026-09-02T22:07:21Z</time>
  <course>186.4</course>
  <speed>0.7283543093852057</speed>
  <fix>3d</fix>
</trkpt>
<trkpt lat="33.810219" lon="-118.3939734">
  <ele>-0.102</ele>
  <time>2026-09-02T22:07:21Z</time>
  <course>186.4</course>
  <speed>0.7283543093852057</speed>
  <fix>3d</fix>
</trkpt>
<trkpt lat="33.8102189" lon="-118.3939735">
  <ele>-0.102</ele>
  <time>2026-09-02T22:07:21Z</time>
  <course>186.4</course>
  <speed>0.7283543093852057</speed>
  <fix>3d</fix>
</trkpt>
<trkpt lat="33.8102189" lon="-118.3939736">
  <ele>-0.103</ele>
  <time>2026-09-02T22:07:21Z</time>
  <course>186.4</course>
  <speed>0.7283543093852057</speed>
  <fix>3d</fix>
</trkpt>
<trkpt lat="33.8102188" lon="-118.3939736">
  <ele>-0.103</ele>
  <time>2026-09-02T22:07:21Z</time>
  <course>186.4</course>
  <speed>0.7283543093852057</speed>
  <fix>3d</fix>
</trkpt>
<trkpt lat="33.8102188" lon="-118.3939737">
  <ele>-0.103</ele>
  <time>2026-09-02T22:07:21Z</time>
  <course>186.4</course>
  <speed>0.7283543093852057</speed>
  <fix>3d</fix>
</trkpt>
<trkpt lat="33.8102187" lon="-118.3939737">
  <ele>-0.103</ele>
  <time>2026-09-02T22:07:21Z</time>
  <course>186.4</course>
  <speed>0.7283543093852057</speed>
  <fix>3d</fix>
</trkpt>
<trkpt lat="33.8102187" lon="-118.3939738">
  <ele>-0.103</ele>
  <time>2026-09-02T22:07:21Z</time>
  <course>186.4</course>
  <speed>0.7283543093852057</speed>
  <fix>3d</fix>
</trkpt>
<trkpt lat="33.8102186" lon="-118.3939738">
  <ele>-0.104</ele>
  <time>2026-09-02T22:07:21Z</time>
  <course>186.4</course>
  <speed>0.7283543093852057</speed>
  <fix>3d</fix>
</trkpt>
<trkpt lat="33.8102186" lon="-118.3939739">
  <ele>-0.104</ele>
  <time>2026-09-02T22:07:21Z</time>
  <course>186.4</course>
  <speed>0.7283543093852057</speed>
  <fix>3d</fix>
</trkpt>
<trkpt lat="33.8102191" lon="-118.393973">
  <ele>-0.1</ele>
  <time>2026-09-02T22:07:21Z</time>
  <course>223.26</course>
  <speed>0.73</speed>
  <fix>3d</fix>
</trkpt>
<trkpt lat="33.8102186" lon="-118.3939739">
  <ele>-0.104</ele>
  <time>2026-09-02T22:07:21Z</time>
  <course>186.4</course>
  <speed>0.7283543093852057</speed>
  <fix>3d</fix>
</trkpt>
<trkpt lat="33.8102185" lon="-118.393974">
  <ele>-0.104</ele>
  <time>2026-09-02T22:07:21Z</time>
  <course>186.4</course>
  <speed>0.7283543093852057</speed>
  <fix>3d</fix>
</trkpt>
<trkpt lat="33.8102185" lon="-118.393974">
  <ele>-0.104</ele>
  <time>2026-09-02T22:07:21Z</time>
  <course>186.4</course>
  <speed>0.7283543093852057</speed>
  <fix>3d</fix>
</trkpt>
<trkpt lat="33.8102184" lon="-118.3939741">
  <ele>-0.104</ele>
  <time>2026-09-02T22:07:21Z</time>
  <course>186.4</course>
  <speed>0.7283543093852057</speed>
  <fix>3d</fix>
</trkpt>
<trkpt lat="33.8102184" lon="-118.3939741">
  <ele>-0.104</ele>
  <time>2026-09-02T22:07:21Z</time>
  <course>186.4</course>
  <speed>0.7283543093852057</speed>
  <fix>3d</fix>
</trkpt>
<trkpt lat="33.8102184" lon="-118.3939742">
  <ele>-0.104</ele>
  <time>2026-09-02T22:07:21Z</time>
  <course>186.4</course>
  <speed>0.7283543093852057</speed>
  <fix>3d</fix>
</trkpt>
<trkpt lat="33.8102183" lon="-118.3939742">
  <ele>-0.105</ele>
  <time>2026-09-02T22:07:21Z</time>
  <course>186.4</course>
  <speed>0.7283543093852057</speed>
  <fix>3d</fix>
</trkpt>
<trkpt lat="33.8102183" lon="-118.3939742">
  <ele>-0.105</ele>
  <time>2026-09-02T22:07:21Z</time>
  <course>186.4</course>
  <speed>0.7283543093852057</speed>
  <fix>3d</fix>
</trkpt>
<trkpt lat="33.8102183" lon="-118.3939743">
  <ele>-0.105</ele>
  <time>2026-09-02T22:07:21Z</time>
  <course>186.4</course>
  <speed>0.7283543093852057</speed>
  <fix>3d</fix>
</trkpt>
<trkpt lat="33.8102182" lon="-118.3939743">
  <ele>-0.105</ele>
  <time>2026-09-02T22:07:21Z</time>
  <course>186.4</course>
  <speed>0.7283543093852057</speed>
  <fix>3d</fix>
</trkpt>
<trkpt lat="33.8102182" lon="-118.3939744">
  <ele>-0.105</ele>
  <time>2026-09-02T22:07:21Z</time>
  <course>186.4</course>
  <speed>0.7283543093852057</speed>
  <fix>3d</fix>
</trkpt>
<trkpt lat="33.8102181" lon="-118.3939744">
  <ele>-0.105</ele>
  <time>2026-09-02T22:07:21Z</time>
  <course>186.4</course>
  <speed>0.7283543093852057</speed>
  <fix>3d</fix>
</trkpt>
<trkpt lat="33.8102181" lon="-118.3939744">
  <ele>-0.105</ele>
  <time>2026-09-02T22:07:21Z</time>
  <course>186.4</course>
  <speed>0.7283543093852057</speed>
  <fix>3d</fix>
</trkpt>
<trkpt lat="33.8102191" lon="-118.393973">
  <ele>-0.1</ele>
  <time>2026-09-02T22:07:21Z</time>
  <course>223.26</course>
  <speed>0.73</speed>
  <fix>3d</fix>
</trkpt>
<trkpt lat="33.8102181" lon="-118.3939744">
  <ele>-0.105</ele>
  <time>2026-09-02T22:07:21Z</time>
  <course>186.4</course>
  <speed>0.7283543093852057</speed>
  <fix>3d</fix>
</trkpt>
<trkpt lat="33.810218" lon="-118.3939745">
  <ele>-0.105</ele>
  <time>2026-09-02T22:07:21Z</time>
  <course>186.4</course>
  <speed>0.7283543093852057</speed>
  <fix>3d</fix>
</trkpt>
<trkpt lat="33.810218" lon="-118.3939746">
  <ele>-0.106</ele>
  <time>2026-09-02T22:07:21Z</time>
  <course>186.4</course>
  <speed>0.7283543093852057</speed>
  <fix>3d</fix>
</trkpt>
<trkpt lat="33.8102179" lon="-118.3939746">
  <ele>-0.106</ele>
  <time>2026-09-02T22:07:21Z</time>
  <course>186.4</course>
  <speed>0.7283543093852057</speed>
  <fix>3d</fix>
</trkpt>
<trkpt lat="33.8102179" lon="-118.3939747">
  <ele>-0.106</ele>
  <time>2026-09-02T22:07:21Z</time>
  <course>186.4</course>
  <speed>0.7283543093852057</speed>
  <fix>3d</fix>
</trkpt>
<trkpt lat="33.8102179" lon="-118.3939747">
  <ele>-0.106</ele>
  <time>2026-09-02T22:07:21Z</time>
  <course>186.4</course>
  <speed>0.7283543093852057</speed>
  <fix>3d</fix>
</trkpt>
<trkpt lat="33.8102178" lon="-118.3939748">
  <ele>-0.106</ele>
  <time>2026-09-02T22:07:21Z</time>
  <course>186.4</course>
  <speed>0.7283543093852057</speed>
  <fix>3d</fix>
</trkpt>
<trkpt lat="33.8102178" lon="-118.3939748">
  <ele>-0.106</ele>
  <time>2026-09-02T22:07:21Z</time>
  <course>186.4</course>
  <speed>0.7283543093852057</speed>
  <fix>3d</fix>
</trkpt>
<trkpt lat="33.8102177" lon="-118.3939749">
  <ele>-0.106</ele>
  <time>2026-09-02T22:07:21Z</time>
  <course>186.4</course>
  <speed>0.7283543093852057</speed>
  <fix>3d</fix>
</trkpt>
<trkpt lat="33.8102177" lon="-118.3939749">
  <ele>-0.107</ele>
  <time>2026-09-02T22:07:21Z</time>
  <course>186.4</course>
  <speed>0.7283543093852057</speed>
  <fix>3d</fix>
</trkpt>
<trkpt lat="33.8102176" lon="-118.393975">
  <ele>-0.107</ele>
  <time>2026-09-02T22:07:21Z</time>
  <course>186.4</course>
  <speed>0.7283543093852057</speed>
  <fix>3d</fix>
</trkpt>
<trkpt lat="33.8102176" lon="-118.393975">
  <ele>-0.107</ele>
  <time>2026-09-02T22:07:21Z</time>
  <course>186.4</course>
  <speed>0.7283543093852057</speed>
  <fix>3d</fix>
</trkpt>
<trkpt lat="33.8102181" lon="-118.393974">
  <ele>-0.1</ele>
  <time>2026-09-02T22:07:21Z</time>
  <course>223.26</course>
  <speed>0.73</speed>
  <fix>3d</fix>
</trkpt>
<trkpt lat="33.8102176" lon="-118.3939751">
  <ele>-0.107</ele>
  <time>2026-09-02T22:07:21Z</time>
  <course>186.4</course>
  <speed>0.7283543093852057</speed>
  <fix>3d</fix>
</trkpt>
<trkpt lat="33.8102175" lon="-118.3939751">
  <ele>-0.107</ele>
  <time>2026-09-02T22:07:21Z</time>
  <course>186.4</course>
  <speed>0.7283543093852057</speed>
  <fix>3d</fix>
</trkpt>
<trkpt lat="33.8102175" lon="-118.3939752">
  <ele>-0.107</ele>
  <time>2026-09-02T22:07:21Z</time>
  <course>186.4</course>
  <speed>0.7283543093852057</speed>
  <fix>3d</fix>
</trkpt>
<trkpt lat="33.8102174" lon="-118.3939752">
  <ele>-0.107</ele>
  <time>2026-09-02T22:07:21Z</time>
  <course>186.4</course>
  <speed>0.7283543093852057</speed>
  <fix>3d</fix>
</trkpt>
<trkpt lat="33.8102174" lon="-118.3939753">
  <ele>-0.107</ele>
  <time>2026-09-02T22:07:21Z</time>
  <course>186.4</course>
  <speed>0.7283543093852057</speed>
  <fix>3d</fix>
</trkpt>
<trkpt lat="33.8102174" lon="-118.3939753">
  <ele>-0.107</ele>
  <time>2026-09-02T22:07:21Z</time>
  <course>186.4</course>
  <speed>0.7283543093852057</speed>
  <fix>3d</fix>
</trkpt>
<trkpt lat="33.8102173" lon="-118.3939753">
  <ele>-0.107</ele>
  <time>2026-09-02T22:07:21Z</time>
  <course>186.4</course>
  <speed>0.7283543093852057</speed>
  <fix>3d</fix>
</trkpt>
<trkpt lat="33.8102173" lon="-118.3939754">
  <ele>-0.107</ele>
  <time>2026-09-02T22:07:21Z</time>
  <course>186.4</course>
  <speed>0.7283543093852057</speed>
  <fix>3d</fix>
</trkpt>
<trkpt lat="33.8102172" lon="-118.3939754">
  <ele>-0.107</ele>
  <time>2026-09-02T22:07:21Z</time>
  <course>186.4</course>
  <speed>0.7283543093852057</speed>
  <fix>3d</fix>
</trkpt>
<trkpt lat="33.8102172" lon="-118.3939755">
  <ele>-0.107</ele>
  <time>2026-09-02T22:07:21Z</time>
  <course>186.4</course>
  <speed>0.7283543093852057</speed>
  <fix>3d</fix>
</trkpt>
<trkpt lat="33.8102172" lon="-118.3939755">
  <ele>-0.107</ele>
  <time>2026-09-02T22:07:21Z</time>
  <course>186.4</course>
  <speed>0.7283543093852057</speed>
  <fix>3d</fix>
</trkpt>
<trkpt lat="33.8102172" lon="-118.3939755">
  <ele>-0.107</ele>
  <time>2026-09-02T22:07:21Z</time>
  <course>186.4</course>
  <speed>0.7283543093852057</speed>
  <fix>3d</fix>
</trkpt>
<trkpt lat="33.8102181" lon="-118.393974">
  <ele>-0.1</ele>
  <time>2026-09-02T22:07:21Z</time>
  <course>223.26</course>
  <speed>0.73</speed>
  <fix>3d</fix>
</trkpt>
<trkpt lat="33.8102172" lon="-118.3939755">
  <ele>-0.107</ele>
  <time>2026-09-02T22:07:21Z</time>
  <course>186.4</course>
  <speed>0.7283543093852057</speed>
  <fix>3d</fix>
</trkpt>
<trkpt lat="33.8102171" lon="-118.3939756">
  <ele>-0.107</ele>
  <time>2026-09-02T22:07:21Z</time>
  <course>186.39</course>
  <speed>0.7283543093852057</speed>
  <fix>3d</fix>
</trkpt>
<trkpt lat="33.810217" lon="-118.3939757">
  <ele>-0.107</ele>
  <time>2026-09-02T22:07:21Z</time>
  <course>186.39</course>
  <speed>0.7283543093852057</speed>
  <fix>3d</fix>
</trkpt>
<trkpt lat="33.810217" lon="-118.3939757">
  <ele>-0.107</ele>
  <time>2026-09-02T22:07:21Z</time>
  <course>186.39</course>
  <speed>0.7283543093852057</speed>
  <fix>3d</fix>
</trkpt>
<trkpt lat="33.810217" lon="-118.3939757">
  <ele>-0.107</ele>
  <time>2026-09-02T22:07:21Z</time>
  <course>186.39</course>
  <speed>0.7283543093852057</speed>
  <fix>3d</fix>
</trkpt>
<trkpt lat="33.8102169" lon="-118.3939758">
  <ele>-0.107</ele>
  <time>2026-09-02T22:07:21Z</time>
  <course>186.39</course>
  <speed>0.7283543093852057</speed>
  <fix>3d</fix>
</trkpt>
<trkpt lat="33.8102169" lon="-118.3939758">
  <ele>-0.107</ele>
  <time>2026-09-02T22:07:21Z</time>
  <course>186.39</course>
  <speed>0.7283543093852057</speed>
  <fix>3d</fix>
</trkpt>
<trkpt lat="33.8102169" lon="-118.3939759">
  <ele>-0.107</ele>
  <time>2026-09-02T22:07:21Z</time>
  <course>186.39</course>
  <speed>0.7283543093852057</speed>
  <fix>3d</fix>
</trkpt>
<trkpt lat="33.8102168" lon="-118.3939759">
  <ele>-0.107</ele>
  <time>2026-09-02T22:07:21Z</time>
  <course>186.39</course>
  <speed>0.7283543093852057</speed>
  <fix>3d</fix>
</trkpt>
<trkpt lat="33.8102168" lon="-118.393976">
  <ele>-0.107</ele>
  <time>2026-09-02T22:07:21Z</time>
  <course>186.39</course>
  <speed>0.7283543093852057</speed>
  <fix>3d</fix>
</trkpt>
<trkpt lat="33.8102167" lon="-118.393976">
  <ele>-0.107</ele>
  <time>2026-09-02T22:07:21Z</time>
  <course>186.39</course>
  <speed>0.7283543093852057</speed>
  <fix>3d</fix>
</trkpt>
<trkpt lat="33.8102167" lon="-118.3939761">
  <ele>-0.107</ele>
  <time>2026-09-02T22:07:21Z</time>
  <course>186.39</course>
  <speed>0.7283543093852057</speed>
  <fix>3d</fix>
</trkpt>
<trkpt lat="33.8102171" lon="-118.3939751">
  <ele>-0.11</ele>
  <time>2026-09-02T22:07:21Z</time>
  <course>223.26</course>
  <speed>0.73</speed>
  <fix>3d</fix>
</trkpt>
<trkpt lat="33.8102167" lon="-118.3939761">
  <ele>-0.107</ele>
  <time>2026-09-02T22:07:21Z</time>
  <course>186.39</course>
  <speed>0.7283543093852057</speed>
  <fix>3d</fix>
</trkpt>
<trkpt lat="33.8102166" lon="-118.3939761">
  <ele>-0.107</ele>
  <time>2026-09-02T22:07:21Z</time>
  <course>186.39</course>
  <speed>0.7283543093852057</speed>
  <fix>3d</fix>
</trkpt>
<trkpt lat="33.8102166" lon="-118.3939762">
  <ele>-0.107</ele>
  <time>2026-09-02T22:07:21Z</time>
  <course>186.39</course>
  <speed>0.7283543093852057</speed>
  <fix>3d</fix>
</trkpt>
<trkpt lat="33.8102165" lon="-118.3939762">
  <ele>-0.107</ele>
  <time>2026-09-02T22:07:21Z</time>
  <course>186.39</course>
  <speed>0.7283543093852057</speed>
  <fix>3d</fix>
</trkpt>
<trkpt lat="33.8102165" lon="-118.3939763">
  <ele>-0.107</ele>
  <time>2026-09-02T22:07:21Z</time>
  <course>186.39</course>
  <speed>0.7283543093852057</speed>
  <fix>3d</fix>
</trkpt>
<trkpt lat="33.8102165" lon="-118.3939763">
  <ele>-0.106</ele>
  <time>2026-09-02T22:07:21Z</time>
  <course>186.39</course>
  <speed>0.7283543093852057</speed>
  <fix>3d</fix>
</trkpt>
<trkpt lat="33.8102164" lon="-118.3939764">
  <ele>-0.107</ele>
  <time>2026-09-02T22:07:21Z</time>
  <course>186.39</course>
  <speed>0.7283543093852057</speed>
  <fix>3d</fix>
</trkpt>
<trkpt lat="33.8102164" lon="-118.3939764">
  <ele>-0.106</ele>
  <time>2026-09-02T22:07:21Z</time>
  <course>186.39</course>
  <speed>0.7283543093852057</speed>
  <fix>3d</fix>
</trkpt>
<trkpt lat="33.8102163" lon="-118.3939765">
  <ele>-0.106</ele>
  <time>2026-09-02T22:07:21Z</time>
  <course>186.39</course>
  <speed>0.7283543093852057</speed>
  <fix>3d</fix>
</trkpt>
<trkpt lat="33.8102163" lon="-118.3939765">
  <ele>-0.106</ele>
  <time>2026-09-02T22:07:21Z</time>
  <course>186.39</course>
  <speed>0.7283543093852057</speed>
  <fix>3d</fix>
</trkpt>
<trkpt lat="33.8102163" lon="-118.3939765">
  <ele>-0.106</ele>
  <time>2026-09-02T22:07:21Z</time>
  <course>186.39</course>
  <speed>0.7283543093852057</speed>
  <fix>3d</fix>
</trkpt>
<trkpt lat="33.8102162" lon="-118.3939766">
  <ele>-0.106</ele>
  <time>2026-09-02T22:07:21Z</time>
  <course>186.39</course>
  <speed>0.7283543093852057</speed>
  <fix>3d</fix>
</trkpt>
<trkpt lat="33.8102162" lon="-118.3939766">
  <ele>-0.106</ele>
  <time>2026-09-02T22:07:21Z</time>
  <course>186.39</course>
  <speed>0.7283543093852057</speed>
  <fix>3d</fix>
</trkpt>
<trkpt lat="33.8102171" lon="-118.3939751">
  <ele>-0.11</ele>
  <time>2026-09-02T22:07:21Z</time>
  <course>223.26</course>
  <speed>0.73</speed>
  <fix>3d</fix>
</trkpt>
<trkpt lat="33.8102162" lon="-118.3939766">
  <ele>-0.106</ele>
  <time>2026-09-02T22:07:21Z</time>
  <course>186.39</course>
  <speed>0.7283543093852057</speed>
  <fix>3d</fix>
</trkpt>
<trkpt lat="33.8102161" lon="-118.3939767">
  <ele>-0.106</ele>
  <time>2026-09-02T22:07:21Z</time>
  <course>186.39</course>
  <speed>0.7283543093852057</speed>
  <fix>3d</fix>
</trkpt>
<trkpt lat="33.8102161" lon="-118.3939768">
  <ele>-0.106</ele>
  <time>2026-09-02T22:07:21Z</time>
  <course>186.39</course>
  <speed>0.7283543093852057</speed>
  <fix>3d</fix>
</trkpt>
<trkpt lat="33.810216" lon="-118.3939768">
  <ele>-0.106</ele>
  <time>2026-09-02T22:07:21Z</time>
  <course>186.39</course>
  <speed>0.7283543093852057</speed>
  <fix>3d</fix>
</trkpt>
<trkpt lat="33.810216" lon="-118.3939768">
  <ele>-0.106</ele>
  <time>2026-09-02T22:07:21Z</time>
  <course>186.39</course>
  <speed>0.7283543093852057</speed>
  <fix>3d</fix>
</trkpt>
<trkpt lat="33.810216" lon="-118.3939769">
  <ele>-0.106</ele>
  <time>2026-09-02T22:07:21Z</time>
  <course>186.39</course>
  <speed>0.7283543093852057</speed>
  <fix>3d</fix>
</trkpt>
<trkpt lat="33.8102159" lon="-118.3939769">
  <ele>-0.106</ele>
  <time>2026-09-02T22:07:21Z</time>
  <course>186.39</course>
  <speed>0.7283543093852057</speed>
  <fix>3d</fix>
</trkpt>
<trkpt lat="33.8102159" lon="-118.393977">
  <ele>-0.106</ele>
  <time>2026-09-02T22:07:21Z</time>
  <course>186.39</course>
  <speed>0.7283543093852057</speed>
  <fix>3d</fix>
</trkpt>
<trkpt lat="33.8102158" lon="-118.393977">
  <ele>-0.106</ele>
  <time>2026-09-02T22:07:21Z</time>
  <course>186.39</course>
  <speed>0.7283543093852057</speed>
  <fix>3d</fix>
</trkpt>
<trkpt lat="33.8102158" lon="-118.3939771">
  <ele>-0.106</ele>
  <time>2026-09-02T22:07:21Z</time>
  <course>186.39</course>
  <speed>0.7283543093852057</speed>
  <fix>3d</fix>
</trkpt>
<trkpt lat="33.8102158" lon="-118.3939771">
  <ele>-0.106</ele>
  <time>2026-09-02T22:07:21Z</time>
  <course>186.39</course>
  <speed>0.7283543093852057</speed>
  <fix>3d</fix>
</trkpt>
<trkpt lat="33.8102157" lon="-118.3939771">
  <ele>-0.106</ele>
  <time>2026-09-02T22:07:21Z</time>
  <course>186.39</course>
  <speed>0.7283543093852057</speed>
  <fix>3d</fix>
</trkpt>
<trkpt lat="33.8102157" lon="-118.3939771">
  <ele>-0.106</ele>
  <time>2026-09-02T22:07:21Z</time>
  <course>186.39</course>
  <speed>0.7283543093852057</speed>
  <fix>3d</fix>
</trkpt>
<trkpt lat="33.8102162" lon="-118.3939762">
  <ele>-0.1</ele>
  <time>2026-09-02T22:07:21Z</time>
  <course>223.26</course>
  <speed>0.73</speed>
  <fix>3d</fix>
</trkpt>
<trkpt lat="33.8102156" lon="-118.3939772">
  <ele>-0.106</ele>
  <time>2026-09-02T22:07:21Z</time>
  <course>186.39</course>
  <speed>0.7283543093852057</speed>
  <fix>3d</fix>
</trkpt>
<trkpt lat="33.8102156" lon="-118.3939773">
  <ele>-0.106</ele>
  <time>2026-09-02T22:07:21Z</time>
  <course>186.39</course>
  <speed>0.7283543093852057</speed>
  <fix>3d</fix>
</trkpt>
<trkpt lat="33.8102156" lon="-118.3939773">
  <ele>-0.106</ele>
  <time>2026-09-02T22:07:21Z</time>
  <course>186.39</course>
  <speed>0.7283543093852057</speed>
  <fix>3d</fix>
</trkpt>
<trkpt lat="33.8102155" lon="-118.3939774">
  <ele>-0.106</ele>
  <time>2026-09-02T22:07:21Z</time>
  <course>186.39</course>
  <speed>0.7283543093852057</speed>
  <fix>3d</fix>
</trkpt>
<trkpt lat="33.8102155" lon="-118.3939774">
  <ele>-0.106</ele>
  <time>2026-09-02T22:07:21Z</time>
  <course>186.39</course>
  <speed>0.7283543093852057</speed>
  <fix>3d</fix>
</trkpt>
<trkpt lat="33.8102154" lon="-118.3939775">
  <ele>-0.107</ele>
  <time>2026-09-02T22:07:21Z</time>
  <course>186.39</course>
  <speed>0.7283543093852057</speed>
  <fix>3d</fix>
</trkpt>
<trkpt lat="33.8102154" lon="-118.3939776">
  <ele>-0.107</ele>
  <time>2026-09-02T22:07:21Z</time>
  <course>186.39</course>
  <speed>0.7283543093852057</speed>
  <fix>3d</fix>
</trkpt>
<trkpt lat="33.8102153" lon="-118.3939776">
  <ele>-0.107</ele>
  <time>2026-09-02T22:07:21Z</time>
  <course>186.39</course>
  <speed>0.7283543093852057</speed>
  <fix>3d</fix>
</trkpt>
<trkpt lat="33.8102153" lon="-118.3939776">
  <ele>-0.107</ele>
  <time>2026-09-02T22:07:21Z</time>
  <course>186.39</course>
  <speed>0.7283543093852057</speed>
  <fix>3d</fix>
</trkpt>
<trkpt lat="33.8102153" lon="-118.3939777">
  <ele>-0.107</ele>
  <time>2026-09-02T22:07:21Z</time>
  <course>186.39</course>
  <speed>0.7283543093852057</speed>
  <fix>3d</fix>
</trkpt>
<trkpt lat="33.8102152" lon="-118.3939777">
  <ele>-0.107</ele>
  <time>2026-09-02T22:07:21Z</time>
  <course>186.39</course>
  <speed>0.7283543093852057</speed>
  <fix>3d</fix>
</trkpt>
<trkpt lat="33.8102162" lon="-118.3939762">
  <ele>-0.1</ele>
  <time>2026-09-02T22:07:21Z</time>
  <course>223.26</course>
  <speed>0.73</speed>
  <fix>3d</fix>
</trkpt>
<trkpt lat="33.8102152" lon="-118.3939777">
  <ele>-0.107</ele>
  <time>2026-09-02T22:07:21Z</time>
  <course>186.39</course>
  <speed>0.7283543093852057</speed>
  <fix>3d</fix>
</trkpt>
<trkpt lat="33.8102151" lon="-118.3939778">
  <ele>-0.107</ele>
  <time>2026-09-02T22:07:21Z</time>
  <course>186.39</course>
  <speed>0.7283543093852057</speed>
  <fix>3d</fix>
</trkpt>
<trkpt lat="33.8102151" lon="-118.3939779">
  <ele>-0.107</ele>
  <time>2026-09-02T22:07:21Z</time>
  <course>186.39</course>
  <speed>0.7283543093852057</speed>
  <fix>3d</fix>
</trkpt>
<trkpt lat="33.8102151" lon="-118.3939779">
  <ele>-0.107</ele>
  <time>2026-09-02T22:07:21Z</time>
  <course>186.39</course>
  <speed>0.7283543093852057</speed>
  <fix>3d</fix>
</trkpt>
<trkpt lat="33.810215" lon="-118.3939779">
  <ele>-0.107</ele>
  <time>2026-09-02T22:07:21Z</time>
  <course>186.39</course>
  <speed>0.7283543093852057</speed>
  <fix>3d</fix>
</trkpt>
<trkpt lat="33.810215" lon="-118.393978">
  <ele>-0.108</ele>
  <time>2026-09-02T22:07:21Z</time>
  <course>186.39</course>
  <speed>0.7283543093852057</speed>
  <fix>3d</fix>
</trkpt>
<trkpt lat="33.8102149" lon="-118.393978">
  <ele>-0.108</ele>
  <time>2026-09-02T22:07:21Z</time>
  <course>186.39</course>
  <speed>0.7283543093852057</speed>
  <fix>3d</fix>
</trkpt>
<trkpt lat="33.8102149" lon="-118.3939781">
  <ele>-0.108</ele>
  <time>2026-09-02T22:07:21Z</time>
  <course>186.39</course>
  <speed>0.7283543093852057</speed>
  <fix>3d</fix>
</trkpt>
<trkpt lat="33.8102149" lon="-118.3939781">
  <ele>-0.108</ele>
  <time>2026-09-02T22:07:21Z</time>
  <course>186.39</course>
  <speed>0.7283543093852057</speed>
  <fix>3d</fix>
</trkpt>
<trkpt lat="33.8102148" lon="-118.3939782">
  <ele>-0.108</ele>
  <time>2026-09-02T22:07:21Z</time>
  <course>186.39</course>
  <speed>0.7283543093852057</speed>
  <fix>3d</fix>
</trkpt>
<trkpt lat="33.8102148" lon="-118.3939782">
  <ele>-0.108</ele>
  <time>2026-09-02T22:07:21Z</time>
  <course>186.39</course>
  <speed>0.7283543093852057</speed>
  <fix>3d</fix>
</trkpt>
<trkpt lat="33.8102148" lon="-118.3939782">
  <ele>-0.108</ele>
  <time>2026-09-02T22:07:21Z</time>
  <course>186.39</course>
  <speed>0.7283543093852057</speed>
  <fix>3d</fix>
</trkpt>
<trkpt lat="33.8102152" lon="-118.3939773">
  <ele>-0.1</ele>
  <time>2026-09-02T22:07:21Z</time>
  <course>223.26</course>
  <speed>0.73</speed>
  <fix>3d</fix>
</trkpt>
<trkpt lat="33.8102147" lon="-118.3939783">
  <ele>-0.109</ele>
  <time>2026-09-02T22:07:21Z</time>
  <course>186.39</course>
  <speed>0.7283543093852057</speed>
  <fix>3d</fix>
</trkpt>
<trkpt lat="33.8102146" lon="-118.3939784">
  <ele>-0.109</ele>
  <time>2026-09-02T22:07:21Z</time>
  <course>186.39</course>
  <speed>0.7283543093852057</speed>
  <fix>3d</fix>
</trkpt>
<trkpt lat="33.8102146" lon="-118.3939785">
  <ele>-0.109</ele>
  <time>2026-09-02T22:07:21Z</time>
  <course>186.39</course>
  <speed>0.7283543093852057</speed>
  <fix>3d</fix>
</trkpt>
<trkpt lat="33.8102145" lon="-118.3939785">
  <ele>-0.109</ele>
  <time>2026-09-02T22:07:21Z</time>
  <course>186.39</course>
  <speed>0.7283543093852057</speed>
  <fix>3d</fix>
</trkpt>
<trkpt lat="33.8102145" lon="-118.3939785">
  <ele>-0.11</ele>
  <time>2026-09-02T22:07:21Z</time>
  <course>186.39</course>
  <speed>0.7283543093852057</speed>
  <fix>3d</fix>
</trkpt>
<trkpt lat="33.8102145" lon="-118.3939786">
  <ele>-0.11</ele>
  <time>2026-09-02T22:07:21Z</time>
  <course>186.39</course>
  <speed>0.7283543093852057</speed>
  <fix>3d</fix>
</trkpt>
<trkpt lat="33.8102144" lon="-118.3939786">
  <ele>-0.11</ele>
  <time>2026-09-02T22:07:21Z</time>
  <course>186.39</course>
  <speed>0.7283543093852057</speed>
  <fix>3d</fix>
</trkpt>
<trkpt lat="33.8102144" lon="-118.3939787">
  <ele>-0.111</ele>
  <time>2026-09-02T22:07:21Z</time>
  <course>186.39</course>
  <speed>0.7283543093852057</speed>
  <fix>3d</fix>
</trkpt>
<trkpt lat="33.8102143" lon="-118.3939787">
  <ele>-0.111</ele>
  <time>2026-09-02T22:07:21Z</time>
  <course>186.39</course>
  <speed>0.7283543093852057</speed>
  <fix>3d</fix>
</trkpt>
<trkpt lat="33.8102143" lon="-118.3939788">
  <ele>-0.111</ele>
  <time>2026-09-02T22:07:21Z</time>
  <course>186.39</course>
  <speed>0.7283543093852057</speed>
  <fix>3d</fix>
</trkpt>
<trkpt lat="33.8102143" lon="-118.3939788">
  <ele>-0.111</ele>
  <time>2026-09-02T22:07:21Z</time>
  <course>186.39</course>
  <speed>0.7283543093852057</speed>
  <fix>3d</fix>
</trkpt>
<trkpt lat="33.8102152" lon="-118.3939773">
  <ele>-0.1</ele>
  <time>2026-09-02T22:07:21Z</time>
  <course>223.26</course>
  <speed>0.73</speed>
  <fix>3d</fix>
</trkpt>
<trkpt lat="33.8102143" lon="-118.3939788">
  <ele>-0.111</ele>
  <time>2026-09-02T22:07:21Z</time>
  <course>186.39</course>
  <speed>0.7283543093852057</speed>
  <fix>3d</fix>
</trkpt>
<trkpt lat="33.8102142" lon="-118.3939789">
  <ele>-0.112</ele>
  <time>2026-09-02T22:07:21Z</time>
  <course>186.39</course>
  <speed>0.7283543093852057</speed>
  <fix>3d</fix>
</trkpt>
<trkpt lat="33.8102141" lon="-118.393979">
  <ele>-0.112</ele>
  <time>2026-09-02T22:07:21Z</time>
  <course>186.39</course>
  <speed>0.7283543093852057</speed>
  <fix>3d</fix>
</trkpt>
<trkpt lat="33.8102141" lon="-118.393979">
  <ele>-0.112</ele>
  <time>2026-09-02T22:07:21Z</time>
  <course>186.39</course>
  <speed>0.7283543093852057</speed>
  <fix>3d</fix>
</trkpt>
<trkpt lat="33.8102141" lon="-118.393979">
  <ele>-0.112</ele>
  <time>2026-09-02T22:07:21Z</time>
  <course>186.39</course>
  <speed>0.7283543093852057</speed>
  <fix>3d</fix>
</trkpt>
<trkpt lat="33.810214" lon="-118.3939791">
  <ele>-0.113</ele>
  <time>2026-09-02T22:07:21Z</time>
  <course>186.39</course>
  <speed>0.7283543093852057</speed>
  <fix>3d</fix>
</trkpt>
<trkpt lat="33.810214" lon="-118.3939791">
  <ele>-0.113</ele>
  <time>2026-09-02T22:07:21Z</time>
  <course>186.38</course>
  <speed>0.7283543093852057</speed>
  <fix>3d</fix>
</trkpt>
<trkpt lat="33.8102139" lon="-118.3939792">
  <ele>-0.113</ele>
  <time>2026-09-02T22:07:21Z</time>
  <course>186.38</course>
  <speed>0.7283543093852057</speed>
  <fix>3d</fix>
</trkpt>
<trkpt lat="33.8102139" lon="-118.3939792">
  <ele>-0.113</ele>
  <time>2026-09-02T22:07:21Z</time>
  <course>186.38</course>
  <speed>0.7283543093852057</speed>
  <fix>3d</fix>
</trkpt>
<trkpt lat="33.8102139" lon="-118.3939793">
  <ele>-0.113</ele>
  <time>2026-09-02T22:07:21Z</time>
  <course>186.38</course>
  <speed>0.7283543093852057</speed>
  <fix>3d</fix>
</trkpt>
<trkpt lat="33.8102138" lon="-118.3939793">
  <ele>-0.113</ele>
  <time>2026-09-02T22:07:21Z</time>
  <course>186.38</course>
  <speed>0.7283543093852057</speed>
  <fix>3d</fix>
</trkpt>
<trkpt lat="33.8102138" lon="-118.3939793">
  <ele>-0.113</ele>
  <time>2026-09-02T22:07:21Z</time>
  <course>186.38</course>
  <speed>0.7283543093852057</speed>
  <fix>3d</fix>
</trkpt>
<trkpt lat="33.8102143" lon="-118.3939784">
  <ele>-0.1</ele>
  <time>2026-09-02T22:07:21Z</time>
  <course>223.26</course>
  <speed>0.73</speed>
  <fix>3d</fix>
</trkpt>
<trkpt lat="33.8102138" lon="-118.3939793">
  <ele>-0.113</ele>
  <time>2026-09-02T22:07:21Z</time>
  <course>186.38</course>
  <speed>0.7283543093852057</speed>
  <fix>3d</fix>
</trkpt>
<trkpt lat="33.8102137" lon="-118.3939794">
  <ele>-0.114</ele>
  <time>2026-09-02T22:07:21Z</time>
  <course>186.38</course>
  <speed>0.7283543093852057</speed>
  <fix>3d</fix>
</trkpt>
<trkpt lat="33.8102137" lon="-118.3939795">
  <ele>-0.114</ele>
  <time>2026-09-02T22:07:21Z</time>
  <course>186.38</course>
  <speed>0.7283543093852057</speed>
  <fix>3d</fix>
</trkpt>
<trkpt lat="33.8102136" lon="-118.3939795">
  <ele>-0.114</ele>
  <time>2026-09-02T22:07:21Z</time>
  <course>186.38</course>
  <speed>0.7283543093852057</speed>
  <fix>3d</fix>
</trkpt>
<trkpt lat="33.8102136" lon="-118.3939796">
  <ele>-0.114</ele>
  <time>2026-09-02T22:07:21Z</time>
  <course>186.38</course>
  <speed>0.7283543093852057</speed>
  <fix>3d</fix>
</trkpt>
<trkpt lat="33.8102135" lon="-118.3939796">
  <ele>-0.115</ele>
  <time>2026-09-02T22:07:21Z</time>
  <course>186.38</course>
  <speed>0.7283543093852057</speed>
  <fix>3d</fix>
</trkpt>
<trkpt lat="33.8102135" lon="-118.3939797">
  <ele>-0.115</ele>
  <time>2026-09-02T22:07:21Z</time>
  <course>186.38</course>
  <speed>0.7283543093852057</speed>
  <fix>3d</fix>
</trkpt>
<trkpt lat="33.8102135" lon="-118.3939797">
  <ele>-0.115</ele>
  <time>2026-09-02T22:07:21Z</time>
  <course>186.38</course>
  <speed>0.7283543093852057</speed>
  <fix>3d</fix>
</trkpt>
<trkpt lat="33.8102134" lon="-118.3939797">
  <ele>-0.115</ele>
  <time>2026-09-02T22:07:21Z</time>
  <course>186.38</course>
  <speed>0.7283543093852057</speed>
  <fix>3d</fix>
</trkpt>
<trkpt lat="33.8102134" lon="-118.3939798">
  <ele>-0.115</ele>
  <time>2026-09-02T22:07:21Z</time>
  <course>186.38</course>
  <speed>0.7283543093852057</speed>
  <fix>3d</fix>
</trkpt>
<trkpt lat="33.8102134" lon="-118.3939798">
  <ele>-0.116</ele>
  <time>2026-09-02T22:07:21Z</time>
  <course>186.38</course>
  <speed>0.7283543093852057</speed>
  <fix>3d</fix>
</trkpt>
<trkpt lat="33.8102133" lon="-118.3939799">
  <ele>-0.116</ele>
  <time>2026-09-02T22:07:21Z</time>
  <course>186.38</course>
  <speed>0.7283543093852057</speed>
  <fix>3d</fix>
</trkpt>
<trkpt lat="33.8102133" lon="-118.3939799">
  <ele>-0.116</ele>
  <time>2026-09-02T22:07:21Z</time>
  <course>186.38</course>
  <speed>0.7283543093852057</speed>
  <fix>3d</fix>
</trkpt>
<trkpt lat="33.8102143" lon="-118.3939784">
  <ele>-0.1</ele>
  <time>2026-09-02T22:07:21Z</time>
  <course>223.26</course>
  <speed>0.73</speed>
  <fix>3d</fix>
</trkpt>
<trkpt lat="33.8102132" lon="-118.39398">
  <ele>-0.116</ele>
  <time>2026-09-02T22:07:21Z</time>
  <course>186.38</course>
  <speed>0.7283543093852057</speed>
  <fix>3d</fix>
</trkpt>
<trkpt lat="33.8102132" lon="-118.39398">
  <ele>-0.116</ele>
  <time>2026-09-02T22:07:21Z</time>
  <course>186.38</course>
  <speed>0.7283543093852057</speed>
  <fix>3d</fix>
</trkpt>
<trkpt lat="33.8102132" lon="-118.3939801">
  <ele>-0.116</ele>
  <time>2026-09-02T22:07:21Z</time>
  <course>186.38</course>
  <speed>0.7283543093852057</speed>
  <fix>3d</fix>
</trkpt>
<trkpt lat="33.8102131" lon="-118.3939801">
  <ele>-0.116</ele>
  <time>2026-09-02T22:07:21Z</time>
  <course>186.38</course>
  <speed>0.7283543093852057</speed>
  <fix>3d</fix>
</trkpt>
<trkpt lat="33.8102131" lon="-118.3939801">
  <ele>-0.117</ele>
  <time>2026-09-02T22:07:21Z</time>
  <course>186.38</course>
  <speed>0.7283543093852057</speed>
  <fix>3d</fix>
</trkpt>
<trkpt lat="33.810213" lon="-118.3939802">
  <ele>-0.117</ele>
  <time>2026-09-02T22:07:21Z</time>
  <course>186.38</course>
  <speed>0.7283543093852057</speed>
  <fix>3d</fix>
</trkpt>
<trkpt lat="33.810213" lon="-118.3939802">
  <ele>-0.117</ele>
  <time>2026-09-02T22:07:21Z</time>
  <course>186.38</course>
  <speed>0.7283543093852057</speed>
  <fix>3d</fix>
</trkpt>
<trkpt lat="33.810213" lon="-118.3939803">
  <ele>-0.117</ele>
  <time>2026-09-02T22:07:21Z</time>
  <course>186.38</course>
  <speed>0.7283543093852057</speed>
  <fix>3d</fix>
</trkpt>
<trkpt lat="33.8102129" lon="-118.3939803">
  <ele>-0.117</ele>
  <time>2026-09-02T22:07:21Z</time>
  <course>186.38</course>
  <speed>0.7283543093852057</speed>
  <fix>3d</fix>
</trkpt>
<trkpt lat="33.8102129" lon="-118.3939804">
  <ele>-0.117</ele>
  <time>2026-09-02T22:07:21Z</time>
  <course>186.38</course>
  <speed>0.7283543093852057</speed>
  <fix>3d</fix>
</trkpt>
<trkpt lat="33.8102128" lon="-118.3939804">
  <ele>-0.117</ele>
  <time>2026-09-02T22:07:21Z</time>
  <course>186.38</course>
  <speed>0.7283543093852057</speed>
  <fix>3d</fix>
</trkpt>
<trkpt lat="33.8102128" lon="-118.3939804">
  <ele>-0.117</ele>
  <time>2026-09-02T22:07:21Z</time>
  <course>186.38</course>
  <speed>0.7283543093852057</speed>
  <fix>3d</fix>
</trkpt>
<trkpt lat="33.8102133" lon="-118.3939795">
  <ele>-0.1</ele>
  <time>2026-09-02T22:07:21Z</time>
  <course>223.26</course>
  <speed>0.73</speed>
  <fix>3d</fix>
</trkpt>
<trkpt lat="33.8102128" lon="-118.3939805">
  <ele>-0.117</ele>
  <time>2026-09-02T22:07:21Z</time>
  <course>186.38</course>
  <speed>0.7283543093852057</speed>
  <fix>3d</fix>
</trkpt>
<trkpt lat="33.8102127" lon="-118.3939806">
  <ele>-0.117</ele>
  <time>2026-09-02T22:07:21Z</time>
  <course>186.38</course>
  <speed>0.7283543093852057</speed>
  <fix>3d</fix>
</trkpt>
<trkpt lat="33.8102127" lon="-118.3939806">
  <ele>-0.117</ele>
  <time>2026-09-02T22:07:21Z</time>
  <course>186.38</course>
  <speed>0.7283543093852057</speed>
  <fix>3d</fix>
</trkpt>
<trkpt lat="33.8102127" lon="-118.3939806">
  <ele>-0.117</ele>
  <time>2026-09-02T22:07:21Z</time>
  <course>186.38</course>
  <speed>0.7283543093852057</speed>
  <fix>3d</fix>
</trkpt>
<trkpt lat="33.8102126" lon="-118.3939807">
  <ele>-0.117</ele>
  <time>2026-09-02T22:07:21Z</time>
  <course>186.38</course>
  <speed>0.7283543093852057</speed>
  <fix>3d</fix>
</trkpt>
<trkpt lat="33.8102126" lon="-118.3939807">
  <ele>-0.117</ele>
  <time>2026-09-02T22:07:21Z</time>
  <course>186.38</course>
  <speed>0.7283543093852057</speed>
  <fix>3d</fix>
</trkpt>
<trkpt lat="33.8102125" lon="-118.3939808">
  <ele>-0.118</ele>
  <time>2026-09-02T22:07:21Z</time>
  <course>186.38</course>
  <speed>0.7283543093852057</speed>
  <fix>3d</fix>
</trkpt>
<trkpt lat="33.8102125" lon="-118.3939808">
  <ele>-0.118</ele>
  <time>2026-09-02T22:07:21Z</time>
  <course>186.38</course>
  <speed>0.7283543093852057</speed>
  <fix>3d</fix>
</trkpt>
<trkpt lat="33.8102125" lon="-118.3939809">
  <ele>-0.118</ele>
  <time>2026-09-02T22:07:21Z</time>
  <course>186.38</course>
  <speed>0.7283543093852057</speed>
  <fix>3d</fix>
</trkpt>
<trkpt lat="33.8102124" lon="-118.3939809">
  <ele>-0.118</ele>
  <time>2026-09-02T22:07:21Z</time>
  <course>186.38</course>
  <speed>0.7283543093852057</speed>
  <fix>3d</fix>
</trkpt>
<trkpt lat="33.8102124" lon="-118.3939809">
  <ele>-0.118</ele>
  <time>2026-09-02T22:07:21Z</time>
  <course>186.38</course>
  <speed>0.7283543093852057</speed>
  <fix>3d</fix>
</trkpt>
<trkpt lat="33.8102124" lon="-118.393981">
  <ele>-0.118</ele>
  <time>2026-09-02T22:07:21Z</time>
  <course>186.38</course>
  <speed>0.7283543093852057</speed>
  <fix>3d</fix>
</trkpt>
<trkpt lat="33.8102133" lon="-118.3939795">
  <ele>-0.1</ele>
  <time>2026-09-02T22:07:21Z</time>
  <course>223.26</course>
  <speed>0.73</speed>
  <fix>3d</fix>
</trkpt>
<trkpt lat="33.8102124" lon="-118.393981">
  <ele>-0.118</ele>
  <time>2026-09-02T22:07:21Z</time>
  <course>186.38</course>
  <speed>0.7283543093852057</speed>
  <fix>3d</fix>
</trkpt>
<trkpt lat="33.8102123" lon="-118.3939811">
  <ele>-0.118</ele>
  <time>2026-09-02T22:07:21Z</time>
  <course>186.38</course>
  <speed>0.7283543093852057</speed>
  <fix>3d</fix>
</trkpt>
<trkpt lat="33.8102122" lon="-118.3939811">
  <ele>-0.118</ele>
  <time>2026-09-02T22:07:21Z</time>
  <course>186.38</course>
  <speed>0.7283543093852057</speed>
  <fix>3d</fix>
</trkpt>
<trkpt lat="33.8102122" lon="-118.3939812">
  <ele>-0.118</ele>
  <time>2026-09-02T22:07:21Z</time>
  <course>186.38</course>
  <speed>0.7283543093852057</speed>
  <fix>3d</fix>
</trkpt>
<trkpt lat="33.8102122" lon="-118.3939812">
  <ele>-0.118</ele>
  <time>2026-09-02T22:07:21Z</time>
  <course>186.38</course>
  <speed>0.7283543093852057</speed>
  <fix>3d</fix>
</trkpt>
<trkpt lat="33.8102121" lon="-118.3939813">
  <ele>-0.118</ele>
  <time>2026-09-02T22:07:21Z</time>
  <course>186.38</course>
  <speed>0.7283543093852057</speed>
  <fix>3d</fix>
</trkpt>
<trkpt lat="33.8102121" lon="-118.3939813">
  <ele>-0.118</ele>
  <time>2026-09-02T22:07:21Z</time>
  <course>186.38</course>
  <speed>0.7283543093852057</speed>
  <fix>3d</fix>
</trkpt>
<trkpt lat="33.810212" lon="-118.3939813">
  <ele>-0.118</ele>
  <time>2026-09-02T22:07:21Z</time>
  <course>186.38</course>
  <speed>0.7283543093852057</speed>
  <fix>3d</fix>
</trkpt>
<trkpt lat="33.810212" lon="-118.3939814">
  <ele>-0.118</ele>
  <time>2026-09-02T22:07:21Z</time>
  <course>186.38</course>
  <speed>0.7283543093852057</speed>
  <fix>3d</fix>
</trkpt>
<trkpt lat="33.8102119" lon="-118.3939815">
  <ele>-0.118</ele>
  <time>2026-09-02T22:07:21Z</time>
  <course>186.38</course>
  <speed>0.7283543093852057</speed>
  <fix>3d</fix>
</trkpt>
<trkpt lat="33.8102119" lon="-118.3939815">
  <ele>-0.118</ele>
  <time>2026-09-02T22:07:21Z</time>
  <course>186.38</course>
  <speed>0.7283543093852057</speed>
  <fix>3d</fix>
</trkpt>
<trkpt lat="33.8102119" lon="-118.3939815">
  <ele>-0.118</ele>
  <time>2026-09-02T22:07:21Z</time>
  <course>186.38</course>
  <speed>0.7283543093852057</speed>
  <fix>3d</fix>
</trkpt>
<trkpt lat="33.8102123" lon="-118.3939806">
  <ele>-0.11</ele>
  <time>2026-09-02T22:07:21Z</time>
  <course>223.26</course>
  <speed>0.73</speed>
  <fix>3d</fix>
</trkpt>
<trkpt lat="33.8102119" lon="-118.3939815">
  <ele>-0.118</ele>
  <time>2026-09-02T22:07:21Z</time>
  <course>186.38</course>
  <speed>0.7283543093852057</speed>
  <fix>3d</fix>
</trkpt>
<trkpt lat="33.8102116" lon="-118.3939818">
  <ele>-0.118</ele>
  <time>2026-09-02T22:07:21Z</time>
  <course>186.38</course>
  <speed>0.7283543093852057</speed>
  <fix>3d</fix>
</trkpt>
<trkpt lat="33.8102116" lon="-118.3939819">
  <ele>-0.118</ele>
  <time>2026-09-02T22:07:21Z</time>
  <course>186.38</course>
  <speed>0.7283543093852057</speed>
  <fix>3d</fix>
</trkpt>
<trkpt lat="33.8102115" lon="-118.3939819">
  <ele>-0.118</ele>
  <time>2026-09-02T22:07:21Z</time>
  <course>186.38</course>
  <speed>0.7283543093852057</speed>
  <fix>3d</fix>
</trkpt>
<trkpt lat="33.8102115" lon="-118.393982">
  <ele>-0.118</ele>
  <time>2026-09-02T22:07:21Z</time>
  <course>186.38</course>
  <speed>0.7283543093852057</speed>
  <fix>3d</fix>
</trkpt>
<trkpt lat="33.8102114" lon="-118.393982">
  <ele>-0.118</ele>
  <time>2026-09-02T22:07:21Z</time>
  <course>186.38</course>
  <speed>0.7283543093852057</speed>
  <fix>3d</fix>
</trkpt>
<trkpt lat="33.8102114" lon="-118.3939821">
  <ele>-0.118</ele>
  <time>2026-09-02T22:07:21Z</time>
  <course>186.38</course>
  <speed>0.7283543093852057</speed>
  <fix>3d</fix>
</trkpt>
<trkpt lat="33.8102114" lon="-118.3939821">
  <ele>-0.118</ele>
  <time>2026-09-02T22:07:21Z</time>
  <course>186.38</course>
  <speed>0.7283543093852057</speed>
  <fix>3d</fix>
</trkpt>
<trkpt lat="33.8102123" lon="-118.3939806">
  <ele>-0.11</ele>
  <time>2026-09-02T22:07:21Z</time>
  <course>223.26</course>
  <speed>0.73</speed>
  <fix>3d</fix>
</trkpt>
<trkpt lat="33.8102113" lon="-118.3939821">
  <ele>-0.118</ele>
  <time>2026-09-02T22:07:21Z</time>
  <course>186.38</course>
  <speed>0.7283543093852057</speed>
  <fix>3d</fix>
</trkpt>
<trkpt lat="33.8102113" lon="-118.3939822">
  <ele>-0.118</ele>
  <time>2026-09-02T22:07:21Z</time>
  <course>186.38</course>
  <speed>0.7283543093852057</speed>
  <fix>3d</fix>
</trkpt>
<trkpt lat="33.8102112" lon="-118.3939822">
  <ele>-0.118</ele>
  <time>2026-09-02T22:07:21Z</time>
  <course>186.38</course>
  <speed>0.7283543093852057</speed>
  <fix>3d</fix>
</trkpt>
<trkpt lat="33.8102112" lon="-118.3939823">
  <ele>-0.118</ele>
  <time>2026-09-02T22:07:21Z</time>
  <course>186.38</course>
  <speed>0.7283543093852057</speed>
  <fix>3d</fix>
</trkpt>
<trkpt lat="33.8102112" lon="-118.3939823">
  <ele>-0.118</ele>
  <time>2026-09-02T22:07:21Z</time>
  <course>186.38</course>
  <speed>0.7283543093852057</speed>
  <fix>3d</fix>
</trkpt>
<trkpt lat="33.8102111" lon="-118.3939824">
  <ele>-0.118</ele>
  <time>2026-09-02T22:07:21Z</time>
  <course>186.38</course>
  <speed>0.7283543093852057</speed>
  <fix>3d</fix>
</trkpt>
<trkpt lat="33.8102111" lon="-118.3939824">
  <ele>-0.118</ele>
  <time>2026-09-02T22:07:21Z</time>
  <course>186.38</course>
  <speed>0.7283543093852057</speed>
  <fix>3d</fix>
</trkpt>
<trkpt lat="33.810211" lon="-118.3939825">
  <ele>-0.117</ele>
  <time>2026-09-02T22:07:21Z</time>
  <course>186.38</course>
  <speed>0.7283543093852057</speed>
  <fix>3d</fix>
</trkpt>
<trkpt lat="33.810211" lon="-118.3939825">
  <ele>-0.117</ele>
  <time>2026-09-02T22:07:21Z</time>
  <course>186.38</course>
  <speed>0.7283543093852057</speed>
  <fix>3d</fix>
</trkpt>
<trkpt lat="33.810211" lon="-118.3939826">
  <ele>-0.117</ele>
  <time>2026-09-02T22:07:21Z</time>
  <course>186.38</course>
  <speed>0.7283543093852057</speed>
  <fix>3d</fix>
</trkpt>
<trkpt lat="33.8102109" lon="-118.3939826">
  <ele>-0.117</ele>
  <time>2026-09-02T22:07:21Z</time>
  <course>186.37</course>
  <speed>0.7283543093852057</speed>
  <fix>3d</fix>
</trkpt>
<trkpt lat="33.8102109" lon="-118.3939826">
  <ele>-0.117</ele>
  <time>2026-09-02T22:07:21Z</time>
  <course>186.37</course>
  <speed>0.7283543093852057</speed>
  <fix>3d</fix>
</trkpt>
<trkpt lat="33.8102114" lon="-118.3939817">
  <ele>-0.1</ele>
  <time>2026-09-02T22:07:21Z</time>
  <course>223.26</course>
  <speed>0.73</speed>
  <fix>3d</fix>
</trkpt>
<trkpt lat="33.8102108" lon="-118.3939827">
  <ele>-0.117</ele>
  <time>2026-09-02T22:07:21Z</time>
  <course>186.37</course>
  <speed>0.7283543093852057</speed>
  <fix>3d</fix>
</trkpt>
<trkpt lat="33.8102108" lon="-118.3939827">
  <ele>-0.117</ele>
  <time>2026-09-02T22:07:21Z</time>
  <course>186.37</course>
  <speed>0.7283543093852057</speed>
  <fix>3d</fix>
</trkpt>
<trkpt lat="33.8102108" lon="-118.3939828">
  <ele>-0.117</ele>
  <time>2026-09-02T22:07:21Z</time>
  <course>186.37</course>
  <speed>0.7283543093852057</speed>
  <fix>3d</fix>
</trkpt>
<trkpt lat="33.8102107" lon="-118.3939828">
  <ele>-0.117</ele>
  <time>2026-09-02T22:07:21Z</time>
  <course>186.37</course>
  <speed>0.7283543093852057</speed>
  <fix>3d</fix>
</trkpt>
<trkpt lat="33.8102107" lon="-118.3939829">
  <ele>-0.117</ele>
  <time>2026-09-02T22:07:21Z</time>
  <course>186.37</course>
  <speed>0.7283543093852057</speed>
  <fix>3d</fix>
</trkpt>
<trkpt lat="33.8102106" lon="-118.3939829">
  <ele>-0.117</ele>
  <time>2026-09-02T22:07:21Z</time>
  <course>186.37</course>
  <speed>0.7283543093852057</speed>
  <fix>3d</fix>
</trkpt>
<trkpt lat="33.8102106" lon="-118.393983">
  <ele>-0.117</ele>
  <time>2026-09-02T22:07:21Z</time>
  <course>186.37</course>
  <speed>0.7283543093852057</speed>
  <fix>3d</fix>
</trkpt>
<trkpt lat="33.8102106" lon="-118.393983">
  <ele>-0.117</ele>
  <time>2026-09-02T22:07:21Z</time>
  <course>186.37</course>
  <speed>0.7283543093852057</speed>
  <fix>3d</fix>
</trkpt>
<trkpt lat="33.8102105" lon="-118.3939831">
  <ele>-0.117</ele>
  <time>2026-09-02T22:07:21Z</time>
  <course>186.37</course>
  <speed>0.7283543093852057</speed>
  <fix>3d</fix>
</trkpt>
<trkpt lat="33.8102105" lon="-118.3939831">
  <ele>-0.116</ele>
  <time>2026-09-02T22:07:21Z</time>
  <course>186.37</course>
  <speed>0.7283543093852057</speed>
  <fix>3d</fix>
</trkpt>
<trkpt lat="33.8102104" lon="-118.3939832">
  <ele>-0.116</ele>
  <time>2026-09-02T22:07:21Z</time>
  <course>186.37</course>
  <speed>0.7283543093852057</speed>
  <fix>3d</fix>
</trkpt>
<trkpt lat="33.8102104" lon="-118.3939832">
  <ele>-0.116</ele>
  <time>2026-09-02T22:07:21Z</time>
  <course>186.37</course>
  <speed>0.7283543093852057</speed>
  <fix>3d</fix>
</trkpt>
<trkpt lat="33.8102114" lon="-118.3939817">
  <ele>-0.1</ele>
  <time>2026-09-02T22:07:21Z</time>
  <course>223.26</course>
  <speed>0.73</speed>
  <fix>3d</fix>
</trkpt>
<trkpt lat="33.8102104" lon="-118.3939832">
  <ele>-0.116</ele>
  <time>2026-09-02T22:07:21Z</time>
  <course>186.37</course>
  <speed>0.7283543093852057</speed>
  <fix>3d</fix>
</trkpt>
<trkpt lat="33.8102103" lon="-118.3939833">
  <ele>-0.116</ele>
  <time>2026-09-02T22:07:21Z</time>
  <course>186.37</course>
  <speed>0.7283543093852057</speed>
  <fix>3d</fix>
</trkpt>
<trkpt lat="33.8102103" lon="-118.3939833">
  <ele>-0.116</ele>
  <time>2026-09-02T22:07:21Z</time>
  <course>186.37</course>
  <speed>0.7283543093852057</speed>
  <fix>3d</fix>
</trkpt>
<trkpt lat="33.8102103" lon="-118.3939834">
  <ele>-0.116</ele>
  <time>2026-09-02T22:07:21Z</time>
  <course>186.37</course>
  <speed>0.7283543093852057</speed>
  <fix>3d</fix>
</trkpt>
<trkpt lat="33.8102102" lon="-118.3939834">
  <ele>-0.116</ele>
  <time>2026-09-02T22:07:21Z</time>
  <course>186.37</course>
  <speed>0.7283543093852057</speed>
  <fix>3d</fix>
</trkpt>
<trkpt lat="33.8102102" lon="-118.3939835">
  <ele>-0.116</ele>
  <time>2026-09-02T22:07:21Z</time>
  <course>186.37</course>
  <speed>0.7283543093852057</speed>
  <fix>3d</fix>
</trkpt>
<trkpt lat="33.8102101" lon="-118.3939835">
  <ele>-0.116</ele>
  <time>2026-09-02T22:07:21Z</time>
  <course>186.37</course>
  <speed>0.7283543093852057</speed>
  <fix>3d</fix>
</trkpt>
<trkpt lat="33.8102101" lon="-118.3939836">
  <ele>-0.116</ele>
  <time>2026-09-02T22:07:21Z</time>
  <course>186.37</course>
  <speed>0.7283543093852057</speed>
  <fix>3d</fix>
</trkpt>
<trkpt lat="33.81021" lon="-118.3939836">
  <ele>-0.115</ele>
  <time>2026-09-02T22:07:21Z</time>
  <course>186.37</course>
  <speed>0.7283543093852057</speed>
  <fix>3d</fix>
</trkpt>
<trkpt lat="33.81021" lon="-118.3939836">
  <ele>-0.115</ele>
  <time>2026-09-02T22:07:21Z</time>
  <course>186.37</course>
  <speed>0.7283543093852057</speed>
  <fix>3d</fix>
</trkpt>
<trkpt lat="33.81021" lon="-118.3939837">
  <ele>-0.115</ele>
  <time>2026-09-02T22:07:21Z</time>
  <course>186.37</course>
  <speed>0.7283543093852057</speed>
  <fix>3d</fix>
</trkpt>
<trkpt lat="33.81021" lon="-118.3939837">
  <ele>-0.115</ele>
  <time>2026-09-02T22:07:21Z</time>
  <course>186.37</course>
  <speed>0.7283543093852057</speed>
  <fix>3d</fix>
</trkpt>
<trkpt lat="33.8102104" lon="-118.3939828">
  <ele>-0.1</ele>
  <time>2026-09-02T22:07:21Z</time>
  <course>223.26</course>
  <speed>0.73</speed>
  <fix>3d</fix>
</trkpt>
<trkpt lat="33.8102099" lon="-118.3939837">
  <ele>-0.115</ele>
  <time>2026-09-02T22:07:21Z</time>
  <course>186.37</course>
  <speed>0.7283543093852057</speed>
  <fix>3d</fix>
</trkpt>
<trkpt lat="33.8102099" lon="-118.3939838">
  <ele>-0.115</ele>
  <time>2026-09-02T22:07:21Z</time>
  <course>186.37</course>
  <speed>0.7283543093852057</speed>
  <fix>3d</fix>
</trkpt>
<trkpt lat="33.8102098" lon="-118.3939838">
  <ele>-0.115</ele>
  <time>2026-09-02T22:07:21Z</time>
  <course>186.37</course>
  <speed>0.7283543093852057</speed>
  <fix>3d</fix>
</trkpt>
<trkpt lat="33.8102098" lon="-118.3939839">
  <ele>-0.115</ele>
  <time>2026-09-02T22:07:21Z</time>
  <course>186.37</course>
  <speed>0.7283543093852057</speed>
  <fix>3d</fix>
</trkpt>
<trkpt lat="33.8102097" lon="-118.3939839">
  <ele>-0.115</ele>
  <time>2026-09-02T22:07:21Z</time>
  <course>186.37</course>
  <speed>0.7283543093852057</speed>
  <fix>3d</fix>
</trkpt>
<trkpt lat="33.8102097" lon="-118.393984">
  <ele>-0.115</ele>
  <time>2026-09-02T22:07:21Z</time>
  <course>186.37</course>
  <speed>0.7283543093852057</speed>
  <fix>3d</fix>
</trkpt>
<trkpt lat="33.8102096" lon="-118.3939841">
  <ele>-0.115</ele>
  <time>2026-09-02T22:07:21Z</time>
  <course>186.37</course>
  <speed>0.7283543093852057</speed>
  <fix>3d</fix>
</trkpt>
<trkpt lat="33.8102096" lon="-118.3939841">
  <ele>-0.115</ele>
  <time>2026-09-02T22:07:21Z</time>
  <course>186.37</course>
  <speed>0.7283543093852057</speed>
  <fix>3d</fix>
</trkpt>
<trkpt lat="33.8102096" lon="-118.3939842">
  <ele>-0.115</ele>
  <time>2026-09-02T22:07:21Z</time>
  <course>186.37</course>
  <speed>0.7283543093852057</speed>
  <fix>3d</fix>
</trkpt>
<trkpt lat="33.8102095" lon="-118.3939842">
  <ele>-0.115</ele>
  <time>2026-09-02T22:07:21Z</time>
  <course>186.37</course>
  <speed>0.7283543093852057</speed>
  <fix>3d</fix>
</trkpt>
<trkpt lat="33.8102095" lon="-118.3939842">
  <ele>-0.115</ele>
  <time>2026-09-02T22:07:21Z</time>
  <course>186.37</course>
  <speed>0.7283543093852057</speed>
  <fix>3d</fix>
</trkpt>
<trkpt lat="33.8102095" lon="-118.3939842">
  <ele>-0.115</ele>
  <time>2026-09-02T22:07:21Z</time>
  <course>186.37</course>
  <speed>0.7283543093852057</speed>
  <fix>3d</fix>
</trkpt>
<trkpt lat="33.8102104" lon="-118.3939828">
  <ele>-0.1</ele>
  <time>2026-09-02T22:07:21Z</time>
  <course>223.26</course>
  <speed>0.73</speed>
  <fix>3d</fix>
</trkpt>
<trkpt lat="33.8102095" lon="-118.3939843">
  <ele>-0.115</ele>
  <time>2026-09-02T22:07:21Z</time>
  <course>186.37</course>
  <speed>0.7283543093852057</speed>
  <fix>3d</fix>
</trkpt>
<trkpt lat="33.8102094" lon="-118.3939843">
  <ele>-0.115</ele>
  <time>2026-09-02T22:07:21Z</time>
  <course>186.37</course>
  <speed>0.7283543093852057</speed>
  <fix>3d</fix>
</trkpt>
<trkpt lat="33.8102094" lon="-118.3939844">
  <ele>-0.115</ele>
  <time>2026-09-02T22:07:21Z</time>
  <course>186.37</course>
  <speed>0.7283543093852057</speed>
  <fix>3d</fix>
</trkpt>
<trkpt lat="33.8102093" lon="-118.3939844">
  <ele>-0.115</ele>
  <time>2026-09-02T22:07:21Z</time>
  <course>186.37</course>
  <speed>0.7283543093852057</speed>
  <fix>3d</fix>
</trkpt>
<trkpt lat="33.8102093" lon="-118.3939845">
  <ele>-0.115</ele>
  <time>2026-09-02T22:07:21Z</time>
  <course>186.37</course>
  <speed>0.7283543093852057</speed>
  <fix>3d</fix>
</trkpt>
<trkpt lat="33.8102093" lon="-118.3939845">
  <ele>-0.115</ele>
  <time>2026-09-02T22:07:21Z</time>
  <course>186.37</course>
  <speed>0.7283543093852057</speed>
  <fix>3d</fix>
</trkpt>
<trkpt lat="33.8102092" lon="-118.3939846">
  <ele>-0.115</ele>
  <time>2026-09-02T22:07:21Z</time>
  <course>186.37</course>
  <speed>0.7283543093852057</speed>
  <fix>3d</fix>
</trkpt>
<trkpt lat="33.8102092" lon="-118.3939846">
  <ele>-0.115</ele>
  <time>2026-09-02T22:07:21Z</time>
  <course>186.37</course>
  <speed>0.7283543093852057</speed>
  <fix>3d</fix>
</trkpt>
<trkpt lat="33.8102091" lon="-118.3939846">
  <ele>-0.115</ele>
  <time>2026-09-02T22:07:21Z</time>
  <course>186.37</course>
  <speed>0.7283543093852057</speed>
  <fix>3d</fix>
</trkpt>
<trkpt lat="33.8102091" lon="-118.3939847">
  <ele>-0.115</ele>
  <time>2026-09-02T22:07:21Z</time>
  <course>186.37</course>
  <speed>0.7283543093852057</speed>
  <fix>3d</fix>
</trkpt>
<trkpt lat="33.810209" lon="-118.3939847">
  <ele>-0.115</ele>
  <time>2026-09-02T22:07:21Z</time>
  <course>186.37</course>
  <speed>0.7283543093852057</speed>
  <fix>3d</fix>
</trkpt>
<trkpt lat="33.810209" lon="-118.3939848">
  <ele>-0.115</ele>
  <time>2026-09-02T22:07:21Z</time>
  <course>186.37</course>
  <speed>0.7283543093852057</speed>
  <fix>3d</fix>
</trkpt>
<trkpt lat="33.810209" lon="-118.3939848">
  <ele>-0.115</ele>
  <time>2026-09-02T22:07:21Z</time>
  <course>186.37</course>
  <speed>0.7283543093852057</speed>
  <fix>3d</fix>
</trkpt>
<trkpt lat="33.8102095" lon="-118.3939839">
  <ele>-0.1</ele>
  <time>2026-09-02T22:07:21Z</time>
  <course>223.26</course>
  <speed>0.73</speed>
  <fix>3d</fix>
</trkpt>
<trkpt lat="33.810209" lon="-118.3939848">
  <ele>-0.115</ele>
  <time>2026-09-02T22:07:21Z</time>
  <course>186.37</course>
  <speed>0.7283543093852057</speed>
  <fix>3d</fix>
</trkpt>
<trkpt lat="33.8102089" lon="-118.3939849">
  <ele>-0.115</ele>
  <time>2026-09-02T22:07:21Z</time>
  <course>186.37</course>
  <speed>0.7283543093852057</speed>
  <fix>3d</fix>
</trkpt>
<trkpt lat="33.8102088" lon="-118.393985">
  <ele>-0.115</ele>
  <time>2026-09-02T22:07:21Z</time>
  <course>186.37</course>
  <speed>0.7283543093852057</speed>
  <fix>3d</fix>
</trkpt>
<trkpt lat="33.8102088" lon="-118.393985">
  <ele>-0.115</ele>
  <time>2026-09-02T22:07:21Z</time>
  <course>186.37</course>
  <speed>0.7283543093852057</speed>
  <fix>3d</fix>
</trkpt>
<trkpt lat="33.8102087" lon="-118.3939851">
  <ele>-0.115</ele>
  <time>2026-09-02T22:07:21Z</time>
  <course>186.37</course>
  <speed>0.7283543093852057</speed>
  <fix>3d</fix>
</trkpt>
<trkpt lat="33.8102087" lon="-118.3939851">
  <ele>-0.115</ele>
  <time>2026-09-02T22:07:21Z</time>
  <course>186.37</course>
  <speed>0.7283543093852057</speed>
  <fix>3d</fix>
</trkpt>
<trkpt lat="33.8102087" lon="-118.3939852">
  <ele>-0.115</ele>
  <time>2026-09-02T22:07:21Z</time>
  <course>186.37</course>
  <speed>0.7283543093852057</speed>
  <fix>3d</fix>
</trkpt>
<trkpt lat="33.8102086" lon="-118.3939852">
  <ele>-0.115</ele>
  <time>2026-09-02T22:07:21Z</time>
  <course>186.37</course>
  <speed>0.7283543093852057</speed>
  <fix>3d</fix>
</trkpt>
<trkpt lat="33.8102086" lon="-118.3939853">
  <ele>-0.115</ele>
  <time>2026-09-02T22:07:21Z</time>
  <course>186.37</course>
  <speed>0.7283543093852057</speed>
  <fix>3d</fix>
</trkpt>
<trkpt lat="33.8102085" lon="-118.3939853">
  <ele>-0.115</ele>
  <time>2026-09-02T22:07:21Z</time>
  <course>186.37</course>
  <speed>0.7283543093852057</speed>
  <fix>3d</fix>
</trkpt>
<trkpt lat="33.8102085" lon="-118.3939853">
  <ele>-0.114</ele>
  <time>2026-09-02T22:07:21Z</time>
  <course>186.37</course>
  <speed>0.7283543093852057</speed>
  <fix>3d</fix>
</trkpt>
<trkpt lat="33.8102095" lon="-118.3939839">
  <ele>-0.1</ele>
  <time>2026-09-02T22:07:21Z</time>
  <course>223.26</course>
  <speed>0.73</speed>
  <fix>3d</fix>
</trkpt>
<trkpt lat="33.8102085" lon="-118.3939854">
  <ele>-0.114</ele>
  <time>2026-09-02T22:07:21Z</time>
  <course>186.37</course>
  <speed>0.7283543093852057</speed>
  <fix>3d</fix>
</trkpt>
<trkpt lat="33.8102084" lon="-118.3939854">
  <ele>-0.114</ele>
  <time>2026-09-02T22:07:21Z</time>
  <course>186.37</course>
  <speed>0.7283543093852057</speed>
  <fix>3d</fix>
</trkpt>
<trkpt lat="33.8102084" lon="-118.3939855">
  <ele>-0.114</ele>
  <time>2026-09-02T22:07:21Z</time>
  <course>186.37</course>
  <speed>0.7283543093852057</speed>
  <fix>3d</fix>
</trkpt>
<trkpt lat="33.8102083" lon="-118.3939856">
  <ele>-0.114</ele>
  <time>2026-09-02T22:07:21Z</time>
  <course>186.37</course>
  <speed>0.7283543093852057</speed>
  <fix>3d</fix>
</trkpt>
<trkpt lat="33.8102083" lon="-118.3939856">
  <ele>-0.114</ele>
  <time>2026-09-02T22:07:21Z</time>
  <course>186.37</course>
  <speed>0.7283543093852057</speed>
  <fix>3d</fix>
</trkpt>
<trkpt lat="33.8102083" lon="-118.3939856">
  <ele>-0.114</ele>
  <time>2026-09-02T22:07:21Z</time>
  <course>186.37</course>
  <speed>0.7283543093852057</speed>
  <fix>3d</fix>
</trkpt>
<trkpt lat="33.8102082" lon="-118.3939857">
  <ele>-0.114</ele>
  <time>2026-09-02T22:07:21Z</time>
  <course>186.37</course>
  <speed>0.7283543093852057</speed>
  <fix>3d</fix>
</trkpt>
<trkpt lat="33.8102082" lon="-118.3939857">
  <ele>-0.114</ele>
  <time>2026-09-02T22:07:21Z</time>
  <course>186.37</course>
  <speed>0.7283543093852057</speed>
  <fix>3d</fix>
</trkpt>
<trkpt lat="33.8102081" lon="-118.3939858">
  <ele>-0.114</ele>
  <time>2026-09-02T22:07:21Z</time>
  <course>186.37</course>
  <speed>0.7283543093852057</speed>
  <fix>3d</fix>
</trkpt>
<trkpt lat="33.8102081" lon="-118.3939858">
  <ele>-0.113</ele>
  <time>2026-09-02T22:07:21Z</time>
  <course>186.37</course>
  <speed>0.7283543093852057</speed>
  <fix>3d</fix>
</trkpt>
<trkpt lat="33.810208" lon="-118.3939859">
  <ele>-0.113</ele>
  <time>2026-09-02T22:07:21Z</time>
  <course>186.37</course>
  <speed>0.7283543093852057</speed>
  <fix>3d</fix>
</trkpt>
<trkpt lat="33.810208" lon="-118.3939859">
  <ele>-0.113</ele>
  <time>2026-09-02T22:07:21Z</time>
  <course>186.37</course>
  <speed>0.7283543093852057</speed>
  <fix>3d</fix>
</trkpt>
<trkpt lat="33.8102085" lon="-118.3939849">
  <ele>-0.1</ele>
  <time>2026-09-02T22:07:21Z</time>
  <course>223.26</course>
  <speed>0.73</speed>
  <fix>3d</fix>
</trkpt>
<trkpt lat="33.810208" lon="-118.393986">
  <ele>-0.113</ele>
  <time>2026-09-02T22:07:21Z</time>
  <course>186.37</course>
  <speed>0.7283543093852057</speed>
  <fix>3d</fix>
</trkpt>
<trkpt lat="33.8102079" lon="-118.393986">
  <ele>-0.113</ele>
  <time>2026-09-02T22:07:21Z</time>
  <course>186.37</course>
  <speed>0.7283543093852057</speed>
  <fix>3d</fix>
</trkpt>
<trkpt lat="33.8102079" lon="-118.3939861">
  <ele>-0.113</ele>
  <time>2026-09-02T22:07:21Z</time>
  <course>186.37</course>
  <speed>0.7283543093852057</speed>
  <fix>3d</fix>
</trkpt>
<trkpt lat="33.8102079" lon="-118.3939861">
  <ele>-0.113</ele>
  <time>2026-09-02T22:07:21Z</time>
  <course>186.37</course>
  <speed>0.7283543093852057</speed>
  <fix>3d</fix>
</trkpt>
<trkpt lat="33.8102078" lon="-118.3939861">
  <ele>-0.113</ele>
  <time>2026-09-02T22:07:21Z</time>
  <course>186.37</course>
  <speed>0.7283543093852057</speed>
  <fix>3d</fix>
</trkpt>
<trkpt lat="33.8102078" lon="-118.3939862">
  <ele>-0.112</ele>
  <time>2026-09-02T22:07:21Z</time>
  <course>186.37</course>
  <speed>0.7283543093852057</speed>
  <fix>3d</fix>
</trkpt>
<trkpt lat="33.8102077" lon="-118.3939862">
  <ele>-0.112</ele>
  <time>2026-09-02T22:07:21Z</time>
  <course>186.37</course>
  <speed>0.7283543093852057</speed>
  <fix>3d</fix>
</trkpt>
<trkpt lat="33.8102077" lon="-118.3939863">
  <ele>-0.112</ele>
  <time>2026-09-02T22:07:21Z</time>
  <course>186.37</course>
  <speed>0.7283543093852057</speed>
  <fix>3d</fix>
</trkpt>
<trkpt lat="33.8102077" lon="-118.3939863">
  <ele>-0.112</ele>
  <time>2026-09-02T22:07:21Z</time>
  <course>186.37</course>
  <speed>0.7283543093852057</speed>
  <fix>3d</fix>
</trkpt>
<trkpt lat="33.8102076" lon="-118.3939864">
  <ele>-0.112</ele>
  <time>2026-09-02T22:07:21Z</time>
  <course>186.37</course>
  <speed>0.7283543093852057</speed>
  <fix>3d</fix>
</trkpt>
<trkpt lat="33.8102076" lon="-118.3939864">
  <ele>-0.112</ele>
  <time>2026-09-02T22:07:21Z</time>
  <course>186.37</course>
  <speed>0.7283543093852057</speed>
  <fix>3d</fix>
</trkpt>
<trkpt lat="33.8102076" lon="-118.3939864">
  <ele>-0.111</ele>
  <time>2026-09-02T22:07:21Z</time>
  <course>186.37</course>
  <speed>0.7283543093852057</speed>
  <fix>3d</fix>
</trkpt>
<trkpt lat="33.8102085" lon="-118.3939849">
  <ele>-0.1</ele>
  <time>2026-09-02T22:07:21Z</time>
  <course>223.26</course>
  <speed>0.73</speed>
  <fix>3d</fix>
</trkpt>
<trkpt lat="33.8102075" lon="-118.3939865">
  <ele>-0.111</ele>
  <time>2026-09-02T22:07:21Z</time>
  <course>186.37</course>
  <speed>0.7283543093852057</speed>
  <fix>3d</fix>
</trkpt>
<trkpt lat="33.8102075" lon="-118.3939865">
  <ele>-0.111</ele>
  <time>2026-09-02T22:07:21Z</time>
  <course>186.36</course>
  <speed>0.7283543093852057</speed>
  <fix>3d</fix>
</trkpt>
<trkpt lat="33.8102074" lon="-118.3939866">
  <ele>-0.111</ele>
  <time>2026-09-02T22:07:21Z</time>
  <course>186.36</course>
  <speed>0.7283543093852057</speed>
  <fix>3d</fix>
</trkpt>
<trkpt lat="33.8102074" lon="-118.3939867">
  <ele>-0.11</ele>
  <time>2026-09-02T22:07:21Z</time>
  <course>186.36</course>
  <speed>0.7283543093852057</speed>
  <fix>3d</fix>
</trkpt>
<trkpt lat="33.8102073" lon="-118.3939867">
  <ele>-0.11</ele>
  <time>2026-09-02T22:07:21Z</time>
  <course>186.36</course>
  <speed>0.7283543093852057</speed>
  <fix>3d</fix>
</trkpt>
<trkpt lat="33.8102073" lon="-118.3939867">
  <ele>-0.11</ele>
  <time>2026-09-02T22:07:21Z</time>
  <course>186.36</course>
  <speed>0.7283543093852057</speed>
  <fix>3d</fix>
</trkpt>
<trkpt lat="33.8102073" lon="-118.3939868">
  <ele>-0.11</ele>
  <time>2026-09-02T22:07:21Z</time>
  <course>186.36</course>
  <speed>0.7283543093852057</speed>
  <fix>3d</fix>
</trkpt>
<trkpt lat="33.8102072" lon="-118.3939868">
  <ele>-0.11</ele>
  <time>2026-09-02T22:07:21Z</time>
  <course>186.36</course>
  <speed>0.7283543093852057</speed>
  <fix>3d</fix>
</trkpt>
<trkpt lat="33.8102072" lon="-118.3939869">
  <ele>-0.109</ele>
  <time>2026-09-02T22:07:21Z</time>
  <course>186.36</course>
  <speed>0.7283543093852057</speed>
  <fix>3d</fix>
</trkpt>
<trkpt lat="33.8102072" lon="-118.3939869">
  <ele>-0.109</ele>
  <time>2026-09-02T22:07:21Z</time>
  <course>186.36</course>
  <speed>0.7283543093852057</speed>
  <fix>3d</fix>
</trkpt>
<trkpt lat="33.8102071" lon="-118.3939869">
  <ele>-0.109</ele>
  <time>2026-09-02T22:07:21Z</time>
  <course>186.36</course>
  <speed>0.7283543093852057</speed>
  <fix>3d</fix>
</trkpt>
<trkpt lat="33.8102071" lon="-118.393987">
  <ele>-0.109</ele>
  <time>2026-09-02T22:07:21Z</time>
  <course>186.36</course>
  <speed>0.7283543093852057</speed>
  <fix>3d</fix>
</trkpt>
<trkpt lat="33.8102071" lon="-118.393987">
  <ele>-0.109</ele>
  <time>2026-09-02T22:07:21Z</time>
  <course>186.36</course>
  <speed>0.7283543093852057</speed>
  <fix>3d</fix>
</trkpt>
<trkpt lat="33.8102075" lon="-118.393986">
  <ele>-0.11</ele>
  <time>2026-09-02T22:07:21Z</time>
  <course>223.26</course>
  <speed>0.73</speed>
  <fix>3d</fix>
</trkpt>
<trkpt lat="33.810207" lon="-118.3939871">
  <ele>-0.108</ele>
  <time>2026-09-02T22:07:21Z</time>
  <course>186.36</course>
  <speed>0.7283543093852057</speed>
  <fix>3d</fix>
</trkpt>
<trkpt lat="33.810207" lon="-118.3939871">
  <ele>-0.108</ele>
  <time>2026-09-02T22:07:21Z</time>
  <course>186.36</course>
  <speed>0.7283543093852057</speed>
  <fix>3d</fix>
</trkpt>
<trkpt lat="33.8102069" lon="-118.3939872">
  <ele>-0.108</ele>
  <time>2026-09-02T22:07:21Z</time>
  <course>186.36</course>
  <speed>0.7283543093852057</speed>
  <fix>3d</fix>
</trkpt>
<trkpt lat="33.8102069" lon="-118.3939872">
  <ele>-0.108</ele>
  <time>2026-09-02T22:07:21Z</time>
  <course>186.36</course>
  <speed>0.7283543093852057</speed>
  <fix>3d</fix>
</trkpt>
<trkpt lat="33.8102069" lon="-118.3939872">
  <ele>-0.108</ele>
  <time>2026-09-02T22:07:21Z</time>
  <course>186.36</course>
  <speed>0.7283543093852057</speed>
  <fix>3d</fix>
</trkpt>
<trkpt lat="33.8102068" lon="-118.3939873">
  <ele>-0.107</ele>
  <time>2026-09-02T22:07:21Z</time>
  <course>186.36</course>
  <speed>0.7283543093852057</speed>
  <fix>3d</fix>
</trkpt>
<trkpt lat="33.8102068" lon="-118.3939873">
  <ele>-0.107</ele>
  <time>2026-09-02T22:07:21Z</time>
  <course>186.36</course>
  <speed>0.7283543093852057</speed>
  <fix>3d</fix>
</trkpt>
<trkpt lat="33.8102067" lon="-118.3939874">
  <ele>-0.107</ele>
  <time>2026-09-02T22:07:21Z</time>
  <course>186.36</course>
  <speed>0.7283543093852057</speed>
  <fix>3d</fix>
</trkpt>
<trkpt lat="33.8102067" lon="-118.3939874">
  <ele>-0.107</ele>
  <time>2026-09-02T22:07:21Z</time>
  <course>186.36</course>
  <speed>0.7283543093852057</speed>
  <fix>3d</fix>
</trkpt>
<trkpt lat="33.8102066" lon="-118.3939875">
  <ele>-0.107</ele>
  <time>2026-09-02T22:07:21Z</time>
  <course>186.36</course>
  <speed>0.7283543093852057</speed>
  <fix>3d</fix>
</trkpt>
<trkpt lat="33.8102066" lon="-118.3939875">
  <ele>-0.107</ele>
  <time>2026-09-02T22:07:21Z</time>
  <course>186.36</course>
  <speed>0.7283543093852057</speed>
  <fix>3d</fix>
</trkpt>
<trkpt lat="33.8102066" lon="-118.3939875">
  <ele>-0.107</ele>
  <time>2026-09-02T22:07:21Z</time>
  <course>186.36</course>
  <speed>0.7283543093852057</speed>
  <fix>3d</fix>
</trkpt>
<trkpt lat="33.8102075" lon="-118.393986">
  <ele>-0.11</ele>
  <time>2026-09-02T22:07:21Z</time>
  <course>223.26</course>
  <speed>0.73</speed>
  <fix>3d</fix>
</trkpt>
<trkpt lat="33.8102065" lon="-118.3939876">
  <ele>-0.106</ele>
  <time>2026-09-02T22:07:21Z</time>
  <course>186.36</course>
  <speed>0.7283543093852057</speed>
  <fix>3d</fix>
</trkpt>
<trkpt lat="33.8102065" lon="-118.3939877">
  <ele>-0.106</ele>
  <time>2026-09-02T22:07:21Z</time>
  <course>186.36</course>
  <speed>0.7283543093852057</speed>
  <fix>3d</fix>
</trkpt>
<trkpt lat="33.8102064" lon="-118.3939877">
  <ele>-0.106</ele>
  <time>2026-09-02T22:07:21Z</time>
  <course>186.36</course>
  <speed>0.7283543093852057</speed>
  <fix>3d</fix>
</trkpt>
<trkpt lat="33.8102064" lon="-118.3939878">
  <ele>-0.106</ele>
  <time>2026-09-02T22:07:21Z</time>
  <course>186.36</course>
  <speed>0.7283543093852057</speed>
  <fix>3d</fix>
</trkpt>
<trkpt lat="33.8102063" lon="-118.3939878">
  <ele>-0.106</ele>
  <time>2026-09-02T22:07:21Z</time>
  <course>186.36</course>
  <speed>0.7283543093852057</speed>
  <fix>3d</fix>
</trkpt>
<trkpt lat="33.8102063" lon="-118.3939879">
  <ele>-0.106</ele>
  <time>2026-09-02T22:07:21Z</time>
  <course>186.36</course>
  <speed>0.7283543093852057</speed>
  <fix>3d</fix>
</trkpt>
<trkpt lat="33.8102063" lon="-118.3939879">
  <ele>-0.105</ele>
  <time>2026-09-02T22:07:21Z</time>
  <course>186.36</course>
  <speed>0.7283543093852057</speed>
  <fix>3d</fix>
</trkpt>
<trkpt lat="33.8102062" lon="-118.3939879">
  <ele>-0.105</ele>
  <time>2026-09-02T22:07:21Z</time>
  <course>186.36</course>
  <speed>0.7283543093852057</speed>
  <fix>3d</fix>
</trkpt>
<trkpt lat="33.8102062" lon="-118.393988">
  <ele>-0.105</ele>
  <time>2026-09-02T22:07:21Z</time>
  <course>186.36</course>
  <speed>0.7283543093852057</speed>
  <fix>3d</fix>
</trkpt>
<trkpt lat="33.8102062" lon="-118.393988">
  <ele>-0.105</ele>
  <time>2026-09-02T22:07:21Z</time>
  <course>186.36</course>
  <speed>0.7283543093852057</speed>
  <fix>3d</fix>
</trkpt>
<trkpt lat="33.8102061" lon="-118.3939881">
  <ele>-0.105</ele>
  <time>2026-09-02T22:07:21Z</time>
  <course>186.36</course>
  <speed>0.7283543093852057</speed>
  <fix>3d</fix>
</trkpt>
<trkpt lat="33.8102066" lon="-118.3939871">
  <ele>-0.1</ele>
  <time>2026-09-02T22:07:21Z</time>
  <course>223.26</course>
  <speed>0.73</speed>
  <fix>3d</fix>
</trkpt>
<trkpt lat="33.8102061" lon="-118.3939881">
  <ele>-0.105</ele>
  <time>2026-09-02T22:07:21Z</time>
  <course>186.36</course>
  <speed>0.7283543093852057</speed>
  <fix>3d</fix>
</trkpt>
<trkpt lat="33.810206" lon="-118.3939882">
  <ele>-0.105</ele>
  <time>2026-09-02T22:07:21Z</time>
  <course>186.36</course>
  <speed>0.7283543093852057</speed>
  <fix>3d</fix>
</trkpt>
<trkpt lat="33.810206" lon="-118.3939882">
  <ele>-0.104</ele>
  <time>2026-09-02T22:07:21Z</time>
  <course>186.36</course>
  <speed>0.7283543093852057</speed>
  <fix>3d</fix>
</trkpt>
<trkpt lat="33.810206" lon="-118.3939882">
  <ele>-0.104</ele>
  <time>2026-09-02T22:07:21Z</time>
  <course>186.36</course>
  <speed>0.7283543093852057</speed>
  <fix>3d</fix>
</trkpt>
<trkpt lat="33.8102059" lon="-118.3939883">
  <ele>-0.104</ele>
  <time>2026-09-02T22:07:21Z</time>
  <course>186.36</course>
  <speed>0.7283543093852057</speed>
  <fix>3d</fix>
</trkpt>
<trkpt lat="33.8102059" lon="-118.3939883">
  <ele>-0.104</ele>
  <time>2026-09-02T22:07:21Z</time>
  <course>186.36</course>
  <speed>0.7283543093852057</speed>
  <fix>3d</fix>
</trkpt>
<trkpt lat="33.8102059" lon="-118.3939884">
  <ele>-0.104</ele>
  <time>2026-09-02T22:07:21Z</time>
  <course>186.36</course>
  <speed>0.7283543093852057</speed>
  <fix>3d</fix>
</trkpt>
<trkpt lat="33.8102058" lon="-118.3939884">
  <ele>-0.104</ele>
  <time>2026-09-02T22:07:21Z</time>
  <course>186.36</course>
  <speed>0.7283543093852057</speed>
  <fix>3d</fix>
</trkpt>
<trkpt lat="33.8102058" lon="-118.3939885">
  <ele>-0.104</ele>
  <time>2026-09-02T22:07:21Z</time>
  <course>186.36</course>
  <speed>0.7283543093852057</speed>
  <fix>3d</fix>
</trkpt>
<trkpt lat="33.8102057" lon="-118.3939885">
  <ele>-0.103</ele>
  <time>2026-09-02T22:07:21Z</time>
  <course>186.36</course>
  <speed>0.7283543093852057</speed>
  <fix>3d</fix>
</trkpt>
<trkpt lat="33.8102057" lon="-118.3939885">
  <ele>-0.103</ele>
  <time>2026-09-02T22:07:21Z</time>
  <course>186.36</course>
  <speed>0.7283543093852057</speed>
  <fix>3d</fix>
</trkpt>
<trkpt lat="33.8102057" lon="-118.3939886">
  <ele>-0.103</ele>
  <time>2026-09-02T22:07:21Z</time>
  <course>186.36</course>
  <speed>0.7283543093852057</speed>
  <fix>3d</fix>
</trkpt>
<trkpt lat="33.8102056" lon="-118.3939886">
  <ele>-0.103</ele>
  <time>2026-09-02T22:07:21Z</time>
  <course>186.36</course>
  <speed>0.7283543093852057</speed>
  <fix>3d</fix>
</trkpt>
<trkpt lat="33.8102066" lon="-118.3939871">
  <ele>-0.1</ele>
  <time>2026-09-02T22:07:21Z</time>
  <course>223.26</course>
  <speed>0.73</speed>
  <fix>3d</fix>
</trkpt>
<trkpt lat="33.8102056" lon="-118.3939886">
  <ele>-0.103</ele>
  <time>2026-09-02T22:07:21Z</time>
  <course>186.36</course>
  <speed>0.7283543093852057</speed>
  <fix>3d</fix>
</trkpt>
<trkpt lat="33.8102056" lon="-118.3939887">
  <ele>-0.103</ele>
  <time>2026-09-02T22:07:21Z</time>
  <course>186.36</course>
  <speed>0.7283543093852057</speed>
  <fix>3d</fix>
</trkpt>
<trkpt lat="33.8102055" lon="-118.3939888">
  <ele>-0.103</ele>
  <time>2026-09-02T22:07:21Z</time>
  <course>186.36</course>
  <speed>0.7283543093852057</speed>
  <fix>3d</fix>
</trkpt>
<trkpt lat="33.8102055" lon="-118.3939888">
  <ele>-0.103</ele>
  <time>2026-09-02T22:07:21Z</time>
  <course>186.36</course>
  <speed>0.7283543093852057</speed>
  <fix>3d</fix>
</trkpt>
<trkpt lat="33.8102054" lon="-118.3939888">
  <ele>-0.102</ele>
  <time>2026-09-02T22:07:21Z</time>
  <course>186.36</course>
  <speed>0.7283543093852057</speed>
  <fix>3d</fix>
</trkpt>
<trkpt lat="33.8102054" lon="-118.3939889">
  <ele>-0.102</ele>
  <time>2026-09-02T22:07:21Z</time>
  <course>186.36</course>
  <speed>0.7283543093852057</speed>
  <fix>3d</fix>
</trkpt>
<trkpt lat="33.8102054" lon="-118.3939889">
  <ele>-0.102</ele>
  <time>2026-09-02T22:07:21Z</time>
  <course>186.36</course>
  <speed>0.7283543093852057</speed>
  <fix>3d</fix>
</trkpt>
<trkpt lat="33.8102053" lon="-118.3939889">
  <ele>-0.102</ele>
  <time>2026-09-02T22:07:21Z</time>
  <course>186.36</course>
  <speed>0.7283543093852057</speed>
  <fix>3d</fix>
</trkpt>
<trkpt lat="33.8102053" lon="-118.393989">
  <ele>-0.102</ele>
  <time>2026-09-02T22:07:21Z</time>
  <course>186.36</course>
  <speed>0.7283543093852057</speed>
  <fix>3d</fix>
</trkpt>
<trkpt lat="33.8102053" lon="-118.393989">
  <ele>-0.102</ele>
  <time>2026-09-02T22:07:21Z</time>
  <course>186.36</course>
  <speed>0.7283543093852057</speed>
  <fix>3d</fix>
</trkpt>
<trkpt lat="33.8102052" lon="-118.3939891">
  <ele>-0.102</ele>
  <time>2026-09-02T22:07:21Z</time>
  <course>186.36</course>
  <speed>0.7283543093852057</speed>
  <fix>3d</fix>
</trkpt>
<trkpt lat="33.8102052" lon="-118.3939891">
  <ele>-0.102</ele>
  <time>2026-09-02T22:07:21Z</time>
  <course>186.36</course>
  <speed>0.7283543093852057</speed>
  <fix>3d</fix>
</trkpt>
<trkpt lat="33.8102052" lon="-118.3939892">
  <ele>-0.102</ele>
  <time>2026-09-02T22:07:21Z</time>
  <course>186.36</course>
  <speed>0.7283543093852057</speed>
  <fix>3d</fix>
</trkpt>
<trkpt lat="33.8102056" lon="-118.3939882">
  <ele>-0.1</ele>
  <time>2026-09-02T22:07:21Z</time>
  <course>223.26</course>
  <speed>0.73</speed>
  <fix>3d</fix>
</trkpt>
<trkpt lat="33.8102051" lon="-118.3939892">
  <ele>-0.102</ele>
  <time>2026-09-02T22:07:21Z</time>
  <course>186.36</course>
  <speed>0.7283543093852057</speed>
  <fix>3d</fix>
</trkpt>
<trkpt lat="33.8102051" lon="-118.3939892">
  <ele>-0.102</ele>
  <time>2026-09-02T22:07:21Z</time>
  <course>186.36</course>
  <speed>0.7283543093852057</speed>
  <fix>3d</fix>
</trkpt>
<trkpt lat="33.810205" lon="-118.3939893">
  <ele>-0.102</ele>
  <time>2026-09-02T22:07:21Z</time>
  <course>186.36</course>
  <speed>0.7283543093852057</speed>
  <fix>3d</fix>
</trkpt>
<trkpt lat="33.810205" lon="-118.3939893">
  <ele>-0.102</ele>
  <time>2026-09-02T22:07:21Z</time>
  <course>186.36</course>
  <speed>0.7283543093852057</speed>
  <fix>3d</fix>
</trkpt>
<trkpt lat="33.810205" lon="-118.3939894">
  <ele>-0.102</ele>
  <time>2026-09-02T22:07:21Z</time>
  <course>186.36</course>
  <speed>0.7283543093852057</speed>
  <fix>3d</fix>
</trkpt>
<trkpt lat="33.8102049" lon="-118.3939894">
  <ele>-0.102</ele>
  <time>2026-09-02T22:07:21Z</time>
  <course>186.36</course>
  <speed>0.7283543093852057</speed>
  <fix>3d</fix>
</trkpt>
<trkpt lat="33.8102049" lon="-118.3939895">
  <ele>-0.102</ele>
  <time>2026-09-02T22:07:21Z</time>
  <course>186.36</course>
  <speed>0.7283543093852057</speed>
  <fix>3d</fix>
</trkpt>
<trkpt lat="33.8102048" lon="-118.3939895">
  <ele>-0.102</ele>
  <time>2026-09-02T22:07:21Z</time>
  <course>186.36</course>
  <speed>0.7283543093852057</speed>
  <fix>3d</fix>
</trkpt>
<trkpt lat="33.8102048" lon="-118.3939896">
  <ele>-0.102</ele>
  <time>2026-09-02T22:07:21Z</time>
  <course>186.36</course>
  <speed>0.7283543093852057</speed>
  <fix>3d</fix>
</trkpt>
<trkpt lat="33.8102047" lon="-118.3939896">
  <ele>-0.102</ele>
  <time>2026-09-02T22:07:21Z</time>
  <course>186.36</course>
  <speed>0.7283543093852057</speed>
  <fix>3d</fix>
</trkpt>
<trkpt lat="33.8102047" lon="-118.3939897">
  <ele>-0.102</ele>
  <time>2026-09-02T22:07:21Z</time>
  <course>186.36</course>
  <speed>0.7283543093852057</speed>
  <fix>3d</fix>
</trkpt>
<trkpt lat="33.8102047" lon="-118.3939897">
  <ele>-0.102</ele>
  <time>2026-09-02T22:07:21Z</time>
  <course>186.36</course>
  <speed>0.7283543093852057</speed>
  <fix>3d</fix>
</trkpt>
<trkpt lat="33.8102056" lon="-118.3939882">
  <ele>-0.1</ele>
  <time>2026-09-02T22:07:21Z</time>
  <course>223.26</course>
  <speed>0.73</speed>
  <fix>3d</fix>
</trkpt>
<trkpt lat="33.8102047" lon="-118.3939897">
  <ele>-0.102</ele>
  <time>2026-09-02T22:07:21Z</time>
  <course>186.36</course>
  <speed>0.7283543093852057</speed>
  <fix>3d</fix>
</trkpt>
<trkpt lat="33.8102046" lon="-118.3939898">
  <ele>-0.102</ele>
  <time>2026-09-02T22:07:21Z</time>
  <course>186.36</course>
  <speed>0.7283543093852057</speed>
  <fix>3d</fix>
</trkpt>
<trkpt lat="33.8102046" lon="-118.3939898">
  <ele>-0.102</ele>
  <time>2026-09-02T22:07:21Z</time>
  <course>186.36</course>
  <speed>0.7283543093852057</speed>
  <fix>3d</fix>
</trkpt>
<trkpt lat="33.8102045" lon="-118.3939899">
  <ele>-0.102</ele>
  <time>2026-09-02T22:07:21Z</time>
  <course>186.36</course>
  <speed>0.7283543093852057</speed>
  <fix>3d</fix>
</trkpt>
<trkpt lat="33.8102045" lon="-118.3939899">
  <ele>-0.102</ele>
  <time>2026-09-02T22:07:21Z</time>
  <course>186.36</course>
  <speed>0.7283543093852057</speed>
  <fix>3d</fix>
</trkpt>
<trkpt lat="33.8102044" lon="-118.39399">
  <ele>-0.101</ele>
  <time>2026-09-02T22:07:21Z</time>
  <course>186.36</course>
  <speed>0.7283543093852057</speed>
  <fix>3d</fix>
</trkpt>
<trkpt lat="33.8102044" lon="-118.39399">
  <ele>-0.102</ele>
  <time>2026-09-02T22:07:21Z</time>
  <course>186.36</course>
  <speed>0.7283543093852057</speed>
  <fix>3d</fix>
</trkpt>
<trkpt lat="33.8102044" lon="-118.3939901">
  <ele>-0.101</ele>
  <time>2026-09-02T22:07:21Z</time>
  <course>186.36</course>
  <speed>0.7283543093852057</speed>
  <fix>3d</fix>
</trkpt>
<trkpt lat="33.8102043" lon="-118.3939901">
  <ele>-0.102</ele>
  <time>2026-09-02T22:07:21Z</time>
  <course>186.36</course>
  <speed>0.7283543093852057</speed>
  <fix>3d</fix>
</trkpt>
<trkpt lat="33.8102043" lon="-118.3939901">
  <ele>-0.101</ele>
  <time>2026-09-02T22:07:21Z</time>
  <course>186.36</course>
  <speed>0.7283543093852057</speed>
  <fix>3d</fix>
</trkpt>
<trkpt lat="33.8102042" lon="-118.3939902">
  <ele>-0.101</ele>
  <time>2026-09-02T22:07:21Z</time>
  <course>186.36</course>
  <speed>0.7283543093852057</speed>
  <fix>3d</fix>
</trkpt>
<trkpt lat="33.8102042" lon="-118.3939902">
  <ele>-0.101</ele>
  <time>2026-09-02T22:07:21Z</time>
  <course>186.36</course>
  <speed>0.7283543093852057</speed>
  <fix>3d</fix>
</trkpt>
<trkpt lat="33.8102042" lon="-118.3939902">
  <ele>-0.101</ele>
  <time>2026-09-02T22:07:21Z</time>
  <course>186.36</course>
  <speed>0.7283543093852057</speed>
  <fix>3d</fix>
</trkpt>
<trkpt lat="33.8102047" lon="-118.3939893">
  <ele>-0.1</ele>
  <time>2026-09-02T22:07:21Z</time>
  <course>223.26</course>
  <speed>0.73</speed>
  <fix>3d</fix>
</trkpt>
<trkpt lat="33.8102041" lon="-118.3939903">
  <ele>-0.101</ele>
  <time>2026-09-02T22:07:21Z</time>
  <course>186.36</course>
  <speed>0.7283543093852057</speed>
  <fix>3d</fix>
</trkpt>
<trkpt lat="33.8102041" lon="-118.3939904">
  <ele>-0.101</ele>
  <time>2026-09-02T22:07:21Z</time>
  <course>186.36</course>
  <speed>0.7283543093852057</speed>
  <fix>3d</fix>
</trkpt>
<trkpt lat="33.810204" lon="-118.3939904">
  <ele>-0.101</ele>
  <time>2026-09-02T22:07:21Z</time>
  <course>186.36</course>
  <speed>0.7283543093852057</speed>
  <fix>3d</fix>
</trkpt>
<trkpt lat="33.810204" lon="-118.3939905">
  <ele>-0.101</ele>
  <time>2026-09-02T22:07:21Z</time>
  <course>186.36</course>
  <speed>0.7283543093852057</speed>
  <fix>3d</fix>
</trkpt>
<trkpt lat="33.810204" lon="-118.3939905">
  <ele>-0.101</ele>
  <time>2026-09-02T22:07:21Z</time>
  <course>186.36</course>
  <speed>0.7283543093852057</speed>
  <fix>3d</fix>
</trkpt>
<trkpt lat="33.8102039" lon="-118.3939905">
  <ele>-0.102</ele>
  <time>2026-09-02T22:07:21Z</time>
  <course>186.36</course>
  <speed>0.7283543093852057</speed>
  <fix>3d</fix>
</trkpt>
<trkpt lat="33.8102039" lon="-118.3939906">
  <ele>-0.102</ele>
  <time>2026-09-02T22:07:21Z</time>
  <course>186.36</course>
  <speed>0.7283543093852057</speed>
  <fix>3d</fix>
</trkpt>
<trkpt lat="33.8102039" lon="-118.3939906">
  <ele>-0.102</ele>
  <time>2026-09-02T22:07:21Z</time>
  <course>186.36</course>
  <speed>0.7283543093852057</speed>
  <fix>3d</fix>
</trkpt>
<trkpt lat="33.8102038" lon="-118.3939907">
  <ele>-0.102</ele>
  <time>2026-09-02T22:07:21Z</time>
  <course>186.36</course>
  <speed>0.7283543093852057</speed>
  <fix>3d</fix>
</trkpt>
<trkpt lat="33.8102038" lon="-118.3939907">
  <ele>-0.102</ele>
  <time>2026-09-02T22:07:21Z</time>
  <course>186.36</course>
  <speed>0.7283543093852057</speed>
  <fix>3d</fix>
</trkpt>
<trkpt lat="33.8102037" lon="-118.3939908">
  <ele>-0.102</ele>
  <time>2026-09-02T22:07:21Z</time>
  <course>186.35</course>
  <speed>0.7283543093852057</speed>
  <fix>3d</fix>
</trkpt>
<trkpt lat="33.8102037" lon="-118.3939908">
  <ele>-0.102</ele>
  <time>2026-09-02T22:07:21Z</time>
  <course>186.35</course>
  <speed>0.7283543093852057</speed>
  <fix>3d</fix>
</trkpt>
<trkpt lat="33.8102047" lon="-118.3939893">
  <ele>-0.1</ele>
  <time>2026-09-02T22:07:21Z</time>
  <course>223.26</course>
  <speed>0.73</speed>
  <fix>3d</fix>
</trkpt>
<trkpt lat="33.8102037" lon="-118.3939908">
  <ele>-0.102</ele>
  <time>2026-09-02T22:07:21Z</time>
  <course>186.35</course>
  <speed>0.7283543093852057</speed>
  <fix>3d</fix>
</trkpt>
<trkpt lat="33.8102035" lon="-118.3939911">
  <ele>-0.103</ele>
  <time>2026-09-02T22:07:21Z</time>
  <course>186.35</course>
  <speed>0.7283543093852057</speed>
  <fix>3d</fix>
</trkpt>
<trkpt lat="33.8102034" lon="-118.3939911">
  <ele>-0.103</ele>
  <time>2026-09-02T22:07:21Z</time>
  <course>186.35</course>
  <speed>0.7283543093852057</speed>
  <fix>3d</fix>
</trkpt>
<trkpt lat="33.8102034" lon="-118.3939912">
  <ele>-0.103</ele>
  <time>2026-09-02T22:07:21Z</time>
  <course>186.35</course>
  <speed>0.7283543093852057</speed>
  <fix>3d</fix>
</trkpt>
<trkpt lat="33.8102033" lon="-118.3939912">
  <ele>-0.103</ele>
  <time>2026-09-02T22:07:21Z</time>
  <course>186.35</course>
  <speed>0.7283543093852057</speed>
  <fix>3d</fix>
</trkpt>
<trkpt lat="33.8102033" lon="-118.3939913">
  <ele>-0.103</ele>
  <time>2026-09-02T22:07:21Z</time>
  <course>186.35</course>
  <speed>0.7283543093852057</speed>
  <fix>3d</fix>
</trkpt>
<trkpt lat="33.8102032" lon="-118.3939913">
  <ele>-0.103</ele>
  <time>2026-09-02T22:07:21Z</time>
  <course>186.35</course>
  <speed>0.7283543093852057</speed>
  <fix>3d</fix>
</trkpt>
<trkpt lat="33.8102032" lon="-118.3939913">
  <ele>-0.103</ele>
  <time>2026-09-02T22:07:21Z</time>
  <course>186.35</course>
  <speed>0.7283543093852057</speed>
  <fix>3d</fix>
</trkpt>
<trkpt lat="33.8102037" lon="-118.3939904">
  <ele>-0.1</ele>
  <time>2026-09-02T22:07:21Z</time>
  <course>223.26</course>
  <speed>0.73</speed>
  <fix>3d</fix>
</trkpt>
<trkpt lat="33.8102032" lon="-118.3939914">
  <ele>-0.103</ele>
  <time>2026-09-02T22:07:21Z</time>
  <course>186.35</course>
  <speed>0.7283543093852057</speed>
  <fix>3d</fix>
</trkpt>
<trkpt lat="33.8102031" lon="-118.3939915">
  <ele>-0.104</ele>
  <time>2026-09-02T22:07:21Z</time>
  <course>186.35</course>
  <speed>0.7283543093852057</speed>
  <fix>3d</fix>
</trkpt>
<trkpt lat="33.8102031" lon="-118.3939915">
  <ele>-0.103</ele>
  <time>2026-09-02T22:07:21Z</time>
  <course>186.35</course>
  <speed>0.7283543093852057</speed>
  <fix>3d</fix>
</trkpt>
<trkpt lat="33.810203" lon="-118.3939916">
  <ele>-0.104</ele>
  <time>2026-09-02T22:07:21Z</time>
  <course>186.35</course>
  <speed>0.7283543093852057</speed>
  <fix>3d</fix>
</trkpt>
<trkpt lat="33.810203" lon="-118.3939916">
  <ele>-0.104</ele>
  <time>2026-09-02T22:07:21Z</time>
  <course>186.35</course>
  <speed>0.7283543093852057</speed>
  <fix>3d</fix>
</trkpt>
<trkpt lat="33.810203" lon="-118.3939917">
  <ele>-0.104</ele>
  <time>2026-09-02T22:07:21Z</time>
  <course>186.35</course>
  <speed>0.7283543093852057</speed>
  <fix>3d</fix>
</trkpt>
<trkpt lat="33.8102029" lon="-118.3939917">
  <ele>-0.104</ele>
  <time>2026-09-02T22:07:21Z</time>
  <course>186.35</course>
  <speed>0.7283543093852057</speed>
  <fix>3d</fix>
</trkpt>
<trkpt lat="33.8102029" lon="-118.3939917">
  <ele>-0.104</ele>
  <time>2026-09-02T22:07:21Z</time>
  <course>186.35</course>
  <speed>0.7283543093852057</speed>
  <fix>3d</fix>
</trkpt>
<trkpt lat="33.8102028" lon="-118.3939918">
  <ele>-0.104</ele>
  <time>2026-09-02T22:07:21Z</time>
  <course>186.35</course>
  <speed>0.7283543093852057</speed>
  <fix>3d</fix>
</trkpt>
<trkpt lat="33.8102028" lon="-118.3939918">
  <ele>-0.104</ele>
  <time>2026-09-02T22:07:21Z</time>
  <course>186.35</course>
  <speed>0.7283543093852057</speed>
  <fix>3d</fix>
</trkpt>
<trkpt lat="33.8102028" lon="-118.3939919">
  <ele>-0.104</ele>
  <time>2026-09-02T22:07:21Z</time>
  <course>186.35</course>
  <speed>0.7283543093852057</speed>
  <fix>3d</fix>
</trkpt>
<trkpt lat="33.8102028" lon="-118.3939919">
  <ele>-0.104</ele>
  <time>2026-09-02T22:07:21Z</time>
  <course>186.35</course>
  <speed>0.7283543093852057</speed>
  <fix>3d</fix>
</trkpt>
<trkpt lat="33.8102037" lon="-118.3939904">
  <ele>-0.1</ele>
  <time>2026-09-02T22:07:21Z</time>
  <course>223.26</course>
  <speed>0.73</speed>
  <fix>3d</fix>
</trkpt>
<trkpt lat="33.8102027" lon="-118.3939919">
  <ele>-0.104</ele>
  <time>2026-09-02T22:07:21Z</time>
  <course>186.35</course>
  <speed>0.7283543093852057</speed>
  <fix>3d</fix>
</trkpt>
<trkpt lat="33.8102027" lon="-118.393992">
  <ele>-0.104</ele>
  <time>2026-09-02T22:07:21Z</time>
  <course>186.35</course>
  <speed>0.7283543093852057</speed>
  <fix>3d</fix>
</trkpt>
<trkpt lat="33.8102026" lon="-118.393992">
  <ele>-0.104</ele>
  <time>2026-09-02T22:07:21Z</time>
  <course>186.35</course>
  <speed>0.7283543093852057</speed>
  <fix>3d</fix>
</trkpt>
<trkpt lat="33.8102026" lon="-118.3939921">
  <ele>-0.104</ele>
  <time>2026-09-02T22:07:21Z</time>
  <course>186.35</course>
  <speed>0.7283543093852057</speed>
  <fix>3d</fix>
</trkpt>
<trkpt lat="33.8102026" lon="-118.3939921">
  <ele>-0.104</ele>
  <time>2026-09-02T22:07:21Z</time>
  <course>186.35</course>
  <speed>0.7283543093852057</speed>
  <fix>3d</fix>
</trkpt>
<trkpt lat="33.8102025" lon="-118.3939922">
  <ele>-0.104</ele>
  <time>2026-09-02T22:07:21Z</time>
  <course>186.35</course>
  <speed>0.7283543093852057</speed>
  <fix>3d</fix>
</trkpt>
<trkpt lat="33.8102025" lon="-118.3939922">
  <ele>-0.104</ele>
  <time>2026-09-02T22:07:21Z</time>
  <course>186.35</course>
  <speed>0.7283543093852057</speed>
  <fix>3d</fix>
</trkpt>
<trkpt lat="33.8102024" lon="-118.3939923">
  <ele>-0.104</ele>
  <time>2026-09-02T22:07:21Z</time>
  <course>186.35</course>
  <speed>0.7283543093852057</speed>
  <fix>3d</fix>
</trkpt>
<trkpt lat="33.8102024" lon="-118.3939923">
  <ele>-0.104</ele>
  <time>2026-09-02T22:07:21Z</time>
  <course>186.35</course>
  <speed>0.7283543093852057</speed>
  <fix>3d</fix>
</trkpt>
<trkpt lat="33.8102024" lon="-118.3939923">
  <ele>-0.103</ele>
  <time>2026-09-02T22:07:21Z</time>
  <course>186.35</course>
  <speed>0.7283543093852057</speed>
  <fix>3d</fix>
</trkpt>
<trkpt lat="33.8102023" lon="-118.3939924">
  <ele>-0.103</ele>
  <time>2026-09-02T22:07:21Z</time>
  <course>186.35</course>
  <speed>0.7283543093852057</speed>
  <fix>3d</fix>
</trkpt>
<trkpt lat="33.8102023" lon="-118.3939924">
  <ele>-0.103</ele>
  <time>2026-09-02T22:07:21Z</time>
  <course>186.35</course>
  <speed>0.7283543093852057</speed>
  <fix>3d</fix>
</trkpt>
<trkpt lat="33.8102023" lon="-118.3939924">
  <ele>-0.103</ele>
  <time>2026-09-02T22:07:21Z</time>
  <course>186.35</course>
  <speed>0.7283543093852057</speed>
  <fix>3d</fix>
</trkpt>
<trkpt lat="33.8102027" lon="-118.3939915">
  <ele>-0.11</ele>
  <time>2026-09-02T22:07:21Z</time>
  <course>223.26</course>
  <speed>0.73</speed>
  <fix>3d</fix>
</trkpt>
<trkpt lat="33.8102022" lon="-118.3939925">
  <ele>-0.103</ele>
  <time>2026-09-02T22:07:21Z</time>
  <course>186.35</course>
  <speed>0.7283543093852057</speed>
  <fix>3d</fix>
</trkpt>
<trkpt lat="33.8102022" lon="-118.3939926">
  <ele>-0.103</ele>
  <time>2026-09-02T22:07:21Z</time>
  <course>186.35</course>
  <speed>0.7283543093852057</speed>
  <fix>3d</fix>
</trkpt>
<trkpt lat="33.8102021" lon="-118.3939926">
  <ele>-0.103</ele>
  <time>2026-09-02T22:07:21Z</time>
  <course>186.35</course>
  <speed>0.7283543093852057</speed>
  <fix>3d</fix>
</trkpt>
<trkpt lat="33.8102021" lon="-118.3939927">
  <ele>-0.103</ele>
  <time>2026-09-02T22:07:21Z</time>
  <course>186.35</course>
  <speed>0.7283543093852057</speed>
  <fix>3d</fix>
</trkpt>
<trkpt lat="33.810202" lon="-118.3939927">
  <ele>-0.103</ele>
  <time>2026-09-02T22:07:21Z</time>
  <course>186.35</course>
  <speed>0.7283543093852057</speed>
  <fix>3d</fix>
</trkpt>
<trkpt lat="33.810202" lon="-118.3939928">
  <ele>-0.102</ele>
  <time>2026-09-02T22:07:21Z</time>
  <course>186.35</course>
  <speed>0.7283543093852057</speed>
  <fix>3d</fix>
</trkpt>
<trkpt lat="33.8102019" lon="-118.3939928">
  <ele>-0.102</ele>
  <time>2026-09-02T22:07:21Z</time>
  <course>186.35</course>
  <speed>0.7283543093852057</speed>
  <fix>3d</fix>
</trkpt>
<trkpt lat="33.8102019" lon="-118.3939929">
  <ele>-0.102</ele>
  <time>2026-09-02T22:07:21Z</time>
  <course>186.35</course>
  <speed>0.7283543093852057</speed>
  <fix>3d</fix>
</trkpt>
<trkpt lat="33.8102019" lon="-118.3939929">
  <ele>-0.102</ele>
  <time>2026-09-02T22:07:21Z</time>
  <course>186.35</course>
  <speed>0.7283543093852057</speed>
  <fix>3d</fix>
</trkpt>
<trkpt lat="33.8102018" lon="-118.3939929">
  <ele>-0.102</ele>
  <time>2026-09-02T22:07:21Z</time>
  <course>186.35</course>
  <speed>0.7283543093852057</speed>
  <fix>3d</fix>
</trkpt>
<trkpt lat="33.8102018" lon="-118.393993">
  <ele>-0.102</ele>
  <time>2026-09-02T22:07:21Z</time>
  <course>186.35</course>
  <speed>0.7283543093852057</speed>
  <fix>3d</fix>
</trkpt>
<trkpt lat="33.8102027" lon="-118.3939915">
  <ele>-0.11</ele>
  <time>2026-09-02T22:07:21Z</time>
  <course>223.26</course>
  <speed>0.73</speed>
  <fix>3d</fix>
</trkpt>
<trkpt lat="33.8102018" lon="-118.393993">
  <ele>-0.102</ele>
  <time>2026-09-02T22:07:21Z</time>
  <course>186.35</course>
  <speed>0.7283543093852057</speed>
  <fix>3d</fix>
</trkpt>
<trkpt lat="33.8102017" lon="-118.3939931">
  <ele>-0.102</ele>
  <time>2026-09-02T22:07:21Z</time>
  <course>186.35</course>
  <speed>0.7283543093852057</speed>
  <fix>3d</fix>
</trkpt>
<trkpt lat="33.8102017" lon="-118.3939931">
  <ele>-0.101</ele>
  <time>2026-09-02T22:07:21Z</time>
  <course>186.35</course>
  <speed>0.7283543093852057</speed>
  <fix>3d</fix>
</trkpt>
<trkpt lat="33.8102016" lon="-118.3939932">
  <ele>-0.101</ele>
  <time>2026-09-02T22:07:21Z</time>
  <course>186.35</course>
  <speed>0.7283543093852057</speed>
  <fix>3d</fix>
</trkpt>
<trkpt lat="33.8102016" lon="-118.3939932">
  <ele>-0.101</ele>
  <time>2026-09-02T22:07:21Z</time>
  <course>186.35</course>
  <speed>0.7283543093852057</speed>
  <fix>3d</fix>
</trkpt>
<trkpt lat="33.8102016" lon="-118.3939932">
  <ele>-0.101</ele>
  <time>2026-09-02T22:07:21Z</time>
  <course>186.35</course>
  <speed>0.7283543093852057</speed>
  <fix>3d</fix>
</trkpt>
<trkpt lat="33.8102015" lon="-118.3939933">
  <ele>-0.101</ele>
  <time>2026-09-02T22:07:21Z</time>
  <course>186.35</course>
  <speed>0.7283543093852057</speed>
  <fix>3d</fix>
</trkpt>
<trkpt lat="33.8102015" lon="-118.3939933">
  <ele>-0.101</ele>
  <time>2026-09-02T22:07:21Z</time>
  <course>186.35</course>
  <speed>0.7283543093852057</speed>
  <fix>3d</fix>
</trkpt>
<trkpt lat="33.8102014" lon="-118.3939934">
  <ele>-0.101</ele>
  <time>2026-09-02T22:07:21Z</time>
  <course>186.35</course>
  <speed>0.7283543093852057</speed>
  <fix>3d</fix>
</trkpt>
<trkpt lat="33.8102014" lon="-118.3939934">
  <ele>-0.101</ele>
  <time>2026-09-02T22:07:21Z</time>
  <course>186.35</course>
  <speed>0.7283543093852057</speed>
  <fix>3d</fix>
</trkpt>
<trkpt lat="33.8102014" lon="-118.3939935">
  <ele>-0.101</ele>
  <time>2026-09-02T22:07:21Z</time>
  <course>186.35</course>
  <speed>0.7283543093852057</speed>
  <fix>3d</fix>
</trkpt>
<trkpt lat="33.8102013" lon="-118.3939935">
  <ele>-0.101</ele>
  <time>2026-09-02T22:07:21Z</time>
  <course>186.35</course>
  <speed>0.7283543093852057</speed>
  <fix>3d</fix>
</trkpt>
<trkpt lat="33.8102013" lon="-118.3939935">
  <ele>-0.101</ele>
  <time>2026-09-02T22:07:21Z</time>
  <course>186.35</course>
  <speed>0.7283543093852057</speed>
  <fix>3d</fix>
</trkpt>
<trkpt lat="33.8102018" lon="-118.3939926">
  <ele>-0.1</ele>
  <time>2026-09-02T22:07:21Z</time>
  <course>223.26</course>
  <speed>0.73</speed>
  <fix>3d</fix>
</trkpt>
<trkpt lat="33.8102013" lon="-118.3939935">
  <ele>-0.101</ele>
  <time>2026-09-02T22:07:21Z</time>
  <course>186.35</course>
  <speed>0.7283543093852057</speed>
  <fix>3d</fix>
</trkpt>
<trkpt lat="33.8102012" lon="-118.3939936">
  <ele>-0.101</ele>
  <time>2026-09-02T22:07:21Z</time>
  <course>186.35</course>
  <speed>0.7283543093852057</speed>
  <fix>3d</fix>
</trkpt>
<trkpt lat="33.8102012" lon="-118.3939937">
  <ele>-0.101</ele>
  <time>2026-09-02T22:07:21Z</time>
  <course>186.35</course>
  <speed>0.7283543093852057</speed>
  <fix>3d</fix>
</trkpt>
<trkpt lat="33.8102011" lon="-118.3939937">
  <ele>-0.101</ele>
  <time>2026-09-02T22:07:21Z</time>
  <course>186.35</course>
  <speed>0.7283543093852057</speed>
  <fix>3d</fix>
</trkpt>
<trkpt lat="33.8102011" lon="-118.3939938">
  <ele>-0.101</ele>
  <time>2026-09-02T22:07:21Z</time>
  <course>186.35</course>
  <speed>0.7283543093852057</speed>
  <fix>3d</fix>
</trkpt>
<trkpt lat="33.810201" lon="-118.3939938">
  <ele>-0.101</ele>
  <time>2026-09-02T22:07:21Z</time>
  <course>186.35</course>
  <speed>0.7283543093852057</speed>
  <fix>3d</fix>
</trkpt>
<trkpt lat="33.810201" lon="-118.3939939">
  <ele>-0.101</ele>
  <time>2026-09-02T22:07:21Z</time>
  <course>186.35</course>
  <speed>0.7283543093852057</speed>
  <fix>3d</fix>
</trkpt>
<trkpt lat="33.810201" lon="-118.3939939">
  <ele>-0.101</ele>
  <time>2026-09-02T22:07:21Z</time>
  <course>186.35</course>
  <speed>0.7283543093852057</speed>
  <fix>3d</fix>
</trkpt>
<trkpt lat="33.8102009" lon="-118.393994">
  <ele>-0.101</ele>
  <time>2026-09-02T22:07:21Z</time>
  <course>186.35</course>
  <speed>0.7283543093852057</speed>
  <fix>3d</fix>
</trkpt>
<trkpt lat="33.8102009" lon="-118.393994">
  <ele>-0.101</ele>
  <time>2026-09-02T22:07:21Z</time>
  <course>186.35</course>
  <speed>0.7283543093852057</speed>
  <fix>3d</fix>
</trkpt>
<trkpt lat="33.8102008" lon="-118.3939941">
  <ele>-0.101</ele>
  <time>2026-09-02T22:07:21Z</time>
  <course>186.35</course>
  <speed>0.7283543093852057</speed>
  <fix>3d</fix>
</trkpt>
<trkpt lat="33.8102008" lon="-118.3939941">
  <ele>-0.101</ele>
  <time>2026-09-02T22:07:21Z</time>
  <course>186.35</course>
  <speed>0.7283543093852057</speed>
  <fix>3d</fix>
</trkpt>
<trkpt lat="33.8102018" lon="-118.3939926">
  <ele>-0.1</ele>
  <time>2026-09-02T22:07:21Z</time>
  <course>223.26</course>
  <speed>0.73</speed>
  <fix>3d</fix>
</trkpt>
<trkpt lat="33.8102007" lon="-118.3939942">
  <ele>-0.101</ele>
  <time>2026-09-02T22:07:21Z</time>
  <course>186.35</course>
  <speed>0.7283543093852057</speed>
  <fix>3d</fix>
</trkpt>
<trkpt lat="33.8102007" lon="-118.3939942">
  <ele>-0.101</ele>
  <time>2026-09-02T22:07:21Z</time>
  <course>186.35</course>
  <speed>0.7283543093852057</speed>
  <fix>3d</fix>
</trkpt>
<trkpt lat="33.8102007" lon="-118.3939943">
  <ele>-0.101</ele>
  <time>2026-09-02T22:07:21Z</time>
  <course>186.35</course>
  <speed>0.7283543093852057</speed>
  <fix>3d</fix>
</trkpt>
<trkpt lat="33.8102006" lon="-118.3939943">
  <ele>-0.101</ele>
  <time>2026-09-02T22:07:21Z</time>
  <course>186.35</course>
  <speed>0.7283543093852057</speed>
  <fix>3d</fix>
</trkpt>
<trkpt lat="33.8102006" lon="-118.3939944">
  <ele>-0.101</ele>
  <time>2026-09-02T22:07:21Z</time>
  <course>186.35</course>
  <speed>0.7283543093852057</speed>
  <fix>3d</fix>
</trkpt>
<trkpt lat="33.8102005" lon="-118.3939944">
  <ele>-0.101</ele>
  <time>2026-09-02T22:07:21Z</time>
  <course>186.35</course>
  <speed>0.7283543093852057</speed>
  <fix>3d</fix>
</trkpt>
<trkpt lat="33.8102005" lon="-118.3939944">
  <ele>-0.101</ele>
  <time>2026-09-02T22:07:21Z</time>
  <course>186.35</course>
  <speed>0.7283543093852057</speed>
  <fix>3d</fix>
</trkpt>
<trkpt lat="33.8102005" lon="-118.3939945">
  <ele>-0.101</ele>
  <time>2026-09-02T22:07:21Z</time>
  <course>186.35</course>
  <speed>0.7283543093852057</speed>
  <fix>3d</fix>
</trkpt>
<trkpt lat="33.8102004" lon="-118.3939945">
  <ele>-0.101</ele>
  <time>2026-09-02T22:07:21Z</time>
  <course>186.35</course>
  <speed>0.7283543093852057</speed>
  <fix>3d</fix>
</trkpt>
<trkpt lat="33.8102004" lon="-118.3939946">
  <ele>-0.101</ele>
  <time>2026-09-02T22:07:21Z</time>
  <course>186.35</course>
  <speed>0.7283543093852057</speed>
  <fix>3d</fix>
</trkpt>
<trkpt lat="33.8102003" lon="-118.3939946">
  <ele>-0.101</ele>
  <time>2026-09-02T22:07:21Z</time>
  <course>186.35</course>
  <speed>0.7283543093852057</speed>
  <fix>3d</fix>
</trkpt>
<trkpt lat="33.8102003" lon="-118.3939946">
  <ele>-0.101</ele>
  <time>2026-09-02T22:07:21Z</time>
  <course>186.35</course>
  <speed>0.7283543093852057</speed>
  <fix>3d</fix>
</trkpt>
<trkpt lat="33.8102007" lon="-118.3939937">
  <ele>-0.1</ele>
  <time>2026-09-02T22:07:21Z</time>
  <course>223.26</course>
  <speed>0.73</speed>
  <fix>3d</fix>
</trkpt>
<trkpt lat="33.8102003" lon="-118.3939947">
  <ele>-0.101</ele>
  <time>2026-09-02T22:07:21Z</time>
  <course>186.35</course>
  <speed>0.7283543093852057</speed>
  <fix>3d</fix>
</trkpt>
<trkpt lat="33.8102002" lon="-118.3939948">
  <ele>-0.101</ele>
  <time>2026-09-02T22:07:21Z</time>
  <course>186.35</course>
  <speed>0.7283543093852057</speed>
  <fix>3d</fix>
</trkpt>
<trkpt lat="33.8102002" lon="-118.3939948">
  <ele>-0.101</ele>
  <time>2026-09-02T22:07:21Z</time>
  <course>186.35</course>
  <speed>0.7283543093852057</speed>
  <fix>3d</fix>
</trkpt>
<trkpt lat="33.8102002" lon="-118.3939948">
  <ele>-0.102</ele>
  <time>2026-09-02T22:07:21Z</time>
  <course>186.35</course>
  <speed>0.7283543093852057</speed>
  <fix>3d</fix>
</trkpt>
<trkpt lat="33.8102001" lon="-118.3939949">
  <ele>-0.102</ele>
  <time>2026-09-02T22:07:21Z</time>
  <course>186.35</course>
  <speed>0.7283543093852057</speed>
  <fix>3d</fix>
</trkpt>
<trkpt lat="33.8102001" lon="-118.3939949">
  <ele>-0.102</ele>
  <time>2026-09-02T22:07:21Z</time>
  <course>186.35</course>
  <speed>0.7283543093852057</speed>
  <fix>3d</fix>
</trkpt>
<trkpt lat="33.8102" lon="-118.393995">
  <ele>-0.102</ele>
  <time>2026-09-02T22:07:21Z</time>
  <course>186.35</course>
  <speed>0.7283543093852057</speed>
  <fix>3d</fix>
</trkpt>
<trkpt lat="33.8102" lon="-118.393995">
  <ele>-0.102</ele>
  <time>2026-09-02T22:07:21Z</time>
  <course>186.35</course>
  <speed>0.7283543093852057</speed>
  <fix>3d</fix>
</trkpt>
<trkpt lat="33.8101999" lon="-118.3939951">
  <ele>-0.102</ele>
  <time>2026-09-02T22:07:21Z</time>
  <course>186.35</course>
  <speed>0.7283543093852057</speed>
  <fix>3d</fix>
</trkpt>
<trkpt lat="33.8101999" lon="-118.3939951">
  <ele>-0.103</ele>
  <time>2026-09-02T22:07:21Z</time>
  <course>186.35</course>
  <speed>0.7283543093852057</speed>
  <fix>3d</fix>
</trkpt>
<trkpt lat="33.8101999" lon="-118.3939952">
  <ele>-0.103</ele>
  <time>2026-09-02T22:07:21Z</time>
  <course>186.35</course>
  <speed>0.7283543093852057</speed>
  <fix>3d</fix>
</trkpt>
<trkpt lat="33.8101999" lon="-118.3939952">
  <ele>-0.103</ele>
  <time>2026-09-02T22:07:21Z</time>
  <course>186.35</course>
  <speed>0.7283543093852057</speed>
  <fix>3d</fix>
</trkpt>
<trkpt lat="33.8102007" lon="-118.3939937">
  <ele>-0.1</ele>
  <time>2026-09-02T22:07:21Z</time>
  <course>223.26</course>
  <speed>0.73</speed>
  <fix>3d</fix>
</trkpt>
<trkpt lat="33.8101998" lon="-118.3939952">
  <ele>-0.103</ele>
  <time>2026-09-02T22:07:21Z</time>
  <course>186.35</course>
  <speed>0.7283543093852057</speed>
  <fix>3d</fix>
</trkpt>
<trkpt lat="33.8101997" lon="-118.3939953">
  <ele>-0.103</ele>
  <time>2026-09-02T22:07:21Z</time>
  <course>186.35</course>
  <speed>0.7283543093852057</speed>
  <fix>3d</fix>
</trkpt>
<trkpt lat="33.8101997" lon="-118.3939954">
  <ele>-0.103</ele>
  <time>2026-09-02T22:07:21Z</time>
  <course>186.35</course>
  <speed>0.7283543093852057</speed>
  <fix>3d</fix>
</trkpt>
<trkpt lat="33.8101997" lon="-118.3939954">
  <ele>-0.103</ele>
  <time>2026-09-02T22:07:21Z</time>
  <course>186.35</course>
  <speed>0.7283543093852057</speed>
  <fix>3d</fix>
</trkpt>
<trkpt lat="33.8101996" lon="-118.3939955">
  <ele>-0.104</ele>
  <time>2026-09-02T22:07:21Z</time>
  <course>186.35</course>
  <speed>0.7283543093852057</speed>
  <fix>3d</fix>
</trkpt>
<trkpt lat="33.8101996" lon="-118.3939955">
  <ele>-0.104</ele>
  <time>2026-09-02T22:07:21Z</time>
  <course>186.34</course>
  <speed>0.7283543093852057</speed>
  <fix>3d</fix>
</trkpt>
<trkpt lat="33.8101995" lon="-118.3939956">
  <ele>-0.104</ele>
  <time>2026-09-02T22:07:21Z</time>
  <course>186.34</course>
  <speed>0.7283543093852057</speed>
  <fix>3d</fix>
</trkpt>
<trkpt lat="33.8101995" lon="-118.3939956">
  <ele>-0.104</ele>
  <time>2026-09-02T22:07:21Z</time>
  <course>186.34</course>
  <speed>0.7283543093852057</speed>
  <fix>3d</fix>
</trkpt>
<trkpt lat="33.8101994" lon="-118.3939957">
  <ele>-0.104</ele>
  <time>2026-09-02T22:07:21Z</time>
  <course>186.34</course>
  <speed>0.7283543093852057</speed>
  <fix>3d</fix>
</trkpt>
<trkpt lat="33.8101994" lon="-118.3939957">
  <ele>-0.104</ele>
  <time>2026-09-02T22:07:21Z</time>
  <course>186.34</course>
  <speed>0.7283543093852057</speed>
  <fix>3d</fix>
</trkpt>
<trkpt lat="33.8101994" lon="-118.3939957">
  <ele>-0.104</ele>
  <time>2026-09-02T22:07:21Z</time>
  <course>186.34</course>
  <speed>0.7283543093852057</speed>
  <fix>3d</fix>
</trkpt>
<trkpt lat="33.8101998" lon="-118.3939947">
  <ele>-0.1</ele>
  <time>2026-09-02T22:07:21Z</time>
  <course>223.26</course>
  <speed>0.73</speed>
  <fix>3d</fix>
</trkpt>
<trkpt lat="33.8101994" lon="-118.3939957">
  <ele>-0.104</ele>
  <time>2026-09-02T22:07:21Z</time>
  <course>186.34</course>
  <speed>0.7283543093852057</speed>
  <fix>3d</fix>
</trkpt>
<trkpt lat="33.8101993" lon="-118.3939958">
  <ele>-0.105</ele>
  <time>2026-09-02T22:07:21Z</time>
  <course>186.34</course>
  <speed>0.7283543093852057</speed>
  <fix>3d</fix>
</trkpt>
<trkpt lat="33.8101992" lon="-118.3939959">
  <ele>-0.105</ele>
  <time>2026-09-02T22:07:21Z</time>
  <course>186.34</course>
  <speed>0.7283543093852057</speed>
  <fix>3d</fix>
</trkpt>
<trkpt lat="33.8101992" lon="-118.3939959">
  <ele>-0.105</ele>
  <time>2026-09-02T22:07:21Z</time>
  <course>186.34</course>
  <speed>0.7283543093852057</speed>
  <fix>3d</fix>
</trkpt>
<trkpt lat="33.8101992" lon="-118.393996">
  <ele>-0.105</ele>
  <time>2026-09-02T22:07:21Z</time>
  <course>186.34</course>
  <speed>0.7283543093852057</speed>
  <fix>3d</fix>
</trkpt>
<trkpt lat="33.8101991" lon="-118.393996">
  <ele>-0.105</ele>
  <time>2026-09-02T22:07:21Z</time>
  <course>186.34</course>
  <speed>0.7283543093852057</speed>
  <fix>3d</fix>
</trkpt>
<trkpt lat="33.8101991" lon="-118.393996">
  <ele>-0.105</ele>
  <time>2026-09-02T22:07:21Z</time>
  <course>186.34</course>
  <speed>0.7283543093852057</speed>
  <fix>3d</fix>
</trkpt>
<trkpt lat="33.810199" lon="-118.3939961">
  <ele>-0.105</ele>
  <time>2026-09-02T22:07:21Z</time>
  <course>186.34</course>
  <speed>0.7283543093852057</speed>
  <fix>3d</fix>
</trkpt>
<trkpt lat="33.810199" lon="-118.3939961">
  <ele>-0.105</ele>
  <time>2026-09-02T22:07:21Z</time>
  <course>186.34</course>
  <speed>0.7283543093852057</speed>
  <fix>3d</fix>
</trkpt>
<trkpt lat="33.810199" lon="-118.3939962">
  <ele>-0.105</ele>
  <time>2026-09-02T22:07:21Z</time>
  <course>186.34</course>
  <speed>0.7283543093852057</speed>
  <fix>3d</fix>
</trkpt>
<trkpt lat="33.8101989" lon="-118.3939962">
  <ele>-0.105</ele>
  <time>2026-09-02T22:07:21Z</time>
  <course>186.34</course>
  <speed>0.7283543093852057</speed>
  <fix>3d</fix>
</trkpt>
<trkpt lat="33.8101989" lon="-118.3939963">
  <ele>-0.105</ele>
  <time>2026-09-02T22:07:21Z</time>
  <course>186.34</course>
  <speed>0.7283543093852057</speed>
  <fix>3d</fix>
</trkpt>
<trkpt lat="33.8101998" lon="-118.3939947">
  <ele>-0.1</ele>
  <time>2026-09-02T22:07:21Z</time>
  <course>223.26</course>
  <speed>0.73</speed>
  <fix>3d</fix>
</trkpt>
<trkpt lat="33.8101989" lon="-118.3939963">
  <ele>-0.105</ele>
  <time>2026-09-02T22:07:21Z</time>
  <course>186.34</course>
  <speed>0.7283543093852057</speed>
  <fix>3d</fix>
</trkpt>
<trkpt lat="33.8101988" lon="-118.3939963">
  <ele>-0.105</ele>
  <time>2026-09-02T22:07:21Z</time>
  <course>186.34</course>
  <speed>0.7283543093852057</speed>
  <fix>3d</fix>
</trkpt>
<trkpt lat="33.8101988" lon="-118.3939964">
  <ele>-0.105</ele>
  <time>2026-09-02T22:07:21Z</time>
  <course>186.34</course>
  <speed>0.7283543093852057</speed>
  <fix>3d</fix>
</trkpt>
<trkpt lat="33.8101987" lon="-118.3939965">
  <ele>-0.105</ele>
  <time>2026-09-02T22:07:21Z</time>
  <course>186.34</course>
  <speed>0.7283543093852057</speed>
  <fix>3d</fix>
</trkpt>
<trkpt lat="33.8101987" lon="-118.3939965">
  <ele>-0.105</ele>
  <time>2026-09-02T22:07:21Z</time>
  <course>186.34</course>
  <speed>0.7283543093852057</speed>
  <fix>3d</fix>
</trkpt>
<trkpt lat="33.8101986" lon="-118.3939965">
  <ele>-0.105</ele>
  <time>2026-09-02T22:07:21Z</time>
  <course>186.34</course>
  <speed>0.7283543093852057</speed>
  <fix>3d</fix>
</trkpt>
<trkpt lat="33.8101986" lon="-118.3939966">
  <ele>-0.105</ele>
  <time>2026-09-02T22:07:21Z</time>
  <course>186.34</course>
  <speed>0.7283543093852057</speed>
  <fix>3d</fix>
</trkpt>
<trkpt lat="33.8101985" lon="-118.3939967">
  <ele>-0.105</ele>
  <time>2026-09-02T22:07:21Z</time>
  <course>186.34</course>
  <speed>0.7283543093852057</speed>
  <fix>3d</fix>
</trkpt>
<trkpt lat="33.8101985" lon="-118.3939967">
  <ele>-0.105</ele>
  <time>2026-09-02T22:07:21Z</time>
  <course>186.34</course>
  <speed>0.7283543093852057</speed>
  <fix>3d</fix>
</trkpt>
<trkpt lat="33.8101984" lon="-118.3939968">
  <ele>-0.106</ele>
  <time>2026-09-02T22:07:21Z</time>
  <course>186.34</course>
  <speed>0.7283543093852057</speed>
  <fix>3d</fix>
</trkpt>
<trkpt lat="33.8101984" lon="-118.3939968">
  <ele>-0.105</ele>
  <time>2026-09-02T22:07:21Z</time>
  <course>186.34</course>
  <speed>0.7283543093852057</speed>
  <fix>3d</fix>
</trkpt>
<trkpt lat="33.8101989" lon="-118.3939958">
  <ele>-0.1</ele>
  <time>2026-09-02T22:07:21Z</time>
  <course>223.26</course>
  <speed>0.73</speed>
  <fix>3d</fix>
</trkpt>
<trkpt lat="33.8101984" lon="-118.3939968">
  <ele>-0.106</ele>
  <time>2026-09-02T22:07:21Z</time>
  <course>186.34</course>
  <speed>0.7283543093852057</speed>
  <fix>3d</fix>
</trkpt>
<trkpt lat="33.8101983" lon="-118.3939969">
  <ele>-0.106</ele>
  <time>2026-09-02T22:07:21Z</time>
  <course>186.34</course>
  <speed>0.7283543093852057</speed>
  <fix>3d</fix>
</trkpt>
<trkpt lat="33.8101983" lon="-118.393997">
  <ele>-0.106</ele>
  <time>2026-09-02T22:07:21Z</time>
  <course>186.34</course>
  <speed>0.7283543093852057</speed>
  <fix>3d</fix>
</trkpt>
<trkpt lat="33.8101982" lon="-118.393997">
  <ele>-0.106</ele>
  <time>2026-09-02T22:07:21Z</time>
  <course>186.34</course>
  <speed>0.7283543093852057</speed>
  <fix>3d</fix>
</trkpt>
<trkpt lat="33.8101982" lon="-118.393997">
  <ele>-0.106</ele>
  <time>2026-09-02T22:07:21Z</time>
  <course>186.34</course>
  <speed>0.7283543093852057</speed>
  <fix>3d</fix>
</trkpt>
<trkpt lat="33.8101982" lon="-118.3939971">
  <ele>-0.106</ele>
  <time>2026-09-02T22:07:21Z</time>
  <course>186.34</course>
  <speed>0.7283543093852057</speed>
  <fix>3d</fix>
</trkpt>
<trkpt lat="33.8101981" lon="-118.3939971">
  <ele>-0.106</ele>
  <time>2026-09-02T22:07:21Z</time>
  <course>186.34</course>
  <speed>0.7283543093852057</speed>
  <fix>3d</fix>
</trkpt>
<trkpt lat="33.8101981" lon="-118.3939972">
  <ele>-0.106</ele>
  <time>2026-09-02T22:07:21Z</time>
  <course>186.34</course>
  <speed>0.7283543093852057</speed>
  <fix>3d</fix>
</trkpt>
<trkpt lat="33.810198" lon="-118.3939972">
  <ele>-0.106</ele>
  <time>2026-09-02T22:07:21Z</time>
  <course>186.34</course>
  <speed>0.7283543093852057</speed>
  <fix>3d</fix>
</trkpt>
<trkpt lat="33.810198" lon="-118.3939973">
  <ele>-0.106</ele>
  <time>2026-09-02T22:07:21Z</time>
  <course>186.34</course>
  <speed>0.7283543093852057</speed>
  <fix>3d</fix>
</trkpt>
<trkpt lat="33.810198" lon="-118.3939973">
  <ele>-0.106</ele>
  <time>2026-09-02T22:07:21Z</time>
  <course>186.34</course>
  <speed>0.7283543093852057</speed>
  <fix>3d</fix>
</trkpt>
<trkpt lat="33.8101979" lon="-118.3939973">
  <ele>-0.106</ele>
  <time>2026-09-02T22:07:21Z</time>
  <course>186.34</course>
  <speed>0.7283543093852057</speed>
  <fix>3d</fix>
</trkpt>
<trkpt lat="33.8101989" lon="-118.3939958">
  <ele>-0.1</ele>
  <time>2026-09-02T22:07:21Z</time>
  <course>223.26</course>
  <speed>0.73</speed>
  <fix>3d</fix>
</trkpt>
<trkpt lat="33.8101979" lon="-118.3939974">
  <ele>-0.106</ele>
  <time>2026-09-02T22:07:21Z</time>
  <course>186.34</course>
  <speed>0.7283543093852057</speed>
  <fix>3d</fix>
</trkpt>
<trkpt lat="33.8101979" lon="-118.3939974">
  <ele>-0.106</ele>
  <time>2026-09-02T22:07:21Z</time>
  <course>186.34</course>
  <speed>0.7283543093852057</speed>
  <fix>3d</fix>
</trkpt>
<trkpt lat="33.8101978" lon="-118.3939975">
  <ele>-0.106</ele>
  <time>2026-09-02T22:07:21Z</time>
  <course>186.34</course>
  <speed>0.7283543093852057</speed>
  <fix>3d</fix>
</trkpt>
<trkpt lat="33.8101977" lon="-118.3939976">
  <ele>-0.106</ele>
  <time>2026-09-02T22:07:21Z</time>
  <course>186.34</course>
  <speed>0.7283543093852057</speed>
  <fix>3d</fix>
</trkpt>
<trkpt lat="33.8101977" lon="-118.3939976">
  <ele>-0.106</ele>
  <time>2026-09-02T22:07:21Z</time>
  <course>186.34</course>
  <speed>0.7283543093852057</speed>
  <fix>3d</fix>
</trkpt>
<trkpt lat="33.8101977" lon="-118.3939976">
  <ele>-0.106</ele>
  <time>2026-09-02T22:07:21Z</time>
  <course>186.34</course>
  <speed>0.7283543093852057</speed>
  <fix>3d</fix>
</trkpt>
<trkpt lat="33.8101976" lon="-118.3939977">
  <ele>-0.105</ele>
  <time>2026-09-02T22:07:21Z</time>
  <course>186.34</course>
  <speed>0.7283543093852057</speed>
  <fix>3d</fix>
</trkpt>
<trkpt lat="33.8101976" lon="-118.3939977">
  <ele>-0.105</ele>
  <time>2026-09-02T22:07:21Z</time>
  <course>186.34</course>
  <speed>0.7283543093852057</speed>
  <fix>3d</fix>
</trkpt>
<trkpt lat="33.8101976" lon="-118.3939978">
  <ele>-0.105</ele>
  <time>2026-09-02T22:07:21Z</time>
  <course>186.34</course>
  <speed>0.7283543093852057</speed>
  <fix>3d</fix>
</trkpt>
<trkpt lat="33.8101975" lon="-118.3939978">
  <ele>-0.105</ele>
  <time>2026-09-02T22:07:21Z</time>
  <course>186.34</course>
  <speed>0.7283543093852057</speed>
  <fix>3d</fix>
</trkpt>
<trkpt lat="33.8101975" lon="-118.3939978">
  <ele>-0.105</ele>
  <time>2026-09-02T22:07:21Z</time>
  <course>186.34</course>
  <speed>0.7283543093852057</speed>
  <fix>3d</fix>
</trkpt>
<trkpt lat="33.8101974" lon="-118.3939979">
  <ele>-0.105</ele>
  <time>2026-09-02T22:07:21Z</time>
  <course>186.34</course>
  <speed>0.7283543093852057</speed>
  <fix>3d</fix>
</trkpt>
<trkpt lat="33.8101974" lon="-118.3939979">
  <ele>-0.105</ele>
  <time>2026-09-02T22:07:21Z</time>
  <course>186.34</course>
  <speed>0.7283543093852057</speed>
  <fix>3d</fix>
</trkpt>
<trkpt lat="33.8101979" lon="-118.3939969">
  <ele>-0.11</ele>
  <time>2026-09-02T22:07:21Z</time>
  <course>223.26</course>
  <speed>0.73</speed>
  <fix>3d</fix>
</trkpt>
<trkpt lat="33.8101974" lon="-118.393998">
  <ele>-0.105</ele>
  <time>2026-09-02T22:07:21Z</time>
  <course>186.34</course>
  <speed>0.7283543093852057</speed>
  <fix>3d</fix>
</trkpt>
<trkpt lat="33.8101973" lon="-118.393998">
  <ele>-0.105</ele>
  <time>2026-09-02T22:07:21Z</time>
  <course>186.34</course>
  <speed>0.7283543093852057</speed>
  <fix>3d</fix>
</trkpt>
<trkpt lat="33.8101973" lon="-118.3939981">
  <ele>-0.105</ele>
  <time>2026-09-02T22:07:21Z</time>
  <course>186.34</course>
  <speed>0.7283543093852057</speed>
  <fix>3d</fix>
</trkpt>
<trkpt lat="33.8101972" lon="-118.3939981">
  <ele>-0.105</ele>
  <time>2026-09-02T22:07:21Z</time>
  <course>186.34</course>
  <speed>0.7283543093852057</speed>
  <fix>3d</fix>
</trkpt>
<trkpt lat="33.8101972" lon="-118.3939981">
  <ele>-0.105</ele>
  <time>2026-09-02T22:07:21Z</time>
  <course>186.34</course>
  <speed>0.7283543093852057</speed>
  <fix>3d</fix>
</trkpt>
<trkpt lat="33.8101972" lon="-118.3939982">
  <ele>-0.105</ele>
  <time>2026-09-02T22:07:21Z</time>
  <course>186.34</course>
  <speed>0.7283543093852057</speed>
  <fix>3d</fix>
</trkpt>
<trkpt lat="33.8101971" lon="-118.3939982">
  <ele>-0.105</ele>
  <time>2026-09-02T22:07:21Z</time>
  <course>186.34</course>
  <speed>0.7283543093852057</speed>
  <fix>3d</fix>
</trkpt>
<trkpt lat="33.8101971" lon="-118.3939983">
  <ele>-0.105</ele>
  <time>2026-09-02T22:07:21Z</time>
  <course>186.34</course>
  <speed>0.7283543093852057</speed>
  <fix>3d</fix>
</trkpt>
<trkpt lat="33.8101971" lon="-118.3939983">
  <ele>-0.105</ele>
  <time>2026-09-02T22:07:21Z</time>
  <course>186.34</course>
  <speed>0.7283543093852057</speed>
  <fix>3d</fix>
</trkpt>
<trkpt lat="33.810197" lon="-118.3939984">
  <ele>-0.105</ele>
  <time>2026-09-02T22:07:21Z</time>
  <course>186.34</course>
  <speed>0.7283543093852057</speed>
  <fix>3d</fix>
</trkpt>
<trkpt lat="33.810197" lon="-118.3939984">
  <ele>-0.105</ele>
  <time>2026-09-02T22:07:21Z</time>
  <course>186.34</course>
  <speed>0.7283543093852057</speed>
  <fix>3d</fix>
</trkpt>
<trkpt lat="33.810197" lon="-118.3939984">
  <ele>-0.105</ele>
  <time>2026-09-02T22:07:21Z</time>
  <course>186.34</course>
  <speed>0.7283543093852057</speed>
  <fix>3d</fix>
</trkpt>
<trkpt lat="33.8101979" lon="-118.3939969">
  <ele>-0.11</ele>
  <time>2026-09-02T22:07:21Z</time>
  <course>223.26</course>
  <speed>0.73</speed>
  <fix>3d</fix>
</trkpt>
<trkpt lat="33.8101969" lon="-118.3939985">
  <ele>-0.105</ele>
  <time>2026-09-02T22:07:21Z</time>
  <course>186.34</course>
  <speed>0.7283543093852057</speed>
  <fix>3d</fix>
</trkpt>
<trkpt lat="33.8101968" lon="-118.3939986">
  <ele>-0.105</ele>
  <time>2026-09-02T22:07:21Z</time>
  <course>186.34</course>
  <speed>0.7283543093852057</speed>
  <fix>3d</fix>
</trkpt>
<trkpt lat="33.8101968" lon="-118.3939986">
  <ele>-0.105</ele>
  <time>2026-09-02T22:07:21Z</time>
  <course>186.34</course>
  <speed>0.7283543093852057</speed>
  <fix>3d</fix>
</trkpt>
<trkpt lat="33.8101968" lon="-118.3939987">
  <ele>-0.105</ele>
  <time>2026-09-02T22:07:21Z</time>
  <course>186.34</course>
  <speed>0.7283543093852057</speed>
  <fix>3d</fix>
</trkpt>
<trkpt lat="33.8101967" lon="-118.3939987">
  <ele>-0.105</ele>
  <time>2026-09-02T22:07:21Z</time>
  <course>186.34</course>
  <speed>0.7283543093852057</speed>
  <fix>3d</fix>
</trkpt>
<trkpt lat="33.8101967" lon="-118.3939987">
  <ele>-0.105</ele>
  <time>2026-09-02T22:07:21Z</time>
  <course>186.34</course>
  <speed>0.7283543093852057</speed>
  <fix>3d</fix>
</trkpt>
<trkpt lat="33.8101966" lon="-118.3939988">
  <ele>-0.105</ele>
  <time>2026-09-02T22:07:21Z</time>
  <course>186.34</course>
  <speed>0.7283543093852057</speed>
  <fix>3d</fix>
</trkpt>
<trkpt lat="33.8101966" lon="-118.3939988">
  <ele>-0.105</ele>
  <time>2026-09-02T22:07:21Z</time>
  <course>186.34</course>
  <speed>0.7283543093852057</speed>
  <fix>3d</fix>
</trkpt>
<trkpt lat="33.8101966" lon="-118.3939989">
  <ele>-0.105</ele>
  <time>2026-09-02T22:07:21Z</time>
  <course>186.34</course>
  <speed>0.7283543093852057</speed>
  <fix>3d</fix>
</trkpt>
<trkpt lat="33.8101965" lon="-118.3939989">
  <ele>-0.105</ele>
  <time>2026-09-02T22:07:21Z</time>
  <course>186.34</course>
  <speed>0.7283543093852057</speed>
  <fix>3d</fix>
</trkpt>
<trkpt lat="33.8101965" lon="-118.393999">
  <ele>-0.105</ele>
  <time>2026-09-02T22:07:21Z</time>
  <course>186.34</course>
  <speed>0.7283543093852057</speed>
  <fix>3d</fix>
</trkpt>
<trkpt lat="33.8101965" lon="-118.393999">
  <ele>-0.105</ele>
  <time>2026-09-02T22:07:21Z</time>
  <course>186.34</course>
  <speed>0.7283543093852057</speed>
  <fix>3d</fix>
</trkpt>
<trkpt lat="33.810197" lon="-118.393998">
  <ele>-0.1</ele>
  <time>2026-09-02T22:07:21Z</time>
  <course>223.26</course>
  <speed>0.73</speed>
  <fix>3d</fix>
</trkpt>
<trkpt lat="33.8101965" lon="-118.393999">
  <ele>-0.105</ele>
  <time>2026-09-02T22:07:21Z</time>
  <course>186.34</course>
  <speed>0.7283543093852057</speed>
  <fix>3d</fix>
</trkpt>
<trkpt lat="33.8101964" lon="-118.3939991">
  <ele>-0.105</ele>
  <time>2026-09-02T22:07:21Z</time>
  <course>186.34</course>
  <speed>0.7283543093852057</speed>
  <fix>3d</fix>
</trkpt>
<trkpt lat="33.8101963" lon="-118.3939991">
  <ele>-0.105</ele>
  <time>2026-09-02T22:07:21Z</time>
  <course>186.34</course>
  <speed>0.7283543093852057</speed>
  <fix>3d</fix>
</trkpt>
<trkpt lat="33.8101963" lon="-118.3939992">
  <ele>-0.105</ele>
  <time>2026-09-02T22:07:21Z</time>
  <course>186.34</course>
  <speed>0.7283543093852057</speed>
  <fix>3d</fix>
</trkpt>
<trkpt lat="33.8101963" lon="-118.3939992">
  <ele>-0.105</ele>
  <time>2026-09-02T22:07:21Z</time>
  <course>186.34</course>
  <speed>0.7283543093852057</speed>
  <fix>3d</fix>
</trkpt>
<trkpt lat="33.8101962" lon="-118.3939993">
  <ele>-0.105</ele>
  <time>2026-09-02T22:07:21Z</time>
  <course>186.34</course>
  <speed>0.7283543093852057</speed>
  <fix>3d</fix>
</trkpt>
<trkpt lat="33.8101962" lon="-118.3939993">
  <ele>-0.105</ele>
  <time>2026-09-02T22:07:21Z</time>
  <course>186.34</course>
  <speed>0.7283543093852057</speed>
  <fix>3d</fix>
</trkpt>
<trkpt lat="33.8101961" lon="-118.3939994">
  <ele>-0.105</ele>
  <time>2026-09-02T22:07:21Z</time>
  <course>186.34</course>
  <speed>0.7283543093852057</speed>
  <fix>3d</fix>
</trkpt>
<trkpt lat="33.8101961" lon="-118.3939994">
  <ele>-0.105</ele>
  <time>2026-09-02T22:07:21Z</time>
  <course>186.34</course>
  <speed>0.7283543093852057</speed>
  <fix>3d</fix>
</trkpt>
<trkpt lat="33.810196" lon="-118.3939995">
  <ele>-0.105</ele>
  <time>2026-09-02T22:07:21Z</time>
  <course>186.34</course>
  <speed>0.7283543093852057</speed>
  <fix>3d</fix>
</trkpt>
<trkpt lat="33.810196" lon="-118.3939995">
  <ele>-0.105</ele>
  <time>2026-09-02T22:07:21Z</time>
  <course>186.34</course>
  <speed>0.7283543093852057</speed>
  <fix>3d</fix>
</trkpt>
<trkpt lat="33.810196" lon="-118.3939995">
  <ele>-0.105</ele>
  <time>2026-09-02T22:07:21Z</time>
  <course>186.34</course>
  <speed>0.7283543093852057</speed>
  <fix>3d</fix>
</trkpt>
<trkpt lat="33.810197" lon="-118.393998">
  <ele>-0.1</ele>
  <time>2026-09-02T22:07:21Z</time>
  <course>223.26</course>
  <speed>0.73</speed>
  <fix>3d</fix>
</trkpt>
<trkpt lat="33.8101959" lon="-118.3939996">
  <ele>-0.105</ele>
  <time>2026-09-02T22:07:21Z</time>
  <course>186.34</course>
  <speed>0.7283543093852057</speed>
  <fix>3d</fix>
</trkpt>
<trkpt lat="33.8101959" lon="-118.3939997">
  <ele>-0.105</ele>
  <time>2026-09-02T22:07:21Z</time>
  <course>186.34</course>
  <speed>0.7283543093852057</speed>
  <fix>3d</fix>
</trkpt>
<trkpt lat="33.8101958" lon="-118.3939997">
  <ele>-0.105</ele>
  <time>2026-09-02T22:07:21Z</time>
  <course>186.34</course>
  <speed>0.7283543093852057</speed>
  <fix>3d</fix>
</trkpt>
<trkpt lat="33.8101958" lon="-118.3939998">
  <ele>-0.105</ele>
  <time>2026-09-02T22:07:21Z</time>
  <course>186.34</course>
  <speed>0.7283543093852057</speed>
  <fix>3d</fix>
</trkpt>
<trkpt lat="33.8101957" lon="-118.3939998">
  <ele>-0.105</ele>
  <time>2026-09-02T22:07:21Z</time>
  <course>186.34</course>
  <speed>0.7283543093852057</speed>
  <fix>3d</fix>
</trkpt>
<trkpt lat="33.8101957" lon="-118.3939999">
  <ele>-0.105</ele>
  <time>2026-09-02T22:07:21Z</time>
  <course>186.34</course>
  <speed>0.7283543093852057</speed>
  <fix>3d</fix>
</trkpt>
<trkpt lat="33.8101957" lon="-118.3939999">
  <ele>-0.105</ele>
  <time>2026-09-02T22:07:21Z</time>
  <course>186.34</course>
  <speed>0.7283543093852057</speed>
  <fix>3d</fix>
</trkpt>
<trkpt lat="33.8101956" lon="-118.394">
  <ele>-0.105</ele>
  <time>2026-09-02T22:07:21Z</time>
  <course>186.34</course>
  <speed>0.7283543093852057</speed>
  <fix>3d</fix>
</trkpt>
<trkpt lat="33.8101956" lon="-118.394">
  <ele>-0.105</ele>
  <time>2026-09-02T22:07:21Z</time>
  <course>186.34</course>
  <speed>0.7283543093852057</speed>
  <fix>3d</fix>
</trkpt>
<trkpt lat="33.8101955" lon="-118.394">
  <ele>-0.105</ele>
  <time>2026-09-02T22:07:21Z</time>
  <course>186.33</course>
  <speed>0.7283543093852057</speed>
  <fix>3d</fix>
</trkpt>
<trkpt lat="33.8101955" lon="-118.3940001">
  <ele>-0.105</ele>
  <time>2026-09-02T22:07:21Z</time>
  <course>186.33</course>
  <speed>0.7283543093852057</speed>
  <fix>3d</fix>
</trkpt>
<trkpt lat="33.810196" lon="-118.3939991">
  <ele>-0.1</ele>
  <time>2026-09-02T22:07:21Z</time>
  <course>223.26</course>
  <speed>0.73</speed>
  <fix>3d</fix>
</trkpt>
<trkpt lat="33.8101955" lon="-118.3940001">
  <ele>-0.105</ele>
  <time>2026-09-02T22:07:21Z</time>
  <course>186.33</course>
  <speed>0.7283543093852057</speed>
  <fix>3d</fix>
</trkpt>
<trkpt lat="33.8101954" lon="-118.3940002">
  <ele>-0.105</ele>
  <time>2026-09-02T22:07:21Z</time>
  <course>186.33</course>
  <speed>0.7283543093852057</speed>
  <fix>3d</fix>
</trkpt>
<trkpt lat="33.8101954" lon="-118.3940002">
  <ele>-0.105</ele>
  <time>2026-09-02T22:07:21Z</time>
  <course>186.33</course>
  <speed>0.7283543093852057</speed>
  <fix>3d</fix>
</trkpt>
<trkpt lat="33.8101954" lon="-118.3940002">
  <ele>-0.105</ele>
  <time>2026-09-02T22:07:21Z</time>
  <course>186.33</course>
  <speed>0.7283543093852057</speed>
  <fix>3d</fix>
</trkpt>
<trkpt lat="33.8101953" lon="-118.3940003">
  <ele>-0.105</ele>
  <time>2026-09-02T22:07:21Z</time>
  <course>186.33</course>
  <speed>0.7283543093852057</speed>
  <fix>3d</fix>
</trkpt>
<trkpt lat="33.8101953" lon="-118.3940003">
  <ele>-0.105</ele>
  <time>2026-09-02T22:07:21Z</time>
  <course>186.33</course>
  <speed>0.7283543093852057</speed>
  <fix>3d</fix>
</trkpt>
<trkpt lat="33.8101952" lon="-118.3940004">
  <ele>-0.105</ele>
  <time>2026-09-02T22:07:21Z</time>
  <course>186.33</course>
  <speed>0.7283543093852057</speed>
  <fix>3d</fix>
</trkpt>
<trkpt lat="33.8101952" lon="-118.3940004">
  <ele>-0.105</ele>
  <time>2026-09-02T22:07:21Z</time>
  <course>186.33</course>
  <speed>0.7283543093852057</speed>
  <fix>3d</fix>
</trkpt>
<trkpt lat="33.8101952" lon="-118.3940005">
  <ele>-0.106</ele>
  <time>2026-09-02T22:07:21Z</time>
  <course>186.33</course>
  <speed>0.7283543093852057</speed>
  <fix>3d</fix>
</trkpt>
<trkpt lat="33.8101951" lon="-118.3940005">
  <ele>-0.106</ele>
  <time>2026-09-02T22:07:21Z</time>
  <course>186.33</course>
  <speed>0.7283543093852057</speed>
  <fix>3d</fix>
</trkpt>
<trkpt lat="33.8101951" lon="-118.3940006">
  <ele>-0.106</ele>
  <time>2026-09-02T22:07:21Z</time>
  <course>186.33</course>
  <speed>0.7283543093852057</speed>
  <fix>3d</fix>
</trkpt>
<trkpt lat="33.8101951" lon="-118.3940006">
  <ele>-0.106</ele>
  <time>2026-09-02T22:07:21Z</time>
  <course>186.33</course>
  <speed>0.7283543093852057</speed>
  <fix>3d</fix>
</trkpt>
<trkpt lat="33.810195" lon="-118.3940006">
  <ele>-0.106</ele>
  <time>2026-09-02T22:07:21Z</time>
  <course>186.33</course>
  <speed>0.7283543093852057</speed>
  <fix>3d</fix>
</trkpt>
<trkpt lat="33.810196" lon="-118.3939991">
  <ele>-0.1</ele>
  <time>2026-09-02T22:07:21Z</time>
  <course>223.26</course>
  <speed>0.73</speed>
  <fix>3d</fix>
</trkpt>
<trkpt lat="33.810195" lon="-118.3940007">
  <ele>-0.106</ele>
  <time>2026-09-02T22:07:21Z</time>
  <course>186.33</course>
  <speed>0.7283543093852057</speed>
  <fix>3d</fix>
</trkpt>
<trkpt lat="33.8101949" lon="-118.3940007">
  <ele>-0.106</ele>
  <time>2026-09-02T22:07:21Z</time>
  <course>186.33</course>
  <speed>0.7283543093852057</speed>
  <fix>3d</fix>
</trkpt>
<trkpt lat="33.8101949" lon="-118.3940008">
  <ele>-0.106</ele>
  <time>2026-09-02T22:07:21Z</time>
  <course>186.33</course>
  <speed>0.7283543093852057</speed>
  <fix>3d</fix>
</trkpt>
<trkpt lat="33.8101948" lon="-118.3940009">
  <ele>-0.106</ele>
  <time>2026-09-02T22:07:21Z</time>
  <course>186.33</course>
  <speed>0.7283543093852057</speed>
  <fix>3d</fix>
</trkpt>
<trkpt lat="33.8101948" lon="-118.3940009">
  <ele>-0.107</ele>
  <time>2026-09-02T22:07:21Z</time>
  <course>186.33</course>
  <speed>0.7283543093852057</speed>
  <fix>3d</fix>
</trkpt>
<trkpt lat="33.8101947" lon="-118.3940009">
  <ele>-0.107</ele>
  <time>2026-09-02T22:07:21Z</time>
  <course>186.33</course>
  <speed>0.7283543093852057</speed>
  <fix>3d</fix>
</trkpt>
<trkpt lat="33.8101947" lon="-118.394001">
  <ele>-0.107</ele>
  <time>2026-09-02T22:07:21Z</time>
  <course>186.33</course>
  <speed>0.7283543093852057</speed>
  <fix>3d</fix>
</trkpt>
<trkpt lat="33.8101947" lon="-118.394001">
  <ele>-0.107</ele>
  <time>2026-09-02T22:07:21Z</time>
  <course>186.33</course>
  <speed>0.7283543093852057</speed>
  <fix>3d</fix>
</trkpt>
<trkpt lat="33.8101946" lon="-118.3940011">
  <ele>-0.107</ele>
  <time>2026-09-02T22:07:21Z</time>
  <course>186.33</course>
  <speed>0.7283543093852057</speed>
  <fix>3d</fix>
</trkpt>
<trkpt lat="33.8101946" lon="-118.3940011">
  <ele>-0.108</ele>
  <time>2026-09-02T22:07:21Z</time>
  <course>186.33</course>
  <speed>0.7283543093852057</speed>
  <fix>3d</fix>
</trkpt>
<trkpt lat="33.8101946" lon="-118.3940012">
  <ele>-0.108</ele>
  <time>2026-09-02T22:07:21Z</time>
  <course>186.33</course>
  <speed>0.7283543093852057</speed>
  <fix>3d</fix>
</trkpt>
<trkpt lat="33.810195" lon="-118.3940002">
  <ele>-0.1</ele>
  <time>2026-09-02T22:07:21Z</time>
  <course>223.26</course>
  <speed>0.73</speed>
  <fix>3d</fix>
</trkpt>
<trkpt lat="33.8101945" lon="-118.3940012">
  <ele>-0.108</ele>
  <time>2026-09-02T22:07:21Z</time>
  <course>186.33</course>
  <speed>0.7283543093852057</speed>
  <fix>3d</fix>
</trkpt>
<trkpt lat="33.8101945" lon="-118.3940012">
  <ele>-0.108</ele>
  <time>2026-09-02T22:07:21Z</time>
  <course>186.33</course>
  <speed>0.7283543093852057</speed>
  <fix>3d</fix>
</trkpt>
<trkpt lat="33.8101945" lon="-118.3940013">
  <ele>-0.108</ele>
  <time>2026-09-02T22:07:21Z</time>
  <course>186.33</course>
  <speed>0.7283543093852057</speed>
  <fix>3d</fix>
</trkpt>
<trkpt lat="33.8101944" lon="-118.3940013">
  <ele>-0.108</ele>
  <time>2026-09-02T22:07:21Z</time>
  <course>186.33</course>
  <speed>0.7283543093852057</speed>
  <fix>3d</fix>
</trkpt>
<trkpt lat="33.8101944" lon="-118.3940014">
  <ele>-0.109</ele>
  <time>2026-09-02T22:07:21Z</time>
  <course>186.33</course>
  <speed>0.7283543093852057</speed>
  <fix>3d</fix>
</trkpt>
<trkpt lat="33.8101943" lon="-118.3940014">
  <ele>-0.109</ele>
  <time>2026-09-02T22:07:21Z</time>
  <course>186.33</course>
  <speed>0.7283543093852057</speed>
  <fix>3d</fix>
</trkpt>
<trkpt lat="33.8101943" lon="-118.3940015">
  <ele>-0.109</ele>
  <time>2026-09-02T22:07:21Z</time>
  <course>186.33</course>
  <speed>0.7283543093852057</speed>
  <fix>3d</fix>
</trkpt>
<trkpt lat="33.8101942" lon="-118.3940015">
  <ele>-0.109</ele>
  <time>2026-09-02T22:07:21Z</time>
  <course>186.33</course>
  <speed>0.7283543093852057</speed>
  <fix>3d</fix>
</trkpt>
<trkpt lat="33.8101942" lon="-118.3940016">
  <ele>-0.109</ele>
  <time>2026-09-02T22:07:21Z</time>
  <course>186.33</course>
  <speed>0.7283543093852057</speed>
  <fix>3d</fix>
</trkpt>
<trkpt lat="33.8101942" lon="-118.3940016">
  <ele>-0.11</ele>
  <time>2026-09-02T22:07:21Z</time>
  <course>186.33</course>
  <speed>0.7283543093852057</speed>
  <fix>3d</fix>
</trkpt>
<trkpt lat="33.8101941" lon="-118.3940017">
  <ele>-0.11</ele>
  <time>2026-09-02T22:07:21Z</time>
  <course>186.33</course>
  <speed>0.7283543093852057</speed>
  <fix>3d</fix>
</trkpt>
<trkpt lat="33.8101941" lon="-118.3940017">
  <ele>-0.11</ele>
  <time>2026-09-02T22:07:21Z</time>
  <course>186.33</course>
  <speed>0.7283543093852057</speed>
  <fix>3d</fix>
</trkpt>
<trkpt lat="33.810195" lon="-118.3940002">
  <ele>-0.1</ele>
  <time>2026-09-02T22:07:21Z</time>
  <course>223.26</course>
  <speed>0.73</speed>
  <fix>3d</fix>
</trkpt>
<trkpt lat="33.8101941" lon="-118.3940017">
  <ele>-0.11</ele>
  <time>2026-09-02T22:07:21Z</time>
  <course>186.33</course>
  <speed>0.7283543093852057</speed>
  <fix>3d</fix>
</trkpt>
<trkpt lat="33.810194" lon="-118.3940018">
  <ele>-0.11</ele>
  <time>2026-09-02T22:07:21Z</time>
  <course>186.33</course>
  <speed>0.7283543093852057</speed>
  <fix>3d</fix>
</trkpt>
<trkpt lat="33.8101939" lon="-118.3940018">
  <ele>-0.111</ele>
  <time>2026-09-02T22:07:21Z</time>
  <course>186.33</course>
  <speed>0.7283543093852057</speed>
  <fix>3d</fix>
</trkpt>
<trkpt lat="33.8101939" lon="-118.3940019">
  <ele>-0.111</ele>
  <time>2026-09-02T22:07:21Z</time>
  <course>186.33</course>
  <speed>0.7283543093852057</speed>
  <fix>3d</fix>
</trkpt>
<trkpt lat="33.8101939" lon="-118.3940019">
  <ele>-0.111</ele>
  <time>2026-09-02T22:07:21Z</time>
  <course>186.33</course>
  <speed>0.7283543093852057</speed>
  <fix>3d</fix>
</trkpt>
<trkpt lat="33.8101938" lon="-118.394002">
  <ele>-0.111</ele>
  <time>2026-09-02T22:07:21Z</time>
  <course>186.33</course>
  <speed>0.7283543093852057</speed>
  <fix>3d</fix>
</trkpt>
<trkpt lat="33.8101938" lon="-118.394002">
  <ele>-0.111</ele>
  <time>2026-09-02T22:07:21Z</time>
  <course>186.33</course>
  <speed>0.7283543093852057</speed>
  <fix>3d</fix>
</trkpt>
<trkpt lat="33.8101937" lon="-118.3940021">
  <ele>-0.112</ele>
  <time>2026-09-02T22:07:21Z</time>
  <course>186.33</course>
  <speed>0.7283543093852057</speed>
  <fix>3d</fix>
</trkpt>
<trkpt lat="33.8101937" lon="-118.3940021">
  <ele>-0.112</ele>
  <time>2026-09-02T22:07:21Z</time>
  <course>186.33</course>
  <speed>0.7283543093852057</speed>
  <fix>3d</fix>
</trkpt>
<trkpt lat="33.8101937" lon="-118.3940022">
  <ele>-0.112</ele>
  <time>2026-09-02T22:07:21Z</time>
  <course>186.33</course>
  <speed>0.7283543093852057</speed>
  <fix>3d</fix>
</trkpt>
<trkpt lat="33.8101936" lon="-118.3940022">
  <ele>-0.112</ele>
  <time>2026-09-02T22:07:21Z</time>
  <course>186.33</course>
  <speed>0.7283543093852057</speed>
  <fix>3d</fix>
</trkpt>
<trkpt lat="33.8101936" lon="-118.3940022">
  <ele>-0.112</ele>
  <time>2026-09-02T22:07:21Z</time>
  <course>186.33</course>
  <speed>0.7283543093852057</speed>
  <fix>3d</fix>
</trkpt>
<trkpt lat="33.810194" lon="-118.3940013">
  <ele>-0.1</ele>
  <time>2026-09-02T22:07:21Z</time>
  <course>223.26</course>
  <speed>0.73</speed>
  <fix>3d</fix>
</trkpt>
<trkpt lat="33.8101936" lon="-118.3940023">
  <ele>-0.112</ele>
  <time>2026-09-02T22:07:21Z</time>
  <course>186.33</course>
  <speed>0.7283543093852057</speed>
  <fix>3d</fix>
</trkpt>
<trkpt lat="33.8101935" lon="-118.3940023">
  <ele>-0.112</ele>
  <time>2026-09-02T22:07:21Z</time>
  <course>186.33</course>
  <speed>0.7283543093852057</speed>
  <fix>3d</fix>
</trkpt>
<trkpt lat="33.8101934" lon="-118.3940024">
  <ele>-0.112</ele>
  <time>2026-09-02T22:07:21Z</time>
  <course>186.33</course>
  <speed>0.7283543093852057</speed>
  <fix>3d</fix>
</trkpt>
<trkpt lat="33.8101934" lon="-118.3940025">
  <ele>-0.113</ele>
  <time>2026-09-02T22:07:21Z</time>
  <course>186.33</course>
  <speed>0.7283543093852057</speed>
  <fix>3d</fix>
</trkpt>
<trkpt lat="33.8101934" lon="-118.3940025">
  <ele>-0.113</ele>
  <time>2026-09-02T22:07:21Z</time>
  <course>186.33</course>
  <speed>0.7283543093852057</speed>
  <fix>3d</fix>
</trkpt>
<trkpt lat="33.8101933" lon="-118.3940025">
  <ele>-0.113</ele>
  <time>2026-09-02T22:07:21Z</time>
  <course>186.33</course>
  <speed>0.7283543093852057</speed>
  <fix>3d</fix>
</trkpt>
<trkpt lat="33.8101933" lon="-118.3940026">
  <ele>-0.113</ele>
  <time>2026-09-02T22:07:21Z</time>
  <course>186.33</course>
  <speed>0.7283543093852057</speed>
  <fix>3d</fix>
</trkpt>
<trkpt lat="33.8101933" lon="-118.3940026">
  <ele>-0.113</ele>
  <time>2026-09-02T22:07:21Z</time>
  <course>186.33</course>
  <speed>0.7283543093852057</speed>
  <fix>3d</fix>
</trkpt>
<trkpt lat="33.8101932" lon="-118.3940027">
  <ele>-0.113</ele>
  <time>2026-09-02T22:07:21Z</time>
  <course>186.33</course>
  <speed>0.7283543093852057</speed>
  <fix>3d</fix>
</trkpt>
<trkpt lat="33.8101932" lon="-118.3940027">
  <ele>-0.114</ele>
  <time>2026-09-02T22:07:21Z</time>
  <course>186.33</course>
  <speed>0.7283543093852057</speed>
  <fix>3d</fix>
</trkpt>
<trkpt lat="33.8101931" lon="-118.3940028">
  <ele>-0.114</ele>
  <time>2026-09-02T22:07:21Z</time>
  <course>186.33</course>
  <speed>0.7283543093852057</speed>
  <fix>3d</fix>
</trkpt>
<trkpt lat="33.8101931" lon="-118.3940028">
  <ele>-0.114</ele>
  <time>2026-09-02T22:07:21Z</time>
  <course>186.33</course>
  <speed>0.7283543093852057</speed>
  <fix>3d</fix>
</trkpt>
<trkpt lat="33.810194" lon="-118.3940013">
  <ele>-0.1</ele>
  <time>2026-09-02T22:07:21Z</time>
  <course>223.26</course>
  <speed>0.73</speed>
  <fix>3d</fix>
</trkpt>
<trkpt lat="33.8101931" lon="-118.3940028">
  <ele>-0.114</ele>
  <time>2026-09-02T22:07:21Z</time>
  <course>186.33</course>
  <speed>0.7283543093852057</speed>
  <fix>3d</fix>
</trkpt>
<trkpt lat="33.810193" lon="-118.3940029">
  <ele>-0.114</ele>
  <time>2026-09-02T22:07:21Z</time>
  <course>186.33</course>
  <speed>0.7283543093852057</speed>
  <fix>3d</fix>
</trkpt>
<trkpt lat="33.810193" lon="-118.3940029">
  <ele>-0.114</ele>
  <time>2026-09-02T22:07:21Z</time>
  <course>186.33</course>
  <speed>0.7283543093852057</speed>
  <fix>3d</fix>
</trkpt>
<trkpt lat="33.810193" lon="-118.394003">
  <ele>-0.114</ele>
  <time>2026-09-02T22:07:21Z</time>
  <course>186.33</course>
  <speed>0.7283543093852057</speed>
  <fix>3d</fix>
</trkpt>
<trkpt lat="33.8101929" lon="-118.394003">
  <ele>-0.114</ele>
  <time>2026-09-02T22:07:21Z</time>
  <course>186.33</course>
  <speed>0.7283543093852057</speed>
  <fix>3d</fix>
</trkpt>
<trkpt lat="33.8101929" lon="-118.394003">
  <ele>-0.114</ele>
  <time>2026-09-02T22:07:21Z</time>
  <course>186.33</course>
  <speed>0.7283543093852057</speed>
  <fix>3d</fix>
</trkpt>
<trkpt lat="33.8101929" lon="-118.3940031">
  <ele>-0.115</ele>
  <time>2026-09-02T22:07:21Z</time>
  <course>186.33</course>
  <speed>0.7283543093852057</speed>
  <fix>3d</fix>
</trkpt>
<trkpt lat="33.8101928" lon="-118.3940031">
  <ele>-0.115</ele>
  <time>2026-09-02T22:07:21Z</time>
  <course>186.33</course>
  <speed>0.7283543093852057</speed>
  <fix>3d</fix>
</trkpt>
<trkpt lat="33.8101928" lon="-118.3940032">
  <ele>-0.115</ele>
  <time>2026-09-02T22:07:21Z</time>
  <course>186.33</course>
  <speed>0.7283543093852057</speed>
  <fix>3d</fix>
</trkpt>
<trkpt lat="33.8101927" lon="-118.3940032">
  <ele>-0.115</ele>
  <time>2026-09-02T22:07:21Z</time>
  <course>186.33</course>
  <speed>0.7283543093852057</speed>
  <fix>3d</fix>
</trkpt>
<trkpt lat="33.8101927" lon="-118.3940033">
  <ele>-0.115</ele>
  <time>2026-09-02T22:07:21Z</time>
  <course>186.33</course>
  <speed>0.7283543093852057</speed>
  <fix>3d</fix>
</trkpt>
<trkpt lat="33.8101926" lon="-118.3940033">
  <ele>-0.115</ele>
  <time>2026-09-02T22:07:21Z</time>
  <course>186.33</course>
  <speed>0.7283543093852057</speed>
  <fix>3d</fix>
</trkpt>
<trkpt lat="33.8101926" lon="-118.3940033">
  <ele>-0.115</ele>
  <time>2026-09-02T22:07:21Z</time>
  <course>186.33</course>
  <speed>0.7283543093852057</speed>
  <fix>3d</fix>
</trkpt>
<trkpt lat="33.8101931" lon="-118.3940024">
  <ele>-0.11</ele>
  <time>2026-09-02T22:07:21Z</time>
  <course>223.26</course>
  <speed>0.73</speed>
  <fix>3d</fix>
</trkpt>
<trkpt lat="33.8101926" lon="-118.3940034">
  <ele>-0.115</ele>
  <time>2026-09-02T22:07:21Z</time>
  <course>186.33</course>
  <speed>0.7283543093852057</speed>
  <fix>3d</fix>
</trkpt>
<trkpt lat="33.8101926" lon="-118.3940034">
  <ele>-0.116</ele>
  <time>2026-09-02T22:07:21Z</time>
  <course>186.33</course>
  <speed>0.7283543093852057</speed>
  <fix>3d</fix>
</trkpt>
<trkpt lat="33.8101925" lon="-118.3940035">
  <ele>-0.116</ele>
  <time>2026-09-02T22:07:21Z</time>
  <course>186.33</course>
  <speed>0.7283543093852057</speed>
  <fix>3d</fix>
</trkpt>
<trkpt lat="33.8101925" lon="-118.3940035">
  <ele>-0.116</ele>
  <time>2026-09-02T22:07:21Z</time>
  <course>186.33</course>
  <speed>0.7283543093852057</speed>
  <fix>3d</fix>
</trkpt>
<trkpt lat="33.8101924" lon="-118.3940035">
  <ele>-0.116</ele>
  <time>2026-09-02T22:07:21Z</time>
  <course>186.33</course>
  <speed>0.7283543093852057</speed>
  <fix>3d</fix>
</trkpt>
<trkpt lat="33.8101924" lon="-118.3940036">
  <ele>-0.116</ele>
  <time>2026-09-02T22:07:21Z</time>
  <course>186.33</course>
  <speed>0.7283543093852057</speed>
  <fix>3d</fix>
</trkpt>
<trkpt lat="33.8101924" lon="-118.3940036">
  <ele>-0.116</ele>
  <time>2026-09-02T22:07:21Z</time>
  <course>186.33</course>
  <speed>0.7283543093852057</speed>
  <fix>3d</fix>
</trkpt>
<trkpt lat="33.8101923" lon="-118.3940037">
  <ele>-0.116</ele>
  <time>2026-09-02T22:07:21Z</time>
  <course>186.33</course>
  <speed>0.7283543093852057</speed>
  <fix>3d</fix>
</trkpt>
<trkpt lat="33.8101923" lon="-118.3940037">
  <ele>-0.116</ele>
  <time>2026-09-02T22:07:21Z</time>
  <course>186.33</course>
  <speed>0.7283543093852057</speed>
  <fix>3d</fix>
</trkpt>
<trkpt lat="33.8101922" lon="-118.3940038">
  <ele>-0.116</ele>
  <time>2026-09-02T22:07:21Z</time>
  <course>186.33</course>
  <speed>0.7283543093852057</speed>
  <fix>3d</fix>
</trkpt>
<trkpt lat="33.8101922" lon="-118.3940038">
  <ele>-0.116</ele>
  <time>2026-09-02T22:07:21Z</time>
  <course>186.33</course>
  <speed>0.7283543093852057</speed>
  <fix>3d</fix>
</trkpt>
<trkpt lat="33.8101922" lon="-118.3940039">
  <ele>-0.116</ele>
  <time>2026-09-02T22:07:21Z</time>
  <course>186.33</course>
  <speed>0.7283543093852057</speed>
  <fix>3d</fix>
</trkpt>
<trkpt lat="33.8101921" lon="-118.3940039">
  <ele>-0.117</ele>
  <time>2026-09-02T22:07:21Z</time>
  <course>186.33</course>
  <speed>0.7283543093852057</speed>
  <fix>3d</fix>
</trkpt>
<trkpt lat="33.8101931" lon="-118.3940024">
  <ele>-0.11</ele>
  <time>2026-09-02T22:07:21Z</time>
  <course>223.26</course>
  <speed>0.73</speed>
  <fix>3d</fix>
</trkpt>
<trkpt lat="33.8101921" lon="-118.3940039">
  <ele>-0.117</ele>
  <time>2026-09-02T22:07:21Z</time>
  <course>186.33</course>
  <speed>0.7283543093852057</speed>
  <fix>3d</fix>
</trkpt>
<trkpt lat="33.810192" lon="-118.394004">
  <ele>-0.117</ele>
  <time>2026-09-02T22:07:21Z</time>
  <course>186.33</course>
  <speed>0.7283543093852057</speed>
  <fix>3d</fix>
</trkpt>
<trkpt lat="33.810192" lon="-118.3940041">
  <ele>-0.117</ele>
  <time>2026-09-02T22:07:21Z</time>
  <course>186.33</course>
  <speed>0.7283543093852057</speed>
  <fix>3d</fix>
</trkpt>
<trkpt lat="33.810192" lon="-118.3940041">
  <ele>-0.117</ele>
  <time>2026-09-02T22:07:21Z</time>
  <course>186.33</course>
  <speed>0.7283543093852057</speed>
  <fix>3d</fix>
</trkpt>
<trkpt lat="33.8101919" lon="-118.3940041">
  <ele>-0.117</ele>
  <time>2026-09-02T22:07:21Z</time>
  <course>186.33</course>
  <speed>0.7283543093852057</speed>
  <fix>3d</fix>
</trkpt>
<trkpt lat="33.8101919" lon="-118.3940042">
  <ele>-0.117</ele>
  <time>2026-09-02T22:07:21Z</time>
  <course>186.33</course>
  <speed>0.7283543093852057</speed>
  <fix>3d</fix>
</trkpt>
<trkpt lat="33.8101918" lon="-118.3940042">
  <ele>-0.117</ele>
  <time>2026-09-02T22:07:21Z</time>
  <course>186.33</course>
  <speed>0.7283543093852057</speed>
  <fix>3d</fix>
</trkpt>
<trkpt lat="33.8101918" lon="-118.3940043">
  <ele>-0.117</ele>
  <time>2026-09-02T22:07:21Z</time>
  <course>186.33</course>
  <speed>0.7283543093852057</speed>
  <fix>3d</fix>
</trkpt>
<trkpt lat="33.8101918" lon="-118.3940043">
  <ele>-0.117</ele>
  <time>2026-09-02T22:07:21Z</time>
  <course>186.33</course>
  <speed>0.7283543093852057</speed>
  <fix>3d</fix>
</trkpt>
<trkpt lat="33.8101917" lon="-118.3940044">
  <ele>-0.117</ele>
  <time>2026-09-02T22:07:21Z</time>
  <course>186.33</course>
  <speed>0.7283543093852057</speed>
  <fix>3d</fix>
</trkpt>
<trkpt lat="33.8101917" lon="-118.3940044">
  <ele>-0.117</ele>
  <time>2026-09-02T22:07:21Z</time>
  <course>186.33</course>
  <speed>0.7283543093852057</speed>
  <fix>3d</fix>
</trkpt>
<trkpt lat="33.8101917" lon="-118.3940044">
  <ele>-0.117</ele>
  <time>2026-09-02T22:07:21Z</time>
  <course>186.33</course>
  <speed>0.7283543093852057</speed>
  <fix>3d</fix>
</trkpt>
<trkpt lat="33.8101922" lon="-118.3940035">
  <ele>-0.1</ele>
  <time>2026-09-02T22:07:21Z</time>
  <course>223.26</course>
  <speed>0.73</speed>
  <fix>3d</fix>
</trkpt>
<trkpt lat="33.8101916" lon="-118.3940044">
  <ele>-0.117</ele>
  <time>2026-09-02T22:07:21Z</time>
  <course>186.33</course>
  <speed>0.7283543093852057</speed>
  <fix>3d</fix>
</trkpt>
<trkpt lat="33.8101915" lon="-118.3940046">
  <ele>-0.118</ele>
  <time>2026-09-02T22:07:21Z</time>
  <course>186.33</course>
  <speed>0.7283543093852057</speed>
  <fix>3d</fix>
</trkpt>
<trkpt lat="33.8101915" lon="-118.3940046">
  <ele>-0.118</ele>
  <time>2026-09-02T22:07:21Z</time>
  <course>186.33</course>
  <speed>0.7283543093852057</speed>
  <fix>3d</fix>
</trkpt>
<trkpt lat="33.8101915" lon="-118.3940047">
  <ele>-0.118</ele>
  <time>2026-09-02T22:07:21Z</time>
  <course>186.33</course>
  <speed>0.7283543093852057</speed>
  <fix>3d</fix>
</trkpt>
<trkpt lat="33.8101914" lon="-118.3940047">
  <ele>-0.118</ele>
  <time>2026-09-02T22:07:21Z</time>
  <course>186.33</course>
  <speed>0.7283543093852057</speed>
  <fix>3d</fix>
</trkpt>
<trkpt lat="33.8101914" lon="-118.3940047">
  <ele>-0.118</ele>
  <time>2026-09-02T22:07:21Z</time>
  <course>186.33</course>
  <speed>0.7283543093852057</speed>
  <fix>3d</fix>
</trkpt>
<trkpt lat="33.8101914" lon="-118.3940048">
  <ele>-0.118</ele>
  <time>2026-09-02T22:07:21Z</time>
  <course>186.33</course>
  <speed>0.7283543093852057</speed>
  <fix>3d</fix>
</trkpt>
<trkpt lat="33.8101913" lon="-118.3940048">
  <ele>-0.118</ele>
  <time>2026-09-02T22:07:21Z</time>
  <course>186.33</course>
  <speed>0.7283543093852057</speed>
  <fix>3d</fix>
</trkpt>
<trkpt lat="33.8101913" lon="-118.3940049">
  <ele>-0.118</ele>
  <time>2026-09-02T22:07:21Z</time>
  <course>186.33</course>
  <speed>0.7283543093852057</speed>
  <fix>3d</fix>
</trkpt>
<trkpt lat="33.8101913" lon="-118.3940049">
  <ele>-0.118</ele>
  <time>2026-09-02T22:07:21Z</time>
  <course>186.33</course>
  <speed>0.7283543093852057</speed>
  <fix>3d</fix>
</trkpt>
<trkpt lat="33.8101912" lon="-118.3940049">
  <ele>-0.118</ele>
  <time>2026-09-02T22:07:21Z</time>
  <course>186.33</course>
  <speed>0.7283543093852057</speed>
  <fix>3d</fix>
</trkpt>
<trkpt lat="33.8101912" lon="-118.394005">
  <ele>-0.118</ele>
  <time>2026-09-02T22:07:21Z</time>
  <course>186.33</course>
  <speed>0.7283543093852057</speed>
  <fix>3d</fix>
</trkpt>
<trkpt lat="33.8101912" lon="-118.394005">
  <ele>-0.118</ele>
  <time>2026-09-02T22:07:21Z</time>
  <course>186.33</course>
  <speed>0.7283543093852057</speed>
  <fix>3d</fix>
</trkpt>
<trkpt lat="33.8101922" lon="-118.3940035">
  <ele>-0.1</ele>
  <time>2026-09-02T22:07:21Z</time>
  <course>223.26</course>
  <speed>0.73</speed>
  <fix>3d</fix>
</trkpt>
<trkpt lat="33.8101912" lon="-118.394005">
  <ele>-0.118</ele>
  <time>2026-09-02T22:07:21Z</time>
  <course>186.33</course>
  <speed>0.7283543093852057</speed>
  <fix>3d</fix>
</trkpt>
<trkpt lat="33.8101911" lon="-118.3940051">
  <ele>-0.119</ele>
  <time>2026-09-02T22:07:21Z</time>
  <course>186.33</course>
  <speed>0.7283543093852057</speed>
  <fix>3d</fix>
</trkpt>
<trkpt lat="33.8101911" lon="-118.3940051">
  <ele>-0.119</ele>
  <time>2026-09-02T22:07:21Z</time>
  <course>186.33</course>
  <speed>0.7283543093852057</speed>
  <fix>3d</fix>
</trkpt>
<trkpt lat="33.810191" lon="-118.3940052">
  <ele>-0.119</ele>
  <time>2026-09-02T22:07:21Z</time>
  <course>186.33</course>
  <speed>0.7283543093852057</speed>
  <fix>3d</fix>
</trkpt>
<trkpt lat="33.810191" lon="-118.3940052">
  <ele>-0.119</ele>
  <time>2026-09-02T22:07:21Z</time>
  <course>186.33</course>
  <speed>0.7283543093852057</speed>
  <fix>3d</fix>
</trkpt>
<trkpt lat="33.8101909" lon="-118.3940053">
  <ele>-0.119</ele>
  <time>2026-09-02T22:07:21Z</time>
  <course>186.33</course>
  <speed>0.7283543093852057</speed>
  <fix>3d</fix>
</trkpt>
<trkpt lat="33.8101909" lon="-118.3940053">
  <ele>-0.119</ele>
  <time>2026-09-02T22:07:21Z</time>
  <course>186.33</course>
  <speed>0.7283543093852057</speed>
  <fix>3d</fix>
</trkpt>
<trkpt lat="33.8101908" lon="-118.3940054">
  <ele>-0.119</ele>
  <time>2026-09-02T22:07:21Z</time>
  <course>186.33</course>
  <speed>0.7283543093852057</speed>
  <fix>3d</fix>
</trkpt>
<trkpt lat="33.8101908" lon="-118.3940054">
  <ele>-0.119</ele>
  <time>2026-09-02T22:07:21Z</time>
  <course>186.33</course>
  <speed>0.7283543093852057</speed>
  <fix>3d</fix>
</trkpt>
<trkpt lat="33.8101908" lon="-118.3940055">
  <ele>-0.119</ele>
  <time>2026-09-02T22:07:21Z</time>
  <course>186.33</course>
  <speed>0.7283543093852057</speed>
  <fix>3d</fix>
</trkpt>
<trkpt lat="33.8101907" lon="-118.3940055">
  <ele>-0.119</ele>
  <time>2026-09-02T22:07:21Z</time>
  <course>186.33</course>
  <speed>0.7283543093852057</speed>
  <fix>3d</fix>
</trkpt>
<trkpt lat="33.8101907" lon="-118.3940055">
  <ele>-0.119</ele>
  <time>2026-09-02T22:07:21Z</time>
  <course>186.32</course>
  <speed>0.7283543093852057</speed>
  <fix>3d</fix>
</trkpt>
<trkpt lat="33.8101912" lon="-118.3940045">
  <ele>-0.1</ele>
  <time>2026-09-02T22:07:21Z</time>
  <course>223.26</course>
  <speed>0.73</speed>
  <fix>3d</fix>
</trkpt>
<trkpt lat="33.8101907" lon="-118.3940055">
  <ele>-0.119</ele>
  <time>2026-09-02T22:07:21Z</time>
  <course>186.32</course>
  <speed>0.7283543093852057</speed>
  <fix>3d</fix>
</trkpt>
<trkpt lat="33.8101906" lon="-118.3940056">
  <ele>-0.119</ele>
  <time>2026-09-02T22:07:21Z</time>
  <course>186.32</course>
  <speed>0.7283543093852057</speed>
  <fix>3d</fix>
</trkpt>
<trkpt lat="33.8101906" lon="-118.3940057">
  <ele>-0.119</ele>
  <time>2026-09-02T22:07:21Z</time>
  <course>186.32</course>
  <speed>0.7283543093852057</speed>
  <fix>3d</fix>
</trkpt>
<trkpt lat="33.8101905" lon="-118.3940057">
  <ele>-0.119</ele>
  <time>2026-09-02T22:07:21Z</time>
  <course>186.32</course>
  <speed>0.7283543093852057</speed>
  <fix>3d</fix>
</trkpt>
<trkpt lat="33.8101905" lon="-118.3940058">
  <ele>-0.119</ele>
  <time>2026-09-02T22:07:21Z</time>
  <course>186.33</course>
  <speed>0.7283543093852057</speed>
  <fix>3d</fix>
</trkpt>
<trkpt lat="33.8101904" lon="-118.3940058">
  <ele>-0.119</ele>
  <time>2026-09-02T22:07:21Z</time>
  <course>186.32</course>
  <speed>0.7283543093852057</speed>
  <fix>3d</fix>
</trkpt>
<trkpt lat="33.8101904" lon="-118.3940059">
  <ele>-0.119</ele>
  <time>2026-09-02T22:07:21Z</time>
  <course>186.32</course>
  <speed>0.7283543093852057</speed>
  <fix>3d</fix>
</trkpt>
<trkpt lat="33.8101903" lon="-118.3940059">
  <ele>-0.119</ele>
  <time>2026-09-02T22:07:21Z</time>
  <course>186.32</course>
  <speed>0.7283543093852057</speed>
  <fix>3d</fix>
</trkpt>
<trkpt lat="33.8101903" lon="-118.394006">
  <ele>-0.119</ele>
  <time>2026-09-02T22:07:21Z</time>
  <course>186.32</course>
  <speed>0.7283543093852057</speed>
  <fix>3d</fix>
</trkpt>
<trkpt lat="33.8101903" lon="-118.394006">
  <ele>-0.119</ele>
  <time>2026-09-02T22:07:21Z</time>
  <course>186.32</course>
  <speed>0.7283543093852057</speed>
  <fix>3d</fix>
</trkpt>
<trkpt lat="33.8101902" lon="-118.3940061">
  <ele>-0.119</ele>
  <time>2026-09-02T22:07:21Z</time>
  <course>186.32</course>
  <speed>0.7283543093852057</speed>
  <fix>3d</fix>
</trkpt>
<trkpt lat="33.8101902" lon="-118.3940061">
  <ele>-0.119</ele>
  <time>2026-09-02T22:07:21Z</time>
  <course>186.32</course>
  <speed>0.7283543093852057</speed>
  <fix>3d</fix>
</trkpt>
<trkpt lat="33.8101912" lon="-118.3940045">
  <ele>-0.1</ele>
  <time>2026-09-02T22:07:21Z</time>
  <course>223.26</course>
  <speed>0.73</speed>
  <fix>3d</fix>
</trkpt>
<trkpt lat="33.8101902" lon="-118.3940062">
  <ele>-0.119</ele>
  <time>2026-09-02T22:07:21Z</time>
  <course>186.32</course>
  <speed>0.7283543093852057</speed>
  <fix>3d</fix>
</trkpt>
<trkpt lat="33.8101901" lon="-118.3940062">
  <ele>-0.119</ele>
  <time>2026-09-02T22:07:21Z</time>
  <course>186.32</course>
  <speed>0.7283543093852057</speed>
  <fix>3d</fix>
</trkpt>
<trkpt lat="33.8101901" lon="-118.3940062">
  <ele>-0.119</ele>
  <time>2026-09-02T22:07:21Z</time>
  <course>186.32</course>
  <speed>0.7283543093852057</speed>
  <fix>3d</fix>
</trkpt>
<trkpt lat="33.81019" lon="-118.3940063">
  <ele>-0.119</ele>
  <time>2026-09-02T22:07:21Z</time>
  <course>186.32</course>
  <speed>0.7283543093852057</speed>
  <fix>3d</fix>
</trkpt>
<trkpt lat="33.81019" lon="-118.3940063">
  <ele>-0.119</ele>
  <time>2026-09-02T22:07:21Z</time>
  <course>186.32</course>
  <speed>0.7283543093852057</speed>
  <fix>3d</fix>
</trkpt>
<trkpt lat="33.8101899" lon="-118.3940064">
  <ele>-0.119</ele>
  <time>2026-09-02T22:07:21Z</time>
  <course>186.32</course>
  <speed>0.7283543093852057</speed>
  <fix>3d</fix>
</trkpt>
<trkpt lat="33.8101899" lon="-118.3940064">
  <ele>-0.119</ele>
  <time>2026-09-02T22:07:21Z</time>
  <course>186.32</course>
  <speed>0.7283543093852057</speed>
  <fix>3d</fix>
</trkpt>
<trkpt lat="33.8101899" lon="-118.3940065">
  <ele>-0.119</ele>
  <time>2026-09-02T22:07:21Z</time>
  <course>186.32</course>
  <speed>0.7283543093852057</speed>
  <fix>3d</fix>
</trkpt>
<trkpt lat="33.8101898" lon="-118.3940065">
  <ele>-0.12</ele>
  <time>2026-09-02T22:07:21Z</time>
  <course>186.32</course>
  <speed>0.7283543093852057</speed>
  <fix>3d</fix>
</trkpt>
<trkpt lat="33.8101898" lon="-118.3940065">
  <ele>-0.12</ele>
  <time>2026-09-02T22:07:21Z</time>
  <course>186.32</course>
  <speed>0.7283543093852057</speed>
  <fix>3d</fix>
</trkpt>
<trkpt lat="33.8101898" lon="-118.3940066">
  <ele>-0.12</ele>
  <time>2026-09-02T22:07:21Z</time>
  <course>186.32</course>
  <speed>0.7283543093852057</speed>
  <fix>3d</fix>
</trkpt>
<trkpt lat="33.8101897" lon="-118.3940066">
  <ele>-0.12</ele>
  <time>2026-09-02T22:07:21Z</time>
  <course>186.32</course>
  <speed>0.7283543093852057</speed>
  <fix>3d</fix>
</trkpt>
<trkpt lat="33.8101902" lon="-118.3940056">
  <ele>-0.1</ele>
  <time>2026-09-02T22:07:21Z</time>
  <course>223.26</course>
  <speed>0.73</speed>
  <fix>3d</fix>
</trkpt>
<trkpt lat="33.8101897" lon="-118.3940066">
  <ele>-0.12</ele>
  <time>2026-09-02T22:07:21Z</time>
  <course>186.32</course>
  <speed>0.7283543093852057</speed>
  <fix>3d</fix>
</trkpt>
<trkpt lat="33.8101896" lon="-118.3940067">
  <ele>-0.12</ele>
  <time>2026-09-02T22:07:21Z</time>
  <course>186.32</course>
  <speed>0.7283543093852057</speed>
  <fix>3d</fix>
</trkpt>
<trkpt lat="33.8101896" lon="-118.3940068">
  <ele>-0.12</ele>
  <time>2026-09-02T22:07:21Z</time>
  <course>186.32</course>
  <speed>0.7283543093852057</speed>
  <fix>3d</fix>
</trkpt>
<trkpt lat="33.8101895" lon="-118.3940068">
  <ele>-0.12</ele>
  <time>2026-09-02T22:07:21Z</time>
  <course>186.32</course>
  <speed>0.7283543093852057</speed>
  <fix>3d</fix>
</trkpt>
<trkpt lat="33.8101895" lon="-118.3940069">
  <ele>-0.12</ele>
  <time>2026-09-02T22:07:21Z</time>
  <course>186.32</course>
  <speed>0.7283543093852057</speed>
  <fix>3d</fix>
</trkpt>
<trkpt lat="33.8101894" lon="-118.3940069">
  <ele>-0.12</ele>
  <time>2026-09-02T22:07:21Z</time>
  <course>186.32</course>
  <speed>0.7283543093852057</speed>
  <fix>3d</fix>
</trkpt>
<trkpt lat="33.8101894" lon="-118.394007">
  <ele>-0.12</ele>
  <time>2026-09-02T22:07:21Z</time>
  <course>186.32</course>
  <speed>0.7283543093852057</speed>
  <fix>3d</fix>
</trkpt>
<trkpt lat="33.8101894" lon="-118.394007">
  <ele>-0.12</ele>
  <time>2026-09-02T22:07:21Z</time>
  <course>186.32</course>
  <speed>0.7283543093852057</speed>
  <fix>3d</fix>
</trkpt>
<trkpt lat="33.8101893" lon="-118.3940071">
  <ele>-0.12</ele>
  <time>2026-09-02T22:07:21Z</time>
  <course>186.32</course>
  <speed>0.7283543093852057</speed>
  <fix>3d</fix>
</trkpt>
<trkpt lat="33.8101893" lon="-118.3940071">
  <ele>-0.12</ele>
  <time>2026-09-02T22:07:21Z</time>
  <course>186.32</course>
  <speed>0.7283543093852057</speed>
  <fix>3d</fix>
</trkpt>
<trkpt lat="33.8101893" lon="-118.3940072">
  <ele>-0.12</ele>
  <time>2026-09-02T22:07:21Z</time>
  <course>186.32</course>
  <speed>0.7283543093852057</speed>
  <fix>3d</fix>
</trkpt>
<trkpt lat="33.8101902" lon="-118.3940056">
  <ele>-0.1</ele>
  <time>2026-09-02T22:07:21Z</time>
  <course>223.26</course>
  <speed>0.73</speed>
  <fix>3d</fix>
</trkpt>
<trkpt lat="33.8101892" lon="-118.3940072">
  <ele>-0.12</ele>
  <time>2026-09-02T22:07:21Z</time>
  <course>186.32</course>
  <speed>0.7283543093852057</speed>
  <fix>3d</fix>
</trkpt>
<trkpt lat="33.8101892" lon="-118.3940073">
  <ele>-0.121</ele>
  <time>2026-09-02T22:07:21Z</time>
  <course>186.32</course>
  <speed>0.7283543093852057</speed>
  <fix>3d</fix>
</trkpt>
<trkpt lat="33.8101891" lon="-118.3940073">
  <ele>-0.121</ele>
  <time>2026-09-02T22:07:21Z</time>
  <course>186.32</course>
  <speed>0.7283543093852057</speed>
  <fix>3d</fix>
</trkpt>
<trkpt lat="33.8101891" lon="-118.3940074">
  <ele>-0.121</ele>
  <time>2026-09-02T22:07:21Z</time>
  <course>186.32</course>
  <speed>0.7283543093852057</speed>
  <fix>3d</fix>
</trkpt>
<trkpt lat="33.810189" lon="-118.3940074">
  <ele>-0.121</ele>
  <time>2026-09-02T22:07:21Z</time>
  <course>186.32</course>
  <speed>0.7283543093852057</speed>
  <fix>3d</fix>
</trkpt>
<trkpt lat="33.810189" lon="-118.3940074">
  <ele>-0.12</ele>
  <time>2026-09-02T22:07:21Z</time>
  <course>186.32</course>
  <speed>0.7283543093852057</speed>
  <fix>3d</fix>
</trkpt>
<trkpt lat="33.810189" lon="-118.3940075">
  <ele>-0.12</ele>
  <time>2026-09-02T22:07:21Z</time>
  <course>186.32</course>
  <speed>0.7283543093852057</speed>
  <fix>3d</fix>
</trkpt>
<trkpt lat="33.8101889" lon="-118.3940075">
  <ele>-0.12</ele>
  <time>2026-09-02T22:07:21Z</time>
  <course>186.32</course>
  <speed>0.7283543093852057</speed>
  <fix>3d</fix>
</trkpt>
<trkpt lat="33.8101889" lon="-118.3940076">
  <ele>-0.12</ele>
  <time>2026-09-02T22:07:21Z</time>
  <course>186.32</course>
  <speed>0.7283543093852057</speed>
  <fix>3d</fix>
</trkpt>
<trkpt lat="33.8101888" lon="-118.3940076">
  <ele>-0.12</ele>
  <time>2026-09-02T22:07:21Z</time>
  <course>186.32</course>
  <speed>0.7283543093852057</speed>
  <fix>3d</fix>
</trkpt>
<trkpt lat="33.8101888" lon="-118.3940077">
  <ele>-0.12</ele>
  <time>2026-09-02T22:07:21Z</time>
  <course>186.32</course>
  <speed>0.7283543093852057</speed>
  <fix>3d</fix>
</trkpt>
<trkpt lat="33.8101888" lon="-118.3940077">
  <ele>-0.12</ele>
  <time>2026-09-02T22:07:21Z</time>
  <course>186.32</course>
  <speed>0.7283543093852057</speed>
  <fix>3d</fix>
</trkpt>
<trkpt lat="33.8101893" lon="-118.3940067">
  <ele>-0.1</ele>
  <time>2026-09-02T22:07:21Z</time>
  <course>223.26</course>
  <speed>0.73</speed>
  <fix>3d</fix>
</trkpt>
<trkpt lat="33.8101888" lon="-118.3940077">
  <ele>-0.12</ele>
  <time>2026-09-02T22:07:21Z</time>
  <course>186.32</course>
  <speed>0.7283543093852057</speed>
  <fix>3d</fix>
</trkpt>
<trkpt lat="33.8101887" lon="-118.3940078">
  <ele>-0.12</ele>
  <time>2026-09-02T22:07:21Z</time>
  <course>186.32</course>
  <speed>0.7283543093852057</speed>
  <fix>3d</fix>
</trkpt>
<trkpt lat="33.8101886" lon="-118.3940079">
  <ele>-0.12</ele>
  <time>2026-09-02T22:07:21Z</time>
  <course>186.32</course>
  <speed>0.7283543093852057</speed>
  <fix>3d</fix>
</trkpt>
<trkpt lat="33.8101886" lon="-118.3940079">
  <ele>-0.12</ele>
  <time>2026-09-02T22:07:21Z</time>
  <course>186.32</course>
  <speed>0.7283543093852057</speed>
  <fix>3d</fix>
</trkpt>
<trkpt lat="33.8101885" lon="-118.394008">
  <ele>-0.12</ele>
  <time>2026-09-02T22:07:21Z</time>
  <course>186.32</course>
  <speed>0.7283543093852057</speed>
  <fix>3d</fix>
</trkpt>
<trkpt lat="33.8101885" lon="-118.394008">
  <ele>-0.12</ele>
  <time>2026-09-02T22:07:21Z</time>
  <course>186.32</course>
  <speed>0.7283543093852057</speed>
  <fix>3d</fix>
</trkpt>
<trkpt lat="33.8101885" lon="-118.3940081">
  <ele>-0.12</ele>
  <time>2026-09-02T22:07:21Z</time>
  <course>186.32</course>
  <speed>0.7283543093852057</speed>
  <fix>3d</fix>
</trkpt>
<trkpt lat="33.8101884" lon="-118.3940081">
  <ele>-0.12</ele>
  <time>2026-09-02T22:07:21Z</time>
  <course>186.32</course>
  <speed>0.7283543093852057</speed>
  <fix>3d</fix>
</trkpt>
<trkpt lat="33.8101884" lon="-118.3940082">
  <ele>-0.12</ele>
  <time>2026-09-02T22:07:21Z</time>
  <course>186.32</course>
  <speed>0.7283543093852057</speed>
  <fix>3d</fix>
</trkpt>
<trkpt lat="33.8101883" lon="-118.3940082">
  <ele>-0.12</ele>
  <time>2026-09-02T22:07:21Z</time>
  <course>186.32</course>
  <speed>0.7283543093852057</speed>
  <fix>3d</fix>
</trkpt>
<trkpt lat="33.8101883" lon="-118.3940082">
  <ele>-0.12</ele>
  <time>2026-09-02T22:07:21Z</time>
  <course>186.32</course>
  <speed>0.7283543093852057</speed>
  <fix>3d</fix>
</trkpt>
<trkpt lat="33.8101893" lon="-118.3940067">
  <ele>-0.1</ele>
  <time>2026-09-02T22:07:21Z</time>
  <course>223.26</course>
  <speed>0.73</speed>
  <fix>3d</fix>
</trkpt>
<trkpt lat="33.8101883" lon="-118.3940083">
  <ele>-0.12</ele>
  <time>2026-09-02T22:07:21Z</time>
  <course>186.32</course>
  <speed>0.7283543093852057</speed>
  <fix>3d</fix>
</trkpt>
<trkpt lat="33.8101882" lon="-118.3940084">
  <ele>-0.12</ele>
  <time>2026-09-02T22:07:21Z</time>
  <course>186.32</course>
  <speed>0.7283543093852057</speed>
  <fix>3d</fix>
</trkpt>
<trkpt lat="33.8101882" lon="-118.3940084">
  <ele>-0.119</ele>
  <time>2026-09-02T22:07:21Z</time>
  <course>186.32</course>
  <speed>0.7283543093852057</speed>
  <fix>3d</fix>
</trkpt>
<trkpt lat="33.8101881" lon="-118.3940084">
  <ele>-0.119</ele>
  <time>2026-09-02T22:07:21Z</time>
  <course>186.32</course>
  <speed>0.7283543093852057</speed>
  <fix>3d</fix>
</trkpt>
<trkpt lat="33.8101881" lon="-118.3940085">
  <ele>-0.119</ele>
  <time>2026-09-02T22:07:21Z</time>
  <course>186.32</course>
  <speed>0.7283543093852057</speed>
  <fix>3d</fix>
</trkpt>
<trkpt lat="33.810188" lon="-118.3940085">
  <ele>-0.119</ele>
  <time>2026-09-02T22:07:21Z</time>
  <course>186.32</course>
  <speed>0.7283543093852057</speed>
  <fix>3d</fix>
</trkpt>
<trkpt lat="33.810188" lon="-118.3940086">
  <ele>-0.119</ele>
  <time>2026-09-02T22:07:21Z</time>
  <course>186.32</course>
  <speed>0.7283543093852057</speed>
  <fix>3d</fix>
</trkpt>
<trkpt lat="33.8101879" lon="-118.3940086">
  <ele>-0.119</ele>
  <time>2026-09-02T22:07:21Z</time>
  <course>186.32</course>
  <speed>0.7283543093852057</speed>
  <fix>3d</fix>
</trkpt>
<trkpt lat="33.8101879" lon="-118.3940087">
  <ele>-0.119</ele>
  <time>2026-09-02T22:07:21Z</time>
  <course>186.32</course>
  <speed>0.7283543093852057</speed>
  <fix>3d</fix>
</trkpt>
<trkpt lat="33.8101879" lon="-118.3940087">
  <ele>-0.119</ele>
  <time>2026-09-02T22:07:21Z</time>
  <course>186.32</course>
  <speed>0.7283543093852057</speed>
  <fix>3d</fix>
</trkpt>
<trkpt lat="33.8101878" lon="-118.3940088">
  <ele>-0.119</ele>
  <time>2026-09-02T22:07:21Z</time>
  <course>186.32</course>
  <speed>0.7283543093852057</speed>
  <fix>3d</fix>
</trkpt>
<trkpt lat="33.8101878" lon="-118.3940088">
  <ele>-0.119</ele>
  <time>2026-09-02T22:07:21Z</time>
  <course>186.32</course>
  <speed>0.7283543093852057</speed>
  <fix>3d</fix>
</trkpt>
<trkpt lat="33.8101883" lon="-118.3940078">
  <ele>-0.11</ele>
  <time>2026-09-02T22:07:21Z</time>
  <course>223.26</course>
  <speed>0.73</speed>
  <fix>3d</fix>
</trkpt>
<trkpt lat="33.8101878" lon="-118.3940088">
  <ele>-0.119</ele>
  <time>2026-09-02T22:07:21Z</time>
  <course>186.32</course>
  <speed>0.7283543093852057</speed>
  <fix>3d</fix>
</trkpt>
<trkpt lat="33.8101877" lon="-118.3940089">
  <ele>-0.119</ele>
  <time>2026-09-02T22:07:21Z</time>
  <course>186.32</course>
  <speed>0.7283543093852057</speed>
  <fix>3d</fix>
</trkpt>
<trkpt lat="33.8101877" lon="-118.3940089">
  <ele>-0.119</ele>
  <time>2026-09-02T22:07:21Z</time>
  <course>186.32</course>
  <speed>0.7283543093852057</speed>
  <fix>3d</fix>
</trkpt>
<trkpt lat="33.8101876" lon="-118.394009">
  <ele>-0.119</ele>
  <time>2026-09-02T22:07:21Z</time>
  <course>186.32</course>
  <speed>0.7283543093852057</speed>
  <fix>3d</fix>
</trkpt>
<trkpt lat="33.8101876" lon="-118.394009">
  <ele>-0.119</ele>
  <time>2026-09-02T22:07:21Z</time>
  <course>186.32</course>
  <speed>0.7283543093852057</speed>
  <fix>3d</fix>
</trkpt>
<trkpt lat="33.8101876" lon="-118.3940091">
  <ele>-0.119</ele>
  <time>2026-09-02T22:07:21Z</time>
  <course>186.32</course>
  <speed>0.7283543093852057</speed>
  <fix>3d</fix>
</trkpt>
<trkpt lat="33.8101875" lon="-118.3940091">
  <ele>-0.119</ele>
  <time>2026-09-02T22:07:21Z</time>
  <course>186.32</course>
  <speed>0.7283543093852057</speed>
  <fix>3d</fix>
</trkpt>
<trkpt lat="33.8101875" lon="-118.3940092">
  <ele>-0.119</ele>
  <time>2026-09-02T22:07:21Z</time>
  <course>186.32</course>
  <speed>0.7283543093852057</speed>
  <fix>3d</fix>
</trkpt>
<trkpt lat="33.8101874" lon="-118.3940092">
  <ele>-0.119</ele>
  <time>2026-09-02T22:07:21Z</time>
  <course>186.32</course>
  <speed>0.7283543093852057</speed>
  <fix>3d</fix>
</trkpt>
<trkpt lat="33.8101874" lon="-118.3940093">
  <ele>-0.119</ele>
  <time>2026-09-02T22:07:21Z</time>
  <course>186.32</course>
  <speed>0.7283543093852057</speed>
  <fix>3d</fix>
</trkpt>
<trkpt lat="33.8101873" lon="-118.3940093">
  <ele>-0.119</ele>
  <time>2026-09-02T22:07:21Z</time>
  <course>186.32</course>
  <speed>0.7283543093852057</speed>
  <fix>3d</fix>
</trkpt>
<trkpt lat="33.8101873" lon="-118.3940093">
  <ele>-0.119</ele>
  <time>2026-09-02T22:07:21Z</time>
  <course>186.32</course>
  <speed>0.7283543093852057</speed>
  <fix>3d</fix>
</trkpt>
<trkpt lat="33.8101883" lon="-118.3940078">
  <ele>-0.11</ele>
  <time>2026-09-02T22:07:21Z</time>
  <course>223.26</course>
  <speed>0.73</speed>
  <fix>3d</fix>
</trkpt>
<trkpt lat="33.8101873" lon="-118.3940094">
  <ele>-0.119</ele>
  <time>2026-09-02T22:07:21Z</time>
  <course>186.32</course>
  <speed>0.7283543093852057</speed>
  <fix>3d</fix>
</trkpt>
<trkpt lat="33.8101872" lon="-118.3940095">
  <ele>-0.119</ele>
  <time>2026-09-02T22:07:21Z</time>
  <course>186.32</course>
  <speed>0.7283543093852057</speed>
  <fix>3d</fix>
</trkpt>
<trkpt lat="33.8101872" lon="-118.3940095">
  <ele>-0.119</ele>
  <time>2026-09-02T22:07:21Z</time>
  <course>186.32</course>
  <speed>0.7283543093852057</speed>
  <fix>3d</fix>
</trkpt>
<trkpt lat="33.8101871" lon="-118.3940096">
  <ele>-0.118</ele>
  <time>2026-09-02T22:07:21Z</time>
  <course>186.32</course>
  <speed>0.7283543093852057</speed>
  <fix>3d</fix>
</trkpt>
<trkpt lat="33.8101871" lon="-118.3940096">
  <ele>-0.118</ele>
  <time>2026-09-02T22:07:21Z</time>
  <course>186.32</course>
  <speed>0.7283543093852057</speed>
  <fix>3d</fix>
</trkpt>
<trkpt lat="33.810187" lon="-118.3940097">
  <ele>-0.118</ele>
  <time>2026-09-02T22:07:21Z</time>
  <course>186.32</course>
  <speed>0.7283543093852057</speed>
  <fix>3d</fix>
</trkpt>
<trkpt lat="33.810187" lon="-118.3940097">
  <ele>-0.118</ele>
  <time>2026-09-02T22:07:21Z</time>
  <course>186.32</course>
  <speed>0.7283543093852057</speed>
  <fix>3d</fix>
</trkpt>
<trkpt lat="33.810187" lon="-118.3940098">
  <ele>-0.118</ele>
  <time>2026-09-02T22:07:21Z</time>
  <course>186.32</course>
  <speed>0.7283543093852057</speed>
  <fix>3d</fix>
</trkpt>
<trkpt lat="33.8101869" lon="-118.3940098">
  <ele>-0.118</ele>
  <time>2026-09-02T22:07:21Z</time>
  <course>186.32</course>
  <speed>0.7283543093852057</speed>
  <fix>3d</fix>
</trkpt>
<trkpt lat="33.8101869" lon="-118.3940099">
  <ele>-0.118</ele>
  <time>2026-09-02T22:07:21Z</time>
  <course>186.32</course>
  <speed>0.7283543093852057</speed>
  <fix>3d</fix>
</trkpt>
<trkpt lat="33.8101869" lon="-118.3940099">
  <ele>-0.118</ele>
  <time>2026-09-02T22:07:21Z</time>
  <course>186.32</course>
  <speed>0.7283543093852057</speed>
  <fix>3d</fix>
</trkpt>
<trkpt lat="33.8101873" lon="-118.3940089">
  <ele>-0.11</ele>
  <time>2026-09-02T22:07:21Z</time>
  <course>223.26</course>
  <speed>0.73</speed>
  <fix>3d</fix>
</trkpt>
<trkpt lat="33.8101868" lon="-118.3940099">
  <ele>-0.118</ele>
  <time>2026-09-02T22:07:21Z</time>
  <course>186.32</course>
  <speed>0.7283543093852057</speed>
  <fix>3d</fix>
</trkpt>
<trkpt lat="33.8101868" lon="-118.39401">
  <ele>-0.117</ele>
  <time>2026-09-02T22:07:21Z</time>
  <course>186.32</course>
  <speed>0.7283543093852057</speed>
  <fix>3d</fix>
</trkpt>
<trkpt lat="33.8101867" lon="-118.39401">
  <ele>-0.117</ele>
  <time>2026-09-02T22:07:21Z</time>
  <course>186.32</course>
  <speed>0.7283543093852057</speed>
  <fix>3d</fix>
</trkpt>
<trkpt lat="33.8101867" lon="-118.3940101">
  <ele>-0.117</ele>
  <time>2026-09-02T22:07:21Z</time>
  <course>186.32</course>
  <speed>0.7283543093852057</speed>
  <fix>3d</fix>
</trkpt>
<trkpt lat="33.8101866" lon="-118.3940101">
  <ele>-0.117</ele>
  <time>2026-09-02T22:07:21Z</time>
  <course>186.32</course>
  <speed>0.7283543093852057</speed>
  <fix>3d</fix>
</trkpt>
<trkpt lat="33.8101866" lon="-118.3940102">
  <ele>-0.117</ele>
  <time>2026-09-02T22:07:21Z</time>
  <course>186.32</course>
  <speed>0.7283543093852057</speed>
  <fix>3d</fix>
</trkpt>
<trkpt lat="33.8101865" lon="-118.3940102">
  <ele>-0.117</ele>
  <time>2026-09-02T22:07:21Z</time>
  <course>186.32</course>
  <speed>0.7283543093852057</speed>
  <fix>3d</fix>
</trkpt>
<trkpt lat="33.8101865" lon="-118.3940103">
  <ele>-0.116</ele>
  <time>2026-09-02T22:07:21Z</time>
  <course>186.32</course>
  <speed>0.7283543093852057</speed>
  <fix>3d</fix>
</trkpt>
<trkpt lat="33.8101865" lon="-118.3940103">
  <ele>-0.116</ele>
  <time>2026-09-02T22:07:21Z</time>
  <course>186.32</course>
  <speed>0.7283543093852057</speed>
  <fix>3d</fix>
</trkpt>
<trkpt lat="33.8101864" lon="-118.3940104">
  <ele>-0.116</ele>
  <time>2026-09-02T22:07:21Z</time>
  <course>186.32</course>
  <speed>0.7283543093852057</speed>
  <fix>3d</fix>
</trkpt>
<trkpt lat="33.8101864" lon="-118.3940104">
  <ele>-0.116</ele>
  <time>2026-09-02T22:07:21Z</time>
  <course>186.32</course>
  <speed>0.7283543093852057</speed>
  <fix>3d</fix>
</trkpt>
<trkpt lat="33.8101864" lon="-118.3940104">
  <ele>-0.116</ele>
  <time>2026-09-02T22:07:21Z</time>
  <course>186.32</course>
  <speed>0.7283543093852057</speed>
  <fix>3d</fix>
</trkpt>
<trkpt lat="33.8101873" lon="-118.3940089">
  <ele>-0.11</ele>
  <time>2026-09-02T22:07:21Z</time>
  <course>223.26</course>
  <speed>0.73</speed>
  <fix>3d</fix>
</trkpt>
<trkpt lat="33.8101863" lon="-118.3940105">
  <ele>-0.116</ele>
  <time>2026-09-02T22:07:21Z</time>
  <course>186.32</course>
  <speed>0.7283543093852057</speed>
  <fix>3d</fix>
</trkpt>
<trkpt lat="33.8101862" lon="-118.3940106">
  <ele>-0.116</ele>
  <time>2026-09-02T22:07:21Z</time>
  <course>186.32</course>
  <speed>0.7283543093852057</speed>
  <fix>3d</fix>
</trkpt>
<trkpt lat="33.8101862" lon="-118.3940106">
  <ele>-0.116</ele>
  <time>2026-09-02T22:07:21Z</time>
  <course>186.32</course>
  <speed>0.7283543093852057</speed>
  <fix>3d</fix>
</trkpt>
<trkpt lat="33.8101862" lon="-118.3940106">
  <ele>-0.116</ele>
  <time>2026-09-02T22:07:21Z</time>
  <course>186.32</course>
  <speed>0.7283543093852057</speed>
  <fix>3d</fix>
</trkpt>
<trkpt lat="33.8101861" lon="-118.3940107">
  <ele>-0.115</ele>
  <time>2026-09-02T22:07:21Z</time>
  <course>186.32</course>
  <speed>0.7283543093852057</speed>
  <fix>3d</fix>
</trkpt>
<trkpt lat="33.8101861" lon="-118.3940107">
  <ele>-0.115</ele>
  <time>2026-09-02T22:07:21Z</time>
  <course>186.32</course>
  <speed>0.7283543093852057</speed>
  <fix>3d</fix>
</trkpt>
<trkpt lat="33.8101861" lon="-118.3940108">
  <ele>-0.115</ele>
  <time>2026-09-02T22:07:21Z</time>
  <course>186.32</course>
  <speed>0.7283543093852057</speed>
  <fix>3d</fix>
</trkpt>
<trkpt lat="33.810186" lon="-118.3940108">
  <ele>-0.115</ele>
  <time>2026-09-02T22:07:21Z</time>
  <course>186.32</course>
  <speed>0.7283543093852057</speed>
  <fix>3d</fix>
</trkpt>
<trkpt lat="33.810186" lon="-118.3940109">
  <ele>-0.115</ele>
  <time>2026-09-02T22:07:21Z</time>
  <course>186.32</course>
  <speed>0.7283543093852057</speed>
  <fix>3d</fix>
</trkpt>
<trkpt lat="33.8101859" lon="-118.3940109">
  <ele>-0.115</ele>
  <time>2026-09-02T22:07:21Z</time>
  <course>186.32</course>
  <speed>0.7283543093852057</speed>
  <fix>3d</fix>
</trkpt>
<trkpt lat="33.8101859" lon="-118.394011">
  <ele>-0.115</ele>
  <time>2026-09-02T22:07:21Z</time>
  <course>186.32</course>
  <speed>0.7283543093852057</speed>
  <fix>3d</fix>
</trkpt>
<trkpt lat="33.8101864" lon="-118.39401">
  <ele>-0.1</ele>
  <time>2026-09-02T22:07:21Z</time>
  <course>223.26</course>
  <speed>0.73</speed>
  <fix>3d</fix>
</trkpt>
<trkpt lat="33.8101859" lon="-118.394011">
  <ele>-0.115</ele>
  <time>2026-09-02T22:07:21Z</time>
  <course>186.32</course>
  <speed>0.7283543093852057</speed>
  <fix>3d</fix>
</trkpt>
<trkpt lat="33.8101858" lon="-118.3940111">
  <ele>-0.115</ele>
  <time>2026-09-02T22:07:21Z</time>
  <course>186.32</course>
  <speed>0.7283543093852057</speed>
  <fix>3d</fix>
</trkpt>
<trkpt lat="33.8101858" lon="-118.3940111">
  <ele>-0.115</ele>
  <time>2026-09-02T22:07:21Z</time>
  <course>186.32</course>
  <speed>0.7283543093852057</speed>
  <fix>3d</fix>
</trkpt>
<trkpt lat="33.8101857" lon="-118.3940112">
  <ele>-0.115</ele>
  <time>2026-09-02T22:07:21Z</time>
  <course>186.32</course>
  <speed>0.7283543093852057</speed>
  <fix>3d</fix>
</trkpt>
<trkpt lat="33.8101857" lon="-118.3940112">
  <ele>-0.115</ele>
  <time>2026-09-02T22:07:21Z</time>
  <course>186.32</course>
  <speed>0.7283543093852057</speed>
  <fix>3d</fix>
</trkpt>
<trkpt lat="33.8101856" lon="-118.3940112">
  <ele>-0.115</ele>
  <time>2026-09-02T22:07:21Z</time>
  <course>186.32</course>
  <speed>0.7283543093852057</speed>
  <fix>3d</fix>
</trkpt>
<trkpt lat="33.8101856" lon="-118.3940113">
  <ele>-0.115</ele>
  <time>2026-09-02T22:07:21Z</time>
  <course>186.32</course>
  <speed>0.7283543093852057</speed>
  <fix>3d</fix>
</trkpt>
<trkpt lat="33.8101856" lon="-118.3940113">
  <ele>-0.115</ele>
  <time>2026-09-02T22:07:21Z</time>
  <course>186.32</course>
  <speed>0.7283543093852057</speed>
  <fix>3d</fix>
</trkpt>
<trkpt lat="33.8101855" lon="-118.3940114">
  <ele>-0.115</ele>
  <time>2026-09-02T22:07:21Z</time>
  <course>186.32</course>
  <speed>0.7283543093852057</speed>
  <fix>3d</fix>
</trkpt>
<trkpt lat="33.8101855" lon="-118.3940114">
  <ele>-0.115</ele>
  <time>2026-09-02T22:07:21Z</time>
  <course>186.32</course>
  <speed>0.7283543093852057</speed>
  <fix>3d</fix>
</trkpt>
<trkpt lat="33.8101855" lon="-118.3940115">
  <ele>-0.115</ele>
  <time>2026-09-02T22:07:21Z</time>
  <course>186.32</course>
  <speed>0.7283543093852057</speed>
  <fix>3d</fix>
</trkpt>
<trkpt lat="33.8101854" lon="-118.3940115">
  <ele>-0.115</ele>
  <time>2026-09-02T22:07:21Z</time>
  <course>186.31</course>
  <speed>0.7283543093852057</speed>
  <fix>3d</fix>
</trkpt>
<trkpt lat="33.8101864" lon="-118.39401">
  <ele>-0.1</ele>
  <time>2026-09-02T22:07:21Z</time>
  <course>223.26</course>
  <speed>0.73</speed>
  <fix>3d</fix>
</trkpt>
<trkpt lat="33.8101854" lon="-118.3940115">
  <ele>-0.115</ele>
  <time>2026-09-02T22:07:21Z</time>
  <course>186.31</course>
  <speed>0.7283543093852057</speed>
  <fix>3d</fix>
</trkpt>
<trkpt lat="33.8101853" lon="-118.3940116">
  <ele>-0.115</ele>
  <time>2026-09-02T22:07:21Z</time>
  <course>186.31</course>
  <speed>0.7283543093852057</speed>
  <fix>3d</fix>
</trkpt>
<trkpt lat="33.8101853" lon="-118.3940116">
  <ele>-0.115</ele>
  <time>2026-09-02T22:07:21Z</time>
  <course>186.31</course>
  <speed>0.7283543093852057</speed>
  <fix>3d</fix>
</trkpt>
<trkpt lat="33.8101853" lon="-118.3940117">
  <ele>-0.115</ele>
  <time>2026-09-02T22:07:21Z</time>
  <course>186.31</course>
  <speed>0.7283543093852057</speed>
  <fix>3d</fix>
</trkpt>
<trkpt lat="33.8101852" lon="-118.3940117">
  <ele>-0.115</ele>
  <time>2026-09-02T22:07:21Z</time>
  <course>186.32</course>
  <speed>0.7283543093852057</speed>
  <fix>3d</fix>
</trkpt>
<trkpt lat="33.8101852" lon="-118.3940118">
  <ele>-0.115</ele>
  <time>2026-09-02T22:07:21Z</time>
  <course>186.32</course>
  <speed>0.7283543093852057</speed>
  <fix>3d</fix>
</trkpt>
<trkpt lat="33.8101851" lon="-118.3940118">
  <ele>-0.115</ele>
  <time>2026-09-02T22:07:21Z</time>
  <course>186.31</course>
  <speed>0.7283543093852057</speed>
  <fix>3d</fix>
</trkpt>
<trkpt lat="33.8101851" lon="-118.3940119">
  <ele>-0.115</ele>
  <time>2026-09-02T22:07:21Z</time>
  <course>186.31</course>
  <speed>0.7283543093852057</speed>
  <fix>3d</fix>
</trkpt>
<trkpt lat="33.8101851" lon="-118.3940119">
  <ele>-0.115</ele>
  <time>2026-09-02T22:07:21Z</time>
  <course>186.31</course>
  <speed>0.7283543093852057</speed>
  <fix>3d</fix>
</trkpt>
<trkpt lat="33.810185" lon="-118.3940119">
  <ele>-0.115</ele>
  <time>2026-09-02T22:07:21Z</time>
  <course>186.31</course>
  <speed>0.7283543093852057</speed>
  <fix>3d</fix>
</trkpt>
<trkpt lat="33.810185" lon="-118.394012">
  <ele>-0.115</ele>
  <time>2026-09-02T22:07:21Z</time>
  <course>186.31</course>
  <speed>0.7283543093852057</speed>
  <fix>3d</fix>
</trkpt>
<trkpt lat="33.8101849" lon="-118.394012">
  <ele>-0.115</ele>
  <time>2026-09-02T22:07:21Z</time>
  <course>186.31</course>
  <speed>0.7283543093852057</speed>
  <fix>3d</fix>
</trkpt>
<trkpt lat="33.8101849" lon="-118.394012">
  <ele>-0.115</ele>
  <time>2026-09-02T22:07:21Z</time>
  <course>186.31</course>
  <speed>0.7283543093852057</speed>
  <fix>3d</fix>
</trkpt>
<trkpt lat="33.8101854" lon="-118.3940111">
  <ele>-0.1</ele>
  <time>2026-09-02T22:07:21Z</time>
  <course>223.26</course>
  <speed>0.73</speed>
  <fix>3d</fix>
</trkpt>
<trkpt lat="33.8101849" lon="-118.3940121">
  <ele>-0.115</ele>
  <time>2026-09-02T22:07:21Z</time>
  <course>186.31</course>
  <speed>0.7283543093852057</speed>
  <fix>3d</fix>
</trkpt>
<trkpt lat="33.8101848" lon="-118.3940122">
  <ele>-0.115</ele>
  <time>2026-09-02T22:07:21Z</time>
  <course>186.31</course>
  <speed>0.7283543093852057</speed>
  <fix>3d</fix>
</trkpt>
<trkpt lat="33.8101848" lon="-118.3940122">
  <ele>-0.115</ele>
  <time>2026-09-02T22:07:21Z</time>
  <course>186.31</course>
  <speed>0.7283543093852057</speed>
  <fix>3d</fix>
</trkpt>
<trkpt lat="33.8101847" lon="-118.3940123">
  <ele>-0.115</ele>
  <time>2026-09-02T22:07:21Z</time>
  <course>186.31</course>
  <speed>0.7283543093852057</speed>
  <fix>3d</fix>
</trkpt>
<trkpt lat="33.8101847" lon="-118.3940123">
  <ele>-0.115</ele>
  <time>2026-09-02T22:07:21Z</time>
  <course>186.31</course>
  <speed>0.7283543093852057</speed>
  <fix>3d</fix>
</trkpt>
<trkpt lat="33.8101846" lon="-118.3940124">
  <ele>-0.115</ele>
  <time>2026-09-02T22:07:21Z</time>
  <course>186.31</course>
  <speed>0.7283543093852057</speed>
  <fix>3d</fix>
</trkpt>
<trkpt lat="33.8101846" lon="-118.3940124">
  <ele>-0.115</ele>
  <time>2026-09-02T22:07:21Z</time>
  <course>186.31</course>
  <speed>0.7283543093852057</speed>
  <fix>3d</fix>
</trkpt>
<trkpt lat="33.8101845" lon="-118.3940125">
  <ele>-0.115</ele>
  <time>2026-09-02T22:07:21Z</time>
  <course>186.31</course>
  <speed>0.7283543093852057</speed>
  <fix>3d</fix>
</trkpt>
<trkpt lat="33.8101845" lon="-118.3940125">
  <ele>-0.115</ele>
  <time>2026-09-02T22:07:21Z</time>
  <course>186.31</course>
  <speed>0.7283543093852057</speed>
  <fix>3d</fix>
</trkpt>
<trkpt lat="33.8101845" lon="-118.3940126">
  <ele>-0.115</ele>
  <time>2026-09-02T22:07:21Z</time>
  <course>186.31</course>
  <speed>0.7283543093852057</speed>
  <fix>3d</fix>
</trkpt>
<trkpt lat="33.8101845" lon="-118.3940126">
  <ele>-0.115</ele>
  <time>2026-09-02T22:07:21Z</time>
  <course>186.31</course>
  <speed>0.7283543093852057</speed>
  <fix>3d</fix>
</trkpt>
<trkpt lat="33.8101854" lon="-118.3940111">
  <ele>-0.1</ele>
  <time>2026-09-02T22:07:21Z</time>
  <course>223.26</course>
  <speed>0.73</speed>
  <fix>3d</fix>
</trkpt>
<trkpt lat="33.8101844" lon="-118.3940126">
  <ele>-0.115</ele>
  <time>2026-09-02T22:07:21Z</time>
  <course>186.31</course>
  <speed>0.7283543093852057</speed>
  <fix>3d</fix>
</trkpt>
<trkpt lat="33.8101844" lon="-118.3940127">
  <ele>-0.115</ele>
  <time>2026-09-02T22:07:21Z</time>
  <course>186.31</course>
  <speed>0.7283543093852057</speed>
  <fix>3d</fix>
</trkpt>
<trkpt lat="33.8101843" lon="-118.3940127">
  <ele>-0.115</ele>
  <time>2026-09-02T22:07:21Z</time>
  <course>186.31</course>
  <speed>0.7283543093852057</speed>
  <fix>3d</fix>
</trkpt>
<trkpt lat="33.8101843" lon="-118.3940128">
  <ele>-0.115</ele>
  <time>2026-09-02T22:07:21Z</time>
  <course>186.31</course>
  <speed>0.7283543093852057</speed>
  <fix>3d</fix>
</trkpt>
<trkpt lat="33.8101842" lon="-118.3940128">
  <ele>-0.115</ele>
  <time>2026-09-02T22:07:21Z</time>
  <course>186.31</course>
  <speed>0.7283543093852057</speed>
  <fix>3d</fix>
</trkpt>
<trkpt lat="33.8101842" lon="-118.3940129">
  <ele>-0.115</ele>
  <time>2026-09-02T22:07:21Z</time>
  <course>186.31</course>
  <speed>0.7283543093852057</speed>
  <fix>3d</fix>
</trkpt>
<trkpt lat="33.8101842" lon="-118.3940129">
  <ele>-0.115</ele>
  <time>2026-09-02T22:07:21Z</time>
  <course>186.31</course>
  <speed>0.7283543093852057</speed>
  <fix>3d</fix>
</trkpt>
<trkpt lat="33.8101841" lon="-118.394013">
  <ele>-0.115</ele>
  <time>2026-09-02T22:07:21Z</time>
  <course>186.31</course>
  <speed>0.7283543093852057</speed>
  <fix>3d</fix>
</trkpt>
<trkpt lat="33.8101841" lon="-118.394013">
  <ele>-0.115</ele>
  <time>2026-09-02T22:07:21Z</time>
  <course>186.31</course>
  <speed>0.7283543093852057</speed>
  <fix>3d</fix>
</trkpt>
<trkpt lat="33.810184" lon="-118.3940131">
  <ele>-0.115</ele>
  <time>2026-09-02T22:07:21Z</time>
  <course>186.31</course>
  <speed>0.7283543093852057</speed>
  <fix>3d</fix>
</trkpt>
<trkpt lat="33.810184" lon="-118.3940131">
  <ele>-0.116</ele>
  <time>2026-09-02T22:07:21Z</time>
  <course>186.31</course>
  <speed>0.7283543093852057</speed>
  <fix>3d</fix>
</trkpt>
<trkpt lat="33.810184" lon="-118.3940131">
  <ele>-0.116</ele>
  <time>2026-09-02T22:07:21Z</time>
  <course>186.31</course>
  <speed>0.7283543093852057</speed>
  <fix>3d</fix>
</trkpt>
<trkpt lat="33.8101845" lon="-118.3940122">
  <ele>-0.1</ele>
  <time>2026-09-02T22:07:21Z</time>
  <course>223.26</course>
  <speed>0.73</speed>
  <fix>3d</fix>
</trkpt>
<trkpt lat="33.810184" lon="-118.3940131">
  <ele>-0.116</ele>
  <time>2026-09-02T22:07:21Z</time>
  <course>186.31</course>
  <speed>0.7283543093852057</speed>
  <fix>3d</fix>
</trkpt>
<trkpt lat="33.8101839" lon="-118.3940132">
  <ele>-0.116</ele>
  <time>2026-09-02T22:07:21Z</time>
  <course>186.31</course>
  <speed>0.7283543093852057</speed>
  <fix>3d</fix>
</trkpt>
<trkpt lat="33.8101838" lon="-118.3940133">
  <ele>-0.116</ele>
  <time>2026-09-02T22:07:21Z</time>
  <course>186.31</course>
  <speed>0.7283543093852057</speed>
  <fix>3d</fix>
</trkpt>
<trkpt lat="33.8101838" lon="-118.3940133">
  <ele>-0.116</ele>
  <time>2026-09-02T22:07:21Z</time>
  <course>186.31</course>
  <speed>0.7283543093852057</speed>
  <fix>3d</fix>
</trkpt>
<trkpt lat="33.8101838" lon="-118.3940134">
  <ele>-0.116</ele>
  <time>2026-09-02T22:07:21Z</time>
  <course>186.31</course>
  <speed>0.7283543093852057</speed>
  <fix>3d</fix>
</trkpt>
<trkpt lat="33.8101837" lon="-118.3940134">
  <ele>-0.116</ele>
  <time>2026-09-02T22:07:21Z</time>
  <course>186.31</course>
  <speed>0.7283543093852057</speed>
  <fix>3d</fix>
</trkpt>
<trkpt lat="33.8101837" lon="-118.3940135">
  <ele>-0.116</ele>
  <time>2026-09-02T22:07:21Z</time>
  <course>186.31</course>
  <speed>0.7283543093852057</speed>
  <fix>3d</fix>
</trkpt>
<trkpt lat="33.8101836" lon="-118.3940135">
  <ele>-0.116</ele>
  <time>2026-09-02T22:07:21Z</time>
  <course>186.31</course>
  <speed>0.7283543093852057</speed>
  <fix>3d</fix>
</trkpt>
<trkpt lat="33.8101836" lon="-118.3940136">
  <ele>-0.116</ele>
  <time>2026-09-02T22:07:21Z</time>
  <course>186.31</course>
  <speed>0.7283543093852057</speed>
  <fix>3d</fix>
</trkpt>
<trkpt lat="33.8101836" lon="-118.3940136">
  <ele>-0.116</ele>
  <time>2026-09-02T22:07:21Z</time>
  <course>186.31</course>
  <speed>0.7283543093852057</speed>
  <fix>3d</fix>
</trkpt>
<trkpt lat="33.8101835" lon="-118.3940137">
  <ele>-0.116</ele>
  <time>2026-09-02T22:07:21Z</time>
  <course>186.31</course>
  <speed>0.7283543093852057</speed>
  <fix>3d</fix>
</trkpt>
<trkpt lat="33.8101835" lon="-118.3940137">
  <ele>-0.116</ele>
  <time>2026-09-02T22:07:21Z</time>
  <course>186.31</course>
  <speed>0.7283543093852057</speed>
  <fix>3d</fix>
</trkpt>
<trkpt lat="33.8101845" lon="-118.3940122">
  <ele>-0.1</ele>
  <time>2026-09-02T22:07:21Z</time>
  <course>223.26</course>
  <speed>0.73</speed>
  <fix>3d</fix>
</trkpt>
<trkpt lat="33.8101835" lon="-118.3940137">
  <ele>-0.116</ele>
  <time>2026-09-02T22:07:21Z</time>
  <course>186.31</course>
  <speed>0.7283543093852057</speed>
  <fix>3d</fix>
</trkpt>
<trkpt lat="33.8101834" lon="-118.3940138">
  <ele>-0.116</ele>
  <time>2026-09-02T22:07:21Z</time>
  <course>186.31</course>
  <speed>0.7283543093852057</speed>
  <fix>3d</fix>
</trkpt>
<trkpt lat="33.8101834" lon="-118.3940138">
  <ele>-0.115</ele>
  <time>2026-09-02T22:07:21Z</time>
  <course>186.31</course>
  <speed>0.7283543093852057</speed>
  <fix>3d</fix>
</trkpt>
<trkpt lat="33.8101833" lon="-118.3940139">
  <ele>-0.115</ele>
  <time>2026-09-02T22:07:21Z</time>
  <course>186.31</course>
  <speed>0.7283543093852057</speed>
  <fix>3d</fix>
</trkpt>
<trkpt lat="33.8101833" lon="-118.3940139">
  <ele>-0.115</ele>
  <time>2026-09-02T22:07:21Z</time>
  <course>186.31</course>
  <speed>0.7283543093852057</speed>
  <fix>3d</fix>
</trkpt>
<trkpt lat="33.8101832" lon="-118.394014">
  <ele>-0.115</ele>
  <time>2026-09-02T22:07:21Z</time>
  <course>186.31</course>
  <speed>0.7283543093852057</speed>
  <fix>3d</fix>
</trkpt>
<trkpt lat="33.8101832" lon="-118.394014">
  <ele>-0.115</ele>
  <time>2026-09-02T22:07:21Z</time>
  <course>186.31</course>
  <speed>0.7283543093852057</speed>
  <fix>3d</fix>
</trkpt>
<trkpt lat="33.8101832" lon="-118.3940141">
  <ele>-0.115</ele>
  <time>2026-09-02T22:07:21Z</time>
  <course>186.31</course>
  <speed>0.7283543093852057</speed>
  <fix>3d</fix>
</trkpt>
<trkpt lat="33.8101831" lon="-118.3940141">
  <ele>-0.115</ele>
  <time>2026-09-02T22:07:21Z</time>
  <course>186.31</course>
  <speed>0.7283543093852057</speed>
  <fix>3d</fix>
</trkpt>
<trkpt lat="33.8101831" lon="-118.3940142">
  <ele>-0.115</ele>
  <time>2026-09-02T22:07:21Z</time>
  <course>186.31</course>
  <speed>0.7283543093852057</speed>
  <fix>3d</fix>
</trkpt>
<trkpt lat="33.810183" lon="-118.3940142">
  <ele>-0.115</ele>
  <time>2026-09-02T22:07:21Z</time>
  <course>186.31</course>
  <speed>0.7283543093852057</speed>
  <fix>3d</fix>
</trkpt>
<trkpt lat="33.810183" lon="-118.3940142">
  <ele>-0.115</ele>
  <time>2026-09-02T22:07:21Z</time>
  <course>186.31</course>
  <speed>0.7283543093852057</speed>
  <fix>3d</fix>
</trkpt>
<trkpt lat="33.8101834" lon="-118.3940133">
  <ele>-0.11</ele>
  <time>2026-09-02T22:07:21Z</time>
  <course>223.26</course>
  <speed>0.73</speed>
  <fix>3d</fix>
</trkpt>
<trkpt lat="33.810183" lon="-118.3940142">
  <ele>-0.115</ele>
  <time>2026-09-02T22:07:21Z</time>
  <course>186.31</course>
  <speed>0.7283543093852057</speed>
  <fix>3d</fix>
</trkpt>
<trkpt lat="33.8101829" lon="-118.3940143">
  <ele>-0.115</ele>
  <time>2026-09-02T22:07:21Z</time>
  <course>186.31</course>
  <speed>0.7283543093852057</speed>
  <fix>3d</fix>
</trkpt>
<trkpt lat="33.8101829" lon="-118.3940144">
  <ele>-0.115</ele>
  <time>2026-09-02T22:07:21Z</time>
  <course>186.31</course>
  <speed>0.7283543093852057</speed>
  <fix>3d</fix>
</trkpt>
<trkpt lat="33.8101828" lon="-118.3940144">
  <ele>-0.115</ele>
  <time>2026-09-02T22:07:21Z</time>
  <course>186.31</course>
  <speed>0.7283543093852057</speed>
  <fix>3d</fix>
</trkpt>
<trkpt lat="33.8101828" lon="-118.3940145">
  <ele>-0.115</ele>
  <time>2026-09-02T22:07:21Z</time>
  <course>186.31</course>
  <speed>0.7283543093852057</speed>
  <fix>3d</fix>
</trkpt>
<trkpt lat="33.8101828" lon="-118.3940145">
  <ele>-0.114</ele>
  <time>2026-09-02T22:07:21Z</time>
  <course>186.31</course>
  <speed>0.7283543093852057</speed>
  <fix>3d</fix>
</trkpt>
<trkpt lat="33.8101827" lon="-118.3940146">
  <ele>-0.114</ele>
  <time>2026-09-02T22:07:21Z</time>
  <course>186.31</course>
  <speed>0.7283543093852057</speed>
  <fix>3d</fix>
</trkpt>
<trkpt lat="33.8101827" lon="-118.3940146">
  <ele>-0.114</ele>
  <time>2026-09-02T22:07:21Z</time>
  <course>186.31</course>
  <speed>0.7283543093852057</speed>
  <fix>3d</fix>
</trkpt>
<trkpt lat="33.8101826" lon="-118.3940146">
  <ele>-0.114</ele>
  <time>2026-09-02T22:07:21Z</time>
  <course>186.31</course>
  <speed>0.7283543093852057</speed>
  <fix>3d</fix>
</trkpt>
<trkpt lat="33.8101826" lon="-118.3940147">
  <ele>-0.114</ele>
  <time>2026-09-02T22:07:21Z</time>
  <course>186.31</course>
  <speed>0.7283543093852057</speed>
  <fix>3d</fix>
</trkpt>
<trkpt lat="33.8101826" lon="-118.3940148">
  <ele>-0.114</ele>
  <time>2026-09-02T22:07:21Z</time>
  <course>186.31</course>
  <speed>0.7283543093852057</speed>
  <fix>3d</fix>
</trkpt>
<trkpt lat="33.8101825" lon="-118.3940148">
  <ele>-0.113</ele>
  <time>2026-09-02T22:07:21Z</time>
  <course>186.31</course>
  <speed>0.7283543093852057</speed>
  <fix>3d</fix>
</trkpt>
<trkpt lat="33.8101834" lon="-118.3940133">
  <ele>-0.11</ele>
  <time>2026-09-02T22:07:21Z</time>
  <course>223.26</course>
  <speed>0.73</speed>
  <fix>3d</fix>
</trkpt>
<trkpt lat="33.8101825" lon="-118.3940148">
  <ele>-0.113</ele>
  <time>2026-09-02T22:07:21Z</time>
  <course>186.31</course>
  <speed>0.7283543093852057</speed>
  <fix>3d</fix>
</trkpt>
<trkpt lat="33.8101824" lon="-118.3940149">
  <ele>-0.113</ele>
  <time>2026-09-02T22:07:21Z</time>
  <course>186.31</course>
  <speed>0.7283543093852057</speed>
  <fix>3d</fix>
</trkpt>
<trkpt lat="33.8101824" lon="-118.3940149">
  <ele>-0.113</ele>
  <time>2026-09-02T22:07:21Z</time>
  <course>186.31</course>
  <speed>0.7283543093852057</speed>
  <fix>3d</fix>
</trkpt>
<trkpt lat="33.8101823" lon="-118.394015">
  <ele>-0.113</ele>
  <time>2026-09-02T22:07:21Z</time>
  <course>186.31</course>
  <speed>0.7283543093852057</speed>
  <fix>3d</fix>
</trkpt>
<trkpt lat="33.8101823" lon="-118.394015">
  <ele>-0.112</ele>
  <time>2026-09-02T22:07:21Z</time>
  <course>186.31</course>
  <speed>0.7283543093852057</speed>
  <fix>3d</fix>
</trkpt>
<trkpt lat="33.8101823" lon="-118.3940151">
  <ele>-0.112</ele>
  <time>2026-09-02T22:07:21Z</time>
  <course>186.31</course>
  <speed>0.7283543093852057</speed>
  <fix>3d</fix>
</trkpt>
<trkpt lat="33.8101822" lon="-118.3940151">
  <ele>-0.112</ele>
  <time>2026-09-02T22:07:21Z</time>
  <course>186.31</course>
  <speed>0.7283543093852057</speed>
  <fix>3d</fix>
</trkpt>
<trkpt lat="33.8101822" lon="-118.3940152">
  <ele>-0.112</ele>
  <time>2026-09-02T22:07:21Z</time>
  <course>186.31</course>
  <speed>0.7283543093852057</speed>
  <fix>3d</fix>
</trkpt>
<trkpt lat="33.8101821" lon="-118.3940152">
  <ele>-0.112</ele>
  <time>2026-09-02T22:07:21Z</time>
  <course>186.31</course>
  <speed>0.7283543093852057</speed>
  <fix>3d</fix>
</trkpt>
<trkpt lat="33.8101821" lon="-118.3940153">
  <ele>-0.111</ele>
  <time>2026-09-02T22:07:21Z</time>
  <course>186.31</course>
  <speed>0.7283543093852057</speed>
  <fix>3d</fix>
</trkpt>
<trkpt lat="33.8101821" lon="-118.3940153">
  <ele>-0.111</ele>
  <time>2026-09-02T22:07:21Z</time>
  <course>186.31</course>
  <speed>0.7283543093852057</speed>
  <fix>3d</fix>
</trkpt>
<trkpt lat="33.810182" lon="-118.3940153">
  <ele>-0.111</ele>
  <time>2026-09-02T22:07:21Z</time>
  <course>186.31</course>
  <speed>0.7283543093852057</speed>
  <fix>3d</fix>
</trkpt>
<trkpt lat="33.8101825" lon="-118.3940144">
  <ele>-0.11</ele>
  <time>2026-09-02T22:07:21Z</time>
  <course>223.26</course>
  <speed>0.73</speed>
  <fix>3d</fix>
</trkpt>
<trkpt lat="33.810182" lon="-118.3940153">
  <ele>-0.111</ele>
  <time>2026-09-02T22:07:21Z</time>
  <course>186.31</course>
  <speed>0.7283543093852057</speed>
  <fix>3d</fix>
</trkpt>
<trkpt lat="33.8101819" lon="-118.3940154">
  <ele>-0.111</ele>
  <time>2026-09-02T22:07:21Z</time>
  <course>186.31</course>
  <speed>0.7283543093852057</speed>
  <fix>3d</fix>
</trkpt>
<trkpt lat="33.8101819" lon="-118.3940155">
  <ele>-0.111</ele>
  <time>2026-09-02T22:07:21Z</time>
  <course>186.31</course>
  <speed>0.7283543093852057</speed>
  <fix>3d</fix>
</trkpt>
<trkpt lat="33.8101819" lon="-118.3940155">
  <ele>-0.11</ele>
  <time>2026-09-02T22:07:21Z</time>
  <course>186.31</course>
  <speed>0.7283543093852057</speed>
  <fix>3d</fix>
</trkpt>
<trkpt lat="33.8101818" lon="-118.3940156">
  <ele>-0.11</ele>
  <time>2026-09-02T22:07:21Z</time>
  <course>186.31</course>
  <speed>0.7283543093852057</speed>
  <fix>3d</fix>
</trkpt>
<trkpt lat="33.8101818" lon="-118.3940156">
  <ele>-0.11</ele>
  <time>2026-09-02T22:07:21Z</time>
  <course>186.31</course>
  <speed>0.7283543093852057</speed>
  <fix>3d</fix>
</trkpt>
<trkpt lat="33.8101817" lon="-118.3940157">
  <ele>-0.11</ele>
  <time>2026-09-02T22:07:21Z</time>
  <course>186.31</course>
  <speed>0.7283543093852057</speed>
  <fix>3d</fix>
</trkpt>
<trkpt lat="33.8101817" lon="-118.3940157">
  <ele>-0.109</ele>
  <time>2026-09-02T22:07:21Z</time>
  <course>186.31</course>
  <speed>0.7283543093852057</speed>
  <fix>3d</fix>
</trkpt>
<trkpt lat="33.8101816" lon="-118.3940158">
  <ele>-0.109</ele>
  <time>2026-09-02T22:07:21Z</time>
  <course>186.31</course>
  <speed>0.7283543093852057</speed>
  <fix>3d</fix>
</trkpt>
<trkpt lat="33.8101816" lon="-118.3940158">
  <ele>-0.109</ele>
  <time>2026-09-02T22:07:21Z</time>
  <course>186.31</course>
  <speed>0.7283543093852057</speed>
  <fix>3d</fix>
</trkpt>
<trkpt lat="33.8101816" lon="-118.3940159">
  <ele>-0.109</ele>
  <time>2026-09-02T22:07:21Z</time>
  <course>186.31</course>
  <speed>0.7283543093852057</speed>
  <fix>3d</fix>
</trkpt>
<trkpt lat="33.8101816" lon="-118.3940159">
  <ele>-0.109</ele>
  <time>2026-09-02T22:07:21Z</time>
  <course>186.31</course>
  <speed>0.7283543093852057</speed>
  <fix>3d</fix>
</trkpt>
<trkpt lat="33.8101825" lon="-118.3940144">
  <ele>-0.11</ele>
  <time>2026-09-02T22:07:21Z</time>
  <course>223.26</course>
  <speed>0.73</speed>
  <fix>3d</fix>
</trkpt>
<trkpt lat="33.8101815" lon="-118.394016">
  <ele>-0.108</ele>
  <time>2026-09-02T22:07:21Z</time>
  <course>186.31</course>
  <speed>0.7283543093852057</speed>
  <fix>3d</fix>
</trkpt>
<trkpt lat="33.8101814" lon="-118.394016">
  <ele>-0.108</ele>
  <time>2026-09-02T22:07:21Z</time>
  <course>186.31</course>
  <speed>0.7283543093852057</speed>
  <fix>3d</fix>
</trkpt>
<trkpt lat="33.8101814" lon="-118.3940161">
  <ele>-0.108</ele>
  <time>2026-09-02T22:07:21Z</time>
  <course>186.31</course>
  <speed>0.7283543093852057</speed>
  <fix>3d</fix>
</trkpt>
<trkpt lat="33.8101813" lon="-118.3940161">
  <ele>-0.108</ele>
  <time>2026-09-02T22:07:21Z</time>
  <course>186.31</course>
  <speed>0.7283543093852057</speed>
  <fix>3d</fix>
</trkpt>
<trkpt lat="33.8101813" lon="-118.3940162">
  <ele>-0.108</ele>
  <time>2026-09-02T22:07:21Z</time>
  <course>186.31</course>
  <speed>0.7283543093852057</speed>
  <fix>3d</fix>
</trkpt>
<trkpt lat="33.8101813" lon="-118.3940162">
  <ele>-0.108</ele>
  <time>2026-09-02T22:07:21Z</time>
  <course>186.31</course>
  <speed>0.7283543093852057</speed>
  <fix>3d</fix>
</trkpt>
<trkpt lat="33.8101812" lon="-118.3940162">
  <ele>-0.108</ele>
  <time>2026-09-02T22:07:21Z</time>
  <course>186.31</course>
  <speed>0.7283543093852057</speed>
  <fix>3d</fix>
</trkpt>
<trkpt lat="33.8101812" lon="-118.3940163">
  <ele>-0.107</ele>
  <time>2026-09-02T22:07:21Z</time>
  <course>186.31</course>
  <speed>0.7283543093852057</speed>
  <fix>3d</fix>
</trkpt>
<trkpt lat="33.8101811" lon="-118.3940164">
  <ele>-0.107</ele>
  <time>2026-09-02T22:07:21Z</time>
  <course>186.31</course>
  <speed>0.7283543093852057</speed>
  <fix>3d</fix>
</trkpt>
<trkpt lat="33.8101811" lon="-118.3940164">
  <ele>-0.107</ele>
  <time>2026-09-02T22:07:21Z</time>
  <course>186.31</course>
  <speed>0.7283543093852057</speed>
  <fix>3d</fix>
</trkpt>
<trkpt lat="33.8101811" lon="-118.3940164">
  <ele>-0.107</ele>
  <time>2026-09-02T22:07:21Z</time>
  <course>186.31</course>
  <speed>0.7283543093852057</speed>
  <fix>3d</fix>
</trkpt>
<trkpt lat="33.8101816" lon="-118.3940154">
  <ele>-0.1</ele>
  <time>2026-09-02T22:07:21Z</time>
  <course>223.26</course>
  <speed>0.73</speed>
  <fix>3d</fix>
</trkpt>
<trkpt lat="33.8101811" lon="-118.3940164">
  <ele>-0.107</ele>
  <time>2026-09-02T22:07:21Z</time>
  <course>186.31</course>
  <speed>0.7283543093852057</speed>
  <fix>3d</fix>
</trkpt>
<trkpt lat="33.810181" lon="-118.3940165">
  <ele>-0.107</ele>
  <time>2026-09-02T22:07:21Z</time>
  <course>186.31</course>
  <speed>0.7283543093852057</speed>
  <fix>3d</fix>
</trkpt>
<trkpt lat="33.8101809" lon="-118.3940166">
  <ele>-0.107</ele>
  <time>2026-09-02T22:07:21Z</time>
  <course>186.31</course>
  <speed>0.7283543093852057</speed>
  <fix>3d</fix>
</trkpt>
<trkpt lat="33.8101809" lon="-118.3940166">
  <ele>-0.107</ele>
  <time>2026-09-02T22:07:21Z</time>
  <course>186.31</course>
  <speed>0.7283543093852057</speed>
  <fix>3d</fix>
</trkpt>
<trkpt lat="33.8101809" lon="-118.3940167">
  <ele>-0.107</ele>
  <time>2026-09-02T22:07:21Z</time>
  <course>186.31</course>
  <speed>0.7283543093852057</speed>
  <fix>3d</fix>
</trkpt>
<trkpt lat="33.8101808" lon="-118.3940167">
  <ele>-0.107</ele>
  <time>2026-09-02T22:07:21Z</time>
  <course>186.31</course>
  <speed>0.7283543093852057</speed>
  <fix>3d</fix>
</trkpt>
<trkpt lat="33.8101808" lon="-118.3940167">
  <ele>-0.107</ele>
  <time>2026-09-02T22:07:21Z</time>
  <course>186.31</course>
  <speed>0.7283543093852057</speed>
  <fix>3d</fix>
</trkpt>
<trkpt lat="33.8101808" lon="-118.3940168">
  <ele>-0.107</ele>
  <time>2026-09-02T22:07:21Z</time>
  <course>186.31</course>
  <speed>0.7283543093852057</speed>
  <fix>3d</fix>
</trkpt>
<trkpt lat="33.8101807" lon="-118.3940168">
  <ele>-0.108</ele>
  <time>2026-09-02T22:07:21Z</time>
  <course>186.31</course>
  <speed>0.7283543093852057</speed>
  <fix>3d</fix>
</trkpt>
<trkpt lat="33.8101807" lon="-118.3940169">
  <ele>-0.108</ele>
  <time>2026-09-02T22:07:21Z</time>
  <course>186.31</course>
  <speed>0.7283543093852057</speed>
  <fix>3d</fix>
</trkpt>
<trkpt lat="33.8101806" lon="-118.3940169">
  <ele>-0.108</ele>
  <time>2026-09-02T22:07:21Z</time>
  <course>186.31</course>
  <speed>0.7283543093852057</speed>
  <fix>3d</fix>
</trkpt>
<trkpt lat="33.8101806" lon="-118.394017">
  <ele>-0.108</ele>
  <time>2026-09-02T22:07:21Z</time>
  <course>186.31</course>
  <speed>0.7283543093852057</speed>
  <fix>3d</fix>
</trkpt>
<trkpt lat="33.8101816" lon="-118.3940154">
  <ele>-0.1</ele>
  <time>2026-09-02T22:07:21Z</time>
  <course>223.26</course>
  <speed>0.73</speed>
  <fix>3d</fix>
</trkpt>
<trkpt lat="33.8101806" lon="-118.394017">
  <ele>-0.108</ele>
  <time>2026-09-02T22:07:21Z</time>
  <course>186.31</course>
  <speed>0.7283543093852057</speed>
  <fix>3d</fix>
</trkpt>
<trkpt lat="33.8101805" lon="-118.3940171">
  <ele>-0.108</ele>
  <time>2026-09-02T22:07:21Z</time>
  <course>186.31</course>
  <speed>0.7283543093852057</speed>
  <fix>3d</fix>
</trkpt>
<trkpt lat="33.8101805" lon="-118.3940171">
  <ele>-0.108</ele>
  <time>2026-09-02T22:07:21Z</time>
  <course>186.31</course>
  <speed>0.7283543093852057</speed>
  <fix>3d</fix>
</trkpt>
<trkpt lat="33.8101804" lon="-118.3940171">
  <ele>-0.108</ele>
  <time>2026-09-02T22:07:21Z</time>
  <course>186.31</course>
  <speed>0.7283543093852057</speed>
  <fix>3d</fix>
</trkpt>
<trkpt lat="33.8101804" lon="-118.3940172">
  <ele>-0.108</ele>
  <time>2026-09-02T22:07:21Z</time>
  <course>186.31</course>
  <speed>0.7283543093852057</speed>
  <fix>3d</fix>
</trkpt>
<trkpt lat="33.8101804" lon="-118.3940172">
  <ele>-0.108</ele>
  <time>2026-09-02T22:07:21Z</time>
  <course>186.31</course>
  <speed>0.7283543093852057</speed>
  <fix>3d</fix>
</trkpt>
<trkpt lat="33.8101804" lon="-118.3940173">
  <ele>-0.108</ele>
  <time>2026-09-02T22:07:21Z</time>
  <course>186.31</course>
  <speed>0.7283543093852057</speed>
  <fix>3d</fix>
</trkpt>
<trkpt lat="33.8101803" lon="-118.3940173">
  <ele>-0.108</ele>
  <time>2026-09-02T22:07:21Z</time>
  <course>186.31</course>
  <speed>0.7283543093852057</speed>
  <fix>3d</fix>
</trkpt>
<trkpt lat="33.8101803" lon="-118.3940173">
  <ele>-0.108</ele>
  <time>2026-09-02T22:07:21Z</time>
  <course>186.31</course>
  <speed>0.7283543093852057</speed>
  <fix>3d</fix>
</trkpt>
<trkpt lat="33.8101802" lon="-118.3940174">
  <ele>-0.108</ele>
  <time>2026-09-02T22:07:21Z</time>
  <course>186.31</course>
  <speed>0.7283543093852057</speed>
  <fix>3d</fix>
</trkpt>
<trkpt lat="33.8101802" lon="-118.3940174">
  <ele>-0.108</ele>
  <time>2026-09-02T22:07:21Z</time>
  <course>186.31</course>
  <speed>0.7283543093852057</speed>
  <fix>3d</fix>
</trkpt>
<trkpt lat="33.8101802" lon="-118.3940175">
  <ele>-0.108</ele>
  <time>2026-09-02T22:07:21Z</time>
  <course>186.31</course>
  <speed>0.7283543093852057</speed>
  <fix>3d</fix>
</trkpt>
<trkpt lat="33.8101801" lon="-118.3940175">
  <ele>-0.109</ele>
  <time>2026-09-02T22:07:21Z</time>
  <course>186.31</course>
  <speed>0.7283543093852057</speed>
  <fix>3d</fix>
</trkpt>
<trkpt lat="33.8101801" lon="-118.3940175">
  <ele>-0.109</ele>
  <time>2026-09-02T22:07:21Z</time>
  <course>186.31</course>
  <speed>0.7283543093852057</speed>
  <fix>3d</fix>
</trkpt>
<trkpt lat="33.8101805" lon="-118.3940165">
  <ele>-0.1</ele>
  <time>2026-09-02T22:07:21Z</time>
  <course>223.26</course>
  <speed>0.73</speed>
  <fix>3d</fix>
</trkpt>
<trkpt lat="33.81018" lon="-118.3940176">
  <ele>-0.109</ele>
  <time>2026-09-02T22:07:21Z</time>
  <course>186.31</course>
  <speed>0.7283543093852057</speed>
  <fix>3d</fix>
</trkpt>
<trkpt lat="33.81018" lon="-118.3940177">
  <ele>-0.109</ele>
  <time>2026-09-02T22:07:21Z</time>
  <course>186.31</course>
  <speed>0.7283543093852057</speed>
  <fix>3d</fix>
</trkpt>
<trkpt lat="33.8101799" lon="-118.3940177">
  <ele>-0.109</ele>
  <time>2026-09-02T22:07:21Z</time>
  <course>186.31</course>
  <speed>0.7283543093852057</speed>
  <fix>3d</fix>
</trkpt>
<trkpt lat="33.8101799" lon="-118.3940178">
  <ele>-0.109</ele>
  <time>2026-09-02T22:07:21Z</time>
  <course>186.31</course>
  <speed>0.7283543093852057</speed>
  <fix>3d</fix>
</trkpt>
<trkpt lat="33.8101799" lon="-118.3940178">
  <ele>-0.109</ele>
  <time>2026-09-02T22:07:21Z</time>
  <course>186.31</course>
  <speed>0.7283543093852057</speed>
  <fix>3d</fix>
</trkpt>
<trkpt lat="33.8101798" lon="-118.3940178">
  <ele>-0.109</ele>
  <time>2026-09-02T22:07:21Z</time>
  <course>186.31</course>
  <speed>0.7283543093852057</speed>
  <fix>3d</fix>
</trkpt>
<trkpt lat="33.8101798" lon="-118.3940179">
  <ele>-0.109</ele>
  <time>2026-09-02T22:07:21Z</time>
  <course>186.31</course>
  <speed>0.7283543093852057</speed>
  <fix>3d</fix>
</trkpt>
<trkpt lat="33.8101798" lon="-118.3940179">
  <ele>-0.109</ele>
  <time>2026-09-02T22:07:21Z</time>
  <course>186.31</course>
  <speed>0.7283543093852057</speed>
  <fix>3d</fix>
</trkpt>
<trkpt lat="33.8101797" lon="-118.394018">
  <ele>-0.109</ele>
  <time>2026-09-02T22:07:21Z</time>
  <course>186.31</course>
  <speed>0.7283543093852057</speed>
  <fix>3d</fix>
</trkpt>
<trkpt lat="33.8101797" lon="-118.394018">
  <ele>-0.109</ele>
  <time>2026-09-02T22:07:21Z</time>
  <course>186.31</course>
  <speed>0.7283543093852057</speed>
  <fix>3d</fix>
</trkpt>
<trkpt lat="33.8101796" lon="-118.394018">
  <ele>-0.109</ele>
  <time>2026-09-02T22:07:21Z</time>
  <course>186.31</course>
  <speed>0.7283543093852057</speed>
  <fix>3d</fix>
</trkpt>
<trkpt lat="33.8101796" lon="-118.394018">
  <ele>-0.109</ele>
  <time>2026-09-02T22:07:21Z</time>
  <course>186.31</course>
  <speed>0.7283543093852057</speed>
  <fix>3d</fix>
</trkpt>
<trkpt lat="33.8101805" lon="-118.3940165">
  <ele>-0.1</ele>
  <time>2026-09-02T22:07:21Z</time>
  <course>223.26</course>
  <speed>0.73</speed>
  <fix>3d</fix>
</trkpt>
<trkpt lat="33.8101796" lon="-118.3940181">
  <ele>-0.109</ele>
  <time>2026-09-02T22:07:21Z</time>
  <course>186.31</course>
  <speed>0.7283543093852057</speed>
  <fix>3d</fix>
</trkpt>
<trkpt lat="33.8101796" lon="-118.3940181">
  <ele>-0.109</ele>
  <time>2026-09-02T22:07:21Z</time>
  <course>186.31</course>
  <speed>0.7283543093852057</speed>
  <fix>3d</fix>
</trkpt>
<trkpt lat="33.8101795" lon="-118.3940182">
  <ele>-0.109</ele>
  <time>2026-09-02T22:07:21Z</time>
  <course>186.31</course>
  <speed>0.7283543093852057</speed>
  <fix>3d</fix>
</trkpt>
<trkpt lat="33.8101795" lon="-118.3940183">
  <ele>-0.109</ele>
  <time>2026-09-02T22:07:21Z</time>
  <course>186.31</course>
  <speed>0.7283543093852057</speed>
  <fix>3d</fix>
</trkpt>
<trkpt lat="33.8101794" lon="-118.3940183">
  <ele>-0.109</ele>
  <time>2026-09-02T22:07:21Z</time>
  <course>186.31</course>
  <speed>0.7283543093852057</speed>
  <fix>3d</fix>
</trkpt>
<trkpt lat="33.8101794" lon="-118.3940184">
  <ele>-0.109</ele>
  <time>2026-09-02T22:07:21Z</time>
  <course>186.31</course>
  <speed>0.7283543093852057</speed>
  <fix>3d</fix>
</trkpt>
<trkpt lat="33.8101793" lon="-118.3940184">
  <ele>-0.109</ele>
  <time>2026-09-02T22:07:21Z</time>
  <course>186.3</course>
  <speed>0.7283543093852057</speed>
  <fix>3d</fix>
</trkpt>
<trkpt lat="33.8101793" lon="-118.3940184">
  <ele>-0.109</ele>
  <time>2026-09-02T22:07:21Z</time>
  <course>186.3</course>
  <speed>0.7283543093852057</speed>
  <fix>3d</fix>
</trkpt>
<trkpt lat="33.8101792" lon="-118.3940185">
  <ele>-0.11</ele>
  <time>2026-09-02T22:07:21Z</time>
  <course>186.3</course>
  <speed>0.7283543093852057</speed>
  <fix>3d</fix>
</trkpt>
<trkpt lat="33.8101792" lon="-118.3940185">
  <ele>-0.11</ele>
  <time>2026-09-02T22:07:21Z</time>
  <course>186.3</course>
  <speed>0.7283543093852057</speed>
  <fix>3d</fix>
</trkpt>
<trkpt lat="33.8101792" lon="-118.3940186">
  <ele>-0.11</ele>
  <time>2026-09-02T22:07:21Z</time>
  <course>186.3</course>
  <speed>0.7283543093852057</speed>
  <fix>3d</fix>
</trkpt>
<trkpt lat="33.8101791" lon="-118.3940186">
  <ele>-0.11</ele>
  <time>2026-09-02T22:07:21Z</time>
  <course>186.3</course>
  <speed>0.7283543093852057</speed>
  <fix>3d</fix>
</trkpt>
<trkpt lat="33.8101796" lon="-118.3940176">
  <ele>-0.1</ele>
  <time>2026-09-02T22:07:21Z</time>
  <course>223.26</course>
  <speed>0.73</speed>
  <fix>3d</fix>
</trkpt>
<trkpt lat="33.8101791" lon="-118.3940186">
  <ele>-0.11</ele>
  <time>2026-09-02T22:07:21Z</time>
  <course>186.3</course>
  <speed>0.7283543093852057</speed>
  <fix>3d</fix>
</trkpt>
<trkpt lat="33.8101791" lon="-118.3940187">
  <ele>-0.11</ele>
  <time>2026-09-02T22:07:21Z</time>
  <course>186.3</course>
  <speed>0.7283543093852057</speed>
  <fix>3d</fix>
</trkpt>
<trkpt lat="33.810179" lon="-118.3940187">
  <ele>-0.11</ele>
  <time>2026-09-02T22:07:21Z</time>
  <course>186.3</course>
  <speed>0.7283543093852057</speed>
  <fix>3d</fix>
</trkpt>
<trkpt lat="33.810179" lon="-118.3940188">
  <ele>-0.11</ele>
  <time>2026-09-02T22:07:21Z</time>
  <course>186.3</course>
  <speed>0.7283543093852057</speed>
  <fix>3d</fix>
</trkpt>
<trkpt lat="33.810179" lon="-118.3940188">
  <ele>-0.11</ele>
  <time>2026-09-02T22:07:21Z</time>
  <course>186.3</course>
  <speed>0.7283543093852057</speed>
  <fix>3d</fix>
</trkpt>
<trkpt lat="33.8101789" lon="-118.3940189">
  <ele>-0.11</ele>
  <time>2026-09-02T22:07:21Z</time>
  <course>186.3</course>
  <speed>0.7283543093852057</speed>
  <fix>3d</fix>
</trkpt>
<trkpt lat="33.8101789" lon="-118.3940189">
  <ele>-0.11</ele>
  <time>2026-09-02T22:07:21Z</time>
  <course>186.3</course>
  <speed>0.7283543093852057</speed>
  <fix>3d</fix>
</trkpt>
<trkpt lat="33.8101788" lon="-118.3940189">
  <ele>-0.11</ele>
  <time>2026-09-02T22:07:21Z</time>
  <course>186.3</course>
  <speed>0.7283543093852057</speed>
  <fix>3d</fix>
</trkpt>
<trkpt lat="33.8101788" lon="-118.394019">
  <ele>-0.111</ele>
  <time>2026-09-02T22:07:21Z</time>
  <course>186.3</course>
  <speed>0.7283543093852057</speed>
  <fix>3d</fix>
</trkpt>
<trkpt lat="33.8101787" lon="-118.394019">
  <ele>-0.111</ele>
  <time>2026-09-02T22:07:21Z</time>
  <course>186.3</course>
  <speed>0.7283543093852057</speed>
  <fix>3d</fix>
</trkpt>
<trkpt lat="33.8101787" lon="-118.3940191">
  <ele>-0.111</ele>
  <time>2026-09-02T22:07:21Z</time>
  <course>186.3</course>
  <speed>0.7283543093852057</speed>
  <fix>3d</fix>
</trkpt>
<trkpt lat="33.8101787" lon="-118.3940191">
  <ele>-0.111</ele>
  <time>2026-09-02T22:07:21Z</time>
  <course>186.3</course>
  <speed>0.7283543093852057</speed>
  <fix>3d</fix>
</trkpt>
<trkpt lat="33.8101787" lon="-118.3940191">
  <ele>-0.111</ele>
  <time>2026-09-02T22:07:21Z</time>
  <course>186.3</course>
  <speed>0.7283543093852057</speed>
  <fix>3d</fix>
</trkpt>
<trkpt lat="33.8101796" lon="-118.3940176">
  <ele>-0.1</ele>
  <time>2026-09-02T22:07:21Z</time>
  <course>223.26</course>
  <speed>0.73</speed>
  <fix>3d</fix>
</trkpt>
<trkpt lat="33.8101786" lon="-118.3940192">
  <ele>-0.111</ele>
  <time>2026-09-02T22:07:21Z</time>
  <course>186.3</course>
  <speed>0.7283543093852057</speed>
  <fix>3d</fix>
</trkpt>
<trkpt lat="33.8101785" lon="-118.3940193">
  <ele>-0.111</ele>
  <time>2026-09-02T22:07:21Z</time>
  <course>186.3</course>
  <speed>0.7283543093852057</speed>
  <fix>3d</fix>
</trkpt>
<trkpt lat="33.8101785" lon="-118.3940193">
  <ele>-0.111</ele>
  <time>2026-09-02T22:07:21Z</time>
  <course>186.3</course>
  <speed>0.7283543093852057</speed>
  <fix>3d</fix>
</trkpt>
<trkpt lat="33.8101784" lon="-118.3940194">
  <ele>-0.111</ele>
  <time>2026-09-02T22:07:21Z</time>
  <course>186.3</course>
  <speed>0.7283543093852057</speed>
  <fix>3d</fix>
</trkpt>
<trkpt lat="33.8101784" lon="-118.3940194">
  <ele>-0.111</ele>
  <time>2026-09-02T22:07:21Z</time>
  <course>186.3</course>
  <speed>0.7283543093852057</speed>
  <fix>3d</fix>
</trkpt>
<trkpt lat="33.8101784" lon="-118.3940195">
  <ele>-0.112</ele>
  <time>2026-09-02T22:07:21Z</time>
  <course>186.3</course>
  <speed>0.7283543093852057</speed>
  <fix>3d</fix>
</trkpt>
<trkpt lat="33.8101783" lon="-118.3940195">
  <ele>-0.112</ele>
  <time>2026-09-02T22:07:21Z</time>
  <course>186.3</course>
  <speed>0.7283543093852057</speed>
  <fix>3d</fix>
</trkpt>
<trkpt lat="33.8101783" lon="-118.3940196">
  <ele>-0.112</ele>
  <time>2026-09-02T22:07:21Z</time>
  <course>186.3</course>
  <speed>0.7283543093852057</speed>
  <fix>3d</fix>
</trkpt>
<trkpt lat="33.8101782" lon="-118.3940196">
  <ele>-0.112</ele>
  <time>2026-09-02T22:07:21Z</time>
  <course>186.3</course>
  <speed>0.7283543093852057</speed>
  <fix>3d</fix>
</trkpt>
<trkpt lat="33.8101782" lon="-118.3940197">
  <ele>-0.112</ele>
  <time>2026-09-02T22:07:21Z</time>
  <course>186.3</course>
  <speed>0.7283543093852057</speed>
  <fix>3d</fix>
</trkpt>
<trkpt lat="33.8101782" lon="-118.3940197">
  <ele>-0.112</ele>
  <time>2026-09-02T22:07:21Z</time>
  <course>186.3</course>
  <speed>0.7283543093852057</speed>
  <fix>3d</fix>
</trkpt>
<trkpt lat="33.8101786" lon="-118.3940187">
  <ele>-0.11</ele>
  <time>2026-09-02T22:07:21Z</time>
  <course>223.26</course>
  <speed>0.73</speed>
  <fix>3d</fix>
</trkpt>
<trkpt lat="33.8101782" lon="-118.3940197">
  <ele>-0.112</ele>
  <time>2026-09-02T22:07:21Z</time>
  <course>186.3</course>
  <speed>0.7283543093852057</speed>
  <fix>3d</fix>
</trkpt>
<trkpt lat="33.8101781" lon="-118.3940198">
  <ele>-0.112</ele>
  <time>2026-09-02T22:07:21Z</time>
  <course>186.3</course>
  <speed>0.7283543093852057</speed>
  <fix>3d</fix>
</trkpt>
<trkpt lat="33.810178" lon="-118.3940199">
  <ele>-0.112</ele>
  <time>2026-09-02T22:07:21Z</time>
  <course>186.3</course>
  <speed>0.7283543093852057</speed>
  <fix>3d</fix>
</trkpt>
<trkpt lat="33.810178" lon="-118.3940199">
  <ele>-0.112</ele>
  <time>2026-09-02T22:07:21Z</time>
  <course>186.3</course>
  <speed>0.7283543093852057</speed>
  <fix>3d</fix>
</trkpt>
<trkpt lat="33.8101779" lon="-118.39402">
  <ele>-0.113</ele>
  <time>2026-09-02T22:07:21Z</time>
  <course>186.3</course>
  <speed>0.7283543093852057</speed>
  <fix>3d</fix>
</trkpt>
<trkpt lat="33.8101779" lon="-118.39402">
  <ele>-0.113</ele>
  <time>2026-09-02T22:07:21Z</time>
  <course>186.3</course>
  <speed>0.7283543093852057</speed>
  <fix>3d</fix>
</trkpt>
<trkpt lat="33.8101778" lon="-118.39402">
  <ele>-0.113</ele>
  <time>2026-09-02T22:07:21Z</time>
  <course>186.3</course>
  <speed>0.7283543093852057</speed>
  <fix>3d</fix>
</trkpt>
<trkpt lat="33.8101778" lon="-118.3940201">
  <ele>-0.113</ele>
  <time>2026-09-02T22:07:21Z</time>
  <course>186.3</course>
  <speed>0.7283543093852057</speed>
  <fix>3d</fix>
</trkpt>
<trkpt lat="33.8101778" lon="-118.3940201">
  <ele>-0.113</ele>
  <time>2026-09-02T22:07:21Z</time>
  <course>186.3</course>
  <speed>0.7283543093852057</speed>
  <fix>3d</fix>
</trkpt>
<trkpt lat="33.8101777" lon="-118.3940202">
  <ele>-0.113</ele>
  <time>2026-09-02T22:07:21Z</time>
  <course>186.3</course>
  <speed>0.7283543093852057</speed>
  <fix>3d</fix>
</trkpt>
<trkpt lat="33.8101777" lon="-118.3940202">
  <ele>-0.113</ele>
  <time>2026-09-02T22:07:21Z</time>
  <course>186.3</course>
  <speed>0.7283543093852057</speed>
  <fix>3d</fix>
</trkpt>
<trkpt lat="33.8101777" lon="-118.3940202">
  <ele>-0.113</ele>
  <time>2026-09-02T22:07:21Z</time>
  <course>186.3</course>
  <speed>0.7283543093852057</speed>
  <fix>3d</fix>
</trkpt>
<trkpt lat="33.8101786" lon="-118.3940187">
  <ele>-0.11</ele>
  <time>2026-09-02T22:07:21Z</time>
  <course>223.26</course>
  <speed>0.73</speed>
  <fix>3d</fix>
</trkpt>
<trkpt lat="33.8101776" lon="-118.3940203">
  <ele>-0.113</ele>
  <time>2026-09-02T22:07:21Z</time>
  <course>186.3</course>
  <speed>0.7283543093852057</speed>
  <fix>3d</fix>
</trkpt>
<trkpt lat="33.8101776" lon="-118.3940204">
  <ele>-0.114</ele>
  <time>2026-09-02T22:07:21Z</time>
  <course>186.3</course>
  <speed>0.7283543093852057</speed>
  <fix>3d</fix>
</trkpt>
<trkpt lat="33.8101775" lon="-118.3940204">
  <ele>-0.114</ele>
  <time>2026-09-02T22:07:21Z</time>
  <course>186.3</course>
  <speed>0.7283543093852057</speed>
  <fix>3d</fix>
</trkpt>
<trkpt lat="33.8101775" lon="-118.3940205">
  <ele>-0.114</ele>
  <time>2026-09-02T22:07:21Z</time>
  <course>186.3</course>
  <speed>0.7283543093852057</speed>
  <fix>3d</fix>
</trkpt>
<trkpt lat="33.8101775" lon="-118.3940205">
  <ele>-0.114</ele>
  <time>2026-09-02T22:07:21Z</time>
  <course>186.3</course>
  <speed>0.7283543093852057</speed>
  <fix>3d</fix>
</trkpt>
<trkpt lat="33.8101774" lon="-118.3940205">
  <ele>-0.114</ele>
  <time>2026-09-02T22:07:21Z</time>
  <course>186.3</course>
  <speed>0.7283543093852057</speed>
  <fix>3d</fix>
</trkpt>
<trkpt lat="33.8101774" lon="-118.3940206">
  <ele>-0.114</ele>
  <time>2026-09-02T22:07:21Z</time>
  <course>186.3</course>
  <speed>0.7283543093852057</speed>
  <fix>3d</fix>
</trkpt>
<trkpt lat="33.8101773" lon="-118.3940206">
  <ele>-0.114</ele>
  <time>2026-09-02T22:07:21Z</time>
  <course>186.3</course>
  <speed>0.7283543093852057</speed>
  <fix>3d</fix>
</trkpt>
<trkpt lat="33.8101773" lon="-118.3940207">
  <ele>-0.115</ele>
  <time>2026-09-02T22:07:21Z</time>
  <course>186.3</course>
  <speed>0.7283543093852057</speed>
  <fix>3d</fix>
</trkpt>
<trkpt lat="33.8101772" lon="-118.3940208">
  <ele>-0.115</ele>
  <time>2026-09-02T22:07:21Z</time>
  <course>186.3</course>
  <speed>0.7283543093852057</speed>
  <fix>3d</fix>
</trkpt>
<trkpt lat="33.8101772" lon="-118.3940208">
  <ele>-0.115</ele>
  <time>2026-09-02T22:07:21Z</time>
  <course>186.3</course>
  <speed>0.7283543093852057</speed>
  <fix>3d</fix>
</trkpt>
<trkpt lat="33.8101777" lon="-118.3940198">
  <ele>-0.11</ele>
  <time>2026-09-02T22:07:21Z</time>
  <course>223.26</course>
  <speed>0.73</speed>
  <fix>3d</fix>
</trkpt>
<trkpt lat="33.8101772" lon="-118.3940208">
  <ele>-0.115</ele>
  <time>2026-09-02T22:07:21Z</time>
  <course>186.3</course>
  <speed>0.7283543093852057</speed>
  <fix>3d</fix>
</trkpt>
<trkpt lat="33.8101771" lon="-118.3940209">
  <ele>-0.115</ele>
  <time>2026-09-02T22:07:21Z</time>
  <course>186.3</course>
  <speed>0.7283543093852057</speed>
  <fix>3d</fix>
</trkpt>
<trkpt lat="33.8101771" lon="-118.3940209">
  <ele>-0.115</ele>
  <time>2026-09-02T22:07:21Z</time>
  <course>186.3</course>
  <speed>0.7283543093852057</speed>
  <fix>3d</fix>
</trkpt>
<trkpt lat="33.810177" lon="-118.394021">
  <ele>-0.115</ele>
  <time>2026-09-02T22:07:21Z</time>
  <course>186.3</course>
  <speed>0.7283543093852057</speed>
  <fix>3d</fix>
</trkpt>
<trkpt lat="33.810177" lon="-118.394021">
  <ele>-0.115</ele>
  <time>2026-09-02T22:07:21Z</time>
  <course>186.3</course>
  <speed>0.7283543093852057</speed>
  <fix>3d</fix>
</trkpt>
<trkpt lat="33.810177" lon="-118.3940211">
  <ele>-0.115</ele>
  <time>2026-09-02T22:07:21Z</time>
  <course>186.3</course>
  <speed>0.7283543093852057</speed>
  <fix>3d</fix>
</trkpt>
<trkpt lat="33.8101769" lon="-118.3940211">
  <ele>-0.115</ele>
  <time>2026-09-02T22:07:21Z</time>
  <course>186.3</course>
  <speed>0.7283543093852057</speed>
  <fix>3d</fix>
</trkpt>
<trkpt lat="33.8101769" lon="-118.3940211">
  <ele>-0.115</ele>
  <time>2026-09-02T22:07:21Z</time>
  <course>186.3</course>
  <speed>0.7283543093852057</speed>
  <fix>3d</fix>
</trkpt>
<trkpt lat="33.8101768" lon="-118.3940212">
  <ele>-0.115</ele>
  <time>2026-09-02T22:07:21Z</time>
  <course>186.3</course>
  <speed>0.7283543093852057</speed>
  <fix>3d</fix>
</trkpt>
<trkpt lat="33.8101768" lon="-118.3940212">
  <ele>-0.115</ele>
  <time>2026-09-02T22:07:21Z</time>
  <course>186.3</course>
  <speed>0.7283543093852057</speed>
  <fix>3d</fix>
</trkpt>
<trkpt lat="33.8101768" lon="-118.3940213">
  <ele>-0.115</ele>
  <time>2026-09-02T22:07:21Z</time>
  <course>186.3</course>
  <speed>0.7283543093852057</speed>
  <fix>3d</fix>
</trkpt>
<trkpt lat="33.8101767" lon="-118.3940213">
  <ele>-0.116</ele>
  <time>2026-09-02T22:07:21Z</time>
  <course>186.3</course>
  <speed>0.7283543093852057</speed>
  <fix>3d</fix>
</trkpt>
<trkpt lat="33.8101767" lon="-118.3940213">
  <ele>-0.116</ele>
  <time>2026-09-02T22:07:21Z</time>
  <course>186.3</course>
  <speed>0.7283543093852057</speed>
  <fix>3d</fix>
</trkpt>
<trkpt lat="33.8101777" lon="-118.3940198">
  <ele>-0.11</ele>
  <time>2026-09-02T22:07:21Z</time>
  <course>223.26</course>
  <speed>0.73</speed>
  <fix>3d</fix>
</trkpt>
<trkpt lat="33.8101766" lon="-118.3940214">
  <ele>-0.116</ele>
  <time>2026-09-02T22:07:21Z</time>
  <course>186.3</course>
  <speed>0.7283543093852057</speed>
  <fix>3d</fix>
</trkpt>
<trkpt lat="33.8101766" lon="-118.3940215">
  <ele>-0.116</ele>
  <time>2026-09-02T22:07:21Z</time>
  <course>186.3</course>
  <speed>0.7283543093852057</speed>
  <fix>3d</fix>
</trkpt>
<trkpt lat="33.8101766" lon="-118.3940215">
  <ele>-0.116</ele>
  <time>2026-09-02T22:07:21Z</time>
  <course>186.3</course>
  <speed>0.7283543093852057</speed>
  <fix>3d</fix>
</trkpt>
<trkpt lat="33.8101765" lon="-118.3940215">
  <ele>-0.116</ele>
  <time>2026-09-02T22:07:21Z</time>
  <course>186.3</course>
  <speed>0.7283543093852057</speed>
  <fix>3d</fix>
</trkpt>
<trkpt lat="33.8101765" lon="-118.3940216">
  <ele>-0.116</ele>
  <time>2026-09-02T22:07:21Z</time>
  <course>186.3</course>
  <speed>0.7283543093852057</speed>
  <fix>3d</fix>
</trkpt>
<trkpt lat="33.8101764" lon="-118.3940216">
  <ele>-0.116</ele>
  <time>2026-09-02T22:07:21Z</time>
  <course>186.3</course>
  <speed>0.7283543093852057</speed>
  <fix>3d</fix>
</trkpt>
<trkpt lat="33.8101764" lon="-118.3940217">
  <ele>-0.116</ele>
  <time>2026-09-02T22:07:21Z</time>
  <course>186.3</course>
  <speed>0.7283543093852057</speed>
  <fix>3d</fix>
</trkpt>
<trkpt lat="33.8101764" lon="-118.3940217">
  <ele>-0.116</ele>
  <time>2026-09-02T22:07:21Z</time>
  <course>186.3</course>
  <speed>0.7283543093852057</speed>
  <fix>3d</fix>
</trkpt>
<trkpt lat="33.8101763" lon="-118.3940218">
  <ele>-0.116</ele>
  <time>2026-09-02T22:07:21Z</time>
  <course>186.3</course>
  <speed>0.7283543093852057</speed>
  <fix>3d</fix>
</trkpt>
<trkpt lat="33.8101763" lon="-118.3940218">
  <ele>-0.116</ele>
  <time>2026-09-02T22:07:21Z</time>
  <course>186.3</course>
  <speed>0.7283543093852057</speed>
  <fix>3d</fix>
</trkpt>
<trkpt lat="33.8101762" lon="-118.3940219">
  <ele>-0.116</ele>
  <time>2026-09-02T22:07:21Z</time>
  <course>186.3</course>
  <speed>0.7283543093852057</speed>
  <fix>3d</fix>
</trkpt>
<trkpt lat="33.8101768" lon="-118.3940209">
  <ele>-0.1</ele>
  <time>2026-09-02T22:07:21Z</time>
  <course>223.26</course>
  <speed>0.73</speed>
  <fix>3d</fix>
</trkpt>
<trkpt lat="33.8101762" lon="-118.3940219">
  <ele>-0.116</ele>
  <time>2026-09-02T22:07:21Z</time>
  <course>186.3</course>
  <speed>0.7283543093852057</speed>
  <fix>3d</fix>
</trkpt>
<trkpt lat="33.8101761" lon="-118.394022">
  <ele>-0.117</ele>
  <time>2026-09-02T22:07:21Z</time>
  <course>186.3</course>
  <speed>0.7283543093852057</speed>
  <fix>3d</fix>
</trkpt>
<trkpt lat="33.8101761" lon="-118.394022">
  <ele>-0.117</ele>
  <time>2026-09-02T22:07:21Z</time>
  <course>186.3</course>
  <speed>0.7283543093852057</speed>
  <fix>3d</fix>
</trkpt>
<trkpt lat="33.8101761" lon="-118.3940221">
  <ele>-0.117</ele>
  <time>2026-09-02T22:07:21Z</time>
  <course>186.3</course>
  <speed>0.7283543093852057</speed>
  <fix>3d</fix>
</trkpt>
<trkpt lat="33.810176" lon="-118.3940221">
  <ele>-0.117</ele>
  <time>2026-09-02T22:07:21Z</time>
  <course>186.3</course>
  <speed>0.7283543093852057</speed>
  <fix>3d</fix>
</trkpt>
<trkpt lat="33.810176" lon="-118.3940222">
  <ele>-0.117</ele>
  <time>2026-09-02T22:07:21Z</time>
  <course>186.3</course>
  <speed>0.7283543093852057</speed>
  <fix>3d</fix>
</trkpt>
<trkpt lat="33.8101759" lon="-118.3940222">
  <ele>-0.117</ele>
  <time>2026-09-02T22:07:21Z</time>
  <course>186.3</course>
  <speed>0.7283543093852057</speed>
  <fix>3d</fix>
</trkpt>
<trkpt lat="33.8101759" lon="-118.3940222">
  <ele>-0.117</ele>
  <time>2026-09-02T22:07:21Z</time>
  <course>186.3</course>
  <speed>0.7283543093852057</speed>
  <fix>3d</fix>
</trkpt>
<trkpt lat="33.8101758" lon="-118.3940223">
  <ele>-0.117</ele>
  <time>2026-09-02T22:07:21Z</time>
  <course>186.3</course>
  <speed>0.7283543093852057</speed>
  <fix>3d</fix>
</trkpt>
<trkpt lat="33.8101758" lon="-118.3940224">
  <ele>-0.117</ele>
  <time>2026-09-02T22:07:21Z</time>
  <course>186.3</course>
  <speed>0.7283543093852057</speed>
  <fix>3d</fix>
</trkpt>
<trkpt lat="33.8101758" lon="-118.3940224">
  <ele>-0.118</ele>
  <time>2026-09-02T22:07:21Z</time>
  <course>186.3</course>
  <speed>0.7283543093852057</speed>
  <fix>3d</fix>
</trkpt>
<trkpt lat="33.8101768" lon="-118.3940209">
  <ele>-0.1</ele>
  <time>2026-09-02T22:07:21Z</time>
  <course>223.26</course>
  <speed>0.73</speed>
  <fix>3d</fix>
</trkpt>
<trkpt lat="33.8101758" lon="-118.3940224">
  <ele>-0.118</ele>
  <time>2026-09-02T22:07:21Z</time>
  <course>186.3</course>
  <speed>0.7283543093852057</speed>
  <fix>3d</fix>
</trkpt>
<trkpt lat="33.8101757" lon="-118.3940225">
  <ele>-0.118</ele>
  <time>2026-09-02T22:07:21Z</time>
  <course>186.3</course>
  <speed>0.7283543093852057</speed>
  <fix>3d</fix>
</trkpt>
<trkpt lat="33.8101756" lon="-118.3940225">
  <ele>-0.118</ele>
  <time>2026-09-02T22:07:21Z</time>
  <course>186.3</course>
  <speed>0.7283543093852057</speed>
  <fix>3d</fix>
</trkpt>
<trkpt lat="33.8101756" lon="-118.3940226">
  <ele>-0.118</ele>
  <time>2026-09-02T22:07:21Z</time>
  <course>186.3</course>
  <speed>0.7283543093852057</speed>
  <fix>3d</fix>
</trkpt>
<trkpt lat="33.8101756" lon="-118.3940226">
  <ele>-0.118</ele>
  <time>2026-09-02T22:07:21Z</time>
  <course>186.3</course>
  <speed>0.7283543093852057</speed>
  <fix>3d</fix>
</trkpt>
<trkpt lat="33.8101755" lon="-118.3940227">
  <ele>-0.118</ele>
  <time>2026-09-02T22:07:21Z</time>
  <course>186.3</course>
  <speed>0.7283543093852057</speed>
  <fix>3d</fix>
</trkpt>
<trkpt lat="33.8101755" lon="-118.3940227">
  <ele>-0.118</ele>
  <time>2026-09-02T22:07:21Z</time>
  <course>186.3</course>
  <speed>0.7283543093852057</speed>
  <fix>3d</fix>
</trkpt>
<trkpt lat="33.8101754" lon="-118.3940228">
  <ele>-0.118</ele>
  <time>2026-09-02T22:07:21Z</time>
  <course>186.3</course>
  <speed>0.7283543093852057</speed>
  <fix>3d</fix>
</trkpt>
<trkpt lat="33.8101754" lon="-118.3940228">
  <ele>-0.118</ele>
  <time>2026-09-02T22:07:21Z</time>
  <course>186.3</course>
  <speed>0.7283543093852057</speed>
  <fix>3d</fix>
</trkpt>
<trkpt lat="33.8101754" lon="-118.3940229">
  <ele>-0.118</ele>
  <time>2026-09-02T22:07:21Z</time>
  <course>186.3</course>
  <speed>0.7283543093852057</speed>
  <fix>3d</fix>
</trkpt>
<trkpt lat="33.8101753" lon="-118.3940229">
  <ele>-0.118</ele>
  <time>2026-09-02T22:07:21Z</time>
  <course>186.3</course>
  <speed>0.7283543093852057</speed>
  <fix>3d</fix>
</trkpt>
<trkpt lat="33.8101753" lon="-118.3940229">
  <ele>-0.118</ele>
  <time>2026-09-02T22:07:21Z</time>
  <course>186.3</course>
  <speed>0.7283543093852057</speed>
  <fix>3d</fix>
</trkpt>
<trkpt lat="33.8101753" lon="-118.3940229">
  <ele>-0.118</ele>
  <time>2026-09-02T22:07:21Z</time>
  <course>186.3</course>
  <speed>0.7283543093852057</speed>
  <fix>3d</fix>
</trkpt>
<trkpt lat="33.8101757" lon="-118.394022">
  <ele>-0.1</ele>
  <time>2026-09-02T22:07:21Z</time>
  <course>223.26</course>
  <speed>0.73</speed>
  <fix>3d</fix>
</trkpt>
<trkpt lat="33.8101752" lon="-118.394023">
  <ele>-0.118</ele>
  <time>2026-09-02T22:07:21Z</time>
  <course>186.3</course>
  <speed>0.7283543093852057</speed>
  <fix>3d</fix>
</trkpt>
<trkpt lat="33.8101752" lon="-118.3940231">
  <ele>-0.118</ele>
  <time>2026-09-02T22:07:21Z</time>
  <course>186.3</course>
  <speed>0.7283543093852057</speed>
  <fix>3d</fix>
</trkpt>
<trkpt lat="33.8101751" lon="-118.3940231">
  <ele>-0.118</ele>
  <time>2026-09-02T22:07:21Z</time>
  <course>186.3</course>
  <speed>0.7283543093852057</speed>
  <fix>3d</fix>
</trkpt>
<trkpt lat="33.8101751" lon="-118.3940232">
  <ele>-0.118</ele>
  <time>2026-09-02T22:07:21Z</time>
  <course>186.3</course>
  <speed>0.7283543093852057</speed>
  <fix>3d</fix>
</trkpt>
<trkpt lat="33.810175" lon="-118.3940232">
  <ele>-0.118</ele>
  <time>2026-09-02T22:07:21Z</time>
  <course>186.3</course>
  <speed>0.7283543093852057</speed>
  <fix>3d</fix>
</trkpt>
<trkpt lat="33.810175" lon="-118.3940233">
  <ele>-0.118</ele>
  <time>2026-09-02T22:07:21Z</time>
  <course>186.3</course>
  <speed>0.7283543093852057</speed>
  <fix>3d</fix>
</trkpt>
<trkpt lat="33.8101749" lon="-118.3940233">
  <ele>-0.118</ele>
  <time>2026-09-02T22:07:21Z</time>
  <course>186.3</course>
  <speed>0.7283543093852057</speed>
  <fix>3d</fix>
</trkpt>
<trkpt lat="33.8101749" lon="-118.3940234">
  <ele>-0.118</ele>
  <time>2026-09-02T22:07:21Z</time>
  <course>186.3</course>
  <speed>0.7283543093852057</speed>
  <fix>3d</fix>
</trkpt>
<trkpt lat="33.8101749" lon="-118.3940234">
  <ele>-0.118</ele>
  <time>2026-09-02T22:07:21Z</time>
  <course>186.3</course>
  <speed>0.7283543093852057</speed>
  <fix>3d</fix>
</trkpt>
<trkpt lat="33.8101748" lon="-118.3940235">
  <ele>-0.118</ele>
  <time>2026-09-02T22:07:21Z</time>
  <course>186.3</course>
  <speed>0.7283543093852057</speed>
  <fix>3d</fix>
</trkpt>
<trkpt lat="33.8101748" lon="-118.3940235">
  <ele>-0.118</ele>
  <time>2026-09-02T22:07:21Z</time>
  <course>186.3</course>
  <speed>0.7283543093852057</speed>
  <fix>3d</fix>
</trkpt>
<trkpt lat="33.8101757" lon="-118.394022">
  <ele>-0.1</ele>
  <time>2026-09-02T22:07:21Z</time>
  <course>223.26</course>
  <speed>0.73</speed>
  <fix>3d</fix>
</trkpt>
<trkpt lat="33.8101748" lon="-118.3940235">
  <ele>-0.118</ele>
  <time>2026-09-02T22:07:21Z</time>
  <course>186.3</course>
  <speed>0.7283543093852057</speed>
  <fix>3d</fix>
</trkpt>
<trkpt lat="33.8101747" lon="-118.3940236">
  <ele>-0.118</ele>
  <time>2026-09-02T22:07:21Z</time>
  <course>186.3</course>
  <speed>0.7283543093852057</speed>
  <fix>3d</fix>
</trkpt>
<trkpt lat="33.8101747" lon="-118.3940237">
  <ele>-0.118</ele>
  <time>2026-09-02T22:07:21Z</time>
  <course>186.3</course>
  <speed>0.7283543093852057</speed>
  <fix>3d</fix>
</trkpt>
<trkpt lat="33.8101746" lon="-118.3940237">
  <ele>-0.118</ele>
  <time>2026-09-02T22:07:21Z</time>
  <course>186.3</course>
  <speed>0.7283543093852057</speed>
  <fix>3d</fix>
</trkpt>
<trkpt lat="33.8101746" lon="-118.3940237">
  <ele>-0.118</ele>
  <time>2026-09-02T22:07:21Z</time>
  <course>186.3</course>
  <speed>0.7283543093852057</speed>
  <fix>3d</fix>
</trkpt>
<trkpt lat="33.8101745" lon="-118.3940238">
  <ele>-0.118</ele>
  <time>2026-09-02T22:07:21Z</time>
  <course>186.3</course>
  <speed>0.7283543093852057</speed>
  <fix>3d</fix>
</trkpt>
<trkpt lat="33.8101745" lon="-118.3940238">
  <ele>-0.118</ele>
  <time>2026-09-02T22:07:21Z</time>
  <course>186.3</course>
  <speed>0.7283543093852057</speed>
  <fix>3d</fix>
</trkpt>
<trkpt lat="33.8101745" lon="-118.3940239">
  <ele>-0.118</ele>
  <time>2026-09-02T22:07:21Z</time>
  <course>186.3</course>
  <speed>0.7283543093852057</speed>
  <fix>3d</fix>
</trkpt>
<trkpt lat="33.8101744" lon="-118.3940239">
  <ele>-0.118</ele>
  <time>2026-09-02T22:07:21Z</time>
  <course>186.3</course>
  <speed>0.7283543093852057</speed>
  <fix>3d</fix>
</trkpt>
<trkpt lat="33.8101744" lon="-118.394024">
  <ele>-0.118</ele>
  <time>2026-09-02T22:07:21Z</time>
  <course>186.3</course>
  <speed>0.7283543093852057</speed>
  <fix>3d</fix>
</trkpt>
<trkpt lat="33.8101743" lon="-118.394024">
  <ele>-0.118</ele>
  <time>2026-09-02T22:07:21Z</time>
  <course>186.3</course>
  <speed>0.7283543093852057</speed>
  <fix>3d</fix>
</trkpt>
<trkpt lat="33.8101743" lon="-118.394024">
  <ele>-0.118</ele>
  <time>2026-09-02T22:07:21Z</time>
  <course>186.3</course>
  <speed>0.7283543093852057</speed>
  <fix>3d</fix>
</trkpt>
<trkpt lat="33.8101748" lon="-118.3940231">
  <ele>-0.1</ele>
  <time>2026-09-02T22:07:21Z</time>
  <course>223.26</course>
  <speed>0.73</speed>
  <fix>3d</fix>
</trkpt>
<trkpt lat="33.8101743" lon="-118.3940241">
  <ele>-0.118</ele>
  <time>2026-09-02T22:07:21Z</time>
  <course>186.3</course>
  <speed>0.7283543093852057</speed>
  <fix>3d</fix>
</trkpt>
<trkpt lat="33.8101742" lon="-118.3940241">
  <ele>-0.118</ele>
  <time>2026-09-02T22:07:21Z</time>
  <course>186.3</course>
  <speed>0.7283543093852057</speed>
  <fix>3d</fix>
</trkpt>
<trkpt lat="33.8101742" lon="-118.3940242">
  <ele>-0.118</ele>
  <time>2026-09-02T22:07:21Z</time>
  <course>186.3</course>
  <speed>0.7283543093852057</speed>
  <fix>3d</fix>
</trkpt>
<trkpt lat="33.8101741" lon="-118.3940242">
  <ele>-0.117</ele>
  <time>2026-09-02T22:07:21Z</time>
  <course>186.3</course>
  <speed>0.7283543093852057</speed>
  <fix>3d</fix>
</trkpt>
<trkpt lat="33.8101741" lon="-118.3940243">
  <ele>-0.117</ele>
  <time>2026-09-02T22:07:21Z</time>
  <course>186.3</course>
  <speed>0.7283543093852057</speed>
  <fix>3d</fix>
</trkpt>
<trkpt lat="33.8101741" lon="-118.3940243">
  <ele>-0.117</ele>
  <time>2026-09-02T22:07:21Z</time>
  <course>186.3</course>
  <speed>0.7283543093852057</speed>
  <fix>3d</fix>
</trkpt>
<trkpt lat="33.810174" lon="-118.3940244">
  <ele>-0.117</ele>
  <time>2026-09-02T22:07:21Z</time>
  <course>186.3</course>
  <speed>0.7283543093852057</speed>
  <fix>3d</fix>
</trkpt>
<trkpt lat="33.810174" lon="-118.3940244">
  <ele>-0.117</ele>
  <time>2026-09-02T22:07:21Z</time>
  <course>186.3</course>
  <speed>0.7283543093852057</speed>
  <fix>3d</fix>
</trkpt>
<trkpt lat="33.8101739" lon="-118.3940245">
  <ele>-0.117</ele>
  <time>2026-09-02T22:07:21Z</time>
  <course>186.3</course>
  <speed>0.7283543093852057</speed>
  <fix>3d</fix>
</trkpt>
<trkpt lat="33.8101739" lon="-118.3940245">
  <ele>-0.117</ele>
  <time>2026-09-02T22:07:21Z</time>
  <course>186.3</course>
  <speed>0.7283543093852057</speed>
  <fix>3d</fix>
</trkpt>
<trkpt lat="33.8101738" lon="-118.3940246">
  <ele>-0.117</ele>
  <time>2026-09-02T22:07:21Z</time>
  <course>186.3</course>
  <speed>0.7283543093852057</speed>
  <fix>3d</fix>
</trkpt>
<trkpt lat="33.8101738" lon="-118.3940246">
  <ele>-0.117</ele>
  <time>2026-09-02T22:07:21Z</time>
  <course>186.3</course>
  <speed>0.7283543093852057</speed>
  <fix>3d</fix>
</trkpt>
<trkpt lat="33.8101748" lon="-118.3940231">
  <ele>-0.1</ele>
  <time>2026-09-02T22:07:21Z</time>
  <course>223.26</course>
  <speed>0.73</speed>
  <fix>3d</fix>
</trkpt>
<trkpt lat="33.8101738" lon="-118.3940247">
  <ele>-0.117</ele>
  <time>2026-09-02T22:07:21Z</time>
  <course>186.3</course>
  <speed>0.7283543093852057</speed>
  <fix>3d</fix>
</trkpt>
<trkpt lat="33.8101737" lon="-118.3940247">
  <ele>-0.116</ele>
  <time>2026-09-02T22:07:21Z</time>
  <course>186.3</course>
  <speed>0.7283543093852057</speed>
  <fix>3d</fix>
</trkpt>
<trkpt lat="33.8101737" lon="-118.3940248">
  <ele>-0.116</ele>
  <time>2026-09-02T22:07:21Z</time>
  <course>186.3</course>
  <speed>0.7283543093852057</speed>
  <fix>3d</fix>
</trkpt>
<trkpt lat="33.8101736" lon="-118.3940248">
  <ele>-0.116</ele>
  <time>2026-09-02T22:07:21Z</time>
  <course>186.3</course>
  <speed>0.7283543093852057</speed>
  <fix>3d</fix>
</trkpt>
<trkpt lat="33.8101736" lon="-118.3940248">
  <ele>-0.116</ele>
  <time>2026-09-02T22:07:21Z</time>
  <course>186.3</course>
  <speed>0.7283543093852057</speed>
  <fix>3d</fix>
</trkpt>
<trkpt lat="33.8101736" lon="-118.3940249">
  <ele>-0.116</ele>
  <time>2026-09-02T22:07:21Z</time>
  <course>186.3</course>
  <speed>0.7283543093852057</speed>
  <fix>3d</fix>
</trkpt>
<trkpt lat="33.8101735" lon="-118.3940249">
  <ele>-0.116</ele>
  <time>2026-09-02T22:07:21Z</time>
  <course>186.3</course>
  <speed>0.7283543093852057</speed>
  <fix>3d</fix>
</trkpt>
<trkpt lat="33.8101735" lon="-118.394025">
  <ele>-0.116</ele>
  <time>2026-09-02T22:07:21Z</time>
  <course>186.3</course>
  <speed>0.7283543093852057</speed>
  <fix>3d</fix>
</trkpt>
<trkpt lat="33.8101734" lon="-118.394025">
  <ele>-0.116</ele>
  <time>2026-09-02T22:07:21Z</time>
  <course>186.3</course>
  <speed>0.7283543093852057</speed>
  <fix>3d</fix>
</trkpt>
<trkpt lat="33.8101734" lon="-118.3940251">
  <ele>-0.116</ele>
  <time>2026-09-02T22:07:21Z</time>
  <course>186.3</course>
  <speed>0.7283543093852057</speed>
  <fix>3d</fix>
</trkpt>
<trkpt lat="33.8101734" lon="-118.3940251">
  <ele>-0.116</ele>
  <time>2026-09-02T22:07:21Z</time>
  <course>186.3</course>
  <speed>0.7283543093852057</speed>
  <fix>3d</fix>
</trkpt>
<trkpt lat="33.8101733" lon="-118.3940251">
  <ele>-0.116</ele>
  <time>2026-09-02T22:07:21Z</time>
  <course>186.3</course>
  <speed>0.7283543093852057</speed>
  <fix>3d</fix>
</trkpt>
<trkpt lat="33.8101738" lon="-118.3940242">
  <ele>-0.11</ele>
  <time>2026-09-02T22:07:21Z</time>
  <course>223.26</course>
  <speed>0.73</speed>
  <fix>3d</fix>
</trkpt>
<trkpt lat="33.8101733" lon="-118.3940252">
  <ele>-0.116</ele>
  <time>2026-09-02T22:07:21Z</time>
  <course>186.3</course>
  <speed>0.7283543093852057</speed>
  <fix>3d</fix>
</trkpt>
<trkpt lat="33.8101733" lon="-118.3940252">
  <ele>-0.116</ele>
  <time>2026-09-02T22:07:21Z</time>
  <course>186.3</course>
  <speed>0.7283543093852057</speed>
  <fix>3d</fix>
</trkpt>
<trkpt lat="33.8101732" lon="-118.3940253">
  <ele>-0.116</ele>
  <time>2026-09-02T22:07:21Z</time>
  <course>186.3</course>
  <speed>0.7283543093852057</speed>
  <fix>3d</fix>
</trkpt>
<trkpt lat="33.8101732" lon="-118.3940254">
  <ele>-0.116</ele>
  <time>2026-09-02T22:07:21Z</time>
  <course>186.3</course>
  <speed>0.7283543093852057</speed>
  <fix>3d</fix>
</trkpt>
<trkpt lat="33.8101731" lon="-118.3940254">
  <ele>-0.116</ele>
  <time>2026-09-02T22:07:21Z</time>
  <course>186.3</course>
  <speed>0.7283543093852057</speed>
  <fix>3d</fix>
</trkpt>
<trkpt lat="33.8101731" lon="-118.3940254">
  <ele>-0.116</ele>
  <time>2026-09-02T22:07:21Z</time>
  <course>186.3</course>
  <speed>0.7283543093852057</speed>
  <fix>3d</fix>
</trkpt>
<trkpt lat="33.810173" lon="-118.3940255">
  <ele>-0.116</ele>
  <time>2026-09-02T22:07:21Z</time>
  <course>186.3</course>
  <speed>0.7283543093852057</speed>
  <fix>3d</fix>
</trkpt>
<trkpt lat="33.810173" lon="-118.3940255">
  <ele>-0.116</ele>
  <time>2026-09-02T22:07:21Z</time>
  <course>186.3</course>
  <speed>0.7283543093852057</speed>
  <fix>3d</fix>
</trkpt>
<trkpt lat="33.810173" lon="-118.3940256">
  <ele>-0.116</ele>
  <time>2026-09-02T22:07:21Z</time>
  <course>186.3</course>
  <speed>0.7283543093852057</speed>
  <fix>3d</fix>
</trkpt>
<trkpt lat="33.8101729" lon="-118.3940256">
  <ele>-0.116</ele>
  <time>2026-09-02T22:07:21Z</time>
  <course>186.3</course>
  <speed>0.7283543093852057</speed>
  <fix>3d</fix>
</trkpt>
<trkpt lat="33.8101729" lon="-118.3940257">
  <ele>-0.115</ele>
  <time>2026-09-02T22:07:21Z</time>
  <course>186.3</course>
  <speed>0.7283543093852057</speed>
  <fix>3d</fix>
</trkpt>
<trkpt lat="33.8101729" lon="-118.3940257">
  <ele>-0.115</ele>
  <time>2026-09-02T22:07:21Z</time>
  <course>186.3</course>
  <speed>0.7283543093852057</speed>
  <fix>3d</fix>
</trkpt>
<trkpt lat="33.8101738" lon="-118.3940242">
  <ele>-0.11</ele>
  <time>2026-09-02T22:07:21Z</time>
  <course>223.26</course>
  <speed>0.73</speed>
  <fix>3d</fix>
</trkpt>
<trkpt lat="33.8101729" lon="-118.3940257">
  <ele>-0.115</ele>
  <time>2026-09-02T22:07:21Z</time>
  <course>186.3</course>
  <speed>0.7283543093852057</speed>
  <fix>3d</fix>
</trkpt>
<trkpt lat="33.8101728" lon="-118.3940258">
  <ele>-0.115</ele>
  <time>2026-09-02T22:07:21Z</time>
  <course>186.3</course>
  <speed>0.7283543093852057</speed>
  <fix>3d</fix>
</trkpt>
<trkpt lat="33.8101727" lon="-118.3940258">
  <ele>-0.115</ele>
  <time>2026-09-02T22:07:21Z</time>
  <course>186.3</course>
  <speed>0.7283543093852057</speed>
  <fix>3d</fix>
</trkpt>
<trkpt lat="33.8101727" lon="-118.3940259">
  <ele>-0.115</ele>
  <time>2026-09-02T22:07:21Z</time>
  <course>186.3</course>
  <speed>0.7283543093852057</speed>
  <fix>3d</fix>
</trkpt>
<trkpt lat="33.8101727" lon="-118.3940259">
  <ele>-0.115</ele>
  <time>2026-09-02T22:07:21Z</time>
  <course>186.3</course>
  <speed>0.7283543093852057</speed>
  <fix>3d</fix>
</trkpt>
<trkpt lat="33.8101726" lon="-118.394026">
  <ele>-0.115</ele>
  <time>2026-09-02T22:07:21Z</time>
  <course>186.3</course>
  <speed>0.7283543093852057</speed>
  <fix>3d</fix>
</trkpt>
<trkpt lat="33.8101726" lon="-118.394026">
  <ele>-0.115</ele>
  <time>2026-09-02T22:07:21Z</time>
  <course>186.3</course>
  <speed>0.7283543093852057</speed>
  <fix>3d</fix>
</trkpt>
<trkpt lat="33.8101726" lon="-118.394026">
  <ele>-0.115</ele>
  <time>2026-09-02T22:07:21Z</time>
  <course>186.29</course>
  <speed>0.7283543093852057</speed>
  <fix>3d</fix>
</trkpt>
<trkpt lat="33.8101725" lon="-118.3940261">
  <ele>-0.115</ele>
  <time>2026-09-02T22:07:21Z</time>
  <course>186.29</course>
  <speed>0.7283543093852057</speed>
  <fix>3d</fix>
</trkpt>
<trkpt lat="33.8101725" lon="-118.3940261">
  <ele>-0.115</ele>
  <time>2026-09-02T22:07:21Z</time>
  <course>186.29</course>
  <speed>0.7283543093852057</speed>
  <fix>3d</fix>
</trkpt>
<trkpt lat="33.8101724" lon="-118.3940262">
  <ele>-0.115</ele>
  <time>2026-09-02T22:07:21Z</time>
  <course>186.29</course>
  <speed>0.7283543093852057</speed>
  <fix>3d</fix>
</trkpt>
<trkpt lat="33.8101724" lon="-118.3940262">
  <ele>-0.115</ele>
  <time>2026-09-02T22:07:21Z</time>
  <course>186.29</course>
  <speed>0.7283543093852057</speed>
  <fix>3d</fix>
</trkpt>
<trkpt lat="33.8101724" lon="-118.3940262">
  <ele>-0.115</ele>
  <time>2026-09-02T22:07:21Z</time>
  <course>186.29</course>
  <speed>0.7283543093852057</speed>
  <fix>3d</fix>
</trkpt>
<trkpt lat="33.8101729" lon="-118.3940253">
  <ele>-0.11</ele>
  <time>2026-09-02T22:07:21Z</time>
  <course>223.26</course>
  <speed>0.73</speed>
  <fix>3d</fix>
</trkpt>
<trkpt lat="33.8101724" lon="-118.3940262">
  <ele>-0.115</ele>
  <time>2026-09-02T22:07:21Z</time>
  <course>186.29</course>
  <speed>0.7283543093852057</speed>
  <fix>3d</fix>
</trkpt>
<trkpt lat="33.8101723" lon="-118.3940263">
  <ele>-0.115</ele>
  <time>2026-09-02T22:07:21Z</time>
  <course>186.29</course>
  <speed>0.7283543093852057</speed>
  <fix>3d</fix>
</trkpt>
<trkpt lat="33.8101723" lon="-118.3940264">
  <ele>-0.115</ele>
  <time>2026-09-02T22:07:21Z</time>
  <course>186.29</course>
  <speed>0.7283543093852057</speed>
  <fix>3d</fix>
</trkpt>
<trkpt lat="33.8101722" lon="-118.3940264">
  <ele>-0.115</ele>
  <time>2026-09-02T22:07:21Z</time>
  <course>186.29</course>
  <speed>0.7283543093852057</speed>
  <fix>3d</fix>
</trkpt>
<trkpt lat="33.8101722" lon="-118.3940264">
  <ele>-0.115</ele>
  <time>2026-09-02T22:07:21Z</time>
  <course>186.29</course>
  <speed>0.7283543093852057</speed>
  <fix>3d</fix>
</trkpt>
<trkpt lat="33.8101722" lon="-118.3940265">
  <ele>-0.115</ele>
  <time>2026-09-02T22:07:21Z</time>
  <course>186.29</course>
  <speed>0.7283543093852057</speed>
  <fix>3d</fix>
</trkpt>
<trkpt lat="33.8101721" lon="-118.3940265">
  <ele>-0.115</ele>
  <time>2026-09-02T22:07:21Z</time>
  <course>186.29</course>
  <speed>0.7283543093852057</speed>
  <fix>3d</fix>
</trkpt>
<trkpt lat="33.8101721" lon="-118.3940266">
  <ele>-0.115</ele>
  <time>2026-09-02T22:07:21Z</time>
  <course>186.29</course>
  <speed>0.7283543093852057</speed>
  <fix>3d</fix>
</trkpt>
<trkpt lat="33.810172" lon="-118.3940266">
  <ele>-0.115</ele>
  <time>2026-09-02T22:07:21Z</time>
  <course>186.29</course>
  <speed>0.7283543093852057</speed>
  <fix>3d</fix>
</trkpt>
<trkpt lat="33.810172" lon="-118.3940267">
  <ele>-0.115</ele>
  <time>2026-09-02T22:07:21Z</time>
  <course>186.29</course>
  <speed>0.7283543093852057</speed>
  <fix>3d</fix>
</trkpt>
<trkpt lat="33.810172" lon="-118.3940267">
  <ele>-0.115</ele>
  <time>2026-09-02T22:07:21Z</time>
  <course>186.29</course>
  <speed>0.7283543093852057</speed>
  <fix>3d</fix>
</trkpt>
<trkpt lat="33.8101719" lon="-118.3940268">
  <ele>-0.115</ele>
  <time>2026-09-02T22:07:21Z</time>
  <course>186.29</course>
  <speed>0.7283543093852057</speed>
  <fix>3d</fix>
</trkpt>
<trkpt lat="33.8101719" lon="-118.3940268">
  <ele>-0.115</ele>
  <time>2026-09-02T22:07:21Z</time>
  <course>186.29</course>
  <speed>0.7283543093852057</speed>
  <fix>3d</fix>
</trkpt>
<trkpt lat="33.8101729" lon="-118.3940253">
  <ele>-0.11</ele>
  <time>2026-09-02T22:07:21Z</time>
  <course>223.26</course>
  <speed>0.73</speed>
  <fix>3d</fix>
</trkpt>
<trkpt lat="33.8101719" lon="-118.3940268">
  <ele>-0.115</ele>
  <time>2026-09-02T22:07:21Z</time>
  <course>186.29</course>
  <speed>0.7283543093852057</speed>
  <fix>3d</fix>
</trkpt>
<trkpt lat="33.8101718" lon="-118.3940269">
  <ele>-0.115</ele>
  <time>2026-09-02T22:07:21Z</time>
  <course>186.29</course>
  <speed>0.7283543093852057</speed>
  <fix>3d</fix>
</trkpt>
<trkpt lat="33.8101718" lon="-118.3940269">
  <ele>-0.115</ele>
  <time>2026-09-02T22:07:21Z</time>
  <course>186.29</course>
  <speed>0.7283543093852057</speed>
  <fix>3d</fix>
</trkpt>
<trkpt lat="33.8101717" lon="-118.394027">
  <ele>-0.115</ele>
  <time>2026-09-02T22:07:21Z</time>
  <course>186.29</course>
  <speed>0.7283543093852057</speed>
  <fix>3d</fix>
</trkpt>
<trkpt lat="33.8101717" lon="-118.394027">
  <ele>-0.115</ele>
  <time>2026-09-02T22:07:21Z</time>
  <course>186.29</course>
  <speed>0.7283543093852057</speed>
  <fix>3d</fix>
</trkpt>
<trkpt lat="33.8101716" lon="-118.3940271">
  <ele>-0.115</ele>
  <time>2026-09-02T22:07:21Z</time>
  <course>186.29</course>
  <speed>0.7283543093852057</speed>
  <fix>3d</fix>
</trkpt>
<trkpt lat="33.8101716" lon="-118.3940271">
  <ele>-0.114</ele>
  <time>2026-09-02T22:07:21Z</time>
  <course>186.29</course>
  <speed>0.7283543093852057</speed>
  <fix>3d</fix>
</trkpt>
<trkpt lat="33.8101716" lon="-118.3940272">
  <ele>-0.114</ele>
  <time>2026-09-02T22:07:21Z</time>
  <course>186.29</course>
  <speed>0.7283543093852057</speed>
  <fix>3d</fix>
</trkpt>
<trkpt lat="33.8101715" lon="-118.3940272">
  <ele>-0.114</ele>
  <time>2026-09-02T22:07:21Z</time>
  <course>186.29</course>
  <speed>0.7283543093852057</speed>
  <fix>3d</fix>
</trkpt>
<trkpt lat="33.8101715" lon="-118.3940272">
  <ele>-0.114</ele>
  <time>2026-09-02T22:07:21Z</time>
  <course>186.29</course>
  <speed>0.7283543093852057</speed>
  <fix>3d</fix>
</trkpt>
<trkpt lat="33.8101715" lon="-118.3940273">
  <ele>-0.114</ele>
  <time>2026-09-02T22:07:21Z</time>
  <course>186.29</course>
  <speed>0.7283543093852057</speed>
  <fix>3d</fix>
</trkpt>
<trkpt lat="33.8101714" lon="-118.3940273">
  <ele>-0.114</ele>
  <time>2026-09-02T22:07:21Z</time>
  <course>186.29</course>
  <speed>0.7283543093852057</speed>
  <fix>3d</fix>
</trkpt>
<trkpt lat="33.8101714" lon="-118.3940273">
  <ele>-0.114</ele>
  <time>2026-09-02T22:07:21Z</time>
  <course>186.29</course>
  <speed>0.7283543093852057</speed>
  <fix>3d</fix>
</trkpt>
<trkpt lat="33.8101719" lon="-118.3940263">
  <ele>-0.1</ele>
  <time>2026-09-02T22:07:21Z</time>
  <course>223.26</course>
  <speed>0.73</speed>
  <fix>3d</fix>
</trkpt>
<trkpt lat="33.8101713" lon="-118.3940274">
  <ele>-0.114</ele>
  <time>2026-09-02T22:07:21Z</time>
  <course>186.29</course>
  <speed>0.7283543093852057</speed>
  <fix>3d</fix>
</trkpt>
<trkpt lat="33.8101713" lon="-118.3940275">
  <ele>-0.114</ele>
  <time>2026-09-02T22:07:21Z</time>
  <course>186.29</course>
  <speed>0.7283543093852057</speed>
  <fix>3d</fix>
</trkpt>
<trkpt lat="33.8101713" lon="-118.3940275">
  <ele>-0.114</ele>
  <time>2026-09-02T22:07:21Z</time>
  <course>186.29</course>
  <speed>0.7283543093852057</speed>
  <fix>3d</fix>
</trkpt>
<trkpt lat="33.8101712" lon="-118.3940276">
  <ele>-0.114</ele>
  <time>2026-09-02T22:07:21Z</time>
  <course>186.29</course>
  <speed>0.7283543093852057</speed>
  <fix>3d</fix>
</trkpt>
<trkpt lat="33.8101712" lon="-118.3940276">
  <ele>-0.114</ele>
  <time>2026-09-02T22:07:21Z</time>
  <course>186.29</course>
  <speed>0.7283543093852057</speed>
  <fix>3d</fix>
</trkpt>
<trkpt lat="33.8101711" lon="-118.3940277">
  <ele>-0.114</ele>
  <time>2026-09-02T22:07:21Z</time>
  <course>186.29</course>
  <speed>0.7283543093852057</speed>
  <fix>3d</fix>
</trkpt>
<trkpt lat="33.8101711" lon="-118.3940277">
  <ele>-0.114</ele>
  <time>2026-09-02T22:07:21Z</time>
  <course>186.29</course>
  <speed>0.7283543093852057</speed>
  <fix>3d</fix>
</trkpt>
<trkpt lat="33.8101711" lon="-118.3940277">
  <ele>-0.113</ele>
  <time>2026-09-02T22:07:21Z</time>
  <course>186.29</course>
  <speed>0.7283543093852057</speed>
  <fix>3d</fix>
</trkpt>
<trkpt lat="33.810171" lon="-118.3940278">
  <ele>-0.113</ele>
  <time>2026-09-02T22:07:21Z</time>
  <course>186.29</course>
  <speed>0.7283543093852057</speed>
  <fix>3d</fix>
</trkpt>
<trkpt lat="33.810171" lon="-118.3940278">
  <ele>-0.113</ele>
  <time>2026-09-02T22:07:21Z</time>
  <course>186.29</course>
  <speed>0.7283543093852057</speed>
  <fix>3d</fix>
</trkpt>
<trkpt lat="33.810171" lon="-118.3940279">
  <ele>-0.113</ele>
  <time>2026-09-02T22:07:21Z</time>
  <course>186.29</course>
  <speed>0.7283543093852057</speed>
  <fix>3d</fix>
</trkpt>
<trkpt lat="33.8101709" lon="-118.3940279">
  <ele>-0.113</ele>
  <time>2026-09-02T22:07:21Z</time>
  <course>186.29</course>
  <speed>0.7283543093852057</speed>
  <fix>3d</fix>
</trkpt>
<trkpt lat="33.8101719" lon="-118.3940263">
  <ele>-0.1</ele>
  <time>2026-09-02T22:07:21Z</time>
  <course>223.26</course>
  <speed>0.73</speed>
  <fix>3d</fix>
</trkpt>
<trkpt lat="33.8101709" lon="-118.3940279">
  <ele>-0.113</ele>
  <time>2026-09-02T22:07:21Z</time>
  <course>186.29</course>
  <speed>0.7283543093852057</speed>
  <fix>3d</fix>
</trkpt>
<trkpt lat="33.8101707" lon="-118.3940281">
  <ele>-0.113</ele>
  <time>2026-09-02T22:07:21Z</time>
  <course>186.29</course>
  <speed>0.7283543093852057</speed>
  <fix>3d</fix>
</trkpt>
<trkpt lat="33.8101707" lon="-118.3940282">
  <ele>-0.113</ele>
  <time>2026-09-02T22:07:21Z</time>
  <course>186.29</course>
  <speed>0.7283543093852057</speed>
  <fix>3d</fix>
</trkpt>
<trkpt lat="33.8101706" lon="-118.3940282">
  <ele>-0.113</ele>
  <time>2026-09-02T22:07:21Z</time>
  <course>186.29</course>
  <speed>0.7283543093852057</speed>
  <fix>3d</fix>
</trkpt>
<trkpt lat="33.8101706" lon="-118.3940283">
  <ele>-0.113</ele>
  <time>2026-09-02T22:07:21Z</time>
  <course>186.29</course>
  <speed>0.7283543093852057</speed>
  <fix>3d</fix>
</trkpt>
<trkpt lat="33.8101706" lon="-118.3940283">
  <ele>-0.113</ele>
  <time>2026-09-02T22:07:21Z</time>
  <course>186.29</course>
  <speed>0.7283543093852057</speed>
  <fix>3d</fix>
</trkpt>
<trkpt lat="33.8101705" lon="-118.3940283">
  <ele>-0.113</ele>
  <time>2026-09-02T22:07:21Z</time>
  <course>186.29</course>
  <speed>0.7283543093852057</speed>
  <fix>3d</fix>
</trkpt>
<trkpt lat="33.8101705" lon="-118.3940284">
  <ele>-0.113</ele>
  <time>2026-09-02T22:07:21Z</time>
  <course>186.29</course>
  <speed>0.7283543093852057</speed>
  <fix>3d</fix>
</trkpt>
<trkpt lat="33.8101705" lon="-118.3940284">
  <ele>-0.113</ele>
  <time>2026-09-02T22:07:21Z</time>
  <course>186.29</course>
  <speed>0.7283543093852057</speed>
  <fix>3d</fix>
</trkpt>
<trkpt lat="33.8101709" lon="-118.3940274">
  <ele>-0.1</ele>
  <time>2026-09-02T22:07:21Z</time>
  <course>223.26</course>
  <speed>0.73</speed>
  <fix>3d</fix>
</trkpt>
<trkpt lat="33.8101704" lon="-118.3940284">
  <ele>-0.113</ele>
  <time>2026-09-02T22:07:21Z</time>
  <course>186.29</course>
  <speed>0.7283543093852057</speed>
  <fix>3d</fix>
</trkpt>
<trkpt lat="33.8101704" lon="-118.3940285">
  <ele>-0.113</ele>
  <time>2026-09-02T22:07:21Z</time>
  <course>186.29</course>
  <speed>0.7283543093852057</speed>
  <fix>3d</fix>
</trkpt>
<trkpt lat="33.8101703" lon="-118.3940286">
  <ele>-0.113</ele>
  <time>2026-09-02T22:07:21Z</time>
  <course>186.29</course>
  <speed>0.7283543093852057</speed>
  <fix>3d</fix>
</trkpt>
<trkpt lat="33.8101703" lon="-118.3940286">
  <ele>-0.113</ele>
  <time>2026-09-02T22:07:21Z</time>
  <course>186.29</course>
  <speed>0.7283543093852057</speed>
  <fix>3d</fix>
</trkpt>
<trkpt lat="33.8101702" lon="-118.3940287">
  <ele>-0.113</ele>
  <time>2026-09-02T22:07:21Z</time>
  <course>186.29</course>
  <speed>0.7283543093852057</speed>
  <fix>3d</fix>
</trkpt>
<trkpt lat="33.8101702" lon="-118.3940287">
  <ele>-0.113</ele>
  <time>2026-09-02T22:07:21Z</time>
  <course>186.29</course>
  <speed>0.7283543093852057</speed>
  <fix>3d</fix>
</trkpt>
<trkpt lat="33.8101701" lon="-118.3940288">
  <ele>-0.113</ele>
  <time>2026-09-02T22:07:21Z</time>
  <course>186.29</course>
  <speed>0.7283543093852057</speed>
  <fix>3d</fix>
</trkpt>
<trkpt lat="33.8101701" lon="-118.3940288">
  <ele>-0.113</ele>
  <time>2026-09-02T22:07:21Z</time>
  <course>186.29</course>
  <speed>0.7283543093852057</speed>
  <fix>3d</fix>
</trkpt>
<trkpt lat="33.8101701" lon="-118.3940289">
  <ele>-0.113</ele>
  <time>2026-09-02T22:07:21Z</time>
  <course>186.29</course>
  <speed>0.7283543093852057</speed>
  <fix>3d</fix>
</trkpt>
<trkpt lat="33.81017" lon="-118.3940289">
  <ele>-0.113</ele>
  <time>2026-09-02T22:07:21Z</time>
  <course>186.29</course>
  <speed>0.7283543093852057</speed>
  <fix>3d</fix>
</trkpt>
<trkpt lat="33.81017" lon="-118.3940289">
  <ele>-0.113</ele>
  <time>2026-09-02T22:07:21Z</time>
  <course>186.29</course>
  <speed>0.7283543093852057</speed>
  <fix>3d</fix>
</trkpt>
<trkpt lat="33.81017" lon="-118.394029">
  <ele>-0.113</ele>
  <time>2026-09-02T22:07:21Z</time>
  <course>186.29</course>
  <speed>0.7283543093852057</speed>
  <fix>3d</fix>
</trkpt>
<trkpt lat="33.8101709" lon="-118.3940274">
  <ele>-0.1</ele>
  <time>2026-09-02T22:07:21Z</time>
  <course>223.26</course>
  <speed>0.73</speed>
  <fix>3d</fix>
</trkpt>
<trkpt lat="33.8101699" lon="-118.394029">
  <ele>-0.113</ele>
  <time>2026-09-02T22:07:21Z</time>
  <course>186.29</course>
  <speed>0.7283543093852057</speed>
  <fix>3d</fix>
</trkpt>
<trkpt lat="33.8101699" lon="-118.3940291">
  <ele>-0.113</ele>
  <time>2026-09-02T22:07:21Z</time>
  <course>186.29</course>
  <speed>0.7283543093852057</speed>
  <fix>3d</fix>
</trkpt>
<trkpt lat="33.8101698" lon="-118.3940291">
  <ele>-0.113</ele>
  <time>2026-09-02T22:07:21Z</time>
  <course>186.29</course>
  <speed>0.7283543093852057</speed>
  <fix>3d</fix>
</trkpt>
<trkpt lat="33.8101698" lon="-118.3940292">
  <ele>-0.113</ele>
  <time>2026-09-02T22:07:21Z</time>
  <course>186.29</course>
  <speed>0.7283543093852057</speed>
  <fix>3d</fix>
</trkpt>
<trkpt lat="33.8101697" lon="-118.3940292">
  <ele>-0.113</ele>
  <time>2026-09-02T22:07:21Z</time>
  <course>186.29</course>
  <speed>0.7283543093852057</speed>
  <fix>3d</fix>
</trkpt>
<trkpt lat="33.8101697" lon="-118.3940293">
  <ele>-0.113</ele>
  <time>2026-09-02T22:07:21Z</time>
  <course>186.29</course>
  <speed>0.7283543093852057</speed>
  <fix>3d</fix>
</trkpt>
<trkpt lat="33.8101697" lon="-118.3940293">
  <ele>-0.113</ele>
  <time>2026-09-02T22:07:21Z</time>
  <course>186.29</course>
  <speed>0.7283543093852057</speed>
  <fix>3d</fix>
</trkpt>
<trkpt lat="33.8101696" lon="-118.3940294">
  <ele>-0.113</ele>
  <time>2026-09-02T22:07:21Z</time>
  <course>186.29</course>
  <speed>0.7283543093852057</speed>
  <fix>3d</fix>
</trkpt>
<trkpt lat="33.8101696" lon="-118.3940294">
  <ele>-0.113</ele>
  <time>2026-09-02T22:07:21Z</time>
  <course>186.29</course>
  <speed>0.7283543093852057</speed>
  <fix>3d</fix>
</trkpt>
<trkpt lat="33.8101695" lon="-118.3940295">
  <ele>-0.113</ele>
  <time>2026-09-02T22:07:21Z</time>
  <course>186.29</course>
  <speed>0.7283543093852057</speed>
  <fix>3d</fix>
</trkpt>
<trkpt lat="33.8101695" lon="-118.3940295">
  <ele>-0.113</ele>
  <time>2026-09-02T22:07:21Z</time>
  <course>186.29</course>
  <speed>0.7283543093852057</speed>
  <fix>3d</fix>
</trkpt>
<trkpt lat="33.8101695" lon="-118.3940295">
  <ele>-0.113</ele>
  <time>2026-09-02T22:07:21Z</time>
  <course>186.29</course>
  <speed>0.7283543093852057</speed>
  <fix>3d</fix>
</trkpt>
<trkpt lat="33.81017" lon="-118.3940285">
  <ele>-0.1</ele>
  <time>2026-09-02T22:07:21Z</time>
  <course>223.26</course>
  <speed>0.73</speed>
  <fix>3d</fix>
</trkpt>
<trkpt lat="33.8101694" lon="-118.3940296">
  <ele>-0.113</ele>
  <time>2026-09-02T22:07:21Z</time>
  <course>186.29</course>
  <speed>0.7283543093852057</speed>
  <fix>3d</fix>
</trkpt>
<trkpt lat="33.8101694" lon="-118.3940296">
  <ele>-0.113</ele>
  <time>2026-09-02T22:07:21Z</time>
  <course>186.29</course>
  <speed>0.7283543093852057</speed>
  <fix>3d</fix>
</trkpt>
<trkpt lat="33.8101693" lon="-118.3940297">
  <ele>-0.113</ele>
  <time>2026-09-02T22:07:21Z</time>
  <course>186.29</course>
  <speed>0.7283543093852057</speed>
  <fix>3d</fix>
</trkpt>
<trkpt lat="33.8101693" lon="-118.3940297">
  <ele>-0.113</ele>
  <time>2026-09-02T22:07:21Z</time>
  <course>186.29</course>
  <speed>0.7283543093852057</speed>
  <fix>3d</fix>
</trkpt>
<trkpt lat="33.8101693" lon="-118.3940298">
  <ele>-0.114</ele>
  <time>2026-09-02T22:07:21Z</time>
  <course>186.29</course>
  <speed>0.7283543093852057</speed>
  <fix>3d</fix>
</trkpt>
<trkpt lat="33.8101692" lon="-118.3940298">
  <ele>-0.114</ele>
  <time>2026-09-02T22:07:21Z</time>
  <course>186.29</course>
  <speed>0.7283543093852057</speed>
  <fix>3d</fix>
</trkpt>
<trkpt lat="33.8101692" lon="-118.3940299">
  <ele>-0.114</ele>
  <time>2026-09-02T22:07:21Z</time>
  <course>186.29</course>
  <speed>0.7283543093852057</speed>
  <fix>3d</fix>
</trkpt>
<trkpt lat="33.8101691" lon="-118.3940299">
  <ele>-0.114</ele>
  <time>2026-09-02T22:07:21Z</time>
  <course>186.29</course>
  <speed>0.7283543093852057</speed>
  <fix>3d</fix>
</trkpt>
<trkpt lat="33.8101691" lon="-118.39403">
  <ele>-0.114</ele>
  <time>2026-09-02T22:07:21Z</time>
  <course>186.29</course>
  <speed>0.7283543093852057</speed>
  <fix>3d</fix>
</trkpt>
<trkpt lat="33.8101691" lon="-118.39403">
  <ele>-0.114</ele>
  <time>2026-09-02T22:07:21Z</time>
  <course>186.29</course>
  <speed>0.7283543093852057</speed>
  <fix>3d</fix>
</trkpt>
<trkpt lat="33.810169" lon="-118.39403">
  <ele>-0.114</ele>
  <time>2026-09-02T22:07:21Z</time>
  <course>186.29</course>
  <speed>0.7283543093852057</speed>
  <fix>3d</fix>
</trkpt>
<trkpt lat="33.810169" lon="-118.39403">
  <ele>-0.114</ele>
  <time>2026-09-02T22:07:21Z</time>
  <course>186.29</course>
  <speed>0.7283543093852057</speed>
  <fix>3d</fix>
</trkpt>
<trkpt lat="33.81017" lon="-118.3940285">
  <ele>-0.1</ele>
  <time>2026-09-02T22:07:21Z</time>
  <course>223.26</course>
  <speed>0.73</speed>
  <fix>3d</fix>
</trkpt>
<trkpt lat="33.810169" lon="-118.3940301">
  <ele>-0.114</ele>
  <time>2026-09-02T22:07:21Z</time>
  <course>186.29</course>
  <speed>0.7283543093852057</speed>
  <fix>3d</fix>
</trkpt>
<trkpt lat="33.8101689" lon="-118.3940301">
  <ele>-0.114</ele>
  <time>2026-09-02T22:07:21Z</time>
  <course>186.29</course>
  <speed>0.7283543093852057</speed>
  <fix>3d</fix>
</trkpt>
<trkpt lat="33.8101689" lon="-118.3940302">
  <ele>-0.114</ele>
  <time>2026-09-02T22:07:21Z</time>
  <course>186.29</course>
  <speed>0.7283543093852057</speed>
  <fix>3d</fix>
</trkpt>
<trkpt lat="33.8101688" lon="-118.3940302">
  <ele>-0.114</ele>
  <time>2026-09-02T22:07:21Z</time>
  <course>186.29</course>
  <speed>0.7283543093852057</speed>
  <fix>3d</fix>
</trkpt>
<trkpt lat="33.8101688" lon="-118.3940303">
  <ele>-0.114</ele>
  <time>2026-09-02T22:07:21Z</time>
  <course>186.29</course>
  <speed>0.7283543093852057</speed>
  <fix>3d</fix>
</trkpt>
<trkpt lat="33.8101688" lon="-118.3940303">
  <ele>-0.114</ele>
  <time>2026-09-02T22:07:21Z</time>
  <course>186.29</course>
  <speed>0.7283543093852057</speed>
  <fix>3d</fix>
</trkpt>
<trkpt lat="33.8101687" lon="-118.3940304">
  <ele>-0.114</ele>
  <time>2026-09-02T22:07:21Z</time>
  <course>186.29</course>
  <speed>0.7283543093852057</speed>
  <fix>3d</fix>
</trkpt>
<trkpt lat="33.8101687" lon="-118.3940304">
  <ele>-0.114</ele>
  <time>2026-09-02T22:07:21Z</time>
  <course>186.29</course>
  <speed>0.7283543093852057</speed>
  <fix>3d</fix>
</trkpt>
<trkpt lat="33.8101686" lon="-118.3940305">
  <ele>-0.114</ele>
  <time>2026-09-02T22:07:21Z</time>
  <course>186.29</course>
  <speed>0.7283543093852057</speed>
  <fix>3d</fix>
</trkpt>
<trkpt lat="33.8101686" lon="-118.3940305">
  <ele>-0.114</ele>
  <time>2026-09-02T22:07:21Z</time>
  <course>186.29</course>
  <speed>0.7283543093852057</speed>
  <fix>3d</fix>
</trkpt>
<trkpt lat="33.8101686" lon="-118.3940305">
  <ele>-0.114</ele>
  <time>2026-09-02T22:07:21Z</time>
  <course>186.29</course>
  <speed>0.7283543093852057</speed>
  <fix>3d</fix>
</trkpt>
<trkpt lat="33.8101685" lon="-118.3940306">
  <ele>-0.114</ele>
  <time>2026-09-02T22:07:21Z</time>
  <course>186.29</course>
  <speed>0.7283543093852057</speed>
  <fix>3d</fix>
</trkpt>
<trkpt lat="33.8101685" lon="-118.3940306">
  <ele>-0.114</ele>
  <time>2026-09-02T22:07:21Z</time>
  <course>186.29</course>
  <speed>0.7283543093852057</speed>
  <fix>3d</fix>
</trkpt>
<trkpt lat="33.810169" lon="-118.3940296">
  <ele>-0.11</ele>
  <time>2026-09-02T22:07:21Z</time>
  <course>223.26</course>
  <speed>0.73</speed>
  <fix>3d</fix>
</trkpt>
<trkpt lat="33.8101684" lon="-118.3940307">
  <ele>-0.114</ele>
  <time>2026-09-02T22:07:21Z</time>
  <course>186.29</course>
  <speed>0.7283543093852057</speed>
  <fix>3d</fix>
</trkpt>
<trkpt lat="33.8101684" lon="-118.3940308">
  <ele>-0.114</ele>
  <time>2026-09-02T22:07:21Z</time>
  <course>186.29</course>
  <speed>0.7283543093852057</speed>
  <fix>3d</fix>
</trkpt>
<trkpt lat="33.8101683" lon="-118.3940308">
  <ele>-0.114</ele>
  <time>2026-09-02T22:07:21Z</time>
  <course>186.29</course>
  <speed>0.7283543093852057</speed>
  <fix>3d</fix>
</trkpt>
<trkpt lat="33.8101683" lon="-118.3940309">
  <ele>-0.114</ele>
  <time>2026-09-02T22:07:21Z</time>
  <course>186.29</course>
  <speed>0.7283543093852057</speed>
  <fix>3d</fix>
</trkpt>
<trkpt lat="33.8101682" lon="-118.3940309">
  <ele>-0.114</ele>
  <time>2026-09-02T22:07:21Z</time>
  <course>186.29</course>
  <speed>0.7283543093852057</speed>
  <fix>3d</fix>
</trkpt>
<trkpt lat="33.8101682" lon="-118.3940309">
  <ele>-0.114</ele>
  <time>2026-09-02T22:07:21Z</time>
  <course>186.29</course>
  <speed>0.7283543093852057</speed>
  <fix>3d</fix>
</trkpt>
<trkpt lat="33.8101682" lon="-118.394031">
  <ele>-0.114</ele>
  <time>2026-09-02T22:07:21Z</time>
  <course>186.29</course>
  <speed>0.7283543093852057</speed>
  <fix>3d</fix>
</trkpt>
<trkpt lat="33.8101681" lon="-118.394031">
  <ele>-0.114</ele>
  <time>2026-09-02T22:07:21Z</time>
  <course>186.29</course>
  <speed>0.7283543093852057</speed>
  <fix>3d</fix>
</trkpt>
<trkpt lat="33.8101681" lon="-118.3940311">
  <ele>-0.114</ele>
  <time>2026-09-02T22:07:21Z</time>
  <course>186.29</course>
  <speed>0.7283543093852057</speed>
  <fix>3d</fix>
</trkpt>
<trkpt lat="33.8101681" lon="-118.3940311">
  <ele>-0.114</ele>
  <time>2026-09-02T22:07:21Z</time>
  <course>186.29</course>
  <speed>0.7283543093852057</speed>
  <fix>3d</fix>
</trkpt>
<trkpt lat="33.810168" lon="-118.3940311">
  <ele>-0.114</ele>
  <time>2026-09-02T22:07:21Z</time>
  <course>186.29</course>
  <speed>0.7283543093852057</speed>
  <fix>3d</fix>
</trkpt>
<trkpt lat="33.810169" lon="-118.3940296">
  <ele>-0.11</ele>
  <time>2026-09-02T22:07:21Z</time>
  <course>223.26</course>
  <speed>0.73</speed>
  <fix>3d</fix>
</trkpt>
<trkpt lat="33.810168" lon="-118.3940311">
  <ele>-0.113</ele>
  <time>2026-09-02T22:07:21Z</time>
  <course>186.29</course>
  <speed>0.7283543093852057</speed>
  <fix>3d</fix>
</trkpt>
<trkpt lat="33.810168" lon="-118.3940312">
  <ele>-0.113</ele>
  <time>2026-09-02T22:07:21Z</time>
  <course>186.29</course>
  <speed>0.7283543093852057</speed>
  <fix>3d</fix>
</trkpt>
<trkpt lat="33.8101679" lon="-118.3940313">
  <ele>-0.113</ele>
  <time>2026-09-02T22:07:21Z</time>
  <course>186.29</course>
  <speed>0.7283543093852057</speed>
  <fix>3d</fix>
</trkpt>
<trkpt lat="33.8101679" lon="-118.3940313">
  <ele>-0.113</ele>
  <time>2026-09-02T22:07:21Z</time>
  <course>186.29</course>
  <speed>0.7283543093852057</speed>
  <fix>3d</fix>
</trkpt>
<trkpt lat="33.8101678" lon="-118.3940314">
  <ele>-0.113</ele>
  <time>2026-09-02T22:07:21Z</time>
  <course>186.29</course>
  <speed>0.7283543093852057</speed>
  <fix>3d</fix>
</trkpt>
<trkpt lat="33.8101678" lon="-118.3940314">
  <ele>-0.113</ele>
  <time>2026-09-02T22:07:21Z</time>
  <course>186.29</course>
  <speed>0.7283543093852057</speed>
  <fix>3d</fix>
</trkpt>
<trkpt lat="33.8101678" lon="-118.3940315">
  <ele>-0.113</ele>
  <time>2026-09-02T22:07:21Z</time>
  <course>186.29</course>
  <speed>0.7283543093852057</speed>
  <fix>3d</fix>
</trkpt>
<trkpt lat="33.8101677" lon="-118.3940315">
  <ele>-0.113</ele>
  <time>2026-09-02T22:07:21Z</time>
  <course>186.29</course>
  <speed>0.7283543093852057</speed>
  <fix>3d</fix>
</trkpt>
<trkpt lat="33.8101677" lon="-118.3940315">
  <ele>-0.113</ele>
  <time>2026-09-02T22:07:21Z</time>
  <course>186.29</course>
  <speed>0.7283543093852057</speed>
  <fix>3d</fix>
</trkpt>
<trkpt lat="33.8101677" lon="-118.3940316">
  <ele>-0.112</ele>
  <time>2026-09-02T22:07:21Z</time>
  <course>186.29</course>
  <speed>0.7283543093852057</speed>
  <fix>3d</fix>
</trkpt>
<trkpt lat="33.8101676" lon="-118.3940316">
  <ele>-0.112</ele>
  <time>2026-09-02T22:07:21Z</time>
  <course>186.29</course>
  <speed>0.7283543093852057</speed>
  <fix>3d</fix>
</trkpt>
<trkpt lat="33.8101676" lon="-118.3940317">
  <ele>-0.112</ele>
  <time>2026-09-02T22:07:21Z</time>
  <course>186.29</course>
  <speed>0.7283543093852057</speed>
  <fix>3d</fix>
</trkpt>
<trkpt lat="33.8101676" lon="-118.3940317">
  <ele>-0.112</ele>
  <time>2026-09-02T22:07:21Z</time>
  <course>186.29</course>
  <speed>0.7283543093852057</speed>
  <fix>3d</fix>
</trkpt>
<trkpt lat="33.8101681" lon="-118.3940307">
  <ele>-0.11</ele>
  <time>2026-09-02T22:07:21Z</time>
  <course>223.26</course>
  <speed>0.73</speed>
  <fix>3d</fix>
</trkpt>
<trkpt lat="33.8101675" lon="-118.3940318">
  <ele>-0.112</ele>
  <time>2026-09-02T22:07:21Z</time>
  <course>186.29</course>
  <speed>0.7283543093852057</speed>
  <fix>3d</fix>
</trkpt>
<trkpt lat="33.8101674" lon="-118.3940318">
  <ele>-0.112</ele>
  <time>2026-09-02T22:07:21Z</time>
  <course>186.29</course>
  <speed>0.7283543093852057</speed>
  <fix>3d</fix>
</trkpt>
<trkpt lat="33.8101674" lon="-118.3940318">
  <ele>-0.112</ele>
  <time>2026-09-02T22:07:21Z</time>
  <course>186.29</course>
  <speed>0.7283543093852057</speed>
  <fix>3d</fix>
</trkpt>
<trkpt lat="33.8101674" lon="-118.3940319">
  <ele>-0.112</ele>
  <time>2026-09-02T22:07:21Z</time>
  <course>186.29</course>
  <speed>0.7283543093852057</speed>
  <fix>3d</fix>
</trkpt>
<trkpt lat="33.8101673" lon="-118.3940319">
  <ele>-0.112</ele>
  <time>2026-09-02T22:07:21Z</time>
  <course>186.29</course>
  <speed>0.7283543093852057</speed>
  <fix>3d</fix>
</trkpt>
<trkpt lat="33.8101673" lon="-118.394032">
  <ele>-0.111</ele>
  <time>2026-09-02T22:07:21Z</time>
  <course>186.29</course>
  <speed>0.7283543093852057</speed>
  <fix>3d</fix>
</trkpt>
<trkpt lat="33.8101673" lon="-118.394032">
  <ele>-0.111</ele>
  <time>2026-09-02T22:07:21Z</time>
  <course>186.29</course>
  <speed>0.7283543093852057</speed>
  <fix>3d</fix>
</trkpt>
<trkpt lat="33.8101672" lon="-118.3940321">
  <ele>-0.111</ele>
  <time>2026-09-02T22:07:21Z</time>
  <course>186.29</course>
  <speed>0.7283543093852057</speed>
  <fix>3d</fix>
</trkpt>
<trkpt lat="33.8101672" lon="-118.3940321">
  <ele>-0.111</ele>
  <time>2026-09-02T22:07:21Z</time>
  <course>186.29</course>
  <speed>0.7283543093852057</speed>
  <fix>3d</fix>
</trkpt>
<trkpt lat="33.8101671" lon="-118.3940322">
  <ele>-0.111</ele>
  <time>2026-09-02T22:07:21Z</time>
  <course>186.29</course>
  <speed>0.7283543093852057</speed>
  <fix>3d</fix>
</trkpt>
<trkpt lat="33.8101671" lon="-118.3940322">
  <ele>-0.111</ele>
  <time>2026-09-02T22:07:21Z</time>
  <course>186.29</course>
  <speed>0.7283543093852057</speed>
  <fix>3d</fix>
</trkpt>
<trkpt lat="33.8101681" lon="-118.3940307">
  <ele>-0.11</ele>
  <time>2026-09-02T22:07:21Z</time>
  <course>223.26</course>
  <speed>0.73</speed>
  <fix>3d</fix>
</trkpt>
<trkpt lat="33.8101671" lon="-118.3940322">
  <ele>-0.111</ele>
  <time>2026-09-02T22:07:21Z</time>
  <course>186.29</course>
  <speed>0.7283543093852057</speed>
  <fix>3d</fix>
</trkpt>
<trkpt lat="33.810167" lon="-118.3940323">
  <ele>-0.111</ele>
  <time>2026-09-02T22:07:21Z</time>
  <course>186.29</course>
  <speed>0.7283543093852057</speed>
  <fix>3d</fix>
</trkpt>
<trkpt lat="33.810167" lon="-118.3940324">
  <ele>-0.111</ele>
  <time>2026-09-02T22:07:21Z</time>
  <course>186.29</course>
  <speed>0.7283543093852057</speed>
  <fix>3d</fix>
</trkpt>
<trkpt lat="33.8101669" lon="-118.3940324">
  <ele>-0.111</ele>
  <time>2026-09-02T22:07:21Z</time>
  <course>186.29</course>
  <speed>0.7283543093852057</speed>
  <fix>3d</fix>
</trkpt>
<trkpt lat="33.8101669" lon="-118.3940324">
  <ele>-0.111</ele>
  <time>2026-09-02T22:07:21Z</time>
  <course>186.29</course>
  <speed>0.7283543093852057</speed>
  <fix>3d</fix>
</trkpt>
<trkpt lat="33.8101669" lon="-118.3940325">
  <ele>-0.111</ele>
  <time>2026-09-02T22:07:21Z</time>
  <course>186.29</course>
  <speed>0.7283543093852057</speed>
  <fix>3d</fix>
</trkpt>
<trkpt lat="33.8101668" lon="-118.3940325">
  <ele>-0.11</ele>
  <time>2026-09-02T22:07:21Z</time>
  <course>186.29</course>
  <speed>0.7283543093852057</speed>
  <fix>3d</fix>
</trkpt>
<trkpt lat="33.8101668" lon="-118.3940326">
  <ele>-0.11</ele>
  <time>2026-09-02T22:07:21Z</time>
  <course>186.29</course>
  <speed>0.7283543093852057</speed>
  <fix>3d</fix>
</trkpt>
<trkpt lat="33.8101667" lon="-118.3940326">
  <ele>-0.11</ele>
  <time>2026-09-02T22:07:21Z</time>
  <course>186.29</course>
  <speed>0.7283543093852057</speed>
  <fix>3d</fix>
</trkpt>
<trkpt lat="33.8101667" lon="-118.3940326">
  <ele>-0.11</ele>
  <time>2026-09-02T22:07:21Z</time>
  <course>186.29</course>
  <speed>0.7283543093852057</speed>
  <fix>3d</fix>
</trkpt>
<trkpt lat="33.8101667" lon="-118.3940327">
  <ele>-0.11</ele>
  <time>2026-09-02T22:07:21Z</time>
  <course>186.29</course>
  <speed>0.7283543093852057</speed>
  <fix>3d</fix>
</trkpt>
<trkpt lat="33.8101666" lon="-118.3940327">
  <ele>-0.11</ele>
  <time>2026-09-02T22:07:21Z</time>
  <course>186.29</course>
  <speed>0.7283543093852057</speed>
  <fix>3d</fix>
</trkpt>
<trkpt lat="33.8101666" lon="-118.3940328">
  <ele>-0.11</ele>
  <time>2026-09-02T22:07:21Z</time>
  <course>186.29</course>
  <speed>0.7283543093852057</speed>
  <fix>3d</fix>
</trkpt>
<trkpt lat="33.8101671" lon="-118.3940318">
  <ele>-0.1</ele>
  <time>2026-09-02T22:07:21Z</time>
  <course>223.26</course>
  <speed>0.73</speed>
  <fix>3d</fix>
</trkpt>
<trkpt lat="33.8101666" lon="-118.3940328">
  <ele>-0.11</ele>
  <time>2026-09-02T22:07:21Z</time>
  <course>186.29</course>
  <speed>0.7283543093852057</speed>
  <fix>3d</fix>
</trkpt>
<trkpt lat="33.8101665" lon="-118.3940328">
  <ele>-0.11</ele>
  <time>2026-09-02T22:07:21Z</time>
  <course>186.29</course>
  <speed>0.7283543093852057</speed>
  <fix>3d</fix>
</trkpt>
<trkpt lat="33.8101665" lon="-118.3940329">
  <ele>-0.11</ele>
  <time>2026-09-02T22:07:21Z</time>
  <course>186.29</course>
  <speed>0.7283543093852057</speed>
  <fix>3d</fix>
</trkpt>
<trkpt lat="33.8101665" lon="-118.3940329">
  <ele>-0.11</ele>
  <time>2026-09-02T22:07:21Z</time>
  <course>186.29</course>
  <speed>0.7283543093852057</speed>
  <fix>3d</fix>
</trkpt>
<trkpt lat="33.8101664" lon="-118.394033">
  <ele>-0.11</ele>
  <time>2026-09-02T22:07:21Z</time>
  <course>186.29</course>
  <speed>0.7283543093852057</speed>
  <fix>3d</fix>
</trkpt>
<trkpt lat="33.8101664" lon="-118.394033">
  <ele>-0.11</ele>
  <time>2026-09-02T22:07:21Z</time>
  <course>186.29</course>
  <speed>0.7283543093852057</speed>
  <fix>3d</fix>
</trkpt>
<trkpt lat="33.8101663" lon="-118.3940331">
  <ele>-0.11</ele>
  <time>2026-09-02T22:07:21Z</time>
  <course>186.29</course>
  <speed>0.7283543093852057</speed>
  <fix>3d</fix>
</trkpt>
<trkpt lat="33.8101663" lon="-118.3940331">
  <ele>-0.11</ele>
  <time>2026-09-02T22:07:21Z</time>
  <course>186.29</course>
  <speed>0.7283543093852057</speed>
  <fix>3d</fix>
</trkpt>
<trkpt lat="33.8101663" lon="-118.3940331">
  <ele>-0.11</ele>
  <time>2026-09-02T22:07:21Z</time>
  <course>186.29</course>
  <speed>0.7283543093852057</speed>
  <fix>3d</fix>
</trkpt>
<trkpt lat="33.8101662" lon="-118.3940332">
  <ele>-0.11</ele>
  <time>2026-09-02T22:07:21Z</time>
  <course>186.29</course>
  <speed>0.7283543093852057</speed>
  <fix>3d</fix>
</trkpt>
<trkpt lat="33.8101662" lon="-118.3940333">
  <ele>-0.111</ele>
  <time>2026-09-02T22:07:21Z</time>
  <course>186.29</course>
  <speed>0.7283543093852057</speed>
  <fix>3d</fix>
</trkpt>
<trkpt lat="33.8101661" lon="-118.3940333">
  <ele>-0.111</ele>
  <time>2026-09-02T22:07:21Z</time>
  <course>186.29</course>
  <speed>0.7283543093852057</speed>
  <fix>3d</fix>
</trkpt>
<trkpt lat="33.8101661" lon="-118.3940333">
  <ele>-0.111</ele>
  <time>2026-09-02T22:07:21Z</time>
  <course>186.29</course>
  <speed>0.7283543093852057</speed>
  <fix>3d</fix>
</trkpt>
<trkpt lat="33.8101671" lon="-118.3940318">
  <ele>-0.1</ele>
  <time>2026-09-02T22:07:21Z</time>
  <course>223.26</course>
  <speed>0.73</speed>
  <fix>3d</fix>
</trkpt>
<trkpt lat="33.810166" lon="-118.3940334">
  <ele>-0.111</ele>
  <time>2026-09-02T22:07:21Z</time>
  <course>186.29</course>
  <speed>0.7283543093852057</speed>
  <fix>3d</fix>
</trkpt>
<trkpt lat="33.810166" lon="-118.3940335">
  <ele>-0.111</ele>
  <time>2026-09-02T22:07:21Z</time>
  <course>186.29</course>
  <speed>0.7283543093852057</speed>
  <fix>3d</fix>
</trkpt>
<trkpt lat="33.8101659" lon="-118.3940335">
  <ele>-0.111</ele>
  <time>2026-09-02T22:07:21Z</time>
  <course>186.29</course>
  <speed>0.7283543093852057</speed>
  <fix>3d</fix>
</trkpt>
<trkpt lat="33.8101659" lon="-118.3940336">
  <ele>-0.111</ele>
  <time>2026-09-02T22:07:21Z</time>
  <course>186.29</course>
  <speed>0.7283543093852057</speed>
  <fix>3d</fix>
</trkpt>
<trkpt lat="33.8101659" lon="-118.3940336">
  <ele>-0.111</ele>
  <time>2026-09-02T22:07:21Z</time>
  <course>186.29</course>
  <speed>0.7283543093852057</speed>
  <fix>3d</fix>
</trkpt>
<trkpt lat="33.8101658" lon="-118.3940337">
  <ele>-0.111</ele>
  <time>2026-09-02T22:07:21Z</time>
  <course>186.29</course>
  <speed>0.7283543093852057</speed>
  <fix>3d</fix>
</trkpt>
<trkpt lat="33.8101658" lon="-118.3940337">
  <ele>-0.111</ele>
  <time>2026-09-02T22:07:21Z</time>
  <course>186.29</course>
  <speed>0.7283543093852057</speed>
  <fix>3d</fix>
</trkpt>
<trkpt lat="33.8101658" lon="-118.3940337">
  <ele>-0.111</ele>
  <time>2026-09-02T22:07:21Z</time>
  <course>186.29</course>
  <speed>0.7283543093852057</speed>
  <fix>3d</fix>
</trkpt>
<trkpt lat="33.8101657" lon="-118.3940338">
  <ele>-0.111</ele>
  <time>2026-09-02T22:07:21Z</time>
  <course>186.29</course>
  <speed>0.7283543093852057</speed>
  <fix>3d</fix>
</trkpt>
<trkpt lat="33.8101657" lon="-118.3940338">
  <ele>-0.111</ele>
  <time>2026-09-02T22:07:21Z</time>
  <course>186.29</course>
  <speed>0.7283543093852057</speed>
  <fix>3d</fix>
</trkpt>
<trkpt lat="33.8101657" lon="-118.3940338">
  <ele>-0.111</ele>
  <time>2026-09-02T22:07:21Z</time>
  <course>186.29</course>
  <speed>0.7283543093852057</speed>
  <fix>3d</fix>
</trkpt>
<trkpt lat="33.8101662" lon="-118.3940329">
  <ele>-0.1</ele>
  <time>2026-09-02T22:07:21Z</time>
  <course>223.26</course>
  <speed>0.73</speed>
  <fix>3d</fix>
</trkpt>
<trkpt lat="33.8101656" lon="-118.3940339">
  <ele>-0.111</ele>
  <time>2026-09-02T22:07:21Z</time>
  <course>186.29</course>
  <speed>0.7283543093852057</speed>
  <fix>3d</fix>
</trkpt>
<trkpt lat="33.8101656" lon="-118.3940339">
  <ele>-0.111</ele>
  <time>2026-09-02T22:07:21Z</time>
  <course>186.29</course>
  <speed>0.7283543093852057</speed>
  <fix>3d</fix>
</trkpt>
<trkpt lat="33.8101655" lon="-118.394034">
  <ele>-0.111</ele>
  <time>2026-09-02T22:07:21Z</time>
  <course>186.29</course>
  <speed>0.7283543093852057</speed>
  <fix>3d</fix>
</trkpt>
<trkpt lat="33.8101655" lon="-118.394034">
  <ele>-0.111</ele>
  <time>2026-09-02T22:07:21Z</time>
  <course>186.29</course>
  <speed>0.7283543093852057</speed>
  <fix>3d</fix>
</trkpt>
<trkpt lat="33.8101655" lon="-118.3940341">
  <ele>-0.111</ele>
  <time>2026-09-02T22:07:21Z</time>
  <course>186.29</course>
  <speed>0.7283543093852057</speed>
  <fix>3d</fix>
</trkpt>
<trkpt lat="33.8101654" lon="-118.3940341">
  <ele>-0.111</ele>
  <time>2026-09-02T22:07:21Z</time>
  <course>186.29</course>
  <speed>0.7283543093852057</speed>
  <fix>3d</fix>
</trkpt>
<trkpt lat="33.8101654" lon="-118.3940342">
  <ele>-0.111</ele>
  <time>2026-09-02T22:07:21Z</time>
  <course>186.29</course>
  <speed>0.7283543093852057</speed>
  <fix>3d</fix>
</trkpt>
<trkpt lat="33.8101653" lon="-118.3940342">
  <ele>-0.111</ele>
  <time>2026-09-02T22:07:21Z</time>
  <course>186.29</course>
  <speed>0.7283543093852057</speed>
  <fix>3d</fix>
</trkpt>
<trkpt lat="33.8101653" lon="-118.3940342">
  <ele>-0.111</ele>
  <time>2026-09-02T22:07:21Z</time>
  <course>186.28</course>
  <speed>0.7283543093852057</speed>
  <fix>3d</fix>
</trkpt>
<trkpt lat="33.8101653" lon="-118.3940343">
  <ele>-0.111</ele>
  <time>2026-09-02T22:07:21Z</time>
  <course>186.28</course>
  <speed>0.7283543093852057</speed>
  <fix>3d</fix>
</trkpt>
<trkpt lat="33.8101652" lon="-118.3940343">
  <ele>-0.111</ele>
  <time>2026-09-02T22:07:21Z</time>
  <course>186.28</course>
  <speed>0.7283543093852057</speed>
  <fix>3d</fix>
</trkpt>
<trkpt lat="33.8101652" lon="-118.3940344">
  <ele>-0.111</ele>
  <time>2026-09-02T22:07:21Z</time>
  <course>186.28</course>
  <speed>0.7283543093852057</speed>
  <fix>3d</fix>
</trkpt>
<trkpt lat="33.8101652" lon="-118.3940344">
  <ele>-0.111</ele>
  <time>2026-09-02T22:07:21Z</time>
  <course>186.28</course>
  <speed>0.7283543093852057</speed>
  <fix>3d</fix>
</trkpt>
<trkpt lat="33.8101662" lon="-118.3940329">
  <ele>-0.1</ele>
  <time>2026-09-02T22:07:21Z</time>
  <course>223.26</course>
  <speed>0.73</speed>
  <fix>3d</fix>
</trkpt>
<trkpt lat="33.8101651" lon="-118.3940344">
  <ele>-0.111</ele>
  <time>2026-09-02T22:07:21Z</time>
  <course>186.28</course>
  <speed>0.7283543093852057</speed>
  <fix>3d</fix>
</trkpt>
<trkpt lat="33.8101651" lon="-118.3940345">
  <ele>-0.111</ele>
  <time>2026-09-02T22:07:21Z</time>
  <course>186.28</course>
  <speed>0.7283543093852057</speed>
  <fix>3d</fix>
</trkpt>
<trkpt lat="33.810165" lon="-118.3940346">
  <ele>-0.111</ele>
  <time>2026-09-02T22:07:21Z</time>
  <course>186.28</course>
  <speed>0.7283543093852057</speed>
  <fix>3d</fix>
</trkpt>
<trkpt lat="33.810165" lon="-118.3940346">
  <ele>-0.111</ele>
  <time>2026-09-02T22:07:21Z</time>
  <course>186.28</course>
  <speed>0.7283543093852057</speed>
  <fix>3d</fix>
</trkpt>
<trkpt lat="33.810165" lon="-118.3940346">
  <ele>-0.111</ele>
  <time>2026-09-02T22:07:21Z</time>
  <course>186.28</course>
  <speed>0.7283543093852057</speed>
  <fix>3d</fix>
</trkpt>
<trkpt lat="33.8101649" lon="-118.3940347">
  <ele>-0.111</ele>
  <time>2026-09-02T22:07:21Z</time>
  <course>186.28</course>
  <speed>0.7283543093852057</speed>
  <fix>3d</fix>
</trkpt>
<trkpt lat="33.8101649" lon="-118.3940347">
  <ele>-0.111</ele>
  <time>2026-09-02T22:07:21Z</time>
  <course>186.28</course>
  <speed>0.7283543093852057</speed>
  <fix>3d</fix>
</trkpt>
<trkpt lat="33.8101648" lon="-118.3940348">
  <ele>-0.111</ele>
  <time>2026-09-02T22:07:21Z</time>
  <course>186.28</course>
  <speed>0.7283543093852057</speed>
  <fix>3d</fix>
</trkpt>
<trkpt lat="33.8101648" lon="-118.3940348">
  <ele>-0.111</ele>
  <time>2026-09-02T22:07:21Z</time>
  <course>186.28</course>
  <speed>0.7283543093852057</speed>
  <fix>3d</fix>
</trkpt>
<trkpt lat="33.8101648" lon="-118.3940349">
  <ele>-0.111</ele>
  <time>2026-09-02T22:07:21Z</time>
  <course>186.28</course>
  <speed>0.7283543093852057</speed>
  <fix>3d</fix>
</trkpt>
<trkpt lat="33.8101647" lon="-118.3940349">
  <ele>-0.111</ele>
  <time>2026-09-02T22:07:21Z</time>
  <course>186.28</course>
  <speed>0.7283543093852057</speed>
  <fix>3d</fix>
</trkpt>
<trkpt lat="33.8101647" lon="-118.3940349">
  <ele>-0.111</ele>
  <time>2026-09-02T22:07:21Z</time>
  <course>186.28</course>
  <speed>0.7283543093852057</speed>
  <fix>3d</fix>
</trkpt>
<trkpt lat="33.8101652" lon="-118.394034">
  <ele>-0.1</ele>
  <time>2026-09-02T22:07:21Z</time>
  <course>223.26</course>
  <speed>0.73</speed>
  <fix>3d</fix>
</trkpt>
<trkpt lat="33.8101647" lon="-118.3940349">
  <ele>-0.111</ele>
  <time>2026-09-02T22:07:21Z</time>
  <course>186.28</course>
  <speed>0.7283543093852057</speed>
  <fix>3d</fix>
</trkpt>
<trkpt lat="33.8101646" lon="-118.394035">
  <ele>-0.111</ele>
  <time>2026-09-02T22:07:21Z</time>
  <course>186.28</course>
  <speed>0.7283543093852057</speed>
  <fix>3d</fix>
</trkpt>
<trkpt lat="33.8101646" lon="-118.3940351">
  <ele>-0.111</ele>
  <time>2026-09-02T22:07:21Z</time>
  <course>186.28</course>
  <speed>0.7283543093852057</speed>
  <fix>3d</fix>
</trkpt>
<trkpt lat="33.8101645" lon="-118.3940351">
  <ele>-0.111</ele>
  <time>2026-09-02T22:07:21Z</time>
  <course>186.28</course>
  <speed>0.7283543093852057</speed>
  <fix>3d</fix>
</trkpt>
<trkpt lat="33.8101645" lon="-118.3940351">
  <ele>-0.111</ele>
  <time>2026-09-02T22:07:21Z</time>
  <course>186.28</course>
  <speed>0.7283543093852057</speed>
  <fix>3d</fix>
</trkpt>
<trkpt lat="33.8101645" lon="-118.3940352">
  <ele>-0.111</ele>
  <time>2026-09-02T22:07:21Z</time>
  <course>186.28</course>
  <speed>0.7283543093852057</speed>
  <fix>3d</fix>
</trkpt>
<trkpt lat="33.8101644" lon="-118.3940352">
  <ele>-0.111</ele>
  <time>2026-09-02T22:07:21Z</time>
  <course>186.28</course>
  <speed>0.7283543093852057</speed>
  <fix>3d</fix>
</trkpt>
<trkpt lat="33.8101644" lon="-118.3940353">
  <ele>-0.111</ele>
  <time>2026-09-02T22:07:21Z</time>
  <course>186.28</course>
  <speed>0.7283543093852057</speed>
  <fix>3d</fix>
</trkpt>
<trkpt lat="33.8101644" lon="-118.3940353">
  <ele>-0.111</ele>
  <time>2026-09-02T22:07:21Z</time>
  <course>186.28</course>
  <speed>0.7283543093852057</speed>
  <fix>3d</fix>
</trkpt>
<trkpt lat="33.8101643" lon="-118.3940354">
  <ele>-0.112</ele>
  <time>2026-09-02T22:07:21Z</time>
  <course>186.28</course>
  <speed>0.7283543093852057</speed>
  <fix>3d</fix>
</trkpt>
<trkpt lat="33.8101643" lon="-118.3940354">
  <ele>-0.112</ele>
  <time>2026-09-02T22:07:21Z</time>
  <course>186.28</course>
  <speed>0.7283543093852057</speed>
  <fix>3d</fix>
</trkpt>
<trkpt lat="33.8101642" lon="-118.3940355">
  <ele>-0.112</ele>
  <time>2026-09-02T22:07:21Z</time>
  <course>186.28</course>
  <speed>0.7283543093852057</speed>
  <fix>3d</fix>
</trkpt>
<trkpt lat="33.8101642" lon="-118.3940355">
  <ele>-0.112</ele>
  <time>2026-09-02T22:07:21Z</time>
  <course>186.28</course>
  <speed>0.7283543093852057</speed>
  <fix>3d</fix>
</trkpt>
<trkpt lat="33.8101652" lon="-118.394034">
  <ele>-0.1</ele>
  <time>2026-09-02T22:07:21Z</time>
  <course>223.26</course>
  <speed>0.73</speed>
  <fix>3d</fix>
</trkpt>
<trkpt lat="33.8101642" lon="-118.3940355">
  <ele>-0.112</ele>
  <time>2026-09-02T22:07:21Z</time>
  <course>186.28</course>
  <speed>0.7283543093852057</speed>
  <fix>3d</fix>
</trkpt>
<trkpt lat="33.8101641" lon="-118.3940356">
  <ele>-0.112</ele>
  <time>2026-09-02T22:07:21Z</time>
  <course>186.28</course>
  <speed>0.7283543093852057</speed>
  <fix>3d</fix>
</trkpt>
<trkpt lat="33.8101641" lon="-118.3940356">
  <ele>-0.112</ele>
  <time>2026-09-02T22:07:21Z</time>
  <course>186.28</course>
  <speed>0.7283543093852057</speed>
  <fix>3d</fix>
</trkpt>
<trkpt lat="33.8101641" lon="-118.3940357">
  <ele>-0.112</ele>
  <time>2026-09-02T22:07:21Z</time>
  <course>186.28</course>
  <speed>0.7283543093852057</speed>
  <fix>3d</fix>
</trkpt>
<trkpt lat="33.810164" lon="-118.3940357">
  <ele>-0.112</ele>
  <time>2026-09-02T22:07:21Z</time>
  <course>186.28</course>
  <speed>0.7283543093852057</speed>
  <fix>3d</fix>
</trkpt>
<trkpt lat="33.810164" lon="-118.3940358">
  <ele>-0.112</ele>
  <time>2026-09-02T22:07:21Z</time>
  <course>186.28</course>
  <speed>0.7283543093852057</speed>
  <fix>3d</fix>
</trkpt>
<trkpt lat="33.8101639" lon="-118.3940358">
  <ele>-0.112</ele>
  <time>2026-09-02T22:07:21Z</time>
  <course>186.28</course>
  <speed>0.7283543093852057</speed>
  <fix>3d</fix>
</trkpt>
<trkpt lat="33.8101639" lon="-118.3940358">
  <ele>-0.112</ele>
  <time>2026-09-02T22:07:21Z</time>
  <course>186.28</course>
  <speed>0.7283543093852057</speed>
  <fix>3d</fix>
</trkpt>
<trkpt lat="33.8101639" lon="-118.3940359">
  <ele>-0.112</ele>
  <time>2026-09-02T22:07:21Z</time>
  <course>186.28</course>
  <speed>0.7283543093852057</speed>
  <fix>3d</fix>
</trkpt>
<trkpt lat="33.8101638" lon="-118.3940359">
  <ele>-0.112</ele>
  <time>2026-09-02T22:07:21Z</time>
  <course>186.28</course>
  <speed>0.7283543093852057</speed>
  <fix>3d</fix>
</trkpt>
<trkpt lat="33.8101638" lon="-118.394036">
  <ele>-0.112</ele>
  <time>2026-09-02T22:07:21Z</time>
  <course>186.28</course>
  <speed>0.7283543093852057</speed>
  <fix>3d</fix>
</trkpt>
<trkpt lat="33.8101638" lon="-118.394036">
  <ele>-0.112</ele>
  <time>2026-09-02T22:07:21Z</time>
  <course>186.28</course>
  <speed>0.7283543093852057</speed>
  <fix>3d</fix>
</trkpt>
<trkpt lat="33.8101638" lon="-118.394036">
  <ele>-0.112</ele>
  <time>2026-09-02T22:07:21Z</time>
  <course>186.28</course>
  <speed>0.7283543093852057</speed>
  <fix>3d</fix>
</trkpt>
<trkpt lat="33.8101642" lon="-118.3940351">
  <ele>-0.11</ele>
  <time>2026-09-02T22:07:21Z</time>
  <course>223.26</course>
  <speed>0.73</speed>
  <fix>3d</fix>
</trkpt>
<trkpt lat="33.8101637" lon="-118.3940361">
  <ele>-0.112</ele>
  <time>2026-09-02T22:07:21Z</time>
  <course>186.28</course>
  <speed>0.7283543093852057</speed>
  <fix>3d</fix>
</trkpt>
<trkpt lat="33.8101636" lon="-118.3940362">
  <ele>-0.112</ele>
  <time>2026-09-02T22:07:21Z</time>
  <course>186.28</course>
  <speed>0.7283543093852057</speed>
  <fix>3d</fix>
</trkpt>
<trkpt lat="33.8101636" lon="-118.3940362">
  <ele>-0.112</ele>
  <time>2026-09-02T22:07:21Z</time>
  <course>186.28</course>
  <speed>0.7283543093852057</speed>
  <fix>3d</fix>
</trkpt>
<trkpt lat="33.8101636" lon="-118.3940362">
  <ele>-0.111</ele>
  <time>2026-09-02T22:07:21Z</time>
  <course>186.28</course>
  <speed>0.7283543093852057</speed>
  <fix>3d</fix>
</trkpt>
<trkpt lat="33.8101635" lon="-118.3940363">
  <ele>-0.111</ele>
  <time>2026-09-02T22:07:21Z</time>
  <course>186.28</course>
  <speed>0.7283543093852057</speed>
  <fix>3d</fix>
</trkpt>
<trkpt lat="33.8101635" lon="-118.3940363">
  <ele>-0.111</ele>
  <time>2026-09-02T22:07:21Z</time>
  <course>186.28</course>
  <speed>0.7283543093852057</speed>
  <fix>3d</fix>
</trkpt>
<trkpt lat="33.8101634" lon="-118.3940364">
  <ele>-0.111</ele>
  <time>2026-09-02T22:07:21Z</time>
  <course>186.28</course>
  <speed>0.7283543093852057</speed>
  <fix>3d</fix>
</trkpt>
<trkpt lat="33.8101634" lon="-118.3940364">
  <ele>-0.111</ele>
  <time>2026-09-02T22:07:21Z</time>
  <course>186.28</course>
  <speed>0.7283543093852057</speed>
  <fix>3d</fix>
</trkpt>
<trkpt lat="33.8101634" lon="-118.3940365">
  <ele>-0.111</ele>
  <time>2026-09-02T22:07:21Z</time>
  <course>186.28</course>
  <speed>0.7283543093852057</speed>
  <fix>3d</fix>
</trkpt>
<trkpt lat="33.8101633" lon="-118.3940365">
  <ele>-0.111</ele>
  <time>2026-09-02T22:07:21Z</time>
  <course>186.28</course>
  <speed>0.7283543093852057</speed>
  <fix>3d</fix>
</trkpt>
<trkpt lat="33.8101633" lon="-118.3940366">
  <ele>-0.111</ele>
  <time>2026-09-02T22:07:21Z</time>
  <course>186.28</course>
  <speed>0.7283543093852057</speed>
  <fix>3d</fix>
</trkpt>
<trkpt lat="33.8101633" lon="-118.3940366">
  <ele>-0.111</ele>
  <time>2026-09-02T22:07:21Z</time>
  <course>186.28</course>
  <speed>0.7283543093852057</speed>
  <fix>3d</fix>
</trkpt>
<trkpt lat="33.8101642" lon="-118.3940351">
  <ele>-0.11</ele>
  <time>2026-09-02T22:07:21Z</time>
  <course>223.26</course>
  <speed>0.73</speed>
  <fix>3d</fix>
</trkpt>
<trkpt lat="33.8101632" lon="-118.3940367">
  <ele>-0.11</ele>
  <time>2026-09-02T22:07:21Z</time>
  <course>186.28</course>
  <speed>0.7283543093852057</speed>
  <fix>3d</fix>
</trkpt>
<trkpt lat="33.8101631" lon="-118.3940367">
  <ele>-0.11</ele>
  <time>2026-09-02T22:07:21Z</time>
  <course>186.28</course>
  <speed>0.7213875518748573</speed>
  <fix>3d</fix>
</trkpt>
<trkpt lat="33.8101631" lon="-118.3940368">
  <ele>-0.11</ele>
  <time>2026-09-02T22:07:21Z</time>
  <course>186.28</course>
  <speed>0.7213875518748573</speed>
  <fix>3d</fix>
</trkpt>
<trkpt lat="33.810163" lon="-118.3940368">
  <ele>-0.11</ele>
  <time>2026-09-02T22:07:21Z</time>
  <course>186.28</course>
  <speed>0.7213875518748573</speed>
  <fix>3d</fix>
</trkpt>
<trkpt lat="33.810163" lon="-118.3940369">
  <ele>-0.11</ele>
  <time>2026-09-02T22:07:21Z</time>
  <course>186.28</course>
  <speed>0.7213875518748573</speed>
  <fix>3d</fix>
</trkpt>
<trkpt lat="33.810163" lon="-118.3940369">
  <ele>-0.109</ele>
  <time>2026-09-02T22:07:21Z</time>
  <course>186.28</course>
  <speed>0.7283543093852057</speed>
  <fix>3d</fix>
</trkpt>
<trkpt lat="33.8101629" lon="-118.394037">
  <ele>-0.109</ele>
  <time>2026-09-02T22:07:21Z</time>
  <course>186.28</course>
  <speed>0.7283543093852057</speed>
  <fix>3d</fix>
</trkpt>
<trkpt lat="33.8101629" lon="-118.394037">
  <ele>-0.109</ele>
  <time>2026-09-02T22:07:21Z</time>
  <course>186.28</course>
  <speed>0.7213875518748573</speed>
  <fix>3d</fix>
</trkpt>
<trkpt lat="33.8101628" lon="-118.3940371">
  <ele>-0.109</ele>
  <time>2026-09-02T22:07:21Z</time>
  <course>186.28</course>
  <speed>0.7213875518748573</speed>
  <fix>3d</fix>
</trkpt>
<trkpt lat="33.8101628" lon="-118.3940371">
  <ele>-0.109</ele>
  <time>2026-09-02T22:07:21Z</time>
  <course>186.28</course>
  <speed>0.7213875518748573</speed>
  <fix>3d</fix>
</trkpt>
<trkpt lat="33.8101633" lon="-118.3940361">
  <ele>-0.11</ele>
  <time>2026-09-02T22:07:21Z</time>
  <course>223.26</course>
  <speed>0.73</speed>
  <fix>3d</fix>
</trkpt>
<trkpt lat="33.8101627" lon="-118.3940372">
  <ele>-0.109</ele>
  <time>2026-09-02T22:07:21Z</time>
  <course>186.28</course>
  <speed>0.7213875518748573</speed>
  <fix>3d</fix>
</trkpt>
<trkpt lat="33.8101627" lon="-118.3940372">
  <ele>-0.108</ele>
  <time>2026-09-02T22:07:21Z</time>
  <course>186.28</course>
  <speed>0.7213875518748573</speed>
  <fix>3d</fix>
</trkpt>
<trkpt lat="33.8101627" lon="-118.3940373">
  <ele>-0.108</ele>
  <time>2026-09-02T22:07:21Z</time>
  <course>186.28</course>
  <speed>0.7283543093852057</speed>
  <fix>3d</fix>
</trkpt>
<trkpt lat="33.8101626" lon="-118.3940373">
  <ele>-0.108</ele>
  <time>2026-09-02T22:07:21Z</time>
  <course>186.28</course>
  <speed>0.7283543093852057</speed>
  <fix>3d</fix>
</trkpt>
<trkpt lat="33.8101626" lon="-118.3940374">
  <ele>-0.108</ele>
  <time>2026-09-02T22:07:21Z</time>
  <course>186.28</course>
  <speed>0.7213875518748573</speed>
  <fix>3d</fix>
</trkpt>
<trkpt lat="33.8101625" lon="-118.3940374">
  <ele>-0.107</ele>
  <time>2026-09-02T22:07:21Z</time>
  <course>186.28</course>
  <speed>0.7213875518748573</speed>
  <fix>3d</fix>
</trkpt>
<trkpt lat="33.8101625" lon="-118.3940375">
  <ele>-0.107</ele>
  <time>2026-09-02T22:07:21Z</time>
  <course>186.28</course>
  <speed>0.7213875518748573</speed>
  <fix>3d</fix>
</trkpt>
<trkpt lat="33.8101624" lon="-118.3940375">
  <ele>-0.107</ele>
  <time>2026-09-02T22:07:21Z</time>
  <course>186.28</course>
  <speed>0.7213875518748573</speed>
  <fix>3d</fix>
</trkpt>
<trkpt lat="33.8101624" lon="-118.3940376">
  <ele>-0.107</ele>
  <time>2026-09-02T22:07:21Z</time>
  <course>186.28</course>
  <speed>0.7213875518748573</speed>
  <fix>3d</fix>
</trkpt>
<trkpt lat="33.8101623" lon="-118.3940376">
  <ele>-0.106</ele>
  <time>2026-09-02T22:07:21Z</time>
  <course>186.28</course>
  <speed>0.7213875518748573</speed>
  <fix>3d</fix>
</trkpt>
<trkpt lat="33.8101623" lon="-118.3940376">
  <ele>-0.106</ele>
  <time>2026-09-02T22:07:21Z</time>
  <course>186.28</course>
  <speed>0.7213875518748573</speed>
  <fix>3d</fix>
</trkpt>
<trkpt lat="33.8101633" lon="-118.3940361">
  <ele>-0.11</ele>
  <time>2026-09-02T22:07:21Z</time>
  <course>223.26</course>
  <speed>0.73</speed>
  <fix>3d</fix>
</trkpt>
<trkpt lat="33.8101623" lon="-118.3940376">
  <ele>-0.106</ele>
  <time>2026-09-02T22:07:21Z</time>
  <course>186.28</course>
  <speed>0.7213875518748573</speed>
  <fix>3d</fix>
</trkpt>
<trkpt lat="33.8101622" lon="-118.3940377">
  <ele>-0.106</ele>
  <time>2026-09-02T22:07:21Z</time>
  <course>186.28</course>
  <speed>0.7213875518748573</speed>
  <fix>3d</fix>
</trkpt>
<trkpt lat="33.8101622" lon="-118.3940378">
  <ele>-0.106</ele>
  <time>2026-09-02T22:07:21Z</time>
  <course>186.28</course>
  <speed>0.7213875518748573</speed>
  <fix>3d</fix>
</trkpt>
<trkpt lat="33.8101621" lon="-118.3940379">
  <ele>-0.106</ele>
  <time>2026-09-02T22:07:21Z</time>
  <course>186.28</course>
  <speed>0.7213875518748573</speed>
  <fix>3d</fix>
</trkpt>
<trkpt lat="33.8101621" lon="-118.3940379">
  <ele>-0.105</ele>
  <time>2026-09-02T22:07:21Z</time>
  <course>186.28</course>
  <speed>0.7213875518748573</speed>
  <fix>3d</fix>
</trkpt>
<trkpt lat="33.8101621" lon="-118.3940379">
  <ele>-0.105</ele>
  <time>2026-09-02T22:07:21Z</time>
  <course>186.28</course>
  <speed>0.7213875518748573</speed>
  <fix>3d</fix>
</trkpt>
<trkpt lat="33.810162" lon="-118.394038">
  <ele>-0.105</ele>
  <time>2026-09-02T22:07:21Z</time>
  <course>186.28</course>
  <speed>0.7213875518748573</speed>
  <fix>3d</fix>
</trkpt>
<trkpt lat="33.810162" lon="-118.394038">
  <ele>-0.105</ele>
  <time>2026-09-02T22:07:21Z</time>
  <course>186.28</course>
  <speed>0.7213875518748573</speed>
  <fix>3d</fix>
</trkpt>
<trkpt lat="33.8101619" lon="-118.3940381">
  <ele>-0.104</ele>
  <time>2026-09-02T22:07:21Z</time>
  <course>186.28</course>
  <speed>0.7213875518748573</speed>
  <fix>3d</fix>
</trkpt>
<trkpt lat="33.8101619" lon="-118.3940381">
  <ele>-0.104</ele>
  <time>2026-09-02T22:07:21Z</time>
  <course>186.28</course>
  <speed>0.7213875518748573</speed>
  <fix>3d</fix>
</trkpt>
<trkpt lat="33.8101619" lon="-118.3940382">
  <ele>-0.104</ele>
  <time>2026-09-02T22:07:21Z</time>
  <course>186.28</course>
  <speed>0.7213875518748573</speed>
  <fix>3d</fix>
</trkpt>
<trkpt lat="33.8101619" lon="-118.3940382">
  <ele>-0.104</ele>
  <time>2026-09-02T22:07:21Z</time>
  <course>186.28</course>
  <speed>0.7213875518748573</speed>
  <fix>3d</fix>
</trkpt>
<trkpt lat="33.8101623" lon="-118.3940372">
  <ele>-0.1</ele>
  <time>2026-09-02T22:07:21Z</time>
  <course>223.26</course>
  <speed>0.73</speed>
  <fix>3d</fix>
</trkpt>
<trkpt lat="33.8101618" lon="-118.3940383">
  <ele>-0.103</ele>
  <time>2026-09-02T22:07:21Z</time>
  <course>186.28</course>
  <speed>0.7213875518748573</speed>
  <fix>3d</fix>
</trkpt>
<trkpt lat="33.8101617" lon="-118.3940383">
  <ele>-0.103</ele>
  <time>2026-09-02T22:07:21Z</time>
  <course>186.28</course>
  <speed>0.7213875518748573</speed>
  <fix>3d</fix>
</trkpt>
<trkpt lat="33.8101617" lon="-118.3940384">
  <ele>-0.103</ele>
  <time>2026-09-02T22:07:21Z</time>
  <course>186.28</course>
  <speed>0.7213875518748573</speed>
  <fix>3d</fix>
</trkpt>
<trkpt lat="33.8101616" lon="-118.3940384">
  <ele>-0.103</ele>
  <time>2026-09-02T22:07:21Z</time>
  <course>186.28</course>
  <speed>0.7213875518748573</speed>
  <fix>3d</fix>
</trkpt>
<trkpt lat="33.8101616" lon="-118.3940385">
  <ele>-0.103</ele>
  <time>2026-09-02T22:07:21Z</time>
  <course>186.28</course>
  <speed>0.7213875518748573</speed>
  <fix>3d</fix>
</trkpt>
<trkpt lat="33.8101615" lon="-118.3940385">
  <ele>-0.103</ele>
  <time>2026-09-02T22:07:21Z</time>
  <course>186.28</course>
  <speed>0.7213875518748573</speed>
  <fix>3d</fix>
</trkpt>
<trkpt lat="33.8101615" lon="-118.3940386">
  <ele>-0.102</ele>
  <time>2026-09-02T22:07:21Z</time>
  <course>186.28</course>
  <speed>0.7213875518748573</speed>
  <fix>3d</fix>
</trkpt>
<trkpt lat="33.8101615" lon="-118.3940386">
  <ele>-0.102</ele>
  <time>2026-09-02T22:07:21Z</time>
  <course>186.28</course>
  <speed>0.7213875518748573</speed>
  <fix>3d</fix>
</trkpt>
<trkpt lat="33.8101614" lon="-118.3940386">
  <ele>-0.102</ele>
  <time>2026-09-02T22:07:21Z</time>
  <course>186.28</course>
  <speed>0.7213875518748573</speed>
  <fix>3d</fix>
</trkpt>
<trkpt lat="33.8101614" lon="-118.3940387">
  <ele>-0.102</ele>
  <time>2026-09-02T22:07:21Z</time>
  <course>186.28</course>
  <speed>0.7213875518748573</speed>
  <fix>3d</fix>
</trkpt>
<trkpt lat="33.8101614" lon="-118.3940387">
  <ele>-0.102</ele>
  <time>2026-09-02T22:07:21Z</time>
  <course>186.28</course>
  <speed>0.7213875518748573</speed>
  <fix>3d</fix>
</trkpt>
<trkpt lat="33.8101623" lon="-118.3940372">
  <ele>-0.1</ele>
  <time>2026-09-02T22:07:21Z</time>
  <course>223.26</course>
  <speed>0.73</speed>
  <fix>3d</fix>
</trkpt>
<trkpt lat="33.8101614" lon="-118.3940387">
  <ele>-0.102</ele>
  <time>2026-09-02T22:07:21Z</time>
  <course>186.28</course>
  <speed>0.7213875518748573</speed>
  <fix>3d</fix>
</trkpt>
<trkpt lat="33.8101613" lon="-118.3940388">
  <ele>-0.102</ele>
  <time>2026-09-02T22:07:21Z</time>
  <course>186.28</course>
  <speed>0.7213875518748573</speed>
  <fix>3d</fix>
</trkpt>
<trkpt lat="33.8101613" lon="-118.3940388">
  <ele>-0.102</ele>
  <time>2026-09-02T22:07:21Z</time>
  <course>186.28</course>
  <speed>0.7213875518748573</speed>
  <fix>3d</fix>
</trkpt>
<trkpt lat="33.8101612" lon="-118.3940389">
  <ele>-0.102</ele>
  <time>2026-09-02T22:07:21Z</time>
  <course>186.28</course>
  <speed>0.7213875518748573</speed>
  <fix>3d</fix>
</trkpt>
<trkpt lat="33.8101612" lon="-118.3940389">
  <ele>-0.102</ele>
  <time>2026-09-02T22:07:21Z</time>
  <course>186.28</course>
  <speed>0.7213875518748573</speed>
  <fix>3d</fix>
</trkpt>
<trkpt lat="33.8101612" lon="-118.394039">
  <ele>-0.102</ele>
  <time>2026-09-02T22:07:21Z</time>
  <course>186.28</course>
  <speed>0.7213875518748573</speed>
  <fix>3d</fix>
</trkpt>
<trkpt lat="33.8101611" lon="-118.394039">
  <ele>-0.102</ele>
  <time>2026-09-02T22:07:21Z</time>
  <course>186.28</course>
  <speed>0.7213875518748573</speed>
  <fix>3d</fix>
</trkpt>
<trkpt lat="33.8101611" lon="-118.394039">
  <ele>-0.102</ele>
  <time>2026-09-02T22:07:21Z</time>
  <course>186.28</course>
  <speed>0.7213875518748573</speed>
  <fix>3d</fix>
</trkpt>
<trkpt lat="33.8101611" lon="-118.3940391">
  <ele>-0.102</ele>
  <time>2026-09-02T22:07:21Z</time>
  <course>186.28</course>
  <speed>0.7213875518748573</speed>
  <fix>3d</fix>
</trkpt>
<trkpt lat="33.810161" lon="-118.3940391">
  <ele>-0.102</ele>
  <time>2026-09-02T22:07:21Z</time>
  <course>186.28</course>
  <speed>0.7213875518748573</speed>
  <fix>3d</fix>
</trkpt>
<trkpt lat="33.810161" lon="-118.3940392">
  <ele>-0.102</ele>
  <time>2026-09-02T22:07:21Z</time>
  <course>186.28</course>
  <speed>0.7213875518748573</speed>
  <fix>3d</fix>
</trkpt>
<trkpt lat="33.8101609" lon="-118.3940392">
  <ele>-0.102</ele>
  <time>2026-09-02T22:07:21Z</time>
  <course>186.28</course>
  <speed>0.7213875518748573</speed>
  <fix>3d</fix>
</trkpt>
<trkpt lat="33.8101609" lon="-118.3940392">
  <ele>-0.102</ele>
  <time>2026-09-02T22:07:21Z</time>
  <course>186.28</course>
  <speed>0.7213875518748573</speed>
  <fix>3d</fix>
</trkpt>
<trkpt lat="33.8101609" lon="-118.3940393">
  <ele>-0.102</ele>
  <time>2026-09-02T22:07:21Z</time>
  <course>186.28</course>
  <speed>0.7213875518748573</speed>
  <fix>3d</fix>
</trkpt>
<trkpt lat="33.8101614" lon="-118.3940383">
  <ele>-0.1</ele>
  <time>2026-09-02T22:07:21Z</time>
  <course>223.26</course>
  <speed>0.73</speed>
  <fix>3d</fix>
</trkpt>
<trkpt lat="33.8101609" lon="-118.3940393">
  <ele>-0.102</ele>
  <time>2026-09-02T22:07:21Z</time>
  <course>186.28</course>
  <speed>0.7213875518748573</speed>
  <fix>3d</fix>
</trkpt>
<trkpt lat="33.8101608" lon="-118.3940393">
  <ele>-0.102</ele>
  <time>2026-09-02T22:07:21Z</time>
  <course>186.28</course>
  <speed>0.7213875518748573</speed>
  <fix>3d</fix>
</trkpt>
<trkpt lat="33.8101608" lon="-118.3940394">
  <ele>-0.102</ele>
  <time>2026-09-02T22:07:21Z</time>
  <course>186.28</course>
  <speed>0.7213875518748573</speed>
  <fix>3d</fix>
</trkpt>
<trkpt lat="33.8101607" lon="-118.3940394">
  <ele>-0.102</ele>
  <time>2026-09-02T22:07:21Z</time>
  <course>186.28</course>
  <speed>0.7213875518748573</speed>
  <fix>3d</fix>
</trkpt>
<trkpt lat="33.8101607" lon="-118.3940395">
  <ele>-0.102</ele>
  <time>2026-09-02T22:07:21Z</time>
  <course>186.28</course>
  <speed>0.7213875518748573</speed>
  <fix>3d</fix>
</trkpt>
<trkpt lat="33.8101607" lon="-118.3940395">
  <ele>-0.102</ele>
  <time>2026-09-02T22:07:21Z</time>
  <course>186.28</course>
  <speed>0.7213875518748573</speed>
  <fix>3d</fix>
</trkpt>
<trkpt lat="33.8101606" lon="-118.3940396">
  <ele>-0.102</ele>
  <time>2026-09-02T22:07:21Z</time>
  <course>186.28</course>
  <speed>0.7213875518748573</speed>
  <fix>3d</fix>
</trkpt>
<trkpt lat="33.8101606" lon="-118.3940396">
  <ele>-0.102</ele>
  <time>2026-09-02T22:07:21Z</time>
  <course>186.28</course>
  <speed>0.7213875518748573</speed>
  <fix>3d</fix>
</trkpt>
<trkpt lat="33.8101606" lon="-118.3940396">
  <ele>-0.102</ele>
  <time>2026-09-02T22:07:21Z</time>
  <course>186.28</course>
  <speed>0.7213875518748573</speed>
  <fix>3d</fix>
</trkpt>
<trkpt lat="33.8101605" lon="-118.3940397">
  <ele>-0.102</ele>
  <time>2026-09-02T22:07:21Z</time>
  <course>186.28</course>
  <speed>0.7213875518748573</speed>
  <fix>3d</fix>
</trkpt>
<trkpt lat="33.8101605" lon="-118.3940397">
  <ele>-0.102</ele>
  <time>2026-09-02T22:07:21Z</time>
  <course>186.28</course>
  <speed>0.7213875518748573</speed>
  <fix>3d</fix>
</trkpt>
<trkpt lat="33.8101604" lon="-118.3940398">
  <ele>-0.102</ele>
  <time>2026-09-02T22:07:21Z</time>
  <course>186.28</course>
  <speed>0.7213875518748573</speed>
  <fix>3d</fix>
</trkpt>
<trkpt lat="33.8101604" lon="-118.3940398">
  <ele>-0.102</ele>
  <time>2026-09-02T22:07:21Z</time>
  <course>186.28</course>
  <speed>0.7213875518748573</speed>
  <fix>3d</fix>
</trkpt>
<trkpt lat="33.8101614" lon="-118.3940383">
  <ele>-0.1</ele>
  <time>2026-09-02T22:07:21Z</time>
  <course>223.26</course>
  <speed>0.73</speed>
  <fix>3d</fix>
</trkpt>
<trkpt lat="33.8101604" lon="-118.3940398">
  <ele>-0.102</ele>
  <time>2026-09-02T22:07:21Z</time>
  <course>186.28</course>
  <speed>0.7213875518748573</speed>
  <fix>3d</fix>
</trkpt>
<trkpt lat="33.8101603" lon="-118.3940399">
  <ele>-0.103</ele>
  <time>2026-09-02T22:07:21Z</time>
  <course>186.28</course>
  <speed>0.7213875518748573</speed>
  <fix>3d</fix>
</trkpt>
<trkpt lat="33.8101603" lon="-118.3940399">
  <ele>-0.103</ele>
  <time>2026-09-02T22:07:21Z</time>
  <course>186.28</course>
  <speed>0.7213875518748573</speed>
  <fix>3d</fix>
</trkpt>
<trkpt lat="33.8101603" lon="-118.39404">
  <ele>-0.103</ele>
  <time>2026-09-02T22:07:21Z</time>
  <course>186.28</course>
  <speed>0.7213875518748573</speed>
  <fix>3d</fix>
</trkpt>
<trkpt lat="33.8101602" lon="-118.39404">
  <ele>-0.103</ele>
  <time>2026-09-02T22:07:21Z</time>
  <course>186.28</course>
  <speed>0.7213875518748573</speed>
  <fix>3d</fix>
</trkpt>
<trkpt lat="33.8101602" lon="-118.3940401">
  <ele>-0.103</ele>
  <time>2026-09-02T22:07:21Z</time>
  <course>186.28</course>
  <speed>0.7213875518748573</speed>
  <fix>3d</fix>
</trkpt>
<trkpt lat="33.8101601" lon="-118.3940401">
  <ele>-0.103</ele>
  <time>2026-09-02T22:07:21Z</time>
  <course>186.28</course>
  <speed>0.7213875518748573</speed>
  <fix>3d</fix>
</trkpt>
<trkpt lat="33.8101601" lon="-118.3940402">
  <ele>-0.103</ele>
  <time>2026-09-02T22:07:21Z</time>
  <course>186.28</course>
  <speed>0.7213875518748573</speed>
  <fix>3d</fix>
</trkpt>
<trkpt lat="33.8101601" lon="-118.3940402">
  <ele>-0.103</ele>
  <time>2026-09-02T22:07:21Z</time>
  <course>186.28</course>
  <speed>0.7213875518748573</speed>
  <fix>3d</fix>
</trkpt>
<trkpt lat="33.81016" lon="-118.3940402">
  <ele>-0.103</ele>
  <time>2026-09-02T22:07:21Z</time>
  <course>186.28</course>
  <speed>0.7213875518748573</speed>
  <fix>3d</fix>
</trkpt>
<trkpt lat="33.81016" lon="-118.3940403">
  <ele>-0.103</ele>
  <time>2026-09-02T22:07:21Z</time>
  <course>186.28</course>
  <speed>0.7213875518748573</speed>
  <fix>3d</fix>
</trkpt>
<trkpt lat="33.81016" lon="-118.3940403">
  <ele>-0.103</ele>
  <time>2026-09-02T22:07:21Z</time>
  <course>186.28</course>
  <speed>0.7213875518748573</speed>
  <fix>3d</fix>
</trkpt>
<trkpt lat="33.8101599" lon="-118.3940403">
  <ele>-0.103</ele>
  <time>2026-09-02T22:07:21Z</time>
  <course>186.28</course>
  <speed>0.7213875518748573</speed>
  <fix>3d</fix>
</trkpt>
<trkpt lat="33.8101604" lon="-118.3940394">
  <ele>-0.1</ele>
  <time>2026-09-02T22:07:21Z</time>
  <course>223.26</course>
  <speed>0.73</speed>
  <fix>3d</fix>
</trkpt>
<trkpt lat="33.8101599" lon="-118.3940404">
  <ele>-0.103</ele>
  <time>2026-09-02T22:07:21Z</time>
  <course>186.28</course>
  <speed>0.7213875518748573</speed>
  <fix>3d</fix>
</trkpt>
<trkpt lat="33.8101599" lon="-118.3940404">
  <ele>-0.103</ele>
  <time>2026-09-02T22:07:21Z</time>
  <course>186.28</course>
  <speed>0.7213875518748573</speed>
  <fix>3d</fix>
</trkpt>
<trkpt lat="33.8101598" lon="-118.3940405">
  <ele>-0.102</ele>
  <time>2026-09-02T22:07:21Z</time>
  <course>186.28</course>
  <speed>0.7213875518748573</speed>
  <fix>3d</fix>
</trkpt>
<trkpt lat="33.8101598" lon="-118.3940405">
  <ele>-0.102</ele>
  <time>2026-09-02T22:07:21Z</time>
  <course>186.28</course>
  <speed>0.7213875518748573</speed>
  <fix>3d</fix>
</trkpt>
<trkpt lat="33.8101597" lon="-118.3940406">
  <ele>-0.102</ele>
  <time>2026-09-02T22:07:21Z</time>
  <course>186.28</course>
  <speed>0.7213875518748573</speed>
  <fix>3d</fix>
</trkpt>
<trkpt lat="33.8101597" lon="-118.3940406">
  <ele>-0.102</ele>
  <time>2026-09-02T22:07:21Z</time>
  <course>186.28</course>
  <speed>0.7213875518748573</speed>
  <fix>3d</fix>
</trkpt>
<trkpt lat="33.8101596" lon="-118.3940407">
  <ele>-0.102</ele>
  <time>2026-09-02T22:07:21Z</time>
  <course>186.28</course>
  <speed>0.7213875518748573</speed>
  <fix>3d</fix>
</trkpt>
<trkpt lat="33.8101596" lon="-118.3940407">
  <ele>-0.102</ele>
  <time>2026-09-02T22:07:21Z</time>
  <course>186.28</course>
  <speed>0.7213875518748573</speed>
  <fix>3d</fix>
</trkpt>
<trkpt lat="33.8101596" lon="-118.3940408">
  <ele>-0.102</ele>
  <time>2026-09-02T22:07:21Z</time>
  <course>186.28</course>
  <speed>0.7213875518748573</speed>
  <fix>3d</fix>
</trkpt>
<trkpt lat="33.8101595" lon="-118.3940408">
  <ele>-0.102</ele>
  <time>2026-09-02T22:07:21Z</time>
  <course>186.28</course>
  <speed>0.7213875518748573</speed>
  <fix>3d</fix>
</trkpt>
<trkpt lat="33.8101595" lon="-118.3940409">
  <ele>-0.102</ele>
  <time>2026-09-02T22:07:21Z</time>
  <course>186.28</course>
  <speed>0.7213875518748573</speed>
  <fix>3d</fix>
</trkpt>
<trkpt lat="33.8101595" lon="-118.3940409">
  <ele>-0.102</ele>
  <time>2026-09-02T22:07:21Z</time>
  <course>186.28</course>
  <speed>0.7213875518748573</speed>
  <fix>3d</fix>
</trkpt>
<trkpt lat="33.8101604" lon="-118.3940394">
  <ele>-0.1</ele>
  <time>2026-09-02T22:07:21Z</time>
  <course>223.26</course>
  <speed>0.73</speed>
  <fix>3d</fix>
</trkpt>
<trkpt lat="33.8101594" lon="-118.394041">
  <ele>-0.102</ele>
  <time>2026-09-02T22:07:21Z</time>
  <course>186.28</course>
  <speed>0.7213875518748573</speed>
  <fix>3d</fix>
</trkpt>
<trkpt lat="33.8101593" lon="-118.394041">
  <ele>-0.102</ele>
  <time>2026-09-02T22:07:21Z</time>
  <course>186.28</course>
  <speed>0.7213875518748573</speed>
  <fix>3d</fix>
</trkpt>
<trkpt lat="33.8101593" lon="-118.3940411">
  <ele>-0.102</ele>
  <time>2026-09-02T22:07:21Z</time>
  <course>186.28</course>
  <speed>0.7213875518748573</speed>
  <fix>3d</fix>
</trkpt>
<trkpt lat="33.8101592" lon="-118.3940411">
  <ele>-0.102</ele>
  <time>2026-09-02T22:07:21Z</time>
  <course>186.28</course>
  <speed>0.7213875518748573</speed>
  <fix>3d</fix>
</trkpt>
<trkpt lat="33.8101592" lon="-118.3940412">
  <ele>-0.102</ele>
  <time>2026-09-02T22:07:21Z</time>
  <course>186.28</course>
  <speed>0.7213875518748573</speed>
  <fix>3d</fix>
</trkpt>
<trkpt lat="33.8101592" lon="-118.3940412">
  <ele>-0.102</ele>
  <time>2026-09-02T22:07:21Z</time>
  <course>186.28</course>
  <speed>0.7213875518748573</speed>
  <fix>3d</fix>
</trkpt>
<trkpt lat="33.8101591" lon="-118.3940413">
  <ele>-0.102</ele>
  <time>2026-09-02T22:07:21Z</time>
  <course>186.28</course>
  <speed>0.7213875518748573</speed>
  <fix>3d</fix>
</trkpt>
<trkpt lat="33.8101591" lon="-118.3940413">
  <ele>-0.103</ele>
  <time>2026-09-02T22:07:21Z</time>
  <course>186.28</course>
  <speed>0.7213875518748573</speed>
  <fix>3d</fix>
</trkpt>
<trkpt lat="33.810159" lon="-118.3940414">
  <ele>-0.103</ele>
  <time>2026-09-02T22:07:21Z</time>
  <course>186.28</course>
  <speed>0.7213875518748573</speed>
  <fix>3d</fix>
</trkpt>
<trkpt lat="33.810159" lon="-118.3940414">
  <ele>-0.103</ele>
  <time>2026-09-02T22:07:21Z</time>
  <course>186.28</course>
  <speed>0.7213875518748573</speed>
  <fix>3d</fix>
</trkpt>
<trkpt lat="33.810159" lon="-118.3940414">
  <ele>-0.103</ele>
  <time>2026-09-02T22:07:21Z</time>
  <course>186.28</course>
  <speed>0.7213875518748573</speed>
  <fix>3d</fix>
</trkpt>
<trkpt lat="33.8101594" lon="-118.3940405">
  <ele>-0.1</ele>
  <time>2026-09-02T22:07:21Z</time>
  <course>223.26</course>
  <speed>0.73</speed>
  <fix>3d</fix>
</trkpt>
<trkpt lat="33.810159" lon="-118.3940414">
  <ele>-0.103</ele>
  <time>2026-09-02T22:07:21Z</time>
  <course>186.28</course>
  <speed>0.7213875518748573</speed>
  <fix>3d</fix>
</trkpt>
<trkpt lat="33.8101589" lon="-118.3940415">
  <ele>-0.103</ele>
  <time>2026-09-02T22:07:21Z</time>
  <course>186.28</course>
  <speed>0.7213875518748573</speed>
  <fix>3d</fix>
</trkpt>
<trkpt lat="33.8101589" lon="-118.3940416">
  <ele>-0.103</ele>
  <time>2026-09-02T22:07:21Z</time>
  <course>186.28</course>
  <speed>0.7213875518748573</speed>
  <fix>3d</fix>
</trkpt>
<trkpt lat="33.8101588" lon="-118.3940416">
  <ele>-0.103</ele>
  <time>2026-09-02T22:07:21Z</time>
  <course>186.28</course>
  <speed>0.7213875518748573</speed>
  <fix>3d</fix>
</trkpt>
<trkpt lat="33.8101588" lon="-118.3940417">
  <ele>-0.103</ele>
  <time>2026-09-02T22:07:21Z</time>
  <course>186.28</course>
  <speed>0.7213875518748573</speed>
  <fix>3d</fix>
</trkpt>
<trkpt lat="33.8101587" lon="-118.3940417">
  <ele>-0.103</ele>
  <time>2026-09-02T22:07:21Z</time>
  <course>186.28</course>
  <speed>0.7213875518748573</speed>
  <fix>3d</fix>
</trkpt>
<trkpt lat="33.8101587" lon="-118.3940418">
  <ele>-0.103</ele>
  <time>2026-09-02T22:07:21Z</time>
  <course>186.28</course>
  <speed>0.7213875518748573</speed>
  <fix>3d</fix>
</trkpt>
<trkpt lat="33.8101586" lon="-118.3940418">
  <ele>-0.103</ele>
  <time>2026-09-02T22:07:21Z</time>
  <course>186.28</course>
  <speed>0.7213875518748573</speed>
  <fix>3d</fix>
</trkpt>
<trkpt lat="33.8101586" lon="-118.3940419">
  <ele>-0.103</ele>
  <time>2026-09-02T22:07:21Z</time>
  <course>186.28</course>
  <speed>0.7213875518748573</speed>
  <fix>3d</fix>
</trkpt>
<trkpt lat="33.8101586" lon="-118.3940419">
  <ele>-0.103</ele>
  <time>2026-09-02T22:07:21Z</time>
  <course>186.28</course>
  <speed>0.7213875518748573</speed>
  <fix>3d</fix>
</trkpt>
<trkpt lat="33.8101585" lon="-118.394042">
  <ele>-0.103</ele>
  <time>2026-09-02T22:07:21Z</time>
  <course>186.28</course>
  <speed>0.7213875518748573</speed>
  <fix>3d</fix>
</trkpt>
<trkpt lat="33.8101585" lon="-118.394042">
  <ele>-0.103</ele>
  <time>2026-09-02T22:07:21Z</time>
  <course>186.28</course>
  <speed>0.7213875518748573</speed>
  <fix>3d</fix>
</trkpt>
<trkpt lat="33.8101594" lon="-118.3940405">
  <ele>-0.1</ele>
  <time>2026-09-02T22:07:21Z</time>
  <course>223.26</course>
  <speed>0.73</speed>
  <fix>3d</fix>
</trkpt>
<trkpt lat="33.8101585" lon="-118.394042">
  <ele>-0.103</ele>
  <time>2026-09-02T22:07:21Z</time>
  <course>186.28</course>
  <speed>0.7213875518748573</speed>
  <fix>3d</fix>
</trkpt>
<trkpt lat="33.8101584" lon="-118.3940421">
  <ele>-0.103</ele>
  <time>2026-09-02T22:07:21Z</time>
  <course>186.28</course>
  <speed>0.7213875518748573</speed>
  <fix>3d</fix>
</trkpt>
<trkpt lat="33.8101584" lon="-118.3940421">
  <ele>-0.103</ele>
  <time>2026-09-02T22:07:21Z</time>
  <course>186.28</course>
  <speed>0.7213875518748573</speed>
  <fix>3d</fix>
</trkpt>
<trkpt lat="33.8101583" lon="-118.3940422">
  <ele>-0.104</ele>
  <time>2026-09-02T22:07:21Z</time>
  <course>186.28</course>
  <speed>0.7213875518748573</speed>
  <fix>3d</fix>
</trkpt>
<trkpt lat="33.8101583" lon="-118.3940422">
  <ele>-0.104</ele>
  <time>2026-09-02T22:07:21Z</time>
  <course>186.28</course>
  <speed>0.7213875518748573</speed>
  <fix>3d</fix>
</trkpt>
<trkpt lat="33.8101582" lon="-118.3940423">
  <ele>-0.104</ele>
  <time>2026-09-02T22:07:21Z</time>
  <course>186.28</course>
  <speed>0.7213875518748573</speed>
  <fix>3d</fix>
</trkpt>
<trkpt lat="33.8101582" lon="-118.3940423">
  <ele>-0.104</ele>
  <time>2026-09-02T22:07:21Z</time>
  <course>186.28</course>
  <speed>0.7213875518748573</speed>
  <fix>3d</fix>
</trkpt>
<trkpt lat="33.8101582" lon="-118.3940423">
  <ele>-0.104</ele>
  <time>2026-09-02T22:07:21Z</time>
  <course>186.28</course>
  <speed>0.7213875518748573</speed>
  <fix>3d</fix>
</trkpt>
<trkpt lat="33.8101581" lon="-118.3940424">
  <ele>-0.104</ele>
  <time>2026-09-02T22:07:21Z</time>
  <course>186.28</course>
  <speed>0.7213875518748573</speed>
  <fix>3d</fix>
</trkpt>
<trkpt lat="33.8101581" lon="-118.3940424">
  <ele>-0.104</ele>
  <time>2026-09-02T22:07:21Z</time>
  <course>186.28</course>
  <speed>0.7213875518748573</speed>
  <fix>3d</fix>
</trkpt>
<trkpt lat="33.8101581" lon="-118.3940425">
  <ele>-0.104</ele>
  <time>2026-09-02T22:07:21Z</time>
  <course>186.28</course>
  <speed>0.7213875518748573</speed>
  <fix>3d</fix>
</trkpt>
<trkpt lat="33.810158" lon="-118.3940425">
  <ele>-0.104</ele>
  <time>2026-09-02T22:07:21Z</time>
  <course>186.28</course>
  <speed>0.7213875518748573</speed>
  <fix>3d</fix>
</trkpt>
<trkpt lat="33.8101585" lon="-118.3940416">
  <ele>-0.11</ele>
  <time>2026-09-02T22:07:21Z</time>
  <course>223.26</course>
  <speed>0.73</speed>
  <fix>3d</fix>
</trkpt>
<trkpt lat="33.810158" lon="-118.3940425">
  <ele>-0.104</ele>
  <time>2026-09-02T22:07:21Z</time>
  <course>186.28</course>
  <speed>0.7213875518748573</speed>
  <fix>3d</fix>
</trkpt>
<trkpt lat="33.8101579" lon="-118.3940426">
  <ele>-0.105</ele>
  <time>2026-09-02T22:07:21Z</time>
  <course>186.28</course>
  <speed>0.7213875518748573</speed>
  <fix>3d</fix>
</trkpt>
<trkpt lat="33.8101579" lon="-118.3940427">
  <ele>-0.105</ele>
  <time>2026-09-02T22:07:21Z</time>
  <course>186.28</course>
  <speed>0.7213875518748573</speed>
  <fix>3d</fix>
</trkpt>
<trkpt lat="33.8101579" lon="-118.3940427">
  <ele>-0.105</ele>
  <time>2026-09-02T22:07:21Z</time>
  <course>186.28</course>
  <speed>0.7213875518748573</speed>
  <fix>3d</fix>
</trkpt>
<trkpt lat="33.8101578" lon="-118.3940428">
  <ele>-0.105</ele>
  <time>2026-09-02T22:07:21Z</time>
  <course>186.28</course>
  <speed>0.7213875518748573</speed>
  <fix>3d</fix>
</trkpt>
<trkpt lat="33.8101578" lon="-118.3940428">
  <ele>-0.105</ele>
  <time>2026-09-02T22:07:21Z</time>
  <course>186.28</course>
  <speed>0.7213875518748573</speed>
  <fix>3d</fix>
</trkpt>
<trkpt lat="33.8101577" lon="-118.3940428">
  <ele>-0.105</ele>
  <time>2026-09-02T22:07:21Z</time>
  <course>186.28</course>
  <speed>0.7213875518748573</speed>
  <fix>3d</fix>
</trkpt>
<trkpt lat="33.8101577" lon="-118.3940429">
  <ele>-0.105</ele>
  <time>2026-09-02T22:07:21Z</time>
  <course>186.28</course>
  <speed>0.7213875518748573</speed>
  <fix>3d</fix>
</trkpt>
<trkpt lat="33.8101577" lon="-118.3940429">
  <ele>-0.105</ele>
  <time>2026-09-02T22:07:21Z</time>
  <course>186.28</course>
  <speed>0.7213875518748573</speed>
  <fix>3d</fix>
</trkpt>
<trkpt lat="33.8101576" lon="-118.394043">
  <ele>-0.105</ele>
  <time>2026-09-02T22:07:21Z</time>
  <course>186.28</course>
  <speed>0.7213875518748573</speed>
  <fix>3d</fix>
</trkpt>
<trkpt lat="33.8101576" lon="-118.394043">
  <ele>-0.106</ele>
  <time>2026-09-02T22:07:21Z</time>
  <course>186.28</course>
  <speed>0.7213875518748573</speed>
  <fix>3d</fix>
</trkpt>
<trkpt lat="33.8101576" lon="-118.3940431">
  <ele>-0.105</ele>
  <time>2026-09-02T22:07:21Z</time>
  <course>186.28</course>
  <speed>0.7213875518748573</speed>
  <fix>3d</fix>
</trkpt>
<trkpt lat="33.8101576" lon="-118.3940431">
  <ele>-0.105</ele>
  <time>2026-09-02T22:07:21Z</time>
  <course>186.28</course>
  <speed>0.7213875518748573</speed>
  <fix>3d</fix>
</trkpt>
<trkpt lat="33.8101585" lon="-118.3940416">
  <ele>-0.11</ele>
  <time>2026-09-02T22:07:21Z</time>
  <course>223.26</course>
  <speed>0.73</speed>
  <fix>3d</fix>
</trkpt>
<trkpt lat="33.8101575" lon="-118.3940431">
  <ele>-0.106</ele>
  <time>2026-09-02T22:07:21Z</time>
  <course>186.28</course>
  <speed>0.7213875518748573</speed>
  <fix>3d</fix>
</trkpt>
<trkpt lat="33.8101574" lon="-118.3940432">
  <ele>-0.106</ele>
  <time>2026-09-02T22:07:21Z</time>
  <course>186.28</course>
  <speed>0.7213875518748573</speed>
  <fix>3d</fix>
</trkpt>
<trkpt lat="33.8101574" lon="-118.3940432">
  <ele>-0.106</ele>
  <time>2026-09-02T22:07:21Z</time>
  <course>186.28</course>
  <speed>0.7213875518748573</speed>
  <fix>3d</fix>
</trkpt>
<trkpt lat="33.8101574" lon="-118.3940433">
  <ele>-0.106</ele>
  <time>2026-09-02T22:07:21Z</time>
  <course>186.28</course>
  <speed>0.7213875518748573</speed>
  <fix>3d</fix>
</trkpt>
<trkpt lat="33.8101573" lon="-118.3940433">
  <ele>-0.106</ele>
  <time>2026-09-02T22:07:21Z</time>
  <course>186.28</course>
  <speed>0.7213875518748573</speed>
  <fix>3d</fix>
</trkpt>
<trkpt lat="33.8101573" lon="-118.3940434">
  <ele>-0.106</ele>
  <time>2026-09-02T22:07:21Z</time>
  <course>186.28</course>
  <speed>0.7213875518748573</speed>
  <fix>3d</fix>
</trkpt>
<trkpt lat="33.8101572" lon="-118.3940434">
  <ele>-0.106</ele>
  <time>2026-09-02T22:07:21Z</time>
  <course>186.28</course>
  <speed>0.7213875518748573</speed>
  <fix>3d</fix>
</trkpt>
<trkpt lat="33.8101572" lon="-118.3940435">
  <ele>-0.106</ele>
  <time>2026-09-02T22:07:21Z</time>
  <course>186.28</course>
  <speed>0.7213875518748573</speed>
  <fix>3d</fix>
</trkpt>
<trkpt lat="33.8101571" lon="-118.3940435">
  <ele>-0.106</ele>
  <time>2026-09-02T22:07:21Z</time>
  <course>186.28</course>
  <speed>0.7213875518748573</speed>
  <fix>3d</fix>
</trkpt>
<trkpt lat="33.8101571" lon="-118.3940436">
  <ele>-0.106</ele>
  <time>2026-09-02T22:07:21Z</time>
  <course>186.28</course>
  <speed>0.7213875518748573</speed>
  <fix>3d</fix>
</trkpt>
<trkpt lat="33.8101571" lon="-118.3940436">
  <ele>-0.106</ele>
  <time>2026-09-02T22:07:21Z</time>
  <course>186.28</course>
  <speed>0.7213875518748573</speed>
  <fix>3d</fix>
</trkpt>
<trkpt lat="33.8101571" lon="-118.3940436">
  <ele>-0.106</ele>
  <time>2026-09-02T22:07:21Z</time>
  <course>186.28</course>
  <speed>0.7213875518748573</speed>
  <fix>3d</fix>
</trkpt>
<trkpt lat="33.8101575" lon="-118.3940427">
  <ele>-0.1</ele>
  <time>2026-09-02T22:07:21Z</time>
  <course>223.26</course>
  <speed>0.73</speed>
  <fix>3d</fix>
</trkpt>
<trkpt lat="33.810157" lon="-118.3940437">
  <ele>-0.106</ele>
  <time>2026-09-02T22:07:21Z</time>
  <course>186.28</course>
  <speed>0.7213875518748573</speed>
  <fix>3d</fix>
</trkpt>
<trkpt lat="33.810157" lon="-118.3940437">
  <ele>-0.107</ele>
  <time>2026-09-02T22:07:21Z</time>
  <course>186.28</course>
  <speed>0.7213875518748573</speed>
  <fix>3d</fix>
</trkpt>
<trkpt lat="33.8101569" lon="-118.3940438">
  <ele>-0.107</ele>
  <time>2026-09-02T22:07:21Z</time>
  <course>186.28</course>
  <speed>0.7213875518748573</speed>
  <fix>3d</fix>
</trkpt>
<trkpt lat="33.8101569" lon="-118.3940438">
  <ele>-0.107</ele>
  <time>2026-09-02T22:07:21Z</time>
  <course>186.28</course>
  <speed>0.7213875518748573</speed>
  <fix>3d</fix>
</trkpt>
<trkpt lat="33.8101568" lon="-118.3940439">
  <ele>-0.107</ele>
  <time>2026-09-02T22:07:21Z</time>
  <course>186.28</course>
  <speed>0.7213875518748573</speed>
  <fix>3d</fix>
</trkpt>
<trkpt lat="33.8101568" lon="-118.3940439">
  <ele>-0.107</ele>
  <time>2026-09-02T22:07:21Z</time>
  <course>186.28</course>
  <speed>0.7213875518748573</speed>
  <fix>3d</fix>
</trkpt>
<trkpt lat="33.8101568" lon="-118.394044">
  <ele>-0.107</ele>
  <time>2026-09-02T22:07:21Z</time>
  <course>186.28</course>
  <speed>0.7213875518748573</speed>
  <fix>3d</fix>
</trkpt>
<trkpt lat="33.8101567" lon="-118.394044">
  <ele>-0.107</ele>
  <time>2026-09-02T22:07:21Z</time>
  <course>186.28</course>
  <speed>0.7213875518748573</speed>
  <fix>3d</fix>
</trkpt>
<trkpt lat="33.8101567" lon="-118.394044">
  <ele>-0.107</ele>
  <time>2026-09-02T22:07:21Z</time>
  <course>186.28</course>
  <speed>0.7213875518748573</speed>
  <fix>3d</fix>
</trkpt>
<trkpt lat="33.8101567" lon="-118.3940441">
  <ele>-0.107</ele>
  <time>2026-09-02T22:07:21Z</time>
  <course>186.28</course>
  <speed>0.7213875518748573</speed>
  <fix>3d</fix>
</trkpt>
<trkpt lat="33.8101566" lon="-118.3940441">
  <ele>-0.107</ele>
  <time>2026-09-02T22:07:21Z</time>
  <course>186.28</course>
  <speed>0.7213875518748573</speed>
  <fix>3d</fix>
</trkpt>
<trkpt lat="33.8101566" lon="-118.3940441">
  <ele>-0.107</ele>
  <time>2026-09-02T22:07:21Z</time>
  <course>186.28</course>
  <speed>0.7213875518748573</speed>
  <fix>3d</fix>
</trkpt>
<trkpt lat="33.8101575" lon="-118.3940427">
  <ele>-0.1</ele>
  <time>2026-09-02T22:07:21Z</time>
  <course>223.26</course>
  <speed>0.73</speed>
  <fix>3d</fix>
</trkpt>
<trkpt lat="33.8101566" lon="-118.3940442">
  <ele>-0.107</ele>
  <time>2026-09-02T22:07:21Z</time>
  <course>186.28</course>
  <speed>0.7213875518748573</speed>
  <fix>3d</fix>
</trkpt>
<trkpt lat="33.8101565" lon="-118.3940442">
  <ele>-0.107</ele>
  <time>2026-09-02T22:07:21Z</time>
  <course>186.28</course>
  <speed>0.7213875518748573</speed>
  <fix>3d</fix>
</trkpt>
<trkpt lat="33.8101565" lon="-118.3940443">
  <ele>-0.107</ele>
  <time>2026-09-02T22:07:21Z</time>
  <course>186.28</course>
  <speed>0.7213875518748573</speed>
  <fix>3d</fix>
</trkpt>
<trkpt lat="33.8101564" lon="-118.3940443">
  <ele>-0.108</ele>
  <time>2026-09-02T22:07:21Z</time>
  <course>186.28</course>
  <speed>0.7213875518748573</speed>
  <fix>3d</fix>
</trkpt>
<trkpt lat="33.8101564" lon="-118.3940444">
  <ele>-0.108</ele>
  <time>2026-09-02T22:07:21Z</time>
  <course>186.28</course>
  <speed>0.7213875518748573</speed>
  <fix>3d</fix>
</trkpt>
<trkpt lat="33.8101564" lon="-118.3940444">
  <ele>-0.108</ele>
  <time>2026-09-02T22:07:21Z</time>
  <course>186.28</course>
  <speed>0.7213875518748573</speed>
  <fix>3d</fix>
</trkpt>
<trkpt lat="33.8101563" lon="-118.3940445">
  <ele>-0.108</ele>
  <time>2026-09-02T22:07:21Z</time>
  <course>186.28</course>
  <speed>0.7213875518748573</speed>
  <fix>3d</fix>
</trkpt>
<trkpt lat="33.8101563" lon="-118.3940445">
  <ele>-0.108</ele>
  <time>2026-09-02T22:07:21Z</time>
  <course>186.28</course>
  <speed>0.7213875518748573</speed>
  <fix>3d</fix>
</trkpt>
<trkpt lat="33.8101562" lon="-118.3940446">
  <ele>-0.108</ele>
  <time>2026-09-02T22:07:21Z</time>
  <course>186.28</course>
  <speed>0.7213875518748573</speed>
  <fix>3d</fix>
</trkpt>
<trkpt lat="33.8101562" lon="-118.3940446">
  <ele>-0.108</ele>
  <time>2026-09-02T22:07:21Z</time>
  <course>186.28</course>
  <speed>0.7213875518748573</speed>
  <fix>3d</fix>
</trkpt>
<trkpt lat="33.8101561" lon="-118.3940446">
  <ele>-0.109</ele>
  <time>2026-09-02T22:07:21Z</time>
  <course>186.28</course>
  <speed>0.7213875518748573</speed>
  <fix>3d</fix>
</trkpt>
<trkpt lat="33.8101561" lon="-118.3940447">
  <ele>-0.109</ele>
  <time>2026-09-02T22:07:21Z</time>
  <course>186.28</course>
  <speed>0.7213875518748573</speed>
  <fix>3d</fix>
</trkpt>
<trkpt lat="33.8101566" lon="-118.3940438">
  <ele>-0.1</ele>
  <time>2026-09-02T22:07:21Z</time>
  <course>223.26</course>
  <speed>0.73</speed>
  <fix>3d</fix>
</trkpt>
<trkpt lat="33.8101561" lon="-118.3940447">
  <ele>-0.109</ele>
  <time>2026-09-02T22:07:21Z</time>
  <course>186.28</course>
  <speed>0.7213875518748573</speed>
  <fix>3d</fix>
</trkpt>
<trkpt lat="33.810156" lon="-118.3940448">
  <ele>-0.109</ele>
  <time>2026-09-02T22:07:21Z</time>
  <course>186.28</course>
  <speed>0.7213875518748573</speed>
  <fix>3d</fix>
</trkpt>
<trkpt lat="33.810156" lon="-118.3940448">
  <ele>-0.109</ele>
  <time>2026-09-02T22:07:21Z</time>
  <course>186.28</course>
  <speed>0.7213875518748573</speed>
  <fix>3d</fix>
</trkpt>
<trkpt lat="33.8101559" lon="-118.3940449">
  <ele>-0.109</ele>
  <time>2026-09-02T22:07:21Z</time>
  <course>186.28</course>
  <speed>0.7213875518748573</speed>
  <fix>3d</fix>
</trkpt>
<trkpt lat="33.8101559" lon="-118.3940449">
  <ele>-0.109</ele>
  <time>2026-09-02T22:07:21Z</time>
  <course>186.28</course>
  <speed>0.7213875518748573</speed>
  <fix>3d</fix>
</trkpt>
<trkpt lat="33.8101559" lon="-118.394045">
  <ele>-0.109</ele>
  <time>2026-09-02T22:07:21Z</time>
  <course>186.28</course>
  <speed>0.7213875518748573</speed>
  <fix>3d</fix>
</trkpt>
<trkpt lat="33.8101558" lon="-118.394045">
  <ele>-0.11</ele>
  <time>2026-09-02T22:07:21Z</time>
  <course>186.28</course>
  <speed>0.7213875518748573</speed>
  <fix>3d</fix>
</trkpt>
<trkpt lat="33.8101558" lon="-118.394045">
  <ele>-0.11</ele>
  <time>2026-09-02T22:07:21Z</time>
  <course>186.28</course>
  <speed>0.7213875518748573</speed>
  <fix>3d</fix>
</trkpt>
<trkpt lat="33.8101558" lon="-118.3940451">
  <ele>-0.11</ele>
  <time>2026-09-02T22:07:21Z</time>
  <course>186.28</course>
  <speed>0.7213875518748573</speed>
  <fix>3d</fix>
</trkpt>
<trkpt lat="33.8101557" lon="-118.3940451">
  <ele>-0.11</ele>
  <time>2026-09-02T22:07:21Z</time>
  <course>186.28</course>
  <speed>0.7213875518748573</speed>
  <fix>3d</fix>
</trkpt>
<trkpt lat="33.8101557" lon="-118.3940452">
  <ele>-0.11</ele>
  <time>2026-09-02T22:07:21Z</time>
  <course>186.28</course>
  <speed>0.7213875518748573</speed>
  <fix>3d</fix>
</trkpt>
<trkpt lat="33.8101556" lon="-118.3940452">
  <ele>-0.11</ele>
  <time>2026-09-02T22:07:21Z</time>
  <course>186.28</course>
  <speed>0.7213875518748573</speed>
  <fix>3d</fix>
</trkpt>
<trkpt lat="33.8101556" lon="-118.3940452">
  <ele>-0.11</ele>
  <time>2026-09-02T22:07:21Z</time>
  <course>186.28</course>
  <speed>0.7213875518748573</speed>
  <fix>3d</fix>
</trkpt>
<trkpt lat="33.8101566" lon="-118.3940438">
  <ele>-0.1</ele>
  <time>2026-09-02T22:07:21Z</time>
  <course>223.26</course>
  <speed>0.73</speed>
  <fix>3d</fix>
</trkpt>
<trkpt lat="33.8101556" lon="-118.3940452">
  <ele>-0.11</ele>
  <time>2026-09-02T22:07:21Z</time>
  <course>186.28</course>
  <speed>0.7213875518748573</speed>
  <fix>3d</fix>
</trkpt>
<trkpt lat="33.8101556" lon="-118.3940453">
  <ele>-0.11</ele>
  <time>2026-09-02T22:07:21Z</time>
  <course>186.28</course>
  <speed>0.7213875518748573</speed>
  <fix>3d</fix>
</trkpt>
<trkpt lat="33.8101555" lon="-118.3940454">
  <ele>-0.11</ele>
  <time>2026-09-02T22:07:21Z</time>
  <course>186.28</course>
  <speed>0.7213875518748573</speed>
  <fix>3d</fix>
</trkpt>
<trkpt lat="33.8101555" lon="-118.3940454">
  <ele>-0.11</ele>
  <time>2026-09-02T22:07:21Z</time>
  <course>186.28</course>
  <speed>0.7213875518748573</speed>
  <fix>3d</fix>
</trkpt>
<trkpt lat="33.8101554" lon="-118.3940455">
  <ele>-0.111</ele>
  <time>2026-09-02T22:07:21Z</time>
  <course>186.28</course>
  <speed>0.7213875518748573</speed>
  <fix>3d</fix>
</trkpt>
<trkpt lat="33.8101554" lon="-118.3940455">
  <ele>-0.111</ele>
  <time>2026-09-02T22:07:21Z</time>
  <course>186.28</course>
  <speed>0.7213875518748573</speed>
  <fix>3d</fix>
</trkpt>
<trkpt lat="33.8101554" lon="-118.3940455">
  <ele>-0.111</ele>
  <time>2026-09-02T22:07:21Z</time>
  <course>186.28</course>
  <speed>0.7213875518748573</speed>
  <fix>3d</fix>
</trkpt>
<trkpt lat="33.8101553" lon="-118.3940456">
  <ele>-0.111</ele>
  <time>2026-09-02T22:07:21Z</time>
  <course>186.28</course>
  <speed>0.7213875518748573</speed>
  <fix>3d</fix>
</trkpt>
<trkpt lat="33.8101553" lon="-118.3940456">
  <ele>-0.111</ele>
  <time>2026-09-02T22:07:21Z</time>
  <course>186.28</course>
  <speed>0.7213875518748573</speed>
  <fix>3d</fix>
</trkpt>
<trkpt lat="33.8101552" lon="-118.3940457">
  <ele>-0.111</ele>
  <time>2026-09-02T22:07:21Z</time>
  <course>186.28</course>
  <speed>0.7213875518748573</speed>
  <fix>3d</fix>
</trkpt>
<trkpt lat="33.8101552" lon="-118.3940457">
  <ele>-0.112</ele>
  <time>2026-09-02T22:07:21Z</time>
  <course>186.28</course>
  <speed>0.7213875518748573</speed>
  <fix>3d</fix>
</trkpt>
<trkpt lat="33.8101552" lon="-118.3940458">
  <ele>-0.112</ele>
  <time>2026-09-02T22:07:21Z</time>
  <course>186.28</course>
  <speed>0.7213875518748573</speed>
  <fix>3d</fix>
</trkpt>
<trkpt lat="33.8101552" lon="-118.3940458">
  <ele>-0.112</ele>
  <time>2026-09-02T22:07:21Z</time>
  <course>186.28</course>
  <speed>0.7213875518748573</speed>
  <fix>3d</fix>
</trkpt>
<trkpt lat="33.8101556" lon="-118.3940449">
  <ele>-0.1</ele>
  <time>2026-09-02T22:07:21Z</time>
  <course>223.26</course>
  <speed>0.73</speed>
  <fix>3d</fix>
</trkpt>
<trkpt lat="33.8101551" lon="-118.3940459">
  <ele>-0.112</ele>
  <time>2026-09-02T22:07:21Z</time>
  <course>186.28</course>
  <speed>0.7213875518748573</speed>
  <fix>3d</fix>
</trkpt>
<trkpt lat="33.810155" lon="-118.3940459">
  <ele>-0.112</ele>
  <time>2026-09-02T22:07:21Z</time>
  <course>186.28</course>
  <speed>0.7213875518748573</speed>
  <fix>3d</fix>
</trkpt>
<trkpt lat="33.810155" lon="-118.394046">
  <ele>-0.112</ele>
  <time>2026-09-02T22:07:21Z</time>
  <course>186.28</course>
  <speed>0.7213875518748573</speed>
  <fix>3d</fix>
</trkpt>
<trkpt lat="33.8101549" lon="-118.394046">
  <ele>-0.112</ele>
  <time>2026-09-02T22:07:21Z</time>
  <course>186.28</course>
  <speed>0.7213875518748573</speed>
  <fix>3d</fix>
</trkpt>
<trkpt lat="33.8101549" lon="-118.3940461">
  <ele>-0.113</ele>
  <time>2026-09-02T22:07:21Z</time>
  <course>186.28</course>
  <speed>0.7213875518748573</speed>
  <fix>3d</fix>
</trkpt>
<trkpt lat="33.8101549" lon="-118.3940461">
  <ele>-0.113</ele>
  <time>2026-09-02T22:07:21Z</time>
  <course>186.28</course>
  <speed>0.7213875518748573</speed>
  <fix>3d</fix>
</trkpt>
<trkpt lat="33.8101548" lon="-118.3940462">
  <ele>-0.113</ele>
  <time>2026-09-02T22:07:21Z</time>
  <course>186.28</course>
  <speed>0.7213875518748573</speed>
  <fix>3d</fix>
</trkpt>
<trkpt lat="33.8101548" lon="-118.3940462">
  <ele>-0.113</ele>
  <time>2026-09-02T22:07:21Z</time>
  <course>186.27</course>
  <speed>0.7213875518748573</speed>
  <fix>3d</fix>
</trkpt>
<trkpt lat="33.8101547" lon="-118.3940463">
  <ele>-0.114</ele>
  <time>2026-09-02T22:07:21Z</time>
  <course>186.27</course>
  <speed>0.7213875518748573</speed>
  <fix>3d</fix>
</trkpt>
<trkpt lat="33.8101547" lon="-118.3940463">
  <ele>-0.114</ele>
  <time>2026-09-02T22:07:21Z</time>
  <course>186.27</course>
  <speed>0.7213875518748573</speed>
  <fix>3d</fix>
</trkpt>
<trkpt lat="33.8101547" lon="-118.3940463">
  <ele>-0.114</ele>
  <time>2026-09-02T22:07:21Z</time>
  <course>186.27</course>
  <speed>0.7213875518748573</speed>
  <fix>3d</fix>
</trkpt>
<trkpt lat="33.8101556" lon="-118.3940449">
  <ele>-0.1</ele>
  <time>2026-09-02T22:07:21Z</time>
  <course>223.26</course>
  <speed>0.73</speed>
  <fix>3d</fix>
</trkpt>
<trkpt lat="33.8101546" lon="-118.3940464">
  <ele>-0.114</ele>
  <time>2026-09-02T22:07:21Z</time>
  <course>186.27</course>
  <speed>0.7213875518748573</speed>
  <fix>3d</fix>
</trkpt>
<trkpt lat="33.8101546" lon="-118.3940465">
  <ele>-0.114</ele>
  <time>2026-09-02T22:07:21Z</time>
  <course>186.27</course>
  <speed>0.7213875518748573</speed>
  <fix>3d</fix>
</trkpt>
<trkpt lat="33.8101545" lon="-118.3940465">
  <ele>-0.114</ele>
  <time>2026-09-02T22:07:21Z</time>
  <course>186.27</course>
  <speed>0.7213875518748573</speed>
  <fix>3d</fix>
</trkpt>
<trkpt lat="33.8101545" lon="-118.3940466">
  <ele>-0.115</ele>
  <time>2026-09-02T22:07:21Z</time>
  <course>186.27</course>
  <speed>0.7213875518748573</speed>
  <fix>3d</fix>
</trkpt>
<trkpt lat="33.8101544" lon="-118.3940466">
  <ele>-0.115</ele>
  <time>2026-09-02T22:07:21Z</time>
  <course>186.27</course>
  <speed>0.7213875518748573</speed>
  <fix>3d</fix>
</trkpt>
<trkpt lat="33.8101544" lon="-118.3940467">
  <ele>-0.115</ele>
  <time>2026-09-02T22:07:21Z</time>
  <course>186.27</course>
  <speed>0.7213875518748573</speed>
  <fix>3d</fix>
</trkpt>
<trkpt lat="33.8101544" lon="-118.3940467">
  <ele>-0.115</ele>
  <time>2026-09-02T22:07:21Z</time>
  <course>186.27</course>
  <speed>0.7213875518748573</speed>
  <fix>3d</fix>
</trkpt>
<trkpt lat="33.8101543" lon="-118.3940467">
  <ele>-0.115</ele>
  <time>2026-09-02T22:07:21Z</time>
  <course>186.27</course>
  <speed>0.7213875518748573</speed>
  <fix>3d</fix>
</trkpt>
<trkpt lat="33.8101543" lon="-118.3940468">
  <ele>-0.115</ele>
  <time>2026-09-02T22:07:21Z</time>
  <course>186.27</course>
  <speed>0.7213875518748573</speed>
  <fix>3d</fix>
</trkpt>
<trkpt lat="33.8101542" lon="-118.3940468">
  <ele>-0.116</ele>
  <time>2026-09-02T22:07:21Z</time>
  <course>186.27</course>
  <speed>0.7213875518748573</speed>
  <fix>3d</fix>
</trkpt>
<trkpt lat="33.8101542" lon="-118.3940469">
  <ele>-0.116</ele>
  <time>2026-09-02T22:07:21Z</time>
  <course>186.27</course>
  <speed>0.7213875518748573</speed>
  <fix>3d</fix>
</trkpt>
<trkpt lat="33.8101542" lon="-118.3940469">
  <ele>-0.116</ele>
  <time>2026-09-02T22:07:21Z</time>
  <course>186.27</course>
  <speed>0.7213875518748573</speed>
  <fix>3d</fix>
</trkpt>
<trkpt lat="33.8101546" lon="-118.394046">
  <ele>-0.1</ele>
  <time>2026-09-02T22:07:21Z</time>
  <course>223.26</course>
  <speed>0.73</speed>
  <fix>3d</fix>
</trkpt>
<trkpt lat="33.8101542" lon="-118.3940469">
  <ele>-0.116</ele>
  <time>2026-09-02T22:07:21Z</time>
  <course>186.27</course>
  <speed>0.7213875518748573</speed>
  <fix>3d</fix>
</trkpt>
<trkpt lat="33.8101542" lon="-118.3940469">
  <ele>-0.116</ele>
  <time>2026-09-02T22:07:21Z</time>
  <course>186.27</course>
  <speed>0.7213875518748573</speed>
  <fix>3d</fix>
</trkpt>
<trkpt lat="33.8101541" lon="-118.394047">
  <ele>-0.116</ele>
  <time>2026-09-02T22:07:21Z</time>
  <course>186.27</course>
  <speed>0.7213875518748573</speed>
  <fix>3d</fix>
</trkpt>
<trkpt lat="33.8101541" lon="-118.394047">
  <ele>-0.116</ele>
  <time>2026-09-02T22:07:21Z</time>
  <course>186.27</course>
  <speed>0.7213875518748573</speed>
  <fix>3d</fix>
</trkpt>
<trkpt lat="33.810154" lon="-118.3940471">
  <ele>-0.116</ele>
  <time>2026-09-02T22:07:21Z</time>
  <course>186.27</course>
  <speed>0.7213875518748573</speed>
  <fix>3d</fix>
</trkpt>
<trkpt lat="33.810154" lon="-118.3940471">
  <ele>-0.116</ele>
  <time>2026-09-02T22:07:21Z</time>
  <course>186.27</course>
  <speed>0.7213875518748573</speed>
  <fix>3d</fix>
</trkpt>
<trkpt lat="33.810154" lon="-118.3940472">
  <ele>-0.116</ele>
  <time>2026-09-02T22:07:21Z</time>
  <course>186.27</course>
  <speed>0.7213875518748573</speed>
  <fix>3d</fix>
</trkpt>
<trkpt lat="33.8101539" lon="-118.3940472">
  <ele>-0.117</ele>
  <time>2026-09-02T22:07:21Z</time>
  <course>186.27</course>
  <speed>0.7213875518748573</speed>
  <fix>3d</fix>
</trkpt>
<trkpt lat="33.8101539" lon="-118.3940472">
  <ele>-0.117</ele>
  <time>2026-09-02T22:07:21Z</time>
  <course>186.27</course>
  <speed>0.7213875518748573</speed>
  <fix>3d</fix>
</trkpt>
<trkpt lat="33.8101538" lon="-118.3940473">
  <ele>-0.117</ele>
  <time>2026-09-02T22:07:21Z</time>
  <course>186.27</course>
  <speed>0.7213875518748573</speed>
  <fix>3d</fix>
</trkpt>
<trkpt lat="33.8101538" lon="-118.3940473">
  <ele>-0.117</ele>
  <time>2026-09-02T22:07:21Z</time>
  <course>186.27</course>
  <speed>0.7213875518748573</speed>
  <fix>3d</fix>
</trkpt>
<trkpt lat="33.8101538" lon="-118.3940474">
  <ele>-0.117</ele>
  <time>2026-09-02T22:07:21Z</time>
  <course>186.27</course>
  <speed>0.7213875518748573</speed>
  <fix>3d</fix>
</trkpt>
<trkpt lat="33.8101537" lon="-118.3940474">
  <ele>-0.117</ele>
  <time>2026-09-02T22:07:21Z</time>
  <course>186.27</course>
  <speed>0.7213875518748573</speed>
  <fix>3d</fix>
</trkpt>
<trkpt lat="33.8101546" lon="-118.394046">
  <ele>-0.1</ele>
  <time>2026-09-02T22:07:21Z</time>
  <course>223.26</course>
  <speed>0.73</speed>
  <fix>3d</fix>
</trkpt>
<trkpt lat="33.8101537" lon="-118.3940474">
  <ele>-0.117</ele>
  <time>2026-09-02T22:07:21Z</time>
  <course>186.27</course>
  <speed>0.7213875518748573</speed>
  <fix>3d</fix>
</trkpt>
<trkpt lat="33.8101536" lon="-118.3940475">
  <ele>-0.117</ele>
  <time>2026-09-02T22:07:21Z</time>
  <course>186.27</course>
  <speed>0.7213875518748573</speed>
  <fix>3d</fix>
</trkpt>
<trkpt lat="33.8101536" lon="-118.3940476">
  <ele>-0.117</ele>
  <time>2026-09-02T22:07:21Z</time>
  <course>186.27</course>
  <speed>0.7213875518748573</speed>
  <fix>3d</fix>
</trkpt>
<trkpt lat="33.8101536" lon="-118.3940476">
  <ele>-0.117</ele>
  <time>2026-09-02T22:07:21Z</time>
  <course>186.27</course>
  <speed>0.7213875518748573</speed>
  <fix>3d</fix>
</trkpt>
<trkpt lat="33.8101535" lon="-118.3940477">
  <ele>-0.117</ele>
  <time>2026-09-02T22:07:21Z</time>
  <course>186.27</course>
  <speed>0.7213875518748573</speed>
  <fix>3d</fix>
</trkpt>
<trkpt lat="33.8101535" lon="-118.3940477">
  <ele>-0.117</ele>
  <time>2026-09-02T22:07:21Z</time>
  <course>186.27</course>
  <speed>0.7213875518748573</speed>
  <fix>3d</fix>
</trkpt>
<trkpt lat="33.8101534" lon="-118.3940477">
  <ele>-0.117</ele>
  <time>2026-09-02T22:07:21Z</time>
  <course>186.27</course>
  <speed>0.7213875518748573</speed>
  <fix>3d</fix>
</trkpt>
<trkpt lat="33.8101534" lon="-118.3940478">
  <ele>-0.117</ele>
  <time>2026-09-02T22:07:21Z</time>
  <course>186.27</course>
  <speed>0.7213875518748573</speed>
  <fix>3d</fix>
</trkpt>
<trkpt lat="33.8101534" lon="-118.3940478">
  <ele>-0.117</ele>
  <time>2026-09-02T22:07:21Z</time>
  <course>186.27</course>
  <speed>0.7213875518748573</speed>
  <fix>3d</fix>
</trkpt>
<trkpt lat="33.8101533" lon="-118.3940479">
  <ele>-0.117</ele>
  <time>2026-09-02T22:07:21Z</time>
  <course>186.27</course>
  <speed>0.7213875518748573</speed>
  <fix>3d</fix>
</trkpt>
<trkpt lat="33.8101533" lon="-118.3940479">
  <ele>-0.117</ele>
  <time>2026-09-02T22:07:21Z</time>
  <course>186.27</course>
  <speed>0.7213875518748573</speed>
  <fix>3d</fix>
</trkpt>
<trkpt lat="33.8101532" lon="-118.394048">
  <ele>-0.117</ele>
  <time>2026-09-02T22:07:21Z</time>
  <course>186.27</course>
  <speed>0.7213875518748573</speed>
  <fix>3d</fix>
</trkpt>
<trkpt lat="33.8101532" lon="-118.394048">
  <ele>-0.117</ele>
  <time>2026-09-02T22:07:21Z</time>
  <course>186.27</course>
  <speed>0.7213875518748573</speed>
  <fix>3d</fix>
</trkpt>
<trkpt lat="33.8101537" lon="-118.394047">
  <ele>-0.11</ele>
  <time>2026-09-02T22:07:21Z</time>
  <course>223.26</course>
  <speed>0.73</speed>
  <fix>3d</fix>
</trkpt>
<trkpt lat="33.8101532" lon="-118.394048">
  <ele>-0.116</ele>
  <time>2026-09-02T22:07:21Z</time>
  <course>186.27</course>
  <speed>0.7213875518748573</speed>
  <fix>3d</fix>
</trkpt>
<trkpt lat="33.8101531" lon="-118.3940481">
  <ele>-0.116</ele>
  <time>2026-09-02T22:07:21Z</time>
  <course>186.27</course>
  <speed>0.7213875518748573</speed>
  <fix>3d</fix>
</trkpt>
<trkpt lat="33.8101531" lon="-118.3940482">
  <ele>-0.116</ele>
  <time>2026-09-02T22:07:21Z</time>
  <course>186.27</course>
  <speed>0.7213875518748573</speed>
  <fix>3d</fix>
</trkpt>
<trkpt lat="33.810153" lon="-118.3940482">
  <ele>-0.116</ele>
  <time>2026-09-02T22:07:21Z</time>
  <course>186.27</course>
  <speed>0.7213875518748573</speed>
  <fix>3d</fix>
</trkpt>
<trkpt lat="33.810153" lon="-118.3940483">
  <ele>-0.116</ele>
  <time>2026-09-02T22:07:21Z</time>
  <course>186.27</course>
  <speed>0.7213875518748573</speed>
  <fix>3d</fix>
</trkpt>
<trkpt lat="33.810153" lon="-118.3940483">
  <ele>-0.116</ele>
  <time>2026-09-02T22:07:21Z</time>
  <course>186.27</course>
  <speed>0.7213875518748573</speed>
  <fix>3d</fix>
</trkpt>
<trkpt lat="33.8101529" lon="-118.3940483">
  <ele>-0.116</ele>
  <time>2026-09-02T22:07:21Z</time>
  <course>186.27</course>
  <speed>0.7213875518748573</speed>
  <fix>3d</fix>
</trkpt>
<trkpt lat="33.8101529" lon="-118.3940484">
  <ele>-0.116</ele>
  <time>2026-09-02T22:07:21Z</time>
  <course>186.27</course>
  <speed>0.7213875518748573</speed>
  <fix>3d</fix>
</trkpt>
<trkpt lat="33.8101528" lon="-118.3940484">
  <ele>-0.116</ele>
  <time>2026-09-02T22:07:21Z</time>
  <course>186.27</course>
  <speed>0.7213875518748573</speed>
  <fix>3d</fix>
</trkpt>
<trkpt lat="33.8101528" lon="-118.3940485">
  <ele>-0.116</ele>
  <time>2026-09-02T22:07:21Z</time>
  <course>186.27</course>
  <speed>0.7213875518748573</speed>
  <fix>3d</fix>
</trkpt>
<trkpt lat="33.8101528" lon="-118.3940485">
  <ele>-0.116</ele>
  <time>2026-09-02T22:07:21Z</time>
  <course>186.27</course>
  <speed>0.7213875518748573</speed>
  <fix>3d</fix>
</trkpt>
<trkpt lat="33.8101528" lon="-118.3940485">
  <ele>-0.116</ele>
  <time>2026-09-02T22:07:21Z</time>
  <course>186.27</course>
  <speed>0.7213875518748573</speed>
  <fix>3d</fix>
</trkpt>
<trkpt lat="33.8101537" lon="-118.394047">
  <ele>-0.11</ele>
  <time>2026-09-02T22:07:21Z</time>
  <course>223.26</course>
  <speed>0.73</speed>
  <fix>3d</fix>
</trkpt>
<trkpt lat="33.8101527" lon="-118.3940486">
  <ele>-0.116</ele>
  <time>2026-09-02T22:07:21Z</time>
  <course>186.27</course>
  <speed>0.7213875518748573</speed>
  <fix>3d</fix>
</trkpt>
<trkpt lat="33.8101526" lon="-118.3940487">
  <ele>-0.116</ele>
  <time>2026-09-02T22:07:21Z</time>
  <course>186.27</course>
  <speed>0.7213875518748573</speed>
  <fix>3d</fix>
</trkpt>
<trkpt lat="33.8101526" lon="-118.3940487">
  <ele>-0.115</ele>
  <time>2026-09-02T22:07:21Z</time>
  <course>186.27</course>
  <speed>0.7213875518748573</speed>
  <fix>3d</fix>
</trkpt>
<trkpt lat="33.8101525" lon="-118.3940488">
  <ele>-0.115</ele>
  <time>2026-09-02T22:07:21Z</time>
  <course>186.27</course>
  <speed>0.7213875518748573</speed>
  <fix>3d</fix>
</trkpt>
<trkpt lat="33.8101525" lon="-118.3940488">
  <ele>-0.115</ele>
  <time>2026-09-02T22:07:21Z</time>
  <course>186.27</course>
  <speed>0.7213875518748573</speed>
  <fix>3d</fix>
</trkpt>
<trkpt lat="33.8101524" lon="-118.3940489">
  <ele>-0.115</ele>
  <time>2026-09-02T22:07:21Z</time>
  <course>186.27</course>
  <speed>0.7213875518748573</speed>
  <fix>3d</fix>
</trkpt>
<trkpt lat="33.8101524" lon="-118.3940489">
  <ele>-0.115</ele>
  <time>2026-09-02T22:07:21Z</time>
  <course>186.27</course>
  <speed>0.7213875518748573</speed>
  <fix>3d</fix>
</trkpt>
<trkpt lat="33.8101524" lon="-118.394049">
  <ele>-0.115</ele>
  <time>2026-09-02T22:07:21Z</time>
  <course>186.27</course>
  <speed>0.7213875518748573</speed>
  <fix>3d</fix>
</trkpt>
<trkpt lat="33.8101523" lon="-118.394049">
  <ele>-0.115</ele>
  <time>2026-09-02T22:07:21Z</time>
  <course>186.27</course>
  <speed>0.7213875518748573</speed>
  <fix>3d</fix>
</trkpt>
<trkpt lat="33.8101523" lon="-118.3940491">
  <ele>-0.115</ele>
  <time>2026-09-02T22:07:21Z</time>
  <course>186.27</course>
  <speed>0.7213875518748573</speed>
  <fix>3d</fix>
</trkpt>
<trkpt lat="33.8101523" lon="-118.3940491">
  <ele>-0.115</ele>
  <time>2026-09-02T22:07:21Z</time>
  <course>186.27</course>
  <speed>0.7213875518748573</speed>
  <fix>3d</fix>
</trkpt>
<trkpt lat="33.8101527" lon="-118.3940481">
  <ele>-0.1</ele>
  <time>2026-09-02T22:07:21Z</time>
  <course>223.26</course>
  <speed>0.73</speed>
  <fix>3d</fix>
</trkpt>
<trkpt lat="33.8101522" lon="-118.3940492">
  <ele>-0.115</ele>
  <time>2026-09-02T22:07:21Z</time>
  <course>186.27</course>
  <speed>0.7213875518748573</speed>
  <fix>3d</fix>
</trkpt>
<trkpt lat="33.8101521" lon="-118.3940492">
  <ele>-0.114</ele>
  <time>2026-09-02T22:07:21Z</time>
  <course>186.27</course>
  <speed>0.7213875518748573</speed>
  <fix>3d</fix>
</trkpt>
<trkpt lat="33.8101521" lon="-118.3940493">
  <ele>-0.114</ele>
  <time>2026-09-02T22:07:21Z</time>
  <course>186.27</course>
  <speed>0.7213875518748573</speed>
  <fix>3d</fix>
</trkpt>
<trkpt lat="33.8101521" lon="-118.3940493">
  <ele>-0.114</ele>
  <time>2026-09-02T22:07:21Z</time>
  <course>186.27</course>
  <speed>0.7213875518748573</speed>
  <fix>3d</fix>
</trkpt>
<trkpt lat="33.810152" lon="-118.3940493">
  <ele>-0.114</ele>
  <time>2026-09-02T22:07:21Z</time>
  <course>186.27</course>
  <speed>0.7213875518748573</speed>
  <fix>3d</fix>
</trkpt>
<trkpt lat="33.810152" lon="-118.3940494">
  <ele>-0.114</ele>
  <time>2026-09-02T22:07:21Z</time>
  <course>186.27</course>
  <speed>0.7213875518748573</speed>
  <fix>3d</fix>
</trkpt>
<trkpt lat="33.8101519" lon="-118.3940494">
  <ele>-0.114</ele>
  <time>2026-09-02T22:07:21Z</time>
  <course>186.27</course>
  <speed>0.7213875518748573</speed>
  <fix>3d</fix>
</trkpt>
<trkpt lat="33.8101519" lon="-118.3940495">
  <ele>-0.114</ele>
  <time>2026-09-02T22:07:21Z</time>
  <course>186.27</course>
  <speed>0.7213875518748573</speed>
  <fix>3d</fix>
</trkpt>
<trkpt lat="33.8101518" lon="-118.3940496">
  <ele>-0.114</ele>
  <time>2026-09-02T22:07:21Z</time>
  <course>186.27</course>
  <speed>0.7213875518748573</speed>
  <fix>3d</fix>
</trkpt>
<trkpt lat="33.8101518" lon="-118.3940496">
  <ele>-0.114</ele>
  <time>2026-09-02T22:07:21Z</time>
  <course>186.27</course>
  <speed>0.7213875518748573</speed>
  <fix>3d</fix>
</trkpt>
<trkpt lat="33.8101518" lon="-118.3940496">
  <ele>-0.114</ele>
  <time>2026-09-02T22:07:21Z</time>
  <course>186.27</course>
  <speed>0.7213875518748573</speed>
  <fix>3d</fix>
</trkpt>
<trkpt lat="33.8101527" lon="-118.3940481">
  <ele>-0.1</ele>
  <time>2026-09-02T22:07:21Z</time>
  <course>223.26</course>
  <speed>0.73</speed>
  <fix>3d</fix>
</trkpt>
<trkpt lat="33.8101517" lon="-118.3940497">
  <ele>-0.113</ele>
  <time>2026-09-02T22:07:21Z</time>
  <course>186.27</course>
  <speed>0.7213875518748573</speed>
  <fix>3d</fix>
</trkpt>
<trkpt lat="33.8101517" lon="-118.3940498">
  <ele>-0.113</ele>
  <time>2026-09-02T22:07:21Z</time>
  <course>186.27</course>
  <speed>0.7213875518748573</speed>
  <fix>3d</fix>
</trkpt>
<trkpt lat="33.8101516" lon="-118.3940498">
  <ele>-0.113</ele>
  <time>2026-09-02T22:07:21Z</time>
  <course>186.27</course>
  <speed>0.7213875518748573</speed>
  <fix>3d</fix>
</trkpt>
<trkpt lat="33.8101516" lon="-118.3940499">
  <ele>-0.113</ele>
  <time>2026-09-02T22:07:21Z</time>
  <course>186.27</course>
  <speed>0.7213875518748573</speed>
  <fix>3d</fix>
</trkpt>
<trkpt lat="33.8101515" lon="-118.3940499">
  <ele>-0.113</ele>
  <time>2026-09-02T22:07:21Z</time>
  <course>186.27</course>
  <speed>0.7213875518748573</speed>
  <fix>3d</fix>
</trkpt>
<trkpt lat="33.8101515" lon="-118.3940499">
  <ele>-0.113</ele>
  <time>2026-09-02T22:07:21Z</time>
  <course>186.27</course>
  <speed>0.7213875518748573</speed>
  <fix>3d</fix>
</trkpt>
<trkpt lat="33.8101515" lon="-118.39405">
  <ele>-0.113</ele>
  <time>2026-09-02T22:07:21Z</time>
  <course>186.27</course>
  <speed>0.7213875518748573</speed>
  <fix>3d</fix>
</trkpt>
<trkpt lat="33.8101514" lon="-118.39405">
  <ele>-0.113</ele>
  <time>2026-09-02T22:07:21Z</time>
  <course>186.27</course>
  <speed>0.7213875518748573</speed>
  <fix>3d</fix>
</trkpt>
<trkpt lat="33.8101514" lon="-118.3940501">
  <ele>-0.113</ele>
  <time>2026-09-02T22:07:21Z</time>
  <course>186.27</course>
  <speed>0.7213875518748573</speed>
  <fix>3d</fix>
</trkpt>
<trkpt lat="33.8101513" lon="-118.3940501">
  <ele>-0.113</ele>
  <time>2026-09-02T22:07:21Z</time>
  <course>186.27</course>
  <speed>0.7213875518748573</speed>
  <fix>3d</fix>
</trkpt>
<trkpt lat="33.8101513" lon="-118.3940502">
  <ele>-0.114</ele>
  <time>2026-09-02T22:07:21Z</time>
  <course>186.27</course>
  <speed>0.7213875518748573</speed>
  <fix>3d</fix>
</trkpt>
<trkpt lat="33.8101518" lon="-118.3940492">
  <ele>-0.1</ele>
  <time>2026-09-02T22:07:21Z</time>
  <course>223.26</course>
  <speed>0.73</speed>
  <fix>3d</fix>
</trkpt>
<trkpt lat="33.8101513" lon="-118.3940502">
  <ele>-0.114</ele>
  <time>2026-09-02T22:07:21Z</time>
  <course>186.27</course>
  <speed>0.7213875518748573</speed>
  <fix>3d</fix>
</trkpt>
<trkpt lat="33.8101512" lon="-118.3940502">
  <ele>-0.114</ele>
  <time>2026-09-02T22:07:21Z</time>
  <course>186.27</course>
  <speed>0.7213875518748573</speed>
  <fix>3d</fix>
</trkpt>
<trkpt lat="33.8101512" lon="-118.3940503">
  <ele>-0.114</ele>
  <time>2026-09-02T22:07:21Z</time>
  <course>186.27</course>
  <speed>0.7213875518748573</speed>
  <fix>3d</fix>
</trkpt>
<trkpt lat="33.8101512" lon="-118.3940503">
  <ele>-0.114</ele>
  <time>2026-09-02T22:07:21Z</time>
  <course>186.27</course>
  <speed>0.7213875518748573</speed>
  <fix>3d</fix>
</trkpt>
<trkpt lat="33.8101511" lon="-118.3940504">
  <ele>-0.114</ele>
  <time>2026-09-02T22:07:21Z</time>
  <course>186.27</course>
  <speed>0.7213875518748573</speed>
  <fix>3d</fix>
</trkpt>
<trkpt lat="33.8101511" lon="-118.3940504">
  <ele>-0.114</ele>
  <time>2026-09-02T22:07:21Z</time>
  <course>186.27</course>
  <speed>0.7213875518748573</speed>
  <fix>3d</fix>
</trkpt>
<trkpt lat="33.810151" lon="-118.3940505">
  <ele>-0.114</ele>
  <time>2026-09-02T22:07:21Z</time>
  <course>186.27</course>
  <speed>0.7213875518748573</speed>
  <fix>3d</fix>
</trkpt>
<trkpt lat="33.810151" lon="-118.3940505">
  <ele>-0.113</ele>
  <time>2026-09-02T22:07:21Z</time>
  <course>186.27</course>
  <speed>0.7213875518748573</speed>
  <fix>3d</fix>
</trkpt>
<trkpt lat="33.810151" lon="-118.3940506">
  <ele>-0.114</ele>
  <time>2026-09-02T22:07:21Z</time>
  <course>186.27</course>
  <speed>0.7213875518748573</speed>
  <fix>3d</fix>
</trkpt>
<trkpt lat="33.8101509" lon="-118.3940506">
  <ele>-0.113</ele>
  <time>2026-09-02T22:07:21Z</time>
  <course>186.27</course>
  <speed>0.7213875518748573</speed>
  <fix>3d</fix>
</trkpt>
<trkpt lat="33.8101509" lon="-118.3940507">
  <ele>-0.113</ele>
  <time>2026-09-02T22:07:21Z</time>
  <course>186.27</course>
  <speed>0.7213875518748573</speed>
  <fix>3d</fix>
</trkpt>
<trkpt lat="33.8101508" lon="-118.3940507">
  <ele>-0.113</ele>
  <time>2026-09-02T22:07:21Z</time>
  <course>186.27</course>
  <speed>0.7213875518748573</speed>
  <fix>3d</fix>
</trkpt>
<trkpt lat="33.8101518" lon="-118.3940492">
  <ele>-0.1</ele>
  <time>2026-09-02T22:07:21Z</time>
  <course>223.26</course>
  <speed>0.73</speed>
  <fix>3d</fix>
</trkpt>
<trkpt lat="33.8101508" lon="-118.3940507">
  <ele>-0.113</ele>
  <time>2026-09-02T22:07:21Z</time>
  <course>186.27</course>
  <speed>0.7213875518748573</speed>
  <fix>3d</fix>
</trkpt>
<trkpt lat="33.8101508" lon="-118.3940508">
  <ele>-0.113</ele>
  <time>2026-09-02T22:07:21Z</time>
  <course>186.27</course>
  <speed>0.7213875518748573</speed>
  <fix>3d</fix>
</trkpt>
<trkpt lat="33.8101507" lon="-118.3940508">
  <ele>-0.113</ele>
  <time>2026-09-02T22:07:21Z</time>
  <course>186.27</course>
  <speed>0.7213875518748573</speed>
  <fix>3d</fix>
</trkpt>
<trkpt lat="33.8101507" lon="-118.3940509">
  <ele>-0.113</ele>
  <time>2026-09-02T22:07:21Z</time>
  <course>186.27</course>
  <speed>0.7213875518748573</speed>
  <fix>3d</fix>
</trkpt>
<trkpt lat="33.8101506" lon="-118.394051">
  <ele>-0.113</ele>
  <time>2026-09-02T22:07:21Z</time>
  <course>186.27</course>
  <speed>0.7213875518748573</speed>
  <fix>3d</fix>
</trkpt>
<trkpt lat="33.8101506" lon="-118.394051">
  <ele>-0.113</ele>
  <time>2026-09-02T22:07:21Z</time>
  <course>186.27</course>
  <speed>0.7213875518748573</speed>
  <fix>3d</fix>
</trkpt>
<trkpt lat="33.8101505" lon="-118.394051">
  <ele>-0.113</ele>
  <time>2026-09-02T22:07:21Z</time>
  <course>186.27</course>
  <speed>0.7213875518748573</speed>
  <fix>3d</fix>
</trkpt>
<trkpt lat="33.8101505" lon="-118.3940511">
  <ele>-0.113</ele>
  <time>2026-09-02T22:07:21Z</time>
  <course>186.27</course>
  <speed>0.7213875518748573</speed>
  <fix>3d</fix>
</trkpt>
<trkpt lat="33.8101505" lon="-118.3940511">
  <ele>-0.113</ele>
  <time>2026-09-02T22:07:21Z</time>
  <course>186.27</course>
  <speed>0.7213875518748573</speed>
  <fix>3d</fix>
</trkpt>
<trkpt lat="33.8101504" lon="-118.3940512">
  <ele>-0.113</ele>
  <time>2026-09-02T22:07:21Z</time>
  <course>186.27</course>
  <speed>0.7213875518748573</speed>
  <fix>3d</fix>
</trkpt>
<trkpt lat="33.8101504" lon="-118.3940512">
  <ele>-0.113</ele>
  <time>2026-09-02T22:07:21Z</time>
  <course>186.27</course>
  <speed>0.7213875518748573</speed>
  <fix>3d</fix>
</trkpt>
<trkpt lat="33.8101504" lon="-118.3940512">
  <ele>-0.113</ele>
  <time>2026-09-02T22:07:21Z</time>
  <course>186.27</course>
  <speed>0.7213875518748573</speed>
  <fix>3d</fix>
</trkpt>
<trkpt lat="33.8101508" lon="-118.3940503">
  <ele>-0.1</ele>
  <time>2026-09-02T22:07:21Z</time>
  <course>223.26</course>
  <speed>0.73</speed>
  <fix>3d</fix>
</trkpt>
<trkpt lat="33.8101503" lon="-118.3940512">
  <ele>-0.113</ele>
  <time>2026-09-02T22:07:21Z</time>
  <course>186.27</course>
  <speed>0.7213875518748573</speed>
  <fix>3d</fix>
</trkpt>
<trkpt lat="33.8101503" lon="-118.3940513">
  <ele>-0.113</ele>
  <time>2026-09-02T22:07:21Z</time>
  <course>186.27</course>
  <speed>0.7213875518748573</speed>
  <fix>3d</fix>
</trkpt>
<trkpt lat="33.8101502" lon="-118.3940514">
  <ele>-0.113</ele>
  <time>2026-09-02T22:07:21Z</time>
  <course>186.27</course>
  <speed>0.7213875518748573</speed>
  <fix>3d</fix>
</trkpt>
<trkpt lat="33.8101502" lon="-118.3940514">
  <ele>-0.113</ele>
  <time>2026-09-02T22:07:21Z</time>
  <course>186.27</course>
  <speed>0.7213875518748573</speed>
  <fix>3d</fix>
</trkpt>
<trkpt lat="33.8101501" lon="-118.3940515">
  <ele>-0.113</ele>
  <time>2026-09-02T22:07:21Z</time>
  <course>186.27</course>
  <speed>0.7213875518748573</speed>
  <fix>3d</fix>
</trkpt>
<trkpt lat="33.8101501" lon="-118.3940515">
  <ele>-0.113</ele>
  <time>2026-09-02T22:07:21Z</time>
  <course>186.27</course>
  <speed>0.7213875518748573</speed>
  <fix>3d</fix>
</trkpt>
<trkpt lat="33.8101501" lon="-118.3940516">
  <ele>-0.113</ele>
  <time>2026-09-02T22:07:21Z</time>
  <course>186.27</course>
  <speed>0.7213875518748573</speed>
  <fix>3d</fix>
</trkpt>
<trkpt lat="33.81015" lon="-118.3940516">
  <ele>-0.113</ele>
  <time>2026-09-02T22:07:21Z</time>
  <course>186.27</course>
  <speed>0.7213875518748573</speed>
  <fix>3d</fix>
</trkpt>
<trkpt lat="33.81015" lon="-118.3940516">
  <ele>-0.113</ele>
  <time>2026-09-02T22:07:21Z</time>
  <course>186.27</course>
  <speed>0.7213875518748573</speed>
  <fix>3d</fix>
</trkpt>
<trkpt lat="33.81015" lon="-118.3940517">
  <ele>-0.113</ele>
  <time>2026-09-02T22:07:21Z</time>
  <course>186.27</course>
  <speed>0.7213875518748573</speed>
  <fix>3d</fix>
</trkpt>
<trkpt lat="33.8101499" lon="-118.3940517">
  <ele>-0.113</ele>
  <time>2026-09-02T22:07:21Z</time>
  <course>186.27</course>
  <speed>0.7213875518748573</speed>
  <fix>3d</fix>
</trkpt>
<trkpt lat="33.8101499" lon="-118.3940518">
  <ele>-0.113</ele>
  <time>2026-09-02T22:07:21Z</time>
  <course>186.27</course>
  <speed>0.7213875518748573</speed>
  <fix>3d</fix>
</trkpt>
<trkpt lat="33.8101499" lon="-118.3940518">
  <ele>-0.113</ele>
  <time>2026-09-02T22:07:21Z</time>
  <course>186.27</course>
  <speed>0.7213875518748573</speed>
  <fix>3d</fix>
</trkpt>
<trkpt lat="33.8101508" lon="-118.3940503">
  <ele>-0.1</ele>
  <time>2026-09-02T22:07:21Z</time>
  <course>223.26</course>
  <speed>0.73</speed>
  <fix>3d</fix>
</trkpt>
<trkpt lat="33.8101499" lon="-118.3940518">
  <ele>-0.113</ele>
  <time>2026-09-02T22:07:21Z</time>
  <course>186.27</course>
  <speed>0.7213875518748573</speed>
  <fix>3d</fix>
</trkpt>
<trkpt lat="33.8101498" lon="-118.3940519">
  <ele>-0.113</ele>
  <time>2026-09-02T22:07:21Z</time>
  <course>186.27</course>
  <speed>0.7213875518748573</speed>
  <fix>3d</fix>
</trkpt>
<trkpt lat="33.8101498" lon="-118.3940519">
  <ele>-0.113</ele>
  <time>2026-09-02T22:07:21Z</time>
  <course>186.27</course>
  <speed>0.7213875518748573</speed>
  <fix>3d</fix>
</trkpt>
<trkpt lat="33.8101497" lon="-118.394052">
  <ele>-0.113</ele>
  <time>2026-09-02T22:07:21Z</time>
  <course>186.27</course>
  <speed>0.7213875518748573</speed>
  <fix>3d</fix>
</trkpt>
<trkpt lat="33.8101497" lon="-118.394052">
  <ele>-0.113</ele>
  <time>2026-09-02T22:07:21Z</time>
  <course>186.27</course>
  <speed>0.7213875518748573</speed>
  <fix>3d</fix>
</trkpt>
<trkpt lat="33.8101496" lon="-118.3940521">
  <ele>-0.113</ele>
  <time>2026-09-02T22:07:21Z</time>
  <course>186.27</course>
  <speed>0.7213875518748573</speed>
  <fix>3d</fix>
</trkpt>
<trkpt lat="33.8101496" lon="-118.3940521">
  <ele>-0.113</ele>
  <time>2026-09-02T22:07:21Z</time>
  <course>186.27</course>
  <speed>0.7213875518748573</speed>
  <fix>3d</fix>
</trkpt>
<trkpt lat="33.8101495" lon="-118.3940522">
  <ele>-0.113</ele>
  <time>2026-09-02T22:07:21Z</time>
  <course>186.27</course>
  <speed>0.7213875518748573</speed>
  <fix>3d</fix>
</trkpt>
<trkpt lat="33.8101495" lon="-118.3940522">
  <ele>-0.113</ele>
  <time>2026-09-02T22:07:21Z</time>
  <course>186.27</course>
  <speed>0.7213875518748573</speed>
  <fix>3d</fix>
</trkpt>
<trkpt lat="33.8101494" lon="-118.3940523">
  <ele>-0.113</ele>
  <time>2026-09-02T22:07:21Z</time>
  <course>186.27</course>
  <speed>0.7213875518748573</speed>
  <fix>3d</fix>
</trkpt>
<trkpt lat="33.8101494" lon="-118.3940523">
  <ele>-0.113</ele>
  <time>2026-09-02T22:07:21Z</time>
  <course>186.27</course>
  <speed>0.7213875518748573</speed>
  <fix>3d</fix>
</trkpt>
<trkpt lat="33.8101494" lon="-118.3940523">
  <ele>-0.113</ele>
  <time>2026-09-02T22:07:21Z</time>
  <course>186.27</course>
  <speed>0.7213875518748573</speed>
  <fix>3d</fix>
</trkpt>
<trkpt lat="33.8101498" lon="-118.3940514">
  <ele>-0.1</ele>
  <time>2026-09-02T22:07:21Z</time>
  <course>223.26</course>
  <speed>0.73</speed>
  <fix>3d</fix>
</trkpt>
<trkpt lat="33.8101493" lon="-118.3940524">
  <ele>-0.113</ele>
  <time>2026-09-02T22:07:21Z</time>
  <course>186.27</course>
  <speed>0.7213875518748573</speed>
  <fix>3d</fix>
</trkpt>
<trkpt lat="33.8101493" lon="-118.3940525">
  <ele>-0.113</ele>
  <time>2026-09-02T22:07:21Z</time>
  <course>186.27</course>
  <speed>0.7213875518748573</speed>
  <fix>3d</fix>
</trkpt>
<trkpt lat="33.8101492" lon="-118.3940525">
  <ele>-0.113</ele>
  <time>2026-09-02T22:07:21Z</time>
  <course>186.27</course>
  <speed>0.7213875518748573</speed>
  <fix>3d</fix>
</trkpt>
<trkpt lat="33.8101492" lon="-118.3940526">
  <ele>-0.113</ele>
  <time>2026-09-02T22:07:21Z</time>
  <course>186.27</course>
  <speed>0.7213875518748573</speed>
  <fix>3d</fix>
</trkpt>
<trkpt lat="33.8101491" lon="-118.3940526">
  <ele>-0.113</ele>
  <time>2026-09-02T22:07:21Z</time>
  <course>186.27</course>
  <speed>0.7213875518748573</speed>
  <fix>3d</fix>
</trkpt>
<trkpt lat="33.8101491" lon="-118.3940527">
  <ele>-0.113</ele>
  <time>2026-09-02T22:07:21Z</time>
  <course>186.27</course>
  <speed>0.7213875518748573</speed>
  <fix>3d</fix>
</trkpt>
<trkpt lat="33.810149" lon="-118.3940527">
  <ele>-0.113</ele>
  <time>2026-09-02T22:07:21Z</time>
  <course>186.27</course>
  <speed>0.7213875518748573</speed>
  <fix>3d</fix>
</trkpt>
<trkpt lat="33.810149" lon="-118.3940528">
  <ele>-0.113</ele>
  <time>2026-09-02T22:07:21Z</time>
  <course>186.27</course>
  <speed>0.7213875518748573</speed>
  <fix>3d</fix>
</trkpt>
<trkpt lat="33.810149" lon="-118.3940528">
  <ele>-0.113</ele>
  <time>2026-09-02T22:07:21Z</time>
  <course>186.27</course>
  <speed>0.7213875518748573</speed>
  <fix>3d</fix>
</trkpt>
<trkpt lat="33.8101489" lon="-118.3940529">
  <ele>-0.113</ele>
  <time>2026-09-02T22:07:21Z</time>
  <course>186.27</course>
  <speed>0.7213875518748573</speed>
  <fix>3d</fix>
</trkpt>
<trkpt lat="33.8101489" lon="-118.3940529">
  <ele>-0.113</ele>
  <time>2026-09-02T22:07:21Z</time>
  <course>186.27</course>
  <speed>0.7213875518748573</speed>
  <fix>3d</fix>
</trkpt>
<trkpt lat="33.8101498" lon="-118.3940514">
  <ele>-0.1</ele>
  <time>2026-09-02T22:07:21Z</time>
  <course>223.26</course>
  <speed>0.73</speed>
  <fix>3d</fix>
</trkpt>
<trkpt lat="33.8101489" lon="-118.3940529">
  <ele>-0.113</ele>
  <time>2026-09-02T22:07:21Z</time>
  <course>186.27</course>
  <speed>0.7213875518748573</speed>
  <fix>3d</fix>
</trkpt>
<trkpt lat="33.8101488" lon="-118.394053">
  <ele>-0.113</ele>
  <time>2026-09-02T22:07:21Z</time>
  <course>186.27</course>
  <speed>0.7213875518748573</speed>
  <fix>3d</fix>
</trkpt>
<trkpt lat="33.8101488" lon="-118.394053">
  <ele>-0.112</ele>
  <time>2026-09-02T22:07:21Z</time>
  <course>186.27</course>
  <speed>0.7213875518748573</speed>
  <fix>3d</fix>
</trkpt>
<trkpt lat="33.8101488" lon="-118.3940531">
  <ele>-0.112</ele>
  <time>2026-09-02T22:07:21Z</time>
  <course>186.27</course>
  <speed>0.7213875518748573</speed>
  <fix>3d</fix>
</trkpt>
<trkpt lat="33.8101487" lon="-118.3940531">
  <ele>-0.112</ele>
  <time>2026-09-02T22:07:21Z</time>
  <course>186.27</course>
  <speed>0.7213875518748573</speed>
  <fix>3d</fix>
</trkpt>
<trkpt lat="33.8101487" lon="-118.3940531">
  <ele>-0.112</ele>
  <time>2026-09-02T22:07:21Z</time>
  <course>186.27</course>
  <speed>0.7213875518748573</speed>
  <fix>3d</fix>
</trkpt>
<trkpt lat="33.8101487" lon="-118.3940532">
  <ele>-0.112</ele>
  <time>2026-09-02T22:07:21Z</time>
  <course>186.27</course>
  <speed>0.7213875518748573</speed>
  <fix>3d</fix>
</trkpt>
<trkpt lat="33.8101486" lon="-118.3940532">
  <ele>-0.112</ele>
  <time>2026-09-02T22:07:21Z</time>
  <course>186.27</course>
  <speed>0.7213875518748573</speed>
  <fix>3d</fix>
</trkpt>
<trkpt lat="33.8101486" lon="-118.3940533">
  <ele>-0.112</ele>
  <time>2026-09-02T22:07:21Z</time>
  <course>186.27</course>
  <speed>0.7213875518748573</speed>
  <fix>3d</fix>
</trkpt>
<trkpt lat="33.8101485" lon="-118.3940533">
  <ele>-0.112</ele>
  <time>2026-09-02T22:07:21Z</time>
  <course>186.27</course>
  <speed>0.7213875518748573</speed>
  <fix>3d</fix>
</trkpt>
<trkpt lat="33.8101485" lon="-118.3940534">
  <ele>-0.112</ele>
  <time>2026-09-02T22:07:21Z</time>
  <course>186.27</course>
  <speed>0.7213875518748573</speed>
  <fix>3d</fix>
</trkpt>
<trkpt lat="33.8101484" lon="-118.3940534">
  <ele>-0.112</ele>
  <time>2026-09-02T22:07:21Z</time>
  <course>186.27</course>
  <speed>0.7213875518748573</speed>
  <fix>3d</fix>
</trkpt>
<trkpt lat="33.8101484" lon="-118.3940534">
  <ele>-0.112</ele>
  <time>2026-09-02T22:07:21Z</time>
  <course>186.27</course>
  <speed>0.7213875518748573</speed>
  <fix>3d</fix>
</trkpt>
<trkpt lat="33.8101489" lon="-118.3940525">
  <ele>-0.11</ele>
  <time>2026-09-02T22:07:21Z</time>
  <course>223.26</course>
  <speed>0.73</speed>
  <fix>3d</fix>
</trkpt>
<trkpt lat="33.8101484" lon="-118.3940534">
  <ele>-0.112</ele>
  <time>2026-09-02T22:07:21Z</time>
  <course>186.27</course>
  <speed>0.7213875518748573</speed>
  <fix>3d</fix>
</trkpt>
<trkpt lat="33.8101483" lon="-118.3940535">
  <ele>-0.112</ele>
  <time>2026-09-02T22:07:21Z</time>
  <course>186.27</course>
  <speed>0.7213875518748573</speed>
  <fix>3d</fix>
</trkpt>
<trkpt lat="33.8101483" lon="-118.3940536">
  <ele>-0.111</ele>
  <time>2026-09-02T22:07:21Z</time>
  <course>186.27</course>
  <speed>0.7213875518748573</speed>
  <fix>3d</fix>
</trkpt>
<trkpt lat="33.8101482" lon="-118.3940536">
  <ele>-0.111</ele>
  <time>2026-09-02T22:07:21Z</time>
  <course>186.27</course>
  <speed>0.7213875518748573</speed>
  <fix>3d</fix>
</trkpt>
<trkpt lat="33.8101482" lon="-118.3940537">
  <ele>-0.111</ele>
  <time>2026-09-02T22:07:21Z</time>
  <course>186.27</course>
  <speed>0.7213875518748573</speed>
  <fix>3d</fix>
</trkpt>
<trkpt lat="33.8101482" lon="-118.3940537">
  <ele>-0.111</ele>
  <time>2026-09-02T22:07:21Z</time>
  <course>186.27</course>
  <speed>0.7213875518748573</speed>
  <fix>3d</fix>
</trkpt>
<trkpt lat="33.8101481" lon="-118.3940538">
  <ele>-0.111</ele>
  <time>2026-09-02T22:07:21Z</time>
  <course>186.27</course>
  <speed>0.7213875518748573</speed>
  <fix>3d</fix>
</trkpt>
<trkpt lat="33.8101481" lon="-118.3940538">
  <ele>-0.111</ele>
  <time>2026-09-02T22:07:21Z</time>
  <course>186.27</course>
  <speed>0.7213875518748573</speed>
  <fix>3d</fix>
</trkpt>
<trkpt lat="33.8101481" lon="-118.3940538">
  <ele>-0.111</ele>
  <time>2026-09-02T22:07:21Z</time>
  <course>186.27</course>
  <speed>0.7213875518748573</speed>
  <fix>3d</fix>
</trkpt>
<trkpt lat="33.810148" lon="-118.3940539">
  <ele>-0.111</ele>
  <time>2026-09-02T22:07:21Z</time>
  <course>186.27</course>
  <speed>0.7213875518748573</speed>
  <fix>3d</fix>
</trkpt>
<trkpt lat="33.810148" lon="-118.3940539">
  <ele>-0.111</ele>
  <time>2026-09-02T22:07:21Z</time>
  <course>186.27</course>
  <speed>0.7213875518748573</speed>
  <fix>3d</fix>
</trkpt>
<trkpt lat="33.810148" lon="-118.394054">
  <ele>-0.11</ele>
  <time>2026-09-02T22:07:21Z</time>
  <course>186.27</course>
  <speed>0.7213875518748573</speed>
  <fix>3d</fix>
</trkpt>
<trkpt lat="33.8101489" lon="-118.3940525">
  <ele>-0.11</ele>
  <time>2026-09-02T22:07:21Z</time>
  <course>223.26</course>
  <speed>0.73</speed>
  <fix>3d</fix>
</trkpt>
<trkpt lat="33.8101479" lon="-118.394054">
  <ele>-0.11</ele>
  <time>2026-09-02T22:07:21Z</time>
  <course>186.27</course>
  <speed>0.7213875518748573</speed>
  <fix>3d</fix>
</trkpt>
<trkpt lat="33.8101479" lon="-118.3940541">
  <ele>-0.11</ele>
  <time>2026-09-02T22:07:21Z</time>
  <course>186.27</course>
  <speed>0.7213875518748573</speed>
  <fix>3d</fix>
</trkpt>
<trkpt lat="33.8101478" lon="-118.3940541">
  <ele>-0.11</ele>
  <time>2026-09-02T22:07:21Z</time>
  <course>186.27</course>
  <speed>0.7213875518748573</speed>
  <fix>3d</fix>
</trkpt>
<trkpt lat="33.8101478" lon="-118.3940542">
  <ele>-0.11</ele>
  <time>2026-09-02T22:07:21Z</time>
  <course>186.27</course>
  <speed>0.7213875518748573</speed>
  <fix>3d</fix>
</trkpt>
<trkpt lat="33.8101477" lon="-118.3940542">
  <ele>-0.11</ele>
  <time>2026-09-02T22:07:21Z</time>
  <course>186.27</course>
  <speed>0.7213875518748573</speed>
  <fix>3d</fix>
</trkpt>
<trkpt lat="33.8101477" lon="-118.3940543">
  <ele>-0.11</ele>
  <time>2026-09-02T22:07:21Z</time>
  <course>186.27</course>
  <speed>0.7213875518748573</speed>
  <fix>3d</fix>
</trkpt>
<trkpt lat="33.8101477" lon="-118.3940543">
  <ele>-0.11</ele>
  <time>2026-09-02T22:07:21Z</time>
  <course>186.27</course>
  <speed>0.7213875518748573</speed>
  <fix>3d</fix>
</trkpt>
<trkpt lat="33.8101476" lon="-118.3940544">
  <ele>-0.11</ele>
  <time>2026-09-02T22:07:21Z</time>
  <course>186.27</course>
  <speed>0.7213875518748573</speed>
  <fix>3d</fix>
</trkpt>
<trkpt lat="33.8101476" lon="-118.3940544">
  <ele>-0.11</ele>
  <time>2026-09-02T22:07:21Z</time>
  <course>186.27</course>
  <speed>0.7213875518748573</speed>
  <fix>3d</fix>
</trkpt>
<trkpt lat="33.8101475" lon="-118.3940544">
  <ele>-0.11</ele>
  <time>2026-09-02T22:07:21Z</time>
  <course>186.27</course>
  <speed>0.7213875518748573</speed>
  <fix>3d</fix>
</trkpt>
<trkpt lat="33.8101475" lon="-118.3940545">
  <ele>-0.11</ele>
  <time>2026-09-02T22:07:21Z</time>
  <course>186.27</course>
  <speed>0.7213875518748573</speed>
  <fix>3d</fix>
</trkpt>
<trkpt lat="33.8101475" lon="-118.3940545">
  <ele>-0.11</ele>
  <time>2026-09-02T22:07:21Z</time>
  <course>186.27</course>
  <speed>0.7213875518748573</speed>
  <fix>3d</fix>
</trkpt>
<trkpt lat="33.8101478" lon="-118.3940536">
  <ele>-0.1</ele>
  <time>2026-09-02T22:07:21Z</time>
  <course>223.26</course>
  <speed>0.73</speed>
  <fix>3d</fix>
</trkpt>
<trkpt lat="33.8101475" lon="-118.3940545">
  <ele>-0.11</ele>
  <time>2026-09-02T22:07:21Z</time>
  <course>186.27</course>
  <speed>0.7213875518748573</speed>
  <fix>3d</fix>
</trkpt>
<trkpt lat="33.8101474" lon="-118.3940546">
  <ele>-0.11</ele>
  <time>2026-09-02T22:07:21Z</time>
  <course>186.27</course>
  <speed>0.7213875518748573</speed>
  <fix>3d</fix>
</trkpt>
<trkpt lat="33.8101474" lon="-118.3940546">
  <ele>-0.11</ele>
  <time>2026-09-02T22:07:21Z</time>
  <course>186.27</course>
  <speed>0.7213875518748573</speed>
  <fix>3d</fix>
</trkpt>
<trkpt lat="33.8101473" lon="-118.3940547">
  <ele>-0.11</ele>
  <time>2026-09-02T22:07:21Z</time>
  <course>186.27</course>
  <speed>0.7213875518748573</speed>
  <fix>3d</fix>
</trkpt>
<trkpt lat="33.8101473" lon="-118.3940547">
  <ele>-0.11</ele>
  <time>2026-09-02T22:07:21Z</time>
  <course>186.27</course>
  <speed>0.7213875518748573</speed>
  <fix>3d</fix>
</trkpt>
<trkpt lat="33.8101472" lon="-118.3940548">
  <ele>-0.11</ele>
  <time>2026-09-02T22:07:21Z</time>
  <course>186.27</course>
  <speed>0.7213875518748573</speed>
  <fix>3d</fix>
</trkpt>
<trkpt lat="33.8101472" lon="-118.3940548">
  <ele>-0.11</ele>
  <time>2026-09-02T22:07:21Z</time>
  <course>186.27</course>
  <speed>0.7213875518748573</speed>
  <fix>3d</fix>
</trkpt>
<trkpt lat="33.8101471" lon="-118.3940549">
  <ele>-0.11</ele>
  <time>2026-09-02T22:07:21Z</time>
  <course>186.27</course>
  <speed>0.7213875518748573</speed>
  <fix>3d</fix>
</trkpt>
<trkpt lat="33.8101471" lon="-118.3940549">
  <ele>-0.11</ele>
  <time>2026-09-02T22:07:21Z</time>
  <course>186.27</course>
  <speed>0.7213875518748573</speed>
  <fix>3d</fix>
</trkpt>
<trkpt lat="33.8101471" lon="-118.394055">
  <ele>-0.11</ele>
  <time>2026-09-02T22:07:21Z</time>
  <course>186.27</course>
  <speed>0.7213875518748573</speed>
  <fix>3d</fix>
</trkpt>
<trkpt lat="33.810147" lon="-118.394055">
  <ele>-0.11</ele>
  <time>2026-09-02T22:07:21Z</time>
  <course>186.27</course>
  <speed>0.7213875518748573</speed>
  <fix>3d</fix>
</trkpt>
<trkpt lat="33.810147" lon="-118.3940551">
  <ele>-0.11</ele>
  <time>2026-09-02T22:07:21Z</time>
  <course>186.27</course>
  <speed>0.7213875518748573</speed>
  <fix>3d</fix>
</trkpt>
<trkpt lat="33.810147" lon="-118.3940551">
  <ele>-0.11</ele>
  <time>2026-09-02T22:07:21Z</time>
  <course>186.27</course>
  <speed>0.7213875518748573</speed>
  <fix>3d</fix>
</trkpt>
<trkpt lat="33.8101478" lon="-118.3940536">
  <ele>-0.1</ele>
  <time>2026-09-02T22:07:21Z</time>
  <course>223.26</course>
  <speed>0.73</speed>
  <fix>3d</fix>
</trkpt>
<trkpt lat="33.8101469" lon="-118.3940551">
  <ele>-0.11</ele>
  <time>2026-09-02T22:07:21Z</time>
  <course>186.27</course>
  <speed>0.7213875518748573</speed>
  <fix>3d</fix>
</trkpt>
<trkpt lat="33.8101469" lon="-118.3940552">
  <ele>-0.11</ele>
  <time>2026-09-02T22:07:21Z</time>
  <course>186.27</course>
  <speed>0.7213875518748573</speed>
  <fix>3d</fix>
</trkpt>
<trkpt lat="33.8101468" lon="-118.3940552">
  <ele>-0.11</ele>
  <time>2026-09-02T22:07:21Z</time>
  <course>186.27</course>
  <speed>0.7213875518748573</speed>
  <fix>3d</fix>
</trkpt>
<trkpt lat="33.8101468" lon="-118.3940553">
  <ele>-0.11</ele>
  <time>2026-09-02T22:07:21Z</time>
  <course>186.27</course>
  <speed>0.7213875518748573</speed>
  <fix>3d</fix>
</trkpt>
<trkpt lat="33.8101468" lon="-118.3940553">
  <ele>-0.11</ele>
  <time>2026-09-02T22:07:21Z</time>
  <course>186.27</course>
  <speed>0.7213875518748573</speed>
  <fix>3d</fix>
</trkpt>
<trkpt lat="33.8101467" lon="-118.3940554">
  <ele>-0.11</ele>
  <time>2026-09-02T22:07:21Z</time>
  <course>186.27</course>
  <speed>0.7213875518748573</speed>
  <fix>3d</fix>
</trkpt>
<trkpt lat="33.8101467" lon="-118.3940554">
  <ele>-0.11</ele>
  <time>2026-09-02T22:07:21Z</time>
  <course>186.27</course>
  <speed>0.7283543093852057</speed>
  <fix>3d</fix>
</trkpt>
<trkpt lat="33.8101466" lon="-118.3940555">
  <ele>-0.11</ele>
  <time>2026-09-02T22:07:21Z</time>
  <course>186.27</course>
  <speed>0.7213875518748573</speed>
  <fix>3d</fix>
</trkpt>
<trkpt lat="33.8101466" lon="-118.3940555">
  <ele>-0.11</ele>
  <time>2026-09-02T22:07:21Z</time>
  <course>186.27</course>
  <speed>0.7283543093852057</speed>
  <fix>3d</fix>
</trkpt>
<trkpt lat="33.8101465" lon="-118.3940555">
  <ele>-0.11</ele>
  <time>2026-09-02T22:07:21Z</time>
  <course>186.27</course>
  <speed>0.7283543093852057</speed>
  <fix>3d</fix>
</trkpt>
<trkpt lat="33.8101465" lon="-118.3940556">
  <ele>-0.11</ele>
  <time>2026-09-02T22:07:21Z</time>
  <course>186.27</course>
  <speed>0.7283543093852057</speed>
  <fix>3d</fix>
</trkpt>
<trkpt lat="33.8101465" lon="-118.3940556">
  <ele>-0.11</ele>
  <time>2026-09-02T22:07:21Z</time>
  <course>186.27</course>
  <speed>0.7283543093852057</speed>
  <fix>3d</fix>
</trkpt>
<trkpt lat="33.8101469" lon="-118.3940547">
  <ele>-0.1</ele>
  <time>2026-09-02T22:07:21Z</time>
  <course>223.26</course>
  <speed>0.73</speed>
  <fix>3d</fix>
</trkpt>
<trkpt lat="33.8101465" lon="-118.3940556">
  <ele>-0.11</ele>
  <time>2026-09-02T22:07:21Z</time>
  <course>186.27</course>
  <speed>0.7283543093852057</speed>
  <fix>3d</fix>
</trkpt>
<trkpt lat="33.8101464" lon="-118.3940557">
  <ele>-0.11</ele>
  <time>2026-09-02T22:07:21Z</time>
  <course>186.27</course>
  <speed>0.7283543093852057</speed>
  <fix>3d</fix>
</trkpt>
<trkpt lat="33.8101464" lon="-118.3940558">
  <ele>-0.11</ele>
  <time>2026-09-02T22:07:21Z</time>
  <course>186.27</course>
  <speed>0.7283543093852057</speed>
  <fix>3d</fix>
</trkpt>
<trkpt lat="33.8101463" lon="-118.3940558">
  <ele>-0.11</ele>
  <time>2026-09-02T22:07:21Z</time>
  <course>186.27</course>
  <speed>0.7283543093852057</speed>
  <fix>3d</fix>
</trkpt>
<trkpt lat="33.8101463" lon="-118.3940558">
  <ele>-0.111</ele>
  <time>2026-09-02T22:07:21Z</time>
  <course>186.27</course>
  <speed>0.7283543093852057</speed>
  <fix>3d</fix>
</trkpt>
<trkpt lat="33.8101462" lon="-118.3940559">
  <ele>-0.111</ele>
  <time>2026-09-02T22:07:21Z</time>
  <course>186.27</course>
  <speed>0.7283543093852057</speed>
  <fix>3d</fix>
</trkpt>
<trkpt lat="33.8101462" lon="-118.3940559">
  <ele>-0.111</ele>
  <time>2026-09-02T22:07:21Z</time>
  <course>186.27</course>
  <speed>0.7283543093852057</speed>
  <fix>3d</fix>
</trkpt>
<trkpt lat="33.8101462" lon="-118.394056">
  <ele>-0.111</ele>
  <time>2026-09-02T22:07:21Z</time>
  <course>186.27</course>
  <speed>0.7283543093852057</speed>
  <fix>3d</fix>
</trkpt>
<trkpt lat="33.8101461" lon="-118.394056">
  <ele>-0.111</ele>
  <time>2026-09-02T22:07:21Z</time>
  <course>186.27</course>
  <speed>0.7283543093852057</speed>
  <fix>3d</fix>
</trkpt>
<trkpt lat="33.8101461" lon="-118.3940561">
  <ele>-0.111</ele>
  <time>2026-09-02T22:07:21Z</time>
  <course>186.27</course>
  <speed>0.7283543093852057</speed>
  <fix>3d</fix>
</trkpt>
<trkpt lat="33.8101461" lon="-118.3940561">
  <ele>-0.111</ele>
  <time>2026-09-02T22:07:21Z</time>
  <course>186.27</course>
  <speed>0.7283543093852057</speed>
  <fix>3d</fix>
</trkpt>
<trkpt lat="33.810146" lon="-118.3940562">
  <ele>-0.111</ele>
  <time>2026-09-02T22:07:21Z</time>
  <course>186.27</course>
  <speed>0.7283543093852057</speed>
  <fix>3d</fix>
</trkpt>
<trkpt lat="33.810146" lon="-118.3940562">
  <ele>-0.111</ele>
  <time>2026-09-02T22:07:21Z</time>
  <course>186.27</course>
  <speed>0.7283543093852057</speed>
  <fix>3d</fix>
</trkpt>
<trkpt lat="33.8101469" lon="-118.3940547">
  <ele>-0.1</ele>
  <time>2026-09-02T22:07:21Z</time>
  <course>223.26</course>
  <speed>0.73</speed>
  <fix>3d</fix>
</trkpt>
<trkpt lat="33.810146" lon="-118.3940562">
  <ele>-0.111</ele>
  <time>2026-09-02T22:07:21Z</time>
  <course>186.27</course>
  <speed>0.7283543093852057</speed>
  <fix>3d</fix>
</trkpt>
<trkpt lat="33.8101459" lon="-118.3940563">
  <ele>-0.111</ele>
  <time>2026-09-02T22:07:21Z</time>
  <course>186.27</course>
  <speed>0.7283543093852057</speed>
  <fix>3d</fix>
</trkpt>
<trkpt lat="33.8101459" lon="-118.3940563">
  <ele>-0.112</ele>
  <time>2026-09-02T22:07:21Z</time>
  <course>186.27</course>
  <speed>0.7283543093852057</speed>
  <fix>3d</fix>
</trkpt>
<trkpt lat="33.8101458" lon="-118.3940564">
  <ele>-0.112</ele>
  <time>2026-09-02T22:07:21Z</time>
  <course>186.27</course>
  <speed>0.7283543093852057</speed>
  <fix>3d</fix>
</trkpt>
<trkpt lat="33.8101458" lon="-118.3940564">
  <ele>-0.112</ele>
  <time>2026-09-02T22:07:21Z</time>
  <course>186.27</course>
  <speed>0.7283543093852057</speed>
  <fix>3d</fix>
</trkpt>
<trkpt lat="33.8101457" lon="-118.3940565">
  <ele>-0.112</ele>
  <time>2026-09-02T22:07:21Z</time>
  <course>186.27</course>
  <speed>0.7283543093852057</speed>
  <fix>3d</fix>
</trkpt>
<trkpt lat="33.8101457" lon="-118.3940565">
  <ele>-0.112</ele>
  <time>2026-09-02T22:07:21Z</time>
  <course>186.27</course>
  <speed>0.7283543093852057</speed>
  <fix>3d</fix>
</trkpt>
<trkpt lat="33.8101457" lon="-118.3940566">
  <ele>-0.112</ele>
  <time>2026-09-02T22:07:21Z</time>
  <course>186.27</course>
  <speed>0.7283543093852057</speed>
  <fix>3d</fix>
</trkpt>
<trkpt lat="33.8101456" lon="-118.3940566">
  <ele>-0.112</ele>
  <time>2026-09-02T22:07:21Z</time>
  <course>186.27</course>
  <speed>0.7283543093852057</speed>
  <fix>3d</fix>
</trkpt>
<trkpt lat="33.8101456" lon="-118.3940566">
  <ele>-0.112</ele>
  <time>2026-09-02T22:07:21Z</time>
  <course>186.27</course>
  <speed>0.7283543093852057</speed>
  <fix>3d</fix>
</trkpt>
<trkpt lat="33.8101455" lon="-118.3940567">
  <ele>-0.112</ele>
  <time>2026-09-02T22:07:21Z</time>
  <course>186.27</course>
  <speed>0.7283543093852057</speed>
  <fix>3d</fix>
</trkpt>
<trkpt lat="33.8101455" lon="-118.3940567">
  <ele>-0.112</ele>
  <time>2026-09-02T22:07:21Z</time>
  <course>186.27</course>
  <speed>0.7283543093852057</speed>
  <fix>3d</fix>
</trkpt>
<trkpt lat="33.810146" lon="-118.3940558">
  <ele>-0.1</ele>
  <time>2026-09-02T22:07:21Z</time>
  <course>223.26</course>
  <speed>0.73</speed>
  <fix>3d</fix>
</trkpt>
<trkpt lat="33.8101455" lon="-118.3940567">
  <ele>-0.112</ele>
  <time>2026-09-02T22:07:21Z</time>
  <course>186.27</course>
  <speed>0.7283543093852057</speed>
  <fix>3d</fix>
</trkpt>
<trkpt lat="33.8101455" lon="-118.3940568">
  <ele>-0.112</ele>
  <time>2026-09-02T22:07:21Z</time>
  <course>186.27</course>
  <speed>0.7283543093852057</speed>
  <fix>3d</fix>
</trkpt>
<trkpt lat="33.8101454" lon="-118.3940568">
  <ele>-0.112</ele>
  <time>2026-09-02T22:07:21Z</time>
  <course>186.27</course>
  <speed>0.7283543093852057</speed>
  <fix>3d</fix>
</trkpt>
<trkpt lat="33.8101454" lon="-118.3940569">
  <ele>-0.112</ele>
  <time>2026-09-02T22:07:21Z</time>
  <course>186.27</course>
  <speed>0.7283543093852057</speed>
  <fix>3d</fix>
</trkpt>
<trkpt lat="33.8101453" lon="-118.3940569">
  <ele>-0.112</ele>
  <time>2026-09-02T22:07:21Z</time>
  <course>186.27</course>
  <speed>0.7283543093852057</speed>
  <fix>3d</fix>
</trkpt>
<trkpt lat="33.8101453" lon="-118.394057">
  <ele>-0.112</ele>
  <time>2026-09-02T22:07:21Z</time>
  <course>186.27</course>
  <speed>0.7283543093852057</speed>
  <fix>3d</fix>
</trkpt>
<trkpt lat="33.8101452" lon="-118.394057">
  <ele>-0.112</ele>
  <time>2026-09-02T22:07:21Z</time>
  <course>186.27</course>
  <speed>0.7283543093852057</speed>
  <fix>3d</fix>
</trkpt>
<trkpt lat="33.8101452" lon="-118.3940571">
  <ele>-0.112</ele>
  <time>2026-09-02T22:07:21Z</time>
  <course>186.27</course>
  <speed>0.7283543093852057</speed>
  <fix>3d</fix>
</trkpt>
<trkpt lat="33.8101451" lon="-118.3940571">
  <ele>-0.112</ele>
  <time>2026-09-02T22:07:21Z</time>
  <course>186.27</course>
  <speed>0.7283543093852057</speed>
  <fix>3d</fix>
</trkpt>
<trkpt lat="33.8101451" lon="-118.3940572">
  <ele>-0.112</ele>
  <time>2026-09-02T22:07:21Z</time>
  <course>186.27</course>
  <speed>0.7283543093852057</speed>
  <fix>3d</fix>
</trkpt>
<trkpt lat="33.8101451" lon="-118.3940572">
  <ele>-0.112</ele>
  <time>2026-09-02T22:07:21Z</time>
  <course>186.27</course>
  <speed>0.7283543093852057</speed>
  <fix>3d</fix>
</trkpt>
<trkpt lat="33.8101451" lon="-118.3940572">
  <ele>-0.112</ele>
  <time>2026-09-02T22:07:21Z</time>
  <course>186.27</course>
  <speed>0.7283543093852057</speed>
  <fix>3d</fix>
</trkpt>
<trkpt lat="33.810146" lon="-118.3940558">
  <ele>-0.1</ele>
  <time>2026-09-02T22:07:21Z</time>
  <course>223.26</course>
  <speed>0.73</speed>
  <fix>3d</fix>
</trkpt>
<trkpt lat="33.810145" lon="-118.3940573">
  <ele>-0.112</ele>
  <time>2026-09-02T22:07:21Z</time>
  <course>186.27</course>
  <speed>0.7283543093852057</speed>
  <fix>3d</fix>
</trkpt>
<trkpt lat="33.810145" lon="-118.3940573">
  <ele>-0.112</ele>
  <time>2026-09-02T22:07:21Z</time>
  <course>186.27</course>
  <speed>0.7283543093852057</speed>
  <fix>3d</fix>
</trkpt>
<trkpt lat="33.8101449" lon="-118.3940574">
  <ele>-0.112</ele>
  <time>2026-09-02T22:07:21Z</time>
  <course>186.27</course>
  <speed>0.7283543093852057</speed>
  <fix>3d</fix>
</trkpt>
<trkpt lat="33.8101449" lon="-118.3940574">
  <ele>-0.112</ele>
  <time>2026-09-02T22:07:21Z</time>
  <course>186.27</course>
  <speed>0.7283543093852057</speed>
  <fix>3d</fix>
</trkpt>
<trkpt lat="33.8101449" lon="-118.3940575">
  <ele>-0.112</ele>
  <time>2026-09-02T22:07:21Z</time>
  <course>186.27</course>
  <speed>0.7283543093852057</speed>
  <fix>3d</fix>
</trkpt>
<trkpt lat="33.8101448" lon="-118.3940575">
  <ele>-0.112</ele>
  <time>2026-09-02T22:07:21Z</time>
  <course>186.27</course>
  <speed>0.7283543093852057</speed>
  <fix>3d</fix>
</trkpt>
<trkpt lat="33.8101448" lon="-118.3940576">
  <ele>-0.112</ele>
  <time>2026-09-02T22:07:21Z</time>
  <course>186.27</course>
  <speed>0.7283543093852057</speed>
  <fix>3d</fix>
</trkpt>
<trkpt lat="33.8101447" lon="-118.3940576">
  <ele>-0.112</ele>
  <time>2026-09-02T22:07:21Z</time>
  <course>186.27</course>
  <speed>0.7283543093852057</speed>
  <fix>3d</fix>
</trkpt>
<trkpt lat="33.8101447" lon="-118.3940577">
  <ele>-0.112</ele>
  <time>2026-09-02T22:07:21Z</time>
  <course>186.27</course>
  <speed>0.7283543093852057</speed>
  <fix>3d</fix>
</trkpt>
<trkpt lat="33.8101447" lon="-118.3940577">
  <ele>-0.112</ele>
  <time>2026-09-02T22:07:21Z</time>
  <course>186.27</course>
  <speed>0.7283543093852057</speed>
  <fix>3d</fix>
</trkpt>
<trkpt lat="33.8101446" lon="-118.3940577">
  <ele>-0.111</ele>
  <time>2026-09-02T22:07:21Z</time>
  <course>186.27</course>
  <speed>0.7283543093852057</speed>
  <fix>3d</fix>
</trkpt>
<trkpt lat="33.8101446" lon="-118.3940578">
  <ele>-0.111</ele>
  <time>2026-09-02T22:07:21Z</time>
  <course>186.27</course>
  <speed>0.7283543093852057</speed>
  <fix>3d</fix>
</trkpt>
<trkpt lat="33.8101446" lon="-118.3940578">
  <ele>-0.111</ele>
  <time>2026-09-02T22:07:21Z</time>
  <course>186.27</course>
  <speed>0.7283543093852057</speed>
  <fix>3d</fix>
</trkpt>
<trkpt lat="33.810145" lon="-118.3940568">
  <ele>-0.1</ele>
  <time>2026-09-02T22:07:21Z</time>
  <course>223.26</course>
  <speed>0.73</speed>
  <fix>3d</fix>
</trkpt>
<trkpt lat="33.8101445" lon="-118.3940579">
  <ele>-0.111</ele>
  <time>2026-09-02T22:07:21Z</time>
  <course>186.27</course>
  <speed>0.7283543093852057</speed>
  <fix>3d</fix>
</trkpt>
<trkpt lat="33.8101444" lon="-118.3940579">
  <ele>-0.111</ele>
  <time>2026-09-02T22:07:21Z</time>
  <course>186.27</course>
  <speed>0.7283543093852057</speed>
  <fix>3d</fix>
</trkpt>
<trkpt lat="33.8101444" lon="-118.394058">
  <ele>-0.111</ele>
  <time>2026-09-02T22:07:21Z</time>
  <course>186.27</course>
  <speed>0.7283543093852057</speed>
  <fix>3d</fix>
</trkpt>
<trkpt lat="33.8101444" lon="-118.394058">
  <ele>-0.111</ele>
  <time>2026-09-02T22:07:21Z</time>
  <course>186.27</course>
  <speed>0.7283543093852057</speed>
  <fix>3d</fix>
</trkpt>
<trkpt lat="33.8101443" lon="-118.3940581">
  <ele>-0.111</ele>
  <time>2026-09-02T22:07:21Z</time>
  <course>186.27</course>
  <speed>0.7283543093852057</speed>
  <fix>3d</fix>
</trkpt>
<trkpt lat="33.8101443" lon="-118.3940581">
  <ele>-0.111</ele>
  <time>2026-09-02T22:07:21Z</time>
  <course>186.27</course>
  <speed>0.7283543093852057</speed>
  <fix>3d</fix>
</trkpt>
<trkpt lat="33.8101442" lon="-118.3940582">
  <ele>-0.111</ele>
  <time>2026-09-02T22:07:21Z</time>
  <course>186.27</course>
  <speed>0.7283543093852057</speed>
  <fix>3d</fix>
</trkpt>
<trkpt lat="33.8101442" lon="-118.3940582">
  <ele>-0.111</ele>
  <time>2026-09-02T22:07:21Z</time>
  <course>186.27</course>
  <speed>0.7283543093852057</speed>
  <fix>3d</fix>
</trkpt>
<trkpt lat="33.8101442" lon="-118.3940583">
  <ele>-0.111</ele>
  <time>2026-09-02T22:07:21Z</time>
  <course>186.27</course>
  <speed>0.7283543093852057</speed>
  <fix>3d</fix>
</trkpt>
<trkpt lat="33.8101441" lon="-118.3940583">
  <ele>-0.111</ele>
  <time>2026-09-02T22:07:21Z</time>
  <course>186.27</course>
  <speed>0.7283543093852057</speed>
  <fix>3d</fix>
</trkpt>
<trkpt lat="33.8101441" lon="-118.3940583">
  <ele>-0.111</ele>
  <time>2026-09-02T22:07:21Z</time>
  <course>186.27</course>
  <speed>0.7283543093852057</speed>
  <fix>3d</fix>
</trkpt>
<trkpt lat="33.8101441" lon="-118.3940583">
  <ele>-0.111</ele>
  <time>2026-09-02T22:07:21Z</time>
  <course>186.27</course>
  <speed>0.7283543093852057</speed>
  <fix>3d</fix>
</trkpt>
<trkpt lat="33.810145" lon="-118.3940568">
  <ele>-0.1</ele>
  <time>2026-09-02T22:07:21Z</time>
  <course>223.26</course>
  <speed>0.73</speed>
  <fix>3d</fix>
</trkpt>
<trkpt lat="33.810144" lon="-118.3940584">
  <ele>-0.111</ele>
  <time>2026-09-02T22:07:21Z</time>
  <course>186.27</course>
  <speed>0.7283543093852057</speed>
  <fix>3d</fix>
</trkpt>
<trkpt lat="33.810144" lon="-118.3940585">
  <ele>-0.111</ele>
  <time>2026-09-02T22:07:21Z</time>
  <course>186.27</course>
  <speed>0.7283543093852057</speed>
  <fix>3d</fix>
</trkpt>
<trkpt lat="33.8101439" lon="-118.3940585">
  <ele>-0.111</ele>
  <time>2026-09-02T22:07:21Z</time>
  <course>186.27</course>
  <speed>0.7283543093852057</speed>
  <fix>3d</fix>
</trkpt>
<trkpt lat="33.8101439" lon="-118.3940586">
  <ele>-0.111</ele>
  <time>2026-09-02T22:07:21Z</time>
  <course>186.27</course>
  <speed>0.7283543093852057</speed>
  <fix>3d</fix>
</trkpt>
<trkpt lat="33.8101439" lon="-118.3940586">
  <ele>-0.111</ele>
  <time>2026-09-02T22:07:21Z</time>
  <course>186.27</course>
  <speed>0.7283543093852057</speed>
  <fix>3d</fix>
</trkpt>
<trkpt lat="33.8101438" lon="-118.3940586">
  <ele>-0.111</ele>
  <time>2026-09-02T22:07:21Z</time>
  <course>186.27</course>
  <speed>0.7283543093852057</speed>
  <fix>3d</fix>
</trkpt>
<trkpt lat="33.8101438" lon="-118.3940587">
  <ele>-0.111</ele>
  <time>2026-09-02T22:07:21Z</time>
  <course>186.27</course>
  <speed>0.7283543093852057</speed>
  <fix>3d</fix>
</trkpt>
<trkpt lat="33.8101437" lon="-118.3940587">
  <ele>-0.111</ele>
  <time>2026-09-02T22:07:21Z</time>
  <course>186.27</course>
  <speed>0.7283543093852057</speed>
  <fix>3d</fix>
</trkpt>
<trkpt lat="33.8101437" lon="-118.3940588">
  <ele>-0.111</ele>
  <time>2026-09-02T22:07:21Z</time>
  <course>186.27</course>
  <speed>0.7283543093852057</speed>
  <fix>3d</fix>
</trkpt>
<trkpt lat="33.8101436" lon="-118.3940588">
  <ele>-0.111</ele>
  <time>2026-09-02T22:07:21Z</time>
  <course>186.27</course>
  <speed>0.7283543093852057</speed>
  <fix>3d</fix>
</trkpt>
<trkpt lat="33.8101436" lon="-118.3940589">
  <ele>-0.111</ele>
  <time>2026-09-02T22:07:21Z</time>
  <course>186.27</course>
  <speed>0.7283543093852057</speed>
  <fix>3d</fix>
</trkpt>
<trkpt lat="33.8101436" lon="-118.3940589">
  <ele>-0.111</ele>
  <time>2026-09-02T22:07:21Z</time>
  <course>186.27</course>
  <speed>0.7283543093852057</speed>
  <fix>3d</fix>
</trkpt>
<trkpt lat="33.8101441" lon="-118.3940579">
  <ele>-0.11</ele>
  <time>2026-09-02T22:07:21Z</time>
  <course>223.26</course>
  <speed>0.73</speed>
  <fix>3d</fix>
</trkpt>
<trkpt lat="33.8101435" lon="-118.394059">
  <ele>-0.11</ele>
  <time>2026-09-02T22:07:21Z</time>
  <course>186.27</course>
  <speed>0.7283543093852057</speed>
  <fix>3d</fix>
</trkpt>
<trkpt lat="33.8101435" lon="-118.394059">
  <ele>-0.11</ele>
  <time>2026-09-02T22:07:21Z</time>
  <course>186.27</course>
  <speed>0.7283543093852057</speed>
  <fix>3d</fix>
</trkpt>
<trkpt lat="33.8101434" lon="-118.3940591">
  <ele>-0.11</ele>
  <time>2026-09-02T22:07:21Z</time>
  <course>186.27</course>
  <speed>0.7283543093852057</speed>
  <fix>3d</fix>
</trkpt>
<trkpt lat="33.8101434" lon="-118.3940591">
  <ele>-0.11</ele>
  <time>2026-09-02T22:07:21Z</time>
  <course>186.27</course>
  <speed>0.7283543093852057</speed>
  <fix>3d</fix>
</trkpt>
<trkpt lat="33.8101433" lon="-118.3940592">
  <ele>-0.11</ele>
  <time>2026-09-02T22:07:21Z</time>
  <course>186.27</course>
  <speed>0.7283543093852057</speed>
  <fix>3d</fix>
</trkpt>
<trkpt lat="33.8101433" lon="-118.3940592">
  <ele>-0.11</ele>
  <time>2026-09-02T22:07:21Z</time>
  <course>186.27</course>
  <speed>0.7283543093852057</speed>
  <fix>3d</fix>
</trkpt>
<trkpt lat="33.8101433" lon="-118.3940593">
  <ele>-0.11</ele>
  <time>2026-09-02T22:07:21Z</time>
  <course>186.27</course>
  <speed>0.7283543093852057</speed>
  <fix>3d</fix>
</trkpt>
<trkpt lat="33.8101432" lon="-118.3940593">
  <ele>-0.11</ele>
  <time>2026-09-02T22:07:21Z</time>
  <course>186.27</course>
  <speed>0.7283543093852057</speed>
  <fix>3d</fix>
</trkpt>
<trkpt lat="33.8101432" lon="-118.3940593">
  <ele>-0.11</ele>
  <time>2026-09-02T22:07:21Z</time>
  <course>186.27</course>
  <speed>0.7283543093852057</speed>
  <fix>3d</fix>
</trkpt>
<trkpt lat="33.8101432" lon="-118.3940594">
  <ele>-0.11</ele>
  <time>2026-09-02T22:07:21Z</time>
  <course>186.27</course>
  <speed>0.7283543093852057</speed>
  <fix>3d</fix>
</trkpt>
<trkpt lat="33.8101431" lon="-118.3940594">
  <ele>-0.11</ele>
  <time>2026-09-02T22:07:21Z</time>
  <course>186.26</course>
  <speed>0.7283543093852057</speed>
  <fix>3d</fix>
</trkpt>
<trkpt lat="33.8101431" lon="-118.3940594">
  <ele>-0.11</ele>
  <time>2026-09-02T22:07:21Z</time>
  <course>186.26</course>
  <speed>0.7283543093852057</speed>
  <fix>3d</fix>
</trkpt>
<trkpt lat="33.8101441" lon="-118.3940579">
  <ele>-0.11</ele>
  <time>2026-09-02T22:07:21Z</time>
  <course>223.26</course>
  <speed>0.73</speed>
  <fix>3d</fix>
</trkpt>
<trkpt lat="33.810143" lon="-118.3940595">
  <ele>-0.11</ele>
  <time>2026-09-02T22:07:21Z</time>
  <course>186.26</course>
  <speed>0.7283543093852057</speed>
  <fix>3d</fix>
</trkpt>
<trkpt lat="33.810143" lon="-118.3940596">
  <ele>-0.11</ele>
  <time>2026-09-02T22:07:21Z</time>
  <course>186.27</course>
  <speed>0.7283543093852057</speed>
  <fix>3d</fix>
</trkpt>
<trkpt lat="33.8101429" lon="-118.3940597">
  <ele>-0.11</ele>
  <time>2026-09-02T22:07:21Z</time>
  <course>186.27</course>
  <speed>0.7283543093852057</speed>
  <fix>3d</fix>
</trkpt>
<trkpt lat="33.8101429" lon="-118.3940597">
  <ele>-0.111</ele>
  <time>2026-09-02T22:07:21Z</time>
  <course>186.27</course>
  <speed>0.7283543093852057</speed>
  <fix>3d</fix>
</trkpt>
<trkpt lat="33.8101428" lon="-118.3940598">
  <ele>-0.11</ele>
  <time>2026-09-02T22:07:21Z</time>
  <course>186.27</course>
  <speed>0.7283543093852057</speed>
  <fix>3d</fix>
</trkpt>
<trkpt lat="33.8101428" lon="-118.3940598">
  <ele>-0.111</ele>
  <time>2026-09-02T22:07:21Z</time>
  <course>186.26</course>
  <speed>0.7283543093852057</speed>
  <fix>3d</fix>
</trkpt>
<trkpt lat="33.8101427" lon="-118.3940599">
  <ele>-0.111</ele>
  <time>2026-09-02T22:07:21Z</time>
  <course>186.26</course>
  <speed>0.7283543093852057</speed>
  <fix>3d</fix>
</trkpt>
<trkpt lat="33.8101427" lon="-118.3940599">
  <ele>-0.111</ele>
  <time>2026-09-02T22:07:21Z</time>
  <course>186.26</course>
  <speed>0.7283543093852057</speed>
  <fix>3d</fix>
</trkpt>
<trkpt lat="33.8101426" lon="-118.39406">
  <ele>-0.111</ele>
  <time>2026-09-02T22:07:21Z</time>
  <course>186.26</course>
  <speed>0.7283543093852057</speed>
  <fix>3d</fix>
</trkpt>
<trkpt lat="33.8101426" lon="-118.39406">
  <ele>-0.111</ele>
  <time>2026-09-02T22:07:21Z</time>
  <course>186.26</course>
  <speed>0.7283543093852057</speed>
  <fix>3d</fix>
</trkpt>
<trkpt lat="33.8101431" lon="-118.394059">
  <ele>-0.1</ele>
  <time>2026-09-02T22:07:21Z</time>
  <course>223.26</course>
  <speed>0.73</speed>
  <fix>3d</fix>
</trkpt>
<trkpt lat="33.8101426" lon="-118.3940601">
  <ele>-0.111</ele>
  <time>2026-09-02T22:07:21Z</time>
  <course>186.26</course>
  <speed>0.7283543093852057</speed>
  <fix>3d</fix>
</trkpt>
<trkpt lat="33.8101425" lon="-118.3940601">
  <ele>-0.111</ele>
  <time>2026-09-02T22:07:21Z</time>
  <course>186.26</course>
  <speed>0.7283543093852057</speed>
  <fix>3d</fix>
</trkpt>
<trkpt lat="33.8101425" lon="-118.3940602">
  <ele>-0.111</ele>
  <time>2026-09-02T22:07:21Z</time>
  <course>186.26</course>
  <speed>0.7283543093852057</speed>
  <fix>3d</fix>
</trkpt>
<trkpt lat="33.8101424" lon="-118.3940602">
  <ele>-0.111</ele>
  <time>2026-09-02T22:07:21Z</time>
  <course>186.26</course>
  <speed>0.7283543093852057</speed>
  <fix>3d</fix>
</trkpt>
<trkpt lat="33.8101424" lon="-118.3940603">
  <ele>-0.111</ele>
  <time>2026-09-02T22:07:21Z</time>
  <course>186.26</course>
  <speed>0.7283543093852057</speed>
  <fix>3d</fix>
</trkpt>
<trkpt lat="33.8101423" lon="-118.3940603">
  <ele>-0.111</ele>
  <time>2026-09-02T22:07:21Z</time>
  <course>186.26</course>
  <speed>0.7283543093852057</speed>
  <fix>3d</fix>
</trkpt>
<trkpt lat="33.8101423" lon="-118.3940604">
  <ele>-0.111</ele>
  <time>2026-09-02T22:07:21Z</time>
  <course>186.26</course>
  <speed>0.7283543093852057</speed>
  <fix>3d</fix>
</trkpt>
<trkpt lat="33.8101423" lon="-118.3940604">
  <ele>-0.111</ele>
  <time>2026-09-02T22:07:21Z</time>
  <course>186.26</course>
  <speed>0.7283543093852057</speed>
  <fix>3d</fix>
</trkpt>
<trkpt lat="33.8101422" lon="-118.3940605">
  <ele>-0.111</ele>
  <time>2026-09-02T22:07:21Z</time>
  <course>186.26</course>
  <speed>0.7283543093852057</speed>
  <fix>3d</fix>
</trkpt>
<trkpt lat="33.8101422" lon="-118.3940605">
  <ele>-0.111</ele>
  <time>2026-09-02T22:07:21Z</time>
  <course>186.26</course>
  <speed>0.7283543093852057</speed>
  <fix>3d</fix>
</trkpt>
<trkpt lat="33.8101422" lon="-118.3940605">
  <ele>-0.111</ele>
  <time>2026-09-02T22:07:21Z</time>
  <course>186.26</course>
  <speed>0.7283543093852057</speed>
  <fix>3d</fix>
</trkpt>
<trkpt lat="33.8101431" lon="-118.394059">
  <ele>-0.1</ele>
  <time>2026-09-02T22:07:21Z</time>
  <course>223.26</course>
  <speed>0.73</speed>
  <fix>3d</fix>
</trkpt>
<trkpt lat="33.8101421" lon="-118.3940606">
  <ele>-0.111</ele>
  <time>2026-09-02T22:07:21Z</time>
  <course>186.26</course>
  <speed>0.7283543093852057</speed>
  <fix>3d</fix>
</trkpt>
<trkpt lat="33.8101421" lon="-118.3940606">
  <ele>-0.111</ele>
  <time>2026-09-02T22:07:21Z</time>
  <course>186.26</course>
  <speed>0.7283543093852057</speed>
  <fix>3d</fix>
</trkpt>
<trkpt lat="33.810142" lon="-118.3940607">
  <ele>-0.111</ele>
  <time>2026-09-02T22:07:21Z</time>
  <course>186.26</course>
  <speed>0.7283543093852057</speed>
  <fix>3d</fix>
</trkpt>
<trkpt lat="33.810142" lon="-118.3940607">
  <ele>-0.111</ele>
  <time>2026-09-02T22:07:21Z</time>
  <course>186.26</course>
  <speed>0.7283543093852057</speed>
  <fix>3d</fix>
</trkpt>
<trkpt lat="33.8101419" lon="-118.3940608">
  <ele>-0.111</ele>
  <time>2026-09-02T22:07:21Z</time>
  <course>186.26</course>
  <speed>0.7283543093852057</speed>
  <fix>3d</fix>
</trkpt>
<trkpt lat="33.8101419" lon="-118.3940608">
  <ele>-0.111</ele>
  <time>2026-09-02T22:07:21Z</time>
  <course>186.26</course>
  <speed>0.7283543093852057</speed>
  <fix>3d</fix>
</trkpt>
<trkpt lat="33.8101418" lon="-118.3940609">
  <ele>-0.111</ele>
  <time>2026-09-02T22:07:21Z</time>
  <course>186.26</course>
  <speed>0.7283543093852057</speed>
  <fix>3d</fix>
</trkpt>
<trkpt lat="33.8101418" lon="-118.3940609">
  <ele>-0.111</ele>
  <time>2026-09-02T22:07:21Z</time>
  <course>186.26</course>
  <speed>0.7283543093852057</speed>
  <fix>3d</fix>
</trkpt>
<trkpt lat="33.8101418" lon="-118.394061">
  <ele>-0.111</ele>
  <time>2026-09-02T22:07:21Z</time>
  <course>186.26</course>
  <speed>0.7283543093852057</speed>
  <fix>3d</fix>
</trkpt>
<trkpt lat="33.8101417" lon="-118.394061">
  <ele>-0.111</ele>
  <time>2026-09-02T22:07:21Z</time>
  <course>186.26</course>
  <speed>0.7283543093852057</speed>
  <fix>3d</fix>
</trkpt>
<trkpt lat="33.8101417" lon="-118.3940611">
  <ele>-0.111</ele>
  <time>2026-09-02T22:07:21Z</time>
  <course>186.26</course>
  <speed>0.7283543093852057</speed>
  <fix>3d</fix>
</trkpt>
<trkpt lat="33.8101417" lon="-118.3940611">
  <ele>-0.111</ele>
  <time>2026-09-02T22:07:21Z</time>
  <course>186.26</course>
  <speed>0.7283543093852057</speed>
  <fix>3d</fix>
</trkpt>
<trkpt lat="33.8101421" lon="-118.3940601">
  <ele>-0.1</ele>
  <time>2026-09-02T22:07:21Z</time>
  <course>223.26</course>
  <speed>0.73</speed>
  <fix>3d</fix>
</trkpt>
<trkpt lat="33.8101416" lon="-118.3940611">
  <ele>-0.111</ele>
  <time>2026-09-02T22:07:21Z</time>
  <course>186.26</course>
  <speed>0.7283543093852057</speed>
  <fix>3d</fix>
</trkpt>
<trkpt lat="33.8101416" lon="-118.3940612">
  <ele>-0.111</ele>
  <time>2026-09-02T22:07:21Z</time>
  <course>186.26</course>
  <speed>0.7283543093852057</speed>
  <fix>3d</fix>
</trkpt>
<trkpt lat="33.8101415" lon="-118.3940612">
  <ele>-0.111</ele>
  <time>2026-09-02T22:07:21Z</time>
  <course>186.26</course>
  <speed>0.7283543093852057</speed>
  <fix>3d</fix>
</trkpt>
<trkpt lat="33.8101415" lon="-118.3940613">
  <ele>-0.111</ele>
  <time>2026-09-02T22:07:21Z</time>
  <course>186.26</course>
  <speed>0.7283543093852057</speed>
  <fix>3d</fix>
</trkpt>
<trkpt lat="33.8101414" lon="-118.3940613">
  <ele>-0.112</ele>
  <time>2026-09-02T22:07:21Z</time>
  <course>186.26</course>
  <speed>0.7283543093852057</speed>
  <fix>3d</fix>
</trkpt>
<trkpt lat="33.8101414" lon="-118.3940614">
  <ele>-0.112</ele>
  <time>2026-09-02T22:07:21Z</time>
  <course>186.26</course>
  <speed>0.7283543093852057</speed>
  <fix>3d</fix>
</trkpt>
<trkpt lat="33.8101414" lon="-118.3940614">
  <ele>-0.112</ele>
  <time>2026-09-02T22:07:21Z</time>
  <course>186.26</course>
  <speed>0.7283543093852057</speed>
  <fix>3d</fix>
</trkpt>
<trkpt lat="33.8101413" lon="-118.3940614">
  <ele>-0.112</ele>
  <time>2026-09-02T22:07:21Z</time>
  <course>186.26</course>
  <speed>0.7283543093852057</speed>
  <fix>3d</fix>
</trkpt>
<trkpt lat="33.8101413" lon="-118.3940615">
  <ele>-0.112</ele>
  <time>2026-09-02T22:07:21Z</time>
  <course>186.26</course>
  <speed>0.7283543093852057</speed>
  <fix>3d</fix>
</trkpt>
<trkpt lat="33.8101413" lon="-118.3940615">
  <ele>-0.112</ele>
  <time>2026-09-02T22:07:21Z</time>
  <course>186.26</course>
  <speed>0.7283543093852057</speed>
  <fix>3d</fix>
</trkpt>
<trkpt lat="33.8101412" lon="-118.3940616">
  <ele>-0.112</ele>
  <time>2026-09-02T22:07:21Z</time>
  <course>186.26</course>
  <speed>0.7283543093852057</speed>
  <fix>3d</fix>
</trkpt>
<trkpt lat="33.8101412" lon="-118.3940616">
  <ele>-0.112</ele>
  <time>2026-09-02T22:07:21Z</time>
  <course>186.26</course>
  <speed>0.7283543093852057</speed>
  <fix>3d</fix>
</trkpt>
<trkpt lat="33.8101421" lon="-118.3940601">
  <ele>-0.1</ele>
  <time>2026-09-02T22:07:21Z</time>
  <course>223.26</course>
  <speed>0.73</speed>
  <fix>3d</fix>
</trkpt>
<trkpt lat="33.8101411" lon="-118.3940617">
  <ele>-0.112</ele>
  <time>2026-09-02T22:07:21Z</time>
  <course>186.26</course>
  <speed>0.7283543093852057</speed>
  <fix>3d</fix>
</trkpt>
<trkpt lat="33.8101411" lon="-118.3940617">
  <ele>-0.112</ele>
  <time>2026-09-02T22:07:21Z</time>
  <course>186.26</course>
  <speed>0.7283543093852057</speed>
  <fix>3d</fix>
</trkpt>
<trkpt lat="33.8101411" lon="-118.3940618">
  <ele>-0.112</ele>
  <time>2026-09-02T22:07:21Z</time>
  <course>186.26</course>
  <speed>0.7283543093852057</speed>
  <fix>3d</fix>
</trkpt>
<trkpt lat="33.810141" lon="-118.3940618">
  <ele>-0.112</ele>
  <time>2026-09-02T22:07:21Z</time>
  <course>186.26</course>
  <speed>0.7283543093852057</speed>
  <fix>3d</fix>
</trkpt>
<trkpt lat="33.810141" lon="-118.3940619">
  <ele>-0.112</ele>
  <time>2026-09-02T22:07:21Z</time>
  <course>186.26</course>
  <speed>0.7283543093852057</speed>
  <fix>3d</fix>
</trkpt>
<trkpt lat="33.8101409" lon="-118.3940619">
  <ele>-0.112</ele>
  <time>2026-09-02T22:07:21Z</time>
  <course>186.26</course>
  <speed>0.7283543093852057</speed>
  <fix>3d</fix>
</trkpt>
<trkpt lat="33.8101409" lon="-118.3940619">
  <ele>-0.112</ele>
  <time>2026-09-02T22:07:21Z</time>
  <course>186.26</course>
  <speed>0.7283543093852057</speed>
  <fix>3d</fix>
</trkpt>
<trkpt lat="33.8101408" lon="-118.394062">
  <ele>-0.112</ele>
  <time>2026-09-02T22:07:21Z</time>
  <course>186.26</course>
  <speed>0.7283543093852057</speed>
  <fix>3d</fix>
</trkpt>
<trkpt lat="33.8101408" lon="-118.3940621">
  <ele>-0.112</ele>
  <time>2026-09-02T22:07:21Z</time>
  <course>186.26</course>
  <speed>0.7283543093852057</speed>
  <fix>3d</fix>
</trkpt>
<trkpt lat="33.8101408" lon="-118.3940621">
  <ele>-0.112</ele>
  <time>2026-09-02T22:07:21Z</time>
  <course>186.26</course>
  <speed>0.7283543093852057</speed>
  <fix>3d</fix>
</trkpt>
<trkpt lat="33.8101407" lon="-118.3940621">
  <ele>-0.112</ele>
  <time>2026-09-02T22:07:21Z</time>
  <course>186.26</course>
  <speed>0.7283543093852057</speed>
  <fix>3d</fix>
</trkpt>
<trkpt lat="33.8101411" lon="-118.3940612">
  <ele>-0.1</ele>
  <time>2026-09-02T22:07:21Z</time>
  <course>223.26</course>
  <speed>0.73</speed>
  <fix>3d</fix>
</trkpt>
<trkpt lat="33.8101407" lon="-118.3940622">
  <ele>-0.112</ele>
  <time>2026-09-02T22:07:21Z</time>
  <course>186.26</course>
  <speed>0.7283543093852057</speed>
  <fix>3d</fix>
</trkpt>
<trkpt lat="33.8101406" lon="-118.3940623">
  <ele>-0.112</ele>
  <time>2026-09-02T22:07:21Z</time>
  <course>186.26</course>
  <speed>0.7283543093852057</speed>
  <fix>3d</fix>
</trkpt>
<trkpt lat="33.8101406" lon="-118.3940623">
  <ele>-0.112</ele>
  <time>2026-09-02T22:07:21Z</time>
  <course>186.26</course>
  <speed>0.7283543093852057</speed>
  <fix>3d</fix>
</trkpt>
<trkpt lat="33.8101405" lon="-118.3940624">
  <ele>-0.112</ele>
  <time>2026-09-02T22:07:21Z</time>
  <course>186.26</course>
  <speed>0.7283543093852057</speed>
  <fix>3d</fix>
</trkpt>
<trkpt lat="33.8101405" lon="-118.3940624">
  <ele>-0.112</ele>
  <time>2026-09-02T22:07:21Z</time>
  <course>186.26</course>
  <speed>0.7283543093852057</speed>
  <fix>3d</fix>
</trkpt>
<trkpt lat="33.8101404" lon="-118.3940625">
  <ele>-0.112</ele>
  <time>2026-09-02T22:07:21Z</time>
  <course>186.26</course>
  <speed>0.7283543093852057</speed>
  <fix>3d</fix>
</trkpt>
<trkpt lat="33.8101404" lon="-118.3940625">
  <ele>-0.112</ele>
  <time>2026-09-02T22:07:21Z</time>
  <course>186.26</course>
  <speed>0.7283543093852057</speed>
  <fix>3d</fix>
</trkpt>
<trkpt lat="33.8101404" lon="-118.3940625">
  <ele>-0.112</ele>
  <time>2026-09-02T22:07:21Z</time>
  <course>186.26</course>
  <speed>0.7283543093852057</speed>
  <fix>3d</fix>
</trkpt>
<trkpt lat="33.8101403" lon="-118.3940626">
  <ele>-0.112</ele>
  <time>2026-09-02T22:07:21Z</time>
  <course>186.26</course>
  <speed>0.7283543093852057</speed>
  <fix>3d</fix>
</trkpt>
<trkpt lat="33.8101403" lon="-118.3940627">
  <ele>-0.112</ele>
  <time>2026-09-02T22:07:21Z</time>
  <course>186.26</course>
  <speed>0.7283543093852057</speed>
  <fix>3d</fix>
</trkpt>
<trkpt lat="33.8101402" lon="-118.3940627">
  <ele>-0.112</ele>
  <time>2026-09-02T22:07:21Z</time>
  <course>186.26</course>
  <speed>0.7283543093852057</speed>
  <fix>3d</fix>
</trkpt>
<trkpt lat="33.8101411" lon="-118.3940612">
  <ele>-0.1</ele>
  <time>2026-09-02T22:07:21Z</time>
  <course>223.26</course>
  <speed>0.73</speed>
  <fix>3d</fix>
</trkpt>
<trkpt lat="33.8101402" lon="-118.3940627">
  <ele>-0.111</ele>
  <time>2026-09-02T22:07:21Z</time>
  <course>186.26</course>
  <speed>0.7283543093852057</speed>
  <fix>3d</fix>
</trkpt>
<trkpt lat="33.8101402" lon="-118.3940628">
  <ele>-0.111</ele>
  <time>2026-09-02T22:07:21Z</time>
  <course>186.26</course>
  <speed>0.7283543093852057</speed>
  <fix>3d</fix>
</trkpt>
<trkpt lat="33.8101401" lon="-118.3940628">
  <ele>-0.111</ele>
  <time>2026-09-02T22:07:21Z</time>
  <course>186.26</course>
  <speed>0.7283543093852057</speed>
  <fix>3d</fix>
</trkpt>
<trkpt lat="33.8101401" lon="-118.3940629">
  <ele>-0.111</ele>
  <time>2026-09-02T22:07:21Z</time>
  <course>186.26</course>
  <speed>0.7283543093852057</speed>
  <fix>3d</fix>
</trkpt>
<trkpt lat="33.81014" lon="-118.3940629">
  <ele>-0.111</ele>
  <time>2026-09-02T22:07:21Z</time>
  <course>186.26</course>
  <speed>0.7283543093852057</speed>
  <fix>3d</fix>
</trkpt>
<trkpt lat="33.81014" lon="-118.3940629">
  <ele>-0.111</ele>
  <time>2026-09-02T22:07:21Z</time>
  <course>186.26</course>
  <speed>0.7283543093852057</speed>
  <fix>3d</fix>
</trkpt>
<trkpt lat="33.81014" lon="-118.394063">
  <ele>-0.111</ele>
  <time>2026-09-02T22:07:21Z</time>
  <course>186.26</course>
  <speed>0.7283543093852057</speed>
  <fix>3d</fix>
</trkpt>
<trkpt lat="33.8101399" lon="-118.394063">
  <ele>-0.111</ele>
  <time>2026-09-02T22:07:21Z</time>
  <course>186.26</course>
  <speed>0.7283543093852057</speed>
  <fix>3d</fix>
</trkpt>
<trkpt lat="33.8101399" lon="-118.3940631">
  <ele>-0.111</ele>
  <time>2026-09-02T22:07:21Z</time>
  <course>186.26</course>
  <speed>0.7283543093852057</speed>
  <fix>3d</fix>
</trkpt>
<trkpt lat="33.8101398" lon="-118.3940631">
  <ele>-0.111</ele>
  <time>2026-09-02T22:07:21Z</time>
  <course>186.26</course>
  <speed>0.7283543093852057</speed>
  <fix>3d</fix>
</trkpt>
<trkpt lat="33.8101398" lon="-118.3940632">
  <ele>-0.111</ele>
  <time>2026-09-02T22:07:21Z</time>
  <course>186.26</course>
  <speed>0.7283543093852057</speed>
  <fix>3d</fix>
</trkpt>
<trkpt lat="33.8101398" lon="-118.3940632">
  <ele>-0.111</ele>
  <time>2026-09-02T22:07:21Z</time>
  <course>186.26</course>
  <speed>0.7283543093852057</speed>
  <fix>3d</fix>
</trkpt>
<trkpt lat="33.8101402" lon="-118.3940623">
  <ele>-0.1</ele>
  <time>2026-09-02T22:07:21Z</time>
  <course>223.26</course>
  <speed>0.73</speed>
  <fix>3d</fix>
</trkpt>
<trkpt lat="33.8101397" lon="-118.3940632">
  <ele>-0.111</ele>
  <time>2026-09-02T22:07:21Z</time>
  <course>186.26</course>
  <speed>0.7283543093852057</speed>
  <fix>3d</fix>
</trkpt>
<trkpt lat="33.8101397" lon="-118.3940633">
  <ele>-0.111</ele>
  <time>2026-09-02T22:07:21Z</time>
  <course>186.26</course>
  <speed>0.7283543093852057</speed>
  <fix>3d</fix>
</trkpt>
<trkpt lat="33.8101396" lon="-118.3940634">
  <ele>-0.111</ele>
  <time>2026-09-02T22:07:21Z</time>
  <course>186.26</course>
  <speed>0.7283543093852057</speed>
  <fix>3d</fix>
</trkpt>
<trkpt lat="33.8101396" lon="-118.3940634">
  <ele>-0.111</ele>
  <time>2026-09-02T22:07:21Z</time>
  <course>186.26</course>
  <speed>0.7283543093852057</speed>
  <fix>3d</fix>
</trkpt>
<trkpt lat="33.8101395" lon="-118.3940635">
  <ele>-0.111</ele>
  <time>2026-09-02T22:07:21Z</time>
  <course>186.26</course>
  <speed>0.7283543093852057</speed>
  <fix>3d</fix>
</trkpt>
<trkpt lat="33.8101395" lon="-118.3940635">
  <ele>-0.111</ele>
  <time>2026-09-02T22:07:21Z</time>
  <course>186.26</course>
  <speed>0.7283543093852057</speed>
  <fix>3d</fix>
</trkpt>
<trkpt lat="33.8101394" lon="-118.3940636">
  <ele>-0.111</ele>
  <time>2026-09-02T22:07:21Z</time>
  <course>186.26</course>
  <speed>0.7283543093852057</speed>
  <fix>3d</fix>
</trkpt>
<trkpt lat="33.8101394" lon="-118.3940636">
  <ele>-0.111</ele>
  <time>2026-09-02T22:07:21Z</time>
  <course>186.26</course>
  <speed>0.7283543093852057</speed>
  <fix>3d</fix>
</trkpt>
<trkpt lat="33.8101394" lon="-118.3940637">
  <ele>-0.11</ele>
  <time>2026-09-02T22:07:21Z</time>
  <course>186.26</course>
  <speed>0.7283543093852057</speed>
  <fix>3d</fix>
</trkpt>
<trkpt lat="33.8101393" lon="-118.3940637">
  <ele>-0.11</ele>
  <time>2026-09-02T22:07:21Z</time>
  <course>186.26</course>
  <speed>0.7283543093852057</speed>
  <fix>3d</fix>
</trkpt>
<trkpt lat="33.8101393" lon="-118.3940638">
  <ele>-0.11</ele>
  <time>2026-09-02T22:07:21Z</time>
  <course>186.26</course>
  <speed>0.7283543093852057</speed>
  <fix>3d</fix>
</trkpt>
<trkpt lat="33.8101393" lon="-118.3940638">
  <ele>-0.11</ele>
  <time>2026-09-02T22:07:21Z</time>
  <course>186.26</course>
  <speed>0.7283543093852057</speed>
  <fix>3d</fix>
</trkpt>
<trkpt lat="33.8101402" lon="-118.3940623">
  <ele>-0.1</ele>
  <time>2026-09-02T22:07:21Z</time>
  <course>223.26</course>
  <speed>0.73</speed>
  <fix>3d</fix>
</trkpt>
<trkpt lat="33.8101393" lon="-118.3940638">
  <ele>-0.11</ele>
  <time>2026-09-02T22:07:21Z</time>
  <course>186.26</course>
  <speed>0.7283543093852057</speed>
  <fix>3d</fix>
</trkpt>
<trkpt lat="33.8101392" lon="-118.3940639">
  <ele>-0.11</ele>
  <time>2026-09-02T22:07:21Z</time>
  <course>186.26</course>
  <speed>0.7283543093852057</speed>
  <fix>3d</fix>
</trkpt>
<trkpt lat="33.8101392" lon="-118.3940639">
  <ele>-0.11</ele>
  <time>2026-09-02T22:07:21Z</time>
  <course>186.26</course>
  <speed>0.7283543093852057</speed>
  <fix>3d</fix>
</trkpt>
<trkpt lat="33.8101391" lon="-118.3940639">
  <ele>-0.11</ele>
  <time>2026-09-02T22:07:21Z</time>
  <course>186.26</course>
  <speed>0.7283543093852057</speed>
  <fix>3d</fix>
</trkpt>
<trkpt lat="33.8101391" lon="-118.394064">
  <ele>-0.11</ele>
  <time>2026-09-02T22:07:21Z</time>
  <course>186.26</course>
  <speed>0.7283543093852057</speed>
  <fix>3d</fix>
</trkpt>
<trkpt lat="33.8101391" lon="-118.394064">
  <ele>-0.11</ele>
  <time>2026-09-02T22:07:21Z</time>
  <course>186.26</course>
  <speed>0.7283543093852057</speed>
  <fix>3d</fix>
</trkpt>
<trkpt lat="33.810139" lon="-118.3940641">
  <ele>-0.11</ele>
  <time>2026-09-02T22:07:21Z</time>
  <course>186.26</course>
  <speed>0.7283543093852057</speed>
  <fix>3d</fix>
</trkpt>
<trkpt lat="33.810139" lon="-118.3940641">
  <ele>-0.11</ele>
  <time>2026-09-02T22:07:21Z</time>
  <course>186.26</course>
  <speed>0.7283543093852057</speed>
  <fix>3d</fix>
</trkpt>
<trkpt lat="33.8101389" lon="-118.3940642">
  <ele>-0.11</ele>
  <time>2026-09-02T22:07:21Z</time>
  <course>186.26</course>
  <speed>0.7283543093852057</speed>
  <fix>3d</fix>
</trkpt>
<trkpt lat="33.8101389" lon="-118.3940642">
  <ele>-0.11</ele>
  <time>2026-09-02T22:07:21Z</time>
  <course>186.26</course>
  <speed>0.7283543093852057</speed>
  <fix>3d</fix>
</trkpt>
<trkpt lat="33.8101388" lon="-118.3940643">
  <ele>-0.11</ele>
  <time>2026-09-02T22:07:21Z</time>
  <course>186.26</course>
  <speed>0.7283543093852057</speed>
  <fix>3d</fix>
</trkpt>
<trkpt lat="33.8101388" lon="-118.3940643">
  <ele>-0.11</ele>
  <time>2026-09-02T22:07:21Z</time>
  <course>186.26</course>
  <speed>0.7283543093852057</speed>
  <fix>3d</fix>
</trkpt>
<trkpt lat="33.8101388" lon="-118.3940643">
  <ele>-0.109</ele>
  <time>2026-09-02T22:07:21Z</time>
  <course>186.26</course>
  <speed>0.7283543093852057</speed>
  <fix>3d</fix>
</trkpt>
<trkpt lat="33.8101392" lon="-118.3940634">
  <ele>-0.11</ele>
  <time>2026-09-02T22:07:21Z</time>
  <course>223.26</course>
  <speed>0.73</speed>
  <fix>3d</fix>
</trkpt>
<trkpt lat="33.8101388" lon="-118.3940643">
  <ele>-0.109</ele>
  <time>2026-09-02T22:07:21Z</time>
  <course>186.26</course>
  <speed>0.7283543093852057</speed>
  <fix>3d</fix>
</trkpt>
<trkpt lat="33.8101387" lon="-118.3940644">
  <ele>-0.109</ele>
  <time>2026-09-02T22:07:21Z</time>
  <course>186.26</course>
  <speed>0.7283543093852057</speed>
  <fix>3d</fix>
</trkpt>
<trkpt lat="33.8101387" lon="-118.3940645">
  <ele>-0.109</ele>
  <time>2026-09-02T22:07:21Z</time>
  <course>186.26</course>
  <speed>0.7283543093852057</speed>
  <fix>3d</fix>
</trkpt>
<trkpt lat="33.8101386" lon="-118.3940645">
  <ele>-0.109</ele>
  <time>2026-09-02T22:07:21Z</time>
  <course>186.26</course>
  <speed>0.7283543093852057</speed>
  <fix>3d</fix>
</trkpt>
<trkpt lat="33.8101386" lon="-118.3940646">
  <ele>-0.109</ele>
  <time>2026-09-02T22:07:21Z</time>
  <course>186.26</course>
  <speed>0.7283543093852057</speed>
  <fix>3d</fix>
</trkpt>
<trkpt lat="33.8101385" lon="-118.3940646">
  <ele>-0.109</ele>
  <time>2026-09-02T22:07:21Z</time>
  <course>186.26</course>
  <speed>0.7283543093852057</speed>
  <fix>3d</fix>
</trkpt>
<trkpt lat="33.8101385" lon="-118.3940647">
  <ele>-0.109</ele>
  <time>2026-09-02T22:07:21Z</time>
  <course>186.26</course>
  <speed>0.7283543093852057</speed>
  <fix>3d</fix>
</trkpt>
<trkpt lat="33.8101384" lon="-118.3940647">
  <ele>-0.109</ele>
  <time>2026-09-02T22:07:21Z</time>
  <course>186.26</course>
  <speed>0.7283543093852057</speed>
  <fix>3d</fix>
</trkpt>
<trkpt lat="33.8101384" lon="-118.3940647">
  <ele>-0.109</ele>
  <time>2026-09-02T22:07:21Z</time>
  <course>186.26</course>
  <speed>0.7283543093852057</speed>
  <fix>3d</fix>
</trkpt>
<trkpt lat="33.8101384" lon="-118.3940648">
  <ele>-0.109</ele>
  <time>2026-09-02T22:07:21Z</time>
  <course>186.26</course>
  <speed>0.7283543093852057</speed>
  <fix>3d</fix>
</trkpt>
<trkpt lat="33.8101383" lon="-118.3940648">
  <ele>-0.108</ele>
  <time>2026-09-02T22:07:21Z</time>
  <course>186.26</course>
  <speed>0.7283543093852057</speed>
  <fix>3d</fix>
</trkpt>
<trkpt lat="33.8101383" lon="-118.3940649">
  <ele>-0.108</ele>
  <time>2026-09-02T22:07:21Z</time>
  <course>186.26</course>
  <speed>0.7283543093852057</speed>
  <fix>3d</fix>
</trkpt>
<trkpt lat="33.8101383" lon="-118.3940649">
  <ele>-0.108</ele>
  <time>2026-09-02T22:07:21Z</time>
  <course>186.26</course>
  <speed>0.7283543093852057</speed>
  <fix>3d</fix>
</trkpt>
<trkpt lat="33.8101392" lon="-118.3940634">
  <ele>-0.11</ele>
  <time>2026-09-02T22:07:21Z</time>
  <course>223.26</course>
  <speed>0.73</speed>
  <fix>3d</fix>
</trkpt>
<trkpt lat="33.8101382" lon="-118.394065">
  <ele>-0.108</ele>
  <time>2026-09-02T22:07:21Z</time>
  <course>186.26</course>
  <speed>0.7283543093852057</speed>
  <fix>3d</fix>
</trkpt>
<trkpt lat="33.8101381" lon="-118.394065">
  <ele>-0.108</ele>
  <time>2026-09-02T22:07:21Z</time>
  <course>186.26</course>
  <speed>0.7283543093852057</speed>
  <fix>3d</fix>
</trkpt>
<trkpt lat="33.8101381" lon="-118.3940651">
  <ele>-0.108</ele>
  <time>2026-09-02T22:07:21Z</time>
  <course>186.26</course>
  <speed>0.7283543093852057</speed>
  <fix>3d</fix>
</trkpt>
<trkpt lat="33.810138" lon="-118.3940652">
  <ele>-0.108</ele>
  <time>2026-09-02T22:07:21Z</time>
  <course>186.26</course>
  <speed>0.7283543093852057</speed>
  <fix>3d</fix>
</trkpt>
<trkpt lat="33.810138" lon="-118.3940652">
  <ele>-0.108</ele>
  <time>2026-09-02T22:07:21Z</time>
  <course>186.26</course>
  <speed>0.7283543093852057</speed>
  <fix>3d</fix>
</trkpt>
<trkpt lat="33.810138" lon="-118.3940653">
  <ele>-0.107</ele>
  <time>2026-09-02T22:07:21Z</time>
  <course>186.26</course>
  <speed>0.7283543093852057</speed>
  <fix>3d</fix>
</trkpt>
<trkpt lat="33.8101379" lon="-118.3940653">
  <ele>-0.107</ele>
  <time>2026-09-02T22:07:21Z</time>
  <course>186.26</course>
  <speed>0.7283543093852057</speed>
  <fix>3d</fix>
</trkpt>
<trkpt lat="33.8101379" lon="-118.3940654">
  <ele>-0.107</ele>
  <time>2026-09-02T22:07:21Z</time>
  <course>186.26</course>
  <speed>0.7283543093852057</speed>
  <fix>3d</fix>
</trkpt>
<trkpt lat="33.8101378" lon="-118.3940654">
  <ele>-0.107</ele>
  <time>2026-09-02T22:07:21Z</time>
  <course>186.26</course>
  <speed>0.7283543093852057</speed>
  <fix>3d</fix>
</trkpt>
<trkpt lat="33.8101378" lon="-118.3940654">
  <ele>-0.107</ele>
  <time>2026-09-02T22:07:21Z</time>
  <course>186.26</course>
  <speed>0.7283543093852057</speed>
  <fix>3d</fix>
</trkpt>
<trkpt lat="33.8101383" lon="-118.3940645">
  <ele>-0.1</ele>
  <time>2026-09-02T22:07:21Z</time>
  <course>223.26</course>
  <speed>0.73</speed>
  <fix>3d</fix>
</trkpt>
<trkpt lat="33.8101378" lon="-118.3940654">
  <ele>-0.107</ele>
  <time>2026-09-02T22:07:21Z</time>
  <course>186.26</course>
  <speed>0.7283543093852057</speed>
  <fix>3d</fix>
</trkpt>
<trkpt lat="33.8101377" lon="-118.3940655">
  <ele>-0.107</ele>
  <time>2026-09-02T22:07:21Z</time>
  <course>186.26</course>
  <speed>0.7283543093852057</speed>
  <fix>3d</fix>
</trkpt>
<trkpt lat="33.8101377" lon="-118.3940656">
  <ele>-0.107</ele>
  <time>2026-09-02T22:07:21Z</time>
  <course>186.26</course>
  <speed>0.7283543093852057</speed>
  <fix>3d</fix>
</trkpt>
<trkpt lat="33.8101376" lon="-118.3940656">
  <ele>-0.107</ele>
  <time>2026-09-02T22:07:21Z</time>
  <course>186.26</course>
  <speed>0.7283543093852057</speed>
  <fix>3d</fix>
</trkpt>
<trkpt lat="33.8101376" lon="-118.3940656">
  <ele>-0.106</ele>
  <time>2026-09-02T22:07:21Z</time>
  <course>186.26</course>
  <speed>0.7283543093852057</speed>
  <fix>3d</fix>
</trkpt>
<trkpt lat="33.8101376" lon="-118.3940657">
  <ele>-0.106</ele>
  <time>2026-09-02T22:07:21Z</time>
  <course>186.26</course>
  <speed>0.7283543093852057</speed>
  <fix>3d</fix>
</trkpt>
<trkpt lat="33.8101375" lon="-118.3940657">
  <ele>-0.106</ele>
  <time>2026-09-02T22:07:21Z</time>
  <course>186.26</course>
  <speed>0.7283543093852057</speed>
  <fix>3d</fix>
</trkpt>
<trkpt lat="33.8101375" lon="-118.3940658">
  <ele>-0.106</ele>
  <time>2026-09-02T22:07:21Z</time>
  <course>186.26</course>
  <speed>0.7283543093852057</speed>
  <fix>3d</fix>
</trkpt>
<trkpt lat="33.8101375" lon="-118.3940658">
  <ele>-0.106</ele>
  <time>2026-09-02T22:07:21Z</time>
  <course>186.26</course>
  <speed>0.7283543093852057</speed>
  <fix>3d</fix>
</trkpt>
<trkpt lat="33.8101374" lon="-118.3940659">
  <ele>-0.106</ele>
  <time>2026-09-02T22:07:21Z</time>
  <course>186.26</course>
  <speed>0.7283543093852057</speed>
  <fix>3d</fix>
</trkpt>
<trkpt lat="33.8101374" lon="-118.3940659">
  <ele>-0.106</ele>
  <time>2026-09-02T22:07:21Z</time>
  <course>186.26</course>
  <speed>0.7283543093852057</speed>
  <fix>3d</fix>
</trkpt>
<trkpt lat="33.8101374" lon="-118.3940659">
  <ele>-0.106</ele>
  <time>2026-09-02T22:07:21Z</time>
  <course>186.26</course>
  <speed>0.7283543093852057</speed>
  <fix>3d</fix>
</trkpt>
<trkpt lat="33.8101373" lon="-118.394066">
  <ele>-0.105</ele>
  <time>2026-09-02T22:07:21Z</time>
  <course>186.26</course>
  <speed>0.7283543093852057</speed>
  <fix>3d</fix>
</trkpt>
<trkpt lat="33.8101383" lon="-118.3940645">
  <ele>-0.1</ele>
  <time>2026-09-02T22:07:21Z</time>
  <course>223.26</course>
  <speed>0.73</speed>
  <fix>3d</fix>
</trkpt>
<trkpt lat="33.8101373" lon="-118.394066">
  <ele>-0.105</ele>
  <time>2026-09-02T22:07:21Z</time>
  <course>186.26</course>
  <speed>0.7283543093852057</speed>
  <fix>3d</fix>
</trkpt>
<trkpt lat="33.8101373" lon="-118.3940661">
  <ele>-0.105</ele>
  <time>2026-09-02T22:07:21Z</time>
  <course>186.26</course>
  <speed>0.7283543093852057</speed>
  <fix>3d</fix>
</trkpt>
<trkpt lat="33.8101372" lon="-118.3940661">
  <ele>-0.105</ele>
  <time>2026-09-02T22:07:21Z</time>
  <course>186.26</course>
  <speed>0.7283543093852057</speed>
  <fix>3d</fix>
</trkpt>
<trkpt lat="33.8101372" lon="-118.3940662">
  <ele>-0.105</ele>
  <time>2026-09-02T22:07:21Z</time>
  <course>186.26</course>
  <speed>0.7283543093852057</speed>
  <fix>3d</fix>
</trkpt>
<trkpt lat="33.8101371" lon="-118.3940662">
  <ele>-0.105</ele>
  <time>2026-09-02T22:07:21Z</time>
  <course>186.26</course>
  <speed>0.7283543093852057</speed>
  <fix>3d</fix>
</trkpt>
<trkpt lat="33.8101371" lon="-118.3940663">
  <ele>-0.105</ele>
  <time>2026-09-02T22:07:21Z</time>
  <course>186.26</course>
  <speed>0.7283543093852057</speed>
  <fix>3d</fix>
</trkpt>
<trkpt lat="33.8101371" lon="-118.3940663">
  <ele>-0.105</ele>
  <time>2026-09-02T22:07:21Z</time>
  <course>186.26</course>
  <speed>0.7283543093852057</speed>
  <fix>3d</fix>
</trkpt>
<trkpt lat="33.810137" lon="-118.3940663">
  <ele>-0.104</ele>
  <time>2026-09-02T22:07:21Z</time>
  <course>186.26</course>
  <speed>0.7283543093852057</speed>
  <fix>3d</fix>
</trkpt>
<trkpt lat="33.810137" lon="-118.3940664">
  <ele>-0.104</ele>
  <time>2026-09-02T22:07:21Z</time>
  <course>186.26</course>
  <speed>0.7283543093852057</speed>
  <fix>3d</fix>
</trkpt>
<trkpt lat="33.8101369" lon="-118.3940664">
  <ele>-0.104</ele>
  <time>2026-09-02T22:07:21Z</time>
  <course>186.26</course>
  <speed>0.7283543093852057</speed>
  <fix>3d</fix>
</trkpt>
<trkpt lat="33.8101369" lon="-118.3940665">
  <ele>-0.104</ele>
  <time>2026-09-02T22:07:21Z</time>
  <course>186.26</course>
  <speed>0.7283543093852057</speed>
  <fix>3d</fix>
</trkpt>
<trkpt lat="33.8101369" lon="-118.3940665">
  <ele>-0.104</ele>
  <time>2026-09-02T22:07:21Z</time>
  <course>186.26</course>
  <speed>0.7283543093852057</speed>
  <fix>3d</fix>
</trkpt>
<trkpt lat="33.8101369" lon="-118.3940665">
  <ele>-0.104</ele>
  <time>2026-09-02T22:07:21Z</time>
  <course>186.26</course>
  <speed>0.7283543093852057</speed>
  <fix>3d</fix>
</trkpt>
<trkpt lat="33.8101373" lon="-118.3940656">
  <ele>-0.1</ele>
  <time>2026-09-02T22:07:21Z</time>
  <course>223.26</course>
  <speed>0.73</speed>
  <fix>3d</fix>
</trkpt>
<trkpt lat="33.8101368" lon="-118.3940665">
  <ele>-0.104</ele>
  <time>2026-09-02T22:07:21Z</time>
  <course>186.26</course>
  <speed>0.7283543093852057</speed>
  <fix>3d</fix>
</trkpt>
<trkpt lat="33.8101368" lon="-118.3940666">
  <ele>-0.104</ele>
  <time>2026-09-02T22:07:21Z</time>
  <course>186.26</course>
  <speed>0.7283543093852057</speed>
  <fix>3d</fix>
</trkpt>
<trkpt lat="33.8101367" lon="-118.3940666">
  <ele>-0.103</ele>
  <time>2026-09-02T22:07:21Z</time>
  <course>186.26</course>
  <speed>0.7283543093852057</speed>
  <fix>3d</fix>
</trkpt>
<trkpt lat="33.8101367" lon="-118.3940667">
  <ele>-0.103</ele>
  <time>2026-09-02T22:07:21Z</time>
  <course>186.26</course>
  <speed>0.7283543093852057</speed>
  <fix>3d</fix>
</trkpt>
<trkpt lat="33.8101366" lon="-118.3940668">
  <ele>-0.103</ele>
  <time>2026-09-02T22:07:21Z</time>
  <course>186.26</course>
  <speed>0.7283543093852057</speed>
  <fix>3d</fix>
</trkpt>
<trkpt lat="33.8101366" lon="-118.3940668">
  <ele>-0.103</ele>
  <time>2026-09-02T22:07:21Z</time>
  <course>186.26</course>
  <speed>0.7283543093852057</speed>
  <fix>3d</fix>
</trkpt>
<trkpt lat="33.8101366" lon="-118.3940669">
  <ele>-0.103</ele>
  <time>2026-09-02T22:07:21Z</time>
  <course>186.26</course>
  <speed>0.7283543093852057</speed>
  <fix>3d</fix>
</trkpt>
<trkpt lat="33.8101365" lon="-118.3940669">
  <ele>-0.103</ele>
  <time>2026-09-02T22:07:21Z</time>
  <course>186.26</course>
  <speed>0.7283543093852057</speed>
  <fix>3d</fix>
</trkpt>
<trkpt lat="33.8101365" lon="-118.3940669">
  <ele>-0.103</ele>
  <time>2026-09-02T22:07:21Z</time>
  <course>186.26</course>
  <speed>0.7283543093852057</speed>
  <fix>3d</fix>
</trkpt>
<trkpt lat="33.8101364" lon="-118.394067">
  <ele>-0.102</ele>
  <time>2026-09-02T22:07:22Z</time>
  <course>186.26</course>
  <speed>0.7283543093852057</speed>
  <fix>3d</fix>
</trkpt>
<trkpt lat="33.8101364" lon="-118.394067">
  <ele>-0.102</ele>
  <time>2026-09-02T22:07:22Z</time>
  <course>186.26</course>
  <speed>0.7283543093852057</speed>
  <fix>3d</fix>
</trkpt>
<trkpt lat="33.8101364" lon="-118.3940671">
  <ele>-0.102</ele>
  <time>2026-09-02T22:07:22Z</time>
  <course>186.26</course>
  <speed>0.7283543093852057</speed>
  <fix>3d</fix>
</trkpt>
<trkpt lat="33.8101373" lon="-118.3940656">
  <ele>-0.1</ele>
  <time>2026-09-02T22:07:22Z</time>
  <course>223.26</course>
  <speed>0.73</speed>
  <fix>3d</fix>
</trkpt>
<trkpt lat="33.8101364" lon="-118.3940671">
  <ele>-0.102</ele>
  <time>2026-09-02T22:07:22Z</time>
  <course>186.26</course>
  <speed>0.7283543093852057</speed>
  <fix>3d</fix>
</trkpt>
<trkpt lat="33.8101363" lon="-118.3940671">
  <ele>-0.102</ele>
  <time>2026-09-02T22:07:22Z</time>
  <course>186.26</course>
  <speed>0.7283543093852057</speed>
  <fix>3d</fix>
</trkpt>
<trkpt lat="33.8101363" lon="-118.3940672">
  <ele>-0.102</ele>
  <time>2026-09-02T22:07:22Z</time>
  <course>186.26</course>
  <speed>0.7283543093852057</speed>
  <fix>3d</fix>
</trkpt>
<trkpt lat="33.8101362" lon="-118.3940673">
  <ele>-0.102</ele>
  <time>2026-09-02T22:07:22Z</time>
  <course>186.26</course>
  <speed>0.7283543093852057</speed>
  <fix>3d</fix>
</trkpt>
<trkpt lat="33.8101362" lon="-118.3940673">
  <ele>-0.102</ele>
  <time>2026-09-02T22:07:22Z</time>
  <course>186.26</course>
  <speed>0.7283543093852057</speed>
  <fix>3d</fix>
</trkpt>
<trkpt lat="33.8101361" lon="-118.3940673">
  <ele>-0.101</ele>
  <time>2026-09-02T22:07:22Z</time>
  <course>186.26</course>
  <speed>0.7283543093852057</speed>
  <fix>3d</fix>
</trkpt>
<trkpt lat="33.8101361" lon="-118.3940674">
  <ele>-0.101</ele>
  <time>2026-09-02T22:07:22Z</time>
  <course>186.26</course>
  <speed>0.7283543093852057</speed>
  <fix>3d</fix>
</trkpt>
<trkpt lat="33.8101361" lon="-118.3940674">
  <ele>-0.101</ele>
  <time>2026-09-02T22:07:22Z</time>
  <course>186.26</course>
  <speed>0.7283543093852057</speed>
  <fix>3d</fix>
</trkpt>
<trkpt lat="33.810136" lon="-118.3940675">
  <ele>-0.101</ele>
  <time>2026-09-02T22:07:22Z</time>
  <course>186.26</course>
  <speed>0.7283543093852057</speed>
  <fix>3d</fix>
</trkpt>
<trkpt lat="33.810136" lon="-118.3940675">
  <ele>-0.101</ele>
  <time>2026-09-02T22:07:22Z</time>
  <course>186.26</course>
  <speed>0.7283543093852057</speed>
  <fix>3d</fix>
</trkpt>
<trkpt lat="33.810136" lon="-118.3940675">
  <ele>-0.101</ele>
  <time>2026-09-02T22:07:22Z</time>
  <course>186.26</course>
  <speed>0.7283543093852057</speed>
  <fix>3d</fix>
</trkpt>
<trkpt lat="33.8101359" lon="-118.3940676">
  <ele>-0.101</ele>
  <time>2026-09-02T22:07:22Z</time>
  <course>186.26</course>
  <speed>0.7283543093852057</speed>
  <fix>3d</fix>
</trkpt>
<trkpt lat="33.8101359" lon="-118.3940676">
  <ele>-0.101</ele>
  <time>2026-09-02T22:07:22Z</time>
  <course>186.26</course>
  <speed>0.7283543093852057</speed>
  <fix>3d</fix>
</trkpt>
<trkpt lat="33.8101364" lon="-118.3940667">
  <ele>-0.1</ele>
  <time>2026-09-02T22:07:22Z</time>
  <course>223.26</course>
  <speed>0.73</speed>
  <fix>3d</fix>
</trkpt>
<trkpt lat="33.8101359" lon="-118.3940676">
  <ele>-0.101</ele>
  <time>2026-09-02T22:07:22Z</time>
  <course>186.26</course>
  <speed>0.7283543093852057</speed>
  <fix>3d</fix>
</trkpt>
<trkpt lat="33.8101358" lon="-118.3940677">
  <ele>-0.101</ele>
  <time>2026-09-02T22:07:22Z</time>
  <course>186.26</course>
  <speed>0.7283543093852057</speed>
  <fix>3d</fix>
</trkpt>
<trkpt lat="33.8101357" lon="-118.3940678">
  <ele>-0.1</ele>
  <time>2026-09-02T22:07:22Z</time>
  <course>186.26</course>
  <speed>0.7283543093852057</speed>
  <fix>3d</fix>
</trkpt>
<trkpt lat="33.8101357" lon="-118.3940678">
  <ele>-0.1</ele>
  <time>2026-09-02T22:07:22Z</time>
  <course>186.26</course>
  <speed>0.7283543093852057</speed>
  <fix>3d</fix>
</trkpt>
<trkpt lat="33.8101357" lon="-118.3940679">
  <ele>-0.1</ele>
  <time>2026-09-02T22:07:22Z</time>
  <course>186.26</course>
  <speed>0.7283543093852057</speed>
  <fix>3d</fix>
</trkpt>
<trkpt lat="33.8101356" lon="-118.3940679">
  <ele>-0.1</ele>
  <time>2026-09-02T22:07:22Z</time>
  <course>186.26</course>
  <speed>0.7283543093852057</speed>
  <fix>3d</fix>
</trkpt>
<trkpt lat="33.8101356" lon="-118.3940679">
  <ele>-0.1</ele>
  <time>2026-09-02T22:07:22Z</time>
  <course>186.26</course>
  <speed>0.7283543093852057</speed>
  <fix>3d</fix>
</trkpt>
<trkpt lat="33.8101356" lon="-118.394068">
  <ele>-0.1</ele>
  <time>2026-09-02T22:07:22Z</time>
  <course>186.26</course>
  <speed>0.7283543093852057</speed>
  <fix>3d</fix>
</trkpt>
<trkpt lat="33.8101355" lon="-118.394068">
  <ele>-0.1</ele>
  <time>2026-09-02T22:07:22Z</time>
  <course>186.26</course>
  <speed>0.7283543093852057</speed>
  <fix>3d</fix>
</trkpt>
<trkpt lat="33.8101355" lon="-118.3940681">
  <ele>-0.1</ele>
  <time>2026-09-02T22:07:22Z</time>
  <course>186.26</course>
  <speed>0.7283543093852057</speed>
  <fix>3d</fix>
</trkpt>
<trkpt lat="33.8101354" lon="-118.3940681">
  <ele>-0.1</ele>
  <time>2026-09-02T22:07:22Z</time>
  <course>186.26</course>
  <speed>0.7283543093852057</speed>
  <fix>3d</fix>
</trkpt>
<trkpt lat="33.8101354" lon="-118.3940682">
  <ele>-0.1</ele>
  <time>2026-09-02T22:07:22Z</time>
  <course>186.26</course>
  <speed>0.7283543093852057</speed>
  <fix>3d</fix>
</trkpt>
<trkpt lat="33.8101364" lon="-118.3940667">
  <ele>-0.1</ele>
  <time>2026-09-02T22:07:22Z</time>
  <course>223.26</course>
  <speed>0.73</speed>
  <fix>3d</fix>
</trkpt>
<trkpt lat="33.8101354" lon="-118.3940682">
  <ele>-0.1</ele>
  <time>2026-09-02T22:07:22Z</time>
  <course>186.26</course>
  <speed>0.7283543093852057</speed>
  <fix>3d</fix>
</trkpt>
<trkpt lat="33.8101353" lon="-118.3940682">
  <ele>-0.1</ele>
  <time>2026-09-02T22:07:22Z</time>
  <course>186.26</course>
  <speed>0.7283543093852057</speed>
  <fix>3d</fix>
</trkpt>
<trkpt lat="33.8101353" lon="-118.3940683">
  <ele>-0.099</ele>
  <time>2026-09-02T22:07:22Z</time>
  <course>186.26</course>
  <speed>0.7283543093852057</speed>
  <fix>3d</fix>
</trkpt>
<trkpt lat="33.8101352" lon="-118.3940684">
  <ele>-0.099</ele>
  <time>2026-09-02T22:07:22Z</time>
  <course>186.26</course>
  <speed>0.7283543093852057</speed>
  <fix>3d</fix>
</trkpt>
<trkpt lat="33.8101352" lon="-118.3940684">
  <ele>-0.099</ele>
  <time>2026-09-02T22:07:22Z</time>
  <course>186.26</course>
  <speed>0.7283543093852057</speed>
  <fix>3d</fix>
</trkpt>
<trkpt lat="33.8101352" lon="-118.3940684">
  <ele>-0.099</ele>
  <time>2026-09-02T22:07:22Z</time>
  <course>186.26</course>
  <speed>0.7283543093852057</speed>
  <fix>3d</fix>
</trkpt>
<trkpt lat="33.8101351" lon="-118.3940685">
  <ele>-0.099</ele>
  <time>2026-09-02T22:07:22Z</time>
  <course>186.26</course>
  <speed>0.7283543093852057</speed>
  <fix>3d</fix>
</trkpt>
<trkpt lat="33.8101351" lon="-118.3940685">
  <ele>-0.099</ele>
  <time>2026-09-02T22:07:22Z</time>
  <course>186.26</course>
  <speed>0.7283543093852057</speed>
  <fix>3d</fix>
</trkpt>
<trkpt lat="33.810135" lon="-118.3940686">
  <ele>-0.099</ele>
  <time>2026-09-02T22:07:22Z</time>
  <course>186.26</course>
  <speed>0.7283543093852057</speed>
  <fix>3d</fix>
</trkpt>
<trkpt lat="33.810135" lon="-118.3940686">
  <ele>-0.099</ele>
  <time>2026-09-02T22:07:22Z</time>
  <course>186.26</course>
  <speed>0.7283543093852057</speed>
  <fix>3d</fix>
</trkpt>
<trkpt lat="33.810135" lon="-118.3940687">
  <ele>-0.099</ele>
  <time>2026-09-02T22:07:22Z</time>
  <course>186.26</course>
  <speed>0.7283543093852057</speed>
  <fix>3d</fix>
</trkpt>
<trkpt lat="33.8101349" lon="-118.3940687">
  <ele>-0.099</ele>
  <time>2026-09-02T22:07:22Z</time>
  <course>186.26</course>
  <speed>0.7283543093852057</speed>
  <fix>3d</fix>
</trkpt>
<trkpt lat="33.8101354" lon="-118.3940677">
  <ele>-0.1</ele>
  <time>2026-09-02T22:07:22Z</time>
  <course>223.26</course>
  <speed>0.73</speed>
  <fix>3d</fix>
</trkpt>
<trkpt lat="33.8101349" lon="-118.3940687">
  <ele>-0.099</ele>
  <time>2026-09-02T22:07:22Z</time>
  <course>186.26</course>
  <speed>0.7283543093852057</speed>
  <fix>3d</fix>
</trkpt>
<trkpt lat="33.8101349" lon="-118.3940688">
  <ele>-0.099</ele>
  <time>2026-09-02T22:07:22Z</time>
  <course>186.26</course>
  <speed>0.7283543093852057</speed>
  <fix>3d</fix>
</trkpt>
<trkpt lat="33.8101348" lon="-118.3940688">
  <ele>-0.099</ele>
  <time>2026-09-02T22:07:22Z</time>
  <course>186.26</course>
  <speed>0.7283543093852057</speed>
  <fix>3d</fix>
</trkpt>
<trkpt lat="33.8101348" lon="-118.3940689">
  <ele>-0.099</ele>
  <time>2026-09-02T22:07:22Z</time>
  <course>186.26</course>
  <speed>0.7283543093852057</speed>
  <fix>3d</fix>
</trkpt>
<trkpt lat="33.8101347" lon="-118.3940689">
  <ele>-0.099</ele>
  <time>2026-09-02T22:07:22Z</time>
  <course>186.26</course>
  <speed>0.7283543093852057</speed>
  <fix>3d</fix>
</trkpt>
<trkpt lat="33.8101347" lon="-118.394069">
  <ele>-0.099</ele>
  <time>2026-09-02T22:07:22Z</time>
  <course>186.26</course>
  <speed>0.7283543093852057</speed>
  <fix>3d</fix>
</trkpt>
<trkpt lat="33.8101346" lon="-118.394069">
  <ele>-0.099</ele>
  <time>2026-09-02T22:07:22Z</time>
  <course>186.26</course>
  <speed>0.7283543093852057</speed>
  <fix>3d</fix>
</trkpt>
<trkpt lat="33.8101346" lon="-118.3940691">
  <ele>-0.099</ele>
  <time>2026-09-02T22:07:22Z</time>
  <course>186.26</course>
  <speed>0.7283543093852057</speed>
  <fix>3d</fix>
</trkpt>
<trkpt lat="33.8101345" lon="-118.3940691">
  <ele>-0.098</ele>
  <time>2026-09-02T22:07:22Z</time>
  <course>186.26</course>
  <speed>0.7283543093852057</speed>
  <fix>3d</fix>
</trkpt>
<trkpt lat="33.8101345" lon="-118.3940692">
  <ele>-0.098</ele>
  <time>2026-09-02T22:07:22Z</time>
  <course>186.26</course>
  <speed>0.7283543093852057</speed>
  <fix>3d</fix>
</trkpt>
<trkpt lat="33.8101345" lon="-118.3940692">
  <ele>-0.098</ele>
  <time>2026-09-02T22:07:22Z</time>
  <course>186.26</course>
  <speed>0.7283543093852057</speed>
  <fix>3d</fix>
</trkpt>
<trkpt lat="33.8101345" lon="-118.3940692">
  <ele>-0.098</ele>
  <time>2026-09-02T22:07:22Z</time>
  <course>186.26</course>
  <speed>0.7283543093852057</speed>
  <fix>3d</fix>
</trkpt>
<trkpt lat="33.8101354" lon="-118.3940677">
  <ele>-0.1</ele>
  <time>2026-09-02T22:07:22Z</time>
  <course>223.26</course>
  <speed>0.73</speed>
  <fix>3d</fix>
</trkpt>
<trkpt lat="33.8101344" lon="-118.3940693">
  <ele>-0.098</ele>
  <time>2026-09-02T22:07:22Z</time>
  <course>186.26</course>
  <speed>0.7283543093852057</speed>
  <fix>3d</fix>
</trkpt>
<trkpt lat="33.8101343" lon="-118.3940694">
  <ele>-0.098</ele>
  <time>2026-09-02T22:07:22Z</time>
  <course>186.26</course>
  <speed>0.7283543093852057</speed>
  <fix>3d</fix>
</trkpt>
<trkpt lat="33.8101343" lon="-118.3940694">
  <ele>-0.098</ele>
  <time>2026-09-02T22:07:22Z</time>
  <course>186.26</course>
  <speed>0.7283543093852057</speed>
  <fix>3d</fix>
</trkpt>
<trkpt lat="33.8101343" lon="-118.3940695">
  <ele>-0.098</ele>
  <time>2026-09-02T22:07:22Z</time>
  <course>186.26</course>
  <speed>0.7283543093852057</speed>
  <fix>3d</fix>
</trkpt>
<trkpt lat="33.8101342" lon="-118.3940695">
  <ele>-0.098</ele>
  <time>2026-09-02T22:07:22Z</time>
  <course>186.26</course>
  <speed>0.7283543093852057</speed>
  <fix>3d</fix>
</trkpt>
<trkpt lat="33.8101342" lon="-118.3940695">
  <ele>-0.097</ele>
  <time>2026-09-02T22:07:22Z</time>
  <course>186.26</course>
  <speed>0.7283543093852057</speed>
  <fix>3d</fix>
</trkpt>
<trkpt lat="33.8101342" lon="-118.3940696">
  <ele>-0.097</ele>
  <time>2026-09-02T22:07:22Z</time>
  <course>186.26</course>
  <speed>0.7283543093852057</speed>
  <fix>3d</fix>
</trkpt>
<trkpt lat="33.8101341" lon="-118.3940696">
  <ele>-0.097</ele>
  <time>2026-09-02T22:07:22Z</time>
  <course>186.26</course>
  <speed>0.7283543093852057</speed>
  <fix>3d</fix>
</trkpt>
<trkpt lat="33.8101341" lon="-118.3940697">
  <ele>-0.097</ele>
  <time>2026-09-02T22:07:22Z</time>
  <course>186.26</course>
  <speed>0.7283543093852057</speed>
  <fix>3d</fix>
</trkpt>
<trkpt lat="33.810134" lon="-118.3940697">
  <ele>-0.097</ele>
  <time>2026-09-02T22:07:22Z</time>
  <course>186.26</course>
  <speed>0.7283543093852057</speed>
  <fix>3d</fix>
</trkpt>
<trkpt lat="33.810134" lon="-118.3940698">
  <ele>-0.097</ele>
  <time>2026-09-02T22:07:22Z</time>
  <course>186.26</course>
  <speed>0.7283543093852057</speed>
  <fix>3d</fix>
</trkpt>
<trkpt lat="33.810134" lon="-118.3940698">
  <ele>-0.097</ele>
  <time>2026-09-02T22:07:22Z</time>
  <course>186.26</course>
  <speed>0.7283543093852057</speed>
  <fix>3d</fix>
</trkpt>
<trkpt lat="33.8101344" lon="-118.3940688">
  <ele>-0.11</ele>
  <time>2026-09-02T22:07:22Z</time>
  <course>223.26</course>
  <speed>0.73</speed>
  <fix>3d</fix>
</trkpt>
<trkpt lat="33.8101339" lon="-118.3940699">
  <ele>-0.097</ele>
  <time>2026-09-02T22:07:22Z</time>
  <course>186.26</course>
  <speed>0.7283543093852057</speed>
  <fix>3d</fix>
</trkpt>
<trkpt lat="33.8101338" lon="-118.3940699">
  <ele>-0.096</ele>
  <time>2026-09-02T22:07:22Z</time>
  <course>186.26</course>
  <speed>0.7283543093852057</speed>
  <fix>3d</fix>
</trkpt>
<trkpt lat="33.8101338" lon="-118.39407">
  <ele>-0.096</ele>
  <time>2026-09-02T22:07:22Z</time>
  <course>186.26</course>
  <speed>0.7283543093852057</speed>
  <fix>3d</fix>
</trkpt>
<trkpt lat="33.8101338" lon="-118.39407">
  <ele>-0.096</ele>
  <time>2026-09-02T22:07:22Z</time>
  <course>186.26</course>
  <speed>0.7283543093852057</speed>
  <fix>3d</fix>
</trkpt>
<trkpt lat="33.8101337" lon="-118.3940701">
  <ele>-0.096</ele>
  <time>2026-09-02T22:07:22Z</time>
  <course>186.26</course>
  <speed>0.7283543093852057</speed>
  <fix>3d</fix>
</trkpt>
<trkpt lat="33.8101337" lon="-118.3940701">
  <ele>-0.096</ele>
  <time>2026-09-02T22:07:22Z</time>
  <course>186.26</course>
  <speed>0.7283543093852057</speed>
  <fix>3d</fix>
</trkpt>
<trkpt lat="33.8101336" lon="-118.3940702">
  <ele>-0.096</ele>
  <time>2026-09-02T22:07:22Z</time>
  <course>186.26</course>
  <speed>0.7283543093852057</speed>
  <fix>3d</fix>
</trkpt>
<trkpt lat="33.8101336" lon="-118.3940702">
  <ele>-0.096</ele>
  <time>2026-09-02T22:07:22Z</time>
  <course>186.26</course>
  <speed>0.7283543093852057</speed>
  <fix>3d</fix>
</trkpt>
<trkpt lat="33.8101336" lon="-118.3940703">
  <ele>-0.096</ele>
  <time>2026-09-02T22:07:22Z</time>
  <course>186.26</course>
  <speed>0.7283543093852057</speed>
  <fix>3d</fix>
</trkpt>
<trkpt lat="33.8101335" lon="-118.3940703">
  <ele>-0.096</ele>
  <time>2026-09-02T22:07:22Z</time>
  <course>186.26</course>
  <speed>0.7283543093852057</speed>
  <fix>3d</fix>
</trkpt>
<trkpt lat="33.8101335" lon="-118.3940703">
  <ele>-0.096</ele>
  <time>2026-09-02T22:07:22Z</time>
  <course>186.26</course>
  <speed>0.7283543093852057</speed>
  <fix>3d</fix>
</trkpt>
<trkpt lat="33.8101344" lon="-118.3940688">
  <ele>-0.11</ele>
  <time>2026-09-02T22:07:22Z</time>
  <course>223.26</course>
  <speed>0.73</speed>
  <fix>3d</fix>
</trkpt>
<trkpt lat="33.8101335" lon="-118.3940703">
  <ele>-0.096</ele>
  <time>2026-09-02T22:07:22Z</time>
  <course>186.26</course>
  <speed>0.7283543093852057</speed>
  <fix>3d</fix>
</trkpt>
<trkpt lat="33.8101334" lon="-118.3940705">
  <ele>-0.096</ele>
  <time>2026-09-02T22:07:22Z</time>
  <course>186.26</course>
  <speed>0.7283543093852057</speed>
  <fix>3d</fix>
</trkpt>
<trkpt lat="33.8101333" lon="-118.3940705">
  <ele>-0.096</ele>
  <time>2026-09-02T22:07:22Z</time>
  <course>186.26</course>
  <speed>0.7283543093852057</speed>
  <fix>3d</fix>
</trkpt>
<trkpt lat="33.8101333" lon="-118.3940706">
  <ele>-0.096</ele>
  <time>2026-09-02T22:07:22Z</time>
  <course>186.26</course>
  <speed>0.7283543093852057</speed>
  <fix>3d</fix>
</trkpt>
<trkpt lat="33.8101332" lon="-118.3940706">
  <ele>-0.096</ele>
  <time>2026-09-02T22:07:22Z</time>
  <course>186.26</course>
  <speed>0.7283543093852057</speed>
  <fix>3d</fix>
</trkpt>
<trkpt lat="33.8101332" lon="-118.3940707">
  <ele>-0.096</ele>
  <time>2026-09-02T22:07:22Z</time>
  <course>186.26</course>
  <speed>0.7283543093852057</speed>
  <fix>3d</fix>
</trkpt>
<trkpt lat="33.8101332" lon="-118.3940707">
  <ele>-0.096</ele>
  <time>2026-09-02T22:07:22Z</time>
  <course>186.26</course>
  <speed>0.7283543093852057</speed>
  <fix>3d</fix>
</trkpt>
<trkpt lat="33.8101331" lon="-118.3940707">
  <ele>-0.096</ele>
  <time>2026-09-02T22:07:22Z</time>
  <course>186.26</course>
  <speed>0.7283543093852057</speed>
  <fix>3d</fix>
</trkpt>
<trkpt lat="33.8101331" lon="-118.3940708">
  <ele>-0.096</ele>
  <time>2026-09-02T22:07:22Z</time>
  <course>186.26</course>
  <speed>0.7283543093852057</speed>
  <fix>3d</fix>
</trkpt>
<trkpt lat="33.810133" lon="-118.3940709">
  <ele>-0.096</ele>
  <time>2026-09-02T22:07:22Z</time>
  <course>186.26</course>
  <speed>0.7283543093852057</speed>
  <fix>3d</fix>
</trkpt>
<trkpt lat="33.810133" lon="-118.3940709">
  <ele>-0.096</ele>
  <time>2026-09-02T22:07:22Z</time>
  <course>186.26</course>
  <speed>0.7283543093852057</speed>
  <fix>3d</fix>
</trkpt>
<trkpt lat="33.8101335" lon="-118.3940699">
  <ele>-0.1</ele>
  <time>2026-09-02T22:07:22Z</time>
  <course>223.26</course>
  <speed>0.73</speed>
  <fix>3d</fix>
</trkpt>
<trkpt lat="33.810133" lon="-118.3940709">
  <ele>-0.096</ele>
  <time>2026-09-02T22:07:22Z</time>
  <course>186.26</course>
  <speed>0.7283543093852057</speed>
  <fix>3d</fix>
</trkpt>
<trkpt lat="33.8101329" lon="-118.394071">
  <ele>-0.095</ele>
  <time>2026-09-02T22:07:22Z</time>
  <course>186.26</course>
  <speed>0.7283543093852057</speed>
  <fix>3d</fix>
</trkpt>
<trkpt lat="33.8101329" lon="-118.3940711">
  <ele>-0.095</ele>
  <time>2026-09-02T22:07:22Z</time>
  <course>186.26</course>
  <speed>0.7283543093852057</speed>
  <fix>3d</fix>
</trkpt>
<trkpt lat="33.8101328" lon="-118.3940711">
  <ele>-0.095</ele>
  <time>2026-09-02T22:07:22Z</time>
  <course>186.26</course>
  <speed>0.7283543093852057</speed>
  <fix>3d</fix>
</trkpt>
<trkpt lat="33.8101328" lon="-118.3940711">
  <ele>-0.095</ele>
  <time>2026-09-02T22:07:22Z</time>
  <course>186.26</course>
  <speed>0.7283543093852057</speed>
  <fix>3d</fix>
</trkpt>
<trkpt lat="33.8101327" lon="-118.3940712">
  <ele>-0.095</ele>
  <time>2026-09-02T22:07:22Z</time>
  <course>186.26</course>
  <speed>0.7283543093852057</speed>
  <fix>3d</fix>
</trkpt>
<trkpt lat="33.8101327" lon="-118.3940712">
  <ele>-0.095</ele>
  <time>2026-09-02T22:07:22Z</time>
  <course>186.26</course>
  <speed>0.7283543093852057</speed>
  <fix>3d</fix>
</trkpt>
<trkpt lat="33.8101326" lon="-118.3940713">
  <ele>-0.095</ele>
  <time>2026-09-02T22:07:22Z</time>
  <course>186.26</course>
  <speed>0.7283543093852057</speed>
  <fix>3d</fix>
</trkpt>
<trkpt lat="33.8101326" lon="-118.3940713">
  <ele>-0.095</ele>
  <time>2026-09-02T22:07:22Z</time>
  <course>186.26</course>
  <speed>0.7283543093852057</speed>
  <fix>3d</fix>
</trkpt>
<trkpt lat="33.8101326" lon="-118.3940714">
  <ele>-0.095</ele>
  <time>2026-09-02T22:07:22Z</time>
  <course>186.26</course>
  <speed>0.7283543093852057</speed>
  <fix>3d</fix>
</trkpt>
<trkpt lat="33.8101325" lon="-118.3940714">
  <ele>-0.095</ele>
  <time>2026-09-02T22:07:22Z</time>
  <course>186.26</course>
  <speed>0.7283543093852057</speed>
  <fix>3d</fix>
</trkpt>
<trkpt lat="33.8101325" lon="-118.3940714">
  <ele>-0.095</ele>
  <time>2026-09-02T22:07:22Z</time>
  <course>186.26</course>
  <speed>0.7283543093852057</speed>
  <fix>3d</fix>
</trkpt>
<trkpt lat="33.8101335" lon="-118.3940699">
  <ele>-0.1</ele>
  <time>2026-09-02T22:07:22Z</time>
  <course>223.26</course>
  <speed>0.73</speed>
  <fix>3d</fix>
</trkpt>
<trkpt lat="33.8101324" lon="-118.3940715">
  <ele>-0.095</ele>
  <time>2026-09-02T22:07:22Z</time>
  <course>186.26</course>
  <speed>0.7283543093852057</speed>
  <fix>3d</fix>
</trkpt>
<trkpt lat="33.8101324" lon="-118.3940716">
  <ele>-0.095</ele>
  <time>2026-09-02T22:07:22Z</time>
  <course>186.26</course>
  <speed>0.7283543093852057</speed>
  <fix>3d</fix>
</trkpt>
<trkpt lat="33.8101323" lon="-118.3940716">
  <ele>-0.095</ele>
  <time>2026-09-02T22:07:22Z</time>
  <course>186.26</course>
  <speed>0.7283543093852057</speed>
  <fix>3d</fix>
</trkpt>
<trkpt lat="33.8101323" lon="-118.3940717">
  <ele>-0.096</ele>
  <time>2026-09-02T22:07:22Z</time>
  <course>186.26</course>
  <speed>0.7283543093852057</speed>
  <fix>3d</fix>
</trkpt>
<trkpt lat="33.8101322" lon="-118.3940718">
  <ele>-0.096</ele>
  <time>2026-09-02T22:07:22Z</time>
  <course>186.26</course>
  <speed>0.7283543093852057</speed>
  <fix>3d</fix>
</trkpt>
<trkpt lat="33.8101322" lon="-118.3940718">
  <ele>-0.096</ele>
  <time>2026-09-02T22:07:22Z</time>
  <course>186.26</course>
  <speed>0.7283543093852057</speed>
  <fix>3d</fix>
</trkpt>
<trkpt lat="33.8101322" lon="-118.3940718">
  <ele>-0.096</ele>
  <time>2026-09-02T22:07:22Z</time>
  <course>186.26</course>
  <speed>0.7283543093852057</speed>
  <fix>3d</fix>
</trkpt>
<trkpt lat="33.8101321" lon="-118.3940719">
  <ele>-0.096</ele>
  <time>2026-09-02T22:07:22Z</time>
  <course>186.26</course>
  <speed>0.7283543093852057</speed>
  <fix>3d</fix>
</trkpt>
<trkpt lat="33.8101321" lon="-118.3940719">
  <ele>-0.096</ele>
  <time>2026-09-02T22:07:22Z</time>
  <course>186.26</course>
  <speed>0.7283543093852057</speed>
  <fix>3d</fix>
</trkpt>
<trkpt lat="33.810132" lon="-118.394072">
  <ele>-0.096</ele>
  <time>2026-09-02T22:07:22Z</time>
  <course>186.26</course>
  <speed>0.7283543093852057</speed>
  <fix>3d</fix>
</trkpt>
<trkpt lat="33.810132" lon="-118.394072">
  <ele>-0.096</ele>
  <time>2026-09-02T22:07:22Z</time>
  <course>186.26</course>
  <speed>0.7283543093852057</speed>
  <fix>3d</fix>
</trkpt>
<trkpt lat="33.8101325" lon="-118.394071">
  <ele>-0.1</ele>
  <time>2026-09-02T22:07:22Z</time>
  <course>223.26</course>
  <speed>0.73</speed>
  <fix>3d</fix>
</trkpt>
<trkpt lat="33.8101319" lon="-118.3940721">
  <ele>-0.097</ele>
  <time>2026-09-02T22:07:22Z</time>
  <course>186.26</course>
  <speed>0.7283543093852057</speed>
  <fix>3d</fix>
</trkpt>
<trkpt lat="33.8101319" lon="-118.3940721">
  <ele>-0.097</ele>
  <time>2026-09-02T22:07:22Z</time>
  <course>186.26</course>
  <speed>0.7283543093852057</speed>
  <fix>3d</fix>
</trkpt>
<trkpt lat="33.8101319" lon="-118.3940722">
  <ele>-0.097</ele>
  <time>2026-09-02T22:07:22Z</time>
  <course>186.26</course>
  <speed>0.7283543093852057</speed>
  <fix>3d</fix>
</trkpt>
<trkpt lat="33.8101318" lon="-118.3940722">
  <ele>-0.097</ele>
  <time>2026-09-02T22:07:22Z</time>
  <course>186.26</course>
  <speed>0.7283543093852057</speed>
  <fix>3d</fix>
</trkpt>
<trkpt lat="33.8101318" lon="-118.3940723">
  <ele>-0.097</ele>
  <time>2026-09-02T22:07:22Z</time>
  <course>186.26</course>
  <speed>0.7283543093852057</speed>
  <fix>3d</fix>
</trkpt>
<trkpt lat="33.8101317" lon="-118.3940723">
  <ele>-0.098</ele>
  <time>2026-09-02T22:07:22Z</time>
  <course>186.26</course>
  <speed>0.7283543093852057</speed>
  <fix>3d</fix>
</trkpt>
<trkpt lat="33.8101317" lon="-118.3940724">
  <ele>-0.098</ele>
  <time>2026-09-02T22:07:22Z</time>
  <course>186.26</course>
  <speed>0.7283543093852057</speed>
  <fix>3d</fix>
</trkpt>
<trkpt lat="33.8101316" lon="-118.3940724">
  <ele>-0.098</ele>
  <time>2026-09-02T22:07:22Z</time>
  <course>186.26</course>
  <speed>0.7283543093852057</speed>
  <fix>3d</fix>
</trkpt>
<trkpt lat="33.8101316" lon="-118.3940725">
  <ele>-0.098</ele>
  <time>2026-09-02T22:07:22Z</time>
  <course>186.26</course>
  <speed>0.7283543093852057</speed>
  <fix>3d</fix>
</trkpt>
<trkpt lat="33.8101316" lon="-118.3940725">
  <ele>-0.098</ele>
  <time>2026-09-02T22:07:22Z</time>
  <course>186.26</course>
  <speed>0.7283543093852057</speed>
  <fix>3d</fix>
</trkpt>
<trkpt lat="33.8101325" lon="-118.394071">
  <ele>-0.1</ele>
  <time>2026-09-02T22:07:22Z</time>
  <course>223.26</course>
  <speed>0.73</speed>
  <fix>3d</fix>
</trkpt>
<trkpt lat="33.8101316" lon="-118.3940725">
  <ele>-0.098</ele>
  <time>2026-09-02T22:07:22Z</time>
  <course>186.26</course>
  <speed>0.7283543093852057</speed>
  <fix>3d</fix>
</trkpt>
<trkpt lat="33.8101315" lon="-118.3940726">
  <ele>-0.099</ele>
  <time>2026-09-02T22:07:22Z</time>
  <course>186.26</course>
  <speed>0.7283543093852057</speed>
  <fix>3d</fix>
</trkpt>
<trkpt lat="33.8101314" lon="-118.3940726">
  <ele>-0.099</ele>
  <time>2026-09-02T22:07:22Z</time>
  <course>186.26</course>
  <speed>0.7283543093852057</speed>
  <fix>3d</fix>
</trkpt>
<trkpt lat="33.8101314" lon="-118.3940727">
  <ele>-0.099</ele>
  <time>2026-09-02T22:07:22Z</time>
  <course>186.26</course>
  <speed>0.7283543093852057</speed>
  <fix>3d</fix>
</trkpt>
<trkpt lat="33.8101314" lon="-118.3940727">
  <ele>-0.099</ele>
  <time>2026-09-02T22:07:22Z</time>
  <course>186.26</course>
  <speed>0.7283543093852057</speed>
  <fix>3d</fix>
</trkpt>
<trkpt lat="33.8101313" lon="-118.3940728">
  <ele>-0.099</ele>
  <time>2026-09-02T22:07:22Z</time>
  <course>186.26</course>
  <speed>0.7283543093852057</speed>
  <fix>3d</fix>
</trkpt>
<trkpt lat="33.8101313" lon="-118.3940728">
  <ele>-0.099</ele>
  <time>2026-09-02T22:07:22Z</time>
  <course>186.26</course>
  <speed>0.7283543093852057</speed>
  <fix>3d</fix>
</trkpt>
<trkpt lat="33.8101313" lon="-118.3940729">
  <ele>-0.1</ele>
  <time>2026-09-02T22:07:22Z</time>
  <course>186.26</course>
  <speed>0.7283543093852057</speed>
  <fix>3d</fix>
</trkpt>
<trkpt lat="33.8101312" lon="-118.3940729">
  <ele>-0.1</ele>
  <time>2026-09-02T22:07:22Z</time>
  <course>186.26</course>
  <speed>0.7283543093852057</speed>
  <fix>3d</fix>
</trkpt>
<trkpt lat="33.8101312" lon="-118.394073">
  <ele>-0.1</ele>
  <time>2026-09-02T22:07:22Z</time>
  <course>186.26</course>
  <speed>0.7283543093852057</speed>
  <fix>3d</fix>
</trkpt>
<trkpt lat="33.8101311" lon="-118.394073">
  <ele>-0.1</ele>
  <time>2026-09-02T22:07:22Z</time>
  <course>186.26</course>
  <speed>0.7283543093852057</speed>
  <fix>3d</fix>
</trkpt>
<trkpt lat="33.8101311" lon="-118.394073">
  <ele>-0.1</ele>
  <time>2026-09-02T22:07:22Z</time>
  <course>186.26</course>
  <speed>0.7283543093852057</speed>
  <fix>3d</fix>
</trkpt>
<trkpt lat="33.8101311" lon="-118.3940731">
  <ele>-0.1</ele>
  <time>2026-09-02T22:07:22Z</time>
  <course>186.26</course>
  <speed>0.7283543093852057</speed>
  <fix>3d</fix>
</trkpt>
<trkpt lat="33.8101316" lon="-118.3940721">
  <ele>-0.1</ele>
  <time>2026-09-02T22:07:22Z</time>
  <course>223.26</course>
  <speed>0.73</speed>
  <fix>3d</fix>
</trkpt>
<trkpt lat="33.8101311" lon="-118.3940731">
  <ele>-0.1</ele>
  <time>2026-09-02T22:07:22Z</time>
  <course>186.26</course>
  <speed>0.7283543093852057</speed>
  <fix>3d</fix>
</trkpt>
<trkpt lat="33.810131" lon="-118.3940731">
  <ele>-0.101</ele>
  <time>2026-09-02T22:07:22Z</time>
  <course>186.26</course>
  <speed>0.7283543093852057</speed>
  <fix>3d</fix>
</trkpt>
<trkpt lat="33.810131" lon="-118.3940732">
  <ele>-0.101</ele>
  <time>2026-09-02T22:07:22Z</time>
  <course>186.26</course>
  <speed>0.7283543093852057</speed>
  <fix>3d</fix>
</trkpt>
<trkpt lat="33.8101309" lon="-118.3940732">
  <ele>-0.101</ele>
  <time>2026-09-02T22:07:22Z</time>
  <course>186.26</course>
  <speed>0.7283543093852057</speed>
  <fix>3d</fix>
</trkpt>
<trkpt lat="33.8101309" lon="-118.3940733">
  <ele>-0.101</ele>
  <time>2026-09-02T22:07:22Z</time>
  <course>186.26</course>
  <speed>0.7283543093852057</speed>
  <fix>3d</fix>
</trkpt>
<trkpt lat="33.8101308" lon="-118.3940733">
  <ele>-0.101</ele>
  <time>2026-09-02T22:07:22Z</time>
  <course>186.26</course>
  <speed>0.7283543093852057</speed>
  <fix>3d</fix>
</trkpt>
<trkpt lat="33.8101308" lon="-118.3940734">
  <ele>-0.101</ele>
  <time>2026-09-02T22:07:22Z</time>
  <course>186.26</course>
  <speed>0.7283543093852057</speed>
  <fix>3d</fix>
</trkpt>
<trkpt lat="33.8101308" lon="-118.3940734">
  <ele>-0.102</ele>
  <time>2026-09-02T22:07:22Z</time>
  <course>186.26</course>
  <speed>0.7283543093852057</speed>
  <fix>3d</fix>
</trkpt>
<trkpt lat="33.8101307" lon="-118.3940735">
  <ele>-0.102</ele>
  <time>2026-09-02T22:07:22Z</time>
  <course>186.26</course>
  <speed>0.7283543093852057</speed>
  <fix>3d</fix>
</trkpt>
<trkpt lat="33.8101307" lon="-118.3940735">
  <ele>-0.102</ele>
  <time>2026-09-02T22:07:22Z</time>
  <course>186.26</course>
  <speed>0.7283543093852057</speed>
  <fix>3d</fix>
</trkpt>
<trkpt lat="33.8101307" lon="-118.3940735">
  <ele>-0.102</ele>
  <time>2026-09-02T22:07:22Z</time>
  <course>186.26</course>
  <speed>0.7283543093852057</speed>
  <fix>3d</fix>
</trkpt>
<trkpt lat="33.8101306" lon="-118.3940736">
  <ele>-0.102</ele>
  <time>2026-09-02T22:07:22Z</time>
  <course>186.26</course>
  <speed>0.7283543093852057</speed>
  <fix>3d</fix>
</trkpt>
<trkpt lat="33.8101306" lon="-118.3940736">
  <ele>-0.102</ele>
  <time>2026-09-02T22:07:22Z</time>
  <course>186.26</course>
  <speed>0.7283543093852057</speed>
  <fix>3d</fix>
</trkpt>
<trkpt lat="33.8101316" lon="-118.3940721">
  <ele>-0.1</ele>
  <time>2026-09-02T22:07:22Z</time>
  <course>223.26</course>
  <speed>0.73</speed>
  <fix>3d</fix>
</trkpt>
<trkpt lat="33.8101306" lon="-118.3940736">
  <ele>-0.102</ele>
  <time>2026-09-02T22:07:22Z</time>
  <course>186.26</course>
  <speed>0.7283543093852057</speed>
  <fix>3d</fix>
</trkpt>
<trkpt lat="33.8101305" lon="-118.3940737">
  <ele>-0.103</ele>
  <time>2026-09-02T22:07:22Z</time>
  <course>186.26</course>
  <speed>0.7283543093852057</speed>
  <fix>3d</fix>
</trkpt>
<trkpt lat="33.8101305" lon="-118.3940737">
  <ele>-0.103</ele>
  <time>2026-09-02T22:07:22Z</time>
  <course>186.26</course>
  <speed>0.7283543093852057</speed>
  <fix>3d</fix>
</trkpt>
<trkpt lat="33.8101304" lon="-118.3940738">
  <ele>-0.103</ele>
  <time>2026-09-02T22:07:22Z</time>
  <course>186.26</course>
  <speed>0.7283543093852057</speed>
  <fix>3d</fix>
</trkpt>
<trkpt lat="33.8101304" lon="-118.3940738">
  <ele>-0.103</ele>
  <time>2026-09-02T22:07:22Z</time>
  <course>186.26</course>
  <speed>0.7283543093852057</speed>
  <fix>3d</fix>
</trkpt>
<trkpt lat="33.8101304" lon="-118.3940739">
  <ele>-0.103</ele>
  <time>2026-09-02T22:07:22Z</time>
  <course>186.26</course>
  <speed>0.7283543093852057</speed>
  <fix>3d</fix>
</trkpt>
<trkpt lat="33.8101303" lon="-118.3940739">
  <ele>-0.103</ele>
  <time>2026-09-02T22:07:22Z</time>
  <course>186.26</course>
  <speed>0.7283543093852057</speed>
  <fix>3d</fix>
</trkpt>
<trkpt lat="33.8101303" lon="-118.394074">
  <ele>-0.103</ele>
  <time>2026-09-02T22:07:22Z</time>
  <course>186.26</course>
  <speed>0.7283543093852057</speed>
  <fix>3d</fix>
</trkpt>
<trkpt lat="33.8101302" lon="-118.394074">
  <ele>-0.103</ele>
  <time>2026-09-02T22:07:22Z</time>
  <course>186.25</course>
  <speed>0.7283543093852057</speed>
  <fix>3d</fix>
</trkpt>
<trkpt lat="33.8101302" lon="-118.3940741">
  <ele>-0.103</ele>
  <time>2026-09-02T22:07:22Z</time>
  <course>186.25</course>
  <speed>0.7283543093852057</speed>
  <fix>3d</fix>
</trkpt>
<trkpt lat="33.8101302" lon="-118.3940741">
  <ele>-0.103</ele>
  <time>2026-09-02T22:07:22Z</time>
  <course>186.25</course>
  <speed>0.7283543093852057</speed>
  <fix>3d</fix>
</trkpt>
<trkpt lat="33.8101301" lon="-118.3940741">
  <ele>-0.103</ele>
  <time>2026-09-02T22:07:22Z</time>
  <course>186.25</course>
  <speed>0.7283543093852057</speed>
  <fix>3d</fix>
</trkpt>
<trkpt lat="33.8101301" lon="-118.3940741">
  <ele>-0.103</ele>
  <time>2026-09-02T22:07:22Z</time>
  <course>186.25</course>
  <speed>0.7283543093852057</speed>
  <fix>3d</fix>
</trkpt>
<trkpt lat="33.8101305" lon="-118.3940732">
  <ele>-0.1</ele>
  <time>2026-09-02T22:07:22Z</time>
  <course>223.26</course>
  <speed>0.73</speed>
  <fix>3d</fix>
</trkpt>
<trkpt lat="33.81013" lon="-118.3940743">
  <ele>-0.103</ele>
  <time>2026-09-02T22:07:22Z</time>
  <course>186.25</course>
  <speed>0.7283543093852057</speed>
  <fix>3d</fix>
</trkpt>
<trkpt lat="33.81013" lon="-118.3940743">
  <ele>-0.103</ele>
  <time>2026-09-02T22:07:22Z</time>
  <course>186.25</course>
  <speed>0.7283543093852057</speed>
  <fix>3d</fix>
</trkpt>
<trkpt lat="33.8101299" lon="-118.3940744">
  <ele>-0.104</ele>
  <time>2026-09-02T22:07:22Z</time>
  <course>186.25</course>
  <speed>0.7283543093852057</speed>
  <fix>3d</fix>
</trkpt>
<trkpt lat="33.8101299" lon="-118.3940744">
  <ele>-0.103</ele>
  <time>2026-09-02T22:07:22Z</time>
  <course>186.26</course>
  <speed>0.7283543093852057</speed>
  <fix>3d</fix>
</trkpt>
<trkpt lat="33.8101298" lon="-118.3940745">
  <ele>-0.104</ele>
  <time>2026-09-02T22:07:22Z</time>
  <course>186.25</course>
  <speed>0.7283543093852057</speed>
  <fix>3d</fix>
</trkpt>
<trkpt lat="33.8101298" lon="-118.3940745">
  <ele>-0.104</ele>
  <time>2026-09-02T22:07:22Z</time>
  <course>186.25</course>
  <speed>0.7283543093852057</speed>
  <fix>3d</fix>
</trkpt>
<trkpt lat="33.8101298" lon="-118.3940746">
  <ele>-0.104</ele>
  <time>2026-09-02T22:07:22Z</time>
  <course>186.25</course>
  <speed>0.7283543093852057</speed>
  <fix>3d</fix>
</trkpt>
<trkpt lat="33.8101297" lon="-118.3940746">
  <ele>-0.103</ele>
  <time>2026-09-02T22:07:22Z</time>
  <course>186.25</course>
  <speed>0.7283543093852057</speed>
  <fix>3d</fix>
</trkpt>
<trkpt lat="33.8101297" lon="-118.3940746">
  <ele>-0.104</ele>
  <time>2026-09-02T22:07:22Z</time>
  <course>186.25</course>
  <speed>0.7283543093852057</speed>
  <fix>3d</fix>
</trkpt>
<trkpt lat="33.8101297" lon="-118.3940747">
  <ele>-0.103</ele>
  <time>2026-09-02T22:07:22Z</time>
  <course>186.25</course>
  <speed>0.7283543093852057</speed>
  <fix>3d</fix>
</trkpt>
<trkpt lat="33.8101296" lon="-118.3940747">
  <ele>-0.103</ele>
  <time>2026-09-02T22:07:22Z</time>
  <course>186.25</course>
  <speed>0.7283543093852057</speed>
  <fix>3d</fix>
</trkpt>
<trkpt lat="33.8101305" lon="-118.3940732">
  <ele>-0.1</ele>
  <time>2026-09-02T22:07:22Z</time>
  <course>223.26</course>
  <speed>0.73</speed>
  <fix>3d</fix>
</trkpt>
<trkpt lat="33.8101296" lon="-118.3940747">
  <ele>-0.103</ele>
  <time>2026-09-02T22:07:22Z</time>
  <course>186.25</course>
  <speed>0.7283543093852057</speed>
  <fix>3d</fix>
</trkpt>
<trkpt lat="33.8101295" lon="-118.3940748">
  <ele>-0.103</ele>
  <time>2026-09-02T22:07:22Z</time>
  <course>186.25</course>
  <speed>0.7283543093852057</speed>
  <fix>3d</fix>
</trkpt>
<trkpt lat="33.8101295" lon="-118.3940749">
  <ele>-0.103</ele>
  <time>2026-09-02T22:07:22Z</time>
  <course>186.25</course>
  <speed>0.7283543093852057</speed>
  <fix>3d</fix>
</trkpt>
<trkpt lat="33.8101294" lon="-118.3940749">
  <ele>-0.103</ele>
  <time>2026-09-02T22:07:22Z</time>
  <course>186.25</course>
  <speed>0.7283543093852057</speed>
  <fix>3d</fix>
</trkpt>
<trkpt lat="33.8101294" lon="-118.394075">
  <ele>-0.104</ele>
  <time>2026-09-02T22:07:22Z</time>
  <course>186.25</course>
  <speed>0.7283543093852057</speed>
  <fix>3d</fix>
</trkpt>
<trkpt lat="33.8101294" lon="-118.394075">
  <ele>-0.104</ele>
  <time>2026-09-02T22:07:22Z</time>
  <course>186.25</course>
  <speed>0.7283543093852057</speed>
  <fix>3d</fix>
</trkpt>
<trkpt lat="33.8101293" lon="-118.3940751">
  <ele>-0.104</ele>
  <time>2026-09-02T22:07:22Z</time>
  <course>186.25</course>
  <speed>0.7283543093852057</speed>
  <fix>3d</fix>
</trkpt>
<trkpt lat="33.8101293" lon="-118.3940751">
  <ele>-0.104</ele>
  <time>2026-09-02T22:07:22Z</time>
  <course>186.25</course>
  <speed>0.7283543093852057</speed>
  <fix>3d</fix>
</trkpt>
<trkpt lat="33.8101292" lon="-118.3940752">
  <ele>-0.104</ele>
  <time>2026-09-02T22:07:22Z</time>
  <course>186.25</course>
  <speed>0.7283543093852057</speed>
  <fix>3d</fix>
</trkpt>
<trkpt lat="33.8101292" lon="-118.3940752">
  <ele>-0.104</ele>
  <time>2026-09-02T22:07:22Z</time>
  <course>186.25</course>
  <speed>0.7283543093852057</speed>
  <fix>3d</fix>
</trkpt>
<trkpt lat="33.8101292" lon="-118.3940752">
  <ele>-0.104</ele>
  <time>2026-09-02T22:07:22Z</time>
  <course>186.25</course>
  <speed>0.7283543093852057</speed>
  <fix>3d</fix>
</trkpt>
<trkpt lat="33.8101296" lon="-118.3940743">
  <ele>-0.11</ele>
  <time>2026-09-02T22:07:22Z</time>
  <course>223.26</course>
  <speed>0.73</speed>
  <fix>3d</fix>
</trkpt>
<trkpt lat="33.8101291" lon="-118.3940753">
  <ele>-0.104</ele>
  <time>2026-09-02T22:07:22Z</time>
  <course>186.25</course>
  <speed>0.7283543093852057</speed>
  <fix>3d</fix>
</trkpt>
<trkpt lat="33.8101291" lon="-118.3940754">
  <ele>-0.104</ele>
  <time>2026-09-02T22:07:22Z</time>
  <course>186.25</course>
  <speed>0.7283543093852057</speed>
  <fix>3d</fix>
</trkpt>
<trkpt lat="33.810129" lon="-118.3940754">
  <ele>-0.104</ele>
  <time>2026-09-02T22:07:22Z</time>
  <course>186.25</course>
  <speed>0.7283543093852057</speed>
  <fix>3d</fix>
</trkpt>
<trkpt lat="33.810129" lon="-118.3940754">
  <ele>-0.104</ele>
  <time>2026-09-02T22:07:22Z</time>
  <course>186.25</course>
  <speed>0.7283543093852057</speed>
  <fix>3d</fix>
</trkpt>
<trkpt lat="33.8101289" lon="-118.3940755">
  <ele>-0.104</ele>
  <time>2026-09-02T22:07:22Z</time>
  <course>186.25</course>
  <speed>0.7283543093852057</speed>
  <fix>3d</fix>
</trkpt>
<trkpt lat="33.8101289" lon="-118.3940755">
  <ele>-0.104</ele>
  <time>2026-09-02T22:07:22Z</time>
  <course>186.25</course>
  <speed>0.7283543093852057</speed>
  <fix>3d</fix>
</trkpt>
<trkpt lat="33.8101289" lon="-118.3940756">
  <ele>-0.104</ele>
  <time>2026-09-02T22:07:22Z</time>
  <course>186.25</course>
  <speed>0.7283543093852057</speed>
  <fix>3d</fix>
</trkpt>
<trkpt lat="33.8101288" lon="-118.3940756">
  <ele>-0.104</ele>
  <time>2026-09-02T22:07:22Z</time>
  <course>186.25</course>
  <speed>0.7283543093852057</speed>
  <fix>3d</fix>
</trkpt>
<trkpt lat="33.8101288" lon="-118.3940756">
  <ele>-0.104</ele>
  <time>2026-09-02T22:07:22Z</time>
  <course>186.25</course>
  <speed>0.7283543093852057</speed>
  <fix>3d</fix>
</trkpt>
<trkpt lat="33.8101288" lon="-118.3940757">
  <ele>-0.104</ele>
  <time>2026-09-02T22:07:22Z</time>
  <course>186.25</course>
  <speed>0.7283543093852057</speed>
  <fix>3d</fix>
</trkpt>
<trkpt lat="33.8101287" lon="-118.3940757">
  <ele>-0.104</ele>
  <time>2026-09-02T22:07:22Z</time>
  <course>186.25</course>
  <speed>0.7283543093852057</speed>
  <fix>3d</fix>
</trkpt>
<trkpt lat="33.8101287" lon="-118.3940758">
  <ele>-0.104</ele>
  <time>2026-09-02T22:07:22Z</time>
  <course>186.25</course>
  <speed>0.7283543093852057</speed>
  <fix>3d</fix>
</trkpt>
<trkpt lat="33.8101287" lon="-118.3940758">
  <ele>-0.104</ele>
  <time>2026-09-02T22:07:22Z</time>
  <course>186.25</course>
  <speed>0.7283543093852057</speed>
  <fix>3d</fix>
</trkpt>
<trkpt lat="33.8101296" lon="-118.3940743">
  <ele>-0.11</ele>
  <time>2026-09-02T22:07:22Z</time>
  <course>223.26</course>
  <speed>0.73</speed>
  <fix>3d</fix>
</trkpt>
<trkpt lat="33.8101287" lon="-118.3940758">
  <ele>-0.104</ele>
  <time>2026-09-02T22:07:22Z</time>
  <course>186.25</course>
  <speed>0.7283543093852057</speed>
  <fix>3d</fix>
</trkpt>
<trkpt lat="33.8101286" lon="-118.3940759">
  <ele>-0.105</ele>
  <time>2026-09-02T22:07:22Z</time>
  <course>186.25</course>
  <speed>0.7283543093852057</speed>
  <fix>3d</fix>
</trkpt>
<trkpt lat="33.8101286" lon="-118.3940759">
  <ele>-0.105</ele>
  <time>2026-09-02T22:07:22Z</time>
  <course>186.25</course>
  <speed>0.7283543093852057</speed>
  <fix>3d</fix>
</trkpt>
<trkpt lat="33.8101285" lon="-118.394076">
  <ele>-0.105</ele>
  <time>2026-09-02T22:07:22Z</time>
  <course>186.25</course>
  <speed>0.7283543093852057</speed>
  <fix>3d</fix>
</trkpt>
<trkpt lat="33.8101285" lon="-118.394076">
  <ele>-0.105</ele>
  <time>2026-09-02T22:07:22Z</time>
  <course>186.25</course>
  <speed>0.7283543093852057</speed>
  <fix>3d</fix>
</trkpt>
<trkpt lat="33.8101284" lon="-118.3940761">
  <ele>-0.105</ele>
  <time>2026-09-02T22:07:22Z</time>
  <course>186.25</course>
  <speed>0.7283543093852057</speed>
  <fix>3d</fix>
</trkpt>
<trkpt lat="33.8101284" lon="-118.3940761">
  <ele>-0.105</ele>
  <time>2026-09-02T22:07:22Z</time>
  <course>186.25</course>
  <speed>0.7283543093852057</speed>
  <fix>3d</fix>
</trkpt>
<trkpt lat="33.8101283" lon="-118.3940762">
  <ele>-0.105</ele>
  <time>2026-09-02T22:07:22Z</time>
  <course>186.25</course>
  <speed>0.7283543093852057</speed>
  <fix>3d</fix>
</trkpt>
<trkpt lat="33.8101283" lon="-118.3940762">
  <ele>-0.105</ele>
  <time>2026-09-02T22:07:22Z</time>
  <course>186.25</course>
  <speed>0.7283543093852057</speed>
  <fix>3d</fix>
</trkpt>
<trkpt lat="33.8101283" lon="-118.3940762">
  <ele>-0.105</ele>
  <time>2026-09-02T22:07:22Z</time>
  <course>186.25</course>
  <speed>0.7283543093852057</speed>
  <fix>3d</fix>
</trkpt>
<trkpt lat="33.8101282" lon="-118.3940763">
  <ele>-0.105</ele>
  <time>2026-09-02T22:07:22Z</time>
  <course>186.25</course>
  <speed>0.7283543093852057</speed>
  <fix>3d</fix>
</trkpt>
<trkpt lat="33.8101282" lon="-118.3940763">
  <ele>-0.106</ele>
  <time>2026-09-02T22:07:22Z</time>
  <course>186.25</course>
  <speed>0.7283543093852057</speed>
  <fix>3d</fix>
</trkpt>
<trkpt lat="33.8101282" lon="-118.3940763">
  <ele>-0.106</ele>
  <time>2026-09-02T22:07:22Z</time>
  <course>186.25</course>
  <speed>0.7283543093852057</speed>
  <fix>3d</fix>
</trkpt>
<trkpt lat="33.8101287" lon="-118.3940754">
  <ele>-0.1</ele>
  <time>2026-09-02T22:07:22Z</time>
  <course>223.26</course>
  <speed>0.73</speed>
  <fix>3d</fix>
</trkpt>
<trkpt lat="33.8101282" lon="-118.3940763">
  <ele>-0.106</ele>
  <time>2026-09-02T22:07:22Z</time>
  <course>186.25</course>
  <speed>0.7283543093852057</speed>
  <fix>3d</fix>
</trkpt>
<trkpt lat="33.8101281" lon="-118.3940764">
  <ele>-0.106</ele>
  <time>2026-09-02T22:07:22Z</time>
  <course>186.25</course>
  <speed>0.7283543093852057</speed>
  <fix>3d</fix>
</trkpt>
<trkpt lat="33.810128" lon="-118.3940765">
  <ele>-0.106</ele>
  <time>2026-09-02T22:07:22Z</time>
  <course>186.25</course>
  <speed>0.7283543093852057</speed>
  <fix>3d</fix>
</trkpt>
<trkpt lat="33.810128" lon="-118.3940766">
  <ele>-0.106</ele>
  <time>2026-09-02T22:07:22Z</time>
  <course>186.25</course>
  <speed>0.7283543093852057</speed>
  <fix>3d</fix>
</trkpt>
<trkpt lat="33.8101279" lon="-118.3940766">
  <ele>-0.106</ele>
  <time>2026-09-02T22:07:22Z</time>
  <course>186.25</course>
  <speed>0.7283543093852057</speed>
  <fix>3d</fix>
</trkpt>
<trkpt lat="33.8101279" lon="-118.3940767">
  <ele>-0.106</ele>
  <time>2026-09-02T22:07:22Z</time>
  <course>186.25</course>
  <speed>0.7283543093852057</speed>
  <fix>3d</fix>
</trkpt>
<trkpt lat="33.8101279" lon="-118.3940767">
  <ele>-0.106</ele>
  <time>2026-09-02T22:07:22Z</time>
  <course>186.25</course>
  <speed>0.7283543093852057</speed>
  <fix>3d</fix>
</trkpt>
<trkpt lat="33.8101278" lon="-118.3940767">
  <ele>-0.107</ele>
  <time>2026-09-02T22:07:22Z</time>
  <course>186.25</course>
  <speed>0.7283543093852057</speed>
  <fix>3d</fix>
</trkpt>
<trkpt lat="33.8101278" lon="-118.3940768">
  <ele>-0.107</ele>
  <time>2026-09-02T22:07:22Z</time>
  <course>186.25</course>
  <speed>0.7283543093852057</speed>
  <fix>3d</fix>
</trkpt>
<trkpt lat="33.8101278" lon="-118.3940768">
  <ele>-0.107</ele>
  <time>2026-09-02T22:07:22Z</time>
  <course>186.25</course>
  <speed>0.7283543093852057</speed>
  <fix>3d</fix>
</trkpt>
<trkpt lat="33.8101277" lon="-118.3940769">
  <ele>-0.107</ele>
  <time>2026-09-02T22:07:22Z</time>
  <course>186.25</course>
  <speed>0.7283543093852057</speed>
  <fix>3d</fix>
</trkpt>
<trkpt lat="33.8101277" lon="-118.3940769">
  <ele>-0.107</ele>
  <time>2026-09-02T22:07:22Z</time>
  <course>186.25</course>
  <speed>0.7283543093852057</speed>
  <fix>3d</fix>
</trkpt>
<trkpt lat="33.8101287" lon="-118.3940754">
  <ele>-0.1</ele>
  <time>2026-09-02T22:07:22Z</time>
  <course>223.26</course>
  <speed>0.73</speed>
  <fix>3d</fix>
</trkpt>
<trkpt lat="33.8101277" lon="-118.3940769">
  <ele>-0.107</ele>
  <time>2026-09-02T22:07:22Z</time>
  <course>186.25</course>
  <speed>0.7283543093852057</speed>
  <fix>3d</fix>
</trkpt>
<trkpt lat="33.8101276" lon="-118.394077">
  <ele>-0.107</ele>
  <time>2026-09-02T22:07:22Z</time>
  <course>186.25</course>
  <speed>0.7283543093852057</speed>
  <fix>3d</fix>
</trkpt>
<trkpt lat="33.8101276" lon="-118.394077">
  <ele>-0.107</ele>
  <time>2026-09-02T22:07:22Z</time>
  <course>186.25</course>
  <speed>0.7283543093852057</speed>
  <fix>3d</fix>
</trkpt>
<trkpt lat="33.8101275" lon="-118.3940771">
  <ele>-0.108</ele>
  <time>2026-09-02T22:07:22Z</time>
  <course>186.25</course>
  <speed>0.7283543093852057</speed>
  <fix>3d</fix>
</trkpt>
<trkpt lat="33.8101275" lon="-118.3940771">
  <ele>-0.108</ele>
  <time>2026-09-02T22:07:22Z</time>
  <course>186.25</course>
  <speed>0.7283543093852057</speed>
  <fix>3d</fix>
</trkpt>
<trkpt lat="33.8101275" lon="-118.3940772">
  <ele>-0.108</ele>
  <time>2026-09-02T22:07:22Z</time>
  <course>186.25</course>
  <speed>0.7283543093852057</speed>
  <fix>3d</fix>
</trkpt>
<trkpt lat="33.8101274" lon="-118.3940772">
  <ele>-0.108</ele>
  <time>2026-09-02T22:07:22Z</time>
  <course>186.25</course>
  <speed>0.7283543093852057</speed>
  <fix>3d</fix>
</trkpt>
<trkpt lat="33.8101274" lon="-118.3940773">
  <ele>-0.108</ele>
  <time>2026-09-02T22:07:22Z</time>
  <course>186.25</course>
  <speed>0.7283543093852057</speed>
  <fix>3d</fix>
</trkpt>
<trkpt lat="33.8101273" lon="-118.3940773">
  <ele>-0.108</ele>
  <time>2026-09-02T22:07:22Z</time>
  <course>186.25</course>
  <speed>0.7283543093852057</speed>
  <fix>3d</fix>
</trkpt>
<trkpt lat="33.8101273" lon="-118.3940773">
  <ele>-0.108</ele>
  <time>2026-09-02T22:07:22Z</time>
  <course>186.25</course>
  <speed>0.7283543093852057</speed>
  <fix>3d</fix>
</trkpt>
<trkpt lat="33.8101273" lon="-118.3940774">
  <ele>-0.108</ele>
  <time>2026-09-02T22:07:22Z</time>
  <course>186.25</course>
  <speed>0.7283543093852057</speed>
  <fix>3d</fix>
</trkpt>
<trkpt lat="33.8101272" lon="-118.3940774">
  <ele>-0.108</ele>
  <time>2026-09-02T22:07:22Z</time>
  <course>186.25</course>
  <speed>0.7283543093852057</speed>
  <fix>3d</fix>
</trkpt>
<trkpt lat="33.8101276" lon="-118.3940765">
  <ele>-0.1</ele>
  <time>2026-09-02T22:07:22Z</time>
  <course>223.26</course>
  <speed>0.73</speed>
  <fix>3d</fix>
</trkpt>
<trkpt lat="33.8101272" lon="-118.3940774">
  <ele>-0.108</ele>
  <time>2026-09-02T22:07:22Z</time>
  <course>186.25</course>
  <speed>0.7283543093852057</speed>
  <fix>3d</fix>
</trkpt>
<trkpt lat="33.8101272" lon="-118.3940775">
  <ele>-0.108</ele>
  <time>2026-09-02T22:07:22Z</time>
  <course>186.25</course>
  <speed>0.7283543093852057</speed>
  <fix>3d</fix>
</trkpt>
<trkpt lat="33.8101271" lon="-118.3940776">
  <ele>-0.108</ele>
  <time>2026-09-02T22:07:22Z</time>
  <course>186.25</course>
  <speed>0.7283543093852057</speed>
  <fix>3d</fix>
</trkpt>
<trkpt lat="33.8101271" lon="-118.3940776">
  <ele>-0.108</ele>
  <time>2026-09-02T22:07:22Z</time>
  <course>186.25</course>
  <speed>0.7283543093852057</speed>
  <fix>3d</fix>
</trkpt>
<trkpt lat="33.810127" lon="-118.3940777">
  <ele>-0.108</ele>
  <time>2026-09-02T22:07:22Z</time>
  <course>186.25</course>
  <speed>0.7283543093852057</speed>
  <fix>3d</fix>
</trkpt>
<trkpt lat="33.810127" lon="-118.3940777">
  <ele>-0.108</ele>
  <time>2026-09-02T22:07:22Z</time>
  <course>186.25</course>
  <speed>0.7283543093852057</speed>
  <fix>3d</fix>
</trkpt>
<trkpt lat="33.8101269" lon="-118.3940778">
  <ele>-0.108</ele>
  <time>2026-09-02T22:07:22Z</time>
  <course>186.25</course>
  <speed>0.7283543093852057</speed>
  <fix>3d</fix>
</trkpt>
<trkpt lat="33.8101269" lon="-118.3940778">
  <ele>-0.109</ele>
  <time>2026-09-02T22:07:22Z</time>
  <course>186.25</course>
  <speed>0.7283543093852057</speed>
  <fix>3d</fix>
</trkpt>
<trkpt lat="33.8101269" lon="-118.3940778">
  <ele>-0.109</ele>
  <time>2026-09-02T22:07:22Z</time>
  <course>186.25</course>
  <speed>0.7283543093852057</speed>
  <fix>3d</fix>
</trkpt>
<trkpt lat="33.8101268" lon="-118.3940779">
  <ele>-0.109</ele>
  <time>2026-09-02T22:07:22Z</time>
  <course>186.25</course>
  <speed>0.7283543093852057</speed>
  <fix>3d</fix>
</trkpt>
<trkpt lat="33.8101268" lon="-118.3940779">
  <ele>-0.109</ele>
  <time>2026-09-02T22:07:22Z</time>
  <course>186.25</course>
  <speed>0.7283543093852057</speed>
  <fix>3d</fix>
</trkpt>
<trkpt lat="33.8101268" lon="-118.394078">
  <ele>-0.109</ele>
  <time>2026-09-02T22:07:22Z</time>
  <course>186.25</course>
  <speed>0.7283543093852057</speed>
  <fix>3d</fix>
</trkpt>
<trkpt lat="33.8101267" lon="-118.394078">
  <ele>-0.109</ele>
  <time>2026-09-02T22:07:22Z</time>
  <course>186.25</course>
  <speed>0.7283543093852057</speed>
  <fix>3d</fix>
</trkpt>
<trkpt lat="33.8101276" lon="-118.3940765">
  <ele>-0.1</ele>
  <time>2026-09-02T22:07:22Z</time>
  <course>223.26</course>
  <speed>0.73</speed>
  <fix>3d</fix>
</trkpt>
<trkpt lat="33.8101267" lon="-118.394078">
  <ele>-0.109</ele>
  <time>2026-09-02T22:07:22Z</time>
  <course>186.25</course>
  <speed>0.7283543093852057</speed>
  <fix>3d</fix>
</trkpt>
<trkpt lat="33.8101267" lon="-118.3940781">
  <ele>-0.109</ele>
  <time>2026-09-02T22:07:22Z</time>
  <course>186.25</course>
  <speed>0.7283543093852057</speed>
  <fix>3d</fix>
</trkpt>
<trkpt lat="33.8101266" lon="-118.3940781">
  <ele>-0.109</ele>
  <time>2026-09-02T22:07:22Z</time>
  <course>186.25</course>
  <speed>0.7283543093852057</speed>
  <fix>3d</fix>
</trkpt>
<trkpt lat="33.8101266" lon="-118.3940782">
  <ele>-0.109</ele>
  <time>2026-09-02T22:07:22Z</time>
  <course>186.25</course>
  <speed>0.7283543093852057</speed>
  <fix>3d</fix>
</trkpt>
<trkpt lat="33.8101265" lon="-118.3940782">
  <ele>-0.109</ele>
  <time>2026-09-02T22:07:22Z</time>
  <course>186.25</course>
  <speed>0.7283543093852057</speed>
  <fix>3d</fix>
</trkpt>
<trkpt lat="33.8101265" lon="-118.3940783">
  <ele>-0.109</ele>
  <time>2026-09-02T22:07:22Z</time>
  <course>186.25</course>
  <speed>0.7283543093852057</speed>
  <fix>3d</fix>
</trkpt>
<trkpt lat="33.8101264" lon="-118.3940783">
  <ele>-0.109</ele>
  <time>2026-09-02T22:07:22Z</time>
  <course>186.25</course>
  <speed>0.7283543093852057</speed>
  <fix>3d</fix>
</trkpt>
<trkpt lat="33.8101264" lon="-118.3940784">
  <ele>-0.109</ele>
  <time>2026-09-02T22:07:22Z</time>
  <course>186.25</course>
  <speed>0.7283543093852057</speed>
  <fix>3d</fix>
</trkpt>
<trkpt lat="33.8101264" lon="-118.3940784">
  <ele>-0.109</ele>
  <time>2026-09-02T22:07:22Z</time>
  <course>186.25</course>
  <speed>0.7283543093852057</speed>
  <fix>3d</fix>
</trkpt>
<trkpt lat="33.8101263" lon="-118.3940785">
  <ele>-0.109</ele>
  <time>2026-09-02T22:07:22Z</time>
  <course>186.25</course>
  <speed>0.7283543093852057</speed>
  <fix>3d</fix>
</trkpt>
<trkpt lat="33.8101263" lon="-118.3940785">
  <ele>-0.109</ele>
  <time>2026-09-02T22:07:22Z</time>
  <course>186.25</course>
  <speed>0.7283543093852057</speed>
  <fix>3d</fix>
</trkpt>
<trkpt lat="33.8101263" lon="-118.3940785">
  <ele>-0.109</ele>
  <time>2026-09-02T22:07:22Z</time>
  <course>186.25</course>
  <speed>0.7283543093852057</speed>
  <fix>3d</fix>
</trkpt>
<trkpt lat="33.8101267" lon="-118.3940776">
  <ele>-0.1</ele>
  <time>2026-09-02T22:07:22Z</time>
  <course>223.26</course>
  <speed>0.73</speed>
  <fix>3d</fix>
</trkpt>
<trkpt lat="33.8101262" lon="-118.3940785">
  <ele>-0.109</ele>
  <time>2026-09-02T22:07:22Z</time>
  <course>186.25</course>
  <speed>0.7283543093852057</speed>
  <fix>3d</fix>
</trkpt>
<trkpt lat="33.8101262" lon="-118.3940786">
  <ele>-0.109</ele>
  <time>2026-09-02T22:07:22Z</time>
  <course>186.25</course>
  <speed>0.7283543093852057</speed>
  <fix>3d</fix>
</trkpt>
<trkpt lat="33.8101261" lon="-118.3940787">
  <ele>-0.109</ele>
  <time>2026-09-02T22:07:22Z</time>
  <course>186.25</course>
  <speed>0.7283543093852057</speed>
  <fix>3d</fix>
</trkpt>
<trkpt lat="33.8101261" lon="-118.3940787">
  <ele>-0.109</ele>
  <time>2026-09-02T22:07:22Z</time>
  <course>186.25</course>
  <speed>0.7283543093852057</speed>
  <fix>3d</fix>
</trkpt>
<trkpt lat="33.810126" lon="-118.3940788">
  <ele>-0.109</ele>
  <time>2026-09-02T22:07:22Z</time>
  <course>186.25</course>
  <speed>0.7283543093852057</speed>
  <fix>3d</fix>
</trkpt>
<trkpt lat="33.810126" lon="-118.3940788">
  <ele>-0.109</ele>
  <time>2026-09-02T22:07:22Z</time>
  <course>186.25</course>
  <speed>0.7283543093852057</speed>
  <fix>3d</fix>
</trkpt>
<trkpt lat="33.810126" lon="-118.3940789">
  <ele>-0.109</ele>
  <time>2026-09-02T22:07:22Z</time>
  <course>186.25</course>
  <speed>0.7283543093852057</speed>
  <fix>3d</fix>
</trkpt>
<trkpt lat="33.8101259" lon="-118.3940789">
  <ele>-0.109</ele>
  <time>2026-09-02T22:07:22Z</time>
  <course>186.25</course>
  <speed>0.7283543093852057</speed>
  <fix>3d</fix>
</trkpt>
<trkpt lat="33.8101259" lon="-118.394079">
  <ele>-0.109</ele>
  <time>2026-09-02T22:07:22Z</time>
  <course>186.25</course>
  <speed>0.7283543093852057</speed>
  <fix>3d</fix>
</trkpt>
<trkpt lat="33.8101258" lon="-118.394079">
  <ele>-0.109</ele>
  <time>2026-09-02T22:07:22Z</time>
  <course>186.25</course>
  <speed>0.7283543093852057</speed>
  <fix>3d</fix>
</trkpt>
<trkpt lat="33.8101258" lon="-118.394079">
  <ele>-0.109</ele>
  <time>2026-09-02T22:07:22Z</time>
  <course>186.25</course>
  <speed>0.7283543093852057</speed>
  <fix>3d</fix>
</trkpt>
<trkpt lat="33.8101258" lon="-118.3940791">
  <ele>-0.109</ele>
  <time>2026-09-02T22:07:22Z</time>
  <course>186.25</course>
  <speed>0.7283543093852057</speed>
  <fix>3d</fix>
</trkpt>
<trkpt lat="33.8101267" lon="-118.3940776">
  <ele>-0.1</ele>
  <time>2026-09-02T22:07:22Z</time>
  <course>223.26</course>
  <speed>0.73</speed>
  <fix>3d</fix>
</trkpt>
<trkpt lat="33.8101258" lon="-118.3940791">
  <ele>-0.109</ele>
  <time>2026-09-02T22:07:22Z</time>
  <course>186.25</course>
  <speed>0.7283543093852057</speed>
  <fix>3d</fix>
</trkpt>
<trkpt lat="33.8101257" lon="-118.3940792">
  <ele>-0.109</ele>
  <time>2026-09-02T22:07:22Z</time>
  <course>186.25</course>
  <speed>0.7283543093852057</speed>
  <fix>3d</fix>
</trkpt>
<trkpt lat="33.8101257" lon="-118.3940792">
  <ele>-0.109</ele>
  <time>2026-09-02T22:07:22Z</time>
  <course>186.25</course>
  <speed>0.7283543093852057</speed>
  <fix>3d</fix>
</trkpt>
<trkpt lat="33.8101256" lon="-118.3940793">
  <ele>-0.109</ele>
  <time>2026-09-02T22:07:22Z</time>
  <course>186.25</course>
  <speed>0.7283543093852057</speed>
  <fix>3d</fix>
</trkpt>
<trkpt lat="33.8101256" lon="-118.3940793">
  <ele>-0.109</ele>
  <time>2026-09-02T22:07:22Z</time>
  <course>186.25</course>
  <speed>0.7283543093852057</speed>
  <fix>3d</fix>
</trkpt>
<trkpt lat="33.8101255" lon="-118.3940794">
  <ele>-0.109</ele>
  <time>2026-09-02T22:07:22Z</time>
  <course>186.25</course>
  <speed>0.7283543093852057</speed>
  <fix>3d</fix>
</trkpt>
<trkpt lat="33.8101255" lon="-118.3940794">
  <ele>-0.109</ele>
  <time>2026-09-02T22:07:22Z</time>
  <course>186.25</course>
  <speed>0.7283543093852057</speed>
  <fix>3d</fix>
</trkpt>
<trkpt lat="33.8101254" lon="-118.3940795">
  <ele>-0.109</ele>
  <time>2026-09-02T22:07:22Z</time>
  <course>186.25</course>
  <speed>0.7283543093852057</speed>
  <fix>3d</fix>
</trkpt>
<trkpt lat="33.8101254" lon="-118.3940795">
  <ele>-0.109</ele>
  <time>2026-09-02T22:07:22Z</time>
  <course>186.25</course>
  <speed>0.7283543093852057</speed>
  <fix>3d</fix>
</trkpt>
<trkpt lat="33.8101253" lon="-118.3940795">
  <ele>-0.109</ele>
  <time>2026-09-02T22:07:22Z</time>
  <course>186.25</course>
  <speed>0.7283543093852057</speed>
  <fix>3d</fix>
</trkpt>
<trkpt lat="33.8101253" lon="-118.3940796">
  <ele>-0.109</ele>
  <time>2026-09-02T22:07:22Z</time>
  <course>186.25</course>
  <speed>0.7283543093852057</speed>
  <fix>3d</fix>
</trkpt>
<trkpt lat="33.8101253" lon="-118.3940796">
  <ele>-0.109</ele>
  <time>2026-09-02T22:07:22Z</time>
  <course>186.25</course>
  <speed>0.7283543093852057</speed>
  <fix>3d</fix>
</trkpt>
<trkpt lat="33.8101257" lon="-118.3940786">
  <ele>-0.1</ele>
  <time>2026-09-02T22:07:22Z</time>
  <course>223.26</course>
  <speed>0.73</speed>
  <fix>3d</fix>
</trkpt>
<trkpt lat="33.8101253" lon="-118.3940796">
  <ele>-0.109</ele>
  <time>2026-09-02T22:07:22Z</time>
  <course>186.25</course>
  <speed>0.7283543093852057</speed>
  <fix>3d</fix>
</trkpt>
<trkpt lat="33.8101252" lon="-118.3940797">
  <ele>-0.109</ele>
  <time>2026-09-02T22:07:22Z</time>
  <course>186.25</course>
  <speed>0.7283543093852057</speed>
  <fix>3d</fix>
</trkpt>
<trkpt lat="33.8101252" lon="-118.3940798">
  <ele>-0.109</ele>
  <time>2026-09-02T22:07:22Z</time>
  <course>186.25</course>
  <speed>0.7283543093852057</speed>
  <fix>3d</fix>
</trkpt>
<trkpt lat="33.8101251" lon="-118.3940798">
  <ele>-0.109</ele>
  <time>2026-09-02T22:07:22Z</time>
  <course>186.25</course>
  <speed>0.7283543093852057</speed>
  <fix>3d</fix>
</trkpt>
<trkpt lat="33.8101251" lon="-118.3940799">
  <ele>-0.109</ele>
  <time>2026-09-02T22:07:22Z</time>
  <course>186.25</course>
  <speed>0.7283543093852057</speed>
  <fix>3d</fix>
</trkpt>
<trkpt lat="33.810125" lon="-118.3940799">
  <ele>-0.109</ele>
  <time>2026-09-02T22:07:22Z</time>
  <course>186.25</course>
  <speed>0.7283543093852057</speed>
  <fix>3d</fix>
</trkpt>
<trkpt lat="33.810125" lon="-118.39408">
  <ele>-0.109</ele>
  <time>2026-09-02T22:07:22Z</time>
  <course>186.25</course>
  <speed>0.7283543093852057</speed>
  <fix>3d</fix>
</trkpt>
<trkpt lat="33.8101249" lon="-118.39408">
  <ele>-0.109</ele>
  <time>2026-09-02T22:07:22Z</time>
  <course>186.25</course>
  <speed>0.7283543093852057</speed>
  <fix>3d</fix>
</trkpt>
<trkpt lat="33.8101249" lon="-118.3940801">
  <ele>-0.109</ele>
  <time>2026-09-02T22:07:22Z</time>
  <course>186.25</course>
  <speed>0.7283543093852057</speed>
  <fix>3d</fix>
</trkpt>
<trkpt lat="33.8101248" lon="-118.3940801">
  <ele>-0.109</ele>
  <time>2026-09-02T22:07:22Z</time>
  <course>186.25</course>
  <speed>0.7283543093852057</speed>
  <fix>3d</fix>
</trkpt>
<trkpt lat="33.8101248" lon="-118.3940802">
  <ele>-0.109</ele>
  <time>2026-09-02T22:07:22Z</time>
  <course>186.25</course>
  <speed>0.7283543093852057</speed>
  <fix>3d</fix>
</trkpt>
<trkpt lat="33.8101248" lon="-118.3940802">
  <ele>-0.109</ele>
  <time>2026-09-02T22:07:22Z</time>
  <course>186.25</course>
  <speed>0.7283543093852057</speed>
  <fix>3d</fix>
</trkpt>
<trkpt lat="33.8101257" lon="-118.3940786">
  <ele>-0.1</ele>
  <time>2026-09-02T22:07:22Z</time>
  <course>223.26</course>
  <speed>0.73</speed>
  <fix>3d</fix>
</trkpt>
<trkpt lat="33.8101247" lon="-118.3940803">
  <ele>-0.109</ele>
  <time>2026-09-02T22:07:22Z</time>
  <course>186.25</course>
  <speed>0.7283543093852057</speed>
  <fix>3d</fix>
</trkpt>
<trkpt lat="33.8101247" lon="-118.3940803">
  <ele>-0.109</ele>
  <time>2026-09-02T22:07:22Z</time>
  <course>186.25</course>
  <speed>0.7283543093852057</speed>
  <fix>3d</fix>
</trkpt>
<trkpt lat="33.8101246" lon="-118.3940804">
  <ele>-0.109</ele>
  <time>2026-09-02T22:07:22Z</time>
  <course>186.25</course>
  <speed>0.7283543093852057</speed>
  <fix>3d</fix>
</trkpt>
<trkpt lat="33.8101246" lon="-118.3940804">
  <ele>-0.109</ele>
  <time>2026-09-02T22:07:22Z</time>
  <course>186.25</course>
  <speed>0.7283543093852057</speed>
  <fix>3d</fix>
</trkpt>
<trkpt lat="33.8101246" lon="-118.3940805">
  <ele>-0.109</ele>
  <time>2026-09-02T22:07:22Z</time>
  <course>186.25</course>
  <speed>0.7283543093852057</speed>
  <fix>3d</fix>
</trkpt>
<trkpt lat="33.8101245" lon="-118.3940805">
  <ele>-0.109</ele>
  <time>2026-09-02T22:07:22Z</time>
  <course>186.25</course>
  <speed>0.7283543093852057</speed>
  <fix>3d</fix>
</trkpt>
<trkpt lat="33.8101245" lon="-118.3940805">
  <ele>-0.109</ele>
  <time>2026-09-02T22:07:22Z</time>
  <course>186.25</course>
  <speed>0.7283543093852057</speed>
  <fix>3d</fix>
</trkpt>
<trkpt lat="33.8101244" lon="-118.3940806">
  <ele>-0.109</ele>
  <time>2026-09-02T22:07:22Z</time>
  <course>186.25</course>
  <speed>0.7283543093852057</speed>
  <fix>3d</fix>
</trkpt>
<trkpt lat="33.8101244" lon="-118.3940806">
  <ele>-0.109</ele>
  <time>2026-09-02T22:07:22Z</time>
  <course>186.25</course>
  <speed>0.7283543093852057</speed>
  <fix>3d</fix>
</trkpt>
<trkpt lat="33.8101243" lon="-118.3940807">
  <ele>-0.109</ele>
  <time>2026-09-02T22:07:22Z</time>
  <course>186.25</course>
  <speed>0.7283543093852057</speed>
  <fix>3d</fix>
</trkpt>
<trkpt lat="33.8101243" lon="-118.3940807">
  <ele>-0.109</ele>
  <time>2026-09-02T22:07:22Z</time>
  <course>186.25</course>
  <speed>0.7283543093852057</speed>
  <fix>3d</fix>
</trkpt>
<trkpt lat="33.8101248" lon="-118.3940797">
  <ele>-0.11</ele>
  <time>2026-09-02T22:07:22Z</time>
  <course>223.26</course>
  <speed>0.73</speed>
  <fix>3d</fix>
</trkpt>
<trkpt lat="33.8101243" lon="-118.3940807">
  <ele>-0.109</ele>
  <time>2026-09-02T22:07:22Z</time>
  <course>186.25</course>
  <speed>0.7283543093852057</speed>
  <fix>3d</fix>
</trkpt>
<trkpt lat="33.8101242" lon="-118.3940808">
  <ele>-0.109</ele>
  <time>2026-09-02T22:07:22Z</time>
  <course>186.25</course>
  <speed>0.7283543093852057</speed>
  <fix>3d</fix>
</trkpt>
<trkpt lat="33.8101242" lon="-118.3940808">
  <ele>-0.109</ele>
  <time>2026-09-02T22:07:22Z</time>
  <course>186.25</course>
  <speed>0.7283543093852057</speed>
  <fix>3d</fix>
</trkpt>
<trkpt lat="33.8101241" lon="-118.3940809">
  <ele>-0.109</ele>
  <time>2026-09-02T22:07:22Z</time>
  <course>186.25</course>
  <speed>0.7283543093852057</speed>
  <fix>3d</fix>
</trkpt>
<trkpt lat="33.8101241" lon="-118.394081">
  <ele>-0.109</ele>
  <time>2026-09-02T22:07:22Z</time>
  <course>186.25</course>
  <speed>0.7283543093852057</speed>
  <fix>3d</fix>
</trkpt>
<trkpt lat="33.8101241" lon="-118.394081">
  <ele>-0.109</ele>
  <time>2026-09-02T22:07:22Z</time>
  <course>186.25</course>
  <speed>0.7283543093852057</speed>
  <fix>3d</fix>
</trkpt>
<trkpt lat="33.810124" lon="-118.394081">
  <ele>-0.109</ele>
  <time>2026-09-02T22:07:22Z</time>
  <course>186.25</course>
  <speed>0.7283543093852057</speed>
  <fix>3d</fix>
</trkpt>
<trkpt lat="33.810124" lon="-118.3940811">
  <ele>-0.109</ele>
  <time>2026-09-02T22:07:22Z</time>
  <course>186.25</course>
  <speed>0.7283543093852057</speed>
  <fix>3d</fix>
</trkpt>
<trkpt lat="33.8101239" lon="-118.3940811">
  <ele>-0.108</ele>
  <time>2026-09-02T22:07:22Z</time>
  <course>186.25</course>
  <speed>0.7283543093852057</speed>
  <fix>3d</fix>
</trkpt>
<trkpt lat="33.8101239" lon="-118.3940812">
  <ele>-0.108</ele>
  <time>2026-09-02T22:07:22Z</time>
  <course>186.25</course>
  <speed>0.7283543093852057</speed>
  <fix>3d</fix>
</trkpt>
<trkpt lat="33.8101238" lon="-118.3940812">
  <ele>-0.108</ele>
  <time>2026-09-02T22:07:22Z</time>
  <course>186.25</course>
  <speed>0.7283543093852057</speed>
  <fix>3d</fix>
</trkpt>
<trkpt lat="33.8101238" lon="-118.3940813">
  <ele>-0.108</ele>
  <time>2026-09-02T22:07:22Z</time>
  <course>186.25</course>
  <speed>0.7283543093852057</speed>
  <fix>3d</fix>
</trkpt>
<trkpt lat="33.8101248" lon="-118.3940797">
  <ele>-0.11</ele>
  <time>2026-09-02T22:07:22Z</time>
  <course>223.26</course>
  <speed>0.73</speed>
  <fix>3d</fix>
</trkpt>
<trkpt lat="33.8101238" lon="-118.3940813">
  <ele>-0.108</ele>
  <time>2026-09-02T22:07:22Z</time>
  <course>186.25</course>
  <speed>0.7283543093852057</speed>
  <fix>3d</fix>
</trkpt>
<trkpt lat="33.8101238" lon="-118.3940813">
  <ele>-0.108</ele>
  <time>2026-09-02T22:07:22Z</time>
  <course>186.25</course>
  <speed>0.7283543093852057</speed>
  <fix>3d</fix>
</trkpt>
<trkpt lat="33.8101237" lon="-118.3940814">
  <ele>-0.108</ele>
  <time>2026-09-02T22:07:22Z</time>
  <course>186.25</course>
  <speed>0.7283543093852057</speed>
  <fix>3d</fix>
</trkpt>
<trkpt lat="33.8101237" lon="-118.3940814">
  <ele>-0.108</ele>
  <time>2026-09-02T22:07:22Z</time>
  <course>186.25</course>
  <speed>0.7283543093852057</speed>
  <fix>3d</fix>
</trkpt>
<trkpt lat="33.8101236" lon="-118.3940815">
  <ele>-0.108</ele>
  <time>2026-09-02T22:07:22Z</time>
  <course>186.25</course>
  <speed>0.7283543093852057</speed>
  <fix>3d</fix>
</trkpt>
<trkpt lat="33.8101236" lon="-118.3940816">
  <ele>-0.108</ele>
  <time>2026-09-02T22:07:22Z</time>
  <course>186.25</course>
  <speed>0.7283543093852057</speed>
  <fix>3d</fix>
</trkpt>
<trkpt lat="33.8101235" lon="-118.3940816">
  <ele>-0.108</ele>
  <time>2026-09-02T22:07:22Z</time>
  <course>186.25</course>
  <speed>0.7283543093852057</speed>
  <fix>3d</fix>
</trkpt>
<trkpt lat="33.8101235" lon="-118.3940816">
  <ele>-0.108</ele>
  <time>2026-09-02T22:07:22Z</time>
  <course>186.25</course>
  <speed>0.7283543093852057</speed>
  <fix>3d</fix>
</trkpt>
<trkpt lat="33.8101234" lon="-118.3940817">
  <ele>-0.108</ele>
  <time>2026-09-02T22:07:22Z</time>
  <course>186.25</course>
  <speed>0.7283543093852057</speed>
  <fix>3d</fix>
</trkpt>
<trkpt lat="33.8101234" lon="-118.3940817">
  <ele>-0.108</ele>
  <time>2026-09-02T22:07:22Z</time>
  <course>186.25</course>
  <speed>0.7283543093852057</speed>
  <fix>3d</fix>
</trkpt>
<trkpt lat="33.8101234" lon="-118.3940818">
  <ele>-0.108</ele>
  <time>2026-09-02T22:07:22Z</time>
  <course>186.25</course>
  <speed>0.7283543093852057</speed>
  <fix>3d</fix>
</trkpt>
<trkpt lat="33.8101234" lon="-118.3940818">
  <ele>-0.108</ele>
  <time>2026-09-02T22:07:22Z</time>
  <course>186.25</course>
  <speed>0.7283543093852057</speed>
  <fix>3d</fix>
</trkpt>
<trkpt lat="33.8101239" lon="-118.3940808">
  <ele>-0.1</ele>
  <time>2026-09-02T22:07:22Z</time>
  <course>223.26</course>
  <speed>0.73</speed>
  <fix>3d</fix>
</trkpt>
<trkpt lat="33.8101233" lon="-118.3940818">
  <ele>-0.108</ele>
  <time>2026-09-02T22:07:22Z</time>
  <course>186.25</course>
  <speed>0.7283543093852057</speed>
  <fix>3d</fix>
</trkpt>
<trkpt lat="33.8101232" lon="-118.3940819">
  <ele>-0.108</ele>
  <time>2026-09-02T22:07:22Z</time>
  <course>186.25</course>
  <speed>0.7283543093852057</speed>
  <fix>3d</fix>
</trkpt>
<trkpt lat="33.8101232" lon="-118.394082">
  <ele>-0.108</ele>
  <time>2026-09-02T22:07:22Z</time>
  <course>186.25</course>
  <speed>0.7283543093852057</speed>
  <fix>3d</fix>
</trkpt>
<trkpt lat="33.8101231" lon="-118.394082">
  <ele>-0.108</ele>
  <time>2026-09-02T22:07:22Z</time>
  <course>186.25</course>
  <speed>0.7283543093852057</speed>
  <fix>3d</fix>
</trkpt>
<trkpt lat="33.8101231" lon="-118.3940821">
  <ele>-0.108</ele>
  <time>2026-09-02T22:07:22Z</time>
  <course>186.25</course>
  <speed>0.7283543093852057</speed>
  <fix>3d</fix>
</trkpt>
<trkpt lat="33.8101231" lon="-118.3940821">
  <ele>-0.108</ele>
  <time>2026-09-02T22:07:22Z</time>
  <course>186.25</course>
  <speed>0.7283543093852057</speed>
  <fix>3d</fix>
</trkpt>
<trkpt lat="33.810123" lon="-118.3940822">
  <ele>-0.108</ele>
  <time>2026-09-02T22:07:22Z</time>
  <course>186.25</course>
  <speed>0.7283543093852057</speed>
  <fix>3d</fix>
</trkpt>
<trkpt lat="33.810123" lon="-118.3940822">
  <ele>-0.108</ele>
  <time>2026-09-02T22:07:22Z</time>
  <course>186.25</course>
  <speed>0.7283543093852057</speed>
  <fix>3d</fix>
</trkpt>
<trkpt lat="33.8101229" lon="-118.3940823">
  <ele>-0.108</ele>
  <time>2026-09-02T22:07:22Z</time>
  <course>186.25</course>
  <speed>0.7283543093852057</speed>
  <fix>3d</fix>
</trkpt>
<trkpt lat="33.8101229" lon="-118.3940823">
  <ele>-0.108</ele>
  <time>2026-09-02T22:07:22Z</time>
  <course>186.25</course>
  <speed>0.7283543093852057</speed>
  <fix>3d</fix>
</trkpt>
<trkpt lat="33.8101229" lon="-118.3940823">
  <ele>-0.108</ele>
  <time>2026-09-02T22:07:22Z</time>
  <course>186.25</course>
  <speed>0.7283543093852057</speed>
  <fix>3d</fix>
</trkpt>
<trkpt lat="33.8101239" lon="-118.3940808">
  <ele>-0.1</ele>
  <time>2026-09-02T22:07:22Z</time>
  <course>223.26</course>
  <speed>0.73</speed>
  <fix>3d</fix>
</trkpt>
<trkpt lat="33.8101229" lon="-118.3940824">
  <ele>-0.108</ele>
  <time>2026-09-02T22:07:22Z</time>
  <course>186.25</course>
  <speed>0.7283543093852057</speed>
  <fix>3d</fix>
</trkpt>
<trkpt lat="33.8101228" lon="-118.3940824">
  <ele>-0.108</ele>
  <time>2026-09-02T22:07:22Z</time>
  <course>186.25</course>
  <speed>0.7283543093852057</speed>
  <fix>3d</fix>
</trkpt>
<trkpt lat="33.8101227" lon="-118.3940825">
  <ele>-0.108</ele>
  <time>2026-09-02T22:07:22Z</time>
  <course>186.25</course>
  <speed>0.7283543093852057</speed>
  <fix>3d</fix>
</trkpt>
<trkpt lat="33.8101227" lon="-118.3940825">
  <ele>-0.108</ele>
  <time>2026-09-02T22:07:22Z</time>
  <course>186.25</course>
  <speed>0.7283543093852057</speed>
  <fix>3d</fix>
</trkpt>
<trkpt lat="33.8101227" lon="-118.3940826">
  <ele>-0.108</ele>
  <time>2026-09-02T22:07:22Z</time>
  <course>186.25</course>
  <speed>0.7283543093852057</speed>
  <fix>3d</fix>
</trkpt>
<trkpt lat="33.8101226" lon="-118.3940826">
  <ele>-0.108</ele>
  <time>2026-09-02T22:07:22Z</time>
  <course>186.25</course>
  <speed>0.7283543093852057</speed>
  <fix>3d</fix>
</trkpt>
<trkpt lat="33.8101226" lon="-118.3940827">
  <ele>-0.108</ele>
  <time>2026-09-02T22:07:22Z</time>
  <course>186.25</course>
  <speed>0.7283543093852057</speed>
  <fix>3d</fix>
</trkpt>
<trkpt lat="33.8101225" lon="-118.3940827">
  <ele>-0.108</ele>
  <time>2026-09-02T22:07:22Z</time>
  <course>186.25</course>
  <speed>0.7283543093852057</speed>
  <fix>3d</fix>
</trkpt>
<trkpt lat="33.8101225" lon="-118.3940828">
  <ele>-0.108</ele>
  <time>2026-09-02T22:07:22Z</time>
  <course>186.25</course>
  <speed>0.7283543093852057</speed>
  <fix>3d</fix>
</trkpt>
<trkpt lat="33.8101224" lon="-118.3940828">
  <ele>-0.108</ele>
  <time>2026-09-02T22:07:22Z</time>
  <course>186.25</course>
  <speed>0.7283543093852057</speed>
  <fix>3d</fix>
</trkpt>
<trkpt lat="33.8101224" lon="-118.3940829">
  <ele>-0.108</ele>
  <time>2026-09-02T22:07:22Z</time>
  <course>186.25</course>
  <speed>0.7283543093852057</speed>
  <fix>3d</fix>
</trkpt>
<trkpt lat="33.8101224" lon="-118.3940829">
  <ele>-0.108</ele>
  <time>2026-09-02T22:07:22Z</time>
  <course>186.25</course>
  <speed>0.7283543093852057</speed>
  <fix>3d</fix>
</trkpt>
<trkpt lat="33.8101228" lon="-118.3940819">
  <ele>-0.1</ele>
  <time>2026-09-02T22:07:22Z</time>
  <course>223.26</course>
  <speed>0.73</speed>
  <fix>3d</fix>
</trkpt>
<trkpt lat="33.8101223" lon="-118.394083">
  <ele>-0.108</ele>
  <time>2026-09-02T22:07:22Z</time>
  <course>186.25</course>
  <speed>0.7283543093852057</speed>
  <fix>3d</fix>
</trkpt>
<trkpt lat="33.8101222" lon="-118.394083">
  <ele>-0.108</ele>
  <time>2026-09-02T22:07:22Z</time>
  <course>186.25</course>
  <speed>0.7283543093852057</speed>
  <fix>3d</fix>
</trkpt>
<trkpt lat="33.8101222" lon="-118.3940831">
  <ele>-0.108</ele>
  <time>2026-09-02T22:07:22Z</time>
  <course>186.25</course>
  <speed>0.7283543093852057</speed>
  <fix>3d</fix>
</trkpt>
<trkpt lat="33.8101222" lon="-118.3940831">
  <ele>-0.108</ele>
  <time>2026-09-02T22:07:22Z</time>
  <course>186.25</course>
  <speed>0.7283543093852057</speed>
  <fix>3d</fix>
</trkpt>
<trkpt lat="33.8101221" lon="-118.3940832">
  <ele>-0.108</ele>
  <time>2026-09-02T22:07:22Z</time>
  <course>186.25</course>
  <speed>0.7283543093852057</speed>
  <fix>3d</fix>
</trkpt>
<trkpt lat="33.8101221" lon="-118.3940832">
  <ele>-0.108</ele>
  <time>2026-09-02T22:07:22Z</time>
  <course>186.25</course>
  <speed>0.7283543093852057</speed>
  <fix>3d</fix>
</trkpt>
<trkpt lat="33.8101221" lon="-118.3940833">
  <ele>-0.108</ele>
  <time>2026-09-02T22:07:22Z</time>
  <course>186.25</course>
  <speed>0.7283543093852057</speed>
  <fix>3d</fix>
</trkpt>
<trkpt lat="33.810122" lon="-118.3940833">
  <ele>-0.108</ele>
  <time>2026-09-02T22:07:22Z</time>
  <course>186.25</course>
  <speed>0.7283543093852057</speed>
  <fix>3d</fix>
</trkpt>
<trkpt lat="33.810122" lon="-118.3940833">
  <ele>-0.108</ele>
  <time>2026-09-02T22:07:22Z</time>
  <course>186.25</course>
  <speed>0.7283543093852057</speed>
  <fix>3d</fix>
</trkpt>
<trkpt lat="33.8101219" lon="-118.3940834">
  <ele>-0.108</ele>
  <time>2026-09-02T22:07:22Z</time>
  <course>186.25</course>
  <speed>0.7283543093852057</speed>
  <fix>3d</fix>
</trkpt>
<trkpt lat="33.8101219" lon="-118.3940834">
  <ele>-0.108</ele>
  <time>2026-09-02T22:07:22Z</time>
  <course>186.25</course>
  <speed>0.7283543093852057</speed>
  <fix>3d</fix>
</trkpt>
<trkpt lat="33.8101228" lon="-118.3940819">
  <ele>-0.1</ele>
  <time>2026-09-02T22:07:22Z</time>
  <course>223.26</course>
  <speed>0.73</speed>
  <fix>3d</fix>
</trkpt>
<trkpt lat="33.8101219" lon="-118.3940834">
  <ele>-0.108</ele>
  <time>2026-09-02T22:07:22Z</time>
  <course>186.25</course>
  <speed>0.7283543093852057</speed>
  <fix>3d</fix>
</trkpt>
<trkpt lat="33.8101218" lon="-118.3940835">
  <ele>-0.108</ele>
  <time>2026-09-02T22:07:22Z</time>
  <course>186.25</course>
  <speed>0.7283543093852057</speed>
  <fix>3d</fix>
</trkpt>
<trkpt lat="33.8101218" lon="-118.3940836">
  <ele>-0.108</ele>
  <time>2026-09-02T22:07:22Z</time>
  <course>186.25</course>
  <speed>0.7283543093852057</speed>
  <fix>3d</fix>
</trkpt>
<trkpt lat="33.8101217" lon="-118.3940836">
  <ele>-0.108</ele>
  <time>2026-09-02T22:07:22Z</time>
  <course>186.25</course>
  <speed>0.7283543093852057</speed>
  <fix>3d</fix>
</trkpt>
<trkpt lat="33.8101217" lon="-118.3940837">
  <ele>-0.108</ele>
  <time>2026-09-02T22:07:22Z</time>
  <course>186.25</course>
  <speed>0.7283543093852057</speed>
  <fix>3d</fix>
</trkpt>
<trkpt lat="33.8101216" lon="-118.3940837">
  <ele>-0.108</ele>
  <time>2026-09-02T22:07:22Z</time>
  <course>186.25</course>
  <speed>0.7283543093852057</speed>
  <fix>3d</fix>
</trkpt>
<trkpt lat="33.8101216" lon="-118.3940838">
  <ele>-0.108</ele>
  <time>2026-09-02T22:07:22Z</time>
  <course>186.25</course>
  <speed>0.7283543093852057</speed>
  <fix>3d</fix>
</trkpt>
<trkpt lat="33.8101216" lon="-118.3940838">
  <ele>-0.108</ele>
  <time>2026-09-02T22:07:22Z</time>
  <course>186.25</course>
  <speed>0.7283543093852057</speed>
  <fix>3d</fix>
</trkpt>
<trkpt lat="33.8101215" lon="-118.3940839">
  <ele>-0.108</ele>
  <time>2026-09-02T22:07:22Z</time>
  <course>186.25</course>
  <speed>0.7283543093852057</speed>
  <fix>3d</fix>
</trkpt>
<trkpt lat="33.8101215" lon="-118.3940839">
  <ele>-0.108</ele>
  <time>2026-09-02T22:07:22Z</time>
  <course>186.25</course>
  <speed>0.7283543093852057</speed>
  <fix>3d</fix>
</trkpt>
<trkpt lat="33.8101214" lon="-118.394084">
  <ele>-0.108</ele>
  <time>2026-09-02T22:07:22Z</time>
  <course>186.25</course>
  <speed>0.7283543093852057</speed>
  <fix>3d</fix>
</trkpt>
<trkpt lat="33.8101214" lon="-118.394084">
  <ele>-0.108</ele>
  <time>2026-09-02T22:07:22Z</time>
  <course>186.25</course>
  <speed>0.7283543093852057</speed>
  <fix>3d</fix>
</trkpt>
<trkpt lat="33.8101219" lon="-118.394083">
  <ele>-0.1</ele>
  <time>2026-09-02T22:07:22Z</time>
  <course>223.26</course>
  <speed>0.73</speed>
  <fix>3d</fix>
</trkpt>
<trkpt lat="33.8101214" lon="-118.3940841">
  <ele>-0.108</ele>
  <time>2026-09-02T22:07:22Z</time>
  <course>186.25</course>
  <speed>0.7283543093852057</speed>
  <fix>3d</fix>
</trkpt>
<trkpt lat="33.8101213" lon="-118.3940841">
  <ele>-0.108</ele>
  <time>2026-09-02T22:07:22Z</time>
  <course>186.25</course>
  <speed>0.7283543093852057</speed>
  <fix>3d</fix>
</trkpt>
<trkpt lat="33.8101213" lon="-118.3940842">
  <ele>-0.108</ele>
  <time>2026-09-02T22:07:22Z</time>
  <course>186.25</course>
  <speed>0.7283543093852057</speed>
  <fix>3d</fix>
</trkpt>
<trkpt lat="33.8101212" lon="-118.3940842">
  <ele>-0.108</ele>
  <time>2026-09-02T22:07:22Z</time>
  <course>186.25</course>
  <speed>0.7283543093852057</speed>
  <fix>3d</fix>
</trkpt>
<trkpt lat="33.8101212" lon="-118.3940843">
  <ele>-0.108</ele>
  <time>2026-09-02T22:07:22Z</time>
  <course>186.25</course>
  <speed>0.7283543093852057</speed>
  <fix>3d</fix>
</trkpt>
<trkpt lat="33.8101211" lon="-118.3940843">
  <ele>-0.109</ele>
  <time>2026-09-02T22:07:22Z</time>
  <course>186.25</course>
  <speed>0.7283543093852057</speed>
  <fix>3d</fix>
</trkpt>
<trkpt lat="33.8101211" lon="-118.3940844">
  <ele>-0.109</ele>
  <time>2026-09-02T22:07:22Z</time>
  <course>186.25</course>
  <speed>0.7283543093852057</speed>
  <fix>3d</fix>
</trkpt>
<trkpt lat="33.810121" lon="-118.3940844">
  <ele>-0.109</ele>
  <time>2026-09-02T22:07:22Z</time>
  <course>186.25</course>
  <speed>0.7283543093852057</speed>
  <fix>3d</fix>
</trkpt>
<trkpt lat="33.810121" lon="-118.3940844">
  <ele>-0.109</ele>
  <time>2026-09-02T22:07:22Z</time>
  <course>186.25</course>
  <speed>0.7283543093852057</speed>
  <fix>3d</fix>
</trkpt>
<trkpt lat="33.810121" lon="-118.3940845">
  <ele>-0.109</ele>
  <time>2026-09-02T22:07:22Z</time>
  <course>186.25</course>
  <speed>0.7283543093852057</speed>
  <fix>3d</fix>
</trkpt>
<trkpt lat="33.8101209" lon="-118.3940845">
  <ele>-0.109</ele>
  <time>2026-09-02T22:07:22Z</time>
  <course>186.25</course>
  <speed>0.7283543093852057</speed>
  <fix>3d</fix>
</trkpt>
<trkpt lat="33.8101219" lon="-118.394083">
  <ele>-0.1</ele>
  <time>2026-09-02T22:07:22Z</time>
  <course>223.26</course>
  <speed>0.73</speed>
  <fix>3d</fix>
</trkpt>
<trkpt lat="33.8101209" lon="-118.3940845">
  <ele>-0.109</ele>
  <time>2026-09-02T22:07:22Z</time>
  <course>186.25</course>
  <speed>0.7283543093852057</speed>
  <fix>3d</fix>
</trkpt>
<trkpt lat="33.8101208" lon="-118.3940846">
  <ele>-0.109</ele>
  <time>2026-09-02T22:07:22Z</time>
  <course>186.25</course>
  <speed>0.7283543093852057</speed>
  <fix>3d</fix>
</trkpt>
<trkpt lat="33.8101208" lon="-118.3940847">
  <ele>-0.109</ele>
  <time>2026-09-02T22:07:22Z</time>
  <course>186.25</course>
  <speed>0.7283543093852057</speed>
  <fix>3d</fix>
</trkpt>
<trkpt lat="33.8101208" lon="-118.3940847">
  <ele>-0.109</ele>
  <time>2026-09-02T22:07:22Z</time>
  <course>186.25</course>
  <speed>0.7283543093852057</speed>
  <fix>3d</fix>
</trkpt>
<trkpt lat="33.8101207" lon="-118.3940848">
  <ele>-0.109</ele>
  <time>2026-09-02T22:07:22Z</time>
  <course>186.25</course>
  <speed>0.7283543093852057</speed>
  <fix>3d</fix>
</trkpt>
<trkpt lat="33.8101207" lon="-118.3940848">
  <ele>-0.109</ele>
  <time>2026-09-02T22:07:22Z</time>
  <course>186.25</course>
  <speed>0.7283543093852057</speed>
  <fix>3d</fix>
</trkpt>
<trkpt lat="33.8101206" lon="-118.3940849">
  <ele>-0.11</ele>
  <time>2026-09-02T22:07:22Z</time>
  <course>186.25</course>
  <speed>0.7283543093852057</speed>
  <fix>3d</fix>
</trkpt>
<trkpt lat="33.8101206" lon="-118.3940849">
  <ele>-0.11</ele>
  <time>2026-09-02T22:07:22Z</time>
  <course>186.25</course>
  <speed>0.7283543093852057</speed>
  <fix>3d</fix>
</trkpt>
<trkpt lat="33.8101205" lon="-118.394085">
  <ele>-0.11</ele>
  <time>2026-09-02T22:07:22Z</time>
  <course>186.25</course>
  <speed>0.7283543093852057</speed>
  <fix>3d</fix>
</trkpt>
<trkpt lat="33.8101205" lon="-118.394085">
  <ele>-0.11</ele>
  <time>2026-09-02T22:07:22Z</time>
  <course>186.25</course>
  <speed>0.7283543093852057</speed>
  <fix>3d</fix>
</trkpt>
<trkpt lat="33.8101205" lon="-118.3940851">
  <ele>-0.11</ele>
  <time>2026-09-02T22:07:22Z</time>
  <course>186.25</course>
  <speed>0.7283543093852057</speed>
  <fix>3d</fix>
</trkpt>
<trkpt lat="33.8101205" lon="-118.3940851">
  <ele>-0.11</ele>
  <time>2026-09-02T22:07:22Z</time>
  <course>186.25</course>
  <speed>0.7283543093852057</speed>
  <fix>3d</fix>
</trkpt>
<trkpt lat="33.8101209" lon="-118.3940841">
  <ele>-0.1</ele>
  <time>2026-09-02T22:07:22Z</time>
  <course>223.26</course>
  <speed>0.73</speed>
  <fix>3d</fix>
</trkpt>
<trkpt lat="33.8101204" lon="-118.3940851">
  <ele>-0.11</ele>
  <time>2026-09-02T22:07:22Z</time>
  <course>186.25</course>
  <speed>0.7283543093852057</speed>
  <fix>3d</fix>
</trkpt>
<trkpt lat="33.8101203" lon="-118.3940852">
  <ele>-0.11</ele>
  <time>2026-09-02T22:07:22Z</time>
  <course>186.25</course>
  <speed>0.7283543093852057</speed>
  <fix>3d</fix>
</trkpt>
<trkpt lat="33.8101203" lon="-118.3940853">
  <ele>-0.11</ele>
  <time>2026-09-02T22:07:22Z</time>
  <course>186.25</course>
  <speed>0.7283543093852057</speed>
  <fix>3d</fix>
</trkpt>
<trkpt lat="33.8101203" lon="-118.3940853">
  <ele>-0.11</ele>
  <time>2026-09-02T22:07:22Z</time>
  <course>186.25</course>
  <speed>0.7283543093852057</speed>
  <fix>3d</fix>
</trkpt>
<trkpt lat="33.8101202" lon="-118.3940853">
  <ele>-0.11</ele>
  <time>2026-09-02T22:07:22Z</time>
  <course>186.25</course>
  <speed>0.7283543093852057</speed>
  <fix>3d</fix>
</trkpt>
<trkpt lat="33.8101202" lon="-118.3940854">
  <ele>-0.11</ele>
  <time>2026-09-02T22:07:22Z</time>
  <course>186.25</course>
  <speed>0.7283543093852057</speed>
  <fix>3d</fix>
</trkpt>
<trkpt lat="33.8101201" lon="-118.3940854">
  <ele>-0.11</ele>
  <time>2026-09-02T22:07:22Z</time>
  <course>186.25</course>
  <speed>0.7283543093852057</speed>
  <fix>3d</fix>
</trkpt>
<trkpt lat="33.8101201" lon="-118.3940855">
  <ele>-0.111</ele>
  <time>2026-09-02T22:07:22Z</time>
  <course>186.25</course>
  <speed>0.7283543093852057</speed>
  <fix>3d</fix>
</trkpt>
<trkpt lat="33.81012" lon="-118.3940855">
  <ele>-0.111</ele>
  <time>2026-09-02T22:07:22Z</time>
  <course>186.25</course>
  <speed>0.7283543093852057</speed>
  <fix>3d</fix>
</trkpt>
<trkpt lat="33.81012" lon="-118.3940856">
  <ele>-0.111</ele>
  <time>2026-09-02T22:07:22Z</time>
  <course>186.25</course>
  <speed>0.7283543093852057</speed>
  <fix>3d</fix>
</trkpt>
<trkpt lat="33.81012" lon="-118.3940856">
  <ele>-0.111</ele>
  <time>2026-09-02T22:07:22Z</time>
  <course>186.25</course>
  <speed>0.7283543093852057</speed>
  <fix>3d</fix>
</trkpt>
<trkpt lat="33.8101209" lon="-118.3940841">
  <ele>-0.1</ele>
  <time>2026-09-02T22:07:22Z</time>
  <course>223.26</course>
  <speed>0.73</speed>
  <fix>3d</fix>
</trkpt>
<trkpt lat="33.81012" lon="-118.3940856">
  <ele>-0.111</ele>
  <time>2026-09-02T22:07:22Z</time>
  <course>186.25</course>
  <speed>0.7283543093852057</speed>
  <fix>3d</fix>
</trkpt>
<trkpt lat="33.8101199" lon="-118.3940857">
  <ele>-0.111</ele>
  <time>2026-09-02T22:07:22Z</time>
  <course>186.25</course>
  <speed>0.7283543093852057</speed>
  <fix>3d</fix>
</trkpt>
<trkpt lat="33.8101198" lon="-118.3940858">
  <ele>-0.111</ele>
  <time>2026-09-02T22:07:22Z</time>
  <course>186.25</course>
  <speed>0.7283543093852057</speed>
  <fix>3d</fix>
</trkpt>
<trkpt lat="33.8101198" lon="-118.3940858">
  <ele>-0.111</ele>
  <time>2026-09-02T22:07:22Z</time>
  <course>186.25</course>
  <speed>0.7283543093852057</speed>
  <fix>3d</fix>
</trkpt>
<trkpt lat="33.8101198" lon="-118.3940859">
  <ele>-0.111</ele>
  <time>2026-09-02T22:07:22Z</time>
  <course>186.25</course>
  <speed>0.7283543093852057</speed>
  <fix>3d</fix>
</trkpt>
<trkpt lat="33.8101197" lon="-118.3940859">
  <ele>-0.111</ele>
  <time>2026-09-02T22:07:22Z</time>
  <course>186.25</course>
  <speed>0.7283543093852057</speed>
  <fix>3d</fix>
</trkpt>
<trkpt lat="33.8101197" lon="-118.3940859">
  <ele>-0.111</ele>
  <time>2026-09-02T22:07:22Z</time>
  <course>186.25</course>
  <speed>0.7283543093852057</speed>
  <fix>3d</fix>
</trkpt>
<trkpt lat="33.8101197" lon="-118.394086">
  <ele>-0.111</ele>
  <time>2026-09-02T22:07:22Z</time>
  <course>186.25</course>
  <speed>0.7283543093852057</speed>
  <fix>3d</fix>
</trkpt>
<trkpt lat="33.8101196" lon="-118.394086">
  <ele>-0.111</ele>
  <time>2026-09-02T22:07:22Z</time>
  <course>186.25</course>
  <speed>0.7283543093852057</speed>
  <fix>3d</fix>
</trkpt>
<trkpt lat="33.8101196" lon="-118.3940861">
  <ele>-0.111</ele>
  <time>2026-09-02T22:07:22Z</time>
  <course>186.25</course>
  <speed>0.7283543093852057</speed>
  <fix>3d</fix>
</trkpt>
<trkpt lat="33.8101195" lon="-118.3940861">
  <ele>-0.111</ele>
  <time>2026-09-02T22:07:22Z</time>
  <course>186.25</course>
  <speed>0.7283543093852057</speed>
  <fix>3d</fix>
</trkpt>
<trkpt lat="33.8101195" lon="-118.3940862">
  <ele>-0.111</ele>
  <time>2026-09-02T22:07:22Z</time>
  <course>186.25</course>
  <speed>0.7283543093852057</speed>
  <fix>3d</fix>
</trkpt>
<trkpt lat="33.8101195" lon="-118.3940862">
  <ele>-0.111</ele>
  <time>2026-09-02T22:07:22Z</time>
  <course>186.25</course>
  <speed>0.7283543093852057</speed>
  <fix>3d</fix>
</trkpt>
<trkpt lat="33.81012" lon="-118.3940852">
  <ele>-0.11</ele>
  <time>2026-09-02T22:07:22Z</time>
  <course>223.26</course>
  <speed>0.73</speed>
  <fix>3d</fix>
</trkpt>
<trkpt lat="33.8101194" lon="-118.3940862">
  <ele>-0.112</ele>
  <time>2026-09-02T22:07:22Z</time>
  <course>186.25</course>
  <speed>0.7283543093852057</speed>
  <fix>3d</fix>
</trkpt>
<trkpt lat="33.8101194" lon="-118.3940863">
  <ele>-0.112</ele>
  <time>2026-09-02T22:07:22Z</time>
  <course>186.25</course>
  <speed>0.7283543093852057</speed>
  <fix>3d</fix>
</trkpt>
<trkpt lat="33.8101193" lon="-118.3940863">
  <ele>-0.112</ele>
  <time>2026-09-02T22:07:22Z</time>
  <course>186.25</course>
  <speed>0.7283543093852057</speed>
  <fix>3d</fix>
</trkpt>
<trkpt lat="33.8101193" lon="-118.3940864">
  <ele>-0.112</ele>
  <time>2026-09-02T22:07:22Z</time>
  <course>186.25</course>
  <speed>0.7283543093852057</speed>
  <fix>3d</fix>
</trkpt>
<trkpt lat="33.8101193" lon="-118.3940864">
  <ele>-0.112</ele>
  <time>2026-09-02T22:07:22Z</time>
  <course>186.25</course>
  <speed>0.7283543093852057</speed>
  <fix>3d</fix>
</trkpt>
<trkpt lat="33.8101192" lon="-118.3940864">
  <ele>-0.112</ele>
  <time>2026-09-02T22:07:22Z</time>
  <course>186.25</course>
  <speed>0.7283543093852057</speed>
  <fix>3d</fix>
</trkpt>
<trkpt lat="33.8101192" lon="-118.3940865">
  <ele>-0.112</ele>
  <time>2026-09-02T22:07:22Z</time>
  <course>186.25</course>
  <speed>0.7283543093852057</speed>
  <fix>3d</fix>
</trkpt>
<trkpt lat="33.8101192" lon="-118.3940865">
  <ele>-0.112</ele>
  <time>2026-09-02T22:07:22Z</time>
  <course>186.25</course>
  <speed>0.7283543093852057</speed>
  <fix>3d</fix>
</trkpt>
<trkpt lat="33.8101191" lon="-118.3940866">
  <ele>-0.112</ele>
  <time>2026-09-02T22:07:22Z</time>
  <course>186.25</course>
  <speed>0.7283543093852057</speed>
  <fix>3d</fix>
</trkpt>
<trkpt lat="33.8101191" lon="-118.3940866">
  <ele>-0.112</ele>
  <time>2026-09-02T22:07:22Z</time>
  <course>186.25</course>
  <speed>0.7283543093852057</speed>
  <fix>3d</fix>
</trkpt>
<trkpt lat="33.810119" lon="-118.3940867">
  <ele>-0.112</ele>
  <time>2026-09-02T22:07:22Z</time>
  <course>186.25</course>
  <speed>0.7283543093852057</speed>
  <fix>3d</fix>
</trkpt>
<trkpt lat="33.810119" lon="-118.3940867">
  <ele>-0.112</ele>
  <time>2026-09-02T22:07:22Z</time>
  <course>186.25</course>
  <speed>0.7283543093852057</speed>
  <fix>3d</fix>
</trkpt>
<trkpt lat="33.810119" lon="-118.3940867">
  <ele>-0.112</ele>
  <time>2026-09-02T22:07:22Z</time>
  <course>186.25</course>
  <speed>0.7283543093852057</speed>
  <fix>3d</fix>
</trkpt>
<trkpt lat="33.81012" lon="-118.3940852">
  <ele>-0.11</ele>
  <time>2026-09-02T22:07:22Z</time>
  <course>223.26</course>
  <speed>0.73</speed>
  <fix>3d</fix>
</trkpt>
<trkpt lat="33.8101189" lon="-118.3940868">
  <ele>-0.112</ele>
  <time>2026-09-02T22:07:22Z</time>
  <course>186.25</course>
  <speed>0.7283543093852057</speed>
  <fix>3d</fix>
</trkpt>
<trkpt lat="33.8101189" lon="-118.3940868">
  <ele>-0.112</ele>
  <time>2026-09-02T22:07:22Z</time>
  <course>186.25</course>
  <speed>0.7283543093852057</speed>
  <fix>3d</fix>
</trkpt>
<trkpt lat="33.8101189" lon="-118.3940869">
  <ele>-0.112</ele>
  <time>2026-09-02T22:07:22Z</time>
  <course>186.25</course>
  <speed>0.7283543093852057</speed>
  <fix>3d</fix>
</trkpt>
<trkpt lat="33.8101188" lon="-118.3940869">
  <ele>-0.112</ele>
  <time>2026-09-02T22:07:22Z</time>
  <course>186.25</course>
  <speed>0.7283543093852057</speed>
  <fix>3d</fix>
</trkpt>
<trkpt lat="33.8101188" lon="-118.394087">
  <ele>-0.112</ele>
  <time>2026-09-02T22:07:22Z</time>
  <course>186.25</course>
  <speed>0.7283543093852057</speed>
  <fix>3d</fix>
</trkpt>
<trkpt lat="33.8101187" lon="-118.394087">
  <ele>-0.112</ele>
  <time>2026-09-02T22:07:22Z</time>
  <course>186.25</course>
  <speed>0.7283543093852057</speed>
  <fix>3d</fix>
</trkpt>
<trkpt lat="33.8101187" lon="-118.3940871">
  <ele>-0.112</ele>
  <time>2026-09-02T22:07:22Z</time>
  <course>186.25</course>
  <speed>0.7283543093852057</speed>
  <fix>3d</fix>
</trkpt>
<trkpt lat="33.8101187" lon="-118.3940871">
  <ele>-0.112</ele>
  <time>2026-09-02T22:07:22Z</time>
  <course>186.25</course>
  <speed>0.7283543093852057</speed>
  <fix>3d</fix>
</trkpt>
<trkpt lat="33.8101186" lon="-118.3940872">
  <ele>-0.112</ele>
  <time>2026-09-02T22:07:22Z</time>
  <course>186.25</course>
  <speed>0.7283543093852057</speed>
  <fix>3d</fix>
</trkpt>
<trkpt lat="33.8101186" lon="-118.3940872">
  <ele>-0.112</ele>
  <time>2026-09-02T22:07:22Z</time>
  <course>186.25</course>
  <speed>0.7283543093852057</speed>
  <fix>3d</fix>
</trkpt>
<trkpt lat="33.8101185" lon="-118.3940873">
  <ele>-0.112</ele>
  <time>2026-09-02T22:07:22Z</time>
  <course>186.25</course>
  <speed>0.7283543093852057</speed>
  <fix>3d</fix>
</trkpt>
<trkpt lat="33.8101185" lon="-118.3940873">
  <ele>-0.112</ele>
  <time>2026-09-02T22:07:22Z</time>
  <course>186.25</course>
  <speed>0.7283543093852057</speed>
  <fix>3d</fix>
</trkpt>
<trkpt lat="33.810119" lon="-118.3940863">
  <ele>-0.1</ele>
  <time>2026-09-02T22:07:22Z</time>
  <course>223.26</course>
  <speed>0.73</speed>
  <fix>3d</fix>
</trkpt>
<trkpt lat="33.8101185" lon="-118.3940873">
  <ele>-0.113</ele>
  <time>2026-09-02T22:07:22Z</time>
  <course>186.25</course>
  <speed>0.7283543093852057</speed>
  <fix>3d</fix>
</trkpt>
<trkpt lat="33.8101184" lon="-118.3940874">
  <ele>-0.113</ele>
  <time>2026-09-02T22:07:22Z</time>
  <course>186.25</course>
  <speed>0.7283543093852057</speed>
  <fix>3d</fix>
</trkpt>
<trkpt lat="33.8101184" lon="-118.3940874">
  <ele>-0.113</ele>
  <time>2026-09-02T22:07:22Z</time>
  <course>186.25</course>
  <speed>0.7283543093852057</speed>
  <fix>3d</fix>
</trkpt>
<trkpt lat="33.8101183" lon="-118.3940875">
  <ele>-0.113</ele>
  <time>2026-09-02T22:07:22Z</time>
  <course>186.25</course>
  <speed>0.7283543093852057</speed>
  <fix>3d</fix>
</trkpt>
<trkpt lat="33.8101183" lon="-118.3940875">
  <ele>-0.113</ele>
  <time>2026-09-02T22:07:22Z</time>
  <course>186.25</course>
  <speed>0.7283543093852057</speed>
  <fix>3d</fix>
</trkpt>
<trkpt lat="33.8101182" lon="-118.3940876">
  <ele>-0.113</ele>
  <time>2026-09-02T22:07:22Z</time>
  <course>186.25</course>
  <speed>0.7283543093852057</speed>
  <fix>3d</fix>
</trkpt>
<trkpt lat="33.8101182" lon="-118.3940876">
  <ele>-0.113</ele>
  <time>2026-09-02T22:07:22Z</time>
  <course>186.25</course>
  <speed>0.7283543093852057</speed>
  <fix>3d</fix>
</trkpt>
<trkpt lat="33.8101181" lon="-118.3940877">
  <ele>-0.113</ele>
  <time>2026-09-02T22:07:22Z</time>
  <course>186.25</course>
  <speed>0.7283543093852057</speed>
  <fix>3d</fix>
</trkpt>
<trkpt lat="33.8101181" lon="-118.3940877">
  <ele>-0.113</ele>
  <time>2026-09-02T22:07:22Z</time>
  <course>186.25</course>
  <speed>0.7283543093852057</speed>
  <fix>3d</fix>
</trkpt>
<trkpt lat="33.8101181" lon="-118.3940878">
  <ele>-0.113</ele>
  <time>2026-09-02T22:07:22Z</time>
  <course>186.25</course>
  <speed>0.7283543093852057</speed>
  <fix>3d</fix>
</trkpt>
<trkpt lat="33.810118" lon="-118.3940878">
  <ele>-0.113</ele>
  <time>2026-09-02T22:07:22Z</time>
  <course>186.25</course>
  <speed>0.7283543093852057</speed>
  <fix>3d</fix>
</trkpt>
<trkpt lat="33.810119" lon="-118.3940863">
  <ele>-0.1</ele>
  <time>2026-09-02T22:07:22Z</time>
  <course>223.26</course>
  <speed>0.73</speed>
  <fix>3d</fix>
</trkpt>
<trkpt lat="33.810118" lon="-118.3940878">
  <ele>-0.113</ele>
  <time>2026-09-02T22:07:22Z</time>
  <course>186.25</course>
  <speed>0.7283543093852057</speed>
  <fix>3d</fix>
</trkpt>
<trkpt lat="33.810118" lon="-118.3940879">
  <ele>-0.113</ele>
  <time>2026-09-02T22:07:22Z</time>
  <course>186.25</course>
  <speed>0.7283543093852057</speed>
  <fix>3d</fix>
</trkpt>
<trkpt lat="33.8101179" lon="-118.394088">
  <ele>-0.113</ele>
  <time>2026-09-02T22:07:22Z</time>
  <course>186.25</course>
  <speed>0.7283543093852057</speed>
  <fix>3d</fix>
</trkpt>
<trkpt lat="33.8101179" lon="-118.394088">
  <ele>-0.113</ele>
  <time>2026-09-02T22:07:22Z</time>
  <course>186.25</course>
  <speed>0.7283543093852057</speed>
  <fix>3d</fix>
</trkpt>
<trkpt lat="33.8101178" lon="-118.394088">
  <ele>-0.113</ele>
  <time>2026-09-02T22:07:22Z</time>
  <course>186.25</course>
  <speed>0.7283543093852057</speed>
  <fix>3d</fix>
</trkpt>
<trkpt lat="33.8101178" lon="-118.3940881">
  <ele>-0.113</ele>
  <time>2026-09-02T22:07:22Z</time>
  <course>186.25</course>
  <speed>0.7283543093852057</speed>
  <fix>3d</fix>
</trkpt>
<trkpt lat="33.8101177" lon="-118.3940881">
  <ele>-0.113</ele>
  <time>2026-09-02T22:07:22Z</time>
  <course>186.25</course>
  <speed>0.7283543093852057</speed>
  <fix>3d</fix>
</trkpt>
<trkpt lat="33.8101177" lon="-118.3940882">
  <ele>-0.113</ele>
  <time>2026-09-02T22:07:22Z</time>
  <course>186.25</course>
  <speed>0.7283543093852057</speed>
  <fix>3d</fix>
</trkpt>
<trkpt lat="33.8101176" lon="-118.3940882">
  <ele>-0.113</ele>
  <time>2026-09-02T22:07:22Z</time>
  <course>186.25</course>
  <speed>0.7283543093852057</speed>
  <fix>3d</fix>
</trkpt>
<trkpt lat="33.8101176" lon="-118.3940883">
  <ele>-0.113</ele>
  <time>2026-09-02T22:07:22Z</time>
  <course>186.25</course>
  <speed>0.7283543093852057</speed>
  <fix>3d</fix>
</trkpt>
<trkpt lat="33.8101176" lon="-118.3940883">
  <ele>-0.113</ele>
  <time>2026-09-02T22:07:22Z</time>
  <course>186.25</course>
  <speed>0.7283543093852057</speed>
  <fix>3d</fix>
</trkpt>
<trkpt lat="33.8101176" lon="-118.3940883">
  <ele>-0.113</ele>
  <time>2026-09-02T22:07:22Z</time>
  <course>186.25</course>
  <speed>0.7283543093852057</speed>
  <fix>3d</fix>
</trkpt>
<trkpt lat="33.810118" lon="-118.3940874">
  <ele>-0.1</ele>
  <time>2026-09-02T22:07:22Z</time>
  <course>223.26</course>
  <speed>0.73</speed>
  <fix>3d</fix>
</trkpt>
<trkpt lat="33.8101175" lon="-118.3940884">
  <ele>-0.113</ele>
  <time>2026-09-02T22:07:22Z</time>
  <course>186.25</course>
  <speed>0.7283543093852057</speed>
  <fix>3d</fix>
</trkpt>
<trkpt lat="33.8101174" lon="-118.3940885">
  <ele>-0.113</ele>
  <time>2026-09-02T22:07:22Z</time>
  <course>186.25</course>
  <speed>0.7283543093852057</speed>
  <fix>3d</fix>
</trkpt>
<trkpt lat="33.8101174" lon="-118.3940885">
  <ele>-0.113</ele>
  <time>2026-09-02T22:07:22Z</time>
  <course>186.25</course>
  <speed>0.7283543093852057</speed>
  <fix>3d</fix>
</trkpt>
<trkpt lat="33.8101173" lon="-118.3940886">
  <ele>-0.113</ele>
  <time>2026-09-02T22:07:22Z</time>
  <course>186.25</course>
  <speed>0.7283543093852057</speed>
  <fix>3d</fix>
</trkpt>
<trkpt lat="33.8101173" lon="-118.3940886">
  <ele>-0.113</ele>
  <time>2026-09-02T22:07:22Z</time>
  <course>186.25</course>
  <speed>0.7283543093852057</speed>
  <fix>3d</fix>
</trkpt>
<trkpt lat="33.8101173" lon="-118.3940887">
  <ele>-0.113</ele>
  <time>2026-09-02T22:07:22Z</time>
  <course>186.25</course>
  <speed>0.7283543093852057</speed>
  <fix>3d</fix>
</trkpt>
<trkpt lat="33.8101172" lon="-118.3940887">
  <ele>-0.113</ele>
  <time>2026-09-02T22:07:22Z</time>
  <course>186.25</course>
  <speed>0.7283543093852057</speed>
  <fix>3d</fix>
</trkpt>
<trkpt lat="33.8101172" lon="-118.3940888">
  <ele>-0.113</ele>
  <time>2026-09-02T22:07:22Z</time>
  <course>186.25</course>
  <speed>0.7283543093852057</speed>
  <fix>3d</fix>
</trkpt>
<trkpt lat="33.8101171" lon="-118.3940888">
  <ele>-0.113</ele>
  <time>2026-09-02T22:07:22Z</time>
  <course>186.25</course>
  <speed>0.7283543093852057</speed>
  <fix>3d</fix>
</trkpt>
<trkpt lat="33.8101171" lon="-118.3940889">
  <ele>-0.113</ele>
  <time>2026-09-02T22:07:22Z</time>
  <course>186.25</course>
  <speed>0.7283543093852057</speed>
  <fix>3d</fix>
</trkpt>
<trkpt lat="33.8101171" lon="-118.3940889">
  <ele>-0.113</ele>
  <time>2026-09-02T22:07:22Z</time>
  <course>186.25</course>
  <speed>0.7283543093852057</speed>
  <fix>3d</fix>
</trkpt>
<trkpt lat="33.810118" lon="-118.3940874">
  <ele>-0.1</ele>
  <time>2026-09-02T22:07:22Z</time>
  <course>223.26</course>
  <speed>0.73</speed>
  <fix>3d</fix>
</trkpt>
<trkpt lat="33.8101171" lon="-118.3940889">
  <ele>-0.113</ele>
  <time>2026-09-02T22:07:22Z</time>
  <course>186.25</course>
  <speed>0.7283543093852057</speed>
  <fix>3d</fix>
</trkpt>
<trkpt lat="33.810117" lon="-118.394089">
  <ele>-0.113</ele>
  <time>2026-09-02T22:07:22Z</time>
  <course>186.25</course>
  <speed>0.7283543093852057</speed>
  <fix>3d</fix>
</trkpt>
<trkpt lat="33.810117" lon="-118.394089">
  <ele>-0.113</ele>
  <time>2026-09-02T22:07:22Z</time>
  <course>186.25</course>
  <speed>0.7283543093852057</speed>
  <fix>3d</fix>
</trkpt>
<trkpt lat="33.8101169" lon="-118.3940891">
  <ele>-0.113</ele>
  <time>2026-09-02T22:07:22Z</time>
  <course>186.25</course>
  <speed>0.7283543093852057</speed>
  <fix>3d</fix>
</trkpt>
<trkpt lat="33.8101169" lon="-118.3940891">
  <ele>-0.113</ele>
  <time>2026-09-02T22:07:22Z</time>
  <course>186.25</course>
  <speed>0.7283543093852057</speed>
  <fix>3d</fix>
</trkpt>
<trkpt lat="33.8101169" lon="-118.3940891">
  <ele>-0.113</ele>
  <time>2026-09-02T22:07:22Z</time>
  <course>186.25</course>
  <speed>0.7283543093852057</speed>
  <fix>3d</fix>
</trkpt>
<trkpt lat="33.8101168" lon="-118.3940892">
  <ele>-0.113</ele>
  <time>2026-09-02T22:07:22Z</time>
  <course>186.25</course>
  <speed>0.7283543093852057</speed>
  <fix>3d</fix>
</trkpt>
<trkpt lat="33.8101168" lon="-118.3940892">
  <ele>-0.113</ele>
  <time>2026-09-02T22:07:22Z</time>
  <course>186.25</course>
  <speed>0.7283543093852057</speed>
  <fix>3d</fix>
</trkpt>
<trkpt lat="33.8101168" lon="-118.3940893">
  <ele>-0.113</ele>
  <time>2026-09-02T22:07:22Z</time>
  <course>186.25</course>
  <speed>0.7283543093852057</speed>
  <fix>3d</fix>
</trkpt>
<trkpt lat="33.8101167" lon="-118.3940893">
  <ele>-0.113</ele>
  <time>2026-09-02T22:07:22Z</time>
  <course>186.25</course>
  <speed>0.7283543093852057</speed>
  <fix>3d</fix>
</trkpt>
<trkpt lat="33.8101167" lon="-118.3940894">
  <ele>-0.113</ele>
  <time>2026-09-02T22:07:22Z</time>
  <course>186.25</course>
  <speed>0.7283543093852057</speed>
  <fix>3d</fix>
</trkpt>
<trkpt lat="33.8101166" lon="-118.3940894">
  <ele>-0.113</ele>
  <time>2026-09-02T22:07:22Z</time>
  <course>186.25</course>
  <speed>0.7283543093852057</speed>
  <fix>3d</fix>
</trkpt>
<trkpt lat="33.8101166" lon="-118.3940894">
  <ele>-0.113</ele>
  <time>2026-09-02T22:07:22Z</time>
  <course>186.25</course>
  <speed>0.7283543093852057</speed>
  <fix>3d</fix>
</trkpt>
<trkpt lat="33.8101171" lon="-118.3940884">
  <ele>-0.1</ele>
  <time>2026-09-02T22:07:22Z</time>
  <course>223.26</course>
  <speed>0.73</speed>
  <fix>3d</fix>
</trkpt>
<trkpt lat="33.8101166" lon="-118.3940895">
  <ele>-0.113</ele>
  <time>2026-09-02T22:07:22Z</time>
  <course>186.25</course>
  <speed>0.7283543093852057</speed>
  <fix>3d</fix>
</trkpt>
<trkpt lat="33.8101165" lon="-118.3940895">
  <ele>-0.113</ele>
  <time>2026-09-02T22:07:22Z</time>
  <course>186.25</course>
  <speed>0.7283543093852057</speed>
  <fix>3d</fix>
</trkpt>
<trkpt lat="33.8101165" lon="-118.3940896">
  <ele>-0.113</ele>
  <time>2026-09-02T22:07:22Z</time>
  <course>186.25</course>
  <speed>0.7283543093852057</speed>
  <fix>3d</fix>
</trkpt>
<trkpt lat="33.8101164" lon="-118.3940896">
  <ele>-0.113</ele>
  <time>2026-09-02T22:07:22Z</time>
  <course>186.25</course>
  <speed>0.7283543093852057</speed>
  <fix>3d</fix>
</trkpt>
<trkpt lat="33.8101164" lon="-118.3940897">
  <ele>-0.113</ele>
  <time>2026-09-02T22:07:22Z</time>
  <course>186.25</course>
  <speed>0.7283543093852057</speed>
  <fix>3d</fix>
</trkpt>
<trkpt lat="33.8101163" lon="-118.3940897">
  <ele>-0.113</ele>
  <time>2026-09-02T22:07:22Z</time>
  <course>186.25</course>
  <speed>0.7283543093852057</speed>
  <fix>3d</fix>
</trkpt>
<trkpt lat="33.8101163" lon="-118.3940898">
  <ele>-0.113</ele>
  <time>2026-09-02T22:07:22Z</time>
  <course>186.25</course>
  <speed>0.7283543093852057</speed>
  <fix>3d</fix>
</trkpt>
<trkpt lat="33.8101163" lon="-118.3940898">
  <ele>-0.113</ele>
  <time>2026-09-02T22:07:22Z</time>
  <course>186.25</course>
  <speed>0.7283543093852057</speed>
  <fix>3d</fix>
</trkpt>
<trkpt lat="33.8101162" lon="-118.3940899">
  <ele>-0.113</ele>
  <time>2026-09-02T22:07:22Z</time>
  <course>186.25</course>
  <speed>0.7283543093852057</speed>
  <fix>3d</fix>
</trkpt>
<trkpt lat="33.8101162" lon="-118.3940899">
  <ele>-0.113</ele>
  <time>2026-09-02T22:07:22Z</time>
  <course>186.25</course>
  <speed>0.7283543093852057</speed>
  <fix>3d</fix>
</trkpt>
<trkpt lat="33.8101161" lon="-118.39409">
  <ele>-0.113</ele>
  <time>2026-09-02T22:07:22Z</time>
  <course>186.25</course>
  <speed>0.7283543093852057</speed>
  <fix>3d</fix>
</trkpt>
<trkpt lat="33.8101161" lon="-118.39409">
  <ele>-0.113</ele>
  <time>2026-09-02T22:07:22Z</time>
  <course>186.25</course>
  <speed>0.7283543093852057</speed>
  <fix>3d</fix>
</trkpt>
<trkpt lat="33.8101171" lon="-118.3940884">
  <ele>-0.1</ele>
  <time>2026-09-02T22:07:22Z</time>
  <course>223.26</course>
  <speed>0.73</speed>
  <fix>3d</fix>
</trkpt>
<trkpt lat="33.8101161" lon="-118.39409">
  <ele>-0.113</ele>
  <time>2026-09-02T22:07:22Z</time>
  <course>186.25</course>
  <speed>0.7283543093852057</speed>
  <fix>3d</fix>
</trkpt>
<trkpt lat="33.810116" lon="-118.3940901">
  <ele>-0.113</ele>
  <time>2026-09-02T22:07:22Z</time>
  <course>186.25</course>
  <speed>0.7283543093852057</speed>
  <fix>3d</fix>
</trkpt>
<trkpt lat="33.810116" lon="-118.3940901">
  <ele>-0.113</ele>
  <time>2026-09-02T22:07:22Z</time>
  <course>186.25</course>
  <speed>0.7283543093852057</speed>
  <fix>3d</fix>
</trkpt>
<trkpt lat="33.8101159" lon="-118.3940902">
  <ele>-0.113</ele>
  <time>2026-09-02T22:07:22Z</time>
  <course>186.25</course>
  <speed>0.7283543093852057</speed>
  <fix>3d</fix>
</trkpt>
<trkpt lat="33.8101159" lon="-118.3940902">
  <ele>-0.113</ele>
  <time>2026-09-02T22:07:22Z</time>
  <course>186.25</course>
  <speed>0.7283543093852057</speed>
  <fix>3d</fix>
</trkpt>
<trkpt lat="33.8101159" lon="-118.3940903">
  <ele>-0.113</ele>
  <time>2026-09-02T22:07:22Z</time>
  <course>186.25</course>
  <speed>0.7283543093852057</speed>
  <fix>3d</fix>
</trkpt>
<trkpt lat="33.8101158" lon="-118.3940903">
  <ele>-0.113</ele>
  <time>2026-09-02T22:07:22Z</time>
  <course>186.25</course>
  <speed>0.7283543093852057</speed>
  <fix>3d</fix>
</trkpt>
<trkpt lat="33.8101158" lon="-118.3940904">
  <ele>-0.113</ele>
  <time>2026-09-02T22:07:22Z</time>
  <course>186.25</course>
  <speed>0.7283543093852057</speed>
  <fix>3d</fix>
</trkpt>
<trkpt lat="33.8101157" lon="-118.3940904">
  <ele>-0.113</ele>
  <time>2026-09-02T22:07:22Z</time>
  <course>186.25</course>
  <speed>0.7283543093852057</speed>
  <fix>3d</fix>
</trkpt>
<trkpt lat="33.8101157" lon="-118.3940905">
  <ele>-0.113</ele>
  <time>2026-09-02T22:07:22Z</time>
  <course>186.25</course>
  <speed>0.7283543093852057</speed>
  <fix>3d</fix>
</trkpt>
<trkpt lat="33.8101156" lon="-118.3940905">
  <ele>-0.113</ele>
  <time>2026-09-02T22:07:22Z</time>
  <course>186.25</course>
  <speed>0.7283543093852057</speed>
  <fix>3d</fix>
</trkpt>
<trkpt lat="33.8101156" lon="-118.3940905">
  <ele>-0.113</ele>
  <time>2026-09-02T22:07:22Z</time>
  <course>186.25</course>
  <speed>0.7283543093852057</speed>
  <fix>3d</fix>
</trkpt>
<trkpt lat="33.8101161" lon="-118.3940895">
  <ele>-0.1</ele>
  <time>2026-09-02T22:07:22Z</time>
  <course>223.26</course>
  <speed>0.73</speed>
  <fix>3d</fix>
</trkpt>
<trkpt lat="33.8101156" lon="-118.3940905">
  <ele>-0.113</ele>
  <time>2026-09-02T22:07:22Z</time>
  <course>186.25</course>
  <speed>0.7283543093852057</speed>
  <fix>3d</fix>
</trkpt>
<trkpt lat="33.8101155" lon="-118.3940906">
  <ele>-0.113</ele>
  <time>2026-09-02T22:07:22Z</time>
  <course>186.25</course>
  <speed>0.7283543093852057</speed>
  <fix>3d</fix>
</trkpt>
<trkpt lat="33.8101155" lon="-118.3940907">
  <ele>-0.113</ele>
  <time>2026-09-02T22:07:22Z</time>
  <course>186.25</course>
  <speed>0.7283543093852057</speed>
  <fix>3d</fix>
</trkpt>
<trkpt lat="33.8101155" lon="-118.3940907">
  <ele>-0.113</ele>
  <time>2026-09-02T22:07:22Z</time>
  <course>186.25</course>
  <speed>0.7283543093852057</speed>
  <fix>3d</fix>
</trkpt>
<trkpt lat="33.8101154" lon="-118.3940908">
  <ele>-0.113</ele>
  <time>2026-09-02T22:07:22Z</time>
  <course>186.25</course>
  <speed>0.7283543093852057</speed>
  <fix>3d</fix>
</trkpt>
<trkpt lat="33.8101154" lon="-118.3940908">
  <ele>-0.113</ele>
  <time>2026-09-02T22:07:22Z</time>
  <course>186.25</course>
  <speed>0.7283543093852057</speed>
  <fix>3d</fix>
</trkpt>
<trkpt lat="33.8101153" lon="-118.3940909">
  <ele>-0.113</ele>
  <time>2026-09-02T22:07:22Z</time>
  <course>186.25</course>
  <speed>0.7283543093852057</speed>
  <fix>3d</fix>
</trkpt>
<trkpt lat="33.8101153" lon="-118.3940909">
  <ele>-0.113</ele>
  <time>2026-09-02T22:07:22Z</time>
  <course>186.25</course>
  <speed>0.7283543093852057</speed>
  <fix>3d</fix>
</trkpt>
<trkpt lat="33.8101152" lon="-118.394091">
  <ele>-0.113</ele>
  <time>2026-09-02T22:07:22Z</time>
  <course>186.25</course>
  <speed>0.7283543093852057</speed>
  <fix>3d</fix>
</trkpt>
<trkpt lat="33.8101152" lon="-118.394091">
  <ele>-0.113</ele>
  <time>2026-09-02T22:07:22Z</time>
  <course>186.25</course>
  <speed>0.7283543093852057</speed>
  <fix>3d</fix>
</trkpt>
<trkpt lat="33.8101151" lon="-118.3940911">
  <ele>-0.113</ele>
  <time>2026-09-02T22:07:22Z</time>
  <course>186.25</course>
  <speed>0.7283543093852057</speed>
  <fix>3d</fix>
</trkpt>
<trkpt lat="33.8101151" lon="-118.3940911">
  <ele>-0.113</ele>
  <time>2026-09-02T22:07:22Z</time>
  <course>186.25</course>
  <speed>0.7283543093852057</speed>
  <fix>3d</fix>
</trkpt>
<trkpt lat="33.8101161" lon="-118.3940895">
  <ele>-0.1</ele>
  <time>2026-09-02T22:07:22Z</time>
  <course>223.26</course>
  <speed>0.73</speed>
  <fix>3d</fix>
</trkpt>
<trkpt lat="33.810115" lon="-118.3940912">
  <ele>-0.113</ele>
  <time>2026-09-02T22:07:22Z</time>
  <course>186.25</course>
  <speed>0.7283543093852057</speed>
  <fix>3d</fix>
</trkpt>
<trkpt lat="33.810115" lon="-118.3940912">
  <ele>-0.113</ele>
  <time>2026-09-02T22:07:22Z</time>
  <course>186.25</course>
  <speed>0.7283543093852057</speed>
  <fix>3d</fix>
</trkpt>
<trkpt lat="33.8101149" lon="-118.3940913">
  <ele>-0.113</ele>
  <time>2026-09-02T22:07:22Z</time>
  <course>186.25</course>
  <speed>0.7283543093852057</speed>
  <fix>3d</fix>
</trkpt>
<trkpt lat="33.8101149" lon="-118.3940913">
  <ele>-0.113</ele>
  <time>2026-09-02T22:07:22Z</time>
  <course>186.25</course>
  <speed>0.7283543093852057</speed>
  <fix>3d</fix>
</trkpt>
<trkpt lat="33.8101149" lon="-118.3940914">
  <ele>-0.113</ele>
  <time>2026-09-02T22:07:22Z</time>
  <course>186.25</course>
  <speed>0.7283543093852057</speed>
  <fix>3d</fix>
</trkpt>
<trkpt lat="33.8101148" lon="-118.3940914">
  <ele>-0.113</ele>
  <time>2026-09-02T22:07:22Z</time>
  <course>186.25</course>
  <speed>0.7283543093852057</speed>
  <fix>3d</fix>
</trkpt>
<trkpt lat="33.8101148" lon="-118.3940915">
  <ele>-0.113</ele>
  <time>2026-09-02T22:07:22Z</time>
  <course>186.25</course>
  <speed>0.7283543093852057</speed>
  <fix>3d</fix>
</trkpt>
<trkpt lat="33.8101147" lon="-118.3940915">
  <ele>-0.113</ele>
  <time>2026-09-02T22:07:22Z</time>
  <course>186.25</course>
  <speed>0.7283543093852057</speed>
  <fix>3d</fix>
</trkpt>
<trkpt lat="33.8101147" lon="-118.3940916">
  <ele>-0.113</ele>
  <time>2026-09-02T22:07:22Z</time>
  <course>186.25</course>
  <speed>0.7283543093852057</speed>
  <fix>3d</fix>
</trkpt>
<trkpt lat="33.8101147" lon="-118.3940916">
  <ele>-0.113</ele>
  <time>2026-09-02T22:07:22Z</time>
  <course>186.25</course>
  <speed>0.7283543093852057</speed>
  <fix>3d</fix>
</trkpt>
<trkpt lat="33.8101147" lon="-118.3940916">
  <ele>-0.113</ele>
  <time>2026-09-02T22:07:22Z</time>
  <course>186.25</course>
  <speed>0.7283543093852057</speed>
  <fix>3d</fix>
</trkpt>
<trkpt lat="33.8101152" lon="-118.3940906">
  <ele>-0.11</ele>
  <time>2026-09-02T22:07:22Z</time>
  <course>223.26</course>
  <speed>0.73</speed>
  <fix>3d</fix>
</trkpt>
<trkpt lat="33.8101146" lon="-118.3940917">
  <ele>-0.113</ele>
  <time>2026-09-02T22:07:22Z</time>
  <course>186.25</course>
  <speed>0.7283543093852057</speed>
  <fix>3d</fix>
</trkpt>
<trkpt lat="33.8101145" lon="-118.3940917">
  <ele>-0.113</ele>
  <time>2026-09-02T22:07:22Z</time>
  <course>186.25</course>
  <speed>0.7283543093852057</speed>
  <fix>3d</fix>
</trkpt>
<trkpt lat="33.8101145" lon="-118.3940918">
  <ele>-0.113</ele>
  <time>2026-09-02T22:07:22Z</time>
  <course>186.25</course>
  <speed>0.7283543093852057</speed>
  <fix>3d</fix>
</trkpt>
<trkpt lat="33.8101144" lon="-118.3940919">
  <ele>-0.113</ele>
  <time>2026-09-02T22:07:22Z</time>
  <course>186.25</course>
  <speed>0.7283543093852057</speed>
  <fix>3d</fix>
</trkpt>
<trkpt lat="33.8101144" lon="-118.3940919">
  <ele>-0.113</ele>
  <time>2026-09-02T22:07:22Z</time>
  <course>186.25</course>
  <speed>0.7283543093852057</speed>
  <fix>3d</fix>
</trkpt>
<trkpt lat="33.8101144" lon="-118.3940919">
  <ele>-0.113</ele>
  <time>2026-09-02T22:07:22Z</time>
  <course>186.25</course>
  <speed>0.7283543093852057</speed>
  <fix>3d</fix>
</trkpt>
<trkpt lat="33.8101143" lon="-118.394092">
  <ele>-0.112</ele>
  <time>2026-09-02T22:07:22Z</time>
  <course>186.25</course>
  <speed>0.7283543093852057</speed>
  <fix>3d</fix>
</trkpt>
<trkpt lat="33.8101143" lon="-118.394092">
  <ele>-0.112</ele>
  <time>2026-09-02T22:07:22Z</time>
  <course>186.25</course>
  <speed>0.7283543093852057</speed>
  <fix>3d</fix>
</trkpt>
<trkpt lat="33.8101143" lon="-118.3940921">
  <ele>-0.112</ele>
  <time>2026-09-02T22:07:22Z</time>
  <course>186.25</course>
  <speed>0.7283543093852057</speed>
  <fix>3d</fix>
</trkpt>
<trkpt lat="33.8101142" lon="-118.3940921">
  <ele>-0.112</ele>
  <time>2026-09-02T22:07:22Z</time>
  <course>186.25</course>
  <speed>0.7283543093852057</speed>
  <fix>3d</fix>
</trkpt>
<trkpt lat="33.8101142" lon="-118.3940922">
  <ele>-0.112</ele>
  <time>2026-09-02T22:07:22Z</time>
  <course>186.25</course>
  <speed>0.7283543093852057</speed>
  <fix>3d</fix>
</trkpt>
<trkpt lat="33.8101152" lon="-118.3940906">
  <ele>-0.11</ele>
  <time>2026-09-02T22:07:22Z</time>
  <course>223.26</course>
  <speed>0.73</speed>
  <fix>3d</fix>
</trkpt>
<trkpt lat="33.8101142" lon="-118.3940922">
  <ele>-0.112</ele>
  <time>2026-09-02T22:07:22Z</time>
  <course>186.25</course>
  <speed>0.7283543093852057</speed>
  <fix>3d</fix>
</trkpt>
<trkpt lat="33.8101141" lon="-118.3940923">
  <ele>-0.112</ele>
  <time>2026-09-02T22:07:22Z</time>
  <course>186.25</course>
  <speed>0.7283543093852057</speed>
  <fix>3d</fix>
</trkpt>
<trkpt lat="33.810114" lon="-118.3940923">
  <ele>-0.112</ele>
  <time>2026-09-02T22:07:22Z</time>
  <course>186.25</course>
  <speed>0.7283543093852057</speed>
  <fix>3d</fix>
</trkpt>
<trkpt lat="33.810114" lon="-118.3940924">
  <ele>-0.112</ele>
  <time>2026-09-02T22:07:22Z</time>
  <course>186.25</course>
  <speed>0.7283543093852057</speed>
  <fix>3d</fix>
</trkpt>
<trkpt lat="33.810114" lon="-118.3940924">
  <ele>-0.111</ele>
  <time>2026-09-02T22:07:22Z</time>
  <course>186.25</course>
  <speed>0.7283543093852057</speed>
  <fix>3d</fix>
</trkpt>
<trkpt lat="33.8101139" lon="-118.3940925">
  <ele>-0.111</ele>
  <time>2026-09-02T22:07:22Z</time>
  <course>186.25</course>
  <speed>0.7283543093852057</speed>
  <fix>3d</fix>
</trkpt>
<trkpt lat="33.8101139" lon="-118.3940925">
  <ele>-0.111</ele>
  <time>2026-09-02T22:07:22Z</time>
  <course>186.25</course>
  <speed>0.7283543093852057</speed>
  <fix>3d</fix>
</trkpt>
<trkpt lat="33.8101138" lon="-118.3940925">
  <ele>-0.111</ele>
  <time>2026-09-02T22:07:22Z</time>
  <course>186.25</course>
  <speed>0.7283543093852057</speed>
  <fix>3d</fix>
</trkpt>
<trkpt lat="33.8101138" lon="-118.3940926">
  <ele>-0.111</ele>
  <time>2026-09-02T22:07:22Z</time>
  <course>186.25</course>
  <speed>0.7283543093852057</speed>
  <fix>3d</fix>
</trkpt>
<trkpt lat="33.8101137" lon="-118.3940927">
  <ele>-0.111</ele>
  <time>2026-09-02T22:07:22Z</time>
  <course>186.25</course>
  <speed>0.7283543093852057</speed>
  <fix>3d</fix>
</trkpt>
<trkpt lat="33.8101137" lon="-118.3940927">
  <ele>-0.111</ele>
  <time>2026-09-02T22:07:22Z</time>
  <course>186.25</course>
  <speed>0.7283543093852057</speed>
  <fix>3d</fix>
</trkpt>
<trkpt lat="33.8101137" lon="-118.3940927">
  <ele>-0.111</ele>
  <time>2026-09-02T22:07:22Z</time>
  <course>186.25</course>
  <speed>0.7283543093852057</speed>
  <fix>3d</fix>
</trkpt>
<trkpt lat="33.8101142" lon="-118.3940917">
  <ele>-0.1</ele>
  <time>2026-09-02T22:07:22Z</time>
  <course>223.26</course>
  <speed>0.73</speed>
  <fix>3d</fix>
</trkpt>
<trkpt lat="33.8101136" lon="-118.3940928">
  <ele>-0.111</ele>
  <time>2026-09-02T22:07:22Z</time>
  <course>186.25</course>
  <speed>0.7283543093852057</speed>
  <fix>3d</fix>
</trkpt>
<trkpt lat="33.8101136" lon="-118.3940928">
  <ele>-0.111</ele>
  <time>2026-09-02T22:07:22Z</time>
  <course>186.25</course>
  <speed>0.7283543093852057</speed>
  <fix>3d</fix>
</trkpt>
<trkpt lat="33.8101136" lon="-118.3940929">
  <ele>-0.111</ele>
  <time>2026-09-02T22:07:22Z</time>
  <course>186.25</course>
  <speed>0.7283543093852057</speed>
  <fix>3d</fix>
</trkpt>
<trkpt lat="33.8101135" lon="-118.3940929">
  <ele>-0.111</ele>
  <time>2026-09-02T22:07:22Z</time>
  <course>186.25</course>
  <speed>0.7283543093852057</speed>
  <fix>3d</fix>
</trkpt>
<trkpt lat="33.8101135" lon="-118.394093">
  <ele>-0.11</ele>
  <time>2026-09-02T22:07:22Z</time>
  <course>186.25</course>
  <speed>0.7283543093852057</speed>
  <fix>3d</fix>
</trkpt>
<trkpt lat="33.8101134" lon="-118.394093">
  <ele>-0.11</ele>
  <time>2026-09-02T22:07:22Z</time>
  <course>186.25</course>
  <speed>0.7283543093852057</speed>
  <fix>3d</fix>
</trkpt>
<trkpt lat="33.8101134" lon="-118.3940931">
  <ele>-0.11</ele>
  <time>2026-09-02T22:07:22Z</time>
  <course>186.25</course>
  <speed>0.7283543093852057</speed>
  <fix>3d</fix>
</trkpt>
<trkpt lat="33.8101133" lon="-118.3940931">
  <ele>-0.11</ele>
  <time>2026-09-02T22:07:22Z</time>
  <course>186.25</course>
  <speed>0.7283543093852057</speed>
  <fix>3d</fix>
</trkpt>
<trkpt lat="33.8101133" lon="-118.3940932">
  <ele>-0.11</ele>
  <time>2026-09-02T22:07:22Z</time>
  <course>186.25</course>
  <speed>0.7283543093852057</speed>
  <fix>3d</fix>
</trkpt>
<trkpt lat="33.8101132" lon="-118.3940932">
  <ele>-0.11</ele>
  <time>2026-09-02T22:07:22Z</time>
  <course>186.25</course>
  <speed>0.7283543093852057</speed>
  <fix>3d</fix>
</trkpt>
<trkpt lat="33.8101132" lon="-118.3940932">
  <ele>-0.11</ele>
  <time>2026-09-02T22:07:22Z</time>
  <course>186.25</course>
  <speed>0.7283543093852057</speed>
  <fix>3d</fix>
</trkpt>
<trkpt lat="33.8101142" lon="-118.3940917">
  <ele>-0.1</ele>
  <time>2026-09-02T22:07:22Z</time>
  <course>223.26</course>
  <speed>0.73</speed>
  <fix>3d</fix>
</trkpt>
<trkpt lat="33.8101132" lon="-118.3940933">
  <ele>-0.11</ele>
  <time>2026-09-02T22:07:22Z</time>
  <course>186.25</course>
  <speed>0.7283543093852057</speed>
  <fix>3d</fix>
</trkpt>
<trkpt lat="33.8101132" lon="-118.3940933">
  <ele>-0.11</ele>
  <time>2026-09-02T22:07:22Z</time>
  <course>186.25</course>
  <speed>0.7283543093852057</speed>
  <fix>3d</fix>
</trkpt>
<trkpt lat="33.8101131" lon="-118.3940934">
  <ele>-0.109</ele>
  <time>2026-09-02T22:07:22Z</time>
  <course>186.25</course>
  <speed>0.7283543093852057</speed>
  <fix>3d</fix>
</trkpt>
<trkpt lat="33.8101131" lon="-118.3940934">
  <ele>-0.109</ele>
  <time>2026-09-02T22:07:22Z</time>
  <course>186.25</course>
  <speed>0.7283543093852057</speed>
  <fix>3d</fix>
</trkpt>
<trkpt lat="33.810113" lon="-118.3940935">
  <ele>-0.109</ele>
  <time>2026-09-02T22:07:22Z</time>
  <course>186.25</course>
  <speed>0.7283543093852057</speed>
  <fix>3d</fix>
</trkpt>
<trkpt lat="33.810113" lon="-118.3940935">
  <ele>-0.109</ele>
  <time>2026-09-02T22:07:22Z</time>
  <course>186.25</course>
  <speed>0.7283543093852057</speed>
  <fix>3d</fix>
</trkpt>
<trkpt lat="33.8101129" lon="-118.3940936">
  <ele>-0.109</ele>
  <time>2026-09-02T22:07:22Z</time>
  <course>186.25</course>
  <speed>0.7283543093852057</speed>
  <fix>3d</fix>
</trkpt>
<trkpt lat="33.8101129" lon="-118.3940936">
  <ele>-0.109</ele>
  <time>2026-09-02T22:07:22Z</time>
  <course>186.25</course>
  <speed>0.7283543093852057</speed>
  <fix>3d</fix>
</trkpt>
<trkpt lat="33.8101129" lon="-118.3940937">
  <ele>-0.109</ele>
  <time>2026-09-02T22:07:22Z</time>
  <course>186.25</course>
  <speed>0.7283543093852057</speed>
  <fix>3d</fix>
</trkpt>
<trkpt lat="33.8101128" lon="-118.3940937">
  <ele>-0.109</ele>
  <time>2026-09-02T22:07:22Z</time>
  <course>186.25</course>
  <speed>0.7283543093852057</speed>
  <fix>3d</fix>
</trkpt>
<trkpt lat="33.8101128" lon="-118.3940937">
  <ele>-0.109</ele>
  <time>2026-09-02T22:07:22Z</time>
  <course>186.25</course>
  <speed>0.7283543093852057</speed>
  <fix>3d</fix>
</trkpt>
<trkpt lat="33.8101127" lon="-118.3940938">
  <ele>-0.109</ele>
  <time>2026-09-02T22:07:22Z</time>
  <course>186.25</course>
  <speed>0.7283543093852057</speed>
  <fix>3d</fix>
</trkpt>
<trkpt lat="33.8101127" lon="-118.3940938">
  <ele>-0.109</ele>
  <time>2026-09-02T22:07:22Z</time>
  <course>186.25</course>
  <speed>0.7283543093852057</speed>
  <fix>3d</fix>
</trkpt>
<trkpt lat="33.8101133" lon="-118.3940928">
  <ele>-0.1</ele>
  <time>2026-09-02T22:07:22Z</time>
  <course>223.26</course>
  <speed>0.73</speed>
  <fix>3d</fix>
</trkpt>
<trkpt lat="33.8101127" lon="-118.3940939">
  <ele>-0.109</ele>
  <time>2026-09-02T22:07:22Z</time>
  <course>186.25</course>
  <speed>0.7283543093852057</speed>
  <fix>3d</fix>
</trkpt>
<trkpt lat="33.8101126" lon="-118.3940939">
  <ele>-0.109</ele>
  <time>2026-09-02T22:07:22Z</time>
  <course>186.25</course>
  <speed>0.7283543093852057</speed>
  <fix>3d</fix>
</trkpt>
<trkpt lat="33.8101126" lon="-118.394094">
  <ele>-0.109</ele>
  <time>2026-09-02T22:07:22Z</time>
  <course>186.25</course>
  <speed>0.7283543093852057</speed>
  <fix>3d</fix>
</trkpt>
<trkpt lat="33.8101125" lon="-118.394094">
  <ele>-0.109</ele>
  <time>2026-09-02T22:07:22Z</time>
  <course>186.25</course>
  <speed>0.7283543093852057</speed>
  <fix>3d</fix>
</trkpt>
<trkpt lat="33.8101125" lon="-118.3940941">
  <ele>-0.109</ele>
  <time>2026-09-02T22:07:22Z</time>
  <course>186.25</course>
  <speed>0.7283543093852057</speed>
  <fix>3d</fix>
</trkpt>
<trkpt lat="33.8101124" lon="-118.3940941">
  <ele>-0.109</ele>
  <time>2026-09-02T22:07:22Z</time>
  <course>186.25</course>
  <speed>0.7283543093852057</speed>
  <fix>3d</fix>
</trkpt>
<trkpt lat="33.8101124" lon="-118.3940942">
  <ele>-0.109</ele>
  <time>2026-09-02T22:07:22Z</time>
  <course>186.25</course>
  <speed>0.7283543093852057</speed>
  <fix>3d</fix>
</trkpt>
<trkpt lat="33.8101124" lon="-118.3940942">
  <ele>-0.109</ele>
  <time>2026-09-02T22:07:22Z</time>
  <course>186.25</course>
  <speed>0.7283543093852057</speed>
  <fix>3d</fix>
</trkpt>
<trkpt lat="33.8101123" lon="-118.3940943">
  <ele>-0.109</ele>
  <time>2026-09-02T22:07:22Z</time>
  <course>186.25</course>
  <speed>0.7283543093852057</speed>
  <fix>3d</fix>
</trkpt>
<trkpt lat="33.8101123" lon="-118.3940943">
  <ele>-0.109</ele>
  <time>2026-09-02T22:07:22Z</time>
  <course>186.25</course>
  <speed>0.7283543093852057</speed>
  <fix>3d</fix>
</trkpt>
<trkpt lat="33.8101123" lon="-118.3940943">
  <ele>-0.109</ele>
  <time>2026-09-02T22:07:22Z</time>
  <course>186.25</course>
  <speed>0.7283543093852057</speed>
  <fix>3d</fix>
</trkpt>
<trkpt lat="33.8101133" lon="-118.3940928">
  <ele>-0.1</ele>
  <time>2026-09-02T22:07:22Z</time>
  <course>223.26</course>
  <speed>0.73</speed>
  <fix>3d</fix>
</trkpt>
<trkpt lat="33.8101123" lon="-118.3940943">
  <ele>-0.109</ele>
  <time>2026-09-02T22:07:22Z</time>
  <course>186.25</course>
  <speed>0.7283543093852057</speed>
  <fix>3d</fix>
</trkpt>
<trkpt lat="33.8101122" lon="-118.3940944">
  <ele>-0.109</ele>
  <time>2026-09-02T22:07:22Z</time>
  <course>186.25</course>
  <speed>0.7283543093852057</speed>
  <fix>3d</fix>
</trkpt>
<trkpt lat="33.8101122" lon="-118.3940945">
  <ele>-0.109</ele>
  <time>2026-09-02T22:07:22Z</time>
  <course>186.25</course>
  <speed>0.7283543093852057</speed>
  <fix>3d</fix>
</trkpt>
<trkpt lat="33.8101121" lon="-118.3940945">
  <ele>-0.109</ele>
  <time>2026-09-02T22:07:22Z</time>
  <course>186.25</course>
  <speed>0.7283543093852057</speed>
  <fix>3d</fix>
</trkpt>
<trkpt lat="33.8101121" lon="-118.3940946">
  <ele>-0.109</ele>
  <time>2026-09-02T22:07:22Z</time>
  <course>186.25</course>
  <speed>0.7283543093852057</speed>
  <fix>3d</fix>
</trkpt>
<trkpt lat="33.810112" lon="-118.3940946">
  <ele>-0.109</ele>
  <time>2026-09-02T22:07:22Z</time>
  <course>186.25</course>
  <speed>0.7283543093852057</speed>
  <fix>3d</fix>
</trkpt>
<trkpt lat="33.810112" lon="-118.3940946">
  <ele>-0.109</ele>
  <time>2026-09-02T22:07:22Z</time>
  <course>186.25</course>
  <speed>0.7283543093852057</speed>
  <fix>3d</fix>
</trkpt>
<trkpt lat="33.810112" lon="-118.3940947">
  <ele>-0.109</ele>
  <time>2026-09-02T22:07:22Z</time>
  <course>186.25</course>
  <speed>0.7283543093852057</speed>
  <fix>3d</fix>
</trkpt>
<trkpt lat="33.8101119" lon="-118.3940947">
  <ele>-0.108</ele>
  <time>2026-09-02T22:07:22Z</time>
  <course>186.25</course>
  <speed>0.7283543093852057</speed>
  <fix>3d</fix>
</trkpt>
<trkpt lat="33.8101119" lon="-118.3940948">
  <ele>-0.108</ele>
  <time>2026-09-02T22:07:22Z</time>
  <course>186.25</course>
  <speed>0.7283543093852057</speed>
  <fix>3d</fix>
</trkpt>
<trkpt lat="33.8101118" lon="-118.3940948">
  <ele>-0.108</ele>
  <time>2026-09-02T22:07:22Z</time>
  <course>186.25</course>
  <speed>0.7283543093852057</speed>
  <fix>3d</fix>
</trkpt>
<trkpt lat="33.8101118" lon="-118.3940949">
  <ele>-0.108</ele>
  <time>2026-09-02T22:07:22Z</time>
  <course>186.25</course>
  <speed>0.7283543093852057</speed>
  <fix>3d</fix>
</trkpt>
<trkpt lat="33.8101123" lon="-118.3940939">
  <ele>-0.1</ele>
  <time>2026-09-02T22:07:22Z</time>
  <course>223.26</course>
  <speed>0.73</speed>
  <fix>3d</fix>
</trkpt>
<trkpt lat="33.8101118" lon="-118.3940949">
  <ele>-0.108</ele>
  <time>2026-09-02T22:07:22Z</time>
  <course>186.25</course>
  <speed>0.7283543093852057</speed>
  <fix>3d</fix>
</trkpt>
<trkpt lat="33.8101117" lon="-118.394095">
  <ele>-0.108</ele>
  <time>2026-09-02T22:07:22Z</time>
  <course>186.25</course>
  <speed>0.7283543093852057</speed>
  <fix>3d</fix>
</trkpt>
<trkpt lat="33.8101117" lon="-118.394095">
  <ele>-0.108</ele>
  <time>2026-09-02T22:07:22Z</time>
  <course>186.25</course>
  <speed>0.7283543093852057</speed>
  <fix>3d</fix>
</trkpt>
<trkpt lat="33.8101116" lon="-118.3940951">
  <ele>-0.108</ele>
  <time>2026-09-02T22:07:22Z</time>
  <course>186.25</course>
  <speed>0.7283543093852057</speed>
  <fix>3d</fix>
</trkpt>
<trkpt lat="33.8101116" lon="-118.3940951">
  <ele>-0.108</ele>
  <time>2026-09-02T22:07:22Z</time>
  <course>186.25</course>
  <speed>0.7283543093852057</speed>
  <fix>3d</fix>
</trkpt>
<trkpt lat="33.8101115" lon="-118.3940952">
  <ele>-0.108</ele>
  <time>2026-09-02T22:07:22Z</time>
  <course>186.25</course>
  <speed>0.7283543093852057</speed>
  <fix>3d</fix>
</trkpt>
<trkpt lat="33.8101115" lon="-118.3940952">
  <ele>-0.108</ele>
  <time>2026-09-02T22:07:22Z</time>
  <course>186.25</course>
  <speed>0.7283543093852057</speed>
  <fix>3d</fix>
</trkpt>
<trkpt lat="33.8101114" lon="-118.3940953">
  <ele>-0.108</ele>
  <time>2026-09-02T22:07:22Z</time>
  <course>186.25</course>
  <speed>0.7283543093852057</speed>
  <fix>3d</fix>
</trkpt>
<trkpt lat="33.8101114" lon="-118.3940953">
  <ele>-0.108</ele>
  <time>2026-09-02T22:07:22Z</time>
  <course>186.25</course>
  <speed>0.7283543093852057</speed>
  <fix>3d</fix>
</trkpt>
<trkpt lat="33.8101114" lon="-118.3940954">
  <ele>-0.108</ele>
  <time>2026-09-02T22:07:22Z</time>
  <course>186.25</course>
  <speed>0.7283543093852057</speed>
  <fix>3d</fix>
</trkpt>
<trkpt lat="33.8101113" lon="-118.3940954">
  <ele>-0.107</ele>
  <time>2026-09-02T22:07:22Z</time>
  <course>186.25</course>
  <speed>0.7283543093852057</speed>
  <fix>3d</fix>
</trkpt>
<trkpt lat="33.8101113" lon="-118.3940954">
  <ele>-0.107</ele>
  <time>2026-09-02T22:07:22Z</time>
  <course>186.25</course>
  <speed>0.7283543093852057</speed>
  <fix>3d</fix>
</trkpt>
<trkpt lat="33.8101123" lon="-118.3940939">
  <ele>-0.1</ele>
  <time>2026-09-02T22:07:22Z</time>
  <course>223.26</course>
  <speed>0.73</speed>
  <fix>3d</fix>
</trkpt>
<trkpt lat="33.8101112" lon="-118.3940955">
  <ele>-0.107</ele>
  <time>2026-09-02T22:07:22Z</time>
  <course>186.25</course>
  <speed>0.7283543093852057</speed>
  <fix>3d</fix>
</trkpt>
<trkpt lat="33.8101112" lon="-118.3940956">
  <ele>-0.107</ele>
  <time>2026-09-02T22:07:22Z</time>
  <course>186.25</course>
  <speed>0.7283543093852057</speed>
  <fix>3d</fix>
</trkpt>
<trkpt lat="33.8101111" lon="-118.3940956">
  <ele>-0.107</ele>
  <time>2026-09-02T22:07:22Z</time>
  <course>186.25</course>
  <speed>0.7283543093852057</speed>
  <fix>3d</fix>
</trkpt>
<trkpt lat="33.8101111" lon="-118.3940957">
  <ele>-0.107</ele>
  <time>2026-09-02T22:07:22Z</time>
  <course>186.25</course>
  <speed>0.7283543093852057</speed>
  <fix>3d</fix>
</trkpt>
<trkpt lat="33.8101111" lon="-118.3940957">
  <ele>-0.107</ele>
  <time>2026-09-02T22:07:22Z</time>
  <course>186.25</course>
  <speed>0.7283543093852057</speed>
  <fix>3d</fix>
</trkpt>
<trkpt lat="33.810111" lon="-118.3940958">
  <ele>-0.107</ele>
  <time>2026-09-02T22:07:22Z</time>
  <course>186.25</course>
  <speed>0.7283543093852057</speed>
  <fix>3d</fix>
</trkpt>
<trkpt lat="33.810111" lon="-118.3940958">
  <ele>-0.107</ele>
  <time>2026-09-02T22:07:22Z</time>
  <course>186.25</course>
  <speed>0.7283543093852057</speed>
  <fix>3d</fix>
</trkpt>
<trkpt lat="33.8101109" lon="-118.3940959">
  <ele>-0.107</ele>
  <time>2026-09-02T22:07:22Z</time>
  <course>186.25</course>
  <speed>0.7283543093852057</speed>
  <fix>3d</fix>
</trkpt>
<trkpt lat="33.8101109" lon="-118.3940959">
  <ele>-0.107</ele>
  <time>2026-09-02T22:07:22Z</time>
  <course>186.25</course>
  <speed>0.7283543093852057</speed>
  <fix>3d</fix>
</trkpt>
<trkpt lat="33.8101108" lon="-118.394096">
  <ele>-0.107</ele>
  <time>2026-09-02T22:07:22Z</time>
  <course>186.25</course>
  <speed>0.7283543093852057</speed>
  <fix>3d</fix>
</trkpt>
<trkpt lat="33.8101108" lon="-118.394096">
  <ele>-0.107</ele>
  <time>2026-09-02T22:07:22Z</time>
  <course>186.25</course>
  <speed>0.7283543093852057</speed>
  <fix>3d</fix>
</trkpt>
<trkpt lat="33.8101113" lon="-118.394095">
  <ele>-0.1</ele>
  <time>2026-09-02T22:07:22Z</time>
  <course>223.26</course>
  <speed>0.73</speed>
  <fix>3d</fix>
</trkpt>
<trkpt lat="33.8101108" lon="-118.394096">
  <ele>-0.107</ele>
  <time>2026-09-02T22:07:22Z</time>
  <course>186.25</course>
  <speed>0.7283543093852057</speed>
  <fix>3d</fix>
</trkpt>
<trkpt lat="33.8101108" lon="-118.394096">
  <ele>-0.106</ele>
  <time>2026-09-02T22:07:22Z</time>
  <course>186.25</course>
  <speed>0.7283543093852057</speed>
  <fix>3d</fix>
</trkpt>
<trkpt lat="33.8101107" lon="-118.3940961">
  <ele>-0.106</ele>
  <time>2026-09-02T22:07:22Z</time>
  <course>186.25</course>
  <speed>0.7283543093852057</speed>
  <fix>3d</fix>
</trkpt>
<trkpt lat="33.8101107" lon="-118.3940962">
  <ele>-0.106</ele>
  <time>2026-09-02T22:07:22Z</time>
  <course>186.25</course>
  <speed>0.7283543093852057</speed>
  <fix>3d</fix>
</trkpt>
<trkpt lat="33.8101106" lon="-118.3940962">
  <ele>-0.106</ele>
  <time>2026-09-02T22:07:22Z</time>
  <course>186.25</course>
  <speed>0.7283543093852057</speed>
  <fix>3d</fix>
</trkpt>
<trkpt lat="33.8101106" lon="-118.3940963">
  <ele>-0.106</ele>
  <time>2026-09-02T22:07:22Z</time>
  <course>186.25</course>
  <speed>0.7283543093852057</speed>
  <fix>3d</fix>
</trkpt>
<trkpt lat="33.8101105" lon="-118.3940963">
  <ele>-0.106</ele>
  <time>2026-09-02T22:07:22Z</time>
  <course>186.25</course>
  <speed>0.7283543093852057</speed>
  <fix>3d</fix>
</trkpt>
<trkpt lat="33.8101105" lon="-118.3940963">
  <ele>-0.106</ele>
  <time>2026-09-02T22:07:22Z</time>
  <course>186.25</course>
  <speed>0.7283543093852057</speed>
  <fix>3d</fix>
</trkpt>
<trkpt lat="33.8101105" lon="-118.3940964">
  <ele>-0.106</ele>
  <time>2026-09-02T22:07:22Z</time>
  <course>186.25</course>
  <speed>0.7283543093852057</speed>
  <fix>3d</fix>
</trkpt>
<trkpt lat="33.8101104" lon="-118.3940964">
  <ele>-0.106</ele>
  <time>2026-09-02T22:07:22Z</time>
  <course>186.24</course>
  <speed>0.7283543093852057</speed>
  <fix>3d</fix>
</trkpt>
<trkpt lat="33.8101104" lon="-118.3940965">
  <ele>-0.106</ele>
  <time>2026-09-02T22:07:22Z</time>
  <course>186.24</course>
  <speed>0.7283543093852057</speed>
  <fix>3d</fix>
</trkpt>
<trkpt lat="33.8101104" lon="-118.3940965">
  <ele>-0.106</ele>
  <time>2026-09-02T22:07:22Z</time>
  <course>186.24</course>
  <speed>0.7283543093852057</speed>
  <fix>3d</fix>
</trkpt>
<trkpt lat="33.8101113" lon="-118.394095">
  <ele>-0.1</ele>
  <time>2026-09-02T22:07:22Z</time>
  <course>223.26</course>
  <speed>0.73</speed>
  <fix>3d</fix>
</trkpt>
<trkpt lat="33.8101103" lon="-118.3940965">
  <ele>-0.106</ele>
  <time>2026-09-02T22:07:22Z</time>
  <course>186.24</course>
  <speed>0.7283543093852057</speed>
  <fix>3d</fix>
</trkpt>
<trkpt lat="33.8101103" lon="-118.3940966">
  <ele>-0.106</ele>
  <time>2026-09-02T22:07:22Z</time>
  <course>186.24</course>
  <speed>0.7283543093852057</speed>
  <fix>3d</fix>
</trkpt>
<trkpt lat="33.8101102" lon="-118.3940966">
  <ele>-0.106</ele>
  <time>2026-09-02T22:07:22Z</time>
  <course>186.25</course>
  <speed>0.7283543093852057</speed>
  <fix>3d</fix>
</trkpt>
<trkpt lat="33.8101102" lon="-118.3940967">
  <ele>-0.106</ele>
  <time>2026-09-02T22:07:22Z</time>
  <course>186.25</course>
  <speed>0.7283543093852057</speed>
  <fix>3d</fix>
</trkpt>
<trkpt lat="33.8101101" lon="-118.3940968">
  <ele>-0.106</ele>
  <time>2026-09-02T22:07:22Z</time>
  <course>186.25</course>
  <speed>0.7283543093852057</speed>
  <fix>3d</fix>
</trkpt>
<trkpt lat="33.8101101" lon="-118.3940968">
  <ele>-0.106</ele>
  <time>2026-09-02T22:07:22Z</time>
  <course>186.25</course>
  <speed>0.7283543093852057</speed>
  <fix>3d</fix>
</trkpt>
<trkpt lat="33.8101101" lon="-118.3940968">
  <ele>-0.106</ele>
  <time>2026-09-02T22:07:22Z</time>
  <course>186.25</course>
  <speed>0.7283543093852057</speed>
  <fix>3d</fix>
</trkpt>
<trkpt lat="33.81011" lon="-118.3940969">
  <ele>-0.106</ele>
  <time>2026-09-02T22:07:22Z</time>
  <course>186.24</course>
  <speed>0.7283543093852057</speed>
  <fix>3d</fix>
</trkpt>
<trkpt lat="33.81011" lon="-118.3940969">
  <ele>-0.105</ele>
  <time>2026-09-02T22:07:22Z</time>
  <course>186.24</course>
  <speed>0.7283543093852057</speed>
  <fix>3d</fix>
</trkpt>
<trkpt lat="33.8101099" lon="-118.394097">
  <ele>-0.105</ele>
  <time>2026-09-02T22:07:22Z</time>
  <course>186.24</course>
  <speed>0.7283543093852057</speed>
  <fix>3d</fix>
</trkpt>
<trkpt lat="33.8101099" lon="-118.394097">
  <ele>-0.105</ele>
  <time>2026-09-02T22:07:22Z</time>
  <course>186.24</course>
  <speed>0.7283543093852057</speed>
  <fix>3d</fix>
</trkpt>
<trkpt lat="33.8101099" lon="-118.3940971">
  <ele>-0.105</ele>
  <time>2026-09-02T22:07:22Z</time>
  <course>186.24</course>
  <speed>0.7283543093852057</speed>
  <fix>3d</fix>
</trkpt>
<trkpt lat="33.8101099" lon="-118.3940971">
  <ele>-0.105</ele>
  <time>2026-09-02T22:07:22Z</time>
  <course>186.24</course>
  <speed>0.7283543093852057</speed>
  <fix>3d</fix>
</trkpt>
<trkpt lat="33.8101104" lon="-118.3940961">
  <ele>-0.11</ele>
  <time>2026-09-02T22:07:22Z</time>
  <course>223.26</course>
  <speed>0.73</speed>
  <fix>3d</fix>
</trkpt>
<trkpt lat="33.8101098" lon="-118.3940972">
  <ele>-0.105</ele>
  <time>2026-09-02T22:07:22Z</time>
  <course>186.24</course>
  <speed>0.7283543093852057</speed>
  <fix>3d</fix>
</trkpt>
<trkpt lat="33.8101098" lon="-118.3940972">
  <ele>-0.105</ele>
  <time>2026-09-02T22:07:22Z</time>
  <course>186.25</course>
  <speed>0.7283543093852057</speed>
  <fix>3d</fix>
</trkpt>
<trkpt lat="33.8101097" lon="-118.3940972">
  <ele>-0.105</ele>
  <time>2026-09-02T22:07:22Z</time>
  <course>186.25</course>
  <speed>0.7283543093852057</speed>
  <fix>3d</fix>
</trkpt>
<trkpt lat="33.8101096" lon="-118.3940973">
  <ele>-0.105</ele>
  <time>2026-09-02T22:07:22Z</time>
  <course>186.25</course>
  <speed>0.7283543093852057</speed>
  <fix>3d</fix>
</trkpt>
<trkpt lat="33.8101096" lon="-118.3940974">
  <ele>-0.105</ele>
  <time>2026-09-02T22:07:22Z</time>
  <course>186.24</course>
  <speed>0.7283543093852057</speed>
  <fix>3d</fix>
</trkpt>
<trkpt lat="33.8101096" lon="-118.3940974">
  <ele>-0.105</ele>
  <time>2026-09-02T22:07:22Z</time>
  <course>186.24</course>
  <speed>0.7283543093852057</speed>
  <fix>3d</fix>
</trkpt>
<trkpt lat="33.8101095" lon="-118.3940975">
  <ele>-0.105</ele>
  <time>2026-09-02T22:07:22Z</time>
  <course>186.24</course>
  <speed>0.7283543093852057</speed>
  <fix>3d</fix>
</trkpt>
<trkpt lat="33.8101095" lon="-118.3940975">
  <ele>-0.105</ele>
  <time>2026-09-02T22:07:22Z</time>
  <course>186.24</course>
  <speed>0.7283543093852057</speed>
  <fix>3d</fix>
</trkpt>
<trkpt lat="33.8101094" lon="-118.3940976">
  <ele>-0.105</ele>
  <time>2026-09-02T22:07:22Z</time>
  <course>186.24</course>
  <speed>0.7283543093852057</speed>
  <fix>3d</fix>
</trkpt>
<trkpt lat="33.8101094" lon="-118.3940976">
  <ele>-0.105</ele>
  <time>2026-09-02T22:07:22Z</time>
  <course>186.24</course>
  <speed>0.7283543093852057</speed>
  <fix>3d</fix>
</trkpt>
<trkpt lat="33.8101104" lon="-118.3940961">
  <ele>-0.11</ele>
  <time>2026-09-02T22:07:22Z</time>
  <course>223.26</course>
  <speed>0.73</speed>
  <fix>3d</fix>
</trkpt>
<trkpt lat="33.8101094" lon="-118.3940976">
  <ele>-0.105</ele>
  <time>2026-09-02T22:07:22Z</time>
  <course>186.24</course>
  <speed>0.7283543093852057</speed>
  <fix>3d</fix>
</trkpt>
<trkpt lat="33.8101093" lon="-118.3940977">
  <ele>-0.105</ele>
  <time>2026-09-02T22:07:22Z</time>
  <course>186.24</course>
  <speed>0.7283543093852057</speed>
  <fix>3d</fix>
</trkpt>
<trkpt lat="33.8101093" lon="-118.3940978">
  <ele>-0.105</ele>
  <time>2026-09-02T22:07:22Z</time>
  <course>186.24</course>
  <speed>0.7283543093852057</speed>
  <fix>3d</fix>
</trkpt>
<trkpt lat="33.8101092" lon="-118.3940978">
  <ele>-0.105</ele>
  <time>2026-09-02T22:07:22Z</time>
  <course>186.24</course>
  <speed>0.7283543093852057</speed>
  <fix>3d</fix>
</trkpt>
<trkpt lat="33.8101092" lon="-118.3940978">
  <ele>-0.105</ele>
  <time>2026-09-02T22:07:22Z</time>
  <course>186.24</course>
  <speed>0.7283543093852057</speed>
  <fix>3d</fix>
</trkpt>
<trkpt lat="33.8101092" lon="-118.3940979">
  <ele>-0.105</ele>
  <time>2026-09-02T22:07:22Z</time>
  <course>186.24</course>
  <speed>0.7283543093852057</speed>
  <fix>3d</fix>
</trkpt>
<trkpt lat="33.8101091" lon="-118.3940979">
  <ele>-0.105</ele>
  <time>2026-09-02T22:07:22Z</time>
  <course>186.24</course>
  <speed>0.7283543093852057</speed>
  <fix>3d</fix>
</trkpt>
<trkpt lat="33.8101091" lon="-118.394098">
  <ele>-0.104</ele>
  <time>2026-09-02T22:07:22Z</time>
  <course>186.24</course>
  <speed>0.7283543093852057</speed>
  <fix>3d</fix>
</trkpt>
<trkpt lat="33.810109" lon="-118.394098">
  <ele>-0.104</ele>
  <time>2026-09-02T22:07:22Z</time>
  <course>186.24</course>
  <speed>0.7283543093852057</speed>
  <fix>3d</fix>
</trkpt>
<trkpt lat="33.810109" lon="-118.3940981">
  <ele>-0.104</ele>
  <time>2026-09-02T22:07:22Z</time>
  <course>186.24</course>
  <speed>0.7283543093852057</speed>
  <fix>3d</fix>
</trkpt>
<trkpt lat="33.8101089" lon="-118.3940981">
  <ele>-0.104</ele>
  <time>2026-09-02T22:07:22Z</time>
  <course>186.24</course>
  <speed>0.7283543093852057</speed>
  <fix>3d</fix>
</trkpt>
<trkpt lat="33.8101089" lon="-118.3940982">
  <ele>-0.104</ele>
  <time>2026-09-02T22:07:22Z</time>
  <course>186.24</course>
  <speed>0.7283543093852057</speed>
  <fix>3d</fix>
</trkpt>
<trkpt lat="33.8101089" lon="-118.3940982">
  <ele>-0.104</ele>
  <time>2026-09-02T22:07:22Z</time>
  <course>186.24</course>
  <speed>0.7283543093852057</speed>
  <fix>3d</fix>
</trkpt>
<trkpt lat="33.8101094" lon="-118.3940972">
  <ele>-0.1</ele>
  <time>2026-09-02T22:07:22Z</time>
  <course>223.26</course>
  <speed>0.73</speed>
  <fix>3d</fix>
</trkpt>
<trkpt lat="33.8101089" lon="-118.3940982">
  <ele>-0.104</ele>
  <time>2026-09-02T22:07:22Z</time>
  <course>186.24</course>
  <speed>0.7283543093852057</speed>
  <fix>3d</fix>
</trkpt>
<trkpt lat="33.8101088" lon="-118.3940983">
  <ele>-0.104</ele>
  <time>2026-09-02T22:07:22Z</time>
  <course>186.24</course>
  <speed>0.7283543093852057</speed>
  <fix>3d</fix>
</trkpt>
<trkpt lat="33.8101088" lon="-118.3940983">
  <ele>-0.104</ele>
  <time>2026-09-02T22:07:22Z</time>
  <course>186.24</course>
  <speed>0.7283543093852057</speed>
  <fix>3d</fix>
</trkpt>
<trkpt lat="33.8101088" lon="-118.3940983">
  <ele>-0.104</ele>
  <time>2026-09-02T22:07:22Z</time>
  <course>186.24</course>
  <speed>0.7283543093852057</speed>
  <fix>3d</fix>
</trkpt>
<trkpt lat="33.8101087" lon="-118.3940984">
  <ele>-0.104</ele>
  <time>2026-09-02T22:07:22Z</time>
  <course>186.24</course>
  <speed>0.7283543093852057</speed>
  <fix>3d</fix>
</trkpt>
<trkpt lat="33.8101087" lon="-118.3940984">
  <ele>-0.104</ele>
  <time>2026-09-02T22:07:22Z</time>
  <course>186.24</course>
  <speed>0.7283543093852057</speed>
  <fix>3d</fix>
</trkpt>
<trkpt lat="33.8101087" lon="-118.3940984">
  <ele>-0.104</ele>
  <time>2026-09-02T22:07:22Z</time>
  <course>186.24</course>
  <speed>0.7283543093852057</speed>
  <fix>3d</fix>
</trkpt>
<trkpt lat="33.8101086" lon="-118.3940985">
  <ele>-0.104</ele>
  <time>2026-09-02T22:07:22Z</time>
  <course>186.24</course>
  <speed>0.7283543093852057</speed>
  <fix>3d</fix>
</trkpt>
<trkpt lat="33.8101086" lon="-118.3940985">
  <ele>-0.104</ele>
  <time>2026-09-02T22:07:22Z</time>
  <course>186.24</course>
  <speed>0.7283543093852057</speed>
  <fix>3d</fix>
</trkpt>
<trkpt lat="33.8101085" lon="-118.3940986">
  <ele>-0.104</ele>
  <time>2026-09-02T22:07:22Z</time>
  <course>186.24</course>
  <speed>0.7283543093852057</speed>
  <fix>3d</fix>
</trkpt>
<trkpt lat="33.8101085" lon="-118.3940986">
  <ele>-0.104</ele>
  <time>2026-09-02T22:07:22Z</time>
  <course>186.24</course>
  <speed>0.7283543093852057</speed>
  <fix>3d</fix>
</trkpt>
<trkpt lat="33.8101085" lon="-118.3940986">
  <ele>-0.104</ele>
  <time>2026-09-02T22:07:22Z</time>
  <course>186.24</course>
  <speed>0.7283543093852057</speed>
  <fix>3d</fix>
</trkpt>
<trkpt lat="33.8101084" lon="-118.3940987">
  <ele>-0.104</ele>
  <time>2026-09-02T22:07:22Z</time>
  <course>186.24</course>
  <speed>0.7283543093852057</speed>
  <fix>3d</fix>
</trkpt>
<trkpt lat="33.8101084" lon="-118.3940987">
  <ele>-0.104</ele>
  <time>2026-09-02T22:07:22Z</time>
  <course>186.24</course>
  <speed>0.7283543093852057</speed>
  <fix>3d</fix>
</trkpt>
<trkpt lat="33.8101094" lon="-118.3940972">
  <ele>-0.1</ele>
  <time>2026-09-02T22:07:22Z</time>
  <course>223.26</course>
  <speed>0.73</speed>
  <fix>3d</fix>
</trkpt>
<trkpt lat="33.8101084" lon="-118.3940987">
  <ele>-0.104</ele>
  <time>2026-09-02T22:07:22Z</time>
  <course>186.24</course>
  <speed>0.7283543093852057</speed>
  <fix>3d</fix>
</trkpt>
<trkpt lat="33.8101084" lon="-118.3940988">
  <ele>-0.104</ele>
  <time>2026-09-02T22:07:22Z</time>
  <course>186.24</course>
  <speed>0.7283543093852057</speed>
  <fix>3d</fix>
</trkpt>
<trkpt lat="33.8101083" lon="-118.3940988">
  <ele>-0.104</ele>
  <time>2026-09-02T22:07:22Z</time>
  <course>186.24</course>
  <speed>0.7283543093852057</speed>
  <fix>3d</fix>
</trkpt>
<trkpt lat="33.8101083" lon="-118.3940988">
  <ele>-0.104</ele>
  <time>2026-09-02T22:07:22Z</time>
  <course>186.24</course>
  <speed>0.7283543093852057</speed>
  <fix>3d</fix>
</trkpt>
<trkpt lat="33.8101083" lon="-118.3940989">
  <ele>-0.104</ele>
  <time>2026-09-02T22:07:22Z</time>
  <course>186.24</course>
  <speed>0.7283543093852057</speed>
  <fix>3d</fix>
</trkpt>
<trkpt lat="33.8101082" lon="-118.3940989">
  <ele>-0.104</ele>
  <time>2026-09-02T22:07:22Z</time>
  <course>186.24</course>
  <speed>0.7283543093852057</speed>
  <fix>3d</fix>
</trkpt>
<trkpt lat="33.8101082" lon="-118.394099">
  <ele>-0.104</ele>
  <time>2026-09-02T22:07:22Z</time>
  <course>186.24</course>
  <speed>0.7283543093852057</speed>
  <fix>3d</fix>
</trkpt>
<trkpt lat="33.8101082" lon="-118.394099">
  <ele>-0.104</ele>
  <time>2026-09-02T22:07:22Z</time>
  <course>186.24</course>
  <speed>0.7283543093852057</speed>
  <fix>3d</fix>
</trkpt>
<trkpt lat="33.8101081" lon="-118.394099">
  <ele>-0.104</ele>
  <time>2026-09-02T22:07:22Z</time>
  <course>186.24</course>
  <speed>0.7283543093852057</speed>
  <fix>3d</fix>
</trkpt>
<trkpt lat="33.8101081" lon="-118.3940991">
  <ele>-0.104</ele>
  <time>2026-09-02T22:07:22Z</time>
  <course>186.24</course>
  <speed>0.7283543093852057</speed>
  <fix>3d</fix>
</trkpt>
<trkpt lat="33.8101081" lon="-118.3940991">
  <ele>-0.104</ele>
  <time>2026-09-02T22:07:22Z</time>
  <course>186.24</course>
  <speed>0.7283543093852057</speed>
  <fix>3d</fix>
</trkpt>
<trkpt lat="33.810108" lon="-118.3940992">
  <ele>-0.104</ele>
  <time>2026-09-02T22:07:22Z</time>
  <course>186.24</course>
  <speed>0.7283543093852057</speed>
  <fix>3d</fix>
</trkpt>
<trkpt lat="33.810108" lon="-118.3940992">
  <ele>-0.104</ele>
  <time>2026-09-02T22:07:22Z</time>
  <course>186.24</course>
  <speed>0.7283543093852057</speed>
  <fix>3d</fix>
</trkpt>
<trkpt lat="33.810108" lon="-118.3940992">
  <ele>-0.104</ele>
  <time>2026-09-02T22:07:22Z</time>
  <course>186.24</course>
  <speed>0.7283543093852057</speed>
  <fix>3d</fix>
</trkpt>
<trkpt lat="33.810108" lon="-118.3940993">
  <ele>-0.104</ele>
  <time>2026-09-02T22:07:22Z</time>
  <course>186.24</course>
  <speed>0.7283543093852057</speed>
  <fix>3d</fix>
</trkpt>
<trkpt lat="33.8101085" lon="-118.3940983">
  <ele>-0.1</ele>
  <time>2026-09-02T22:07:22Z</time>
  <course>223.26</course>
  <speed>0.73</speed>
  <fix>3d</fix>
</trkpt>
<trkpt lat="33.8101079" lon="-118.3940993">
  <ele>-0.104</ele>
  <time>2026-09-02T22:07:22Z</time>
  <course>186.24</course>
  <speed>0.7283543093852057</speed>
  <fix>3d</fix>
</trkpt>
<trkpt lat="33.8101079" lon="-118.3940993">
  <ele>-0.104</ele>
  <time>2026-09-02T22:07:22Z</time>
  <course>186.24</course>
  <speed>0.7283543093852057</speed>
  <fix>3d</fix>
</trkpt>
<trkpt lat="33.8101079" lon="-118.3940994">
  <ele>-0.104</ele>
  <time>2026-09-02T22:07:22Z</time>
  <course>186.24</course>
  <speed>0.7283543093852057</speed>
  <fix>3d</fix>
</trkpt>
<trkpt lat="33.8101078" lon="-118.3940994">
  <ele>-0.104</ele>
  <time>2026-09-02T22:07:22Z</time>
  <course>186.24</course>
  <speed>0.7283543093852057</speed>
  <fix>3d</fix>
</trkpt>
<trkpt lat="33.8101078" lon="-118.3940994">
  <ele>-0.105</ele>
  <time>2026-09-02T22:07:22Z</time>
  <course>186.24</course>
  <speed>0.7283543093852057</speed>
  <fix>3d</fix>
</trkpt>
<trkpt lat="33.8101077" lon="-118.3940995">
  <ele>-0.105</ele>
  <time>2026-09-02T22:07:22Z</time>
  <course>186.24</course>
  <speed>0.7283543093852057</speed>
  <fix>3d</fix>
</trkpt>
<trkpt lat="33.8101077" lon="-118.3940995">
  <ele>-0.105</ele>
  <time>2026-09-02T22:07:22Z</time>
  <course>186.24</course>
  <speed>0.7283543093852057</speed>
  <fix>3d</fix>
</trkpt>
<trkpt lat="33.8101077" lon="-118.3940996">
  <ele>-0.105</ele>
  <time>2026-09-02T22:07:22Z</time>
  <course>186.24</course>
  <speed>0.7283543093852057</speed>
  <fix>3d</fix>
</trkpt>
<trkpt lat="33.8101076" lon="-118.3940996">
  <ele>-0.105</ele>
  <time>2026-09-02T22:07:22Z</time>
  <course>186.24</course>
  <speed>0.7283543093852057</speed>
  <fix>3d</fix>
</trkpt>
<trkpt lat="33.8101076" lon="-118.3940996">
  <ele>-0.105</ele>
  <time>2026-09-02T22:07:22Z</time>
  <course>186.24</course>
  <speed>0.7283543093852057</speed>
  <fix>3d</fix>
</trkpt>
<trkpt lat="33.8101076" lon="-118.3940997">
  <ele>-0.105</ele>
  <time>2026-09-02T22:07:22Z</time>
  <course>186.24</course>
  <speed>0.7283543093852057</speed>
  <fix>3d</fix>
</trkpt>
<trkpt lat="33.8101075" lon="-118.3940997">
  <ele>-0.106</ele>
  <time>2026-09-02T22:07:22Z</time>
  <course>186.24</course>
  <speed>0.7283543093852057</speed>
  <fix>3d</fix>
</trkpt>
<trkpt lat="33.8101075" lon="-118.3940998">
  <ele>-0.106</ele>
  <time>2026-09-02T22:07:22Z</time>
  <course>186.24</course>
  <speed>0.7283543093852057</speed>
  <fix>3d</fix>
</trkpt>
<trkpt lat="33.8101075" lon="-118.3940998">
  <ele>-0.106</ele>
  <time>2026-09-02T22:07:22Z</time>
  <course>186.24</course>
  <speed>0.7283543093852057</speed>
  <fix>3d</fix>
</trkpt>
<trkpt lat="33.8101085" lon="-118.3940983">
  <ele>-0.1</ele>
  <time>2026-09-02T22:07:22Z</time>
  <course>223.26</course>
  <speed>0.73</speed>
  <fix>3d</fix>
</trkpt>
<trkpt lat="33.8101075" lon="-118.3940998">
  <ele>-0.106</ele>
  <time>2026-09-02T22:07:22Z</time>
  <course>186.24</course>
  <speed>0.7283543093852057</speed>
  <fix>3d</fix>
</trkpt>
<trkpt lat="33.8101074" lon="-118.3940999">
  <ele>-0.106</ele>
  <time>2026-09-02T22:07:22Z</time>
  <course>186.24</course>
  <speed>0.7283543093852057</speed>
  <fix>3d</fix>
</trkpt>
<trkpt lat="33.8101074" lon="-118.3940999">
  <ele>-0.106</ele>
  <time>2026-09-02T22:07:22Z</time>
  <course>186.24</course>
  <speed>0.7283543093852057</speed>
  <fix>3d</fix>
</trkpt>
<trkpt lat="33.8101074" lon="-118.3940999">
  <ele>-0.106</ele>
  <time>2026-09-02T22:07:22Z</time>
  <course>186.24</course>
  <speed>0.7283543093852057</speed>
  <fix>3d</fix>
</trkpt>
<trkpt lat="33.8101073" lon="-118.3941">
  <ele>-0.106</ele>
  <time>2026-09-02T22:07:22Z</time>
  <course>186.24</course>
  <speed>0.7283543093852057</speed>
  <fix>3d</fix>
</trkpt>
<trkpt lat="33.8101073" lon="-118.3941">
  <ele>-0.107</ele>
  <time>2026-09-02T22:07:22Z</time>
  <course>186.24</course>
  <speed>0.7283543093852057</speed>
  <fix>3d</fix>
</trkpt>
<trkpt lat="33.8101072" lon="-118.3941001">
  <ele>-0.107</ele>
  <time>2026-09-02T22:07:22Z</time>
  <course>186.24</course>
  <speed>0.7283543093852057</speed>
  <fix>3d</fix>
</trkpt>
<trkpt lat="33.8101072" lon="-118.3941001">
  <ele>-0.107</ele>
  <time>2026-09-02T22:07:22Z</time>
  <course>186.24</course>
  <speed>0.7283543093852057</speed>
  <fix>3d</fix>
</trkpt>
<trkpt lat="33.8101072" lon="-118.3941002">
  <ele>-0.107</ele>
  <time>2026-09-02T22:07:22Z</time>
  <course>186.24</course>
  <speed>0.7283543093852057</speed>
  <fix>3d</fix>
</trkpt>
<trkpt lat="33.8101071" lon="-118.3941002">
  <ele>-0.107</ele>
  <time>2026-09-02T22:07:22Z</time>
  <course>186.24</course>
  <speed>0.7283543093852057</speed>
  <fix>3d</fix>
</trkpt>
<trkpt lat="33.8101071" lon="-118.3941002">
  <ele>-0.107</ele>
  <time>2026-09-02T22:07:22Z</time>
  <course>186.24</course>
  <speed>0.7283543093852057</speed>
  <fix>3d</fix>
</trkpt>
<trkpt lat="33.8101071" lon="-118.3941003">
  <ele>-0.107</ele>
  <time>2026-09-02T22:07:22Z</time>
  <course>186.24</course>
  <speed>0.7283543093852057</speed>
  <fix>3d</fix>
</trkpt>
<trkpt lat="33.810107" lon="-118.3941003">
  <ele>-0.107</ele>
  <time>2026-09-02T22:07:22Z</time>
  <course>186.24</course>
  <speed>0.7283543093852057</speed>
  <fix>3d</fix>
</trkpt>
<trkpt lat="33.810107" lon="-118.3941003">
  <ele>-0.107</ele>
  <time>2026-09-02T22:07:22Z</time>
  <course>186.24</course>
  <speed>0.7283543093852057</speed>
  <fix>3d</fix>
</trkpt>
<trkpt lat="33.8101075" lon="-118.3940993">
  <ele>-0.1</ele>
  <time>2026-09-02T22:07:22Z</time>
  <course>223.26</course>
  <speed>0.73</speed>
  <fix>3d</fix>
</trkpt>
<trkpt lat="33.810107" lon="-118.3941004">
  <ele>-0.107</ele>
  <time>2026-09-02T22:07:22Z</time>
  <course>186.24</course>
  <speed>0.7283543093852057</speed>
  <fix>3d</fix>
</trkpt>
<trkpt lat="33.8101069" lon="-118.3941004">
  <ele>-0.108</ele>
  <time>2026-09-02T22:07:22Z</time>
  <course>186.24</course>
  <speed>0.7283543093852057</speed>
  <fix>3d</fix>
</trkpt>
<trkpt lat="33.8101069" lon="-118.3941004">
  <ele>-0.108</ele>
  <time>2026-09-02T22:07:22Z</time>
  <course>186.24</course>
  <speed>0.7283543093852057</speed>
  <fix>3d</fix>
</trkpt>
<trkpt lat="33.8101069" lon="-118.3941005">
  <ele>-0.108</ele>
  <time>2026-09-02T22:07:22Z</time>
  <course>186.24</course>
  <speed>0.7283543093852057</speed>
  <fix>3d</fix>
</trkpt>
<trkpt lat="33.8101068" lon="-118.3941005">
  <ele>-0.108</ele>
  <time>2026-09-02T22:07:22Z</time>
  <course>186.24</course>
  <speed>0.7283543093852057</speed>
  <fix>3d</fix>
</trkpt>
<trkpt lat="33.8101068" lon="-118.3941006">
  <ele>-0.108</ele>
  <time>2026-09-02T22:07:22Z</time>
  <course>186.24</course>
  <speed>0.7283543093852057</speed>
  <fix>3d</fix>
</trkpt>
<trkpt lat="33.8101068" lon="-118.3941006">
  <ele>-0.108</ele>
  <time>2026-09-02T22:07:22Z</time>
  <course>186.24</course>
  <speed>0.7283543093852057</speed>
  <fix>3d</fix>
</trkpt>
<trkpt lat="33.8101067" lon="-118.3941006">
  <ele>-0.108</ele>
  <time>2026-09-02T22:07:22Z</time>
  <course>186.24</course>
  <speed>0.7283543093852057</speed>
  <fix>3d</fix>
</trkpt>
<trkpt lat="33.8101067" lon="-118.3941007">
  <ele>-0.108</ele>
  <time>2026-09-02T22:07:22Z</time>
  <course>186.24</course>
  <speed>0.7283543093852057</speed>
  <fix>3d</fix>
</trkpt>
<trkpt lat="33.8101067" lon="-118.3941007">
  <ele>-0.109</ele>
  <time>2026-09-02T22:07:22Z</time>
  <course>186.24</course>
  <speed>0.7283543093852057</speed>
  <fix>3d</fix>
</trkpt>
<trkpt lat="33.8101066" lon="-118.3941008">
  <ele>-0.109</ele>
  <time>2026-09-02T22:07:22Z</time>
  <course>186.24</course>
  <speed>0.7283543093852057</speed>
  <fix>3d</fix>
</trkpt>
<trkpt lat="33.8101066" lon="-118.3941008">
  <ele>-0.109</ele>
  <time>2026-09-02T22:07:22Z</time>
  <course>186.24</course>
  <speed>0.7283543093852057</speed>
  <fix>3d</fix>
</trkpt>
<trkpt lat="33.8101066" lon="-118.3941008">
  <ele>-0.109</ele>
  <time>2026-09-02T22:07:22Z</time>
  <course>186.24</course>
  <speed>0.7283543093852057</speed>
  <fix>3d</fix>
</trkpt>
<trkpt lat="33.8101065" lon="-118.3941009">
  <ele>-0.109</ele>
  <time>2026-09-02T22:07:22Z</time>
  <course>186.24</course>
  <speed>0.7283543093852057</speed>
  <fix>3d</fix>
</trkpt>
<trkpt lat="33.8101065" lon="-118.3941009">
  <ele>-0.109</ele>
  <time>2026-09-02T22:07:22Z</time>
  <course>186.24</course>
  <speed>0.7283543093852057</speed>
  <fix>3d</fix>
</trkpt>
<trkpt lat="33.8101075" lon="-118.3940993">
  <ele>-0.1</ele>
  <time>2026-09-02T22:07:22Z</time>
  <course>223.26</course>
  <speed>0.73</speed>
  <fix>3d</fix>
</trkpt>
<trkpt lat="33.8101065" lon="-118.3941009">
  <ele>-0.109</ele>
  <time>2026-09-02T22:07:22Z</time>
  <course>186.24</course>
  <speed>0.7283543093852057</speed>
  <fix>3d</fix>
</trkpt>
<trkpt lat="33.8101064" lon="-118.394101">
  <ele>-0.109</ele>
  <time>2026-09-02T22:07:22Z</time>
  <course>186.24</course>
  <speed>0.7283543093852057</speed>
  <fix>3d</fix>
</trkpt>
<trkpt lat="33.8101064" lon="-118.394101">
  <ele>-0.11</ele>
  <time>2026-09-02T22:07:22Z</time>
  <course>186.24</course>
  <speed>0.7283543093852057</speed>
  <fix>3d</fix>
</trkpt>
<trkpt lat="33.8101064" lon="-118.3941011">
  <ele>-0.11</ele>
  <time>2026-09-02T22:07:22Z</time>
  <course>186.24</course>
  <speed>0.7283543093852057</speed>
  <fix>3d</fix>
</trkpt>
<trkpt lat="33.8101063" lon="-118.3941011">
  <ele>-0.11</ele>
  <time>2026-09-02T22:07:22Z</time>
  <course>186.24</course>
  <speed>0.7283543093852057</speed>
  <fix>3d</fix>
</trkpt>
<trkpt lat="33.8101063" lon="-118.3941011">
  <ele>-0.11</ele>
  <time>2026-09-02T22:07:22Z</time>
  <course>186.24</course>
  <speed>0.7283543093852057</speed>
  <fix>3d</fix>
</trkpt>
<trkpt lat="33.8101063" lon="-118.3941012">
  <ele>-0.11</ele>
  <time>2026-09-02T22:07:22Z</time>
  <course>186.24</course>
  <speed>0.7283543093852057</speed>
  <fix>3d</fix>
</trkpt>
<trkpt lat="33.8101062" lon="-118.3941012">
  <ele>-0.11</ele>
  <time>2026-09-02T22:07:22Z</time>
  <course>186.24</course>
  <speed>0.7283543093852057</speed>
  <fix>3d</fix>
</trkpt>
<trkpt lat="33.8101062" lon="-118.3941013">
  <ele>-0.11</ele>
  <time>2026-09-02T22:07:22Z</time>
  <course>186.24</course>
  <speed>0.7283543093852057</speed>
  <fix>3d</fix>
</trkpt>
<trkpt lat="33.8101062" lon="-118.3941013">
  <ele>-0.111</ele>
  <time>2026-09-02T22:07:22Z</time>
  <course>186.24</course>
  <speed>0.7283543093852057</speed>
  <fix>3d</fix>
</trkpt>
<trkpt lat="33.8101061" lon="-118.3941013">
  <ele>-0.111</ele>
  <time>2026-09-02T22:07:22Z</time>
  <course>186.24</course>
  <speed>0.7283543093852057</speed>
  <fix>3d</fix>
</trkpt>
<trkpt lat="33.8101061" lon="-118.3941014">
  <ele>-0.111</ele>
  <time>2026-09-02T22:07:22Z</time>
  <course>186.24</course>
  <speed>0.7283543093852057</speed>
  <fix>3d</fix>
</trkpt>
<trkpt lat="33.810106" lon="-118.3941014">
  <ele>-0.111</ele>
  <time>2026-09-02T22:07:22Z</time>
  <course>186.24</course>
  <speed>0.7283543093852057</speed>
  <fix>3d</fix>
</trkpt>
<trkpt lat="33.810106" lon="-118.3941014">
  <ele>-0.111</ele>
  <time>2026-09-02T22:07:22Z</time>
  <course>186.24</course>
  <speed>0.7283543093852057</speed>
  <fix>3d</fix>
</trkpt>
<trkpt lat="33.8101065" lon="-118.3941004">
  <ele>-0.1</ele>
  <time>2026-09-02T22:07:22Z</time>
  <course>223.26</course>
  <speed>0.73</speed>
  <fix>3d</fix>
</trkpt>
<trkpt lat="33.810106" lon="-118.3941014">
  <ele>-0.111</ele>
  <time>2026-09-02T22:07:22Z</time>
  <course>186.24</course>
  <speed>0.7283543093852057</speed>
  <fix>3d</fix>
</trkpt>
<trkpt lat="33.810106" lon="-118.3941015">
  <ele>-0.111</ele>
  <time>2026-09-02T22:07:22Z</time>
  <course>186.24</course>
  <speed>0.7283543093852057</speed>
  <fix>3d</fix>
</trkpt>
<trkpt lat="33.810106" lon="-118.3941015">
  <ele>-0.111</ele>
  <time>2026-09-02T22:07:22Z</time>
  <course>186.24</course>
  <speed>0.7283543093852057</speed>
  <fix>3d</fix>
</trkpt>
<trkpt lat="33.8101059" lon="-118.3941016">
  <ele>-0.112</ele>
  <time>2026-09-02T22:07:22Z</time>
  <course>186.24</course>
  <speed>0.7283543093852057</speed>
  <fix>3d</fix>
</trkpt>
<trkpt lat="33.8101059" lon="-118.3941016">
  <ele>-0.112</ele>
  <time>2026-09-02T22:07:22Z</time>
  <course>186.24</course>
  <speed>0.7283543093852057</speed>
  <fix>3d</fix>
</trkpt>
<trkpt lat="33.8101058" lon="-118.3941016">
  <ele>-0.112</ele>
  <time>2026-09-02T22:07:22Z</time>
  <course>186.24</course>
  <speed>0.7283543093852057</speed>
  <fix>3d</fix>
</trkpt>
<trkpt lat="33.8101058" lon="-118.3941017">
  <ele>-0.112</ele>
  <time>2026-09-02T22:07:22Z</time>
  <course>186.24</course>
  <speed>0.7283543093852057</speed>
  <fix>3d</fix>
</trkpt>
<trkpt lat="33.8101058" lon="-118.3941017">
  <ele>-0.112</ele>
  <time>2026-09-02T22:07:22Z</time>
  <course>186.24</course>
  <speed>0.7283543093852057</speed>
  <fix>3d</fix>
</trkpt>
<trkpt lat="33.8101057" lon="-118.3941018">
  <ele>-0.112</ele>
  <time>2026-09-02T22:07:22Z</time>
  <course>186.24</course>
  <speed>0.7283543093852057</speed>
  <fix>3d</fix>
</trkpt>
<trkpt lat="33.8101057" lon="-118.3941018">
  <ele>-0.113</ele>
  <time>2026-09-02T22:07:22Z</time>
  <course>186.24</course>
  <speed>0.7283543093852057</speed>
  <fix>3d</fix>
</trkpt>
<trkpt lat="33.8101057" lon="-118.3941019">
  <ele>-0.113</ele>
  <time>2026-09-02T22:07:22Z</time>
  <course>186.24</course>
  <speed>0.7283543093852057</speed>
  <fix>3d</fix>
</trkpt>
<trkpt lat="33.8101056" lon="-118.3941019">
  <ele>-0.113</ele>
  <time>2026-09-02T22:07:22Z</time>
  <course>186.24</course>
  <speed>0.7283543093852057</speed>
  <fix>3d</fix>
</trkpt>
<trkpt lat="33.8101056" lon="-118.3941019">
  <ele>-0.113</ele>
  <time>2026-09-02T22:07:22Z</time>
  <course>186.24</course>
  <speed>0.7283543093852057</speed>
  <fix>3d</fix>
</trkpt>
<trkpt lat="33.8101056" lon="-118.394102">
  <ele>-0.113</ele>
  <time>2026-09-02T22:07:22Z</time>
  <course>186.24</course>
  <speed>0.7283543093852057</speed>
  <fix>3d</fix>
</trkpt>
<trkpt lat="33.8101056" lon="-118.394102">
  <ele>-0.113</ele>
  <time>2026-09-02T22:07:22Z</time>
  <course>186.24</course>
  <speed>0.7283543093852057</speed>
  <fix>3d</fix>
</trkpt>
<trkpt lat="33.8101065" lon="-118.3941004">
  <ele>-0.1</ele>
  <time>2026-09-02T22:07:22Z</time>
  <course>223.26</course>
  <speed>0.73</speed>
  <fix>3d</fix>
</trkpt>
<trkpt lat="33.8101055" lon="-118.394102">
  <ele>-0.113</ele>
  <time>2026-09-02T22:07:22Z</time>
  <course>186.24</course>
  <speed>0.7283543093852057</speed>
  <fix>3d</fix>
</trkpt>
<trkpt lat="33.8101055" lon="-118.3941021">
  <ele>-0.113</ele>
  <time>2026-09-02T22:07:22Z</time>
  <course>186.24</course>
  <speed>0.7283543093852057</speed>
  <fix>3d</fix>
</trkpt>
<trkpt lat="33.8101054" lon="-118.3941021">
  <ele>-0.113</ele>
  <time>2026-09-02T22:07:22Z</time>
  <course>186.24</course>
  <speed>0.7283543093852057</speed>
  <fix>3d</fix>
</trkpt>
<trkpt lat="33.8101054" lon="-118.3941022">
  <ele>-0.113</ele>
  <time>2026-09-02T22:07:22Z</time>
  <course>186.24</course>
  <speed>0.7283543093852057</speed>
  <fix>3d</fix>
</trkpt>
<trkpt lat="33.8101054" lon="-118.3941022">
  <ele>-0.113</ele>
  <time>2026-09-02T22:07:22Z</time>
  <course>186.24</course>
  <speed>0.7283543093852057</speed>
  <fix>3d</fix>
</trkpt>
<trkpt lat="33.8101053" lon="-118.3941022">
  <ele>-0.114</ele>
  <time>2026-09-02T22:07:22Z</time>
  <course>186.24</course>
  <speed>0.7283543093852057</speed>
  <fix>3d</fix>
</trkpt>
<trkpt lat="33.8101053" lon="-118.3941023">
  <ele>-0.114</ele>
  <time>2026-09-02T22:07:22Z</time>
  <course>186.24</course>
  <speed>0.7283543093852057</speed>
  <fix>3d</fix>
</trkpt>
<trkpt lat="33.8101053" lon="-118.3941023">
  <ele>-0.114</ele>
  <time>2026-09-02T22:07:22Z</time>
  <course>186.24</course>
  <speed>0.7283543093852057</speed>
  <fix>3d</fix>
</trkpt>
<trkpt lat="33.8101052" lon="-118.3941023">
  <ele>-0.114</ele>
  <time>2026-09-02T22:07:22Z</time>
  <course>186.24</course>
  <speed>0.7283543093852057</speed>
  <fix>3d</fix>
</trkpt>
<trkpt lat="33.8101052" lon="-118.3941024">
  <ele>-0.114</ele>
  <time>2026-09-02T22:07:22Z</time>
  <course>186.24</course>
  <speed>0.7283543093852057</speed>
  <fix>3d</fix>
</trkpt>
<trkpt lat="33.8101052" lon="-118.3941024">
  <ele>-0.114</ele>
  <time>2026-09-02T22:07:22Z</time>
  <course>186.24</course>
  <speed>0.7283543093852057</speed>
  <fix>3d</fix>
</trkpt>
<trkpt lat="33.8101051" lon="-118.3941025">
  <ele>-0.114</ele>
  <time>2026-09-02T22:07:22Z</time>
  <course>186.24</course>
  <speed>0.7283543093852057</speed>
  <fix>3d</fix>
</trkpt>
<trkpt lat="33.8101051" lon="-118.3941025">
  <ele>-0.114</ele>
  <time>2026-09-02T22:07:22Z</time>
  <course>186.24</course>
  <speed>0.7283543093852057</speed>
  <fix>3d</fix>
</trkpt>
<trkpt lat="33.8101051" lon="-118.3941025">
  <ele>-0.114</ele>
  <time>2026-09-02T22:07:22Z</time>
  <course>186.24</course>
  <speed>0.7283543093852057</speed>
  <fix>3d</fix>
</trkpt>
<trkpt lat="33.8101056" lon="-118.3941015">
  <ele>-0.11</ele>
  <time>2026-09-02T22:07:22Z</time>
  <course>223.26</course>
  <speed>0.73</speed>
  <fix>3d</fix>
</trkpt>
<trkpt lat="33.8101051" lon="-118.3941025">
  <ele>-0.114</ele>
  <time>2026-09-02T22:07:22Z</time>
  <course>186.24</course>
  <speed>0.7283543093852057</speed>
  <fix>3d</fix>
</trkpt>
<trkpt lat="33.810105" lon="-118.3941026">
  <ele>-0.114</ele>
  <time>2026-09-02T22:07:22Z</time>
  <course>186.24</course>
  <speed>0.7283543093852057</speed>
  <fix>3d</fix>
</trkpt>
<trkpt lat="33.810105" lon="-118.3941026">
  <ele>-0.114</ele>
  <time>2026-09-02T22:07:22Z</time>
  <course>186.24</course>
  <speed>0.7283543093852057</speed>
  <fix>3d</fix>
</trkpt>
<trkpt lat="33.810105" lon="-118.3941026">
  <ele>-0.115</ele>
  <time>2026-09-02T22:07:22Z</time>
  <course>186.24</course>
  <speed>0.7283543093852057</speed>
  <fix>3d</fix>
</trkpt>
<trkpt lat="33.8101049" lon="-118.3941027">
  <ele>-0.115</ele>
  <time>2026-09-02T22:07:22Z</time>
  <course>186.24</course>
  <speed>0.7283543093852057</speed>
  <fix>3d</fix>
</trkpt>
<trkpt lat="33.8101049" lon="-118.3941027">
  <ele>-0.115</ele>
  <time>2026-09-02T22:07:22Z</time>
  <course>186.24</course>
  <speed>0.7283543093852057</speed>
  <fix>3d</fix>
</trkpt>
<trkpt lat="33.8101049" lon="-118.3941028">
  <ele>-0.115</ele>
  <time>2026-09-02T22:07:22Z</time>
  <course>186.24</course>
  <speed>0.7283543093852057</speed>
  <fix>3d</fix>
</trkpt>
<trkpt lat="33.8101048" lon="-118.3941028">
  <ele>-0.115</ele>
  <time>2026-09-02T22:07:22Z</time>
  <course>186.24</course>
  <speed>0.7283543093852057</speed>
  <fix>3d</fix>
</trkpt>
<trkpt lat="33.8101048" lon="-118.3941028">
  <ele>-0.115</ele>
  <time>2026-09-02T22:07:22Z</time>
  <course>186.24</course>
  <speed>0.7283543093852057</speed>
  <fix>3d</fix>
</trkpt>
<trkpt lat="33.8101047" lon="-118.3941029">
  <ele>-0.115</ele>
  <time>2026-09-02T22:07:22Z</time>
  <course>186.24</course>
  <speed>0.7283543093852057</speed>
  <fix>3d</fix>
</trkpt>
<trkpt lat="33.8101047" lon="-118.3941029">
  <ele>-0.115</ele>
  <time>2026-09-02T22:07:22Z</time>
  <course>186.24</course>
  <speed>0.7283543093852057</speed>
  <fix>3d</fix>
</trkpt>
<trkpt lat="33.8101047" lon="-118.394103">
  <ele>-0.116</ele>
  <time>2026-09-02T22:07:22Z</time>
  <course>186.24</course>
  <speed>0.7283543093852057</speed>
  <fix>3d</fix>
</trkpt>
<trkpt lat="33.8101046" lon="-118.394103">
  <ele>-0.116</ele>
  <time>2026-09-02T22:07:22Z</time>
  <course>186.24</course>
  <speed>0.7283543093852057</speed>
  <fix>3d</fix>
</trkpt>
<trkpt lat="33.8101046" lon="-118.3941031">
  <ele>-0.116</ele>
  <time>2026-09-02T22:07:22Z</time>
  <course>186.24</course>
  <speed>0.7283543093852057</speed>
  <fix>3d</fix>
</trkpt>
<trkpt lat="33.8101046" lon="-118.3941031">
  <ele>-0.116</ele>
  <time>2026-09-02T22:07:22Z</time>
  <course>186.24</course>
  <speed>0.7283543093852057</speed>
  <fix>3d</fix>
</trkpt>
<trkpt lat="33.8101056" lon="-118.3941015">
  <ele>-0.11</ele>
  <time>2026-09-02T22:07:22Z</time>
  <course>223.26</course>
  <speed>0.73</speed>
  <fix>3d</fix>
</trkpt>
<trkpt lat="33.8101045" lon="-118.3941031">
  <ele>-0.116</ele>
  <time>2026-09-02T22:07:22Z</time>
  <course>186.24</course>
  <speed>0.7283543093852057</speed>
  <fix>3d</fix>
</trkpt>
<trkpt lat="33.8101045" lon="-118.3941032">
  <ele>-0.116</ele>
  <time>2026-09-02T22:07:22Z</time>
  <course>186.24</course>
  <speed>0.7283543093852057</speed>
  <fix>3d</fix>
</trkpt>
<trkpt lat="33.8101045" lon="-118.3941032">
  <ele>-0.116</ele>
  <time>2026-09-02T22:07:22Z</time>
  <course>186.24</course>
  <speed>0.7283543093852057</speed>
  <fix>3d</fix>
</trkpt>
<trkpt lat="33.8101044" lon="-118.3941033">
  <ele>-0.116</ele>
  <time>2026-09-02T22:07:22Z</time>
  <course>186.24</course>
  <speed>0.7283543093852057</speed>
  <fix>3d</fix>
</trkpt>
<trkpt lat="33.8101044" lon="-118.3941033">
  <ele>-0.117</ele>
  <time>2026-09-02T22:07:22Z</time>
  <course>186.24</course>
  <speed>0.7283543093852057</speed>
  <fix>3d</fix>
</trkpt>
<trkpt lat="33.8101043" lon="-118.3941034">
  <ele>-0.116</ele>
  <time>2026-09-02T22:07:22Z</time>
  <course>186.24</course>
  <speed>0.7283543093852057</speed>
  <fix>3d</fix>
</trkpt>
<trkpt lat="33.8101043" lon="-118.3941034">
  <ele>-0.117</ele>
  <time>2026-09-02T22:07:22Z</time>
  <course>186.24</course>
  <speed>0.7283543093852057</speed>
  <fix>3d</fix>
</trkpt>
<trkpt lat="33.8101043" lon="-118.3941034">
  <ele>-0.117</ele>
  <time>2026-09-02T22:07:22Z</time>
  <course>186.24</course>
  <speed>0.7283543093852057</speed>
  <fix>3d</fix>
</trkpt>
<trkpt lat="33.8101042" lon="-118.3941035">
  <ele>-0.117</ele>
  <time>2026-09-02T22:07:22Z</time>
  <course>186.24</course>
  <speed>0.7283543093852057</speed>
  <fix>3d</fix>
</trkpt>
<trkpt lat="33.8101042" lon="-118.3941035">
  <ele>-0.117</ele>
  <time>2026-09-02T22:07:22Z</time>
  <course>186.24</course>
  <speed>0.7283543093852057</speed>
  <fix>3d</fix>
</trkpt>
<trkpt lat="33.8101042" lon="-118.3941036">
  <ele>-0.117</ele>
  <time>2026-09-02T22:07:22Z</time>
  <course>186.24</course>
  <speed>0.7283543093852057</speed>
  <fix>3d</fix>
</trkpt>
<trkpt lat="33.8101041" lon="-118.3941036">
  <ele>-0.117</ele>
  <time>2026-09-02T22:07:22Z</time>
  <course>186.24</course>
  <speed>0.7283543093852057</speed>
  <fix>3d</fix>
</trkpt>
<trkpt lat="33.8101041" lon="-118.3941036">
  <ele>-0.117</ele>
  <time>2026-09-02T22:07:22Z</time>
  <course>186.24</course>
  <speed>0.7283543093852057</speed>
  <fix>3d</fix>
</trkpt>
<trkpt lat="33.8101046" lon="-118.3941026">
  <ele>-0.1</ele>
  <time>2026-09-02T22:07:22Z</time>
  <course>223.26</course>
  <speed>0.73</speed>
  <fix>3d</fix>
</trkpt>
<trkpt lat="33.8101041" lon="-118.3941037">
  <ele>-0.117</ele>
  <time>2026-09-02T22:07:22Z</time>
  <course>186.24</course>
  <speed>0.7283543093852057</speed>
  <fix>3d</fix>
</trkpt>
<trkpt lat="33.810104" lon="-118.3941037">
  <ele>-0.117</ele>
  <time>2026-09-02T22:07:22Z</time>
  <course>186.24</course>
  <speed>0.7283543093852057</speed>
  <fix>3d</fix>
</trkpt>
<trkpt lat="33.810104" lon="-118.3941037">
  <ele>-0.117</ele>
  <time>2026-09-02T22:07:22Z</time>
  <course>186.24</course>
  <speed>0.7283543093852057</speed>
  <fix>3d</fix>
</trkpt>
<trkpt lat="33.810104" lon="-118.3941038">
  <ele>-0.117</ele>
  <time>2026-09-02T22:07:22Z</time>
  <course>186.24</course>
  <speed>0.7283543093852057</speed>
  <fix>3d</fix>
</trkpt>
<trkpt lat="33.8101039" lon="-118.3941038">
  <ele>-0.117</ele>
  <time>2026-09-02T22:07:22Z</time>
  <course>186.24</course>
  <speed>0.7283543093852057</speed>
  <fix>3d</fix>
</trkpt>
<trkpt lat="33.8101039" lon="-118.3941039">
  <ele>-0.117</ele>
  <time>2026-09-02T22:07:22Z</time>
  <course>186.24</course>
  <speed>0.7283543093852057</speed>
  <fix>3d</fix>
</trkpt>
<trkpt lat="33.8101039" lon="-118.3941039">
  <ele>-0.117</ele>
  <time>2026-09-02T22:07:22Z</time>
  <course>186.24</course>
  <speed>0.7283543093852057</speed>
  <fix>3d</fix>
</trkpt>
<trkpt lat="33.8101038" lon="-118.3941039">
  <ele>-0.117</ele>
  <time>2026-09-02T22:07:22Z</time>
  <course>186.24</course>
  <speed>0.7283543093852057</speed>
  <fix>3d</fix>
</trkpt>
<trkpt lat="33.8101038" lon="-118.394104">
  <ele>-0.117</ele>
  <time>2026-09-02T22:07:22Z</time>
  <course>186.24</course>
  <speed>0.7283543093852057</speed>
  <fix>3d</fix>
</trkpt>
<trkpt lat="33.8101038" lon="-118.394104">
  <ele>-0.117</ele>
  <time>2026-09-02T22:07:22Z</time>
  <course>186.24</course>
  <speed>0.7283543093852057</speed>
  <fix>3d</fix>
</trkpt>
<trkpt lat="33.8101037" lon="-118.3941041">
  <ele>-0.117</ele>
  <time>2026-09-02T22:07:22Z</time>
  <course>186.24</course>
  <speed>0.7283543093852057</speed>
  <fix>3d</fix>
</trkpt>
<trkpt lat="33.8101037" lon="-118.3941041">
  <ele>-0.117</ele>
  <time>2026-09-02T22:07:22Z</time>
  <course>186.24</course>
  <speed>0.7283543093852057</speed>
  <fix>3d</fix>
</trkpt>
<trkpt lat="33.8101036" lon="-118.3941041">
  <ele>-0.117</ele>
  <time>2026-09-02T22:07:22Z</time>
  <course>186.24</course>
  <speed>0.7283543093852057</speed>
  <fix>3d</fix>
</trkpt>
<trkpt lat="33.8101036" lon="-118.3941041">
  <ele>-0.117</ele>
  <time>2026-09-02T22:07:22Z</time>
  <course>186.24</course>
  <speed>0.7283543093852057</speed>
  <fix>3d</fix>
</trkpt>
<trkpt lat="33.8101046" lon="-118.3941026">
  <ele>-0.1</ele>
  <time>2026-09-02T22:07:22Z</time>
  <course>223.26</course>
  <speed>0.73</speed>
  <fix>3d</fix>
</trkpt>
<trkpt lat="33.8101036" lon="-118.3941042">
  <ele>-0.117</ele>
  <time>2026-09-02T22:07:22Z</time>
  <course>186.24</course>
  <speed>0.7283543093852057</speed>
  <fix>3d</fix>
</trkpt>
<trkpt lat="33.8101035" lon="-118.3941043">
  <ele>-0.117</ele>
  <time>2026-09-02T22:07:22Z</time>
  <course>186.24</course>
  <speed>0.7283543093852057</speed>
  <fix>3d</fix>
</trkpt>
<trkpt lat="33.8101035" lon="-118.3941043">
  <ele>-0.117</ele>
  <time>2026-09-02T22:07:22Z</time>
  <course>186.24</course>
  <speed>0.7283543093852057</speed>
  <fix>3d</fix>
</trkpt>
<trkpt lat="33.8101035" lon="-118.3941043">
  <ele>-0.117</ele>
  <time>2026-09-02T22:07:22Z</time>
  <course>186.24</course>
  <speed>0.7283543093852057</speed>
  <fix>3d</fix>
</trkpt>
<trkpt lat="33.8101034" lon="-118.3941044">
  <ele>-0.117</ele>
  <time>2026-09-02T22:07:22Z</time>
  <course>186.24</course>
  <speed>0.7283543093852057</speed>
  <fix>3d</fix>
</trkpt>
<trkpt lat="33.8101034" lon="-118.3941044">
  <ele>-0.117</ele>
  <time>2026-09-02T22:07:22Z</time>
  <course>186.24</course>
  <speed>0.7283543093852057</speed>
  <fix>3d</fix>
</trkpt>
<trkpt lat="33.8101034" lon="-118.3941045">
  <ele>-0.117</ele>
  <time>2026-09-02T22:07:22Z</time>
  <course>186.24</course>
  <speed>0.7283543093852057</speed>
  <fix>3d</fix>
</trkpt>
<trkpt lat="33.8101033" lon="-118.3941045">
  <ele>-0.117</ele>
  <time>2026-09-02T22:07:22Z</time>
  <course>186.24</course>
  <speed>0.7283543093852057</speed>
  <fix>3d</fix>
</trkpt>
<trkpt lat="33.8101033" lon="-118.3941045">
  <ele>-0.117</ele>
  <time>2026-09-02T22:07:22Z</time>
  <course>186.24</course>
  <speed>0.7283543093852057</speed>
  <fix>3d</fix>
</trkpt>
<trkpt lat="33.8101033" lon="-118.3941046">
  <ele>-0.117</ele>
  <time>2026-09-02T22:07:22Z</time>
  <course>186.24</course>
  <speed>0.7283543093852057</speed>
  <fix>3d</fix>
</trkpt>
<trkpt lat="33.8101032" lon="-118.3941046">
  <ele>-0.117</ele>
  <time>2026-09-02T22:07:22Z</time>
  <course>186.24</course>
  <speed>0.7283543093852057</speed>
  <fix>3d</fix>
</trkpt>
<trkpt lat="33.8101032" lon="-118.3941046">
  <ele>-0.117</ele>
  <time>2026-09-02T22:07:22Z</time>
  <course>186.24</course>
  <speed>0.7283543093852057</speed>
  <fix>3d</fix>
</trkpt>
<trkpt lat="33.8101032" lon="-118.3941047">
  <ele>-0.117</ele>
  <time>2026-09-02T22:07:22Z</time>
  <course>186.24</course>
  <speed>0.7283543093852057</speed>
  <fix>3d</fix>
</trkpt>
<trkpt lat="33.8101032" lon="-118.3941047">
  <ele>-0.117</ele>
  <time>2026-09-02T22:07:22Z</time>
  <course>186.24</course>
  <speed>0.7283543093852057</speed>
  <fix>3d</fix>
</trkpt>
<trkpt lat="33.8101037" lon="-118.3941037">
  <ele>-0.1</ele>
  <time>2026-09-02T22:07:22Z</time>
  <course>223.26</course>
  <speed>0.73</speed>
  <fix>3d</fix>
</trkpt>
<trkpt lat="33.8101031" lon="-118.3941048">
  <ele>-0.117</ele>
  <time>2026-09-02T22:07:22Z</time>
  <course>186.24</course>
  <speed>0.7283543093852057</speed>
  <fix>3d</fix>
</trkpt>
<trkpt lat="33.8101031" lon="-118.3941048">
  <ele>-0.117</ele>
  <time>2026-09-02T22:07:22Z</time>
  <course>186.24</course>
  <speed>0.7283543093852057</speed>
  <fix>3d</fix>
</trkpt>
<trkpt lat="33.810103" lon="-118.3941048">
  <ele>-0.117</ele>
  <time>2026-09-02T22:07:22Z</time>
  <course>186.24</course>
  <speed>0.7283543093852057</speed>
  <fix>3d</fix>
</trkpt>
<trkpt lat="33.810103" lon="-118.3941049">
  <ele>-0.117</ele>
  <time>2026-09-02T22:07:22Z</time>
  <course>186.24</course>
  <speed>0.7283543093852057</speed>
  <fix>3d</fix>
</trkpt>
<trkpt lat="33.8101029" lon="-118.3941049">
  <ele>-0.117</ele>
  <time>2026-09-02T22:07:22Z</time>
  <course>186.24</course>
  <speed>0.7283543093852057</speed>
  <fix>3d</fix>
</trkpt>
<trkpt lat="33.8101029" lon="-118.394105">
  <ele>-0.117</ele>
  <time>2026-09-02T22:07:22Z</time>
  <course>186.24</course>
  <speed>0.7283543093852057</speed>
  <fix>3d</fix>
</trkpt>
<trkpt lat="33.8101029" lon="-118.394105">
  <ele>-0.117</ele>
  <time>2026-09-02T22:07:22Z</time>
  <course>186.24</course>
  <speed>0.7283543093852057</speed>
  <fix>3d</fix>
</trkpt>
<trkpt lat="33.8101028" lon="-118.3941051">
  <ele>-0.117</ele>
  <time>2026-09-02T22:07:22Z</time>
  <course>186.24</course>
  <speed>0.7283543093852057</speed>
  <fix>3d</fix>
</trkpt>
<trkpt lat="33.8101028" lon="-118.3941051">
  <ele>-0.118</ele>
  <time>2026-09-02T22:07:22Z</time>
  <course>186.24</course>
  <speed>0.7283543093852057</speed>
  <fix>3d</fix>
</trkpt>
<trkpt lat="33.8101028" lon="-118.3941051">
  <ele>-0.118</ele>
  <time>2026-09-02T22:07:22Z</time>
  <course>186.24</course>
  <speed>0.7283543093852057</speed>
  <fix>3d</fix>
</trkpt>
<trkpt lat="33.8101027" lon="-118.3941052">
  <ele>-0.118</ele>
  <time>2026-09-02T22:07:22Z</time>
  <course>186.24</course>
  <speed>0.7283543093852057</speed>
  <fix>3d</fix>
</trkpt>
<trkpt lat="33.8101027" lon="-118.3941052">
  <ele>-0.118</ele>
  <time>2026-09-02T22:07:22Z</time>
  <course>186.24</course>
  <speed>0.7283543093852057</speed>
  <fix>3d</fix>
</trkpt>
<trkpt lat="33.8101027" lon="-118.3941052">
  <ele>-0.118</ele>
  <time>2026-09-02T22:07:22Z</time>
  <course>186.24</course>
  <speed>0.7283543093852057</speed>
  <fix>3d</fix>
</trkpt>
<trkpt lat="33.8101037" lon="-118.3941037">
  <ele>-0.1</ele>
  <time>2026-09-02T22:07:22Z</time>
  <course>223.26</course>
  <speed>0.73</speed>
  <fix>3d</fix>
</trkpt>
<trkpt lat="33.8101027" lon="-118.3941052">
  <ele>-0.118</ele>
  <time>2026-09-02T22:07:22Z</time>
  <course>186.24</course>
  <speed>0.7283543093852057</speed>
  <fix>3d</fix>
</trkpt>
<trkpt lat="33.8101026" lon="-118.3941053">
  <ele>-0.118</ele>
  <time>2026-09-02T22:07:22Z</time>
  <course>186.24</course>
  <speed>0.7283543093852057</speed>
  <fix>3d</fix>
</trkpt>
<trkpt lat="33.8101026" lon="-118.3941053">
  <ele>-0.118</ele>
  <time>2026-09-02T22:07:22Z</time>
  <course>186.24</course>
  <speed>0.7283543093852057</speed>
  <fix>3d</fix>
</trkpt>
<trkpt lat="33.8101026" lon="-118.3941054">
  <ele>-0.118</ele>
  <time>2026-09-02T22:07:22Z</time>
  <course>186.24</course>
  <speed>0.7283543093852057</speed>
  <fix>3d</fix>
</trkpt>
<trkpt lat="33.8101025" lon="-118.3941054">
  <ele>-0.118</ele>
  <time>2026-09-02T22:07:22Z</time>
  <course>186.24</course>
  <speed>0.7283543093852057</speed>
  <fix>3d</fix>
</trkpt>
<trkpt lat="33.8101025" lon="-118.3941055">
  <ele>-0.118</ele>
  <time>2026-09-02T22:07:22Z</time>
  <course>186.24</course>
  <speed>0.7213875518748573</speed>
  <fix>3d</fix>
</trkpt>
<trkpt lat="33.8101025" lon="-118.3941055">
  <ele>-0.118</ele>
  <time>2026-09-02T22:07:22Z</time>
  <course>186.24</course>
  <speed>0.7283543093852057</speed>
  <fix>3d</fix>
</trkpt>
<trkpt lat="33.8101024" lon="-118.3941055">
  <ele>-0.118</ele>
  <time>2026-09-02T22:07:22Z</time>
  <course>186.24</course>
  <speed>0.7213875518748573</speed>
  <fix>3d</fix>
</trkpt>
<trkpt lat="33.8101024" lon="-118.3941056">
  <ele>-0.118</ele>
  <time>2026-09-02T22:07:22Z</time>
  <course>186.24</course>
  <speed>0.7283543093852057</speed>
  <fix>3d</fix>
</trkpt>
<trkpt lat="33.8101023" lon="-118.3941056">
  <ele>-0.118</ele>
  <time>2026-09-02T22:07:22Z</time>
  <course>186.24</course>
  <speed>0.7283543093852057</speed>
  <fix>3d</fix>
</trkpt>
<trkpt lat="33.8101023" lon="-118.3941057">
  <ele>-0.118</ele>
  <time>2026-09-02T22:07:22Z</time>
  <course>186.24</course>
  <speed>0.7283543093852057</speed>
  <fix>3d</fix>
</trkpt>
<trkpt lat="33.8101023" lon="-118.3941057">
  <ele>-0.118</ele>
  <time>2026-09-02T22:07:22Z</time>
  <course>186.24</course>
  <speed>0.7283543093852057</speed>
  <fix>3d</fix>
</trkpt>
<trkpt lat="33.8101022" lon="-118.3941057">
  <ele>-0.119</ele>
  <time>2026-09-02T22:07:22Z</time>
  <course>186.24</course>
  <speed>0.7283543093852057</speed>
  <fix>3d</fix>
</trkpt>
<trkpt lat="33.8101022" lon="-118.3941058">
  <ele>-0.119</ele>
  <time>2026-09-02T22:07:22Z</time>
  <course>186.24</course>
  <speed>0.7283543093852057</speed>
  <fix>3d</fix>
</trkpt>
<trkpt lat="33.8101022" lon="-118.3941058">
  <ele>-0.119</ele>
  <time>2026-09-02T22:07:22Z</time>
  <course>186.24</course>
  <speed>0.7283543093852057</speed>
  <fix>3d</fix>
</trkpt>
<trkpt lat="33.8101027" lon="-118.3941048">
  <ele>-0.1</ele>
  <time>2026-09-02T22:07:22Z</time>
  <course>223.26</course>
  <speed>0.73</speed>
  <fix>3d</fix>
</trkpt>
<trkpt lat="33.8101022" lon="-118.3941058">
  <ele>-0.119</ele>
  <time>2026-09-02T22:07:22Z</time>
  <course>186.24</course>
  <speed>0.7283543093852057</speed>
  <fix>3d</fix>
</trkpt>
<trkpt lat="33.8101021" lon="-118.3941059">
  <ele>-0.119</ele>
  <time>2026-09-02T22:07:22Z</time>
  <course>186.24</course>
  <speed>0.7283543093852057</speed>
  <fix>3d</fix>
</trkpt>
<trkpt lat="33.8101021" lon="-118.3941059">
  <ele>-0.119</ele>
  <time>2026-09-02T22:07:22Z</time>
  <course>186.24</course>
  <speed>0.7283543093852057</speed>
  <fix>3d</fix>
</trkpt>
<trkpt lat="33.810102" lon="-118.3941059">
  <ele>-0.119</ele>
  <time>2026-09-02T22:07:22Z</time>
  <course>186.24</course>
  <speed>0.7283543093852057</speed>
  <fix>3d</fix>
</trkpt>
<trkpt lat="33.810102" lon="-118.394106">
  <ele>-0.119</ele>
  <time>2026-09-02T22:07:22Z</time>
  <course>186.24</course>
  <speed>0.7283543093852057</speed>
  <fix>3d</fix>
</trkpt>
<trkpt lat="33.810102" lon="-118.394106">
  <ele>-0.119</ele>
  <time>2026-09-02T22:07:22Z</time>
  <course>186.24</course>
  <speed>0.7283543093852057</speed>
  <fix>3d</fix>
</trkpt>
<trkpt lat="33.8101019" lon="-118.3941061">
  <ele>-0.119</ele>
  <time>2026-09-02T22:07:22Z</time>
  <course>186.24</course>
  <speed>0.7283543093852057</speed>
  <fix>3d</fix>
</trkpt>
<trkpt lat="33.8101019" lon="-118.3941061">
  <ele>-0.119</ele>
  <time>2026-09-02T22:07:22Z</time>
  <course>186.24</course>
  <speed>0.7283543093852057</speed>
  <fix>3d</fix>
</trkpt>
<trkpt lat="33.8101019" lon="-118.3941062">
  <ele>-0.119</ele>
  <time>2026-09-02T22:07:22Z</time>
  <course>186.24</course>
  <speed>0.7283543093852057</speed>
  <fix>3d</fix>
</trkpt>
<trkpt lat="33.8101018" lon="-118.3941062">
  <ele>-0.119</ele>
  <time>2026-09-02T22:07:22Z</time>
  <course>186.24</course>
  <speed>0.7283543093852057</speed>
  <fix>3d</fix>
</trkpt>
<trkpt lat="33.8101018" lon="-118.3941062">
  <ele>-0.119</ele>
  <time>2026-09-02T22:07:22Z</time>
  <course>186.24</course>
  <speed>0.7283543093852057</speed>
  <fix>3d</fix>
</trkpt>
<trkpt lat="33.8101018" lon="-118.3941063">
  <ele>-0.119</ele>
  <time>2026-09-02T22:07:22Z</time>
  <course>186.24</course>
  <speed>0.7283543093852057</speed>
  <fix>3d</fix>
</trkpt>
<trkpt lat="33.8101017" lon="-118.3941063">
  <ele>-0.119</ele>
  <time>2026-09-02T22:07:22Z</time>
  <course>186.24</course>
  <speed>0.7213875518748573</speed>
  <fix>3d</fix>
</trkpt>
<trkpt lat="33.8101027" lon="-118.3941048">
  <ele>-0.1</ele>
  <time>2026-09-02T22:07:22Z</time>
  <course>223.26</course>
  <speed>0.73</speed>
  <fix>3d</fix>
</trkpt>
<trkpt lat="33.8101017" lon="-118.3941063">
  <ele>-0.119</ele>
  <time>2026-09-02T22:07:22Z</time>
  <course>186.24</course>
  <speed>0.7213875518748573</speed>
  <fix>3d</fix>
</trkpt>
<trkpt lat="33.8101017" lon="-118.3941064">
  <ele>-0.119</ele>
  <time>2026-09-02T22:07:22Z</time>
  <course>186.24</course>
  <speed>0.7213875518748573</speed>
  <fix>3d</fix>
</trkpt>
<trkpt lat="33.8101016" lon="-118.3941064">
  <ele>-0.119</ele>
  <time>2026-09-02T22:07:22Z</time>
  <course>186.24</course>
  <speed>0.7213875518748573</speed>
  <fix>3d</fix>
</trkpt>
<trkpt lat="33.8101016" lon="-118.3941065">
  <ele>-0.119</ele>
  <time>2026-09-02T22:07:22Z</time>
  <course>186.24</course>
  <speed>0.7213875518748573</speed>
  <fix>3d</fix>
</trkpt>
<trkpt lat="33.8101016" lon="-118.3941065">
  <ele>-0.119</ele>
  <time>2026-09-02T22:07:22Z</time>
  <course>186.24</course>
  <speed>0.7213875518748573</speed>
  <fix>3d</fix>
</trkpt>
<trkpt lat="33.8101015" lon="-118.3941066">
  <ele>-0.119</ele>
  <time>2026-09-02T22:07:22Z</time>
  <course>186.24</course>
  <speed>0.7213875518748573</speed>
  <fix>3d</fix>
</trkpt>
<trkpt lat="33.8101015" lon="-118.3941066">
  <ele>-0.119</ele>
  <time>2026-09-02T22:07:22Z</time>
  <course>186.24</course>
  <speed>0.7213875518748573</speed>
  <fix>3d</fix>
</trkpt>
<trkpt lat="33.8101015" lon="-118.3941066">
  <ele>-0.12</ele>
  <time>2026-09-02T22:07:22Z</time>
  <course>186.24</course>
  <speed>0.7213875518748573</speed>
  <fix>3d</fix>
</trkpt>
<trkpt lat="33.8101014" lon="-118.3941067">
  <ele>-0.12</ele>
  <time>2026-09-02T22:07:22Z</time>
  <course>186.24</course>
  <speed>0.7213875518748573</speed>
  <fix>3d</fix>
</trkpt>
<trkpt lat="33.8101014" lon="-118.3941067">
  <ele>-0.12</ele>
  <time>2026-09-02T22:07:22Z</time>
  <course>186.24</course>
  <speed>0.7283543093852057</speed>
  <fix>3d</fix>
</trkpt>
<trkpt lat="33.8101014" lon="-118.3941067">
  <ele>-0.12</ele>
  <time>2026-09-02T22:07:22Z</time>
  <course>186.24</course>
  <speed>0.7213875518748573</speed>
  <fix>3d</fix>
</trkpt>
<trkpt lat="33.8101013" lon="-118.3941068">
  <ele>-0.12</ele>
  <time>2026-09-02T22:07:22Z</time>
  <course>186.24</course>
  <speed>0.7283543093852057</speed>
  <fix>3d</fix>
</trkpt>
<trkpt lat="33.8101013" lon="-118.3941068">
  <ele>-0.12</ele>
  <time>2026-09-02T22:07:22Z</time>
  <course>186.24</course>
  <speed>0.7213875518748573</speed>
  <fix>3d</fix>
</trkpt>
<trkpt lat="33.8101012" lon="-118.3941069">
  <ele>-0.12</ele>
  <time>2026-09-02T22:07:22Z</time>
  <course>186.24</course>
  <speed>0.7283543093852057</speed>
  <fix>3d</fix>
</trkpt>
<trkpt lat="33.8101012" lon="-118.3941069">
  <ele>-0.12</ele>
  <time>2026-09-02T22:07:22Z</time>
  <course>186.24</course>
  <speed>0.7283543093852057</speed>
  <fix>3d</fix>
</trkpt>
<trkpt lat="33.8101017" lon="-118.3941059">
  <ele>-0.1</ele>
  <time>2026-09-02T22:07:22Z</time>
  <course>223.26</course>
  <speed>0.73</speed>
  <fix>3d</fix>
</trkpt>
<trkpt lat="33.8101012" lon="-118.3941069">
  <ele>-0.12</ele>
  <time>2026-09-02T22:07:22Z</time>
  <course>186.24</course>
  <speed>0.7283543093852057</speed>
  <fix>3d</fix>
</trkpt>
<trkpt lat="33.8101011" lon="-118.394107">
  <ele>-0.12</ele>
  <time>2026-09-02T22:07:22Z</time>
  <course>186.24</course>
  <speed>0.7283543093852057</speed>
  <fix>3d</fix>
</trkpt>
<trkpt lat="33.8101011" lon="-118.394107">
  <ele>-0.12</ele>
  <time>2026-09-02T22:07:22Z</time>
  <course>186.24</course>
  <speed>0.7283543093852057</speed>
  <fix>3d</fix>
</trkpt>
<trkpt lat="33.8101011" lon="-118.3941071">
  <ele>-0.12</ele>
  <time>2026-09-02T22:07:22Z</time>
  <course>186.24</course>
  <speed>0.7283543093852057</speed>
  <fix>3d</fix>
</trkpt>
<trkpt lat="33.810101" lon="-118.3941071">
  <ele>-0.12</ele>
  <time>2026-09-02T22:07:22Z</time>
  <course>186.24</course>
  <speed>0.7283543093852057</speed>
  <fix>3d</fix>
</trkpt>
<trkpt lat="33.810101" lon="-118.3941071">
  <ele>-0.12</ele>
  <time>2026-09-02T22:07:22Z</time>
  <course>186.24</course>
  <speed>0.7283543093852057</speed>
  <fix>3d</fix>
</trkpt>
<trkpt lat="33.810101" lon="-118.3941072">
  <ele>-0.12</ele>
  <time>2026-09-02T22:07:22Z</time>
  <course>186.24</course>
  <speed>0.7283543093852057</speed>
  <fix>3d</fix>
</trkpt>
<trkpt lat="33.8101009" lon="-118.3941072">
  <ele>-0.12</ele>
  <time>2026-09-02T22:07:22Z</time>
  <course>186.24</course>
  <speed>0.7283543093852057</speed>
  <fix>3d</fix>
</trkpt>
<trkpt lat="33.8101009" lon="-118.3941072">
  <ele>-0.12</ele>
  <time>2026-09-02T22:07:22Z</time>
  <course>186.24</course>
  <speed>0.7283543093852057</speed>
  <fix>3d</fix>
</trkpt>
<trkpt lat="33.8101009" lon="-118.3941073">
  <ele>-0.12</ele>
  <time>2026-09-02T22:07:22Z</time>
  <course>186.24</course>
  <speed>0.7213875518748573</speed>
  <fix>3d</fix>
</trkpt>
<trkpt lat="33.8101008" lon="-118.3941073">
  <ele>-0.12</ele>
  <time>2026-09-02T22:07:22Z</time>
  <course>186.24</course>
  <speed>0.7283543093852057</speed>
  <fix>3d</fix>
</trkpt>
<trkpt lat="33.8101008" lon="-118.3941074">
  <ele>-0.12</ele>
  <time>2026-09-02T22:07:22Z</time>
  <course>186.24</course>
  <speed>0.7213875518748573</speed>
  <fix>3d</fix>
</trkpt>
<trkpt lat="33.8101008" lon="-118.3941074">
  <ele>-0.12</ele>
  <time>2026-09-02T22:07:22Z</time>
  <course>186.24</course>
  <speed>0.7213875518748573</speed>
  <fix>3d</fix>
</trkpt>
<trkpt lat="33.8101008" lon="-118.3941074">
  <ele>-0.12</ele>
  <time>2026-09-02T22:07:22Z</time>
  <course>186.24</course>
  <speed>0.7213875518748573</speed>
  <fix>3d</fix>
</trkpt>
<trkpt lat="33.8101017" lon="-118.3941059">
  <ele>-0.1</ele>
  <time>2026-09-02T22:07:22Z</time>
  <course>223.26</course>
  <speed>0.73</speed>
  <fix>3d</fix>
</trkpt>
<trkpt lat="33.8101007" lon="-118.3941075">
  <ele>-0.12</ele>
  <time>2026-09-02T22:07:22Z</time>
  <course>186.24</course>
  <speed>0.7213875518748573</speed>
  <fix>3d</fix>
</trkpt>
<trkpt lat="33.8101007" lon="-118.3941075">
  <ele>-0.12</ele>
  <time>2026-09-02T22:07:22Z</time>
  <course>186.24</course>
  <speed>0.7213875518748573</speed>
  <fix>3d</fix>
</trkpt>
<trkpt lat="33.8101006" lon="-118.3941075">
  <ele>-0.12</ele>
  <time>2026-09-02T22:07:22Z</time>
  <course>186.24</course>
  <speed>0.7213875518748573</speed>
  <fix>3d</fix>
</trkpt>
<trkpt lat="33.8101006" lon="-118.3941076">
  <ele>-0.12</ele>
  <time>2026-09-02T22:07:22Z</time>
  <course>186.24</course>
  <speed>0.7213875518748573</speed>
  <fix>3d</fix>
</trkpt>
<trkpt lat="33.8101006" lon="-118.3941076">
  <ele>-0.12</ele>
  <time>2026-09-02T22:07:22Z</time>
  <course>186.24</course>
  <speed>0.7213875518748573</speed>
  <fix>3d</fix>
</trkpt>
<trkpt lat="33.8101005" lon="-118.3941077">
  <ele>-0.12</ele>
  <time>2026-09-02T22:07:22Z</time>
  <course>186.24</course>
  <speed>0.7213875518748573</speed>
  <fix>3d</fix>
</trkpt>
<trkpt lat="33.8101005" lon="-118.3941077">
  <ele>-0.12</ele>
  <time>2026-09-02T22:07:22Z</time>
  <course>186.24</course>
  <speed>0.7213875518748573</speed>
  <fix>3d</fix>
</trkpt>
<trkpt lat="33.8101005" lon="-118.3941078">
  <ele>-0.12</ele>
  <time>2026-09-02T22:07:22Z</time>
  <course>186.24</course>
  <speed>0.7213875518748573</speed>
  <fix>3d</fix>
</trkpt>
<trkpt lat="33.8101004" lon="-118.3941078">
  <ele>-0.119</ele>
  <time>2026-09-02T22:07:22Z</time>
  <course>186.24</course>
  <speed>0.7283543093852057</speed>
  <fix>3d</fix>
</trkpt>
<trkpt lat="33.8101004" lon="-118.3941078">
  <ele>-0.119</ele>
  <time>2026-09-02T22:07:22Z</time>
  <course>186.24</course>
  <speed>0.7213875518748573</speed>
  <fix>3d</fix>
</trkpt>
<trkpt lat="33.8101004" lon="-118.3941079">
  <ele>-0.119</ele>
  <time>2026-09-02T22:07:22Z</time>
  <course>186.24</course>
  <speed>0.7283543093852057</speed>
  <fix>3d</fix>
</trkpt>
<trkpt lat="33.8101003" lon="-118.3941079">
  <ele>-0.119</ele>
  <time>2026-09-02T22:07:22Z</time>
  <course>186.24</course>
  <speed>0.7213875518748573</speed>
  <fix>3d</fix>
</trkpt>
<trkpt lat="33.8101003" lon="-118.394108">
  <ele>-0.119</ele>
  <time>2026-09-02T22:07:22Z</time>
  <course>186.24</course>
  <speed>0.7283543093852057</speed>
  <fix>3d</fix>
</trkpt>
<trkpt lat="33.8101003" lon="-118.394108">
  <ele>-0.119</ele>
  <time>2026-09-02T22:07:22Z</time>
  <course>186.24</course>
  <speed>0.7283543093852057</speed>
  <fix>3d</fix>
</trkpt>
<trkpt lat="33.8101008" lon="-118.394107">
  <ele>-0.11</ele>
  <time>2026-09-02T22:07:22Z</time>
  <course>223.26</course>
  <speed>0.73</speed>
  <fix>3d</fix>
</trkpt>
<trkpt lat="33.8101002" lon="-118.394108">
  <ele>-0.119</ele>
  <time>2026-09-02T22:07:22Z</time>
  <course>186.24</course>
  <speed>0.7283543093852057</speed>
  <fix>3d</fix>
</trkpt>
<trkpt lat="33.8101002" lon="-118.3941081">
  <ele>-0.119</ele>
  <time>2026-09-02T22:07:22Z</time>
  <course>186.24</course>
  <speed>0.7213875518748573</speed>
  <fix>3d</fix>
</trkpt>
<trkpt lat="33.8101002" lon="-118.3941081">
  <ele>-0.119</ele>
  <time>2026-09-02T22:07:22Z</time>
  <course>186.24</course>
  <speed>0.7283543093852057</speed>
  <fix>3d</fix>
</trkpt>
<trkpt lat="33.8101001" lon="-118.3941081">
  <ele>-0.119</ele>
  <time>2026-09-02T22:07:22Z</time>
  <course>186.24</course>
  <speed>0.7283543093852057</speed>
  <fix>3d</fix>
</trkpt>
<trkpt lat="33.8101001" lon="-118.3941082">
  <ele>-0.119</ele>
  <time>2026-09-02T22:07:22Z</time>
  <course>186.24</course>
  <speed>0.7213875518748573</speed>
  <fix>3d</fix>
</trkpt>
<trkpt lat="33.8101001" lon="-118.3941082">
  <ele>-0.119</ele>
  <time>2026-09-02T22:07:22Z</time>
  <course>186.24</course>
  <speed>0.7283543093852057</speed>
  <fix>3d</fix>
</trkpt>
<trkpt lat="33.8101" lon="-118.3941082">
  <ele>-0.119</ele>
  <time>2026-09-02T22:07:22Z</time>
  <course>186.24</course>
  <speed>0.7213875518748573</speed>
  <fix>3d</fix>
</trkpt>
<trkpt lat="33.8101" lon="-118.3941083">
  <ele>-0.119</ele>
  <time>2026-09-02T22:07:22Z</time>
  <course>186.24</course>
  <speed>0.7283543093852057</speed>
  <fix>3d</fix>
</trkpt>
<trkpt lat="33.8101" lon="-118.3941083">
  <ele>-0.119</ele>
  <time>2026-09-02T22:07:22Z</time>
  <course>186.24</course>
  <speed>0.7213875518748573</speed>
  <fix>3d</fix>
</trkpt>
<trkpt lat="33.8100999" lon="-118.3941084">
  <ele>-0.119</ele>
  <time>2026-09-02T22:07:22Z</time>
  <course>186.24</course>
  <speed>0.7213875518748573</speed>
  <fix>3d</fix>
</trkpt>
<trkpt lat="33.8100999" lon="-118.3941084">
  <ele>-0.119</ele>
  <time>2026-09-02T22:07:22Z</time>
  <course>186.24</course>
  <speed>0.7213875518748573</speed>
  <fix>3d</fix>
</trkpt>
<trkpt lat="33.8100999" lon="-118.3941084">
  <ele>-0.119</ele>
  <time>2026-09-02T22:07:22Z</time>
  <course>186.24</course>
  <speed>0.7213875518748573</speed>
  <fix>3d</fix>
</trkpt>
<trkpt lat="33.8100998" lon="-118.3941085">
  <ele>-0.119</ele>
  <time>2026-09-02T22:07:22Z</time>
  <course>186.24</course>
  <speed>0.7213875518748573</speed>
  <fix>3d</fix>
</trkpt>
<trkpt lat="33.8100998" lon="-118.3941085">
  <ele>-0.119</ele>
  <time>2026-09-02T22:07:22Z</time>
  <course>186.24</course>
  <speed>0.7213875518748573</speed>
  <fix>3d</fix>
</trkpt>
<trkpt lat="33.8101008" lon="-118.394107">
  <ele>-0.11</ele>
  <time>2026-09-02T22:07:22Z</time>
  <course>223.26</course>
  <speed>0.73</speed>
  <fix>3d</fix>
</trkpt>
<trkpt lat="33.8100998" lon="-118.3941085">
  <ele>-0.119</ele>
  <time>2026-09-02T22:07:22Z</time>
  <course>186.24</course>
  <speed>0.7213875518748573</speed>
  <fix>3d</fix>
</trkpt>
<trkpt lat="33.8100997" lon="-118.3941086">
  <ele>-0.118</ele>
  <time>2026-09-02T22:07:22Z</time>
  <course>186.24</course>
  <speed>0.7213875518748573</speed>
  <fix>3d</fix>
</trkpt>
<trkpt lat="33.8100997" lon="-118.3941087">
  <ele>-0.118</ele>
  <time>2026-09-02T22:07:22Z</time>
  <course>186.24</course>
  <speed>0.7213875518748573</speed>
  <fix>3d</fix>
</trkpt>
<trkpt lat="33.8100996" lon="-118.3941087">
  <ele>-0.118</ele>
  <time>2026-09-02T22:07:22Z</time>
  <course>186.24</course>
  <speed>0.7213875518748573</speed>
  <fix>3d</fix>
</trkpt>
<trkpt lat="33.8100996" lon="-118.3941087">
  <ele>-0.118</ele>
  <time>2026-09-02T22:07:22Z</time>
  <course>186.24</course>
  <speed>0.7213875518748573</speed>
  <fix>3d</fix>
</trkpt>
<trkpt lat="33.8100996" lon="-118.3941088">
  <ele>-0.118</ele>
  <time>2026-09-02T22:07:22Z</time>
  <course>186.24</course>
  <speed>0.7213875518748573</speed>
  <fix>3d</fix>
</trkpt>
<trkpt lat="33.8100995" lon="-118.3941088">
  <ele>-0.118</ele>
  <time>2026-09-02T22:07:22Z</time>
  <course>186.24</course>
  <speed>0.7213875518748573</speed>
  <fix>3d</fix>
</trkpt>
<trkpt lat="33.8100995" lon="-118.3941089">
  <ele>-0.118</ele>
  <time>2026-09-02T22:07:22Z</time>
  <course>186.24</course>
  <speed>0.7213875518748573</speed>
  <fix>3d</fix>
</trkpt>
<trkpt lat="33.8100994" lon="-118.3941089">
  <ele>-0.117</ele>
  <time>2026-09-02T22:07:22Z</time>
  <course>186.24</course>
  <speed>0.7213875518748573</speed>
  <fix>3d</fix>
</trkpt>
<trkpt lat="33.8100994" lon="-118.394109">
  <ele>-0.117</ele>
  <time>2026-09-02T22:07:22Z</time>
  <course>186.24</course>
  <speed>0.7213875518748573</speed>
  <fix>3d</fix>
</trkpt>
<trkpt lat="33.8100994" lon="-118.394109">
  <ele>-0.117</ele>
  <time>2026-09-02T22:07:22Z</time>
  <course>186.24</course>
  <speed>0.7213875518748573</speed>
  <fix>3d</fix>
</trkpt>
<trkpt lat="33.8100993" lon="-118.394109">
  <ele>-0.117</ele>
  <time>2026-09-02T22:07:22Z</time>
  <course>186.24</course>
  <speed>0.7213875518748573</speed>
  <fix>3d</fix>
</trkpt>
<trkpt lat="33.8100993" lon="-118.3941091">
  <ele>-0.117</ele>
  <time>2026-09-02T22:07:22Z</time>
  <course>186.24</course>
  <speed>0.7213875518748573</speed>
  <fix>3d</fix>
</trkpt>
<trkpt lat="33.8100998" lon="-118.3941081">
  <ele>-0.1</ele>
  <time>2026-09-02T22:07:22Z</time>
  <course>223.26</course>
  <speed>0.73</speed>
  <fix>3d</fix>
</trkpt>
<trkpt lat="33.8100993" lon="-118.3941091">
  <ele>-0.117</ele>
  <time>2026-09-02T22:07:22Z</time>
  <course>186.24</course>
  <speed>0.7213875518748573</speed>
  <fix>3d</fix>
</trkpt>
<trkpt lat="33.8100993" lon="-118.3941091">
  <ele>-0.117</ele>
  <time>2026-09-02T22:07:22Z</time>
  <course>186.24</course>
  <speed>0.7213875518748573</speed>
  <fix>3d</fix>
</trkpt>
<trkpt lat="33.8100992" lon="-118.3941091">
  <ele>-0.117</ele>
  <time>2026-09-02T22:07:22Z</time>
  <course>186.24</course>
  <speed>0.7283543093852057</speed>
  <fix>3d</fix>
</trkpt>
<trkpt lat="33.8100992" lon="-118.3941092">
  <ele>-0.117</ele>
  <time>2026-09-02T22:07:22Z</time>
  <course>186.24</course>
  <speed>0.7213875518748573</speed>
  <fix>3d</fix>
</trkpt>
<trkpt lat="33.8100992" lon="-118.3941092">
  <ele>-0.116</ele>
  <time>2026-09-02T22:07:22Z</time>
  <course>186.24</course>
  <speed>0.7213875518748573</speed>
  <fix>3d</fix>
</trkpt>
<trkpt lat="33.8100991" lon="-118.3941093">
  <ele>-0.116</ele>
  <time>2026-09-02T22:07:22Z</time>
  <course>186.24</course>
  <speed>0.7213875518748573</speed>
  <fix>3d</fix>
</trkpt>
<trkpt lat="33.8100991" lon="-118.3941093">
  <ele>-0.116</ele>
  <time>2026-09-02T22:07:22Z</time>
  <course>186.24</course>
  <speed>0.7213875518748573</speed>
  <fix>3d</fix>
</trkpt>
<trkpt lat="33.8100991" lon="-118.3941094">
  <ele>-0.116</ele>
  <time>2026-09-02T22:07:22Z</time>
  <course>186.24</course>
  <speed>0.7213875518748573</speed>
  <fix>3d</fix>
</trkpt>
<trkpt lat="33.810099" lon="-118.3941094">
  <ele>-0.116</ele>
  <time>2026-09-02T22:07:22Z</time>
  <course>186.24</course>
  <speed>0.7213875518748573</speed>
  <fix>3d</fix>
</trkpt>
<trkpt lat="33.810099" lon="-118.3941094">
  <ele>-0.116</ele>
  <time>2026-09-02T22:07:22Z</time>
  <course>186.24</course>
  <speed>0.7213875518748573</speed>
  <fix>3d</fix>
</trkpt>
<trkpt lat="33.810099" lon="-118.3941095">
  <ele>-0.116</ele>
  <time>2026-09-02T22:07:22Z</time>
  <course>186.24</course>
  <speed>0.7213875518748573</speed>
  <fix>3d</fix>
</trkpt>
<trkpt lat="33.8100989" lon="-118.3941095">
  <ele>-0.116</ele>
  <time>2026-09-02T22:07:22Z</time>
  <course>186.24</course>
  <speed>0.7213875518748573</speed>
  <fix>3d</fix>
</trkpt>
<trkpt lat="33.8100989" lon="-118.3941096">
  <ele>-0.116</ele>
  <time>2026-09-02T22:07:22Z</time>
  <course>186.24</course>
  <speed>0.7213875518748573</speed>
  <fix>3d</fix>
</trkpt>
<trkpt lat="33.8100988" lon="-118.3941096">
  <ele>-0.116</ele>
  <time>2026-09-02T22:07:22Z</time>
  <course>186.24</course>
  <speed>0.7213875518748573</speed>
  <fix>3d</fix>
</trkpt>
<trkpt lat="33.8100988" lon="-118.3941096">
  <ele>-0.116</ele>
  <time>2026-09-02T22:07:22Z</time>
  <course>186.24</course>
  <speed>0.7213875518748573</speed>
  <fix>3d</fix>
</trkpt>
<trkpt lat="33.8100998" lon="-118.3941081">
  <ele>-0.1</ele>
  <time>2026-09-02T22:07:22Z</time>
  <course>223.26</course>
  <speed>0.73</speed>
  <fix>3d</fix>
</trkpt>
<trkpt lat="33.8100988" lon="-118.3941097">
  <ele>-0.116</ele>
  <time>2026-09-02T22:07:22Z</time>
  <course>186.24</course>
  <speed>0.7213875518748573</speed>
  <fix>3d</fix>
</trkpt>
<trkpt lat="33.8100988" lon="-118.3941097">
  <ele>-0.115</ele>
  <time>2026-09-02T22:07:22Z</time>
  <course>186.24</course>
  <speed>0.7213875518748573</speed>
  <fix>3d</fix>
</trkpt>
<trkpt lat="33.8100987" lon="-118.3941097">
  <ele>-0.115</ele>
  <time>2026-09-02T22:07:22Z</time>
  <course>186.24</course>
  <speed>0.7213875518748573</speed>
  <fix>3d</fix>
</trkpt>
<trkpt lat="33.8100987" lon="-118.3941098">
  <ele>-0.115</ele>
  <time>2026-09-02T22:07:22Z</time>
  <course>186.24</course>
  <speed>0.7213875518748573</speed>
  <fix>3d</fix>
</trkpt>
<trkpt lat="33.8100986" lon="-118.3941098">
  <ele>-0.115</ele>
  <time>2026-09-02T22:07:22Z</time>
  <course>186.24</course>
  <speed>0.7213875518748573</speed>
  <fix>3d</fix>
</trkpt>
<trkpt lat="33.8100986" lon="-118.3941099">
  <ele>-0.115</ele>
  <time>2026-09-02T22:07:22Z</time>
  <course>186.24</course>
  <speed>0.7213875518748573</speed>
  <fix>3d</fix>
</trkpt>
<trkpt lat="33.8100986" lon="-118.3941099">
  <ele>-0.115</ele>
  <time>2026-09-02T22:07:22Z</time>
  <course>186.24</course>
  <speed>0.7213875518748573</speed>
  <fix>3d</fix>
</trkpt>
<trkpt lat="33.8100985" lon="-118.39411">
  <ele>-0.115</ele>
  <time>2026-09-02T22:07:22Z</time>
  <course>186.24</course>
  <speed>0.7213875518748573</speed>
  <fix>3d</fix>
</trkpt>
<trkpt lat="33.8100985" lon="-118.39411">
  <ele>-0.115</ele>
  <time>2026-09-02T22:07:22Z</time>
  <course>186.24</course>
  <speed>0.7213875518748573</speed>
  <fix>3d</fix>
</trkpt>
<trkpt lat="33.8100985" lon="-118.3941101">
  <ele>-0.115</ele>
  <time>2026-09-02T22:07:22Z</time>
  <course>186.24</course>
  <speed>0.7213875518748573</speed>
  <fix>3d</fix>
</trkpt>
<trkpt lat="33.8100984" lon="-118.3941101">
  <ele>-0.115</ele>
  <time>2026-09-02T22:07:22Z</time>
  <course>186.24</course>
  <speed>0.7213875518748573</speed>
  <fix>3d</fix>
</trkpt>
<trkpt lat="33.8100984" lon="-118.3941101">
  <ele>-0.115</ele>
  <time>2026-09-02T22:07:22Z</time>
  <course>186.24</course>
  <speed>0.7213875518748573</speed>
  <fix>3d</fix>
</trkpt>
<trkpt lat="33.8100984" lon="-118.3941101">
  <ele>-0.115</ele>
  <time>2026-09-02T22:07:22Z</time>
  <course>186.24</course>
  <speed>0.7213875518748573</speed>
  <fix>3d</fix>
</trkpt>
<trkpt lat="33.8100989" lon="-118.3941092">
  <ele>-0.1</ele>
  <time>2026-09-02T22:07:22Z</time>
  <course>223.26</course>
  <speed>0.73</speed>
  <fix>3d</fix>
</trkpt>
<trkpt lat="33.8100983" lon="-118.3941102">
  <ele>-0.115</ele>
  <time>2026-09-02T22:07:22Z</time>
  <course>186.24</course>
  <speed>0.7213875518748573</speed>
  <fix>3d</fix>
</trkpt>
<trkpt lat="33.8100983" lon="-118.3941102">
  <ele>-0.115</ele>
  <time>2026-09-02T22:07:22Z</time>
  <course>186.24</course>
  <speed>0.7213875518748573</speed>
  <fix>3d</fix>
</trkpt>
<trkpt lat="33.8100982" lon="-118.3941103">
  <ele>-0.115</ele>
  <time>2026-09-02T22:07:22Z</time>
  <course>186.24</course>
  <speed>0.7213875518748573</speed>
  <fix>3d</fix>
</trkpt>
<trkpt lat="33.8100982" lon="-118.3941103">
  <ele>-0.115</ele>
  <time>2026-09-02T22:07:22Z</time>
  <course>186.24</course>
  <speed>0.7213875518748573</speed>
  <fix>3d</fix>
</trkpt>
<trkpt lat="33.8100982" lon="-118.3941104">
  <ele>-0.115</ele>
  <time>2026-09-02T22:07:22Z</time>
  <course>186.24</course>
  <speed>0.7213875518748573</speed>
  <fix>3d</fix>
</trkpt>
<trkpt lat="33.8100981" lon="-118.3941104">
  <ele>-0.115</ele>
  <time>2026-09-02T22:07:22Z</time>
  <course>186.24</course>
  <speed>0.7213875518748573</speed>
  <fix>3d</fix>
</trkpt>
<trkpt lat="33.8100981" lon="-118.3941104">
  <ele>-0.115</ele>
  <time>2026-09-02T22:07:22Z</time>
  <course>186.24</course>
  <speed>0.7213875518748573</speed>
  <fix>3d</fix>
</trkpt>
<trkpt lat="33.8100981" lon="-118.3941105">
  <ele>-0.115</ele>
  <time>2026-09-02T22:07:22Z</time>
  <course>186.24</course>
  <speed>0.7213875518748573</speed>
  <fix>3d</fix>
</trkpt>
<trkpt lat="33.810098" lon="-118.3941105">
  <ele>-0.115</ele>
  <time>2026-09-02T22:07:22Z</time>
  <course>186.24</course>
  <speed>0.7213875518748573</speed>
  <fix>3d</fix>
</trkpt>
<trkpt lat="33.810098" lon="-118.3941106">
  <ele>-0.115</ele>
  <time>2026-09-02T22:07:22Z</time>
  <course>186.24</course>
  <speed>0.7213875518748573</speed>
  <fix>3d</fix>
</trkpt>
<trkpt lat="33.810098" lon="-118.3941106">
  <ele>-0.115</ele>
  <time>2026-09-02T22:07:22Z</time>
  <course>186.24</course>
  <speed>0.7213875518748573</speed>
  <fix>3d</fix>
</trkpt>
<trkpt lat="33.8100979" lon="-118.3941107">
  <ele>-0.115</ele>
  <time>2026-09-02T22:07:22Z</time>
  <course>186.24</course>
  <speed>0.7213875518748573</speed>
  <fix>3d</fix>
</trkpt>
<trkpt lat="33.8100979" lon="-118.3941107">
  <ele>-0.115</ele>
  <time>2026-09-02T22:07:22Z</time>
  <course>186.24</course>
  <speed>0.7213875518748573</speed>
  <fix>3d</fix>
</trkpt>
<trkpt lat="33.8100979" lon="-118.3941107">
  <ele>-0.115</ele>
  <time>2026-09-02T22:07:22Z</time>
  <course>186.24</course>
  <speed>0.7213875518748573</speed>
  <fix>3d</fix>
</trkpt>
<trkpt lat="33.8100989" lon="-118.3941092">
  <ele>-0.1</ele>
  <time>2026-09-02T22:07:22Z</time>
  <course>223.26</course>
  <speed>0.73</speed>
  <fix>3d</fix>
</trkpt>
<trkpt lat="33.8100978" lon="-118.3941108">
  <ele>-0.116</ele>
  <time>2026-09-02T22:07:22Z</time>
  <course>186.24</course>
  <speed>0.7213875518748573</speed>
  <fix>3d</fix>
</trkpt>
<trkpt lat="33.8100978" lon="-118.3941108">
  <ele>-0.116</ele>
  <time>2026-09-02T22:07:22Z</time>
  <course>186.24</course>
  <speed>0.7213875518748573</speed>
  <fix>3d</fix>
</trkpt>
<trkpt lat="33.8100978" lon="-118.3941109">
  <ele>-0.116</ele>
  <time>2026-09-02T22:07:22Z</time>
  <course>186.24</course>
  <speed>0.7213875518748573</speed>
  <fix>3d</fix>
</trkpt>
<trkpt lat="33.8100977" lon="-118.3941109">
  <ele>-0.116</ele>
  <time>2026-09-02T22:07:22Z</time>
  <course>186.24</course>
  <speed>0.7213875518748573</speed>
  <fix>3d</fix>
</trkpt>
<trkpt lat="33.8100977" lon="-118.3941109">
  <ele>-0.116</ele>
  <time>2026-09-02T22:07:22Z</time>
  <course>186.24</course>
  <speed>0.7213875518748573</speed>
  <fix>3d</fix>
</trkpt>
<trkpt lat="33.8100976" lon="-118.394111">
  <ele>-0.116</ele>
  <time>2026-09-02T22:07:22Z</time>
  <course>186.24</course>
  <speed>0.7213875518748573</speed>
  <fix>3d</fix>
</trkpt>
<trkpt lat="33.8100976" lon="-118.394111">
  <ele>-0.116</ele>
  <time>2026-09-02T22:07:22Z</time>
  <course>186.24</course>
  <speed>0.7213875518748573</speed>
  <fix>3d</fix>
</trkpt>
<trkpt lat="33.8100976" lon="-118.3941111">
  <ele>-0.116</ele>
  <time>2026-09-02T22:07:22Z</time>
  <course>186.24</course>
  <speed>0.7213875518748573</speed>
  <fix>3d</fix>
</trkpt>
<trkpt lat="33.8100975" lon="-118.3941111">
  <ele>-0.116</ele>
  <time>2026-09-02T22:07:22Z</time>
  <course>186.24</course>
  <speed>0.7213875518748573</speed>
  <fix>3d</fix>
</trkpt>
<trkpt lat="33.8100975" lon="-118.3941112">
  <ele>-0.116</ele>
  <time>2026-09-02T22:07:22Z</time>
  <course>186.24</course>
  <speed>0.7213875518748573</speed>
  <fix>3d</fix>
</trkpt>
<trkpt lat="33.8100974" lon="-118.3941112">
  <ele>-0.116</ele>
  <time>2026-09-02T22:07:22Z</time>
  <course>186.24</course>
  <speed>0.7213875518748573</speed>
  <fix>3d</fix>
</trkpt>
<trkpt lat="33.8100974" lon="-118.3941112">
  <ele>-0.116</ele>
  <time>2026-09-02T22:07:22Z</time>
  <course>186.24</course>
  <speed>0.7213875518748573</speed>
  <fix>3d</fix>
</trkpt>
<trkpt lat="33.8100979" lon="-118.3941102">
  <ele>-0.1</ele>
  <time>2026-09-02T22:07:22Z</time>
  <course>223.26</course>
  <speed>0.73</speed>
  <fix>3d</fix>
</trkpt>
<trkpt lat="33.8100974" lon="-118.3941112">
  <ele>-0.116</ele>
  <time>2026-09-02T22:07:22Z</time>
  <course>186.24</course>
  <speed>0.7213875518748573</speed>
  <fix>3d</fix>
</trkpt>
<trkpt lat="33.8100974" lon="-118.3941113">
  <ele>-0.116</ele>
  <time>2026-09-02T22:07:22Z</time>
  <course>186.24</course>
  <speed>0.7213875518748573</speed>
  <fix>3d</fix>
</trkpt>
<trkpt lat="33.8100973" lon="-118.3941114">
  <ele>-0.116</ele>
  <time>2026-09-02T22:07:22Z</time>
  <course>186.24</course>
  <speed>0.7213875518748573</speed>
  <fix>3d</fix>
</trkpt>
<trkpt lat="33.8100973" lon="-118.3941114">
  <ele>-0.115</ele>
  <time>2026-09-02T22:07:22Z</time>
  <course>186.24</course>
  <speed>0.7213875518748573</speed>
  <fix>3d</fix>
</trkpt>
<trkpt lat="33.8100972" lon="-118.3941114">
  <ele>-0.116</ele>
  <time>2026-09-02T22:07:22Z</time>
  <course>186.24</course>
  <speed>0.7213875518748573</speed>
  <fix>3d</fix>
</trkpt>
<trkpt lat="33.8100972" lon="-118.3941115">
  <ele>-0.115</ele>
  <time>2026-09-02T22:07:22Z</time>
  <course>186.24</course>
  <speed>0.7213875518748573</speed>
  <fix>3d</fix>
</trkpt>
<trkpt lat="33.8100972" lon="-118.3941115">
  <ele>-0.116</ele>
  <time>2026-09-02T22:07:22Z</time>
  <course>186.24</course>
  <speed>0.7213875518748573</speed>
  <fix>3d</fix>
</trkpt>
<trkpt lat="33.8100971" lon="-118.3941116">
  <ele>-0.115</ele>
  <time>2026-09-02T22:07:22Z</time>
  <course>186.24</course>
  <speed>0.7213875518748573</speed>
  <fix>3d</fix>
</trkpt>
<trkpt lat="33.8100971" lon="-118.3941116">
  <ele>-0.115</ele>
  <time>2026-09-02T22:07:22Z</time>
  <course>186.24</course>
  <speed>0.7213875518748573</speed>
  <fix>3d</fix>
</trkpt>
<trkpt lat="33.8100971" lon="-118.3941116">
  <ele>-0.115</ele>
  <time>2026-09-02T22:07:22Z</time>
  <course>186.24</course>
  <speed>0.7213875518748573</speed>
  <fix>3d</fix>
</trkpt>
<trkpt lat="33.810097" lon="-118.3941117">
  <ele>-0.115</ele>
  <time>2026-09-02T22:07:22Z</time>
  <course>186.24</course>
  <speed>0.7213875518748573</speed>
  <fix>3d</fix>
</trkpt>
<trkpt lat="33.810097" lon="-118.3941117">
  <ele>-0.115</ele>
  <time>2026-09-02T22:07:22Z</time>
  <course>186.24</course>
  <speed>0.7213875518748573</speed>
  <fix>3d</fix>
</trkpt>
<trkpt lat="33.810097" lon="-118.3941118">
  <ele>-0.115</ele>
  <time>2026-09-02T22:07:22Z</time>
  <course>186.24</course>
  <speed>0.7213875518748573</speed>
  <fix>3d</fix>
</trkpt>
<trkpt lat="33.8100969" lon="-118.3941118">
  <ele>-0.115</ele>
  <time>2026-09-02T22:07:22Z</time>
  <course>186.24</course>
  <speed>0.7213875518748573</speed>
  <fix>3d</fix>
</trkpt>
<trkpt lat="33.8100979" lon="-118.3941102">
  <ele>-0.1</ele>
  <time>2026-09-02T22:07:22Z</time>
  <course>223.26</course>
  <speed>0.73</speed>
  <fix>3d</fix>
</trkpt>
<trkpt lat="33.8100969" lon="-118.3941118">
  <ele>-0.115</ele>
  <time>2026-09-02T22:07:22Z</time>
  <course>186.24</course>
  <speed>0.7213875518748573</speed>
  <fix>3d</fix>
</trkpt>
<trkpt lat="33.8100969" lon="-118.3941118">
  <ele>-0.115</ele>
  <time>2026-09-02T22:07:22Z</time>
  <course>186.24</course>
  <speed>0.7213875518748573</speed>
  <fix>3d</fix>
</trkpt>
<trkpt lat="33.8100969" lon="-118.3941119">
  <ele>-0.115</ele>
  <time>2026-09-02T22:07:22Z</time>
  <course>186.24</course>
  <speed>0.7213875518748573</speed>
  <fix>3d</fix>
</trkpt>
<trkpt lat="33.8100968" lon="-118.3941119">
  <ele>-0.115</ele>
  <time>2026-09-02T22:07:22Z</time>
  <course>186.24</course>
  <speed>0.7213875518748573</speed>
  <fix>3d</fix>
</trkpt>
<trkpt lat="33.8100968" lon="-118.394112">
  <ele>-0.115</ele>
  <time>2026-09-02T22:07:22Z</time>
  <course>186.24</course>
  <speed>0.7213875518748573</speed>
  <fix>3d</fix>
</trkpt>
<trkpt lat="33.8100968" lon="-118.394112">
  <ele>-0.115</ele>
  <time>2026-09-02T22:07:22Z</time>
  <course>186.24</course>
  <speed>0.7213875518748573</speed>
  <fix>3d</fix>
</trkpt>
<trkpt lat="33.8100967" lon="-118.394112">
  <ele>-0.115</ele>
  <time>2026-09-02T22:07:22Z</time>
  <course>186.24</course>
  <speed>0.7213875518748573</speed>
  <fix>3d</fix>
</trkpt>
<trkpt lat="33.8100967" lon="-118.3941121">
  <ele>-0.115</ele>
  <time>2026-09-02T22:07:22Z</time>
  <course>186.24</course>
  <speed>0.7213875518748573</speed>
  <fix>3d</fix>
</trkpt>
<trkpt lat="33.8100967" lon="-118.3941121">
  <ele>-0.115</ele>
  <time>2026-09-02T22:07:22Z</time>
  <course>186.24</course>
  <speed>0.7213875518748573</speed>
  <fix>3d</fix>
</trkpt>
<trkpt lat="33.8100966" lon="-118.3941121">
  <ele>-0.115</ele>
  <time>2026-09-02T22:07:22Z</time>
  <course>186.24</course>
  <speed>0.7213875518748573</speed>
  <fix>3d</fix>
</trkpt>
<trkpt lat="33.8100966" lon="-118.3941122">
  <ele>-0.115</ele>
  <time>2026-09-02T22:07:22Z</time>
  <course>186.24</course>
  <speed>0.7213875518748573</speed>
  <fix>3d</fix>
</trkpt>
<trkpt lat="33.8100966" lon="-118.3941122">
  <ele>-0.115</ele>
  <time>2026-09-02T22:07:22Z</time>
  <course>186.24</course>
  <speed>0.7213875518748573</speed>
  <fix>3d</fix>
</trkpt>
<trkpt lat="33.8100965" lon="-118.3941122">
  <ele>-0.115</ele>
  <time>2026-09-02T22:07:22Z</time>
  <course>186.24</course>
  <speed>0.7213875518748573</speed>
  <fix>3d</fix>
</trkpt>
<trkpt lat="33.8100965" lon="-118.3941123">
  <ele>-0.115</ele>
  <time>2026-09-02T22:07:22Z</time>
  <course>186.24</course>
  <speed>0.7213875518748573</speed>
  <fix>3d</fix>
</trkpt>
<trkpt lat="33.8100965" lon="-118.3941123">
  <ele>-0.115</ele>
  <time>2026-09-02T22:07:22Z</time>
  <course>186.24</course>
  <speed>0.7213875518748573</speed>
  <fix>3d</fix>
</trkpt>
<trkpt lat="33.8100969" lon="-118.3941113">
  <ele>-0.1</ele>
  <time>2026-09-02T22:07:22Z</time>
  <course>223.26</course>
  <speed>0.73</speed>
  <fix>3d</fix>
</trkpt>
<trkpt lat="33.8100965" lon="-118.3941123">
  <ele>-0.115</ele>
  <time>2026-09-02T22:07:22Z</time>
  <course>186.24</course>
  <speed>0.7213875518748573</speed>
  <fix>3d</fix>
</trkpt>
<trkpt lat="33.8100964" lon="-118.3941124">
  <ele>-0.115</ele>
  <time>2026-09-02T22:07:22Z</time>
  <course>186.24</course>
  <speed>0.7213875518748573</speed>
  <fix>3d</fix>
</trkpt>
<trkpt lat="33.8100964" lon="-118.3941124">
  <ele>-0.115</ele>
  <time>2026-09-02T22:07:22Z</time>
  <course>186.24</course>
  <speed>0.7213875518748573</speed>
  <fix>3d</fix>
</trkpt>
<trkpt lat="33.8100963" lon="-118.3941124">
  <ele>-0.115</ele>
  <time>2026-09-02T22:07:22Z</time>
  <course>186.24</course>
  <speed>0.7213875518748573</speed>
  <fix>3d</fix>
</trkpt>
<trkpt lat="33.8100963" lon="-118.3941125">
  <ele>-0.115</ele>
  <time>2026-09-02T22:07:22Z</time>
  <course>186.24</course>
  <speed>0.7213875518748573</speed>
  <fix>3d</fix>
</trkpt>
<trkpt lat="33.8100963" lon="-118.3941125">
  <ele>-0.115</ele>
  <time>2026-09-02T22:07:22Z</time>
  <course>186.24</course>
  <speed>0.7213875518748573</speed>
  <fix>3d</fix>
</trkpt>
<trkpt lat="33.8100962" lon="-118.3941126">
  <ele>-0.115</ele>
  <time>2026-09-02T22:07:22Z</time>
  <course>186.24</course>
  <speed>0.7213875518748573</speed>
  <fix>3d</fix>
</trkpt>
<trkpt lat="33.8100962" lon="-118.3941126">
  <ele>-0.115</ele>
  <time>2026-09-02T22:07:22Z</time>
  <course>186.24</course>
  <speed>0.7213875518748573</speed>
  <fix>3d</fix>
</trkpt>
<trkpt lat="33.8100962" lon="-118.3941127">
  <ele>-0.115</ele>
  <time>2026-09-02T22:07:22Z</time>
  <course>186.24</course>
  <speed>0.7213875518748573</speed>
  <fix>3d</fix>
</trkpt>
<trkpt lat="33.8100961" lon="-118.3941127">
  <ele>-0.115</ele>
  <time>2026-09-02T22:07:22Z</time>
  <course>186.24</course>
  <speed>0.7213875518748573</speed>
  <fix>3d</fix>
</trkpt>
<trkpt lat="33.8100961" lon="-118.3941127">
  <ele>-0.115</ele>
  <time>2026-09-02T22:07:22Z</time>
  <course>186.24</course>
  <speed>0.7213875518748573</speed>
  <fix>3d</fix>
</trkpt>
<trkpt lat="33.8100961" lon="-118.3941128">
  <ele>-0.115</ele>
  <time>2026-09-02T22:07:22Z</time>
  <course>186.24</course>
  <speed>0.7213875518748573</speed>
  <fix>3d</fix>
</trkpt>
<trkpt lat="33.810096" lon="-118.3941128">
  <ele>-0.114</ele>
  <time>2026-09-02T22:07:22Z</time>
  <course>186.24</course>
  <speed>0.7213875518748573</speed>
  <fix>3d</fix>
</trkpt>
<trkpt lat="33.810096" lon="-118.3941128">
  <ele>-0.114</ele>
  <time>2026-09-02T22:07:22Z</time>
  <course>186.24</course>
  <speed>0.7213875518748573</speed>
  <fix>3d</fix>
</trkpt>
<trkpt lat="33.810096" lon="-118.3941129">
  <ele>-0.114</ele>
  <time>2026-09-02T22:07:22Z</time>
  <course>186.24</course>
  <speed>0.7213875518748573</speed>
  <fix>3d</fix>
</trkpt>
<trkpt lat="33.8100969" lon="-118.3941113">
  <ele>-0.1</ele>
  <time>2026-09-02T22:07:22Z</time>
  <course>223.26</course>
  <speed>0.73</speed>
  <fix>3d</fix>
</trkpt>
<trkpt lat="33.810096" lon="-118.3941129">
  <ele>-0.114</ele>
  <time>2026-09-02T22:07:22Z</time>
  <course>186.24</course>
  <speed>0.7213875518748573</speed>
  <fix>3d</fix>
</trkpt>
<trkpt lat="33.8100959" lon="-118.3941129">
  <ele>-0.114</ele>
  <time>2026-09-02T22:07:22Z</time>
  <course>186.24</course>
  <speed>0.7213875518748573</speed>
  <fix>3d</fix>
</trkpt>
<trkpt lat="33.8100959" lon="-118.3941129">
  <ele>-0.114</ele>
  <time>2026-09-02T22:07:22Z</time>
  <course>186.24</course>
  <speed>0.7213875518748573</speed>
  <fix>3d</fix>
</trkpt>
<trkpt lat="33.8100959" lon="-118.394113">
  <ele>-0.114</ele>
  <time>2026-09-02T22:07:22Z</time>
  <course>186.24</course>
  <speed>0.7213875518748573</speed>
  <fix>3d</fix>
</trkpt>
<trkpt lat="33.8100958" lon="-118.394113">
  <ele>-0.114</ele>
  <time>2026-09-02T22:07:22Z</time>
  <course>186.24</course>
  <speed>0.7213875518748573</speed>
  <fix>3d</fix>
</trkpt>
<trkpt lat="33.8100958" lon="-118.3941131">
  <ele>-0.114</ele>
  <time>2026-09-02T22:07:22Z</time>
  <course>186.24</course>
  <speed>0.7213875518748573</speed>
  <fix>3d</fix>
</trkpt>
<trkpt lat="33.8100958" lon="-118.3941131">
  <ele>-0.115</ele>
  <time>2026-09-02T22:07:22Z</time>
  <course>186.24</course>
  <speed>0.7213875518748573</speed>
  <fix>3d</fix>
</trkpt>
<trkpt lat="33.8100957" lon="-118.3941131">
  <ele>-0.114</ele>
  <time>2026-09-02T22:07:22Z</time>
  <course>186.24</course>
  <speed>0.7213875518748573</speed>
  <fix>3d</fix>
</trkpt>
<trkpt lat="33.8100957" lon="-118.3941132">
  <ele>-0.115</ele>
  <time>2026-09-02T22:07:22Z</time>
  <course>186.24</course>
  <speed>0.7213875518748573</speed>
  <fix>3d</fix>
</trkpt>
<trkpt lat="33.8100957" lon="-118.3941132">
  <ele>-0.115</ele>
  <time>2026-09-02T22:07:22Z</time>
  <course>186.24</course>
  <speed>0.7213875518748573</speed>
  <fix>3d</fix>
</trkpt>
<trkpt lat="33.8100956" lon="-118.3941133">
  <ele>-0.115</ele>
  <time>2026-09-02T22:07:22Z</time>
  <course>186.24</course>
  <speed>0.7213875518748573</speed>
  <fix>3d</fix>
</trkpt>
<trkpt lat="33.8100956" lon="-118.3941133">
  <ele>-0.115</ele>
  <time>2026-09-02T22:07:22Z</time>
  <course>186.24</course>
  <speed>0.7213875518748573</speed>
  <fix>3d</fix>
</trkpt>
<trkpt lat="33.8100955" lon="-118.3941134">
  <ele>-0.115</ele>
  <time>2026-09-02T22:07:22Z</time>
  <course>186.24</course>
  <speed>0.7213875518748573</speed>
  <fix>3d</fix>
</trkpt>
<trkpt lat="33.8100955" lon="-118.3941134">
  <ele>-0.115</ele>
  <time>2026-09-02T22:07:22Z</time>
  <course>186.24</course>
  <speed>0.7213875518748573</speed>
  <fix>3d</fix>
</trkpt>
<trkpt lat="33.8100955" lon="-118.3941134">
  <ele>-0.115</ele>
  <time>2026-09-02T22:07:22Z</time>
  <course>186.24</course>
  <speed>0.7213875518748573</speed>
  <fix>3d</fix>
</trkpt>
<trkpt lat="33.810096" lon="-118.3941124">
  <ele>-0.11</ele>
  <time>2026-09-02T22:07:22Z</time>
  <course>223.26</course>
  <speed>0.73</speed>
  <fix>3d</fix>
</trkpt>
<trkpt lat="33.8100955" lon="-118.3941135">
  <ele>-0.115</ele>
  <time>2026-09-02T22:07:22Z</time>
  <course>186.24</course>
  <speed>0.7213875518748573</speed>
  <fix>3d</fix>
</trkpt>
<trkpt lat="33.8100954" lon="-118.3941135">
  <ele>-0.115</ele>
  <time>2026-09-02T22:07:22Z</time>
  <course>186.24</course>
  <speed>0.7213875518748573</speed>
  <fix>3d</fix>
</trkpt>
<trkpt lat="33.8100954" lon="-118.3941135">
  <ele>-0.115</ele>
  <time>2026-09-02T22:07:22Z</time>
  <course>186.24</course>
  <speed>0.7213875518748573</speed>
  <fix>3d</fix>
</trkpt>
<trkpt lat="33.8100953" lon="-118.3941136">
  <ele>-0.115</ele>
  <time>2026-09-02T22:07:22Z</time>
  <course>186.24</course>
  <speed>0.7213875518748573</speed>
  <fix>3d</fix>
</trkpt>
<trkpt lat="33.8100953" lon="-118.3941136">
  <ele>-0.115</ele>
  <time>2026-09-02T22:07:22Z</time>
  <course>186.24</course>
  <speed>0.7213875518748573</speed>
  <fix>3d</fix>
</trkpt>
<trkpt lat="33.8100953" lon="-118.3941137">
  <ele>-0.115</ele>
  <time>2026-09-02T22:07:22Z</time>
  <course>186.24</course>
  <speed>0.7213875518748573</speed>
  <fix>3d</fix>
</trkpt>
<trkpt lat="33.8100952" lon="-118.3941137">
  <ele>-0.115</ele>
  <time>2026-09-02T22:07:22Z</time>
  <course>186.24</course>
  <speed>0.7213875518748573</speed>
  <fix>3d</fix>
</trkpt>
<trkpt lat="33.8100952" lon="-118.3941137">
  <ele>-0.115</ele>
  <time>2026-09-02T22:07:22Z</time>
  <course>186.24</course>
  <speed>0.7213875518748573</speed>
  <fix>3d</fix>
</trkpt>
<trkpt lat="33.8100952" lon="-118.3941138">
  <ele>-0.115</ele>
  <time>2026-09-02T22:07:22Z</time>
  <course>186.24</course>
  <speed>0.7213875518748573</speed>
  <fix>3d</fix>
</trkpt>
<trkpt lat="33.8100951" lon="-118.3941138">
  <ele>-0.115</ele>
  <time>2026-09-02T22:07:22Z</time>
  <course>186.24</course>
  <speed>0.7213875518748573</speed>
  <fix>3d</fix>
</trkpt>
<trkpt lat="33.8100951" lon="-118.3941139">
  <ele>-0.115</ele>
  <time>2026-09-02T22:07:22Z</time>
  <course>186.24</course>
  <speed>0.7213875518748573</speed>
  <fix>3d</fix>
</trkpt>
<trkpt lat="33.8100951" lon="-118.3941139">
  <ele>-0.115</ele>
  <time>2026-09-02T22:07:22Z</time>
  <course>186.24</course>
  <speed>0.7213875518748573</speed>
  <fix>3d</fix>
</trkpt>
<trkpt lat="33.810095" lon="-118.3941139">
  <ele>-0.115</ele>
  <time>2026-09-02T22:07:22Z</time>
  <course>186.24</course>
  <speed>0.7213875518748573</speed>
  <fix>3d</fix>
</trkpt>
<trkpt lat="33.810096" lon="-118.3941124">
  <ele>-0.11</ele>
  <time>2026-09-02T22:07:22Z</time>
  <course>223.26</course>
  <speed>0.73</speed>
  <fix>3d</fix>
</trkpt>
<trkpt lat="33.810095" lon="-118.3941139">
  <ele>-0.115</ele>
  <time>2026-09-02T22:07:22Z</time>
  <course>186.24</course>
  <speed>0.7213875518748573</speed>
  <fix>3d</fix>
</trkpt>
<trkpt lat="33.810095" lon="-118.394114">
  <ele>-0.115</ele>
  <time>2026-09-02T22:07:22Z</time>
  <course>186.24</course>
  <speed>0.7213875518748573</speed>
  <fix>3d</fix>
</trkpt>
<trkpt lat="33.8100949" lon="-118.394114">
  <ele>-0.115</ele>
  <time>2026-09-02T22:07:22Z</time>
  <course>186.24</course>
  <speed>0.7213875518748573</speed>
  <fix>3d</fix>
</trkpt>
<trkpt lat="33.8100949" lon="-118.3941141">
  <ele>-0.115</ele>
  <time>2026-09-02T22:07:22Z</time>
  <course>186.24</course>
  <speed>0.7213875518748573</speed>
  <fix>3d</fix>
</trkpt>
<trkpt lat="33.8100949" lon="-118.3941141">
  <ele>-0.115</ele>
  <time>2026-09-02T22:07:22Z</time>
  <course>186.24</course>
  <speed>0.7213875518748573</speed>
  <fix>3d</fix>
</trkpt>
<trkpt lat="33.8100948" lon="-118.3941142">
  <ele>-0.115</ele>
  <time>2026-09-02T22:07:22Z</time>
  <course>186.24</course>
  <speed>0.7213875518748573</speed>
  <fix>3d</fix>
</trkpt>
<trkpt lat="33.8100948" lon="-118.3941142">
  <ele>-0.115</ele>
  <time>2026-09-02T22:07:22Z</time>
  <course>186.24</course>
  <speed>0.7213875518748573</speed>
  <fix>3d</fix>
</trkpt>
<trkpt lat="33.8100948" lon="-118.3941143">
  <ele>-0.115</ele>
  <time>2026-09-02T22:07:22Z</time>
  <course>186.24</course>
  <speed>0.7213875518748573</speed>
  <fix>3d</fix>
</trkpt>
<trkpt lat="33.8100947" lon="-118.3941143">
  <ele>-0.115</ele>
  <time>2026-09-02T22:07:22Z</time>
  <course>186.24</course>
  <speed>0.7213875518748573</speed>
  <fix>3d</fix>
</trkpt>
<trkpt lat="33.8100946" lon="-118.3941144">
  <ele>-0.115</ele>
  <time>2026-09-02T22:07:22Z</time>
  <course>186.24</course>
  <speed>0.7213875518748573</speed>
  <fix>3d</fix>
</trkpt>
<trkpt lat="33.8100946" lon="-118.3941144">
  <ele>-0.114</ele>
  <time>2026-09-02T22:07:22Z</time>
  <course>186.24</course>
  <speed>0.7213875518748573</speed>
  <fix>3d</fix>
</trkpt>
<trkpt lat="33.8100946" lon="-118.3941145">
  <ele>-0.114</ele>
  <time>2026-09-02T22:07:22Z</time>
  <course>186.24</course>
  <speed>0.7213875518748573</speed>
  <fix>3d</fix>
</trkpt>
<trkpt lat="33.8100946" lon="-118.3941145">
  <ele>-0.114</ele>
  <time>2026-09-02T22:07:22Z</time>
  <course>186.24</course>
  <speed>0.7213875518748573</speed>
  <fix>3d</fix>
</trkpt>
<trkpt lat="33.8100949" lon="-118.3941135">
  <ele>-0.1</ele>
  <time>2026-09-02T22:07:22Z</time>
  <course>223.26</course>
  <speed>0.73</speed>
  <fix>3d</fix>
</trkpt>
<trkpt lat="33.8100945" lon="-118.3941145">
  <ele>-0.114</ele>
  <time>2026-09-02T22:07:22Z</time>
  <course>186.24</course>
  <speed>0.7213875518748573</speed>
  <fix>3d</fix>
</trkpt>
<trkpt lat="33.8100945" lon="-118.3941146">
  <ele>-0.114</ele>
  <time>2026-09-02T22:07:22Z</time>
  <course>186.24</course>
  <speed>0.7213875518748573</speed>
  <fix>3d</fix>
</trkpt>
<trkpt lat="33.8100944" lon="-118.3941146">
  <ele>-0.114</ele>
  <time>2026-09-02T22:07:22Z</time>
  <course>186.24</course>
  <speed>0.7213875518748573</speed>
  <fix>3d</fix>
</trkpt>
<trkpt lat="33.8100944" lon="-118.3941147">
  <ele>-0.114</ele>
  <time>2026-09-02T22:07:22Z</time>
  <course>186.24</course>
  <speed>0.7213875518748573</speed>
  <fix>3d</fix>
</trkpt>
<trkpt lat="33.8100944" lon="-118.3941147">
  <ele>-0.114</ele>
  <time>2026-09-02T22:07:22Z</time>
  <course>186.24</course>
  <speed>0.7213875518748573</speed>
  <fix>3d</fix>
</trkpt>
<trkpt lat="33.8100943" lon="-118.3941147">
  <ele>-0.114</ele>
  <time>2026-09-02T22:07:22Z</time>
  <course>186.24</course>
  <speed>0.7213875518748573</speed>
  <fix>3d</fix>
</trkpt>
<trkpt lat="33.8100943" lon="-118.3941148">
  <ele>-0.114</ele>
  <time>2026-09-02T22:07:22Z</time>
  <course>186.24</course>
  <speed>0.7213875518748573</speed>
  <fix>3d</fix>
</trkpt>
<trkpt lat="33.8100942" lon="-118.3941148">
  <ele>-0.114</ele>
  <time>2026-09-02T22:07:22Z</time>
  <course>186.24</course>
  <speed>0.7213875518748573</speed>
  <fix>3d</fix>
</trkpt>
<trkpt lat="33.8100942" lon="-118.3941149">
  <ele>-0.113</ele>
  <time>2026-09-02T22:07:22Z</time>
  <course>186.24</course>
  <speed>0.7213875518748573</speed>
  <fix>3d</fix>
</trkpt>
<trkpt lat="33.8100942" lon="-118.3941149">
  <ele>-0.113</ele>
  <time>2026-09-02T22:07:22Z</time>
  <course>186.24</course>
  <speed>0.7213875518748573</speed>
  <fix>3d</fix>
</trkpt>
<trkpt lat="33.8100941" lon="-118.3941149">
  <ele>-0.113</ele>
  <time>2026-09-02T22:07:22Z</time>
  <course>186.24</course>
  <speed>0.7213875518748573</speed>
  <fix>3d</fix>
</trkpt>
<trkpt lat="33.8100941" lon="-118.394115">
  <ele>-0.113</ele>
  <time>2026-09-02T22:07:22Z</time>
  <course>186.24</course>
  <speed>0.7213875518748573</speed>
  <fix>3d</fix>
</trkpt>
<trkpt lat="33.8100941" lon="-118.394115">
  <ele>-0.113</ele>
  <time>2026-09-02T22:07:22Z</time>
  <course>186.24</course>
  <speed>0.7213875518748573</speed>
  <fix>3d</fix>
</trkpt>
<trkpt lat="33.8100949" lon="-118.3941135">
  <ele>-0.1</ele>
  <time>2026-09-02T22:07:22Z</time>
  <course>223.26</course>
  <speed>0.73</speed>
  <fix>3d</fix>
</trkpt>
<trkpt lat="33.8100941" lon="-118.394115">
  <ele>-0.113</ele>
  <time>2026-09-02T22:07:22Z</time>
  <course>186.24</course>
  <speed>0.7213875518748573</speed>
  <fix>3d</fix>
</trkpt>
<trkpt lat="33.810094" lon="-118.3941151">
  <ele>-0.113</ele>
  <time>2026-09-02T22:07:22Z</time>
  <course>186.24</course>
  <speed>0.7213875518748573</speed>
  <fix>3d</fix>
</trkpt>
<trkpt lat="33.810094" lon="-118.3941151">
  <ele>-0.113</ele>
  <time>2026-09-02T22:07:22Z</time>
  <course>186.24</course>
  <speed>0.7213875518748573</speed>
  <fix>3d</fix>
</trkpt>
<trkpt lat="33.810094" lon="-118.3941151">
  <ele>-0.113</ele>
  <time>2026-09-02T22:07:22Z</time>
  <course>186.24</course>
  <speed>0.7213875518748573</speed>
  <fix>3d</fix>
</trkpt>
<trkpt lat="33.8100939" lon="-118.3941152">
  <ele>-0.113</ele>
  <time>2026-09-02T22:07:22Z</time>
  <course>186.24</course>
  <speed>0.7213875518748573</speed>
  <fix>3d</fix>
</trkpt>
<trkpt lat="33.8100939" lon="-118.3941152">
  <ele>-0.113</ele>
  <time>2026-09-02T22:07:22Z</time>
  <course>186.24</course>
  <speed>0.7213875518748573</speed>
  <fix>3d</fix>
</trkpt>
<trkpt lat="33.8100939" lon="-118.3941153">
  <ele>-0.113</ele>
  <time>2026-09-02T22:07:22Z</time>
  <course>186.24</course>
  <speed>0.7213875518748573</speed>
  <fix>3d</fix>
</trkpt>
<trkpt lat="33.8100938" lon="-118.3941153">
  <ele>-0.113</ele>
  <time>2026-09-02T22:07:22Z</time>
  <course>186.24</course>
  <speed>0.7213875518748573</speed>
  <fix>3d</fix>
</trkpt>
<trkpt lat="33.8100938" lon="-118.3941153">
  <ele>-0.112</ele>
  <time>2026-09-02T22:07:22Z</time>
  <course>186.24</course>
  <speed>0.7213875518748573</speed>
  <fix>3d</fix>
</trkpt>
<trkpt lat="33.8100938" lon="-118.3941154">
  <ele>-0.112</ele>
  <time>2026-09-02T22:07:22Z</time>
  <course>186.24</course>
  <speed>0.7213875518748573</speed>
  <fix>3d</fix>
</trkpt>
<trkpt lat="33.8100937" lon="-118.3941154">
  <ele>-0.112</ele>
  <time>2026-09-02T22:07:22Z</time>
  <course>186.24</course>
  <speed>0.7213875518748573</speed>
  <fix>3d</fix>
</trkpt>
<trkpt lat="33.8100937" lon="-118.3941154">
  <ele>-0.112</ele>
  <time>2026-09-02T22:07:22Z</time>
  <course>186.24</course>
  <speed>0.7213875518748573</speed>
  <fix>3d</fix>
</trkpt>
<trkpt lat="33.8100937" lon="-118.3941155">
  <ele>-0.112</ele>
  <time>2026-09-02T22:07:22Z</time>
  <course>186.24</course>
  <speed>0.7213875518748573</speed>
  <fix>3d</fix>
</trkpt>
<trkpt lat="33.8100936" lon="-118.3941155">
  <ele>-0.112</ele>
  <time>2026-09-02T22:07:22Z</time>
  <course>186.24</course>
  <speed>0.7213875518748573</speed>
  <fix>3d</fix>
</trkpt>
<trkpt lat="33.8100936" lon="-118.3941155">
  <ele>-0.112</ele>
  <time>2026-09-02T22:07:22Z</time>
  <course>186.24</course>
  <speed>0.7213875518748573</speed>
  <fix>3d</fix>
</trkpt>
<trkpt lat="33.810094" lon="-118.3941146">
  <ele>-0.1</ele>
  <time>2026-09-02T22:07:22Z</time>
  <course>223.26</course>
  <speed>0.73</speed>
  <fix>3d</fix>
</trkpt>
<trkpt lat="33.8100936" lon="-118.3941156">
  <ele>-0.112</ele>
  <time>2026-09-02T22:07:22Z</time>
  <course>186.24</course>
  <speed>0.7213875518748573</speed>
  <fix>3d</fix>
</trkpt>
<trkpt lat="33.8100935" lon="-118.3941156">
  <ele>-0.112</ele>
  <time>2026-09-02T22:07:22Z</time>
  <course>186.24</course>
  <speed>0.7213875518748573</speed>
  <fix>3d</fix>
</trkpt>
<trkpt lat="33.8100935" lon="-118.3941156">
  <ele>-0.112</ele>
  <time>2026-09-02T22:07:22Z</time>
  <course>186.24</course>
  <speed>0.7213875518748573</speed>
  <fix>3d</fix>
</trkpt>
<trkpt lat="33.8100935" lon="-118.3941157">
  <ele>-0.112</ele>
  <time>2026-09-02T22:07:22Z</time>
  <course>186.24</course>
  <speed>0.7213875518748573</speed>
  <fix>3d</fix>
</trkpt>
<trkpt lat="33.8100934" lon="-118.3941157">
  <ele>-0.112</ele>
  <time>2026-09-02T22:07:22Z</time>
  <course>186.24</course>
  <speed>0.7213875518748573</speed>
  <fix>3d</fix>
</trkpt>
<trkpt lat="33.8100934" lon="-118.3941158">
  <ele>-0.112</ele>
  <time>2026-09-02T22:07:22Z</time>
  <course>186.24</course>
  <speed>0.7213875518748573</speed>
  <fix>3d</fix>
</trkpt>
<trkpt lat="33.8100934" lon="-118.3941158">
  <ele>-0.112</ele>
  <time>2026-09-02T22:07:22Z</time>
  <course>186.24</course>
  <speed>0.7213875518748573</speed>
  <fix>3d</fix>
</trkpt>
<trkpt lat="33.8100933" lon="-118.3941158">
  <ele>-0.112</ele>
  <time>2026-09-02T22:07:22Z</time>
  <course>186.24</course>
  <speed>0.7213875518748573</speed>
  <fix>3d</fix>
</trkpt>
<trkpt lat="33.8100933" lon="-118.3941159">
  <ele>-0.112</ele>
  <time>2026-09-02T22:07:22Z</time>
  <course>186.24</course>
  <speed>0.7213875518748573</speed>
  <fix>3d</fix>
</trkpt>
<trkpt lat="33.8100933" lon="-118.3941159">
  <ele>-0.112</ele>
  <time>2026-09-02T22:07:22Z</time>
  <course>186.24</course>
  <speed>0.7213875518748573</speed>
  <fix>3d</fix>
</trkpt>
<trkpt lat="33.8100932" lon="-118.394116">
  <ele>-0.112</ele>
  <time>2026-09-02T22:07:22Z</time>
  <course>186.24</course>
  <speed>0.7213875518748573</speed>
  <fix>3d</fix>
</trkpt>
<trkpt lat="33.8100932" lon="-118.394116">
  <ele>-0.112</ele>
  <time>2026-09-02T22:07:22Z</time>
  <course>186.24</course>
  <speed>0.7213875518748573</speed>
  <fix>3d</fix>
</trkpt>
<trkpt lat="33.8100932" lon="-118.394116">
  <ele>-0.112</ele>
  <time>2026-09-02T22:07:22Z</time>
  <course>186.24</course>
  <speed>0.7213875518748573</speed>
  <fix>3d</fix>
</trkpt>
<trkpt lat="33.8100931" lon="-118.3941161">
  <ele>-0.112</ele>
  <time>2026-09-02T22:07:22Z</time>
  <course>186.24</course>
  <speed>0.7213875518748573</speed>
  <fix>3d</fix>
</trkpt>
<trkpt lat="33.8100931" lon="-118.3941161">
  <ele>-0.112</ele>
  <time>2026-09-02T22:07:22Z</time>
  <course>186.24</course>
  <speed>0.7213875518748573</speed>
  <fix>3d</fix>
</trkpt>
<trkpt lat="33.810094" lon="-118.3941146">
  <ele>-0.1</ele>
  <time>2026-09-02T22:07:22Z</time>
  <course>223.26</course>
  <speed>0.73</speed>
  <fix>3d</fix>
</trkpt>
<trkpt lat="33.8100931" lon="-118.3941161">
  <ele>-0.112</ele>
  <time>2026-09-02T22:07:22Z</time>
  <course>186.24</course>
  <speed>0.7213875518748573</speed>
  <fix>3d</fix>
</trkpt>
<trkpt lat="33.8100931" lon="-118.3941161">
  <ele>-0.112</ele>
  <time>2026-09-02T22:07:22Z</time>
  <course>186.24</course>
  <speed>0.7213875518748573</speed>
  <fix>3d</fix>
</trkpt>
<trkpt lat="33.810093" lon="-118.3941162">
  <ele>-0.112</ele>
  <time>2026-09-02T22:07:22Z</time>
  <course>186.24</course>
  <speed>0.7213875518748573</speed>
  <fix>3d</fix>
</trkpt>
<trkpt lat="33.810093" lon="-118.3941162">
  <ele>-0.112</ele>
  <time>2026-09-02T22:07:22Z</time>
  <course>186.24</course>
  <speed>0.7213875518748573</speed>
  <fix>3d</fix>
</trkpt>
<trkpt lat="33.8100929" lon="-118.3941163">
  <ele>-0.112</ele>
  <time>2026-09-02T22:07:22Z</time>
  <course>186.24</course>
  <speed>0.7213875518748573</speed>
  <fix>3d</fix>
</trkpt>
<trkpt lat="33.8100929" lon="-118.3941163">
  <ele>-0.111</ele>
  <time>2026-09-02T22:07:22Z</time>
  <course>186.24</course>
  <speed>0.7213875518748573</speed>
  <fix>3d</fix>
</trkpt>
<trkpt lat="33.8100929" lon="-118.3941164">
  <ele>-0.111</ele>
  <time>2026-09-02T22:07:22Z</time>
  <course>186.24</course>
  <speed>0.7213875518748573</speed>
  <fix>3d</fix>
</trkpt>
<trkpt lat="33.8100928" lon="-118.3941164">
  <ele>-0.111</ele>
  <time>2026-09-02T22:07:22Z</time>
  <course>186.24</course>
  <speed>0.7213875518748573</speed>
  <fix>3d</fix>
</trkpt>
<trkpt lat="33.8100928" lon="-118.3941164">
  <ele>-0.111</ele>
  <time>2026-09-02T22:07:22Z</time>
  <course>186.24</course>
  <speed>0.7213875518748573</speed>
  <fix>3d</fix>
</trkpt>
<trkpt lat="33.8100928" lon="-118.3941165">
  <ele>-0.111</ele>
  <time>2026-09-02T22:07:22Z</time>
  <course>186.24</course>
  <speed>0.7213875518748573</speed>
  <fix>3d</fix>
</trkpt>
<trkpt lat="33.8100927" lon="-118.3941165">
  <ele>-0.111</ele>
  <time>2026-09-02T22:07:22Z</time>
  <course>186.24</course>
  <speed>0.7213875518748573</speed>
  <fix>3d</fix>
</trkpt>
<trkpt lat="33.8100927" lon="-118.3941166">
  <ele>-0.111</ele>
  <time>2026-09-02T22:07:22Z</time>
  <course>186.24</course>
  <speed>0.7213875518748573</speed>
  <fix>3d</fix>
</trkpt>
<trkpt lat="33.8100927" lon="-118.3941166">
  <ele>-0.111</ele>
  <time>2026-09-02T22:07:22Z</time>
  <course>186.24</course>
  <speed>0.7213875518748573</speed>
  <fix>3d</fix>
</trkpt>
<trkpt lat="33.8100926" lon="-118.3941166">
  <ele>-0.111</ele>
  <time>2026-09-02T22:07:22Z</time>
  <course>186.24</course>
  <speed>0.7213875518748573</speed>
  <fix>3d</fix>
</trkpt>
<trkpt lat="33.8100931" lon="-118.3941157">
  <ele>-0.1</ele>
  <time>2026-09-02T22:07:22Z</time>
  <course>223.26</course>
  <speed>0.73</speed>
  <fix>3d</fix>
</trkpt>
<trkpt lat="33.8100926" lon="-118.3941166">
  <ele>-0.111</ele>
  <time>2026-09-02T22:07:22Z</time>
  <course>186.24</course>
  <speed>0.7213875518748573</speed>
  <fix>3d</fix>
</trkpt>
<trkpt lat="33.8100926" lon="-118.3941167">
  <ele>-0.111</ele>
  <time>2026-09-02T22:07:22Z</time>
  <course>186.24</course>
  <speed>0.7213875518748573</speed>
  <fix>3d</fix>
</trkpt>
<trkpt lat="33.8100925" lon="-118.3941167">
  <ele>-0.111</ele>
  <time>2026-09-02T22:07:22Z</time>
  <course>186.24</course>
  <speed>0.7213875518748573</speed>
  <fix>3d</fix>
</trkpt>
<trkpt lat="33.8100925" lon="-118.3941168">
  <ele>-0.111</ele>
  <time>2026-09-02T22:07:22Z</time>
  <course>186.24</course>
  <speed>0.7213875518748573</speed>
  <fix>3d</fix>
</trkpt>
<trkpt lat="33.8100925" lon="-118.3941168">
  <ele>-0.11</ele>
  <time>2026-09-02T22:07:22Z</time>
  <course>186.24</course>
  <speed>0.7213875518748573</speed>
  <fix>3d</fix>
</trkpt>
<trkpt lat="33.8100924" lon="-118.3941169">
  <ele>-0.11</ele>
  <time>2026-09-02T22:07:22Z</time>
  <course>186.24</course>
  <speed>0.7213875518748573</speed>
  <fix>3d</fix>
</trkpt>
<trkpt lat="33.8100924" lon="-118.3941169">
  <ele>-0.11</ele>
  <time>2026-09-02T22:07:22Z</time>
  <course>186.24</course>
  <speed>0.7213875518748573</speed>
  <fix>3d</fix>
</trkpt>
<trkpt lat="33.8100924" lon="-118.3941169">
  <ele>-0.11</ele>
  <time>2026-09-02T22:07:22Z</time>
  <course>186.24</course>
  <speed>0.7213875518748573</speed>
  <fix>3d</fix>
</trkpt>
<trkpt lat="33.8100923" lon="-118.394117">
  <ele>-0.11</ele>
  <time>2026-09-02T22:07:22Z</time>
  <course>186.24</course>
  <speed>0.7213875518748573</speed>
  <fix>3d</fix>
</trkpt>
<trkpt lat="33.8100923" lon="-118.394117">
  <ele>-0.11</ele>
  <time>2026-09-02T22:07:22Z</time>
  <course>186.24</course>
  <speed>0.7213875518748573</speed>
  <fix>3d</fix>
</trkpt>
<trkpt lat="33.8100922" lon="-118.3941171">
  <ele>-0.109</ele>
  <time>2026-09-02T22:07:22Z</time>
  <course>186.24</course>
  <speed>0.7213875518748573</speed>
  <fix>3d</fix>
</trkpt>
<trkpt lat="33.8100922" lon="-118.3941171">
  <ele>-0.109</ele>
  <time>2026-09-02T22:07:22Z</time>
  <course>186.24</course>
  <speed>0.7213875518748573</speed>
  <fix>3d</fix>
</trkpt>
<trkpt lat="33.8100922" lon="-118.3941172">
  <ele>-0.109</ele>
  <time>2026-09-02T22:07:22Z</time>
  <course>186.24</course>
  <speed>0.7213875518748573</speed>
  <fix>3d</fix>
</trkpt>
<trkpt lat="33.8100922" lon="-118.3941172">
  <ele>-0.109</ele>
  <time>2026-09-02T22:07:22Z</time>
  <course>186.24</course>
  <speed>0.7213875518748573</speed>
  <fix>3d</fix>
</trkpt>
<trkpt lat="33.8100931" lon="-118.3941157">
  <ele>-0.1</ele>
  <time>2026-09-02T22:07:22Z</time>
  <course>223.26</course>
  <speed>0.73</speed>
  <fix>3d</fix>
</trkpt>
<trkpt lat="33.8100921" lon="-118.3941172">
  <ele>-0.109</ele>
  <time>2026-09-02T22:07:22Z</time>
  <course>186.24</course>
  <speed>0.7213875518748573</speed>
  <fix>3d</fix>
</trkpt>
<trkpt lat="33.8100921" lon="-118.3941172">
  <ele>-0.109</ele>
  <time>2026-09-02T22:07:22Z</time>
  <course>186.24</course>
  <speed>0.7213875518748573</speed>
  <fix>3d</fix>
</trkpt>
<trkpt lat="33.8100921" lon="-118.3941173">
  <ele>-0.109</ele>
  <time>2026-09-02T22:07:22Z</time>
  <course>186.24</course>
  <speed>0.7213875518748573</speed>
  <fix>3d</fix>
</trkpt>
<trkpt lat="33.810092" lon="-118.3941173">
  <ele>-0.109</ele>
  <time>2026-09-02T22:07:22Z</time>
  <course>186.24</course>
  <speed>0.7213875518748573</speed>
  <fix>3d</fix>
</trkpt>
<trkpt lat="33.810092" lon="-118.3941174">
  <ele>-0.108</ele>
  <time>2026-09-02T22:07:22Z</time>
  <course>186.24</course>
  <speed>0.7213875518748573</speed>
  <fix>3d</fix>
</trkpt>
<trkpt lat="33.810092" lon="-118.3941174">
  <ele>-0.108</ele>
  <time>2026-09-02T22:07:22Z</time>
  <course>186.24</course>
  <speed>0.7213875518748573</speed>
  <fix>3d</fix>
</trkpt>
<trkpt lat="33.8100919" lon="-118.3941174">
  <ele>-0.108</ele>
  <time>2026-09-02T22:07:22Z</time>
  <course>186.24</course>
  <speed>0.7213875518748573</speed>
  <fix>3d</fix>
</trkpt>
<trkpt lat="33.8100919" lon="-118.3941175">
  <ele>-0.108</ele>
  <time>2026-09-02T22:07:22Z</time>
  <course>186.24</course>
  <speed>0.7213875518748573</speed>
  <fix>3d</fix>
</trkpt>
<trkpt lat="33.8100918" lon="-118.3941175">
  <ele>-0.108</ele>
  <time>2026-09-02T22:07:22Z</time>
  <course>186.24</course>
  <speed>0.7213875518748573</speed>
  <fix>3d</fix>
</trkpt>
<trkpt lat="33.8100918" lon="-118.3941176">
  <ele>-0.108</ele>
  <time>2026-09-02T22:07:22Z</time>
  <course>186.24</course>
  <speed>0.7213875518748573</speed>
  <fix>3d</fix>
</trkpt>
<trkpt lat="33.8100918" lon="-118.3941176">
  <ele>-0.108</ele>
  <time>2026-09-02T22:07:22Z</time>
  <course>186.24</course>
  <speed>0.7213875518748573</speed>
  <fix>3d</fix>
</trkpt>
<trkpt lat="33.8100917" lon="-118.3941176">
  <ele>-0.108</ele>
  <time>2026-09-02T22:07:22Z</time>
  <course>186.24</course>
  <speed>0.7213875518748573</speed>
  <fix>3d</fix>
</trkpt>
<trkpt lat="33.8100917" lon="-118.3941177">
  <ele>-0.108</ele>
  <time>2026-09-02T22:07:22Z</time>
  <course>186.24</course>
  <speed>0.7213875518748573</speed>
  <fix>3d</fix>
</trkpt>
<trkpt lat="33.8100917" lon="-118.3941177">
  <ele>-0.108</ele>
  <time>2026-09-02T22:07:22Z</time>
  <course>186.24</course>
  <speed>0.7213875518748573</speed>
  <fix>3d</fix>
</trkpt>
<trkpt lat="33.8100921" lon="-118.3941168">
  <ele>-0.1</ele>
  <time>2026-09-02T22:07:22Z</time>
  <course>223.26</course>
  <speed>0.73</speed>
  <fix>3d</fix>
</trkpt>
<trkpt lat="33.8100917" lon="-118.3941177">
  <ele>-0.108</ele>
  <time>2026-09-02T22:07:22Z</time>
  <course>186.24</course>
  <speed>0.7213875518748573</speed>
  <fix>3d</fix>
</trkpt>
<trkpt lat="33.8100916" lon="-118.3941178">
  <ele>-0.107</ele>
  <time>2026-09-02T22:07:22Z</time>
  <course>186.24</course>
  <speed>0.7213875518748573</speed>
  <fix>3d</fix>
</trkpt>
<trkpt lat="33.8100916" lon="-118.3941178">
  <ele>-0.107</ele>
  <time>2026-09-02T22:07:22Z</time>
  <course>186.24</course>
  <speed>0.7213875518748573</speed>
  <fix>3d</fix>
</trkpt>
<trkpt lat="33.8100915" lon="-118.3941179">
  <ele>-0.107</ele>
  <time>2026-09-02T22:07:22Z</time>
  <course>186.24</course>
  <speed>0.7213875518748573</speed>
  <fix>3d</fix>
</trkpt>
<trkpt lat="33.8100915" lon="-118.3941179">
  <ele>-0.107</ele>
  <time>2026-09-02T22:07:22Z</time>
  <course>186.24</course>
  <speed>0.7213875518748573</speed>
  <fix>3d</fix>
</trkpt>
<trkpt lat="33.8100915" lon="-118.394118">
  <ele>-0.107</ele>
  <time>2026-09-02T22:07:22Z</time>
  <course>186.24</course>
  <speed>0.7213875518748573</speed>
  <fix>3d</fix>
</trkpt>
<trkpt lat="33.8100914" lon="-118.394118">
  <ele>-0.107</ele>
  <time>2026-09-02T22:07:22Z</time>
  <course>186.24</course>
  <speed>0.7213875518748573</speed>
  <fix>3d</fix>
</trkpt>
<trkpt lat="33.8100914" lon="-118.394118">
  <ele>-0.107</ele>
  <time>2026-09-02T22:07:22Z</time>
  <course>186.24</course>
  <speed>0.7213875518748573</speed>
  <fix>3d</fix>
</trkpt>
<trkpt lat="33.8100913" lon="-118.3941181">
  <ele>-0.106</ele>
  <time>2026-09-02T22:07:22Z</time>
  <course>186.24</course>
  <speed>0.7213875518748573</speed>
  <fix>3d</fix>
</trkpt>
<trkpt lat="33.8100913" lon="-118.3941181">
  <ele>-0.106</ele>
  <time>2026-09-02T22:07:22Z</time>
  <course>186.24</course>
  <speed>0.7213875518748573</speed>
  <fix>3d</fix>
</trkpt>
<trkpt lat="33.8100913" lon="-118.3941182">
  <ele>-0.106</ele>
  <time>2026-09-02T22:07:22Z</time>
  <course>186.24</course>
  <speed>0.7213875518748573</speed>
  <fix>3d</fix>
</trkpt>
<trkpt lat="33.8100912" lon="-118.3941182">
  <ele>-0.106</ele>
  <time>2026-09-02T22:07:22Z</time>
  <course>186.24</course>
  <speed>0.7213875518748573</speed>
  <fix>3d</fix>
</trkpt>
<trkpt lat="33.8100912" lon="-118.3941182">
  <ele>-0.106</ele>
  <time>2026-09-02T22:07:22Z</time>
  <course>186.24</course>
  <speed>0.7213875518748573</speed>
  <fix>3d</fix>
</trkpt>
<trkpt lat="33.8100912" lon="-118.3941183">
  <ele>-0.106</ele>
  <time>2026-09-02T22:07:22Z</time>
  <course>186.24</course>
  <speed>0.7213875518748573</speed>
  <fix>3d</fix>
</trkpt>
<trkpt lat="33.8100921" lon="-118.3941168">
  <ele>-0.1</ele>
  <time>2026-09-02T22:07:22Z</time>
  <course>223.26</course>
  <speed>0.73</speed>
  <fix>3d</fix>
</trkpt>
<trkpt lat="33.8100912" lon="-118.3941183">
  <ele>-0.106</ele>
  <time>2026-09-02T22:07:22Z</time>
  <course>186.24</course>
  <speed>0.7213875518748573</speed>
  <fix>3d</fix>
</trkpt>
<trkpt lat="33.8100911" lon="-118.3941183">
  <ele>-0.106</ele>
  <time>2026-09-02T22:07:22Z</time>
  <course>186.24</course>
  <speed>0.7213875518748573</speed>
  <fix>3d</fix>
</trkpt>
<trkpt lat="33.8100911" lon="-118.3941184">
  <ele>-0.105</ele>
  <time>2026-09-02T22:07:22Z</time>
  <course>186.24</course>
  <speed>0.7213875518748573</speed>
  <fix>3d</fix>
</trkpt>
<trkpt lat="33.8100911" lon="-118.3941184">
  <ele>-0.105</ele>
  <time>2026-09-02T22:07:22Z</time>
  <course>186.24</course>
  <speed>0.7213875518748573</speed>
  <fix>3d</fix>
</trkpt>
<trkpt lat="33.810091" lon="-118.3941185">
  <ele>-0.105</ele>
  <time>2026-09-02T22:07:22Z</time>
  <course>186.24</course>
  <speed>0.7213875518748573</speed>
  <fix>3d</fix>
</trkpt>
<trkpt lat="33.810091" lon="-118.3941185">
  <ele>-0.105</ele>
  <time>2026-09-02T22:07:22Z</time>
  <course>186.24</course>
  <speed>0.7213875518748573</speed>
  <fix>3d</fix>
</trkpt>
<trkpt lat="33.810091" lon="-118.3941185">
  <ele>-0.105</ele>
  <time>2026-09-02T22:07:22Z</time>
  <course>186.24</course>
  <speed>0.7213875518748573</speed>
  <fix>3d</fix>
</trkpt>
<trkpt lat="33.8100909" lon="-118.3941186">
  <ele>-0.105</ele>
  <time>2026-09-02T22:07:22Z</time>
  <course>186.24</course>
  <speed>0.7213875518748573</speed>
  <fix>3d</fix>
</trkpt>
<trkpt lat="33.8100909" lon="-118.3941186">
  <ele>-0.104</ele>
  <time>2026-09-02T22:07:22Z</time>
  <course>186.24</course>
  <speed>0.7213875518748573</speed>
  <fix>3d</fix>
</trkpt>
<trkpt lat="33.8100908" lon="-118.3941187">
  <ele>-0.104</ele>
  <time>2026-09-02T22:07:22Z</time>
  <course>186.24</course>
  <speed>0.7213875518748573</speed>
  <fix>3d</fix>
</trkpt>
<trkpt lat="33.8100908" lon="-118.3941187">
  <ele>-0.104</ele>
  <time>2026-09-02T22:07:22Z</time>
  <course>186.24</course>
  <speed>0.7213875518748573</speed>
  <fix>3d</fix>
</trkpt>
<trkpt lat="33.8100908" lon="-118.3941187">
  <ele>-0.104</ele>
  <time>2026-09-02T22:07:22Z</time>
  <course>186.24</course>
  <speed>0.7213875518748573</speed>
  <fix>3d</fix>
</trkpt>
<trkpt lat="33.8100907" lon="-118.3941188">
  <ele>-0.104</ele>
  <time>2026-09-02T22:07:22Z</time>
  <course>186.24</course>
  <speed>0.7213875518748573</speed>
  <fix>3d</fix>
</trkpt>
<trkpt lat="33.8100907" lon="-118.3941188">
  <ele>-0.104</ele>
  <time>2026-09-02T22:07:22Z</time>
  <course>186.24</course>
  <speed>0.7213875518748573</speed>
  <fix>3d</fix>
</trkpt>
<trkpt lat="33.8100912" lon="-118.3941179">
  <ele>-0.11</ele>
  <time>2026-09-02T22:07:22Z</time>
  <course>223.26</course>
  <speed>0.73</speed>
  <fix>3d</fix>
</trkpt>
<trkpt lat="33.8100907" lon="-118.3941188">
  <ele>-0.104</ele>
  <time>2026-09-02T22:07:22Z</time>
  <course>186.24</course>
  <speed>0.7213875518748573</speed>
  <fix>3d</fix>
</trkpt>
<trkpt lat="33.8100907" lon="-118.3941189">
  <ele>-0.103</ele>
  <time>2026-09-02T22:07:22Z</time>
  <course>186.24</course>
  <speed>0.7213875518748573</speed>
  <fix>3d</fix>
</trkpt>
<trkpt lat="33.8100906" lon="-118.3941189">
  <ele>-0.103</ele>
  <time>2026-09-02T22:07:22Z</time>
  <course>186.24</course>
  <speed>0.7213875518748573</speed>
  <fix>3d</fix>
</trkpt>
<trkpt lat="33.8100906" lon="-118.3941189">
  <ele>-0.103</ele>
  <time>2026-09-02T22:07:22Z</time>
  <course>186.24</course>
  <speed>0.7213875518748573</speed>
  <fix>3d</fix>
</trkpt>
<trkpt lat="33.8100906" lon="-118.394119">
  <ele>-0.103</ele>
  <time>2026-09-02T22:07:22Z</time>
  <course>186.24</course>
  <speed>0.7213875518748573</speed>
  <fix>3d</fix>
</trkpt>
<trkpt lat="33.8100905" lon="-118.394119">
  <ele>-0.103</ele>
  <time>2026-09-02T22:07:22Z</time>
  <course>186.24</course>
  <speed>0.7213875518748573</speed>
  <fix>3d</fix>
</trkpt>
<trkpt lat="33.8100905" lon="-118.394119">
  <ele>-0.103</ele>
  <time>2026-09-02T22:07:22Z</time>
  <course>186.24</course>
  <speed>0.7213875518748573</speed>
  <fix>3d</fix>
</trkpt>
<trkpt lat="33.8100905" lon="-118.3941191">
  <ele>-0.102</ele>
  <time>2026-09-02T22:07:22Z</time>
  <course>186.24</course>
  <speed>0.7213875518748573</speed>
  <fix>3d</fix>
</trkpt>
<trkpt lat="33.8100904" lon="-118.3941191">
  <ele>-0.102</ele>
  <time>2026-09-02T22:07:22Z</time>
  <course>186.24</course>
  <speed>0.7213875518748573</speed>
  <fix>3d</fix>
</trkpt>
<trkpt lat="33.8100904" lon="-118.3941192">
  <ele>-0.102</ele>
  <time>2026-09-02T22:07:22Z</time>
  <course>186.24</course>
  <speed>0.7213875518748573</speed>
  <fix>3d</fix>
</trkpt>
<trkpt lat="33.8100904" lon="-118.3941192">
  <ele>-0.102</ele>
  <time>2026-09-02T22:07:22Z</time>
  <course>186.24</course>
  <speed>0.7213875518748573</speed>
  <fix>3d</fix>
</trkpt>
<trkpt lat="33.8100903" lon="-118.3941193">
  <ele>-0.102</ele>
  <time>2026-09-02T22:07:22Z</time>
  <course>186.24</course>
  <speed>0.7213875518748573</speed>
  <fix>3d</fix>
</trkpt>
<trkpt lat="33.8100903" lon="-118.3941193">
  <ele>-0.102</ele>
  <time>2026-09-02T22:07:22Z</time>
  <course>186.24</course>
  <speed>0.7213875518748573</speed>
  <fix>3d</fix>
</trkpt>
<trkpt lat="33.8100902" lon="-118.3941193">
  <ele>-0.102</ele>
  <time>2026-09-02T22:07:22Z</time>
  <course>186.24</course>
  <speed>0.7213875518748573</speed>
  <fix>3d</fix>
</trkpt>
<trkpt lat="33.8100902" lon="-118.3941193">
  <ele>-0.102</ele>
  <time>2026-09-02T22:07:22Z</time>
  <course>186.24</course>
  <speed>0.7213875518748573</speed>
  <fix>3d</fix>
</trkpt>
<trkpt lat="33.8100912" lon="-118.3941179">
  <ele>-0.11</ele>
  <time>2026-09-02T22:07:22Z</time>
  <course>223.26</course>
  <speed>0.73</speed>
  <fix>3d</fix>
</trkpt>
<trkpt lat="33.8100902" lon="-118.3941194">
  <ele>-0.101</ele>
  <time>2026-09-02T22:07:22Z</time>
  <course>186.24</course>
  <speed>0.7213875518748573</speed>
  <fix>3d</fix>
</trkpt>
<trkpt lat="33.8100901" lon="-118.3941195">
  <ele>-0.101</ele>
  <time>2026-09-02T22:07:22Z</time>
  <course>186.24</course>
  <speed>0.7213875518748573</speed>
  <fix>3d</fix>
</trkpt>
<trkpt lat="33.8100901" lon="-118.3941195">
  <ele>-0.101</ele>
  <time>2026-09-02T22:07:22Z</time>
  <course>186.24</course>
  <speed>0.7213875518748573</speed>
  <fix>3d</fix>
</trkpt>
<trkpt lat="33.81009" lon="-118.3941196">
  <ele>-0.101</ele>
  <time>2026-09-02T22:07:22Z</time>
  <course>186.24</course>
  <speed>0.7213875518748573</speed>
  <fix>3d</fix>
</trkpt>
<trkpt lat="33.81009" lon="-118.3941196">
  <ele>-0.101</ele>
  <time>2026-09-02T22:07:22Z</time>
  <course>186.24</course>
  <speed>0.7213875518748573</speed>
  <fix>3d</fix>
</trkpt>
<trkpt lat="33.81009" lon="-118.3941197">
  <ele>-0.101</ele>
  <time>2026-09-02T22:07:22Z</time>
  <course>186.24</course>
  <speed>0.7213875518748573</speed>
  <fix>3d</fix>
</trkpt>
<trkpt lat="33.8100899" lon="-118.3941197">
  <ele>-0.101</ele>
  <time>2026-09-02T22:07:22Z</time>
  <course>186.24</course>
  <speed>0.7213875518748573</speed>
  <fix>3d</fix>
</trkpt>
<trkpt lat="33.8100899" lon="-118.3941197">
  <ele>-0.101</ele>
  <time>2026-09-02T22:07:22Z</time>
  <course>186.24</course>
  <speed>0.7213875518748573</speed>
  <fix>3d</fix>
</trkpt>
<trkpt lat="33.8100899" lon="-118.3941198">
  <ele>-0.101</ele>
  <time>2026-09-02T22:07:22Z</time>
  <course>186.24</course>
  <speed>0.7213875518748573</speed>
  <fix>3d</fix>
</trkpt>
<trkpt lat="33.8100898" lon="-118.3941198">
  <ele>-0.101</ele>
  <time>2026-09-02T22:07:22Z</time>
  <course>186.24</course>
  <speed>0.7213875518748573</speed>
  <fix>3d</fix>
</trkpt>
<trkpt lat="33.8100898" lon="-118.3941199">
  <ele>-0.101</ele>
  <time>2026-09-02T22:07:22Z</time>
  <course>186.24</course>
  <speed>0.7213875518748573</speed>
  <fix>3d</fix>
</trkpt>
<trkpt lat="33.8100898" lon="-118.3941199">
  <ele>-0.101</ele>
  <time>2026-09-02T22:07:22Z</time>
  <course>186.24</course>
  <speed>0.7213875518748573</speed>
  <fix>3d</fix>
</trkpt>
<trkpt lat="33.8100902" lon="-118.394119">
  <ele>-0.1</ele>
  <time>2026-09-02T22:07:22Z</time>
  <course>223.26</course>
  <speed>0.73</speed>
  <fix>3d</fix>
</trkpt>
<trkpt lat="33.8100897" lon="-118.3941199">
  <ele>-0.1</ele>
  <time>2026-09-02T22:07:22Z</time>
  <course>186.24</course>
  <speed>0.7213875518748573</speed>
  <fix>3d</fix>
</trkpt>
<trkpt lat="33.8100897" lon="-118.39412">
  <ele>-0.1</ele>
  <time>2026-09-02T22:07:22Z</time>
  <course>186.24</course>
  <speed>0.7213875518748573</speed>
  <fix>3d</fix>
</trkpt>
<trkpt lat="33.8100897" lon="-118.39412">
  <ele>-0.1</ele>
  <time>2026-09-02T22:07:22Z</time>
  <course>186.24</course>
  <speed>0.7213875518748573</speed>
  <fix>3d</fix>
</trkpt>
<trkpt lat="33.8100896" lon="-118.3941201">
  <ele>-0.1</ele>
  <time>2026-09-02T22:07:22Z</time>
  <course>186.24</course>
  <speed>0.7213875518748573</speed>
  <fix>3d</fix>
</trkpt>
<trkpt lat="33.8100896" lon="-118.3941201">
  <ele>-0.1</ele>
  <time>2026-09-02T22:07:22Z</time>
  <course>186.24</course>
  <speed>0.7213875518748573</speed>
  <fix>3d</fix>
</trkpt>
<trkpt lat="33.8100895" lon="-118.3941201">
  <ele>-0.101</ele>
  <time>2026-09-02T22:07:22Z</time>
  <course>186.24</course>
  <speed>0.7213875518748573</speed>
  <fix>3d</fix>
</trkpt>
<trkpt lat="33.8100895" lon="-118.3941202">
  <ele>-0.1</ele>
  <time>2026-09-02T22:07:22Z</time>
  <course>186.24</course>
  <speed>0.7213875518748573</speed>
  <fix>3d</fix>
</trkpt>
<trkpt lat="33.8100895" lon="-118.3941202">
  <ele>-0.101</ele>
  <time>2026-09-02T22:07:22Z</time>
  <course>186.24</course>
  <speed>0.7213875518748573</speed>
  <fix>3d</fix>
</trkpt>
<trkpt lat="33.8100894" lon="-118.3941203">
  <ele>-0.101</ele>
  <time>2026-09-02T22:07:22Z</time>
  <course>186.24</course>
  <speed>0.7213875518748573</speed>
  <fix>3d</fix>
</trkpt>
<trkpt lat="33.8100894" lon="-118.3941203">
  <ele>-0.101</ele>
  <time>2026-09-02T22:07:22Z</time>
  <course>186.24</course>
  <speed>0.7213875518748573</speed>
  <fix>3d</fix>
</trkpt>
<trkpt lat="33.8100894" lon="-118.3941203">
  <ele>-0.101</ele>
  <time>2026-09-02T22:07:22Z</time>
  <course>186.24</course>
  <speed>0.7213875518748573</speed>
  <fix>3d</fix>
</trkpt>
<trkpt lat="33.8100893" lon="-118.3941204">
  <ele>-0.101</ele>
  <time>2026-09-02T22:07:22Z</time>
  <course>186.24</course>
  <speed>0.7213875518748573</speed>
  <fix>3d</fix>
</trkpt>
<trkpt lat="33.8100893" lon="-118.3941204">
  <ele>-0.101</ele>
  <time>2026-09-02T22:07:22Z</time>
  <course>186.24</course>
  <speed>0.7213875518748573</speed>
  <fix>3d</fix>
</trkpt>
<trkpt lat="33.8100893" lon="-118.3941204">
  <ele>-0.101</ele>
  <time>2026-09-02T22:07:22Z</time>
  <course>186.24</course>
  <speed>0.7213875518748573</speed>
  <fix>3d</fix>
</trkpt>
<trkpt lat="33.8100902" lon="-118.394119">
  <ele>-0.1</ele>
  <time>2026-09-02T22:07:22Z</time>
  <course>223.26</course>
  <speed>0.73</speed>
  <fix>3d</fix>
</trkpt>
<trkpt lat="33.8100893" lon="-118.3941205">
  <ele>-0.101</ele>
  <time>2026-09-02T22:07:22Z</time>
  <course>186.24</course>
  <speed>0.7213875518748573</speed>
  <fix>3d</fix>
</trkpt>
<trkpt lat="33.8100892" lon="-118.3941205">
  <ele>-0.101</ele>
  <time>2026-09-02T22:07:22Z</time>
  <course>186.24</course>
  <speed>0.7213875518748573</speed>
  <fix>3d</fix>
</trkpt>
<trkpt lat="33.8100892" lon="-118.3941205">
  <ele>-0.101</ele>
  <time>2026-09-02T22:07:22Z</time>
  <course>186.24</course>
  <speed>0.7213875518748573</speed>
  <fix>3d</fix>
</trkpt>
<trkpt lat="33.8100892" lon="-118.3941206">
  <ele>-0.101</ele>
  <time>2026-09-02T22:07:22Z</time>
  <course>186.24</course>
  <speed>0.7213875518748573</speed>
  <fix>3d</fix>
</trkpt>
<trkpt lat="33.8100891" lon="-118.3941206">
  <ele>-0.101</ele>
  <time>2026-09-02T22:07:22Z</time>
  <course>186.24</course>
  <speed>0.7213875518748573</speed>
  <fix>3d</fix>
</trkpt>
<trkpt lat="33.8100891" lon="-118.3941207">
  <ele>-0.101</ele>
  <time>2026-09-02T22:07:22Z</time>
  <course>186.24</course>
  <speed>0.7213875518748573</speed>
  <fix>3d</fix>
</trkpt>
<trkpt lat="33.8100891" lon="-118.3941207">
  <ele>-0.101</ele>
  <time>2026-09-02T22:07:22Z</time>
  <course>186.24</course>
  <speed>0.7213875518748573</speed>
  <fix>3d</fix>
</trkpt>
<trkpt lat="33.810089" lon="-118.3941207">
  <ele>-0.102</ele>
  <time>2026-09-02T22:07:22Z</time>
  <course>186.24</course>
  <speed>0.7213875518748573</speed>
  <fix>3d</fix>
</trkpt>
<trkpt lat="33.810089" lon="-118.3941208">
  <ele>-0.102</ele>
  <time>2026-09-02T22:07:22Z</time>
  <course>186.24</course>
  <speed>0.7213875518748573</speed>
  <fix>3d</fix>
</trkpt>
<trkpt lat="33.8100889" lon="-118.3941208">
  <ele>-0.102</ele>
  <time>2026-09-02T22:07:22Z</time>
  <course>186.24</course>
  <speed>0.7213875518748573</speed>
  <fix>3d</fix>
</trkpt>
<trkpt lat="33.8100889" lon="-118.3941209">
  <ele>-0.102</ele>
  <time>2026-09-02T22:07:22Z</time>
  <course>186.24</course>
  <speed>0.7213875518748573</speed>
  <fix>3d</fix>
</trkpt>
<trkpt lat="33.8100889" lon="-118.3941209">
  <ele>-0.102</ele>
  <time>2026-09-02T22:07:22Z</time>
  <course>186.24</course>
  <speed>0.7213875518748573</speed>
  <fix>3d</fix>
</trkpt>
<trkpt lat="33.8100888" lon="-118.3941209">
  <ele>-0.102</ele>
  <time>2026-09-02T22:07:22Z</time>
  <course>186.24</course>
  <speed>0.7213875518748573</speed>
  <fix>3d</fix>
</trkpt>
<trkpt lat="33.8100888" lon="-118.394121">
  <ele>-0.102</ele>
  <time>2026-09-02T22:07:22Z</time>
  <course>186.24</course>
  <speed>0.7213875518748573</speed>
  <fix>3d</fix>
</trkpt>
<trkpt lat="33.8100888" lon="-118.394121">
  <ele>-0.102</ele>
  <time>2026-09-02T22:07:22Z</time>
  <course>186.24</course>
  <speed>0.7213875518748573</speed>
  <fix>3d</fix>
</trkpt>
<trkpt lat="33.8100892" lon="-118.39412">
  <ele>-0.1</ele>
  <time>2026-09-02T22:07:22Z</time>
  <course>223.26</course>
  <speed>0.73</speed>
  <fix>3d</fix>
</trkpt>
<trkpt lat="33.8100887" lon="-118.3941211">
  <ele>-0.102</ele>
  <time>2026-09-02T22:07:22Z</time>
  <course>186.24</course>
  <speed>0.7213875518748573</speed>
  <fix>3d</fix>
</trkpt>
<trkpt lat="33.8100887" lon="-118.3941211">
  <ele>-0.103</ele>
  <time>2026-09-02T22:07:22Z</time>
  <course>186.24</course>
  <speed>0.7213875518748573</speed>
  <fix>3d</fix>
</trkpt>
<trkpt lat="33.8100887" lon="-118.3941211">
  <ele>-0.103</ele>
  <time>2026-09-02T22:07:22Z</time>
  <course>186.24</course>
  <speed>0.7213875518748573</speed>
  <fix>3d</fix>
</trkpt>
<trkpt lat="33.8100886" lon="-118.3941212">
  <ele>-0.103</ele>
  <time>2026-09-02T22:07:22Z</time>
  <course>186.24</course>
  <speed>0.7213875518748573</speed>
  <fix>3d</fix>
</trkpt>
<trkpt lat="33.8100886" lon="-118.3941212">
  <ele>-0.103</ele>
  <time>2026-09-02T22:07:22Z</time>
  <course>186.24</course>
  <speed>0.7213875518748573</speed>
  <fix>3d</fix>
</trkpt>
<trkpt lat="33.8100886" lon="-118.3941213">
  <ele>-0.103</ele>
  <time>2026-09-02T22:07:22Z</time>
  <course>186.24</course>
  <speed>0.7213875518748573</speed>
  <fix>3d</fix>
</trkpt>
<trkpt lat="33.8100885" lon="-118.3941213">
  <ele>-0.103</ele>
  <time>2026-09-02T22:07:22Z</time>
  <course>186.24</course>
  <speed>0.7213875518748573</speed>
  <fix>3d</fix>
</trkpt>
<trkpt lat="33.8100885" lon="-118.3941213">
  <ele>-0.103</ele>
  <time>2026-09-02T22:07:22Z</time>
  <course>186.24</course>
  <speed>0.7213875518748573</speed>
  <fix>3d</fix>
</trkpt>
<trkpt lat="33.8100885" lon="-118.3941214">
  <ele>-0.103</ele>
  <time>2026-09-02T22:07:22Z</time>
  <course>186.24</course>
  <speed>0.7213875518748573</speed>
  <fix>3d</fix>
</trkpt>
<trkpt lat="33.8100884" lon="-118.3941214">
  <ele>-0.103</ele>
  <time>2026-09-02T22:07:22Z</time>
  <course>186.24</course>
  <speed>0.7213875518748573</speed>
  <fix>3d</fix>
</trkpt>
<trkpt lat="33.8100884" lon="-118.3941215">
  <ele>-0.103</ele>
  <time>2026-09-02T22:07:22Z</time>
  <course>186.24</course>
  <speed>0.7213875518748573</speed>
  <fix>3d</fix>
</trkpt>
<trkpt lat="33.8100883" lon="-118.3941215">
  <ele>-0.103</ele>
  <time>2026-09-02T22:07:22Z</time>
  <course>186.24</course>
  <speed>0.7213875518748573</speed>
  <fix>3d</fix>
</trkpt>
<trkpt lat="33.8100883" lon="-118.3941215">
  <ele>-0.103</ele>
  <time>2026-09-02T22:07:22Z</time>
  <course>186.24</course>
  <speed>0.7213875518748573</speed>
  <fix>3d</fix>
</trkpt>
<trkpt lat="33.8100892" lon="-118.39412">
  <ele>-0.1</ele>
  <time>2026-09-02T22:07:22Z</time>
  <course>223.26</course>
  <speed>0.73</speed>
  <fix>3d</fix>
</trkpt>
<trkpt lat="33.8100883" lon="-118.3941215">
  <ele>-0.103</ele>
  <time>2026-09-02T22:07:22Z</time>
  <course>186.24</course>
  <speed>0.7213875518748573</speed>
  <fix>3d</fix>
</trkpt>
<trkpt lat="33.8100882" lon="-118.3941216">
  <ele>-0.103</ele>
  <time>2026-09-02T22:07:22Z</time>
  <course>186.24</course>
  <speed>0.7213875518748573</speed>
  <fix>3d</fix>
</trkpt>
<trkpt lat="33.8100882" lon="-118.3941217">
  <ele>-0.103</ele>
  <time>2026-09-02T22:07:22Z</time>
  <course>186.24</course>
  <speed>0.7213875518748573</speed>
  <fix>3d</fix>
</trkpt>
<trkpt lat="33.8100882" lon="-118.3941217">
  <ele>-0.103</ele>
  <time>2026-09-02T22:07:22Z</time>
  <course>186.24</course>
  <speed>0.7213875518748573</speed>
  <fix>3d</fix>
</trkpt>
<trkpt lat="33.8100881" lon="-118.3941217">
  <ele>-0.103</ele>
  <time>2026-09-02T22:07:22Z</time>
  <course>186.24</course>
  <speed>0.7213875518748573</speed>
  <fix>3d</fix>
</trkpt>
<trkpt lat="33.8100881" lon="-118.3941218">
  <ele>-0.103</ele>
  <time>2026-09-02T22:07:22Z</time>
  <course>186.24</course>
  <speed>0.7213875518748573</speed>
  <fix>3d</fix>
</trkpt>
<trkpt lat="33.8100881" lon="-118.3941218">
  <ele>-0.103</ele>
  <time>2026-09-02T22:07:22Z</time>
  <course>186.24</course>
  <speed>0.7213875518748573</speed>
  <fix>3d</fix>
</trkpt>
<trkpt lat="33.810088" lon="-118.3941219">
  <ele>-0.103</ele>
  <time>2026-09-02T22:07:22Z</time>
  <course>186.24</course>
  <speed>0.7213875518748573</speed>
  <fix>3d</fix>
</trkpt>
<trkpt lat="33.810088" lon="-118.3941219">
  <ele>-0.104</ele>
  <time>2026-09-02T22:07:22Z</time>
  <course>186.24</course>
  <speed>0.7213875518748573</speed>
  <fix>3d</fix>
</trkpt>
<trkpt lat="33.810088" lon="-118.3941219">
  <ele>-0.104</ele>
  <time>2026-09-02T22:07:22Z</time>
  <course>186.24</course>
  <speed>0.7213875518748573</speed>
  <fix>3d</fix>
</trkpt>
<trkpt lat="33.8100879" lon="-118.394122">
  <ele>-0.104</ele>
  <time>2026-09-02T22:07:22Z</time>
  <course>186.24</course>
  <speed>0.7213875518748573</speed>
  <fix>3d</fix>
</trkpt>
<trkpt lat="33.8100879" lon="-118.394122">
  <ele>-0.104</ele>
  <time>2026-09-02T22:07:22Z</time>
  <course>186.24</course>
  <speed>0.7213875518748573</speed>
  <fix>3d</fix>
</trkpt>
<trkpt lat="33.8100879" lon="-118.394122">
  <ele>-0.104</ele>
  <time>2026-09-02T22:07:22Z</time>
  <course>186.24</course>
  <speed>0.7213875518748573</speed>
  <fix>3d</fix>
</trkpt>
<trkpt lat="33.8100878" lon="-118.3941221">
  <ele>-0.104</ele>
  <time>2026-09-02T22:07:22Z</time>
  <course>186.24</course>
  <speed>0.7213875518748573</speed>
  <fix>3d</fix>
</trkpt>
<trkpt lat="33.8100882" lon="-118.3941211">
  <ele>-0.1</ele>
  <time>2026-09-02T22:07:22Z</time>
  <course>223.26</course>
  <speed>0.73</speed>
  <fix>3d</fix>
</trkpt>
<trkpt lat="33.8100878" lon="-118.3941221">
  <ele>-0.104</ele>
  <time>2026-09-02T22:07:22Z</time>
  <course>186.24</course>
  <speed>0.7213875518748573</speed>
  <fix>3d</fix>
</trkpt>
<trkpt lat="33.8100878" lon="-118.3941221">
  <ele>-0.104</ele>
  <time>2026-09-02T22:07:22Z</time>
  <course>186.24</course>
  <speed>0.7213875518748573</speed>
  <fix>3d</fix>
</trkpt>
<trkpt lat="33.8100877" lon="-118.3941222">
  <ele>-0.104</ele>
  <time>2026-09-02T22:07:22Z</time>
  <course>186.24</course>
  <speed>0.7213875518748573</speed>
  <fix>3d</fix>
</trkpt>
<trkpt lat="33.8100877" lon="-118.3941222">
  <ele>-0.104</ele>
  <time>2026-09-02T22:07:22Z</time>
  <course>186.24</course>
  <speed>0.7213875518748573</speed>
  <fix>3d</fix>
</trkpt>
<trkpt lat="33.8100877" lon="-118.3941223">
  <ele>-0.104</ele>
  <time>2026-09-02T22:07:22Z</time>
  <course>186.24</course>
  <speed>0.7213875518748573</speed>
  <fix>3d</fix>
</trkpt>
<trkpt lat="33.8100876" lon="-118.3941223">
  <ele>-0.104</ele>
  <time>2026-09-02T22:07:22Z</time>
  <course>186.24</course>
  <speed>0.7213875518748573</speed>
  <fix>3d</fix>
</trkpt>
<trkpt lat="33.8100876" lon="-118.3941224">
  <ele>-0.104</ele>
  <time>2026-09-02T22:07:22Z</time>
  <course>186.24</course>
  <speed>0.7213875518748573</speed>
  <fix>3d</fix>
</trkpt>
<trkpt lat="33.8100875" lon="-118.3941224">
  <ele>-0.104</ele>
  <time>2026-09-02T22:07:22Z</time>
  <course>186.24</course>
  <speed>0.7213875518748573</speed>
  <fix>3d</fix>
</trkpt>
<trkpt lat="33.8100875" lon="-118.3941224">
  <ele>-0.104</ele>
  <time>2026-09-02T22:07:22Z</time>
  <course>186.24</course>
  <speed>0.7213875518748573</speed>
  <fix>3d</fix>
</trkpt>
<trkpt lat="33.8100875" lon="-118.3941225">
  <ele>-0.104</ele>
  <time>2026-09-02T22:07:22Z</time>
  <course>186.24</course>
  <speed>0.7213875518748573</speed>
  <fix>3d</fix>
</trkpt>
<trkpt lat="33.8100874" lon="-118.3941225">
  <ele>-0.104</ele>
  <time>2026-09-02T22:07:22Z</time>
  <course>186.24</course>
  <speed>0.7213875518748573</speed>
  <fix>3d</fix>
</trkpt>
<trkpt lat="33.8100874" lon="-118.3941226">
  <ele>-0.104</ele>
  <time>2026-09-02T22:07:22Z</time>
  <course>186.24</course>
  <speed>0.7213875518748573</speed>
  <fix>3d</fix>
</trkpt>
<trkpt lat="33.8100874" lon="-118.3941226">
  <ele>-0.104</ele>
  <time>2026-09-02T22:07:22Z</time>
  <course>186.24</course>
  <speed>0.7213875518748573</speed>
  <fix>3d</fix>
</trkpt>
<trkpt lat="33.8100874" lon="-118.3941226">
  <ele>-0.104</ele>
  <time>2026-09-02T22:07:22Z</time>
  <course>186.24</course>
  <speed>0.7213875518748573</speed>
  <fix>3d</fix>
</trkpt>
<trkpt lat="33.8100882" lon="-118.3941211">
  <ele>-0.1</ele>
  <time>2026-09-02T22:07:22Z</time>
  <course>223.26</course>
  <speed>0.73</speed>
  <fix>3d</fix>
</trkpt>
<trkpt lat="33.8100873" lon="-118.3941226">
  <ele>-0.104</ele>
  <time>2026-09-02T22:07:22Z</time>
  <course>186.24</course>
  <speed>0.7213875518748573</speed>
  <fix>3d</fix>
</trkpt>
<trkpt lat="33.8100873" lon="-118.3941227">
  <ele>-0.104</ele>
  <time>2026-09-02T22:07:22Z</time>
  <course>186.24</course>
  <speed>0.7213875518748573</speed>
  <fix>3d</fix>
</trkpt>
<trkpt lat="33.8100872" lon="-118.3941227">
  <ele>-0.105</ele>
  <time>2026-09-02T22:07:22Z</time>
  <course>186.24</course>
  <speed>0.7213875518748573</speed>
  <fix>3d</fix>
</trkpt>
<trkpt lat="33.8100872" lon="-118.3941228">
  <ele>-0.105</ele>
  <time>2026-09-02T22:07:22Z</time>
  <course>186.24</course>
  <speed>0.7213875518748573</speed>
  <fix>3d</fix>
</trkpt>
<trkpt lat="33.8100872" lon="-118.3941228">
  <ele>-0.105</ele>
  <time>2026-09-02T22:07:22Z</time>
  <course>186.24</course>
  <speed>0.7213875518748573</speed>
  <fix>3d</fix>
</trkpt>
<trkpt lat="33.8100871" lon="-118.3941229">
  <ele>-0.105</ele>
  <time>2026-09-02T22:07:22Z</time>
  <course>186.24</course>
  <speed>0.7213875518748573</speed>
  <fix>3d</fix>
</trkpt>
<trkpt lat="33.8100871" lon="-118.3941229">
  <ele>-0.105</ele>
  <time>2026-09-02T22:07:22Z</time>
  <course>186.24</course>
  <speed>0.7213875518748573</speed>
  <fix>3d</fix>
</trkpt>
<trkpt lat="33.8100871" lon="-118.3941229">
  <ele>-0.105</ele>
  <time>2026-09-02T22:07:22Z</time>
  <course>186.24</course>
  <speed>0.7213875518748573</speed>
  <fix>3d</fix>
</trkpt>
<trkpt lat="33.810087" lon="-118.394123">
  <ele>-0.105</ele>
  <time>2026-09-02T22:07:22Z</time>
  <course>186.24</course>
  <speed>0.7213875518748573</speed>
  <fix>3d</fix>
</trkpt>
<trkpt lat="33.810087" lon="-118.394123">
  <ele>-0.105</ele>
  <time>2026-09-02T22:07:22Z</time>
  <course>186.24</course>
  <speed>0.7213875518748573</speed>
  <fix>3d</fix>
</trkpt>
<trkpt lat="33.810087" lon="-118.3941231">
  <ele>-0.105</ele>
  <time>2026-09-02T22:07:22Z</time>
  <course>186.24</course>
  <speed>0.7213875518748573</speed>
  <fix>3d</fix>
</trkpt>
<trkpt lat="33.8100869" lon="-118.3941231">
  <ele>-0.105</ele>
  <time>2026-09-02T22:07:22Z</time>
  <course>186.24</course>
  <speed>0.7213875518748573</speed>
  <fix>3d</fix>
</trkpt>
<trkpt lat="33.8100869" lon="-118.3941231">
  <ele>-0.105</ele>
  <time>2026-09-02T22:07:22Z</time>
  <course>186.24</course>
  <speed>0.7213875518748573</speed>
  <fix>3d</fix>
</trkpt>
<trkpt lat="33.8100869" lon="-118.3941232">
  <ele>-0.105</ele>
  <time>2026-09-02T22:07:22Z</time>
  <course>186.24</course>
  <speed>0.7213875518748573</speed>
  <fix>3d</fix>
</trkpt>
<trkpt lat="33.8100873" lon="-118.3941222">
  <ele>-0.1</ele>
  <time>2026-09-02T22:07:22Z</time>
  <course>223.26</course>
  <speed>0.73</speed>
  <fix>3d</fix>
</trkpt>
<trkpt lat="33.8100869" lon="-118.3941232">
  <ele>-0.105</ele>
  <time>2026-09-02T22:07:22Z</time>
  <course>186.24</course>
  <speed>0.7213875518748573</speed>
  <fix>3d</fix>
</trkpt>
<trkpt lat="33.8100868" lon="-118.3941232">
  <ele>-0.105</ele>
  <time>2026-09-02T22:07:22Z</time>
  <course>186.24</course>
  <speed>0.7213875518748573</speed>
  <fix>3d</fix>
</trkpt>
<trkpt lat="33.8100868" lon="-118.3941232">
  <ele>-0.105</ele>
  <time>2026-09-02T22:07:22Z</time>
  <course>186.24</course>
  <speed>0.7213875518748573</speed>
  <fix>3d</fix>
</trkpt>
<trkpt lat="33.8100867" lon="-118.3941233">
  <ele>-0.105</ele>
  <time>2026-09-02T22:07:22Z</time>
  <course>186.24</course>
  <speed>0.7213875518748573</speed>
  <fix>3d</fix>
</trkpt>
<trkpt lat="33.8100867" lon="-118.3941233">
  <ele>-0.105</ele>
  <time>2026-09-02T22:07:22Z</time>
  <course>186.24</course>
  <speed>0.7213875518748573</speed>
  <fix>3d</fix>
</trkpt>
<trkpt lat="33.8100867" lon="-118.3941234">
  <ele>-0.106</ele>
  <time>2026-09-02T22:07:22Z</time>
  <course>186.24</course>
  <speed>0.7213875518748573</speed>
  <fix>3d</fix>
</trkpt>
<trkpt lat="33.8100866" lon="-118.3941234">
  <ele>-0.106</ele>
  <time>2026-09-02T22:07:22Z</time>
  <course>186.24</course>
  <speed>0.7213875518748573</speed>
  <fix>3d</fix>
</trkpt>
<trkpt lat="33.8100866" lon="-118.3941234">
  <ele>-0.106</ele>
  <time>2026-09-02T22:07:22Z</time>
  <course>186.24</course>
  <speed>0.7213875518748573</speed>
  <fix>3d</fix>
</trkpt>
<trkpt lat="33.8100866" lon="-118.3941235">
  <ele>-0.106</ele>
  <time>2026-09-02T22:07:22Z</time>
  <course>186.24</course>
  <speed>0.7213875518748573</speed>
  <fix>3d</fix>
</trkpt>
<trkpt lat="33.8100865" lon="-118.3941235">
  <ele>-0.106</ele>
  <time>2026-09-02T22:07:22Z</time>
  <course>186.24</course>
  <speed>0.7213875518748573</speed>
  <fix>3d</fix>
</trkpt>
<trkpt lat="33.8100865" lon="-118.3941236">
  <ele>-0.106</ele>
  <time>2026-09-02T22:07:22Z</time>
  <course>186.24</course>
  <speed>0.7213875518748573</speed>
  <fix>3d</fix>
</trkpt>
<trkpt lat="33.8100865" lon="-118.3941236">
  <ele>-0.106</ele>
  <time>2026-09-02T22:07:22Z</time>
  <course>186.24</course>
  <speed>0.7213875518748573</speed>
  <fix>3d</fix>
</trkpt>
<trkpt lat="33.8100864" lon="-118.3941237">
  <ele>-0.106</ele>
  <time>2026-09-02T22:07:22Z</time>
  <course>186.24</course>
  <speed>0.7213875518748573</speed>
  <fix>3d</fix>
</trkpt>
<trkpt lat="33.8100864" lon="-118.3941237">
  <ele>-0.106</ele>
  <time>2026-09-02T22:07:22Z</time>
  <course>186.24</course>
  <speed>0.7213875518748573</speed>
  <fix>3d</fix>
</trkpt>
<trkpt lat="33.8100873" lon="-118.3941222">
  <ele>-0.1</ele>
  <time>2026-09-02T22:07:22Z</time>
  <course>223.26</course>
  <speed>0.73</speed>
  <fix>3d</fix>
</trkpt>
<trkpt lat="33.8100864" lon="-118.3941237">
  <ele>-0.106</ele>
  <time>2026-09-02T22:07:22Z</time>
  <course>186.24</course>
  <speed>0.7213875518748573</speed>
  <fix>3d</fix>
</trkpt>
<trkpt lat="33.8100863" lon="-118.3941238">
  <ele>-0.106</ele>
  <time>2026-09-02T22:07:22Z</time>
  <course>186.24</course>
  <speed>0.7213875518748573</speed>
  <fix>3d</fix>
</trkpt>
<trkpt lat="33.8100863" lon="-118.3941238">
  <ele>-0.106</ele>
  <time>2026-09-02T22:07:22Z</time>
  <course>186.24</course>
  <speed>0.7213875518748573</speed>
  <fix>3d</fix>
</trkpt>
<trkpt lat="33.8100863" lon="-118.3941238">
  <ele>-0.106</ele>
  <time>2026-09-02T22:07:22Z</time>
  <course>186.24</course>
  <speed>0.7213875518748573</speed>
  <fix>3d</fix>
</trkpt>
<trkpt lat="33.8100862" lon="-118.3941239">
  <ele>-0.107</ele>
  <time>2026-09-02T22:07:22Z</time>
  <course>186.24</course>
  <speed>0.7213875518748573</speed>
  <fix>3d</fix>
</trkpt>
<trkpt lat="33.8100862" lon="-118.3941239">
  <ele>-0.107</ele>
  <time>2026-09-02T22:07:22Z</time>
  <course>186.24</course>
  <speed>0.7213875518748573</speed>
  <fix>3d</fix>
</trkpt>
<trkpt lat="33.8100862" lon="-118.3941239">
  <ele>-0.107</ele>
  <time>2026-09-02T22:07:22Z</time>
  <course>186.24</course>
  <speed>0.7213875518748573</speed>
  <fix>3d</fix>
</trkpt>
<trkpt lat="33.8100861" lon="-118.394124">
  <ele>-0.107</ele>
  <time>2026-09-02T22:07:22Z</time>
  <course>186.24</course>
  <speed>0.7213875518748573</speed>
  <fix>3d</fix>
</trkpt>
<trkpt lat="33.8100861" lon="-118.394124">
  <ele>-0.107</ele>
  <time>2026-09-02T22:07:22Z</time>
  <course>186.24</course>
  <speed>0.7213875518748573</speed>
  <fix>3d</fix>
</trkpt>
<trkpt lat="33.8100861" lon="-118.3941241">
  <ele>-0.107</ele>
  <time>2026-09-02T22:07:22Z</time>
  <course>186.24</course>
  <speed>0.7213875518748573</speed>
  <fix>3d</fix>
</trkpt>
<trkpt lat="33.810086" lon="-118.3941241">
  <ele>-0.107</ele>
  <time>2026-09-02T22:07:22Z</time>
  <course>186.24</course>
  <speed>0.7213875518748573</speed>
  <fix>3d</fix>
</trkpt>
<trkpt lat="33.810086" lon="-118.3941241">
  <ele>-0.107</ele>
  <time>2026-09-02T22:07:22Z</time>
  <course>186.24</course>
  <speed>0.7213875518748573</speed>
  <fix>3d</fix>
</trkpt>
<trkpt lat="33.810086" lon="-118.3941242">
  <ele>-0.107</ele>
  <time>2026-09-02T22:07:22Z</time>
  <course>186.24</course>
  <speed>0.7213875518748573</speed>
  <fix>3d</fix>
</trkpt>
<trkpt lat="33.8100859" lon="-118.3941242">
  <ele>-0.107</ele>
  <time>2026-09-02T22:07:22Z</time>
  <course>186.24</course>
  <speed>0.7213875518748573</speed>
  <fix>3d</fix>
</trkpt>
<trkpt lat="33.8100859" lon="-118.3941242">
  <ele>-0.107</ele>
  <time>2026-09-02T22:07:22Z</time>
  <course>186.24</course>
  <speed>0.7213875518748573</speed>
  <fix>3d</fix>
</trkpt>
<trkpt lat="33.8100864" lon="-118.3941233">
  <ele>-0.11</ele>
  <time>2026-09-02T22:07:22Z</time>
  <course>223.26</course>
  <speed>0.73</speed>
  <fix>3d</fix>
</trkpt>
<trkpt lat="33.8100859" lon="-118.3941242">
  <ele>-0.107</ele>
  <time>2026-09-02T22:07:22Z</time>
  <course>186.24</course>
  <speed>0.7213875518748573</speed>
  <fix>3d</fix>
</trkpt>
<trkpt lat="33.8100858" lon="-118.3941243">
  <ele>-0.107</ele>
  <time>2026-09-02T22:07:22Z</time>
  <course>186.24</course>
  <speed>0.7213875518748573</speed>
  <fix>3d</fix>
</trkpt>
<trkpt lat="33.8100858" lon="-118.3941243">
  <ele>-0.107</ele>
  <time>2026-09-02T22:07:22Z</time>
  <course>186.24</course>
  <speed>0.7213875518748573</speed>
  <fix>3d</fix>
</trkpt>
<trkpt lat="33.8100858" lon="-118.3941244">
  <ele>-0.107</ele>
  <time>2026-09-02T22:07:22Z</time>
  <course>186.24</course>
  <speed>0.7213875518748573</speed>
  <fix>3d</fix>
</trkpt>
<trkpt lat="33.8100857" lon="-118.3941244">
  <ele>-0.107</ele>
  <time>2026-09-02T22:07:22Z</time>
  <course>186.24</course>
  <speed>0.7213875518748573</speed>
  <fix>3d</fix>
</trkpt>
<trkpt lat="33.8100857" lon="-118.3941245">
  <ele>-0.107</ele>
  <time>2026-09-02T22:07:22Z</time>
  <course>186.24</course>
  <speed>0.7213875518748573</speed>
  <fix>3d</fix>
</trkpt>
<trkpt lat="33.8100857" lon="-118.3941245">
  <ele>-0.107</ele>
  <time>2026-09-02T22:07:22Z</time>
  <course>186.24</course>
  <speed>0.7213875518748573</speed>
  <fix>3d</fix>
</trkpt>
<trkpt lat="33.8100856" lon="-118.3941245">
  <ele>-0.107</ele>
  <time>2026-09-02T22:07:22Z</time>
  <course>186.24</course>
  <speed>0.7213875518748573</speed>
  <fix>3d</fix>
</trkpt>
<trkpt lat="33.8100856" lon="-118.3941246">
  <ele>-0.107</ele>
  <time>2026-09-02T22:07:22Z</time>
  <course>186.24</course>
  <speed>0.7213875518748573</speed>
  <fix>3d</fix>
</trkpt>
<trkpt lat="33.8100856" lon="-118.3941246">
  <ele>-0.106</ele>
  <time>2026-09-02T22:07:22Z</time>
  <course>186.24</course>
  <speed>0.7213875518748573</speed>
  <fix>3d</fix>
</trkpt>
<trkpt lat="33.8100855" lon="-118.3941247">
  <ele>-0.106</ele>
  <time>2026-09-02T22:07:22Z</time>
  <course>186.24</course>
  <speed>0.7213875518748573</speed>
  <fix>3d</fix>
</trkpt>
<trkpt lat="33.8100855" lon="-118.3941247">
  <ele>-0.106</ele>
  <time>2026-09-02T22:07:22Z</time>
  <course>186.24</course>
  <speed>0.7213875518748573</speed>
  <fix>3d</fix>
</trkpt>
<trkpt lat="33.8100855" lon="-118.3941247">
  <ele>-0.106</ele>
  <time>2026-09-02T22:07:22Z</time>
  <course>186.24</course>
  <speed>0.7213875518748573</speed>
  <fix>3d</fix>
</trkpt>
<trkpt lat="33.8100854" lon="-118.3941248">
  <ele>-0.106</ele>
  <time>2026-09-02T22:07:22Z</time>
  <course>186.24</course>
  <speed>0.7213875518748573</speed>
  <fix>3d</fix>
</trkpt>
<trkpt lat="33.8100854" lon="-118.3941248">
  <ele>-0.106</ele>
  <time>2026-09-02T22:07:22Z</time>
  <course>186.24</course>
  <speed>0.7213875518748573</speed>
  <fix>3d</fix>
</trkpt>
<trkpt lat="33.8100864" lon="-118.3941233">
  <ele>-0.11</ele>
  <time>2026-09-02T22:07:22Z</time>
  <course>223.26</course>
  <speed>0.73</speed>
  <fix>3d</fix>
</trkpt>
<trkpt lat="33.8100854" lon="-118.3941248">
  <ele>-0.106</ele>
  <time>2026-09-02T22:07:22Z</time>
  <course>186.24</course>
  <speed>0.7213875518748573</speed>
  <fix>3d</fix>
</trkpt>
<trkpt lat="33.8100854" lon="-118.3941249">
  <ele>-0.106</ele>
  <time>2026-09-02T22:07:22Z</time>
  <course>186.24</course>
  <speed>0.7213875518748573</speed>
  <fix>3d</fix>
</trkpt>
<trkpt lat="33.8100853" lon="-118.3941249">
  <ele>-0.106</ele>
  <time>2026-09-02T22:07:22Z</time>
  <course>186.24</course>
  <speed>0.7213875518748573</speed>
  <fix>3d</fix>
</trkpt>
<trkpt lat="33.8100853" lon="-118.394125">
  <ele>-0.106</ele>
  <time>2026-09-02T22:07:22Z</time>
  <course>186.24</course>
  <speed>0.7213875518748573</speed>
  <fix>3d</fix>
</trkpt>
<trkpt lat="33.8100852" lon="-118.394125">
  <ele>-0.106</ele>
  <time>2026-09-02T22:07:22Z</time>
  <course>186.24</course>
  <speed>0.7213875518748573</speed>
  <fix>3d</fix>
</trkpt>
<trkpt lat="33.8100852" lon="-118.3941251">
  <ele>-0.106</ele>
  <time>2026-09-02T22:07:22Z</time>
  <course>186.24</course>
  <speed>0.7213875518748573</speed>
  <fix>3d</fix>
</trkpt>
<trkpt lat="33.8100851" lon="-118.3941251">
  <ele>-0.106</ele>
  <time>2026-09-02T22:07:22Z</time>
  <course>186.24</course>
  <speed>0.7213875518748573</speed>
  <fix>3d</fix>
</trkpt>
<trkpt lat="33.8100851" lon="-118.3941252">
  <ele>-0.106</ele>
  <time>2026-09-02T22:07:22Z</time>
  <course>186.24</course>
  <speed>0.7213875518748573</speed>
  <fix>3d</fix>
</trkpt>
<trkpt lat="33.810085" lon="-118.3941252">
  <ele>-0.106</ele>
  <time>2026-09-02T22:07:22Z</time>
  <course>186.24</course>
  <speed>0.7213875518748573</speed>
  <fix>3d</fix>
</trkpt>
<trkpt lat="33.810085" lon="-118.3941253">
  <ele>-0.105</ele>
  <time>2026-09-02T22:07:22Z</time>
  <course>186.24</course>
  <speed>0.7213875518748573</speed>
  <fix>3d</fix>
</trkpt>
<trkpt lat="33.810085" lon="-118.3941253">
  <ele>-0.105</ele>
  <time>2026-09-02T22:07:22Z</time>
  <course>186.24</course>
  <speed>0.7213875518748573</speed>
  <fix>3d</fix>
</trkpt>
<trkpt lat="33.810085" lon="-118.3941253">
  <ele>-0.105</ele>
  <time>2026-09-02T22:07:22Z</time>
  <course>186.24</course>
  <speed>0.7213875518748573</speed>
  <fix>3d</fix>
</trkpt>
<trkpt lat="33.8100854" lon="-118.3941244">
  <ele>-0.1</ele>
  <time>2026-09-02T22:07:22Z</time>
  <course>223.26</course>
  <speed>0.73</speed>
  <fix>3d</fix>
</trkpt>
<trkpt lat="33.8100849" lon="-118.3941253">
  <ele>-0.105</ele>
  <time>2026-09-02T22:07:22Z</time>
  <course>186.24</course>
  <speed>0.7213875518748573</speed>
  <fix>3d</fix>
</trkpt>
<trkpt lat="33.8100849" lon="-118.3941254">
  <ele>-0.105</ele>
  <time>2026-09-02T22:07:22Z</time>
  <course>186.24</course>
  <speed>0.7213875518748573</speed>
  <fix>3d</fix>
</trkpt>
<trkpt lat="33.8100848" lon="-118.3941255">
  <ele>-0.105</ele>
  <time>2026-09-02T22:07:22Z</time>
  <course>186.24</course>
  <speed>0.7213875518748573</speed>
  <fix>3d</fix>
</trkpt>
<trkpt lat="33.8100848" lon="-118.3941255">
  <ele>-0.105</ele>
  <time>2026-09-02T22:07:22Z</time>
  <course>186.24</course>
  <speed>0.7213875518748573</speed>
  <fix>3d</fix>
</trkpt>
<trkpt lat="33.8100848" lon="-118.3941255">
  <ele>-0.105</ele>
  <time>2026-09-02T22:07:22Z</time>
  <course>186.24</course>
  <speed>0.7213875518748573</speed>
  <fix>3d</fix>
</trkpt>
<trkpt lat="33.8100847" lon="-118.3941256">
  <ele>-0.105</ele>
  <time>2026-09-02T22:07:22Z</time>
  <course>186.24</course>
  <speed>0.7213875518748573</speed>
  <fix>3d</fix>
</trkpt>
<trkpt lat="33.8100847" lon="-118.3941256">
  <ele>-0.105</ele>
  <time>2026-09-02T22:07:22Z</time>
  <course>186.24</course>
  <speed>0.7213875518748573</speed>
  <fix>3d</fix>
</trkpt>
<trkpt lat="33.8100847" lon="-118.3941257">
  <ele>-0.105</ele>
  <time>2026-09-02T22:07:22Z</time>
  <course>186.24</course>
  <speed>0.7213875518748573</speed>
  <fix>3d</fix>
</trkpt>
<trkpt lat="33.8100846" lon="-118.3941257">
  <ele>-0.105</ele>
  <time>2026-09-02T22:07:22Z</time>
  <course>186.24</course>
  <speed>0.7213875518748573</speed>
  <fix>3d</fix>
</trkpt>
<trkpt lat="33.8100846" lon="-118.3941257">
  <ele>-0.105</ele>
  <time>2026-09-02T22:07:22Z</time>
  <course>186.24</course>
  <speed>0.7213875518748573</speed>
  <fix>3d</fix>
</trkpt>
<trkpt lat="33.8100845" lon="-118.3941258">
  <ele>-0.105</ele>
  <time>2026-09-02T22:07:22Z</time>
  <course>186.24</course>
  <speed>0.7213875518748573</speed>
  <fix>3d</fix>
</trkpt>
<trkpt lat="33.8100845" lon="-118.3941258">
  <ele>-0.105</ele>
  <time>2026-09-02T22:07:22Z</time>
  <course>186.24</course>
  <speed>0.7213875518748573</speed>
  <fix>3d</fix>
</trkpt>
<trkpt lat="33.8100845" lon="-118.3941259">
  <ele>-0.105</ele>
  <time>2026-09-02T22:07:22Z</time>
  <course>186.24</course>
  <speed>0.7213875518748573</speed>
  <fix>3d</fix>
</trkpt>
<trkpt lat="33.8100845" lon="-118.3941259">
  <ele>-0.105</ele>
  <time>2026-09-02T22:07:22Z</time>
  <course>186.24</course>
  <speed>0.7213875518748573</speed>
  <fix>3d</fix>
</trkpt>
<trkpt lat="33.8100854" lon="-118.3941244">
  <ele>-0.1</ele>
  <time>2026-09-02T22:07:22Z</time>
  <course>223.26</course>
  <speed>0.73</speed>
  <fix>3d</fix>
</trkpt>
<trkpt lat="33.8100844" lon="-118.3941259">
  <ele>-0.104</ele>
  <time>2026-09-02T22:07:22Z</time>
  <course>186.24</course>
  <speed>0.7213875518748573</speed>
  <fix>3d</fix>
</trkpt>
<trkpt lat="33.8100844" lon="-118.394126">
  <ele>-0.104</ele>
  <time>2026-09-02T22:07:22Z</time>
  <course>186.24</course>
  <speed>0.7213875518748573</speed>
  <fix>3d</fix>
</trkpt>
<trkpt lat="33.8100844" lon="-118.394126">
  <ele>-0.104</ele>
  <time>2026-09-02T22:07:22Z</time>
  <course>186.24</course>
  <speed>0.7213875518748573</speed>
  <fix>3d</fix>
</trkpt>
<trkpt lat="33.8100843" lon="-118.394126">
  <ele>-0.104</ele>
  <time>2026-09-02T22:07:22Z</time>
  <course>186.24</course>
  <speed>0.7213875518748573</speed>
  <fix>3d</fix>
</trkpt>
<trkpt lat="33.8100843" lon="-118.3941261">
  <ele>-0.104</ele>
  <time>2026-09-02T22:07:22Z</time>
  <course>186.24</course>
  <speed>0.7213875518748573</speed>
  <fix>3d</fix>
</trkpt>
<trkpt lat="33.8100843" lon="-118.3941261">
  <ele>-0.104</ele>
  <time>2026-09-02T22:07:22Z</time>
  <course>186.24</course>
  <speed>0.7213875518748573</speed>
  <fix>3d</fix>
</trkpt>
<trkpt lat="33.8100842" lon="-118.3941262">
  <ele>-0.104</ele>
  <time>2026-09-02T22:07:22Z</time>
  <course>186.24</course>
  <speed>0.7213875518748573</speed>
  <fix>3d</fix>
</trkpt>
<trkpt lat="33.8100842" lon="-118.3941262">
  <ele>-0.104</ele>
  <time>2026-09-02T22:07:22Z</time>
  <course>186.24</course>
  <speed>0.7213875518748573</speed>
  <fix>3d</fix>
</trkpt>
<trkpt lat="33.8100841" lon="-118.3941262">
  <ele>-0.104</ele>
  <time>2026-09-02T22:07:22Z</time>
  <course>186.24</course>
  <speed>0.7213875518748573</speed>
  <fix>3d</fix>
</trkpt>
<trkpt lat="33.8100841" lon="-118.3941263">
  <ele>-0.104</ele>
  <time>2026-09-02T22:07:22Z</time>
  <course>186.24</course>
  <speed>0.7213875518748573</speed>
  <fix>3d</fix>
</trkpt>
<trkpt lat="33.8100841" lon="-118.3941263">
  <ele>-0.104</ele>
  <time>2026-09-02T22:07:22Z</time>
  <course>186.24</course>
  <speed>0.7213875518748573</speed>
  <fix>3d</fix>
</trkpt>
<trkpt lat="33.810084" lon="-118.3941264">
  <ele>-0.104</ele>
  <time>2026-09-02T22:07:22Z</time>
  <course>186.24</course>
  <speed>0.7213875518748573</speed>
  <fix>3d</fix>
</trkpt>
<trkpt lat="33.810084" lon="-118.3941264">
  <ele>-0.104</ele>
  <time>2026-09-02T22:07:22Z</time>
  <course>186.24</course>
  <speed>0.7213875518748573</speed>
  <fix>3d</fix>
</trkpt>
<trkpt lat="33.810084" lon="-118.3941264">
  <ele>-0.104</ele>
  <time>2026-09-02T22:07:22Z</time>
  <course>186.24</course>
  <speed>0.7213875518748573</speed>
  <fix>3d</fix>
</trkpt>
<trkpt lat="33.8100844" lon="-118.3941255">
  <ele>-0.1</ele>
  <time>2026-09-02T22:07:22Z</time>
  <course>223.26</course>
  <speed>0.73</speed>
  <fix>3d</fix>
</trkpt>
<trkpt lat="33.8100839" lon="-118.3941265">
  <ele>-0.104</ele>
  <time>2026-09-02T22:07:22Z</time>
  <course>186.24</course>
  <speed>0.7213875518748573</speed>
  <fix>3d</fix>
</trkpt>
<trkpt lat="33.8100839" lon="-118.3941265">
  <ele>-0.104</ele>
  <time>2026-09-02T22:07:22Z</time>
  <course>186.24</course>
  <speed>0.7213875518748573</speed>
  <fix>3d</fix>
</trkpt>
<trkpt lat="33.8100839" lon="-118.3941265">
  <ele>-0.104</ele>
  <time>2026-09-02T22:07:22Z</time>
  <course>186.24</course>
  <speed>0.7213875518748573</speed>
  <fix>3d</fix>
</trkpt>
<trkpt lat="33.8100838" lon="-118.3941266">
  <ele>-0.104</ele>
  <time>2026-09-02T22:07:22Z</time>
  <course>186.24</course>
  <speed>0.7213875518748573</speed>
  <fix>3d</fix>
</trkpt>
<trkpt lat="33.8100838" lon="-118.3941266">
  <ele>-0.105</ele>
  <time>2026-09-02T22:07:22Z</time>
  <course>186.24</course>
  <speed>0.7213875518748573</speed>
  <fix>3d</fix>
</trkpt>
<trkpt lat="33.8100838" lon="-118.3941267">
  <ele>-0.105</ele>
  <time>2026-09-02T22:07:22Z</time>
  <course>186.24</course>
  <speed>0.7213875518748573</speed>
  <fix>3d</fix>
</trkpt>
<trkpt lat="33.8100837" lon="-118.3941267">
  <ele>-0.105</ele>
  <time>2026-09-02T22:07:22Z</time>
  <course>186.24</course>
  <speed>0.7213875518748573</speed>
  <fix>3d</fix>
</trkpt>
<trkpt lat="33.8100837" lon="-118.3941267">
  <ele>-0.105</ele>
  <time>2026-09-02T22:07:22Z</time>
  <course>186.24</course>
  <speed>0.7213875518748573</speed>
  <fix>3d</fix>
</trkpt>
<trkpt lat="33.8100837" lon="-118.3941268">
  <ele>-0.105</ele>
  <time>2026-09-02T22:07:22Z</time>
  <course>186.24</course>
  <speed>0.7213875518748573</speed>
  <fix>3d</fix>
</trkpt>
<trkpt lat="33.8100836" lon="-118.3941268">
  <ele>-0.105</ele>
  <time>2026-09-02T22:07:22Z</time>
  <course>186.24</course>
  <speed>0.7213875518748573</speed>
  <fix>3d</fix>
</trkpt>
<trkpt lat="33.8100836" lon="-118.3941269">
  <ele>-0.105</ele>
  <time>2026-09-02T22:07:22Z</time>
  <course>186.24</course>
  <speed>0.7213875518748573</speed>
  <fix>3d</fix>
</trkpt>
<trkpt lat="33.8100835" lon="-118.3941269">
  <ele>-0.105</ele>
  <time>2026-09-02T22:07:22Z</time>
  <course>186.24</course>
  <speed>0.7213875518748573</speed>
  <fix>3d</fix>
</trkpt>
<trkpt lat="33.8100835" lon="-118.394127">
  <ele>-0.105</ele>
  <time>2026-09-02T22:07:22Z</time>
  <course>186.24</course>
  <speed>0.7213875518748573</speed>
  <fix>3d</fix>
</trkpt>
<trkpt lat="33.8100835" lon="-118.394127">
  <ele>-0.105</ele>
  <time>2026-09-02T22:07:22Z</time>
  <course>186.24</course>
  <speed>0.7213875518748573</speed>
  <fix>3d</fix>
</trkpt>
<trkpt lat="33.8100844" lon="-118.3941255">
  <ele>-0.1</ele>
  <time>2026-09-02T22:07:22Z</time>
  <course>223.26</course>
  <speed>0.73</speed>
  <fix>3d</fix>
</trkpt>
<trkpt lat="33.8100835" lon="-118.394127">
  <ele>-0.105</ele>
  <time>2026-09-02T22:07:22Z</time>
  <course>186.24</course>
  <speed>0.7213875518748573</speed>
  <fix>3d</fix>
</trkpt>
<trkpt lat="33.8100834" lon="-118.3941271">
  <ele>-0.105</ele>
  <time>2026-09-02T22:07:22Z</time>
  <course>186.24</course>
  <speed>0.7213875518748573</speed>
  <fix>3d</fix>
</trkpt>
<trkpt lat="33.8100834" lon="-118.3941271">
  <ele>-0.105</ele>
  <time>2026-09-02T22:07:22Z</time>
  <course>186.24</course>
  <speed>0.7213875518748573</speed>
  <fix>3d</fix>
</trkpt>
<trkpt lat="33.8100833" lon="-118.3941272">
  <ele>-0.105</ele>
  <time>2026-09-02T22:07:22Z</time>
  <course>186.24</course>
  <speed>0.7213875518748573</speed>
  <fix>3d</fix>
</trkpt>
<trkpt lat="33.8100833" lon="-118.3941272">
  <ele>-0.105</ele>
  <time>2026-09-02T22:07:22Z</time>
  <course>186.24</course>
  <speed>0.7213875518748573</speed>
  <fix>3d</fix>
</trkpt>
<trkpt lat="33.8100833" lon="-118.3941272">
  <ele>-0.105</ele>
  <time>2026-09-02T22:07:22Z</time>
  <course>186.24</course>
  <speed>0.7213875518748573</speed>
  <fix>3d</fix>
</trkpt>
<trkpt lat="33.8100832" lon="-118.3941273">
  <ele>-0.105</ele>
  <time>2026-09-02T22:07:22Z</time>
  <course>186.24</course>
  <speed>0.7213875518748573</speed>
  <fix>3d</fix>
</trkpt>
<trkpt lat="33.8100832" lon="-118.3941273">
  <ele>-0.105</ele>
  <time>2026-09-02T22:07:22Z</time>
  <course>186.24</course>
  <speed>0.7213875518748573</speed>
  <fix>3d</fix>
</trkpt>
<trkpt lat="33.8100832" lon="-118.3941274">
  <ele>-0.105</ele>
  <time>2026-09-02T22:07:22Z</time>
  <course>186.24</course>
  <speed>0.7213875518748573</speed>
  <fix>3d</fix>
</trkpt>
<trkpt lat="33.8100831" lon="-118.3941274">
  <ele>-0.105</ele>
  <time>2026-09-02T22:07:22Z</time>
  <course>186.24</course>
  <speed>0.7213875518748573</speed>
  <fix>3d</fix>
</trkpt>
<trkpt lat="33.8100831" lon="-118.3941274">
  <ele>-0.105</ele>
  <time>2026-09-02T22:07:22Z</time>
  <course>186.24</course>
  <speed>0.7213875518748573</speed>
  <fix>3d</fix>
</trkpt>
<trkpt lat="33.8100831" lon="-118.3941275">
  <ele>-0.105</ele>
  <time>2026-09-02T22:07:22Z</time>
  <course>186.24</course>
  <speed>0.7213875518748573</speed>
  <fix>3d</fix>
</trkpt>
<trkpt lat="33.810083" lon="-118.3941275">
  <ele>-0.105</ele>
  <time>2026-09-02T22:07:22Z</time>
  <course>186.24</course>
  <speed>0.7213875518748573</speed>
  <fix>3d</fix>
</trkpt>
<trkpt lat="33.8100835" lon="-118.3941266">
  <ele>-0.1</ele>
  <time>2026-09-02T22:07:22Z</time>
  <course>223.26</course>
  <speed>0.73</speed>
  <fix>3d</fix>
</trkpt>
<trkpt lat="33.810083" lon="-118.3941275">
  <ele>-0.105</ele>
  <time>2026-09-02T22:07:22Z</time>
  <course>186.24</course>
  <speed>0.7213875518748573</speed>
  <fix>3d</fix>
</trkpt>
<trkpt lat="33.810083" lon="-118.3941276">
  <ele>-0.105</ele>
  <time>2026-09-02T22:07:22Z</time>
  <course>186.24</course>
  <speed>0.7213875518748573</speed>
  <fix>3d</fix>
</trkpt>
<trkpt lat="33.8100829" lon="-118.3941276">
  <ele>-0.105</ele>
  <time>2026-09-02T22:07:22Z</time>
  <course>186.24</course>
  <speed>0.7213875518748573</speed>
  <fix>3d</fix>
</trkpt>
<trkpt lat="33.8100829" lon="-118.3941277">
  <ele>-0.105</ele>
  <time>2026-09-02T22:07:22Z</time>
  <course>186.24</course>
  <speed>0.7213875518748573</speed>
  <fix>3d</fix>
</trkpt>
<trkpt lat="33.8100829" lon="-118.3941277">
  <ele>-0.105</ele>
  <time>2026-09-02T22:07:22Z</time>
  <course>186.24</course>
  <speed>0.7213875518748573</speed>
  <fix>3d</fix>
</trkpt>
<trkpt lat="33.8100828" lon="-118.3941277">
  <ele>-0.105</ele>
  <time>2026-09-02T22:07:22Z</time>
  <course>186.24</course>
  <speed>0.7213875518748573</speed>
  <fix>3d</fix>
</trkpt>
<trkpt lat="33.8100828" lon="-118.3941278">
  <ele>-0.105</ele>
  <time>2026-09-02T22:07:22Z</time>
  <course>186.24</course>
  <speed>0.7213875518748573</speed>
  <fix>3d</fix>
</trkpt>
<trkpt lat="33.8100828" lon="-118.3941278">
  <ele>-0.105</ele>
  <time>2026-09-02T22:07:22Z</time>
  <course>186.24</course>
  <speed>0.7213875518748573</speed>
  <fix>3d</fix>
</trkpt>
<trkpt lat="33.8100827" lon="-118.3941279">
  <ele>-0.105</ele>
  <time>2026-09-02T22:07:22Z</time>
  <course>186.24</course>
  <speed>0.7213875518748573</speed>
  <fix>3d</fix>
</trkpt>
<trkpt lat="33.8100827" lon="-118.3941279">
  <ele>-0.105</ele>
  <time>2026-09-02T22:07:22Z</time>
  <course>186.24</course>
  <speed>0.7213875518748573</speed>
  <fix>3d</fix>
</trkpt>
<trkpt lat="33.8100827" lon="-118.3941279">
  <ele>-0.105</ele>
  <time>2026-09-02T22:07:22Z</time>
  <course>186.24</course>
  <speed>0.7213875518748573</speed>
  <fix>3d</fix>
</trkpt>
<trkpt lat="33.8100826" lon="-118.394128">
  <ele>-0.105</ele>
  <time>2026-09-02T22:07:22Z</time>
  <course>186.24</course>
  <speed>0.7213875518748573</speed>
  <fix>3d</fix>
</trkpt>
<trkpt lat="33.8100826" lon="-118.394128">
  <ele>-0.105</ele>
  <time>2026-09-02T22:07:22Z</time>
  <course>186.24</course>
  <speed>0.7213875518748573</speed>
  <fix>3d</fix>
</trkpt>
<trkpt lat="33.8100826" lon="-118.394128">
  <ele>-0.105</ele>
  <time>2026-09-02T22:07:22Z</time>
  <course>186.24</course>
  <speed>0.7213875518748573</speed>
  <fix>3d</fix>
</trkpt>
<trkpt lat="33.8100826" lon="-118.394128">
  <ele>-0.105</ele>
  <time>2026-09-02T22:07:22Z</time>
  <course>186.24</course>
  <speed>0.7213875518748573</speed>
  <fix>3d</fix>
</trkpt>
<trkpt lat="33.8100835" lon="-118.3941266">
  <ele>-0.1</ele>
  <time>2026-09-02T22:07:22Z</time>
  <course>223.26</course>
  <speed>0.73</speed>
  <fix>3d</fix>
</trkpt>
<trkpt lat="33.8100825" lon="-118.3941281">
  <ele>-0.105</ele>
  <time>2026-09-02T22:07:22Z</time>
  <course>186.24</course>
  <speed>0.7213875518748573</speed>
  <fix>3d</fix>
</trkpt>
<trkpt lat="33.8100825" lon="-118.3941282">
  <ele>-0.105</ele>
  <time>2026-09-02T22:07:22Z</time>
  <course>186.24</course>
  <speed>0.7213875518748573</speed>
  <fix>3d</fix>
</trkpt>
<trkpt lat="33.8100824" lon="-118.3941282">
  <ele>-0.105</ele>
  <time>2026-09-02T22:07:22Z</time>
  <course>186.24</course>
  <speed>0.7213875518748573</speed>
  <fix>3d</fix>
</trkpt>
<trkpt lat="33.8100824" lon="-118.3941282">
  <ele>-0.105</ele>
  <time>2026-09-02T22:07:22Z</time>
  <course>186.24</course>
  <speed>0.7213875518748573</speed>
  <fix>3d</fix>
</trkpt>
<trkpt lat="33.8100823" lon="-118.3941283">
  <ele>-0.105</ele>
  <time>2026-09-02T22:07:22Z</time>
  <course>186.24</course>
  <speed>0.7213875518748573</speed>
  <fix>3d</fix>
</trkpt>
<trkpt lat="33.8100823" lon="-118.3941283">
  <ele>-0.105</ele>
  <time>2026-09-02T22:07:22Z</time>
  <course>186.24</course>
  <speed>0.7213875518748573</speed>
  <fix>3d</fix>
</trkpt>
<trkpt lat="33.8100823" lon="-118.3941284">
  <ele>-0.106</ele>
  <time>2026-09-02T22:07:22Z</time>
  <course>186.24</course>
  <speed>0.7213875518748573</speed>
  <fix>3d</fix>
</trkpt>
<trkpt lat="33.8100822" lon="-118.3941284">
  <ele>-0.106</ele>
  <time>2026-09-02T22:07:22Z</time>
  <course>186.24</course>
  <speed>0.7213875518748573</speed>
  <fix>3d</fix>
</trkpt>
<trkpt lat="33.8100822" lon="-118.3941284">
  <ele>-0.106</ele>
  <time>2026-09-02T22:07:22Z</time>
  <course>186.24</course>
  <speed>0.7213875518748573</speed>
  <fix>3d</fix>
</trkpt>
<trkpt lat="33.8100822" lon="-118.3941285">
  <ele>-0.106</ele>
  <time>2026-09-02T22:07:22Z</time>
  <course>186.24</course>
  <speed>0.7213875518748573</speed>
  <fix>3d</fix>
</trkpt>
<trkpt lat="33.8100821" lon="-118.3941285">
  <ele>-0.106</ele>
  <time>2026-09-02T22:07:22Z</time>
  <course>186.24</course>
  <speed>0.7213875518748573</speed>
  <fix>3d</fix>
</trkpt>
<trkpt lat="33.8100821" lon="-118.3941286">
  <ele>-0.106</ele>
  <time>2026-09-02T22:07:22Z</time>
  <course>186.24</course>
  <speed>0.7213875518748573</speed>
  <fix>3d</fix>
</trkpt>
<trkpt lat="33.8100821" lon="-118.3941286">
  <ele>-0.106</ele>
  <time>2026-09-02T22:07:22Z</time>
  <course>186.24</course>
  <speed>0.7213875518748573</speed>
  <fix>3d</fix>
</trkpt>
<trkpt lat="33.8100825" lon="-118.3941277">
  <ele>-0.1</ele>
  <time>2026-09-02T22:07:22Z</time>
  <course>223.26</course>
  <speed>0.73</speed>
  <fix>3d</fix>
</trkpt>
<trkpt lat="33.8100821" lon="-118.3941286">
  <ele>-0.106</ele>
  <time>2026-09-02T22:07:22Z</time>
  <course>186.24</course>
  <speed>0.7213875518748573</speed>
  <fix>3d</fix>
</trkpt>
<trkpt lat="33.810082" lon="-118.3941287">
  <ele>-0.106</ele>
  <time>2026-09-02T22:07:22Z</time>
  <course>186.24</course>
  <speed>0.7213875518748573</speed>
  <fix>3d</fix>
</trkpt>
<trkpt lat="33.810082" lon="-118.3941287">
  <ele>-0.106</ele>
  <time>2026-09-02T22:07:22Z</time>
  <course>186.24</course>
  <speed>0.7213875518748573</speed>
  <fix>3d</fix>
</trkpt>
<trkpt lat="33.810082" lon="-118.3941287">
  <ele>-0.106</ele>
  <time>2026-09-02T22:07:22Z</time>
  <course>186.24</course>
  <speed>0.7213875518748573</speed>
  <fix>3d</fix>
</trkpt>
<trkpt lat="33.8100819" lon="-118.3941288">
  <ele>-0.106</ele>
  <time>2026-09-02T22:07:22Z</time>
  <course>186.24</course>
  <speed>0.7213875518748573</speed>
  <fix>3d</fix>
</trkpt>
<trkpt lat="33.8100819" lon="-118.3941288">
  <ele>-0.106</ele>
  <time>2026-09-02T22:07:22Z</time>
  <course>186.24</course>
  <speed>0.7213875518748573</speed>
  <fix>3d</fix>
</trkpt>
<trkpt lat="33.8100818" lon="-118.3941289">
  <ele>-0.106</ele>
  <time>2026-09-02T22:07:22Z</time>
  <course>186.24</course>
  <speed>0.7213875518748573</speed>
  <fix>3d</fix>
</trkpt>
<trkpt lat="33.8100818" lon="-118.3941289">
  <ele>-0.106</ele>
  <time>2026-09-02T22:07:22Z</time>
  <course>186.24</course>
  <speed>0.7213875518748573</speed>
  <fix>3d</fix>
</trkpt>
<trkpt lat="33.8100818" lon="-118.3941289">
  <ele>-0.106</ele>
  <time>2026-09-02T22:07:22Z</time>
  <course>186.24</course>
  <speed>0.7213875518748573</speed>
  <fix>3d</fix>
</trkpt>
<trkpt lat="33.8100817" lon="-118.394129">
  <ele>-0.106</ele>
  <time>2026-09-02T22:07:22Z</time>
  <course>186.24</course>
  <speed>0.7213875518748573</speed>
  <fix>3d</fix>
</trkpt>
<trkpt lat="33.8100817" lon="-118.394129">
  <ele>-0.106</ele>
  <time>2026-09-02T22:07:22Z</time>
  <course>186.24</course>
  <speed>0.7213875518748573</speed>
  <fix>3d</fix>
</trkpt>
<trkpt lat="33.8100817" lon="-118.3941291">
  <ele>-0.106</ele>
  <time>2026-09-02T22:07:22Z</time>
  <course>186.24</course>
  <speed>0.7213875518748573</speed>
  <fix>3d</fix>
</trkpt>
<trkpt lat="33.8100816" lon="-118.3941291">
  <ele>-0.107</ele>
  <time>2026-09-02T22:07:22Z</time>
  <course>186.24</course>
  <speed>0.7213875518748573</speed>
  <fix>3d</fix>
</trkpt>
<trkpt lat="33.8100816" lon="-118.3941291">
  <ele>-0.107</ele>
  <time>2026-09-02T22:07:22Z</time>
  <course>186.24</course>
  <speed>0.7213875518748573</speed>
  <fix>3d</fix>
</trkpt>
<trkpt lat="33.8100825" lon="-118.3941277">
  <ele>-0.1</ele>
  <time>2026-09-02T22:07:22Z</time>
  <course>223.26</course>
  <speed>0.73</speed>
  <fix>3d</fix>
</trkpt>
<trkpt lat="33.8100816" lon="-118.3941292">
  <ele>-0.107</ele>
  <time>2026-09-02T22:07:22Z</time>
  <course>186.24</course>
  <speed>0.7213875518748573</speed>
  <fix>3d</fix>
</trkpt>
<trkpt lat="33.8100815" lon="-118.3941292">
  <ele>-0.107</ele>
  <time>2026-09-02T22:07:22Z</time>
  <course>186.24</course>
  <speed>0.7213875518748573</speed>
  <fix>3d</fix>
</trkpt>
<trkpt lat="33.8100815" lon="-118.3941293">
  <ele>-0.107</ele>
  <time>2026-09-02T22:07:22Z</time>
  <course>186.24</course>
  <speed>0.7213875518748573</speed>
  <fix>3d</fix>
</trkpt>
<trkpt lat="33.8100815" lon="-118.3941293">
  <ele>-0.107</ele>
  <time>2026-09-02T22:07:22Z</time>
  <course>186.24</course>
  <speed>0.7213875518748573</speed>
  <fix>3d</fix>
</trkpt>
<trkpt lat="33.8100814" lon="-118.3941293">
  <ele>-0.107</ele>
  <time>2026-09-02T22:07:22Z</time>
  <course>186.24</course>
  <speed>0.7213875518748573</speed>
  <fix>3d</fix>
</trkpt>
<trkpt lat="33.8100814" lon="-118.3941294">
  <ele>-0.107</ele>
  <time>2026-09-02T22:07:22Z</time>
  <course>186.24</course>
  <speed>0.7213875518748573</speed>
  <fix>3d</fix>
</trkpt>
<trkpt lat="33.8100814" lon="-118.3941294">
  <ele>-0.106</ele>
  <time>2026-09-02T22:07:22Z</time>
  <course>186.24</course>
  <speed>0.7213875518748573</speed>
  <fix>3d</fix>
</trkpt>
<trkpt lat="33.8100813" lon="-118.3941295">
  <ele>-0.106</ele>
  <time>2026-09-02T22:07:22Z</time>
  <course>186.24</course>
  <speed>0.7213875518748573</speed>
  <fix>3d</fix>
</trkpt>
<trkpt lat="33.8100812" lon="-118.3941296">
  <ele>-0.106</ele>
  <time>2026-09-02T22:07:22Z</time>
  <course>186.24</course>
  <speed>0.7213875518748573</speed>
  <fix>3d</fix>
</trkpt>
<trkpt lat="33.8100812" lon="-118.3941296">
  <ele>-0.106</ele>
  <time>2026-09-02T22:07:22Z</time>
  <course>186.24</course>
  <speed>0.7213875518748573</speed>
  <fix>3d</fix>
</trkpt>
<trkpt lat="33.8100811" lon="-118.3941296">
  <ele>-0.106</ele>
  <time>2026-09-02T22:07:22Z</time>
  <course>186.24</course>
  <speed>0.7213875518748573</speed>
  <fix>3d</fix>
</trkpt>
<trkpt lat="33.8100811" lon="-118.3941297">
  <ele>-0.106</ele>
  <time>2026-09-02T22:07:22Z</time>
  <course>186.24</course>
  <speed>0.7213875518748573</speed>
  <fix>3d</fix>
</trkpt>
<trkpt lat="33.8100811" lon="-118.3941297">
  <ele>-0.106</ele>
  <time>2026-09-02T22:07:22Z</time>
  <course>186.24</course>
  <speed>0.7213875518748573</speed>
  <fix>3d</fix>
</trkpt>
<trkpt lat="33.8100815" lon="-118.3941288">
  <ele>-0.11</ele>
  <time>2026-09-02T22:07:22Z</time>
  <course>223.26</course>
  <speed>0.73</speed>
  <fix>3d</fix>
</trkpt>
<trkpt lat="33.810081" lon="-118.3941298">
  <ele>-0.106</ele>
  <time>2026-09-02T22:07:22Z</time>
  <course>186.24</course>
  <speed>0.7213875518748573</speed>
  <fix>3d</fix>
</trkpt>
<trkpt lat="33.810081" lon="-118.3941298">
  <ele>-0.106</ele>
  <time>2026-09-02T22:07:22Z</time>
  <course>186.24</course>
  <speed>0.7213875518748573</speed>
  <fix>3d</fix>
</trkpt>
<trkpt lat="33.810081" lon="-118.3941299">
  <ele>-0.106</ele>
  <time>2026-09-02T22:07:22Z</time>
  <course>186.24</course>
  <speed>0.7213875518748573</speed>
  <fix>3d</fix>
</trkpt>
<trkpt lat="33.8100809" lon="-118.3941299">
  <ele>-0.106</ele>
  <time>2026-09-02T22:07:22Z</time>
  <course>186.24</course>
  <speed>0.7213875518748573</speed>
  <fix>3d</fix>
</trkpt>
<trkpt lat="33.8100809" lon="-118.3941299">
  <ele>-0.106</ele>
  <time>2026-09-02T22:07:22Z</time>
  <course>186.24</course>
  <speed>0.7213875518748573</speed>
  <fix>3d</fix>
</trkpt>
<trkpt lat="33.8100809" lon="-118.39413">
  <ele>-0.106</ele>
  <time>2026-09-02T22:07:22Z</time>
  <course>186.24</course>
  <speed>0.7213875518748573</speed>
  <fix>3d</fix>
</trkpt>
<trkpt lat="33.8100808" lon="-118.39413">
  <ele>-0.106</ele>
  <time>2026-09-02T22:07:22Z</time>
  <course>186.24</course>
  <speed>0.7213875518748573</speed>
  <fix>3d</fix>
</trkpt>
<trkpt lat="33.8100808" lon="-118.39413">
  <ele>-0.106</ele>
  <time>2026-09-02T22:07:22Z</time>
  <course>186.24</course>
  <speed>0.7213875518748573</speed>
  <fix>3d</fix>
</trkpt>
<trkpt lat="33.8100808" lon="-118.3941301">
  <ele>-0.106</ele>
  <time>2026-09-02T22:07:22Z</time>
  <course>186.24</course>
  <speed>0.7213875518748573</speed>
  <fix>3d</fix>
</trkpt>
<trkpt lat="33.8100807" lon="-118.3941301">
  <ele>-0.106</ele>
  <time>2026-09-02T22:07:22Z</time>
  <course>186.24</course>
  <speed>0.7213875518748573</speed>
  <fix>3d</fix>
</trkpt>
<trkpt lat="33.8100807" lon="-118.3941302">
  <ele>-0.106</ele>
  <time>2026-09-02T22:07:22Z</time>
  <course>186.24</course>
  <speed>0.7213875518748573</speed>
  <fix>3d</fix>
</trkpt>
<trkpt lat="33.8100807" lon="-118.3941302">
  <ele>-0.106</ele>
  <time>2026-09-02T22:07:22Z</time>
  <course>186.24</course>
  <speed>0.7213875518748573</speed>
  <fix>3d</fix>
</trkpt>
<trkpt lat="33.8100806" lon="-118.3941302">
  <ele>-0.106</ele>
  <time>2026-09-02T22:07:22Z</time>
  <course>186.24</course>
  <speed>0.7213875518748573</speed>
  <fix>3d</fix>
</trkpt>
<trkpt lat="33.8100806" lon="-118.3941302">
  <ele>-0.106</ele>
  <time>2026-09-02T22:07:22Z</time>
  <course>186.24</course>
  <speed>0.7213875518748573</speed>
  <fix>3d</fix>
</trkpt>
<trkpt lat="33.8100815" lon="-118.3941288">
  <ele>-0.11</ele>
  <time>2026-09-02T22:07:22Z</time>
  <course>223.26</course>
  <speed>0.73</speed>
  <fix>3d</fix>
</trkpt>
<trkpt lat="33.8100806" lon="-118.3941303">
  <ele>-0.106</ele>
  <time>2026-09-02T22:07:22Z</time>
  <course>186.24</course>
  <speed>0.7213875518748573</speed>
  <fix>3d</fix>
</trkpt>
<trkpt lat="33.8100805" lon="-118.3941303">
  <ele>-0.107</ele>
  <time>2026-09-02T22:07:22Z</time>
  <course>186.24</course>
  <speed>0.7213875518748573</speed>
  <fix>3d</fix>
</trkpt>
<trkpt lat="33.8100805" lon="-118.3941304">
  <ele>-0.107</ele>
  <time>2026-09-02T22:07:22Z</time>
  <course>186.24</course>
  <speed>0.7213875518748573</speed>
  <fix>3d</fix>
</trkpt>
<trkpt lat="33.8100805" lon="-118.3941304">
  <ele>-0.107</ele>
  <time>2026-09-02T22:07:22Z</time>
  <course>186.24</course>
  <speed>0.7213875518748573</speed>
  <fix>3d</fix>
</trkpt>
<trkpt lat="33.8100804" lon="-118.3941305">
  <ele>-0.106</ele>
  <time>2026-09-02T22:07:22Z</time>
  <course>186.24</course>
  <speed>0.7213875518748573</speed>
  <fix>3d</fix>
</trkpt>
<trkpt lat="33.8100804" lon="-118.3941305">
  <ele>-0.106</ele>
  <time>2026-09-02T22:07:22Z</time>
  <course>186.24</course>
  <speed>0.7213875518748573</speed>
  <fix>3d</fix>
</trkpt>
<trkpt lat="33.8100804" lon="-118.3941305">
  <ele>-0.106</ele>
  <time>2026-09-02T22:07:22Z</time>
  <course>186.24</course>
  <speed>0.7213875518748573</speed>
  <fix>3d</fix>
</trkpt>
<trkpt lat="33.8100803" lon="-118.3941306">
  <ele>-0.106</ele>
  <time>2026-09-02T22:07:22Z</time>
  <course>186.24</course>
  <speed>0.7213875518748573</speed>
  <fix>3d</fix>
</trkpt>
<trkpt lat="33.8100803" lon="-118.3941306">
  <ele>-0.106</ele>
  <time>2026-09-02T22:07:22Z</time>
  <course>186.24</course>
  <speed>0.7213875518748573</speed>
  <fix>3d</fix>
</trkpt>
<trkpt lat="33.8100803" lon="-118.3941307">
  <ele>-0.106</ele>
  <time>2026-09-02T22:07:22Z</time>
  <course>186.24</course>
  <speed>0.7213875518748573</speed>
  <fix>3d</fix>
</trkpt>
<trkpt lat="33.8100802" lon="-118.3941307">
  <ele>-0.106</ele>
  <time>2026-09-02T22:07:22Z</time>
  <course>186.24</course>
  <speed>0.7213875518748573</speed>
  <fix>3d</fix>
</trkpt>
<trkpt lat="33.8100802" lon="-118.3941307">
  <ele>-0.106</ele>
  <time>2026-09-02T22:07:22Z</time>
  <course>186.24</course>
  <speed>0.7213875518748573</speed>
  <fix>3d</fix>
</trkpt>
<trkpt lat="33.8100801" lon="-118.3941308">
  <ele>-0.106</ele>
  <time>2026-09-02T22:07:22Z</time>
  <course>186.24</course>
  <speed>0.7213875518748573</speed>
  <fix>3d</fix>
</trkpt>
<trkpt lat="33.8100801" lon="-118.3941308">
  <ele>-0.106</ele>
  <time>2026-09-02T22:07:22Z</time>
  <course>186.24</course>
  <speed>0.7213875518748573</speed>
  <fix>3d</fix>
</trkpt>
<trkpt lat="33.8100806" lon="-118.3941299">
  <ele>-0.1</ele>
  <time>2026-09-02T22:07:22Z</time>
  <course>223.26</course>
  <speed>0.73</speed>
  <fix>3d</fix>
</trkpt>
<trkpt lat="33.8100801" lon="-118.3941309">
  <ele>-0.106</ele>
  <time>2026-09-02T22:07:22Z</time>
  <course>186.24</course>
  <speed>0.7213875518748573</speed>
  <fix>3d</fix>
</trkpt>
<trkpt lat="33.81008" lon="-118.3941309">
  <ele>-0.106</ele>
  <time>2026-09-02T22:07:22Z</time>
  <course>186.24</course>
  <speed>0.7213875518748573</speed>
  <fix>3d</fix>
</trkpt>
<trkpt lat="33.81008" lon="-118.3941309">
  <ele>-0.106</ele>
  <time>2026-09-02T22:07:22Z</time>
  <course>186.24</course>
  <speed>0.7213875518748573</speed>
  <fix>3d</fix>
</trkpt>
<trkpt lat="33.81008" lon="-118.394131">
  <ele>-0.106</ele>
  <time>2026-09-02T22:07:22Z</time>
  <course>186.24</course>
  <speed>0.7213875518748573</speed>
  <fix>3d</fix>
</trkpt>
<trkpt lat="33.8100799" lon="-118.394131">
  <ele>-0.105</ele>
  <time>2026-09-02T22:07:22Z</time>
  <course>186.24</course>
  <speed>0.7213875518748573</speed>
  <fix>3d</fix>
</trkpt>
<trkpt lat="33.8100799" lon="-118.3941311">
  <ele>-0.105</ele>
  <time>2026-09-02T22:07:22Z</time>
  <course>186.24</course>
  <speed>0.7213875518748573</speed>
  <fix>3d</fix>
</trkpt>
<trkpt lat="33.8100799" lon="-118.3941311">
  <ele>-0.105</ele>
  <time>2026-09-02T22:07:22Z</time>
  <course>186.24</course>
  <speed>0.7213875518748573</speed>
  <fix>3d</fix>
</trkpt>
<trkpt lat="33.8100798" lon="-118.3941311">
  <ele>-0.105</ele>
  <time>2026-09-02T22:07:22Z</time>
  <course>186.24</course>
  <speed>0.7213875518748573</speed>
  <fix>3d</fix>
</trkpt>
<trkpt lat="33.8100798" lon="-118.3941312">
  <ele>-0.105</ele>
  <time>2026-09-02T22:07:22Z</time>
  <course>186.24</course>
  <speed>0.7213875518748573</speed>
  <fix>3d</fix>
</trkpt>
<trkpt lat="33.8100797" lon="-118.3941313">
  <ele>-0.105</ele>
  <time>2026-09-02T22:07:22Z</time>
  <course>186.24</course>
  <speed>0.7213875518748573</speed>
  <fix>3d</fix>
</trkpt>
<trkpt lat="33.8100797" lon="-118.3941313">
  <ele>-0.105</ele>
  <time>2026-09-02T22:07:22Z</time>
  <course>186.24</course>
  <speed>0.7213875518748573</speed>
  <fix>3d</fix>
</trkpt>
<trkpt lat="33.8100797" lon="-118.3941313">
  <ele>-0.105</ele>
  <time>2026-09-02T22:07:22Z</time>
  <course>186.24</course>
  <speed>0.7213875518748573</speed>
  <fix>3d</fix>
</trkpt>
<trkpt lat="33.8100797" lon="-118.3941313">
  <ele>-0.105</ele>
  <time>2026-09-02T22:07:22Z</time>
  <course>186.24</course>
  <speed>0.7213875518748573</speed>
  <fix>3d</fix>
</trkpt>
<trkpt lat="33.8100806" lon="-118.3941299">
  <ele>-0.1</ele>
  <time>2026-09-02T22:07:22Z</time>
  <course>223.26</course>
  <speed>0.73</speed>
  <fix>3d</fix>
</trkpt>
<trkpt lat="33.8100797" lon="-118.3941313">
  <ele>-0.104</ele>
  <time>2026-09-02T22:07:22Z</time>
  <course>186.24</course>
  <speed>0.7213875518748573</speed>
  <fix>3d</fix>
</trkpt>
<trkpt lat="33.8100796" lon="-118.3941314">
  <ele>-0.104</ele>
  <time>2026-09-02T22:07:22Z</time>
  <course>186.24</course>
  <speed>0.7213875518748573</speed>
  <fix>3d</fix>
</trkpt>
<trkpt lat="33.8100796" lon="-118.3941315">
  <ele>-0.104</ele>
  <time>2026-09-02T22:07:22Z</time>
  <course>186.24</course>
  <speed>0.7213875518748573</speed>
  <fix>3d</fix>
</trkpt>
<trkpt lat="33.8100795" lon="-118.3941315">
  <ele>-0.104</ele>
  <time>2026-09-02T22:07:22Z</time>
  <course>186.24</course>
  <speed>0.7213875518748573</speed>
  <fix>3d</fix>
</trkpt>
<trkpt lat="33.8100795" lon="-118.3941315">
  <ele>-0.104</ele>
  <time>2026-09-02T22:07:22Z</time>
  <course>186.24</course>
  <speed>0.7213875518748573</speed>
  <fix>3d</fix>
</trkpt>
<trkpt lat="33.8100795" lon="-118.3941316">
  <ele>-0.104</ele>
  <time>2026-09-02T22:07:22Z</time>
  <course>186.24</course>
  <speed>0.7213875518748573</speed>
  <fix>3d</fix>
</trkpt>
<trkpt lat="33.8100794" lon="-118.3941316">
  <ele>-0.104</ele>
  <time>2026-09-02T22:07:22Z</time>
  <course>186.24</course>
  <speed>0.7213875518748573</speed>
  <fix>3d</fix>
</trkpt>
<trkpt lat="33.8100794" lon="-118.3941317">
  <ele>-0.103</ele>
  <time>2026-09-02T22:07:22Z</time>
  <course>186.24</course>
  <speed>0.7213875518748573</speed>
  <fix>3d</fix>
</trkpt>
<trkpt lat="33.8100793" lon="-118.3941317">
  <ele>-0.103</ele>
  <time>2026-09-02T22:07:22Z</time>
  <course>186.24</course>
  <speed>0.7213875518748573</speed>
  <fix>3d</fix>
</trkpt>
<trkpt lat="33.8100793" lon="-118.3941318">
  <ele>-0.103</ele>
  <time>2026-09-02T22:07:22Z</time>
  <course>186.24</course>
  <speed>0.7213875518748573</speed>
  <fix>3d</fix>
</trkpt>
<trkpt lat="33.8100793" lon="-118.3941318">
  <ele>-0.103</ele>
  <time>2026-09-02T22:07:22Z</time>
  <course>186.24</course>
  <speed>0.7213875518748573</speed>
  <fix>3d</fix>
</trkpt>
<trkpt lat="33.8100792" lon="-118.3941318">
  <ele>-0.103</ele>
  <time>2026-09-02T22:07:22Z</time>
  <course>186.24</course>
  <speed>0.7213875518748573</speed>
  <fix>3d</fix>
</trkpt>
<trkpt lat="33.8100792" lon="-118.3941319">
  <ele>-0.103</ele>
  <time>2026-09-02T22:07:22Z</time>
  <course>186.24</course>
  <speed>0.7213875518748573</speed>
  <fix>3d</fix>
</trkpt>
<trkpt lat="33.8100792" lon="-118.3941319">
  <ele>-0.103</ele>
  <time>2026-09-02T22:07:22Z</time>
  <course>186.24</course>
  <speed>0.7213875518748573</speed>
  <fix>3d</fix>
</trkpt>
<trkpt lat="33.8100796" lon="-118.3941309">
  <ele>-0.1</ele>
  <time>2026-09-02T22:07:22Z</time>
  <course>223.26</course>
  <speed>0.73</speed>
  <fix>3d</fix>
</trkpt>
<trkpt lat="33.8100791" lon="-118.3941319">
  <ele>-0.103</ele>
  <time>2026-09-02T22:07:22Z</time>
  <course>186.24</course>
  <speed>0.7213875518748573</speed>
  <fix>3d</fix>
</trkpt>
<trkpt lat="33.8100791" lon="-118.394132">
  <ele>-0.103</ele>
  <time>2026-09-02T22:07:22Z</time>
  <course>186.24</course>
  <speed>0.7213875518748573</speed>
  <fix>3d</fix>
</trkpt>
<trkpt lat="33.8100791" lon="-118.394132">
  <ele>-0.103</ele>
  <time>2026-09-02T22:07:22Z</time>
  <course>186.24</course>
  <speed>0.7283543093852057</speed>
  <fix>3d</fix>
</trkpt>
<trkpt lat="33.810079" lon="-118.3941321">
  <ele>-0.103</ele>
  <time>2026-09-02T22:07:22Z</time>
  <course>186.24</course>
  <speed>0.7213875518748573</speed>
  <fix>3d</fix>
</trkpt>
<trkpt lat="33.810079" lon="-118.3941321">
  <ele>-0.103</ele>
  <time>2026-09-02T22:07:22Z</time>
  <course>186.24</course>
  <speed>0.7283543093852057</speed>
  <fix>3d</fix>
</trkpt>
<trkpt lat="33.8100789" lon="-118.3941321">
  <ele>-0.103</ele>
  <time>2026-09-02T22:07:22Z</time>
  <course>186.24</course>
  <speed>0.7213875518748573</speed>
  <fix>3d</fix>
</trkpt>
<trkpt lat="33.8100789" lon="-118.3941322">
  <ele>-0.103</ele>
  <time>2026-09-02T22:07:22Z</time>
  <course>186.24</course>
  <speed>0.7283543093852057</speed>
  <fix>3d</fix>
</trkpt>
<trkpt lat="33.8100789" lon="-118.3941322">
  <ele>-0.102</ele>
  <time>2026-09-02T22:07:22Z</time>
  <course>186.24</course>
  <speed>0.7283543093852057</speed>
  <fix>3d</fix>
</trkpt>
<trkpt lat="33.8100788" lon="-118.3941323">
  <ele>-0.102</ele>
  <time>2026-09-02T22:07:22Z</time>
  <course>186.24</course>
  <speed>0.7213875518748573</speed>
  <fix>3d</fix>
</trkpt>
<trkpt lat="33.8100788" lon="-118.3941323">
  <ele>-0.102</ele>
  <time>2026-09-02T22:07:22Z</time>
  <course>186.24</course>
  <speed>0.7213875518748573</speed>
  <fix>3d</fix>
</trkpt>
<trkpt lat="33.8100788" lon="-118.3941324">
  <ele>-0.102</ele>
  <time>2026-09-02T22:07:22Z</time>
  <course>186.24</course>
  <speed>0.7283543093852057</speed>
  <fix>3d</fix>
</trkpt>
<trkpt lat="33.8100787" lon="-118.3941324">
  <ele>-0.102</ele>
  <time>2026-09-02T22:07:22Z</time>
  <course>186.24</course>
  <speed>0.7213875518748573</speed>
  <fix>3d</fix>
</trkpt>
<trkpt lat="33.8100787" lon="-118.3941324">
  <ele>-0.102</ele>
  <time>2026-09-02T22:07:22Z</time>
  <course>186.24</course>
  <speed>0.7283543093852057</speed>
  <fix>3d</fix>
</trkpt>
<trkpt lat="33.8100796" lon="-118.3941309">
  <ele>-0.1</ele>
  <time>2026-09-02T22:07:22Z</time>
  <course>223.26</course>
  <speed>0.73</speed>
  <fix>3d</fix>
</trkpt>
<trkpt lat="33.8100787" lon="-118.3941324">
  <ele>-0.102</ele>
  <time>2026-09-02T22:07:22Z</time>
  <course>186.24</course>
  <speed>0.7213875518748573</speed>
  <fix>3d</fix>
</trkpt>
<trkpt lat="33.8100786" lon="-118.3941325">
  <ele>-0.102</ele>
  <time>2026-09-02T22:07:22Z</time>
  <course>186.24</course>
  <speed>0.7213875518748573</speed>
  <fix>3d</fix>
</trkpt>
<trkpt lat="33.8100786" lon="-118.3941325">
  <ele>-0.102</ele>
  <time>2026-09-02T22:07:22Z</time>
  <course>186.24</course>
  <speed>0.7213875518748573</speed>
  <fix>3d</fix>
</trkpt>
<trkpt lat="33.8100786" lon="-118.3941326">
  <ele>-0.102</ele>
  <time>2026-09-02T22:07:22Z</time>
  <course>186.24</course>
  <speed>0.7213875518748573</speed>
  <fix>3d</fix>
</trkpt>
<trkpt lat="33.8100785" lon="-118.3941326">
  <ele>-0.102</ele>
  <time>2026-09-02T22:07:22Z</time>
  <course>186.24</course>
  <speed>0.7213875518748573</speed>
  <fix>3d</fix>
</trkpt>
<trkpt lat="33.8100785" lon="-118.3941327">
  <ele>-0.102</ele>
  <time>2026-09-02T22:07:22Z</time>
  <course>186.24</course>
  <speed>0.7213875518748573</speed>
  <fix>3d</fix>
</trkpt>
<trkpt lat="33.8100784" lon="-118.3941327">
  <ele>-0.102</ele>
  <time>2026-09-02T22:07:22Z</time>
  <course>186.24</course>
  <speed>0.7213875518748573</speed>
  <fix>3d</fix>
</trkpt>
<trkpt lat="33.8100784" lon="-118.3941328">
  <ele>-0.102</ele>
  <time>2026-09-02T22:07:22Z</time>
  <course>186.24</course>
  <speed>0.7213875518748573</speed>
  <fix>3d</fix>
</trkpt>
<trkpt lat="33.8100784" lon="-118.3941328">
  <ele>-0.103</ele>
  <time>2026-09-02T22:07:22Z</time>
  <course>186.24</course>
  <speed>0.7213875518748573</speed>
  <fix>3d</fix>
</trkpt>
<trkpt lat="33.8100783" lon="-118.3941328">
  <ele>-0.103</ele>
  <time>2026-09-02T22:07:22Z</time>
  <course>186.24</course>
  <speed>0.7283543093852057</speed>
  <fix>3d</fix>
</trkpt>
<trkpt lat="33.8100783" lon="-118.3941329">
  <ele>-0.103</ele>
  <time>2026-09-02T22:07:22Z</time>
  <course>186.24</course>
  <speed>0.7213875518748573</speed>
  <fix>3d</fix>
</trkpt>
<trkpt lat="33.8100783" lon="-118.3941329">
  <ele>-0.103</ele>
  <time>2026-09-02T22:07:22Z</time>
  <course>186.24</course>
  <speed>0.7283543093852057</speed>
  <fix>3d</fix>
</trkpt>
<trkpt lat="33.8100782" lon="-118.394133">
  <ele>-0.103</ele>
  <time>2026-09-02T22:07:22Z</time>
  <course>186.24</course>
  <speed>0.7213875518748573</speed>
  <fix>3d</fix>
</trkpt>
<trkpt lat="33.8100782" lon="-118.394133">
  <ele>-0.103</ele>
  <time>2026-09-02T22:07:22Z</time>
  <course>186.24</course>
  <speed>0.7283543093852057</speed>
  <fix>3d</fix>
</trkpt>
<trkpt lat="33.8100787" lon="-118.394132">
  <ele>-0.1</ele>
  <time>2026-09-02T22:07:22Z</time>
  <course>223.26</course>
  <speed>0.73</speed>
  <fix>3d</fix>
</trkpt>
<trkpt lat="33.8100782" lon="-118.394133">
  <ele>-0.103</ele>
  <time>2026-09-02T22:07:22Z</time>
  <course>186.24</course>
  <speed>0.7283543093852057</speed>
  <fix>3d</fix>
</trkpt>
<trkpt lat="33.8100782" lon="-118.394133">
  <ele>-0.103</ele>
  <time>2026-09-02T22:07:22Z</time>
  <course>186.24</course>
  <speed>0.7283543093852057</speed>
  <fix>3d</fix>
</trkpt>
<trkpt lat="33.8100781" lon="-118.3941331">
  <ele>-0.103</ele>
  <time>2026-09-02T22:07:22Z</time>
  <course>186.24</course>
  <speed>0.7283543093852057</speed>
  <fix>3d</fix>
</trkpt>
<trkpt lat="33.8100781" lon="-118.3941331">
  <ele>-0.103</ele>
  <time>2026-09-02T22:07:22Z</time>
  <course>186.24</course>
  <speed>0.7283543093852057</speed>
  <fix>3d</fix>
</trkpt>
<trkpt lat="33.810078" lon="-118.3941332">
  <ele>-0.103</ele>
  <time>2026-09-02T22:07:22Z</time>
  <course>186.24</course>
  <speed>0.7283543093852057</speed>
  <fix>3d</fix>
</trkpt>
<trkpt lat="33.810078" lon="-118.3941332">
  <ele>-0.104</ele>
  <time>2026-09-02T22:07:22Z</time>
  <course>186.24</course>
  <speed>0.7283543093852057</speed>
  <fix>3d</fix>
</trkpt>
<trkpt lat="33.810078" lon="-118.3941333">
  <ele>-0.104</ele>
  <time>2026-09-02T22:07:22Z</time>
  <course>186.24</course>
  <speed>0.7283543093852057</speed>
  <fix>3d</fix>
</trkpt>
<trkpt lat="33.8100779" lon="-118.3941333">
  <ele>-0.104</ele>
  <time>2026-09-02T22:07:22Z</time>
  <course>186.24</course>
  <speed>0.7213875518748573</speed>
  <fix>3d</fix>
</trkpt>
<trkpt lat="33.8100779" lon="-118.3941333">
  <ele>-0.104</ele>
  <time>2026-09-02T22:07:22Z</time>
  <course>186.24</course>
  <speed>0.7283543093852057</speed>
  <fix>3d</fix>
</trkpt>
<trkpt lat="33.8100779" lon="-118.3941334">
  <ele>-0.104</ele>
  <time>2026-09-02T22:07:22Z</time>
  <course>186.24</course>
  <speed>0.7283543093852057</speed>
  <fix>3d</fix>
</trkpt>
<trkpt lat="33.8100778" lon="-118.3941334">
  <ele>-0.104</ele>
  <time>2026-09-02T22:07:22Z</time>
  <course>186.24</course>
  <speed>0.7213875518748573</speed>
  <fix>3d</fix>
</trkpt>
<trkpt lat="33.8100778" lon="-118.3941335">
  <ele>-0.105</ele>
  <time>2026-09-02T22:07:22Z</time>
  <course>186.24</course>
  <speed>0.7283543093852057</speed>
  <fix>3d</fix>
</trkpt>
<trkpt lat="33.8100777" lon="-118.3941335">
  <ele>-0.105</ele>
  <time>2026-09-02T22:07:22Z</time>
  <course>186.24</course>
  <speed>0.7213875518748573</speed>
  <fix>3d</fix>
</trkpt>
<trkpt lat="33.8100777" lon="-118.3941335">
  <ele>-0.105</ele>
  <time>2026-09-02T22:07:22Z</time>
  <course>186.24</course>
  <speed>0.7283543093852057</speed>
  <fix>3d</fix>
</trkpt>
<trkpt lat="33.8100787" lon="-118.394132">
  <ele>-0.1</ele>
  <time>2026-09-02T22:07:22Z</time>
  <course>223.26</course>
  <speed>0.73</speed>
  <fix>3d</fix>
</trkpt>
<trkpt lat="33.8100777" lon="-118.3941335">
  <ele>-0.105</ele>
  <time>2026-09-02T22:07:22Z</time>
  <course>186.24</course>
  <speed>0.7213875518748573</speed>
  <fix>3d</fix>
</trkpt>
<trkpt lat="33.8100777" lon="-118.3941336">
  <ele>-0.105</ele>
  <time>2026-09-02T22:07:22Z</time>
  <course>186.24</course>
  <speed>0.7213875518748573</speed>
  <fix>3d</fix>
</trkpt>
<trkpt lat="33.8100776" lon="-118.3941337">
  <ele>-0.105</ele>
  <time>2026-09-02T22:07:22Z</time>
  <course>186.24</course>
  <speed>0.7213875518748573</speed>
  <fix>3d</fix>
</trkpt>
<trkpt lat="33.8100776" lon="-118.3941337">
  <ele>-0.105</ele>
  <time>2026-09-02T22:07:22Z</time>
  <course>186.24</course>
  <speed>0.7213875518748573</speed>
  <fix>3d</fix>
</trkpt>
<trkpt lat="33.8100775" lon="-118.3941338">
  <ele>-0.106</ele>
  <time>2026-09-02T22:07:22Z</time>
  <course>186.24</course>
  <speed>0.7213875518748573</speed>
  <fix>3d</fix>
</trkpt>
<trkpt lat="33.8100775" lon="-118.3941338">
  <ele>-0.106</ele>
  <time>2026-09-02T22:07:22Z</time>
  <course>186.24</course>
  <speed>0.7213875518748573</speed>
  <fix>3d</fix>
</trkpt>
<trkpt lat="33.8100775" lon="-118.3941338">
  <ele>-0.106</ele>
  <time>2026-09-02T22:07:22Z</time>
  <course>186.24</course>
  <speed>0.7213875518748573</speed>
  <fix>3d</fix>
</trkpt>
<trkpt lat="33.8100774" lon="-118.3941339">
  <ele>-0.107</ele>
  <time>2026-09-02T22:07:22Z</time>
  <course>186.24</course>
  <speed>0.7213875518748573</speed>
  <fix>3d</fix>
</trkpt>
<trkpt lat="33.8100774" lon="-118.3941339">
  <ele>-0.107</ele>
  <time>2026-09-02T22:07:22Z</time>
  <course>186.24</course>
  <speed>0.7283543093852057</speed>
  <fix>3d</fix>
</trkpt>
<trkpt lat="33.8100773" lon="-118.394134">
  <ele>-0.107</ele>
  <time>2026-09-02T22:07:22Z</time>
  <course>186.24</course>
  <speed>0.7283543093852057</speed>
  <fix>3d</fix>
</trkpt>
<trkpt lat="33.8100773" lon="-118.394134">
  <ele>-0.107</ele>
  <time>2026-09-02T22:07:22Z</time>
  <course>186.24</course>
  <speed>0.7283543093852057</speed>
  <fix>3d</fix>
</trkpt>
<trkpt lat="33.8100773" lon="-118.3941341">
  <ele>-0.107</ele>
  <time>2026-09-02T22:07:22Z</time>
  <course>186.24</course>
  <speed>0.7283543093852057</speed>
  <fix>3d</fix>
</trkpt>
<trkpt lat="33.8100773" lon="-118.3941341">
  <ele>-0.107</ele>
  <time>2026-09-02T22:07:22Z</time>
  <course>186.24</course>
  <speed>0.7283543093852057</speed>
  <fix>3d</fix>
</trkpt>
<trkpt lat="33.8100776" lon="-118.3941331">
  <ele>-0.1</ele>
  <time>2026-09-02T22:07:22Z</time>
  <course>223.26</course>
  <speed>0.73</speed>
  <fix>3d</fix>
</trkpt>
<trkpt lat="33.8100772" lon="-118.3941341">
  <ele>-0.108</ele>
  <time>2026-09-02T22:07:22Z</time>
  <course>186.24</course>
  <speed>0.7283543093852057</speed>
  <fix>3d</fix>
</trkpt>
<trkpt lat="33.8100772" lon="-118.3941341">
  <ele>-0.108</ele>
  <time>2026-09-02T22:07:22Z</time>
  <course>186.24</course>
  <speed>0.7283543093852057</speed>
  <fix>3d</fix>
</trkpt>
<trkpt lat="33.8100771" lon="-118.3941342">
  <ele>-0.108</ele>
  <time>2026-09-02T22:07:22Z</time>
  <course>186.24</course>
  <speed>0.7283543093852057</speed>
  <fix>3d</fix>
</trkpt>
<trkpt lat="33.8100771" lon="-118.3941343">
  <ele>-0.108</ele>
  <time>2026-09-02T22:07:22Z</time>
  <course>186.24</course>
  <speed>0.7283543093852057</speed>
  <fix>3d</fix>
</trkpt>
<trkpt lat="33.810077" lon="-118.3941343">
  <ele>-0.108</ele>
  <time>2026-09-02T22:07:22Z</time>
  <course>186.24</course>
  <speed>0.7283543093852057</speed>
  <fix>3d</fix>
</trkpt>
<trkpt lat="33.810077" lon="-118.3941343">
  <ele>-0.109</ele>
  <time>2026-09-02T22:07:22Z</time>
  <course>186.24</course>
  <speed>0.7283543093852057</speed>
  <fix>3d</fix>
</trkpt>
<trkpt lat="33.810077" lon="-118.3941344">
  <ele>-0.109</ele>
  <time>2026-09-02T22:07:22Z</time>
  <course>186.24</course>
  <speed>0.7283543093852057</speed>
  <fix>3d</fix>
</trkpt>
<trkpt lat="33.8100769" lon="-118.3941344">
  <ele>-0.109</ele>
  <time>2026-09-02T22:07:22Z</time>
  <course>186.24</course>
  <speed>0.7283543093852057</speed>
  <fix>3d</fix>
</trkpt>
<trkpt lat="33.8100769" lon="-118.3941345">
  <ele>-0.109</ele>
  <time>2026-09-02T22:07:22Z</time>
  <course>186.24</course>
  <speed>0.7283543093852057</speed>
  <fix>3d</fix>
</trkpt>
<trkpt lat="33.8100768" lon="-118.3941345">
  <ele>-0.109</ele>
  <time>2026-09-02T22:07:22Z</time>
  <course>186.24</course>
  <speed>0.7283543093852057</speed>
  <fix>3d</fix>
</trkpt>
<trkpt lat="33.8100768" lon="-118.3941346">
  <ele>-0.109</ele>
  <time>2026-09-02T22:07:22Z</time>
  <course>186.24</course>
  <speed>0.7283543093852057</speed>
  <fix>3d</fix>
</trkpt>
<trkpt lat="33.8100768" lon="-118.3941346">
  <ele>-0.109</ele>
  <time>2026-09-02T22:07:22Z</time>
  <course>186.24</course>
  <speed>0.7283543093852057</speed>
  <fix>3d</fix>
</trkpt>
<trkpt lat="33.8100768" lon="-118.3941346">
  <ele>-0.109</ele>
  <time>2026-09-02T22:07:22Z</time>
  <course>186.24</course>
  <speed>0.7283543093852057</speed>
  <fix>3d</fix>
</trkpt>
<trkpt lat="33.8100776" lon="-118.3941331">
  <ele>-0.1</ele>
  <time>2026-09-02T22:07:22Z</time>
  <course>223.26</course>
  <speed>0.73</speed>
  <fix>3d</fix>
</trkpt>
<trkpt lat="33.8100767" lon="-118.3941347">
  <ele>-0.11</ele>
  <time>2026-09-02T22:07:22Z</time>
  <course>186.24</course>
  <speed>0.7283543093852057</speed>
  <fix>3d</fix>
</trkpt>
<trkpt lat="33.8100766" lon="-118.3941348">
  <ele>-0.11</ele>
  <time>2026-09-02T22:07:22Z</time>
  <course>186.24</course>
  <speed>0.7283543093852057</speed>
  <fix>3d</fix>
</trkpt>
<trkpt lat="33.8100766" lon="-118.3941348">
  <ele>-0.11</ele>
  <time>2026-09-02T22:07:22Z</time>
  <course>186.24</course>
  <speed>0.7283543093852057</speed>
  <fix>3d</fix>
</trkpt>
<trkpt lat="33.8100766" lon="-118.3941349">
  <ele>-0.11</ele>
  <time>2026-09-02T22:07:22Z</time>
  <course>186.24</course>
  <speed>0.7283543093852057</speed>
  <fix>3d</fix>
</trkpt>
<trkpt lat="33.8100765" lon="-118.3941349">
  <ele>-0.11</ele>
  <time>2026-09-02T22:07:22Z</time>
  <course>186.24</course>
  <speed>0.7283543093852057</speed>
  <fix>3d</fix>
</trkpt>
<trkpt lat="33.8100765" lon="-118.3941349">
  <ele>-0.11</ele>
  <time>2026-09-02T22:07:22Z</time>
  <course>186.24</course>
  <speed>0.7283543093852057</speed>
  <fix>3d</fix>
</trkpt>
<trkpt lat="33.8100764" lon="-118.394135">
  <ele>-0.11</ele>
  <time>2026-09-02T22:07:22Z</time>
  <course>186.24</course>
  <speed>0.7283543093852057</speed>
  <fix>3d</fix>
</trkpt>
<trkpt lat="33.8100764" lon="-118.394135">
  <ele>-0.11</ele>
  <time>2026-09-02T22:07:22Z</time>
  <course>186.24</course>
  <speed>0.7283543093852057</speed>
  <fix>3d</fix>
</trkpt>
<trkpt lat="33.8100763" lon="-118.3941351">
  <ele>-0.11</ele>
  <time>2026-09-02T22:07:22Z</time>
  <course>186.24</course>
  <speed>0.7283543093852057</speed>
  <fix>3d</fix>
</trkpt>
<trkpt lat="33.8100763" lon="-118.3941351">
  <ele>-0.11</ele>
  <time>2026-09-02T22:07:22Z</time>
  <course>186.24</course>
  <speed>0.7283543093852057</speed>
  <fix>3d</fix>
</trkpt>
<trkpt lat="33.8100763" lon="-118.3941351">
  <ele>-0.111</ele>
  <time>2026-09-02T22:07:22Z</time>
  <course>186.24</course>
  <speed>0.7283543093852057</speed>
  <fix>3d</fix>
</trkpt>
<trkpt lat="33.8100767" lon="-118.3941342">
  <ele>-0.11</ele>
  <time>2026-09-02T22:07:22Z</time>
  <course>223.26</course>
  <speed>0.73</speed>
  <fix>3d</fix>
</trkpt>
<trkpt lat="33.8100763" lon="-118.3941352">
  <ele>-0.111</ele>
  <time>2026-09-02T22:07:22Z</time>
  <course>186.24</course>
  <speed>0.7283543093852057</speed>
  <fix>3d</fix>
</trkpt>
<trkpt lat="33.8100762" lon="-118.3941352">
  <ele>-0.111</ele>
  <time>2026-09-02T22:07:22Z</time>
  <course>186.24</course>
  <speed>0.7283543093852057</speed>
  <fix>3d</fix>
</trkpt>
<trkpt lat="33.8100762" lon="-118.3941353">
  <ele>-0.111</ele>
  <time>2026-09-02T22:07:22Z</time>
  <course>186.24</course>
  <speed>0.7283543093852057</speed>
  <fix>3d</fix>
</trkpt>
<trkpt lat="33.8100761" lon="-118.3941353">
  <ele>-0.111</ele>
  <time>2026-09-02T22:07:22Z</time>
  <course>186.24</course>
  <speed>0.7283543093852057</speed>
  <fix>3d</fix>
</trkpt>
<trkpt lat="33.8100761" lon="-118.3941354">
  <ele>-0.111</ele>
  <time>2026-09-02T22:07:22Z</time>
  <course>186.24</course>
  <speed>0.7283543093852057</speed>
  <fix>3d</fix>
</trkpt>
<trkpt lat="33.810076" lon="-118.3941354">
  <ele>-0.111</ele>
  <time>2026-09-02T22:07:22Z</time>
  <course>186.24</course>
  <speed>0.7283543093852057</speed>
  <fix>3d</fix>
</trkpt>
<trkpt lat="33.810076" lon="-118.3941355">
  <ele>-0.111</ele>
  <time>2026-09-02T22:07:22Z</time>
  <course>186.24</course>
  <speed>0.7283543093852057</speed>
  <fix>3d</fix>
</trkpt>
<trkpt lat="33.8100759" lon="-118.3941355">
  <ele>-0.111</ele>
  <time>2026-09-02T22:07:22Z</time>
  <course>186.24</course>
  <speed>0.7283543093852057</speed>
  <fix>3d</fix>
</trkpt>
<trkpt lat="33.8100759" lon="-118.3941356">
  <ele>-0.111</ele>
  <time>2026-09-02T22:07:22Z</time>
  <course>186.24</course>
  <speed>0.7283543093852057</speed>
  <fix>3d</fix>
</trkpt>
<trkpt lat="33.8100759" lon="-118.3941356">
  <ele>-0.11</ele>
  <time>2026-09-02T22:07:22Z</time>
  <course>186.24</course>
  <speed>0.7283543093852057</speed>
  <fix>3d</fix>
</trkpt>
<trkpt lat="33.8100758" lon="-118.3941357">
  <ele>-0.11</ele>
  <time>2026-09-02T22:07:22Z</time>
  <course>186.24</course>
  <speed>0.7283543093852057</speed>
  <fix>3d</fix>
</trkpt>
<trkpt lat="33.8100758" lon="-118.3941357">
  <ele>-0.11</ele>
  <time>2026-09-02T22:07:22Z</time>
  <course>186.24</course>
  <speed>0.7283543093852057</speed>
  <fix>3d</fix>
</trkpt>
<trkpt lat="33.8100767" lon="-118.3941342">
  <ele>-0.11</ele>
  <time>2026-09-02T22:07:22Z</time>
  <course>223.26</course>
  <speed>0.73</speed>
  <fix>3d</fix>
</trkpt>
<trkpt lat="33.8100758" lon="-118.3941357">
  <ele>-0.11</ele>
  <time>2026-09-02T22:07:22Z</time>
  <course>186.24</course>
  <speed>0.7283543093852057</speed>
  <fix>3d</fix>
</trkpt>
<trkpt lat="33.8100757" lon="-118.3941358">
  <ele>-0.11</ele>
  <time>2026-09-02T22:07:22Z</time>
  <course>186.24</course>
  <speed>0.7283543093852057</speed>
  <fix>3d</fix>
</trkpt>
<trkpt lat="33.8100757" lon="-118.3941358">
  <ele>-0.11</ele>
  <time>2026-09-02T22:07:22Z</time>
  <course>186.24</course>
  <speed>0.7283543093852057</speed>
  <fix>3d</fix>
</trkpt>
<trkpt lat="33.8100756" lon="-118.3941359">
  <ele>-0.11</ele>
  <time>2026-09-02T22:07:22Z</time>
  <course>186.24</course>
  <speed>0.7283543093852057</speed>
  <fix>3d</fix>
</trkpt>
<trkpt lat="33.8100756" lon="-118.3941359">
  <ele>-0.11</ele>
  <time>2026-09-02T22:07:22Z</time>
  <course>186.24</course>
  <speed>0.7283543093852057</speed>
  <fix>3d</fix>
</trkpt>
<trkpt lat="33.8100755" lon="-118.394136">
  <ele>-0.11</ele>
  <time>2026-09-02T22:07:22Z</time>
  <course>186.24</course>
  <speed>0.7283543093852057</speed>
  <fix>3d</fix>
</trkpt>
<trkpt lat="33.8100755" lon="-118.394136">
  <ele>-0.11</ele>
  <time>2026-09-02T22:07:22Z</time>
  <course>186.24</course>
  <speed>0.7283543093852057</speed>
  <fix>3d</fix>
</trkpt>
<trkpt lat="33.8100755" lon="-118.3941361">
  <ele>-0.11</ele>
  <time>2026-09-02T22:07:22Z</time>
  <course>186.24</course>
  <speed>0.7283543093852057</speed>
  <fix>3d</fix>
</trkpt>
<trkpt lat="33.8100754" lon="-118.3941361">
  <ele>-0.11</ele>
  <time>2026-09-02T22:07:22Z</time>
  <course>186.24</course>
  <speed>0.7283543093852057</speed>
  <fix>3d</fix>
</trkpt>
<trkpt lat="33.8100754" lon="-118.3941361">
  <ele>-0.11</ele>
  <time>2026-09-02T22:07:22Z</time>
  <course>186.24</course>
  <speed>0.7283543093852057</speed>
  <fix>3d</fix>
</trkpt>
<trkpt lat="33.8100754" lon="-118.3941362">
  <ele>-0.11</ele>
  <time>2026-09-02T22:07:22Z</time>
  <course>186.24</course>
  <speed>0.7283543093852057</speed>
  <fix>3d</fix>
</trkpt>
<trkpt lat="33.8100753" lon="-118.3941362">
  <ele>-0.11</ele>
  <time>2026-09-02T22:07:22Z</time>
  <course>186.24</course>
  <speed>0.7283543093852057</speed>
  <fix>3d</fix>
</trkpt>
<trkpt lat="33.8100753" lon="-118.3941362">
  <ele>-0.11</ele>
  <time>2026-09-02T22:07:22Z</time>
  <course>186.24</course>
  <speed>0.7283543093852057</speed>
  <fix>3d</fix>
</trkpt>
<trkpt lat="33.8100758" lon="-118.3941353">
  <ele>-0.1</ele>
  <time>2026-09-02T22:07:22Z</time>
  <course>223.26</course>
  <speed>0.73</speed>
  <fix>3d</fix>
</trkpt>
<trkpt lat="33.8100752" lon="-118.3941363">
  <ele>-0.11</ele>
  <time>2026-09-02T22:07:22Z</time>
  <course>186.24</course>
  <speed>0.7283543093852057</speed>
  <fix>3d</fix>
</trkpt>
<trkpt lat="33.8100752" lon="-118.3941364">
  <ele>-0.11</ele>
  <time>2026-09-02T22:07:22Z</time>
  <course>186.24</course>
  <speed>0.7283543093852057</speed>
  <fix>3d</fix>
</trkpt>
<trkpt lat="33.8100751" lon="-118.3941364">
  <ele>-0.11</ele>
  <time>2026-09-02T22:07:22Z</time>
  <course>186.24</course>
  <speed>0.7283543093852057</speed>
  <fix>3d</fix>
</trkpt>
<trkpt lat="33.8100751" lon="-118.3941365">
  <ele>-0.11</ele>
  <time>2026-09-02T22:07:22Z</time>
  <course>186.24</course>
  <speed>0.7283543093852057</speed>
  <fix>3d</fix>
</trkpt>
<trkpt lat="33.8100751" lon="-118.3941365">
  <ele>-0.11</ele>
  <time>2026-09-02T22:07:22Z</time>
  <course>186.24</course>
  <speed>0.7283543093852057</speed>
  <fix>3d</fix>
</trkpt>
<trkpt lat="33.810075" lon="-118.3941366">
  <ele>-0.11</ele>
  <time>2026-09-02T22:07:22Z</time>
  <course>186.24</course>
  <speed>0.7283543093852057</speed>
  <fix>3d</fix>
</trkpt>
<trkpt lat="33.810075" lon="-118.3941366">
  <ele>-0.11</ele>
  <time>2026-09-02T22:07:22Z</time>
  <course>186.24</course>
  <speed>0.7283543093852057</speed>
  <fix>3d</fix>
</trkpt>
<trkpt lat="33.8100749" lon="-118.3941367">
  <ele>-0.109</ele>
  <time>2026-09-02T22:07:22Z</time>
  <course>186.24</course>
  <speed>0.7283543093852057</speed>
  <fix>3d</fix>
</trkpt>
<trkpt lat="33.8100749" lon="-118.3941367">
  <ele>-0.109</ele>
  <time>2026-09-02T22:07:22Z</time>
  <course>186.24</course>
  <speed>0.7283543093852057</speed>
  <fix>3d</fix>
</trkpt>
<trkpt lat="33.8100748" lon="-118.3941368">
  <ele>-0.109</ele>
  <time>2026-09-02T22:07:22Z</time>
  <course>186.24</course>
  <speed>0.7283543093852057</speed>
  <fix>3d</fix>
</trkpt>
<trkpt lat="33.8100758" lon="-118.3941353">
  <ele>-0.1</ele>
  <time>2026-09-02T22:07:22Z</time>
  <course>223.26</course>
  <speed>0.73</speed>
  <fix>3d</fix>
</trkpt>
<trkpt lat="33.8100748" lon="-118.3941368">
  <ele>-0.109</ele>
  <time>2026-09-02T22:07:22Z</time>
  <course>186.24</course>
  <speed>0.7283543093852057</speed>
  <fix>3d</fix>
</trkpt>
<trkpt lat="33.8100747" lon="-118.3941369">
  <ele>-0.109</ele>
  <time>2026-09-02T22:07:22Z</time>
  <course>186.24</course>
  <speed>0.7283543093852057</speed>
  <fix>3d</fix>
</trkpt>
<trkpt lat="33.8100747" lon="-118.3941369">
  <ele>-0.109</ele>
  <time>2026-09-02T22:07:22Z</time>
  <course>186.24</course>
  <speed>0.7283543093852057</speed>
  <fix>3d</fix>
</trkpt>
<trkpt lat="33.8100747" lon="-118.394137">
  <ele>-0.109</ele>
  <time>2026-09-02T22:07:22Z</time>
  <course>186.24</course>
  <speed>0.7283543093852057</speed>
  <fix>3d</fix>
</trkpt>
<trkpt lat="33.8100746" lon="-118.394137">
  <ele>-0.109</ele>
  <time>2026-09-02T22:07:22Z</time>
  <course>186.24</course>
  <speed>0.7283543093852057</speed>
  <fix>3d</fix>
</trkpt>
<trkpt lat="33.8100746" lon="-118.3941371">
  <ele>-0.109</ele>
  <time>2026-09-02T22:07:22Z</time>
  <course>186.24</course>
  <speed>0.7283543093852057</speed>
  <fix>3d</fix>
</trkpt>
<trkpt lat="33.8100745" lon="-118.3941371">
  <ele>-0.109</ele>
  <time>2026-09-02T22:07:22Z</time>
  <course>186.24</course>
  <speed>0.7283543093852057</speed>
  <fix>3d</fix>
</trkpt>
<trkpt lat="33.8100745" lon="-118.3941371">
  <ele>-0.109</ele>
  <time>2026-09-02T22:07:22Z</time>
  <course>186.24</course>
  <speed>0.7283543093852057</speed>
  <fix>3d</fix>
</trkpt>
<trkpt lat="33.8100745" lon="-118.3941372">
  <ele>-0.109</ele>
  <time>2026-09-02T22:07:22Z</time>
  <course>186.24</course>
  <speed>0.7283543093852057</speed>
  <fix>3d</fix>
</trkpt>
<trkpt lat="33.8100744" lon="-118.3941373">
  <ele>-0.109</ele>
  <time>2026-09-02T22:07:22Z</time>
  <course>186.24</course>
  <speed>0.7283543093852057</speed>
  <fix>3d</fix>
</trkpt>
<trkpt lat="33.8100744" lon="-118.3941373">
  <ele>-0.109</ele>
  <time>2026-09-02T22:07:22Z</time>
  <course>186.24</course>
  <speed>0.7283543093852057</speed>
  <fix>3d</fix>
</trkpt>
<trkpt lat="33.8100743" lon="-118.3941373">
  <ele>-0.109</ele>
  <time>2026-09-02T22:07:22Z</time>
  <course>186.24</course>
  <speed>0.7283543093852057</speed>
  <fix>3d</fix>
</trkpt>
<trkpt lat="33.8100747" lon="-118.3941364">
  <ele>-0.1</ele>
  <time>2026-09-02T22:07:22Z</time>
  <course>223.26</course>
  <speed>0.73</speed>
  <fix>3d</fix>
</trkpt>
<trkpt lat="33.8100743" lon="-118.3941373">
  <ele>-0.109</ele>
  <time>2026-09-02T22:07:22Z</time>
  <course>186.24</course>
  <speed>0.7283543093852057</speed>
  <fix>3d</fix>
</trkpt>
<trkpt lat="33.8100743" lon="-118.3941374">
  <ele>-0.109</ele>
  <time>2026-09-02T22:07:22Z</time>
  <course>186.24</course>
  <speed>0.7283543093852057</speed>
  <fix>3d</fix>
</trkpt>
<trkpt lat="33.8100742" lon="-118.3941375">
  <ele>-0.109</ele>
  <time>2026-09-02T22:07:22Z</time>
  <course>186.24</course>
  <speed>0.7283543093852057</speed>
  <fix>3d</fix>
</trkpt>
<trkpt lat="33.8100742" lon="-118.3941375">
  <ele>-0.109</ele>
  <time>2026-09-02T22:07:22Z</time>
  <course>186.24</course>
  <speed>0.7283543093852057</speed>
  <fix>3d</fix>
</trkpt>
<trkpt lat="33.8100741" lon="-118.3941376">
  <ele>-0.109</ele>
  <time>2026-09-02T22:07:22Z</time>
  <course>186.24</course>
  <speed>0.7283543093852057</speed>
  <fix>3d</fix>
</trkpt>
<trkpt lat="33.8100741" lon="-118.3941376">
  <ele>-0.109</ele>
  <time>2026-09-02T22:07:22Z</time>
  <course>186.24</course>
  <speed>0.7283543093852057</speed>
  <fix>3d</fix>
</trkpt>
<trkpt lat="33.8100741" lon="-118.3941377">
  <ele>-0.109</ele>
  <time>2026-09-02T22:07:22Z</time>
  <course>186.24</course>
  <speed>0.7283543093852057</speed>
  <fix>3d</fix>
</trkpt>
<trkpt lat="33.810074" lon="-118.3941377">
  <ele>-0.109</ele>
  <time>2026-09-02T22:07:22Z</time>
  <course>186.24</course>
  <speed>0.7283543093852057</speed>
  <fix>3d</fix>
</trkpt>
<trkpt lat="33.810074" lon="-118.3941377">
  <ele>-0.109</ele>
  <time>2026-09-02T22:07:22Z</time>
  <course>186.24</course>
  <speed>0.7283543093852057</speed>
  <fix>3d</fix>
</trkpt>
<trkpt lat="33.8100739" lon="-118.3941378">
  <ele>-0.109</ele>
  <time>2026-09-02T22:07:22Z</time>
  <course>186.24</course>
  <speed>0.7283543093852057</speed>
  <fix>3d</fix>
</trkpt>
<trkpt lat="33.8100739" lon="-118.3941378">
  <ele>-0.109</ele>
  <time>2026-09-02T22:07:22Z</time>
  <course>186.24</course>
  <speed>0.7283543093852057</speed>
  <fix>3d</fix>
</trkpt>
<trkpt lat="33.8100739" lon="-118.3941379">
  <ele>-0.109</ele>
  <time>2026-09-02T22:07:22Z</time>
  <course>186.24</course>
  <speed>0.7283543093852057</speed>
  <fix>3d</fix>
</trkpt>
<trkpt lat="33.8100739" lon="-118.3941379">
  <ele>-0.109</ele>
  <time>2026-09-02T22:07:22Z</time>
  <course>186.24</course>
  <speed>0.7283543093852057</speed>
  <fix>3d</fix>
</trkpt>
<trkpt lat="33.8100747" lon="-118.3941364">
  <ele>-0.1</ele>
  <time>2026-09-02T22:07:22Z</time>
  <course>223.26</course>
  <speed>0.73</speed>
  <fix>3d</fix>
</trkpt>
<trkpt lat="33.8100738" lon="-118.394138">
  <ele>-0.109</ele>
  <time>2026-09-02T22:07:22Z</time>
  <course>186.24</course>
  <speed>0.7283543093852057</speed>
  <fix>3d</fix>
</trkpt>
<trkpt lat="33.8100737" lon="-118.394138">
  <ele>-0.109</ele>
  <time>2026-09-02T22:07:22Z</time>
  <course>186.24</course>
  <speed>0.7283543093852057</speed>
  <fix>3d</fix>
</trkpt>
<trkpt lat="33.8100737" lon="-118.3941381">
  <ele>-0.109</ele>
  <time>2026-09-02T22:07:22Z</time>
  <course>186.24</course>
  <speed>0.7283543093852057</speed>
  <fix>3d</fix>
</trkpt>
<trkpt lat="33.8100737" lon="-118.3941381">
  <ele>-0.109</ele>
  <time>2026-09-02T22:07:22Z</time>
  <course>186.24</course>
  <speed>0.7283543093852057</speed>
  <fix>3d</fix>
</trkpt>
<trkpt lat="33.8100736" lon="-118.3941382">
  <ele>-0.109</ele>
  <time>2026-09-02T22:07:22Z</time>
  <course>186.24</course>
  <speed>0.7283543093852057</speed>
  <fix>3d</fix>
</trkpt>
<trkpt lat="33.8100736" lon="-118.3941382">
  <ele>-0.109</ele>
  <time>2026-09-02T22:07:22Z</time>
  <course>186.24</course>
  <speed>0.7283543093852057</speed>
  <fix>3d</fix>
</trkpt>
<trkpt lat="33.8100735" lon="-118.3941382">
  <ele>-0.109</ele>
  <time>2026-09-02T22:07:22Z</time>
  <course>186.24</course>
  <speed>0.7283543093852057</speed>
  <fix>3d</fix>
</trkpt>
<trkpt lat="33.8100735" lon="-118.3941383">
  <ele>-0.109</ele>
  <time>2026-09-02T22:07:22Z</time>
  <course>186.24</course>
  <speed>0.7283543093852057</speed>
  <fix>3d</fix>
</trkpt>
<trkpt lat="33.8100735" lon="-118.3941383">
  <ele>-0.109</ele>
  <time>2026-09-02T22:07:22Z</time>
  <course>186.24</course>
  <speed>0.7283543093852057</speed>
  <fix>3d</fix>
</trkpt>
<trkpt lat="33.8100734" lon="-118.3941384">
  <ele>-0.109</ele>
  <time>2026-09-02T22:07:22Z</time>
  <course>186.24</course>
  <speed>0.7283543093852057</speed>
  <fix>3d</fix>
</trkpt>
<trkpt lat="33.8100734" lon="-118.3941384">
  <ele>-0.109</ele>
  <time>2026-09-02T22:07:22Z</time>
  <course>186.24</course>
  <speed>0.7283543093852057</speed>
  <fix>3d</fix>
</trkpt>
<trkpt lat="33.8100734" lon="-118.3941384">
  <ele>-0.109</ele>
  <time>2026-09-02T22:07:22Z</time>
  <course>186.24</course>
  <speed>0.7283543093852057</speed>
  <fix>3d</fix>
</trkpt>
<trkpt lat="33.8100738" lon="-118.3941375">
  <ele>-0.1</ele>
  <time>2026-09-02T22:07:22Z</time>
  <course>223.26</course>
  <speed>0.73</speed>
  <fix>3d</fix>
</trkpt>
<trkpt lat="33.8100733" lon="-118.3941385">
  <ele>-0.109</ele>
  <time>2026-09-02T22:07:22Z</time>
  <course>186.24</course>
  <speed>0.7283543093852057</speed>
  <fix>3d</fix>
</trkpt>
<trkpt lat="33.8100732" lon="-118.3941386">
  <ele>-0.109</ele>
  <time>2026-09-02T22:07:22Z</time>
  <course>186.24</course>
  <speed>0.7283543093852057</speed>
  <fix>3d</fix>
</trkpt>
<trkpt lat="33.8100732" lon="-118.3941386">
  <ele>-0.109</ele>
  <time>2026-09-02T22:07:22Z</time>
  <course>186.24</course>
  <speed>0.7283543093852057</speed>
  <fix>3d</fix>
</trkpt>
<trkpt lat="33.8100732" lon="-118.3941387">
  <ele>-0.109</ele>
  <time>2026-09-02T22:07:22Z</time>
  <course>186.24</course>
  <speed>0.7283543093852057</speed>
  <fix>3d</fix>
</trkpt>
<trkpt lat="33.8100731" lon="-118.3941387">
  <ele>-0.109</ele>
  <time>2026-09-02T22:07:22Z</time>
  <course>186.24</course>
  <speed>0.7283543093852057</speed>
  <fix>3d</fix>
</trkpt>
<trkpt lat="33.8100731" lon="-118.3941388">
  <ele>-0.109</ele>
  <time>2026-09-02T22:07:22Z</time>
  <course>186.24</course>
  <speed>0.7283543093852057</speed>
  <fix>3d</fix>
</trkpt>
<trkpt lat="33.810073" lon="-118.3941388">
  <ele>-0.109</ele>
  <time>2026-09-02T22:07:22Z</time>
  <course>186.24</course>
  <speed>0.7283543093852057</speed>
  <fix>3d</fix>
</trkpt>
<trkpt lat="33.810073" lon="-118.3941389">
  <ele>-0.109</ele>
  <time>2026-09-02T22:07:22Z</time>
  <course>186.24</course>
  <speed>0.7283543093852057</speed>
  <fix>3d</fix>
</trkpt>
<trkpt lat="33.8100729" lon="-118.3941389">
  <ele>-0.109</ele>
  <time>2026-09-02T22:07:22Z</time>
  <course>186.24</course>
  <speed>0.7283543093852057</speed>
  <fix>3d</fix>
</trkpt>
<trkpt lat="33.8100729" lon="-118.394139">
  <ele>-0.11</ele>
  <time>2026-09-02T22:07:22Z</time>
  <course>186.24</course>
  <speed>0.7283543093852057</speed>
  <fix>3d</fix>
</trkpt>
<trkpt lat="33.8100729" lon="-118.394139">
  <ele>-0.11</ele>
  <time>2026-09-02T22:07:22Z</time>
  <course>186.24</course>
  <speed>0.7283543093852057</speed>
  <fix>3d</fix>
</trkpt>
<trkpt lat="33.8100738" lon="-118.3941375">
  <ele>-0.1</ele>
  <time>2026-09-02T22:07:22Z</time>
  <course>223.26</course>
  <speed>0.73</speed>
  <fix>3d</fix>
</trkpt>
<trkpt lat="33.8100729" lon="-118.394139">
  <ele>-0.11</ele>
  <time>2026-09-02T22:07:22Z</time>
  <course>186.24</course>
  <speed>0.7283543093852057</speed>
  <fix>3d</fix>
</trkpt>
<trkpt lat="33.8100728" lon="-118.3941391">
  <ele>-0.11</ele>
  <time>2026-09-02T22:07:22Z</time>
  <course>186.24</course>
  <speed>0.7283543093852057</speed>
  <fix>3d</fix>
</trkpt>
<trkpt lat="33.8100728" lon="-118.3941391">
  <ele>-0.11</ele>
  <time>2026-09-02T22:07:22Z</time>
  <course>186.24</course>
  <speed>0.7283543093852057</speed>
  <fix>3d</fix>
</trkpt>
<trkpt lat="33.8100727" lon="-118.3941392">
  <ele>-0.11</ele>
  <time>2026-09-02T22:07:22Z</time>
  <course>186.24</course>
  <speed>0.7283543093852057</speed>
  <fix>3d</fix>
</trkpt>
<trkpt lat="33.8100727" lon="-118.3941392">
  <ele>-0.11</ele>
  <time>2026-09-02T22:07:22Z</time>
  <course>186.24</course>
  <speed>0.7283543093852057</speed>
  <fix>3d</fix>
</trkpt>
<trkpt lat="33.8100727" lon="-118.3941392">
  <ele>-0.11</ele>
  <time>2026-09-02T22:07:22Z</time>
  <course>186.24</course>
  <speed>0.7283543093852057</speed>
  <fix>3d</fix>
</trkpt>
<trkpt lat="33.8100726" lon="-118.3941393">
  <ele>-0.11</ele>
  <time>2026-09-02T22:07:22Z</time>
  <course>186.24</course>
  <speed>0.7283543093852057</speed>
  <fix>3d</fix>
</trkpt>
<trkpt lat="33.8100726" lon="-118.3941393">
  <ele>-0.11</ele>
  <time>2026-09-02T22:07:22Z</time>
  <course>186.24</course>
  <speed>0.7283543093852057</speed>
  <fix>3d</fix>
</trkpt>
<trkpt lat="33.8100725" lon="-118.3941394">
  <ele>-0.111</ele>
  <time>2026-09-02T22:07:22Z</time>
  <course>186.24</course>
  <speed>0.7283543093852057</speed>
  <fix>3d</fix>
</trkpt>
<trkpt lat="33.8100725" lon="-118.3941394">
  <ele>-0.111</ele>
  <time>2026-09-02T22:07:22Z</time>
  <course>186.24</course>
  <speed>0.7283543093852057</speed>
  <fix>3d</fix>
</trkpt>
<trkpt lat="33.8100725" lon="-118.3941395">
  <ele>-0.111</ele>
  <time>2026-09-02T22:07:22Z</time>
  <course>186.24</course>
  <speed>0.7283543093852057</speed>
  <fix>3d</fix>
</trkpt>
<trkpt lat="33.8100724" lon="-118.3941395">
  <ele>-0.111</ele>
  <time>2026-09-02T22:07:22Z</time>
  <course>186.24</course>
  <speed>0.7283543093852057</speed>
  <fix>3d</fix>
</trkpt>
<trkpt lat="33.8100724" lon="-118.3941395">
  <ele>-0.111</ele>
  <time>2026-09-02T22:07:22Z</time>
  <course>186.24</course>
  <speed>0.7283543093852057</speed>
  <fix>3d</fix>
</trkpt>
<trkpt lat="33.8100728" lon="-118.3941386">
  <ele>-0.1</ele>
  <time>2026-09-02T22:07:22Z</time>
  <course>223.26</course>
  <speed>0.73</speed>
  <fix>3d</fix>
</trkpt>
<trkpt lat="33.8100723" lon="-118.3941396">
  <ele>-0.111</ele>
  <time>2026-09-02T22:07:22Z</time>
  <course>186.24</course>
  <speed>0.7283543093852057</speed>
  <fix>3d</fix>
</trkpt>
<trkpt lat="33.8100722" lon="-118.3941397">
  <ele>-0.111</ele>
  <time>2026-09-02T22:07:22Z</time>
  <course>186.24</course>
  <speed>0.7283543093852057</speed>
  <fix>3d</fix>
</trkpt>
<trkpt lat="33.8100722" lon="-118.3941398">
  <ele>-0.111</ele>
  <time>2026-09-02T22:07:22Z</time>
  <course>186.24</course>
  <speed>0.7283543093852057</speed>
  <fix>3d</fix>
</trkpt>
<trkpt lat="33.8100722" lon="-118.3941398">
  <ele>-0.112</ele>
  <time>2026-09-02T22:07:22Z</time>
  <course>186.24</course>
  <speed>0.7283543093852057</speed>
  <fix>3d</fix>
</trkpt>
<trkpt lat="33.8100721" lon="-118.3941398">
  <ele>-0.112</ele>
  <time>2026-09-02T22:07:22Z</time>
  <course>186.24</course>
  <speed>0.7283543093852057</speed>
  <fix>3d</fix>
</trkpt>
<trkpt lat="33.8100721" lon="-118.3941399">
  <ele>-0.112</ele>
  <time>2026-09-02T22:07:22Z</time>
  <course>186.24</course>
  <speed>0.7283543093852057</speed>
  <fix>3d</fix>
</trkpt>
<trkpt lat="33.810072" lon="-118.3941399">
  <ele>-0.112</ele>
  <time>2026-09-02T22:07:22Z</time>
  <course>186.24</course>
  <speed>0.7283543093852057</speed>
  <fix>3d</fix>
</trkpt>
<trkpt lat="33.810072" lon="-118.39414">
  <ele>-0.112</ele>
  <time>2026-09-02T22:07:22Z</time>
  <course>186.24</course>
  <speed>0.7283543093852057</speed>
  <fix>3d</fix>
</trkpt>
<trkpt lat="33.810072" lon="-118.39414">
  <ele>-0.112</ele>
  <time>2026-09-02T22:07:22Z</time>
  <course>186.24</course>
  <speed>0.7283543093852057</speed>
  <fix>3d</fix>
</trkpt>
<trkpt lat="33.8100719" lon="-118.3941401">
  <ele>-0.112</ele>
  <time>2026-09-02T22:07:22Z</time>
  <course>186.24</course>
  <speed>0.7283543093852057</speed>
  <fix>3d</fix>
</trkpt>
<trkpt lat="33.8100728" lon="-118.3941386">
  <ele>-0.1</ele>
  <time>2026-09-02T22:07:22Z</time>
  <course>223.26</course>
  <speed>0.73</speed>
  <fix>3d</fix>
</trkpt>
<trkpt lat="33.8100719" lon="-118.3941401">
  <ele>-0.112</ele>
  <time>2026-09-02T22:07:22Z</time>
  <course>186.24</course>
  <speed>0.7283543093852057</speed>
  <fix>3d</fix>
</trkpt>
<trkpt lat="33.8100718" lon="-118.3941402">
  <ele>-0.113</ele>
  <time>2026-09-02T22:07:22Z</time>
  <course>186.24</course>
  <speed>0.7283543093852057</speed>
  <fix>3d</fix>
</trkpt>
<trkpt lat="33.8100718" lon="-118.3941402">
  <ele>-0.113</ele>
  <time>2026-09-02T22:07:22Z</time>
  <course>186.24</course>
  <speed>0.7283543093852057</speed>
  <fix>3d</fix>
</trkpt>
<trkpt lat="33.8100718" lon="-118.3941403">
  <ele>-0.113</ele>
  <time>2026-09-02T22:07:22Z</time>
  <course>186.24</course>
  <speed>0.7283543093852057</speed>
  <fix>3d</fix>
</trkpt>
<trkpt lat="33.8100717" lon="-118.3941403">
  <ele>-0.113</ele>
  <time>2026-09-02T22:07:22Z</time>
  <course>186.24</course>
  <speed>0.7283543093852057</speed>
  <fix>3d</fix>
</trkpt>
<trkpt lat="33.8100717" lon="-118.3941403">
  <ele>-0.113</ele>
  <time>2026-09-02T22:07:22Z</time>
  <course>186.24</course>
  <speed>0.7283543093852057</speed>
  <fix>3d</fix>
</trkpt>
<trkpt lat="33.8100716" lon="-118.3941404">
  <ele>-0.113</ele>
  <time>2026-09-02T22:07:22Z</time>
  <course>186.24</course>
  <speed>0.7283543093852057</speed>
  <fix>3d</fix>
</trkpt>
<trkpt lat="33.8100716" lon="-118.3941405">
  <ele>-0.113</ele>
  <time>2026-09-02T22:07:22Z</time>
  <course>186.24</course>
  <speed>0.7283543093852057</speed>
  <fix>3d</fix>
</trkpt>
<trkpt lat="33.8100715" lon="-118.3941405">
  <ele>-0.113</ele>
  <time>2026-09-02T22:07:22Z</time>
  <course>186.24</course>
  <speed>0.7283543093852057</speed>
  <fix>3d</fix>
</trkpt>
<trkpt lat="33.8100715" lon="-118.3941406">
  <ele>-0.113</ele>
  <time>2026-09-02T22:07:22Z</time>
  <course>186.24</course>
  <speed>0.7283543093852057</speed>
  <fix>3d</fix>
</trkpt>
<trkpt lat="33.8100714" lon="-118.3941406">
  <ele>-0.113</ele>
  <time>2026-09-02T22:07:22Z</time>
  <course>186.24</course>
  <speed>0.7283543093852057</speed>
  <fix>3d</fix>
</trkpt>
<trkpt lat="33.8100714" lon="-118.3941406">
  <ele>-0.113</ele>
  <time>2026-09-02T22:07:22Z</time>
  <course>186.24</course>
  <speed>0.7283543093852057</speed>
  <fix>3d</fix>
</trkpt>
<trkpt lat="33.8100719" lon="-118.3941397">
  <ele>-0.11</ele>
  <time>2026-09-02T22:07:22Z</time>
  <course>223.26</course>
  <speed>0.73</speed>
  <fix>3d</fix>
</trkpt>
<trkpt lat="33.8100714" lon="-118.3941407">
  <ele>-0.113</ele>
  <time>2026-09-02T22:07:22Z</time>
  <course>186.24</course>
  <speed>0.7283543093852057</speed>
  <fix>3d</fix>
</trkpt>
<trkpt lat="33.8100713" lon="-118.3941407">
  <ele>-0.113</ele>
  <time>2026-09-02T22:07:22Z</time>
  <course>186.24</course>
  <speed>0.7283543093852057</speed>
  <fix>3d</fix>
</trkpt>
<trkpt lat="33.8100713" lon="-118.3941408">
  <ele>-0.113</ele>
  <time>2026-09-02T22:07:22Z</time>
  <course>186.24</course>
  <speed>0.7283543093852057</speed>
  <fix>3d</fix>
</trkpt>
<trkpt lat="33.8100712" lon="-118.3941408">
  <ele>-0.113</ele>
  <time>2026-09-02T22:07:22Z</time>
  <course>186.24</course>
  <speed>0.7283543093852057</speed>
  <fix>3d</fix>
</trkpt>
<trkpt lat="33.8100712" lon="-118.3941409">
  <ele>-0.113</ele>
  <time>2026-09-02T22:07:22Z</time>
  <course>186.24</course>
  <speed>0.7283543093852057</speed>
  <fix>3d</fix>
</trkpt>
<trkpt lat="33.8100712" lon="-118.3941409">
  <ele>-0.113</ele>
  <time>2026-09-02T22:07:22Z</time>
  <course>186.24</course>
  <speed>0.7283543093852057</speed>
  <fix>3d</fix>
</trkpt>
<trkpt lat="33.8100711" lon="-118.394141">
  <ele>-0.113</ele>
  <time>2026-09-02T22:07:22Z</time>
  <course>186.24</course>
  <speed>0.7283543093852057</speed>
  <fix>3d</fix>
</trkpt>
<trkpt lat="33.8100711" lon="-118.394141">
  <ele>-0.113</ele>
  <time>2026-09-02T22:07:22Z</time>
  <course>186.24</course>
  <speed>0.7283543093852057</speed>
  <fix>3d</fix>
</trkpt>
<trkpt lat="33.8100711" lon="-118.3941411">
  <ele>-0.113</ele>
  <time>2026-09-02T22:07:22Z</time>
  <course>186.24</course>
  <speed>0.7283543093852057</speed>
  <fix>3d</fix>
</trkpt>
<trkpt lat="33.810071" lon="-118.3941411">
  <ele>-0.114</ele>
  <time>2026-09-02T22:07:22Z</time>
  <course>186.24</course>
  <speed>0.7283543093852057</speed>
  <fix>3d</fix>
</trkpt>
<trkpt lat="33.810071" lon="-118.3941411">
  <ele>-0.114</ele>
  <time>2026-09-02T22:07:22Z</time>
  <course>186.24</course>
  <speed>0.7283543093852057</speed>
  <fix>3d</fix>
</trkpt>
<trkpt lat="33.810071" lon="-118.3941412">
  <ele>-0.114</ele>
  <time>2026-09-02T22:07:22Z</time>
  <course>186.24</course>
  <speed>0.7283543093852057</speed>
  <fix>3d</fix>
</trkpt>
<trkpt lat="33.8100719" lon="-118.3941397">
  <ele>-0.11</ele>
  <time>2026-09-02T22:07:22Z</time>
  <course>223.26</course>
  <speed>0.73</speed>
  <fix>3d</fix>
</trkpt>
<trkpt lat="33.8100709" lon="-118.3941412">
  <ele>-0.114</ele>
  <time>2026-09-02T22:07:22Z</time>
  <course>186.24</course>
  <speed>0.7283543093852057</speed>
  <fix>3d</fix>
</trkpt>
<trkpt lat="33.8100708" lon="-118.3941413">
  <ele>-0.114</ele>
  <time>2026-09-02T22:07:22Z</time>
  <course>186.24</course>
  <speed>0.7283543093852057</speed>
  <fix>3d</fix>
</trkpt>
<trkpt lat="33.8100708" lon="-118.3941413">
  <ele>-0.114</ele>
  <time>2026-09-02T22:07:22Z</time>
  <course>186.24</course>
  <speed>0.7283543093852057</speed>
  <fix>3d</fix>
</trkpt>
<trkpt lat="33.8100708" lon="-118.3941414">
  <ele>-0.114</ele>
  <time>2026-09-02T22:07:22Z</time>
  <course>186.24</course>
  <speed>0.7283543093852057</speed>
  <fix>3d</fix>
</trkpt>
<trkpt lat="33.8100707" lon="-118.3941414">
  <ele>-0.114</ele>
  <time>2026-09-02T22:07:22Z</time>
  <course>186.24</course>
  <speed>0.7283543093852057</speed>
  <fix>3d</fix>
</trkpt>
<trkpt lat="33.8100707" lon="-118.3941415">
  <ele>-0.114</ele>
  <time>2026-09-02T22:07:22Z</time>
  <course>186.24</course>
  <speed>0.7283543093852057</speed>
  <fix>3d</fix>
</trkpt>
<trkpt lat="33.8100706" lon="-118.3941415">
  <ele>-0.114</ele>
  <time>2026-09-02T22:07:22Z</time>
  <course>186.24</course>
  <speed>0.7283543093852057</speed>
  <fix>3d</fix>
</trkpt>
<trkpt lat="33.8100706" lon="-118.3941416">
  <ele>-0.114</ele>
  <time>2026-09-02T22:07:22Z</time>
  <course>186.24</course>
  <speed>0.7283543093852057</speed>
  <fix>3d</fix>
</trkpt>
<trkpt lat="33.8100705" lon="-118.3941416">
  <ele>-0.114</ele>
  <time>2026-09-02T22:07:22Z</time>
  <course>186.24</course>
  <speed>0.7283543093852057</speed>
  <fix>3d</fix>
</trkpt>
<trkpt lat="33.8100705" lon="-118.3941417">
  <ele>-0.114</ele>
  <time>2026-09-02T22:07:22Z</time>
  <course>186.24</course>
  <speed>0.7283543093852057</speed>
  <fix>3d</fix>
</trkpt>
<trkpt lat="33.8100705" lon="-118.3941417">
  <ele>-0.114</ele>
  <time>2026-09-02T22:07:22Z</time>
  <course>186.24</course>
  <speed>0.7283543093852057</speed>
  <fix>3d</fix>
</trkpt>
<trkpt lat="33.810071" lon="-118.3941407">
  <ele>-0.1</ele>
  <time>2026-09-02T22:07:22Z</time>
  <course>223.26</course>
  <speed>0.73</speed>
  <fix>3d</fix>
</trkpt>
<trkpt lat="33.8100705" lon="-118.3941417">
  <ele>-0.114</ele>
  <time>2026-09-02T22:07:22Z</time>
  <course>186.24</course>
  <speed>0.7283543093852057</speed>
  <fix>3d</fix>
</trkpt>
<trkpt lat="33.8100704" lon="-118.3941418">
  <ele>-0.114</ele>
  <time>2026-09-02T22:07:22Z</time>
  <course>186.24</course>
  <speed>0.7283543093852057</speed>
  <fix>3d</fix>
</trkpt>
<trkpt lat="33.8100703" lon="-118.3941419">
  <ele>-0.114</ele>
  <time>2026-09-02T22:07:22Z</time>
  <course>186.24</course>
  <speed>0.7283543093852057</speed>
  <fix>3d</fix>
</trkpt>
<trkpt lat="33.8100703" lon="-118.3941419">
  <ele>-0.114</ele>
  <time>2026-09-02T22:07:22Z</time>
  <course>186.24</course>
  <speed>0.7283543093852057</speed>
  <fix>3d</fix>
</trkpt>
<trkpt lat="33.8100703" lon="-118.3941419">
  <ele>-0.114</ele>
  <time>2026-09-02T22:07:22Z</time>
  <course>186.24</course>
  <speed>0.7283543093852057</speed>
  <fix>3d</fix>
</trkpt>
<trkpt lat="33.8100702" lon="-118.394142">
  <ele>-0.114</ele>
  <time>2026-09-02T22:07:22Z</time>
  <course>186.24</course>
  <speed>0.7283543093852057</speed>
  <fix>3d</fix>
</trkpt>
<trkpt lat="33.8100702" lon="-118.394142">
  <ele>-0.114</ele>
  <time>2026-09-02T22:07:22Z</time>
  <course>186.24</course>
  <speed>0.7283543093852057</speed>
  <fix>3d</fix>
</trkpt>
<trkpt lat="33.8100702" lon="-118.3941421">
  <ele>-0.114</ele>
  <time>2026-09-02T22:07:22Z</time>
  <course>186.24</course>
  <speed>0.7283543093852057</speed>
  <fix>3d</fix>
</trkpt>
<trkpt lat="33.8100701" lon="-118.3941421">
  <ele>-0.114</ele>
  <time>2026-09-02T22:07:22Z</time>
  <course>186.24</course>
  <speed>0.7283543093852057</speed>
  <fix>3d</fix>
</trkpt>
<trkpt lat="33.8100701" lon="-118.3941421">
  <ele>-0.114</ele>
  <time>2026-09-02T22:07:22Z</time>
  <course>186.24</course>
  <speed>0.7283543093852057</speed>
  <fix>3d</fix>
</trkpt>
<trkpt lat="33.81007" lon="-118.3941422">
  <ele>-0.114</ele>
  <time>2026-09-02T22:07:22Z</time>
  <course>186.24</course>
  <speed>0.7283543093852057</speed>
  <fix>3d</fix>
</trkpt>
<trkpt lat="33.81007" lon="-118.3941423">
  <ele>-0.114</ele>
  <time>2026-09-02T22:07:22Z</time>
  <course>186.24</course>
  <speed>0.7283543093852057</speed>
  <fix>3d</fix>
</trkpt>
<trkpt lat="33.81007" lon="-118.3941423">
  <ele>-0.114</ele>
  <time>2026-09-02T22:07:22Z</time>
  <course>186.24</course>
  <speed>0.7283543093852057</speed>
  <fix>3d</fix>
</trkpt>
<trkpt lat="33.810071" lon="-118.3941407">
  <ele>-0.1</ele>
  <time>2026-09-02T22:07:22Z</time>
  <course>223.26</course>
  <speed>0.73</speed>
  <fix>3d</fix>
</trkpt>
<trkpt lat="33.8100699" lon="-118.3941424">
  <ele>-0.114</ele>
  <time>2026-09-02T22:07:22Z</time>
  <course>186.24</course>
  <speed>0.7283543093852057</speed>
  <fix>3d</fix>
</trkpt>
<trkpt lat="33.8100699" lon="-118.3941424">
  <ele>-0.115</ele>
  <time>2026-09-02T22:07:22Z</time>
  <course>186.24</course>
  <speed>0.7283543093852057</speed>
  <fix>3d</fix>
</trkpt>
<trkpt lat="33.8100698" lon="-118.3941425">
  <ele>-0.115</ele>
  <time>2026-09-02T22:07:22Z</time>
  <course>186.24</course>
  <speed>0.7283543093852057</speed>
  <fix>3d</fix>
</trkpt>
<trkpt lat="33.8100698" lon="-118.3941425">
  <ele>-0.115</ele>
  <time>2026-09-02T22:07:22Z</time>
  <course>186.24</course>
  <speed>0.7283543093852057</speed>
  <fix>3d</fix>
</trkpt>
<trkpt lat="33.8100697" lon="-118.3941426">
  <ele>-0.115</ele>
  <time>2026-09-02T22:07:22Z</time>
  <course>186.24</course>
  <speed>0.7283543093852057</speed>
  <fix>3d</fix>
</trkpt>
<trkpt lat="33.8100697" lon="-118.3941426">
  <ele>-0.115</ele>
  <time>2026-09-02T22:07:22Z</time>
  <course>186.24</course>
  <speed>0.7283543093852057</speed>
  <fix>3d</fix>
</trkpt>
<trkpt lat="33.8100697" lon="-118.3941426">
  <ele>-0.115</ele>
  <time>2026-09-02T22:07:22Z</time>
  <course>186.24</course>
  <speed>0.7283543093852057</speed>
  <fix>3d</fix>
</trkpt>
<trkpt lat="33.8100696" lon="-118.3941427">
  <ele>-0.115</ele>
  <time>2026-09-02T22:07:22Z</time>
  <course>186.24</course>
  <speed>0.7283543093852057</speed>
  <fix>3d</fix>
</trkpt>
<trkpt lat="33.8100696" lon="-118.3941427">
  <ele>-0.115</ele>
  <time>2026-09-02T22:07:22Z</time>
  <course>186.24</course>
  <speed>0.7283543093852057</speed>
  <fix>3d</fix>
</trkpt>
<trkpt lat="33.8100695" lon="-118.3941428">
  <ele>-0.115</ele>
  <time>2026-09-02T22:07:22Z</time>
  <course>186.24</course>
  <speed>0.7283543093852057</speed>
  <fix>3d</fix>
</trkpt>
<trkpt lat="33.8100695" lon="-118.3941428">
  <ele>-0.115</ele>
  <time>2026-09-02T22:07:22Z</time>
  <course>186.24</course>
  <speed>0.7283543093852057</speed>
  <fix>3d</fix>
</trkpt>
<trkpt lat="33.8100699" lon="-118.3941418">
  <ele>-0.1</ele>
  <time>2026-09-02T22:07:22Z</time>
  <course>223.26</course>
  <speed>0.73</speed>
  <fix>3d</fix>
</trkpt>
<trkpt lat="33.8100695" lon="-118.3941428">
  <ele>-0.115</ele>
  <time>2026-09-02T22:07:22Z</time>
  <course>186.24</course>
  <speed>0.7283543093852057</speed>
  <fix>3d</fix>
</trkpt>
<trkpt lat="33.8100694" lon="-118.3941429">
  <ele>-0.115</ele>
  <time>2026-09-02T22:07:22Z</time>
  <course>186.24</course>
  <speed>0.7283543093852057</speed>
  <fix>3d</fix>
</trkpt>
<trkpt lat="33.8100694" lon="-118.3941429">
  <ele>-0.115</ele>
  <time>2026-09-02T22:07:22Z</time>
  <course>186.24</course>
  <speed>0.7283543093852057</speed>
  <fix>3d</fix>
</trkpt>
<trkpt lat="33.8100693" lon="-118.394143">
  <ele>-0.115</ele>
  <time>2026-09-02T22:07:22Z</time>
  <course>186.24</course>
  <speed>0.7283543093852057</speed>
  <fix>3d</fix>
</trkpt>
<trkpt lat="33.8100693" lon="-118.394143">
  <ele>-0.115</ele>
  <time>2026-09-02T22:07:22Z</time>
  <course>186.24</course>
  <speed>0.7283543093852057</speed>
  <fix>3d</fix>
</trkpt>
<trkpt lat="33.8100693" lon="-118.3941431">
  <ele>-0.115</ele>
  <time>2026-09-02T22:07:22Z</time>
  <course>186.24</course>
  <speed>0.7283543093852057</speed>
  <fix>3d</fix>
</trkpt>
<trkpt lat="33.8100692" lon="-118.3941431">
  <ele>-0.115</ele>
  <time>2026-09-02T22:07:22Z</time>
  <course>186.24</course>
  <speed>0.7283543093852057</speed>
  <fix>3d</fix>
</trkpt>
<trkpt lat="33.8100692" lon="-118.3941432">
  <ele>-0.115</ele>
  <time>2026-09-02T22:07:22Z</time>
  <course>186.24</course>
  <speed>0.7283543093852057</speed>
  <fix>3d</fix>
</trkpt>
<trkpt lat="33.8100691" lon="-118.3941432">
  <ele>-0.115</ele>
  <time>2026-09-02T22:07:22Z</time>
  <course>186.24</course>
  <speed>0.7283543093852057</speed>
  <fix>3d</fix>
</trkpt>
<trkpt lat="33.8100691" lon="-118.3941433">
  <ele>-0.115</ele>
  <time>2026-09-02T22:07:22Z</time>
  <course>186.24</course>
  <speed>0.7283543093852057</speed>
  <fix>3d</fix>
</trkpt>
<trkpt lat="33.810069" lon="-118.3941433">
  <ele>-0.115</ele>
  <time>2026-09-02T22:07:22Z</time>
  <course>186.24</course>
  <speed>0.7283543093852057</speed>
  <fix>3d</fix>
</trkpt>
<trkpt lat="33.810069" lon="-118.3941433">
  <ele>-0.115</ele>
  <time>2026-09-02T22:07:22Z</time>
  <course>186.24</course>
  <speed>0.7283543093852057</speed>
  <fix>3d</fix>
</trkpt>
<trkpt lat="33.8100699" lon="-118.3941418">
  <ele>-0.1</ele>
  <time>2026-09-02T22:07:22Z</time>
  <course>223.26</course>
  <speed>0.73</speed>
  <fix>3d</fix>
</trkpt>
<trkpt lat="33.8100689" lon="-118.3941435">
  <ele>-0.115</ele>
  <time>2026-09-02T22:07:22Z</time>
  <course>186.24</course>
  <speed>0.7283543093852057</speed>
  <fix>3d</fix>
</trkpt>
<trkpt lat="33.8100689" lon="-118.3941435">
  <ele>-0.115</ele>
  <time>2026-09-02T22:07:22Z</time>
  <course>186.24</course>
  <speed>0.7283543093852057</speed>
  <fix>3d</fix>
</trkpt>
<trkpt lat="33.8100688" lon="-118.3941436">
  <ele>-0.115</ele>
  <time>2026-09-02T22:07:22Z</time>
  <course>186.24</course>
  <speed>0.7283543093852057</speed>
  <fix>3d</fix>
</trkpt>
<trkpt lat="33.8100688" lon="-118.3941436">
  <ele>-0.115</ele>
  <time>2026-09-02T22:07:22Z</time>
  <course>186.24</course>
  <speed>0.7283543093852057</speed>
  <fix>3d</fix>
</trkpt>
<trkpt lat="33.8100688" lon="-118.3941436">
  <ele>-0.115</ele>
  <time>2026-09-02T22:07:22Z</time>
  <course>186.24</course>
  <speed>0.7283543093852057</speed>
  <fix>3d</fix>
</trkpt>
<trkpt lat="33.8100687" lon="-118.3941437">
  <ele>-0.115</ele>
  <time>2026-09-02T22:07:22Z</time>
  <course>186.24</course>
  <speed>0.7283543093852057</speed>
  <fix>3d</fix>
</trkpt>
<trkpt lat="33.8100687" lon="-118.3941438">
  <ele>-0.114</ele>
  <time>2026-09-02T22:07:22Z</time>
  <course>186.24</course>
  <speed>0.7283543093852057</speed>
  <fix>3d</fix>
</trkpt>
<trkpt lat="33.8100686" lon="-118.3941438">
  <ele>-0.115</ele>
  <time>2026-09-02T22:07:22Z</time>
  <course>186.24</course>
  <speed>0.7283543093852057</speed>
  <fix>3d</fix>
</trkpt>
<trkpt lat="33.8100686" lon="-118.3941438">
  <ele>-0.114</ele>
  <time>2026-09-02T22:07:22Z</time>
  <course>186.24</course>
  <speed>0.7283543093852057</speed>
  <fix>3d</fix>
</trkpt>
<trkpt lat="33.8100685" lon="-118.3941439">
  <ele>-0.114</ele>
  <time>2026-09-02T22:07:22Z</time>
  <course>186.24</course>
  <speed>0.7283543093852057</speed>
  <fix>3d</fix>
</trkpt>
<trkpt lat="33.8100685" lon="-118.3941439">
  <ele>-0.114</ele>
  <time>2026-09-02T22:07:22Z</time>
  <course>186.24</course>
  <speed>0.7283543093852057</speed>
  <fix>3d</fix>
</trkpt>
<trkpt lat="33.810069" lon="-118.3941429">
  <ele>-0.1</ele>
  <time>2026-09-02T22:07:22Z</time>
  <course>223.26</course>
  <speed>0.73</speed>
  <fix>3d</fix>
</trkpt>
<trkpt lat="33.8100684" lon="-118.394144">
  <ele>-0.114</ele>
  <time>2026-09-02T22:07:22Z</time>
  <course>186.24</course>
  <speed>0.7283543093852057</speed>
  <fix>3d</fix>
</trkpt>
<trkpt lat="33.8100684" lon="-118.394144">
  <ele>-0.114</ele>
  <time>2026-09-02T22:07:22Z</time>
  <course>186.24</course>
  <speed>0.7283543093852057</speed>
  <fix>3d</fix>
</trkpt>
<trkpt lat="33.8100684" lon="-118.3941441">
  <ele>-0.114</ele>
  <time>2026-09-02T22:07:22Z</time>
  <course>186.24</course>
  <speed>0.7283543093852057</speed>
  <fix>3d</fix>
</trkpt>
<trkpt lat="33.8100683" lon="-118.3941441">
  <ele>-0.114</ele>
  <time>2026-09-02T22:07:22Z</time>
  <course>186.24</course>
  <speed>0.7283543093852057</speed>
  <fix>3d</fix>
</trkpt>
<trkpt lat="33.8100683" lon="-118.3941442">
  <ele>-0.114</ele>
  <time>2026-09-02T22:07:22Z</time>
  <course>186.24</course>
  <speed>0.7283543093852057</speed>
  <fix>3d</fix>
</trkpt>
<trkpt lat="33.8100682" lon="-118.3941442">
  <ele>-0.114</ele>
  <time>2026-09-02T22:07:22Z</time>
  <course>186.24</course>
  <speed>0.7283543093852057</speed>
  <fix>3d</fix>
</trkpt>
<trkpt lat="33.8100682" lon="-118.3941443">
  <ele>-0.114</ele>
  <time>2026-09-02T22:07:22Z</time>
  <course>186.24</course>
  <speed>0.7283543093852057</speed>
  <fix>3d</fix>
</trkpt>
<trkpt lat="33.8100681" lon="-118.3941443">
  <ele>-0.114</ele>
  <time>2026-09-02T22:07:22Z</time>
  <course>186.24</course>
  <speed>0.7283543093852057</speed>
  <fix>3d</fix>
</trkpt>
<trkpt lat="33.8100681" lon="-118.3941444">
  <ele>-0.114</ele>
  <time>2026-09-02T22:07:22Z</time>
  <course>186.24</course>
  <speed>0.7283543093852057</speed>
  <fix>3d</fix>
</trkpt>
<trkpt lat="33.8100681" lon="-118.3941444">
  <ele>-0.113</ele>
  <time>2026-09-02T22:07:22Z</time>
  <course>186.24</course>
  <speed>0.7283543093852057</speed>
  <fix>3d</fix>
</trkpt>
<trkpt lat="33.8100681" lon="-118.3941444">
  <ele>-0.113</ele>
  <time>2026-09-02T22:07:22Z</time>
  <course>186.24</course>
  <speed>0.7283543093852057</speed>
  <fix>3d</fix>
</trkpt>
<trkpt lat="33.810069" lon="-118.3941429">
  <ele>-0.1</ele>
  <time>2026-09-02T22:07:22Z</time>
  <course>223.26</course>
  <speed>0.73</speed>
  <fix>3d</fix>
</trkpt>
<trkpt lat="33.810068" lon="-118.3941445">
  <ele>-0.113</ele>
  <time>2026-09-02T22:07:22Z</time>
  <course>186.24</course>
  <speed>0.7283543093852057</speed>
  <fix>3d</fix>
</trkpt>
<trkpt lat="33.810068" lon="-118.3941446">
  <ele>-0.113</ele>
  <time>2026-09-02T22:07:22Z</time>
  <course>186.24</course>
  <speed>0.7283543093852057</speed>
  <fix>3d</fix>
</trkpt>
<trkpt lat="33.8100679" lon="-118.3941446">
  <ele>-0.113</ele>
  <time>2026-09-02T22:07:22Z</time>
  <course>186.24</course>
  <speed>0.7283543093852057</speed>
  <fix>3d</fix>
</trkpt>
<trkpt lat="33.8100679" lon="-118.3941447">
  <ele>-0.113</ele>
  <time>2026-09-02T22:07:22Z</time>
  <course>186.24</course>
  <speed>0.7283543093852057</speed>
  <fix>3d</fix>
</trkpt>
<trkpt lat="33.8100678" lon="-118.3941447">
  <ele>-0.113</ele>
  <time>2026-09-02T22:07:22Z</time>
  <course>186.24</course>
  <speed>0.7283543093852057</speed>
  <fix>3d</fix>
</trkpt>
<trkpt lat="33.8100678" lon="-118.3941447">
  <ele>-0.113</ele>
  <time>2026-09-02T22:07:22Z</time>
  <course>186.24</course>
  <speed>0.7283543093852057</speed>
  <fix>3d</fix>
</trkpt>
<trkpt lat="33.8100677" lon="-118.3941448">
  <ele>-0.113</ele>
  <time>2026-09-02T22:07:22Z</time>
  <course>186.24</course>
  <speed>0.7283543093852057</speed>
  <fix>3d</fix>
</trkpt>
<trkpt lat="33.8100677" lon="-118.3941448">
  <ele>-0.113</ele>
  <time>2026-09-02T22:07:22Z</time>
  <course>186.24</course>
  <speed>0.7283543093852057</speed>
  <fix>3d</fix>
</trkpt>
<trkpt lat="33.8100676" lon="-118.3941449">
  <ele>-0.113</ele>
  <time>2026-09-02T22:07:22Z</time>
  <course>186.24</course>
  <speed>0.7283543093852057</speed>
  <fix>3d</fix>
</trkpt>
<trkpt lat="33.8100676" lon="-118.3941449">
  <ele>-0.113</ele>
  <time>2026-09-02T22:07:22Z</time>
  <course>186.24</course>
  <speed>0.7283543093852057</speed>
  <fix>3d</fix>
</trkpt>
<trkpt lat="33.8100676" lon="-118.394145">
  <ele>-0.113</ele>
  <time>2026-09-02T22:07:22Z</time>
  <course>186.24</course>
  <speed>0.7283543093852057</speed>
  <fix>3d</fix>
</trkpt>
<trkpt lat="33.810068" lon="-118.394144">
  <ele>-0.1</ele>
  <time>2026-09-02T22:07:22Z</time>
  <course>223.26</course>
  <speed>0.73</speed>
  <fix>3d</fix>
</trkpt>
<trkpt lat="33.8100676" lon="-118.394145">
  <ele>-0.113</ele>
  <time>2026-09-02T22:07:22Z</time>
  <course>186.24</course>
  <speed>0.7283543093852057</speed>
  <fix>3d</fix>
</trkpt>
<trkpt lat="33.8100675" lon="-118.3941451">
  <ele>-0.113</ele>
  <time>2026-09-02T22:07:22Z</time>
  <course>186.24</course>
  <speed>0.7283543093852057</speed>
  <fix>3d</fix>
</trkpt>
<trkpt lat="33.8100674" lon="-118.3941451">
  <ele>-0.113</ele>
  <time>2026-09-02T22:07:22Z</time>
  <course>186.24</course>
  <speed>0.7283543093852057</speed>
  <fix>3d</fix>
</trkpt>
<trkpt lat="33.8100674" lon="-118.3941452">
  <ele>-0.113</ele>
  <time>2026-09-02T22:07:22Z</time>
  <course>186.24</course>
  <speed>0.7283543093852057</speed>
  <fix>3d</fix>
</trkpt>
<trkpt lat="33.8100674" lon="-118.3941452">
  <ele>-0.113</ele>
  <time>2026-09-02T22:07:22Z</time>
  <course>186.24</course>
  <speed>0.7283543093852057</speed>
  <fix>3d</fix>
</trkpt>
<trkpt lat="33.8100673" lon="-118.3941453">
  <ele>-0.113</ele>
  <time>2026-09-02T22:07:22Z</time>
  <course>186.24</course>
  <speed>0.7283543093852057</speed>
  <fix>3d</fix>
</trkpt>
<trkpt lat="33.8100673" lon="-118.3941453">
  <ele>-0.113</ele>
  <time>2026-09-02T22:07:22Z</time>
  <course>186.24</course>
  <speed>0.7283543093852057</speed>
  <fix>3d</fix>
</trkpt>
<trkpt lat="33.8100672" lon="-118.3941453">
  <ele>-0.113</ele>
  <time>2026-09-02T22:07:22Z</time>
  <course>186.24</course>
  <speed>0.7283543093852057</speed>
  <fix>3d</fix>
</trkpt>
<trkpt lat="33.8100672" lon="-118.3941454">
  <ele>-0.113</ele>
  <time>2026-09-02T22:07:22Z</time>
  <course>186.24</course>
  <speed>0.7283543093852057</speed>
  <fix>3d</fix>
</trkpt>
<trkpt lat="33.8100672" lon="-118.3941454">
  <ele>-0.113</ele>
  <time>2026-09-02T22:07:22Z</time>
  <course>186.24</course>
  <speed>0.7283543093852057</speed>
  <fix>3d</fix>
</trkpt>
<trkpt lat="33.8100671" lon="-118.3941455">
  <ele>-0.113</ele>
  <time>2026-09-02T22:07:22Z</time>
  <course>186.24</course>
  <speed>0.7283543093852057</speed>
  <fix>3d</fix>
</trkpt>
<trkpt lat="33.8100671" lon="-118.3941455">
  <ele>-0.113</ele>
  <time>2026-09-02T22:07:22Z</time>
  <course>186.24</course>
  <speed>0.7283543093852057</speed>
  <fix>3d</fix>
</trkpt>
<trkpt lat="33.810068" lon="-118.394144">
  <ele>-0.1</ele>
  <time>2026-09-02T22:07:22Z</time>
  <course>223.26</course>
  <speed>0.73</speed>
  <fix>3d</fix>
</trkpt>
<trkpt lat="33.8100671" lon="-118.3941455">
  <ele>-0.113</ele>
  <time>2026-09-02T22:07:22Z</time>
  <course>186.24</course>
  <speed>0.7283543093852057</speed>
  <fix>3d</fix>
</trkpt>
<trkpt lat="33.810067" lon="-118.3941456">
  <ele>-0.113</ele>
  <time>2026-09-02T22:07:22Z</time>
  <course>186.24</course>
  <speed>0.7283543093852057</speed>
  <fix>3d</fix>
</trkpt>
<trkpt lat="33.8100669" lon="-118.3941457">
  <ele>-0.113</ele>
  <time>2026-09-02T22:07:22Z</time>
  <course>186.24</course>
  <speed>0.7283543093852057</speed>
  <fix>3d</fix>
</trkpt>
<trkpt lat="33.8100669" lon="-118.3941457">
  <ele>-0.113</ele>
  <time>2026-09-02T22:07:22Z</time>
  <course>186.24</course>
  <speed>0.7283543093852057</speed>
  <fix>3d</fix>
</trkpt>
<trkpt lat="33.8100669" lon="-118.3941458">
  <ele>-0.113</ele>
  <time>2026-09-02T22:07:22Z</time>
  <course>186.24</course>
  <speed>0.7283543093852057</speed>
  <fix>3d</fix>
</trkpt>
<trkpt lat="33.8100668" lon="-118.3941458">
  <ele>-0.113</ele>
  <time>2026-09-02T22:07:22Z</time>
  <course>186.24</course>
  <speed>0.7283543093852057</speed>
  <fix>3d</fix>
</trkpt>
<trkpt lat="33.8100668" lon="-118.3941459">
  <ele>-0.113</ele>
  <time>2026-09-02T22:07:22Z</time>
  <course>186.24</course>
  <speed>0.7283543093852057</speed>
  <fix>3d</fix>
</trkpt>
<trkpt lat="33.8100667" lon="-118.3941459">
  <ele>-0.113</ele>
  <time>2026-09-02T22:07:22Z</time>
  <course>186.24</course>
  <speed>0.7283543093852057</speed>
  <fix>3d</fix>
</trkpt>
<trkpt lat="33.8100667" lon="-118.394146">
  <ele>-0.113</ele>
  <time>2026-09-02T22:07:22Z</time>
  <course>186.24</course>
  <speed>0.7283543093852057</speed>
  <fix>3d</fix>
</trkpt>
<trkpt lat="33.8100666" lon="-118.394146">
  <ele>-0.113</ele>
  <time>2026-09-02T22:07:22Z</time>
  <course>186.24</course>
  <speed>0.7283543093852057</speed>
  <fix>3d</fix>
</trkpt>
<trkpt lat="33.8100666" lon="-118.3941461">
  <ele>-0.113</ele>
  <time>2026-09-02T22:07:22Z</time>
  <course>186.24</course>
  <speed>0.7283543093852057</speed>
  <fix>3d</fix>
</trkpt>
<trkpt lat="33.8100671" lon="-118.3941451">
  <ele>-0.11</ele>
  <time>2026-09-02T22:07:22Z</time>
  <course>223.26</course>
  <speed>0.73</speed>
  <fix>3d</fix>
</trkpt>
<trkpt lat="33.8100666" lon="-118.3941461">
  <ele>-0.113</ele>
  <time>2026-09-02T22:07:22Z</time>
  <course>186.24</course>
  <speed>0.7283543093852057</speed>
  <fix>3d</fix>
</trkpt>
<trkpt lat="33.8100665" lon="-118.3941462">
  <ele>-0.113</ele>
  <time>2026-09-02T22:07:22Z</time>
  <course>186.24</course>
  <speed>0.7283543093852057</speed>
  <fix>3d</fix>
</trkpt>
<trkpt lat="33.8100665" lon="-118.3941462">
  <ele>-0.113</ele>
  <time>2026-09-02T22:07:22Z</time>
  <course>186.24</course>
  <speed>0.7283543093852057</speed>
  <fix>3d</fix>
</trkpt>
<trkpt lat="33.8100664" lon="-118.3941463">
  <ele>-0.113</ele>
  <time>2026-09-02T22:07:22Z</time>
  <course>186.24</course>
  <speed>0.7283543093852057</speed>
  <fix>3d</fix>
</trkpt>
<trkpt lat="33.8100664" lon="-118.3941463">
  <ele>-0.113</ele>
  <time>2026-09-02T22:07:22Z</time>
  <course>186.24</course>
  <speed>0.7283543093852057</speed>
  <fix>3d</fix>
</trkpt>
<trkpt lat="33.8100663" lon="-118.3941464">
  <ele>-0.113</ele>
  <time>2026-09-02T22:07:22Z</time>
  <course>186.24</course>
  <speed>0.7283543093852057</speed>
  <fix>3d</fix>
</trkpt>
<trkpt lat="33.8100663" lon="-118.3941464">
  <ele>-0.112</ele>
  <time>2026-09-02T22:07:22Z</time>
  <course>186.24</course>
  <speed>0.7283543093852057</speed>
  <fix>3d</fix>
</trkpt>
<trkpt lat="33.8100663" lon="-118.3941465">
  <ele>-0.112</ele>
  <time>2026-09-02T22:07:22Z</time>
  <course>186.24</course>
  <speed>0.7283543093852057</speed>
  <fix>3d</fix>
</trkpt>
<trkpt lat="33.8100662" lon="-118.3941465">
  <ele>-0.112</ele>
  <time>2026-09-02T22:07:22Z</time>
  <course>186.24</course>
  <speed>0.7283543093852057</speed>
  <fix>3d</fix>
</trkpt>
<trkpt lat="33.8100662" lon="-118.3941466">
  <ele>-0.112</ele>
  <time>2026-09-02T22:07:22Z</time>
  <course>186.24</course>
  <speed>0.7283543093852057</speed>
  <fix>3d</fix>
</trkpt>
<trkpt lat="33.8100661" lon="-118.3941466">
  <ele>-0.112</ele>
  <time>2026-09-02T22:07:22Z</time>
  <course>186.24</course>
  <speed>0.7283543093852057</speed>
  <fix>3d</fix>
</trkpt>
<trkpt lat="33.8100661" lon="-118.3941466">
  <ele>-0.112</ele>
  <time>2026-09-02T22:07:22Z</time>
  <course>186.24</course>
  <speed>0.7283543093852057</speed>
  <fix>3d</fix>
</trkpt>
<trkpt lat="33.8100671" lon="-118.3941451">
  <ele>-0.11</ele>
  <time>2026-09-02T22:07:22Z</time>
  <course>223.26</course>
  <speed>0.73</speed>
  <fix>3d</fix>
</trkpt>
<trkpt lat="33.8100661" lon="-118.3941466">
  <ele>-0.112</ele>
  <time>2026-09-02T22:07:22Z</time>
  <course>186.24</course>
  <speed>0.7283543093852057</speed>
  <fix>3d</fix>
</trkpt>
<trkpt lat="33.810066" lon="-118.3941467">
  <ele>-0.112</ele>
  <time>2026-09-02T22:07:22Z</time>
  <course>186.24</course>
  <speed>0.7283543093852057</speed>
  <fix>3d</fix>
</trkpt>
<trkpt lat="33.810066" lon="-118.3941468">
  <ele>-0.112</ele>
  <time>2026-09-02T22:07:22Z</time>
  <course>186.24</course>
  <speed>0.7283543093852057</speed>
  <fix>3d</fix>
</trkpt>
<trkpt lat="33.8100659" lon="-118.3941468">
  <ele>-0.112</ele>
  <time>2026-09-02T22:07:22Z</time>
  <course>186.24</course>
  <speed>0.7283543093852057</speed>
  <fix>3d</fix>
</trkpt>
<trkpt lat="33.8100659" lon="-118.3941469">
  <ele>-0.112</ele>
  <time>2026-09-02T22:07:22Z</time>
  <course>186.24</course>
  <speed>0.7283543093852057</speed>
  <fix>3d</fix>
</trkpt>
<trkpt lat="33.8100659" lon="-118.3941469">
  <ele>-0.112</ele>
  <time>2026-09-02T22:07:22Z</time>
  <course>186.24</course>
  <speed>0.7283543093852057</speed>
  <fix>3d</fix>
</trkpt>
<trkpt lat="33.8100658" lon="-118.3941469">
  <ele>-0.112</ele>
  <time>2026-09-02T22:07:22Z</time>
  <course>186.24</course>
  <speed>0.7283543093852057</speed>
  <fix>3d</fix>
</trkpt>
<trkpt lat="33.8100658" lon="-118.394147">
  <ele>-0.112</ele>
  <time>2026-09-02T22:07:22Z</time>
  <course>186.24</course>
  <speed>0.7283543093852057</speed>
  <fix>3d</fix>
</trkpt>
<trkpt lat="33.8100658" lon="-118.394147">
  <ele>-0.112</ele>
  <time>2026-09-02T22:07:22Z</time>
  <course>186.24</course>
  <speed>0.7283543093852057</speed>
  <fix>3d</fix>
</trkpt>
<trkpt lat="33.8100657" lon="-118.3941471">
  <ele>-0.112</ele>
  <time>2026-09-02T22:07:22Z</time>
  <course>186.24</course>
  <speed>0.7283543093852057</speed>
  <fix>3d</fix>
</trkpt>
<trkpt lat="33.8100657" lon="-118.3941471">
  <ele>-0.113</ele>
  <time>2026-09-02T22:07:22Z</time>
  <course>186.24</course>
  <speed>0.7283543093852057</speed>
  <fix>3d</fix>
</trkpt>
<trkpt lat="33.8100656" lon="-118.3941471">
  <ele>-0.113</ele>
  <time>2026-09-02T22:07:22Z</time>
  <course>186.24</course>
  <speed>0.7283543093852057</speed>
  <fix>3d</fix>
</trkpt>
<trkpt lat="33.8100661" lon="-118.3941462">
  <ele>-0.1</ele>
  <time>2026-09-02T22:07:22Z</time>
  <course>223.26</course>
  <speed>0.73</speed>
  <fix>3d</fix>
</trkpt>
<trkpt lat="33.8100656" lon="-118.3941472">
  <ele>-0.113</ele>
  <time>2026-09-02T22:07:22Z</time>
  <course>186.24</course>
  <speed>0.7283543093852057</speed>
  <fix>3d</fix>
</trkpt>
<trkpt lat="33.8100656" lon="-118.3941472">
  <ele>-0.113</ele>
  <time>2026-09-02T22:07:22Z</time>
  <course>186.24</course>
  <speed>0.7283543093852057</speed>
  <fix>3d</fix>
</trkpt>
<trkpt lat="33.8100655" lon="-118.3941473">
  <ele>-0.113</ele>
  <time>2026-09-02T22:07:22Z</time>
  <course>186.24</course>
  <speed>0.7283543093852057</speed>
  <fix>3d</fix>
</trkpt>
<trkpt lat="33.8100655" lon="-118.3941473">
  <ele>-0.113</ele>
  <time>2026-09-02T22:07:22Z</time>
  <course>186.24</course>
  <speed>0.7283543093852057</speed>
  <fix>3d</fix>
</trkpt>
<trkpt lat="33.8100655" lon="-118.3941474">
  <ele>-0.113</ele>
  <time>2026-09-02T22:07:22Z</time>
  <course>186.24</course>
  <speed>0.7283543093852057</speed>
  <fix>3d</fix>
</trkpt>
<trkpt lat="33.8100654" lon="-118.3941474">
  <ele>-0.113</ele>
  <time>2026-09-02T22:07:22Z</time>
  <course>186.24</course>
  <speed>0.7283543093852057</speed>
  <fix>3d</fix>
</trkpt>
<trkpt lat="33.8100654" lon="-118.3941475">
  <ele>-0.113</ele>
  <time>2026-09-02T22:07:22Z</time>
  <course>186.24</course>
  <speed>0.7283543093852057</speed>
  <fix>3d</fix>
</trkpt>
<trkpt lat="33.8100653" lon="-118.3941475">
  <ele>-0.113</ele>
  <time>2026-09-02T22:07:22Z</time>
  <course>186.24</course>
  <speed>0.7283543093852057</speed>
  <fix>3d</fix>
</trkpt>
<trkpt lat="33.8100653" lon="-118.3941476">
  <ele>-0.114</ele>
  <time>2026-09-02T22:07:22Z</time>
  <course>186.24</course>
  <speed>0.7283543093852057</speed>
  <fix>3d</fix>
</trkpt>
<trkpt lat="33.8100652" lon="-118.3941476">
  <ele>-0.114</ele>
  <time>2026-09-02T22:07:22Z</time>
  <course>186.24</course>
  <speed>0.7283543093852057</speed>
  <fix>3d</fix>
</trkpt>
<trkpt lat="33.8100652" lon="-118.3941477">
  <ele>-0.114</ele>
  <time>2026-09-02T22:07:22Z</time>
  <course>186.24</course>
  <speed>0.7283543093852057</speed>
  <fix>3d</fix>
</trkpt>
<trkpt lat="33.8100652" lon="-118.3941477">
  <ele>-0.114</ele>
  <time>2026-09-02T22:07:22Z</time>
  <course>186.24</course>
  <speed>0.7283543093852057</speed>
  <fix>3d</fix>
</trkpt>
<trkpt lat="33.8100661" lon="-118.3941462">
  <ele>-0.1</ele>
  <time>2026-09-02T22:07:22Z</time>
  <course>223.26</course>
  <speed>0.73</speed>
  <fix>3d</fix>
</trkpt>
<trkpt lat="33.8100652" lon="-118.3941477">
  <ele>-0.114</ele>
  <time>2026-09-02T22:07:22Z</time>
  <course>186.24</course>
  <speed>0.7283543093852057</speed>
  <fix>3d</fix>
</trkpt>
<trkpt lat="33.8100651" lon="-118.3941478">
  <ele>-0.114</ele>
  <time>2026-09-02T22:07:22Z</time>
  <course>186.24</course>
  <speed>0.7283543093852057</speed>
  <fix>3d</fix>
</trkpt>
<trkpt lat="33.810065" lon="-118.3941479">
  <ele>-0.114</ele>
  <time>2026-09-02T22:07:22Z</time>
  <course>186.24</course>
  <speed>0.7283543093852057</speed>
  <fix>3d</fix>
</trkpt>
<trkpt lat="33.810065" lon="-118.3941479">
  <ele>-0.114</ele>
  <time>2026-09-02T22:07:22Z</time>
  <course>186.24</course>
  <speed>0.7283543093852057</speed>
  <fix>3d</fix>
</trkpt>
<trkpt lat="33.8100649" lon="-118.394148">
  <ele>-0.114</ele>
  <time>2026-09-02T22:07:22Z</time>
  <course>186.24</course>
  <speed>0.7283543093852057</speed>
  <fix>3d</fix>
</trkpt>
<trkpt lat="33.8100649" lon="-118.394148">
  <ele>-0.114</ele>
  <time>2026-09-02T22:07:22Z</time>
  <course>186.24</course>
  <speed>0.7283543093852057</speed>
  <fix>3d</fix>
</trkpt>
<trkpt lat="33.8100649" lon="-118.394148">
  <ele>-0.114</ele>
  <time>2026-09-02T22:07:22Z</time>
  <course>186.24</course>
  <speed>0.7283543093852057</speed>
  <fix>3d</fix>
</trkpt>
<trkpt lat="33.8100648" lon="-118.3941481">
  <ele>-0.114</ele>
  <time>2026-09-02T22:07:22Z</time>
  <course>186.24</course>
  <speed>0.7283543093852057</speed>
  <fix>3d</fix>
</trkpt>
<trkpt lat="33.8100648" lon="-118.3941482">
  <ele>-0.114</ele>
  <time>2026-09-02T22:07:22Z</time>
  <course>186.24</course>
  <speed>0.7283543093852057</speed>
  <fix>3d</fix>
</trkpt>
<trkpt lat="33.8100647" lon="-118.3941482">
  <ele>-0.114</ele>
  <time>2026-09-02T22:07:22Z</time>
  <course>186.24</course>
  <speed>0.7283543093852057</speed>
  <fix>3d</fix>
</trkpt>
<trkpt lat="33.8100647" lon="-118.3941482">
  <ele>-0.114</ele>
  <time>2026-09-02T22:07:22Z</time>
  <course>186.24</course>
  <speed>0.7283543093852057</speed>
  <fix>3d</fix>
</trkpt>
<trkpt lat="33.8100647" lon="-118.3941482">
  <ele>-0.114</ele>
  <time>2026-09-02T22:07:22Z</time>
  <course>186.24</course>
  <speed>0.7283543093852057</speed>
  <fix>3d</fix>
</trkpt>
<trkpt lat="33.8100651" lon="-118.3941473">
  <ele>-0.1</ele>
  <time>2026-09-02T22:07:22Z</time>
  <course>223.26</course>
  <speed>0.73</speed>
  <fix>3d</fix>
</trkpt>
<trkpt lat="33.8100646" lon="-118.3941484">
  <ele>-0.114</ele>
  <time>2026-09-02T22:07:22Z</time>
  <course>186.24</course>
  <speed>0.7283543093852057</speed>
  <fix>3d</fix>
</trkpt>
<trkpt lat="33.8100645" lon="-118.3941484">
  <ele>-0.114</ele>
  <time>2026-09-02T22:07:22Z</time>
  <course>186.24</course>
  <speed>0.7283543093852057</speed>
  <fix>3d</fix>
</trkpt>
<trkpt lat="33.8100645" lon="-118.3941485">
  <ele>-0.114</ele>
  <time>2026-09-02T22:07:22Z</time>
  <course>186.24</course>
  <speed>0.7283543093852057</speed>
  <fix>3d</fix>
</trkpt>
<trkpt lat="33.8100644" lon="-118.3941485">
  <ele>-0.114</ele>
  <time>2026-09-02T22:07:22Z</time>
  <course>186.24</course>
  <speed>0.7283543093852057</speed>
  <fix>3d</fix>
</trkpt>
<trkpt lat="33.8100644" lon="-118.3941486">
  <ele>-0.114</ele>
  <time>2026-09-02T22:07:22Z</time>
  <course>186.24</course>
  <speed>0.7283543093852057</speed>
  <fix>3d</fix>
</trkpt>
<trkpt lat="33.8100644" lon="-118.3941486">
  <ele>-0.114</ele>
  <time>2026-09-02T22:07:22Z</time>
  <course>186.24</course>
  <speed>0.7283543093852057</speed>
  <fix>3d</fix>
</trkpt>
<trkpt lat="33.8100643" lon="-118.3941487">
  <ele>-0.114</ele>
  <time>2026-09-02T22:07:22Z</time>
  <course>186.24</course>
  <speed>0.7283543093852057</speed>
  <fix>3d</fix>
</trkpt>
<trkpt lat="33.8100643" lon="-118.3941487">
  <ele>-0.114</ele>
  <time>2026-09-02T22:07:22Z</time>
  <course>186.24</course>
  <speed>0.7283543093852057</speed>
  <fix>3d</fix>
</trkpt>
<trkpt lat="33.8100642" lon="-118.3941488">
  <ele>-0.114</ele>
  <time>2026-09-02T22:07:22Z</time>
  <course>186.24</course>
  <speed>0.7283543093852057</speed>
  <fix>3d</fix>
</trkpt>
<trkpt lat="33.8100642" lon="-118.3941488">
  <ele>-0.114</ele>
  <time>2026-09-02T22:07:22Z</time>
  <course>186.24</course>
  <speed>0.7283543093852057</speed>
  <fix>3d</fix>
</trkpt>
<trkpt lat="33.8100651" lon="-118.3941473">
  <ele>-0.1</ele>
  <time>2026-09-02T22:07:22Z</time>
  <course>223.26</course>
  <speed>0.73</speed>
  <fix>3d</fix>
</trkpt>
<trkpt lat="33.8100642" lon="-118.3941488">
  <ele>-0.114</ele>
  <time>2026-09-02T22:07:22Z</time>
  <course>186.24</course>
  <speed>0.7283543093852057</speed>
  <fix>3d</fix>
</trkpt>
<trkpt lat="33.8100641" lon="-118.3941489">
  <ele>-0.114</ele>
  <time>2026-09-02T22:07:22Z</time>
  <course>186.24</course>
  <speed>0.7283543093852057</speed>
  <fix>3d</fix>
</trkpt>
<trkpt lat="33.8100641" lon="-118.394149">
  <ele>-0.115</ele>
  <time>2026-09-02T22:07:22Z</time>
  <course>186.24</course>
  <speed>0.7283543093852057</speed>
  <fix>3d</fix>
</trkpt>
<trkpt lat="33.810064" lon="-118.394149">
  <ele>-0.115</ele>
  <time>2026-09-02T22:07:22Z</time>
  <course>186.24</course>
  <speed>0.7283543093852057</speed>
  <fix>3d</fix>
</trkpt>
<trkpt lat="33.810064" lon="-118.394149">
  <ele>-0.115</ele>
  <time>2026-09-02T22:07:22Z</time>
  <course>186.24</course>
  <speed>0.7283543093852057</speed>
  <fix>3d</fix>
</trkpt>
<trkpt lat="33.8100639" lon="-118.3941491">
  <ele>-0.115</ele>
  <time>2026-09-02T22:07:22Z</time>
  <course>186.24</course>
  <speed>0.7283543093852057</speed>
  <fix>3d</fix>
</trkpt>
<trkpt lat="33.8100639" lon="-118.3941491">
  <ele>-0.115</ele>
  <time>2026-09-02T22:07:22Z</time>
  <course>186.24</course>
  <speed>0.7283543093852057</speed>
  <fix>3d</fix>
</trkpt>
<trkpt lat="33.8100638" lon="-118.3941492">
  <ele>-0.115</ele>
  <time>2026-09-02T22:07:22Z</time>
  <course>186.24</course>
  <speed>0.7283543093852057</speed>
  <fix>3d</fix>
</trkpt>
<trkpt lat="33.8100638" lon="-118.3941493">
  <ele>-0.115</ele>
  <time>2026-09-02T22:07:22Z</time>
  <course>186.24</course>
  <speed>0.7283543093852057</speed>
  <fix>3d</fix>
</trkpt>
<trkpt lat="33.8100638" lon="-118.3941493">
  <ele>-0.115</ele>
  <time>2026-09-02T22:07:22Z</time>
  <course>186.24</course>
  <speed>0.7283543093852057</speed>
  <fix>3d</fix>
</trkpt>
<trkpt lat="33.8100637" lon="-118.3941493">
  <ele>-0.115</ele>
  <time>2026-09-02T22:07:22Z</time>
  <course>186.24</course>
  <speed>0.7283543093852057</speed>
  <fix>3d</fix>
</trkpt>
<trkpt lat="33.8100637" lon="-118.3941493">
  <ele>-0.115</ele>
  <time>2026-09-02T22:07:22Z</time>
  <course>186.24</course>
  <speed>0.7283543093852057</speed>
  <fix>3d</fix>
</trkpt>
<trkpt lat="33.8100642" lon="-118.3941484">
  <ele>-0.1</ele>
  <time>2026-09-02T22:07:22Z</time>
  <course>223.26</course>
  <speed>0.73</speed>
  <fix>3d</fix>
</trkpt>
<trkpt lat="33.8100636" lon="-118.3941494">
  <ele>-0.115</ele>
  <time>2026-09-02T22:07:22Z</time>
  <course>186.24</course>
  <speed>0.7283543093852057</speed>
  <fix>3d</fix>
</trkpt>
<trkpt lat="33.8100636" lon="-118.3941495">
  <ele>-0.115</ele>
  <time>2026-09-02T22:07:22Z</time>
  <course>186.24</course>
  <speed>0.7283543093852057</speed>
  <fix>3d</fix>
</trkpt>
<trkpt lat="33.8100635" lon="-118.3941495">
  <ele>-0.115</ele>
  <time>2026-09-02T22:07:22Z</time>
  <course>186.24</course>
  <speed>0.7283543093852057</speed>
  <fix>3d</fix>
</trkpt>
<trkpt lat="33.8100635" lon="-118.3941496">
  <ele>-0.115</ele>
  <time>2026-09-02T22:07:22Z</time>
  <course>186.24</course>
  <speed>0.7283543093852057</speed>
  <fix>3d</fix>
</trkpt>
<trkpt lat="33.8100634" lon="-118.3941496">
  <ele>-0.115</ele>
  <time>2026-09-02T22:07:22Z</time>
  <course>186.24</course>
  <speed>0.7283543093852057</speed>
  <fix>3d</fix>
</trkpt>
<trkpt lat="33.8100634" lon="-118.3941497">
  <ele>-0.116</ele>
  <time>2026-09-02T22:07:22Z</time>
  <course>186.24</course>
  <speed>0.7283543093852057</speed>
  <fix>3d</fix>
</trkpt>
<trkpt lat="33.8100634" lon="-118.3941497">
  <ele>-0.116</ele>
  <time>2026-09-02T22:07:22Z</time>
  <course>186.24</course>
  <speed>0.7283543093852057</speed>
  <fix>3d</fix>
</trkpt>
<trkpt lat="33.8100633" lon="-118.3941498">
  <ele>-0.116</ele>
  <time>2026-09-02T22:07:22Z</time>
  <course>186.24</course>
  <speed>0.7283543093852057</speed>
  <fix>3d</fix>
</trkpt>
<trkpt lat="33.8100633" lon="-118.3941498">
  <ele>-0.116</ele>
  <time>2026-09-02T22:07:22Z</time>
  <course>186.24</course>
  <speed>0.7283543093852057</speed>
  <fix>3d</fix>
</trkpt>
<trkpt lat="33.8100632" lon="-118.3941499">
  <ele>-0.116</ele>
  <time>2026-09-02T22:07:22Z</time>
  <course>186.24</course>
  <speed>0.7283543093852057</speed>
  <fix>3d</fix>
</trkpt>
<trkpt lat="33.8100632" lon="-118.3941499">
  <ele>-0.116</ele>
  <time>2026-09-02T22:07:22Z</time>
  <course>186.24</course>
  <speed>0.7283543093852057</speed>
  <fix>3d</fix>
</trkpt>
<trkpt lat="33.8100642" lon="-118.3941484">
  <ele>-0.1</ele>
  <time>2026-09-02T22:07:22Z</time>
  <course>223.26</course>
  <speed>0.73</speed>
  <fix>3d</fix>
</trkpt>
<trkpt lat="33.8100632" lon="-118.39415">
  <ele>-0.116</ele>
  <time>2026-09-02T22:07:22Z</time>
  <course>186.24</course>
  <speed>0.7283543093852057</speed>
  <fix>3d</fix>
</trkpt>
<trkpt lat="33.8100631" lon="-118.39415">
  <ele>-0.116</ele>
  <time>2026-09-02T22:07:22Z</time>
  <course>186.24</course>
  <speed>0.7283543093852057</speed>
  <fix>3d</fix>
</trkpt>
<trkpt lat="33.8100631" lon="-118.3941501">
  <ele>-0.116</ele>
  <time>2026-09-02T22:07:22Z</time>
  <course>186.24</course>
  <speed>0.7283543093852057</speed>
  <fix>3d</fix>
</trkpt>
<trkpt lat="33.810063" lon="-118.3941501">
  <ele>-0.116</ele>
  <time>2026-09-02T22:07:22Z</time>
  <course>186.24</course>
  <speed>0.7283543093852057</speed>
  <fix>3d</fix>
</trkpt>
<trkpt lat="33.810063" lon="-118.3941502">
  <ele>-0.116</ele>
  <time>2026-09-02T22:07:22Z</time>
  <course>186.24</course>
  <speed>0.7283543093852057</speed>
  <fix>3d</fix>
</trkpt>
<trkpt lat="33.8100629" lon="-118.3941502">
  <ele>-0.116</ele>
  <time>2026-09-02T22:07:22Z</time>
  <course>186.24</course>
  <speed>0.7283543093852057</speed>
  <fix>3d</fix>
</trkpt>
<trkpt lat="33.8100629" lon="-118.3941502">
  <ele>-0.116</ele>
  <time>2026-09-02T22:07:22Z</time>
  <course>186.24</course>
  <speed>0.7283543093852057</speed>
  <fix>3d</fix>
</trkpt>
<trkpt lat="33.8100629" lon="-118.3941503">
  <ele>-0.116</ele>
  <time>2026-09-02T22:07:22Z</time>
  <course>186.24</course>
  <speed>0.7283543093852057</speed>
  <fix>3d</fix>
</trkpt>
<trkpt lat="33.8100628" lon="-118.3941503">
  <ele>-0.116</ele>
  <time>2026-09-02T22:07:22Z</time>
  <course>186.24</course>
  <speed>0.7283543093852057</speed>
  <fix>3d</fix>
</trkpt>
<trkpt lat="33.8100628" lon="-118.3941504">
  <ele>-0.116</ele>
  <time>2026-09-02T22:07:22Z</time>
  <course>186.24</course>
  <speed>0.7283543093852057</speed>
  <fix>3d</fix>
</trkpt>
<trkpt lat="33.8100628" lon="-118.3941504">
  <ele>-0.116</ele>
  <time>2026-09-02T22:07:22Z</time>
  <course>186.24</course>
  <speed>0.7283543093852057</speed>
  <fix>3d</fix>
</trkpt>
<trkpt lat="33.8100632" lon="-118.3941495">
  <ele>-0.1</ele>
  <time>2026-09-02T22:07:22Z</time>
  <course>223.26</course>
  <speed>0.73</speed>
  <fix>3d</fix>
</trkpt>
<trkpt lat="33.8100627" lon="-118.3941504">
  <ele>-0.116</ele>
  <time>2026-09-02T22:07:22Z</time>
  <course>186.24</course>
  <speed>0.7283543093852057</speed>
  <fix>3d</fix>
</trkpt>
<trkpt lat="33.8100627" lon="-118.3941505">
  <ele>-0.116</ele>
  <time>2026-09-02T22:07:22Z</time>
  <course>186.24</course>
  <speed>0.7283543093852057</speed>
  <fix>3d</fix>
</trkpt>
<trkpt lat="33.8100626" lon="-118.3941506">
  <ele>-0.116</ele>
  <time>2026-09-02T22:07:22Z</time>
  <course>186.24</course>
  <speed>0.7283543093852057</speed>
  <fix>3d</fix>
</trkpt>
<trkpt lat="33.8100626" lon="-118.3941506">
  <ele>-0.115</ele>
  <time>2026-09-02T22:07:22Z</time>
  <course>186.24</course>
  <speed>0.7283543093852057</speed>
  <fix>3d</fix>
</trkpt>
<trkpt lat="33.8100625" lon="-118.3941507">
  <ele>-0.116</ele>
  <time>2026-09-02T22:07:22Z</time>
  <course>186.24</course>
  <speed>0.7283543093852057</speed>
  <fix>3d</fix>
</trkpt>
<trkpt lat="33.8100625" lon="-118.3941507">
  <ele>-0.115</ele>
  <time>2026-09-02T22:07:22Z</time>
  <course>186.24</course>
  <speed>0.7283543093852057</speed>
  <fix>3d</fix>
</trkpt>
<trkpt lat="33.8100624" lon="-118.3941508">
  <ele>-0.115</ele>
  <time>2026-09-02T22:07:22Z</time>
  <course>186.24</course>
  <speed>0.7283543093852057</speed>
  <fix>3d</fix>
</trkpt>
<trkpt lat="33.8100624" lon="-118.3941508">
  <ele>-0.115</ele>
  <time>2026-09-02T22:07:22Z</time>
  <course>186.24</course>
  <speed>0.7283543093852057</speed>
  <fix>3d</fix>
</trkpt>
<trkpt lat="33.8100624" lon="-118.3941509">
  <ele>-0.115</ele>
  <time>2026-09-02T22:07:22Z</time>
  <course>186.24</course>
  <speed>0.7283543093852057</speed>
  <fix>3d</fix>
</trkpt>
<trkpt lat="33.8100623" lon="-118.3941509">
  <ele>-0.115</ele>
  <time>2026-09-02T22:07:22Z</time>
  <course>186.24</course>
  <speed>0.7283543093852057</speed>
  <fix>3d</fix>
</trkpt>
<trkpt lat="33.8100623" lon="-118.3941509">
  <ele>-0.115</ele>
  <time>2026-09-02T22:07:22Z</time>
  <course>186.24</course>
  <speed>0.7283543093852057</speed>
  <fix>3d</fix>
</trkpt>
<trkpt lat="33.8100623" lon="-118.394151">
  <ele>-0.115</ele>
  <time>2026-09-02T22:07:22Z</time>
  <course>186.24</course>
  <speed>0.7283543093852057</speed>
  <fix>3d</fix>
</trkpt>
<trkpt lat="33.8100632" lon="-118.3941495">
  <ele>-0.1</ele>
  <time>2026-09-02T22:07:22Z</time>
  <course>223.26</course>
  <speed>0.73</speed>
  <fix>3d</fix>
</trkpt>
<trkpt lat="33.8100623" lon="-118.394151">
  <ele>-0.115</ele>
  <time>2026-09-02T22:07:22Z</time>
  <course>186.24</course>
  <speed>0.7283543093852057</speed>
  <fix>3d</fix>
</trkpt>
<trkpt lat="33.8100622" lon="-118.3941511">
  <ele>-0.114</ele>
  <time>2026-09-02T22:07:22Z</time>
  <course>186.24</course>
  <speed>0.7283543093852057</speed>
  <fix>3d</fix>
</trkpt>
<trkpt lat="33.8100622" lon="-118.3941511">
  <ele>-0.114</ele>
  <time>2026-09-02T22:07:22Z</time>
  <course>186.24</course>
  <speed>0.7283543093852057</speed>
  <fix>3d</fix>
</trkpt>
<trkpt lat="33.8100621" lon="-118.3941512">
  <ele>-0.114</ele>
  <time>2026-09-02T22:07:22Z</time>
  <course>186.24</course>
  <speed>0.7283543093852057</speed>
  <fix>3d</fix>
</trkpt>
<trkpt lat="33.8100621" lon="-118.3941512">
  <ele>-0.114</ele>
  <time>2026-09-02T22:07:22Z</time>
  <course>186.24</course>
  <speed>0.7283543093852057</speed>
  <fix>3d</fix>
</trkpt>
<trkpt lat="33.810062" lon="-118.3941513">
  <ele>-0.114</ele>
  <time>2026-09-02T22:07:22Z</time>
  <course>186.24</course>
  <speed>0.7283543093852057</speed>
  <fix>3d</fix>
</trkpt>
<trkpt lat="33.810062" lon="-118.3941513">
  <ele>-0.114</ele>
  <time>2026-09-02T22:07:22Z</time>
  <course>186.24</course>
  <speed>0.7283543093852057</speed>
  <fix>3d</fix>
</trkpt>
<trkpt lat="33.8100619" lon="-118.3941513">
  <ele>-0.114</ele>
  <time>2026-09-02T22:07:22Z</time>
  <course>186.24</course>
  <speed>0.7283543093852057</speed>
  <fix>3d</fix>
</trkpt>
<trkpt lat="33.8100619" lon="-118.3941514">
  <ele>-0.114</ele>
  <time>2026-09-02T22:07:22Z</time>
  <course>186.24</course>
  <speed>0.7283543093852057</speed>
  <fix>3d</fix>
</trkpt>
<trkpt lat="33.8100618" lon="-118.3941515">
  <ele>-0.114</ele>
  <time>2026-09-02T22:07:22Z</time>
  <course>186.24</course>
  <speed>0.7283543093852057</speed>
  <fix>3d</fix>
</trkpt>
<trkpt lat="33.8100618" lon="-118.3941515">
  <ele>-0.114</ele>
  <time>2026-09-02T22:07:22Z</time>
  <course>186.24</course>
  <speed>0.7283543093852057</speed>
  <fix>3d</fix>
</trkpt>
<trkpt lat="33.8100618" lon="-118.3941515">
  <ele>-0.114</ele>
  <time>2026-09-02T22:07:22Z</time>
  <course>186.24</course>
  <speed>0.7283543093852057</speed>
  <fix>3d</fix>
</trkpt>
<trkpt lat="33.8100623" lon="-118.3941506">
  <ele>-0.11</ele>
  <time>2026-09-02T22:07:22Z</time>
  <course>223.26</course>
  <speed>0.73</speed>
  <fix>3d</fix>
</trkpt>
<trkpt lat="33.8100618" lon="-118.3941515">
  <ele>-0.114</ele>
  <time>2026-09-02T22:07:22Z</time>
  <course>186.24</course>
  <speed>0.7283543093852057</speed>
  <fix>3d</fix>
</trkpt>
<trkpt lat="33.8100617" lon="-118.3941516">
  <ele>-0.114</ele>
  <time>2026-09-02T22:07:22Z</time>
  <course>186.24</course>
  <speed>0.7283543093852057</speed>
  <fix>3d</fix>
</trkpt>
<trkpt lat="33.8100616" lon="-118.3941517">
  <ele>-0.114</ele>
  <time>2026-09-02T22:07:22Z</time>
  <course>186.24</course>
  <speed>0.7283543093852057</speed>
  <fix>3d</fix>
</trkpt>
<trkpt lat="33.8100616" lon="-118.3941517">
  <ele>-0.114</ele>
  <time>2026-09-02T22:07:22Z</time>
  <course>186.24</course>
  <speed>0.7283543093852057</speed>
  <fix>3d</fix>
</trkpt>
<trkpt lat="33.8100616" lon="-118.3941518">
  <ele>-0.114</ele>
  <time>2026-09-02T22:07:22Z</time>
  <course>186.24</course>
  <speed>0.7283543093852057</speed>
  <fix>3d</fix>
</trkpt>
<trkpt lat="33.8100615" lon="-118.3941518">
  <ele>-0.114</ele>
  <time>2026-09-02T22:07:22Z</time>
  <course>186.24</course>
  <speed>0.7283543093852057</speed>
  <fix>3d</fix>
</trkpt>
<trkpt lat="33.8100615" lon="-118.3941519">
  <ele>-0.114</ele>
  <time>2026-09-02T22:07:22Z</time>
  <course>186.24</course>
  <speed>0.7283543093852057</speed>
  <fix>3d</fix>
</trkpt>
<trkpt lat="33.8100615" lon="-118.3941519">
  <ele>-0.114</ele>
  <time>2026-09-02T22:07:22Z</time>
  <course>186.24</course>
  <speed>0.7283543093852057</speed>
  <fix>3d</fix>
</trkpt>
<trkpt lat="33.8100614" lon="-118.394152">
  <ele>-0.114</ele>
  <time>2026-09-02T22:07:22Z</time>
  <course>186.24</course>
  <speed>0.7283543093852057</speed>
  <fix>3d</fix>
</trkpt>
<trkpt lat="33.8100614" lon="-118.394152">
  <ele>-0.114</ele>
  <time>2026-09-02T22:07:22Z</time>
  <course>186.24</course>
  <speed>0.7283543093852057</speed>
  <fix>3d</fix>
</trkpt>
<trkpt lat="33.8100613" lon="-118.3941521">
  <ele>-0.113</ele>
  <time>2026-09-02T22:07:22Z</time>
  <course>186.24</course>
  <speed>0.7283543093852057</speed>
  <fix>3d</fix>
</trkpt>
<trkpt lat="33.8100613" lon="-118.3941521">
  <ele>-0.113</ele>
  <time>2026-09-02T22:07:22Z</time>
  <course>186.24</course>
  <speed>0.7283543093852057</speed>
  <fix>3d</fix>
</trkpt>
<trkpt lat="33.8100623" lon="-118.3941506">
  <ele>-0.11</ele>
  <time>2026-09-02T22:07:22Z</time>
  <course>223.26</course>
  <speed>0.73</speed>
  <fix>3d</fix>
</trkpt>
<trkpt lat="33.8100612" lon="-118.3941522">
  <ele>-0.113</ele>
  <time>2026-09-02T22:07:22Z</time>
  <course>186.24</course>
  <speed>0.7283543093852057</speed>
  <fix>3d</fix>
</trkpt>
<trkpt lat="33.8100612" lon="-118.3941522">
  <ele>-0.113</ele>
  <time>2026-09-02T22:07:22Z</time>
  <course>186.24</course>
  <speed>0.7283543093852057</speed>
  <fix>3d</fix>
</trkpt>
<trkpt lat="33.8100611" lon="-118.3941523">
  <ele>-0.113</ele>
  <time>2026-09-02T22:07:22Z</time>
  <course>186.24</course>
  <speed>0.7283543093852057</speed>
  <fix>3d</fix>
</trkpt>
<trkpt lat="33.8100611" lon="-118.3941523">
  <ele>-0.113</ele>
  <time>2026-09-02T22:07:22Z</time>
  <course>186.24</course>
  <speed>0.7283543093852057</speed>
  <fix>3d</fix>
</trkpt>
<trkpt lat="33.810061" lon="-118.3941524">
  <ele>-0.113</ele>
  <time>2026-09-02T22:07:22Z</time>
  <course>186.24</course>
  <speed>0.7283543093852057</speed>
  <fix>3d</fix>
</trkpt>
<trkpt lat="33.810061" lon="-118.3941524">
  <ele>-0.113</ele>
  <time>2026-09-02T22:07:22Z</time>
  <course>186.24</course>
  <speed>0.7283543093852057</speed>
  <fix>3d</fix>
</trkpt>
<trkpt lat="33.810061" lon="-118.3941525">
  <ele>-0.113</ele>
  <time>2026-09-02T22:07:22Z</time>
  <course>186.24</course>
  <speed>0.7283543093852057</speed>
  <fix>3d</fix>
</trkpt>
<trkpt lat="33.8100609" lon="-118.3941525">
  <ele>-0.113</ele>
  <time>2026-09-02T22:07:22Z</time>
  <course>186.24</course>
  <speed>0.7283543093852057</speed>
  <fix>3d</fix>
</trkpt>
<trkpt lat="33.8100609" lon="-118.3941526">
  <ele>-0.112</ele>
  <time>2026-09-02T22:07:22Z</time>
  <course>186.24</course>
  <speed>0.7283543093852057</speed>
  <fix>3d</fix>
</trkpt>
<trkpt lat="33.8100608" lon="-118.3941526">
  <ele>-0.112</ele>
  <time>2026-09-02T22:07:22Z</time>
  <course>186.24</course>
  <speed>0.7283543093852057</speed>
  <fix>3d</fix>
</trkpt>
<trkpt lat="33.8100608" lon="-118.3941526">
  <ele>-0.112</ele>
  <time>2026-09-02T22:07:22Z</time>
  <course>186.24</course>
  <speed>0.7283543093852057</speed>
  <fix>3d</fix>
</trkpt>
<trkpt lat="33.8100613" lon="-118.3941516">
  <ele>-0.1</ele>
  <time>2026-09-02T22:07:22Z</time>
  <course>223.26</course>
  <speed>0.73</speed>
  <fix>3d</fix>
</trkpt>
<trkpt lat="33.8100607" lon="-118.3941527">
  <ele>-0.112</ele>
  <time>2026-09-02T22:07:22Z</time>
  <course>186.24</course>
  <speed>0.7283543093852057</speed>
  <fix>3d</fix>
</trkpt>
<trkpt lat="33.8100607" lon="-118.3941528">
  <ele>-0.112</ele>
  <time>2026-09-02T22:07:22Z</time>
  <course>186.24</course>
  <speed>0.7283543093852057</speed>
  <fix>3d</fix>
</trkpt>
<trkpt lat="33.8100607" lon="-118.3941528">
  <ele>-0.112</ele>
  <time>2026-09-02T22:07:22Z</time>
  <course>186.24</course>
  <speed>0.7283543093852057</speed>
  <fix>3d</fix>
</trkpt>
<trkpt lat="33.8100606" lon="-118.3941528">
  <ele>-0.112</ele>
  <time>2026-09-02T22:07:22Z</time>
  <course>186.24</course>
  <speed>0.7283543093852057</speed>
  <fix>3d</fix>
</trkpt>
<trkpt lat="33.8100606" lon="-118.3941529">
  <ele>-0.112</ele>
  <time>2026-09-02T22:07:22Z</time>
  <course>186.24</course>
  <speed>0.7283543093852057</speed>
  <fix>3d</fix>
</trkpt>
<trkpt lat="33.8100605" lon="-118.3941529">
  <ele>-0.112</ele>
  <time>2026-09-02T22:07:22Z</time>
  <course>186.24</course>
  <speed>0.7283543093852057</speed>
  <fix>3d</fix>
</trkpt>
<trkpt lat="33.8100605" lon="-118.394153">
  <ele>-0.112</ele>
  <time>2026-09-02T22:07:22Z</time>
  <course>186.24</course>
  <speed>0.7283543093852057</speed>
  <fix>3d</fix>
</trkpt>
<trkpt lat="33.8100605" lon="-118.394153">
  <ele>-0.111</ele>
  <time>2026-09-02T22:07:22Z</time>
  <course>186.24</course>
  <speed>0.7283543093852057</speed>
  <fix>3d</fix>
</trkpt>
<trkpt lat="33.8100604" lon="-118.3941531">
  <ele>-0.111</ele>
  <time>2026-09-02T22:07:22Z</time>
  <course>186.24</course>
  <speed>0.7283543093852057</speed>
  <fix>3d</fix>
</trkpt>
<trkpt lat="33.8100604" lon="-118.3941531">
  <ele>-0.111</ele>
  <time>2026-09-02T22:07:22Z</time>
  <course>186.24</course>
  <speed>0.7283543093852057</speed>
  <fix>3d</fix>
</trkpt>
<trkpt lat="33.8100604" lon="-118.3941532">
  <ele>-0.111</ele>
  <time>2026-09-02T22:07:22Z</time>
  <course>186.24</course>
  <speed>0.7283543093852057</speed>
  <fix>3d</fix>
</trkpt>
<trkpt lat="33.8100613" lon="-118.3941516">
  <ele>-0.1</ele>
  <time>2026-09-02T22:07:22Z</time>
  <course>223.26</course>
  <speed>0.73</speed>
  <fix>3d</fix>
</trkpt>
<trkpt lat="33.8100603" lon="-118.3941532">
  <ele>-0.111</ele>
  <time>2026-09-02T22:07:22Z</time>
  <course>186.24</course>
  <speed>0.7283543093852057</speed>
  <fix>3d</fix>
</trkpt>
<trkpt lat="33.8100602" lon="-118.3941533">
  <ele>-0.111</ele>
  <time>2026-09-02T22:07:22Z</time>
  <course>186.24</course>
  <speed>0.7283543093852057</speed>
  <fix>3d</fix>
</trkpt>
<trkpt lat="33.8100602" lon="-118.3941534">
  <ele>-0.111</ele>
  <time>2026-09-02T22:07:22Z</time>
  <course>186.24</course>
  <speed>0.7283543093852057</speed>
  <fix>3d</fix>
</trkpt>
<trkpt lat="33.8100601" lon="-118.3941534">
  <ele>-0.111</ele>
  <time>2026-09-02T22:07:22Z</time>
  <course>186.24</course>
  <speed>0.7283543093852057</speed>
  <fix>3d</fix>
</trkpt>
<trkpt lat="33.8100601" lon="-118.3941535">
  <ele>-0.111</ele>
  <time>2026-09-02T22:07:22Z</time>
  <course>186.24</course>
  <speed>0.7283543093852057</speed>
  <fix>3d</fix>
</trkpt>
<trkpt lat="33.81006" lon="-118.3941536">
  <ele>-0.111</ele>
  <time>2026-09-02T22:07:22Z</time>
  <course>186.24</course>
  <speed>0.7283543093852057</speed>
  <fix>3d</fix>
</trkpt>
<trkpt lat="33.8100599" lon="-118.3941536">
  <ele>-0.11</ele>
  <time>2026-09-02T22:07:22Z</time>
  <course>186.24</course>
  <speed>0.7283543093852057</speed>
  <fix>3d</fix>
</trkpt>
<trkpt lat="33.8100599" lon="-118.3941537">
  <ele>-0.11</ele>
  <time>2026-09-02T22:07:22Z</time>
  <course>186.24</course>
  <speed>0.7283543093852057</speed>
  <fix>3d</fix>
</trkpt>
<trkpt lat="33.8100599" lon="-118.3941537">
  <ele>-0.11</ele>
  <time>2026-09-02T22:07:22Z</time>
  <course>186.24</course>
  <speed>0.7283543093852057</speed>
  <fix>3d</fix>
</trkpt>
<trkpt lat="33.8100604" lon="-118.3941527">
  <ele>-0.1</ele>
  <time>2026-09-02T22:07:22Z</time>
  <course>223.26</course>
  <speed>0.73</speed>
  <fix>3d</fix>
</trkpt>
<trkpt lat="33.8100599" lon="-118.3941537">
  <ele>-0.11</ele>
  <time>2026-09-02T22:07:22Z</time>
  <course>186.24</course>
  <speed>0.7283543093852057</speed>
  <fix>3d</fix>
</trkpt>
<trkpt lat="33.8100598" lon="-118.3941538">
  <ele>-0.11</ele>
  <time>2026-09-02T22:07:22Z</time>
  <course>186.24</course>
  <speed>0.7283543093852057</speed>
  <fix>3d</fix>
</trkpt>
<trkpt lat="33.8100597" lon="-118.3941539">
  <ele>-0.11</ele>
  <time>2026-09-02T22:07:22Z</time>
  <course>186.24</course>
  <speed>0.7283543093852057</speed>
  <fix>3d</fix>
</trkpt>
<trkpt lat="33.8100597" lon="-118.3941539">
  <ele>-0.11</ele>
  <time>2026-09-02T22:07:22Z</time>
  <course>186.24</course>
  <speed>0.7283543093852057</speed>
  <fix>3d</fix>
</trkpt>
<trkpt lat="33.8100596" lon="-118.394154">
  <ele>-0.11</ele>
  <time>2026-09-02T22:07:22Z</time>
  <course>186.24</course>
  <speed>0.7283543093852057</speed>
  <fix>3d</fix>
</trkpt>
<trkpt lat="33.8100596" lon="-118.3941541">
  <ele>-0.11</ele>
  <time>2026-09-02T22:07:22Z</time>
  <course>186.24</course>
  <speed>0.7283543093852057</speed>
  <fix>3d</fix>
</trkpt>
<trkpt lat="33.8100595" lon="-118.3941541">
  <ele>-0.11</ele>
  <time>2026-09-02T22:07:22Z</time>
  <course>186.24</course>
  <speed>0.7283543093852057</speed>
  <fix>3d</fix>
</trkpt>
<trkpt lat="33.8100594" lon="-118.3941542">
  <ele>-0.11</ele>
  <time>2026-09-02T22:07:22Z</time>
  <course>186.24</course>
  <speed>0.7283543093852057</speed>
  <fix>3d</fix>
</trkpt>
<trkpt lat="33.8100594" lon="-118.3941542">
  <ele>-0.11</ele>
  <time>2026-09-02T22:07:22Z</time>
  <course>186.24</course>
  <speed>0.7283543093852057</speed>
  <fix>3d</fix>
</trkpt>
<trkpt lat="33.8100594" lon="-118.3941542">
  <ele>-0.11</ele>
  <time>2026-09-02T22:07:22Z</time>
  <course>186.24</course>
  <speed>0.7283543093852057</speed>
  <fix>3d</fix>
</trkpt>
<trkpt lat="33.8100604" lon="-118.3941527">
  <ele>-0.1</ele>
  <time>2026-09-02T22:07:22Z</time>
  <course>223.26</course>
  <speed>0.73</speed>
  <fix>3d</fix>
</trkpt>
<trkpt lat="33.8100594" lon="-118.3941543">
  <ele>-0.111</ele>
  <time>2026-09-02T22:07:22Z</time>
  <course>186.24</course>
  <speed>0.7283543093852057</speed>
  <fix>3d</fix>
</trkpt>
<trkpt lat="33.8100593" lon="-118.3941543">
  <ele>-0.111</ele>
  <time>2026-09-02T22:07:22Z</time>
  <course>186.24</course>
  <speed>0.7283543093852057</speed>
  <fix>3d</fix>
</trkpt>
<trkpt lat="33.8100593" lon="-118.3941544">
  <ele>-0.111</ele>
  <time>2026-09-02T22:07:22Z</time>
  <course>186.24</course>
  <speed>0.7283543093852057</speed>
  <fix>3d</fix>
</trkpt>
<trkpt lat="33.8100593" lon="-118.3941544">
  <ele>-0.111</ele>
  <time>2026-09-02T22:07:22Z</time>
  <course>186.24</course>
  <speed>0.7283543093852057</speed>
  <fix>3d</fix>
</trkpt>
<trkpt lat="33.8100592" lon="-118.3941545">
  <ele>-0.111</ele>
  <time>2026-09-02T22:07:22Z</time>
  <course>186.24</course>
  <speed>0.7283543093852057</speed>
  <fix>3d</fix>
</trkpt>
<trkpt lat="33.8100592" lon="-118.3941545">
  <ele>-0.111</ele>
  <time>2026-09-02T22:07:22Z</time>
  <course>186.24</course>
  <speed>0.7283543093852057</speed>
  <fix>3d</fix>
</trkpt>
<trkpt lat="33.8100591" lon="-118.3941546">
  <ele>-0.111</ele>
  <time>2026-09-02T22:07:22Z</time>
  <course>186.24</course>
  <speed>0.7283543093852057</speed>
  <fix>3d</fix>
</trkpt>
<trkpt lat="33.8100591" lon="-118.3941546">
  <ele>-0.111</ele>
  <time>2026-09-02T22:07:22Z</time>
  <course>186.24</course>
  <speed>0.7283543093852057</speed>
  <fix>3d</fix>
</trkpt>
<trkpt lat="33.810059" lon="-118.3941547">
  <ele>-0.111</ele>
  <time>2026-09-02T22:07:22Z</time>
  <course>186.24</course>
  <speed>0.7283543093852057</speed>
  <fix>3d</fix>
</trkpt>
<trkpt lat="33.810059" lon="-118.3941547">
  <ele>-0.112</ele>
  <time>2026-09-02T22:07:22Z</time>
  <course>186.24</course>
  <speed>0.7283543093852057</speed>
  <fix>3d</fix>
</trkpt>
<trkpt lat="33.8100589" lon="-118.3941548">
  <ele>-0.112</ele>
  <time>2026-09-02T22:07:22Z</time>
  <course>186.24</course>
  <speed>0.7283543093852057</speed>
  <fix>3d</fix>
</trkpt>
<trkpt lat="33.8100589" lon="-118.3941548">
  <ele>-0.112</ele>
  <time>2026-09-02T22:07:22Z</time>
  <course>186.24</course>
  <speed>0.7283543093852057</speed>
  <fix>3d</fix>
</trkpt>
<trkpt lat="33.8100594" lon="-118.3941538">
  <ele>-0.1</ele>
  <time>2026-09-02T22:07:22Z</time>
  <course>223.26</course>
  <speed>0.73</speed>
  <fix>3d</fix>
</trkpt>
<trkpt lat="33.8100589" lon="-118.3941548">
  <ele>-0.112</ele>
  <time>2026-09-02T22:07:22Z</time>
  <course>186.24</course>
  <speed>0.7283543093852057</speed>
  <fix>3d</fix>
</trkpt>
<trkpt lat="33.8100587" lon="-118.394155">
  <ele>-0.112</ele>
  <time>2026-09-02T22:07:22Z</time>
  <course>186.24</course>
  <speed>0.7283543093852057</speed>
  <fix>3d</fix>
</trkpt>
<trkpt lat="33.8100587" lon="-118.3941551">
  <ele>-0.112</ele>
  <time>2026-09-02T22:07:22Z</time>
  <course>186.24</course>
  <speed>0.7283543093852057</speed>
  <fix>3d</fix>
</trkpt>
<trkpt lat="33.8100586" lon="-118.3941551">
  <ele>-0.113</ele>
  <time>2026-09-02T22:07:22Z</time>
  <course>186.24</course>
  <speed>0.7283543093852057</speed>
  <fix>3d</fix>
</trkpt>
<trkpt lat="33.8100586" lon="-118.3941552">
  <ele>-0.113</ele>
  <time>2026-09-02T22:07:22Z</time>
  <course>186.24</course>
  <speed>0.7283543093852057</speed>
  <fix>3d</fix>
</trkpt>
<trkpt lat="33.8100585" lon="-118.3941553">
  <ele>-0.113</ele>
  <time>2026-09-02T22:07:22Z</time>
  <course>186.24</course>
  <speed>0.7283543093852057</speed>
  <fix>3d</fix>
</trkpt>
<trkpt lat="33.8100585" lon="-118.3941553">
  <ele>-0.113</ele>
  <time>2026-09-02T22:07:22Z</time>
  <course>186.24</course>
  <speed>0.7283543093852057</speed>
  <fix>3d</fix>
</trkpt>
<trkpt lat="33.8100584" lon="-118.3941553">
  <ele>-0.113</ele>
  <time>2026-09-02T22:07:22Z</time>
  <course>186.24</course>
  <speed>0.7283543093852057</speed>
  <fix>3d</fix>
</trkpt>
<trkpt lat="33.8100594" lon="-118.3941538">
  <ele>-0.1</ele>
  <time>2026-09-02T22:07:22Z</time>
  <course>223.26</course>
  <speed>0.73</speed>
  <fix>3d</fix>
</trkpt>
<trkpt lat="33.8100584" lon="-118.3941553">
  <ele>-0.113</ele>
  <time>2026-09-02T22:07:22Z</time>
  <course>186.24</course>
  <speed>0.7283543093852057</speed>
  <fix>3d</fix>
</trkpt>
<trkpt lat="33.8100584" lon="-118.3941554">
  <ele>-0.113</ele>
  <time>2026-09-02T22:07:22Z</time>
  <course>186.24</course>
  <speed>0.7283543093852057</speed>
  <fix>3d</fix>
</trkpt>
<trkpt lat="33.8100583" lon="-118.3941555">
  <ele>-0.113</ele>
  <time>2026-09-02T22:07:22Z</time>
  <course>186.24</course>
  <speed>0.7283543093852057</speed>
  <fix>3d</fix>
</trkpt>
<trkpt lat="33.8100583" lon="-118.3941555">
  <ele>-0.113</ele>
  <time>2026-09-02T22:07:22Z</time>
  <course>186.24</course>
  <speed>0.7283543093852057</speed>
  <fix>3d</fix>
</trkpt>
<trkpt lat="33.8100582" lon="-118.3941556">
  <ele>-0.113</ele>
  <time>2026-09-02T22:07:22Z</time>
  <course>186.24</course>
  <speed>0.7283543093852057</speed>
  <fix>3d</fix>
</trkpt>
<trkpt lat="33.8100582" lon="-118.3941556">
  <ele>-0.113</ele>
  <time>2026-09-02T22:07:22Z</time>
  <course>186.24</course>
  <speed>0.7283543093852057</speed>
  <fix>3d</fix>
</trkpt>
<trkpt lat="33.8100581" lon="-118.3941557">
  <ele>-0.113</ele>
  <time>2026-09-02T22:07:22Z</time>
  <course>186.24</course>
  <speed>0.7283543093852057</speed>
  <fix>3d</fix>
</trkpt>
<trkpt lat="33.8100581" lon="-118.3941557">
  <ele>-0.113</ele>
  <time>2026-09-02T22:07:22Z</time>
  <course>186.24</course>
  <speed>0.7283543093852057</speed>
  <fix>3d</fix>
</trkpt>
<trkpt lat="33.8100581" lon="-118.3941558">
  <ele>-0.114</ele>
  <time>2026-09-02T22:07:22Z</time>
  <course>186.24</course>
  <speed>0.7283543093852057</speed>
  <fix>3d</fix>
</trkpt>
<trkpt lat="33.810058" lon="-118.3941558">
  <ele>-0.114</ele>
  <time>2026-09-02T22:07:22Z</time>
  <course>186.24</course>
  <speed>0.7283543093852057</speed>
  <fix>3d</fix>
</trkpt>
<trkpt lat="33.810058" lon="-118.3941559">
  <ele>-0.114</ele>
  <time>2026-09-02T22:07:22Z</time>
  <course>186.24</course>
  <speed>0.7283543093852057</speed>
  <fix>3d</fix>
</trkpt>
<trkpt lat="33.8100584" lon="-118.3941549">
  <ele>-0.1</ele>
  <time>2026-09-02T22:07:22Z</time>
  <course>223.26</course>
  <speed>0.73</speed>
  <fix>3d</fix>
</trkpt>
<trkpt lat="33.8100579" lon="-118.3941559">
  <ele>-0.114</ele>
  <time>2026-09-02T22:07:22Z</time>
  <course>186.24</course>
  <speed>0.7283543093852057</speed>
  <fix>3d</fix>
</trkpt>
<trkpt lat="33.8100578" lon="-118.3941561">
  <ele>-0.114</ele>
  <time>2026-09-02T22:07:22Z</time>
  <course>186.24</course>
  <speed>0.7283543093852057</speed>
  <fix>3d</fix>
</trkpt>
<trkpt lat="33.8100577" lon="-118.3941561">
  <ele>-0.114</ele>
  <time>2026-09-02T22:07:22Z</time>
  <course>186.24</course>
  <speed>0.7283543093852057</speed>
  <fix>3d</fix>
</trkpt>
<trkpt lat="33.8100577" lon="-118.3941562">
  <ele>-0.114</ele>
  <time>2026-09-02T22:07:22Z</time>
  <course>186.24</course>
  <speed>0.7283543093852057</speed>
  <fix>3d</fix>
</trkpt>
<trkpt lat="33.8100576" lon="-118.3941563">
  <ele>-0.114</ele>
  <time>2026-09-02T22:07:22Z</time>
  <course>186.24</course>
  <speed>0.7283543093852057</speed>
  <fix>3d</fix>
</trkpt>
<trkpt lat="33.8100576" lon="-118.3941563">
  <ele>-0.114</ele>
  <time>2026-09-02T22:07:22Z</time>
  <course>186.24</course>
  <speed>0.7283543093852057</speed>
  <fix>3d</fix>
</trkpt>
<trkpt lat="33.8100575" lon="-118.3941564">
  <ele>-0.114</ele>
  <time>2026-09-02T22:07:22Z</time>
  <course>186.24</course>
  <speed>0.7283543093852057</speed>
  <fix>3d</fix>
</trkpt>
<trkpt lat="33.8100575" lon="-118.3941564">
  <ele>-0.114</ele>
  <time>2026-09-02T22:07:22Z</time>
  <course>186.24</course>
  <speed>0.7283543093852057</speed>
  <fix>3d</fix>
</trkpt>
<trkpt lat="33.8100575" lon="-118.3941564">
  <ele>-0.114</ele>
  <time>2026-09-02T22:07:22Z</time>
  <course>186.24</course>
  <speed>0.7283543093852057</speed>
  <fix>3d</fix>
</trkpt>
<trkpt lat="33.8100584" lon="-118.3941549">
  <ele>-0.1</ele>
  <time>2026-09-02T22:07:22Z</time>
  <course>223.26</course>
  <speed>0.73</speed>
  <fix>3d</fix>
</trkpt>
<trkpt lat="33.8100574" lon="-118.3941565">
  <ele>-0.114</ele>
  <time>2026-09-02T22:07:22Z</time>
  <course>186.24</course>
  <speed>0.7283543093852057</speed>
  <fix>3d</fix>
</trkpt>
<trkpt lat="33.8100574" lon="-118.3941565">
  <ele>-0.114</ele>
  <time>2026-09-02T22:07:22Z</time>
  <course>186.24</course>
  <speed>0.7283543093852057</speed>
  <fix>3d</fix>
</trkpt>
<trkpt lat="33.8100573" lon="-118.3941566">
  <ele>-0.114</ele>
  <time>2026-09-02T22:07:22Z</time>
  <course>186.24</course>
  <speed>0.7283543093852057</speed>
  <fix>3d</fix>
</trkpt>
<trkpt lat="33.8100573" lon="-118.3941567">
  <ele>-0.114</ele>
  <time>2026-09-02T22:07:22Z</time>
  <course>186.24</course>
  <speed>0.7283543093852057</speed>
  <fix>3d</fix>
</trkpt>
<trkpt lat="33.8100572" lon="-118.3941567">
  <ele>-0.114</ele>
  <time>2026-09-02T22:07:22Z</time>
  <course>186.24</course>
  <speed>0.7283543093852057</speed>
  <fix>3d</fix>
</trkpt>
<trkpt lat="33.8100572" lon="-118.3941567">
  <ele>-0.115</ele>
  <time>2026-09-02T22:07:22Z</time>
  <course>186.24</course>
  <speed>0.7283543093852057</speed>
  <fix>3d</fix>
</trkpt>
<trkpt lat="33.8100571" lon="-118.3941568">
  <ele>-0.115</ele>
  <time>2026-09-02T22:07:22Z</time>
  <course>186.24</course>
  <speed>0.7283543093852057</speed>
  <fix>3d</fix>
</trkpt>
<trkpt lat="33.8100571" lon="-118.3941569">
  <ele>-0.115</ele>
  <time>2026-09-02T22:07:22Z</time>
  <course>186.24</course>
  <speed>0.7283543093852057</speed>
  <fix>3d</fix>
</trkpt>
<trkpt lat="33.810057" lon="-118.3941569">
  <ele>-0.115</ele>
  <time>2026-09-02T22:07:22Z</time>
  <course>186.24</course>
  <speed>0.7283543093852057</speed>
  <fix>3d</fix>
</trkpt>
<trkpt lat="33.810057" lon="-118.394157">
  <ele>-0.115</ele>
  <time>2026-09-02T22:07:22Z</time>
  <course>186.24</course>
  <speed>0.7283543093852057</speed>
  <fix>3d</fix>
</trkpt>
<trkpt lat="33.8100575" lon="-118.394156">
  <ele>-0.11</ele>
  <time>2026-09-02T22:07:22Z</time>
  <course>223.26</course>
  <speed>0.73</speed>
  <fix>3d</fix>
</trkpt>
<trkpt lat="33.810057" lon="-118.394157">
  <ele>-0.115</ele>
  <time>2026-09-02T22:07:22Z</time>
  <course>186.24</course>
  <speed>0.7283543093852057</speed>
  <fix>3d</fix>
</trkpt>
<trkpt lat="33.8100569" lon="-118.3941571">
  <ele>-0.115</ele>
  <time>2026-09-02T22:07:22Z</time>
  <course>186.24</course>
  <speed>0.7283543093852057</speed>
  <fix>3d</fix>
</trkpt>
<trkpt lat="33.8100569" lon="-118.3941571">
  <ele>-0.115</ele>
  <time>2026-09-02T22:07:22Z</time>
  <course>186.24</course>
  <speed>0.7283543093852057</speed>
  <fix>3d</fix>
</trkpt>
<trkpt lat="33.8100568" lon="-118.3941572">
  <ele>-0.115</ele>
  <time>2026-09-02T22:07:22Z</time>
  <course>186.24</course>
  <speed>0.7283543093852057</speed>
  <fix>3d</fix>
</trkpt>
<trkpt lat="33.8100568" lon="-118.3941572">
  <ele>-0.115</ele>
  <time>2026-09-02T22:07:22Z</time>
  <course>186.24</course>
  <speed>0.7283543093852057</speed>
  <fix>3d</fix>
</trkpt>
<trkpt lat="33.8100567" lon="-118.3941573">
  <ele>-0.115</ele>
  <time>2026-09-02T22:07:22Z</time>
  <course>186.24</course>
  <speed>0.7283543093852057</speed>
  <fix>3d</fix>
</trkpt>
<trkpt lat="33.8100567" lon="-118.3941573">
  <ele>-0.115</ele>
  <time>2026-09-02T22:07:22Z</time>
  <course>186.24</course>
  <speed>0.7283543093852057</speed>
  <fix>3d</fix>
</trkpt>
<trkpt lat="33.8100566" lon="-118.3941574">
  <ele>-0.115</ele>
  <time>2026-09-02T22:07:22Z</time>
  <course>186.24</course>
  <speed>0.7283543093852057</speed>
  <fix>3d</fix>
</trkpt>
<trkpt lat="33.8100566" lon="-118.3941575">
  <ele>-0.115</ele>
  <time>2026-09-02T22:07:22Z</time>
  <course>186.24</course>
  <speed>0.7283543093852057</speed>
  <fix>3d</fix>
</trkpt>
<trkpt lat="33.8100565" lon="-118.3941575">
  <ele>-0.115</ele>
  <time>2026-09-02T22:07:22Z</time>
  <course>186.24</course>
  <speed>0.7283543093852057</speed>
  <fix>3d</fix>
</trkpt>
<trkpt lat="33.8100575" lon="-118.394156">
  <ele>-0.11</ele>
  <time>2026-09-02T22:07:22Z</time>
  <course>223.26</course>
  <speed>0.73</speed>
  <fix>3d</fix>
</trkpt>
<trkpt lat="33.8100565" lon="-118.3941575">
  <ele>-0.115</ele>
  <time>2026-09-02T22:07:22Z</time>
  <course>186.24</course>
  <speed>0.7283543093852057</speed>
  <fix>3d</fix>
</trkpt>
<trkpt lat="33.8100565" lon="-118.3941575">
  <ele>-0.115</ele>
  <time>2026-09-02T22:07:22Z</time>
  <course>186.24</course>
  <speed>0.7283543093852057</speed>
  <fix>3d</fix>
</trkpt>
<trkpt lat="33.8100564" lon="-118.3941576">
  <ele>-0.115</ele>
  <time>2026-09-02T22:07:22Z</time>
  <course>186.24</course>
  <speed>0.7283543093852057</speed>
  <fix>3d</fix>
</trkpt>
<trkpt lat="33.8100564" lon="-118.3941576">
  <ele>-0.115</ele>
  <time>2026-09-02T22:07:22Z</time>
  <course>186.24</course>
  <speed>0.7283543093852057</speed>
  <fix>3d</fix>
</trkpt>
<trkpt lat="33.8100563" lon="-118.3941577">
  <ele>-0.115</ele>
  <time>2026-09-02T22:07:22Z</time>
  <course>186.24</course>
  <speed>0.7283543093852057</speed>
  <fix>3d</fix>
</trkpt>
<trkpt lat="33.8100563" lon="-118.3941578">
  <ele>-0.115</ele>
  <time>2026-09-02T22:07:22Z</time>
  <course>186.24</course>
  <speed>0.7283543093852057</speed>
  <fix>3d</fix>
</trkpt>
<trkpt lat="33.8100563" lon="-118.3941578">
  <ele>-0.115</ele>
  <time>2026-09-02T22:07:22Z</time>
  <course>186.24</course>
  <speed>0.7283543093852057</speed>
  <fix>3d</fix>
</trkpt>
<trkpt lat="33.8100562" lon="-118.3941578">
  <ele>-0.115</ele>
  <time>2026-09-02T22:07:22Z</time>
  <course>186.24</course>
  <speed>0.7283543093852057</speed>
  <fix>3d</fix>
</trkpt>
<trkpt lat="33.8100562" lon="-118.3941579">
  <ele>-0.115</ele>
  <time>2026-09-02T22:07:22Z</time>
  <course>186.24</course>
  <speed>0.7283543093852057</speed>
  <fix>3d</fix>
</trkpt>
<trkpt lat="33.8100562" lon="-118.3941579">
  <ele>-0.114</ele>
  <time>2026-09-02T22:07:22Z</time>
  <course>186.24</course>
  <speed>0.7283543093852057</speed>
  <fix>3d</fix>
</trkpt>
<trkpt lat="33.8100561" lon="-118.394158">
  <ele>-0.114</ele>
  <time>2026-09-02T22:07:22Z</time>
  <course>186.24</course>
  <speed>0.7283543093852057</speed>
  <fix>3d</fix>
</trkpt>
<trkpt lat="33.8100561" lon="-118.394158">
  <ele>-0.114</ele>
  <time>2026-09-02T22:07:22Z</time>
  <course>186.24</course>
  <speed>0.7283543093852057</speed>
  <fix>3d</fix>
</trkpt>
<trkpt lat="33.810056" lon="-118.3941581">
  <ele>-0.114</ele>
  <time>2026-09-02T22:07:22Z</time>
  <course>186.24</course>
  <speed>0.7283543093852057</speed>
  <fix>3d</fix>
</trkpt>
<trkpt lat="33.810056" lon="-118.3941581">
  <ele>-0.114</ele>
  <time>2026-09-02T22:07:22Z</time>
  <course>186.24</course>
  <speed>0.7283543093852057</speed>
  <fix>3d</fix>
</trkpt>
<trkpt lat="33.8100565" lon="-118.3941571">
  <ele>-0.1</ele>
  <time>2026-09-02T22:07:22Z</time>
  <course>223.26</course>
  <speed>0.73</speed>
  <fix>3d</fix>
</trkpt>
<trkpt lat="33.810056" lon="-118.3941581">
  <ele>-0.114</ele>
  <time>2026-09-02T22:07:22Z</time>
  <course>186.24</course>
  <speed>0.7283543093852057</speed>
  <fix>3d</fix>
</trkpt>
<trkpt lat="33.8100559" lon="-118.3941582">
  <ele>-0.114</ele>
  <time>2026-09-02T22:07:22Z</time>
  <course>186.24</course>
  <speed>0.7283543093852057</speed>
  <fix>3d</fix>
</trkpt>
<trkpt lat="33.8100558" lon="-118.3941583">
  <ele>-0.114</ele>
  <time>2026-09-02T22:07:22Z</time>
  <course>186.24</course>
  <speed>0.7283543093852057</speed>
  <fix>3d</fix>
</trkpt>
<trkpt lat="33.8100558" lon="-118.3941584">
  <ele>-0.114</ele>
  <time>2026-09-02T22:07:22Z</time>
  <course>186.24</course>
  <speed>0.7283543093852057</speed>
  <fix>3d</fix>
</trkpt>
<trkpt lat="33.8100557" lon="-118.3941584">
  <ele>-0.114</ele>
  <time>2026-09-02T22:07:22Z</time>
  <course>186.24</course>
  <speed>0.7283543093852057</speed>
  <fix>3d</fix>
</trkpt>
<trkpt lat="33.8100556" lon="-118.3941585">
  <ele>-0.113</ele>
  <time>2026-09-02T22:07:22Z</time>
  <course>186.24</course>
  <speed>0.7283543093852057</speed>
  <fix>3d</fix>
</trkpt>
<trkpt lat="33.8100556" lon="-118.3941586">
  <ele>-0.113</ele>
  <time>2026-09-02T22:07:22Z</time>
  <course>186.24</course>
  <speed>0.7283543093852057</speed>
  <fix>3d</fix>
</trkpt>
<trkpt lat="33.8100556" lon="-118.3941586">
  <ele>-0.113</ele>
  <time>2026-09-02T22:07:22Z</time>
  <course>186.24</course>
  <speed>0.7283543093852057</speed>
  <fix>3d</fix>
</trkpt>
<trkpt lat="33.8100565" lon="-118.3941571">
  <ele>-0.1</ele>
  <time>2026-09-02T22:07:22Z</time>
  <course>223.26</course>
  <speed>0.73</speed>
  <fix>3d</fix>
</trkpt>
<trkpt lat="33.8100555" lon="-118.3941586">
  <ele>-0.113</ele>
  <time>2026-09-02T22:07:22Z</time>
  <course>186.24</course>
  <speed>0.7283543093852057</speed>
  <fix>3d</fix>
</trkpt>
<trkpt lat="33.8100555" lon="-118.3941587">
  <ele>-0.113</ele>
  <time>2026-09-02T22:07:22Z</time>
  <course>186.24</course>
  <speed>0.7283543093852057</speed>
  <fix>3d</fix>
</trkpt>
<trkpt lat="33.8100554" lon="-118.3941587">
  <ele>-0.113</ele>
  <time>2026-09-02T22:07:22Z</time>
  <course>186.24</course>
  <speed>0.7283543093852057</speed>
  <fix>3d</fix>
</trkpt>
<trkpt lat="33.8100554" lon="-118.3941588">
  <ele>-0.113</ele>
  <time>2026-09-02T22:07:22Z</time>
  <course>186.24</course>
  <speed>0.7283543093852057</speed>
  <fix>3d</fix>
</trkpt>
<trkpt lat="33.8100553" lon="-118.3941589">
  <ele>-0.113</ele>
  <time>2026-09-02T22:07:22Z</time>
  <course>186.24</course>
  <speed>0.7283543093852057</speed>
  <fix>3d</fix>
</trkpt>
<trkpt lat="33.8100553" lon="-118.3941589">
  <ele>-0.113</ele>
  <time>2026-09-02T22:07:22Z</time>
  <course>186.24</course>
  <speed>0.7283543093852057</speed>
  <fix>3d</fix>
</trkpt>
<trkpt lat="33.8100553" lon="-118.3941589">
  <ele>-0.113</ele>
  <time>2026-09-02T22:07:22Z</time>
  <course>186.24</course>
  <speed>0.7283543093852057</speed>
  <fix>3d</fix>
</trkpt>
<trkpt lat="33.8100552" lon="-118.394159">
  <ele>-0.112</ele>
  <time>2026-09-02T22:07:22Z</time>
  <course>186.24</course>
  <speed>0.7283543093852057</speed>
  <fix>3d</fix>
</trkpt>
<trkpt lat="33.8100552" lon="-118.394159">
  <ele>-0.112</ele>
  <time>2026-09-02T22:07:22Z</time>
  <course>186.24</course>
  <speed>0.7283543093852057</speed>
  <fix>3d</fix>
</trkpt>
<trkpt lat="33.8100551" lon="-118.3941591">
  <ele>-0.112</ele>
  <time>2026-09-02T22:07:22Z</time>
  <course>186.24</course>
  <speed>0.7283543093852057</speed>
  <fix>3d</fix>
</trkpt>
<trkpt lat="33.8100551" lon="-118.3941591">
  <ele>-0.112</ele>
  <time>2026-09-02T22:07:22Z</time>
  <course>186.24</course>
  <speed>0.7283543093852057</speed>
  <fix>3d</fix>
</trkpt>
<trkpt lat="33.8100556" lon="-118.3941582">
  <ele>-0.1</ele>
  <time>2026-09-02T22:07:22Z</time>
  <course>223.26</course>
  <speed>0.73</speed>
  <fix>3d</fix>
</trkpt>
<trkpt lat="33.8100551" lon="-118.3941592">
  <ele>-0.112</ele>
  <time>2026-09-02T22:07:22Z</time>
  <course>186.24</course>
  <speed>0.7283543093852057</speed>
  <fix>3d</fix>
</trkpt>
<trkpt lat="33.8100548" lon="-118.3941594">
  <ele>-0.112</ele>
  <time>2026-09-02T22:07:22Z</time>
  <course>186.24</course>
  <speed>0.7283543093852057</speed>
  <fix>3d</fix>
</trkpt>
<trkpt lat="33.8100548" lon="-118.3941595">
  <ele>-0.112</ele>
  <time>2026-09-02T22:07:22Z</time>
  <course>186.24</course>
  <speed>0.7283543093852057</speed>
  <fix>3d</fix>
</trkpt>
<trkpt lat="33.8100547" lon="-118.3941595">
  <ele>-0.112</ele>
  <time>2026-09-02T22:07:22Z</time>
  <course>186.24</course>
  <speed>0.7283543093852057</speed>
  <fix>3d</fix>
</trkpt>
<trkpt lat="33.8100547" lon="-118.3941596">
  <ele>-0.112</ele>
  <time>2026-09-02T22:07:22Z</time>
  <course>186.24</course>
  <speed>0.7283543093852057</speed>
  <fix>3d</fix>
</trkpt>
<trkpt lat="33.8100546" lon="-118.3941596">
  <ele>-0.112</ele>
  <time>2026-09-02T22:07:22Z</time>
  <course>186.24</course>
  <speed>0.7283543093852057</speed>
  <fix>3d</fix>
</trkpt>
<trkpt lat="33.8100546" lon="-118.3941597">
  <ele>-0.112</ele>
  <time>2026-09-02T22:07:22Z</time>
  <course>186.24</course>
  <speed>0.7283543093852057</speed>
  <fix>3d</fix>
</trkpt>
<trkpt lat="33.8100546" lon="-118.3941597">
  <ele>-0.112</ele>
  <time>2026-09-02T22:07:22Z</time>
  <course>186.24</course>
  <speed>0.7283543093852057</speed>
  <fix>3d</fix>
</trkpt>
<trkpt lat="33.8100556" lon="-118.3941582">
  <ele>-0.1</ele>
  <time>2026-09-02T22:07:22Z</time>
  <course>223.26</course>
  <speed>0.73</speed>
  <fix>3d</fix>
</trkpt>
<trkpt lat="33.8100546" lon="-118.3941597">
  <ele>-0.112</ele>
  <time>2026-09-02T22:07:22Z</time>
  <course>186.24</course>
  <speed>0.7283543093852057</speed>
  <fix>3d</fix>
</trkpt>
<trkpt lat="33.8100545" lon="-118.3941598">
  <ele>-0.112</ele>
  <time>2026-09-02T22:07:22Z</time>
  <course>186.24</course>
  <speed>0.7283543093852057</speed>
  <fix>3d</fix>
</trkpt>
<trkpt lat="33.8100545" lon="-118.3941599">
  <ele>-0.112</ele>
  <time>2026-09-02T22:07:22Z</time>
  <course>186.24</course>
  <speed>0.7283543093852057</speed>
  <fix>3d</fix>
</trkpt>
<trkpt lat="33.8100544" lon="-118.3941599">
  <ele>-0.112</ele>
  <time>2026-09-02T22:07:22Z</time>
  <course>186.24</course>
  <speed>0.7283543093852057</speed>
  <fix>3d</fix>
</trkpt>
<trkpt lat="33.8100544" lon="-118.3941599">
  <ele>-0.112</ele>
  <time>2026-09-02T22:07:22Z</time>
  <course>186.24</course>
  <speed>0.7283543093852057</speed>
  <fix>3d</fix>
</trkpt>
<trkpt lat="33.8100543" lon="-118.39416">
  <ele>-0.112</ele>
  <time>2026-09-02T22:07:22Z</time>
  <course>186.24</course>
  <speed>0.7283543093852057</speed>
  <fix>3d</fix>
</trkpt>
<trkpt lat="33.8100543" lon="-118.3941601">
  <ele>-0.112</ele>
  <time>2026-09-02T22:07:22Z</time>
  <course>186.24</course>
  <speed>0.7283543093852057</speed>
  <fix>3d</fix>
</trkpt>
<trkpt lat="33.8100542" lon="-118.3941601">
  <ele>-0.111</ele>
  <time>2026-09-02T22:07:22Z</time>
  <course>186.24</course>
  <speed>0.7283543093852057</speed>
  <fix>3d</fix>
</trkpt>
<trkpt lat="33.8100542" lon="-118.3941602">
  <ele>-0.111</ele>
  <time>2026-09-02T22:07:22Z</time>
  <course>186.24</course>
  <speed>0.7283543093852057</speed>
  <fix>3d</fix>
</trkpt>
<trkpt lat="33.8100541" lon="-118.3941602">
  <ele>-0.111</ele>
  <time>2026-09-02T22:07:22Z</time>
  <course>186.24</course>
  <speed>0.7283543093852057</speed>
  <fix>3d</fix>
</trkpt>
<trkpt lat="33.8100546" lon="-118.3941593">
  <ele>-0.1</ele>
  <time>2026-09-02T22:07:22Z</time>
  <course>223.26</course>
  <speed>0.73</speed>
  <fix>3d</fix>
</trkpt>
<trkpt lat="33.8100541" lon="-118.3941602">
  <ele>-0.111</ele>
  <time>2026-09-02T22:07:22Z</time>
  <course>186.24</course>
  <speed>0.7283543093852057</speed>
  <fix>3d</fix>
</trkpt>
<trkpt lat="33.810054" lon="-118.3941604">
  <ele>-0.111</ele>
  <time>2026-09-02T22:07:22Z</time>
  <course>186.24</course>
  <speed>0.7283543093852057</speed>
  <fix>3d</fix>
</trkpt>
<trkpt lat="33.8100539" lon="-118.3941604">
  <ele>-0.111</ele>
  <time>2026-09-02T22:07:22Z</time>
  <course>186.24</course>
  <speed>0.7283543093852057</speed>
  <fix>3d</fix>
</trkpt>
<trkpt lat="33.8100539" lon="-118.3941605">
  <ele>-0.111</ele>
  <time>2026-09-02T22:07:22Z</time>
  <course>186.24</course>
  <speed>0.7283543093852057</speed>
  <fix>3d</fix>
</trkpt>
<trkpt lat="33.8100539" lon="-118.3941605">
  <ele>-0.111</ele>
  <time>2026-09-02T22:07:22Z</time>
  <course>186.24</course>
  <speed>0.7283543093852057</speed>
  <fix>3d</fix>
</trkpt>
<trkpt lat="33.8100538" lon="-118.3941606">
  <ele>-0.111</ele>
  <time>2026-09-02T22:07:22Z</time>
  <course>186.24</course>
  <speed>0.7283543093852057</speed>
  <fix>3d</fix>
</trkpt>
<trkpt lat="33.8100538" lon="-118.3941606">
  <ele>-0.111</ele>
  <time>2026-09-02T22:07:22Z</time>
  <course>186.24</course>
  <speed>0.7283543093852057</speed>
  <fix>3d</fix>
</trkpt>
<trkpt lat="33.8100537" lon="-118.3941607">
  <ele>-0.111</ele>
  <time>2026-09-02T22:07:22Z</time>
  <course>186.24</course>
  <speed>0.7283543093852057</speed>
  <fix>3d</fix>
</trkpt>
<trkpt lat="33.8100537" lon="-118.3941607">
  <ele>-0.111</ele>
  <time>2026-09-02T22:07:22Z</time>
  <course>186.24</course>
  <speed>0.7283543093852057</speed>
  <fix>3d</fix>
</trkpt>
<trkpt lat="33.8100536" lon="-118.3941608">
  <ele>-0.111</ele>
  <time>2026-09-02T22:07:22Z</time>
  <course>186.24</course>
  <speed>0.7283543093852057</speed>
  <fix>3d</fix>
</trkpt>
<trkpt lat="33.8100536" lon="-118.3941608">
  <ele>-0.111</ele>
  <time>2026-09-02T22:07:22Z</time>
  <course>186.24</course>
  <speed>0.7283543093852057</speed>
  <fix>3d</fix>
</trkpt>
<trkpt lat="33.8100546" lon="-118.3941593">
  <ele>-0.1</ele>
  <time>2026-09-02T22:07:22Z</time>
  <course>223.26</course>
  <speed>0.73</speed>
  <fix>3d</fix>
</trkpt>
<trkpt lat="33.8100535" lon="-118.3941609">
  <ele>-0.111</ele>
  <time>2026-09-02T22:07:22Z</time>
  <course>186.24</course>
  <speed>0.7283543093852057</speed>
  <fix>3d</fix>
</trkpt>
<trkpt lat="33.8100535" lon="-118.394161">
  <ele>-0.111</ele>
  <time>2026-09-02T22:07:22Z</time>
  <course>186.24</course>
  <speed>0.7283543093852057</speed>
  <fix>3d</fix>
</trkpt>
<trkpt lat="33.8100534" lon="-118.394161">
  <ele>-0.111</ele>
  <time>2026-09-02T22:07:22Z</time>
  <course>186.24</course>
  <speed>0.7283543093852057</speed>
  <fix>3d</fix>
</trkpt>
<trkpt lat="33.8100534" lon="-118.3941611">
  <ele>-0.111</ele>
  <time>2026-09-02T22:07:22Z</time>
  <course>186.24</course>
  <speed>0.7283543093852057</speed>
  <fix>3d</fix>
</trkpt>
<trkpt lat="33.8100533" lon="-118.3941611">
  <ele>-0.111</ele>
  <time>2026-09-02T22:07:22Z</time>
  <course>186.24</course>
  <speed>0.7283543093852057</speed>
  <fix>3d</fix>
</trkpt>
<trkpt lat="33.8100533" lon="-118.3941612">
  <ele>-0.111</ele>
  <time>2026-09-02T22:07:22Z</time>
  <course>186.24</course>
  <speed>0.7283543093852057</speed>
  <fix>3d</fix>
</trkpt>
<trkpt lat="33.8100532" lon="-118.3941613">
  <ele>-0.111</ele>
  <time>2026-09-02T22:07:22Z</time>
  <course>186.24</course>
  <speed>0.7283543093852057</speed>
  <fix>3d</fix>
</trkpt>
<trkpt lat="33.8100532" lon="-118.3941613">
  <ele>-0.111</ele>
  <time>2026-09-02T22:07:22Z</time>
  <course>186.24</course>
  <speed>0.7283543093852057</speed>
  <fix>3d</fix>
</trkpt>
<trkpt lat="33.8100537" lon="-118.3941604">
  <ele>-0.1</ele>
  <time>2026-09-02T22:07:22Z</time>
  <course>223.26</course>
  <speed>0.73</speed>
  <fix>3d</fix>
</trkpt>
<trkpt lat="33.8100532" lon="-118.3941613">
  <ele>-0.111</ele>
  <time>2026-09-02T22:07:22Z</time>
  <course>186.24</course>
  <speed>0.7283543093852057</speed>
  <fix>3d</fix>
</trkpt>
<trkpt lat="33.8100531" lon="-118.3941614">
  <ele>-0.111</ele>
  <time>2026-09-02T22:07:22Z</time>
  <course>186.24</course>
  <speed>0.7283543093852057</speed>
  <fix>3d</fix>
</trkpt>
<trkpt lat="33.810053" lon="-118.3941615">
  <ele>-0.111</ele>
  <time>2026-09-02T22:07:22Z</time>
  <course>186.24</course>
  <speed>0.7283543093852057</speed>
  <fix>3d</fix>
</trkpt>
<trkpt lat="33.810053" lon="-118.3941615">
  <ele>-0.111</ele>
  <time>2026-09-02T22:07:22Z</time>
  <course>186.24</course>
  <speed>0.7283543093852057</speed>
  <fix>3d</fix>
</trkpt>
<trkpt lat="33.810053" lon="-118.3941616">
  <ele>-0.111</ele>
  <time>2026-09-02T22:07:22Z</time>
  <course>186.24</course>
  <speed>0.7283543093852057</speed>
  <fix>3d</fix>
</trkpt>
<trkpt lat="33.8100529" lon="-118.3941616">
  <ele>-0.111</ele>
  <time>2026-09-02T22:07:22Z</time>
  <course>186.24</course>
  <speed>0.7283543093852057</speed>
  <fix>3d</fix>
</trkpt>
<trkpt lat="33.8100529" lon="-118.3941617">
  <ele>-0.111</ele>
  <time>2026-09-02T22:07:22Z</time>
  <course>186.24</course>
  <speed>0.7283543093852057</speed>
  <fix>3d</fix>
</trkpt>
<trkpt lat="33.8100529" lon="-118.3941617">
  <ele>-0.111</ele>
  <time>2026-09-02T22:07:22Z</time>
  <course>186.24</course>
  <speed>0.7283543093852057</speed>
  <fix>3d</fix>
</trkpt>
<trkpt lat="33.8100528" lon="-118.3941617">
  <ele>-0.111</ele>
  <time>2026-09-02T22:07:22Z</time>
  <course>186.24</course>
  <speed>0.7283543093852057</speed>
  <fix>3d</fix>
</trkpt>
<trkpt lat="33.8100527" lon="-118.3941618">
  <ele>-0.111</ele>
  <time>2026-09-02T22:07:22Z</time>
  <course>186.24</course>
  <speed>0.7283543093852057</speed>
  <fix>3d</fix>
</trkpt>
<trkpt lat="33.8100527" lon="-118.3941619">
  <ele>-0.111</ele>
  <time>2026-09-02T22:07:22Z</time>
  <course>186.24</course>
  <speed>0.7283543093852057</speed>
  <fix>3d</fix>
</trkpt>
<trkpt lat="33.8100527" lon="-118.3941619">
  <ele>-0.111</ele>
  <time>2026-09-02T22:07:22Z</time>
  <course>186.24</course>
  <speed>0.7283543093852057</speed>
  <fix>3d</fix>
</trkpt>
<trkpt lat="33.8100537" lon="-118.3941604">
  <ele>-0.1</ele>
  <time>2026-09-02T22:07:22Z</time>
  <course>223.26</course>
  <speed>0.73</speed>
  <fix>3d</fix>
</trkpt>
<trkpt lat="33.8100527" lon="-118.3941619">
  <ele>-0.111</ele>
  <time>2026-09-02T22:07:22Z</time>
  <course>186.24</course>
  <speed>0.7213875518748573</speed>
  <fix>3d</fix>
</trkpt>
<trkpt lat="33.8100526" lon="-118.394162">
  <ele>-0.111</ele>
  <time>2026-09-02T22:07:22Z</time>
  <course>186.24</course>
  <speed>0.7213875518748573</speed>
  <fix>3d</fix>
</trkpt>
<trkpt lat="33.8100526" lon="-118.394162">
  <ele>-0.112</ele>
  <time>2026-09-02T22:07:22Z</time>
  <course>186.24</course>
  <speed>0.7213875518748573</speed>
  <fix>3d</fix>
</trkpt>
<trkpt lat="33.8100525" lon="-118.3941621">
  <ele>-0.112</ele>
  <time>2026-09-02T22:07:22Z</time>
  <course>186.24</course>
  <speed>0.7213875518748573</speed>
  <fix>3d</fix>
</trkpt>
<trkpt lat="33.8100525" lon="-118.3941621">
  <ele>-0.112</ele>
  <time>2026-09-02T22:07:22Z</time>
  <course>186.24</course>
  <speed>0.7213875518748573</speed>
  <fix>3d</fix>
</trkpt>
<trkpt lat="33.8100524" lon="-118.3941622">
  <ele>-0.112</ele>
  <time>2026-09-02T22:07:22Z</time>
  <course>186.24</course>
  <speed>0.7213875518748573</speed>
  <fix>3d</fix>
</trkpt>
<trkpt lat="33.8100524" lon="-118.3941622">
  <ele>-0.112</ele>
  <time>2026-09-02T22:07:22Z</time>
  <course>186.24</course>
  <speed>0.7213875518748573</speed>
  <fix>3d</fix>
</trkpt>
<trkpt lat="33.8100524" lon="-118.3941623">
  <ele>-0.112</ele>
  <time>2026-09-02T22:07:22Z</time>
  <course>186.24</course>
  <speed>0.7213875518748573</speed>
  <fix>3d</fix>
</trkpt>
<trkpt lat="33.8100523" lon="-118.3941623">
  <ele>-0.112</ele>
  <time>2026-09-02T22:07:22Z</time>
  <course>186.24</course>
  <speed>0.7213875518748573</speed>
  <fix>3d</fix>
</trkpt>
<trkpt lat="33.8100523" lon="-118.3941623">
  <ele>-0.112</ele>
  <time>2026-09-02T22:07:22Z</time>
  <course>186.24</course>
  <speed>0.7283543093852057</speed>
  <fix>3d</fix>
</trkpt>
<trkpt lat="33.8100522" lon="-118.3941624">
  <ele>-0.112</ele>
  <time>2026-09-02T22:07:22Z</time>
  <course>186.24</course>
  <speed>0.7213875518748573</speed>
  <fix>3d</fix>
</trkpt>
<trkpt lat="33.8100522" lon="-118.3941624">
  <ele>-0.112</ele>
  <time>2026-09-02T22:07:22Z</time>
  <course>186.24</course>
  <speed>0.7213875518748573</speed>
  <fix>3d</fix>
</trkpt>
<trkpt lat="33.8100527" lon="-118.3941614">
  <ele>-0.1</ele>
  <time>2026-09-02T22:07:22Z</time>
  <course>223.26</course>
  <speed>0.73</speed>
  <fix>3d</fix>
</trkpt>
<trkpt lat="33.8100522" lon="-118.3941624">
  <ele>-0.112</ele>
  <time>2026-09-02T22:07:22Z</time>
  <course>186.24</course>
  <speed>0.7213875518748573</speed>
  <fix>3d</fix>
</trkpt>
<trkpt lat="33.8100521" lon="-118.3941625">
  <ele>-0.113</ele>
  <time>2026-09-02T22:07:22Z</time>
  <course>186.24</course>
  <speed>0.7213875518748573</speed>
  <fix>3d</fix>
</trkpt>
<trkpt lat="33.8100521" lon="-118.3941626">
  <ele>-0.113</ele>
  <time>2026-09-02T22:07:22Z</time>
  <course>186.24</course>
  <speed>0.7213875518748573</speed>
  <fix>3d</fix>
</trkpt>
<trkpt lat="33.810052" lon="-118.3941626">
  <ele>-0.113</ele>
  <time>2026-09-02T22:07:22Z</time>
  <course>186.24</course>
  <speed>0.7283543093852057</speed>
  <fix>3d</fix>
</trkpt>
<trkpt lat="33.810052" lon="-118.3941627">
  <ele>-0.113</ele>
  <time>2026-09-02T22:07:22Z</time>
  <course>186.24</course>
  <speed>0.7213875518748573</speed>
  <fix>3d</fix>
</trkpt>
<trkpt lat="33.810052" lon="-118.3941627">
  <ele>-0.113</ele>
  <time>2026-09-02T22:07:22Z</time>
  <course>186.24</course>
  <speed>0.7213875518748573</speed>
  <fix>3d</fix>
</trkpt>
<trkpt lat="33.8100519" lon="-118.3941628">
  <ele>-0.113</ele>
  <time>2026-09-02T22:07:22Z</time>
  <course>186.24</course>
  <speed>0.7213875518748573</speed>
  <fix>3d</fix>
</trkpt>
<trkpt lat="33.8100519" lon="-118.3941628">
  <ele>-0.113</ele>
  <time>2026-09-02T22:07:22Z</time>
  <course>186.24</course>
  <speed>0.7213875518748573</speed>
  <fix>3d</fix>
</trkpt>
<trkpt lat="33.8100518" lon="-118.3941629">
  <ele>-0.113</ele>
  <time>2026-09-02T22:07:22Z</time>
  <course>186.24</course>
  <speed>0.7213875518748573</speed>
  <fix>3d</fix>
</trkpt>
<trkpt lat="33.8100518" lon="-118.3941629">
  <ele>-0.113</ele>
  <time>2026-09-02T22:07:22Z</time>
  <course>186.24</course>
  <speed>0.7213875518748573</speed>
  <fix>3d</fix>
</trkpt>
<trkpt lat="33.8100518" lon="-118.3941629">
  <ele>-0.113</ele>
  <time>2026-09-02T22:07:22Z</time>
  <course>186.24</course>
  <speed>0.7213875518748573</speed>
  <fix>3d</fix>
</trkpt>
<trkpt lat="33.8100517" lon="-118.394163">
  <ele>-0.114</ele>
  <time>2026-09-02T22:07:22Z</time>
  <course>186.24</course>
  <speed>0.7213875518748573</speed>
  <fix>3d</fix>
</trkpt>
<trkpt lat="33.8100527" lon="-118.3941614">
  <ele>-0.1</ele>
  <time>2026-09-02T22:07:22Z</time>
  <course>223.26</course>
  <speed>0.73</speed>
  <fix>3d</fix>
</trkpt>
<trkpt lat="33.8100517" lon="-118.394163">
  <ele>-0.113</ele>
  <time>2026-09-02T22:07:22Z</time>
  <course>186.24</course>
  <speed>0.7213875518748573</speed>
  <fix>3d</fix>
</trkpt>
<trkpt lat="33.8100516" lon="-118.3941631">
  <ele>-0.114</ele>
  <time>2026-09-02T22:07:22Z</time>
  <course>186.24</course>
  <speed>0.7213875518748573</speed>
  <fix>3d</fix>
</trkpt>
<trkpt lat="33.8100516" lon="-118.3941632">
  <ele>-0.114</ele>
  <time>2026-09-02T22:07:22Z</time>
  <course>186.24</course>
  <speed>0.7213875518748573</speed>
  <fix>3d</fix>
</trkpt>
<trkpt lat="33.8100515" lon="-118.3941632">
  <ele>-0.114</ele>
  <time>2026-09-02T22:07:22Z</time>
  <course>186.24</course>
  <speed>0.7213875518748573</speed>
  <fix>3d</fix>
</trkpt>
<trkpt lat="33.8100515" lon="-118.3941633">
  <ele>-0.114</ele>
  <time>2026-09-02T22:07:22Z</time>
  <course>186.24</course>
  <speed>0.7213875518748573</speed>
  <fix>3d</fix>
</trkpt>
<trkpt lat="33.8100514" lon="-118.3941633">
  <ele>-0.114</ele>
  <time>2026-09-02T22:07:22Z</time>
  <course>186.24</course>
  <speed>0.7213875518748573</speed>
  <fix>3d</fix>
</trkpt>
<trkpt lat="33.8100514" lon="-118.3941634">
  <ele>-0.114</ele>
  <time>2026-09-02T22:07:22Z</time>
  <course>186.24</course>
  <speed>0.7213875518748573</speed>
  <fix>3d</fix>
</trkpt>
<trkpt lat="33.8100513" lon="-118.3941634">
  <ele>-0.114</ele>
  <time>2026-09-02T22:07:22Z</time>
  <course>186.24</course>
  <speed>0.7213875518748573</speed>
  <fix>3d</fix>
</trkpt>
<trkpt lat="33.8100513" lon="-118.3941634">
  <ele>-0.114</ele>
  <time>2026-09-02T22:07:22Z</time>
  <course>186.24</course>
  <speed>0.7213875518748573</speed>
  <fix>3d</fix>
</trkpt>
<trkpt lat="33.8100513" lon="-118.3941635">
  <ele>-0.114</ele>
  <time>2026-09-02T22:07:22Z</time>
  <course>186.24</course>
  <speed>0.7213875518748573</speed>
  <fix>3d</fix>
</trkpt>
<trkpt lat="33.8100513" lon="-118.3941635">
  <ele>-0.114</ele>
  <time>2026-09-02T22:07:22Z</time>
  <course>186.24</course>
  <speed>0.7213875518748573</speed>
  <fix>3d</fix>
</trkpt>
<trkpt lat="33.8100517" lon="-118.3941625">
  <ele>-0.11</ele>
  <time>2026-09-02T22:07:22Z</time>
  <course>223.26</course>
  <speed>0.73</speed>
  <fix>3d</fix>
</trkpt>
<trkpt lat="33.8100512" lon="-118.3941635">
  <ele>-0.114</ele>
  <time>2026-09-02T22:07:22Z</time>
  <course>186.24</course>
  <speed>0.7213875518748573</speed>
  <fix>3d</fix>
</trkpt>
<trkpt lat="33.8100511" lon="-118.3941637">
  <ele>-0.114</ele>
  <time>2026-09-02T22:07:22Z</time>
  <course>186.24</course>
  <speed>0.7213875518748573</speed>
  <fix>3d</fix>
</trkpt>
<trkpt lat="33.8100511" lon="-118.3941637">
  <ele>-0.114</ele>
  <time>2026-09-02T22:07:22Z</time>
  <course>186.24</course>
  <speed>0.7213875518748573</speed>
  <fix>3d</fix>
</trkpt>
<trkpt lat="33.810051" lon="-118.3941638">
  <ele>-0.114</ele>
  <time>2026-09-02T22:07:22Z</time>
  <course>186.24</course>
  <speed>0.7213875518748573</speed>
  <fix>3d</fix>
</trkpt>
<trkpt lat="33.810051" lon="-118.3941638">
  <ele>-0.114</ele>
  <time>2026-09-02T22:07:22Z</time>
  <course>186.24</course>
  <speed>0.7213875518748573</speed>
  <fix>3d</fix>
</trkpt>
<trkpt lat="33.8100509" lon="-118.3941639">
  <ele>-0.114</ele>
  <time>2026-09-02T22:07:22Z</time>
  <course>186.24</course>
  <speed>0.7213875518748573</speed>
  <fix>3d</fix>
</trkpt>
<trkpt lat="33.8100509" lon="-118.3941639">
  <ele>-0.114</ele>
  <time>2026-09-02T22:07:22Z</time>
  <course>186.24</course>
  <speed>0.7213875518748573</speed>
  <fix>3d</fix>
</trkpt>
<trkpt lat="33.8100509" lon="-118.394164">
  <ele>-0.114</ele>
  <time>2026-09-02T22:07:22Z</time>
  <course>186.24</course>
  <speed>0.7213875518748573</speed>
  <fix>3d</fix>
</trkpt>
<trkpt lat="33.8100508" lon="-118.394164">
  <ele>-0.114</ele>
  <time>2026-09-02T22:07:22Z</time>
  <course>186.24</course>
  <speed>0.7213875518748573</speed>
  <fix>3d</fix>
</trkpt>
<trkpt lat="33.8100508" lon="-118.3941641">
  <ele>-0.114</ele>
  <time>2026-09-02T22:07:22Z</time>
  <course>186.24</course>
  <speed>0.7213875518748573</speed>
  <fix>3d</fix>
</trkpt>
<trkpt lat="33.8100508" lon="-118.3941641">
  <ele>-0.114</ele>
  <time>2026-09-02T22:07:22Z</time>
  <course>186.24</course>
  <speed>0.7213875518748573</speed>
  <fix>3d</fix>
</trkpt>
<trkpt lat="33.8100517" lon="-118.3941625">
  <ele>-0.11</ele>
  <time>2026-09-02T22:07:22Z</time>
  <course>223.26</course>
  <speed>0.73</speed>
  <fix>3d</fix>
</trkpt>
<trkpt lat="33.8100506" lon="-118.3941643">
  <ele>-0.114</ele>
  <time>2026-09-02T22:07:22Z</time>
  <course>186.24</course>
  <speed>0.7213875518748573</speed>
  <fix>3d</fix>
</trkpt>
<trkpt lat="33.8100506" lon="-118.3941643">
  <ele>-0.114</ele>
  <time>2026-09-02T22:07:22Z</time>
  <course>186.24</course>
  <speed>0.7213875518748573</speed>
  <fix>3d</fix>
</trkpt>
<trkpt lat="33.8100505" lon="-118.3941643">
  <ele>-0.114</ele>
  <time>2026-09-02T22:07:22Z</time>
  <course>186.24</course>
  <speed>0.7213875518748573</speed>
  <fix>3d</fix>
</trkpt>
<trkpt lat="33.8100505" lon="-118.3941644">
  <ele>-0.114</ele>
  <time>2026-09-02T22:07:22Z</time>
  <course>186.24</course>
  <speed>0.7213875518748573</speed>
  <fix>3d</fix>
</trkpt>
<trkpt lat="33.8100505" lon="-118.3941644">
  <ele>-0.114</ele>
  <time>2026-09-02T22:07:22Z</time>
  <course>186.24</course>
  <speed>0.7213875518748573</speed>
  <fix>3d</fix>
</trkpt>
<trkpt lat="33.8100504" lon="-118.3941645">
  <ele>-0.114</ele>
  <time>2026-09-02T22:07:22Z</time>
  <course>186.24</course>
  <speed>0.7213875518748573</speed>
  <fix>3d</fix>
</trkpt>
<trkpt lat="33.8100504" lon="-118.3941645">
  <ele>-0.114</ele>
  <time>2026-09-02T22:07:22Z</time>
  <course>186.24</course>
  <speed>0.7213875518748573</speed>
  <fix>3d</fix>
</trkpt>
<trkpt lat="33.8100503" lon="-118.3941646">
  <ele>-0.114</ele>
  <time>2026-09-02T22:07:22Z</time>
  <course>186.24</course>
  <speed>0.7213875518748573</speed>
  <fix>3d</fix>
</trkpt>
<trkpt lat="33.8100503" lon="-118.3941646">
  <ele>-0.114</ele>
  <time>2026-09-02T22:07:22Z</time>
  <course>186.24</course>
  <speed>0.7213875518748573</speed>
  <fix>3d</fix>
</trkpt>
<trkpt lat="33.8100508" lon="-118.3941636">
  <ele>-0.1</ele>
  <time>2026-09-02T22:07:22Z</time>
  <course>223.26</course>
  <speed>0.73</speed>
  <fix>3d</fix>
</trkpt>
<trkpt lat="33.8100503" lon="-118.3941646">
  <ele>-0.114</ele>
  <time>2026-09-02T22:07:22Z</time>
  <course>186.24</course>
  <speed>0.7213875518748573</speed>
  <fix>3d</fix>
</trkpt>
<trkpt lat="33.8100502" lon="-118.3941647">
  <ele>-0.114</ele>
  <time>2026-09-02T22:07:22Z</time>
  <course>186.24</course>
  <speed>0.7213875518748573</speed>
  <fix>3d</fix>
</trkpt>
<trkpt lat="33.8100502" lon="-118.3941647">
  <ele>-0.114</ele>
  <time>2026-09-02T22:07:22Z</time>
  <course>186.24</course>
  <speed>0.7213875518748573</speed>
  <fix>3d</fix>
</trkpt>
<trkpt lat="33.8100501" lon="-118.3941648">
  <ele>-0.114</ele>
  <time>2026-09-02T22:07:22Z</time>
  <course>186.24</course>
  <speed>0.7213875518748573</speed>
  <fix>3d</fix>
</trkpt>
<trkpt lat="33.8100501" lon="-118.3941648">
  <ele>-0.114</ele>
  <time>2026-09-02T22:07:22Z</time>
  <course>186.24</course>
  <speed>0.7213875518748573</speed>
  <fix>3d</fix>
</trkpt>
<trkpt lat="33.81005" lon="-118.3941649">
  <ele>-0.114</ele>
  <time>2026-09-02T22:07:22Z</time>
  <course>186.24</course>
  <speed>0.7213875518748573</speed>
  <fix>3d</fix>
</trkpt>
<trkpt lat="33.81005" lon="-118.3941649">
  <ele>-0.114</ele>
  <time>2026-09-02T22:07:22Z</time>
  <course>186.24</course>
  <speed>0.7213875518748573</speed>
  <fix>3d</fix>
</trkpt>
<trkpt lat="33.8100499" lon="-118.394165">
  <ele>-0.114</ele>
  <time>2026-09-02T22:07:22Z</time>
  <course>186.24</course>
  <speed>0.7213875518748573</speed>
  <fix>3d</fix>
</trkpt>
<trkpt lat="33.8100499" lon="-118.394165">
  <ele>-0.114</ele>
  <time>2026-09-02T22:07:22Z</time>
  <course>186.24</course>
  <speed>0.7213875518748573</speed>
  <fix>3d</fix>
</trkpt>
<trkpt lat="33.8100499" lon="-118.3941651">
  <ele>-0.114</ele>
  <time>2026-09-02T22:07:22Z</time>
  <course>186.24</course>
  <speed>0.7213875518748573</speed>
  <fix>3d</fix>
</trkpt>
<trkpt lat="33.8100498" lon="-118.3941651">
  <ele>-0.114</ele>
  <time>2026-09-02T22:07:22Z</time>
  <course>186.24</course>
  <speed>0.7213875518748573</speed>
  <fix>3d</fix>
</trkpt>
<trkpt lat="33.8100498" lon="-118.3941651">
  <ele>-0.114</ele>
  <time>2026-09-02T22:07:22Z</time>
  <course>186.24</course>
  <speed>0.7213875518748573</speed>
  <fix>3d</fix>
</trkpt>
<trkpt lat="33.8100508" lon="-118.3941636">
  <ele>-0.1</ele>
  <time>2026-09-02T22:07:22Z</time>
  <course>223.26</course>
  <speed>0.73</speed>
  <fix>3d</fix>
</trkpt>
<trkpt lat="33.8100497" lon="-118.3941652">
  <ele>-0.114</ele>
  <time>2026-09-02T22:07:22Z</time>
  <course>186.24</course>
  <speed>0.7213875518748573</speed>
  <fix>3d</fix>
</trkpt>
<trkpt lat="33.8100497" lon="-118.3941653">
  <ele>-0.114</ele>
  <time>2026-09-02T22:07:22Z</time>
  <course>186.24</course>
  <speed>0.7213875518748573</speed>
  <fix>3d</fix>
</trkpt>
<trkpt lat="33.8100496" lon="-118.3941654">
  <ele>-0.114</ele>
  <time>2026-09-02T22:07:22Z</time>
  <course>186.24</course>
  <speed>0.7213875518748573</speed>
  <fix>3d</fix>
</trkpt>
<trkpt lat="33.8100496" lon="-118.3941654">
  <ele>-0.114</ele>
  <time>2026-09-02T22:07:22Z</time>
  <course>186.24</course>
  <speed>0.7213875518748573</speed>
  <fix>3d</fix>
</trkpt>
<trkpt lat="33.8100496" lon="-118.3941654">
  <ele>-0.114</ele>
  <time>2026-09-02T22:07:22Z</time>
  <course>186.24</course>
  <speed>0.7213875518748573</speed>
  <fix>3d</fix>
</trkpt>
<trkpt lat="33.8100495" lon="-118.3941655">
  <ele>-0.115</ele>
  <time>2026-09-02T22:07:22Z</time>
  <course>186.24</course>
  <speed>0.7213875518748573</speed>
  <fix>3d</fix>
</trkpt>
<trkpt lat="33.8100495" lon="-118.3941655">
  <ele>-0.115</ele>
  <time>2026-09-02T22:07:22Z</time>
  <course>186.24</course>
  <speed>0.7213875518748573</speed>
  <fix>3d</fix>
</trkpt>
<trkpt lat="33.8100494" lon="-118.3941656">
  <ele>-0.115</ele>
  <time>2026-09-02T22:07:22Z</time>
  <course>186.24</course>
  <speed>0.7213875518748573</speed>
  <fix>3d</fix>
</trkpt>
<trkpt lat="33.8100494" lon="-118.3941656">
  <ele>-0.115</ele>
  <time>2026-09-02T22:07:22Z</time>
  <course>186.24</course>
  <speed>0.7213875518748573</speed>
  <fix>3d</fix>
</trkpt>
<trkpt lat="33.8100493" lon="-118.3941657">
  <ele>-0.115</ele>
  <time>2026-09-02T22:07:22Z</time>
  <course>186.24</course>
  <speed>0.7213875518748573</speed>
  <fix>3d</fix>
</trkpt>
<trkpt lat="33.8100493" lon="-118.3941657">
  <ele>-0.115</ele>
  <time>2026-09-02T22:07:22Z</time>
  <course>186.24</course>
  <speed>0.7213875518748573</speed>
  <fix>3d</fix>
</trkpt>
<trkpt lat="33.8100498" lon="-118.3941647">
  <ele>-0.1</ele>
  <time>2026-09-02T22:07:22Z</time>
  <course>223.26</course>
  <speed>0.73</speed>
  <fix>3d</fix>
</trkpt>
<trkpt lat="33.8100493" lon="-118.3941657">
  <ele>-0.115</ele>
  <time>2026-09-02T22:07:22Z</time>
  <course>186.24</course>
  <speed>0.7213875518748573</speed>
  <fix>3d</fix>
</trkpt>
<trkpt lat="33.8100492" lon="-118.3941658">
  <ele>-0.115</ele>
  <time>2026-09-02T22:07:22Z</time>
  <course>186.24</course>
  <speed>0.7213875518748573</speed>
  <fix>3d</fix>
</trkpt>
<trkpt lat="33.8100492" lon="-118.3941658">
  <ele>-0.115</ele>
  <time>2026-09-02T22:07:22Z</time>
  <course>186.24</course>
  <speed>0.7213875518748573</speed>
  <fix>3d</fix>
</trkpt>
<trkpt lat="33.8100492" lon="-118.3941659">
  <ele>-0.115</ele>
  <time>2026-09-02T22:07:22Z</time>
  <course>186.24</course>
  <speed>0.7213875518748573</speed>
  <fix>3d</fix>
</trkpt>
<trkpt lat="33.8100491" lon="-118.3941659">
  <ele>-0.115</ele>
  <time>2026-09-02T22:07:22Z</time>
  <course>186.24</course>
  <speed>0.7213875518748573</speed>
  <fix>3d</fix>
</trkpt>
<trkpt lat="33.8100491" lon="-118.394166">
  <ele>-0.115</ele>
  <time>2026-09-02T22:07:22Z</time>
  <course>186.24</course>
  <speed>0.7213875518748573</speed>
  <fix>3d</fix>
</trkpt>
<trkpt lat="33.8100491" lon="-118.394166">
  <ele>-0.115</ele>
  <time>2026-09-02T22:07:22Z</time>
  <course>186.24</course>
  <speed>0.7213875518748573</speed>
  <fix>3d</fix>
</trkpt>
<trkpt lat="33.810049" lon="-118.3941661">
  <ele>-0.116</ele>
  <time>2026-09-02T22:07:22Z</time>
  <course>186.24</course>
  <speed>0.7213875518748573</speed>
  <fix>3d</fix>
</trkpt>
<trkpt lat="33.810049" lon="-118.3941661">
  <ele>-0.116</ele>
  <time>2026-09-02T22:07:22Z</time>
  <course>186.24</course>
  <speed>0.7213875518748573</speed>
  <fix>3d</fix>
</trkpt>
<trkpt lat="33.8100489" lon="-118.3941662">
  <ele>-0.116</ele>
  <time>2026-09-02T22:07:22Z</time>
  <course>186.24</course>
  <speed>0.7213875518748573</speed>
  <fix>3d</fix>
</trkpt>
<trkpt lat="33.8100489" lon="-118.3941662">
  <ele>-0.116</ele>
  <time>2026-09-02T22:07:22Z</time>
  <course>186.24</course>
  <speed>0.7213875518748573</speed>
  <fix>3d</fix>
</trkpt>
<trkpt lat="33.8100489" lon="-118.3941662">
  <ele>-0.116</ele>
  <time>2026-09-02T22:07:22Z</time>
  <course>186.24</course>
  <speed>0.7213875518748573</speed>
  <fix>3d</fix>
</trkpt>
<trkpt lat="33.8100498" lon="-118.3941647">
  <ele>-0.1</ele>
  <time>2026-09-02T22:07:22Z</time>
  <course>223.26</course>
  <speed>0.73</speed>
  <fix>3d</fix>
</trkpt>
<trkpt lat="33.8100488" lon="-118.3941662">
  <ele>-0.116</ele>
  <time>2026-09-02T22:07:22Z</time>
  <course>186.24</course>
  <speed>0.7213875518748573</speed>
  <fix>3d</fix>
</trkpt>
<trkpt lat="33.8100487" lon="-118.3941664">
  <ele>-0.116</ele>
  <time>2026-09-02T22:07:22Z</time>
  <course>186.24</course>
  <speed>0.7213875518748573</speed>
  <fix>3d</fix>
</trkpt>
<trkpt lat="33.8100487" lon="-118.3941664">
  <ele>-0.116</ele>
  <time>2026-09-02T22:07:22Z</time>
  <course>186.24</course>
  <speed>0.7213875518748573</speed>
  <fix>3d</fix>
</trkpt>
<trkpt lat="33.8100487" lon="-118.3941665">
  <ele>-0.116</ele>
  <time>2026-09-02T22:07:22Z</time>
  <course>186.24</course>
  <speed>0.7213875518748573</speed>
  <fix>3d</fix>
</trkpt>
<trkpt lat="33.8100486" lon="-118.3941665">
  <ele>-0.116</ele>
  <time>2026-09-02T22:07:22Z</time>
  <course>186.24</course>
  <speed>0.7213875518748573</speed>
  <fix>3d</fix>
</trkpt>
<trkpt lat="33.8100486" lon="-118.3941665">
  <ele>-0.115</ele>
  <time>2026-09-02T22:07:22Z</time>
  <course>186.24</course>
  <speed>0.7213875518748573</speed>
  <fix>3d</fix>
</trkpt>
<trkpt lat="33.8100485" lon="-118.3941666">
  <ele>-0.116</ele>
  <time>2026-09-02T22:07:22Z</time>
  <course>186.24</course>
  <speed>0.7213875518748573</speed>
  <fix>3d</fix>
</trkpt>
<trkpt lat="33.8100485" lon="-118.3941666">
  <ele>-0.115</ele>
  <time>2026-09-02T22:07:22Z</time>
  <course>186.24</course>
  <speed>0.7213875518748573</speed>
  <fix>3d</fix>
</trkpt>
<trkpt lat="33.8100484" lon="-118.3941667">
  <ele>-0.115</ele>
  <time>2026-09-02T22:07:22Z</time>
  <course>186.24</course>
  <speed>0.7213875518748573</speed>
  <fix>3d</fix>
</trkpt>
<trkpt lat="33.8100484" lon="-118.3941667">
  <ele>-0.115</ele>
  <time>2026-09-02T22:07:22Z</time>
  <course>186.24</course>
  <speed>0.7213875518748573</speed>
  <fix>3d</fix>
</trkpt>
<trkpt lat="33.8100484" lon="-118.3941668">
  <ele>-0.115</ele>
  <time>2026-09-02T22:07:22Z</time>
  <course>186.24</course>
  <speed>0.7213875518748573</speed>
  <fix>3d</fix>
</trkpt>
<trkpt lat="33.8100488" lon="-118.3941658">
  <ele>-0.1</ele>
  <time>2026-09-02T22:07:22Z</time>
  <course>223.26</course>
  <speed>0.73</speed>
  <fix>3d</fix>
</trkpt>
<trkpt lat="33.8100484" lon="-118.3941668">
  <ele>-0.115</ele>
  <time>2026-09-02T22:07:22Z</time>
  <course>186.24</course>
  <speed>0.7213875518748573</speed>
  <fix>3d</fix>
</trkpt>
<trkpt lat="33.8100483" lon="-118.3941669">
  <ele>-0.115</ele>
  <time>2026-09-02T22:07:22Z</time>
  <course>186.24</course>
  <speed>0.7213875518748573</speed>
  <fix>3d</fix>
</trkpt>
<trkpt lat="33.8100482" lon="-118.3941669">
  <ele>-0.115</ele>
  <time>2026-09-02T22:07:22Z</time>
  <course>186.24</course>
  <speed>0.7213875518748573</speed>
  <fix>3d</fix>
</trkpt>
<trkpt lat="33.8100482" lon="-118.394167">
  <ele>-0.115</ele>
  <time>2026-09-02T22:07:22Z</time>
  <course>186.24</course>
  <speed>0.7213875518748573</speed>
  <fix>3d</fix>
</trkpt>
<trkpt lat="33.8100481" lon="-118.394167">
  <ele>-0.115</ele>
  <time>2026-09-02T22:07:22Z</time>
  <course>186.24</course>
  <speed>0.7213875518748573</speed>
  <fix>3d</fix>
</trkpt>
<trkpt lat="33.8100481" lon="-118.3941671">
  <ele>-0.115</ele>
  <time>2026-09-02T22:07:22Z</time>
  <course>186.24</course>
  <speed>0.7213875518748573</speed>
  <fix>3d</fix>
</trkpt>
<trkpt lat="33.810048" lon="-118.3941671">
  <ele>-0.115</ele>
  <time>2026-09-02T22:07:22Z</time>
  <course>186.24</course>
  <speed>0.7213875518748573</speed>
  <fix>3d</fix>
</trkpt>
<trkpt lat="33.810048" lon="-118.3941672">
  <ele>-0.115</ele>
  <time>2026-09-02T22:07:22Z</time>
  <course>186.24</course>
  <speed>0.7213875518748573</speed>
  <fix>3d</fix>
</trkpt>
<trkpt lat="33.810048" lon="-118.3941673">
  <ele>-0.115</ele>
  <time>2026-09-02T22:07:22Z</time>
  <course>186.24</course>
  <speed>0.7213875518748573</speed>
  <fix>3d</fix>
</trkpt>
<trkpt lat="33.8100479" lon="-118.3941673">
  <ele>-0.115</ele>
  <time>2026-09-02T22:07:22Z</time>
  <course>186.24</course>
  <speed>0.7213875518748573</speed>
  <fix>3d</fix>
</trkpt>
<trkpt lat="33.8100479" lon="-118.3941673">
  <ele>-0.115</ele>
  <time>2026-09-02T22:07:22Z</time>
  <course>186.24</course>
  <speed>0.7213875518748573</speed>
  <fix>3d</fix>
</trkpt>
<trkpt lat="33.8100488" lon="-118.3941658">
  <ele>-0.1</ele>
  <time>2026-09-02T22:07:22Z</time>
  <course>223.26</course>
  <speed>0.73</speed>
  <fix>3d</fix>
</trkpt>
<trkpt lat="33.8100479" lon="-118.3941673">
  <ele>-0.115</ele>
  <time>2026-09-02T22:07:22Z</time>
  <course>186.24</course>
  <speed>0.7213875518748573</speed>
  <fix>3d</fix>
</trkpt>
<trkpt lat="33.8100478" lon="-118.3941674">
  <ele>-0.115</ele>
  <time>2026-09-02T22:07:22Z</time>
  <course>186.24</course>
  <speed>0.7213875518748573</speed>
  <fix>3d</fix>
</trkpt>
<trkpt lat="33.8100477" lon="-118.3941675">
  <ele>-0.115</ele>
  <time>2026-09-02T22:07:22Z</time>
  <course>186.24</course>
  <speed>0.7213875518748573</speed>
  <fix>3d</fix>
</trkpt>
<trkpt lat="33.8100477" lon="-118.3941675">
  <ele>-0.115</ele>
  <time>2026-09-02T22:07:22Z</time>
  <course>186.24</course>
  <speed>0.7213875518748573</speed>
  <fix>3d</fix>
</trkpt>
<trkpt lat="33.8100477" lon="-118.3941676">
  <ele>-0.115</ele>
  <time>2026-09-02T22:07:22Z</time>
  <course>186.24</course>
  <speed>0.7213875518748573</speed>
  <fix>3d</fix>
</trkpt>
<trkpt lat="33.8100476" lon="-118.3941676">
  <ele>-0.115</ele>
  <time>2026-09-02T22:07:22Z</time>
  <course>186.24</course>
  <speed>0.7213875518748573</speed>
  <fix>3d</fix>
</trkpt>
<trkpt lat="33.8100476" lon="-118.3941677">
  <ele>-0.115</ele>
  <time>2026-09-02T22:07:22Z</time>
  <course>186.24</course>
  <speed>0.7213875518748573</speed>
  <fix>3d</fix>
</trkpt>
<trkpt lat="33.8100475" lon="-118.3941677">
  <ele>-0.115</ele>
  <time>2026-09-02T22:07:22Z</time>
  <course>186.24</course>
  <speed>0.7213875518748573</speed>
  <fix>3d</fix>
</trkpt>
<trkpt lat="33.8100475" lon="-118.3941678">
  <ele>-0.115</ele>
  <time>2026-09-02T22:07:22Z</time>
  <course>186.24</course>
  <speed>0.7213875518748573</speed>
  <fix>3d</fix>
</trkpt>
<trkpt lat="33.8100474" lon="-118.3941679">
  <ele>-0.115</ele>
  <time>2026-09-02T22:07:22Z</time>
  <course>186.24</course>
  <speed>0.7213875518748573</speed>
  <fix>3d</fix>
</trkpt>
<trkpt lat="33.8100474" lon="-118.3941679">
  <ele>-0.115</ele>
  <time>2026-09-02T22:07:22Z</time>
  <course>186.24</course>
  <speed>0.7213875518748573</speed>
  <fix>3d</fix>
</trkpt>
<trkpt lat="33.8100479" lon="-118.3941669">
  <ele>-0.1</ele>
  <time>2026-09-02T22:07:22Z</time>
  <course>223.26</course>
  <speed>0.73</speed>
  <fix>3d</fix>
</trkpt>
<trkpt lat="33.8100474" lon="-118.3941679">
  <ele>-0.115</ele>
  <time>2026-09-02T22:07:22Z</time>
  <course>186.24</course>
  <speed>0.7213875518748573</speed>
  <fix>3d</fix>
</trkpt>
<trkpt lat="33.8100473" lon="-118.394168">
  <ele>-0.114</ele>
  <time>2026-09-02T22:07:22Z</time>
  <course>186.24</course>
  <speed>0.7213875518748573</speed>
  <fix>3d</fix>
</trkpt>
<trkpt lat="33.8100473" lon="-118.394168">
  <ele>-0.114</ele>
  <time>2026-09-02T22:07:22Z</time>
  <course>186.24</course>
  <speed>0.7213875518748573</speed>
  <fix>3d</fix>
</trkpt>
<trkpt lat="33.8100472" lon="-118.3941681">
  <ele>-0.114</ele>
  <time>2026-09-02T22:07:22Z</time>
  <course>186.24</course>
  <speed>0.7213875518748573</speed>
  <fix>3d</fix>
</trkpt>
<trkpt lat="33.8100472" lon="-118.3941681">
  <ele>-0.114</ele>
  <time>2026-09-02T22:07:22Z</time>
  <course>186.24</course>
  <speed>0.7213875518748573</speed>
  <fix>3d</fix>
</trkpt>
<trkpt lat="33.8100471" lon="-118.3941682">
  <ele>-0.114</ele>
  <time>2026-09-02T22:07:22Z</time>
  <course>186.24</course>
  <speed>0.7213875518748573</speed>
  <fix>3d</fix>
</trkpt>
<trkpt lat="33.8100471" lon="-118.3941682">
  <ele>-0.114</ele>
  <time>2026-09-02T22:07:22Z</time>
  <course>186.24</course>
  <speed>0.7213875518748573</speed>
  <fix>3d</fix>
</trkpt>
<trkpt lat="33.8100471" lon="-118.3941683">
  <ele>-0.114</ele>
  <time>2026-09-02T22:07:22Z</time>
  <course>186.24</course>
  <speed>0.7213875518748573</speed>
  <fix>3d</fix>
</trkpt>
<trkpt lat="33.810047" lon="-118.3941683">
  <ele>-0.114</ele>
  <time>2026-09-02T22:07:22Z</time>
  <course>186.24</course>
  <speed>0.7213875518748573</speed>
  <fix>3d</fix>
</trkpt>
<trkpt lat="33.810047" lon="-118.3941684">
  <ele>-0.114</ele>
  <time>2026-09-02T22:07:22Z</time>
  <course>186.24</course>
  <speed>0.7213875518748573</speed>
  <fix>3d</fix>
</trkpt>
<trkpt lat="33.8100469" lon="-118.3941684">
  <ele>-0.114</ele>
  <time>2026-09-02T22:07:22Z</time>
  <course>186.24</course>
  <speed>0.7213875518748573</speed>
  <fix>3d</fix>
</trkpt>
<trkpt lat="33.8100479" lon="-118.3941669">
  <ele>-0.1</ele>
  <time>2026-09-02T22:07:22Z</time>
  <course>223.26</course>
  <speed>0.73</speed>
  <fix>3d</fix>
</trkpt>
<trkpt lat="33.8100469" lon="-118.3941684">
  <ele>-0.114</ele>
  <time>2026-09-02T22:07:22Z</time>
  <course>186.24</course>
  <speed>0.7213875518748573</speed>
  <fix>3d</fix>
</trkpt>
<trkpt lat="33.8100468" lon="-118.3941686">
  <ele>-0.114</ele>
  <time>2026-09-02T22:07:22Z</time>
  <course>186.24</course>
  <speed>0.7213875518748573</speed>
  <fix>3d</fix>
</trkpt>
<trkpt lat="33.8100467" lon="-118.3941686">
  <ele>-0.114</ele>
  <time>2026-09-02T22:07:22Z</time>
  <course>186.24</course>
  <speed>0.7213875518748573</speed>
  <fix>3d</fix>
</trkpt>
<trkpt lat="33.8100467" lon="-118.3941687">
  <ele>-0.114</ele>
  <time>2026-09-02T22:07:22Z</time>
  <course>186.24</course>
  <speed>0.7213875518748573</speed>
  <fix>3d</fix>
</trkpt>
<trkpt lat="33.8100467" lon="-118.3941687">
  <ele>-0.114</ele>
  <time>2026-09-02T22:07:22Z</time>
  <course>186.24</course>
  <speed>0.7213875518748573</speed>
  <fix>3d</fix>
</trkpt>
<trkpt lat="33.8100466" lon="-118.3941688">
  <ele>-0.114</ele>
  <time>2026-09-02T22:07:22Z</time>
  <course>186.24</course>
  <speed>0.7213875518748573</speed>
  <fix>3d</fix>
</trkpt>
<trkpt lat="33.8100466" lon="-118.3941688">
  <ele>-0.114</ele>
  <time>2026-09-02T22:07:22Z</time>
  <course>186.24</course>
  <speed>0.7213875518748573</speed>
  <fix>3d</fix>
</trkpt>
<trkpt lat="33.8100465" lon="-118.3941689">
  <ele>-0.114</ele>
  <time>2026-09-02T22:07:22Z</time>
  <course>186.24</course>
  <speed>0.7213875518748573</speed>
  <fix>3d</fix>
</trkpt>
<trkpt lat="33.8100465" lon="-118.3941689">
  <ele>-0.114</ele>
  <time>2026-09-02T22:07:22Z</time>
  <course>186.24</course>
  <speed>0.7213875518748573</speed>
  <fix>3d</fix>
</trkpt>
<trkpt lat="33.8100464" lon="-118.394169">
  <ele>-0.114</ele>
  <time>2026-09-02T22:07:22Z</time>
  <course>186.24</course>
  <speed>0.7213875518748573</speed>
  <fix>3d</fix>
</trkpt>
<trkpt lat="33.8100469" lon="-118.394168">
  <ele>-0.11</ele>
  <time>2026-09-02T22:07:22Z</time>
  <course>223.26</course>
  <speed>0.73</speed>
  <fix>3d</fix>
</trkpt>
<trkpt lat="33.8100464" lon="-118.394169">
  <ele>-0.114</ele>
  <time>2026-09-02T22:07:22Z</time>
  <course>186.24</course>
  <speed>0.7213875518748573</speed>
  <fix>3d</fix>
</trkpt>
<trkpt lat="33.8100463" lon="-118.3941691">
  <ele>-0.114</ele>
  <time>2026-09-02T22:07:22Z</time>
  <course>186.24</course>
  <speed>0.7213875518748573</speed>
  <fix>3d</fix>
</trkpt>
<trkpt lat="33.8100463" lon="-118.3941691">
  <ele>-0.114</ele>
  <time>2026-09-02T22:07:22Z</time>
  <course>186.24</course>
  <speed>0.7213875518748573</speed>
  <fix>3d</fix>
</trkpt>
<trkpt lat="33.8100462" lon="-118.3941692">
  <ele>-0.114</ele>
  <time>2026-09-02T22:07:22Z</time>
  <course>186.24</course>
  <speed>0.7213875518748573</speed>
  <fix>3d</fix>
</trkpt>
<trkpt lat="33.8100462" lon="-118.3941692">
  <ele>-0.114</ele>
  <time>2026-09-02T22:07:22Z</time>
  <course>186.24</course>
  <speed>0.7213875518748573</speed>
  <fix>3d</fix>
</trkpt>
<trkpt lat="33.8100462" lon="-118.3941693">
  <ele>-0.114</ele>
  <time>2026-09-02T22:07:22Z</time>
  <course>186.24</course>
  <speed>0.7213875518748573</speed>
  <fix>3d</fix>
</trkpt>
<trkpt lat="33.8100461" lon="-118.3941693">
  <ele>-0.114</ele>
  <time>2026-09-02T22:07:22Z</time>
  <course>186.24</course>
  <speed>0.7213875518748573</speed>
  <fix>3d</fix>
</trkpt>
<trkpt lat="33.8100461" lon="-118.3941694">
  <ele>-0.114</ele>
  <time>2026-09-02T22:07:22Z</time>
  <course>186.24</course>
  <speed>0.7213875518748573</speed>
  <fix>3d</fix>
</trkpt>
<trkpt lat="33.8100461" lon="-118.3941694">
  <ele>-0.114</ele>
  <time>2026-09-02T22:07:22Z</time>
  <course>186.24</course>
  <speed>0.7213875518748573</speed>
  <fix>3d</fix>
</trkpt>
<trkpt lat="33.810046" lon="-118.3941695">
  <ele>-0.114</ele>
  <time>2026-09-02T22:07:22Z</time>
  <course>186.24</course>
  <speed>0.7213875518748573</speed>
  <fix>3d</fix>
</trkpt>
<trkpt lat="33.810046" lon="-118.3941695">
  <ele>-0.114</ele>
  <time>2026-09-02T22:07:22Z</time>
  <course>186.24</course>
  <speed>0.7213875518748573</speed>
  <fix>3d</fix>
</trkpt>
<trkpt lat="33.8100469" lon="-118.394168">
  <ele>-0.11</ele>
  <time>2026-09-02T22:07:22Z</time>
  <course>223.26</course>
  <speed>0.73</speed>
  <fix>3d</fix>
</trkpt>
<trkpt lat="33.810046" lon="-118.3941695">
  <ele>-0.114</ele>
  <time>2026-09-02T22:07:22Z</time>
  <course>186.24</course>
  <speed>0.7213875518748573</speed>
  <fix>3d</fix>
</trkpt>
<trkpt lat="33.8100459" lon="-118.3941696">
  <ele>-0.114</ele>
  <time>2026-09-02T22:07:22Z</time>
  <course>186.24</course>
  <speed>0.7213875518748573</speed>
  <fix>3d</fix>
</trkpt>
<trkpt lat="33.8100458" lon="-118.3941697">
  <ele>-0.114</ele>
  <time>2026-09-02T22:07:22Z</time>
  <course>186.24</course>
  <speed>0.7213875518748573</speed>
  <fix>3d</fix>
</trkpt>
<trkpt lat="33.8100458" lon="-118.3941698">
  <ele>-0.114</ele>
  <time>2026-09-02T22:07:22Z</time>
  <course>186.24</course>
  <speed>0.7213875518748573</speed>
  <fix>3d</fix>
</trkpt>
<trkpt lat="33.8100457" lon="-118.3941698">
  <ele>-0.114</ele>
  <time>2026-09-02T22:07:22Z</time>
  <course>186.24</course>
  <speed>0.7213875518748573</speed>
  <fix>3d</fix>
</trkpt>
<trkpt lat="33.8100457" lon="-118.3941699">
  <ele>-0.114</ele>
  <time>2026-09-02T22:07:22Z</time>
  <course>186.24</course>
  <speed>0.7213875518748573</speed>
  <fix>3d</fix>
</trkpt>
<trkpt lat="33.8100456" lon="-118.3941699">
  <ele>-0.114</ele>
  <time>2026-09-02T22:07:22Z</time>
  <course>186.24</course>
  <speed>0.7213875518748573</speed>
  <fix>3d</fix>
</trkpt>
<trkpt lat="33.8100456" lon="-118.39417">
  <ele>-0.114</ele>
  <time>2026-09-02T22:07:22Z</time>
  <course>186.24</course>
  <speed>0.7213875518748573</speed>
  <fix>3d</fix>
</trkpt>
<trkpt lat="33.8100455" lon="-118.39417">
  <ele>-0.114</ele>
  <time>2026-09-02T22:07:22Z</time>
  <course>186.24</course>
  <speed>0.7213875518748573</speed>
  <fix>3d</fix>
</trkpt>
<trkpt lat="33.8100455" lon="-118.3941701">
  <ele>-0.114</ele>
  <time>2026-09-02T22:07:22Z</time>
  <course>186.24</course>
  <speed>0.7213875518748573</speed>
  <fix>3d</fix>
</trkpt>
<trkpt lat="33.810046" lon="-118.3941691">
  <ele>-0.1</ele>
  <time>2026-09-02T22:07:22Z</time>
  <course>223.26</course>
  <speed>0.73</speed>
  <fix>3d</fix>
</trkpt>
<trkpt lat="33.8100455" lon="-118.3941701">
  <ele>-0.114</ele>
  <time>2026-09-02T22:07:22Z</time>
  <course>186.24</course>
  <speed>0.7213875518748573</speed>
  <fix>3d</fix>
</trkpt>
<trkpt lat="33.8100454" lon="-118.3941701">
  <ele>-0.114</ele>
  <time>2026-09-02T22:07:22Z</time>
  <course>186.24</course>
  <speed>0.7213875518748573</speed>
  <fix>3d</fix>
</trkpt>
<trkpt lat="33.8100454" lon="-118.3941702">
  <ele>-0.114</ele>
  <time>2026-09-02T22:07:22Z</time>
  <course>186.24</course>
  <speed>0.7213875518748573</speed>
  <fix>3d</fix>
</trkpt>
<trkpt lat="33.8100453" lon="-118.3941702">
  <ele>-0.114</ele>
  <time>2026-09-02T22:07:22Z</time>
  <course>186.24</course>
  <speed>0.7213875518748573</speed>
  <fix>3d</fix>
</trkpt>
<trkpt lat="33.8100453" lon="-118.3941703">
  <ele>-0.114</ele>
  <time>2026-09-02T22:07:22Z</time>
  <course>186.24</course>
  <speed>0.7213875518748573</speed>
  <fix>3d</fix>
</trkpt>
<trkpt lat="33.8100452" lon="-118.3941703">
  <ele>-0.114</ele>
  <time>2026-09-02T22:07:22Z</time>
  <course>186.24</course>
  <speed>0.7213875518748573</speed>
  <fix>3d</fix>
</trkpt>
<trkpt lat="33.8100452" lon="-118.3941704">
  <ele>-0.113</ele>
  <time>2026-09-02T22:07:22Z</time>
  <course>186.24</course>
  <speed>0.7213875518748573</speed>
  <fix>3d</fix>
</trkpt>
<trkpt lat="33.8100451" lon="-118.3941704">
  <ele>-0.113</ele>
  <time>2026-09-02T22:07:22Z</time>
  <course>186.24</course>
  <speed>0.7213875518748573</speed>
  <fix>3d</fix>
</trkpt>
<trkpt lat="33.8100451" lon="-118.3941705">
  <ele>-0.113</ele>
  <time>2026-09-02T22:07:22Z</time>
  <course>186.24</course>
  <speed>0.7213875518748573</speed>
  <fix>3d</fix>
</trkpt>
<trkpt lat="33.810045" lon="-118.3941706">
  <ele>-0.113</ele>
  <time>2026-09-02T22:07:22Z</time>
  <course>186.24</course>
  <speed>0.7213875518748573</speed>
  <fix>3d</fix>
</trkpt>
<trkpt lat="33.810045" lon="-118.3941706">
  <ele>-0.113</ele>
  <time>2026-09-02T22:07:22Z</time>
  <course>186.24</course>
  <speed>0.7213875518748573</speed>
  <fix>3d</fix>
</trkpt>
<trkpt lat="33.810046" lon="-118.3941691">
  <ele>-0.1</ele>
  <time>2026-09-02T22:07:22Z</time>
  <course>223.26</course>
  <speed>0.73</speed>
  <fix>3d</fix>
</trkpt>
<trkpt lat="33.810045" lon="-118.3941706">
  <ele>-0.113</ele>
  <time>2026-09-02T22:07:22Z</time>
  <course>186.24</course>
  <speed>0.7213875518748573</speed>
  <fix>3d</fix>
</trkpt>
<trkpt lat="33.8100449" lon="-118.3941707">
  <ele>-0.113</ele>
  <time>2026-09-02T22:07:23Z</time>
  <course>186.24</course>
  <speed>0.7213875518748573</speed>
  <fix>3d</fix>
</trkpt>
<trkpt lat="33.8100449" lon="-118.3941708">
  <ele>-0.113</ele>
  <time>2026-09-02T22:07:23Z</time>
  <course>186.24</course>
  <speed>0.7213875518748573</speed>
  <fix>3d</fix>
</trkpt>
<trkpt lat="33.8100448" lon="-118.3941708">
  <ele>-0.113</ele>
  <time>2026-09-02T22:07:23Z</time>
  <course>186.24</course>
  <speed>0.7213875518748573</speed>
  <fix>3d</fix>
</trkpt>
<trkpt lat="33.8100448" lon="-118.3941709">
  <ele>-0.112</ele>
  <time>2026-09-02T22:07:23Z</time>
  <course>186.24</course>
  <speed>0.7213875518748573</speed>
  <fix>3d</fix>
</trkpt>
<trkpt lat="33.8100447" lon="-118.3941709">
  <ele>-0.112</ele>
  <time>2026-09-02T22:07:23Z</time>
  <course>186.24</course>
  <speed>0.7213875518748573</speed>
  <fix>3d</fix>
</trkpt>
<trkpt lat="33.8100447" lon="-118.394171">
  <ele>-0.112</ele>
  <time>2026-09-02T22:07:23Z</time>
  <course>186.24</course>
  <speed>0.7213875518748573</speed>
  <fix>3d</fix>
</trkpt>
<trkpt lat="33.8100446" lon="-118.394171">
  <ele>-0.112</ele>
  <time>2026-09-02T22:07:23Z</time>
  <course>186.24</course>
  <speed>0.7213875518748573</speed>
  <fix>3d</fix>
</trkpt>
<trkpt lat="33.8100446" lon="-118.3941711">
  <ele>-0.112</ele>
  <time>2026-09-02T22:07:23Z</time>
  <course>186.24</course>
  <speed>0.7213875518748573</speed>
  <fix>3d</fix>
</trkpt>
<trkpt lat="33.8100445" lon="-118.3941711">
  <ele>-0.111</ele>
  <time>2026-09-02T22:07:23Z</time>
  <course>186.24</course>
  <speed>0.7213875518748573</speed>
  <fix>3d</fix>
</trkpt>
<trkpt lat="33.8100445" lon="-118.3941711">
  <ele>-0.111</ele>
  <time>2026-09-02T22:07:23Z</time>
  <course>186.24</course>
  <speed>0.7213875518748573</speed>
  <fix>3d</fix>
</trkpt>
<trkpt lat="33.810045" lon="-118.3941702">
  <ele>-0.1</ele>
  <time>2026-09-02T22:07:23Z</time>
  <course>223.26</course>
  <speed>0.73</speed>
  <fix>3d</fix>
</trkpt>
<trkpt lat="33.8100445" lon="-118.3941712">
  <ele>-0.111</ele>
  <time>2026-09-02T22:07:23Z</time>
  <course>186.24</course>
  <speed>0.7213875518748573</speed>
  <fix>3d</fix>
</trkpt>
<trkpt lat="33.8100445" lon="-118.3941712">
  <ele>-0.111</ele>
  <time>2026-09-02T22:07:23Z</time>
  <course>186.24</course>
  <speed>0.7213875518748573</speed>
  <fix>3d</fix>
</trkpt>
<trkpt lat="33.8100444" lon="-118.3941713">
  <ele>-0.111</ele>
  <time>2026-09-02T22:07:23Z</time>
  <course>186.24</course>
  <speed>0.7213875518748573</speed>
  <fix>3d</fix>
</trkpt>
<trkpt lat="33.8100444" lon="-118.3941713">
  <ele>-0.111</ele>
  <time>2026-09-02T22:07:23Z</time>
  <course>186.24</course>
  <speed>0.7213875518748573</speed>
  <fix>3d</fix>
</trkpt>
<trkpt lat="33.8100443" lon="-118.3941714">
  <ele>-0.111</ele>
  <time>2026-09-02T22:07:23Z</time>
  <course>186.24</course>
  <speed>0.7213875518748573</speed>
  <fix>3d</fix>
</trkpt>
<trkpt lat="33.8100443" lon="-118.3941714">
  <ele>-0.111</ele>
  <time>2026-09-02T22:07:23Z</time>
  <course>186.24</course>
  <speed>0.7213875518748573</speed>
  <fix>3d</fix>
</trkpt>
<trkpt lat="33.8100442" lon="-118.3941715">
  <ele>-0.11</ele>
  <time>2026-09-02T22:07:23Z</time>
  <course>186.24</course>
  <speed>0.7213875518748573</speed>
  <fix>3d</fix>
</trkpt>
<trkpt lat="33.8100442" lon="-118.3941715">
  <ele>-0.11</ele>
  <time>2026-09-02T22:07:23Z</time>
  <course>186.24</course>
  <speed>0.7213875518748573</speed>
  <fix>3d</fix>
</trkpt>
<trkpt lat="33.8100441" lon="-118.3941716">
  <ele>-0.11</ele>
  <time>2026-09-02T22:07:23Z</time>
  <course>186.24</course>
  <speed>0.7213875518748573</speed>
  <fix>3d</fix>
</trkpt>
<trkpt lat="33.8100441" lon="-118.3941717">
  <ele>-0.11</ele>
  <time>2026-09-02T22:07:23Z</time>
  <course>186.24</course>
  <speed>0.7213875518748573</speed>
  <fix>3d</fix>
</trkpt>
<trkpt lat="33.810044" lon="-118.3941717">
  <ele>-0.11</ele>
  <time>2026-09-02T22:07:23Z</time>
  <course>186.24</course>
  <speed>0.7213875518748573</speed>
  <fix>3d</fix>
</trkpt>
<trkpt lat="33.810045" lon="-118.3941702">
  <ele>-0.1</ele>
  <time>2026-09-02T22:07:23Z</time>
  <course>223.26</course>
  <speed>0.73</speed>
  <fix>3d</fix>
</trkpt>
<trkpt lat="33.810044" lon="-118.3941717">
  <ele>-0.11</ele>
  <time>2026-09-02T22:07:23Z</time>
  <course>186.24</course>
  <speed>0.7213875518748573</speed>
  <fix>3d</fix>
</trkpt>
<trkpt lat="33.810044" lon="-118.3941718">
  <ele>-0.11</ele>
  <time>2026-09-02T22:07:23Z</time>
  <course>186.24</course>
  <speed>0.7213875518748573</speed>
  <fix>3d</fix>
</trkpt>
<trkpt lat="33.8100439" lon="-118.3941718">
  <ele>-0.11</ele>
  <time>2026-09-02T22:07:23Z</time>
  <course>186.24</course>
  <speed>0.7213875518748573</speed>
  <fix>3d</fix>
</trkpt>
<trkpt lat="33.8100439" lon="-118.3941719">
  <ele>-0.11</ele>
  <time>2026-09-02T22:07:23Z</time>
  <course>186.24</course>
  <speed>0.7213875518748573</speed>
  <fix>3d</fix>
</trkpt>
<trkpt lat="33.8100438" lon="-118.3941719">
  <ele>-0.11</ele>
  <time>2026-09-02T22:07:23Z</time>
  <course>186.24</course>
  <speed>0.7213875518748573</speed>
  <fix>3d</fix>
</trkpt>
<trkpt lat="33.8100438" lon="-118.394172">
  <ele>-0.11</ele>
  <time>2026-09-02T22:07:23Z</time>
  <course>186.24</course>
  <speed>0.7213875518748573</speed>
  <fix>3d</fix>
</trkpt>
<trkpt lat="33.8100438" lon="-118.394172">
  <ele>-0.11</ele>
  <time>2026-09-02T22:07:23Z</time>
  <course>186.24</course>
  <speed>0.7213875518748573</speed>
  <fix>3d</fix>
</trkpt>
<trkpt lat="33.8100437" lon="-118.3941721">
  <ele>-0.11</ele>
  <time>2026-09-02T22:07:23Z</time>
  <course>186.24</course>
  <speed>0.7213875518748573</speed>
  <fix>3d</fix>
</trkpt>
<trkpt lat="33.8100437" lon="-118.3941721">
  <ele>-0.11</ele>
  <time>2026-09-02T22:07:23Z</time>
  <course>186.24</course>
  <speed>0.7213875518748573</speed>
  <fix>3d</fix>
</trkpt>
<trkpt lat="33.8100436" lon="-118.3941722">
  <ele>-0.11</ele>
  <time>2026-09-02T22:07:23Z</time>
  <course>186.24</course>
  <speed>0.7213875518748573</speed>
  <fix>3d</fix>
</trkpt>
<trkpt lat="33.8100436" lon="-118.3941722">
  <ele>-0.11</ele>
  <time>2026-09-02T22:07:23Z</time>
  <course>186.24</course>
  <speed>0.7213875518748573</speed>
  <fix>3d</fix>
</trkpt>
<trkpt lat="33.8100436" lon="-118.3941722">
  <ele>-0.11</ele>
  <time>2026-09-02T22:07:23Z</time>
  <course>186.24</course>
  <speed>0.7213875518748573</speed>
  <fix>3d</fix>
</trkpt>
<trkpt lat="33.810044" lon="-118.3941713">
  <ele>-0.1</ele>
  <time>2026-09-02T22:07:23Z</time>
  <course>223.26</course>
  <speed>0.73</speed>
  <fix>3d</fix>
</trkpt>
<trkpt lat="33.8100436" lon="-118.3941723">
  <ele>-0.11</ele>
  <time>2026-09-02T22:07:23Z</time>
  <course>186.24</course>
  <speed>0.7213875518748573</speed>
  <fix>3d</fix>
</trkpt>
<trkpt lat="33.8100435" lon="-118.3941724">
  <ele>-0.109</ele>
  <time>2026-09-02T22:07:23Z</time>
  <course>186.24</course>
  <speed>0.7213875518748573</speed>
  <fix>3d</fix>
</trkpt>
<trkpt lat="33.8100434" lon="-118.3941724">
  <ele>-0.109</ele>
  <time>2026-09-02T22:07:23Z</time>
  <course>186.24</course>
  <speed>0.7213875518748573</speed>
  <fix>3d</fix>
</trkpt>
<trkpt lat="33.8100434" lon="-118.3941725">
  <ele>-0.109</ele>
  <time>2026-09-02T22:07:23Z</time>
  <course>186.24</course>
  <speed>0.7213875518748573</speed>
  <fix>3d</fix>
</trkpt>
<trkpt lat="33.8100433" lon="-118.3941725">
  <ele>-0.109</ele>
  <time>2026-09-02T22:07:23Z</time>
  <course>186.24</course>
  <speed>0.7213875518748573</speed>
  <fix>3d</fix>
</trkpt>
<trkpt lat="33.8100433" lon="-118.3941726">
  <ele>-0.109</ele>
  <time>2026-09-02T22:07:23Z</time>
  <course>186.24</course>
  <speed>0.7213875518748573</speed>
  <fix>3d</fix>
</trkpt>
<trkpt lat="33.8100432" lon="-118.3941726">
  <ele>-0.109</ele>
  <time>2026-09-02T22:07:23Z</time>
  <course>186.24</course>
  <speed>0.7213875518748573</speed>
  <fix>3d</fix>
</trkpt>
<trkpt lat="33.8100432" lon="-118.3941727">
  <ele>-0.109</ele>
  <time>2026-09-02T22:07:23Z</time>
  <course>186.24</course>
  <speed>0.7213875518748573</speed>
  <fix>3d</fix>
</trkpt>
<trkpt lat="33.8100431" lon="-118.3941727">
  <ele>-0.109</ele>
  <time>2026-09-02T22:07:23Z</time>
  <course>186.24</course>
  <speed>0.7213875518748573</speed>
  <fix>3d</fix>
</trkpt>
<trkpt lat="33.8100431" lon="-118.3941728">
  <ele>-0.109</ele>
  <time>2026-09-02T22:07:23Z</time>
  <course>186.24</course>
  <speed>0.7213875518748573</speed>
  <fix>3d</fix>
</trkpt>
<trkpt lat="33.8100431" lon="-118.3941728">
  <ele>-0.109</ele>
  <time>2026-09-02T22:07:23Z</time>
  <course>186.24</course>
  <speed>0.7213875518748573</speed>
  <fix>3d</fix>
</trkpt>
<trkpt lat="33.810044" lon="-118.3941713">
  <ele>-0.1</ele>
  <time>2026-09-02T22:07:23Z</time>
  <course>223.26</course>
  <speed>0.73</speed>
  <fix>3d</fix>
</trkpt>
<trkpt lat="33.8100431" lon="-118.3941728">
  <ele>-0.109</ele>
  <time>2026-09-02T22:07:23Z</time>
  <course>186.24</course>
  <speed>0.7213875518748573</speed>
  <fix>3d</fix>
</trkpt>
<trkpt lat="33.810043" lon="-118.3941729">
  <ele>-0.109</ele>
  <time>2026-09-02T22:07:23Z</time>
  <course>186.24</course>
  <speed>0.7213875518748573</speed>
  <fix>3d</fix>
</trkpt>
<trkpt lat="33.8100429" lon="-118.394173">
  <ele>-0.109</ele>
  <time>2026-09-02T22:07:23Z</time>
  <course>186.24</course>
  <speed>0.7213875518748573</speed>
  <fix>3d</fix>
</trkpt>
<trkpt lat="33.8100429" lon="-118.394173">
  <ele>-0.109</ele>
  <time>2026-09-02T22:07:23Z</time>
  <course>186.24</course>
  <speed>0.7213875518748573</speed>
  <fix>3d</fix>
</trkpt>
<trkpt lat="33.8100428" lon="-118.3941731">
  <ele>-0.109</ele>
  <time>2026-09-02T22:07:23Z</time>
  <course>186.24</course>
  <speed>0.7213875518748573</speed>
  <fix>3d</fix>
</trkpt>
<trkpt lat="33.8100428" lon="-118.3941731">
  <ele>-0.109</ele>
  <time>2026-09-02T22:07:23Z</time>
  <course>186.24</course>
  <speed>0.7213875518748573</speed>
  <fix>3d</fix>
</trkpt>
<trkpt lat="33.8100428" lon="-118.3941732">
  <ele>-0.109</ele>
  <time>2026-09-02T22:07:23Z</time>
  <course>186.24</course>
  <speed>0.7213875518748573</speed>
  <fix>3d</fix>
</trkpt>
<trkpt lat="33.8100427" lon="-118.3941732">
  <ele>-0.109</ele>
  <time>2026-09-02T22:07:23Z</time>
  <course>186.24</course>
  <speed>0.7213875518748573</speed>
  <fix>3d</fix>
</trkpt>
<trkpt lat="33.8100427" lon="-118.3941733">
  <ele>-0.109</ele>
  <time>2026-09-02T22:07:23Z</time>
  <course>186.24</course>
  <speed>0.7213875518748573</speed>
  <fix>3d</fix>
</trkpt>
<trkpt lat="33.8100426" lon="-118.3941733">
  <ele>-0.109</ele>
  <time>2026-09-02T22:07:23Z</time>
  <course>186.24</course>
  <speed>0.7213875518748573</speed>
  <fix>3d</fix>
</trkpt>
<trkpt lat="33.8100426" lon="-118.3941733">
  <ele>-0.109</ele>
  <time>2026-09-02T22:07:23Z</time>
  <course>186.24</course>
  <speed>0.7213875518748573</speed>
  <fix>3d</fix>
</trkpt>
<trkpt lat="33.8100431" lon="-118.3941723">
  <ele>-0.1</ele>
  <time>2026-09-02T22:07:23Z</time>
  <course>223.26</course>
  <speed>0.73</speed>
  <fix>3d</fix>
</trkpt>
<trkpt lat="33.8100425" lon="-118.3941734">
  <ele>-0.108</ele>
  <time>2026-09-02T22:07:23Z</time>
  <course>186.24</course>
  <speed>0.7213875518748573</speed>
  <fix>3d</fix>
</trkpt>
<trkpt lat="33.8100425" lon="-118.3941735">
  <ele>-0.108</ele>
  <time>2026-09-02T22:07:23Z</time>
  <course>186.24</course>
  <speed>0.7213875518748573</speed>
  <fix>3d</fix>
</trkpt>
<trkpt lat="33.8100424" lon="-118.3941735">
  <ele>-0.108</ele>
  <time>2026-09-02T22:07:23Z</time>
  <course>186.24</course>
  <speed>0.7213875518748573</speed>
  <fix>3d</fix>
</trkpt>
<trkpt lat="33.8100424" lon="-118.3941736">
  <ele>-0.108</ele>
  <time>2026-09-02T22:07:23Z</time>
  <course>186.24</course>
  <speed>0.7213875518748573</speed>
  <fix>3d</fix>
</trkpt>
<trkpt lat="33.8100424" lon="-118.3941736">
  <ele>-0.108</ele>
  <time>2026-09-02T22:07:23Z</time>
  <course>186.24</course>
  <speed>0.7213875518748573</speed>
  <fix>3d</fix>
</trkpt>
<trkpt lat="33.8100423" lon="-118.3941736">
  <ele>-0.108</ele>
  <time>2026-09-02T22:07:23Z</time>
  <course>186.24</course>
  <speed>0.7213875518748573</speed>
  <fix>3d</fix>
</trkpt>
<trkpt lat="33.8100423" lon="-118.3941737">
  <ele>-0.108</ele>
  <time>2026-09-02T22:07:23Z</time>
  <course>186.24</course>
  <speed>0.7213875518748573</speed>
  <fix>3d</fix>
</trkpt>
<trkpt lat="33.8100422" lon="-118.3941737">
  <ele>-0.108</ele>
  <time>2026-09-02T22:07:23Z</time>
  <course>186.24</course>
  <speed>0.7213875518748573</speed>
  <fix>3d</fix>
</trkpt>
<trkpt lat="33.8100422" lon="-118.3941738">
  <ele>-0.108</ele>
  <time>2026-09-02T22:07:23Z</time>
  <course>186.24</course>
  <speed>0.7213875518748573</speed>
  <fix>3d</fix>
</trkpt>
<trkpt lat="33.8100421" lon="-118.3941739">
  <ele>-0.108</ele>
  <time>2026-09-02T22:07:23Z</time>
  <course>186.24</course>
  <speed>0.7213875518748573</speed>
  <fix>3d</fix>
</trkpt>
<trkpt lat="33.8100421" lon="-118.3941739">
  <ele>-0.108</ele>
  <time>2026-09-02T22:07:23Z</time>
  <course>186.24</course>
  <speed>0.7213875518748573</speed>
  <fix>3d</fix>
</trkpt>
<trkpt lat="33.8100431" lon="-118.3941723">
  <ele>-0.1</ele>
  <time>2026-09-02T22:07:23Z</time>
  <course>223.26</course>
  <speed>0.73</speed>
  <fix>3d</fix>
</trkpt>
<trkpt lat="33.8100419" lon="-118.3941741">
  <ele>-0.107</ele>
  <time>2026-09-02T22:07:23Z</time>
  <course>186.24</course>
  <speed>0.7213875518748573</speed>
  <fix>3d</fix>
</trkpt>
<trkpt lat="33.8100419" lon="-118.3941741">
  <ele>-0.107</ele>
  <time>2026-09-02T22:07:23Z</time>
  <course>186.24</course>
  <speed>0.7213875518748573</speed>
  <fix>3d</fix>
</trkpt>
<trkpt lat="33.8100418" lon="-118.3941742">
  <ele>-0.107</ele>
  <time>2026-09-02T22:07:23Z</time>
  <course>186.24</course>
  <speed>0.7213875518748573</speed>
  <fix>3d</fix>
</trkpt>
<trkpt lat="33.8100418" lon="-118.3941743">
  <ele>-0.107</ele>
  <time>2026-09-02T22:07:23Z</time>
  <course>186.24</course>
  <speed>0.7213875518748573</speed>
  <fix>3d</fix>
</trkpt>
<trkpt lat="33.8100417" lon="-118.3941743">
  <ele>-0.107</ele>
  <time>2026-09-02T22:07:23Z</time>
  <course>186.24</course>
  <speed>0.7213875518748573</speed>
  <fix>3d</fix>
</trkpt>
<trkpt lat="33.8100417" lon="-118.3941744">
  <ele>-0.106</ele>
  <time>2026-09-02T22:07:23Z</time>
  <course>186.24</course>
  <speed>0.7213875518748573</speed>
  <fix>3d</fix>
</trkpt>
<trkpt lat="33.8100416" lon="-118.3941744">
  <ele>-0.106</ele>
  <time>2026-09-02T22:07:23Z</time>
  <course>186.24</course>
  <speed>0.7213875518748573</speed>
  <fix>3d</fix>
</trkpt>
<trkpt lat="33.810042" lon="-118.3941734">
  <ele>-0.11</ele>
  <time>2026-09-02T22:07:23Z</time>
  <course>223.26</course>
  <speed>0.73</speed>
  <fix>3d</fix>
</trkpt>
<trkpt lat="33.8100416" lon="-118.3941744">
  <ele>-0.106</ele>
  <time>2026-09-02T22:07:23Z</time>
  <course>186.24</course>
  <speed>0.7213875518748573</speed>
  <fix>3d</fix>
</trkpt>
<trkpt lat="33.8100415" lon="-118.3941746">
  <ele>-0.106</ele>
  <time>2026-09-02T22:07:23Z</time>
  <course>186.24</course>
  <speed>0.7283543093852057</speed>
  <fix>3d</fix>
</trkpt>
<trkpt lat="33.8100414" lon="-118.3941747">
  <ele>-0.105</ele>
  <time>2026-09-02T22:07:23Z</time>
  <course>186.24</course>
  <speed>0.7283543093852057</speed>
  <fix>3d</fix>
</trkpt>
<trkpt lat="33.8100414" lon="-118.3941747">
  <ele>-0.105</ele>
  <time>2026-09-02T22:07:23Z</time>
  <course>186.24</course>
  <speed>0.7283543093852057</speed>
  <fix>3d</fix>
</trkpt>
<trkpt lat="33.8100413" lon="-118.3941748">
  <ele>-0.105</ele>
  <time>2026-09-02T22:07:23Z</time>
  <course>186.24</course>
  <speed>0.7213875518748573</speed>
  <fix>3d</fix>
</trkpt>
<trkpt lat="33.8100413" lon="-118.3941748">
  <ele>-0.105</ele>
  <time>2026-09-02T22:07:23Z</time>
  <course>186.24</course>
  <speed>0.7283543093852057</speed>
  <fix>3d</fix>
</trkpt>
<trkpt lat="33.8100412" lon="-118.3941749">
  <ele>-0.104</ele>
  <time>2026-09-02T22:07:23Z</time>
  <course>186.24</course>
  <speed>0.7283543093852057</speed>
  <fix>3d</fix>
</trkpt>
<trkpt lat="33.8100412" lon="-118.394175">
  <ele>-0.104</ele>
  <time>2026-09-02T22:07:23Z</time>
  <course>186.24</course>
  <speed>0.7283543093852057</speed>
  <fix>3d</fix>
</trkpt>
<trkpt lat="33.8100412" lon="-118.394175">
  <ele>-0.104</ele>
  <time>2026-09-02T22:07:23Z</time>
  <course>186.24</course>
  <speed>0.7283543093852057</speed>
  <fix>3d</fix>
</trkpt>
<trkpt lat="33.810042" lon="-118.3941734">
  <ele>-0.11</ele>
  <time>2026-09-02T22:07:23Z</time>
  <course>223.26</course>
  <speed>0.73</speed>
  <fix>3d</fix>
</trkpt>
<trkpt lat="33.810041" lon="-118.3941751">
  <ele>-0.103</ele>
  <time>2026-09-02T22:07:23Z</time>
  <course>186.24</course>
  <speed>0.7283543093852057</speed>
  <fix>3d</fix>
</trkpt>
<trkpt lat="33.810041" lon="-118.3941752">
  <ele>-0.103</ele>
  <time>2026-09-02T22:07:23Z</time>
  <course>186.24</course>
  <speed>0.7213875518748573</speed>
  <fix>3d</fix>
</trkpt>
<trkpt lat="33.8100409" lon="-118.3941752">
  <ele>-0.103</ele>
  <time>2026-09-02T22:07:23Z</time>
  <course>186.24</course>
  <speed>0.7283543093852057</speed>
  <fix>3d</fix>
</trkpt>
<trkpt lat="33.8100409" lon="-118.3941753">
  <ele>-0.103</ele>
  <time>2026-09-02T22:07:23Z</time>
  <course>186.24</course>
  <speed>0.7283543093852057</speed>
  <fix>3d</fix>
</trkpt>
<trkpt lat="33.8100408" lon="-118.3941753">
  <ele>-0.103</ele>
  <time>2026-09-02T22:07:23Z</time>
  <course>186.24</course>
  <speed>0.7283543093852057</speed>
  <fix>3d</fix>
</trkpt>
<trkpt lat="33.8100408" lon="-118.3941754">
  <ele>-0.103</ele>
  <time>2026-09-02T22:07:23Z</time>
  <course>186.24</course>
  <speed>0.7283543093852057</speed>
  <fix>3d</fix>
</trkpt>
<trkpt lat="33.8100407" lon="-118.3941755">
  <ele>-0.103</ele>
  <time>2026-09-02T22:07:23Z</time>
  <course>186.24</course>
  <speed>0.7283543093852057</speed>
  <fix>3d</fix>
</trkpt>
<trkpt lat="33.8100407" lon="-118.3941755">
  <ele>-0.103</ele>
  <time>2026-09-02T22:07:23Z</time>
  <course>186.24</course>
  <speed>0.7283543093852057</speed>
  <fix>3d</fix>
</trkpt>
<trkpt lat="33.8100407" lon="-118.3941755">
  <ele>-0.103</ele>
  <time>2026-09-02T22:07:23Z</time>
  <course>186.24</course>
  <speed>0.7283543093852057</speed>
  <fix>3d</fix>
</trkpt>
<trkpt lat="33.8100411" lon="-118.3941745">
  <ele>-0.1</ele>
  <time>2026-09-02T22:07:23Z</time>
  <course>223.26</course>
  <speed>0.73</speed>
  <fix>3d</fix>
</trkpt>
<trkpt lat="33.8100406" lon="-118.3941755">
  <ele>-0.103</ele>
  <time>2026-09-02T22:07:23Z</time>
  <course>186.24</course>
  <speed>0.7283543093852057</speed>
  <fix>3d</fix>
</trkpt>
<trkpt lat="33.8100406" lon="-118.3941756">
  <ele>-0.103</ele>
  <time>2026-09-02T22:07:23Z</time>
  <course>186.24</course>
  <speed>0.7283543093852057</speed>
  <fix>3d</fix>
</trkpt>
<trkpt lat="33.8100405" lon="-118.3941757">
  <ele>-0.103</ele>
  <time>2026-09-02T22:07:23Z</time>
  <course>186.24</course>
  <speed>0.7283543093852057</speed>
  <fix>3d</fix>
</trkpt>
<trkpt lat="33.8100405" lon="-118.3941757">
  <ele>-0.103</ele>
  <time>2026-09-02T22:07:23Z</time>
  <course>186.24</course>
  <speed>0.7283543093852057</speed>
  <fix>3d</fix>
</trkpt>
<trkpt lat="33.8100404" lon="-118.3941758">
  <ele>-0.103</ele>
  <time>2026-09-02T22:07:23Z</time>
  <course>186.24</course>
  <speed>0.7283543093852057</speed>
  <fix>3d</fix>
</trkpt>
<trkpt lat="33.8100404" lon="-118.3941759">
  <ele>-0.103</ele>
  <time>2026-09-02T22:07:23Z</time>
  <course>186.24</course>
  <speed>0.7283543093852057</speed>
  <fix>3d</fix>
</trkpt>
<trkpt lat="33.8100403" lon="-118.3941759">
  <ele>-0.103</ele>
  <time>2026-09-02T22:07:23Z</time>
  <course>186.24</course>
  <speed>0.7283543093852057</speed>
  <fix>3d</fix>
</trkpt>
<trkpt lat="33.8100402" lon="-118.394176">
  <ele>-0.103</ele>
  <time>2026-09-02T22:07:23Z</time>
  <course>186.24</course>
  <speed>0.7283543093852057</speed>
  <fix>3d</fix>
</trkpt>
<trkpt lat="33.8100402" lon="-118.394176">
  <ele>-0.103</ele>
  <time>2026-09-02T22:07:23Z</time>
  <course>186.24</course>
  <speed>0.7283543093852057</speed>
  <fix>3d</fix>
</trkpt>
<trkpt lat="33.8100402" lon="-118.3941761">
  <ele>-0.103</ele>
  <time>2026-09-02T22:07:23Z</time>
  <course>186.24</course>
  <speed>0.7283543093852057</speed>
  <fix>3d</fix>
</trkpt>
<trkpt lat="33.8100411" lon="-118.3941745">
  <ele>-0.1</ele>
  <time>2026-09-02T22:07:23Z</time>
  <course>223.26</course>
  <speed>0.73</speed>
  <fix>3d</fix>
</trkpt>
<trkpt lat="33.81004" lon="-118.3941762">
  <ele>-0.103</ele>
  <time>2026-09-02T22:07:23Z</time>
  <course>186.24</course>
  <speed>0.7283543093852057</speed>
  <fix>3d</fix>
</trkpt>
<trkpt lat="33.81004" lon="-118.3941763">
  <ele>-0.103</ele>
  <time>2026-09-02T22:07:23Z</time>
  <course>186.24</course>
  <speed>0.7283543093852057</speed>
  <fix>3d</fix>
</trkpt>
<trkpt lat="33.8100399" lon="-118.3941764">
  <ele>-0.103</ele>
  <time>2026-09-02T22:07:23Z</time>
  <course>186.24</course>
  <speed>0.7283543093852057</speed>
  <fix>3d</fix>
</trkpt>
<trkpt lat="33.8100399" lon="-118.3941764">
  <ele>-0.103</ele>
  <time>2026-09-02T22:07:23Z</time>
  <course>186.24</course>
  <speed>0.7283543093852057</speed>
  <fix>3d</fix>
</trkpt>
<trkpt lat="33.8100398" lon="-118.3941765">
  <ele>-0.103</ele>
  <time>2026-09-02T22:07:23Z</time>
  <course>186.24</course>
  <speed>0.7283543093852057</speed>
  <fix>3d</fix>
</trkpt>
<trkpt lat="33.8100397" lon="-118.3941765">
  <ele>-0.103</ele>
  <time>2026-09-02T22:07:23Z</time>
  <course>186.24</course>
  <speed>0.7283543093852057</speed>
  <fix>3d</fix>
</trkpt>
<trkpt lat="33.8100397" lon="-118.3941766">
  <ele>-0.103</ele>
  <time>2026-09-02T22:07:23Z</time>
  <course>186.24</course>
  <speed>0.7283543093852057</speed>
  <fix>3d</fix>
</trkpt>
<trkpt lat="33.8100397" lon="-118.3941766">
  <ele>-0.103</ele>
  <time>2026-09-02T22:07:23Z</time>
  <course>186.24</course>
  <speed>0.7283543093852057</speed>
  <fix>3d</fix>
</trkpt>
<trkpt lat="33.8100402" lon="-118.3941756">
  <ele>-0.1</ele>
  <time>2026-09-02T22:07:23Z</time>
  <course>223.26</course>
  <speed>0.73</speed>
  <fix>3d</fix>
</trkpt>
<trkpt lat="33.8100397" lon="-118.3941766">
  <ele>-0.103</ele>
  <time>2026-09-02T22:07:23Z</time>
  <course>186.24</course>
  <speed>0.7283543093852057</speed>
  <fix>3d</fix>
</trkpt>
<trkpt lat="33.8100396" lon="-118.3941767">
  <ele>-0.103</ele>
  <time>2026-09-02T22:07:23Z</time>
  <course>186.24</course>
  <speed>0.7283543093852057</speed>
  <fix>3d</fix>
</trkpt>
<trkpt lat="33.8100396" lon="-118.3941767">
  <ele>-0.103</ele>
  <time>2026-09-02T22:07:23Z</time>
  <course>186.24</course>
  <speed>0.7283543093852057</speed>
  <fix>3d</fix>
</trkpt>
<trkpt lat="33.8100395" lon="-118.3941768">
  <ele>-0.103</ele>
  <time>2026-09-02T22:07:23Z</time>
  <course>186.24</course>
  <speed>0.7283543093852057</speed>
  <fix>3d</fix>
</trkpt>
<trkpt lat="33.8100395" lon="-118.3941769">
  <ele>-0.103</ele>
  <time>2026-09-02T22:07:23Z</time>
  <course>186.24</course>
  <speed>0.7283543093852057</speed>
  <fix>3d</fix>
</trkpt>
<trkpt lat="33.8100394" lon="-118.3941769">
  <ele>-0.103</ele>
  <time>2026-09-02T22:07:23Z</time>
  <course>186.24</course>
  <speed>0.7283543093852057</speed>
  <fix>3d</fix>
</trkpt>
<trkpt lat="33.8100394" lon="-118.394177">
  <ele>-0.103</ele>
  <time>2026-09-02T22:07:23Z</time>
  <course>186.24</course>
  <speed>0.7283543093852057</speed>
  <fix>3d</fix>
</trkpt>
<trkpt lat="33.8100393" lon="-118.394177">
  <ele>-0.103</ele>
  <time>2026-09-02T22:07:23Z</time>
  <course>186.24</course>
  <speed>0.7283543093852057</speed>
  <fix>3d</fix>
</trkpt>
<trkpt lat="33.8100393" lon="-118.3941771">
  <ele>-0.103</ele>
  <time>2026-09-02T22:07:23Z</time>
  <course>186.24</course>
  <speed>0.7283543093852057</speed>
  <fix>3d</fix>
</trkpt>
<trkpt lat="33.8100392" lon="-118.3941771">
  <ele>-0.103</ele>
  <time>2026-09-02T22:07:23Z</time>
  <course>186.24</course>
  <speed>0.7283543093852057</speed>
  <fix>3d</fix>
</trkpt>
<trkpt lat="33.8100392" lon="-118.3941771">
  <ele>-0.103</ele>
  <time>2026-09-02T22:07:23Z</time>
  <course>186.24</course>
  <speed>0.7283543093852057</speed>
  <fix>3d</fix>
</trkpt>
<trkpt lat="33.8100402" lon="-118.3941756">
  <ele>-0.1</ele>
  <time>2026-09-02T22:07:23Z</time>
  <course>223.26</course>
  <speed>0.73</speed>
  <fix>3d</fix>
</trkpt>
<trkpt lat="33.8100391" lon="-118.3941773">
  <ele>-0.103</ele>
  <time>2026-09-02T22:07:23Z</time>
  <course>186.24</course>
  <speed>0.7283543093852057</speed>
  <fix>3d</fix>
</trkpt>
<trkpt lat="33.810039" lon="-118.3941774">
  <ele>-0.103</ele>
  <time>2026-09-02T22:07:23Z</time>
  <course>186.24</course>
  <speed>0.7283543093852057</speed>
  <fix>3d</fix>
</trkpt>
<trkpt lat="33.810039" lon="-118.3941774">
  <ele>-0.103</ele>
  <time>2026-09-02T22:07:23Z</time>
  <course>186.24</course>
  <speed>0.7283543093852057</speed>
  <fix>3d</fix>
</trkpt>
<trkpt lat="33.8100389" lon="-118.3941775">
  <ele>-0.103</ele>
  <time>2026-09-02T22:07:23Z</time>
  <course>186.24</course>
  <speed>0.7283543093852057</speed>
  <fix>3d</fix>
</trkpt>
<trkpt lat="33.8100389" lon="-118.3941775">
  <ele>-0.103</ele>
  <time>2026-09-02T22:07:23Z</time>
  <course>186.24</course>
  <speed>0.7283543093852057</speed>
  <fix>3d</fix>
</trkpt>
<trkpt lat="33.8100388" lon="-118.3941776">
  <ele>-0.103</ele>
  <time>2026-09-02T22:07:23Z</time>
  <course>186.24</course>
  <speed>0.7283543093852057</speed>
  <fix>3d</fix>
</trkpt>
<trkpt lat="33.8100388" lon="-118.3941777">
  <ele>-0.103</ele>
  <time>2026-09-02T22:07:23Z</time>
  <course>186.24</course>
  <speed>0.7283543093852057</speed>
  <fix>3d</fix>
</trkpt>
<trkpt lat="33.8100387" lon="-118.3941777">
  <ele>-0.103</ele>
  <time>2026-09-02T22:07:23Z</time>
  <course>186.24</course>
  <speed>0.7283543093852057</speed>
  <fix>3d</fix>
</trkpt>
<trkpt lat="33.8100392" lon="-118.3941767">
  <ele>-0.1</ele>
  <time>2026-09-02T22:07:23Z</time>
  <course>223.26</course>
  <speed>0.73</speed>
  <fix>3d</fix>
</trkpt>
<trkpt lat="33.8100387" lon="-118.3941777">
  <ele>-0.103</ele>
  <time>2026-09-02T22:07:23Z</time>
  <course>186.24</course>
  <speed>0.7283543093852057</speed>
  <fix>3d</fix>
</trkpt>
<trkpt lat="33.8100385" lon="-118.3941779">
  <ele>-0.103</ele>
  <time>2026-09-02T22:07:23Z</time>
  <course>186.24</course>
  <speed>0.7283543093852057</speed>
  <fix>3d</fix>
</trkpt>
<trkpt lat="33.8100385" lon="-118.394178">
  <ele>-0.104</ele>
  <time>2026-09-02T22:07:23Z</time>
  <course>186.24</course>
  <speed>0.7283543093852057</speed>
  <fix>3d</fix>
</trkpt>
<trkpt lat="33.8100384" lon="-118.394178">
  <ele>-0.104</ele>
  <time>2026-09-02T22:07:23Z</time>
  <course>186.24</course>
  <speed>0.7283543093852057</speed>
  <fix>3d</fix>
</trkpt>
<trkpt lat="33.8100384" lon="-118.3941781">
  <ele>-0.104</ele>
  <time>2026-09-02T22:07:23Z</time>
  <course>186.24</course>
  <speed>0.7283543093852057</speed>
  <fix>3d</fix>
</trkpt>
<trkpt lat="33.8100384" lon="-118.3941781">
  <ele>-0.104</ele>
  <time>2026-09-02T22:07:23Z</time>
  <course>186.24</course>
  <speed>0.7283543093852057</speed>
  <fix>3d</fix>
</trkpt>
<trkpt lat="33.8100383" lon="-118.3941782">
  <ele>-0.104</ele>
  <time>2026-09-02T22:07:23Z</time>
  <course>186.24</course>
  <speed>0.7283543093852057</speed>
  <fix>3d</fix>
</trkpt>
<trkpt lat="33.8100383" lon="-118.3941782">
  <ele>-0.104</ele>
  <time>2026-09-02T22:07:23Z</time>
  <course>186.24</course>
  <speed>0.7283543093852057</speed>
  <fix>3d</fix>
</trkpt>
<trkpt lat="33.8100392" lon="-118.3941767">
  <ele>-0.1</ele>
  <time>2026-09-02T22:07:23Z</time>
  <course>223.26</course>
  <speed>0.73</speed>
  <fix>3d</fix>
</trkpt>
<trkpt lat="33.8100382" lon="-118.3941782">
  <ele>-0.104</ele>
  <time>2026-09-02T22:07:23Z</time>
  <course>186.24</course>
  <speed>0.7283543093852057</speed>
  <fix>3d</fix>
</trkpt>
<trkpt lat="33.8100381" lon="-118.3941784">
  <ele>-0.104</ele>
  <time>2026-09-02T22:07:23Z</time>
  <course>186.24</course>
  <speed>0.7283543093852057</speed>
  <fix>3d</fix>
</trkpt>
<trkpt lat="33.810038" lon="-118.3941785">
  <ele>-0.105</ele>
  <time>2026-09-02T22:07:23Z</time>
  <course>186.24</course>
  <speed>0.7283543093852057</speed>
  <fix>3d</fix>
</trkpt>
<trkpt lat="33.810038" lon="-118.3941785">
  <ele>-0.105</ele>
  <time>2026-09-02T22:07:23Z</time>
  <course>186.24</course>
  <speed>0.7283543093852057</speed>
  <fix>3d</fix>
</trkpt>
<trkpt lat="33.8100379" lon="-118.3941786">
  <ele>-0.105</ele>
  <time>2026-09-02T22:07:23Z</time>
  <course>186.24</course>
  <speed>0.7283543093852057</speed>
  <fix>3d</fix>
</trkpt>
<trkpt lat="33.8100379" lon="-118.3941787">
  <ele>-0.105</ele>
  <time>2026-09-02T22:07:23Z</time>
  <course>186.24</course>
  <speed>0.7283543093852057</speed>
  <fix>3d</fix>
</trkpt>
<trkpt lat="33.8100378" lon="-118.3941787">
  <ele>-0.105</ele>
  <time>2026-09-02T22:07:23Z</time>
  <course>186.24</course>
  <speed>0.7283543093852057</speed>
  <fix>3d</fix>
</trkpt>
<trkpt lat="33.8100378" lon="-118.3941788">
  <ele>-0.105</ele>
  <time>2026-09-02T22:07:23Z</time>
  <course>186.24</course>
  <speed>0.7283543093852057</speed>
  <fix>3d</fix>
</trkpt>
<trkpt lat="33.8100383" lon="-118.3941778">
  <ele>-0.1</ele>
  <time>2026-09-02T22:07:23Z</time>
  <course>223.26</course>
  <speed>0.73</speed>
  <fix>3d</fix>
</trkpt>
<trkpt lat="33.8100378" lon="-118.3941788">
  <ele>-0.105</ele>
  <time>2026-09-02T22:07:23Z</time>
  <course>186.24</course>
  <speed>0.7283543093852057</speed>
  <fix>3d</fix>
</trkpt>
<trkpt lat="33.8100376" lon="-118.394179">
  <ele>-0.105</ele>
  <time>2026-09-02T22:07:23Z</time>
  <course>186.24</course>
  <speed>0.7283543093852057</speed>
  <fix>3d</fix>
</trkpt>
<trkpt lat="33.8100376" lon="-118.394179">
  <ele>-0.105</ele>
  <time>2026-09-02T22:07:23Z</time>
  <course>186.24</course>
  <speed>0.7283543093852057</speed>
  <fix>3d</fix>
</trkpt>
<trkpt lat="33.8100375" lon="-118.3941791">
  <ele>-0.105</ele>
  <time>2026-09-02T22:07:23Z</time>
  <course>186.24</course>
  <speed>0.7283543093852057</speed>
  <fix>3d</fix>
</trkpt>
<trkpt lat="33.8100375" lon="-118.3941791">
  <ele>-0.105</ele>
  <time>2026-09-02T22:07:23Z</time>
  <course>186.24</course>
  <speed>0.7283543093852057</speed>
  <fix>3d</fix>
</trkpt>
<trkpt lat="33.8100374" lon="-118.3941792">
  <ele>-0.105</ele>
  <time>2026-09-02T22:07:23Z</time>
  <course>186.24</course>
  <speed>0.7283543093852057</speed>
  <fix>3d</fix>
</trkpt>
<trkpt lat="33.8100374" lon="-118.3941792">
  <ele>-0.105</ele>
  <time>2026-09-02T22:07:23Z</time>
  <course>186.24</course>
  <speed>0.7283543093852057</speed>
  <fix>3d</fix>
</trkpt>
<trkpt lat="33.8100373" lon="-118.3941793">
  <ele>-0.106</ele>
  <time>2026-09-02T22:07:23Z</time>
  <course>186.24</course>
  <speed>0.7213875518748573</speed>
  <fix>3d</fix>
</trkpt>
<trkpt lat="33.8100383" lon="-118.3941778">
  <ele>-0.1</ele>
  <time>2026-09-02T22:07:23Z</time>
  <course>223.26</course>
  <speed>0.73</speed>
  <fix>3d</fix>
</trkpt>
<trkpt lat="33.8100373" lon="-118.3941793">
  <ele>-0.105</ele>
  <time>2026-09-02T22:07:23Z</time>
  <course>186.24</course>
  <speed>0.7213875518748573</speed>
  <fix>3d</fix>
</trkpt>
<trkpt lat="33.8100372" lon="-118.3941794">
  <ele>-0.106</ele>
  <time>2026-09-02T22:07:23Z</time>
  <course>186.24</course>
  <speed>0.7213875518748573</speed>
  <fix>3d</fix>
</trkpt>
<trkpt lat="33.8100372" lon="-118.3941795">
  <ele>-0.106</ele>
  <time>2026-09-02T22:07:23Z</time>
  <course>186.24</course>
  <speed>0.7213875518748573</speed>
  <fix>3d</fix>
</trkpt>
<trkpt lat="33.8100371" lon="-118.3941795">
  <ele>-0.106</ele>
  <time>2026-09-02T22:07:23Z</time>
  <course>186.24</course>
  <speed>0.7213875518748573</speed>
  <fix>3d</fix>
</trkpt>
<trkpt lat="33.8100371" lon="-118.3941796">
  <ele>-0.106</ele>
  <time>2026-09-02T22:07:23Z</time>
  <course>186.24</course>
  <speed>0.7213875518748573</speed>
  <fix>3d</fix>
</trkpt>
<trkpt lat="33.810037" lon="-118.3941796">
  <ele>-0.106</ele>
  <time>2026-09-02T22:07:23Z</time>
  <course>186.24</course>
  <speed>0.7213875518748573</speed>
  <fix>3d</fix>
</trkpt>
<trkpt lat="33.810037" lon="-118.3941797">
  <ele>-0.106</ele>
  <time>2026-09-02T22:07:23Z</time>
  <course>186.24</course>
  <speed>0.7213875518748573</speed>
  <fix>3d</fix>
</trkpt>
<trkpt lat="33.8100369" lon="-118.3941798">
  <ele>-0.106</ele>
  <time>2026-09-02T22:07:23Z</time>
  <course>186.24</course>
  <speed>0.7213875518748573</speed>
  <fix>3d</fix>
</trkpt>
<trkpt lat="33.8100369" lon="-118.3941798">
  <ele>-0.106</ele>
  <time>2026-09-02T22:07:23Z</time>
  <course>186.24</course>
  <speed>0.7213875518748573</speed>
  <fix>3d</fix>
</trkpt>
<trkpt lat="33.8100368" lon="-118.3941799">
  <ele>-0.106</ele>
  <time>2026-09-02T22:07:23Z</time>
  <course>186.24</course>
  <speed>0.7213875518748573</speed>
  <fix>3d</fix>
</trkpt>
<trkpt lat="33.8100373" lon="-118.3941789">
  <ele>-0.11</ele>
  <time>2026-09-02T22:07:23Z</time>
  <course>223.26</course>
  <speed>0.73</speed>
  <fix>3d</fix>
</trkpt>
<trkpt lat="33.8100368" lon="-118.3941799">
  <ele>-0.106</ele>
  <time>2026-09-02T22:07:23Z</time>
  <course>186.24</course>
  <speed>0.7213875518748573</speed>
  <fix>3d</fix>
</trkpt>
<trkpt lat="33.8100368" lon="-118.3941799">
  <ele>-0.106</ele>
  <time>2026-09-02T22:07:23Z</time>
  <course>186.24</course>
  <speed>0.7213875518748573</speed>
  <fix>3d</fix>
</trkpt>
<trkpt lat="33.8100367" lon="-118.3941799">
  <ele>-0.106</ele>
  <time>2026-09-02T22:07:23Z</time>
  <course>186.24</course>
  <speed>0.7213875518748573</speed>
  <fix>3d</fix>
</trkpt>
<trkpt lat="33.8100367" lon="-118.39418">
  <ele>-0.106</ele>
  <time>2026-09-02T22:07:23Z</time>
  <course>186.24</course>
  <speed>0.7213875518748573</speed>
  <fix>3d</fix>
</trkpt>
<trkpt lat="33.8100366" lon="-118.3941801">
  <ele>-0.106</ele>
  <time>2026-09-02T22:07:23Z</time>
  <course>186.24</course>
  <speed>0.7213875518748573</speed>
  <fix>3d</fix>
</trkpt>
<trkpt lat="33.8100366" lon="-118.3941801">
  <ele>-0.106</ele>
  <time>2026-09-02T22:07:23Z</time>
  <course>186.24</course>
  <speed>0.7213875518748573</speed>
  <fix>3d</fix>
</trkpt>
<trkpt lat="33.8100366" lon="-118.3941802">
  <ele>-0.106</ele>
  <time>2026-09-02T22:07:23Z</time>
  <course>186.24</course>
  <speed>0.7213875518748573</speed>
  <fix>3d</fix>
</trkpt>
<trkpt lat="33.8100365" lon="-118.3941802">
  <ele>-0.106</ele>
  <time>2026-09-02T22:07:23Z</time>
  <course>186.24</course>
  <speed>0.7213875518748573</speed>
  <fix>3d</fix>
</trkpt>
<trkpt lat="33.8100364" lon="-118.3941803">
  <ele>-0.107</ele>
  <time>2026-09-02T22:07:23Z</time>
  <course>186.24</course>
  <speed>0.7213875518748573</speed>
  <fix>3d</fix>
</trkpt>
<trkpt lat="33.8100364" lon="-118.3941804">
  <ele>-0.107</ele>
  <time>2026-09-02T22:07:23Z</time>
  <course>186.24</course>
  <speed>0.7213875518748573</speed>
  <fix>3d</fix>
</trkpt>
<trkpt lat="33.8100364" lon="-118.3941804">
  <ele>-0.107</ele>
  <time>2026-09-02T22:07:23Z</time>
  <course>186.24</course>
  <speed>0.7213875518748573</speed>
  <fix>3d</fix>
</trkpt>
<trkpt lat="33.8100373" lon="-118.3941789">
  <ele>-0.11</ele>
  <time>2026-09-02T22:07:23Z</time>
  <course>223.26</course>
  <speed>0.73</speed>
  <fix>3d</fix>
</trkpt>
<trkpt lat="33.8100363" lon="-118.3941804">
  <ele>-0.107</ele>
  <time>2026-09-02T22:07:23Z</time>
  <course>186.24</course>
  <speed>0.7213875518748573</speed>
  <fix>3d</fix>
</trkpt>
<trkpt lat="33.8100362" lon="-118.3941806">
  <ele>-0.107</ele>
  <time>2026-09-02T22:07:23Z</time>
  <course>186.24</course>
  <speed>0.7213875518748573</speed>
  <fix>3d</fix>
</trkpt>
<trkpt lat="33.8100361" lon="-118.3941807">
  <ele>-0.107</ele>
  <time>2026-09-02T22:07:23Z</time>
  <course>186.24</course>
  <speed>0.7213875518748573</speed>
  <fix>3d</fix>
</trkpt>
<trkpt lat="33.8100361" lon="-118.3941807">
  <ele>-0.107</ele>
  <time>2026-09-02T22:07:23Z</time>
  <course>186.24</course>
  <speed>0.7213875518748573</speed>
  <fix>3d</fix>
</trkpt>
<trkpt lat="33.810036" lon="-118.3941808">
  <ele>-0.107</ele>
  <time>2026-09-02T22:07:23Z</time>
  <course>186.24</course>
  <speed>0.7213875518748573</speed>
  <fix>3d</fix>
</trkpt>
<trkpt lat="33.810036" lon="-118.3941808">
  <ele>-0.107</ele>
  <time>2026-09-02T22:07:23Z</time>
  <course>186.24</course>
  <speed>0.7213875518748573</speed>
  <fix>3d</fix>
</trkpt>
<trkpt lat="33.8100359" lon="-118.3941809">
  <ele>-0.107</ele>
  <time>2026-09-02T22:07:23Z</time>
  <course>186.24</course>
  <speed>0.7213875518748573</speed>
  <fix>3d</fix>
</trkpt>
<trkpt lat="33.8100359" lon="-118.3941809">
  <ele>-0.107</ele>
  <time>2026-09-02T22:07:23Z</time>
  <course>186.24</course>
  <speed>0.7213875518748573</speed>
  <fix>3d</fix>
</trkpt>
<trkpt lat="33.8100363" lon="-118.39418">
  <ele>-0.1</ele>
  <time>2026-09-02T22:07:23Z</time>
  <course>223.26</course>
  <speed>0.73</speed>
  <fix>3d</fix>
</trkpt>
<trkpt lat="33.8100359" lon="-118.394181">
  <ele>-0.107</ele>
  <time>2026-09-02T22:07:23Z</time>
  <course>186.24</course>
  <speed>0.7213875518748573</speed>
  <fix>3d</fix>
</trkpt>
<trkpt lat="33.8100357" lon="-118.3941811">
  <ele>-0.107</ele>
  <time>2026-09-02T22:07:23Z</time>
  <course>186.24</course>
  <speed>0.7213875518748573</speed>
  <fix>3d</fix>
</trkpt>
<trkpt lat="33.8100356" lon="-118.3941812">
  <ele>-0.106</ele>
  <time>2026-09-02T22:07:23Z</time>
  <course>186.24</course>
  <speed>0.7213875518748573</speed>
  <fix>3d</fix>
</trkpt>
<trkpt lat="33.8100356" lon="-118.3941813">
  <ele>-0.106</ele>
  <time>2026-09-02T22:07:23Z</time>
  <course>186.24</course>
  <speed>0.7213875518748573</speed>
  <fix>3d</fix>
</trkpt>
<trkpt lat="33.8100355" lon="-118.3941813">
  <ele>-0.106</ele>
  <time>2026-09-02T22:07:23Z</time>
  <course>186.24</course>
  <speed>0.7213875518748573</speed>
  <fix>3d</fix>
</trkpt>
<trkpt lat="33.8100355" lon="-118.3941814">
  <ele>-0.106</ele>
  <time>2026-09-02T22:07:23Z</time>
  <course>186.24</course>
  <speed>0.7213875518748573</speed>
  <fix>3d</fix>
</trkpt>
<trkpt lat="33.8100355" lon="-118.3941814">
  <ele>-0.106</ele>
  <time>2026-09-02T22:07:23Z</time>
  <course>186.24</course>
  <speed>0.7213875518748573</speed>
  <fix>3d</fix>
</trkpt>
<trkpt lat="33.8100354" lon="-118.3941815">
  <ele>-0.106</ele>
  <time>2026-09-02T22:07:23Z</time>
  <course>186.24</course>
  <speed>0.7213875518748573</speed>
  <fix>3d</fix>
</trkpt>
<trkpt lat="33.8100354" lon="-118.3941815">
  <ele>-0.106</ele>
  <time>2026-09-02T22:07:23Z</time>
  <course>186.24</course>
  <speed>0.7213875518748573</speed>
  <fix>3d</fix>
</trkpt>
<trkpt lat="33.8100363" lon="-118.39418">
  <ele>-0.1</ele>
  <time>2026-09-02T22:07:23Z</time>
  <course>223.26</course>
  <speed>0.73</speed>
  <fix>3d</fix>
</trkpt>
<trkpt lat="33.8100354" lon="-118.3941815">
  <ele>-0.106</ele>
  <time>2026-09-02T22:07:23Z</time>
  <course>186.24</course>
  <speed>0.7213875518748573</speed>
  <fix>3d</fix>
</trkpt>
<trkpt lat="33.8100353" lon="-118.3941816">
  <ele>-0.106</ele>
  <time>2026-09-02T22:07:23Z</time>
  <course>186.24</course>
  <speed>0.7213875518748573</speed>
  <fix>3d</fix>
</trkpt>
<trkpt lat="33.8100352" lon="-118.3941817">
  <ele>-0.106</ele>
  <time>2026-09-02T22:07:23Z</time>
  <course>186.24</course>
  <speed>0.7213875518748573</speed>
  <fix>3d</fix>
</trkpt>
<trkpt lat="33.8100352" lon="-118.3941817">
  <ele>-0.106</ele>
  <time>2026-09-02T22:07:23Z</time>
  <course>186.24</course>
  <speed>0.7213875518748573</speed>
  <fix>3d</fix>
</trkpt>
<trkpt lat="33.8100352" lon="-118.3941818">
  <ele>-0.106</ele>
  <time>2026-09-02T22:07:23Z</time>
  <course>186.24</course>
  <speed>0.7213875518748573</speed>
  <fix>3d</fix>
</trkpt>
<trkpt lat="33.8100351" lon="-118.3941818">
  <ele>-0.106</ele>
  <time>2026-09-02T22:07:23Z</time>
  <course>186.24</course>
  <speed>0.7213875518748573</speed>
  <fix>3d</fix>
</trkpt>
<trkpt lat="33.8100351" lon="-118.3941818">
  <ele>-0.106</ele>
  <time>2026-09-02T22:07:23Z</time>
  <course>186.24</course>
  <speed>0.7213875518748573</speed>
  <fix>3d</fix>
</trkpt>
<trkpt lat="33.8100351" lon="-118.3941819">
  <ele>-0.106</ele>
  <time>2026-09-02T22:07:23Z</time>
  <course>186.24</course>
  <speed>0.7213875518748573</speed>
  <fix>3d</fix>
</trkpt>
<trkpt lat="33.810035" lon="-118.3941819">
  <ele>-0.106</ele>
  <time>2026-09-02T22:07:23Z</time>
  <course>186.24</course>
  <speed>0.7213875518748573</speed>
  <fix>3d</fix>
</trkpt>
<trkpt lat="33.810035" lon="-118.394182">
  <ele>-0.106</ele>
  <time>2026-09-02T22:07:23Z</time>
  <course>186.24</course>
  <speed>0.7213875518748573</speed>
  <fix>3d</fix>
</trkpt>
<trkpt lat="33.8100349" lon="-118.394182">
  <ele>-0.106</ele>
  <time>2026-09-02T22:07:23Z</time>
  <course>186.24</course>
  <speed>0.7213875518748573</speed>
  <fix>3d</fix>
</trkpt>
<trkpt lat="33.8100349" lon="-118.394182">
  <ele>-0.106</ele>
  <time>2026-09-02T22:07:23Z</time>
  <course>186.24</course>
  <speed>0.7213875518748573</speed>
  <fix>3d</fix>
</trkpt>
<trkpt lat="33.8100353" lon="-118.3941811">
  <ele>-0.1</ele>
  <time>2026-09-02T22:07:23Z</time>
  <course>223.26</course>
  <speed>0.73</speed>
  <fix>3d</fix>
</trkpt>
<trkpt lat="33.8100349" lon="-118.394182">
  <ele>-0.106</ele>
  <time>2026-09-02T22:07:23Z</time>
  <course>186.24</course>
  <speed>0.7213875518748573</speed>
  <fix>3d</fix>
</trkpt>
<trkpt lat="33.8100348" lon="-118.3941822">
  <ele>-0.106</ele>
  <time>2026-09-02T22:07:23Z</time>
  <course>186.24</course>
  <speed>0.7213875518748573</speed>
  <fix>3d</fix>
</trkpt>
<trkpt lat="33.8100347" lon="-118.3941822">
  <ele>-0.106</ele>
  <time>2026-09-02T22:07:23Z</time>
  <course>186.24</course>
  <speed>0.7213875518748573</speed>
  <fix>3d</fix>
</trkpt>
<trkpt lat="33.8100347" lon="-118.3941823">
  <ele>-0.106</ele>
  <time>2026-09-02T22:07:23Z</time>
  <course>186.24</course>
  <speed>0.7213875518748573</speed>
  <fix>3d</fix>
</trkpt>
<trkpt lat="33.8100347" lon="-118.3941823">
  <ele>-0.106</ele>
  <time>2026-09-02T22:07:23Z</time>
  <course>186.24</course>
  <speed>0.7213875518748573</speed>
  <fix>3d</fix>
</trkpt>
<trkpt lat="33.8100346" lon="-118.3941824">
  <ele>-0.105</ele>
  <time>2026-09-02T22:07:23Z</time>
  <course>186.24</course>
  <speed>0.7213875518748573</speed>
  <fix>3d</fix>
</trkpt>
<trkpt lat="33.8100346" lon="-118.3941824">
  <ele>-0.105</ele>
  <time>2026-09-02T22:07:23Z</time>
  <course>186.24</course>
  <speed>0.7213875518748573</speed>
  <fix>3d</fix>
</trkpt>
<trkpt lat="33.8100346" lon="-118.3941824">
  <ele>-0.105</ele>
  <time>2026-09-02T22:07:23Z</time>
  <course>186.24</course>
  <speed>0.7213875518748573</speed>
  <fix>3d</fix>
</trkpt>
<trkpt lat="33.8100345" lon="-118.3941825">
  <ele>-0.105</ele>
  <time>2026-09-02T22:07:23Z</time>
  <course>186.24</course>
  <speed>0.7213875518748573</speed>
  <fix>3d</fix>
</trkpt>
<trkpt lat="33.8100345" lon="-118.3941825">
  <ele>-0.105</ele>
  <time>2026-09-02T22:07:23Z</time>
  <course>186.24</course>
  <speed>0.7213875518748573</speed>
  <fix>3d</fix>
</trkpt>
<trkpt lat="33.8100344" lon="-118.3941826">
  <ele>-0.105</ele>
  <time>2026-09-02T22:07:23Z</time>
  <course>186.24</course>
  <speed>0.7213875518748573</speed>
  <fix>3d</fix>
</trkpt>
<trkpt lat="33.8100344" lon="-118.3941826">
  <ele>-0.105</ele>
  <time>2026-09-02T22:07:23Z</time>
  <course>186.24</course>
  <speed>0.7213875518748573</speed>
  <fix>3d</fix>
</trkpt>
<trkpt lat="33.8100353" lon="-118.3941811">
  <ele>-0.1</ele>
  <time>2026-09-02T22:07:23Z</time>
  <course>223.26</course>
  <speed>0.73</speed>
  <fix>3d</fix>
</trkpt>
<trkpt lat="33.8100344" lon="-118.3941826">
  <ele>-0.105</ele>
  <time>2026-09-02T22:07:23Z</time>
  <course>186.24</course>
  <speed>0.7213875518748573</speed>
  <fix>3d</fix>
</trkpt>
<trkpt lat="33.8100343" lon="-118.3941828">
  <ele>-0.105</ele>
  <time>2026-09-02T22:07:23Z</time>
  <course>186.24</course>
  <speed>0.7213875518748573</speed>
  <fix>3d</fix>
</trkpt>
<trkpt lat="33.8100342" lon="-118.3941828">
  <ele>-0.105</ele>
  <time>2026-09-02T22:07:23Z</time>
  <course>186.24</course>
  <speed>0.7213875518748573</speed>
  <fix>3d</fix>
</trkpt>
<trkpt lat="33.8100342" lon="-118.3941829">
  <ele>-0.104</ele>
  <time>2026-09-02T22:07:23Z</time>
  <course>186.24</course>
  <speed>0.7213875518748573</speed>
  <fix>3d</fix>
</trkpt>
<trkpt lat="33.8100341" lon="-118.3941829">
  <ele>-0.104</ele>
  <time>2026-09-02T22:07:23Z</time>
  <course>186.24</course>
  <speed>0.7213875518748573</speed>
  <fix>3d</fix>
</trkpt>
<trkpt lat="33.810034" lon="-118.394183">
  <ele>-0.104</ele>
  <time>2026-09-02T22:07:23Z</time>
  <course>186.24</course>
  <speed>0.7213875518748573</speed>
  <fix>3d</fix>
</trkpt>
<trkpt lat="33.810034" lon="-118.3941831">
  <ele>-0.104</ele>
  <time>2026-09-02T22:07:23Z</time>
  <course>186.24</course>
  <speed>0.7213875518748573</speed>
  <fix>3d</fix>
</trkpt>
<trkpt lat="33.810034" lon="-118.3941831">
  <ele>-0.104</ele>
  <time>2026-09-02T22:07:23Z</time>
  <course>186.24</course>
  <speed>0.7213875518748573</speed>
  <fix>3d</fix>
</trkpt>
<trkpt lat="33.8100344" lon="-118.3941821">
  <ele>-0.1</ele>
  <time>2026-09-02T22:07:23Z</time>
  <course>223.26</course>
  <speed>0.73</speed>
  <fix>3d</fix>
</trkpt>
<trkpt lat="33.8100339" lon="-118.3941831">
  <ele>-0.104</ele>
  <time>2026-09-02T22:07:23Z</time>
  <course>186.24</course>
  <speed>0.7213875518748573</speed>
  <fix>3d</fix>
</trkpt>
<trkpt lat="33.8100338" lon="-118.3941833">
  <ele>-0.103</ele>
  <time>2026-09-02T22:07:23Z</time>
  <course>186.24</course>
  <speed>0.7213875518748573</speed>
  <fix>3d</fix>
</trkpt>
<trkpt lat="33.8100337" lon="-118.3941834">
  <ele>-0.103</ele>
  <time>2026-09-02T22:07:23Z</time>
  <course>186.24</course>
  <speed>0.7213875518748573</speed>
  <fix>3d</fix>
</trkpt>
<trkpt lat="33.8100337" lon="-118.3941834">
  <ele>-0.103</ele>
  <time>2026-09-02T22:07:23Z</time>
  <course>186.24</course>
  <speed>0.7213875518748573</speed>
  <fix>3d</fix>
</trkpt>
<trkpt lat="33.8100336" lon="-118.3941835">
  <ele>-0.103</ele>
  <time>2026-09-02T22:07:23Z</time>
  <course>186.24</course>
  <speed>0.7213875518748573</speed>
  <fix>3d</fix>
</trkpt>
<trkpt lat="33.8100336" lon="-118.3941835">
  <ele>-0.103</ele>
  <time>2026-09-02T22:07:23Z</time>
  <course>186.24</course>
  <speed>0.7213875518748573</speed>
  <fix>3d</fix>
</trkpt>
<trkpt lat="33.8100335" lon="-118.3941836">
  <ele>-0.103</ele>
  <time>2026-09-02T22:07:23Z</time>
  <course>186.24</course>
  <speed>0.7213875518748573</speed>
  <fix>3d</fix>
</trkpt>
<trkpt lat="33.8100335" lon="-118.3941837">
  <ele>-0.103</ele>
  <time>2026-09-02T22:07:23Z</time>
  <course>186.24</course>
  <speed>0.7213875518748573</speed>
  <fix>3d</fix>
</trkpt>
<trkpt lat="33.8100344" lon="-118.3941821">
  <ele>-0.1</ele>
  <time>2026-09-02T22:07:23Z</time>
  <course>223.26</course>
  <speed>0.73</speed>
  <fix>3d</fix>
</trkpt>
<trkpt lat="33.8100335" lon="-118.3941837">
  <ele>-0.103</ele>
  <time>2026-09-02T22:07:23Z</time>
  <course>186.24</course>
  <speed>0.7213875518748573</speed>
  <fix>3d</fix>
</trkpt>
<trkpt lat="33.8100334" lon="-118.3941837">
  <ele>-0.103</ele>
  <time>2026-09-02T22:07:23Z</time>
  <course>186.24</course>
  <speed>0.7213875518748573</speed>
  <fix>3d</fix>
</trkpt>
<trkpt lat="33.8100334" lon="-118.3941837">
  <ele>-0.103</ele>
  <time>2026-09-02T22:07:23Z</time>
  <course>186.24</course>
  <speed>0.7213875518748573</speed>
  <fix>3d</fix>
</trkpt>
<trkpt lat="33.8100334" lon="-118.3941838">
  <ele>-0.103</ele>
  <time>2026-09-02T22:07:23Z</time>
  <course>186.24</course>
  <speed>0.7213875518748573</speed>
  <fix>3d</fix>
</trkpt>
<trkpt lat="33.8100333" lon="-118.3941838">
  <ele>-0.103</ele>
  <time>2026-09-02T22:07:23Z</time>
  <course>186.24</course>
  <speed>0.7213875518748573</speed>
  <fix>3d</fix>
</trkpt>
<trkpt lat="33.8100333" lon="-118.3941839">
  <ele>-0.103</ele>
  <time>2026-09-02T22:07:23Z</time>
  <course>186.24</course>
  <speed>0.7213875518748573</speed>
  <fix>3d</fix>
</trkpt>
<trkpt lat="33.8100332" lon="-118.3941839">
  <ele>-0.103</ele>
  <time>2026-09-02T22:07:23Z</time>
  <course>186.24</course>
  <speed>0.7213875518748573</speed>
  <fix>3d</fix>
</trkpt>
<trkpt lat="33.8100332" lon="-118.394184">
  <ele>-0.103</ele>
  <time>2026-09-02T22:07:23Z</time>
  <course>186.24</course>
  <speed>0.7213875518748573</speed>
  <fix>3d</fix>
</trkpt>
<trkpt lat="33.8100331" lon="-118.394184">
  <ele>-0.103</ele>
  <time>2026-09-02T22:07:23Z</time>
  <course>186.24</course>
  <speed>0.7213875518748573</speed>
  <fix>3d</fix>
</trkpt>
<trkpt lat="33.8100331" lon="-118.3941841">
  <ele>-0.103</ele>
  <time>2026-09-02T22:07:23Z</time>
  <course>186.24</course>
  <speed>0.7213875518748573</speed>
  <fix>3d</fix>
</trkpt>
<trkpt lat="33.810033" lon="-118.3941841">
  <ele>-0.103</ele>
  <time>2026-09-02T22:07:23Z</time>
  <course>186.24</course>
  <speed>0.7213875518748573</speed>
  <fix>3d</fix>
</trkpt>
<trkpt lat="33.810033" lon="-118.3941842">
  <ele>-0.103</ele>
  <time>2026-09-02T22:07:23Z</time>
  <course>186.24</course>
  <speed>0.7213875518748573</speed>
  <fix>3d</fix>
</trkpt>
<trkpt lat="33.810033" lon="-118.3941842">
  <ele>-0.103</ele>
  <time>2026-09-02T22:07:23Z</time>
  <course>186.24</course>
  <speed>0.7213875518748573</speed>
  <fix>3d</fix>
</trkpt>
<trkpt lat="33.8100335" lon="-118.3941832">
  <ele>-0.1</ele>
  <time>2026-09-02T22:07:23Z</time>
  <course>223.26</course>
  <speed>0.73</speed>
  <fix>3d</fix>
</trkpt>
<trkpt lat="33.810033" lon="-118.3941842">
  <ele>-0.103</ele>
  <time>2026-09-02T22:07:23Z</time>
  <course>186.24</course>
  <speed>0.7213875518748573</speed>
  <fix>3d</fix>
</trkpt>
<trkpt lat="33.8100329" lon="-118.3941843">
  <ele>-0.103</ele>
  <time>2026-09-02T22:07:23Z</time>
  <course>186.24</course>
  <speed>0.7213875518748573</speed>
  <fix>3d</fix>
</trkpt>
<trkpt lat="33.8100328" lon="-118.3941844">
  <ele>-0.103</ele>
  <time>2026-09-02T22:07:23Z</time>
  <course>186.24</course>
  <speed>0.7213875518748573</speed>
  <fix>3d</fix>
</trkpt>
<trkpt lat="33.8100328" lon="-118.3941844">
  <ele>-0.103</ele>
  <time>2026-09-02T22:07:23Z</time>
  <course>186.24</course>
  <speed>0.7213875518748573</speed>
  <fix>3d</fix>
</trkpt>
<trkpt lat="33.8100328" lon="-118.3941844">
  <ele>-0.103</ele>
  <time>2026-09-02T22:07:23Z</time>
  <course>186.24</course>
  <speed>0.7213875518748573</speed>
  <fix>3d</fix>
</trkpt>
<trkpt lat="33.8100327" lon="-118.3941845">
  <ele>-0.103</ele>
  <time>2026-09-02T22:07:23Z</time>
  <course>186.24</course>
  <speed>0.7213875518748573</speed>
  <fix>3d</fix>
</trkpt>
<trkpt lat="33.8100327" lon="-118.3941845">
  <ele>-0.103</ele>
  <time>2026-09-02T22:07:23Z</time>
  <course>186.24</course>
  <speed>0.7213875518748573</speed>
  <fix>3d</fix>
</trkpt>
<trkpt lat="33.8100326" lon="-118.3941846">
  <ele>-0.103</ele>
  <time>2026-09-02T22:07:23Z</time>
  <course>186.24</course>
  <speed>0.7213875518748573</speed>
  <fix>3d</fix>
</trkpt>
<trkpt lat="33.8100326" lon="-118.3941846">
  <ele>-0.103</ele>
  <time>2026-09-02T22:07:23Z</time>
  <course>186.24</course>
  <speed>0.7213875518748573</speed>
  <fix>3d</fix>
</trkpt>
<trkpt lat="33.8100326" lon="-118.3941847">
  <ele>-0.103</ele>
  <time>2026-09-02T22:07:23Z</time>
  <course>186.24</course>
  <speed>0.7213875518748573</speed>
  <fix>3d</fix>
</trkpt>
<trkpt lat="33.8100325" lon="-118.3941847">
  <ele>-0.103</ele>
  <time>2026-09-02T22:07:23Z</time>
  <course>186.24</course>
  <speed>0.7213875518748573</speed>
  <fix>3d</fix>
</trkpt>
<trkpt lat="33.8100325" lon="-118.3941847">
  <ele>-0.103</ele>
  <time>2026-09-02T22:07:23Z</time>
  <course>186.24</course>
  <speed>0.7213875518748573</speed>
  <fix>3d</fix>
</trkpt>
<trkpt lat="33.8100335" lon="-118.3941832">
  <ele>-0.1</ele>
  <time>2026-09-02T22:07:23Z</time>
  <course>223.26</course>
  <speed>0.73</speed>
  <fix>3d</fix>
</trkpt>
<trkpt lat="33.8100324" lon="-118.3941848">
  <ele>-0.103</ele>
  <time>2026-09-02T22:07:23Z</time>
  <course>186.24</course>
  <speed>0.7213875518748573</speed>
  <fix>3d</fix>
</trkpt>
<trkpt lat="33.8100324" lon="-118.3941849">
  <ele>-0.103</ele>
  <time>2026-09-02T22:07:23Z</time>
  <course>186.24</course>
  <speed>0.7213875518748573</speed>
  <fix>3d</fix>
</trkpt>
<trkpt lat="33.8100324" lon="-118.3941849">
  <ele>-0.103</ele>
  <time>2026-09-02T22:07:23Z</time>
  <course>186.24</course>
  <speed>0.7213875518748573</speed>
  <fix>3d</fix>
</trkpt>
<trkpt lat="33.8100323" lon="-118.394185">
  <ele>-0.103</ele>
  <time>2026-09-02T22:07:23Z</time>
  <course>186.24</course>
  <speed>0.7213875518748573</speed>
  <fix>3d</fix>
</trkpt>
<trkpt lat="33.8100323" lon="-118.394185">
  <ele>-0.103</ele>
  <time>2026-09-02T22:07:23Z</time>
  <course>186.24</course>
  <speed>0.7213875518748573</speed>
  <fix>3d</fix>
</trkpt>
<trkpt lat="33.8100323" lon="-118.394185">
  <ele>-0.103</ele>
  <time>2026-09-02T22:07:23Z</time>
  <course>186.24</course>
  <speed>0.7213875518748573</speed>
  <fix>3d</fix>
</trkpt>
<trkpt lat="33.8100322" lon="-118.3941851">
  <ele>-0.103</ele>
  <time>2026-09-02T22:07:23Z</time>
  <course>186.24</course>
  <speed>0.7213875518748573</speed>
  <fix>3d</fix>
</trkpt>
<trkpt lat="33.8100322" lon="-118.3941851">
  <ele>-0.103</ele>
  <time>2026-09-02T22:07:23Z</time>
  <course>186.24</course>
  <speed>0.7213875518748573</speed>
  <fix>3d</fix>
</trkpt>
<trkpt lat="33.8100321" lon="-118.3941852">
  <ele>-0.103</ele>
  <time>2026-09-02T22:07:23Z</time>
  <course>186.24</course>
  <speed>0.7213875518748573</speed>
  <fix>3d</fix>
</trkpt>
<trkpt lat="33.8100321" lon="-118.3941852">
  <ele>-0.103</ele>
  <time>2026-09-02T22:07:23Z</time>
  <course>186.24</course>
  <speed>0.7213875518748573</speed>
  <fix>3d</fix>
</trkpt>
<trkpt lat="33.8100321" lon="-118.3941852">
  <ele>-0.103</ele>
  <time>2026-09-02T22:07:23Z</time>
  <course>186.24</course>
  <speed>0.7213875518748573</speed>
  <fix>3d</fix>
</trkpt>
<trkpt lat="33.810032" lon="-118.3941853">
  <ele>-0.103</ele>
  <time>2026-09-02T22:07:23Z</time>
  <course>186.24</course>
  <speed>0.7213875518748573</speed>
  <fix>3d</fix>
</trkpt>
<trkpt lat="33.8100325" lon="-118.3941843">
  <ele>-0.11</ele>
  <time>2026-09-02T22:07:23Z</time>
  <course>223.26</course>
  <speed>0.73</speed>
  <fix>3d</fix>
</trkpt>
<trkpt lat="33.810032" lon="-118.3941853">
  <ele>-0.103</ele>
  <time>2026-09-02T22:07:23Z</time>
  <course>186.24</course>
  <speed>0.7213875518748573</speed>
  <fix>3d</fix>
</trkpt>
<trkpt lat="33.8100319" lon="-118.3941854">
  <ele>-0.103</ele>
  <time>2026-09-02T22:07:23Z</time>
  <course>186.24</course>
  <speed>0.7213875518748573</speed>
  <fix>3d</fix>
</trkpt>
<trkpt lat="33.8100319" lon="-118.3941854">
  <ele>-0.103</ele>
  <time>2026-09-02T22:07:23Z</time>
  <course>186.24</course>
  <speed>0.7213875518748573</speed>
  <fix>3d</fix>
</trkpt>
<trkpt lat="33.8100319" lon="-118.3941855">
  <ele>-0.103</ele>
  <time>2026-09-02T22:07:23Z</time>
  <course>186.24</course>
  <speed>0.7213875518748573</speed>
  <fix>3d</fix>
</trkpt>
<trkpt lat="33.8100318" lon="-118.3941855">
  <ele>-0.103</ele>
  <time>2026-09-02T22:07:23Z</time>
  <course>186.24</course>
  <speed>0.7213875518748573</speed>
  <fix>3d</fix>
</trkpt>
<trkpt lat="33.8100318" lon="-118.3941856">
  <ele>-0.103</ele>
  <time>2026-09-02T22:07:23Z</time>
  <course>186.24</course>
  <speed>0.7213875518748573</speed>
  <fix>3d</fix>
</trkpt>
<trkpt lat="33.8100318" lon="-118.3941856">
  <ele>-0.103</ele>
  <time>2026-09-02T22:07:23Z</time>
  <course>186.24</course>
  <speed>0.7213875518748573</speed>
  <fix>3d</fix>
</trkpt>
<trkpt lat="33.8100317" lon="-118.3941856">
  <ele>-0.103</ele>
  <time>2026-09-02T22:07:23Z</time>
  <course>186.24</course>
  <speed>0.7213875518748573</speed>
  <fix>3d</fix>
</trkpt>
<trkpt lat="33.8100317" lon="-118.3941857">
  <ele>-0.103</ele>
  <time>2026-09-02T22:07:23Z</time>
  <course>186.24</course>
  <speed>0.7213875518748573</speed>
  <fix>3d</fix>
</trkpt>
<trkpt lat="33.8100316" lon="-118.3941857">
  <ele>-0.103</ele>
  <time>2026-09-02T22:07:23Z</time>
  <course>186.24</course>
  <speed>0.7213875518748573</speed>
  <fix>3d</fix>
</trkpt>
<trkpt lat="33.8100316" lon="-118.3941858">
  <ele>-0.103</ele>
  <time>2026-09-02T22:07:23Z</time>
  <course>186.24</course>
  <speed>0.7213875518748573</speed>
  <fix>3d</fix>
</trkpt>
<trkpt lat="33.8100316" lon="-118.3941858">
  <ele>-0.103</ele>
  <time>2026-09-02T22:07:23Z</time>
  <course>186.24</course>
  <speed>0.7213875518748573</speed>
  <fix>3d</fix>
</trkpt>
<trkpt lat="33.8100325" lon="-118.3941843">
  <ele>-0.11</ele>
  <time>2026-09-02T22:07:23Z</time>
  <course>223.26</course>
  <speed>0.73</speed>
  <fix>3d</fix>
</trkpt>
<trkpt lat="33.8100316" lon="-118.3941858">
  <ele>-0.103</ele>
  <time>2026-09-02T22:07:23Z</time>
  <course>186.24</course>
  <speed>0.7213875518748573</speed>
  <fix>3d</fix>
</trkpt>
<trkpt lat="33.8100315" lon="-118.3941859">
  <ele>-0.103</ele>
  <time>2026-09-02T22:07:23Z</time>
  <course>186.24</course>
  <speed>0.7213875518748573</speed>
  <fix>3d</fix>
</trkpt>
<trkpt lat="33.8100315" lon="-118.3941859">
  <ele>-0.103</ele>
  <time>2026-09-02T22:07:23Z</time>
  <course>186.24</course>
  <speed>0.7213875518748573</speed>
  <fix>3d</fix>
</trkpt>
<trkpt lat="33.8100314" lon="-118.394186">
  <ele>-0.103</ele>
  <time>2026-09-02T22:07:23Z</time>
  <course>186.24</course>
  <speed>0.7213875518748573</speed>
  <fix>3d</fix>
</trkpt>
<trkpt lat="33.8100314" lon="-118.394186">
  <ele>-0.103</ele>
  <time>2026-09-02T22:07:23Z</time>
  <course>186.24</course>
  <speed>0.7213875518748573</speed>
  <fix>3d</fix>
</trkpt>
<trkpt lat="33.8100314" lon="-118.394186">
  <ele>-0.103</ele>
  <time>2026-09-02T22:07:23Z</time>
  <course>186.24</course>
  <speed>0.7213875518748573</speed>
  <fix>3d</fix>
</trkpt>
<trkpt lat="33.8100313" lon="-118.3941861">
  <ele>-0.103</ele>
  <time>2026-09-02T22:07:23Z</time>
  <course>186.24</course>
  <speed>0.7213875518748573</speed>
  <fix>3d</fix>
</trkpt>
<trkpt lat="33.8100311" lon="-118.3941864">
  <ele>-0.103</ele>
  <time>2026-09-02T22:07:23Z</time>
  <course>186.54</course>
  <speed>0.7283543093852057</speed>
  <fix>3d</fix>
</trkpt>
<trkpt lat="33.8100315" lon="-118.3941854">
  <ele>-0.1</ele>
  <time>2026-09-02T22:07:23Z</time>
  <course>223.26</course>
  <speed>0.73</speed>
  <fix>3d</fix>
</trkpt>
<trkpt lat="33.8100306" lon="-118.3941869">
  <ele>-0.103</ele>
  <time>2026-09-02T22:07:23Z</time>
  <course>189.79</course>
  <speed>0.7424957912338628</speed>
  <fix>3d</fix>
</trkpt>
<trkpt lat="33.8100315" lon="-118.3941854">
  <ele>-0.1</ele>
  <time>2026-09-02T22:07:23Z</time>
  <course>223.26</course>
  <speed>0.73</speed>
  <fix>3d</fix>
</trkpt>
<trkpt lat="33.8100301" lon="-118.3941875">
  <ele>-0.103</ele>
  <time>2026-09-02T22:07:23Z</time>
  <course>193.63</course>
  <speed>0.7569015788066504</speed>
  <fix>3d</fix>
</trkpt>
<trkpt lat="33.8100306" lon="-118.3941865">
  <ele>-0.1</ele>
  <time>2026-09-02T22:07:23Z</time>
  <course>223.13</course>
  <speed>0.74</speed>
  <fix>3d</fix>
</trkpt>
<trkpt lat="33.8100296" lon="-118.3941881">
  <ele>-0.104</ele>
  <time>2026-09-02T22:07:23Z</time>
  <course>197.5</course>
  <speed>0.7516648189186453</speed>
  <fix>3d</fix>
</trkpt>
<trkpt lat="33.8100306" lon="-118.3941865">
  <ele>-0.1</ele>
  <time>2026-09-02T22:07:23Z</time>
  <course>223.13</course>
  <speed>0.74</speed>
  <fix>3d</fix>
</trkpt>
<trkpt lat="33.8100292" lon="-118.3941887">
  <ele>-0.106</ele>
  <time>2026-09-02T22:07:23Z</time>
  <course>201.39</course>
  <speed>0.756042326857432</speed>
  <fix>3d</fix>
</trkpt>
<trkpt lat="33.8100296" lon="-118.3941877">
  <ele>-0.1</ele>
  <time>2026-09-02T22:07:23Z</time>
  <course>225.21</course>
  <speed>0.76</speed>
  <fix>3d</fix>
</trkpt>
<trkpt lat="33.8100287" lon="-118.3941893">
  <ele>-0.107</ele>
  <time>2026-09-02T22:07:23Z</time>
  <course>205.26</course>
  <speed>0.7545197147855052</speed>
  <fix>3d</fix>
</trkpt>
<trkpt lat="33.8100296" lon="-118.3941877">
  <ele>-0.1</ele>
  <time>2026-09-02T22:07:23Z</time>
  <course>225.21</course>
  <speed>0.76</speed>
  <fix>3d</fix>
</trkpt>
<trkpt lat="33.8100283" lon="-118.39419">
  <ele>-0.11</ele>
  <time>2026-09-02T22:07:23Z</time>
  <course>209.12</course>
  <speed>0.758023746329889</speed>
  <fix>3d</fix>
</trkpt>
<trkpt lat="33.8100286" lon="-118.3941889">
  <ele>-0.1</ele>
  <time>2026-09-02T22:07:23Z</time>
  <course>230.66</course>
  <speed>0.76</speed>
  <fix>3d</fix>
</trkpt>
<trkpt lat="33.810028" lon="-118.3941907">
  <ele>-0.112</ele>
  <time>2026-09-02T22:07:23Z</time>
  <course>212.99</course>
  <speed>0.7513321502504735</speed>
  <fix>3d</fix>
</trkpt>
<trkpt lat="33.8100286" lon="-118.3941889">
  <ele>-0.1</ele>
  <time>2026-09-02T22:07:23Z</time>
  <course>230.66</course>
  <speed>0.76</speed>
  <fix>3d</fix>
</trkpt>
<trkpt lat="33.8100277" lon="-118.3941914">
  <ele>-0.114</ele>
  <time>2026-09-02T22:07:23Z</time>
  <course>216.85</course>
  <speed>0.7615773105863909</speed>
  <fix>3d</fix>
</trkpt>
<trkpt lat="33.8100278" lon="-118.3941903">
  <ele>-0.11</ele>
  <time>2026-09-02T22:07:23Z</time>
  <course>237.54</course>
  <speed>0.76</speed>
  <fix>3d</fix>
</trkpt>
<trkpt lat="33.8100274" lon="-118.3941922">
  <ele>-0.114</ele>
  <time>2026-09-02T22:07:23Z</time>
  <course>220.71</course>
  <speed>0.7527283706623525</speed>
  <fix>3d</fix>
</trkpt>
<trkpt lat="33.8100278" lon="-118.3941903">
  <ele>-0.11</ele>
  <time>2026-09-02T22:07:23Z</time>
  <course>237.54</course>
  <speed>0.76</speed>
  <fix>3d</fix>
</trkpt>
<trkpt lat="33.8100271" lon="-118.3941929">
  <ele>-0.114</ele>
  <time>2026-09-02T22:07:23Z</time>
  <course>224.58</course>
  <speed>0.7569015788066504</speed>
  <fix>3d</fix>
</trkpt>
<trkpt lat="33.8100271" lon="-118.3941917">
  <ele>-0.1</ele>
  <time>2026-09-02T22:07:23Z</time>
  <course>244.95</course>
  <speed>0.76</speed>
  <fix>3d</fix>
</trkpt>
<trkpt lat="33.8100269" lon="-118.3941937">
  <ele>-0.113</ele>
  <time>2026-09-02T22:07:23Z</time>
  <course>228.44</course>
  <speed>0.757099729229908</speed>
  <fix>3d</fix>
</trkpt>
<trkpt lat="33.8100271" lon="-118.3941917">
  <ele>-0.1</ele>
  <time>2026-09-02T22:07:23Z</time>
  <course>244.95</course>
  <speed>0.76</speed>
  <fix>3d</fix>
</trkpt>
<trkpt lat="33.8100268" lon="-118.3941945">
  <ele>-0.111</ele>
  <time>2026-09-02T22:07:23Z</time>
  <course>232.3</course>
  <speed>0.758023746329889</speed>
  <fix>3d</fix>
</trkpt>
<trkpt lat="33.8100266" lon="-118.3941932">
  <ele>-0.1</ele>
  <time>2026-09-02T22:07:23Z</time>
  <course>252.55</course>
  <speed>0.76</speed>
  <fix>3d</fix>
</trkpt>
<trkpt lat="33.8100267" lon="-118.3941953">
  <ele>-0.109</ele>
  <time>2026-09-02T22:07:23Z</time>
  <course>236.17</course>
  <speed>0.7623647421018367</speed>
  <fix>3d</fix>
</trkpt>
<trkpt lat="33.8100266" lon="-118.3941932">
  <ele>-0.1</ele>
  <time>2026-09-02T22:07:23Z</time>
  <course>252.55</course>
  <speed>0.76</speed>
  <fix>3d</fix>
</trkpt>
<trkpt lat="33.8100266" lon="-118.3941961">
  <ele>-0.108</ele>
  <time>2026-09-02T22:07:23Z</time>
  <course>240.03</course>
  <speed>0.7600657866263946</speed>
  <fix>3d</fix>
</trkpt>
<trkpt lat="33.8100264" lon="-118.3941948">
  <ele>-0.1</ele>
  <time>2026-09-02T22:07:23Z</time>
  <course>260.22</course>
  <speed>0.76</speed>
  <fix>3d</fix>
</trkpt>
<trkpt lat="33.8100266" lon="-118.3941969">
  <ele>-0.108</ele>
  <time>2026-09-02T22:07:23Z</time>
  <course>243.9</course>
  <speed>0.7610519036176179</speed>
  <fix>3d</fix>
</trkpt>
<trkpt lat="33.8100264" lon="-118.3941948">
  <ele>-0.1</ele>
  <time>2026-09-02T22:07:23Z</time>
  <course>260.22</course>
  <speed>0.76</speed>
  <fix>3d</fix>
</trkpt>
<trkpt lat="33.8100266" lon="-118.3941977">
  <ele>-0.107</ele>
  <time>2026-09-02T22:07:23Z</time>
  <course>247.76</course>
  <speed>0.7553806987208503</speed>
  <fix>3d</fix>
</trkpt>
<trkpt lat="33.8100262" lon="-118.3941965">
  <ele>-0.1</ele>
  <time>2026-09-02T22:07:23Z</time>
  <course>267.93</course>
  <speed>0.76</speed>
  <fix>3d</fix>
</trkpt>
<trkpt lat="33.8100267" lon="-118.3941985">
  <ele>-0.106</ele>
  <time>2026-09-02T22:07:23Z</time>
  <course>251.62</course>
  <speed>0.762954782408499</speed>
  <fix>3d</fix>
</trkpt>
<trkpt lat="33.8100262" lon="-118.3941965">
  <ele>-0.1</ele>
  <time>2026-09-02T22:07:23Z</time>
  <course>267.93</course>
  <speed>0.76</speed>
  <fix>3d</fix>
</trkpt>
<trkpt lat="33.8100268" lon="-118.3941993">
  <ele>-0.105</ele>
  <time>2026-09-02T22:07:23Z</time>
  <course>255.49</course>
  <speed>0.7615773105863909</speed>
  <fix>3d</fix>
</trkpt>
<trkpt lat="33.8100262" lon="-118.394198">
  <ele>-0.11</ele>
  <time>2026-09-02T22:07:23Z</time>
  <course>275.64</course>
  <speed>0.76</speed>
  <fix>3d</fix>
</trkpt>
<trkpt lat="33.8100268" lon="-118.3942001">
  <ele>-0.104</ele>
  <time>2026-09-02T22:07:23Z</time>
  <course>259.35</course>
  <speed>0.7558438992278762</speed>
  <fix>3d</fix>
</trkpt>
<trkpt lat="33.8100262" lon="-118.394198">
  <ele>-0.11</ele>
  <time>2026-09-02T22:07:23Z</time>
  <course>275.64</course>
  <speed>0.76</speed>
  <fix>3d</fix>
</trkpt>
<trkpt lat="33.810027" lon="-118.3942009">
  <ele>-0.102</ele>
  <time>2026-09-02T22:07:23Z</time>
  <course>263.21</course>
  <speed>0.7539230729988305</speed>
  <fix>3d</fix>
</trkpt>
<trkpt lat="33.8100264" lon="-118.3941997">
  <ele>-0.1</ele>
  <time>2026-09-02T22:07:23Z</time>
  <course>283.36</course>
  <speed>0.76</speed>
  <fix>3d</fix>
</trkpt>
<trkpt lat="33.8100273" lon="-118.3942016">
  <ele>-0.101</ele>
  <time>2026-09-02T22:07:23Z</time>
  <course>267.08</course>
  <speed>0.7558438992278762</speed>
  <fix>3d</fix>
</trkpt>
<trkpt lat="33.8100264" lon="-118.3941997">
  <ele>-0.1</ele>
  <time>2026-09-02T22:07:23Z</time>
  <course>283.36</course>
  <speed>0.76</speed>
  <fix>3d</fix>
</trkpt>
<trkpt lat="33.8100275" lon="-118.3942023">
  <ele>-0.1</ele>
  <time>2026-09-02T22:07:23Z</time>
  <course>270.94</course>
  <speed>0.7566372975210779</speed>
  <fix>3d</fix>
</trkpt>
<trkpt lat="33.8100268" lon="-118.3942013">
  <ele>-0.1</ele>
  <time>2026-09-02T22:07:23Z</time>
  <course>291.1</course>
  <speed>0.76</speed>
  <fix>3d</fix>
</trkpt>
<trkpt lat="33.8100279" lon="-118.394203">
  <ele>-0.099</ele>
  <time>2026-09-02T22:07:23Z</time>
  <course>274.8</course>
  <speed>0.7516648189186453</speed>
  <fix>3d</fix>
</trkpt>
<trkpt lat="33.8100268" lon="-118.3942013">
  <ele>-0.1</ele>
  <time>2026-09-02T22:07:23Z</time>
  <course>291.1</course>
  <speed>0.76</speed>
  <fix>3d</fix>
</trkpt>
<trkpt lat="33.8100282" lon="-118.3942037">
  <ele>-0.099</ele>
  <time>2026-09-02T22:07:23Z</time>
  <course>278.67</course>
  <speed>0.75</speed>
  <fix>3d</fix>
</trkpt>
<trkpt lat="33.8100273" lon="-118.3942027">
  <ele>-0.1</ele>
  <time>2026-09-02T22:07:23Z</time>
  <course>298.84</course>
  <speed>0.76</speed>
  <fix>3d</fix>
</trkpt>
<trkpt lat="33.8100286" lon="-118.3942044">
  <ele>-0.099</ele>
  <time>2026-09-02T22:07:23Z</time>
  <course>282.56</course>
  <speed>0.7516648189186453</speed>
  <fix>3d</fix>
</trkpt>
<trkpt lat="33.8100273" lon="-118.3942027">
  <ele>-0.1</ele>
  <time>2026-09-02T22:07:23Z</time>
  <course>298.84</course>
  <speed>0.76</speed>
  <fix>3d</fix>
</trkpt>
<trkpt lat="33.810029" lon="-118.394205">
  <ele>-0.099</ele>
  <time>2026-09-02T22:07:23Z</time>
  <course>286.42</course>
  <speed>0.7424957912338628</speed>
  <fix>3d</fix>
</trkpt>
<trkpt lat="33.810028" lon="-118.3942042">
  <ele>-0.1</ele>
  <time>2026-09-02T22:07:23Z</time>
  <course>306.57</course>
  <speed>0.76</speed>
  <fix>3d</fix>
</trkpt>
<trkpt lat="33.8100295" lon="-118.3942055">
  <ele>-0.1</ele>
  <time>2026-09-02T22:07:23Z</time>
  <course>290.29</course>
  <speed>0.7507329751649384</speed>
  <fix>3d</fix>
</trkpt>
<trkpt lat="33.810028" lon="-118.3942042">
  <ele>-0.1</ele>
  <time>2026-09-02T22:07:23Z</time>
  <course>306.57</course>
  <speed>0.76</speed>
  <fix>3d</fix>
</trkpt>
<trkpt lat="33.8100299" lon="-118.3942061">
  <ele>-0.101</ele>
  <time>2026-09-02T22:07:23Z</time>
  <course>294.15</course>
  <speed>0.7481310045707236</speed>
  <fix>3d</fix>
</trkpt>
<trkpt lat="33.810029" lon="-118.3942054">
  <ele>-0.11</ele>
  <time>2026-09-02T22:07:23Z</time>
  <course>314.29</course>
  <speed>0.76</speed>
  <fix>3d</fix>
</trkpt>
<trkpt lat="33.8100305" lon="-118.3942066">
  <ele>-0.102</ele>
  <time>2026-09-02T22:07:23Z</time>
  <course>298.01</course>
  <speed>0.7488658090739623</speed>
  <fix>3d</fix>
</trkpt>
<trkpt lat="33.810029" lon="-118.3942054">
  <ele>-0.11</ele>
  <time>2026-09-02T22:07:23Z</time>
  <course>314.29</course>
  <speed>0.76</speed>
  <fix>3d</fix>
</trkpt>
<trkpt lat="33.810031" lon="-118.394207">
  <ele>-0.103</ele>
  <time>2026-09-02T22:07:23Z</time>
  <course>301.87</course>
  <speed>0.7443117626371358</speed>
  <fix>3d</fix>
</trkpt>
<trkpt lat="33.81003" lon="-118.3942065">
  <ele>-0.1</ele>
  <time>2026-09-02T22:07:23Z</time>
  <course>322.01</course>
  <speed>0.76</speed>
  <fix>3d</fix>
</trkpt>
<trkpt lat="33.8100316" lon="-118.3942074">
  <ele>-0.103</ele>
  <time>2026-09-02T22:07:23Z</time>
  <course>305.73</course>
  <speed>0.7379024325749306</speed>
  <fix>3d</fix>
</trkpt>
<trkpt lat="33.81003" lon="-118.3942065">
  <ele>-0.1</ele>
  <time>2026-09-02T22:07:23Z</time>
  <course>322.01</course>
  <speed>0.76</speed>
  <fix>3d</fix>
</trkpt>
<trkpt lat="33.8100321" lon="-118.3942078">
  <ele>-0.104</ele>
  <time>2026-09-02T22:07:23Z</time>
  <course>309.59</course>
  <speed>0.7392563831310488</speed>
  <fix>3d</fix>
</trkpt>
<trkpt lat="33.8100312" lon="-118.3942075">
  <ele>-0.1</ele>
  <time>2026-09-02T22:07:23Z</time>
  <course>329.74</course>
  <speed>0.76</speed>
  <fix>3d</fix>
</trkpt>
<trkpt lat="33.8100328" lon="-118.3942081">
  <ele>-0.104</ele>
  <time>2026-09-02T22:07:23Z</time>
  <course>313.45</course>
  <speed>0.74</speed>
  <fix>3d</fix>
</trkpt>
<trkpt lat="33.8100312" lon="-118.3942075">
  <ele>-0.1</ele>
  <time>2026-09-02T22:07:23Z</time>
  <course>329.74</course>
  <speed>0.76</speed>
  <fix>3d</fix>
</trkpt>
<trkpt lat="33.8100334" lon="-118.3942084">
  <ele>-0.105</ele>
  <time>2026-09-02T22:07:23Z</time>
  <course>317.31</course>
  <speed>0.7349829930005184</speed>
  <fix>3d</fix>
</trkpt>
<trkpt lat="33.8100324" lon="-118.3942082">
  <ele>-0.1</ele>
  <time>2026-09-02T22:07:23Z</time>
  <course>337.46</course>
  <speed>0.76</speed>
  <fix>3d</fix>
</trkpt>
<trkpt lat="33.810034" lon="-118.3942086">
  <ele>-0.107</ele>
  <time>2026-09-02T22:07:23Z</time>
  <course>321.18</course>
  <speed>0.73348483283569</speed>
  <fix>3d</fix>
</trkpt>
<trkpt lat="33.8100324" lon="-118.3942082">
  <ele>-0.1</ele>
  <time>2026-09-02T22:07:23Z</time>
  <course>337.46</course>
  <speed>0.76</speed>
  <fix>3d</fix>
</trkpt>
<trkpt lat="33.8100347" lon="-118.3942087">
  <ele>-0.109</ele>
  <time>2026-09-02T22:07:23Z</time>
  <course>325.04</course>
  <speed>0.7368174807915459</speed>
  <fix>3d</fix>
</trkpt>
<trkpt lat="33.8100337" lon="-118.3942087">
  <ele>-0.1</ele>
  <time>2026-09-02T22:07:23Z</time>
  <course>345.19</course>
  <speed>0.76</speed>
  <fix>3d</fix>
</trkpt>
<trkpt lat="33.8100353" lon="-118.3942088">
  <ele>-0.112</ele>
  <time>2026-09-02T22:07:23Z</time>
  <course>328.9</course>
  <speed>0.7317103251970687</speed>
  <fix>3d</fix>
</trkpt>
<trkpt lat="33.8100337" lon="-118.3942087">
  <ele>-0.1</ele>
  <time>2026-09-02T22:07:23Z</time>
  <course>345.19</course>
  <speed>0.76</speed>
  <fix>3d</fix>
</trkpt>
<trkpt lat="33.810036" lon="-118.3942089">
  <ele>-0.114</ele>
  <time>2026-09-02T22:07:23Z</time>
  <course>332.76</course>
  <speed>0.74</speed>
  <fix>3d</fix>
</trkpt>
<trkpt lat="33.810035" lon="-118.394209">
  <ele>-0.11</ele>
  <time>2026-09-02T22:07:23Z</time>
  <course>352.91</course>
  <speed>0.76</speed>
  <fix>3d</fix>
</trkpt>
<trkpt lat="33.8100367" lon="-118.394209">
  <ele>-0.116</ele>
  <time>2026-09-02T22:07:23Z</time>
  <course>336.62</course>
  <speed>0.7310950690573697</speed>
  <fix>3d</fix>
</trkpt>
<trkpt lat="33.810035" lon="-118.394209">
  <ele>-0.11</ele>
  <time>2026-09-02T22:07:23Z</time>
  <course>352.91</course>
  <speed>0.76</speed>
  <fix>3d</fix>
</trkpt>
<trkpt lat="33.8100373" lon="-118.3942089">
  <ele>-0.118</ele>
  <time>2026-09-02T22:07:23Z</time>
  <course>340.48</course>
  <speed>0.7355270219373317</speed>
  <fix>3d</fix>
</trkpt>
<trkpt lat="33.8100364" lon="-118.3942091">
  <ele>-0.1</ele>
  <time>2026-09-02T22:07:23Z</time>
  <course>0.63</course>
  <speed>0.76</speed>
  <fix>3d</fix>
</trkpt>
<trkpt lat="33.810038" lon="-118.3942088">
  <ele>-0.119</ele>
  <time>2026-09-02T22:07:23Z</time>
  <course>344.34</course>
  <speed>0.73348483283569</speed>
  <fix>3d</fix>
</trkpt>
<trkpt lat="33.8100364" lon="-118.3942091">
  <ele>-0.1</ele>
  <time>2026-09-02T22:07:23Z</time>
  <course>0.63</course>
  <speed>0.76</speed>
  <fix>3d</fix>
</trkpt>
<trkpt lat="33.8100386" lon="-118.3942087">
  <ele>-0.121</ele>
  <time>2026-09-02T22:07:23Z</time>
  <course>348.21</course>
  <speed>0.7349829930005184</speed>
  <fix>3d</fix>
</trkpt>
<trkpt lat="33.8100377" lon="-118.394209">
  <ele>-0.1</ele>
  <time>2026-09-02T22:07:23Z</time>
  <course>8.37</course>
  <speed>0.76</speed>
  <fix>3d</fix>
</trkpt>
<trkpt lat="33.8100393" lon="-118.3942084">
  <ele>-0.122</ele>
  <time>2026-09-02T22:07:23Z</time>
  <course>352.07</course>
  <speed>0.7305477397131552</speed>
  <fix>3d</fix>
</trkpt>
<trkpt lat="33.8100377" lon="-118.394209">
  <ele>-0.1</ele>
  <time>2026-09-02T22:07:23Z</time>
  <course>8.37</course>
  <speed>0.76</speed>
  <fix>3d</fix>
</trkpt>
<trkpt lat="33.8100399" lon="-118.3942082">
  <ele>-0.122</ele>
  <time>2026-09-02T22:07:23Z</time>
  <course>355.93</course>
  <speed>0.7261542535852834</speed>
  <fix>3d</fix>
</trkpt>
<trkpt lat="33.8100391" lon="-118.3942087">
  <ele>-0.1</ele>
  <time>2026-09-02T22:07:23Z</time>
  <course>16.11</course>
  <speed>0.76</speed>
  <fix>3d</fix>
</trkpt>
<trkpt lat="33.8100405" lon="-118.3942079">
  <ele>-0.122</ele>
  <time>2026-09-02T22:07:23Z</time>
  <course>358.62</course>
  <speed>0.7066116330771806</speed>
  <fix>3d</fix>
</trkpt>
<trkpt lat="33.8100391" lon="-118.3942087">
  <ele>-0.1</ele>
  <time>2026-09-02T22:07:23Z</time>
  <course>16.11</course>
  <speed>0.76</speed>
  <fix>3d</fix>
</trkpt>
<trkpt lat="33.8100411" lon="-118.3942075">
  <ele>-0.122</ele>
  <time>2026-09-02T22:07:23Z</time>
  <course>359.81</course>
  <speed>0.6997142273814361</speed>
  <fix>3d</fix>
</trkpt>
<trkpt lat="33.8100404" lon="-118.3942082">
  <ele>-0.1</ele>
  <time>2026-09-02T22:07:23Z</time>
  <course>24.1</course>
  <speed>0.75</speed>
  <fix>3d</fix>
</trkpt>
<trkpt lat="33.8100412" lon="-118.3942074">
  <ele>-0.122</ele>
  <time>2026-09-02T22:07:23Z</time>
  <course>0.04</course>
  <speed>0.7049113419430842</speed>
  <fix>3d</fix>
</trkpt>
<trkpt lat="33.8100416" lon="-118.3942071">
  <ele>-0.121</ele>
  <time>2026-09-02T22:07:23Z</time>
  <course>0.56</course>
  <speed>0.6933974329343886</speed>
  <fix>3d</fix>
</trkpt>
<trkpt lat="33.8100404" lon="-118.3942082">
  <ele>-0.1</ele>
  <time>2026-09-02T22:07:23Z</time>
  <course>24.1</course>
  <speed>0.75</speed>
  <fix>3d</fix>
</trkpt>
<trkpt lat="33.8100418" lon="-118.394207">
  <ele>-0.121</ele>
  <time>2026-09-02T22:07:23Z</time>
  <course>0.74</course>
  <speed>0.6989277502002621</speed>
  <fix>3d</fix>
</trkpt>
<trkpt lat="33.8100419" lon="-118.3942069">
  <ele>-0.121</ele>
  <time>2026-09-02T22:07:23Z</time>
  <course>0.83</course>
  <speed>0.6989277502002621</speed>
  <fix>3d</fix>
</trkpt>
<trkpt lat="33.8100419" lon="-118.3942069">
  <ele>-0.121</ele>
  <time>2026-09-02T22:07:23Z</time>
  <course>0.89</course>
  <speed>0.6906518659932803</speed>
  <fix>3d</fix>
</trkpt>
<trkpt lat="33.810042" lon="-118.3942069">
  <ele>-0.121</ele>
  <time>2026-09-02T22:07:23Z</time>
  <course>0.94</course>
  <speed>0.6906518659932803</speed>
  <fix>3d</fix>
</trkpt>
<trkpt lat="33.810042" lon="-118.3942068">
  <ele>-0.121</ele>
  <time>2026-09-02T22:07:23Z</time>
  <course>0.99</course>
  <speed>0.6906518659932803</speed>
  <fix>3d</fix>
</trkpt>
<trkpt lat="33.8100421" lon="-118.3942068">
  <ele>-0.121</ele>
  <time>2026-09-02T22:07:23Z</time>
  <course>1.05</course>
  <speed>0.6963476143421474</speed>
  <fix>3d</fix>
</trkpt>
<trkpt lat="33.8100421" lon="-118.3942067">
  <ele>-0.121</ele>
  <time>2026-09-02T22:07:23Z</time>
  <course>1.1</course>
  <speed>0.6963476143421474</speed>
  <fix>3d</fix>
</trkpt>
<trkpt lat="33.8100422" lon="-118.3942067">
  <ele>-0.12</ele>
  <time>2026-09-02T22:07:23Z</time>
  <course>1.12</course>
  <speed>0.6963476143421474</speed>
  <fix>3d</fix>
</trkpt>
<trkpt lat="33.8100415" lon="-118.3942074">
  <ele>-0.11</ele>
  <time>2026-09-02T22:07:23Z</time>
  <course>31.14</course>
  <speed>0.73</speed>
  <fix>3d</fix>
</trkpt>
<trkpt lat="33.8100422" lon="-118.3942067">
  <ele>-0.12</ele>
  <time>2026-09-02T22:07:23Z</time>
  <course>1.13</course>
  <speed>0.6963476143421474</speed>
  <fix>3d</fix>
</trkpt>
<trkpt lat="33.8100423" lon="-118.3942066">
  <ele>-0.12</ele>
  <time>2026-09-02T22:07:23Z</time>
  <course>1.21</course>
  <speed>0.6963476143421474</speed>
  <fix>3d</fix>
</trkpt>
<trkpt lat="33.8100423" lon="-118.3942066">
  <ele>-0.12</ele>
  <time>2026-09-02T22:07:23Z</time>
  <course>1.25</course>
  <speed>0.6963476143421474</speed>
  <fix>3d</fix>
</trkpt>
<trkpt lat="33.8100424" lon="-118.3942066">
  <ele>-0.12</ele>
  <time>2026-09-02T22:07:23Z</time>
  <course>1.3</course>
  <speed>0.6963476143421474</speed>
  <fix>3d</fix>
</trkpt>
<trkpt lat="33.8100424" lon="-118.3942065">
  <ele>-0.12</ele>
  <time>2026-09-02T22:07:23Z</time>
  <course>1.34</course>
  <speed>0.6963476143421474</speed>
  <fix>3d</fix>
</trkpt>
<trkpt lat="33.8100425" lon="-118.3942065">
  <ele>-0.12</ele>
  <time>2026-09-02T22:07:23Z</time>
  <course>1.38</course>
  <speed>0.7021395872616784</speed>
  <fix>3d</fix>
</trkpt>
<trkpt lat="33.8100425" lon="-118.3942064">
  <ele>-0.12</ele>
  <time>2026-09-02T22:07:23Z</time>
  <course>1.42</course>
  <speed>0.6940461079784254</speed>
  <fix>3d</fix>
</trkpt>
<trkpt lat="33.8100426" lon="-118.3942064">
  <ele>-0.12</ele>
  <time>2026-09-02T22:07:23Z</time>
  <course>1.46</course>
  <speed>0.6940461079784254</speed>
  <fix>3d</fix>
</trkpt>
<trkpt lat="33.8100426" lon="-118.3942064">
  <ele>-0.12</ele>
  <time>2026-09-02T22:07:23Z</time>
  <course>1.5</course>
  <speed>0.6940461079784254</speed>
  <fix>3d</fix>
</trkpt>
<trkpt lat="33.8100427" lon="-118.3942063">
  <ele>-0.119</ele>
  <time>2026-09-02T22:07:23Z</time>
  <course>1.55</course>
  <speed>0.6940461079784254</speed>
  <fix>3d</fix>
</trkpt>
<trkpt lat="33.8100427" lon="-118.3942063">
  <ele>-0.119</ele>
  <time>2026-09-02T22:07:23Z</time>
  <course>1.57</course>
  <speed>0.6940461079784254</speed>
  <fix>3d</fix>
</trkpt>
<trkpt lat="33.8100415" lon="-118.3942074">
  <ele>-0.11</ele>
  <time>2026-09-02T22:07:23Z</time>
  <course>31.14</course>
  <speed>0.73</speed>
  <fix>3d</fix>
</trkpt>
<trkpt lat="33.8100427" lon="-118.3942063">
  <ele>-0.119</ele>
  <time>2026-09-02T22:07:23Z</time>
  <course>1.58</course>
  <speed>0.6940461079784254</speed>
  <fix>3d</fix>
</trkpt>
<trkpt lat="33.8100428" lon="-118.3942062">
  <ele>-0.119</ele>
  <time>2026-09-02T22:07:23Z</time>
  <course>1.64</course>
  <speed>0.6940461079784254</speed>
  <fix>3d</fix>
</trkpt>
<trkpt lat="33.8100428" lon="-118.3942062">
  <ele>-0.119</ele>
  <time>2026-09-02T22:07:23Z</time>
  <course>1.67</course>
  <speed>0.6940461079784254</speed>
  <fix>3d</fix>
</trkpt>
<trkpt lat="33.8100429" lon="-118.3942061">
  <ele>-0.119</ele>
  <time>2026-09-02T22:07:23Z</time>
  <course>1.71</course>
  <speed>0.6940461079784254</speed>
  <fix>3d</fix>
</trkpt>
<trkpt lat="33.8100429" lon="-118.3942061">
  <ele>-0.119</ele>
  <time>2026-09-02T22:07:23Z</time>
  <course>1.74</course>
  <speed>0.6940461079784254</speed>
  <fix>3d</fix>
</trkpt>
<trkpt lat="33.810043" lon="-118.3942061">
  <ele>-0.119</ele>
  <time>2026-09-02T22:07:23Z</time>
  <course>1.77</course>
  <speed>0.6940461079784254</speed>
  <fix>3d</fix>
</trkpt>
<trkpt lat="33.810043" lon="-118.394206">
  <ele>-0.119</ele>
  <time>2026-09-02T22:07:23Z</time>
  <course>1.8</course>
  <speed>0.7</speed>
  <fix>3d</fix>
</trkpt>
<trkpt lat="33.8100431" lon="-118.394206">
  <ele>-0.119</ele>
  <time>2026-09-02T22:07:23Z</time>
  <course>1.84</course>
  <speed>0.7</speed>
  <fix>3d</fix>
</trkpt>
<trkpt lat="33.8100431" lon="-118.3942059">
  <ele>-0.119</ele>
  <time>2026-09-02T22:07:23Z</time>
  <course>1.87</course>
  <speed>0.7</speed>
  <fix>3d</fix>
</trkpt>
<trkpt lat="33.8100432" lon="-118.3942059">
  <ele>-0.119</ele>
  <time>2026-09-02T22:07:23Z</time>
  <course>1.91</course>
  <speed>0.7</speed>
  <fix>3d</fix>
</trkpt>
<trkpt lat="33.8100432" lon="-118.3942058">
  <ele>-0.118</ele>
  <time>2026-09-02T22:07:23Z</time>
  <course>1.93</course>
  <speed>0.7</speed>
  <fix>3d</fix>
</trkpt>
<trkpt lat="33.8100426" lon="-118.3942065">
  <ele>-0.1</ele>
  <time>2026-09-02T22:07:23Z</time>
  <course>35.4</course>
  <speed>0.73</speed>
  <fix>3d</fix>
</trkpt>
<trkpt lat="33.8100432" lon="-118.3942058">
  <ele>-0.118</ele>
  <time>2026-09-02T22:07:23Z</time>
  <course>1.94</course>
  <speed>0.7</speed>
  <fix>3d</fix>
</trkpt>
<trkpt lat="33.8100433" lon="-118.3942057">
  <ele>-0.118</ele>
  <time>2026-09-02T22:07:23Z</time>
  <course>2.0</course>
  <speed>0.7</speed>
  <fix>3d</fix>
</trkpt>
<trkpt lat="33.8100434" lon="-118.3942057">
  <ele>-0.118</ele>
  <time>2026-09-02T22:07:23Z</time>
  <course>2.03</course>
  <speed>0.7</speed>
  <fix>3d</fix>
</trkpt>
<trkpt lat="33.8100434" lon="-118.3942057">
  <ele>-0.118</ele>
  <time>2026-09-02T22:07:23Z</time>
  <course>2.07</course>
  <speed>0.7</speed>
  <fix>3d</fix>
</trkpt>
<trkpt lat="33.8100435" lon="-118.3942056">
  <ele>-0.118</ele>
  <time>2026-09-02T22:07:23Z</time>
  <course>2.1</course>
  <speed>0.6920260110718383</speed>
  <fix>3d</fix>
</trkpt>
<trkpt lat="33.8100435" lon="-118.3942056">
  <ele>-0.118</ele>
  <time>2026-09-02T22:07:23Z</time>
  <course>2.13</course>
  <speed>0.6920260110718383</speed>
  <fix>3d</fix>
</trkpt>
<trkpt lat="33.8100436" lon="-118.3942055">
  <ele>-0.118</ele>
  <time>2026-09-02T22:07:23Z</time>
  <course>2.16</course>
  <speed>0.6920260110718383</speed>
  <fix>3d</fix>
</trkpt>
<trkpt lat="33.8100437" lon="-118.3942055">
  <ele>-0.118</ele>
  <time>2026-09-02T22:07:23Z</time>
  <course>2.19</course>
  <speed>0.6920260110718383</speed>
  <fix>3d</fix>
</trkpt>
<trkpt lat="33.8100437" lon="-118.3942054">
  <ele>-0.118</ele>
  <time>2026-09-02T22:07:23Z</time>
  <course>2.22</course>
  <speed>0.6920260110718383</speed>
  <fix>3d</fix>
</trkpt>
<trkpt lat="33.8100438" lon="-118.3942054">
  <ele>-0.118</ele>
  <time>2026-09-02T22:07:23Z</time>
  <course>2.25</course>
  <speed>0.6981403870282824</speed>
  <fix>3d</fix>
</trkpt>
<trkpt lat="33.8100438" lon="-118.3942054">
  <ele>-0.118</ele>
  <time>2026-09-02T22:07:23Z</time>
  <course>2.25</course>
  <speed>0.6981403870282824</speed>
  <fix>3d</fix>
</trkpt>
<trkpt lat="33.8100426" lon="-118.3942065">
  <ele>-0.1</ele>
  <time>2026-09-02T22:07:23Z</time>
  <course>35.4</course>
  <speed>0.73</speed>
  <fix>3d</fix>
</trkpt>
<trkpt lat="33.8100439" lon="-118.3942053">
  <ele>-0.118</ele>
  <time>2026-09-02T22:07:23Z</time>
  <course>2.31</course>
  <speed>0.6981403870282824</speed>
  <fix>3d</fix>
</trkpt>
<trkpt lat="33.8100439" lon="-118.3942052">
  <ele>-0.118</ele>
  <time>2026-09-02T22:07:23Z</time>
  <course>2.34</course>
  <speed>0.6981403870282824</speed>
  <fix>3d</fix>
</trkpt>
<trkpt lat="33.810044" lon="-118.3942052">
  <ele>-0.118</ele>
  <time>2026-09-02T22:07:23Z</time>
  <course>2.37</course>
  <speed>0.6981403870282824</speed>
  <fix>3d</fix>
</trkpt>
<trkpt lat="33.810044" lon="-118.3942051">
  <ele>-0.118</ele>
  <time>2026-09-02T22:07:23Z</time>
  <course>2.4</course>
  <speed>0.6981403870282824</speed>
  <fix>3d</fix>
</trkpt>
<trkpt lat="33.8100441" lon="-118.3942051">
  <ele>-0.118</ele>
  <time>2026-09-02T22:07:23Z</time>
  <course>2.43</course>
  <speed>0.6981403870282824</speed>
  <fix>3d</fix>
</trkpt>
<trkpt lat="33.8100441" lon="-118.394205">
  <ele>-0.118</ele>
  <time>2026-09-02T22:07:23Z</time>
  <course>2.45</course>
  <speed>0.6981403870282824</speed>
  <fix>3d</fix>
</trkpt>
<trkpt lat="33.8100442" lon="-118.394205">
  <ele>-0.118</ele>
  <time>2026-09-02T22:07:23Z</time>
  <course>2.48</course>
  <speed>0.6981403870282824</speed>
  <fix>3d</fix>
</trkpt>
<trkpt lat="33.8100442" lon="-118.3942049">
  <ele>-0.118</ele>
  <time>2026-09-02T22:07:23Z</time>
  <course>2.5</course>
  <speed>0.6981403870282824</speed>
  <fix>3d</fix>
</trkpt>
<trkpt lat="33.8100443" lon="-118.3942049">
  <ele>-0.118</ele>
  <time>2026-09-02T22:07:23Z</time>
  <course>2.52</course>
  <speed>0.6981403870282824</speed>
  <fix>3d</fix>
</trkpt>
<trkpt lat="33.8100437" lon="-118.3942056">
  <ele>-0.1</ele>
  <time>2026-09-02T22:07:23Z</time>
  <course>37.55</course>
  <speed>0.73</speed>
  <fix>3d</fix>
</trkpt>
<trkpt lat="33.8100443" lon="-118.3942049">
  <ele>-0.118</ele>
  <time>2026-09-02T22:07:23Z</time>
  <course>2.53</course>
  <speed>0.6981403870282824</speed>
  <fix>3d</fix>
</trkpt>
<trkpt lat="33.8100444" lon="-118.3942048">
  <ele>-0.118</ele>
  <time>2026-09-02T22:07:23Z</time>
  <course>2.57</course>
  <speed>0.6981403870282824</speed>
  <fix>3d</fix>
</trkpt>
<trkpt lat="33.8100444" lon="-118.3942048">
  <ele>-0.118</ele>
  <time>2026-09-02T22:07:23Z</time>
  <course>2.59</course>
  <speed>0.6981403870282824</speed>
  <fix>3d</fix>
</trkpt>
<trkpt lat="33.8100445" lon="-118.3942047">
  <ele>-0.118</ele>
  <time>2026-09-02T22:07:23Z</time>
  <course>2.62</course>
  <speed>0.6981403870282824</speed>
  <fix>3d</fix>
</trkpt>
<trkpt lat="33.8100445" lon="-118.3942047">
  <ele>-0.118</ele>
  <time>2026-09-02T22:07:23Z</time>
  <course>2.64</course>
  <speed>0.6981403870282824</speed>
  <fix>3d</fix>
</trkpt>
<trkpt lat="33.8100446" lon="-118.3942046">
  <ele>-0.118</ele>
  <time>2026-09-02T22:07:23Z</time>
  <course>2.67</course>
  <speed>0.6981403870282824</speed>
  <fix>3d</fix>
</trkpt>
<trkpt lat="33.8100446" lon="-118.3942046">
  <ele>-0.118</ele>
  <time>2026-09-02T22:07:23Z</time>
  <course>2.69</course>
  <speed>0.6981403870282824</speed>
  <fix>3d</fix>
</trkpt>
<trkpt lat="33.8100447" lon="-118.3942045">
  <ele>-0.118</ele>
  <time>2026-09-02T22:07:23Z</time>
  <course>2.71</course>
  <speed>0.6981403870282824</speed>
  <fix>3d</fix>
</trkpt>
<trkpt lat="33.8100447" lon="-118.3942045">
  <ele>-0.118</ele>
  <time>2026-09-02T22:07:23Z</time>
  <course>2.74</course>
  <speed>0.6981403870282824</speed>
  <fix>3d</fix>
</trkpt>
<trkpt lat="33.8100448" lon="-118.3942045">
  <ele>-0.118</ele>
  <time>2026-09-02T22:07:23Z</time>
  <course>2.76</course>
  <speed>0.6981403870282824</speed>
  <fix>3d</fix>
</trkpt>
<trkpt lat="33.8100448" lon="-118.3942044">
  <ele>-0.118</ele>
  <time>2026-09-02T22:07:23Z</time>
  <course>2.77</course>
  <speed>0.6981403870282824</speed>
  <fix>3d</fix>
</trkpt>
<trkpt lat="33.8100437" lon="-118.3942056">
  <ele>-0.1</ele>
  <time>2026-09-02T22:07:23Z</time>
  <course>37.55</course>
  <speed>0.73</speed>
  <fix>3d</fix>
</trkpt>
<trkpt lat="33.8100448" lon="-118.3942044">
  <ele>-0.118</ele>
  <time>2026-09-02T22:07:23Z</time>
  <course>2.77</course>
  <speed>0.6981403870282824</speed>
  <fix>3d</fix>
</trkpt>
<trkpt lat="33.8100449" lon="-118.3942044">
  <ele>-0.118</ele>
  <time>2026-09-02T22:07:23Z</time>
  <course>2.81</course>
  <speed>0.7043436661176133</speed>
  <fix>3d</fix>
</trkpt>
<trkpt lat="33.8100449" lon="-118.3942043">
  <ele>-0.118</ele>
  <time>2026-09-02T22:07:23Z</time>
  <course>2.83</course>
  <speed>0.7043436661176133</speed>
  <fix>3d</fix>
</trkpt>
<trkpt lat="33.810045" lon="-118.3942043">
  <ele>-0.118</ele>
  <time>2026-09-02T22:07:23Z</time>
  <course>2.85</course>
  <speed>0.7043436661176133</speed>
  <fix>3d</fix>
</trkpt>
<trkpt lat="33.810045" lon="-118.3942042">
  <ele>-0.118</ele>
  <time>2026-09-02T22:07:23Z</time>
  <course>2.87</course>
  <speed>0.7043436661176133</speed>
  <fix>3d</fix>
</trkpt>
<trkpt lat="33.8100451" lon="-118.3942042">
  <ele>-0.118</ele>
  <time>2026-09-02T22:07:23Z</time>
  <course>2.89</course>
  <speed>0.7043436661176133</speed>
  <fix>3d</fix>
</trkpt>
<trkpt lat="33.8100451" lon="-118.3942041">
  <ele>-0.118</ele>
  <time>2026-09-02T22:07:23Z</time>
  <course>2.91</course>
  <speed>0.7043436661176133</speed>
  <fix>3d</fix>
</trkpt>
<trkpt lat="33.8100452" lon="-118.3942041">
  <ele>-0.119</ele>
  <time>2026-09-02T22:07:23Z</time>
  <course>2.93</course>
  <speed>0.7043436661176133</speed>
  <fix>3d</fix>
</trkpt>
<trkpt lat="33.8100452" lon="-118.394204">
  <ele>-0.119</ele>
  <time>2026-09-02T22:07:23Z</time>
  <course>2.95</course>
  <speed>0.7043436661176133</speed>
  <fix>3d</fix>
</trkpt>
<trkpt lat="33.8100453" lon="-118.394204">
  <ele>-0.119</ele>
  <time>2026-09-02T22:07:23Z</time>
  <course>2.98</course>
  <speed>0.7043436661176133</speed>
  <fix>3d</fix>
</trkpt>
<trkpt lat="33.8100453" lon="-118.394204">
  <ele>-0.119</ele>
  <time>2026-09-02T22:07:23Z</time>
  <course>2.99</course>
  <speed>0.7043436661176133</speed>
  <fix>3d</fix>
</trkpt>
<trkpt lat="33.8100448" lon="-118.3942046">
  <ele>-0.1</ele>
  <time>2026-09-02T22:07:23Z</time>
  <course>38.73</course>
  <speed>0.73</speed>
  <fix>3d</fix>
</trkpt>
<trkpt lat="33.8100453" lon="-118.3942039">
  <ele>-0.119</ele>
  <time>2026-09-02T22:07:23Z</time>
  <course>2.99</course>
  <speed>0.7043436661176133</speed>
  <fix>3d</fix>
</trkpt>
<trkpt lat="33.8100454" lon="-118.3942039">
  <ele>-0.119</ele>
  <time>2026-09-02T22:07:23Z</time>
  <course>3.03</course>
  <speed>0.7043436661176133</speed>
  <fix>3d</fix>
</trkpt>
<trkpt lat="33.8100455" lon="-118.3942038">
  <ele>-0.119</ele>
  <time>2026-09-02T22:07:23Z</time>
  <course>3.05</course>
  <speed>0.7043436661176133</speed>
  <fix>3d</fix>
</trkpt>
<trkpt lat="33.8100455" lon="-118.3942038">
  <ele>-0.119</ele>
  <time>2026-09-02T22:07:23Z</time>
  <course>3.07</course>
  <speed>0.7043436661176133</speed>
  <fix>3d</fix>
</trkpt>
<trkpt lat="33.8100456" lon="-118.3942037">
  <ele>-0.119</ele>
  <time>2026-09-02T22:07:23Z</time>
  <course>3.09</course>
  <speed>0.7043436661176133</speed>
  <fix>3d</fix>
</trkpt>
<trkpt lat="33.8100456" lon="-118.3942037">
  <ele>-0.119</ele>
  <time>2026-09-02T22:07:23Z</time>
  <course>3.11</course>
  <speed>0.7043436661176133</speed>
  <fix>3d</fix>
</trkpt>
<trkpt lat="33.8100457" lon="-118.3942036">
  <ele>-0.119</ele>
  <time>2026-09-02T22:07:23Z</time>
  <course>3.13</course>
  <speed>0.7043436661176133</speed>
  <fix>3d</fix>
</trkpt>
<trkpt lat="33.8100457" lon="-118.3942036">
  <ele>-0.119</ele>
  <time>2026-09-02T22:07:23Z</time>
  <course>3.15</course>
  <speed>0.7043436661176133</speed>
  <fix>3d</fix>
</trkpt>
<trkpt lat="33.8100458" lon="-118.3942035">
  <ele>-0.118</ele>
  <time>2026-09-02T22:07:23Z</time>
  <course>3.17</course>
  <speed>0.7043436661176133</speed>
  <fix>3d</fix>
</trkpt>
<trkpt lat="33.8100458" lon="-118.3942035">
  <ele>-0.118</ele>
  <time>2026-09-02T22:07:23Z</time>
  <course>3.19</course>
  <speed>0.7043436661176133</speed>
  <fix>3d</fix>
</trkpt>
<trkpt lat="33.8100458" lon="-118.3942035">
  <ele>-0.118</ele>
  <time>2026-09-02T22:07:23Z</time>
  <course>3.19</course>
  <speed>0.7043436661176133</speed>
  <fix>3d</fix>
</trkpt>
<trkpt lat="33.8100448" lon="-118.3942046">
  <ele>-0.1</ele>
  <time>2026-09-02T22:07:23Z</time>
  <course>38.73</course>
  <speed>0.73</speed>
  <fix>3d</fix>
</trkpt>
<trkpt lat="33.8100459" lon="-118.3942034">
  <ele>-0.118</ele>
  <time>2026-09-02T22:07:23Z</time>
  <course>3.22</course>
  <speed>0.7043436661176133</speed>
  <fix>3d</fix>
</trkpt>
<trkpt lat="33.810046" lon="-118.3942033">
  <ele>-0.118</ele>
  <time>2026-09-02T22:07:23Z</time>
  <course>3.24</course>
  <speed>0.7043436661176133</speed>
  <fix>3d</fix>
</trkpt>
<trkpt lat="33.810046" lon="-118.3942033">
  <ele>-0.118</ele>
  <time>2026-09-02T22:07:23Z</time>
  <course>3.26</course>
  <speed>0.7043436661176133</speed>
  <fix>3d</fix>
</trkpt>
<trkpt lat="33.8100461" lon="-118.3942032">
  <ele>-0.118</ele>
  <time>2026-09-02T22:07:23Z</time>
  <course>3.28</course>
  <speed>0.7043436661176133</speed>
  <fix>3d</fix>
</trkpt>
<trkpt lat="33.8100462" lon="-118.3942032">
  <ele>-0.117</ele>
  <time>2026-09-02T22:07:23Z</time>
  <course>3.3</course>
  <speed>0.7043436661176133</speed>
  <fix>3d</fix>
</trkpt>
<trkpt lat="33.8100462" lon="-118.3942031">
  <ele>-0.117</ele>
  <time>2026-09-02T22:07:23Z</time>
  <course>3.31</course>
  <speed>0.7043436661176133</speed>
  <fix>3d</fix>
</trkpt>
<trkpt lat="33.8100462" lon="-118.3942031">
  <ele>-0.117</ele>
  <time>2026-09-02T22:07:23Z</time>
  <course>3.33</course>
  <speed>0.7043436661176133</speed>
  <fix>3d</fix>
</trkpt>
<trkpt lat="33.8100463" lon="-118.394203">
  <ele>-0.117</ele>
  <time>2026-09-02T22:07:23Z</time>
  <course>3.35</course>
  <speed>0.7043436661176133</speed>
  <fix>3d</fix>
</trkpt>
<trkpt lat="33.8100463" lon="-118.394203">
  <ele>-0.117</ele>
  <time>2026-09-02T22:07:23Z</time>
  <course>3.36</course>
  <speed>0.7043436661176133</speed>
  <fix>3d</fix>
</trkpt>
<trkpt lat="33.8100464" lon="-118.394203">
  <ele>-0.117</ele>
  <time>2026-09-02T22:07:23Z</time>
  <course>3.37</course>
  <speed>0.7043436661176133</speed>
  <fix>3d</fix>
</trkpt>
<trkpt lat="33.8100458" lon="-118.3942036">
  <ele>-0.1</ele>
  <time>2026-09-02T22:07:23Z</time>
  <course>39.47</course>
  <speed>0.73</speed>
  <fix>3d</fix>
</trkpt>
<trkpt lat="33.8100464" lon="-118.394203">
  <ele>-0.117</ele>
  <time>2026-09-02T22:07:23Z</time>
  <course>3.37</course>
  <speed>0.7043436661176133</speed>
  <fix>3d</fix>
</trkpt>
<trkpt lat="33.8100464" lon="-118.3942029">
  <ele>-0.116</ele>
  <time>2026-09-02T22:07:23Z</time>
  <course>3.39</course>
  <speed>0.7043436661176133</speed>
  <fix>3d</fix>
</trkpt>
<trkpt lat="33.8100465" lon="-118.3942029">
  <ele>-0.116</ele>
  <time>2026-09-02T22:07:23Z</time>
  <course>3.41</course>
  <speed>0.7043436661176133</speed>
  <fix>3d</fix>
</trkpt>
<trkpt lat="33.8100465" lon="-118.3942028">
  <ele>-0.116</ele>
  <time>2026-09-02T22:07:23Z</time>
  <course>3.42</course>
  <speed>0.7106335201775947</speed>
  <fix>3d</fix>
</trkpt>
<trkpt lat="33.8100466" lon="-118.3942028">
  <ele>-0.116</ele>
  <time>2026-09-02T22:07:23Z</time>
  <course>3.44</course>
  <speed>0.7106335201775947</speed>
  <fix>3d</fix>
</trkpt>
<trkpt lat="33.8100466" lon="-118.3942027">
  <ele>-0.116</ele>
  <time>2026-09-02T22:07:23Z</time>
  <course>3.46</course>
  <speed>0.7106335201775947</speed>
  <fix>3d</fix>
</trkpt>
<trkpt lat="33.8100467" lon="-118.3942027">
  <ele>-0.116</ele>
  <time>2026-09-02T22:07:23Z</time>
  <course>3.47</course>
  <speed>0.7106335201775947</speed>
  <fix>3d</fix>
</trkpt>
<trkpt lat="33.8100467" lon="-118.3942026">
  <ele>-0.116</ele>
  <time>2026-09-02T22:07:23Z</time>
  <course>3.48</course>
  <speed>0.7106335201775947</speed>
  <fix>3d</fix>
</trkpt>
<trkpt lat="33.8100467" lon="-118.3942026">
  <ele>-0.115</ele>
  <time>2026-09-02T22:07:23Z</time>
  <course>3.5</course>
  <speed>0.7106335201775947</speed>
  <fix>3d</fix>
</trkpt>
<trkpt lat="33.8100468" lon="-118.3942026">
  <ele>-0.115</ele>
  <time>2026-09-02T22:07:23Z</time>
  <course>3.51</course>
  <speed>0.7106335201775947</speed>
  <fix>3d</fix>
</trkpt>
<trkpt lat="33.8100468" lon="-118.3942025">
  <ele>-0.115</ele>
  <time>2026-09-02T22:07:23Z</time>
  <course>3.52</course>
  <speed>0.7106335201775947</speed>
  <fix>3d</fix>
</trkpt>
<trkpt lat="33.8100468" lon="-118.3942025">
  <ele>-0.115</ele>
  <time>2026-09-02T22:07:23Z</time>
  <course>3.53</course>
  <speed>0.7106335201775947</speed>
  <fix>3d</fix>
</trkpt>
<trkpt lat="33.8100469" lon="-118.3942025">
  <ele>-0.115</ele>
  <time>2026-09-02T22:07:23Z</time>
  <course>3.54</course>
  <speed>0.7106335201775947</speed>
  <fix>3d</fix>
</trkpt>
<trkpt lat="33.8100458" lon="-118.3942036">
  <ele>-0.1</ele>
  <time>2026-09-02T22:07:23Z</time>
  <course>39.47</course>
  <speed>0.73</speed>
  <fix>3d</fix>
</trkpt>
<trkpt lat="33.8100469" lon="-118.3942025">
  <ele>-0.115</ele>
  <time>2026-09-02T22:07:23Z</time>
  <course>3.54</course>
  <speed>0.7106335201775947</speed>
  <fix>3d</fix>
</trkpt>
<trkpt lat="33.810047" lon="-118.3942024">
  <ele>-0.115</ele>
  <time>2026-09-02T22:07:23Z</time>
  <course>3.56</course>
  <speed>0.7106335201775947</speed>
  <fix>3d</fix>
</trkpt>
<trkpt lat="33.810047" lon="-118.3942023">
  <ele>-0.115</ele>
  <time>2026-09-02T22:07:23Z</time>
  <course>3.58</course>
  <speed>0.7106335201775947</speed>
  <fix>3d</fix>
</trkpt>
<trkpt lat="33.810047" lon="-118.3942023">
  <ele>-0.114</ele>
  <time>2026-09-02T22:07:23Z</time>
  <course>3.59</course>
  <speed>0.7106335201775947</speed>
  <fix>3d</fix>
</trkpt>
<trkpt lat="33.8100471" lon="-118.3942023">
  <ele>-0.114</ele>
  <time>2026-09-02T22:07:23Z</time>
  <course>3.6</course>
  <speed>0.7106335201775947</speed>
  <fix>3d</fix>
</trkpt>
<trkpt lat="33.8100471" lon="-118.3942022">
  <ele>-0.114</ele>
  <time>2026-09-02T22:07:23Z</time>
  <course>3.62</course>
  <speed>0.7106335201775947</speed>
  <fix>3d</fix>
</trkpt>
<trkpt lat="33.8100472" lon="-118.3942022">
  <ele>-0.114</ele>
  <time>2026-09-02T22:07:23Z</time>
  <course>3.63</course>
  <speed>0.7106335201775947</speed>
  <fix>3d</fix>
</trkpt>
<trkpt lat="33.8100472" lon="-118.3942021">
  <ele>-0.114</ele>
  <time>2026-09-02T22:07:23Z</time>
  <course>3.64</course>
  <speed>0.7106335201775947</speed>
  <fix>3d</fix>
</trkpt>
<trkpt lat="33.8100472" lon="-118.3942021">
  <ele>-0.114</ele>
  <time>2026-09-02T22:07:23Z</time>
  <course>3.65</course>
  <speed>0.7106335201775947</speed>
  <fix>3d</fix>
</trkpt>
<trkpt lat="33.8100473" lon="-118.3942021">
  <ele>-0.114</ele>
  <time>2026-09-02T22:07:23Z</time>
  <course>3.67</course>
  <speed>0.7106335201775947</speed>
  <fix>3d</fix>
</trkpt>
<trkpt lat="33.8100473" lon="-118.394202">
  <ele>-0.114</ele>
  <time>2026-09-02T22:07:23Z</time>
  <course>3.68</course>
  <speed>0.7106335201775947</speed>
  <fix>3d</fix>
</trkpt>
<trkpt lat="33.8100474" lon="-118.394202">
  <ele>-0.114</ele>
  <time>2026-09-02T22:07:23Z</time>
  <course>3.69</course>
  <speed>0.7106335201775947</speed>
  <fix>3d</fix>
</trkpt>
<trkpt lat="33.8100474" lon="-118.394202">
  <ele>-0.114</ele>
  <time>2026-09-02T22:07:23Z</time>
  <course>3.69</course>
  <speed>0.7106335201775947</speed>
  <fix>3d</fix>
</trkpt>
<trkpt lat="33.8100467" lon="-118.3942026">
  <ele>-0.11</ele>
  <time>2026-09-02T22:07:23Z</time>
  <course>39.99</course>
  <speed>0.73</speed>
  <fix>3d</fix>
</trkpt>
<trkpt lat="33.8100475" lon="-118.3942019">
  <ele>-0.114</ele>
  <time>2026-09-02T22:07:23Z</time>
  <course>3.72</course>
  <speed>0.7106335201775947</speed>
  <fix>3d</fix>
</trkpt>
<trkpt lat="33.8100475" lon="-118.3942018">
  <ele>-0.114</ele>
  <time>2026-09-02T22:07:23Z</time>
  <course>3.74</course>
  <speed>0.702922470831599</speed>
  <fix>3d</fix>
</trkpt>
<trkpt lat="33.8100476" lon="-118.3942018">
  <ele>-0.114</ele>
  <time>2026-09-02T22:07:23Z</time>
  <course>3.75</course>
  <speed>0.702922470831599</speed>
  <fix>3d</fix>
</trkpt>
<trkpt lat="33.8100476" lon="-118.3942017">
  <ele>-0.114</ele>
  <time>2026-09-02T22:07:23Z</time>
  <course>3.76</course>
  <speed>0.702922470831599</speed>
  <fix>3d</fix>
</trkpt>
<trkpt lat="33.8100477" lon="-118.3942017">
  <ele>-0.114</ele>
  <time>2026-09-02T22:07:23Z</time>
  <course>3.78</course>
  <speed>0.702922470831599</speed>
  <fix>3d</fix>
</trkpt>
<trkpt lat="33.8100477" lon="-118.3942016">
  <ele>-0.114</ele>
  <time>2026-09-02T22:07:23Z</time>
  <course>3.79</course>
  <speed>0.702922470831599</speed>
  <fix>3d</fix>
</trkpt>
<trkpt lat="33.8100477" lon="-118.3942016">
  <ele>-0.114</ele>
  <time>2026-09-02T22:07:23Z</time>
  <course>3.8</course>
  <speed>0.702922470831599</speed>
  <fix>3d</fix>
</trkpt>
<trkpt lat="33.8100478" lon="-118.3942016">
  <ele>-0.113</ele>
  <time>2026-09-02T22:07:23Z</time>
  <course>3.81</course>
  <speed>0.702922470831599</speed>
  <fix>3d</fix>
</trkpt>
<trkpt lat="33.8100478" lon="-118.3942015">
  <ele>-0.113</ele>
  <time>2026-09-02T22:07:23Z</time>
  <course>3.82</course>
  <speed>0.702922470831599</speed>
  <fix>3d</fix>
</trkpt>
<trkpt lat="33.8100479" lon="-118.3942015">
  <ele>-0.113</ele>
  <time>2026-09-02T22:07:23Z</time>
  <course>3.83</course>
  <speed>0.702922470831599</speed>
  <fix>3d</fix>
</trkpt>
<trkpt lat="33.8100479" lon="-118.3942015">
  <ele>-0.113</ele>
  <time>2026-09-02T22:07:23Z</time>
  <course>3.84</course>
  <speed>0.702922470831599</speed>
  <fix>3d</fix>
</trkpt>
<trkpt lat="33.8100467" lon="-118.3942026">
  <ele>-0.11</ele>
  <time>2026-09-02T22:07:23Z</time>
  <course>39.99</course>
  <speed>0.73</speed>
  <fix>3d</fix>
</trkpt>
<trkpt lat="33.8100479" lon="-118.3942015">
  <ele>-0.113</ele>
  <time>2026-09-02T22:07:23Z</time>
  <course>3.84</course>
  <speed>0.702922470831599</speed>
  <fix>3d</fix>
</trkpt>
<trkpt lat="33.810048" lon="-118.3942014">
  <ele>-0.113</ele>
  <time>2026-09-02T22:07:23Z</time>
  <course>3.86</course>
  <speed>0.702922470831599</speed>
  <fix>3d</fix>
</trkpt>
<trkpt lat="33.810048" lon="-118.3942013">
  <ele>-0.113</ele>
  <time>2026-09-02T22:07:23Z</time>
  <course>3.87</course>
  <speed>0.702922470831599</speed>
  <fix>3d</fix>
</trkpt>
<trkpt lat="33.8100481" lon="-118.3942013">
  <ele>-0.113</ele>
  <time>2026-09-02T22:07:23Z</time>
  <course>3.89</course>
  <speed>0.702922470831599</speed>
  <fix>3d</fix>
</trkpt>
<trkpt lat="33.8100481" lon="-118.3942012">
  <ele>-0.113</ele>
  <time>2026-09-02T22:07:23Z</time>
  <course>3.9</course>
  <speed>0.702922470831599</speed>
  <fix>3d</fix>
</trkpt>
<trkpt lat="33.8100481" lon="-118.3942012">
  <ele>-0.112</ele>
  <time>2026-09-02T22:07:23Z</time>
  <course>3.91</course>
  <speed>0.702922470831599</speed>
  <fix>3d</fix>
</trkpt>
<trkpt lat="33.8100482" lon="-118.3942012">
  <ele>-0.112</ele>
  <time>2026-09-02T22:07:23Z</time>
  <course>3.92</course>
  <speed>0.702922470831599</speed>
  <fix>3d</fix>
</trkpt>
<trkpt lat="33.8100482" lon="-118.3942011">
  <ele>-0.112</ele>
  <time>2026-09-02T22:07:23Z</time>
  <course>3.93</course>
  <speed>0.702922470831599</speed>
  <fix>3d</fix>
</trkpt>
<trkpt lat="33.8100482" lon="-118.3942011">
  <ele>-0.112</ele>
  <time>2026-09-02T22:07:23Z</time>
  <course>3.94</course>
  <speed>0.702922470831599</speed>
  <fix>3d</fix>
</trkpt>
<trkpt lat="33.8100483" lon="-118.3942011">
  <ele>-0.112</ele>
  <time>2026-09-02T22:07:23Z</time>
  <course>3.95</course>
  <speed>0.702922470831599</speed>
  <fix>3d</fix>
</trkpt>
<trkpt lat="33.8100483" lon="-118.394201">
  <ele>-0.111</ele>
  <time>2026-09-02T22:07:23Z</time>
  <course>3.96</course>
  <speed>0.702922470831599</speed>
  <fix>3d</fix>
</trkpt>
<trkpt lat="33.8100484" lon="-118.394201">
  <ele>-0.111</ele>
  <time>2026-09-02T22:07:23Z</time>
  <course>3.97</course>
  <speed>0.702922470831599</speed>
  <fix>3d</fix>
</trkpt>
<trkpt lat="33.8100484" lon="-118.394201">
  <ele>-0.111</ele>
  <time>2026-09-02T22:07:23Z</time>
  <course>3.97</course>
  <speed>0.702922470831599</speed>
  <fix>3d</fix>
</trkpt>
<trkpt lat="33.8100478" lon="-118.3942016">
  <ele>-0.1</ele>
  <time>2026-09-02T22:07:23Z</time>
  <course>40.39</course>
  <speed>0.73</speed>
  <fix>3d</fix>
</trkpt>
<trkpt lat="33.8100484" lon="-118.3942009">
  <ele>-0.111</ele>
  <time>2026-09-02T22:07:23Z</time>
  <course>3.98</course>
  <speed>0.702922470831599</speed>
  <fix>3d</fix>
</trkpt>
<trkpt lat="33.8100485" lon="-118.3942009">
  <ele>-0.111</ele>
  <time>2026-09-02T22:07:23Z</time>
  <course>4.0</course>
  <speed>0.702922470831599</speed>
  <fix>3d</fix>
</trkpt>
<trkpt lat="33.8100485" lon="-118.3942008">
  <ele>-0.111</ele>
  <time>2026-09-02T22:07:23Z</time>
  <course>4.01</course>
  <speed>0.709365914038728</speed>
  <fix>3d</fix>
</trkpt>
<trkpt lat="33.8100486" lon="-118.3942008">
  <ele>-0.111</ele>
  <time>2026-09-02T22:07:23Z</time>
  <course>4.02</course>
  <speed>0.709365914038728</speed>
  <fix>3d</fix>
</trkpt>
<trkpt lat="33.8100486" lon="-118.3942007">
  <ele>-0.11</ele>
  <time>2026-09-02T22:07:23Z</time>
  <course>4.03</course>
  <speed>0.709365914038728</speed>
  <fix>3d</fix>
</trkpt>
<trkpt lat="33.8100486" lon="-118.3942007">
  <ele>-0.11</ele>
  <time>2026-09-02T22:07:23Z</time>
  <course>4.04</course>
  <speed>0.709365914038728</speed>
  <fix>3d</fix>
</trkpt>
<trkpt lat="33.8100487" lon="-118.3942007">
  <ele>-0.11</ele>
  <time>2026-09-02T22:07:23Z</time>
  <course>4.05</course>
  <speed>0.709365914038728</speed>
  <fix>3d</fix>
</trkpt>
<trkpt lat="33.8100487" lon="-118.3942006">
  <ele>-0.11</ele>
  <time>2026-09-02T22:07:23Z</time>
  <course>4.06</course>
  <speed>0.709365914038728</speed>
  <fix>3d</fix>
</trkpt>
<trkpt lat="33.8100488" lon="-118.3942006">
  <ele>-0.11</ele>
  <time>2026-09-02T22:07:23Z</time>
  <course>4.07</course>
  <speed>0.709365914038728</speed>
  <fix>3d</fix>
</trkpt>
<trkpt lat="33.8100488" lon="-118.3942005">
  <ele>-0.11</ele>
  <time>2026-09-02T22:07:23Z</time>
  <course>4.08</course>
  <speed>0.709365914038728</speed>
  <fix>3d</fix>
</trkpt>
<trkpt lat="33.8100489" lon="-118.3942005">
  <ele>-0.11</ele>
  <time>2026-09-02T22:07:23Z</time>
  <course>4.1</course>
  <speed>0.709365914038728</speed>
  <fix>3d</fix>
</trkpt>
<trkpt lat="33.8100489" lon="-118.3942004">
  <ele>-0.109</ele>
  <time>2026-09-02T22:07:23Z</time>
  <course>4.1</course>
  <speed>0.709365914038728</speed>
  <fix>3d</fix>
</trkpt>
<trkpt lat="33.8100478" lon="-118.3942016">
  <ele>-0.1</ele>
  <time>2026-09-02T22:07:23Z</time>
  <course>40.39</course>
  <speed>0.73</speed>
  <fix>3d</fix>
</trkpt>
<trkpt lat="33.8100489" lon="-118.3942004">
  <ele>-0.109</ele>
  <time>2026-09-02T22:07:23Z</time>
  <course>4.11</course>
  <speed>0.709365914038728</speed>
  <fix>3d</fix>
</trkpt>
<trkpt lat="33.810049" lon="-118.3942004">
  <ele>-0.109</ele>
  <time>2026-09-02T22:07:23Z</time>
  <course>4.12</course>
  <speed>0.709365914038728</speed>
  <fix>3d</fix>
</trkpt>
<trkpt lat="33.810049" lon="-118.3942003">
  <ele>-0.109</ele>
  <time>2026-09-02T22:07:23Z</time>
  <course>4.13</course>
  <speed>0.709365914038728</speed>
  <fix>3d</fix>
</trkpt>
<trkpt lat="33.8100491" lon="-118.3942003">
  <ele>-0.109</ele>
  <time>2026-09-02T22:07:23Z</time>
  <course>4.15</course>
  <speed>0.709365914038728</speed>
  <fix>3d</fix>
</trkpt>
<trkpt lat="33.8100491" lon="-118.3942002">
  <ele>-0.109</ele>
  <time>2026-09-02T22:07:23Z</time>
  <course>4.16</course>
  <speed>0.709365914038728</speed>
  <fix>3d</fix>
</trkpt>
<trkpt lat="33.8100491" lon="-118.3942002">
  <ele>-0.109</ele>
  <time>2026-09-02T22:07:23Z</time>
  <course>4.17</course>
  <speed>0.709365914038728</speed>
  <fix>3d</fix>
</trkpt>
<trkpt lat="33.8100492" lon="-118.3942001">
  <ele>-0.109</ele>
  <time>2026-09-02T22:07:23Z</time>
  <course>4.17</course>
  <speed>0.709365914038728</speed>
  <fix>3d</fix>
</trkpt>
<trkpt lat="33.8100492" lon="-118.3942001">
  <ele>-0.109</ele>
  <time>2026-09-02T22:07:23Z</time>
  <course>4.18</course>
  <speed>0.709365914038728</speed>
  <fix>3d</fix>
</trkpt>
<trkpt lat="33.8100493" lon="-118.3942001">
  <ele>-0.109</ele>
  <time>2026-09-02T22:07:23Z</time>
  <course>4.2</course>
  <speed>0.709365914038728</speed>
  <fix>3d</fix>
</trkpt>
<trkpt lat="33.8100493" lon="-118.3942">
  <ele>-0.109</ele>
  <time>2026-09-02T22:07:23Z</time>
  <course>4.21</course>
  <speed>0.709365914038728</speed>
  <fix>3d</fix>
</trkpt>
<trkpt lat="33.8100494" lon="-118.3942">
  <ele>-0.109</ele>
  <time>2026-09-02T22:07:23Z</time>
  <course>4.22</course>
  <speed>0.709365914038728</speed>
  <fix>3d</fix>
</trkpt>
<trkpt lat="33.8100494" lon="-118.3941999">
  <ele>-0.109</ele>
  <time>2026-09-02T22:07:23Z</time>
  <course>4.22</course>
  <speed>0.709365914038728</speed>
  <fix>3d</fix>
</trkpt>
<trkpt lat="33.8100494" lon="-118.3941999">
  <ele>-0.109</ele>
  <time>2026-09-02T22:07:23Z</time>
  <course>4.22</course>
  <speed>0.709365914038728</speed>
  <fix>3d</fix>
</trkpt>
<trkpt lat="33.8100487" lon="-118.3942005">
  <ele>-0.1</ele>
  <time>2026-09-02T22:07:23Z</time>
  <course>40.73</course>
  <speed>0.73</speed>
  <fix>3d</fix>
</trkpt>
<trkpt lat="33.8100495" lon="-118.3941998">
  <ele>-0.109</ele>
  <time>2026-09-02T22:07:23Z</time>
  <course>4.24</course>
  <speed>0.709365914038728</speed>
  <fix>3d</fix>
</trkpt>
<trkpt lat="33.8100495" lon="-118.3941998">
  <ele>-0.109</ele>
  <time>2026-09-02T22:07:23Z</time>
  <course>4.25</course>
  <speed>0.709365914038728</speed>
  <fix>3d</fix>
</trkpt>
<trkpt lat="33.8100496" lon="-118.3941997">
  <ele>-0.109</ele>
  <time>2026-09-02T22:07:23Z</time>
  <course>4.27</course>
  <speed>0.709365914038728</speed>
  <fix>3d</fix>
</trkpt>
<trkpt lat="33.8100496" lon="-118.3941997">
  <ele>-0.109</ele>
  <time>2026-09-02T22:07:23Z</time>
  <course>4.27</course>
  <speed>0.709365914038728</speed>
  <fix>3d</fix>
</trkpt>
<trkpt lat="33.8100496" lon="-118.3941997">
  <ele>-0.109</ele>
  <time>2026-09-02T22:07:23Z</time>
  <course>4.28</course>
  <speed>0.709365914038728</speed>
  <fix>3d</fix>
</trkpt>
<trkpt lat="33.8100497" lon="-118.3941996">
  <ele>-0.109</ele>
  <time>2026-09-02T22:07:23Z</time>
  <course>4.29</course>
  <speed>0.709365914038728</speed>
  <fix>3d</fix>
</trkpt>
<trkpt lat="33.8100497" lon="-118.3941996">
  <ele>-0.109</ele>
  <time>2026-09-02T22:07:23Z</time>
  <course>4.3</course>
  <speed>0.709365914038728</speed>
  <fix>3d</fix>
</trkpt>
<trkpt lat="33.8100498" lon="-118.3941995">
  <ele>-0.108</ele>
  <time>2026-09-02T22:07:23Z</time>
  <course>4.31</course>
  <speed>0.709365914038728</speed>
  <fix>3d</fix>
</trkpt>
<trkpt lat="33.8100498" lon="-118.3941995">
  <ele>-0.108</ele>
  <time>2026-09-02T22:07:23Z</time>
  <course>4.32</course>
  <speed>0.709365914038728</speed>
  <fix>3d</fix>
</trkpt>
<trkpt lat="33.8100499" lon="-118.3941994">
  <ele>-0.108</ele>
  <time>2026-09-02T22:07:23Z</time>
  <course>4.33</course>
  <speed>0.709365914038728</speed>
  <fix>3d</fix>
</trkpt>
<trkpt lat="33.8100499" lon="-118.3941994">
  <ele>-0.108</ele>
  <time>2026-09-02T22:07:23Z</time>
  <course>4.34</course>
  <speed>0.709365914038728</speed>
  <fix>3d</fix>
</trkpt>
<trkpt lat="33.8100499" lon="-118.3941994">
  <ele>-0.108</ele>
  <time>2026-09-02T22:07:23Z</time>
  <course>4.34</course>
  <speed>0.709365914038728</speed>
  <fix>3d</fix>
</trkpt>
<trkpt lat="33.8100487" lon="-118.3942005">
  <ele>-0.1</ele>
  <time>2026-09-02T22:07:23Z</time>
  <course>40.73</course>
  <speed>0.73</speed>
  <fix>3d</fix>
</trkpt>
<trkpt lat="33.81005" lon="-118.3941993">
  <ele>-0.108</ele>
  <time>2026-09-02T22:07:23Z</time>
  <course>4.36</course>
  <speed>0.709365914038728</speed>
  <fix>3d</fix>
</trkpt>
<trkpt lat="33.81005" lon="-118.3941993">
  <ele>-0.108</ele>
  <time>2026-09-02T22:07:23Z</time>
  <course>4.37</course>
  <speed>0.709365914038728</speed>
  <fix>3d</fix>
</trkpt>
<trkpt lat="33.8100501" lon="-118.3941992">
  <ele>-0.108</ele>
  <time>2026-09-02T22:07:23Z</time>
  <course>4.38</course>
  <speed>0.709365914038728</speed>
  <fix>3d</fix>
</trkpt>
<trkpt lat="33.8100501" lon="-118.3941992">
  <ele>-0.108</ele>
  <time>2026-09-02T22:07:23Z</time>
  <course>4.39</course>
  <speed>0.709365914038728</speed>
  <fix>3d</fix>
</trkpt>
<trkpt lat="33.8100501" lon="-118.3941991">
  <ele>-0.108</ele>
  <time>2026-09-02T22:07:23Z</time>
  <course>4.4</course>
  <speed>0.709365914038728</speed>
  <fix>3d</fix>
</trkpt>
<trkpt lat="33.8100502" lon="-118.3941991">
  <ele>-0.108</ele>
  <time>2026-09-02T22:07:23Z</time>
  <course>4.4</course>
  <speed>0.709365914038728</speed>
  <fix>3d</fix>
</trkpt>
<trkpt lat="33.8100502" lon="-118.3941991">
  <ele>-0.108</ele>
  <time>2026-09-02T22:07:23Z</time>
  <course>4.41</course>
  <speed>0.709365914038728</speed>
  <fix>3d</fix>
</trkpt>
<trkpt lat="33.8100503" lon="-118.394199">
  <ele>-0.108</ele>
  <time>2026-09-02T22:07:23Z</time>
  <course>4.42</course>
  <speed>0.709365914038728</speed>
  <fix>3d</fix>
</trkpt>
<trkpt lat="33.8100503" lon="-118.394199">
  <ele>-0.108</ele>
  <time>2026-09-02T22:07:23Z</time>
  <course>4.43</course>
  <speed>0.709365914038728</speed>
  <fix>3d</fix>
</trkpt>
<trkpt lat="33.8100503" lon="-118.3941989">
  <ele>-0.109</ele>
  <time>2026-09-02T22:07:23Z</time>
  <course>4.44</course>
  <speed>0.709365914038728</speed>
  <fix>3d</fix>
</trkpt>
<trkpt lat="33.8100504" lon="-118.3941989">
  <ele>-0.109</ele>
  <time>2026-09-02T22:07:23Z</time>
  <course>4.44</course>
  <speed>0.709365914038728</speed>
  <fix>3d</fix>
</trkpt>
<trkpt lat="33.8100504" lon="-118.3941989">
  <ele>-0.109</ele>
  <time>2026-09-02T22:07:23Z</time>
  <course>4.45</course>
  <speed>0.709365914038728</speed>
  <fix>3d</fix>
</trkpt>
<trkpt lat="33.8100498" lon="-118.3941995">
  <ele>-0.1</ele>
  <time>2026-09-02T22:07:23Z</time>
  <course>41.01</course>
  <speed>0.73</speed>
  <fix>3d</fix>
</trkpt>
<trkpt lat="33.8100504" lon="-118.3941989">
  <ele>-0.109</ele>
  <time>2026-09-02T22:07:23Z</time>
  <course>4.45</course>
  <speed>0.709365914038728</speed>
  <fix>3d</fix>
</trkpt>
<trkpt lat="33.8100505" lon="-118.3941988">
  <ele>-0.109</ele>
  <time>2026-09-02T22:07:23Z</time>
  <course>4.47</course>
  <speed>0.709365914038728</speed>
  <fix>3d</fix>
</trkpt>
<trkpt lat="33.8100505" lon="-118.3941988">
  <ele>-0.109</ele>
  <time>2026-09-02T22:07:23Z</time>
  <course>4.48</course>
  <speed>0.709365914038728</speed>
  <fix>3d</fix>
</trkpt>
<trkpt lat="33.8100506" lon="-118.3941987">
  <ele>-0.109</ele>
  <time>2026-09-02T22:07:23Z</time>
  <course>4.48</course>
  <speed>0.709365914038728</speed>
  <fix>3d</fix>
</trkpt>
<trkpt lat="33.8100506" lon="-118.3941987">
  <ele>-0.109</ele>
  <time>2026-09-02T22:07:23Z</time>
  <course>4.49</course>
  <speed>0.709365914038728</speed>
  <fix>3d</fix>
</trkpt>
<trkpt lat="33.8100506" lon="-118.3941986">
  <ele>-0.109</ele>
  <time>2026-09-02T22:07:23Z</time>
  <course>4.5</course>
  <speed>0.709365914038728</speed>
  <fix>3d</fix>
</trkpt>
<trkpt lat="33.8100507" lon="-118.3941986">
  <ele>-0.109</ele>
  <time>2026-09-02T22:07:23Z</time>
  <course>4.51</course>
  <speed>0.709365914038728</speed>
  <fix>3d</fix>
</trkpt>
<trkpt lat="33.8100507" lon="-118.3941986">
  <ele>-0.108</ele>
  <time>2026-09-02T22:07:23Z</time>
  <course>4.52</course>
  <speed>0.7158910531638176</speed>
  <fix>3d</fix>
</trkpt>
<trkpt lat="33.8100508" lon="-118.3941985">
  <ele>-0.108</ele>
  <time>2026-09-02T22:07:23Z</time>
  <course>4.53</course>
  <speed>0.7158910531638176</speed>
  <fix>3d</fix>
</trkpt>
<trkpt lat="33.8100508" lon="-118.3941985">
  <ele>-0.108</ele>
  <time>2026-09-02T22:07:23Z</time>
  <course>4.53</course>
  <speed>0.7158910531638176</speed>
  <fix>3d</fix>
</trkpt>
<trkpt lat="33.8100508" lon="-118.3941984">
  <ele>-0.108</ele>
  <time>2026-09-02T22:07:23Z</time>
  <course>4.54</course>
  <speed>0.7158910531638176</speed>
  <fix>3d</fix>
</trkpt>
<trkpt lat="33.8100509" lon="-118.3941984">
  <ele>-0.108</ele>
  <time>2026-09-02T22:07:23Z</time>
  <course>4.55</course>
  <speed>0.7158910531638176</speed>
  <fix>3d</fix>
</trkpt>
<trkpt lat="33.8100509" lon="-118.3941984">
  <ele>-0.108</ele>
  <time>2026-09-02T22:07:23Z</time>
  <course>4.55</course>
  <speed>0.7158910531638176</speed>
  <fix>3d</fix>
</trkpt>
<trkpt lat="33.8100498" lon="-118.3941995">
  <ele>-0.1</ele>
  <time>2026-09-02T22:07:23Z</time>
  <course>41.01</course>
  <speed>0.73</speed>
  <fix>3d</fix>
</trkpt>
<trkpt lat="33.8100509" lon="-118.3941983">
  <ele>-0.108</ele>
  <time>2026-09-02T22:07:23Z</time>
  <course>4.56</course>
  <speed>0.7158910531638176</speed>
  <fix>3d</fix>
</trkpt>
<trkpt lat="33.810051" lon="-118.3941983">
  <ele>-0.108</ele>
  <time>2026-09-02T22:07:23Z</time>
  <course>4.57</course>
  <speed>0.7158910531638176</speed>
  <fix>3d</fix>
</trkpt>
<trkpt lat="33.810051" lon="-118.3941982">
  <ele>-0.108</ele>
  <time>2026-09-02T22:07:23Z</time>
  <course>4.58</course>
  <speed>0.7158910531638176</speed>
  <fix>3d</fix>
</trkpt>
<trkpt lat="33.8100511" lon="-118.3941982">
  <ele>-0.108</ele>
  <time>2026-09-02T22:07:23Z</time>
  <course>4.59</course>
  <speed>0.7158910531638176</speed>
  <fix>3d</fix>
</trkpt>
<trkpt lat="33.8100511" lon="-118.3941981">
  <ele>-0.108</ele>
  <time>2026-09-02T22:07:23Z</time>
  <course>4.6</course>
  <speed>0.7158910531638176</speed>
  <fix>3d</fix>
</trkpt>
<trkpt lat="33.8100511" lon="-118.3941981">
  <ele>-0.108</ele>
  <time>2026-09-02T22:07:23Z</time>
  <course>4.6</course>
  <speed>0.7158910531638176</speed>
  <fix>3d</fix>
</trkpt>
<trkpt lat="33.8100512" lon="-118.394198">
  <ele>-0.108</ele>
  <time>2026-09-02T22:07:23Z</time>
  <course>4.61</course>
  <speed>0.7158910531638176</speed>
  <fix>3d</fix>
</trkpt>
<trkpt lat="33.8100512" lon="-118.394198">
  <ele>-0.108</ele>
  <time>2026-09-02T22:07:23Z</time>
  <course>4.62</course>
  <speed>0.7158910531638176</speed>
  <fix>3d</fix>
</trkpt>
<trkpt lat="33.8100513" lon="-118.3941979">
  <ele>-0.108</ele>
  <time>2026-09-02T22:07:23Z</time>
  <course>4.63</course>
  <speed>0.7158910531638176</speed>
  <fix>3d</fix>
</trkpt>
<trkpt lat="33.8100513" lon="-118.3941979">
  <ele>-0.108</ele>
  <time>2026-09-02T22:07:23Z</time>
  <course>4.64</course>
  <speed>0.7158910531638176</speed>
  <fix>3d</fix>
</trkpt>
<trkpt lat="33.8100514" lon="-118.3941979">
  <ele>-0.108</ele>
  <time>2026-09-02T22:07:23Z</time>
  <course>4.65</course>
  <speed>0.7158910531638176</speed>
  <fix>3d</fix>
</trkpt>
<trkpt lat="33.8100514" lon="-118.3941978">
  <ele>-0.108</ele>
  <time>2026-09-02T22:07:23Z</time>
  <course>4.65</course>
  <speed>0.7158910531638176</speed>
  <fix>3d</fix>
</trkpt>
<trkpt lat="33.8100508" lon="-118.3941984">
  <ele>-0.1</ele>
  <time>2026-09-02T22:07:23Z</time>
  <course>41.26</course>
  <speed>0.73</speed>
  <fix>3d</fix>
</trkpt>
<trkpt lat="33.8100514" lon="-118.3941978">
  <ele>-0.108</ele>
  <time>2026-09-02T22:07:23Z</time>
  <course>4.66</course>
  <speed>0.7158910531638176</speed>
  <fix>3d</fix>
</trkpt>
<trkpt lat="33.8100515" lon="-118.3941977">
  <ele>-0.108</ele>
  <time>2026-09-02T22:07:23Z</time>
  <course>4.67</course>
  <speed>0.7158910531638176</speed>
  <fix>3d</fix>
</trkpt>
<trkpt lat="33.8100515" lon="-118.3941977">
  <ele>-0.109</ele>
  <time>2026-09-02T22:07:23Z</time>
  <course>4.68</course>
  <speed>0.7158910531638176</speed>
  <fix>3d</fix>
</trkpt>
<trkpt lat="33.8100516" lon="-118.3941976">
  <ele>-0.109</ele>
  <time>2026-09-02T22:07:23Z</time>
  <course>4.69</course>
  <speed>0.7158910531638176</speed>
  <fix>3d</fix>
</trkpt>
<trkpt lat="33.8100516" lon="-118.3941976">
  <ele>-0.109</ele>
  <time>2026-09-02T22:07:23Z</time>
  <course>4.7</course>
  <speed>0.7158910531638176</speed>
  <fix>3d</fix>
</trkpt>
<trkpt lat="33.8100517" lon="-118.3941975">
  <ele>-0.109</ele>
  <time>2026-09-02T22:07:23Z</time>
  <course>4.71</course>
  <speed>0.7158910531638176</speed>
  <fix>3d</fix>
</trkpt>
<trkpt lat="33.8100517" lon="-118.3941975">
  <ele>-0.109</ele>
  <time>2026-09-02T22:07:23Z</time>
  <course>4.71</course>
  <speed>0.7158910531638176</speed>
  <fix>3d</fix>
</trkpt>
<trkpt lat="33.8100517" lon="-118.3941975">
  <ele>-0.109</ele>
  <time>2026-09-02T22:07:23Z</time>
  <course>4.72</course>
  <speed>0.7158910531638176</speed>
  <fix>3d</fix>
</trkpt>
<trkpt lat="33.8100518" lon="-118.3941974">
  <ele>-0.109</ele>
  <time>2026-09-02T22:07:23Z</time>
  <course>4.73</course>
  <speed>0.7158910531638176</speed>
  <fix>3d</fix>
</trkpt>
<trkpt lat="33.8100518" lon="-118.3941974">
  <ele>-0.109</ele>
  <time>2026-09-02T22:07:23Z</time>
  <course>4.73</course>
  <speed>0.7158910531638176</speed>
  <fix>3d</fix>
</trkpt>
<trkpt lat="33.8100519" lon="-118.3941973">
  <ele>-0.109</ele>
  <time>2026-09-02T22:07:23Z</time>
  <course>4.74</course>
  <speed>0.7158910531638176</speed>
  <fix>3d</fix>
</trkpt>
<trkpt lat="33.8100519" lon="-118.3941973">
  <ele>-0.109</ele>
  <time>2026-09-02T22:07:23Z</time>
  <course>4.75</course>
  <speed>0.7158910531638176</speed>
  <fix>3d</fix>
</trkpt>
<trkpt lat="33.8100519" lon="-118.3941973">
  <ele>-0.109</ele>
  <time>2026-09-02T22:07:23Z</time>
  <course>4.75</course>
  <speed>0.7158910531638176</speed>
  <fix>3d</fix>
</trkpt>
<trkpt lat="33.8100508" lon="-118.3941984">
  <ele>-0.1</ele>
  <time>2026-09-02T22:07:23Z</time>
  <course>41.26</course>
  <speed>0.73</speed>
  <fix>3d</fix>
</trkpt>
<trkpt lat="33.810052" lon="-118.3941972">
  <ele>-0.109</ele>
  <time>2026-09-02T22:07:23Z</time>
  <course>4.77</course>
  <speed>0.7158910531638176</speed>
  <fix>3d</fix>
</trkpt>
<trkpt lat="33.810052" lon="-118.3941972">
  <ele>-0.109</ele>
  <time>2026-09-02T22:07:23Z</time>
  <course>4.77</course>
  <speed>0.7158910531638176</speed>
  <fix>3d</fix>
</trkpt>
<trkpt lat="33.8100521" lon="-118.3941971">
  <ele>-0.109</ele>
  <time>2026-09-02T22:07:23Z</time>
  <course>4.78</course>
  <speed>0.7158910531638176</speed>
  <fix>3d</fix>
</trkpt>
<trkpt lat="33.8100521" lon="-118.3941971">
  <ele>-0.109</ele>
  <time>2026-09-02T22:07:23Z</time>
  <course>4.79</course>
  <speed>0.7158910531638176</speed>
  <fix>3d</fix>
</trkpt>
<trkpt lat="33.8100521" lon="-118.394197">
  <ele>-0.109</ele>
  <time>2026-09-02T22:07:23Z</time>
  <course>4.8</course>
  <speed>0.7158910531638176</speed>
  <fix>3d</fix>
</trkpt>
<trkpt lat="33.8100522" lon="-118.394197">
  <ele>-0.109</ele>
  <time>2026-09-02T22:07:23Z</time>
  <course>4.8</course>
  <speed>0.7158910531638176</speed>
  <fix>3d</fix>
</trkpt>
<trkpt lat="33.8100522" lon="-118.3941969">
  <ele>-0.109</ele>
  <time>2026-09-02T22:07:23Z</time>
  <course>4.81</course>
  <speed>0.7158910531638176</speed>
  <fix>3d</fix>
</trkpt>
<trkpt lat="33.8100523" lon="-118.3941969">
  <ele>-0.109</ele>
  <time>2026-09-02T22:07:23Z</time>
  <course>4.82</course>
  <speed>0.7158910531638176</speed>
  <fix>3d</fix>
</trkpt>
<trkpt lat="33.8100523" lon="-118.3941969">
  <ele>-0.109</ele>
  <time>2026-09-02T22:07:23Z</time>
  <course>4.82</course>
  <speed>0.7158910531638176</speed>
  <fix>3d</fix>
</trkpt>
<trkpt lat="33.8100523" lon="-118.3941968">
  <ele>-0.109</ele>
  <time>2026-09-02T22:07:23Z</time>
  <course>4.83</course>
  <speed>0.7158910531638176</speed>
  <fix>3d</fix>
</trkpt>
<trkpt lat="33.8100524" lon="-118.3941968">
  <ele>-0.109</ele>
  <time>2026-09-02T22:07:23Z</time>
  <course>4.84</course>
  <speed>0.7158910531638176</speed>
  <fix>3d</fix>
</trkpt>
<trkpt lat="33.8100524" lon="-118.3941968">
  <ele>-0.109</ele>
  <time>2026-09-02T22:07:23Z</time>
  <course>4.84</course>
  <speed>0.7158910531638176</speed>
  <fix>3d</fix>
</trkpt>
<trkpt lat="33.8100517" lon="-118.3941974">
  <ele>-0.11</ele>
  <time>2026-09-02T22:07:23Z</time>
  <course>41.49</course>
  <speed>0.73</speed>
  <fix>3d</fix>
</trkpt>
<trkpt lat="33.8100524" lon="-118.3941967">
  <ele>-0.109</ele>
  <time>2026-09-02T22:07:23Z</time>
  <course>4.84</course>
  <speed>0.7158910531638176</speed>
  <fix>3d</fix>
</trkpt>
<trkpt lat="33.8100525" lon="-118.3941967">
  <ele>-0.109</ele>
  <time>2026-09-02T22:07:23Z</time>
  <course>4.85</course>
  <speed>0.7158910531638176</speed>
  <fix>3d</fix>
</trkpt>
<trkpt lat="33.8100525" lon="-118.3941966">
  <ele>-0.109</ele>
  <time>2026-09-02T22:07:23Z</time>
  <course>4.86</course>
  <speed>0.7158910531638176</speed>
  <fix>3d</fix>
</trkpt>
<trkpt lat="33.8100526" lon="-118.3941966">
  <ele>-0.109</ele>
  <time>2026-09-02T22:07:23Z</time>
  <course>4.87</course>
  <speed>0.7158910531638176</speed>
  <fix>3d</fix>
</trkpt>
<trkpt lat="33.8100526" lon="-118.3941965">
  <ele>-0.109</ele>
  <time>2026-09-02T22:07:23Z</time>
  <course>4.88</course>
  <speed>0.7158910531638176</speed>
  <fix>3d</fix>
</trkpt>
<trkpt lat="33.8100527" lon="-118.3941965">
  <ele>-0.109</ele>
  <time>2026-09-02T22:07:23Z</time>
  <course>4.89</course>
  <speed>0.7158910531638176</speed>
  <fix>3d</fix>
</trkpt>
<trkpt lat="33.8100527" lon="-118.3941964">
  <ele>-0.109</ele>
  <time>2026-09-02T22:07:23Z</time>
  <course>4.9</course>
  <speed>0.7158910531638176</speed>
  <fix>3d</fix>
</trkpt>
<trkpt lat="33.8100527" lon="-118.3941964">
  <ele>-0.109</ele>
  <time>2026-09-02T22:07:23Z</time>
  <course>4.9</course>
  <speed>0.7158910531638176</speed>
  <fix>3d</fix>
</trkpt>
<trkpt lat="33.8100528" lon="-118.3941963">
  <ele>-0.109</ele>
  <time>2026-09-02T22:07:23Z</time>
  <course>4.91</course>
  <speed>0.7158910531638176</speed>
  <fix>3d</fix>
</trkpt>
<trkpt lat="33.8100528" lon="-118.3941963">
  <ele>-0.109</ele>
  <time>2026-09-02T22:07:23Z</time>
  <course>4.91</course>
  <speed>0.7158910531638176</speed>
  <fix>3d</fix>
</trkpt>
<trkpt lat="33.8100528" lon="-118.3941963">
  <ele>-0.109</ele>
  <time>2026-09-02T22:07:23Z</time>
  <course>4.92</course>
  <speed>0.7158910531638176</speed>
  <fix>3d</fix>
</trkpt>
<trkpt lat="33.8100529" lon="-118.3941962">
  <ele>-0.109</ele>
  <time>2026-09-02T22:07:23Z</time>
  <course>4.93</course>
  <speed>0.7158910531638176</speed>
  <fix>3d</fix>
</trkpt>
<trkpt lat="33.8100529" lon="-118.3941962">
  <ele>-0.109</ele>
  <time>2026-09-02T22:07:23Z</time>
  <course>4.93</course>
  <speed>0.7158910531638176</speed>
  <fix>3d</fix>
</trkpt>
<trkpt lat="33.8100517" lon="-118.3941974">
  <ele>-0.11</ele>
  <time>2026-09-02T22:07:23Z</time>
  <course>41.49</course>
  <speed>0.73</speed>
  <fix>3d</fix>
</trkpt>
<trkpt lat="33.8100529" lon="-118.3941962">
  <ele>-0.109</ele>
  <time>2026-09-02T22:07:23Z</time>
  <course>4.94</course>
  <speed>0.7224956747275377</speed>
  <fix>3d</fix>
</trkpt>
<trkpt lat="33.810053" lon="-118.3941961">
  <ele>-0.109</ele>
  <time>2026-09-02T22:07:23Z</time>
  <course>4.95</course>
  <speed>0.7224956747275377</speed>
  <fix>3d</fix>
</trkpt>
<trkpt lat="33.810053" lon="-118.3941961">
  <ele>-0.109</ele>
  <time>2026-09-02T22:07:23Z</time>
  <course>4.95</course>
  <speed>0.7224956747275377</speed>
  <fix>3d</fix>
</trkpt>
<trkpt lat="33.8100531" lon="-118.394196">
  <ele>-0.109</ele>
  <time>2026-09-02T22:07:23Z</time>
  <course>4.96</course>
  <speed>0.7224956747275377</speed>
  <fix>3d</fix>
</trkpt>
<trkpt lat="33.8100531" lon="-118.394196">
  <ele>-0.108</ele>
  <time>2026-09-02T22:07:23Z</time>
  <course>4.97</course>
  <speed>0.7224956747275377</speed>
  <fix>3d</fix>
</trkpt>
<trkpt lat="33.8100531" lon="-118.3941959">
  <ele>-0.108</ele>
  <time>2026-09-02T22:07:23Z</time>
  <course>4.97</course>
  <speed>0.7224956747275377</speed>
  <fix>3d</fix>
</trkpt>
<trkpt lat="33.8100532" lon="-118.3941959">
  <ele>-0.108</ele>
  <time>2026-09-02T22:07:23Z</time>
  <course>4.98</course>
  <speed>0.7224956747275377</speed>
  <fix>3d</fix>
</trkpt>
<trkpt lat="33.8100532" lon="-118.3941959">
  <ele>-0.108</ele>
  <time>2026-09-02T22:07:23Z</time>
  <course>4.99</course>
  <speed>0.7224956747275377</speed>
  <fix>3d</fix>
</trkpt>
<trkpt lat="33.8100533" lon="-118.3941958">
  <ele>-0.108</ele>
  <time>2026-09-02T22:07:23Z</time>
  <course>4.99</course>
  <speed>0.7224956747275377</speed>
  <fix>3d</fix>
</trkpt>
<trkpt lat="33.8100533" lon="-118.3941958">
  <ele>-0.108</ele>
  <time>2026-09-02T22:07:23Z</time>
  <course>5.0</course>
  <speed>0.7224956747275377</speed>
  <fix>3d</fix>
</trkpt>
<trkpt lat="33.8100533" lon="-118.3941957">
  <ele>-0.108</ele>
  <time>2026-09-02T22:07:23Z</time>
  <course>5.01</course>
  <speed>0.7224956747275377</speed>
  <fix>3d</fix>
</trkpt>
<trkpt lat="33.8100534" lon="-118.3941957">
  <ele>-0.108</ele>
  <time>2026-09-02T22:07:23Z</time>
  <course>5.01</course>
  <speed>0.7224956747275377</speed>
  <fix>3d</fix>
</trkpt>
<trkpt lat="33.8100534" lon="-118.3941957">
  <ele>-0.108</ele>
  <time>2026-09-02T22:07:23Z</time>
  <course>5.01</course>
  <speed>0.7224956747275377</speed>
  <fix>3d</fix>
</trkpt>
<trkpt lat="33.8100527" lon="-118.3941963">
  <ele>-0.1</ele>
  <time>2026-09-02T22:07:23Z</time>
  <course>41.69</course>
  <speed>0.73</speed>
  <fix>3d</fix>
</trkpt>
<trkpt lat="33.8100535" lon="-118.3941956">
  <ele>-0.108</ele>
  <time>2026-09-02T22:07:23Z</time>
  <course>5.03</course>
  <speed>0.7224956747275377</speed>
  <fix>3d</fix>
</trkpt>
<trkpt lat="33.8100535" lon="-118.3941955">
  <ele>-0.108</ele>
  <time>2026-09-02T22:07:23Z</time>
  <course>5.03</course>
  <speed>0.7224956747275377</speed>
  <fix>3d</fix>
</trkpt>
<trkpt lat="33.8100536" lon="-118.3941955">
  <ele>-0.108</ele>
  <time>2026-09-02T22:07:23Z</time>
  <course>5.04</course>
  <speed>0.7224956747275377</speed>
  <fix>3d</fix>
</trkpt>
<trkpt lat="33.8100536" lon="-118.3941954">
  <ele>-0.108</ele>
  <time>2026-09-02T22:07:23Z</time>
  <course>5.05</course>
  <speed>0.7224956747275377</speed>
  <fix>3d</fix>
</trkpt>
<trkpt lat="33.8100536" lon="-118.3941954">
  <ele>-0.108</ele>
  <time>2026-09-02T22:07:23Z</time>
  <course>5.06</course>
  <speed>0.7224956747275377</speed>
  <fix>3d</fix>
</trkpt>
<trkpt lat="33.8100537" lon="-118.3941954">
  <ele>-0.108</ele>
  <time>2026-09-02T22:07:23Z</time>
  <course>5.06</course>
  <speed>0.7224956747275377</speed>
  <fix>3d</fix>
</trkpt>
<trkpt lat="33.8100537" lon="-118.3941953">
  <ele>-0.108</ele>
  <time>2026-09-02T22:07:23Z</time>
  <course>5.07</course>
  <speed>0.7224956747275377</speed>
  <fix>3d</fix>
</trkpt>
<trkpt lat="33.8100538" lon="-118.3941953">
  <ele>-0.108</ele>
  <time>2026-09-02T22:07:23Z</time>
  <course>5.08</course>
  <speed>0.7224956747275377</speed>
  <fix>3d</fix>
</trkpt>
<trkpt lat="33.8100538" lon="-118.3941952">
  <ele>-0.108</ele>
  <time>2026-09-02T22:07:23Z</time>
  <course>5.08</course>
  <speed>0.7224956747275377</speed>
  <fix>3d</fix>
</trkpt>
<trkpt lat="33.8100538" lon="-118.3941952">
  <ele>-0.108</ele>
  <time>2026-09-02T22:07:23Z</time>
  <course>5.09</course>
  <speed>0.7224956747275377</speed>
  <fix>3d</fix>
</trkpt>
<trkpt lat="33.8100539" lon="-118.3941952">
  <ele>-0.108</ele>
  <time>2026-09-02T22:07:23Z</time>
  <course>5.09</course>
  <speed>0.7224956747275377</speed>
  <fix>3d</fix>
</trkpt>
<trkpt lat="33.8100527" lon="-118.3941963">
  <ele>-0.1</ele>
  <time>2026-09-02T22:07:23Z</time>
  <course>41.69</course>
  <speed>0.73</speed>
  <fix>3d</fix>
</trkpt>
<trkpt lat="33.8100539" lon="-118.3941951">
  <ele>-0.108</ele>
  <time>2026-09-02T22:07:23Z</time>
  <course>5.1</course>
  <speed>0.7224956747275377</speed>
  <fix>3d</fix>
</trkpt>
<trkpt lat="33.8100539" lon="-118.3941951">
  <ele>-0.108</ele>
  <time>2026-09-02T22:07:23Z</time>
  <course>5.11</course>
  <speed>0.7224956747275377</speed>
  <fix>3d</fix>
</trkpt>
<trkpt lat="33.810054" lon="-118.394195">
  <ele>-0.108</ele>
  <time>2026-09-02T22:07:23Z</time>
  <course>5.11</course>
  <speed>0.7224956747275377</speed>
  <fix>3d</fix>
</trkpt>
<trkpt lat="33.810054" lon="-118.394195">
  <ele>-0.108</ele>
  <time>2026-09-02T22:07:23Z</time>
  <course>5.12</course>
  <speed>0.7224956747275377</speed>
  <fix>3d</fix>
</trkpt>
<trkpt lat="33.8100541" lon="-118.3941949">
  <ele>-0.108</ele>
  <time>2026-09-02T22:07:23Z</time>
  <course>5.13</course>
  <speed>0.7224956747275377</speed>
  <fix>3d</fix>
</trkpt>
<trkpt lat="33.8100541" lon="-118.3941949">
  <ele>-0.108</ele>
  <time>2026-09-02T22:07:23Z</time>
  <course>5.13</course>
  <speed>0.7224956747275377</speed>
  <fix>3d</fix>
</trkpt>
<trkpt lat="33.8100542" lon="-118.3941948">
  <ele>-0.108</ele>
  <time>2026-09-02T22:07:23Z</time>
  <course>5.14</course>
  <speed>0.7224956747275377</speed>
  <fix>3d</fix>
</trkpt>
<trkpt lat="33.8100542" lon="-118.3941948">
  <ele>-0.108</ele>
  <time>2026-09-02T22:07:23Z</time>
  <course>5.15</course>
  <speed>0.7224956747275377</speed>
  <fix>3d</fix>
</trkpt>
<trkpt lat="33.8100543" lon="-118.3941947">
  <ele>-0.108</ele>
  <time>2026-09-02T22:07:23Z</time>
  <course>5.16</course>
  <speed>0.7224956747275377</speed>
  <fix>3d</fix>
</trkpt>
<trkpt lat="33.8100543" lon="-118.3941947">
  <ele>-0.108</ele>
  <time>2026-09-02T22:07:23Z</time>
  <course>5.16</course>
  <speed>0.7224956747275377</speed>
  <fix>3d</fix>
</trkpt>
<trkpt lat="33.8100543" lon="-118.3941946">
  <ele>-0.108</ele>
  <time>2026-09-02T22:07:23Z</time>
  <course>5.17</course>
  <speed>0.7224956747275377</speed>
  <fix>3d</fix>
</trkpt>
<trkpt lat="33.8100544" lon="-118.3941946">
  <ele>-0.108</ele>
  <time>2026-09-02T22:07:23Z</time>
  <course>5.17</course>
  <speed>0.7224956747275377</speed>
  <fix>3d</fix>
</trkpt>
<trkpt lat="33.8100538" lon="-118.3941953">
  <ele>-0.1</ele>
  <time>2026-09-02T22:07:23Z</time>
  <course>41.87</course>
  <speed>0.73</speed>
  <fix>3d</fix>
</trkpt>
<trkpt lat="33.8100544" lon="-118.3941946">
  <ele>-0.108</ele>
  <time>2026-09-02T22:07:23Z</time>
  <course>5.17</course>
  <speed>0.7224956747275377</speed>
  <fix>3d</fix>
</trkpt>
<trkpt lat="33.8100544" lon="-118.3941945">
  <ele>-0.109</ele>
  <time>2026-09-02T22:07:23Z</time>
  <course>5.19</course>
  <speed>0.7224956747275377</speed>
  <fix>3d</fix>
</trkpt>
<trkpt lat="33.8100545" lon="-118.3941945">
  <ele>-0.109</ele>
  <time>2026-09-02T22:07:23Z</time>
  <course>5.19</course>
  <speed>0.7224956747275377</speed>
  <fix>3d</fix>
</trkpt>
<trkpt lat="33.8100545" lon="-118.3941944">
  <ele>-0.109</ele>
  <time>2026-09-02T22:07:23Z</time>
  <course>5.2</course>
  <speed>0.7224956747275377</speed>
  <fix>3d</fix>
</trkpt>
<trkpt lat="33.8100546" lon="-118.3941944">
  <ele>-0.109</ele>
  <time>2026-09-02T22:07:23Z</time>
  <course>5.2</course>
  <speed>0.7224956747275377</speed>
  <fix>3d</fix>
</trkpt>
<trkpt lat="33.8100546" lon="-118.3941944">
  <ele>-0.109</ele>
  <time>2026-09-02T22:07:23Z</time>
  <course>5.21</course>
  <speed>0.7224956747275377</speed>
  <fix>3d</fix>
</trkpt>
<trkpt lat="33.8100546" lon="-118.3941943">
  <ele>-0.109</ele>
  <time>2026-09-02T22:07:23Z</time>
  <course>5.21</course>
  <speed>0.7224956747275377</speed>
  <fix>3d</fix>
</trkpt>
<trkpt lat="33.8100547" lon="-118.3941943">
  <ele>-0.109</ele>
  <time>2026-09-02T22:07:23Z</time>
  <course>5.22</course>
  <speed>0.7224956747275377</speed>
  <fix>3d</fix>
</trkpt>
<trkpt lat="33.8100547" lon="-118.3941942">
  <ele>-0.109</ele>
  <time>2026-09-02T22:07:23Z</time>
  <course>5.23</course>
  <speed>0.7224956747275377</speed>
  <fix>3d</fix>
</trkpt>
<trkpt lat="33.8100548" lon="-118.3941942">
  <ele>-0.109</ele>
  <time>2026-09-02T22:07:23Z</time>
  <course>5.23</course>
  <speed>0.7224956747275377</speed>
  <fix>3d</fix>
</trkpt>
<trkpt lat="33.8100548" lon="-118.3941941">
  <ele>-0.11</ele>
  <time>2026-09-02T22:07:23Z</time>
  <course>5.24</course>
  <speed>0.7224956747275377</speed>
  <fix>3d</fix>
</trkpt>
<trkpt lat="33.8100548" lon="-118.3941941">
  <ele>-0.11</ele>
  <time>2026-09-02T22:07:23Z</time>
  <course>5.24</course>
  <speed>0.7224956747275377</speed>
  <fix>3d</fix>
</trkpt>
<trkpt lat="33.8100549" lon="-118.3941941">
  <ele>-0.11</ele>
  <time>2026-09-02T22:07:23Z</time>
  <course>5.25</course>
  <speed>0.7224956747275377</speed>
  <fix>3d</fix>
</trkpt>
<trkpt lat="33.8100538" lon="-118.3941953">
  <ele>-0.1</ele>
  <time>2026-09-02T22:07:23Z</time>
  <course>41.87</course>
  <speed>0.73</speed>
  <fix>3d</fix>
</trkpt>
<trkpt lat="33.8100549" lon="-118.3941941">
  <ele>-0.11</ele>
  <time>2026-09-02T22:07:23Z</time>
  <course>5.25</course>
  <speed>0.7224956747275377</speed>
  <fix>3d</fix>
</trkpt>
<trkpt lat="33.8100549" lon="-118.394194">
  <ele>-0.11</ele>
  <time>2026-09-02T22:07:23Z</time>
  <course>5.26</course>
  <speed>0.7150524456289902</speed>
  <fix>3d</fix>
</trkpt>
<trkpt lat="33.810055" lon="-118.3941939">
  <ele>-0.11</ele>
  <time>2026-09-02T22:07:23Z</time>
  <course>5.27</course>
  <speed>0.7150524456289902</speed>
  <fix>3d</fix>
</trkpt>
<trkpt lat="33.810055" lon="-118.3941939">
  <ele>-0.11</ele>
  <time>2026-09-02T22:07:23Z</time>
  <course>5.27</course>
  <speed>0.7150524456289902</speed>
  <fix>3d</fix>
</trkpt>
<trkpt lat="33.8100551" lon="-118.3941938">
  <ele>-0.11</ele>
  <time>2026-09-02T22:07:23Z</time>
  <course>5.28</course>
  <speed>0.7150524456289902</speed>
  <fix>3d</fix>
</trkpt>
<trkpt lat="33.8100551" lon="-118.3941938">
  <ele>-0.11</ele>
  <time>2026-09-02T22:07:23Z</time>
  <course>5.29</course>
  <speed>0.7150524456289902</speed>
  <fix>3d</fix>
</trkpt>
<trkpt lat="33.8100552" lon="-118.3941937">
  <ele>-0.11</ele>
  <time>2026-09-02T22:07:23Z</time>
  <course>5.29</course>
  <speed>0.7150524456289902</speed>
  <fix>3d</fix>
</trkpt>
<trkpt lat="33.8100552" lon="-118.3941937">
  <ele>-0.111</ele>
  <time>2026-09-02T22:07:23Z</time>
  <course>5.3</course>
  <speed>0.7150524456289902</speed>
  <fix>3d</fix>
</trkpt>
<trkpt lat="33.8100553" lon="-118.3941936">
  <ele>-0.111</ele>
  <time>2026-09-02T22:07:23Z</time>
  <course>5.31</course>
  <speed>0.7150524456289902</speed>
  <fix>3d</fix>
</trkpt>
<trkpt lat="33.8100553" lon="-118.3941936">
  <ele>-0.111</ele>
  <time>2026-09-02T22:07:23Z</time>
  <course>5.31</course>
  <speed>0.7150524456289902</speed>
  <fix>3d</fix>
</trkpt>
<trkpt lat="33.8100553" lon="-118.3941936">
  <ele>-0.111</ele>
  <time>2026-09-02T22:07:23Z</time>
  <course>5.32</course>
  <speed>0.7150524456289902</speed>
  <fix>3d</fix>
</trkpt>
<trkpt lat="33.8100554" lon="-118.3941935">
  <ele>-0.111</ele>
  <time>2026-09-02T22:07:23Z</time>
  <course>5.32</course>
  <speed>0.7150524456289902</speed>
  <fix>3d</fix>
</trkpt>
<trkpt lat="33.8100548" lon="-118.3941942">
  <ele>-0.1</ele>
  <time>2026-09-02T22:07:23Z</time>
  <course>42.04</course>
  <speed>0.73</speed>
  <fix>3d</fix>
</trkpt>
<trkpt lat="33.8100554" lon="-118.3941935">
  <ele>-0.111</ele>
  <time>2026-09-02T22:07:23Z</time>
  <course>5.32</course>
  <speed>0.7150524456289902</speed>
  <fix>3d</fix>
</trkpt>
<trkpt lat="33.8100554" lon="-118.3941935">
  <ele>-0.111</ele>
  <time>2026-09-02T22:07:23Z</time>
  <course>5.33</course>
  <speed>0.7150524456289902</speed>
  <fix>3d</fix>
</trkpt>
<trkpt lat="33.8100555" lon="-118.3941934">
  <ele>-0.111</ele>
  <time>2026-09-02T22:07:23Z</time>
  <course>5.34</course>
  <speed>0.7150524456289902</speed>
  <fix>3d</fix>
</trkpt>
<trkpt lat="33.8100555" lon="-118.3941934">
  <ele>-0.111</ele>
  <time>2026-09-02T22:07:23Z</time>
  <course>5.34</course>
  <speed>0.7150524456289902</speed>
  <fix>3d</fix>
</trkpt>
<trkpt lat="33.8100555" lon="-118.3941933">
  <ele>-0.111</ele>
  <time>2026-09-02T22:07:23Z</time>
  <course>5.35</course>
  <speed>0.7218032973047436</speed>
  <fix>3d</fix>
</trkpt>
<trkpt lat="33.8100556" lon="-118.3941933">
  <ele>-0.111</ele>
  <time>2026-09-02T22:07:23Z</time>
  <course>5.35</course>
  <speed>0.7218032973047436</speed>
  <fix>3d</fix>
</trkpt>
<trkpt lat="33.8100556" lon="-118.3941933">
  <ele>-0.111</ele>
  <time>2026-09-02T22:07:23Z</time>
  <course>5.36</course>
  <speed>0.7218032973047436</speed>
  <fix>3d</fix>
</trkpt>
<trkpt lat="33.8100557" lon="-118.3941932">
  <ele>-0.111</ele>
  <time>2026-09-02T22:07:23Z</time>
  <course>5.36</course>
  <speed>0.7218032973047436</speed>
  <fix>3d</fix>
</trkpt>
<trkpt lat="33.8100557" lon="-118.3941932">
  <ele>-0.111</ele>
  <time>2026-09-02T22:07:23Z</time>
  <course>5.37</course>
  <speed>0.7218032973047436</speed>
  <fix>3d</fix>
</trkpt>
<trkpt lat="33.8100557" lon="-118.3941931">
  <ele>-0.111</ele>
  <time>2026-09-02T22:07:23Z</time>
  <course>5.37</course>
  <speed>0.7218032973047436</speed>
  <fix>3d</fix>
</trkpt>
<trkpt lat="33.8100558" lon="-118.3941931">
  <ele>-0.111</ele>
  <time>2026-09-02T22:07:23Z</time>
  <course>5.38</course>
  <speed>0.7218032973047436</speed>
  <fix>3d</fix>
</trkpt>
<trkpt lat="33.8100558" lon="-118.3941931">
  <ele>-0.111</ele>
  <time>2026-09-02T22:07:23Z</time>
  <course>5.39</course>
  <speed>0.7218032973047436</speed>
  <fix>3d</fix>
</trkpt>
<trkpt lat="33.8100558" lon="-118.394193">
  <ele>-0.111</ele>
  <time>2026-09-02T22:07:23Z</time>
  <course>5.39</course>
  <speed>0.7218032973047436</speed>
  <fix>3d</fix>
</trkpt>
<trkpt lat="33.8100558" lon="-118.394193">
  <ele>-0.111</ele>
  <time>2026-09-02T22:07:23Z</time>
  <course>5.39</course>
  <speed>0.7218032973047436</speed>
  <fix>3d</fix>
</trkpt>
<trkpt lat="33.8100548" lon="-118.3941942">
  <ele>-0.1</ele>
  <time>2026-09-02T22:07:23Z</time>
  <course>42.04</course>
  <speed>0.73</speed>
  <fix>3d</fix>
</trkpt>
<trkpt lat="33.8100559" lon="-118.3941929">
  <ele>-0.111</ele>
  <time>2026-09-02T22:07:23Z</time>
  <course>5.4</course>
  <speed>0.7218032973047436</speed>
  <fix>3d</fix>
</trkpt>
<trkpt lat="33.810056" lon="-118.3941929">
  <ele>-0.111</ele>
  <time>2026-09-02T22:07:23Z</time>
  <course>5.41</course>
  <speed>0.7218032973047436</speed>
  <fix>3d</fix>
</trkpt>
<trkpt lat="33.810056" lon="-118.3941928">
  <ele>-0.111</ele>
  <time>2026-09-02T22:07:23Z</time>
  <course>5.42</course>
  <speed>0.7218032973047436</speed>
  <fix>3d</fix>
</trkpt>
<trkpt lat="33.8100561" lon="-118.3941928">
  <ele>-0.111</ele>
  <time>2026-09-02T22:07:23Z</time>
  <course>5.42</course>
  <speed>0.7218032973047436</speed>
  <fix>3d</fix>
</trkpt>
<trkpt lat="33.8100561" lon="-118.3941927">
  <ele>-0.111</ele>
  <time>2026-09-02T22:07:23Z</time>
  <course>5.43</course>
  <speed>0.7218032973047436</speed>
  <fix>3d</fix>
</trkpt>
<trkpt lat="33.8100561" lon="-118.3941927">
  <ele>-0.111</ele>
  <time>2026-09-02T22:07:23Z</time>
  <course>5.43</course>
  <speed>0.7218032973047436</speed>
  <fix>3d</fix>
</trkpt>
<trkpt lat="33.8100562" lon="-118.3941926">
  <ele>-0.111</ele>
  <time>2026-09-02T22:07:23Z</time>
  <course>5.44</course>
  <speed>0.7218032973047436</speed>
  <fix>3d</fix>
</trkpt>
<trkpt lat="33.8100562" lon="-118.3941926">
  <ele>-0.111</ele>
  <time>2026-09-02T22:07:23Z</time>
  <course>5.44</course>
  <speed>0.7218032973047436</speed>
  <fix>3d</fix>
</trkpt>
<trkpt lat="33.8100563" lon="-118.3941925">
  <ele>-0.111</ele>
  <time>2026-09-02T22:07:23Z</time>
  <course>5.45</course>
  <speed>0.7218032973047436</speed>
  <fix>3d</fix>
</trkpt>
<trkpt lat="33.8100563" lon="-118.3941925">
  <ele>-0.111</ele>
  <time>2026-09-02T22:07:23Z</time>
  <course>5.46</course>
  <speed>0.7218032973047436</speed>
  <fix>3d</fix>
</trkpt>
<trkpt lat="33.8100563" lon="-118.3941925">
  <ele>-0.111</ele>
  <time>2026-09-02T22:07:23Z</time>
  <course>5.46</course>
  <speed>0.7218032973047436</speed>
  <fix>3d</fix>
</trkpt>
<trkpt lat="33.8100557" lon="-118.3941931">
  <ele>-0.1</ele>
  <time>2026-09-02T22:07:23Z</time>
  <course>42.2</course>
  <speed>0.73</speed>
  <fix>3d</fix>
</trkpt>
<trkpt lat="33.8100564" lon="-118.3941924">
  <ele>-0.111</ele>
  <time>2026-09-02T22:07:23Z</time>
  <course>5.46</course>
  <speed>0.7218032973047436</speed>
  <fix>3d</fix>
</trkpt>
<trkpt lat="33.8100564" lon="-118.3941924">
  <ele>-0.111</ele>
  <time>2026-09-02T22:07:23Z</time>
  <course>5.47</course>
  <speed>0.7218032973047436</speed>
  <fix>3d</fix>
</trkpt>
<trkpt lat="33.8100565" lon="-118.3941923">
  <ele>-0.11</ele>
  <time>2026-09-02T22:07:23Z</time>
  <course>5.48</course>
  <speed>0.7218032973047436</speed>
  <fix>3d</fix>
</trkpt>
<trkpt lat="33.8100565" lon="-118.3941923">
  <ele>-0.11</ele>
  <time>2026-09-02T22:07:23Z</time>
  <course>5.48</course>
  <speed>0.7218032973047436</speed>
  <fix>3d</fix>
</trkpt>
<trkpt lat="33.8100566" lon="-118.3941922">
  <ele>-0.11</ele>
  <time>2026-09-02T22:07:23Z</time>
  <course>5.49</course>
  <speed>0.7218032973047436</speed>
  <fix>3d</fix>
</trkpt>
<trkpt lat="33.8100566" lon="-118.3941922">
  <ele>-0.11</ele>
  <time>2026-09-02T22:07:23Z</time>
  <course>5.5</course>
  <speed>0.7218032973047436</speed>
  <fix>3d</fix>
</trkpt>
<trkpt lat="33.8100566" lon="-118.3941921">
  <ele>-0.11</ele>
  <time>2026-09-02T22:07:23Z</time>
  <course>5.5</course>
  <speed>0.7218032973047436</speed>
  <fix>3d</fix>
</trkpt>
<trkpt lat="33.8100567" lon="-118.3941921">
  <ele>-0.11</ele>
  <time>2026-09-02T22:07:23Z</time>
  <course>5.51</course>
  <speed>0.7218032973047436</speed>
  <fix>3d</fix>
</trkpt>
<trkpt lat="33.8100567" lon="-118.394192">
  <ele>-0.11</ele>
  <time>2026-09-02T22:07:23Z</time>
  <course>5.51</course>
  <speed>0.7218032973047436</speed>
  <fix>3d</fix>
</trkpt>
<trkpt lat="33.8100568" lon="-118.394192">
  <ele>-0.11</ele>
  <time>2026-09-02T22:07:23Z</time>
  <course>5.52</course>
  <speed>0.7218032973047436</speed>
  <fix>3d</fix>
</trkpt>
<trkpt lat="33.8100568" lon="-118.394192">
  <ele>-0.11</ele>
  <time>2026-09-02T22:07:23Z</time>
  <course>5.52</course>
  <speed>0.7218032973047436</speed>
  <fix>3d</fix>
</trkpt>
<trkpt lat="33.8100568" lon="-118.3941919">
  <ele>-0.11</ele>
  <time>2026-09-02T22:07:23Z</time>
  <course>5.53</course>
  <speed>0.7218032973047436</speed>
  <fix>3d</fix>
</trkpt>
<trkpt lat="33.8100568" lon="-118.3941919">
  <ele>-0.11</ele>
  <time>2026-09-02T22:07:23Z</time>
  <course>5.53</course>
  <speed>0.7218032973047436</speed>
  <fix>3d</fix>
</trkpt>
<trkpt lat="33.8100557" lon="-118.3941931">
  <ele>-0.1</ele>
  <time>2026-09-02T22:07:23Z</time>
  <course>42.2</course>
  <speed>0.73</speed>
  <fix>3d</fix>
</trkpt>
<trkpt lat="33.8100569" lon="-118.3941918">
  <ele>-0.109</ele>
  <time>2026-09-02T22:07:23Z</time>
  <course>5.54</course>
  <speed>0.7218032973047436</speed>
  <fix>3d</fix>
</trkpt>
<trkpt lat="33.810057" lon="-118.3941918">
  <ele>-0.109</ele>
  <time>2026-09-02T22:07:23Z</time>
  <course>5.55</course>
  <speed>0.7218032973047436</speed>
  <fix>3d</fix>
</trkpt>
<trkpt lat="33.810057" lon="-118.3941917">
  <ele>-0.109</ele>
  <time>2026-09-02T22:07:23Z</time>
  <course>5.55</course>
  <speed>0.7218032973047436</speed>
  <fix>3d</fix>
</trkpt>
<trkpt lat="33.8100571" lon="-118.3941917">
  <ele>-0.109</ele>
  <time>2026-09-02T22:07:23Z</time>
  <course>5.56</course>
  <speed>0.7218032973047436</speed>
  <fix>3d</fix>
</trkpt>
<trkpt lat="33.8100571" lon="-118.3941916">
  <ele>-0.109</ele>
  <time>2026-09-02T22:07:23Z</time>
  <course>5.56</course>
  <speed>0.7218032973047436</speed>
  <fix>3d</fix>
</trkpt>
<trkpt lat="33.8100571" lon="-118.3941916">
  <ele>-0.109</ele>
  <time>2026-09-02T22:07:23Z</time>
  <course>5.57</course>
  <speed>0.7218032973047436</speed>
  <fix>3d</fix>
</trkpt>
<trkpt lat="33.8100572" lon="-118.3941915">
  <ele>-0.109</ele>
  <time>2026-09-02T22:07:23Z</time>
  <course>5.57</course>
  <speed>0.7218032973047436</speed>
  <fix>3d</fix>
</trkpt>
<trkpt lat="33.8100572" lon="-118.3941915">
  <ele>-0.108</ele>
  <time>2026-09-02T22:07:23Z</time>
  <course>5.58</course>
  <speed>0.7218032973047436</speed>
  <fix>3d</fix>
</trkpt>
<trkpt lat="33.8100572" lon="-118.3941915">
  <ele>-0.108</ele>
  <time>2026-09-02T22:07:23Z</time>
  <course>5.58</course>
  <speed>0.7218032973047436</speed>
  <fix>3d</fix>
</trkpt>
<trkpt lat="33.8100573" lon="-118.3941914">
  <ele>-0.108</ele>
  <time>2026-09-02T22:07:23Z</time>
  <course>5.59</course>
  <speed>0.7218032973047436</speed>
  <fix>3d</fix>
</trkpt>
<trkpt lat="33.8100573" lon="-118.3941914">
  <ele>-0.108</ele>
  <time>2026-09-02T22:07:23Z</time>
  <course>5.59</course>
  <speed>0.7218032973047436</speed>
  <fix>3d</fix>
</trkpt>
<trkpt lat="33.8100573" lon="-118.3941914">
  <ele>-0.108</ele>
  <time>2026-09-02T22:07:23Z</time>
  <course>5.59</course>
  <speed>0.7218032973047436</speed>
  <fix>3d</fix>
</trkpt>
<trkpt lat="33.8100566" lon="-118.3941921">
  <ele>-0.11</ele>
  <time>2026-09-02T22:07:23Z</time>
  <course>42.35</course>
  <speed>0.73</speed>
  <fix>3d</fix>
</trkpt>
<trkpt lat="33.8100573" lon="-118.3941914">
  <ele>-0.108</ele>
  <time>2026-09-02T22:07:23Z</time>
  <course>5.59</course>
  <speed>0.7218032973047436</speed>
  <fix>3d</fix>
</trkpt>
<trkpt lat="33.8100574" lon="-118.3941913">
  <ele>-0.108</ele>
  <time>2026-09-02T22:07:23Z</time>
  <course>5.61</course>
  <speed>0.7218032973047436</speed>
  <fix>3d</fix>
</trkpt>
<trkpt lat="33.8100575" lon="-118.3941912">
  <ele>-0.107</ele>
  <time>2026-09-02T22:07:23Z</time>
  <course>5.61</course>
  <speed>0.7218032973047436</speed>
  <fix>3d</fix>
</trkpt>
<trkpt lat="33.8100575" lon="-118.3941912">
  <ele>-0.107</ele>
  <time>2026-09-02T22:07:23Z</time>
  <course>5.62</course>
  <speed>0.7218032973047436</speed>
  <fix>3d</fix>
</trkpt>
<trkpt lat="33.8100575" lon="-118.3941911">
  <ele>-0.107</ele>
  <time>2026-09-02T22:07:23Z</time>
  <course>5.62</course>
  <speed>0.7218032973047436</speed>
  <fix>3d</fix>
</trkpt>
<trkpt lat="33.8100576" lon="-118.3941911">
  <ele>-0.107</ele>
  <time>2026-09-02T22:07:23Z</time>
  <course>5.63</course>
  <speed>0.7218032973047436</speed>
  <fix>3d</fix>
</trkpt>
<trkpt lat="33.8100576" lon="-118.394191">
  <ele>-0.107</ele>
  <time>2026-09-02T22:07:23Z</time>
  <course>5.63</course>
  <speed>0.7218032973047436</speed>
  <fix>3d</fix>
</trkpt>
<trkpt lat="33.8100577" lon="-118.394191">
  <ele>-0.107</ele>
  <time>2026-09-02T22:07:23Z</time>
  <course>5.64</course>
  <speed>0.7218032973047436</speed>
  <fix>3d</fix>
</trkpt>
<trkpt lat="33.8100577" lon="-118.3941909">
  <ele>-0.107</ele>
  <time>2026-09-02T22:07:23Z</time>
  <course>5.64</course>
  <speed>0.7218032973047436</speed>
  <fix>3d</fix>
</trkpt>
<trkpt lat="33.8100577" lon="-118.3941909">
  <ele>-0.107</ele>
  <time>2026-09-02T22:07:23Z</time>
  <course>5.65</course>
  <speed>0.7218032973047436</speed>
  <fix>3d</fix>
</trkpt>
<trkpt lat="33.8100578" lon="-118.3941909">
  <ele>-0.107</ele>
  <time>2026-09-02T22:07:23Z</time>
  <course>5.65</course>
  <speed>0.7218032973047436</speed>
  <fix>3d</fix>
</trkpt>
<trkpt lat="33.8100578" lon="-118.3941908">
  <ele>-0.107</ele>
  <time>2026-09-02T22:07:23Z</time>
  <course>5.66</course>
  <speed>0.7218032973047436</speed>
  <fix>3d</fix>
</trkpt>
<trkpt lat="33.8100566" lon="-118.3941921">
  <ele>-0.11</ele>
  <time>2026-09-02T22:07:23Z</time>
  <course>42.35</course>
  <speed>0.73</speed>
  <fix>3d</fix>
</trkpt>
<trkpt lat="33.8100578" lon="-118.3941908">
  <ele>-0.107</ele>
  <time>2026-09-02T22:07:23Z</time>
  <course>5.66</course>
  <speed>0.7218032973047436</speed>
  <fix>3d</fix>
</trkpt>
<trkpt lat="33.8100579" lon="-118.3941907">
  <ele>-0.107</ele>
  <time>2026-09-02T22:07:23Z</time>
  <course>5.66</course>
  <speed>0.7218032973047436</speed>
  <fix>3d</fix>
</trkpt>
<trkpt lat="33.8100579" lon="-118.3941907">
  <ele>-0.107</ele>
  <time>2026-09-02T22:07:23Z</time>
  <course>5.67</course>
  <speed>0.7218032973047436</speed>
  <fix>3d</fix>
</trkpt>
<trkpt lat="33.810058" lon="-118.3941906">
  <ele>-0.107</ele>
  <time>2026-09-02T22:07:23Z</time>
  <course>5.68</course>
  <speed>0.7218032973047436</speed>
  <fix>3d</fix>
</trkpt>
<trkpt lat="33.810058" lon="-118.3941906">
  <ele>-0.107</ele>
  <time>2026-09-02T22:07:23Z</time>
  <course>5.68</course>
  <speed>0.7218032973047436</speed>
  <fix>3d</fix>
</trkpt>
<trkpt lat="33.8100581" lon="-118.3941905">
  <ele>-0.107</ele>
  <time>2026-09-02T22:07:23Z</time>
  <course>5.69</course>
  <speed>0.7218032973047436</speed>
  <fix>3d</fix>
</trkpt>
<trkpt lat="33.8100581" lon="-118.3941905">
  <ele>-0.107</ele>
  <time>2026-09-02T22:07:23Z</time>
  <course>5.69</course>
  <speed>0.7218032973047436</speed>
  <fix>3d</fix>
</trkpt>
<trkpt lat="33.8100581" lon="-118.3941904">
  <ele>-0.107</ele>
  <time>2026-09-02T22:07:23Z</time>
  <course>5.7</course>
  <speed>0.7218032973047436</speed>
  <fix>3d</fix>
</trkpt>
<trkpt lat="33.8100582" lon="-118.3941904">
  <ele>-0.106</ele>
  <time>2026-09-02T22:07:23Z</time>
  <course>5.7</course>
  <speed>0.7218032973047436</speed>
  <fix>3d</fix>
</trkpt>
<trkpt lat="33.8100582" lon="-118.3941904">
  <ele>-0.106</ele>
  <time>2026-09-02T22:07:23Z</time>
  <course>5.71</course>
  <speed>0.7218032973047436</speed>
  <fix>3d</fix>
</trkpt>
<trkpt lat="33.8100583" lon="-118.3941903">
  <ele>-0.106</ele>
  <time>2026-09-02T22:07:23Z</time>
  <course>5.71</course>
  <speed>0.7218032973047436</speed>
  <fix>3d</fix>
</trkpt>
<trkpt lat="33.8100583" lon="-118.3941903">
  <ele>-0.106</ele>
  <time>2026-09-02T22:07:23Z</time>
  <course>5.72</course>
  <speed>0.7218032973047436</speed>
  <fix>3d</fix>
</trkpt>
<trkpt lat="33.8100577" lon="-118.394191">
  <ele>-0.1</ele>
  <time>2026-09-02T22:07:23Z</time>
  <course>42.48</course>
  <speed>0.73</speed>
  <fix>3d</fix>
</trkpt>
<trkpt lat="33.8100583" lon="-118.3941903">
  <ele>-0.106</ele>
  <time>2026-09-02T22:07:23Z</time>
  <course>5.72</course>
  <speed>0.7218032973047436</speed>
  <fix>3d</fix>
</trkpt>
<trkpt lat="33.8100584" lon="-118.3941902">
  <ele>-0.106</ele>
  <time>2026-09-02T22:07:23Z</time>
  <course>5.73</course>
  <speed>0.7218032973047436</speed>
  <fix>3d</fix>
</trkpt>
<trkpt lat="33.8100584" lon="-118.3941901">
  <ele>-0.106</ele>
  <time>2026-09-02T22:07:23Z</time>
  <course>5.73</course>
  <speed>0.7218032973047436</speed>
  <fix>3d</fix>
</trkpt>
<trkpt lat="33.8100585" lon="-118.3941901">
  <ele>-0.106</ele>
  <time>2026-09-02T22:07:23Z</time>
  <course>5.74</course>
  <speed>0.7286288492778747</speed>
  <fix>3d</fix>
</trkpt>
<trkpt lat="33.8100585" lon="-118.3941901">
  <ele>-0.106</ele>
  <time>2026-09-02T22:07:23Z</time>
  <course>5.74</course>
  <speed>0.7286288492778747</speed>
  <fix>3d</fix>
</trkpt>
<trkpt lat="33.8100585" lon="-118.39419">
  <ele>-0.106</ele>
  <time>2026-09-02T22:07:23Z</time>
  <course>5.75</course>
  <speed>0.7286288492778747</speed>
  <fix>3d</fix>
</trkpt>
<trkpt lat="33.8100586" lon="-118.39419">
  <ele>-0.106</ele>
  <time>2026-09-02T22:07:23Z</time>
  <course>5.75</course>
  <speed>0.7286288492778747</speed>
  <fix>3d</fix>
</trkpt>
<trkpt lat="33.8100586" lon="-118.3941899">
  <ele>-0.105</ele>
  <time>2026-09-02T22:07:23Z</time>
  <course>5.76</course>
  <speed>0.7286288492778747</speed>
  <fix>3d</fix>
</trkpt>
<trkpt lat="33.8100586" lon="-118.3941899">
  <ele>-0.105</ele>
  <time>2026-09-02T22:07:23Z</time>
  <course>5.76</course>
  <speed>0.7286288492778747</speed>
  <fix>3d</fix>
</trkpt>
<trkpt lat="33.8100587" lon="-118.3941898">
  <ele>-0.105</ele>
  <time>2026-09-02T22:07:23Z</time>
  <course>5.77</course>
  <speed>0.7286288492778747</speed>
  <fix>3d</fix>
</trkpt>
<trkpt lat="33.8100587" lon="-118.3941898">
  <ele>-0.105</ele>
  <time>2026-09-02T22:07:23Z</time>
  <course>5.77</course>
  <speed>0.7286288492778747</speed>
  <fix>3d</fix>
</trkpt>
<trkpt lat="33.8100588" lon="-118.3941898">
  <ele>-0.105</ele>
  <time>2026-09-02T22:07:23Z</time>
  <course>5.77</course>
  <speed>0.7286288492778747</speed>
  <fix>3d</fix>
</trkpt>
<trkpt lat="33.8100588" lon="-118.3941897">
  <ele>-0.105</ele>
  <time>2026-09-02T22:07:23Z</time>
  <course>5.78</course>
  <speed>0.7286288492778747</speed>
  <fix>3d</fix>
</trkpt>
<trkpt lat="33.8100577" lon="-118.394191">
  <ele>-0.1</ele>
  <time>2026-09-02T22:07:23Z</time>
  <course>42.48</course>
  <speed>0.73</speed>
  <fix>3d</fix>
</trkpt>
<trkpt lat="33.8100588" lon="-118.3941897">
  <ele>-0.105</ele>
  <time>2026-09-02T22:07:23Z</time>
  <course>5.78</course>
  <speed>0.7286288492778747</speed>
  <fix>3d</fix>
</trkpt>
<trkpt lat="33.8100589" lon="-118.3941896">
  <ele>-0.105</ele>
  <time>2026-09-02T22:07:23Z</time>
  <course>5.79</course>
  <speed>0.7286288492778747</speed>
  <fix>3d</fix>
</trkpt>
<trkpt lat="33.8100589" lon="-118.3941896">
  <ele>-0.105</ele>
  <time>2026-09-02T22:07:23Z</time>
  <course>5.79</course>
  <speed>0.7286288492778747</speed>
  <fix>3d</fix>
</trkpt>
<trkpt lat="33.810059" lon="-118.3941895">
  <ele>-0.105</ele>
  <time>2026-09-02T22:07:23Z</time>
  <course>5.8</course>
  <speed>0.7286288492778747</speed>
  <fix>3d</fix>
</trkpt>
<trkpt lat="33.810059" lon="-118.3941895">
  <ele>-0.105</ele>
  <time>2026-09-02T22:07:23Z</time>
  <course>5.8</course>
  <speed>0.7286288492778747</speed>
  <fix>3d</fix>
</trkpt>
<trkpt lat="33.810059" lon="-118.3941894">
  <ele>-0.105</ele>
  <time>2026-09-02T22:07:23Z</time>
  <course>5.81</course>
  <speed>0.7286288492778747</speed>
  <fix>3d</fix>
</trkpt>
<trkpt lat="33.8100591" lon="-118.3941894">
  <ele>-0.105</ele>
  <time>2026-09-02T22:07:23Z</time>
  <course>5.81</course>
  <speed>0.7286288492778747</speed>
  <fix>3d</fix>
</trkpt>
<trkpt lat="33.8100591" lon="-118.3941894">
  <ele>-0.105</ele>
  <time>2026-09-02T22:07:23Z</time>
  <course>5.82</course>
  <speed>0.7286288492778747</speed>
  <fix>3d</fix>
</trkpt>
<trkpt lat="33.8100591" lon="-118.3941893">
  <ele>-0.105</ele>
  <time>2026-09-02T22:07:23Z</time>
  <course>5.82</course>
  <speed>0.7286288492778747</speed>
  <fix>3d</fix>
</trkpt>
<trkpt lat="33.8100592" lon="-118.3941893">
  <ele>-0.105</ele>
  <time>2026-09-02T22:07:23Z</time>
  <course>5.83</course>
  <speed>0.7286288492778747</speed>
  <fix>3d</fix>
</trkpt>
<trkpt lat="33.8100592" lon="-118.3941892">
  <ele>-0.105</ele>
  <time>2026-09-02T22:07:23Z</time>
  <course>5.83</course>
  <speed>0.7286288492778747</speed>
  <fix>3d</fix>
</trkpt>
<trkpt lat="33.8100593" lon="-118.3941892">
  <ele>-0.105</ele>
  <time>2026-09-02T22:07:23Z</time>
  <course>5.84</course>
  <speed>0.7286288492778747</speed>
  <fix>3d</fix>
</trkpt>
<trkpt lat="33.8100593" lon="-118.3941892">
  <ele>-0.105</ele>
  <time>2026-09-02T22:07:23Z</time>
  <course>5.84</course>
  <speed>0.7286288492778747</speed>
  <fix>3d</fix>
</trkpt>
<trkpt lat="33.8100587" lon="-118.3941899">
  <ele>-0.1</ele>
  <time>2026-09-02T22:07:23Z</time>
  <course>42.61</course>
  <speed>0.73</speed>
  <fix>3d</fix>
</trkpt>
<trkpt lat="33.8100594" lon="-118.3941891">
  <ele>-0.105</ele>
  <time>2026-09-02T22:07:23Z</time>
  <course>5.85</course>
  <speed>0.7286288492778747</speed>
  <fix>3d</fix>
</trkpt>
<trkpt lat="33.8100594" lon="-118.394189">
  <ele>-0.105</ele>
  <time>2026-09-02T22:07:23Z</time>
  <course>5.85</course>
  <speed>0.7286288492778747</speed>
  <fix>3d</fix>
</trkpt>
<trkpt lat="33.8100594" lon="-118.394189">
  <ele>-0.105</ele>
  <time>2026-09-02T22:07:23Z</time>
  <course>5.86</course>
  <speed>0.7286288492778747</speed>
  <fix>3d</fix>
</trkpt>
<trkpt lat="33.8100595" lon="-118.3941889">
  <ele>-0.105</ele>
  <time>2026-09-02T22:07:23Z</time>
  <course>5.86</course>
  <speed>0.7286288492778747</speed>
  <fix>3d</fix>
</trkpt>
<trkpt lat="33.8100595" lon="-118.3941889">
  <ele>-0.106</ele>
  <time>2026-09-02T22:07:23Z</time>
  <course>5.87</course>
  <speed>0.7286288492778747</speed>
  <fix>3d</fix>
</trkpt>
<trkpt lat="33.8100596" lon="-118.3941888">
  <ele>-0.106</ele>
  <time>2026-09-02T22:07:23Z</time>
  <course>5.87</course>
  <speed>0.7286288492778747</speed>
  <fix>3d</fix>
</trkpt>
<trkpt lat="33.8100596" lon="-118.3941888">
  <ele>-0.106</ele>
  <time>2026-09-02T22:07:23Z</time>
  <course>5.88</course>
  <speed>0.7286288492778747</speed>
  <fix>3d</fix>
</trkpt>
<trkpt lat="33.8100597" lon="-118.3941887">
  <ele>-0.106</ele>
  <time>2026-09-02T22:07:23Z</time>
  <course>5.88</course>
  <speed>0.7286288492778747</speed>
  <fix>3d</fix>
</trkpt>
<trkpt lat="33.8100597" lon="-118.3941887">
  <ele>-0.106</ele>
  <time>2026-09-02T22:07:23Z</time>
  <course>5.89</course>
  <speed>0.7286288492778747</speed>
  <fix>3d</fix>
</trkpt>
<trkpt lat="33.8100597" lon="-118.3941886">
  <ele>-0.106</ele>
  <time>2026-09-02T22:07:23Z</time>
  <course>5.89</course>
  <speed>0.7286288492778747</speed>
  <fix>3d</fix>
</trkpt>
<trkpt lat="33.8100598" lon="-118.3941886">
  <ele>-0.106</ele>
  <time>2026-09-02T22:07:23Z</time>
  <course>5.89</course>
  <speed>0.7286288492778747</speed>
  <fix>3d</fix>
</trkpt>
<trkpt lat="33.8100587" lon="-118.3941899">
  <ele>-0.1</ele>
  <time>2026-09-02T22:07:23Z</time>
  <course>42.61</course>
  <speed>0.73</speed>
  <fix>3d</fix>
</trkpt>
<trkpt lat="33.8100598" lon="-118.3941886">
  <ele>-0.106</ele>
  <time>2026-09-02T22:07:23Z</time>
  <course>5.89</course>
  <speed>0.7286288492778747</speed>
  <fix>3d</fix>
</trkpt>
<trkpt lat="33.8100598" lon="-118.3941886">
  <ele>-0.106</ele>
  <time>2026-09-02T22:07:23Z</time>
  <course>5.9</course>
  <speed>0.7286288492778747</speed>
  <fix>3d</fix>
</trkpt>
<trkpt lat="33.8100599" lon="-118.3941885">
  <ele>-0.107</ele>
  <time>2026-09-02T22:07:23Z</time>
  <course>5.91</course>
  <speed>0.7286288492778747</speed>
  <fix>3d</fix>
</trkpt>
<trkpt lat="33.8100599" lon="-118.3941884">
  <ele>-0.107</ele>
  <time>2026-09-02T22:07:23Z</time>
  <course>5.91</course>
  <speed>0.7286288492778747</speed>
  <fix>3d</fix>
</trkpt>
<trkpt lat="33.81006" lon="-118.3941884">
  <ele>-0.107</ele>
  <time>2026-09-02T22:07:23Z</time>
  <course>5.92</course>
  <speed>0.7286288492778747</speed>
  <fix>3d</fix>
</trkpt>
<trkpt lat="33.81006" lon="-118.3941883">
  <ele>-0.107</ele>
  <time>2026-09-02T22:07:23Z</time>
  <course>5.92</course>
  <speed>0.7286288492778747</speed>
  <fix>3d</fix>
</trkpt>
<trkpt lat="33.81006" lon="-118.3941883">
  <ele>-0.107</ele>
  <time>2026-09-02T22:07:23Z</time>
  <course>5.93</course>
  <speed>0.7286288492778747</speed>
  <fix>3d</fix>
</trkpt>
<trkpt lat="33.8100601" lon="-118.3941883">
  <ele>-0.107</ele>
  <time>2026-09-02T22:07:23Z</time>
  <course>5.93</course>
  <speed>0.7286288492778747</speed>
  <fix>3d</fix>
</trkpt>
<trkpt lat="33.8100601" lon="-118.3941882">
  <ele>-0.107</ele>
  <time>2026-09-02T22:07:23Z</time>
  <course>5.93</course>
  <speed>0.7286288492778747</speed>
  <fix>3d</fix>
</trkpt>
<trkpt lat="33.8100602" lon="-118.3941882">
  <ele>-0.107</ele>
  <time>2026-09-02T22:07:23Z</time>
  <course>5.94</course>
  <speed>0.7286288492778747</speed>
  <fix>3d</fix>
</trkpt>
<trkpt lat="33.8100602" lon="-118.3941881">
  <ele>-0.107</ele>
  <time>2026-09-02T22:07:23Z</time>
  <course>5.94</course>
  <speed>0.7286288492778747</speed>
  <fix>3d</fix>
</trkpt>
<trkpt lat="33.8100602" lon="-118.3941881">
  <ele>-0.107</ele>
  <time>2026-09-02T22:07:23Z</time>
  <course>5.95</course>
  <speed>0.7286288492778747</speed>
  <fix>3d</fix>
</trkpt>
<trkpt lat="33.8100602" lon="-118.3941881">
  <ele>-0.107</ele>
  <time>2026-09-02T22:07:23Z</time>
  <course>5.95</course>
  <speed>0.7286288492778747</speed>
  <fix>3d</fix>
</trkpt>
<trkpt lat="33.8100596" lon="-118.3941888">
  <ele>-0.1</ele>
  <time>2026-09-02T22:07:23Z</time>
  <course>42.73</course>
  <speed>0.73</speed>
  <fix>3d</fix>
</trkpt>
<trkpt lat="33.8100603" lon="-118.3941881">
  <ele>-0.107</ele>
  <time>2026-09-02T22:07:23Z</time>
  <course>5.95</course>
  <speed>0.7286288492778747</speed>
  <fix>3d</fix>
</trkpt>
<trkpt lat="33.8100603" lon="-118.394188">
  <ele>-0.107</ele>
  <time>2026-09-02T22:07:23Z</time>
  <course>5.96</course>
  <speed>0.7286288492778747</speed>
  <fix>3d</fix>
</trkpt>
<trkpt lat="33.8100604" lon="-118.3941879">
  <ele>-0.107</ele>
  <time>2026-09-02T22:07:23Z</time>
  <course>5.96</course>
  <speed>0.7286288492778747</speed>
  <fix>3d</fix>
</trkpt>
<trkpt lat="33.8100604" lon="-118.3941879">
  <ele>-0.107</ele>
  <time>2026-09-02T22:07:23Z</time>
  <course>5.97</course>
  <speed>0.7286288492778747</speed>
  <fix>3d</fix>
</trkpt>
<trkpt lat="33.8100605" lon="-118.3941878">
  <ele>-0.107</ele>
  <time>2026-09-02T22:07:23Z</time>
  <course>5.97</course>
  <speed>0.7286288492778747</speed>
  <fix>3d</fix>
</trkpt>
<trkpt lat="33.8100605" lon="-118.3941878">
  <ele>-0.108</ele>
  <time>2026-09-02T22:07:23Z</time>
  <course>5.98</course>
  <speed>0.7286288492778747</speed>
  <fix>3d</fix>
</trkpt>
<trkpt lat="33.8100605" lon="-118.3941878">
  <ele>-0.108</ele>
  <time>2026-09-02T22:07:23Z</time>
  <course>5.98</course>
  <speed>0.7286288492778747</speed>
  <fix>3d</fix>
</trkpt>
<trkpt lat="33.8100606" lon="-118.3941877">
  <ele>-0.108</ele>
  <time>2026-09-02T22:07:23Z</time>
  <course>5.99</course>
  <speed>0.7286288492778747</speed>
  <fix>3d</fix>
</trkpt>
<trkpt lat="33.8100606" lon="-118.3941877">
  <ele>-0.108</ele>
  <time>2026-09-02T22:07:23Z</time>
  <course>5.99</course>
  <speed>0.7286288492778747</speed>
  <fix>3d</fix>
</trkpt>
<trkpt lat="33.8100606" lon="-118.3941876">
  <ele>-0.108</ele>
  <time>2026-09-02T22:07:23Z</time>
  <course>5.99</course>
  <speed>0.7286288492778747</speed>
  <fix>3d</fix>
</trkpt>
<trkpt lat="33.8100607" lon="-118.3941876">
  <ele>-0.108</ele>
  <time>2026-09-02T22:07:23Z</time>
  <course>6.0</course>
  <speed>0.7286288492778747</speed>
  <fix>3d</fix>
</trkpt>
<trkpt lat="33.8100607" lon="-118.3941875">
  <ele>-0.108</ele>
  <time>2026-09-02T22:07:23Z</time>
  <course>6.0</course>
  <speed>0.7286288492778747</speed>
  <fix>3d</fix>
</trkpt>
<trkpt lat="33.8100607" lon="-118.3941875">
  <ele>-0.108</ele>
  <time>2026-09-02T22:07:23Z</time>
  <course>6.0</course>
  <speed>0.7286288492778747</speed>
  <fix>3d</fix>
</trkpt>
<trkpt lat="33.8100596" lon="-118.3941888">
  <ele>-0.1</ele>
  <time>2026-09-02T22:07:23Z</time>
  <course>42.73</course>
  <speed>0.73</speed>
  <fix>3d</fix>
</trkpt>
<trkpt lat="33.8100607" lon="-118.3941875">
  <ele>-0.108</ele>
  <time>2026-09-02T22:07:23Z</time>
  <course>6.0</course>
  <speed>0.7286288492778747</speed>
  <fix>3d</fix>
</trkpt>
<trkpt lat="33.8100608" lon="-118.3941874">
  <ele>-0.108</ele>
  <time>2026-09-02T22:07:23Z</time>
  <course>6.01</course>
  <speed>0.7286288492778747</speed>
  <fix>3d</fix>
</trkpt>
<trkpt lat="33.8100608" lon="-118.3941874">
  <ele>-0.109</ele>
  <time>2026-09-02T22:07:23Z</time>
  <course>6.02</course>
  <speed>0.7286288492778747</speed>
  <fix>3d</fix>
</trkpt>
<trkpt lat="33.8100609" lon="-118.3941873">
  <ele>-0.109</ele>
  <time>2026-09-02T22:07:23Z</time>
  <course>6.02</course>
  <speed>0.7286288492778747</speed>
  <fix>3d</fix>
</trkpt>
<trkpt lat="33.8100609" lon="-118.3941873">
  <ele>-0.109</ele>
  <time>2026-09-02T22:07:23Z</time>
  <course>6.03</course>
  <speed>0.7286288492778747</speed>
  <fix>3d</fix>
</trkpt>
<trkpt lat="33.810061" lon="-118.3941872">
  <ele>-0.109</ele>
  <time>2026-09-02T22:07:23Z</time>
  <course>6.03</course>
  <speed>0.7286288492778747</speed>
  <fix>3d</fix>
</trkpt>
<trkpt lat="33.810061" lon="-118.3941872">
  <ele>-0.109</ele>
  <time>2026-09-02T22:07:23Z</time>
  <course>6.03</course>
  <speed>0.7286288492778747</speed>
  <fix>3d</fix>
</trkpt>
<trkpt lat="33.8100611" lon="-118.3941872">
  <ele>-0.109</ele>
  <time>2026-09-02T22:07:23Z</time>
  <course>6.04</course>
  <speed>0.7286288492778747</speed>
  <fix>3d</fix>
</trkpt>
<trkpt lat="33.8100611" lon="-118.3941871">
  <ele>-0.109</ele>
  <time>2026-09-02T22:07:23Z</time>
  <course>6.04</course>
  <speed>0.7286288492778747</speed>
  <fix>3d</fix>
</trkpt>
<trkpt lat="33.8100611" lon="-118.3941871">
  <ele>-0.109</ele>
  <time>2026-09-02T22:07:23Z</time>
  <course>6.05</course>
  <speed>0.7286288492778747</speed>
  <fix>3d</fix>
</trkpt>
<trkpt lat="33.8100612" lon="-118.394187">
  <ele>-0.109</ele>
  <time>2026-09-02T22:07:23Z</time>
  <course>6.05</course>
  <speed>0.7286288492778747</speed>
  <fix>3d</fix>
</trkpt>
<trkpt lat="33.8100612" lon="-118.394187">
  <ele>-0.109</ele>
  <time>2026-09-02T22:07:23Z</time>
  <course>6.06</course>
  <speed>0.7286288492778747</speed>
  <fix>3d</fix>
</trkpt>
<trkpt lat="33.8100606" lon="-118.3941878">
  <ele>-0.1</ele>
  <time>2026-09-02T22:07:23Z</time>
  <course>42.85</course>
  <speed>0.73</speed>
  <fix>3d</fix>
</trkpt>
<trkpt lat="33.8100612" lon="-118.394187">
  <ele>-0.109</ele>
  <time>2026-09-02T22:07:23Z</time>
  <course>6.06</course>
  <speed>0.7286288492778747</speed>
  <fix>3d</fix>
</trkpt>
<trkpt lat="33.8100613" lon="-118.3941869">
  <ele>-0.109</ele>
  <time>2026-09-02T22:07:23Z</time>
  <course>6.06</course>
  <speed>0.7286288492778747</speed>
  <fix>3d</fix>
</trkpt>
<trkpt lat="33.8100613" lon="-118.3941868">
  <ele>-0.109</ele>
  <time>2026-09-02T22:07:23Z</time>
  <course>6.07</course>
  <speed>0.7286288492778747</speed>
  <fix>3d</fix>
</trkpt>
<trkpt lat="33.8100614" lon="-118.3941868">
  <ele>-0.11</ele>
  <time>2026-09-02T22:07:23Z</time>
  <course>6.07</course>
  <speed>0.7286288492778747</speed>
  <fix>3d</fix>
</trkpt>
<trkpt lat="33.8100614" lon="-118.3941867">
  <ele>-0.11</ele>
  <time>2026-09-02T22:07:23Z</time>
  <course>6.08</course>
  <speed>0.7286288492778747</speed>
  <fix>3d</fix>
</trkpt>
<trkpt lat="33.8100615" lon="-118.3941867">
  <ele>-0.11</ele>
  <time>2026-09-02T22:07:23Z</time>
  <course>6.08</course>
  <speed>0.7286288492778747</speed>
  <fix>3d</fix>
</trkpt>
<trkpt lat="33.8100615" lon="-118.3941867">
  <ele>-0.11</ele>
  <time>2026-09-02T22:07:23Z</time>
  <course>6.09</course>
  <speed>0.7286288492778747</speed>
  <fix>3d</fix>
</trkpt>
<trkpt lat="33.8100615" lon="-118.3941866">
  <ele>-0.11</ele>
  <time>2026-09-02T22:07:23Z</time>
  <course>6.09</course>
  <speed>0.7286288492778747</speed>
  <fix>3d</fix>
</trkpt>
<trkpt lat="33.8100616" lon="-118.3941866">
  <ele>-0.11</ele>
  <time>2026-09-02T22:07:23Z</time>
  <course>6.1</course>
  <speed>0.7286288492778747</speed>
  <fix>3d</fix>
</trkpt>
<trkpt lat="33.8100616" lon="-118.3941865">
  <ele>-0.111</ele>
  <time>2026-09-02T22:07:23Z</time>
  <course>6.1</course>
  <speed>0.7286288492778747</speed>
  <fix>3d</fix>
</trkpt>
<trkpt lat="33.8100617" lon="-118.3941865">
  <ele>-0.111</ele>
  <time>2026-09-02T22:07:23Z</time>
  <course>6.1</course>
  <speed>0.7286288492778747</speed>
  <fix>3d</fix>
</trkpt>
<trkpt lat="33.8100617" lon="-118.3941864">
  <ele>-0.111</ele>
  <time>2026-09-02T22:07:23Z</time>
  <course>6.11</course>
  <speed>0.7213875518748573</speed>
  <fix>3d</fix>
</trkpt>
<trkpt lat="33.8100617" lon="-118.3941864">
  <ele>-0.111</ele>
  <time>2026-09-02T22:07:23Z</time>
  <course>6.11</course>
  <speed>0.7213875518748573</speed>
  <fix>3d</fix>
</trkpt>
<trkpt lat="33.8100606" lon="-118.3941878">
  <ele>-0.1</ele>
  <time>2026-09-02T22:07:23Z</time>
  <course>42.85</course>
  <speed>0.73</speed>
  <fix>3d</fix>
</trkpt>
<trkpt lat="33.8100618" lon="-118.3941863">
  <ele>-0.111</ele>
  <time>2026-09-02T22:07:23Z</time>
  <course>6.12</course>
  <speed>0.7213875518748573</speed>
  <fix>3d</fix>
</trkpt>
<trkpt lat="33.8100618" lon="-118.3941863">
  <ele>-0.111</ele>
  <time>2026-09-02T22:07:23Z</time>
  <course>6.12</course>
  <speed>0.7213875518748573</speed>
  <fix>3d</fix>
</trkpt>
<trkpt lat="33.8100619" lon="-118.3941862">
  <ele>-0.111</ele>
  <time>2026-09-02T22:07:23Z</time>
  <course>6.13</course>
  <speed>0.7213875518748573</speed>
  <fix>3d</fix>
</trkpt>
<trkpt lat="33.8100619" lon="-118.3941862">
  <ele>-0.111</ele>
  <time>2026-09-02T22:07:23Z</time>
  <course>6.13</course>
  <speed>0.7213875518748573</speed>
  <fix>3d</fix>
</trkpt>
<trkpt lat="33.810062" lon="-118.3941861">
  <ele>-0.111</ele>
  <time>2026-09-02T22:07:23Z</time>
  <course>6.14</course>
  <speed>0.7283543093852057</speed>
  <fix>3d</fix>
</trkpt>
<trkpt lat="33.810062" lon="-118.3941861">
  <ele>-0.112</ele>
  <time>2026-09-02T22:07:23Z</time>
  <course>6.14</course>
  <speed>0.7283543093852057</speed>
  <fix>3d</fix>
</trkpt>
<trkpt lat="33.8100621" lon="-118.394186">
  <ele>-0.112</ele>
  <time>2026-09-02T22:07:23Z</time>
  <course>6.15</course>
  <speed>0.7283543093852057</speed>
  <fix>3d</fix>
</trkpt>
<trkpt lat="33.8100621" lon="-118.394186">
  <ele>-0.112</ele>
  <time>2026-09-02T22:07:23Z</time>
  <course>6.15</course>
  <speed>0.7283543093852057</speed>
  <fix>3d</fix>
</trkpt>
<trkpt lat="33.8100621" lon="-118.3941859">
  <ele>-0.112</ele>
  <time>2026-09-02T22:07:23Z</time>
  <course>6.16</course>
  <speed>0.7283543093852057</speed>
  <fix>3d</fix>
</trkpt>
<trkpt lat="33.8100622" lon="-118.3941859">
  <ele>-0.112</ele>
  <time>2026-09-02T22:07:23Z</time>
  <course>6.16</course>
  <speed>0.7283543093852057</speed>
  <fix>3d</fix>
</trkpt>
<trkpt lat="33.8100616" lon="-118.3941867">
  <ele>-0.11</ele>
  <time>2026-09-02T22:07:23Z</time>
  <course>42.96</course>
  <speed>0.73</speed>
  <fix>3d</fix>
</trkpt>
<trkpt lat="33.8100622" lon="-118.3941859">
  <ele>-0.112</ele>
  <time>2026-09-02T22:07:23Z</time>
  <course>6.16</course>
  <speed>0.7283543093852057</speed>
  <fix>3d</fix>
</trkpt>
<trkpt lat="33.8100623" lon="-118.3941858">
  <ele>-0.112</ele>
  <time>2026-09-02T22:07:23Z</time>
  <course>6.17</course>
  <speed>0.7283543093852057</speed>
  <fix>3d</fix>
</trkpt>
<trkpt lat="33.8100623" lon="-118.3941857">
  <ele>-0.112</ele>
  <time>2026-09-02T22:07:23Z</time>
  <course>6.18</course>
  <speed>0.7283543093852057</speed>
  <fix>3d</fix>
</trkpt>
<trkpt lat="33.8100624" lon="-118.3941857">
  <ele>-0.112</ele>
  <time>2026-09-02T22:07:23Z</time>
  <course>6.18</course>
  <speed>0.7283543093852057</speed>
  <fix>3d</fix>
</trkpt>
<trkpt lat="33.8100624" lon="-118.3941856">
  <ele>-0.112</ele>
  <time>2026-09-02T22:07:23Z</time>
  <course>6.18</course>
  <speed>0.7283543093852057</speed>
  <fix>3d</fix>
</trkpt>
<trkpt lat="33.8100624" lon="-118.3941856">
  <ele>-0.112</ele>
  <time>2026-09-02T22:07:23Z</time>
  <course>6.19</course>
  <speed>0.7283543093852057</speed>
  <fix>3d</fix>
</trkpt>
<trkpt lat="33.8100625" lon="-118.3941856">
  <ele>-0.112</ele>
  <time>2026-09-02T22:07:23Z</time>
  <course>6.19</course>
  <speed>0.7283543093852057</speed>
  <fix>3d</fix>
</trkpt>
<trkpt lat="33.8100625" lon="-118.3941855">
  <ele>-0.112</ele>
  <time>2026-09-02T22:07:23Z</time>
  <course>6.19</course>
  <speed>0.7283543093852057</speed>
  <fix>3d</fix>
</trkpt>
<trkpt lat="33.8100626" lon="-118.3941855">
  <ele>-0.112</ele>
  <time>2026-09-02T22:07:23Z</time>
  <course>6.2</course>
  <speed>0.7283543093852057</speed>
  <fix>3d</fix>
</trkpt>
<trkpt lat="33.8100626" lon="-118.3941854">
  <ele>-0.113</ele>
  <time>2026-09-02T22:07:23Z</time>
  <course>6.2</course>
  <speed>0.7283543093852057</speed>
  <fix>3d</fix>
</trkpt>
<trkpt lat="33.8100627" lon="-118.3941853">
  <ele>-0.113</ele>
  <time>2026-09-02T22:07:23Z</time>
  <course>6.21</course>
  <speed>0.7283543093852057</speed>
  <fix>3d</fix>
</trkpt>
<trkpt lat="33.8100627" lon="-118.3941853">
  <ele>-0.113</ele>
  <time>2026-09-02T22:07:23Z</time>
  <course>6.21</course>
  <speed>0.7283543093852057</speed>
  <fix>3d</fix>
</trkpt>
<trkpt lat="33.8100616" lon="-118.3941867">
  <ele>-0.11</ele>
  <time>2026-09-02T22:07:23Z</time>
  <course>42.96</course>
  <speed>0.73</speed>
  <fix>3d</fix>
</trkpt>
<trkpt lat="33.8100627" lon="-118.3941853">
  <ele>-0.113</ele>
  <time>2026-09-02T22:07:23Z</time>
  <course>6.21</course>
  <speed>0.7283543093852057</speed>
  <fix>3d</fix>
</trkpt>
<trkpt lat="33.8100627" lon="-118.3941853">
  <ele>-0.113</ele>
  <time>2026-09-02T22:07:23Z</time>
  <course>6.22</course>
  <speed>0.7283543093852057</speed>
  <fix>3d</fix>
</trkpt>
<trkpt lat="33.8100628" lon="-118.3941852">
  <ele>-0.113</ele>
  <time>2026-09-02T22:07:23Z</time>
  <course>6.22</course>
  <speed>0.7283543093852057</speed>
  <fix>3d</fix>
</trkpt>
<trkpt lat="33.8100628" lon="-118.3941851">
  <ele>-0.113</ele>
  <time>2026-09-02T22:07:23Z</time>
  <course>6.23</course>
  <speed>0.7283543093852057</speed>
  <fix>3d</fix>
</trkpt>
<trkpt lat="33.8100629" lon="-118.3941851">
  <ele>-0.113</ele>
  <time>2026-09-02T22:07:23Z</time>
  <course>6.23</course>
  <speed>0.7283543093852057</speed>
  <fix>3d</fix>
</trkpt>
<trkpt lat="33.8100629" lon="-118.394185">
  <ele>-0.113</ele>
  <time>2026-09-02T22:07:23Z</time>
  <course>6.24</course>
  <speed>0.7283543093852057</speed>
  <fix>3d</fix>
</trkpt>
<trkpt lat="33.810063" lon="-118.394185">
  <ele>-0.114</ele>
  <time>2026-09-02T22:07:23Z</time>
  <course>6.24</course>
  <speed>0.7283543093852057</speed>
  <fix>3d</fix>
</trkpt>
<trkpt lat="33.810063" lon="-118.3941849">
  <ele>-0.113</ele>
  <time>2026-09-02T22:07:23Z</time>
  <course>6.24</course>
  <speed>0.7283543093852057</speed>
  <fix>3d</fix>
</trkpt>
<trkpt lat="33.810063" lon="-118.3941849">
  <ele>-0.114</ele>
  <time>2026-09-02T22:07:23Z</time>
  <course>6.25</course>
  <speed>0.7283543093852057</speed>
  <fix>3d</fix>
</trkpt>
<trkpt lat="33.8100631" lon="-118.3941849">
  <ele>-0.114</ele>
  <time>2026-09-02T22:07:23Z</time>
  <course>6.25</course>
  <speed>0.7283543093852057</speed>
  <fix>3d</fix>
</trkpt>
<trkpt lat="33.8100631" lon="-118.3941848">
  <ele>-0.114</ele>
  <time>2026-09-02T22:07:23Z</time>
  <course>6.25</course>
  <speed>0.7283543093852057</speed>
  <fix>3d</fix>
</trkpt>
<trkpt lat="33.8100631" lon="-118.3941848">
  <ele>-0.114</ele>
  <time>2026-09-02T22:07:23Z</time>
  <course>6.26</course>
  <speed>0.7283543093852057</speed>
  <fix>3d</fix>
</trkpt>
<trkpt lat="33.8100631" lon="-118.3941848">
  <ele>-0.114</ele>
  <time>2026-09-02T22:07:23Z</time>
  <course>6.26</course>
  <speed>0.7283543093852057</speed>
  <fix>3d</fix>
</trkpt>
<trkpt lat="33.8100625" lon="-118.3941856">
  <ele>-0.1</ele>
  <time>2026-09-02T22:07:23Z</time>
  <course>43.06</course>
  <speed>0.73</speed>
  <fix>3d</fix>
</trkpt>
<trkpt lat="33.8100632" lon="-118.3941847">
  <ele>-0.114</ele>
  <time>2026-09-02T22:07:23Z</time>
  <course>6.27</course>
  <speed>0.7283543093852057</speed>
  <fix>3d</fix>
</trkpt>
<trkpt lat="33.8100633" lon="-118.3941846">
  <ele>-0.114</ele>
  <time>2026-09-02T22:07:23Z</time>
  <course>6.27</course>
  <speed>0.7283543093852057</speed>
  <fix>3d</fix>
</trkpt>
<trkpt lat="33.8100633" lon="-118.3941846">
  <ele>-0.115</ele>
  <time>2026-09-02T22:07:23Z</time>
  <course>6.28</course>
  <speed>0.7283543093852057</speed>
  <fix>3d</fix>
</trkpt>
<trkpt lat="33.8100634" lon="-118.3941845">
  <ele>-0.115</ele>
  <time>2026-09-02T22:07:23Z</time>
  <course>6.28</course>
  <speed>0.7283543093852057</speed>
  <fix>3d</fix>
</trkpt>
<trkpt lat="33.8100634" lon="-118.3941845">
  <ele>-0.115</ele>
  <time>2026-09-02T22:07:23Z</time>
  <course>6.28</course>
  <speed>0.7283543093852057</speed>
  <fix>3d</fix>
</trkpt>
<trkpt lat="33.8100634" lon="-118.3941845">
  <ele>-0.115</ele>
  <time>2026-09-02T22:07:23Z</time>
  <course>6.29</course>
  <speed>0.7283543093852057</speed>
  <fix>3d</fix>
</trkpt>
<trkpt lat="33.8100635" lon="-118.3941844">
  <ele>-0.115</ele>
  <time>2026-09-02T22:07:23Z</time>
  <course>6.29</course>
  <speed>0.7283543093852057</speed>
  <fix>3d</fix>
</trkpt>
<trkpt lat="33.8100635" lon="-118.3941844">
  <ele>-0.115</ele>
  <time>2026-09-02T22:07:23Z</time>
  <course>6.29</course>
  <speed>0.7283543093852057</speed>
  <fix>3d</fix>
</trkpt>
<trkpt lat="33.8100635" lon="-118.3941843">
  <ele>-0.115</ele>
  <time>2026-09-02T22:07:23Z</time>
  <course>6.3</course>
  <speed>0.7283543093852057</speed>
  <fix>3d</fix>
</trkpt>
<trkpt lat="33.8100636" lon="-118.3941843">
  <ele>-0.116</ele>
  <time>2026-09-02T22:07:23Z</time>
  <course>6.3</course>
  <speed>0.7283543093852057</speed>
  <fix>3d</fix>
</trkpt>
<trkpt lat="33.8100636" lon="-118.3941842">
  <ele>-0.116</ele>
  <time>2026-09-02T22:07:23Z</time>
  <course>6.31</course>
  <speed>0.7283543093852057</speed>
  <fix>3d</fix>
</trkpt>
<trkpt lat="33.8100636" lon="-118.3941842">
  <ele>-0.116</ele>
  <time>2026-09-02T22:07:23Z</time>
  <course>6.31</course>
  <speed>0.7283543093852057</speed>
  <fix>3d</fix>
</trkpt>
<trkpt lat="33.8100625" lon="-118.3941856">
  <ele>-0.1</ele>
  <time>2026-09-02T22:07:23Z</time>
  <course>43.06</course>
  <speed>0.73</speed>
  <fix>3d</fix>
</trkpt>
<trkpt lat="33.8100637" lon="-118.3941841">
  <ele>-0.116</ele>
  <time>2026-09-02T22:07:23Z</time>
  <course>6.31</course>
  <speed>0.7283543093852057</speed>
  <fix>3d</fix>
</trkpt>
<trkpt lat="33.8100638" lon="-118.3941841">
  <ele>-0.116</ele>
  <time>2026-09-02T22:07:23Z</time>
  <course>6.32</course>
  <speed>0.7283543093852057</speed>
  <fix>3d</fix>
</trkpt>
<trkpt lat="33.8100638" lon="-118.394184">
  <ele>-0.116</ele>
  <time>2026-09-02T22:07:23Z</time>
  <course>6.32</course>
  <speed>0.7283543093852057</speed>
  <fix>3d</fix>
</trkpt>
<trkpt lat="33.8100638" lon="-118.394184">
  <ele>-0.116</ele>
  <time>2026-09-02T22:07:23Z</time>
  <course>6.33</course>
  <speed>0.7283543093852057</speed>
  <fix>3d</fix>
</trkpt>
<trkpt lat="33.8100639" lon="-118.3941839">
  <ele>-0.117</ele>
  <time>2026-09-02T22:07:23Z</time>
  <course>6.33</course>
  <speed>0.7283543093852057</speed>
  <fix>3d</fix>
</trkpt>
<trkpt lat="33.8100639" lon="-118.3941839">
  <ele>-0.117</ele>
  <time>2026-09-02T22:07:23Z</time>
  <course>6.34</course>
  <speed>0.7283543093852057</speed>
  <fix>3d</fix>
</trkpt>
<trkpt lat="33.810064" lon="-118.3941838">
  <ele>-0.117</ele>
  <time>2026-09-02T22:07:23Z</time>
  <course>6.34</course>
  <speed>0.7283543093852057</speed>
  <fix>3d</fix>
</trkpt>
<trkpt lat="33.810064" lon="-118.3941838">
  <ele>-0.117</ele>
  <time>2026-09-02T22:07:23Z</time>
  <course>6.34</course>
  <speed>0.7283543093852057</speed>
  <fix>3d</fix>
</trkpt>
<trkpt lat="33.8100641" lon="-118.3941837">
  <ele>-0.117</ele>
  <time>2026-09-02T22:07:23Z</time>
  <course>6.35</course>
  <speed>0.7283543093852057</speed>
  <fix>3d</fix>
</trkpt>
<trkpt lat="33.8100641" lon="-118.3941837">
  <ele>-0.117</ele>
  <time>2026-09-02T22:07:23Z</time>
  <course>6.35</course>
  <speed>0.7283543093852057</speed>
  <fix>3d</fix>
</trkpt>
<trkpt lat="33.8100641" lon="-118.3941837">
  <ele>-0.117</ele>
  <time>2026-09-02T22:07:23Z</time>
  <course>6.35</course>
  <speed>0.7283543093852057</speed>
  <fix>3d</fix>
</trkpt>
<trkpt lat="33.8100635" lon="-118.3941845">
  <ele>-0.1</ele>
  <time>2026-09-02T22:07:23Z</time>
  <course>43.16</course>
  <speed>0.73</speed>
  <fix>3d</fix>
</trkpt>
<trkpt lat="33.8100642" lon="-118.3941836">
  <ele>-0.117</ele>
  <time>2026-09-02T22:07:23Z</time>
  <course>6.36</course>
  <speed>0.7283543093852057</speed>
  <fix>3d</fix>
</trkpt>
<trkpt lat="33.8100642" lon="-118.3941835">
  <ele>-0.117</ele>
  <time>2026-09-02T22:07:23Z</time>
  <course>6.36</course>
  <speed>0.7283543093852057</speed>
  <fix>3d</fix>
</trkpt>
<trkpt lat="33.8100643" lon="-118.3941835">
  <ele>-0.117</ele>
  <time>2026-09-02T22:07:23Z</time>
  <course>6.37</course>
  <speed>0.7283543093852057</speed>
  <fix>3d</fix>
</trkpt>
<trkpt lat="33.8100643" lon="-118.3941834">
  <ele>-0.117</ele>
  <time>2026-09-02T22:07:23Z</time>
  <course>6.37</course>
  <speed>0.7283543093852057</speed>
  <fix>3d</fix>
</trkpt>
<trkpt lat="33.8100644" lon="-118.3941834">
  <ele>-0.117</ele>
  <time>2026-09-02T22:07:23Z</time>
  <course>6.38</course>
  <speed>0.7283543093852057</speed>
  <fix>3d</fix>
</trkpt>
<trkpt lat="33.8100644" lon="-118.3941833">
  <ele>-0.118</ele>
  <time>2026-09-02T22:07:23Z</time>
  <course>6.38</course>
  <speed>0.7283543093852057</speed>
  <fix>3d</fix>
</trkpt>
<trkpt lat="33.8100644" lon="-118.3941833">
  <ele>-0.118</ele>
  <time>2026-09-02T22:07:23Z</time>
  <course>6.39</course>
  <speed>0.7283543093852057</speed>
  <fix>3d</fix>
</trkpt>
<trkpt lat="33.8100645" lon="-118.3941833">
  <ele>-0.118</ele>
  <time>2026-09-02T22:07:23Z</time>
  <course>6.39</course>
  <speed>0.7283543093852057</speed>
  <fix>3d</fix>
</trkpt>
<trkpt lat="33.8100645" lon="-118.3941832">
  <ele>-0.118</ele>
  <time>2026-09-02T22:07:23Z</time>
  <course>6.39</course>
  <speed>0.7283543093852057</speed>
  <fix>3d</fix>
</trkpt>
<trkpt lat="33.8100646" lon="-118.3941832">
  <ele>-0.118</ele>
  <time>2026-09-02T22:07:23Z</time>
  <course>6.4</course>
  <speed>0.7283543093852057</speed>
  <fix>3d</fix>
</trkpt>
<trkpt lat="33.8100646" lon="-118.3941831">
  <ele>-0.118</ele>
  <time>2026-09-02T22:07:23Z</time>
  <course>6.4</course>
  <speed>0.7283543093852057</speed>
  <fix>3d</fix>
</trkpt>
<trkpt lat="33.8100646" lon="-118.3941831">
  <ele>-0.118</ele>
  <time>2026-09-02T22:07:23Z</time>
  <course>6.4</course>
  <speed>0.7283543093852057</speed>
  <fix>3d</fix>
</trkpt>
<trkpt lat="33.8100635" lon="-118.3941845">
  <ele>-0.1</ele>
  <time>2026-09-02T22:07:23Z</time>
  <course>43.16</course>
  <speed>0.73</speed>
  <fix>3d</fix>
</trkpt>
<trkpt lat="33.8100647" lon="-118.394183">
  <ele>-0.118</ele>
  <time>2026-09-02T22:07:23Z</time>
  <course>6.41</course>
  <speed>0.7283543093852057</speed>
  <fix>3d</fix>
</trkpt>
<trkpt lat="33.8100647" lon="-118.394183">
  <ele>-0.118</ele>
  <time>2026-09-02T22:07:23Z</time>
  <course>6.41</course>
  <speed>0.7283543093852057</speed>
  <fix>3d</fix>
</trkpt>
<trkpt lat="33.8100648" lon="-118.3941829">
  <ele>-0.118</ele>
  <time>2026-09-02T22:07:23Z</time>
  <course>6.42</course>
  <speed>0.7283543093852057</speed>
  <fix>3d</fix>
</trkpt>
<trkpt lat="33.8100648" lon="-118.3941829">
  <ele>-0.119</ele>
  <time>2026-09-02T22:07:23Z</time>
  <course>6.42</course>
  <speed>0.7283543093852057</speed>
  <fix>3d</fix>
</trkpt>
<trkpt lat="33.8100648" lon="-118.3941828">
  <ele>-0.119</ele>
  <time>2026-09-02T22:07:23Z</time>
  <course>6.42</course>
  <speed>0.7283543093852057</speed>
  <fix>3d</fix>
</trkpt>
<trkpt lat="33.8100649" lon="-118.3941828">
  <ele>-0.118</ele>
  <time>2026-09-02T22:07:23Z</time>
  <course>6.43</course>
  <speed>0.7283543093852057</speed>
  <fix>3d</fix>
</trkpt>
<trkpt lat="33.8100649" lon="-118.3941828">
  <ele>-0.118</ele>
  <time>2026-09-02T22:07:23Z</time>
  <course>6.43</course>
  <speed>0.7283543093852057</speed>
  <fix>3d</fix>
</trkpt>
<trkpt lat="33.8100649" lon="-118.3941827">
  <ele>-0.118</ele>
  <time>2026-09-02T22:07:23Z</time>
  <course>6.43</course>
  <speed>0.7283543093852057</speed>
  <fix>3d</fix>
</trkpt>
<trkpt lat="33.810065" lon="-118.3941827">
  <ele>-0.118</ele>
  <time>2026-09-02T22:07:23Z</time>
  <course>6.44</course>
  <speed>0.7283543093852057</speed>
  <fix>3d</fix>
</trkpt>
<trkpt lat="33.810065" lon="-118.3941826">
  <ele>-0.118</ele>
  <time>2026-09-02T22:07:23Z</time>
  <course>6.44</course>
  <speed>0.7283543093852057</speed>
  <fix>3d</fix>
</trkpt>
<trkpt lat="33.8100651" lon="-118.3941826">
  <ele>-0.118</ele>
  <time>2026-09-02T22:07:23Z</time>
  <course>6.44</course>
  <speed>0.7283543093852057</speed>
  <fix>3d</fix>
</trkpt>
<trkpt lat="33.8100651" lon="-118.3941826">
  <ele>-0.118</ele>
  <time>2026-09-02T22:07:23Z</time>
  <course>6.44</course>
  <speed>0.7283543093852057</speed>
  <fix>3d</fix>
</trkpt>
<trkpt lat="33.8100644" lon="-118.3941834">
  <ele>-0.1</ele>
  <time>2026-09-02T22:07:23Z</time>
  <course>43.26</course>
  <speed>0.73</speed>
  <fix>3d</fix>
</trkpt>
<trkpt lat="33.8100651" lon="-118.3941825">
  <ele>-0.118</ele>
  <time>2026-09-02T22:07:23Z</time>
  <course>6.45</course>
  <speed>0.7283543093852057</speed>
  <fix>3d</fix>
</trkpt>
<trkpt lat="33.8100652" lon="-118.3941825">
  <ele>-0.118</ele>
  <time>2026-09-02T22:07:23Z</time>
  <course>6.45</course>
  <speed>0.7283543093852057</speed>
  <fix>3d</fix>
</trkpt>
<trkpt lat="33.8100652" lon="-118.3941824">
  <ele>-0.118</ele>
  <time>2026-09-02T22:07:23Z</time>
  <course>6.46</course>
  <speed>0.7283543093852057</speed>
  <fix>3d</fix>
</trkpt>
<trkpt lat="33.8100652" lon="-118.3941824">
  <ele>-0.118</ele>
  <time>2026-09-02T22:07:23Z</time>
  <course>6.46</course>
  <speed>0.7283543093852057</speed>
  <fix>3d</fix>
</trkpt>
<trkpt lat="33.8100653" lon="-118.3941823">
  <ele>-0.118</ele>
  <time>2026-09-02T22:07:23Z</time>
  <course>6.46</course>
  <speed>0.7283543093852057</speed>
  <fix>3d</fix>
</trkpt>
<trkpt lat="33.8100653" lon="-118.3941823">
  <ele>-0.118</ele>
  <time>2026-09-02T22:07:23Z</time>
  <course>6.47</course>
  <speed>0.7283543093852057</speed>
  <fix>3d</fix>
</trkpt>
<trkpt lat="33.8100653" lon="-118.3941822">
  <ele>-0.118</ele>
  <time>2026-09-02T22:07:23Z</time>
  <course>6.47</course>
  <speed>0.7283543093852057</speed>
  <fix>3d</fix>
</trkpt>
<trkpt lat="33.8100654" lon="-118.3941822">
  <ele>-0.118</ele>
  <time>2026-09-02T22:07:23Z</time>
  <course>6.47</course>
  <speed>0.7283543093852057</speed>
  <fix>3d</fix>
</trkpt>
<trkpt lat="33.8100654" lon="-118.3941822">
  <ele>-0.118</ele>
  <time>2026-09-02T22:07:23Z</time>
  <course>6.48</course>
  <speed>0.7283543093852057</speed>
  <fix>3d</fix>
</trkpt>
<trkpt lat="33.8100655" lon="-118.3941821">
  <ele>-0.118</ele>
  <time>2026-09-02T22:07:23Z</time>
  <course>6.48</course>
  <speed>0.7283543093852057</speed>
  <fix>3d</fix>
</trkpt>
<trkpt lat="33.8100655" lon="-118.3941821">
  <ele>-0.118</ele>
  <time>2026-09-02T22:07:23Z</time>
  <course>6.49</course>
  <speed>0.7283543093852057</speed>
  <fix>3d</fix>
</trkpt>
<trkpt lat="33.8100655" lon="-118.394182">
  <ele>-0.118</ele>
  <time>2026-09-02T22:07:23Z</time>
  <course>6.49</course>
  <speed>0.7283543093852057</speed>
  <fix>3d</fix>
</trkpt>
<trkpt lat="33.8100655" lon="-118.394182">
  <ele>-0.118</ele>
  <time>2026-09-02T22:07:23Z</time>
  <course>6.49</course>
  <speed>0.7283543093852057</speed>
  <fix>3d</fix>
</trkpt>
<trkpt lat="33.8100644" lon="-118.3941834">
  <ele>-0.1</ele>
  <time>2026-09-02T22:07:23Z</time>
  <course>43.26</course>
  <speed>0.73</speed>
  <fix>3d</fix>
</trkpt>
<trkpt lat="33.8100656" lon="-118.394182">
  <ele>-0.118</ele>
  <time>2026-09-02T22:07:23Z</time>
  <course>6.49</course>
  <speed>0.7283543093852057</speed>
  <fix>3d</fix>
</trkpt>
<trkpt lat="33.8100656" lon="-118.3941819">
  <ele>-0.118</ele>
  <time>2026-09-02T22:07:23Z</time>
  <course>6.5</course>
  <speed>0.7283543093852057</speed>
  <fix>3d</fix>
</trkpt>
<trkpt lat="33.8100657" lon="-118.3941818">
  <ele>-0.118</ele>
  <time>2026-09-02T22:07:23Z</time>
  <course>6.5</course>
  <speed>0.7283543093852057</speed>
  <fix>3d</fix>
</trkpt>
<trkpt lat="33.8100657" lon="-118.3941818">
  <ele>-0.118</ele>
  <time>2026-09-02T22:07:23Z</time>
  <course>6.51</course>
  <speed>0.7283543093852057</speed>
  <fix>3d</fix>
</trkpt>
<trkpt lat="33.8100658" lon="-118.3941818">
  <ele>-0.118</ele>
  <time>2026-09-02T22:07:23Z</time>
  <course>6.51</course>
  <speed>0.7283543093852057</speed>
  <fix>3d</fix>
</trkpt>
<trkpt lat="33.8100658" lon="-118.3941817">
  <ele>-0.118</ele>
  <time>2026-09-02T22:07:23Z</time>
  <course>6.51</course>
  <speed>0.7283543093852057</speed>
  <fix>3d</fix>
</trkpt>
<trkpt lat="33.8100658" lon="-118.3941817">
  <ele>-0.118</ele>
  <time>2026-09-02T22:07:23Z</time>
  <course>6.52</course>
  <speed>0.7283543093852057</speed>
  <fix>3d</fix>
</trkpt>
<trkpt lat="33.8100659" lon="-118.3941816">
  <ele>-0.118</ele>
  <time>2026-09-02T22:07:23Z</time>
  <course>6.52</course>
  <speed>0.7283543093852057</speed>
  <fix>3d</fix>
</trkpt>
<trkpt lat="33.8100659" lon="-118.3941816">
  <ele>-0.118</ele>
  <time>2026-09-02T22:07:23Z</time>
  <course>6.52</course>
  <speed>0.7283543093852057</speed>
  <fix>3d</fix>
</trkpt>
<trkpt lat="33.810066" lon="-118.3941815">
  <ele>-0.119</ele>
  <time>2026-09-02T22:07:23Z</time>
  <course>6.53</course>
  <speed>0.7283543093852057</speed>
  <fix>3d</fix>
</trkpt>
<trkpt lat="33.810066" lon="-118.3941815">
  <ele>-0.119</ele>
  <time>2026-09-02T22:07:23Z</time>
  <course>6.53</course>
  <speed>0.7283543093852057</speed>
  <fix>3d</fix>
</trkpt>
<trkpt lat="33.810066" lon="-118.3941815">
  <ele>-0.119</ele>
  <time>2026-09-02T22:07:23Z</time>
  <course>6.53</course>
  <speed>0.7283543093852057</speed>
  <fix>3d</fix>
</trkpt>
<trkpt lat="33.8100654" lon="-118.3941823">
  <ele>-0.1</ele>
  <time>2026-09-02T22:07:23Z</time>
  <course>43.35</course>
  <speed>0.73</speed>
  <fix>3d</fix>
</trkpt>
<trkpt lat="33.810066" lon="-118.3941815">
  <ele>-0.119</ele>
  <time>2026-09-02T22:07:23Z</time>
  <course>6.53</course>
  <speed>0.7283543093852057</speed>
  <fix>3d</fix>
</trkpt>
<trkpt lat="33.8100661" lon="-118.3941814">
  <ele>-0.119</ele>
  <time>2026-09-02T22:07:23Z</time>
  <course>6.54</course>
  <speed>0.7283543093852057</speed>
  <fix>3d</fix>
</trkpt>
<trkpt lat="33.8100662" lon="-118.3941813">
  <ele>-0.119</ele>
  <time>2026-09-02T22:07:23Z</time>
  <course>6.54</course>
  <speed>0.7283543093852057</speed>
  <fix>3d</fix>
</trkpt>
<trkpt lat="33.8100662" lon="-118.3941812">
  <ele>-0.119</ele>
  <time>2026-09-02T22:07:23Z</time>
  <course>6.55</course>
  <speed>0.7283543093852057</speed>
  <fix>3d</fix>
</trkpt>
<trkpt lat="33.8100662" lon="-118.3941812">
  <ele>-0.119</ele>
  <time>2026-09-02T22:07:23Z</time>
  <course>6.55</course>
  <speed>0.7283543093852057</speed>
  <fix>3d</fix>
</trkpt>
<trkpt lat="33.8100663" lon="-118.3941812">
  <ele>-0.119</ele>
  <time>2026-09-02T22:07:23Z</time>
  <course>6.56</course>
  <speed>0.7283543093852057</speed>
  <fix>3d</fix>
</trkpt>
<trkpt lat="33.8100663" lon="-118.3941811">
  <ele>-0.119</ele>
  <time>2026-09-02T22:07:23Z</time>
  <course>6.56</course>
  <speed>0.7283543093852057</speed>
  <fix>3d</fix>
</trkpt>
<trkpt lat="33.8100663" lon="-118.3941811">
  <ele>-0.119</ele>
  <time>2026-09-02T22:07:23Z</time>
  <course>6.56</course>
  <speed>0.7283543093852057</speed>
  <fix>3d</fix>
</trkpt>
<trkpt lat="33.8100664" lon="-118.394181">
  <ele>-0.119</ele>
  <time>2026-09-02T22:07:23Z</time>
  <course>6.57</course>
  <speed>0.7353910524340094</speed>
  <fix>3d</fix>
</trkpt>
<trkpt lat="33.8100664" lon="-118.394181">
  <ele>-0.119</ele>
  <time>2026-09-02T22:07:23Z</time>
  <course>6.57</course>
  <speed>0.7353910524340094</speed>
  <fix>3d</fix>
</trkpt>
<trkpt lat="33.8100665" lon="-118.3941809">
  <ele>-0.119</ele>
  <time>2026-09-02T22:07:23Z</time>
  <course>6.57</course>
  <speed>0.7353910524340094</speed>
  <fix>3d</fix>
</trkpt>
<trkpt lat="33.8100665" lon="-118.3941809">
  <ele>-0.119</ele>
  <time>2026-09-02T22:07:23Z</time>
  <course>6.57</course>
  <speed>0.7353910524340094</speed>
  <fix>3d</fix>
</trkpt>
<trkpt lat="33.8100654" lon="-118.3941823">
  <ele>-0.1</ele>
  <time>2026-09-02T22:07:23Z</time>
  <course>43.35</course>
  <speed>0.73</speed>
  <fix>3d</fix>
</trkpt>
<trkpt lat="33.8100665" lon="-118.3941809">
  <ele>-0.119</ele>
  <time>2026-09-02T22:07:23Z</time>
  <course>6.57</course>
  <speed>0.7353910524340094</speed>
  <fix>3d</fix>
</trkpt>
<trkpt lat="33.8100666" lon="-118.3941808">
  <ele>-0.119</ele>
  <time>2026-09-02T22:07:23Z</time>
  <course>6.58</course>
  <speed>0.7353910524340094</speed>
  <fix>3d</fix>
</trkpt>
<trkpt lat="33.8100666" lon="-118.3941807">
  <ele>-0.119</ele>
  <time>2026-09-02T22:07:23Z</time>
  <course>6.59</course>
  <speed>0.7353910524340094</speed>
  <fix>3d</fix>
</trkpt>
<trkpt lat="33.8100667" lon="-118.3941807">
  <ele>-0.118</ele>
  <time>2026-09-02T22:07:23Z</time>
  <course>6.59</course>
  <speed>0.7353910524340094</speed>
  <fix>3d</fix>
</trkpt>
<trkpt lat="33.8100667" lon="-118.3941807">
  <ele>-0.118</ele>
  <time>2026-09-02T22:07:23Z</time>
  <course>6.59</course>
  <speed>0.7353910524340094</speed>
  <fix>3d</fix>
</trkpt>
<trkpt lat="33.8100667" lon="-118.3941806">
  <ele>-0.118</ele>
  <time>2026-09-02T22:07:23Z</time>
  <course>6.6</course>
  <speed>0.7353910524340094</speed>
  <fix>3d</fix>
</trkpt>
<trkpt lat="33.8100668" lon="-118.3941806">
  <ele>-0.118</ele>
  <time>2026-09-02T22:07:23Z</time>
  <course>6.6</course>
  <speed>0.7353910524340094</speed>
  <fix>3d</fix>
</trkpt>
<trkpt lat="33.8100668" lon="-118.3941805">
  <ele>-0.118</ele>
  <time>2026-09-02T22:07:23Z</time>
  <course>6.6</course>
  <speed>0.7353910524340094</speed>
  <fix>3d</fix>
</trkpt>
<trkpt lat="33.8100669" lon="-118.3941805">
  <ele>-0.118</ele>
  <time>2026-09-02T22:07:23Z</time>
  <course>6.61</course>
  <speed>0.7353910524340094</speed>
  <fix>3d</fix>
</trkpt>
<trkpt lat="33.8100669" lon="-118.3941804">
  <ele>-0.118</ele>
  <time>2026-09-02T22:07:23Z</time>
  <course>6.61</course>
  <speed>0.7353910524340094</speed>
  <fix>3d</fix>
</trkpt>
<trkpt lat="33.8100669" lon="-118.3941804">
  <ele>-0.119</ele>
  <time>2026-09-02T22:07:23Z</time>
  <course>6.61</course>
  <speed>0.7283543093852057</speed>
  <fix>3d</fix>
</trkpt>
<trkpt lat="33.810067" lon="-118.3941804">
  <ele>-0.119</ele>
  <time>2026-09-02T22:07:23Z</time>
  <course>6.62</course>
  <speed>0.7283543093852057</speed>
  <fix>3d</fix>
</trkpt>
<trkpt lat="33.8100663" lon="-118.3941812">
  <ele>-0.11</ele>
  <time>2026-09-02T22:07:23Z</time>
  <course>43.44</course>
  <speed>0.73</speed>
  <fix>3d</fix>
</trkpt>
<trkpt lat="33.810067" lon="-118.3941804">
  <ele>-0.118</ele>
  <time>2026-09-02T22:07:23Z</time>
  <course>6.62</course>
  <speed>0.7283543093852057</speed>
  <fix>3d</fix>
</trkpt>
<trkpt lat="33.810067" lon="-118.3941803">
  <ele>-0.118</ele>
  <time>2026-09-02T22:07:23Z</time>
  <course>6.62</course>
  <speed>0.7283543093852057</speed>
  <fix>3d</fix>
</trkpt>
<trkpt lat="33.8100671" lon="-118.3941802">
  <ele>-0.118</ele>
  <time>2026-09-02T22:07:23Z</time>
  <course>6.63</course>
  <speed>0.7283543093852057</speed>
  <fix>3d</fix>
</trkpt>
<trkpt lat="33.8100671" lon="-118.3941802">
  <ele>-0.118</ele>
  <time>2026-09-02T22:07:23Z</time>
  <course>6.63</course>
  <speed>0.7283543093852057</speed>
  <fix>3d</fix>
</trkpt>
<trkpt lat="33.8100672" lon="-118.3941801">
  <ele>-0.118</ele>
  <time>2026-09-02T22:07:23Z</time>
  <course>6.63</course>
  <speed>0.7283543093852057</speed>
  <fix>3d</fix>
</trkpt>
<trkpt lat="33.8100672" lon="-118.3941801">
  <ele>-0.118</ele>
  <time>2026-09-02T22:07:23Z</time>
  <course>6.64</course>
  <speed>0.7283543093852057</speed>
  <fix>3d</fix>
</trkpt>
<trkpt lat="33.8100672" lon="-118.3941801">
  <ele>-0.118</ele>
  <time>2026-09-02T22:07:23Z</time>
  <course>6.64</course>
  <speed>0.7283543093852057</speed>
  <fix>3d</fix>
</trkpt>
<trkpt lat="33.8100673" lon="-118.39418">
  <ele>-0.118</ele>
  <time>2026-09-02T22:07:23Z</time>
  <course>6.64</course>
  <speed>0.7283543093852057</speed>
  <fix>3d</fix>
</trkpt>
<trkpt lat="33.8100673" lon="-118.39418">
  <ele>-0.118</ele>
  <time>2026-09-02T22:07:23Z</time>
  <course>6.65</course>
  <speed>0.7283543093852057</speed>
  <fix>3d</fix>
</trkpt>
<trkpt lat="33.8100673" lon="-118.3941799">
  <ele>-0.118</ele>
  <time>2026-09-02T22:07:23Z</time>
  <course>6.65</course>
  <speed>0.7283543093852057</speed>
  <fix>3d</fix>
</trkpt>
<trkpt lat="33.8100674" lon="-118.3941799">
  <ele>-0.118</ele>
  <time>2026-09-02T22:07:23Z</time>
  <course>6.65</course>
  <speed>0.7283543093852057</speed>
  <fix>3d</fix>
</trkpt>
<trkpt lat="33.8100674" lon="-118.3941799">
  <ele>-0.118</ele>
  <time>2026-09-02T22:07:23Z</time>
  <course>6.65</course>
  <speed>0.7283543093852057</speed>
  <fix>3d</fix>
</trkpt>
<trkpt lat="33.8100674" lon="-118.3941798">
  <ele>-0.118</ele>
  <time>2026-09-02T22:07:23Z</time>
  <course>6.66</course>
  <speed>0.7283543093852057</speed>
  <fix>3d</fix>
</trkpt>
<trkpt lat="33.8100674" lon="-118.3941798">
  <ele>-0.118</ele>
  <time>2026-09-02T22:07:23Z</time>
  <course>6.66</course>
  <speed>0.7283543093852057</speed>
  <fix>3d</fix>
</trkpt>
<trkpt lat="33.8100663" lon="-118.3941812">
  <ele>-0.11</ele>
  <time>2026-09-02T22:07:23Z</time>
  <course>43.44</course>
  <speed>0.73</speed>
  <fix>3d</fix>
</trkpt>
<trkpt lat="33.8100675" lon="-118.3941797">
  <ele>-0.118</ele>
  <time>2026-09-02T22:07:23Z</time>
  <course>6.66</course>
  <speed>0.7283543093852057</speed>
  <fix>3d</fix>
</trkpt>
<trkpt lat="33.8100676" lon="-118.3941797">
  <ele>-0.118</ele>
  <time>2026-09-02T22:07:23Z</time>
  <course>6.67</course>
  <speed>0.7283543093852057</speed>
  <fix>3d</fix>
</trkpt>
<trkpt lat="33.8100676" lon="-118.3941796">
  <ele>-0.118</ele>
  <time>2026-09-02T22:07:23Z</time>
  <course>6.67</course>
  <speed>0.7283543093852057</speed>
  <fix>3d</fix>
</trkpt>
<trkpt lat="33.8100676" lon="-118.3941796">
  <ele>-0.118</ele>
  <time>2026-09-02T22:07:23Z</time>
  <course>6.67</course>
  <speed>0.7283543093852057</speed>
  <fix>3d</fix>
</trkpt>
<trkpt lat="33.8100677" lon="-118.3941795">
  <ele>-0.117</ele>
  <time>2026-09-02T22:07:23Z</time>
  <course>6.68</course>
  <speed>0.7283543093852057</speed>
  <fix>3d</fix>
</trkpt>
<trkpt lat="33.8100677" lon="-118.3941795">
  <ele>-0.117</ele>
  <time>2026-09-02T22:07:23Z</time>
  <course>6.68</course>
  <speed>0.7283543093852057</speed>
  <fix>3d</fix>
</trkpt>
<trkpt lat="33.8100677" lon="-118.3941795">
  <ele>-0.117</ele>
  <time>2026-09-02T22:07:23Z</time>
  <course>6.68</course>
  <speed>0.7283543093852057</speed>
  <fix>3d</fix>
</trkpt>
<trkpt lat="33.8100678" lon="-118.3941794">
  <ele>-0.117</ele>
  <time>2026-09-02T22:07:23Z</time>
  <course>6.69</course>
  <speed>0.7283543093852057</speed>
  <fix>3d</fix>
</trkpt>
<trkpt lat="33.8100678" lon="-118.3941794">
  <ele>-0.117</ele>
  <time>2026-09-02T22:07:23Z</time>
  <course>6.69</course>
  <speed>0.7283543093852057</speed>
  <fix>3d</fix>
</trkpt>
<trkpt lat="33.8100678" lon="-118.3941793">
  <ele>-0.117</ele>
  <time>2026-09-02T22:07:23Z</time>
  <course>6.69</course>
  <speed>0.7283543093852057</speed>
  <fix>3d</fix>
</trkpt>
<trkpt lat="33.8100679" lon="-118.3941793">
  <ele>-0.116</ele>
  <time>2026-09-02T22:07:23Z</time>
  <course>6.7</course>
  <speed>0.7283543093852057</speed>
  <fix>3d</fix>
</trkpt>
<trkpt lat="33.8100679" lon="-118.3941792">
  <ele>-0.116</ele>
  <time>2026-09-02T22:07:23Z</time>
  <course>6.7</course>
  <speed>0.7283543093852057</speed>
  <fix>3d</fix>
</trkpt>
<trkpt lat="33.8100673" lon="-118.3941801">
  <ele>-0.1</ele>
  <time>2026-09-02T22:07:23Z</time>
  <course>43.52</course>
  <speed>0.73</speed>
  <fix>3d</fix>
</trkpt>
<trkpt lat="33.8100679" lon="-118.3941792">
  <ele>-0.116</ele>
  <time>2026-09-02T22:07:23Z</time>
  <course>6.7</course>
  <speed>0.7283543093852057</speed>
  <fix>3d</fix>
</trkpt>
<trkpt lat="33.810068" lon="-118.3941792">
  <ele>-0.116</ele>
  <time>2026-09-02T22:07:23Z</time>
  <course>6.7</course>
  <speed>0.7283543093852057</speed>
  <fix>3d</fix>
</trkpt>
<trkpt lat="33.810068" lon="-118.3941791">
  <ele>-0.116</ele>
  <time>2026-09-02T22:07:23Z</time>
  <course>6.71</course>
  <speed>0.7283543093852057</speed>
  <fix>3d</fix>
</trkpt>
<trkpt lat="33.8100681" lon="-118.394179">
  <ele>-0.116</ele>
  <time>2026-09-02T22:07:23Z</time>
  <course>6.71</course>
  <speed>0.7283543093852057</speed>
  <fix>3d</fix>
</trkpt>
<trkpt lat="33.8100681" lon="-118.394179">
  <ele>-0.115</ele>
  <time>2026-09-02T22:07:23Z</time>
  <course>6.72</course>
  <speed>0.7283543093852057</speed>
  <fix>3d</fix>
</trkpt>
<trkpt lat="33.8100682" lon="-118.3941789">
  <ele>-0.115</ele>
  <time>2026-09-02T22:07:23Z</time>
  <course>6.72</course>
  <speed>0.7283543093852057</speed>
  <fix>3d</fix>
</trkpt>
<trkpt lat="33.8100682" lon="-118.3941789">
  <ele>-0.115</ele>
  <time>2026-09-02T22:07:23Z</time>
  <course>6.72</course>
  <speed>0.7283543093852057</speed>
  <fix>3d</fix>
</trkpt>
<trkpt lat="33.8100682" lon="-118.3941789">
  <ele>-0.115</ele>
  <time>2026-09-02T22:07:23Z</time>
  <course>6.73</course>
  <speed>0.7283543093852057</speed>
  <fix>3d</fix>
</trkpt>
<trkpt lat="33.8100683" lon="-118.3941788">
  <ele>-0.115</ele>
  <time>2026-09-02T22:07:23Z</time>
  <course>6.73</course>
  <speed>0.7283543093852057</speed>
  <fix>3d</fix>
</trkpt>
<trkpt lat="33.8100683" lon="-118.3941788">
  <ele>-0.115</ele>
  <time>2026-09-02T22:07:23Z</time>
  <course>6.73</course>
  <speed>0.7283543093852057</speed>
  <fix>3d</fix>
</trkpt>
<trkpt lat="33.8100684" lon="-118.3941787">
  <ele>-0.115</ele>
  <time>2026-09-02T22:07:23Z</time>
  <course>6.74</course>
  <speed>0.7283543093852057</speed>
  <fix>3d</fix>
</trkpt>
<trkpt lat="33.8100684" lon="-118.3941787">
  <ele>-0.114</ele>
  <time>2026-09-02T22:07:23Z</time>
  <course>6.74</course>
  <speed>0.7283543093852057</speed>
  <fix>3d</fix>
</trkpt>
<trkpt lat="33.8100673" lon="-118.3941801">
  <ele>-0.1</ele>
  <time>2026-09-02T22:07:23Z</time>
  <course>43.52</course>
  <speed>0.73</speed>
  <fix>3d</fix>
</trkpt>
<trkpt lat="33.8100684" lon="-118.3941787">
  <ele>-0.114</ele>
  <time>2026-09-02T22:07:23Z</time>
  <course>6.74</course>
  <speed>0.7283543093852057</speed>
  <fix>3d</fix>
</trkpt>
<trkpt lat="33.8100684" lon="-118.3941786">
  <ele>-0.114</ele>
  <time>2026-09-02T22:07:23Z</time>
  <course>6.74</course>
  <speed>0.7283543093852057</speed>
  <fix>3d</fix>
</trkpt>
<trkpt lat="33.8100685" lon="-118.3941786">
  <ele>-0.114</ele>
  <time>2026-09-02T22:07:23Z</time>
  <course>6.75</course>
  <speed>0.7283543093852057</speed>
  <fix>3d</fix>
</trkpt>
<trkpt lat="33.8100685" lon="-118.3941785">
  <ele>-0.114</ele>
  <time>2026-09-02T22:07:23Z</time>
  <course>6.75</course>
  <speed>0.7283543093852057</speed>
  <fix>3d</fix>
</trkpt>
<trkpt lat="33.8100686" lon="-118.3941784">
  <ele>-0.114</ele>
  <time>2026-09-02T22:07:23Z</time>
  <course>6.76</course>
  <speed>0.7283543093852057</speed>
  <fix>3d</fix>
</trkpt>
<trkpt lat="33.8100687" lon="-118.3941784">
  <ele>-0.114</ele>
  <time>2026-09-02T22:07:23Z</time>
  <course>6.76</course>
  <speed>0.7283543093852057</speed>
  <fix>3d</fix>
</trkpt>
<trkpt lat="33.8100687" lon="-118.3941783">
  <ele>-0.113</ele>
  <time>2026-09-02T22:07:23Z</time>
  <course>6.77</course>
  <speed>0.7283543093852057</speed>
  <fix>3d</fix>
</trkpt>
<trkpt lat="33.8100688" lon="-118.3941782">
  <ele>-0.113</ele>
  <time>2026-09-02T22:07:23Z</time>
  <course>6.77</course>
  <speed>0.7283543093852057</speed>
  <fix>3d</fix>
</trkpt>
<trkpt lat="33.8100688" lon="-118.3941782">
  <ele>-0.113</ele>
  <time>2026-09-02T22:07:23Z</time>
  <course>6.77</course>
  <speed>0.7283543093852057</speed>
  <fix>3d</fix>
</trkpt>
<trkpt lat="33.8100688" lon="-118.3941781">
  <ele>-0.113</ele>
  <time>2026-09-02T22:07:23Z</time>
  <course>6.78</course>
  <speed>0.7283543093852057</speed>
  <fix>3d</fix>
</trkpt>
<trkpt lat="33.8100689" lon="-118.3941781">
  <ele>-0.113</ele>
  <time>2026-09-02T22:07:23Z</time>
  <course>6.78</course>
  <speed>0.7283543093852057</speed>
  <fix>3d</fix>
</trkpt>
<trkpt lat="33.8100683" lon="-118.394179">
  <ele>-0.1</ele>
  <time>2026-09-02T22:07:23Z</time>
  <course>43.6</course>
  <speed>0.73</speed>
  <fix>3d</fix>
</trkpt>
<trkpt lat="33.8100689" lon="-118.3941781">
  <ele>-0.113</ele>
  <time>2026-09-02T22:07:23Z</time>
  <course>6.78</course>
  <speed>0.7283543093852057</speed>
  <fix>3d</fix>
</trkpt>
<trkpt lat="33.8100689" lon="-118.394178">
  <ele>-0.113</ele>
  <time>2026-09-02T22:07:23Z</time>
  <course>6.78</course>
  <speed>0.7283543093852057</speed>
  <fix>3d</fix>
</trkpt>
<trkpt lat="33.810069" lon="-118.394178">
  <ele>-0.113</ele>
  <time>2026-09-02T22:07:23Z</time>
  <course>6.79</course>
  <speed>0.7283543093852057</speed>
  <fix>3d</fix>
</trkpt>
<trkpt lat="33.810069" lon="-118.3941779">
  <ele>-0.113</ele>
  <time>2026-09-02T22:07:23Z</time>
  <course>6.79</course>
  <speed>0.7283543093852057</speed>
  <fix>3d</fix>
</trkpt>
<trkpt lat="33.8100691" lon="-118.3941779">
  <ele>-0.113</ele>
  <time>2026-09-02T22:07:23Z</time>
  <course>6.79</course>
  <speed>0.7283543093852057</speed>
  <fix>3d</fix>
</trkpt>
<trkpt lat="33.8100691" lon="-118.3941778">
  <ele>-0.113</ele>
  <time>2026-09-02T22:07:23Z</time>
  <course>6.8</course>
  <speed>0.7283543093852057</speed>
  <fix>3d</fix>
</trkpt>
<trkpt lat="33.8100691" lon="-118.3941778">
  <ele>-0.113</ele>
  <time>2026-09-02T22:07:23Z</time>
  <course>6.8</course>
  <speed>0.7283543093852057</speed>
  <fix>3d</fix>
</trkpt>
<trkpt lat="33.8100692" lon="-118.3941778">
  <ele>-0.113</ele>
  <time>2026-09-02T22:07:23Z</time>
  <course>6.8</course>
  <speed>0.7283543093852057</speed>
  <fix>3d</fix>
</trkpt>
<trkpt lat="33.8100692" lon="-118.3941777">
  <ele>-0.113</ele>
  <time>2026-09-02T22:07:23Z</time>
  <course>6.81</course>
  <speed>0.7283543093852057</speed>
  <fix>3d</fix>
</trkpt>
<trkpt lat="33.8100692" lon="-118.3941777">
  <ele>-0.113</ele>
  <time>2026-09-02T22:07:23Z</time>
  <course>6.81</course>
  <speed>0.7283543093852057</speed>
  <fix>3d</fix>
</trkpt>
<trkpt lat="33.8100693" lon="-118.3941776">
  <ele>-0.113</ele>
  <time>2026-09-02T22:07:23Z</time>
  <course>6.81</course>
  <speed>0.7283543093852057</speed>
  <fix>3d</fix>
</trkpt>
<trkpt lat="33.8100693" lon="-118.3941776">
  <ele>-0.113</ele>
  <time>2026-09-02T22:07:23Z</time>
  <course>6.81</course>
  <speed>0.7283543093852057</speed>
  <fix>3d</fix>
</trkpt>
<trkpt lat="33.8100693" lon="-118.3941776">
  <ele>-0.113</ele>
  <time>2026-09-02T22:07:23Z</time>
  <course>6.82</course>
  <speed>0.7283543093852057</speed>
  <fix>3d</fix>
</trkpt>
<trkpt lat="33.8100683" lon="-118.394179">
  <ele>-0.1</ele>
  <time>2026-09-02T22:07:23Z</time>
  <course>43.6</course>
  <speed>0.73</speed>
  <fix>3d</fix>
</trkpt>
<trkpt lat="33.8100693" lon="-118.3941776">
  <ele>-0.113</ele>
  <time>2026-09-02T22:07:23Z</time>
  <course>6.82</course>
  <speed>0.7283543093852057</speed>
  <fix>3d</fix>
</trkpt>
<trkpt lat="33.8100694" lon="-118.3941775">
  <ele>-0.113</ele>
  <time>2026-09-02T22:07:23Z</time>
  <course>6.82</course>
  <speed>0.7283543093852057</speed>
  <fix>3d</fix>
</trkpt>
<trkpt lat="33.8100694" lon="-118.3941774">
  <ele>-0.113</ele>
  <time>2026-09-02T22:07:23Z</time>
  <course>6.83</course>
  <speed>0.7283543093852057</speed>
  <fix>3d</fix>
</trkpt>
<trkpt lat="33.8100695" lon="-118.3941774">
  <ele>-0.113</ele>
  <time>2026-09-02T22:07:23Z</time>
  <course>6.83</course>
  <speed>0.7283543093852057</speed>
  <fix>3d</fix>
</trkpt>
<trkpt lat="33.8100695" lon="-118.3941774">
  <ele>-0.113</ele>
  <time>2026-09-02T22:07:23Z</time>
  <course>6.83</course>
  <speed>0.7283543093852057</speed>
  <fix>3d</fix>
</trkpt>
<trkpt lat="33.8100695" lon="-118.3941773">
  <ele>-0.113</ele>
  <time>2026-09-02T22:07:23Z</time>
  <course>6.83</course>
  <speed>0.7283543093852057</speed>
  <fix>3d</fix>
</trkpt>
<trkpt lat="33.8100696" lon="-118.3941773">
  <ele>-0.113</ele>
  <time>2026-09-02T22:07:23Z</time>
  <course>6.84</course>
  <speed>0.7283543093852057</speed>
  <fix>3d</fix>
</trkpt>
<trkpt lat="33.8100696" lon="-118.3941772">
  <ele>-0.113</ele>
  <time>2026-09-02T22:07:23Z</time>
  <course>6.84</course>
  <speed>0.7283543093852057</speed>
  <fix>3d</fix>
</trkpt>
<trkpt lat="33.8100697" lon="-118.3941772">
  <ele>-0.113</ele>
  <time>2026-09-02T22:07:23Z</time>
  <course>6.84</course>
  <speed>0.7283543093852057</speed>
  <fix>3d</fix>
</trkpt>
<trkpt lat="33.8100697" lon="-118.3941771">
  <ele>-0.113</ele>
  <time>2026-09-02T22:07:23Z</time>
  <course>6.85</course>
  <speed>0.7283543093852057</speed>
  <fix>3d</fix>
</trkpt>
<trkpt lat="33.8100697" lon="-118.3941771">
  <ele>-0.113</ele>
  <time>2026-09-02T22:07:23Z</time>
  <course>6.85</course>
  <speed>0.7283543093852057</speed>
  <fix>3d</fix>
</trkpt>
<trkpt lat="33.8100698" lon="-118.394177">
  <ele>-0.113</ele>
  <time>2026-09-02T22:07:23Z</time>
  <course>6.85</course>
  <speed>0.7283543093852057</speed>
  <fix>3d</fix>
</trkpt>
<trkpt lat="33.8100698" lon="-118.394177">
  <ele>-0.113</ele>
  <time>2026-09-02T22:07:23Z</time>
  <course>6.85</course>
  <speed>0.7283543093852057</speed>
  <fix>3d</fix>
</trkpt>
<trkpt lat="33.8100692" lon="-118.3941779">
  <ele>-0.1</ele>
  <time>2026-09-02T22:07:23Z</time>
  <course>43.68</course>
  <speed>0.73</speed>
  <fix>3d</fix>
</trkpt>
<trkpt lat="33.8100698" lon="-118.394177">
  <ele>-0.113</ele>
  <time>2026-09-02T22:07:23Z</time>
  <course>6.85</course>
  <speed>0.7283543093852057</speed>
  <fix>3d</fix>
</trkpt>
<trkpt lat="33.8100699" lon="-118.3941769">
  <ele>-0.113</ele>
  <time>2026-09-02T22:07:23Z</time>
  <course>6.86</course>
  <speed>0.7283543093852057</speed>
  <fix>3d</fix>
</trkpt>
<trkpt lat="33.8100699" lon="-118.3941769">
  <ele>-0.113</ele>
  <time>2026-09-02T22:07:23Z</time>
  <course>6.86</course>
  <speed>0.7283543093852057</speed>
  <fix>3d</fix>
</trkpt>
<trkpt lat="33.81007" lon="-118.3941768">
  <ele>-0.113</ele>
  <time>2026-09-02T22:07:23Z</time>
  <course>6.87</course>
  <speed>0.7283543093852057</speed>
  <fix>3d</fix>
</trkpt>
<trkpt lat="33.81007" lon="-118.3941768">
  <ele>-0.113</ele>
  <time>2026-09-02T22:07:23Z</time>
  <course>6.87</course>
  <speed>0.7283543093852057</speed>
  <fix>3d</fix>
</trkpt>
<trkpt lat="33.81007" lon="-118.3941767">
  <ele>-0.113</ele>
  <time>2026-09-02T22:07:23Z</time>
  <course>6.87</course>
  <speed>0.7283543093852057</speed>
  <fix>3d</fix>
</trkpt>
<trkpt lat="33.8100701" lon="-118.3941767">
  <ele>-0.113</ele>
  <time>2026-09-02T22:07:23Z</time>
  <course>6.88</course>
  <speed>0.7283543093852057</speed>
  <fix>3d</fix>
</trkpt>
<trkpt lat="33.8100701" lon="-118.3941766">
  <ele>-0.113</ele>
  <time>2026-09-02T22:07:23Z</time>
  <course>6.88</course>
  <speed>0.7283543093852057</speed>
  <fix>3d</fix>
</trkpt>
<trkpt lat="33.8100702" lon="-118.3941766">
  <ele>-0.113</ele>
  <time>2026-09-02T22:07:23Z</time>
  <course>6.88</course>
  <speed>0.7283543093852057</speed>
  <fix>3d</fix>
</trkpt>
<trkpt lat="33.8100702" lon="-118.3941765">
  <ele>-0.112</ele>
  <time>2026-09-02T22:07:23Z</time>
  <course>6.89</course>
  <speed>0.7283543093852057</speed>
  <fix>3d</fix>
</trkpt>
<trkpt lat="33.8100702" lon="-118.3941765">
  <ele>-0.112</ele>
  <time>2026-09-02T22:07:23Z</time>
  <course>6.89</course>
  <speed>0.7283543093852057</speed>
  <fix>3d</fix>
</trkpt>
<trkpt lat="33.8100703" lon="-118.3941765">
  <ele>-0.112</ele>
  <time>2026-09-02T22:07:23Z</time>
  <course>6.89</course>
  <speed>0.7283543093852057</speed>
  <fix>3d</fix>
</trkpt>
<trkpt lat="33.8100703" lon="-118.3941765">
  <ele>-0.112</ele>
  <time>2026-09-02T22:07:23Z</time>
  <course>6.89</course>
  <speed>0.7283543093852057</speed>
  <fix>3d</fix>
</trkpt>
<trkpt lat="33.8100692" lon="-118.3941779">
  <ele>-0.1</ele>
  <time>2026-09-02T22:07:23Z</time>
  <course>43.68</course>
  <speed>0.73</speed>
  <fix>3d</fix>
</trkpt>
<trkpt lat="33.8100703" lon="-118.3941764">
  <ele>-0.112</ele>
  <time>2026-09-02T22:07:23Z</time>
  <course>6.9</course>
  <speed>0.7283543093852057</speed>
  <fix>3d</fix>
</trkpt>
<trkpt lat="33.8100704" lon="-118.3941763">
  <ele>-0.112</ele>
  <time>2026-09-02T22:07:23Z</time>
  <course>6.9</course>
  <speed>0.7283543093852057</speed>
  <fix>3d</fix>
</trkpt>
<trkpt lat="33.8100704" lon="-118.3941763">
  <ele>-0.112</ele>
  <time>2026-09-02T22:07:23Z</time>
  <course>6.9</course>
  <speed>0.7283543093852057</speed>
  <fix>3d</fix>
</trkpt>
<trkpt lat="33.8100705" lon="-118.3941762">
  <ele>-0.112</ele>
  <time>2026-09-02T22:07:23Z</time>
  <course>6.91</course>
  <speed>0.7283543093852057</speed>
  <fix>3d</fix>
</trkpt>
<trkpt lat="33.8100705" lon="-118.3941762">
  <ele>-0.112</ele>
  <time>2026-09-02T22:07:23Z</time>
  <course>6.91</course>
  <speed>0.7283543093852057</speed>
  <fix>3d</fix>
</trkpt>
<trkpt lat="33.8100705" lon="-118.3941762">
  <ele>-0.112</ele>
  <time>2026-09-02T22:07:23Z</time>
  <course>6.91</course>
  <speed>0.7283543093852057</speed>
  <fix>3d</fix>
</trkpt>
<trkpt lat="33.8100706" lon="-118.3941761">
  <ele>-0.112</ele>
  <time>2026-09-02T22:07:23Z</time>
  <course>6.91</course>
  <speed>0.7283543093852057</speed>
  <fix>3d</fix>
</trkpt>
<trkpt lat="33.8100706" lon="-118.3941761">
  <ele>-0.112</ele>
  <time>2026-09-02T22:07:23Z</time>
  <course>6.92</course>
  <speed>0.7283543093852057</speed>
  <fix>3d</fix>
</trkpt>
<trkpt lat="33.8100706" lon="-118.394176">
  <ele>-0.112</ele>
  <time>2026-09-02T22:07:23Z</time>
  <course>6.92</course>
  <speed>0.7283543093852057</speed>
  <fix>3d</fix>
</trkpt>
<trkpt lat="33.8100707" lon="-118.394176">
  <ele>-0.112</ele>
  <time>2026-09-02T22:07:23Z</time>
  <course>6.92</course>
  <speed>0.7283543093852057</speed>
  <fix>3d</fix>
</trkpt>
<trkpt lat="33.8100707" lon="-118.3941759">
  <ele>-0.112</ele>
  <time>2026-09-02T22:07:23Z</time>
  <course>6.93</course>
  <speed>0.7283543093852057</speed>
  <fix>3d</fix>
</trkpt>
<trkpt lat="33.8100707" lon="-118.3941759">
  <ele>-0.112</ele>
  <time>2026-09-02T22:07:23Z</time>
  <course>6.93</course>
  <speed>0.7283543093852057</speed>
  <fix>3d</fix>
</trkpt>
<trkpt lat="33.8100702" lon="-118.3941768">
  <ele>-0.1</ele>
  <time>2026-09-02T22:07:23Z</time>
  <course>43.76</course>
  <speed>0.73</speed>
  <fix>3d</fix>
</trkpt>
<trkpt lat="33.8100708" lon="-118.3941759">
  <ele>-0.112</ele>
  <time>2026-09-02T22:07:23Z</time>
  <course>6.93</course>
  <speed>0.7283543093852057</speed>
  <fix>3d</fix>
</trkpt>
<trkpt lat="33.8100708" lon="-118.3941758">
  <ele>-0.112</ele>
  <time>2026-09-02T22:07:23Z</time>
  <course>6.94</course>
  <speed>0.7283543093852057</speed>
  <fix>3d</fix>
</trkpt>
<trkpt lat="33.8100709" lon="-118.3941757">
  <ele>-0.112</ele>
  <time>2026-09-02T22:07:23Z</time>
  <course>6.94</course>
  <speed>0.7283543093852057</speed>
  <fix>3d</fix>
</trkpt>
<trkpt lat="33.8100709" lon="-118.3941757">
  <ele>-0.112</ele>
  <time>2026-09-02T22:07:23Z</time>
  <course>6.94</course>
  <speed>0.7283543093852057</speed>
  <fix>3d</fix>
</trkpt>
<trkpt lat="33.810071" lon="-118.3941756">
  <ele>-0.112</ele>
  <time>2026-09-02T22:07:23Z</time>
  <course>6.95</course>
  <speed>0.7283543093852057</speed>
  <fix>3d</fix>
</trkpt>
<trkpt lat="33.810071" lon="-118.3941756">
  <ele>-0.112</ele>
  <time>2026-09-02T22:07:23Z</time>
  <course>6.95</course>
  <speed>0.7283543093852057</speed>
  <fix>3d</fix>
</trkpt>
<trkpt lat="33.810071" lon="-118.3941755">
  <ele>-0.112</ele>
  <time>2026-09-02T22:07:23Z</time>
  <course>6.95</course>
  <speed>0.7283543093852057</speed>
  <fix>3d</fix>
</trkpt>
<trkpt lat="33.8100711" lon="-118.3941755">
  <ele>-0.112</ele>
  <time>2026-09-02T22:07:23Z</time>
  <course>6.95</course>
  <speed>0.7283543093852057</speed>
  <fix>3d</fix>
</trkpt>
<trkpt lat="33.8100711" lon="-118.3941754">
  <ele>-0.112</ele>
  <time>2026-09-02T22:07:23Z</time>
  <course>6.96</course>
  <speed>0.7283543093852057</speed>
  <fix>3d</fix>
</trkpt>
<trkpt lat="33.8100712" lon="-118.3941754">
  <ele>-0.112</ele>
  <time>2026-09-02T22:07:23Z</time>
  <course>6.96</course>
  <speed>0.7283543093852057</speed>
  <fix>3d</fix>
</trkpt>
<trkpt lat="33.8100712" lon="-118.3941754">
  <ele>-0.112</ele>
  <time>2026-09-02T22:07:23Z</time>
  <course>6.96</course>
  <speed>0.7283543093852057</speed>
  <fix>3d</fix>
</trkpt>
<trkpt lat="33.8100712" lon="-118.3941753">
  <ele>-0.112</ele>
  <time>2026-09-02T22:07:23Z</time>
  <course>6.96</course>
  <speed>0.7283543093852057</speed>
  <fix>3d</fix>
</trkpt>
<trkpt lat="33.8100702" lon="-118.3941768">
  <ele>-0.1</ele>
  <time>2026-09-02T22:07:23Z</time>
  <course>43.76</course>
  <speed>0.73</speed>
  <fix>3d</fix>
</trkpt>
<trkpt lat="33.8100712" lon="-118.3941753">
  <ele>-0.112</ele>
  <time>2026-09-02T22:07:23Z</time>
  <course>6.97</course>
  <speed>0.7283543093852057</speed>
  <fix>3d</fix>
</trkpt>
<trkpt lat="33.8100713" lon="-118.3941752">
  <ele>-0.111</ele>
  <time>2026-09-02T22:07:23Z</time>
  <course>6.97</course>
  <speed>0.7283543093852057</speed>
  <fix>3d</fix>
</trkpt>
<trkpt lat="33.8100713" lon="-118.3941752">
  <ele>-0.111</ele>
  <time>2026-09-02T22:07:23Z</time>
  <course>6.97</course>
  <speed>0.7283543093852057</speed>
  <fix>3d</fix>
</trkpt>
<trkpt lat="33.8100714" lon="-118.3941752">
  <ele>-0.111</ele>
  <time>2026-09-02T22:07:23Z</time>
  <course>6.98</course>
  <speed>0.7283543093852057</speed>
  <fix>3d</fix>
</trkpt>
<trkpt lat="33.8100714" lon="-118.3941751">
  <ele>-0.111</ele>
  <time>2026-09-02T22:07:23Z</time>
  <course>6.98</course>
  <speed>0.7283543093852057</speed>
  <fix>3d</fix>
</trkpt>
<trkpt lat="33.8100714" lon="-118.3941751">
  <ele>-0.111</ele>
  <time>2026-09-02T22:07:23Z</time>
  <course>6.98</course>
  <speed>0.7283543093852057</speed>
  <fix>3d</fix>
</trkpt>
<trkpt lat="33.8100715" lon="-118.394175">
  <ele>-0.111</ele>
  <time>2026-09-02T22:07:23Z</time>
  <course>6.98</course>
  <speed>0.7283543093852057</speed>
  <fix>3d</fix>
</trkpt>
<trkpt lat="33.8100715" lon="-118.394175">
  <ele>-0.111</ele>
  <time>2026-09-02T22:07:23Z</time>
  <course>6.99</course>
  <speed>0.7283543093852057</speed>
  <fix>3d</fix>
</trkpt>
<trkpt lat="33.8100716" lon="-118.3941749">
  <ele>-0.111</ele>
  <time>2026-09-02T22:07:23Z</time>
  <course>6.99</course>
  <speed>0.7283543093852057</speed>
  <fix>3d</fix>
</trkpt>
<trkpt lat="33.8100716" lon="-118.3941749">
  <ele>-0.111</ele>
  <time>2026-09-02T22:07:23Z</time>
  <course>6.99</course>
  <speed>0.7283543093852057</speed>
  <fix>3d</fix>
</trkpt>
<trkpt lat="33.8100716" lon="-118.3941749">
  <ele>-0.111</ele>
  <time>2026-09-02T22:07:23Z</time>
  <course>7.0</course>
  <speed>0.7283543093852057</speed>
  <fix>3d</fix>
</trkpt>
<trkpt lat="33.8100717" lon="-118.3941748">
  <ele>-0.111</ele>
  <time>2026-09-02T22:07:23Z</time>
  <course>7.0</course>
  <speed>0.7283543093852057</speed>
  <fix>3d</fix>
</trkpt>
<trkpt lat="33.8100717" lon="-118.3941748">
  <ele>-0.111</ele>
  <time>2026-09-02T22:07:23Z</time>
  <course>7.0</course>
  <speed>0.7283543093852057</speed>
  <fix>3d</fix>
</trkpt>
<trkpt lat="33.8100711" lon="-118.3941757">
  <ele>-0.11</ele>
  <time>2026-09-02T22:07:23Z</time>
  <course>43.83</course>
  <speed>0.73</speed>
  <fix>3d</fix>
</trkpt>
<trkpt lat="33.8100717" lon="-118.3941748">
  <ele>-0.111</ele>
  <time>2026-09-02T22:07:23Z</time>
  <course>7.0</course>
  <speed>0.7283543093852057</speed>
  <fix>3d</fix>
</trkpt>
<trkpt lat="33.8100718" lon="-118.3941747">
  <ele>-0.111</ele>
  <time>2026-09-02T22:07:23Z</time>
  <course>7.01</course>
  <speed>0.7283543093852057</speed>
  <fix>3d</fix>
</trkpt>
<trkpt lat="33.8100718" lon="-118.3941746">
  <ele>-0.111</ele>
  <time>2026-09-02T22:07:23Z</time>
  <course>7.01</course>
  <speed>0.7283543093852057</speed>
  <fix>3d</fix>
</trkpt>
<trkpt lat="33.8100719" lon="-118.3941746">
  <ele>-0.111</ele>
  <time>2026-09-02T22:07:23Z</time>
  <course>7.01</course>
  <speed>0.7213875518748573</speed>
  <fix>3d</fix>
</trkpt>
<trkpt lat="33.8100719" lon="-118.3941745">
  <ele>-0.111</ele>
  <time>2026-09-02T22:07:23Z</time>
  <course>7.02</course>
  <speed>0.7213875518748573</speed>
  <fix>3d</fix>
</trkpt>
<trkpt lat="33.8100719" lon="-118.3941745">
  <ele>-0.111</ele>
  <time>2026-09-02T22:07:23Z</time>
  <course>7.02</course>
  <speed>0.7213875518748573</speed>
  <fix>3d</fix>
</trkpt>
<trkpt lat="33.810072" lon="-118.3941744">
  <ele>-0.111</ele>
  <time>2026-09-02T22:07:23Z</time>
  <course>7.02</course>
  <speed>0.7213875518748573</speed>
  <fix>3d</fix>
</trkpt>
<trkpt lat="33.810072" lon="-118.3941744">
  <ele>-0.111</ele>
  <time>2026-09-02T22:07:23Z</time>
  <course>7.02</course>
  <speed>0.7286288492778747</speed>
  <fix>3d</fix>
</trkpt>
<trkpt lat="33.810072" lon="-118.3941744">
  <ele>-0.111</ele>
  <time>2026-09-02T22:07:23Z</time>
  <course>7.03</course>
  <speed>0.7286288492778747</speed>
  <fix>3d</fix>
</trkpt>
<trkpt lat="33.8100721" lon="-118.3941743">
  <ele>-0.111</ele>
  <time>2026-09-02T22:07:23Z</time>
  <course>7.03</course>
  <speed>0.7286288492778747</speed>
  <fix>3d</fix>
</trkpt>
<trkpt lat="33.8100721" lon="-118.3941743">
  <ele>-0.111</ele>
  <time>2026-09-02T22:07:23Z</time>
  <course>7.03</course>
  <speed>0.7286288492778747</speed>
  <fix>3d</fix>
</trkpt>
<trkpt lat="33.8100721" lon="-118.3941742">
  <ele>-0.111</ele>
  <time>2026-09-02T22:07:23Z</time>
  <course>7.04</course>
  <speed>0.7286288492778747</speed>
  <fix>3d</fix>
</trkpt>
<trkpt lat="33.8100722" lon="-118.3941742">
  <ele>-0.111</ele>
  <time>2026-09-02T22:07:23Z</time>
  <course>7.04</course>
  <speed>0.7286288492778747</speed>
  <fix>3d</fix>
</trkpt>
<trkpt lat="33.8100711" lon="-118.3941757">
  <ele>-0.11</ele>
  <time>2026-09-02T22:07:23Z</time>
  <course>43.83</course>
  <speed>0.73</speed>
  <fix>3d</fix>
</trkpt>
<trkpt lat="33.8100722" lon="-118.3941742">
  <ele>-0.111</ele>
  <time>2026-09-02T22:07:23Z</time>
  <course>7.04</course>
  <speed>0.7286288492778747</speed>
  <fix>3d</fix>
</trkpt>
<trkpt lat="33.8100722" lon="-118.3941741">
  <ele>-0.111</ele>
  <time>2026-09-02T22:07:23Z</time>
  <course>7.04</course>
  <speed>0.7286288492778747</speed>
  <fix>3d</fix>
</trkpt>
<trkpt lat="33.8100723" lon="-118.3941741">
  <ele>-0.11</ele>
  <time>2026-09-02T22:07:23Z</time>
  <course>7.05</course>
  <speed>0.7286288492778747</speed>
  <fix>3d</fix>
</trkpt>
<trkpt lat="33.8100723" lon="-118.394174">
  <ele>-0.11</ele>
  <time>2026-09-02T22:07:23Z</time>
  <course>7.05</course>
  <speed>0.7286288492778747</speed>
  <fix>3d</fix>
</trkpt>
<trkpt lat="33.8100724" lon="-118.394174">
  <ele>-0.11</ele>
  <time>2026-09-02T22:07:23Z</time>
  <course>7.05</course>
  <speed>0.7286288492778747</speed>
  <fix>3d</fix>
</trkpt>
<trkpt lat="33.8100724" lon="-118.3941739">
  <ele>-0.11</ele>
  <time>2026-09-02T22:07:23Z</time>
  <course>7.06</course>
  <speed>0.7286288492778747</speed>
  <fix>3d</fix>
</trkpt>
<trkpt lat="33.8100724" lon="-118.3941739">
  <ele>-0.11</ele>
  <time>2026-09-02T22:07:23Z</time>
  <course>7.06</course>
  <speed>0.7286288492778747</speed>
  <fix>3d</fix>
</trkpt>
<trkpt lat="33.8100725" lon="-118.3941738">
  <ele>-0.11</ele>
  <time>2026-09-02T22:07:23Z</time>
  <course>7.06</course>
  <speed>0.7286288492778747</speed>
  <fix>3d</fix>
</trkpt>
<trkpt lat="33.8100725" lon="-118.3941738">
  <ele>-0.11</ele>
  <time>2026-09-02T22:07:23Z</time>
  <course>7.06</course>
  <speed>0.7286288492778747</speed>
  <fix>3d</fix>
</trkpt>
<trkpt lat="33.8100726" lon="-118.3941737">
  <ele>-0.11</ele>
  <time>2026-09-02T22:07:23Z</time>
  <course>7.07</course>
  <speed>0.7286288492778747</speed>
  <fix>3d</fix>
</trkpt>
<trkpt lat="33.8100726" lon="-118.3941737">
  <ele>-0.11</ele>
  <time>2026-09-02T22:07:23Z</time>
  <course>7.07</course>
  <speed>0.7286288492778747</speed>
  <fix>3d</fix>
</trkpt>
<trkpt lat="33.8100726" lon="-118.3941737">
  <ele>-0.109</ele>
  <time>2026-09-02T22:07:23Z</time>
  <course>7.07</course>
  <speed>0.7286288492778747</speed>
  <fix>3d</fix>
</trkpt>
<trkpt lat="33.8100721" lon="-118.3941746">
  <ele>-0.1</ele>
  <time>2026-09-02T22:07:23Z</time>
  <course>43.9</course>
  <speed>0.73</speed>
  <fix>3d</fix>
</trkpt>
<trkpt lat="33.8100726" lon="-118.3941736">
  <ele>-0.109</ele>
  <time>2026-09-02T22:07:23Z</time>
  <course>7.07</course>
  <speed>0.7286288492778747</speed>
  <fix>3d</fix>
</trkpt>
<trkpt lat="33.8100727" lon="-118.3941736">
  <ele>-0.109</ele>
  <time>2026-09-02T22:07:23Z</time>
  <course>7.08</course>
  <speed>0.7286288492778747</speed>
  <fix>3d</fix>
</trkpt>
<trkpt lat="33.8100728" lon="-118.3941735">
  <ele>-0.109</ele>
  <time>2026-09-02T22:07:23Z</time>
  <course>7.08</course>
  <speed>0.7286288492778747</speed>
  <fix>3d</fix>
</trkpt>
<trkpt lat="33.8100728" lon="-118.3941734">
  <ele>-0.109</ele>
  <time>2026-09-02T22:07:23Z</time>
  <course>7.09</course>
  <speed>0.7286288492778747</speed>
  <fix>3d</fix>
</trkpt>
<trkpt lat="33.8100729" lon="-118.3941734">
  <ele>-0.109</ele>
  <time>2026-09-02T22:07:23Z</time>
  <course>7.09</course>
  <speed>0.7286288492778747</speed>
  <fix>3d</fix>
</trkpt>
<trkpt lat="33.8100729" lon="-118.3941734">
  <ele>-0.109</ele>
  <time>2026-09-02T22:07:23Z</time>
  <course>7.09</course>
  <speed>0.7286288492778747</speed>
  <fix>3d</fix>
</trkpt>
<trkpt lat="33.8100729" lon="-118.3941733">
  <ele>-0.109</ele>
  <time>2026-09-02T22:07:23Z</time>
  <course>7.09</course>
  <speed>0.7286288492778747</speed>
  <fix>3d</fix>
</trkpt>
<trkpt lat="33.810073" lon="-118.3941733">
  <ele>-0.108</ele>
  <time>2026-09-02T22:07:23Z</time>
  <course>7.1</course>
  <speed>0.7286288492778747</speed>
  <fix>3d</fix>
</trkpt>
<trkpt lat="33.810073" lon="-118.3941732">
  <ele>-0.108</ele>
  <time>2026-09-02T22:07:23Z</time>
  <course>7.1</course>
  <speed>0.7286288492778747</speed>
  <fix>3d</fix>
</trkpt>
<trkpt lat="33.810073" lon="-118.3941732">
  <ele>-0.108</ele>
  <time>2026-09-02T22:07:23Z</time>
  <course>7.1</course>
  <speed>0.7286288492778747</speed>
  <fix>3d</fix>
</trkpt>
<trkpt lat="33.8100731" lon="-118.3941731">
  <ele>-0.108</ele>
  <time>2026-09-02T22:07:23Z</time>
  <course>7.1</course>
  <speed>0.7286288492778747</speed>
  <fix>3d</fix>
</trkpt>
<trkpt lat="33.8100731" lon="-118.3941731">
  <ele>-0.108</ele>
  <time>2026-09-02T22:07:23Z</time>
  <course>7.11</course>
  <speed>0.7286288492778747</speed>
  <fix>3d</fix>
</trkpt>
<trkpt lat="33.8100721" lon="-118.3941746">
  <ele>-0.1</ele>
  <time>2026-09-02T22:07:23Z</time>
  <course>43.9</course>
  <speed>0.73</speed>
  <fix>3d</fix>
</trkpt>
<trkpt lat="33.8100731" lon="-118.3941731">
  <ele>-0.108</ele>
  <time>2026-09-02T22:07:23Z</time>
  <course>7.11</course>
  <speed>0.7286288492778747</speed>
  <fix>3d</fix>
</trkpt>
<trkpt lat="33.8100732" lon="-118.394173">
  <ele>-0.108</ele>
  <time>2026-09-02T22:07:23Z</time>
  <course>7.11</course>
  <speed>0.7286288492778747</speed>
  <fix>3d</fix>
</trkpt>
<trkpt lat="33.8100732" lon="-118.394173">
  <ele>-0.108</ele>
  <time>2026-09-02T22:07:23Z</time>
  <course>7.11</course>
  <speed>0.7286288492778747</speed>
  <fix>3d</fix>
</trkpt>
<trkpt lat="33.8100732" lon="-118.3941729">
  <ele>-0.108</ele>
  <time>2026-09-02T22:07:23Z</time>
  <course>7.12</course>
  <speed>0.7286288492778747</speed>
  <fix>3d</fix>
</trkpt>
<trkpt lat="33.8100733" lon="-118.3941729">
  <ele>-0.108</ele>
  <time>2026-09-02T22:07:23Z</time>
  <course>7.12</course>
  <speed>0.7286288492778747</speed>
  <fix>3d</fix>
</trkpt>
<trkpt lat="33.8100733" lon="-118.3941728">
  <ele>-0.108</ele>
  <time>2026-09-02T22:07:23Z</time>
  <course>7.12</course>
  <speed>0.7286288492778747</speed>
  <fix>3d</fix>
</trkpt>
<trkpt lat="33.8100734" lon="-118.3941728">
  <ele>-0.108</ele>
  <time>2026-09-02T22:07:23Z</time>
  <course>7.12</course>
  <speed>0.7286288492778747</speed>
  <fix>3d</fix>
</trkpt>
<trkpt lat="33.8100734" lon="-118.3941727">
  <ele>-0.108</ele>
  <time>2026-09-02T22:07:23Z</time>
  <course>7.13</course>
  <speed>0.7286288492778747</speed>
  <fix>3d</fix>
</trkpt>
<trkpt lat="33.8100735" lon="-118.3941727">
  <ele>-0.108</ele>
  <time>2026-09-02T22:07:23Z</time>
  <course>7.13</course>
  <speed>0.7286288492778747</speed>
  <fix>3d</fix>
</trkpt>
<trkpt lat="33.8100735" lon="-118.3941726">
  <ele>-0.108</ele>
  <time>2026-09-02T22:07:23Z</time>
  <course>7.13</course>
  <speed>0.7286288492778747</speed>
  <fix>3d</fix>
</trkpt>
<trkpt lat="33.8100736" lon="-118.3941726">
  <ele>-0.108</ele>
  <time>2026-09-02T22:07:23Z</time>
  <course>7.14</course>
  <speed>0.7286288492778747</speed>
  <fix>3d</fix>
</trkpt>
<trkpt lat="33.8100736" lon="-118.3941725">
  <ele>-0.108</ele>
  <time>2026-09-02T22:07:23Z</time>
  <course>7.14</course>
  <speed>0.7286288492778747</speed>
  <fix>3d</fix>
</trkpt>
<trkpt lat="33.810073" lon="-118.3941735">
  <ele>-0.1</ele>
  <time>2026-09-02T22:07:23Z</time>
  <course>43.97</course>
  <speed>0.73</speed>
  <fix>3d</fix>
</trkpt>
<trkpt lat="33.8100736" lon="-118.3941725">
  <ele>-0.108</ele>
  <time>2026-09-02T22:07:23Z</time>
  <course>7.14</course>
  <speed>0.7286288492778747</speed>
  <fix>3d</fix>
</trkpt>
<trkpt lat="33.8100736" lon="-118.3941724">
  <ele>-0.108</ele>
  <time>2026-09-02T22:07:23Z</time>
  <course>7.14</course>
  <speed>0.7286288492778747</speed>
  <fix>3d</fix>
</trkpt>
<trkpt lat="33.8100737" lon="-118.3941724">
  <ele>-0.108</ele>
  <time>2026-09-02T22:07:23Z</time>
  <course>7.15</course>
  <speed>0.7286288492778747</speed>
  <fix>3d</fix>
</trkpt>
<trkpt lat="33.8100737" lon="-118.3941724">
  <ele>-0.108</ele>
  <time>2026-09-02T22:07:23Z</time>
  <course>7.15</course>
  <speed>0.7286288492778747</speed>
  <fix>3d</fix>
</trkpt>
<trkpt lat="33.8100738" lon="-118.3941723">
  <ele>-0.108</ele>
  <time>2026-09-02T22:07:23Z</time>
  <course>7.15</course>
  <speed>0.7286288492778747</speed>
  <fix>3d</fix>
</trkpt>
<trkpt lat="33.8100738" lon="-118.3941723">
  <ele>-0.108</ele>
  <time>2026-09-02T22:07:23Z</time>
  <course>7.16</course>
  <speed>0.7286288492778747</speed>
  <fix>3d</fix>
</trkpt>
<trkpt lat="33.8100738" lon="-118.3941722">
  <ele>-0.108</ele>
  <time>2026-09-02T22:07:23Z</time>
  <course>7.16</course>
  <speed>0.7286288492778747</speed>
  <fix>3d</fix>
</trkpt>
<trkpt lat="33.8100739" lon="-118.3941722">
  <ele>-0.108</ele>
  <time>2026-09-02T22:07:23Z</time>
  <course>7.16</course>
  <speed>0.7286288492778747</speed>
  <fix>3d</fix>
</trkpt>
<trkpt lat="33.8100739" lon="-118.3941721">
  <ele>-0.108</ele>
  <time>2026-09-02T22:07:23Z</time>
  <course>7.16</course>
  <speed>0.7286288492778747</speed>
  <fix>3d</fix>
</trkpt>
<trkpt lat="33.810074" lon="-118.3941721">
  <ele>-0.108</ele>
  <time>2026-09-02T22:07:23Z</time>
  <course>7.17</course>
  <speed>0.7286288492778747</speed>
  <fix>3d</fix>
</trkpt>
<trkpt lat="33.810074" lon="-118.394172">
  <ele>-0.108</ele>
  <time>2026-09-02T22:07:23Z</time>
  <course>7.17</course>
  <speed>0.7286288492778747</speed>
  <fix>3d</fix>
</trkpt>
<trkpt lat="33.810074" lon="-118.394172">
  <ele>-0.109</ele>
  <time>2026-09-02T22:07:23Z</time>
  <course>7.17</course>
  <speed>0.7286288492778747</speed>
  <fix>3d</fix>
</trkpt>
<trkpt lat="33.810074" lon="-118.394172">
  <ele>-0.109</ele>
  <time>2026-09-02T22:07:23Z</time>
  <course>7.17</course>
  <speed>0.7286288492778747</speed>
  <fix>3d</fix>
</trkpt>
<trkpt lat="33.810073" lon="-118.3941735">
  <ele>-0.1</ele>
  <time>2026-09-02T22:07:23Z</time>
  <course>43.97</course>
  <speed>0.73</speed>
  <fix>3d</fix>
</trkpt>
<trkpt lat="33.810074" lon="-118.394172">
  <ele>-0.109</ele>
  <time>2026-09-02T22:07:23Z</time>
  <course>7.17</course>
  <speed>0.7286288492778747</speed>
  <fix>3d</fix>
</trkpt>
<trkpt lat="33.8100741" lon="-118.3941719">
  <ele>-0.109</ele>
  <time>2026-09-02T22:07:23Z</time>
  <course>7.18</course>
  <speed>0.7286288492778747</speed>
  <fix>3d</fix>
</trkpt>
<trkpt lat="33.8100742" lon="-118.3941718">
  <ele>-0.109</ele>
  <time>2026-09-02T22:07:23Z</time>
  <course>7.18</course>
  <speed>0.7286288492778747</speed>
  <fix>3d</fix>
</trkpt>
<trkpt lat="33.8100742" lon="-118.3941718">
  <ele>-0.109</ele>
  <time>2026-09-02T22:07:23Z</time>
  <course>7.18</course>
  <speed>0.7286288492778747</speed>
  <fix>3d</fix>
</trkpt>
<trkpt lat="33.8100742" lon="-118.3941717">
  <ele>-0.109</ele>
  <time>2026-09-02T22:07:23Z</time>
  <course>7.19</course>
  <speed>0.7286288492778747</speed>
  <fix>3d</fix>
</trkpt>
<trkpt lat="33.8100743" lon="-118.3941717">
  <ele>-0.109</ele>
  <time>2026-09-02T22:07:23Z</time>
  <course>7.19</course>
  <speed>0.7286288492778747</speed>
  <fix>3d</fix>
</trkpt>
<trkpt lat="33.8100743" lon="-118.3941717">
  <ele>-0.109</ele>
  <time>2026-09-02T22:07:23Z</time>
  <course>7.19</course>
  <speed>0.7286288492778747</speed>
  <fix>3d</fix>
</trkpt>
<trkpt lat="33.8100743" lon="-118.3941716">
  <ele>-0.109</ele>
  <time>2026-09-02T22:07:23Z</time>
  <course>7.19</course>
  <speed>0.7286288492778747</speed>
  <fix>3d</fix>
</trkpt>
<trkpt lat="33.8100744" lon="-118.3941716">
  <ele>-0.109</ele>
  <time>2026-09-02T22:07:23Z</time>
  <course>7.2</course>
  <speed>0.7286288492778747</speed>
  <fix>3d</fix>
</trkpt>
<trkpt lat="33.8100744" lon="-118.3941715">
  <ele>-0.109</ele>
  <time>2026-09-02T22:07:23Z</time>
  <course>7.2</course>
  <speed>0.7286288492778747</speed>
  <fix>3d</fix>
</trkpt>
<trkpt lat="33.8100745" lon="-118.3941715">
  <ele>-0.109</ele>
  <time>2026-09-02T22:07:23Z</time>
  <course>7.2</course>
  <speed>0.7286288492778747</speed>
  <fix>3d</fix>
</trkpt>
<trkpt lat="33.8100745" lon="-118.3941714">
  <ele>-0.109</ele>
  <time>2026-09-02T22:07:23Z</time>
  <course>7.2</course>
  <speed>0.7286288492778747</speed>
  <fix>3d</fix>
</trkpt>
<trkpt lat="33.8100745" lon="-118.3941714">
  <ele>-0.109</ele>
  <time>2026-09-02T22:07:23Z</time>
  <course>7.21</course>
  <speed>0.7286288492778747</speed>
  <fix>3d</fix>
</trkpt>
<trkpt lat="33.810074" lon="-118.3941724">
  <ele>-0.1</ele>
  <time>2026-09-02T22:07:23Z</time>
  <course>44.03</course>
  <speed>0.73</speed>
  <fix>3d</fix>
</trkpt>
<trkpt lat="33.8100745" lon="-118.3941714">
  <ele>-0.109</ele>
  <time>2026-09-02T22:07:23Z</time>
  <course>7.21</course>
  <speed>0.7286288492778747</speed>
  <fix>3d</fix>
</trkpt>
<trkpt lat="33.8100746" lon="-118.3941713">
  <ele>-0.109</ele>
  <time>2026-09-02T22:07:23Z</time>
  <course>7.21</course>
  <speed>0.7286288492778747</speed>
  <fix>3d</fix>
</trkpt>
<trkpt lat="33.8100746" lon="-118.3941713">
  <ele>-0.109</ele>
  <time>2026-09-02T22:07:23Z</time>
  <course>7.21</course>
  <speed>0.7286288492778747</speed>
  <fix>3d</fix>
</trkpt>
<trkpt lat="33.8100747" lon="-118.3941712">
  <ele>-0.109</ele>
  <time>2026-09-02T22:07:23Z</time>
  <course>7.22</course>
  <speed>0.7286288492778747</speed>
  <fix>3d</fix>
</trkpt>
<trkpt lat="33.8100747" lon="-118.3941712">
  <ele>-0.109</ele>
  <time>2026-09-02T22:07:23Z</time>
  <course>7.22</course>
  <speed>0.7286288492778747</speed>
  <fix>3d</fix>
</trkpt>
<trkpt lat="33.8100747" lon="-118.3941711">
  <ele>-0.109</ele>
  <time>2026-09-02T22:07:23Z</time>
  <course>7.22</course>
  <speed>0.7286288492778747</speed>
  <fix>3d</fix>
</trkpt>
<trkpt lat="33.8100748" lon="-118.3941711">
  <ele>-0.109</ele>
  <time>2026-09-02T22:07:23Z</time>
  <course>7.22</course>
  <speed>0.7286288492778747</speed>
  <fix>3d</fix>
</trkpt>
<trkpt lat="33.8100748" lon="-118.3941711">
  <ele>-0.109</ele>
  <time>2026-09-02T22:07:23Z</time>
  <course>7.23</course>
  <speed>0.7286288492778747</speed>
  <fix>3d</fix>
</trkpt>
<trkpt lat="33.8100749" lon="-118.394171">
  <ele>-0.109</ele>
  <time>2026-09-02T22:07:23Z</time>
  <course>7.23</course>
  <speed>0.7286288492778747</speed>
  <fix>3d</fix>
</trkpt>
<trkpt lat="33.8100749" lon="-118.394171">
  <ele>-0.109</ele>
  <time>2026-09-02T22:07:23Z</time>
  <course>7.23</course>
  <speed>0.7286288492778747</speed>
  <fix>3d</fix>
</trkpt>
<trkpt lat="33.8100749" lon="-118.3941709">
  <ele>-0.109</ele>
  <time>2026-09-02T22:07:23Z</time>
  <course>7.24</course>
  <speed>0.7286288492778747</speed>
  <fix>3d</fix>
</trkpt>
<trkpt lat="33.810075" lon="-118.3941709">
  <ele>-0.109</ele>
  <time>2026-09-02T22:07:23Z</time>
  <course>7.24</course>
  <speed>0.7286288492778747</speed>
  <fix>3d</fix>
</trkpt>
<trkpt lat="33.810075" lon="-118.3941709">
  <ele>-0.109</ele>
  <time>2026-09-02T22:07:23Z</time>
  <course>7.24</course>
  <speed>0.7286288492778747</speed>
  <fix>3d</fix>
</trkpt>
<trkpt lat="33.810074" lon="-118.3941724">
  <ele>-0.1</ele>
  <time>2026-09-02T22:07:23Z</time>
  <course>44.03</course>
  <speed>0.73</speed>
  <fix>3d</fix>
</trkpt>
<trkpt lat="33.810075" lon="-118.3941708">
  <ele>-0.109</ele>
  <time>2026-09-02T22:07:23Z</time>
  <course>7.24</course>
  <speed>0.7286288492778747</speed>
  <fix>3d</fix>
</trkpt>
<trkpt lat="33.8100751" lon="-118.3941707">
  <ele>-0.109</ele>
  <time>2026-09-02T22:07:23Z</time>
  <course>7.25</course>
  <speed>0.7286288492778747</speed>
  <fix>3d</fix>
</trkpt>
<trkpt lat="33.8100751" lon="-118.3941707">
  <ele>-0.11</ele>
  <time>2026-09-02T22:07:23Z</time>
  <course>7.25</course>
  <speed>0.7286288492778747</speed>
  <fix>3d</fix>
</trkpt>
<trkpt lat="33.8100752" lon="-118.3941706">
  <ele>-0.11</ele>
  <time>2026-09-02T22:07:23Z</time>
  <course>7.25</course>
  <speed>0.7286288492778747</speed>
  <fix>3d</fix>
</trkpt>
<trkpt lat="33.8100752" lon="-118.3941706">
  <ele>-0.11</ele>
  <time>2026-09-02T22:07:23Z</time>
  <course>7.25</course>
  <speed>0.7286288492778747</speed>
  <fix>3d</fix>
</trkpt>
<trkpt lat="33.8100752" lon="-118.3941705">
  <ele>-0.11</ele>
  <time>2026-09-02T22:07:23Z</time>
  <course>7.26</course>
  <speed>0.7286288492778747</speed>
  <fix>3d</fix>
</trkpt>
<trkpt lat="33.8100753" lon="-118.3941705">
  <ele>-0.11</ele>
  <time>2026-09-02T22:07:23Z</time>
  <course>7.26</course>
  <speed>0.7286288492778747</speed>
  <fix>3d</fix>
</trkpt>
<trkpt lat="33.8100753" lon="-118.3941705">
  <ele>-0.11</ele>
  <time>2026-09-02T22:07:23Z</time>
  <course>7.26</course>
  <speed>0.7286288492778747</speed>
  <fix>3d</fix>
</trkpt>
<trkpt lat="33.8100753" lon="-118.3941704">
  <ele>-0.11</ele>
  <time>2026-09-02T22:07:23Z</time>
  <course>7.26</course>
  <speed>0.7286288492778747</speed>
  <fix>3d</fix>
</trkpt>
<trkpt lat="33.8100754" lon="-118.3941704">
  <ele>-0.11</ele>
  <time>2026-09-02T22:07:23Z</time>
  <course>7.27</course>
  <speed>0.7286288492778747</speed>
  <fix>3d</fix>
</trkpt>
<trkpt lat="33.8100754" lon="-118.3941703">
  <ele>-0.11</ele>
  <time>2026-09-02T22:07:23Z</time>
  <course>7.27</course>
  <speed>0.7286288492778747</speed>
  <fix>3d</fix>
</trkpt>
<trkpt lat="33.8100754" lon="-118.3941703">
  <ele>-0.11</ele>
  <time>2026-09-02T22:07:23Z</time>
  <course>7.27</course>
  <speed>0.7286288492778747</speed>
  <fix>3d</fix>
</trkpt>
<trkpt lat="33.8100749" lon="-118.3941713">
  <ele>-0.1</ele>
  <time>2026-09-02T22:07:23Z</time>
  <course>44.1</course>
  <speed>0.73</speed>
  <fix>3d</fix>
</trkpt>
<trkpt lat="33.8100755" lon="-118.3941703">
  <ele>-0.11</ele>
  <time>2026-09-02T22:07:23Z</time>
  <course>7.27</course>
  <speed>0.7286288492778747</speed>
  <fix>3d</fix>
</trkpt>
<trkpt lat="33.8100755" lon="-118.3941702">
  <ele>-0.11</ele>
  <time>2026-09-02T22:07:23Z</time>
  <course>7.27</course>
  <speed>0.7286288492778747</speed>
  <fix>3d</fix>
</trkpt>
<trkpt lat="33.8100756" lon="-118.3941702">
  <ele>-0.11</ele>
  <time>2026-09-02T22:07:23Z</time>
  <course>7.28</course>
  <speed>0.7286288492778747</speed>
  <fix>3d</fix>
</trkpt>
<trkpt lat="33.8100756" lon="-118.3941701">
  <ele>-0.11</ele>
  <time>2026-09-02T22:07:23Z</time>
  <course>7.28</course>
  <speed>0.7286288492778747</speed>
  <fix>3d</fix>
</trkpt>
<trkpt lat="33.8100756" lon="-118.3941701">
  <ele>-0.11</ele>
  <time>2026-09-02T22:07:23Z</time>
  <course>7.28</course>
  <speed>0.7286288492778747</speed>
  <fix>3d</fix>
</trkpt>
<trkpt lat="33.8100757" lon="-118.39417">
  <ele>-0.11</ele>
  <time>2026-09-02T22:07:23Z</time>
  <course>7.29</course>
  <speed>0.7286288492778747</speed>
  <fix>3d</fix>
</trkpt>
<trkpt lat="33.8100757" lon="-118.39417">
  <ele>-0.11</ele>
  <time>2026-09-02T22:07:23Z</time>
  <course>7.29</course>
  <speed>0.7286288492778747</speed>
  <fix>3d</fix>
</trkpt>
<trkpt lat="33.8100758" lon="-118.3941699">
  <ele>-0.11</ele>
  <time>2026-09-02T22:07:23Z</time>
  <course>7.29</course>
  <speed>0.7286288492778747</speed>
  <fix>3d</fix>
</trkpt>
<trkpt lat="33.8100758" lon="-118.3941699">
  <ele>-0.109</ele>
  <time>2026-09-02T22:07:23Z</time>
  <course>7.29</course>
  <speed>0.7286288492778747</speed>
  <fix>3d</fix>
</trkpt>
<trkpt lat="33.8100758" lon="-118.3941699">
  <ele>-0.109</ele>
  <time>2026-09-02T22:07:23Z</time>
  <course>7.3</course>
  <speed>0.7286288492778747</speed>
  <fix>3d</fix>
</trkpt>
<trkpt lat="33.8100759" lon="-118.3941698">
  <ele>-0.109</ele>
  <time>2026-09-02T22:07:23Z</time>
  <course>7.3</course>
  <speed>0.7286288492778747</speed>
  <fix>3d</fix>
</trkpt>
<trkpt lat="33.8100759" lon="-118.3941698">
  <ele>-0.109</ele>
  <time>2026-09-02T22:07:23Z</time>
  <course>7.3</course>
  <speed>0.7286288492778747</speed>
  <fix>3d</fix>
</trkpt>
<trkpt lat="33.8100759" lon="-118.3941698">
  <ele>-0.109</ele>
  <time>2026-09-02T22:07:23Z</time>
  <course>7.3</course>
  <speed>0.7286288492778747</speed>
  <fix>3d</fix>
</trkpt>
<trkpt lat="33.8100749" lon="-118.3941713">
  <ele>-0.1</ele>
  <time>2026-09-02T22:07:23Z</time>
  <course>44.1</course>
  <speed>0.73</speed>
  <fix>3d</fix>
</trkpt>
<trkpt lat="33.810076" lon="-118.3941697">
  <ele>-0.109</ele>
  <time>2026-09-02T22:07:23Z</time>
  <course>7.31</course>
  <speed>0.7286288492778747</speed>
  <fix>3d</fix>
</trkpt>
<trkpt lat="33.810076" lon="-118.3941696">
  <ele>-0.109</ele>
  <time>2026-09-02T22:07:23Z</time>
  <course>7.31</course>
  <speed>0.7286288492778747</speed>
  <fix>3d</fix>
</trkpt>
<trkpt lat="33.8100761" lon="-118.3941696">
  <ele>-0.109</ele>
  <time>2026-09-02T22:07:23Z</time>
  <course>7.31</course>
  <speed>0.7286288492778747</speed>
  <fix>3d</fix>
</trkpt>
<trkpt lat="33.8100761" lon="-118.3941695">
  <ele>-0.109</ele>
  <time>2026-09-02T22:07:23Z</time>
  <course>7.32</course>
  <speed>0.7286288492778747</speed>
  <fix>3d</fix>
</trkpt>
<trkpt lat="33.8100763" lon="-118.3941693">
  <ele>-0.109</ele>
  <time>2026-09-02T22:07:23Z</time>
  <course>7.32</course>
  <speed>0.7286288492778747</speed>
  <fix>3d</fix>
</trkpt>
<trkpt lat="33.8100763" lon="-118.3941693">
  <ele>-0.109</ele>
  <time>2026-09-02T22:07:23Z</time>
  <course>7.33</course>
  <speed>0.7286288492778747</speed>
  <fix>3d</fix>
</trkpt>
<trkpt lat="33.8100764" lon="-118.3941692">
  <ele>-0.108</ele>
  <time>2026-09-02T22:07:23Z</time>
  <course>7.33</course>
  <speed>0.7286288492778747</speed>
  <fix>3d</fix>
</trkpt>
<trkpt lat="33.8100764" lon="-118.3941692">
  <ele>-0.108</ele>
  <time>2026-09-02T22:07:23Z</time>
  <course>7.33</course>
  <speed>0.7286288492778747</speed>
  <fix>3d</fix>
</trkpt>
<trkpt lat="33.8100759" lon="-118.3941702">
  <ele>-0.11</ele>
  <time>2026-09-02T22:07:23Z</time>
  <course>44.16</course>
  <speed>0.73</speed>
  <fix>3d</fix>
</trkpt>
<trkpt lat="33.8100764" lon="-118.3941692">
  <ele>-0.108</ele>
  <time>2026-09-02T22:07:23Z</time>
  <course>7.33</course>
  <speed>0.7286288492778747</speed>
  <fix>3d</fix>
</trkpt>
<trkpt lat="33.8100765" lon="-118.3941691">
  <ele>-0.108</ele>
  <time>2026-09-02T22:07:23Z</time>
  <course>7.34</course>
  <speed>0.7286288492778747</speed>
  <fix>3d</fix>
</trkpt>
<trkpt lat="33.8100765" lon="-118.3941691">
  <ele>-0.108</ele>
  <time>2026-09-02T22:07:23Z</time>
  <course>7.34</course>
  <speed>0.7286288492778747</speed>
  <fix>3d</fix>
</trkpt>
<trkpt lat="33.8100765" lon="-118.394169">
  <ele>-0.108</ele>
  <time>2026-09-02T22:07:23Z</time>
  <course>7.34</course>
  <speed>0.7286288492778747</speed>
  <fix>3d</fix>
</trkpt>
<trkpt lat="33.8100766" lon="-118.3941689">
  <ele>-0.108</ele>
  <time>2026-09-02T22:07:23Z</time>
  <course>7.35</course>
  <speed>0.7286288492778747</speed>
  <fix>3d</fix>
</trkpt>
<trkpt lat="33.8100766" lon="-118.3941689">
  <ele>-0.108</ele>
  <time>2026-09-02T22:07:23Z</time>
  <course>7.35</course>
  <speed>0.7286288492778747</speed>
  <fix>3d</fix>
</trkpt>
<trkpt lat="33.8100767" lon="-118.3941688">
  <ele>-0.108</ele>
  <time>2026-09-02T22:07:23Z</time>
  <course>7.35</course>
  <speed>0.7286288492778747</speed>
  <fix>3d</fix>
</trkpt>
<trkpt lat="33.8100767" lon="-118.3941688">
  <ele>-0.108</ele>
  <time>2026-09-02T22:07:23Z</time>
  <course>7.35</course>
  <speed>0.7286288492778747</speed>
  <fix>3d</fix>
</trkpt>
<trkpt lat="33.8100768" lon="-118.3941687">
  <ele>-0.108</ele>
  <time>2026-09-02T22:07:23Z</time>
  <course>7.36</course>
  <speed>0.7286288492778747</speed>
  <fix>3d</fix>
</trkpt>
<trkpt lat="33.8100768" lon="-118.3941687">
  <ele>-0.108</ele>
  <time>2026-09-02T22:07:23Z</time>
  <course>7.36</course>
  <speed>0.7286288492778747</speed>
  <fix>3d</fix>
</trkpt>
<trkpt lat="33.8100768" lon="-118.3941687">
  <ele>-0.108</ele>
  <time>2026-09-02T22:07:23Z</time>
  <course>7.36</course>
  <speed>0.7286288492778747</speed>
  <fix>3d</fix>
</trkpt>
<trkpt lat="33.8100769" lon="-118.3941686">
  <ele>-0.108</ele>
  <time>2026-09-02T22:07:23Z</time>
  <course>7.36</course>
  <speed>0.7286288492778747</speed>
  <fix>3d</fix>
</trkpt>
<trkpt lat="33.8100759" lon="-118.3941702">
  <ele>-0.11</ele>
  <time>2026-09-02T22:07:23Z</time>
  <course>44.16</course>
  <speed>0.73</speed>
  <fix>3d</fix>
</trkpt>
<trkpt lat="33.8100769" lon="-118.3941686">
  <ele>-0.108</ele>
  <time>2026-09-02T22:07:23Z</time>
  <course>7.36</course>
  <speed>0.7286288492778747</speed>
  <fix>3d</fix>
</trkpt>
<trkpt lat="33.8100769" lon="-118.3941685">
  <ele>-0.108</ele>
  <time>2026-09-02T22:07:23Z</time>
  <course>7.37</course>
  <speed>0.7286288492778747</speed>
  <fix>3d</fix>
</trkpt>
<trkpt lat="33.810077" lon="-118.3941685">
  <ele>-0.109</ele>
  <time>2026-09-02T22:07:23Z</time>
  <course>7.37</course>
  <speed>0.7286288492778747</speed>
  <fix>3d</fix>
</trkpt>
<trkpt lat="33.810077" lon="-118.3941685">
  <ele>-0.109</ele>
  <time>2026-09-02T22:07:23Z</time>
  <course>7.37</course>
  <speed>0.7286288492778747</speed>
  <fix>3d</fix>
</trkpt>
<trkpt lat="33.810077" lon="-118.3941684">
  <ele>-0.109</ele>
  <time>2026-09-02T22:07:23Z</time>
  <course>7.38</course>
  <speed>0.7286288492778747</speed>
  <fix>3d</fix>
</trkpt>
<trkpt lat="33.8100771" lon="-118.3941684">
  <ele>-0.109</ele>
  <time>2026-09-02T22:07:23Z</time>
  <course>7.38</course>
  <speed>0.7286288492778747</speed>
  <fix>3d</fix>
</trkpt>
<trkpt lat="33.8100771" lon="-118.3941683">
  <ele>-0.109</ele>
  <time>2026-09-02T22:07:23Z</time>
  <course>7.38</course>
  <speed>0.7286288492778747</speed>
  <fix>3d</fix>
</trkpt>
<trkpt lat="33.8100772" lon="-118.3941683">
  <ele>-0.108</ele>
  <time>2026-09-02T22:07:23Z</time>
  <course>7.38</course>
  <speed>0.7286288492778747</speed>
  <fix>3d</fix>
</trkpt>
<trkpt lat="33.8100772" lon="-118.3941682">
  <ele>-0.108</ele>
  <time>2026-09-02T22:07:23Z</time>
  <course>7.38</course>
  <speed>0.7286288492778747</speed>
  <fix>3d</fix>
</trkpt>
<trkpt lat="33.8100772" lon="-118.3941682">
  <ele>-0.108</ele>
  <time>2026-09-02T22:07:23Z</time>
  <course>7.39</course>
  <speed>0.7286288492778747</speed>
  <fix>3d</fix>
</trkpt>
<trkpt lat="33.8100773" lon="-118.3941682">
  <ele>-0.108</ele>
  <time>2026-09-02T22:07:23Z</time>
  <course>7.39</course>
  <speed>0.7286288492778747</speed>
  <fix>3d</fix>
</trkpt>
<trkpt lat="33.8100773" lon="-118.3941681">
  <ele>-0.108</ele>
  <time>2026-09-02T22:07:23Z</time>
  <course>7.39</course>
  <speed>0.7286288492778747</speed>
  <fix>3d</fix>
</trkpt>
<trkpt lat="33.8100773" lon="-118.3941681">
  <ele>-0.108</ele>
  <time>2026-09-02T22:07:23Z</time>
  <course>7.39</course>
  <speed>0.7286288492778747</speed>
  <fix>3d</fix>
</trkpt>
<trkpt lat="33.8100768" lon="-118.3941691">
  <ele>-0.1</ele>
  <time>2026-09-02T22:07:23Z</time>
  <course>44.22</course>
  <speed>0.73</speed>
  <fix>3d</fix>
</trkpt>
<trkpt lat="33.8100773" lon="-118.3941681">
  <ele>-0.108</ele>
  <time>2026-09-02T22:07:23Z</time>
  <course>7.39</course>
  <speed>0.7286288492778747</speed>
  <fix>3d</fix>
</trkpt>
<trkpt lat="33.8100774" lon="-118.394168">
  <ele>-0.108</ele>
  <time>2026-09-02T22:07:23Z</time>
  <course>7.4</course>
  <speed>0.7286288492778747</speed>
  <fix>3d</fix>
</trkpt>
<trkpt lat="33.8100775" lon="-118.3941679">
  <ele>-0.108</ele>
  <time>2026-09-02T22:07:23Z</time>
  <course>7.4</course>
  <speed>0.7286288492778747</speed>
  <fix>3d</fix>
</trkpt>
<trkpt lat="33.8100775" lon="-118.3941679">
  <ele>-0.108</ele>
  <time>2026-09-02T22:07:23Z</time>
  <course>7.41</course>
  <speed>0.7286288492778747</speed>
  <fix>3d</fix>
</trkpt>
<trkpt lat="33.8100775" lon="-118.3941678">
  <ele>-0.108</ele>
  <time>2026-09-02T22:07:23Z</time>
  <course>7.41</course>
  <speed>0.7286288492778747</speed>
  <fix>3d</fix>
</trkpt>
<trkpt lat="33.8100776" lon="-118.3941678">
  <ele>-0.108</ele>
  <time>2026-09-02T22:07:23Z</time>
  <course>7.41</course>
  <speed>0.7286288492778747</speed>
  <fix>3d</fix>
</trkpt>
<trkpt lat="33.8100776" lon="-118.3941677">
  <ele>-0.108</ele>
  <time>2026-09-02T22:07:23Z</time>
  <course>7.41</course>
  <speed>0.7286288492778747</speed>
  <fix>3d</fix>
</trkpt>
<trkpt lat="33.8100777" lon="-118.3941677">
  <ele>-0.108</ele>
  <time>2026-09-02T22:07:23Z</time>
  <course>7.42</course>
  <speed>0.7286288492778747</speed>
  <fix>3d</fix>
</trkpt>
<trkpt lat="33.8100777" lon="-118.3941676">
  <ele>-0.108</ele>
  <time>2026-09-02T22:07:23Z</time>
  <course>7.42</course>
  <speed>0.7286288492778747</speed>
  <fix>3d</fix>
</trkpt>
<trkpt lat="33.8100778" lon="-118.3941676">
  <ele>-0.108</ele>
  <time>2026-09-02T22:07:23Z</time>
  <course>7.42</course>
  <speed>0.7286288492778747</speed>
  <fix>3d</fix>
</trkpt>
<trkpt lat="33.8100778" lon="-118.3941675">
  <ele>-0.108</ele>
  <time>2026-09-02T22:07:23Z</time>
  <course>7.42</course>
  <speed>0.7286288492778747</speed>
  <fix>3d</fix>
</trkpt>
<trkpt lat="33.8100778" lon="-118.3941675">
  <ele>-0.108</ele>
  <time>2026-09-02T22:07:23Z</time>
  <course>7.42</course>
  <speed>0.7286288492778747</speed>
  <fix>3d</fix>
</trkpt>
<trkpt lat="33.8100768" lon="-118.3941691">
  <ele>-0.1</ele>
  <time>2026-09-02T22:07:23Z</time>
  <course>44.22</course>
  <speed>0.73</speed>
  <fix>3d</fix>
</trkpt>
<trkpt lat="33.8100779" lon="-118.3941674">
  <ele>-0.108</ele>
  <time>2026-09-02T22:07:23Z</time>
  <course>7.43</course>
  <speed>0.7218032973047436</speed>
  <fix>3d</fix>
</trkpt>
<trkpt lat="33.8100779" lon="-118.3941674">
  <ele>-0.107</ele>
  <time>2026-09-02T22:07:23Z</time>
  <course>7.43</course>
  <speed>0.7218032973047436</speed>
  <fix>3d</fix>
</trkpt>
<trkpt lat="33.810078" lon="-118.3941673">
  <ele>-0.107</ele>
  <time>2026-09-02T22:07:23Z</time>
  <course>7.43</course>
  <speed>0.7218032973047436</speed>
  <fix>3d</fix>
</trkpt>
<trkpt lat="33.810078" lon="-118.3941673">
  <ele>-0.107</ele>
  <time>2026-09-02T22:07:23Z</time>
  <course>7.44</course>
  <speed>0.7218032973047436</speed>
  <fix>3d</fix>
</trkpt>
<trkpt lat="33.810078" lon="-118.3941672">
  <ele>-0.107</ele>
  <time>2026-09-02T22:07:23Z</time>
  <course>7.44</course>
  <speed>0.7218032973047436</speed>
  <fix>3d</fix>
</trkpt>
<trkpt lat="33.8100781" lon="-118.3941672">
  <ele>-0.107</ele>
  <time>2026-09-02T22:07:23Z</time>
  <course>7.44</course>
  <speed>0.7218032973047436</speed>
  <fix>3d</fix>
</trkpt>
<trkpt lat="33.8100781" lon="-118.3941671">
  <ele>-0.107</ele>
  <time>2026-09-02T22:07:23Z</time>
  <course>7.44</course>
  <speed>0.7218032973047436</speed>
  <fix>3d</fix>
</trkpt>
<trkpt lat="33.8100781" lon="-118.3941671">
  <ele>-0.107</ele>
  <time>2026-09-02T22:07:23Z</time>
  <course>7.45</course>
  <speed>0.7218032973047436</speed>
  <fix>3d</fix>
</trkpt>
<trkpt lat="33.8100782" lon="-118.394167">
  <ele>-0.107</ele>
  <time>2026-09-02T22:07:23Z</time>
  <course>7.45</course>
  <speed>0.7218032973047436</speed>
  <fix>3d</fix>
</trkpt>
<trkpt lat="33.8100782" lon="-118.394167">
  <ele>-0.107</ele>
  <time>2026-09-02T22:07:23Z</time>
  <course>7.45</course>
  <speed>0.7218032973047436</speed>
  <fix>3d</fix>
</trkpt>
<trkpt lat="33.8100783" lon="-118.394167">
  <ele>-0.106</ele>
  <time>2026-09-02T22:07:23Z</time>
  <course>7.45</course>
  <speed>0.7218032973047436</speed>
  <fix>3d</fix>
</trkpt>
<trkpt lat="33.8100783" lon="-118.394167">
  <ele>-0.106</ele>
  <time>2026-09-02T22:07:23Z</time>
  <course>7.45</course>
  <speed>0.7218032973047436</speed>
  <fix>3d</fix>
</trkpt>
<trkpt lat="33.8100778" lon="-118.394168">
  <ele>-0.1</ele>
  <time>2026-09-02T22:07:23Z</time>
  <course>44.28</course>
  <speed>0.73</speed>
  <fix>3d</fix>
</trkpt>
<trkpt lat="33.8100783" lon="-118.3941669">
  <ele>-0.106</ele>
  <time>2026-09-02T22:07:23Z</time>
  <course>7.46</course>
  <speed>0.7218032973047436</speed>
  <fix>3d</fix>
</trkpt>
<trkpt lat="33.8100784" lon="-118.3941668">
  <ele>-0.106</ele>
  <time>2026-09-02T22:07:23Z</time>
  <course>7.46</course>
  <speed>0.7218032973047436</speed>
  <fix>3d</fix>
</trkpt>
<trkpt lat="33.8100784" lon="-118.3941668">
  <ele>-0.106</ele>
  <time>2026-09-02T22:07:23Z</time>
  <course>7.46</course>
  <speed>0.7218032973047436</speed>
  <fix>3d</fix>
</trkpt>
<trkpt lat="33.8100784" lon="-118.3941667">
  <ele>-0.106</ele>
  <time>2026-09-02T22:07:23Z</time>
  <course>7.46</course>
  <speed>0.7218032973047436</speed>
  <fix>3d</fix>
</trkpt>
<trkpt lat="33.8100785" lon="-118.3941667">
  <ele>-0.106</ele>
  <time>2026-09-02T22:07:23Z</time>
  <course>7.47</course>
  <speed>0.7218032973047436</speed>
  <fix>3d</fix>
</trkpt>
<trkpt lat="33.8100785" lon="-118.3941667">
  <ele>-0.106</ele>
  <time>2026-09-02T22:07:23Z</time>
  <course>7.47</course>
  <speed>0.7218032973047436</speed>
  <fix>3d</fix>
</trkpt>
<trkpt lat="33.8100785" lon="-118.3941666">
  <ele>-0.106</ele>
  <time>2026-09-02T22:07:23Z</time>
  <course>7.47</course>
  <speed>0.7218032973047436</speed>
  <fix>3d</fix>
</trkpt>
<trkpt lat="33.8100786" lon="-118.3941666">
  <ele>-0.106</ele>
  <time>2026-09-02T22:07:23Z</time>
  <course>7.47</course>
  <speed>0.7218032973047436</speed>
  <fix>3d</fix>
</trkpt>
<trkpt lat="33.8100786" lon="-118.3941665">
  <ele>-0.106</ele>
  <time>2026-09-02T22:07:23Z</time>
  <course>7.48</course>
  <speed>0.7218032973047436</speed>
  <fix>3d</fix>
</trkpt>
<trkpt lat="33.8100787" lon="-118.3941665">
  <ele>-0.106</ele>
  <time>2026-09-02T22:07:23Z</time>
  <course>7.48</course>
  <speed>0.7218032973047436</speed>
  <fix>3d</fix>
</trkpt>
<trkpt lat="33.8100787" lon="-118.3941664">
  <ele>-0.106</ele>
  <time>2026-09-02T22:07:23Z</time>
  <course>7.48</course>
  <speed>0.7218032973047436</speed>
  <fix>3d</fix>
</trkpt>
<trkpt lat="33.8100787" lon="-118.3941664">
  <ele>-0.106</ele>
  <time>2026-09-02T22:07:23Z</time>
  <course>7.48</course>
  <speed>0.7218032973047436</speed>
  <fix>3d</fix>
</trkpt>
<trkpt lat="33.8100778" lon="-118.394168">
  <ele>-0.1</ele>
  <time>2026-09-02T22:07:23Z</time>
  <course>44.28</course>
  <speed>0.73</speed>
  <fix>3d</fix>
</trkpt>
<trkpt lat="33.8100787" lon="-118.3941664">
  <ele>-0.106</ele>
  <time>2026-09-02T22:07:23Z</time>
  <course>7.48</course>
  <speed>0.7218032973047436</speed>
  <fix>3d</fix>
</trkpt>
<trkpt lat="33.8100788" lon="-118.3941663">
  <ele>-0.106</ele>
  <time>2026-09-02T22:07:23Z</time>
  <course>7.49</course>
  <speed>0.7218032973047436</speed>
  <fix>3d</fix>
</trkpt>
<trkpt lat="33.8100788" lon="-118.3941663">
  <ele>-0.106</ele>
  <time>2026-09-02T22:07:23Z</time>
  <course>7.49</course>
  <speed>0.7218032973047436</speed>
  <fix>3d</fix>
</trkpt>
<trkpt lat="33.8100789" lon="-118.3941662">
  <ele>-0.106</ele>
  <time>2026-09-02T22:07:23Z</time>
  <course>7.49</course>
  <speed>0.7218032973047436</speed>
  <fix>3d</fix>
</trkpt>
<trkpt lat="33.8100789" lon="-118.3941662">
  <ele>-0.106</ele>
  <time>2026-09-02T22:07:23Z</time>
  <course>7.49</course>
  <speed>0.7218032973047436</speed>
  <fix>3d</fix>
</trkpt>
<trkpt lat="33.810079" lon="-118.3941661">
  <ele>-0.106</ele>
  <time>2026-09-02T22:07:23Z</time>
  <course>7.5</course>
  <speed>0.7218032973047436</speed>
  <fix>3d</fix>
</trkpt>
<trkpt lat="33.810079" lon="-118.3941661">
  <ele>-0.106</ele>
  <time>2026-09-02T22:07:23Z</time>
  <course>7.5</course>
  <speed>0.7218032973047436</speed>
  <fix>3d</fix>
</trkpt>
<trkpt lat="33.810079" lon="-118.394166">
  <ele>-0.106</ele>
  <time>2026-09-02T22:07:23Z</time>
  <course>7.5</course>
  <speed>0.7218032973047436</speed>
  <fix>3d</fix>
</trkpt>
<trkpt lat="33.8100791" lon="-118.394166">
  <ele>-0.106</ele>
  <time>2026-09-02T22:07:23Z</time>
  <course>7.5</course>
  <speed>0.7218032973047436</speed>
  <fix>3d</fix>
</trkpt>
<trkpt lat="33.8100791" lon="-118.394166">
  <ele>-0.106</ele>
  <time>2026-09-02T22:07:23Z</time>
  <course>7.51</course>
  <speed>0.7218032973047436</speed>
  <fix>3d</fix>
</trkpt>
<trkpt lat="33.8100791" lon="-118.3941659">
  <ele>-0.106</ele>
  <time>2026-09-02T22:07:23Z</time>
  <course>7.51</course>
  <speed>0.7218032973047436</speed>
  <fix>3d</fix>
</trkpt>
<trkpt lat="33.8100792" lon="-118.3941659">
  <ele>-0.106</ele>
  <time>2026-09-02T22:07:23Z</time>
  <course>7.51</course>
  <speed>0.7218032973047436</speed>
  <fix>3d</fix>
</trkpt>
<trkpt lat="33.8100792" lon="-118.3941659">
  <ele>-0.106</ele>
  <time>2026-09-02T22:07:23Z</time>
  <course>7.51</course>
  <speed>0.7218032973047436</speed>
  <fix>3d</fix>
</trkpt>
<trkpt lat="33.8100787" lon="-118.3941669">
  <ele>-0.1</ele>
  <time>2026-09-02T22:07:23Z</time>
  <course>44.34</course>
  <speed>0.73</speed>
  <fix>3d</fix>
</trkpt>
<trkpt lat="33.8100792" lon="-118.3941658">
  <ele>-0.106</ele>
  <time>2026-09-02T22:07:23Z</time>
  <course>7.51</course>
  <speed>0.7218032973047436</speed>
  <fix>3d</fix>
</trkpt>
<trkpt lat="33.8100793" lon="-118.3941658">
  <ele>-0.106</ele>
  <time>2026-09-02T22:07:23Z</time>
  <course>7.52</course>
  <speed>0.7218032973047436</speed>
  <fix>3d</fix>
</trkpt>
<trkpt lat="33.8100793" lon="-118.3941657">
  <ele>-0.106</ele>
  <time>2026-09-02T22:07:23Z</time>
  <course>7.52</course>
  <speed>0.7218032973047436</speed>
  <fix>3d</fix>
</trkpt>
<trkpt lat="33.8100794" lon="-118.3941657">
  <ele>-0.106</ele>
  <time>2026-09-02T22:07:23Z</time>
  <course>7.52</course>
  <speed>0.7218032973047436</speed>
  <fix>3d</fix>
</trkpt>
<trkpt lat="33.8100794" lon="-118.3941656">
  <ele>-0.106</ele>
  <time>2026-09-02T22:07:23Z</time>
  <course>7.52</course>
  <speed>0.7218032973047436</speed>
  <fix>3d</fix>
</trkpt>
<trkpt lat="33.8100794" lon="-118.3941656">
  <ele>-0.106</ele>
  <time>2026-09-02T22:07:23Z</time>
  <course>7.53</course>
  <speed>0.7218032973047436</speed>
  <fix>3d</fix>
</trkpt>
<trkpt lat="33.8100795" lon="-118.3941655">
  <ele>-0.106</ele>
  <time>2026-09-02T22:07:23Z</time>
  <course>7.53</course>
  <speed>0.7218032973047436</speed>
  <fix>3d</fix>
</trkpt>
<trkpt lat="33.8100795" lon="-118.3941655">
  <ele>-0.106</ele>
  <time>2026-09-02T22:07:23Z</time>
  <course>7.53</course>
  <speed>0.7218032973047436</speed>
  <fix>3d</fix>
</trkpt>
<trkpt lat="33.8100795" lon="-118.3941654">
  <ele>-0.106</ele>
  <time>2026-09-02T22:07:23Z</time>
  <course>7.53</course>
  <speed>0.7218032973047436</speed>
  <fix>3d</fix>
</trkpt>
<trkpt lat="33.8100796" lon="-118.3941654">
  <ele>-0.106</ele>
  <time>2026-09-02T22:07:23Z</time>
  <course>7.53</course>
  <speed>0.7218032973047436</speed>
  <fix>3d</fix>
</trkpt>
<trkpt lat="33.8100796" lon="-118.3941654">
  <ele>-0.106</ele>
  <time>2026-09-02T22:07:23Z</time>
  <course>7.54</course>
  <speed>0.7218032973047436</speed>
  <fix>3d</fix>
</trkpt>
<trkpt lat="33.8100797" lon="-118.3941653">
  <ele>-0.106</ele>
  <time>2026-09-02T22:07:23Z</time>
  <course>7.54</course>
  <speed>0.7218032973047436</speed>
  <fix>3d</fix>
</trkpt>
<trkpt lat="33.8100797" lon="-118.3941653">
  <ele>-0.106</ele>
  <time>2026-09-02T22:07:23Z</time>
  <course>7.54</course>
  <speed>0.7218032973047436</speed>
  <fix>3d</fix>
</trkpt>
<trkpt lat="33.8100787" lon="-118.3941669">
  <ele>-0.1</ele>
  <time>2026-09-02T22:07:23Z</time>
  <course>44.34</course>
  <speed>0.73</speed>
  <fix>3d</fix>
</trkpt>
<trkpt lat="33.8100797" lon="-118.3941652">
  <ele>-0.106</ele>
  <time>2026-09-02T22:07:23Z</time>
  <course>7.54</course>
  <speed>0.7218032973047436</speed>
  <fix>3d</fix>
</trkpt>
<trkpt lat="33.8100798" lon="-118.3941652">
  <ele>-0.106</ele>
  <time>2026-09-02T22:07:23Z</time>
  <course>7.55</course>
  <speed>0.7218032973047436</speed>
  <fix>3d</fix>
</trkpt>
<trkpt lat="33.8100798" lon="-118.3941651">
  <ele>-0.106</ele>
  <time>2026-09-02T22:07:23Z</time>
  <course>7.55</course>
  <speed>0.7218032973047436</speed>
  <fix>3d</fix>
</trkpt>
<trkpt lat="33.8100799" lon="-118.394165">
  <ele>-0.107</ele>
  <time>2026-09-02T22:07:23Z</time>
  <course>7.55</course>
  <speed>0.7218032973047436</speed>
  <fix>3d</fix>
</trkpt>
<trkpt lat="33.8100799" lon="-118.394165">
  <ele>-0.107</ele>
  <time>2026-09-02T22:07:23Z</time>
  <course>7.55</course>
  <speed>0.7218032973047436</speed>
  <fix>3d</fix>
</trkpt>
<trkpt lat="33.81008" lon="-118.3941649">
  <ele>-0.107</ele>
  <time>2026-09-02T22:07:23Z</time>
  <course>7.56</course>
  <speed>0.7218032973047436</speed>
  <fix>3d</fix>
</trkpt>
<trkpt lat="33.81008" lon="-118.3941649">
  <ele>-0.107</ele>
  <time>2026-09-02T22:07:23Z</time>
  <course>7.56</course>
  <speed>0.7218032973047436</speed>
  <fix>3d</fix>
</trkpt>
<trkpt lat="33.81008" lon="-118.3941649">
  <ele>-0.107</ele>
  <time>2026-09-02T22:07:23Z</time>
  <course>7.56</course>
  <speed>0.7218032973047436</speed>
  <fix>3d</fix>
</trkpt>
<trkpt lat="33.8100801" lon="-118.3941648">
  <ele>-0.107</ele>
  <time>2026-09-02T22:07:23Z</time>
  <course>7.56</course>
  <speed>0.7218032973047436</speed>
  <fix>3d</fix>
</trkpt>
<trkpt lat="33.8100801" lon="-118.3941648">
  <ele>-0.107</ele>
  <time>2026-09-02T22:07:23Z</time>
  <course>7.57</course>
  <speed>0.7218032973047436</speed>
  <fix>3d</fix>
</trkpt>
<trkpt lat="33.8100801" lon="-118.3941647">
  <ele>-0.107</ele>
  <time>2026-09-02T22:07:23Z</time>
  <course>7.57</course>
  <speed>0.7218032973047436</speed>
  <fix>3d</fix>
</trkpt>
<trkpt lat="33.8100797" lon="-118.3941658">
  <ele>-0.1</ele>
  <time>2026-09-02T22:07:23Z</time>
  <course>44.39</course>
  <speed>0.73</speed>
  <fix>3d</fix>
</trkpt>
<trkpt lat="33.8100801" lon="-118.3941647">
  <ele>-0.107</ele>
  <time>2026-09-02T22:07:23Z</time>
  <course>7.57</course>
  <speed>0.7218032973047436</speed>
  <fix>3d</fix>
</trkpt>
<trkpt lat="33.8100802" lon="-118.3941646">
  <ele>-0.107</ele>
  <time>2026-09-02T22:07:23Z</time>
  <course>7.57</course>
  <speed>0.7218032973047436</speed>
  <fix>3d</fix>
</trkpt>
<trkpt lat="33.8100803" lon="-118.3941646">
  <ele>-0.107</ele>
  <time>2026-09-02T22:07:23Z</time>
  <course>7.57</course>
  <speed>0.7218032973047436</speed>
  <fix>3d</fix>
</trkpt>
<trkpt lat="33.8100803" lon="-118.3941645">
  <ele>-0.107</ele>
  <time>2026-09-02T22:07:23Z</time>
  <course>7.58</course>
  <speed>0.7218032973047436</speed>
  <fix>3d</fix>
</trkpt>
<trkpt lat="33.8100803" lon="-118.3941645">
  <ele>-0.107</ele>
  <time>2026-09-02T22:07:23Z</time>
  <course>7.58</course>
  <speed>0.7218032973047436</speed>
  <fix>3d</fix>
</trkpt>
<trkpt lat="33.8100804" lon="-118.3941644">
  <ele>-0.107</ele>
  <time>2026-09-02T22:07:23Z</time>
  <course>7.58</course>
  <speed>0.7218032973047436</speed>
  <fix>3d</fix>
</trkpt>
<trkpt lat="33.8100804" lon="-118.3941644">
  <ele>-0.108</ele>
  <time>2026-09-02T22:07:23Z</time>
  <course>7.58</course>
  <speed>0.7218032973047436</speed>
  <fix>3d</fix>
</trkpt>
<trkpt lat="33.8100805" lon="-118.3941644">
  <ele>-0.108</ele>
  <time>2026-09-02T22:07:23Z</time>
  <course>7.59</course>
  <speed>0.7218032973047436</speed>
  <fix>3d</fix>
</trkpt>
<trkpt lat="33.8100805" lon="-118.3941643">
  <ele>-0.108</ele>
  <time>2026-09-02T22:07:23Z</time>
  <course>7.59</course>
  <speed>0.7218032973047436</speed>
  <fix>3d</fix>
</trkpt>
<trkpt lat="33.8100805" lon="-118.3941643">
  <ele>-0.108</ele>
  <time>2026-09-02T22:07:23Z</time>
  <course>7.59</course>
  <speed>0.7218032973047436</speed>
  <fix>3d</fix>
</trkpt>
<trkpt lat="33.8100806" lon="-118.3941642">
  <ele>-0.108</ele>
  <time>2026-09-02T22:07:23Z</time>
  <course>7.59</course>
  <speed>0.7218032973047436</speed>
  <fix>3d</fix>
</trkpt>
<trkpt lat="33.8100806" lon="-118.3941642">
  <ele>-0.108</ele>
  <time>2026-09-02T22:07:23Z</time>
  <course>7.59</course>
  <speed>0.7218032973047436</speed>
  <fix>3d</fix>
</trkpt>
<trkpt lat="33.8100797" lon="-118.3941658">
  <ele>-0.1</ele>
  <time>2026-09-02T22:07:23Z</time>
  <course>44.39</course>
  <speed>0.73</speed>
  <fix>3d</fix>
</trkpt>
<trkpt lat="33.8100806" lon="-118.3941642">
  <ele>-0.108</ele>
  <time>2026-09-02T22:07:23Z</time>
  <course>7.6</course>
  <speed>0.7218032973047436</speed>
  <fix>3d</fix>
</trkpt>
<trkpt lat="33.8100807" lon="-118.3941641">
  <ele>-0.109</ele>
  <time>2026-09-02T22:07:23Z</time>
  <course>7.6</course>
  <speed>0.7218032973047436</speed>
  <fix>3d</fix>
</trkpt>
<trkpt lat="33.8100807" lon="-118.394164">
  <ele>-0.109</ele>
  <time>2026-09-02T22:07:23Z</time>
  <course>7.6</course>
  <speed>0.7218032973047436</speed>
  <fix>3d</fix>
</trkpt>
<trkpt lat="33.8100808" lon="-118.394164">
  <ele>-0.109</ele>
  <time>2026-09-02T22:07:23Z</time>
  <course>7.61</course>
  <speed>0.7218032973047436</speed>
  <fix>3d</fix>
</trkpt>
<trkpt lat="33.8100808" lon="-118.3941639">
  <ele>-0.109</ele>
  <time>2026-09-02T22:07:23Z</time>
  <course>7.61</course>
  <speed>0.7218032973047436</speed>
  <fix>3d</fix>
</trkpt>
<trkpt lat="33.8100809" lon="-118.3941639">
  <ele>-0.109</ele>
  <time>2026-09-02T22:07:23Z</time>
  <course>7.61</course>
  <speed>0.7218032973047436</speed>
  <fix>3d</fix>
</trkpt>
<trkpt lat="33.8100809" lon="-118.3941638">
  <ele>-0.109</ele>
  <time>2026-09-02T22:07:23Z</time>
  <course>7.61</course>
  <speed>0.7218032973047436</speed>
  <fix>3d</fix>
</trkpt>
<trkpt lat="33.8100809" lon="-118.3941638">
  <ele>-0.11</ele>
  <time>2026-09-02T22:07:23Z</time>
  <course>7.61</course>
  <speed>0.7218032973047436</speed>
  <fix>3d</fix>
</trkpt>
<trkpt lat="33.810081" lon="-118.3941637">
  <ele>-0.11</ele>
  <time>2026-09-02T22:07:23Z</time>
  <course>7.62</course>
  <speed>0.7218032973047436</speed>
  <fix>3d</fix>
</trkpt>
<trkpt lat="33.810081" lon="-118.3941637">
  <ele>-0.11</ele>
  <time>2026-09-02T22:07:23Z</time>
  <course>7.62</course>
  <speed>0.7218032973047436</speed>
  <fix>3d</fix>
</trkpt>
<trkpt lat="33.8100811" lon="-118.3941636">
  <ele>-0.11</ele>
  <time>2026-09-02T22:07:23Z</time>
  <course>7.62</course>
  <speed>0.7218032973047436</speed>
  <fix>3d</fix>
</trkpt>
<trkpt lat="33.8100811" lon="-118.3941636">
  <ele>-0.11</ele>
  <time>2026-09-02T22:07:23Z</time>
  <course>7.62</course>
  <speed>0.7218032973047436</speed>
  <fix>3d</fix>
</trkpt>
<trkpt lat="33.8100806" lon="-118.3941647">
  <ele>-0.11</ele>
  <time>2026-09-02T22:07:23Z</time>
  <course>44.45</course>
  <speed>0.73</speed>
  <fix>3d</fix>
</trkpt>
<trkpt lat="33.8100811" lon="-118.3941636">
  <ele>-0.11</ele>
  <time>2026-09-02T22:07:23Z</time>
  <course>7.62</course>
  <speed>0.7218032973047436</speed>
  <fix>3d</fix>
</trkpt>
<trkpt lat="33.8100812" lon="-118.3941635">
  <ele>-0.111</ele>
  <time>2026-09-02T22:07:23Z</time>
  <course>7.63</course>
  <speed>0.7218032973047436</speed>
  <fix>3d</fix>
</trkpt>
<trkpt lat="33.8100812" lon="-118.3941635">
  <ele>-0.111</ele>
  <time>2026-09-02T22:07:23Z</time>
  <course>7.63</course>
  <speed>0.7218032973047436</speed>
  <fix>3d</fix>
</trkpt>
<trkpt lat="33.8100812" lon="-118.3941634">
  <ele>-0.111</ele>
  <time>2026-09-02T22:07:23Z</time>
  <course>7.63</course>
  <speed>0.7218032973047436</speed>
  <fix>3d</fix>
</trkpt>
<trkpt lat="33.8100813" lon="-118.3941634">
  <ele>-0.111</ele>
  <time>2026-09-02T22:07:23Z</time>
  <course>7.63</course>
  <speed>0.7218032973047436</speed>
  <fix>3d</fix>
</trkpt>
<trkpt lat="33.8100813" lon="-118.3941633">
  <ele>-0.111</ele>
  <time>2026-09-02T22:07:23Z</time>
  <course>7.64</course>
  <speed>0.7218032973047436</speed>
  <fix>3d</fix>
</trkpt>
<trkpt lat="33.8100814" lon="-118.3941633">
  <ele>-0.111</ele>
  <time>2026-09-02T22:07:23Z</time>
  <course>7.64</course>
  <speed>0.7218032973047436</speed>
  <fix>3d</fix>
</trkpt>
<trkpt lat="33.8100814" lon="-118.3941632">
  <ele>-0.111</ele>
  <time>2026-09-02T22:07:23Z</time>
  <course>7.64</course>
  <speed>0.7218032973047436</speed>
  <fix>3d</fix>
</trkpt>
<trkpt lat="33.8100815" lon="-118.3941632">
  <ele>-0.112</ele>
  <time>2026-09-02T22:07:23Z</time>
  <course>7.64</course>
  <speed>0.7218032973047436</speed>
  <fix>3d</fix>
</trkpt>
<trkpt lat="33.8100815" lon="-118.3941631">
  <ele>-0.112</ele>
  <time>2026-09-02T22:07:23Z</time>
  <course>7.65</course>
  <speed>0.7218032973047436</speed>
  <fix>3d</fix>
</trkpt>
<trkpt lat="33.8100815" lon="-118.3941631">
  <ele>-0.112</ele>
  <time>2026-09-02T22:07:23Z</time>
  <course>7.65</course>
  <speed>0.7218032973047436</speed>
  <fix>3d</fix>
</trkpt>
<trkpt lat="33.8100815" lon="-118.3941631">
  <ele>-0.112</ele>
  <time>2026-09-02T22:07:23Z</time>
  <course>7.65</course>
  <speed>0.7218032973047436</speed>
  <fix>3d</fix>
</trkpt>
<trkpt lat="33.8100806" lon="-118.3941647">
  <ele>-0.11</ele>
  <time>2026-09-02T22:07:23Z</time>
  <course>44.45</course>
  <speed>0.73</speed>
  <fix>3d</fix>
</trkpt>
<trkpt lat="33.8100816" lon="-118.3941631">
  <ele>-0.112</ele>
  <time>2026-09-02T22:07:23Z</time>
  <course>7.65</course>
  <speed>0.7218032973047436</speed>
  <fix>3d</fix>
</trkpt>
<trkpt lat="33.8100816" lon="-118.394163">
  <ele>-0.112</ele>
  <time>2026-09-02T22:07:23Z</time>
  <course>7.65</course>
  <speed>0.7218032973047436</speed>
  <fix>3d</fix>
</trkpt>
<trkpt lat="33.8100817" lon="-118.3941629">
  <ele>-0.112</ele>
  <time>2026-09-02T22:07:23Z</time>
  <course>7.66</course>
  <speed>0.7218032973047436</speed>
  <fix>3d</fix>
</trkpt>
<trkpt lat="33.8100817" lon="-118.3941629">
  <ele>-0.112</ele>
  <time>2026-09-02T22:07:23Z</time>
  <course>7.66</course>
  <speed>0.7218032973047436</speed>
  <fix>3d</fix>
</trkpt>
<trkpt lat="33.8100817" lon="-118.3941628">
  <ele>-0.112</ele>
  <time>2026-09-02T22:07:23Z</time>
  <course>7.66</course>
  <speed>0.7218032973047436</speed>
  <fix>3d</fix>
</trkpt>
<trkpt lat="33.8100818" lon="-118.3941628">
  <ele>-0.112</ele>
  <time>2026-09-02T22:07:23Z</time>
  <course>7.66</course>
  <speed>0.7218032973047436</speed>
  <fix>3d</fix>
</trkpt>
<trkpt lat="33.8100818" lon="-118.3941627">
  <ele>-0.112</ele>
  <time>2026-09-02T22:07:23Z</time>
  <course>7.67</course>
  <speed>0.7218032973047436</speed>
  <fix>3d</fix>
</trkpt>
<trkpt lat="33.8100819" lon="-118.3941627">
  <ele>-0.112</ele>
  <time>2026-09-02T22:07:23Z</time>
  <course>7.67</course>
  <speed>0.7218032973047436</speed>
  <fix>3d</fix>
</trkpt>
<trkpt lat="33.8100819" lon="-118.3941626">
  <ele>-0.112</ele>
  <time>2026-09-02T22:07:23Z</time>
  <course>7.67</course>
  <speed>0.7218032973047436</speed>
  <fix>3d</fix>
</trkpt>
<trkpt lat="33.8100819" lon="-118.3941626">
  <ele>-0.112</ele>
  <time>2026-09-02T22:07:23Z</time>
  <course>7.67</course>
  <speed>0.7218032973047436</speed>
  <fix>3d</fix>
</trkpt>
<trkpt lat="33.810082" lon="-118.3941625">
  <ele>-0.113</ele>
  <time>2026-09-02T22:07:23Z</time>
  <course>7.67</course>
  <speed>0.7218032973047436</speed>
  <fix>3d</fix>
</trkpt>
<trkpt lat="33.810082" lon="-118.3941625">
  <ele>-0.113</ele>
  <time>2026-09-02T22:07:23Z</time>
  <course>7.68</course>
  <speed>0.7218032973047436</speed>
  <fix>3d</fix>
</trkpt>
<trkpt lat="33.8100815" lon="-118.3941635">
  <ele>-0.1</ele>
  <time>2026-09-02T22:07:23Z</time>
  <course>44.5</course>
  <speed>0.73</speed>
  <fix>3d</fix>
</trkpt>
<trkpt lat="33.810082" lon="-118.3941625">
  <ele>-0.113</ele>
  <time>2026-09-02T22:07:23Z</time>
  <course>7.68</course>
  <speed>0.7218032973047436</speed>
  <fix>3d</fix>
</trkpt>
<trkpt lat="33.8100821" lon="-118.3941624">
  <ele>-0.113</ele>
  <time>2026-09-02T22:07:23Z</time>
  <course>7.68</course>
  <speed>0.7218032973047436</speed>
  <fix>3d</fix>
</trkpt>
<trkpt lat="33.8100821" lon="-118.3941624">
  <ele>-0.113</ele>
  <time>2026-09-02T22:07:23Z</time>
  <course>7.68</course>
  <speed>0.7218032973047436</speed>
  <fix>3d</fix>
</trkpt>
<trkpt lat="33.8100822" lon="-118.3941623">
  <ele>-0.113</ele>
  <time>2026-09-02T22:07:23Z</time>
  <course>7.69</course>
  <speed>0.7218032973047436</speed>
  <fix>3d</fix>
</trkpt>
<trkpt lat="33.8100822" lon="-118.3941622">
  <ele>-0.113</ele>
  <time>2026-09-02T22:07:23Z</time>
  <course>7.69</course>
  <speed>0.7218032973047436</speed>
  <fix>3d</fix>
</trkpt>
<trkpt lat="33.8100823" lon="-118.3941622">
  <ele>-0.113</ele>
  <time>2026-09-02T22:07:23Z</time>
  <course>7.69</course>
  <speed>0.7218032973047436</speed>
  <fix>3d</fix>
</trkpt>
<trkpt lat="33.8100823" lon="-118.3941621">
  <ele>-0.113</ele>
  <time>2026-09-02T22:07:23Z</time>
  <course>7.69</course>
  <speed>0.7218032973047436</speed>
  <fix>3d</fix>
</trkpt>
<trkpt lat="33.8100824" lon="-118.3941621">
  <ele>-0.113</ele>
  <time>2026-09-02T22:07:23Z</time>
  <course>7.7</course>
  <speed>0.7218032973047436</speed>
  <fix>3d</fix>
</trkpt>
<trkpt lat="33.8100824" lon="-118.394162">
  <ele>-0.112</ele>
  <time>2026-09-02T22:07:23Z</time>
  <course>7.7</course>
  <speed>0.7218032973047436</speed>
  <fix>3d</fix>
</trkpt>
<trkpt lat="33.8100824" lon="-118.394162">
  <ele>-0.112</ele>
  <time>2026-09-02T22:07:23Z</time>
  <course>7.7</course>
  <speed>0.7218032973047436</speed>
  <fix>3d</fix>
</trkpt>
<trkpt lat="33.8100825" lon="-118.394162">
  <ele>-0.112</ele>
  <time>2026-09-02T22:07:23Z</time>
  <course>7.7</course>
  <speed>0.7218032973047436</speed>
  <fix>3d</fix>
</trkpt>
<trkpt lat="33.8100815" lon="-118.3941635">
  <ele>-0.1</ele>
  <time>2026-09-02T22:07:23Z</time>
  <course>44.5</course>
  <speed>0.73</speed>
  <fix>3d</fix>
</trkpt>
<trkpt lat="33.8100825" lon="-118.3941619">
  <ele>-0.112</ele>
  <time>2026-09-02T22:07:23Z</time>
  <course>7.7</course>
  <speed>0.7218032973047436</speed>
  <fix>3d</fix>
</trkpt>
<trkpt lat="33.8100826" lon="-118.3941618">
  <ele>-0.112</ele>
  <time>2026-09-02T22:07:23Z</time>
  <course>7.71</course>
  <speed>0.7218032973047436</speed>
  <fix>3d</fix>
</trkpt>
<trkpt lat="33.8100826" lon="-118.3941618">
  <ele>-0.112</ele>
  <time>2026-09-02T22:07:23Z</time>
  <course>7.71</course>
  <speed>0.7218032973047436</speed>
  <fix>3d</fix>
</trkpt>
<trkpt lat="33.8100827" lon="-118.3941617">
  <ele>-0.112</ele>
  <time>2026-09-02T22:07:23Z</time>
  <course>7.71</course>
  <speed>0.7218032973047436</speed>
  <fix>3d</fix>
</trkpt>
<trkpt lat="33.8100827" lon="-118.3941617">
  <ele>-0.112</ele>
  <time>2026-09-02T22:07:23Z</time>
  <course>7.72</course>
  <speed>0.7218032973047436</speed>
  <fix>3d</fix>
</trkpt>
<trkpt lat="33.8100827" lon="-118.3941616">
  <ele>-0.112</ele>
  <time>2026-09-02T22:07:23Z</time>
  <course>7.72</course>
  <speed>0.7218032973047436</speed>
  <fix>3d</fix>
</trkpt>
<trkpt lat="33.8100828" lon="-118.3941616">
  <ele>-0.112</ele>
  <time>2026-09-02T22:07:23Z</time>
  <course>7.72</course>
  <speed>0.7218032973047436</speed>
  <fix>3d</fix>
</trkpt>
<trkpt lat="33.8100828" lon="-118.3941616">
  <ele>-0.111</ele>
  <time>2026-09-02T22:07:23Z</time>
  <course>7.72</course>
  <speed>0.7218032973047436</speed>
  <fix>3d</fix>
</trkpt>
<trkpt lat="33.8100828" lon="-118.3941615">
  <ele>-0.111</ele>
  <time>2026-09-02T22:07:23Z</time>
  <course>7.72</course>
  <speed>0.7218032973047436</speed>
  <fix>3d</fix>
</trkpt>
<trkpt lat="33.8100829" lon="-118.3941615">
  <ele>-0.111</ele>
  <time>2026-09-02T22:07:23Z</time>
  <course>7.73</course>
  <speed>0.7218032973047436</speed>
  <fix>3d</fix>
</trkpt>
<trkpt lat="33.8100829" lon="-118.3941614">
  <ele>-0.111</ele>
  <time>2026-09-02T22:07:23Z</time>
  <course>7.73</course>
  <speed>0.7218032973047436</speed>
  <fix>3d</fix>
</trkpt>
<trkpt lat="33.8100829" lon="-118.3941614">
  <ele>-0.111</ele>
  <time>2026-09-02T22:07:23Z</time>
  <course>7.73</course>
  <speed>0.7218032973047436</speed>
  <fix>3d</fix>
</trkpt>
<trkpt lat="33.8100825" lon="-118.3941624">
  <ele>-0.1</ele>
  <time>2026-09-02T22:07:23Z</time>
  <course>44.55</course>
  <speed>0.73</speed>
  <fix>3d</fix>
</trkpt>
<trkpt lat="33.8100829" lon="-118.3941614">
  <ele>-0.111</ele>
  <time>2026-09-02T22:07:23Z</time>
  <course>7.73</course>
  <speed>0.7218032973047436</speed>
  <fix>3d</fix>
</trkpt>
<trkpt lat="33.810083" lon="-118.3941613">
  <ele>-0.11</ele>
  <time>2026-09-02T22:07:23Z</time>
  <course>7.73</course>
  <speed>0.7218032973047436</speed>
  <fix>3d</fix>
</trkpt>
<trkpt lat="33.8100831" lon="-118.3941612">
  <ele>-0.11</ele>
  <time>2026-09-02T22:07:23Z</time>
  <course>7.74</course>
  <speed>0.7218032973047436</speed>
  <fix>3d</fix>
</trkpt>
<trkpt lat="33.8100831" lon="-118.3941612">
  <ele>-0.11</ele>
  <time>2026-09-02T22:07:23Z</time>
  <course>7.74</course>
  <speed>0.7218032973047436</speed>
  <fix>3d</fix>
</trkpt>
<trkpt lat="33.8100832" lon="-118.3941611">
  <ele>-0.11</ele>
  <time>2026-09-02T22:07:23Z</time>
  <course>7.74</course>
  <speed>0.7218032973047436</speed>
  <fix>3d</fix>
</trkpt>
<trkpt lat="33.8100832" lon="-118.3941611">
  <ele>-0.11</ele>
  <time>2026-09-02T22:07:23Z</time>
  <course>7.74</course>
  <speed>0.7218032973047436</speed>
  <fix>3d</fix>
</trkpt>
<trkpt lat="33.8100833" lon="-118.394161">
  <ele>-0.11</ele>
  <time>2026-09-02T22:07:23Z</time>
  <course>7.75</course>
  <speed>0.7218032973047436</speed>
  <fix>3d</fix>
</trkpt>
<trkpt lat="33.8100833" lon="-118.3941609">
  <ele>-0.11</ele>
  <time>2026-09-02T22:07:23Z</time>
  <course>7.75</course>
  <speed>0.7218032973047436</speed>
  <fix>3d</fix>
</trkpt>
<trkpt lat="33.8100834" lon="-118.3941609">
  <ele>-0.11</ele>
  <time>2026-09-02T22:07:23Z</time>
  <course>7.75</course>
  <speed>0.7218032973047436</speed>
  <fix>3d</fix>
</trkpt>
<trkpt lat="33.8100834" lon="-118.3941608">
  <ele>-0.11</ele>
  <time>2026-09-02T22:07:23Z</time>
  <course>7.75</course>
  <speed>0.7218032973047436</speed>
  <fix>3d</fix>
</trkpt>
<trkpt lat="33.8100825" lon="-118.3941624">
  <ele>-0.1</ele>
  <time>2026-09-02T22:07:23Z</time>
  <course>44.55</course>
  <speed>0.73</speed>
  <fix>3d</fix>
</trkpt>
<trkpt lat="33.8100834" lon="-118.3941608">
  <ele>-0.11</ele>
  <time>2026-09-02T22:07:23Z</time>
  <course>7.75</course>
  <speed>0.7218032973047436</speed>
  <fix>3d</fix>
</trkpt>
<trkpt lat="33.8100835" lon="-118.3941607">
  <ele>-0.109</ele>
  <time>2026-09-02T22:07:23Z</time>
  <course>7.76</course>
  <speed>0.7218032973047436</speed>
  <fix>3d</fix>
</trkpt>
<trkpt lat="33.8100835" lon="-118.3941607">
  <ele>-0.109</ele>
  <time>2026-09-02T22:07:23Z</time>
  <course>7.76</course>
  <speed>0.7218032973047436</speed>
  <fix>3d</fix>
</trkpt>
<trkpt lat="33.8100836" lon="-118.3941606">
  <ele>-0.109</ele>
  <time>2026-09-02T22:07:23Z</time>
  <course>7.76</course>
  <speed>0.7218032973047436</speed>
  <fix>3d</fix>
</trkpt>
<trkpt lat="33.8100836" lon="-118.3941606">
  <ele>-0.109</ele>
  <time>2026-09-02T22:07:23Z</time>
  <course>7.77</course>
  <speed>0.7218032973047436</speed>
  <fix>3d</fix>
</trkpt>
<trkpt lat="33.8100837" lon="-118.3941605">
  <ele>-0.109</ele>
  <time>2026-09-02T22:07:23Z</time>
  <course>7.77</course>
  <speed>0.7218032973047436</speed>
  <fix>3d</fix>
</trkpt>
<trkpt lat="33.8100837" lon="-118.3941605">
  <ele>-0.109</ele>
  <time>2026-09-02T22:07:23Z</time>
  <course>7.77</course>
  <speed>0.7218032973047436</speed>
  <fix>3d</fix>
</trkpt>
<trkpt lat="33.8100838" lon="-118.3941604">
  <ele>-0.109</ele>
  <time>2026-09-02T22:07:23Z</time>
  <course>7.77</course>
  <speed>0.7218032973047436</speed>
  <fix>3d</fix>
</trkpt>
<trkpt lat="33.8100838" lon="-118.3941604">
  <ele>-0.108</ele>
  <time>2026-09-02T22:07:23Z</time>
  <course>7.78</course>
  <speed>0.7218032973047436</speed>
  <fix>3d</fix>
</trkpt>
<trkpt lat="33.8100838" lon="-118.3941603">
  <ele>-0.108</ele>
  <time>2026-09-02T22:07:23Z</time>
  <course>7.78</course>
  <speed>0.7218032973047436</speed>
  <fix>3d</fix>
</trkpt>
<trkpt lat="33.8100839" lon="-118.3941603">
  <ele>-0.108</ele>
  <time>2026-09-02T22:07:23Z</time>
  <course>7.78</course>
  <speed>0.7218032973047436</speed>
  <fix>3d</fix>
</trkpt>
<trkpt lat="33.8100834" lon="-118.3941613">
  <ele>-0.1</ele>
  <time>2026-09-02T22:07:23Z</time>
  <course>44.6</course>
  <speed>0.73</speed>
  <fix>3d</fix>
</trkpt>
<trkpt lat="33.8100839" lon="-118.3941603">
  <ele>-0.108</ele>
  <time>2026-09-02T22:07:23Z</time>
  <course>7.78</course>
  <speed>0.7218032973047436</speed>
  <fix>3d</fix>
</trkpt>
<trkpt lat="33.8100839" lon="-118.3941602">
  <ele>-0.108</ele>
  <time>2026-09-02T22:07:23Z</time>
  <course>7.78</course>
  <speed>0.7218032973047436</speed>
  <fix>3d</fix>
</trkpt>
<trkpt lat="33.810084" lon="-118.3941601">
  <ele>-0.108</ele>
  <time>2026-09-02T22:07:23Z</time>
  <course>7.79</course>
  <speed>0.7218032973047436</speed>
  <fix>3d</fix>
</trkpt>
<trkpt lat="33.810084" lon="-118.3941601">
  <ele>-0.108</ele>
  <time>2026-09-02T22:07:23Z</time>
  <course>7.79</course>
  <speed>0.7218032973047436</speed>
  <fix>3d</fix>
</trkpt>
<trkpt lat="33.8100841" lon="-118.39416">
  <ele>-0.107</ele>
  <time>2026-09-02T22:07:23Z</time>
  <course>7.79</course>
  <speed>0.7218032973047436</speed>
  <fix>3d</fix>
</trkpt>
<trkpt lat="33.8100841" lon="-118.39416">
  <ele>-0.107</ele>
  <time>2026-09-02T22:07:23Z</time>
  <course>7.79</course>
  <speed>0.7218032973047436</speed>
  <fix>3d</fix>
</trkpt>
<trkpt lat="33.8100841" lon="-118.39416">
  <ele>-0.107</ele>
  <time>2026-09-02T22:07:23Z</time>
  <course>7.79</course>
  <speed>0.7218032973047436</speed>
  <fix>3d</fix>
</trkpt>
<trkpt lat="33.8100842" lon="-118.3941599">
  <ele>-0.107</ele>
  <time>2026-09-02T22:07:23Z</time>
  <course>7.8</course>
  <speed>0.7218032973047436</speed>
  <fix>3d</fix>
</trkpt>
<trkpt lat="33.8100842" lon="-118.3941599">
  <ele>-0.107</ele>
  <time>2026-09-02T22:07:23Z</time>
  <course>7.8</course>
  <speed>0.7218032973047436</speed>
  <fix>3d</fix>
</trkpt>
<trkpt lat="33.8100843" lon="-118.3941598">
  <ele>-0.107</ele>
  <time>2026-09-02T22:07:23Z</time>
  <course>7.8</course>
  <speed>0.7218032973047436</speed>
  <fix>3d</fix>
</trkpt>
<trkpt lat="33.8100843" lon="-118.3941598">
  <ele>-0.106</ele>
  <time>2026-09-02T22:07:23Z</time>
  <course>7.8</course>
  <speed>0.7218032973047436</speed>
  <fix>3d</fix>
</trkpt>
<trkpt lat="33.8100843" lon="-118.3941597">
  <ele>-0.106</ele>
  <time>2026-09-02T22:07:23Z</time>
  <course>7.8</course>
  <speed>0.7218032973047436</speed>
  <fix>3d</fix>
</trkpt>
<trkpt lat="33.8100834" lon="-118.3941613">
  <ele>-0.1</ele>
  <time>2026-09-02T22:07:23Z</time>
  <course>44.6</course>
  <speed>0.73</speed>
  <fix>3d</fix>
</trkpt>
<trkpt lat="33.8100843" lon="-118.3941597">
  <ele>-0.106</ele>
  <time>2026-09-02T22:07:23Z</time>
  <course>7.8</course>
  <speed>0.7218032973047436</speed>
  <fix>3d</fix>
</trkpt>
<trkpt lat="33.8100844" lon="-118.3941596">
  <ele>-0.106</ele>
  <time>2026-09-02T22:07:23Z</time>
  <course>7.81</course>
  <speed>0.7218032973047436</speed>
  <fix>3d</fix>
</trkpt>
<trkpt lat="33.8100845" lon="-118.3941596">
  <ele>-0.106</ele>
  <time>2026-09-02T22:07:23Z</time>
  <course>7.81</course>
  <speed>0.7218032973047436</speed>
  <fix>3d</fix>
</trkpt>
<trkpt lat="33.8100845" lon="-118.3941595">
  <ele>-0.106</ele>
  <time>2026-09-02T22:07:23Z</time>
  <course>7.81</course>
  <speed>0.7218032973047436</speed>
  <fix>3d</fix>
</trkpt>
<trkpt lat="33.8100845" lon="-118.3941595">
  <ele>-0.106</ele>
  <time>2026-09-02T22:07:23Z</time>
  <course>7.82</course>
  <speed>0.7218032973047436</speed>
  <fix>3d</fix>
</trkpt>
<trkpt lat="33.8100846" lon="-118.3941594">
  <ele>-0.106</ele>
  <time>2026-09-02T22:07:23Z</time>
  <course>7.82</course>
  <speed>0.7218032973047436</speed>
  <fix>3d</fix>
</trkpt>
<trkpt lat="33.8100846" lon="-118.3941594">
  <ele>-0.106</ele>
  <time>2026-09-02T22:07:23Z</time>
  <course>7.82</course>
  <speed>0.7218032973047436</speed>
  <fix>3d</fix>
</trkpt>
<trkpt lat="33.8100846" lon="-118.3941593">
  <ele>-0.106</ele>
  <time>2026-09-02T22:07:23Z</time>
  <course>7.82</course>
  <speed>0.7218032973047436</speed>
  <fix>3d</fix>
</trkpt>
<trkpt lat="33.8100847" lon="-118.3941593">
  <ele>-0.106</ele>
  <time>2026-09-02T22:07:23Z</time>
  <course>7.82</course>
  <speed>0.7218032973047436</speed>
  <fix>3d</fix>
</trkpt>
<trkpt lat="33.8100847" lon="-118.3941592">
  <ele>-0.106</ele>
  <time>2026-09-02T22:07:23Z</time>
  <course>7.83</course>
  <speed>0.7218032973047436</speed>
  <fix>3d</fix>
</trkpt>
<trkpt lat="33.8100848" lon="-118.3941592">
  <ele>-0.106</ele>
  <time>2026-09-02T22:07:23Z</time>
  <course>7.83</course>
  <speed>0.7218032973047436</speed>
  <fix>3d</fix>
</trkpt>
<trkpt lat="33.8100848" lon="-118.3941592">
  <ele>-0.106</ele>
  <time>2026-09-02T22:07:23Z</time>
  <course>7.83</course>
  <speed>0.7218032973047436</speed>
  <fix>3d</fix>
</trkpt>
<trkpt lat="33.8100843" lon="-118.3941602">
  <ele>-0.1</ele>
  <time>2026-09-02T22:07:23Z</time>
  <course>44.65</course>
  <speed>0.73</speed>
  <fix>3d</fix>
</trkpt>
<trkpt lat="33.8100848" lon="-118.3941592">
  <ele>-0.106</ele>
  <time>2026-09-02T22:07:23Z</time>
  <course>7.83</course>
  <speed>0.7218032973047436</speed>
  <fix>3d</fix>
</trkpt>
<trkpt lat="33.8100849" lon="-118.3941591">
  <ele>-0.105</ele>
  <time>2026-09-02T22:07:23Z</time>
  <course>7.83</course>
  <speed>0.7218032973047436</speed>
  <fix>3d</fix>
</trkpt>
<trkpt lat="33.8100849" lon="-118.394159">
  <ele>-0.105</ele>
  <time>2026-09-02T22:07:23Z</time>
  <course>7.84</course>
  <speed>0.7218032973047436</speed>
  <fix>3d</fix>
</trkpt>
<trkpt lat="33.8100849" lon="-118.394159">
  <ele>-0.105</ele>
  <time>2026-09-02T22:07:23Z</time>
  <course>7.84</course>
  <speed>0.7218032973047436</speed>
  <fix>3d</fix>
</trkpt>
<trkpt lat="33.810085" lon="-118.3941589">
  <ele>-0.105</ele>
  <time>2026-09-02T22:07:23Z</time>
  <course>7.84</course>
  <speed>0.7218032973047436</speed>
  <fix>3d</fix>
</trkpt>
<trkpt lat="33.810085" lon="-118.3941589">
  <ele>-0.105</ele>
  <time>2026-09-02T22:07:23Z</time>
  <course>7.84</course>
  <speed>0.7218032973047436</speed>
  <fix>3d</fix>
</trkpt>
<trkpt lat="33.8100851" lon="-118.3941588">
  <ele>-0.105</ele>
  <time>2026-09-02T22:07:23Z</time>
  <course>7.84</course>
  <speed>0.7218032973047436</speed>
  <fix>3d</fix>
</trkpt>
<trkpt lat="33.8100851" lon="-118.3941588">
  <ele>-0.105</ele>
  <time>2026-09-02T22:07:23Z</time>
  <course>7.85</course>
  <speed>0.7218032973047436</speed>
  <fix>3d</fix>
</trkpt>
<trkpt lat="33.8100851" lon="-118.3941587">
  <ele>-0.105</ele>
  <time>2026-09-02T22:07:23Z</time>
  <course>7.85</course>
  <speed>0.7218032973047436</speed>
  <fix>3d</fix>
</trkpt>
<trkpt lat="33.8100852" lon="-118.3941587">
  <ele>-0.105</ele>
  <time>2026-09-02T22:07:23Z</time>
  <course>7.85</course>
  <speed>0.7218032973047436</speed>
  <fix>3d</fix>
</trkpt>
<trkpt lat="33.8100852" lon="-118.3941587">
  <ele>-0.105</ele>
  <time>2026-09-02T22:07:23Z</time>
  <course>7.85</course>
  <speed>0.7218032973047436</speed>
  <fix>3d</fix>
</trkpt>
<trkpt lat="33.8100852" lon="-118.3941586">
  <ele>-0.105</ele>
  <time>2026-09-02T22:07:23Z</time>
  <course>7.85</course>
  <speed>0.7218032973047436</speed>
  <fix>3d</fix>
</trkpt>
<trkpt lat="33.8100843" lon="-118.3941602">
  <ele>-0.1</ele>
  <time>2026-09-02T22:07:23Z</time>
  <course>44.65</course>
  <speed>0.73</speed>
  <fix>3d</fix>
</trkpt>
<trkpt lat="33.8100852" lon="-118.3941586">
  <ele>-0.105</ele>
  <time>2026-09-02T22:07:23Z</time>
  <course>7.85</course>
  <speed>0.7218032973047436</speed>
  <fix>3d</fix>
</trkpt>
<trkpt lat="33.8100853" lon="-118.3941585">
  <ele>-0.105</ele>
  <time>2026-09-02T22:07:23Z</time>
  <course>7.86</course>
  <speed>0.7218032973047436</speed>
  <fix>3d</fix>
</trkpt>
<trkpt lat="33.8100854" lon="-118.3941585">
  <ele>-0.105</ele>
  <time>2026-09-02T22:07:23Z</time>
  <course>7.86</course>
  <speed>0.7150524456289902</speed>
  <fix>3d</fix>
</trkpt>
<trkpt lat="33.8100854" lon="-118.3941584">
  <ele>-0.105</ele>
  <time>2026-09-02T22:07:23Z</time>
  <course>7.86</course>
  <speed>0.7150524456289902</speed>
  <fix>3d</fix>
</trkpt>
<trkpt lat="33.8100855" lon="-118.3941584">
  <ele>-0.105</ele>
  <time>2026-09-02T22:07:23Z</time>
  <course>7.86</course>
  <speed>0.7150524456289902</speed>
  <fix>3d</fix>
</trkpt>
<trkpt lat="33.8100855" lon="-118.3941583">
  <ele>-0.105</ele>
  <time>2026-09-02T22:07:23Z</time>
  <course>7.87</course>
  <speed>0.7150524456289902</speed>
  <fix>3d</fix>
</trkpt>
<trkpt lat="33.8100855" lon="-118.3941583">
  <ele>-0.105</ele>
  <time>2026-09-02T22:07:23Z</time>
  <course>7.87</course>
  <speed>0.7150524456289902</speed>
  <fix>3d</fix>
</trkpt>
<trkpt lat="33.8100856" lon="-118.3941582">
  <ele>-0.105</ele>
  <time>2026-09-02T22:07:23Z</time>
  <course>7.87</course>
  <speed>0.7150524456289902</speed>
  <fix>3d</fix>
</trkpt>
<trkpt lat="33.8100856" lon="-118.3941582">
  <ele>-0.105</ele>
  <time>2026-09-02T22:07:23Z</time>
  <course>7.87</course>
  <speed>0.7150524456289902</speed>
  <fix>3d</fix>
</trkpt>
<trkpt lat="33.8100856" lon="-118.3941581">
  <ele>-0.105</ele>
  <time>2026-09-02T22:07:23Z</time>
  <course>7.87</course>
  <speed>0.7150524456289902</speed>
  <fix>3d</fix>
</trkpt>
<trkpt lat="33.8100857" lon="-118.3941581">
  <ele>-0.105</ele>
  <time>2026-09-02T22:07:23Z</time>
  <course>7.88</course>
  <speed>0.7150524456289902</speed>
  <fix>3d</fix>
</trkpt>
<trkpt lat="33.8100857" lon="-118.3941581">
  <ele>-0.105</ele>
  <time>2026-09-02T22:07:23Z</time>
  <course>7.88</course>
  <speed>0.7150524456289902</speed>
  <fix>3d</fix>
</trkpt>
<trkpt lat="33.8100853" lon="-118.3941591">
  <ele>-0.11</ele>
  <time>2026-09-02T22:07:23Z</time>
  <course>44.7</course>
  <speed>0.73</speed>
  <fix>3d</fix>
</trkpt>
<trkpt lat="33.8100857" lon="-118.3941581">
  <ele>-0.105</ele>
  <time>2026-09-02T22:07:23Z</time>
  <course>7.88</course>
  <speed>0.7150524456289902</speed>
  <fix>3d</fix>
</trkpt>
<trkpt lat="33.8100858" lon="-118.394158">
  <ele>-0.105</ele>
  <time>2026-09-02T22:07:23Z</time>
  <course>7.88</course>
  <speed>0.7150524456289902</speed>
  <fix>3d</fix>
</trkpt>
<trkpt lat="33.8100858" lon="-118.3941579">
  <ele>-0.105</ele>
  <time>2026-09-02T22:07:23Z</time>
  <course>7.88</course>
  <speed>0.7150524456289902</speed>
  <fix>3d</fix>
</trkpt>
<trkpt lat="33.8100859" lon="-118.3941578">
  <ele>-0.105</ele>
  <time>2026-09-02T22:07:23Z</time>
  <course>7.89</course>
  <speed>0.7150524456289902</speed>
  <fix>3d</fix>
</trkpt>
<trkpt lat="33.8100859" lon="-118.3941578">
  <ele>-0.105</ele>
  <time>2026-09-02T22:07:23Z</time>
  <course>7.89</course>
  <speed>0.7150524456289902</speed>
  <fix>3d</fix>
</trkpt>
<trkpt lat="33.810086" lon="-118.3941578">
  <ele>-0.105</ele>
  <time>2026-09-02T22:07:23Z</time>
  <course>7.89</course>
  <speed>0.7150524456289902</speed>
  <fix>3d</fix>
</trkpt>
<trkpt lat="33.810086" lon="-118.3941577">
  <ele>-0.105</ele>
  <time>2026-09-02T22:07:23Z</time>
  <course>7.89</course>
  <speed>0.7150524456289902</speed>
  <fix>3d</fix>
</trkpt>
<trkpt lat="33.810086" lon="-118.3941577">
  <ele>-0.105</ele>
  <time>2026-09-02T22:07:23Z</time>
  <course>7.89</course>
  <speed>0.7150524456289902</speed>
  <fix>3d</fix>
</trkpt>
<trkpt lat="33.8100861" lon="-118.3941576">
  <ele>-0.105</ele>
  <time>2026-09-02T22:07:23Z</time>
  <course>7.9</course>
  <speed>0.7150524456289902</speed>
  <fix>3d</fix>
</trkpt>
<trkpt lat="33.8100861" lon="-118.3941576">
  <ele>-0.105</ele>
  <time>2026-09-02T22:07:23Z</time>
  <course>7.9</course>
  <speed>0.7150524456289902</speed>
  <fix>3d</fix>
</trkpt>
<trkpt lat="33.8100862" lon="-118.3941575">
  <ele>-0.104</ele>
  <time>2026-09-02T22:07:23Z</time>
  <course>7.9</course>
  <speed>0.7150524456289902</speed>
  <fix>3d</fix>
</trkpt>
<trkpt lat="33.8100853" lon="-118.3941591">
  <ele>-0.11</ele>
  <time>2026-09-02T22:07:23Z</time>
  <course>44.7</course>
  <speed>0.73</speed>
  <fix>3d</fix>
</trkpt>
<trkpt lat="33.8100862" lon="-118.3941575">
  <ele>-0.104</ele>
  <time>2026-09-02T22:07:23Z</time>
  <course>7.9</course>
  <speed>0.7150524456289902</speed>
  <fix>3d</fix>
</trkpt>
<trkpt lat="33.8100863" lon="-118.3941574">
  <ele>-0.104</ele>
  <time>2026-09-02T22:07:23Z</time>
  <course>7.91</course>
  <speed>0.7150524456289902</speed>
  <fix>3d</fix>
</trkpt>
<trkpt lat="33.8100863" lon="-118.3941573">
  <ele>-0.104</ele>
  <time>2026-09-02T22:07:23Z</time>
  <course>7.91</course>
  <speed>0.7150524456289902</speed>
  <fix>3d</fix>
</trkpt>
<trkpt lat="33.8100863" lon="-118.3941573">
  <ele>-0.104</ele>
  <time>2026-09-02T22:07:23Z</time>
  <course>7.91</course>
  <speed>0.7150524456289902</speed>
  <fix>3d</fix>
</trkpt>
<trkpt lat="33.8100864" lon="-118.3941573">
  <ele>-0.104</ele>
  <time>2026-09-02T22:07:23Z</time>
  <course>7.91</course>
  <speed>0.7150524456289902</speed>
  <fix>3d</fix>
</trkpt>
<trkpt lat="33.8100864" lon="-118.3941572">
  <ele>-0.104</ele>
  <time>2026-09-02T22:07:23Z</time>
  <course>7.91</course>
  <speed>0.7150524456289902</speed>
  <fix>3d</fix>
</trkpt>
<trkpt lat="33.8100865" lon="-118.3941572">
  <ele>-0.104</ele>
  <time>2026-09-02T22:07:23Z</time>
  <course>7.92</course>
  <speed>0.7150524456289902</speed>
  <fix>3d</fix>
</trkpt>
<trkpt lat="33.8100865" lon="-118.3941571">
  <ele>-0.105</ele>
  <time>2026-09-02T22:07:23Z</time>
  <course>7.92</course>
  <speed>0.7150524456289902</speed>
  <fix>3d</fix>
</trkpt>
<trkpt lat="33.8100865" lon="-118.3941571">
  <ele>-0.105</ele>
  <time>2026-09-02T22:07:23Z</time>
  <course>7.92</course>
  <speed>0.7150524456289902</speed>
  <fix>3d</fix>
</trkpt>
<trkpt lat="33.8100866" lon="-118.394157">
  <ele>-0.105</ele>
  <time>2026-09-02T22:07:23Z</time>
  <course>7.92</course>
  <speed>0.7150524456289902</speed>
  <fix>3d</fix>
</trkpt>
<trkpt lat="33.8100866" lon="-118.394157">
  <ele>-0.105</ele>
  <time>2026-09-02T22:07:23Z</time>
  <course>7.92</course>
  <speed>0.7150524456289902</speed>
  <fix>3d</fix>
</trkpt>
<trkpt lat="33.8100866" lon="-118.394157">
  <ele>-0.105</ele>
  <time>2026-09-02T22:07:23Z</time>
  <course>7.93</course>
  <speed>0.7150524456289902</speed>
  <fix>3d</fix>
</trkpt>
<trkpt lat="33.8100862" lon="-118.394158">
  <ele>-0.1</ele>
  <time>2026-09-02T22:07:23Z</time>
  <course>44.75</course>
  <speed>0.73</speed>
  <fix>3d</fix>
</trkpt>
<trkpt lat="33.8100866" lon="-118.394157">
  <ele>-0.105</ele>
  <time>2026-09-02T22:07:23Z</time>
  <course>7.93</course>
  <speed>0.7150524456289902</speed>
  <fix>3d</fix>
</trkpt>
<trkpt lat="33.8100867" lon="-118.3941568">
  <ele>-0.105</ele>
  <time>2026-09-02T22:07:23Z</time>
  <course>7.93</course>
  <speed>0.7150524456289902</speed>
  <fix>3d</fix>
</trkpt>
<trkpt lat="33.8100868" lon="-118.3941568">
  <ele>-0.105</ele>
  <time>2026-09-02T22:07:23Z</time>
  <course>7.93</course>
  <speed>0.7150524456289902</speed>
  <fix>3d</fix>
</trkpt>
<trkpt lat="33.8100868" lon="-118.3941567">
  <ele>-0.105</ele>
  <time>2026-09-02T22:07:23Z</time>
  <course>7.94</course>
  <speed>0.7150524456289902</speed>
  <fix>3d</fix>
</trkpt>
<trkpt lat="33.8100869" lon="-118.3941567">
  <ele>-0.105</ele>
  <time>2026-09-02T22:07:23Z</time>
  <course>7.94</course>
  <speed>0.7150524456289902</speed>
  <fix>3d</fix>
</trkpt>
<trkpt lat="33.8100869" lon="-118.3941566">
  <ele>-0.105</ele>
  <time>2026-09-02T22:07:23Z</time>
  <course>7.94</course>
  <speed>0.7150524456289902</speed>
  <fix>3d</fix>
</trkpt>
<trkpt lat="33.8100869" lon="-118.3941566">
  <ele>-0.105</ele>
  <time>2026-09-02T22:07:23Z</time>
  <course>7.94</course>
  <speed>0.7150524456289902</speed>
  <fix>3d</fix>
</trkpt>
<trkpt lat="33.810087" lon="-118.3941565">
  <ele>-0.105</ele>
  <time>2026-09-02T22:07:23Z</time>
  <course>7.94</course>
  <speed>0.7150524456289902</speed>
  <fix>3d</fix>
</trkpt>
<trkpt lat="33.810087" lon="-118.3941565">
  <ele>-0.105</ele>
  <time>2026-09-02T22:07:23Z</time>
  <course>7.94</course>
  <speed>0.7150524456289902</speed>
  <fix>3d</fix>
</trkpt>
<trkpt lat="33.810087" lon="-118.3941565">
  <ele>-0.105</ele>
  <time>2026-09-02T22:07:23Z</time>
  <course>7.95</course>
  <speed>0.7150524456289902</speed>
  <fix>3d</fix>
</trkpt>
<trkpt lat="33.8100871" lon="-118.3941564">
  <ele>-0.105</ele>
  <time>2026-09-02T22:07:23Z</time>
  <course>7.95</course>
  <speed>0.7150524456289902</speed>
  <fix>3d</fix>
</trkpt>
<trkpt lat="33.8100871" lon="-118.3941564">
  <ele>-0.105</ele>
  <time>2026-09-02T22:07:23Z</time>
  <course>7.95</course>
  <speed>0.7150524456289902</speed>
  <fix>3d</fix>
</trkpt>
<trkpt lat="33.8100862" lon="-118.394158">
  <ele>-0.1</ele>
  <time>2026-09-02T22:07:23Z</time>
  <course>44.75</course>
  <speed>0.73</speed>
  <fix>3d</fix>
</trkpt>
<trkpt lat="33.8100872" lon="-118.3941563">
  <ele>-0.105</ele>
  <time>2026-09-02T22:07:23Z</time>
  <course>7.95</course>
  <speed>0.7150524456289902</speed>
  <fix>3d</fix>
</trkpt>
<trkpt lat="33.8100872" lon="-118.3941563">
  <ele>-0.105</ele>
  <time>2026-09-02T22:07:23Z</time>
  <course>7.95</course>
  <speed>0.7150524456289902</speed>
  <fix>3d</fix>
</trkpt>
<trkpt lat="33.8100872" lon="-118.3941562">
  <ele>-0.104</ele>
  <time>2026-09-02T22:07:23Z</time>
  <course>7.96</course>
  <speed>0.7150524456289902</speed>
  <fix>3d</fix>
</trkpt>
<trkpt lat="33.8100873" lon="-118.3941562">
  <ele>-0.104</ele>
  <time>2026-09-02T22:07:23Z</time>
  <course>7.96</course>
  <speed>0.7150524456289902</speed>
  <fix>3d</fix>
</trkpt>
<trkpt lat="33.8100873" lon="-118.3941561">
  <ele>-0.104</ele>
  <time>2026-09-02T22:07:23Z</time>
  <course>7.96</course>
  <speed>0.7150524456289902</speed>
  <fix>3d</fix>
</trkpt>
<trkpt lat="33.8100874" lon="-118.3941561">
  <ele>-0.104</ele>
  <time>2026-09-02T22:07:23Z</time>
  <course>7.96</course>
  <speed>0.7150524456289902</speed>
  <fix>3d</fix>
</trkpt>
<trkpt lat="33.8100874" lon="-118.394156">
  <ele>-0.104</ele>
  <time>2026-09-02T22:07:23Z</time>
  <course>7.96</course>
  <speed>0.7150524456289902</speed>
  <fix>3d</fix>
</trkpt>
<trkpt lat="33.8100875" lon="-118.394156">
  <ele>-0.104</ele>
  <time>2026-09-02T22:07:23Z</time>
  <course>7.97</course>
  <speed>0.7150524456289902</speed>
  <fix>3d</fix>
</trkpt>
<trkpt lat="33.8100875" lon="-118.3941559">
  <ele>-0.104</ele>
  <time>2026-09-02T22:07:23Z</time>
  <course>7.97</course>
  <speed>0.7150524456289902</speed>
  <fix>3d</fix>
</trkpt>
<trkpt lat="33.8100875" lon="-118.3941559">
  <ele>-0.104</ele>
  <time>2026-09-02T22:07:23Z</time>
  <course>7.97</course>
  <speed>0.7150524456289902</speed>
  <fix>3d</fix>
</trkpt>
<trkpt lat="33.8100875" lon="-118.3941559">
  <ele>-0.104</ele>
  <time>2026-09-02T22:07:23Z</time>
  <course>7.97</course>
  <speed>0.7150524456289902</speed>
  <fix>3d</fix>
</trkpt>
<trkpt lat="33.8100872" lon="-118.3941568">
  <ele>-0.1</ele>
  <time>2026-09-02T22:07:23Z</time>
  <course>44.79</course>
  <speed>0.73</speed>
  <fix>3d</fix>
</trkpt>
<trkpt lat="33.8100876" lon="-118.3941558">
  <ele>-0.104</ele>
  <time>2026-09-02T22:07:23Z</time>
  <course>7.97</course>
  <speed>0.7150524456289902</speed>
  <fix>3d</fix>
</trkpt>
<trkpt lat="33.8100878" lon="-118.3941556">
  <ele>-0.104</ele>
  <time>2026-09-02T22:07:23Z</time>
  <course>7.98</course>
  <speed>0.7150524456289902</speed>
  <fix>3d</fix>
</trkpt>
<trkpt lat="33.8100879" lon="-118.3941555">
  <ele>-0.104</ele>
  <time>2026-09-02T22:07:23Z</time>
  <course>7.99</course>
  <speed>0.7150524456289902</speed>
  <fix>3d</fix>
</trkpt>
<trkpt lat="33.8100879" lon="-118.3941554">
  <ele>-0.105</ele>
  <time>2026-09-02T22:07:23Z</time>
  <course>7.99</course>
  <speed>0.7150524456289902</speed>
  <fix>3d</fix>
</trkpt>
<trkpt lat="33.8100879" lon="-118.3941554">
  <ele>-0.105</ele>
  <time>2026-09-02T22:07:23Z</time>
  <course>7.99</course>
  <speed>0.7150524456289902</speed>
  <fix>3d</fix>
</trkpt>
<trkpt lat="33.810088" lon="-118.3941554">
  <ele>-0.105</ele>
  <time>2026-09-02T22:07:23Z</time>
  <course>7.99</course>
  <speed>0.7150524456289902</speed>
  <fix>3d</fix>
</trkpt>
<trkpt lat="33.810088" lon="-118.3941553">
  <ele>-0.105</ele>
  <time>2026-09-02T22:07:23Z</time>
  <course>7.99</course>
  <speed>0.7150524456289902</speed>
  <fix>3d</fix>
</trkpt>
<trkpt lat="33.810088" lon="-118.3941553">
  <ele>-0.105</ele>
  <time>2026-09-02T22:07:23Z</time>
  <course>7.99</course>
  <speed>0.7150524456289902</speed>
  <fix>3d</fix>
</trkpt>
<trkpt lat="33.8100872" lon="-118.3941568">
  <ele>-0.1</ele>
  <time>2026-09-02T22:07:23Z</time>
  <course>44.79</course>
  <speed>0.73</speed>
  <fix>3d</fix>
</trkpt>
<trkpt lat="33.810088" lon="-118.3941553">
  <ele>-0.105</ele>
  <time>2026-09-02T22:07:23Z</time>
  <course>7.99</course>
  <speed>0.7150524456289902</speed>
  <fix>3d</fix>
</trkpt>
<trkpt lat="33.8100881" lon="-118.3941552">
  <ele>-0.105</ele>
  <time>2026-09-02T22:07:23Z</time>
  <course>8.0</course>
  <speed>0.7150524456289902</speed>
  <fix>3d</fix>
</trkpt>
<trkpt lat="33.8100881" lon="-118.3941552">
  <ele>-0.105</ele>
  <time>2026-09-02T22:07:23Z</time>
  <course>8.0</course>
  <speed>0.7150524456289902</speed>
  <fix>3d</fix>
</trkpt>
<trkpt lat="33.8100882" lon="-118.3941551">
  <ele>-0.105</ele>
  <time>2026-09-02T22:07:23Z</time>
  <course>8.0</course>
  <speed>0.7150524456289902</speed>
  <fix>3d</fix>
</trkpt>
<trkpt lat="33.8100882" lon="-118.3941551">
  <ele>-0.105</ele>
  <time>2026-09-02T22:07:23Z</time>
  <course>8.0</course>
  <speed>0.7150524456289902</speed>
  <fix>3d</fix>
</trkpt>
<trkpt lat="33.8100883" lon="-118.394155">
  <ele>-0.105</ele>
  <time>2026-09-02T22:07:23Z</time>
  <course>8.01</course>
  <speed>0.7150524456289902</speed>
  <fix>3d</fix>
</trkpt>
<trkpt lat="33.8100883" lon="-118.394155">
  <ele>-0.105</ele>
  <time>2026-09-02T22:07:23Z</time>
  <course>8.01</course>
  <speed>0.7150524456289902</speed>
  <fix>3d</fix>
</trkpt>
<trkpt lat="33.8100883" lon="-118.3941549">
  <ele>-0.105</ele>
  <time>2026-09-02T22:07:23Z</time>
  <course>8.01</course>
  <speed>0.7150524456289902</speed>
  <fix>3d</fix>
</trkpt>
<trkpt lat="33.8100884" lon="-118.3941549">
  <ele>-0.105</ele>
  <time>2026-09-02T22:07:23Z</time>
  <course>8.01</course>
  <speed>0.7150524456289902</speed>
  <fix>3d</fix>
</trkpt>
<trkpt lat="33.8100884" lon="-118.3941548">
  <ele>-0.105</ele>
  <time>2026-09-02T22:07:23Z</time>
  <course>8.01</course>
  <speed>0.7150524456289902</speed>
  <fix>3d</fix>
</trkpt>
<trkpt lat="33.8100884" lon="-118.3941548">
  <ele>-0.105</ele>
  <time>2026-09-02T22:07:23Z</time>
  <course>8.02</course>
  <speed>0.7150524456289902</speed>
  <fix>3d</fix>
</trkpt>
<trkpt lat="33.8100885" lon="-118.3941547">
  <ele>-0.105</ele>
  <time>2026-09-02T22:07:23Z</time>
  <course>8.02</course>
  <speed>0.7150524456289902</speed>
  <fix>3d</fix>
</trkpt>
<trkpt lat="33.8100885" lon="-118.3941547">
  <ele>-0.105</ele>
  <time>2026-09-02T22:07:23Z</time>
  <course>8.02</course>
  <speed>0.7150524456289902</speed>
  <fix>3d</fix>
</trkpt>
<trkpt lat="33.8100881" lon="-118.3941557">
  <ele>-0.1</ele>
  <time>2026-09-02T22:07:23Z</time>
  <course>44.84</course>
  <speed>0.73</speed>
  <fix>3d</fix>
</trkpt>
<trkpt lat="33.8100886" lon="-118.3941546">
  <ele>-0.105</ele>
  <time>2026-09-02T22:07:23Z</time>
  <course>8.02</course>
  <speed>0.7150524456289902</speed>
  <fix>3d</fix>
</trkpt>
<trkpt lat="33.8100886" lon="-118.3941546">
  <ele>-0.105</ele>
  <time>2026-09-02T22:07:23Z</time>
  <course>8.02</course>
  <speed>0.7150524456289902</speed>
  <fix>3d</fix>
</trkpt>
<trkpt lat="33.8100886" lon="-118.3941545">
  <ele>-0.105</ele>
  <time>2026-09-02T22:07:23Z</time>
  <course>8.03</course>
  <speed>0.7150524456289902</speed>
  <fix>3d</fix>
</trkpt>
<trkpt lat="33.8100887" lon="-118.3941545">
  <ele>-0.105</ele>
  <time>2026-09-02T22:07:23Z</time>
  <course>8.03</course>
  <speed>0.7150524456289902</speed>
  <fix>3d</fix>
</trkpt>
<trkpt lat="33.8100887" lon="-118.3941545">
  <ele>-0.105</ele>
  <time>2026-09-02T22:07:23Z</time>
  <course>8.03</course>
  <speed>0.7150524456289902</speed>
  <fix>3d</fix>
</trkpt>
<trkpt lat="33.8100887" lon="-118.3941544">
  <ele>-0.105</ele>
  <time>2026-09-02T22:07:23Z</time>
  <course>8.03</course>
  <speed>0.7150524456289902</speed>
  <fix>3d</fix>
</trkpt>
<trkpt lat="33.8100888" lon="-118.3941544">
  <ele>-0.105</ele>
  <time>2026-09-02T22:07:23Z</time>
  <course>8.03</course>
  <speed>0.7150524456289902</speed>
  <fix>3d</fix>
</trkpt>
<trkpt lat="33.8100888" lon="-118.3941543">
  <ele>-0.105</ele>
  <time>2026-09-02T22:07:23Z</time>
  <course>8.03</course>
  <speed>0.7150524456289902</speed>
  <fix>3d</fix>
</trkpt>
<trkpt lat="33.8100889" lon="-118.3941543">
  <ele>-0.105</ele>
  <time>2026-09-02T22:07:23Z</time>
  <course>8.04</course>
  <speed>0.7150524456289902</speed>
  <fix>3d</fix>
</trkpt>
<trkpt lat="33.8100889" lon="-118.3941542">
  <ele>-0.105</ele>
  <time>2026-09-02T22:07:23Z</time>
  <course>8.04</course>
  <speed>0.7150524456289902</speed>
  <fix>3d</fix>
</trkpt>
<trkpt lat="33.8100889" lon="-118.3941542">
  <ele>-0.105</ele>
  <time>2026-09-02T22:07:23Z</time>
  <course>8.04</course>
  <speed>0.7150524456289902</speed>
  <fix>3d</fix>
</trkpt>
<trkpt lat="33.8100881" lon="-118.3941557">
  <ele>-0.1</ele>
  <time>2026-09-02T22:07:23Z</time>
  <course>44.84</course>
  <speed>0.73</speed>
  <fix>3d</fix>
</trkpt>
<trkpt lat="33.810089" lon="-118.3941542">
  <ele>-0.105</ele>
  <time>2026-09-02T22:07:23Z</time>
  <course>8.04</course>
  <speed>0.7150524456289902</speed>
  <fix>3d</fix>
</trkpt>
<trkpt lat="33.810089" lon="-118.3941541">
  <ele>-0.106</ele>
  <time>2026-09-02T22:07:23Z</time>
  <course>8.04</course>
  <speed>0.7150524456289902</speed>
  <fix>3d</fix>
</trkpt>
<trkpt lat="33.8100891" lon="-118.394154">
  <ele>-0.106</ele>
  <time>2026-09-02T22:07:23Z</time>
  <course>8.04</course>
  <speed>0.7150524456289902</speed>
  <fix>3d</fix>
</trkpt>
<trkpt lat="33.8100891" lon="-118.394154">
  <ele>-0.106</ele>
  <time>2026-09-02T22:07:23Z</time>
  <course>8.05</course>
  <speed>0.7150524456289902</speed>
  <fix>3d</fix>
</trkpt>
<trkpt lat="33.8100891" lon="-118.394154">
  <ele>-0.106</ele>
  <time>2026-09-02T22:07:23Z</time>
  <course>8.05</course>
  <speed>0.7150524456289902</speed>
  <fix>3d</fix>
</trkpt>
<trkpt lat="33.8100891" lon="-118.3941539">
  <ele>-0.106</ele>
  <time>2026-09-02T22:07:23Z</time>
  <course>8.05</course>
  <speed>0.7150524456289902</speed>
  <fix>3d</fix>
</trkpt>
<trkpt lat="33.8100892" lon="-118.3941539">
  <ele>-0.106</ele>
  <time>2026-09-02T22:07:23Z</time>
  <course>8.05</course>
  <speed>0.7150524456289902</speed>
  <fix>3d</fix>
</trkpt>
<trkpt lat="33.8100892" lon="-118.3941538">
  <ele>-0.106</ele>
  <time>2026-09-02T22:07:23Z</time>
  <course>8.05</course>
  <speed>0.7150524456289902</speed>
  <fix>3d</fix>
</trkpt>
<trkpt lat="33.8100893" lon="-118.3941538">
  <ele>-0.106</ele>
  <time>2026-09-02T22:07:23Z</time>
  <course>8.05</course>
  <speed>0.7150524456289902</speed>
  <fix>3d</fix>
</trkpt>
<trkpt lat="33.8100893" lon="-118.3941537">
  <ele>-0.106</ele>
  <time>2026-09-02T22:07:23Z</time>
  <course>8.06</course>
  <speed>0.7150524456289902</speed>
  <fix>3d</fix>
</trkpt>
<trkpt lat="33.8100893" lon="-118.3941537">
  <ele>-0.106</ele>
  <time>2026-09-02T22:07:23Z</time>
  <course>8.06</course>
  <speed>0.7150524456289902</speed>
  <fix>3d</fix>
</trkpt>
<trkpt lat="33.8100894" lon="-118.3941536">
  <ele>-0.106</ele>
  <time>2026-09-02T22:07:23Z</time>
  <course>8.06</course>
  <speed>0.7150524456289902</speed>
  <fix>3d</fix>
</trkpt>
<trkpt lat="33.8100894" lon="-118.3941536">
  <ele>-0.106</ele>
  <time>2026-09-02T22:07:23Z</time>
  <course>8.06</course>
  <speed>0.7150524456289902</speed>
  <fix>3d</fix>
</trkpt>
<trkpt lat="33.8100891" lon="-118.3941546">
  <ele>-0.1</ele>
  <time>2026-09-02T22:07:23Z</time>
  <course>44.88</course>
  <speed>0.73</speed>
  <fix>3d</fix>
</trkpt>
<trkpt lat="33.8100894" lon="-118.3941536">
  <ele>-0.106</ele>
  <time>2026-09-02T22:07:23Z</time>
  <course>8.06</course>
  <speed>0.7150524456289902</speed>
  <fix>3d</fix>
</trkpt>
<trkpt lat="33.8100895" lon="-118.3941535">
  <ele>-0.106</ele>
  <time>2026-09-02T22:07:23Z</time>
  <course>8.07</course>
  <speed>0.7150524456289902</speed>
  <fix>3d</fix>
</trkpt>
<trkpt lat="33.8100895" lon="-118.3941535">
  <ele>-0.106</ele>
  <time>2026-09-02T22:07:23Z</time>
  <course>8.07</course>
  <speed>0.7150524456289902</speed>
  <fix>3d</fix>
</trkpt>
<trkpt lat="33.8100896" lon="-118.3941534">
  <ele>-0.106</ele>
  <time>2026-09-02T22:07:23Z</time>
  <course>8.07</course>
  <speed>0.7150524456289902</speed>
  <fix>3d</fix>
</trkpt>
<trkpt lat="33.8100896" lon="-118.3941534">
  <ele>-0.106</ele>
  <time>2026-09-02T22:07:23Z</time>
  <course>8.07</course>
  <speed>0.7150524456289902</speed>
  <fix>3d</fix>
</trkpt>
<trkpt lat="33.8100897" lon="-118.3941533">
  <ele>-0.106</ele>
  <time>2026-09-02T22:07:23Z</time>
  <course>8.07</course>
  <speed>0.7150524456289902</speed>
  <fix>3d</fix>
</trkpt>
<trkpt lat="33.8100897" lon="-118.3941533">
  <ele>-0.107</ele>
  <time>2026-09-02T22:07:23Z</time>
  <course>8.07</course>
  <speed>0.7150524456289902</speed>
  <fix>3d</fix>
</trkpt>
<trkpt lat="33.8100897" lon="-118.3941532">
  <ele>-0.107</ele>
  <time>2026-09-02T22:07:23Z</time>
  <course>8.08</course>
  <speed>0.7150524456289902</speed>
  <fix>3d</fix>
</trkpt>
<trkpt lat="33.8100898" lon="-118.3941532">
  <ele>-0.107</ele>
  <time>2026-09-02T22:07:23Z</time>
  <course>8.08</course>
  <speed>0.7150524456289902</speed>
  <fix>3d</fix>
</trkpt>
<trkpt lat="33.8100898" lon="-118.3941531">
  <ele>-0.107</ele>
  <time>2026-09-02T22:07:23Z</time>
  <course>8.08</course>
  <speed>0.7150524456289902</speed>
  <fix>3d</fix>
</trkpt>
<trkpt lat="33.8100899" lon="-118.3941531">
  <ele>-0.107</ele>
  <time>2026-09-02T22:07:23Z</time>
  <course>8.08</course>
  <speed>0.7150524456289902</speed>
  <fix>3d</fix>
</trkpt>
<trkpt lat="33.8100891" lon="-118.3941546">
  <ele>-0.1</ele>
  <time>2026-09-02T22:07:23Z</time>
  <course>44.88</course>
  <speed>0.73</speed>
  <fix>3d</fix>
</trkpt>
<trkpt lat="33.8100899" lon="-118.394153">
  <ele>-0.107</ele>
  <time>2026-09-02T22:07:23Z</time>
  <course>8.08</course>
  <speed>0.7150524456289902</speed>
  <fix>3d</fix>
</trkpt>
<trkpt lat="33.8100899" lon="-118.394153">
  <ele>-0.107</ele>
  <time>2026-09-02T22:07:23Z</time>
  <course>8.09</course>
  <speed>0.7150524456289902</speed>
  <fix>3d</fix>
</trkpt>
<trkpt lat="33.81009" lon="-118.3941529">
  <ele>-0.107</ele>
  <time>2026-09-02T22:07:23Z</time>
  <course>8.09</course>
  <speed>0.7150524456289902</speed>
  <fix>3d</fix>
</trkpt>
<trkpt lat="33.81009" lon="-118.3941529">
  <ele>-0.107</ele>
  <time>2026-09-02T22:07:23Z</time>
  <course>8.09</course>
  <speed>0.7150524456289902</speed>
  <fix>3d</fix>
</trkpt>
<trkpt lat="33.81009" lon="-118.3941528">
  <ele>-0.107</ele>
  <time>2026-09-02T22:07:23Z</time>
  <course>8.09</course>
  <speed>0.7150524456289902</speed>
  <fix>3d</fix>
</trkpt>
<trkpt lat="33.8100901" lon="-118.3941528">
  <ele>-0.107</ele>
  <time>2026-09-02T22:07:23Z</time>
  <course>8.09</course>
  <speed>0.7150524456289902</speed>
  <fix>3d</fix>
</trkpt>
<trkpt lat="33.8100901" lon="-118.3941528">
  <ele>-0.107</ele>
  <time>2026-09-02T22:07:23Z</time>
  <course>8.1</course>
  <speed>0.7150524456289902</speed>
  <fix>3d</fix>
</trkpt>
<trkpt lat="33.8100902" lon="-118.3941527">
  <ele>-0.107</ele>
  <time>2026-09-02T22:07:23Z</time>
  <course>8.1</course>
  <speed>0.7150524456289902</speed>
  <fix>3d</fix>
</trkpt>
<trkpt lat="33.8100902" lon="-118.3941527">
  <ele>-0.107</ele>
  <time>2026-09-02T22:07:23Z</time>
  <course>8.1</course>
  <speed>0.7150524456289902</speed>
  <fix>3d</fix>
</trkpt>
<trkpt lat="33.8100902" lon="-118.3941526">
  <ele>-0.108</ele>
  <time>2026-09-02T22:07:23Z</time>
  <course>8.1</course>
  <speed>0.7150524456289902</speed>
  <fix>3d</fix>
</trkpt>
<trkpt lat="33.8100903" lon="-118.3941526">
  <ele>-0.108</ele>
  <time>2026-09-02T22:07:23Z</time>
  <course>8.1</course>
  <speed>0.7150524456289902</speed>
  <fix>3d</fix>
</trkpt>
<trkpt lat="33.8100903" lon="-118.3941525">
  <ele>-0.108</ele>
  <time>2026-09-02T22:07:23Z</time>
  <course>8.1</course>
  <speed>0.7150524456289902</speed>
  <fix>3d</fix>
</trkpt>
<trkpt lat="33.8100903" lon="-118.3941525">
  <ele>-0.108</ele>
  <time>2026-09-02T22:07:23Z</time>
  <course>8.1</course>
  <speed>0.7150524456289902</speed>
  <fix>3d</fix>
</trkpt>
<trkpt lat="33.81009" lon="-118.3941535">
  <ele>-0.11</ele>
  <time>2026-09-02T22:07:23Z</time>
  <course>44.93</course>
  <speed>0.73</speed>
  <fix>3d</fix>
</trkpt>
<trkpt lat="33.8100904" lon="-118.3941525">
  <ele>-0.108</ele>
  <time>2026-09-02T22:07:23Z</time>
  <course>8.11</course>
  <speed>0.7150524456289902</speed>
  <fix>3d</fix>
</trkpt>
<trkpt lat="33.8100904" lon="-118.3941524">
  <ele>-0.108</ele>
  <time>2026-09-02T22:07:23Z</time>
  <course>8.11</course>
  <speed>0.7150524456289902</speed>
  <fix>3d</fix>
</trkpt>
<trkpt lat="33.8100905" lon="-118.3941524">
  <ele>-0.108</ele>
  <time>2026-09-02T22:07:23Z</time>
  <course>8.11</course>
  <speed>0.7150524456289902</speed>
  <fix>3d</fix>
</trkpt>
<trkpt lat="33.8100905" lon="-118.3941523">
  <ele>-0.108</ele>
  <time>2026-09-02T22:07:23Z</time>
  <course>8.11</course>
  <speed>0.7150524456289902</speed>
  <fix>3d</fix>
</trkpt>
<trkpt lat="33.8100905" lon="-118.3941523">
  <ele>-0.108</ele>
  <time>2026-09-02T22:07:23Z</time>
  <course>8.11</course>
  <speed>0.7150524456289902</speed>
  <fix>3d</fix>
</trkpt>
<trkpt lat="33.8100906" lon="-118.3941522">
  <ele>-0.108</ele>
  <time>2026-09-02T22:07:23Z</time>
  <course>8.12</course>
  <speed>0.7150524456289902</speed>
  <fix>3d</fix>
</trkpt>
<trkpt lat="33.8100906" lon="-118.3941522">
  <ele>-0.109</ele>
  <time>2026-09-02T22:07:23Z</time>
  <course>8.12</course>
  <speed>0.7150524456289902</speed>
  <fix>3d</fix>
</trkpt>
<trkpt lat="33.8100906" lon="-118.3941522">
  <ele>-0.108</ele>
  <time>2026-09-02T22:07:23Z</time>
  <course>8.12</course>
  <speed>0.7150524456289902</speed>
  <fix>3d</fix>
</trkpt>
<trkpt lat="33.8100907" lon="-118.3941521">
  <ele>-0.109</ele>
  <time>2026-09-02T22:07:23Z</time>
  <course>8.12</course>
  <speed>0.7150524456289902</speed>
  <fix>3d</fix>
</trkpt>
<trkpt lat="33.8100907" lon="-118.3941521">
  <ele>-0.109</ele>
  <time>2026-09-02T22:07:23Z</time>
  <course>8.12</course>
  <speed>0.7150524456289902</speed>
  <fix>3d</fix>
</trkpt>
<trkpt lat="33.8100907" lon="-118.394152">
  <ele>-0.109</ele>
  <time>2026-09-02T22:07:23Z</time>
  <course>8.12</course>
  <speed>0.7150524456289902</speed>
  <fix>3d</fix>
</trkpt>
<trkpt lat="33.8100908" lon="-118.394152">
  <ele>-0.109</ele>
  <time>2026-09-02T22:07:23Z</time>
  <course>8.12</course>
  <speed>0.7150524456289902</speed>
  <fix>3d</fix>
</trkpt>
<trkpt lat="33.8100908" lon="-118.3941519">
  <ele>-0.109</ele>
  <time>2026-09-02T22:07:23Z</time>
  <course>8.13</course>
  <speed>0.7150524456289902</speed>
  <fix>3d</fix>
</trkpt>
<trkpt lat="33.8100908" lon="-118.3941519">
  <ele>-0.109</ele>
  <time>2026-09-02T22:07:23Z</time>
  <course>8.13</course>
  <speed>0.7150524456289902</speed>
  <fix>3d</fix>
</trkpt>
<trkpt lat="33.81009" lon="-118.3941535">
  <ele>-0.11</ele>
  <time>2026-09-02T22:07:23Z</time>
  <course>44.93</course>
  <speed>0.73</speed>
  <fix>3d</fix>
</trkpt>
<trkpt lat="33.8100909" lon="-118.3941518">
  <ele>-0.109</ele>
  <time>2026-09-02T22:07:23Z</time>
  <course>8.13</course>
  <speed>0.7150524456289902</speed>
  <fix>3d</fix>
</trkpt>
<trkpt lat="33.8100909" lon="-118.3941518">
  <ele>-0.109</ele>
  <time>2026-09-02T22:07:23Z</time>
  <course>8.13</course>
  <speed>0.7150524456289902</speed>
  <fix>3d</fix>
</trkpt>
<trkpt lat="33.810091" lon="-118.3941517">
  <ele>-0.109</ele>
  <time>2026-09-02T22:07:23Z</time>
  <course>8.13</course>
  <speed>0.7150524456289902</speed>
  <fix>3d</fix>
</trkpt>
<trkpt lat="33.810091" lon="-118.3941517">
  <ele>-0.109</ele>
  <time>2026-09-02T22:07:23Z</time>
  <course>8.14</course>
  <speed>0.7150524456289902</speed>
  <fix>3d</fix>
</trkpt>
<trkpt lat="33.8100911" lon="-118.3941516">
  <ele>-0.109</ele>
  <time>2026-09-02T22:07:23Z</time>
  <course>8.14</course>
  <speed>0.7150524456289902</speed>
  <fix>3d</fix>
</trkpt>
<trkpt lat="33.8100911" lon="-118.3941516">
  <ele>-0.109</ele>
  <time>2026-09-02T22:07:23Z</time>
  <course>8.14</course>
  <speed>0.7150524456289902</speed>
  <fix>3d</fix>
</trkpt>
<trkpt lat="33.8100911" lon="-118.3941515">
  <ele>-0.109</ele>
  <time>2026-09-02T22:07:23Z</time>
  <course>8.14</course>
  <speed>0.7150524456289902</speed>
  <fix>3d</fix>
</trkpt>
<trkpt lat="33.8100912" lon="-118.3941515">
  <ele>-0.109</ele>
  <time>2026-09-02T22:07:23Z</time>
  <course>8.14</course>
  <speed>0.7150524456289902</speed>
  <fix>3d</fix>
</trkpt>
<trkpt lat="33.8100912" lon="-118.3941515">
  <ele>-0.109</ele>
  <time>2026-09-02T22:07:23Z</time>
  <course>8.14</course>
  <speed>0.7150524456289902</speed>
  <fix>3d</fix>
</trkpt>
<trkpt lat="33.8100913" lon="-118.3941514">
  <ele>-0.108</ele>
  <time>2026-09-02T22:07:23Z</time>
  <course>8.15</course>
  <speed>0.7150524456289902</speed>
  <fix>3d</fix>
</trkpt>
<trkpt lat="33.8100913" lon="-118.3941514">
  <ele>-0.108</ele>
  <time>2026-09-02T22:07:23Z</time>
  <course>8.15</course>
  <speed>0.7150524456289902</speed>
  <fix>3d</fix>
</trkpt>
<trkpt lat="33.8100909" lon="-118.3941524">
  <ele>-0.1</ele>
  <time>2026-09-02T22:07:23Z</time>
  <course>44.97</course>
  <speed>0.73</speed>
  <fix>3d</fix>
</trkpt>
<trkpt lat="33.8100913" lon="-118.3941514">
  <ele>-0.108</ele>
  <time>2026-09-02T22:07:23Z</time>
  <course>8.15</course>
  <speed>0.7150524456289902</speed>
  <fix>3d</fix>
</trkpt>
<trkpt lat="33.8100914" lon="-118.3941513">
  <ele>-0.108</ele>
  <time>2026-09-02T22:07:23Z</time>
  <course>8.15</course>
  <speed>0.7150524456289902</speed>
  <fix>3d</fix>
</trkpt>
<trkpt lat="33.8100914" lon="-118.3941512">
  <ele>-0.108</ele>
  <time>2026-09-02T22:07:23Z</time>
  <course>8.15</course>
  <speed>0.7150524456289902</speed>
  <fix>3d</fix>
</trkpt>
<trkpt lat="33.8100915" lon="-118.3941512">
  <ele>-0.108</ele>
  <time>2026-09-02T22:07:23Z</time>
  <course>8.16</course>
  <speed>0.7150524456289902</speed>
  <fix>3d</fix>
</trkpt>
<trkpt lat="33.8100915" lon="-118.3941511">
  <ele>-0.108</ele>
  <time>2026-09-02T22:07:23Z</time>
  <course>8.16</course>
  <speed>0.7150524456289902</speed>
  <fix>3d</fix>
</trkpt>
<trkpt lat="33.8100915" lon="-118.3941511">
  <ele>-0.108</ele>
  <time>2026-09-02T22:07:23Z</time>
  <course>8.16</course>
  <speed>0.7150524456289902</speed>
  <fix>3d</fix>
</trkpt>
<trkpt lat="33.8100916" lon="-118.394151">
  <ele>-0.108</ele>
  <time>2026-09-02T22:07:23Z</time>
  <course>8.16</course>
  <speed>0.7150524456289902</speed>
  <fix>3d</fix>
</trkpt>
<trkpt lat="33.8100916" lon="-118.394151">
  <ele>-0.108</ele>
  <time>2026-09-02T22:07:23Z</time>
  <course>8.16</course>
  <speed>0.7150524456289902</speed>
  <fix>3d</fix>
</trkpt>
<trkpt lat="33.8100916" lon="-118.394151">
  <ele>-0.108</ele>
  <time>2026-09-02T22:07:23Z</time>
  <course>8.16</course>
  <speed>0.7150524456289902</speed>
  <fix>3d</fix>
</trkpt>
<trkpt lat="33.8100917" lon="-118.3941509">
  <ele>-0.108</ele>
  <time>2026-09-02T22:07:23Z</time>
  <course>8.17</course>
  <speed>0.7150524456289902</speed>
  <fix>3d</fix>
</trkpt>
<trkpt lat="33.8100917" lon="-118.3941509">
  <ele>-0.108</ele>
  <time>2026-09-02T22:07:23Z</time>
  <course>8.17</course>
  <speed>0.7150524456289902</speed>
  <fix>3d</fix>
</trkpt>
<trkpt lat="33.8100917" lon="-118.3941508">
  <ele>-0.108</ele>
  <time>2026-09-02T22:07:23Z</time>
  <course>8.17</course>
  <speed>0.7150524456289902</speed>
  <fix>3d</fix>
</trkpt>
<trkpt lat="33.8100917" lon="-118.3941508">
  <ele>-0.108</ele>
  <time>2026-09-02T22:07:23Z</time>
  <course>8.17</course>
  <speed>0.7150524456289902</speed>
  <fix>3d</fix>
</trkpt>
<trkpt lat="33.8100909" lon="-118.3941524">
  <ele>-0.1</ele>
  <time>2026-09-02T22:07:23Z</time>
  <course>44.97</course>
  <speed>0.73</speed>
  <fix>3d</fix>
</trkpt>
<trkpt lat="33.8100918" lon="-118.3941507">
  <ele>-0.108</ele>
  <time>2026-09-02T22:07:23Z</time>
  <course>8.17</course>
  <speed>0.7150524456289902</speed>
  <fix>3d</fix>
</trkpt>
<trkpt lat="33.8100919" lon="-118.3941507">
  <ele>-0.108</ele>
  <time>2026-09-02T22:07:23Z</time>
  <course>8.17</course>
  <speed>0.7150524456289902</speed>
  <fix>3d</fix>
</trkpt>
<trkpt lat="33.8100919" lon="-118.3941506">
  <ele>-0.108</ele>
  <time>2026-09-02T22:07:23Z</time>
  <course>8.18</course>
  <speed>0.7150524456289902</speed>
  <fix>3d</fix>
</trkpt>
<trkpt lat="33.8100919" lon="-118.3941506">
  <ele>-0.108</ele>
  <time>2026-09-02T22:07:23Z</time>
  <course>8.18</course>
  <speed>0.7150524456289902</speed>
  <fix>3d</fix>
</trkpt>
<trkpt lat="33.810092" lon="-118.3941506">
  <ele>-0.108</ele>
  <time>2026-09-02T22:07:23Z</time>
  <course>8.18</course>
  <speed>0.7150524456289902</speed>
  <fix>3d</fix>
</trkpt>
<trkpt lat="33.810092" lon="-118.3941505">
  <ele>-0.108</ele>
  <time>2026-09-02T22:07:23Z</time>
  <course>8.18</course>
  <speed>0.7150524456289902</speed>
  <fix>3d</fix>
</trkpt>
<trkpt lat="33.8100921" lon="-118.3941504">
  <ele>-0.108</ele>
  <time>2026-09-02T22:07:23Z</time>
  <course>8.18</course>
  <speed>0.7150524456289902</speed>
  <fix>3d</fix>
</trkpt>
<trkpt lat="33.8100921" lon="-118.3941504">
  <ele>-0.108</ele>
  <time>2026-09-02T22:07:23Z</time>
  <course>8.18</course>
  <speed>0.7150524456289902</speed>
  <fix>3d</fix>
</trkpt>
<trkpt lat="33.8100921" lon="-118.3941504">
  <ele>-0.108</ele>
  <time>2026-09-02T22:07:23Z</time>
  <course>8.19</course>
  <speed>0.7150524456289902</speed>
  <fix>3d</fix>
</trkpt>
<trkpt lat="33.8100922" lon="-118.3941503">
  <ele>-0.108</ele>
  <time>2026-09-02T22:07:23Z</time>
  <course>8.19</course>
  <speed>0.7150524456289902</speed>
  <fix>3d</fix>
</trkpt>
<trkpt lat="33.8100922" lon="-118.3941503">
  <ele>-0.108</ele>
  <time>2026-09-02T22:07:23Z</time>
  <course>8.19</course>
  <speed>0.7150524456289902</speed>
  <fix>3d</fix>
</trkpt>
<trkpt lat="33.8100922" lon="-118.3941503">
  <ele>-0.108</ele>
  <time>2026-09-02T22:07:23Z</time>
  <course>8.19</course>
  <speed>0.7150524456289902</speed>
  <fix>3d</fix>
</trkpt>
<trkpt lat="33.8100918" lon="-118.3941513">
  <ele>-0.1</ele>
  <time>2026-09-02T22:07:23Z</time>
  <course>45.01</course>
  <speed>0.73</speed>
  <fix>3d</fix>
</trkpt>
<trkpt lat="33.8100923" lon="-118.3941502">
  <ele>-0.108</ele>
  <time>2026-09-02T22:07:23Z</time>
  <course>8.19</course>
  <speed>0.7150524456289902</speed>
  <fix>3d</fix>
</trkpt>
<trkpt lat="33.8100923" lon="-118.3941501">
  <ele>-0.108</ele>
  <time>2026-09-02T22:07:23Z</time>
  <course>8.2</course>
  <speed>0.7150524456289902</speed>
  <fix>3d</fix>
</trkpt>
<trkpt lat="33.8100924" lon="-118.39415">
  <ele>-0.108</ele>
  <time>2026-09-02T22:07:23Z</time>
  <course>8.2</course>
  <speed>0.7150524456289902</speed>
  <fix>3d</fix>
</trkpt>
<trkpt lat="33.8100924" lon="-118.39415">
  <ele>-0.108</ele>
  <time>2026-09-02T22:07:23Z</time>
  <course>8.2</course>
  <speed>0.7150524456289902</speed>
  <fix>3d</fix>
</trkpt>
<trkpt lat="33.8100925" lon="-118.3941499">
  <ele>-0.108</ele>
  <time>2026-09-02T22:07:23Z</time>
  <course>8.2</course>
  <speed>0.7150524456289902</speed>
  <fix>3d</fix>
</trkpt>
<trkpt lat="33.8100925" lon="-118.3941499">
  <ele>-0.108</ele>
  <time>2026-09-02T22:07:23Z</time>
  <course>8.2</course>
  <speed>0.7150524456289902</speed>
  <fix>3d</fix>
</trkpt>
<trkpt lat="33.8100926" lon="-118.3941498">
  <ele>-0.108</ele>
  <time>2026-09-02T22:07:23Z</time>
  <course>8.21</course>
  <speed>0.7150524456289902</speed>
  <fix>3d</fix>
</trkpt>
<trkpt lat="33.8100926" lon="-118.3941498">
  <ele>-0.108</ele>
  <time>2026-09-02T22:07:23Z</time>
  <course>8.21</course>
  <speed>0.7150524456289902</speed>
  <fix>3d</fix>
</trkpt>
<trkpt lat="33.8100926" lon="-118.3941498">
  <ele>-0.108</ele>
  <time>2026-09-02T22:07:23Z</time>
  <course>8.21</course>
  <speed>0.7150524456289902</speed>
  <fix>3d</fix>
</trkpt>
<trkpt lat="33.8100927" lon="-118.3941497">
  <ele>-0.108</ele>
  <time>2026-09-02T22:07:23Z</time>
  <course>8.21</course>
  <speed>0.7150524456289902</speed>
  <fix>3d</fix>
</trkpt>
<trkpt lat="33.8100927" lon="-118.3941497">
  <ele>-0.108</ele>
  <time>2026-09-02T22:07:23Z</time>
  <course>8.21</course>
  <speed>0.7150524456289902</speed>
  <fix>3d</fix>
</trkpt>
<trkpt lat="33.8100918" lon="-118.3941513">
  <ele>-0.1</ele>
  <time>2026-09-02T22:07:23Z</time>
  <course>45.01</course>
  <speed>0.73</speed>
  <fix>3d</fix>
</trkpt>
<trkpt lat="33.8100927" lon="-118.3941496">
  <ele>-0.108</ele>
  <time>2026-09-02T22:07:23Z</time>
  <course>8.21</course>
  <speed>0.7150524456289902</speed>
  <fix>3d</fix>
</trkpt>
<trkpt lat="33.8100928" lon="-118.3941496">
  <ele>-0.108</ele>
  <time>2026-09-02T22:07:23Z</time>
  <course>8.22</course>
  <speed>0.7150524456289902</speed>
  <fix>3d</fix>
</trkpt>
<trkpt lat="33.8100928" lon="-118.3941495">
  <ele>-0.108</ele>
  <time>2026-09-02T22:07:23Z</time>
  <course>8.22</course>
  <speed>0.7150524456289902</speed>
  <fix>3d</fix>
</trkpt>
<trkpt lat="33.8100929" lon="-118.3941495">
  <ele>-0.108</ele>
  <time>2026-09-02T22:07:23Z</time>
  <course>8.22</course>
  <speed>0.7150524456289902</speed>
  <fix>3d</fix>
</trkpt>
<trkpt lat="33.8100929" lon="-118.3941494">
  <ele>-0.108</ele>
  <time>2026-09-02T22:07:23Z</time>
  <course>8.22</course>
  <speed>0.7150524456289902</speed>
  <fix>3d</fix>
</trkpt>
<trkpt lat="33.810093" lon="-118.3941494">
  <ele>-0.108</ele>
  <time>2026-09-02T22:07:23Z</time>
  <course>8.22</course>
  <speed>0.7150524456289902</speed>
  <fix>3d</fix>
</trkpt>
<trkpt lat="33.810093" lon="-118.3941493">
  <ele>-0.108</ele>
  <time>2026-09-02T22:07:23Z</time>
  <course>8.22</course>
  <speed>0.7150524456289902</speed>
  <fix>3d</fix>
</trkpt>
<trkpt lat="33.810093" lon="-118.3941493">
  <ele>-0.108</ele>
  <time>2026-09-02T22:07:23Z</time>
  <course>8.23</course>
  <speed>0.7150524456289902</speed>
  <fix>3d</fix>
</trkpt>
<trkpt lat="33.8100931" lon="-118.3941492">
  <ele>-0.108</ele>
  <time>2026-09-02T22:07:23Z</time>
  <course>8.23</course>
  <speed>0.7150524456289902</speed>
  <fix>3d</fix>
</trkpt>
<trkpt lat="33.8100931" lon="-118.3941492">
  <ele>-0.108</ele>
  <time>2026-09-02T22:07:23Z</time>
  <course>8.23</course>
  <speed>0.7150524456289902</speed>
  <fix>3d</fix>
</trkpt>
<trkpt lat="33.8100931" lon="-118.3941492">
  <ele>-0.108</ele>
  <time>2026-09-02T22:07:23Z</time>
  <course>8.23</course>
  <speed>0.7150524456289902</speed>
  <fix>3d</fix>
</trkpt>
<trkpt lat="33.8100931" lon="-118.3941492">
  <ele>-0.108</ele>
  <time>2026-09-02T22:07:23Z</time>
  <course>8.23</course>
  <speed>0.7150524456289902</speed>
  <fix>3d</fix>
</trkpt>
<trkpt lat="33.8100928" lon="-118.3941501">
  <ele>-0.1</ele>
  <time>2026-09-02T22:07:23Z</time>
  <course>45.05</course>
  <speed>0.73</speed>
  <fix>3d</fix>
</trkpt>
<trkpt lat="33.8100932" lon="-118.3941491">
  <ele>-0.108</ele>
  <time>2026-09-02T22:07:23Z</time>
  <course>8.23</course>
  <speed>0.7150524456289902</speed>
  <fix>3d</fix>
</trkpt>
<trkpt lat="33.8100932" lon="-118.394149">
  <ele>-0.108</ele>
  <time>2026-09-02T22:07:23Z</time>
  <course>8.24</course>
  <speed>0.7150524456289902</speed>
  <fix>3d</fix>
</trkpt>
<trkpt lat="33.8100933" lon="-118.394149">
  <ele>-0.108</ele>
  <time>2026-09-02T22:07:23Z</time>
  <course>8.24</course>
  <speed>0.7150524456289902</speed>
  <fix>3d</fix>
</trkpt>
<trkpt lat="33.8100933" lon="-118.3941489">
  <ele>-0.108</ele>
  <time>2026-09-02T22:07:23Z</time>
  <course>8.24</course>
  <speed>0.7150524456289902</speed>
  <fix>3d</fix>
</trkpt>
<trkpt lat="33.8100934" lon="-118.3941489">
  <ele>-0.108</ele>
  <time>2026-09-02T22:07:23Z</time>
  <course>8.24</course>
  <speed>0.7150524456289902</speed>
  <fix>3d</fix>
</trkpt>
<trkpt lat="33.8100934" lon="-118.3941488">
  <ele>-0.108</ele>
  <time>2026-09-02T22:07:23Z</time>
  <course>8.24</course>
  <speed>0.7150524456289902</speed>
  <fix>3d</fix>
</trkpt>
<trkpt lat="33.8100934" lon="-118.3941488">
  <ele>-0.108</ele>
  <time>2026-09-02T22:07:23Z</time>
  <course>8.24</course>
  <speed>0.7150524456289902</speed>
  <fix>3d</fix>
</trkpt>
<trkpt lat="33.8100935" lon="-118.3941487">
  <ele>-0.108</ele>
  <time>2026-09-02T22:07:23Z</time>
  <course>8.24</course>
  <speed>0.7150524456289902</speed>
  <fix>3d</fix>
</trkpt>
<trkpt lat="33.8100935" lon="-118.3941487">
  <ele>-0.108</ele>
  <time>2026-09-02T22:07:23Z</time>
  <course>8.25</course>
  <speed>0.7150524456289902</speed>
  <fix>3d</fix>
</trkpt>
<trkpt lat="33.8100936" lon="-118.3941487">
  <ele>-0.108</ele>
  <time>2026-09-02T22:07:23Z</time>
  <course>8.25</course>
  <speed>0.7150524456289902</speed>
  <fix>3d</fix>
</trkpt>
<trkpt lat="33.8100936" lon="-118.3941486">
  <ele>-0.108</ele>
  <time>2026-09-02T22:07:23Z</time>
  <course>8.25</course>
  <speed>0.7150524456289902</speed>
  <fix>3d</fix>
</trkpt>
<trkpt lat="33.8100936" lon="-118.3941486">
  <ele>-0.108</ele>
  <time>2026-09-02T22:07:23Z</time>
  <course>8.25</course>
  <speed>0.7150524456289902</speed>
  <fix>3d</fix>
</trkpt>
<trkpt lat="33.8100928" lon="-118.3941501">
  <ele>-0.1</ele>
  <time>2026-09-02T22:07:23Z</time>
  <course>45.05</course>
  <speed>0.73</speed>
  <fix>3d</fix>
</trkpt>
<trkpt lat="33.8100937" lon="-118.3941485">
  <ele>-0.109</ele>
  <time>2026-09-02T22:07:23Z</time>
  <course>8.25</course>
  <speed>0.7150524456289902</speed>
  <fix>3d</fix>
</trkpt>
<trkpt lat="33.8100937" lon="-118.3941485">
  <ele>-0.109</ele>
  <time>2026-09-02T22:07:23Z</time>
  <course>8.26</course>
  <speed>0.7150524456289902</speed>
  <fix>3d</fix>
</trkpt>
<trkpt lat="33.8100937" lon="-118.3941484">
  <ele>-0.109</ele>
  <time>2026-09-02T22:07:23Z</time>
  <course>8.26</course>
  <speed>0.7150524456289902</speed>
  <fix>3d</fix>
</trkpt>
<trkpt lat="33.8100938" lon="-118.3941484">
  <ele>-0.109</ele>
  <time>2026-09-02T22:07:23Z</time>
  <course>8.26</course>
  <speed>0.7150524456289902</speed>
  <fix>3d</fix>
</trkpt>
<trkpt lat="33.8100938" lon="-118.3941483">
  <ele>-0.109</ele>
  <time>2026-09-02T22:07:23Z</time>
  <course>8.26</course>
  <speed>0.7150524456289902</speed>
  <fix>3d</fix>
</trkpt>
<trkpt lat="33.8100939" lon="-118.3941483">
  <ele>-0.109</ele>
  <time>2026-09-02T22:07:23Z</time>
  <course>8.26</course>
  <speed>0.7150524456289902</speed>
  <fix>3d</fix>
</trkpt>
<trkpt lat="33.8100939" lon="-118.3941482">
  <ele>-0.109</ele>
  <time>2026-09-02T22:07:23Z</time>
  <course>8.26</course>
  <speed>0.7150524456289902</speed>
  <fix>3d</fix>
</trkpt>
<trkpt lat="33.8100939" lon="-118.3941482">
  <ele>-0.109</ele>
  <time>2026-09-02T22:07:23Z</time>
  <course>8.27</course>
  <speed>0.7150524456289902</speed>
  <fix>3d</fix>
</trkpt>
<trkpt lat="33.810094" lon="-118.3941481">
  <ele>-0.109</ele>
  <time>2026-09-02T22:07:23Z</time>
  <course>8.27</course>
  <speed>0.7150524456289902</speed>
  <fix>3d</fix>
</trkpt>
<trkpt lat="33.810094" lon="-118.3941481">
  <ele>-0.109</ele>
  <time>2026-09-02T22:07:23Z</time>
  <course>8.27</course>
  <speed>0.7150524456289902</speed>
  <fix>3d</fix>
</trkpt>
<trkpt lat="33.810094" lon="-118.3941481">
  <ele>-0.109</ele>
  <time>2026-09-02T22:07:23Z</time>
  <course>8.27</course>
  <speed>0.7150524456289902</speed>
  <fix>3d</fix>
</trkpt>
<trkpt lat="33.8100941" lon="-118.394148">
  <ele>-0.109</ele>
  <time>2026-09-02T22:07:23Z</time>
  <course>8.27</course>
  <speed>0.7150524456289902</speed>
  <fix>3d</fix>
</trkpt>
<trkpt lat="33.8100937" lon="-118.394149">
  <ele>-0.1</ele>
  <time>2026-09-02T22:07:23Z</time>
  <course>45.09</course>
  <speed>0.73</speed>
  <fix>3d</fix>
</trkpt>
<trkpt lat="33.8100941" lon="-118.394148">
  <ele>-0.109</ele>
  <time>2026-09-02T22:07:23Z</time>
  <course>8.27</course>
  <speed>0.7150524456289902</speed>
  <fix>3d</fix>
</trkpt>
<trkpt lat="33.8100941" lon="-118.3941479">
  <ele>-0.109</ele>
  <time>2026-09-02T22:07:23Z</time>
  <course>8.27</course>
  <speed>0.7150524456289902</speed>
  <fix>3d</fix>
</trkpt>
<trkpt lat="33.8100942" lon="-118.3941479">
  <ele>-0.109</ele>
  <time>2026-09-02T22:07:23Z</time>
  <course>8.28</course>
  <speed>0.7150524456289902</speed>
  <fix>3d</fix>
</trkpt>
<trkpt lat="33.8100942" lon="-118.3941478">
  <ele>-0.109</ele>
  <time>2026-09-02T22:07:23Z</time>
  <course>8.28</course>
  <speed>0.7150524456289902</speed>
  <fix>3d</fix>
</trkpt>
<trkpt lat="33.8100943" lon="-118.3941478">
  <ele>-0.11</ele>
  <time>2026-09-02T22:07:23Z</time>
  <course>8.28</course>
  <speed>0.7150524456289902</speed>
  <fix>3d</fix>
</trkpt>
<trkpt lat="33.8100943" lon="-118.3941477">
  <ele>-0.11</ele>
  <time>2026-09-02T22:07:23Z</time>
  <course>8.28</course>
  <speed>0.7150524456289902</speed>
  <fix>3d</fix>
</trkpt>
<trkpt lat="33.8100943" lon="-118.3941477">
  <ele>-0.11</ele>
  <time>2026-09-02T22:07:23Z</time>
  <course>8.28</course>
  <speed>0.7150524456289902</speed>
  <fix>3d</fix>
</trkpt>
<trkpt lat="33.8100944" lon="-118.3941476">
  <ele>-0.11</ele>
  <time>2026-09-02T22:07:23Z</time>
  <course>8.28</course>
  <speed>0.7150524456289902</speed>
  <fix>3d</fix>
</trkpt>
<trkpt lat="33.8100944" lon="-118.3941476">
  <ele>-0.11</ele>
  <time>2026-09-02T22:07:23Z</time>
  <course>8.29</course>
  <speed>0.7150524456289902</speed>
  <fix>3d</fix>
</trkpt>
<trkpt lat="33.8100945" lon="-118.3941475">
  <ele>-0.11</ele>
  <time>2026-09-02T22:07:23Z</time>
  <course>8.29</course>
  <speed>0.7150524456289902</speed>
  <fix>3d</fix>
</trkpt>
<trkpt lat="33.8100945" lon="-118.3941475">
  <ele>-0.11</ele>
  <time>2026-09-02T22:07:23Z</time>
  <course>8.29</course>
  <speed>0.7150524456289902</speed>
  <fix>3d</fix>
</trkpt>
<trkpt lat="33.8100945" lon="-118.3941475">
  <ele>-0.11</ele>
  <time>2026-09-02T22:07:23Z</time>
  <course>8.29</course>
  <speed>0.7150524456289902</speed>
  <fix>3d</fix>
</trkpt>
<trkpt lat="33.8100937" lon="-118.394149">
  <ele>-0.1</ele>
  <time>2026-09-02T22:07:23Z</time>
  <course>45.09</course>
  <speed>0.73</speed>
  <fix>3d</fix>
</trkpt>
<trkpt lat="33.8100945" lon="-118.3941475">
  <ele>-0.11</ele>
  <time>2026-09-02T22:07:23Z</time>
  <course>8.29</course>
  <speed>0.7150524456289902</speed>
  <fix>3d</fix>
</trkpt>
<trkpt lat="33.8100946" lon="-118.3941473">
  <ele>-0.11</ele>
  <time>2026-09-02T22:07:23Z</time>
  <course>8.29</course>
  <speed>0.7150524456289902</speed>
  <fix>3d</fix>
</trkpt>
<trkpt lat="33.8100947" lon="-118.3941473">
  <ele>-0.11</ele>
  <time>2026-09-02T22:07:23Z</time>
  <course>8.3</course>
  <speed>0.7150524456289902</speed>
  <fix>3d</fix>
</trkpt>
<trkpt lat="33.8100947" lon="-118.3941472">
  <ele>-0.111</ele>
  <time>2026-09-02T22:07:23Z</time>
  <course>8.3</course>
  <speed>0.7150524456289902</speed>
  <fix>3d</fix>
</trkpt>
<trkpt lat="33.8100948" lon="-118.3941472">
  <ele>-0.111</ele>
  <time>2026-09-02T22:07:23Z</time>
  <course>8.3</course>
  <speed>0.7150524456289902</speed>
  <fix>3d</fix>
</trkpt>
<trkpt lat="33.8100948" lon="-118.3941471">
  <ele>-0.111</ele>
  <time>2026-09-02T22:07:23Z</time>
  <course>8.3</course>
  <speed>0.7150524456289902</speed>
  <fix>3d</fix>
</trkpt>
<trkpt lat="33.8100949" lon="-118.3941471">
  <ele>-0.111</ele>
  <time>2026-09-02T22:07:23Z</time>
  <course>8.3</course>
  <speed>0.7150524456289902</speed>
  <fix>3d</fix>
</trkpt>
<trkpt lat="33.8100949" lon="-118.394147">
  <ele>-0.111</ele>
  <time>2026-09-02T22:07:23Z</time>
  <course>8.31</course>
  <speed>0.7150524456289902</speed>
  <fix>3d</fix>
</trkpt>
<trkpt lat="33.8100949" lon="-118.394147">
  <ele>-0.111</ele>
  <time>2026-09-02T22:07:23Z</time>
  <course>8.31</course>
  <speed>0.7150524456289902</speed>
  <fix>3d</fix>
</trkpt>
<trkpt lat="33.810095" lon="-118.3941469">
  <ele>-0.112</ele>
  <time>2026-09-02T22:07:23Z</time>
  <course>8.31</course>
  <speed>0.7150524456289902</speed>
  <fix>3d</fix>
</trkpt>
<trkpt lat="33.810095" lon="-118.3941469">
  <ele>-0.112</ele>
  <time>2026-09-02T22:07:23Z</time>
  <course>8.31</course>
  <speed>0.7150524456289902</speed>
  <fix>3d</fix>
</trkpt>
<trkpt lat="33.8100947" lon="-118.3941479">
  <ele>-0.11</ele>
  <time>2026-09-02T22:07:23Z</time>
  <course>45.13</course>
  <speed>0.73</speed>
  <fix>3d</fix>
</trkpt>
<trkpt lat="33.810095" lon="-118.3941469">
  <ele>-0.112</ele>
  <time>2026-09-02T22:07:23Z</time>
  <course>8.31</course>
  <speed>0.7150524456289902</speed>
  <fix>3d</fix>
</trkpt>
<trkpt lat="33.8100951" lon="-118.3941468">
  <ele>-0.112</ele>
  <time>2026-09-02T22:07:23Z</time>
  <course>8.31</course>
  <speed>0.7150524456289902</speed>
  <fix>3d</fix>
</trkpt>
<trkpt lat="33.8100951" lon="-118.3941468">
  <ele>-0.112</ele>
  <time>2026-09-02T22:07:23Z</time>
  <course>8.32</course>
  <speed>0.7150524456289902</speed>
  <fix>3d</fix>
</trkpt>
<trkpt lat="33.8100951" lon="-118.3941467">
  <ele>-0.112</ele>
  <time>2026-09-02T22:07:23Z</time>
  <course>8.32</course>
  <speed>0.7150524456289902</speed>
  <fix>3d</fix>
</trkpt>
<trkpt lat="33.8100952" lon="-118.3941467">
  <ele>-0.113</ele>
  <time>2026-09-02T22:07:23Z</time>
  <course>8.32</course>
  <speed>0.7150524456289902</speed>
  <fix>3d</fix>
</trkpt>
<trkpt lat="33.8100952" lon="-118.3941466">
  <ele>-0.113</ele>
  <time>2026-09-02T22:07:23Z</time>
  <course>8.32</course>
  <speed>0.7150524456289902</speed>
  <fix>3d</fix>
</trkpt>
<trkpt lat="33.8100953" lon="-118.3941466">
  <ele>-0.113</ele>
  <time>2026-09-02T22:07:23Z</time>
  <course>8.32</course>
  <speed>0.7150524456289902</speed>
  <fix>3d</fix>
</trkpt>
<trkpt lat="33.8100953" lon="-118.3941466">
  <ele>-0.113</ele>
  <time>2026-09-02T22:07:23Z</time>
  <course>8.32</course>
  <speed>0.7150524456289902</speed>
  <fix>3d</fix>
</trkpt>
<trkpt lat="33.8100953" lon="-118.3941465">
  <ele>-0.113</ele>
  <time>2026-09-02T22:07:23Z</time>
  <course>8.32</course>
  <speed>0.7150524456289902</speed>
  <fix>3d</fix>
</trkpt>
<trkpt lat="33.8100954" lon="-118.3941465">
  <ele>-0.114</ele>
  <time>2026-09-02T22:07:23Z</time>
  <course>8.33</course>
  <speed>0.7150524456289902</speed>
  <fix>3d</fix>
</trkpt>
<trkpt lat="33.8100954" lon="-118.3941464">
  <ele>-0.114</ele>
  <time>2026-09-02T22:07:23Z</time>
  <course>8.33</course>
  <speed>0.7150524456289902</speed>
  <fix>3d</fix>
</trkpt>
<trkpt lat="33.8100955" lon="-118.3941464">
  <ele>-0.114</ele>
  <time>2026-09-02T22:07:23Z</time>
  <course>8.33</course>
  <speed>0.7150524456289902</speed>
  <fix>3d</fix>
</trkpt>
<trkpt lat="33.8100955" lon="-118.3941464">
  <ele>-0.114</ele>
  <time>2026-09-02T22:07:23Z</time>
  <course>8.33</course>
  <speed>0.7150524456289902</speed>
  <fix>3d</fix>
</trkpt>
<trkpt lat="33.8100947" lon="-118.3941479">
  <ele>-0.11</ele>
  <time>2026-09-02T22:07:23Z</time>
  <course>45.13</course>
  <speed>0.73</speed>
  <fix>3d</fix>
</trkpt>
<trkpt lat="33.8100955" lon="-118.3941463">
  <ele>-0.114</ele>
  <time>2026-09-02T22:07:23Z</time>
  <course>8.33</course>
  <speed>0.7150524456289902</speed>
  <fix>3d</fix>
</trkpt>
<trkpt lat="33.8100956" lon="-118.3941462">
  <ele>-0.115</ele>
  <time>2026-09-02T22:07:23Z</time>
  <course>8.33</course>
  <speed>0.7150524456289902</speed>
  <fix>3d</fix>
</trkpt>
<trkpt lat="33.8100956" lon="-118.3941461">
  <ele>-0.115</ele>
  <time>2026-09-02T22:07:23Z</time>
  <course>8.34</course>
  <speed>0.7150524456289902</speed>
  <fix>3d</fix>
</trkpt>
<trkpt lat="33.8100957" lon="-118.3941461">
  <ele>-0.115</ele>
  <time>2026-09-02T22:07:23Z</time>
  <course>8.34</course>
  <speed>0.7150524456289902</speed>
  <fix>3d</fix>
</trkpt>
<trkpt lat="33.8100957" lon="-118.394146">
  <ele>-0.115</ele>
  <time>2026-09-02T22:07:23Z</time>
  <course>8.34</course>
  <speed>0.7150524456289902</speed>
  <fix>3d</fix>
</trkpt>
<trkpt lat="33.8100958" lon="-118.394146">
  <ele>-0.115</ele>
  <time>2026-09-02T22:07:23Z</time>
  <course>8.34</course>
  <speed>0.7150524456289902</speed>
  <fix>3d</fix>
</trkpt>
<trkpt lat="33.8100958" lon="-118.3941459">
  <ele>-0.115</ele>
  <time>2026-09-02T22:07:23Z</time>
  <course>8.34</course>
  <speed>0.7150524456289902</speed>
  <fix>3d</fix>
</trkpt>
<trkpt lat="33.8100958" lon="-118.3941459">
  <ele>-0.115</ele>
  <time>2026-09-02T22:07:23Z</time>
  <course>8.35</course>
  <speed>0.7150524456289902</speed>
  <fix>3d</fix>
</trkpt>
<trkpt lat="33.8100959" lon="-118.3941458">
  <ele>-0.115</ele>
  <time>2026-09-02T22:07:23Z</time>
  <course>8.35</course>
  <speed>0.7150524456289902</speed>
  <fix>3d</fix>
</trkpt>
<trkpt lat="33.8100959" lon="-118.3941458">
  <ele>-0.115</ele>
  <time>2026-09-02T22:07:23Z</time>
  <course>8.35</course>
  <speed>0.7150524456289902</speed>
  <fix>3d</fix>
</trkpt>
<trkpt lat="33.8100959" lon="-118.3941458">
  <ele>-0.115</ele>
  <time>2026-09-02T22:07:23Z</time>
  <course>8.35</course>
  <speed>0.7150524456289902</speed>
  <fix>3d</fix>
</trkpt>
<trkpt lat="33.8100956" lon="-118.3941467">
  <ele>-0.1</ele>
  <time>2026-09-02T22:07:23Z</time>
  <course>45.17</course>
  <speed>0.73</speed>
  <fix>3d</fix>
</trkpt>
<trkpt lat="33.810096" lon="-118.3941457">
  <ele>-0.116</ele>
  <time>2026-09-02T22:07:23Z</time>
  <course>8.35</course>
  <speed>0.7150524456289902</speed>
  <fix>3d</fix>
</trkpt>
<trkpt lat="33.8100961" lon="-118.3941456">
  <ele>-0.116</ele>
  <time>2026-09-02T22:07:23Z</time>
  <course>8.35</course>
  <speed>0.7150524456289902</speed>
  <fix>3d</fix>
</trkpt>
<trkpt lat="33.8100961" lon="-118.3941456">
  <ele>-0.116</ele>
  <time>2026-09-02T22:07:23Z</time>
  <course>8.36</course>
  <speed>0.7150524456289902</speed>
  <fix>3d</fix>
</trkpt>
<trkpt lat="33.8100961" lon="-118.3941455">
  <ele>-0.116</ele>
  <time>2026-09-02T22:07:23Z</time>
  <course>8.36</course>
  <speed>0.7150524456289902</speed>
  <fix>3d</fix>
</trkpt>
<trkpt lat="33.8100962" lon="-118.3941455">
  <ele>-0.116</ele>
  <time>2026-09-02T22:07:23Z</time>
  <course>8.36</course>
  <speed>0.7150524456289902</speed>
  <fix>3d</fix>
</trkpt>
<trkpt lat="33.8100962" lon="-118.3941455">
  <ele>-0.116</ele>
  <time>2026-09-02T22:07:23Z</time>
  <course>8.36</course>
  <speed>0.7150524456289902</speed>
  <fix>3d</fix>
</trkpt>
<trkpt lat="33.8100962" lon="-118.3941454">
  <ele>-0.116</ele>
  <time>2026-09-02T22:07:23Z</time>
  <course>8.36</course>
  <speed>0.7150524456289902</speed>
  <fix>3d</fix>
</trkpt>
<trkpt lat="33.8100963" lon="-118.3941454">
  <ele>-0.116</ele>
  <time>2026-09-02T22:07:23Z</time>
  <course>8.36</course>
  <speed>0.7150524456289902</speed>
  <fix>3d</fix>
</trkpt>
<trkpt lat="33.8100963" lon="-118.3941453">
  <ele>-0.116</ele>
  <time>2026-09-02T22:07:23Z</time>
  <course>8.36</course>
  <speed>0.7150524456289902</speed>
  <fix>3d</fix>
</trkpt>
<trkpt lat="33.8100964" lon="-118.3941453">
  <ele>-0.116</ele>
  <time>2026-09-02T22:07:23Z</time>
  <course>8.37</course>
  <speed>0.7150524456289902</speed>
  <fix>3d</fix>
</trkpt>
<trkpt lat="33.8100964" lon="-118.3941452">
  <ele>-0.116</ele>
  <time>2026-09-02T22:07:23Z</time>
  <course>8.37</course>
  <speed>0.7150524456289902</speed>
  <fix>3d</fix>
</trkpt>
<trkpt lat="33.8100956" lon="-118.3941467">
  <ele>-0.1</ele>
  <time>2026-09-02T22:07:23Z</time>
  <course>45.17</course>
  <speed>0.73</speed>
  <fix>3d</fix>
</trkpt>
<trkpt lat="33.8100964" lon="-118.3941452">
  <ele>-0.116</ele>
  <time>2026-09-02T22:07:23Z</time>
  <course>8.37</course>
  <speed>0.7150524456289902</speed>
  <fix>3d</fix>
</trkpt>
<trkpt lat="33.8100965" lon="-118.3941451">
  <ele>-0.116</ele>
  <time>2026-09-02T22:07:23Z</time>
  <course>8.37</course>
  <speed>0.7150524456289902</speed>
  <fix>3d</fix>
</trkpt>
<trkpt lat="33.8100965" lon="-118.3941451">
  <ele>-0.116</ele>
  <time>2026-09-02T22:07:23Z</time>
  <course>8.37</course>
  <speed>0.7150524456289902</speed>
  <fix>3d</fix>
</trkpt>
<trkpt lat="33.8100966" lon="-118.394145">
  <ele>-0.116</ele>
  <time>2026-09-02T22:07:23Z</time>
  <course>8.38</course>
  <speed>0.7150524456289902</speed>
  <fix>3d</fix>
</trkpt>
<trkpt lat="33.8100966" lon="-118.394145">
  <ele>-0.116</ele>
  <time>2026-09-02T22:07:23Z</time>
  <course>8.38</course>
  <speed>0.7150524456289902</speed>
  <fix>3d</fix>
</trkpt>
<trkpt lat="33.8100966" lon="-118.3941449">
  <ele>-0.116</ele>
  <time>2026-09-02T22:07:23Z</time>
  <course>8.38</course>
  <speed>0.7150524456289902</speed>
  <fix>3d</fix>
</trkpt>
<trkpt lat="33.8100967" lon="-118.3941449">
  <ele>-0.116</ele>
  <time>2026-09-02T22:07:23Z</time>
  <course>8.38</course>
  <speed>0.7150524456289902</speed>
  <fix>3d</fix>
</trkpt>
<trkpt lat="33.8100967" lon="-118.3941448">
  <ele>-0.116</ele>
  <time>2026-09-02T22:07:23Z</time>
  <course>8.38</course>
  <speed>0.7150524456289902</speed>
  <fix>3d</fix>
</trkpt>
<trkpt lat="33.8100968" lon="-118.3941447">
  <ele>-0.116</ele>
  <time>2026-09-02T22:07:23Z</time>
  <course>8.38</course>
  <speed>0.7150524456289902</speed>
  <fix>3d</fix>
</trkpt>
<trkpt lat="33.8100968" lon="-118.3941447">
  <ele>-0.116</ele>
  <time>2026-09-02T22:07:23Z</time>
  <course>8.39</course>
  <speed>0.7150524456289902</speed>
  <fix>3d</fix>
</trkpt>
<trkpt lat="33.8100969" lon="-118.3941447">
  <ele>-0.116</ele>
  <time>2026-09-02T22:07:23Z</time>
  <course>8.39</course>
  <speed>0.7150524456289902</speed>
  <fix>3d</fix>
</trkpt>
<trkpt lat="33.8100965" lon="-118.3941456">
  <ele>-0.1</ele>
  <time>2026-09-02T22:07:23Z</time>
  <course>45.21</course>
  <speed>0.73</speed>
  <fix>3d</fix>
</trkpt>
<trkpt lat="33.8100969" lon="-118.3941446">
  <ele>-0.116</ele>
  <time>2026-09-02T22:07:23Z</time>
  <course>8.39</course>
  <speed>0.7150524456289902</speed>
  <fix>3d</fix>
</trkpt>
<trkpt lat="33.8100969" lon="-118.3941446">
  <ele>-0.116</ele>
  <time>2026-09-02T22:07:23Z</time>
  <course>8.39</course>
  <speed>0.7150524456289902</speed>
  <fix>3d</fix>
</trkpt>
<trkpt lat="33.810097" lon="-118.3941445">
  <ele>-0.116</ele>
  <time>2026-09-02T22:07:23Z</time>
  <course>8.39</course>
  <speed>0.7150524456289902</speed>
  <fix>3d</fix>
</trkpt>
<trkpt lat="33.810097" lon="-118.3941445">
  <ele>-0.116</ele>
  <time>2026-09-02T22:07:23Z</time>
  <course>8.39</course>
  <speed>0.7150524456289902</speed>
  <fix>3d</fix>
</trkpt>
<trkpt lat="33.8100971" lon="-118.3941444">
  <ele>-0.116</ele>
  <time>2026-09-02T22:07:23Z</time>
  <course>8.39</course>
  <speed>0.7150524456289902</speed>
  <fix>3d</fix>
</trkpt>
<trkpt lat="33.8100971" lon="-118.3941444">
  <ele>-0.116</ele>
  <time>2026-09-02T22:07:23Z</time>
  <course>8.4</course>
  <speed>0.7150524456289902</speed>
  <fix>3d</fix>
</trkpt>
<trkpt lat="33.8100972" lon="-118.3941443">
  <ele>-0.116</ele>
  <time>2026-09-02T22:07:23Z</time>
  <course>8.4</course>
  <speed>0.7150524456289902</speed>
  <fix>3d</fix>
</trkpt>
<trkpt lat="33.8100972" lon="-118.3941443">
  <ele>-0.116</ele>
  <time>2026-09-02T22:07:23Z</time>
  <course>8.4</course>
  <speed>0.7150524456289902</speed>
  <fix>3d</fix>
</trkpt>
<trkpt lat="33.8100972" lon="-118.3941442">
  <ele>-0.116</ele>
  <time>2026-09-02T22:07:23Z</time>
  <course>8.4</course>
  <speed>0.7150524456289902</speed>
  <fix>3d</fix>
</trkpt>
<trkpt lat="33.8100973" lon="-118.3941442">
  <ele>-0.116</ele>
  <time>2026-09-02T22:07:23Z</time>
  <course>8.4</course>
  <speed>0.7150524456289902</speed>
  <fix>3d</fix>
</trkpt>
<trkpt lat="33.8100973" lon="-118.3941441">
  <ele>-0.116</ele>
  <time>2026-09-02T22:07:23Z</time>
  <course>8.41</course>
  <speed>0.7150524456289902</speed>
  <fix>3d</fix>
</trkpt>
<trkpt lat="33.8100973" lon="-118.3941441">
  <ele>-0.116</ele>
  <time>2026-09-02T22:07:23Z</time>
  <course>8.41</course>
  <speed>0.7150524456289902</speed>
  <fix>3d</fix>
</trkpt>
<trkpt lat="33.8100965" lon="-118.3941456">
  <ele>-0.1</ele>
  <time>2026-09-02T22:07:23Z</time>
  <course>45.21</course>
  <speed>0.73</speed>
  <fix>3d</fix>
</trkpt>
<trkpt lat="33.8100974" lon="-118.394144">
  <ele>-0.116</ele>
  <time>2026-09-02T22:07:23Z</time>
  <course>8.41</course>
  <speed>0.7150524456289902</speed>
  <fix>3d</fix>
</trkpt>
<trkpt lat="33.8100975" lon="-118.3941439">
  <ele>-0.116</ele>
  <time>2026-09-02T22:07:23Z</time>
  <course>8.41</course>
  <speed>0.7150524456289902</speed>
  <fix>3d</fix>
</trkpt>
<trkpt lat="33.8100975" lon="-118.3941439">
  <ele>-0.116</ele>
  <time>2026-09-02T22:07:23Z</time>
  <course>8.41</course>
  <speed>0.7150524456289902</speed>
  <fix>3d</fix>
</trkpt>
<trkpt lat="33.8100976" lon="-118.3941438">
  <ele>-0.116</ele>
  <time>2026-09-02T22:07:23Z</time>
  <course>8.42</course>
  <speed>0.7150524456289902</speed>
  <fix>3d</fix>
</trkpt>
<trkpt lat="33.8100976" lon="-118.3941437">
  <ele>-0.116</ele>
  <time>2026-09-02T22:07:23Z</time>
  <course>8.42</course>
  <speed>0.7150524456289902</speed>
  <fix>3d</fix>
</trkpt>
<trkpt lat="33.8100977" lon="-118.3941437">
  <ele>-0.116</ele>
  <time>2026-09-02T22:07:23Z</time>
  <course>8.42</course>
  <speed>0.7150524456289902</speed>
  <fix>3d</fix>
</trkpt>
<trkpt lat="33.8100977" lon="-118.3941436">
  <ele>-0.116</ele>
  <time>2026-09-02T22:07:23Z</time>
  <course>8.42</course>
  <speed>0.7150524456289902</speed>
  <fix>3d</fix>
</trkpt>
<trkpt lat="33.8100977" lon="-118.3941436">
  <ele>-0.116</ele>
  <time>2026-09-02T22:07:23Z</time>
  <course>8.42</course>
  <speed>0.7150524456289902</speed>
  <fix>3d</fix>
</trkpt>
<trkpt lat="33.8100978" lon="-118.3941436">
  <ele>-0.116</ele>
  <time>2026-09-02T22:07:23Z</time>
  <course>8.42</course>
  <speed>0.7150524456289902</speed>
  <fix>3d</fix>
</trkpt>
<trkpt lat="33.8100978" lon="-118.3941435">
  <ele>-0.116</ele>
  <time>2026-09-02T22:07:23Z</time>
  <course>8.42</course>
  <speed>0.7150524456289902</speed>
  <fix>3d</fix>
</trkpt>
<trkpt lat="33.8100975" lon="-118.3941445">
  <ele>-0.1</ele>
  <time>2026-09-02T22:07:23Z</time>
  <course>45.25</course>
  <speed>0.73</speed>
  <fix>3d</fix>
</trkpt>
<trkpt lat="33.8100978" lon="-118.3941435">
  <ele>-0.116</ele>
  <time>2026-09-02T22:07:23Z</time>
  <course>8.42</course>
  <speed>0.7150524456289902</speed>
  <fix>3d</fix>
</trkpt>
<trkpt lat="33.8100979" lon="-118.3941434">
  <ele>-0.116</ele>
  <time>2026-09-02T22:07:23Z</time>
  <course>8.43</course>
  <speed>0.7150524456289902</speed>
  <fix>3d</fix>
</trkpt>
<trkpt lat="33.8100979" lon="-118.3941434">
  <ele>-0.116</ele>
  <time>2026-09-02T22:07:23Z</time>
  <course>8.43</course>
  <speed>0.7150524456289902</speed>
  <fix>3d</fix>
</trkpt>
<trkpt lat="33.810098" lon="-118.3941433">
  <ele>-0.116</ele>
  <time>2026-09-02T22:07:23Z</time>
  <course>8.43</course>
  <speed>0.7150524456289902</speed>
  <fix>3d</fix>
</trkpt>
<trkpt lat="33.810098" lon="-118.3941433">
  <ele>-0.116</ele>
  <time>2026-09-02T22:07:23Z</time>
  <course>8.43</course>
  <speed>0.7150524456289902</speed>
  <fix>3d</fix>
</trkpt>
<trkpt lat="33.8100981" lon="-118.3941432">
  <ele>-0.116</ele>
  <time>2026-09-02T22:07:23Z</time>
  <course>8.44</course>
  <speed>0.7150524456289902</speed>
  <fix>3d</fix>
</trkpt>
<trkpt lat="33.8100981" lon="-118.3941432">
  <ele>-0.116</ele>
  <time>2026-09-02T22:07:23Z</time>
  <course>8.44</course>
  <speed>0.7150524456289902</speed>
  <fix>3d</fix>
</trkpt>
<trkpt lat="33.8100981" lon="-118.3941431">
  <ele>-0.116</ele>
  <time>2026-09-02T22:07:23Z</time>
  <course>8.44</course>
  <speed>0.7150524456289902</speed>
  <fix>3d</fix>
</trkpt>
<trkpt lat="33.8100982" lon="-118.3941431">
  <ele>-0.115</ele>
  <time>2026-09-02T22:07:23Z</time>
  <course>8.44</course>
  <speed>0.7150524456289902</speed>
  <fix>3d</fix>
</trkpt>
<trkpt lat="33.8100982" lon="-118.394143">
  <ele>-0.115</ele>
  <time>2026-09-02T22:07:23Z</time>
  <course>8.44</course>
  <speed>0.7150524456289902</speed>
  <fix>3d</fix>
</trkpt>
<trkpt lat="33.8100983" lon="-118.394143">
  <ele>-0.115</ele>
  <time>2026-09-02T22:07:23Z</time>
  <course>8.44</course>
  <speed>0.7150524456289902</speed>
  <fix>3d</fix>
</trkpt>
<trkpt lat="33.8100975" lon="-118.3941445">
  <ele>-0.1</ele>
  <time>2026-09-02T22:07:23Z</time>
  <course>45.25</course>
  <speed>0.73</speed>
  <fix>3d</fix>
</trkpt>
<trkpt lat="33.8100983" lon="-118.394143">
  <ele>-0.115</ele>
  <time>2026-09-02T22:07:23Z</time>
  <course>8.44</course>
  <speed>0.7150524456289902</speed>
  <fix>3d</fix>
</trkpt>
<trkpt lat="33.8100983" lon="-118.3941429">
  <ele>-0.115</ele>
  <time>2026-09-02T22:07:23Z</time>
  <course>8.44</course>
  <speed>0.7150524456289902</speed>
  <fix>3d</fix>
</trkpt>
<trkpt lat="33.8100984" lon="-118.3941428">
  <ele>-0.115</ele>
  <time>2026-09-02T22:07:23Z</time>
  <course>8.45</course>
  <speed>0.7150524456289902</speed>
  <fix>3d</fix>
</trkpt>
<trkpt lat="33.8100984" lon="-118.3941428">
  <ele>-0.115</ele>
  <time>2026-09-02T22:07:23Z</time>
  <course>8.45</course>
  <speed>0.7150524456289902</speed>
  <fix>3d</fix>
</trkpt>
<trkpt lat="33.8100985" lon="-118.3941427">
  <ele>-0.115</ele>
  <time>2026-09-02T22:07:23Z</time>
  <course>8.45</course>
  <speed>0.7150524456289902</speed>
  <fix>3d</fix>
</trkpt>
<trkpt lat="33.8100985" lon="-118.3941427">
  <ele>-0.114</ele>
  <time>2026-09-02T22:07:23Z</time>
  <course>8.45</course>
  <speed>0.7150524456289902</speed>
  <fix>3d</fix>
</trkpt>
<trkpt lat="33.8100985" lon="-118.3941426">
  <ele>-0.115</ele>
  <time>2026-09-02T22:07:23Z</time>
  <course>8.45</course>
  <speed>0.7150524456289902</speed>
  <fix>3d</fix>
</trkpt>
<trkpt lat="33.8100986" lon="-118.3941426">
  <ele>-0.114</ele>
  <time>2026-09-02T22:07:23Z</time>
  <course>8.46</course>
  <speed>0.7150524456289902</speed>
  <fix>3d</fix>
</trkpt>
<trkpt lat="33.8100986" lon="-118.3941425">
  <ele>-0.114</ele>
  <time>2026-09-02T22:07:23Z</time>
  <course>8.46</course>
  <speed>0.7150524456289902</speed>
  <fix>3d</fix>
</trkpt>
<trkpt lat="33.8100987" lon="-118.3941425">
  <ele>-0.114</ele>
  <time>2026-09-02T22:07:23Z</time>
  <course>8.46</course>
  <speed>0.7150524456289902</speed>
  <fix>3d</fix>
</trkpt>
<trkpt lat="33.8100987" lon="-118.3941424">
  <ele>-0.114</ele>
  <time>2026-09-02T22:07:23Z</time>
  <course>8.46</course>
  <speed>0.7150524456289902</speed>
  <fix>3d</fix>
</trkpt>
<trkpt lat="33.8100987" lon="-118.3941424">
  <ele>-0.114</ele>
  <time>2026-09-02T22:07:23Z</time>
  <course>8.46</course>
  <speed>0.7150524456289902</speed>
  <fix>3d</fix>
</trkpt>
<trkpt lat="33.8100984" lon="-118.3941434">
  <ele>-0.1</ele>
  <time>2026-09-02T22:07:23Z</time>
  <course>45.28</course>
  <speed>0.73</speed>
  <fix>3d</fix>
</trkpt>
<trkpt lat="33.8100987" lon="-118.3941424">
  <ele>-0.114</ele>
  <time>2026-09-02T22:07:23Z</time>
  <course>8.46</course>
  <speed>0.7150524456289902</speed>
  <fix>3d</fix>
</trkpt>
<trkpt lat="33.8100988" lon="-118.3941423">
  <ele>-0.114</ele>
  <time>2026-09-02T22:07:23Z</time>
  <course>8.46</course>
  <speed>0.7150524456289902</speed>
  <fix>3d</fix>
</trkpt>
<trkpt lat="33.8100989" lon="-118.3941423">
  <ele>-0.113</ele>
  <time>2026-09-02T22:07:23Z</time>
  <course>8.47</course>
  <speed>0.7150524456289902</speed>
  <fix>3d</fix>
</trkpt>
<trkpt lat="33.8100989" lon="-118.3941422">
  <ele>-0.113</ele>
  <time>2026-09-02T22:07:23Z</time>
  <course>8.47</course>
  <speed>0.7150524456289902</speed>
  <fix>3d</fix>
</trkpt>
<trkpt lat="33.8100989" lon="-118.3941422">
  <ele>-0.113</ele>
  <time>2026-09-02T22:07:23Z</time>
  <course>8.47</course>
  <speed>0.7150524456289902</speed>
  <fix>3d</fix>
</trkpt>
<trkpt lat="33.810099" lon="-118.3941421">
  <ele>-0.114</ele>
  <time>2026-09-02T22:07:23Z</time>
  <course>8.47</course>
  <speed>0.7150524456289902</speed>
  <fix>3d</fix>
</trkpt>
<trkpt lat="33.810099" lon="-118.3941421">
  <ele>-0.114</ele>
  <time>2026-09-02T22:07:23Z</time>
  <course>8.47</course>
  <speed>0.7150524456289902</speed>
  <fix>3d</fix>
</trkpt>
<trkpt lat="33.810099" lon="-118.394142">
  <ele>-0.114</ele>
  <time>2026-09-02T22:07:23Z</time>
  <course>8.47</course>
  <speed>0.7150524456289902</speed>
  <fix>3d</fix>
</trkpt>
<trkpt lat="33.8100991" lon="-118.394142">
  <ele>-0.114</ele>
  <time>2026-09-02T22:07:23Z</time>
  <course>8.47</course>
  <speed>0.7150524456289902</speed>
  <fix>3d</fix>
</trkpt>
<trkpt lat="33.8100991" lon="-118.3941419">
  <ele>-0.114</ele>
  <time>2026-09-02T22:07:23Z</time>
  <course>8.48</course>
  <speed>0.7150524456289902</speed>
  <fix>3d</fix>
</trkpt>
<trkpt lat="33.8100992" lon="-118.3941419">
  <ele>-0.114</ele>
  <time>2026-09-02T22:07:23Z</time>
  <course>8.48</course>
  <speed>0.7150524456289902</speed>
  <fix>3d</fix>
</trkpt>
<trkpt lat="33.8100992" lon="-118.3941418">
  <ele>-0.114</ele>
  <time>2026-09-02T22:07:23Z</time>
  <course>8.48</course>
  <speed>0.7150524456289902</speed>
  <fix>3d</fix>
</trkpt>
<trkpt lat="33.8100984" lon="-118.3941434">
  <ele>-0.1</ele>
  <time>2026-09-02T22:07:23Z</time>
  <course>45.28</course>
  <speed>0.73</speed>
  <fix>3d</fix>
</trkpt>
<trkpt lat="33.8100992" lon="-118.3941418">
  <ele>-0.114</ele>
  <time>2026-09-02T22:07:23Z</time>
  <course>8.48</course>
  <speed>0.7150524456289902</speed>
  <fix>3d</fix>
</trkpt>
<trkpt lat="33.8100993" lon="-118.3941417">
  <ele>-0.114</ele>
  <time>2026-09-02T22:07:23Z</time>
  <course>8.48</course>
  <speed>0.7150524456289902</speed>
  <fix>3d</fix>
</trkpt>
<trkpt lat="33.8100993" lon="-118.3941417">
  <ele>-0.114</ele>
  <time>2026-09-02T22:07:23Z</time>
  <course>8.48</course>
  <speed>0.7150524456289902</speed>
  <fix>3d</fix>
</trkpt>
<trkpt lat="33.8100994" lon="-118.3941416">
  <ele>-0.114</ele>
  <time>2026-09-02T22:07:23Z</time>
  <course>8.49</course>
  <speed>0.7150524456289902</speed>
  <fix>3d</fix>
</trkpt>
<trkpt lat="33.8100994" lon="-118.3941416">
  <ele>-0.114</ele>
  <time>2026-09-02T22:07:23Z</time>
  <course>8.49</course>
  <speed>0.7150524456289902</speed>
  <fix>3d</fix>
</trkpt>
<trkpt lat="33.8100995" lon="-118.3941415">
  <ele>-0.114</ele>
  <time>2026-09-02T22:07:23Z</time>
  <course>8.49</course>
  <speed>0.7150524456289902</speed>
  <fix>3d</fix>
</trkpt>
<trkpt lat="33.8100995" lon="-118.3941415">
  <ele>-0.114</ele>
  <time>2026-09-02T22:07:23Z</time>
  <course>8.49</course>
  <speed>0.7150524456289902</speed>
  <fix>3d</fix>
</trkpt>
<trkpt lat="33.8100995" lon="-118.3941414">
  <ele>-0.114</ele>
  <time>2026-09-02T22:07:23Z</time>
  <course>8.49</course>
  <speed>0.7150524456289902</speed>
  <fix>3d</fix>
</trkpt>
<trkpt lat="33.8100996" lon="-118.3941414">
  <ele>-0.114</ele>
  <time>2026-09-02T22:07:23Z</time>
  <course>8.49</course>
  <speed>0.7150524456289902</speed>
  <fix>3d</fix>
</trkpt>
<trkpt lat="33.8100996" lon="-118.3941413">
  <ele>-0.114</ele>
  <time>2026-09-02T22:07:23Z</time>
  <course>8.49</course>
  <speed>0.7150524456289902</speed>
  <fix>3d</fix>
</trkpt>
<trkpt lat="33.8100997" lon="-118.3941413">
  <ele>-0.114</ele>
  <time>2026-09-02T22:07:23Z</time>
  <course>8.5</course>
  <speed>0.7150524456289902</speed>
  <fix>3d</fix>
</trkpt>
<trkpt lat="33.8100997" lon="-118.3941413">
  <ele>-0.114</ele>
  <time>2026-09-02T22:07:23Z</time>
  <course>8.5</course>
  <speed>0.7150524456289902</speed>
  <fix>3d</fix>
</trkpt>
<trkpt lat="33.8100993" lon="-118.3941422">
  <ele>-0.11</ele>
  <time>2026-09-02T22:07:23Z</time>
  <course>45.32</course>
  <speed>0.73</speed>
  <fix>3d</fix>
</trkpt>
<trkpt lat="33.8100997" lon="-118.3941412">
  <ele>-0.115</ele>
  <time>2026-09-02T22:07:23Z</time>
  <course>8.5</course>
  <speed>0.7150524456289902</speed>
  <fix>3d</fix>
</trkpt>
<trkpt lat="33.8100998" lon="-118.3941411">
  <ele>-0.115</ele>
  <time>2026-09-02T22:07:23Z</time>
  <course>8.5</course>
  <speed>0.7150524456289902</speed>
  <fix>3d</fix>
</trkpt>
<trkpt lat="33.8100998" lon="-118.3941411">
  <ele>-0.115</ele>
  <time>2026-09-02T22:07:23Z</time>
  <course>8.5</course>
  <speed>0.7150524456289902</speed>
  <fix>3d</fix>
</trkpt>
<trkpt lat="33.8100999" lon="-118.394141">
  <ele>-0.115</ele>
  <time>2026-09-02T22:07:23Z</time>
  <course>8.5</course>
  <speed>0.7150524456289902</speed>
  <fix>3d</fix>
</trkpt>
<trkpt lat="33.8100999" lon="-118.394141">
  <ele>-0.115</ele>
  <time>2026-09-02T22:07:23Z</time>
  <course>8.51</course>
  <speed>0.7150524456289902</speed>
  <fix>3d</fix>
</trkpt>
<trkpt lat="33.8101" lon="-118.3941409">
  <ele>-0.115</ele>
  <time>2026-09-02T22:07:23Z</time>
  <course>8.51</course>
  <speed>0.7150524456289902</speed>
  <fix>3d</fix>
</trkpt>
<trkpt lat="33.8101" lon="-118.3941409">
  <ele>-0.114</ele>
  <time>2026-09-02T22:07:23Z</time>
  <course>8.51</course>
  <speed>0.7150524456289902</speed>
  <fix>3d</fix>
</trkpt>
<trkpt lat="33.8101" lon="-118.3941408">
  <ele>-0.114</ele>
  <time>2026-09-02T22:07:23Z</time>
  <course>8.51</course>
  <speed>0.7150524456289902</speed>
  <fix>3d</fix>
</trkpt>
<trkpt lat="33.8101001" lon="-118.3941408">
  <ele>-0.114</ele>
  <time>2026-09-02T22:07:23Z</time>
  <course>8.51</course>
  <speed>0.7150524456289902</speed>
  <fix>3d</fix>
</trkpt>
<trkpt lat="33.8101001" lon="-118.3941408">
  <ele>-0.114</ele>
  <time>2026-09-02T22:07:23Z</time>
  <course>8.51</course>
  <speed>0.7150524456289902</speed>
  <fix>3d</fix>
</trkpt>
<trkpt lat="33.8101001" lon="-118.3941407">
  <ele>-0.114</ele>
  <time>2026-09-02T22:07:23Z</time>
  <course>8.51</course>
  <speed>0.7150524456289902</speed>
  <fix>3d</fix>
</trkpt>
<trkpt lat="33.8100993" lon="-118.3941422">
  <ele>-0.11</ele>
  <time>2026-09-02T22:07:23Z</time>
  <course>45.32</course>
  <speed>0.73</speed>
  <fix>3d</fix>
</trkpt>
<trkpt lat="33.8101001" lon="-118.3941407">
  <ele>-0.114</ele>
  <time>2026-09-02T22:07:23Z</time>
  <course>8.51</course>
  <speed>0.7150524456289902</speed>
  <fix>3d</fix>
</trkpt>
<trkpt lat="33.8101002" lon="-118.3941406">
  <ele>-0.114</ele>
  <time>2026-09-02T22:07:23Z</time>
  <course>8.52</course>
  <speed>0.7150524456289902</speed>
  <fix>3d</fix>
</trkpt>
<trkpt lat="33.8101003" lon="-118.3941406">
  <ele>-0.114</ele>
  <time>2026-09-02T22:07:23Z</time>
  <course>8.52</course>
  <speed>0.7150524456289902</speed>
  <fix>3d</fix>
</trkpt>
<trkpt lat="33.8101003" lon="-118.3941405">
  <ele>-0.114</ele>
  <time>2026-09-02T22:07:23Z</time>
  <course>8.52</course>
  <speed>0.7150524456289902</speed>
  <fix>3d</fix>
</trkpt>
<trkpt lat="33.8101003" lon="-118.3941405">
  <ele>-0.114</ele>
  <time>2026-09-02T22:07:23Z</time>
  <course>8.52</course>
  <speed>0.7150524456289902</speed>
  <fix>3d</fix>
</trkpt>
<trkpt lat="33.8101004" lon="-118.3941404">
  <ele>-0.114</ele>
  <time>2026-09-02T22:07:23Z</time>
  <course>8.52</course>
  <speed>0.7150524456289902</speed>
  <fix>3d</fix>
</trkpt>
<trkpt lat="33.8101004" lon="-118.3941404">
  <ele>-0.114</ele>
  <time>2026-09-02T22:07:23Z</time>
  <course>8.52</course>
  <speed>0.7150524456289902</speed>
  <fix>3d</fix>
</trkpt>
<trkpt lat="33.8101004" lon="-118.3941403">
  <ele>-0.114</ele>
  <time>2026-09-02T22:07:23Z</time>
  <course>8.53</course>
  <speed>0.7150524456289902</speed>
  <fix>3d</fix>
</trkpt>
<trkpt lat="33.8101005" lon="-118.3941403">
  <ele>-0.114</ele>
  <time>2026-09-02T22:07:23Z</time>
  <course>8.53</course>
  <speed>0.7150524456289902</speed>
  <fix>3d</fix>
</trkpt>
<trkpt lat="33.8101005" lon="-118.3941402">
  <ele>-0.114</ele>
  <time>2026-09-02T22:07:23Z</time>
  <course>8.53</course>
  <speed>0.7150524456289902</speed>
  <fix>3d</fix>
</trkpt>
<trkpt lat="33.8101006" lon="-118.3941402">
  <ele>-0.114</ele>
  <time>2026-09-02T22:07:23Z</time>
  <course>8.53</course>
  <speed>0.7150524456289902</speed>
  <fix>3d</fix>
</trkpt>
<trkpt lat="33.8101006" lon="-118.3941401">
  <ele>-0.114</ele>
  <time>2026-09-02T22:07:23Z</time>
  <course>8.53</course>
  <speed>0.7150524456289902</speed>
  <fix>3d</fix>
</trkpt>
<trkpt lat="33.8101002" lon="-118.3941411">
  <ele>-0.1</ele>
  <time>2026-09-02T22:07:23Z</time>
  <course>45.36</course>
  <speed>0.73</speed>
  <fix>3d</fix>
</trkpt>
<trkpt lat="33.8101006" lon="-118.3941401">
  <ele>-0.114</ele>
  <time>2026-09-02T22:07:23Z</time>
  <course>8.53</course>
  <speed>0.7150524456289902</speed>
  <fix>3d</fix>
</trkpt>
<trkpt lat="33.8101007" lon="-118.3941401">
  <ele>-0.114</ele>
  <time>2026-09-02T22:07:23Z</time>
  <course>8.53</course>
  <speed>0.7150524456289902</speed>
  <fix>3d</fix>
</trkpt>
<trkpt lat="33.8101007" lon="-118.39414">
  <ele>-0.115</ele>
  <time>2026-09-02T22:07:23Z</time>
  <course>8.54</course>
  <speed>0.7150524456289902</speed>
  <fix>3d</fix>
</trkpt>
<trkpt lat="33.8101008" lon="-118.3941399">
  <ele>-0.115</ele>
  <time>2026-09-02T22:07:23Z</time>
  <course>8.54</course>
  <speed>0.7150524456289902</speed>
  <fix>3d</fix>
</trkpt>
<trkpt lat="33.8101008" lon="-118.3941399">
  <ele>-0.114</ele>
  <time>2026-09-02T22:07:23Z</time>
  <course>8.54</course>
  <speed>0.7150524456289902</speed>
  <fix>3d</fix>
</trkpt>
<trkpt lat="33.8101008" lon="-118.3941398">
  <ele>-0.114</ele>
  <time>2026-09-02T22:07:23Z</time>
  <course>8.54</course>
  <speed>0.7150524456289902</speed>
  <fix>3d</fix>
</trkpt>
<trkpt lat="33.8101009" lon="-118.3941398">
  <ele>-0.114</ele>
  <time>2026-09-02T22:07:23Z</time>
  <course>8.54</course>
  <speed>0.7150524456289902</speed>
  <fix>3d</fix>
</trkpt>
<trkpt lat="33.8101009" lon="-118.3941397">
  <ele>-0.114</ele>
  <time>2026-09-02T22:07:23Z</time>
  <course>8.54</course>
  <speed>0.7150524456289902</speed>
  <fix>3d</fix>
</trkpt>
<trkpt lat="33.810101" lon="-118.3941397">
  <ele>-0.114</ele>
  <time>2026-09-02T22:07:23Z</time>
  <course>8.55</course>
  <speed>0.7150524456289902</speed>
  <fix>3d</fix>
</trkpt>
<trkpt lat="33.810101" lon="-118.3941397">
  <ele>-0.114</ele>
  <time>2026-09-02T22:07:23Z</time>
  <course>8.55</course>
  <speed>0.7150524456289902</speed>
  <fix>3d</fix>
</trkpt>
<trkpt lat="33.810101" lon="-118.3941396">
  <ele>-0.114</ele>
  <time>2026-09-02T22:07:23Z</time>
  <course>8.55</course>
  <speed>0.7150524456289902</speed>
  <fix>3d</fix>
</trkpt>
<trkpt lat="33.8101011" lon="-118.3941396">
  <ele>-0.114</ele>
  <time>2026-09-02T22:07:23Z</time>
  <course>8.55</course>
  <speed>0.7150524456289902</speed>
  <fix>3d</fix>
</trkpt>
<trkpt lat="33.8101002" lon="-118.3941411">
  <ele>-0.1</ele>
  <time>2026-09-02T22:07:23Z</time>
  <course>45.36</course>
  <speed>0.73</speed>
  <fix>3d</fix>
</trkpt>
<trkpt lat="33.8101011" lon="-118.3941396">
  <ele>-0.114</ele>
  <time>2026-09-02T22:07:23Z</time>
  <course>8.55</course>
  <speed>0.7150524456289902</speed>
  <fix>3d</fix>
</trkpt>
<trkpt lat="33.8101011" lon="-118.3941395">
  <ele>-0.114</ele>
  <time>2026-09-02T22:07:23Z</time>
  <course>8.55</course>
  <speed>0.7150524456289902</speed>
  <fix>3d</fix>
</trkpt>
<trkpt lat="33.8101012" lon="-118.3941394">
  <ele>-0.114</ele>
  <time>2026-09-02T22:07:23Z</time>
  <course>8.55</course>
  <speed>0.7150524456289902</speed>
  <fix>3d</fix>
</trkpt>
<trkpt lat="33.8101012" lon="-118.3941394">
  <ele>-0.114</ele>
  <time>2026-09-02T22:07:23Z</time>
  <course>8.56</course>
  <speed>0.7150524456289902</speed>
  <fix>3d</fix>
</trkpt>
<trkpt lat="33.8101013" lon="-118.3941393">
  <ele>-0.113</ele>
  <time>2026-09-02T22:07:23Z</time>
  <course>8.56</course>
  <speed>0.7150524456289902</speed>
  <fix>3d</fix>
</trkpt>
<trkpt lat="33.8101013" lon="-118.3941393">
  <ele>-0.113</ele>
  <time>2026-09-02T22:07:23Z</time>
  <course>8.56</course>
  <speed>0.7150524456289902</speed>
  <fix>3d</fix>
</trkpt>
<trkpt lat="33.8101013" lon="-118.3941392">
  <ele>-0.113</ele>
  <time>2026-09-02T22:07:23Z</time>
  <course>8.56</course>
  <speed>0.7150524456289902</speed>
  <fix>3d</fix>
</trkpt>
<trkpt lat="33.8101014" lon="-118.3941392">
  <ele>-0.113</ele>
  <time>2026-09-02T22:07:23Z</time>
  <course>8.56</course>
  <speed>0.7150524456289902</speed>
  <fix>3d</fix>
</trkpt>
<trkpt lat="33.8101014" lon="-118.3941391">
  <ele>-0.113</ele>
  <time>2026-09-02T22:07:23Z</time>
  <course>8.56</course>
  <speed>0.7150524456289902</speed>
  <fix>3d</fix>
</trkpt>
<trkpt lat="33.8101015" lon="-118.3941391">
  <ele>-0.113</ele>
  <time>2026-09-02T22:07:23Z</time>
  <course>8.57</course>
  <speed>0.7150524456289902</speed>
  <fix>3d</fix>
</trkpt>
<trkpt lat="33.8101015" lon="-118.394139">
  <ele>-0.113</ele>
  <time>2026-09-02T22:07:23Z</time>
  <course>8.57</course>
  <speed>0.7150524456289902</speed>
  <fix>3d</fix>
</trkpt>
<trkpt lat="33.8101012" lon="-118.39414">
  <ele>-0.1</ele>
  <time>2026-09-02T22:07:23Z</time>
  <course>45.39</course>
  <speed>0.73</speed>
  <fix>3d</fix>
</trkpt>
<trkpt lat="33.8101015" lon="-118.394139">
  <ele>-0.113</ele>
  <time>2026-09-02T22:07:23Z</time>
  <course>8.57</course>
  <speed>0.7150524456289902</speed>
  <fix>3d</fix>
</trkpt>
<trkpt lat="33.8101016" lon="-118.3941389">
  <ele>-0.113</ele>
  <time>2026-09-02T22:07:23Z</time>
  <course>8.57</course>
  <speed>0.7150524456289902</speed>
  <fix>3d</fix>
</trkpt>
<trkpt lat="33.8101016" lon="-118.3941389">
  <ele>-0.113</ele>
  <time>2026-09-02T22:07:23Z</time>
  <course>8.57</course>
  <speed>0.7150524456289902</speed>
  <fix>3d</fix>
</trkpt>
<trkpt lat="33.8101017" lon="-118.3941388">
  <ele>-0.112</ele>
  <time>2026-09-02T22:07:23Z</time>
  <course>8.57</course>
  <speed>0.7150524456289902</speed>
  <fix>3d</fix>
</trkpt>
<trkpt lat="33.8101017" lon="-118.3941388">
  <ele>-0.112</ele>
  <time>2026-09-02T22:07:23Z</time>
  <course>8.57</course>
  <speed>0.7150524456289902</speed>
  <fix>3d</fix>
</trkpt>
<trkpt lat="33.8101018" lon="-118.3941387">
  <ele>-0.112</ele>
  <time>2026-09-02T22:07:23Z</time>
  <course>8.58</course>
  <speed>0.7150524456289902</speed>
  <fix>3d</fix>
</trkpt>
<trkpt lat="33.8101018" lon="-118.3941387">
  <ele>-0.112</ele>
  <time>2026-09-02T22:07:23Z</time>
  <course>8.58</course>
  <speed>0.7150524456289902</speed>
  <fix>3d</fix>
</trkpt>
<trkpt lat="33.8101018" lon="-118.3941386">
  <ele>-0.112</ele>
  <time>2026-09-02T22:07:23Z</time>
  <course>8.58</course>
  <speed>0.7150524456289902</speed>
  <fix>3d</fix>
</trkpt>
<trkpt lat="33.8101019" lon="-118.3941386">
  <ele>-0.112</ele>
  <time>2026-09-02T22:07:23Z</time>
  <course>8.58</course>
  <speed>0.7150524456289902</speed>
  <fix>3d</fix>
</trkpt>
<trkpt lat="33.8101019" lon="-118.3941385">
  <ele>-0.112</ele>
  <time>2026-09-02T22:07:23Z</time>
  <course>8.58</course>
  <speed>0.7150524456289902</speed>
  <fix>3d</fix>
</trkpt>
<trkpt lat="33.810102" lon="-118.3941385">
  <ele>-0.112</ele>
  <time>2026-09-02T22:07:23Z</time>
  <course>8.58</course>
  <speed>0.7150524456289902</speed>
  <fix>3d</fix>
</trkpt>
<trkpt lat="33.810102" lon="-118.3941384">
  <ele>-0.112</ele>
  <time>2026-09-02T22:07:23Z</time>
  <course>8.58</course>
  <speed>0.7150524456289902</speed>
  <fix>3d</fix>
</trkpt>
<trkpt lat="33.810102" lon="-118.3941384">
  <ele>-0.112</ele>
  <time>2026-09-02T22:07:23Z</time>
  <course>8.58</course>
  <speed>0.7150524456289902</speed>
  <fix>3d</fix>
</trkpt>
<trkpt lat="33.8101012" lon="-118.39414">
  <ele>-0.1</ele>
  <time>2026-09-02T22:07:23Z</time>
  <course>45.39</course>
  <speed>0.73</speed>
  <fix>3d</fix>
</trkpt>
<trkpt lat="33.8101021" lon="-118.3941384">
  <ele>-0.112</ele>
  <time>2026-09-02T22:07:23Z</time>
  <course>8.59</course>
  <speed>0.7150524456289902</speed>
  <fix>3d</fix>
</trkpt>
<trkpt lat="33.8101021" lon="-118.3941383">
  <ele>-0.112</ele>
  <time>2026-09-02T22:07:23Z</time>
  <course>8.59</course>
  <speed>0.7150524456289902</speed>
  <fix>3d</fix>
</trkpt>
<trkpt lat="33.8101022" lon="-118.3941382">
  <ele>-0.112</ele>
  <time>2026-09-02T22:07:23Z</time>
  <course>8.59</course>
  <speed>0.7150524456289902</speed>
  <fix>3d</fix>
</trkpt>
<trkpt lat="33.8101022" lon="-118.3941382">
  <ele>-0.112</ele>
  <time>2026-09-02T22:07:23Z</time>
  <course>8.59</course>
  <speed>0.7150524456289902</speed>
  <fix>3d</fix>
</trkpt>
<trkpt lat="33.8101022" lon="-118.3941381">
  <ele>-0.112</ele>
  <time>2026-09-02T22:07:23Z</time>
  <course>8.59</course>
  <speed>0.7150524456289902</speed>
  <fix>3d</fix>
</trkpt>
<trkpt lat="33.8101023" lon="-118.3941381">
  <ele>-0.112</ele>
  <time>2026-09-02T22:07:23Z</time>
  <course>8.59</course>
  <speed>0.7150524456289902</speed>
  <fix>3d</fix>
</trkpt>
<trkpt lat="33.8101023" lon="-118.394138">
  <ele>-0.112</ele>
  <time>2026-09-02T22:07:23Z</time>
  <course>8.6</course>
  <speed>0.7150524456289902</speed>
  <fix>3d</fix>
</trkpt>
<trkpt lat="33.8101024" lon="-118.394138">
  <ele>-0.112</ele>
  <time>2026-09-02T22:07:23Z</time>
  <course>8.6</course>
  <speed>0.7150524456289902</speed>
  <fix>3d</fix>
</trkpt>
<trkpt lat="33.8101024" lon="-118.3941379">
  <ele>-0.112</ele>
  <time>2026-09-02T22:07:23Z</time>
  <course>8.6</course>
  <speed>0.7150524456289902</speed>
  <fix>3d</fix>
</trkpt>
<trkpt lat="33.8101024" lon="-118.3941379">
  <ele>-0.112</ele>
  <time>2026-09-02T22:07:23Z</time>
  <course>8.6</course>
  <speed>0.7150524456289902</speed>
  <fix>3d</fix>
</trkpt>
<trkpt lat="33.8101024" lon="-118.3941379">
  <ele>-0.112</ele>
  <time>2026-09-02T22:07:23Z</time>
  <course>8.6</course>
  <speed>0.7150524456289902</speed>
  <fix>3d</fix>
</trkpt>
<trkpt lat="33.8101021" lon="-118.3941388">
  <ele>-0.1</ele>
  <time>2026-09-02T22:07:23Z</time>
  <course>45.42</course>
  <speed>0.73</speed>
  <fix>3d</fix>
</trkpt>
<trkpt lat="33.8101025" lon="-118.3941378">
  <ele>-0.113</ele>
  <time>2026-09-02T22:07:23Z</time>
  <course>8.6</course>
  <speed>0.7150524456289902</speed>
  <fix>3d</fix>
</trkpt>
<trkpt lat="33.8101026" lon="-118.3941377">
  <ele>-0.113</ele>
  <time>2026-09-02T22:07:23Z</time>
  <course>8.6</course>
  <speed>0.7150524456289902</speed>
  <fix>3d</fix>
</trkpt>
<trkpt lat="33.8101026" lon="-118.3941377">
  <ele>-0.113</ele>
  <time>2026-09-02T22:07:23Z</time>
  <course>8.61</course>
  <speed>0.7150524456289902</speed>
  <fix>3d</fix>
</trkpt>
<trkpt lat="33.8101026" lon="-118.3941376">
  <ele>-0.113</ele>
  <time>2026-09-02T22:07:23Z</time>
  <course>8.61</course>
  <speed>0.7150524456289902</speed>
  <fix>3d</fix>
</trkpt>
<trkpt lat="33.8101027" lon="-118.3941376">
  <ele>-0.113</ele>
  <time>2026-09-02T22:07:23Z</time>
  <course>8.61</course>
  <speed>0.7150524456289902</speed>
  <fix>3d</fix>
</trkpt>
<trkpt lat="33.8101027" lon="-118.3941376">
  <ele>-0.113</ele>
  <time>2026-09-02T22:07:23Z</time>
  <course>8.61</course>
  <speed>0.7150524456289902</speed>
  <fix>3d</fix>
</trkpt>
<trkpt lat="33.8101028" lon="-118.3941375">
  <ele>-0.113</ele>
  <time>2026-09-02T22:07:23Z</time>
  <course>8.61</course>
  <speed>0.7150524456289902</speed>
  <fix>3d</fix>
</trkpt>
<trkpt lat="33.8101028" lon="-118.3941375">
  <ele>-0.113</ele>
  <time>2026-09-02T22:07:23Z</time>
  <course>8.61</course>
  <speed>0.7150524456289902</speed>
  <fix>3d</fix>
</trkpt>
<trkpt lat="33.8101028" lon="-118.3941374">
  <ele>-0.113</ele>
  <time>2026-09-02T22:07:23Z</time>
  <course>8.61</course>
  <speed>0.7150524456289902</speed>
  <fix>3d</fix>
</trkpt>
<trkpt lat="33.8101029" lon="-118.3941374">
  <ele>-0.113</ele>
  <time>2026-09-02T22:07:23Z</time>
  <course>8.61</course>
  <speed>0.7150524456289902</speed>
  <fix>3d</fix>
</trkpt>
<trkpt lat="33.8101029" lon="-118.3941373">
  <ele>-0.113</ele>
  <time>2026-09-02T22:07:23Z</time>
  <course>8.62</course>
  <speed>0.7150524456289902</speed>
  <fix>3d</fix>
</trkpt>
<trkpt lat="33.8101029" lon="-118.3941373">
  <ele>-0.113</ele>
  <time>2026-09-02T22:07:23Z</time>
  <course>8.62</course>
  <speed>0.7150524456289902</speed>
  <fix>3d</fix>
</trkpt>
<trkpt lat="33.8101021" lon="-118.3941388">
  <ele>-0.1</ele>
  <time>2026-09-02T22:07:23Z</time>
  <course>45.42</course>
  <speed>0.73</speed>
  <fix>3d</fix>
</trkpt>
<trkpt lat="33.8101029" lon="-118.3941373">
  <ele>-0.113</ele>
  <time>2026-09-02T22:07:23Z</time>
  <course>8.62</course>
  <speed>0.7150524456289902</speed>
  <fix>3d</fix>
</trkpt>
<trkpt lat="33.810103" lon="-118.3941372">
  <ele>-0.113</ele>
  <time>2026-09-02T22:07:23Z</time>
  <course>8.62</course>
  <speed>0.7150524456289902</speed>
  <fix>3d</fix>
</trkpt>
<trkpt lat="33.810103" lon="-118.3941372">
  <ele>-0.113</ele>
  <time>2026-09-02T22:07:23Z</time>
  <course>8.62</course>
  <speed>0.7224956747275377</speed>
  <fix>3d</fix>
</trkpt>
<trkpt lat="33.8101031" lon="-118.3941371">
  <ele>-0.113</ele>
  <time>2026-09-02T22:07:23Z</time>
  <course>8.62</course>
  <speed>0.7224956747275377</speed>
  <fix>3d</fix>
</trkpt>
<trkpt lat="33.8101031" lon="-118.3941371">
  <ele>-0.113</ele>
  <time>2026-09-02T22:07:23Z</time>
  <course>8.62</course>
  <speed>0.7224956747275377</speed>
  <fix>3d</fix>
</trkpt>
<trkpt lat="33.8101031" lon="-118.3941371">
  <ele>-0.113</ele>
  <time>2026-09-02T22:07:23Z</time>
  <course>8.62</course>
  <speed>0.7224956747275377</speed>
  <fix>3d</fix>
</trkpt>
<trkpt lat="33.8101032" lon="-118.394137">
  <ele>-0.113</ele>
  <time>2026-09-02T22:07:23Z</time>
  <course>8.63</course>
  <speed>0.7224956747275377</speed>
  <fix>3d</fix>
</trkpt>
<trkpt lat="33.8101032" lon="-118.394137">
  <ele>-0.113</ele>
  <time>2026-09-02T22:07:23Z</time>
  <course>8.63</course>
  <speed>0.7224956747275377</speed>
  <fix>3d</fix>
</trkpt>
<trkpt lat="33.8101032" lon="-118.3941369">
  <ele>-0.113</ele>
  <time>2026-09-02T22:07:23Z</time>
  <course>8.63</course>
  <speed>0.7224956747275377</speed>
  <fix>3d</fix>
</trkpt>
<trkpt lat="33.8101033" lon="-118.3941369">
  <ele>-0.113</ele>
  <time>2026-09-02T22:07:23Z</time>
  <course>8.63</course>
  <speed>0.7224956747275377</speed>
  <fix>3d</fix>
</trkpt>
<trkpt lat="33.8101033" lon="-118.3941369">
  <ele>-0.113</ele>
  <time>2026-09-02T22:07:23Z</time>
  <course>8.63</course>
  <speed>0.7224956747275377</speed>
  <fix>3d</fix>
</trkpt>
<trkpt lat="33.8101033" lon="-118.3941368">
  <ele>-0.113</ele>
  <time>2026-09-02T22:07:23Z</time>
  <course>8.63</course>
  <speed>0.7150524456289902</speed>
  <fix>3d</fix>
</trkpt>
<trkpt lat="33.8101034" lon="-118.3941368">
  <ele>-0.113</ele>
  <time>2026-09-02T22:07:23Z</time>
  <course>8.63</course>
  <speed>0.7224956747275377</speed>
  <fix>3d</fix>
</trkpt>
<trkpt lat="33.8101034" lon="-118.3941368">
  <ele>-0.113</ele>
  <time>2026-09-02T22:07:23Z</time>
  <course>8.63</course>
  <speed>0.7224956747275377</speed>
  <fix>3d</fix>
</trkpt>
<trkpt lat="33.810103" lon="-118.3941377">
  <ele>-0.1</ele>
  <time>2026-09-02T22:07:23Z</time>
  <course>45.46</course>
  <speed>0.73</speed>
  <fix>3d</fix>
</trkpt>
<trkpt lat="33.8101035" lon="-118.3941367">
  <ele>-0.113</ele>
  <time>2026-09-02T22:07:23Z</time>
  <course>8.64</course>
  <speed>0.7224956747275377</speed>
  <fix>3d</fix>
</trkpt>
<trkpt lat="33.8101035" lon="-118.3941366">
  <ele>-0.113</ele>
  <time>2026-09-02T22:07:23Z</time>
  <course>8.64</course>
  <speed>0.7150524456289902</speed>
  <fix>3d</fix>
</trkpt>
<trkpt lat="33.8101036" lon="-118.3941365">
  <ele>-0.113</ele>
  <time>2026-09-02T22:07:23Z</time>
  <course>8.64</course>
  <speed>0.7224956747275377</speed>
  <fix>3d</fix>
</trkpt>
<trkpt lat="33.8101036" lon="-118.3941365">
  <ele>-0.113</ele>
  <time>2026-09-02T22:07:23Z</time>
  <course>8.64</course>
  <speed>0.7224956747275377</speed>
  <fix>3d</fix>
</trkpt>
<trkpt lat="33.8101036" lon="-118.3941364">
  <ele>-0.113</ele>
  <time>2026-09-02T22:07:23Z</time>
  <course>8.64</course>
  <speed>0.7224956747275377</speed>
  <fix>3d</fix>
</trkpt>
<trkpt lat="33.8101037" lon="-118.3941364">
  <ele>-0.113</ele>
  <time>2026-09-02T22:07:23Z</time>
  <course>8.64</course>
  <speed>0.7224956747275377</speed>
  <fix>3d</fix>
</trkpt>
<trkpt lat="33.8101037" lon="-118.3941364">
  <ele>-0.113</ele>
  <time>2026-09-02T22:07:23Z</time>
  <course>8.65</course>
  <speed>0.7224956747275377</speed>
  <fix>3d</fix>
</trkpt>
<trkpt lat="33.8101037" lon="-118.3941363">
  <ele>-0.113</ele>
  <time>2026-09-02T22:07:23Z</time>
  <course>8.65</course>
  <speed>0.7224956747275377</speed>
  <fix>3d</fix>
</trkpt>
<trkpt lat="33.8101038" lon="-118.3941363">
  <ele>-0.113</ele>
  <time>2026-09-02T22:07:23Z</time>
  <course>8.65</course>
  <speed>0.7224956747275377</speed>
  <fix>3d</fix>
</trkpt>
<trkpt lat="33.8101038" lon="-118.3941362">
  <ele>-0.112</ele>
  <time>2026-09-02T22:07:23Z</time>
  <course>8.65</course>
  <speed>0.7224956747275377</speed>
  <fix>3d</fix>
</trkpt>
<trkpt lat="33.8101038" lon="-118.3941362">
  <ele>-0.112</ele>
  <time>2026-09-02T22:07:23Z</time>
  <course>8.65</course>
  <speed>0.7224956747275377</speed>
  <fix>3d</fix>
</trkpt>
<trkpt lat="33.810103" lon="-118.3941377">
  <ele>-0.1</ele>
  <time>2026-09-02T22:07:23Z</time>
  <course>45.46</course>
  <speed>0.73</speed>
  <fix>3d</fix>
</trkpt>
<trkpt lat="33.8101039" lon="-118.3941362">
  <ele>-0.112</ele>
  <time>2026-09-02T22:07:23Z</time>
  <course>8.65</course>
  <speed>0.7224956747275377</speed>
  <fix>3d</fix>
</trkpt>
<trkpt lat="33.8101039" lon="-118.3941361">
  <ele>-0.112</ele>
  <time>2026-09-02T22:07:23Z</time>
  <course>8.65</course>
  <speed>0.7224956747275377</speed>
  <fix>3d</fix>
</trkpt>
<trkpt lat="33.810104" lon="-118.394136">
  <ele>-0.112</ele>
  <time>2026-09-02T22:07:23Z</time>
  <course>8.65</course>
  <speed>0.7224956747275377</speed>
  <fix>3d</fix>
</trkpt>
<trkpt lat="33.810104" lon="-118.394136">
  <ele>-0.112</ele>
  <time>2026-09-02T22:07:23Z</time>
  <course>8.66</course>
  <speed>0.7224956747275377</speed>
  <fix>3d</fix>
</trkpt>
<trkpt lat="33.810104" lon="-118.3941359">
  <ele>-0.112</ele>
  <time>2026-09-02T22:07:23Z</time>
  <course>8.66</course>
  <speed>0.7224956747275377</speed>
  <fix>3d</fix>
</trkpt>
<trkpt lat="33.8101041" lon="-118.3941359">
  <ele>-0.112</ele>
  <time>2026-09-02T22:07:23Z</time>
  <course>8.66</course>
  <speed>0.7224956747275377</speed>
  <fix>3d</fix>
</trkpt>
<trkpt lat="33.8101041" lon="-118.3941358">
  <ele>-0.112</ele>
  <time>2026-09-02T22:07:23Z</time>
  <course>8.66</course>
  <speed>0.7224956747275377</speed>
  <fix>3d</fix>
</trkpt>
<trkpt lat="33.8101042" lon="-118.3941358">
  <ele>-0.112</ele>
  <time>2026-09-02T22:07:23Z</time>
  <course>8.66</course>
  <speed>0.7224956747275377</speed>
  <fix>3d</fix>
</trkpt>
<trkpt lat="33.8101042" lon="-118.3941357">
  <ele>-0.112</ele>
  <time>2026-09-02T22:07:23Z</time>
  <course>8.66</course>
  <speed>0.7224956747275377</speed>
  <fix>3d</fix>
</trkpt>
<trkpt lat="33.8101042" lon="-118.3941357">
  <ele>-0.112</ele>
  <time>2026-09-02T22:07:23Z</time>
  <course>8.66</course>
  <speed>0.7224956747275377</speed>
  <fix>3d</fix>
</trkpt>
<trkpt lat="33.8101043" lon="-118.3941356">
  <ele>-0.112</ele>
  <time>2026-09-02T22:07:23Z</time>
  <course>8.67</course>
  <speed>0.7224956747275377</speed>
  <fix>3d</fix>
</trkpt>
<trkpt lat="33.8101043" lon="-118.3941356">
  <ele>-0.112</ele>
  <time>2026-09-02T22:07:23Z</time>
  <course>8.67</course>
  <speed>0.7224956747275377</speed>
  <fix>3d</fix>
</trkpt>
<trkpt lat="33.8101039" lon="-118.3941366">
  <ele>-0.1</ele>
  <time>2026-09-02T22:07:23Z</time>
  <course>45.49</course>
  <speed>0.73</speed>
  <fix>3d</fix>
</trkpt>
<trkpt lat="33.8101043" lon="-118.3941356">
  <ele>-0.112</ele>
  <time>2026-09-02T22:07:23Z</time>
  <course>8.67</course>
  <speed>0.7224956747275377</speed>
  <fix>3d</fix>
</trkpt>
<trkpt lat="33.8101044" lon="-118.3941355">
  <ele>-0.112</ele>
  <time>2026-09-02T22:07:23Z</time>
  <course>8.67</course>
  <speed>0.7224956747275377</speed>
  <fix>3d</fix>
</trkpt>
<trkpt lat="33.8101044" lon="-118.3941355">
  <ele>-0.112</ele>
  <time>2026-09-02T22:07:23Z</time>
  <course>8.67</course>
  <speed>0.7224956747275377</speed>
  <fix>3d</fix>
</trkpt>
<trkpt lat="33.8101045" lon="-118.3941354">
  <ele>-0.112</ele>
  <time>2026-09-02T22:07:23Z</time>
  <course>8.67</course>
  <speed>0.7224956747275377</speed>
  <fix>3d</fix>
</trkpt>
<trkpt lat="33.8101045" lon="-118.3941354">
  <ele>-0.112</ele>
  <time>2026-09-02T22:07:23Z</time>
  <course>8.67</course>
  <speed>0.7224956747275377</speed>
  <fix>3d</fix>
</trkpt>
<trkpt lat="33.8101045" lon="-118.3941353">
  <ele>-0.112</ele>
  <time>2026-09-02T22:07:23Z</time>
  <course>8.68</course>
  <speed>0.7224956747275377</speed>
  <fix>3d</fix>
</trkpt>
<trkpt lat="33.8101046" lon="-118.3941353">
  <ele>-0.112</ele>
  <time>2026-09-02T22:07:23Z</time>
  <course>8.68</course>
  <speed>0.7224956747275377</speed>
  <fix>3d</fix>
</trkpt>
<trkpt lat="33.8101046" lon="-118.3941353">
  <ele>-0.112</ele>
  <time>2026-09-02T22:07:23Z</time>
  <course>8.68</course>
  <speed>0.7224956747275377</speed>
  <fix>3d</fix>
</trkpt>
<trkpt lat="33.8101046" lon="-118.3941352">
  <ele>-0.112</ele>
  <time>2026-09-02T22:07:23Z</time>
  <course>8.68</course>
  <speed>0.7224956747275377</speed>
  <fix>3d</fix>
</trkpt>
<trkpt lat="33.8101047" lon="-118.3941352">
  <ele>-0.112</ele>
  <time>2026-09-02T22:07:23Z</time>
  <course>8.68</course>
  <speed>0.7224956747275377</speed>
  <fix>3d</fix>
</trkpt>
<trkpt lat="33.8101047" lon="-118.3941351">
  <ele>-0.112</ele>
  <time>2026-09-02T22:07:23Z</time>
  <course>8.68</course>
  <speed>0.7224956747275377</speed>
  <fix>3d</fix>
</trkpt>
<trkpt lat="33.8101047" lon="-118.3941351">
  <ele>-0.112</ele>
  <time>2026-09-02T22:07:23Z</time>
  <course>8.68</course>
  <speed>0.7224956747275377</speed>
  <fix>3d</fix>
</trkpt>
<trkpt lat="33.8101048" lon="-118.3941351">
  <ele>-0.112</ele>
  <time>2026-09-02T22:07:23Z</time>
  <course>8.68</course>
  <speed>0.7224956747275377</speed>
  <fix>3d</fix>
</trkpt>
<trkpt lat="33.8101039" lon="-118.3941366">
  <ele>-0.1</ele>
  <time>2026-09-02T22:07:23Z</time>
  <course>45.49</course>
  <speed>0.73</speed>
  <fix>3d</fix>
</trkpt>
<trkpt lat="33.8101048" lon="-118.394135">
  <ele>-0.112</ele>
  <time>2026-09-02T22:07:23Z</time>
  <course>8.68</course>
  <speed>0.7224956747275377</speed>
  <fix>3d</fix>
</trkpt>
<trkpt lat="33.8101048" lon="-118.394135">
  <ele>-0.112</ele>
  <time>2026-09-02T22:07:23Z</time>
  <course>8.69</course>
  <speed>0.7224956747275377</speed>
  <fix>3d</fix>
</trkpt>
<trkpt lat="33.8101049" lon="-118.3941349">
  <ele>-0.112</ele>
  <time>2026-09-02T22:07:23Z</time>
  <course>8.69</course>
  <speed>0.7224956747275377</speed>
  <fix>3d</fix>
</trkpt>
<trkpt lat="33.8101049" lon="-118.3941348">
  <ele>-0.112</ele>
  <time>2026-09-02T22:07:23Z</time>
  <course>8.69</course>
  <speed>0.7224956747275377</speed>
  <fix>3d</fix>
</trkpt>
<trkpt lat="33.810105" lon="-118.3941348">
  <ele>-0.112</ele>
  <time>2026-09-02T22:07:23Z</time>
  <course>8.69</course>
  <speed>0.7224956747275377</speed>
  <fix>3d</fix>
</trkpt>
<trkpt lat="33.810105" lon="-118.3941347">
  <ele>-0.112</ele>
  <time>2026-09-02T22:07:23Z</time>
  <course>8.69</course>
  <speed>0.7224956747275377</speed>
  <fix>3d</fix>
</trkpt>
<trkpt lat="33.8101051" lon="-118.3941347">
  <ele>-0.112</ele>
  <time>2026-09-02T22:07:23Z</time>
  <course>8.69</course>
  <speed>0.7224956747275377</speed>
  <fix>3d</fix>
</trkpt>
<trkpt lat="33.8101051" lon="-118.3941346">
  <ele>-0.112</ele>
  <time>2026-09-02T22:07:24Z</time>
  <course>8.7</course>
  <speed>0.7224956747275377</speed>
  <fix>3d</fix>
</trkpt>
<trkpt lat="33.8101051" lon="-118.3941346">
  <ele>-0.112</ele>
  <time>2026-09-02T22:07:24Z</time>
  <course>8.7</course>
  <speed>0.7224956747275377</speed>
  <fix>3d</fix>
</trkpt>
<trkpt lat="33.8101052" lon="-118.3941345">
  <ele>-0.112</ele>
  <time>2026-09-02T22:07:24Z</time>
  <course>8.7</course>
  <speed>0.7224956747275377</speed>
  <fix>3d</fix>
</trkpt>
<trkpt lat="33.8101052" lon="-118.3941345">
  <ele>-0.112</ele>
  <time>2026-09-02T22:07:24Z</time>
  <course>8.7</course>
  <speed>0.7224956747275377</speed>
  <fix>3d</fix>
</trkpt>
<trkpt lat="33.8101052" lon="-118.3941345">
  <ele>-0.112</ele>
  <time>2026-09-02T22:07:24Z</time>
  <course>8.7</course>
  <speed>0.7224956747275377</speed>
  <fix>3d</fix>
</trkpt>
<trkpt lat="33.8101049" lon="-118.3941354">
  <ele>-0.1</ele>
  <time>2026-09-02T22:07:24Z</time>
  <course>45.52</course>
  <speed>0.73</speed>
  <fix>3d</fix>
</trkpt>
<trkpt lat="33.8101053" lon="-118.3941344">
  <ele>-0.112</ele>
  <time>2026-09-02T22:07:24Z</time>
  <course>8.7</course>
  <speed>0.7224956747275377</speed>
  <fix>3d</fix>
</trkpt>
<trkpt lat="33.8101054" lon="-118.3941343">
  <ele>-0.112</ele>
  <time>2026-09-02T22:07:24Z</time>
  <course>8.7</course>
  <speed>0.7224956747275377</speed>
  <fix>3d</fix>
</trkpt>
<trkpt lat="33.8101054" lon="-118.3941343">
  <ele>-0.112</ele>
  <time>2026-09-02T22:07:24Z</time>
  <course>8.71</course>
  <speed>0.7224956747275377</speed>
  <fix>3d</fix>
</trkpt>
<trkpt lat="33.8101054" lon="-118.3941342">
  <ele>-0.112</ele>
  <time>2026-09-02T22:07:24Z</time>
  <course>8.71</course>
  <speed>0.7224956747275377</speed>
  <fix>3d</fix>
</trkpt>
<trkpt lat="33.8101055" lon="-118.3941342">
  <ele>-0.112</ele>
  <time>2026-09-02T22:07:24Z</time>
  <course>8.71</course>
  <speed>0.7224956747275377</speed>
  <fix>3d</fix>
</trkpt>
<trkpt lat="33.8101055" lon="-118.3941341">
  <ele>-0.111</ele>
  <time>2026-09-02T22:07:24Z</time>
  <course>8.71</course>
  <speed>0.7224956747275377</speed>
  <fix>3d</fix>
</trkpt>
<trkpt lat="33.8101056" lon="-118.3941341">
  <ele>-0.111</ele>
  <time>2026-09-02T22:07:24Z</time>
  <course>8.71</course>
  <speed>0.7224956747275377</speed>
  <fix>3d</fix>
</trkpt>
<trkpt lat="33.8101056" lon="-118.394134">
  <ele>-0.111</ele>
  <time>2026-09-02T22:07:24Z</time>
  <course>8.71</course>
  <speed>0.7224956747275377</speed>
  <fix>3d</fix>
</trkpt>
<trkpt lat="33.8101056" lon="-118.394134">
  <ele>-0.111</ele>
  <time>2026-09-02T22:07:24Z</time>
  <course>8.71</course>
  <speed>0.7224956747275377</speed>
  <fix>3d</fix>
</trkpt>
<trkpt lat="33.8101057" lon="-118.3941339">
  <ele>-0.111</ele>
  <time>2026-09-02T22:07:24Z</time>
  <course>8.72</course>
  <speed>0.7224956747275377</speed>
  <fix>3d</fix>
</trkpt>
<trkpt lat="33.8101057" lon="-118.3941339">
  <ele>-0.111</ele>
  <time>2026-09-02T22:07:24Z</time>
  <course>8.72</course>
  <speed>0.7224956747275377</speed>
  <fix>3d</fix>
</trkpt>
<trkpt lat="33.8101049" lon="-118.3941354">
  <ele>-0.1</ele>
  <time>2026-09-02T22:07:24Z</time>
  <course>45.52</course>
  <speed>0.73</speed>
  <fix>3d</fix>
</trkpt>
<trkpt lat="33.8101058" lon="-118.3941338">
  <ele>-0.111</ele>
  <time>2026-09-02T22:07:24Z</time>
  <course>8.72</course>
  <speed>0.7224956747275377</speed>
  <fix>3d</fix>
</trkpt>
<trkpt lat="33.8101058" lon="-118.3941338">
  <ele>-0.111</ele>
  <time>2026-09-02T22:07:24Z</time>
  <course>8.72</course>
  <speed>0.7224956747275377</speed>
  <fix>3d</fix>
</trkpt>
<trkpt lat="33.8101058" lon="-118.3941337">
  <ele>-0.111</ele>
  <time>2026-09-02T22:07:24Z</time>
  <course>8.72</course>
  <speed>0.7224956747275377</speed>
  <fix>3d</fix>
</trkpt>
<trkpt lat="33.8101059" lon="-118.3941337">
  <ele>-0.111</ele>
  <time>2026-09-02T22:07:24Z</time>
  <course>8.72</course>
  <speed>0.7224956747275377</speed>
  <fix>3d</fix>
</trkpt>
<trkpt lat="33.8101059" lon="-118.3941336">
  <ele>-0.111</ele>
  <time>2026-09-02T22:07:24Z</time>
  <course>8.72</course>
  <speed>0.7224956747275377</speed>
  <fix>3d</fix>
</trkpt>
<trkpt lat="33.810106" lon="-118.3941336">
  <ele>-0.111</ele>
  <time>2026-09-02T22:07:24Z</time>
  <course>8.73</course>
  <speed>0.7224956747275377</speed>
  <fix>3d</fix>
</trkpt>
<trkpt lat="33.810106" lon="-118.3941335">
  <ele>-0.111</ele>
  <time>2026-09-02T22:07:24Z</time>
  <course>8.73</course>
  <speed>0.7224956747275377</speed>
  <fix>3d</fix>
</trkpt>
<trkpt lat="33.810106" lon="-118.3941335">
  <ele>-0.11</ele>
  <time>2026-09-02T22:07:24Z</time>
  <course>8.73</course>
  <speed>0.7224956747275377</speed>
  <fix>3d</fix>
</trkpt>
<trkpt lat="33.8101061" lon="-118.3941334">
  <ele>-0.11</ele>
  <time>2026-09-02T22:07:24Z</time>
  <course>8.73</course>
  <speed>0.7224956747275377</speed>
  <fix>3d</fix>
</trkpt>
<trkpt lat="33.8101061" lon="-118.3941334">
  <ele>-0.11</ele>
  <time>2026-09-02T22:07:24Z</time>
  <course>8.73</course>
  <speed>0.7224956747275377</speed>
  <fix>3d</fix>
</trkpt>
<trkpt lat="33.8101062" lon="-118.3941334">
  <ele>-0.11</ele>
  <time>2026-09-02T22:07:24Z</time>
  <course>8.73</course>
  <speed>0.7224956747275377</speed>
  <fix>3d</fix>
</trkpt>
<trkpt lat="33.8101062" lon="-118.3941334">
  <ele>-0.11</ele>
  <time>2026-09-02T22:07:24Z</time>
  <course>8.73</course>
  <speed>0.7224956747275377</speed>
  <fix>3d</fix>
</trkpt>
<trkpt lat="33.8101058" lon="-118.3941343">
  <ele>-0.1</ele>
  <time>2026-09-02T22:07:24Z</time>
  <course>45.56</course>
  <speed>0.73</speed>
  <fix>3d</fix>
</trkpt>
<trkpt lat="33.8101062" lon="-118.3941333">
  <ele>-0.11</ele>
  <time>2026-09-02T22:07:24Z</time>
  <course>8.73</course>
  <speed>0.7224956747275377</speed>
  <fix>3d</fix>
</trkpt>
<trkpt lat="33.8101063" lon="-118.3941332">
  <ele>-0.11</ele>
  <time>2026-09-02T22:07:24Z</time>
  <course>8.74</course>
  <speed>0.7224956747275377</speed>
  <fix>3d</fix>
</trkpt>
<trkpt lat="33.8101063" lon="-118.3941332">
  <ele>-0.11</ele>
  <time>2026-09-02T22:07:24Z</time>
  <course>8.74</course>
  <speed>0.7224956747275377</speed>
  <fix>3d</fix>
</trkpt>
<trkpt lat="33.8101063" lon="-118.3941331">
  <ele>-0.11</ele>
  <time>2026-09-02T22:07:24Z</time>
  <course>8.74</course>
  <speed>0.7224956747275377</speed>
  <fix>3d</fix>
</trkpt>
<trkpt lat="33.8101064" lon="-118.3941331">
  <ele>-0.11</ele>
  <time>2026-09-02T22:07:24Z</time>
  <course>8.74</course>
  <speed>0.7224956747275377</speed>
  <fix>3d</fix>
</trkpt>
<trkpt lat="33.8101064" lon="-118.394133">
  <ele>-0.11</ele>
  <time>2026-09-02T22:07:24Z</time>
  <course>8.74</course>
  <speed>0.7224956747275377</speed>
  <fix>3d</fix>
</trkpt>
<trkpt lat="33.8101065" lon="-118.394133">
  <ele>-0.11</ele>
  <time>2026-09-02T22:07:24Z</time>
  <course>8.74</course>
  <speed>0.7224956747275377</speed>
  <fix>3d</fix>
</trkpt>
<trkpt lat="33.8101065" lon="-118.3941329">
  <ele>-0.11</ele>
  <time>2026-09-02T22:07:24Z</time>
  <course>8.74</course>
  <speed>0.7224956747275377</speed>
  <fix>3d</fix>
</trkpt>
<trkpt lat="33.8101065" lon="-118.3941329">
  <ele>-0.11</ele>
  <time>2026-09-02T22:07:24Z</time>
  <course>8.74</course>
  <speed>0.7224956747275377</speed>
  <fix>3d</fix>
</trkpt>
<trkpt lat="33.8101066" lon="-118.3941328">
  <ele>-0.11</ele>
  <time>2026-09-02T22:07:24Z</time>
  <course>8.75</course>
  <speed>0.7224956747275377</speed>
  <fix>3d</fix>
</trkpt>
<trkpt lat="33.8101066" lon="-118.3941328">
  <ele>-0.11</ele>
  <time>2026-09-02T22:07:24Z</time>
  <course>8.75</course>
  <speed>0.7224956747275377</speed>
  <fix>3d</fix>
</trkpt>
<trkpt lat="33.8101058" lon="-118.3941343">
  <ele>-0.1</ele>
  <time>2026-09-02T22:07:24Z</time>
  <course>45.56</course>
  <speed>0.73</speed>
  <fix>3d</fix>
</trkpt>
<trkpt lat="33.8101066" lon="-118.3941328">
  <ele>-0.11</ele>
  <time>2026-09-02T22:07:24Z</time>
  <course>8.75</course>
  <speed>0.7224956747275377</speed>
  <fix>3d</fix>
</trkpt>
<trkpt lat="33.8101067" lon="-118.3941327">
  <ele>-0.11</ele>
  <time>2026-09-02T22:07:24Z</time>
  <course>8.75</course>
  <speed>0.7224956747275377</speed>
  <fix>3d</fix>
</trkpt>
<trkpt lat="33.8101067" lon="-118.3941326">
  <ele>-0.11</ele>
  <time>2026-09-02T22:07:24Z</time>
  <course>8.75</course>
  <speed>0.7224956747275377</speed>
  <fix>3d</fix>
</trkpt>
<trkpt lat="33.8101068" lon="-118.3941326">
  <ele>-0.11</ele>
  <time>2026-09-02T22:07:24Z</time>
  <course>8.75</course>
  <speed>0.7224956747275377</speed>
  <fix>3d</fix>
</trkpt>
<trkpt lat="33.8101068" lon="-118.3941325">
  <ele>-0.11</ele>
  <time>2026-09-02T22:07:24Z</time>
  <course>8.75</course>
  <speed>0.7224956747275377</speed>
  <fix>3d</fix>
</trkpt>
<trkpt lat="33.8101068" lon="-118.3941325">
  <ele>-0.11</ele>
  <time>2026-09-02T22:07:24Z</time>
  <course>8.76</course>
  <speed>0.7224956747275377</speed>
  <fix>3d</fix>
</trkpt>
<trkpt lat="33.8101069" lon="-118.3941325">
  <ele>-0.11</ele>
  <time>2026-09-02T22:07:24Z</time>
  <course>8.76</course>
  <speed>0.7224956747275377</speed>
  <fix>3d</fix>
</trkpt>
<trkpt lat="33.8101069" lon="-118.3941324">
  <ele>-0.11</ele>
  <time>2026-09-02T22:07:24Z</time>
  <course>8.76</course>
  <speed>0.7224956747275377</speed>
  <fix>3d</fix>
</trkpt>
<trkpt lat="33.810107" lon="-118.3941324">
  <ele>-0.11</ele>
  <time>2026-09-02T22:07:24Z</time>
  <course>8.76</course>
  <speed>0.7224956747275377</speed>
  <fix>3d</fix>
</trkpt>
<trkpt lat="33.810107" lon="-118.3941323">
  <ele>-0.11</ele>
  <time>2026-09-02T22:07:24Z</time>
  <course>8.76</course>
  <speed>0.7224956747275377</speed>
  <fix>3d</fix>
</trkpt>
<trkpt lat="33.810107" lon="-118.3941323">
  <ele>-0.11</ele>
  <time>2026-09-02T22:07:24Z</time>
  <course>8.76</course>
  <speed>0.7224956747275377</speed>
  <fix>3d</fix>
</trkpt>
<trkpt lat="33.8101071" lon="-118.3941322">
  <ele>-0.11</ele>
  <time>2026-09-02T22:07:24Z</time>
  <course>8.76</course>
  <speed>0.7224956747275377</speed>
  <fix>3d</fix>
</trkpt>
<trkpt lat="33.8101071" lon="-118.3941322">
  <ele>-0.11</ele>
  <time>2026-09-02T22:07:24Z</time>
  <course>8.76</course>
  <speed>0.7224956747275377</speed>
  <fix>3d</fix>
</trkpt>
<trkpt lat="33.8101067" lon="-118.3941332">
  <ele>-0.1</ele>
  <time>2026-09-02T22:07:24Z</time>
  <course>45.59</course>
  <speed>0.73</speed>
  <fix>3d</fix>
</trkpt>
<trkpt lat="33.8101071" lon="-118.3941321">
  <ele>-0.11</ele>
  <time>2026-09-02T22:07:24Z</time>
  <course>8.77</course>
  <speed>0.7224956747275377</speed>
  <fix>3d</fix>
</trkpt>
<trkpt lat="33.8101072" lon="-118.3941321">
  <ele>-0.11</ele>
  <time>2026-09-02T22:07:24Z</time>
  <course>8.77</course>
  <speed>0.7224956747275377</speed>
  <fix>3d</fix>
</trkpt>
<trkpt lat="33.8101073" lon="-118.394132">
  <ele>-0.111</ele>
  <time>2026-09-02T22:07:24Z</time>
  <course>8.77</course>
  <speed>0.7224956747275377</speed>
  <fix>3d</fix>
</trkpt>
<trkpt lat="33.8101073" lon="-118.3941319">
  <ele>-0.111</ele>
  <time>2026-09-02T22:07:24Z</time>
  <course>8.77</course>
  <speed>0.7224956747275377</speed>
  <fix>3d</fix>
</trkpt>
<trkpt lat="33.8101073" lon="-118.3941319">
  <ele>-0.111</ele>
  <time>2026-09-02T22:07:24Z</time>
  <course>8.77</course>
  <speed>0.7224956747275377</speed>
  <fix>3d</fix>
</trkpt>
<trkpt lat="33.8101074" lon="-118.3941319">
  <ele>-0.111</ele>
  <time>2026-09-02T22:07:24Z</time>
  <course>8.77</course>
  <speed>0.7224956747275377</speed>
  <fix>3d</fix>
</trkpt>
<trkpt lat="33.8101074" lon="-118.3941318">
  <ele>-0.111</ele>
  <time>2026-09-02T22:07:24Z</time>
  <course>8.77</course>
  <speed>0.7224956747275377</speed>
  <fix>3d</fix>
</trkpt>
<trkpt lat="33.8101074" lon="-118.3941318">
  <ele>-0.111</ele>
  <time>2026-09-02T22:07:24Z</time>
  <course>8.78</course>
  <speed>0.7224956747275377</speed>
  <fix>3d</fix>
</trkpt>
<trkpt lat="33.8101075" lon="-118.3941317">
  <ele>-0.111</ele>
  <time>2026-09-02T22:07:24Z</time>
  <course>8.78</course>
  <speed>0.7224956747275377</speed>
  <fix>3d</fix>
</trkpt>
<trkpt lat="33.8101075" lon="-118.3941317">
  <ele>-0.111</ele>
  <time>2026-09-02T22:07:24Z</time>
  <course>8.78</course>
  <speed>0.7224956747275377</speed>
  <fix>3d</fix>
</trkpt>
<trkpt lat="33.8101067" lon="-118.3941332">
  <ele>-0.1</ele>
  <time>2026-09-02T22:07:24Z</time>
  <course>45.59</course>
  <speed>0.73</speed>
  <fix>3d</fix>
</trkpt>
<trkpt lat="33.8101076" lon="-118.3941316">
  <ele>-0.111</ele>
  <time>2026-09-02T22:07:24Z</time>
  <course>8.78</course>
  <speed>0.7224956747275377</speed>
  <fix>3d</fix>
</trkpt>
<trkpt lat="33.8101076" lon="-118.3941316">
  <ele>-0.111</ele>
  <time>2026-09-02T22:07:24Z</time>
  <course>8.78</course>
  <speed>0.7224956747275377</speed>
  <fix>3d</fix>
</trkpt>
<trkpt lat="33.8101077" lon="-118.3941315">
  <ele>-0.111</ele>
  <time>2026-09-02T22:07:24Z</time>
  <course>8.78</course>
  <speed>0.7224956747275377</speed>
  <fix>3d</fix>
</trkpt>
<trkpt lat="33.8101077" lon="-118.3941314">
  <ele>-0.111</ele>
  <time>2026-09-02T22:07:24Z</time>
  <course>8.78</course>
  <speed>0.7224956747275377</speed>
  <fix>3d</fix>
</trkpt>
<trkpt lat="33.8101077" lon="-118.3941314">
  <ele>-0.111</ele>
  <time>2026-09-02T22:07:24Z</time>
  <course>8.79</course>
  <speed>0.7224956747275377</speed>
  <fix>3d</fix>
</trkpt>
<trkpt lat="33.8101078" lon="-118.3941314">
  <ele>-0.111</ele>
  <time>2026-09-02T22:07:24Z</time>
  <course>8.79</course>
  <speed>0.7224956747275377</speed>
  <fix>3d</fix>
</trkpt>
<trkpt lat="33.8101078" lon="-118.3941313">
  <ele>-0.111</ele>
  <time>2026-09-02T22:07:24Z</time>
  <course>8.79</course>
  <speed>0.7224956747275377</speed>
  <fix>3d</fix>
</trkpt>
<trkpt lat="33.8101079" lon="-118.3941313">
  <ele>-0.111</ele>
  <time>2026-09-02T22:07:24Z</time>
  <course>8.79</course>
  <speed>0.7224956747275377</speed>
  <fix>3d</fix>
</trkpt>
<trkpt lat="33.8101079" lon="-118.3941312">
  <ele>-0.112</ele>
  <time>2026-09-02T22:07:24Z</time>
  <course>8.79</course>
  <speed>0.7224956747275377</speed>
  <fix>3d</fix>
</trkpt>
<trkpt lat="33.8101079" lon="-118.3941312">
  <ele>-0.112</ele>
  <time>2026-09-02T22:07:24Z</time>
  <course>8.79</course>
  <speed>0.7224956747275377</speed>
  <fix>3d</fix>
</trkpt>
<trkpt lat="33.810108" lon="-118.3941311">
  <ele>-0.112</ele>
  <time>2026-09-02T22:07:24Z</time>
  <course>8.79</course>
  <speed>0.7224956747275377</speed>
  <fix>3d</fix>
</trkpt>
<trkpt lat="33.810108" lon="-118.3941311">
  <ele>-0.112</ele>
  <time>2026-09-02T22:07:24Z</time>
  <course>8.79</course>
  <speed>0.7224956747275377</speed>
  <fix>3d</fix>
</trkpt>
<trkpt lat="33.8101076" lon="-118.394132">
  <ele>-0.1</ele>
  <time>2026-09-02T22:07:24Z</time>
  <course>45.62</course>
  <speed>0.73</speed>
  <fix>3d</fix>
</trkpt>
<trkpt lat="33.810108" lon="-118.3941311">
  <ele>-0.112</ele>
  <time>2026-09-02T22:07:24Z</time>
  <course>8.79</course>
  <speed>0.7224956747275377</speed>
  <fix>3d</fix>
</trkpt>
<trkpt lat="33.8101081" lon="-118.394131">
  <ele>-0.112</ele>
  <time>2026-09-02T22:07:24Z</time>
  <course>8.8</course>
  <speed>0.7224956747275377</speed>
  <fix>3d</fix>
</trkpt>
<trkpt lat="33.8101081" lon="-118.3941309">
  <ele>-0.112</ele>
  <time>2026-09-02T22:07:24Z</time>
  <course>8.8</course>
  <speed>0.7224956747275377</speed>
  <fix>3d</fix>
</trkpt>
<trkpt lat="33.8101082" lon="-118.3941309">
  <ele>-0.112</ele>
  <time>2026-09-02T22:07:24Z</time>
  <course>8.8</course>
  <speed>0.7224956747275377</speed>
  <fix>3d</fix>
</trkpt>
<trkpt lat="33.8101082" lon="-118.3941309">
  <ele>-0.112</ele>
  <time>2026-09-02T22:07:24Z</time>
  <course>8.8</course>
  <speed>0.7224956747275377</speed>
  <fix>3d</fix>
</trkpt>
<trkpt lat="33.8101082" lon="-118.3941308">
  <ele>-0.112</ele>
  <time>2026-09-02T22:07:24Z</time>
  <course>8.8</course>
  <speed>0.7224956747275377</speed>
  <fix>3d</fix>
</trkpt>
<trkpt lat="33.8101083" lon="-118.3941308">
  <ele>-0.112</ele>
  <time>2026-09-02T22:07:24Z</time>
  <course>8.8</course>
  <speed>0.7224956747275377</speed>
  <fix>3d</fix>
</trkpt>
<trkpt lat="33.8101083" lon="-118.3941307">
  <ele>-0.112</ele>
  <time>2026-09-02T22:07:24Z</time>
  <course>8.8</course>
  <speed>0.7224956747275377</speed>
  <fix>3d</fix>
</trkpt>
<trkpt lat="33.8101083" lon="-118.3941307">
  <ele>-0.112</ele>
  <time>2026-09-02T22:07:24Z</time>
  <course>8.8</course>
  <speed>0.7224956747275377</speed>
  <fix>3d</fix>
</trkpt>
<trkpt lat="33.8101084" lon="-118.3941306">
  <ele>-0.113</ele>
  <time>2026-09-02T22:07:24Z</time>
  <course>8.81</course>
  <speed>0.7224956747275377</speed>
  <fix>3d</fix>
</trkpt>
<trkpt lat="33.8101084" lon="-118.3941306">
  <ele>-0.113</ele>
  <time>2026-09-02T22:07:24Z</time>
  <course>8.81</course>
  <speed>0.7224956747275377</speed>
  <fix>3d</fix>
</trkpt>
<trkpt lat="33.8101085" lon="-118.3941305">
  <ele>-0.113</ele>
  <time>2026-09-02T22:07:24Z</time>
  <course>8.81</course>
  <speed>0.7224956747275377</speed>
  <fix>3d</fix>
</trkpt>
<trkpt lat="33.8101085" lon="-118.3941305">
  <ele>-0.113</ele>
  <time>2026-09-02T22:07:24Z</time>
  <course>8.81</course>
  <speed>0.7224956747275377</speed>
  <fix>3d</fix>
</trkpt>
<trkpt lat="33.8101076" lon="-118.394132">
  <ele>-0.1</ele>
  <time>2026-09-02T22:07:24Z</time>
  <course>45.62</course>
  <speed>0.73</speed>
  <fix>3d</fix>
</trkpt>
<trkpt lat="33.8101086" lon="-118.3941304">
  <ele>-0.113</ele>
  <time>2026-09-02T22:07:24Z</time>
  <course>8.81</course>
  <speed>0.7224956747275377</speed>
  <fix>3d</fix>
</trkpt>
<trkpt lat="33.8101086" lon="-118.3941304">
  <ele>-0.113</ele>
  <time>2026-09-02T22:07:24Z</time>
  <course>8.81</course>
  <speed>0.7224956747275377</speed>
  <fix>3d</fix>
</trkpt>
<trkpt lat="33.8101086" lon="-118.3941303">
  <ele>-0.113</ele>
  <time>2026-09-02T22:07:24Z</time>
  <course>8.82</course>
  <speed>0.7224956747275377</speed>
  <fix>3d</fix>
</trkpt>
<trkpt lat="33.8101087" lon="-118.3941303">
  <ele>-0.113</ele>
  <time>2026-09-02T22:07:24Z</time>
  <course>8.82</course>
  <speed>0.7224956747275377</speed>
  <fix>3d</fix>
</trkpt>
<trkpt lat="33.8101087" lon="-118.3941302">
  <ele>-0.113</ele>
  <time>2026-09-02T22:07:24Z</time>
  <course>8.82</course>
  <speed>0.7224956747275377</speed>
  <fix>3d</fix>
</trkpt>
<trkpt lat="33.8101087" lon="-118.3941302">
  <ele>-0.113</ele>
  <time>2026-09-02T22:07:24Z</time>
  <course>8.82</course>
  <speed>0.7224956747275377</speed>
  <fix>3d</fix>
</trkpt>
<trkpt lat="33.8101088" lon="-118.3941301">
  <ele>-0.114</ele>
  <time>2026-09-02T22:07:24Z</time>
  <course>8.82</course>
  <speed>0.7224956747275377</speed>
  <fix>3d</fix>
</trkpt>
<trkpt lat="33.8101088" lon="-118.3941301">
  <ele>-0.114</ele>
  <time>2026-09-02T22:07:24Z</time>
  <course>8.82</course>
  <speed>0.7224956747275377</speed>
  <fix>3d</fix>
</trkpt>
<trkpt lat="33.8101089" lon="-118.39413">
  <ele>-0.114</ele>
  <time>2026-09-02T22:07:24Z</time>
  <course>8.82</course>
  <speed>0.7224956747275377</speed>
  <fix>3d</fix>
</trkpt>
<trkpt lat="33.8101089" lon="-118.39413">
  <ele>-0.114</ele>
  <time>2026-09-02T22:07:24Z</time>
  <course>8.82</course>
  <speed>0.7224956747275377</speed>
  <fix>3d</fix>
</trkpt>
<trkpt lat="33.8101089" lon="-118.3941299">
  <ele>-0.114</ele>
  <time>2026-09-02T22:07:24Z</time>
  <course>8.82</course>
  <speed>0.7224956747275377</speed>
  <fix>3d</fix>
</trkpt>
<trkpt lat="33.8101089" lon="-118.3941299">
  <ele>-0.114</ele>
  <time>2026-09-02T22:07:24Z</time>
  <course>8.82</course>
  <speed>0.7224956747275377</speed>
  <fix>3d</fix>
</trkpt>
<trkpt lat="33.8101086" lon="-118.3941309">
  <ele>-0.1</ele>
  <time>2026-09-02T22:07:24Z</time>
  <course>45.65</course>
  <speed>0.73</speed>
  <fix>3d</fix>
</trkpt>
<trkpt lat="33.810109" lon="-118.3941298">
  <ele>-0.114</ele>
  <time>2026-09-02T22:07:24Z</time>
  <course>8.83</course>
  <speed>0.7224956747275377</speed>
  <fix>3d</fix>
</trkpt>
<trkpt lat="33.8101091" lon="-118.3941298">
  <ele>-0.114</ele>
  <time>2026-09-02T22:07:24Z</time>
  <course>8.83</course>
  <speed>0.7224956747275377</speed>
  <fix>3d</fix>
</trkpt>
<trkpt lat="33.8101091" lon="-118.3941297">
  <ele>-0.114</ele>
  <time>2026-09-02T22:07:24Z</time>
  <course>8.83</course>
  <speed>0.7224956747275377</speed>
  <fix>3d</fix>
</trkpt>
<trkpt lat="33.8101091" lon="-118.3941297">
  <ele>-0.115</ele>
  <time>2026-09-02T22:07:24Z</time>
  <course>8.83</course>
  <speed>0.7224956747275377</speed>
  <fix>3d</fix>
</trkpt>
<trkpt lat="33.8101092" lon="-118.3941296">
  <ele>-0.115</ele>
  <time>2026-09-02T22:07:24Z</time>
  <course>8.83</course>
  <speed>0.7224956747275377</speed>
  <fix>3d</fix>
</trkpt>
<trkpt lat="33.8101092" lon="-118.3941296">
  <ele>-0.115</ele>
  <time>2026-09-02T22:07:24Z</time>
  <course>8.83</course>
  <speed>0.7224956747275377</speed>
  <fix>3d</fix>
</trkpt>
<trkpt lat="33.8101093" lon="-118.3941295">
  <ele>-0.115</ele>
  <time>2026-09-02T22:07:24Z</time>
  <course>8.84</course>
  <speed>0.7224956747275377</speed>
  <fix>3d</fix>
</trkpt>
<trkpt lat="33.8101093" lon="-118.3941295">
  <ele>-0.115</ele>
  <time>2026-09-02T22:07:24Z</time>
  <course>8.84</course>
  <speed>0.7224956747275377</speed>
  <fix>3d</fix>
</trkpt>
<trkpt lat="33.8101093" lon="-118.3941294">
  <ele>-0.115</ele>
  <time>2026-09-02T22:07:24Z</time>
  <course>8.84</course>
  <speed>0.7224956747275377</speed>
  <fix>3d</fix>
</trkpt>
<trkpt lat="33.8101094" lon="-118.3941294">
  <ele>-0.115</ele>
  <time>2026-09-02T22:07:24Z</time>
  <course>8.84</course>
  <speed>0.7224956747275377</speed>
  <fix>3d</fix>
</trkpt>
<trkpt lat="33.8101094" lon="-118.3941294">
  <ele>-0.115</ele>
  <time>2026-09-02T22:07:24Z</time>
  <course>8.84</course>
  <speed>0.7224956747275377</speed>
  <fix>3d</fix>
</trkpt>
<trkpt lat="33.8101086" lon="-118.3941309">
  <ele>-0.1</ele>
  <time>2026-09-02T22:07:24Z</time>
  <course>45.65</course>
  <speed>0.73</speed>
  <fix>3d</fix>
</trkpt>
<trkpt lat="33.8101094" lon="-118.3941294">
  <ele>-0.116</ele>
  <time>2026-09-02T22:07:24Z</time>
  <course>8.84</course>
  <speed>0.7224956747275377</speed>
  <fix>3d</fix>
</trkpt>
<trkpt lat="33.8101095" lon="-118.3941293">
  <ele>-0.116</ele>
  <time>2026-09-02T22:07:24Z</time>
  <course>8.84</course>
  <speed>0.7224956747275377</speed>
  <fix>3d</fix>
</trkpt>
<trkpt lat="33.8101095" lon="-118.3941292">
  <ele>-0.116</ele>
  <time>2026-09-02T22:07:24Z</time>
  <course>8.84</course>
  <speed>0.7224956747275377</speed>
  <fix>3d</fix>
</trkpt>
<trkpt lat="33.8101096" lon="-118.3941292">
  <ele>-0.116</ele>
  <time>2026-09-02T22:07:24Z</time>
  <course>8.85</course>
  <speed>0.7224956747275377</speed>
  <fix>3d</fix>
</trkpt>
<trkpt lat="33.8101096" lon="-118.3941291">
  <ele>-0.116</ele>
  <time>2026-09-02T22:07:24Z</time>
  <course>8.85</course>
  <speed>0.7224956747275377</speed>
  <fix>3d</fix>
</trkpt>
<trkpt lat="33.8101096" lon="-118.3941291">
  <ele>-0.116</ele>
  <time>2026-09-02T22:07:24Z</time>
  <course>8.85</course>
  <speed>0.7224956747275377</speed>
  <fix>3d</fix>
</trkpt>
<trkpt lat="33.8101097" lon="-118.394129">
  <ele>-0.116</ele>
  <time>2026-09-02T22:07:24Z</time>
  <course>8.85</course>
  <speed>0.7224956747275377</speed>
  <fix>3d</fix>
</trkpt>
<trkpt lat="33.8101097" lon="-118.394129">
  <ele>-0.116</ele>
  <time>2026-09-02T22:07:24Z</time>
  <course>8.85</course>
  <speed>0.7224956747275377</speed>
  <fix>3d</fix>
</trkpt>
<trkpt lat="33.8101098" lon="-118.3941289">
  <ele>-0.116</ele>
  <time>2026-09-02T22:07:24Z</time>
  <course>8.85</course>
  <speed>0.7224956747275377</speed>
  <fix>3d</fix>
</trkpt>
<trkpt lat="33.8101098" lon="-118.3941289">
  <ele>-0.116</ele>
  <time>2026-09-02T22:07:24Z</time>
  <course>8.85</course>
  <speed>0.7224956747275377</speed>
  <fix>3d</fix>
</trkpt>
<trkpt lat="33.8101098" lon="-118.3941288">
  <ele>-0.116</ele>
  <time>2026-09-02T22:07:24Z</time>
  <course>8.85</course>
  <speed>0.7224956747275377</speed>
  <fix>3d</fix>
</trkpt>
<trkpt lat="33.8101098" lon="-118.3941288">
  <ele>-0.116</ele>
  <time>2026-09-02T22:07:24Z</time>
  <course>8.85</course>
  <speed>0.7224956747275377</speed>
  <fix>3d</fix>
</trkpt>
<trkpt lat="33.8101095" lon="-118.3941298">
  <ele>-0.1</ele>
  <time>2026-09-02T22:07:24Z</time>
  <course>45.68</course>
  <speed>0.73</speed>
  <fix>3d</fix>
</trkpt>
<trkpt lat="33.8101099" lon="-118.3941288">
  <ele>-0.116</ele>
  <time>2026-09-02T22:07:24Z</time>
  <course>8.86</course>
  <speed>0.7224956747275377</speed>
  <fix>3d</fix>
</trkpt>
<trkpt lat="33.8101099" lon="-118.3941287">
  <ele>-0.116</ele>
  <time>2026-09-02T22:07:24Z</time>
  <course>8.86</course>
  <speed>0.7224956747275377</speed>
  <fix>3d</fix>
</trkpt>
<trkpt lat="33.81011" lon="-118.3941286">
  <ele>-0.116</ele>
  <time>2026-09-02T22:07:24Z</time>
  <course>8.86</course>
  <speed>0.7224956747275377</speed>
  <fix>3d</fix>
</trkpt>
<trkpt lat="33.81011" lon="-118.3941286">
  <ele>-0.116</ele>
  <time>2026-09-02T22:07:24Z</time>
  <course>8.86</course>
  <speed>0.7224956747275377</speed>
  <fix>3d</fix>
</trkpt>
<trkpt lat="33.8101101" lon="-118.3941285">
  <ele>-0.116</ele>
  <time>2026-09-02T22:07:24Z</time>
  <course>8.86</course>
  <speed>0.7224956747275377</speed>
  <fix>3d</fix>
</trkpt>
<trkpt lat="33.8101101" lon="-118.3941285">
  <ele>-0.116</ele>
  <time>2026-09-02T22:07:24Z</time>
  <course>8.86</course>
  <speed>0.7224956747275377</speed>
  <fix>3d</fix>
</trkpt>
<trkpt lat="33.8101102" lon="-118.3941284">
  <ele>-0.116</ele>
  <time>2026-09-02T22:07:24Z</time>
  <course>8.87</course>
  <speed>0.7224956747275377</speed>
  <fix>3d</fix>
</trkpt>
<trkpt lat="33.8101102" lon="-118.3941284">
  <ele>-0.117</ele>
  <time>2026-09-02T22:07:24Z</time>
  <course>8.87</course>
  <speed>0.7224956747275377</speed>
  <fix>3d</fix>
</trkpt>
<trkpt lat="33.8101103" lon="-118.3941283">
  <ele>-0.117</ele>
  <time>2026-09-02T22:07:24Z</time>
  <course>8.87</course>
  <speed>0.7224956747275377</speed>
  <fix>3d</fix>
</trkpt>
<trkpt lat="33.8101103" lon="-118.3941283">
  <ele>-0.117</ele>
  <time>2026-09-02T22:07:24Z</time>
  <course>8.87</course>
  <speed>0.7224956747275377</speed>
  <fix>3d</fix>
</trkpt>
<trkpt lat="33.8101103" lon="-118.3941282">
  <ele>-0.117</ele>
  <time>2026-09-02T22:07:24Z</time>
  <course>8.87</course>
  <speed>0.7224956747275377</speed>
  <fix>3d</fix>
</trkpt>
<trkpt lat="33.8101095" lon="-118.3941298">
  <ele>-0.1</ele>
  <time>2026-09-02T22:07:24Z</time>
  <course>45.68</course>
  <speed>0.73</speed>
  <fix>3d</fix>
</trkpt>
<trkpt lat="33.8101103" lon="-118.3941282">
  <ele>-0.117</ele>
  <time>2026-09-02T22:07:24Z</time>
  <course>8.87</course>
  <speed>0.7224956747275377</speed>
  <fix>3d</fix>
</trkpt>
<trkpt lat="33.8101104" lon="-118.3941282">
  <ele>-0.117</ele>
  <time>2026-09-02T22:07:24Z</time>
  <course>8.87</course>
  <speed>0.7224956747275377</speed>
  <fix>3d</fix>
</trkpt>
<trkpt lat="33.8101104" lon="-118.3941281">
  <ele>-0.117</ele>
  <time>2026-09-02T22:07:24Z</time>
  <course>8.87</course>
  <speed>0.7224956747275377</speed>
  <fix>3d</fix>
</trkpt>
<trkpt lat="33.8101105" lon="-118.394128">
  <ele>-0.117</ele>
  <time>2026-09-02T22:07:24Z</time>
  <course>8.88</course>
  <speed>0.7224956747275377</speed>
  <fix>3d</fix>
</trkpt>
<trkpt lat="33.8101105" lon="-118.394128">
  <ele>-0.117</ele>
  <time>2026-09-02T22:07:24Z</time>
  <course>8.88</course>
  <speed>0.7224956747275377</speed>
  <fix>3d</fix>
</trkpt>
<trkpt lat="33.8101106" lon="-118.3941279">
  <ele>-0.117</ele>
  <time>2026-09-02T22:07:24Z</time>
  <course>8.88</course>
  <speed>0.7224956747275377</speed>
  <fix>3d</fix>
</trkpt>
<trkpt lat="33.8101106" lon="-118.3941279">
  <ele>-0.117</ele>
  <time>2026-09-02T22:07:24Z</time>
  <course>8.88</course>
  <speed>0.7224956747275377</speed>
  <fix>3d</fix>
</trkpt>
<trkpt lat="33.8101106" lon="-118.3941279">
  <ele>-0.117</ele>
  <time>2026-09-02T22:07:24Z</time>
  <course>8.88</course>
  <speed>0.7224956747275377</speed>
  <fix>3d</fix>
</trkpt>
<trkpt lat="33.8101107" lon="-118.3941278">
  <ele>-0.117</ele>
  <time>2026-09-02T22:07:24Z</time>
  <course>8.88</course>
  <speed>0.7224956747275377</speed>
  <fix>3d</fix>
</trkpt>
<trkpt lat="33.8101107" lon="-118.3941278">
  <ele>-0.117</ele>
  <time>2026-09-02T22:07:24Z</time>
  <course>8.88</course>
  <speed>0.7224956747275377</speed>
  <fix>3d</fix>
</trkpt>
<trkpt lat="33.8101107" lon="-118.3941277">
  <ele>-0.117</ele>
  <time>2026-09-02T22:07:24Z</time>
  <course>8.88</course>
  <speed>0.7224956747275377</speed>
  <fix>3d</fix>
</trkpt>
<trkpt lat="33.8101108" lon="-118.3941277">
  <ele>-0.117</ele>
  <time>2026-09-02T22:07:24Z</time>
  <course>8.88</course>
  <speed>0.7224956747275377</speed>
  <fix>3d</fix>
</trkpt>
<trkpt lat="33.8101108" lon="-118.3941277">
  <ele>-0.117</ele>
  <time>2026-09-02T22:07:24Z</time>
  <course>8.88</course>
  <speed>0.7224956747275377</speed>
  <fix>3d</fix>
</trkpt>
<trkpt lat="33.8101104" lon="-118.3941286">
  <ele>-0.1</ele>
  <time>2026-09-02T22:07:24Z</time>
  <course>45.71</course>
  <speed>0.73</speed>
  <fix>3d</fix>
</trkpt>
<trkpt lat="33.8101108" lon="-118.3941276">
  <ele>-0.117</ele>
  <time>2026-09-02T22:07:24Z</time>
  <course>8.89</course>
  <speed>0.7224956747275377</speed>
  <fix>3d</fix>
</trkpt>
<trkpt lat="33.8101109" lon="-118.3941275">
  <ele>-0.117</ele>
  <time>2026-09-02T22:07:24Z</time>
  <course>8.89</course>
  <speed>0.7224956747275377</speed>
  <fix>3d</fix>
</trkpt>
<trkpt lat="33.8101109" lon="-118.3941275">
  <ele>-0.117</ele>
  <time>2026-09-02T22:07:24Z</time>
  <course>8.89</course>
  <speed>0.7224956747275377</speed>
  <fix>3d</fix>
</trkpt>
<trkpt lat="33.810111" lon="-118.3941274">
  <ele>-0.117</ele>
  <time>2026-09-02T22:07:24Z</time>
  <course>8.89</course>
  <speed>0.7224956747275377</speed>
  <fix>3d</fix>
</trkpt>
<trkpt lat="33.810111" lon="-118.3941274">
  <ele>-0.117</ele>
  <time>2026-09-02T22:07:24Z</time>
  <course>8.89</course>
  <speed>0.7224956747275377</speed>
  <fix>3d</fix>
</trkpt>
<trkpt lat="33.810111" lon="-118.3941273">
  <ele>-0.117</ele>
  <time>2026-09-02T22:07:24Z</time>
  <course>8.89</course>
  <speed>0.7224956747275377</speed>
  <fix>3d</fix>
</trkpt>
<trkpt lat="33.8101111" lon="-118.3941273">
  <ele>-0.117</ele>
  <time>2026-09-02T22:07:24Z</time>
  <course>8.89</course>
  <speed>0.7224956747275377</speed>
  <fix>3d</fix>
</trkpt>
<trkpt lat="33.8101111" lon="-118.3941273">
  <ele>-0.117</ele>
  <time>2026-09-02T22:07:24Z</time>
  <course>8.9</course>
  <speed>0.7224956747275377</speed>
  <fix>3d</fix>
</trkpt>
<trkpt lat="33.8101111" lon="-118.3941272">
  <ele>-0.117</ele>
  <time>2026-09-02T22:07:24Z</time>
  <course>8.9</course>
  <speed>0.7224956747275377</speed>
  <fix>3d</fix>
</trkpt>
<trkpt lat="33.8101112" lon="-118.3941272">
  <ele>-0.117</ele>
  <time>2026-09-02T22:07:24Z</time>
  <course>8.9</course>
  <speed>0.7224956747275377</speed>
  <fix>3d</fix>
</trkpt>
<trkpt lat="33.8101112" lon="-118.3941271">
  <ele>-0.117</ele>
  <time>2026-09-02T22:07:24Z</time>
  <course>8.9</course>
  <speed>0.7224956747275377</speed>
  <fix>3d</fix>
</trkpt>
<trkpt lat="33.8101112" lon="-118.3941271">
  <ele>-0.117</ele>
  <time>2026-09-02T22:07:24Z</time>
  <course>8.9</course>
  <speed>0.7224956747275377</speed>
  <fix>3d</fix>
</trkpt>
<trkpt lat="33.8101104" lon="-118.3941286">
  <ele>-0.1</ele>
  <time>2026-09-02T22:07:24Z</time>
  <course>45.71</course>
  <speed>0.73</speed>
  <fix>3d</fix>
</trkpt>
<trkpt lat="33.8101113" lon="-118.3941271">
  <ele>-0.117</ele>
  <time>2026-09-02T22:07:24Z</time>
  <course>8.9</course>
  <speed>0.7224956747275377</speed>
  <fix>3d</fix>
</trkpt>
<trkpt lat="33.8101113" lon="-118.394127">
  <ele>-0.118</ele>
  <time>2026-09-02T22:07:24Z</time>
  <course>8.9</course>
  <speed>0.7224956747275377</speed>
  <fix>3d</fix>
</trkpt>
<trkpt lat="33.8101114" lon="-118.3941269">
  <ele>-0.118</ele>
  <time>2026-09-02T22:07:24Z</time>
  <course>8.9</course>
  <speed>0.7224956747275377</speed>
  <fix>3d</fix>
</trkpt>
<trkpt lat="33.8101114" lon="-118.3941269">
  <ele>-0.118</ele>
  <time>2026-09-02T22:07:24Z</time>
  <course>8.91</course>
  <speed>0.7224956747275377</speed>
  <fix>3d</fix>
</trkpt>
<trkpt lat="33.8101115" lon="-118.3941268">
  <ele>-0.118</ele>
  <time>2026-09-02T22:07:24Z</time>
  <course>8.91</course>
  <speed>0.7224956747275377</speed>
  <fix>3d</fix>
</trkpt>
<trkpt lat="33.8101115" lon="-118.3941268">
  <ele>-0.117</ele>
  <time>2026-09-02T22:07:24Z</time>
  <course>8.91</course>
  <speed>0.7224956747275377</speed>
  <fix>3d</fix>
</trkpt>
<trkpt lat="33.8101115" lon="-118.3941267">
  <ele>-0.117</ele>
  <time>2026-09-02T22:07:24Z</time>
  <course>8.91</course>
  <speed>0.7224956747275377</speed>
  <fix>3d</fix>
</trkpt>
<trkpt lat="33.8101116" lon="-118.3941267">
  <ele>-0.117</ele>
  <time>2026-09-02T22:07:24Z</time>
  <course>8.91</course>
  <speed>0.7224956747275377</speed>
  <fix>3d</fix>
</trkpt>
<trkpt lat="33.8101116" lon="-118.3941266">
  <ele>-0.117</ele>
  <time>2026-09-02T22:07:24Z</time>
  <course>8.91</course>
  <speed>0.7224956747275377</speed>
  <fix>3d</fix>
</trkpt>
<trkpt lat="33.8101117" lon="-118.3941266">
  <ele>-0.117</ele>
  <time>2026-09-02T22:07:24Z</time>
  <course>8.91</course>
  <speed>0.7224956747275377</speed>
  <fix>3d</fix>
</trkpt>
<trkpt lat="33.8101117" lon="-118.3941265">
  <ele>-0.117</ele>
  <time>2026-09-02T22:07:24Z</time>
  <course>8.91</course>
  <speed>0.7224956747275377</speed>
  <fix>3d</fix>
</trkpt>
<trkpt lat="33.8101117" lon="-118.3941265">
  <ele>-0.117</ele>
  <time>2026-09-02T22:07:24Z</time>
  <course>8.91</course>
  <speed>0.7224956747275377</speed>
  <fix>3d</fix>
</trkpt>
<trkpt lat="33.8101113" lon="-118.3941275">
  <ele>-0.1</ele>
  <time>2026-09-02T22:07:24Z</time>
  <course>45.74</course>
  <speed>0.73</speed>
  <fix>3d</fix>
</trkpt>
<trkpt lat="33.8101117" lon="-118.3941265">
  <ele>-0.117</ele>
  <time>2026-09-02T22:07:24Z</time>
  <course>8.91</course>
  <speed>0.7224956747275377</speed>
  <fix>3d</fix>
</trkpt>
<trkpt lat="33.8101118" lon="-118.3941264">
  <ele>-0.117</ele>
  <time>2026-09-02T22:07:24Z</time>
  <course>8.92</course>
  <speed>0.7224956747275377</speed>
  <fix>3d</fix>
</trkpt>
<trkpt lat="33.8101118" lon="-118.3941264">
  <ele>-0.117</ele>
  <time>2026-09-02T22:07:24Z</time>
  <course>8.92</course>
  <speed>0.7224956747275377</speed>
  <fix>3d</fix>
</trkpt>
<trkpt lat="33.8101119" lon="-118.3941263">
  <ele>-0.117</ele>
  <time>2026-09-02T22:07:24Z</time>
  <course>8.92</course>
  <speed>0.7224956747275377</speed>
  <fix>3d</fix>
</trkpt>
<trkpt lat="33.8101119" lon="-118.3941263">
  <ele>-0.117</ele>
  <time>2026-09-02T22:07:24Z</time>
  <course>8.92</course>
  <speed>0.7224956747275377</speed>
  <fix>3d</fix>
</trkpt>
<trkpt lat="33.810112" lon="-118.3941262">
  <ele>-0.117</ele>
  <time>2026-09-02T22:07:24Z</time>
  <course>8.92</course>
  <speed>0.7224956747275377</speed>
  <fix>3d</fix>
</trkpt>
<trkpt lat="33.810112" lon="-118.3941262">
  <ele>-0.117</ele>
  <time>2026-09-02T22:07:24Z</time>
  <course>8.92</course>
  <speed>0.7224956747275377</speed>
  <fix>3d</fix>
</trkpt>
<trkpt lat="33.810112" lon="-118.3941261">
  <ele>-0.117</ele>
  <time>2026-09-02T22:07:24Z</time>
  <course>8.92</course>
  <speed>0.7224956747275377</speed>
  <fix>3d</fix>
</trkpt>
<trkpt lat="33.8101121" lon="-118.3941261">
  <ele>-0.116</ele>
  <time>2026-09-02T22:07:24Z</time>
  <course>8.93</course>
  <speed>0.7224956747275377</speed>
  <fix>3d</fix>
</trkpt>
<trkpt lat="33.8101121" lon="-118.394126">
  <ele>-0.116</ele>
  <time>2026-09-02T22:07:24Z</time>
  <course>8.93</course>
  <speed>0.7224956747275377</speed>
  <fix>3d</fix>
</trkpt>
<trkpt lat="33.8101121" lon="-118.394126">
  <ele>-0.116</ele>
  <time>2026-09-02T22:07:24Z</time>
  <course>8.93</course>
  <speed>0.7224956747275377</speed>
  <fix>3d</fix>
</trkpt>
<trkpt lat="33.8101122" lon="-118.394126">
  <ele>-0.116</ele>
  <time>2026-09-02T22:07:24Z</time>
  <course>8.93</course>
  <speed>0.7224956747275377</speed>
  <fix>3d</fix>
</trkpt>
<trkpt lat="33.8101113" lon="-118.3941275">
  <ele>-0.1</ele>
  <time>2026-09-02T22:07:24Z</time>
  <course>45.74</course>
  <speed>0.73</speed>
  <fix>3d</fix>
</trkpt>
<trkpt lat="33.8101122" lon="-118.394126">
  <ele>-0.116</ele>
  <time>2026-09-02T22:07:24Z</time>
  <course>8.93</course>
  <speed>0.7224956747275377</speed>
  <fix>3d</fix>
</trkpt>
<trkpt lat="33.8101122" lon="-118.3941259">
  <ele>-0.116</ele>
  <time>2026-09-02T22:07:24Z</time>
  <course>8.93</course>
  <speed>0.7224956747275377</speed>
  <fix>3d</fix>
</trkpt>
<trkpt lat="33.8101123" lon="-118.3941258">
  <ele>-0.116</ele>
  <time>2026-09-02T22:07:24Z</time>
  <course>8.93</course>
  <speed>0.7224956747275377</speed>
  <fix>3d</fix>
</trkpt>
<trkpt lat="33.8101123" lon="-118.3941258">
  <ele>-0.115</ele>
  <time>2026-09-02T22:07:24Z</time>
  <course>8.93</course>
  <speed>0.7224956747275377</speed>
  <fix>3d</fix>
</trkpt>
<trkpt lat="33.8101124" lon="-118.3941257">
  <ele>-0.115</ele>
  <time>2026-09-02T22:07:24Z</time>
  <course>8.94</course>
  <speed>0.7224956747275377</speed>
  <fix>3d</fix>
</trkpt>
<trkpt lat="33.8101124" lon="-118.3941257">
  <ele>-0.115</ele>
  <time>2026-09-02T22:07:24Z</time>
  <course>8.94</course>
  <speed>0.7224956747275377</speed>
  <fix>3d</fix>
</trkpt>
<trkpt lat="33.8101124" lon="-118.3941256">
  <ele>-0.115</ele>
  <time>2026-09-02T22:07:24Z</time>
  <course>8.94</course>
  <speed>0.7224956747275377</speed>
  <fix>3d</fix>
</trkpt>
<trkpt lat="33.8101125" lon="-118.3941256">
  <ele>-0.115</ele>
  <time>2026-09-02T22:07:24Z</time>
  <course>8.94</course>
  <speed>0.7224956747275377</speed>
  <fix>3d</fix>
</trkpt>
<trkpt lat="33.8101125" lon="-118.3941255">
  <ele>-0.115</ele>
  <time>2026-09-02T22:07:24Z</time>
  <course>8.94</course>
  <speed>0.7224956747275377</speed>
  <fix>3d</fix>
</trkpt>
<trkpt lat="33.8101126" lon="-118.3941255">
  <ele>-0.115</ele>
  <time>2026-09-02T22:07:24Z</time>
  <course>8.94</course>
  <speed>0.7224956747275377</speed>
  <fix>3d</fix>
</trkpt>
<trkpt lat="33.8101126" lon="-118.3941254">
  <ele>-0.115</ele>
  <time>2026-09-02T22:07:24Z</time>
  <course>8.94</course>
  <speed>0.7224956747275377</speed>
  <fix>3d</fix>
</trkpt>
<trkpt lat="33.8101126" lon="-118.3941254">
  <ele>-0.115</ele>
  <time>2026-09-02T22:07:24Z</time>
  <course>8.94</course>
  <speed>0.7224956747275377</speed>
  <fix>3d</fix>
</trkpt>
<trkpt lat="33.8101123" lon="-118.3941263">
  <ele>-0.1</ele>
  <time>2026-09-02T22:07:24Z</time>
  <course>45.77</course>
  <speed>0.73</speed>
  <fix>3d</fix>
</trkpt>
<trkpt lat="33.8101126" lon="-118.3941254">
  <ele>-0.115</ele>
  <time>2026-09-02T22:07:24Z</time>
  <course>8.94</course>
  <speed>0.7224956747275377</speed>
  <fix>3d</fix>
</trkpt>
<trkpt lat="33.8101127" lon="-118.3941253">
  <ele>-0.115</ele>
  <time>2026-09-02T22:07:24Z</time>
  <course>8.95</course>
  <speed>0.7224956747275377</speed>
  <fix>3d</fix>
</trkpt>
<trkpt lat="33.8101128" lon="-118.3941252">
  <ele>-0.114</ele>
  <time>2026-09-02T22:07:24Z</time>
  <course>8.95</course>
  <speed>0.7224956747275377</speed>
  <fix>3d</fix>
</trkpt>
<trkpt lat="33.8101128" lon="-118.3941252">
  <ele>-0.114</ele>
  <time>2026-09-02T22:07:24Z</time>
  <course>8.95</course>
  <speed>0.7224956747275377</speed>
  <fix>3d</fix>
</trkpt>
<trkpt lat="33.8101128" lon="-118.3941252">
  <ele>-0.114</ele>
  <time>2026-09-02T22:07:24Z</time>
  <course>8.95</course>
  <speed>0.7224956747275377</speed>
  <fix>3d</fix>
</trkpt>
<trkpt lat="33.8101129" lon="-118.3941251">
  <ele>-0.114</ele>
  <time>2026-09-02T22:07:24Z</time>
  <course>8.95</course>
  <speed>0.7224956747275377</speed>
  <fix>3d</fix>
</trkpt>
<trkpt lat="33.8101129" lon="-118.3941251">
  <ele>-0.114</ele>
  <time>2026-09-02T22:07:24Z</time>
  <course>8.95</course>
  <speed>0.7224956747275377</speed>
  <fix>3d</fix>
</trkpt>
<trkpt lat="33.8101129" lon="-118.394125">
  <ele>-0.114</ele>
  <time>2026-09-02T22:07:24Z</time>
  <course>8.95</course>
  <speed>0.7224956747275377</speed>
  <fix>3d</fix>
</trkpt>
<trkpt lat="33.810113" lon="-118.394125">
  <ele>-0.114</ele>
  <time>2026-09-02T22:07:24Z</time>
  <course>8.95</course>
  <speed>0.7224956747275377</speed>
  <fix>3d</fix>
</trkpt>
<trkpt lat="33.810113" lon="-118.3941249">
  <ele>-0.114</ele>
  <time>2026-09-02T22:07:24Z</time>
  <course>8.95</course>
  <speed>0.7224956747275377</speed>
  <fix>3d</fix>
</trkpt>
<trkpt lat="33.810113" lon="-118.3941249">
  <ele>-0.114</ele>
  <time>2026-09-02T22:07:24Z</time>
  <course>8.96</course>
  <speed>0.7224956747275377</speed>
  <fix>3d</fix>
</trkpt>
<trkpt lat="33.8101131" lon="-118.3941249">
  <ele>-0.114</ele>
  <time>2026-09-02T22:07:24Z</time>
  <course>8.96</course>
  <speed>0.7224956747275377</speed>
  <fix>3d</fix>
</trkpt>
<trkpt lat="33.8101131" lon="-118.3941248">
  <ele>-0.114</ele>
  <time>2026-09-02T22:07:24Z</time>
  <course>8.96</course>
  <speed>0.7224956747275377</speed>
  <fix>3d</fix>
</trkpt>
<trkpt lat="33.8101123" lon="-118.3941263">
  <ele>-0.1</ele>
  <time>2026-09-02T22:07:24Z</time>
  <course>45.77</course>
  <speed>0.73</speed>
  <fix>3d</fix>
</trkpt>
<trkpt lat="33.8101131" lon="-118.3941248">
  <ele>-0.114</ele>
  <time>2026-09-02T22:07:24Z</time>
  <course>8.96</course>
  <speed>0.7224956747275377</speed>
  <fix>3d</fix>
</trkpt>
<trkpt lat="33.8101132" lon="-118.3941247">
  <ele>-0.114</ele>
  <time>2026-09-02T22:07:24Z</time>
  <course>8.96</course>
  <speed>0.7224956747275377</speed>
  <fix>3d</fix>
</trkpt>
<trkpt lat="33.8101132" lon="-118.3941247">
  <ele>-0.114</ele>
  <time>2026-09-02T22:07:24Z</time>
  <course>8.96</course>
  <speed>0.7224956747275377</speed>
  <fix>3d</fix>
</trkpt>
<trkpt lat="33.8101132" lon="-118.3941246">
  <ele>-0.114</ele>
  <time>2026-09-02T22:07:24Z</time>
  <course>8.96</course>
  <speed>0.7224956747275377</speed>
  <fix>3d</fix>
</trkpt>
<trkpt lat="33.8101133" lon="-118.3941246">
  <ele>-0.114</ele>
  <time>2026-09-02T22:07:24Z</time>
  <course>8.96</course>
  <speed>0.7224956747275377</speed>
  <fix>3d</fix>
</trkpt>
<trkpt lat="33.8101133" lon="-118.3941245">
  <ele>-0.114</ele>
  <time>2026-09-02T22:07:24Z</time>
  <course>8.97</course>
  <speed>0.7224956747275377</speed>
  <fix>3d</fix>
</trkpt>
<trkpt lat="33.8101134" lon="-118.3941245">
  <ele>-0.114</ele>
  <time>2026-09-02T22:07:24Z</time>
  <course>8.97</course>
  <speed>0.7224956747275377</speed>
  <fix>3d</fix>
</trkpt>
<trkpt lat="33.8101134" lon="-118.3941244">
  <ele>-0.114</ele>
  <time>2026-09-02T22:07:24Z</time>
  <course>8.97</course>
  <speed>0.7224956747275377</speed>
  <fix>3d</fix>
</trkpt>
<trkpt lat="33.8101134" lon="-118.3941244">
  <ele>-0.113</ele>
  <time>2026-09-02T22:07:24Z</time>
  <course>8.97</course>
  <speed>0.7224956747275377</speed>
  <fix>3d</fix>
</trkpt>
<trkpt lat="33.8101135" lon="-118.3941244">
  <ele>-0.113</ele>
  <time>2026-09-02T22:07:24Z</time>
  <course>8.97</course>
  <speed>0.7224956747275377</speed>
  <fix>3d</fix>
</trkpt>
<trkpt lat="33.8101135" lon="-118.3941243">
  <ele>-0.113</ele>
  <time>2026-09-02T22:07:24Z</time>
  <course>8.97</course>
  <speed>0.7224956747275377</speed>
  <fix>3d</fix>
</trkpt>
<trkpt lat="33.8101136" lon="-118.3941243">
  <ele>-0.113</ele>
  <time>2026-09-02T22:07:24Z</time>
  <course>8.97</course>
  <speed>0.7224956747275377</speed>
  <fix>3d</fix>
</trkpt>
<trkpt lat="33.8101136" lon="-118.3941243">
  <ele>-0.113</ele>
  <time>2026-09-02T22:07:24Z</time>
  <course>8.97</course>
  <speed>0.7224956747275377</speed>
  <fix>3d</fix>
</trkpt>
<trkpt lat="33.8101132" lon="-118.3941252">
  <ele>-0.1</ele>
  <time>2026-09-02T22:07:24Z</time>
  <course>45.8</course>
  <speed>0.73</speed>
  <fix>3d</fix>
</trkpt>
<trkpt lat="33.8101136" lon="-118.3941242">
  <ele>-0.113</ele>
  <time>2026-09-02T22:07:24Z</time>
  <course>8.97</course>
  <speed>0.7224956747275377</speed>
  <fix>3d</fix>
</trkpt>
<trkpt lat="33.8101137" lon="-118.3941241">
  <ele>-0.113</ele>
  <time>2026-09-02T22:07:24Z</time>
  <course>8.98</course>
  <speed>0.7224956747275377</speed>
  <fix>3d</fix>
</trkpt>
<trkpt lat="33.8101137" lon="-118.3941241">
  <ele>-0.113</ele>
  <time>2026-09-02T22:07:24Z</time>
  <course>8.98</course>
  <speed>0.7224956747275377</speed>
  <fix>3d</fix>
</trkpt>
<trkpt lat="33.8101137" lon="-118.394124">
  <ele>-0.114</ele>
  <time>2026-09-02T22:07:24Z</time>
  <course>8.98</course>
  <speed>0.7224956747275377</speed>
  <fix>3d</fix>
</trkpt>
<trkpt lat="33.8101138" lon="-118.394124">
  <ele>-0.114</ele>
  <time>2026-09-02T22:07:24Z</time>
  <course>8.98</course>
  <speed>0.7224956747275377</speed>
  <fix>3d</fix>
</trkpt>
<trkpt lat="33.8101138" lon="-118.3941239">
  <ele>-0.114</ele>
  <time>2026-09-02T22:07:24Z</time>
  <course>8.98</course>
  <speed>0.7224956747275377</speed>
  <fix>3d</fix>
</trkpt>
<trkpt lat="33.8101138" lon="-118.3941239">
  <ele>-0.114</ele>
  <time>2026-09-02T22:07:24Z</time>
  <course>8.98</course>
  <speed>0.7224956747275377</speed>
  <fix>3d</fix>
</trkpt>
<trkpt lat="33.8101139" lon="-118.3941239">
  <ele>-0.114</ele>
  <time>2026-09-02T22:07:24Z</time>
  <course>8.98</course>
  <speed>0.7224956747275377</speed>
  <fix>3d</fix>
</trkpt>
<trkpt lat="33.8101139" lon="-118.3941238">
  <ele>-0.114</ele>
  <time>2026-09-02T22:07:24Z</time>
  <course>8.98</course>
  <speed>0.7224956747275377</speed>
  <fix>3d</fix>
</trkpt>
<trkpt lat="33.8101139" lon="-118.3941238">
  <ele>-0.114</ele>
  <time>2026-09-02T22:07:24Z</time>
  <course>8.98</course>
  <speed>0.7224956747275377</speed>
  <fix>3d</fix>
</trkpt>
<trkpt lat="33.810114" lon="-118.3941237">
  <ele>-0.114</ele>
  <time>2026-09-02T22:07:24Z</time>
  <course>8.99</course>
  <speed>0.7224956747275377</speed>
  <fix>3d</fix>
</trkpt>
<trkpt lat="33.810114" lon="-118.3941237">
  <ele>-0.114</ele>
  <time>2026-09-02T22:07:24Z</time>
  <course>8.99</course>
  <speed>0.7224956747275377</speed>
  <fix>3d</fix>
</trkpt>
<trkpt lat="33.8101132" lon="-118.3941252">
  <ele>-0.1</ele>
  <time>2026-09-02T22:07:24Z</time>
  <course>45.8</course>
  <speed>0.73</speed>
  <fix>3d</fix>
</trkpt>
<trkpt lat="33.810114" lon="-118.3941237">
  <ele>-0.114</ele>
  <time>2026-09-02T22:07:24Z</time>
  <course>8.99</course>
  <speed>0.7224956747275377</speed>
  <fix>3d</fix>
</trkpt>
<trkpt lat="33.8101141" lon="-118.3941236">
  <ele>-0.114</ele>
  <time>2026-09-02T22:07:24Z</time>
  <course>8.99</course>
  <speed>0.7224956747275377</speed>
  <fix>3d</fix>
</trkpt>
<trkpt lat="33.8101141" lon="-118.3941235">
  <ele>-0.114</ele>
  <time>2026-09-02T22:07:24Z</time>
  <course>8.99</course>
  <speed>0.7224956747275377</speed>
  <fix>3d</fix>
</trkpt>
<trkpt lat="33.8101142" lon="-118.3941235">
  <ele>-0.114</ele>
  <time>2026-09-02T22:07:24Z</time>
  <course>8.99</course>
  <speed>0.7224956747275377</speed>
  <fix>3d</fix>
</trkpt>
<trkpt lat="33.8101142" lon="-118.3941234">
  <ele>-0.114</ele>
  <time>2026-09-02T22:07:24Z</time>
  <course>8.99</course>
  <speed>0.7224956747275377</speed>
  <fix>3d</fix>
</trkpt>
<trkpt lat="33.8101142" lon="-118.3941234">
  <ele>-0.114</ele>
  <time>2026-09-02T22:07:24Z</time>
  <course>8.99</course>
  <speed>0.7224956747275377</speed>
  <fix>3d</fix>
</trkpt>
<trkpt lat="33.8101143" lon="-118.3941234">
  <ele>-0.114</ele>
  <time>2026-09-02T22:07:24Z</time>
  <course>8.99</course>
  <speed>0.7224956747275377</speed>
  <fix>3d</fix>
</trkpt>
<trkpt lat="33.8101143" lon="-118.3941233">
  <ele>-0.114</ele>
  <time>2026-09-02T22:07:24Z</time>
  <course>8.99</course>
  <speed>0.7224956747275377</speed>
  <fix>3d</fix>
</trkpt>
<trkpt lat="33.8101143" lon="-118.3941233">
  <ele>-0.114</ele>
  <time>2026-09-02T22:07:24Z</time>
  <course>9.0</course>
  <speed>0.7224956747275377</speed>
  <fix>3d</fix>
</trkpt>
<trkpt lat="33.8101144" lon="-118.3941232">
  <ele>-0.114</ele>
  <time>2026-09-02T22:07:24Z</time>
  <course>9.0</course>
  <speed>0.7224956747275377</speed>
  <fix>3d</fix>
</trkpt>
<trkpt lat="33.8101144" lon="-118.3941232">
  <ele>-0.114</ele>
  <time>2026-09-02T22:07:24Z</time>
  <course>9.0</course>
  <speed>0.7224956747275377</speed>
  <fix>3d</fix>
</trkpt>
<trkpt lat="33.8101145" lon="-118.3941231">
  <ele>-0.114</ele>
  <time>2026-09-02T22:07:24Z</time>
  <course>9.0</course>
  <speed>0.7224956747275377</speed>
  <fix>3d</fix>
</trkpt>
<trkpt lat="33.8101145" lon="-118.3941231">
  <ele>-0.115</ele>
  <time>2026-09-02T22:07:24Z</time>
  <course>9.0</course>
  <speed>0.7224956747275377</speed>
  <fix>3d</fix>
</trkpt>
<trkpt lat="33.8101141" lon="-118.3941241">
  <ele>-0.1</ele>
  <time>2026-09-02T22:07:24Z</time>
  <course>45.83</course>
  <speed>0.73</speed>
  <fix>3d</fix>
</trkpt>
<trkpt lat="33.8101145" lon="-118.3941231">
  <ele>-0.115</ele>
  <time>2026-09-02T22:07:24Z</time>
  <course>9.0</course>
  <speed>0.7224956747275377</speed>
  <fix>3d</fix>
</trkpt>
<trkpt lat="33.8101146" lon="-118.394123">
  <ele>-0.115</ele>
  <time>2026-09-02T22:07:24Z</time>
  <course>9.0</course>
  <speed>0.7224956747275377</speed>
  <fix>3d</fix>
</trkpt>
<trkpt lat="33.8101146" lon="-118.394123">
  <ele>-0.115</ele>
  <time>2026-09-02T22:07:24Z</time>
  <course>9.0</course>
  <speed>0.7224956747275377</speed>
  <fix>3d</fix>
</trkpt>
<trkpt lat="33.8101146" lon="-118.3941229">
  <ele>-0.115</ele>
  <time>2026-09-02T22:07:24Z</time>
  <course>9.0</course>
  <speed>0.7224956747275377</speed>
  <fix>3d</fix>
</trkpt>
<trkpt lat="33.8101147" lon="-118.3941229">
  <ele>-0.114</ele>
  <time>2026-09-02T22:07:24Z</time>
  <course>9.01</course>
  <speed>0.7224956747275377</speed>
  <fix>3d</fix>
</trkpt>
<trkpt lat="33.8101147" lon="-118.3941228">
  <ele>-0.114</ele>
  <time>2026-09-02T22:07:24Z</time>
  <course>9.01</course>
  <speed>0.7224956747275377</speed>
  <fix>3d</fix>
</trkpt>
<trkpt lat="33.8101148" lon="-118.3941228">
  <ele>-0.114</ele>
  <time>2026-09-02T22:07:24Z</time>
  <course>9.01</course>
  <speed>0.7224956747275377</speed>
  <fix>3d</fix>
</trkpt>
<trkpt lat="33.8101148" lon="-118.3941227">
  <ele>-0.114</ele>
  <time>2026-09-02T22:07:24Z</time>
  <course>9.01</course>
  <speed>0.7224956747275377</speed>
  <fix>3d</fix>
</trkpt>
<trkpt lat="33.8101148" lon="-118.3941227">
  <ele>-0.114</ele>
  <time>2026-09-02T22:07:24Z</time>
  <course>9.01</course>
  <speed>0.7224956747275377</speed>
  <fix>3d</fix>
</trkpt>
<trkpt lat="33.8101149" lon="-118.3941226">
  <ele>-0.114</ele>
  <time>2026-09-02T22:07:24Z</time>
  <course>9.01</course>
  <speed>0.7224956747275377</speed>
  <fix>3d</fix>
</trkpt>
<trkpt lat="33.8101149" lon="-118.3941226">
  <ele>-0.114</ele>
  <time>2026-09-02T22:07:24Z</time>
  <course>9.01</course>
  <speed>0.7224956747275377</speed>
  <fix>3d</fix>
</trkpt>
<trkpt lat="33.8101149" lon="-118.3941225">
  <ele>-0.114</ele>
  <time>2026-09-02T22:07:24Z</time>
  <course>9.01</course>
  <speed>0.7224956747275377</speed>
  <fix>3d</fix>
</trkpt>
<trkpt lat="33.8101149" lon="-118.3941225">
  <ele>-0.114</ele>
  <time>2026-09-02T22:07:24Z</time>
  <course>9.01</course>
  <speed>0.7224956747275377</speed>
  <fix>3d</fix>
</trkpt>
<trkpt lat="33.8101141" lon="-118.3941241">
  <ele>-0.1</ele>
  <time>2026-09-02T22:07:24Z</time>
  <course>45.83</course>
  <speed>0.73</speed>
  <fix>3d</fix>
</trkpt>
<trkpt lat="33.810115" lon="-118.3941225">
  <ele>-0.114</ele>
  <time>2026-09-02T22:07:24Z</time>
  <course>9.02</course>
  <speed>0.7224956747275377</speed>
  <fix>3d</fix>
</trkpt>
<trkpt lat="33.810115" lon="-118.3941224">
  <ele>-0.114</ele>
  <time>2026-09-02T22:07:24Z</time>
  <course>9.02</course>
  <speed>0.7224956747275377</speed>
  <fix>3d</fix>
</trkpt>
<trkpt lat="33.8101151" lon="-118.3941223">
  <ele>-0.114</ele>
  <time>2026-09-02T22:07:24Z</time>
  <course>9.02</course>
  <speed>0.7224956747275377</speed>
  <fix>3d</fix>
</trkpt>
<trkpt lat="33.8101151" lon="-118.3941223">
  <ele>-0.114</ele>
  <time>2026-09-02T22:07:24Z</time>
  <course>9.02</course>
  <speed>0.7224956747275377</speed>
  <fix>3d</fix>
</trkpt>
<trkpt lat="33.8101152" lon="-118.3941223">
  <ele>-0.113</ele>
  <time>2026-09-02T22:07:24Z</time>
  <course>9.02</course>
  <speed>0.7224956747275377</speed>
  <fix>3d</fix>
</trkpt>
<trkpt lat="33.8101152" lon="-118.3941222">
  <ele>-0.113</ele>
  <time>2026-09-02T22:07:24Z</time>
  <course>9.02</course>
  <speed>0.7224956747275377</speed>
  <fix>3d</fix>
</trkpt>
<trkpt lat="33.8101153" lon="-118.3941221">
  <ele>-0.113</ele>
  <time>2026-09-02T22:07:24Z</time>
  <course>9.02</course>
  <speed>0.7224956747275377</speed>
  <fix>3d</fix>
</trkpt>
<trkpt lat="33.8101153" lon="-118.3941221">
  <ele>-0.113</ele>
  <time>2026-09-02T22:07:24Z</time>
  <course>9.02</course>
  <speed>0.7224956747275377</speed>
  <fix>3d</fix>
</trkpt>
<trkpt lat="33.8101153" lon="-118.3941221">
  <ele>-0.113</ele>
  <time>2026-09-02T22:07:24Z</time>
  <course>9.03</course>
  <speed>0.7224956747275377</speed>
  <fix>3d</fix>
</trkpt>
<trkpt lat="33.8101154" lon="-118.394122">
  <ele>-0.113</ele>
  <time>2026-09-02T22:07:24Z</time>
  <course>9.03</course>
  <speed>0.7224956747275377</speed>
  <fix>3d</fix>
</trkpt>
<trkpt lat="33.8101154" lon="-118.394122">
  <ele>-0.113</ele>
  <time>2026-09-02T22:07:24Z</time>
  <course>9.03</course>
  <speed>0.7224956747275377</speed>
  <fix>3d</fix>
</trkpt>
<trkpt lat="33.8101154" lon="-118.394122">
  <ele>-0.113</ele>
  <time>2026-09-02T22:07:24Z</time>
  <course>9.03</course>
  <speed>0.7224956747275377</speed>
  <fix>3d</fix>
</trkpt>
<trkpt lat="33.810115" lon="-118.3941229">
  <ele>-0.1</ele>
  <time>2026-09-02T22:07:24Z</time>
  <course>45.86</course>
  <speed>0.73</speed>
  <fix>3d</fix>
</trkpt>
<trkpt lat="33.8101155" lon="-118.3941219">
  <ele>-0.113</ele>
  <time>2026-09-02T22:07:24Z</time>
  <course>9.03</course>
  <speed>0.7224956747275377</speed>
  <fix>3d</fix>
</trkpt>
<trkpt lat="33.8101155" lon="-118.3941218">
  <ele>-0.113</ele>
  <time>2026-09-02T22:07:24Z</time>
  <course>9.03</course>
  <speed>0.7224956747275377</speed>
  <fix>3d</fix>
</trkpt>
<trkpt lat="33.8101156" lon="-118.3941218">
  <ele>-0.113</ele>
  <time>2026-09-02T22:07:24Z</time>
  <course>9.03</course>
  <speed>0.7224956747275377</speed>
  <fix>3d</fix>
</trkpt>
<trkpt lat="33.8101156" lon="-118.3941217">
  <ele>-0.113</ele>
  <time>2026-09-02T22:07:24Z</time>
  <course>9.03</course>
  <speed>0.7224956747275377</speed>
  <fix>3d</fix>
</trkpt>
<trkpt lat="33.8101156" lon="-118.3941217">
  <ele>-0.113</ele>
  <time>2026-09-02T22:07:24Z</time>
  <course>9.04</course>
  <speed>0.7224956747275377</speed>
  <fix>3d</fix>
</trkpt>
<trkpt lat="33.8101157" lon="-118.3941216">
  <ele>-0.113</ele>
  <time>2026-09-02T22:07:24Z</time>
  <course>9.04</course>
  <speed>0.7224956747275377</speed>
  <fix>3d</fix>
</trkpt>
<trkpt lat="33.8101157" lon="-118.3941216">
  <ele>-0.113</ele>
  <time>2026-09-02T22:07:24Z</time>
  <course>9.04</course>
  <speed>0.7224956747275377</speed>
  <fix>3d</fix>
</trkpt>
<trkpt lat="33.8101157" lon="-118.3941215">
  <ele>-0.113</ele>
  <time>2026-09-02T22:07:24Z</time>
  <course>9.04</course>
  <speed>0.7224956747275377</speed>
  <fix>3d</fix>
</trkpt>
<trkpt lat="33.8101158" lon="-118.3941215">
  <ele>-0.113</ele>
  <time>2026-09-02T22:07:24Z</time>
  <course>9.04</course>
  <speed>0.7224956747275377</speed>
  <fix>3d</fix>
</trkpt>
<trkpt lat="33.8101158" lon="-118.3941214">
  <ele>-0.113</ele>
  <time>2026-09-02T22:07:24Z</time>
  <course>9.04</course>
  <speed>0.7224956747275377</speed>
  <fix>3d</fix>
</trkpt>
<trkpt lat="33.8101159" lon="-118.3941214">
  <ele>-0.113</ele>
  <time>2026-09-02T22:07:24Z</time>
  <course>9.04</course>
  <speed>0.7224956747275377</speed>
  <fix>3d</fix>
</trkpt>
<trkpt lat="33.8101159" lon="-118.3941214">
  <ele>-0.113</ele>
  <time>2026-09-02T22:07:24Z</time>
  <course>9.04</course>
  <speed>0.7224956747275377</speed>
  <fix>3d</fix>
</trkpt>
<trkpt lat="33.810115" lon="-118.3941229">
  <ele>-0.1</ele>
  <time>2026-09-02T22:07:24Z</time>
  <course>45.86</course>
  <speed>0.73</speed>
  <fix>3d</fix>
</trkpt>
<trkpt lat="33.8101159" lon="-118.3941213">
  <ele>-0.113</ele>
  <time>2026-09-02T22:07:24Z</time>
  <course>9.04</course>
  <speed>0.7224956747275377</speed>
  <fix>3d</fix>
</trkpt>
<trkpt lat="33.810116" lon="-118.3941213">
  <ele>-0.113</ele>
  <time>2026-09-02T22:07:24Z</time>
  <course>9.05</course>
  <speed>0.7224956747275377</speed>
  <fix>3d</fix>
</trkpt>
<trkpt lat="33.810116" lon="-118.3941212">
  <ele>-0.113</ele>
  <time>2026-09-02T22:07:24Z</time>
  <course>9.05</course>
  <speed>0.7224956747275377</speed>
  <fix>3d</fix>
</trkpt>
<trkpt lat="33.810116" lon="-118.3941212">
  <ele>-0.113</ele>
  <time>2026-09-02T22:07:24Z</time>
  <course>9.05</course>
  <speed>0.7224956747275377</speed>
  <fix>3d</fix>
</trkpt>
<trkpt lat="33.8101161" lon="-118.3941211">
  <ele>-0.113</ele>
  <time>2026-09-02T22:07:24Z</time>
  <course>9.05</course>
  <speed>0.7224956747275377</speed>
  <fix>3d</fix>
</trkpt>
<trkpt lat="33.8101161" lon="-118.394121">
  <ele>-0.113</ele>
  <time>2026-09-02T22:07:24Z</time>
  <course>9.05</course>
  <speed>0.7224956747275377</speed>
  <fix>3d</fix>
</trkpt>
<trkpt lat="33.8101162" lon="-118.394121">
  <ele>-0.113</ele>
  <time>2026-09-02T22:07:24Z</time>
  <course>9.05</course>
  <speed>0.7224956747275377</speed>
  <fix>3d</fix>
</trkpt>
<trkpt lat="33.8101162" lon="-118.3941209">
  <ele>-0.113</ele>
  <time>2026-09-02T22:07:24Z</time>
  <course>9.05</course>
  <speed>0.7224956747275377</speed>
  <fix>3d</fix>
</trkpt>
<trkpt lat="33.8101163" lon="-118.3941209">
  <ele>-0.113</ele>
  <time>2026-09-02T22:07:24Z</time>
  <course>9.05</course>
  <speed>0.7224956747275377</speed>
  <fix>3d</fix>
</trkpt>
<trkpt lat="33.8101163" lon="-118.3941209">
  <ele>-0.113</ele>
  <time>2026-09-02T22:07:24Z</time>
  <course>9.06</course>
  <speed>0.7224956747275377</speed>
  <fix>3d</fix>
</trkpt>
<trkpt lat="33.8101163" lon="-118.3941208">
  <ele>-0.113</ele>
  <time>2026-09-02T22:07:24Z</time>
  <course>9.06</course>
  <speed>0.7224956747275377</speed>
  <fix>3d</fix>
</trkpt>
<trkpt lat="33.8101159" lon="-118.3941218">
  <ele>-0.1</ele>
  <time>2026-09-02T22:07:24Z</time>
  <course>45.89</course>
  <speed>0.73</speed>
  <fix>3d</fix>
</trkpt>
<trkpt lat="33.8101163" lon="-118.3941208">
  <ele>-0.113</ele>
  <time>2026-09-02T22:07:24Z</time>
  <course>9.06</course>
  <speed>0.7224956747275377</speed>
  <fix>3d</fix>
</trkpt>
<trkpt lat="33.8101164" lon="-118.3941207">
  <ele>-0.113</ele>
  <time>2026-09-02T22:07:24Z</time>
  <course>9.06</course>
  <speed>0.7224956747275377</speed>
  <fix>3d</fix>
</trkpt>
<trkpt lat="33.8101164" lon="-118.3941207">
  <ele>-0.113</ele>
  <time>2026-09-02T22:07:24Z</time>
  <course>9.06</course>
  <speed>0.7224956747275377</speed>
  <fix>3d</fix>
</trkpt>
<trkpt lat="33.8101165" lon="-118.3941206">
  <ele>-0.113</ele>
  <time>2026-09-02T22:07:24Z</time>
  <course>9.06</course>
  <speed>0.7224956747275377</speed>
  <fix>3d</fix>
</trkpt>
<trkpt lat="33.8101165" lon="-118.3941206">
  <ele>-0.113</ele>
  <time>2026-09-02T22:07:24Z</time>
  <course>9.06</course>
  <speed>0.7224956747275377</speed>
  <fix>3d</fix>
</trkpt>
<trkpt lat="33.8101165" lon="-118.3941205">
  <ele>-0.113</ele>
  <time>2026-09-02T22:07:24Z</time>
  <course>9.06</course>
  <speed>0.7224956747275377</speed>
  <fix>3d</fix>
</trkpt>
<trkpt lat="33.8101166" lon="-118.3941205">
  <ele>-0.113</ele>
  <time>2026-09-02T22:07:24Z</time>
  <course>9.06</course>
  <speed>0.7224956747275377</speed>
  <fix>3d</fix>
</trkpt>
<trkpt lat="33.8101166" lon="-118.3941205">
  <ele>-0.112</ele>
  <time>2026-09-02T22:07:24Z</time>
  <course>9.06</course>
  <speed>0.7224956747275377</speed>
  <fix>3d</fix>
</trkpt>
<trkpt lat="33.8101167" lon="-118.3941204">
  <ele>-0.112</ele>
  <time>2026-09-02T22:07:24Z</time>
  <course>9.07</course>
  <speed>0.7224956747275377</speed>
  <fix>3d</fix>
</trkpt>
<trkpt lat="33.8101167" lon="-118.3941203">
  <ele>-0.112</ele>
  <time>2026-09-02T22:07:24Z</time>
  <course>9.07</course>
  <speed>0.7224956747275377</speed>
  <fix>3d</fix>
</trkpt>
<trkpt lat="33.8101167" lon="-118.3941203">
  <ele>-0.112</ele>
  <time>2026-09-02T22:07:24Z</time>
  <course>9.07</course>
  <speed>0.7224956747275377</speed>
  <fix>3d</fix>
</trkpt>
<trkpt lat="33.8101168" lon="-118.3941203">
  <ele>-0.112</ele>
  <time>2026-09-02T22:07:24Z</time>
  <course>9.07</course>
  <speed>0.7224956747275377</speed>
  <fix>3d</fix>
</trkpt>
<trkpt lat="33.8101168" lon="-118.3941203">
  <ele>-0.112</ele>
  <time>2026-09-02T22:07:24Z</time>
  <course>9.07</course>
  <speed>0.7224956747275377</speed>
  <fix>3d</fix>
</trkpt>
<trkpt lat="33.8101159" lon="-118.3941218">
  <ele>-0.1</ele>
  <time>2026-09-02T22:07:24Z</time>
  <course>45.89</course>
  <speed>0.73</speed>
  <fix>3d</fix>
</trkpt>
<trkpt lat="33.8101168" lon="-118.3941202">
  <ele>-0.112</ele>
  <time>2026-09-02T22:07:24Z</time>
  <course>9.07</course>
  <speed>0.7224956747275377</speed>
  <fix>3d</fix>
</trkpt>
<trkpt lat="33.8101169" lon="-118.3941201">
  <ele>-0.112</ele>
  <time>2026-09-02T22:07:24Z</time>
  <course>9.07</course>
  <speed>0.7224956747275377</speed>
  <fix>3d</fix>
</trkpt>
<trkpt lat="33.8101169" lon="-118.39412">
  <ele>-0.111</ele>
  <time>2026-09-02T22:07:24Z</time>
  <course>9.07</course>
  <speed>0.7224956747275377</speed>
  <fix>3d</fix>
</trkpt>
<trkpt lat="33.810117" lon="-118.39412">
  <ele>-0.111</ele>
  <time>2026-09-02T22:07:24Z</time>
  <course>9.08</course>
  <speed>0.7224956747275377</speed>
  <fix>3d</fix>
</trkpt>
<trkpt lat="33.810117" lon="-118.39412">
  <ele>-0.111</ele>
  <time>2026-09-02T22:07:24Z</time>
  <course>9.08</course>
  <speed>0.7224956747275377</speed>
  <fix>3d</fix>
</trkpt>
<trkpt lat="33.810117" lon="-118.3941199">
  <ele>-0.111</ele>
  <time>2026-09-02T22:07:24Z</time>
  <course>9.08</course>
  <speed>0.7224956747275377</speed>
  <fix>3d</fix>
</trkpt>
<trkpt lat="33.8101171" lon="-118.3941199">
  <ele>-0.111</ele>
  <time>2026-09-02T22:07:24Z</time>
  <course>9.08</course>
  <speed>0.7224956747275377</speed>
  <fix>3d</fix>
</trkpt>
<trkpt lat="33.8101171" lon="-118.3941198">
  <ele>-0.111</ele>
  <time>2026-09-02T22:07:24Z</time>
  <course>9.08</course>
  <speed>0.7224956747275377</speed>
  <fix>3d</fix>
</trkpt>
<trkpt lat="33.8101172" lon="-118.3941198">
  <ele>-0.111</ele>
  <time>2026-09-02T22:07:24Z</time>
  <course>9.08</course>
  <speed>0.7224956747275377</speed>
  <fix>3d</fix>
</trkpt>
<trkpt lat="33.8101172" lon="-118.3941197">
  <ele>-0.111</ele>
  <time>2026-09-02T22:07:24Z</time>
  <course>9.08</course>
  <speed>0.7224956747275377</speed>
  <fix>3d</fix>
</trkpt>
<trkpt lat="33.8101172" lon="-118.3941197">
  <ele>-0.11</ele>
  <time>2026-09-02T22:07:24Z</time>
  <course>9.08</course>
  <speed>0.7224956747275377</speed>
  <fix>3d</fix>
</trkpt>
<trkpt lat="33.8101169" lon="-118.3941206">
  <ele>-0.1</ele>
  <time>2026-09-02T22:07:24Z</time>
  <course>45.91</course>
  <speed>0.73</speed>
  <fix>3d</fix>
</trkpt>
<trkpt lat="33.8101172" lon="-118.3941197">
  <ele>-0.11</ele>
  <time>2026-09-02T22:07:24Z</time>
  <course>9.08</course>
  <speed>0.7224956747275377</speed>
  <fix>3d</fix>
</trkpt>
<trkpt lat="33.8101173" lon="-118.3941196">
  <ele>-0.11</ele>
  <time>2026-09-02T22:07:24Z</time>
  <course>9.08</course>
  <speed>0.7224956747275377</speed>
  <fix>3d</fix>
</trkpt>
<trkpt lat="33.8101173" lon="-118.3941196">
  <ele>-0.11</ele>
  <time>2026-09-02T22:07:24Z</time>
  <course>9.09</course>
  <speed>0.7224956747275377</speed>
  <fix>3d</fix>
</trkpt>
<trkpt lat="33.8101174" lon="-118.3941195">
  <ele>-0.11</ele>
  <time>2026-09-02T22:07:24Z</time>
  <course>9.09</course>
  <speed>0.7224956747275377</speed>
  <fix>3d</fix>
</trkpt>
<trkpt lat="33.8101174" lon="-118.3941195">
  <ele>-0.11</ele>
  <time>2026-09-02T22:07:24Z</time>
  <course>9.09</course>
  <speed>0.7224956747275377</speed>
  <fix>3d</fix>
</trkpt>
<trkpt lat="33.8101174" lon="-118.3941194">
  <ele>-0.11</ele>
  <time>2026-09-02T22:07:24Z</time>
  <course>9.09</course>
  <speed>0.7224956747275377</speed>
  <fix>3d</fix>
</trkpt>
<trkpt lat="33.8101175" lon="-118.3941194">
  <ele>-0.11</ele>
  <time>2026-09-02T22:07:24Z</time>
  <course>9.09</course>
  <speed>0.7224956747275377</speed>
  <fix>3d</fix>
</trkpt>
<trkpt lat="33.8101175" lon="-118.3941193">
  <ele>-0.11</ele>
  <time>2026-09-02T22:07:24Z</time>
  <course>9.09</course>
  <speed>0.7224956747275377</speed>
  <fix>3d</fix>
</trkpt>
<trkpt lat="33.8101176" lon="-118.3941193">
  <ele>-0.11</ele>
  <time>2026-09-02T22:07:24Z</time>
  <course>9.09</course>
  <speed>0.7224956747275377</speed>
  <fix>3d</fix>
</trkpt>
<trkpt lat="33.8101176" lon="-118.3941192">
  <ele>-0.11</ele>
  <time>2026-09-02T22:07:24Z</time>
  <course>9.09</course>
  <speed>0.7224956747275377</speed>
  <fix>3d</fix>
</trkpt>
<trkpt lat="33.8101177" lon="-118.3941191">
  <ele>-0.11</ele>
  <time>2026-09-02T22:07:24Z</time>
  <course>9.1</course>
  <speed>0.7224956747275377</speed>
  <fix>3d</fix>
</trkpt>
<trkpt lat="33.8101177" lon="-118.3941191">
  <ele>-0.11</ele>
  <time>2026-09-02T22:07:24Z</time>
  <course>9.1</course>
  <speed>0.7224956747275377</speed>
  <fix>3d</fix>
</trkpt>
<trkpt lat="33.8101169" lon="-118.3941206">
  <ele>-0.1</ele>
  <time>2026-09-02T22:07:24Z</time>
  <course>45.91</course>
  <speed>0.73</speed>
  <fix>3d</fix>
</trkpt>
<trkpt lat="33.8101177" lon="-118.3941191">
  <ele>-0.11</ele>
  <time>2026-09-02T22:07:24Z</time>
  <course>9.1</course>
  <speed>0.7224956747275377</speed>
  <fix>3d</fix>
</trkpt>
<trkpt lat="33.8101178" lon="-118.394119">
  <ele>-0.11</ele>
  <time>2026-09-02T22:07:24Z</time>
  <course>9.1</course>
  <speed>0.7224956747275377</speed>
  <fix>3d</fix>
</trkpt>
<trkpt lat="33.8101178" lon="-118.394119">
  <ele>-0.11</ele>
  <time>2026-09-02T22:07:24Z</time>
  <course>9.1</course>
  <speed>0.7224956747275377</speed>
  <fix>3d</fix>
</trkpt>
<trkpt lat="33.8101179" lon="-118.3941189">
  <ele>-0.11</ele>
  <time>2026-09-02T22:07:24Z</time>
  <course>9.1</course>
  <speed>0.7224956747275377</speed>
  <fix>3d</fix>
</trkpt>
<trkpt lat="33.8101179" lon="-118.3941189">
  <ele>-0.11</ele>
  <time>2026-09-02T22:07:24Z</time>
  <course>9.1</course>
  <speed>0.7224956747275377</speed>
  <fix>3d</fix>
</trkpt>
<trkpt lat="33.8101179" lon="-118.3941188">
  <ele>-0.109</ele>
  <time>2026-09-02T22:07:24Z</time>
  <course>9.1</course>
  <speed>0.7224956747275377</speed>
  <fix>3d</fix>
</trkpt>
<trkpt lat="33.810118" lon="-118.3941188">
  <ele>-0.109</ele>
  <time>2026-09-02T22:07:24Z</time>
  <course>9.1</course>
  <speed>0.7224956747275377</speed>
  <fix>3d</fix>
</trkpt>
<trkpt lat="33.810118" lon="-118.3941187">
  <ele>-0.109</ele>
  <time>2026-09-02T22:07:24Z</time>
  <course>9.11</course>
  <speed>0.7224956747275377</speed>
  <fix>3d</fix>
</trkpt>
<trkpt lat="33.810118" lon="-118.3941187">
  <ele>-0.109</ele>
  <time>2026-09-02T22:07:24Z</time>
  <course>9.11</course>
  <speed>0.7224956747275377</speed>
  <fix>3d</fix>
</trkpt>
<trkpt lat="33.8101181" lon="-118.3941186">
  <ele>-0.109</ele>
  <time>2026-09-02T22:07:24Z</time>
  <course>9.11</course>
  <speed>0.7224956747275377</speed>
  <fix>3d</fix>
</trkpt>
<trkpt lat="33.8101181" lon="-118.3941186">
  <ele>-0.109</ele>
  <time>2026-09-02T22:07:24Z</time>
  <course>9.11</course>
  <speed>0.7224956747275377</speed>
  <fix>3d</fix>
</trkpt>
<trkpt lat="33.8101181" lon="-118.3941185">
  <ele>-0.109</ele>
  <time>2026-09-02T22:07:24Z</time>
  <course>9.11</course>
  <speed>0.7224956747275377</speed>
  <fix>3d</fix>
</trkpt>
<trkpt lat="33.8101182" lon="-118.3941185">
  <ele>-0.109</ele>
  <time>2026-09-02T22:07:24Z</time>
  <course>9.11</course>
  <speed>0.7224956747275377</speed>
  <fix>3d</fix>
</trkpt>
<trkpt lat="33.8101178" lon="-118.3941195">
  <ele>-0.1</ele>
  <time>2026-09-02T22:07:24Z</time>
  <course>45.94</course>
  <speed>0.73</speed>
  <fix>3d</fix>
</trkpt>
<trkpt lat="33.8101182" lon="-118.3941185">
  <ele>-0.109</ele>
  <time>2026-09-02T22:07:24Z</time>
  <course>9.11</course>
  <speed>0.7224956747275377</speed>
  <fix>3d</fix>
</trkpt>
<trkpt lat="33.8101182" lon="-118.3941184">
  <ele>-0.109</ele>
  <time>2026-09-02T22:07:24Z</time>
  <course>9.11</course>
  <speed>0.7224956747275377</speed>
  <fix>3d</fix>
</trkpt>
<trkpt lat="33.8101183" lon="-118.3941184">
  <ele>-0.109</ele>
  <time>2026-09-02T22:07:24Z</time>
  <course>9.11</course>
  <speed>0.7224956747275377</speed>
  <fix>3d</fix>
</trkpt>
<trkpt lat="33.8101183" lon="-118.3941183">
  <ele>-0.109</ele>
  <time>2026-09-02T22:07:24Z</time>
  <course>9.12</course>
  <speed>0.7224956747275377</speed>
  <fix>3d</fix>
</trkpt>
<trkpt lat="33.8101184" lon="-118.3941183">
  <ele>-0.109</ele>
  <time>2026-09-02T22:07:24Z</time>
  <course>9.12</course>
  <speed>0.7224956747275377</speed>
  <fix>3d</fix>
</trkpt>
<trkpt lat="33.8101184" lon="-118.3941182">
  <ele>-0.109</ele>
  <time>2026-09-02T22:07:24Z</time>
  <course>9.12</course>
  <speed>0.7224956747275377</speed>
  <fix>3d</fix>
</trkpt>
<trkpt lat="33.8101185" lon="-118.3941182">
  <ele>-0.109</ele>
  <time>2026-09-02T22:07:24Z</time>
  <course>9.12</course>
  <speed>0.7224956747275377</speed>
  <fix>3d</fix>
</trkpt>
<trkpt lat="33.8101185" lon="-118.3941181">
  <ele>-0.109</ele>
  <time>2026-09-02T22:07:24Z</time>
  <course>9.12</course>
  <speed>0.7224956747275377</speed>
  <fix>3d</fix>
</trkpt>
<trkpt lat="33.8101186" lon="-118.394118">
  <ele>-0.109</ele>
  <time>2026-09-02T22:07:24Z</time>
  <course>9.12</course>
  <speed>0.7224956747275377</speed>
  <fix>3d</fix>
</trkpt>
<trkpt lat="33.8101186" lon="-118.394118">
  <ele>-0.109</ele>
  <time>2026-09-02T22:07:24Z</time>
  <course>9.12</course>
  <speed>0.7224956747275377</speed>
  <fix>3d</fix>
</trkpt>
<trkpt lat="33.8101186" lon="-118.394118">
  <ele>-0.109</ele>
  <time>2026-09-02T22:07:24Z</time>
  <course>9.12</course>
  <speed>0.7224956747275377</speed>
  <fix>3d</fix>
</trkpt>
<trkpt lat="33.8101186" lon="-118.394118">
  <ele>-0.109</ele>
  <time>2026-09-02T22:07:24Z</time>
  <course>9.12</course>
  <speed>0.7224956747275377</speed>
  <fix>3d</fix>
</trkpt>
<trkpt lat="33.8101178" lon="-118.3941195">
  <ele>-0.1</ele>
  <time>2026-09-02T22:07:24Z</time>
  <course>45.94</course>
  <speed>0.73</speed>
  <fix>3d</fix>
</trkpt>
<trkpt lat="33.8101187" lon="-118.3941178">
  <ele>-0.109</ele>
  <time>2026-09-02T22:07:24Z</time>
  <course>9.13</course>
  <speed>0.7224956747275377</speed>
  <fix>3d</fix>
</trkpt>
<trkpt lat="33.8101188" lon="-118.3941178">
  <ele>-0.109</ele>
  <time>2026-09-02T22:07:24Z</time>
  <course>9.13</course>
  <speed>0.7224956747275377</speed>
  <fix>3d</fix>
</trkpt>
<trkpt lat="33.8101188" lon="-118.3941177">
  <ele>-0.11</ele>
  <time>2026-09-02T22:07:24Z</time>
  <course>9.13</course>
  <speed>0.7224956747275377</speed>
  <fix>3d</fix>
</trkpt>
<trkpt lat="33.8101188" lon="-118.3941177">
  <ele>-0.11</ele>
  <time>2026-09-02T22:07:24Z</time>
  <course>9.13</course>
  <speed>0.7224956747275377</speed>
  <fix>3d</fix>
</trkpt>
<trkpt lat="33.8101189" lon="-118.3941177">
  <ele>-0.11</ele>
  <time>2026-09-02T22:07:24Z</time>
  <course>9.13</course>
  <speed>0.7224956747275377</speed>
  <fix>3d</fix>
</trkpt>
<trkpt lat="33.8101189" lon="-118.3941176">
  <ele>-0.11</ele>
  <time>2026-09-02T22:07:24Z</time>
  <course>9.13</course>
  <speed>0.7224956747275377</speed>
  <fix>3d</fix>
</trkpt>
<trkpt lat="33.8101189" lon="-118.3941176">
  <ele>-0.11</ele>
  <time>2026-09-02T22:07:24Z</time>
  <course>9.13</course>
  <speed>0.7224956747275377</speed>
  <fix>3d</fix>
</trkpt>
<trkpt lat="33.810119" lon="-118.3941175">
  <ele>-0.11</ele>
  <time>2026-09-02T22:07:24Z</time>
  <course>9.13</course>
  <speed>0.7224956747275377</speed>
  <fix>3d</fix>
</trkpt>
<trkpt lat="33.810119" lon="-118.3941175">
  <ele>-0.11</ele>
  <time>2026-09-02T22:07:24Z</time>
  <course>9.13</course>
  <speed>0.7224956747275377</speed>
  <fix>3d</fix>
</trkpt>
<trkpt lat="33.810119" lon="-118.3941174">
  <ele>-0.11</ele>
  <time>2026-09-02T22:07:24Z</time>
  <course>9.14</course>
  <speed>0.7224956747275377</speed>
  <fix>3d</fix>
</trkpt>
<trkpt lat="33.8101191" lon="-118.3941174">
  <ele>-0.111</ele>
  <time>2026-09-02T22:07:24Z</time>
  <course>9.14</course>
  <speed>0.7224956747275377</speed>
  <fix>3d</fix>
</trkpt>
<trkpt lat="33.8101191" lon="-118.3941174">
  <ele>-0.111</ele>
  <time>2026-09-02T22:07:24Z</time>
  <course>9.14</course>
  <speed>0.7224956747275377</speed>
  <fix>3d</fix>
</trkpt>
<trkpt lat="33.8101187" lon="-118.3941184">
  <ele>-0.1</ele>
  <time>2026-09-02T22:07:24Z</time>
  <course>45.97</course>
  <speed>0.73</speed>
  <fix>3d</fix>
</trkpt>
<trkpt lat="33.8101192" lon="-118.3941173">
  <ele>-0.111</ele>
  <time>2026-09-02T22:07:24Z</time>
  <course>9.14</course>
  <speed>0.7224956747275377</speed>
  <fix>3d</fix>
</trkpt>
<trkpt lat="33.8101192" lon="-118.3941173">
  <ele>-0.111</ele>
  <time>2026-09-02T22:07:24Z</time>
  <course>9.14</course>
  <speed>0.7224956747275377</speed>
  <fix>3d</fix>
</trkpt>
<trkpt lat="33.8101192" lon="-118.3941172">
  <ele>-0.111</ele>
  <time>2026-09-02T22:07:24Z</time>
  <course>9.14</course>
  <speed>0.7224956747275377</speed>
  <fix>3d</fix>
</trkpt>
<trkpt lat="33.8101193" lon="-118.3941172">
  <ele>-0.111</ele>
  <time>2026-09-02T22:07:24Z</time>
  <course>9.14</course>
  <speed>0.7224956747275377</speed>
  <fix>3d</fix>
</trkpt>
<trkpt lat="33.8101193" lon="-118.3941171">
  <ele>-0.111</ele>
  <time>2026-09-02T22:07:24Z</time>
  <course>9.14</course>
  <speed>0.7224956747275377</speed>
  <fix>3d</fix>
</trkpt>
<trkpt lat="33.8101194" lon="-118.394117">
  <ele>-0.111</ele>
  <time>2026-09-02T22:07:24Z</time>
  <course>9.14</course>
  <speed>0.7224956747275377</speed>
  <fix>3d</fix>
</trkpt>
<trkpt lat="33.8101194" lon="-118.394117">
  <ele>-0.111</ele>
  <time>2026-09-02T22:07:24Z</time>
  <course>9.15</course>
  <speed>0.7224956747275377</speed>
  <fix>3d</fix>
</trkpt>
<trkpt lat="33.8101194" lon="-118.394117">
  <ele>-0.111</ele>
  <time>2026-09-02T22:07:24Z</time>
  <course>9.15</course>
  <speed>0.7224956747275377</speed>
  <fix>3d</fix>
</trkpt>
<trkpt lat="33.8101195" lon="-118.3941169">
  <ele>-0.111</ele>
  <time>2026-09-02T22:07:24Z</time>
  <course>9.15</course>
  <speed>0.7224956747275377</speed>
  <fix>3d</fix>
</trkpt>
<trkpt lat="33.8101195" lon="-118.3941169">
  <ele>-0.111</ele>
  <time>2026-09-02T22:07:24Z</time>
  <course>9.15</course>
  <speed>0.7224956747275377</speed>
  <fix>3d</fix>
</trkpt>
<trkpt lat="33.8101195" lon="-118.3941168">
  <ele>-0.111</ele>
  <time>2026-09-02T22:07:24Z</time>
  <course>9.15</course>
  <speed>0.7224956747275377</speed>
  <fix>3d</fix>
</trkpt>
<trkpt lat="33.8101187" lon="-118.3941184">
  <ele>-0.1</ele>
  <time>2026-09-02T22:07:24Z</time>
  <course>45.97</course>
  <speed>0.73</speed>
  <fix>3d</fix>
</trkpt>
<trkpt lat="33.8101196" lon="-118.3941168">
  <ele>-0.111</ele>
  <time>2026-09-02T22:07:24Z</time>
  <course>9.15</course>
  <speed>0.7224956747275377</speed>
  <fix>3d</fix>
</trkpt>
<trkpt lat="33.8101196" lon="-118.3941167">
  <ele>-0.111</ele>
  <time>2026-09-02T22:07:24Z</time>
  <course>9.15</course>
  <speed>0.7224956747275377</speed>
  <fix>3d</fix>
</trkpt>
<trkpt lat="33.8101197" lon="-118.3941167">
  <ele>-0.111</ele>
  <time>2026-09-02T22:07:24Z</time>
  <course>9.15</course>
  <speed>0.7224956747275377</speed>
  <fix>3d</fix>
</trkpt>
<trkpt lat="33.8101197" lon="-118.3941166">
  <ele>-0.111</ele>
  <time>2026-09-02T22:07:24Z</time>
  <course>9.15</course>
  <speed>0.7224956747275377</speed>
  <fix>3d</fix>
</trkpt>
<trkpt lat="33.8101197" lon="-118.3941166">
  <ele>-0.111</ele>
  <time>2026-09-02T22:07:24Z</time>
  <course>9.16</course>
  <speed>0.7224956747275377</speed>
  <fix>3d</fix>
</trkpt>
<trkpt lat="33.8101198" lon="-118.3941165">
  <ele>-0.111</ele>
  <time>2026-09-02T22:07:24Z</time>
  <course>9.16</course>
  <speed>0.7224956747275377</speed>
  <fix>3d</fix>
</trkpt>
<trkpt lat="33.8101198" lon="-118.3941165">
  <ele>-0.111</ele>
  <time>2026-09-02T22:07:24Z</time>
  <course>9.16</course>
  <speed>0.7224956747275377</speed>
  <fix>3d</fix>
</trkpt>
<trkpt lat="33.8101199" lon="-118.3941164">
  <ele>-0.111</ele>
  <time>2026-09-02T22:07:24Z</time>
  <course>9.16</course>
  <speed>0.7224956747275377</speed>
  <fix>3d</fix>
</trkpt>
<trkpt lat="33.8101199" lon="-118.3941164">
  <ele>-0.11</ele>
  <time>2026-09-02T22:07:24Z</time>
  <course>9.16</course>
  <speed>0.7224956747275377</speed>
  <fix>3d</fix>
</trkpt>
<trkpt lat="33.8101199" lon="-118.3941163">
  <ele>-0.11</ele>
  <time>2026-09-02T22:07:24Z</time>
  <course>9.16</course>
  <speed>0.7224956747275377</speed>
  <fix>3d</fix>
</trkpt>
<trkpt lat="33.81012" lon="-118.3941163">
  <ele>-0.11</ele>
  <time>2026-09-02T22:07:24Z</time>
  <course>9.16</course>
  <speed>0.7224956747275377</speed>
  <fix>3d</fix>
</trkpt>
<trkpt lat="33.81012" lon="-118.3941162">
  <ele>-0.11</ele>
  <time>2026-09-02T22:07:24Z</time>
  <course>9.16</course>
  <speed>0.7224956747275377</speed>
  <fix>3d</fix>
</trkpt>
<trkpt lat="33.81012" lon="-118.3941162">
  <ele>-0.11</ele>
  <time>2026-09-02T22:07:24Z</time>
  <course>9.16</course>
  <speed>0.7224956747275377</speed>
  <fix>3d</fix>
</trkpt>
<trkpt lat="33.8101196" lon="-118.3941172">
  <ele>-0.1</ele>
  <time>2026-09-02T22:07:24Z</time>
  <course>45.99</course>
  <speed>0.73</speed>
  <fix>3d</fix>
</trkpt>
<trkpt lat="33.8101201" lon="-118.3941161">
  <ele>-0.11</ele>
  <time>2026-09-02T22:07:24Z</time>
  <course>9.17</course>
  <speed>0.7224956747275377</speed>
  <fix>3d</fix>
</trkpt>
<trkpt lat="33.8101201" lon="-118.3941161">
  <ele>-0.11</ele>
  <time>2026-09-02T22:07:24Z</time>
  <course>9.17</course>
  <speed>0.7224956747275377</speed>
  <fix>3d</fix>
</trkpt>
<trkpt lat="33.8101202" lon="-118.394116">
  <ele>-0.11</ele>
  <time>2026-09-02T22:07:24Z</time>
  <course>9.17</course>
  <speed>0.7224956747275377</speed>
  <fix>3d</fix>
</trkpt>
<trkpt lat="33.8101202" lon="-118.394116">
  <ele>-0.11</ele>
  <time>2026-09-02T22:07:24Z</time>
  <course>9.17</course>
  <speed>0.7224956747275377</speed>
  <fix>3d</fix>
</trkpt>
<trkpt lat="33.8101203" lon="-118.3941159">
  <ele>-0.11</ele>
  <time>2026-09-02T22:07:24Z</time>
  <course>9.17</course>
  <speed>0.7224956747275377</speed>
  <fix>3d</fix>
</trkpt>
<trkpt lat="33.8101203" lon="-118.3941159">
  <ele>-0.11</ele>
  <time>2026-09-02T22:07:24Z</time>
  <course>9.17</course>
  <speed>0.7224956747275377</speed>
  <fix>3d</fix>
</trkpt>
<trkpt lat="33.8101203" lon="-118.3941158">
  <ele>-0.11</ele>
  <time>2026-09-02T22:07:24Z</time>
  <course>9.17</course>
  <speed>0.7224956747275377</speed>
  <fix>3d</fix>
</trkpt>
<trkpt lat="33.8101204" lon="-118.3941158">
  <ele>-0.11</ele>
  <time>2026-09-02T22:07:24Z</time>
  <course>9.17</course>
  <speed>0.7224956747275377</speed>
  <fix>3d</fix>
</trkpt>
<trkpt lat="33.8101204" lon="-118.3941157">
  <ele>-0.11</ele>
  <time>2026-09-02T22:07:24Z</time>
  <course>9.18</course>
  <speed>0.7224956747275377</speed>
  <fix>3d</fix>
</trkpt>
<trkpt lat="33.8101205" lon="-118.3941157">
  <ele>-0.11</ele>
  <time>2026-09-02T22:07:24Z</time>
  <course>9.18</course>
  <speed>0.7224956747275377</speed>
  <fix>3d</fix>
</trkpt>
<trkpt lat="33.8101205" lon="-118.3941157">
  <ele>-0.11</ele>
  <time>2026-09-02T22:07:24Z</time>
  <course>9.18</course>
  <speed>0.7224956747275377</speed>
  <fix>3d</fix>
</trkpt>
<trkpt lat="33.8101196" lon="-118.3941172">
  <ele>-0.1</ele>
  <time>2026-09-02T22:07:24Z</time>
  <course>45.99</course>
  <speed>0.73</speed>
  <fix>3d</fix>
</trkpt>
<trkpt lat="33.8101205" lon="-118.3941156">
  <ele>-0.11</ele>
  <time>2026-09-02T22:07:24Z</time>
  <course>9.18</course>
  <speed>0.7224956747275377</speed>
  <fix>3d</fix>
</trkpt>
<trkpt lat="33.8101206" lon="-118.3941155">
  <ele>-0.11</ele>
  <time>2026-09-02T22:07:24Z</time>
  <course>9.18</course>
  <speed>0.7224956747275377</speed>
  <fix>3d</fix>
</trkpt>
<trkpt lat="33.8101206" lon="-118.3941155">
  <ele>-0.11</ele>
  <time>2026-09-02T22:07:24Z</time>
  <course>9.18</course>
  <speed>0.7224956747275377</speed>
  <fix>3d</fix>
</trkpt>
<trkpt lat="33.8101207" lon="-118.3941154">
  <ele>-0.109</ele>
  <time>2026-09-02T22:07:24Z</time>
  <course>9.18</course>
  <speed>0.7224956747275377</speed>
  <fix>3d</fix>
</trkpt>
<trkpt lat="33.8101207" lon="-118.3941154">
  <ele>-0.11</ele>
  <time>2026-09-02T22:07:24Z</time>
  <course>9.18</course>
  <speed>0.7224956747275377</speed>
  <fix>3d</fix>
</trkpt>
<trkpt lat="33.8101207" lon="-118.3941153">
  <ele>-0.11</ele>
  <time>2026-09-02T22:07:24Z</time>
  <course>9.18</course>
  <speed>0.7224956747275377</speed>
  <fix>3d</fix>
</trkpt>
<trkpt lat="33.8101208" lon="-118.3941153">
  <ele>-0.11</ele>
  <time>2026-09-02T22:07:24Z</time>
  <course>9.19</course>
  <speed>0.7224956747275377</speed>
  <fix>3d</fix>
</trkpt>
<trkpt lat="33.8101208" lon="-118.3941152">
  <ele>-0.11</ele>
  <time>2026-09-02T22:07:24Z</time>
  <course>9.19</course>
  <speed>0.7224956747275377</speed>
  <fix>3d</fix>
</trkpt>
<trkpt lat="33.8101209" lon="-118.3941152">
  <ele>-0.11</ele>
  <time>2026-09-02T22:07:24Z</time>
  <course>9.19</course>
  <speed>0.7224956747275377</speed>
  <fix>3d</fix>
</trkpt>
<trkpt lat="33.8101209" lon="-118.3941151">
  <ele>-0.11</ele>
  <time>2026-09-02T22:07:24Z</time>
  <course>9.19</course>
  <speed>0.7224956747275377</speed>
  <fix>3d</fix>
</trkpt>
<trkpt lat="33.8101209" lon="-118.3941151">
  <ele>-0.11</ele>
  <time>2026-09-02T22:07:24Z</time>
  <course>9.19</course>
  <speed>0.7224956747275377</speed>
  <fix>3d</fix>
</trkpt>
<trkpt lat="33.8101205" lon="-118.3941161">
  <ele>-0.1</ele>
  <time>2026-09-02T22:07:24Z</time>
  <course>46.02</course>
  <speed>0.73</speed>
  <fix>3d</fix>
</trkpt>
<trkpt lat="33.8101209" lon="-118.3941151">
  <ele>-0.11</ele>
  <time>2026-09-02T22:07:24Z</time>
  <course>9.19</course>
  <speed>0.7224956747275377</speed>
  <fix>3d</fix>
</trkpt>
<trkpt lat="33.810121" lon="-118.394115">
  <ele>-0.11</ele>
  <time>2026-09-02T22:07:24Z</time>
  <course>9.19</course>
  <speed>0.7224956747275377</speed>
  <fix>3d</fix>
</trkpt>
<trkpt lat="33.810121" lon="-118.394115">
  <ele>-0.11</ele>
  <time>2026-09-02T22:07:24Z</time>
  <course>9.19</course>
  <speed>0.7224956747275377</speed>
  <fix>3d</fix>
</trkpt>
<trkpt lat="33.8101211" lon="-118.3941149">
  <ele>-0.11</ele>
  <time>2026-09-02T22:07:24Z</time>
  <course>9.19</course>
  <speed>0.7224956747275377</speed>
  <fix>3d</fix>
</trkpt>
<trkpt lat="33.8101211" lon="-118.3941149">
  <ele>-0.11</ele>
  <time>2026-09-02T22:07:24Z</time>
  <course>9.19</course>
  <speed>0.7224956747275377</speed>
  <fix>3d</fix>
</trkpt>
<trkpt lat="33.8101211" lon="-118.3941148">
  <ele>-0.11</ele>
  <time>2026-09-02T22:07:24Z</time>
  <course>9.2</course>
  <speed>0.7224956747275377</speed>
  <fix>3d</fix>
</trkpt>
<trkpt lat="33.8101212" lon="-118.3941148">
  <ele>-0.11</ele>
  <time>2026-09-02T22:07:24Z</time>
  <course>9.2</course>
  <speed>0.7224956747275377</speed>
  <fix>3d</fix>
</trkpt>
<trkpt lat="33.8101212" lon="-118.3941147">
  <ele>-0.11</ele>
  <time>2026-09-02T22:07:24Z</time>
  <course>9.2</course>
  <speed>0.7224956747275377</speed>
  <fix>3d</fix>
</trkpt>
<trkpt lat="33.8101212" lon="-118.3941147">
  <ele>-0.11</ele>
  <time>2026-09-02T22:07:24Z</time>
  <course>9.2</course>
  <speed>0.7224956747275377</speed>
  <fix>3d</fix>
</trkpt>
<trkpt lat="33.8101213" lon="-118.3941147">
  <ele>-0.11</ele>
  <time>2026-09-02T22:07:24Z</time>
  <course>9.2</course>
  <speed>0.7224956747275377</speed>
  <fix>3d</fix>
</trkpt>
<trkpt lat="33.8101213" lon="-118.3941146">
  <ele>-0.11</ele>
  <time>2026-09-02T22:07:24Z</time>
  <course>9.2</course>
  <speed>0.7224956747275377</speed>
  <fix>3d</fix>
</trkpt>
<trkpt lat="33.8101213" lon="-118.3941146">
  <ele>-0.11</ele>
  <time>2026-09-02T22:07:24Z</time>
  <course>9.2</course>
  <speed>0.7224956747275377</speed>
  <fix>3d</fix>
</trkpt>
<trkpt lat="33.8101214" lon="-118.3941145">
  <ele>-0.11</ele>
  <time>2026-09-02T22:07:24Z</time>
  <course>9.2</course>
  <speed>0.7224956747275377</speed>
  <fix>3d</fix>
</trkpt>
<trkpt lat="33.8101214" lon="-118.3941145">
  <ele>-0.11</ele>
  <time>2026-09-02T22:07:24Z</time>
  <course>9.2</course>
  <speed>0.7224956747275377</speed>
  <fix>3d</fix>
</trkpt>
<trkpt lat="33.8101205" lon="-118.3941161">
  <ele>-0.1</ele>
  <time>2026-09-02T22:07:24Z</time>
  <course>46.02</course>
  <speed>0.73</speed>
  <fix>3d</fix>
</trkpt>
<trkpt lat="33.8101215" lon="-118.3941144">
  <ele>-0.11</ele>
  <time>2026-09-02T22:07:24Z</time>
  <course>9.2</course>
  <speed>0.7224956747275377</speed>
  <fix>3d</fix>
</trkpt>
<trkpt lat="33.8101215" lon="-118.3941144">
  <ele>-0.11</ele>
  <time>2026-09-02T22:07:24Z</time>
  <course>9.21</course>
  <speed>0.7224956747275377</speed>
  <fix>3d</fix>
</trkpt>
<trkpt lat="33.8101216" lon="-118.3941143">
  <ele>-0.11</ele>
  <time>2026-09-02T22:07:24Z</time>
  <course>9.21</course>
  <speed>0.7224956747275377</speed>
  <fix>3d</fix>
</trkpt>
<trkpt lat="33.8101216" lon="-118.3941143">
  <ele>-0.109</ele>
  <time>2026-09-02T22:07:24Z</time>
  <course>9.21</course>
  <speed>0.7224956747275377</speed>
  <fix>3d</fix>
</trkpt>
<trkpt lat="33.8101216" lon="-118.3941142">
  <ele>-0.109</ele>
  <time>2026-09-02T22:07:24Z</time>
  <course>9.21</course>
  <speed>0.7224956747275377</speed>
  <fix>3d</fix>
</trkpt>
<trkpt lat="33.8101217" lon="-118.3941142">
  <ele>-0.109</ele>
  <time>2026-09-02T22:07:24Z</time>
  <course>9.21</course>
  <speed>0.7224956747275377</speed>
  <fix>3d</fix>
</trkpt>
<trkpt lat="33.8101217" lon="-118.3941141">
  <ele>-0.109</ele>
  <time>2026-09-02T22:07:24Z</time>
  <course>9.21</course>
  <speed>0.7224956747275377</speed>
  <fix>3d</fix>
</trkpt>
<trkpt lat="33.8101218" lon="-118.3941141">
  <ele>-0.109</ele>
  <time>2026-09-02T22:07:24Z</time>
  <course>9.21</course>
  <speed>0.7224956747275377</speed>
  <fix>3d</fix>
</trkpt>
<trkpt lat="33.8101218" lon="-118.394114">
  <ele>-0.109</ele>
  <time>2026-09-02T22:07:24Z</time>
  <course>9.21</course>
  <speed>0.7224956747275377</speed>
  <fix>3d</fix>
</trkpt>
<trkpt lat="33.8101218" lon="-118.394114">
  <ele>-0.109</ele>
  <time>2026-09-02T22:07:24Z</time>
  <course>9.21</course>
  <speed>0.7224956747275377</speed>
  <fix>3d</fix>
</trkpt>
<trkpt lat="33.8101218" lon="-118.394114">
  <ele>-0.109</ele>
  <time>2026-09-02T22:07:24Z</time>
  <course>9.21</course>
  <speed>0.7224956747275377</speed>
  <fix>3d</fix>
</trkpt>
<trkpt lat="33.8101214" lon="-118.3941149">
  <ele>-0.1</ele>
  <time>2026-09-02T22:07:24Z</time>
  <course>46.05</course>
  <speed>0.73</speed>
  <fix>3d</fix>
</trkpt>
<trkpt lat="33.8101219" lon="-118.3941139">
  <ele>-0.109</ele>
  <time>2026-09-02T22:07:24Z</time>
  <course>9.22</course>
  <speed>0.7224956747275377</speed>
  <fix>3d</fix>
</trkpt>
<trkpt lat="33.810122" lon="-118.3941138">
  <ele>-0.109</ele>
  <time>2026-09-02T22:07:24Z</time>
  <course>9.22</course>
  <speed>0.7224956747275377</speed>
  <fix>3d</fix>
</trkpt>
<trkpt lat="33.810122" lon="-118.3941138">
  <ele>-0.109</ele>
  <time>2026-09-02T22:07:24Z</time>
  <course>9.22</course>
  <speed>0.7224956747275377</speed>
  <fix>3d</fix>
</trkpt>
<trkpt lat="33.810122" lon="-118.3941137">
  <ele>-0.109</ele>
  <time>2026-09-02T22:07:24Z</time>
  <course>9.22</course>
  <speed>0.7224956747275377</speed>
  <fix>3d</fix>
</trkpt>
<trkpt lat="33.8101221" lon="-118.3941137">
  <ele>-0.108</ele>
  <time>2026-09-02T22:07:24Z</time>
  <course>9.22</course>
  <speed>0.7224956747275377</speed>
  <fix>3d</fix>
</trkpt>
<trkpt lat="33.8101221" lon="-118.3941136">
  <ele>-0.108</ele>
  <time>2026-09-02T22:07:24Z</time>
  <course>9.22</course>
  <speed>0.7224956747275377</speed>
  <fix>3d</fix>
</trkpt>
<trkpt lat="33.8101221" lon="-118.3941136">
  <ele>-0.108</ele>
  <time>2026-09-02T22:07:24Z</time>
  <course>9.22</course>
  <speed>0.7224956747275377</speed>
  <fix>3d</fix>
</trkpt>
<trkpt lat="33.8101222" lon="-118.3941135">
  <ele>-0.108</ele>
  <time>2026-09-02T22:07:24Z</time>
  <course>9.22</course>
  <speed>0.7224956747275377</speed>
  <fix>3d</fix>
</trkpt>
<trkpt lat="33.8101222" lon="-118.3941135">
  <ele>-0.108</ele>
  <time>2026-09-02T22:07:24Z</time>
  <course>9.23</course>
  <speed>0.7224956747275377</speed>
  <fix>3d</fix>
</trkpt>
<trkpt lat="33.8101223" lon="-118.3941134">
  <ele>-0.108</ele>
  <time>2026-09-02T22:07:24Z</time>
  <course>9.23</course>
  <speed>0.7224956747275377</speed>
  <fix>3d</fix>
</trkpt>
<trkpt lat="33.8101223" lon="-118.3941134">
  <ele>-0.108</ele>
  <time>2026-09-02T22:07:24Z</time>
  <course>9.23</course>
  <speed>0.7224956747275377</speed>
  <fix>3d</fix>
</trkpt>
<trkpt lat="33.8101223" lon="-118.3941134">
  <ele>-0.108</ele>
  <time>2026-09-02T22:07:24Z</time>
  <course>9.23</course>
  <speed>0.7224956747275377</speed>
  <fix>3d</fix>
</trkpt>
<trkpt lat="33.8101214" lon="-118.3941149">
  <ele>-0.1</ele>
  <time>2026-09-02T22:07:24Z</time>
  <course>46.05</course>
  <speed>0.73</speed>
  <fix>3d</fix>
</trkpt>
<trkpt lat="33.8101224" lon="-118.3941133">
  <ele>-0.108</ele>
  <time>2026-09-02T22:07:24Z</time>
  <course>9.23</course>
  <speed>0.7224956747275377</speed>
  <fix>3d</fix>
</trkpt>
<trkpt lat="33.8101224" lon="-118.3941132">
  <ele>-0.108</ele>
  <time>2026-09-02T22:07:24Z</time>
  <course>9.23</course>
  <speed>0.7224956747275377</speed>
  <fix>3d</fix>
</trkpt>
<trkpt lat="33.8101225" lon="-118.3941132">
  <ele>-0.108</ele>
  <time>2026-09-02T22:07:24Z</time>
  <course>9.23</course>
  <speed>0.7224956747275377</speed>
  <fix>3d</fix>
</trkpt>
<trkpt lat="33.8101225" lon="-118.3941131">
  <ele>-0.108</ele>
  <time>2026-09-02T22:07:24Z</time>
  <course>9.23</course>
  <speed>0.7224956747275377</speed>
  <fix>3d</fix>
</trkpt>
<trkpt lat="33.8101225" lon="-118.3941131">
  <ele>-0.108</ele>
  <time>2026-09-02T22:07:24Z</time>
  <course>9.23</course>
  <speed>0.7224956747275377</speed>
  <fix>3d</fix>
</trkpt>
<trkpt lat="33.8101226" lon="-118.394113">
  <ele>-0.108</ele>
  <time>2026-09-02T22:07:24Z</time>
  <course>9.24</course>
  <speed>0.7224956747275377</speed>
  <fix>3d</fix>
</trkpt>
<trkpt lat="33.8101226" lon="-118.394113">
  <ele>-0.108</ele>
  <time>2026-09-02T22:07:24Z</time>
  <course>9.24</course>
  <speed>0.7224956747275377</speed>
  <fix>3d</fix>
</trkpt>
<trkpt lat="33.8101227" lon="-118.3941129">
  <ele>-0.108</ele>
  <time>2026-09-02T22:07:24Z</time>
  <course>9.24</course>
  <speed>0.7224956747275377</speed>
  <fix>3d</fix>
</trkpt>
<trkpt lat="33.8101227" lon="-118.3941129">
  <ele>-0.108</ele>
  <time>2026-09-02T22:07:24Z</time>
  <course>9.24</course>
  <speed>0.7224956747275377</speed>
  <fix>3d</fix>
</trkpt>
<trkpt lat="33.8101227" lon="-118.3941128">
  <ele>-0.108</ele>
  <time>2026-09-02T22:07:24Z</time>
  <course>9.24</course>
  <speed>0.7224956747275377</speed>
  <fix>3d</fix>
</trkpt>
<trkpt lat="33.8101228" lon="-118.3941128">
  <ele>-0.108</ele>
  <time>2026-09-02T22:07:24Z</time>
  <course>9.24</course>
  <speed>0.7224956747275377</speed>
  <fix>3d</fix>
</trkpt>
<trkpt lat="33.8101224" lon="-118.3941137">
  <ele>-0.1</ele>
  <time>2026-09-02T22:07:24Z</time>
  <course>46.07</course>
  <speed>0.73</speed>
  <fix>3d</fix>
</trkpt>
<trkpt lat="33.8101228" lon="-118.3941128">
  <ele>-0.108</ele>
  <time>2026-09-02T22:07:24Z</time>
  <course>9.24</course>
  <speed>0.7224956747275377</speed>
  <fix>3d</fix>
</trkpt>
<trkpt lat="33.8101228" lon="-118.3941127">
  <ele>-0.108</ele>
  <time>2026-09-02T22:07:24Z</time>
  <course>9.24</course>
  <speed>0.7224956747275377</speed>
  <fix>3d</fix>
</trkpt>
<trkpt lat="33.8101229" lon="-118.3941127">
  <ele>-0.108</ele>
  <time>2026-09-02T22:07:24Z</time>
  <course>9.24</course>
  <speed>0.7224956747275377</speed>
  <fix>3d</fix>
</trkpt>
<trkpt lat="33.8101229" lon="-118.3941126">
  <ele>-0.108</ele>
  <time>2026-09-02T22:07:24Z</time>
  <course>9.25</course>
  <speed>0.7224956747275377</speed>
  <fix>3d</fix>
</trkpt>
<trkpt lat="33.810123" lon="-118.3941126">
  <ele>-0.108</ele>
  <time>2026-09-02T22:07:24Z</time>
  <course>9.25</course>
  <speed>0.7224956747275377</speed>
  <fix>3d</fix>
</trkpt>
<trkpt lat="33.810123" lon="-118.3941125">
  <ele>-0.108</ele>
  <time>2026-09-02T22:07:24Z</time>
  <course>9.25</course>
  <speed>0.7224956747275377</speed>
  <fix>3d</fix>
</trkpt>
<trkpt lat="33.810123" lon="-118.3941125">
  <ele>-0.108</ele>
  <time>2026-09-02T22:07:24Z</time>
  <course>9.25</course>
  <speed>0.7224956747275377</speed>
  <fix>3d</fix>
</trkpt>
<trkpt lat="33.8101231" lon="-118.3941124">
  <ele>-0.108</ele>
  <time>2026-09-02T22:07:24Z</time>
  <course>9.25</course>
  <speed>0.7224956747275377</speed>
  <fix>3d</fix>
</trkpt>
<trkpt lat="33.8101231" lon="-118.3941123">
  <ele>-0.108</ele>
  <time>2026-09-02T22:07:24Z</time>
  <course>9.25</course>
  <speed>0.7224956747275377</speed>
  <fix>3d</fix>
</trkpt>
<trkpt lat="33.8101232" lon="-118.3941123">
  <ele>-0.108</ele>
  <time>2026-09-02T22:07:24Z</time>
  <course>9.25</course>
  <speed>0.7224956747275377</speed>
  <fix>3d</fix>
</trkpt>
<trkpt lat="33.8101232" lon="-118.3941122">
  <ele>-0.108</ele>
  <time>2026-09-02T22:07:24Z</time>
  <course>9.25</course>
  <speed>0.7224956747275377</speed>
  <fix>3d</fix>
</trkpt>
<trkpt lat="33.8101232" lon="-118.3941122">
  <ele>-0.108</ele>
  <time>2026-09-02T22:07:24Z</time>
  <course>9.25</course>
  <speed>0.7224956747275377</speed>
  <fix>3d</fix>
</trkpt>
<trkpt lat="33.8101224" lon="-118.3941137">
  <ele>-0.1</ele>
  <time>2026-09-02T22:07:24Z</time>
  <course>46.07</course>
  <speed>0.73</speed>
  <fix>3d</fix>
</trkpt>
<trkpt lat="33.8101232" lon="-118.3941122">
  <ele>-0.108</ele>
  <time>2026-09-02T22:07:24Z</time>
  <course>9.25</course>
  <speed>0.7224956747275377</speed>
  <fix>3d</fix>
</trkpt>
<trkpt lat="33.8101233" lon="-118.3941121">
  <ele>-0.108</ele>
  <time>2026-09-02T22:07:24Z</time>
  <course>9.26</course>
  <speed>0.7224956747275377</speed>
  <fix>3d</fix>
</trkpt>
<trkpt lat="33.8101233" lon="-118.3941121">
  <ele>-0.108</ele>
  <time>2026-09-02T22:07:24Z</time>
  <course>9.26</course>
  <speed>0.7224956747275377</speed>
  <fix>3d</fix>
</trkpt>
<trkpt lat="33.8101234" lon="-118.394112">
  <ele>-0.109</ele>
  <time>2026-09-02T22:07:24Z</time>
  <course>9.26</course>
  <speed>0.7224956747275377</speed>
  <fix>3d</fix>
</trkpt>
<trkpt lat="33.8101234" lon="-118.394112">
  <ele>-0.108</ele>
  <time>2026-09-02T22:07:24Z</time>
  <course>9.26</course>
  <speed>0.7224956747275377</speed>
  <fix>3d</fix>
</trkpt>
<trkpt lat="33.8101235" lon="-118.3941119">
  <ele>-0.108</ele>
  <time>2026-09-02T22:07:24Z</time>
  <course>9.26</course>
  <speed>0.7224956747275377</speed>
  <fix>3d</fix>
</trkpt>
<trkpt lat="33.8101235" lon="-118.3941119">
  <ele>-0.109</ele>
  <time>2026-09-02T22:07:24Z</time>
  <course>9.26</course>
  <speed>0.7224956747275377</speed>
  <fix>3d</fix>
</trkpt>
<trkpt lat="33.8101235" lon="-118.3941118">
  <ele>-0.108</ele>
  <time>2026-09-02T22:07:24Z</time>
  <course>9.26</course>
  <speed>0.7224956747275377</speed>
  <fix>3d</fix>
</trkpt>
<trkpt lat="33.8101236" lon="-118.3941118">
  <ele>-0.109</ele>
  <time>2026-09-02T22:07:24Z</time>
  <course>9.26</course>
  <speed>0.7224956747275377</speed>
  <fix>3d</fix>
</trkpt>
<trkpt lat="33.8101236" lon="-118.3941117">
  <ele>-0.109</ele>
  <time>2026-09-02T22:07:24Z</time>
  <course>9.26</course>
  <speed>0.7224956747275377</speed>
  <fix>3d</fix>
</trkpt>
<trkpt lat="33.8101236" lon="-118.3941117">
  <ele>-0.109</ele>
  <time>2026-09-02T22:07:24Z</time>
  <course>9.26</course>
  <speed>0.7224956747275377</speed>
  <fix>3d</fix>
</trkpt>
<trkpt lat="33.8101237" lon="-118.3941117">
  <ele>-0.109</ele>
  <time>2026-09-02T22:07:24Z</time>
  <course>9.27</course>
  <speed>0.7224956747275377</speed>
  <fix>3d</fix>
</trkpt>
<trkpt lat="33.8101233" lon="-118.3941126">
  <ele>-0.1</ele>
  <time>2026-09-02T22:07:24Z</time>
  <course>46.1</course>
  <speed>0.73</speed>
  <fix>3d</fix>
</trkpt>
<trkpt lat="33.8101237" lon="-118.3941116">
  <ele>-0.109</ele>
  <time>2026-09-02T22:07:24Z</time>
  <course>9.27</course>
  <speed>0.7224956747275377</speed>
  <fix>3d</fix>
</trkpt>
<trkpt lat="33.8101237" lon="-118.3941116">
  <ele>-0.109</ele>
  <time>2026-09-02T22:07:24Z</time>
  <course>9.27</course>
  <speed>0.7224956747275377</speed>
  <fix>3d</fix>
</trkpt>
<trkpt lat="33.8101238" lon="-118.3941115">
  <ele>-0.109</ele>
  <time>2026-09-02T22:07:24Z</time>
  <course>9.27</course>
  <speed>0.7224956747275377</speed>
  <fix>3d</fix>
</trkpt>
<trkpt lat="33.8101238" lon="-118.3941115">
  <ele>-0.109</ele>
  <time>2026-09-02T22:07:24Z</time>
  <course>9.27</course>
  <speed>0.7224956747275377</speed>
  <fix>3d</fix>
</trkpt>
<trkpt lat="33.8101239" lon="-118.3941114">
  <ele>-0.109</ele>
  <time>2026-09-02T22:07:24Z</time>
  <course>9.27</course>
  <speed>0.7224956747275377</speed>
  <fix>3d</fix>
</trkpt>
<trkpt lat="33.8101239" lon="-118.3941114">
  <ele>-0.109</ele>
  <time>2026-09-02T22:07:24Z</time>
  <course>9.27</course>
  <speed>0.7224956747275377</speed>
  <fix>3d</fix>
</trkpt>
<trkpt lat="33.810124" lon="-118.3941113">
  <ele>-0.109</ele>
  <time>2026-09-02T22:07:24Z</time>
  <course>9.27</course>
  <speed>0.7224956747275377</speed>
  <fix>3d</fix>
</trkpt>
<trkpt lat="33.810124" lon="-118.3941112">
  <ele>-0.109</ele>
  <time>2026-09-02T22:07:24Z</time>
  <course>9.27</course>
  <speed>0.7224956747275377</speed>
  <fix>3d</fix>
</trkpt>
<trkpt lat="33.810124" lon="-118.3941112">
  <ele>-0.109</ele>
  <time>2026-09-02T22:07:24Z</time>
  <course>9.28</course>
  <speed>0.7224956747275377</speed>
  <fix>3d</fix>
</trkpt>
<trkpt lat="33.8101241" lon="-118.3941112">
  <ele>-0.109</ele>
  <time>2026-09-02T22:07:24Z</time>
  <course>9.28</course>
  <speed>0.7224956747275377</speed>
  <fix>3d</fix>
</trkpt>
<trkpt lat="33.8101241" lon="-118.3941111">
  <ele>-0.108</ele>
  <time>2026-09-02T22:07:24Z</time>
  <course>9.28</course>
  <speed>0.7224956747275377</speed>
  <fix>3d</fix>
</trkpt>
<trkpt lat="33.8101241" lon="-118.3941111">
  <ele>-0.109</ele>
  <time>2026-09-02T22:07:24Z</time>
  <course>9.28</course>
  <speed>0.7224956747275377</speed>
  <fix>3d</fix>
</trkpt>
<trkpt lat="33.8101233" lon="-118.3941126">
  <ele>-0.1</ele>
  <time>2026-09-02T22:07:24Z</time>
  <course>46.1</course>
  <speed>0.73</speed>
  <fix>3d</fix>
</trkpt>
<trkpt lat="33.8101241" lon="-118.3941111">
  <ele>-0.109</ele>
  <time>2026-09-02T22:07:24Z</time>
  <course>9.28</course>
  <speed>0.7224956747275377</speed>
  <fix>3d</fix>
</trkpt>
<trkpt lat="33.8101242" lon="-118.394111">
  <ele>-0.109</ele>
  <time>2026-09-02T22:07:24Z</time>
  <course>9.28</course>
  <speed>0.7224956747275377</speed>
  <fix>3d</fix>
</trkpt>
<trkpt lat="33.8101242" lon="-118.3941109">
  <ele>-0.109</ele>
  <time>2026-09-02T22:07:24Z</time>
  <course>9.28</course>
  <speed>0.7224956747275377</speed>
  <fix>3d</fix>
</trkpt>
<trkpt lat="33.8101243" lon="-118.3941109">
  <ele>-0.109</ele>
  <time>2026-09-02T22:07:24Z</time>
  <course>9.28</course>
  <speed>0.7224956747275377</speed>
  <fix>3d</fix>
</trkpt>
<trkpt lat="33.8101243" lon="-118.3941108">
  <ele>-0.108</ele>
  <time>2026-09-02T22:07:24Z</time>
  <course>9.28</course>
  <speed>0.7224956747275377</speed>
  <fix>3d</fix>
</trkpt>
<trkpt lat="33.8101244" lon="-118.3941108">
  <ele>-0.108</ele>
  <time>2026-09-02T22:07:24Z</time>
  <course>9.28</course>
  <speed>0.7224956747275377</speed>
  <fix>3d</fix>
</trkpt>
<trkpt lat="33.8101244" lon="-118.3941107">
  <ele>-0.108</ele>
  <time>2026-09-02T22:07:24Z</time>
  <course>9.29</course>
  <speed>0.7224956747275377</speed>
  <fix>3d</fix>
</trkpt>
<trkpt lat="33.8101244" lon="-118.3941107">
  <ele>-0.108</ele>
  <time>2026-09-02T22:07:24Z</time>
  <course>9.29</course>
  <speed>0.7224956747275377</speed>
  <fix>3d</fix>
</trkpt>
<trkpt lat="33.8101245" lon="-118.3941106">
  <ele>-0.108</ele>
  <time>2026-09-02T22:07:24Z</time>
  <course>9.29</course>
  <speed>0.7224956747275377</speed>
  <fix>3d</fix>
</trkpt>
<trkpt lat="33.8101245" lon="-118.3941106">
  <ele>-0.108</ele>
  <time>2026-09-02T22:07:24Z</time>
  <course>9.29</course>
  <speed>0.7224956747275377</speed>
  <fix>3d</fix>
</trkpt>
<trkpt lat="33.8101246" lon="-118.3941105">
  <ele>-0.108</ele>
  <time>2026-09-02T22:07:24Z</time>
  <course>9.29</course>
  <speed>0.7224956747275377</speed>
  <fix>3d</fix>
</trkpt>
<trkpt lat="33.8101246" lon="-118.3941105">
  <ele>-0.108</ele>
  <time>2026-09-02T22:07:24Z</time>
  <course>9.29</course>
  <speed>0.7224956747275377</speed>
  <fix>3d</fix>
</trkpt>
<trkpt lat="33.8101246" lon="-118.3941105">
  <ele>-0.108</ele>
  <time>2026-09-02T22:07:24Z</time>
  <course>9.29</course>
  <speed>0.7224956747275377</speed>
  <fix>3d</fix>
</trkpt>
<trkpt lat="33.8101242" lon="-118.3941115">
  <ele>-0.1</ele>
  <time>2026-09-02T22:07:24Z</time>
  <course>46.12</course>
  <speed>0.73</speed>
  <fix>3d</fix>
</trkpt>
<trkpt lat="33.8101247" lon="-118.3941104">
  <ele>-0.108</ele>
  <time>2026-09-02T22:07:24Z</time>
  <course>9.29</course>
  <speed>0.7224956747275377</speed>
  <fix>3d</fix>
</trkpt>
<trkpt lat="33.8101247" lon="-118.3941103">
  <ele>-0.108</ele>
  <time>2026-09-02T22:07:24Z</time>
  <course>9.29</course>
  <speed>0.7224956747275377</speed>
  <fix>3d</fix>
</trkpt>
<trkpt lat="33.8101248" lon="-118.3941103">
  <ele>-0.108</ele>
  <time>2026-09-02T22:07:24Z</time>
  <course>9.3</course>
  <speed>0.7224956747275377</speed>
  <fix>3d</fix>
</trkpt>
<trkpt lat="33.8101248" lon="-118.3941102">
  <ele>-0.108</ele>
  <time>2026-09-02T22:07:24Z</time>
  <course>9.3</course>
  <speed>0.7224956747275377</speed>
  <fix>3d</fix>
</trkpt>
<trkpt lat="33.8101248" lon="-118.3941102">
  <ele>-0.108</ele>
  <time>2026-09-02T22:07:24Z</time>
  <course>9.3</course>
  <speed>0.7224956747275377</speed>
  <fix>3d</fix>
</trkpt>
<trkpt lat="33.8101249" lon="-118.3941101">
  <ele>-0.108</ele>
  <time>2026-09-02T22:07:24Z</time>
  <course>9.3</course>
  <speed>0.7224956747275377</speed>
  <fix>3d</fix>
</trkpt>
<trkpt lat="33.8101249" lon="-118.3941101">
  <ele>-0.108</ele>
  <time>2026-09-02T22:07:24Z</time>
  <course>9.3</course>
  <speed>0.7224956747275377</speed>
  <fix>3d</fix>
</trkpt>
<trkpt lat="33.810125" lon="-118.39411">
  <ele>-0.108</ele>
  <time>2026-09-02T22:07:24Z</time>
  <course>9.3</course>
  <speed>0.7224956747275377</speed>
  <fix>3d</fix>
</trkpt>
<trkpt lat="33.810125" lon="-118.39411">
  <ele>-0.108</ele>
  <time>2026-09-02T22:07:24Z</time>
  <course>9.3</course>
  <speed>0.7224956747275377</speed>
  <fix>3d</fix>
</trkpt>
<trkpt lat="33.8101251" lon="-118.3941099">
  <ele>-0.108</ele>
  <time>2026-09-02T22:07:24Z</time>
  <course>9.3</course>
  <speed>0.7224956747275377</speed>
  <fix>3d</fix>
</trkpt>
<trkpt lat="33.8101242" lon="-118.3941115">
  <ele>-0.1</ele>
  <time>2026-09-02T22:07:24Z</time>
  <course>46.12</course>
  <speed>0.73</speed>
  <fix>3d</fix>
</trkpt>
<trkpt lat="33.8101251" lon="-118.3941099">
  <ele>-0.108</ele>
  <time>2026-09-02T22:07:24Z</time>
  <course>9.3</course>
  <speed>0.7224956747275377</speed>
  <fix>3d</fix>
</trkpt>
<trkpt lat="33.8101251" lon="-118.3941098">
  <ele>-0.108</ele>
  <time>2026-09-02T22:07:24Z</time>
  <course>9.3</course>
  <speed>0.7224956747275377</speed>
  <fix>3d</fix>
</trkpt>
<trkpt lat="33.8101252" lon="-118.3941098">
  <ele>-0.108</ele>
  <time>2026-09-02T22:07:24Z</time>
  <course>9.31</course>
  <speed>0.7224956747275377</speed>
  <fix>3d</fix>
</trkpt>
<trkpt lat="33.8101252" lon="-118.3941097">
  <ele>-0.108</ele>
  <time>2026-09-02T22:07:24Z</time>
  <course>9.31</course>
  <speed>0.7224956747275377</speed>
  <fix>3d</fix>
</trkpt>
<trkpt lat="33.8101253" lon="-118.3941097">
  <ele>-0.108</ele>
  <time>2026-09-02T22:07:24Z</time>
  <course>9.31</course>
  <speed>0.7224956747275377</speed>
  <fix>3d</fix>
</trkpt>
<trkpt lat="33.8101253" lon="-118.3941096">
  <ele>-0.108</ele>
  <time>2026-09-02T22:07:24Z</time>
  <course>9.31</course>
  <speed>0.7224956747275377</speed>
  <fix>3d</fix>
</trkpt>
<trkpt lat="33.8101253" lon="-118.3941096">
  <ele>-0.108</ele>
  <time>2026-09-02T22:07:24Z</time>
  <course>9.31</course>
  <speed>0.7224956747275377</speed>
  <fix>3d</fix>
</trkpt>
<trkpt lat="33.8101254" lon="-118.3941095">
  <ele>-0.108</ele>
  <time>2026-09-02T22:07:24Z</time>
  <course>9.31</course>
  <speed>0.7224956747275377</speed>
  <fix>3d</fix>
</trkpt>
<trkpt lat="33.8101254" lon="-118.3941095">
  <ele>-0.108</ele>
  <time>2026-09-02T22:07:24Z</time>
  <course>9.31</course>
  <speed>0.7224956747275377</speed>
  <fix>3d</fix>
</trkpt>
<trkpt lat="33.8101255" lon="-118.3941094">
  <ele>-0.107</ele>
  <time>2026-09-02T22:07:24Z</time>
  <course>9.31</course>
  <speed>0.7224956747275377</speed>
  <fix>3d</fix>
</trkpt>
<trkpt lat="33.8101255" lon="-118.3941094">
  <ele>-0.107</ele>
  <time>2026-09-02T22:07:24Z</time>
  <course>9.31</course>
  <speed>0.7224956747275377</speed>
  <fix>3d</fix>
</trkpt>
<trkpt lat="33.8101255" lon="-118.3941094">
  <ele>-0.107</ele>
  <time>2026-09-02T22:07:24Z</time>
  <course>9.32</course>
  <speed>0.7224956747275377</speed>
  <fix>3d</fix>
</trkpt>
<trkpt lat="33.8101251" lon="-118.3941104">
  <ele>-0.1</ele>
  <time>2026-09-02T22:07:24Z</time>
  <course>46.15</course>
  <speed>0.73</speed>
  <fix>3d</fix>
</trkpt>
<trkpt lat="33.8101255" lon="-118.3941093">
  <ele>-0.107</ele>
  <time>2026-09-02T22:07:24Z</time>
  <course>9.32</course>
  <speed>0.7224956747275377</speed>
  <fix>3d</fix>
</trkpt>
<trkpt lat="33.8101256" lon="-118.3941093">
  <ele>-0.107</ele>
  <time>2026-09-02T22:07:24Z</time>
  <course>9.32</course>
  <speed>0.7224956747275377</speed>
  <fix>3d</fix>
</trkpt>
<trkpt lat="33.8101256" lon="-118.3941092">
  <ele>-0.107</ele>
  <time>2026-09-02T22:07:24Z</time>
  <course>9.32</course>
  <speed>0.7224956747275377</speed>
  <fix>3d</fix>
</trkpt>
<trkpt lat="33.8101257" lon="-118.3941092">
  <ele>-0.107</ele>
  <time>2026-09-02T22:07:24Z</time>
  <course>9.32</course>
  <speed>0.7224956747275377</speed>
  <fix>3d</fix>
</trkpt>
<trkpt lat="33.8101257" lon="-118.3941091">
  <ele>-0.107</ele>
  <time>2026-09-02T22:07:24Z</time>
  <course>9.32</course>
  <speed>0.7224956747275377</speed>
  <fix>3d</fix>
</trkpt>
<trkpt lat="33.8101258" lon="-118.3941091">
  <ele>-0.107</ele>
  <time>2026-09-02T22:07:24Z</time>
  <course>9.32</course>
  <speed>0.7224956747275377</speed>
  <fix>3d</fix>
</trkpt>
<trkpt lat="33.8101258" lon="-118.394109">
  <ele>-0.107</ele>
  <time>2026-09-02T22:07:24Z</time>
  <course>9.32</course>
  <speed>0.7224956747275377</speed>
  <fix>3d</fix>
</trkpt>
<trkpt lat="33.8101258" lon="-118.394109">
  <ele>-0.107</ele>
  <time>2026-09-02T22:07:24Z</time>
  <course>9.32</course>
  <speed>0.7224956747275377</speed>
  <fix>3d</fix>
</trkpt>
<trkpt lat="33.8101259" lon="-118.3941089">
  <ele>-0.107</ele>
  <time>2026-09-02T22:07:24Z</time>
  <course>9.32</course>
  <speed>0.7224956747275377</speed>
  <fix>3d</fix>
</trkpt>
<trkpt lat="33.8101259" lon="-118.3941089">
  <ele>-0.107</ele>
  <time>2026-09-02T22:07:24Z</time>
  <course>9.33</course>
  <speed>0.7224956747275377</speed>
  <fix>3d</fix>
</trkpt>
<trkpt lat="33.8101259" lon="-118.3941088">
  <ele>-0.106</ele>
  <time>2026-09-02T22:07:24Z</time>
  <course>9.33</course>
  <speed>0.7224956747275377</speed>
  <fix>3d</fix>
</trkpt>
<trkpt lat="33.810126" lon="-118.3941088">
  <ele>-0.106</ele>
  <time>2026-09-02T22:07:24Z</time>
  <course>9.33</course>
  <speed>0.7224956747275377</speed>
  <fix>3d</fix>
</trkpt>
<trkpt lat="33.810126" lon="-118.3941088">
  <ele>-0.106</ele>
  <time>2026-09-02T22:07:24Z</time>
  <course>9.33</course>
  <speed>0.7224956747275377</speed>
  <fix>3d</fix>
</trkpt>
<trkpt lat="33.8101251" lon="-118.3941104">
  <ele>-0.1</ele>
  <time>2026-09-02T22:07:24Z</time>
  <course>46.15</course>
  <speed>0.73</speed>
  <fix>3d</fix>
</trkpt>
<trkpt lat="33.810126" lon="-118.3941087">
  <ele>-0.106</ele>
  <time>2026-09-02T22:07:24Z</time>
  <course>9.33</course>
  <speed>0.7224956747275377</speed>
  <fix>3d</fix>
</trkpt>
<trkpt lat="33.8101261" lon="-118.3941086">
  <ele>-0.106</ele>
  <time>2026-09-02T22:07:24Z</time>
  <course>9.33</course>
  <speed>0.7224956747275377</speed>
  <fix>3d</fix>
</trkpt>
<trkpt lat="33.8101261" lon="-118.3941086">
  <ele>-0.106</ele>
  <time>2026-09-02T22:07:24Z</time>
  <course>9.33</course>
  <speed>0.7224956747275377</speed>
  <fix>3d</fix>
</trkpt>
<trkpt lat="33.8101262" lon="-118.3941085">
  <ele>-0.106</ele>
  <time>2026-09-02T22:07:24Z</time>
  <course>9.33</course>
  <speed>0.7224956747275377</speed>
  <fix>3d</fix>
</trkpt>
<trkpt lat="33.8101262" lon="-118.3941085">
  <ele>-0.106</ele>
  <time>2026-09-02T22:07:24Z</time>
  <course>9.33</course>
  <speed>0.7224956747275377</speed>
  <fix>3d</fix>
</trkpt>
<trkpt lat="33.8101262" lon="-118.3941084">
  <ele>-0.106</ele>
  <time>2026-09-02T22:07:24Z</time>
  <course>9.34</course>
  <speed>0.7224956747275377</speed>
  <fix>3d</fix>
</trkpt>
<trkpt lat="33.8101263" lon="-118.3941084">
  <ele>-0.106</ele>
  <time>2026-09-02T22:07:24Z</time>
  <course>9.34</course>
  <speed>0.7224956747275377</speed>
  <fix>3d</fix>
</trkpt>
<trkpt lat="33.8101263" lon="-118.3941083">
  <ele>-0.106</ele>
  <time>2026-09-02T22:07:24Z</time>
  <course>9.34</course>
  <speed>0.7224956747275377</speed>
  <fix>3d</fix>
</trkpt>
<trkpt lat="33.8101264" lon="-118.3941083">
  <ele>-0.106</ele>
  <time>2026-09-02T22:07:24Z</time>
  <course>9.34</course>
  <speed>0.7224956747275377</speed>
  <fix>3d</fix>
</trkpt>
<trkpt lat="33.8101264" lon="-118.3941082">
  <ele>-0.106</ele>
  <time>2026-09-02T22:07:24Z</time>
  <course>9.34</course>
  <speed>0.7224956747275377</speed>
  <fix>3d</fix>
</trkpt>
<trkpt lat="33.8101264" lon="-118.3941082">
  <ele>-0.106</ele>
  <time>2026-09-02T22:07:24Z</time>
  <course>9.34</course>
  <speed>0.7224956747275377</speed>
  <fix>3d</fix>
</trkpt>
<trkpt lat="33.810126" lon="-118.3941092">
  <ele>-0.1</ele>
  <time>2026-09-02T22:07:24Z</time>
  <course>46.17</course>
  <speed>0.73</speed>
  <fix>3d</fix>
</trkpt>
<trkpt lat="33.8101264" lon="-118.3941082">
  <ele>-0.106</ele>
  <time>2026-09-02T22:07:24Z</time>
  <course>9.34</course>
  <speed>0.7224956747275377</speed>
  <fix>3d</fix>
</trkpt>
<trkpt lat="33.8101265" lon="-118.3941081">
  <ele>-0.106</ele>
  <time>2026-09-02T22:07:24Z</time>
  <course>9.34</course>
  <speed>0.7224956747275377</speed>
  <fix>3d</fix>
</trkpt>
<trkpt lat="33.8101266" lon="-118.394108">
  <ele>-0.106</ele>
  <time>2026-09-02T22:07:24Z</time>
  <course>9.34</course>
  <speed>0.7224956747275377</speed>
  <fix>3d</fix>
</trkpt>
<trkpt lat="33.8101266" lon="-118.394108">
  <ele>-0.106</ele>
  <time>2026-09-02T22:07:24Z</time>
  <course>9.35</course>
  <speed>0.7224956747275377</speed>
  <fix>3d</fix>
</trkpt>
<trkpt lat="33.8101266" lon="-118.3941079">
  <ele>-0.106</ele>
  <time>2026-09-02T22:07:24Z</time>
  <course>9.35</course>
  <speed>0.7224956747275377</speed>
  <fix>3d</fix>
</trkpt>
<trkpt lat="33.8101267" lon="-118.3941079">
  <ele>-0.106</ele>
  <time>2026-09-02T22:07:24Z</time>
  <course>9.35</course>
  <speed>0.7224956747275377</speed>
  <fix>3d</fix>
</trkpt>
<trkpt lat="33.8101267" lon="-118.3941078">
  <ele>-0.106</ele>
  <time>2026-09-02T22:07:24Z</time>
  <course>9.35</course>
  <speed>0.7224956747275377</speed>
  <fix>3d</fix>
</trkpt>
<trkpt lat="33.8101268" lon="-118.3941078">
  <ele>-0.106</ele>
  <time>2026-09-02T22:07:24Z</time>
  <course>9.35</course>
  <speed>0.7224956747275377</speed>
  <fix>3d</fix>
</trkpt>
<trkpt lat="33.8101268" lon="-118.3941077">
  <ele>-0.106</ele>
  <time>2026-09-02T22:07:24Z</time>
  <course>9.35</course>
  <speed>0.7224956747275377</speed>
  <fix>3d</fix>
</trkpt>
<trkpt lat="33.8101269" lon="-118.3941077">
  <ele>-0.106</ele>
  <time>2026-09-02T22:07:24Z</time>
  <course>9.35</course>
  <speed>0.7224956747275377</speed>
  <fix>3d</fix>
</trkpt>
<trkpt lat="33.8101269" lon="-118.3941076">
  <ele>-0.106</ele>
  <time>2026-09-02T22:07:24Z</time>
  <course>9.35</course>
  <speed>0.7224956747275377</speed>
  <fix>3d</fix>
</trkpt>
<trkpt lat="33.810126" lon="-118.3941092">
  <ele>-0.1</ele>
  <time>2026-09-02T22:07:24Z</time>
  <course>46.17</course>
  <speed>0.73</speed>
  <fix>3d</fix>
</trkpt>
<trkpt lat="33.8101269" lon="-118.3941076">
  <ele>-0.106</ele>
  <time>2026-09-02T22:07:24Z</time>
  <course>9.35</course>
  <speed>0.7224956747275377</speed>
  <fix>3d</fix>
</trkpt>
<trkpt lat="33.810127" lon="-118.3941075">
  <ele>-0.106</ele>
  <time>2026-09-02T22:07:24Z</time>
  <course>9.35</course>
  <speed>0.7224956747275377</speed>
  <fix>3d</fix>
</trkpt>
<trkpt lat="33.810127" lon="-118.3941075">
  <ele>-0.106</ele>
  <time>2026-09-02T22:07:24Z</time>
  <course>9.36</course>
  <speed>0.7224956747275377</speed>
  <fix>3d</fix>
</trkpt>
<trkpt lat="33.810127" lon="-118.3941074">
  <ele>-0.106</ele>
  <time>2026-09-02T22:07:24Z</time>
  <course>9.36</course>
  <speed>0.7224956747275377</speed>
  <fix>3d</fix>
</trkpt>
<trkpt lat="33.8101271" lon="-118.3941074">
  <ele>-0.106</ele>
  <time>2026-09-02T22:07:24Z</time>
  <course>9.36</course>
  <speed>0.7224956747275377</speed>
  <fix>3d</fix>
</trkpt>
<trkpt lat="33.8101271" lon="-118.3941073">
  <ele>-0.106</ele>
  <time>2026-09-02T22:07:24Z</time>
  <course>9.36</course>
  <speed>0.7224956747275377</speed>
  <fix>3d</fix>
</trkpt>
<trkpt lat="33.8101272" lon="-118.3941073">
  <ele>-0.106</ele>
  <time>2026-09-02T22:07:24Z</time>
  <course>9.36</course>
  <speed>0.7224956747275377</speed>
  <fix>3d</fix>
</trkpt>
<trkpt lat="33.8101272" lon="-118.3941072">
  <ele>-0.106</ele>
  <time>2026-09-02T22:07:24Z</time>
  <course>9.36</course>
  <speed>0.7224956747275377</speed>
  <fix>3d</fix>
</trkpt>
<trkpt lat="33.8101272" lon="-118.3941072">
  <ele>-0.106</ele>
  <time>2026-09-02T22:07:24Z</time>
  <course>9.36</course>
  <speed>0.7224956747275377</speed>
  <fix>3d</fix>
</trkpt>
<trkpt lat="33.8101273" lon="-118.3941071">
  <ele>-0.106</ele>
  <time>2026-09-02T22:07:24Z</time>
  <course>9.36</course>
  <speed>0.7224956747275377</speed>
  <fix>3d</fix>
</trkpt>
<trkpt lat="33.8101273" lon="-118.3941071">
  <ele>-0.106</ele>
  <time>2026-09-02T22:07:24Z</time>
  <course>9.36</course>
  <speed>0.7224956747275377</speed>
  <fix>3d</fix>
</trkpt>
<trkpt lat="33.8101273" lon="-118.3941071">
  <ele>-0.106</ele>
  <time>2026-09-02T22:07:24Z</time>
  <course>9.36</course>
  <speed>0.7224956747275377</speed>
  <fix>3d</fix>
</trkpt>
<trkpt lat="33.8101269" lon="-118.394108">
  <ele>-0.1</ele>
  <time>2026-09-02T22:07:24Z</time>
  <course>46.19</course>
  <speed>0.73</speed>
  <fix>3d</fix>
</trkpt>
<trkpt lat="33.8101274" lon="-118.394107">
  <ele>-0.106</ele>
  <time>2026-09-02T22:07:24Z</time>
  <course>9.36</course>
  <speed>0.7224956747275377</speed>
  <fix>3d</fix>
</trkpt>
<trkpt lat="33.8101274" lon="-118.394107">
  <ele>-0.106</ele>
  <time>2026-09-02T22:07:24Z</time>
  <course>9.37</course>
  <speed>0.7224956747275377</speed>
  <fix>3d</fix>
</trkpt>
<trkpt lat="33.8101275" lon="-118.3941069">
  <ele>-0.106</ele>
  <time>2026-09-02T22:07:24Z</time>
  <course>9.37</course>
  <speed>0.7224956747275377</speed>
  <fix>3d</fix>
</trkpt>
<trkpt lat="33.8101275" lon="-118.3941069">
  <ele>-0.107</ele>
  <time>2026-09-02T22:07:24Z</time>
  <course>9.37</course>
  <speed>0.7224956747275377</speed>
  <fix>3d</fix>
</trkpt>
<trkpt lat="33.8101275" lon="-118.3941068">
  <ele>-0.107</ele>
  <time>2026-09-02T22:07:24Z</time>
  <course>9.37</course>
  <speed>0.7224956747275377</speed>
  <fix>3d</fix>
</trkpt>
<trkpt lat="33.8101276" lon="-118.3941068">
  <ele>-0.107</ele>
  <time>2026-09-02T22:07:24Z</time>
  <course>9.37</course>
  <speed>0.7224956747275377</speed>
  <fix>3d</fix>
</trkpt>
<trkpt lat="33.8101276" lon="-118.3941067">
  <ele>-0.107</ele>
  <time>2026-09-02T22:07:24Z</time>
  <course>9.37</course>
  <speed>0.7224956747275377</speed>
  <fix>3d</fix>
</trkpt>
<trkpt lat="33.8101276" lon="-118.3941067">
  <ele>-0.107</ele>
  <time>2026-09-02T22:07:24Z</time>
  <course>9.37</course>
  <speed>0.7224956747275377</speed>
  <fix>3d</fix>
</trkpt>
<trkpt lat="33.8101277" lon="-118.3941066">
  <ele>-0.107</ele>
  <time>2026-09-02T22:07:24Z</time>
  <course>9.37</course>
  <speed>0.7224956747275377</speed>
  <fix>3d</fix>
</trkpt>
<trkpt lat="33.8101277" lon="-118.3941066">
  <ele>-0.107</ele>
  <time>2026-09-02T22:07:24Z</time>
  <course>9.37</course>
  <speed>0.7224956747275377</speed>
  <fix>3d</fix>
</trkpt>
<trkpt lat="33.8101278" lon="-118.3941065">
  <ele>-0.107</ele>
  <time>2026-09-02T22:07:24Z</time>
  <course>9.37</course>
  <speed>0.7224956747275377</speed>
  <fix>3d</fix>
</trkpt>
<trkpt lat="33.8101278" lon="-118.3941065">
  <ele>-0.108</ele>
  <time>2026-09-02T22:07:24Z</time>
  <course>9.38</course>
  <speed>0.7224956747275377</speed>
  <fix>3d</fix>
</trkpt>
<trkpt lat="33.8101278" lon="-118.3941065">
  <ele>-0.108</ele>
  <time>2026-09-02T22:07:24Z</time>
  <course>9.38</course>
  <speed>0.7224956747275377</speed>
  <fix>3d</fix>
</trkpt>
<trkpt lat="33.8101269" lon="-118.394108">
  <ele>-0.1</ele>
  <time>2026-09-02T22:07:24Z</time>
  <course>46.19</course>
  <speed>0.73</speed>
  <fix>3d</fix>
</trkpt>
<trkpt lat="33.8101279" lon="-118.3941064">
  <ele>-0.108</ele>
  <time>2026-09-02T22:07:24Z</time>
  <course>9.38</course>
  <speed>0.7224956747275377</speed>
  <fix>3d</fix>
</trkpt>
<trkpt lat="33.8101279" lon="-118.3941064">
  <ele>-0.108</ele>
  <time>2026-09-02T22:07:24Z</time>
  <course>9.38</course>
  <speed>0.7224956747275377</speed>
  <fix>3d</fix>
</trkpt>
<trkpt lat="33.8101279" lon="-118.3941063">
  <ele>-0.108</ele>
  <time>2026-09-02T22:07:24Z</time>
  <course>9.38</course>
  <speed>0.7224956747275377</speed>
  <fix>3d</fix>
</trkpt>
<trkpt lat="33.810128" lon="-118.3941063">
  <ele>-0.108</ele>
  <time>2026-09-02T22:07:24Z</time>
  <course>9.38</course>
  <speed>0.7224956747275377</speed>
  <fix>3d</fix>
</trkpt>
<trkpt lat="33.810128" lon="-118.3941062">
  <ele>-0.108</ele>
  <time>2026-09-02T22:07:24Z</time>
  <course>9.38</course>
  <speed>0.7224956747275377</speed>
  <fix>3d</fix>
</trkpt>
<trkpt lat="33.8101281" lon="-118.3941062">
  <ele>-0.108</ele>
  <time>2026-09-02T22:07:24Z</time>
  <course>9.38</course>
  <speed>0.7224956747275377</speed>
  <fix>3d</fix>
</trkpt>
<trkpt lat="33.8101281" lon="-118.3941061">
  <ele>-0.109</ele>
  <time>2026-09-02T22:07:24Z</time>
  <course>9.38</course>
  <speed>0.7224956747275377</speed>
  <fix>3d</fix>
</trkpt>
<trkpt lat="33.8101281" lon="-118.3941061">
  <ele>-0.109</ele>
  <time>2026-09-02T22:07:24Z</time>
  <course>9.38</course>
  <speed>0.7224956747275377</speed>
  <fix>3d</fix>
</trkpt>
<trkpt lat="33.8101282" lon="-118.394106">
  <ele>-0.109</ele>
  <time>2026-09-02T22:07:24Z</time>
  <course>9.39</course>
  <speed>0.7224956747275377</speed>
  <fix>3d</fix>
</trkpt>
<trkpt lat="33.8101282" lon="-118.394106">
  <ele>-0.109</ele>
  <time>2026-09-02T22:07:24Z</time>
  <course>9.39</course>
  <speed>0.7224956747275377</speed>
  <fix>3d</fix>
</trkpt>
<trkpt lat="33.8101282" lon="-118.3941059">
  <ele>-0.109</ele>
  <time>2026-09-02T22:07:24Z</time>
  <course>9.39</course>
  <speed>0.7224956747275377</speed>
  <fix>3d</fix>
</trkpt>
<trkpt lat="33.8101283" lon="-118.3941059">
  <ele>-0.109</ele>
  <time>2026-09-02T22:07:24Z</time>
  <course>9.39</course>
  <speed>0.7224956747275377</speed>
  <fix>3d</fix>
</trkpt>
<trkpt lat="33.8101279" lon="-118.3941069">
  <ele>-0.1</ele>
  <time>2026-09-02T22:07:24Z</time>
  <course>46.22</course>
  <speed>0.73</speed>
  <fix>3d</fix>
</trkpt>
<trkpt lat="33.8101283" lon="-118.3941059">
  <ele>-0.109</ele>
  <time>2026-09-02T22:07:24Z</time>
  <course>9.39</course>
  <speed>0.7224956747275377</speed>
  <fix>3d</fix>
</trkpt>
<trkpt lat="33.8101283" lon="-118.3941058">
  <ele>-0.11</ele>
  <time>2026-09-02T22:07:24Z</time>
  <course>9.39</course>
  <speed>0.7224956747275377</speed>
  <fix>3d</fix>
</trkpt>
<trkpt lat="33.8101284" lon="-118.3941058">
  <ele>-0.11</ele>
  <time>2026-09-02T22:07:24Z</time>
  <course>9.39</course>
  <speed>0.7224956747275377</speed>
  <fix>3d</fix>
</trkpt>
<trkpt lat="33.8101284" lon="-118.3941057">
  <ele>-0.11</ele>
  <time>2026-09-02T22:07:24Z</time>
  <course>9.39</course>
  <speed>0.7224956747275377</speed>
  <fix>3d</fix>
</trkpt>
<trkpt lat="33.8101284" lon="-118.3941057">
  <ele>-0.11</ele>
  <time>2026-09-02T22:07:24Z</time>
  <course>9.39</course>
  <speed>0.7224956747275377</speed>
  <fix>3d</fix>
</trkpt>
<trkpt lat="33.8101285" lon="-118.3941056">
  <ele>-0.11</ele>
  <time>2026-09-02T22:07:24Z</time>
  <course>9.39</course>
  <speed>0.7224956747275377</speed>
  <fix>3d</fix>
</trkpt>
<trkpt lat="33.8101285" lon="-118.3941056">
  <ele>-0.11</ele>
  <time>2026-09-02T22:07:24Z</time>
  <course>9.4</course>
  <speed>0.7224956747275377</speed>
  <fix>3d</fix>
</trkpt>
<trkpt lat="33.8101286" lon="-118.3941055">
  <ele>-0.11</ele>
  <time>2026-09-02T22:07:24Z</time>
  <course>9.4</course>
  <speed>0.7224956747275377</speed>
  <fix>3d</fix>
</trkpt>
<trkpt lat="33.8101286" lon="-118.3941055">
  <ele>-0.111</ele>
  <time>2026-09-02T22:07:24Z</time>
  <course>9.4</course>
  <speed>0.7224956747275377</speed>
  <fix>3d</fix>
</trkpt>
<trkpt lat="33.8101286" lon="-118.3941054">
  <ele>-0.111</ele>
  <time>2026-09-02T22:07:24Z</time>
  <course>9.4</course>
  <speed>0.7224956747275377</speed>
  <fix>3d</fix>
</trkpt>
<trkpt lat="33.8101287" lon="-118.3941054">
  <ele>-0.111</ele>
  <time>2026-09-02T22:07:24Z</time>
  <course>9.4</course>
  <speed>0.7224956747275377</speed>
  <fix>3d</fix>
</trkpt>
<trkpt lat="33.8101287" lon="-118.3941053">
  <ele>-0.111</ele>
  <time>2026-09-02T22:07:24Z</time>
  <course>9.4</course>
  <speed>0.7224956747275377</speed>
  <fix>3d</fix>
</trkpt>
<trkpt lat="33.8101287" lon="-118.3941053">
  <ele>-0.111</ele>
  <time>2026-09-02T22:07:24Z</time>
  <course>9.4</course>
  <speed>0.7224956747275377</speed>
  <fix>3d</fix>
</trkpt>
<trkpt lat="33.8101279" lon="-118.3941069">
  <ele>-0.1</ele>
  <time>2026-09-02T22:07:24Z</time>
  <course>46.22</course>
  <speed>0.73</speed>
  <fix>3d</fix>
</trkpt>
<trkpt lat="33.8101287" lon="-118.3941053">
  <ele>-0.111</ele>
  <time>2026-09-02T22:07:24Z</time>
  <course>9.4</course>
  <speed>0.7224956747275377</speed>
  <fix>3d</fix>
</trkpt>
<trkpt lat="33.8101288" lon="-118.3941052">
  <ele>-0.111</ele>
  <time>2026-09-02T22:07:24Z</time>
  <course>9.4</course>
  <speed>0.7224956747275377</speed>
  <fix>3d</fix>
</trkpt>
<trkpt lat="33.8101288" lon="-118.3941052">
  <ele>-0.111</ele>
  <time>2026-09-02T22:07:24Z</time>
  <course>9.4</course>
  <speed>0.7224956747275377</speed>
  <fix>3d</fix>
</trkpt>
<trkpt lat="33.8101289" lon="-118.3941051">
  <ele>-0.111</ele>
  <time>2026-09-02T22:07:24Z</time>
  <course>9.4</course>
  <speed>0.7224956747275377</speed>
  <fix>3d</fix>
</trkpt>
<trkpt lat="33.8101289" lon="-118.3941051">
  <ele>-0.111</ele>
  <time>2026-09-02T22:07:24Z</time>
  <course>9.4</course>
  <speed>0.7224956747275377</speed>
  <fix>3d</fix>
</trkpt>
<trkpt lat="33.8101289" lon="-118.3941051">
  <ele>-0.112</ele>
  <time>2026-09-02T22:07:24Z</time>
  <course>9.41</course>
  <speed>0.7224956747275377</speed>
  <fix>3d</fix>
</trkpt>
<trkpt lat="33.810129" lon="-118.394105">
  <ele>-0.112</ele>
  <time>2026-09-02T22:07:24Z</time>
  <course>9.41</course>
  <speed>0.7224956747275377</speed>
  <fix>3d</fix>
</trkpt>
<trkpt lat="33.810129" lon="-118.394105">
  <ele>-0.112</ele>
  <time>2026-09-02T22:07:24Z</time>
  <course>9.41</course>
  <speed>0.7224956747275377</speed>
  <fix>3d</fix>
</trkpt>
<trkpt lat="33.8101291" lon="-118.3941049">
  <ele>-0.112</ele>
  <time>2026-09-02T22:07:24Z</time>
  <course>9.41</course>
  <speed>0.7224956747275377</speed>
  <fix>3d</fix>
</trkpt>
<trkpt lat="33.8101291" lon="-118.3941049">
  <ele>-0.112</ele>
  <time>2026-09-02T22:07:24Z</time>
  <course>9.41</course>
  <speed>0.7224956747275377</speed>
  <fix>3d</fix>
</trkpt>
<trkpt lat="33.8101291" lon="-118.3941048">
  <ele>-0.112</ele>
  <time>2026-09-02T22:07:24Z</time>
  <course>9.41</course>
  <speed>0.7224956747275377</speed>
  <fix>3d</fix>
</trkpt>
<trkpt lat="33.8101292" lon="-118.3941048">
  <ele>-0.113</ele>
  <time>2026-09-02T22:07:24Z</time>
  <course>9.41</course>
  <speed>0.7224956747275377</speed>
  <fix>3d</fix>
</trkpt>
<trkpt lat="33.8101292" lon="-118.3941048">
  <ele>-0.113</ele>
  <time>2026-09-02T22:07:24Z</time>
  <course>9.41</course>
  <speed>0.7224956747275377</speed>
  <fix>3d</fix>
</trkpt>
<trkpt lat="33.8101288" lon="-118.3941058">
  <ele>-0.1</ele>
  <time>2026-09-02T22:07:24Z</time>
  <course>46.24</course>
  <speed>0.73</speed>
  <fix>3d</fix>
</trkpt>
<trkpt lat="33.8101293" lon="-118.3941047">
  <ele>-0.113</ele>
  <time>2026-09-02T22:07:24Z</time>
  <course>9.41</course>
  <speed>0.7224956747275377</speed>
  <fix>3d</fix>
</trkpt>
<trkpt lat="33.8101293" lon="-118.3941046">
  <ele>-0.113</ele>
  <time>2026-09-02T22:07:24Z</time>
  <course>9.41</course>
  <speed>0.7224956747275377</speed>
  <fix>3d</fix>
</trkpt>
<trkpt lat="33.8101293" lon="-118.3941045">
  <ele>-0.113</ele>
  <time>2026-09-02T22:07:24Z</time>
  <course>9.42</course>
  <speed>0.7224956747275377</speed>
  <fix>3d</fix>
</trkpt>
<trkpt lat="33.8101294" lon="-118.3941045">
  <ele>-0.113</ele>
  <time>2026-09-02T22:07:24Z</time>
  <course>9.42</course>
  <speed>0.7224956747275377</speed>
  <fix>3d</fix>
</trkpt>
<trkpt lat="33.8101294" lon="-118.3941044">
  <ele>-0.113</ele>
  <time>2026-09-02T22:07:24Z</time>
  <course>9.42</course>
  <speed>0.7224956747275377</speed>
  <fix>3d</fix>
</trkpt>
<trkpt lat="33.8101295" lon="-118.3941044">
  <ele>-0.113</ele>
  <time>2026-09-02T22:07:24Z</time>
  <course>9.42</course>
  <speed>0.7224956747275377</speed>
  <fix>3d</fix>
</trkpt>
<trkpt lat="33.8101295" lon="-118.3941043">
  <ele>-0.113</ele>
  <time>2026-09-02T22:07:24Z</time>
  <course>9.42</course>
  <speed>0.7224956747275377</speed>
  <fix>3d</fix>
</trkpt>
<trkpt lat="33.8101296" lon="-118.3941043">
  <ele>-0.113</ele>
  <time>2026-09-02T22:07:24Z</time>
  <course>9.42</course>
  <speed>0.7224956747275377</speed>
  <fix>3d</fix>
</trkpt>
<trkpt lat="33.8101296" lon="-118.3941042">
  <ele>-0.113</ele>
  <time>2026-09-02T22:07:24Z</time>
  <course>9.42</course>
  <speed>0.7224956747275377</speed>
  <fix>3d</fix>
</trkpt>
<trkpt lat="33.8101296" lon="-118.3941042">
  <ele>-0.113</ele>
  <time>2026-09-02T22:07:24Z</time>
  <course>9.42</course>
  <speed>0.7224956747275377</speed>
  <fix>3d</fix>
</trkpt>
<trkpt lat="33.8101296" lon="-118.3941042">
  <ele>-0.113</ele>
  <time>2026-09-02T22:07:24Z</time>
  <course>9.42</course>
  <speed>0.7224956747275377</speed>
  <fix>3d</fix>
</trkpt>
<trkpt lat="33.8101288" lon="-118.3941058">
  <ele>-0.1</ele>
  <time>2026-09-02T22:07:24Z</time>
  <course>46.24</course>
  <speed>0.73</speed>
  <fix>3d</fix>
</trkpt>
<trkpt lat="33.8101296" lon="-118.3941042">
  <ele>-0.113</ele>
  <time>2026-09-02T22:07:24Z</time>
  <course>9.42</course>
  <speed>0.7224956747275377</speed>
  <fix>3d</fix>
</trkpt>
<trkpt lat="33.8101297" lon="-118.3941041">
  <ele>-0.113</ele>
  <time>2026-09-02T22:07:24Z</time>
  <course>9.43</course>
  <speed>0.7224956747275377</speed>
  <fix>3d</fix>
</trkpt>
<trkpt lat="33.8101298" lon="-118.394104">
  <ele>-0.113</ele>
  <time>2026-09-02T22:07:24Z</time>
  <course>9.43</course>
  <speed>0.7224956747275377</speed>
  <fix>3d</fix>
</trkpt>
<trkpt lat="33.8101298" lon="-118.394104">
  <ele>-0.113</ele>
  <time>2026-09-02T22:07:24Z</time>
  <course>9.43</course>
  <speed>0.7224956747275377</speed>
  <fix>3d</fix>
</trkpt>
<trkpt lat="33.8101298" lon="-118.3941039">
  <ele>-0.113</ele>
  <time>2026-09-02T22:07:24Z</time>
  <course>9.43</course>
  <speed>0.7224956747275377</speed>
  <fix>3d</fix>
</trkpt>
<trkpt lat="33.8101299" lon="-118.3941039">
  <ele>-0.113</ele>
  <time>2026-09-02T22:07:24Z</time>
  <course>9.43</course>
  <speed>0.7224956747275377</speed>
  <fix>3d</fix>
</trkpt>
<trkpt lat="33.8101299" lon="-118.3941038">
  <ele>-0.113</ele>
  <time>2026-09-02T22:07:24Z</time>
  <course>9.43</course>
  <speed>0.7224956747275377</speed>
  <fix>3d</fix>
</trkpt>
<trkpt lat="33.81013" lon="-118.3941038">
  <ele>-0.114</ele>
  <time>2026-09-02T22:07:24Z</time>
  <course>9.43</course>
  <speed>0.7224956747275377</speed>
  <fix>3d</fix>
</trkpt>
<trkpt lat="33.81013" lon="-118.3941037">
  <ele>-0.114</ele>
  <time>2026-09-02T22:07:24Z</time>
  <course>9.43</course>
  <speed>0.7224956747275377</speed>
  <fix>3d</fix>
</trkpt>
<trkpt lat="33.8101301" lon="-118.3941037">
  <ele>-0.114</ele>
  <time>2026-09-02T22:07:24Z</time>
  <course>9.43</course>
  <speed>0.7224956747275377</speed>
  <fix>3d</fix>
</trkpt>
<trkpt lat="33.8101301" lon="-118.3941036">
  <ele>-0.114</ele>
  <time>2026-09-02T22:07:24Z</time>
  <course>9.44</course>
  <speed>0.7224956747275377</speed>
  <fix>3d</fix>
</trkpt>
<trkpt lat="33.8101297" lon="-118.3941046">
  <ele>-0.1</ele>
  <time>2026-09-02T22:07:24Z</time>
  <course>46.27</course>
  <speed>0.73</speed>
  <fix>3d</fix>
</trkpt>
<trkpt lat="33.8101301" lon="-118.3941036">
  <ele>-0.114</ele>
  <time>2026-09-02T22:07:24Z</time>
  <course>9.44</course>
  <speed>0.7224956747275377</speed>
  <fix>3d</fix>
</trkpt>
<trkpt lat="33.8101302" lon="-118.3941035">
  <ele>-0.114</ele>
  <time>2026-09-02T22:07:24Z</time>
  <course>9.44</course>
  <speed>0.7224956747275377</speed>
  <fix>3d</fix>
</trkpt>
<trkpt lat="33.8101302" lon="-118.3941035">
  <ele>-0.114</ele>
  <time>2026-09-02T22:07:24Z</time>
  <course>9.44</course>
  <speed>0.7224956747275377</speed>
  <fix>3d</fix>
</trkpt>
<trkpt lat="33.8101302" lon="-118.3941034">
  <ele>-0.114</ele>
  <time>2026-09-02T22:07:24Z</time>
  <course>9.44</course>
  <speed>0.7224956747275377</speed>
  <fix>3d</fix>
</trkpt>
<trkpt lat="33.8101303" lon="-118.3941034">
  <ele>-0.114</ele>
  <time>2026-09-02T22:07:24Z</time>
  <course>9.44</course>
  <speed>0.7224956747275377</speed>
  <fix>3d</fix>
</trkpt>
<trkpt lat="33.8101303" lon="-118.3941033">
  <ele>-0.114</ele>
  <time>2026-09-02T22:07:24Z</time>
  <course>9.44</course>
  <speed>0.7224956747275377</speed>
  <fix>3d</fix>
</trkpt>
<trkpt lat="33.8101304" lon="-118.3941033">
  <ele>-0.114</ele>
  <time>2026-09-02T22:07:24Z</time>
  <course>9.44</course>
  <speed>0.7224956747275377</speed>
  <fix>3d</fix>
</trkpt>
<trkpt lat="33.8101304" lon="-118.3941032">
  <ele>-0.114</ele>
  <time>2026-09-02T22:07:24Z</time>
  <course>9.44</course>
  <speed>0.7224956747275377</speed>
  <fix>3d</fix>
</trkpt>
<trkpt lat="33.8101304" lon="-118.3941032">
  <ele>-0.114</ele>
  <time>2026-09-02T22:07:24Z</time>
  <course>9.44</course>
  <speed>0.7224956747275377</speed>
  <fix>3d</fix>
</trkpt>
<trkpt lat="33.8101305" lon="-118.3941031">
  <ele>-0.114</ele>
  <time>2026-09-02T22:07:24Z</time>
  <course>9.44</course>
  <speed>0.7224956747275377</speed>
  <fix>3d</fix>
</trkpt>
<trkpt lat="33.8101305" lon="-118.3941031">
  <ele>-0.114</ele>
  <time>2026-09-02T22:07:24Z</time>
  <course>9.45</course>
  <speed>0.7224956747275377</speed>
  <fix>3d</fix>
</trkpt>
<trkpt lat="33.8101306" lon="-118.394103">
  <ele>-0.114</ele>
  <time>2026-09-02T22:07:24Z</time>
  <course>9.45</course>
  <speed>0.7224956747275377</speed>
  <fix>3d</fix>
</trkpt>
<trkpt lat="33.8101297" lon="-118.3941046">
  <ele>-0.1</ele>
  <time>2026-09-02T22:07:24Z</time>
  <course>46.27</course>
  <speed>0.73</speed>
  <fix>3d</fix>
</trkpt>
<trkpt lat="33.8101306" lon="-118.394103">
  <ele>-0.114</ele>
  <time>2026-09-02T22:07:24Z</time>
  <course>9.45</course>
  <speed>0.7224956747275377</speed>
  <fix>3d</fix>
</trkpt>
<trkpt lat="33.8101306" lon="-118.3941029">
  <ele>-0.114</ele>
  <time>2026-09-02T22:07:24Z</time>
  <course>9.45</course>
  <speed>0.7224956747275377</speed>
  <fix>3d</fix>
</trkpt>
<trkpt lat="33.8101307" lon="-118.3941029">
  <ele>-0.114</ele>
  <time>2026-09-02T22:07:24Z</time>
  <course>9.45</course>
  <speed>0.7224956747275377</speed>
  <fix>3d</fix>
</trkpt>
<trkpt lat="33.8101307" lon="-118.3941028">
  <ele>-0.114</ele>
  <time>2026-09-02T22:07:24Z</time>
  <course>9.45</course>
  <speed>0.7224956747275377</speed>
  <fix>3d</fix>
</trkpt>
<trkpt lat="33.8101307" lon="-118.3941028">
  <ele>-0.114</ele>
  <time>2026-09-02T22:07:24Z</time>
  <course>9.45</course>
  <speed>0.7224956747275377</speed>
  <fix>3d</fix>
</trkpt>
<trkpt lat="33.8101308" lon="-118.3941027">
  <ele>-0.114</ele>
  <time>2026-09-02T22:07:24Z</time>
  <course>9.45</course>
  <speed>0.7224956747275377</speed>
  <fix>3d</fix>
</trkpt>
<trkpt lat="33.8101308" lon="-118.3941027">
  <ele>-0.114</ele>
  <time>2026-09-02T22:07:24Z</time>
  <course>9.45</course>
  <speed>0.7224956747275377</speed>
  <fix>3d</fix>
</trkpt>
<trkpt lat="33.8101308" lon="-118.3941027">
  <ele>-0.114</ele>
  <time>2026-09-02T22:07:24Z</time>
  <course>9.45</course>
  <speed>0.7224956747275377</speed>
  <fix>3d</fix>
</trkpt>
<trkpt lat="33.8101309" lon="-118.3941026">
  <ele>-0.114</ele>
  <time>2026-09-02T22:07:24Z</time>
  <course>9.46</course>
  <speed>0.7224956747275377</speed>
  <fix>3d</fix>
</trkpt>
<trkpt lat="33.8101309" lon="-118.3941026">
  <ele>-0.114</ele>
  <time>2026-09-02T22:07:24Z</time>
  <course>9.46</course>
  <speed>0.7224956747275377</speed>
  <fix>3d</fix>
</trkpt>
<trkpt lat="33.810131" lon="-118.3941025">
  <ele>-0.114</ele>
  <time>2026-09-02T22:07:24Z</time>
  <course>9.46</course>
  <speed>0.7224956747275377</speed>
  <fix>3d</fix>
</trkpt>
<trkpt lat="33.810131" lon="-118.3941025">
  <ele>-0.114</ele>
  <time>2026-09-02T22:07:24Z</time>
  <course>9.46</course>
  <speed>0.7224956747275377</speed>
  <fix>3d</fix>
</trkpt>
<trkpt lat="33.810131" lon="-118.3941025">
  <ele>-0.114</ele>
  <time>2026-09-02T22:07:24Z</time>
  <course>9.46</course>
  <speed>0.7224956747275377</speed>
  <fix>3d</fix>
</trkpt>
<trkpt lat="33.8101306" lon="-118.3941035">
  <ele>-0.1</ele>
  <time>2026-09-02T22:07:24Z</time>
  <course>46.29</course>
  <speed>0.73</speed>
  <fix>3d</fix>
</trkpt>
<trkpt lat="33.8101311" lon="-118.3941024">
  <ele>-0.114</ele>
  <time>2026-09-02T22:07:24Z</time>
  <course>9.46</course>
  <speed>0.7224956747275377</speed>
  <fix>3d</fix>
</trkpt>
<trkpt lat="33.8101311" lon="-118.3941023">
  <ele>-0.114</ele>
  <time>2026-09-02T22:07:24Z</time>
  <course>9.46</course>
  <speed>0.7224956747275377</speed>
  <fix>3d</fix>
</trkpt>
<trkpt lat="33.8101312" lon="-118.3941022">
  <ele>-0.113</ele>
  <time>2026-09-02T22:07:24Z</time>
  <course>9.46</course>
  <speed>0.7224956747275377</speed>
  <fix>3d</fix>
</trkpt>
<trkpt lat="33.8101312" lon="-118.3941022">
  <ele>-0.114</ele>
  <time>2026-09-02T22:07:24Z</time>
  <course>9.46</course>
  <speed>0.7224956747275377</speed>
  <fix>3d</fix>
</trkpt>
<trkpt lat="33.8101313" lon="-118.3941021">
  <ele>-0.114</ele>
  <time>2026-09-02T22:07:24Z</time>
  <course>9.46</course>
  <speed>0.7224956747275377</speed>
  <fix>3d</fix>
</trkpt>
<trkpt lat="33.8101313" lon="-118.3941021">
  <ele>-0.114</ele>
  <time>2026-09-02T22:07:24Z</time>
  <course>9.47</course>
  <speed>0.7224956747275377</speed>
  <fix>3d</fix>
</trkpt>
<trkpt lat="33.8101313" lon="-118.394102">
  <ele>-0.114</ele>
  <time>2026-09-02T22:07:24Z</time>
  <course>9.47</course>
  <speed>0.7224956747275377</speed>
  <fix>3d</fix>
</trkpt>
<trkpt lat="33.8101314" lon="-118.394102">
  <ele>-0.114</ele>
  <time>2026-09-02T22:07:24Z</time>
  <course>9.47</course>
  <speed>0.7224956747275377</speed>
  <fix>3d</fix>
</trkpt>
<trkpt lat="33.8101314" lon="-118.3941019">
  <ele>-0.114</ele>
  <time>2026-09-02T22:07:24Z</time>
  <course>9.47</course>
  <speed>0.7224956747275377</speed>
  <fix>3d</fix>
</trkpt>
<trkpt lat="33.8101315" lon="-118.3941019">
  <ele>-0.114</ele>
  <time>2026-09-02T22:07:24Z</time>
  <course>9.47</course>
  <speed>0.7224956747275377</speed>
  <fix>3d</fix>
</trkpt>
<trkpt lat="33.8101315" lon="-118.3941019">
  <ele>-0.114</ele>
  <time>2026-09-02T22:07:24Z</time>
  <course>9.47</course>
  <speed>0.7224956747275377</speed>
  <fix>3d</fix>
</trkpt>
<trkpt lat="33.8101306" lon="-118.3941035">
  <ele>-0.1</ele>
  <time>2026-09-02T22:07:24Z</time>
  <course>46.29</course>
  <speed>0.73</speed>
  <fix>3d</fix>
</trkpt>
<trkpt lat="33.8101316" lon="-118.3941018">
  <ele>-0.114</ele>
  <time>2026-09-02T22:07:24Z</time>
  <course>9.47</course>
  <speed>0.7224956747275377</speed>
  <fix>3d</fix>
</trkpt>
<trkpt lat="33.8101316" lon="-118.3941017">
  <ele>-0.114</ele>
  <time>2026-09-02T22:07:24Z</time>
  <course>9.47</course>
  <speed>0.7224956747275377</speed>
  <fix>3d</fix>
</trkpt>
<trkpt lat="33.8101316" lon="-118.3941017">
  <ele>-0.114</ele>
  <time>2026-09-02T22:07:24Z</time>
  <course>9.47</course>
  <speed>0.7224956747275377</speed>
  <fix>3d</fix>
</trkpt>
<trkpt lat="33.8101317" lon="-118.3941016">
  <ele>-0.114</ele>
  <time>2026-09-02T22:07:24Z</time>
  <course>9.48</course>
  <speed>0.7224956747275377</speed>
  <fix>3d</fix>
</trkpt>
<trkpt lat="33.8101317" lon="-118.3941016">
  <ele>-0.115</ele>
  <time>2026-09-02T22:07:24Z</time>
  <course>9.48</course>
  <speed>0.7224956747275377</speed>
  <fix>3d</fix>
</trkpt>
<trkpt lat="33.8101318" lon="-118.3941015">
  <ele>-0.115</ele>
  <time>2026-09-02T22:07:24Z</time>
  <course>9.48</course>
  <speed>0.7224956747275377</speed>
  <fix>3d</fix>
</trkpt>
<trkpt lat="33.8101318" lon="-118.3941014">
  <ele>-0.115</ele>
  <time>2026-09-02T22:07:24Z</time>
  <course>9.48</course>
  <speed>0.7224956747275377</speed>
  <fix>3d</fix>
</trkpt>
<trkpt lat="33.8101319" lon="-118.3941014">
  <ele>-0.115</ele>
  <time>2026-09-02T22:07:24Z</time>
  <course>9.48</course>
  <speed>0.7224956747275377</speed>
  <fix>3d</fix>
</trkpt>
<trkpt lat="33.8101319" lon="-118.3941013">
  <ele>-0.115</ele>
  <time>2026-09-02T22:07:24Z</time>
  <course>9.48</course>
  <speed>0.7224956747275377</speed>
  <fix>3d</fix>
</trkpt>
<trkpt lat="33.8101319" lon="-118.3941013">
  <ele>-0.115</ele>
  <time>2026-09-02T22:07:24Z</time>
  <course>9.48</course>
  <speed>0.7224956747275377</speed>
  <fix>3d</fix>
</trkpt>
<trkpt lat="33.8101315" lon="-118.3941023">
  <ele>-0.1</ele>
  <time>2026-09-02T22:07:24Z</time>
  <course>46.31</course>
  <speed>0.73</speed>
  <fix>3d</fix>
</trkpt>
<trkpt lat="33.8101319" lon="-118.3941013">
  <ele>-0.115</ele>
  <time>2026-09-02T22:07:24Z</time>
  <course>9.48</course>
  <speed>0.7224956747275377</speed>
  <fix>3d</fix>
</trkpt>
<trkpt lat="33.810132" lon="-118.3941012">
  <ele>-0.115</ele>
  <time>2026-09-02T22:07:24Z</time>
  <course>9.48</course>
  <speed>0.7224956747275377</speed>
  <fix>3d</fix>
</trkpt>
<trkpt lat="33.810132" lon="-118.3941012">
  <ele>-0.115</ele>
  <time>2026-09-02T22:07:24Z</time>
  <course>9.48</course>
  <speed>0.7224956747275377</speed>
  <fix>3d</fix>
</trkpt>
<trkpt lat="33.8101321" lon="-118.3941011">
  <ele>-0.115</ele>
  <time>2026-09-02T22:07:24Z</time>
  <course>9.49</course>
  <speed>0.7224956747275377</speed>
  <fix>3d</fix>
</trkpt>
<trkpt lat="33.8101321" lon="-118.3941011">
  <ele>-0.116</ele>
  <time>2026-09-02T22:07:24Z</time>
  <course>9.49</course>
  <speed>0.7224956747275377</speed>
  <fix>3d</fix>
</trkpt>
<trkpt lat="33.8101321" lon="-118.3941011">
  <ele>-0.116</ele>
  <time>2026-09-02T22:07:24Z</time>
  <course>9.49</course>
  <speed>0.7224956747275377</speed>
  <fix>3d</fix>
</trkpt>
<trkpt lat="33.8101322" lon="-118.394101">
  <ele>-0.116</ele>
  <time>2026-09-02T22:07:24Z</time>
  <course>9.49</course>
  <speed>0.7224956747275377</speed>
  <fix>3d</fix>
</trkpt>
<trkpt lat="33.8101322" lon="-118.394101">
  <ele>-0.116</ele>
  <time>2026-09-02T22:07:24Z</time>
  <course>9.49</course>
  <speed>0.7224956747275377</speed>
  <fix>3d</fix>
</trkpt>
<trkpt lat="33.8101322" lon="-118.3941009">
  <ele>-0.116</ele>
  <time>2026-09-02T22:07:24Z</time>
  <course>9.49</course>
  <speed>0.7224956747275377</speed>
  <fix>3d</fix>
</trkpt>
<trkpt lat="33.8101323" lon="-118.3941009">
  <ele>-0.116</ele>
  <time>2026-09-02T22:07:24Z</time>
  <course>9.49</course>
  <speed>0.7224956747275377</speed>
  <fix>3d</fix>
</trkpt>
<trkpt lat="33.8101323" lon="-118.3941008">
  <ele>-0.116</ele>
  <time>2026-09-02T22:07:24Z</time>
  <course>9.49</course>
  <speed>0.7224956747275377</speed>
  <fix>3d</fix>
</trkpt>
<trkpt lat="33.8101324" lon="-118.3941008">
  <ele>-0.116</ele>
  <time>2026-09-02T22:07:24Z</time>
  <course>9.49</course>
  <speed>0.7224956747275377</speed>
  <fix>3d</fix>
</trkpt>
<trkpt lat="33.8101324" lon="-118.3941007">
  <ele>-0.116</ele>
  <time>2026-09-02T22:07:24Z</time>
  <course>9.49</course>
  <speed>0.7224956747275377</speed>
  <fix>3d</fix>
</trkpt>
<trkpt lat="33.8101315" lon="-118.3941023">
  <ele>-0.1</ele>
  <time>2026-09-02T22:07:24Z</time>
  <course>46.31</course>
  <speed>0.73</speed>
  <fix>3d</fix>
</trkpt>
<trkpt lat="33.8101324" lon="-118.3941007">
  <ele>-0.116</ele>
  <time>2026-09-02T22:07:24Z</time>
  <course>9.49</course>
  <speed>0.7224956747275377</speed>
  <fix>3d</fix>
</trkpt>
<trkpt lat="33.8101325" lon="-118.3941006">
  <ele>-0.116</ele>
  <time>2026-09-02T22:07:24Z</time>
  <course>9.5</course>
  <speed>0.7224956747275377</speed>
  <fix>3d</fix>
</trkpt>
<trkpt lat="33.8101325" lon="-118.3941006">
  <ele>-0.116</ele>
  <time>2026-09-02T22:07:24Z</time>
  <course>9.5</course>
  <speed>0.7224956747275377</speed>
  <fix>3d</fix>
</trkpt>
<trkpt lat="33.8101325" lon="-118.3941005">
  <ele>-0.116</ele>
  <time>2026-09-02T22:07:24Z</time>
  <course>9.5</course>
  <speed>0.7224956747275377</speed>
  <fix>3d</fix>
</trkpt>
<trkpt lat="33.8101326" lon="-118.3941005">
  <ele>-0.116</ele>
  <time>2026-09-02T22:07:24Z</time>
  <course>9.5</course>
  <speed>0.7224956747275377</speed>
  <fix>3d</fix>
</trkpt>
<trkpt lat="33.8101326" lon="-118.3941004">
  <ele>-0.116</ele>
  <time>2026-09-02T22:07:24Z</time>
  <course>9.5</course>
  <speed>0.7224956747275377</speed>
  <fix>3d</fix>
</trkpt>
<trkpt lat="33.8101327" lon="-118.3941004">
  <ele>-0.117</ele>
  <time>2026-09-02T22:07:24Z</time>
  <course>9.5</course>
  <speed>0.7224956747275377</speed>
  <fix>3d</fix>
</trkpt>
<trkpt lat="33.8101327" lon="-118.3941003">
  <ele>-0.117</ele>
  <time>2026-09-02T22:07:24Z</time>
  <course>9.5</course>
  <speed>0.7224956747275377</speed>
  <fix>3d</fix>
</trkpt>
<trkpt lat="33.8101327" lon="-118.3941003">
  <ele>-0.117</ele>
  <time>2026-09-02T22:07:24Z</time>
  <course>9.5</course>
  <speed>0.7224956747275377</speed>
  <fix>3d</fix>
</trkpt>
<trkpt lat="33.8101328" lon="-118.3941002">
  <ele>-0.117</ele>
  <time>2026-09-02T22:07:24Z</time>
  <course>9.5</course>
  <speed>0.7224956747275377</speed>
  <fix>3d</fix>
</trkpt>
<trkpt lat="33.8101328" lon="-118.3941002">
  <ele>-0.117</ele>
  <time>2026-09-02T22:07:24Z</time>
  <course>9.5</course>
  <speed>0.7224956747275377</speed>
  <fix>3d</fix>
</trkpt>
<trkpt lat="33.8101328" lon="-118.3941002">
  <ele>-0.117</ele>
  <time>2026-09-02T22:07:24Z</time>
  <course>9.5</course>
  <speed>0.7224956747275377</speed>
  <fix>3d</fix>
</trkpt>
<trkpt lat="33.8101324" lon="-118.3941012">
  <ele>-0.11</ele>
  <time>2026-09-02T22:07:24Z</time>
  <course>46.33</course>
  <speed>0.73</speed>
  <fix>3d</fix>
</trkpt>
<trkpt lat="33.8101328" lon="-118.3941002">
  <ele>-0.117</ele>
  <time>2026-09-02T22:07:24Z</time>
  <course>9.5</course>
  <speed>0.7224956747275377</speed>
  <fix>3d</fix>
</trkpt>
<trkpt lat="33.8101329" lon="-118.3941001">
  <ele>-0.117</ele>
  <time>2026-09-02T22:07:24Z</time>
  <course>9.51</course>
  <speed>0.7224956747275377</speed>
  <fix>3d</fix>
</trkpt>
<trkpt lat="33.810133" lon="-118.3941">
  <ele>-0.118</ele>
  <time>2026-09-02T22:07:24Z</time>
  <course>9.51</course>
  <speed>0.7224956747275377</speed>
  <fix>3d</fix>
</trkpt>
<trkpt lat="33.810133" lon="-118.3941">
  <ele>-0.118</ele>
  <time>2026-09-02T22:07:24Z</time>
  <course>9.51</course>
  <speed>0.7224956747275377</speed>
  <fix>3d</fix>
</trkpt>
<trkpt lat="33.810133" lon="-118.3940999">
  <ele>-0.118</ele>
  <time>2026-09-02T22:07:24Z</time>
  <course>9.51</course>
  <speed>0.7224956747275377</speed>
  <fix>3d</fix>
</trkpt>
<trkpt lat="33.8101331" lon="-118.3940999">
  <ele>-0.118</ele>
  <time>2026-09-02T22:07:24Z</time>
  <course>9.51</course>
  <speed>0.7224956747275377</speed>
  <fix>3d</fix>
</trkpt>
<trkpt lat="33.8101331" lon="-118.3940998">
  <ele>-0.118</ele>
  <time>2026-09-02T22:07:24Z</time>
  <course>9.51</course>
  <speed>0.7224956747275377</speed>
  <fix>3d</fix>
</trkpt>
<trkpt lat="33.8101331" lon="-118.3940998">
  <ele>-0.118</ele>
  <time>2026-09-02T22:07:24Z</time>
  <course>9.51</course>
  <speed>0.7224956747275377</speed>
  <fix>3d</fix>
</trkpt>
<trkpt lat="33.8101332" lon="-118.3940997">
  <ele>-0.118</ele>
  <time>2026-09-02T22:07:24Z</time>
  <course>9.51</course>
  <speed>0.7224956747275377</speed>
  <fix>3d</fix>
</trkpt>
<trkpt lat="33.8101332" lon="-118.3940997">
  <ele>-0.118</ele>
  <time>2026-09-02T22:07:24Z</time>
  <course>9.51</course>
  <speed>0.7224956747275377</speed>
  <fix>3d</fix>
</trkpt>
<trkpt lat="33.8101333" lon="-118.3940996">
  <ele>-0.118</ele>
  <time>2026-09-02T22:07:24Z</time>
  <course>9.51</course>
  <speed>0.7224956747275377</speed>
  <fix>3d</fix>
</trkpt>
<trkpt lat="33.8101333" lon="-118.3940996">
  <ele>-0.118</ele>
  <time>2026-09-02T22:07:24Z</time>
  <course>9.52</course>
  <speed>0.7224956747275377</speed>
  <fix>3d</fix>
</trkpt>
<trkpt lat="33.8101333" lon="-118.3940996">
  <ele>-0.118</ele>
  <time>2026-09-02T22:07:24Z</time>
  <course>9.52</course>
  <speed>0.7224956747275377</speed>
  <fix>3d</fix>
</trkpt>
<trkpt lat="33.8101324" lon="-118.3941012">
  <ele>-0.11</ele>
  <time>2026-09-02T22:07:24Z</time>
  <course>46.33</course>
  <speed>0.73</speed>
  <fix>3d</fix>
</trkpt>
<trkpt lat="33.8101334" lon="-118.3940995">
  <ele>-0.118</ele>
  <time>2026-09-02T22:07:24Z</time>
  <course>9.52</course>
  <speed>0.7224956747275377</speed>
  <fix>3d</fix>
</trkpt>
<trkpt lat="33.8101334" lon="-118.3940994">
  <ele>-0.118</ele>
  <time>2026-09-02T22:07:24Z</time>
  <course>9.52</course>
  <speed>0.7224956747275377</speed>
  <fix>3d</fix>
</trkpt>
<trkpt lat="33.8101334" lon="-118.3940994">
  <ele>-0.118</ele>
  <time>2026-09-02T22:07:24Z</time>
  <course>9.52</course>
  <speed>0.7224956747275377</speed>
  <fix>3d</fix>
</trkpt>
<trkpt lat="33.8101335" lon="-118.3940993">
  <ele>-0.118</ele>
  <time>2026-09-02T22:07:24Z</time>
  <course>9.52</course>
  <speed>0.7224956747275377</speed>
  <fix>3d</fix>
</trkpt>
<trkpt lat="33.8101335" lon="-118.3940993">
  <ele>-0.118</ele>
  <time>2026-09-02T22:07:24Z</time>
  <course>9.52</course>
  <speed>0.7224956747275377</speed>
  <fix>3d</fix>
</trkpt>
<trkpt lat="33.8101336" lon="-118.3940992">
  <ele>-0.118</ele>
  <time>2026-09-02T22:07:24Z</time>
  <course>9.52</course>
  <speed>0.7224956747275377</speed>
  <fix>3d</fix>
</trkpt>
<trkpt lat="33.8101336" lon="-118.3940992">
  <ele>-0.117</ele>
  <time>2026-09-02T22:07:24Z</time>
  <course>9.52</course>
  <speed>0.7224956747275377</speed>
  <fix>3d</fix>
</trkpt>
<trkpt lat="33.8101337" lon="-118.3940991">
  <ele>-0.117</ele>
  <time>2026-09-02T22:07:24Z</time>
  <course>9.52</course>
  <speed>0.7224956747275377</speed>
  <fix>3d</fix>
</trkpt>
<trkpt lat="33.8101337" lon="-118.3940991">
  <ele>-0.117</ele>
  <time>2026-09-02T22:07:24Z</time>
  <course>9.53</course>
  <speed>0.7224956747275377</speed>
  <fix>3d</fix>
</trkpt>
<trkpt lat="33.8101337" lon="-118.394099">
  <ele>-0.117</ele>
  <time>2026-09-02T22:07:24Z</time>
  <course>9.53</course>
  <speed>0.7224956747275377</speed>
  <fix>3d</fix>
</trkpt>
<trkpt lat="33.8101337" lon="-118.394099">
  <ele>-0.117</ele>
  <time>2026-09-02T22:07:24Z</time>
  <course>9.53</course>
  <speed>0.7224956747275377</speed>
  <fix>3d</fix>
</trkpt>
<trkpt lat="33.8101333" lon="-118.3941">
  <ele>-0.1</ele>
  <time>2026-09-02T22:07:24Z</time>
  <course>46.36</course>
  <speed>0.73</speed>
  <fix>3d</fix>
</trkpt>
<trkpt lat="33.8101338" lon="-118.3940989">
  <ele>-0.117</ele>
  <time>2026-09-02T22:07:24Z</time>
  <course>9.53</course>
  <speed>0.7224956747275377</speed>
  <fix>3d</fix>
</trkpt>
<trkpt lat="33.8101339" lon="-118.3940989">
  <ele>-0.117</ele>
  <time>2026-09-02T22:07:24Z</time>
  <course>9.53</course>
  <speed>0.7224956747275377</speed>
  <fix>3d</fix>
</trkpt>
<trkpt lat="33.8101339" lon="-118.3940988">
  <ele>-0.117</ele>
  <time>2026-09-02T22:07:24Z</time>
  <course>9.53</course>
  <speed>0.7224956747275377</speed>
  <fix>3d</fix>
</trkpt>
<trkpt lat="33.810134" lon="-118.3940988">
  <ele>-0.116</ele>
  <time>2026-09-02T22:07:24Z</time>
  <course>9.53</course>
  <speed>0.7224956747275377</speed>
  <fix>3d</fix>
</trkpt>
<trkpt lat="33.810134" lon="-118.3940987">
  <ele>-0.116</ele>
  <time>2026-09-02T22:07:24Z</time>
  <course>9.53</course>
  <speed>0.7224956747275377</speed>
  <fix>3d</fix>
</trkpt>
<trkpt lat="33.810134" lon="-118.3940987">
  <ele>-0.116</ele>
  <time>2026-09-02T22:07:24Z</time>
  <course>9.53</course>
  <speed>0.7224956747275377</speed>
  <fix>3d</fix>
</trkpt>
<trkpt lat="33.810134" lon="-118.3940986">
  <ele>-0.116</ele>
  <time>2026-09-02T22:07:24Z</time>
  <course>9.53</course>
  <speed>0.7224956747275377</speed>
  <fix>3d</fix>
</trkpt>
<trkpt lat="33.8101341" lon="-118.3940986">
  <ele>-0.116</ele>
  <time>2026-09-02T22:07:24Z</time>
  <course>9.54</course>
  <speed>0.7224956747275377</speed>
  <fix>3d</fix>
</trkpt>
<trkpt lat="33.8101341" lon="-118.3940985">
  <ele>-0.116</ele>
  <time>2026-09-02T22:07:24Z</time>
  <course>9.54</course>
  <speed>0.7224956747275377</speed>
  <fix>3d</fix>
</trkpt>
<trkpt lat="33.8101342" lon="-118.3940985">
  <ele>-0.116</ele>
  <time>2026-09-02T22:07:24Z</time>
  <course>9.54</course>
  <speed>0.7224956747275377</speed>
  <fix>3d</fix>
</trkpt>
<trkpt lat="33.8101342" lon="-118.3940985">
  <ele>-0.115</ele>
  <time>2026-09-02T22:07:24Z</time>
  <course>9.54</course>
  <speed>0.7224956747275377</speed>
  <fix>3d</fix>
</trkpt>
<trkpt lat="33.8101342" lon="-118.3940984">
  <ele>-0.115</ele>
  <time>2026-09-02T22:07:24Z</time>
  <course>9.54</course>
  <speed>0.7158910531638176</speed>
  <fix>3d</fix>
</trkpt>
<trkpt lat="33.8101333" lon="-118.3941">
  <ele>-0.1</ele>
  <time>2026-09-02T22:07:24Z</time>
  <course>46.36</course>
  <speed>0.73</speed>
  <fix>3d</fix>
</trkpt>
<trkpt lat="33.8101342" lon="-118.3940984">
  <ele>-0.115</ele>
  <time>2026-09-02T22:07:24Z</time>
  <course>9.54</course>
  <speed>0.7158910531638176</speed>
  <fix>3d</fix>
</trkpt>
<trkpt lat="33.8101343" lon="-118.3940984">
  <ele>-0.115</ele>
  <time>2026-09-02T22:07:24Z</time>
  <course>9.54</course>
  <speed>0.7158910531638176</speed>
  <fix>3d</fix>
</trkpt>
<trkpt lat="33.8101343" lon="-118.3940983">
  <ele>-0.115</ele>
  <time>2026-09-02T22:07:24Z</time>
  <course>9.54</course>
  <speed>0.7158910531638176</speed>
  <fix>3d</fix>
</trkpt>
<trkpt lat="33.8101344" lon="-118.3940982">
  <ele>-0.115</ele>
  <time>2026-09-02T22:07:24Z</time>
  <course>9.54</course>
  <speed>0.7158910531638176</speed>
  <fix>3d</fix>
</trkpt>
<trkpt lat="33.8101344" lon="-118.3940982">
  <ele>-0.114</ele>
  <time>2026-09-02T22:07:24Z</time>
  <course>9.54</course>
  <speed>0.7158910531638176</speed>
  <fix>3d</fix>
</trkpt>
<trkpt lat="33.8101344" lon="-118.3940981">
  <ele>-0.114</ele>
  <time>2026-09-02T22:07:24Z</time>
  <course>9.54</course>
  <speed>0.7158910531638176</speed>
  <fix>3d</fix>
</trkpt>
<trkpt lat="33.8101345" lon="-118.3940981">
  <ele>-0.114</ele>
  <time>2026-09-02T22:07:24Z</time>
  <course>9.55</course>
  <speed>0.7158910531638176</speed>
  <fix>3d</fix>
</trkpt>
<trkpt lat="33.8101345" lon="-118.394098">
  <ele>-0.114</ele>
  <time>2026-09-02T22:07:24Z</time>
  <course>9.55</course>
  <speed>0.7158910531638176</speed>
  <fix>3d</fix>
</trkpt>
<trkpt lat="33.8101346" lon="-118.394098">
  <ele>-0.114</ele>
  <time>2026-09-02T22:07:24Z</time>
  <course>9.55</course>
  <speed>0.7158910531638176</speed>
  <fix>3d</fix>
</trkpt>
<trkpt lat="33.8101346" lon="-118.3940979">
  <ele>-0.113</ele>
  <time>2026-09-02T22:07:24Z</time>
  <course>9.55</course>
  <speed>0.7158910531638176</speed>
  <fix>3d</fix>
</trkpt>
<trkpt lat="33.8101346" lon="-118.3940979">
  <ele>-0.113</ele>
  <time>2026-09-02T22:07:24Z</time>
  <course>9.55</course>
  <speed>0.7158910531638176</speed>
  <fix>3d</fix>
</trkpt>
<trkpt lat="33.8101347" lon="-118.3940979">
  <ele>-0.113</ele>
  <time>2026-09-02T22:07:24Z</time>
  <course>9.55</course>
  <speed>0.7158910531638176</speed>
  <fix>3d</fix>
</trkpt>
<trkpt lat="33.8101342" lon="-118.3940989">
  <ele>-0.1</ele>
  <time>2026-09-02T22:07:24Z</time>
  <course>46.38</course>
  <speed>0.73</speed>
  <fix>3d</fix>
</trkpt>
<trkpt lat="33.8101347" lon="-118.3940979">
  <ele>-0.113</ele>
  <time>2026-09-02T22:07:24Z</time>
  <course>9.55</course>
  <speed>0.7158910531638176</speed>
  <fix>3d</fix>
</trkpt>
<trkpt lat="33.8101347" lon="-118.3940978">
  <ele>-0.113</ele>
  <time>2026-09-02T22:07:24Z</time>
  <course>9.55</course>
  <speed>0.7158910531638176</speed>
  <fix>3d</fix>
</trkpt>
<trkpt lat="33.8101348" lon="-118.3940977">
  <ele>-0.113</ele>
  <time>2026-09-02T22:07:24Z</time>
  <course>9.55</course>
  <speed>0.7158910531638176</speed>
  <fix>3d</fix>
</trkpt>
<trkpt lat="33.8101348" lon="-118.3940977">
  <ele>-0.112</ele>
  <time>2026-09-02T22:07:24Z</time>
  <course>9.55</course>
  <speed>0.7158910531638176</speed>
  <fix>3d</fix>
</trkpt>
<trkpt lat="33.8101349" lon="-118.3940976">
  <ele>-0.112</ele>
  <time>2026-09-02T22:07:24Z</time>
  <course>9.55</course>
  <speed>0.7158910531638176</speed>
  <fix>3d</fix>
</trkpt>
<trkpt lat="33.8101349" lon="-118.3940976">
  <ele>-0.112</ele>
  <time>2026-09-02T22:07:24Z</time>
  <course>9.56</course>
  <speed>0.7158910531638176</speed>
  <fix>3d</fix>
</trkpt>
<trkpt lat="33.8101349" lon="-118.3940975">
  <ele>-0.112</ele>
  <time>2026-09-02T22:07:24Z</time>
  <course>9.56</course>
  <speed>0.7158910531638176</speed>
  <fix>3d</fix>
</trkpt>
<trkpt lat="33.810135" lon="-118.3940975">
  <ele>-0.112</ele>
  <time>2026-09-02T22:07:24Z</time>
  <course>9.56</course>
  <speed>0.7158910531638176</speed>
  <fix>3d</fix>
</trkpt>
<trkpt lat="33.810135" lon="-118.3940974">
  <ele>-0.111</ele>
  <time>2026-09-02T22:07:24Z</time>
  <course>9.56</course>
  <speed>0.7158910531638176</speed>
  <fix>3d</fix>
</trkpt>
<trkpt lat="33.8101351" lon="-118.3940973">
  <ele>-0.111</ele>
  <time>2026-09-02T22:07:24Z</time>
  <course>9.56</course>
  <speed>0.7158910531638176</speed>
  <fix>3d</fix>
</trkpt>
<trkpt lat="33.8101351" lon="-118.3940973">
  <ele>-0.111</ele>
  <time>2026-09-02T22:07:24Z</time>
  <course>9.56</course>
  <speed>0.7158910531638176</speed>
  <fix>3d</fix>
</trkpt>
<trkpt lat="33.8101351" lon="-118.3940973">
  <ele>-0.111</ele>
  <time>2026-09-02T22:07:24Z</time>
  <course>9.56</course>
  <speed>0.7158910531638176</speed>
  <fix>3d</fix>
</trkpt>
<trkpt lat="33.8101342" lon="-118.3940989">
  <ele>-0.1</ele>
  <time>2026-09-02T22:07:24Z</time>
  <course>46.38</course>
  <speed>0.73</speed>
  <fix>3d</fix>
</trkpt>
<trkpt lat="33.8101352" lon="-118.3940972">
  <ele>-0.111</ele>
  <time>2026-09-02T22:07:24Z</time>
  <course>9.56</course>
  <speed>0.7158910531638176</speed>
  <fix>3d</fix>
</trkpt>
<trkpt lat="33.8101352" lon="-118.3940971">
  <ele>-0.111</ele>
  <time>2026-09-02T22:07:24Z</time>
  <course>9.56</course>
  <speed>0.7158910531638176</speed>
  <fix>3d</fix>
</trkpt>
<trkpt lat="33.8101353" lon="-118.3940971">
  <ele>-0.111</ele>
  <time>2026-09-02T22:07:24Z</time>
  <course>9.56</course>
  <speed>0.7158910531638176</speed>
  <fix>3d</fix>
</trkpt>
<trkpt lat="33.8101353" lon="-118.394097">
  <ele>-0.111</ele>
  <time>2026-09-02T22:07:24Z</time>
  <course>9.57</course>
  <speed>0.7158910531638176</speed>
  <fix>3d</fix>
</trkpt>
<trkpt lat="33.8101353" lon="-118.394097">
  <ele>-0.11</ele>
  <time>2026-09-02T22:07:24Z</time>
  <course>9.57</course>
  <speed>0.7158910531638176</speed>
  <fix>3d</fix>
</trkpt>
<trkpt lat="33.8101354" lon="-118.3940969">
  <ele>-0.11</ele>
  <time>2026-09-02T22:07:24Z</time>
  <course>9.57</course>
  <speed>0.7158910531638176</speed>
  <fix>3d</fix>
</trkpt>
<trkpt lat="33.8101354" lon="-118.3940969">
  <ele>-0.11</ele>
  <time>2026-09-02T22:07:24Z</time>
  <course>9.57</course>
  <speed>0.7158910531638176</speed>
  <fix>3d</fix>
</trkpt>
<trkpt lat="33.8101355" lon="-118.3940968">
  <ele>-0.11</ele>
  <time>2026-09-02T22:07:24Z</time>
  <course>9.57</course>
  <speed>0.7158910531638176</speed>
  <fix>3d</fix>
</trkpt>
<trkpt lat="33.8101355" lon="-118.3940968">
  <ele>-0.11</ele>
  <time>2026-09-02T22:07:24Z</time>
  <course>9.57</course>
  <speed>0.7158910531638176</speed>
  <fix>3d</fix>
</trkpt>
<trkpt lat="33.8101356" lon="-118.3940967">
  <ele>-0.11</ele>
  <time>2026-09-02T22:07:24Z</time>
  <course>9.57</course>
  <speed>0.7158910531638176</speed>
  <fix>3d</fix>
</trkpt>
<trkpt lat="33.8101356" lon="-118.3940967">
  <ele>-0.11</ele>
  <time>2026-09-02T22:07:24Z</time>
  <course>9.57</course>
  <speed>0.7158910531638176</speed>
  <fix>3d</fix>
</trkpt>
<trkpt lat="33.8101351" lon="-118.3940977">
  <ele>-0.1</ele>
  <time>2026-09-02T22:07:24Z</time>
  <course>46.4</course>
  <speed>0.73</speed>
  <fix>3d</fix>
</trkpt>
<trkpt lat="33.8101356" lon="-118.3940967">
  <ele>-0.11</ele>
  <time>2026-09-02T22:07:24Z</time>
  <course>9.57</course>
  <speed>0.7158910531638176</speed>
  <fix>3d</fix>
</trkpt>
<trkpt lat="33.8101356" lon="-118.3940966">
  <ele>-0.109</ele>
  <time>2026-09-02T22:07:24Z</time>
  <course>9.57</course>
  <speed>0.7158910531638176</speed>
  <fix>3d</fix>
</trkpt>
<trkpt lat="33.8101357" lon="-118.3940966">
  <ele>-0.109</ele>
  <time>2026-09-02T22:07:24Z</time>
  <course>9.57</course>
  <speed>0.7158910531638176</speed>
  <fix>3d</fix>
</trkpt>
<trkpt lat="33.8101357" lon="-118.3940965">
  <ele>-0.109</ele>
  <time>2026-09-02T22:07:24Z</time>
  <course>9.58</course>
  <speed>0.7158910531638176</speed>
  <fix>3d</fix>
</trkpt>
<trkpt lat="33.8101358" lon="-118.3940965">
  <ele>-0.109</ele>
  <time>2026-09-02T22:07:24Z</time>
  <course>9.58</course>
  <speed>0.7158910531638176</speed>
  <fix>3d</fix>
</trkpt>
<trkpt lat="33.8101358" lon="-118.3940964">
  <ele>-0.109</ele>
  <time>2026-09-02T22:07:24Z</time>
  <course>9.58</course>
  <speed>0.7158910531638176</speed>
  <fix>3d</fix>
</trkpt>
<trkpt lat="33.8101358" lon="-118.3940964">
  <ele>-0.109</ele>
  <time>2026-09-02T22:07:24Z</time>
  <course>9.58</course>
  <speed>0.7158910531638176</speed>
  <fix>3d</fix>
</trkpt>
<trkpt lat="33.8101359" lon="-118.3940963">
  <ele>-0.109</ele>
  <time>2026-09-02T22:07:24Z</time>
  <course>9.58</course>
  <speed>0.7158910531638176</speed>
  <fix>3d</fix>
</trkpt>
<trkpt lat="33.8101359" lon="-118.3940963">
  <ele>-0.109</ele>
  <time>2026-09-02T22:07:24Z</time>
  <course>9.58</course>
  <speed>0.7158910531638176</speed>
  <fix>3d</fix>
</trkpt>
<trkpt lat="33.8101359" lon="-118.3940962">
  <ele>-0.109</ele>
  <time>2026-09-02T22:07:24Z</time>
  <course>9.58</course>
  <speed>0.7158910531638176</speed>
  <fix>3d</fix>
</trkpt>
<trkpt lat="33.810136" lon="-118.3940962">
  <ele>-0.109</ele>
  <time>2026-09-02T22:07:24Z</time>
  <course>9.58</course>
  <speed>0.7158910531638176</speed>
  <fix>3d</fix>
</trkpt>
<trkpt lat="33.810136" lon="-118.3940961">
  <ele>-0.109</ele>
  <time>2026-09-02T22:07:24Z</time>
  <course>9.58</course>
  <speed>0.7158910531638176</speed>
  <fix>3d</fix>
</trkpt>
<trkpt lat="33.8101351" lon="-118.3940977">
  <ele>-0.1</ele>
  <time>2026-09-02T22:07:24Z</time>
  <course>46.4</course>
  <speed>0.73</speed>
  <fix>3d</fix>
</trkpt>
<trkpt lat="33.810136" lon="-118.3940961">
  <ele>-0.109</ele>
  <time>2026-09-02T22:07:24Z</time>
  <course>9.58</course>
  <speed>0.7158910531638176</speed>
  <fix>3d</fix>
</trkpt>
<trkpt lat="33.8101361" lon="-118.394096">
  <ele>-0.109</ele>
  <time>2026-09-02T22:07:24Z</time>
  <course>9.58</course>
  <speed>0.7158910531638176</speed>
  <fix>3d</fix>
</trkpt>
<trkpt lat="33.8101362" lon="-118.394096">
  <ele>-0.109</ele>
  <time>2026-09-02T22:07:24Z</time>
  <course>9.59</course>
  <speed>0.7158910531638176</speed>
  <fix>3d</fix>
</trkpt>
<trkpt lat="33.8101362" lon="-118.3940959">
  <ele>-0.109</ele>
  <time>2026-09-02T22:07:24Z</time>
  <course>9.59</course>
  <speed>0.7158910531638176</speed>
  <fix>3d</fix>
</trkpt>
<trkpt lat="33.8101362" lon="-118.3940959">
  <ele>-0.109</ele>
  <time>2026-09-02T22:07:24Z</time>
  <course>9.59</course>
  <speed>0.7158910531638176</speed>
  <fix>3d</fix>
</trkpt>
<trkpt lat="33.8101363" lon="-118.3940958">
  <ele>-0.109</ele>
  <time>2026-09-02T22:07:24Z</time>
  <course>9.59</course>
  <speed>0.7158910531638176</speed>
  <fix>3d</fix>
</trkpt>
<trkpt lat="33.8101363" lon="-118.3940958">
  <ele>-0.109</ele>
  <time>2026-09-02T22:07:24Z</time>
  <course>9.59</course>
  <speed>0.7158910531638176</speed>
  <fix>3d</fix>
</trkpt>
<trkpt lat="33.8101364" lon="-118.3940957">
  <ele>-0.109</ele>
  <time>2026-09-02T22:07:24Z</time>
  <course>9.59</course>
  <speed>0.7158910531638176</speed>
  <fix>3d</fix>
</trkpt>
<trkpt lat="33.8101364" lon="-118.3940957">
  <ele>-0.109</ele>
  <time>2026-09-02T22:07:24Z</time>
  <course>9.59</course>
  <speed>0.7158910531638176</speed>
  <fix>3d</fix>
</trkpt>
<trkpt lat="33.8101364" lon="-118.3940956">
  <ele>-0.109</ele>
  <time>2026-09-02T22:07:24Z</time>
  <course>9.59</course>
  <speed>0.7158910531638176</speed>
  <fix>3d</fix>
</trkpt>
<trkpt lat="33.8101365" lon="-118.3940956">
  <ele>-0.109</ele>
  <time>2026-09-02T22:07:24Z</time>
  <course>9.59</course>
  <speed>0.7158910531638176</speed>
  <fix>3d</fix>
</trkpt>
<trkpt lat="33.810136" lon="-118.3940965">
  <ele>-0.1</ele>
  <time>2026-09-02T22:07:24Z</time>
  <course>46.42</course>
  <speed>0.73</speed>
  <fix>3d</fix>
</trkpt>
<trkpt lat="33.8101365" lon="-118.3940955">
  <ele>-0.109</ele>
  <time>2026-09-02T22:07:24Z</time>
  <course>9.59</course>
  <speed>0.7158910531638176</speed>
  <fix>3d</fix>
</trkpt>
<trkpt lat="33.8101365" lon="-118.3940955">
  <ele>-0.109</ele>
  <time>2026-09-02T22:07:24Z</time>
  <course>9.6</course>
  <speed>0.7158910531638176</speed>
  <fix>3d</fix>
</trkpt>
<trkpt lat="33.8101366" lon="-118.3940954">
  <ele>-0.109</ele>
  <time>2026-09-02T22:07:24Z</time>
  <course>9.6</course>
  <speed>0.7158910531638176</speed>
  <fix>3d</fix>
</trkpt>
<trkpt lat="33.8101366" lon="-118.3940954">
  <ele>-0.109</ele>
  <time>2026-09-02T22:07:24Z</time>
  <course>9.6</course>
  <speed>0.7158910531638176</speed>
  <fix>3d</fix>
</trkpt>
<trkpt lat="33.8101367" lon="-118.3940953">
  <ele>-0.109</ele>
  <time>2026-09-02T22:07:24Z</time>
  <course>9.6</course>
  <speed>0.7158910531638176</speed>
  <fix>3d</fix>
</trkpt>
<trkpt lat="33.8101367" lon="-118.3940952">
  <ele>-0.109</ele>
  <time>2026-09-02T22:07:24Z</time>
  <course>9.6</course>
  <speed>0.7158910531638176</speed>
  <fix>3d</fix>
</trkpt>
<trkpt lat="33.8101367" lon="-118.3940952">
  <ele>-0.109</ele>
  <time>2026-09-02T22:07:24Z</time>
  <course>9.6</course>
  <speed>0.7158910531638176</speed>
  <fix>3d</fix>
</trkpt>
<trkpt lat="33.8101368" lon="-118.3940952">
  <ele>-0.11</ele>
  <time>2026-09-02T22:07:24Z</time>
  <course>9.6</course>
  <speed>0.7158910531638176</speed>
  <fix>3d</fix>
</trkpt>
<trkpt lat="33.8101368" lon="-118.3940951">
  <ele>-0.109</ele>
  <time>2026-09-02T22:07:24Z</time>
  <course>9.6</course>
  <speed>0.7158910531638176</speed>
  <fix>3d</fix>
</trkpt>
<trkpt lat="33.8101369" lon="-118.394095">
  <ele>-0.11</ele>
  <time>2026-09-02T22:07:24Z</time>
  <course>9.6</course>
  <speed>0.7158910531638176</speed>
  <fix>3d</fix>
</trkpt>
<trkpt lat="33.8101369" lon="-118.394095">
  <ele>-0.11</ele>
  <time>2026-09-02T22:07:24Z</time>
  <course>9.6</course>
  <speed>0.7158910531638176</speed>
  <fix>3d</fix>
</trkpt>
<trkpt lat="33.8101369" lon="-118.394095">
  <ele>-0.11</ele>
  <time>2026-09-02T22:07:24Z</time>
  <course>9.6</course>
  <speed>0.7158910531638176</speed>
  <fix>3d</fix>
</trkpt>
<trkpt lat="33.810136" lon="-118.3940965">
  <ele>-0.1</ele>
  <time>2026-09-02T22:07:24Z</time>
  <course>46.42</course>
  <speed>0.73</speed>
  <fix>3d</fix>
</trkpt>
<trkpt lat="33.8101369" lon="-118.394095">
  <ele>-0.11</ele>
  <time>2026-09-02T22:07:24Z</time>
  <course>9.6</course>
  <speed>0.7158910531638176</speed>
  <fix>3d</fix>
</trkpt>
<trkpt lat="33.810137" lon="-118.3940949">
  <ele>-0.11</ele>
  <time>2026-09-02T22:07:24Z</time>
  <course>9.61</course>
  <speed>0.7158910531638176</speed>
  <fix>3d</fix>
</trkpt>
<trkpt lat="33.810137" lon="-118.3940948">
  <ele>-0.11</ele>
  <time>2026-09-02T22:07:24Z</time>
  <course>9.61</course>
  <speed>0.7158910531638176</speed>
  <fix>3d</fix>
</trkpt>
<trkpt lat="33.8101371" lon="-118.3940948">
  <ele>-0.11</ele>
  <time>2026-09-02T22:07:24Z</time>
  <course>9.61</course>
  <speed>0.7158910531638176</speed>
  <fix>3d</fix>
</trkpt>
<trkpt lat="33.8101371" lon="-118.3940948">
  <ele>-0.11</ele>
  <time>2026-09-02T22:07:24Z</time>
  <course>9.61</course>
  <speed>0.7158910531638176</speed>
  <fix>3d</fix>
</trkpt>
<trkpt lat="33.8101371" lon="-118.3940947">
  <ele>-0.11</ele>
  <time>2026-09-02T22:07:24Z</time>
  <course>9.61</course>
  <speed>0.7158910531638176</speed>
  <fix>3d</fix>
</trkpt>
<trkpt lat="33.8101372" lon="-118.3940947">
  <ele>-0.11</ele>
  <time>2026-09-02T22:07:24Z</time>
  <course>9.61</course>
  <speed>0.7158910531638176</speed>
  <fix>3d</fix>
</trkpt>
<trkpt lat="33.8101372" lon="-118.3940946">
  <ele>-0.11</ele>
  <time>2026-09-02T22:07:24Z</time>
  <course>9.61</course>
  <speed>0.7158910531638176</speed>
  <fix>3d</fix>
</trkpt>
<trkpt lat="33.8101372" lon="-118.3940946">
  <ele>-0.11</ele>
  <time>2026-09-02T22:07:24Z</time>
  <course>9.61</course>
  <speed>0.7158910531638176</speed>
  <fix>3d</fix>
</trkpt>
<trkpt lat="33.8101373" lon="-118.3940945">
  <ele>-0.11</ele>
  <time>2026-09-02T22:07:24Z</time>
  <course>9.61</course>
  <speed>0.7158910531638176</speed>
  <fix>3d</fix>
</trkpt>
<trkpt lat="33.8101373" lon="-118.3940945">
  <ele>-0.11</ele>
  <time>2026-09-02T22:07:24Z</time>
  <course>9.61</course>
  <speed>0.7158910531638176</speed>
  <fix>3d</fix>
</trkpt>
<trkpt lat="33.8101373" lon="-118.3940944">
  <ele>-0.11</ele>
  <time>2026-09-02T22:07:24Z</time>
  <course>9.61</course>
  <speed>0.7158910531638176</speed>
  <fix>3d</fix>
</trkpt>
<trkpt lat="33.8101374" lon="-118.3940944">
  <ele>-0.11</ele>
  <time>2026-09-02T22:07:24Z</time>
  <course>9.62</course>
  <speed>0.7158910531638176</speed>
  <fix>3d</fix>
</trkpt>
<trkpt lat="33.810137" lon="-118.3940954">
  <ele>-0.11</ele>
  <time>2026-09-02T22:07:24Z</time>
  <course>46.44</course>
  <speed>0.73</speed>
  <fix>3d</fix>
</trkpt>
<trkpt lat="33.8101374" lon="-118.3940944">
  <ele>-0.11</ele>
  <time>2026-09-02T22:07:24Z</time>
  <course>9.62</course>
  <speed>0.7158910531638176</speed>
  <fix>3d</fix>
</trkpt>
<trkpt lat="33.8101374" lon="-118.3940943">
  <ele>-0.11</ele>
  <time>2026-09-02T22:07:24Z</time>
  <course>9.62</course>
  <speed>0.7158910531638176</speed>
  <fix>3d</fix>
</trkpt>
<trkpt lat="33.8101375" lon="-118.3940943">
  <ele>-0.11</ele>
  <time>2026-09-02T22:07:24Z</time>
  <course>9.62</course>
  <speed>0.7158910531638176</speed>
  <fix>3d</fix>
</trkpt>
<trkpt lat="33.8101375" lon="-118.3940942">
  <ele>-0.11</ele>
  <time>2026-09-02T22:07:24Z</time>
  <course>9.62</course>
  <speed>0.7158910531638176</speed>
  <fix>3d</fix>
</trkpt>
<trkpt lat="33.8101376" lon="-118.3940941">
  <ele>-0.11</ele>
  <time>2026-09-02T22:07:24Z</time>
  <course>9.62</course>
  <speed>0.7158910531638176</speed>
  <fix>3d</fix>
</trkpt>
<trkpt lat="33.8101376" lon="-118.3940941">
  <ele>-0.11</ele>
  <time>2026-09-02T22:07:24Z</time>
  <course>9.62</course>
  <speed>0.7158910531638176</speed>
  <fix>3d</fix>
</trkpt>
<trkpt lat="33.8101376" lon="-118.3940941">
  <ele>-0.11</ele>
  <time>2026-09-02T22:07:24Z</time>
  <course>9.62</course>
  <speed>0.7158910531638176</speed>
  <fix>3d</fix>
</trkpt>
<trkpt lat="33.8101377" lon="-118.394094">
  <ele>-0.11</ele>
  <time>2026-09-02T22:07:24Z</time>
  <course>9.62</course>
  <speed>0.7158910531638176</speed>
  <fix>3d</fix>
</trkpt>
<trkpt lat="33.8101377" lon="-118.394094">
  <ele>-0.11</ele>
  <time>2026-09-02T22:07:24Z</time>
  <course>9.62</course>
  <speed>0.7158910531638176</speed>
  <fix>3d</fix>
</trkpt>
<trkpt lat="33.8101378" lon="-118.3940939">
  <ele>-0.109</ele>
  <time>2026-09-02T22:07:24Z</time>
  <course>9.62</course>
  <speed>0.7158910531638176</speed>
  <fix>3d</fix>
</trkpt>
<trkpt lat="33.8101378" lon="-118.3940939">
  <ele>-0.109</ele>
  <time>2026-09-02T22:07:24Z</time>
  <course>9.63</course>
  <speed>0.7158910531638176</speed>
  <fix>3d</fix>
</trkpt>
<trkpt lat="33.8101378" lon="-118.3940938">
  <ele>-0.109</ele>
  <time>2026-09-02T22:07:24Z</time>
  <course>9.63</course>
  <speed>0.7158910531638176</speed>
  <fix>3d</fix>
</trkpt>
<trkpt lat="33.8101378" lon="-118.3940938">
  <ele>-0.109</ele>
  <time>2026-09-02T22:07:24Z</time>
  <course>9.63</course>
  <speed>0.7158910531638176</speed>
  <fix>3d</fix>
</trkpt>
<trkpt lat="33.810137" lon="-118.3940954">
  <ele>-0.11</ele>
  <time>2026-09-02T22:07:24Z</time>
  <course>46.44</course>
  <speed>0.73</speed>
  <fix>3d</fix>
</trkpt>
<trkpt lat="33.8101379" lon="-118.3940937">
  <ele>-0.109</ele>
  <time>2026-09-02T22:07:24Z</time>
  <course>9.63</course>
  <speed>0.7158910531638176</speed>
  <fix>3d</fix>
</trkpt>
<trkpt lat="33.8101379" lon="-118.3940937">
  <ele>-0.109</ele>
  <time>2026-09-02T22:07:24Z</time>
  <course>9.63</course>
  <speed>0.7158910531638176</speed>
  <fix>3d</fix>
</trkpt>
<trkpt lat="33.810138" lon="-118.3940936">
  <ele>-0.109</ele>
  <time>2026-09-02T22:07:24Z</time>
  <course>9.63</course>
  <speed>0.7158910531638176</speed>
  <fix>3d</fix>
</trkpt>
<trkpt lat="33.810138" lon="-118.3940936">
  <ele>-0.109</ele>
  <time>2026-09-02T22:07:24Z</time>
  <course>9.63</course>
  <speed>0.7158910531638176</speed>
  <fix>3d</fix>
</trkpt>
<trkpt lat="33.8101381" lon="-118.3940935">
  <ele>-0.109</ele>
  <time>2026-09-02T22:07:24Z</time>
  <course>9.63</course>
  <speed>0.7158910531638176</speed>
  <fix>3d</fix>
</trkpt>
<trkpt lat="33.8101381" lon="-118.3940935">
  <ele>-0.109</ele>
  <time>2026-09-02T22:07:24Z</time>
  <course>9.63</course>
  <speed>0.7158910531638176</speed>
  <fix>3d</fix>
</trkpt>
<trkpt lat="33.8101382" lon="-118.3940934">
  <ele>-0.108</ele>
  <time>2026-09-02T22:07:24Z</time>
  <course>9.63</course>
  <speed>0.7158910531638176</speed>
  <fix>3d</fix>
</trkpt>
<trkpt lat="33.8101382" lon="-118.3940934">
  <ele>-0.108</ele>
  <time>2026-09-02T22:07:24Z</time>
  <course>9.64</course>
  <speed>0.7158910531638176</speed>
  <fix>3d</fix>
</trkpt>
<trkpt lat="33.8101382" lon="-118.3940933">
  <ele>-0.108</ele>
  <time>2026-09-02T22:07:24Z</time>
  <course>9.64</course>
  <speed>0.7158910531638176</speed>
  <fix>3d</fix>
</trkpt>
<trkpt lat="33.8101383" lon="-118.3940933">
  <ele>-0.108</ele>
  <time>2026-09-02T22:07:24Z</time>
  <course>9.64</course>
  <speed>0.7158910531638176</speed>
  <fix>3d</fix>
</trkpt>
<trkpt lat="33.8101383" lon="-118.3940933">
  <ele>-0.108</ele>
  <time>2026-09-02T22:07:24Z</time>
  <course>9.64</course>
  <speed>0.7158910531638176</speed>
  <fix>3d</fix>
</trkpt>
<trkpt lat="33.8101379" lon="-118.3940943">
  <ele>-0.1</ele>
  <time>2026-09-02T22:07:24Z</time>
  <course>46.47</course>
  <speed>0.73</speed>
  <fix>3d</fix>
</trkpt>
<trkpt lat="33.8101383" lon="-118.3940932">
  <ele>-0.108</ele>
  <time>2026-09-02T22:07:24Z</time>
  <course>9.64</course>
  <speed>0.7158910531638176</speed>
  <fix>3d</fix>
</trkpt>
<trkpt lat="33.8101384" lon="-118.3940931">
  <ele>-0.108</ele>
  <time>2026-09-02T22:07:24Z</time>
  <course>9.64</course>
  <speed>0.7158910531638176</speed>
  <fix>3d</fix>
</trkpt>
<trkpt lat="33.8101384" lon="-118.3940931">
  <ele>-0.108</ele>
  <time>2026-09-02T22:07:24Z</time>
  <course>9.64</course>
  <speed>0.7158910531638176</speed>
  <fix>3d</fix>
</trkpt>
<trkpt lat="33.8101385" lon="-118.394093">
  <ele>-0.107</ele>
  <time>2026-09-02T22:07:24Z</time>
  <course>9.64</course>
  <speed>0.7158910531638176</speed>
  <fix>3d</fix>
</trkpt>
<trkpt lat="33.8101385" lon="-118.394093">
  <ele>-0.107</ele>
  <time>2026-09-02T22:07:24Z</time>
  <course>9.64</course>
  <speed>0.7158910531638176</speed>
  <fix>3d</fix>
</trkpt>
<trkpt lat="33.8101385" lon="-118.394093">
  <ele>-0.107</ele>
  <time>2026-09-02T22:07:24Z</time>
  <course>9.64</course>
  <speed>0.7158910531638176</speed>
  <fix>3d</fix>
</trkpt>
<trkpt lat="33.8101386" lon="-118.3940929">
  <ele>-0.107</ele>
  <time>2026-09-02T22:07:24Z</time>
  <course>9.64</course>
  <speed>0.7158910531638176</speed>
  <fix>3d</fix>
</trkpt>
<trkpt lat="33.8101386" lon="-118.3940929">
  <ele>-0.107</ele>
  <time>2026-09-02T22:07:24Z</time>
  <course>9.64</course>
  <speed>0.7158910531638176</speed>
  <fix>3d</fix>
</trkpt>
<trkpt lat="33.8101386" lon="-118.3940928">
  <ele>-0.107</ele>
  <time>2026-09-02T22:07:24Z</time>
  <course>9.65</course>
  <speed>0.7158910531638176</speed>
  <fix>3d</fix>
</trkpt>
<trkpt lat="33.8101387" lon="-118.3940928">
  <ele>-0.107</ele>
  <time>2026-09-02T22:07:24Z</time>
  <course>9.65</course>
  <speed>0.7158910531638176</speed>
  <fix>3d</fix>
</trkpt>
<trkpt lat="33.8101387" lon="-118.3940927">
  <ele>-0.107</ele>
  <time>2026-09-02T22:07:24Z</time>
  <course>9.65</course>
  <speed>0.7158910531638176</speed>
  <fix>3d</fix>
</trkpt>
<trkpt lat="33.8101387" lon="-118.3940927">
  <ele>-0.107</ele>
  <time>2026-09-02T22:07:24Z</time>
  <course>9.65</course>
  <speed>0.7158910531638176</speed>
  <fix>3d</fix>
</trkpt>
<trkpt lat="33.8101379" lon="-118.3940943">
  <ele>-0.1</ele>
  <time>2026-09-02T22:07:24Z</time>
  <course>46.47</course>
  <speed>0.73</speed>
  <fix>3d</fix>
</trkpt>
<trkpt lat="33.8101387" lon="-118.3940927">
  <ele>-0.107</ele>
  <time>2026-09-02T22:07:24Z</time>
  <course>9.65</course>
  <speed>0.7158910531638176</speed>
  <fix>3d</fix>
</trkpt>
<trkpt lat="33.8101388" lon="-118.3940926">
  <ele>-0.107</ele>
  <time>2026-09-02T22:07:24Z</time>
  <course>9.65</course>
  <speed>0.7158910531638176</speed>
  <fix>3d</fix>
</trkpt>
<trkpt lat="33.8101388" lon="-118.3940925">
  <ele>-0.107</ele>
  <time>2026-09-02T22:07:24Z</time>
  <course>9.65</course>
  <speed>0.7158910531638176</speed>
  <fix>3d</fix>
</trkpt>
<trkpt lat="33.8101389" lon="-118.3940925">
  <ele>-0.107</ele>
  <time>2026-09-02T22:07:24Z</time>
  <course>9.65</course>
  <speed>0.7158910531638176</speed>
  <fix>3d</fix>
</trkpt>
<trkpt lat="33.8101389" lon="-118.3940924">
  <ele>-0.107</ele>
  <time>2026-09-02T22:07:24Z</time>
  <course>9.65</course>
  <speed>0.7158910531638176</speed>
  <fix>3d</fix>
</trkpt>
<trkpt lat="33.810139" lon="-118.3940924">
  <ele>-0.107</ele>
  <time>2026-09-02T22:07:24Z</time>
  <course>9.65</course>
  <speed>0.7158910531638176</speed>
  <fix>3d</fix>
</trkpt>
<trkpt lat="33.810139" lon="-118.3940924">
  <ele>-0.107</ele>
  <time>2026-09-02T22:07:24Z</time>
  <course>9.65</course>
  <speed>0.7158910531638176</speed>
  <fix>3d</fix>
</trkpt>
<trkpt lat="33.810139" lon="-118.3940923">
  <ele>-0.107</ele>
  <time>2026-09-02T22:07:24Z</time>
  <course>9.65</course>
  <speed>0.7158910531638176</speed>
  <fix>3d</fix>
</trkpt>
<trkpt lat="33.8101391" lon="-118.3940923">
  <ele>-0.107</ele>
  <time>2026-09-02T22:07:24Z</time>
  <course>9.66</course>
  <speed>0.7158910531638176</speed>
  <fix>3d</fix>
</trkpt>
<trkpt lat="33.8101391" lon="-118.3940922">
  <ele>-0.107</ele>
  <time>2026-09-02T22:07:24Z</time>
  <course>9.66</course>
  <speed>0.7158910531638176</speed>
  <fix>3d</fix>
</trkpt>
<trkpt lat="33.8101392" lon="-118.3940921">
  <ele>-0.108</ele>
  <time>2026-09-02T22:07:24Z</time>
  <course>9.66</course>
  <speed>0.7158910531638176</speed>
  <fix>3d</fix>
</trkpt>
<trkpt lat="33.8101392" lon="-118.3940921">
  <ele>-0.108</ele>
  <time>2026-09-02T22:07:24Z</time>
  <course>9.66</course>
  <speed>0.7158910531638176</speed>
  <fix>3d</fix>
</trkpt>
<trkpt lat="33.8101388" lon="-118.3940931">
  <ele>-0.1</ele>
  <time>2026-09-02T22:07:24Z</time>
  <course>46.49</course>
  <speed>0.73</speed>
  <fix>3d</fix>
</trkpt>
<trkpt lat="33.8101392" lon="-118.3940921">
  <ele>-0.108</ele>
  <time>2026-09-02T22:07:24Z</time>
  <course>9.66</course>
  <speed>0.7158910531638176</speed>
  <fix>3d</fix>
</trkpt>
<trkpt lat="33.8101393" lon="-118.3940919">
  <ele>-0.108</ele>
  <time>2026-09-02T22:07:24Z</time>
  <course>9.66</course>
  <speed>0.7158910531638176</speed>
  <fix>3d</fix>
</trkpt>
<trkpt lat="33.8101394" lon="-118.3940919">
  <ele>-0.108</ele>
  <time>2026-09-02T22:07:24Z</time>
  <course>9.66</course>
  <speed>0.7158910531638176</speed>
  <fix>3d</fix>
</trkpt>
<trkpt lat="33.8101394" lon="-118.3940918">
  <ele>-0.108</ele>
  <time>2026-09-02T22:07:24Z</time>
  <course>9.66</course>
  <speed>0.7158910531638176</speed>
  <fix>3d</fix>
</trkpt>
<trkpt lat="33.8101394" lon="-118.3940918">
  <ele>-0.108</ele>
  <time>2026-09-02T22:07:24Z</time>
  <course>9.66</course>
  <speed>0.7158910531638176</speed>
  <fix>3d</fix>
</trkpt>
<trkpt lat="33.8101395" lon="-118.3940917">
  <ele>-0.108</ele>
  <time>2026-09-02T22:07:24Z</time>
  <course>9.67</course>
  <speed>0.7158910531638176</speed>
  <fix>3d</fix>
</trkpt>
<trkpt lat="33.8101395" lon="-118.3940917">
  <ele>-0.108</ele>
  <time>2026-09-02T22:07:24Z</time>
  <course>9.67</course>
  <speed>0.7158910531638176</speed>
  <fix>3d</fix>
</trkpt>
<trkpt lat="33.8101396" lon="-118.3940916">
  <ele>-0.108</ele>
  <time>2026-09-02T22:07:24Z</time>
  <course>9.67</course>
  <speed>0.7158910531638176</speed>
  <fix>3d</fix>
</trkpt>
<trkpt lat="33.8101396" lon="-118.3940916">
  <ele>-0.109</ele>
  <time>2026-09-02T22:07:24Z</time>
  <course>9.67</course>
  <speed>0.7158910531638176</speed>
  <fix>3d</fix>
</trkpt>
<trkpt lat="33.8101396" lon="-118.3940915">
  <ele>-0.109</ele>
  <time>2026-09-02T22:07:24Z</time>
  <course>9.67</course>
  <speed>0.7158910531638176</speed>
  <fix>3d</fix>
</trkpt>
<trkpt lat="33.8101397" lon="-118.3940915">
  <ele>-0.109</ele>
  <time>2026-09-02T22:07:24Z</time>
  <course>9.67</course>
  <speed>0.7158910531638176</speed>
  <fix>3d</fix>
</trkpt>
<trkpt lat="33.8101388" lon="-118.3940931">
  <ele>-0.1</ele>
  <time>2026-09-02T22:07:24Z</time>
  <course>46.49</course>
  <speed>0.73</speed>
  <fix>3d</fix>
</trkpt>
<trkpt lat="33.8101397" lon="-118.3940915">
  <ele>-0.109</ele>
  <time>2026-09-02T22:07:24Z</time>
  <course>9.67</course>
  <speed>0.7158910531638176</speed>
  <fix>3d</fix>
</trkpt>
<trkpt lat="33.8101397" lon="-118.3940914">
  <ele>-0.109</ele>
  <time>2026-09-02T22:07:24Z</time>
  <course>9.67</course>
  <speed>0.7158910531638176</speed>
  <fix>3d</fix>
</trkpt>
<trkpt lat="33.8101398" lon="-118.3940914">
  <ele>-0.109</ele>
  <time>2026-09-02T22:07:24Z</time>
  <course>9.67</course>
  <speed>0.7158910531638176</speed>
  <fix>3d</fix>
</trkpt>
<trkpt lat="33.8101398" lon="-118.3940913">
  <ele>-0.109</ele>
  <time>2026-09-02T22:07:24Z</time>
  <course>9.67</course>
  <speed>0.7158910531638176</speed>
  <fix>3d</fix>
</trkpt>
<trkpt lat="33.8101398" lon="-118.3940913">
  <ele>-0.109</ele>
  <time>2026-09-02T22:07:24Z</time>
  <course>9.67</course>
  <speed>0.7158910531638176</speed>
  <fix>3d</fix>
</trkpt>
<trkpt lat="33.8101399" lon="-118.3940912">
  <ele>-0.11</ele>
  <time>2026-09-02T22:07:24Z</time>
  <course>9.67</course>
  <speed>0.7158910531638176</speed>
  <fix>3d</fix>
</trkpt>
<trkpt lat="33.8101399" lon="-118.3940912">
  <ele>-0.11</ele>
  <time>2026-09-02T22:07:24Z</time>
  <course>9.68</course>
  <speed>0.7158910531638176</speed>
  <fix>3d</fix>
</trkpt>
<trkpt lat="33.81014" lon="-118.3940911">
  <ele>-0.11</ele>
  <time>2026-09-02T22:07:24Z</time>
  <course>9.68</course>
  <speed>0.7158910531638176</speed>
  <fix>3d</fix>
</trkpt>
<trkpt lat="33.81014" lon="-118.3940911">
  <ele>-0.11</ele>
  <time>2026-09-02T22:07:24Z</time>
  <course>9.68</course>
  <speed>0.7158910531638176</speed>
  <fix>3d</fix>
</trkpt>
<trkpt lat="33.81014" lon="-118.394091">
  <ele>-0.11</ele>
  <time>2026-09-02T22:07:24Z</time>
  <course>9.68</course>
  <speed>0.7158910531638176</speed>
  <fix>3d</fix>
</trkpt>
<trkpt lat="33.8101401" lon="-118.394091">
  <ele>-0.11</ele>
  <time>2026-09-02T22:07:24Z</time>
  <course>9.68</course>
  <speed>0.7158910531638176</speed>
  <fix>3d</fix>
</trkpt>
<trkpt lat="33.8101401" lon="-118.394091">
  <ele>-0.11</ele>
  <time>2026-09-02T22:07:24Z</time>
  <course>9.68</course>
  <speed>0.7158910531638176</speed>
  <fix>3d</fix>
</trkpt>
<trkpt lat="33.8101401" lon="-118.3940909">
  <ele>-0.11</ele>
  <time>2026-09-02T22:07:24Z</time>
  <course>9.68</course>
  <speed>0.7158910531638176</speed>
  <fix>3d</fix>
</trkpt>
<trkpt lat="33.8101397" lon="-118.394092">
  <ele>-0.1</ele>
  <time>2026-09-02T22:07:24Z</time>
  <course>46.51</course>
  <speed>0.73</speed>
  <fix>3d</fix>
</trkpt>
<trkpt lat="33.8101401" lon="-118.3940909">
  <ele>-0.11</ele>
  <time>2026-09-02T22:07:24Z</time>
  <course>9.68</course>
  <speed>0.7158910531638176</speed>
  <fix>3d</fix>
</trkpt>
<trkpt lat="33.8101402" lon="-118.3940909">
  <ele>-0.111</ele>
  <time>2026-09-02T22:07:24Z</time>
  <course>9.68</course>
  <speed>0.7158910531638176</speed>
  <fix>3d</fix>
</trkpt>
<trkpt lat="33.8101402" lon="-118.3940908">
  <ele>-0.111</ele>
  <time>2026-09-02T22:07:24Z</time>
  <course>9.68</course>
  <speed>0.7158910531638176</speed>
  <fix>3d</fix>
</trkpt>
<trkpt lat="33.8101403" lon="-118.3940908">
  <ele>-0.111</ele>
  <time>2026-09-02T22:07:24Z</time>
  <course>9.68</course>
  <speed>0.7158910531638176</speed>
  <fix>3d</fix>
</trkpt>
<trkpt lat="33.8101403" lon="-118.3940907">
  <ele>-0.111</ele>
  <time>2026-09-02T22:07:24Z</time>
  <course>9.68</course>
  <speed>0.7158910531638176</speed>
  <fix>3d</fix>
</trkpt>
<trkpt lat="33.8101403" lon="-118.3940907">
  <ele>-0.111</ele>
  <time>2026-09-02T22:07:24Z</time>
  <course>9.69</course>
  <speed>0.7158910531638176</speed>
  <fix>3d</fix>
</trkpt>
<trkpt lat="33.8101404" lon="-118.3940906">
  <ele>-0.112</ele>
  <time>2026-09-02T22:07:24Z</time>
  <course>9.69</course>
  <speed>0.7158910531638176</speed>
  <fix>3d</fix>
</trkpt>
<trkpt lat="33.8101404" lon="-118.3940906">
  <ele>-0.112</ele>
  <time>2026-09-02T22:07:24Z</time>
  <course>9.69</course>
  <speed>0.7158910531638176</speed>
  <fix>3d</fix>
</trkpt>
<trkpt lat="33.8101404" lon="-118.3940905">
  <ele>-0.112</ele>
  <time>2026-09-02T22:07:24Z</time>
  <course>9.69</course>
  <speed>0.7158910531638176</speed>
  <fix>3d</fix>
</trkpt>
<trkpt lat="33.8101405" lon="-118.3940905">
  <ele>-0.112</ele>
  <time>2026-09-02T22:07:24Z</time>
  <course>9.69</course>
  <speed>0.7158910531638176</speed>
  <fix>3d</fix>
</trkpt>
<trkpt lat="33.8101405" lon="-118.3940904">
  <ele>-0.112</ele>
  <time>2026-09-02T22:07:24Z</time>
  <course>9.69</course>
  <speed>0.7158910531638176</speed>
  <fix>3d</fix>
</trkpt>
<trkpt lat="33.8101405" lon="-118.3940904">
  <ele>-0.112</ele>
  <time>2026-09-02T22:07:24Z</time>
  <course>9.69</course>
  <speed>0.7158910531638176</speed>
  <fix>3d</fix>
</trkpt>
<trkpt lat="33.8101406" lon="-118.3940904">
  <ele>-0.112</ele>
  <time>2026-09-02T22:07:24Z</time>
  <course>9.69</course>
  <speed>0.7158910531638176</speed>
  <fix>3d</fix>
</trkpt>
<trkpt lat="33.8101397" lon="-118.394092">
  <ele>-0.1</ele>
  <time>2026-09-02T22:07:24Z</time>
  <course>46.51</course>
  <speed>0.73</speed>
  <fix>3d</fix>
</trkpt>
<trkpt lat="33.8101406" lon="-118.3940904">
  <ele>-0.112</ele>
  <time>2026-09-02T22:07:24Z</time>
  <course>9.69</course>
  <speed>0.7158910531638176</speed>
  <fix>3d</fix>
</trkpt>
<trkpt lat="33.8101406" lon="-118.3940903">
  <ele>-0.113</ele>
  <time>2026-09-02T22:07:24Z</time>
  <course>9.69</course>
  <speed>0.7158910531638176</speed>
  <fix>3d</fix>
</trkpt>
<trkpt lat="33.8101407" lon="-118.3940902">
  <ele>-0.113</ele>
  <time>2026-09-02T22:07:24Z</time>
  <course>9.69</course>
  <speed>0.7158910531638176</speed>
  <fix>3d</fix>
</trkpt>
<trkpt lat="33.8101407" lon="-118.3940901">
  <ele>-0.113</ele>
  <time>2026-09-02T22:07:24Z</time>
  <course>9.69</course>
  <speed>0.7158910531638176</speed>
  <fix>3d</fix>
</trkpt>
<trkpt lat="33.8101408" lon="-118.3940901">
  <ele>-0.114</ele>
  <time>2026-09-02T22:07:24Z</time>
  <course>9.7</course>
  <speed>0.7158910531638176</speed>
  <fix>3d</fix>
</trkpt>
<trkpt lat="33.8101408" lon="-118.39409">
  <ele>-0.114</ele>
  <time>2026-09-02T22:07:24Z</time>
  <course>9.7</course>
  <speed>0.7158910531638176</speed>
  <fix>3d</fix>
</trkpt>
<trkpt lat="33.8101409" lon="-118.39409">
  <ele>-0.114</ele>
  <time>2026-09-02T22:07:24Z</time>
  <course>9.7</course>
  <speed>0.7158910531638176</speed>
  <fix>3d</fix>
</trkpt>
<trkpt lat="33.8101409" lon="-118.39409">
  <ele>-0.114</ele>
  <time>2026-09-02T22:07:24Z</time>
  <course>9.7</course>
  <speed>0.7158910531638176</speed>
  <fix>3d</fix>
</trkpt>
<trkpt lat="33.8101409" lon="-118.3940899">
  <ele>-0.114</ele>
  <time>2026-09-02T22:07:24Z</time>
  <course>9.7</course>
  <speed>0.7158910531638176</speed>
  <fix>3d</fix>
</trkpt>
<trkpt lat="33.810141" lon="-118.3940899">
  <ele>-0.115</ele>
  <time>2026-09-02T22:07:24Z</time>
  <course>9.7</course>
  <speed>0.7158910531638176</speed>
  <fix>3d</fix>
</trkpt>
<trkpt lat="33.810141" lon="-118.3940898">
  <ele>-0.115</ele>
  <time>2026-09-02T22:07:24Z</time>
  <course>9.7</course>
  <speed>0.7158910531638176</speed>
  <fix>3d</fix>
</trkpt>
<trkpt lat="33.810141" lon="-118.3940898">
  <ele>-0.115</ele>
  <time>2026-09-02T22:07:24Z</time>
  <course>9.7</course>
  <speed>0.7158910531638176</speed>
  <fix>3d</fix>
</trkpt>
<trkpt lat="33.8101406" lon="-118.3940907">
  <ele>-0.1</ele>
  <time>2026-09-02T22:07:24Z</time>
  <course>46.53</course>
  <speed>0.73</speed>
  <fix>3d</fix>
</trkpt>
<trkpt lat="33.810141" lon="-118.3940898">
  <ele>-0.115</ele>
  <time>2026-09-02T22:07:24Z</time>
  <course>9.7</course>
  <speed>0.7158910531638176</speed>
  <fix>3d</fix>
</trkpt>
<trkpt lat="33.8101411" lon="-118.3940897">
  <ele>-0.115</ele>
  <time>2026-09-02T22:07:24Z</time>
  <course>9.7</course>
  <speed>0.7158910531638176</speed>
  <fix>3d</fix>
</trkpt>
<trkpt lat="33.8101411" lon="-118.3940896">
  <ele>-0.115</ele>
  <time>2026-09-02T22:07:24Z</time>
  <course>9.7</course>
  <speed>0.7158910531638176</speed>
  <fix>3d</fix>
</trkpt>
<trkpt lat="33.8101412" lon="-118.3940896">
  <ele>-0.116</ele>
  <time>2026-09-02T22:07:24Z</time>
  <course>9.7</course>
  <speed>0.7158910531638176</speed>
  <fix>3d</fix>
</trkpt>
<trkpt lat="33.8101412" lon="-118.3940895">
  <ele>-0.116</ele>
  <time>2026-09-02T22:07:24Z</time>
  <course>9.71</course>
  <speed>0.7158910531638176</speed>
  <fix>3d</fix>
</trkpt>
<trkpt lat="33.8101413" lon="-118.3940895">
  <ele>-0.116</ele>
  <time>2026-09-02T22:07:24Z</time>
  <course>9.71</course>
  <speed>0.7158910531638176</speed>
  <fix>3d</fix>
</trkpt>
<trkpt lat="33.8101413" lon="-118.3940894">
  <ele>-0.116</ele>
  <time>2026-09-02T22:07:24Z</time>
  <course>9.71</course>
  <speed>0.7158910531638176</speed>
  <fix>3d</fix>
</trkpt>
<trkpt lat="33.8101413" lon="-118.3940894">
  <ele>-0.116</ele>
  <time>2026-09-02T22:07:24Z</time>
  <course>9.71</course>
  <speed>0.7158910531638176</speed>
  <fix>3d</fix>
</trkpt>
<trkpt lat="33.8101414" lon="-118.3940894">
  <ele>-0.116</ele>
  <time>2026-09-02T22:07:24Z</time>
  <course>9.71</course>
  <speed>0.7158910531638176</speed>
  <fix>3d</fix>
</trkpt>
<trkpt lat="33.8101414" lon="-118.3940893">
  <ele>-0.117</ele>
  <time>2026-09-02T22:07:24Z</time>
  <course>9.71</course>
  <speed>0.7158910531638176</speed>
  <fix>3d</fix>
</trkpt>
<trkpt lat="33.8101415" lon="-118.3940892">
  <ele>-0.117</ele>
  <time>2026-09-02T22:07:24Z</time>
  <course>9.71</course>
  <speed>0.7158910531638176</speed>
  <fix>3d</fix>
</trkpt>
<trkpt lat="33.8101415" lon="-118.3940892">
  <ele>-0.117</ele>
  <time>2026-09-02T22:07:24Z</time>
  <course>9.71</course>
  <speed>0.7158910531638176</speed>
  <fix>3d</fix>
</trkpt>
<trkpt lat="33.8101406" lon="-118.3940907">
  <ele>-0.1</ele>
  <time>2026-09-02T22:07:24Z</time>
  <course>46.53</course>
  <speed>0.73</speed>
  <fix>3d</fix>
</trkpt>
<trkpt lat="33.8101415" lon="-118.3940892">
  <ele>-0.117</ele>
  <time>2026-09-02T22:07:24Z</time>
  <course>9.71</course>
  <speed>0.7158910531638176</speed>
  <fix>3d</fix>
</trkpt>
<trkpt lat="33.8101415" lon="-118.3940891">
  <ele>-0.117</ele>
  <time>2026-09-02T22:07:24Z</time>
  <course>9.71</course>
  <speed>0.7234638899074369</speed>
  <fix>3d</fix>
</trkpt>
<trkpt lat="33.8101416" lon="-118.3940891">
  <ele>-0.117</ele>
  <time>2026-09-02T22:07:24Z</time>
  <course>9.71</course>
  <speed>0.7234638899074369</speed>
  <fix>3d</fix>
</trkpt>
<trkpt lat="33.8101416" lon="-118.394089">
  <ele>-0.117</ele>
  <time>2026-09-02T22:07:24Z</time>
  <course>9.71</course>
  <speed>0.7234638899074369</speed>
  <fix>3d</fix>
</trkpt>
<trkpt lat="33.8101417" lon="-118.394089">
  <ele>-0.117</ele>
  <time>2026-09-02T22:07:24Z</time>
  <course>9.72</course>
  <speed>0.7234638899074369</speed>
  <fix>3d</fix>
</trkpt>
<trkpt lat="33.8101417" lon="-118.3940889">
  <ele>-0.118</ele>
  <time>2026-09-02T22:07:24Z</time>
  <course>9.72</course>
  <speed>0.7234638899074369</speed>
  <fix>3d</fix>
</trkpt>
<trkpt lat="33.8101417" lon="-118.3940889">
  <ele>-0.118</ele>
  <time>2026-09-02T22:07:24Z</time>
  <course>9.72</course>
  <speed>0.7234638899074369</speed>
  <fix>3d</fix>
</trkpt>
<trkpt lat="33.8101418" lon="-118.3940888">
  <ele>-0.118</ele>
  <time>2026-09-02T22:07:24Z</time>
  <course>9.72</course>
  <speed>0.7234638899074369</speed>
  <fix>3d</fix>
</trkpt>
<trkpt lat="33.8101418" lon="-118.3940888">
  <ele>-0.118</ele>
  <time>2026-09-02T22:07:24Z</time>
  <course>9.72</course>
  <speed>0.7234638899074369</speed>
  <fix>3d</fix>
</trkpt>
<trkpt lat="33.8101418" lon="-118.3940887">
  <ele>-0.118</ele>
  <time>2026-09-02T22:07:24Z</time>
  <course>9.72</course>
  <speed>0.7234638899074369</speed>
  <fix>3d</fix>
</trkpt>
<trkpt lat="33.8101419" lon="-118.3940887">
  <ele>-0.118</ele>
  <time>2026-09-02T22:07:24Z</time>
  <course>9.72</course>
  <speed>0.7234638899074369</speed>
  <fix>3d</fix>
</trkpt>
<trkpt lat="33.8101419" lon="-118.3940886">
  <ele>-0.119</ele>
  <time>2026-09-02T22:07:24Z</time>
  <course>9.72</course>
  <speed>0.7234638899074369</speed>
  <fix>3d</fix>
</trkpt>
<trkpt lat="33.8101419" lon="-118.3940886">
  <ele>-0.119</ele>
  <time>2026-09-02T22:07:24Z</time>
  <course>9.72</course>
  <speed>0.7234638899074369</speed>
  <fix>3d</fix>
</trkpt>
<trkpt lat="33.8101415" lon="-118.3940896">
  <ele>-0.11</ele>
  <time>2026-09-02T22:07:24Z</time>
  <course>46.55</course>
  <speed>0.73</speed>
  <fix>3d</fix>
</trkpt>
<trkpt lat="33.8101419" lon="-118.3940886">
  <ele>-0.119</ele>
  <time>2026-09-02T22:07:24Z</time>
  <course>9.72</course>
  <speed>0.7234638899074369</speed>
  <fix>3d</fix>
</trkpt>
<trkpt lat="33.810142" lon="-118.3940885">
  <ele>-0.119</ele>
  <time>2026-09-02T22:07:24Z</time>
  <course>9.72</course>
  <speed>0.7234638899074369</speed>
  <fix>3d</fix>
</trkpt>
<trkpt lat="33.810142" lon="-118.3940885">
  <ele>-0.119</ele>
  <time>2026-09-02T22:07:24Z</time>
  <course>9.72</course>
  <speed>0.7234638899074369</speed>
  <fix>3d</fix>
</trkpt>
<trkpt lat="33.8101421" lon="-118.3940884">
  <ele>-0.119</ele>
  <time>2026-09-02T22:07:24Z</time>
  <course>9.72</course>
  <speed>0.7234638899074369</speed>
  <fix>3d</fix>
</trkpt>
<trkpt lat="33.8101421" lon="-118.3940884">
  <ele>-0.119</ele>
  <time>2026-09-02T22:07:24Z</time>
  <course>9.73</course>
  <speed>0.7234638899074369</speed>
  <fix>3d</fix>
</trkpt>
<trkpt lat="33.8101422" lon="-118.3940883">
  <ele>-0.119</ele>
  <time>2026-09-02T22:07:24Z</time>
  <course>9.73</course>
  <speed>0.7234638899074369</speed>
  <fix>3d</fix>
</trkpt>
<trkpt lat="33.8101422" lon="-118.3940883">
  <ele>-0.119</ele>
  <time>2026-09-02T22:07:24Z</time>
  <course>9.73</course>
  <speed>0.7234638899074369</speed>
  <fix>3d</fix>
</trkpt>
<trkpt lat="33.8101422" lon="-118.3940882">
  <ele>-0.119</ele>
  <time>2026-09-02T22:07:24Z</time>
  <course>9.73</course>
  <speed>0.7234638899074369</speed>
  <fix>3d</fix>
</trkpt>
<trkpt lat="33.8101423" lon="-118.3940882">
  <ele>-0.119</ele>
  <time>2026-09-02T22:07:24Z</time>
  <course>9.73</course>
  <speed>0.7234638899074369</speed>
  <fix>3d</fix>
</trkpt>
<trkpt lat="33.8101423" lon="-118.3940882">
  <ele>-0.119</ele>
  <time>2026-09-02T22:07:24Z</time>
  <course>9.73</course>
  <speed>0.7234638899074369</speed>
  <fix>3d</fix>
</trkpt>
<trkpt lat="33.8101423" lon="-118.3940881">
  <ele>-0.119</ele>
  <time>2026-09-02T22:07:24Z</time>
  <course>9.73</course>
  <speed>0.7234638899074369</speed>
  <fix>3d</fix>
</trkpt>
<trkpt lat="33.8101424" lon="-118.3940881">
  <ele>-0.119</ele>
  <time>2026-09-02T22:07:24Z</time>
  <course>9.73</course>
  <speed>0.7234638899074369</speed>
  <fix>3d</fix>
</trkpt>
<trkpt lat="33.8101424" lon="-118.394088">
  <ele>-0.119</ele>
  <time>2026-09-02T22:07:24Z</time>
  <course>9.73</course>
  <speed>0.7234638899074369</speed>
  <fix>3d</fix>
</trkpt>
<trkpt lat="33.8101415" lon="-118.3940896">
  <ele>-0.11</ele>
  <time>2026-09-02T22:07:24Z</time>
  <course>46.55</course>
  <speed>0.73</speed>
  <fix>3d</fix>
</trkpt>
<trkpt lat="33.8101424" lon="-118.394088">
  <ele>-0.119</ele>
  <time>2026-09-02T22:07:24Z</time>
  <course>9.73</course>
  <speed>0.7234638899074369</speed>
  <fix>3d</fix>
</trkpt>
<trkpt lat="33.8101426" lon="-118.3940878">
  <ele>-0.119</ele>
  <time>2026-09-02T22:07:24Z</time>
  <course>9.74</course>
  <speed>0.7234638899074369</speed>
  <fix>3d</fix>
</trkpt>
<trkpt lat="33.8101426" lon="-118.3940877">
  <ele>-0.118</ele>
  <time>2026-09-02T22:07:24Z</time>
  <course>9.74</course>
  <speed>0.7234638899074369</speed>
  <fix>3d</fix>
</trkpt>
<trkpt lat="33.8101427" lon="-118.3940877">
  <ele>-0.119</ele>
  <time>2026-09-02T22:07:24Z</time>
  <course>9.74</course>
  <speed>0.7234638899074369</speed>
  <fix>3d</fix>
</trkpt>
<trkpt lat="33.8101427" lon="-118.3940876">
  <ele>-0.118</ele>
  <time>2026-09-02T22:07:24Z</time>
  <course>9.74</course>
  <speed>0.7234638899074369</speed>
  <fix>3d</fix>
</trkpt>
<trkpt lat="33.8101428" lon="-118.3940876">
  <ele>-0.118</ele>
  <time>2026-09-02T22:07:24Z</time>
  <course>9.74</course>
  <speed>0.7234638899074369</speed>
  <fix>3d</fix>
</trkpt>
<trkpt lat="33.8101428" lon="-118.3940875">
  <ele>-0.118</ele>
  <time>2026-09-02T22:07:24Z</time>
  <course>9.74</course>
  <speed>0.7234638899074369</speed>
  <fix>3d</fix>
</trkpt>
<trkpt lat="33.8101428" lon="-118.3940875">
  <ele>-0.118</ele>
  <time>2026-09-02T22:07:24Z</time>
  <course>9.74</course>
  <speed>0.7234638899074369</speed>
  <fix>3d</fix>
</trkpt>
<trkpt lat="33.8101428" lon="-118.3940875">
  <ele>-0.118</ele>
  <time>2026-09-02T22:07:24Z</time>
  <course>9.74</course>
  <speed>0.7234638899074369</speed>
  <fix>3d</fix>
</trkpt>
<trkpt lat="33.8101424" lon="-118.3940884">
  <ele>-0.1</ele>
  <time>2026-09-02T22:07:24Z</time>
  <course>46.57</course>
  <speed>0.73</speed>
  <fix>3d</fix>
</trkpt>
<trkpt lat="33.8101429" lon="-118.3940874">
  <ele>-0.118</ele>
  <time>2026-09-02T22:07:24Z</time>
  <course>9.74</course>
  <speed>0.7234638899074369</speed>
  <fix>3d</fix>
</trkpt>
<trkpt lat="33.810143" lon="-118.3940873">
  <ele>-0.118</ele>
  <time>2026-09-02T22:07:24Z</time>
  <course>9.75</course>
  <speed>0.7234638899074369</speed>
  <fix>3d</fix>
</trkpt>
<trkpt lat="33.810143" lon="-118.3940872">
  <ele>-0.118</ele>
  <time>2026-09-02T22:07:24Z</time>
  <course>9.75</course>
  <speed>0.7234638899074369</speed>
  <fix>3d</fix>
</trkpt>
<trkpt lat="33.810143" lon="-118.3940872">
  <ele>-0.117</ele>
  <time>2026-09-02T22:07:24Z</time>
  <course>9.75</course>
  <speed>0.7234638899074369</speed>
  <fix>3d</fix>
</trkpt>
<trkpt lat="33.8101431" lon="-118.3940871">
  <ele>-0.117</ele>
  <time>2026-09-02T22:07:24Z</time>
  <course>9.75</course>
  <speed>0.7234638899074369</speed>
  <fix>3d</fix>
</trkpt>
<trkpt lat="33.8101431" lon="-118.3940871">
  <ele>-0.117</ele>
  <time>2026-09-02T22:07:24Z</time>
  <course>9.75</course>
  <speed>0.7234638899074369</speed>
  <fix>3d</fix>
</trkpt>
<trkpt lat="33.8101432" lon="-118.3940871">
  <ele>-0.117</ele>
  <time>2026-09-02T22:07:24Z</time>
  <course>9.75</course>
  <speed>0.7234638899074369</speed>
  <fix>3d</fix>
</trkpt>
<trkpt lat="33.8101432" lon="-118.394087">
  <ele>-0.117</ele>
  <time>2026-09-02T22:07:24Z</time>
  <course>9.75</course>
  <speed>0.7234638899074369</speed>
  <fix>3d</fix>
</trkpt>
<trkpt lat="33.8101432" lon="-118.394087">
  <ele>-0.116</ele>
  <time>2026-09-02T22:07:24Z</time>
  <course>9.75</course>
  <speed>0.7234638899074369</speed>
  <fix>3d</fix>
</trkpt>
<trkpt lat="33.8101433" lon="-118.3940869">
  <ele>-0.116</ele>
  <time>2026-09-02T22:07:24Z</time>
  <course>9.75</course>
  <speed>0.7234638899074369</speed>
  <fix>3d</fix>
</trkpt>
<trkpt lat="33.8101433" lon="-118.3940869">
  <ele>-0.116</ele>
  <time>2026-09-02T22:07:24Z</time>
  <course>9.75</course>
  <speed>0.7234638899074369</speed>
  <fix>3d</fix>
</trkpt>
<trkpt lat="33.8101424" lon="-118.3940884">
  <ele>-0.1</ele>
  <time>2026-09-02T22:07:24Z</time>
  <course>46.57</course>
  <speed>0.73</speed>
  <fix>3d</fix>
</trkpt>
<trkpt lat="33.8101433" lon="-118.3940869">
  <ele>-0.116</ele>
  <time>2026-09-02T22:07:24Z</time>
  <course>9.75</course>
  <speed>0.7234638899074369</speed>
  <fix>3d</fix>
</trkpt>
<trkpt lat="33.8101434" lon="-118.3940868">
  <ele>-0.116</ele>
  <time>2026-09-02T22:07:24Z</time>
  <course>9.75</course>
  <speed>0.7234638899074369</speed>
  <fix>3d</fix>
</trkpt>
<trkpt lat="33.8101434" lon="-118.3940867">
  <ele>-0.116</ele>
  <time>2026-09-02T22:07:24Z</time>
  <course>9.76</course>
  <speed>0.7234638899074369</speed>
  <fix>3d</fix>
</trkpt>
<trkpt lat="33.8101434" lon="-118.3940867">
  <ele>-0.115</ele>
  <time>2026-09-02T22:07:24Z</time>
  <course>9.76</course>
  <speed>0.7234638899074369</speed>
  <fix>3d</fix>
</trkpt>
<trkpt lat="33.8101435" lon="-118.3940866">
  <ele>-0.116</ele>
  <time>2026-09-02T22:07:24Z</time>
  <course>9.76</course>
  <speed>0.7234638899074369</speed>
  <fix>3d</fix>
</trkpt>
<trkpt lat="33.8101435" lon="-118.3940866">
  <ele>-0.115</ele>
  <time>2026-09-02T22:07:24Z</time>
  <course>9.76</course>
  <speed>0.7234638899074369</speed>
  <fix>3d</fix>
</trkpt>
<trkpt lat="33.8101435" lon="-118.3940866">
  <ele>-0.115</ele>
  <time>2026-09-02T22:07:24Z</time>
  <course>9.76</course>
  <speed>0.7234638899074369</speed>
  <fix>3d</fix>
</trkpt>
<trkpt lat="33.8101436" lon="-118.3940865">
  <ele>-0.115</ele>
  <time>2026-09-02T22:07:24Z</time>
  <course>9.76</course>
  <speed>0.7234638899074369</speed>
  <fix>3d</fix>
</trkpt>
<trkpt lat="33.8101436" lon="-118.3940865">
  <ele>-0.114</ele>
  <time>2026-09-02T22:07:24Z</time>
  <course>9.76</course>
  <speed>0.7234638899074369</speed>
  <fix>3d</fix>
</trkpt>
<trkpt lat="33.8101437" lon="-118.3940864">
  <ele>-0.114</ele>
  <time>2026-09-02T22:07:24Z</time>
  <course>9.76</course>
  <speed>0.7234638899074369</speed>
  <fix>3d</fix>
</trkpt>
<trkpt lat="33.8101437" lon="-118.3940864">
  <ele>-0.114</ele>
  <time>2026-09-02T22:07:24Z</time>
  <course>9.76</course>
  <speed>0.7234638899074369</speed>
  <fix>3d</fix>
</trkpt>
<trkpt lat="33.8101437" lon="-118.3940863">
  <ele>-0.114</ele>
  <time>2026-09-02T22:07:24Z</time>
  <course>9.76</course>
  <speed>0.7234638899074369</speed>
  <fix>3d</fix>
</trkpt>
<trkpt lat="33.8101437" lon="-118.3940863">
  <ele>-0.114</ele>
  <time>2026-09-02T22:07:24Z</time>
  <course>9.76</course>
  <speed>0.7234638899074369</speed>
  <fix>3d</fix>
</trkpt>
<trkpt lat="33.8101433" lon="-118.3940873">
  <ele>-0.1</ele>
  <time>2026-09-02T22:07:24Z</time>
  <course>46.59</course>
  <speed>0.73</speed>
  <fix>3d</fix>
</trkpt>
<trkpt lat="33.8101438" lon="-118.3940862">
  <ele>-0.114</ele>
  <time>2026-09-02T22:07:24Z</time>
  <course>9.76</course>
  <speed>0.7234638899074369</speed>
  <fix>3d</fix>
</trkpt>
<trkpt lat="33.8101439" lon="-118.3940862">
  <ele>-0.113</ele>
  <time>2026-09-02T22:07:24Z</time>
  <course>9.77</course>
  <speed>0.7234638899074369</speed>
  <fix>3d</fix>
</trkpt>
<trkpt lat="33.8101439" lon="-118.3940861">
  <ele>-0.113</ele>
  <time>2026-09-02T22:07:24Z</time>
  <course>9.77</course>
  <speed>0.7234638899074369</speed>
  <fix>3d</fix>
</trkpt>
<trkpt lat="33.8101439" lon="-118.394086">
  <ele>-0.112</ele>
  <time>2026-09-02T22:07:24Z</time>
  <course>9.77</course>
  <speed>0.7234638899074369</speed>
  <fix>3d</fix>
</trkpt>
<trkpt lat="33.810144" lon="-118.394086">
  <ele>-0.113</ele>
  <time>2026-09-02T22:07:24Z</time>
  <course>9.77</course>
  <speed>0.7234638899074369</speed>
  <fix>3d</fix>
</trkpt>
<trkpt lat="33.810144" lon="-118.3940859">
  <ele>-0.112</ele>
  <time>2026-09-02T22:07:24Z</time>
  <course>9.77</course>
  <speed>0.7234638899074369</speed>
  <fix>3d</fix>
</trkpt>
<trkpt lat="33.8101441" lon="-118.3940859">
  <ele>-0.112</ele>
  <time>2026-09-02T22:07:24Z</time>
  <course>9.77</course>
  <speed>0.7234638899074369</speed>
  <fix>3d</fix>
</trkpt>
<trkpt lat="33.8101441" lon="-118.3940858">
  <ele>-0.112</ele>
  <time>2026-09-02T22:07:24Z</time>
  <course>9.77</course>
  <speed>0.7234638899074369</speed>
  <fix>3d</fix>
</trkpt>
<trkpt lat="33.8101441" lon="-118.3940858">
  <ele>-0.111</ele>
  <time>2026-09-02T22:07:24Z</time>
  <course>9.77</course>
  <speed>0.7234638899074369</speed>
  <fix>3d</fix>
</trkpt>
<trkpt lat="33.8101442" lon="-118.3940858">
  <ele>-0.111</ele>
  <time>2026-09-02T22:07:24Z</time>
  <course>9.77</course>
  <speed>0.7234638899074369</speed>
  <fix>3d</fix>
</trkpt>
<trkpt lat="33.8101442" lon="-118.3940857">
  <ele>-0.111</ele>
  <time>2026-09-02T22:07:24Z</time>
  <course>9.77</course>
  <speed>0.7234638899074369</speed>
  <fix>3d</fix>
</trkpt>
<trkpt lat="33.8101433" lon="-118.3940873">
  <ele>-0.1</ele>
  <time>2026-09-02T22:07:24Z</time>
  <course>46.59</course>
  <speed>0.73</speed>
  <fix>3d</fix>
</trkpt>
<trkpt lat="33.8101442" lon="-118.3940857">
  <ele>-0.111</ele>
  <time>2026-09-02T22:07:24Z</time>
  <course>9.77</course>
  <speed>0.7234638899074369</speed>
  <fix>3d</fix>
</trkpt>
<trkpt lat="33.8101443" lon="-118.3940856">
  <ele>-0.111</ele>
  <time>2026-09-02T22:07:24Z</time>
  <course>9.77</course>
  <speed>0.7234638899074369</speed>
  <fix>3d</fix>
</trkpt>
<trkpt lat="33.8101443" lon="-118.3940856">
  <ele>-0.11</ele>
  <time>2026-09-02T22:07:24Z</time>
  <course>9.78</course>
  <speed>0.7234638899074369</speed>
  <fix>3d</fix>
</trkpt>
<trkpt lat="33.8101443" lon="-118.3940855">
  <ele>-0.11</ele>
  <time>2026-09-02T22:07:24Z</time>
  <course>9.78</course>
  <speed>0.7234638899074369</speed>
  <fix>3d</fix>
</trkpt>
<trkpt lat="33.8101444" lon="-118.3940855">
  <ele>-0.11</ele>
  <time>2026-09-02T22:07:24Z</time>
  <course>9.78</course>
  <speed>0.7234638899074369</speed>
  <fix>3d</fix>
</trkpt>
<trkpt lat="33.8101444" lon="-118.3940854">
  <ele>-0.11</ele>
  <time>2026-09-02T22:07:24Z</time>
  <course>9.78</course>
  <speed>0.7234638899074369</speed>
  <fix>3d</fix>
</trkpt>
<trkpt lat="33.8101444" lon="-118.3940854">
  <ele>-0.11</ele>
  <time>2026-09-02T22:07:24Z</time>
  <course>9.78</course>
  <speed>0.7234638899074369</speed>
  <fix>3d</fix>
</trkpt>
<trkpt lat="33.8101445" lon="-118.3940853">
  <ele>-0.11</ele>
  <time>2026-09-02T22:07:24Z</time>
  <course>9.78</course>
  <speed>0.7234638899074369</speed>
  <fix>3d</fix>
</trkpt>
<trkpt lat="33.8101445" lon="-118.3940853">
  <ele>-0.109</ele>
  <time>2026-09-02T22:07:24Z</time>
  <course>9.78</course>
  <speed>0.7234638899074369</speed>
  <fix>3d</fix>
</trkpt>
<trkpt lat="33.8101446" lon="-118.3940853">
  <ele>-0.109</ele>
  <time>2026-09-02T22:07:24Z</time>
  <course>9.78</course>
  <speed>0.7234638899074369</speed>
  <fix>3d</fix>
</trkpt>
<trkpt lat="33.8101446" lon="-118.3940852">
  <ele>-0.109</ele>
  <time>2026-09-02T22:07:24Z</time>
  <course>9.78</course>
  <speed>0.7234638899074369</speed>
  <fix>3d</fix>
</trkpt>
<trkpt lat="33.8101446" lon="-118.3940852">
  <ele>-0.109</ele>
  <time>2026-09-02T22:07:24Z</time>
  <course>9.78</course>
  <speed>0.7234638899074369</speed>
  <fix>3d</fix>
</trkpt>
<trkpt lat="33.8101446" lon="-118.3940851">
  <ele>-0.109</ele>
  <time>2026-09-02T22:07:24Z</time>
  <course>9.78</course>
  <speed>0.7234638899074369</speed>
  <fix>3d</fix>
</trkpt>
<trkpt lat="33.8101442" lon="-118.3940862">
  <ele>-0.1</ele>
  <time>2026-09-02T22:07:24Z</time>
  <course>46.61</course>
  <speed>0.73</speed>
  <fix>3d</fix>
</trkpt>
<trkpt lat="33.8101447" lon="-118.3940851">
  <ele>-0.109</ele>
  <time>2026-09-02T22:07:24Z</time>
  <course>9.78</course>
  <speed>0.7234638899074369</speed>
  <fix>3d</fix>
</trkpt>
<trkpt lat="33.8101447" lon="-118.3940851">
  <ele>-0.109</ele>
  <time>2026-09-02T22:07:24Z</time>
  <course>9.78</course>
  <speed>0.7234638899074369</speed>
  <fix>3d</fix>
</trkpt>
<trkpt lat="33.8101447" lon="-118.394085">
  <ele>-0.109</ele>
  <time>2026-09-02T22:07:24Z</time>
  <course>9.79</course>
  <speed>0.7234638899074369</speed>
  <fix>3d</fix>
</trkpt>
<trkpt lat="33.8101448" lon="-118.394085">
  <ele>-0.109</ele>
  <time>2026-09-02T22:07:24Z</time>
  <course>9.79</course>
  <speed>0.7234638899074369</speed>
  <fix>3d</fix>
</trkpt>
<trkpt lat="33.8101448" lon="-118.3940849">
  <ele>-0.108</ele>
  <time>2026-09-02T22:07:24Z</time>
  <course>9.79</course>
  <speed>0.7234638899074369</speed>
  <fix>3d</fix>
</trkpt>
<trkpt lat="33.8101448" lon="-118.3940849">
  <ele>-0.108</ele>
  <time>2026-09-02T22:07:24Z</time>
  <course>9.79</course>
  <speed>0.7234638899074369</speed>
  <fix>3d</fix>
</trkpt>
<trkpt lat="33.8101449" lon="-118.3940848">
  <ele>-0.108</ele>
  <time>2026-09-02T22:07:24Z</time>
  <course>9.79</course>
  <speed>0.7234638899074369</speed>
  <fix>3d</fix>
</trkpt>
<trkpt lat="33.8101449" lon="-118.3940848">
  <ele>-0.108</ele>
  <time>2026-09-02T22:07:24Z</time>
  <course>9.79</course>
  <speed>0.7234638899074369</speed>
  <fix>3d</fix>
</trkpt>
<trkpt lat="33.8101449" lon="-118.3940848">
  <ele>-0.108</ele>
  <time>2026-09-02T22:07:24Z</time>
  <course>9.79</course>
  <speed>0.7234638899074369</speed>
  <fix>3d</fix>
</trkpt>
<trkpt lat="33.810145" lon="-118.3940847">
  <ele>-0.108</ele>
  <time>2026-09-02T22:07:24Z</time>
  <course>9.79</course>
  <speed>0.7234638899074369</speed>
  <fix>3d</fix>
</trkpt>
<trkpt lat="33.810145" lon="-118.3940846">
  <ele>-0.108</ele>
  <time>2026-09-02T22:07:24Z</time>
  <course>9.79</course>
  <speed>0.7234638899074369</speed>
  <fix>3d</fix>
</trkpt>
<trkpt lat="33.8101451" lon="-118.3940846">
  <ele>-0.108</ele>
  <time>2026-09-02T22:07:24Z</time>
  <course>9.79</course>
  <speed>0.7234638899074369</speed>
  <fix>3d</fix>
</trkpt>
<trkpt lat="33.8101451" lon="-118.3940846">
  <ele>-0.108</ele>
  <time>2026-09-02T22:07:24Z</time>
  <course>9.79</course>
  <speed>0.7234638899074369</speed>
  <fix>3d</fix>
</trkpt>
<trkpt lat="33.8101442" lon="-118.3940862">
  <ele>-0.1</ele>
  <time>2026-09-02T22:07:24Z</time>
  <course>46.61</course>
  <speed>0.73</speed>
  <fix>3d</fix>
</trkpt>
<trkpt lat="33.8101451" lon="-118.3940846">
  <ele>-0.108</ele>
  <time>2026-09-02T22:07:24Z</time>
  <course>9.79</course>
  <speed>0.7234638899074369</speed>
  <fix>3d</fix>
</trkpt>
<trkpt lat="33.8101452" lon="-118.3940845">
  <ele>-0.107</ele>
  <time>2026-09-02T22:07:24Z</time>
  <course>9.79</course>
  <speed>0.7234638899074369</speed>
  <fix>3d</fix>
</trkpt>
<trkpt lat="33.8101452" lon="-118.3940844">
  <ele>-0.107</ele>
  <time>2026-09-02T22:07:24Z</time>
  <course>9.8</course>
  <speed>0.7234638899074369</speed>
  <fix>3d</fix>
</trkpt>
<trkpt lat="33.8101453" lon="-118.3940843">
  <ele>-0.107</ele>
  <time>2026-09-02T22:07:24Z</time>
  <course>9.8</course>
  <speed>0.7234638899074369</speed>
  <fix>3d</fix>
</trkpt>
<trkpt lat="33.8101453" lon="-118.3940843">
  <ele>-0.107</ele>
  <time>2026-09-02T22:07:24Z</time>
  <course>9.8</course>
  <speed>0.7234638899074369</speed>
  <fix>3d</fix>
</trkpt>
<trkpt lat="33.8101453" lon="-118.3940843">
  <ele>-0.107</ele>
  <time>2026-09-02T22:07:24Z</time>
  <course>9.8</course>
  <speed>0.7234638899074369</speed>
  <fix>3d</fix>
</trkpt>
<trkpt lat="33.8101454" lon="-118.3940842">
  <ele>-0.107</ele>
  <time>2026-09-02T22:07:24Z</time>
  <course>9.8</course>
  <speed>0.7234638899074369</speed>
  <fix>3d</fix>
</trkpt>
<trkpt lat="33.8101454" lon="-118.3940842">
  <ele>-0.107</ele>
  <time>2026-09-02T22:07:24Z</time>
  <course>9.8</course>
  <speed>0.7234638899074369</speed>
  <fix>3d</fix>
</trkpt>
<trkpt lat="33.8101454" lon="-118.3940841">
  <ele>-0.107</ele>
  <time>2026-09-02T22:07:24Z</time>
  <course>9.8</course>
  <speed>0.7234638899074369</speed>
  <fix>3d</fix>
</trkpt>
<trkpt lat="33.8101455" lon="-118.3940841">
  <ele>-0.107</ele>
  <time>2026-09-02T22:07:24Z</time>
  <course>9.8</course>
  <speed>0.7234638899074369</speed>
  <fix>3d</fix>
</trkpt>
<trkpt lat="33.8101455" lon="-118.394084">
  <ele>-0.107</ele>
  <time>2026-09-02T22:07:24Z</time>
  <course>9.8</course>
  <speed>0.7234638899074369</speed>
  <fix>3d</fix>
</trkpt>
<trkpt lat="33.8101455" lon="-118.394084">
  <ele>-0.107</ele>
  <time>2026-09-02T22:07:24Z</time>
  <course>9.8</course>
  <speed>0.7234638899074369</speed>
  <fix>3d</fix>
</trkpt>
<trkpt lat="33.8101455" lon="-118.394084">
  <ele>-0.107</ele>
  <time>2026-09-02T22:07:24Z</time>
  <course>9.8</course>
  <speed>0.7234638899074369</speed>
  <fix>3d</fix>
</trkpt>
<trkpt lat="33.8101451" lon="-118.394085">
  <ele>-0.1</ele>
  <time>2026-09-02T22:07:24Z</time>
  <course>46.63</course>
  <speed>0.73</speed>
  <fix>3d</fix>
</trkpt>
<trkpt lat="33.8101456" lon="-118.3940839">
  <ele>-0.107</ele>
  <time>2026-09-02T22:07:24Z</time>
  <course>9.8</course>
  <speed>0.7234638899074369</speed>
  <fix>3d</fix>
</trkpt>
<trkpt lat="33.8101457" lon="-118.3940838">
  <ele>-0.106</ele>
  <time>2026-09-02T22:07:24Z</time>
  <course>9.81</course>
  <speed>0.7234638899074369</speed>
  <fix>3d</fix>
</trkpt>
<trkpt lat="33.8101457" lon="-118.3940838">
  <ele>-0.106</ele>
  <time>2026-09-02T22:07:24Z</time>
  <course>9.81</course>
  <speed>0.7234638899074369</speed>
  <fix>3d</fix>
</trkpt>
<trkpt lat="33.8101458" lon="-118.3940837">
  <ele>-0.106</ele>
  <time>2026-09-02T22:07:24Z</time>
  <course>9.81</course>
  <speed>0.7234638899074369</speed>
  <fix>3d</fix>
</trkpt>
<trkpt lat="33.8101458" lon="-118.3940836">
  <ele>-0.107</ele>
  <time>2026-09-02T22:07:24Z</time>
  <course>9.81</course>
  <speed>0.7234638899074369</speed>
  <fix>3d</fix>
</trkpt>
<trkpt lat="33.8101458" lon="-118.3940836">
  <ele>-0.107</ele>
  <time>2026-09-02T22:07:24Z</time>
  <course>9.81</course>
  <speed>0.7234638899074369</speed>
  <fix>3d</fix>
</trkpt>
<trkpt lat="33.8101459" lon="-118.3940835">
  <ele>-0.107</ele>
  <time>2026-09-02T22:07:24Z</time>
  <course>9.81</course>
  <speed>0.7234638899074369</speed>
  <fix>3d</fix>
</trkpt>
<trkpt lat="33.8101459" lon="-118.3940835">
  <ele>-0.107</ele>
  <time>2026-09-02T22:07:24Z</time>
  <course>9.81</course>
  <speed>0.7234638899074369</speed>
  <fix>3d</fix>
</trkpt>
<trkpt lat="33.810146" lon="-118.3940835">
  <ele>-0.107</ele>
  <time>2026-09-02T22:07:24Z</time>
  <course>9.81</course>
  <speed>0.7234638899074369</speed>
  <fix>3d</fix>
</trkpt>
<trkpt lat="33.810146" lon="-118.3940834">
  <ele>-0.107</ele>
  <time>2026-09-02T22:07:24Z</time>
  <course>9.81</course>
  <speed>0.7234638899074369</speed>
  <fix>3d</fix>
</trkpt>
<trkpt lat="33.810146" lon="-118.3940834">
  <ele>-0.107</ele>
  <time>2026-09-02T22:07:24Z</time>
  <course>9.81</course>
  <speed>0.7234638899074369</speed>
  <fix>3d</fix>
</trkpt>
<trkpt lat="33.8101451" lon="-118.394085">
  <ele>-0.1</ele>
  <time>2026-09-02T22:07:24Z</time>
  <course>46.63</course>
  <speed>0.73</speed>
  <fix>3d</fix>
</trkpt>
<trkpt lat="33.8101461" lon="-118.3940833">
  <ele>-0.107</ele>
  <time>2026-09-02T22:07:24Z</time>
  <course>9.81</course>
  <speed>0.7234638899074369</speed>
  <fix>3d</fix>
</trkpt>
<trkpt lat="33.8101461" lon="-118.3940833">
  <ele>-0.107</ele>
  <time>2026-09-02T22:07:24Z</time>
  <course>9.82</course>
  <speed>0.7234638899074369</speed>
  <fix>3d</fix>
</trkpt>
<trkpt lat="33.8101462" lon="-118.3940832">
  <ele>-0.107</ele>
  <time>2026-09-02T22:07:24Z</time>
  <course>9.82</course>
  <speed>0.7234638899074369</speed>
  <fix>3d</fix>
</trkpt>
<trkpt lat="33.8101462" lon="-118.3940832">
  <ele>-0.107</ele>
  <time>2026-09-02T22:07:24Z</time>
  <course>9.82</course>
  <speed>0.7234638899074369</speed>
  <fix>3d</fix>
</trkpt>
<trkpt lat="33.8101462" lon="-118.3940831">
  <ele>-0.107</ele>
  <time>2026-09-02T22:07:24Z</time>
  <course>9.82</course>
  <speed>0.7234638899074369</speed>
  <fix>3d</fix>
</trkpt>
<trkpt lat="33.8101463" lon="-118.394083">
  <ele>-0.107</ele>
  <time>2026-09-02T22:07:24Z</time>
  <course>9.82</course>
  <speed>0.7234638899074369</speed>
  <fix>3d</fix>
</trkpt>
<trkpt lat="33.8101463" lon="-118.394083">
  <ele>-0.107</ele>
  <time>2026-09-02T22:07:24Z</time>
  <course>9.82</course>
  <speed>0.7234638899074369</speed>
  <fix>3d</fix>
</trkpt>
<trkpt lat="33.8101464" lon="-118.3940829">
  <ele>-0.107</ele>
  <time>2026-09-02T22:07:24Z</time>
  <course>9.82</course>
  <speed>0.7234638899074369</speed>
  <fix>3d</fix>
</trkpt>
<trkpt lat="33.8101464" lon="-118.3940829">
  <ele>-0.107</ele>
  <time>2026-09-02T22:07:24Z</time>
  <course>9.82</course>
  <speed>0.7234638899074369</speed>
  <fix>3d</fix>
</trkpt>
<trkpt lat="33.8101464" lon="-118.3940829">
  <ele>-0.107</ele>
  <time>2026-09-02T22:07:24Z</time>
  <course>9.82</course>
  <speed>0.7234638899074369</speed>
  <fix>3d</fix>
</trkpt>
<trkpt lat="33.8101465" lon="-118.3940828">
  <ele>-0.107</ele>
  <time>2026-09-02T22:07:24Z</time>
  <course>9.82</course>
  <speed>0.7234638899074369</speed>
  <fix>3d</fix>
</trkpt>
<trkpt lat="33.8101461" lon="-118.3940839">
  <ele>-0.11</ele>
  <time>2026-09-02T22:07:24Z</time>
  <course>46.65</course>
  <speed>0.73</speed>
  <fix>3d</fix>
</trkpt>
<trkpt lat="33.8101465" lon="-118.3940828">
  <ele>-0.107</ele>
  <time>2026-09-02T22:07:24Z</time>
  <course>9.82</course>
  <speed>0.7234638899074369</speed>
  <fix>3d</fix>
</trkpt>
<trkpt lat="33.8101465" lon="-118.3940827">
  <ele>-0.107</ele>
  <time>2026-09-02T22:07:24Z</time>
  <course>9.82</course>
  <speed>0.7234638899074369</speed>
  <fix>3d</fix>
</trkpt>
<trkpt lat="33.8101466" lon="-118.3940827">
  <ele>-0.107</ele>
  <time>2026-09-02T22:07:24Z</time>
  <course>9.83</course>
  <speed>0.7234638899074369</speed>
  <fix>3d</fix>
</trkpt>
<trkpt lat="33.8101466" lon="-118.3940826">
  <ele>-0.107</ele>
  <time>2026-09-02T22:07:24Z</time>
  <course>9.83</course>
  <speed>0.7234638899074369</speed>
  <fix>3d</fix>
</trkpt>
<trkpt lat="33.8101466" lon="-118.3940826">
  <ele>-0.107</ele>
  <time>2026-09-02T22:07:24Z</time>
  <course>9.83</course>
  <speed>0.7234638899074369</speed>
  <fix>3d</fix>
</trkpt>
<trkpt lat="33.8101467" lon="-118.3940825">
  <ele>-0.107</ele>
  <time>2026-09-02T22:07:24Z</time>
  <course>9.83</course>
  <speed>0.7234638899074369</speed>
  <fix>3d</fix>
</trkpt>
<trkpt lat="33.8101467" lon="-118.3940825">
  <ele>-0.107</ele>
  <time>2026-09-02T22:07:24Z</time>
  <course>9.83</course>
  <speed>0.7234638899074369</speed>
  <fix>3d</fix>
</trkpt>
<trkpt lat="33.8101467" lon="-118.3940825">
  <ele>-0.107</ele>
  <time>2026-09-02T22:07:24Z</time>
  <course>9.83</course>
  <speed>0.7234638899074369</speed>
  <fix>3d</fix>
</trkpt>
<trkpt lat="33.8101468" lon="-118.3940824">
  <ele>-0.107</ele>
  <time>2026-09-02T22:07:24Z</time>
  <course>9.83</course>
  <speed>0.7234638899074369</speed>
  <fix>3d</fix>
</trkpt>
<trkpt lat="33.8101468" lon="-118.3940824">
  <ele>-0.107</ele>
  <time>2026-09-02T22:07:24Z</time>
  <course>9.83</course>
  <speed>0.7234638899074369</speed>
  <fix>3d</fix>
</trkpt>
<trkpt lat="33.8101469" lon="-118.3940823">
  <ele>-0.107</ele>
  <time>2026-09-02T22:07:24Z</time>
  <course>9.83</course>
  <speed>0.7234638899074369</speed>
  <fix>3d</fix>
</trkpt>
<trkpt lat="33.8101469" lon="-118.3940823">
  <ele>-0.107</ele>
  <time>2026-09-02T22:07:24Z</time>
  <course>9.83</course>
  <speed>0.7234638899074369</speed>
  <fix>3d</fix>
</trkpt>
<trkpt lat="33.8101469" lon="-118.3940823">
  <ele>-0.107</ele>
  <time>2026-09-02T22:07:24Z</time>
  <course>9.83</course>
  <speed>0.7234638899074369</speed>
  <fix>3d</fix>
</trkpt>
<trkpt lat="33.8101461" lon="-118.3940839">
  <ele>-0.11</ele>
  <time>2026-09-02T22:07:24Z</time>
  <course>46.65</course>
  <speed>0.73</speed>
  <fix>3d</fix>
</trkpt>
<trkpt lat="33.810147" lon="-118.3940822">
  <ele>-0.107</ele>
  <time>2026-09-02T22:07:24Z</time>
  <course>9.83</course>
  <speed>0.7234638899074369</speed>
  <fix>3d</fix>
</trkpt>
<trkpt lat="33.810147" lon="-118.3940821">
  <ele>-0.107</ele>
  <time>2026-09-02T22:07:24Z</time>
  <course>9.84</course>
  <speed>0.7234638899074369</speed>
  <fix>3d</fix>
</trkpt>
<trkpt lat="33.8101471" lon="-118.3940821">
  <ele>-0.107</ele>
  <time>2026-09-02T22:07:24Z</time>
  <course>9.84</course>
  <speed>0.7234638899074369</speed>
  <fix>3d</fix>
</trkpt>
<trkpt lat="33.8101471" lon="-118.394082">
  <ele>-0.107</ele>
  <time>2026-09-02T22:07:24Z</time>
  <course>9.84</course>
  <speed>0.7234638899074369</speed>
  <fix>3d</fix>
</trkpt>
<trkpt lat="33.8101472" lon="-118.3940819">
  <ele>-0.107</ele>
  <time>2026-09-02T22:07:24Z</time>
  <course>9.84</course>
  <speed>0.7234638899074369</speed>
  <fix>3d</fix>
</trkpt>
<trkpt lat="33.8101472" lon="-118.3940819">
  <ele>-0.107</ele>
  <time>2026-09-02T22:07:24Z</time>
  <course>9.84</course>
  <speed>0.7234638899074369</speed>
  <fix>3d</fix>
</trkpt>
<trkpt lat="33.8101472" lon="-118.3940818">
  <ele>-0.107</ele>
  <time>2026-09-02T22:07:24Z</time>
  <course>9.84</course>
  <speed>0.7234638899074369</speed>
  <fix>3d</fix>
</trkpt>
<trkpt lat="33.8101473" lon="-118.3940818">
  <ele>-0.107</ele>
  <time>2026-09-02T22:07:24Z</time>
  <course>9.84</course>
  <speed>0.7234638899074369</speed>
  <fix>3d</fix>
</trkpt>
<trkpt lat="33.8101473" lon="-118.3940817">
  <ele>-0.107</ele>
  <time>2026-09-02T22:07:24Z</time>
  <course>9.84</course>
  <speed>0.7234638899074369</speed>
  <fix>3d</fix>
</trkpt>
<trkpt lat="33.8101473" lon="-118.3940817">
  <ele>-0.107</ele>
  <time>2026-09-02T22:07:24Z</time>
  <course>9.84</course>
  <speed>0.7234638899074369</speed>
  <fix>3d</fix>
</trkpt>
<trkpt lat="33.8101474" lon="-118.3940817">
  <ele>-0.107</ele>
  <time>2026-09-02T22:07:24Z</time>
  <course>9.84</course>
  <speed>0.7234638899074369</speed>
  <fix>3d</fix>
</trkpt>
<trkpt lat="33.810147" lon="-118.3940827">
  <ele>-0.1</ele>
  <time>2026-09-02T22:07:24Z</time>
  <course>46.67</course>
  <speed>0.73</speed>
  <fix>3d</fix>
</trkpt>
<trkpt lat="33.8101474" lon="-118.3940817">
  <ele>-0.107</ele>
  <time>2026-09-02T22:07:24Z</time>
  <course>9.84</course>
  <speed>0.7234638899074369</speed>
  <fix>3d</fix>
</trkpt>
<trkpt lat="33.8101474" lon="-118.3940816">
  <ele>-0.107</ele>
  <time>2026-09-02T22:07:24Z</time>
  <course>9.84</course>
  <speed>0.7234638899074369</speed>
  <fix>3d</fix>
</trkpt>
<trkpt lat="33.8101475" lon="-118.3940816">
  <ele>-0.107</ele>
  <time>2026-09-02T22:07:24Z</time>
  <course>9.84</course>
  <speed>0.7234638899074369</speed>
  <fix>3d</fix>
</trkpt>
<trkpt lat="33.8101475" lon="-118.3940815">
  <ele>-0.107</ele>
  <time>2026-09-02T22:07:24Z</time>
  <course>9.85</course>
  <speed>0.7234638899074369</speed>
  <fix>3d</fix>
</trkpt>
<trkpt lat="33.8101475" lon="-118.3940815">
  <ele>-0.107</ele>
  <time>2026-09-02T22:07:24Z</time>
  <course>9.85</course>
  <speed>0.7234638899074369</speed>
  <fix>3d</fix>
</trkpt>
<trkpt lat="33.8101476" lon="-118.3940814">
  <ele>-0.107</ele>
  <time>2026-09-02T22:07:24Z</time>
  <course>9.85</course>
  <speed>0.7234638899074369</speed>
  <fix>3d</fix>
</trkpt>
<trkpt lat="33.8101476" lon="-118.3940814">
  <ele>-0.107</ele>
  <time>2026-09-02T22:07:24Z</time>
  <course>9.85</course>
  <speed>0.7234638899074369</speed>
  <fix>3d</fix>
</trkpt>
<trkpt lat="33.8101477" lon="-118.3940813">
  <ele>-0.107</ele>
  <time>2026-09-02T22:07:24Z</time>
  <course>9.85</course>
  <speed>0.7234638899074369</speed>
  <fix>3d</fix>
</trkpt>
<trkpt lat="33.8101477" lon="-118.3940813">
  <ele>-0.107</ele>
  <time>2026-09-02T22:07:24Z</time>
  <course>9.85</course>
  <speed>0.7234638899074369</speed>
  <fix>3d</fix>
</trkpt>
<trkpt lat="33.8101477" lon="-118.3940812">
  <ele>-0.107</ele>
  <time>2026-09-02T22:07:24Z</time>
  <course>9.85</course>
  <speed>0.7234638899074369</speed>
  <fix>3d</fix>
</trkpt>
<trkpt lat="33.8101478" lon="-118.3940812">
  <ele>-0.107</ele>
  <time>2026-09-02T22:07:24Z</time>
  <course>9.85</course>
  <speed>0.7234638899074369</speed>
  <fix>3d</fix>
</trkpt>
<trkpt lat="33.8101478" lon="-118.3940811">
  <ele>-0.107</ele>
  <time>2026-09-02T22:07:24Z</time>
  <course>9.85</course>
  <speed>0.7234638899074369</speed>
  <fix>3d</fix>
</trkpt>
<trkpt lat="33.8101478" lon="-118.3940811">
  <ele>-0.107</ele>
  <time>2026-09-02T22:07:24Z</time>
  <course>9.85</course>
  <speed>0.7234638899074369</speed>
  <fix>3d</fix>
</trkpt>
<trkpt lat="33.810147" lon="-118.3940827">
  <ele>-0.1</ele>
  <time>2026-09-02T22:07:24Z</time>
  <course>46.67</course>
  <speed>0.73</speed>
  <fix>3d</fix>
</trkpt>
<trkpt lat="33.8101478" lon="-118.3940811">
  <ele>-0.107</ele>
  <time>2026-09-02T22:07:24Z</time>
  <course>9.85</course>
  <speed>0.7234638899074369</speed>
  <fix>3d</fix>
</trkpt>
<trkpt lat="33.8101479" lon="-118.394081">
  <ele>-0.107</ele>
  <time>2026-09-02T22:07:24Z</time>
  <course>9.85</course>
  <speed>0.7234638899074369</speed>
  <fix>3d</fix>
</trkpt>
<trkpt lat="33.8101479" lon="-118.394081">
  <ele>-0.107</ele>
  <time>2026-09-02T22:07:24Z</time>
  <course>9.85</course>
  <speed>0.7234638899074369</speed>
  <fix>3d</fix>
</trkpt>
<trkpt lat="33.810148" lon="-118.3940809">
  <ele>-0.107</ele>
  <time>2026-09-02T22:07:24Z</time>
  <course>9.86</course>
  <speed>0.7234638899074369</speed>
  <fix>3d</fix>
</trkpt>
<trkpt lat="33.810148" lon="-118.3940808">
  <ele>-0.107</ele>
  <time>2026-09-02T22:07:24Z</time>
  <course>9.86</course>
  <speed>0.7234638899074369</speed>
  <fix>3d</fix>
</trkpt>
<trkpt lat="33.8101481" lon="-118.3940808">
  <ele>-0.107</ele>
  <time>2026-09-02T22:07:24Z</time>
  <course>9.86</course>
  <speed>0.7234638899074369</speed>
  <fix>3d</fix>
</trkpt>
<trkpt lat="33.8101481" lon="-118.3940807">
  <ele>-0.107</ele>
  <time>2026-09-02T22:07:24Z</time>
  <course>9.86</course>
  <speed>0.7234638899074369</speed>
  <fix>3d</fix>
</trkpt>
<trkpt lat="33.8101481" lon="-118.3940807">
  <ele>-0.107</ele>
  <time>2026-09-02T22:07:24Z</time>
  <course>9.86</course>
  <speed>0.7234638899074369</speed>
  <fix>3d</fix>
</trkpt>
<trkpt lat="33.8101482" lon="-118.3940806">
  <ele>-0.107</ele>
  <time>2026-09-02T22:07:24Z</time>
  <course>9.86</course>
  <speed>0.7234638899074369</speed>
  <fix>3d</fix>
</trkpt>
<trkpt lat="33.8101482" lon="-118.3940806">
  <ele>-0.107</ele>
  <time>2026-09-02T22:07:24Z</time>
  <course>9.86</course>
  <speed>0.7234638899074369</speed>
  <fix>3d</fix>
</trkpt>
<trkpt lat="33.8101483" lon="-118.3940805">
  <ele>-0.107</ele>
  <time>2026-09-02T22:07:24Z</time>
  <course>9.86</course>
  <speed>0.7234638899074369</speed>
  <fix>3d</fix>
</trkpt>
<trkpt lat="33.8101483" lon="-118.3940805">
  <ele>-0.107</ele>
  <time>2026-09-02T22:07:24Z</time>
  <course>9.86</course>
  <speed>0.7234638899074369</speed>
  <fix>3d</fix>
</trkpt>
<trkpt lat="33.8101479" lon="-118.3940816">
  <ele>-0.1</ele>
  <time>2026-09-02T22:07:24Z</time>
  <course>46.69</course>
  <speed>0.73</speed>
  <fix>3d</fix>
</trkpt>
<trkpt lat="33.8101483" lon="-118.3940805">
  <ele>-0.107</ele>
  <time>2026-09-02T22:07:24Z</time>
  <course>9.86</course>
  <speed>0.7234638899074369</speed>
  <fix>3d</fix>
</trkpt>
<trkpt lat="33.8101484" lon="-118.3940804">
  <ele>-0.107</ele>
  <time>2026-09-02T22:07:24Z</time>
  <course>9.86</course>
  <speed>0.7234638899074369</speed>
  <fix>3d</fix>
</trkpt>
<trkpt lat="33.8101484" lon="-118.3940803">
  <ele>-0.108</ele>
  <time>2026-09-02T22:07:24Z</time>
  <course>9.87</course>
  <speed>0.7234638899074369</speed>
  <fix>3d</fix>
</trkpt>
<trkpt lat="33.8101485" lon="-118.3940803">
  <ele>-0.108</ele>
  <time>2026-09-02T22:07:24Z</time>
  <course>9.87</course>
  <speed>0.7234638899074369</speed>
  <fix>3d</fix>
</trkpt>
<trkpt lat="33.8101485" lon="-118.3940803">
  <ele>-0.108</ele>
  <time>2026-09-02T22:07:24Z</time>
  <course>9.87</course>
  <speed>0.7234638899074369</speed>
  <fix>3d</fix>
</trkpt>
<trkpt lat="33.8101485" lon="-118.3940802">
  <ele>-0.108</ele>
  <time>2026-09-02T22:07:24Z</time>
  <course>9.87</course>
  <speed>0.7234638899074369</speed>
  <fix>3d</fix>
</trkpt>
<trkpt lat="33.8101486" lon="-118.3940802">
  <ele>-0.108</ele>
  <time>2026-09-02T22:07:24Z</time>
  <course>9.87</course>
  <speed>0.7234638899074369</speed>
  <fix>3d</fix>
</trkpt>
<trkpt lat="33.8101486" lon="-118.3940801">
  <ele>-0.108</ele>
  <time>2026-09-02T22:07:24Z</time>
  <course>9.87</course>
  <speed>0.7234638899074369</speed>
  <fix>3d</fix>
</trkpt>
<trkpt lat="33.8101486" lon="-118.3940801">
  <ele>-0.108</ele>
  <time>2026-09-02T22:07:24Z</time>
  <course>9.87</course>
  <speed>0.7234638899074369</speed>
  <fix>3d</fix>
</trkpt>
<trkpt lat="33.8101487" lon="-118.39408">
  <ele>-0.108</ele>
  <time>2026-09-02T22:07:24Z</time>
  <course>9.87</course>
  <speed>0.7234638899074369</speed>
  <fix>3d</fix>
</trkpt>
<trkpt lat="33.8101487" lon="-118.39408">
  <ele>-0.108</ele>
  <time>2026-09-02T22:07:24Z</time>
  <course>9.87</course>
  <speed>0.7234638899074369</speed>
  <fix>3d</fix>
</trkpt>
<trkpt lat="33.8101487" lon="-118.3940799">
  <ele>-0.108</ele>
  <time>2026-09-02T22:07:24Z</time>
  <course>9.87</course>
  <speed>0.7234638899074369</speed>
  <fix>3d</fix>
</trkpt>
<trkpt lat="33.8101479" lon="-118.3940816">
  <ele>-0.1</ele>
  <time>2026-09-02T22:07:24Z</time>
  <course>46.69</course>
  <speed>0.73</speed>
  <fix>3d</fix>
</trkpt>
<trkpt lat="33.8101487" lon="-118.3940799">
  <ele>-0.108</ele>
  <time>2026-09-02T22:07:24Z</time>
  <course>9.87</course>
  <speed>0.7234638899074369</speed>
  <fix>3d</fix>
</trkpt>
<trkpt lat="33.8101488" lon="-118.3940799">
  <ele>-0.108</ele>
  <time>2026-09-02T22:07:24Z</time>
  <course>9.87</course>
  <speed>0.7234638899074369</speed>
  <fix>3d</fix>
</trkpt>
<trkpt lat="33.8101488" lon="-118.3940798">
  <ele>-0.108</ele>
  <time>2026-09-02T22:07:24Z</time>
  <course>9.87</course>
  <speed>0.7234638899074369</speed>
  <fix>3d</fix>
</trkpt>
<trkpt lat="33.8101489" lon="-118.3940798">
  <ele>-0.108</ele>
  <time>2026-09-02T22:07:24Z</time>
  <course>9.87</course>
  <speed>0.7234638899074369</speed>
  <fix>3d</fix>
</trkpt>
<trkpt lat="33.8101489" lon="-118.3940797">
  <ele>-0.108</ele>
  <time>2026-09-02T22:07:24Z</time>
  <course>9.88</course>
  <speed>0.7234638899074369</speed>
  <fix>3d</fix>
</trkpt>
<trkpt lat="33.810149" lon="-118.3940796">
  <ele>-0.108</ele>
  <time>2026-09-02T22:07:24Z</time>
  <course>9.88</course>
  <speed>0.7234638899074369</speed>
  <fix>3d</fix>
</trkpt>
<trkpt lat="33.810149" lon="-118.3940796">
  <ele>-0.108</ele>
  <time>2026-09-02T22:07:24Z</time>
  <course>9.88</course>
  <speed>0.7234638899074369</speed>
  <fix>3d</fix>
</trkpt>
<trkpt lat="33.810149" lon="-118.3940796">
  <ele>-0.108</ele>
  <time>2026-09-02T22:07:24Z</time>
  <course>9.88</course>
  <speed>0.7234638899074369</speed>
  <fix>3d</fix>
</trkpt>
<trkpt lat="33.8101491" lon="-118.3940795">
  <ele>-0.108</ele>
  <time>2026-09-02T22:07:24Z</time>
  <course>9.88</course>
  <speed>0.7234638899074369</speed>
  <fix>3d</fix>
</trkpt>
<trkpt lat="33.8101491" lon="-118.3940794">
  <ele>-0.108</ele>
  <time>2026-09-02T22:07:24Z</time>
  <course>9.88</course>
  <speed>0.7234638899074369</speed>
  <fix>3d</fix>
</trkpt>
<trkpt lat="33.8101492" lon="-118.3940794">
  <ele>-0.108</ele>
  <time>2026-09-02T22:07:24Z</time>
  <course>9.88</course>
  <speed>0.7234638899074369</speed>
  <fix>3d</fix>
</trkpt>
<trkpt lat="33.8101492" lon="-118.3940794">
  <ele>-0.108</ele>
  <time>2026-09-02T22:07:24Z</time>
  <course>9.88</course>
  <speed>0.7234638899074369</speed>
  <fix>3d</fix>
</trkpt>
<trkpt lat="33.8101488" lon="-118.3940804">
  <ele>-0.1</ele>
  <time>2026-09-02T22:07:24Z</time>
  <course>46.71</course>
  <speed>0.73</speed>
  <fix>3d</fix>
</trkpt>
<trkpt lat="33.8101492" lon="-118.3940794">
  <ele>-0.108</ele>
  <time>2026-09-02T22:07:24Z</time>
  <course>9.88</course>
  <speed>0.7234638899074369</speed>
  <fix>3d</fix>
</trkpt>
<trkpt lat="33.8101493" lon="-118.3940793">
  <ele>-0.108</ele>
  <time>2026-09-02T22:07:24Z</time>
  <course>9.88</course>
  <speed>0.7234638899074369</speed>
  <fix>3d</fix>
</trkpt>
<trkpt lat="33.8101493" lon="-118.3940792">
  <ele>-0.108</ele>
  <time>2026-09-02T22:07:24Z</time>
  <course>9.88</course>
  <speed>0.7234638899074369</speed>
  <fix>3d</fix>
</trkpt>
<trkpt lat="33.8101493" lon="-118.3940792">
  <ele>-0.108</ele>
  <time>2026-09-02T22:07:24Z</time>
  <course>9.88</course>
  <speed>0.7234638899074369</speed>
  <fix>3d</fix>
</trkpt>
<trkpt lat="33.8101494" lon="-118.3940791">
  <ele>-0.108</ele>
  <time>2026-09-02T22:07:24Z</time>
  <course>9.89</course>
  <speed>0.7234638899074369</speed>
  <fix>3d</fix>
</trkpt>
<trkpt lat="33.8101494" lon="-118.3940791">
  <ele>-0.108</ele>
  <time>2026-09-02T22:07:24Z</time>
  <course>9.89</course>
  <speed>0.7234638899074369</speed>
  <fix>3d</fix>
</trkpt>
<trkpt lat="33.8101494" lon="-118.394079">
  <ele>-0.108</ele>
  <time>2026-09-02T22:07:24Z</time>
  <course>9.89</course>
  <speed>0.7234638899074369</speed>
  <fix>3d</fix>
</trkpt>
<trkpt lat="33.8101495" lon="-118.394079">
  <ele>-0.108</ele>
  <time>2026-09-02T22:07:24Z</time>
  <course>9.89</course>
  <speed>0.7234638899074369</speed>
  <fix>3d</fix>
</trkpt>
<trkpt lat="33.8101495" lon="-118.394079">
  <ele>-0.108</ele>
  <time>2026-09-02T22:07:24Z</time>
  <course>9.89</course>
  <speed>0.7234638899074369</speed>
  <fix>3d</fix>
</trkpt>
<trkpt lat="33.8101496" lon="-118.3940789">
  <ele>-0.108</ele>
  <time>2026-09-02T22:07:24Z</time>
  <course>9.89</course>
  <speed>0.7234638899074369</speed>
  <fix>3d</fix>
</trkpt>
<trkpt lat="33.8101496" lon="-118.3940789">
  <ele>-0.108</ele>
  <time>2026-09-02T22:07:24Z</time>
  <course>9.89</course>
  <speed>0.7234638899074369</speed>
  <fix>3d</fix>
</trkpt>
<trkpt lat="33.8101496" lon="-118.3940788">
  <ele>-0.108</ele>
  <time>2026-09-02T22:07:24Z</time>
  <course>9.89</course>
  <speed>0.7234638899074369</speed>
  <fix>3d</fix>
</trkpt>
<trkpt lat="33.8101496" lon="-118.3940788">
  <ele>-0.108</ele>
  <time>2026-09-02T22:07:24Z</time>
  <course>9.89</course>
  <speed>0.7234638899074369</speed>
  <fix>3d</fix>
</trkpt>
<trkpt lat="33.8101488" lon="-118.3940804">
  <ele>-0.1</ele>
  <time>2026-09-02T22:07:24Z</time>
  <course>46.71</course>
  <speed>0.73</speed>
  <fix>3d</fix>
</trkpt>
<trkpt lat="33.8101496" lon="-118.3940788">
  <ele>-0.108</ele>
  <time>2026-09-02T22:07:24Z</time>
  <course>9.89</course>
  <speed>0.7234638899074369</speed>
  <fix>3d</fix>
</trkpt>
<trkpt lat="33.8101497" lon="-118.3940787">
  <ele>-0.108</ele>
  <time>2026-09-02T22:07:24Z</time>
  <course>9.89</course>
  <speed>0.7234638899074369</speed>
  <fix>3d</fix>
</trkpt>
<trkpt lat="33.8101498" lon="-118.3940787">
  <ele>-0.108</ele>
  <time>2026-09-02T22:07:24Z</time>
  <course>9.89</course>
  <speed>0.7234638899074369</speed>
  <fix>3d</fix>
</trkpt>
<trkpt lat="33.8101498" lon="-118.3940786">
  <ele>-0.108</ele>
  <time>2026-09-02T22:07:24Z</time>
  <course>9.89</course>
  <speed>0.7234638899074369</speed>
  <fix>3d</fix>
</trkpt>
<trkpt lat="33.8101498" lon="-118.3940786">
  <ele>-0.108</ele>
  <time>2026-09-02T22:07:24Z</time>
  <course>9.9</course>
  <speed>0.7234638899074369</speed>
  <fix>3d</fix>
</trkpt>
<trkpt lat="33.8101499" lon="-118.3940785">
  <ele>-0.108</ele>
  <time>2026-09-02T22:07:24Z</time>
  <course>9.9</course>
  <speed>0.7234638899074369</speed>
  <fix>3d</fix>
</trkpt>
<trkpt lat="33.8101499" lon="-118.3940784">
  <ele>-0.109</ele>
  <time>2026-09-02T22:07:24Z</time>
  <course>9.9</course>
  <speed>0.7234638899074369</speed>
  <fix>3d</fix>
</trkpt>
<trkpt lat="33.81015" lon="-118.3940784">
  <ele>-0.109</ele>
  <time>2026-09-02T22:07:24Z</time>
  <course>9.9</course>
  <speed>0.7234638899074369</speed>
  <fix>3d</fix>
</trkpt>
<trkpt lat="33.81015" lon="-118.3940783">
  <ele>-0.109</ele>
  <time>2026-09-02T22:07:24Z</time>
  <course>9.9</course>
  <speed>0.7234638899074369</speed>
  <fix>3d</fix>
</trkpt>
<trkpt lat="33.81015" lon="-118.3940783">
  <ele>-0.109</ele>
  <time>2026-09-02T22:07:24Z</time>
  <course>9.9</course>
  <speed>0.7234638899074369</speed>
  <fix>3d</fix>
</trkpt>
<trkpt lat="33.8101501" lon="-118.3940783">
  <ele>-0.109</ele>
  <time>2026-09-02T22:07:24Z</time>
  <course>9.9</course>
  <speed>0.7234638899074369</speed>
  <fix>3d</fix>
</trkpt>
<trkpt lat="33.8101501" lon="-118.3940782">
  <ele>-0.109</ele>
  <time>2026-09-02T22:07:24Z</time>
  <course>9.9</course>
  <speed>0.7234638899074369</speed>
  <fix>3d</fix>
</trkpt>
<trkpt lat="33.8101497" lon="-118.3940792">
  <ele>-0.1</ele>
  <time>2026-09-02T22:07:24Z</time>
  <course>46.73</course>
  <speed>0.73</speed>
  <fix>3d</fix>
</trkpt>
<trkpt lat="33.8101501" lon="-118.3940782">
  <ele>-0.109</ele>
  <time>2026-09-02T22:07:24Z</time>
  <course>9.9</course>
  <speed>0.7234638899074369</speed>
  <fix>3d</fix>
</trkpt>
<trkpt lat="33.8101502" lon="-118.3940781">
  <ele>-0.109</ele>
  <time>2026-09-02T22:07:24Z</time>
  <course>9.9</course>
  <speed>0.7234638899074369</speed>
  <fix>3d</fix>
</trkpt>
<trkpt lat="33.8101502" lon="-118.3940781">
  <ele>-0.11</ele>
  <time>2026-09-02T22:07:24Z</time>
  <course>9.9</course>
  <speed>0.7234638899074369</speed>
  <fix>3d</fix>
</trkpt>
<trkpt lat="33.8101502" lon="-118.394078">
  <ele>-0.11</ele>
  <time>2026-09-02T22:07:24Z</time>
  <course>9.9</course>
  <speed>0.7234638899074369</speed>
  <fix>3d</fix>
</trkpt>
<trkpt lat="33.8101503" lon="-118.394078">
  <ele>-0.11</ele>
  <time>2026-09-02T22:07:24Z</time>
  <course>9.9</course>
  <speed>0.7234638899074369</speed>
  <fix>3d</fix>
</trkpt>
<trkpt lat="33.8101503" lon="-118.3940779">
  <ele>-0.11</ele>
  <time>2026-09-02T22:07:24Z</time>
  <course>9.91</course>
  <speed>0.7234638899074369</speed>
  <fix>3d</fix>
</trkpt>
<trkpt lat="33.8101504" lon="-118.3940779">
  <ele>-0.11</ele>
  <time>2026-09-02T22:07:24Z</time>
  <course>9.91</course>
  <speed>0.7234638899074369</speed>
  <fix>3d</fix>
</trkpt>
<trkpt lat="33.8101504" lon="-118.3940778">
  <ele>-0.111</ele>
  <time>2026-09-02T22:07:24Z</time>
  <course>9.91</course>
  <speed>0.7234638899074369</speed>
  <fix>3d</fix>
</trkpt>
<trkpt lat="33.8101504" lon="-118.3940778">
  <ele>-0.111</ele>
  <time>2026-09-02T22:07:24Z</time>
  <course>9.91</course>
  <speed>0.7234638899074369</speed>
  <fix>3d</fix>
</trkpt>
<trkpt lat="33.8101505" lon="-118.3940777">
  <ele>-0.111</ele>
  <time>2026-09-02T22:07:24Z</time>
  <course>9.91</course>
  <speed>0.7234638899074369</speed>
  <fix>3d</fix>
</trkpt>
<trkpt lat="33.8101505" lon="-118.3940777">
  <ele>-0.111</ele>
  <time>2026-09-02T22:07:24Z</time>
  <course>9.91</course>
  <speed>0.7234638899074369</speed>
  <fix>3d</fix>
</trkpt>
<trkpt lat="33.8101505" lon="-118.3940776">
  <ele>-0.111</ele>
  <time>2026-09-02T22:07:24Z</time>
  <course>9.91</course>
  <speed>0.7234638899074369</speed>
  <fix>3d</fix>
</trkpt>
<trkpt lat="33.8101505" lon="-118.3940776">
  <ele>-0.111</ele>
  <time>2026-09-02T22:07:24Z</time>
  <course>9.91</course>
  <speed>0.7234638899074369</speed>
  <fix>3d</fix>
</trkpt>
<trkpt lat="33.8101497" lon="-118.3940792">
  <ele>-0.1</ele>
  <time>2026-09-02T22:07:24Z</time>
  <course>46.73</course>
  <speed>0.73</speed>
  <fix>3d</fix>
</trkpt>
<trkpt lat="33.8101506" lon="-118.3940776">
  <ele>-0.111</ele>
  <time>2026-09-02T22:07:24Z</time>
  <course>9.91</course>
  <speed>0.7234638899074369</speed>
  <fix>3d</fix>
</trkpt>
<trkpt lat="33.8101507" lon="-118.3940775">
  <ele>-0.112</ele>
  <time>2026-09-02T22:07:24Z</time>
  <course>9.91</course>
  <speed>0.7234638899074369</speed>
  <fix>3d</fix>
</trkpt>
<trkpt lat="33.8101507" lon="-118.3940774">
  <ele>-0.112</ele>
  <time>2026-09-02T22:07:24Z</time>
  <course>9.91</course>
  <speed>0.7234638899074369</speed>
  <fix>3d</fix>
</trkpt>
<trkpt lat="33.8101507" lon="-118.3940774">
  <ele>-0.112</ele>
  <time>2026-09-02T22:07:24Z</time>
  <course>9.92</course>
  <speed>0.7234638899074369</speed>
  <fix>3d</fix>
</trkpt>
<trkpt lat="33.8101508" lon="-118.3940773">
  <ele>-0.112</ele>
  <time>2026-09-02T22:07:24Z</time>
  <course>9.92</course>
  <speed>0.7234638899074369</speed>
  <fix>3d</fix>
</trkpt>
<trkpt lat="33.8101508" lon="-118.3940773">
  <ele>-0.112</ele>
  <time>2026-09-02T22:07:24Z</time>
  <course>9.92</course>
  <speed>0.7234638899074369</speed>
  <fix>3d</fix>
</trkpt>
<trkpt lat="33.8101509" lon="-118.3940772">
  <ele>-0.112</ele>
  <time>2026-09-02T22:07:24Z</time>
  <course>9.92</course>
  <speed>0.7234638899074369</speed>
  <fix>3d</fix>
</trkpt>
<trkpt lat="33.8101509" lon="-118.3940772">
  <ele>-0.112</ele>
  <time>2026-09-02T22:07:24Z</time>
  <course>9.92</course>
  <speed>0.7234638899074369</speed>
  <fix>3d</fix>
</trkpt>
<trkpt lat="33.8101509" lon="-118.3940771">
  <ele>-0.112</ele>
  <time>2026-09-02T22:07:24Z</time>
  <course>9.92</course>
  <speed>0.7234638899074369</speed>
  <fix>3d</fix>
</trkpt>
<trkpt lat="33.810151" lon="-118.3940771">
  <ele>-0.113</ele>
  <time>2026-09-02T22:07:24Z</time>
  <course>9.92</course>
  <speed>0.7234638899074369</speed>
  <fix>3d</fix>
</trkpt>
<trkpt lat="33.810151" lon="-118.3940771">
  <ele>-0.113</ele>
  <time>2026-09-02T22:07:24Z</time>
  <course>9.92</course>
  <speed>0.7234638899074369</speed>
  <fix>3d</fix>
</trkpt>
<trkpt lat="33.8101506" lon="-118.3940781">
  <ele>-0.11</ele>
  <time>2026-09-02T22:07:24Z</time>
  <course>46.74</course>
  <speed>0.73</speed>
  <fix>3d</fix>
</trkpt>
<trkpt lat="33.810151" lon="-118.3940771">
  <ele>-0.113</ele>
  <time>2026-09-02T22:07:24Z</time>
  <course>9.92</course>
  <speed>0.7234638899074369</speed>
  <fix>3d</fix>
</trkpt>
<trkpt lat="33.8101511" lon="-118.394077">
  <ele>-0.113</ele>
  <time>2026-09-02T22:07:24Z</time>
  <course>9.92</course>
  <speed>0.7234638899074369</speed>
  <fix>3d</fix>
</trkpt>
<trkpt lat="33.8101511" lon="-118.3940769">
  <ele>-0.113</ele>
  <time>2026-09-02T22:07:24Z</time>
  <course>9.92</course>
  <speed>0.7234638899074369</speed>
  <fix>3d</fix>
</trkpt>
<trkpt lat="33.8101512" lon="-118.3940769">
  <ele>-0.113</ele>
  <time>2026-09-02T22:07:24Z</time>
  <course>9.92</course>
  <speed>0.7234638899074369</speed>
  <fix>3d</fix>
</trkpt>
<trkpt lat="33.8101512" lon="-118.3940768">
  <ele>-0.113</ele>
  <time>2026-09-02T22:07:24Z</time>
  <course>9.92</course>
  <speed>0.7234638899074369</speed>
  <fix>3d</fix>
</trkpt>
<trkpt lat="33.8101512" lon="-118.3940768">
  <ele>-0.113</ele>
  <time>2026-09-02T22:07:24Z</time>
  <course>9.93</course>
  <speed>0.7234638899074369</speed>
  <fix>3d</fix>
</trkpt>
<trkpt lat="33.8101513" lon="-118.3940767">
  <ele>-0.113</ele>
  <time>2026-09-02T22:07:24Z</time>
  <course>9.93</course>
  <speed>0.7234638899074369</speed>
  <fix>3d</fix>
</trkpt>
<trkpt lat="33.8101513" lon="-118.3940767">
  <ele>-0.113</ele>
  <time>2026-09-02T22:07:24Z</time>
  <course>9.93</course>
  <speed>0.7234638899074369</speed>
  <fix>3d</fix>
</trkpt>
<trkpt lat="33.8101513" lon="-118.3940766">
  <ele>-0.113</ele>
  <time>2026-09-02T22:07:24Z</time>
  <course>9.93</course>
  <speed>0.7234638899074369</speed>
  <fix>3d</fix>
</trkpt>
<trkpt lat="33.8101514" lon="-118.3940766">
  <ele>-0.113</ele>
  <time>2026-09-02T22:07:24Z</time>
  <course>9.93</course>
  <speed>0.7234638899074369</speed>
  <fix>3d</fix>
</trkpt>
<trkpt lat="33.8101514" lon="-118.3940766">
  <ele>-0.113</ele>
  <time>2026-09-02T22:07:24Z</time>
  <course>9.93</course>
  <speed>0.7234638899074369</speed>
  <fix>3d</fix>
</trkpt>
<trkpt lat="33.8101514" lon="-118.3940765">
  <ele>-0.113</ele>
  <time>2026-09-02T22:07:24Z</time>
  <course>9.93</course>
  <speed>0.7234638899074369</speed>
  <fix>3d</fix>
</trkpt>
<trkpt lat="33.8101514" lon="-118.3940765">
  <ele>-0.113</ele>
  <time>2026-09-02T22:07:24Z</time>
  <course>9.93</course>
  <speed>0.7234638899074369</speed>
  <fix>3d</fix>
</trkpt>
<trkpt lat="33.8101506" lon="-118.3940781">
  <ele>-0.11</ele>
  <time>2026-09-02T22:07:24Z</time>
  <course>46.74</course>
  <speed>0.73</speed>
  <fix>3d</fix>
</trkpt>
<trkpt lat="33.8101515" lon="-118.3940764">
  <ele>-0.113</ele>
  <time>2026-09-02T22:07:24Z</time>
  <course>9.93</course>
  <speed>0.7234638899074369</speed>
  <fix>3d</fix>
</trkpt>
<trkpt lat="33.8101515" lon="-118.3940764">
  <ele>-0.113</ele>
  <time>2026-09-02T22:07:24Z</time>
  <course>9.93</course>
  <speed>0.7234638899074369</speed>
  <fix>3d</fix>
</trkpt>
<trkpt lat="33.8101516" lon="-118.3940763">
  <ele>-0.113</ele>
  <time>2026-09-02T22:07:24Z</time>
  <course>9.93</course>
  <speed>0.7234638899074369</speed>
  <fix>3d</fix>
</trkpt>
<trkpt lat="33.8101516" lon="-118.3940763">
  <ele>-0.113</ele>
  <time>2026-09-02T22:07:24Z</time>
  <course>9.93</course>
  <speed>0.7234638899074369</speed>
  <fix>3d</fix>
</trkpt>
<trkpt lat="33.8101516" lon="-118.3940762">
  <ele>-0.113</ele>
  <time>2026-09-02T22:07:24Z</time>
  <course>9.93</course>
  <speed>0.7234638899074369</speed>
  <fix>3d</fix>
</trkpt>
<trkpt lat="33.8101517" lon="-118.3940762">
  <ele>-0.114</ele>
  <time>2026-09-02T22:07:24Z</time>
  <course>9.94</course>
  <speed>0.7234638899074369</speed>
  <fix>3d</fix>
</trkpt>
<trkpt lat="33.8101517" lon="-118.3940761">
  <ele>-0.114</ele>
  <time>2026-09-02T22:07:24Z</time>
  <course>9.94</course>
  <speed>0.7234638899074369</speed>
  <fix>3d</fix>
</trkpt>
<trkpt lat="33.8101518" lon="-118.3940761">
  <ele>-0.114</ele>
  <time>2026-09-02T22:07:24Z</time>
  <course>9.94</course>
  <speed>0.7234638899074369</speed>
  <fix>3d</fix>
</trkpt>
<trkpt lat="33.8101518" lon="-118.394076">
  <ele>-0.114</ele>
  <time>2026-09-02T22:07:24Z</time>
  <course>9.94</course>
  <speed>0.7234638899074369</speed>
  <fix>3d</fix>
</trkpt>
<trkpt lat="33.8101519" lon="-118.394076">
  <ele>-0.114</ele>
  <time>2026-09-02T22:07:24Z</time>
  <course>9.94</course>
  <speed>0.7234638899074369</speed>
  <fix>3d</fix>
</trkpt>
<trkpt lat="33.8101519" lon="-118.3940759">
  <ele>-0.114</ele>
  <time>2026-09-02T22:07:24Z</time>
  <course>9.94</course>
  <speed>0.7234638899074369</speed>
  <fix>3d</fix>
</trkpt>
<trkpt lat="33.8101519" lon="-118.3940759">
  <ele>-0.114</ele>
  <time>2026-09-02T22:07:24Z</time>
  <course>9.94</course>
  <speed>0.7234638899074369</speed>
  <fix>3d</fix>
</trkpt>
<trkpt lat="33.8101515" lon="-118.3940769">
  <ele>-0.1</ele>
  <time>2026-09-02T22:07:24Z</time>
  <course>46.76</course>
  <speed>0.73</speed>
  <fix>3d</fix>
</trkpt>
<trkpt lat="33.8101519" lon="-118.3940759">
  <ele>-0.114</ele>
  <time>2026-09-02T22:07:24Z</time>
  <course>9.94</course>
  <speed>0.7234638899074369</speed>
  <fix>3d</fix>
</trkpt>
<trkpt lat="33.810152" lon="-118.3940758">
  <ele>-0.114</ele>
  <time>2026-09-02T22:07:24Z</time>
  <course>9.94</course>
  <speed>0.7234638899074369</speed>
  <fix>3d</fix>
</trkpt>
<trkpt lat="33.810152" lon="-118.3940757">
  <ele>-0.114</ele>
  <time>2026-09-02T22:07:24Z</time>
  <course>9.94</course>
  <speed>0.7234638899074369</speed>
  <fix>3d</fix>
</trkpt>
<trkpt lat="33.8101521" lon="-118.3940757">
  <ele>-0.114</ele>
  <time>2026-09-02T22:07:24Z</time>
  <course>9.94</course>
  <speed>0.7234638899074369</speed>
  <fix>3d</fix>
</trkpt>
<trkpt lat="33.8101521" lon="-118.3940756">
  <ele>-0.114</ele>
  <time>2026-09-02T22:07:24Z</time>
  <course>9.94</course>
  <speed>0.7234638899074369</speed>
  <fix>3d</fix>
</trkpt>
<trkpt lat="33.8101522" lon="-118.3940756">
  <ele>-0.114</ele>
  <time>2026-09-02T22:07:24Z</time>
  <course>9.95</course>
  <speed>0.7234638899074369</speed>
  <fix>3d</fix>
</trkpt>
<trkpt lat="33.8101522" lon="-118.3940755">
  <ele>-0.114</ele>
  <time>2026-09-02T22:07:24Z</time>
  <course>9.95</course>
  <speed>0.7234638899074369</speed>
  <fix>3d</fix>
</trkpt>
<trkpt lat="33.8101523" lon="-118.3940755">
  <ele>-0.114</ele>
  <time>2026-09-02T22:07:24Z</time>
  <course>9.95</course>
  <speed>0.7234638899074369</speed>
  <fix>3d</fix>
</trkpt>
<trkpt lat="33.8101523" lon="-118.3940754">
  <ele>-0.114</ele>
  <time>2026-09-02T22:07:24Z</time>
  <course>9.95</course>
  <speed>0.7234638899074369</speed>
  <fix>3d</fix>
</trkpt>
<trkpt lat="33.8101523" lon="-118.3940754">
  <ele>-0.114</ele>
  <time>2026-09-02T22:07:24Z</time>
  <course>9.95</course>
  <speed>0.7234638899074369</speed>
  <fix>3d</fix>
</trkpt>
<trkpt lat="33.8101523" lon="-118.3940754">
  <ele>-0.114</ele>
  <time>2026-09-02T22:07:24Z</time>
  <course>9.95</course>
  <speed>0.7234638899074369</speed>
  <fix>3d</fix>
</trkpt>
<trkpt lat="33.8101515" lon="-118.3940769">
  <ele>-0.1</ele>
  <time>2026-09-02T22:07:24Z</time>
  <course>46.76</course>
  <speed>0.73</speed>
  <fix>3d</fix>
</trkpt>
<trkpt lat="33.8101524" lon="-118.3940753">
  <ele>-0.114</ele>
  <time>2026-09-02T22:07:24Z</time>
  <course>9.95</course>
  <speed>0.7234638899074369</speed>
  <fix>3d</fix>
</trkpt>
<trkpt lat="33.8101525" lon="-118.3940752">
  <ele>-0.114</ele>
  <time>2026-09-02T22:07:24Z</time>
  <course>9.95</course>
  <speed>0.7234638899074369</speed>
  <fix>3d</fix>
</trkpt>
<trkpt lat="33.8101525" lon="-118.3940751">
  <ele>-0.114</ele>
  <time>2026-09-02T22:07:24Z</time>
  <course>9.95</course>
  <speed>0.7234638899074369</speed>
  <fix>3d</fix>
</trkpt>
<trkpt lat="33.8101525" lon="-118.3940751">
  <ele>-0.114</ele>
  <time>2026-09-02T22:07:24Z</time>
  <course>9.95</course>
  <speed>0.7234638899074369</speed>
  <fix>3d</fix>
</trkpt>
<trkpt lat="33.8101526" lon="-118.394075">
  <ele>-0.114</ele>
  <time>2026-09-02T22:07:24Z</time>
  <course>9.95</course>
  <speed>0.7234638899074369</speed>
  <fix>3d</fix>
</trkpt>
<trkpt lat="33.8101526" lon="-118.394075">
  <ele>-0.114</ele>
  <time>2026-09-02T22:07:24Z</time>
  <course>9.95</course>
  <speed>0.7234638899074369</speed>
  <fix>3d</fix>
</trkpt>
<trkpt lat="33.8101527" lon="-118.3940749">
  <ele>-0.114</ele>
  <time>2026-09-02T22:07:24Z</time>
  <course>9.96</course>
  <speed>0.7234638899074369</speed>
  <fix>3d</fix>
</trkpt>
<trkpt lat="33.8101527" lon="-118.3940749">
  <ele>-0.114</ele>
  <time>2026-09-02T22:07:24Z</time>
  <course>9.96</course>
  <speed>0.7234638899074369</speed>
  <fix>3d</fix>
</trkpt>
<trkpt lat="33.8101528" lon="-118.3940748">
  <ele>-0.114</ele>
  <time>2026-09-02T22:07:24Z</time>
  <course>9.96</course>
  <speed>0.7234638899074369</speed>
  <fix>3d</fix>
</trkpt>
<trkpt lat="33.8101528" lon="-118.3940748">
  <ele>-0.114</ele>
  <time>2026-09-02T22:07:24Z</time>
  <course>9.96</course>
  <speed>0.7234638899074369</speed>
  <fix>3d</fix>
</trkpt>
<trkpt lat="33.8101524" lon="-118.3940758">
  <ele>-0.1</ele>
  <time>2026-09-02T22:07:24Z</time>
  <course>46.78</course>
  <speed>0.73</speed>
  <fix>3d</fix>
</trkpt>
<trkpt lat="33.8101528" lon="-118.3940748">
  <ele>-0.114</ele>
  <time>2026-09-02T22:07:24Z</time>
  <course>9.96</course>
  <speed>0.7234638899074369</speed>
  <fix>3d</fix>
</trkpt>
<trkpt lat="33.8101529" lon="-118.3940747">
  <ele>-0.114</ele>
  <time>2026-09-02T22:07:24Z</time>
  <course>9.96</course>
  <speed>0.7234638899074369</speed>
  <fix>3d</fix>
</trkpt>
<trkpt lat="33.8101529" lon="-118.3940746">
  <ele>-0.114</ele>
  <time>2026-09-02T22:07:24Z</time>
  <course>9.96</course>
  <speed>0.7234638899074369</speed>
  <fix>3d</fix>
</trkpt>
<trkpt lat="33.8101529" lon="-118.3940746">
  <ele>-0.114</ele>
  <time>2026-09-02T22:07:24Z</time>
  <course>9.96</course>
  <speed>0.7234638899074369</speed>
  <fix>3d</fix>
</trkpt>
<trkpt lat="33.810153" lon="-118.3940745">
  <ele>-0.114</ele>
  <time>2026-09-02T22:07:24Z</time>
  <course>9.96</course>
  <speed>0.7234638899074369</speed>
  <fix>3d</fix>
</trkpt>
<trkpt lat="33.810153" lon="-118.3940745">
  <ele>-0.114</ele>
  <time>2026-09-02T22:07:24Z</time>
  <course>9.96</course>
  <speed>0.7234638899074369</speed>
  <fix>3d</fix>
</trkpt>
<trkpt lat="33.8101531" lon="-118.3940744">
  <ele>-0.114</ele>
  <time>2026-09-02T22:07:24Z</time>
  <course>9.96</course>
  <speed>0.7234638899074369</speed>
  <fix>3d</fix>
</trkpt>
<trkpt lat="33.8101531" lon="-118.3940744">
  <ele>-0.114</ele>
  <time>2026-09-02T22:07:24Z</time>
  <course>9.96</course>
  <speed>0.7234638899074369</speed>
  <fix>3d</fix>
</trkpt>
<trkpt lat="33.8101531" lon="-118.3940743">
  <ele>-0.114</ele>
  <time>2026-09-02T22:07:24Z</time>
  <course>9.96</course>
  <speed>0.7234638899074369</speed>
  <fix>3d</fix>
</trkpt>
<trkpt lat="33.8101532" lon="-118.3940743">
  <ele>-0.114</ele>
  <time>2026-09-02T22:07:24Z</time>
  <course>9.97</course>
  <speed>0.7234638899074369</speed>
  <fix>3d</fix>
</trkpt>
<trkpt lat="33.8101532" lon="-118.3940743">
  <ele>-0.114</ele>
  <time>2026-09-02T22:07:24Z</time>
  <course>9.97</course>
  <speed>0.7234638899074369</speed>
  <fix>3d</fix>
</trkpt>
<trkpt lat="33.8101532" lon="-118.3940742">
  <ele>-0.114</ele>
  <time>2026-09-02T22:07:24Z</time>
  <course>9.97</course>
  <speed>0.7234638899074369</speed>
  <fix>3d</fix>
</trkpt>
<trkpt lat="33.8101532" lon="-118.3940742">
  <ele>-0.114</ele>
  <time>2026-09-02T22:07:24Z</time>
  <course>9.97</course>
  <speed>0.7234638899074369</speed>
  <fix>3d</fix>
</trkpt>
<trkpt lat="33.8101524" lon="-118.3940758">
  <ele>-0.1</ele>
  <time>2026-09-02T22:07:24Z</time>
  <course>46.78</course>
  <speed>0.73</speed>
  <fix>3d</fix>
</trkpt>
<trkpt lat="33.8101533" lon="-118.3940742">
  <ele>-0.114</ele>
  <time>2026-09-02T22:07:24Z</time>
  <course>9.97</course>
  <speed>0.7234638899074369</speed>
  <fix>3d</fix>
</trkpt>
<trkpt lat="33.8101533" lon="-118.3940741">
  <ele>-0.114</ele>
  <time>2026-09-02T22:07:24Z</time>
  <course>9.97</course>
  <speed>0.7234638899074369</speed>
  <fix>3d</fix>
</trkpt>
<trkpt lat="33.8101534" lon="-118.3940741">
  <ele>-0.113</ele>
  <time>2026-09-02T22:07:24Z</time>
  <course>9.97</course>
  <speed>0.7234638899074369</speed>
  <fix>3d</fix>
</trkpt>
<trkpt lat="33.8101534" lon="-118.394074">
  <ele>-0.113</ele>
  <time>2026-09-02T22:07:24Z</time>
  <course>9.97</course>
  <speed>0.7234638899074369</speed>
  <fix>3d</fix>
</trkpt>
<trkpt lat="33.8101534" lon="-118.3940739">
  <ele>-0.113</ele>
  <time>2026-09-02T22:07:24Z</time>
  <course>9.97</course>
  <speed>0.7234638899074369</speed>
  <fix>3d</fix>
</trkpt>
<trkpt lat="33.8101535" lon="-118.3940739">
  <ele>-0.113</ele>
  <time>2026-09-02T22:07:24Z</time>
  <course>9.97</course>
  <speed>0.7234638899074369</speed>
  <fix>3d</fix>
</trkpt>
<trkpt lat="33.8101535" lon="-118.3940738">
  <ele>-0.113</ele>
  <time>2026-09-02T22:07:24Z</time>
  <course>9.97</course>
  <speed>0.7234638899074369</speed>
  <fix>3d</fix>
</trkpt>
<trkpt lat="33.8101536" lon="-118.3940738">
  <ele>-0.114</ele>
  <time>2026-09-02T22:07:24Z</time>
  <course>9.97</course>
  <speed>0.7234638899074369</speed>
  <fix>3d</fix>
</trkpt>
<trkpt lat="33.8101536" lon="-118.3940737">
  <ele>-0.114</ele>
  <time>2026-09-02T22:07:24Z</time>
  <course>9.97</course>
  <speed>0.7234638899074369</speed>
  <fix>3d</fix>
</trkpt>
<trkpt lat="33.8101537" lon="-118.3940737">
  <ele>-0.114</ele>
  <time>2026-09-02T22:07:24Z</time>
  <course>9.98</course>
  <speed>0.7234638899074369</speed>
  <fix>3d</fix>
</trkpt>
<trkpt lat="33.8101537" lon="-118.3940736">
  <ele>-0.114</ele>
  <time>2026-09-02T22:07:24Z</time>
  <course>9.98</course>
  <speed>0.7234638899074369</speed>
  <fix>3d</fix>
</trkpt>
<trkpt lat="33.8101533" lon="-118.3940746">
  <ele>-0.1</ele>
  <time>2026-09-02T22:07:24Z</time>
  <course>46.8</course>
  <speed>0.73</speed>
  <fix>3d</fix>
</trkpt>
<trkpt lat="33.8101537" lon="-118.3940736">
  <ele>-0.114</ele>
  <time>2026-09-02T22:07:24Z</time>
  <course>9.98</course>
  <speed>0.7234638899074369</speed>
  <fix>3d</fix>
</trkpt>
<trkpt lat="33.8101538" lon="-118.3940735">
  <ele>-0.114</ele>
  <time>2026-09-02T22:07:24Z</time>
  <course>9.98</course>
  <speed>0.7234638899074369</speed>
  <fix>3d</fix>
</trkpt>
<trkpt lat="33.8101538" lon="-118.3940735">
  <ele>-0.114</ele>
  <time>2026-09-02T22:07:24Z</time>
  <course>9.98</course>
  <speed>0.7234638899074369</speed>
  <fix>3d</fix>
</trkpt>
<trkpt lat="33.8101538" lon="-118.3940734">
  <ele>-0.114</ele>
  <time>2026-09-02T22:07:24Z</time>
  <course>9.98</course>
  <speed>0.7234638899074369</speed>
  <fix>3d</fix>
</trkpt>
<trkpt lat="33.8101539" lon="-118.3940734">
  <ele>-0.114</ele>
  <time>2026-09-02T22:07:24Z</time>
  <course>9.98</course>
  <speed>0.7234638899074369</speed>
  <fix>3d</fix>
</trkpt>
<trkpt lat="33.8101539" lon="-118.3940734">
  <ele>-0.114</ele>
  <time>2026-09-02T22:07:24Z</time>
  <course>9.98</course>
  <speed>0.7234638899074369</speed>
  <fix>3d</fix>
</trkpt>
<trkpt lat="33.8101539" lon="-118.3940733">
  <ele>-0.114</ele>
  <time>2026-09-02T22:07:24Z</time>
  <course>9.98</course>
  <speed>0.7234638899074369</speed>
  <fix>3d</fix>
</trkpt>
<trkpt lat="33.810154" lon="-118.3940733">
  <ele>-0.114</ele>
  <time>2026-09-02T22:07:24Z</time>
  <course>9.98</course>
  <speed>0.7234638899074369</speed>
  <fix>3d</fix>
</trkpt>
<trkpt lat="33.810154" lon="-118.3940732">
  <ele>-0.114</ele>
  <time>2026-09-02T22:07:24Z</time>
  <course>9.98</course>
  <speed>0.7234638899074369</speed>
  <fix>3d</fix>
</trkpt>
<trkpt lat="33.8101541" lon="-118.3940732">
  <ele>-0.114</ele>
  <time>2026-09-02T22:07:24Z</time>
  <course>9.98</course>
  <speed>0.7234638899074369</speed>
  <fix>3d</fix>
</trkpt>
<trkpt lat="33.8101541" lon="-118.3940731">
  <ele>-0.114</ele>
  <time>2026-09-02T22:07:24Z</time>
  <course>9.98</course>
  <speed>0.7234638899074369</speed>
  <fix>3d</fix>
</trkpt>
<trkpt lat="33.8101541" lon="-118.3940731">
  <ele>-0.114</ele>
  <time>2026-09-02T22:07:24Z</time>
  <course>9.99</course>
  <speed>0.7234638899074369</speed>
  <fix>3d</fix>
</trkpt>
<trkpt lat="33.8101541" lon="-118.3940731">
  <ele>-0.114</ele>
  <time>2026-09-02T22:07:24Z</time>
  <course>9.99</course>
  <speed>0.7234638899074369</speed>
  <fix>3d</fix>
</trkpt>
<trkpt lat="33.8101533" lon="-118.3940746">
  <ele>-0.1</ele>
  <time>2026-09-02T22:07:24Z</time>
  <course>46.8</course>
  <speed>0.73</speed>
  <fix>3d</fix>
</trkpt>
<trkpt lat="33.8101542" lon="-118.394073">
  <ele>-0.114</ele>
  <time>2026-09-02T22:07:24Z</time>
  <course>9.99</course>
  <speed>0.7234638899074369</speed>
  <fix>3d</fix>
</trkpt>
<trkpt lat="33.8101543" lon="-118.3940729">
  <ele>-0.114</ele>
  <time>2026-09-02T22:07:24Z</time>
  <course>9.99</course>
  <speed>0.7234638899074369</speed>
  <fix>3d</fix>
</trkpt>
<trkpt lat="33.8101543" lon="-118.3940729">
  <ele>-0.114</ele>
  <time>2026-09-02T22:07:24Z</time>
  <course>9.99</course>
  <speed>0.7234638899074369</speed>
  <fix>3d</fix>
</trkpt>
<trkpt lat="33.8101543" lon="-118.3940728">
  <ele>-0.114</ele>
  <time>2026-09-02T22:07:24Z</time>
  <course>9.99</course>
  <speed>0.7234638899074369</speed>
  <fix>3d</fix>
</trkpt>
<trkpt lat="33.8101544" lon="-118.3940728">
  <ele>-0.114</ele>
  <time>2026-09-02T22:07:24Z</time>
  <course>9.99</course>
  <speed>0.7234638899074369</speed>
  <fix>3d</fix>
</trkpt>
<trkpt lat="33.8101544" lon="-118.3940727">
  <ele>-0.114</ele>
  <time>2026-09-02T22:07:24Z</time>
  <course>9.99</course>
  <speed>0.7234638899074369</speed>
  <fix>3d</fix>
</trkpt>
<trkpt lat="33.8101544" lon="-118.3940727">
  <ele>-0.114</ele>
  <time>2026-09-02T22:07:24Z</time>
  <course>9.99</course>
  <speed>0.7234638899074369</speed>
  <fix>3d</fix>
</trkpt>
<trkpt lat="33.8101545" lon="-118.3940726">
  <ele>-0.114</ele>
  <time>2026-09-02T22:07:24Z</time>
  <course>9.99</course>
  <speed>0.7234638899074369</speed>
  <fix>3d</fix>
</trkpt>
<trkpt lat="33.8101545" lon="-118.3940726">
  <ele>-0.114</ele>
  <time>2026-09-02T22:07:24Z</time>
  <course>9.99</course>
  <speed>0.7234638899074369</speed>
  <fix>3d</fix>
</trkpt>
<trkpt lat="33.8101546" lon="-118.3940725">
  <ele>-0.115</ele>
  <time>2026-09-02T22:07:24Z</time>
  <course>9.99</course>
  <speed>0.7234638899074369</speed>
  <fix>3d</fix>
</trkpt>
<trkpt lat="33.8101546" lon="-118.3940725">
  <ele>-0.115</ele>
  <time>2026-09-02T22:07:24Z</time>
  <course>10.0</course>
  <speed>0.7234638899074369</speed>
  <fix>3d</fix>
</trkpt>
<trkpt lat="33.8101542" lon="-118.3940735">
  <ele>-0.1</ele>
  <time>2026-09-02T22:07:24Z</time>
  <course>46.82</course>
  <speed>0.73</speed>
  <fix>3d</fix>
</trkpt>
<trkpt lat="33.8101546" lon="-118.3940725">
  <ele>-0.115</ele>
  <time>2026-09-02T22:07:24Z</time>
  <course>10.0</course>
  <speed>0.7234638899074369</speed>
  <fix>3d</fix>
</trkpt>
<trkpt lat="33.8101547" lon="-118.3940724">
  <ele>-0.115</ele>
  <time>2026-09-02T22:07:24Z</time>
  <course>10.0</course>
  <speed>0.7234638899074369</speed>
  <fix>3d</fix>
</trkpt>
<trkpt lat="33.8101547" lon="-118.3940723">
  <ele>-0.115</ele>
  <time>2026-09-02T22:07:24Z</time>
  <course>10.0</course>
  <speed>0.7234638899074369</speed>
  <fix>3d</fix>
</trkpt>
<trkpt lat="33.8101547" lon="-118.3940723">
  <ele>-0.115</ele>
  <time>2026-09-02T22:07:24Z</time>
  <course>10.0</course>
  <speed>0.7234638899074369</speed>
  <fix>3d</fix>
</trkpt>
<trkpt lat="33.8101548" lon="-118.3940723">
  <ele>-0.115</ele>
  <time>2026-09-02T22:07:24Z</time>
  <course>10.0</course>
  <speed>0.7234638899074369</speed>
  <fix>3d</fix>
</trkpt>
<trkpt lat="33.8101548" lon="-118.3940722">
  <ele>-0.115</ele>
  <time>2026-09-02T22:07:24Z</time>
  <course>10.0</course>
  <speed>0.7234638899074369</speed>
  <fix>3d</fix>
</trkpt>
<trkpt lat="33.8101548" lon="-118.3940722">
  <ele>-0.115</ele>
  <time>2026-09-02T22:07:24Z</time>
  <course>10.0</course>
  <speed>0.7234638899074369</speed>
  <fix>3d</fix>
</trkpt>
<trkpt lat="33.8101549" lon="-118.3940721">
  <ele>-0.115</ele>
  <time>2026-09-02T22:07:24Z</time>
  <course>10.0</course>
  <speed>0.7234638899074369</speed>
  <fix>3d</fix>
</trkpt>
<trkpt lat="33.8101549" lon="-118.3940721">
  <ele>-0.115</ele>
  <time>2026-09-02T22:07:24Z</time>
  <course>10.0</course>
  <speed>0.7234638899074369</speed>
  <fix>3d</fix>
</trkpt>
<trkpt lat="33.810155" lon="-118.394072">
  <ele>-0.115</ele>
  <time>2026-09-02T22:07:24Z</time>
  <course>10.0</course>
  <speed>0.7234638899074369</speed>
  <fix>3d</fix>
</trkpt>
<trkpt lat="33.810155" lon="-118.394072">
  <ele>-0.116</ele>
  <time>2026-09-02T22:07:24Z</time>
  <course>10.0</course>
  <speed>0.7234638899074369</speed>
  <fix>3d</fix>
</trkpt>
<trkpt lat="33.810155" lon="-118.3940719">
  <ele>-0.116</ele>
  <time>2026-09-02T22:07:24Z</time>
  <course>10.0</course>
  <speed>0.7234638899074369</speed>
  <fix>3d</fix>
</trkpt>
<trkpt lat="33.8101542" lon="-118.3940735">
  <ele>-0.1</ele>
  <time>2026-09-02T22:07:24Z</time>
  <course>46.82</course>
  <speed>0.73</speed>
  <fix>3d</fix>
</trkpt>
<trkpt lat="33.8101551" lon="-118.3940719">
  <ele>-0.116</ele>
  <time>2026-09-02T22:07:24Z</time>
  <course>10.0</course>
  <speed>0.7234638899074369</speed>
  <fix>3d</fix>
</trkpt>
<trkpt lat="33.8101551" lon="-118.3940718">
  <ele>-0.116</ele>
  <time>2026-09-02T22:07:24Z</time>
  <course>10.01</course>
  <speed>0.7234638899074369</speed>
  <fix>3d</fix>
</trkpt>
<trkpt lat="33.8101552" lon="-118.3940718">
  <ele>-0.116</ele>
  <time>2026-09-02T22:07:24Z</time>
  <course>10.01</course>
  <speed>0.7234638899074369</speed>
  <fix>3d</fix>
</trkpt>
<trkpt lat="33.8101552" lon="-118.3940717">
  <ele>-0.116</ele>
  <time>2026-09-02T22:07:24Z</time>
  <course>10.01</course>
  <speed>0.7234638899074369</speed>
  <fix>3d</fix>
</trkpt>
<trkpt lat="33.8101552" lon="-118.3940717">
  <ele>-0.116</ele>
  <time>2026-09-02T22:07:24Z</time>
  <course>10.01</course>
  <speed>0.7234638899074369</speed>
  <fix>3d</fix>
</trkpt>
<trkpt lat="33.8101553" lon="-118.3940716">
  <ele>-0.116</ele>
  <time>2026-09-02T22:07:24Z</time>
  <course>10.01</course>
  <speed>0.7234638899074369</speed>
  <fix>3d</fix>
</trkpt>
<trkpt lat="33.8101553" lon="-118.3940716">
  <ele>-0.116</ele>
  <time>2026-09-02T22:07:24Z</time>
  <course>10.01</course>
  <speed>0.7234638899074369</speed>
  <fix>3d</fix>
</trkpt>
<trkpt lat="33.8101553" lon="-118.3940715">
  <ele>-0.116</ele>
  <time>2026-09-02T22:07:24Z</time>
  <course>10.01</course>
  <speed>0.7234638899074369</speed>
  <fix>3d</fix>
</trkpt>
<trkpt lat="33.8101554" lon="-118.3940715">
  <ele>-0.116</ele>
  <time>2026-09-02T22:07:24Z</time>
  <course>10.01</course>
  <speed>0.7234638899074369</speed>
  <fix>3d</fix>
</trkpt>
<trkpt lat="33.8101554" lon="-118.3940714">
  <ele>-0.116</ele>
  <time>2026-09-02T22:07:24Z</time>
  <course>10.01</course>
  <speed>0.7234638899074369</speed>
  <fix>3d</fix>
</trkpt>
<trkpt lat="33.8101554" lon="-118.3940714">
  <ele>-0.116</ele>
  <time>2026-09-02T22:07:24Z</time>
  <course>10.01</course>
  <speed>0.7234638899074369</speed>
  <fix>3d</fix>
</trkpt>
<trkpt lat="33.8101555" lon="-118.3940713">
  <ele>-0.116</ele>
  <time>2026-09-02T22:07:24Z</time>
  <course>10.01</course>
  <speed>0.7234638899074369</speed>
  <fix>3d</fix>
</trkpt>
<trkpt lat="33.8101555" lon="-118.3940713">
  <ele>-0.116</ele>
  <time>2026-09-02T22:07:24Z</time>
  <course>10.01</course>
  <speed>0.7234638899074369</speed>
  <fix>3d</fix>
</trkpt>
<trkpt lat="33.8101551" lon="-118.3940723">
  <ele>-0.11</ele>
  <time>2026-09-02T22:07:24Z</time>
  <course>46.83</course>
  <speed>0.73</speed>
  <fix>3d</fix>
</trkpt>
<trkpt lat="33.8101555" lon="-118.3940713">
  <ele>-0.116</ele>
  <time>2026-09-02T22:07:24Z</time>
  <course>10.01</course>
  <speed>0.7234638899074369</speed>
  <fix>3d</fix>
</trkpt>
<trkpt lat="33.8101556" lon="-118.3940712">
  <ele>-0.116</ele>
  <time>2026-09-02T22:07:24Z</time>
  <course>10.01</course>
  <speed>0.7234638899074369</speed>
  <fix>3d</fix>
</trkpt>
<trkpt lat="33.8101556" lon="-118.3940711">
  <ele>-0.116</ele>
  <time>2026-09-02T22:07:24Z</time>
  <course>10.02</course>
  <speed>0.7234638899074369</speed>
  <fix>3d</fix>
</trkpt>
<trkpt lat="33.8101557" lon="-118.3940711">
  <ele>-0.116</ele>
  <time>2026-09-02T22:07:24Z</time>
  <course>10.02</course>
  <speed>0.7234638899074369</speed>
  <fix>3d</fix>
</trkpt>
<trkpt lat="33.8101557" lon="-118.394071">
  <ele>-0.116</ele>
  <time>2026-09-02T22:07:24Z</time>
  <course>10.02</course>
  <speed>0.7234638899074369</speed>
  <fix>3d</fix>
</trkpt>
<trkpt lat="33.8101558" lon="-118.394071">
  <ele>-0.116</ele>
  <time>2026-09-02T22:07:24Z</time>
  <course>10.02</course>
  <speed>0.7234638899074369</speed>
  <fix>3d</fix>
</trkpt>
<trkpt lat="33.8101558" lon="-118.3940709">
  <ele>-0.116</ele>
  <time>2026-09-02T22:07:24Z</time>
  <course>10.02</course>
  <speed>0.7234638899074369</speed>
  <fix>3d</fix>
</trkpt>
<trkpt lat="33.8101558" lon="-118.3940709">
  <ele>-0.116</ele>
  <time>2026-09-02T22:07:24Z</time>
  <course>10.02</course>
  <speed>0.7234638899074369</speed>
  <fix>3d</fix>
</trkpt>
<trkpt lat="33.8101559" lon="-118.3940708">
  <ele>-0.116</ele>
  <time>2026-09-02T22:07:24Z</time>
  <course>10.02</course>
  <speed>0.7234638899074369</speed>
  <fix>3d</fix>
</trkpt>
<trkpt lat="33.8101559" lon="-118.3940708">
  <ele>-0.116</ele>
  <time>2026-09-02T22:07:24Z</time>
  <course>10.02</course>
  <speed>0.7234638899074369</speed>
  <fix>3d</fix>
</trkpt>
<trkpt lat="33.8101559" lon="-118.3940708">
  <ele>-0.116</ele>
  <time>2026-09-02T22:07:24Z</time>
  <course>10.02</course>
  <speed>0.7234638899074369</speed>
  <fix>3d</fix>
</trkpt>
<trkpt lat="33.8101551" lon="-118.3940723">
  <ele>-0.11</ele>
  <time>2026-09-02T22:07:24Z</time>
  <course>46.83</course>
  <speed>0.73</speed>
  <fix>3d</fix>
</trkpt>
<trkpt lat="33.810156" lon="-118.3940707">
  <ele>-0.116</ele>
  <time>2026-09-02T22:07:24Z</time>
  <course>10.02</course>
  <speed>0.7234638899074369</speed>
  <fix>3d</fix>
</trkpt>
<trkpt lat="33.810156" lon="-118.3940707">
  <ele>-0.116</ele>
  <time>2026-09-02T22:07:24Z</time>
  <course>10.02</course>
  <speed>0.7234638899074369</speed>
  <fix>3d</fix>
</trkpt>
<trkpt lat="33.8101561" lon="-118.3940706">
  <ele>-0.116</ele>
  <time>2026-09-02T22:07:24Z</time>
  <course>10.02</course>
  <speed>0.7234638899074369</speed>
  <fix>3d</fix>
</trkpt>
<trkpt lat="33.8101561" lon="-118.3940706">
  <ele>-0.116</ele>
  <time>2026-09-02T22:07:24Z</time>
  <course>10.03</course>
  <speed>0.7234638899074369</speed>
  <fix>3d</fix>
</trkpt>
<trkpt lat="33.8101561" lon="-118.3940705">
  <ele>-0.116</ele>
  <time>2026-09-02T22:07:24Z</time>
  <course>10.03</course>
  <speed>0.7234638899074369</speed>
  <fix>3d</fix>
</trkpt>
<trkpt lat="33.8101562" lon="-118.3940705">
  <ele>-0.116</ele>
  <time>2026-09-02T22:07:24Z</time>
  <course>10.03</course>
  <speed>0.7234638899074369</speed>
  <fix>3d</fix>
</trkpt>
<trkpt lat="33.8101562" lon="-118.3940704">
  <ele>-0.116</ele>
  <time>2026-09-02T22:07:24Z</time>
  <course>10.03</course>
  <speed>0.7234638899074369</speed>
  <fix>3d</fix>
</trkpt>
<trkpt lat="33.8101562" lon="-118.3940704">
  <ele>-0.116</ele>
  <time>2026-09-02T22:07:24Z</time>
  <course>10.03</course>
  <speed>0.7234638899074369</speed>
  <fix>3d</fix>
</trkpt>
<trkpt lat="33.8101563" lon="-118.3940703">
  <ele>-0.116</ele>
  <time>2026-09-02T22:07:24Z</time>
  <course>10.03</course>
  <speed>0.7234638899074369</speed>
  <fix>3d</fix>
</trkpt>
<trkpt lat="33.8101563" lon="-118.3940703">
  <ele>-0.116</ele>
  <time>2026-09-02T22:07:24Z</time>
  <course>10.03</course>
  <speed>0.7234638899074369</speed>
  <fix>3d</fix>
</trkpt>
<trkpt lat="33.8101563" lon="-118.3940703">
  <ele>-0.116</ele>
  <time>2026-09-02T22:07:24Z</time>
  <course>10.03</course>
  <speed>0.7234638899074369</speed>
  <fix>3d</fix>
</trkpt>
<trkpt lat="33.8101564" lon="-118.3940702">
  <ele>-0.116</ele>
  <time>2026-09-02T22:07:24Z</time>
  <course>10.03</course>
  <speed>0.7234638899074369</speed>
  <fix>3d</fix>
</trkpt>
<trkpt lat="33.8101564" lon="-118.3940702">
  <ele>-0.116</ele>
  <time>2026-09-02T22:07:24Z</time>
  <course>10.03</course>
  <speed>0.7234638899074369</speed>
  <fix>3d</fix>
</trkpt>
<trkpt lat="33.810156" lon="-118.3940711">
  <ele>-0.1</ele>
  <time>2026-09-02T22:07:24Z</time>
  <course>46.85</course>
  <speed>0.73</speed>
  <fix>3d</fix>
</trkpt>
<trkpt lat="33.8101564" lon="-118.3940702">
  <ele>-0.116</ele>
  <time>2026-09-02T22:07:24Z</time>
  <course>10.03</course>
  <speed>0.7234638899074369</speed>
  <fix>3d</fix>
</trkpt>
<trkpt lat="33.8101564" lon="-118.3940701">
  <ele>-0.115</ele>
  <time>2026-09-02T22:07:24Z</time>
  <course>10.03</course>
  <speed>0.7234638899074369</speed>
  <fix>3d</fix>
</trkpt>
<trkpt lat="33.8101565" lon="-118.39407">
  <ele>-0.115</ele>
  <time>2026-09-02T22:07:24Z</time>
  <course>10.03</course>
  <speed>0.7234638899074369</speed>
  <fix>3d</fix>
</trkpt>
<trkpt lat="33.8101565" lon="-118.39407">
  <ele>-0.115</ele>
  <time>2026-09-02T22:07:24Z</time>
  <course>10.03</course>
  <speed>0.7234638899074369</speed>
  <fix>3d</fix>
</trkpt>
<trkpt lat="33.8101566" lon="-118.3940699">
  <ele>-0.115</ele>
  <time>2026-09-02T22:07:24Z</time>
  <course>10.04</course>
  <speed>0.7234638899074369</speed>
  <fix>3d</fix>
</trkpt>
<trkpt lat="33.8101566" lon="-118.3940699">
  <ele>-0.115</ele>
  <time>2026-09-02T22:07:24Z</time>
  <course>10.04</course>
  <speed>0.7234638899074369</speed>
  <fix>3d</fix>
</trkpt>
<trkpt lat="33.8101567" lon="-118.3940698">
  <ele>-0.115</ele>
  <time>2026-09-02T22:07:24Z</time>
  <course>10.04</course>
  <speed>0.7234638899074369</speed>
  <fix>3d</fix>
</trkpt>
<trkpt lat="33.8101567" lon="-118.3940698">
  <ele>-0.115</ele>
  <time>2026-09-02T22:07:24Z</time>
  <course>10.04</course>
  <speed>0.7234638899074369</speed>
  <fix>3d</fix>
</trkpt>
<trkpt lat="33.8101567" lon="-118.3940698">
  <ele>-0.115</ele>
  <time>2026-09-02T22:07:24Z</time>
  <course>10.04</course>
  <speed>0.7234638899074369</speed>
  <fix>3d</fix>
</trkpt>
<trkpt lat="33.8101568" lon="-118.3940697">
  <ele>-0.115</ele>
  <time>2026-09-02T22:07:24Z</time>
  <course>10.04</course>
  <speed>0.7234638899074369</speed>
  <fix>3d</fix>
</trkpt>
<trkpt lat="33.8101568" lon="-118.3940697">
  <ele>-0.115</ele>
  <time>2026-09-02T22:07:24Z</time>
  <course>10.04</course>
  <speed>0.7234638899074369</speed>
  <fix>3d</fix>
</trkpt>
<trkpt lat="33.8101568" lon="-118.3940696">
  <ele>-0.115</ele>
  <time>2026-09-02T22:07:24Z</time>
  <course>10.04</course>
  <speed>0.7234638899074369</speed>
  <fix>3d</fix>
</trkpt>
<trkpt lat="33.8101568" lon="-118.3940696">
  <ele>-0.115</ele>
  <time>2026-09-02T22:07:24Z</time>
  <course>10.04</course>
  <speed>0.7234638899074369</speed>
  <fix>3d</fix>
</trkpt>
<trkpt lat="33.810156" lon="-118.3940711">
  <ele>-0.1</ele>
  <time>2026-09-02T22:07:24Z</time>
  <course>46.85</course>
  <speed>0.73</speed>
  <fix>3d</fix>
</trkpt>
<trkpt lat="33.8101569" lon="-118.3940696">
  <ele>-0.115</ele>
  <time>2026-09-02T22:07:24Z</time>
  <course>10.04</course>
  <speed>0.7234638899074369</speed>
  <fix>3d</fix>
</trkpt>
<trkpt lat="33.8101569" lon="-118.3940695">
  <ele>-0.115</ele>
  <time>2026-09-02T22:07:24Z</time>
  <course>10.04</course>
  <speed>0.7234638899074369</speed>
  <fix>3d</fix>
</trkpt>
<trkpt lat="33.810157" lon="-118.3940695">
  <ele>-0.115</ele>
  <time>2026-09-02T22:07:24Z</time>
  <course>10.04</course>
  <speed>0.7234638899074369</speed>
  <fix>3d</fix>
</trkpt>
<trkpt lat="33.810157" lon="-118.3940694">
  <ele>-0.114</ele>
  <time>2026-09-02T22:07:24Z</time>
  <course>10.04</course>
  <speed>0.7234638899074369</speed>
  <fix>3d</fix>
</trkpt>
<trkpt lat="33.810157" lon="-118.3940693">
  <ele>-0.114</ele>
  <time>2026-09-02T22:07:24Z</time>
  <course>10.04</course>
  <speed>0.7234638899074369</speed>
  <fix>3d</fix>
</trkpt>
<trkpt lat="33.8101571" lon="-118.3940693">
  <ele>-0.114</ele>
  <time>2026-09-02T22:07:24Z</time>
  <course>10.05</course>
  <speed>0.7234638899074369</speed>
  <fix>3d</fix>
</trkpt>
<trkpt lat="33.8101571" lon="-118.3940692">
  <ele>-0.115</ele>
  <time>2026-09-02T22:07:24Z</time>
  <course>10.05</course>
  <speed>0.7234638899074369</speed>
  <fix>3d</fix>
</trkpt>
<trkpt lat="33.8101572" lon="-118.3940692">
  <ele>-0.115</ele>
  <time>2026-09-02T22:07:24Z</time>
  <course>10.05</course>
  <speed>0.7234638899074369</speed>
  <fix>3d</fix>
</trkpt>
<trkpt lat="33.8101572" lon="-118.3940692">
  <ele>-0.115</ele>
  <time>2026-09-02T22:07:24Z</time>
  <course>10.05</course>
  <speed>0.7234638899074369</speed>
  <fix>3d</fix>
</trkpt>
<trkpt lat="33.8101572" lon="-118.3940691">
  <ele>-0.115</ele>
  <time>2026-09-02T22:07:24Z</time>
  <course>10.05</course>
  <speed>0.7234638899074369</speed>
  <fix>3d</fix>
</trkpt>
<trkpt lat="33.8101573" lon="-118.3940691">
  <ele>-0.115</ele>
  <time>2026-09-02T22:07:24Z</time>
  <course>10.05</course>
  <speed>0.7234638899074369</speed>
  <fix>3d</fix>
</trkpt>
<trkpt lat="33.8101573" lon="-118.394069">
  <ele>-0.115</ele>
  <time>2026-09-02T22:07:24Z</time>
  <course>10.05</course>
  <speed>0.7234638899074369</speed>
  <fix>3d</fix>
</trkpt>
<trkpt lat="33.8101569" lon="-118.39407">
  <ele>-0.1</ele>
  <time>2026-09-02T22:07:24Z</time>
  <course>46.87</course>
  <speed>0.73</speed>
  <fix>3d</fix>
</trkpt>
<trkpt lat="33.8101573" lon="-118.394069">
  <ele>-0.115</ele>
  <time>2026-09-02T22:07:24Z</time>
  <course>10.05</course>
  <speed>0.7234638899074369</speed>
  <fix>3d</fix>
</trkpt>
<trkpt lat="33.8101574" lon="-118.3940689">
  <ele>-0.115</ele>
  <time>2026-09-02T22:07:24Z</time>
  <course>10.05</course>
  <speed>0.7234638899074369</speed>
  <fix>3d</fix>
</trkpt>
<trkpt lat="33.8101574" lon="-118.3940689">
  <ele>-0.115</ele>
  <time>2026-09-02T22:07:24Z</time>
  <course>10.05</course>
  <speed>0.7234638899074369</speed>
  <fix>3d</fix>
</trkpt>
<trkpt lat="33.8101574" lon="-118.3940688">
  <ele>-0.115</ele>
  <time>2026-09-02T22:07:24Z</time>
  <course>10.05</course>
  <speed>0.7234638899074369</speed>
  <fix>3d</fix>
</trkpt>
<trkpt lat="33.8101575" lon="-118.3940688">
  <ele>-0.115</ele>
  <time>2026-09-02T22:07:24Z</time>
  <course>10.05</course>
  <speed>0.7234638899074369</speed>
  <fix>3d</fix>
</trkpt>
<trkpt lat="33.8101575" lon="-118.3940687">
  <ele>-0.115</ele>
  <time>2026-09-02T22:07:24Z</time>
  <course>10.05</course>
  <speed>0.7234638899074369</speed>
  <fix>3d</fix>
</trkpt>
<trkpt lat="33.8101576" lon="-118.3940687">
  <ele>-0.115</ele>
  <time>2026-09-02T22:07:24Z</time>
  <course>10.05</course>
  <speed>0.7234638899074369</speed>
  <fix>3d</fix>
</trkpt>
<trkpt lat="33.8101576" lon="-118.3940686">
  <ele>-0.115</ele>
  <time>2026-09-02T22:07:24Z</time>
  <course>10.05</course>
  <speed>0.7234638899074369</speed>
  <fix>3d</fix>
</trkpt>
<trkpt lat="33.8101576" lon="-118.3940686">
  <ele>-0.115</ele>
  <time>2026-09-02T22:07:24Z</time>
  <course>10.06</course>
  <speed>0.7234638899074369</speed>
  <fix>3d</fix>
</trkpt>
<trkpt lat="33.8101577" lon="-118.3940686">
  <ele>-0.115</ele>
  <time>2026-09-02T22:07:24Z</time>
  <course>10.06</course>
  <speed>0.7234638899074369</speed>
  <fix>3d</fix>
</trkpt>
<trkpt lat="33.8101577" lon="-118.3940685">
  <ele>-0.115</ele>
  <time>2026-09-02T22:07:24Z</time>
  <course>10.06</course>
  <speed>0.7234638899074369</speed>
  <fix>3d</fix>
</trkpt>
<trkpt lat="33.8101577" lon="-118.3940685">
  <ele>-0.115</ele>
  <time>2026-09-02T22:07:24Z</time>
  <course>10.06</course>
  <speed>0.7234638899074369</speed>
  <fix>3d</fix>
</trkpt>
<trkpt lat="33.8101577" lon="-118.3940684">
  <ele>-0.115</ele>
  <time>2026-09-02T22:07:24Z</time>
  <course>10.06</course>
  <speed>0.7234638899074369</speed>
  <fix>3d</fix>
</trkpt>
<trkpt lat="33.8101569" lon="-118.39407">
  <ele>-0.1</ele>
  <time>2026-09-02T22:07:24Z</time>
  <course>46.87</course>
  <speed>0.73</speed>
  <fix>3d</fix>
</trkpt>
<trkpt lat="33.8101578" lon="-118.3940684">
  <ele>-0.115</ele>
  <time>2026-09-02T22:07:24Z</time>
  <course>10.06</course>
  <speed>0.7234638899074369</speed>
  <fix>3d</fix>
</trkpt>
<trkpt lat="33.8101578" lon="-118.3940684">
  <ele>-0.115</ele>
  <time>2026-09-02T22:07:24Z</time>
  <course>10.06</course>
  <speed>0.7234638899074369</speed>
  <fix>3d</fix>
</trkpt>
<trkpt lat="33.8101578" lon="-118.3940683">
  <ele>-0.115</ele>
  <time>2026-09-02T22:07:24Z</time>
  <course>10.06</course>
  <speed>0.7234638899074369</speed>
  <fix>3d</fix>
</trkpt>
<trkpt lat="33.8101579" lon="-118.3940683">
  <ele>-0.115</ele>
  <time>2026-09-02T22:07:24Z</time>
  <course>10.06</course>
  <speed>0.7234638899074369</speed>
  <fix>3d</fix>
</trkpt>
<trkpt lat="33.8101579" lon="-118.3940682">
  <ele>-0.115</ele>
  <time>2026-09-02T22:07:24Z</time>
  <course>10.06</course>
  <speed>0.7234638899074369</speed>
  <fix>3d</fix>
</trkpt>
<trkpt lat="33.810158" lon="-118.3940681">
  <ele>-0.115</ele>
  <time>2026-09-02T22:07:24Z</time>
  <course>10.06</course>
  <speed>0.7234638899074369</speed>
  <fix>3d</fix>
</trkpt>
<trkpt lat="33.810158" lon="-118.3940681">
  <ele>-0.115</ele>
  <time>2026-09-02T22:07:24Z</time>
  <course>10.06</course>
  <speed>0.7234638899074369</speed>
  <fix>3d</fix>
</trkpt>
<trkpt lat="33.810158" lon="-118.3940681">
  <ele>-0.115</ele>
  <time>2026-09-02T22:07:24Z</time>
  <course>10.06</course>
  <speed>0.7234638899074369</speed>
  <fix>3d</fix>
</trkpt>
<trkpt lat="33.8101581" lon="-118.394068">
  <ele>-0.115</ele>
  <time>2026-09-02T22:07:24Z</time>
  <course>10.06</course>
  <speed>0.7234638899074369</speed>
  <fix>3d</fix>
</trkpt>
<trkpt lat="33.8101581" lon="-118.394068">
  <ele>-0.115</ele>
  <time>2026-09-02T22:07:24Z</time>
  <course>10.06</course>
  <speed>0.7234638899074369</speed>
  <fix>3d</fix>
</trkpt>
<trkpt lat="33.8101581" lon="-118.3940679">
  <ele>-0.115</ele>
  <time>2026-09-02T22:07:24Z</time>
  <course>10.07</course>
  <speed>0.7234638899074369</speed>
  <fix>3d</fix>
</trkpt>
<trkpt lat="33.8101582" lon="-118.3940679">
  <ele>-0.114</ele>
  <time>2026-09-02T22:07:24Z</time>
  <course>10.07</course>
  <speed>0.7234638899074369</speed>
  <fix>3d</fix>
</trkpt>
<trkpt lat="33.8101582" lon="-118.3940679">
  <ele>-0.115</ele>
  <time>2026-09-02T22:07:24Z</time>
  <course>10.07</course>
  <speed>0.7234638899074369</speed>
  <fix>3d</fix>
</trkpt>
<trkpt lat="33.8101578" lon="-118.3940688">
  <ele>-0.1</ele>
  <time>2026-09-02T22:07:24Z</time>
  <course>46.89</course>
  <speed>0.73</speed>
  <fix>3d</fix>
</trkpt>
<trkpt lat="33.8101582" lon="-118.3940679">
  <ele>-0.114</ele>
  <time>2026-09-02T22:07:24Z</time>
  <course>10.07</course>
  <speed>0.7234638899074369</speed>
  <fix>3d</fix>
</trkpt>
<trkpt lat="33.8101583" lon="-118.3940678">
  <ele>-0.114</ele>
  <time>2026-09-02T22:07:24Z</time>
  <course>10.07</course>
  <speed>0.7234638899074369</speed>
  <fix>3d</fix>
</trkpt>
<trkpt lat="33.8101583" lon="-118.3940677">
  <ele>-0.114</ele>
  <time>2026-09-02T22:07:24Z</time>
  <course>10.07</course>
  <speed>0.7234638899074369</speed>
  <fix>3d</fix>
</trkpt>
<trkpt lat="33.8101584" lon="-118.3940676">
  <ele>-0.114</ele>
  <time>2026-09-02T22:07:24Z</time>
  <course>10.07</course>
  <speed>0.7234638899074369</speed>
  <fix>3d</fix>
</trkpt>
<trkpt lat="33.8101584" lon="-118.3940676">
  <ele>-0.114</ele>
  <time>2026-09-02T22:07:24Z</time>
  <course>10.07</course>
  <speed>0.7234638899074369</speed>
  <fix>3d</fix>
</trkpt>
<trkpt lat="33.8101584" lon="-118.3940676">
  <ele>-0.114</ele>
  <time>2026-09-02T22:07:24Z</time>
  <course>10.07</course>
  <speed>0.7234638899074369</speed>
  <fix>3d</fix>
</trkpt>
<trkpt lat="33.8101585" lon="-118.3940675">
  <ele>-0.114</ele>
  <time>2026-09-02T22:07:24Z</time>
  <course>10.07</course>
  <speed>0.7234638899074369</speed>
  <fix>3d</fix>
</trkpt>
<trkpt lat="33.8101585" lon="-118.3940675">
  <ele>-0.114</ele>
  <time>2026-09-02T22:07:24Z</time>
  <course>10.07</course>
  <speed>0.7234638899074369</speed>
  <fix>3d</fix>
</trkpt>
<trkpt lat="33.8101585" lon="-118.3940674">
  <ele>-0.114</ele>
  <time>2026-09-02T22:07:24Z</time>
  <course>10.07</course>
  <speed>0.7234638899074369</speed>
  <fix>3d</fix>
</trkpt>
<trkpt lat="33.8101586" lon="-118.3940674">
  <ele>-0.114</ele>
  <time>2026-09-02T22:07:24Z</time>
  <course>10.07</course>
  <speed>0.7234638899074369</speed>
  <fix>3d</fix>
</trkpt>
<trkpt lat="33.8101586" lon="-118.3940673">
  <ele>-0.114</ele>
  <time>2026-09-02T22:07:24Z</time>
  <course>10.08</course>
  <speed>0.7234638899074369</speed>
  <fix>3d</fix>
</trkpt>
<trkpt lat="33.8101586" lon="-118.3940673">
  <ele>-0.114</ele>
  <time>2026-09-02T22:07:24Z</time>
  <course>10.08</course>
  <speed>0.7234638899074369</speed>
  <fix>3d</fix>
</trkpt>
<trkpt lat="33.8101578" lon="-118.3940688">
  <ele>-0.1</ele>
  <time>2026-09-02T22:07:24Z</time>
  <course>46.89</course>
  <speed>0.73</speed>
  <fix>3d</fix>
</trkpt>
<trkpt lat="33.8101587" lon="-118.3940673">
  <ele>-0.114</ele>
  <time>2026-09-02T22:07:24Z</time>
  <course>10.08</course>
  <speed>0.7234638899074369</speed>
  <fix>3d</fix>
</trkpt>
<trkpt lat="33.8101588" lon="-118.3940671">
  <ele>-0.114</ele>
  <time>2026-09-02T22:07:24Z</time>
  <course>10.08</course>
  <speed>0.7234638899074369</speed>
  <fix>3d</fix>
</trkpt>
<trkpt lat="33.8101588" lon="-118.3940671">
  <ele>-0.114</ele>
  <time>2026-09-02T22:07:24Z</time>
  <course>10.08</course>
  <speed>0.7234638899074369</speed>
  <fix>3d</fix>
</trkpt>
<trkpt lat="33.8101588" lon="-118.394067">
  <ele>-0.114</ele>
  <time>2026-09-02T22:07:24Z</time>
  <course>10.08</course>
  <speed>0.7234638899074369</speed>
  <fix>3d</fix>
</trkpt>
<trkpt lat="33.8101589" lon="-118.394067">
  <ele>-0.114</ele>
  <time>2026-09-02T22:07:24Z</time>
  <course>10.08</course>
  <speed>0.7234638899074369</speed>
  <fix>3d</fix>
</trkpt>
<trkpt lat="33.8101589" lon="-118.3940669">
  <ele>-0.114</ele>
  <time>2026-09-02T22:07:24Z</time>
  <course>10.08</course>
  <speed>0.7234638899074369</speed>
  <fix>3d</fix>
</trkpt>
<trkpt lat="33.810159" lon="-118.3940669">
  <ele>-0.114</ele>
  <time>2026-09-02T22:07:24Z</time>
  <course>10.08</course>
  <speed>0.7234638899074369</speed>
  <fix>3d</fix>
</trkpt>
<trkpt lat="33.810159" lon="-118.3940668">
  <ele>-0.114</ele>
  <time>2026-09-02T22:07:24Z</time>
  <course>10.08</course>
  <speed>0.7234638899074369</speed>
  <fix>3d</fix>
</trkpt>
<trkpt lat="33.810159" lon="-118.3940668">
  <ele>-0.114</ele>
  <time>2026-09-02T22:07:24Z</time>
  <course>10.08</course>
  <speed>0.7234638899074369</speed>
  <fix>3d</fix>
</trkpt>
<trkpt lat="33.8101591" lon="-118.3940667">
  <ele>-0.114</ele>
  <time>2026-09-02T22:07:24Z</time>
  <course>10.09</course>
  <speed>0.7234638899074369</speed>
  <fix>3d</fix>
</trkpt>
<trkpt lat="33.8101591" lon="-118.3940667">
  <ele>-0.114</ele>
  <time>2026-09-02T22:07:24Z</time>
  <course>10.09</course>
  <speed>0.7234638899074369</speed>
  <fix>3d</fix>
</trkpt>
<trkpt lat="33.8101587" lon="-118.3940677">
  <ele>-0.1</ele>
  <time>2026-09-02T22:07:24Z</time>
  <course>46.91</course>
  <speed>0.73</speed>
  <fix>3d</fix>
</trkpt>
<trkpt lat="33.8101591" lon="-118.3940666">
  <ele>-0.114</ele>
  <time>2026-09-02T22:07:24Z</time>
  <course>10.09</course>
  <speed>0.7234638899074369</speed>
  <fix>3d</fix>
</trkpt>
<trkpt lat="33.8101592" lon="-118.3940666">
  <ele>-0.114</ele>
  <time>2026-09-02T22:07:24Z</time>
  <course>10.09</course>
  <speed>0.7234638899074369</speed>
  <fix>3d</fix>
</trkpt>
<trkpt lat="33.8101592" lon="-118.3940665">
  <ele>-0.114</ele>
  <time>2026-09-02T22:07:24Z</time>
  <course>10.09</course>
  <speed>0.7234638899074369</speed>
  <fix>3d</fix>
</trkpt>
<trkpt lat="33.8101593" lon="-118.3940665">
  <ele>-0.114</ele>
  <time>2026-09-02T22:07:24Z</time>
  <course>10.09</course>
  <speed>0.7234638899074369</speed>
  <fix>3d</fix>
</trkpt>
<trkpt lat="33.8101593" lon="-118.3940664">
  <ele>-0.114</ele>
  <time>2026-09-02T22:07:24Z</time>
  <course>10.09</course>
  <speed>0.7234638899074369</speed>
  <fix>3d</fix>
</trkpt>
<trkpt lat="33.8101593" lon="-118.3940664">
  <ele>-0.114</ele>
  <time>2026-09-02T22:07:24Z</time>
  <course>10.09</course>
  <speed>0.7234638899074369</speed>
  <fix>3d</fix>
</trkpt>
<trkpt lat="33.8101594" lon="-118.3940663">
  <ele>-0.114</ele>
  <time>2026-09-02T22:07:24Z</time>
  <course>10.09</course>
  <speed>0.7234638899074369</speed>
  <fix>3d</fix>
</trkpt>
<trkpt lat="33.8101594" lon="-118.3940663">
  <ele>-0.114</ele>
  <time>2026-09-02T22:07:24Z</time>
  <course>10.09</course>
  <speed>0.7234638899074369</speed>
  <fix>3d</fix>
</trkpt>
<trkpt lat="33.8101595" lon="-118.3940662">
  <ele>-0.114</ele>
  <time>2026-09-02T22:07:24Z</time>
  <course>10.09</course>
  <speed>0.7234638899074369</speed>
  <fix>3d</fix>
</trkpt>
<trkpt lat="33.8101595" lon="-118.3940662">
  <ele>-0.114</ele>
  <time>2026-09-02T22:07:24Z</time>
  <course>10.09</course>
  <speed>0.7234638899074369</speed>
  <fix>3d</fix>
</trkpt>
<trkpt lat="33.8101595" lon="-118.3940662">
  <ele>-0.113</ele>
  <time>2026-09-02T22:07:24Z</time>
  <course>10.09</course>
  <speed>0.7234638899074369</speed>
  <fix>3d</fix>
</trkpt>
<trkpt lat="33.8101595" lon="-118.3940661">
  <ele>-0.113</ele>
  <time>2026-09-02T22:07:24Z</time>
  <course>10.09</course>
  <speed>0.7234638899074369</speed>
  <fix>3d</fix>
</trkpt>
<trkpt lat="33.8101587" lon="-118.3940677">
  <ele>-0.1</ele>
  <time>2026-09-02T22:07:24Z</time>
  <course>46.91</course>
  <speed>0.73</speed>
  <fix>3d</fix>
</trkpt>
<trkpt lat="33.8101596" lon="-118.3940661">
  <ele>-0.113</ele>
  <time>2026-09-02T22:07:24Z</time>
  <course>10.09</course>
  <speed>0.7234638899074369</speed>
  <fix>3d</fix>
</trkpt>
<trkpt lat="33.8101596" lon="-118.394066">
  <ele>-0.113</ele>
  <time>2026-09-02T22:07:24Z</time>
  <course>10.1</course>
  <speed>0.7234638899074369</speed>
  <fix>3d</fix>
</trkpt>
<trkpt lat="33.8101596" lon="-118.394066">
  <ele>-0.113</ele>
  <time>2026-09-02T22:07:24Z</time>
  <course>10.1</course>
  <speed>0.7234638899074369</speed>
  <fix>3d</fix>
</trkpt>
<trkpt lat="33.8101597" lon="-118.3940659">
  <ele>-0.113</ele>
  <time>2026-09-02T22:07:24Z</time>
  <course>10.1</course>
  <speed>0.7234638899074369</speed>
  <fix>3d</fix>
</trkpt>
<trkpt lat="33.8101597" lon="-118.3940659">
  <ele>-0.113</ele>
  <time>2026-09-02T22:07:24Z</time>
  <course>10.1</course>
  <speed>0.7234638899074369</speed>
  <fix>3d</fix>
</trkpt>
<trkpt lat="33.8101598" lon="-118.3940658">
  <ele>-0.113</ele>
  <time>2026-09-02T22:07:24Z</time>
  <course>10.1</course>
  <speed>0.7234638899074369</speed>
  <fix>3d</fix>
</trkpt>
<trkpt lat="33.8101598" lon="-118.3940658">
  <ele>-0.113</ele>
  <time>2026-09-02T22:07:24Z</time>
  <course>10.1</course>
  <speed>0.7234638899074369</speed>
  <fix>3d</fix>
</trkpt>
<trkpt lat="33.8101599" lon="-118.3940657">
  <ele>-0.113</ele>
  <time>2026-09-02T22:07:24Z</time>
  <course>10.1</course>
  <speed>0.7234638899074369</speed>
  <fix>3d</fix>
</trkpt>
<trkpt lat="33.8101599" lon="-118.3940657">
  <ele>-0.113</ele>
  <time>2026-09-02T22:07:24Z</time>
  <course>10.1</course>
  <speed>0.7234638899074369</speed>
  <fix>3d</fix>
</trkpt>
<trkpt lat="33.8101599" lon="-118.3940656">
  <ele>-0.113</ele>
  <time>2026-09-02T22:07:24Z</time>
  <course>10.1</course>
  <speed>0.7234638899074369</speed>
  <fix>3d</fix>
</trkpt>
<trkpt lat="33.81016" lon="-118.3940656">
  <ele>-0.113</ele>
  <time>2026-09-02T22:07:24Z</time>
  <course>10.1</course>
  <speed>0.7234638899074369</speed>
  <fix>3d</fix>
</trkpt>
<trkpt lat="33.81016" lon="-118.3940656">
  <ele>-0.113</ele>
  <time>2026-09-02T22:07:24Z</time>
  <course>10.1</course>
  <speed>0.7234638899074369</speed>
  <fix>3d</fix>
</trkpt>
<trkpt lat="33.8101596" lon="-118.3940665">
  <ele>-0.11</ele>
  <time>2026-09-02T22:07:24Z</time>
  <course>46.92</course>
  <speed>0.73</speed>
  <fix>3d</fix>
</trkpt>
<trkpt lat="33.8101601" lon="-118.3940655">
  <ele>-0.113</ele>
  <time>2026-09-02T22:07:24Z</time>
  <course>10.1</course>
  <speed>0.7234638899074369</speed>
  <fix>3d</fix>
</trkpt>
<trkpt lat="33.8101601" lon="-118.3940654">
  <ele>-0.113</ele>
  <time>2026-09-02T22:07:24Z</time>
  <course>10.1</course>
  <speed>0.7234638899074369</speed>
  <fix>3d</fix>
</trkpt>
<trkpt lat="33.8101601" lon="-118.3940654">
  <ele>-0.113</ele>
  <time>2026-09-02T22:07:24Z</time>
  <course>10.11</course>
  <speed>0.7234638899074369</speed>
  <fix>3d</fix>
</trkpt>
<trkpt lat="33.8101602" lon="-118.3940653">
  <ele>-0.113</ele>
  <time>2026-09-02T22:07:24Z</time>
  <course>10.11</course>
  <speed>0.7234638899074369</speed>
  <fix>3d</fix>
</trkpt>
<trkpt lat="33.8101602" lon="-118.3940653">
  <ele>-0.113</ele>
  <time>2026-09-02T22:07:24Z</time>
  <course>10.11</course>
  <speed>0.7234638899074369</speed>
  <fix>3d</fix>
</trkpt>
<trkpt lat="33.8101602" lon="-118.3940652">
  <ele>-0.113</ele>
  <time>2026-09-02T22:07:24Z</time>
  <course>10.11</course>
  <speed>0.7234638899074369</speed>
  <fix>3d</fix>
</trkpt>
<trkpt lat="33.8101603" lon="-118.3940652">
  <ele>-0.113</ele>
  <time>2026-09-02T22:07:24Z</time>
  <course>10.11</course>
  <speed>0.7234638899074369</speed>
  <fix>3d</fix>
</trkpt>
<trkpt lat="33.8101603" lon="-118.3940651">
  <ele>-0.113</ele>
  <time>2026-09-02T22:07:24Z</time>
  <course>10.11</course>
  <speed>0.7234638899074369</speed>
  <fix>3d</fix>
</trkpt>
<trkpt lat="33.8101603" lon="-118.3940651">
  <ele>-0.113</ele>
  <time>2026-09-02T22:07:24Z</time>
  <course>10.11</course>
  <speed>0.7234638899074369</speed>
  <fix>3d</fix>
</trkpt>
<trkpt lat="33.8101604" lon="-118.3940651">
  <ele>-0.113</ele>
  <time>2026-09-02T22:07:24Z</time>
  <course>10.11</course>
  <speed>0.7234638899074369</speed>
  <fix>3d</fix>
</trkpt>
<trkpt lat="33.8101604" lon="-118.394065">
  <ele>-0.113</ele>
  <time>2026-09-02T22:07:24Z</time>
  <course>10.11</course>
  <speed>0.7234638899074369</speed>
  <fix>3d</fix>
</trkpt>
<trkpt lat="33.8101604" lon="-118.394065">
  <ele>-0.113</ele>
  <time>2026-09-02T22:07:24Z</time>
  <course>10.11</course>
  <speed>0.7234638899074369</speed>
  <fix>3d</fix>
</trkpt>
<trkpt lat="33.8101596" lon="-118.3940665">
  <ele>-0.11</ele>
  <time>2026-09-02T22:07:24Z</time>
  <course>46.92</course>
  <speed>0.73</speed>
  <fix>3d</fix>
</trkpt>
<trkpt lat="33.8101604" lon="-118.394065">
  <ele>-0.113</ele>
  <time>2026-09-02T22:07:24Z</time>
  <course>10.11</course>
  <speed>0.7234638899074369</speed>
  <fix>3d</fix>
</trkpt>
<trkpt lat="33.8101605" lon="-118.3940649">
  <ele>-0.112</ele>
  <time>2026-09-02T22:07:24Z</time>
  <course>10.11</course>
  <speed>0.7234638899074369</speed>
  <fix>3d</fix>
</trkpt>
<trkpt lat="33.8101606" lon="-118.3940648">
  <ele>-0.112</ele>
  <time>2026-09-02T22:07:24Z</time>
  <course>10.11</course>
  <speed>0.7234638899074369</speed>
  <fix>3d</fix>
</trkpt>
<trkpt lat="33.8101606" lon="-118.3940647">
  <ele>-0.112</ele>
  <time>2026-09-02T22:07:24Z</time>
  <course>10.12</course>
  <speed>0.7234638899074369</speed>
  <fix>3d</fix>
</trkpt>
<trkpt lat="33.8101606" lon="-118.3940647">
  <ele>-0.112</ele>
  <time>2026-09-02T22:07:24Z</time>
  <course>10.12</course>
  <speed>0.7234638899074369</speed>
  <fix>3d</fix>
</trkpt>
<trkpt lat="33.8101607" lon="-118.3940646">
  <ele>-0.112</ele>
  <time>2026-09-02T22:07:24Z</time>
  <course>10.12</course>
  <speed>0.7234638899074369</speed>
  <fix>3d</fix>
</trkpt>
<trkpt lat="33.8101607" lon="-118.3940646">
  <ele>-0.112</ele>
  <time>2026-09-02T22:07:24Z</time>
  <course>10.12</course>
  <speed>0.7234638899074369</speed>
  <fix>3d</fix>
</trkpt>
<trkpt lat="33.8101608" lon="-118.3940645">
  <ele>-0.112</ele>
  <time>2026-09-02T22:07:24Z</time>
  <course>10.12</course>
  <speed>0.7234638899074369</speed>
  <fix>3d</fix>
</trkpt>
<trkpt lat="33.8101608" lon="-118.3940645">
  <ele>-0.112</ele>
  <time>2026-09-02T22:07:24Z</time>
  <course>10.12</course>
  <speed>0.7234638899074369</speed>
  <fix>3d</fix>
</trkpt>
<trkpt lat="33.8101609" lon="-118.3940644">
  <ele>-0.112</ele>
  <time>2026-09-02T22:07:24Z</time>
  <course>10.12</course>
  <speed>0.7234638899074369</speed>
  <fix>3d</fix>
</trkpt>
<trkpt lat="33.8101609" lon="-118.3940644">
  <ele>-0.112</ele>
  <time>2026-09-02T22:07:24Z</time>
  <course>10.12</course>
  <speed>0.7234638899074369</speed>
  <fix>3d</fix>
</trkpt>
<trkpt lat="33.8101605" lon="-118.3940653">
  <ele>-0.1</ele>
  <time>2026-09-02T22:07:24Z</time>
  <course>46.94</course>
  <speed>0.73</speed>
  <fix>3d</fix>
</trkpt>
<trkpt lat="33.8101609" lon="-118.3940644">
  <ele>-0.112</ele>
  <time>2026-09-02T22:07:24Z</time>
  <course>10.12</course>
  <speed>0.7234638899074369</speed>
  <fix>3d</fix>
</trkpt>
<trkpt lat="33.810161" lon="-118.3940643">
  <ele>-0.112</ele>
  <time>2026-09-02T22:07:24Z</time>
  <course>10.12</course>
  <speed>0.7234638899074369</speed>
  <fix>3d</fix>
</trkpt>
<trkpt lat="33.810161" lon="-118.3940642">
  <ele>-0.112</ele>
  <time>2026-09-02T22:07:24Z</time>
  <course>10.12</course>
  <speed>0.7234638899074369</speed>
  <fix>3d</fix>
</trkpt>
<trkpt lat="33.8101611" lon="-118.3940642">
  <ele>-0.112</ele>
  <time>2026-09-02T22:07:24Z</time>
  <course>10.12</course>
  <speed>0.7234638899074369</speed>
  <fix>3d</fix>
</trkpt>
<trkpt lat="33.8101611" lon="-118.3940641">
  <ele>-0.112</ele>
  <time>2026-09-02T22:07:24Z</time>
  <course>10.12</course>
  <speed>0.7234638899074369</speed>
  <fix>3d</fix>
</trkpt>
<trkpt lat="33.8101611" lon="-118.3940641">
  <ele>-0.112</ele>
  <time>2026-09-02T22:07:24Z</time>
  <course>10.13</course>
  <speed>0.7234638899074369</speed>
  <fix>3d</fix>
</trkpt>
<trkpt lat="33.8101612" lon="-118.394064">
  <ele>-0.112</ele>
  <time>2026-09-02T22:07:24Z</time>
  <course>10.13</course>
  <speed>0.7234638899074369</speed>
  <fix>3d</fix>
</trkpt>
<trkpt lat="33.8101612" lon="-118.394064">
  <ele>-0.112</ele>
  <time>2026-09-02T22:07:24Z</time>
  <course>10.13</course>
  <speed>0.7234638899074369</speed>
  <fix>3d</fix>
</trkpt>
<trkpt lat="33.8101612" lon="-118.3940639">
  <ele>-0.112</ele>
  <time>2026-09-02T22:07:24Z</time>
  <course>10.13</course>
  <speed>0.7234638899074369</speed>
  <fix>3d</fix>
</trkpt>
<trkpt lat="33.8101613" lon="-118.3940639">
  <ele>-0.112</ele>
  <time>2026-09-02T22:07:24Z</time>
  <course>10.13</course>
  <speed>0.7234638899074369</speed>
  <fix>3d</fix>
</trkpt>
<trkpt lat="33.8101613" lon="-118.3940638">
  <ele>-0.112</ele>
  <time>2026-09-02T22:07:24Z</time>
  <course>10.13</course>
  <speed>0.7234638899074369</speed>
  <fix>3d</fix>
</trkpt>
<trkpt lat="33.8101613" lon="-118.3940638">
  <ele>-0.112</ele>
  <time>2026-09-02T22:07:24Z</time>
  <course>10.13</course>
  <speed>0.7234638899074369</speed>
  <fix>3d</fix>
</trkpt>
<trkpt lat="33.8101605" lon="-118.3940653">
  <ele>-0.1</ele>
  <time>2026-09-02T22:07:24Z</time>
  <course>46.94</course>
  <speed>0.73</speed>
  <fix>3d</fix>
</trkpt>
<trkpt lat="33.8101613" lon="-118.3940638">
  <ele>-0.112</ele>
  <time>2026-09-02T22:07:24Z</time>
  <course>10.13</course>
  <speed>0.7234638899074369</speed>
  <fix>3d</fix>
</trkpt>
<trkpt lat="33.8101614" lon="-118.3940637">
  <ele>-0.111</ele>
  <time>2026-09-02T22:07:24Z</time>
  <course>10.13</course>
  <speed>0.7234638899074369</speed>
  <fix>3d</fix>
</trkpt>
<trkpt lat="33.8101614" lon="-118.3940637">
  <ele>-0.111</ele>
  <time>2026-09-02T22:07:24Z</time>
  <course>10.13</course>
  <speed>0.7234638899074369</speed>
  <fix>3d</fix>
</trkpt>
<trkpt lat="33.8101615" lon="-118.3940636">
  <ele>-0.111</ele>
  <time>2026-09-02T22:07:24Z</time>
  <course>10.13</course>
  <speed>0.7234638899074369</speed>
  <fix>3d</fix>
</trkpt>
<trkpt lat="33.8101615" lon="-118.3940636">
  <ele>-0.111</ele>
  <time>2026-09-02T22:07:24Z</time>
  <course>10.13</course>
  <speed>0.7234638899074369</speed>
  <fix>3d</fix>
</trkpt>
<trkpt lat="33.8101615" lon="-118.3940635">
  <ele>-0.111</ele>
  <time>2026-09-02T22:07:24Z</time>
  <course>10.13</course>
  <speed>0.7234638899074369</speed>
  <fix>3d</fix>
</trkpt>
<trkpt lat="33.8101616" lon="-118.3940635">
  <ele>-0.111</ele>
  <time>2026-09-02T22:07:24Z</time>
  <course>10.13</course>
  <speed>0.7234638899074369</speed>
  <fix>3d</fix>
</trkpt>
<trkpt lat="33.8101616" lon="-118.3940634">
  <ele>-0.111</ele>
  <time>2026-09-02T22:07:24Z</time>
  <course>10.13</course>
  <speed>0.7234638899074369</speed>
  <fix>3d</fix>
</trkpt>
<trkpt lat="33.8101617" lon="-118.3940634">
  <ele>-0.111</ele>
  <time>2026-09-02T22:07:24Z</time>
  <course>10.14</course>
  <speed>0.7234638899074369</speed>
  <fix>3d</fix>
</trkpt>
<trkpt lat="33.8101617" lon="-118.3940633">
  <ele>-0.111</ele>
  <time>2026-09-02T22:07:24Z</time>
  <course>10.14</course>
  <speed>0.7234638899074369</speed>
  <fix>3d</fix>
</trkpt>
<trkpt lat="33.8101617" lon="-118.3940633">
  <ele>-0.111</ele>
  <time>2026-09-02T22:07:24Z</time>
  <course>10.14</course>
  <speed>0.7234638899074369</speed>
  <fix>3d</fix>
</trkpt>
<trkpt lat="33.8101618" lon="-118.3940632">
  <ele>-0.111</ele>
  <time>2026-09-02T22:07:24Z</time>
  <course>10.14</course>
  <speed>0.7234638899074369</speed>
  <fix>3d</fix>
</trkpt>
<trkpt lat="33.8101618" lon="-118.3940632">
  <ele>-0.111</ele>
  <time>2026-09-02T22:07:24Z</time>
  <course>10.14</course>
  <speed>0.7234638899074369</speed>
  <fix>3d</fix>
</trkpt>
<trkpt lat="33.8101614" lon="-118.3940642">
  <ele>-0.1</ele>
  <time>2026-09-02T22:07:24Z</time>
  <course>46.96</course>
  <speed>0.73</speed>
  <fix>3d</fix>
</trkpt>
<trkpt lat="33.8101619" lon="-118.3940631">
  <ele>-0.111</ele>
  <time>2026-09-02T22:07:24Z</time>
  <course>10.14</course>
  <speed>0.7234638899074369</speed>
  <fix>3d</fix>
</trkpt>
<trkpt lat="33.8101619" lon="-118.3940631">
  <ele>-0.111</ele>
  <time>2026-09-02T22:07:24Z</time>
  <course>10.14</course>
  <speed>0.7234638899074369</speed>
  <fix>3d</fix>
</trkpt>
<trkpt lat="33.8101619" lon="-118.394063">
  <ele>-0.112</ele>
  <time>2026-09-02T22:07:24Z</time>
  <course>10.14</course>
  <speed>0.7234638899074369</speed>
  <fix>3d</fix>
</trkpt>
<trkpt lat="33.810162" lon="-118.394063">
  <ele>-0.112</ele>
  <time>2026-09-02T22:07:24Z</time>
  <course>10.14</course>
  <speed>0.7234638899074369</speed>
  <fix>3d</fix>
</trkpt>
<trkpt lat="33.810162" lon="-118.3940629">
  <ele>-0.112</ele>
  <time>2026-09-02T22:07:24Z</time>
  <course>10.14</course>
  <speed>0.7234638899074369</speed>
  <fix>3d</fix>
</trkpt>
<trkpt lat="33.8101621" lon="-118.3940629">
  <ele>-0.112</ele>
  <time>2026-09-02T22:07:24Z</time>
  <course>10.14</course>
  <speed>0.7234638899074369</speed>
  <fix>3d</fix>
</trkpt>
<trkpt lat="33.8101621" lon="-118.3940628">
  <ele>-0.112</ele>
  <time>2026-09-02T22:07:24Z</time>
  <course>10.14</course>
  <speed>0.7234638899074369</speed>
  <fix>3d</fix>
</trkpt>
<trkpt lat="33.8101621" lon="-118.3940628">
  <ele>-0.112</ele>
  <time>2026-09-02T22:07:24Z</time>
  <course>10.14</course>
  <speed>0.7234638899074369</speed>
  <fix>3d</fix>
</trkpt>
<trkpt lat="33.8101622" lon="-118.3940628">
  <ele>-0.112</ele>
  <time>2026-09-02T22:07:24Z</time>
  <course>10.14</course>
  <speed>0.7234638899074369</speed>
  <fix>3d</fix>
</trkpt>
<trkpt lat="33.8101622" lon="-118.3940627">
  <ele>-0.112</ele>
  <time>2026-09-02T22:07:24Z</time>
  <course>10.15</course>
  <speed>0.7234638899074369</speed>
  <fix>3d</fix>
</trkpt>
<trkpt lat="33.8101622" lon="-118.3940626">
  <ele>-0.112</ele>
  <time>2026-09-02T22:07:24Z</time>
  <course>10.15</course>
  <speed>0.7234638899074369</speed>
  <fix>3d</fix>
</trkpt>
<trkpt lat="33.8101614" lon="-118.3940642">
  <ele>-0.1</ele>
  <time>2026-09-02T22:07:24Z</time>
  <course>46.96</course>
  <speed>0.73</speed>
  <fix>3d</fix>
</trkpt>
<trkpt lat="33.8101622" lon="-118.3940626">
  <ele>-0.112</ele>
  <time>2026-09-02T22:07:24Z</time>
  <course>10.15</course>
  <speed>0.7234638899074369</speed>
  <fix>3d</fix>
</trkpt>
<trkpt lat="33.8101623" lon="-118.3940626">
  <ele>-0.112</ele>
  <time>2026-09-02T22:07:24Z</time>
  <course>10.15</course>
  <speed>0.7234638899074369</speed>
  <fix>3d</fix>
</trkpt>
<trkpt lat="33.8101623" lon="-118.3940625">
  <ele>-0.112</ele>
  <time>2026-09-02T22:07:24Z</time>
  <course>10.15</course>
  <speed>0.7234638899074369</speed>
  <fix>3d</fix>
</trkpt>
<trkpt lat="33.8101624" lon="-118.3940625">
  <ele>-0.113</ele>
  <time>2026-09-02T22:07:24Z</time>
  <course>10.15</course>
  <speed>0.7234638899074369</speed>
  <fix>3d</fix>
</trkpt>
<trkpt lat="33.8101624" lon="-118.3940624">
  <ele>-0.113</ele>
  <time>2026-09-02T22:07:24Z</time>
  <course>10.15</course>
  <speed>0.7234638899074369</speed>
  <fix>3d</fix>
</trkpt>
<trkpt lat="33.8101625" lon="-118.3940624">
  <ele>-0.113</ele>
  <time>2026-09-02T22:07:24Z</time>
  <course>10.15</course>
  <speed>0.7234638899074369</speed>
  <fix>3d</fix>
</trkpt>
<trkpt lat="33.8101625" lon="-118.3940623">
  <ele>-0.113</ele>
  <time>2026-09-02T22:07:24Z</time>
  <course>10.15</course>
  <speed>0.7234638899074369</speed>
  <fix>3d</fix>
</trkpt>
<trkpt lat="33.8101625" lon="-118.3940623">
  <ele>-0.113</ele>
  <time>2026-09-02T22:07:24Z</time>
  <course>10.15</course>
  <speed>0.7234638899074369</speed>
  <fix>3d</fix>
</trkpt>
<trkpt lat="33.8101626" lon="-118.3940622">
  <ele>-0.113</ele>
  <time>2026-09-02T22:07:24Z</time>
  <course>10.15</course>
  <speed>0.7234638899074369</speed>
  <fix>3d</fix>
</trkpt>
<trkpt lat="33.8101626" lon="-118.3940622">
  <ele>-0.113</ele>
  <time>2026-09-02T22:07:24Z</time>
  <course>10.15</course>
  <speed>0.7234638899074369</speed>
  <fix>3d</fix>
</trkpt>
<trkpt lat="33.8101626" lon="-118.3940621">
  <ele>-0.113</ele>
  <time>2026-09-02T22:07:24Z</time>
  <course>10.15</course>
  <speed>0.7234638899074369</speed>
  <fix>3d</fix>
</trkpt>
<trkpt lat="33.8101627" lon="-118.3940621">
  <ele>-0.113</ele>
  <time>2026-09-02T22:07:24Z</time>
  <course>10.15</course>
  <speed>0.7234638899074369</speed>
  <fix>3d</fix>
</trkpt>
<trkpt lat="33.8101627" lon="-118.3940621">
  <ele>-0.113</ele>
  <time>2026-09-02T22:07:24Z</time>
  <course>10.15</course>
  <speed>0.7234638899074369</speed>
  <fix>3d</fix>
</trkpt>
<trkpt lat="33.8101623" lon="-118.394063">
  <ele>-0.1</ele>
  <time>2026-09-02T22:07:24Z</time>
  <course>46.97</course>
  <speed>0.73</speed>
  <fix>3d</fix>
</trkpt>
<trkpt lat="33.8101628" lon="-118.394062">
  <ele>-0.113</ele>
  <time>2026-09-02T22:07:24Z</time>
  <course>10.16</course>
  <speed>0.7234638899074369</speed>
  <fix>3d</fix>
</trkpt>
<trkpt lat="33.8101628" lon="-118.3940619">
  <ele>-0.113</ele>
  <time>2026-09-02T22:07:24Z</time>
  <course>10.16</course>
  <speed>0.7234638899074369</speed>
  <fix>3d</fix>
</trkpt>
<trkpt lat="33.8101628" lon="-118.3940619">
  <ele>-0.113</ele>
  <time>2026-09-02T22:07:24Z</time>
  <course>10.16</course>
  <speed>0.7234638899074369</speed>
  <fix>3d</fix>
</trkpt>
<trkpt lat="33.8101629" lon="-118.3940618">
  <ele>-0.113</ele>
  <time>2026-09-02T22:07:24Z</time>
  <course>10.16</course>
  <speed>0.7234638899074369</speed>
  <fix>3d</fix>
</trkpt>
<trkpt lat="33.8101629" lon="-118.3940618">
  <ele>-0.113</ele>
  <time>2026-09-02T22:07:24Z</time>
  <course>10.16</course>
  <speed>0.7234638899074369</speed>
  <fix>3d</fix>
</trkpt>
<trkpt lat="33.8101629" lon="-118.3940617">
  <ele>-0.113</ele>
  <time>2026-09-02T22:07:24Z</time>
  <course>10.16</course>
  <speed>0.7234638899074369</speed>
  <fix>3d</fix>
</trkpt>
<trkpt lat="33.810163" lon="-118.3940617">
  <ele>-0.113</ele>
  <time>2026-09-02T22:07:24Z</time>
  <course>10.16</course>
  <speed>0.7234638899074369</speed>
  <fix>3d</fix>
</trkpt>
<trkpt lat="33.810163" lon="-118.3940616">
  <ele>-0.113</ele>
  <time>2026-09-02T22:07:24Z</time>
  <course>10.16</course>
  <speed>0.7234638899074369</speed>
  <fix>3d</fix>
</trkpt>
<trkpt lat="33.8101631" lon="-118.3940616">
  <ele>-0.113</ele>
  <time>2026-09-02T22:07:24Z</time>
  <course>10.16</course>
  <speed>0.7234638899074369</speed>
  <fix>3d</fix>
</trkpt>
<trkpt lat="33.8101631" lon="-118.3940615">
  <ele>-0.113</ele>
  <time>2026-09-02T22:07:24Z</time>
  <course>10.16</course>
  <speed>0.7234638899074369</speed>
  <fix>3d</fix>
</trkpt>
<trkpt lat="33.8101631" lon="-118.3940615">
  <ele>-0.113</ele>
  <time>2026-09-02T22:07:24Z</time>
  <course>10.16</course>
  <speed>0.7234638899074369</speed>
  <fix>3d</fix>
</trkpt>
<trkpt lat="33.8101631" lon="-118.3940615">
  <ele>-0.113</ele>
  <time>2026-09-02T22:07:24Z</time>
  <course>10.16</course>
  <speed>0.7234638899074369</speed>
  <fix>3d</fix>
</trkpt>
<trkpt lat="33.8101623" lon="-118.394063">
  <ele>-0.1</ele>
  <time>2026-09-02T22:07:24Z</time>
  <course>46.97</course>
  <speed>0.73</speed>
  <fix>3d</fix>
</trkpt>
<trkpt lat="33.8101632" lon="-118.3940614">
  <ele>-0.113</ele>
  <time>2026-09-02T22:07:24Z</time>
  <course>10.16</course>
  <speed>0.7234638899074369</speed>
  <fix>3d</fix>
</trkpt>
<trkpt lat="33.8101633" lon="-118.3940613">
  <ele>-0.113</ele>
  <time>2026-09-02T22:07:24Z</time>
  <course>10.17</course>
  <speed>0.7234638899074369</speed>
  <fix>3d</fix>
</trkpt>
<trkpt lat="33.8101633" lon="-118.3940613">
  <ele>-0.113</ele>
  <time>2026-09-02T22:07:24Z</time>
  <course>10.17</course>
  <speed>0.7234638899074369</speed>
  <fix>3d</fix>
</trkpt>
<trkpt lat="33.8101633" lon="-118.3940612">
  <ele>-0.113</ele>
  <time>2026-09-02T22:07:24Z</time>
  <course>10.17</course>
  <speed>0.7234638899074369</speed>
  <fix>3d</fix>
</trkpt>
<trkpt lat="33.8101634" lon="-118.3940612">
  <ele>-0.113</ele>
  <time>2026-09-02T22:07:24Z</time>
  <course>10.17</course>
  <speed>0.7234638899074369</speed>
  <fix>3d</fix>
</trkpt>
<trkpt lat="33.8101634" lon="-118.3940611">
  <ele>-0.113</ele>
  <time>2026-09-02T22:07:24Z</time>
  <course>10.17</course>
  <speed>0.7234638899074369</speed>
  <fix>3d</fix>
</trkpt>
<trkpt lat="33.8101635" lon="-118.394061">
  <ele>-0.113</ele>
  <time>2026-09-02T22:07:24Z</time>
  <course>10.17</course>
  <speed>0.7234638899074369</speed>
  <fix>3d</fix>
</trkpt>
<trkpt lat="33.8101635" lon="-118.394061">
  <ele>-0.113</ele>
  <time>2026-09-02T22:07:24Z</time>
  <course>10.17</course>
  <speed>0.7234638899074369</speed>
  <fix>3d</fix>
</trkpt>
<trkpt lat="33.8101635" lon="-118.394061">
  <ele>-0.113</ele>
  <time>2026-09-02T22:07:24Z</time>
  <course>10.17</course>
  <speed>0.7234638899074369</speed>
  <fix>3d</fix>
</trkpt>
<trkpt lat="33.8101636" lon="-118.3940609">
  <ele>-0.113</ele>
  <time>2026-09-02T22:07:24Z</time>
  <course>10.17</course>
  <speed>0.7234638899074369</speed>
  <fix>3d</fix>
</trkpt>
<trkpt lat="33.8101636" lon="-118.3940609">
  <ele>-0.113</ele>
  <time>2026-09-02T22:07:24Z</time>
  <course>10.17</course>
  <speed>0.7234638899074369</speed>
  <fix>3d</fix>
</trkpt>
<trkpt lat="33.8101632" lon="-118.3940618">
  <ele>-0.1</ele>
  <time>2026-09-02T22:07:24Z</time>
  <course>46.99</course>
  <speed>0.73</speed>
  <fix>3d</fix>
</trkpt>
<trkpt lat="33.8101637" lon="-118.3940608">
  <ele>-0.113</ele>
  <time>2026-09-02T22:07:24Z</time>
  <course>10.17</course>
  <speed>0.7234638899074369</speed>
  <fix>3d</fix>
</trkpt>
<trkpt lat="33.8101637" lon="-118.3940608">
  <ele>-0.113</ele>
  <time>2026-09-02T22:07:24Z</time>
  <course>10.17</course>
  <speed>0.7234638899074369</speed>
  <fix>3d</fix>
</trkpt>
<trkpt lat="33.8101637" lon="-118.3940607">
  <ele>-0.113</ele>
  <time>2026-09-02T22:07:24Z</time>
  <course>10.17</course>
  <speed>0.7234638899074369</speed>
  <fix>3d</fix>
</trkpt>
<trkpt lat="33.8101638" lon="-118.3940607">
  <ele>-0.113</ele>
  <time>2026-09-02T22:07:24Z</time>
  <course>10.18</course>
  <speed>0.7234638899074369</speed>
  <fix>3d</fix>
</trkpt>
<trkpt lat="33.8101638" lon="-118.3940606">
  <ele>-0.113</ele>
  <time>2026-09-02T22:07:24Z</time>
  <course>10.18</course>
  <speed>0.7234638899074369</speed>
  <fix>3d</fix>
</trkpt>
<trkpt lat="33.8101639" lon="-118.3940606">
  <ele>-0.113</ele>
  <time>2026-09-02T22:07:24Z</time>
  <course>10.18</course>
  <speed>0.7234638899074369</speed>
  <fix>3d</fix>
</trkpt>
<trkpt lat="33.8101639" lon="-118.3940605">
  <ele>-0.113</ele>
  <time>2026-09-02T22:07:24Z</time>
  <course>10.18</course>
  <speed>0.7234638899074369</speed>
  <fix>3d</fix>
</trkpt>
<trkpt lat="33.8101639" lon="-118.3940604">
  <ele>-0.113</ele>
  <time>2026-09-02T22:07:24Z</time>
  <course>10.18</course>
  <speed>0.7234638899074369</speed>
  <fix>3d</fix>
</trkpt>
<trkpt lat="33.810164" lon="-118.3940604">
  <ele>-0.112</ele>
  <time>2026-09-02T22:07:24Z</time>
  <course>10.18</course>
  <speed>0.7234638899074369</speed>
  <fix>3d</fix>
</trkpt>
<trkpt lat="33.810164" lon="-118.3940603">
  <ele>-0.112</ele>
  <time>2026-09-02T22:07:24Z</time>
  <course>10.18</course>
  <speed>0.7234638899074369</speed>
  <fix>3d</fix>
</trkpt>
<trkpt lat="33.810164" lon="-118.3940603">
  <ele>-0.112</ele>
  <time>2026-09-02T22:07:24Z</time>
  <course>10.18</course>
  <speed>0.7234638899074369</speed>
  <fix>3d</fix>
</trkpt>
<trkpt lat="33.8101632" lon="-118.3940618">
  <ele>-0.1</ele>
  <time>2026-09-02T22:07:24Z</time>
  <course>46.99</course>
  <speed>0.73</speed>
  <fix>3d</fix>
</trkpt>
<trkpt lat="33.810164" lon="-118.3940603">
  <ele>-0.112</ele>
  <time>2026-09-02T22:07:24Z</time>
  <course>10.18</course>
  <speed>0.7234638899074369</speed>
  <fix>3d</fix>
</trkpt>
<trkpt lat="33.8101641" lon="-118.3940602">
  <ele>-0.112</ele>
  <time>2026-09-02T22:07:24Z</time>
  <course>10.18</course>
  <speed>0.7234638899074369</speed>
  <fix>3d</fix>
</trkpt>
<trkpt lat="33.8101642" lon="-118.3940602">
  <ele>-0.112</ele>
  <time>2026-09-02T22:07:24Z</time>
  <course>10.18</course>
  <speed>0.7234638899074369</speed>
  <fix>3d</fix>
</trkpt>
<trkpt lat="33.8101642" lon="-118.3940601">
  <ele>-0.112</ele>
  <time>2026-09-02T22:07:24Z</time>
  <course>10.18</course>
  <speed>0.7234638899074369</speed>
  <fix>3d</fix>
</trkpt>
<trkpt lat="33.8101642" lon="-118.3940601">
  <ele>-0.112</ele>
  <time>2026-09-02T22:07:24Z</time>
  <course>10.18</course>
  <speed>0.7234638899074369</speed>
  <fix>3d</fix>
</trkpt>
<trkpt lat="33.8101643" lon="-118.39406">
  <ele>-0.112</ele>
  <time>2026-09-02T22:07:24Z</time>
  <course>10.18</course>
  <speed>0.7234638899074369</speed>
  <fix>3d</fix>
</trkpt>
<trkpt lat="33.8101643" lon="-118.39406">
  <ele>-0.112</ele>
  <time>2026-09-02T22:07:24Z</time>
  <course>10.19</course>
  <speed>0.7234638899074369</speed>
  <fix>3d</fix>
</trkpt>
<trkpt lat="33.8101643" lon="-118.3940599">
  <ele>-0.112</ele>
  <time>2026-09-02T22:07:24Z</time>
  <course>10.19</course>
  <speed>0.7234638899074369</speed>
  <fix>3d</fix>
</trkpt>
<trkpt lat="33.8101644" lon="-118.3940599">
  <ele>-0.112</ele>
  <time>2026-09-02T22:07:24Z</time>
  <course>10.19</course>
  <speed>0.7234638899074369</speed>
  <fix>3d</fix>
</trkpt>
<trkpt lat="33.8101644" lon="-118.3940598">
  <ele>-0.112</ele>
  <time>2026-09-02T22:07:24Z</time>
  <course>10.19</course>
  <speed>0.7234638899074369</speed>
  <fix>3d</fix>
</trkpt>
<trkpt lat="33.8101644" lon="-118.3940598">
  <ele>-0.112</ele>
  <time>2026-09-02T22:07:24Z</time>
  <course>10.19</course>
  <speed>0.7234638899074369</speed>
  <fix>3d</fix>
</trkpt>
<trkpt lat="33.8101645" lon="-118.3940597">
  <ele>-0.112</ele>
  <time>2026-09-02T22:07:24Z</time>
  <course>10.19</course>
  <speed>0.7234638899074369</speed>
  <fix>3d</fix>
</trkpt>
<trkpt lat="33.8101645" lon="-118.3940597">
  <ele>-0.112</ele>
  <time>2026-09-02T22:07:24Z</time>
  <course>10.19</course>
  <speed>0.7234638899074369</speed>
  <fix>3d</fix>
</trkpt>
<trkpt lat="33.8101641" lon="-118.3940606">
  <ele>-0.11</ele>
  <time>2026-09-02T22:07:24Z</time>
  <course>47.01</course>
  <speed>0.73</speed>
  <fix>3d</fix>
</trkpt>
<trkpt lat="33.8101645" lon="-118.3940597">
  <ele>-0.112</ele>
  <time>2026-09-02T22:07:24Z</time>
  <course>10.19</course>
  <speed>0.7234638899074369</speed>
  <fix>3d</fix>
</trkpt>
<trkpt lat="33.8101645" lon="-118.3940596">
  <ele>-0.112</ele>
  <time>2026-09-02T22:07:24Z</time>
  <course>10.19</course>
  <speed>0.7234638899074369</speed>
  <fix>3d</fix>
</trkpt>
<trkpt lat="33.8101646" lon="-118.3940596">
  <ele>-0.112</ele>
  <time>2026-09-02T22:07:24Z</time>
  <course>10.19</course>
  <speed>0.7234638899074369</speed>
  <fix>3d</fix>
</trkpt>
<trkpt lat="33.8101646" lon="-118.3940595">
  <ele>-0.112</ele>
  <time>2026-09-02T22:07:24Z</time>
  <course>10.19</course>
  <speed>0.7234638899074369</speed>
  <fix>3d</fix>
</trkpt>
<trkpt lat="33.8101647" lon="-118.3940595">
  <ele>-0.112</ele>
  <time>2026-09-02T22:07:24Z</time>
  <course>10.19</course>
  <speed>0.7234638899074369</speed>
  <fix>3d</fix>
</trkpt>
<trkpt lat="33.8101647" lon="-118.3940595">
  <ele>-0.112</ele>
  <time>2026-09-02T22:07:24Z</time>
  <course>10.19</course>
  <speed>0.7234638899074369</speed>
  <fix>3d</fix>
</trkpt>
<trkpt lat="33.8101647" lon="-118.3940594">
  <ele>-0.113</ele>
  <time>2026-09-02T22:07:24Z</time>
  <course>10.19</course>
  <speed>0.7234638899074369</speed>
  <fix>3d</fix>
</trkpt>
<trkpt lat="33.8101648" lon="-118.3940593">
  <ele>-0.113</ele>
  <time>2026-09-02T22:07:24Z</time>
  <course>10.19</course>
  <speed>0.7234638899074369</speed>
  <fix>3d</fix>
</trkpt>
<trkpt lat="33.8101648" lon="-118.3940593">
  <ele>-0.113</ele>
  <time>2026-09-02T22:07:24Z</time>
  <course>10.2</course>
  <speed>0.7234638899074369</speed>
  <fix>3d</fix>
</trkpt>
<trkpt lat="33.8101649" lon="-118.3940592">
  <ele>-0.113</ele>
  <time>2026-09-02T22:07:24Z</time>
  <course>10.2</course>
  <speed>0.7234638899074369</speed>
  <fix>3d</fix>
</trkpt>
<trkpt lat="33.8101649" lon="-118.3940592">
  <ele>-0.113</ele>
  <time>2026-09-02T22:07:24Z</time>
  <course>10.2</course>
  <speed>0.7234638899074369</speed>
  <fix>3d</fix>
</trkpt>
<trkpt lat="33.8101649" lon="-118.3940591">
  <ele>-0.113</ele>
  <time>2026-09-02T22:07:24Z</time>
  <course>10.2</course>
  <speed>0.7234638899074369</speed>
  <fix>3d</fix>
</trkpt>
<trkpt lat="33.8101641" lon="-118.3940606">
  <ele>-0.11</ele>
  <time>2026-09-02T22:07:24Z</time>
  <course>47.01</course>
  <speed>0.73</speed>
  <fix>3d</fix>
</trkpt>
<trkpt lat="33.8101649" lon="-118.3940591">
  <ele>-0.113</ele>
  <time>2026-09-02T22:07:24Z</time>
  <course>10.2</course>
  <speed>0.7234638899074369</speed>
  <fix>3d</fix>
</trkpt>
<trkpt lat="33.810165" lon="-118.3940591">
  <ele>-0.113</ele>
  <time>2026-09-02T22:07:24Z</time>
  <course>10.2</course>
  <speed>0.7234638899074369</speed>
  <fix>3d</fix>
</trkpt>
<trkpt lat="33.810165" lon="-118.394059">
  <ele>-0.113</ele>
  <time>2026-09-02T22:07:24Z</time>
  <course>10.2</course>
  <speed>0.7234638899074369</speed>
  <fix>3d</fix>
</trkpt>
<trkpt lat="33.8101651" lon="-118.394059">
  <ele>-0.113</ele>
  <time>2026-09-02T22:07:24Z</time>
  <course>10.2</course>
  <speed>0.7234638899074369</speed>
  <fix>3d</fix>
</trkpt>
<trkpt lat="33.8101651" lon="-118.3940589">
  <ele>-0.113</ele>
  <time>2026-09-02T22:07:24Z</time>
  <course>10.2</course>
  <speed>0.7234638899074369</speed>
  <fix>3d</fix>
</trkpt>
<trkpt lat="33.8101651" lon="-118.3940588">
  <ele>-0.113</ele>
  <time>2026-09-02T22:07:24Z</time>
  <course>10.2</course>
  <speed>0.7234638899074369</speed>
  <fix>3d</fix>
</trkpt>
<trkpt lat="33.8101652" lon="-118.3940588">
  <ele>-0.113</ele>
  <time>2026-09-02T22:07:24Z</time>
  <course>10.2</course>
  <speed>0.7234638899074369</speed>
  <fix>3d</fix>
</trkpt>
<trkpt lat="33.8101652" lon="-118.3940588">
  <ele>-0.113</ele>
  <time>2026-09-02T22:07:24Z</time>
  <course>10.2</course>
  <speed>0.7234638899074369</speed>
  <fix>3d</fix>
</trkpt>
<trkpt lat="33.8101653" lon="-118.3940587">
  <ele>-0.113</ele>
  <time>2026-09-02T22:07:24Z</time>
  <course>10.2</course>
  <speed>0.7234638899074369</speed>
  <fix>3d</fix>
</trkpt>
<trkpt lat="33.8101653" lon="-118.3940587">
  <ele>-0.113</ele>
  <time>2026-09-02T22:07:24Z</time>
  <course>10.2</course>
  <speed>0.7234638899074369</speed>
  <fix>3d</fix>
</trkpt>
<trkpt lat="33.8101653" lon="-118.3940586">
  <ele>-0.113</ele>
  <time>2026-09-02T22:07:24Z</time>
  <course>10.2</course>
  <speed>0.7234638899074369</speed>
  <fix>3d</fix>
</trkpt>
<trkpt lat="33.8101654" lon="-118.3940586">
  <ele>-0.113</ele>
  <time>2026-09-02T22:07:24Z</time>
  <course>10.2</course>
  <speed>0.7234638899074369</speed>
  <fix>3d</fix>
</trkpt>
<trkpt lat="33.8101654" lon="-118.3940586">
  <ele>-0.113</ele>
  <time>2026-09-02T22:07:24Z</time>
  <course>10.21</course>
  <speed>0.7234638899074369</speed>
  <fix>3d</fix>
</trkpt>
<trkpt lat="33.810165" lon="-118.3940595">
  <ele>-0.1</ele>
  <time>2026-09-02T22:07:24Z</time>
  <course>47.02</course>
  <speed>0.73</speed>
  <fix>3d</fix>
</trkpt>
<trkpt lat="33.8101654" lon="-118.3940585">
  <ele>-0.113</ele>
  <time>2026-09-02T22:07:24Z</time>
  <course>10.21</course>
  <speed>0.7234638899074369</speed>
  <fix>3d</fix>
</trkpt>
<trkpt lat="33.8101654" lon="-118.3940585">
  <ele>-0.113</ele>
  <time>2026-09-02T22:07:24Z</time>
  <course>10.21</course>
  <speed>0.7234638899074369</speed>
  <fix>3d</fix>
</trkpt>
<trkpt lat="33.8101655" lon="-118.3940584">
  <ele>-0.113</ele>
  <time>2026-09-02T22:07:24Z</time>
  <course>10.21</course>
  <speed>0.7234638899074369</speed>
  <fix>3d</fix>
</trkpt>
<trkpt lat="33.8101655" lon="-118.3940584">
  <ele>-0.113</ele>
  <time>2026-09-02T22:07:24Z</time>
  <course>10.21</course>
  <speed>0.7234638899074369</speed>
  <fix>3d</fix>
</trkpt>
<trkpt lat="33.8101656" lon="-118.3940583">
  <ele>-0.113</ele>
  <time>2026-09-02T22:07:24Z</time>
  <course>10.21</course>
  <speed>0.7234638899074369</speed>
  <fix>3d</fix>
</trkpt>
<trkpt lat="33.8101656" lon="-118.3940583">
  <ele>-0.113</ele>
  <time>2026-09-02T22:07:24Z</time>
  <course>10.21</course>
  <speed>0.7234638899074369</speed>
  <fix>3d</fix>
</trkpt>
<trkpt lat="33.8101656" lon="-118.3940582">
  <ele>-0.113</ele>
  <time>2026-09-02T22:07:24Z</time>
  <course>10.21</course>
  <speed>0.7234638899074369</speed>
  <fix>3d</fix>
</trkpt>
<trkpt lat="33.8101657" lon="-118.3940581">
  <ele>-0.113</ele>
  <time>2026-09-02T22:07:24Z</time>
  <course>10.21</course>
  <speed>0.7234638899074369</speed>
  <fix>3d</fix>
</trkpt>
<trkpt lat="33.8101657" lon="-118.3940581">
  <ele>-0.113</ele>
  <time>2026-09-02T22:07:24Z</time>
  <course>10.21</course>
  <speed>0.7234638899074369</speed>
  <fix>3d</fix>
</trkpt>
<trkpt lat="33.8101658" lon="-118.394058">
  <ele>-0.113</ele>
  <time>2026-09-02T22:07:24Z</time>
  <course>10.21</course>
  <speed>0.7234638899074369</speed>
  <fix>3d</fix>
</trkpt>
<trkpt lat="33.8101658" lon="-118.394058">
  <ele>-0.113</ele>
  <time>2026-09-02T22:07:24Z</time>
  <course>10.21</course>
  <speed>0.7234638899074369</speed>
  <fix>3d</fix>
</trkpt>
<trkpt lat="33.8101658" lon="-118.394058">
  <ele>-0.113</ele>
  <time>2026-09-02T22:07:24Z</time>
  <course>10.21</course>
  <speed>0.7234638899074369</speed>
  <fix>3d</fix>
</trkpt>
<trkpt lat="33.810165" lon="-118.3940595">
  <ele>-0.1</ele>
  <time>2026-09-02T22:07:24Z</time>
  <course>47.02</course>
  <speed>0.73</speed>
  <fix>3d</fix>
</trkpt>
<trkpt lat="33.8101658" lon="-118.394058">
  <ele>-0.113</ele>
  <time>2026-09-02T22:07:24Z</time>
  <course>10.21</course>
  <speed>0.7234638899074369</speed>
  <fix>3d</fix>
</trkpt>
<trkpt lat="33.8101659" lon="-118.3940579">
  <ele>-0.113</ele>
  <time>2026-09-02T22:07:24Z</time>
  <course>10.21</course>
  <speed>0.7234638899074369</speed>
  <fix>3d</fix>
</trkpt>
<trkpt lat="33.8101659" lon="-118.3940578">
  <ele>-0.113</ele>
  <time>2026-09-02T22:07:24Z</time>
  <course>10.22</course>
  <speed>0.7234638899074369</speed>
  <fix>3d</fix>
</trkpt>
<trkpt lat="33.810166" lon="-118.3940578">
  <ele>-0.113</ele>
  <time>2026-09-02T22:07:24Z</time>
  <course>10.22</course>
  <speed>0.7234638899074369</speed>
  <fix>3d</fix>
</trkpt>
<trkpt lat="33.810166" lon="-118.3940577">
  <ele>-0.113</ele>
  <time>2026-09-02T22:07:24Z</time>
  <course>10.22</course>
  <speed>0.7234638899074369</speed>
  <fix>3d</fix>
</trkpt>
<trkpt lat="33.810166" lon="-118.3940577">
  <ele>-0.113</ele>
  <time>2026-09-02T22:07:24Z</time>
  <course>10.22</course>
  <speed>0.7234638899074369</speed>
  <fix>3d</fix>
</trkpt>
<trkpt lat="33.8101661" lon="-118.3940577">
  <ele>-0.113</ele>
  <time>2026-09-02T22:07:24Z</time>
  <course>10.22</course>
  <speed>0.7234638899074369</speed>
  <fix>3d</fix>
</trkpt>
<trkpt lat="33.8101661" lon="-118.3940576">
  <ele>-0.113</ele>
  <time>2026-09-02T22:07:24Z</time>
  <course>10.22</course>
  <speed>0.7234638899074369</speed>
  <fix>3d</fix>
</trkpt>
<trkpt lat="33.8101661" lon="-118.3940576">
  <ele>-0.113</ele>
  <time>2026-09-02T22:07:24Z</time>
  <course>10.22</course>
  <speed>0.7234638899074369</speed>
  <fix>3d</fix>
</trkpt>
<trkpt lat="33.8101662" lon="-118.3940575">
  <ele>-0.113</ele>
  <time>2026-09-02T22:07:24Z</time>
  <course>10.22</course>
  <speed>0.7234638899074369</speed>
  <fix>3d</fix>
</trkpt>
<trkpt lat="33.8101662" lon="-118.3940575">
  <ele>-0.113</ele>
  <time>2026-09-02T22:07:24Z</time>
  <course>10.22</course>
  <speed>0.7234638899074369</speed>
  <fix>3d</fix>
</trkpt>
<trkpt lat="33.8101663" lon="-118.3940574">
  <ele>-0.113</ele>
  <time>2026-09-02T22:07:24Z</time>
  <course>10.22</course>
  <speed>0.7234638899074369</speed>
  <fix>3d</fix>
</trkpt>
<trkpt lat="33.8101663" lon="-118.3940574">
  <ele>-0.113</ele>
  <time>2026-09-02T22:07:24Z</time>
  <course>10.22</course>
  <speed>0.7234638899074369</speed>
  <fix>3d</fix>
</trkpt>
<trkpt lat="33.8101659" lon="-118.3940584">
  <ele>-0.1</ele>
  <time>2026-09-02T22:07:24Z</time>
  <course>47.04</course>
  <speed>0.73</speed>
  <fix>3d</fix>
</trkpt>
<trkpt lat="33.8101663" lon="-118.3940574">
  <ele>-0.113</ele>
  <time>2026-09-02T22:07:24Z</time>
  <course>10.22</course>
  <speed>0.7234638899074369</speed>
  <fix>3d</fix>
</trkpt>
<trkpt lat="33.8101663" lon="-118.3940573">
  <ele>-0.113</ele>
  <time>2026-09-02T22:07:24Z</time>
  <course>10.22</course>
  <speed>0.7234638899074369</speed>
  <fix>3d</fix>
</trkpt>
<trkpt lat="33.8101664" lon="-118.3940572">
  <ele>-0.113</ele>
  <time>2026-09-02T22:07:24Z</time>
  <course>10.22</course>
  <speed>0.7234638899074369</speed>
  <fix>3d</fix>
</trkpt>
<trkpt lat="33.8101664" lon="-118.3940572">
  <ele>-0.113</ele>
  <time>2026-09-02T22:07:24Z</time>
  <course>10.22</course>
  <speed>0.7234638899074369</speed>
  <fix>3d</fix>
</trkpt>
<trkpt lat="33.8101665" lon="-118.3940571">
  <ele>-0.113</ele>
  <time>2026-09-02T22:07:24Z</time>
  <course>10.23</course>
  <speed>0.7234638899074369</speed>
  <fix>3d</fix>
</trkpt>
<trkpt lat="33.8101665" lon="-118.3940571">
  <ele>-0.113</ele>
  <time>2026-09-02T22:07:24Z</time>
  <course>10.23</course>
  <speed>0.7234638899074369</speed>
  <fix>3d</fix>
</trkpt>
<trkpt lat="33.8101665" lon="-118.394057">
  <ele>-0.113</ele>
  <time>2026-09-02T22:07:24Z</time>
  <course>10.23</course>
  <speed>0.7234638899074369</speed>
  <fix>3d</fix>
</trkpt>
<trkpt lat="33.8101666" lon="-118.394057">
  <ele>-0.113</ele>
  <time>2026-09-02T22:07:24Z</time>
  <course>10.23</course>
  <speed>0.7234638899074369</speed>
  <fix>3d</fix>
</trkpt>
<trkpt lat="33.8101666" lon="-118.3940569">
  <ele>-0.113</ele>
  <time>2026-09-02T22:07:24Z</time>
  <course>10.23</course>
  <speed>0.7234638899074369</speed>
  <fix>3d</fix>
</trkpt>
<trkpt lat="33.8101667" lon="-118.3940569">
  <ele>-0.113</ele>
  <time>2026-09-02T22:07:24Z</time>
  <course>10.23</course>
  <speed>0.7234638899074369</speed>
  <fix>3d</fix>
</trkpt>
<trkpt lat="33.8101667" lon="-118.3940568">
  <ele>-0.113</ele>
  <time>2026-09-02T22:07:24Z</time>
  <course>10.23</course>
  <speed>0.7234638899074369</speed>
  <fix>3d</fix>
</trkpt>
<trkpt lat="33.8101667" lon="-118.3940568">
  <ele>-0.113</ele>
  <time>2026-09-02T22:07:24Z</time>
  <course>10.23</course>
  <speed>0.7234638899074369</speed>
  <fix>3d</fix>
</trkpt>
<trkpt lat="33.8101659" lon="-118.3940584">
  <ele>-0.1</ele>
  <time>2026-09-02T22:07:24Z</time>
  <course>47.04</course>
  <speed>0.73</speed>
  <fix>3d</fix>
</trkpt>
<trkpt lat="33.8101667" lon="-118.3940568">
  <ele>-0.113</ele>
  <time>2026-09-02T22:07:24Z</time>
  <course>10.23</course>
  <speed>0.7234638899074369</speed>
  <fix>3d</fix>
</trkpt>
<trkpt lat="33.8101668" lon="-118.3940567">
  <ele>-0.113</ele>
  <time>2026-09-02T22:07:24Z</time>
  <course>10.23</course>
  <speed>0.7234638899074369</speed>
  <fix>3d</fix>
</trkpt>
<trkpt lat="33.8101668" lon="-118.3940567">
  <ele>-0.113</ele>
  <time>2026-09-02T22:07:24Z</time>
  <course>10.23</course>
  <speed>0.7234638899074369</speed>
  <fix>3d</fix>
</trkpt>
<trkpt lat="33.8101669" lon="-118.3940566">
  <ele>-0.113</ele>
  <time>2026-09-02T22:07:24Z</time>
  <course>10.23</course>
  <speed>0.7234638899074369</speed>
  <fix>3d</fix>
</trkpt>
<trkpt lat="33.8101669" lon="-118.3940566">
  <ele>-0.112</ele>
  <time>2026-09-02T22:07:24Z</time>
  <course>10.23</course>
  <speed>0.7234638899074369</speed>
  <fix>3d</fix>
</trkpt>
<trkpt lat="33.810167" lon="-118.3940565">
  <ele>-0.112</ele>
  <time>2026-09-02T22:07:24Z</time>
  <course>10.24</course>
  <speed>0.7234638899074369</speed>
  <fix>3d</fix>
</trkpt>
<trkpt lat="33.810167" lon="-118.3940565">
  <ele>-0.112</ele>
  <time>2026-09-02T22:07:24Z</time>
  <course>10.24</course>
  <speed>0.7234638899074369</speed>
  <fix>3d</fix>
</trkpt>
<trkpt lat="33.810167" lon="-118.3940564">
  <ele>-0.112</ele>
  <time>2026-09-02T22:07:24Z</time>
  <course>10.24</course>
  <speed>0.7234638899074369</speed>
  <fix>3d</fix>
</trkpt>
<trkpt lat="33.8101671" lon="-118.3940564">
  <ele>-0.112</ele>
  <time>2026-09-02T22:07:24Z</time>
  <course>10.24</course>
  <speed>0.7234638899074369</speed>
  <fix>3d</fix>
</trkpt>
<trkpt lat="33.8101671" lon="-118.3940563">
  <ele>-0.112</ele>
  <time>2026-09-02T22:07:24Z</time>
  <course>10.24</course>
  <speed>0.7234638899074369</speed>
  <fix>3d</fix>
</trkpt>
<trkpt lat="33.8101671" lon="-118.3940563">
  <ele>-0.112</ele>
  <time>2026-09-02T22:07:24Z</time>
  <course>10.24</course>
  <speed>0.7234638899074369</speed>
  <fix>3d</fix>
</trkpt>
<trkpt lat="33.8101672" lon="-118.3940562">
  <ele>-0.112</ele>
  <time>2026-09-02T22:07:24Z</time>
  <course>10.24</course>
  <speed>0.7234638899074369</speed>
  <fix>3d</fix>
</trkpt>
<trkpt lat="33.8101672" lon="-118.3940562">
  <ele>-0.112</ele>
  <time>2026-09-02T22:07:24Z</time>
  <course>10.24</course>
  <speed>0.7234638899074369</speed>
  <fix>3d</fix>
</trkpt>
<trkpt lat="33.8101668" lon="-118.3940572">
  <ele>-0.1</ele>
  <time>2026-09-02T22:07:24Z</time>
  <course>47.06</course>
  <speed>0.73</speed>
  <fix>3d</fix>
</trkpt>
<trkpt lat="33.8101672" lon="-118.3940562">
  <ele>-0.111</ele>
  <time>2026-09-02T22:07:24Z</time>
  <course>10.24</course>
  <speed>0.7234638899074369</speed>
  <fix>3d</fix>
</trkpt>
<trkpt lat="33.8101672" lon="-118.3940561">
  <ele>-0.111</ele>
  <time>2026-09-02T22:07:24Z</time>
  <course>10.24</course>
  <speed>0.7234638899074369</speed>
  <fix>3d</fix>
</trkpt>
<trkpt lat="33.8101673" lon="-118.3940561">
  <ele>-0.111</ele>
  <time>2026-09-02T22:07:24Z</time>
  <course>10.24</course>
  <speed>0.7234638899074369</speed>
  <fix>3d</fix>
</trkpt>
<trkpt lat="33.8101673" lon="-118.394056">
  <ele>-0.111</ele>
  <time>2026-09-02T22:07:24Z</time>
  <course>10.24</course>
  <speed>0.7234638899074369</speed>
  <fix>3d</fix>
</trkpt>
<trkpt lat="33.8101674" lon="-118.394056">
  <ele>-0.111</ele>
  <time>2026-09-02T22:07:24Z</time>
  <course>10.24</course>
  <speed>0.7234638899074369</speed>
  <fix>3d</fix>
</trkpt>
<trkpt lat="33.8101674" lon="-118.3940559">
  <ele>-0.111</ele>
  <time>2026-09-02T22:07:24Z</time>
  <course>10.24</course>
  <speed>0.7234638899074369</speed>
  <fix>3d</fix>
</trkpt>
<trkpt lat="33.8101675" lon="-118.3940559">
  <ele>-0.111</ele>
  <time>2026-09-02T22:07:24Z</time>
  <course>10.24</course>
  <speed>0.7234638899074369</speed>
  <fix>3d</fix>
</trkpt>
<trkpt lat="33.8101675" lon="-118.3940558">
  <ele>-0.111</ele>
  <time>2026-09-02T22:07:24Z</time>
  <course>10.24</course>
  <speed>0.7234638899074369</speed>
  <fix>3d</fix>
</trkpt>
<trkpt lat="33.8101675" lon="-118.3940558">
  <ele>-0.111</ele>
  <time>2026-09-02T22:07:24Z</time>
  <course>10.25</course>
  <speed>0.7234638899074369</speed>
  <fix>3d</fix>
</trkpt>
<trkpt lat="33.8101676" lon="-118.3940557">
  <ele>-0.111</ele>
  <time>2026-09-02T22:07:24Z</time>
  <course>10.25</course>
  <speed>0.7234638899074369</speed>
  <fix>3d</fix>
</trkpt>
<trkpt lat="33.8101676" lon="-118.3940557">
  <ele>-0.111</ele>
  <time>2026-09-02T22:07:24Z</time>
  <course>10.25</course>
  <speed>0.7234638899074369</speed>
  <fix>3d</fix>
</trkpt>
<trkpt lat="33.8101676" lon="-118.3940556">
  <ele>-0.111</ele>
  <time>2026-09-02T22:07:24Z</time>
  <course>10.25</course>
  <speed>0.7234638899074369</speed>
  <fix>3d</fix>
</trkpt>
<trkpt lat="33.8101668" lon="-118.3940572">
  <ele>-0.1</ele>
  <time>2026-09-02T22:07:24Z</time>
  <course>47.06</course>
  <speed>0.73</speed>
  <fix>3d</fix>
</trkpt>
<trkpt lat="33.8101676" lon="-118.3940556">
  <ele>-0.111</ele>
  <time>2026-09-02T22:07:24Z</time>
  <course>10.25</course>
  <speed>0.7234638899074369</speed>
  <fix>3d</fix>
</trkpt>
<trkpt lat="33.8101677" lon="-118.3940555">
  <ele>-0.111</ele>
  <time>2026-09-02T22:07:24Z</time>
  <course>10.25</course>
  <speed>0.7234638899074369</speed>
  <fix>3d</fix>
</trkpt>
<trkpt lat="33.8101678" lon="-118.3940555">
  <ele>-0.111</ele>
  <time>2026-09-02T22:07:24Z</time>
  <course>10.25</course>
  <speed>0.7234638899074369</speed>
  <fix>3d</fix>
</trkpt>
<trkpt lat="33.8101678" lon="-118.3940554">
  <ele>-0.111</ele>
  <time>2026-09-02T22:07:24Z</time>
  <course>10.25</course>
  <speed>0.7234638899074369</speed>
  <fix>3d</fix>
</trkpt>
<trkpt lat="33.8101678" lon="-118.3940554">
  <ele>-0.111</ele>
  <time>2026-09-02T22:07:24Z</time>
  <course>10.25</course>
  <speed>0.7234638899074369</speed>
  <fix>3d</fix>
</trkpt>
<trkpt lat="33.8101679" lon="-118.3940553">
  <ele>-0.111</ele>
  <time>2026-09-02T22:07:24Z</time>
  <course>10.25</course>
  <speed>0.7234638899074369</speed>
  <fix>3d</fix>
</trkpt>
<trkpt lat="33.8101679" lon="-118.3940553">
  <ele>-0.112</ele>
  <time>2026-09-02T22:07:24Z</time>
  <course>10.25</course>
  <speed>0.7234638899074369</speed>
  <fix>3d</fix>
</trkpt>
<trkpt lat="33.810168" lon="-118.3940552">
  <ele>-0.112</ele>
  <time>2026-09-02T22:07:24Z</time>
  <course>10.25</course>
  <speed>0.7234638899074369</speed>
  <fix>3d</fix>
</trkpt>
<trkpt lat="33.810168" lon="-118.3940552">
  <ele>-0.112</ele>
  <time>2026-09-02T22:07:24Z</time>
  <course>10.25</course>
  <speed>0.7234638899074369</speed>
  <fix>3d</fix>
</trkpt>
<trkpt lat="33.810168" lon="-118.3940551">
  <ele>-0.112</ele>
  <time>2026-09-02T22:07:24Z</time>
  <course>10.25</course>
  <speed>0.7234638899074369</speed>
  <fix>3d</fix>
</trkpt>
<trkpt lat="33.8101681" lon="-118.3940551">
  <ele>-0.112</ele>
  <time>2026-09-02T22:07:24Z</time>
  <course>10.25</course>
  <speed>0.7234638899074369</speed>
  <fix>3d</fix>
</trkpt>
<trkpt lat="33.8101681" lon="-118.3940551">
  <ele>-0.112</ele>
  <time>2026-09-02T22:07:24Z</time>
  <course>10.26</course>
  <speed>0.7234638899074369</speed>
  <fix>3d</fix>
</trkpt>
<trkpt lat="33.8101677" lon="-118.394056">
  <ele>-0.1</ele>
  <time>2026-09-02T22:07:24Z</time>
  <course>47.07</course>
  <speed>0.73</speed>
  <fix>3d</fix>
</trkpt>
<trkpt lat="33.8101681" lon="-118.394055">
  <ele>-0.112</ele>
  <time>2026-09-02T22:07:24Z</time>
  <course>10.26</course>
  <speed>0.7234638899074369</speed>
  <fix>3d</fix>
</trkpt>
<trkpt lat="33.8101681" lon="-118.394055">
  <ele>-0.112</ele>
  <time>2026-09-02T22:07:24Z</time>
  <course>10.26</course>
  <speed>0.7234638899074369</speed>
  <fix>3d</fix>
</trkpt>
<trkpt lat="33.8101682" lon="-118.3940549">
  <ele>-0.112</ele>
  <time>2026-09-02T22:07:24Z</time>
  <course>10.26</course>
  <speed>0.7234638899074369</speed>
  <fix>3d</fix>
</trkpt>
<trkpt lat="33.8101682" lon="-118.3940549">
  <ele>-0.112</ele>
  <time>2026-09-02T22:07:24Z</time>
  <course>10.26</course>
  <speed>0.7234638899074369</speed>
  <fix>3d</fix>
</trkpt>
<trkpt lat="33.8101683" lon="-118.3940548">
  <ele>-0.112</ele>
  <time>2026-09-02T22:07:24Z</time>
  <course>10.26</course>
  <speed>0.7234638899074369</speed>
  <fix>3d</fix>
</trkpt>
<trkpt lat="33.8101683" lon="-118.3940548">
  <ele>-0.113</ele>
  <time>2026-09-02T22:07:24Z</time>
  <course>10.26</course>
  <speed>0.7234638899074369</speed>
  <fix>3d</fix>
</trkpt>
<trkpt lat="33.8101684" lon="-118.3940547">
  <ele>-0.113</ele>
  <time>2026-09-02T22:07:24Z</time>
  <course>10.26</course>
  <speed>0.7234638899074369</speed>
  <fix>3d</fix>
</trkpt>
<trkpt lat="33.8101684" lon="-118.3940546">
  <ele>-0.113</ele>
  <time>2026-09-02T22:07:24Z</time>
  <course>10.26</course>
  <speed>0.7234638899074369</speed>
  <fix>3d</fix>
</trkpt>
<trkpt lat="33.8101685" lon="-118.3940546">
  <ele>-0.113</ele>
  <time>2026-09-02T22:07:24Z</time>
  <course>10.26</course>
  <speed>0.7234638899074369</speed>
  <fix>3d</fix>
</trkpt>
<trkpt lat="33.8101685" lon="-118.3940545">
  <ele>-0.113</ele>
  <time>2026-09-02T22:07:24Z</time>
  <course>10.26</course>
  <speed>0.7234638899074369</speed>
  <fix>3d</fix>
</trkpt>
<trkpt lat="33.8101685" lon="-118.3940545">
  <ele>-0.113</ele>
  <time>2026-09-02T22:07:24Z</time>
  <course>10.26</course>
  <speed>0.7234638899074369</speed>
  <fix>3d</fix>
</trkpt>
<trkpt lat="33.8101677" lon="-118.394056">
  <ele>-0.1</ele>
  <time>2026-09-02T22:07:24Z</time>
  <course>47.07</course>
  <speed>0.73</speed>
  <fix>3d</fix>
</trkpt>
<trkpt lat="33.8101685" lon="-118.3940545">
  <ele>-0.113</ele>
  <time>2026-09-02T22:07:24Z</time>
  <course>10.26</course>
  <speed>0.7234638899074369</speed>
  <fix>3d</fix>
</trkpt>
<trkpt lat="33.8101686" lon="-118.3940544">
  <ele>-0.113</ele>
  <time>2026-09-02T22:07:24Z</time>
  <course>10.26</course>
  <speed>0.7234638899074369</speed>
  <fix>3d</fix>
</trkpt>
<trkpt lat="33.8101686" lon="-118.3940543">
  <ele>-0.113</ele>
  <time>2026-09-02T22:07:24Z</time>
  <course>10.27</course>
  <speed>0.7234638899074369</speed>
  <fix>3d</fix>
</trkpt>
<trkpt lat="33.8101687" lon="-118.3940543">
  <ele>-0.113</ele>
  <time>2026-09-02T22:07:24Z</time>
  <course>10.27</course>
  <speed>0.7234638899074369</speed>
  <fix>3d</fix>
</trkpt>
<trkpt lat="33.8101687" lon="-118.3940542">
  <ele>-0.114</ele>
  <time>2026-09-02T22:07:24Z</time>
  <course>10.27</course>
  <speed>0.7234638899074369</speed>
  <fix>3d</fix>
</trkpt>
<trkpt lat="33.8101688" lon="-118.3940542">
  <ele>-0.114</ele>
  <time>2026-09-02T22:07:24Z</time>
  <course>10.27</course>
  <speed>0.7234638899074369</speed>
  <fix>3d</fix>
</trkpt>
<trkpt lat="33.8101688" lon="-118.3940541">
  <ele>-0.114</ele>
  <time>2026-09-02T22:07:24Z</time>
  <course>10.27</course>
  <speed>0.7234638899074369</speed>
  <fix>3d</fix>
</trkpt>
<trkpt lat="33.8101688" lon="-118.3940541">
  <ele>-0.114</ele>
  <time>2026-09-02T22:07:24Z</time>
  <course>10.27</course>
  <speed>0.7234638899074369</speed>
  <fix>3d</fix>
</trkpt>
<trkpt lat="33.8101689" lon="-118.394054">
  <ele>-0.114</ele>
  <time>2026-09-02T22:07:24Z</time>
  <course>10.27</course>
  <speed>0.7234638899074369</speed>
  <fix>3d</fix>
</trkpt>
<trkpt lat="33.8101689" lon="-118.394054">
  <ele>-0.114</ele>
  <time>2026-09-02T22:07:24Z</time>
  <course>10.27</course>
  <speed>0.7234638899074369</speed>
  <fix>3d</fix>
</trkpt>
<trkpt lat="33.810169" lon="-118.3940539">
  <ele>-0.114</ele>
  <time>2026-09-02T22:07:24Z</time>
  <course>10.27</course>
  <speed>0.7234638899074369</speed>
  <fix>3d</fix>
</trkpt>
<trkpt lat="33.810169" lon="-118.3940539">
  <ele>-0.114</ele>
  <time>2026-09-02T22:07:24Z</time>
  <course>10.27</course>
  <speed>0.7234638899074369</speed>
  <fix>3d</fix>
</trkpt>
<trkpt lat="33.8101686" lon="-118.3940548">
  <ele>-0.11</ele>
  <time>2026-09-02T22:07:24Z</time>
  <course>47.09</course>
  <speed>0.73</speed>
  <fix>3d</fix>
</trkpt>
<trkpt lat="33.810169" lon="-118.3940539">
  <ele>-0.114</ele>
  <time>2026-09-02T22:07:24Z</time>
  <course>10.27</course>
  <speed>0.7234638899074369</speed>
  <fix>3d</fix>
</trkpt>
<trkpt lat="33.8101691" lon="-118.3940538">
  <ele>-0.114</ele>
  <time>2026-09-02T22:07:24Z</time>
  <course>10.27</course>
  <speed>0.7234638899074369</speed>
  <fix>3d</fix>
</trkpt>
<trkpt lat="33.8101691" lon="-118.3940537">
  <ele>-0.114</ele>
  <time>2026-09-02T22:07:24Z</time>
  <course>10.27</course>
  <speed>0.7234638899074369</speed>
  <fix>3d</fix>
</trkpt>
<trkpt lat="33.8101691" lon="-118.3940537">
  <ele>-0.114</ele>
  <time>2026-09-02T22:07:24Z</time>
  <course>10.27</course>
  <speed>0.7234638899074369</speed>
  <fix>3d</fix>
</trkpt>
<trkpt lat="33.8101692" lon="-118.3940536">
  <ele>-0.114</ele>
  <time>2026-09-02T22:07:24Z</time>
  <course>10.28</course>
  <speed>0.7234638899074369</speed>
  <fix>3d</fix>
</trkpt>
<trkpt lat="33.8101692" lon="-118.3940536">
  <ele>-0.114</ele>
  <time>2026-09-02T22:07:24Z</time>
  <course>10.28</course>
  <speed>0.7234638899074369</speed>
  <fix>3d</fix>
</trkpt>
<trkpt lat="33.8101693" lon="-118.3940535">
  <ele>-0.114</ele>
  <time>2026-09-02T22:07:24Z</time>
  <course>10.28</course>
  <speed>0.7234638899074369</speed>
  <fix>3d</fix>
</trkpt>
<trkpt lat="33.8101693" lon="-118.3940535">
  <ele>-0.114</ele>
  <time>2026-09-02T22:07:24Z</time>
  <course>10.28</course>
  <speed>0.7234638899074369</speed>
  <fix>3d</fix>
</trkpt>
<trkpt lat="33.8101693" lon="-118.3940534">
  <ele>-0.114</ele>
  <time>2026-09-02T22:07:24Z</time>
  <course>10.28</course>
  <speed>0.7234638899074369</speed>
  <fix>3d</fix>
</trkpt>
<trkpt lat="33.8101694" lon="-118.3940534">
  <ele>-0.114</ele>
  <time>2026-09-02T22:07:24Z</time>
  <course>10.28</course>
  <speed>0.7234638899074369</speed>
  <fix>3d</fix>
</trkpt>
<trkpt lat="33.8101694" lon="-118.3940533">
  <ele>-0.114</ele>
  <time>2026-09-02T22:07:24Z</time>
  <course>10.28</course>
  <speed>0.7234638899074369</speed>
  <fix>3d</fix>
</trkpt>
<trkpt lat="33.8101694" lon="-118.3940533">
  <ele>-0.113</ele>
  <time>2026-09-02T22:07:24Z</time>
  <course>10.28</course>
  <speed>0.7234638899074369</speed>
  <fix>3d</fix>
</trkpt>
<trkpt lat="33.8101686" lon="-118.3940548">
  <ele>-0.11</ele>
  <time>2026-09-02T22:07:24Z</time>
  <course>47.09</course>
  <speed>0.73</speed>
  <fix>3d</fix>
</trkpt>
<trkpt lat="33.8101694" lon="-118.3940533">
  <ele>-0.113</ele>
  <time>2026-09-02T22:07:24Z</time>
  <course>10.28</course>
  <speed>0.7234638899074369</speed>
  <fix>3d</fix>
</trkpt>
<trkpt lat="33.8101695" lon="-118.3940532">
  <ele>-0.113</ele>
  <time>2026-09-02T22:07:24Z</time>
  <course>10.28</course>
  <speed>0.7234638899074369</speed>
  <fix>3d</fix>
</trkpt>
<trkpt lat="33.8101695" lon="-118.3940531">
  <ele>-0.113</ele>
  <time>2026-09-02T22:07:24Z</time>
  <course>10.28</course>
  <speed>0.7234638899074369</speed>
  <fix>3d</fix>
</trkpt>
<trkpt lat="33.8101696" lon="-118.3940531">
  <ele>-0.113</ele>
  <time>2026-09-02T22:07:24Z</time>
  <course>10.28</course>
  <speed>0.7234638899074369</speed>
  <fix>3d</fix>
</trkpt>
<trkpt lat="33.8101696" lon="-118.394053">
  <ele>-0.113</ele>
  <time>2026-09-02T22:07:24Z</time>
  <course>10.28</course>
  <speed>0.7234638899074369</speed>
  <fix>3d</fix>
</trkpt>
<trkpt lat="33.8101697" lon="-118.394053">
  <ele>-0.113</ele>
  <time>2026-09-02T22:07:24Z</time>
  <course>10.28</course>
  <speed>0.7234638899074369</speed>
  <fix>3d</fix>
</trkpt>
<trkpt lat="33.8101697" lon="-118.3940529">
  <ele>-0.113</ele>
  <time>2026-09-02T22:07:24Z</time>
  <course>10.29</course>
  <speed>0.7234638899074369</speed>
  <fix>3d</fix>
</trkpt>
<trkpt lat="33.8101698" lon="-118.3940529">
  <ele>-0.112</ele>
  <time>2026-09-02T22:07:24Z</time>
  <course>10.29</course>
  <speed>0.7234638899074369</speed>
  <fix>3d</fix>
</trkpt>
<trkpt lat="33.8101698" lon="-118.3940528">
  <ele>-0.112</ele>
  <time>2026-09-02T22:07:24Z</time>
  <course>10.29</course>
  <speed>0.7234638899074369</speed>
  <fix>3d</fix>
</trkpt>
<trkpt lat="33.8101698" lon="-118.3940528">
  <ele>-0.112</ele>
  <time>2026-09-02T22:07:24Z</time>
  <course>10.29</course>
  <speed>0.7234638899074369</speed>
  <fix>3d</fix>
</trkpt>
<trkpt lat="33.8101699" lon="-118.3940527">
  <ele>-0.112</ele>
  <time>2026-09-02T22:07:24Z</time>
  <course>10.29</course>
  <speed>0.7234638899074369</speed>
  <fix>3d</fix>
</trkpt>
<trkpt lat="33.8101695" lon="-118.3940537">
  <ele>-0.1</ele>
  <time>2026-09-02T22:07:24Z</time>
  <course>47.1</course>
  <speed>0.73</speed>
  <fix>3d</fix>
</trkpt>
<trkpt lat="33.8101699" lon="-118.3940527">
  <ele>-0.112</ele>
  <time>2026-09-02T22:07:24Z</time>
  <course>10.29</course>
  <speed>0.7234638899074369</speed>
  <fix>3d</fix>
</trkpt>
<trkpt lat="33.8101699" lon="-118.3940526">
  <ele>-0.112</ele>
  <time>2026-09-02T22:07:24Z</time>
  <course>10.29</course>
  <speed>0.7234638899074369</speed>
  <fix>3d</fix>
</trkpt>
<trkpt lat="33.81017" lon="-118.3940526">
  <ele>-0.112</ele>
  <time>2026-09-02T22:07:24Z</time>
  <course>10.29</course>
  <speed>0.7234638899074369</speed>
  <fix>3d</fix>
</trkpt>
<trkpt lat="33.81017" lon="-118.3940525">
  <ele>-0.112</ele>
  <time>2026-09-02T22:07:24Z</time>
  <course>10.29</course>
  <speed>0.7234638899074369</speed>
  <fix>3d</fix>
</trkpt>
<trkpt lat="33.8101701" lon="-118.3940525">
  <ele>-0.112</ele>
  <time>2026-09-02T22:07:24Z</time>
  <course>10.29</course>
  <speed>0.7234638899074369</speed>
  <fix>3d</fix>
</trkpt>
<trkpt lat="33.8101701" lon="-118.3940524">
  <ele>-0.111</ele>
  <time>2026-09-02T22:07:24Z</time>
  <course>10.29</course>
  <speed>0.7234638899074369</speed>
  <fix>3d</fix>
</trkpt>
<trkpt lat="33.8101702" lon="-118.3940524">
  <ele>-0.111</ele>
  <time>2026-09-02T22:07:24Z</time>
  <course>10.29</course>
  <speed>0.7234638899074369</speed>
  <fix>3d</fix>
</trkpt>
<trkpt lat="33.8101702" lon="-118.3940523">
  <ele>-0.111</ele>
  <time>2026-09-02T22:07:24Z</time>
  <course>10.29</course>
  <speed>0.7234638899074369</speed>
  <fix>3d</fix>
</trkpt>
<trkpt lat="33.8101702" lon="-118.3940522">
  <ele>-0.111</ele>
  <time>2026-09-02T22:07:24Z</time>
  <course>10.29</course>
  <speed>0.7234638899074369</speed>
  <fix>3d</fix>
</trkpt>
<trkpt lat="33.8101703" lon="-118.3940522">
  <ele>-0.111</ele>
  <time>2026-09-02T22:07:24Z</time>
  <course>10.29</course>
  <speed>0.7234638899074369</speed>
  <fix>3d</fix>
</trkpt>
<trkpt lat="33.8101703" lon="-118.3940522">
  <ele>-0.111</ele>
  <time>2026-09-02T22:07:24Z</time>
  <course>10.3</course>
  <speed>0.7234638899074369</speed>
  <fix>3d</fix>
</trkpt>
<trkpt lat="33.8101703" lon="-118.3940521">
  <ele>-0.111</ele>
  <time>2026-09-02T22:07:24Z</time>
  <course>10.3</course>
  <speed>0.7234638899074369</speed>
  <fix>3d</fix>
</trkpt>
<trkpt lat="33.8101695" lon="-118.3940537">
  <ele>-0.1</ele>
  <time>2026-09-02T22:07:24Z</time>
  <course>47.1</course>
  <speed>0.73</speed>
  <fix>3d</fix>
</trkpt>
<trkpt lat="33.8101703" lon="-118.3940521">
  <ele>-0.111</ele>
  <time>2026-09-02T22:07:24Z</time>
  <course>10.3</course>
  <speed>0.7234638899074369</speed>
  <fix>3d</fix>
</trkpt>
<trkpt lat="33.8101704" lon="-118.394052">
  <ele>-0.111</ele>
  <time>2026-09-02T22:07:24Z</time>
  <course>10.3</course>
  <speed>0.7234638899074369</speed>
  <fix>3d</fix>
</trkpt>
<trkpt lat="33.8101704" lon="-118.394052">
  <ele>-0.111</ele>
  <time>2026-09-02T22:07:24Z</time>
  <course>10.3</course>
  <speed>0.7234638899074369</speed>
  <fix>3d</fix>
</trkpt>
<trkpt lat="33.8101705" lon="-118.3940519">
  <ele>-0.111</ele>
  <time>2026-09-02T22:07:24Z</time>
  <course>10.3</course>
  <speed>0.7234638899074369</speed>
  <fix>3d</fix>
</trkpt>
<trkpt lat="33.8101705" lon="-118.3940519">
  <ele>-0.111</ele>
  <time>2026-09-02T22:07:24Z</time>
  <course>10.3</course>
  <speed>0.7234638899074369</speed>
  <fix>3d</fix>
</trkpt>
<trkpt lat="33.8101706" lon="-118.3940518">
  <ele>-0.11</ele>
  <time>2026-09-02T22:07:24Z</time>
  <course>10.3</course>
  <speed>0.7234638899074369</speed>
  <fix>3d</fix>
</trkpt>
<trkpt lat="33.8101706" lon="-118.3940518">
  <ele>-0.11</ele>
  <time>2026-09-02T22:07:24Z</time>
  <course>10.3</course>
  <speed>0.7234638899074369</speed>
  <fix>3d</fix>
</trkpt>
<trkpt lat="33.8101706" lon="-118.3940517">
  <ele>-0.11</ele>
  <time>2026-09-02T22:07:24Z</time>
  <course>10.3</course>
  <speed>0.7234638899074369</speed>
  <fix>3d</fix>
</trkpt>
<trkpt lat="33.8101707" lon="-118.3940517">
  <ele>-0.11</ele>
  <time>2026-09-02T22:07:24Z</time>
  <course>10.3</course>
  <speed>0.7234638899074369</speed>
  <fix>3d</fix>
</trkpt>
<trkpt lat="33.8101707" lon="-118.3940516">
  <ele>-0.11</ele>
  <time>2026-09-02T22:07:24Z</time>
  <course>10.3</course>
  <speed>0.7234638899074369</speed>
  <fix>3d</fix>
</trkpt>
<trkpt lat="33.8101708" lon="-118.3940516">
  <ele>-0.11</ele>
  <time>2026-09-02T22:07:24Z</time>
  <course>10.3</course>
  <speed>0.7234638899074369</speed>
  <fix>3d</fix>
</trkpt>
<trkpt lat="33.8101708" lon="-118.3940515">
  <ele>-0.11</ele>
  <time>2026-09-02T22:07:24Z</time>
  <course>10.3</course>
  <speed>0.7234638899074369</speed>
  <fix>3d</fix>
</trkpt>
<trkpt lat="33.8101704" lon="-118.3940525">
  <ele>-0.1</ele>
  <time>2026-09-02T22:07:24Z</time>
  <course>47.12</course>
  <speed>0.73</speed>
  <fix>3d</fix>
</trkpt>
<trkpt lat="33.8101708" lon="-118.3940515">
  <ele>-0.11</ele>
  <time>2026-09-02T22:07:24Z</time>
  <course>10.3</course>
  <speed>0.7234638899074369</speed>
  <fix>3d</fix>
</trkpt>
<trkpt lat="33.8101708" lon="-118.3940515">
  <ele>-0.11</ele>
  <time>2026-09-02T22:07:24Z</time>
  <course>10.31</course>
  <speed>0.7234638899074369</speed>
  <fix>3d</fix>
</trkpt>
<trkpt lat="33.8101709" lon="-118.3940514">
  <ele>-0.11</ele>
  <time>2026-09-02T22:07:24Z</time>
  <course>10.31</course>
  <speed>0.7234638899074369</speed>
  <fix>3d</fix>
</trkpt>
<trkpt lat="33.8101709" lon="-118.3940513">
  <ele>-0.11</ele>
  <time>2026-09-02T22:07:24Z</time>
  <course>10.31</course>
  <speed>0.7234638899074369</speed>
  <fix>3d</fix>
</trkpt>
<trkpt lat="33.810171" lon="-118.3940513">
  <ele>-0.11</ele>
  <time>2026-09-02T22:07:24Z</time>
  <course>10.31</course>
  <speed>0.7234638899074369</speed>
  <fix>3d</fix>
</trkpt>
<trkpt lat="33.810171" lon="-118.3940512">
  <ele>-0.11</ele>
  <time>2026-09-02T22:07:24Z</time>
  <course>10.31</course>
  <speed>0.7234638899074369</speed>
  <fix>3d</fix>
</trkpt>
<trkpt lat="33.8101711" lon="-118.3940512">
  <ele>-0.11</ele>
  <time>2026-09-02T22:07:24Z</time>
  <course>10.31</course>
  <speed>0.7234638899074369</speed>
  <fix>3d</fix>
</trkpt>
<trkpt lat="33.8101711" lon="-118.3940511">
  <ele>-0.11</ele>
  <time>2026-09-02T22:07:24Z</time>
  <course>10.31</course>
  <speed>0.7234638899074369</speed>
  <fix>3d</fix>
</trkpt>
<trkpt lat="33.8101711" lon="-118.3940511">
  <ele>-0.11</ele>
  <time>2026-09-02T22:07:24Z</time>
  <course>10.31</course>
  <speed>0.7234638899074369</speed>
  <fix>3d</fix>
</trkpt>
<trkpt lat="33.8101712" lon="-118.394051">
  <ele>-0.11</ele>
  <time>2026-09-02T22:07:24Z</time>
  <course>10.31</course>
  <speed>0.7234638899074369</speed>
  <fix>3d</fix>
</trkpt>
<trkpt lat="33.8101712" lon="-118.394051">
  <ele>-0.11</ele>
  <time>2026-09-02T22:07:24Z</time>
  <course>10.31</course>
  <speed>0.7234638899074369</speed>
  <fix>3d</fix>
</trkpt>
<trkpt lat="33.8101712" lon="-118.394051">
  <ele>-0.11</ele>
  <time>2026-09-02T22:07:24Z</time>
  <course>10.31</course>
  <speed>0.7234638899074369</speed>
  <fix>3d</fix>
</trkpt>
<trkpt lat="33.8101704" lon="-118.3940525">
  <ele>-0.1</ele>
  <time>2026-09-02T22:07:24Z</time>
  <course>47.12</course>
  <speed>0.73</speed>
  <fix>3d</fix>
</trkpt>
<trkpt lat="33.8101713" lon="-118.3940509">
  <ele>-0.11</ele>
  <time>2026-09-02T22:07:24Z</time>
  <course>10.31</course>
  <speed>0.7234638899074369</speed>
  <fix>3d</fix>
</trkpt>
<trkpt lat="33.8101713" lon="-118.3940508">
  <ele>-0.11</ele>
  <time>2026-09-02T22:07:24Z</time>
  <course>10.31</course>
  <speed>0.7234638899074369</speed>
  <fix>3d</fix>
</trkpt>
<trkpt lat="33.8101714" lon="-118.3940508">
  <ele>-0.11</ele>
  <time>2026-09-02T22:07:24Z</time>
  <course>10.31</course>
  <speed>0.7234638899074369</speed>
  <fix>3d</fix>
</trkpt>
<trkpt lat="33.8101714" lon="-118.3940507">
  <ele>-0.11</ele>
  <time>2026-09-02T22:07:24Z</time>
  <course>10.32</course>
  <speed>0.7234638899074369</speed>
  <fix>3d</fix>
</trkpt>
<trkpt lat="33.8101714" lon="-118.3940507">
  <ele>-0.11</ele>
  <time>2026-09-02T22:07:24Z</time>
  <course>10.32</course>
  <speed>0.7234638899074369</speed>
  <fix>3d</fix>
</trkpt>
<trkpt lat="33.8101715" lon="-118.3940506">
  <ele>-0.11</ele>
  <time>2026-09-02T22:07:24Z</time>
  <course>10.32</course>
  <speed>0.7234638899074369</speed>
  <fix>3d</fix>
</trkpt>
<trkpt lat="33.8101715" lon="-118.3940506">
  <ele>-0.11</ele>
  <time>2026-09-02T22:07:24Z</time>
  <course>10.32</course>
  <speed>0.7234638899074369</speed>
  <fix>3d</fix>
</trkpt>
<trkpt lat="33.8101716" lon="-118.3940505">
  <ele>-0.11</ele>
  <time>2026-09-02T22:07:24Z</time>
  <course>10.32</course>
  <speed>0.7234638899074369</speed>
  <fix>3d</fix>
</trkpt>
<trkpt lat="33.8101716" lon="-118.3940504">
  <ele>-0.11</ele>
  <time>2026-09-02T22:07:24Z</time>
  <course>10.32</course>
  <speed>0.7234638899074369</speed>
  <fix>3d</fix>
</trkpt>
<trkpt lat="33.8101717" lon="-118.3940504">
  <ele>-0.11</ele>
  <time>2026-09-02T22:07:24Z</time>
  <course>10.32</course>
  <speed>0.7234638899074369</speed>
  <fix>3d</fix>
</trkpt>
<trkpt lat="33.8101717" lon="-118.3940504">
  <ele>-0.11</ele>
  <time>2026-09-02T22:07:24Z</time>
  <course>10.32</course>
  <speed>0.7234638899074369</speed>
  <fix>3d</fix>
</trkpt>
<trkpt lat="33.8101713" lon="-118.3940514">
  <ele>-0.1</ele>
  <time>2026-09-02T22:07:24Z</time>
  <course>47.13</course>
  <speed>0.73</speed>
  <fix>3d</fix>
</trkpt>
<trkpt lat="33.8101717" lon="-118.3940503">
  <ele>-0.11</ele>
  <time>2026-09-02T22:07:24Z</time>
  <course>10.32</course>
  <speed>0.7234638899074369</speed>
  <fix>3d</fix>
</trkpt>
<trkpt lat="33.8101718" lon="-118.3940503">
  <ele>-0.11</ele>
  <time>2026-09-02T22:07:24Z</time>
  <course>10.32</course>
  <speed>0.7234638899074369</speed>
  <fix>3d</fix>
</trkpt>
<trkpt lat="33.8101718" lon="-118.3940502">
  <ele>-0.11</ele>
  <time>2026-09-02T22:07:24Z</time>
  <course>10.32</course>
  <speed>0.7234638899074369</speed>
  <fix>3d</fix>
</trkpt>
<trkpt lat="33.8101719" lon="-118.3940501">
  <ele>-0.11</ele>
  <time>2026-09-02T22:07:24Z</time>
  <course>10.32</course>
  <speed>0.7234638899074369</speed>
  <fix>3d</fix>
</trkpt>
<trkpt lat="33.8101719" lon="-118.3940501">
  <ele>-0.11</ele>
  <time>2026-09-02T22:07:24Z</time>
  <course>10.32</course>
  <speed>0.7234638899074369</speed>
  <fix>3d</fix>
</trkpt>
<trkpt lat="33.8101719" lon="-118.3940501">
  <ele>-0.11</ele>
  <time>2026-09-02T22:07:24Z</time>
  <course>10.32</course>
  <speed>0.7234638899074369</speed>
  <fix>3d</fix>
</trkpt>
<trkpt lat="33.810172" lon="-118.39405">
  <ele>-0.11</ele>
  <time>2026-09-02T22:07:24Z</time>
  <course>10.33</course>
  <speed>0.7234638899074369</speed>
  <fix>3d</fix>
</trkpt>
<trkpt lat="33.810172" lon="-118.3940499">
  <ele>-0.11</ele>
  <time>2026-09-02T22:07:24Z</time>
  <course>10.33</course>
  <speed>0.7234638899074369</speed>
  <fix>3d</fix>
</trkpt>
<trkpt lat="33.810172" lon="-118.3940499">
  <ele>-0.11</ele>
  <time>2026-09-02T22:07:24Z</time>
  <course>10.33</course>
  <speed>0.7234638899074369</speed>
  <fix>3d</fix>
</trkpt>
<trkpt lat="33.8101721" lon="-118.3940499">
  <ele>-0.11</ele>
  <time>2026-09-02T22:07:24Z</time>
  <course>10.33</course>
  <speed>0.7234638899074369</speed>
  <fix>3d</fix>
</trkpt>
<trkpt lat="33.8101721" lon="-118.3940498">
  <ele>-0.11</ele>
  <time>2026-09-02T22:07:24Z</time>
  <course>10.33</course>
  <speed>0.7234638899074369</speed>
  <fix>3d</fix>
</trkpt>
<trkpt lat="33.8101721" lon="-118.3940498">
  <ele>-0.11</ele>
  <time>2026-09-02T22:07:24Z</time>
  <course>10.33</course>
  <speed>0.7234638899074369</speed>
  <fix>3d</fix>
</trkpt>
<trkpt lat="33.8101713" lon="-118.3940514">
  <ele>-0.1</ele>
  <time>2026-09-02T22:07:24Z</time>
  <course>47.13</course>
  <speed>0.73</speed>
  <fix>3d</fix>
</trkpt>
<trkpt lat="33.8101722" lon="-118.3940497">
  <ele>-0.11</ele>
  <time>2026-09-02T22:07:24Z</time>
  <course>10.33</course>
  <speed>0.7234638899074369</speed>
  <fix>3d</fix>
</trkpt>
<trkpt lat="33.8101723" lon="-118.3940496">
  <ele>-0.11</ele>
  <time>2026-09-02T22:07:24Z</time>
  <course>10.33</course>
  <speed>0.7234638899074369</speed>
  <fix>3d</fix>
</trkpt>
<trkpt lat="33.8101723" lon="-118.3940496">
  <ele>-0.11</ele>
  <time>2026-09-02T22:07:24Z</time>
  <course>10.33</course>
  <speed>0.7234638899074369</speed>
  <fix>3d</fix>
</trkpt>
<trkpt lat="33.8101723" lon="-118.3940495">
  <ele>-0.11</ele>
  <time>2026-09-02T22:07:24Z</time>
  <course>10.33</course>
  <speed>0.7234638899074369</speed>
  <fix>3d</fix>
</trkpt>
<trkpt lat="33.8101724" lon="-118.3940495">
  <ele>-0.11</ele>
  <time>2026-09-02T22:07:24Z</time>
  <course>10.33</course>
  <speed>0.7234638899074369</speed>
  <fix>3d</fix>
</trkpt>
<trkpt lat="33.8101724" lon="-118.3940494">
  <ele>-0.11</ele>
  <time>2026-09-02T22:07:24Z</time>
  <course>10.33</course>
  <speed>0.7234638899074369</speed>
  <fix>3d</fix>
</trkpt>
<trkpt lat="33.8101724" lon="-118.3940494">
  <ele>-0.11</ele>
  <time>2026-09-02T22:07:24Z</time>
  <course>10.33</course>
  <speed>0.7234638899074369</speed>
  <fix>3d</fix>
</trkpt>
<trkpt lat="33.8101725" lon="-118.3940493">
  <ele>-0.11</ele>
  <time>2026-09-02T22:07:24Z</time>
  <course>10.33</course>
  <speed>0.7234638899074369</speed>
  <fix>3d</fix>
</trkpt>
<trkpt lat="33.8101725" lon="-118.3940493">
  <ele>-0.11</ele>
  <time>2026-09-02T22:07:24Z</time>
  <course>10.33</course>
  <speed>0.7234638899074369</speed>
  <fix>3d</fix>
</trkpt>
<trkpt lat="33.8101726" lon="-118.3940492">
  <ele>-0.11</ele>
  <time>2026-09-02T22:07:24Z</time>
  <course>10.34</course>
  <speed>0.7234638899074369</speed>
  <fix>3d</fix>
</trkpt>
<trkpt lat="33.8101726" lon="-118.3940492">
  <ele>-0.11</ele>
  <time>2026-09-02T22:07:24Z</time>
  <course>10.34</course>
  <speed>0.7234638899074369</speed>
  <fix>3d</fix>
</trkpt>
<trkpt lat="33.8101722" lon="-118.3940501">
  <ele>-0.1</ele>
  <time>2026-09-02T22:07:24Z</time>
  <course>47.15</course>
  <speed>0.73</speed>
  <fix>3d</fix>
</trkpt>
<trkpt lat="33.8101727" lon="-118.3940491">
  <ele>-0.11</ele>
  <time>2026-09-02T22:07:24Z</time>
  <course>10.34</course>
  <speed>0.7234638899074369</speed>
  <fix>3d</fix>
</trkpt>
<trkpt lat="33.8101727" lon="-118.3940491">
  <ele>-0.11</ele>
  <time>2026-09-02T22:07:24Z</time>
  <course>10.34</course>
  <speed>0.7234638899074369</speed>
  <fix>3d</fix>
</trkpt>
<trkpt lat="33.8101727" lon="-118.394049">
  <ele>-0.11</ele>
  <time>2026-09-02T22:07:24Z</time>
  <course>10.34</course>
  <speed>0.7234638899074369</speed>
  <fix>3d</fix>
</trkpt>
<trkpt lat="33.8101728" lon="-118.394049">
  <ele>-0.111</ele>
  <time>2026-09-02T22:07:24Z</time>
  <course>10.34</course>
  <speed>0.7234638899074369</speed>
  <fix>3d</fix>
</trkpt>
<trkpt lat="33.8101728" lon="-118.3940489">
  <ele>-0.111</ele>
  <time>2026-09-02T22:07:24Z</time>
  <course>10.34</course>
  <speed>0.7234638899074369</speed>
  <fix>3d</fix>
</trkpt>
<trkpt lat="33.8101728" lon="-118.3940489">
  <ele>-0.111</ele>
  <time>2026-09-02T22:07:24Z</time>
  <course>10.34</course>
  <speed>0.7234638899074369</speed>
  <fix>3d</fix>
</trkpt>
<trkpt lat="33.8101729" lon="-118.3940488">
  <ele>-0.111</ele>
  <time>2026-09-02T22:07:24Z</time>
  <course>10.34</course>
  <speed>0.7234638899074369</speed>
  <fix>3d</fix>
</trkpt>
<trkpt lat="33.8101729" lon="-118.3940488">
  <ele>-0.111</ele>
  <time>2026-09-02T22:07:24Z</time>
  <course>10.34</course>
  <speed>0.7234638899074369</speed>
  <fix>3d</fix>
</trkpt>
<trkpt lat="33.8101729" lon="-118.3940487">
  <ele>-0.111</ele>
  <time>2026-09-02T22:07:24Z</time>
  <course>10.34</course>
  <speed>0.7234638899074369</speed>
  <fix>3d</fix>
</trkpt>
<trkpt lat="33.810173" lon="-118.3940487">
  <ele>-0.111</ele>
  <time>2026-09-02T22:07:24Z</time>
  <course>10.34</course>
  <speed>0.7234638899074369</speed>
  <fix>3d</fix>
</trkpt>
<trkpt lat="33.810173" lon="-118.3940486">
  <ele>-0.111</ele>
  <time>2026-09-02T22:07:24Z</time>
  <course>10.34</course>
  <speed>0.7234638899074369</speed>
  <fix>3d</fix>
</trkpt>
<trkpt lat="33.810173" lon="-118.3940486">
  <ele>-0.111</ele>
  <time>2026-09-02T22:07:24Z</time>
  <course>10.34</course>
  <speed>0.7234638899074369</speed>
  <fix>3d</fix>
</trkpt>
<trkpt lat="33.8101722" lon="-118.3940501">
  <ele>-0.1</ele>
  <time>2026-09-02T22:07:24Z</time>
  <course>47.15</course>
  <speed>0.73</speed>
  <fix>3d</fix>
</trkpt>
<trkpt lat="33.8101731" lon="-118.3940485">
  <ele>-0.111</ele>
  <time>2026-09-02T22:07:24Z</time>
  <course>10.35</course>
  <speed>0.7234638899074369</speed>
  <fix>3d</fix>
</trkpt>
<trkpt lat="33.8101731" lon="-118.3940485">
  <ele>-0.111</ele>
  <time>2026-09-02T22:07:24Z</time>
  <course>10.35</course>
  <speed>0.7234638899074369</speed>
  <fix>3d</fix>
</trkpt>
<trkpt lat="33.8101732" lon="-118.3940484">
  <ele>-0.111</ele>
  <time>2026-09-02T22:07:24Z</time>
  <course>10.35</course>
  <speed>0.7234638899074369</speed>
  <fix>3d</fix>
</trkpt>
<trkpt lat="33.8101732" lon="-118.3940484">
  <ele>-0.111</ele>
  <time>2026-09-02T22:07:24Z</time>
  <course>10.35</course>
  <speed>0.7234638899074369</speed>
  <fix>3d</fix>
</trkpt>
<trkpt lat="33.8101732" lon="-118.3940483">
  <ele>-0.111</ele>
  <time>2026-09-02T22:07:24Z</time>
  <course>10.35</course>
  <speed>0.7234638899074369</speed>
  <fix>3d</fix>
</trkpt>
<trkpt lat="33.8101733" lon="-118.3940483">
  <ele>-0.111</ele>
  <time>2026-09-02T22:07:24Z</time>
  <course>10.35</course>
  <speed>0.7234638899074369</speed>
  <fix>3d</fix>
</trkpt>
<trkpt lat="33.8101733" lon="-118.3940482">
  <ele>-0.111</ele>
  <time>2026-09-02T22:07:24Z</time>
  <course>10.35</course>
  <speed>0.7234638899074369</speed>
  <fix>3d</fix>
</trkpt>
<trkpt lat="33.8101734" lon="-118.3940482">
  <ele>-0.111</ele>
  <time>2026-09-02T22:07:24Z</time>
  <course>10.35</course>
  <speed>0.7234638899074369</speed>
  <fix>3d</fix>
</trkpt>
<trkpt lat="33.8101734" lon="-118.3940481">
  <ele>-0.111</ele>
  <time>2026-09-02T22:07:24Z</time>
  <course>10.35</course>
  <speed>0.7234638899074369</speed>
  <fix>3d</fix>
</trkpt>
<trkpt lat="33.8101735" lon="-118.3940481">
  <ele>-0.111</ele>
  <time>2026-09-02T22:07:24Z</time>
  <course>10.35</course>
  <speed>0.7234638899074369</speed>
  <fix>3d</fix>
</trkpt>
<trkpt lat="33.8101735" lon="-118.394048">
  <ele>-0.111</ele>
  <time>2026-09-02T22:07:24Z</time>
  <course>10.35</course>
  <speed>0.7234638899074369</speed>
  <fix>3d</fix>
</trkpt>
<trkpt lat="33.8101731" lon="-118.394049">
  <ele>-0.11</ele>
  <time>2026-09-02T22:07:24Z</time>
  <course>47.17</course>
  <speed>0.73</speed>
  <fix>3d</fix>
</trkpt>
<trkpt lat="33.8101735" lon="-118.394048">
  <ele>-0.111</ele>
  <time>2026-09-02T22:07:24Z</time>
  <course>10.35</course>
  <speed>0.7234638899074369</speed>
  <fix>3d</fix>
</trkpt>
<trkpt lat="33.8101735" lon="-118.3940479">
  <ele>-0.111</ele>
  <time>2026-09-02T22:07:24Z</time>
  <course>10.35</course>
  <speed>0.7234638899074369</speed>
  <fix>3d</fix>
</trkpt>
<trkpt lat="33.8101736" lon="-118.3940479">
  <ele>-0.111</ele>
  <time>2026-09-02T22:07:24Z</time>
  <course>10.35</course>
  <speed>0.7234638899074369</speed>
  <fix>3d</fix>
</trkpt>
<trkpt lat="33.8101736" lon="-118.3940478">
  <ele>-0.111</ele>
  <time>2026-09-02T22:07:24Z</time>
  <course>10.35</course>
  <speed>0.7234638899074369</speed>
  <fix>3d</fix>
</trkpt>
<trkpt lat="33.8101737" lon="-118.3940478">
  <ele>-0.111</ele>
  <time>2026-09-02T22:07:24Z</time>
  <course>10.36</course>
  <speed>0.7234638899074369</speed>
  <fix>3d</fix>
</trkpt>
<trkpt lat="33.8101737" lon="-118.3940477">
  <ele>-0.111</ele>
  <time>2026-09-02T22:07:24Z</time>
  <course>10.36</course>
  <speed>0.7234638899074369</speed>
  <fix>3d</fix>
</trkpt>
<trkpt lat="33.8101737" lon="-118.3940477">
  <ele>-0.111</ele>
  <time>2026-09-02T22:07:24Z</time>
  <course>10.36</course>
  <speed>0.7234638899074369</speed>
  <fix>3d</fix>
</trkpt>
<trkpt lat="33.8101738" lon="-118.3940477">
  <ele>-0.111</ele>
  <time>2026-09-02T22:07:24Z</time>
  <course>10.36</course>
  <speed>0.7234638899074369</speed>
  <fix>3d</fix>
</trkpt>
<trkpt lat="33.8101738" lon="-118.3940476">
  <ele>-0.111</ele>
  <time>2026-09-02T22:07:24Z</time>
  <course>10.36</course>
  <speed>0.7234638899074369</speed>
  <fix>3d</fix>
</trkpt>
<trkpt lat="33.8101738" lon="-118.3940475">
  <ele>-0.111</ele>
  <time>2026-09-02T22:07:24Z</time>
  <course>10.36</course>
  <speed>0.7234638899074369</speed>
  <fix>3d</fix>
</trkpt>
<trkpt lat="33.8101739" lon="-118.3940475">
  <ele>-0.111</ele>
  <time>2026-09-02T22:07:24Z</time>
  <course>10.36</course>
  <speed>0.7234638899074369</speed>
  <fix>3d</fix>
</trkpt>
<trkpt lat="33.8101739" lon="-118.3940475">
  <ele>-0.111</ele>
  <time>2026-09-02T22:07:24Z</time>
  <course>10.36</course>
  <speed>0.7234638899074369</speed>
  <fix>3d</fix>
</trkpt>
<trkpt lat="33.8101739" lon="-118.3940474">
  <ele>-0.111</ele>
  <time>2026-09-02T22:07:24Z</time>
  <course>10.36</course>
  <speed>0.7234638899074369</speed>
  <fix>3d</fix>
</trkpt>
<trkpt lat="33.8101731" lon="-118.394049">
  <ele>-0.11</ele>
  <time>2026-09-02T22:07:24Z</time>
  <course>47.17</course>
  <speed>0.73</speed>
  <fix>3d</fix>
</trkpt>
<trkpt lat="33.8101739" lon="-118.3940474">
  <ele>-0.111</ele>
  <time>2026-09-02T22:07:24Z</time>
  <course>10.36</course>
  <speed>0.7234638899074369</speed>
  <fix>3d</fix>
</trkpt>
<trkpt lat="33.810174" lon="-118.3940473">
  <ele>-0.111</ele>
  <time>2026-09-02T22:07:24Z</time>
  <course>10.36</course>
  <speed>0.7234638899074369</speed>
  <fix>3d</fix>
</trkpt>
<trkpt lat="33.810174" lon="-118.3940473">
  <ele>-0.111</ele>
  <time>2026-09-02T22:07:24Z</time>
  <course>10.36</course>
  <speed>0.7234638899074369</speed>
  <fix>3d</fix>
</trkpt>
<trkpt lat="33.8101741" lon="-118.3940472">
  <ele>-0.111</ele>
  <time>2026-09-02T22:07:24Z</time>
  <course>10.36</course>
  <speed>0.7234638899074369</speed>
  <fix>3d</fix>
</trkpt>
<trkpt lat="33.8101741" lon="-118.3940472">
  <ele>-0.111</ele>
  <time>2026-09-02T22:07:24Z</time>
  <course>10.36</course>
  <speed>0.7234638899074369</speed>
  <fix>3d</fix>
</trkpt>
<trkpt lat="33.8101742" lon="-118.3940471">
  <ele>-0.111</ele>
  <time>2026-09-02T22:07:24Z</time>
  <course>10.36</course>
  <speed>0.7234638899074369</speed>
  <fix>3d</fix>
</trkpt>
<trkpt lat="33.8101742" lon="-118.3940471">
  <ele>-0.111</ele>
  <time>2026-09-02T22:07:24Z</time>
  <course>10.36</course>
  <speed>0.7234638899074369</speed>
  <fix>3d</fix>
</trkpt>
<trkpt lat="33.8101742" lon="-118.3940471">
  <ele>-0.111</ele>
  <time>2026-09-02T22:07:24Z</time>
  <course>10.37</course>
  <speed>0.7234638899074369</speed>
  <fix>3d</fix>
</trkpt>
<trkpt lat="33.8101743" lon="-118.394047">
  <ele>-0.111</ele>
  <time>2026-09-02T22:07:24Z</time>
  <course>10.37</course>
  <speed>0.7234638899074369</speed>
  <fix>3d</fix>
</trkpt>
<trkpt lat="33.8101743" lon="-118.394047">
  <ele>-0.111</ele>
  <time>2026-09-02T22:07:24Z</time>
  <course>10.37</course>
  <speed>0.7234638899074369</speed>
  <fix>3d</fix>
</trkpt>
<trkpt lat="33.8101743" lon="-118.3940469">
  <ele>-0.111</ele>
  <time>2026-09-02T22:07:24Z</time>
  <course>10.37</course>
  <speed>0.7234638899074369</speed>
  <fix>3d</fix>
</trkpt>
<trkpt lat="33.8101744" lon="-118.3940469">
  <ele>-0.111</ele>
  <time>2026-09-02T22:07:24Z</time>
  <course>10.37</course>
  <speed>0.7234638899074369</speed>
  <fix>3d</fix>
</trkpt>
<trkpt lat="33.8101744" lon="-118.3940469">
  <ele>-0.111</ele>
  <time>2026-09-02T22:07:24Z</time>
  <course>10.37</course>
  <speed>0.7234638899074369</speed>
  <fix>3d</fix>
</trkpt>
<trkpt lat="33.810174" lon="-118.3940479">
  <ele>-0.1</ele>
  <time>2026-09-02T22:07:24Z</time>
  <course>47.18</course>
  <speed>0.73</speed>
  <fix>3d</fix>
</trkpt>
<trkpt lat="33.8101744" lon="-118.3940468">
  <ele>-0.111</ele>
  <time>2026-09-02T22:07:24Z</time>
  <course>10.37</course>
  <speed>0.7234638899074369</speed>
  <fix>3d</fix>
</trkpt>
<trkpt lat="33.8101745" lon="-118.3940467">
  <ele>-0.111</ele>
  <time>2026-09-02T22:07:24Z</time>
  <course>10.37</course>
  <speed>0.7234638899074369</speed>
  <fix>3d</fix>
</trkpt>
<trkpt lat="33.8101745" lon="-118.3940467">
  <ele>-0.111</ele>
  <time>2026-09-02T22:07:24Z</time>
  <course>10.37</course>
  <speed>0.7234638899074369</speed>
  <fix>3d</fix>
</trkpt>
<trkpt lat="33.8101746" lon="-118.3940466">
  <ele>-0.111</ele>
  <time>2026-09-02T22:07:24Z</time>
  <course>10.37</course>
  <speed>0.7234638899074369</speed>
  <fix>3d</fix>
</trkpt>
<trkpt lat="33.8101746" lon="-118.3940466">
  <ele>-0.111</ele>
  <time>2026-09-02T22:07:24Z</time>
  <course>10.37</course>
  <speed>0.7234638899074369</speed>
  <fix>3d</fix>
</trkpt>
<trkpt lat="33.8101746" lon="-118.3940465">
  <ele>-0.111</ele>
  <time>2026-09-02T22:07:24Z</time>
  <course>10.37</course>
  <speed>0.7234638899074369</speed>
  <fix>3d</fix>
</trkpt>
<trkpt lat="33.8101747" lon="-118.3940465">
  <ele>-0.111</ele>
  <time>2026-09-02T22:07:24Z</time>
  <course>10.37</course>
  <speed>0.7234638899074369</speed>
  <fix>3d</fix>
</trkpt>
<trkpt lat="33.8101747" lon="-118.3940464">
  <ele>-0.111</ele>
  <time>2026-09-02T22:07:24Z</time>
  <course>10.37</course>
  <speed>0.7234638899074369</speed>
  <fix>3d</fix>
</trkpt>
<trkpt lat="33.8101747" lon="-118.3940464">
  <ele>-0.111</ele>
  <time>2026-09-02T22:07:24Z</time>
  <course>10.37</course>
  <speed>0.7234638899074369</speed>
  <fix>3d</fix>
</trkpt>
<trkpt lat="33.8101748" lon="-118.3940463">
  <ele>-0.111</ele>
  <time>2026-09-02T22:07:24Z</time>
  <course>10.37</course>
  <speed>0.7234638899074369</speed>
  <fix>3d</fix>
</trkpt>
<trkpt lat="33.8101748" lon="-118.3940463">
  <ele>-0.111</ele>
  <time>2026-09-02T22:07:24Z</time>
  <course>10.37</course>
  <speed>0.7234638899074369</speed>
  <fix>3d</fix>
</trkpt>
<trkpt lat="33.8101748" lon="-118.3940463">
  <ele>-0.111</ele>
  <time>2026-09-02T22:07:24Z</time>
  <course>10.38</course>
  <speed>0.7234638899074369</speed>
  <fix>3d</fix>
</trkpt>
<trkpt lat="33.810174" lon="-118.3940479">
  <ele>-0.1</ele>
  <time>2026-09-02T22:07:24Z</time>
  <course>47.18</course>
  <speed>0.73</speed>
  <fix>3d</fix>
</trkpt>
<trkpt lat="33.8101748" lon="-118.3940463">
  <ele>-0.111</ele>
  <time>2026-09-02T22:07:24Z</time>
  <course>10.38</course>
  <speed>0.7234638899074369</speed>
  <fix>3d</fix>
</trkpt>
<trkpt lat="33.8101749" lon="-118.3940462">
  <ele>-0.111</ele>
  <time>2026-09-02T22:07:24Z</time>
  <course>10.38</course>
  <speed>0.7234638899074369</speed>
  <fix>3d</fix>
</trkpt>
<trkpt lat="33.8101749" lon="-118.3940461">
  <ele>-0.111</ele>
  <time>2026-09-02T22:07:24Z</time>
  <course>10.38</course>
  <speed>0.7234638899074369</speed>
  <fix>3d</fix>
</trkpt>
<trkpt lat="33.810175" lon="-118.3940461">
  <ele>-0.111</ele>
  <time>2026-09-02T22:07:24Z</time>
  <course>10.38</course>
  <speed>0.7234638899074369</speed>
  <fix>3d</fix>
</trkpt>
<trkpt lat="33.810175" lon="-118.394046">
  <ele>-0.111</ele>
  <time>2026-09-02T22:07:24Z</time>
  <course>10.38</course>
  <speed>0.7234638899074369</speed>
  <fix>3d</fix>
</trkpt>
<trkpt lat="33.810175" lon="-118.394046">
  <ele>-0.111</ele>
  <time>2026-09-02T22:07:24Z</time>
  <course>10.38</course>
  <speed>0.7234638899074369</speed>
  <fix>3d</fix>
</trkpt>
<trkpt lat="33.8101751" lon="-118.3940459">
  <ele>-0.111</ele>
  <time>2026-09-02T22:07:24Z</time>
  <course>10.38</course>
  <speed>0.7234638899074369</speed>
  <fix>3d</fix>
</trkpt>
<trkpt lat="33.8101751" lon="-118.3940459">
  <ele>-0.111</ele>
  <time>2026-09-02T22:07:24Z</time>
  <course>10.38</course>
  <speed>0.7234638899074369</speed>
  <fix>3d</fix>
</trkpt>
<trkpt lat="33.8101751" lon="-118.3940459">
  <ele>-0.111</ele>
  <time>2026-09-02T22:07:24Z</time>
  <course>10.38</course>
  <speed>0.7234638899074369</speed>
  <fix>3d</fix>
</trkpt>
<trkpt lat="33.8101752" lon="-118.3940458">
  <ele>-0.11</ele>
  <time>2026-09-02T22:07:24Z</time>
  <course>10.38</course>
  <speed>0.7234638899074369</speed>
  <fix>3d</fix>
</trkpt>
<trkpt lat="33.8101752" lon="-118.3940458">
  <ele>-0.11</ele>
  <time>2026-09-02T22:07:24Z</time>
  <course>10.38</course>
  <speed>0.7234638899074369</speed>
  <fix>3d</fix>
</trkpt>
<trkpt lat="33.8101753" lon="-118.3940457">
  <ele>-0.11</ele>
  <time>2026-09-02T22:07:24Z</time>
  <course>10.38</course>
  <speed>0.7234638899074369</speed>
  <fix>3d</fix>
</trkpt>
<trkpt lat="33.8101753" lon="-118.3940457">
  <ele>-0.11</ele>
  <time>2026-09-02T22:07:24Z</time>
  <course>10.38</course>
  <speed>0.7234638899074369</speed>
  <fix>3d</fix>
</trkpt>
<trkpt lat="33.8101749" lon="-118.3940467">
  <ele>-0.1</ele>
  <time>2026-09-02T22:07:24Z</time>
  <course>47.2</course>
  <speed>0.73</speed>
  <fix>3d</fix>
</trkpt>
<trkpt lat="33.8101753" lon="-118.3940456">
  <ele>-0.11</ele>
  <time>2026-09-02T22:07:24Z</time>
  <course>10.38</course>
  <speed>0.7234638899074369</speed>
  <fix>3d</fix>
</trkpt>
<trkpt lat="33.8101754" lon="-118.3940455">
  <ele>-0.11</ele>
  <time>2026-09-02T22:07:24Z</time>
  <course>10.39</course>
  <speed>0.7234638899074369</speed>
  <fix>3d</fix>
</trkpt>
<trkpt lat="33.8101754" lon="-118.3940455">
  <ele>-0.11</ele>
  <time>2026-09-02T22:07:24Z</time>
  <course>10.39</course>
  <speed>0.7234638899074369</speed>
  <fix>3d</fix>
</trkpt>
<trkpt lat="33.8101755" lon="-118.3940454">
  <ele>-0.11</ele>
  <time>2026-09-02T22:07:24Z</time>
  <course>10.39</course>
  <speed>0.7234638899074369</speed>
  <fix>3d</fix>
</trkpt>
<trkpt lat="33.8101755" lon="-118.3940454">
  <ele>-0.109</ele>
  <time>2026-09-02T22:07:24Z</time>
  <course>10.39</course>
  <speed>0.7234638899074369</speed>
  <fix>3d</fix>
</trkpt>
<trkpt lat="33.8101755" lon="-118.3940453">
  <ele>-0.109</ele>
  <time>2026-09-02T22:07:24Z</time>
  <course>10.39</course>
  <speed>0.7234638899074369</speed>
  <fix>3d</fix>
</trkpt>
<trkpt lat="33.8101756" lon="-118.3940453">
  <ele>-0.109</ele>
  <time>2026-09-02T22:07:24Z</time>
  <course>10.39</course>
  <speed>0.7234638899074369</speed>
  <fix>3d</fix>
</trkpt>
<trkpt lat="33.8101756" lon="-118.3940452">
  <ele>-0.109</ele>
  <time>2026-09-02T22:07:24Z</time>
  <course>10.39</course>
  <speed>0.7234638899074369</speed>
  <fix>3d</fix>
</trkpt>
<trkpt lat="33.8101757" lon="-118.3940452">
  <ele>-0.109</ele>
  <time>2026-09-02T22:07:24Z</time>
  <course>10.39</course>
  <speed>0.7234638899074369</speed>
  <fix>3d</fix>
</trkpt>
<trkpt lat="33.8101757" lon="-118.3940451">
  <ele>-0.109</ele>
  <time>2026-09-02T22:07:24Z</time>
  <course>10.39</course>
  <speed>0.7234638899074369</speed>
  <fix>3d</fix>
</trkpt>
<trkpt lat="33.8101757" lon="-118.3940451">
  <ele>-0.109</ele>
  <time>2026-09-02T22:07:24Z</time>
  <course>10.39</course>
  <speed>0.7234638899074369</speed>
  <fix>3d</fix>
</trkpt>
<trkpt lat="33.8101749" lon="-118.3940467">
  <ele>-0.1</ele>
  <time>2026-09-02T22:07:24Z</time>
  <course>47.2</course>
  <speed>0.73</speed>
  <fix>3d</fix>
</trkpt>
<trkpt lat="33.8101757" lon="-118.3940451">
  <ele>-0.109</ele>
  <time>2026-09-02T22:07:24Z</time>
  <course>10.39</course>
  <speed>0.7234638899074369</speed>
  <fix>3d</fix>
</trkpt>
<trkpt lat="33.8101758" lon="-118.394045">
  <ele>-0.108</ele>
  <time>2026-09-02T22:07:24Z</time>
  <course>10.39</course>
  <speed>0.7234638899074369</speed>
  <fix>3d</fix>
</trkpt>
<trkpt lat="33.8101758" lon="-118.394045">
  <ele>-0.108</ele>
  <time>2026-09-02T22:07:24Z</time>
  <course>10.39</course>
  <speed>0.7234638899074369</speed>
  <fix>3d</fix>
</trkpt>
<trkpt lat="33.8101759" lon="-118.3940449">
  <ele>-0.108</ele>
  <time>2026-09-02T22:07:24Z</time>
  <course>10.39</course>
  <speed>0.7234638899074369</speed>
  <fix>3d</fix>
</trkpt>
<trkpt lat="33.8101759" lon="-118.3940449">
  <ele>-0.108</ele>
  <time>2026-09-02T22:07:24Z</time>
  <course>10.39</course>
  <speed>0.7234638899074369</speed>
  <fix>3d</fix>
</trkpt>
<trkpt lat="33.8101759" lon="-118.3940448">
  <ele>-0.108</ele>
  <time>2026-09-02T22:07:24Z</time>
  <course>10.39</course>
  <speed>0.7234638899074369</speed>
  <fix>3d</fix>
</trkpt>
<trkpt lat="33.810176" lon="-118.3940448">
  <ele>-0.108</ele>
  <time>2026-09-02T22:07:24Z</time>
  <course>10.4</course>
  <speed>0.7234638899074369</speed>
  <fix>3d</fix>
</trkpt>
<trkpt lat="33.810176" lon="-118.3940448">
  <ele>-0.108</ele>
  <time>2026-09-02T22:07:24Z</time>
  <course>10.4</course>
  <speed>0.7234638899074369</speed>
  <fix>3d</fix>
</trkpt>
<trkpt lat="33.810176" lon="-118.3940447">
  <ele>-0.107</ele>
  <time>2026-09-02T22:07:24Z</time>
  <course>10.4</course>
  <speed>0.7234638899074369</speed>
  <fix>3d</fix>
</trkpt>
<trkpt lat="33.8101761" lon="-118.3940447">
  <ele>-0.107</ele>
  <time>2026-09-02T22:07:24Z</time>
  <course>10.4</course>
  <speed>0.7234638899074369</speed>
  <fix>3d</fix>
</trkpt>
<trkpt lat="33.8101761" lon="-118.3940446">
  <ele>-0.107</ele>
  <time>2026-09-02T22:07:24Z</time>
  <course>10.4</course>
  <speed>0.7234638899074369</speed>
  <fix>3d</fix>
</trkpt>
<trkpt lat="33.8101761" lon="-118.3940446">
  <ele>-0.107</ele>
  <time>2026-09-02T22:07:24Z</time>
  <course>10.4</course>
  <speed>0.7234638899074369</speed>
  <fix>3d</fix>
</trkpt>
<trkpt lat="33.8101762" lon="-118.3940445">
  <ele>-0.107</ele>
  <time>2026-09-02T22:07:24Z</time>
  <course>10.4</course>
  <speed>0.7234638899074369</speed>
  <fix>3d</fix>
</trkpt>
<trkpt lat="33.8101762" lon="-118.3940445">
  <ele>-0.107</ele>
  <time>2026-09-02T22:07:24Z</time>
  <course>10.4</course>
  <speed>0.7234638899074369</speed>
  <fix>3d</fix>
</trkpt>
<trkpt lat="33.8101758" lon="-118.3940455">
  <ele>-0.1</ele>
  <time>2026-09-02T22:07:24Z</time>
  <course>47.21</course>
  <speed>0.73</speed>
  <fix>3d</fix>
</trkpt>
<trkpt lat="33.8101762" lon="-118.3940445">
  <ele>-0.107</ele>
  <time>2026-09-02T22:07:24Z</time>
  <course>10.4</course>
  <speed>0.7234638899074369</speed>
  <fix>3d</fix>
</trkpt>
<trkpt lat="33.8101763" lon="-118.3940444">
  <ele>-0.107</ele>
  <time>2026-09-02T22:07:24Z</time>
  <course>10.4</course>
  <speed>0.7234638899074369</speed>
  <fix>3d</fix>
</trkpt>
<trkpt lat="33.8101763" lon="-118.3940444">
  <ele>-0.106</ele>
  <time>2026-09-02T22:07:24Z</time>
  <course>10.4</course>
  <speed>0.7234638899074369</speed>
  <fix>3d</fix>
</trkpt>
<trkpt lat="33.8101763" lon="-118.3940443">
  <ele>-0.106</ele>
  <time>2026-09-02T22:07:24Z</time>
  <course>10.4</course>
  <speed>0.7234638899074369</speed>
  <fix>3d</fix>
</trkpt>
<trkpt lat="33.8101764" lon="-118.3940443">
  <ele>-0.106</ele>
  <time>2026-09-02T22:07:24Z</time>
  <course>10.4</course>
  <speed>0.7234638899074369</speed>
  <fix>3d</fix>
</trkpt>
<trkpt lat="33.8101764" lon="-118.3940442">
  <ele>-0.106</ele>
  <time>2026-09-02T22:07:24Z</time>
  <course>10.4</course>
  <speed>0.7234638899074369</speed>
  <fix>3d</fix>
</trkpt>
<trkpt lat="33.8101764" lon="-118.3940442">
  <ele>-0.106</ele>
  <time>2026-09-02T22:07:24Z</time>
  <course>10.4</course>
  <speed>0.7234638899074369</speed>
  <fix>3d</fix>
</trkpt>
<trkpt lat="33.8101765" lon="-118.3940441">
  <ele>-0.106</ele>
  <time>2026-09-02T22:07:24Z</time>
  <course>10.4</course>
  <speed>0.7234638899074369</speed>
  <fix>3d</fix>
</trkpt>
<trkpt lat="33.8101765" lon="-118.3940441">
  <ele>-0.105</ele>
  <time>2026-09-02T22:07:24Z</time>
  <course>10.4</course>
  <speed>0.7234638899074369</speed>
  <fix>3d</fix>
</trkpt>
<trkpt lat="33.8101766" lon="-118.394044">
  <ele>-0.105</ele>
  <time>2026-09-02T22:07:24Z</time>
  <course>10.41</course>
  <speed>0.7234638899074369</speed>
  <fix>3d</fix>
</trkpt>
<trkpt lat="33.8101766" lon="-118.394044">
  <ele>-0.105</ele>
  <time>2026-09-02T22:07:24Z</time>
  <course>10.41</course>
  <speed>0.7234638899074369</speed>
  <fix>3d</fix>
</trkpt>
<trkpt lat="33.8101766" lon="-118.3940439">
  <ele>-0.105</ele>
  <time>2026-09-02T22:07:24Z</time>
  <course>10.41</course>
  <speed>0.7234638899074369</speed>
  <fix>3d</fix>
</trkpt>
<trkpt lat="33.8101758" lon="-118.3940455">
  <ele>-0.1</ele>
  <time>2026-09-02T22:07:24Z</time>
  <course>47.21</course>
  <speed>0.73</speed>
  <fix>3d</fix>
</trkpt>
<trkpt lat="33.8101766" lon="-118.3940439">
  <ele>-0.105</ele>
  <time>2026-09-02T22:07:24Z</time>
  <course>10.41</course>
  <speed>0.7234638899074369</speed>
  <fix>3d</fix>
</trkpt>
<trkpt lat="33.8101767" lon="-118.3940438">
  <ele>-0.105</ele>
  <time>2026-09-02T22:07:24Z</time>
  <course>10.41</course>
  <speed>0.7234638899074369</speed>
  <fix>3d</fix>
</trkpt>
<trkpt lat="33.8101768" lon="-118.3940438">
  <ele>-0.104</ele>
  <time>2026-09-02T22:07:24Z</time>
  <course>10.41</course>
  <speed>0.7234638899074369</speed>
  <fix>3d</fix>
</trkpt>
<trkpt lat="33.8101768" lon="-118.3940437">
  <ele>-0.104</ele>
  <time>2026-09-02T22:07:24Z</time>
  <course>10.41</course>
  <speed>0.7234638899074369</speed>
  <fix>3d</fix>
</trkpt>
<trkpt lat="33.8101768" lon="-118.3940437">
  <ele>-0.104</ele>
  <time>2026-09-02T22:07:24Z</time>
  <course>10.41</course>
  <speed>0.7234638899074369</speed>
  <fix>3d</fix>
</trkpt>
<trkpt lat="33.8101769" lon="-118.3940436">
  <ele>-0.104</ele>
  <time>2026-09-02T22:07:24Z</time>
  <course>10.41</course>
  <speed>0.7234638899074369</speed>
  <fix>3d</fix>
</trkpt>
<trkpt lat="33.8101769" lon="-118.3940436">
  <ele>-0.104</ele>
  <time>2026-09-02T22:07:24Z</time>
  <course>10.41</course>
  <speed>0.7234638899074369</speed>
  <fix>3d</fix>
</trkpt>
<trkpt lat="33.810177" lon="-118.3940435">
  <ele>-0.104</ele>
  <time>2026-09-02T22:07:24Z</time>
  <course>10.41</course>
  <speed>0.7234638899074369</speed>
  <fix>3d</fix>
</trkpt>
<trkpt lat="33.810177" lon="-118.3940435">
  <ele>-0.104</ele>
  <time>2026-09-02T22:07:24Z</time>
  <course>10.41</course>
  <speed>0.7234638899074369</speed>
  <fix>3d</fix>
</trkpt>
<trkpt lat="33.810177" lon="-118.3940434">
  <ele>-0.104</ele>
  <time>2026-09-02T22:07:24Z</time>
  <course>10.41</course>
  <speed>0.7234638899074369</speed>
  <fix>3d</fix>
</trkpt>
<trkpt lat="33.8101771" lon="-118.3940434">
  <ele>-0.104</ele>
  <time>2026-09-02T22:07:24Z</time>
  <course>10.41</course>
  <speed>0.7234638899074369</speed>
  <fix>3d</fix>
</trkpt>
<trkpt lat="33.8101771" lon="-118.3940434">
  <ele>-0.104</ele>
  <time>2026-09-02T22:07:24Z</time>
  <course>10.41</course>
  <speed>0.7234638899074369</speed>
  <fix>3d</fix>
</trkpt>
<trkpt lat="33.8101767" lon="-118.3940443">
  <ele>-0.1</ele>
  <time>2026-09-02T22:07:24Z</time>
  <course>47.23</course>
  <speed>0.73</speed>
  <fix>3d</fix>
</trkpt>
<trkpt lat="33.8101771" lon="-118.3940433">
  <ele>-0.104</ele>
  <time>2026-09-02T22:07:24Z</time>
  <course>10.41</course>
  <speed>0.7234638899074369</speed>
  <fix>3d</fix>
</trkpt>
<trkpt lat="33.8101772" lon="-118.3940432">
  <ele>-0.104</ele>
  <time>2026-09-02T22:07:24Z</time>
  <course>10.42</course>
  <speed>0.7234638899074369</speed>
  <fix>3d</fix>
</trkpt>
<trkpt lat="33.8101772" lon="-118.3940432">
  <ele>-0.104</ele>
  <time>2026-09-02T22:07:24Z</time>
  <course>10.42</course>
  <speed>0.7234638899074369</speed>
  <fix>3d</fix>
</trkpt>
<trkpt lat="33.8101772" lon="-118.3940431">
  <ele>-0.104</ele>
  <time>2026-09-02T22:07:24Z</time>
  <course>10.42</course>
  <speed>0.7234638899074369</speed>
  <fix>3d</fix>
</trkpt>
<trkpt lat="33.8101773" lon="-118.3940431">
  <ele>-0.104</ele>
  <time>2026-09-02T22:07:24Z</time>
  <course>10.42</course>
  <speed>0.7234638899074369</speed>
  <fix>3d</fix>
</trkpt>
<trkpt lat="33.8101773" lon="-118.394043">
  <ele>-0.104</ele>
  <time>2026-09-02T22:07:24Z</time>
  <course>10.42</course>
  <speed>0.7234638899074369</speed>
  <fix>3d</fix>
</trkpt>
<trkpt lat="33.8101774" lon="-118.394043">
  <ele>-0.104</ele>
  <time>2026-09-02T22:07:24Z</time>
  <course>10.42</course>
  <speed>0.7234638899074369</speed>
  <fix>3d</fix>
</trkpt>
<trkpt lat="33.8101774" lon="-118.3940429">
  <ele>-0.104</ele>
  <time>2026-09-02T22:07:24Z</time>
  <course>10.42</course>
  <speed>0.7234638899074369</speed>
  <fix>3d</fix>
</trkpt>
<trkpt lat="33.8101774" lon="-118.3940429">
  <ele>-0.104</ele>
  <time>2026-09-02T22:07:24Z</time>
  <course>10.42</course>
  <speed>0.7234638899074369</speed>
  <fix>3d</fix>
</trkpt>
<trkpt lat="33.8101775" lon="-118.3940428">
  <ele>-0.104</ele>
  <time>2026-09-02T22:07:24Z</time>
  <course>10.42</course>
  <speed>0.7234638899074369</speed>
  <fix>3d</fix>
</trkpt>
<trkpt lat="33.8101775" lon="-118.3940428">
  <ele>-0.104</ele>
  <time>2026-09-02T22:07:24Z</time>
  <course>10.42</course>
  <speed>0.7234638899074369</speed>
  <fix>3d</fix>
</trkpt>
<trkpt lat="33.8101775" lon="-118.3940428">
  <ele>-0.104</ele>
  <time>2026-09-02T22:07:24Z</time>
  <course>10.42</course>
  <speed>0.7234638899074369</speed>
  <fix>3d</fix>
</trkpt>
<trkpt lat="33.8101767" lon="-118.3940443">
  <ele>-0.1</ele>
  <time>2026-09-02T22:07:24Z</time>
  <course>47.23</course>
  <speed>0.73</speed>
  <fix>3d</fix>
</trkpt>
<trkpt lat="33.8101775" lon="-118.3940428">
  <ele>-0.104</ele>
  <time>2026-09-02T22:07:24Z</time>
  <course>10.42</course>
  <speed>0.7234638899074369</speed>
  <fix>3d</fix>
</trkpt>
<trkpt lat="33.8101776" lon="-118.3940426">
  <ele>-0.104</ele>
  <time>2026-09-02T22:07:24Z</time>
  <course>10.42</course>
  <speed>0.7234638899074369</speed>
  <fix>3d</fix>
</trkpt>
<trkpt lat="33.8101777" lon="-118.3940426">
  <ele>-0.104</ele>
  <time>2026-09-02T22:07:24Z</time>
  <course>10.42</course>
  <speed>0.7234638899074369</speed>
  <fix>3d</fix>
</trkpt>
<trkpt lat="33.8101777" lon="-118.3940425">
  <ele>-0.104</ele>
  <time>2026-09-02T22:07:24Z</time>
  <course>10.43</course>
  <speed>0.7234638899074369</speed>
  <fix>3d</fix>
</trkpt>
<trkpt lat="33.8101777" lon="-118.3940425">
  <ele>-0.104</ele>
  <time>2026-09-02T22:07:24Z</time>
  <course>10.43</course>
  <speed>0.7234638899074369</speed>
  <fix>3d</fix>
</trkpt>
<trkpt lat="33.8101778" lon="-118.3940425">
  <ele>-0.104</ele>
  <time>2026-09-02T22:07:24Z</time>
  <course>10.43</course>
  <speed>0.7234638899074369</speed>
  <fix>3d</fix>
</trkpt>
<trkpt lat="33.8101778" lon="-118.3940424">
  <ele>-0.104</ele>
  <time>2026-09-02T22:07:24Z</time>
  <course>10.43</course>
  <speed>0.7234638899074369</speed>
  <fix>3d</fix>
</trkpt>
<trkpt lat="33.8101778" lon="-118.3940424">
  <ele>-0.104</ele>
  <time>2026-09-02T22:07:24Z</time>
  <course>10.43</course>
  <speed>0.7234638899074369</speed>
  <fix>3d</fix>
</trkpt>
<trkpt lat="33.8101779" lon="-118.3940423">
  <ele>-0.104</ele>
  <time>2026-09-02T22:07:24Z</time>
  <course>10.43</course>
  <speed>0.7234638899074369</speed>
  <fix>3d</fix>
</trkpt>
<trkpt lat="33.8101779" lon="-118.3940423">
  <ele>-0.104</ele>
  <time>2026-09-02T22:07:24Z</time>
  <course>10.43</course>
  <speed>0.7234638899074369</speed>
  <fix>3d</fix>
</trkpt>
<trkpt lat="33.8101779" lon="-118.3940422">
  <ele>-0.104</ele>
  <time>2026-09-02T22:07:24Z</time>
  <course>10.43</course>
  <speed>0.7234638899074369</speed>
  <fix>3d</fix>
</trkpt>
<trkpt lat="33.810178" lon="-118.3940422">
  <ele>-0.105</ele>
  <time>2026-09-02T22:07:24Z</time>
  <course>10.43</course>
  <speed>0.7234638899074369</speed>
  <fix>3d</fix>
</trkpt>
<trkpt lat="33.8101776" lon="-118.3940432">
  <ele>-0.11</ele>
  <time>2026-09-02T22:07:24Z</time>
  <course>47.24</course>
  <speed>0.73</speed>
  <fix>3d</fix>
</trkpt>
<trkpt lat="33.810178" lon="-118.3940422">
  <ele>-0.105</ele>
  <time>2026-09-02T22:07:24Z</time>
  <course>10.43</course>
  <speed>0.7234638899074369</speed>
  <fix>3d</fix>
</trkpt>
<trkpt lat="33.810178" lon="-118.3940421">
  <ele>-0.105</ele>
  <time>2026-09-02T22:07:24Z</time>
  <course>10.43</course>
  <speed>0.7234638899074369</speed>
  <fix>3d</fix>
</trkpt>
<trkpt lat="33.8101781" lon="-118.394042">
  <ele>-0.105</ele>
  <time>2026-09-02T22:07:24Z</time>
  <course>10.43</course>
  <speed>0.7234638899074369</speed>
  <fix>3d</fix>
</trkpt>
<trkpt lat="33.8101781" lon="-118.394042">
  <ele>-0.105</ele>
  <time>2026-09-02T22:07:24Z</time>
  <course>10.43</course>
  <speed>0.7234638899074369</speed>
  <fix>3d</fix>
</trkpt>
<trkpt lat="33.8101782" lon="-118.3940419">
  <ele>-0.105</ele>
  <time>2026-09-02T22:07:24Z</time>
  <course>10.43</course>
  <speed>0.7234638899074369</speed>
  <fix>3d</fix>
</trkpt>
<trkpt lat="33.8101782" lon="-118.3940419">
  <ele>-0.105</ele>
  <time>2026-09-02T22:07:24Z</time>
  <course>10.43</course>
  <speed>0.7234638899074369</speed>
  <fix>3d</fix>
</trkpt>
<trkpt lat="33.8101782" lon="-118.3940418">
  <ele>-0.105</ele>
  <time>2026-09-02T22:07:24Z</time>
  <course>10.43</course>
  <speed>0.7234638899074369</speed>
  <fix>3d</fix>
</trkpt>
<trkpt lat="33.8101783" lon="-118.3940418">
  <ele>-0.105</ele>
  <time>2026-09-02T22:07:24Z</time>
  <course>10.43</course>
  <speed>0.7234638899074369</speed>
  <fix>3d</fix>
</trkpt>
<trkpt lat="33.8101783" lon="-118.3940418">
  <ele>-0.105</ele>
  <time>2026-09-02T22:07:24Z</time>
  <course>10.44</course>
  <speed>0.7234638899074369</speed>
  <fix>3d</fix>
</trkpt>
<trkpt lat="33.8101783" lon="-118.3940417">
  <ele>-0.105</ele>
  <time>2026-09-02T22:07:24Z</time>
  <course>10.44</course>
  <speed>0.7234638899074369</speed>
  <fix>3d</fix>
</trkpt>
<trkpt lat="33.8101784" lon="-118.3940417">
  <ele>-0.105</ele>
  <time>2026-09-02T22:07:24Z</time>
  <course>10.44</course>
  <speed>0.7234638899074369</speed>
  <fix>3d</fix>
</trkpt>
<trkpt lat="33.8101784" lon="-118.3940416">
  <ele>-0.105</ele>
  <time>2026-09-02T22:07:24Z</time>
  <course>10.44</course>
  <speed>0.7234638899074369</speed>
  <fix>3d</fix>
</trkpt>
<trkpt lat="33.8101784" lon="-118.3940416">
  <ele>-0.105</ele>
  <time>2026-09-02T22:07:24Z</time>
  <course>10.44</course>
  <speed>0.7234638899074369</speed>
  <fix>3d</fix>
</trkpt>
<trkpt lat="33.8101776" lon="-118.3940432">
  <ele>-0.11</ele>
  <time>2026-09-02T22:07:24Z</time>
  <course>47.24</course>
  <speed>0.73</speed>
  <fix>3d</fix>
</trkpt>
<trkpt lat="33.8101785" lon="-118.3940415">
  <ele>-0.105</ele>
  <time>2026-09-02T22:07:24Z</time>
  <course>10.44</course>
  <speed>0.7234638899074369</speed>
  <fix>3d</fix>
</trkpt>
<trkpt lat="33.8101785" lon="-118.3940414">
  <ele>-0.105</ele>
  <time>2026-09-02T22:07:24Z</time>
  <course>10.44</course>
  <speed>0.7234638899074369</speed>
  <fix>3d</fix>
</trkpt>
<trkpt lat="33.8101786" lon="-118.3940414">
  <ele>-0.105</ele>
  <time>2026-09-02T22:07:24Z</time>
  <course>10.44</course>
  <speed>0.7234638899074369</speed>
  <fix>3d</fix>
</trkpt>
<trkpt lat="33.8101786" lon="-118.3940413">
  <ele>-0.105</ele>
  <time>2026-09-02T22:07:24Z</time>
  <course>10.44</course>
  <speed>0.7234638899074369</speed>
  <fix>3d</fix>
</trkpt>
<trkpt lat="33.8101787" lon="-118.3940413">
  <ele>-0.105</ele>
  <time>2026-09-02T22:07:24Z</time>
  <course>10.44</course>
  <speed>0.7234638899074369</speed>
  <fix>3d</fix>
</trkpt>
<trkpt lat="33.8101787" lon="-118.3940413">
  <ele>-0.105</ele>
  <time>2026-09-02T22:07:24Z</time>
  <course>10.44</course>
  <speed>0.7234638899074369</speed>
  <fix>3d</fix>
</trkpt>
<trkpt lat="33.8101787" lon="-118.3940412">
  <ele>-0.105</ele>
  <time>2026-09-02T22:07:24Z</time>
  <course>10.44</course>
  <speed>0.7234638899074369</speed>
  <fix>3d</fix>
</trkpt>
<trkpt lat="33.8101788" lon="-118.3940412">
  <ele>-0.105</ele>
  <time>2026-09-02T22:07:24Z</time>
  <course>10.44</course>
  <speed>0.7234638899074369</speed>
  <fix>3d</fix>
</trkpt>
<trkpt lat="33.8101788" lon="-118.3940411">
  <ele>-0.105</ele>
  <time>2026-09-02T22:07:24Z</time>
  <course>10.44</course>
  <speed>0.7234638899074369</speed>
  <fix>3d</fix>
</trkpt>
<trkpt lat="33.8101788" lon="-118.3940411">
  <ele>-0.106</ele>
  <time>2026-09-02T22:07:24Z</time>
  <course>10.44</course>
  <speed>0.7234638899074369</speed>
  <fix>3d</fix>
</trkpt>
<trkpt lat="33.8101789" lon="-118.394041">
  <ele>-0.106</ele>
  <time>2026-09-02T22:07:24Z</time>
  <course>10.44</course>
  <speed>0.7234638899074369</speed>
  <fix>3d</fix>
</trkpt>
<trkpt lat="33.8101789" lon="-118.394041">
  <ele>-0.106</ele>
  <time>2026-09-02T22:07:24Z</time>
  <course>10.44</course>
  <speed>0.7234638899074369</speed>
  <fix>3d</fix>
</trkpt>
<trkpt lat="33.8101785" lon="-118.394042">
  <ele>-0.1</ele>
  <time>2026-09-02T22:07:24Z</time>
  <course>47.26</course>
  <speed>0.73</speed>
  <fix>3d</fix>
</trkpt>
<trkpt lat="33.8101789" lon="-118.3940409">
  <ele>-0.106</ele>
  <time>2026-09-02T22:07:24Z</time>
  <course>10.45</course>
  <speed>0.7234638899074369</speed>
  <fix>3d</fix>
</trkpt>
<trkpt lat="33.810179" lon="-118.3940409">
  <ele>-0.106</ele>
  <time>2026-09-02T22:07:24Z</time>
  <course>10.45</course>
  <speed>0.7234638899074369</speed>
  <fix>3d</fix>
</trkpt>
<trkpt lat="33.810179" lon="-118.3940408">
  <ele>-0.106</ele>
  <time>2026-09-02T22:07:24Z</time>
  <course>10.45</course>
  <speed>0.7234638899074369</speed>
  <fix>3d</fix>
</trkpt>
<trkpt lat="33.8101791" lon="-118.3940408">
  <ele>-0.106</ele>
  <time>2026-09-02T22:07:24Z</time>
  <course>10.45</course>
  <speed>0.7234638899074369</speed>
  <fix>3d</fix>
</trkpt>
<trkpt lat="33.8101791" lon="-118.3940407">
  <ele>-0.106</ele>
  <time>2026-09-02T22:07:24Z</time>
  <course>10.45</course>
  <speed>0.7234638899074369</speed>
  <fix>3d</fix>
</trkpt>
<trkpt lat="33.8101791" lon="-118.3940407">
  <ele>-0.106</ele>
  <time>2026-09-02T22:07:24Z</time>
  <course>10.45</course>
  <speed>0.7234638899074369</speed>
  <fix>3d</fix>
</trkpt>
<trkpt lat="33.8101792" lon="-118.3940406">
  <ele>-0.106</ele>
  <time>2026-09-02T22:07:24Z</time>
  <course>10.45</course>
  <speed>0.7234638899074369</speed>
  <fix>3d</fix>
</trkpt>
<trkpt lat="33.8101792" lon="-118.3940406">
  <ele>-0.106</ele>
  <time>2026-09-02T22:07:24Z</time>
  <course>10.45</course>
  <speed>0.7234638899074369</speed>
  <fix>3d</fix>
</trkpt>
<trkpt lat="33.8101792" lon="-118.3940405">
  <ele>-0.106</ele>
  <time>2026-09-02T22:07:24Z</time>
  <course>10.45</course>
  <speed>0.7234638899074369</speed>
  <fix>3d</fix>
</trkpt>
<trkpt lat="33.8101793" lon="-118.3940405">
  <ele>-0.106</ele>
  <time>2026-09-02T22:07:24Z</time>
  <course>10.45</course>
  <speed>0.7234638899074369</speed>
  <fix>3d</fix>
</trkpt>
<trkpt lat="33.8101793" lon="-118.3940405">
  <ele>-0.106</ele>
  <time>2026-09-02T22:07:24Z</time>
  <course>10.45</course>
  <speed>0.7234638899074369</speed>
  <fix>3d</fix>
</trkpt>
<trkpt lat="33.8101793" lon="-118.3940404">
  <ele>-0.107</ele>
  <time>2026-09-02T22:07:24Z</time>
  <course>10.45</course>
  <speed>0.7234638899074369</speed>
  <fix>3d</fix>
</trkpt>
<trkpt lat="33.8101785" lon="-118.394042">
  <ele>-0.1</ele>
  <time>2026-09-02T22:07:24Z</time>
  <course>47.26</course>
  <speed>0.73</speed>
  <fix>3d</fix>
</trkpt>
<trkpt lat="33.8101793" lon="-118.3940404">
  <ele>-0.106</ele>
  <time>2026-09-02T22:07:24Z</time>
  <course>10.45</course>
  <speed>0.7234638899074369</speed>
  <fix>3d</fix>
</trkpt>
<trkpt lat="33.8101794" lon="-118.3940403">
  <ele>-0.107</ele>
  <time>2026-09-02T22:07:24Z</time>
  <course>10.45</course>
  <speed>0.7234638899074369</speed>
  <fix>3d</fix>
</trkpt>
<trkpt lat="33.8101795" lon="-118.3940402">
  <ele>-0.107</ele>
  <time>2026-09-02T22:07:24Z</time>
  <course>10.45</course>
  <speed>0.7234638899074369</speed>
  <fix>3d</fix>
</trkpt>
<trkpt lat="33.8101795" lon="-118.3940402">
  <ele>-0.107</ele>
  <time>2026-09-02T22:07:24Z</time>
  <course>10.46</course>
  <speed>0.7234638899074369</speed>
  <fix>3d</fix>
</trkpt>
<trkpt lat="33.8101795" lon="-118.3940401">
  <ele>-0.107</ele>
  <time>2026-09-02T22:07:24Z</time>
  <course>10.46</course>
  <speed>0.7234638899074369</speed>
  <fix>3d</fix>
</trkpt>
<trkpt lat="33.8101796" lon="-118.3940401">
  <ele>-0.107</ele>
  <time>2026-09-02T22:07:24Z</time>
  <course>10.46</course>
  <speed>0.7234638899074369</speed>
  <fix>3d</fix>
</trkpt>
<trkpt lat="33.8101796" lon="-118.3940401">
  <ele>-0.107</ele>
  <time>2026-09-02T22:07:24Z</time>
  <course>10.46</course>
  <speed>0.7234638899074369</speed>
  <fix>3d</fix>
</trkpt>
<trkpt lat="33.8101796" lon="-118.39404">
  <ele>-0.107</ele>
  <time>2026-09-02T22:07:24Z</time>
  <course>10.46</course>
  <speed>0.7234638899074369</speed>
  <fix>3d</fix>
</trkpt>
<trkpt lat="33.8101797" lon="-118.39404">
  <ele>-0.107</ele>
  <time>2026-09-02T22:07:24Z</time>
  <course>10.46</course>
  <speed>0.7234638899074369</speed>
  <fix>3d</fix>
</trkpt>
<trkpt lat="33.8101797" lon="-118.3940399">
  <ele>-0.108</ele>
  <time>2026-09-02T22:07:24Z</time>
  <course>10.46</course>
  <speed>0.7234638899074369</speed>
  <fix>3d</fix>
</trkpt>
<trkpt lat="33.8101798" lon="-118.3940399">
  <ele>-0.108</ele>
  <time>2026-09-02T22:07:24Z</time>
  <course>10.46</course>
  <speed>0.7234638899074369</speed>
  <fix>3d</fix>
</trkpt>
<trkpt lat="33.8101798" lon="-118.3940398">
  <ele>-0.108</ele>
  <time>2026-09-02T22:07:24Z</time>
  <course>10.46</course>
  <speed>0.7234638899074369</speed>
  <fix>3d</fix>
</trkpt>
<trkpt lat="33.8101794" lon="-118.3940409">
  <ele>-0.1</ele>
  <time>2026-09-02T22:07:24Z</time>
  <course>47.27</course>
  <speed>0.73</speed>
  <fix>3d</fix>
</trkpt>
<trkpt lat="33.8101798" lon="-118.3940398">
  <ele>-0.108</ele>
  <time>2026-09-02T22:07:24Z</time>
  <course>10.46</course>
  <speed>0.7234638899074369</speed>
  <fix>3d</fix>
</trkpt>
<trkpt lat="33.8101798" lon="-118.3940398">
  <ele>-0.108</ele>
  <time>2026-09-02T22:07:24Z</time>
  <course>10.46</course>
  <speed>0.7234638899074369</speed>
  <fix>3d</fix>
</trkpt>
<trkpt lat="33.8101799" lon="-118.3940397">
  <ele>-0.108</ele>
  <time>2026-09-02T22:07:24Z</time>
  <course>10.46</course>
  <speed>0.7234638899074369</speed>
  <fix>3d</fix>
</trkpt>
<trkpt lat="33.8101799" lon="-118.3940396">
  <ele>-0.108</ele>
  <time>2026-09-02T22:07:24Z</time>
  <course>10.46</course>
  <speed>0.7234638899074369</speed>
  <fix>3d</fix>
</trkpt>
<trkpt lat="33.81018" lon="-118.3940396">
  <ele>-0.108</ele>
  <time>2026-09-02T22:07:24Z</time>
  <course>10.46</course>
  <speed>0.7234638899074369</speed>
  <fix>3d</fix>
</trkpt>
<trkpt lat="33.81018" lon="-118.3940395">
  <ele>-0.108</ele>
  <time>2026-09-02T22:07:24Z</time>
  <course>10.46</course>
  <speed>0.7234638899074369</speed>
  <fix>3d</fix>
</trkpt>
<trkpt lat="33.8101801" lon="-118.3940395">
  <ele>-0.108</ele>
  <time>2026-09-02T22:07:24Z</time>
  <course>10.46</course>
  <speed>0.7234638899074369</speed>
  <fix>3d</fix>
</trkpt>
<trkpt lat="33.8101801" lon="-118.3940394">
  <ele>-0.109</ele>
  <time>2026-09-02T22:07:24Z</time>
  <course>10.46</course>
  <speed>0.7234638899074369</speed>
  <fix>3d</fix>
</trkpt>
<trkpt lat="33.8101801" lon="-118.3940394">
  <ele>-0.109</ele>
  <time>2026-09-02T22:07:24Z</time>
  <course>10.47</course>
  <speed>0.7234638899074369</speed>
  <fix>3d</fix>
</trkpt>
<trkpt lat="33.8101802" lon="-118.3940393">
  <ele>-0.109</ele>
  <time>2026-09-02T22:07:24Z</time>
  <course>10.47</course>
  <speed>0.7234638899074369</speed>
  <fix>3d</fix>
</trkpt>
<trkpt lat="33.8101802" lon="-118.3940393">
  <ele>-0.109</ele>
  <time>2026-09-02T22:07:24Z</time>
  <course>10.47</course>
  <speed>0.7234638899074369</speed>
  <fix>3d</fix>
</trkpt>
<trkpt lat="33.8101802" lon="-118.3940393">
  <ele>-0.109</ele>
  <time>2026-09-02T22:07:24Z</time>
  <course>10.47</course>
  <speed>0.7234638899074369</speed>
  <fix>3d</fix>
</trkpt>
<trkpt lat="33.8101794" lon="-118.3940409">
  <ele>-0.1</ele>
  <time>2026-09-02T22:07:24Z</time>
  <course>47.27</course>
  <speed>0.73</speed>
  <fix>3d</fix>
</trkpt>
<trkpt lat="33.8101802" lon="-118.3940392">
  <ele>-0.109</ele>
  <time>2026-09-02T22:07:24Z</time>
  <course>10.47</course>
  <speed>0.7234638899074369</speed>
  <fix>3d</fix>
</trkpt>
<trkpt lat="33.8101803" lon="-118.3940392">
  <ele>-0.109</ele>
  <time>2026-09-02T22:07:24Z</time>
  <course>10.47</course>
  <speed>0.7234638899074369</speed>
  <fix>3d</fix>
</trkpt>
<trkpt lat="33.8101803" lon="-118.3940391">
  <ele>-0.109</ele>
  <time>2026-09-02T22:07:24Z</time>
  <course>10.47</course>
  <speed>0.7234638899074369</speed>
  <fix>3d</fix>
</trkpt>
<trkpt lat="33.8101804" lon="-118.394039">
  <ele>-0.109</ele>
  <time>2026-09-02T22:07:24Z</time>
  <course>10.47</course>
  <speed>0.7234638899074369</speed>
  <fix>3d</fix>
</trkpt>
<trkpt lat="33.8101804" lon="-118.394039">
  <ele>-0.109</ele>
  <time>2026-09-02T22:07:24Z</time>
  <course>10.47</course>
  <speed>0.7234638899074369</speed>
  <fix>3d</fix>
</trkpt>
<trkpt lat="33.8101805" lon="-118.3940389">
  <ele>-0.11</ele>
  <time>2026-09-02T22:07:24Z</time>
  <course>10.47</course>
  <speed>0.7234638899074369</speed>
  <fix>3d</fix>
</trkpt>
<trkpt lat="33.8101805" lon="-118.3940389">
  <ele>-0.11</ele>
  <time>2026-09-02T22:07:24Z</time>
  <course>10.47</course>
  <speed>0.7234638899074369</speed>
  <fix>3d</fix>
</trkpt>
<trkpt lat="33.8101806" lon="-118.3940388">
  <ele>-0.11</ele>
  <time>2026-09-02T22:07:24Z</time>
  <course>10.47</course>
  <speed>0.7234638899074369</speed>
  <fix>3d</fix>
</trkpt>
<trkpt lat="33.8101806" lon="-118.3940388">
  <ele>-0.11</ele>
  <time>2026-09-02T22:07:24Z</time>
  <course>10.47</course>
  <speed>0.7234638899074369</speed>
  <fix>3d</fix>
</trkpt>
<trkpt lat="33.8101806" lon="-118.3940387">
  <ele>-0.11</ele>
  <time>2026-09-02T22:07:24Z</time>
  <course>10.47</course>
  <speed>0.7234638899074369</speed>
  <fix>3d</fix>
</trkpt>
<trkpt lat="33.8101807" lon="-118.3940387">
  <ele>-0.11</ele>
  <time>2026-09-02T22:07:24Z</time>
  <course>10.47</course>
  <speed>0.7234638899074369</speed>
  <fix>3d</fix>
</trkpt>
<trkpt lat="33.8101803" lon="-118.3940397">
  <ele>-0.1</ele>
  <time>2026-09-02T22:07:24Z</time>
  <course>47.29</course>
  <speed>0.73</speed>
  <fix>3d</fix>
</trkpt>
<trkpt lat="33.8101807" lon="-118.3940387">
  <ele>-0.11</ele>
  <time>2026-09-02T22:07:24Z</time>
  <course>10.47</course>
  <speed>0.7234638899074369</speed>
  <fix>3d</fix>
</trkpt>
<trkpt lat="33.8101807" lon="-118.3940386">
  <ele>-0.111</ele>
  <time>2026-09-02T22:07:24Z</time>
  <course>10.48</course>
  <speed>0.7234638899074369</speed>
  <fix>3d</fix>
</trkpt>
<trkpt lat="33.8101808" lon="-118.3940385">
  <ele>-0.111</ele>
  <time>2026-09-02T22:07:24Z</time>
  <course>10.48</course>
  <speed>0.7234638899074369</speed>
  <fix>3d</fix>
</trkpt>
<trkpt lat="33.8101808" lon="-118.3940385">
  <ele>-0.111</ele>
  <time>2026-09-02T22:07:24Z</time>
  <course>10.48</course>
  <speed>0.7234638899074369</speed>
  <fix>3d</fix>
</trkpt>
<trkpt lat="33.8101809" lon="-118.3940384">
  <ele>-0.111</ele>
  <time>2026-09-02T22:07:24Z</time>
  <course>10.48</course>
  <speed>0.7234638899074369</speed>
  <fix>3d</fix>
</trkpt>
<trkpt lat="33.8101809" lon="-118.3940384">
  <ele>-0.111</ele>
  <time>2026-09-02T22:07:24Z</time>
  <course>10.48</course>
  <speed>0.7234638899074369</speed>
  <fix>3d</fix>
</trkpt>
<trkpt lat="33.810181" lon="-118.3940383">
  <ele>-0.111</ele>
  <time>2026-09-02T22:07:24Z</time>
  <course>10.48</course>
  <speed>0.7234638899074369</speed>
  <fix>3d</fix>
</trkpt>
<trkpt lat="33.810181" lon="-118.3940383">
  <ele>-0.111</ele>
  <time>2026-09-02T22:07:24Z</time>
  <course>10.48</course>
  <speed>0.7234638899074369</speed>
  <fix>3d</fix>
</trkpt>
<trkpt lat="33.810181" lon="-118.3940382">
  <ele>-0.112</ele>
  <time>2026-09-02T22:07:24Z</time>
  <course>10.48</course>
  <speed>0.7234638899074369</speed>
  <fix>3d</fix>
</trkpt>
<trkpt lat="33.8101811" lon="-118.3940382">
  <ele>-0.112</ele>
  <time>2026-09-02T22:07:24Z</time>
  <course>10.48</course>
  <speed>0.7234638899074369</speed>
  <fix>3d</fix>
</trkpt>
<trkpt lat="33.8101811" lon="-118.3940381">
  <ele>-0.112</ele>
  <time>2026-09-02T22:07:24Z</time>
  <course>10.48</course>
  <speed>0.7234638899074369</speed>
  <fix>3d</fix>
</trkpt>
<trkpt lat="33.8101811" lon="-118.3940381">
  <ele>-0.112</ele>
  <time>2026-09-02T22:07:24Z</time>
  <course>10.48</course>
  <speed>0.7234638899074369</speed>
  <fix>3d</fix>
</trkpt>
<trkpt lat="33.8101803" lon="-118.3940397">
  <ele>-0.1</ele>
  <time>2026-09-02T22:07:24Z</time>
  <course>47.29</course>
  <speed>0.73</speed>
  <fix>3d</fix>
</trkpt>
<trkpt lat="33.8101811" lon="-118.3940381">
  <ele>-0.112</ele>
  <time>2026-09-02T22:07:24Z</time>
  <course>10.48</course>
  <speed>0.7234638899074369</speed>
  <fix>3d</fix>
</trkpt>
<trkpt lat="33.8101812" lon="-118.394038">
  <ele>-0.112</ele>
  <time>2026-09-02T22:07:24Z</time>
  <course>10.48</course>
  <speed>0.7234638899074369</speed>
  <fix>3d</fix>
</trkpt>
<trkpt lat="33.8101812" lon="-118.3940379">
  <ele>-0.112</ele>
  <time>2026-09-02T22:07:24Z</time>
  <course>10.48</course>
  <speed>0.7234638899074369</speed>
  <fix>3d</fix>
</trkpt>
<trkpt lat="33.8101813" lon="-118.3940379">
  <ele>-0.113</ele>
  <time>2026-09-02T22:07:24Z</time>
  <course>10.48</course>
  <speed>0.7234638899074369</speed>
  <fix>3d</fix>
</trkpt>
<trkpt lat="33.8101813" lon="-118.3940378">
  <ele>-0.113</ele>
  <time>2026-09-02T22:07:24Z</time>
  <course>10.49</course>
  <speed>0.7234638899074369</speed>
  <fix>3d</fix>
</trkpt>
<trkpt lat="33.8101814" lon="-118.3940378">
  <ele>-0.113</ele>
  <time>2026-09-02T22:07:24Z</time>
  <course>10.49</course>
  <speed>0.7234638899074369</speed>
  <fix>3d</fix>
</trkpt>
<trkpt lat="33.8101814" lon="-118.3940377">
  <ele>-0.113</ele>
  <time>2026-09-02T22:07:24Z</time>
  <course>10.49</course>
  <speed>0.7234638899074369</speed>
  <fix>3d</fix>
</trkpt>
<trkpt lat="33.8101815" lon="-118.3940377">
  <ele>-0.113</ele>
  <time>2026-09-02T22:07:24Z</time>
  <course>10.49</course>
  <speed>0.7234638899074369</speed>
  <fix>3d</fix>
</trkpt>
<trkpt lat="33.8101815" lon="-118.3940376">
  <ele>-0.113</ele>
  <time>2026-09-02T22:07:24Z</time>
  <course>10.49</course>
  <speed>0.7234638899074369</speed>
  <fix>3d</fix>
</trkpt>
<trkpt lat="33.8101816" lon="-118.3940375">
  <ele>-0.113</ele>
  <time>2026-09-02T22:07:24Z</time>
  <course>10.49</course>
  <speed>0.7234638899074369</speed>
  <fix>3d</fix>
</trkpt>
<trkpt lat="33.8101816" lon="-118.3940375">
  <ele>-0.114</ele>
  <time>2026-09-02T22:07:24Z</time>
  <course>10.49</course>
  <speed>0.7234638899074369</speed>
  <fix>3d</fix>
</trkpt>
<trkpt lat="33.8101812" lon="-118.3940385">
  <ele>-0.1</ele>
  <time>2026-09-02T22:07:24Z</time>
  <course>47.3</course>
  <speed>0.73</speed>
  <fix>3d</fix>
</trkpt>
<trkpt lat="33.8101816" lon="-118.3940375">
  <ele>-0.114</ele>
  <time>2026-09-02T22:07:24Z</time>
  <course>10.49</course>
  <speed>0.7234638899074369</speed>
  <fix>3d</fix>
</trkpt>
<trkpt lat="33.8101816" lon="-118.3940374">
  <ele>-0.114</ele>
  <time>2026-09-02T22:07:24Z</time>
  <course>10.49</course>
  <speed>0.7234638899074369</speed>
  <fix>3d</fix>
</trkpt>
<trkpt lat="33.8101817" lon="-118.3940374">
  <ele>-0.114</ele>
  <time>2026-09-02T22:07:24Z</time>
  <course>10.49</course>
  <speed>0.7234638899074369</speed>
  <fix>3d</fix>
</trkpt>
<trkpt lat="33.8101817" lon="-118.3940373">
  <ele>-0.114</ele>
  <time>2026-09-02T22:07:24Z</time>
  <course>10.49</course>
  <speed>0.7234638899074369</speed>
  <fix>3d</fix>
</trkpt>
<trkpt lat="33.8101818" lon="-118.3940373">
  <ele>-0.114</ele>
  <time>2026-09-02T22:07:24Z</time>
  <course>10.49</course>
  <speed>0.7234638899074369</speed>
  <fix>3d</fix>
</trkpt>
<trkpt lat="33.8101818" lon="-118.3940372">
  <ele>-0.114</ele>
  <time>2026-09-02T22:07:24Z</time>
  <course>10.49</course>
  <speed>0.7234638899074369</speed>
  <fix>3d</fix>
</trkpt>
<trkpt lat="33.8101818" lon="-118.3940372">
  <ele>-0.114</ele>
  <time>2026-09-02T22:07:24Z</time>
  <course>10.49</course>
  <speed>0.7234638899074369</speed>
  <fix>3d</fix>
</trkpt>
<trkpt lat="33.8101819" lon="-118.3940371">
  <ele>-0.114</ele>
  <time>2026-09-02T22:07:24Z</time>
  <course>10.49</course>
  <speed>0.7234638899074369</speed>
  <fix>3d</fix>
</trkpt>
<trkpt lat="33.8101819" lon="-118.3940371">
  <ele>-0.114</ele>
  <time>2026-09-02T22:07:24Z</time>
  <course>10.49</course>
  <speed>0.7234638899074369</speed>
  <fix>3d</fix>
</trkpt>
<trkpt lat="33.810182" lon="-118.394037">
  <ele>-0.114</ele>
  <time>2026-09-02T22:07:24Z</time>
  <course>10.5</course>
  <speed>0.7234638899074369</speed>
  <fix>3d</fix>
</trkpt>
<trkpt lat="33.810182" lon="-118.394037">
  <ele>-0.115</ele>
  <time>2026-09-02T22:07:24Z</time>
  <course>10.5</course>
  <speed>0.7234638899074369</speed>
  <fix>3d</fix>
</trkpt>
<trkpt lat="33.810182" lon="-118.3940369">
  <ele>-0.115</ele>
  <time>2026-09-02T22:07:24Z</time>
  <course>10.5</course>
  <speed>0.7234638899074369</speed>
  <fix>3d</fix>
</trkpt>
<trkpt lat="33.810182" lon="-118.3940369">
  <ele>-0.115</ele>
  <time>2026-09-02T22:07:24Z</time>
  <course>10.5</course>
  <speed>0.7234638899074369</speed>
  <fix>3d</fix>
</trkpt>
<trkpt lat="33.8101812" lon="-118.3940385">
  <ele>-0.1</ele>
  <time>2026-09-02T22:07:24Z</time>
  <course>47.3</course>
  <speed>0.73</speed>
  <fix>3d</fix>
</trkpt>
<trkpt lat="33.8101821" lon="-118.3940369">
  <ele>-0.115</ele>
  <time>2026-09-02T22:07:24Z</time>
  <course>10.5</course>
  <speed>0.7234638899074369</speed>
  <fix>3d</fix>
</trkpt>
<trkpt lat="33.8101821" lon="-118.3940368">
  <ele>-0.115</ele>
  <time>2026-09-02T22:07:24Z</time>
  <course>10.5</course>
  <speed>0.7234638899074369</speed>
  <fix>3d</fix>
</trkpt>
<trkpt lat="33.8101822" lon="-118.3940368">
  <ele>-0.115</ele>
  <time>2026-09-02T22:07:24Z</time>
  <course>10.5</course>
  <speed>0.7234638899074369</speed>
  <fix>3d</fix>
</trkpt>
<trkpt lat="33.8101822" lon="-118.3940367">
  <ele>-0.115</ele>
  <time>2026-09-02T22:07:24Z</time>
  <course>10.5</course>
  <speed>0.7234638899074369</speed>
  <fix>3d</fix>
</trkpt>
<trkpt lat="33.8101822" lon="-118.3940367">
  <ele>-0.115</ele>
  <time>2026-09-02T22:07:24Z</time>
  <course>10.5</course>
  <speed>0.7234638899074369</speed>
  <fix>3d</fix>
</trkpt>
<trkpt lat="33.8101823" lon="-118.3940366">
  <ele>-0.115</ele>
  <time>2026-09-02T22:07:24Z</time>
  <course>10.5</course>
  <speed>0.7234638899074369</speed>
  <fix>3d</fix>
</trkpt>
<trkpt lat="33.8101823" lon="-118.3940366">
  <ele>-0.115</ele>
  <time>2026-09-02T22:07:24Z</time>
  <course>10.5</course>
  <speed>0.7234638899074369</speed>
  <fix>3d</fix>
</trkpt>
<trkpt lat="33.8101823" lon="-118.3940365">
  <ele>-0.116</ele>
  <time>2026-09-02T22:07:24Z</time>
  <course>10.5</course>
  <speed>0.7234638899074369</speed>
  <fix>3d</fix>
</trkpt>
<trkpt lat="33.8101824" lon="-118.3940365">
  <ele>-0.116</ele>
  <time>2026-09-02T22:07:24Z</time>
  <course>10.5</course>
  <speed>0.7234638899074369</speed>
  <fix>3d</fix>
</trkpt>
<trkpt lat="33.8101824" lon="-118.3940364">
  <ele>-0.116</ele>
  <time>2026-09-02T22:07:24Z</time>
  <course>10.5</course>
  <speed>0.7234638899074369</speed>
  <fix>3d</fix>
</trkpt>
<trkpt lat="33.8101824" lon="-118.3940364">
  <ele>-0.116</ele>
  <time>2026-09-02T22:07:24Z</time>
  <course>10.5</course>
  <speed>0.7234638899074369</speed>
  <fix>3d</fix>
</trkpt>
<trkpt lat="33.8101825" lon="-118.3940363">
  <ele>-0.116</ele>
  <time>2026-09-02T22:07:24Z</time>
  <course>10.5</course>
  <speed>0.7234638899074369</speed>
  <fix>3d</fix>
</trkpt>
<trkpt lat="33.8101825" lon="-118.3940363">
  <ele>-0.116</ele>
  <time>2026-09-02T22:07:24Z</time>
  <course>10.5</course>
  <speed>0.7234638899074369</speed>
  <fix>3d</fix>
</trkpt>
<trkpt lat="33.8101821" lon="-118.3940374">
  <ele>-0.11</ele>
  <time>2026-09-02T22:07:24Z</time>
  <course>47.31</course>
  <speed>0.73</speed>
  <fix>3d</fix>
</trkpt>
<trkpt lat="33.8101825" lon="-118.3940363">
  <ele>-0.117</ele>
  <time>2026-09-02T22:07:24Z</time>
  <course>10.51</course>
  <speed>0.7234638899074369</speed>
  <fix>3d</fix>
</trkpt>
<trkpt lat="33.8101826" lon="-118.3940362">
  <ele>-0.117</ele>
  <time>2026-09-02T22:07:24Z</time>
  <course>10.51</course>
  <speed>0.7234638899074369</speed>
  <fix>3d</fix>
</trkpt>
<trkpt lat="33.8101826" lon="-118.3940362">
  <ele>-0.117</ele>
  <time>2026-09-02T22:07:24Z</time>
  <course>10.51</course>
  <speed>0.7234638899074369</speed>
  <fix>3d</fix>
</trkpt>
<trkpt lat="33.8101827" lon="-118.3940361">
  <ele>-0.117</ele>
  <time>2026-09-02T22:07:24Z</time>
  <course>10.51</course>
  <speed>0.7234638899074369</speed>
  <fix>3d</fix>
</trkpt>
<trkpt lat="33.8101827" lon="-118.394036">
  <ele>-0.117</ele>
  <time>2026-09-02T22:07:24Z</time>
  <course>10.51</course>
  <speed>0.7234638899074369</speed>
  <fix>3d</fix>
</trkpt>
<trkpt lat="33.8101828" lon="-118.394036">
  <ele>-0.117</ele>
  <time>2026-09-02T22:07:24Z</time>
  <course>10.51</course>
  <speed>0.7234638899074369</speed>
  <fix>3d</fix>
</trkpt>
<trkpt lat="33.8101828" lon="-118.3940359">
  <ele>-0.117</ele>
  <time>2026-09-02T22:07:24Z</time>
  <course>10.51</course>
  <speed>0.7234638899074369</speed>
  <fix>3d</fix>
</trkpt>
<trkpt lat="33.8101828" lon="-118.3940359">
  <ele>-0.117</ele>
  <time>2026-09-02T22:07:24Z</time>
  <course>10.51</course>
  <speed>0.7234638899074369</speed>
  <fix>3d</fix>
</trkpt>
<trkpt lat="33.8101829" lon="-118.3940359">
  <ele>-0.117</ele>
  <time>2026-09-02T22:07:24Z</time>
  <course>10.51</course>
  <speed>0.7234638899074369</speed>
  <fix>3d</fix>
</trkpt>
<trkpt lat="33.8101829" lon="-118.3940358">
  <ele>-0.117</ele>
  <time>2026-09-02T22:07:24Z</time>
  <course>10.51</course>
  <speed>0.7234638899074369</speed>
  <fix>3d</fix>
</trkpt>
<trkpt lat="33.8101829" lon="-118.3940358">
  <ele>-0.117</ele>
  <time>2026-09-02T22:07:24Z</time>
  <course>10.51</course>
  <speed>0.7234638899074369</speed>
  <fix>3d</fix>
</trkpt>
<trkpt lat="33.8101821" lon="-118.3940374">
  <ele>-0.11</ele>
  <time>2026-09-02T22:07:24Z</time>
  <course>47.31</course>
  <speed>0.73</speed>
  <fix>3d</fix>
</trkpt>
<trkpt lat="33.8101829" lon="-118.3940357">
  <ele>-0.117</ele>
  <time>2026-09-02T22:07:24Z</time>
  <course>10.51</course>
  <speed>0.7234638899074369</speed>
  <fix>3d</fix>
</trkpt>
<trkpt lat="33.810183" lon="-118.3940357">
  <ele>-0.117</ele>
  <time>2026-09-02T22:07:24Z</time>
  <course>10.51</course>
  <speed>0.7234638899074369</speed>
  <fix>3d</fix>
</trkpt>
<trkpt lat="33.810183" lon="-118.3940356">
  <ele>-0.117</ele>
  <time>2026-09-02T22:07:24Z</time>
  <course>10.51</course>
  <speed>0.7234638899074369</speed>
  <fix>3d</fix>
</trkpt>
<trkpt lat="33.8101831" lon="-118.3940356">
  <ele>-0.117</ele>
  <time>2026-09-02T22:07:24Z</time>
  <course>10.51</course>
  <speed>0.7234638899074369</speed>
  <fix>3d</fix>
</trkpt>
<trkpt lat="33.8101831" lon="-118.3940355">
  <ele>-0.117</ele>
  <time>2026-09-02T22:07:24Z</time>
  <course>10.51</course>
  <speed>0.7234638899074369</speed>
  <fix>3d</fix>
</trkpt>
<trkpt lat="33.8101831" lon="-118.3940355">
  <ele>-0.117</ele>
  <time>2026-09-02T22:07:24Z</time>
  <course>10.52</course>
  <speed>0.7234638899074369</speed>
  <fix>3d</fix>
</trkpt>
<trkpt lat="33.8101832" lon="-118.3940354">
  <ele>-0.117</ele>
  <time>2026-09-02T22:07:24Z</time>
  <course>10.52</course>
  <speed>0.7234638899074369</speed>
  <fix>3d</fix>
</trkpt>
<trkpt lat="33.8101832" lon="-118.3940354">
  <ele>-0.117</ele>
  <time>2026-09-02T22:07:24Z</time>
  <course>10.52</course>
  <speed>0.7234638899074369</speed>
  <fix>3d</fix>
</trkpt>
<trkpt lat="33.8101833" lon="-118.3940353">
  <ele>-0.117</ele>
  <time>2026-09-02T22:07:24Z</time>
  <course>10.52</course>
  <speed>0.7234638899074369</speed>
  <fix>3d</fix>
</trkpt>
<trkpt lat="33.8101833" lon="-118.3940353">
  <ele>-0.117</ele>
  <time>2026-09-02T22:07:24Z</time>
  <course>10.52</course>
  <speed>0.7234638899074369</speed>
  <fix>3d</fix>
</trkpt>
<trkpt lat="33.8101833" lon="-118.3940352">
  <ele>-0.117</ele>
  <time>2026-09-02T22:07:24Z</time>
  <course>10.52</course>
  <speed>0.7234638899074369</speed>
  <fix>3d</fix>
</trkpt>
<trkpt lat="33.8101834" lon="-118.3940352">
  <ele>-0.116</ele>
  <time>2026-09-02T22:07:24Z</time>
  <course>10.52</course>
  <speed>0.7234638899074369</speed>
  <fix>3d</fix>
</trkpt>
<trkpt lat="33.8101834" lon="-118.3940352">
  <ele>-0.116</ele>
  <time>2026-09-02T22:07:24Z</time>
  <course>10.52</course>
  <speed>0.7234638899074369</speed>
  <fix>3d</fix>
</trkpt>
<trkpt lat="33.810183" lon="-118.3940361">
  <ele>-0.1</ele>
  <time>2026-09-02T22:07:24Z</time>
  <course>47.33</course>
  <speed>0.73</speed>
  <fix>3d</fix>
</trkpt>
<trkpt lat="33.8101835" lon="-118.3940351">
  <ele>-0.116</ele>
  <time>2026-09-02T22:07:24Z</time>
  <course>10.52</course>
  <speed>0.7234638899074369</speed>
  <fix>3d</fix>
</trkpt>
<trkpt lat="33.8101835" lon="-118.394035">
  <ele>-0.116</ele>
  <time>2026-09-02T22:07:24Z</time>
  <course>10.52</course>
  <speed>0.7234638899074369</speed>
  <fix>3d</fix>
</trkpt>
<trkpt lat="33.8101835" lon="-118.394035">
  <ele>-0.116</ele>
  <time>2026-09-02T22:07:24Z</time>
  <course>10.52</course>
  <speed>0.7234638899074369</speed>
  <fix>3d</fix>
</trkpt>
<trkpt lat="33.8101836" lon="-118.3940349">
  <ele>-0.116</ele>
  <time>2026-09-02T22:07:24Z</time>
  <course>10.52</course>
  <speed>0.7234638899074369</speed>
  <fix>3d</fix>
</trkpt>
<trkpt lat="33.8101836" lon="-118.3940349">
  <ele>-0.116</ele>
  <time>2026-09-02T22:07:24Z</time>
  <course>10.52</course>
  <speed>0.7234638899074369</speed>
  <fix>3d</fix>
</trkpt>
<trkpt lat="33.8101837" lon="-118.3940348">
  <ele>-0.116</ele>
  <time>2026-09-02T22:07:24Z</time>
  <course>10.52</course>
  <speed>0.7234638899074369</speed>
  <fix>3d</fix>
</trkpt>
<trkpt lat="33.8101837" lon="-118.3940348">
  <ele>-0.116</ele>
  <time>2026-09-02T22:07:24Z</time>
  <course>10.52</course>
  <speed>0.7234638899074369</speed>
  <fix>3d</fix>
</trkpt>
<trkpt lat="33.8101837" lon="-118.3940347">
  <ele>-0.116</ele>
  <time>2026-09-02T22:07:24Z</time>
  <course>10.52</course>
  <speed>0.7234638899074369</speed>
  <fix>3d</fix>
</trkpt>
<trkpt lat="33.8101838" lon="-118.3940347">
  <ele>-0.116</ele>
  <time>2026-09-02T22:07:24Z</time>
  <course>10.53</course>
  <speed>0.7234638899074369</speed>
  <fix>3d</fix>
</trkpt>
<trkpt lat="33.8101838" lon="-118.3940346">
  <ele>-0.115</ele>
  <time>2026-09-02T22:07:24Z</time>
  <course>10.53</course>
  <speed>0.7234638899074369</speed>
  <fix>3d</fix>
</trkpt>
<trkpt lat="33.8101838" lon="-118.3940346">
  <ele>-0.115</ele>
  <time>2026-09-02T22:07:24Z</time>
  <course>10.53</course>
  <speed>0.7234638899074369</speed>
  <fix>3d</fix>
</trkpt>
<trkpt lat="33.810183" lon="-118.3940361">
  <ele>-0.1</ele>
  <time>2026-09-02T22:07:24Z</time>
  <course>47.33</course>
  <speed>0.73</speed>
  <fix>3d</fix>
</trkpt>
<trkpt lat="33.8101839" lon="-118.3940345">
  <ele>-0.115</ele>
  <time>2026-09-02T22:07:24Z</time>
  <course>10.53</course>
  <speed>0.7234638899074369</speed>
  <fix>3d</fix>
</trkpt>
<trkpt lat="33.8101839" lon="-118.3940344">
  <ele>-0.115</ele>
  <time>2026-09-02T22:07:24Z</time>
  <course>10.53</course>
  <speed>0.7234638899074369</speed>
  <fix>3d</fix>
</trkpt>
<trkpt lat="33.810184" lon="-118.3940344">
  <ele>-0.115</ele>
  <time>2026-09-02T22:07:24Z</time>
  <course>10.53</course>
  <speed>0.7234638899074369</speed>
  <fix>3d</fix>
</trkpt>
<trkpt lat="33.810184" lon="-118.3940343">
  <ele>-0.115</ele>
  <time>2026-09-02T22:07:24Z</time>
  <course>10.53</course>
  <speed>0.7234638899074369</speed>
  <fix>3d</fix>
</trkpt>
<trkpt lat="33.8101841" lon="-118.3940343">
  <ele>-0.115</ele>
  <time>2026-09-02T22:07:24Z</time>
  <course>10.53</course>
  <speed>0.7234638899074369</speed>
  <fix>3d</fix>
</trkpt>
<trkpt lat="33.8101841" lon="-118.3940342">
  <ele>-0.115</ele>
  <time>2026-09-02T22:07:24Z</time>
  <course>10.53</course>
  <speed>0.7234638899074369</speed>
  <fix>3d</fix>
</trkpt>
<trkpt lat="33.8101841" lon="-118.3940342">
  <ele>-0.115</ele>
  <time>2026-09-02T22:07:24Z</time>
  <course>10.53</course>
  <speed>0.7234638899074369</speed>
  <fix>3d</fix>
</trkpt>
<trkpt lat="33.8101842" lon="-118.3940341">
  <ele>-0.115</ele>
  <time>2026-09-02T22:07:24Z</time>
  <course>10.53</course>
  <speed>0.7234638899074369</speed>
  <fix>3d</fix>
</trkpt>
<trkpt lat="33.8101842" lon="-118.3940341">
  <ele>-0.115</ele>
  <time>2026-09-02T22:07:24Z</time>
  <course>10.53</course>
  <speed>0.7234638899074369</speed>
  <fix>3d</fix>
</trkpt>
<trkpt lat="33.8101842" lon="-118.3940341">
  <ele>-0.114</ele>
  <time>2026-09-02T22:07:24Z</time>
  <course>10.53</course>
  <speed>0.7234638899074369</speed>
  <fix>3d</fix>
</trkpt>
<trkpt lat="33.8101843" lon="-118.394034">
  <ele>-0.114</ele>
  <time>2026-09-02T22:07:24Z</time>
  <course>10.53</course>
  <speed>0.7234638899074369</speed>
  <fix>3d</fix>
</trkpt>
<trkpt lat="33.8101839" lon="-118.394035">
  <ele>-0.1</ele>
  <time>2026-09-02T22:07:24Z</time>
  <course>47.34</course>
  <speed>0.73</speed>
  <fix>3d</fix>
</trkpt>
<trkpt lat="33.8101843" lon="-118.394034">
  <ele>-0.114</ele>
  <time>2026-09-02T22:07:24Z</time>
  <course>10.53</course>
  <speed>0.7234638899074369</speed>
  <fix>3d</fix>
</trkpt>
<trkpt lat="33.8101843" lon="-118.3940339">
  <ele>-0.114</ele>
  <time>2026-09-02T22:07:24Z</time>
  <course>10.53</course>
  <speed>0.7234638899074369</speed>
  <fix>3d</fix>
</trkpt>
<trkpt lat="33.8101844" lon="-118.3940339">
  <ele>-0.114</ele>
  <time>2026-09-02T22:07:24Z</time>
  <course>10.54</course>
  <speed>0.7234638899074369</speed>
  <fix>3d</fix>
</trkpt>
<trkpt lat="33.8101844" lon="-118.3940338">
  <ele>-0.114</ele>
  <time>2026-09-02T22:07:24Z</time>
  <course>10.54</course>
  <speed>0.7234638899074369</speed>
  <fix>3d</fix>
</trkpt>
<trkpt lat="33.8101845" lon="-118.3940338">
  <ele>-0.114</ele>
  <time>2026-09-02T22:07:24Z</time>
  <course>10.54</course>
  <speed>0.7234638899074369</speed>
  <fix>3d</fix>
</trkpt>
<trkpt lat="33.8101845" lon="-118.3940337">
  <ele>-0.114</ele>
  <time>2026-09-02T22:07:24Z</time>
  <course>10.54</course>
  <speed>0.7234638899074369</speed>
  <fix>3d</fix>
</trkpt>
<trkpt lat="33.8101845" lon="-118.3940337">
  <ele>-0.113</ele>
  <time>2026-09-02T22:07:24Z</time>
  <course>10.54</course>
  <speed>0.7234638899074369</speed>
  <fix>3d</fix>
</trkpt>
<trkpt lat="33.8101846" lon="-118.3940336">
  <ele>-0.113</ele>
  <time>2026-09-02T22:07:24Z</time>
  <course>10.54</course>
  <speed>0.7234638899074369</speed>
  <fix>3d</fix>
</trkpt>
<trkpt lat="33.8101846" lon="-118.3940336">
  <ele>-0.113</ele>
  <time>2026-09-02T22:07:24Z</time>
  <course>10.54</course>
  <speed>0.7234638899074369</speed>
  <fix>3d</fix>
</trkpt>
<trkpt lat="33.8101846" lon="-118.3940336">
  <ele>-0.113</ele>
  <time>2026-09-02T22:07:24Z</time>
  <course>10.54</course>
  <speed>0.7234638899074369</speed>
  <fix>3d</fix>
</trkpt>
<trkpt lat="33.8101847" lon="-118.3940335">
  <ele>-0.113</ele>
  <time>2026-09-02T22:07:24Z</time>
  <course>10.54</course>
  <speed>0.7234638899074369</speed>
  <fix>3d</fix>
</trkpt>
<trkpt lat="33.8101847" lon="-118.3940335">
  <ele>-0.113</ele>
  <time>2026-09-02T22:07:24Z</time>
  <course>10.54</course>
  <speed>0.7234638899074369</speed>
  <fix>3d</fix>
</trkpt>
<trkpt lat="33.8101847" lon="-118.3940334">
  <ele>-0.112</ele>
  <time>2026-09-02T22:07:24Z</time>
  <course>10.54</course>
  <speed>0.7234638899074369</speed>
  <fix>3d</fix>
</trkpt>
<trkpt lat="33.8101847" lon="-118.3940334">
  <ele>-0.112</ele>
  <time>2026-09-02T22:07:24Z</time>
  <course>10.54</course>
  <speed>0.7234638899074369</speed>
  <fix>3d</fix>
</trkpt>
<trkpt lat="33.8101839" lon="-118.394035">
  <ele>-0.1</ele>
  <time>2026-09-02T22:07:24Z</time>
  <course>47.34</course>
  <speed>0.73</speed>
  <fix>3d</fix>
</trkpt>
<trkpt lat="33.8101848" lon="-118.3940333">
  <ele>-0.112</ele>
  <time>2026-09-02T22:07:24Z</time>
  <course>10.54</course>
  <speed>0.7234638899074369</speed>
  <fix>3d</fix>
</trkpt>
<trkpt lat="33.8101848" lon="-118.3940333">
  <ele>-0.112</ele>
  <time>2026-09-02T22:07:24Z</time>
  <course>10.54</course>
  <speed>0.7234638899074369</speed>
  <fix>3d</fix>
</trkpt>
<trkpt lat="33.8101849" lon="-118.3940332">
  <ele>-0.112</ele>
  <time>2026-09-02T22:07:24Z</time>
  <course>10.54</course>
  <speed>0.7234638899074369</speed>
  <fix>3d</fix>
</trkpt>
<trkpt lat="33.8101849" lon="-118.3940332">
  <ele>-0.112</ele>
  <time>2026-09-02T22:07:24Z</time>
  <course>10.54</course>
  <speed>0.7234638899074369</speed>
  <fix>3d</fix>
</trkpt>
<trkpt lat="33.8101849" lon="-118.3940331">
  <ele>-0.111</ele>
  <time>2026-09-02T22:07:24Z</time>
  <course>10.54</course>
  <speed>0.7234638899074369</speed>
  <fix>3d</fix>
</trkpt>
<trkpt lat="33.810185" lon="-118.3940331">
  <ele>-0.111</ele>
  <time>2026-09-02T22:07:24Z</time>
  <course>10.55</course>
  <speed>0.7234638899074369</speed>
  <fix>3d</fix>
</trkpt>
<trkpt lat="33.810185" lon="-118.394033">
  <ele>-0.111</ele>
  <time>2026-09-02T22:07:24Z</time>
  <course>10.55</course>
  <speed>0.7234638899074369</speed>
  <fix>3d</fix>
</trkpt>
<trkpt lat="33.8101851" lon="-118.394033">
  <ele>-0.111</ele>
  <time>2026-09-02T22:07:24Z</time>
  <course>10.55</course>
  <speed>0.7234638899074369</speed>
  <fix>3d</fix>
</trkpt>
<trkpt lat="33.8101851" lon="-118.3940329">
  <ele>-0.111</ele>
  <time>2026-09-02T22:07:24Z</time>
  <course>10.55</course>
  <speed>0.7234638899074369</speed>
  <fix>3d</fix>
</trkpt>
<trkpt lat="33.8101851" lon="-118.3940329">
  <ele>-0.11</ele>
  <time>2026-09-02T22:07:24Z</time>
  <course>10.55</course>
  <speed>0.7234638899074369</speed>
  <fix>3d</fix>
</trkpt>
<trkpt lat="33.8101852" lon="-118.3940328">
  <ele>-0.11</ele>
  <time>2026-09-02T22:07:24Z</time>
  <course>10.55</course>
  <speed>0.7234638899074369</speed>
  <fix>3d</fix>
</trkpt>
<trkpt lat="33.8101852" lon="-118.3940328">
  <ele>-0.11</ele>
  <time>2026-09-02T22:07:24Z</time>
  <course>10.55</course>
  <speed>0.7234638899074369</speed>
  <fix>3d</fix>
</trkpt>
<trkpt lat="33.8101848" lon="-118.3940338">
  <ele>-0.1</ele>
  <time>2026-09-02T22:07:24Z</time>
  <course>47.36</course>
  <speed>0.73</speed>
  <fix>3d</fix>
</trkpt>
<trkpt lat="33.8101852" lon="-118.3940328">
  <ele>-0.11</ele>
  <time>2026-09-02T22:07:24Z</time>
  <course>10.55</course>
  <speed>0.7234638899074369</speed>
  <fix>3d</fix>
</trkpt>
<trkpt lat="33.8101853" lon="-118.3940327">
  <ele>-0.11</ele>
  <time>2026-09-02T22:07:24Z</time>
  <course>10.55</course>
  <speed>0.7234638899074369</speed>
  <fix>3d</fix>
</trkpt>
<trkpt lat="33.8101853" lon="-118.3940326">
  <ele>-0.109</ele>
  <time>2026-09-02T22:07:24Z</time>
  <course>10.55</course>
  <speed>0.7234638899074369</speed>
  <fix>3d</fix>
</trkpt>
<trkpt lat="33.8101854" lon="-118.3940326">
  <ele>-0.109</ele>
  <time>2026-09-02T22:07:24Z</time>
  <course>10.55</course>
  <speed>0.7234638899074369</speed>
  <fix>3d</fix>
</trkpt>
<trkpt lat="33.8101854" lon="-118.3940325">
  <ele>-0.109</ele>
  <time>2026-09-02T22:07:24Z</time>
  <course>10.55</course>
  <speed>0.7234638899074369</speed>
  <fix>3d</fix>
</trkpt>
<trkpt lat="33.8101855" lon="-118.3940325">
  <ele>-0.109</ele>
  <time>2026-09-02T22:07:24Z</time>
  <course>10.55</course>
  <speed>0.7234638899074369</speed>
  <fix>3d</fix>
</trkpt>
<trkpt lat="33.8101855" lon="-118.3940324">
  <ele>-0.108</ele>
  <time>2026-09-02T22:07:24Z</time>
  <course>10.55</course>
  <speed>0.7234638899074369</speed>
  <fix>3d</fix>
</trkpt>
<trkpt lat="33.8101856" lon="-118.3940323">
  <ele>-0.108</ele>
  <time>2026-09-02T22:07:24Z</time>
  <course>10.55</course>
  <speed>0.7234638899074369</speed>
  <fix>3d</fix>
</trkpt>
<trkpt lat="33.8101856" lon="-118.3940323">
  <ele>-0.108</ele>
  <time>2026-09-02T22:07:24Z</time>
  <course>10.56</course>
  <speed>0.7234638899074369</speed>
  <fix>3d</fix>
</trkpt>
<trkpt lat="33.8101856" lon="-118.3940322">
  <ele>-0.108</ele>
  <time>2026-09-02T22:07:24Z</time>
  <course>10.56</course>
  <speed>0.7234638899074369</speed>
  <fix>3d</fix>
</trkpt>
<trkpt lat="33.8101848" lon="-118.3940338">
  <ele>-0.1</ele>
  <time>2026-09-02T22:07:24Z</time>
  <course>47.36</course>
  <speed>0.73</speed>
  <fix>3d</fix>
</trkpt>
<trkpt lat="33.8101856" lon="-118.3940322">
  <ele>-0.108</ele>
  <time>2026-09-02T22:07:24Z</time>
  <course>10.56</course>
  <speed>0.7234638899074369</speed>
  <fix>3d</fix>
</trkpt>
<trkpt lat="33.8101857" lon="-118.3940321">
  <ele>-0.107</ele>
  <time>2026-09-02T22:07:24Z</time>
  <course>10.56</course>
  <speed>0.7234638899074369</speed>
  <fix>3d</fix>
</trkpt>
<trkpt lat="33.8101858" lon="-118.3940321">
  <ele>-0.107</ele>
  <time>2026-09-02T22:07:24Z</time>
  <course>10.56</course>
  <speed>0.7234638899074369</speed>
  <fix>3d</fix>
</trkpt>
<trkpt lat="33.8101858" lon="-118.394032">
  <ele>-0.107</ele>
  <time>2026-09-02T22:07:24Z</time>
  <course>10.56</course>
  <speed>0.7234638899074369</speed>
  <fix>3d</fix>
</trkpt>
<trkpt lat="33.8101858" lon="-118.394032">
  <ele>-0.107</ele>
  <time>2026-09-02T22:07:24Z</time>
  <course>10.56</course>
  <speed>0.7234638899074369</speed>
  <fix>3d</fix>
</trkpt>
<trkpt lat="33.8101859" lon="-118.3940319">
  <ele>-0.107</ele>
  <time>2026-09-02T22:07:24Z</time>
  <course>10.56</course>
  <speed>0.7234638899074369</speed>
  <fix>3d</fix>
</trkpt>
<trkpt lat="33.8101859" lon="-118.3940319">
  <ele>-0.107</ele>
  <time>2026-09-02T22:07:24Z</time>
  <course>10.56</course>
  <speed>0.7234638899074369</speed>
  <fix>3d</fix>
</trkpt>
<trkpt lat="33.810186" lon="-118.3940318">
  <ele>-0.107</ele>
  <time>2026-09-02T22:07:24Z</time>
  <course>10.56</course>
  <speed>0.7234638899074369</speed>
  <fix>3d</fix>
</trkpt>
<trkpt lat="33.810186" lon="-118.3940318">
  <ele>-0.107</ele>
  <time>2026-09-02T22:07:24Z</time>
  <course>10.56</course>
  <speed>0.7234638899074369</speed>
  <fix>3d</fix>
</trkpt>
<trkpt lat="33.810186" lon="-118.3940317">
  <ele>-0.107</ele>
  <time>2026-09-02T22:07:24Z</time>
  <course>10.56</course>
  <speed>0.7234638899074369</speed>
  <fix>3d</fix>
</trkpt>
<trkpt lat="33.8101861" lon="-118.3940317">
  <ele>-0.107</ele>
  <time>2026-09-02T22:07:24Z</time>
  <course>10.56</course>
  <speed>0.7234638899074369</speed>
  <fix>3d</fix>
</trkpt>
<trkpt lat="33.8101861" lon="-118.3940317">
  <ele>-0.107</ele>
  <time>2026-09-02T22:07:24Z</time>
  <course>10.56</course>
  <speed>0.7234638899074369</speed>
  <fix>3d</fix>
</trkpt>
<trkpt lat="33.8101857" lon="-118.3940327">
  <ele>-0.1</ele>
  <time>2026-09-02T22:07:24Z</time>
  <course>47.37</course>
  <speed>0.73</speed>
  <fix>3d</fix>
</trkpt>
<trkpt lat="33.8101861" lon="-118.3940316">
  <ele>-0.107</ele>
  <time>2026-09-02T22:07:24Z</time>
  <course>10.56</course>
  <speed>0.7234638899074369</speed>
  <fix>3d</fix>
</trkpt>
<trkpt lat="33.8101861" lon="-118.3940316">
  <ele>-0.107</ele>
  <time>2026-09-02T22:07:24Z</time>
  <course>10.56</course>
  <speed>0.7234638899074369</speed>
  <fix>3d</fix>
</trkpt>
<trkpt lat="33.8101862" lon="-118.3940315">
  <ele>-0.107</ele>
  <time>2026-09-02T22:07:24Z</time>
  <course>10.56</course>
  <speed>0.7234638899074369</speed>
  <fix>3d</fix>
</trkpt>
<trkpt lat="33.8101862" lon="-118.3940315">
  <ele>-0.107</ele>
  <time>2026-09-02T22:07:24Z</time>
  <course>10.57</course>
  <speed>0.7234638899074369</speed>
  <fix>3d</fix>
</trkpt>
<trkpt lat="33.8101863" lon="-118.3940314">
  <ele>-0.107</ele>
  <time>2026-09-02T22:07:24Z</time>
  <course>10.57</course>
  <speed>0.7234638899074369</speed>
  <fix>3d</fix>
</trkpt>
<trkpt lat="33.8101863" lon="-118.3940314">
  <ele>-0.107</ele>
  <time>2026-09-02T22:07:24Z</time>
  <course>10.57</course>
  <speed>0.7234638899074369</speed>
  <fix>3d</fix>
</trkpt>
<trkpt lat="33.8101863" lon="-118.3940313">
  <ele>-0.107</ele>
  <time>2026-09-02T22:07:24Z</time>
  <course>10.57</course>
  <speed>0.7234638899074369</speed>
  <fix>3d</fix>
</trkpt>
<trkpt lat="33.8101864" lon="-118.3940313">
  <ele>-0.107</ele>
  <time>2026-09-02T22:07:24Z</time>
  <course>10.57</course>
  <speed>0.7234638899074369</speed>
  <fix>3d</fix>
</trkpt>
<trkpt lat="33.8101864" lon="-118.3940312">
  <ele>-0.107</ele>
  <time>2026-09-02T22:07:24Z</time>
  <course>10.57</course>
  <speed>0.7234638899074369</speed>
  <fix>3d</fix>
</trkpt>
<trkpt lat="33.8101864" lon="-118.3940312">
  <ele>-0.107</ele>
  <time>2026-09-02T22:07:24Z</time>
  <course>10.57</course>
  <speed>0.7234638899074369</speed>
  <fix>3d</fix>
</trkpt>
<trkpt lat="33.8101865" lon="-118.3940311">
  <ele>-0.107</ele>
  <time>2026-09-02T22:07:24Z</time>
  <course>10.57</course>
  <speed>0.7234638899074369</speed>
  <fix>3d</fix>
</trkpt>
<trkpt lat="33.8101865" lon="-118.3940311">
  <ele>-0.107</ele>
  <time>2026-09-02T22:07:24Z</time>
  <course>10.57</course>
  <speed>0.7234638899074369</speed>
  <fix>3d</fix>
</trkpt>
<trkpt lat="33.8101865" lon="-118.3940311">
  <ele>-0.107</ele>
  <time>2026-09-02T22:07:24Z</time>
  <course>10.57</course>
  <speed>0.7234638899074369</speed>
  <fix>3d</fix>
</trkpt>
<trkpt lat="33.8101857" lon="-118.3940327">
  <ele>-0.1</ele>
  <time>2026-09-02T22:07:24Z</time>
  <course>47.37</course>
  <speed>0.73</speed>
  <fix>3d</fix>
</trkpt>
<trkpt lat="33.8101866" lon="-118.394031">
  <ele>-0.108</ele>
  <time>2026-09-02T22:07:24Z</time>
  <course>10.57</course>
  <speed>0.7234638899074369</speed>
  <fix>3d</fix>
</trkpt>
<trkpt lat="33.8101866" lon="-118.3940309">
  <ele>-0.108</ele>
  <time>2026-09-02T22:07:24Z</time>
  <course>10.57</course>
  <speed>0.7234638899074369</speed>
  <fix>3d</fix>
</trkpt>
<trkpt lat="33.8101867" lon="-118.3940309">
  <ele>-0.108</ele>
  <time>2026-09-02T22:07:24Z</time>
  <course>10.57</course>
  <speed>0.7234638899074369</speed>
  <fix>3d</fix>
</trkpt>
<trkpt lat="33.8101867" lon="-118.3940308">
  <ele>-0.108</ele>
  <time>2026-09-02T22:07:24Z</time>
  <course>10.57</course>
  <speed>0.7234638899074369</speed>
  <fix>3d</fix>
</trkpt>
<trkpt lat="33.8101867" lon="-118.3940308">
  <ele>-0.108</ele>
  <time>2026-09-02T22:07:24Z</time>
  <course>10.57</course>
  <speed>0.7234638899074369</speed>
  <fix>3d</fix>
</trkpt>
<trkpt lat="33.8101868" lon="-118.3940307">
  <ele>-0.108</ele>
  <time>2026-09-02T22:07:24Z</time>
  <course>10.57</course>
  <speed>0.7234638899074369</speed>
  <fix>3d</fix>
</trkpt>
<trkpt lat="33.8101868" lon="-118.3940307">
  <ele>-0.108</ele>
  <time>2026-09-02T22:07:24Z</time>
  <course>10.57</course>
  <speed>0.7234638899074369</speed>
  <fix>3d</fix>
</trkpt>
<trkpt lat="33.8101869" lon="-118.3940306">
  <ele>-0.108</ele>
  <time>2026-09-02T22:07:24Z</time>
  <course>10.58</course>
  <speed>0.7234638899074369</speed>
  <fix>3d</fix>
</trkpt>
<trkpt lat="33.8101869" lon="-118.3940306">
  <ele>-0.108</ele>
  <time>2026-09-02T22:07:24Z</time>
  <course>10.58</course>
  <speed>0.7234638899074369</speed>
  <fix>3d</fix>
</trkpt>
<trkpt lat="33.810187" lon="-118.3940305">
  <ele>-0.108</ele>
  <time>2026-09-02T22:07:24Z</time>
  <course>10.58</course>
  <speed>0.7234638899074369</speed>
  <fix>3d</fix>
</trkpt>
<trkpt lat="33.810187" lon="-118.3940305">
  <ele>-0.108</ele>
  <time>2026-09-02T22:07:24Z</time>
  <course>10.58</course>
  <speed>0.7234638899074369</speed>
  <fix>3d</fix>
</trkpt>
<trkpt lat="33.8101866" lon="-118.3940315">
  <ele>-0.11</ele>
  <time>2026-09-02T22:07:24Z</time>
  <course>47.38</course>
  <speed>0.73</speed>
  <fix>3d</fix>
</trkpt>
<trkpt lat="33.810187" lon="-118.3940305">
  <ele>-0.108</ele>
  <time>2026-09-02T22:07:24Z</time>
  <course>10.58</course>
  <speed>0.7234638899074369</speed>
  <fix>3d</fix>
</trkpt>
<trkpt lat="33.810187" lon="-118.3940304">
  <ele>-0.108</ele>
  <time>2026-09-02T22:07:24Z</time>
  <course>10.58</course>
  <speed>0.7234638899074369</speed>
  <fix>3d</fix>
</trkpt>
<trkpt lat="33.8101871" lon="-118.3940303">
  <ele>-0.108</ele>
  <time>2026-09-02T22:07:24Z</time>
  <course>10.58</course>
  <speed>0.7234638899074369</speed>
  <fix>3d</fix>
</trkpt>
<trkpt lat="33.8101871" lon="-118.3940303">
  <ele>-0.108</ele>
  <time>2026-09-02T22:07:24Z</time>
  <course>10.58</course>
  <speed>0.7234638899074369</speed>
  <fix>3d</fix>
</trkpt>
<trkpt lat="33.8101872" lon="-118.3940302">
  <ele>-0.108</ele>
  <time>2026-09-02T22:07:24Z</time>
  <course>10.58</course>
  <speed>0.7234638899074369</speed>
  <fix>3d</fix>
</trkpt>
<trkpt lat="33.8101872" lon="-118.3940302">
  <ele>-0.108</ele>
  <time>2026-09-02T22:07:24Z</time>
  <course>10.58</course>
  <speed>0.7234638899074369</speed>
  <fix>3d</fix>
</trkpt>
<trkpt lat="33.8101872" lon="-118.3940301">
  <ele>-0.108</ele>
  <time>2026-09-02T22:07:24Z</time>
  <course>10.58</course>
  <speed>0.7234638899074369</speed>
  <fix>3d</fix>
</trkpt>
<trkpt lat="33.8101873" lon="-118.3940301">
  <ele>-0.108</ele>
  <time>2026-09-02T22:07:24Z</time>
  <course>10.58</course>
  <speed>0.7234638899074369</speed>
  <fix>3d</fix>
</trkpt>
<trkpt lat="33.8101873" lon="-118.39403">
  <ele>-0.108</ele>
  <time>2026-09-02T22:07:24Z</time>
  <course>10.58</course>
  <speed>0.7234638899074369</speed>
  <fix>3d</fix>
</trkpt>
<trkpt lat="33.8101874" lon="-118.39403">
  <ele>-0.108</ele>
  <time>2026-09-02T22:07:24Z</time>
  <course>10.58</course>
  <speed>0.7234638899074369</speed>
  <fix>3d</fix>
</trkpt>
<trkpt lat="33.8101874" lon="-118.3940299">
  <ele>-0.108</ele>
  <time>2026-09-02T22:07:24Z</time>
  <course>10.58</course>
  <speed>0.7234638899074369</speed>
  <fix>3d</fix>
</trkpt>
<trkpt lat="33.8101874" lon="-118.3940299">
  <ele>-0.108</ele>
  <time>2026-09-02T22:07:24Z</time>
  <course>10.58</course>
  <speed>0.7234638899074369</speed>
  <fix>3d</fix>
</trkpt>
<trkpt lat="33.8101866" lon="-118.3940315">
  <ele>-0.11</ele>
  <time>2026-09-02T22:07:24Z</time>
  <course>47.38</course>
  <speed>0.73</speed>
  <fix>3d</fix>
</trkpt>
<trkpt lat="33.8101874" lon="-118.3940299">
  <ele>-0.108</ele>
  <time>2026-09-02T22:07:24Z</time>
  <course>10.58</course>
  <speed>0.7234638899074369</speed>
  <fix>3d</fix>
</trkpt>
<trkpt lat="33.8101875" lon="-118.3940297">
  <ele>-0.108</ele>
  <time>2026-09-02T22:07:24Z</time>
  <course>10.59</course>
  <speed>0.7234638899074369</speed>
  <fix>3d</fix>
</trkpt>
<trkpt lat="33.8101876" lon="-118.3940297">
  <ele>-0.107</ele>
  <time>2026-09-02T22:07:24Z</time>
  <course>10.59</course>
  <speed>0.7234638899074369</speed>
  <fix>3d</fix>
</trkpt>
<trkpt lat="33.8101876" lon="-118.3940296">
  <ele>-0.107</ele>
  <time>2026-09-02T22:07:24Z</time>
  <course>10.59</course>
  <speed>0.7234638899074369</speed>
  <fix>3d</fix>
</trkpt>
<trkpt lat="33.8101877" lon="-118.3940296">
  <ele>-0.107</ele>
  <time>2026-09-02T22:07:24Z</time>
  <course>10.59</course>
  <speed>0.7234638899074369</speed>
  <fix>3d</fix>
</trkpt>
<trkpt lat="33.8101877" lon="-118.3940295">
  <ele>-0.107</ele>
  <time>2026-09-02T22:07:24Z</time>
  <course>10.59</course>
  <speed>0.7234638899074369</speed>
  <fix>3d</fix>
</trkpt>
<trkpt lat="33.8101878" lon="-118.3940295">
  <ele>-0.107</ele>
  <time>2026-09-02T22:07:24Z</time>
  <course>10.59</course>
  <speed>0.7234638899074369</speed>
  <fix>3d</fix>
</trkpt>
<trkpt lat="33.8101878" lon="-118.3940294">
  <ele>-0.107</ele>
  <time>2026-09-02T22:07:24Z</time>
  <course>10.59</course>
  <speed>0.7234638899074369</speed>
  <fix>3d</fix>
</trkpt>
<trkpt lat="33.8101879" lon="-118.3940293">
  <ele>-0.107</ele>
  <time>2026-09-02T22:07:24Z</time>
  <course>10.59</course>
  <speed>0.7234638899074369</speed>
  <fix>3d</fix>
</trkpt>
<trkpt lat="33.8101879" lon="-118.3940293">
  <ele>-0.107</ele>
  <time>2026-09-02T22:07:24Z</time>
  <course>10.59</course>
  <speed>0.7234638899074369</speed>
  <fix>3d</fix>
</trkpt>
<trkpt lat="33.8101875" lon="-118.3940304">
  <ele>-0.1</ele>
  <time>2026-09-02T22:07:24Z</time>
  <course>47.4</course>
  <speed>0.73</speed>
  <fix>3d</fix>
</trkpt>
<trkpt lat="33.8101879" lon="-118.3940293">
  <ele>-0.107</ele>
  <time>2026-09-02T22:07:24Z</time>
  <course>10.59</course>
  <speed>0.7234638899074369</speed>
  <fix>3d</fix>
</trkpt>
<trkpt lat="33.810188" lon="-118.3940292">
  <ele>-0.107</ele>
  <time>2026-09-02T22:07:24Z</time>
  <course>10.59</course>
  <speed>0.7234638899074369</speed>
  <fix>3d</fix>
</trkpt>
<trkpt lat="33.810188" lon="-118.3940291">
  <ele>-0.106</ele>
  <time>2026-09-02T22:07:24Z</time>
  <course>10.59</course>
  <speed>0.7234638899074369</speed>
  <fix>3d</fix>
</trkpt>
<trkpt lat="33.8101881" lon="-118.3940291">
  <ele>-0.106</ele>
  <time>2026-09-02T22:07:24Z</time>
  <course>10.59</course>
  <speed>0.7234638899074369</speed>
  <fix>3d</fix>
</trkpt>
<trkpt lat="33.8101881" lon="-118.394029">
  <ele>-0.106</ele>
  <time>2026-09-02T22:07:24Z</time>
  <course>10.59</course>
  <speed>0.7234638899074369</speed>
  <fix>3d</fix>
</trkpt>
<trkpt lat="33.8101881" lon="-118.394029">
  <ele>-0.106</ele>
  <time>2026-09-02T22:07:24Z</time>
  <course>10.6</course>
  <speed>0.7234638899074369</speed>
  <fix>3d</fix>
</trkpt>
<trkpt lat="33.8101882" lon="-118.3940289">
  <ele>-0.106</ele>
  <time>2026-09-02T22:07:24Z</time>
  <course>10.6</course>
  <speed>0.7234638899074369</speed>
  <fix>3d</fix>
</trkpt>
<trkpt lat="33.8101882" lon="-118.3940289">
  <ele>-0.106</ele>
  <time>2026-09-02T22:07:24Z</time>
  <course>10.6</course>
  <speed>0.7234638899074369</speed>
  <fix>3d</fix>
</trkpt>
<trkpt lat="33.8101883" lon="-118.3940288">
  <ele>-0.106</ele>
  <time>2026-09-02T22:07:24Z</time>
  <course>10.6</course>
  <speed>0.7234638899074369</speed>
  <fix>3d</fix>
</trkpt>
<trkpt lat="33.8101883" lon="-118.3940288">
  <ele>-0.106</ele>
  <time>2026-09-02T22:07:24Z</time>
  <course>10.6</course>
  <speed>0.7234638899074369</speed>
  <fix>3d</fix>
</trkpt>
<trkpt lat="33.8101883" lon="-118.3940287">
  <ele>-0.106</ele>
  <time>2026-09-02T22:07:24Z</time>
  <course>10.6</course>
  <speed>0.7234638899074369</speed>
  <fix>3d</fix>
</trkpt>
<trkpt lat="33.8101875" lon="-118.3940304">
  <ele>-0.1</ele>
  <time>2026-09-02T22:07:24Z</time>
  <course>47.4</course>
  <speed>0.73</speed>
  <fix>3d</fix>
</trkpt>
<trkpt lat="33.8101883" lon="-118.3940287">
  <ele>-0.106</ele>
  <time>2026-09-02T22:07:24Z</time>
  <course>10.6</course>
  <speed>0.7234638899074369</speed>
  <fix>3d</fix>
</trkpt>
<trkpt lat="33.8101884" lon="-118.3940286">
  <ele>-0.106</ele>
  <time>2026-09-02T22:07:24Z</time>
  <course>10.6</course>
  <speed>0.7234638899074369</speed>
  <fix>3d</fix>
</trkpt>
<trkpt lat="33.8101884" lon="-118.3940286">
  <ele>-0.106</ele>
  <time>2026-09-02T22:07:24Z</time>
  <course>10.6</course>
  <speed>0.7234638899074369</speed>
  <fix>3d</fix>
</trkpt>
<trkpt lat="33.8101885" lon="-118.3940285">
  <ele>-0.106</ele>
  <time>2026-09-02T22:07:24Z</time>
  <course>10.6</course>
  <speed>0.7234638899074369</speed>
  <fix>3d</fix>
</trkpt>
<trkpt lat="33.8101885" lon="-118.3940285">
  <ele>-0.106</ele>
  <time>2026-09-02T22:07:24Z</time>
  <course>10.6</course>
  <speed>0.7234638899074369</speed>
  <fix>3d</fix>
</trkpt>
<trkpt lat="33.8101885" lon="-118.3940284">
  <ele>-0.106</ele>
  <time>2026-09-02T22:07:24Z</time>
  <course>10.6</course>
  <speed>0.7234638899074369</speed>
  <fix>3d</fix>
</trkpt>
<trkpt lat="33.8101886" lon="-118.3940284">
  <ele>-0.106</ele>
  <time>2026-09-02T22:07:24Z</time>
  <course>10.6</course>
  <speed>0.7234638899074369</speed>
  <fix>3d</fix>
</trkpt>
<trkpt lat="33.8101886" lon="-118.3940284">
  <ele>-0.106</ele>
  <time>2026-09-02T22:07:24Z</time>
  <course>10.6</course>
  <speed>0.7234638899074369</speed>
  <fix>3d</fix>
</trkpt>
<trkpt lat="33.8101887" lon="-118.3940283">
  <ele>-0.106</ele>
  <time>2026-09-02T22:07:24Z</time>
  <course>10.6</course>
  <speed>0.7234638899074369</speed>
  <fix>3d</fix>
</trkpt>
<trkpt lat="33.8101887" lon="-118.3940283">
  <ele>-0.106</ele>
  <time>2026-09-02T22:07:24Z</time>
  <course>10.6</course>
  <speed>0.7234638899074369</speed>
  <fix>3d</fix>
</trkpt>
<trkpt lat="33.8101887" lon="-118.3940282">
  <ele>-0.106</ele>
  <time>2026-09-02T22:07:24Z</time>
  <course>10.6</course>
  <speed>0.7234638899074369</speed>
  <fix>3d</fix>
</trkpt>
<trkpt lat="33.8101888" lon="-118.3940282">
  <ele>-0.105</ele>
  <time>2026-09-02T22:07:24Z</time>
  <course>10.61</course>
  <speed>0.7234638899074369</speed>
  <fix>3d</fix>
</trkpt>
<trkpt lat="33.8101888" lon="-118.3940282">
  <ele>-0.105</ele>
  <time>2026-09-02T22:07:24Z</time>
  <course>10.61</course>
  <speed>0.7234638899074369</speed>
  <fix>3d</fix>
</trkpt>
<trkpt lat="33.8101883" lon="-118.3940292">
  <ele>-0.1</ele>
  <time>2026-09-02T22:07:24Z</time>
  <course>47.41</course>
  <speed>0.73</speed>
  <fix>3d</fix>
</trkpt>
<trkpt lat="33.8101888" lon="-118.3940281">
  <ele>-0.105</ele>
  <time>2026-09-02T22:07:24Z</time>
  <course>10.61</course>
  <speed>0.7234638899074369</speed>
  <fix>3d</fix>
</trkpt>
<trkpt lat="33.8101889" lon="-118.3940281">
  <ele>-0.105</ele>
  <time>2026-09-02T22:07:24Z</time>
  <course>10.61</course>
  <speed>0.7234638899074369</speed>
  <fix>3d</fix>
</trkpt>
<trkpt lat="33.8101889" lon="-118.394028">
  <ele>-0.105</ele>
  <time>2026-09-02T22:07:24Z</time>
  <course>10.61</course>
  <speed>0.7234638899074369</speed>
  <fix>3d</fix>
</trkpt>
<trkpt lat="33.8101889" lon="-118.3940279">
  <ele>-0.105</ele>
  <time>2026-09-02T22:07:24Z</time>
  <course>10.61</course>
  <speed>0.7234638899074369</speed>
  <fix>3d</fix>
</trkpt>
<trkpt lat="33.810189" lon="-118.3940279">
  <ele>-0.105</ele>
  <time>2026-09-02T22:07:24Z</time>
  <course>10.61</course>
  <speed>0.7234638899074369</speed>
  <fix>3d</fix>
</trkpt>
<trkpt lat="33.810189" lon="-118.3940279">
  <ele>-0.105</ele>
  <time>2026-09-02T22:07:24Z</time>
  <course>10.61</course>
  <speed>0.7234638899074369</speed>
  <fix>3d</fix>
</trkpt>
<trkpt lat="33.8101891" lon="-118.3940278">
  <ele>-0.105</ele>
  <time>2026-09-02T22:07:24Z</time>
  <course>10.61</course>
  <speed>0.7234638899074369</speed>
  <fix>3d</fix>
</trkpt>
<trkpt lat="33.8101891" lon="-118.3940277">
  <ele>-0.105</ele>
  <time>2026-09-02T22:07:24Z</time>
  <course>10.61</course>
  <speed>0.7234638899074369</speed>
  <fix>3d</fix>
</trkpt>
<trkpt lat="33.8101891" lon="-118.3940277">
  <ele>-0.105</ele>
  <time>2026-09-02T22:07:24Z</time>
  <course>10.61</course>
  <speed>0.7234638899074369</speed>
  <fix>3d</fix>
</trkpt>
<trkpt lat="33.8101892" lon="-118.3940276">
  <ele>-0.105</ele>
  <time>2026-09-02T22:07:24Z</time>
  <course>10.61</course>
  <speed>0.7234638899074369</speed>
  <fix>3d</fix>
</trkpt>
<trkpt lat="33.8101892" lon="-118.3940276">
  <ele>-0.105</ele>
  <time>2026-09-02T22:07:24Z</time>
  <course>10.61</course>
  <speed>0.7234638899074369</speed>
  <fix>3d</fix>
</trkpt>
<trkpt lat="33.8101892" lon="-118.3940276">
  <ele>-0.105</ele>
  <time>2026-09-02T22:07:24Z</time>
  <course>10.61</course>
  <speed>0.7234638899074369</speed>
  <fix>3d</fix>
</trkpt>
<trkpt lat="33.8101883" lon="-118.3940292">
  <ele>-0.1</ele>
  <time>2026-09-02T22:07:24Z</time>
  <course>47.41</course>
  <speed>0.73</speed>
  <fix>3d</fix>
</trkpt>
<trkpt lat="33.8101892" lon="-118.3940276">
  <ele>-0.105</ele>
  <time>2026-09-02T22:07:24Z</time>
  <course>10.61</course>
  <speed>0.7234638899074369</speed>
  <fix>3d</fix>
</trkpt>
<trkpt lat="33.8101893" lon="-118.3940275">
  <ele>-0.105</ele>
  <time>2026-09-02T22:07:24Z</time>
  <course>10.61</course>
  <speed>0.7234638899074369</speed>
  <fix>3d</fix>
</trkpt>
<trkpt lat="33.8101893" lon="-118.3940274">
  <ele>-0.105</ele>
  <time>2026-09-02T22:07:24Z</time>
  <course>10.61</course>
  <speed>0.7234638899074369</speed>
  <fix>3d</fix>
</trkpt>
<trkpt lat="33.8101894" lon="-118.3940274">
  <ele>-0.105</ele>
  <time>2026-09-02T22:07:24Z</time>
  <course>10.62</course>
  <speed>0.7234638899074369</speed>
  <fix>3d</fix>
</trkpt>
<trkpt lat="33.8101894" lon="-118.3940273">
  <ele>-0.105</ele>
  <time>2026-09-02T22:07:24Z</time>
  <course>10.62</course>
  <speed>0.7234638899074369</speed>
  <fix>3d</fix>
</trkpt>
<trkpt lat="33.8101895" lon="-118.3940273">
  <ele>-0.105</ele>
  <time>2026-09-02T22:07:24Z</time>
  <course>10.62</course>
  <speed>0.7234638899074369</speed>
  <fix>3d</fix>
</trkpt>
<trkpt lat="33.8101895" lon="-118.3940272">
  <ele>-0.105</ele>
  <time>2026-09-02T22:07:24Z</time>
  <course>10.62</course>
  <speed>0.7234638899074369</speed>
  <fix>3d</fix>
</trkpt>
<trkpt lat="33.8101895" lon="-118.3940272">
  <ele>-0.105</ele>
  <time>2026-09-02T22:07:24Z</time>
  <course>10.62</course>
  <speed>0.7234638899074369</speed>
  <fix>3d</fix>
</trkpt>
<trkpt lat="33.8101896" lon="-118.3940271">
  <ele>-0.105</ele>
  <time>2026-09-02T22:07:24Z</time>
  <course>10.62</course>
  <speed>0.7234638899074369</speed>
  <fix>3d</fix>
</trkpt>
<trkpt lat="33.8101896" lon="-118.3940271">
  <ele>-0.105</ele>
  <time>2026-09-02T22:07:24Z</time>
  <course>10.62</course>
  <speed>0.7234638899074369</speed>
  <fix>3d</fix>
</trkpt>
<trkpt lat="33.8101896" lon="-118.394027">
  <ele>-0.105</ele>
  <time>2026-09-02T22:07:24Z</time>
  <course>10.62</course>
  <speed>0.7234638899074369</speed>
  <fix>3d</fix>
</trkpt>
<trkpt lat="33.8101897" lon="-118.394027">
  <ele>-0.105</ele>
  <time>2026-09-02T22:07:24Z</time>
  <course>10.62</course>
  <speed>0.7234638899074369</speed>
  <fix>3d</fix>
</trkpt>
<trkpt lat="33.8101892" lon="-118.394028">
  <ele>-0.1</ele>
  <time>2026-09-02T22:07:24Z</time>
  <course>47.43</course>
  <speed>0.73</speed>
  <fix>3d</fix>
</trkpt>
<trkpt lat="33.8101897" lon="-118.394027">
  <ele>-0.105</ele>
  <time>2026-09-02T22:07:24Z</time>
  <course>10.62</course>
  <speed>0.7234638899074369</speed>
  <fix>3d</fix>
</trkpt>
<trkpt lat="33.8101897" lon="-118.3940269">
  <ele>-0.106</ele>
  <time>2026-09-02T22:07:24Z</time>
  <course>10.62</course>
  <speed>0.7234638899074369</speed>
  <fix>3d</fix>
</trkpt>
<trkpt lat="33.8101898" lon="-118.3940269">
  <ele>-0.106</ele>
  <time>2026-09-02T22:07:24Z</time>
  <course>10.62</course>
  <speed>0.7234638899074369</speed>
  <fix>3d</fix>
</trkpt>
<trkpt lat="33.8101898" lon="-118.3940268">
  <ele>-0.106</ele>
  <time>2026-09-02T22:07:24Z</time>
  <course>10.62</course>
  <speed>0.7234638899074369</speed>
  <fix>3d</fix>
</trkpt>
<trkpt lat="33.8101898" lon="-118.3940268">
  <ele>-0.106</ele>
  <time>2026-09-02T22:07:24Z</time>
  <course>10.62</course>
  <speed>0.7234638899074369</speed>
  <fix>3d</fix>
</trkpt>
<trkpt lat="33.8101899" lon="-118.3940267">
  <ele>-0.106</ele>
  <time>2026-09-02T22:07:24Z</time>
  <course>10.62</course>
  <speed>0.7234638899074369</speed>
  <fix>3d</fix>
</trkpt>
<trkpt lat="33.8101899" lon="-118.3940267">
  <ele>-0.106</ele>
  <time>2026-09-02T22:07:24Z</time>
  <course>10.62</course>
  <speed>0.7234638899074369</speed>
  <fix>3d</fix>
</trkpt>
<trkpt lat="33.81019" lon="-118.3940266">
  <ele>-0.106</ele>
  <time>2026-09-02T22:07:24Z</time>
  <course>10.62</course>
  <speed>0.7234638899074369</speed>
  <fix>3d</fix>
</trkpt>
<trkpt lat="33.81019" lon="-118.3940266">
  <ele>-0.106</ele>
  <time>2026-09-02T22:07:24Z</time>
  <course>10.63</course>
  <speed>0.7234638899074369</speed>
  <fix>3d</fix>
</trkpt>
<trkpt lat="33.81019" lon="-118.3940265">
  <ele>-0.106</ele>
  <time>2026-09-02T22:07:24Z</time>
  <course>10.63</course>
  <speed>0.7234638899074369</speed>
  <fix>3d</fix>
</trkpt>
<trkpt lat="33.8101901" lon="-118.3940264">
  <ele>-0.106</ele>
  <time>2026-09-02T22:07:24Z</time>
  <course>10.63</course>
  <speed>0.7234638899074369</speed>
  <fix>3d</fix>
</trkpt>
<trkpt lat="33.8101901" lon="-118.3940264">
  <ele>-0.106</ele>
  <time>2026-09-02T22:07:24Z</time>
  <course>10.63</course>
  <speed>0.7234638899074369</speed>
  <fix>3d</fix>
</trkpt>
<trkpt lat="33.8101892" lon="-118.394028">
  <ele>-0.1</ele>
  <time>2026-09-02T22:07:24Z</time>
  <course>47.43</course>
  <speed>0.73</speed>
  <fix>3d</fix>
</trkpt>
<trkpt lat="33.8101901" lon="-118.3940264">
  <ele>-0.106</ele>
  <time>2026-09-02T22:07:24Z</time>
  <course>10.63</course>
  <speed>0.7234638899074369</speed>
  <fix>3d</fix>
</trkpt>
<trkpt lat="33.8101902" lon="-118.3940263">
  <ele>-0.106</ele>
  <time>2026-09-02T22:07:24Z</time>
  <course>10.63</course>
  <speed>0.7234638899074369</speed>
  <fix>3d</fix>
</trkpt>
<trkpt lat="33.8101902" lon="-118.3940262">
  <ele>-0.106</ele>
  <time>2026-09-02T22:07:24Z</time>
  <course>10.63</course>
  <speed>0.7234638899074369</speed>
  <fix>3d</fix>
</trkpt>
<trkpt lat="33.8101903" lon="-118.3940262">
  <ele>-0.106</ele>
  <time>2026-09-02T22:07:24Z</time>
  <course>10.63</course>
  <speed>0.7234638899074369</speed>
  <fix>3d</fix>
</trkpt>
<trkpt lat="33.8101903" lon="-118.3940261">
  <ele>-0.106</ele>
  <time>2026-09-02T22:07:24Z</time>
  <course>10.63</course>
  <speed>0.7234638899074369</speed>
  <fix>3d</fix>
</trkpt>
<trkpt lat="33.8101903" lon="-118.3940261">
  <ele>-0.106</ele>
  <time>2026-09-02T22:07:24Z</time>
  <course>10.63</course>
  <speed>0.7234638899074369</speed>
  <fix>3d</fix>
</trkpt>
<trkpt lat="33.8101904" lon="-118.394026">
  <ele>-0.106</ele>
  <time>2026-09-02T22:07:24Z</time>
  <course>10.63</course>
  <speed>0.7234638899074369</speed>
  <fix>3d</fix>
</trkpt>
<trkpt lat="33.8101904" lon="-118.394026">
  <ele>-0.106</ele>
  <time>2026-09-02T22:07:24Z</time>
  <course>10.63</course>
  <speed>0.7234638899074369</speed>
  <fix>3d</fix>
</trkpt>
<trkpt lat="33.8101905" lon="-118.3940259">
  <ele>-0.106</ele>
  <time>2026-09-02T22:07:24Z</time>
  <course>10.63</course>
  <speed>0.7234638899074369</speed>
  <fix>3d</fix>
</trkpt>
<trkpt lat="33.8101905" lon="-118.3940259">
  <ele>-0.106</ele>
  <time>2026-09-02T22:07:24Z</time>
  <course>10.63</course>
  <speed>0.7234638899074369</speed>
  <fix>3d</fix>
</trkpt>
<trkpt lat="33.8101906" lon="-118.3940258">
  <ele>-0.106</ele>
  <time>2026-09-02T22:07:24Z</time>
  <course>10.63</course>
  <speed>0.7234638899074369</speed>
  <fix>3d</fix>
</trkpt>
<trkpt lat="33.8101906" lon="-118.3940258">
  <ele>-0.106</ele>
  <time>2026-09-02T22:07:24Z</time>
  <course>10.63</course>
  <speed>0.7234638899074369</speed>
  <fix>3d</fix>
</trkpt>
<trkpt lat="33.8101901" lon="-118.3940268">
  <ele>-0.1</ele>
  <time>2026-09-02T22:07:24Z</time>
  <course>47.44</course>
  <speed>0.73</speed>
  <fix>3d</fix>
</trkpt>
<trkpt lat="33.8101906" lon="-118.3940257">
  <ele>-0.106</ele>
  <time>2026-09-02T22:07:24Z</time>
  <course>10.63</course>
  <speed>0.7234638899074369</speed>
  <fix>3d</fix>
</trkpt>
<trkpt lat="33.8101907" lon="-118.3940257">
  <ele>-0.106</ele>
  <time>2026-09-02T22:07:24Z</time>
  <course>10.64</course>
  <speed>0.7234638899074369</speed>
  <fix>3d</fix>
</trkpt>
<trkpt lat="33.8101907" lon="-118.3940256">
  <ele>-0.106</ele>
  <time>2026-09-02T22:07:24Z</time>
  <course>10.64</course>
  <speed>0.7234638899074369</speed>
  <fix>3d</fix>
</trkpt>
<trkpt lat="33.8101907" lon="-118.3940256">
  <ele>-0.106</ele>
  <time>2026-09-02T22:07:24Z</time>
  <course>10.64</course>
  <speed>0.7234638899074369</speed>
  <fix>3d</fix>
</trkpt>
<trkpt lat="33.8101908" lon="-118.3940255">
  <ele>-0.106</ele>
  <time>2026-09-02T22:07:24Z</time>
  <course>10.64</course>
  <speed>0.7234638899074369</speed>
  <fix>3d</fix>
</trkpt>
<trkpt lat="33.8101908" lon="-118.3940255">
  <ele>-0.106</ele>
  <time>2026-09-02T22:07:24Z</time>
  <course>10.64</course>
  <speed>0.7234638899074369</speed>
  <fix>3d</fix>
</trkpt>
<trkpt lat="33.8101908" lon="-118.3940254">
  <ele>-0.106</ele>
  <time>2026-09-02T22:07:24Z</time>
  <course>10.64</course>
  <speed>0.7234638899074369</speed>
  <fix>3d</fix>
</trkpt>
<trkpt lat="33.8101909" lon="-118.3940254">
  <ele>-0.106</ele>
  <time>2026-09-02T22:07:24Z</time>
  <course>10.64</course>
  <speed>0.7234638899074369</speed>
  <fix>3d</fix>
</trkpt>
<trkpt lat="33.8101909" lon="-118.3940253">
  <ele>-0.106</ele>
  <time>2026-09-02T22:07:24Z</time>
  <course>10.64</course>
  <speed>0.7234638899074369</speed>
  <fix>3d</fix>
</trkpt>
<trkpt lat="33.810191" lon="-118.3940253">
  <ele>-0.106</ele>
  <time>2026-09-02T22:07:24Z</time>
  <course>10.64</course>
  <speed>0.7234638899074369</speed>
  <fix>3d</fix>
</trkpt>
<trkpt lat="33.810191" lon="-118.3940252">
  <ele>-0.106</ele>
  <time>2026-09-02T22:07:24Z</time>
  <course>10.64</course>
  <speed>0.7234638899074369</speed>
  <fix>3d</fix>
</trkpt>
<trkpt lat="33.810191" lon="-118.3940252">
  <ele>-0.106</ele>
  <time>2026-09-02T22:07:24Z</time>
  <course>10.64</course>
  <speed>0.7234638899074369</speed>
  <fix>3d</fix>
</trkpt>
<trkpt lat="33.8101901" lon="-118.3940268">
  <ele>-0.1</ele>
  <time>2026-09-02T22:07:24Z</time>
  <course>47.44</course>
  <speed>0.73</speed>
  <fix>3d</fix>
</trkpt>
<trkpt lat="33.8101911" lon="-118.3940251">
  <ele>-0.106</ele>
  <time>2026-09-02T22:07:24Z</time>
  <course>10.64</course>
  <speed>0.7234638899074369</speed>
  <fix>3d</fix>
</trkpt>
<trkpt lat="33.8101911" lon="-118.3940251">
  <ele>-0.106</ele>
  <time>2026-09-02T22:07:24Z</time>
  <course>10.64</course>
  <speed>0.7234638899074369</speed>
  <fix>3d</fix>
</trkpt>
<trkpt lat="33.8101912" lon="-118.394025">
  <ele>-0.105</ele>
  <time>2026-09-02T22:07:24Z</time>
  <course>10.64</course>
  <speed>0.7234638899074369</speed>
  <fix>3d</fix>
</trkpt>
<trkpt lat="33.8101912" lon="-118.394025">
  <ele>-0.105</ele>
  <time>2026-09-02T22:07:24Z</time>
  <course>10.64</course>
  <speed>0.7234638899074369</speed>
  <fix>3d</fix>
</trkpt>
<trkpt lat="33.8101912" lon="-118.3940249">
  <ele>-0.105</ele>
  <time>2026-09-02T22:07:24Z</time>
  <course>10.64</course>
  <speed>0.7234638899074369</speed>
  <fix>3d</fix>
</trkpt>
<trkpt lat="33.8101913" lon="-118.3940249">
  <ele>-0.105</ele>
  <time>2026-09-02T22:07:24Z</time>
  <course>10.64</course>
  <speed>0.7234638899074369</speed>
  <fix>3d</fix>
</trkpt>
<trkpt lat="33.8101913" lon="-118.3940248">
  <ele>-0.105</ele>
  <time>2026-09-02T22:07:24Z</time>
  <course>10.64</course>
  <speed>0.7234638899074369</speed>
  <fix>3d</fix>
</trkpt>
<trkpt lat="33.8101913" lon="-118.3940248">
  <ele>-0.105</ele>
  <time>2026-09-02T22:07:24Z</time>
  <course>10.65</course>
  <speed>0.7234638899074369</speed>
  <fix>3d</fix>
</trkpt>
<trkpt lat="33.8101914" lon="-118.3940247">
  <ele>-0.105</ele>
  <time>2026-09-02T22:07:24Z</time>
  <course>10.65</course>
  <speed>0.7234638899074369</speed>
  <fix>3d</fix>
</trkpt>
<trkpt lat="33.8101914" lon="-118.3940247">
  <ele>-0.105</ele>
  <time>2026-09-02T22:07:24Z</time>
  <course>10.65</course>
  <speed>0.7234638899074369</speed>
  <fix>3d</fix>
</trkpt>
<trkpt lat="33.8101914" lon="-118.3940246">
  <ele>-0.105</ele>
  <time>2026-09-02T22:07:24Z</time>
  <course>10.65</course>
  <speed>0.7234638899074369</speed>
  <fix>3d</fix>
</trkpt>
<trkpt lat="33.810191" lon="-118.3940256">
  <ele>-0.11</ele>
  <time>2026-09-02T22:07:24Z</time>
  <course>47.45</course>
  <speed>0.73</speed>
  <fix>3d</fix>
</trkpt>
<trkpt lat="33.8101914" lon="-118.3940246">
  <ele>-0.105</ele>
  <time>2026-09-02T22:07:24Z</time>
  <course>10.65</course>
  <speed>0.7234638899074369</speed>
  <fix>3d</fix>
</trkpt>
<trkpt lat="33.8101915" lon="-118.3940245">
  <ele>-0.105</ele>
  <time>2026-09-02T22:07:24Z</time>
  <course>10.65</course>
  <speed>0.7234638899074369</speed>
  <fix>3d</fix>
</trkpt>
<trkpt lat="33.8101916" lon="-118.3940245">
  <ele>-0.105</ele>
  <time>2026-09-02T22:07:24Z</time>
  <course>10.65</course>
  <speed>0.7234638899074369</speed>
  <fix>3d</fix>
</trkpt>
<trkpt lat="33.8101916" lon="-118.3940244">
  <ele>-0.104</ele>
  <time>2026-09-02T22:07:24Z</time>
  <course>10.65</course>
  <speed>0.7234638899074369</speed>
  <fix>3d</fix>
</trkpt>
<trkpt lat="33.8101916" lon="-118.3940244">
  <ele>-0.104</ele>
  <time>2026-09-02T22:07:24Z</time>
  <course>10.65</course>
  <speed>0.7234638899074369</speed>
  <fix>3d</fix>
</trkpt>
<trkpt lat="33.8101917" lon="-118.3940243">
  <ele>-0.104</ele>
  <time>2026-09-02T22:07:24Z</time>
  <course>10.65</course>
  <speed>0.7234638899074369</speed>
  <fix>3d</fix>
</trkpt>
<trkpt lat="33.8101917" lon="-118.3940243">
  <ele>-0.104</ele>
  <time>2026-09-02T22:07:24Z</time>
  <course>10.65</course>
  <speed>0.7234638899074369</speed>
  <fix>3d</fix>
</trkpt>
<trkpt lat="33.8101917" lon="-118.3940243">
  <ele>-0.104</ele>
  <time>2026-09-02T22:07:24Z</time>
  <course>10.65</course>
  <speed>0.7234638899074369</speed>
  <fix>3d</fix>
</trkpt>
<trkpt lat="33.8101918" lon="-118.3940242">
  <ele>-0.104</ele>
  <time>2026-09-02T22:07:24Z</time>
  <course>10.65</course>
  <speed>0.7234638899074369</speed>
  <fix>3d</fix>
</trkpt>
<trkpt lat="33.8101918" lon="-118.3940242">
  <ele>-0.104</ele>
  <time>2026-09-02T22:07:24Z</time>
  <course>10.65</course>
  <speed>0.7234638899074369</speed>
  <fix>3d</fix>
</trkpt>
<trkpt lat="33.8101918" lon="-118.3940241">
  <ele>-0.104</ele>
  <time>2026-09-02T22:07:24Z</time>
  <course>10.65</course>
  <speed>0.7234638899074369</speed>
  <fix>3d</fix>
</trkpt>
<trkpt lat="33.8101919" lon="-118.3940241">
  <ele>-0.104</ele>
  <time>2026-09-02T22:07:24Z</time>
  <course>10.65</course>
  <speed>0.7234638899074369</speed>
  <fix>3d</fix>
</trkpt>
<trkpt lat="33.8101919" lon="-118.3940241">
  <ele>-0.104</ele>
  <time>2026-09-02T22:07:24Z</time>
  <course>10.65</course>
  <speed>0.7234638899074369</speed>
  <fix>3d</fix>
</trkpt>
<trkpt lat="33.810191" lon="-118.3940256">
  <ele>-0.11</ele>
  <time>2026-09-02T22:07:24Z</time>
  <course>47.45</course>
  <speed>0.73</speed>
  <fix>3d</fix>
</trkpt>
<trkpt lat="33.8101919" lon="-118.394024">
  <ele>-0.103</ele>
  <time>2026-09-02T22:07:24Z</time>
  <course>10.65</course>
  <speed>0.7234638899074369</speed>
  <fix>3d</fix>
</trkpt>
<trkpt lat="33.810192" lon="-118.3940239">
  <ele>-0.103</ele>
  <time>2026-09-02T22:07:24Z</time>
  <course>10.66</course>
  <speed>0.7234638899074369</speed>
  <fix>3d</fix>
</trkpt>
<trkpt lat="33.810192" lon="-118.3940239">
  <ele>-0.103</ele>
  <time>2026-09-02T22:07:24Z</time>
  <course>10.66</course>
  <speed>0.7234638899074369</speed>
  <fix>3d</fix>
</trkpt>
<trkpt lat="33.8101921" lon="-118.3940238">
  <ele>-0.103</ele>
  <time>2026-09-02T22:07:24Z</time>
  <course>10.66</course>
  <speed>0.7234638899074369</speed>
  <fix>3d</fix>
</trkpt>
<trkpt lat="33.8101921" lon="-118.3940238">
  <ele>-0.103</ele>
  <time>2026-09-02T22:07:24Z</time>
  <course>10.66</course>
  <speed>0.7234638899074369</speed>
  <fix>3d</fix>
</trkpt>
<trkpt lat="33.8101921" lon="-118.3940237">
  <ele>-0.103</ele>
  <time>2026-09-02T22:07:24Z</time>
  <course>10.66</course>
  <speed>0.7234638899074369</speed>
  <fix>3d</fix>
</trkpt>
<trkpt lat="33.8101922" lon="-118.3940237">
  <ele>-0.103</ele>
  <time>2026-09-02T22:07:24Z</time>
  <course>10.66</course>
  <speed>0.7234638899074369</speed>
  <fix>3d</fix>
</trkpt>
<trkpt lat="33.8101922" lon="-118.3940236">
  <ele>-0.102</ele>
  <time>2026-09-02T22:07:24Z</time>
  <course>10.66</course>
  <speed>0.7234638899074369</speed>
  <fix>3d</fix>
</trkpt>
<trkpt lat="33.8101923" lon="-118.3940236">
  <ele>-0.102</ele>
  <time>2026-09-02T22:07:24Z</time>
  <course>10.66</course>
  <speed>0.7234638899074369</speed>
  <fix>3d</fix>
</trkpt>
<trkpt lat="33.8101923" lon="-118.3940235">
  <ele>-0.102</ele>
  <time>2026-09-02T22:07:24Z</time>
  <course>10.66</course>
  <speed>0.7234638899074369</speed>
  <fix>3d</fix>
</trkpt>
<trkpt lat="33.8101923" lon="-118.3940235">
  <ele>-0.102</ele>
  <time>2026-09-02T22:07:24Z</time>
  <course>10.66</course>
  <speed>0.7234638899074369</speed>
  <fix>3d</fix>
</trkpt>
<trkpt lat="33.8101919" lon="-118.3940245">
  <ele>-0.1</ele>
  <time>2026-09-02T22:07:24Z</time>
  <course>47.47</course>
  <speed>0.73</speed>
  <fix>3d</fix>
</trkpt>
<trkpt lat="33.8101923" lon="-118.3940235">
  <ele>-0.102</ele>
  <time>2026-09-02T22:07:24Z</time>
  <course>10.66</course>
  <speed>0.7234638899074369</speed>
  <fix>3d</fix>
</trkpt>
<trkpt lat="33.8101924" lon="-118.3940234">
  <ele>-0.102</ele>
  <time>2026-09-02T22:07:24Z</time>
  <course>10.66</course>
  <speed>0.7234638899074369</speed>
  <fix>3d</fix>
</trkpt>
<trkpt lat="33.8101924" lon="-118.3940233">
  <ele>-0.101</ele>
  <time>2026-09-02T22:07:24Z</time>
  <course>10.66</course>
  <speed>0.7234638899074369</speed>
  <fix>3d</fix>
</trkpt>
<trkpt lat="33.8101925" lon="-118.3940233">
  <ele>-0.101</ele>
  <time>2026-09-02T22:07:24Z</time>
  <course>10.66</course>
  <speed>0.7234638899074369</speed>
  <fix>3d</fix>
</trkpt>
<trkpt lat="33.8101925" lon="-118.3940232">
  <ele>-0.101</ele>
  <time>2026-09-02T22:07:24Z</time>
  <course>10.66</course>
  <speed>0.7234638899074369</speed>
  <fix>3d</fix>
</trkpt>
<trkpt lat="33.8101926" lon="-118.3940232">
  <ele>-0.101</ele>
  <time>2026-09-02T22:07:24Z</time>
  <course>10.66</course>
  <speed>0.7234638899074369</speed>
  <fix>3d</fix>
</trkpt>
<trkpt lat="33.8101926" lon="-118.3940231">
  <ele>-0.101</ele>
  <time>2026-09-02T22:07:24Z</time>
  <course>10.66</course>
  <speed>0.7234638899074369</speed>
  <fix>3d</fix>
</trkpt>
<trkpt lat="33.8101926" lon="-118.394023">
  <ele>-0.1</ele>
  <time>2026-09-02T22:07:24Z</time>
  <course>10.67</course>
  <speed>0.7234638899074369</speed>
  <fix>3d</fix>
</trkpt>
<trkpt lat="33.8101927" lon="-118.394023">
  <ele>-0.1</ele>
  <time>2026-09-02T22:07:24Z</time>
  <course>10.67</course>
  <speed>0.7234638899074369</speed>
  <fix>3d</fix>
</trkpt>
<trkpt lat="33.8101927" lon="-118.3940229">
  <ele>-0.1</ele>
  <time>2026-09-02T22:07:24Z</time>
  <course>10.67</course>
  <speed>0.7234638899074369</speed>
  <fix>3d</fix>
</trkpt>
<trkpt lat="33.8101928" lon="-118.3940229">
  <ele>-0.1</ele>
  <time>2026-09-02T22:07:24Z</time>
  <course>10.67</course>
  <speed>0.7234638899074369</speed>
  <fix>3d</fix>
</trkpt>
<trkpt lat="33.8101928" lon="-118.3940229">
  <ele>-0.1</ele>
  <time>2026-09-02T22:07:24Z</time>
  <course>10.67</course>
  <speed>0.7234638899074369</speed>
  <fix>3d</fix>
</trkpt>
<trkpt lat="33.8101919" lon="-118.3940245">
  <ele>-0.1</ele>
  <time>2026-09-02T22:07:24Z</time>
  <course>47.47</course>
  <speed>0.73</speed>
  <fix>3d</fix>
</trkpt>
<trkpt lat="33.8101928" lon="-118.3940228">
  <ele>-0.1</ele>
  <time>2026-09-02T22:07:24Z</time>
  <course>10.67</course>
  <speed>0.7234638899074369</speed>
  <fix>3d</fix>
</trkpt>
<trkpt lat="33.8101929" lon="-118.3940227">
  <ele>-0.099</ele>
  <time>2026-09-02T22:07:24Z</time>
  <course>10.67</course>
  <speed>0.7234638899074369</speed>
  <fix>3d</fix>
</trkpt>
<trkpt lat="33.8101929" lon="-118.3940227">
  <ele>-0.099</ele>
  <time>2026-09-02T22:07:24Z</time>
  <course>10.67</course>
  <speed>0.7234638899074369</speed>
  <fix>3d</fix>
</trkpt>
<trkpt lat="33.810193" lon="-118.3940226">
  <ele>-0.099</ele>
  <time>2026-09-02T22:07:24Z</time>
  <course>10.67</course>
  <speed>0.7234638899074369</speed>
  <fix>3d</fix>
</trkpt>
<trkpt lat="33.810193" lon="-118.3940226">
  <ele>-0.099</ele>
  <time>2026-09-02T22:07:24Z</time>
  <course>10.67</course>
  <speed>0.7234638899074369</speed>
  <fix>3d</fix>
</trkpt>
<trkpt lat="33.810193" lon="-118.3940225">
  <ele>-0.099</ele>
  <time>2026-09-02T22:07:24Z</time>
  <course>10.67</course>
  <speed>0.7234638899074369</speed>
  <fix>3d</fix>
</trkpt>
<trkpt lat="33.8101931" lon="-118.3940225">
  <ele>-0.099</ele>
  <time>2026-09-02T22:07:24Z</time>
  <course>10.67</course>
  <speed>0.7234638899074369</speed>
  <fix>3d</fix>
</trkpt>
<trkpt lat="33.8101931" lon="-118.3940224">
  <ele>-0.099</ele>
  <time>2026-09-02T22:07:24Z</time>
  <course>10.67</course>
  <speed>0.7234638899074369</speed>
  <fix>3d</fix>
</trkpt>
<trkpt lat="33.8101932" lon="-118.3940224">
  <ele>-0.099</ele>
  <time>2026-09-02T22:07:24Z</time>
  <course>10.67</course>
  <speed>0.7234638899074369</speed>
  <fix>3d</fix>
</trkpt>
<trkpt lat="33.8101932" lon="-118.3940223">
  <ele>-0.098</ele>
  <time>2026-09-02T22:07:24Z</time>
  <course>10.67</course>
  <speed>0.7234638899074369</speed>
  <fix>3d</fix>
</trkpt>
<trkpt lat="33.8101932" lon="-118.3940223">
  <ele>-0.098</ele>
  <time>2026-09-02T22:07:24Z</time>
  <course>10.67</course>
  <speed>0.7234638899074369</speed>
  <fix>3d</fix>
</trkpt>
<trkpt lat="33.8101928" lon="-118.3940233">
  <ele>-0.1</ele>
  <time>2026-09-02T22:07:24Z</time>
  <course>47.48</course>
  <speed>0.73</speed>
  <fix>3d</fix>
</trkpt>
<trkpt lat="33.8101932" lon="-118.3940223">
  <ele>-0.098</ele>
  <time>2026-09-02T22:07:24Z</time>
  <course>10.67</course>
  <speed>0.7234638899074369</speed>
  <fix>3d</fix>
</trkpt>
<trkpt lat="33.8101933" lon="-118.3940222">
  <ele>-0.098</ele>
  <time>2026-09-02T22:07:24Z</time>
  <course>10.68</course>
  <speed>0.7234638899074369</speed>
  <fix>3d</fix>
</trkpt>
<trkpt lat="33.8101933" lon="-118.3940221">
  <ele>-0.098</ele>
  <time>2026-09-02T22:07:24Z</time>
  <course>10.68</course>
  <speed>0.7234638899074369</speed>
  <fix>3d</fix>
</trkpt>
<trkpt lat="33.8101934" lon="-118.3940221">
  <ele>-0.098</ele>
  <time>2026-09-02T22:07:24Z</time>
  <course>10.68</course>
  <speed>0.7234638899074369</speed>
  <fix>3d</fix>
</trkpt>
<trkpt lat="33.8101934" lon="-118.394022">
  <ele>-0.098</ele>
  <time>2026-09-02T22:07:24Z</time>
  <course>10.68</course>
  <speed>0.7234638899074369</speed>
  <fix>3d</fix>
</trkpt>
<trkpt lat="33.8101934" lon="-118.394022">
  <ele>-0.098</ele>
  <time>2026-09-02T22:07:24Z</time>
  <course>10.68</course>
  <speed>0.7234638899074369</speed>
  <fix>3d</fix>
</trkpt>
<trkpt lat="33.8101935" lon="-118.3940219">
  <ele>-0.098</ele>
  <time>2026-09-02T22:07:24Z</time>
  <course>10.68</course>
  <speed>0.7234638899074369</speed>
  <fix>3d</fix>
</trkpt>
<trkpt lat="33.8101935" lon="-118.3940219">
  <ele>-0.098</ele>
  <time>2026-09-02T22:07:24Z</time>
  <course>10.68</course>
  <speed>0.7234638899074369</speed>
  <fix>3d</fix>
</trkpt>
<trkpt lat="33.8101936" lon="-118.3940218">
  <ele>-0.098</ele>
  <time>2026-09-02T22:07:24Z</time>
  <course>10.68</course>
  <speed>0.7234638899074369</speed>
  <fix>3d</fix>
</trkpt>
<trkpt lat="33.8101936" lon="-118.3940218">
  <ele>-0.098</ele>
  <time>2026-09-02T22:07:24Z</time>
  <course>10.68</course>
  <speed>0.7234638899074369</speed>
  <fix>3d</fix>
</trkpt>
<trkpt lat="33.8101936" lon="-118.3940218">
  <ele>-0.097</ele>
  <time>2026-09-02T22:07:24Z</time>
  <course>10.68</course>
  <speed>0.7234638899074369</speed>
  <fix>3d</fix>
</trkpt>
<trkpt lat="33.8101937" lon="-118.3940217">
  <ele>-0.097</ele>
  <time>2026-09-02T22:07:24Z</time>
  <course>10.68</course>
  <speed>0.7234638899074369</speed>
  <fix>3d</fix>
</trkpt>
<trkpt lat="33.8101937" lon="-118.3940217">
  <ele>-0.097</ele>
  <time>2026-09-02T22:07:24Z</time>
  <course>10.68</course>
  <speed>0.7234638899074369</speed>
  <fix>3d</fix>
</trkpt>
<trkpt lat="33.8101928" lon="-118.3940233">
  <ele>-0.1</ele>
  <time>2026-09-02T22:07:24Z</time>
  <course>47.48</course>
  <speed>0.73</speed>
  <fix>3d</fix>
</trkpt>
<trkpt lat="33.8101937" lon="-118.3940216">
  <ele>-0.097</ele>
  <time>2026-09-02T22:07:24Z</time>
  <course>10.68</course>
  <speed>0.7234638899074369</speed>
  <fix>3d</fix>
</trkpt>
<trkpt lat="33.8101938" lon="-118.3940216">
  <ele>-0.097</ele>
  <time>2026-09-02T22:07:24Z</time>
  <course>10.68</course>
  <speed>0.7234638899074369</speed>
  <fix>3d</fix>
</trkpt>
<trkpt lat="33.8101938" lon="-118.3940215">
  <ele>-0.097</ele>
  <time>2026-09-02T22:07:24Z</time>
  <course>10.68</course>
  <speed>0.7234638899074369</speed>
  <fix>3d</fix>
</trkpt>
<trkpt lat="33.8101938" lon="-118.3940215">
  <ele>-0.097</ele>
  <time>2026-09-02T22:07:24Z</time>
  <course>10.68</course>
  <speed>0.7234638899074369</speed>
  <fix>3d</fix>
</trkpt>
<trkpt lat="33.8101939" lon="-118.3940214">
  <ele>-0.097</ele>
  <time>2026-09-02T22:07:24Z</time>
  <course>10.68</course>
  <speed>0.7234638899074369</speed>
  <fix>3d</fix>
</trkpt>
<trkpt lat="33.8101939" lon="-118.3940214">
  <ele>-0.097</ele>
  <time>2026-09-02T22:07:24Z</time>
  <course>10.68</course>
  <speed>0.7234638899074369</speed>
  <fix>3d</fix>
</trkpt>
<trkpt lat="33.8101939" lon="-118.3940213">
  <ele>-0.097</ele>
  <time>2026-09-02T22:07:24Z</time>
  <course>10.69</course>
  <speed>0.7234638899074369</speed>
  <fix>3d</fix>
</trkpt>
<trkpt lat="33.810194" lon="-118.3940213">
  <ele>-0.097</ele>
  <time>2026-09-02T22:07:24Z</time>
  <course>10.69</course>
  <speed>0.7234638899074369</speed>
  <fix>3d</fix>
</trkpt>
<trkpt lat="33.810194" lon="-118.3940212">
  <ele>-0.097</ele>
  <time>2026-09-02T22:07:24Z</time>
  <course>10.69</course>
  <speed>0.7234638899074369</speed>
  <fix>3d</fix>
</trkpt>
<trkpt lat="33.8101941" lon="-118.3940212">
  <ele>-0.097</ele>
  <time>2026-09-02T22:07:24Z</time>
  <course>10.69</course>
  <speed>0.7234638899074369</speed>
  <fix>3d</fix>
</trkpt>
<trkpt lat="33.8101941" lon="-118.3940211">
  <ele>-0.097</ele>
  <time>2026-09-02T22:07:24Z</time>
  <course>10.69</course>
  <speed>0.7234638899074369</speed>
  <fix>3d</fix>
</trkpt>
<trkpt lat="33.8101941" lon="-118.3940211">
  <ele>-0.097</ele>
  <time>2026-09-02T22:07:24Z</time>
  <course>10.69</course>
  <speed>0.7234638899074369</speed>
  <fix>3d</fix>
</trkpt>
<trkpt lat="33.8101937" lon="-118.3940222">
  <ele>-0.1</ele>
  <time>2026-09-02T22:07:24Z</time>
  <course>47.49</course>
  <speed>0.73</speed>
  <fix>3d</fix>
</trkpt>
<trkpt lat="33.8101942" lon="-118.394021">
  <ele>-0.097</ele>
  <time>2026-09-02T22:07:24Z</time>
  <course>10.69</course>
  <speed>0.7234638899074369</speed>
  <fix>3d</fix>
</trkpt>
<trkpt lat="33.8101942" lon="-118.394021">
  <ele>-0.097</ele>
  <time>2026-09-02T22:07:24Z</time>
  <course>10.69</course>
  <speed>0.7234638899074369</speed>
  <fix>3d</fix>
</trkpt>
<trkpt lat="33.8101943" lon="-118.3940209">
  <ele>-0.096</ele>
  <time>2026-09-02T22:07:24Z</time>
  <course>10.69</course>
  <speed>0.7234638899074369</speed>
  <fix>3d</fix>
</trkpt>
<trkpt lat="33.8101943" lon="-118.3940209">
  <ele>-0.097</ele>
  <time>2026-09-02T22:07:24Z</time>
  <course>10.69</course>
  <speed>0.7234638899074369</speed>
  <fix>3d</fix>
</trkpt>
<trkpt lat="33.8101943" lon="-118.3940208">
  <ele>-0.097</ele>
  <time>2026-09-02T22:07:24Z</time>
  <course>10.69</course>
  <speed>0.7234638899074369</speed>
  <fix>3d</fix>
</trkpt>
<trkpt lat="33.8101944" lon="-118.3940208">
  <ele>-0.097</ele>
  <time>2026-09-02T22:07:24Z</time>
  <course>10.69</course>
  <speed>0.7234638899074369</speed>
  <fix>3d</fix>
</trkpt>
<trkpt lat="33.8101944" lon="-118.3940207">
  <ele>-0.097</ele>
  <time>2026-09-02T22:07:24Z</time>
  <course>10.69</course>
  <speed>0.7234638899074369</speed>
  <fix>3d</fix>
</trkpt>
<trkpt lat="33.8101945" lon="-118.3940206">
  <ele>-0.097</ele>
  <time>2026-09-02T22:07:24Z</time>
  <course>10.69</course>
  <speed>0.7234638899074369</speed>
  <fix>3d</fix>
</trkpt>
<trkpt lat="33.8101945" lon="-118.3940206">
  <ele>-0.097</ele>
  <time>2026-09-02T22:07:24Z</time>
  <course>10.69</course>
  <speed>0.7234638899074369</speed>
  <fix>3d</fix>
</trkpt>
<trkpt lat="33.8101945" lon="-118.3940205">
  <ele>-0.097</ele>
  <time>2026-09-02T22:07:24Z</time>
  <course>10.69</course>
  <speed>0.7234638899074369</speed>
  <fix>3d</fix>
</trkpt>
<trkpt lat="33.8101945" lon="-118.3940205">
  <ele>-0.097</ele>
  <time>2026-09-02T22:07:24Z</time>
  <course>10.69</course>
  <speed>0.7234638899074369</speed>
  <fix>3d</fix>
</trkpt>
<trkpt lat="33.8101937" lon="-118.3940222">
  <ele>-0.1</ele>
  <time>2026-09-02T22:07:24Z</time>
  <course>47.49</course>
  <speed>0.73</speed>
  <fix>3d</fix>
</trkpt>
<trkpt lat="33.8101946" lon="-118.3940204">
  <ele>-0.097</ele>
  <time>2026-09-02T22:07:24Z</time>
  <course>10.7</course>
  <speed>0.7234638899074369</speed>
  <fix>3d</fix>
</trkpt>
<trkpt lat="33.8101947" lon="-118.3940204">
  <ele>-0.097</ele>
  <time>2026-09-02T22:07:24Z</time>
  <course>10.7</course>
  <speed>0.717007670809734</speed>
  <fix>3d</fix>
</trkpt>
<trkpt lat="33.8101947" lon="-118.3940203">
  <ele>-0.097</ele>
  <time>2026-09-02T22:07:24Z</time>
  <course>10.7</course>
  <speed>0.717007670809734</speed>
  <fix>3d</fix>
</trkpt>
<trkpt lat="33.8101947" lon="-118.3940203">
  <ele>-0.097</ele>
  <time>2026-09-02T22:07:24Z</time>
  <course>10.7</course>
  <speed>0.717007670809734</speed>
  <fix>3d</fix>
</trkpt>
<trkpt lat="33.8101948" lon="-118.3940202">
  <ele>-0.097</ele>
  <time>2026-09-02T22:07:24Z</time>
  <course>10.7</course>
  <speed>0.717007670809734</speed>
  <fix>3d</fix>
</trkpt>
<trkpt lat="33.8101948" lon="-118.3940202">
  <ele>-0.097</ele>
  <time>2026-09-02T22:07:24Z</time>
  <course>10.7</course>
  <speed>0.7234638899074369</speed>
  <fix>3d</fix>
</trkpt>
<trkpt lat="33.8101949" lon="-118.3940201">
  <ele>-0.097</ele>
  <time>2026-09-02T22:07:24Z</time>
  <course>10.7</course>
  <speed>0.717007670809734</speed>
  <fix>3d</fix>
</trkpt>
<trkpt lat="33.8101949" lon="-118.3940201">
  <ele>-0.097</ele>
  <time>2026-09-02T22:07:24Z</time>
  <course>10.7</course>
  <speed>0.7234638899074369</speed>
  <fix>3d</fix>
</trkpt>
<trkpt lat="33.8101949" lon="-118.39402">
  <ele>-0.097</ele>
  <time>2026-09-02T22:07:24Z</time>
  <course>10.7</course>
  <speed>0.7234638899074369</speed>
  <fix>3d</fix>
</trkpt>
<trkpt lat="33.810195" lon="-118.39402">
  <ele>-0.097</ele>
  <time>2026-09-02T22:07:24Z</time>
  <course>10.7</course>
  <speed>0.7234638899074369</speed>
  <fix>3d</fix>
</trkpt>
<trkpt lat="33.810195" lon="-118.39402">
  <ele>-0.097</ele>
  <time>2026-09-02T22:07:24Z</time>
  <course>10.7</course>
  <speed>0.7234638899074369</speed>
  <fix>3d</fix>
</trkpt>
<trkpt lat="33.810195" lon="-118.39402">
  <ele>-0.097</ele>
  <time>2026-09-02T22:07:24Z</time>
  <course>10.7</course>
  <speed>0.7234638899074369</speed>
  <fix>3d</fix>
</trkpt>
<trkpt lat="33.8101946" lon="-118.3940209">
  <ele>-0.1</ele>
  <time>2026-09-02T22:07:24Z</time>
  <course>47.51</course>
  <speed>0.73</speed>
  <fix>3d</fix>
</trkpt>
<trkpt lat="33.8101951" lon="-118.3940199">
  <ele>-0.097</ele>
  <time>2026-09-02T22:07:24Z</time>
  <course>10.7</course>
  <speed>0.7234638899074369</speed>
  <fix>3d</fix>
</trkpt>
<trkpt lat="33.8101951" lon="-118.3940198">
  <ele>-0.097</ele>
  <time>2026-09-02T22:07:24Z</time>
  <course>10.7</course>
  <speed>0.7234638899074369</speed>
  <fix>3d</fix>
</trkpt>
<trkpt lat="33.8101952" lon="-118.3940197">
  <ele>-0.097</ele>
  <time>2026-09-02T22:07:24Z</time>
  <course>10.7</course>
  <speed>0.7234638899074369</speed>
  <fix>3d</fix>
</trkpt>
<trkpt lat="33.8101952" lon="-118.3940197">
  <ele>-0.097</ele>
  <time>2026-09-02T22:07:24Z</time>
  <course>10.7</course>
  <speed>0.7234638899074369</speed>
  <fix>3d</fix>
</trkpt>
<trkpt lat="33.8101953" lon="-118.3940196">
  <ele>-0.097</ele>
  <time>2026-09-02T22:07:24Z</time>
  <course>10.71</course>
  <speed>0.7234638899074369</speed>
  <fix>3d</fix>
</trkpt>
<trkpt lat="33.8101953" lon="-118.3940196">
  <ele>-0.097</ele>
  <time>2026-09-02T22:07:24Z</time>
  <course>10.71</course>
  <speed>0.7234638899074369</speed>
  <fix>3d</fix>
</trkpt>
<trkpt lat="33.8101953" lon="-118.3940195">
  <ele>-0.097</ele>
  <time>2026-09-02T22:07:24Z</time>
  <course>10.71</course>
  <speed>0.7234638899074369</speed>
  <fix>3d</fix>
</trkpt>
<trkpt lat="33.8101954" lon="-118.3940195">
  <ele>-0.097</ele>
  <time>2026-09-02T22:07:24Z</time>
  <course>10.71</course>
  <speed>0.7234638899074369</speed>
  <fix>3d</fix>
</trkpt>
<trkpt lat="33.8101954" lon="-118.3940194">
  <ele>-0.097</ele>
  <time>2026-09-02T22:07:24Z</time>
  <course>10.71</course>
  <speed>0.717007670809734</speed>
  <fix>3d</fix>
</trkpt>
<trkpt lat="33.8101954" lon="-118.3940194">
  <ele>-0.097</ele>
  <time>2026-09-02T22:07:24Z</time>
  <course>10.71</course>
  <speed>0.7234638899074369</speed>
  <fix>3d</fix>
</trkpt>
<trkpt lat="33.8101954" lon="-118.3940194">
  <ele>-0.097</ele>
  <time>2026-09-02T22:07:24Z</time>
  <course>10.71</course>
  <speed>0.717007670809734</speed>
  <fix>3d</fix>
</trkpt>
<trkpt lat="33.8101946" lon="-118.3940209">
  <ele>-0.1</ele>
  <time>2026-09-02T22:07:24Z</time>
  <course>47.51</course>
  <speed>0.73</speed>
  <fix>3d</fix>
</trkpt>
<trkpt lat="33.8101955" lon="-118.3940194">
  <ele>-0.097</ele>
  <time>2026-09-02T22:07:24Z</time>
  <course>10.71</course>
  <speed>0.717007670809734</speed>
  <fix>3d</fix>
</trkpt>
<trkpt lat="33.8101955" lon="-118.3940193">
  <ele>-0.097</ele>
  <time>2026-09-02T22:07:24Z</time>
  <course>10.71</course>
  <speed>0.717007670809734</speed>
  <fix>3d</fix>
</trkpt>
<trkpt lat="33.8101956" lon="-118.3940192">
  <ele>-0.097</ele>
  <time>2026-09-02T22:07:24Z</time>
  <course>10.71</course>
  <speed>0.717007670809734</speed>
  <fix>3d</fix>
</trkpt>
<trkpt lat="33.8101956" lon="-118.3940192">
  <ele>-0.097</ele>
  <time>2026-09-02T22:07:24Z</time>
  <course>10.71</course>
  <speed>0.717007670809734</speed>
  <fix>3d</fix>
</trkpt>
<trkpt lat="33.8101956" lon="-118.3940191">
  <ele>-0.097</ele>
  <time>2026-09-02T22:07:24Z</time>
  <course>10.71</course>
  <speed>0.717007670809734</speed>
  <fix>3d</fix>
</trkpt>
<trkpt lat="33.8101957" lon="-118.394019">
  <ele>-0.097</ele>
  <time>2026-09-02T22:07:24Z</time>
  <course>10.71</course>
  <speed>0.717007670809734</speed>
  <fix>3d</fix>
</trkpt>
<trkpt lat="33.8101957" lon="-118.394019">
  <ele>-0.097</ele>
  <time>2026-09-02T22:07:24Z</time>
  <course>10.71</course>
  <speed>0.717007670809734</speed>
  <fix>3d</fix>
</trkpt>
<trkpt lat="33.8101958" lon="-118.3940189">
  <ele>-0.097</ele>
  <time>2026-09-02T22:07:24Z</time>
  <course>10.71</course>
  <speed>0.717007670809734</speed>
  <fix>3d</fix>
</trkpt>
<trkpt lat="33.8101958" lon="-118.3940189">
  <ele>-0.097</ele>
  <time>2026-09-02T22:07:24Z</time>
  <course>10.71</course>
  <speed>0.7234638899074369</speed>
  <fix>3d</fix>
</trkpt>
<trkpt lat="33.8101959" lon="-118.3940188">
  <ele>-0.097</ele>
  <time>2026-09-02T22:07:24Z</time>
  <course>10.71</course>
  <speed>0.717007670809734</speed>
  <fix>3d</fix>
</trkpt>
<trkpt lat="33.8101959" lon="-118.3940188">
  <ele>-0.097</ele>
  <time>2026-09-02T22:07:24Z</time>
  <course>10.71</course>
  <speed>0.7234638899074369</speed>
  <fix>3d</fix>
</trkpt>
<trkpt lat="33.8101955" lon="-118.3940198">
  <ele>-0.11</ele>
  <time>2026-09-02T22:07:24Z</time>
  <course>47.52</course>
  <speed>0.73</speed>
  <fix>3d</fix>
</trkpt>
<trkpt lat="33.8101959" lon="-118.3940188">
  <ele>-0.097</ele>
  <time>2026-09-02T22:07:24Z</time>
  <course>10.71</course>
  <speed>0.717007670809734</speed>
  <fix>3d</fix>
</trkpt>
<trkpt lat="33.810196" lon="-118.3940187">
  <ele>-0.097</ele>
  <time>2026-09-02T22:07:24Z</time>
  <course>10.72</course>
  <speed>0.717007670809734</speed>
  <fix>3d</fix>
</trkpt>
<trkpt lat="33.810196" lon="-118.3940186">
  <ele>-0.097</ele>
  <time>2026-09-02T22:07:24Z</time>
  <course>10.72</course>
  <speed>0.717007670809734</speed>
  <fix>3d</fix>
</trkpt>
<trkpt lat="33.810196" lon="-118.3940186">
  <ele>-0.097</ele>
  <time>2026-09-02T22:07:24Z</time>
  <course>10.72</course>
  <speed>0.7234638899074369</speed>
  <fix>3d</fix>
</trkpt>
<trkpt lat="33.8101961" lon="-118.3940185">
  <ele>-0.098</ele>
  <time>2026-09-02T22:07:24Z</time>
  <course>10.72</course>
  <speed>0.7234638899074369</speed>
  <fix>3d</fix>
</trkpt>
<trkpt lat="33.8101961" lon="-118.3940185">
  <ele>-0.098</ele>
  <time>2026-09-02T22:07:24Z</time>
  <course>10.72</course>
  <speed>0.717007670809734</speed>
  <fix>3d</fix>
</trkpt>
<trkpt lat="33.8101962" lon="-118.3940184">
  <ele>-0.098</ele>
  <time>2026-09-02T22:07:24Z</time>
  <course>10.72</course>
  <speed>0.717007670809734</speed>
  <fix>3d</fix>
</trkpt>
<trkpt lat="33.8101962" lon="-118.3940184">
  <ele>-0.098</ele>
  <time>2026-09-02T22:07:24Z</time>
  <course>10.72</course>
  <speed>0.717007670809734</speed>
  <fix>3d</fix>
</trkpt>
<trkpt lat="33.8101963" lon="-118.3940183">
  <ele>-0.098</ele>
  <time>2026-09-02T22:07:24Z</time>
  <course>10.72</course>
  <speed>0.717007670809734</speed>
  <fix>3d</fix>
</trkpt>
<trkpt lat="33.8101963" lon="-118.3940182">
  <ele>-0.098</ele>
  <time>2026-09-02T22:07:24Z</time>
  <course>10.72</course>
  <speed>0.717007670809734</speed>
  <fix>3d</fix>
</trkpt>
<trkpt lat="33.8101963" lon="-118.3940182">
  <ele>-0.098</ele>
  <time>2026-09-02T22:07:24Z</time>
  <course>10.72</course>
  <speed>0.717007670809734</speed>
  <fix>3d</fix>
</trkpt>
<trkpt lat="33.8101963" lon="-118.3940182">
  <ele>-0.098</ele>
  <time>2026-09-02T22:07:24Z</time>
  <course>10.72</course>
  <speed>0.717007670809734</speed>
  <fix>3d</fix>
</trkpt>
<trkpt lat="33.8101955" lon="-118.3940198">
  <ele>-0.11</ele>
  <time>2026-09-02T22:07:24Z</time>
  <course>47.52</course>
  <speed>0.73</speed>
  <fix>3d</fix>
</trkpt>
<trkpt lat="33.8101965" lon="-118.394018">
  <ele>-0.098</ele>
  <time>2026-09-02T22:07:24Z</time>
  <course>10.72</course>
  <speed>0.717007670809734</speed>
  <fix>3d</fix>
</trkpt>
<trkpt lat="33.8101965" lon="-118.394018">
  <ele>-0.099</ele>
  <time>2026-09-02T22:07:24Z</time>
  <course>10.72</course>
  <speed>0.717007670809734</speed>
  <fix>3d</fix>
</trkpt>
<trkpt lat="33.8101965" lon="-118.3940179">
  <ele>-0.099</ele>
  <time>2026-09-02T22:07:24Z</time>
  <course>10.72</course>
  <speed>0.717007670809734</speed>
  <fix>3d</fix>
</trkpt>
<trkpt lat="33.8101966" lon="-118.3940179">
  <ele>-0.099</ele>
  <time>2026-09-02T22:07:24Z</time>
  <course>10.72</course>
  <speed>0.717007670809734</speed>
  <fix>3d</fix>
</trkpt>
<trkpt lat="33.8101966" lon="-118.3940178">
  <ele>-0.099</ele>
  <time>2026-09-02T22:07:24Z</time>
  <course>10.73</course>
  <speed>0.717007670809734</speed>
  <fix>3d</fix>
</trkpt>
<trkpt lat="33.8101966" lon="-118.3940178">
  <ele>-0.099</ele>
  <time>2026-09-02T22:07:24Z</time>
  <course>10.73</course>
  <speed>0.717007670809734</speed>
  <fix>3d</fix>
</trkpt>
<trkpt lat="33.8101967" lon="-118.3940178">
  <ele>-0.099</ele>
  <time>2026-09-02T22:07:24Z</time>
  <course>10.73</course>
  <speed>0.717007670809734</speed>
  <fix>3d</fix>
</trkpt>
<trkpt lat="33.8101967" lon="-118.3940177">
  <ele>-0.1</ele>
  <time>2026-09-02T22:07:24Z</time>
  <course>10.73</course>
  <speed>0.717007670809734</speed>
  <fix>3d</fix>
</trkpt>
<trkpt lat="33.8101968" lon="-118.3940176">
  <ele>-0.1</ele>
  <time>2026-09-02T22:07:24Z</time>
  <course>10.73</course>
  <speed>0.7234638899074369</speed>
  <fix>3d</fix>
</trkpt>
<trkpt lat="33.8101968" lon="-118.3940176">
  <ele>-0.1</ele>
  <time>2026-09-02T22:07:24Z</time>
  <course>10.73</course>
  <speed>0.717007670809734</speed>
  <fix>3d</fix>
</trkpt>
<trkpt lat="33.8101964" lon="-118.3940186">
  <ele>-0.1</ele>
  <time>2026-09-02T22:07:24Z</time>
  <course>47.53</course>
  <speed>0.73</speed>
  <fix>3d</fix>
</trkpt>
<trkpt lat="33.8101968" lon="-118.3940176">
  <ele>-0.1</ele>
  <time>2026-09-02T22:07:24Z</time>
  <course>10.73</course>
  <speed>0.717007670809734</speed>
  <fix>3d</fix>
</trkpt>
<trkpt lat="33.8101969" lon="-118.3940175">
  <ele>-0.1</ele>
  <time>2026-09-02T22:07:24Z</time>
  <course>10.73</course>
  <speed>0.7234638899074369</speed>
  <fix>3d</fix>
</trkpt>
<trkpt lat="33.8101969" lon="-118.3940174">
  <ele>-0.1</ele>
  <time>2026-09-02T22:07:24Z</time>
  <course>10.73</course>
  <speed>0.717007670809734</speed>
  <fix>3d</fix>
</trkpt>
<trkpt lat="33.810197" lon="-118.3940174">
  <ele>-0.1</ele>
  <time>2026-09-02T22:07:24Z</time>
  <course>10.73</course>
  <speed>0.717007670809734</speed>
  <fix>3d</fix>
</trkpt>
<trkpt lat="33.810197" lon="-118.3940173">
  <ele>-0.101</ele>
  <time>2026-09-02T22:07:24Z</time>
  <course>10.73</course>
  <speed>0.717007670809734</speed>
  <fix>3d</fix>
</trkpt>
<trkpt lat="33.810197" lon="-118.3940173">
  <ele>-0.101</ele>
  <time>2026-09-02T22:07:24Z</time>
  <course>10.73</course>
  <speed>0.7234638899074369</speed>
  <fix>3d</fix>
</trkpt>
<trkpt lat="33.8101971" lon="-118.3940172">
  <ele>-0.101</ele>
  <time>2026-09-02T22:07:24Z</time>
  <course>10.73</course>
  <speed>0.717007670809734</speed>
  <fix>3d</fix>
</trkpt>
<trkpt lat="33.8101971" lon="-118.3940172">
  <ele>-0.101</ele>
  <time>2026-09-02T22:07:24Z</time>
  <course>10.73</course>
  <speed>0.717007670809734</speed>
  <fix>3d</fix>
</trkpt>
<trkpt lat="33.8101972" lon="-118.3940171">
  <ele>-0.101</ele>
  <time>2026-09-02T22:07:24Z</time>
  <course>10.73</course>
  <speed>0.717007670809734</speed>
  <fix>3d</fix>
</trkpt>
<trkpt lat="33.8101972" lon="-118.3940171">
  <ele>-0.101</ele>
  <time>2026-09-02T22:07:24Z</time>
  <course>10.73</course>
  <speed>0.717007670809734</speed>
  <fix>3d</fix>
</trkpt>
<trkpt lat="33.8101972" lon="-118.394017">
  <ele>-0.101</ele>
  <time>2026-09-02T22:07:24Z</time>
  <course>10.73</course>
  <speed>0.717007670809734</speed>
  <fix>3d</fix>
</trkpt>
<trkpt lat="33.8101972" lon="-118.394017">
  <ele>-0.101</ele>
  <time>2026-09-02T22:07:24Z</time>
  <course>10.73</course>
  <speed>0.717007670809734</speed>
  <fix>3d</fix>
</trkpt>
<trkpt lat="33.8101964" lon="-118.3940186">
  <ele>-0.1</ele>
  <time>2026-09-02T22:07:24Z</time>
  <course>47.53</course>
  <speed>0.73</speed>
  <fix>3d</fix>
</trkpt>
<trkpt lat="33.8101973" lon="-118.3940169">
  <ele>-0.102</ele>
  <time>2026-09-02T22:07:24Z</time>
  <course>10.74</course>
  <speed>0.717007670809734</speed>
  <fix>3d</fix>
</trkpt>
<trkpt lat="33.8101973" lon="-118.3940169">
  <ele>-0.102</ele>
  <time>2026-09-02T22:07:24Z</time>
  <course>10.74</course>
  <speed>0.717007670809734</speed>
  <fix>3d</fix>
</trkpt>
<trkpt lat="33.8101974" lon="-118.3940168">
  <ele>-0.102</ele>
  <time>2026-09-02T22:07:24Z</time>
  <course>10.74</course>
  <speed>0.717007670809734</speed>
  <fix>3d</fix>
</trkpt>
<trkpt lat="33.8101974" lon="-118.3940168">
  <ele>-0.102</ele>
  <time>2026-09-02T22:07:24Z</time>
  <course>10.74</course>
  <speed>0.717007670809734</speed>
  <fix>3d</fix>
</trkpt>
<trkpt lat="33.8101975" lon="-118.3940167">
  <ele>-0.102</ele>
  <time>2026-09-02T22:07:24Z</time>
  <course>10.74</course>
  <speed>0.717007670809734</speed>
  <fix>3d</fix>
</trkpt>
<trkpt lat="33.8101975" lon="-118.3940167">
  <ele>-0.102</ele>
  <time>2026-09-02T22:07:24Z</time>
  <course>10.74</course>
  <speed>0.717007670809734</speed>
  <fix>3d</fix>
</trkpt>
<trkpt lat="33.8101975" lon="-118.3940166">
  <ele>-0.102</ele>
  <time>2026-09-02T22:07:24Z</time>
  <course>10.74</course>
  <speed>0.717007670809734</speed>
  <fix>3d</fix>
</trkpt>
<trkpt lat="33.8101976" lon="-118.3940166">
  <ele>-0.102</ele>
  <time>2026-09-02T22:07:24Z</time>
  <course>10.74</course>
  <speed>0.717007670809734</speed>
  <fix>3d</fix>
</trkpt>
<trkpt lat="33.8101976" lon="-118.3940165">
  <ele>-0.102</ele>
  <time>2026-09-02T22:07:24Z</time>
  <course>10.74</course>
  <speed>0.717007670809734</speed>
  <fix>3d</fix>
</trkpt>
<trkpt lat="33.8101976" lon="-118.3940165">
  <ele>-0.102</ele>
  <time>2026-09-02T22:07:24Z</time>
  <course>10.74</course>
  <speed>0.717007670809734</speed>
  <fix>3d</fix>
</trkpt>
<trkpt lat="33.8101977" lon="-118.3940164">
  <ele>-0.103</ele>
  <time>2026-09-02T22:07:24Z</time>
  <course>10.74</course>
  <speed>0.717007670809734</speed>
  <fix>3d</fix>
</trkpt>
<trkpt lat="33.8101977" lon="-118.3940164">
  <ele>-0.103</ele>
  <time>2026-09-02T22:07:24Z</time>
  <course>10.74</course>
  <speed>0.717007670809734</speed>
  <fix>3d</fix>
</trkpt>
<trkpt lat="33.8101973" lon="-118.3940175">
  <ele>-0.1</ele>
  <time>2026-09-02T22:07:24Z</time>
  <course>47.55</course>
  <speed>0.73</speed>
  <fix>3d</fix>
</trkpt>
<trkpt lat="33.8101978" lon="-118.3940163">
  <ele>-0.103</ele>
  <time>2026-09-02T22:07:24Z</time>
  <course>10.74</course>
  <speed>0.7234638899074369</speed>
  <fix>3d</fix>
</trkpt>
<trkpt lat="33.8101978" lon="-118.3940163">
  <ele>-0.103</ele>
  <time>2026-09-02T22:07:24Z</time>
  <course>10.74</course>
  <speed>0.717007670809734</speed>
  <fix>3d</fix>
</trkpt>
<trkpt lat="33.8101979" lon="-118.3940162">
  <ele>-0.103</ele>
  <time>2026-09-02T22:07:24Z</time>
  <course>10.74</course>
  <speed>0.717007670809734</speed>
  <fix>3d</fix>
</trkpt>
<trkpt lat="33.8101979" lon="-118.3940162">
  <ele>-0.103</ele>
  <time>2026-09-02T22:07:24Z</time>
  <course>10.74</course>
  <speed>0.7234638899074369</speed>
  <fix>3d</fix>
</trkpt>
<trkpt lat="33.8101979" lon="-118.3940161">
  <ele>-0.103</ele>
  <time>2026-09-02T22:07:24Z</time>
  <course>10.74</course>
  <speed>0.717007670809734</speed>
  <fix>3d</fix>
</trkpt>
<trkpt lat="33.810198" lon="-118.394016">
  <ele>-0.103</ele>
  <time>2026-09-02T22:07:24Z</time>
  <course>10.75</course>
  <speed>0.717007670809734</speed>
  <fix>3d</fix>
</trkpt>
<trkpt lat="33.810198" lon="-118.394016">
  <ele>-0.103</ele>
  <time>2026-09-02T22:07:24Z</time>
  <course>10.75</course>
  <speed>0.717007670809734</speed>
  <fix>3d</fix>
</trkpt>
<trkpt lat="33.8101981" lon="-118.3940159">
  <ele>-0.103</ele>
  <time>2026-09-02T22:07:24Z</time>
  <course>10.75</course>
  <speed>0.717007670809734</speed>
  <fix>3d</fix>
</trkpt>
<trkpt lat="33.8101981" lon="-118.3940159">
  <ele>-0.103</ele>
  <time>2026-09-02T22:07:24Z</time>
  <course>10.75</course>
  <speed>0.717007670809734</speed>
  <fix>3d</fix>
</trkpt>
<trkpt lat="33.8101981" lon="-118.3940158">
  <ele>-0.103</ele>
  <time>2026-09-02T22:07:24Z</time>
  <course>10.75</course>
  <speed>0.717007670809734</speed>
  <fix>3d</fix>
</trkpt>
<trkpt lat="33.8101973" lon="-118.3940175">
  <ele>-0.1</ele>
  <time>2026-09-02T22:07:24Z</time>
  <course>47.55</course>
  <speed>0.73</speed>
  <fix>3d</fix>
</trkpt>
<trkpt lat="33.8101981" lon="-118.3940158">
  <ele>-0.103</ele>
  <time>2026-09-02T22:07:24Z</time>
  <course>10.75</course>
  <speed>0.717007670809734</speed>
  <fix>3d</fix>
</trkpt>
<trkpt lat="33.8101982" lon="-118.3940158">
  <ele>-0.103</ele>
  <time>2026-09-02T22:07:24Z</time>
  <course>10.75</course>
  <speed>0.717007670809734</speed>
  <fix>3d</fix>
</trkpt>
<trkpt lat="33.8101982" lon="-118.3940157">
  <ele>-0.103</ele>
  <time>2026-09-02T22:07:24Z</time>
  <course>10.75</course>
  <speed>0.717007670809734</speed>
  <fix>3d</fix>
</trkpt>
<trkpt lat="33.8101983" lon="-118.3940156">
  <ele>-0.103</ele>
  <time>2026-09-02T22:07:24Z</time>
  <course>10.75</course>
  <speed>0.717007670809734</speed>
  <fix>3d</fix>
</trkpt>
<trkpt lat="33.8101983" lon="-118.3940156">
  <ele>-0.103</ele>
  <time>2026-09-02T22:07:24Z</time>
  <course>10.75</course>
  <speed>0.717007670809734</speed>
  <fix>3d</fix>
</trkpt>
<trkpt lat="33.8101983" lon="-118.3940155">
  <ele>-0.103</ele>
  <time>2026-09-02T22:07:24Z</time>
  <course>10.75</course>
  <speed>0.717007670809734</speed>
  <fix>3d</fix>
</trkpt>
<trkpt lat="33.8101984" lon="-118.3940155">
  <ele>-0.103</ele>
  <time>2026-09-02T22:07:24Z</time>
  <course>10.75</course>
  <speed>0.717007670809734</speed>
  <fix>3d</fix>
</trkpt>
<trkpt lat="33.8101984" lon="-118.3940154">
  <ele>-0.103</ele>
  <time>2026-09-02T22:07:24Z</time>
  <course>10.75</course>
  <speed>0.717007670809734</speed>
  <fix>3d</fix>
</trkpt>
<trkpt lat="33.8101985" lon="-118.3940154">
  <ele>-0.103</ele>
  <time>2026-09-02T22:07:24Z</time>
  <course>10.75</course>
  <speed>0.717007670809734</speed>
  <fix>3d</fix>
</trkpt>
<trkpt lat="33.8101985" lon="-118.3940153">
  <ele>-0.103</ele>
  <time>2026-09-02T22:07:24Z</time>
  <course>10.75</course>
  <speed>0.7234638899074369</speed>
  <fix>3d</fix>
</trkpt>
<trkpt lat="33.8101986" lon="-118.3940153">
  <ele>-0.103</ele>
  <time>2026-09-02T22:07:24Z</time>
  <course>10.75</course>
  <speed>0.7234638899074369</speed>
  <fix>3d</fix>
</trkpt>
<trkpt lat="33.8101986" lon="-118.3940153">
  <ele>-0.103</ele>
  <time>2026-09-02T22:07:24Z</time>
  <course>10.75</course>
  <speed>0.7234638899074369</speed>
  <fix>3d</fix>
</trkpt>
<trkpt lat="33.8101982" lon="-118.3940163">
  <ele>-0.1</ele>
  <time>2026-09-02T22:07:24Z</time>
  <course>47.56</course>
  <speed>0.73</speed>
  <fix>3d</fix>
</trkpt>
<trkpt lat="33.8101986" lon="-118.3940152">
  <ele>-0.103</ele>
  <time>2026-09-02T22:07:24Z</time>
  <course>10.75</course>
  <speed>0.717007670809734</speed>
  <fix>3d</fix>
</trkpt>
<trkpt lat="33.8101987" lon="-118.3940152">
  <ele>-0.103</ele>
  <time>2026-09-02T22:07:24Z</time>
  <course>10.76</course>
  <speed>0.717007670809734</speed>
  <fix>3d</fix>
</trkpt>
<trkpt lat="33.8101987" lon="-118.3940151">
  <ele>-0.103</ele>
  <time>2026-09-02T22:07:24Z</time>
  <course>10.76</course>
  <speed>0.7234638899074369</speed>
  <fix>3d</fix>
</trkpt>
<trkpt lat="33.8101987" lon="-118.394015">
  <ele>-0.103</ele>
  <time>2026-09-02T22:07:24Z</time>
  <course>10.76</course>
  <speed>0.7234638899074369</speed>
  <fix>3d</fix>
</trkpt>
<trkpt lat="33.8101988" lon="-118.394015">
  <ele>-0.103</ele>
  <time>2026-09-02T22:07:24Z</time>
  <course>10.76</course>
  <speed>0.7234638899074369</speed>
  <fix>3d</fix>
</trkpt>
<trkpt lat="33.8101988" lon="-118.3940149">
  <ele>-0.103</ele>
  <time>2026-09-02T22:07:24Z</time>
  <course>10.76</course>
  <speed>0.7234638899074369</speed>
  <fix>3d</fix>
</trkpt>
<trkpt lat="33.8101989" lon="-118.3940149">
  <ele>-0.103</ele>
  <time>2026-09-02T22:07:24Z</time>
  <course>10.76</course>
  <speed>0.7234638899074369</speed>
  <fix>3d</fix>
</trkpt>
<trkpt lat="33.8101989" lon="-118.3940148">
  <ele>-0.103</ele>
  <time>2026-09-02T22:07:24Z</time>
  <course>10.76</course>
  <speed>0.7234638899074369</speed>
  <fix>3d</fix>
</trkpt>
<trkpt lat="33.8101989" lon="-118.3940148">
  <ele>-0.104</ele>
  <time>2026-09-02T22:07:24Z</time>
  <course>10.76</course>
  <speed>0.7234638899074369</speed>
  <fix>3d</fix>
</trkpt>
<trkpt lat="33.810199" lon="-118.3940147">
  <ele>-0.104</ele>
  <time>2026-09-02T22:07:24Z</time>
  <course>10.76</course>
  <speed>0.717007670809734</speed>
  <fix>3d</fix>
</trkpt>
<trkpt lat="33.810199" lon="-118.3940147">
  <ele>-0.104</ele>
  <time>2026-09-02T22:07:24Z</time>
  <course>10.76</course>
  <speed>0.717007670809734</speed>
  <fix>3d</fix>
</trkpt>
<trkpt lat="33.810199" lon="-118.3940147">
  <ele>-0.104</ele>
  <time>2026-09-02T22:07:24Z</time>
  <course>10.76</course>
  <speed>0.717007670809734</speed>
  <fix>3d</fix>
</trkpt>
<trkpt lat="33.8101982" lon="-118.3940163">
  <ele>-0.1</ele>
  <time>2026-09-02T22:07:24Z</time>
  <course>47.56</course>
  <speed>0.73</speed>
  <fix>3d</fix>
</trkpt>
<trkpt lat="33.8101991" lon="-118.3940146">
  <ele>-0.104</ele>
  <time>2026-09-02T22:07:24Z</time>
  <course>10.76</course>
  <speed>0.717007670809734</speed>
  <fix>3d</fix>
</trkpt>
<trkpt lat="33.8101992" lon="-118.3940145">
  <ele>-0.104</ele>
  <time>2026-09-02T22:07:24Z</time>
  <course>10.76</course>
  <speed>0.717007670809734</speed>
  <fix>3d</fix>
</trkpt>
<trkpt lat="33.8101992" lon="-118.3940145">
  <ele>-0.104</ele>
  <time>2026-09-02T22:07:24Z</time>
  <course>10.76</course>
  <speed>0.717007670809734</speed>
  <fix>3d</fix>
</trkpt>
<trkpt lat="33.8101992" lon="-118.3940144">
  <ele>-0.104</ele>
  <time>2026-09-02T22:07:24Z</time>
  <course>10.76</course>
  <speed>0.717007670809734</speed>
  <fix>3d</fix>
</trkpt>
<trkpt lat="33.8101992" lon="-118.3940144">
  <ele>-0.104</ele>
  <time>2026-09-02T22:07:24Z</time>
  <course>10.76</course>
  <speed>0.717007670809734</speed>
  <fix>3d</fix>
</trkpt>
<trkpt lat="33.8101993" lon="-118.3940143">
  <ele>-0.104</ele>
  <time>2026-09-02T22:07:24Z</time>
  <course>10.76</course>
  <speed>0.7234638899074369</speed>
  <fix>3d</fix>
</trkpt>
<trkpt lat="33.8101993" lon="-118.3940143">
  <ele>-0.104</ele>
  <time>2026-09-02T22:07:24Z</time>
  <course>10.76</course>
  <speed>0.717007670809734</speed>
  <fix>3d</fix>
</trkpt>
<trkpt lat="33.8101994" lon="-118.3940142">
  <ele>-0.104</ele>
  <time>2026-09-02T22:07:24Z</time>
  <course>10.77</course>
  <speed>0.7234638899074369</speed>
  <fix>3d</fix>
</trkpt>
<trkpt lat="33.8101994" lon="-118.3940142">
  <ele>-0.104</ele>
  <time>2026-09-02T22:07:24Z</time>
  <course>10.77</course>
  <speed>0.7234638899074369</speed>
  <fix>3d</fix>
</trkpt>
<trkpt lat="33.8101994" lon="-118.3940141">
  <ele>-0.104</ele>
  <time>2026-09-02T22:07:24Z</time>
  <course>10.77</course>
  <speed>0.7234638899074369</speed>
  <fix>3d</fix>
</trkpt>
<trkpt lat="33.8101995" lon="-118.3940141">
  <ele>-0.104</ele>
  <time>2026-09-02T22:07:24Z</time>
  <course>10.77</course>
  <speed>0.7234638899074369</speed>
  <fix>3d</fix>
</trkpt>
<trkpt lat="33.8101995" lon="-118.3940141">
  <ele>-0.104</ele>
  <time>2026-09-02T22:07:24Z</time>
  <course>10.77</course>
  <speed>0.7234638899074369</speed>
  <fix>3d</fix>
</trkpt>
<trkpt lat="33.8101991" lon="-118.3940151">
  <ele>-0.1</ele>
  <time>2026-09-02T22:07:24Z</time>
  <course>47.57</course>
  <speed>0.73</speed>
  <fix>3d</fix>
</trkpt>
<trkpt lat="33.8101995" lon="-118.394014">
  <ele>-0.104</ele>
  <time>2026-09-02T22:07:24Z</time>
  <course>10.77</course>
  <speed>0.7234638899074369</speed>
  <fix>3d</fix>
</trkpt>
<trkpt lat="33.8101996" lon="-118.3940139">
  <ele>-0.105</ele>
  <time>2026-09-02T22:07:24Z</time>
  <course>10.77</course>
  <speed>0.7234638899074369</speed>
  <fix>3d</fix>
</trkpt>
<trkpt lat="33.8101996" lon="-118.3940139">
  <ele>-0.105</ele>
  <time>2026-09-02T22:07:24Z</time>
  <course>10.77</course>
  <speed>0.7234638899074369</speed>
  <fix>3d</fix>
</trkpt>
<trkpt lat="33.8101997" lon="-118.3940138">
  <ele>-0.105</ele>
  <time>2026-09-02T22:07:24Z</time>
  <course>10.77</course>
  <speed>0.7234638899074369</speed>
  <fix>3d</fix>
</trkpt>
<trkpt lat="33.8101997" lon="-118.3940138">
  <ele>-0.105</ele>
  <time>2026-09-02T22:07:24Z</time>
  <course>10.77</course>
  <speed>0.7234638899074369</speed>
  <fix>3d</fix>
</trkpt>
<trkpt lat="33.8101997" lon="-118.3940138">
  <ele>-0.105</ele>
  <time>2026-09-02T22:07:24Z</time>
  <course>10.77</course>
  <speed>0.7234638899074369</speed>
  <fix>3d</fix>
</trkpt>
<trkpt lat="33.8101998" lon="-118.3940137">
  <ele>-0.105</ele>
  <time>2026-09-02T22:07:24Z</time>
  <course>10.77</course>
  <speed>0.7234638899074369</speed>
  <fix>3d</fix>
</trkpt>
<trkpt lat="33.8101998" lon="-118.3940137">
  <ele>-0.105</ele>
  <time>2026-09-02T22:07:24Z</time>
  <course>10.77</course>
  <speed>0.7234638899074369</speed>
  <fix>3d</fix>
</trkpt>
<trkpt lat="33.8101998" lon="-118.3940136">
  <ele>-0.105</ele>
  <time>2026-09-02T22:07:24Z</time>
  <course>10.77</course>
  <speed>0.7234638899074369</speed>
  <fix>3d</fix>
</trkpt>
<trkpt lat="33.8101999" lon="-118.3940136">
  <ele>-0.105</ele>
  <time>2026-09-02T22:07:24Z</time>
  <course>10.77</course>
  <speed>0.7234638899074369</speed>
  <fix>3d</fix>
</trkpt>
<trkpt lat="33.8101999" lon="-118.3940135">
  <ele>-0.105</ele>
  <time>2026-09-02T22:07:24Z</time>
  <course>10.77</course>
  <speed>0.7234638899074369</speed>
  <fix>3d</fix>
</trkpt>
<trkpt lat="33.8101999" lon="-118.3940135">
  <ele>-0.105</ele>
  <time>2026-09-02T22:07:24Z</time>
  <course>10.77</course>
  <speed>0.7234638899074369</speed>
  <fix>3d</fix>
</trkpt>
<trkpt lat="33.8101991" lon="-118.3940151">
  <ele>-0.1</ele>
  <time>2026-09-02T22:07:24Z</time>
  <course>47.57</course>
  <speed>0.73</speed>
  <fix>3d</fix>
</trkpt>
<trkpt lat="33.8102" lon="-118.3940134">
  <ele>-0.105</ele>
  <time>2026-09-02T22:07:24Z</time>
  <course>10.77</course>
  <speed>0.7234638899074369</speed>
  <fix>3d</fix>
</trkpt>
<trkpt lat="33.8102001" lon="-118.3940133">
  <ele>-0.105</ele>
  <time>2026-09-02T22:07:24Z</time>
  <course>10.78</course>
  <speed>0.717007670809734</speed>
  <fix>3d</fix>
</trkpt>
<trkpt lat="33.8102001" lon="-118.3940133">
  <ele>-0.105</ele>
  <time>2026-09-02T22:07:24Z</time>
  <course>10.78</course>
  <speed>0.717007670809734</speed>
  <fix>3d</fix>
</trkpt>
<trkpt lat="33.8102001" lon="-118.3940132">
  <ele>-0.105</ele>
  <time>2026-09-02T22:07:24Z</time>
  <course>10.78</course>
  <speed>0.717007670809734</speed>
  <fix>3d</fix>
</trkpt>
<trkpt lat="33.8102002" lon="-118.3940131">
  <ele>-0.105</ele>
  <time>2026-09-02T22:07:24Z</time>
  <course>10.78</course>
  <speed>0.7234638899074369</speed>
  <fix>3d</fix>
</trkpt>
<trkpt lat="33.8102002" lon="-118.3940131">
  <ele>-0.105</ele>
  <time>2026-09-02T22:07:24Z</time>
  <course>10.78</course>
  <speed>0.7234638899074369</speed>
  <fix>3d</fix>
</trkpt>
<trkpt lat="33.8102003" lon="-118.394013">
  <ele>-0.105</ele>
  <time>2026-09-02T22:07:24Z</time>
  <course>10.78</course>
  <speed>0.717007670809734</speed>
  <fix>3d</fix>
</trkpt>
<trkpt lat="33.8102003" lon="-118.394013">
  <ele>-0.105</ele>
  <time>2026-09-02T22:07:24Z</time>
  <course>10.78</course>
  <speed>0.7234638899074369</speed>
  <fix>3d</fix>
</trkpt>
<trkpt lat="33.8102004" lon="-118.3940129">
  <ele>-0.105</ele>
  <time>2026-09-02T22:07:24Z</time>
  <course>10.78</course>
  <speed>0.7234638899074369</speed>
  <fix>3d</fix>
</trkpt>
<trkpt lat="33.8102004" lon="-118.3940129">
  <ele>-0.105</ele>
  <time>2026-09-02T22:07:24Z</time>
  <course>10.78</course>
  <speed>0.7234638899074369</speed>
  <fix>3d</fix>
</trkpt>
<trkpt lat="33.8101999" lon="-118.394014">
  <ele>-0.11</ele>
  <time>2026-09-02T22:07:24Z</time>
  <course>47.58</course>
  <speed>0.73</speed>
  <fix>3d</fix>
</trkpt>
<trkpt lat="33.8102004" lon="-118.3940129">
  <ele>-0.105</ele>
  <time>2026-09-02T22:07:24Z</time>
  <course>10.78</course>
  <speed>0.7234638899074369</speed>
  <fix>3d</fix>
</trkpt>
<trkpt lat="33.8102005" lon="-118.3940128">
  <ele>-0.105</ele>
  <time>2026-09-02T22:07:24Z</time>
  <course>10.78</course>
  <speed>0.7234638899074369</speed>
  <fix>3d</fix>
</trkpt>
<trkpt lat="33.8102005" lon="-118.3940128">
  <ele>-0.105</ele>
  <time>2026-09-02T22:07:24Z</time>
  <course>10.78</course>
  <speed>0.7234638899074369</speed>
  <fix>3d</fix>
</trkpt>
<trkpt lat="33.8102005" lon="-118.3940127">
  <ele>-0.105</ele>
  <time>2026-09-02T22:07:24Z</time>
  <course>10.78</course>
  <speed>0.7234638899074369</speed>
  <fix>3d</fix>
</trkpt>
<trkpt lat="33.8102006" lon="-118.3940127">
  <ele>-0.105</ele>
  <time>2026-09-02T22:07:24Z</time>
  <course>10.78</course>
  <speed>0.7234638899074369</speed>
  <fix>3d</fix>
</trkpt>
<trkpt lat="33.8102006" lon="-118.3940126">
  <ele>-0.105</ele>
  <time>2026-09-02T22:07:24Z</time>
  <course>10.78</course>
  <speed>0.717007670809734</speed>
  <fix>3d</fix>
</trkpt>
<trkpt lat="33.8102006" lon="-118.3940126">
  <ele>-0.105</ele>
  <time>2026-09-02T22:07:24Z</time>
  <course>10.78</course>
  <speed>0.717007670809734</speed>
  <fix>3d</fix>
</trkpt>
<trkpt lat="33.8102007" lon="-118.3940125">
  <ele>-0.105</ele>
  <time>2026-09-02T22:07:24Z</time>
  <course>10.78</course>
  <speed>0.717007670809734</speed>
  <fix>3d</fix>
</trkpt>
<trkpt lat="33.8102007" lon="-118.3940125">
  <ele>-0.105</ele>
  <time>2026-09-02T22:07:24Z</time>
  <course>10.78</course>
  <speed>0.717007670809734</speed>
  <fix>3d</fix>
</trkpt>
<trkpt lat="33.8102007" lon="-118.3940124">
  <ele>-0.105</ele>
  <time>2026-09-02T22:07:24Z</time>
  <course>10.79</course>
  <speed>0.717007670809734</speed>
  <fix>3d</fix>
</trkpt>
<trkpt lat="33.8102008" lon="-118.3940124">
  <ele>-0.105</ele>
  <time>2026-09-02T22:07:24Z</time>
  <course>10.79</course>
  <speed>0.717007670809734</speed>
  <fix>3d</fix>
</trkpt>
<trkpt lat="33.8102008" lon="-118.3940123">
  <ele>-0.105</ele>
  <time>2026-09-02T22:07:24Z</time>
  <course>10.79</course>
  <speed>0.717007670809734</speed>
  <fix>3d</fix>
</trkpt>
<trkpt lat="33.8101999" lon="-118.394014">
  <ele>-0.11</ele>
  <time>2026-09-02T22:07:24Z</time>
  <course>47.58</course>
  <speed>0.73</speed>
  <fix>3d</fix>
</trkpt>
<trkpt lat="33.8102008" lon="-118.3940123">
  <ele>-0.105</ele>
  <time>2026-09-02T22:07:24Z</time>
  <course>10.79</course>
  <speed>0.717007670809734</speed>
  <fix>3d</fix>
</trkpt>
<trkpt lat="33.8102009" lon="-118.3940122">
  <ele>-0.105</ele>
  <time>2026-09-02T22:07:24Z</time>
  <course>10.79</course>
  <speed>0.717007670809734</speed>
  <fix>3d</fix>
</trkpt>
<trkpt lat="33.8102009" lon="-118.3940122">
  <ele>-0.105</ele>
  <time>2026-09-02T22:07:24Z</time>
  <course>10.79</course>
  <speed>0.717007670809734</speed>
  <fix>3d</fix>
</trkpt>
<trkpt lat="33.810201" lon="-118.3940121">
  <ele>-0.105</ele>
  <time>2026-09-02T22:07:24Z</time>
  <course>10.79</course>
  <speed>0.717007670809734</speed>
  <fix>3d</fix>
</trkpt>
<trkpt lat="33.810201" lon="-118.3940121">
  <ele>-0.105</ele>
  <time>2026-09-02T22:07:24Z</time>
  <course>10.79</course>
  <speed>0.717007670809734</speed>
  <fix>3d</fix>
</trkpt>
<trkpt lat="33.810201" lon="-118.394012">
  <ele>-0.105</ele>
  <time>2026-09-02T22:07:24Z</time>
  <course>10.79</course>
  <speed>0.717007670809734</speed>
  <fix>3d</fix>
</trkpt>
<trkpt lat="33.8102011" lon="-118.394012">
  <ele>-0.105</ele>
  <time>2026-09-02T22:07:24Z</time>
  <course>10.79</course>
  <speed>0.717007670809734</speed>
  <fix>3d</fix>
</trkpt>
<trkpt lat="33.8102011" lon="-118.3940119">
  <ele>-0.105</ele>
  <time>2026-09-02T22:07:24Z</time>
  <course>10.79</course>
  <speed>0.717007670809734</speed>
  <fix>3d</fix>
</trkpt>
<trkpt lat="33.8102012" lon="-118.3940119">
  <ele>-0.105</ele>
  <time>2026-09-02T22:07:24Z</time>
  <course>10.79</course>
  <speed>0.717007670809734</speed>
  <fix>3d</fix>
</trkpt>
<trkpt lat="33.8102012" lon="-118.3940118">
  <ele>-0.105</ele>
  <time>2026-09-02T22:07:24Z</time>
  <course>10.79</course>
  <speed>0.717007670809734</speed>
  <fix>3d</fix>
</trkpt>
<trkpt lat="33.8102012" lon="-118.3940118">
  <ele>-0.105</ele>
  <time>2026-09-02T22:07:24Z</time>
  <course>10.79</course>
  <speed>0.717007670809734</speed>
  <fix>3d</fix>
</trkpt>
<trkpt lat="33.8102013" lon="-118.3940117">
  <ele>-0.105</ele>
  <time>2026-09-02T22:07:24Z</time>
  <course>10.79</course>
  <speed>0.717007670809734</speed>
  <fix>3d</fix>
</trkpt>
<trkpt lat="33.8102013" lon="-118.3940117">
  <ele>-0.105</ele>
  <time>2026-09-02T22:07:24Z</time>
  <course>10.79</course>
  <speed>0.717007670809734</speed>
  <fix>3d</fix>
</trkpt>
<trkpt lat="33.8102008" lon="-118.3940127">
  <ele>-0.1</ele>
  <time>2026-09-02T22:07:24Z</time>
  <course>47.6</course>
  <speed>0.73</speed>
  <fix>3d</fix>
</trkpt>
<trkpt lat="33.8102013" lon="-118.3940117">
  <ele>-0.105</ele>
  <time>2026-09-02T22:07:24Z</time>
  <course>10.79</course>
  <speed>0.717007670809734</speed>
  <fix>3d</fix>
</trkpt>
<trkpt lat="33.8102014" lon="-118.3940116">
  <ele>-0.105</ele>
  <time>2026-09-02T22:07:24Z</time>
  <course>10.79</course>
  <speed>0.717007670809734</speed>
  <fix>3d</fix>
</trkpt>
<trkpt lat="33.8102014" lon="-118.3940115">
  <ele>-0.105</ele>
  <time>2026-09-02T22:07:24Z</time>
  <course>10.79</course>
  <speed>0.717007670809734</speed>
  <fix>3d</fix>
</trkpt>
<trkpt lat="33.8102014" lon="-118.3940115">
  <ele>-0.105</ele>
  <time>2026-09-02T22:07:24Z</time>
  <course>10.8</course>
  <speed>0.717007670809734</speed>
  <fix>3d</fix>
</trkpt>
<trkpt lat="33.8102015" lon="-118.3940115">
  <ele>-0.105</ele>
  <time>2026-09-02T22:07:24Z</time>
  <course>10.8</course>
  <speed>0.717007670809734</speed>
  <fix>3d</fix>
</trkpt>
<trkpt lat="33.8102015" lon="-118.3940114">
  <ele>-0.105</ele>
  <time>2026-09-02T22:07:24Z</time>
  <course>10.8</course>
  <speed>0.717007670809734</speed>
  <fix>3d</fix>
</trkpt>
<trkpt lat="33.8102016" lon="-118.3940113">
  <ele>-0.105</ele>
  <time>2026-09-02T22:07:24Z</time>
  <course>10.8</course>
  <speed>0.717007670809734</speed>
  <fix>3d</fix>
</trkpt>
<trkpt lat="33.8102016" lon="-118.3940113">
  <ele>-0.105</ele>
  <time>2026-09-02T22:07:24Z</time>
  <course>10.8</course>
  <speed>0.717007670809734</speed>
  <fix>3d</fix>
</trkpt>
<trkpt lat="33.8102016" lon="-118.3940112">
  <ele>-0.105</ele>
  <time>2026-09-02T22:07:24Z</time>
  <course>10.8</course>
  <speed>0.717007670809734</speed>
  <fix>3d</fix>
</trkpt>
<trkpt lat="33.8102017" lon="-118.3940112">
  <ele>-0.105</ele>
  <time>2026-09-02T22:07:24Z</time>
  <course>10.8</course>
  <speed>0.717007670809734</speed>
  <fix>3d</fix>
</trkpt>
<trkpt lat="33.8102017" lon="-118.3940112">
  <ele>-0.105</ele>
  <time>2026-09-02T22:07:24Z</time>
  <course>10.8</course>
  <speed>0.717007670809734</speed>
  <fix>3d</fix>
</trkpt>
<trkpt lat="33.8102008" lon="-118.3940127">
  <ele>-0.1</ele>
  <time>2026-09-02T22:07:24Z</time>
  <course>47.6</course>
  <speed>0.73</speed>
  <fix>3d</fix>
</trkpt>
<trkpt lat="33.8102017" lon="-118.3940111">
  <ele>-0.105</ele>
  <time>2026-09-02T22:07:24Z</time>
  <course>10.8</course>
  <speed>0.717007670809734</speed>
  <fix>3d</fix>
</trkpt>
<trkpt lat="33.8102018" lon="-118.3940111">
  <ele>-0.105</ele>
  <time>2026-09-02T22:07:24Z</time>
  <course>10.8</course>
  <speed>0.717007670809734</speed>
  <fix>3d</fix>
</trkpt>
<trkpt lat="33.8102018" lon="-118.394011">
  <ele>-0.105</ele>
  <time>2026-09-02T22:07:24Z</time>
  <course>10.8</course>
  <speed>0.717007670809734</speed>
  <fix>3d</fix>
</trkpt>
<trkpt lat="33.8102018" lon="-118.3940109">
  <ele>-0.105</ele>
  <time>2026-09-02T22:07:24Z</time>
  <course>10.8</course>
  <speed>0.717007670809734</speed>
  <fix>3d</fix>
</trkpt>
<trkpt lat="33.8102019" lon="-118.3940109">
  <ele>-0.105</ele>
  <time>2026-09-02T22:07:24Z</time>
  <course>10.8</course>
  <speed>0.717007670809734</speed>
  <fix>3d</fix>
</trkpt>
<trkpt lat="33.8102019" lon="-118.3940109">
  <ele>-0.105</ele>
  <time>2026-09-02T22:07:24Z</time>
  <course>10.8</course>
  <speed>0.717007670809734</speed>
  <fix>3d</fix>
</trkpt>
<trkpt lat="33.810202" lon="-118.3940108">
  <ele>-0.105</ele>
  <time>2026-09-02T22:07:24Z</time>
  <course>10.8</course>
  <speed>0.717007670809734</speed>
  <fix>3d</fix>
</trkpt>
<trkpt lat="33.810202" lon="-118.3940108">
  <ele>-0.105</ele>
  <time>2026-09-02T22:07:24Z</time>
  <course>10.8</course>
  <speed>0.717007670809734</speed>
  <fix>3d</fix>
</trkpt>
<trkpt lat="33.810202" lon="-118.3940107">
  <ele>-0.105</ele>
  <time>2026-09-02T22:07:24Z</time>
  <course>10.8</course>
  <speed>0.717007670809734</speed>
  <fix>3d</fix>
</trkpt>
<trkpt lat="33.8102021" lon="-118.3940107">
  <ele>-0.105</ele>
  <time>2026-09-02T22:07:24Z</time>
  <course>10.8</course>
  <speed>0.717007670809734</speed>
  <fix>3d</fix>
</trkpt>
<trkpt lat="33.8102021" lon="-118.3940106">
  <ele>-0.105</ele>
  <time>2026-09-02T22:07:24Z</time>
  <course>10.8</course>
  <speed>0.717007670809734</speed>
  <fix>3d</fix>
</trkpt>
<trkpt lat="33.8102021" lon="-118.3940106">
  <ele>-0.105</ele>
  <time>2026-09-02T22:07:24Z</time>
  <course>10.81</course>
  <speed>0.717007670809734</speed>
  <fix>3d</fix>
</trkpt>
<trkpt lat="33.8102021" lon="-118.3940106">
  <ele>-0.105</ele>
  <time>2026-09-02T22:07:24Z</time>
  <course>10.81</course>
  <speed>0.717007670809734</speed>
  <fix>3d</fix>
</trkpt>
<trkpt lat="33.8102017" lon="-118.3940116">
  <ele>-0.1</ele>
  <time>2026-09-02T22:07:24Z</time>
  <course>47.61</course>
  <speed>0.73</speed>
  <fix>3d</fix>
</trkpt>
<trkpt lat="33.8102022" lon="-118.3940105">
  <ele>-0.105</ele>
  <time>2026-09-02T22:07:24Z</time>
  <course>10.81</course>
  <speed>0.717007670809734</speed>
  <fix>3d</fix>
</trkpt>
<trkpt lat="33.8102023" lon="-118.3940104">
  <ele>-0.105</ele>
  <time>2026-09-02T22:07:24Z</time>
  <course>10.81</course>
  <speed>0.717007670809734</speed>
  <fix>3d</fix>
</trkpt>
<trkpt lat="33.8102023" lon="-118.3940103">
  <ele>-0.105</ele>
  <time>2026-09-02T22:07:24Z</time>
  <course>10.81</course>
  <speed>0.717007670809734</speed>
  <fix>3d</fix>
</trkpt>
<trkpt lat="33.8102023" lon="-118.3940103">
  <ele>-0.106</ele>
  <time>2026-09-02T22:07:24Z</time>
  <course>10.81</course>
  <speed>0.717007670809734</speed>
  <fix>3d</fix>
</trkpt>
<trkpt lat="33.8102024" lon="-118.3940102">
  <ele>-0.106</ele>
  <time>2026-09-02T22:07:24Z</time>
  <course>10.81</course>
  <speed>0.717007670809734</speed>
  <fix>3d</fix>
</trkpt>
<trkpt lat="33.8102024" lon="-118.3940102">
  <ele>-0.106</ele>
  <time>2026-09-02T22:07:24Z</time>
  <course>10.81</course>
  <speed>0.717007670809734</speed>
  <fix>3d</fix>
</trkpt>
<trkpt lat="33.8102025" lon="-118.3940101">
  <ele>-0.106</ele>
  <time>2026-09-02T22:07:25Z</time>
  <course>10.81</course>
  <speed>0.717007670809734</speed>
  <fix>3d</fix>
</trkpt>
<trkpt lat="33.8102025" lon="-118.3940101">
  <ele>-0.106</ele>
  <time>2026-09-02T22:07:25Z</time>
  <course>10.81</course>
  <speed>0.717007670809734</speed>
  <fix>3d</fix>
</trkpt>
<trkpt lat="33.8102025" lon="-118.3940101">
  <ele>-0.106</ele>
  <time>2026-09-02T22:07:25Z</time>
  <course>10.81</course>
  <speed>0.717007670809734</speed>
  <fix>3d</fix>
</trkpt>
<trkpt lat="33.8102026" lon="-118.39401">
  <ele>-0.106</ele>
  <time>2026-09-02T22:07:25Z</time>
  <course>10.81</course>
  <speed>0.717007670809734</speed>
  <fix>3d</fix>
</trkpt>
<trkpt lat="33.8102026" lon="-118.39401">
  <ele>-0.106</ele>
  <time>2026-09-02T22:07:25Z</time>
  <course>10.81</course>
  <speed>0.717007670809734</speed>
  <fix>3d</fix>
</trkpt>
<trkpt lat="33.8102017" lon="-118.3940116">
  <ele>-0.1</ele>
  <time>2026-09-02T22:07:25Z</time>
  <course>47.61</course>
  <speed>0.73</speed>
  <fix>3d</fix>
</trkpt>
<trkpt lat="33.8102026" lon="-118.39401">
  <ele>-0.106</ele>
  <time>2026-09-02T22:07:25Z</time>
  <course>10.81</course>
  <speed>0.717007670809734</speed>
  <fix>3d</fix>
</trkpt>
<trkpt lat="33.8102027" lon="-118.3940099">
  <ele>-0.106</ele>
  <time>2026-09-02T22:07:25Z</time>
  <course>10.81</course>
  <speed>0.717007670809734</speed>
  <fix>3d</fix>
</trkpt>
<trkpt lat="33.8102027" lon="-118.3940098">
  <ele>-0.106</ele>
  <time>2026-09-02T22:07:25Z</time>
  <course>10.81</course>
  <speed>0.717007670809734</speed>
  <fix>3d</fix>
</trkpt>
<trkpt lat="33.8102027" lon="-118.3940098">
  <ele>-0.107</ele>
  <time>2026-09-02T22:07:25Z</time>
  <course>10.81</course>
  <speed>0.717007670809734</speed>
  <fix>3d</fix>
</trkpt>
<trkpt lat="33.8102028" lon="-118.3940097">
  <ele>-0.107</ele>
  <time>2026-09-02T22:07:25Z</time>
  <course>10.82</course>
  <speed>0.717007670809734</speed>
  <fix>3d</fix>
</trkpt>
<trkpt lat="33.8102028" lon="-118.3940097">
  <ele>-0.107</ele>
  <time>2026-09-02T22:07:25Z</time>
  <course>10.82</course>
  <speed>0.717007670809734</speed>
  <fix>3d</fix>
</trkpt>
<trkpt lat="33.8102028" lon="-118.3940096">
  <ele>-0.107</ele>
  <time>2026-09-02T22:07:25Z</time>
  <course>10.82</course>
  <speed>0.717007670809734</speed>
  <fix>3d</fix>
</trkpt>
<trkpt lat="33.8102029" lon="-118.3940096">
  <ele>-0.107</ele>
  <time>2026-09-02T22:07:25Z</time>
  <course>10.82</course>
  <speed>0.717007670809734</speed>
  <fix>3d</fix>
</trkpt>
<trkpt lat="33.8102029" lon="-118.3940095">
  <ele>-0.107</ele>
  <time>2026-09-02T22:07:25Z</time>
  <course>10.82</course>
  <speed>0.717007670809734</speed>
  <fix>3d</fix>
</trkpt>
<trkpt lat="33.8102029" lon="-118.3940095">
  <ele>-0.107</ele>
  <time>2026-09-02T22:07:25Z</time>
  <course>10.82</course>
  <speed>0.717007670809734</speed>
  <fix>3d</fix>
</trkpt>
<trkpt lat="33.810203" lon="-118.3940095">
  <ele>-0.108</ele>
  <time>2026-09-02T22:07:25Z</time>
  <course>10.82</course>
  <speed>0.717007670809734</speed>
  <fix>3d</fix>
</trkpt>
<trkpt lat="33.810203" lon="-118.3940094">
  <ele>-0.108</ele>
  <time>2026-09-02T22:07:25Z</time>
  <course>10.82</course>
  <speed>0.717007670809734</speed>
  <fix>3d</fix>
</trkpt>
<trkpt lat="33.810203" lon="-118.3940094">
  <ele>-0.108</ele>
  <time>2026-09-02T22:07:25Z</time>
  <course>10.82</course>
  <speed>0.717007670809734</speed>
  <fix>3d</fix>
</trkpt>
<trkpt lat="33.8102026" lon="-118.3940104">
  <ele>-0.1</ele>
  <time>2026-09-02T22:07:25Z</time>
  <course>47.62</course>
  <speed>0.73</speed>
  <fix>3d</fix>
</trkpt>
<trkpt lat="33.810203" lon="-118.3940094">
  <ele>-0.108</ele>
  <time>2026-09-02T22:07:25Z</time>
  <course>10.82</course>
  <speed>0.717007670809734</speed>
  <fix>3d</fix>
</trkpt>
<trkpt lat="33.8102031" lon="-118.3940093">
  <ele>-0.108</ele>
  <time>2026-09-02T22:07:25Z</time>
  <course>10.82</course>
  <speed>0.717007670809734</speed>
  <fix>3d</fix>
</trkpt>
<trkpt lat="33.8102031" lon="-118.3940092">
  <ele>-0.108</ele>
  <time>2026-09-02T22:07:25Z</time>
  <course>10.82</course>
  <speed>0.717007670809734</speed>
  <fix>3d</fix>
</trkpt>
<trkpt lat="33.8102032" lon="-118.3940092">
  <ele>-0.108</ele>
  <time>2026-09-02T22:07:25Z</time>
  <course>10.82</course>
  <speed>0.717007670809734</speed>
  <fix>3d</fix>
</trkpt>
<trkpt lat="33.8102032" lon="-118.3940091">
  <ele>-0.109</ele>
  <time>2026-09-02T22:07:25Z</time>
  <course>10.82</course>
  <speed>0.717007670809734</speed>
  <fix>3d</fix>
</trkpt>
<trkpt lat="33.8102033" lon="-118.3940091">
  <ele>-0.109</ele>
  <time>2026-09-02T22:07:25Z</time>
  <course>10.82</course>
  <speed>0.717007670809734</speed>
  <fix>3d</fix>
</trkpt>
<trkpt lat="33.8102033" lon="-118.394009">
  <ele>-0.109</ele>
  <time>2026-09-02T22:07:25Z</time>
  <course>10.82</course>
  <speed>0.717007670809734</speed>
  <fix>3d</fix>
</trkpt>
<trkpt lat="33.8102033" lon="-118.394009">
  <ele>-0.109</ele>
  <time>2026-09-02T22:07:25Z</time>
  <course>10.82</course>
  <speed>0.717007670809734</speed>
  <fix>3d</fix>
</trkpt>
<trkpt lat="33.8102034" lon="-118.394009">
  <ele>-0.109</ele>
  <time>2026-09-02T22:07:25Z</time>
  <course>10.82</course>
  <speed>0.717007670809734</speed>
  <fix>3d</fix>
</trkpt>
<trkpt lat="33.8102034" lon="-118.3940089">
  <ele>-0.109</ele>
  <time>2026-09-02T22:07:25Z</time>
  <course>10.82</course>
  <speed>0.717007670809734</speed>
  <fix>3d</fix>
</trkpt>
<trkpt lat="33.8102034" lon="-118.3940088">
  <ele>-0.109</ele>
  <time>2026-09-02T22:07:25Z</time>
  <course>10.82</course>
  <speed>0.717007670809734</speed>
  <fix>3d</fix>
</trkpt>
<trkpt lat="33.8102035" lon="-118.3940088">
  <ele>-0.11</ele>
  <time>2026-09-02T22:07:25Z</time>
  <course>10.82</course>
  <speed>0.717007670809734</speed>
  <fix>3d</fix>
</trkpt>
<trkpt lat="33.8102026" lon="-118.3940104">
  <ele>-0.1</ele>
  <time>2026-09-02T22:07:25Z</time>
  <course>47.62</course>
  <speed>0.73</speed>
  <fix>3d</fix>
</trkpt>
<trkpt lat="33.8102035" lon="-118.3940088">
  <ele>-0.11</ele>
  <time>2026-09-02T22:07:25Z</time>
  <course>10.82</course>
  <speed>0.717007670809734</speed>
  <fix>3d</fix>
</trkpt>
<trkpt lat="33.8102035" lon="-118.3940087">
  <ele>-0.11</ele>
  <time>2026-09-02T22:07:25Z</time>
  <course>10.83</course>
  <speed>0.717007670809734</speed>
  <fix>3d</fix>
</trkpt>
<trkpt lat="33.8102036" lon="-118.3940087">
  <ele>-0.11</ele>
  <time>2026-09-02T22:07:25Z</time>
  <course>10.83</course>
  <speed>0.717007670809734</speed>
  <fix>3d</fix>
</trkpt>
<trkpt lat="33.8102036" lon="-118.3940086">
  <ele>-0.11</ele>
  <time>2026-09-02T22:07:25Z</time>
  <course>10.83</course>
  <speed>0.717007670809734</speed>
  <fix>3d</fix>
</trkpt>
<trkpt lat="33.8102036" lon="-118.3940086">
  <ele>-0.11</ele>
  <time>2026-09-02T22:07:25Z</time>
  <course>10.83</course>
  <speed>0.717007670809734</speed>
  <fix>3d</fix>
</trkpt>
<trkpt lat="33.8102037" lon="-118.3940085">
  <ele>-0.11</ele>
  <time>2026-09-02T22:07:25Z</time>
  <course>10.83</course>
  <speed>0.717007670809734</speed>
  <fix>3d</fix>
</trkpt>
<trkpt lat="33.8102037" lon="-118.3940085">
  <ele>-0.11</ele>
  <time>2026-09-02T22:07:25Z</time>
  <course>10.83</course>
  <speed>0.717007670809734</speed>
  <fix>3d</fix>
</trkpt>
<trkpt lat="33.8102038" lon="-118.3940084">
  <ele>-0.111</ele>
  <time>2026-09-02T22:07:25Z</time>
  <course>10.83</course>
  <speed>0.717007670809734</speed>
  <fix>3d</fix>
</trkpt>
<trkpt lat="33.8102038" lon="-118.3940084">
  <ele>-0.111</ele>
  <time>2026-09-02T22:07:25Z</time>
  <course>10.83</course>
  <speed>0.717007670809734</speed>
  <fix>3d</fix>
</trkpt>
<trkpt lat="33.8102038" lon="-118.3940083">
  <ele>-0.111</ele>
  <time>2026-09-02T22:07:25Z</time>
  <course>10.83</course>
  <speed>0.717007670809734</speed>
  <fix>3d</fix>
</trkpt>
<trkpt lat="33.8102039" lon="-118.3940083">
  <ele>-0.111</ele>
  <time>2026-09-02T22:07:25Z</time>
  <course>10.83</course>
  <speed>0.717007670809734</speed>
  <fix>3d</fix>
</trkpt>
<trkpt lat="33.8102039" lon="-118.3940082">
  <ele>-0.111</ele>
  <time>2026-09-02T22:07:25Z</time>
  <course>10.83</course>
  <speed>0.717007670809734</speed>
  <fix>3d</fix>
</trkpt>
<trkpt lat="33.8102039" lon="-118.3940082">
  <ele>-0.111</ele>
  <time>2026-09-02T22:07:25Z</time>
  <course>10.83</course>
  <speed>0.717007670809734</speed>
  <fix>3d</fix>
</trkpt>
<trkpt lat="33.8102035" lon="-118.3940093">
  <ele>-0.1</ele>
  <time>2026-09-02T22:07:25Z</time>
  <course>47.63</course>
  <speed>0.73</speed>
  <fix>3d</fix>
</trkpt>
<trkpt lat="33.8102039" lon="-118.3940082">
  <ele>-0.111</ele>
  <time>2026-09-02T22:07:25Z</time>
  <course>10.83</course>
  <speed>0.717007670809734</speed>
  <fix>3d</fix>
</trkpt>
<trkpt lat="33.810204" lon="-118.3940081">
  <ele>-0.111</ele>
  <time>2026-09-02T22:07:25Z</time>
  <course>10.83</course>
  <speed>0.717007670809734</speed>
  <fix>3d</fix>
</trkpt>
<trkpt lat="33.810204" lon="-118.3940081">
  <ele>-0.112</ele>
  <time>2026-09-02T22:07:25Z</time>
  <course>10.83</course>
  <speed>0.717007670809734</speed>
  <fix>3d</fix>
</trkpt>
<trkpt lat="33.810204" lon="-118.394008">
  <ele>-0.112</ele>
  <time>2026-09-02T22:07:25Z</time>
  <course>10.83</course>
  <speed>0.717007670809734</speed>
  <fix>3d</fix>
</trkpt>
<trkpt lat="33.8102041" lon="-118.394008">
  <ele>-0.112</ele>
  <time>2026-09-02T22:07:25Z</time>
  <course>10.83</course>
  <speed>0.717007670809734</speed>
  <fix>3d</fix>
</trkpt>
<trkpt lat="33.8102041" lon="-118.394008">
  <ele>-0.112</ele>
  <time>2026-09-02T22:07:25Z</time>
  <course>10.83</course>
  <speed>0.717007670809734</speed>
  <fix>3d</fix>
</trkpt>
<trkpt lat="33.8102041" lon="-118.3940079">
  <ele>-0.112</ele>
  <time>2026-09-02T22:07:25Z</time>
  <course>10.83</course>
  <speed>0.717007670809734</speed>
  <fix>3d</fix>
</trkpt>
<trkpt lat="33.8102042" lon="-118.3940079">
  <ele>-0.112</ele>
  <time>2026-09-02T22:07:25Z</time>
  <course>10.83</course>
  <speed>0.717007670809734</speed>
  <fix>3d</fix>
</trkpt>
<trkpt lat="33.8102042" lon="-118.3940078">
  <ele>-0.112</ele>
  <time>2026-09-02T22:07:25Z</time>
  <course>10.84</course>
  <speed>0.717007670809734</speed>
  <fix>3d</fix>
</trkpt>
<trkpt lat="33.8102043" lon="-118.3940078">
  <ele>-0.112</ele>
  <time>2026-09-02T22:07:25Z</time>
  <course>10.84</course>
  <speed>0.717007670809734</speed>
  <fix>3d</fix>
</trkpt>
<trkpt lat="33.8102043" lon="-118.3940077">
  <ele>-0.113</ele>
  <time>2026-09-02T22:07:25Z</time>
  <course>10.84</course>
  <speed>0.717007670809734</speed>
  <fix>3d</fix>
</trkpt>
<trkpt lat="33.8102043" lon="-118.3940077">
  <ele>-0.113</ele>
  <time>2026-09-02T22:07:25Z</time>
  <course>10.84</course>
  <speed>0.717007670809734</speed>
  <fix>3d</fix>
</trkpt>
<trkpt lat="33.8102044" lon="-118.3940076">
  <ele>-0.113</ele>
  <time>2026-09-02T22:07:25Z</time>
  <course>10.84</course>
  <speed>0.717007670809734</speed>
  <fix>3d</fix>
</trkpt>
<trkpt lat="33.8102044" lon="-118.3940076">
  <ele>-0.113</ele>
  <time>2026-09-02T22:07:25Z</time>
  <course>10.84</course>
  <speed>0.717007670809734</speed>
  <fix>3d</fix>
</trkpt>
<trkpt lat="33.8102035" lon="-118.3940093">
  <ele>-0.1</ele>
  <time>2026-09-02T22:07:25Z</time>
  <course>47.63</course>
  <speed>0.73</speed>
  <fix>3d</fix>
</trkpt>
<trkpt lat="33.8102044" lon="-118.3940075">
  <ele>-0.113</ele>
  <time>2026-09-02T22:07:25Z</time>
  <course>10.84</course>
  <speed>0.717007670809734</speed>
  <fix>3d</fix>
</trkpt>
<trkpt lat="33.8102045" lon="-118.3940075">
  <ele>-0.113</ele>
  <time>2026-09-02T22:07:25Z</time>
  <course>10.84</course>
  <speed>0.717007670809734</speed>
  <fix>3d</fix>
</trkpt>
<trkpt lat="33.8102045" lon="-118.3940074">
  <ele>-0.113</ele>
  <time>2026-09-02T22:07:25Z</time>
  <course>10.84</course>
  <speed>0.717007670809734</speed>
  <fix>3d</fix>
</trkpt>
<trkpt lat="33.8102045" lon="-118.3940074">
  <ele>-0.113</ele>
  <time>2026-09-02T22:07:25Z</time>
  <course>10.84</course>
  <speed>0.717007670809734</speed>
  <fix>3d</fix>
</trkpt>
<trkpt lat="33.8102046" lon="-118.3940074">
  <ele>-0.114</ele>
  <time>2026-09-02T22:07:25Z</time>
  <course>10.84</course>
  <speed>0.717007670809734</speed>
  <fix>3d</fix>
</trkpt>
<trkpt lat="33.8102046" lon="-118.3940073">
  <ele>-0.114</ele>
  <time>2026-09-02T22:07:25Z</time>
  <course>10.84</course>
  <speed>0.717007670809734</speed>
  <fix>3d</fix>
</trkpt>
<trkpt lat="33.8102046" lon="-118.3940072">
  <ele>-0.114</ele>
  <time>2026-09-02T22:07:25Z</time>
  <course>10.84</course>
  <speed>0.717007670809734</speed>
  <fix>3d</fix>
</trkpt>
<trkpt lat="33.8102047" lon="-118.3940072">
  <ele>-0.114</ele>
  <time>2026-09-02T22:07:25Z</time>
  <course>10.84</course>
  <speed>0.717007670809734</speed>
  <fix>3d</fix>
</trkpt>
<trkpt lat="33.8102047" lon="-118.3940071">
  <ele>-0.114</ele>
  <time>2026-09-02T22:07:25Z</time>
  <course>10.84</course>
  <speed>0.717007670809734</speed>
  <fix>3d</fix>
</trkpt>
<trkpt lat="33.8102048" lon="-118.3940071">
  <ele>-0.114</ele>
  <time>2026-09-02T22:07:25Z</time>
  <course>10.84</course>
  <speed>0.717007670809734</speed>
  <fix>3d</fix>
</trkpt>
<trkpt lat="33.8102048" lon="-118.3940071">
  <ele>-0.115</ele>
  <time>2026-09-02T22:07:25Z</time>
  <course>10.84</course>
  <speed>0.717007670809734</speed>
  <fix>3d</fix>
</trkpt>
<trkpt lat="33.8102048" lon="-118.394007">
  <ele>-0.115</ele>
  <time>2026-09-02T22:07:25Z</time>
  <course>10.84</course>
  <speed>0.717007670809734</speed>
  <fix>3d</fix>
</trkpt>
<trkpt lat="33.8102044" lon="-118.3940081">
  <ele>-0.1</ele>
  <time>2026-09-02T22:07:25Z</time>
  <course>47.65</course>
  <speed>0.73</speed>
  <fix>3d</fix>
</trkpt>
<trkpt lat="33.8102048" lon="-118.394007">
  <ele>-0.115</ele>
  <time>2026-09-02T22:07:25Z</time>
  <course>10.84</course>
  <speed>0.717007670809734</speed>
  <fix>3d</fix>
</trkpt>
<trkpt lat="33.8102049" lon="-118.3940069">
  <ele>-0.115</ele>
  <time>2026-09-02T22:07:25Z</time>
  <course>10.85</course>
  <speed>0.717007670809734</speed>
  <fix>3d</fix>
</trkpt>
<trkpt lat="33.810205" lon="-118.3940068">
  <ele>-0.115</ele>
  <time>2026-09-02T22:07:25Z</time>
  <course>10.85</course>
  <speed>0.717007670809734</speed>
  <fix>3d</fix>
</trkpt>
<trkpt lat="33.810205" lon="-118.3940068">
  <ele>-0.116</ele>
  <time>2026-09-02T22:07:25Z</time>
  <course>10.85</course>
  <speed>0.717007670809734</speed>
  <fix>3d</fix>
</trkpt>
<trkpt lat="33.810205" lon="-118.3940067">
  <ele>-0.116</ele>
  <time>2026-09-02T22:07:25Z</time>
  <course>10.85</course>
  <speed>0.717007670809734</speed>
  <fix>3d</fix>
</trkpt>
<trkpt lat="33.8102051" lon="-118.3940067">
  <ele>-0.116</ele>
  <time>2026-09-02T22:07:25Z</time>
  <course>10.85</course>
  <speed>0.717007670809734</speed>
  <fix>3d</fix>
</trkpt>
<trkpt lat="33.8102051" lon="-118.3940066">
  <ele>-0.116</ele>
  <time>2026-09-02T22:07:25Z</time>
  <course>10.85</course>
  <speed>0.717007670809734</speed>
  <fix>3d</fix>
</trkpt>
<trkpt lat="33.8102052" lon="-118.3940066">
  <ele>-0.116</ele>
  <time>2026-09-02T22:07:25Z</time>
  <course>10.85</course>
  <speed>0.717007670809734</speed>
  <fix>3d</fix>
</trkpt>
<trkpt lat="33.8102052" lon="-118.3940065">
  <ele>-0.116</ele>
  <time>2026-09-02T22:07:25Z</time>
  <course>10.85</course>
  <speed>0.717007670809734</speed>
  <fix>3d</fix>
</trkpt>
<trkpt lat="33.8102052" lon="-118.3940065">
  <ele>-0.116</ele>
  <time>2026-09-02T22:07:25Z</time>
  <course>10.85</course>
  <speed>0.717007670809734</speed>
  <fix>3d</fix>
</trkpt>
<trkpt lat="33.8102052" lon="-118.3940065">
  <ele>-0.116</ele>
  <time>2026-09-02T22:07:25Z</time>
  <course>10.85</course>
  <speed>0.717007670809734</speed>
  <fix>3d</fix>
</trkpt>
<trkpt lat="33.8102044" lon="-118.3940081">
  <ele>-0.1</ele>
  <time>2026-09-02T22:07:25Z</time>
  <course>47.65</course>
  <speed>0.73</speed>
  <fix>3d</fix>
</trkpt>
<trkpt lat="33.8102053" lon="-118.3940064">
  <ele>-0.117</ele>
  <time>2026-09-02T22:07:25Z</time>
  <course>10.85</course>
  <speed>0.717007670809734</speed>
  <fix>3d</fix>
</trkpt>
<trkpt lat="33.8102053" lon="-118.3940063">
  <ele>-0.117</ele>
  <time>2026-09-02T22:07:25Z</time>
  <course>10.85</course>
  <speed>0.717007670809734</speed>
  <fix>3d</fix>
</trkpt>
<trkpt lat="33.8102054" lon="-118.3940063">
  <ele>-0.117</ele>
  <time>2026-09-02T22:07:25Z</time>
  <course>10.85</course>
  <speed>0.717007670809734</speed>
  <fix>3d</fix>
</trkpt>
<trkpt lat="33.8102054" lon="-118.3940062">
  <ele>-0.117</ele>
  <time>2026-09-02T22:07:25Z</time>
  <course>10.85</course>
  <speed>0.717007670809734</speed>
  <fix>3d</fix>
</trkpt>
<trkpt lat="33.8102055" lon="-118.3940062">
  <ele>-0.117</ele>
  <time>2026-09-02T22:07:25Z</time>
  <course>10.85</course>
  <speed>0.717007670809734</speed>
  <fix>3d</fix>
</trkpt>
<trkpt lat="33.8102055" lon="-118.3940061">
  <ele>-0.117</ele>
  <time>2026-09-02T22:07:25Z</time>
  <course>10.85</course>
  <speed>0.717007670809734</speed>
  <fix>3d</fix>
</trkpt>
<trkpt lat="33.8102055" lon="-118.3940061">
  <ele>-0.117</ele>
  <time>2026-09-02T22:07:25Z</time>
  <course>10.85</course>
  <speed>0.717007670809734</speed>
  <fix>3d</fix>
</trkpt>
<trkpt lat="33.8102056" lon="-118.394006">
  <ele>-0.117</ele>
  <time>2026-09-02T22:07:25Z</time>
  <course>10.85</course>
  <speed>0.717007670809734</speed>
  <fix>3d</fix>
</trkpt>
<trkpt lat="33.8102056" lon="-118.394006">
  <ele>-0.117</ele>
  <time>2026-09-02T22:07:25Z</time>
  <course>10.86</course>
  <speed>0.717007670809734</speed>
  <fix>3d</fix>
</trkpt>
<trkpt lat="33.8102057" lon="-118.3940059">
  <ele>-0.117</ele>
  <time>2026-09-02T22:07:25Z</time>
  <course>10.86</course>
  <speed>0.717007670809734</speed>
  <fix>3d</fix>
</trkpt>
<trkpt lat="33.8102057" lon="-118.3940059">
  <ele>-0.117</ele>
  <time>2026-09-02T22:07:25Z</time>
  <course>10.86</course>
  <speed>0.717007670809734</speed>
  <fix>3d</fix>
</trkpt>
<trkpt lat="33.8102053" lon="-118.3940069">
  <ele>-0.1</ele>
  <time>2026-09-02T22:07:25Z</time>
  <course>47.66</course>
  <speed>0.73</speed>
  <fix>3d</fix>
</trkpt>
<trkpt lat="33.8102057" lon="-118.3940059">
  <ele>-0.117</ele>
  <time>2026-09-02T22:07:25Z</time>
  <course>10.86</course>
  <speed>0.717007670809734</speed>
  <fix>3d</fix>
</trkpt>
<trkpt lat="33.8102058" lon="-118.3940058">
  <ele>-0.118</ele>
  <time>2026-09-02T22:07:25Z</time>
  <course>10.86</course>
  <speed>0.717007670809734</speed>
  <fix>3d</fix>
</trkpt>
<trkpt lat="33.8102058" lon="-118.3940057">
  <ele>-0.118</ele>
  <time>2026-09-02T22:07:25Z</time>
  <course>10.86</course>
  <speed>0.717007670809734</speed>
  <fix>3d</fix>
</trkpt>
<trkpt lat="33.8102058" lon="-118.3940057">
  <ele>-0.118</ele>
  <time>2026-09-02T22:07:25Z</time>
  <course>10.86</course>
  <speed>0.717007670809734</speed>
  <fix>3d</fix>
</trkpt>
<trkpt lat="33.8102059" lon="-118.3940056">
  <ele>-0.118</ele>
  <time>2026-09-02T22:07:25Z</time>
  <course>10.86</course>
  <speed>0.717007670809734</speed>
  <fix>3d</fix>
</trkpt>
<trkpt lat="33.8102059" lon="-118.3940056">
  <ele>-0.118</ele>
  <time>2026-09-02T22:07:25Z</time>
  <course>10.86</course>
  <speed>0.717007670809734</speed>
  <fix>3d</fix>
</trkpt>
<trkpt lat="33.8102059" lon="-118.3940055">
  <ele>-0.118</ele>
  <time>2026-09-02T22:07:25Z</time>
  <course>10.86</course>
  <speed>0.717007670809734</speed>
  <fix>3d</fix>
</trkpt>
<trkpt lat="33.810206" lon="-118.3940055">
  <ele>-0.118</ele>
  <time>2026-09-02T22:07:25Z</time>
  <course>10.86</course>
  <speed>0.717007670809734</speed>
  <fix>3d</fix>
</trkpt>
<trkpt lat="33.810206" lon="-118.3940054">
  <ele>-0.118</ele>
  <time>2026-09-02T22:07:25Z</time>
  <course>10.86</course>
  <speed>0.717007670809734</speed>
  <fix>3d</fix>
</trkpt>
<trkpt lat="33.810206" lon="-118.3940054">
  <ele>-0.118</ele>
  <time>2026-09-02T22:07:25Z</time>
  <course>10.86</course>
  <speed>0.717007670809734</speed>
  <fix>3d</fix>
</trkpt>
<trkpt lat="33.8102061" lon="-118.3940053">
  <ele>-0.118</ele>
  <time>2026-09-02T22:07:25Z</time>
  <course>10.86</course>
  <speed>0.717007670809734</speed>
  <fix>3d</fix>
</trkpt>
<trkpt lat="33.8102061" lon="-118.3940053">
  <ele>-0.118</ele>
  <time>2026-09-02T22:07:25Z</time>
  <course>10.86</course>
  <speed>0.717007670809734</speed>
  <fix>3d</fix>
</trkpt>
<trkpt lat="33.8102061" lon="-118.3940053">
  <ele>-0.118</ele>
  <time>2026-09-02T22:07:25Z</time>
  <course>10.86</course>
  <speed>0.717007670809734</speed>
  <fix>3d</fix>
</trkpt>
<trkpt lat="33.8102053" lon="-118.3940069">
  <ele>-0.1</ele>
  <time>2026-09-02T22:07:25Z</time>
  <course>47.66</course>
  <speed>0.73</speed>
  <fix>3d</fix>
</trkpt>
<trkpt lat="33.8102062" lon="-118.3940052">
  <ele>-0.118</ele>
  <time>2026-09-02T22:07:25Z</time>
  <course>10.86</course>
  <speed>0.717007670809734</speed>
  <fix>3d</fix>
</trkpt>
<trkpt lat="33.8102062" lon="-118.3940052">
  <ele>-0.118</ele>
  <time>2026-09-02T22:07:25Z</time>
  <course>10.86</course>
  <speed>0.717007670809734</speed>
  <fix>3d</fix>
</trkpt>
<trkpt lat="33.8102063" lon="-118.3940051">
  <ele>-0.118</ele>
  <time>2026-09-02T22:07:25Z</time>
  <course>10.87</course>
  <speed>0.717007670809734</speed>
  <fix>3d</fix>
</trkpt>
<trkpt lat="33.8102063" lon="-118.394005">
  <ele>-0.118</ele>
  <time>2026-09-02T22:07:25Z</time>
  <course>10.87</course>
  <speed>0.717007670809734</speed>
  <fix>3d</fix>
</trkpt>
<trkpt lat="33.8102063" lon="-118.394005">
  <ele>-0.118</ele>
  <time>2026-09-02T22:07:25Z</time>
  <course>10.87</course>
  <speed>0.717007670809734</speed>
  <fix>3d</fix>
</trkpt>
<trkpt lat="33.8102064" lon="-118.394005">
  <ele>-0.118</ele>
  <time>2026-09-02T22:07:25Z</time>
  <course>10.87</course>
  <speed>0.717007670809734</speed>
  <fix>3d</fix>
</trkpt>
<trkpt lat="33.8102064" lon="-118.3940049">
  <ele>-0.118</ele>
  <time>2026-09-02T22:07:25Z</time>
  <course>10.87</course>
  <speed>0.717007670809734</speed>
  <fix>3d</fix>
</trkpt>
<trkpt lat="33.8102065" lon="-118.3940048">
  <ele>-0.118</ele>
  <time>2026-09-02T22:07:25Z</time>
  <course>10.87</course>
  <speed>0.717007670809734</speed>
  <fix>3d</fix>
</trkpt>
<trkpt lat="33.8102065" lon="-118.3940048">
  <ele>-0.118</ele>
  <time>2026-09-02T22:07:25Z</time>
  <course>10.87</course>
  <speed>0.717007670809734</speed>
  <fix>3d</fix>
</trkpt>
<trkpt lat="33.8102065" lon="-118.3940047">
  <ele>-0.118</ele>
  <time>2026-09-02T22:07:25Z</time>
  <course>10.87</course>
  <speed>0.717007670809734</speed>
  <fix>3d</fix>
</trkpt>
<trkpt lat="33.8102066" lon="-118.3940047">
  <ele>-0.118</ele>
  <time>2026-09-02T22:07:25Z</time>
  <course>10.87</course>
  <speed>0.717007670809734</speed>
  <fix>3d</fix>
</trkpt>
<trkpt lat="33.8102062" lon="-118.3940057">
  <ele>-0.1</ele>
  <time>2026-09-02T22:07:25Z</time>
  <course>47.67</course>
  <speed>0.73</speed>
  <fix>3d</fix>
</trkpt>
<trkpt lat="33.8102066" lon="-118.3940047">
  <ele>-0.118</ele>
  <time>2026-09-02T22:07:25Z</time>
  <course>10.87</course>
  <speed>0.717007670809734</speed>
  <fix>3d</fix>
</trkpt>
<trkpt lat="33.8102066" lon="-118.3940046">
  <ele>-0.118</ele>
  <time>2026-09-02T22:07:25Z</time>
  <course>10.87</course>
  <speed>0.717007670809734</speed>
  <fix>3d</fix>
</trkpt>
<trkpt lat="33.8102067" lon="-118.3940046">
  <ele>-0.118</ele>
  <time>2026-09-02T22:07:25Z</time>
  <course>10.87</course>
  <speed>0.717007670809734</speed>
  <fix>3d</fix>
</trkpt>
<trkpt lat="33.8102067" lon="-118.3940045">
  <ele>-0.118</ele>
  <time>2026-09-02T22:07:25Z</time>
  <course>10.87</course>
  <speed>0.717007670809734</speed>
  <fix>3d</fix>
</trkpt>
<trkpt lat="33.8102068" lon="-118.3940045">
  <ele>-0.118</ele>
  <time>2026-09-02T22:07:25Z</time>
  <course>10.87</course>
  <speed>0.717007670809734</speed>
  <fix>3d</fix>
</trkpt>
<trkpt lat="33.8102068" lon="-118.3940044">
  <ele>-0.118</ele>
  <time>2026-09-02T22:07:25Z</time>
  <course>10.87</course>
  <speed>0.717007670809734</speed>
  <fix>3d</fix>
</trkpt>
<trkpt lat="33.8102068" lon="-118.3940043">
  <ele>-0.119</ele>
  <time>2026-09-02T22:07:25Z</time>
  <course>10.87</course>
  <speed>0.717007670809734</speed>
  <fix>3d</fix>
</trkpt>
<trkpt lat="33.8102069" lon="-118.3940043">
  <ele>-0.119</ele>
  <time>2026-09-02T22:07:25Z</time>
  <course>10.87</course>
  <speed>0.717007670809734</speed>
  <fix>3d</fix>
</trkpt>
<trkpt lat="33.8102069" lon="-118.3940043">
  <ele>-0.119</ele>
  <time>2026-09-02T22:07:25Z</time>
  <course>10.87</course>
  <speed>0.717007670809734</speed>
  <fix>3d</fix>
</trkpt>
<trkpt lat="33.8102069" lon="-118.3940042">
  <ele>-0.119</ele>
  <time>2026-09-02T22:07:25Z</time>
  <course>10.87</course>
  <speed>0.717007670809734</speed>
  <fix>3d</fix>
</trkpt>
<trkpt lat="33.810207" lon="-118.3940042">
  <ele>-0.119</ele>
  <time>2026-09-02T22:07:25Z</time>
  <course>10.88</course>
  <speed>0.717007670809734</speed>
  <fix>3d</fix>
</trkpt>
<trkpt lat="33.810207" lon="-118.3940041">
  <ele>-0.119</ele>
  <time>2026-09-02T22:07:25Z</time>
  <course>10.88</course>
  <speed>0.717007670809734</speed>
  <fix>3d</fix>
</trkpt>
<trkpt lat="33.8102062" lon="-118.3940057">
  <ele>-0.1</ele>
  <time>2026-09-02T22:07:25Z</time>
  <course>47.67</course>
  <speed>0.73</speed>
  <fix>3d</fix>
</trkpt>
<trkpt lat="33.810207" lon="-118.3940041">
  <ele>-0.119</ele>
  <time>2026-09-02T22:07:25Z</time>
  <course>10.88</course>
  <speed>0.717007670809734</speed>
  <fix>3d</fix>
</trkpt>
<trkpt lat="33.8102071" lon="-118.394004">
  <ele>-0.119</ele>
  <time>2026-09-02T22:07:25Z</time>
  <course>10.88</course>
  <speed>0.717007670809734</speed>
  <fix>3d</fix>
</trkpt>
<trkpt lat="33.8102071" lon="-118.394004">
  <ele>-0.119</ele>
  <time>2026-09-02T22:07:25Z</time>
  <course>10.88</course>
  <speed>0.717007670809734</speed>
  <fix>3d</fix>
</trkpt>
<trkpt lat="33.8102072" lon="-118.3940039">
  <ele>-0.119</ele>
  <time>2026-09-02T22:07:25Z</time>
  <course>10.88</course>
  <speed>0.717007670809734</speed>
  <fix>3d</fix>
</trkpt>
<trkpt lat="33.8102072" lon="-118.3940039">
  <ele>-0.119</ele>
  <time>2026-09-02T22:07:25Z</time>
  <course>10.88</course>
  <speed>0.717007670809734</speed>
  <fix>3d</fix>
</trkpt>
<trkpt lat="33.8102072" lon="-118.3940038">
  <ele>-0.119</ele>
  <time>2026-09-02T22:07:25Z</time>
  <course>10.88</course>
  <speed>0.717007670809734</speed>
  <fix>3d</fix>
</trkpt>
<trkpt lat="33.8102073" lon="-118.3940038">
  <ele>-0.119</ele>
  <time>2026-09-02T22:07:25Z</time>
  <course>10.88</course>
  <speed>0.717007670809734</speed>
  <fix>3d</fix>
</trkpt>
<trkpt lat="33.8102073" lon="-118.3940037">
  <ele>-0.119</ele>
  <time>2026-09-02T22:07:25Z</time>
  <course>10.88</course>
  <speed>0.717007670809734</speed>
  <fix>3d</fix>
</trkpt>
<trkpt lat="33.8102073" lon="-118.3940037">
  <ele>-0.119</ele>
  <time>2026-09-02T22:07:25Z</time>
  <course>10.88</course>
  <speed>0.717007670809734</speed>
  <fix>3d</fix>
</trkpt>
<trkpt lat="33.8102074" lon="-118.3940036">
  <ele>-0.119</ele>
  <time>2026-09-02T22:07:25Z</time>
  <course>10.88</course>
  <speed>0.717007670809734</speed>
  <fix>3d</fix>
</trkpt>
<trkpt lat="33.8102074" lon="-118.3940036">
  <ele>-0.12</ele>
  <time>2026-09-02T22:07:25Z</time>
  <course>10.88</course>
  <speed>0.717007670809734</speed>
  <fix>3d</fix>
</trkpt>
<trkpt lat="33.8102074" lon="-118.3940036">
  <ele>-0.12</ele>
  <time>2026-09-02T22:07:25Z</time>
  <course>10.88</course>
  <speed>0.717007670809734</speed>
  <fix>3d</fix>
</trkpt>
<trkpt lat="33.8102075" lon="-118.3940035">
  <ele>-0.12</ele>
  <time>2026-09-02T22:07:25Z</time>
  <course>10.88</course>
  <speed>0.717007670809734</speed>
  <fix>3d</fix>
</trkpt>
<trkpt lat="33.8102071" lon="-118.3940046">
  <ele>-0.1</ele>
  <time>2026-09-02T22:07:25Z</time>
  <course>47.68</course>
  <speed>0.73</speed>
  <fix>3d</fix>
</trkpt>
<trkpt lat="33.8102075" lon="-118.3940035">
  <ele>-0.12</ele>
  <time>2026-09-02T22:07:25Z</time>
  <course>10.88</course>
  <speed>0.717007670809734</speed>
  <fix>3d</fix>
</trkpt>
<trkpt lat="33.8102075" lon="-118.3940034">
  <ele>-0.12</ele>
  <time>2026-09-02T22:07:25Z</time>
  <course>10.88</course>
  <speed>0.717007670809734</speed>
  <fix>3d</fix>
</trkpt>
<trkpt lat="33.8102076" lon="-118.3940034">
  <ele>-0.12</ele>
  <time>2026-09-02T22:07:25Z</time>
  <course>10.88</course>
  <speed>0.717007670809734</speed>
  <fix>3d</fix>
</trkpt>
<trkpt lat="33.8102076" lon="-118.3940033">
  <ele>-0.12</ele>
  <time>2026-09-02T22:07:25Z</time>
  <course>10.88</course>
  <speed>0.717007670809734</speed>
  <fix>3d</fix>
</trkpt>
<trkpt lat="33.8102077" lon="-118.3940033">
  <ele>-0.12</ele>
  <time>2026-09-02T22:07:25Z</time>
  <course>10.88</course>
  <speed>0.717007670809734</speed>
  <fix>3d</fix>
</trkpt>
<trkpt lat="33.8102077" lon="-118.3940032">
  <ele>-0.12</ele>
  <time>2026-09-02T22:07:25Z</time>
  <course>10.89</course>
  <speed>0.717007670809734</speed>
  <fix>3d</fix>
</trkpt>
<trkpt lat="33.8102077" lon="-118.3940032">
  <ele>-0.12</ele>
  <time>2026-09-02T22:07:25Z</time>
  <course>10.89</course>
  <speed>0.717007670809734</speed>
  <fix>3d</fix>
</trkpt>
<trkpt lat="33.8102078" lon="-118.3940031">
  <ele>-0.12</ele>
  <time>2026-09-02T22:07:25Z</time>
  <course>10.89</course>
  <speed>0.717007670809734</speed>
  <fix>3d</fix>
</trkpt>
<trkpt lat="33.8102078" lon="-118.3940031">
  <ele>-0.12</ele>
  <time>2026-09-02T22:07:25Z</time>
  <course>10.89</course>
  <speed>0.717007670809734</speed>
  <fix>3d</fix>
</trkpt>
<trkpt lat="33.8102079" lon="-118.394003">
  <ele>-0.12</ele>
  <time>2026-09-02T22:07:25Z</time>
  <course>10.89</course>
  <speed>0.717007670809734</speed>
  <fix>3d</fix>
</trkpt>
<trkpt lat="33.8102079" lon="-118.394003">
  <ele>-0.12</ele>
  <time>2026-09-02T22:07:25Z</time>
  <course>10.89</course>
  <speed>0.717007670809734</speed>
  <fix>3d</fix>
</trkpt>
<trkpt lat="33.8102079" lon="-118.394003">
  <ele>-0.12</ele>
  <time>2026-09-02T22:07:25Z</time>
  <course>10.89</course>
  <speed>0.717007670809734</speed>
  <fix>3d</fix>
</trkpt>
<trkpt lat="33.8102071" lon="-118.3940046">
  <ele>-0.1</ele>
  <time>2026-09-02T22:07:25Z</time>
  <course>47.68</course>
  <speed>0.73</speed>
  <fix>3d</fix>
</trkpt>
<trkpt lat="33.810208" lon="-118.3940029">
  <ele>-0.121</ele>
  <time>2026-09-02T22:07:25Z</time>
  <course>10.89</course>
  <speed>0.717007670809734</speed>
  <fix>3d</fix>
</trkpt>
<trkpt lat="33.810208" lon="-118.3940028">
  <ele>-0.121</ele>
  <time>2026-09-02T22:07:25Z</time>
  <course>10.89</course>
  <speed>0.717007670809734</speed>
  <fix>3d</fix>
</trkpt>
<trkpt lat="33.8102081" lon="-118.3940028">
  <ele>-0.121</ele>
  <time>2026-09-02T22:07:25Z</time>
  <course>10.89</course>
  <speed>0.717007670809734</speed>
  <fix>3d</fix>
</trkpt>
<trkpt lat="33.8102081" lon="-118.3940027">
  <ele>-0.121</ele>
  <time>2026-09-02T22:07:25Z</time>
  <course>10.89</course>
  <speed>0.717007670809734</speed>
  <fix>3d</fix>
</trkpt>
<trkpt lat="33.8102081" lon="-118.3940027">
  <ele>-0.121</ele>
  <time>2026-09-02T22:07:25Z</time>
  <course>10.89</course>
  <speed>0.717007670809734</speed>
  <fix>3d</fix>
</trkpt>
<trkpt lat="33.8102082" lon="-118.3940026">
  <ele>-0.121</ele>
  <time>2026-09-02T22:07:25Z</time>
  <course>10.89</course>
  <speed>0.717007670809734</speed>
  <fix>3d</fix>
</trkpt>
<trkpt lat="33.8102082" lon="-118.3940026">
  <ele>-0.121</ele>
  <time>2026-09-02T22:07:25Z</time>
  <course>10.89</course>
  <speed>0.717007670809734</speed>
  <fix>3d</fix>
</trkpt>
<trkpt lat="33.8102082" lon="-118.3940025">
  <ele>-0.121</ele>
  <time>2026-09-02T22:07:25Z</time>
  <course>10.89</course>
  <speed>0.717007670809734</speed>
  <fix>3d</fix>
</trkpt>
<trkpt lat="33.8102083" lon="-118.3940025">
  <ele>-0.121</ele>
  <time>2026-09-02T22:07:25Z</time>
  <course>10.89</course>
  <speed>0.717007670809734</speed>
  <fix>3d</fix>
</trkpt>
<trkpt lat="33.8102083" lon="-118.3940025">
  <ele>-0.121</ele>
  <time>2026-09-02T22:07:25Z</time>
  <course>10.89</course>
  <speed>0.717007670809734</speed>
  <fix>3d</fix>
</trkpt>
<trkpt lat="33.8102083" lon="-118.3940024">
  <ele>-0.121</ele>
  <time>2026-09-02T22:07:25Z</time>
  <course>10.89</course>
  <speed>0.717007670809734</speed>
  <fix>3d</fix>
</trkpt>
<trkpt lat="33.8102083" lon="-118.3940024">
  <ele>-0.121</ele>
  <time>2026-09-02T22:07:25Z</time>
  <course>10.89</course>
  <speed>0.717007670809734</speed>
  <fix>3d</fix>
</trkpt>
<trkpt lat="33.810208" lon="-118.3940034">
  <ele>-0.1</ele>
  <time>2026-09-02T22:07:25Z</time>
  <course>47.69</course>
  <speed>0.73</speed>
  <fix>3d</fix>
</trkpt>
<trkpt lat="33.8102083" lon="-118.3940024">
  <ele>-0.121</ele>
  <time>2026-09-02T22:07:25Z</time>
  <course>10.89</course>
  <speed>0.717007670809734</speed>
  <fix>3d</fix>
</trkpt>
<trkpt lat="33.8102084" lon="-118.3940023">
  <ele>-0.121</ele>
  <time>2026-09-02T22:07:25Z</time>
  <course>10.9</course>
  <speed>0.717007670809734</speed>
  <fix>3d</fix>
</trkpt>
<trkpt lat="33.8102085" lon="-118.3940022">
  <ele>-0.121</ele>
  <time>2026-09-02T22:07:25Z</time>
  <course>10.9</course>
  <speed>0.717007670809734</speed>
  <fix>3d</fix>
</trkpt>
<trkpt lat="33.8102085" lon="-118.3940022">
  <ele>-0.122</ele>
  <time>2026-09-02T22:07:25Z</time>
  <course>10.9</course>
  <speed>0.717007670809734</speed>
  <fix>3d</fix>
</trkpt>
<trkpt lat="33.8102085" lon="-118.3940021">
  <ele>-0.122</ele>
  <time>2026-09-02T22:07:25Z</time>
  <course>10.9</course>
  <speed>0.717007670809734</speed>
  <fix>3d</fix>
</trkpt>
<trkpt lat="33.8102086" lon="-118.3940021">
  <ele>-0.122</ele>
  <time>2026-09-02T22:07:25Z</time>
  <course>10.9</course>
  <speed>0.717007670809734</speed>
  <fix>3d</fix>
</trkpt>
<trkpt lat="33.8102086" lon="-118.394002">
  <ele>-0.122</ele>
  <time>2026-09-02T22:07:25Z</time>
  <course>10.9</course>
  <speed>0.717007670809734</speed>
  <fix>3d</fix>
</trkpt>
<trkpt lat="33.8102087" lon="-118.394002">
  <ele>-0.122</ele>
  <time>2026-09-02T22:07:25Z</time>
  <course>10.9</course>
  <speed>0.717007670809734</speed>
  <fix>3d</fix>
</trkpt>
<trkpt lat="33.8102087" lon="-118.3940019">
  <ele>-0.122</ele>
  <time>2026-09-02T22:07:25Z</time>
  <course>10.9</course>
  <speed>0.717007670809734</speed>
  <fix>3d</fix>
</trkpt>
<trkpt lat="33.8102088" lon="-118.3940018">
  <ele>-0.122</ele>
  <time>2026-09-02T22:07:25Z</time>
  <course>10.9</course>
  <speed>0.717007670809734</speed>
  <fix>3d</fix>
</trkpt>
<trkpt lat="33.8102088" lon="-118.3940018">
  <ele>-0.123</ele>
  <time>2026-09-02T22:07:25Z</time>
  <course>10.9</course>
  <speed>0.717007670809734</speed>
  <fix>3d</fix>
</trkpt>
<trkpt lat="33.810208" lon="-118.3940034">
  <ele>-0.1</ele>
  <time>2026-09-02T22:07:25Z</time>
  <course>47.69</course>
  <speed>0.73</speed>
  <fix>3d</fix>
</trkpt>
<trkpt lat="33.8102088" lon="-118.3940018">
  <ele>-0.123</ele>
  <time>2026-09-02T22:07:25Z</time>
  <course>10.9</course>
  <speed>0.717007670809734</speed>
  <fix>3d</fix>
</trkpt>
<trkpt lat="33.8102089" lon="-118.3940017">
  <ele>-0.123</ele>
  <time>2026-09-02T22:07:25Z</time>
  <course>10.9</course>
  <speed>0.717007670809734</speed>
  <fix>3d</fix>
</trkpt>
<trkpt lat="33.8102089" lon="-118.3940017">
  <ele>-0.123</ele>
  <time>2026-09-02T22:07:25Z</time>
  <course>10.9</course>
  <speed>0.717007670809734</speed>
  <fix>3d</fix>
</trkpt>
<trkpt lat="33.8102089" lon="-118.3940016">
  <ele>-0.123</ele>
  <time>2026-09-02T22:07:25Z</time>
  <course>10.9</course>
  <speed>0.717007670809734</speed>
  <fix>3d</fix>
</trkpt>
<trkpt lat="33.810209" lon="-118.3940015">
  <ele>-0.123</ele>
  <time>2026-09-02T22:07:25Z</time>
  <course>10.9</course>
  <speed>0.717007670809734</speed>
  <fix>3d</fix>
</trkpt>
<trkpt lat="33.810209" lon="-118.3940015">
  <ele>-0.123</ele>
  <time>2026-09-02T22:07:25Z</time>
  <course>10.9</course>
  <speed>0.717007670809734</speed>
  <fix>3d</fix>
</trkpt>
<trkpt lat="33.8102091" lon="-118.3940014">
  <ele>-0.123</ele>
  <time>2026-09-02T22:07:25Z</time>
  <course>10.9</course>
  <speed>0.717007670809734</speed>
  <fix>3d</fix>
</trkpt>
<trkpt lat="33.8102091" lon="-118.3940014">
  <ele>-0.123</ele>
  <time>2026-09-02T22:07:25Z</time>
  <course>10.9</course>
  <speed>0.717007670809734</speed>
  <fix>3d</fix>
</trkpt>
<trkpt lat="33.8102091" lon="-118.3940014">
  <ele>-0.123</ele>
  <time>2026-09-02T22:07:25Z</time>
  <course>10.9</course>
  <speed>0.717007670809734</speed>
  <fix>3d</fix>
</trkpt>
<trkpt lat="33.8102092" lon="-118.3940013">
  <ele>-0.123</ele>
  <time>2026-09-02T22:07:25Z</time>
  <course>10.91</course>
  <speed>0.717007670809734</speed>
  <fix>3d</fix>
</trkpt>
<trkpt lat="33.8102092" lon="-118.3940012">
  <ele>-0.123</ele>
  <time>2026-09-02T22:07:25Z</time>
  <course>10.91</course>
  <speed>0.717007670809734</speed>
  <fix>3d</fix>
</trkpt>
<trkpt lat="33.8102092" lon="-118.3940012">
  <ele>-0.123</ele>
  <time>2026-09-02T22:07:25Z</time>
  <course>10.91</course>
  <speed>0.717007670809734</speed>
  <fix>3d</fix>
</trkpt>
<trkpt lat="33.8102088" lon="-118.3940022">
  <ele>-0.1</ele>
  <time>2026-09-02T22:07:25Z</time>
  <course>47.71</course>
  <speed>0.73</speed>
  <fix>3d</fix>
</trkpt>
<trkpt lat="33.8102092" lon="-118.3940012">
  <ele>-0.123</ele>
  <time>2026-09-02T22:07:25Z</time>
  <course>10.91</course>
  <speed>0.717007670809734</speed>
  <fix>3d</fix>
</trkpt>
<trkpt lat="33.8102093" lon="-118.3940011">
  <ele>-0.123</ele>
  <time>2026-09-02T22:07:25Z</time>
  <course>10.91</course>
  <speed>0.717007670809734</speed>
  <fix>3d</fix>
</trkpt>
<trkpt lat="33.8102093" lon="-118.3940011">
  <ele>-0.123</ele>
  <time>2026-09-02T22:07:25Z</time>
  <course>10.91</course>
  <speed>0.717007670809734</speed>
  <fix>3d</fix>
</trkpt>
<trkpt lat="33.8102094" lon="-118.394001">
  <ele>-0.123</ele>
  <time>2026-09-02T22:07:25Z</time>
  <course>10.91</course>
  <speed>0.717007670809734</speed>
  <fix>3d</fix>
</trkpt>
<trkpt lat="33.8102094" lon="-118.394001">
  <ele>-0.123</ele>
  <time>2026-09-02T22:07:25Z</time>
  <course>10.91</course>
  <speed>0.717007670809734</speed>
  <fix>3d</fix>
</trkpt>
<trkpt lat="33.8102095" lon="-118.3940009">
  <ele>-0.123</ele>
  <time>2026-09-02T22:07:25Z</time>
  <course>10.91</course>
  <speed>0.717007670809734</speed>
  <fix>3d</fix>
</trkpt>
<trkpt lat="33.8102095" lon="-118.3940009">
  <ele>-0.123</ele>
  <time>2026-09-02T22:07:25Z</time>
  <course>10.91</course>
  <speed>0.717007670809734</speed>
  <fix>3d</fix>
</trkpt>
<trkpt lat="33.8102095" lon="-118.3940008">
  <ele>-0.123</ele>
  <time>2026-09-02T22:07:25Z</time>
  <course>10.91</course>
  <speed>0.717007670809734</speed>
  <fix>3d</fix>
</trkpt>
<trkpt lat="33.8102096" lon="-118.3940007">
  <ele>-0.123</ele>
  <time>2026-09-02T22:07:25Z</time>
  <course>10.91</course>
  <speed>0.717007670809734</speed>
  <fix>3d</fix>
</trkpt>
<trkpt lat="33.8102096" lon="-118.3940007">
  <ele>-0.123</ele>
  <time>2026-09-02T22:07:25Z</time>
  <course>10.91</course>
  <speed>0.717007670809734</speed>
  <fix>3d</fix>
</trkpt>
<trkpt lat="33.8102097" lon="-118.3940007">
  <ele>-0.123</ele>
  <time>2026-09-02T22:07:25Z</time>
  <course>10.91</course>
  <speed>0.717007670809734</speed>
  <fix>3d</fix>
</trkpt>
<trkpt lat="33.8102097" lon="-118.3940006">
  <ele>-0.123</ele>
  <time>2026-09-02T22:07:25Z</time>
  <course>10.91</course>
  <speed>0.717007670809734</speed>
  <fix>3d</fix>
</trkpt>
<trkpt lat="33.8102088" lon="-118.3940022">
  <ele>-0.1</ele>
  <time>2026-09-02T22:07:25Z</time>
  <course>47.71</course>
  <speed>0.73</speed>
  <fix>3d</fix>
</trkpt>
<trkpt lat="33.8102097" lon="-118.3940006">
  <ele>-0.123</ele>
  <time>2026-09-02T22:07:25Z</time>
  <course>10.91</course>
  <speed>0.717007670809734</speed>
  <fix>3d</fix>
</trkpt>
<trkpt lat="33.8102098" lon="-118.3940005">
  <ele>-0.123</ele>
  <time>2026-09-02T22:07:25Z</time>
  <course>10.91</course>
  <speed>0.717007670809734</speed>
  <fix>3d</fix>
</trkpt>
<trkpt lat="33.8102098" lon="-118.3940004">
  <ele>-0.123</ele>
  <time>2026-09-02T22:07:25Z</time>
  <course>10.91</course>
  <speed>0.717007670809734</speed>
  <fix>3d</fix>
</trkpt>
<trkpt lat="33.8102099" lon="-118.3940004">
  <ele>-0.123</ele>
  <time>2026-09-02T22:07:25Z</time>
  <course>10.92</course>
  <speed>0.717007670809734</speed>
  <fix>3d</fix>
</trkpt>
<trkpt lat="33.8102099" lon="-118.3940003">
  <ele>-0.123</ele>
  <time>2026-09-02T22:07:25Z</time>
  <course>10.92</course>
  <speed>0.717007670809734</speed>
  <fix>3d</fix>
</trkpt>
<trkpt lat="33.8102099" lon="-118.3940003">
  <ele>-0.123</ele>
  <time>2026-09-02T22:07:25Z</time>
  <course>10.92</course>
  <speed>0.717007670809734</speed>
  <fix>3d</fix>
</trkpt>
<trkpt lat="33.81021" lon="-118.3940002">
  <ele>-0.123</ele>
  <time>2026-09-02T22:07:25Z</time>
  <course>10.92</course>
  <speed>0.717007670809734</speed>
  <fix>3d</fix>
</trkpt>
<trkpt lat="33.81021" lon="-118.3940002">
  <ele>-0.123</ele>
  <time>2026-09-02T22:07:25Z</time>
  <course>10.92</course>
  <speed>0.717007670809734</speed>
  <fix>3d</fix>
</trkpt>
<trkpt lat="33.8102101" lon="-118.3940001">
  <ele>-0.123</ele>
  <time>2026-09-02T22:07:25Z</time>
  <course>10.92</course>
  <speed>0.717007670809734</speed>
  <fix>3d</fix>
</trkpt>
<trkpt lat="33.8102101" lon="-118.3940001">
  <ele>-0.123</ele>
  <time>2026-09-02T22:07:25Z</time>
  <course>10.92</course>
  <speed>0.717007670809734</speed>
  <fix>3d</fix>
</trkpt>
<trkpt lat="33.8102101" lon="-118.394">
  <ele>-0.123</ele>
  <time>2026-09-02T22:07:25Z</time>
  <course>10.92</course>
  <speed>0.717007670809734</speed>
  <fix>3d</fix>
</trkpt>
<trkpt lat="33.8102097" lon="-118.394001">
  <ele>-0.1</ele>
  <time>2026-09-02T22:07:25Z</time>
  <course>47.72</course>
  <speed>0.73</speed>
  <fix>3d</fix>
</trkpt>
<trkpt lat="33.8102101" lon="-118.394">
  <ele>-0.123</ele>
  <time>2026-09-02T22:07:25Z</time>
  <course>10.92</course>
  <speed>0.717007670809734</speed>
  <fix>3d</fix>
</trkpt>
<trkpt lat="33.8102102" lon="-118.3939999">
  <ele>-0.123</ele>
  <time>2026-09-02T22:07:25Z</time>
  <course>10.92</course>
  <speed>0.717007670809734</speed>
  <fix>3d</fix>
</trkpt>
<trkpt lat="33.8102102" lon="-118.3939999">
  <ele>-0.123</ele>
  <time>2026-09-02T22:07:25Z</time>
  <course>10.92</course>
  <speed>0.717007670809734</speed>
  <fix>3d</fix>
</trkpt>
<trkpt lat="33.8102103" lon="-118.3939999">
  <ele>-0.123</ele>
  <time>2026-09-02T22:07:25Z</time>
  <course>10.92</course>
  <speed>0.717007670809734</speed>
  <fix>3d</fix>
</trkpt>
<trkpt lat="33.8102103" lon="-118.3939998">
  <ele>-0.123</ele>
  <time>2026-09-02T22:07:25Z</time>
  <course>10.92</course>
  <speed>0.717007670809734</speed>
  <fix>3d</fix>
</trkpt>
<trkpt lat="33.8102103" lon="-118.3939998">
  <ele>-0.123</ele>
  <time>2026-09-02T22:07:25Z</time>
  <course>10.92</course>
  <speed>0.717007670809734</speed>
  <fix>3d</fix>
</trkpt>
<trkpt lat="33.8102104" lon="-118.3939997">
  <ele>-0.122</ele>
  <time>2026-09-02T22:07:25Z</time>
  <course>10.92</course>
  <speed>0.717007670809734</speed>
  <fix>3d</fix>
</trkpt>
<trkpt lat="33.8102104" lon="-118.3939997">
  <ele>-0.122</ele>
  <time>2026-09-02T22:07:25Z</time>
  <course>10.92</course>
  <speed>0.717007670809734</speed>
  <fix>3d</fix>
</trkpt>
<trkpt lat="33.8102104" lon="-118.3939996">
  <ele>-0.122</ele>
  <time>2026-09-02T22:07:25Z</time>
  <course>10.92</course>
  <speed>0.717007670809734</speed>
  <fix>3d</fix>
</trkpt>
<trkpt lat="33.8102105" lon="-118.3939996">
  <ele>-0.122</ele>
  <time>2026-09-02T22:07:25Z</time>
  <course>10.92</course>
  <speed>0.717007670809734</speed>
  <fix>3d</fix>
</trkpt>
<trkpt lat="33.8102105" lon="-118.3939995">
  <ele>-0.122</ele>
  <time>2026-09-02T22:07:25Z</time>
  <course>10.92</course>
  <speed>0.717007670809734</speed>
  <fix>3d</fix>
</trkpt>
<trkpt lat="33.8102105" lon="-118.3939995">
  <ele>-0.122</ele>
  <time>2026-09-02T22:07:25Z</time>
  <course>10.92</course>
  <speed>0.717007670809734</speed>
  <fix>3d</fix>
</trkpt>
<trkpt lat="33.8102106" lon="-118.3939995">
  <ele>-0.122</ele>
  <time>2026-09-02T22:07:25Z</time>
  <course>10.92</course>
  <speed>0.717007670809734</speed>
  <fix>3d</fix>
</trkpt>
<trkpt lat="33.8102097" lon="-118.394001">
  <ele>-0.1</ele>
  <time>2026-09-02T22:07:25Z</time>
  <course>47.72</course>
  <speed>0.73</speed>
  <fix>3d</fix>
</trkpt>
<trkpt lat="33.8102106" lon="-118.3939994">
  <ele>-0.122</ele>
  <time>2026-09-02T22:07:25Z</time>
  <course>10.92</course>
  <speed>0.717007670809734</speed>
  <fix>3d</fix>
</trkpt>
<trkpt lat="33.8102106" lon="-118.3939994">
  <ele>-0.122</ele>
  <time>2026-09-02T22:07:25Z</time>
  <course>10.93</course>
  <speed>0.717007670809734</speed>
  <fix>3d</fix>
</trkpt>
<trkpt lat="33.8102107" lon="-118.3939993">
  <ele>-0.122</ele>
  <time>2026-09-02T22:07:25Z</time>
  <course>10.93</course>
  <speed>0.717007670809734</speed>
  <fix>3d</fix>
</trkpt>
<trkpt lat="33.8102107" lon="-118.3939993">
  <ele>-0.122</ele>
  <time>2026-09-02T22:07:25Z</time>
  <course>10.93</course>
  <speed>0.717007670809734</speed>
  <fix>3d</fix>
</trkpt>
<trkpt lat="33.8102107" lon="-118.3939992">
  <ele>-0.122</ele>
  <time>2026-09-02T22:07:25Z</time>
  <course>10.93</course>
  <speed>0.717007670809734</speed>
  <fix>3d</fix>
</trkpt>
<trkpt lat="33.8102108" lon="-118.3939992">
  <ele>-0.122</ele>
  <time>2026-09-02T22:07:25Z</time>
  <course>10.93</course>
  <speed>0.717007670809734</speed>
  <fix>3d</fix>
</trkpt>
<trkpt lat="33.8102108" lon="-118.3939991">
  <ele>-0.122</ele>
  <time>2026-09-02T22:07:25Z</time>
  <course>10.93</course>
  <speed>0.717007670809734</speed>
  <fix>3d</fix>
</trkpt>
<trkpt lat="33.8102108" lon="-118.3939991">
  <ele>-0.122</ele>
  <time>2026-09-02T22:07:25Z</time>
  <course>10.93</course>
  <speed>0.717007670809734</speed>
  <fix>3d</fix>
</trkpt>
<trkpt lat="33.8102109" lon="-118.393999">
  <ele>-0.122</ele>
  <time>2026-09-02T22:07:25Z</time>
  <course>10.93</course>
  <speed>0.717007670809734</speed>
  <fix>3d</fix>
</trkpt>
<trkpt lat="33.8102109" lon="-118.393999">
  <ele>-0.122</ele>
  <time>2026-09-02T22:07:25Z</time>
  <course>10.93</course>
  <speed>0.717007670809734</speed>
  <fix>3d</fix>
</trkpt>
<trkpt lat="33.8102109" lon="-118.3939989">
  <ele>-0.122</ele>
  <time>2026-09-02T22:07:25Z</time>
  <course>10.93</course>
  <speed>0.717007670809734</speed>
  <fix>3d</fix>
</trkpt>
<trkpt lat="33.810211" lon="-118.3939989">
  <ele>-0.122</ele>
  <time>2026-09-02T22:07:25Z</time>
  <course>10.93</course>
  <speed>0.717007670809734</speed>
  <fix>3d</fix>
</trkpt>
<trkpt lat="33.810211" lon="-118.3939989">
  <ele>-0.122</ele>
  <time>2026-09-02T22:07:25Z</time>
  <course>10.93</course>
  <speed>0.717007670809734</speed>
  <fix>3d</fix>
</trkpt>
<trkpt lat="33.8102106" lon="-118.3939998">
  <ele>-0.1</ele>
  <time>2026-09-02T22:07:25Z</time>
  <course>47.73</course>
  <speed>0.73</speed>
  <fix>3d</fix>
</trkpt>
<trkpt lat="33.810211" lon="-118.3939989">
  <ele>-0.122</ele>
  <time>2026-09-02T22:07:25Z</time>
  <course>10.93</course>
  <speed>0.717007670809734</speed>
  <fix>3d</fix>
</trkpt>
<trkpt lat="33.8102111" lon="-118.3939988">
  <ele>-0.121</ele>
  <time>2026-09-02T22:07:25Z</time>
  <course>10.93</course>
  <speed>0.717007670809734</speed>
  <fix>3d</fix>
</trkpt>
<trkpt lat="33.8102111" lon="-118.3939987">
  <ele>-0.121</ele>
  <time>2026-09-02T22:07:25Z</time>
  <course>10.93</course>
  <speed>0.717007670809734</speed>
  <fix>3d</fix>
</trkpt>
<trkpt lat="33.8102111" lon="-118.3939987">
  <ele>-0.121</ele>
  <time>2026-09-02T22:07:25Z</time>
  <course>10.93</course>
  <speed>0.717007670809734</speed>
  <fix>3d</fix>
</trkpt>
<trkpt lat="33.8102112" lon="-118.3939986">
  <ele>-0.121</ele>
  <time>2026-09-02T22:07:25Z</time>
  <course>10.93</course>
  <speed>0.717007670809734</speed>
  <fix>3d</fix>
</trkpt>
<trkpt lat="33.8102112" lon="-118.3939986">
  <ele>-0.121</ele>
  <time>2026-09-02T22:07:25Z</time>
  <course>10.93</course>
  <speed>0.717007670809734</speed>
  <fix>3d</fix>
</trkpt>
<trkpt lat="33.8102112" lon="-118.3939985">
  <ele>-0.121</ele>
  <time>2026-09-02T22:07:25Z</time>
  <course>10.93</course>
  <speed>0.717007670809734</speed>
  <fix>3d</fix>
</trkpt>
<trkpt lat="33.8102113" lon="-118.3939985">
  <ele>-0.121</ele>
  <time>2026-09-02T22:07:25Z</time>
  <course>10.93</course>
  <speed>0.717007670809734</speed>
  <fix>3d</fix>
</trkpt>
<trkpt lat="33.8102113" lon="-118.3939984">
  <ele>-0.121</ele>
  <time>2026-09-02T22:07:25Z</time>
  <course>10.93</course>
  <speed>0.717007670809734</speed>
  <fix>3d</fix>
</trkpt>
<trkpt lat="33.8102114" lon="-118.3939984">
  <ele>-0.12</ele>
  <time>2026-09-02T22:07:25Z</time>
  <course>10.94</course>
  <speed>0.717007670809734</speed>
  <fix>3d</fix>
</trkpt>
<trkpt lat="33.8102114" lon="-118.3939983">
  <ele>-0.12</ele>
  <time>2026-09-02T22:07:25Z</time>
  <course>10.94</course>
  <speed>0.717007670809734</speed>
  <fix>3d</fix>
</trkpt>
<trkpt lat="33.8102114" lon="-118.3939983">
  <ele>-0.12</ele>
  <time>2026-09-02T22:07:25Z</time>
  <course>10.94</course>
  <speed>0.717007670809734</speed>
  <fix>3d</fix>
</trkpt>
<trkpt lat="33.8102106" lon="-118.3939998">
  <ele>-0.1</ele>
  <time>2026-09-02T22:07:25Z</time>
  <course>47.73</course>
  <speed>0.73</speed>
  <fix>3d</fix>
</trkpt>
<trkpt lat="33.8102114" lon="-118.3939983">
  <ele>-0.12</ele>
  <time>2026-09-02T22:07:25Z</time>
  <course>10.94</course>
  <speed>0.717007670809734</speed>
  <fix>3d</fix>
</trkpt>
<trkpt lat="33.8102115" lon="-118.3939982">
  <ele>-0.12</ele>
  <time>2026-09-02T22:07:25Z</time>
  <course>10.94</course>
  <speed>0.717007670809734</speed>
  <fix>3d</fix>
</trkpt>
<trkpt lat="33.8102115" lon="-118.3939981">
  <ele>-0.12</ele>
  <time>2026-09-02T22:07:25Z</time>
  <course>10.94</course>
  <speed>0.717007670809734</speed>
  <fix>3d</fix>
</trkpt>
<trkpt lat="33.8102116" lon="-118.3939981">
  <ele>-0.12</ele>
  <time>2026-09-02T22:07:25Z</time>
  <course>10.94</course>
  <speed>0.717007670809734</speed>
  <fix>3d</fix>
</trkpt>
<trkpt lat="33.8102116" lon="-118.393998">
  <ele>-0.12</ele>
  <time>2026-09-02T22:07:25Z</time>
  <course>10.94</course>
  <speed>0.717007670809734</speed>
  <fix>3d</fix>
</trkpt>
<trkpt lat="33.8102116" lon="-118.393998">
  <ele>-0.119</ele>
  <time>2026-09-02T22:07:25Z</time>
  <course>10.94</course>
  <speed>0.717007670809734</speed>
  <fix>3d</fix>
</trkpt>
<trkpt lat="33.8102117" lon="-118.393998">
  <ele>-0.119</ele>
  <time>2026-09-02T22:07:25Z</time>
  <course>10.94</course>
  <speed>0.717007670809734</speed>
  <fix>3d</fix>
</trkpt>
<trkpt lat="33.8102117" lon="-118.3939979">
  <ele>-0.119</ele>
  <time>2026-09-02T22:07:25Z</time>
  <course>10.94</course>
  <speed>0.717007670809734</speed>
  <fix>3d</fix>
</trkpt>
<trkpt lat="33.8102117" lon="-118.3939979">
  <ele>-0.119</ele>
  <time>2026-09-02T22:07:25Z</time>
  <course>10.94</course>
  <speed>0.717007670809734</speed>
  <fix>3d</fix>
</trkpt>
<trkpt lat="33.8102118" lon="-118.3939978">
  <ele>-0.119</ele>
  <time>2026-09-02T22:07:25Z</time>
  <course>10.94</course>
  <speed>0.717007670809734</speed>
  <fix>3d</fix>
</trkpt>
<trkpt lat="33.8102118" lon="-118.3939978">
  <ele>-0.118</ele>
  <time>2026-09-02T22:07:25Z</time>
  <course>10.94</course>
  <speed>0.717007670809734</speed>
  <fix>3d</fix>
</trkpt>
<trkpt lat="33.8102118" lon="-118.3939977">
  <ele>-0.118</ele>
  <time>2026-09-02T22:07:25Z</time>
  <course>10.94</course>
  <speed>0.717007670809734</speed>
  <fix>3d</fix>
</trkpt>
<trkpt lat="33.8102119" lon="-118.3939977">
  <ele>-0.118</ele>
  <time>2026-09-02T22:07:25Z</time>
  <course>10.94</course>
  <speed>0.717007670809734</speed>
  <fix>3d</fix>
</trkpt>
<trkpt lat="33.8102115" lon="-118.3939987">
  <ele>-0.1</ele>
  <time>2026-09-02T22:07:25Z</time>
  <course>47.74</course>
  <speed>0.73</speed>
  <fix>3d</fix>
</trkpt>
<trkpt lat="33.8102119" lon="-118.3939977">
  <ele>-0.118</ele>
  <time>2026-09-02T22:07:25Z</time>
  <course>10.94</course>
  <speed>0.717007670809734</speed>
  <fix>3d</fix>
</trkpt>
<trkpt lat="33.8102119" lon="-118.3939976">
  <ele>-0.118</ele>
  <time>2026-09-02T22:07:25Z</time>
  <course>10.94</course>
  <speed>0.717007670809734</speed>
  <fix>3d</fix>
</trkpt>
<trkpt lat="33.810212" lon="-118.3939976">
  <ele>-0.117</ele>
  <time>2026-09-02T22:07:25Z</time>
  <course>10.94</course>
  <speed>0.717007670809734</speed>
  <fix>3d</fix>
</trkpt>
<trkpt lat="33.810212" lon="-118.3939975">
  <ele>-0.117</ele>
  <time>2026-09-02T22:07:25Z</time>
  <course>10.94</course>
  <speed>0.717007670809734</speed>
  <fix>3d</fix>
</trkpt>
<trkpt lat="33.810212" lon="-118.3939975">
  <ele>-0.117</ele>
  <time>2026-09-02T22:07:25Z</time>
  <course>10.94</course>
  <speed>0.717007670809734</speed>
  <fix>3d</fix>
</trkpt>
<trkpt lat="33.8102121" lon="-118.3939974">
  <ele>-0.117</ele>
  <time>2026-09-02T22:07:25Z</time>
  <course>10.95</course>
  <speed>0.717007670809734</speed>
  <fix>3d</fix>
</trkpt>
<trkpt lat="33.8102121" lon="-118.3939974">
  <ele>-0.117</ele>
  <time>2026-09-02T22:07:25Z</time>
  <course>10.95</course>
  <speed>0.717007670809734</speed>
  <fix>3d</fix>
</trkpt>
<trkpt lat="33.8102121" lon="-118.3939973">
  <ele>-0.117</ele>
  <time>2026-09-02T22:07:25Z</time>
  <course>10.95</course>
  <speed>0.717007670809734</speed>
  <fix>3d</fix>
</trkpt>
<trkpt lat="33.8102122" lon="-118.3939973">
  <ele>-0.116</ele>
  <time>2026-09-02T22:07:25Z</time>
  <course>10.95</course>
  <speed>0.717007670809734</speed>
  <fix>3d</fix>
</trkpt>
<trkpt lat="33.8102122" lon="-118.3939972">
  <ele>-0.116</ele>
  <time>2026-09-02T22:07:25Z</time>
  <course>10.95</course>
  <speed>0.717007670809734</speed>
  <fix>3d</fix>
</trkpt>
<trkpt lat="33.8102123" lon="-118.3939972">
  <ele>-0.116</ele>
  <time>2026-09-02T22:07:25Z</time>
  <course>10.95</course>
  <speed>0.717007670809734</speed>
  <fix>3d</fix>
</trkpt>
<trkpt lat="33.8102123" lon="-118.3939971">
  <ele>-0.116</ele>
  <time>2026-09-02T22:07:25Z</time>
  <course>10.95</course>
  <speed>0.717007670809734</speed>
  <fix>3d</fix>
</trkpt>
<trkpt lat="33.8102115" lon="-118.3939987">
  <ele>-0.1</ele>
  <time>2026-09-02T22:07:25Z</time>
  <course>47.74</course>
  <speed>0.73</speed>
  <fix>3d</fix>
</trkpt>
<trkpt lat="33.8102123" lon="-118.3939971">
  <ele>-0.116</ele>
  <time>2026-09-02T22:07:25Z</time>
  <course>10.95</course>
  <speed>0.717007670809734</speed>
  <fix>3d</fix>
</trkpt>
<trkpt lat="33.8102124" lon="-118.393997">
  <ele>-0.115</ele>
  <time>2026-09-02T22:07:25Z</time>
  <course>10.95</course>
  <speed>0.717007670809734</speed>
  <fix>3d</fix>
</trkpt>
<trkpt lat="33.8102124" lon="-118.393997">
  <ele>-0.115</ele>
  <time>2026-09-02T22:07:25Z</time>
  <course>10.95</course>
  <speed>0.717007670809734</speed>
  <fix>3d</fix>
</trkpt>
<trkpt lat="33.8102125" lon="-118.3939969">
  <ele>-0.115</ele>
  <time>2026-09-02T22:07:25Z</time>
  <course>10.95</course>
  <speed>0.717007670809734</speed>
  <fix>3d</fix>
</trkpt>
<trkpt lat="33.8102125" lon="-118.3939969">
  <ele>-0.115</ele>
  <time>2026-09-02T22:07:25Z</time>
  <course>10.95</course>
  <speed>0.717007670809734</speed>
  <fix>3d</fix>
</trkpt>
<trkpt lat="33.8102125" lon="-118.3939968">
  <ele>-0.115</ele>
  <time>2026-09-02T22:07:25Z</time>
  <course>10.95</course>
  <speed>0.717007670809734</speed>
  <fix>3d</fix>
</trkpt>
<trkpt lat="33.8102126" lon="-118.3939968">
  <ele>-0.114</ele>
  <time>2026-09-02T22:07:25Z</time>
  <course>10.95</course>
  <speed>0.717007670809734</speed>
  <fix>3d</fix>
</trkpt>
<trkpt lat="33.8102126" lon="-118.3939967">
  <ele>-0.114</ele>
  <time>2026-09-02T22:07:25Z</time>
  <course>10.95</course>
  <speed>0.717007670809734</speed>
  <fix>3d</fix>
</trkpt>
<trkpt lat="33.8102126" lon="-118.3939967">
  <ele>-0.114</ele>
  <time>2026-09-02T22:07:25Z</time>
  <course>10.95</course>
  <speed>0.717007670809734</speed>
  <fix>3d</fix>
</trkpt>
<trkpt lat="33.8102127" lon="-118.3939966">
  <ele>-0.114</ele>
  <time>2026-09-02T22:07:25Z</time>
  <course>10.95</course>
  <speed>0.717007670809734</speed>
  <fix>3d</fix>
</trkpt>
<trkpt lat="33.8102127" lon="-118.3939966">
  <ele>-0.114</ele>
  <time>2026-09-02T22:07:25Z</time>
  <course>10.95</course>
  <speed>0.717007670809734</speed>
  <fix>3d</fix>
</trkpt>
<trkpt lat="33.8102127" lon="-118.3939965">
  <ele>-0.114</ele>
  <time>2026-09-02T22:07:25Z</time>
  <course>10.95</course>
  <speed>0.717007670809734</speed>
  <fix>3d</fix>
</trkpt>
<trkpt lat="33.8102128" lon="-118.3939965">
  <ele>-0.114</ele>
  <time>2026-09-02T22:07:25Z</time>
  <course>10.95</course>
  <speed>0.717007670809734</speed>
  <fix>3d</fix>
</trkpt>
<trkpt lat="33.8102124" lon="-118.3939974">
  <ele>-0.1</ele>
  <time>2026-09-02T22:07:25Z</time>
  <course>47.75</course>
  <speed>0.73</speed>
  <fix>3d</fix>
</trkpt>
<trkpt lat="33.8102128" lon="-118.3939965">
  <ele>-0.114</ele>
  <time>2026-09-02T22:07:25Z</time>
  <course>10.95</course>
  <speed>0.717007670809734</speed>
  <fix>3d</fix>
</trkpt>
<trkpt lat="33.8102128" lon="-118.3939964">
  <ele>-0.113</ele>
  <time>2026-09-02T22:07:25Z</time>
  <course>10.96</course>
  <speed>0.717007670809734</speed>
  <fix>3d</fix>
</trkpt>
<trkpt lat="33.8102129" lon="-118.3939964">
  <ele>-0.113</ele>
  <time>2026-09-02T22:07:25Z</time>
  <course>10.96</course>
  <speed>0.717007670809734</speed>
  <fix>3d</fix>
</trkpt>
<trkpt lat="33.8102129" lon="-118.3939963">
  <ele>-0.113</ele>
  <time>2026-09-02T22:07:25Z</time>
  <course>10.96</course>
  <speed>0.717007670809734</speed>
  <fix>3d</fix>
</trkpt>
<trkpt lat="33.8102129" lon="-118.3939963">
  <ele>-0.113</ele>
  <time>2026-09-02T22:07:25Z</time>
  <course>10.96</course>
  <speed>0.717007670809734</speed>
  <fix>3d</fix>
</trkpt>
<trkpt lat="33.810213" lon="-118.3939962">
  <ele>-0.113</ele>
  <time>2026-09-02T22:07:25Z</time>
  <course>10.96</course>
  <speed>0.717007670809734</speed>
  <fix>3d</fix>
</trkpt>
<trkpt lat="33.810213" lon="-118.3939962">
  <ele>-0.113</ele>
  <time>2026-09-02T22:07:25Z</time>
  <course>10.96</course>
  <speed>0.717007670809734</speed>
  <fix>3d</fix>
</trkpt>
<trkpt lat="33.810213" lon="-118.3939961">
  <ele>-0.113</ele>
  <time>2026-09-02T22:07:25Z</time>
  <course>10.96</course>
  <speed>0.717007670809734</speed>
  <fix>3d</fix>
</trkpt>
<trkpt lat="33.8102131" lon="-118.3939961">
  <ele>-0.112</ele>
  <time>2026-09-02T22:07:25Z</time>
  <course>10.96</course>
  <speed>0.717007670809734</speed>
  <fix>3d</fix>
</trkpt>
<trkpt lat="33.8102131" lon="-118.3939961">
  <ele>-0.112</ele>
  <time>2026-09-02T22:07:25Z</time>
  <course>10.96</course>
  <speed>0.717007670809734</speed>
  <fix>3d</fix>
</trkpt>
<trkpt lat="33.8102131" lon="-118.393996">
  <ele>-0.112</ele>
  <time>2026-09-02T22:07:25Z</time>
  <course>10.96</course>
  <speed>0.717007670809734</speed>
  <fix>3d</fix>
</trkpt>
<trkpt lat="33.8102132" lon="-118.393996">
  <ele>-0.112</ele>
  <time>2026-09-02T22:07:25Z</time>
  <course>10.96</course>
  <speed>0.717007670809734</speed>
  <fix>3d</fix>
</trkpt>
<trkpt lat="33.8102132" lon="-118.3939959">
  <ele>-0.112</ele>
  <time>2026-09-02T22:07:25Z</time>
  <course>10.96</course>
  <speed>0.717007670809734</speed>
  <fix>3d</fix>
</trkpt>
<trkpt lat="33.8102124" lon="-118.3939974">
  <ele>-0.1</ele>
  <time>2026-09-02T22:07:25Z</time>
  <course>47.75</course>
  <speed>0.73</speed>
  <fix>3d</fix>
</trkpt>
<trkpt lat="33.8102132" lon="-118.3939959">
  <ele>-0.112</ele>
  <time>2026-09-02T22:07:25Z</time>
  <course>10.96</course>
  <speed>0.717007670809734</speed>
  <fix>3d</fix>
</trkpt>
<trkpt lat="33.8102133" lon="-118.3939958">
  <ele>-0.111</ele>
  <time>2026-09-02T22:07:25Z</time>
  <course>10.96</course>
  <speed>0.717007670809734</speed>
  <fix>3d</fix>
</trkpt>
<trkpt lat="33.8102133" lon="-118.3939958">
  <ele>-0.111</ele>
  <time>2026-09-02T22:07:25Z</time>
  <course>10.96</course>
  <speed>0.717007670809734</speed>
  <fix>3d</fix>
</trkpt>
<trkpt lat="33.8102134" lon="-118.3939957">
  <ele>-0.111</ele>
  <time>2026-09-02T22:07:25Z</time>
  <course>10.96</course>
  <speed>0.717007670809734</speed>
  <fix>3d</fix>
</trkpt>
<trkpt lat="33.8102134" lon="-118.3939957">
  <ele>-0.111</ele>
  <time>2026-09-02T22:07:25Z</time>
  <course>10.96</course>
  <speed>0.717007670809734</speed>
  <fix>3d</fix>
</trkpt>
<trkpt lat="33.8102134" lon="-118.3939956">
  <ele>-0.111</ele>
  <time>2026-09-02T22:07:25Z</time>
  <course>10.96</course>
  <speed>0.717007670809734</speed>
  <fix>3d</fix>
</trkpt>
<trkpt lat="33.8102135" lon="-118.3939956">
  <ele>-0.111</ele>
  <time>2026-09-02T22:07:25Z</time>
  <course>10.96</course>
  <speed>0.717007670809734</speed>
  <fix>3d</fix>
</trkpt>
<trkpt lat="33.8102135" lon="-118.3939955">
  <ele>-0.111</ele>
  <time>2026-09-02T22:07:25Z</time>
  <course>10.96</course>
  <speed>0.717007670809734</speed>
  <fix>3d</fix>
</trkpt>
<trkpt lat="33.8102136" lon="-118.3939955">
  <ele>-0.111</ele>
  <time>2026-09-02T22:07:25Z</time>
  <course>10.97</course>
  <speed>0.717007670809734</speed>
  <fix>3d</fix>
</trkpt>
<trkpt lat="33.8102136" lon="-118.3939954">
  <ele>-0.111</ele>
  <time>2026-09-02T22:07:25Z</time>
  <course>10.97</course>
  <speed>0.717007670809734</speed>
  <fix>3d</fix>
</trkpt>
<trkpt lat="33.8102136" lon="-118.3939954">
  <ele>-0.111</ele>
  <time>2026-09-02T22:07:25Z</time>
  <course>10.97</course>
  <speed>0.717007670809734</speed>
  <fix>3d</fix>
</trkpt>
<trkpt lat="33.8102136" lon="-118.3939953">
  <ele>-0.111</ele>
  <time>2026-09-02T22:07:25Z</time>
  <course>10.97</course>
  <speed>0.717007670809734</speed>
  <fix>3d</fix>
</trkpt>
<trkpt lat="33.8102133" lon="-118.3939963">
  <ele>-0.1</ele>
  <time>2026-09-02T22:07:25Z</time>
  <course>47.77</course>
  <speed>0.73</speed>
  <fix>3d</fix>
</trkpt>
<trkpt lat="33.8102136" lon="-118.3939953">
  <ele>-0.111</ele>
  <time>2026-09-02T22:07:25Z</time>
  <course>10.97</course>
  <speed>0.717007670809734</speed>
  <fix>3d</fix>
</trkpt>
<trkpt lat="33.8102137" lon="-118.3939952">
  <ele>-0.11</ele>
  <time>2026-09-02T22:07:25Z</time>
  <course>10.97</course>
  <speed>0.717007670809734</speed>
  <fix>3d</fix>
</trkpt>
<trkpt lat="33.8102138" lon="-118.3939952">
  <ele>-0.11</ele>
  <time>2026-09-02T22:07:25Z</time>
  <course>10.97</course>
  <speed>0.717007670809734</speed>
  <fix>3d</fix>
</trkpt>
<trkpt lat="33.8102138" lon="-118.3939951">
  <ele>-0.11</ele>
  <time>2026-09-02T22:07:25Z</time>
  <course>10.97</course>
  <speed>0.717007670809734</speed>
  <fix>3d</fix>
</trkpt>
<trkpt lat="33.8102138" lon="-118.3939951">
  <ele>-0.11</ele>
  <time>2026-09-02T22:07:25Z</time>
  <course>10.97</course>
  <speed>0.717007670809734</speed>
  <fix>3d</fix>
</trkpt>
<trkpt lat="33.8102139" lon="-118.393995">
  <ele>-0.11</ele>
  <time>2026-09-02T22:07:25Z</time>
  <course>10.97</course>
  <speed>0.717007670809734</speed>
  <fix>3d</fix>
</trkpt>
<trkpt lat="33.8102139" lon="-118.393995">
  <ele>-0.11</ele>
  <time>2026-09-02T22:07:25Z</time>
  <course>10.97</course>
  <speed>0.717007670809734</speed>
  <fix>3d</fix>
</trkpt>
<trkpt lat="33.810214" lon="-118.3939949">
  <ele>-0.11</ele>
  <time>2026-09-02T22:07:25Z</time>
  <course>10.97</course>
  <speed>0.717007670809734</speed>
  <fix>3d</fix>
</trkpt>
<trkpt lat="33.810214" lon="-118.3939949">
  <ele>-0.11</ele>
  <time>2026-09-02T22:07:25Z</time>
  <course>10.97</course>
  <speed>0.717007670809734</speed>
  <fix>3d</fix>
</trkpt>
<trkpt lat="33.810214" lon="-118.3939948">
  <ele>-0.11</ele>
  <time>2026-09-02T22:07:25Z</time>
  <course>10.97</course>
  <speed>0.717007670809734</speed>
  <fix>3d</fix>
</trkpt>
<trkpt lat="33.8102141" lon="-118.3939948">
  <ele>-0.11</ele>
  <time>2026-09-02T22:07:25Z</time>
  <course>10.97</course>
  <speed>0.717007670809734</speed>
  <fix>3d</fix>
</trkpt>
<trkpt lat="33.8102141" lon="-118.3939947">
  <ele>-0.11</ele>
  <time>2026-09-02T22:07:25Z</time>
  <course>10.97</course>
  <speed>0.717007670809734</speed>
  <fix>3d</fix>
</trkpt>
<trkpt lat="33.8102141" lon="-118.3939947">
  <ele>-0.11</ele>
  <time>2026-09-02T22:07:25Z</time>
  <course>10.97</course>
  <speed>0.717007670809734</speed>
  <fix>3d</fix>
</trkpt>
<trkpt lat="33.8102133" lon="-118.3939963">
  <ele>-0.1</ele>
  <time>2026-09-02T22:07:25Z</time>
  <course>47.77</course>
  <speed>0.73</speed>
  <fix>3d</fix>
</trkpt>
<trkpt lat="33.8102142" lon="-118.3939947">
  <ele>-0.11</ele>
  <time>2026-09-02T22:07:25Z</time>
  <course>10.97</course>
  <speed>0.717007670809734</speed>
  <fix>3d</fix>
</trkpt>
<trkpt lat="33.8102142" lon="-118.3939946">
  <ele>-0.11</ele>
  <time>2026-09-02T22:07:25Z</time>
  <course>10.97</course>
  <speed>0.717007670809734</speed>
  <fix>3d</fix>
</trkpt>
<trkpt lat="33.8102142" lon="-118.3939945">
  <ele>-0.11</ele>
  <time>2026-09-02T22:07:25Z</time>
  <course>10.98</course>
  <speed>0.717007670809734</speed>
  <fix>3d</fix>
</trkpt>
<trkpt lat="33.8102143" lon="-118.3939945">
  <ele>-0.11</ele>
  <time>2026-09-02T22:07:25Z</time>
  <course>10.98</course>
  <speed>0.717007670809734</speed>
  <fix>3d</fix>
</trkpt>
<trkpt lat="33.8102143" lon="-118.3939944">
  <ele>-0.11</ele>
  <time>2026-09-02T22:07:25Z</time>
  <course>10.98</course>
  <speed>0.717007670809734</speed>
  <fix>3d</fix>
</trkpt>
<trkpt lat="33.8102144" lon="-118.3939944">
  <ele>-0.11</ele>
  <time>2026-09-02T22:07:25Z</time>
  <course>10.98</course>
  <speed>0.717007670809734</speed>
  <fix>3d</fix>
</trkpt>
<trkpt lat="33.8102144" lon="-118.3939943">
  <ele>-0.11</ele>
  <time>2026-09-02T22:07:25Z</time>
  <course>10.98</course>
  <speed>0.717007670809734</speed>
  <fix>3d</fix>
</trkpt>
<trkpt lat="33.8102144" lon="-118.3939943">
  <ele>-0.11</ele>
  <time>2026-09-02T22:07:25Z</time>
  <course>10.98</course>
  <speed>0.717007670809734</speed>
  <fix>3d</fix>
</trkpt>
<trkpt lat="33.8102145" lon="-118.3939942">
  <ele>-0.11</ele>
  <time>2026-09-02T22:07:25Z</time>
  <course>10.98</course>
  <speed>0.717007670809734</speed>
  <fix>3d</fix>
</trkpt>
<trkpt lat="33.8102145" lon="-118.3939942">
  <ele>-0.11</ele>
  <time>2026-09-02T22:07:25Z</time>
  <course>10.98</course>
  <speed>0.717007670809734</speed>
  <fix>3d</fix>
</trkpt>
<trkpt lat="33.8102145" lon="-118.3939942">
  <ele>-0.11</ele>
  <time>2026-09-02T22:07:25Z</time>
  <course>10.98</course>
  <speed>0.717007670809734</speed>
  <fix>3d</fix>
</trkpt>
<trkpt lat="33.8102142" lon="-118.3939951">
  <ele>-0.1</ele>
  <time>2026-09-02T22:07:25Z</time>
  <course>47.78</course>
  <speed>0.73</speed>
  <fix>3d</fix>
</trkpt>
<trkpt lat="33.8102145" lon="-118.3939941">
  <ele>-0.11</ele>
  <time>2026-09-02T22:07:25Z</time>
  <course>10.98</course>
  <speed>0.717007670809734</speed>
  <fix>3d</fix>
</trkpt>
<trkpt lat="33.8102146" lon="-118.3939941">
  <ele>-0.11</ele>
  <time>2026-09-02T22:07:25Z</time>
  <course>10.98</course>
  <speed>0.717007670809734</speed>
  <fix>3d</fix>
</trkpt>
<trkpt lat="33.8102147" lon="-118.393994">
  <ele>-0.11</ele>
  <time>2026-09-02T22:07:25Z</time>
  <course>10.98</course>
  <speed>0.717007670809734</speed>
  <fix>3d</fix>
</trkpt>
<trkpt lat="33.8102147" lon="-118.393994">
  <ele>-0.111</ele>
  <time>2026-09-02T22:07:25Z</time>
  <course>10.98</course>
  <speed>0.717007670809734</speed>
  <fix>3d</fix>
</trkpt>
<trkpt lat="33.8102147" lon="-118.3939939">
  <ele>-0.111</ele>
  <time>2026-09-02T22:07:25Z</time>
  <course>10.98</course>
  <speed>0.717007670809734</speed>
  <fix>3d</fix>
</trkpt>
<trkpt lat="33.8102148" lon="-118.3939938">
  <ele>-0.111</ele>
  <time>2026-09-02T22:07:25Z</time>
  <course>10.98</course>
  <speed>0.717007670809734</speed>
  <fix>3d</fix>
</trkpt>
<trkpt lat="33.8102148" lon="-118.3939938">
  <ele>-0.111</ele>
  <time>2026-09-02T22:07:25Z</time>
  <course>10.98</course>
  <speed>0.7247068372797375</speed>
  <fix>3d</fix>
</trkpt>
<trkpt lat="33.8102149" lon="-118.3939937">
  <ele>-0.111</ele>
  <time>2026-09-02T22:07:25Z</time>
  <course>10.98</course>
  <speed>0.7247068372797375</speed>
  <fix>3d</fix>
</trkpt>
<trkpt lat="33.8102149" lon="-118.3939937">
  <ele>-0.111</ele>
  <time>2026-09-02T22:07:25Z</time>
  <course>10.98</course>
  <speed>0.717007670809734</speed>
  <fix>3d</fix>
</trkpt>
<trkpt lat="33.8102149" lon="-118.3939936">
  <ele>-0.111</ele>
  <time>2026-09-02T22:07:25Z</time>
  <course>10.98</course>
  <speed>0.7247068372797375</speed>
  <fix>3d</fix>
</trkpt>
<trkpt lat="33.810215" lon="-118.3939936">
  <ele>-0.111</ele>
  <time>2026-09-02T22:07:25Z</time>
  <course>10.98</course>
  <speed>0.7247068372797375</speed>
  <fix>3d</fix>
</trkpt>
<trkpt lat="33.810215" lon="-118.3939936">
  <ele>-0.111</ele>
  <time>2026-09-02T22:07:25Z</time>
  <course>10.98</course>
  <speed>0.7247068372797375</speed>
  <fix>3d</fix>
</trkpt>
<trkpt lat="33.8102142" lon="-118.3939951">
  <ele>-0.1</ele>
  <time>2026-09-02T22:07:25Z</time>
  <course>47.78</course>
  <speed>0.73</speed>
  <fix>3d</fix>
</trkpt>
<trkpt lat="33.810215" lon="-118.3939936">
  <ele>-0.111</ele>
  <time>2026-09-02T22:07:25Z</time>
  <course>10.98</course>
  <speed>0.7247068372797375</speed>
  <fix>3d</fix>
</trkpt>
<trkpt lat="33.8102151" lon="-118.3939934">
  <ele>-0.111</ele>
  <time>2026-09-02T22:07:25Z</time>
  <course>10.99</course>
  <speed>0.7247068372797375</speed>
  <fix>3d</fix>
</trkpt>
<trkpt lat="33.8102151" lon="-118.3939934">
  <ele>-0.111</ele>
  <time>2026-09-02T22:07:25Z</time>
  <course>10.99</course>
  <speed>0.7247068372797375</speed>
  <fix>3d</fix>
</trkpt>
<trkpt lat="33.8102151" lon="-118.3939933">
  <ele>-0.111</ele>
  <time>2026-09-02T22:07:25Z</time>
  <course>10.99</course>
  <speed>0.7247068372797375</speed>
  <fix>3d</fix>
</trkpt>
<trkpt lat="33.8102152" lon="-118.3939933">
  <ele>-0.111</ele>
  <time>2026-09-02T22:07:25Z</time>
  <course>10.99</course>
  <speed>0.7247068372797375</speed>
  <fix>3d</fix>
</trkpt>
<trkpt lat="33.8102152" lon="-118.3939933">
  <ele>-0.111</ele>
  <time>2026-09-02T22:07:25Z</time>
  <course>10.99</course>
  <speed>0.7247068372797375</speed>
  <fix>3d</fix>
</trkpt>
<trkpt lat="33.8102152" lon="-118.3939932">
  <ele>-0.111</ele>
  <time>2026-09-02T22:07:25Z</time>
  <course>10.99</course>
  <speed>0.7247068372797375</speed>
  <fix>3d</fix>
</trkpt>
<trkpt lat="33.8102153" lon="-118.3939932">
  <ele>-0.111</ele>
  <time>2026-09-02T22:07:25Z</time>
  <course>10.99</course>
  <speed>0.7247068372797375</speed>
  <fix>3d</fix>
</trkpt>
<trkpt lat="33.8102153" lon="-118.3939931">
  <ele>-0.111</ele>
  <time>2026-09-02T22:07:25Z</time>
  <course>10.99</course>
  <speed>0.7247068372797375</speed>
  <fix>3d</fix>
</trkpt>
<trkpt lat="33.8102154" lon="-118.3939931">
  <ele>-0.111</ele>
  <time>2026-09-02T22:07:25Z</time>
  <course>10.99</course>
  <speed>0.7247068372797375</speed>
  <fix>3d</fix>
</trkpt>
<trkpt lat="33.8102154" lon="-118.393993">
  <ele>-0.111</ele>
  <time>2026-09-02T22:07:25Z</time>
  <course>10.99</course>
  <speed>0.7247068372797375</speed>
  <fix>3d</fix>
</trkpt>
<trkpt lat="33.8102154" lon="-118.393993">
  <ele>-0.111</ele>
  <time>2026-09-02T22:07:25Z</time>
  <course>10.99</course>
  <speed>0.7247068372797375</speed>
  <fix>3d</fix>
</trkpt>
<trkpt lat="33.8102151" lon="-118.393994">
  <ele>-0.1</ele>
  <time>2026-09-02T22:07:25Z</time>
  <course>47.79</course>
  <speed>0.73</speed>
  <fix>3d</fix>
</trkpt>
<trkpt lat="33.8102154" lon="-118.393993">
  <ele>-0.111</ele>
  <time>2026-09-02T22:07:25Z</time>
  <course>10.99</course>
  <speed>0.7247068372797375</speed>
  <fix>3d</fix>
</trkpt>
<trkpt lat="33.8102155" lon="-118.3939929">
  <ele>-0.111</ele>
  <time>2026-09-02T22:07:25Z</time>
  <course>10.99</course>
  <speed>0.7247068372797375</speed>
  <fix>3d</fix>
</trkpt>
<trkpt lat="33.8102155" lon="-118.3939928">
  <ele>-0.111</ele>
  <time>2026-09-02T22:07:25Z</time>
  <course>10.99</course>
  <speed>0.7247068372797375</speed>
  <fix>3d</fix>
</trkpt>
<trkpt lat="33.8102156" lon="-118.3939928">
  <ele>-0.111</ele>
  <time>2026-09-02T22:07:25Z</time>
  <course>10.99</course>
  <speed>0.7247068372797375</speed>
  <fix>3d</fix>
</trkpt>
<trkpt lat="33.8102156" lon="-118.3939928">
  <ele>-0.111</ele>
  <time>2026-09-02T22:07:25Z</time>
  <course>10.99</course>
  <speed>0.7247068372797375</speed>
  <fix>3d</fix>
</trkpt>
<trkpt lat="33.8102156" lon="-118.3939927">
  <ele>-0.111</ele>
  <time>2026-09-02T22:07:25Z</time>
  <course>10.99</course>
  <speed>0.7247068372797375</speed>
  <fix>3d</fix>
</trkpt>
<trkpt lat="33.8102157" lon="-118.3939927">
  <ele>-0.111</ele>
  <time>2026-09-02T22:07:25Z</time>
  <course>10.99</course>
  <speed>0.7247068372797375</speed>
  <fix>3d</fix>
</trkpt>
<trkpt lat="33.8102157" lon="-118.3939926">
  <ele>-0.111</ele>
  <time>2026-09-02T22:07:25Z</time>
  <course>10.99</course>
  <speed>0.7247068372797375</speed>
  <fix>3d</fix>
</trkpt>
<trkpt lat="33.8102157" lon="-118.3939926">
  <ele>-0.111</ele>
  <time>2026-09-02T22:07:25Z</time>
  <course>10.99</course>
  <speed>0.7247068372797375</speed>
  <fix>3d</fix>
</trkpt>
<trkpt lat="33.8102158" lon="-118.3939925">
  <ele>-0.111</ele>
  <time>2026-09-02T22:07:25Z</time>
  <course>11.0</course>
  <speed>0.7247068372797375</speed>
  <fix>3d</fix>
</trkpt>
<trkpt lat="33.8102158" lon="-118.3939925">
  <ele>-0.111</ele>
  <time>2026-09-02T22:07:25Z</time>
  <course>11.0</course>
  <speed>0.7247068372797375</speed>
  <fix>3d</fix>
</trkpt>
<trkpt lat="33.8102158" lon="-118.3939924">
  <ele>-0.111</ele>
  <time>2026-09-02T22:07:25Z</time>
  <course>11.0</course>
  <speed>0.7247068372797375</speed>
  <fix>3d</fix>
</trkpt>
<trkpt lat="33.8102159" lon="-118.3939924">
  <ele>-0.111</ele>
  <time>2026-09-02T22:07:25Z</time>
  <course>11.0</course>
  <speed>0.7247068372797375</speed>
  <fix>3d</fix>
</trkpt>
<trkpt lat="33.8102151" lon="-118.393994">
  <ele>-0.1</ele>
  <time>2026-09-02T22:07:25Z</time>
  <course>47.79</course>
  <speed>0.73</speed>
  <fix>3d</fix>
</trkpt>
<trkpt lat="33.8102159" lon="-118.3939924">
  <ele>-0.111</ele>
  <time>2026-09-02T22:07:25Z</time>
  <course>11.0</course>
  <speed>0.7247068372797375</speed>
  <fix>3d</fix>
</trkpt>
<trkpt lat="33.8102159" lon="-118.3939923">
  <ele>-0.111</ele>
  <time>2026-09-02T22:07:25Z</time>
  <course>11.0</course>
  <speed>0.7247068372797375</speed>
  <fix>3d</fix>
</trkpt>
<trkpt lat="33.810216" lon="-118.3939922">
  <ele>-0.111</ele>
  <time>2026-09-02T22:07:25Z</time>
  <course>11.0</course>
  <speed>0.7247068372797375</speed>
  <fix>3d</fix>
</trkpt>
<trkpt lat="33.810216" lon="-118.3939922">
  <ele>-0.111</ele>
  <time>2026-09-02T22:07:25Z</time>
  <course>11.0</course>
  <speed>0.7247068372797375</speed>
  <fix>3d</fix>
</trkpt>
<trkpt lat="33.8102161" lon="-118.3939921">
  <ele>-0.111</ele>
  <time>2026-09-02T22:07:25Z</time>
  <course>11.0</course>
  <speed>0.7247068372797375</speed>
  <fix>3d</fix>
</trkpt>
<trkpt lat="33.8102161" lon="-118.3939921">
  <ele>-0.111</ele>
  <time>2026-09-02T22:07:25Z</time>
  <course>11.0</course>
  <speed>0.7247068372797375</speed>
  <fix>3d</fix>
</trkpt>
<trkpt lat="33.8102161" lon="-118.393992">
  <ele>-0.112</ele>
  <time>2026-09-02T22:07:25Z</time>
  <course>11.0</course>
  <speed>0.7247068372797375</speed>
  <fix>3d</fix>
</trkpt>
<trkpt lat="33.8102162" lon="-118.393992">
  <ele>-0.112</ele>
  <time>2026-09-02T22:07:25Z</time>
  <course>11.0</course>
  <speed>0.7247068372797375</speed>
  <fix>3d</fix>
</trkpt>
<trkpt lat="33.8102162" lon="-118.3939919">
  <ele>-0.112</ele>
  <time>2026-09-02T22:07:25Z</time>
  <course>11.0</course>
  <speed>0.7247068372797375</speed>
  <fix>3d</fix>
</trkpt>
<trkpt lat="33.8102163" lon="-118.3939919">
  <ele>-0.112</ele>
  <time>2026-09-02T22:07:25Z</time>
  <course>11.0</course>
  <speed>0.7247068372797375</speed>
  <fix>3d</fix>
</trkpt>
<trkpt lat="33.8102163" lon="-118.3939918">
  <ele>-0.112</ele>
  <time>2026-09-02T22:07:25Z</time>
  <course>11.0</course>
  <speed>0.7247068372797375</speed>
  <fix>3d</fix>
</trkpt>
<trkpt lat="33.8102163" lon="-118.3939918">
  <ele>-0.112</ele>
  <time>2026-09-02T22:07:25Z</time>
  <course>11.0</course>
  <speed>0.7247068372797375</speed>
  <fix>3d</fix>
</trkpt>
<trkpt lat="33.8102159" lon="-118.3939928">
  <ele>-0.1</ele>
  <time>2026-09-02T22:07:25Z</time>
  <course>47.8</course>
  <speed>0.73</speed>
  <fix>3d</fix>
</trkpt>
<trkpt lat="33.8102163" lon="-118.3939918">
  <ele>-0.112</ele>
  <time>2026-09-02T22:07:25Z</time>
  <course>11.0</course>
  <speed>0.7247068372797375</speed>
  <fix>3d</fix>
</trkpt>
<trkpt lat="33.8102164" lon="-118.3939917">
  <ele>-0.112</ele>
  <time>2026-09-02T22:07:25Z</time>
  <course>11.0</course>
  <speed>0.7247068372797375</speed>
  <fix>3d</fix>
</trkpt>
<trkpt lat="33.8102164" lon="-118.3939917">
  <ele>-0.112</ele>
  <time>2026-09-02T22:07:25Z</time>
  <course>11.0</course>
  <speed>0.7247068372797375</speed>
  <fix>3d</fix>
</trkpt>
<trkpt lat="33.8102165" lon="-118.3939916">
  <ele>-0.113</ele>
  <time>2026-09-02T22:07:25Z</time>
  <course>11.0</course>
  <speed>0.7247068372797375</speed>
  <fix>3d</fix>
</trkpt>
<trkpt lat="33.8102165" lon="-118.3939916">
  <ele>-0.113</ele>
  <time>2026-09-02T22:07:25Z</time>
  <course>11.0</course>
  <speed>0.7247068372797375</speed>
  <fix>3d</fix>
</trkpt>
<trkpt lat="33.8102165" lon="-118.3939915">
  <ele>-0.113</ele>
  <time>2026-09-02T22:07:25Z</time>
  <course>11.01</course>
  <speed>0.7247068372797375</speed>
  <fix>3d</fix>
</trkpt>
<trkpt lat="33.8102166" lon="-118.3939915">
  <ele>-0.113</ele>
  <time>2026-09-02T22:07:25Z</time>
  <course>11.01</course>
  <speed>0.7247068372797375</speed>
  <fix>3d</fix>
</trkpt>
<trkpt lat="33.8102166" lon="-118.3939914">
  <ele>-0.113</ele>
  <time>2026-09-02T22:07:25Z</time>
  <course>11.01</course>
  <speed>0.7247068372797375</speed>
  <fix>3d</fix>
</trkpt>
<trkpt lat="33.8102166" lon="-118.3939914">
  <ele>-0.113</ele>
  <time>2026-09-02T22:07:25Z</time>
  <course>11.01</course>
  <speed>0.7247068372797375</speed>
  <fix>3d</fix>
</trkpt>
<trkpt lat="33.8102167" lon="-118.3939913">
  <ele>-0.113</ele>
  <time>2026-09-02T22:07:25Z</time>
  <course>11.01</course>
  <speed>0.7247068372797375</speed>
  <fix>3d</fix>
</trkpt>
<trkpt lat="33.8102167" lon="-118.3939913">
  <ele>-0.113</ele>
  <time>2026-09-02T22:07:25Z</time>
  <course>11.01</course>
  <speed>0.7247068372797375</speed>
  <fix>3d</fix>
</trkpt>
<trkpt lat="33.8102167" lon="-118.3939912">
  <ele>-0.113</ele>
  <time>2026-09-02T22:07:25Z</time>
  <course>11.01</course>
  <speed>0.7247068372797375</speed>
  <fix>3d</fix>
</trkpt>
<trkpt lat="33.8102167" lon="-118.3939912">
  <ele>-0.113</ele>
  <time>2026-09-02T22:07:25Z</time>
  <course>11.01</course>
  <speed>0.7247068372797375</speed>
  <fix>3d</fix>
</trkpt>
<trkpt lat="33.8102159" lon="-118.3939928">
  <ele>-0.1</ele>
  <time>2026-09-02T22:07:25Z</time>
  <course>47.8</course>
  <speed>0.73</speed>
  <fix>3d</fix>
</trkpt>
<trkpt lat="33.8102168" lon="-118.3939912">
  <ele>-0.113</ele>
  <time>2026-09-02T22:07:25Z</time>
  <course>11.01</course>
  <speed>0.7247068372797375</speed>
  <fix>3d</fix>
</trkpt>
<trkpt lat="33.8102168" lon="-118.3939911">
  <ele>-0.113</ele>
  <time>2026-09-02T22:07:25Z</time>
  <course>11.01</course>
  <speed>0.7247068372797375</speed>
  <fix>3d</fix>
</trkpt>
<trkpt lat="33.8102169" lon="-118.393991">
  <ele>-0.113</ele>
  <time>2026-09-02T22:07:25Z</time>
  <course>11.01</course>
  <speed>0.7247068372797375</speed>
  <fix>3d</fix>
</trkpt>
<trkpt lat="33.8102169" lon="-118.393991">
  <ele>-0.113</ele>
  <time>2026-09-02T22:07:25Z</time>
  <course>11.01</course>
  <speed>0.7247068372797375</speed>
  <fix>3d</fix>
</trkpt>
<trkpt lat="33.810217" lon="-118.3939909">
  <ele>-0.113</ele>
  <time>2026-09-02T22:07:25Z</time>
  <course>11.01</course>
  <speed>0.7247068372797375</speed>
  <fix>3d</fix>
</trkpt>
<trkpt lat="33.810217" lon="-118.3939909">
  <ele>-0.113</ele>
  <time>2026-09-02T22:07:25Z</time>
  <course>11.01</course>
  <speed>0.7247068372797375</speed>
  <fix>3d</fix>
</trkpt>
<trkpt lat="33.810217" lon="-118.3939908">
  <ele>-0.113</ele>
  <time>2026-09-02T22:07:25Z</time>
  <course>11.01</course>
  <speed>0.7247068372797375</speed>
  <fix>3d</fix>
</trkpt>
<trkpt lat="33.8102171" lon="-118.3939908">
  <ele>-0.113</ele>
  <time>2026-09-02T22:07:25Z</time>
  <course>11.01</course>
  <speed>0.7247068372797375</speed>
  <fix>3d</fix>
</trkpt>
<trkpt lat="33.8102171" lon="-118.3939907">
  <ele>-0.113</ele>
  <time>2026-09-02T22:07:25Z</time>
  <course>11.01</course>
  <speed>0.7247068372797375</speed>
  <fix>3d</fix>
</trkpt>
<trkpt lat="33.8102172" lon="-118.3939907">
  <ele>-0.113</ele>
  <time>2026-09-02T22:07:25Z</time>
  <course>11.01</course>
  <speed>0.7247068372797375</speed>
  <fix>3d</fix>
</trkpt>
<trkpt lat="33.8102172" lon="-118.3939906">
  <ele>-0.113</ele>
  <time>2026-09-02T22:07:25Z</time>
  <course>11.01</course>
  <speed>0.7247068372797375</speed>
  <fix>3d</fix>
</trkpt>
<trkpt lat="33.8102172" lon="-118.3939906">
  <ele>-0.113</ele>
  <time>2026-09-02T22:07:25Z</time>
  <course>11.01</course>
  <speed>0.7247068372797375</speed>
  <fix>3d</fix>
</trkpt>
<trkpt lat="33.8102168" lon="-118.3939916">
  <ele>-0.1</ele>
  <time>2026-09-02T22:07:25Z</time>
  <course>47.81</course>
  <speed>0.73</speed>
  <fix>3d</fix>
</trkpt>
<trkpt lat="33.8102173" lon="-118.3939905">
  <ele>-0.113</ele>
  <time>2026-09-02T22:07:25Z</time>
  <course>11.01</course>
  <speed>0.7247068372797375</speed>
  <fix>3d</fix>
</trkpt>
<trkpt lat="33.8102173" lon="-118.3939905">
  <ele>-0.113</ele>
  <time>2026-09-02T22:07:25Z</time>
  <course>11.02</course>
  <speed>0.7247068372797375</speed>
  <fix>3d</fix>
</trkpt>
<trkpt lat="33.8102173" lon="-118.3939904">
  <ele>-0.113</ele>
  <time>2026-09-02T22:07:25Z</time>
  <course>11.02</course>
  <speed>0.7247068372797375</speed>
  <fix>3d</fix>
</trkpt>
<trkpt lat="33.8102174" lon="-118.3939904">
  <ele>-0.113</ele>
  <time>2026-09-02T22:07:25Z</time>
  <course>11.02</course>
  <speed>0.7247068372797375</speed>
  <fix>3d</fix>
</trkpt>
<trkpt lat="33.8102174" lon="-118.3939903">
  <ele>-0.113</ele>
  <time>2026-09-02T22:07:25Z</time>
  <course>11.02</course>
  <speed>0.7247068372797375</speed>
  <fix>3d</fix>
</trkpt>
<trkpt lat="33.8102175" lon="-118.3939902">
  <ele>-0.113</ele>
  <time>2026-09-02T22:07:25Z</time>
  <course>11.02</course>
  <speed>0.7247068372797375</speed>
  <fix>3d</fix>
</trkpt>
<trkpt lat="33.8102175" lon="-118.3939902">
  <ele>-0.113</ele>
  <time>2026-09-02T22:07:25Z</time>
  <course>11.02</course>
  <speed>0.7247068372797375</speed>
  <fix>3d</fix>
</trkpt>
<trkpt lat="33.8102175" lon="-118.3939902">
  <ele>-0.113</ele>
  <time>2026-09-02T22:07:25Z</time>
  <course>11.02</course>
  <speed>0.7247068372797375</speed>
  <fix>3d</fix>
</trkpt>
<trkpt lat="33.8102176" lon="-118.3939901">
  <ele>-0.113</ele>
  <time>2026-09-02T22:07:25Z</time>
  <course>11.02</course>
  <speed>0.7247068372797375</speed>
  <fix>3d</fix>
</trkpt>
<trkpt lat="33.8102176" lon="-118.3939901">
  <ele>-0.113</ele>
  <time>2026-09-02T22:07:25Z</time>
  <course>11.02</course>
  <speed>0.7247068372797375</speed>
  <fix>3d</fix>
</trkpt>
<trkpt lat="33.8102176" lon="-118.39399">
  <ele>-0.113</ele>
  <time>2026-09-02T22:07:25Z</time>
  <course>11.02</course>
  <speed>0.7247068372797375</speed>
  <fix>3d</fix>
</trkpt>
<trkpt lat="33.8102168" lon="-118.3939916">
  <ele>-0.1</ele>
  <time>2026-09-02T22:07:25Z</time>
  <course>47.81</course>
  <speed>0.73</speed>
  <fix>3d</fix>
</trkpt>
<trkpt lat="33.8102176" lon="-118.39399">
  <ele>-0.113</ele>
  <time>2026-09-02T22:07:25Z</time>
  <course>11.02</course>
  <speed>0.7247068372797375</speed>
  <fix>3d</fix>
</trkpt>
<trkpt lat="33.8102177" lon="-118.39399">
  <ele>-0.113</ele>
  <time>2026-09-02T22:07:25Z</time>
  <course>11.02</course>
  <speed>0.7247068372797375</speed>
  <fix>3d</fix>
</trkpt>
<trkpt lat="33.8102177" lon="-118.3939899">
  <ele>-0.113</ele>
  <time>2026-09-02T22:07:25Z</time>
  <course>11.02</course>
  <speed>0.7247068372797375</speed>
  <fix>3d</fix>
</trkpt>
<trkpt lat="33.8102178" lon="-118.3939899">
  <ele>-0.113</ele>
  <time>2026-09-02T22:07:25Z</time>
  <course>11.02</course>
  <speed>0.7247068372797375</speed>
  <fix>3d</fix>
</trkpt>
<trkpt lat="33.8102178" lon="-118.3939898">
  <ele>-0.113</ele>
  <time>2026-09-02T22:07:25Z</time>
  <course>11.02</course>
  <speed>0.7247068372797375</speed>
  <fix>3d</fix>
</trkpt>
<trkpt lat="33.8102178" lon="-118.3939898">
  <ele>-0.113</ele>
  <time>2026-09-02T22:07:25Z</time>
  <course>11.02</course>
  <speed>0.7247068372797375</speed>
  <fix>3d</fix>
</trkpt>
<trkpt lat="33.8102179" lon="-118.3939897">
  <ele>-0.114</ele>
  <time>2026-09-02T22:07:25Z</time>
  <course>11.02</course>
  <speed>0.7247068372797375</speed>
  <fix>3d</fix>
</trkpt>
<trkpt lat="33.8102179" lon="-118.3939897">
  <ele>-0.114</ele>
  <time>2026-09-02T22:07:25Z</time>
  <course>11.02</course>
  <speed>0.7247068372797375</speed>
  <fix>3d</fix>
</trkpt>
<trkpt lat="33.810218" lon="-118.3939896">
  <ele>-0.114</ele>
  <time>2026-09-02T22:07:25Z</time>
  <course>11.02</course>
  <speed>0.7247068372797375</speed>
  <fix>3d</fix>
</trkpt>
<trkpt lat="33.810218" lon="-118.3939895">
  <ele>-0.114</ele>
  <time>2026-09-02T22:07:25Z</time>
  <course>11.02</course>
  <speed>0.7247068372797375</speed>
  <fix>3d</fix>
</trkpt>
<trkpt lat="33.810218" lon="-118.3939895">
  <ele>-0.114</ele>
  <time>2026-09-02T22:07:25Z</time>
  <course>11.03</course>
  <speed>0.7247068372797375</speed>
  <fix>3d</fix>
</trkpt>
<trkpt lat="33.8102181" lon="-118.3939895">
  <ele>-0.114</ele>
  <time>2026-09-02T22:07:25Z</time>
  <course>11.03</course>
  <speed>0.7247068372797375</speed>
  <fix>3d</fix>
</trkpt>
<trkpt lat="33.8102177" lon="-118.3939904">
  <ele>-0.1</ele>
  <time>2026-09-02T22:07:25Z</time>
  <course>47.82</course>
  <speed>0.73</speed>
  <fix>3d</fix>
</trkpt>
<trkpt lat="33.8102181" lon="-118.3939894">
  <ele>-0.114</ele>
  <time>2026-09-02T22:07:25Z</time>
  <course>11.03</course>
  <speed>0.7247068372797375</speed>
  <fix>3d</fix>
</trkpt>
<trkpt lat="33.8102181" lon="-118.3939894">
  <ele>-0.114</ele>
  <time>2026-09-02T22:07:25Z</time>
  <course>11.03</course>
  <speed>0.7247068372797375</speed>
  <fix>3d</fix>
</trkpt>
<trkpt lat="33.8102182" lon="-118.3939893">
  <ele>-0.115</ele>
  <time>2026-09-02T22:07:25Z</time>
  <course>11.03</course>
  <speed>0.7247068372797375</speed>
  <fix>3d</fix>
</trkpt>
<trkpt lat="33.8102182" lon="-118.3939893">
  <ele>-0.115</ele>
  <time>2026-09-02T22:07:25Z</time>
  <course>11.03</course>
  <speed>0.7247068372797375</speed>
  <fix>3d</fix>
</trkpt>
<trkpt lat="33.8102183" lon="-118.3939892">
  <ele>-0.115</ele>
  <time>2026-09-02T22:07:25Z</time>
  <course>11.03</course>
  <speed>0.7247068372797375</speed>
  <fix>3d</fix>
</trkpt>
<trkpt lat="33.8102183" lon="-118.3939891">
  <ele>-0.115</ele>
  <time>2026-09-02T22:07:25Z</time>
  <course>11.03</course>
  <speed>0.7247068372797375</speed>
  <fix>3d</fix>
</trkpt>
<trkpt lat="33.8102184" lon="-118.3939891">
  <ele>-0.115</ele>
  <time>2026-09-02T22:07:25Z</time>
  <course>11.03</course>
  <speed>0.7247068372797375</speed>
  <fix>3d</fix>
</trkpt>
<trkpt lat="33.8102184" lon="-118.393989">
  <ele>-0.115</ele>
  <time>2026-09-02T22:07:25Z</time>
  <course>11.03</course>
  <speed>0.7247068372797375</speed>
  <fix>3d</fix>
</trkpt>
<trkpt lat="33.8102184" lon="-118.393989">
  <ele>-0.115</ele>
  <time>2026-09-02T22:07:25Z</time>
  <course>11.03</course>
  <speed>0.7247068372797375</speed>
  <fix>3d</fix>
</trkpt>
<trkpt lat="33.8102185" lon="-118.3939889">
  <ele>-0.115</ele>
  <time>2026-09-02T22:07:25Z</time>
  <course>11.03</course>
  <speed>0.7247068372797375</speed>
  <fix>3d</fix>
</trkpt>
<trkpt lat="33.8102185" lon="-118.3939889">
  <ele>-0.115</ele>
  <time>2026-09-02T22:07:25Z</time>
  <course>11.03</course>
  <speed>0.7247068372797375</speed>
  <fix>3d</fix>
</trkpt>
<trkpt lat="33.8102185" lon="-118.3939889">
  <ele>-0.115</ele>
  <time>2026-09-02T22:07:25Z</time>
  <course>11.03</course>
  <speed>0.7247068372797375</speed>
  <fix>3d</fix>
</trkpt>
<trkpt lat="33.8102177" lon="-118.3939904">
  <ele>-0.1</ele>
  <time>2026-09-02T22:07:25Z</time>
  <course>47.82</course>
  <speed>0.73</speed>
  <fix>3d</fix>
</trkpt>
<trkpt lat="33.8102185" lon="-118.3939889">
  <ele>-0.115</ele>
  <time>2026-09-02T22:07:25Z</time>
  <course>11.03</course>
  <speed>0.7247068372797375</speed>
  <fix>3d</fix>
</trkpt>
<trkpt lat="33.8102186" lon="-118.3939888">
  <ele>-0.116</ele>
  <time>2026-09-02T22:07:25Z</time>
  <course>11.03</course>
  <speed>0.7247068372797375</speed>
  <fix>3d</fix>
</trkpt>
<trkpt lat="33.8102186" lon="-118.3939887">
  <ele>-0.116</ele>
  <time>2026-09-02T22:07:25Z</time>
  <course>11.03</course>
  <speed>0.7247068372797375</speed>
  <fix>3d</fix>
</trkpt>
<trkpt lat="33.8102186" lon="-118.3939887">
  <ele>-0.116</ele>
  <time>2026-09-02T22:07:25Z</time>
  <course>11.03</course>
  <speed>0.7247068372797375</speed>
  <fix>3d</fix>
</trkpt>
<trkpt lat="33.8102187" lon="-118.3939886">
  <ele>-0.116</ele>
  <time>2026-09-02T22:07:25Z</time>
  <course>11.03</course>
  <speed>0.7247068372797375</speed>
  <fix>3d</fix>
</trkpt>
<trkpt lat="33.8102187" lon="-118.3939886">
  <ele>-0.116</ele>
  <time>2026-09-02T22:07:25Z</time>
  <course>11.03</course>
  <speed>0.7247068372797375</speed>
  <fix>3d</fix>
</trkpt>
<trkpt lat="33.8102188" lon="-118.3939885">
  <ele>-0.116</ele>
  <time>2026-09-02T22:07:25Z</time>
  <course>11.03</course>
  <speed>0.7247068372797375</speed>
  <fix>3d</fix>
</trkpt>
<trkpt lat="33.8102188" lon="-118.3939885">
  <ele>-0.116</ele>
  <time>2026-09-02T22:07:25Z</time>
  <course>11.04</course>
  <speed>0.7247068372797375</speed>
  <fix>3d</fix>
</trkpt>
<trkpt lat="33.8102188" lon="-118.3939884">
  <ele>-0.116</ele>
  <time>2026-09-02T22:07:25Z</time>
  <course>11.04</course>
  <speed>0.7247068372797375</speed>
  <fix>3d</fix>
</trkpt>
<trkpt lat="33.8102189" lon="-118.3939884">
  <ele>-0.116</ele>
  <time>2026-09-02T22:07:25Z</time>
  <course>11.04</course>
  <speed>0.7247068372797375</speed>
  <fix>3d</fix>
</trkpt>
<trkpt lat="33.8102189" lon="-118.3939883">
  <ele>-0.116</ele>
  <time>2026-09-02T22:07:25Z</time>
  <course>11.04</course>
  <speed>0.7247068372797375</speed>
  <fix>3d</fix>
</trkpt>
<trkpt lat="33.810219" lon="-118.3939883">
  <ele>-0.116</ele>
  <time>2026-09-02T22:07:25Z</time>
  <course>11.04</course>
  <speed>0.7247068372797375</speed>
  <fix>3d</fix>
</trkpt>
<trkpt lat="33.8102186" lon="-118.3939892">
  <ele>-0.1</ele>
  <time>2026-09-02T22:07:25Z</time>
  <course>47.83</course>
  <speed>0.73</speed>
  <fix>3d</fix>
</trkpt>
<trkpt lat="33.810219" lon="-118.3939883">
  <ele>-0.116</ele>
  <time>2026-09-02T22:07:25Z</time>
  <course>11.04</course>
  <speed>0.7247068372797375</speed>
  <fix>3d</fix>
</trkpt>
<trkpt lat="33.810219" lon="-118.3939882">
  <ele>-0.117</ele>
  <time>2026-09-02T22:07:25Z</time>
  <course>11.04</course>
  <speed>0.7247068372797375</speed>
  <fix>3d</fix>
</trkpt>
<trkpt lat="33.8102191" lon="-118.3939881">
  <ele>-0.117</ele>
  <time>2026-09-02T22:07:25Z</time>
  <course>11.04</course>
  <speed>0.7247068372797375</speed>
  <fix>3d</fix>
</trkpt>
<trkpt lat="33.8102191" lon="-118.3939881">
  <ele>-0.117</ele>
  <time>2026-09-02T22:07:25Z</time>
  <course>11.04</course>
  <speed>0.7247068372797375</speed>
  <fix>3d</fix>
</trkpt>
<trkpt lat="33.8102192" lon="-118.393988">
  <ele>-0.117</ele>
  <time>2026-09-02T22:07:25Z</time>
  <course>11.04</course>
  <speed>0.7247068372797375</speed>
  <fix>3d</fix>
</trkpt>
<trkpt lat="33.8102192" lon="-118.393988">
  <ele>-0.117</ele>
  <time>2026-09-02T22:07:25Z</time>
  <course>11.04</course>
  <speed>0.7247068372797375</speed>
  <fix>3d</fix>
</trkpt>
<trkpt lat="33.8102192" lon="-118.3939879">
  <ele>-0.117</ele>
  <time>2026-09-02T22:07:25Z</time>
  <course>11.04</course>
  <speed>0.7247068372797375</speed>
  <fix>3d</fix>
</trkpt>
<trkpt lat="33.8102193" lon="-118.3939878">
  <ele>-0.117</ele>
  <time>2026-09-02T22:07:25Z</time>
  <course>11.04</course>
  <speed>0.7247068372797375</speed>
  <fix>3d</fix>
</trkpt>
<trkpt lat="33.8102193" lon="-118.3939878">
  <ele>-0.117</ele>
  <time>2026-09-02T22:07:25Z</time>
  <course>11.04</course>
  <speed>0.7247068372797375</speed>
  <fix>3d</fix>
</trkpt>
<trkpt lat="33.8102193" lon="-118.3939877">
  <ele>-0.117</ele>
  <time>2026-09-02T22:07:25Z</time>
  <course>11.04</course>
  <speed>0.7247068372797375</speed>
  <fix>3d</fix>
</trkpt>
<trkpt lat="33.8102194" lon="-118.3939877">
  <ele>-0.116</ele>
  <time>2026-09-02T22:07:25Z</time>
  <course>11.04</course>
  <speed>0.7247068372797375</speed>
  <fix>3d</fix>
</trkpt>
<trkpt lat="33.8102194" lon="-118.3939877">
  <ele>-0.116</ele>
  <time>2026-09-02T22:07:25Z</time>
  <course>11.04</course>
  <speed>0.7247068372797375</speed>
  <fix>3d</fix>
</trkpt>
<trkpt lat="33.8102186" lon="-118.3939892">
  <ele>-0.1</ele>
  <time>2026-09-02T22:07:25Z</time>
  <course>47.83</course>
  <speed>0.73</speed>
  <fix>3d</fix>
</trkpt>
<trkpt lat="33.8102194" lon="-118.3939877">
  <ele>-0.116</ele>
  <time>2026-09-02T22:07:25Z</time>
  <course>11.04</course>
  <speed>0.7247068372797375</speed>
  <fix>3d</fix>
</trkpt>
<trkpt lat="33.8102195" lon="-118.3939876">
  <ele>-0.116</ele>
  <time>2026-09-02T22:07:25Z</time>
  <course>11.04</course>
  <speed>0.7247068372797375</speed>
  <fix>3d</fix>
</trkpt>
<trkpt lat="33.8102195" lon="-118.3939875">
  <ele>-0.116</ele>
  <time>2026-09-02T22:07:25Z</time>
  <course>11.04</course>
  <speed>0.7247068372797375</speed>
  <fix>3d</fix>
</trkpt>
<trkpt lat="33.8102195" lon="-118.3939875">
  <ele>-0.116</ele>
  <time>2026-09-02T22:07:25Z</time>
  <course>11.05</course>
  <speed>0.7247068372797375</speed>
  <fix>3d</fix>
</trkpt>
<trkpt lat="33.8102196" lon="-118.3939874">
  <ele>-0.116</ele>
  <time>2026-09-02T22:07:25Z</time>
  <course>11.05</course>
  <speed>0.7247068372797375</speed>
  <fix>3d</fix>
</trkpt>
<trkpt lat="33.8102196" lon="-118.3939874">
  <ele>-0.116</ele>
  <time>2026-09-02T22:07:25Z</time>
  <course>11.05</course>
  <speed>0.7247068372797375</speed>
  <fix>3d</fix>
</trkpt>
<trkpt lat="33.8102196" lon="-118.3939874">
  <ele>-0.116</ele>
  <time>2026-09-02T22:07:25Z</time>
  <course>11.05</course>
  <speed>0.7247068372797375</speed>
  <fix>3d</fix>
</trkpt>
<trkpt lat="33.8102197" lon="-118.3939873">
  <ele>-0.116</ele>
  <time>2026-09-02T22:07:25Z</time>
  <course>11.05</course>
  <speed>0.7247068372797375</speed>
  <fix>3d</fix>
</trkpt>
<trkpt lat="33.8102197" lon="-118.3939872">
  <ele>-0.116</ele>
  <time>2026-09-02T22:07:25Z</time>
  <course>11.05</course>
  <speed>0.7247068372797375</speed>
  <fix>3d</fix>
</trkpt>
<trkpt lat="33.8102198" lon="-118.3939872">
  <ele>-0.116</ele>
  <time>2026-09-02T22:07:25Z</time>
  <course>11.05</course>
  <speed>0.7247068372797375</speed>
  <fix>3d</fix>
</trkpt>
<trkpt lat="33.8102198" lon="-118.3939872">
  <ele>-0.116</ele>
  <time>2026-09-02T22:07:25Z</time>
  <course>11.05</course>
  <speed>0.7247068372797375</speed>
  <fix>3d</fix>
</trkpt>
<trkpt lat="33.8102198" lon="-118.3939871">
  <ele>-0.116</ele>
  <time>2026-09-02T22:07:25Z</time>
  <course>11.05</course>
  <speed>0.7247068372797375</speed>
  <fix>3d</fix>
</trkpt>
<trkpt lat="33.8102198" lon="-118.3939871">
  <ele>-0.116</ele>
  <time>2026-09-02T22:07:25Z</time>
  <course>11.05</course>
  <speed>0.7247068372797375</speed>
  <fix>3d</fix>
</trkpt>
<trkpt lat="33.8102195" lon="-118.3939881">
  <ele>-0.1</ele>
  <time>2026-09-02T22:07:25Z</time>
  <course>47.85</course>
  <speed>0.73</speed>
  <fix>3d</fix>
</trkpt>
<trkpt lat="33.8102198" lon="-118.3939871">
  <ele>-0.116</ele>
  <time>2026-09-02T22:07:25Z</time>
  <course>11.05</course>
  <speed>0.7247068372797375</speed>
  <fix>3d</fix>
</trkpt>
<trkpt lat="33.8102199" lon="-118.393987">
  <ele>-0.116</ele>
  <time>2026-09-02T22:07:25Z</time>
  <course>11.05</course>
  <speed>0.7247068372797375</speed>
  <fix>3d</fix>
</trkpt>
<trkpt lat="33.8102199" lon="-118.3939869">
  <ele>-0.116</ele>
  <time>2026-09-02T22:07:25Z</time>
  <course>11.05</course>
  <speed>0.7247068372797375</speed>
  <fix>3d</fix>
</trkpt>
<trkpt lat="33.81022" lon="-118.3939869">
  <ele>-0.116</ele>
  <time>2026-09-02T22:07:25Z</time>
  <course>11.05</course>
  <speed>0.7247068372797375</speed>
  <fix>3d</fix>
</trkpt>
<trkpt lat="33.81022" lon="-118.3939869">
  <ele>-0.116</ele>
  <time>2026-09-02T22:07:25Z</time>
  <course>11.05</course>
  <speed>0.7247068372797375</speed>
  <fix>3d</fix>
</trkpt>
<trkpt lat="33.81022" lon="-118.3939868">
  <ele>-0.116</ele>
  <time>2026-09-02T22:07:25Z</time>
  <course>11.05</course>
  <speed>0.7247068372797375</speed>
  <fix>3d</fix>
</trkpt>
<trkpt lat="33.8102201" lon="-118.3939868">
  <ele>-0.116</ele>
  <time>2026-09-02T22:07:25Z</time>
  <course>11.05</course>
  <speed>0.7247068372797375</speed>
  <fix>3d</fix>
</trkpt>
<trkpt lat="33.8102201" lon="-118.3939867">
  <ele>-0.116</ele>
  <time>2026-09-02T22:07:25Z</time>
  <course>11.05</course>
  <speed>0.7247068372797375</speed>
  <fix>3d</fix>
</trkpt>
<trkpt lat="33.8102202" lon="-118.3939867">
  <ele>-0.116</ele>
  <time>2026-09-02T22:07:25Z</time>
  <course>11.05</course>
  <speed>0.7247068372797375</speed>
  <fix>3d</fix>
</trkpt>
<trkpt lat="33.8102202" lon="-118.3939866">
  <ele>-0.116</ele>
  <time>2026-09-02T22:07:25Z</time>
  <course>11.05</course>
  <speed>0.7247068372797375</speed>
  <fix>3d</fix>
</trkpt>
<trkpt lat="33.8102202" lon="-118.3939866">
  <ele>-0.116</ele>
  <time>2026-09-02T22:07:25Z</time>
  <course>11.05</course>
  <speed>0.7247068372797375</speed>
  <fix>3d</fix>
</trkpt>
<trkpt lat="33.8102203" lon="-118.3939865">
  <ele>-0.115</ele>
  <time>2026-09-02T22:07:25Z</time>
  <course>11.05</course>
  <speed>0.7247068372797375</speed>
  <fix>3d</fix>
</trkpt>
<trkpt lat="33.8102203" lon="-118.3939865">
  <ele>-0.115</ele>
  <time>2026-09-02T22:07:25Z</time>
  <course>11.05</course>
  <speed>0.7247068372797375</speed>
  <fix>3d</fix>
</trkpt>
<trkpt lat="33.8102195" lon="-118.3939881">
  <ele>-0.1</ele>
  <time>2026-09-02T22:07:25Z</time>
  <course>47.85</course>
  <speed>0.73</speed>
  <fix>3d</fix>
</trkpt>
<trkpt lat="33.8102203" lon="-118.3939865">
  <ele>-0.115</ele>
  <time>2026-09-02T22:07:25Z</time>
  <course>11.05</course>
  <speed>0.7247068372797375</speed>
  <fix>3d</fix>
</trkpt>
<trkpt lat="33.8102203" lon="-118.3939864">
  <ele>-0.115</ele>
  <time>2026-09-02T22:07:25Z</time>
  <course>11.06</course>
  <speed>0.7247068372797375</speed>
  <fix>3d</fix>
</trkpt>
<trkpt lat="33.8102204" lon="-118.3939864">
  <ele>-0.115</ele>
  <time>2026-09-02T22:07:25Z</time>
  <course>11.06</course>
  <speed>0.7247068372797375</speed>
  <fix>3d</fix>
</trkpt>
<trkpt lat="33.8102204" lon="-118.3939863">
  <ele>-0.115</ele>
  <time>2026-09-02T22:07:25Z</time>
  <course>11.06</course>
  <speed>0.7247068372797375</speed>
  <fix>3d</fix>
</trkpt>
<trkpt lat="33.8102205" lon="-118.3939862">
  <ele>-0.115</ele>
  <time>2026-09-02T22:07:25Z</time>
  <course>11.06</course>
  <speed>0.7247068372797375</speed>
  <fix>3d</fix>
</trkpt>
<trkpt lat="33.8102206" lon="-118.3939861">
  <ele>-0.115</ele>
  <time>2026-09-02T22:07:25Z</time>
  <course>11.06</course>
  <speed>0.7247068372797375</speed>
  <fix>3d</fix>
</trkpt>
<trkpt lat="33.8102206" lon="-118.393986">
  <ele>-0.115</ele>
  <time>2026-09-02T22:07:25Z</time>
  <course>11.06</course>
  <speed>0.7247068372797375</speed>
  <fix>3d</fix>
</trkpt>
<trkpt lat="33.8102207" lon="-118.393986">
  <ele>-0.114</ele>
  <time>2026-09-02T22:07:25Z</time>
  <course>11.06</course>
  <speed>0.7247068372797375</speed>
  <fix>3d</fix>
</trkpt>
<trkpt lat="33.8102207" lon="-118.3939859">
  <ele>-0.114</ele>
  <time>2026-09-02T22:07:25Z</time>
  <course>11.06</course>
  <speed>0.7247068372797375</speed>
  <fix>3d</fix>
</trkpt>
<trkpt lat="33.8102207" lon="-118.3939859">
  <ele>-0.114</ele>
  <time>2026-09-02T22:07:25Z</time>
  <course>11.06</course>
  <speed>0.7247068372797375</speed>
  <fix>3d</fix>
</trkpt>
<trkpt lat="33.8102204" lon="-118.3939868">
  <ele>-0.1</ele>
  <time>2026-09-02T22:07:25Z</time>
  <course>47.86</course>
  <speed>0.73</speed>
  <fix>3d</fix>
</trkpt>
<trkpt lat="33.8102208" lon="-118.3939858">
  <ele>-0.114</ele>
  <time>2026-09-02T22:07:25Z</time>
  <course>11.06</course>
  <speed>0.7247068372797375</speed>
  <fix>3d</fix>
</trkpt>
<trkpt lat="33.8102208" lon="-118.3939858">
  <ele>-0.114</ele>
  <time>2026-09-02T22:07:25Z</time>
  <course>11.06</course>
  <speed>0.7247068372797375</speed>
  <fix>3d</fix>
</trkpt>
<trkpt lat="33.8102209" lon="-118.3939857">
  <ele>-0.114</ele>
  <time>2026-09-02T22:07:25Z</time>
  <course>11.06</course>
  <speed>0.7247068372797375</speed>
  <fix>3d</fix>
</trkpt>
<trkpt lat="33.8102209" lon="-118.3939857">
  <ele>-0.114</ele>
  <time>2026-09-02T22:07:25Z</time>
  <course>11.06</course>
  <speed>0.7247068372797375</speed>
  <fix>3d</fix>
</trkpt>
<trkpt lat="33.810221" lon="-118.3939856">
  <ele>-0.113</ele>
  <time>2026-09-02T22:07:25Z</time>
  <course>11.06</course>
  <speed>0.7247068372797375</speed>
  <fix>3d</fix>
</trkpt>
<trkpt lat="33.810221" lon="-118.3939855">
  <ele>-0.113</ele>
  <time>2026-09-02T22:07:25Z</time>
  <course>11.06</course>
  <speed>0.7247068372797375</speed>
  <fix>3d</fix>
</trkpt>
<trkpt lat="33.810221" lon="-118.3939855">
  <ele>-0.113</ele>
  <time>2026-09-02T22:07:25Z</time>
  <course>11.06</course>
  <speed>0.7247068372797375</speed>
  <fix>3d</fix>
</trkpt>
<trkpt lat="33.8102211" lon="-118.3939855">
  <ele>-0.113</ele>
  <time>2026-09-02T22:07:25Z</time>
  <course>11.07</course>
  <speed>0.7247068372797375</speed>
  <fix>3d</fix>
</trkpt>
<trkpt lat="33.8102211" lon="-118.3939854">
  <ele>-0.113</ele>
  <time>2026-09-02T22:07:25Z</time>
  <course>11.07</course>
  <speed>0.7247068372797375</speed>
  <fix>3d</fix>
</trkpt>
<trkpt lat="33.8102211" lon="-118.3939854">
  <ele>-0.113</ele>
  <time>2026-09-02T22:07:25Z</time>
  <course>11.07</course>
  <speed>0.7247068372797375</speed>
  <fix>3d</fix>
</trkpt>
<trkpt lat="33.8102212" lon="-118.3939853">
  <ele>-0.113</ele>
  <time>2026-09-02T22:07:25Z</time>
  <course>11.07</course>
  <speed>0.7247068372797375</speed>
  <fix>3d</fix>
</trkpt>
<trkpt lat="33.8102212" lon="-118.3939853">
  <ele>-0.113</ele>
  <time>2026-09-02T22:07:25Z</time>
  <course>11.07</course>
  <speed>0.7247068372797375</speed>
  <fix>3d</fix>
</trkpt>
<trkpt lat="33.8102204" lon="-118.3939868">
  <ele>-0.1</ele>
  <time>2026-09-02T22:07:25Z</time>
  <course>47.86</course>
  <speed>0.73</speed>
  <fix>3d</fix>
</trkpt>
<trkpt lat="33.8102212" lon="-118.3939852">
  <ele>-0.113</ele>
  <time>2026-09-02T22:07:25Z</time>
  <course>11.07</course>
  <speed>0.7247068372797375</speed>
  <fix>3d</fix>
</trkpt>
<trkpt lat="33.8102213" lon="-118.3939852">
  <ele>-0.113</ele>
  <time>2026-09-02T22:07:25Z</time>
  <course>11.07</course>
  <speed>0.7247068372797375</speed>
  <fix>3d</fix>
</trkpt>
<trkpt lat="33.8102213" lon="-118.3939851">
  <ele>-0.112</ele>
  <time>2026-09-02T22:07:25Z</time>
  <course>11.07</course>
  <speed>0.7247068372797375</speed>
  <fix>3d</fix>
</trkpt>
<trkpt lat="33.8102214" lon="-118.3939851">
  <ele>-0.112</ele>
  <time>2026-09-02T22:07:25Z</time>
  <course>11.07</course>
  <speed>0.7247068372797375</speed>
  <fix>3d</fix>
</trkpt>
<trkpt lat="33.8102214" lon="-118.393985">
  <ele>-0.112</ele>
  <time>2026-09-02T22:07:25Z</time>
  <course>11.07</course>
  <speed>0.7247068372797375</speed>
  <fix>3d</fix>
</trkpt>
<trkpt lat="33.8102214" lon="-118.393985">
  <ele>-0.112</ele>
  <time>2026-09-02T22:07:25Z</time>
  <course>11.07</course>
  <speed>0.7247068372797375</speed>
  <fix>3d</fix>
</trkpt>
<trkpt lat="33.8102215" lon="-118.3939849">
  <ele>-0.112</ele>
  <time>2026-09-02T22:07:25Z</time>
  <course>11.07</course>
  <speed>0.7247068372797375</speed>
  <fix>3d</fix>
</trkpt>
<trkpt lat="33.8102215" lon="-118.3939848">
  <ele>-0.112</ele>
  <time>2026-09-02T22:07:25Z</time>
  <course>11.07</course>
  <speed>0.7247068372797375</speed>
  <fix>3d</fix>
</trkpt>
<trkpt lat="33.8102216" lon="-118.3939848">
  <ele>-0.112</ele>
  <time>2026-09-02T22:07:25Z</time>
  <course>11.07</course>
  <speed>0.7247068372797375</speed>
  <fix>3d</fix>
</trkpt>
<trkpt lat="33.8102216" lon="-118.3939848">
  <ele>-0.111</ele>
  <time>2026-09-02T22:07:25Z</time>
  <course>11.07</course>
  <speed>0.7247068372797375</speed>
  <fix>3d</fix>
</trkpt>
<trkpt lat="33.8102216" lon="-118.3939847">
  <ele>-0.111</ele>
  <time>2026-09-02T22:07:25Z</time>
  <course>11.07</course>
  <speed>0.7247068372797375</speed>
  <fix>3d</fix>
</trkpt>
<trkpt lat="33.8102213" lon="-118.3939857">
  <ele>-0.1</ele>
  <time>2026-09-02T22:07:25Z</time>
  <course>47.87</course>
  <speed>0.73</speed>
  <fix>3d</fix>
</trkpt>
<trkpt lat="33.8102216" lon="-118.3939847">
  <ele>-0.111</ele>
  <time>2026-09-02T22:07:25Z</time>
  <course>11.07</course>
  <speed>0.7247068372797375</speed>
  <fix>3d</fix>
</trkpt>
<trkpt lat="33.8102217" lon="-118.3939846">
  <ele>-0.111</ele>
  <time>2026-09-02T22:07:25Z</time>
  <course>11.07</course>
  <speed>0.7247068372797375</speed>
  <fix>3d</fix>
</trkpt>
<trkpt lat="33.8102217" lon="-118.3939846">
  <ele>-0.111</ele>
  <time>2026-09-02T22:07:25Z</time>
  <course>11.07</course>
  <speed>0.7247068372797375</speed>
  <fix>3d</fix>
</trkpt>
<trkpt lat="33.8102218" lon="-118.3939845">
  <ele>-0.111</ele>
  <time>2026-09-02T22:07:25Z</time>
  <course>11.07</course>
  <speed>0.7247068372797375</speed>
  <fix>3d</fix>
</trkpt>
<trkpt lat="33.8102218" lon="-118.3939845">
  <ele>-0.111</ele>
  <time>2026-09-02T22:07:25Z</time>
  <course>11.07</course>
  <speed>0.7247068372797375</speed>
  <fix>3d</fix>
</trkpt>
<trkpt lat="33.8102218" lon="-118.3939844">
  <ele>-0.111</ele>
  <time>2026-09-02T22:07:25Z</time>
  <course>11.08</course>
  <speed>0.7247068372797375</speed>
  <fix>3d</fix>
</trkpt>
<trkpt lat="33.8102219" lon="-118.3939844">
  <ele>-0.111</ele>
  <time>2026-09-02T22:07:25Z</time>
  <course>11.08</course>
  <speed>0.7247068372797375</speed>
  <fix>3d</fix>
</trkpt>
<trkpt lat="33.8102219" lon="-118.3939843">
  <ele>-0.111</ele>
  <time>2026-09-02T22:07:25Z</time>
  <course>11.08</course>
  <speed>0.7247068372797375</speed>
  <fix>3d</fix>
</trkpt>
<trkpt lat="33.810222" lon="-118.3939843">
  <ele>-0.111</ele>
  <time>2026-09-02T22:07:25Z</time>
  <course>11.08</course>
  <speed>0.7247068372797375</speed>
  <fix>3d</fix>
</trkpt>
<trkpt lat="33.810222" lon="-118.3939842">
  <ele>-0.111</ele>
  <time>2026-09-02T22:07:25Z</time>
  <course>11.08</course>
  <speed>0.7247068372797375</speed>
  <fix>3d</fix>
</trkpt>
<trkpt lat="33.810222" lon="-118.3939842">
  <ele>-0.111</ele>
  <time>2026-09-02T22:07:25Z</time>
  <course>11.08</course>
  <speed>0.7247068372797375</speed>
  <fix>3d</fix>
</trkpt>
<trkpt lat="33.8102221" lon="-118.3939841">
  <ele>-0.111</ele>
  <time>2026-09-02T22:07:25Z</time>
  <course>11.08</course>
  <speed>0.7247068372797375</speed>
  <fix>3d</fix>
</trkpt>
<trkpt lat="33.8102221" lon="-118.3939841">
  <ele>-0.111</ele>
  <time>2026-09-02T22:07:25Z</time>
  <course>11.08</course>
  <speed>0.7247068372797375</speed>
  <fix>3d</fix>
</trkpt>
<trkpt lat="33.8102213" lon="-118.3939857">
  <ele>-0.1</ele>
  <time>2026-09-02T22:07:25Z</time>
  <course>47.87</course>
  <speed>0.73</speed>
  <fix>3d</fix>
</trkpt>
<trkpt lat="33.8102221" lon="-118.393984">
  <ele>-0.111</ele>
  <time>2026-09-02T22:07:25Z</time>
  <course>11.08</course>
  <speed>0.7247068372797375</speed>
  <fix>3d</fix>
</trkpt>
<trkpt lat="33.8102222" lon="-118.393984">
  <ele>-0.111</ele>
  <time>2026-09-02T22:07:25Z</time>
  <course>11.08</course>
  <speed>0.7247068372797375</speed>
  <fix>3d</fix>
</trkpt>
<trkpt lat="33.8102222" lon="-118.3939839">
  <ele>-0.111</ele>
  <time>2026-09-02T22:07:25Z</time>
  <course>11.08</course>
  <speed>0.7247068372797375</speed>
  <fix>3d</fix>
</trkpt>
<trkpt lat="33.8102222" lon="-118.3939839">
  <ele>-0.111</ele>
  <time>2026-09-02T22:07:25Z</time>
  <course>11.08</course>
  <speed>0.7247068372797375</speed>
  <fix>3d</fix>
</trkpt>
<trkpt lat="33.8102223" lon="-118.3939838">
  <ele>-0.111</ele>
  <time>2026-09-02T22:07:25Z</time>
  <course>11.08</course>
  <speed>0.7247068372797375</speed>
  <fix>3d</fix>
</trkpt>
<trkpt lat="33.8102223" lon="-118.3939838">
  <ele>-0.111</ele>
  <time>2026-09-02T22:07:25Z</time>
  <course>11.08</course>
  <speed>0.7247068372797375</speed>
  <fix>3d</fix>
</trkpt>
<trkpt lat="33.8102224" lon="-118.3939837">
  <ele>-0.111</ele>
  <time>2026-09-02T22:07:25Z</time>
  <course>11.08</course>
  <speed>0.7247068372797375</speed>
  <fix>3d</fix>
</trkpt>
<trkpt lat="33.8102224" lon="-118.3939837">
  <ele>-0.111</ele>
  <time>2026-09-02T22:07:25Z</time>
  <course>11.08</course>
  <speed>0.7247068372797375</speed>
  <fix>3d</fix>
</trkpt>
<trkpt lat="33.8102224" lon="-118.3939836">
  <ele>-0.111</ele>
  <time>2026-09-02T22:07:25Z</time>
  <course>11.08</course>
  <speed>0.7247068372797375</speed>
  <fix>3d</fix>
</trkpt>
<trkpt lat="33.8102225" lon="-118.3939836">
  <ele>-0.111</ele>
  <time>2026-09-02T22:07:25Z</time>
  <course>11.08</course>
  <speed>0.7247068372797375</speed>
  <fix>3d</fix>
</trkpt>
<trkpt lat="33.8102225" lon="-118.3939835">
  <ele>-0.111</ele>
  <time>2026-09-02T22:07:25Z</time>
  <course>11.08</course>
  <speed>0.7247068372797375</speed>
  <fix>3d</fix>
</trkpt>
<trkpt lat="33.8102222" lon="-118.3939845">
  <ele>-0.1</ele>
  <time>2026-09-02T22:07:25Z</time>
  <course>47.88</course>
  <speed>0.73</speed>
  <fix>3d</fix>
</trkpt>
<trkpt lat="33.8102225" lon="-118.3939835">
  <ele>-0.111</ele>
  <time>2026-09-02T22:07:25Z</time>
  <course>11.08</course>
  <speed>0.7247068372797375</speed>
  <fix>3d</fix>
</trkpt>
<trkpt lat="33.8102226" lon="-118.3939835">
  <ele>-0.111</ele>
  <time>2026-09-02T22:07:25Z</time>
  <course>11.08</course>
  <speed>0.7247068372797375</speed>
  <fix>3d</fix>
</trkpt>
<trkpt lat="33.8102226" lon="-118.3939834">
  <ele>-0.111</ele>
  <time>2026-09-02T22:07:25Z</time>
  <course>11.09</course>
  <speed>0.7247068372797375</speed>
  <fix>3d</fix>
</trkpt>
<trkpt lat="33.8102226" lon="-118.3939834">
  <ele>-0.112</ele>
  <time>2026-09-02T22:07:25Z</time>
  <course>11.09</course>
  <speed>0.7247068372797375</speed>
  <fix>3d</fix>
</trkpt>
<trkpt lat="33.8102227" lon="-118.3939833">
  <ele>-0.112</ele>
  <time>2026-09-02T22:07:25Z</time>
  <course>11.09</course>
  <speed>0.7247068372797375</speed>
  <fix>3d</fix>
</trkpt>
<trkpt lat="33.8102227" lon="-118.3939833">
  <ele>-0.112</ele>
  <time>2026-09-02T22:07:25Z</time>
  <course>11.09</course>
  <speed>0.7247068372797375</speed>
  <fix>3d</fix>
</trkpt>
<trkpt lat="33.8102227" lon="-118.3939832">
  <ele>-0.112</ele>
  <time>2026-09-02T22:07:25Z</time>
  <course>11.09</course>
  <speed>0.7247068372797375</speed>
  <fix>3d</fix>
</trkpt>
<trkpt lat="33.8102228" lon="-118.3939832">
  <ele>-0.111</ele>
  <time>2026-09-02T22:07:25Z</time>
  <course>11.09</course>
  <speed>0.7247068372797375</speed>
  <fix>3d</fix>
</trkpt>
<trkpt lat="33.8102228" lon="-118.3939831">
  <ele>-0.111</ele>
  <time>2026-09-02T22:07:25Z</time>
  <course>11.09</course>
  <speed>0.7247068372797375</speed>
  <fix>3d</fix>
</trkpt>
<trkpt lat="33.8102229" lon="-118.3939831">
  <ele>-0.111</ele>
  <time>2026-09-02T22:07:25Z</time>
  <course>11.09</course>
  <speed>0.7247068372797375</speed>
  <fix>3d</fix>
</trkpt>
<trkpt lat="33.8102229" lon="-118.393983">
  <ele>-0.111</ele>
  <time>2026-09-02T22:07:25Z</time>
  <course>11.09</course>
  <speed>0.7247068372797375</speed>
  <fix>3d</fix>
</trkpt>
<trkpt lat="33.8102229" lon="-118.393983">
  <ele>-0.111</ele>
  <time>2026-09-02T22:07:25Z</time>
  <course>11.09</course>
  <speed>0.7247068372797375</speed>
  <fix>3d</fix>
</trkpt>
<trkpt lat="33.8102229" lon="-118.393983">
  <ele>-0.111</ele>
  <time>2026-09-02T22:07:25Z</time>
  <course>11.09</course>
  <speed>0.7247068372797375</speed>
  <fix>3d</fix>
</trkpt>
<trkpt lat="33.8102222" lon="-118.3939845">
  <ele>-0.1</ele>
  <time>2026-09-02T22:07:25Z</time>
  <course>47.88</course>
  <speed>0.73</speed>
  <fix>3d</fix>
</trkpt>
<trkpt lat="33.810223" lon="-118.3939829">
  <ele>-0.111</ele>
  <time>2026-09-02T22:07:25Z</time>
  <course>11.09</course>
  <speed>0.7247068372797375</speed>
  <fix>3d</fix>
</trkpt>
<trkpt lat="33.810223" lon="-118.3939829">
  <ele>-0.111</ele>
  <time>2026-09-02T22:07:25Z</time>
  <course>11.09</course>
  <speed>0.7247068372797375</speed>
  <fix>3d</fix>
</trkpt>
<trkpt lat="33.8102231" lon="-118.3939828">
  <ele>-0.111</ele>
  <time>2026-09-02T22:07:25Z</time>
  <course>11.09</course>
  <speed>0.7247068372797375</speed>
  <fix>3d</fix>
</trkpt>
<trkpt lat="33.8102231" lon="-118.3939828">
  <ele>-0.111</ele>
  <time>2026-09-02T22:07:25Z</time>
  <course>11.09</course>
  <speed>0.7247068372797375</speed>
  <fix>3d</fix>
</trkpt>
<trkpt lat="33.8102231" lon="-118.3939827">
  <ele>-0.111</ele>
  <time>2026-09-02T22:07:25Z</time>
  <course>11.09</course>
  <speed>0.7247068372797375</speed>
  <fix>3d</fix>
</trkpt>
<trkpt lat="33.8102232" lon="-118.3939827">
  <ele>-0.111</ele>
  <time>2026-09-02T22:07:25Z</time>
  <course>11.09</course>
  <speed>0.7247068372797375</speed>
  <fix>3d</fix>
</trkpt>
<trkpt lat="33.8102232" lon="-118.3939826">
  <ele>-0.111</ele>
  <time>2026-09-02T22:07:25Z</time>
  <course>11.09</course>
  <speed>0.7247068372797375</speed>
  <fix>3d</fix>
</trkpt>
<trkpt lat="33.8102232" lon="-118.3939826">
  <ele>-0.111</ele>
  <time>2026-09-02T22:07:25Z</time>
  <course>11.09</course>
  <speed>0.7247068372797375</speed>
  <fix>3d</fix>
</trkpt>
<trkpt lat="33.8102233" lon="-118.3939825">
  <ele>-0.111</ele>
  <time>2026-09-02T22:07:25Z</time>
  <course>11.09</course>
  <speed>0.7247068372797375</speed>
  <fix>3d</fix>
</trkpt>
<trkpt lat="33.8102233" lon="-118.3939825">
  <ele>-0.11</ele>
  <time>2026-09-02T22:07:25Z</time>
  <course>11.09</course>
  <speed>0.7247068372797375</speed>
  <fix>3d</fix>
</trkpt>
<trkpt lat="33.8102233" lon="-118.3939824">
  <ele>-0.11</ele>
  <time>2026-09-02T22:07:25Z</time>
  <course>11.09</course>
  <speed>0.7247068372797375</speed>
  <fix>3d</fix>
</trkpt>
<trkpt lat="33.8102234" lon="-118.3939824">
  <ele>-0.11</ele>
  <time>2026-09-02T22:07:25Z</time>
  <course>11.09</course>
  <speed>0.7247068372797375</speed>
  <fix>3d</fix>
</trkpt>
<trkpt lat="33.8102234" lon="-118.3939824">
  <ele>-0.11</ele>
  <time>2026-09-02T22:07:25Z</time>
  <course>11.1</course>
  <speed>0.7247068372797375</speed>
  <fix>3d</fix>
</trkpt>
<trkpt lat="33.810223" lon="-118.3939834">
  <ele>-0.1</ele>
  <time>2026-09-02T22:07:25Z</time>
  <course>47.89</course>
  <speed>0.73</speed>
  <fix>3d</fix>
</trkpt>
<trkpt lat="33.8102234" lon="-118.3939823">
  <ele>-0.11</ele>
  <time>2026-09-02T22:07:25Z</time>
  <course>11.1</course>
  <speed>0.7247068372797375</speed>
  <fix>3d</fix>
</trkpt>
<trkpt lat="33.8102235" lon="-118.3939823">
  <ele>-0.11</ele>
  <time>2026-09-02T22:07:25Z</time>
  <course>11.1</course>
  <speed>0.7247068372797375</speed>
  <fix>3d</fix>
</trkpt>
<trkpt lat="33.8102235" lon="-118.3939822">
  <ele>-0.11</ele>
  <time>2026-09-02T22:07:25Z</time>
  <course>11.1</course>
  <speed>0.7247068372797375</speed>
  <fix>3d</fix>
</trkpt>
<trkpt lat="33.8102236" lon="-118.3939821">
  <ele>-0.11</ele>
  <time>2026-09-02T22:07:25Z</time>
  <course>11.1</course>
  <speed>0.7247068372797375</speed>
  <fix>3d</fix>
</trkpt>
<trkpt lat="33.8102236" lon="-118.3939821">
  <ele>-0.109</ele>
  <time>2026-09-02T22:07:25Z</time>
  <course>11.1</course>
  <speed>0.7247068372797375</speed>
  <fix>3d</fix>
</trkpt>
<trkpt lat="33.8102236" lon="-118.3939821">
  <ele>-0.109</ele>
  <time>2026-09-02T22:07:25Z</time>
  <course>11.1</course>
  <speed>0.7247068372797375</speed>
  <fix>3d</fix>
</trkpt>
<trkpt lat="33.8102237" lon="-118.393982">
  <ele>-0.109</ele>
  <time>2026-09-02T22:07:25Z</time>
  <course>11.1</course>
  <speed>0.7247068372797375</speed>
  <fix>3d</fix>
</trkpt>
<trkpt lat="33.8102237" lon="-118.393982">
  <ele>-0.109</ele>
  <time>2026-09-02T22:07:25Z</time>
  <course>11.1</course>
  <speed>0.7247068372797375</speed>
  <fix>3d</fix>
</trkpt>
<trkpt lat="33.8102237" lon="-118.3939819">
  <ele>-0.109</ele>
  <time>2026-09-02T22:07:25Z</time>
  <course>11.1</course>
  <speed>0.7247068372797375</speed>
  <fix>3d</fix>
</trkpt>
<trkpt lat="33.8102238" lon="-118.3939819">
  <ele>-0.109</ele>
  <time>2026-09-02T22:07:25Z</time>
  <course>11.1</course>
  <speed>0.7247068372797375</speed>
  <fix>3d</fix>
</trkpt>
<trkpt lat="33.8102238" lon="-118.3939818">
  <ele>-0.109</ele>
  <time>2026-09-02T22:07:25Z</time>
  <course>11.1</course>
  <speed>0.7247068372797375</speed>
  <fix>3d</fix>
</trkpt>
<trkpt lat="33.8102238" lon="-118.3939818">
  <ele>-0.109</ele>
  <time>2026-09-02T22:07:25Z</time>
  <course>11.1</course>
  <speed>0.7247068372797375</speed>
  <fix>3d</fix>
</trkpt>
<trkpt lat="33.8102238" lon="-118.3939818">
  <ele>-0.109</ele>
  <time>2026-09-02T22:07:25Z</time>
  <course>11.1</course>
  <speed>0.7247068372797375</speed>
  <fix>3d</fix>
</trkpt>
<trkpt lat="33.810223" lon="-118.3939834">
  <ele>-0.1</ele>
  <time>2026-09-02T22:07:25Z</time>
  <course>47.89</course>
  <speed>0.73</speed>
  <fix>3d</fix>
</trkpt>
<trkpt lat="33.8102238" lon="-118.3939818">
  <ele>-0.108</ele>
  <time>2026-09-02T22:07:25Z</time>
  <course>11.1</course>
  <speed>0.7247068372797375</speed>
  <fix>3d</fix>
</trkpt>
<trkpt lat="33.8102239" lon="-118.3939817">
  <ele>-0.108</ele>
  <time>2026-09-02T22:07:25Z</time>
  <course>11.1</course>
  <speed>0.7247068372797375</speed>
  <fix>3d</fix>
</trkpt>
<trkpt lat="33.8102239" lon="-118.3939816">
  <ele>-0.108</ele>
  <time>2026-09-02T22:07:25Z</time>
  <course>11.1</course>
  <speed>0.7247068372797375</speed>
  <fix>3d</fix>
</trkpt>
<trkpt lat="33.810224" lon="-118.3939816">
  <ele>-0.108</ele>
  <time>2026-09-02T22:07:25Z</time>
  <course>11.1</course>
  <speed>0.7247068372797375</speed>
  <fix>3d</fix>
</trkpt>
<trkpt lat="33.810224" lon="-118.3939815">
  <ele>-0.108</ele>
  <time>2026-09-02T22:07:25Z</time>
  <course>11.1</course>
  <speed>0.7247068372797375</speed>
  <fix>3d</fix>
</trkpt>
<trkpt lat="33.8102241" lon="-118.3939815">
  <ele>-0.108</ele>
  <time>2026-09-02T22:07:25Z</time>
  <course>11.1</course>
  <speed>0.7247068372797375</speed>
  <fix>3d</fix>
</trkpt>
<trkpt lat="33.8102241" lon="-118.3939814">
  <ele>-0.108</ele>
  <time>2026-09-02T22:07:25Z</time>
  <course>11.1</course>
  <speed>0.7247068372797375</speed>
  <fix>3d</fix>
</trkpt>
<trkpt lat="33.8102241" lon="-118.3939814">
  <ele>-0.108</ele>
  <time>2026-09-02T22:07:25Z</time>
  <course>11.1</course>
  <speed>0.7247068372797375</speed>
  <fix>3d</fix>
</trkpt>
<trkpt lat="33.8102242" lon="-118.3939813">
  <ele>-0.107</ele>
  <time>2026-09-02T22:07:25Z</time>
  <course>11.11</course>
  <speed>0.7247068372797375</speed>
  <fix>3d</fix>
</trkpt>
<trkpt lat="33.8102242" lon="-118.3939813">
  <ele>-0.107</ele>
  <time>2026-09-02T22:07:25Z</time>
  <course>11.11</course>
  <speed>0.7247068372797375</speed>
  <fix>3d</fix>
</trkpt>
<trkpt lat="33.8102242" lon="-118.3939812">
  <ele>-0.107</ele>
  <time>2026-09-02T22:07:25Z</time>
  <course>11.11</course>
  <speed>0.7247068372797375</speed>
  <fix>3d</fix>
</trkpt>
<trkpt lat="33.8102243" lon="-118.3939812">
  <ele>-0.107</ele>
  <time>2026-09-02T22:07:25Z</time>
  <course>11.11</course>
  <speed>0.7247068372797375</speed>
  <fix>3d</fix>
</trkpt>
<trkpt lat="33.8102239" lon="-118.3939821">
  <ele>-0.1</ele>
  <time>2026-09-02T22:07:25Z</time>
  <course>47.9</course>
  <speed>0.73</speed>
  <fix>3d</fix>
</trkpt>
<trkpt lat="33.8102243" lon="-118.3939812">
  <ele>-0.107</ele>
  <time>2026-09-02T22:07:25Z</time>
  <course>11.11</course>
  <speed>0.7247068372797375</speed>
  <fix>3d</fix>
</trkpt>
<trkpt lat="33.8102243" lon="-118.3939811">
  <ele>-0.107</ele>
  <time>2026-09-02T22:07:25Z</time>
  <course>11.11</course>
  <speed>0.7247068372797375</speed>
  <fix>3d</fix>
</trkpt>
<trkpt lat="33.8102244" lon="-118.393981">
  <ele>-0.107</ele>
  <time>2026-09-02T22:07:25Z</time>
  <course>11.11</course>
  <speed>0.7247068372797375</speed>
  <fix>3d</fix>
</trkpt>
<trkpt lat="33.8102244" lon="-118.393981">
  <ele>-0.107</ele>
  <time>2026-09-02T22:07:25Z</time>
  <course>11.11</course>
  <speed>0.7247068372797375</speed>
  <fix>3d</fix>
</trkpt>
<trkpt lat="33.8102245" lon="-118.3939809">
  <ele>-0.107</ele>
  <time>2026-09-02T22:07:25Z</time>
  <course>11.11</course>
  <speed>0.7247068372797375</speed>
  <fix>3d</fix>
</trkpt>
<trkpt lat="33.8102245" lon="-118.3939809">
  <ele>-0.107</ele>
  <time>2026-09-02T22:07:25Z</time>
  <course>11.11</course>
  <speed>0.7247068372797375</speed>
  <fix>3d</fix>
</trkpt>
<trkpt lat="33.8102245" lon="-118.3939808">
  <ele>-0.107</ele>
  <time>2026-09-02T22:07:25Z</time>
  <course>11.11</course>
  <speed>0.7247068372797375</speed>
  <fix>3d</fix>
</trkpt>
<trkpt lat="33.8102246" lon="-118.3939808">
  <ele>-0.107</ele>
  <time>2026-09-02T22:07:25Z</time>
  <course>11.11</course>
  <speed>0.7247068372797375</speed>
  <fix>3d</fix>
</trkpt>
<trkpt lat="33.8102246" lon="-118.3939807">
  <ele>-0.107</ele>
  <time>2026-09-02T22:07:25Z</time>
  <course>11.11</course>
  <speed>0.7247068372797375</speed>
  <fix>3d</fix>
</trkpt>
<trkpt lat="33.8102247" lon="-118.3939807">
  <ele>-0.107</ele>
  <time>2026-09-02T22:07:25Z</time>
  <course>11.11</course>
  <speed>0.7247068372797375</speed>
  <fix>3d</fix>
</trkpt>
<trkpt lat="33.8102247" lon="-118.3939806">
  <ele>-0.106</ele>
  <time>2026-09-02T22:07:25Z</time>
  <course>11.11</course>
  <speed>0.7247068372797375</speed>
  <fix>3d</fix>
</trkpt>
<trkpt lat="33.8102247" lon="-118.3939806">
  <ele>-0.106</ele>
  <time>2026-09-02T22:07:25Z</time>
  <course>11.11</course>
  <speed>0.7247068372797375</speed>
  <fix>3d</fix>
</trkpt>
<trkpt lat="33.8102247" lon="-118.3939806">
  <ele>-0.106</ele>
  <time>2026-09-02T22:07:25Z</time>
  <course>11.11</course>
  <speed>0.7247068372797375</speed>
  <fix>3d</fix>
</trkpt>
<trkpt lat="33.8102239" lon="-118.3939821">
  <ele>-0.1</ele>
  <time>2026-09-02T22:07:25Z</time>
  <course>47.9</course>
  <speed>0.73</speed>
  <fix>3d</fix>
</trkpt>
<trkpt lat="33.8102248" lon="-118.3939805">
  <ele>-0.106</ele>
  <time>2026-09-02T22:07:25Z</time>
  <course>11.11</course>
  <speed>0.7247068372797375</speed>
  <fix>3d</fix>
</trkpt>
<trkpt lat="33.8102248" lon="-118.3939804">
  <ele>-0.106</ele>
  <time>2026-09-02T22:07:25Z</time>
  <course>11.11</course>
  <speed>0.7247068372797375</speed>
  <fix>3d</fix>
</trkpt>
<trkpt lat="33.8102249" lon="-118.3939804">
  <ele>-0.106</ele>
  <time>2026-09-02T22:07:25Z</time>
  <course>11.11</course>
  <speed>0.7247068372797375</speed>
  <fix>3d</fix>
</trkpt>
<trkpt lat="33.8102249" lon="-118.3939803">
  <ele>-0.106</ele>
  <time>2026-09-02T22:07:25Z</time>
  <course>11.11</course>
  <speed>0.7247068372797375</speed>
  <fix>3d</fix>
</trkpt>
<trkpt lat="33.810225" lon="-118.3939803">
  <ele>-0.106</ele>
  <time>2026-09-02T22:07:25Z</time>
  <course>11.12</course>
  <speed>0.7247068372797375</speed>
  <fix>3d</fix>
</trkpt>
<trkpt lat="33.810225" lon="-118.3939802">
  <ele>-0.106</ele>
  <time>2026-09-02T22:07:25Z</time>
  <course>11.12</course>
  <speed>0.7247068372797375</speed>
  <fix>3d</fix>
</trkpt>
<trkpt lat="33.810225" lon="-118.3939802">
  <ele>-0.106</ele>
  <time>2026-09-02T22:07:25Z</time>
  <course>11.12</course>
  <speed>0.7247068372797375</speed>
  <fix>3d</fix>
</trkpt>
<trkpt lat="33.8102251" lon="-118.3939801">
  <ele>-0.106</ele>
  <time>2026-09-02T22:07:25Z</time>
  <course>11.12</course>
  <speed>0.7247068372797375</speed>
  <fix>3d</fix>
</trkpt>
<trkpt lat="33.8102251" lon="-118.3939801">
  <ele>-0.107</ele>
  <time>2026-09-02T22:07:25Z</time>
  <course>11.12</course>
  <speed>0.7247068372797375</speed>
  <fix>3d</fix>
</trkpt>
<trkpt lat="33.8102252" lon="-118.39398">
  <ele>-0.107</ele>
  <time>2026-09-02T22:07:25Z</time>
  <course>11.12</course>
  <speed>0.7247068372797375</speed>
  <fix>3d</fix>
</trkpt>
<trkpt lat="33.8102252" lon="-118.39398">
  <ele>-0.107</ele>
  <time>2026-09-02T22:07:25Z</time>
  <course>11.12</course>
  <speed>0.7247068372797375</speed>
  <fix>3d</fix>
</trkpt>
<trkpt lat="33.8102248" lon="-118.393981">
  <ele>-0.1</ele>
  <time>2026-09-02T22:07:25Z</time>
  <course>47.91</course>
  <speed>0.73</speed>
  <fix>3d</fix>
</trkpt>
<trkpt lat="33.8102252" lon="-118.39398">
  <ele>-0.107</ele>
  <time>2026-09-02T22:07:25Z</time>
  <course>11.12</course>
  <speed>0.7247068372797375</speed>
  <fix>3d</fix>
</trkpt>
<trkpt lat="33.8102252" lon="-118.3939799">
  <ele>-0.107</ele>
  <time>2026-09-02T22:07:25Z</time>
  <course>11.12</course>
  <speed>0.7247068372797375</speed>
  <fix>3d</fix>
</trkpt>
<trkpt lat="33.8102253" lon="-118.3939798">
  <ele>-0.107</ele>
  <time>2026-09-02T22:07:25Z</time>
  <course>11.12</course>
  <speed>0.7247068372797375</speed>
  <fix>3d</fix>
</trkpt>
<trkpt lat="33.8102253" lon="-118.3939798">
  <ele>-0.107</ele>
  <time>2026-09-02T22:07:25Z</time>
  <course>11.12</course>
  <speed>0.7247068372797375</speed>
  <fix>3d</fix>
</trkpt>
<trkpt lat="33.8102254" lon="-118.3939798">
  <ele>-0.107</ele>
  <time>2026-09-02T22:07:25Z</time>
  <course>11.12</course>
  <speed>0.7247068372797375</speed>
  <fix>3d</fix>
</trkpt>
<trkpt lat="33.8102254" lon="-118.3939797">
  <ele>-0.107</ele>
  <time>2026-09-02T22:07:25Z</time>
  <course>11.12</course>
  <speed>0.7247068372797375</speed>
  <fix>3d</fix>
</trkpt>
<trkpt lat="33.8102254" lon="-118.3939797">
  <ele>-0.107</ele>
  <time>2026-09-02T22:07:25Z</time>
  <course>11.12</course>
  <speed>0.7247068372797375</speed>
  <fix>3d</fix>
</trkpt>
<trkpt lat="33.8102255" lon="-118.3939796">
  <ele>-0.107</ele>
  <time>2026-09-02T22:07:25Z</time>
  <course>11.12</course>
  <speed>0.7247068372797375</speed>
  <fix>3d</fix>
</trkpt>
<trkpt lat="33.8102255" lon="-118.3939796">
  <ele>-0.107</ele>
  <time>2026-09-02T22:07:25Z</time>
  <course>11.12</course>
  <speed>0.7247068372797375</speed>
  <fix>3d</fix>
</trkpt>
<trkpt lat="33.8102255" lon="-118.3939795">
  <ele>-0.107</ele>
  <time>2026-09-02T22:07:25Z</time>
  <course>11.12</course>
  <speed>0.7247068372797375</speed>
  <fix>3d</fix>
</trkpt>
<trkpt lat="33.8102256" lon="-118.3939795">
  <ele>-0.108</ele>
  <time>2026-09-02T22:07:25Z</time>
  <course>11.12</course>
  <speed>0.7247068372797375</speed>
  <fix>3d</fix>
</trkpt>
<trkpt lat="33.8102256" lon="-118.3939794">
  <ele>-0.108</ele>
  <time>2026-09-02T22:07:25Z</time>
  <course>11.12</course>
  <speed>0.7247068372797375</speed>
  <fix>3d</fix>
</trkpt>
<trkpt lat="33.8102256" lon="-118.3939794">
  <ele>-0.108</ele>
  <time>2026-09-02T22:07:25Z</time>
  <course>11.12</course>
  <speed>0.7247068372797375</speed>
  <fix>3d</fix>
</trkpt>
<trkpt lat="33.8102248" lon="-118.393981">
  <ele>-0.1</ele>
  <time>2026-09-02T22:07:25Z</time>
  <course>47.91</course>
  <speed>0.73</speed>
  <fix>3d</fix>
</trkpt>
<trkpt lat="33.8102256" lon="-118.3939794">
  <ele>-0.108</ele>
  <time>2026-09-02T22:07:25Z</time>
  <course>11.12</course>
  <speed>0.7247068372797375</speed>
  <fix>3d</fix>
</trkpt>
<trkpt lat="33.8102257" lon="-118.3939793">
  <ele>-0.108</ele>
  <time>2026-09-02T22:07:25Z</time>
  <course>11.12</course>
  <speed>0.7247068372797375</speed>
  <fix>3d</fix>
</trkpt>
<trkpt lat="33.8102257" lon="-118.3939793">
  <ele>-0.108</ele>
  <time>2026-09-02T22:07:25Z</time>
  <course>11.12</course>
  <speed>0.7247068372797375</speed>
  <fix>3d</fix>
</trkpt>
<trkpt lat="33.8102257" lon="-118.3939792">
  <ele>-0.108</ele>
  <time>2026-09-02T22:07:25Z</time>
  <course>11.13</course>
  <speed>0.7247068372797375</speed>
  <fix>3d</fix>
</trkpt>
<trkpt lat="33.8102258" lon="-118.3939792">
  <ele>-0.108</ele>
  <time>2026-09-02T22:07:25Z</time>
  <course>11.13</course>
  <speed>0.7247068372797375</speed>
  <fix>3d</fix>
</trkpt>
<trkpt lat="33.8102258" lon="-118.3939791">
  <ele>-0.108</ele>
  <time>2026-09-02T22:07:25Z</time>
  <course>11.13</course>
  <speed>0.7247068372797375</speed>
  <fix>3d</fix>
</trkpt>
<trkpt lat="33.8102259" lon="-118.3939791">
  <ele>-0.109</ele>
  <time>2026-09-02T22:07:25Z</time>
  <course>11.13</course>
  <speed>0.7247068372797375</speed>
  <fix>3d</fix>
</trkpt>
<trkpt lat="33.8102259" lon="-118.393979">
  <ele>-0.109</ele>
  <time>2026-09-02T22:07:25Z</time>
  <course>11.13</course>
  <speed>0.7247068372797375</speed>
  <fix>3d</fix>
</trkpt>
<trkpt lat="33.8102259" lon="-118.393979">
  <ele>-0.109</ele>
  <time>2026-09-02T22:07:25Z</time>
  <course>11.13</course>
  <speed>0.7247068372797375</speed>
  <fix>3d</fix>
</trkpt>
<trkpt lat="33.810226" lon="-118.3939789">
  <ele>-0.109</ele>
  <time>2026-09-02T22:07:25Z</time>
  <course>11.13</course>
  <speed>0.7247068372797375</speed>
  <fix>3d</fix>
</trkpt>
<trkpt lat="33.810226" lon="-118.3939789">
  <ele>-0.109</ele>
  <time>2026-09-02T22:07:25Z</time>
  <course>11.13</course>
  <speed>0.7247068372797375</speed>
  <fix>3d</fix>
</trkpt>
<trkpt lat="33.810226" lon="-118.3939788">
  <ele>-0.109</ele>
  <time>2026-09-02T22:07:25Z</time>
  <course>11.13</course>
  <speed>0.7247068372797375</speed>
  <fix>3d</fix>
</trkpt>
<trkpt lat="33.810226" lon="-118.3939788">
  <ele>-0.109</ele>
  <time>2026-09-02T22:07:25Z</time>
  <course>11.13</course>
  <speed>0.7247068372797375</speed>
  <fix>3d</fix>
</trkpt>
<trkpt lat="33.8102257" lon="-118.3939797">
  <ele>-0.1</ele>
  <time>2026-09-02T22:07:25Z</time>
  <course>47.92</course>
  <speed>0.73</speed>
  <fix>3d</fix>
</trkpt>
<trkpt lat="33.8102261" lon="-118.3939788">
  <ele>-0.11</ele>
  <time>2026-09-02T22:07:25Z</time>
  <course>11.13</course>
  <speed>0.7247068372797375</speed>
  <fix>3d</fix>
</trkpt>
<trkpt lat="33.8102263" lon="-118.3939785">
  <ele>-0.11</ele>
  <time>2026-09-02T22:07:25Z</time>
  <course>11.13</course>
  <speed>0.7247068372797375</speed>
  <fix>3d</fix>
</trkpt>
<trkpt lat="33.8102263" lon="-118.3939785">
  <ele>-0.11</ele>
  <time>2026-09-02T22:07:25Z</time>
  <course>11.13</course>
  <speed>0.7247068372797375</speed>
  <fix>3d</fix>
</trkpt>
<trkpt lat="33.8102263" lon="-118.3939784">
  <ele>-0.111</ele>
  <time>2026-09-02T22:07:25Z</time>
  <course>11.13</course>
  <speed>0.7247068372797375</speed>
  <fix>3d</fix>
</trkpt>
<trkpt lat="33.8102264" lon="-118.3939784">
  <ele>-0.111</ele>
  <time>2026-09-02T22:07:25Z</time>
  <course>11.13</course>
  <speed>0.7247068372797375</speed>
  <fix>3d</fix>
</trkpt>
<trkpt lat="33.8102264" lon="-118.3939783">
  <ele>-0.111</ele>
  <time>2026-09-02T22:07:25Z</time>
  <course>11.13</course>
  <speed>0.7247068372797375</speed>
  <fix>3d</fix>
</trkpt>
<trkpt lat="33.8102264" lon="-118.3939783">
  <ele>-0.111</ele>
  <time>2026-09-02T22:07:25Z</time>
  <course>11.13</course>
  <speed>0.7247068372797375</speed>
  <fix>3d</fix>
</trkpt>
<trkpt lat="33.8102265" lon="-118.3939783">
  <ele>-0.111</ele>
  <time>2026-09-02T22:07:25Z</time>
  <course>11.13</course>
  <speed>0.7247068372797375</speed>
  <fix>3d</fix>
</trkpt>
<trkpt lat="33.8102265" lon="-118.3939782">
  <ele>-0.111</ele>
  <time>2026-09-02T22:07:25Z</time>
  <course>11.13</course>
  <speed>0.7247068372797375</speed>
  <fix>3d</fix>
</trkpt>
<trkpt lat="33.8102257" lon="-118.3939797">
  <ele>-0.1</ele>
  <time>2026-09-02T22:07:25Z</time>
  <course>47.92</course>
  <speed>0.73</speed>
  <fix>3d</fix>
</trkpt>
<trkpt lat="33.8102265" lon="-118.3939782">
  <ele>-0.111</ele>
  <time>2026-09-02T22:07:25Z</time>
  <course>11.13</course>
  <speed>0.7247068372797375</speed>
  <fix>3d</fix>
</trkpt>
<trkpt lat="33.8102265" lon="-118.3939781">
  <ele>-0.111</ele>
  <time>2026-09-02T22:07:25Z</time>
  <course>11.14</course>
  <speed>0.7247068372797375</speed>
  <fix>3d</fix>
</trkpt>
<trkpt lat="33.8102266" lon="-118.3939781">
  <ele>-0.111</ele>
  <time>2026-09-02T22:07:25Z</time>
  <course>11.14</course>
  <speed>0.7247068372797375</speed>
  <fix>3d</fix>
</trkpt>
<trkpt lat="33.8102266" lon="-118.3939781">
  <ele>-0.111</ele>
  <time>2026-09-02T22:07:25Z</time>
  <course>11.14</course>
  <speed>0.7247068372797375</speed>
  <fix>3d</fix>
</trkpt>
<trkpt lat="33.8102266" lon="-118.393978">
  <ele>-0.111</ele>
  <time>2026-09-02T22:07:25Z</time>
  <course>11.14</course>
  <speed>0.7247068372797375</speed>
  <fix>3d</fix>
</trkpt>
<trkpt lat="33.8102267" lon="-118.393978">
  <ele>-0.112</ele>
  <time>2026-09-02T22:07:25Z</time>
  <course>11.14</course>
  <speed>0.7247068372797375</speed>
  <fix>3d</fix>
</trkpt>
<trkpt lat="33.8102267" lon="-118.3939779">
  <ele>-0.112</ele>
  <time>2026-09-02T22:07:25Z</time>
  <course>11.14</course>
  <speed>0.7247068372797375</speed>
  <fix>3d</fix>
</trkpt>
<trkpt lat="33.8102267" lon="-118.3939779">
  <ele>-0.112</ele>
  <time>2026-09-02T22:07:25Z</time>
  <course>11.14</course>
  <speed>0.7247068372797375</speed>
  <fix>3d</fix>
</trkpt>
<trkpt lat="33.8102268" lon="-118.3939778">
  <ele>-0.112</ele>
  <time>2026-09-02T22:07:25Z</time>
  <course>11.14</course>
  <speed>0.7247068372797375</speed>
  <fix>3d</fix>
</trkpt>
<trkpt lat="33.8102268" lon="-118.3939778">
  <ele>-0.112</ele>
  <time>2026-09-02T22:07:25Z</time>
  <course>11.14</course>
  <speed>0.7247068372797375</speed>
  <fix>3d</fix>
</trkpt>
<trkpt lat="33.8102268" lon="-118.3939777">
  <ele>-0.112</ele>
  <time>2026-09-02T22:07:25Z</time>
  <course>11.14</course>
  <speed>0.7247068372797375</speed>
  <fix>3d</fix>
</trkpt>
<trkpt lat="33.8102269" lon="-118.3939777">
  <ele>-0.112</ele>
  <time>2026-09-02T22:07:25Z</time>
  <course>11.14</course>
  <speed>0.7247068372797375</speed>
  <fix>3d</fix>
</trkpt>
<trkpt lat="33.8102269" lon="-118.3939777">
  <ele>-0.112</ele>
  <time>2026-09-02T22:07:25Z</time>
  <course>11.14</course>
  <speed>0.7247068372797375</speed>
  <fix>3d</fix>
</trkpt>
<trkpt lat="33.8102269" lon="-118.3939776">
  <ele>-0.112</ele>
  <time>2026-09-02T22:07:25Z</time>
  <course>11.14</course>
  <speed>0.7247068372797375</speed>
  <fix>3d</fix>
</trkpt>
<trkpt lat="33.8102266" lon="-118.3939786">
  <ele>-0.1</ele>
  <time>2026-09-02T22:07:25Z</time>
  <course>47.93</course>
  <speed>0.73</speed>
  <fix>3d</fix>
</trkpt>
<trkpt lat="33.8102269" lon="-118.3939776">
  <ele>-0.112</ele>
  <time>2026-09-02T22:07:25Z</time>
  <course>11.14</course>
  <speed>0.7247068372797375</speed>
  <fix>3d</fix>
</trkpt>
<trkpt lat="33.810227" lon="-118.3939776">
  <ele>-0.112</ele>
  <time>2026-09-02T22:07:25Z</time>
  <course>11.14</course>
  <speed>0.7247068372797375</speed>
  <fix>3d</fix>
</trkpt>
<trkpt lat="33.810227" lon="-118.3939775">
  <ele>-0.112</ele>
  <time>2026-09-02T22:07:25Z</time>
  <course>11.14</course>
  <speed>0.7247068372797375</speed>
  <fix>3d</fix>
</trkpt>
<trkpt lat="33.8102271" lon="-118.3939775">
  <ele>-0.113</ele>
  <time>2026-09-02T22:07:25Z</time>
  <course>11.14</course>
  <speed>0.7247068372797375</speed>
  <fix>3d</fix>
</trkpt>
<trkpt lat="33.8102271" lon="-118.3939774">
  <ele>-0.113</ele>
  <time>2026-09-02T22:07:25Z</time>
  <course>11.14</course>
  <speed>0.7247068372797375</speed>
  <fix>3d</fix>
</trkpt>
<trkpt lat="33.8102271" lon="-118.3939774">
  <ele>-0.113</ele>
  <time>2026-09-02T22:07:25Z</time>
  <course>11.14</course>
  <speed>0.7247068372797375</speed>
  <fix>3d</fix>
</trkpt>
<trkpt lat="33.8102272" lon="-118.3939773">
  <ele>-0.113</ele>
  <time>2026-09-02T22:07:25Z</time>
  <course>11.14</course>
  <speed>0.7247068372797375</speed>
  <fix>3d</fix>
</trkpt>
<trkpt lat="33.8102272" lon="-118.3939773">
  <ele>-0.113</ele>
  <time>2026-09-02T22:07:25Z</time>
  <course>11.14</course>
  <speed>0.7247068372797375</speed>
  <fix>3d</fix>
</trkpt>
<trkpt lat="33.8102272" lon="-118.3939772">
  <ele>-0.113</ele>
  <time>2026-09-02T22:07:25Z</time>
  <course>11.14</course>
  <speed>0.7247068372797375</speed>
  <fix>3d</fix>
</trkpt>
<trkpt lat="33.8102273" lon="-118.3939772">
  <ele>-0.113</ele>
  <time>2026-09-02T22:07:25Z</time>
  <course>11.14</course>
  <speed>0.7247068372797375</speed>
  <fix>3d</fix>
</trkpt>
<trkpt lat="33.8102273" lon="-118.3939771">
  <ele>-0.113</ele>
  <time>2026-09-02T22:07:25Z</time>
  <course>11.14</course>
  <speed>0.7247068372797375</speed>
  <fix>3d</fix>
</trkpt>
<trkpt lat="33.8102273" lon="-118.3939771">
  <ele>-0.114</ele>
  <time>2026-09-02T22:07:25Z</time>
  <course>11.14</course>
  <speed>0.7247068372797375</speed>
  <fix>3d</fix>
</trkpt>
<trkpt lat="33.8102274" lon="-118.393977">
  <ele>-0.114</ele>
  <time>2026-09-02T22:07:25Z</time>
  <course>11.14</course>
  <speed>0.7247068372797375</speed>
  <fix>3d</fix>
</trkpt>
<trkpt lat="33.8102274" lon="-118.393977">
  <ele>-0.114</ele>
  <time>2026-09-02T22:07:25Z</time>
  <course>11.14</course>
  <speed>0.7247068372797375</speed>
  <fix>3d</fix>
</trkpt>
<trkpt lat="33.8102266" lon="-118.3939786">
  <ele>-0.1</ele>
  <time>2026-09-02T22:07:25Z</time>
  <course>47.93</course>
  <speed>0.73</speed>
  <fix>3d</fix>
</trkpt>
<trkpt lat="33.8102274" lon="-118.393977">
  <ele>-0.114</ele>
  <time>2026-09-02T22:07:25Z</time>
  <course>11.15</course>
  <speed>0.7247068372797375</speed>
  <fix>3d</fix>
</trkpt>
<trkpt lat="33.8102275" lon="-118.3939769">
  <ele>-0.114</ele>
  <time>2026-09-02T22:07:25Z</time>
  <course>11.15</course>
  <speed>0.7247068372797375</speed>
  <fix>3d</fix>
</trkpt>
<trkpt lat="33.8102275" lon="-118.3939769">
  <ele>-0.114</ele>
  <time>2026-09-02T22:07:25Z</time>
  <course>11.15</course>
  <speed>0.7247068372797375</speed>
  <fix>3d</fix>
</trkpt>
<trkpt lat="33.8102275" lon="-118.3939768">
  <ele>-0.114</ele>
  <time>2026-09-02T22:07:25Z</time>
  <course>11.15</course>
  <speed>0.7247068372797375</speed>
  <fix>3d</fix>
</trkpt>
<trkpt lat="33.8102276" lon="-118.3939768">
  <ele>-0.114</ele>
  <time>2026-09-02T22:07:25Z</time>
  <course>11.15</course>
  <speed>0.7247068372797375</speed>
  <fix>3d</fix>
</trkpt>
<trkpt lat="33.8102276" lon="-118.3939767">
  <ele>-0.114</ele>
  <time>2026-09-02T22:07:25Z</time>
  <course>11.15</course>
  <speed>0.7247068372797375</speed>
  <fix>3d</fix>
</trkpt>
<trkpt lat="33.8102276" lon="-118.3939767">
  <ele>-0.114</ele>
  <time>2026-09-02T22:07:25Z</time>
  <course>11.15</course>
  <speed>0.7247068372797375</speed>
  <fix>3d</fix>
</trkpt>
<trkpt lat="33.8102277" lon="-118.3939766">
  <ele>-0.114</ele>
  <time>2026-09-02T22:07:25Z</time>
  <course>11.15</course>
  <speed>0.7247068372797375</speed>
  <fix>3d</fix>
</trkpt>
<trkpt lat="33.8102277" lon="-118.3939766">
  <ele>-0.114</ele>
  <time>2026-09-02T22:07:25Z</time>
  <course>11.15</course>
  <speed>0.7247068372797375</speed>
  <fix>3d</fix>
</trkpt>
<trkpt lat="33.8102278" lon="-118.3939765">
  <ele>-0.114</ele>
  <time>2026-09-02T22:07:25Z</time>
  <course>11.15</course>
  <speed>0.7247068372797375</speed>
  <fix>3d</fix>
</trkpt>
<trkpt lat="33.8102278" lon="-118.3939765">
  <ele>-0.114</ele>
  <time>2026-09-02T22:07:25Z</time>
  <course>11.15</course>
  <speed>0.7247068372797375</speed>
  <fix>3d</fix>
</trkpt>
<trkpt lat="33.8102278" lon="-118.3939764">
  <ele>-0.114</ele>
  <time>2026-09-02T22:07:25Z</time>
  <course>11.15</course>
  <speed>0.7247068372797375</speed>
  <fix>3d</fix>
</trkpt>
<trkpt lat="33.8102275" lon="-118.3939775">
  <ele>-0.1</ele>
  <time>2026-09-02T22:07:25Z</time>
  <course>47.94</course>
  <speed>0.73</speed>
  <fix>3d</fix>
</trkpt>
<trkpt lat="33.8102278" lon="-118.3939764">
  <ele>-0.114</ele>
  <time>2026-09-02T22:07:25Z</time>
  <course>11.15</course>
  <speed>0.7247068372797375</speed>
  <fix>3d</fix>
</trkpt>
<trkpt lat="33.8102279" lon="-118.3939764">
  <ele>-0.114</ele>
  <time>2026-09-02T22:07:25Z</time>
  <course>11.15</course>
  <speed>0.7247068372797375</speed>
  <fix>3d</fix>
</trkpt>
<trkpt lat="33.8102279" lon="-118.3939763">
  <ele>-0.114</ele>
  <time>2026-09-02T22:07:25Z</time>
  <course>11.15</course>
  <speed>0.7247068372797375</speed>
  <fix>3d</fix>
</trkpt>
<trkpt lat="33.810228" lon="-118.3939763">
  <ele>-0.114</ele>
  <time>2026-09-02T22:07:25Z</time>
  <course>11.15</course>
  <speed>0.7247068372797375</speed>
  <fix>3d</fix>
</trkpt>
<trkpt lat="33.810228" lon="-118.3939762">
  <ele>-0.114</ele>
  <time>2026-09-02T22:07:25Z</time>
  <course>11.15</course>
  <speed>0.7247068372797375</speed>
  <fix>3d</fix>
</trkpt>
<trkpt lat="33.8102281" lon="-118.3939761">
  <ele>-0.114</ele>
  <time>2026-09-02T22:07:25Z</time>
  <course>11.15</course>
  <speed>0.7247068372797375</speed>
  <fix>3d</fix>
</trkpt>
<trkpt lat="33.8102281" lon="-118.3939761">
  <ele>-0.114</ele>
  <time>2026-09-02T22:07:25Z</time>
  <course>11.15</course>
  <speed>0.7247068372797375</speed>
  <fix>3d</fix>
</trkpt>
<trkpt lat="33.8102281" lon="-118.3939761">
  <ele>-0.114</ele>
  <time>2026-09-02T22:07:25Z</time>
  <course>11.15</course>
  <speed>0.7247068372797375</speed>
  <fix>3d</fix>
</trkpt>
<trkpt lat="33.8102282" lon="-118.393976">
  <ele>-0.114</ele>
  <time>2026-09-02T22:07:25Z</time>
  <course>11.15</course>
  <speed>0.7247068372797375</speed>
  <fix>3d</fix>
</trkpt>
<trkpt lat="33.8102282" lon="-118.393976">
  <ele>-0.114</ele>
  <time>2026-09-02T22:07:25Z</time>
  <course>11.15</course>
  <speed>0.7247068372797375</speed>
  <fix>3d</fix>
</trkpt>
<trkpt lat="33.8102282" lon="-118.3939759">
  <ele>-0.113</ele>
  <time>2026-09-02T22:07:25Z</time>
  <course>11.16</course>
  <speed>0.7247068372797375</speed>
  <fix>3d</fix>
</trkpt>
<trkpt lat="33.8102283" lon="-118.3939759">
  <ele>-0.113</ele>
  <time>2026-09-02T22:07:25Z</time>
  <course>11.16</course>
  <speed>0.7247068372797375</speed>
  <fix>3d</fix>
</trkpt>
<trkpt lat="33.8102275" lon="-118.3939775">
  <ele>-0.1</ele>
  <time>2026-09-02T22:07:25Z</time>
  <course>47.94</course>
  <speed>0.73</speed>
  <fix>3d</fix>
</trkpt>
<trkpt lat="33.8102283" lon="-118.3939758">
  <ele>-0.113</ele>
  <time>2026-09-02T22:07:25Z</time>
  <course>11.16</course>
  <speed>0.7247068372797375</speed>
  <fix>3d</fix>
</trkpt>
<trkpt lat="33.8102283" lon="-118.3939758">
  <ele>-0.113</ele>
  <time>2026-09-02T22:07:25Z</time>
  <course>11.16</course>
  <speed>0.7247068372797375</speed>
  <fix>3d</fix>
</trkpt>
<trkpt lat="33.8102284" lon="-118.3939757">
  <ele>-0.113</ele>
  <time>2026-09-02T22:07:25Z</time>
  <course>11.16</course>
  <speed>0.7247068372797375</speed>
  <fix>3d</fix>
</trkpt>
<trkpt lat="33.8102284" lon="-118.3939756">
  <ele>-0.113</ele>
  <time>2026-09-02T22:07:25Z</time>
  <course>11.16</course>
  <speed>0.7247068372797375</speed>
  <fix>3d</fix>
</trkpt>
<trkpt lat="33.8102285" lon="-118.3939756">
  <ele>-0.113</ele>
  <time>2026-09-02T22:07:25Z</time>
  <course>11.16</course>
  <speed>0.7247068372797375</speed>
  <fix>3d</fix>
</trkpt>
<trkpt lat="33.8102285" lon="-118.3939755">
  <ele>-0.113</ele>
  <time>2026-09-02T22:07:25Z</time>
  <course>11.16</course>
  <speed>0.7247068372797375</speed>
  <fix>3d</fix>
</trkpt>
<trkpt lat="33.8102286" lon="-118.3939755">
  <ele>-0.113</ele>
  <time>2026-09-02T22:07:25Z</time>
  <course>11.16</course>
  <speed>0.7247068372797375</speed>
  <fix>3d</fix>
</trkpt>
<trkpt lat="33.8102286" lon="-118.3939754">
  <ele>-0.113</ele>
  <time>2026-09-02T22:07:25Z</time>
  <course>11.16</course>
  <speed>0.7247068372797375</speed>
  <fix>3d</fix>
</trkpt>
<trkpt lat="33.8102286" lon="-118.3939754">
  <ele>-0.113</ele>
  <time>2026-09-02T22:07:25Z</time>
  <course>11.16</course>
  <speed>0.7247068372797375</speed>
  <fix>3d</fix>
</trkpt>
<trkpt lat="33.8102287" lon="-118.3939753">
  <ele>-0.112</ele>
  <time>2026-09-02T22:07:25Z</time>
  <course>11.16</course>
  <speed>0.7247068372797375</speed>
  <fix>3d</fix>
</trkpt>
<trkpt lat="33.8102287" lon="-118.3939753">
  <ele>-0.112</ele>
  <time>2026-09-02T22:07:25Z</time>
  <course>11.16</course>
  <speed>0.7247068372797375</speed>
  <fix>3d</fix>
</trkpt>
<trkpt lat="33.8102287" lon="-118.3939753">
  <ele>-0.112</ele>
  <time>2026-09-02T22:07:25Z</time>
  <course>11.16</course>
  <speed>0.7247068372797375</speed>
  <fix>3d</fix>
</trkpt>
<trkpt lat="33.8102284" lon="-118.3939763">
  <ele>-0.1</ele>
  <time>2026-09-02T22:07:25Z</time>
  <course>47.95</course>
  <speed>0.73</speed>
  <fix>3d</fix>
</trkpt>
<trkpt lat="33.8102288" lon="-118.3939752">
  <ele>-0.112</ele>
  <time>2026-09-02T22:07:25Z</time>
  <course>11.16</course>
  <speed>0.7247068372797375</speed>
  <fix>3d</fix>
</trkpt>
<trkpt lat="33.8102288" lon="-118.3939751">
  <ele>-0.112</ele>
  <time>2026-09-02T22:07:25Z</time>
  <course>11.16</course>
  <speed>0.7247068372797375</speed>
  <fix>3d</fix>
</trkpt>
<trkpt lat="33.8102289" lon="-118.3939751">
  <ele>-0.112</ele>
  <time>2026-09-02T22:07:25Z</time>
  <course>11.16</course>
  <speed>0.7247068372797375</speed>
  <fix>3d</fix>
</trkpt>
<trkpt lat="33.8102289" lon="-118.393975">
  <ele>-0.112</ele>
  <time>2026-09-02T22:07:25Z</time>
  <course>11.16</course>
  <speed>0.7247068372797375</speed>
  <fix>3d</fix>
</trkpt>
<trkpt lat="33.8102289" lon="-118.393975">
  <ele>-0.112</ele>
  <time>2026-09-02T22:07:25Z</time>
  <course>11.16</course>
  <speed>0.7247068372797375</speed>
  <fix>3d</fix>
</trkpt>
<trkpt lat="33.810229" lon="-118.3939749">
  <ele>-0.111</ele>
  <time>2026-09-02T22:07:25Z</time>
  <course>11.17</course>
  <speed>0.7247068372797375</speed>
  <fix>3d</fix>
</trkpt>
<trkpt lat="33.810229" lon="-118.3939749">
  <ele>-0.111</ele>
  <time>2026-09-02T22:07:25Z</time>
  <course>11.17</course>
  <speed>0.7247068372797375</speed>
  <fix>3d</fix>
</trkpt>
<trkpt lat="33.810229" lon="-118.3939748">
  <ele>-0.111</ele>
  <time>2026-09-02T22:07:25Z</time>
  <course>11.17</course>
  <speed>0.7247068372797375</speed>
  <fix>3d</fix>
</trkpt>
<trkpt lat="33.8102291" lon="-118.3939748">
  <ele>-0.111</ele>
  <time>2026-09-02T22:07:25Z</time>
  <course>11.17</course>
  <speed>0.7247068372797375</speed>
  <fix>3d</fix>
</trkpt>
<trkpt lat="33.8102291" lon="-118.3939747">
  <ele>-0.11</ele>
  <time>2026-09-02T22:07:25Z</time>
  <course>11.17</course>
  <speed>0.7247068372797375</speed>
  <fix>3d</fix>
</trkpt>
<trkpt lat="33.8102291" lon="-118.3939747">
  <ele>-0.11</ele>
  <time>2026-09-02T22:07:25Z</time>
  <course>11.17</course>
  <speed>0.7247068372797375</speed>
  <fix>3d</fix>
</trkpt>
<trkpt lat="33.8102292" lon="-118.3939747">
  <ele>-0.11</ele>
  <time>2026-09-02T22:07:25Z</time>
  <course>11.17</course>
  <speed>0.7247068372797375</speed>
  <fix>3d</fix>
</trkpt>
<trkpt lat="33.8102284" lon="-118.3939763">
  <ele>-0.1</ele>
  <time>2026-09-02T22:07:25Z</time>
  <course>47.95</course>
  <speed>0.73</speed>
  <fix>3d</fix>
</trkpt>
<trkpt lat="33.8102292" lon="-118.3939747">
  <ele>-0.11</ele>
  <time>2026-09-02T22:07:25Z</time>
  <course>11.17</course>
  <speed>0.7247068372797375</speed>
  <fix>3d</fix>
</trkpt>
<trkpt lat="33.8102292" lon="-118.3939746">
  <ele>-0.11</ele>
  <time>2026-09-02T22:07:25Z</time>
  <course>11.17</course>
  <speed>0.7247068372797375</speed>
  <fix>3d</fix>
</trkpt>
<trkpt lat="33.8102293" lon="-118.3939745">
  <ele>-0.11</ele>
  <time>2026-09-02T22:07:25Z</time>
  <course>11.17</course>
  <speed>0.7247068372797375</speed>
  <fix>3d</fix>
</trkpt>
<trkpt lat="33.8102293" lon="-118.3939745">
  <ele>-0.11</ele>
  <time>2026-09-02T22:07:25Z</time>
  <course>11.17</course>
  <speed>0.7247068372797375</speed>
  <fix>3d</fix>
</trkpt>
<trkpt lat="33.8102293" lon="-118.3939744">
  <ele>-0.109</ele>
  <time>2026-09-02T22:07:25Z</time>
  <course>11.17</course>
  <speed>0.7247068372797375</speed>
  <fix>3d</fix>
</trkpt>
<trkpt lat="33.8102294" lon="-118.3939744">
  <ele>-0.109</ele>
  <time>2026-09-02T22:07:25Z</time>
  <course>11.17</course>
  <speed>0.7247068372797375</speed>
  <fix>3d</fix>
</trkpt>
<trkpt lat="33.8102294" lon="-118.3939744">
  <ele>-0.109</ele>
  <time>2026-09-02T22:07:25Z</time>
  <course>11.17</course>
  <speed>0.7247068372797375</speed>
  <fix>3d</fix>
</trkpt>
<trkpt lat="33.8102294" lon="-118.3939743">
  <ele>-0.109</ele>
  <time>2026-09-02T22:07:25Z</time>
  <course>11.17</course>
  <speed>0.7247068372797375</speed>
  <fix>3d</fix>
</trkpt>
<trkpt lat="33.8102295" lon="-118.3939743">
  <ele>-0.109</ele>
  <time>2026-09-02T22:07:25Z</time>
  <course>11.17</course>
  <speed>0.7247068372797375</speed>
  <fix>3d</fix>
</trkpt>
<trkpt lat="33.8102295" lon="-118.3939742">
  <ele>-0.109</ele>
  <time>2026-09-02T22:07:25Z</time>
  <course>11.17</course>
  <speed>0.7247068372797375</speed>
  <fix>3d</fix>
</trkpt>
<trkpt lat="33.8102295" lon="-118.3939742">
  <ele>-0.109</ele>
  <time>2026-09-02T22:07:25Z</time>
  <course>11.17</course>
  <speed>0.7247068372797375</speed>
  <fix>3d</fix>
</trkpt>
<trkpt lat="33.8102296" lon="-118.3939741">
  <ele>-0.108</ele>
  <time>2026-09-02T22:07:25Z</time>
  <course>11.17</course>
  <speed>0.7247068372797375</speed>
  <fix>3d</fix>
</trkpt>
<trkpt lat="33.8102296" lon="-118.3939741">
  <ele>-0.108</ele>
  <time>2026-09-02T22:07:25Z</time>
  <course>11.17</course>
  <speed>0.7247068372797375</speed>
  <fix>3d</fix>
</trkpt>
<trkpt lat="33.8102292" lon="-118.3939751">
  <ele>-0.1</ele>
  <time>2026-09-02T22:07:25Z</time>
  <course>47.96</course>
  <speed>0.73</speed>
  <fix>3d</fix>
</trkpt>
<trkpt lat="33.8102296" lon="-118.3939741">
  <ele>-0.108</ele>
  <time>2026-09-02T22:07:25Z</time>
  <course>11.17</course>
  <speed>0.7247068372797375</speed>
  <fix>3d</fix>
</trkpt>
<trkpt lat="33.8102297" lon="-118.393974">
  <ele>-0.108</ele>
  <time>2026-09-02T22:07:25Z</time>
  <course>11.17</course>
  <speed>0.7247068372797375</speed>
  <fix>3d</fix>
</trkpt>
<trkpt lat="33.8102297" lon="-118.393974">
  <ele>-0.108</ele>
  <time>2026-09-02T22:07:25Z</time>
  <course>11.17</course>
  <speed>0.7247068372797375</speed>
  <fix>3d</fix>
</trkpt>
<trkpt lat="33.8102297" lon="-118.3939739">
  <ele>-0.107</ele>
  <time>2026-09-02T22:07:25Z</time>
  <course>11.17</course>
  <speed>0.7247068372797375</speed>
  <fix>3d</fix>
</trkpt>
<trkpt lat="33.8102298" lon="-118.3939738">
  <ele>-0.107</ele>
  <time>2026-09-02T22:07:25Z</time>
  <course>11.17</course>
  <speed>0.7247068372797375</speed>
  <fix>3d</fix>
</trkpt>
<trkpt lat="33.8102298" lon="-118.3939738">
  <ele>-0.107</ele>
  <time>2026-09-02T22:07:25Z</time>
  <course>11.18</course>
  <speed>0.7247068372797375</speed>
  <fix>3d</fix>
</trkpt>
<trkpt lat="33.8102299" lon="-118.3939737">
  <ele>-0.107</ele>
  <time>2026-09-02T22:07:25Z</time>
  <course>11.18</course>
  <speed>0.7247068372797375</speed>
  <fix>3d</fix>
</trkpt>
<trkpt lat="33.8102299" lon="-118.3939737">
  <ele>-0.106</ele>
  <time>2026-09-02T22:07:25Z</time>
  <course>11.18</course>
  <speed>0.7247068372797375</speed>
  <fix>3d</fix>
</trkpt>
<trkpt lat="33.8102299" lon="-118.3939737">
  <ele>-0.106</ele>
  <time>2026-09-02T22:07:25Z</time>
  <course>11.18</course>
  <speed>0.7247068372797375</speed>
  <fix>3d</fix>
</trkpt>
<trkpt lat="33.81023" lon="-118.3939736">
  <ele>-0.106</ele>
  <time>2026-09-02T22:07:25Z</time>
  <course>11.18</course>
  <speed>0.7247068372797375</speed>
  <fix>3d</fix>
</trkpt>
<trkpt lat="33.81023" lon="-118.3939736">
  <ele>-0.106</ele>
  <time>2026-09-02T22:07:25Z</time>
  <course>11.18</course>
  <speed>0.7247068372797375</speed>
  <fix>3d</fix>
</trkpt>
<trkpt lat="33.81023" lon="-118.3939735">
  <ele>-0.106</ele>
  <time>2026-09-02T22:07:25Z</time>
  <course>11.18</course>
  <speed>0.7247068372797375</speed>
  <fix>3d</fix>
</trkpt>
<trkpt lat="33.81023" lon="-118.3939735">
  <ele>-0.106</ele>
  <time>2026-09-02T22:07:25Z</time>
  <course>11.18</course>
  <speed>0.7247068372797375</speed>
  <fix>3d</fix>
</trkpt>
<trkpt lat="33.8102292" lon="-118.3939751">
  <ele>-0.1</ele>
  <time>2026-09-02T22:07:25Z</time>
  <course>47.96</course>
  <speed>0.73</speed>
  <fix>3d</fix>
</trkpt>
<trkpt lat="33.8102301" lon="-118.3939735">
  <ele>-0.105</ele>
  <time>2026-09-02T22:07:25Z</time>
  <course>11.18</course>
  <speed>0.7247068372797375</speed>
  <fix>3d</fix>
</trkpt>
<trkpt lat="33.8102301" lon="-118.3939734">
  <ele>-0.105</ele>
  <time>2026-09-02T22:07:25Z</time>
  <course>11.18</course>
  <speed>0.7247068372797375</speed>
  <fix>3d</fix>
</trkpt>
<trkpt lat="33.8102302" lon="-118.3939733">
  <ele>-0.105</ele>
  <time>2026-09-02T22:07:25Z</time>
  <course>11.18</course>
  <speed>0.7247068372797375</speed>
  <fix>3d</fix>
</trkpt>
<trkpt lat="33.8102302" lon="-118.3939733">
  <ele>-0.105</ele>
  <time>2026-09-02T22:07:25Z</time>
  <course>11.18</course>
  <speed>0.7247068372797375</speed>
  <fix>3d</fix>
</trkpt>
<trkpt lat="33.8102302" lon="-118.3939733">
  <ele>-0.105</ele>
  <time>2026-09-02T22:07:25Z</time>
  <course>11.18</course>
  <speed>0.7247068372797375</speed>
  <fix>3d</fix>
</trkpt>
<trkpt lat="33.8102303" lon="-118.3939732">
  <ele>-0.105</ele>
  <time>2026-09-02T22:07:25Z</time>
  <course>11.18</course>
  <speed>0.7247068372797375</speed>
  <fix>3d</fix>
</trkpt>
<trkpt lat="33.8102303" lon="-118.3939732">
  <ele>-0.104</ele>
  <time>2026-09-02T22:07:25Z</time>
  <course>11.18</course>
  <speed>0.7247068372797375</speed>
  <fix>3d</fix>
</trkpt>
<trkpt lat="33.8102303" lon="-118.3939731">
  <ele>-0.104</ele>
  <time>2026-09-02T22:07:25Z</time>
  <course>11.18</course>
  <speed>0.7247068372797375</speed>
  <fix>3d</fix>
</trkpt>
<trkpt lat="33.8102304" lon="-118.3939731">
  <ele>-0.104</ele>
  <time>2026-09-02T22:07:25Z</time>
  <course>11.18</course>
  <speed>0.7247068372797375</speed>
  <fix>3d</fix>
</trkpt>
<trkpt lat="33.8102304" lon="-118.393973">
  <ele>-0.104</ele>
  <time>2026-09-02T22:07:25Z</time>
  <course>11.18</course>
  <speed>0.7247068372797375</speed>
  <fix>3d</fix>
</trkpt>
<trkpt lat="33.8102304" lon="-118.393973">
  <ele>-0.104</ele>
  <time>2026-09-02T22:07:25Z</time>
  <course>11.18</course>
  <speed>0.7247068372797375</speed>
  <fix>3d</fix>
</trkpt>
<trkpt lat="33.8102305" lon="-118.393973">
  <ele>-0.103</ele>
  <time>2026-09-02T22:07:25Z</time>
  <course>11.18</course>
  <speed>0.7247068372797375</speed>
  <fix>3d</fix>
</trkpt>
<trkpt lat="33.8102305" lon="-118.3939729">
  <ele>-0.103</ele>
  <time>2026-09-02T22:07:25Z</time>
  <course>11.18</course>
  <speed>0.7247068372797375</speed>
  <fix>3d</fix>
</trkpt>
<trkpt lat="33.8102305" lon="-118.3939729">
  <ele>-0.103</ele>
  <time>2026-09-02T22:07:25Z</time>
  <course>11.18</course>
  <speed>0.7247068372797375</speed>
  <fix>3d</fix>
</trkpt>
<trkpt lat="33.8102301" lon="-118.3939739">
  <ele>-0.1</ele>
  <time>2026-09-02T22:07:25Z</time>
  <course>47.98</course>
  <speed>0.73</speed>
  <fix>3d</fix>
</trkpt>
<trkpt lat="33.8102305" lon="-118.3939728">
  <ele>-0.103</ele>
  <time>2026-09-02T22:07:25Z</time>
  <course>11.18</course>
  <speed>0.7247068372797375</speed>
  <fix>3d</fix>
</trkpt>
<trkpt lat="33.8102306" lon="-118.3939728">
  <ele>-0.103</ele>
  <time>2026-09-02T22:07:25Z</time>
  <course>11.18</course>
  <speed>0.7247068372797375</speed>
  <fix>3d</fix>
</trkpt>
<trkpt lat="33.8102306" lon="-118.3939727">
  <ele>-0.103</ele>
  <time>2026-09-02T22:07:25Z</time>
  <course>11.19</course>
  <speed>0.7247068372797375</speed>
  <fix>3d</fix>
</trkpt>
<trkpt lat="33.8102307" lon="-118.3939727">
  <ele>-0.103</ele>
  <time>2026-09-02T22:07:25Z</time>
  <course>11.19</course>
  <speed>0.7247068372797375</speed>
  <fix>3d</fix>
</trkpt>
<trkpt lat="33.8102307" lon="-118.3939726">
  <ele>-0.102</ele>
  <time>2026-09-02T22:07:25Z</time>
  <course>11.19</course>
  <speed>0.7247068372797375</speed>
  <fix>3d</fix>
</trkpt>
<trkpt lat="33.8102308" lon="-118.3939725">
  <ele>-0.102</ele>
  <time>2026-09-02T22:07:25Z</time>
  <course>11.19</course>
  <speed>0.7247068372797375</speed>
  <fix>3d</fix>
</trkpt>
<trkpt lat="33.8102308" lon="-118.3939725">
  <ele>-0.102</ele>
  <time>2026-09-02T22:07:25Z</time>
  <course>11.19</course>
  <speed>0.7247068372797375</speed>
  <fix>3d</fix>
</trkpt>
<trkpt lat="33.8102308" lon="-118.3939724">
  <ele>-0.102</ele>
  <time>2026-09-02T22:07:25Z</time>
  <course>11.19</course>
  <speed>0.7247068372797375</speed>
  <fix>3d</fix>
</trkpt>
<trkpt lat="33.8102309" lon="-118.3939724">
  <ele>-0.102</ele>
  <time>2026-09-02T22:07:25Z</time>
  <course>11.19</course>
  <speed>0.7247068372797375</speed>
  <fix>3d</fix>
</trkpt>
<trkpt lat="33.8102309" lon="-118.3939723">
  <ele>-0.102</ele>
  <time>2026-09-02T22:07:25Z</time>
  <course>11.19</course>
  <speed>0.7247068372797375</speed>
  <fix>3d</fix>
</trkpt>
<trkpt lat="33.8102309" lon="-118.3939723">
  <ele>-0.102</ele>
  <time>2026-09-02T22:07:25Z</time>
  <course>11.19</course>
  <speed>0.7247068372797375</speed>
  <fix>3d</fix>
</trkpt>
<trkpt lat="33.8102301" lon="-118.3939739">
  <ele>-0.1</ele>
  <time>2026-09-02T22:07:25Z</time>
  <course>47.98</course>
  <speed>0.73</speed>
  <fix>3d</fix>
</trkpt>
<trkpt lat="33.810231" lon="-118.3939722">
  <ele>-0.102</ele>
  <time>2026-09-02T22:07:25Z</time>
  <course>11.19</course>
  <speed>0.7247068372797375</speed>
  <fix>3d</fix>
</trkpt>
<trkpt lat="33.810231" lon="-118.3939722">
  <ele>-0.102</ele>
  <time>2026-09-02T22:07:25Z</time>
  <course>11.19</course>
  <speed>0.7247068372797375</speed>
  <fix>3d</fix>
</trkpt>
<trkpt lat="33.8102311" lon="-118.3939721">
  <ele>-0.101</ele>
  <time>2026-09-02T22:07:25Z</time>
  <course>11.19</course>
  <speed>0.7247068372797375</speed>
  <fix>3d</fix>
</trkpt>
<trkpt lat="33.8102311" lon="-118.3939721">
  <ele>-0.101</ele>
  <time>2026-09-02T22:07:25Z</time>
  <course>11.19</course>
  <speed>0.7247068372797375</speed>
  <fix>3d</fix>
</trkpt>
<trkpt lat="33.8102311" lon="-118.3939721">
  <ele>-0.101</ele>
  <time>2026-09-02T22:07:25Z</time>
  <course>11.19</course>
  <speed>0.7247068372797375</speed>
  <fix>3d</fix>
</trkpt>
<trkpt lat="33.8102312" lon="-118.393972">
  <ele>-0.101</ele>
  <time>2026-09-02T22:07:25Z</time>
  <course>11.19</course>
  <speed>0.7247068372797375</speed>
  <fix>3d</fix>
</trkpt>
<trkpt lat="33.8102312" lon="-118.393972">
  <ele>-0.101</ele>
  <time>2026-09-02T22:07:25Z</time>
  <course>11.19</course>
  <speed>0.7247068372797375</speed>
  <fix>3d</fix>
</trkpt>
<trkpt lat="33.8102312" lon="-118.3939719">
  <ele>-0.101</ele>
  <time>2026-09-02T22:07:25Z</time>
  <course>11.19</course>
  <speed>0.7247068372797375</speed>
  <fix>3d</fix>
</trkpt>
<trkpt lat="33.8102313" lon="-118.3939719">
  <ele>-0.101</ele>
  <time>2026-09-02T22:07:25Z</time>
  <course>11.19</course>
  <speed>0.7247068372797375</speed>
  <fix>3d</fix>
</trkpt>
<trkpt lat="33.8102313" lon="-118.3939718">
  <ele>-0.101</ele>
  <time>2026-09-02T22:07:25Z</time>
  <course>11.19</course>
  <speed>0.7247068372797375</speed>
  <fix>3d</fix>
</trkpt>
<trkpt lat="33.8102313" lon="-118.3939718">
  <ele>-0.101</ele>
  <time>2026-09-02T22:07:25Z</time>
  <course>11.19</course>
  <speed>0.7247068372797375</speed>
  <fix>3d</fix>
</trkpt>
<trkpt lat="33.8102314" lon="-118.3939717">
  <ele>-0.101</ele>
  <time>2026-09-02T22:07:25Z</time>
  <course>11.19</course>
  <speed>0.7247068372797375</speed>
  <fix>3d</fix>
</trkpt>
<trkpt lat="33.8102314" lon="-118.3939717">
  <ele>-0.101</ele>
  <time>2026-09-02T22:07:25Z</time>
  <course>11.19</course>
  <speed>0.7247068372797375</speed>
  <fix>3d</fix>
</trkpt>
<trkpt lat="33.810231" lon="-118.3939727">
  <ele>-0.1</ele>
  <time>2026-09-02T22:07:25Z</time>
  <course>47.99</course>
  <speed>0.73</speed>
  <fix>3d</fix>
</trkpt>
<trkpt lat="33.8102314" lon="-118.3939717">
  <ele>-0.1</ele>
  <time>2026-09-02T22:07:25Z</time>
  <course>11.19</course>
  <speed>0.7247068372797375</speed>
  <fix>3d</fix>
</trkpt>
<trkpt lat="33.8102314" lon="-118.3939716">
  <ele>-0.1</ele>
  <time>2026-09-02T22:07:25Z</time>
  <course>11.19</course>
  <speed>0.7247068372797375</speed>
  <fix>3d</fix>
</trkpt>
<trkpt lat="33.8102315" lon="-118.3939716">
  <ele>-0.1</ele>
  <time>2026-09-02T22:07:25Z</time>
  <course>11.2</course>
  <speed>0.7247068372797375</speed>
  <fix>3d</fix>
</trkpt>
<trkpt lat="33.8102315" lon="-118.3939715">
  <ele>-0.1</ele>
  <time>2026-09-02T22:07:25Z</time>
  <course>11.2</course>
  <speed>0.7247068372797375</speed>
  <fix>3d</fix>
</trkpt>
<trkpt lat="33.8102315" lon="-118.3939715">
  <ele>-0.1</ele>
  <time>2026-09-02T22:07:25Z</time>
  <course>11.2</course>
  <speed>0.7247068372797375</speed>
  <fix>3d</fix>
</trkpt>
<trkpt lat="33.8102316" lon="-118.3939714">
  <ele>-0.1</ele>
  <time>2026-09-02T22:07:25Z</time>
  <course>11.2</course>
  <speed>0.7247068372797375</speed>
  <fix>3d</fix>
</trkpt>
<trkpt lat="33.8102316" lon="-118.3939714">
  <ele>-0.1</ele>
  <time>2026-09-02T22:07:25Z</time>
  <course>11.2</course>
  <speed>0.7247068372797375</speed>
  <fix>3d</fix>
</trkpt>
<trkpt lat="33.8102316" lon="-118.3939714">
  <ele>-0.1</ele>
  <time>2026-09-02T22:07:25Z</time>
  <course>11.2</course>
  <speed>0.7247068372797375</speed>
  <fix>3d</fix>
</trkpt>
<trkpt lat="33.8102317" lon="-118.3939713">
  <ele>-0.1</ele>
  <time>2026-09-02T22:07:25Z</time>
  <course>11.2</course>
  <speed>0.7247068372797375</speed>
  <fix>3d</fix>
</trkpt>
<trkpt lat="33.8102317" lon="-118.3939713">
  <ele>-0.1</ele>
  <time>2026-09-02T22:07:25Z</time>
  <course>11.2</course>
  <speed>0.7247068372797375</speed>
  <fix>3d</fix>
</trkpt>
<trkpt lat="33.8102317" lon="-118.3939712">
  <ele>-0.1</ele>
  <time>2026-09-02T22:07:25Z</time>
  <course>11.2</course>
  <speed>0.7247068372797375</speed>
  <fix>3d</fix>
</trkpt>
<trkpt lat="33.8102318" lon="-118.3939712">
  <ele>-0.1</ele>
  <time>2026-09-02T22:07:25Z</time>
  <course>11.2</course>
  <speed>0.7247068372797375</speed>
  <fix>3d</fix>
</trkpt>
<trkpt lat="33.8102318" lon="-118.3939711">
  <ele>-0.1</ele>
  <time>2026-09-02T22:07:25Z</time>
  <course>11.2</course>
  <speed>0.7247068372797375</speed>
  <fix>3d</fix>
</trkpt>
<trkpt lat="33.8102318" lon="-118.3939711">
  <ele>-0.1</ele>
  <time>2026-09-02T22:07:25Z</time>
  <course>11.2</course>
  <speed>0.7247068372797375</speed>
  <fix>3d</fix>
</trkpt>
<trkpt lat="33.810231" lon="-118.3939727">
  <ele>-0.1</ele>
  <time>2026-09-02T22:07:25Z</time>
  <course>47.99</course>
  <speed>0.73</speed>
  <fix>3d</fix>
</trkpt>
<trkpt lat="33.8102319" lon="-118.393971">
  <ele>-0.101</ele>
  <time>2026-09-02T22:07:25Z</time>
  <course>11.2</course>
  <speed>0.7247068372797375</speed>
  <fix>3d</fix>
</trkpt>
<trkpt lat="33.8102319" lon="-118.393971">
  <ele>-0.1</ele>
  <time>2026-09-02T22:07:25Z</time>
  <course>11.2</course>
  <speed>0.7247068372797375</speed>
  <fix>3d</fix>
</trkpt>
<trkpt lat="33.810232" lon="-118.3939709">
  <ele>-0.101</ele>
  <time>2026-09-02T22:07:25Z</time>
  <course>11.2</course>
  <speed>0.7247068372797375</speed>
  <fix>3d</fix>
</trkpt>
<trkpt lat="33.810232" lon="-118.3939709">
  <ele>-0.101</ele>
  <time>2026-09-02T22:07:25Z</time>
  <course>11.2</course>
  <speed>0.7247068372797375</speed>
  <fix>3d</fix>
</trkpt>
<trkpt lat="33.810232" lon="-118.3939709">
  <ele>-0.101</ele>
  <time>2026-09-02T22:07:25Z</time>
  <course>11.2</course>
  <speed>0.7247068372797375</speed>
  <fix>3d</fix>
</trkpt>
<trkpt lat="33.8102321" lon="-118.3939708">
  <ele>-0.101</ele>
  <time>2026-09-02T22:07:25Z</time>
  <course>11.2</course>
  <speed>0.7247068372797375</speed>
  <fix>3d</fix>
</trkpt>
<trkpt lat="33.8102321" lon="-118.3939708">
  <ele>-0.1</ele>
  <time>2026-09-02T22:07:25Z</time>
  <course>11.2</course>
  <speed>0.7247068372797375</speed>
  <fix>3d</fix>
</trkpt>
<trkpt lat="33.8102321" lon="-118.3939707">
  <ele>-0.1</ele>
  <time>2026-09-02T22:07:25Z</time>
  <course>11.2</course>
  <speed>0.7247068372797375</speed>
  <fix>3d</fix>
</trkpt>
<trkpt lat="33.8102322" lon="-118.3939707">
  <ele>-0.1</ele>
  <time>2026-09-02T22:07:25Z</time>
  <course>11.2</course>
  <speed>0.7247068372797375</speed>
  <fix>3d</fix>
</trkpt>
<trkpt lat="33.8102322" lon="-118.3939706">
  <ele>-0.1</ele>
  <time>2026-09-02T22:07:25Z</time>
  <course>11.2</course>
  <speed>0.7247068372797375</speed>
  <fix>3d</fix>
</trkpt>
<trkpt lat="33.8102322" lon="-118.3939706">
  <ele>-0.1</ele>
  <time>2026-09-02T22:07:25Z</time>
  <course>11.2</course>
  <speed>0.7247068372797375</speed>
  <fix>3d</fix>
</trkpt>
<trkpt lat="33.8102323" lon="-118.3939705">
  <ele>-0.1</ele>
  <time>2026-09-02T22:07:25Z</time>
  <course>11.2</course>
  <speed>0.7247068372797375</speed>
  <fix>3d</fix>
</trkpt>
<trkpt lat="33.8102323" lon="-118.3939705">
  <ele>-0.1</ele>
  <time>2026-09-02T22:07:25Z</time>
  <course>11.2</course>
  <speed>0.7247068372797375</speed>
  <fix>3d</fix>
</trkpt>
<trkpt lat="33.8102319" lon="-118.3939715">
  <ele>-0.1</ele>
  <time>2026-09-02T22:07:25Z</time>
  <course>48.0</course>
  <speed>0.73</speed>
  <fix>3d</fix>
</trkpt>
<trkpt lat="33.8102323" lon="-118.3939705">
  <ele>-0.1</ele>
  <time>2026-09-02T22:07:25Z</time>
  <course>11.21</course>
  <speed>0.7247068372797375</speed>
  <fix>3d</fix>
</trkpt>
<trkpt lat="33.8102324" lon="-118.3939704">
  <ele>-0.1</ele>
  <time>2026-09-02T22:07:25Z</time>
  <course>11.21</course>
  <speed>0.7247068372797375</speed>
  <fix>3d</fix>
</trkpt>
<trkpt lat="33.8102324" lon="-118.3939703">
  <ele>-0.1</ele>
  <time>2026-09-02T22:07:25Z</time>
  <course>11.21</course>
  <speed>0.7247068372797375</speed>
  <fix>3d</fix>
</trkpt>
<trkpt lat="33.8102324" lon="-118.3939703">
  <ele>-0.1</ele>
  <time>2026-09-02T22:07:25Z</time>
  <course>11.21</course>
  <speed>0.7247068372797375</speed>
  <fix>3d</fix>
</trkpt>
<trkpt lat="33.8102325" lon="-118.3939703">
  <ele>-0.1</ele>
  <time>2026-09-02T22:07:25Z</time>
  <course>11.21</course>
  <speed>0.7247068372797375</speed>
  <fix>3d</fix>
</trkpt>
<trkpt lat="33.8102325" lon="-118.3939702">
  <ele>-0.1</ele>
  <time>2026-09-02T22:07:25Z</time>
  <course>11.21</course>
  <speed>0.7247068372797375</speed>
  <fix>3d</fix>
</trkpt>
<trkpt lat="33.8102325" lon="-118.3939702">
  <ele>-0.1</ele>
  <time>2026-09-02T22:07:25Z</time>
  <course>11.21</course>
  <speed>0.7247068372797375</speed>
  <fix>3d</fix>
</trkpt>
<trkpt lat="33.8102326" lon="-118.3939701">
  <ele>-0.1</ele>
  <time>2026-09-02T22:07:25Z</time>
  <course>11.21</course>
  <speed>0.7247068372797375</speed>
  <fix>3d</fix>
</trkpt>
<trkpt lat="33.8102326" lon="-118.3939701">
  <ele>-0.1</ele>
  <time>2026-09-02T22:07:25Z</time>
  <course>11.21</course>
  <speed>0.7247068372797375</speed>
  <fix>3d</fix>
</trkpt>
<trkpt lat="33.8102326" lon="-118.39397">
  <ele>-0.1</ele>
  <time>2026-09-02T22:07:25Z</time>
  <course>11.21</course>
  <speed>0.7247068372797375</speed>
  <fix>3d</fix>
</trkpt>
<trkpt lat="33.8102327" lon="-118.39397">
  <ele>-0.1</ele>
  <time>2026-09-02T22:07:25Z</time>
  <course>11.21</course>
  <speed>0.7247068372797375</speed>
  <fix>3d</fix>
</trkpt>
<trkpt lat="33.8102327" lon="-118.3939699">
  <ele>-0.099</ele>
  <time>2026-09-02T22:07:25Z</time>
  <course>11.21</course>
  <speed>0.7247068372797375</speed>
  <fix>3d</fix>
</trkpt>
<trkpt lat="33.8102327" lon="-118.3939699">
  <ele>-0.099</ele>
  <time>2026-09-02T22:07:25Z</time>
  <course>11.21</course>
  <speed>0.7247068372797375</speed>
  <fix>3d</fix>
</trkpt>
<trkpt lat="33.8102319" lon="-118.3939715">
  <ele>-0.1</ele>
  <time>2026-09-02T22:07:25Z</time>
  <course>48.0</course>
  <speed>0.73</speed>
  <fix>3d</fix>
</trkpt>
<trkpt lat="33.8102328" lon="-118.3939699">
  <ele>-0.099</ele>
  <time>2026-09-02T22:07:25Z</time>
  <course>11.21</course>
  <speed>0.7247068372797375</speed>
  <fix>3d</fix>
</trkpt>
<trkpt lat="33.8102328" lon="-118.3939698">
  <ele>-0.099</ele>
  <time>2026-09-02T22:07:25Z</time>
  <course>11.21</course>
  <speed>0.7247068372797375</speed>
  <fix>3d</fix>
</trkpt>
<trkpt lat="33.8102329" lon="-118.3939697">
  <ele>-0.099</ele>
  <time>2026-09-02T22:07:25Z</time>
  <course>11.21</course>
  <speed>0.7247068372797375</speed>
  <fix>3d</fix>
</trkpt>
<trkpt lat="33.8102329" lon="-118.3939697">
  <ele>-0.099</ele>
  <time>2026-09-02T22:07:25Z</time>
  <course>11.21</course>
  <speed>0.7247068372797375</speed>
  <fix>3d</fix>
</trkpt>
<trkpt lat="33.8102329" lon="-118.3939696">
  <ele>-0.099</ele>
  <time>2026-09-02T22:07:25Z</time>
  <course>11.21</course>
  <speed>0.7247068372797375</speed>
  <fix>3d</fix>
</trkpt>
<trkpt lat="33.810233" lon="-118.3939696">
  <ele>-0.099</ele>
  <time>2026-09-02T22:07:25Z</time>
  <course>11.21</course>
  <speed>0.7247068372797375</speed>
  <fix>3d</fix>
</trkpt>
<trkpt lat="33.810233" lon="-118.3939695">
  <ele>-0.099</ele>
  <time>2026-09-02T22:07:25Z</time>
  <course>11.21</course>
  <speed>0.7247068372797375</speed>
  <fix>3d</fix>
</trkpt>
<trkpt lat="33.810233" lon="-118.3939695">
  <ele>-0.098</ele>
  <time>2026-09-02T22:07:25Z</time>
  <course>11.21</course>
  <speed>0.7247068372797375</speed>
  <fix>3d</fix>
</trkpt>
<trkpt lat="33.8102331" lon="-118.3939694">
  <ele>-0.098</ele>
  <time>2026-09-02T22:07:25Z</time>
  <course>11.21</course>
  <speed>0.7247068372797375</speed>
  <fix>3d</fix>
</trkpt>
<trkpt lat="33.8102331" lon="-118.3939694">
  <ele>-0.098</ele>
  <time>2026-09-02T22:07:25Z</time>
  <course>11.21</course>
  <speed>0.7247068372797375</speed>
  <fix>3d</fix>
</trkpt>
<trkpt lat="33.8102331" lon="-118.3939694">
  <ele>-0.098</ele>
  <time>2026-09-02T22:07:25Z</time>
  <course>11.21</course>
  <speed>0.7247068372797375</speed>
  <fix>3d</fix>
</trkpt>
<trkpt lat="33.8102328" lon="-118.3939704">
  <ele>-0.1</ele>
  <time>2026-09-02T22:07:25Z</time>
  <course>48.01</course>
  <speed>0.73</speed>
  <fix>3d</fix>
</trkpt>
<trkpt lat="33.8102332" lon="-118.3939693">
  <ele>-0.098</ele>
  <time>2026-09-02T22:07:25Z</time>
  <course>11.22</course>
  <speed>0.7247068372797375</speed>
  <fix>3d</fix>
</trkpt>
<trkpt lat="33.8102332" lon="-118.3939693">
  <ele>-0.098</ele>
  <time>2026-09-02T22:07:25Z</time>
  <course>11.22</course>
  <speed>0.7247068372797375</speed>
  <fix>3d</fix>
</trkpt>
<trkpt lat="33.8102332" lon="-118.3939692">
  <ele>-0.098</ele>
  <time>2026-09-02T22:07:25Z</time>
  <course>11.22</course>
  <speed>0.7247068372797375</speed>
  <fix>3d</fix>
</trkpt>
<trkpt lat="33.8102333" lon="-118.3939692">
  <ele>-0.098</ele>
  <time>2026-09-02T22:07:25Z</time>
  <course>11.22</course>
  <speed>0.7247068372797375</speed>
  <fix>3d</fix>
</trkpt>
<trkpt lat="33.8102333" lon="-118.3939691">
  <ele>-0.098</ele>
  <time>2026-09-02T22:07:25Z</time>
  <course>11.22</course>
  <speed>0.7247068372797375</speed>
  <fix>3d</fix>
</trkpt>
<trkpt lat="33.8102334" lon="-118.3939691">
  <ele>-0.098</ele>
  <time>2026-09-02T22:07:25Z</time>
  <course>11.22</course>
  <speed>0.7247068372797375</speed>
  <fix>3d</fix>
</trkpt>
<trkpt lat="33.8102334" lon="-118.393969">
  <ele>-0.098</ele>
  <time>2026-09-02T22:07:25Z</time>
  <course>11.22</course>
  <speed>0.7247068372797375</speed>
  <fix>3d</fix>
</trkpt>
<trkpt lat="33.8102334" lon="-118.393969">
  <ele>-0.098</ele>
  <time>2026-09-02T22:07:25Z</time>
  <course>11.22</course>
  <speed>0.7247068372797375</speed>
  <fix>3d</fix>
</trkpt>
<trkpt lat="33.8102335" lon="-118.3939689">
  <ele>-0.098</ele>
  <time>2026-09-02T22:07:25Z</time>
  <course>11.22</course>
  <speed>0.7247068372797375</speed>
  <fix>3d</fix>
</trkpt>
<trkpt lat="33.8102335" lon="-118.3939689">
  <ele>-0.098</ele>
  <time>2026-09-02T22:07:25Z</time>
  <course>11.22</course>
  <speed>0.7247068372797375</speed>
  <fix>3d</fix>
</trkpt>
<trkpt lat="33.8102335" lon="-118.3939688">
  <ele>-0.098</ele>
  <time>2026-09-02T22:07:25Z</time>
  <course>11.22</course>
  <speed>0.7247068372797375</speed>
  <fix>3d</fix>
</trkpt>
<trkpt lat="33.8102336" lon="-118.3939688">
  <ele>-0.098</ele>
  <time>2026-09-02T22:07:25Z</time>
  <course>11.22</course>
  <speed>0.7247068372797375</speed>
  <fix>3d</fix>
</trkpt>
<trkpt lat="33.8102336" lon="-118.3939688">
  <ele>-0.098</ele>
  <time>2026-09-02T22:07:25Z</time>
  <course>11.22</course>
  <speed>0.7247068372797375</speed>
  <fix>3d</fix>
</trkpt>
<trkpt lat="33.8102328" lon="-118.3939704">
  <ele>-0.1</ele>
  <time>2026-09-02T22:07:25Z</time>
  <course>48.01</course>
  <speed>0.73</speed>
  <fix>3d</fix>
</trkpt>
<trkpt lat="33.8102336" lon="-118.3939687">
  <ele>-0.098</ele>
  <time>2026-09-02T22:07:25Z</time>
  <course>11.22</course>
  <speed>0.7247068372797375</speed>
  <fix>3d</fix>
</trkpt>
<trkpt lat="33.8102337" lon="-118.3939686">
  <ele>-0.097</ele>
  <time>2026-09-02T22:07:25Z</time>
  <course>11.22</course>
  <speed>0.7247068372797375</speed>
  <fix>3d</fix>
</trkpt>
<trkpt lat="33.8102337" lon="-118.3939686">
  <ele>-0.097</ele>
  <time>2026-09-02T22:07:25Z</time>
  <course>11.22</course>
  <speed>0.7247068372797375</speed>
  <fix>3d</fix>
</trkpt>
<trkpt lat="33.8102338" lon="-118.3939685">
  <ele>-0.097</ele>
  <time>2026-09-02T22:07:25Z</time>
  <course>11.22</course>
  <speed>0.7247068372797375</speed>
  <fix>3d</fix>
</trkpt>
<trkpt lat="33.8102338" lon="-118.3939685">
  <ele>-0.097</ele>
  <time>2026-09-02T22:07:25Z</time>
  <course>11.22</course>
  <speed>0.7247068372797375</speed>
  <fix>3d</fix>
</trkpt>
<trkpt lat="33.8102338" lon="-118.3939684">
  <ele>-0.097</ele>
  <time>2026-09-02T22:07:25Z</time>
  <course>11.22</course>
  <speed>0.7247068372797375</speed>
  <fix>3d</fix>
</trkpt>
<trkpt lat="33.8102339" lon="-118.3939684">
  <ele>-0.097</ele>
  <time>2026-09-02T22:07:25Z</time>
  <course>11.22</course>
  <speed>0.7247068372797375</speed>
  <fix>3d</fix>
</trkpt>
<trkpt lat="33.8102339" lon="-118.3939683">
  <ele>-0.097</ele>
  <time>2026-09-02T22:07:25Z</time>
  <course>11.22</course>
  <speed>0.7247068372797375</speed>
  <fix>3d</fix>
</trkpt>
<trkpt lat="33.8102339" lon="-118.3939683">
  <ele>-0.097</ele>
  <time>2026-09-02T22:07:25Z</time>
  <course>11.22</course>
  <speed>0.7247068372797375</speed>
  <fix>3d</fix>
</trkpt>
<trkpt lat="33.810234" lon="-118.3939683">
  <ele>-0.097</ele>
  <time>2026-09-02T22:07:25Z</time>
  <course>11.22</course>
  <speed>0.7247068372797375</speed>
  <fix>3d</fix>
</trkpt>
<trkpt lat="33.810234" lon="-118.3939682">
  <ele>-0.097</ele>
  <time>2026-09-02T22:07:25Z</time>
  <course>11.22</course>
  <speed>0.7247068372797375</speed>
  <fix>3d</fix>
</trkpt>
<trkpt lat="33.810234" lon="-118.3939682">
  <ele>-0.097</ele>
  <time>2026-09-02T22:07:25Z</time>
  <course>11.23</course>
  <speed>0.7247068372797375</speed>
  <fix>3d</fix>
</trkpt>
<trkpt lat="33.810234" lon="-118.3939682">
  <ele>-0.097</ele>
  <time>2026-09-02T22:07:25Z</time>
  <course>11.23</course>
  <speed>0.7247068372797375</speed>
  <fix>3d</fix>
</trkpt>
<trkpt lat="33.8102337" lon="-118.3939691">
  <ele>-0.1</ele>
  <time>2026-09-02T22:07:25Z</time>
  <course>48.02</course>
  <speed>0.73</speed>
  <fix>3d</fix>
</trkpt>
<trkpt lat="33.8102341" lon="-118.3939681">
  <ele>-0.097</ele>
  <time>2026-09-02T22:07:25Z</time>
  <course>11.23</course>
  <speed>0.7247068372797375</speed>
  <fix>3d</fix>
</trkpt>
<trkpt lat="33.8102341" lon="-118.393968">
  <ele>-0.097</ele>
  <time>2026-09-02T22:07:25Z</time>
  <course>11.23</course>
  <speed>0.7247068372797375</speed>
  <fix>3d</fix>
</trkpt>
<trkpt lat="33.8102342" lon="-118.393968">
  <ele>-0.097</ele>
  <time>2026-09-02T22:07:25Z</time>
  <course>11.23</course>
  <speed>0.7247068372797375</speed>
  <fix>3d</fix>
</trkpt>
<trkpt lat="33.8102342" lon="-118.3939679">
  <ele>-0.097</ele>
  <time>2026-09-02T22:07:25Z</time>
  <course>11.23</course>
  <speed>0.7247068372797375</speed>
  <fix>3d</fix>
</trkpt>
<trkpt lat="33.8102343" lon="-118.3939679">
  <ele>-0.098</ele>
  <time>2026-09-02T22:07:25Z</time>
  <course>11.23</course>
  <speed>0.7247068372797375</speed>
  <fix>3d</fix>
</trkpt>
<trkpt lat="33.8102343" lon="-118.3939678">
  <ele>-0.097</ele>
  <time>2026-09-02T22:07:25Z</time>
  <course>11.23</course>
  <speed>0.7247068372797375</speed>
  <fix>3d</fix>
</trkpt>
<trkpt lat="33.8102343" lon="-118.3939678">
  <ele>-0.098</ele>
  <time>2026-09-02T22:07:25Z</time>
  <course>11.23</course>
  <speed>0.7247068372797375</speed>
  <fix>3d</fix>
</trkpt>
<trkpt lat="33.8102344" lon="-118.3939677">
  <ele>-0.098</ele>
  <time>2026-09-02T22:07:25Z</time>
  <course>11.23</course>
  <speed>0.7247068372797375</speed>
  <fix>3d</fix>
</trkpt>
<trkpt lat="33.8102344" lon="-118.3939677">
  <ele>-0.098</ele>
  <time>2026-09-02T22:07:25Z</time>
  <course>11.23</course>
  <speed>0.7247068372797375</speed>
  <fix>3d</fix>
</trkpt>
<trkpt lat="33.8102345" lon="-118.3939676">
  <ele>-0.098</ele>
  <time>2026-09-02T22:07:25Z</time>
  <course>11.23</course>
  <speed>0.7247068372797375</speed>
  <fix>3d</fix>
</trkpt>
<trkpt lat="33.8102345" lon="-118.3939676">
  <ele>-0.098</ele>
  <time>2026-09-02T22:07:25Z</time>
  <course>11.23</course>
  <speed>0.7247068372797375</speed>
  <fix>3d</fix>
</trkpt>
<trkpt lat="33.8102337" lon="-118.3939691">
  <ele>-0.1</ele>
  <time>2026-09-02T22:07:25Z</time>
  <course>48.02</course>
  <speed>0.73</speed>
  <fix>3d</fix>
</trkpt>
<trkpt lat="33.8102345" lon="-118.3939676">
  <ele>-0.098</ele>
  <time>2026-09-02T22:07:25Z</time>
  <course>11.23</course>
  <speed>0.7247068372797375</speed>
  <fix>3d</fix>
</trkpt>
<trkpt lat="33.8102346" lon="-118.3939675">
  <ele>-0.098</ele>
  <time>2026-09-02T22:07:25Z</time>
  <course>11.23</course>
  <speed>0.7247068372797375</speed>
  <fix>3d</fix>
</trkpt>
<trkpt lat="33.8102346" lon="-118.3939674">
  <ele>-0.098</ele>
  <time>2026-09-02T22:07:25Z</time>
  <course>11.23</course>
  <speed>0.7247068372797375</speed>
  <fix>3d</fix>
</trkpt>
<trkpt lat="33.8102346" lon="-118.3939674">
  <ele>-0.099</ele>
  <time>2026-09-02T22:07:25Z</time>
  <course>11.23</course>
  <speed>0.7247068372797375</speed>
  <fix>3d</fix>
</trkpt>
<trkpt lat="33.8102347" lon="-118.3939673">
  <ele>-0.099</ele>
  <time>2026-09-02T22:07:25Z</time>
  <course>11.23</course>
  <speed>0.7247068372797375</speed>
  <fix>3d</fix>
</trkpt>
<trkpt lat="33.8102347" lon="-118.3939673">
  <ele>-0.099</ele>
  <time>2026-09-02T22:07:25Z</time>
  <course>11.23</course>
  <speed>0.7247068372797375</speed>
  <fix>3d</fix>
</trkpt>
<trkpt lat="33.8102347" lon="-118.3939672">
  <ele>-0.099</ele>
  <time>2026-09-02T22:07:25Z</time>
  <course>11.23</course>
  <speed>0.7247068372797375</speed>
  <fix>3d</fix>
</trkpt>
<trkpt lat="33.8102348" lon="-118.3939672">
  <ele>-0.099</ele>
  <time>2026-09-02T22:07:25Z</time>
  <course>11.23</course>
  <speed>0.7247068372797375</speed>
  <fix>3d</fix>
</trkpt>
<trkpt lat="33.8102348" lon="-118.3939671">
  <ele>-0.099</ele>
  <time>2026-09-02T22:07:25Z</time>
  <course>11.23</course>
  <speed>0.7247068372797375</speed>
  <fix>3d</fix>
</trkpt>
<trkpt lat="33.8102348" lon="-118.3939671">
  <ele>-0.099</ele>
  <time>2026-09-02T22:07:25Z</time>
  <course>11.23</course>
  <speed>0.7247068372797375</speed>
  <fix>3d</fix>
</trkpt>
<trkpt lat="33.8102349" lon="-118.393967">
  <ele>-0.099</ele>
  <time>2026-09-02T22:07:25Z</time>
  <course>11.24</course>
  <speed>0.7247068372797375</speed>
  <fix>3d</fix>
</trkpt>
<trkpt lat="33.8102349" lon="-118.393967">
  <ele>-0.099</ele>
  <time>2026-09-02T22:07:25Z</time>
  <course>11.24</course>
  <speed>0.7247068372797375</speed>
  <fix>3d</fix>
</trkpt>
<trkpt lat="33.8102349" lon="-118.393967">
  <ele>-0.099</ele>
  <time>2026-09-02T22:07:25Z</time>
  <course>11.24</course>
  <speed>0.7247068372797375</speed>
  <fix>3d</fix>
</trkpt>
<trkpt lat="33.8102345" lon="-118.393968">
  <ele>-0.1</ele>
  <time>2026-09-02T22:07:25Z</time>
  <course>48.03</course>
  <speed>0.73</speed>
  <fix>3d</fix>
</trkpt>
<trkpt lat="33.8102349" lon="-118.393967">
  <ele>-0.099</ele>
  <time>2026-09-02T22:07:25Z</time>
  <course>11.24</course>
  <speed>0.7247068372797375</speed>
  <fix>3d</fix>
</trkpt>
<trkpt lat="33.810235" lon="-118.3939669">
  <ele>-0.1</ele>
  <time>2026-09-02T22:07:25Z</time>
  <course>11.24</course>
  <speed>0.7247068372797375</speed>
  <fix>3d</fix>
</trkpt>
<trkpt lat="33.8102351" lon="-118.3939668">
  <ele>-0.1</ele>
  <time>2026-09-02T22:07:25Z</time>
  <course>11.24</course>
  <speed>0.7247068372797375</speed>
  <fix>3d</fix>
</trkpt>
<trkpt lat="33.8102351" lon="-118.3939667">
  <ele>-0.1</ele>
  <time>2026-09-02T22:07:25Z</time>
  <course>11.24</course>
  <speed>0.7247068372797375</speed>
  <fix>3d</fix>
</trkpt>
<trkpt lat="33.8102351" lon="-118.3939667">
  <ele>-0.1</ele>
  <time>2026-09-02T22:07:25Z</time>
  <course>11.24</course>
  <speed>0.7247068372797375</speed>
  <fix>3d</fix>
</trkpt>
<trkpt lat="33.8102352" lon="-118.3939667">
  <ele>-0.1</ele>
  <time>2026-09-02T22:07:25Z</time>
  <course>11.24</course>
  <speed>0.7247068372797375</speed>
  <fix>3d</fix>
</trkpt>
<trkpt lat="33.8102352" lon="-118.3939666">
  <ele>-0.1</ele>
  <time>2026-09-02T22:07:25Z</time>
  <course>11.24</course>
  <speed>0.7247068372797375</speed>
  <fix>3d</fix>
</trkpt>
<trkpt lat="33.8102352" lon="-118.3939666">
  <ele>-0.1</ele>
  <time>2026-09-02T22:07:25Z</time>
  <course>11.24</course>
  <speed>0.7247068372797375</speed>
  <fix>3d</fix>
</trkpt>
<trkpt lat="33.8102353" lon="-118.3939665">
  <ele>-0.1</ele>
  <time>2026-09-02T22:07:25Z</time>
  <course>11.24</course>
  <speed>0.7247068372797375</speed>
  <fix>3d</fix>
</trkpt>
<trkpt lat="33.8102353" lon="-118.3939665">
  <ele>-0.1</ele>
  <time>2026-09-02T22:07:25Z</time>
  <course>11.24</course>
  <speed>0.7247068372797375</speed>
  <fix>3d</fix>
</trkpt>
<trkpt lat="33.8102353" lon="-118.3939664">
  <ele>-0.1</ele>
  <time>2026-09-02T22:07:25Z</time>
  <course>11.24</course>
  <speed>0.7247068372797375</speed>
  <fix>3d</fix>
</trkpt>
<trkpt lat="33.8102354" lon="-118.3939664">
  <ele>-0.1</ele>
  <time>2026-09-02T22:07:25Z</time>
  <course>11.24</course>
  <speed>0.7247068372797375</speed>
  <fix>3d</fix>
</trkpt>
<trkpt lat="33.8102345" lon="-118.393968">
  <ele>-0.1</ele>
  <time>2026-09-02T22:07:25Z</time>
  <course>48.03</course>
  <speed>0.73</speed>
  <fix>3d</fix>
</trkpt>
<trkpt lat="33.8102354" lon="-118.3939664">
  <ele>-0.1</ele>
  <time>2026-09-02T22:07:25Z</time>
  <course>11.24</course>
  <speed>0.7247068372797375</speed>
  <fix>3d</fix>
</trkpt>
<trkpt lat="33.8102354" lon="-118.3939663">
  <ele>-0.1</ele>
  <time>2026-09-02T22:07:25Z</time>
  <course>11.24</course>
  <speed>0.7247068372797375</speed>
  <fix>3d</fix>
</trkpt>
<trkpt lat="33.8102355" lon="-118.3939662">
  <ele>-0.101</ele>
  <time>2026-09-02T22:07:25Z</time>
  <course>11.24</course>
  <speed>0.7247068372797375</speed>
  <fix>3d</fix>
</trkpt>
<trkpt lat="33.8102355" lon="-118.3939662">
  <ele>-0.101</ele>
  <time>2026-09-02T22:07:25Z</time>
  <course>11.24</course>
  <speed>0.7247068372797375</speed>
  <fix>3d</fix>
</trkpt>
<trkpt lat="33.8102356" lon="-118.3939661">
  <ele>-0.101</ele>
  <time>2026-09-02T22:07:25Z</time>
  <course>11.24</course>
  <speed>0.7247068372797375</speed>
  <fix>3d</fix>
</trkpt>
<trkpt lat="33.8102356" lon="-118.3939661">
  <ele>-0.101</ele>
  <time>2026-09-02T22:07:25Z</time>
  <course>11.24</course>
  <speed>0.7247068372797375</speed>
  <fix>3d</fix>
</trkpt>
<trkpt lat="33.8102356" lon="-118.393966">
  <ele>-0.101</ele>
  <time>2026-09-02T22:07:25Z</time>
  <course>11.24</course>
  <speed>0.7247068372797375</speed>
  <fix>3d</fix>
</trkpt>
<trkpt lat="33.8102357" lon="-118.393966">
  <ele>-0.101</ele>
  <time>2026-09-02T22:07:25Z</time>
  <course>11.24</course>
  <speed>0.7247068372797375</speed>
  <fix>3d</fix>
</trkpt>
<trkpt lat="33.8102357" lon="-118.3939659">
  <ele>-0.101</ele>
  <time>2026-09-02T22:07:25Z</time>
  <course>11.25</course>
  <speed>0.7247068372797375</speed>
  <fix>3d</fix>
</trkpt>
<trkpt lat="33.8102358" lon="-118.3939659">
  <ele>-0.101</ele>
  <time>2026-09-02T22:07:25Z</time>
  <course>11.25</course>
  <speed>0.7247068372797375</speed>
  <fix>3d</fix>
</trkpt>
<trkpt lat="33.8102358" lon="-118.3939658">
  <ele>-0.101</ele>
  <time>2026-09-02T22:07:25Z</time>
  <course>11.25</course>
  <speed>0.7247068372797375</speed>
  <fix>3d</fix>
</trkpt>
<trkpt lat="33.8102358" lon="-118.3939658">
  <ele>-0.101</ele>
  <time>2026-09-02T22:07:25Z</time>
  <course>11.25</course>
  <speed>0.7247068372797375</speed>
  <fix>3d</fix>
</trkpt>
<trkpt lat="33.8102354" lon="-118.3939667">
  <ele>-0.1</ele>
  <time>2026-09-02T22:07:25Z</time>
  <course>48.04</course>
  <speed>0.73</speed>
  <fix>3d</fix>
</trkpt>
<trkpt lat="33.8102358" lon="-118.3939658">
  <ele>-0.101</ele>
  <time>2026-09-02T22:07:25Z</time>
  <course>11.25</course>
  <speed>0.7247068372797375</speed>
  <fix>3d</fix>
</trkpt>
<trkpt lat="33.8102359" lon="-118.3939657">
  <ele>-0.101</ele>
  <time>2026-09-02T22:07:25Z</time>
  <course>11.25</course>
  <speed>0.7247068372797375</speed>
  <fix>3d</fix>
</trkpt>
<trkpt lat="33.8102359" lon="-118.3939656">
  <ele>-0.101</ele>
  <time>2026-09-02T22:07:25Z</time>
  <course>11.25</course>
  <speed>0.7247068372797375</speed>
  <fix>3d</fix>
</trkpt>
<trkpt lat="33.810236" lon="-118.3939656">
  <ele>-0.101</ele>
  <time>2026-09-02T22:07:25Z</time>
  <course>11.25</course>
  <speed>0.7247068372797375</speed>
  <fix>3d</fix>
</trkpt>
<trkpt lat="33.810236" lon="-118.3939655">
  <ele>-0.101</ele>
  <time>2026-09-02T22:07:25Z</time>
  <course>11.25</course>
  <speed>0.7247068372797375</speed>
  <fix>3d</fix>
</trkpt>
<trkpt lat="33.810236" lon="-118.3939655">
  <ele>-0.101</ele>
  <time>2026-09-02T22:07:25Z</time>
  <course>11.25</course>
  <speed>0.7247068372797375</speed>
  <fix>3d</fix>
</trkpt>
<trkpt lat="33.8102361" lon="-118.3939654">
  <ele>-0.101</ele>
  <time>2026-09-02T22:07:25Z</time>
  <course>11.25</course>
  <speed>0.7247068372797375</speed>
  <fix>3d</fix>
</trkpt>
<trkpt lat="33.8102361" lon="-118.3939654">
  <ele>-0.101</ele>
  <time>2026-09-02T22:07:25Z</time>
  <course>11.25</course>
  <speed>0.7247068372797375</speed>
  <fix>3d</fix>
</trkpt>
<trkpt lat="33.8102361" lon="-118.3939653">
  <ele>-0.102</ele>
  <time>2026-09-02T22:07:25Z</time>
  <course>11.25</course>
  <speed>0.7247068372797375</speed>
  <fix>3d</fix>
</trkpt>
<trkpt lat="33.8102362" lon="-118.3939653">
  <ele>-0.102</ele>
  <time>2026-09-02T22:07:25Z</time>
  <course>11.25</course>
  <speed>0.7247068372797375</speed>
  <fix>3d</fix>
</trkpt>
<trkpt lat="33.8102362" lon="-118.3939652">
  <ele>-0.102</ele>
  <time>2026-09-02T22:07:25Z</time>
  <course>11.25</course>
  <speed>0.7247068372797375</speed>
  <fix>3d</fix>
</trkpt>
<trkpt lat="33.8102362" lon="-118.3939652">
  <ele>-0.102</ele>
  <time>2026-09-02T22:07:25Z</time>
  <course>11.25</course>
  <speed>0.7247068372797375</speed>
  <fix>3d</fix>
</trkpt>
<trkpt lat="33.8102354" lon="-118.3939667">
  <ele>-0.1</ele>
  <time>2026-09-02T22:07:25Z</time>
  <course>48.04</course>
  <speed>0.73</speed>
  <fix>3d</fix>
</trkpt>
<trkpt lat="33.8102362" lon="-118.3939652">
  <ele>-0.102</ele>
  <time>2026-09-02T22:07:25Z</time>
  <course>11.25</course>
  <speed>0.7247068372797375</speed>
  <fix>3d</fix>
</trkpt>
<trkpt lat="33.8102363" lon="-118.3939651">
  <ele>-0.102</ele>
  <time>2026-09-02T22:07:25Z</time>
  <course>11.25</course>
  <speed>0.7247068372797375</speed>
  <fix>3d</fix>
</trkpt>
<trkpt lat="33.8102364" lon="-118.393965">
  <ele>-0.102</ele>
  <time>2026-09-02T22:07:25Z</time>
  <course>11.25</course>
  <speed>0.7247068372797375</speed>
  <fix>3d</fix>
</trkpt>
<trkpt lat="33.8102364" lon="-118.393965">
  <ele>-0.102</ele>
  <time>2026-09-02T22:07:25Z</time>
  <course>11.25</course>
  <speed>0.7247068372797375</speed>
  <fix>3d</fix>
</trkpt>
<trkpt lat="33.8102364" lon="-118.3939649">
  <ele>-0.102</ele>
  <time>2026-09-02T22:07:25Z</time>
  <course>11.25</course>
  <speed>0.7247068372797375</speed>
  <fix>3d</fix>
</trkpt>
<trkpt lat="33.8102365" lon="-118.3939649">
  <ele>-0.102</ele>
  <time>2026-09-02T22:07:25Z</time>
  <course>11.25</course>
  <speed>0.7247068372797375</speed>
  <fix>3d</fix>
</trkpt>
<trkpt lat="33.8102365" lon="-118.3939648">
  <ele>-0.102</ele>
  <time>2026-09-02T22:07:25Z</time>
  <course>11.26</course>
  <speed>0.7247068372797375</speed>
  <fix>3d</fix>
</trkpt>
<trkpt lat="33.8102365" lon="-118.3939648">
  <ele>-0.102</ele>
  <time>2026-09-02T22:07:25Z</time>
  <course>11.26</course>
  <speed>0.7247068372797375</speed>
  <fix>3d</fix>
</trkpt>
<trkpt lat="33.8102366" lon="-118.3939647">
  <ele>-0.102</ele>
  <time>2026-09-02T22:07:25Z</time>
  <course>11.26</course>
  <speed>0.7247068372797375</speed>
  <fix>3d</fix>
</trkpt>
<trkpt lat="33.8102366" lon="-118.3939647">
  <ele>-0.102</ele>
  <time>2026-09-02T22:07:25Z</time>
  <course>11.26</course>
  <speed>0.7247068372797375</speed>
  <fix>3d</fix>
</trkpt>
<trkpt lat="33.8102367" lon="-118.3939646">
  <ele>-0.102</ele>
  <time>2026-09-02T22:07:25Z</time>
  <course>11.26</course>
  <speed>0.7247068372797375</speed>
  <fix>3d</fix>
</trkpt>
<trkpt lat="33.8102367" lon="-118.3939646">
  <ele>-0.103</ele>
  <time>2026-09-02T22:07:25Z</time>
  <course>11.26</course>
  <speed>0.7247068372797375</speed>
  <fix>3d</fix>
</trkpt>
<trkpt lat="33.8102363" lon="-118.3939656">
  <ele>-0.1</ele>
  <time>2026-09-02T22:07:25Z</time>
  <course>48.05</course>
  <speed>0.73</speed>
  <fix>3d</fix>
</trkpt>
<trkpt lat="33.8102367" lon="-118.3939646">
  <ele>-0.103</ele>
  <time>2026-09-02T22:07:25Z</time>
  <course>11.26</course>
  <speed>0.7247068372797375</speed>
  <fix>3d</fix>
</trkpt>
<trkpt lat="33.8102368" lon="-118.3939645">
  <ele>-0.103</ele>
  <time>2026-09-02T22:07:25Z</time>
  <course>11.26</course>
  <speed>0.7247068372797375</speed>
  <fix>3d</fix>
</trkpt>
<trkpt lat="33.8102368" lon="-118.3939644">
  <ele>-0.103</ele>
  <time>2026-09-02T22:07:25Z</time>
  <course>11.26</course>
  <speed>0.7247068372797375</speed>
  <fix>3d</fix>
</trkpt>
<trkpt lat="33.8102368" lon="-118.3939644">
  <ele>-0.103</ele>
  <time>2026-09-02T22:07:25Z</time>
  <course>11.26</course>
  <speed>0.7247068372797375</speed>
  <fix>3d</fix>
</trkpt>
<trkpt lat="33.8102369" lon="-118.3939643">
  <ele>-0.103</ele>
  <time>2026-09-02T22:07:25Z</time>
  <course>11.26</course>
  <speed>0.7247068372797375</speed>
  <fix>3d</fix>
</trkpt>
<trkpt lat="33.8102369" lon="-118.3939643">
  <ele>-0.103</ele>
  <time>2026-09-02T22:07:25Z</time>
  <course>11.26</course>
  <speed>0.7247068372797375</speed>
  <fix>3d</fix>
</trkpt>
<trkpt lat="33.810237" lon="-118.3939642">
  <ele>-0.104</ele>
  <time>2026-09-02T22:07:25Z</time>
  <course>11.26</course>
  <speed>0.7247068372797375</speed>
  <fix>3d</fix>
</trkpt>
<trkpt lat="33.810237" lon="-118.3939642">
  <ele>-0.104</ele>
  <time>2026-09-02T22:07:25Z</time>
  <course>11.26</course>
  <speed>0.7247068372797375</speed>
  <fix>3d</fix>
</trkpt>
<trkpt lat="33.810237" lon="-118.3939641">
  <ele>-0.104</ele>
  <time>2026-09-02T22:07:25Z</time>
  <course>11.26</course>
  <speed>0.7247068372797375</speed>
  <fix>3d</fix>
</trkpt>
<trkpt lat="33.8102371" lon="-118.3939641">
  <ele>-0.104</ele>
  <time>2026-09-02T22:07:25Z</time>
  <course>11.26</course>
  <speed>0.7247068372797375</speed>
  <fix>3d</fix>
</trkpt>
<trkpt lat="33.8102371" lon="-118.393964">
  <ele>-0.104</ele>
  <time>2026-09-02T22:07:25Z</time>
  <course>11.26</course>
  <speed>0.7247068372797375</speed>
  <fix>3d</fix>
</trkpt>
<trkpt lat="33.8102371" lon="-118.393964">
  <ele>-0.105</ele>
  <time>2026-09-02T22:07:25Z</time>
  <course>11.26</course>
  <speed>0.7247068372797375</speed>
  <fix>3d</fix>
</trkpt>
<trkpt lat="33.8102363" lon="-118.3939656">
  <ele>-0.1</ele>
  <time>2026-09-02T22:07:25Z</time>
  <course>48.05</course>
  <speed>0.73</speed>
  <fix>3d</fix>
</trkpt>
<trkpt lat="33.8102371" lon="-118.393964">
  <ele>-0.104</ele>
  <time>2026-09-02T22:07:25Z</time>
  <course>11.26</course>
  <speed>0.7247068372797375</speed>
  <fix>3d</fix>
</trkpt>
<trkpt lat="33.8102374" lon="-118.3939637">
  <ele>-0.105</ele>
  <time>2026-09-02T22:07:25Z</time>
  <course>11.27</course>
  <speed>0.7247068372797375</speed>
  <fix>3d</fix>
</trkpt>
<trkpt lat="33.8102374" lon="-118.3939636">
  <ele>-0.105</ele>
  <time>2026-09-02T22:07:25Z</time>
  <course>11.27</course>
  <speed>0.7247068372797375</speed>
  <fix>3d</fix>
</trkpt>
<trkpt lat="33.8102374" lon="-118.3939636">
  <ele>-0.106</ele>
  <time>2026-09-02T22:07:25Z</time>
  <course>11.27</course>
  <speed>0.7247068372797375</speed>
  <fix>3d</fix>
</trkpt>
<trkpt lat="33.8102375" lon="-118.3939636">
  <ele>-0.106</ele>
  <time>2026-09-02T22:07:25Z</time>
  <course>11.27</course>
  <speed>0.7247068372797375</speed>
  <fix>3d</fix>
</trkpt>
<trkpt lat="33.8102375" lon="-118.3939635">
  <ele>-0.106</ele>
  <time>2026-09-02T22:07:25Z</time>
  <course>11.27</course>
  <speed>0.7247068372797375</speed>
  <fix>3d</fix>
</trkpt>
<trkpt lat="33.8102375" lon="-118.3939635">
  <ele>-0.106</ele>
  <time>2026-09-02T22:07:25Z</time>
  <course>11.27</course>
  <speed>0.7247068372797375</speed>
  <fix>3d</fix>
</trkpt>
<trkpt lat="33.8102376" lon="-118.3939634">
  <ele>-0.106</ele>
  <time>2026-09-02T22:07:25Z</time>
  <course>11.27</course>
  <speed>0.7247068372797375</speed>
  <fix>3d</fix>
</trkpt>
<trkpt lat="33.8102376" lon="-118.3939634">
  <ele>-0.106</ele>
  <time>2026-09-02T22:07:25Z</time>
  <course>11.27</course>
  <speed>0.7247068372797375</speed>
  <fix>3d</fix>
</trkpt>
<trkpt lat="33.8102372" lon="-118.3939644">
  <ele>-0.1</ele>
  <time>2026-09-02T22:07:25Z</time>
  <course>48.06</course>
  <speed>0.73</speed>
  <fix>3d</fix>
</trkpt>
<trkpt lat="33.8102376" lon="-118.3939633">
  <ele>-0.106</ele>
  <time>2026-09-02T22:07:25Z</time>
  <course>11.27</course>
  <speed>0.7247068372797375</speed>
  <fix>3d</fix>
</trkpt>
<trkpt lat="33.8102377" lon="-118.3939633">
  <ele>-0.107</ele>
  <time>2026-09-02T22:07:25Z</time>
  <course>11.27</course>
  <speed>0.7247068372797375</speed>
  <fix>3d</fix>
</trkpt>
<trkpt lat="33.8102377" lon="-118.3939632">
  <ele>-0.107</ele>
  <time>2026-09-02T22:07:25Z</time>
  <course>11.27</course>
  <speed>0.7247068372797375</speed>
  <fix>3d</fix>
</trkpt>
<trkpt lat="33.8102378" lon="-118.3939631">
  <ele>-0.107</ele>
  <time>2026-09-02T22:07:25Z</time>
  <course>11.27</course>
  <speed>0.7247068372797375</speed>
  <fix>3d</fix>
</trkpt>
<trkpt lat="33.8102378" lon="-118.3939631">
  <ele>-0.107</ele>
  <time>2026-09-02T22:07:25Z</time>
  <course>11.27</course>
  <speed>0.7247068372797375</speed>
  <fix>3d</fix>
</trkpt>
<trkpt lat="33.8102378" lon="-118.3939631">
  <ele>-0.107</ele>
  <time>2026-09-02T22:07:25Z</time>
  <course>11.27</course>
  <speed>0.7247068372797375</speed>
  <fix>3d</fix>
</trkpt>
<trkpt lat="33.8102379" lon="-118.393963">
  <ele>-0.108</ele>
  <time>2026-09-02T22:07:25Z</time>
  <course>11.27</course>
  <speed>0.7247068372797375</speed>
  <fix>3d</fix>
</trkpt>
<trkpt lat="33.8102379" lon="-118.393963">
  <ele>-0.108</ele>
  <time>2026-09-02T22:07:25Z</time>
  <course>11.27</course>
  <speed>0.7247068372797375</speed>
  <fix>3d</fix>
</trkpt>
<trkpt lat="33.8102379" lon="-118.3939629">
  <ele>-0.108</ele>
  <time>2026-09-02T22:07:25Z</time>
  <course>11.27</course>
  <speed>0.7247068372797375</speed>
  <fix>3d</fix>
</trkpt>
<trkpt lat="33.810238" lon="-118.3939628">
  <ele>-0.108</ele>
  <time>2026-09-02T22:07:25Z</time>
  <course>11.27</course>
  <speed>0.7247068372797375</speed>
  <fix>3d</fix>
</trkpt>
<trkpt lat="33.810238" lon="-118.3939628">
  <ele>-0.108</ele>
  <time>2026-09-02T22:07:25Z</time>
  <course>11.27</course>
  <speed>0.7247068372797375</speed>
  <fix>3d</fix>
</trkpt>
<trkpt lat="33.8102372" lon="-118.3939644">
  <ele>-0.1</ele>
  <time>2026-09-02T22:07:25Z</time>
  <course>48.06</course>
  <speed>0.73</speed>
  <fix>3d</fix>
</trkpt>
<trkpt lat="33.810238" lon="-118.3939628">
  <ele>-0.108</ele>
  <time>2026-09-02T22:07:25Z</time>
  <course>11.27</course>
  <speed>0.7247068372797375</speed>
  <fix>3d</fix>
</trkpt>
<trkpt lat="33.8102381" lon="-118.3939627">
  <ele>-0.109</ele>
  <time>2026-09-02T22:07:25Z</time>
  <course>11.27</course>
  <speed>0.7247068372797375</speed>
  <fix>3d</fix>
</trkpt>
<trkpt lat="33.8102381" lon="-118.3939627">
  <ele>-0.109</ele>
  <time>2026-09-02T22:07:25Z</time>
  <course>11.27</course>
  <speed>0.7247068372797375</speed>
  <fix>3d</fix>
</trkpt>
<trkpt lat="33.8102382" lon="-118.3939626">
  <ele>-0.109</ele>
  <time>2026-09-02T22:07:25Z</time>
  <course>11.27</course>
  <speed>0.7247068372797375</speed>
  <fix>3d</fix>
</trkpt>
<trkpt lat="33.8102382" lon="-118.3939626">
  <ele>-0.109</ele>
  <time>2026-09-02T22:07:25Z</time>
  <course>11.27</course>
  <speed>0.7247068372797375</speed>
  <fix>3d</fix>
</trkpt>
<trkpt lat="33.8102382" lon="-118.3939625">
  <ele>-0.109</ele>
  <time>2026-09-02T22:07:25Z</time>
  <course>11.28</course>
  <speed>0.7247068372797375</speed>
  <fix>3d</fix>
</trkpt>
<trkpt lat="33.8102383" lon="-118.3939625">
  <ele>-0.109</ele>
  <time>2026-09-02T22:07:25Z</time>
  <course>11.28</course>
  <speed>0.7247068372797375</speed>
  <fix>3d</fix>
</trkpt>
<trkpt lat="33.8102383" lon="-118.3939624">
  <ele>-0.11</ele>
  <time>2026-09-02T22:07:25Z</time>
  <course>11.28</course>
  <speed>0.7247068372797375</speed>
  <fix>3d</fix>
</trkpt>
<trkpt lat="33.8102383" lon="-118.3939624">
  <ele>-0.11</ele>
  <time>2026-09-02T22:07:25Z</time>
  <course>11.28</course>
  <speed>0.7247068372797375</speed>
  <fix>3d</fix>
</trkpt>
<trkpt lat="33.8102384" lon="-118.3939623">
  <ele>-0.11</ele>
  <time>2026-09-02T22:07:25Z</time>
  <course>11.28</course>
  <speed>0.7247068372797375</speed>
  <fix>3d</fix>
</trkpt>
<trkpt lat="33.8102384" lon="-118.3939623">
  <ele>-0.11</ele>
  <time>2026-09-02T22:07:25Z</time>
  <course>11.28</course>
  <speed>0.7247068372797375</speed>
  <fix>3d</fix>
</trkpt>
<trkpt lat="33.8102385" lon="-118.3939622">
  <ele>-0.11</ele>
  <time>2026-09-02T22:07:25Z</time>
  <course>11.28</course>
  <speed>0.7247068372797375</speed>
  <fix>3d</fix>
</trkpt>
<trkpt lat="33.8102385" lon="-118.3939622">
  <ele>-0.11</ele>
  <time>2026-09-02T22:07:25Z</time>
  <course>11.28</course>
  <speed>0.7247068372797375</speed>
  <fix>3d</fix>
</trkpt>
<trkpt lat="33.8102381" lon="-118.3939633">
  <ele>-0.1</ele>
  <time>2026-09-02T22:07:25Z</time>
  <course>48.07</course>
  <speed>0.73</speed>
  <fix>3d</fix>
</trkpt>
<trkpt lat="33.8102385" lon="-118.3939621">
  <ele>-0.111</ele>
  <time>2026-09-02T22:07:25Z</time>
  <course>11.28</course>
  <speed>0.7247068372797375</speed>
  <fix>3d</fix>
</trkpt>
<trkpt lat="33.8102386" lon="-118.3939621">
  <ele>-0.111</ele>
  <time>2026-09-02T22:07:25Z</time>
  <course>11.28</course>
  <speed>0.7247068372797375</speed>
  <fix>3d</fix>
</trkpt>
<trkpt lat="33.8102386" lon="-118.393962">
  <ele>-0.111</ele>
  <time>2026-09-02T22:07:25Z</time>
  <course>11.28</course>
  <speed>0.7247068372797375</speed>
  <fix>3d</fix>
</trkpt>
<trkpt lat="33.8102387" lon="-118.3939619">
  <ele>-0.111</ele>
  <time>2026-09-02T22:07:25Z</time>
  <course>11.28</course>
  <speed>0.7247068372797375</speed>
  <fix>3d</fix>
</trkpt>
<trkpt lat="33.8102387" lon="-118.3939619">
  <ele>-0.112</ele>
  <time>2026-09-02T22:07:25Z</time>
  <course>11.28</course>
  <speed>0.7247068372797375</speed>
  <fix>3d</fix>
</trkpt>
<trkpt lat="33.8102387" lon="-118.3939619">
  <ele>-0.112</ele>
  <time>2026-09-02T22:07:25Z</time>
  <course>11.28</course>
  <speed>0.7247068372797375</speed>
  <fix>3d</fix>
</trkpt>
<trkpt lat="33.8102388" lon="-118.3939618">
  <ele>-0.112</ele>
  <time>2026-09-02T22:07:25Z</time>
  <course>11.28</course>
  <speed>0.7247068372797375</speed>
  <fix>3d</fix>
</trkpt>
<trkpt lat="33.8102388" lon="-118.3939617">
  <ele>-0.112</ele>
  <time>2026-09-02T22:07:25Z</time>
  <course>11.28</course>
  <speed>0.7247068372797375</speed>
  <fix>3d</fix>
</trkpt>
<trkpt lat="33.8102388" lon="-118.3939617">
  <ele>-0.112</ele>
  <time>2026-09-02T22:07:25Z</time>
  <course>11.28</course>
  <speed>0.7247068372797375</speed>
  <fix>3d</fix>
</trkpt>
<trkpt lat="33.8102389" lon="-118.3939617">
  <ele>-0.112</ele>
  <time>2026-09-02T22:07:25Z</time>
  <course>11.28</course>
  <speed>0.7247068372797375</speed>
  <fix>3d</fix>
</trkpt>
<trkpt lat="33.8102389" lon="-118.3939616">
  <ele>-0.113</ele>
  <time>2026-09-02T22:07:25Z</time>
  <course>11.28</course>
  <speed>0.7247068372797375</speed>
  <fix>3d</fix>
</trkpt>
<trkpt lat="33.8102381" lon="-118.3939633">
  <ele>-0.1</ele>
  <time>2026-09-02T22:07:25Z</time>
  <course>48.07</course>
  <speed>0.73</speed>
  <fix>3d</fix>
</trkpt>
<trkpt lat="33.8102389" lon="-118.3939616">
  <ele>-0.113</ele>
  <time>2026-09-02T22:07:25Z</time>
  <course>11.28</course>
  <speed>0.7247068372797375</speed>
  <fix>3d</fix>
</trkpt>
<trkpt lat="33.810239" lon="-118.3939615">
  <ele>-0.113</ele>
  <time>2026-09-02T22:07:25Z</time>
  <course>11.28</course>
  <speed>0.7247068372797375</speed>
  <fix>3d</fix>
</trkpt>
<trkpt lat="33.810239" lon="-118.3939615">
  <ele>-0.113</ele>
  <time>2026-09-02T22:07:25Z</time>
  <course>11.28</course>
  <speed>0.7247068372797375</speed>
  <fix>3d</fix>
</trkpt>
<trkpt lat="33.8102391" lon="-118.3939614">
  <ele>-0.114</ele>
  <time>2026-09-02T22:07:25Z</time>
  <course>11.28</course>
  <speed>0.7247068372797375</speed>
  <fix>3d</fix>
</trkpt>
<trkpt lat="33.8102391" lon="-118.3939614">
  <ele>-0.114</ele>
  <time>2026-09-02T22:07:25Z</time>
  <course>11.29</course>
  <speed>0.7247068372797375</speed>
  <fix>3d</fix>
</trkpt>
<trkpt lat="33.8102391" lon="-118.3939613">
  <ele>-0.114</ele>
  <time>2026-09-02T22:07:25Z</time>
  <course>11.29</course>
  <speed>0.7247068372797375</speed>
  <fix>3d</fix>
</trkpt>
<trkpt lat="33.8102392" lon="-118.3939613">
  <ele>-0.114</ele>
  <time>2026-09-02T22:07:25Z</time>
  <course>11.29</course>
  <speed>0.7247068372797375</speed>
  <fix>3d</fix>
</trkpt>
<trkpt lat="33.8102392" lon="-118.3939612">
  <ele>-0.114</ele>
  <time>2026-09-02T22:07:25Z</time>
  <course>11.29</course>
  <speed>0.7247068372797375</speed>
  <fix>3d</fix>
</trkpt>
<trkpt lat="33.8102392" lon="-118.3939612">
  <ele>-0.114</ele>
  <time>2026-09-02T22:07:25Z</time>
  <course>11.29</course>
  <speed>0.7247068372797375</speed>
  <fix>3d</fix>
</trkpt>
<trkpt lat="33.8102393" lon="-118.3939611">
  <ele>-0.115</ele>
  <time>2026-09-02T22:07:25Z</time>
  <course>11.29</course>
  <speed>0.7247068372797375</speed>
  <fix>3d</fix>
</trkpt>
<trkpt lat="33.8102393" lon="-118.3939611">
  <ele>-0.115</ele>
  <time>2026-09-02T22:07:25Z</time>
  <course>11.29</course>
  <speed>0.7247068372797375</speed>
  <fix>3d</fix>
</trkpt>
<trkpt lat="33.8102393" lon="-118.393961">
  <ele>-0.115</ele>
  <time>2026-09-02T22:07:25Z</time>
  <course>11.29</course>
  <speed>0.7247068372797375</speed>
  <fix>3d</fix>
</trkpt>
<trkpt lat="33.8102389" lon="-118.393962">
  <ele>-0.1</ele>
  <time>2026-09-02T22:07:25Z</time>
  <course>48.08</course>
  <speed>0.73</speed>
  <fix>3d</fix>
</trkpt>
<trkpt lat="33.8102393" lon="-118.393961">
  <ele>-0.115</ele>
  <time>2026-09-02T22:07:25Z</time>
  <course>11.29</course>
  <speed>0.7247068372797375</speed>
  <fix>3d</fix>
</trkpt>
<trkpt lat="33.8102394" lon="-118.393961">
  <ele>-0.115</ele>
  <time>2026-09-02T22:07:25Z</time>
  <course>11.29</course>
  <speed>0.7247068372797375</speed>
  <fix>3d</fix>
</trkpt>
<trkpt lat="33.8102394" lon="-118.3939609">
  <ele>-0.115</ele>
  <time>2026-09-02T22:07:25Z</time>
  <course>11.29</course>
  <speed>0.7247068372797375</speed>
  <fix>3d</fix>
</trkpt>
<trkpt lat="33.8102395" lon="-118.3939608">
  <ele>-0.115</ele>
  <time>2026-09-02T22:07:25Z</time>
  <course>11.29</course>
  <speed>0.7247068372797375</speed>
  <fix>3d</fix>
</trkpt>
<trkpt lat="33.8102395" lon="-118.3939608">
  <ele>-0.116</ele>
  <time>2026-09-02T22:07:25Z</time>
  <course>11.29</course>
  <speed>0.7247068372797375</speed>
  <fix>3d</fix>
</trkpt>
<trkpt lat="33.8102396" lon="-118.3939607">
  <ele>-0.116</ele>
  <time>2026-09-02T22:07:25Z</time>
  <course>11.29</course>
  <speed>0.7247068372797375</speed>
  <fix>3d</fix>
</trkpt>
<trkpt lat="33.8102396" lon="-118.3939607">
  <ele>-0.116</ele>
  <time>2026-09-02T22:07:25Z</time>
  <course>11.29</course>
  <speed>0.7247068372797375</speed>
  <fix>3d</fix>
</trkpt>
<trkpt lat="33.8102396" lon="-118.3939607">
  <ele>-0.116</ele>
  <time>2026-09-02T22:07:25Z</time>
  <course>11.29</course>
  <speed>0.7247068372797375</speed>
  <fix>3d</fix>
</trkpt>
<trkpt lat="33.8102397" lon="-118.3939606">
  <ele>-0.116</ele>
  <time>2026-09-02T22:07:25Z</time>
  <course>11.29</course>
  <speed>0.7247068372797375</speed>
  <fix>3d</fix>
</trkpt>
<trkpt lat="33.8102397" lon="-118.3939606">
  <ele>-0.116</ele>
  <time>2026-09-02T22:07:25Z</time>
  <course>11.29</course>
  <speed>0.7247068372797375</speed>
  <fix>3d</fix>
</trkpt>
<trkpt lat="33.8102397" lon="-118.3939605">
  <ele>-0.116</ele>
  <time>2026-09-02T22:07:25Z</time>
  <course>11.29</course>
  <speed>0.7247068372797375</speed>
  <fix>3d</fix>
</trkpt>
<trkpt lat="33.8102398" lon="-118.3939605">
  <ele>-0.116</ele>
  <time>2026-09-02T22:07:25Z</time>
  <course>11.29</course>
  <speed>0.7247068372797375</speed>
  <fix>3d</fix>
</trkpt>
<trkpt lat="33.8102398" lon="-118.3939605">
  <ele>-0.116</ele>
  <time>2026-09-02T22:07:25Z</time>
  <course>11.29</course>
  <speed>0.7247068372797375</speed>
  <fix>3d</fix>
</trkpt>
<trkpt lat="33.8102389" lon="-118.393962">
  <ele>-0.1</ele>
  <time>2026-09-02T22:07:25Z</time>
  <course>48.08</course>
  <speed>0.73</speed>
  <fix>3d</fix>
</trkpt>
<trkpt lat="33.8102398" lon="-118.3939604">
  <ele>-0.116</ele>
  <time>2026-09-02T22:07:25Z</time>
  <course>11.29</course>
  <speed>0.7247068372797375</speed>
  <fix>3d</fix>
</trkpt>
<trkpt lat="33.8102398" lon="-118.3939604">
  <ele>-0.117</ele>
  <time>2026-09-02T22:07:25Z</time>
  <course>11.29</course>
  <speed>0.7247068372797375</speed>
  <fix>3d</fix>
</trkpt>
<trkpt lat="33.8102399" lon="-118.3939603">
  <ele>-0.117</ele>
  <time>2026-09-02T22:07:25Z</time>
  <course>11.29</course>
  <speed>0.7247068372797375</speed>
  <fix>3d</fix>
</trkpt>
<trkpt lat="33.8102399" lon="-118.3939602">
  <ele>-0.117</ele>
  <time>2026-09-02T22:07:25Z</time>
  <course>11.3</course>
  <speed>0.7247068372797375</speed>
  <fix>3d</fix>
</trkpt>
<trkpt lat="33.81024" lon="-118.3939602">
  <ele>-0.117</ele>
  <time>2026-09-02T22:07:25Z</time>
  <course>11.3</course>
  <speed>0.7247068372797375</speed>
  <fix>3d</fix>
</trkpt>
<trkpt lat="33.81024" lon="-118.3939601">
  <ele>-0.117</ele>
  <time>2026-09-02T22:07:25Z</time>
  <course>11.3</course>
  <speed>0.7247068372797375</speed>
  <fix>3d</fix>
</trkpt>
<trkpt lat="33.81024" lon="-118.3939601">
  <ele>-0.117</ele>
  <time>2026-09-02T22:07:25Z</time>
  <course>11.3</course>
  <speed>0.7247068372797375</speed>
  <fix>3d</fix>
</trkpt>
<trkpt lat="33.8102401" lon="-118.39396">
  <ele>-0.117</ele>
  <time>2026-09-02T22:07:25Z</time>
  <course>11.3</course>
  <speed>0.7247068372797375</speed>
  <fix>3d</fix>
</trkpt>
<trkpt lat="33.8102401" lon="-118.39396">
  <ele>-0.117</ele>
  <time>2026-09-02T22:07:25Z</time>
  <course>11.3</course>
  <speed>0.7247068372797375</speed>
  <fix>3d</fix>
</trkpt>
<trkpt lat="33.8102401" lon="-118.39396">
  <ele>-0.117</ele>
  <time>2026-09-02T22:07:25Z</time>
  <course>11.3</course>
  <speed>0.7247068372797375</speed>
  <fix>3d</fix>
</trkpt>
<trkpt lat="33.8102402" lon="-118.3939599">
  <ele>-0.117</ele>
  <time>2026-09-02T22:07:25Z</time>
  <course>11.3</course>
  <speed>0.7247068372797375</speed>
  <fix>3d</fix>
</trkpt>
<trkpt lat="33.8102402" lon="-118.3939599">
  <ele>-0.117</ele>
  <time>2026-09-02T22:07:25Z</time>
  <course>11.3</course>
  <speed>0.7247068372797375</speed>
  <fix>3d</fix>
</trkpt>
<trkpt lat="33.8102402" lon="-118.3939599">
  <ele>-0.117</ele>
  <time>2026-09-02T22:07:25Z</time>
  <course>11.3</course>
  <speed>0.7247068372797375</speed>
  <fix>3d</fix>
</trkpt>
<trkpt lat="33.8102398" lon="-118.3939609">
  <ele>-0.1</ele>
  <time>2026-09-02T22:07:25Z</time>
  <course>48.09</course>
  <speed>0.73</speed>
  <fix>3d</fix>
</trkpt>
<trkpt lat="33.8102402" lon="-118.3939598">
  <ele>-0.117</ele>
  <time>2026-09-02T22:07:25Z</time>
  <course>11.3</course>
  <speed>0.7247068372797375</speed>
  <fix>3d</fix>
</trkpt>
<trkpt lat="33.8102403" lon="-118.3939598">
  <ele>-0.118</ele>
  <time>2026-09-02T22:07:25Z</time>
  <course>11.3</course>
  <speed>0.7247068372797375</speed>
  <fix>3d</fix>
</trkpt>
<trkpt lat="33.8102403" lon="-118.3939597">
  <ele>-0.118</ele>
  <time>2026-09-02T22:07:25Z</time>
  <course>11.3</course>
  <speed>0.7247068372797375</speed>
  <fix>3d</fix>
</trkpt>
<trkpt lat="33.8102404" lon="-118.3939597">
  <ele>-0.118</ele>
  <time>2026-09-02T22:07:25Z</time>
  <course>11.3</course>
  <speed>0.7247068372797375</speed>
  <fix>3d</fix>
</trkpt>
<trkpt lat="33.8102404" lon="-118.3939596">
  <ele>-0.118</ele>
  <time>2026-09-02T22:07:25Z</time>
  <course>11.3</course>
  <speed>0.7247068372797375</speed>
  <fix>3d</fix>
</trkpt>
<trkpt lat="33.8102404" lon="-118.3939596">
  <ele>-0.118</ele>
  <time>2026-09-02T22:07:25Z</time>
  <course>11.3</course>
  <speed>0.7247068372797375</speed>
  <fix>3d</fix>
</trkpt>
<trkpt lat="33.8102405" lon="-118.3939595">
  <ele>-0.118</ele>
  <time>2026-09-02T22:07:25Z</time>
  <course>11.3</course>
  <speed>0.7247068372797375</speed>
  <fix>3d</fix>
</trkpt>
<trkpt lat="33.8102405" lon="-118.3939595">
  <ele>-0.118</ele>
  <time>2026-09-02T22:07:25Z</time>
  <course>11.3</course>
  <speed>0.7247068372797375</speed>
  <fix>3d</fix>
</trkpt>
<trkpt lat="33.8102405" lon="-118.3939594">
  <ele>-0.118</ele>
  <time>2026-09-02T22:07:25Z</time>
  <course>11.3</course>
  <speed>0.7247068372797375</speed>
  <fix>3d</fix>
</trkpt>
<trkpt lat="33.8102406" lon="-118.3939594">
  <ele>-0.118</ele>
  <time>2026-09-02T22:07:25Z</time>
  <course>11.3</course>
  <speed>0.7247068372797375</speed>
  <fix>3d</fix>
</trkpt>
<trkpt lat="33.8102406" lon="-118.3939593">
  <ele>-0.118</ele>
  <time>2026-09-02T22:07:25Z</time>
  <course>11.3</course>
  <speed>0.7247068372797375</speed>
  <fix>3d</fix>
</trkpt>
<trkpt lat="33.8102406" lon="-118.3939593">
  <ele>-0.118</ele>
  <time>2026-09-02T22:07:25Z</time>
  <course>11.3</course>
  <speed>0.7247068372797375</speed>
  <fix>3d</fix>
</trkpt>
<trkpt lat="33.8102407" lon="-118.3939593">
  <ele>-0.117</ele>
  <time>2026-09-02T22:07:25Z</time>
  <course>11.3</course>
  <speed>0.7247068372797375</speed>
  <fix>3d</fix>
</trkpt>
<trkpt lat="33.8102398" lon="-118.3939609">
  <ele>-0.1</ele>
  <time>2026-09-02T22:07:25Z</time>
  <course>48.09</course>
  <speed>0.73</speed>
  <fix>3d</fix>
</trkpt>
<trkpt lat="33.8102407" lon="-118.3939593">
  <ele>-0.117</ele>
  <time>2026-09-02T22:07:25Z</time>
  <course>11.3</course>
  <speed>0.7247068372797375</speed>
  <fix>3d</fix>
</trkpt>
<trkpt lat="33.8102407" lon="-118.3939592">
  <ele>-0.117</ele>
  <time>2026-09-02T22:07:25Z</time>
  <course>11.3</course>
  <speed>0.7247068372797375</speed>
  <fix>3d</fix>
</trkpt>
<trkpt lat="33.8102408" lon="-118.3939591">
  <ele>-0.117</ele>
  <time>2026-09-02T22:07:25Z</time>
  <course>11.31</course>
  <speed>0.7247068372797375</speed>
  <fix>3d</fix>
</trkpt>
<trkpt lat="33.8102408" lon="-118.393959">
  <ele>-0.117</ele>
  <time>2026-09-02T22:07:25Z</time>
  <course>11.31</course>
  <speed>0.7247068372797375</speed>
  <fix>3d</fix>
</trkpt>
<trkpt lat="33.8102408" lon="-118.393959">
  <ele>-0.117</ele>
  <time>2026-09-02T22:07:25Z</time>
  <course>11.31</course>
  <speed>0.7247068372797375</speed>
  <fix>3d</fix>
</trkpt>
<trkpt lat="33.8102409" lon="-118.393959">
  <ele>-0.117</ele>
  <time>2026-09-02T22:07:25Z</time>
  <course>11.31</course>
  <speed>0.7247068372797375</speed>
  <fix>3d</fix>
</trkpt>
<trkpt lat="33.8102409" lon="-118.3939589">
  <ele>-0.117</ele>
  <time>2026-09-02T22:07:25Z</time>
  <course>11.31</course>
  <speed>0.7247068372797375</speed>
  <fix>3d</fix>
</trkpt>
<trkpt lat="33.810241" lon="-118.3939588">
  <ele>-0.117</ele>
  <time>2026-09-02T22:07:25Z</time>
  <course>11.31</course>
  <speed>0.7247068372797375</speed>
  <fix>3d</fix>
</trkpt>
<trkpt lat="33.810241" lon="-118.3939588">
  <ele>-0.117</ele>
  <time>2026-09-02T22:07:25Z</time>
  <course>11.31</course>
  <speed>0.7247068372797375</speed>
  <fix>3d</fix>
</trkpt>
<trkpt lat="33.810241" lon="-118.3939587">
  <ele>-0.117</ele>
  <time>2026-09-02T22:07:25Z</time>
  <course>11.31</course>
  <speed>0.7247068372797375</speed>
  <fix>3d</fix>
</trkpt>
<trkpt lat="33.8102411" lon="-118.3939587">
  <ele>-0.117</ele>
  <time>2026-09-02T22:07:25Z</time>
  <course>11.31</course>
  <speed>0.7247068372797375</speed>
  <fix>3d</fix>
</trkpt>
<trkpt lat="33.8102411" lon="-118.3939587">
  <ele>-0.117</ele>
  <time>2026-09-02T22:07:25Z</time>
  <course>11.31</course>
  <speed>0.7247068372797375</speed>
  <fix>3d</fix>
</trkpt>
<trkpt lat="33.8102407" lon="-118.3939596">
  <ele>-0.1</ele>
  <time>2026-09-02T22:07:25Z</time>
  <course>48.1</course>
  <speed>0.73</speed>
  <fix>3d</fix>
</trkpt>
<trkpt lat="33.8102411" lon="-118.3939587">
  <ele>-0.117</ele>
  <time>2026-09-02T22:07:25Z</time>
  <course>11.31</course>
  <speed>0.7247068372797375</speed>
  <fix>3d</fix>
</trkpt>
<trkpt lat="33.8102412" lon="-118.3939586">
  <ele>-0.117</ele>
  <time>2026-09-02T22:07:25Z</time>
  <course>11.31</course>
  <speed>0.7247068372797375</speed>
  <fix>3d</fix>
</trkpt>
<trkpt lat="33.8102412" lon="-118.3939585">
  <ele>-0.117</ele>
  <time>2026-09-02T22:07:25Z</time>
  <course>11.31</course>
  <speed>0.7247068372797375</speed>
  <fix>3d</fix>
</trkpt>
<trkpt lat="33.8102412" lon="-118.3939585">
  <ele>-0.117</ele>
  <time>2026-09-02T22:07:25Z</time>
  <course>11.31</course>
  <speed>0.7247068372797375</speed>
  <fix>3d</fix>
</trkpt>
<trkpt lat="33.8102413" lon="-118.3939584">
  <ele>-0.117</ele>
  <time>2026-09-02T22:07:25Z</time>
  <course>11.31</course>
  <speed>0.7247068372797375</speed>
  <fix>3d</fix>
</trkpt>
<trkpt lat="33.8102413" lon="-118.3939584">
  <ele>-0.117</ele>
  <time>2026-09-02T22:07:25Z</time>
  <course>11.31</course>
  <speed>0.7247068372797375</speed>
  <fix>3d</fix>
</trkpt>
<trkpt lat="33.8102414" lon="-118.3939583">
  <ele>-0.117</ele>
  <time>2026-09-02T22:07:25Z</time>
  <course>11.31</course>
  <speed>0.7247068372797375</speed>
  <fix>3d</fix>
</trkpt>
<trkpt lat="33.8102414" lon="-118.3939582">
  <ele>-0.116</ele>
  <time>2026-09-02T22:07:25Z</time>
  <course>11.31</course>
  <speed>0.7247068372797375</speed>
  <fix>3d</fix>
</trkpt>
<trkpt lat="33.8102414" lon="-118.3939582">
  <ele>-0.116</ele>
  <time>2026-09-02T22:07:25Z</time>
  <course>11.31</course>
  <speed>0.7247068372797375</speed>
  <fix>3d</fix>
</trkpt>
<trkpt lat="33.8102415" lon="-118.3939581">
  <ele>-0.116</ele>
  <time>2026-09-02T22:07:25Z</time>
  <course>11.31</course>
  <speed>0.7247068372797375</speed>
  <fix>3d</fix>
</trkpt>
<trkpt lat="33.8102415" lon="-118.3939581">
  <ele>-0.116</ele>
  <time>2026-09-02T22:07:25Z</time>
  <course>11.31</course>
  <speed>0.7247068372797375</speed>
  <fix>3d</fix>
</trkpt>
<trkpt lat="33.8102415" lon="-118.3939581">
  <ele>-0.116</ele>
  <time>2026-09-02T22:07:25Z</time>
  <course>11.31</course>
  <speed>0.7247068372797375</speed>
  <fix>3d</fix>
</trkpt>
<trkpt lat="33.8102407" lon="-118.3939596">
  <ele>-0.1</ele>
  <time>2026-09-02T22:07:25Z</time>
  <course>48.1</course>
  <speed>0.73</speed>
  <fix>3d</fix>
</trkpt>
<trkpt lat="33.8102416" lon="-118.393958">
  <ele>-0.116</ele>
  <time>2026-09-02T22:07:25Z</time>
  <course>11.31</course>
  <speed>0.7247068372797375</speed>
  <fix>3d</fix>
</trkpt>
<trkpt lat="33.8102416" lon="-118.3939579">
  <ele>-0.115</ele>
  <time>2026-09-02T22:07:25Z</time>
  <course>11.32</course>
  <speed>0.7247068372797375</speed>
  <fix>3d</fix>
</trkpt>
<trkpt lat="33.8102417" lon="-118.3939579">
  <ele>-0.115</ele>
  <time>2026-09-02T22:07:25Z</time>
  <course>11.32</course>
  <speed>0.7247068372797375</speed>
  <fix>3d</fix>
</trkpt>
<trkpt lat="33.8102417" lon="-118.3939578">
  <ele>-0.115</ele>
  <time>2026-09-02T22:07:25Z</time>
  <course>11.32</course>
  <speed>0.7247068372797375</speed>
  <fix>3d</fix>
</trkpt>
<trkpt lat="33.8102417" lon="-118.3939578">
  <ele>-0.115</ele>
  <time>2026-09-02T22:07:25Z</time>
  <course>11.32</course>
  <speed>0.7247068372797375</speed>
  <fix>3d</fix>
</trkpt>
<trkpt lat="33.8102418" lon="-118.3939578">
  <ele>-0.115</ele>
  <time>2026-09-02T22:07:25Z</time>
  <course>11.32</course>
  <speed>0.7247068372797375</speed>
  <fix>3d</fix>
</trkpt>
<trkpt lat="33.8102418" lon="-118.3939577">
  <ele>-0.115</ele>
  <time>2026-09-02T22:07:25Z</time>
  <course>11.32</course>
  <speed>0.7247068372797375</speed>
  <fix>3d</fix>
</trkpt>
<trkpt lat="33.8102419" lon="-118.3939576">
  <ele>-0.115</ele>
  <time>2026-09-02T22:07:25Z</time>
  <course>11.32</course>
  <speed>0.7247068372797375</speed>
  <fix>3d</fix>
</trkpt>
<trkpt lat="33.8102419" lon="-118.3939576">
  <ele>-0.115</ele>
  <time>2026-09-02T22:07:25Z</time>
  <course>11.32</course>
  <speed>0.7247068372797375</speed>
  <fix>3d</fix>
</trkpt>
<trkpt lat="33.8102419" lon="-118.3939575">
  <ele>-0.114</ele>
  <time>2026-09-02T22:07:25Z</time>
  <course>11.32</course>
  <speed>0.7247068372797375</speed>
  <fix>3d</fix>
</trkpt>
<trkpt lat="33.810242" lon="-118.3939575">
  <ele>-0.114</ele>
  <time>2026-09-02T22:07:25Z</time>
  <course>11.32</course>
  <speed>0.7247068372797375</speed>
  <fix>3d</fix>
</trkpt>
<trkpt lat="33.810242" lon="-118.3939575">
  <ele>-0.114</ele>
  <time>2026-09-02T22:07:25Z</time>
  <course>11.32</course>
  <speed>0.7247068372797375</speed>
  <fix>3d</fix>
</trkpt>
<trkpt lat="33.8102416" lon="-118.3939585">
  <ele>-0.1</ele>
  <time>2026-09-02T22:07:25Z</time>
  <course>48.11</course>
  <speed>0.73</speed>
  <fix>3d</fix>
</trkpt>
<trkpt lat="33.8102421" lon="-118.3939574">
  <ele>-0.114</ele>
  <time>2026-09-02T22:07:25Z</time>
  <course>11.32</course>
  <speed>0.7247068372797375</speed>
  <fix>3d</fix>
</trkpt>
<trkpt lat="33.8102421" lon="-118.3939573">
  <ele>-0.114</ele>
  <time>2026-09-02T22:07:25Z</time>
  <course>11.32</course>
  <speed>0.7247068372797375</speed>
  <fix>3d</fix>
</trkpt>
<trkpt lat="33.8102422" lon="-118.3939572">
  <ele>-0.114</ele>
  <time>2026-09-02T22:07:25Z</time>
  <course>11.32</course>
  <speed>0.7247068372797375</speed>
  <fix>3d</fix>
</trkpt>
<trkpt lat="33.8102422" lon="-118.3939572">
  <ele>-0.113</ele>
  <time>2026-09-02T22:07:25Z</time>
  <course>11.32</course>
  <speed>0.7247068372797375</speed>
  <fix>3d</fix>
</trkpt>
<trkpt lat="33.8102422" lon="-118.3939571">
  <ele>-0.113</ele>
  <time>2026-09-02T22:07:25Z</time>
  <course>11.32</course>
  <speed>0.7247068372797375</speed>
  <fix>3d</fix>
</trkpt>
<trkpt lat="33.8102423" lon="-118.3939571">
  <ele>-0.113</ele>
  <time>2026-09-02T22:07:25Z</time>
  <course>11.32</course>
  <speed>0.7247068372797375</speed>
  <fix>3d</fix>
</trkpt>
<trkpt lat="33.8102423" lon="-118.393957">
  <ele>-0.113</ele>
  <time>2026-09-02T22:07:25Z</time>
  <course>11.32</course>
  <speed>0.7247068372797375</speed>
  <fix>3d</fix>
</trkpt>
<trkpt lat="33.8102423" lon="-118.393957">
  <ele>-0.113</ele>
  <time>2026-09-02T22:07:25Z</time>
  <course>11.32</course>
  <speed>0.7247068372797375</speed>
  <fix>3d</fix>
</trkpt>
<trkpt lat="33.8102424" lon="-118.3939569">
  <ele>-0.113</ele>
  <time>2026-09-02T22:07:25Z</time>
  <course>11.32</course>
  <speed>0.7247068372797375</speed>
  <fix>3d</fix>
</trkpt>
<trkpt lat="33.8102424" lon="-118.3939569">
  <ele>-0.113</ele>
  <time>2026-09-02T22:07:25Z</time>
  <course>11.32</course>
  <speed>0.7247068372797375</speed>
  <fix>3d</fix>
</trkpt>
<trkpt lat="33.8102424" lon="-118.3939569">
  <ele>-0.113</ele>
  <time>2026-09-02T22:07:25Z</time>
  <course>11.32</course>
  <speed>0.7247068372797375</speed>
  <fix>3d</fix>
</trkpt>
<trkpt lat="33.8102416" lon="-118.3939585">
  <ele>-0.1</ele>
  <time>2026-09-02T22:07:25Z</time>
  <course>48.11</course>
  <speed>0.73</speed>
  <fix>3d</fix>
</trkpt>
<trkpt lat="33.8102425" lon="-118.3939568">
  <ele>-0.113</ele>
  <time>2026-09-02T22:07:25Z</time>
  <course>11.32</course>
  <speed>0.7247068372797375</speed>
  <fix>3d</fix>
</trkpt>
<trkpt lat="33.8102425" lon="-118.3939567">
  <ele>-0.113</ele>
  <time>2026-09-02T22:07:25Z</time>
  <course>11.33</course>
  <speed>0.7247068372797375</speed>
  <fix>3d</fix>
</trkpt>
<trkpt lat="33.8102426" lon="-118.3939567">
  <ele>-0.113</ele>
  <time>2026-09-02T22:07:25Z</time>
  <course>11.33</course>
  <speed>0.7247068372797375</speed>
  <fix>3d</fix>
</trkpt>
<trkpt lat="33.8102426" lon="-118.3939566">
  <ele>-0.113</ele>
  <time>2026-09-02T22:07:25Z</time>
  <course>11.33</course>
  <speed>0.7247068372797375</speed>
  <fix>3d</fix>
</trkpt>
<trkpt lat="33.8102426" lon="-118.3939566">
  <ele>-0.113</ele>
  <time>2026-09-02T22:07:25Z</time>
  <course>11.33</course>
  <speed>0.7247068372797375</speed>
  <fix>3d</fix>
</trkpt>
<trkpt lat="33.8102427" lon="-118.3939565">
  <ele>-0.113</ele>
  <time>2026-09-02T22:07:25Z</time>
  <course>11.33</course>
  <speed>0.7247068372797375</speed>
  <fix>3d</fix>
</trkpt>
<trkpt lat="33.8102427" lon="-118.3939565">
  <ele>-0.113</ele>
  <time>2026-09-02T22:07:25Z</time>
  <course>11.33</course>
  <speed>0.7247068372797375</speed>
  <fix>3d</fix>
</trkpt>
<trkpt lat="33.8102428" lon="-118.3939564">
  <ele>-0.112</ele>
  <time>2026-09-02T22:07:25Z</time>
  <course>11.33</course>
  <speed>0.7247068372797375</speed>
  <fix>3d</fix>
</trkpt>
<trkpt lat="33.8102428" lon="-118.3939564">
  <ele>-0.112</ele>
  <time>2026-09-02T22:07:25Z</time>
  <course>11.33</course>
  <speed>0.7247068372797375</speed>
  <fix>3d</fix>
</trkpt>
<trkpt lat="33.8102428" lon="-118.3939563">
  <ele>-0.112</ele>
  <time>2026-09-02T22:07:25Z</time>
  <course>11.33</course>
  <speed>0.7247068372797375</speed>
  <fix>3d</fix>
</trkpt>
<trkpt lat="33.8102429" lon="-118.3939563">
  <ele>-0.112</ele>
  <time>2026-09-02T22:07:25Z</time>
  <course>11.33</course>
  <speed>0.7247068372797375</speed>
  <fix>3d</fix>
</trkpt>
<trkpt lat="33.8102429" lon="-118.3939563">
  <ele>-0.112</ele>
  <time>2026-09-02T22:07:25Z</time>
  <course>11.33</course>
  <speed>0.7247068372797375</speed>
  <fix>3d</fix>
</trkpt>
<trkpt lat="33.8102425" lon="-118.3939574">
  <ele>-0.1</ele>
  <time>2026-09-02T22:07:25Z</time>
  <course>48.12</course>
  <speed>0.73</speed>
  <fix>3d</fix>
</trkpt>
<trkpt lat="33.8102429" lon="-118.3939562">
  <ele>-0.112</ele>
  <time>2026-09-02T22:07:25Z</time>
  <course>11.33</course>
  <speed>0.7247068372797375</speed>
  <fix>3d</fix>
</trkpt>
<trkpt lat="33.810243" lon="-118.3939561">
  <ele>-0.112</ele>
  <time>2026-09-02T22:07:25Z</time>
  <course>11.33</course>
  <speed>0.7247068372797375</speed>
  <fix>3d</fix>
</trkpt>
<trkpt lat="33.810243" lon="-118.3939561">
  <ele>-0.112</ele>
  <time>2026-09-02T22:07:25Z</time>
  <course>11.33</course>
  <speed>0.7247068372797375</speed>
  <fix>3d</fix>
</trkpt>
<trkpt lat="33.810243" lon="-118.393956">
  <ele>-0.112</ele>
  <time>2026-09-02T22:07:25Z</time>
  <course>11.33</course>
  <speed>0.7247068372797375</speed>
  <fix>3d</fix>
</trkpt>
<trkpt lat="33.8102431" lon="-118.393956">
  <ele>-0.111</ele>
  <time>2026-09-02T22:07:25Z</time>
  <course>11.33</course>
  <speed>0.7247068372797375</speed>
  <fix>3d</fix>
</trkpt>
<trkpt lat="33.8102431" lon="-118.3939559">
  <ele>-0.111</ele>
  <time>2026-09-02T22:07:25Z</time>
  <course>11.33</course>
  <speed>0.7247068372797375</speed>
  <fix>3d</fix>
</trkpt>
<trkpt lat="33.8102432" lon="-118.3939559">
  <ele>-0.111</ele>
  <time>2026-09-02T22:07:25Z</time>
  <course>11.33</course>
  <speed>0.7247068372797375</speed>
  <fix>3d</fix>
</trkpt>
<trkpt lat="33.8102432" lon="-118.3939558">
  <ele>-0.111</ele>
  <time>2026-09-02T22:07:25Z</time>
  <course>11.33</course>
  <speed>0.7247068372797375</speed>
  <fix>3d</fix>
</trkpt>
<trkpt lat="33.8102432" lon="-118.3939558">
  <ele>-0.111</ele>
  <time>2026-09-02T22:07:25Z</time>
  <course>11.33</course>
  <speed>0.7247068372797375</speed>
  <fix>3d</fix>
</trkpt>
<trkpt lat="33.8102433" lon="-118.3939557">
  <ele>-0.111</ele>
  <time>2026-09-02T22:07:25Z</time>
  <course>11.33</course>
  <speed>0.7247068372797375</speed>
  <fix>3d</fix>
</trkpt>
<trkpt lat="33.8102433" lon="-118.3939557">
  <ele>-0.11</ele>
  <time>2026-09-02T22:07:25Z</time>
  <course>11.33</course>
  <speed>0.7247068372797375</speed>
  <fix>3d</fix>
</trkpt>
<trkpt lat="33.8102433" lon="-118.3939557">
  <ele>-0.11</ele>
  <time>2026-09-02T22:07:25Z</time>
  <course>11.33</course>
  <speed>0.7247068372797375</speed>
  <fix>3d</fix>
</trkpt>
<trkpt lat="33.8102425" lon="-118.3939574">
  <ele>-0.1</ele>
  <time>2026-09-02T22:07:25Z</time>
  <course>48.12</course>
  <speed>0.73</speed>
  <fix>3d</fix>
</trkpt>
<trkpt lat="33.8102434" lon="-118.3939556">
  <ele>-0.11</ele>
  <time>2026-09-02T22:07:25Z</time>
  <course>11.33</course>
  <speed>0.7247068372797375</speed>
  <fix>3d</fix>
</trkpt>
<trkpt lat="33.8102434" lon="-118.3939555">
  <ele>-0.11</ele>
  <time>2026-09-02T22:07:25Z</time>
  <course>11.34</course>
  <speed>0.7247068372797375</speed>
  <fix>3d</fix>
</trkpt>
<trkpt lat="33.8102435" lon="-118.3939555">
  <ele>-0.11</ele>
  <time>2026-09-02T22:07:25Z</time>
  <course>11.34</course>
  <speed>0.7247068372797375</speed>
  <fix>3d</fix>
</trkpt>
<trkpt lat="33.8102435" lon="-118.3939554">
  <ele>-0.11</ele>
  <time>2026-09-02T22:07:25Z</time>
  <course>11.34</course>
  <speed>0.7247068372797375</speed>
  <fix>3d</fix>
</trkpt>
<trkpt lat="33.8102435" lon="-118.3939554">
  <ele>-0.11</ele>
  <time>2026-09-02T22:07:25Z</time>
  <course>11.34</course>
  <speed>0.7247068372797375</speed>
  <fix>3d</fix>
</trkpt>
<trkpt lat="33.8102436" lon="-118.3939553">
  <ele>-0.11</ele>
  <time>2026-09-02T22:07:25Z</time>
  <course>11.34</course>
  <speed>0.7247068372797375</speed>
  <fix>3d</fix>
</trkpt>
<trkpt lat="33.8102436" lon="-118.3939553">
  <ele>-0.11</ele>
  <time>2026-09-02T22:07:25Z</time>
  <course>11.34</course>
  <speed>0.7247068372797375</speed>
  <fix>3d</fix>
</trkpt>
<trkpt lat="33.8102436" lon="-118.3939553">
  <ele>-0.109</ele>
  <time>2026-09-02T22:07:25Z</time>
  <course>11.34</course>
  <speed>0.7247068372797375</speed>
  <fix>3d</fix>
</trkpt>
<trkpt lat="33.8102437" lon="-118.3939552">
  <ele>-0.109</ele>
  <time>2026-09-02T22:07:25Z</time>
  <course>11.34</course>
  <speed>0.7247068372797375</speed>
  <fix>3d</fix>
</trkpt>
<trkpt lat="33.8102437" lon="-118.3939552">
  <ele>-0.109</ele>
  <time>2026-09-02T22:07:25Z</time>
  <course>11.34</course>
  <speed>0.7247068372797375</speed>
  <fix>3d</fix>
</trkpt>
<trkpt lat="33.8102437" lon="-118.3939551">
  <ele>-0.109</ele>
  <time>2026-09-02T22:07:25Z</time>
  <course>11.34</course>
  <speed>0.7247068372797375</speed>
  <fix>3d</fix>
</trkpt>
<trkpt lat="33.8102437" lon="-118.3939551">
  <ele>-0.109</ele>
  <time>2026-09-02T22:07:25Z</time>
  <course>11.34</course>
  <speed>0.7247068372797375</speed>
  <fix>3d</fix>
</trkpt>
<trkpt lat="33.8102434" lon="-118.3939562">
  <ele>-0.1</ele>
  <time>2026-09-02T22:07:25Z</time>
  <course>48.13</course>
  <speed>0.73</speed>
  <fix>3d</fix>
</trkpt>
<trkpt lat="33.8102438" lon="-118.393955">
  <ele>-0.109</ele>
  <time>2026-09-02T22:07:25Z</time>
  <course>11.34</course>
  <speed>0.7247068372797375</speed>
  <fix>3d</fix>
</trkpt>
<trkpt lat="33.8102439" lon="-118.393955">
  <ele>-0.109</ele>
  <time>2026-09-02T22:07:25Z</time>
  <course>11.34</course>
  <speed>0.7247068372797375</speed>
  <fix>3d</fix>
</trkpt>
<trkpt lat="33.8102439" lon="-118.3939549">
  <ele>-0.109</ele>
  <time>2026-09-02T22:07:25Z</time>
  <course>11.34</course>
  <speed>0.7247068372797375</speed>
  <fix>3d</fix>
</trkpt>
<trkpt lat="33.8102439" lon="-118.3939549">
  <ele>-0.109</ele>
  <time>2026-09-02T22:07:25Z</time>
  <course>11.34</course>
  <speed>0.7247068372797375</speed>
  <fix>3d</fix>
</trkpt>
<trkpt lat="33.810244" lon="-118.3939548">
  <ele>-0.109</ele>
  <time>2026-09-02T22:07:25Z</time>
  <course>11.34</course>
  <speed>0.7247068372797375</speed>
  <fix>3d</fix>
</trkpt>
<trkpt lat="33.810244" lon="-118.3939548">
  <ele>-0.109</ele>
  <time>2026-09-02T22:07:25Z</time>
  <course>11.34</course>
  <speed>0.7247068372797375</speed>
  <fix>3d</fix>
</trkpt>
<trkpt lat="33.810244" lon="-118.3939547">
  <ele>-0.109</ele>
  <time>2026-09-02T22:07:25Z</time>
  <course>11.34</course>
  <speed>0.7247068372797375</speed>
  <fix>3d</fix>
</trkpt>
<trkpt lat="33.8102441" lon="-118.3939547">
  <ele>-0.109</ele>
  <time>2026-09-02T22:07:25Z</time>
  <course>11.34</course>
  <speed>0.7247068372797375</speed>
  <fix>3d</fix>
</trkpt>
<trkpt lat="33.8102441" lon="-118.3939546">
  <ele>-0.109</ele>
  <time>2026-09-02T22:07:25Z</time>
  <course>11.34</course>
  <speed>0.7247068372797375</speed>
  <fix>3d</fix>
</trkpt>
<trkpt lat="33.8102441" lon="-118.3939546">
  <ele>-0.109</ele>
  <time>2026-09-02T22:07:25Z</time>
  <course>11.34</course>
  <speed>0.7247068372797375</speed>
  <fix>3d</fix>
</trkpt>
<trkpt lat="33.8102442" lon="-118.3939545">
  <ele>-0.108</ele>
  <time>2026-09-02T22:07:25Z</time>
  <course>11.34</course>
  <speed>0.7247068372797375</speed>
  <fix>3d</fix>
</trkpt>
<trkpt lat="33.8102442" lon="-118.3939545">
  <ele>-0.108</ele>
  <time>2026-09-02T22:07:25Z</time>
  <course>11.34</course>
  <speed>0.7247068372797375</speed>
  <fix>3d</fix>
</trkpt>
<trkpt lat="33.8102434" lon="-118.3939562">
  <ele>-0.1</ele>
  <time>2026-09-02T22:07:25Z</time>
  <course>48.13</course>
  <speed>0.73</speed>
  <fix>3d</fix>
</trkpt>
<trkpt lat="33.8102442" lon="-118.3939544">
  <ele>-0.108</ele>
  <time>2026-09-02T22:07:25Z</time>
  <course>11.34</course>
  <speed>0.7247068372797375</speed>
  <fix>3d</fix>
</trkpt>
<trkpt lat="33.8102443" lon="-118.3939544">
  <ele>-0.108</ele>
  <time>2026-09-02T22:07:25Z</time>
  <course>11.35</course>
  <speed>0.7247068372797375</speed>
  <fix>3d</fix>
</trkpt>
<trkpt lat="33.8102443" lon="-118.3939543">
  <ele>-0.108</ele>
  <time>2026-09-02T22:07:25Z</time>
  <course>11.35</course>
  <speed>0.7247068372797375</speed>
  <fix>3d</fix>
</trkpt>
<trkpt lat="33.8102444" lon="-118.3939543">
  <ele>-0.108</ele>
  <time>2026-09-02T22:07:25Z</time>
  <course>11.35</course>
  <speed>0.7247068372797375</speed>
  <fix>3d</fix>
</trkpt>
<trkpt lat="33.8102444" lon="-118.3939542">
  <ele>-0.108</ele>
  <time>2026-09-02T22:07:25Z</time>
  <course>11.35</course>
  <speed>0.7247068372797375</speed>
  <fix>3d</fix>
</trkpt>
<trkpt lat="33.8102444" lon="-118.3939542">
  <ele>-0.108</ele>
  <time>2026-09-02T22:07:25Z</time>
  <course>11.35</course>
  <speed>0.7247068372797375</speed>
  <fix>3d</fix>
</trkpt>
<trkpt lat="33.8102445" lon="-118.3939541">
  <ele>-0.108</ele>
  <time>2026-09-02T22:07:25Z</time>
  <course>11.35</course>
  <speed>0.7247068372797375</speed>
  <fix>3d</fix>
</trkpt>
<trkpt lat="33.8102445" lon="-118.3939541">
  <ele>-0.108</ele>
  <time>2026-09-02T22:07:25Z</time>
  <course>11.35</course>
  <speed>0.7247068372797375</speed>
  <fix>3d</fix>
</trkpt>
<trkpt lat="33.8102446" lon="-118.393954">
  <ele>-0.108</ele>
  <time>2026-09-02T22:07:25Z</time>
  <course>11.35</course>
  <speed>0.7247068372797375</speed>
  <fix>3d</fix>
</trkpt>
<trkpt lat="33.8102446" lon="-118.393954">
  <ele>-0.108</ele>
  <time>2026-09-02T22:07:25Z</time>
  <course>11.35</course>
  <speed>0.7247068372797375</speed>
  <fix>3d</fix>
</trkpt>
<trkpt lat="33.8102446" lon="-118.3939539">
  <ele>-0.108</ele>
  <time>2026-09-02T22:07:25Z</time>
  <course>11.35</course>
  <speed>0.7247068372797375</speed>
  <fix>3d</fix>
</trkpt>
<trkpt lat="33.8102446" lon="-118.3939539">
  <ele>-0.108</ele>
  <time>2026-09-02T22:07:25Z</time>
  <course>11.35</course>
  <speed>0.7247068372797375</speed>
  <fix>3d</fix>
</trkpt>
<trkpt lat="33.8102442" lon="-118.393955">
  <ele>-0.1</ele>
  <time>2026-09-02T22:07:25Z</time>
  <course>48.14</course>
  <speed>0.73</speed>
  <fix>3d</fix>
</trkpt>
<trkpt lat="33.8102447" lon="-118.3939538">
  <ele>-0.108</ele>
  <time>2026-09-02T22:07:25Z</time>
  <course>11.35</course>
  <speed>0.7247068372797375</speed>
  <fix>3d</fix>
</trkpt>
<trkpt lat="33.8102447" lon="-118.3939538">
  <ele>-0.108</ele>
  <time>2026-09-02T22:07:25Z</time>
  <course>11.35</course>
  <speed>0.7247068372797375</speed>
  <fix>3d</fix>
</trkpt>
<trkpt lat="33.8102448" lon="-118.3939537">
  <ele>-0.108</ele>
  <time>2026-09-02T22:07:25Z</time>
  <course>11.35</course>
  <speed>0.7247068372797375</speed>
  <fix>3d</fix>
</trkpt>
<trkpt lat="33.8102448" lon="-118.3939537">
  <ele>-0.108</ele>
  <time>2026-09-02T22:07:25Z</time>
  <course>11.35</course>
  <speed>0.7247068372797375</speed>
  <fix>3d</fix>
</trkpt>
<trkpt lat="33.8102448" lon="-118.3939537">
  <ele>-0.108</ele>
  <time>2026-09-02T22:07:25Z</time>
  <course>11.35</course>
  <speed>0.7247068372797375</speed>
  <fix>3d</fix>
</trkpt>
<trkpt lat="33.8102449" lon="-118.3939536">
  <ele>-0.108</ele>
  <time>2026-09-02T22:07:25Z</time>
  <course>11.35</course>
  <speed>0.7247068372797375</speed>
  <fix>3d</fix>
</trkpt>
<trkpt lat="33.8102449" lon="-118.3939536">
  <ele>-0.108</ele>
  <time>2026-09-02T22:07:25Z</time>
  <course>11.35</course>
  <speed>0.7247068372797375</speed>
  <fix>3d</fix>
</trkpt>
<trkpt lat="33.8102449" lon="-118.3939535">
  <ele>-0.108</ele>
  <time>2026-09-02T22:07:25Z</time>
  <course>11.35</course>
  <speed>0.7247068372797375</speed>
  <fix>3d</fix>
</trkpt>
<trkpt lat="33.810245" lon="-118.3939535">
  <ele>-0.107</ele>
  <time>2026-09-02T22:07:25Z</time>
  <course>11.35</course>
  <speed>0.7247068372797375</speed>
  <fix>3d</fix>
</trkpt>
<trkpt lat="33.810245" lon="-118.3939534">
  <ele>-0.107</ele>
  <time>2026-09-02T22:07:25Z</time>
  <course>11.35</course>
  <speed>0.7247068372797375</speed>
  <fix>3d</fix>
</trkpt>
<trkpt lat="33.8102451" lon="-118.3939534">
  <ele>-0.107</ele>
  <time>2026-09-02T22:07:25Z</time>
  <course>11.35</course>
  <speed>0.7247068372797375</speed>
  <fix>3d</fix>
</trkpt>
<trkpt lat="33.8102451" lon="-118.3939533">
  <ele>-0.107</ele>
  <time>2026-09-02T22:07:25Z</time>
  <course>11.35</course>
  <speed>0.7247068372797375</speed>
  <fix>3d</fix>
</trkpt>
<trkpt lat="33.8102442" lon="-118.393955">
  <ele>-0.1</ele>
  <time>2026-09-02T22:07:25Z</time>
  <course>48.14</course>
  <speed>0.73</speed>
  <fix>3d</fix>
</trkpt>
<trkpt lat="33.8102451" lon="-118.3939533">
  <ele>-0.107</ele>
  <time>2026-09-02T22:07:25Z</time>
  <course>11.35</course>
  <speed>0.7247068372797375</speed>
  <fix>3d</fix>
</trkpt>
<trkpt lat="33.8102452" lon="-118.3939532">
  <ele>-0.107</ele>
  <time>2026-09-02T22:07:25Z</time>
  <course>11.35</course>
  <speed>0.7247068372797375</speed>
  <fix>3d</fix>
</trkpt>
<trkpt lat="33.8102452" lon="-118.3939532">
  <ele>-0.107</ele>
  <time>2026-09-02T22:07:25Z</time>
  <course>11.36</course>
  <speed>0.7247068372797375</speed>
  <fix>3d</fix>
</trkpt>
<trkpt lat="33.8102452" lon="-118.3939531">
  <ele>-0.107</ele>
  <time>2026-09-02T22:07:25Z</time>
  <course>11.36</course>
  <speed>0.7247068372797375</speed>
  <fix>3d</fix>
</trkpt>
<trkpt lat="33.8102453" lon="-118.3939531">
  <ele>-0.107</ele>
  <time>2026-09-02T22:07:25Z</time>
  <course>11.36</course>
  <speed>0.7247068372797375</speed>
  <fix>3d</fix>
</trkpt>
<trkpt lat="33.8102453" lon="-118.393953">
  <ele>-0.107</ele>
  <time>2026-09-02T22:07:25Z</time>
  <course>11.36</course>
  <speed>0.7247068372797375</speed>
  <fix>3d</fix>
</trkpt>
<trkpt lat="33.8102453" lon="-118.393953">
  <ele>-0.108</ele>
  <time>2026-09-02T22:07:25Z</time>
  <course>11.36</course>
  <speed>0.7247068372797375</speed>
  <fix>3d</fix>
</trkpt>
<trkpt lat="33.8102454" lon="-118.3939529">
  <ele>-0.108</ele>
  <time>2026-09-02T22:07:25Z</time>
  <course>11.36</course>
  <speed>0.7247068372797375</speed>
  <fix>3d</fix>
</trkpt>
<trkpt lat="33.8102454" lon="-118.3939529">
  <ele>-0.108</ele>
  <time>2026-09-02T22:07:25Z</time>
  <course>11.36</course>
  <speed>0.7247068372797375</speed>
  <fix>3d</fix>
</trkpt>
<trkpt lat="33.8102454" lon="-118.3939528">
  <ele>-0.108</ele>
  <time>2026-09-02T22:07:25Z</time>
  <course>11.36</course>
  <speed>0.7247068372797375</speed>
  <fix>3d</fix>
</trkpt>
<trkpt lat="33.8102455" lon="-118.3939528">
  <ele>-0.108</ele>
  <time>2026-09-02T22:07:25Z</time>
  <course>11.36</course>
  <speed>0.7247068372797375</speed>
  <fix>3d</fix>
</trkpt>
<trkpt lat="33.8102455" lon="-118.3939528">
  <ele>-0.108</ele>
  <time>2026-09-02T22:07:25Z</time>
  <course>11.36</course>
  <speed>0.7247068372797375</speed>
  <fix>3d</fix>
</trkpt>
<trkpt lat="33.8102451" lon="-118.3939538">
  <ele>-0.1</ele>
  <time>2026-09-02T22:07:25Z</time>
  <course>48.15</course>
  <speed>0.73</speed>
  <fix>3d</fix>
</trkpt>
<trkpt lat="33.8102455" lon="-118.3939527">
  <ele>-0.108</ele>
  <time>2026-09-02T22:07:25Z</time>
  <course>11.36</course>
  <speed>0.7247068372797375</speed>
  <fix>3d</fix>
</trkpt>
<trkpt lat="33.8102456" lon="-118.3939527">
  <ele>-0.108</ele>
  <time>2026-09-02T22:07:25Z</time>
  <course>11.36</course>
  <speed>0.7247068372797375</speed>
  <fix>3d</fix>
</trkpt>
<trkpt lat="33.8102456" lon="-118.3939526">
  <ele>-0.108</ele>
  <time>2026-09-02T22:07:25Z</time>
  <course>11.36</course>
  <speed>0.7247068372797375</speed>
  <fix>3d</fix>
</trkpt>
<trkpt lat="33.8102456" lon="-118.3939526">
  <ele>-0.108</ele>
  <time>2026-09-02T22:07:25Z</time>
  <course>11.36</course>
  <speed>0.7247068372797375</speed>
  <fix>3d</fix>
</trkpt>
<trkpt lat="33.8102457" lon="-118.3939525">
  <ele>-0.108</ele>
  <time>2026-09-02T22:07:25Z</time>
  <course>11.36</course>
  <speed>0.7247068372797375</speed>
  <fix>3d</fix>
</trkpt>
<trkpt lat="33.8102457" lon="-118.3939525">
  <ele>-0.108</ele>
  <time>2026-09-02T22:07:25Z</time>
  <course>11.36</course>
  <speed>0.7247068372797375</speed>
  <fix>3d</fix>
</trkpt>
<trkpt lat="33.8102457" lon="-118.3939524">
  <ele>-0.108</ele>
  <time>2026-09-02T22:07:25Z</time>
  <course>11.36</course>
  <speed>0.7247068372797375</speed>
  <fix>3d</fix>
</trkpt>
<trkpt lat="33.8102458" lon="-118.3939524">
  <ele>-0.108</ele>
  <time>2026-09-02T22:07:25Z</time>
  <course>11.36</course>
  <speed>0.7247068372797375</speed>
  <fix>3d</fix>
</trkpt>
<trkpt lat="33.8102458" lon="-118.3939523">
  <ele>-0.108</ele>
  <time>2026-09-02T22:07:25Z</time>
  <course>11.36</course>
  <speed>0.7247068372797375</speed>
  <fix>3d</fix>
</trkpt>
<trkpt lat="33.8102459" lon="-118.3939523">
  <ele>-0.108</ele>
  <time>2026-09-02T22:07:25Z</time>
  <course>11.36</course>
  <speed>0.7247068372797375</speed>
  <fix>3d</fix>
</trkpt>
<trkpt lat="33.8102459" lon="-118.3939522">
  <ele>-0.108</ele>
  <time>2026-09-02T22:07:25Z</time>
  <course>11.36</course>
  <speed>0.7247068372797375</speed>
  <fix>3d</fix>
</trkpt>
<trkpt lat="33.8102459" lon="-118.3939522">
  <ele>-0.108</ele>
  <time>2026-09-02T22:07:25Z</time>
  <course>11.36</course>
  <speed>0.7247068372797375</speed>
  <fix>3d</fix>
</trkpt>
<trkpt lat="33.8102459" lon="-118.3939522">
  <ele>-0.108</ele>
  <time>2026-09-02T22:07:25Z</time>
  <course>11.36</course>
  <speed>0.7247068372797375</speed>
  <fix>3d</fix>
</trkpt>
<trkpt lat="33.8102451" lon="-118.3939538">
  <ele>-0.1</ele>
  <time>2026-09-02T22:07:25Z</time>
  <course>48.15</course>
  <speed>0.73</speed>
  <fix>3d</fix>
</trkpt>
<trkpt lat="33.810246" lon="-118.3939522">
  <ele>-0.108</ele>
  <time>2026-09-02T22:07:25Z</time>
  <course>11.36</course>
  <speed>0.7247068372797375</speed>
  <fix>3d</fix>
</trkpt>
<trkpt lat="33.810246" lon="-118.393952">
  <ele>-0.108</ele>
  <time>2026-09-02T22:07:25Z</time>
  <course>11.37</course>
  <speed>0.7247068372797375</speed>
  <fix>3d</fix>
</trkpt>
<trkpt lat="33.8102461" lon="-118.393952">
  <ele>-0.108</ele>
  <time>2026-09-02T22:07:25Z</time>
  <course>11.37</course>
  <speed>0.7247068372797375</speed>
  <fix>3d</fix>
</trkpt>
<trkpt lat="33.8102461" lon="-118.3939519">
  <ele>-0.108</ele>
  <time>2026-09-02T22:07:25Z</time>
  <course>11.37</course>
  <speed>0.7247068372797375</speed>
  <fix>3d</fix>
</trkpt>
<trkpt lat="33.8102462" lon="-118.3939519">
  <ele>-0.108</ele>
  <time>2026-09-02T22:07:25Z</time>
  <course>11.37</course>
  <speed>0.7247068372797375</speed>
  <fix>3d</fix>
</trkpt>
<trkpt lat="33.8102462" lon="-118.3939518">
  <ele>-0.108</ele>
  <time>2026-09-02T22:07:25Z</time>
  <course>11.37</course>
  <speed>0.7247068372797375</speed>
  <fix>3d</fix>
</trkpt>
<trkpt lat="33.8102462" lon="-118.3939518">
  <ele>-0.108</ele>
  <time>2026-09-02T22:07:25Z</time>
  <course>11.37</course>
  <speed>0.7247068372797375</speed>
  <fix>3d</fix>
</trkpt>
<trkpt lat="33.8102463" lon="-118.3939517">
  <ele>-0.108</ele>
  <time>2026-09-02T22:07:25Z</time>
  <course>11.37</course>
  <speed>0.7247068372797375</speed>
  <fix>3d</fix>
</trkpt>
<trkpt lat="33.8102463" lon="-118.3939517">
  <ele>-0.108</ele>
  <time>2026-09-02T22:07:25Z</time>
  <course>11.37</course>
  <speed>0.7247068372797375</speed>
  <fix>3d</fix>
</trkpt>
<trkpt lat="33.8102463" lon="-118.3939516">
  <ele>-0.108</ele>
  <time>2026-09-02T22:07:25Z</time>
  <course>11.37</course>
  <speed>0.7247068372797375</speed>
  <fix>3d</fix>
</trkpt>
<trkpt lat="33.8102464" lon="-118.3939516">
  <ele>-0.108</ele>
  <time>2026-09-02T22:07:25Z</time>
  <course>11.37</course>
  <speed>0.7247068372797375</speed>
  <fix>3d</fix>
</trkpt>
<trkpt lat="33.8102464" lon="-118.3939516">
  <ele>-0.108</ele>
  <time>2026-09-02T22:07:25Z</time>
  <course>11.37</course>
  <speed>0.7247068372797375</speed>
  <fix>3d</fix>
</trkpt>
<trkpt lat="33.810246" lon="-118.3939526">
  <ele>-0.1</ele>
  <time>2026-09-02T22:07:25Z</time>
  <course>48.16</course>
  <speed>0.73</speed>
  <fix>3d</fix>
</trkpt>
<trkpt lat="33.8102464" lon="-118.3939516">
  <ele>-0.108</ele>
  <time>2026-09-02T22:07:25Z</time>
  <course>11.37</course>
  <speed>0.7247068372797375</speed>
  <fix>3d</fix>
</trkpt>
<trkpt lat="33.8102465" lon="-118.3939515">
  <ele>-0.108</ele>
  <time>2026-09-02T22:07:25Z</time>
  <course>11.37</course>
  <speed>0.7247068372797375</speed>
  <fix>3d</fix>
</trkpt>
<trkpt lat="33.8102465" lon="-118.3939514">
  <ele>-0.108</ele>
  <time>2026-09-02T22:07:25Z</time>
  <course>11.37</course>
  <speed>0.7247068372797375</speed>
  <fix>3d</fix>
</trkpt>
<trkpt lat="33.8102465" lon="-118.3939514">
  <ele>-0.108</ele>
  <time>2026-09-02T22:07:25Z</time>
  <course>11.37</course>
  <speed>0.7247068372797375</speed>
  <fix>3d</fix>
</trkpt>
<trkpt lat="33.8102466" lon="-118.3939513">
  <ele>-0.108</ele>
  <time>2026-09-02T22:07:25Z</time>
  <course>11.37</course>
  <speed>0.7247068372797375</speed>
  <fix>3d</fix>
</trkpt>
<trkpt lat="33.8102466" lon="-118.3939512">
  <ele>-0.109</ele>
  <time>2026-09-02T22:07:25Z</time>
  <course>11.37</course>
  <speed>0.7247068372797375</speed>
  <fix>3d</fix>
</trkpt>
<trkpt lat="33.8102467" lon="-118.3939512">
  <ele>-0.109</ele>
  <time>2026-09-02T22:07:25Z</time>
  <course>11.37</course>
  <speed>0.7247068372797375</speed>
  <fix>3d</fix>
</trkpt>
<trkpt lat="33.8102467" lon="-118.3939512">
  <ele>-0.109</ele>
  <time>2026-09-02T22:07:25Z</time>
  <course>11.37</course>
  <speed>0.7247068372797375</speed>
  <fix>3d</fix>
</trkpt>
<trkpt lat="33.8102467" lon="-118.3939511">
  <ele>-0.109</ele>
  <time>2026-09-02T22:07:25Z</time>
  <course>11.37</course>
  <speed>0.7247068372797375</speed>
  <fix>3d</fix>
</trkpt>
<trkpt lat="33.8102468" lon="-118.393951">
  <ele>-0.109</ele>
  <time>2026-09-02T22:07:25Z</time>
  <course>11.37</course>
  <speed>0.7247068372797375</speed>
  <fix>3d</fix>
</trkpt>
<trkpt lat="33.8102468" lon="-118.393951">
  <ele>-0.109</ele>
  <time>2026-09-02T22:07:25Z</time>
  <course>11.37</course>
  <speed>0.7247068372797375</speed>
  <fix>3d</fix>
</trkpt>
<trkpt lat="33.8102468" lon="-118.393951">
  <ele>-0.109</ele>
  <time>2026-09-02T22:07:25Z</time>
  <course>11.37</course>
  <speed>0.7247068372797375</speed>
  <fix>3d</fix>
</trkpt>
<trkpt lat="33.810246" lon="-118.3939526">
  <ele>-0.1</ele>
  <time>2026-09-02T22:07:25Z</time>
  <course>48.16</course>
  <speed>0.73</speed>
  <fix>3d</fix>
</trkpt>
<trkpt lat="33.8102468" lon="-118.393951">
  <ele>-0.109</ele>
  <time>2026-09-02T22:07:25Z</time>
  <course>11.37</course>
  <speed>0.7247068372797375</speed>
  <fix>3d</fix>
</trkpt>
<trkpt lat="33.8102469" lon="-118.3939509">
  <ele>-0.109</ele>
  <time>2026-09-02T22:07:25Z</time>
  <course>11.37</course>
  <speed>0.7247068372797375</speed>
  <fix>3d</fix>
</trkpt>
<trkpt lat="33.8102469" lon="-118.3939508">
  <ele>-0.109</ele>
  <time>2026-09-02T22:07:25Z</time>
  <course>11.38</course>
  <speed>0.7247068372797375</speed>
  <fix>3d</fix>
</trkpt>
<trkpt lat="33.810247" lon="-118.3939508">
  <ele>-0.11</ele>
  <time>2026-09-02T22:07:25Z</time>
  <course>11.38</course>
  <speed>0.7247068372797375</speed>
  <fix>3d</fix>
</trkpt>
<trkpt lat="33.810247" lon="-118.3939507">
  <ele>-0.11</ele>
  <time>2026-09-02T22:07:25Z</time>
  <course>11.38</course>
  <speed>0.7247068372797375</speed>
  <fix>3d</fix>
</trkpt>
<trkpt lat="33.8102471" lon="-118.3939507">
  <ele>-0.11</ele>
  <time>2026-09-02T22:07:25Z</time>
  <course>11.38</course>
  <speed>0.7247068372797375</speed>
  <fix>3d</fix>
</trkpt>
<trkpt lat="33.8102471" lon="-118.3939506">
  <ele>-0.11</ele>
  <time>2026-09-02T22:07:25Z</time>
  <course>11.38</course>
  <speed>0.7247068372797375</speed>
  <fix>3d</fix>
</trkpt>
<trkpt lat="33.8102471" lon="-118.3939506">
  <ele>-0.11</ele>
  <time>2026-09-02T22:07:25Z</time>
  <course>11.38</course>
  <speed>0.7247068372797375</speed>
  <fix>3d</fix>
</trkpt>
<trkpt lat="33.8102472" lon="-118.3939505">
  <ele>-0.11</ele>
  <time>2026-09-02T22:07:25Z</time>
  <course>11.38</course>
  <speed>0.7247068372797375</speed>
  <fix>3d</fix>
</trkpt>
<trkpt lat="33.8102472" lon="-118.3939505">
  <ele>-0.11</ele>
  <time>2026-09-02T22:07:25Z</time>
  <course>11.38</course>
  <speed>0.7247068372797375</speed>
  <fix>3d</fix>
</trkpt>
<trkpt lat="33.8102473" lon="-118.3939504">
  <ele>-0.11</ele>
  <time>2026-09-02T22:07:25Z</time>
  <course>11.38</course>
  <speed>0.7247068372797375</speed>
  <fix>3d</fix>
</trkpt>
<trkpt lat="33.8102473" lon="-118.3939504">
  <ele>-0.11</ele>
  <time>2026-09-02T22:07:25Z</time>
  <course>11.38</course>
  <speed>0.7247068372797375</speed>
  <fix>3d</fix>
</trkpt>
<trkpt lat="33.8102469" lon="-118.3939514">
  <ele>-0.1</ele>
  <time>2026-09-02T22:07:25Z</time>
  <course>48.17</course>
  <speed>0.73</speed>
  <fix>3d</fix>
</trkpt>
<trkpt lat="33.8102473" lon="-118.3939503">
  <ele>-0.11</ele>
  <time>2026-09-02T22:07:25Z</time>
  <course>11.38</course>
  <speed>0.7247068372797375</speed>
  <fix>3d</fix>
</trkpt>
<trkpt lat="33.8102474" lon="-118.3939503">
  <ele>-0.11</ele>
  <time>2026-09-02T22:07:25Z</time>
  <course>11.38</course>
  <speed>0.7247068372797375</speed>
  <fix>3d</fix>
</trkpt>
<trkpt lat="33.8102474" lon="-118.3939502">
  <ele>-0.11</ele>
  <time>2026-09-02T22:07:25Z</time>
  <course>11.38</course>
  <speed>0.7247068372797375</speed>
  <fix>3d</fix>
</trkpt>
<trkpt lat="33.8102474" lon="-118.3939502">
  <ele>-0.11</ele>
  <time>2026-09-02T22:07:25Z</time>
  <course>11.38</course>
  <speed>0.7247068372797375</speed>
  <fix>3d</fix>
</trkpt>
<trkpt lat="33.8102475" lon="-118.3939501">
  <ele>-0.11</ele>
  <time>2026-09-02T22:07:25Z</time>
  <course>11.38</course>
  <speed>0.7247068372797375</speed>
  <fix>3d</fix>
</trkpt>
<trkpt lat="33.8102475" lon="-118.3939501">
  <ele>-0.11</ele>
  <time>2026-09-02T22:07:25Z</time>
  <course>11.38</course>
  <speed>0.7247068372797375</speed>
  <fix>3d</fix>
</trkpt>
<trkpt lat="33.8102475" lon="-118.39395">
  <ele>-0.11</ele>
  <time>2026-09-02T22:07:25Z</time>
  <course>11.38</course>
  <speed>0.7247068372797375</speed>
  <fix>3d</fix>
</trkpt>
<trkpt lat="33.8102476" lon="-118.39395">
  <ele>-0.11</ele>
  <time>2026-09-02T22:07:25Z</time>
  <course>11.38</course>
  <speed>0.7247068372797375</speed>
  <fix>3d</fix>
</trkpt>
<trkpt lat="33.8102476" lon="-118.3939499">
  <ele>-0.11</ele>
  <time>2026-09-02T22:07:25Z</time>
  <course>11.38</course>
  <speed>0.7247068372797375</speed>
  <fix>3d</fix>
</trkpt>
<trkpt lat="33.8102477" lon="-118.3939499">
  <ele>-0.11</ele>
  <time>2026-09-02T22:07:25Z</time>
  <course>11.38</course>
  <speed>0.7247068372797375</speed>
  <fix>3d</fix>
</trkpt>
<trkpt lat="33.8102477" lon="-118.3939498">
  <ele>-0.11</ele>
  <time>2026-09-02T22:07:25Z</time>
  <course>11.38</course>
  <speed>0.7247068372797375</speed>
  <fix>3d</fix>
</trkpt>
<trkpt lat="33.8102477" lon="-118.3939498">
  <ele>-0.11</ele>
  <time>2026-09-02T22:07:25Z</time>
  <course>11.38</course>
  <speed>0.7247068372797375</speed>
  <fix>3d</fix>
</trkpt>
<trkpt lat="33.8102469" lon="-118.3939514">
  <ele>-0.1</ele>
  <time>2026-09-02T22:07:25Z</time>
  <course>48.17</course>
  <speed>0.73</speed>
  <fix>3d</fix>
</trkpt>
<trkpt lat="33.8102477" lon="-118.3939498">
  <ele>-0.11</ele>
  <time>2026-09-02T22:07:25Z</time>
  <course>11.38</course>
  <speed>0.7247068372797375</speed>
  <fix>3d</fix>
</trkpt>
<trkpt lat="33.8102478" lon="-118.3939497">
  <ele>-0.11</ele>
  <time>2026-09-02T22:07:25Z</time>
  <course>11.38</course>
  <speed>0.7247068372797375</speed>
  <fix>3d</fix>
</trkpt>
<trkpt lat="33.8102478" lon="-118.3939496">
  <ele>-0.11</ele>
  <time>2026-09-02T22:07:25Z</time>
  <course>11.38</course>
  <speed>0.7247068372797375</speed>
  <fix>3d</fix>
</trkpt>
<trkpt lat="33.8102478" lon="-118.3939496">
  <ele>-0.11</ele>
  <time>2026-09-02T22:07:25Z</time>
  <course>11.39</course>
  <speed>0.7247068372797375</speed>
  <fix>3d</fix>
</trkpt>
<trkpt lat="33.8102479" lon="-118.3939496">
  <ele>-0.11</ele>
  <time>2026-09-02T22:07:25Z</time>
  <course>11.39</course>
  <speed>0.7247068372797375</speed>
  <fix>3d</fix>
</trkpt>
<trkpt lat="33.8102479" lon="-118.3939495">
  <ele>-0.11</ele>
  <time>2026-09-02T22:07:25Z</time>
  <course>11.39</course>
  <speed>0.7247068372797375</speed>
  <fix>3d</fix>
</trkpt>
<trkpt lat="33.8102479" lon="-118.3939495">
  <ele>-0.11</ele>
  <time>2026-09-02T22:07:25Z</time>
  <course>11.39</course>
  <speed>0.7247068372797375</speed>
  <fix>3d</fix>
</trkpt>
<trkpt lat="33.810248" lon="-118.3939494">
  <ele>-0.11</ele>
  <time>2026-09-02T22:07:25Z</time>
  <course>11.39</course>
  <speed>0.7247068372797375</speed>
  <fix>3d</fix>
</trkpt>
<trkpt lat="33.810248" lon="-118.3939494">
  <ele>-0.11</ele>
  <time>2026-09-02T22:07:25Z</time>
  <course>11.39</course>
  <speed>0.7247068372797375</speed>
  <fix>3d</fix>
</trkpt>
<trkpt lat="33.8102481" lon="-118.3939493">
  <ele>-0.11</ele>
  <time>2026-09-02T22:07:25Z</time>
  <course>11.39</course>
  <speed>0.7247068372797375</speed>
  <fix>3d</fix>
</trkpt>
<trkpt lat="33.8102481" lon="-118.3939493">
  <ele>-0.11</ele>
  <time>2026-09-02T22:07:25Z</time>
  <course>11.39</course>
  <speed>0.7247068372797375</speed>
  <fix>3d</fix>
</trkpt>
<trkpt lat="33.8102481" lon="-118.3939492">
  <ele>-0.11</ele>
  <time>2026-09-02T22:07:25Z</time>
  <course>11.39</course>
  <speed>0.7247068372797375</speed>
  <fix>3d</fix>
</trkpt>
<trkpt lat="33.8102482" lon="-118.3939492">
  <ele>-0.11</ele>
  <time>2026-09-02T22:07:25Z</time>
  <course>11.39</course>
  <speed>0.7247068372797375</speed>
  <fix>3d</fix>
</trkpt>
<trkpt lat="33.8102478" lon="-118.3939503">
  <ele>-0.1</ele>
  <time>2026-09-02T22:07:25Z</time>
  <course>48.18</course>
  <speed>0.73</speed>
  <fix>3d</fix>
</trkpt>
<trkpt lat="33.8102482" lon="-118.3939492">
  <ele>-0.11</ele>
  <time>2026-09-02T22:07:25Z</time>
  <course>11.39</course>
  <speed>0.7247068372797375</speed>
  <fix>3d</fix>
</trkpt>
<trkpt lat="33.8102482" lon="-118.3939491">
  <ele>-0.11</ele>
  <time>2026-09-02T22:07:25Z</time>
  <course>11.39</course>
  <speed>0.7247068372797375</speed>
  <fix>3d</fix>
</trkpt>
<trkpt lat="33.8102483" lon="-118.3939491">
  <ele>-0.11</ele>
  <time>2026-09-02T22:07:25Z</time>
  <course>11.39</course>
  <speed>0.7247068372797375</speed>
  <fix>3d</fix>
</trkpt>
<trkpt lat="33.8102483" lon="-118.393949">
  <ele>-0.11</ele>
  <time>2026-09-02T22:07:25Z</time>
  <course>11.39</course>
  <speed>0.7247068372797375</speed>
  <fix>3d</fix>
</trkpt>
<trkpt lat="33.8102483" lon="-118.393949">
  <ele>-0.11</ele>
  <time>2026-09-02T22:07:25Z</time>
  <course>11.39</course>
  <speed>0.7247068372797375</speed>
  <fix>3d</fix>
</trkpt>
<trkpt lat="33.8102484" lon="-118.3939489">
  <ele>-0.11</ele>
  <time>2026-09-02T22:07:25Z</time>
  <course>11.39</course>
  <speed>0.7247068372797375</speed>
  <fix>3d</fix>
</trkpt>
<trkpt lat="33.8102484" lon="-118.3939489">
  <ele>-0.11</ele>
  <time>2026-09-02T22:07:25Z</time>
  <course>11.39</course>
  <speed>0.7247068372797375</speed>
  <fix>3d</fix>
</trkpt>
<trkpt lat="33.8102484" lon="-118.3939488">
  <ele>-0.11</ele>
  <time>2026-09-02T22:07:25Z</time>
  <course>11.39</course>
  <speed>0.7247068372797375</speed>
  <fix>3d</fix>
</trkpt>
<trkpt lat="33.8102485" lon="-118.3939488">
  <ele>-0.11</ele>
  <time>2026-09-02T22:07:25Z</time>
  <course>11.39</course>
  <speed>0.7247068372797375</speed>
  <fix>3d</fix>
</trkpt>
<trkpt lat="33.8102485" lon="-118.3939487">
  <ele>-0.11</ele>
  <time>2026-09-02T22:07:25Z</time>
  <course>11.39</course>
  <speed>0.7247068372797375</speed>
  <fix>3d</fix>
</trkpt>
<trkpt lat="33.8102486" lon="-118.3939486">
  <ele>-0.11</ele>
  <time>2026-09-02T22:07:25Z</time>
  <course>11.39</course>
  <speed>0.7247068372797375</speed>
  <fix>3d</fix>
</trkpt>
<trkpt lat="33.8102486" lon="-118.3939486">
  <ele>-0.11</ele>
  <time>2026-09-02T22:07:25Z</time>
  <course>11.39</course>
  <speed>0.7247068372797375</speed>
  <fix>3d</fix>
</trkpt>
<trkpt lat="33.8102478" lon="-118.3939503">
  <ele>-0.1</ele>
  <time>2026-09-02T22:07:25Z</time>
  <course>48.18</course>
  <speed>0.73</speed>
  <fix>3d</fix>
</trkpt>
<trkpt lat="33.8102486" lon="-118.3939486">
  <ele>-0.11</ele>
  <time>2026-09-02T22:07:25Z</time>
  <course>11.39</course>
  <speed>0.7247068372797375</speed>
  <fix>3d</fix>
</trkpt>
<trkpt lat="33.8102487" lon="-118.3939485">
  <ele>-0.11</ele>
  <time>2026-09-02T22:07:25Z</time>
  <course>11.39</course>
  <speed>0.7247068372797375</speed>
  <fix>3d</fix>
</trkpt>
<trkpt lat="33.8102487" lon="-118.3939485">
  <ele>-0.109</ele>
  <time>2026-09-02T22:07:25Z</time>
  <course>11.39</course>
  <speed>0.7247068372797375</speed>
  <fix>3d</fix>
</trkpt>
<trkpt lat="33.8102487" lon="-118.3939484">
  <ele>-0.109</ele>
  <time>2026-09-02T22:07:25Z</time>
  <course>11.4</course>
  <speed>0.7247068372797375</speed>
  <fix>3d</fix>
</trkpt>
<trkpt lat="33.8102488" lon="-118.3939483">
  <ele>-0.109</ele>
  <time>2026-09-02T22:07:25Z</time>
  <course>11.4</course>
  <speed>0.7247068372797375</speed>
  <fix>3d</fix>
</trkpt>
<trkpt lat="33.8102488" lon="-118.3939483">
  <ele>-0.109</ele>
  <time>2026-09-02T22:07:25Z</time>
  <course>11.4</course>
  <speed>0.7247068372797375</speed>
  <fix>3d</fix>
</trkpt>
<trkpt lat="33.8102489" lon="-118.3939483">
  <ele>-0.109</ele>
  <time>2026-09-02T22:07:25Z</time>
  <course>11.4</course>
  <speed>0.7247068372797375</speed>
  <fix>3d</fix>
</trkpt>
<trkpt lat="33.8102489" lon="-118.3939482">
  <ele>-0.109</ele>
  <time>2026-09-02T22:07:25Z</time>
  <course>11.4</course>
  <speed>0.7247068372797375</speed>
  <fix>3d</fix>
</trkpt>
<trkpt lat="33.8102489" lon="-118.3939481">
  <ele>-0.109</ele>
  <time>2026-09-02T22:07:25Z</time>
  <course>11.4</course>
  <speed>0.7247068372797375</speed>
  <fix>3d</fix>
</trkpt>
<trkpt lat="33.810249" lon="-118.3939481">
  <ele>-0.109</ele>
  <time>2026-09-02T22:07:25Z</time>
  <course>11.4</course>
  <speed>0.7247068372797375</speed>
  <fix>3d</fix>
</trkpt>
<trkpt lat="33.810249" lon="-118.393948">
  <ele>-0.109</ele>
  <time>2026-09-02T22:07:25Z</time>
  <course>11.4</course>
  <speed>0.7247068372797375</speed>
  <fix>3d</fix>
</trkpt>
<trkpt lat="33.810249" lon="-118.393948">
  <ele>-0.109</ele>
  <time>2026-09-02T22:07:25Z</time>
  <course>11.4</course>
  <speed>0.7247068372797375</speed>
  <fix>3d</fix>
</trkpt>
<trkpt lat="33.8102487" lon="-118.393949">
  <ele>-0.1</ele>
  <time>2026-09-02T22:07:25Z</time>
  <course>48.19</course>
  <speed>0.73</speed>
  <fix>3d</fix>
</trkpt>
<trkpt lat="33.8102491" lon="-118.3939479">
  <ele>-0.109</ele>
  <time>2026-09-02T22:07:25Z</time>
  <course>11.4</course>
  <speed>0.7247068372797375</speed>
  <fix>3d</fix>
</trkpt>
<trkpt lat="33.8102492" lon="-118.3939479">
  <ele>-0.109</ele>
  <time>2026-09-02T22:07:25Z</time>
  <course>11.4</course>
  <speed>0.7247068372797375</speed>
  <fix>3d</fix>
</trkpt>
<trkpt lat="33.8102492" lon="-118.3939478">
  <ele>-0.109</ele>
  <time>2026-09-02T22:07:25Z</time>
  <course>11.4</course>
  <speed>0.7247068372797375</speed>
  <fix>3d</fix>
</trkpt>
<trkpt lat="33.8102492" lon="-118.3939478">
  <ele>-0.109</ele>
  <time>2026-09-02T22:07:25Z</time>
  <course>11.4</course>
  <speed>0.7247068372797375</speed>
  <fix>3d</fix>
</trkpt>
<trkpt lat="33.8102493" lon="-118.3939477">
  <ele>-0.109</ele>
  <time>2026-09-02T22:07:25Z</time>
  <course>11.4</course>
  <speed>0.7247068372797375</speed>
  <fix>3d</fix>
</trkpt>
<trkpt lat="33.8102493" lon="-118.3939477">
  <ele>-0.109</ele>
  <time>2026-09-02T22:07:25Z</time>
  <course>11.4</course>
  <speed>0.7247068372797375</speed>
  <fix>3d</fix>
</trkpt>
<trkpt lat="33.8102493" lon="-118.3939476">
  <ele>-0.109</ele>
  <time>2026-09-02T22:07:25Z</time>
  <course>11.4</course>
  <speed>0.7247068372797375</speed>
  <fix>3d</fix>
</trkpt>
<trkpt lat="33.8102494" lon="-118.3939476">
  <ele>-0.11</ele>
  <time>2026-09-02T22:07:25Z</time>
  <course>11.4</course>
  <speed>0.7247068372797375</speed>
  <fix>3d</fix>
</trkpt>
<trkpt lat="33.8102494" lon="-118.3939475">
  <ele>-0.11</ele>
  <time>2026-09-02T22:07:25Z</time>
  <course>11.4</course>
  <speed>0.7247068372797375</speed>
  <fix>3d</fix>
</trkpt>
<trkpt lat="33.8102494" lon="-118.3939475">
  <ele>-0.11</ele>
  <time>2026-09-02T22:07:25Z</time>
  <course>11.4</course>
  <speed>0.7247068372797375</speed>
  <fix>3d</fix>
</trkpt>
<trkpt lat="33.8102495" lon="-118.3939474">
  <ele>-0.11</ele>
  <time>2026-09-02T22:07:25Z</time>
  <course>11.4</course>
  <speed>0.7247068372797375</speed>
  <fix>3d</fix>
</trkpt>
<trkpt lat="33.8102495" lon="-118.3939474">
  <ele>-0.11</ele>
  <time>2026-09-02T22:07:25Z</time>
  <course>11.4</course>
  <speed>0.7247068372797375</speed>
  <fix>3d</fix>
</trkpt>
<trkpt lat="33.8102487" lon="-118.393949">
  <ele>-0.1</ele>
  <time>2026-09-02T22:07:25Z</time>
  <course>48.19</course>
  <speed>0.73</speed>
  <fix>3d</fix>
</trkpt>
<trkpt lat="33.8102495" lon="-118.3939473">
  <ele>-0.11</ele>
  <time>2026-09-02T22:07:25Z</time>
  <course>11.4</course>
  <speed>0.7247068372797375</speed>
  <fix>3d</fix>
</trkpt>
<trkpt lat="33.8102496" lon="-118.3939473">
  <ele>-0.11</ele>
  <time>2026-09-02T22:07:25Z</time>
  <course>11.4</course>
  <speed>0.7247068372797375</speed>
  <fix>3d</fix>
</trkpt>
<trkpt lat="33.8102496" lon="-118.3939472">
  <ele>-0.11</ele>
  <time>2026-09-02T22:07:25Z</time>
  <course>11.41</course>
  <speed>0.7247068372797375</speed>
  <fix>3d</fix>
</trkpt>
<trkpt lat="33.8102497" lon="-118.3939472">
  <ele>-0.11</ele>
  <time>2026-09-02T22:07:25Z</time>
  <course>11.41</course>
  <speed>0.7247068372797375</speed>
  <fix>3d</fix>
</trkpt>
<trkpt lat="33.8102497" lon="-118.3939471">
  <ele>-0.11</ele>
  <time>2026-09-02T22:07:25Z</time>
  <course>11.41</course>
  <speed>0.7247068372797375</speed>
  <fix>3d</fix>
</trkpt>
<trkpt lat="33.8102497" lon="-118.3939471">
  <ele>-0.11</ele>
  <time>2026-09-02T22:07:25Z</time>
  <course>11.41</course>
  <speed>0.7247068372797375</speed>
  <fix>3d</fix>
</trkpt>
<trkpt lat="33.8102498" lon="-118.393947">
  <ele>-0.111</ele>
  <time>2026-09-02T22:07:25Z</time>
  <course>11.41</course>
  <speed>0.7247068372797375</speed>
  <fix>3d</fix>
</trkpt>
<trkpt lat="33.8102498" lon="-118.393947">
  <ele>-0.111</ele>
  <time>2026-09-02T22:07:25Z</time>
  <course>11.41</course>
  <speed>0.7247068372797375</speed>
  <fix>3d</fix>
</trkpt>
<trkpt lat="33.8102498" lon="-118.393947">
  <ele>-0.111</ele>
  <time>2026-09-02T22:07:25Z</time>
  <course>11.41</course>
  <speed>0.7247068372797375</speed>
  <fix>3d</fix>
</trkpt>
<trkpt lat="33.8102499" lon="-118.3939469">
  <ele>-0.111</ele>
  <time>2026-09-02T22:07:25Z</time>
  <course>11.41</course>
  <speed>0.7247068372797375</speed>
  <fix>3d</fix>
</trkpt>
<trkpt lat="33.8102499" lon="-118.3939469">
  <ele>-0.111</ele>
  <time>2026-09-02T22:07:25Z</time>
  <course>11.41</course>
  <speed>0.7247068372797375</speed>
  <fix>3d</fix>
</trkpt>
<trkpt lat="33.8102499" lon="-118.3939468">
  <ele>-0.111</ele>
  <time>2026-09-02T22:07:25Z</time>
  <course>11.41</course>
  <speed>0.7247068372797375</speed>
  <fix>3d</fix>
</trkpt>
<trkpt lat="33.8102495" lon="-118.3939479">
  <ele>-0.1</ele>
  <time>2026-09-02T22:07:25Z</time>
  <course>48.2</course>
  <speed>0.73</speed>
  <fix>3d</fix>
</trkpt>
<trkpt lat="33.8102499" lon="-118.3939468">
  <ele>-0.111</ele>
  <time>2026-09-02T22:07:25Z</time>
  <course>11.41</course>
  <speed>0.7247068372797375</speed>
  <fix>3d</fix>
</trkpt>
<trkpt lat="33.81025" lon="-118.3939468">
  <ele>-0.111</ele>
  <time>2026-09-02T22:07:25Z</time>
  <course>11.41</course>
  <speed>0.7247068372797375</speed>
  <fix>3d</fix>
</trkpt>
<trkpt lat="33.81025" lon="-118.3939467">
  <ele>-0.112</ele>
  <time>2026-09-02T22:07:25Z</time>
  <course>11.41</course>
  <speed>0.7247068372797375</speed>
  <fix>3d</fix>
</trkpt>
<trkpt lat="33.8102501" lon="-118.3939466">
  <ele>-0.112</ele>
  <time>2026-09-02T22:07:25Z</time>
  <course>11.41</course>
  <speed>0.7247068372797375</speed>
  <fix>3d</fix>
</trkpt>
<trkpt lat="33.8102501" lon="-118.3939466">
  <ele>-0.112</ele>
  <time>2026-09-02T22:07:25Z</time>
  <course>11.41</course>
  <speed>0.7247068372797375</speed>
  <fix>3d</fix>
</trkpt>
<trkpt lat="33.8102502" lon="-118.3939465">
  <ele>-0.112</ele>
  <time>2026-09-02T22:07:25Z</time>
  <course>11.41</course>
  <speed>0.7247068372797375</speed>
  <fix>3d</fix>
</trkpt>
<trkpt lat="33.8102502" lon="-118.3939465">
  <ele>-0.112</ele>
  <time>2026-09-02T22:07:25Z</time>
  <course>11.41</course>
  <speed>0.7247068372797375</speed>
  <fix>3d</fix>
</trkpt>
<trkpt lat="33.8102502" lon="-118.3939464">
  <ele>-0.112</ele>
  <time>2026-09-02T22:07:25Z</time>
  <course>11.41</course>
  <speed>0.7247068372797375</speed>
  <fix>3d</fix>
</trkpt>
<trkpt lat="33.8102503" lon="-118.3939464">
  <ele>-0.112</ele>
  <time>2026-09-02T22:07:25Z</time>
  <course>11.41</course>
  <speed>0.7247068372797375</speed>
  <fix>3d</fix>
</trkpt>
<trkpt lat="33.8102503" lon="-118.3939463">
  <ele>-0.112</ele>
  <time>2026-09-02T22:07:25Z</time>
  <course>11.41</course>
  <speed>0.7247068372797375</speed>
  <fix>3d</fix>
</trkpt>
<trkpt lat="33.8102504" lon="-118.3939463">
  <ele>-0.112</ele>
  <time>2026-09-02T22:07:25Z</time>
  <course>11.41</course>
  <speed>0.7247068372797375</speed>
  <fix>3d</fix>
</trkpt>
<trkpt lat="33.8102504" lon="-118.3939462">
  <ele>-0.112</ele>
  <time>2026-09-02T22:07:25Z</time>
  <course>11.41</course>
  <speed>0.7247068372797375</speed>
  <fix>3d</fix>
</trkpt>
<trkpt lat="33.8102495" lon="-118.3939479">
  <ele>-0.1</ele>
  <time>2026-09-02T22:07:25Z</time>
  <course>48.2</course>
  <speed>0.73</speed>
  <fix>3d</fix>
</trkpt>
<trkpt lat="33.8102504" lon="-118.3939462">
  <ele>-0.112</ele>
  <time>2026-09-02T22:07:25Z</time>
  <course>11.41</course>
  <speed>0.7247068372797375</speed>
  <fix>3d</fix>
</trkpt>
<trkpt lat="33.8102504" lon="-118.3939462">
  <ele>-0.112</ele>
  <time>2026-09-02T22:07:25Z</time>
  <course>11.41</course>
  <speed>0.7247068372797375</speed>
  <fix>3d</fix>
</trkpt>
<trkpt lat="33.8102505" lon="-118.3939461">
  <ele>-0.112</ele>
  <time>2026-09-02T22:07:25Z</time>
  <course>11.41</course>
  <speed>0.7247068372797375</speed>
  <fix>3d</fix>
</trkpt>
<trkpt lat="33.8102505" lon="-118.3939461">
  <ele>-0.112</ele>
  <time>2026-09-02T22:07:25Z</time>
  <course>11.41</course>
  <speed>0.7247068372797375</speed>
  <fix>3d</fix>
</trkpt>
<trkpt lat="33.8102505" lon="-118.393946">
  <ele>-0.112</ele>
  <time>2026-09-02T22:07:25Z</time>
  <course>11.42</course>
  <speed>0.7247068372797375</speed>
  <fix>3d</fix>
</trkpt>
<trkpt lat="33.8102506" lon="-118.393946">
  <ele>-0.112</ele>
  <time>2026-09-02T22:07:25Z</time>
  <course>11.42</course>
  <speed>0.7247068372797375</speed>
  <fix>3d</fix>
</trkpt>
<trkpt lat="33.8102506" lon="-118.3939459">
  <ele>-0.112</ele>
  <time>2026-09-02T22:07:25Z</time>
  <course>11.42</course>
  <speed>0.7247068372797375</speed>
  <fix>3d</fix>
</trkpt>
<trkpt lat="33.8102506" lon="-118.3939459">
  <ele>-0.112</ele>
  <time>2026-09-02T22:07:25Z</time>
  <course>11.42</course>
  <speed>0.7247068372797375</speed>
  <fix>3d</fix>
</trkpt>
<trkpt lat="33.8102507" lon="-118.3939458">
  <ele>-0.112</ele>
  <time>2026-09-02T22:07:25Z</time>
  <course>11.42</course>
  <speed>0.7247068372797375</speed>
  <fix>3d</fix>
</trkpt>
<trkpt lat="33.8102507" lon="-118.3939458">
  <ele>-0.112</ele>
  <time>2026-09-02T22:07:25Z</time>
  <course>11.42</course>
  <speed>0.7247068372797375</speed>
  <fix>3d</fix>
</trkpt>
<trkpt lat="33.8102508" lon="-118.3939457">
  <ele>-0.112</ele>
  <time>2026-09-02T22:07:25Z</time>
  <course>11.42</course>
  <speed>0.7247068372797375</speed>
  <fix>3d</fix>
</trkpt>
<trkpt lat="33.8102508" lon="-118.3939457">
  <ele>-0.112</ele>
  <time>2026-09-02T22:07:25Z</time>
  <course>11.42</course>
  <speed>0.7247068372797375</speed>
  <fix>3d</fix>
</trkpt>
<trkpt lat="33.8102508" lon="-118.3939456">
  <ele>-0.112</ele>
  <time>2026-09-02T22:07:25Z</time>
  <course>11.42</course>
  <speed>0.7247068372797375</speed>
  <fix>3d</fix>
</trkpt>
<trkpt lat="33.8102504" lon="-118.3939466">
  <ele>-0.1</ele>
  <time>2026-09-02T22:07:25Z</time>
  <course>48.21</course>
  <speed>0.73</speed>
  <fix>3d</fix>
</trkpt>
<trkpt lat="33.8102508" lon="-118.3939456">
  <ele>-0.112</ele>
  <time>2026-09-02T22:07:25Z</time>
  <course>11.42</course>
  <speed>0.7247068372797375</speed>
  <fix>3d</fix>
</trkpt>
<trkpt lat="33.8102509" lon="-118.3939456">
  <ele>-0.111</ele>
  <time>2026-09-02T22:07:25Z</time>
  <course>11.42</course>
  <speed>0.7247068372797375</speed>
  <fix>3d</fix>
</trkpt>
<trkpt lat="33.8102509" lon="-118.3939455">
  <ele>-0.111</ele>
  <time>2026-09-02T22:07:25Z</time>
  <course>11.42</course>
  <speed>0.7247068372797375</speed>
  <fix>3d</fix>
</trkpt>
<trkpt lat="33.810251" lon="-118.3939454">
  <ele>-0.111</ele>
  <time>2026-09-02T22:07:25Z</time>
  <course>11.42</course>
  <speed>0.7247068372797375</speed>
  <fix>3d</fix>
</trkpt>
<trkpt lat="33.810251" lon="-118.3939454">
  <ele>-0.111</ele>
  <time>2026-09-02T22:07:25Z</time>
  <course>11.42</course>
  <speed>0.7247068372797375</speed>
  <fix>3d</fix>
</trkpt>
<trkpt lat="33.810251" lon="-118.3939454">
  <ele>-0.111</ele>
  <time>2026-09-02T22:07:25Z</time>
  <course>11.42</course>
  <speed>0.7247068372797375</speed>
  <fix>3d</fix>
</trkpt>
<trkpt lat="33.8102511" lon="-118.3939453">
  <ele>-0.111</ele>
  <time>2026-09-02T22:07:25Z</time>
  <course>11.42</course>
  <speed>0.7247068372797375</speed>
  <fix>3d</fix>
</trkpt>
<trkpt lat="33.8102511" lon="-118.3939452">
  <ele>-0.111</ele>
  <time>2026-09-02T22:07:25Z</time>
  <course>11.42</course>
  <speed>0.7247068372797375</speed>
  <fix>3d</fix>
</trkpt>
<trkpt lat="33.8102511" lon="-118.3939452">
  <ele>-0.111</ele>
  <time>2026-09-02T22:07:25Z</time>
  <course>11.42</course>
  <speed>0.7247068372797375</speed>
  <fix>3d</fix>
</trkpt>
<trkpt lat="33.8102512" lon="-118.3939452">
  <ele>-0.111</ele>
  <time>2026-09-02T22:07:25Z</time>
  <course>11.42</course>
  <speed>0.7247068372797375</speed>
  <fix>3d</fix>
</trkpt>
<trkpt lat="33.8102512" lon="-118.3939451">
  <ele>-0.111</ele>
  <time>2026-09-02T22:07:25Z</time>
  <course>11.42</course>
  <speed>0.7247068372797375</speed>
  <fix>3d</fix>
</trkpt>
<trkpt lat="33.8102512" lon="-118.3939451">
  <ele>-0.111</ele>
  <time>2026-09-02T22:07:25Z</time>
  <course>11.42</course>
  <speed>0.7247068372797375</speed>
  <fix>3d</fix>
</trkpt>
<trkpt lat="33.8102512" lon="-118.3939451">
  <ele>-0.111</ele>
  <time>2026-09-02T22:07:25Z</time>
  <course>11.42</course>
  <speed>0.7247068372797375</speed>
  <fix>3d</fix>
</trkpt>
<trkpt lat="33.8102504" lon="-118.3939466">
  <ele>-0.1</ele>
  <time>2026-09-02T22:07:25Z</time>
  <course>48.21</course>
  <speed>0.73</speed>
  <fix>3d</fix>
</trkpt>
<trkpt lat="33.8102513" lon="-118.393945">
  <ele>-0.111</ele>
  <time>2026-09-02T22:07:25Z</time>
  <course>11.42</course>
  <speed>0.7247068372797375</speed>
  <fix>3d</fix>
</trkpt>
<trkpt lat="33.8102514" lon="-118.3939449">
  <ele>-0.11</ele>
  <time>2026-09-02T22:07:25Z</time>
  <course>11.42</course>
  <speed>0.7247068372797375</speed>
  <fix>3d</fix>
</trkpt>
<trkpt lat="33.8102514" lon="-118.3939448">
  <ele>-0.11</ele>
  <time>2026-09-02T22:07:25Z</time>
  <course>11.42</course>
  <speed>0.7247068372797375</speed>
  <fix>3d</fix>
</trkpt>
<trkpt lat="33.8102514" lon="-118.3939448">
  <ele>-0.11</ele>
  <time>2026-09-02T22:07:25Z</time>
  <course>11.43</course>
  <speed>0.7247068372797375</speed>
  <fix>3d</fix>
</trkpt>
<trkpt lat="33.8102515" lon="-118.3939448">
  <ele>-0.11</ele>
  <time>2026-09-02T22:07:25Z</time>
  <course>11.43</course>
  <speed>0.7247068372797375</speed>
  <fix>3d</fix>
</trkpt>
<trkpt lat="33.8102515" lon="-118.3939447">
  <ele>-0.11</ele>
  <time>2026-09-02T22:07:25Z</time>
  <course>11.43</course>
  <speed>0.7247068372797375</speed>
  <fix>3d</fix>
</trkpt>
<trkpt lat="33.8102515" lon="-118.3939447">
  <ele>-0.11</ele>
  <time>2026-09-02T22:07:25Z</time>
  <course>11.43</course>
  <speed>0.7247068372797375</speed>
  <fix>3d</fix>
</trkpt>
<trkpt lat="33.8102516" lon="-118.3939446">
  <ele>-0.11</ele>
  <time>2026-09-02T22:07:25Z</time>
  <course>11.43</course>
  <speed>0.7247068372797375</speed>
  <fix>3d</fix>
</trkpt>
<trkpt lat="33.8102516" lon="-118.3939446">
  <ele>-0.11</ele>
  <time>2026-09-02T22:07:25Z</time>
  <course>11.43</course>
  <speed>0.7247068372797375</speed>
  <fix>3d</fix>
</trkpt>
<trkpt lat="33.8102516" lon="-118.3939445">
  <ele>-0.11</ele>
  <time>2026-09-02T22:07:25Z</time>
  <course>11.43</course>
  <speed>0.7247068372797375</speed>
  <fix>3d</fix>
</trkpt>
<trkpt lat="33.8102517" lon="-118.3939445">
  <ele>-0.11</ele>
  <time>2026-09-02T22:07:25Z</time>
  <course>11.43</course>
  <speed>0.7247068372797375</speed>
  <fix>3d</fix>
</trkpt>
<trkpt lat="33.8102517" lon="-118.3939445">
  <ele>-0.11</ele>
  <time>2026-09-02T22:07:25Z</time>
  <course>11.43</course>
  <speed>0.7247068372797375</speed>
  <fix>3d</fix>
</trkpt>
<trkpt lat="33.8102513" lon="-118.3939455">
  <ele>-0.1</ele>
  <time>2026-09-02T22:07:25Z</time>
  <course>48.22</course>
  <speed>0.73</speed>
  <fix>3d</fix>
</trkpt>
<trkpt lat="33.8102517" lon="-118.3939444">
  <ele>-0.11</ele>
  <time>2026-09-02T22:07:25Z</time>
  <course>11.43</course>
  <speed>0.7247068372797375</speed>
  <fix>3d</fix>
</trkpt>
<trkpt lat="33.8102518" lon="-118.3939444">
  <ele>-0.11</ele>
  <time>2026-09-02T22:07:25Z</time>
  <course>11.43</course>
  <speed>0.7247068372797375</speed>
  <fix>3d</fix>
</trkpt>
<trkpt lat="33.8102518" lon="-118.3939443">
  <ele>-0.11</ele>
  <time>2026-09-02T22:07:25Z</time>
  <course>11.43</course>
  <speed>0.7247068372797375</speed>
  <fix>3d</fix>
</trkpt>
<trkpt lat="33.8102518" lon="-118.3939443">
  <ele>-0.109</ele>
  <time>2026-09-02T22:07:25Z</time>
  <course>11.43</course>
  <speed>0.7247068372797375</speed>
  <fix>3d</fix>
</trkpt>
<trkpt lat="33.8102519" lon="-118.3939442">
  <ele>-0.109</ele>
  <time>2026-09-02T22:07:25Z</time>
  <course>11.43</course>
  <speed>0.7247068372797375</speed>
  <fix>3d</fix>
</trkpt>
<trkpt lat="33.8102519" lon="-118.3939442">
  <ele>-0.109</ele>
  <time>2026-09-02T22:07:25Z</time>
  <course>11.43</course>
  <speed>0.7247068372797375</speed>
  <fix>3d</fix>
</trkpt>
<trkpt lat="33.8102519" lon="-118.3939441">
  <ele>-0.109</ele>
  <time>2026-09-02T22:07:25Z</time>
  <course>11.43</course>
  <speed>0.7247068372797375</speed>
  <fix>3d</fix>
</trkpt>
<trkpt lat="33.810252" lon="-118.3939441">
  <ele>-0.109</ele>
  <time>2026-09-02T22:07:25Z</time>
  <course>11.43</course>
  <speed>0.7247068372797375</speed>
  <fix>3d</fix>
</trkpt>
<trkpt lat="33.810252" lon="-118.393944">
  <ele>-0.109</ele>
  <time>2026-09-02T22:07:25Z</time>
  <course>11.43</course>
  <speed>0.7247068372797375</speed>
  <fix>3d</fix>
</trkpt>
<trkpt lat="33.810252" lon="-118.393944">
  <ele>-0.109</ele>
  <time>2026-09-02T22:07:25Z</time>
  <course>11.43</course>
  <speed>0.7247068372797375</speed>
  <fix>3d</fix>
</trkpt>
<trkpt lat="33.8102521" lon="-118.3939439">
  <ele>-0.109</ele>
  <time>2026-09-02T22:07:25Z</time>
  <course>11.43</course>
  <speed>0.7247068372797375</speed>
  <fix>3d</fix>
</trkpt>
<trkpt lat="33.8102521" lon="-118.3939439">
  <ele>-0.108</ele>
  <time>2026-09-02T22:07:25Z</time>
  <course>11.43</course>
  <speed>0.7247068372797375</speed>
  <fix>3d</fix>
</trkpt>
<trkpt lat="33.8102521" lon="-118.3939439">
  <ele>-0.108</ele>
  <time>2026-09-02T22:07:25Z</time>
  <course>11.43</course>
  <speed>0.7247068372797375</speed>
  <fix>3d</fix>
</trkpt>
<trkpt lat="33.8102513" lon="-118.3939455">
  <ele>-0.1</ele>
  <time>2026-09-02T22:07:25Z</time>
  <course>48.22</course>
  <speed>0.73</speed>
  <fix>3d</fix>
</trkpt>
<trkpt lat="33.8102521" lon="-118.3939438">
  <ele>-0.108</ele>
  <time>2026-09-02T22:07:25Z</time>
  <course>11.43</course>
  <speed>0.7247068372797375</speed>
  <fix>3d</fix>
</trkpt>
<trkpt lat="33.8102522" lon="-118.3939438">
  <ele>-0.108</ele>
  <time>2026-09-02T22:07:25Z</time>
  <course>11.43</course>
  <speed>0.7247068372797375</speed>
  <fix>3d</fix>
</trkpt>
<trkpt lat="33.8102522" lon="-118.3939437">
  <ele>-0.108</ele>
  <time>2026-09-02T22:07:25Z</time>
  <course>11.43</course>
  <speed>0.7247068372797375</speed>
  <fix>3d</fix>
</trkpt>
<trkpt lat="33.8102523" lon="-118.3939437">
  <ele>-0.108</ele>
  <time>2026-09-02T22:07:25Z</time>
  <course>11.43</course>
  <speed>0.7247068372797375</speed>
  <fix>3d</fix>
</trkpt>
<trkpt lat="33.8102523" lon="-118.3939436">
  <ele>-0.108</ele>
  <time>2026-09-02T22:07:25Z</time>
  <course>11.43</course>
  <speed>0.7247068372797375</speed>
  <fix>3d</fix>
</trkpt>
<trkpt lat="33.8102523" lon="-118.3939436">
  <ele>-0.108</ele>
  <time>2026-09-02T22:07:25Z</time>
  <course>11.43</course>
  <speed>0.7247068372797375</speed>
  <fix>3d</fix>
</trkpt>
<trkpt lat="33.8102524" lon="-118.3939435">
  <ele>-0.108</ele>
  <time>2026-09-02T22:07:25Z</time>
  <course>11.44</course>
  <speed>0.7247068372797375</speed>
  <fix>3d</fix>
</trkpt>
<trkpt lat="33.8102524" lon="-118.3939435">
  <ele>-0.108</ele>
  <time>2026-09-02T22:07:25Z</time>
  <course>11.44</course>
  <speed>0.7247068372797375</speed>
  <fix>3d</fix>
</trkpt>
<trkpt lat="33.8102524" lon="-118.3939434">
  <ele>-0.108</ele>
  <time>2026-09-02T22:07:25Z</time>
  <course>11.44</course>
  <speed>0.7247068372797375</speed>
  <fix>3d</fix>
</trkpt>
<trkpt lat="33.8102525" lon="-118.3939434">
  <ele>-0.108</ele>
  <time>2026-09-02T22:07:25Z</time>
  <course>11.44</course>
  <speed>0.7247068372797375</speed>
  <fix>3d</fix>
</trkpt>
<trkpt lat="33.8102525" lon="-118.3939433">
  <ele>-0.108</ele>
  <time>2026-09-02T22:07:25Z</time>
  <course>11.44</course>
  <speed>0.7247068372797375</speed>
  <fix>3d</fix>
</trkpt>
<trkpt lat="33.8102526" lon="-118.3939433">
  <ele>-0.108</ele>
  <time>2026-09-02T22:07:25Z</time>
  <course>11.44</course>
  <speed>0.7247068372797375</speed>
  <fix>3d</fix>
</trkpt>
<trkpt lat="33.8102526" lon="-118.3939433">
  <ele>-0.108</ele>
  <time>2026-09-02T22:07:25Z</time>
  <course>11.44</course>
  <speed>0.7247068372797375</speed>
  <fix>3d</fix>
</trkpt>
<trkpt lat="33.8102522" lon="-118.3939443">
  <ele>-0.1</ele>
  <time>2026-09-02T22:07:25Z</time>
  <course>48.22</course>
  <speed>0.73</speed>
  <fix>3d</fix>
</trkpt>
<trkpt lat="33.8102526" lon="-118.3939433">
  <ele>-0.108</ele>
  <time>2026-09-02T22:07:25Z</time>
  <course>11.44</course>
  <speed>0.7247068372797375</speed>
  <fix>3d</fix>
</trkpt>
<trkpt lat="33.8102526" lon="-118.3939432">
  <ele>-0.108</ele>
  <time>2026-09-02T22:07:25Z</time>
  <course>11.44</course>
  <speed>0.7247068372797375</speed>
  <fix>3d</fix>
</trkpt>
<trkpt lat="33.8102527" lon="-118.3939431">
  <ele>-0.108</ele>
  <time>2026-09-02T22:07:25Z</time>
  <course>11.44</course>
  <speed>0.7247068372797375</speed>
  <fix>3d</fix>
</trkpt>
<trkpt lat="33.8102527" lon="-118.3939431">
  <ele>-0.108</ele>
  <time>2026-09-02T22:07:25Z</time>
  <course>11.44</course>
  <speed>0.7247068372797375</speed>
  <fix>3d</fix>
</trkpt>
<trkpt lat="33.8102527" lon="-118.393943">
  <ele>-0.108</ele>
  <time>2026-09-02T22:07:25Z</time>
  <course>11.44</course>
  <speed>0.7247068372797375</speed>
  <fix>3d</fix>
</trkpt>
<trkpt lat="33.8102528" lon="-118.393943">
  <ele>-0.108</ele>
  <time>2026-09-02T22:07:25Z</time>
  <course>11.44</course>
  <speed>0.7247068372797375</speed>
  <fix>3d</fix>
</trkpt>
<trkpt lat="33.8102528" lon="-118.3939429">
  <ele>-0.108</ele>
  <time>2026-09-02T22:07:25Z</time>
  <course>11.44</course>
  <speed>0.7247068372797375</speed>
  <fix>3d</fix>
</trkpt>
<trkpt lat="33.8102528" lon="-118.3939429">
  <ele>-0.108</ele>
  <time>2026-09-02T22:07:25Z</time>
  <course>11.44</course>
  <speed>0.7247068372797375</speed>
  <fix>3d</fix>
</trkpt>
<trkpt lat="33.8102529" lon="-118.3939429">
  <ele>-0.108</ele>
  <time>2026-09-02T22:07:25Z</time>
  <course>11.44</course>
  <speed>0.7247068372797375</speed>
  <fix>3d</fix>
</trkpt>
<trkpt lat="33.8102529" lon="-118.3939428">
  <ele>-0.108</ele>
  <time>2026-09-02T22:07:25Z</time>
  <course>11.44</course>
  <speed>0.7247068372797375</speed>
  <fix>3d</fix>
</trkpt>
<trkpt lat="33.810253" lon="-118.3939428">
  <ele>-0.108</ele>
  <time>2026-09-02T22:07:25Z</time>
  <course>11.44</course>
  <speed>0.7247068372797375</speed>
  <fix>3d</fix>
</trkpt>
<trkpt lat="33.810253" lon="-118.3939427">
  <ele>-0.108</ele>
  <time>2026-09-02T22:07:25Z</time>
  <course>11.44</course>
  <speed>0.7247068372797375</speed>
  <fix>3d</fix>
</trkpt>
<trkpt lat="33.810253" lon="-118.3939427">
  <ele>-0.108</ele>
  <time>2026-09-02T22:07:25Z</time>
  <course>11.44</course>
  <speed>0.7247068372797375</speed>
  <fix>3d</fix>
</trkpt>
<trkpt lat="33.8102522" lon="-118.3939443">
  <ele>-0.1</ele>
  <time>2026-09-02T22:07:25Z</time>
  <course>48.22</course>
  <speed>0.73</speed>
  <fix>3d</fix>
</trkpt>
<trkpt lat="33.810253" lon="-118.3939427">
  <ele>-0.108</ele>
  <time>2026-09-02T22:07:25Z</time>
  <course>11.44</course>
  <speed>0.7247068372797375</speed>
  <fix>3d</fix>
</trkpt>
<trkpt lat="33.8102531" lon="-118.3939426">
  <ele>-0.108</ele>
  <time>2026-09-02T22:07:25Z</time>
  <course>11.44</course>
  <speed>0.7247068372797375</speed>
  <fix>3d</fix>
</trkpt>
<trkpt lat="33.8102531" lon="-118.3939425">
  <ele>-0.108</ele>
  <time>2026-09-02T22:07:25Z</time>
  <course>11.44</course>
  <speed>0.7247068372797375</speed>
  <fix>3d</fix>
</trkpt>
<trkpt lat="33.8102532" lon="-118.3939425">
  <ele>-0.108</ele>
  <time>2026-09-02T22:07:25Z</time>
  <course>11.44</course>
  <speed>0.7247068372797375</speed>
  <fix>3d</fix>
</trkpt>
<trkpt lat="33.8102532" lon="-118.3939424">
  <ele>-0.108</ele>
  <time>2026-09-02T22:07:25Z</time>
  <course>11.44</course>
  <speed>0.7247068372797375</speed>
  <fix>3d</fix>
</trkpt>
<trkpt lat="33.8102532" lon="-118.3939424">
  <ele>-0.108</ele>
  <time>2026-09-02T22:07:25Z</time>
  <course>11.44</course>
  <speed>0.7247068372797375</speed>
  <fix>3d</fix>
</trkpt>
<trkpt lat="33.8102533" lon="-118.3939423">
  <ele>-0.108</ele>
  <time>2026-09-02T22:07:25Z</time>
  <course>11.44</course>
  <speed>0.7247068372797375</speed>
  <fix>3d</fix>
</trkpt>
<trkpt lat="33.8102533" lon="-118.3939423">
  <ele>-0.108</ele>
  <time>2026-09-02T22:07:25Z</time>
  <course>11.45</course>
  <speed>0.7247068372797375</speed>
  <fix>3d</fix>
</trkpt>
<trkpt lat="33.8102533" lon="-118.3939422">
  <ele>-0.108</ele>
  <time>2026-09-02T22:07:25Z</time>
  <course>11.45</course>
  <speed>0.7247068372797375</speed>
  <fix>3d</fix>
</trkpt>
<trkpt lat="33.8102534" lon="-118.3939422">
  <ele>-0.108</ele>
  <time>2026-09-02T22:07:25Z</time>
  <course>11.45</course>
  <speed>0.7247068372797375</speed>
  <fix>3d</fix>
</trkpt>
<trkpt lat="33.8102534" lon="-118.3939421">
  <ele>-0.108</ele>
  <time>2026-09-02T22:07:25Z</time>
  <course>11.45</course>
  <speed>0.7247068372797375</speed>
  <fix>3d</fix>
</trkpt>
<trkpt lat="33.8102535" lon="-118.3939421">
  <ele>-0.109</ele>
  <time>2026-09-02T22:07:25Z</time>
  <course>11.45</course>
  <speed>0.7247068372797375</speed>
  <fix>3d</fix>
</trkpt>
<trkpt lat="33.8102535" lon="-118.3939421">
  <ele>-0.109</ele>
  <time>2026-09-02T22:07:25Z</time>
  <course>11.45</course>
  <speed>0.7247068372797375</speed>
  <fix>3d</fix>
</trkpt>
<trkpt lat="33.8102531" lon="-118.3939432">
  <ele>-0.1</ele>
  <time>2026-09-02T22:07:25Z</time>
  <course>48.23</course>
  <speed>0.73</speed>
  <fix>3d</fix>
</trkpt>
<trkpt lat="33.8102535" lon="-118.393942">
  <ele>-0.109</ele>
  <time>2026-09-02T22:07:25Z</time>
  <course>11.45</course>
  <speed>0.7247068372797375</speed>
  <fix>3d</fix>
</trkpt>
<trkpt lat="33.8102536" lon="-118.393942">
  <ele>-0.109</ele>
  <time>2026-09-02T22:07:25Z</time>
  <course>11.45</course>
  <speed>0.7247068372797375</speed>
  <fix>3d</fix>
</trkpt>
<trkpt lat="33.8102536" lon="-118.3939419">
  <ele>-0.109</ele>
  <time>2026-09-02T22:07:25Z</time>
  <course>11.45</course>
  <speed>0.7247068372797375</speed>
  <fix>3d</fix>
</trkpt>
<trkpt lat="33.8102536" lon="-118.3939419">
  <ele>-0.109</ele>
  <time>2026-09-02T22:07:25Z</time>
  <course>11.45</course>
  <speed>0.7247068372797375</speed>
  <fix>3d</fix>
</trkpt>
<trkpt lat="33.8102536" lon="-118.3939418">
  <ele>-0.109</ele>
  <time>2026-09-02T22:07:25Z</time>
  <course>11.45</course>
  <speed>0.7247068372797375</speed>
  <fix>3d</fix>
</trkpt>
<trkpt lat="33.8102537" lon="-118.3939418">
  <ele>-0.109</ele>
  <time>2026-09-02T22:07:25Z</time>
  <course>11.45</course>
  <speed>0.7247068372797375</speed>
  <fix>3d</fix>
</trkpt>
<trkpt lat="33.8102537" lon="-118.3939417">
  <ele>-0.11</ele>
  <time>2026-09-02T22:07:25Z</time>
  <course>11.45</course>
  <speed>0.7247068372797375</speed>
  <fix>3d</fix>
</trkpt>
<trkpt lat="33.8102538" lon="-118.3939417">
  <ele>-0.11</ele>
  <time>2026-09-02T22:07:25Z</time>
  <course>11.45</course>
  <speed>0.7247068372797375</speed>
  <fix>3d</fix>
</trkpt>
<trkpt lat="33.8102538" lon="-118.3939416">
  <ele>-0.11</ele>
  <time>2026-09-02T22:07:25Z</time>
  <course>11.45</course>
  <speed>0.7247068372797375</speed>
  <fix>3d</fix>
</trkpt>
<trkpt lat="33.8102538" lon="-118.3939416">
  <ele>-0.11</ele>
  <time>2026-09-02T22:07:25Z</time>
  <course>11.45</course>
  <speed>0.7247068372797375</speed>
  <fix>3d</fix>
</trkpt>
<trkpt lat="33.8102539" lon="-118.3939415">
  <ele>-0.11</ele>
  <time>2026-09-02T22:07:25Z</time>
  <course>11.45</course>
  <speed>0.7247068372797375</speed>
  <fix>3d</fix>
</trkpt>
<trkpt lat="33.8102539" lon="-118.3939415">
  <ele>-0.11</ele>
  <time>2026-09-02T22:07:25Z</time>
  <course>11.45</course>
  <speed>0.7247068372797375</speed>
  <fix>3d</fix>
</trkpt>
<trkpt lat="33.8102539" lon="-118.3939415">
  <ele>-0.11</ele>
  <time>2026-09-02T22:07:25Z</time>
  <course>11.45</course>
  <speed>0.7247068372797375</speed>
  <fix>3d</fix>
</trkpt>
<trkpt lat="33.8102531" lon="-118.3939432">
  <ele>-0.1</ele>
  <time>2026-09-02T22:07:25Z</time>
  <course>48.23</course>
  <speed>0.73</speed>
  <fix>3d</fix>
</trkpt>
<trkpt lat="33.810254" lon="-118.3939414">
  <ele>-0.11</ele>
  <time>2026-09-02T22:07:25Z</time>
  <course>11.45</course>
  <speed>0.7247068372797375</speed>
  <fix>3d</fix>
</trkpt>
<trkpt lat="33.810254" lon="-118.3939413">
  <ele>-0.111</ele>
  <time>2026-09-02T22:07:25Z</time>
  <course>11.45</course>
  <speed>0.7247068372797375</speed>
  <fix>3d</fix>
</trkpt>
<trkpt lat="33.810254" lon="-118.3939413">
  <ele>-0.111</ele>
  <time>2026-09-02T22:07:25Z</time>
  <course>11.45</course>
  <speed>0.7247068372797375</speed>
  <fix>3d</fix>
</trkpt>
<trkpt lat="33.8102541" lon="-118.3939413">
  <ele>-0.111</ele>
  <time>2026-09-02T22:07:25Z</time>
  <course>11.45</course>
  <speed>0.7247068372797375</speed>
  <fix>3d</fix>
</trkpt>
<trkpt lat="33.8102541" lon="-118.3939412">
  <ele>-0.111</ele>
  <time>2026-09-02T22:07:25Z</time>
  <course>11.45</course>
  <speed>0.7247068372797375</speed>
  <fix>3d</fix>
</trkpt>
<trkpt lat="33.8102541" lon="-118.3939412">
  <ele>-0.111</ele>
  <time>2026-09-02T22:07:25Z</time>
  <course>11.45</course>
  <speed>0.7247068372797375</speed>
  <fix>3d</fix>
</trkpt>
<trkpt lat="33.8102542" lon="-118.3939411">
  <ele>-0.111</ele>
  <time>2026-09-02T22:07:25Z</time>
  <course>11.45</course>
  <speed>0.7247068372797375</speed>
  <fix>3d</fix>
</trkpt>
<trkpt lat="33.8102542" lon="-118.3939411">
  <ele>-0.111</ele>
  <time>2026-09-02T22:07:25Z</time>
  <course>11.45</course>
  <speed>0.7247068372797375</speed>
  <fix>3d</fix>
</trkpt>
<trkpt lat="33.8102542" lon="-118.393941">
  <ele>-0.111</ele>
  <time>2026-09-02T22:07:25Z</time>
  <course>11.45</course>
  <speed>0.7247068372797375</speed>
  <fix>3d</fix>
</trkpt>
<trkpt lat="33.8102543" lon="-118.393941">
  <ele>-0.111</ele>
  <time>2026-09-02T22:07:25Z</time>
  <course>11.45</course>
  <speed>0.7247068372797375</speed>
  <fix>3d</fix>
</trkpt>
<trkpt lat="33.8102543" lon="-118.3939409">
  <ele>-0.111</ele>
  <time>2026-09-02T22:07:25Z</time>
  <course>11.46</course>
  <speed>0.7247068372797375</speed>
  <fix>3d</fix>
</trkpt>
<trkpt lat="33.8102543" lon="-118.3939409">
  <ele>-0.111</ele>
  <time>2026-09-02T22:07:25Z</time>
  <course>11.46</course>
  <speed>0.7247068372797375</speed>
  <fix>3d</fix>
</trkpt>
<trkpt lat="33.8102539" lon="-118.3939419">
  <ele>-0.1</ele>
  <time>2026-09-02T22:07:25Z</time>
  <course>48.24</course>
  <speed>0.73</speed>
  <fix>3d</fix>
</trkpt>
<trkpt lat="33.8102543" lon="-118.3939409">
  <ele>-0.111</ele>
  <time>2026-09-02T22:07:25Z</time>
  <course>11.46</course>
  <speed>0.7247068372797375</speed>
  <fix>3d</fix>
</trkpt>
<trkpt lat="33.8102544" lon="-118.3939408">
  <ele>-0.112</ele>
  <time>2026-09-02T22:07:25Z</time>
  <course>11.46</course>
  <speed>0.7247068372797375</speed>
  <fix>3d</fix>
</trkpt>
<trkpt lat="33.8102544" lon="-118.3939408">
  <ele>-0.112</ele>
  <time>2026-09-02T22:07:25Z</time>
  <course>11.46</course>
  <speed>0.7247068372797375</speed>
  <fix>3d</fix>
</trkpt>
<trkpt lat="33.8102545" lon="-118.3939407">
  <ele>-0.112</ele>
  <time>2026-09-02T22:07:25Z</time>
  <course>11.46</course>
  <speed>0.7247068372797375</speed>
  <fix>3d</fix>
</trkpt>
<trkpt lat="33.8102545" lon="-118.3939407">
  <ele>-0.112</ele>
  <time>2026-09-02T22:07:25Z</time>
  <course>11.46</course>
  <speed>0.7247068372797375</speed>
  <fix>3d</fix>
</trkpt>
<trkpt lat="33.8102545" lon="-118.3939406">
  <ele>-0.112</ele>
  <time>2026-09-02T22:07:25Z</time>
  <course>11.46</course>
  <speed>0.7247068372797375</speed>
  <fix>3d</fix>
</trkpt>
<trkpt lat="33.8102546" lon="-118.3939406">
  <ele>-0.112</ele>
  <time>2026-09-02T22:07:25Z</time>
  <course>11.46</course>
  <speed>0.7247068372797375</speed>
  <fix>3d</fix>
</trkpt>
<trkpt lat="33.8102546" lon="-118.3939405">
  <ele>-0.112</ele>
  <time>2026-09-02T22:07:25Z</time>
  <course>11.46</course>
  <speed>0.7247068372797375</speed>
  <fix>3d</fix>
</trkpt>
<trkpt lat="33.8102546" lon="-118.3939405">
  <ele>-0.112</ele>
  <time>2026-09-02T22:07:25Z</time>
  <course>11.46</course>
  <speed>0.7247068372797375</speed>
  <fix>3d</fix>
</trkpt>
<trkpt lat="33.8102547" lon="-118.3939405">
  <ele>-0.112</ele>
  <time>2026-09-02T22:07:25Z</time>
  <course>11.46</course>
  <speed>0.7247068372797375</speed>
  <fix>3d</fix>
</trkpt>
<trkpt lat="33.8102547" lon="-118.3939404">
  <ele>-0.112</ele>
  <time>2026-09-02T22:07:25Z</time>
  <course>11.46</course>
  <speed>0.7247068372797375</speed>
  <fix>3d</fix>
</trkpt>
<trkpt lat="33.8102547" lon="-118.3939404">
  <ele>-0.112</ele>
  <time>2026-09-02T22:07:25Z</time>
  <course>11.46</course>
  <speed>0.7247068372797375</speed>
  <fix>3d</fix>
</trkpt>
<trkpt lat="33.8102548" lon="-118.3939403">
  <ele>-0.113</ele>
  <time>2026-09-02T22:07:25Z</time>
  <course>11.46</course>
  <speed>0.7247068372797375</speed>
  <fix>3d</fix>
</trkpt>
<trkpt lat="33.8102539" lon="-118.3939419">
  <ele>-0.1</ele>
  <time>2026-09-02T22:07:25Z</time>
  <course>48.24</course>
  <speed>0.73</speed>
  <fix>3d</fix>
</trkpt>
<trkpt lat="33.8102548" lon="-118.3939403">
  <ele>-0.113</ele>
  <time>2026-09-02T22:07:25Z</time>
  <course>11.46</course>
  <speed>0.7247068372797375</speed>
  <fix>3d</fix>
</trkpt>
<trkpt lat="33.8102549" lon="-118.3939402">
  <ele>-0.113</ele>
  <time>2026-09-02T22:07:25Z</time>
  <course>11.46</course>
  <speed>0.7247068372797375</speed>
  <fix>3d</fix>
</trkpt>
<trkpt lat="33.8102549" lon="-118.3939401">
  <ele>-0.113</ele>
  <time>2026-09-02T22:07:25Z</time>
  <course>11.46</course>
  <speed>0.7247068372797375</speed>
  <fix>3d</fix>
</trkpt>
<trkpt lat="33.810255" lon="-118.39394">
  <ele>-0.113</ele>
  <time>2026-09-02T22:07:25Z</time>
  <course>11.46</course>
  <speed>0.7247068372797375</speed>
  <fix>3d</fix>
</trkpt>
<trkpt lat="33.810255" lon="-118.39394">
  <ele>-0.113</ele>
  <time>2026-09-02T22:07:25Z</time>
  <course>11.46</course>
  <speed>0.7247068372797375</speed>
  <fix>3d</fix>
</trkpt>
<trkpt lat="33.810255" lon="-118.3939399">
  <ele>-0.113</ele>
  <time>2026-09-02T22:07:25Z</time>
  <course>11.46</course>
  <speed>0.7247068372797375</speed>
  <fix>3d</fix>
</trkpt>
<trkpt lat="33.8102551" lon="-118.3939399">
  <ele>-0.113</ele>
  <time>2026-09-02T22:07:25Z</time>
  <course>11.46</course>
  <speed>0.7247068372797375</speed>
  <fix>3d</fix>
</trkpt>
<trkpt lat="33.8102551" lon="-118.3939399">
  <ele>-0.113</ele>
  <time>2026-09-02T22:07:25Z</time>
  <course>11.46</course>
  <speed>0.7247068372797375</speed>
  <fix>3d</fix>
</trkpt>
<trkpt lat="33.8102551" lon="-118.3939398">
  <ele>-0.113</ele>
  <time>2026-09-02T22:07:25Z</time>
  <course>11.46</course>
  <speed>0.7247068372797375</speed>
  <fix>3d</fix>
</trkpt>
<trkpt lat="33.8102552" lon="-118.3939398">
  <ele>-0.113</ele>
  <time>2026-09-02T22:07:25Z</time>
  <course>11.46</course>
  <speed>0.7247068372797375</speed>
  <fix>3d</fix>
</trkpt>
<trkpt lat="33.8102552" lon="-118.3939397">
  <ele>-0.113</ele>
  <time>2026-09-02T22:07:25Z</time>
  <course>11.47</course>
  <speed>0.7247068372797375</speed>
  <fix>3d</fix>
</trkpt>
<trkpt lat="33.8102552" lon="-118.3939397">
  <ele>-0.113</ele>
  <time>2026-09-02T22:07:25Z</time>
  <course>11.47</course>
  <speed>0.7247068372797375</speed>
  <fix>3d</fix>
</trkpt>
<trkpt lat="33.8102548" lon="-118.3939408">
  <ele>-0.1</ele>
  <time>2026-09-02T22:07:25Z</time>
  <course>48.25</course>
  <speed>0.73</speed>
  <fix>3d</fix>
</trkpt>
<trkpt lat="33.8102553" lon="-118.3939397">
  <ele>-0.113</ele>
  <time>2026-09-02T22:07:25Z</time>
  <course>11.47</course>
  <speed>0.7247068372797375</speed>
  <fix>3d</fix>
</trkpt>
<trkpt lat="33.8102553" lon="-118.3939396">
  <ele>-0.113</ele>
  <time>2026-09-02T22:07:25Z</time>
  <course>11.47</course>
  <speed>0.7247068372797375</speed>
  <fix>3d</fix>
</trkpt>
<trkpt lat="33.8102553" lon="-118.3939395">
  <ele>-0.113</ele>
  <time>2026-09-02T22:07:25Z</time>
  <course>11.47</course>
  <speed>0.7247068372797375</speed>
  <fix>3d</fix>
</trkpt>
<trkpt lat="33.8102554" lon="-118.3939395">
  <ele>-0.113</ele>
  <time>2026-09-02T22:07:25Z</time>
  <course>11.47</course>
  <speed>0.7247068372797375</speed>
  <fix>3d</fix>
</trkpt>
<trkpt lat="33.8102554" lon="-118.3939395">
  <ele>-0.113</ele>
  <time>2026-09-02T22:07:25Z</time>
  <course>11.47</course>
  <speed>0.7247068372797375</speed>
  <fix>3d</fix>
</trkpt>
<trkpt lat="33.8102554" lon="-118.3939394">
  <ele>-0.113</ele>
  <time>2026-09-02T22:07:25Z</time>
  <course>11.47</course>
  <speed>0.7247068372797375</speed>
  <fix>3d</fix>
</trkpt>
<trkpt lat="33.8102555" lon="-118.3939394">
  <ele>-0.113</ele>
  <time>2026-09-02T22:07:25Z</time>
  <course>11.47</course>
  <speed>0.7247068372797375</speed>
  <fix>3d</fix>
</trkpt>
<trkpt lat="33.8102555" lon="-118.3939393">
  <ele>-0.113</ele>
  <time>2026-09-02T22:07:25Z</time>
  <course>11.47</course>
  <speed>0.7247068372797375</speed>
  <fix>3d</fix>
</trkpt>
<trkpt lat="33.8102556" lon="-118.3939392">
  <ele>-0.113</ele>
  <time>2026-09-02T22:07:25Z</time>
  <course>11.47</course>
  <speed>0.7247068372797375</speed>
  <fix>3d</fix>
</trkpt>
<trkpt lat="33.8102556" lon="-118.3939392">
  <ele>-0.114</ele>
  <time>2026-09-02T22:07:25Z</time>
  <course>11.47</course>
  <speed>0.7247068372797375</speed>
  <fix>3d</fix>
</trkpt>
<trkpt lat="33.8102556" lon="-118.3939391">
  <ele>-0.114</ele>
  <time>2026-09-02T22:07:25Z</time>
  <course>11.47</course>
  <speed>0.7247068372797375</speed>
  <fix>3d</fix>
</trkpt>
<trkpt lat="33.8102556" lon="-118.3939391">
  <ele>-0.114</ele>
  <time>2026-09-02T22:07:25Z</time>
  <course>11.47</course>
  <speed>0.7247068372797375</speed>
  <fix>3d</fix>
</trkpt>
<trkpt lat="33.8102548" lon="-118.3939408">
  <ele>-0.1</ele>
  <time>2026-09-02T22:07:25Z</time>
  <course>48.25</course>
  <speed>0.73</speed>
  <fix>3d</fix>
</trkpt>
<trkpt lat="33.8102557" lon="-118.3939391">
  <ele>-0.114</ele>
  <time>2026-09-02T22:07:25Z</time>
  <course>11.47</course>
  <speed>0.7247068372797375</speed>
  <fix>3d</fix>
</trkpt>
<trkpt lat="33.8102557" lon="-118.393939">
  <ele>-0.114</ele>
  <time>2026-09-02T22:07:25Z</time>
  <course>11.47</course>
  <speed>0.7247068372797375</speed>
  <fix>3d</fix>
</trkpt>
<trkpt lat="33.8102558" lon="-118.393939">
  <ele>-0.114</ele>
  <time>2026-09-02T22:07:25Z</time>
  <course>11.47</course>
  <speed>0.7247068372797375</speed>
  <fix>3d</fix>
</trkpt>
<trkpt lat="33.8102558" lon="-118.3939389">
  <ele>-0.114</ele>
  <time>2026-09-02T22:07:25Z</time>
  <course>11.47</course>
  <speed>0.7247068372797375</speed>
  <fix>3d</fix>
</trkpt>
<trkpt lat="33.8102558" lon="-118.3939389">
  <ele>-0.114</ele>
  <time>2026-09-02T22:07:25Z</time>
  <course>11.47</course>
  <speed>0.7247068372797375</speed>
  <fix>3d</fix>
</trkpt>
<trkpt lat="33.8102559" lon="-118.3939388">
  <ele>-0.114</ele>
  <time>2026-09-02T22:07:25Z</time>
  <course>11.47</course>
  <speed>0.7247068372797375</speed>
  <fix>3d</fix>
</trkpt>
<trkpt lat="33.8102559" lon="-118.3939388">
  <ele>-0.114</ele>
  <time>2026-09-02T22:07:25Z</time>
  <course>11.47</course>
  <speed>0.7247068372797375</speed>
  <fix>3d</fix>
</trkpt>
<trkpt lat="33.8102559" lon="-118.3939387">
  <ele>-0.114</ele>
  <time>2026-09-02T22:07:25Z</time>
  <course>11.47</course>
  <speed>0.7247068372797375</speed>
  <fix>3d</fix>
</trkpt>
<trkpt lat="33.810256" lon="-118.3939387">
  <ele>-0.114</ele>
  <time>2026-09-02T22:07:25Z</time>
  <course>11.47</course>
  <speed>0.7247068372797375</speed>
  <fix>3d</fix>
</trkpt>
<trkpt lat="33.810256" lon="-118.3939386">
  <ele>-0.114</ele>
  <time>2026-09-02T22:07:25Z</time>
  <course>11.47</course>
  <speed>0.7247068372797375</speed>
  <fix>3d</fix>
</trkpt>
<trkpt lat="33.8102561" lon="-118.3939386">
  <ele>-0.114</ele>
  <time>2026-09-02T22:07:25Z</time>
  <course>11.47</course>
  <speed>0.7247068372797375</speed>
  <fix>3d</fix>
</trkpt>
<trkpt lat="33.8102561" lon="-118.3939385">
  <ele>-0.114</ele>
  <time>2026-09-02T22:07:25Z</time>
  <course>11.47</course>
  <speed>0.7247068372797375</speed>
  <fix>3d</fix>
</trkpt>
<trkpt lat="33.8102561" lon="-118.3939385">
  <ele>-0.114</ele>
  <time>2026-09-02T22:07:25Z</time>
  <course>11.47</course>
  <speed>0.7247068372797375</speed>
  <fix>3d</fix>
</trkpt>
<trkpt lat="33.8102557" lon="-118.3939395">
  <ele>-0.1</ele>
  <time>2026-09-02T22:07:25Z</time>
  <course>48.26</course>
  <speed>0.73</speed>
  <fix>3d</fix>
</trkpt>
<trkpt lat="33.8102561" lon="-118.3939385">
  <ele>-0.114</ele>
  <time>2026-09-02T22:07:25Z</time>
  <course>11.48</course>
  <speed>0.7247068372797375</speed>
  <fix>3d</fix>
</trkpt>
<trkpt lat="33.8102562" lon="-118.3939384">
  <ele>-0.115</ele>
  <time>2026-09-02T22:07:25Z</time>
  <course>11.48</course>
  <speed>0.7247068372797375</speed>
  <fix>3d</fix>
</trkpt>
<trkpt lat="33.8102562" lon="-118.3939383">
  <ele>-0.115</ele>
  <time>2026-09-02T22:07:25Z</time>
  <course>11.48</course>
  <speed>0.7247068372797375</speed>
  <fix>3d</fix>
</trkpt>
<trkpt lat="33.8102563" lon="-118.3939383">
  <ele>-0.115</ele>
  <time>2026-09-02T22:07:25Z</time>
  <course>11.48</course>
  <speed>0.7247068372797375</speed>
  <fix>3d</fix>
</trkpt>
<trkpt lat="33.8102563" lon="-118.3939382">
  <ele>-0.115</ele>
  <time>2026-09-02T22:07:25Z</time>
  <course>11.48</course>
  <speed>0.7247068372797375</speed>
  <fix>3d</fix>
</trkpt>
<trkpt lat="33.8102564" lon="-118.3939382">
  <ele>-0.115</ele>
  <time>2026-09-02T22:07:25Z</time>
  <course>11.48</course>
  <speed>0.7247068372797375</speed>
  <fix>3d</fix>
</trkpt>
<trkpt lat="33.8102564" lon="-118.3939381">
  <ele>-0.115</ele>
  <time>2026-09-02T22:07:25Z</time>
  <course>11.48</course>
  <speed>0.7247068372797375</speed>
  <fix>3d</fix>
</trkpt>
<trkpt lat="33.8102564" lon="-118.3939381">
  <ele>-0.115</ele>
  <time>2026-09-02T22:07:25Z</time>
  <course>11.48</course>
  <speed>0.7247068372797375</speed>
  <fix>3d</fix>
</trkpt>
<trkpt lat="33.8102564" lon="-118.393938">
  <ele>-0.115</ele>
  <time>2026-09-02T22:07:25Z</time>
  <course>11.48</course>
  <speed>0.7247068372797375</speed>
  <fix>3d</fix>
</trkpt>
<trkpt lat="33.8102565" lon="-118.393938">
  <ele>-0.115</ele>
  <time>2026-09-02T22:07:25Z</time>
  <course>11.48</course>
  <speed>0.7247068372797375</speed>
  <fix>3d</fix>
</trkpt>
<trkpt lat="33.8102565" lon="-118.393938">
  <ele>-0.116</ele>
  <time>2026-09-02T22:07:25Z</time>
  <course>11.48</course>
  <speed>0.7247068372797375</speed>
  <fix>3d</fix>
</trkpt>
<trkpt lat="33.8102565" lon="-118.3939379">
  <ele>-0.116</ele>
  <time>2026-09-02T22:07:25Z</time>
  <course>11.48</course>
  <speed>0.7247068372797375</speed>
  <fix>3d</fix>
</trkpt>
<trkpt lat="33.8102557" lon="-118.3939395">
  <ele>-0.1</ele>
  <time>2026-09-02T22:07:25Z</time>
  <course>48.26</course>
  <speed>0.73</speed>
  <fix>3d</fix>
</trkpt>
<trkpt lat="33.8102565" lon="-118.3939379">
  <ele>-0.116</ele>
  <time>2026-09-02T22:07:25Z</time>
  <course>11.48</course>
  <speed>0.7247068372797375</speed>
  <fix>3d</fix>
</trkpt>
<trkpt lat="33.8102566" lon="-118.3939378">
  <ele>-0.116</ele>
  <time>2026-09-02T22:07:25Z</time>
  <course>11.48</course>
  <speed>0.7247068372797375</speed>
  <fix>3d</fix>
</trkpt>
<trkpt lat="33.8102567" lon="-118.3939378">
  <ele>-0.116</ele>
  <time>2026-09-02T22:07:25Z</time>
  <course>11.48</course>
  <speed>0.7247068372797375</speed>
  <fix>3d</fix>
</trkpt>
<trkpt lat="33.8102567" lon="-118.3939377">
  <ele>-0.116</ele>
  <time>2026-09-02T22:07:25Z</time>
  <course>11.48</course>
  <speed>0.7247068372797375</speed>
  <fix>3d</fix>
</trkpt>
<trkpt lat="33.8102567" lon="-118.3939377">
  <ele>-0.116</ele>
  <time>2026-09-02T22:07:25Z</time>
  <course>11.48</course>
  <speed>0.7247068372797375</speed>
  <fix>3d</fix>
</trkpt>
<trkpt lat="33.8102568" lon="-118.3939376">
  <ele>-0.116</ele>
  <time>2026-09-02T22:07:25Z</time>
  <course>11.48</course>
  <speed>0.7247068372797375</speed>
  <fix>3d</fix>
</trkpt>
<trkpt lat="33.8102568" lon="-118.3939376">
  <ele>-0.116</ele>
  <time>2026-09-02T22:07:25Z</time>
  <course>11.48</course>
  <speed>0.7247068372797375</speed>
  <fix>3d</fix>
</trkpt>
<trkpt lat="33.8102568" lon="-118.3939375">
  <ele>-0.117</ele>
  <time>2026-09-02T22:07:25Z</time>
  <course>11.48</course>
  <speed>0.7247068372797375</speed>
  <fix>3d</fix>
</trkpt>
<trkpt lat="33.8102569" lon="-118.3939375">
  <ele>-0.117</ele>
  <time>2026-09-02T22:07:25Z</time>
  <course>11.48</course>
  <speed>0.7247068372797375</speed>
  <fix>3d</fix>
</trkpt>
<trkpt lat="33.8102569" lon="-118.3939374">
  <ele>-0.117</ele>
  <time>2026-09-02T22:07:25Z</time>
  <course>11.48</course>
  <speed>0.7247068372797375</speed>
  <fix>3d</fix>
</trkpt>
<trkpt lat="33.810257" lon="-118.3939374">
  <ele>-0.117</ele>
  <time>2026-09-02T22:07:25Z</time>
  <course>11.48</course>
  <speed>0.7247068372797375</speed>
  <fix>3d</fix>
</trkpt>
<trkpt lat="33.810257" lon="-118.3939374">
  <ele>-0.117</ele>
  <time>2026-09-02T22:07:25Z</time>
  <course>11.48</course>
  <speed>0.7247068372797375</speed>
  <fix>3d</fix>
</trkpt>
<trkpt lat="33.8102566" lon="-118.3939384">
  <ele>-0.1</ele>
  <time>2026-09-02T22:07:25Z</time>
  <course>48.27</course>
  <speed>0.73</speed>
  <fix>3d</fix>
</trkpt>
<trkpt lat="33.810257" lon="-118.3939373">
  <ele>-0.117</ele>
  <time>2026-09-02T22:07:25Z</time>
  <course>11.48</course>
  <speed>0.7247068372797375</speed>
  <fix>3d</fix>
</trkpt>
<trkpt lat="33.810257" lon="-118.3939373">
  <ele>-0.117</ele>
  <time>2026-09-02T22:07:25Z</time>
  <course>11.48</course>
  <speed>0.7247068372797375</speed>
  <fix>3d</fix>
</trkpt>
<trkpt lat="33.8102571" lon="-118.3939372">
  <ele>-0.117</ele>
  <time>2026-09-02T22:07:25Z</time>
  <course>11.49</course>
  <speed>0.7247068372797375</speed>
  <fix>3d</fix>
</trkpt>
<trkpt lat="33.8102571" lon="-118.3939372">
  <ele>-0.117</ele>
  <time>2026-09-02T22:07:25Z</time>
  <course>11.49</course>
  <speed>0.7247068372797375</speed>
  <fix>3d</fix>
</trkpt>
<trkpt lat="33.8102571" lon="-118.3939371">
  <ele>-0.117</ele>
  <time>2026-09-02T22:07:25Z</time>
  <course>11.49</course>
  <speed>0.7247068372797375</speed>
  <fix>3d</fix>
</trkpt>
<trkpt lat="33.8102572" lon="-118.3939371">
  <ele>-0.117</ele>
  <time>2026-09-02T22:07:25Z</time>
  <course>11.49</course>
  <speed>0.7247068372797375</speed>
  <fix>3d</fix>
</trkpt>
<trkpt lat="33.8102572" lon="-118.393937">
  <ele>-0.117</ele>
  <time>2026-09-02T22:07:25Z</time>
  <course>11.49</course>
  <speed>0.7247068372797375</speed>
  <fix>3d</fix>
</trkpt>
<trkpt lat="33.8102573" lon="-118.393937">
  <ele>-0.117</ele>
  <time>2026-09-02T22:07:25Z</time>
  <course>11.49</course>
  <speed>0.7247068372797375</speed>
  <fix>3d</fix>
</trkpt>
<trkpt lat="33.8102573" lon="-118.3939369">
  <ele>-0.117</ele>
  <time>2026-09-02T22:07:25Z</time>
  <course>11.49</course>
  <speed>0.7247068372797375</speed>
  <fix>3d</fix>
</trkpt>
<trkpt lat="33.8102573" lon="-118.3939369">
  <ele>-0.117</ele>
  <time>2026-09-02T22:07:25Z</time>
  <course>11.49</course>
  <speed>0.7247068372797375</speed>
  <fix>3d</fix>
</trkpt>
<trkpt lat="33.8102574" lon="-118.3939368">
  <ele>-0.117</ele>
  <time>2026-09-02T22:07:25Z</time>
  <course>11.49</course>
  <speed>0.7247068372797375</speed>
  <fix>3d</fix>
</trkpt>
<trkpt lat="33.8102574" lon="-118.3939368">
  <ele>-0.117</ele>
  <time>2026-09-02T22:07:25Z</time>
  <course>11.49</course>
  <speed>0.7247068372797375</speed>
  <fix>3d</fix>
</trkpt>
<trkpt lat="33.8102574" lon="-118.3939368">
  <ele>-0.117</ele>
  <time>2026-09-02T22:07:25Z</time>
  <course>11.49</course>
  <speed>0.7247068372797375</speed>
  <fix>3d</fix>
</trkpt>
<trkpt lat="33.8102566" lon="-118.3939384">
  <ele>-0.1</ele>
  <time>2026-09-02T22:07:25Z</time>
  <course>48.27</course>
  <speed>0.73</speed>
  <fix>3d</fix>
</trkpt>
<trkpt lat="33.8102574" lon="-118.3939367">
  <ele>-0.117</ele>
  <time>2026-09-02T22:07:25Z</time>
  <course>11.49</course>
  <speed>0.7247068372797375</speed>
  <fix>3d</fix>
</trkpt>
<trkpt lat="33.8102575" lon="-118.3939367">
  <ele>-0.117</ele>
  <time>2026-09-02T22:07:25Z</time>
  <course>11.49</course>
  <speed>0.7247068372797375</speed>
  <fix>3d</fix>
</trkpt>
<trkpt lat="33.8102575" lon="-118.3939366">
  <ele>-0.117</ele>
  <time>2026-09-02T22:07:25Z</time>
  <course>11.49</course>
  <speed>0.7247068372797375</speed>
  <fix>3d</fix>
</trkpt>
<trkpt lat="33.8102575" lon="-118.3939366">
  <ele>-0.117</ele>
  <time>2026-09-02T22:07:25Z</time>
  <course>11.49</course>
  <speed>0.7247068372797375</speed>
  <fix>3d</fix>
</trkpt>
<trkpt lat="33.8102576" lon="-118.3939365">
  <ele>-0.117</ele>
  <time>2026-09-02T22:07:25Z</time>
  <course>11.49</course>
  <speed>0.7247068372797375</speed>
  <fix>3d</fix>
</trkpt>
<trkpt lat="33.8102576" lon="-118.3939365">
  <ele>-0.117</ele>
  <time>2026-09-02T22:07:25Z</time>
  <course>11.49</course>
  <speed>0.7247068372797375</speed>
  <fix>3d</fix>
</trkpt>
<trkpt lat="33.8102576" lon="-118.3939364">
  <ele>-0.117</ele>
  <time>2026-09-02T22:07:25Z</time>
  <course>11.49</course>
  <speed>0.7247068372797375</speed>
  <fix>3d</fix>
</trkpt>
<trkpt lat="33.8102577" lon="-118.3939364">
  <ele>-0.117</ele>
  <time>2026-09-02T22:07:25Z</time>
  <course>11.49</course>
  <speed>0.7247068372797375</speed>
  <fix>3d</fix>
</trkpt>
<trkpt lat="33.8102577" lon="-118.3939364">
  <ele>-0.117</ele>
  <time>2026-09-02T22:07:25Z</time>
  <course>11.49</course>
  <speed>0.7247068372797375</speed>
  <fix>3d</fix>
</trkpt>
<trkpt lat="33.8102577" lon="-118.3939363">
  <ele>-0.117</ele>
  <time>2026-09-02T22:07:25Z</time>
  <course>11.49</course>
  <speed>0.7247068372797375</speed>
  <fix>3d</fix>
</trkpt>
<trkpt lat="33.8102578" lon="-118.3939363">
  <ele>-0.117</ele>
  <time>2026-09-02T22:07:25Z</time>
  <course>11.49</course>
  <speed>0.7247068372797375</speed>
  <fix>3d</fix>
</trkpt>
<trkpt lat="33.8102578" lon="-118.3939362">
  <ele>-0.117</ele>
  <time>2026-09-02T22:07:25Z</time>
  <course>11.49</course>
  <speed>0.7247068372797375</speed>
  <fix>3d</fix>
</trkpt>
<trkpt lat="33.8102578" lon="-118.3939362">
  <ele>-0.117</ele>
  <time>2026-09-02T22:07:25Z</time>
  <course>11.49</course>
  <speed>0.7247068372797375</speed>
  <fix>3d</fix>
</trkpt>
<trkpt lat="33.8102578" lon="-118.3939362">
  <ele>-0.117</ele>
  <time>2026-09-02T22:07:25Z</time>
  <course>11.49</course>
  <speed>0.7247068372797375</speed>
  <fix>3d</fix>
</trkpt>
<trkpt lat="33.8102574" lon="-118.3939371">
  <ele>-0.1</ele>
  <time>2026-09-02T22:07:25Z</time>
  <course>48.28</course>
  <speed>0.73</speed>
  <fix>3d</fix>
</trkpt>
<trkpt lat="33.8102579" lon="-118.3939361">
  <ele>-0.117</ele>
  <time>2026-09-02T22:07:25Z</time>
  <course>11.49</course>
  <speed>0.7247068372797375</speed>
  <fix>3d</fix>
</trkpt>
<trkpt lat="33.810258" lon="-118.393936">
  <ele>-0.117</ele>
  <time>2026-09-02T22:07:25Z</time>
  <course>11.49</course>
  <speed>0.7247068372797375</speed>
  <fix>3d</fix>
</trkpt>
<trkpt lat="33.810258" lon="-118.393936">
  <ele>-0.117</ele>
  <time>2026-09-02T22:07:25Z</time>
  <course>11.5</course>
  <speed>0.7247068372797375</speed>
  <fix>3d</fix>
</trkpt>
<trkpt lat="33.810258" lon="-118.3939359">
  <ele>-0.117</ele>
  <time>2026-09-02T22:07:25Z</time>
  <course>11.5</course>
  <speed>0.7247068372797375</speed>
  <fix>3d</fix>
</trkpt>
<trkpt lat="33.8102581" lon="-118.3939358">
  <ele>-0.117</ele>
  <time>2026-09-02T22:07:25Z</time>
  <course>11.5</course>
  <speed>0.7247068372797375</speed>
  <fix>3d</fix>
</trkpt>
<trkpt lat="33.8102581" lon="-118.3939358">
  <ele>-0.117</ele>
  <time>2026-09-02T22:07:25Z</time>
  <course>11.5</course>
  <speed>0.7247068372797375</speed>
  <fix>3d</fix>
</trkpt>
<trkpt lat="33.8102581" lon="-118.3939358">
  <ele>-0.117</ele>
  <time>2026-09-02T22:07:25Z</time>
  <course>11.5</course>
  <speed>0.7247068372797375</speed>
  <fix>3d</fix>
</trkpt>
<trkpt lat="33.8102582" lon="-118.3939357">
  <ele>-0.117</ele>
  <time>2026-09-02T22:07:25Z</time>
  <course>11.5</course>
  <speed>0.7247068372797375</speed>
  <fix>3d</fix>
</trkpt>
<trkpt lat="33.8102582" lon="-118.3939357">
  <ele>-0.117</ele>
  <time>2026-09-02T22:07:25Z</time>
  <course>11.5</course>
  <speed>0.7247068372797375</speed>
  <fix>3d</fix>
</trkpt>
<trkpt lat="33.8102583" lon="-118.3939356">
  <ele>-0.117</ele>
  <time>2026-09-02T22:07:25Z</time>
  <course>11.5</course>
  <speed>0.7247068372797375</speed>
  <fix>3d</fix>
</trkpt>
<trkpt lat="33.8102583" lon="-118.3939356">
  <ele>-0.117</ele>
  <time>2026-09-02T22:07:25Z</time>
  <course>11.5</course>
  <speed>0.7247068372797375</speed>
  <fix>3d</fix>
</trkpt>
<trkpt lat="33.8102574" lon="-118.3939371">
  <ele>-0.1</ele>
  <time>2026-09-02T22:07:25Z</time>
  <course>48.28</course>
  <speed>0.73</speed>
  <fix>3d</fix>
</trkpt>
<trkpt lat="33.8102583" lon="-118.3939355">
  <ele>-0.117</ele>
  <time>2026-09-02T22:07:25Z</time>
  <course>11.5</course>
  <speed>0.7247068372797375</speed>
  <fix>3d</fix>
</trkpt>
<trkpt lat="33.8102583" lon="-118.3939355">
  <ele>-0.117</ele>
  <time>2026-09-02T22:07:25Z</time>
  <course>11.5</course>
  <speed>0.7247068372797375</speed>
  <fix>3d</fix>
</trkpt>
<trkpt lat="33.8102584" lon="-118.3939354">
  <ele>-0.117</ele>
  <time>2026-09-02T22:07:25Z</time>
  <course>11.5</course>
  <speed>0.7247068372797375</speed>
  <fix>3d</fix>
</trkpt>
<trkpt lat="33.8102584" lon="-118.3939354">
  <ele>-0.117</ele>
  <time>2026-09-02T22:07:25Z</time>
  <course>11.5</course>
  <speed>0.7247068372797375</speed>
  <fix>3d</fix>
</trkpt>
<trkpt lat="33.8102584" lon="-118.3939354">
  <ele>-0.117</ele>
  <time>2026-09-02T22:07:25Z</time>
  <course>11.5</course>
  <speed>0.7247068372797375</speed>
  <fix>3d</fix>
</trkpt>
<trkpt lat="33.8102585" lon="-118.3939353">
  <ele>-0.117</ele>
  <time>2026-09-02T22:07:25Z</time>
  <course>11.5</course>
  <speed>0.7247068372797375</speed>
  <fix>3d</fix>
</trkpt>
<trkpt lat="33.8102585" lon="-118.3939353">
  <ele>-0.118</ele>
  <time>2026-09-02T22:07:25Z</time>
  <course>11.5</course>
  <speed>0.7247068372797375</speed>
  <fix>3d</fix>
</trkpt>
<trkpt lat="33.8102585" lon="-118.3939352">
  <ele>-0.118</ele>
  <time>2026-09-02T22:07:25Z</time>
  <course>11.5</course>
  <speed>0.7247068372797375</speed>
  <fix>3d</fix>
</trkpt>
<trkpt lat="33.8102586" lon="-118.3939352">
  <ele>-0.118</ele>
  <time>2026-09-02T22:07:25Z</time>
  <course>11.5</course>
  <speed>0.7247068372797375</speed>
  <fix>3d</fix>
</trkpt>
<trkpt lat="33.8102586" lon="-118.3939351">
  <ele>-0.118</ele>
  <time>2026-09-02T22:07:25Z</time>
  <course>11.5</course>
  <speed>0.7247068372797375</speed>
  <fix>3d</fix>
</trkpt>
<trkpt lat="33.8102586" lon="-118.3939351">
  <ele>-0.118</ele>
  <time>2026-09-02T22:07:25Z</time>
  <course>11.5</course>
  <speed>0.7247068372797375</speed>
  <fix>3d</fix>
</trkpt>
<trkpt lat="33.8102587" lon="-118.393935">
  <ele>-0.118</ele>
  <time>2026-09-02T22:07:25Z</time>
  <course>11.5</course>
  <speed>0.7247068372797375</speed>
  <fix>3d</fix>
</trkpt>
<trkpt lat="33.8102587" lon="-118.393935">
  <ele>-0.118</ele>
  <time>2026-09-02T22:07:25Z</time>
  <course>11.5</course>
  <speed>0.7247068372797375</speed>
  <fix>3d</fix>
</trkpt>
<trkpt lat="33.8102587" lon="-118.393935">
  <ele>-0.118</ele>
  <time>2026-09-02T22:07:25Z</time>
  <course>11.5</course>
  <speed>0.7247068372797375</speed>
  <fix>3d</fix>
</trkpt>
<trkpt lat="33.8102583" lon="-118.393936">
  <ele>-0.11</ele>
  <time>2026-09-02T22:07:25Z</time>
  <course>48.29</course>
  <speed>0.73</speed>
  <fix>3d</fix>
</trkpt>
<trkpt lat="33.8102587" lon="-118.393935">
  <ele>-0.118</ele>
  <time>2026-09-02T22:07:25Z</time>
  <course>11.5</course>
  <speed>0.7247068372797375</speed>
  <fix>3d</fix>
</trkpt>
<trkpt lat="33.8102588" lon="-118.3939349">
  <ele>-0.119</ele>
  <time>2026-09-02T22:07:25Z</time>
  <course>11.5</course>
  <speed>0.7247068372797375</speed>
  <fix>3d</fix>
</trkpt>
<trkpt lat="33.8102588" lon="-118.3939348">
  <ele>-0.119</ele>
  <time>2026-09-02T22:07:25Z</time>
  <course>11.5</course>
  <speed>0.7247068372797375</speed>
  <fix>3d</fix>
</trkpt>
<trkpt lat="33.8102589" lon="-118.3939348">
  <ele>-0.119</ele>
  <time>2026-09-02T22:07:25Z</time>
  <course>11.5</course>
  <speed>0.7247068372797375</speed>
  <fix>3d</fix>
</trkpt>
<trkpt lat="33.8102589" lon="-118.3939347">
  <ele>-0.119</ele>
  <time>2026-09-02T22:07:25Z</time>
  <course>11.5</course>
  <speed>0.7247068372797375</speed>
  <fix>3d</fix>
</trkpt>
<trkpt lat="33.8102589" lon="-118.3939347">
  <ele>-0.119</ele>
  <time>2026-09-02T22:07:25Z</time>
  <course>11.51</course>
  <speed>0.7247068372797375</speed>
  <fix>3d</fix>
</trkpt>
<trkpt lat="33.810259" lon="-118.3939346">
  <ele>-0.119</ele>
  <time>2026-09-02T22:07:25Z</time>
  <course>11.51</course>
  <speed>0.7247068372797375</speed>
  <fix>3d</fix>
</trkpt>
<trkpt lat="33.810259" lon="-118.3939346">
  <ele>-0.119</ele>
  <time>2026-09-02T22:07:25Z</time>
  <course>11.51</course>
  <speed>0.7247068372797375</speed>
  <fix>3d</fix>
</trkpt>
<trkpt lat="33.8102591" lon="-118.3939345">
  <ele>-0.119</ele>
  <time>2026-09-02T22:07:25Z</time>
  <course>11.51</course>
  <speed>0.7247068372797375</speed>
  <fix>3d</fix>
</trkpt>
<trkpt lat="33.8102591" lon="-118.3939344">
  <ele>-0.119</ele>
  <time>2026-09-02T22:07:25Z</time>
  <course>11.51</course>
  <speed>0.7247068372797375</speed>
  <fix>3d</fix>
</trkpt>
<trkpt lat="33.8102592" lon="-118.3939344">
  <ele>-0.119</ele>
  <time>2026-09-02T22:07:25Z</time>
  <course>11.51</course>
  <speed>0.7247068372797375</speed>
  <fix>3d</fix>
</trkpt>
<trkpt lat="33.8102583" lon="-118.393936">
  <ele>-0.11</ele>
  <time>2026-09-02T22:07:25Z</time>
  <course>48.29</course>
  <speed>0.73</speed>
  <fix>3d</fix>
</trkpt>
<trkpt lat="33.8102592" lon="-118.3939344">
  <ele>-0.119</ele>
  <time>2026-09-02T22:07:25Z</time>
  <course>11.51</course>
  <speed>0.7247068372797375</speed>
  <fix>3d</fix>
</trkpt>
<trkpt lat="33.8102592" lon="-118.3939343">
  <ele>-0.119</ele>
  <time>2026-09-02T22:07:25Z</time>
  <course>11.51</course>
  <speed>0.7247068372797375</speed>
  <fix>3d</fix>
</trkpt>
<trkpt lat="33.8102593" lon="-118.3939342">
  <ele>-0.12</ele>
  <time>2026-09-02T22:07:25Z</time>
  <course>11.51</course>
  <speed>0.7247068372797375</speed>
  <fix>3d</fix>
</trkpt>
<trkpt lat="33.8102593" lon="-118.3939342">
  <ele>-0.12</ele>
  <time>2026-09-02T22:07:25Z</time>
  <course>11.51</course>
  <speed>0.7247068372797375</speed>
  <fix>3d</fix>
</trkpt>
<trkpt lat="33.8102593" lon="-118.3939341">
  <ele>-0.12</ele>
  <time>2026-09-02T22:07:25Z</time>
  <course>11.51</course>
  <speed>0.7247068372797375</speed>
  <fix>3d</fix>
</trkpt>
<trkpt lat="33.8102594" lon="-118.393934">
  <ele>-0.12</ele>
  <time>2026-09-02T22:07:25Z</time>
  <course>11.51</course>
  <speed>0.7247068372797375</speed>
  <fix>3d</fix>
</trkpt>
<trkpt lat="33.8102594" lon="-118.393934">
  <ele>-0.119</ele>
  <time>2026-09-02T22:07:25Z</time>
  <course>11.51</course>
  <speed>0.7247068372797375</speed>
  <fix>3d</fix>
</trkpt>
<trkpt lat="33.8102595" lon="-118.393934">
  <ele>-0.119</ele>
  <time>2026-09-02T22:07:25Z</time>
  <course>11.51</course>
  <speed>0.7247068372797375</speed>
  <fix>3d</fix>
</trkpt>
<trkpt lat="33.8102595" lon="-118.3939339">
  <ele>-0.119</ele>
  <time>2026-09-02T22:07:25Z</time>
  <course>11.51</course>
  <speed>0.7247068372797375</speed>
  <fix>3d</fix>
</trkpt>
<trkpt lat="33.8102595" lon="-118.3939339">
  <ele>-0.119</ele>
  <time>2026-09-02T22:07:25Z</time>
  <course>11.51</course>
  <speed>0.7247068372797375</speed>
  <fix>3d</fix>
</trkpt>
<trkpt lat="33.8102596" lon="-118.3939338">
  <ele>-0.119</ele>
  <time>2026-09-02T22:07:25Z</time>
  <course>11.51</course>
  <speed>0.7247068372797375</speed>
  <fix>3d</fix>
</trkpt>
<trkpt lat="33.8102596" lon="-118.3939338">
  <ele>-0.119</ele>
  <time>2026-09-02T22:07:25Z</time>
  <course>11.51</course>
  <speed>0.7247068372797375</speed>
  <fix>3d</fix>
</trkpt>
<trkpt lat="33.8102592" lon="-118.3939348">
  <ele>-0.1</ele>
  <time>2026-09-02T22:07:25Z</time>
  <course>48.3</course>
  <speed>0.73</speed>
  <fix>3d</fix>
</trkpt>
<trkpt lat="33.8102596" lon="-118.3939338">
  <ele>-0.119</ele>
  <time>2026-09-02T22:07:25Z</time>
  <course>11.51</course>
  <speed>0.7247068372797375</speed>
  <fix>3d</fix>
</trkpt>
<trkpt lat="33.8102597" lon="-118.3939337">
  <ele>-0.119</ele>
  <time>2026-09-02T22:07:25Z</time>
  <course>11.51</course>
  <speed>0.7247068372797375</speed>
  <fix>3d</fix>
</trkpt>
<trkpt lat="33.8102597" lon="-118.3939336">
  <ele>-0.119</ele>
  <time>2026-09-02T22:07:25Z</time>
  <course>11.51</course>
  <speed>0.7247068372797375</speed>
  <fix>3d</fix>
</trkpt>
<trkpt lat="33.8102597" lon="-118.3939336">
  <ele>-0.119</ele>
  <time>2026-09-02T22:07:25Z</time>
  <course>11.51</course>
  <speed>0.7247068372797375</speed>
  <fix>3d</fix>
</trkpt>
<trkpt lat="33.8102598" lon="-118.3939335">
  <ele>-0.119</ele>
  <time>2026-09-02T22:07:25Z</time>
  <course>11.51</course>
  <speed>0.7247068372797375</speed>
  <fix>3d</fix>
</trkpt>
<trkpt lat="33.8102598" lon="-118.3939335">
  <ele>-0.119</ele>
  <time>2026-09-02T22:07:25Z</time>
  <course>11.51</course>
  <speed>0.7247068372797375</speed>
  <fix>3d</fix>
</trkpt>
<trkpt lat="33.8102599" lon="-118.3939334">
  <ele>-0.118</ele>
  <time>2026-09-02T22:07:25Z</time>
  <course>11.51</course>
  <speed>0.7247068372797375</speed>
  <fix>3d</fix>
</trkpt>
<trkpt lat="33.8102599" lon="-118.3939334">
  <ele>-0.119</ele>
  <time>2026-09-02T22:07:25Z</time>
  <course>11.52</course>
  <speed>0.7247068372797375</speed>
  <fix>3d</fix>
</trkpt>
<trkpt lat="33.8102599" lon="-118.3939333">
  <ele>-0.118</ele>
  <time>2026-09-02T22:07:25Z</time>
  <course>11.52</course>
  <speed>0.7247068372797375</speed>
  <fix>3d</fix>
</trkpt>
<trkpt lat="33.8102599" lon="-118.3939333">
  <ele>-0.118</ele>
  <time>2026-09-02T22:07:25Z</time>
  <course>11.52</course>
  <speed>0.7247068372797375</speed>
  <fix>3d</fix>
</trkpt>
<trkpt lat="33.81026" lon="-118.3939332">
  <ele>-0.118</ele>
  <time>2026-09-02T22:07:25Z</time>
  <course>11.52</course>
  <speed>0.7247068372797375</speed>
  <fix>3d</fix>
</trkpt>
<trkpt lat="33.81026" lon="-118.3939332">
  <ele>-0.118</ele>
  <time>2026-09-02T22:07:25Z</time>
  <course>11.52</course>
  <speed>0.7247068372797375</speed>
  <fix>3d</fix>
</trkpt>
<trkpt lat="33.81026" lon="-118.3939332">
  <ele>-0.118</ele>
  <time>2026-09-02T22:07:25Z</time>
  <course>11.52</course>
  <speed>0.7247068372797375</speed>
  <fix>3d</fix>
</trkpt>
<trkpt lat="33.8102592" lon="-118.3939348">
  <ele>-0.1</ele>
  <time>2026-09-02T22:07:25Z</time>
  <course>48.3</course>
  <speed>0.73</speed>
  <fix>3d</fix>
</trkpt>
<trkpt lat="33.81026" lon="-118.3939332">
  <ele>-0.118</ele>
  <time>2026-09-02T22:07:25Z</time>
  <course>11.52</course>
  <speed>0.7247068372797375</speed>
  <fix>3d</fix>
</trkpt>
<trkpt lat="33.8102601" lon="-118.3939331">
  <ele>-0.118</ele>
  <time>2026-09-02T22:07:25Z</time>
  <course>11.52</course>
  <speed>0.7247068372797375</speed>
  <fix>3d</fix>
</trkpt>
<trkpt lat="33.8102601" lon="-118.393933">
  <ele>-0.118</ele>
  <time>2026-09-02T22:07:25Z</time>
  <course>11.52</course>
  <speed>0.7247068372797375</speed>
  <fix>3d</fix>
</trkpt>
<trkpt lat="33.8102602" lon="-118.393933">
  <ele>-0.118</ele>
  <time>2026-09-02T22:07:25Z</time>
  <course>11.52</course>
  <speed>0.7247068372797375</speed>
  <fix>3d</fix>
</trkpt>
<trkpt lat="33.8102602" lon="-118.3939329">
  <ele>-0.118</ele>
  <time>2026-09-02T22:07:25Z</time>
  <course>11.52</course>
  <speed>0.7247068372797375</speed>
  <fix>3d</fix>
</trkpt>
<trkpt lat="33.8102603" lon="-118.3939329">
  <ele>-0.118</ele>
  <time>2026-09-02T22:07:25Z</time>
  <course>11.52</course>
  <speed>0.7247068372797375</speed>
  <fix>3d</fix>
</trkpt>
<trkpt lat="33.8102603" lon="-118.3939328">
  <ele>-0.118</ele>
  <time>2026-09-02T22:07:25Z</time>
  <course>11.52</course>
  <speed>0.7247068372797375</speed>
  <fix>3d</fix>
</trkpt>
<trkpt lat="33.8102603" lon="-118.3939328">
  <ele>-0.118</ele>
  <time>2026-09-02T22:07:25Z</time>
  <course>11.52</course>
  <speed>0.7247068372797375</speed>
  <fix>3d</fix>
</trkpt>
<trkpt lat="33.8102604" lon="-118.3939328">
  <ele>-0.118</ele>
  <time>2026-09-02T22:07:25Z</time>
  <course>11.52</course>
  <speed>0.7247068372797375</speed>
  <fix>3d</fix>
</trkpt>
<trkpt lat="33.8102604" lon="-118.3939327">
  <ele>-0.118</ele>
  <time>2026-09-02T22:07:25Z</time>
  <course>11.52</course>
  <speed>0.7247068372797375</speed>
  <fix>3d</fix>
</trkpt>
<trkpt lat="33.8102604" lon="-118.3939327">
  <ele>-0.118</ele>
  <time>2026-09-02T22:07:25Z</time>
  <course>11.52</course>
  <speed>0.7247068372797375</speed>
  <fix>3d</fix>
</trkpt>
<trkpt lat="33.8102605" lon="-118.3939326">
  <ele>-0.118</ele>
  <time>2026-09-02T22:07:25Z</time>
  <course>11.52</course>
  <speed>0.7247068372797375</speed>
  <fix>3d</fix>
</trkpt>
<trkpt lat="33.8102605" lon="-118.3939326">
  <ele>-0.118</ele>
  <time>2026-09-02T22:07:25Z</time>
  <course>11.52</course>
  <speed>0.7247068372797375</speed>
  <fix>3d</fix>
</trkpt>
<trkpt lat="33.8102601" lon="-118.3939337">
  <ele>-0.1</ele>
  <time>2026-09-02T22:07:25Z</time>
  <course>48.31</course>
  <speed>0.73</speed>
  <fix>3d</fix>
</trkpt>
<trkpt lat="33.8102605" lon="-118.3939326">
  <ele>-0.118</ele>
  <time>2026-09-02T22:07:25Z</time>
  <course>11.52</course>
  <speed>0.7247068372797375</speed>
  <fix>3d</fix>
</trkpt>
<trkpt lat="33.8102606" lon="-118.3939325">
  <ele>-0.118</ele>
  <time>2026-09-02T22:07:25Z</time>
  <course>11.52</course>
  <speed>0.7247068372797375</speed>
  <fix>3d</fix>
</trkpt>
<trkpt lat="33.8102606" lon="-118.3939324">
  <ele>-0.118</ele>
  <time>2026-09-02T22:07:25Z</time>
  <course>11.52</course>
  <speed>0.7247068372797375</speed>
  <fix>3d</fix>
</trkpt>
<trkpt lat="33.8102607" lon="-118.3939324">
  <ele>-0.118</ele>
  <time>2026-09-02T22:07:25Z</time>
  <course>11.52</course>
  <speed>0.7247068372797375</speed>
  <fix>3d</fix>
</trkpt>
<trkpt lat="33.8102607" lon="-118.3939323">
  <ele>-0.118</ele>
  <time>2026-09-02T22:07:25Z</time>
  <course>11.52</course>
  <speed>0.7247068372797375</speed>
  <fix>3d</fix>
</trkpt>
<trkpt lat="33.8102607" lon="-118.3939323">
  <ele>-0.118</ele>
  <time>2026-09-02T22:07:25Z</time>
  <course>11.52</course>
  <speed>0.7247068372797375</speed>
  <fix>3d</fix>
</trkpt>
<trkpt lat="33.8102608" lon="-118.3939322">
  <ele>-0.118</ele>
  <time>2026-09-02T22:07:25Z</time>
  <course>11.52</course>
  <speed>0.7247068372797375</speed>
  <fix>3d</fix>
</trkpt>
<trkpt lat="33.8102608" lon="-118.3939322">
  <ele>-0.118</ele>
  <time>2026-09-02T22:07:25Z</time>
  <course>11.52</course>
  <speed>0.7247068372797375</speed>
  <fix>3d</fix>
</trkpt>
<trkpt lat="33.8102608" lon="-118.3939321">
  <ele>-0.118</ele>
  <time>2026-09-02T22:07:25Z</time>
  <course>11.52</course>
  <speed>0.7247068372797375</speed>
  <fix>3d</fix>
</trkpt>
<trkpt lat="33.8102609" lon="-118.3939321">
  <ele>-0.118</ele>
  <time>2026-09-02T22:07:25Z</time>
  <course>11.53</course>
  <speed>0.7247068372797375</speed>
  <fix>3d</fix>
</trkpt>
<trkpt lat="33.8102609" lon="-118.393932">
  <ele>-0.118</ele>
  <time>2026-09-02T22:07:25Z</time>
  <course>11.53</course>
  <speed>0.7247068372797375</speed>
  <fix>3d</fix>
</trkpt>
<trkpt lat="33.8102609" lon="-118.393932">
  <ele>-0.118</ele>
  <time>2026-09-02T22:07:25Z</time>
  <course>11.53</course>
  <speed>0.7247068372797375</speed>
  <fix>3d</fix>
</trkpt>
<trkpt lat="33.8102601" lon="-118.3939337">
  <ele>-0.1</ele>
  <time>2026-09-02T22:07:25Z</time>
  <course>48.31</course>
  <speed>0.73</speed>
  <fix>3d</fix>
</trkpt>
<trkpt lat="33.8102609" lon="-118.393932">
  <ele>-0.118</ele>
  <time>2026-09-02T22:07:25Z</time>
  <course>11.53</course>
  <speed>0.7247068372797375</speed>
  <fix>3d</fix>
</trkpt>
<trkpt lat="33.810261" lon="-118.3939319">
  <ele>-0.118</ele>
  <time>2026-09-02T22:07:25Z</time>
  <course>11.53</course>
  <speed>0.7247068372797375</speed>
  <fix>3d</fix>
</trkpt>
<trkpt lat="33.810261" lon="-118.3939318">
  <ele>-0.118</ele>
  <time>2026-09-02T22:07:25Z</time>
  <course>11.53</course>
  <speed>0.7247068372797375</speed>
  <fix>3d</fix>
</trkpt>
<trkpt lat="33.8102611" lon="-118.3939318">
  <ele>-0.118</ele>
  <time>2026-09-02T22:07:25Z</time>
  <course>11.53</course>
  <speed>0.7247068372797375</speed>
  <fix>3d</fix>
</trkpt>
<trkpt lat="33.8102611" lon="-118.3939317">
  <ele>-0.118</ele>
  <time>2026-09-02T22:07:25Z</time>
  <course>11.53</course>
  <speed>0.7247068372797375</speed>
  <fix>3d</fix>
</trkpt>
<trkpt lat="33.8102611" lon="-118.3939317">
  <ele>-0.117</ele>
  <time>2026-09-02T22:07:25Z</time>
  <course>11.53</course>
  <speed>0.7247068372797375</speed>
  <fix>3d</fix>
</trkpt>
<trkpt lat="33.8102612" lon="-118.3939316">
  <ele>-0.117</ele>
  <time>2026-09-02T22:07:25Z</time>
  <course>11.53</course>
  <speed>0.7247068372797375</speed>
  <fix>3d</fix>
</trkpt>
<trkpt lat="33.8102612" lon="-118.3939316">
  <ele>-0.117</ele>
  <time>2026-09-02T22:07:25Z</time>
  <course>11.53</course>
  <speed>0.7247068372797375</speed>
  <fix>3d</fix>
</trkpt>
<trkpt lat="33.8102612" lon="-118.3939316">
  <ele>-0.117</ele>
  <time>2026-09-02T22:07:25Z</time>
  <course>11.53</course>
  <speed>0.7247068372797375</speed>
  <fix>3d</fix>
</trkpt>
<trkpt lat="33.8102613" lon="-118.3939315">
  <ele>-0.117</ele>
  <time>2026-09-02T22:07:25Z</time>
  <course>11.53</course>
  <speed>0.7247068372797375</speed>
  <fix>3d</fix>
</trkpt>
<trkpt lat="33.8102613" lon="-118.3939315">
  <ele>-0.117</ele>
  <time>2026-09-02T22:07:25Z</time>
  <course>11.53</course>
  <speed>0.7247068372797375</speed>
  <fix>3d</fix>
</trkpt>
<trkpt lat="33.8102613" lon="-118.3939314">
  <ele>-0.117</ele>
  <time>2026-09-02T22:07:25Z</time>
  <course>11.53</course>
  <speed>0.7247068372797375</speed>
  <fix>3d</fix>
</trkpt>
<trkpt lat="33.8102614" lon="-118.3939314">
  <ele>-0.117</ele>
  <time>2026-09-02T22:07:25Z</time>
  <course>11.53</course>
  <speed>0.7247068372797375</speed>
  <fix>3d</fix>
</trkpt>
<trkpt lat="33.8102609" lon="-118.3939325">
  <ele>-0.1</ele>
  <time>2026-09-02T22:07:25Z</time>
  <course>48.32</course>
  <speed>0.73</speed>
  <fix>3d</fix>
</trkpt>
<trkpt lat="33.8102614" lon="-118.3939314">
  <ele>-0.117</ele>
  <time>2026-09-02T22:07:25Z</time>
  <course>11.53</course>
  <speed>0.7247068372797375</speed>
  <fix>3d</fix>
</trkpt>
<trkpt lat="33.8102614" lon="-118.3939313">
  <ele>-0.117</ele>
  <time>2026-09-02T22:07:25Z</time>
  <course>11.53</course>
  <speed>0.7247068372797375</speed>
  <fix>3d</fix>
</trkpt>
<trkpt lat="33.8102615" lon="-118.3939312">
  <ele>-0.117</ele>
  <time>2026-09-02T22:07:25Z</time>
  <course>11.53</course>
  <speed>0.7247068372797375</speed>
  <fix>3d</fix>
</trkpt>
<trkpt lat="33.8102615" lon="-118.3939312">
  <ele>-0.116</ele>
  <time>2026-09-02T22:07:25Z</time>
  <course>11.53</course>
  <speed>0.7247068372797375</speed>
  <fix>3d</fix>
</trkpt>
<trkpt lat="33.8102616" lon="-118.3939311">
  <ele>-0.116</ele>
  <time>2026-09-02T22:07:25Z</time>
  <course>11.53</course>
  <speed>0.7247068372797375</speed>
  <fix>3d</fix>
</trkpt>
<trkpt lat="33.8102616" lon="-118.3939311">
  <ele>-0.116</ele>
  <time>2026-09-02T22:07:25Z</time>
  <course>11.53</course>
  <speed>0.7247068372797375</speed>
  <fix>3d</fix>
</trkpt>
<trkpt lat="33.8102616" lon="-118.393931">
  <ele>-0.116</ele>
  <time>2026-09-02T22:07:25Z</time>
  <course>11.53</course>
  <speed>0.7247068372797375</speed>
  <fix>3d</fix>
</trkpt>
<trkpt lat="33.8102617" lon="-118.393931">
  <ele>-0.116</ele>
  <time>2026-09-02T22:07:25Z</time>
  <course>11.53</course>
  <speed>0.7247068372797375</speed>
  <fix>3d</fix>
</trkpt>
<trkpt lat="33.8102617" lon="-118.3939309">
  <ele>-0.116</ele>
  <time>2026-09-02T22:07:25Z</time>
  <course>11.53</course>
  <speed>0.7247068372797375</speed>
  <fix>3d</fix>
</trkpt>
<trkpt lat="33.8102617" lon="-118.3939309">
  <ele>-0.116</ele>
  <time>2026-09-02T22:07:25Z</time>
  <course>11.53</course>
  <speed>0.7247068372797375</speed>
  <fix>3d</fix>
</trkpt>
<trkpt lat="33.8102618" lon="-118.3939308">
  <ele>-0.116</ele>
  <time>2026-09-02T22:07:25Z</time>
  <course>11.53</course>
  <speed>0.7247068372797375</speed>
  <fix>3d</fix>
</trkpt>
<trkpt lat="33.8102618" lon="-118.3939308">
  <ele>-0.116</ele>
  <time>2026-09-02T22:07:25Z</time>
  <course>11.53</course>
  <speed>0.7247068372797375</speed>
  <fix>3d</fix>
</trkpt>
<trkpt lat="33.8102609" lon="-118.3939325">
  <ele>-0.1</ele>
  <time>2026-09-02T22:07:25Z</time>
  <course>48.32</course>
  <speed>0.73</speed>
  <fix>3d</fix>
</trkpt>
<trkpt lat="33.8102618" lon="-118.3939308">
  <ele>-0.116</ele>
  <time>2026-09-02T22:07:25Z</time>
  <course>11.53</course>
  <speed>0.7247068372797375</speed>
  <fix>3d</fix>
</trkpt>
<trkpt lat="33.8102619" lon="-118.3939307">
  <ele>-0.116</ele>
  <time>2026-09-02T22:07:25Z</time>
  <course>11.54</course>
  <speed>0.7247068372797375</speed>
  <fix>3d</fix>
</trkpt>
<trkpt lat="33.8102619" lon="-118.3939307">
  <ele>-0.116</ele>
  <time>2026-09-02T22:07:25Z</time>
  <course>11.54</course>
  <speed>0.7247068372797375</speed>
  <fix>3d</fix>
</trkpt>
<trkpt lat="33.8102619" lon="-118.3939306">
  <ele>-0.116</ele>
  <time>2026-09-02T22:07:25Z</time>
  <course>11.54</course>
  <speed>0.7247068372797375</speed>
  <fix>3d</fix>
</trkpt>
<trkpt lat="33.8102619" lon="-118.3939306">
  <ele>-0.115</ele>
  <time>2026-09-02T22:07:25Z</time>
  <course>11.54</course>
  <speed>0.7247068372797375</speed>
  <fix>3d</fix>
</trkpt>
<trkpt lat="33.810262" lon="-118.3939305">
  <ele>-0.115</ele>
  <time>2026-09-02T22:07:25Z</time>
  <course>11.54</course>
  <speed>0.7247068372797375</speed>
  <fix>3d</fix>
</trkpt>
<trkpt lat="33.810262" lon="-118.3939305">
  <ele>-0.115</ele>
  <time>2026-09-02T22:07:25Z</time>
  <course>11.54</course>
  <speed>0.7247068372797375</speed>
  <fix>3d</fix>
</trkpt>
<trkpt lat="33.8102621" lon="-118.3939304">
  <ele>-0.115</ele>
  <time>2026-09-02T22:07:25Z</time>
  <course>11.54</course>
  <speed>0.7247068372797375</speed>
  <fix>3d</fix>
</trkpt>
<trkpt lat="33.8102621" lon="-118.3939304">
  <ele>-0.115</ele>
  <time>2026-09-02T22:07:25Z</time>
  <course>11.54</course>
  <speed>0.7247068372797375</speed>
  <fix>3d</fix>
</trkpt>
<trkpt lat="33.8102621" lon="-118.3939304">
  <ele>-0.115</ele>
  <time>2026-09-02T22:07:25Z</time>
  <course>11.54</course>
  <speed>0.7247068372797375</speed>
  <fix>3d</fix>
</trkpt>
<trkpt lat="33.8102622" lon="-118.3939303">
  <ele>-0.115</ele>
  <time>2026-09-02T22:07:25Z</time>
  <course>11.54</course>
  <speed>0.7247068372797375</speed>
  <fix>3d</fix>
</trkpt>
<trkpt lat="33.8102622" lon="-118.3939303">
  <ele>-0.115</ele>
  <time>2026-09-02T22:07:25Z</time>
  <course>11.54</course>
  <speed>0.7247068372797375</speed>
  <fix>3d</fix>
</trkpt>
<trkpt lat="33.8102622" lon="-118.3939302">
  <ele>-0.115</ele>
  <time>2026-09-02T22:07:25Z</time>
  <course>11.54</course>
  <speed>0.7247068372797375</speed>
  <fix>3d</fix>
</trkpt>
<trkpt lat="33.8102618" lon="-118.3939313">
  <ele>-0.1</ele>
  <time>2026-09-02T22:07:25Z</time>
  <course>48.33</course>
  <speed>0.73</speed>
  <fix>3d</fix>
</trkpt>
<trkpt lat="33.8102622" lon="-118.3939302">
  <ele>-0.115</ele>
  <time>2026-09-02T22:07:25Z</time>
  <course>11.54</course>
  <speed>0.7247068372797375</speed>
  <fix>3d</fix>
</trkpt>
<trkpt lat="33.8102623" lon="-118.3939301">
  <ele>-0.115</ele>
  <time>2026-09-02T22:07:25Z</time>
  <course>11.54</course>
  <speed>0.7247068372797375</speed>
  <fix>3d</fix>
</trkpt>
<trkpt lat="33.8102623" lon="-118.3939301">
  <ele>-0.115</ele>
  <time>2026-09-02T22:07:25Z</time>
  <course>11.54</course>
  <speed>0.7247068372797375</speed>
  <fix>3d</fix>
</trkpt>
<trkpt lat="33.8102624" lon="-118.39393">
  <ele>-0.115</ele>
  <time>2026-09-02T22:07:25Z</time>
  <course>11.54</course>
  <speed>0.7247068372797375</speed>
  <fix>3d</fix>
</trkpt>
<trkpt lat="33.8102624" lon="-118.39393">
  <ele>-0.115</ele>
  <time>2026-09-02T22:07:25Z</time>
  <course>11.54</course>
  <speed>0.7247068372797375</speed>
  <fix>3d</fix>
</trkpt>
<trkpt lat="33.8102624" lon="-118.3939299">
  <ele>-0.115</ele>
  <time>2026-09-02T22:07:25Z</time>
  <course>11.54</course>
  <speed>0.7247068372797375</speed>
  <fix>3d</fix>
</trkpt>
<trkpt lat="33.8102625" lon="-118.3939299">
  <ele>-0.115</ele>
  <time>2026-09-02T22:07:25Z</time>
  <course>11.54</course>
  <speed>0.7247068372797375</speed>
  <fix>3d</fix>
</trkpt>
<trkpt lat="33.8102625" lon="-118.3939298">
  <ele>-0.115</ele>
  <time>2026-09-02T22:07:25Z</time>
  <course>11.54</course>
  <speed>0.7247068372797375</speed>
  <fix>3d</fix>
</trkpt>
<trkpt lat="33.8102626" lon="-118.3939297">
  <ele>-0.115</ele>
  <time>2026-09-02T22:07:25Z</time>
  <course>11.54</course>
  <speed>0.7247068372797375</speed>
  <fix>3d</fix>
</trkpt>
<trkpt lat="33.8102626" lon="-118.3939296">
  <ele>-0.115</ele>
  <time>2026-09-02T22:07:25Z</time>
  <course>11.54</course>
  <speed>0.7247068372797375</speed>
  <fix>3d</fix>
</trkpt>
<trkpt lat="33.8102627" lon="-118.3939296">
  <ele>-0.115</ele>
  <time>2026-09-02T22:07:25Z</time>
  <course>11.54</course>
  <speed>0.7247068372797375</speed>
  <fix>3d</fix>
</trkpt>
<trkpt lat="33.8102618" lon="-118.3939313">
  <ele>-0.1</ele>
  <time>2026-09-02T22:07:25Z</time>
  <course>48.33</course>
  <speed>0.73</speed>
  <fix>3d</fix>
</trkpt>
<trkpt lat="33.8102628" lon="-118.3939294">
  <ele>-0.114</ele>
  <time>2026-09-02T22:07:25Z</time>
  <course>11.55</course>
  <speed>0.7247068372797375</speed>
  <fix>3d</fix>
</trkpt>
<trkpt lat="33.8102629" lon="-118.3939294">
  <ele>-0.114</ele>
  <time>2026-09-02T22:07:25Z</time>
  <course>11.55</course>
  <speed>0.7247068372797375</speed>
  <fix>3d</fix>
</trkpt>
<trkpt lat="33.8102629" lon="-118.3939293">
  <ele>-0.114</ele>
  <time>2026-09-02T22:07:25Z</time>
  <course>11.55</course>
  <speed>0.7247068372797375</speed>
  <fix>3d</fix>
</trkpt>
<trkpt lat="33.8102629" lon="-118.3939292">
  <ele>-0.114</ele>
  <time>2026-09-02T22:07:25Z</time>
  <course>11.55</course>
  <speed>0.7247068372797375</speed>
  <fix>3d</fix>
</trkpt>
<trkpt lat="33.810263" lon="-118.3939292">
  <ele>-0.114</ele>
  <time>2026-09-02T22:07:25Z</time>
  <course>11.55</course>
  <speed>0.7247068372797375</speed>
  <fix>3d</fix>
</trkpt>
<trkpt lat="33.810263" lon="-118.3939291">
  <ele>-0.113</ele>
  <time>2026-09-02T22:07:25Z</time>
  <course>11.55</course>
  <speed>0.7247068372797375</speed>
  <fix>3d</fix>
</trkpt>
<trkpt lat="33.8102631" lon="-118.393929">
  <ele>-0.113</ele>
  <time>2026-09-02T22:07:25Z</time>
  <course>11.55</course>
  <speed>0.7247068372797375</speed>
  <fix>3d</fix>
</trkpt>
<trkpt lat="33.8102631" lon="-118.393929">
  <ele>-0.113</ele>
  <time>2026-09-02T22:07:25Z</time>
  <course>11.55</course>
  <speed>0.7247068372797375</speed>
  <fix>3d</fix>
</trkpt>
<trkpt lat="33.8102627" lon="-118.3939301">
  <ele>-0.11</ele>
  <time>2026-09-02T22:07:25Z</time>
  <course>48.33</course>
  <speed>0.73</speed>
  <fix>3d</fix>
</trkpt>
<trkpt lat="33.8102631" lon="-118.393929">
  <ele>-0.113</ele>
  <time>2026-09-02T22:07:25Z</time>
  <course>11.55</course>
  <speed>0.7247068372797375</speed>
  <fix>3d</fix>
</trkpt>
<trkpt lat="33.8102633" lon="-118.3939288">
  <ele>-0.113</ele>
  <time>2026-09-02T22:07:25Z</time>
  <course>11.55</course>
  <speed>0.7247068372797375</speed>
  <fix>3d</fix>
</trkpt>
<trkpt lat="33.8102633" lon="-118.3939288">
  <ele>-0.112</ele>
  <time>2026-09-02T22:07:25Z</time>
  <course>11.55</course>
  <speed>0.7247068372797375</speed>
  <fix>3d</fix>
</trkpt>
<trkpt lat="33.8102634" lon="-118.3939287">
  <ele>-0.112</ele>
  <time>2026-09-02T22:07:25Z</time>
  <course>11.55</course>
  <speed>0.7247068372797375</speed>
  <fix>3d</fix>
</trkpt>
<trkpt lat="33.8102634" lon="-118.3939286">
  <ele>-0.112</ele>
  <time>2026-09-02T22:07:25Z</time>
  <course>11.55</course>
  <speed>0.7247068372797375</speed>
  <fix>3d</fix>
</trkpt>
<trkpt lat="33.8102635" lon="-118.3939285">
  <ele>-0.111</ele>
  <time>2026-09-02T22:07:25Z</time>
  <course>11.55</course>
  <speed>0.7247068372797375</speed>
  <fix>3d</fix>
</trkpt>
<trkpt lat="33.8102635" lon="-118.3939285">
  <ele>-0.111</ele>
  <time>2026-09-02T22:07:25Z</time>
  <course>11.55</course>
  <speed>0.7247068372797375</speed>
  <fix>3d</fix>
</trkpt>
<trkpt lat="33.8102635" lon="-118.3939285">
  <ele>-0.111</ele>
  <time>2026-09-02T22:07:25Z</time>
  <course>11.55</course>
  <speed>0.7247068372797375</speed>
  <fix>3d</fix>
</trkpt>
<trkpt lat="33.8102627" lon="-118.3939301">
  <ele>-0.11</ele>
  <time>2026-09-02T22:07:25Z</time>
  <course>48.33</course>
  <speed>0.73</speed>
  <fix>3d</fix>
</trkpt>
<trkpt lat="33.8102637" lon="-118.3939283">
  <ele>-0.111</ele>
  <time>2026-09-02T22:07:25Z</time>
  <course>11.55</course>
  <speed>0.7247068372797375</speed>
  <fix>3d</fix>
</trkpt>
<trkpt lat="33.8102637" lon="-118.3939282">
  <ele>-0.11</ele>
  <time>2026-09-02T22:07:25Z</time>
  <course>11.55</course>
  <speed>0.7247068372797375</speed>
  <fix>3d</fix>
</trkpt>
<trkpt lat="33.8102638" lon="-118.3939281">
  <ele>-0.11</ele>
  <time>2026-09-02T22:07:25Z</time>
  <course>11.55</course>
  <speed>0.7247068372797375</speed>
  <fix>3d</fix>
</trkpt>
<trkpt lat="33.8102638" lon="-118.3939281">
  <ele>-0.109</ele>
  <time>2026-09-02T22:07:25Z</time>
  <course>11.56</course>
  <speed>0.7247068372797375</speed>
  <fix>3d</fix>
</trkpt>
<trkpt lat="33.8102639" lon="-118.393928">
  <ele>-0.109</ele>
  <time>2026-09-02T22:07:25Z</time>
  <course>11.56</course>
  <speed>0.7247068372797375</speed>
  <fix>3d</fix>
</trkpt>
<trkpt lat="33.8102639" lon="-118.3939279">
  <ele>-0.109</ele>
  <time>2026-09-02T22:07:25Z</time>
  <course>11.56</course>
  <speed>0.7247068372797375</speed>
  <fix>3d</fix>
</trkpt>
<trkpt lat="33.810264" lon="-118.3939279">
  <ele>-0.108</ele>
  <time>2026-09-02T22:07:25Z</time>
  <course>11.56</course>
  <speed>0.7247068372797375</speed>
  <fix>3d</fix>
</trkpt>
<trkpt lat="33.810264" lon="-118.3939279">
  <ele>-0.108</ele>
  <time>2026-09-02T22:07:25Z</time>
  <course>11.56</course>
  <speed>0.7247068372797375</speed>
  <fix>3d</fix>
</trkpt>
<trkpt lat="33.8102636" lon="-118.3939289">
  <ele>-0.1</ele>
  <time>2026-09-02T22:07:25Z</time>
  <course>48.34</course>
  <speed>0.73</speed>
  <fix>3d</fix>
</trkpt>
<trkpt lat="33.810264" lon="-118.3939278">
  <ele>-0.108</ele>
  <time>2026-09-02T22:07:25Z</time>
  <course>11.56</course>
  <speed>0.7247068372797375</speed>
  <fix>3d</fix>
</trkpt>
<trkpt lat="33.8102641" lon="-118.3939276">
  <ele>-0.107</ele>
  <time>2026-09-02T22:07:25Z</time>
  <course>11.56</course>
  <speed>0.7247068372797375</speed>
  <fix>3d</fix>
</trkpt>
<trkpt lat="33.8102642" lon="-118.3939276">
  <ele>-0.107</ele>
  <time>2026-09-02T22:07:25Z</time>
  <course>11.56</course>
  <speed>0.7247068372797375</speed>
  <fix>3d</fix>
</trkpt>
<trkpt lat="33.8102643" lon="-118.3939275">
  <ele>-0.107</ele>
  <time>2026-09-02T22:07:25Z</time>
  <course>11.56</course>
  <speed>0.7247068372797375</speed>
  <fix>3d</fix>
</trkpt>
<trkpt lat="33.8102643" lon="-118.3939274">
  <ele>-0.106</ele>
  <time>2026-09-02T22:07:25Z</time>
  <course>11.56</course>
  <speed>0.7247068372797375</speed>
  <fix>3d</fix>
</trkpt>
<trkpt lat="33.8102643" lon="-118.3939274">
  <ele>-0.106</ele>
  <time>2026-09-02T22:07:25Z</time>
  <course>11.56</course>
  <speed>0.7247068372797375</speed>
  <fix>3d</fix>
</trkpt>
<trkpt lat="33.8102644" lon="-118.3939273">
  <ele>-0.106</ele>
  <time>2026-09-02T22:07:25Z</time>
  <course>11.56</course>
  <speed>0.7247068372797375</speed>
  <fix>3d</fix>
</trkpt>
<trkpt lat="33.8102644" lon="-118.3939273">
  <ele>-0.106</ele>
  <time>2026-09-02T22:07:25Z</time>
  <course>11.56</course>
  <speed>0.7247068372797375</speed>
  <fix>3d</fix>
</trkpt>
<trkpt lat="33.8102636" lon="-118.3939289">
  <ele>-0.1</ele>
  <time>2026-09-02T22:07:25Z</time>
  <course>48.34</course>
  <speed>0.73</speed>
  <fix>3d</fix>
</trkpt>
<trkpt lat="33.8102645" lon="-118.3939271">
  <ele>-0.105</ele>
  <time>2026-09-02T22:07:25Z</time>
  <course>11.56</course>
  <speed>0.7247068372797375</speed>
  <fix>3d</fix>
</trkpt>
<trkpt lat="33.8102646" lon="-118.393927">
  <ele>-0.105</ele>
  <time>2026-09-02T22:07:25Z</time>
  <course>11.56</course>
  <speed>0.7247068372797375</speed>
  <fix>3d</fix>
</trkpt>
<trkpt lat="33.8102647" lon="-118.3939269">
  <ele>-0.105</ele>
  <time>2026-09-02T22:07:25Z</time>
  <course>11.56</course>
  <speed>0.7247068372797375</speed>
  <fix>3d</fix>
</trkpt>
<trkpt lat="33.8102647" lon="-118.3939269">
  <ele>-0.105</ele>
  <time>2026-09-02T22:07:25Z</time>
  <course>11.56</course>
  <speed>0.7247068372797375</speed>
  <fix>3d</fix>
</trkpt>
<trkpt lat="33.8102648" lon="-118.3939268">
  <ele>-0.105</ele>
  <time>2026-09-02T22:07:25Z</time>
  <course>11.56</course>
  <speed>0.7247068372797375</speed>
  <fix>3d</fix>
</trkpt>
<trkpt lat="33.8102648" lon="-118.3939267">
  <ele>-0.105</ele>
  <time>2026-09-02T22:07:25Z</time>
  <course>11.57</course>
  <speed>0.7247068372797375</speed>
  <fix>3d</fix>
</trkpt>
<trkpt lat="33.8102649" lon="-118.3939267">
  <ele>-0.105</ele>
  <time>2026-09-02T22:07:25Z</time>
  <course>11.57</course>
  <speed>0.7247068372797375</speed>
  <fix>3d</fix>
</trkpt>
<trkpt lat="33.8102645" lon="-118.3939277">
  <ele>-0.1</ele>
  <time>2026-09-02T22:07:25Z</time>
  <course>48.35</course>
  <speed>0.73</speed>
  <fix>3d</fix>
</trkpt>
<trkpt lat="33.8102649" lon="-118.3939267">
  <ele>-0.105</ele>
  <time>2026-09-02T22:07:25Z</time>
  <course>11.57</course>
  <speed>0.7247068372797375</speed>
  <fix>3d</fix>
</trkpt>
<trkpt lat="33.810265" lon="-118.3939265">
  <ele>-0.105</ele>
  <time>2026-09-02T22:07:25Z</time>
  <course>11.57</course>
  <speed>0.7247068372797375</speed>
  <fix>3d</fix>
</trkpt>
<trkpt lat="33.8102651" lon="-118.3939264">
  <ele>-0.105</ele>
  <time>2026-09-02T22:07:25Z</time>
  <course>11.57</course>
  <speed>0.7247068372797375</speed>
  <fix>3d</fix>
</trkpt>
<trkpt lat="33.8102651" lon="-118.3939263">
  <ele>-0.104</ele>
  <time>2026-09-02T22:07:25Z</time>
  <course>11.57</course>
  <speed>0.7247068372797375</speed>
  <fix>3d</fix>
</trkpt>
<trkpt lat="33.8102652" lon="-118.3939263">
  <ele>-0.104</ele>
  <time>2026-09-02T22:07:25Z</time>
  <course>11.57</course>
  <speed>0.7247068372797375</speed>
  <fix>3d</fix>
</trkpt>
<trkpt lat="33.8102652" lon="-118.3939262">
  <ele>-0.104</ele>
  <time>2026-09-02T22:07:25Z</time>
  <course>11.57</course>
  <speed>0.7247068372797375</speed>
  <fix>3d</fix>
</trkpt>
<trkpt lat="33.8102653" lon="-118.3939261">
  <ele>-0.104</ele>
  <time>2026-09-02T22:07:25Z</time>
  <course>11.57</course>
  <speed>0.7247068372797375</speed>
  <fix>3d</fix>
</trkpt>
<trkpt lat="33.8102653" lon="-118.3939261">
  <ele>-0.104</ele>
  <time>2026-09-02T22:07:25Z</time>
  <course>11.57</course>
  <speed>0.7247068372797375</speed>
  <fix>3d</fix>
</trkpt>
<trkpt lat="33.8102645" lon="-118.3939277">
  <ele>-0.1</ele>
  <time>2026-09-02T22:07:25Z</time>
  <course>48.35</course>
  <speed>0.73</speed>
  <fix>3d</fix>
</trkpt>
<trkpt lat="33.8102653" lon="-118.3939261">
  <ele>-0.104</ele>
  <time>2026-09-02T22:07:25Z</time>
  <course>11.57</course>
  <speed>0.7247068372797375</speed>
  <fix>3d</fix>
</trkpt>
<trkpt lat="33.8102655" lon="-118.3939259">
  <ele>-0.104</ele>
  <time>2026-09-02T22:07:25Z</time>
  <course>11.57</course>
  <speed>0.7247068372797375</speed>
  <fix>3d</fix>
</trkpt>
<trkpt lat="33.8102655" lon="-118.3939258">
  <ele>-0.104</ele>
  <time>2026-09-02T22:07:25Z</time>
  <course>11.57</course>
  <speed>0.7247068372797375</speed>
  <fix>3d</fix>
</trkpt>
<trkpt lat="33.8102656" lon="-118.3939257">
  <ele>-0.104</ele>
  <time>2026-09-02T22:07:25Z</time>
  <course>11.57</course>
  <speed>0.7247068372797375</speed>
  <fix>3d</fix>
</trkpt>
<trkpt lat="33.8102656" lon="-118.3939256">
  <ele>-0.104</ele>
  <time>2026-09-02T22:07:25Z</time>
  <course>11.57</course>
  <speed>0.7247068372797375</speed>
  <fix>3d</fix>
</trkpt>
<trkpt lat="33.8102657" lon="-118.3939255">
  <ele>-0.104</ele>
  <time>2026-09-02T22:07:25Z</time>
  <course>11.57</course>
  <speed>0.7247068372797375</speed>
  <fix>3d</fix>
</trkpt>
<trkpt lat="33.8102657" lon="-118.3939255">
  <ele>-0.104</ele>
  <time>2026-09-02T22:07:25Z</time>
  <course>11.57</course>
  <speed>0.7247068372797375</speed>
  <fix>3d</fix>
</trkpt>
<trkpt lat="33.8102654" lon="-118.3939265">
  <ele>-0.1</ele>
  <time>2026-09-02T22:07:25Z</time>
  <course>48.36</course>
  <speed>0.73</speed>
  <fix>3d</fix>
</trkpt>
<trkpt lat="33.8102657" lon="-118.3939255">
  <ele>-0.104</ele>
  <time>2026-09-02T22:07:25Z</time>
  <course>11.57</course>
  <speed>0.7247068372797375</speed>
  <fix>3d</fix>
</trkpt>
<trkpt lat="33.8102659" lon="-118.3939253">
  <ele>-0.104</ele>
  <time>2026-09-02T22:07:25Z</time>
  <course>11.58</course>
  <speed>0.7247068372797375</speed>
  <fix>3d</fix>
</trkpt>
<trkpt lat="33.8102659" lon="-118.3939252">
  <ele>-0.104</ele>
  <time>2026-09-02T22:07:25Z</time>
  <course>11.58</course>
  <speed>0.7247068372797375</speed>
  <fix>3d</fix>
</trkpt>
<trkpt lat="33.810266" lon="-118.3939251">
  <ele>-0.105</ele>
  <time>2026-09-02T22:07:25Z</time>
  <course>11.58</course>
  <speed>0.7247068372797375</speed>
  <fix>3d</fix>
</trkpt>
<trkpt lat="33.810266" lon="-118.3939251">
  <ele>-0.105</ele>
  <time>2026-09-02T22:07:25Z</time>
  <course>11.58</course>
  <speed>0.7247068372797375</speed>
  <fix>3d</fix>
</trkpt>
<trkpt lat="33.8102661" lon="-118.393925">
  <ele>-0.105</ele>
  <time>2026-09-02T22:07:25Z</time>
  <course>11.58</course>
  <speed>0.7247068372797375</speed>
  <fix>3d</fix>
</trkpt>
<trkpt lat="33.8102662" lon="-118.3939249">
  <ele>-0.105</ele>
  <time>2026-09-02T22:07:25Z</time>
  <course>11.58</course>
  <speed>0.7247068372797375</speed>
  <fix>3d</fix>
</trkpt>
<trkpt lat="33.8102662" lon="-118.3939249">
  <ele>-0.105</ele>
  <time>2026-09-02T22:07:25Z</time>
  <course>11.58</course>
  <speed>0.7247068372797375</speed>
  <fix>3d</fix>
</trkpt>
<trkpt lat="33.8102654" lon="-118.3939265">
  <ele>-0.1</ele>
  <time>2026-09-02T22:07:25Z</time>
  <course>48.36</course>
  <speed>0.73</speed>
  <fix>3d</fix>
</trkpt>
<trkpt lat="33.8102662" lon="-118.3939249">
  <ele>-0.105</ele>
  <time>2026-09-02T22:07:25Z</time>
  <course>11.58</course>
  <speed>0.7247068372797375</speed>
  <fix>3d</fix>
</trkpt>
<trkpt lat="33.8102663" lon="-118.3939247">
  <ele>-0.105</ele>
  <time>2026-09-02T22:07:25Z</time>
  <course>11.58</course>
  <speed>0.7247068372797375</speed>
  <fix>3d</fix>
</trkpt>
<trkpt lat="33.8102664" lon="-118.3939246">
  <ele>-0.105</ele>
  <time>2026-09-02T22:07:25Z</time>
  <course>11.58</course>
  <speed>0.7247068372797375</speed>
  <fix>3d</fix>
</trkpt>
<trkpt lat="33.8102664" lon="-118.3939245">
  <ele>-0.105</ele>
  <time>2026-09-02T22:07:25Z</time>
  <course>11.58</course>
  <speed>0.7247068372797375</speed>
  <fix>3d</fix>
</trkpt>
<trkpt lat="33.8102665" lon="-118.3939245">
  <ele>-0.105</ele>
  <time>2026-09-02T22:07:25Z</time>
  <course>11.58</course>
  <speed>0.7247068372797375</speed>
  <fix>3d</fix>
</trkpt>
<trkpt lat="33.8102665" lon="-118.3939244">
  <ele>-0.106</ele>
  <time>2026-09-02T22:07:25Z</time>
  <course>11.58</course>
  <speed>0.7247068372797375</speed>
  <fix>3d</fix>
</trkpt>
<trkpt lat="33.8102666" lon="-118.3939243">
  <ele>-0.106</ele>
  <time>2026-09-02T22:07:25Z</time>
  <course>11.58</course>
  <speed>0.7247068372797375</speed>
  <fix>3d</fix>
</trkpt>
<trkpt lat="33.8102666" lon="-118.3939243">
  <ele>-0.106</ele>
  <time>2026-09-02T22:07:25Z</time>
  <course>11.58</course>
  <speed>0.7247068372797375</speed>
  <fix>3d</fix>
</trkpt>
<trkpt lat="33.8102662" lon="-118.3939253">
  <ele>-0.1</ele>
  <time>2026-09-02T22:07:25Z</time>
  <course>48.37</course>
  <speed>0.73</speed>
  <fix>3d</fix>
</trkpt>
<trkpt lat="33.8102666" lon="-118.3939243">
  <ele>-0.106</ele>
  <time>2026-09-02T22:07:25Z</time>
  <course>11.58</course>
  <speed>0.7247068372797375</speed>
  <fix>3d</fix>
</trkpt>
<trkpt lat="33.8102667" lon="-118.3939242">
  <ele>-0.106</ele>
  <time>2026-09-02T22:07:25Z</time>
  <course>11.58</course>
  <speed>0.7247068372797375</speed>
  <fix>3d</fix>
</trkpt>
<trkpt lat="33.8102668" lon="-118.3939241">
  <ele>-0.106</ele>
  <time>2026-09-02T22:07:25Z</time>
  <course>11.59</course>
  <speed>0.7247068372797375</speed>
  <fix>3d</fix>
</trkpt>
<trkpt lat="33.8102668" lon="-118.3939241">
  <ele>-0.106</ele>
  <time>2026-09-02T22:07:25Z</time>
  <course>11.59</course>
  <speed>0.7247068372797375</speed>
  <fix>3d</fix>
</trkpt>
<trkpt lat="33.8102668" lon="-118.393924">
  <ele>-0.106</ele>
  <time>2026-09-02T22:07:25Z</time>
  <course>11.59</course>
  <speed>0.7247068372797375</speed>
  <fix>3d</fix>
</trkpt>
<trkpt lat="33.8102669" lon="-118.3939239">
  <ele>-0.106</ele>
  <time>2026-09-02T22:07:25Z</time>
  <course>11.59</course>
  <speed>0.7247068372797375</speed>
  <fix>3d</fix>
</trkpt>
<trkpt lat="33.8102669" lon="-118.3939239">
  <ele>-0.106</ele>
  <time>2026-09-02T22:07:25Z</time>
  <course>11.59</course>
  <speed>0.7247068372797375</speed>
  <fix>3d</fix>
</trkpt>
<trkpt lat="33.810267" lon="-118.3939238">
  <ele>-0.107</ele>
  <time>2026-09-02T22:07:25Z</time>
  <course>11.59</course>
  <speed>0.7247068372797375</speed>
  <fix>3d</fix>
</trkpt>
<trkpt lat="33.810267" lon="-118.3939237">
  <ele>-0.107</ele>
  <time>2026-09-02T22:07:25Z</time>
  <course>11.59</course>
  <speed>0.7247068372797375</speed>
  <fix>3d</fix>
</trkpt>
<trkpt lat="33.8102671" lon="-118.3939237">
  <ele>-0.107</ele>
  <time>2026-09-02T22:07:25Z</time>
  <course>11.59</course>
  <speed>0.7247068372797375</speed>
  <fix>3d</fix>
</trkpt>
<trkpt lat="33.8102671" lon="-118.3939237">
  <ele>-0.107</ele>
  <time>2026-09-02T22:07:25Z</time>
  <course>11.59</course>
  <speed>0.7247068372797375</speed>
  <fix>3d</fix>
</trkpt>
<trkpt lat="33.8102662" lon="-118.3939253">
  <ele>-0.1</ele>
  <time>2026-09-02T22:07:25Z</time>
  <course>48.37</course>
  <speed>0.73</speed>
  <fix>3d</fix>
</trkpt>
<trkpt lat="33.8102671" lon="-118.3939236">
  <ele>-0.107</ele>
  <time>2026-09-02T22:07:25Z</time>
  <course>11.59</course>
  <speed>0.7247068372797375</speed>
  <fix>3d</fix>
</trkpt>
<trkpt lat="33.8102672" lon="-118.3939235">
  <ele>-0.107</ele>
  <time>2026-09-02T22:07:25Z</time>
  <course>11.59</course>
  <speed>0.7247068372797375</speed>
  <fix>3d</fix>
</trkpt>
<trkpt lat="33.8102672" lon="-118.3939235">
  <ele>-0.107</ele>
  <time>2026-09-02T22:07:25Z</time>
  <course>11.59</course>
  <speed>0.7247068372797375</speed>
  <fix>3d</fix>
</trkpt>
<trkpt lat="33.8102672" lon="-118.3939234">
  <ele>-0.107</ele>
  <time>2026-09-02T22:07:25Z</time>
  <course>11.59</course>
  <speed>0.7247068372797375</speed>
  <fix>3d</fix>
</trkpt>
<trkpt lat="33.8102673" lon="-118.3939234">
  <ele>-0.107</ele>
  <time>2026-09-02T22:07:25Z</time>
  <course>11.59</course>
  <speed>0.7247068372797375</speed>
  <fix>3d</fix>
</trkpt>
<trkpt lat="33.8102673" lon="-118.3939233">
  <ele>-0.107</ele>
  <time>2026-09-02T22:07:25Z</time>
  <course>11.59</course>
  <speed>0.7247068372797375</speed>
  <fix>3d</fix>
</trkpt>
<trkpt lat="33.8102674" lon="-118.3939233">
  <ele>-0.108</ele>
  <time>2026-09-02T22:07:25Z</time>
  <course>11.59</course>
  <speed>0.7247068372797375</speed>
  <fix>3d</fix>
</trkpt>
<trkpt lat="33.8102674" lon="-118.3939232">
  <ele>-0.108</ele>
  <time>2026-09-02T22:07:25Z</time>
  <course>11.59</course>
  <speed>0.7247068372797375</speed>
  <fix>3d</fix>
</trkpt>
<trkpt lat="33.8102674" lon="-118.3939232">
  <ele>-0.108</ele>
  <time>2026-09-02T22:07:25Z</time>
  <course>11.59</course>
  <speed>0.7247068372797375</speed>
  <fix>3d</fix>
</trkpt>
<trkpt lat="33.8102675" lon="-118.3939231">
  <ele>-0.108</ele>
  <time>2026-09-02T22:07:25Z</time>
  <course>11.59</course>
  <speed>0.7247068372797375</speed>
  <fix>3d</fix>
</trkpt>
<trkpt lat="33.8102675" lon="-118.3939231">
  <ele>-0.108</ele>
  <time>2026-09-02T22:07:25Z</time>
  <course>11.59</course>
  <speed>0.7247068372797375</speed>
  <fix>3d</fix>
</trkpt>
<trkpt lat="33.8102671" lon="-118.3939241">
  <ele>-0.11</ele>
  <time>2026-09-02T22:07:25Z</time>
  <course>48.38</course>
  <speed>0.73</speed>
  <fix>3d</fix>
</trkpt>
<trkpt lat="33.8102675" lon="-118.3939231">
  <ele>-0.108</ele>
  <time>2026-09-02T22:07:25Z</time>
  <course>11.59</course>
  <speed>0.7247068372797375</speed>
  <fix>3d</fix>
</trkpt>
<trkpt lat="33.8102676" lon="-118.393923">
  <ele>-0.108</ele>
  <time>2026-09-02T22:07:25Z</time>
  <course>11.59</course>
  <speed>0.7247068372797375</speed>
  <fix>3d</fix>
</trkpt>
<trkpt lat="33.8102676" lon="-118.393923">
  <ele>-0.108</ele>
  <time>2026-09-02T22:07:25Z</time>
  <course>11.59</course>
  <speed>0.7247068372797375</speed>
  <fix>3d</fix>
</trkpt>
<trkpt lat="33.8102676" lon="-118.3939229">
  <ele>-0.109</ele>
  <time>2026-09-02T22:07:25Z</time>
  <course>11.59</course>
  <speed>0.7247068372797375</speed>
  <fix>3d</fix>
</trkpt>
<trkpt lat="33.8102677" lon="-118.3939228">
  <ele>-0.109</ele>
  <time>2026-09-02T22:07:25Z</time>
  <course>11.59</course>
  <speed>0.7247068372797375</speed>
  <fix>3d</fix>
</trkpt>
<trkpt lat="33.8102677" lon="-118.3939228">
  <ele>-0.109</ele>
  <time>2026-09-02T22:07:25Z</time>
  <course>11.59</course>
  <speed>0.7247068372797375</speed>
  <fix>3d</fix>
</trkpt>
<trkpt lat="33.8102678" lon="-118.3939227">
  <ele>-0.109</ele>
  <time>2026-09-02T22:07:25Z</time>
  <course>11.6</course>
  <speed>0.7247068372797375</speed>
  <fix>3d</fix>
</trkpt>
<trkpt lat="33.8102678" lon="-118.3939227">
  <ele>-0.109</ele>
  <time>2026-09-02T22:07:25Z</time>
  <course>11.6</course>
  <speed>0.7247068372797375</speed>
  <fix>3d</fix>
</trkpt>
<trkpt lat="33.8102678" lon="-118.3939227">
  <ele>-0.109</ele>
  <time>2026-09-02T22:07:25Z</time>
  <course>11.6</course>
  <speed>0.7247068372797375</speed>
  <fix>3d</fix>
</trkpt>
<trkpt lat="33.8102679" lon="-118.3939226">
  <ele>-0.109</ele>
  <time>2026-09-02T22:07:25Z</time>
  <course>11.6</course>
  <speed>0.7247068372797375</speed>
  <fix>3d</fix>
</trkpt>
<trkpt lat="33.8102679" lon="-118.3939226">
  <ele>-0.109</ele>
  <time>2026-09-02T22:07:25Z</time>
  <course>11.6</course>
  <speed>0.7247068372797375</speed>
  <fix>3d</fix>
</trkpt>
<trkpt lat="33.8102679" lon="-118.3939225">
  <ele>-0.109</ele>
  <time>2026-09-02T22:07:25Z</time>
  <course>11.6</course>
  <speed>0.7247068372797375</speed>
  <fix>3d</fix>
</trkpt>
<trkpt lat="33.8102679" lon="-118.3939225">
  <ele>-0.109</ele>
  <time>2026-09-02T22:07:25Z</time>
  <course>11.6</course>
  <speed>0.7247068372797375</speed>
  <fix>3d</fix>
</trkpt>
<trkpt lat="33.8102671" lon="-118.3939241">
  <ele>-0.11</ele>
  <time>2026-09-02T22:07:25Z</time>
  <course>48.38</course>
  <speed>0.73</speed>
  <fix>3d</fix>
</trkpt>
<trkpt lat="33.810268" lon="-118.3939224">
  <ele>-0.109</ele>
  <time>2026-09-02T22:07:25Z</time>
  <course>11.6</course>
  <speed>0.7247068372797375</speed>
  <fix>3d</fix>
</trkpt>
<trkpt lat="33.810268" lon="-118.3939224">
  <ele>-0.11</ele>
  <time>2026-09-02T22:07:25Z</time>
  <course>11.6</course>
  <speed>0.7247068372797375</speed>
  <fix>3d</fix>
</trkpt>
<trkpt lat="33.8102681" lon="-118.3939223">
  <ele>-0.11</ele>
  <time>2026-09-02T22:07:25Z</time>
  <course>11.6</course>
  <speed>0.7247068372797375</speed>
  <fix>3d</fix>
</trkpt>
<trkpt lat="33.8102681" lon="-118.3939222">
  <ele>-0.11</ele>
  <time>2026-09-02T22:07:25Z</time>
  <course>11.6</course>
  <speed>0.7247068372797375</speed>
  <fix>3d</fix>
</trkpt>
<trkpt lat="33.8102681" lon="-118.3939222">
  <ele>-0.11</ele>
  <time>2026-09-02T22:07:25Z</time>
  <course>11.6</course>
  <speed>0.7247068372797375</speed>
  <fix>3d</fix>
</trkpt>
<trkpt lat="33.8102682" lon="-118.3939222">
  <ele>-0.11</ele>
  <time>2026-09-02T22:07:25Z</time>
  <course>11.6</course>
  <speed>0.7247068372797375</speed>
  <fix>3d</fix>
</trkpt>
<trkpt lat="33.8102682" lon="-118.3939221">
  <ele>-0.11</ele>
  <time>2026-09-02T22:07:25Z</time>
  <course>11.6</course>
  <speed>0.7247068372797375</speed>
  <fix>3d</fix>
</trkpt>
<trkpt lat="33.8102682" lon="-118.3939221">
  <ele>-0.11</ele>
  <time>2026-09-02T22:07:25Z</time>
  <course>11.6</course>
  <speed>0.7247068372797375</speed>
  <fix>3d</fix>
</trkpt>
<trkpt lat="33.8102683" lon="-118.393922">
  <ele>-0.11</ele>
  <time>2026-09-02T22:07:25Z</time>
  <course>11.6</course>
  <speed>0.7247068372797375</speed>
  <fix>3d</fix>
</trkpt>
<trkpt lat="33.8102683" lon="-118.393922">
  <ele>-0.11</ele>
  <time>2026-09-02T22:07:25Z</time>
  <course>11.6</course>
  <speed>0.7247068372797375</speed>
  <fix>3d</fix>
</trkpt>
<trkpt lat="33.8102684" lon="-118.3939219">
  <ele>-0.11</ele>
  <time>2026-09-02T22:07:25Z</time>
  <course>11.6</course>
  <speed>0.7247068372797375</speed>
  <fix>3d</fix>
</trkpt>
<trkpt lat="33.810268" lon="-118.393923">
  <ele>-0.1</ele>
  <time>2026-09-02T22:07:25Z</time>
  <course>48.39</course>
  <speed>0.73</speed>
  <fix>3d</fix>
</trkpt>
<trkpt lat="33.8102684" lon="-118.3939219">
  <ele>-0.11</ele>
  <time>2026-09-02T22:07:25Z</time>
  <course>11.6</course>
  <speed>0.7247068372797375</speed>
  <fix>3d</fix>
</trkpt>
<trkpt lat="33.8102685" lon="-118.3939217">
  <ele>-0.11</ele>
  <time>2026-09-02T22:07:25Z</time>
  <course>11.6</course>
  <speed>0.7247068372797375</speed>
  <fix>3d</fix>
</trkpt>
<trkpt lat="33.8102685" lon="-118.3939217">
  <ele>-0.11</ele>
  <time>2026-09-02T22:07:25Z</time>
  <course>11.6</course>
  <speed>0.7247068372797375</speed>
  <fix>3d</fix>
</trkpt>
<trkpt lat="33.8102686" lon="-118.3939216">
  <ele>-0.11</ele>
  <time>2026-09-02T22:07:25Z</time>
  <course>11.6</course>
  <speed>0.7247068372797375</speed>
  <fix>3d</fix>
</trkpt>
<trkpt lat="33.8102686" lon="-118.3939216">
  <ele>-0.11</ele>
  <time>2026-09-02T22:07:25Z</time>
  <course>11.6</course>
  <speed>0.7247068372797375</speed>
  <fix>3d</fix>
</trkpt>
<trkpt lat="33.8102686" lon="-118.3939216">
  <ele>-0.11</ele>
  <time>2026-09-02T22:07:25Z</time>
  <course>11.6</course>
  <speed>0.7247068372797375</speed>
  <fix>3d</fix>
</trkpt>
<trkpt lat="33.8102687" lon="-118.3939215">
  <ele>-0.11</ele>
  <time>2026-09-02T22:07:25Z</time>
  <course>11.6</course>
  <speed>0.7247068372797375</speed>
  <fix>3d</fix>
</trkpt>
<trkpt lat="33.8102687" lon="-118.3939214">
  <ele>-0.11</ele>
  <time>2026-09-02T22:07:25Z</time>
  <course>11.6</course>
  <speed>0.7247068372797375</speed>
  <fix>3d</fix>
</trkpt>
<trkpt lat="33.8102688" lon="-118.3939214">
  <ele>-0.11</ele>
  <time>2026-09-02T22:07:25Z</time>
  <course>11.6</course>
  <speed>0.7247068372797375</speed>
  <fix>3d</fix>
</trkpt>
<trkpt lat="33.8102688" lon="-118.3939213">
  <ele>-0.11</ele>
  <time>2026-09-02T22:07:25Z</time>
  <course>11.61</course>
  <speed>0.7247068372797375</speed>
  <fix>3d</fix>
</trkpt>
<trkpt lat="33.8102688" lon="-118.3939213">
  <ele>-0.11</ele>
  <time>2026-09-02T22:07:25Z</time>
  <course>11.61</course>
  <speed>0.7247068372797375</speed>
  <fix>3d</fix>
</trkpt>
<trkpt lat="33.810268" lon="-118.393923">
  <ele>-0.1</ele>
  <time>2026-09-02T22:07:25Z</time>
  <course>48.39</course>
  <speed>0.73</speed>
  <fix>3d</fix>
</trkpt>
<trkpt lat="33.8102688" lon="-118.3939213">
  <ele>-0.11</ele>
  <time>2026-09-02T22:07:25Z</time>
  <course>11.61</course>
  <speed>0.7247068372797375</speed>
  <fix>3d</fix>
</trkpt>
<trkpt lat="33.8102689" lon="-118.3939212">
  <ele>-0.11</ele>
  <time>2026-09-02T22:07:25Z</time>
  <course>11.61</course>
  <speed>0.7247068372797375</speed>
  <fix>3d</fix>
</trkpt>
<trkpt lat="33.8102689" lon="-118.3939212">
  <ele>-0.11</ele>
  <time>2026-09-02T22:07:25Z</time>
  <course>11.61</course>
  <speed>0.7247068372797375</speed>
  <fix>3d</fix>
</trkpt>
<trkpt lat="33.810269" lon="-118.3939211">
  <ele>-0.11</ele>
  <time>2026-09-02T22:07:25Z</time>
  <course>11.61</course>
  <speed>0.7247068372797375</speed>
  <fix>3d</fix>
</trkpt>
<trkpt lat="33.810269" lon="-118.3939211">
  <ele>-0.11</ele>
  <time>2026-09-02T22:07:25Z</time>
  <course>11.61</course>
  <speed>0.7247068372797375</speed>
  <fix>3d</fix>
</trkpt>
<trkpt lat="33.810269" lon="-118.393921">
  <ele>-0.11</ele>
  <time>2026-09-02T22:07:25Z</time>
  <course>11.61</course>
  <speed>0.7247068372797375</speed>
  <fix>3d</fix>
</trkpt>
<trkpt lat="33.8102691" lon="-118.393921">
  <ele>-0.11</ele>
  <time>2026-09-02T22:07:25Z</time>
  <course>11.61</course>
  <speed>0.7247068372797375</speed>
  <fix>3d</fix>
</trkpt>
<trkpt lat="33.8102691" lon="-118.3939209">
  <ele>-0.11</ele>
  <time>2026-09-02T22:07:25Z</time>
  <course>11.61</course>
  <speed>0.7247068372797375</speed>
  <fix>3d</fix>
</trkpt>
<trkpt lat="33.8102691" lon="-118.3939209">
  <ele>-0.11</ele>
  <time>2026-09-02T22:07:25Z</time>
  <course>11.61</course>
  <speed>0.7247068372797375</speed>
  <fix>3d</fix>
</trkpt>
<trkpt lat="33.8102692" lon="-118.3939208">
  <ele>-0.11</ele>
  <time>2026-09-02T22:07:25Z</time>
  <course>11.61</course>
  <speed>0.7247068372797375</speed>
  <fix>3d</fix>
</trkpt>
<trkpt lat="33.8102692" lon="-118.3939208">
  <ele>-0.11</ele>
  <time>2026-09-02T22:07:25Z</time>
  <course>11.61</course>
  <speed>0.7247068372797375</speed>
  <fix>3d</fix>
</trkpt>
<trkpt lat="33.8102692" lon="-118.3939207">
  <ele>-0.11</ele>
  <time>2026-09-02T22:07:25Z</time>
  <course>11.61</course>
  <speed>0.7247068372797375</speed>
  <fix>3d</fix>
</trkpt>
<trkpt lat="33.8102692" lon="-118.3939207">
  <ele>-0.11</ele>
  <time>2026-09-02T22:07:25Z</time>
  <course>11.61</course>
  <speed>0.7247068372797375</speed>
  <fix>3d</fix>
</trkpt>
<trkpt lat="33.8102688" lon="-118.3939217">
  <ele>-0.1</ele>
  <time>2026-09-02T22:07:25Z</time>
  <course>48.4</course>
  <speed>0.73</speed>
  <fix>3d</fix>
</trkpt>
<trkpt lat="33.8102693" lon="-118.3939207">
  <ele>-0.11</ele>
  <time>2026-09-02T22:07:25Z</time>
  <course>11.61</course>
  <speed>0.7247068372797375</speed>
  <fix>3d</fix>
</trkpt>
<trkpt lat="33.8102693" lon="-118.3939206">
  <ele>-0.11</ele>
  <time>2026-09-02T22:07:25Z</time>
  <course>11.61</course>
  <speed>0.7247068372797375</speed>
  <fix>3d</fix>
</trkpt>
<trkpt lat="33.8102694" lon="-118.3939206">
  <ele>-0.11</ele>
  <time>2026-09-02T22:07:25Z</time>
  <course>11.61</course>
  <speed>0.7247068372797375</speed>
  <fix>3d</fix>
</trkpt>
<trkpt lat="33.8102694" lon="-118.3939205">
  <ele>-0.11</ele>
  <time>2026-09-02T22:07:25Z</time>
  <course>11.61</course>
  <speed>0.7247068372797375</speed>
  <fix>3d</fix>
</trkpt>
<trkpt lat="33.8102694" lon="-118.3939205">
  <ele>-0.11</ele>
  <time>2026-09-02T22:07:25Z</time>
  <course>11.61</course>
  <speed>0.7247068372797375</speed>
  <fix>3d</fix>
</trkpt>
<trkpt lat="33.8102695" lon="-118.3939204">
  <ele>-0.11</ele>
  <time>2026-09-02T22:07:25Z</time>
  <course>11.61</course>
  <speed>0.7247068372797375</speed>
  <fix>3d</fix>
</trkpt>
<trkpt lat="33.8102695" lon="-118.3939204">
  <ele>-0.11</ele>
  <time>2026-09-02T22:07:25Z</time>
  <course>11.61</course>
  <speed>0.7247068372797375</speed>
  <fix>3d</fix>
</trkpt>
<trkpt lat="33.8102696" lon="-118.3939203">
  <ele>-0.11</ele>
  <time>2026-09-02T22:07:25Z</time>
  <course>11.61</course>
  <speed>0.7247068372797375</speed>
  <fix>3d</fix>
</trkpt>
<trkpt lat="33.8102696" lon="-118.3939202">
  <ele>-0.109</ele>
  <time>2026-09-02T22:07:25Z</time>
  <course>11.61</course>
  <speed>0.7247068372797375</speed>
  <fix>3d</fix>
</trkpt>
<trkpt lat="33.8102696" lon="-118.3939202">
  <ele>-0.109</ele>
  <time>2026-09-02T22:07:25Z</time>
  <course>11.61</course>
  <speed>0.7247068372797375</speed>
  <fix>3d</fix>
</trkpt>
<trkpt lat="33.8102697" lon="-118.3939201">
  <ele>-0.109</ele>
  <time>2026-09-02T22:07:25Z</time>
  <course>11.61</course>
  <speed>0.7247068372797375</speed>
  <fix>3d</fix>
</trkpt>
<trkpt lat="33.8102697" lon="-118.3939201">
  <ele>-0.109</ele>
  <time>2026-09-02T22:07:25Z</time>
  <course>11.61</course>
  <speed>0.7247068372797375</speed>
  <fix>3d</fix>
</trkpt>
<trkpt lat="33.8102688" lon="-118.3939217">
  <ele>-0.1</ele>
  <time>2026-09-02T22:07:25Z</time>
  <course>48.4</course>
  <speed>0.73</speed>
  <fix>3d</fix>
</trkpt>
<trkpt lat="33.8102698" lon="-118.39392">
  <ele>-0.109</ele>
  <time>2026-09-02T22:07:25Z</time>
  <course>11.61</course>
  <speed>0.7247068372797375</speed>
  <fix>3d</fix>
</trkpt>
<trkpt lat="33.8102698" lon="-118.3939199">
  <ele>-0.109</ele>
  <time>2026-09-02T22:07:25Z</time>
  <course>11.62</course>
  <speed>0.7247068372797375</speed>
  <fix>3d</fix>
</trkpt>
<trkpt lat="33.8102699" lon="-118.3939199">
  <ele>-0.109</ele>
  <time>2026-09-02T22:07:25Z</time>
  <course>11.62</course>
  <speed>0.7247068372797375</speed>
  <fix>3d</fix>
</trkpt>
<trkpt lat="33.8102699" lon="-118.3939198">
  <ele>-0.109</ele>
  <time>2026-09-02T22:07:25Z</time>
  <course>11.62</course>
  <speed>0.7247068372797375</speed>
  <fix>3d</fix>
</trkpt>
<trkpt lat="33.8102699" lon="-118.3939198">
  <ele>-0.108</ele>
  <time>2026-09-02T22:07:25Z</time>
  <course>11.62</course>
  <speed>0.7247068372797375</speed>
  <fix>3d</fix>
</trkpt>
<trkpt lat="33.81027" lon="-118.3939197">
  <ele>-0.108</ele>
  <time>2026-09-02T22:07:25Z</time>
  <course>11.62</course>
  <speed>0.7247068372797375</speed>
  <fix>3d</fix>
</trkpt>
<trkpt lat="33.81027" lon="-118.3939197">
  <ele>-0.108</ele>
  <time>2026-09-02T22:07:25Z</time>
  <course>11.62</course>
  <speed>0.7247068372797375</speed>
  <fix>3d</fix>
</trkpt>
<trkpt lat="33.81027" lon="-118.3939196">
  <ele>-0.108</ele>
  <time>2026-09-02T22:07:25Z</time>
  <course>11.62</course>
  <speed>0.7247068372797375</speed>
  <fix>3d</fix>
</trkpt>
<trkpt lat="33.8102701" lon="-118.3939196">
  <ele>-0.108</ele>
  <time>2026-09-02T22:07:25Z</time>
  <course>11.62</course>
  <speed>0.7247068372797375</speed>
  <fix>3d</fix>
</trkpt>
<trkpt lat="33.8102701" lon="-118.3939195">
  <ele>-0.108</ele>
  <time>2026-09-02T22:07:25Z</time>
  <course>11.62</course>
  <speed>0.7247068372797375</speed>
  <fix>3d</fix>
</trkpt>
<trkpt lat="33.8102701" lon="-118.3939195">
  <ele>-0.108</ele>
  <time>2026-09-02T22:07:25Z</time>
  <course>11.62</course>
  <speed>0.7247068372797375</speed>
  <fix>3d</fix>
</trkpt>
<trkpt lat="33.8102697" lon="-118.3939206">
  <ele>-0.1</ele>
  <time>2026-09-02T22:07:25Z</time>
  <course>48.41</course>
  <speed>0.73</speed>
  <fix>3d</fix>
</trkpt>
<trkpt lat="33.8102701" lon="-118.3939195">
  <ele>-0.108</ele>
  <time>2026-09-02T22:07:25Z</time>
  <course>11.62</course>
  <speed>0.7247068372797375</speed>
  <fix>3d</fix>
</trkpt>
<trkpt lat="33.8102702" lon="-118.3939194">
  <ele>-0.108</ele>
  <time>2026-09-02T22:07:25Z</time>
  <course>11.62</course>
  <speed>0.7247068372797375</speed>
  <fix>3d</fix>
</trkpt>
<trkpt lat="33.8102702" lon="-118.3939194">
  <ele>-0.107</ele>
  <time>2026-09-02T22:07:25Z</time>
  <course>11.62</course>
  <speed>0.7247068372797375</speed>
  <fix>3d</fix>
</trkpt>
<trkpt lat="33.8102703" lon="-118.3939193">
  <ele>-0.107</ele>
  <time>2026-09-02T22:07:25Z</time>
  <course>11.62</course>
  <speed>0.7247068372797375</speed>
  <fix>3d</fix>
</trkpt>
<trkpt lat="33.8102703" lon="-118.3939193">
  <ele>-0.107</ele>
  <time>2026-09-02T22:07:25Z</time>
  <course>11.62</course>
  <speed>0.7247068372797375</speed>
  <fix>3d</fix>
</trkpt>
<trkpt lat="33.8102703" lon="-118.3939192">
  <ele>-0.107</ele>
  <time>2026-09-02T22:07:25Z</time>
  <course>11.62</course>
  <speed>0.7247068372797375</speed>
  <fix>3d</fix>
</trkpt>
<trkpt lat="33.8102704" lon="-118.3939192">
  <ele>-0.107</ele>
  <time>2026-09-02T22:07:25Z</time>
  <course>11.62</course>
  <speed>0.7247068372797375</speed>
  <fix>3d</fix>
</trkpt>
<trkpt lat="33.8102704" lon="-118.3939191">
  <ele>-0.107</ele>
  <time>2026-09-02T22:07:25Z</time>
  <course>11.62</course>
  <speed>0.7247068372797375</speed>
  <fix>3d</fix>
</trkpt>
<trkpt lat="33.8102704" lon="-118.3939191">
  <ele>-0.107</ele>
  <time>2026-09-02T22:07:25Z</time>
  <course>11.62</course>
  <speed>0.7247068372797375</speed>
  <fix>3d</fix>
</trkpt>
<trkpt lat="33.8102705" lon="-118.393919">
  <ele>-0.107</ele>
  <time>2026-09-02T22:07:25Z</time>
  <course>11.62</course>
  <speed>0.7247068372797375</speed>
  <fix>3d</fix>
</trkpt>
<trkpt lat="33.8102705" lon="-118.393919">
  <ele>-0.107</ele>
  <time>2026-09-02T22:07:25Z</time>
  <course>11.62</course>
  <speed>0.7247068372797375</speed>
  <fix>3d</fix>
</trkpt>
<trkpt lat="33.8102705" lon="-118.393919">
  <ele>-0.106</ele>
  <time>2026-09-02T22:07:25Z</time>
  <course>11.62</course>
  <speed>0.7247068372797375</speed>
  <fix>3d</fix>
</trkpt>
<trkpt lat="33.8102705" lon="-118.3939189">
  <ele>-0.106</ele>
  <time>2026-09-02T22:07:25Z</time>
  <course>11.62</course>
  <speed>0.7247068372797375</speed>
  <fix>3d</fix>
</trkpt>
<trkpt lat="33.8102697" lon="-118.3939206">
  <ele>-0.1</ele>
  <time>2026-09-02T22:07:25Z</time>
  <course>48.41</course>
  <speed>0.73</speed>
  <fix>3d</fix>
</trkpt>
<trkpt lat="33.8102706" lon="-118.3939189">
  <ele>-0.106</ele>
  <time>2026-09-02T22:07:25Z</time>
  <course>11.62</course>
  <speed>0.7247068372797375</speed>
  <fix>3d</fix>
</trkpt>
<trkpt lat="33.8102706" lon="-118.3939189">
  <ele>-0.106</ele>
  <time>2026-09-02T22:07:25Z</time>
  <course>11.62</course>
  <speed>0.7184010022264724</speed>
  <fix>3d</fix>
</trkpt>
<trkpt lat="33.8102706" lon="-118.3939188">
  <ele>-0.106</ele>
  <time>2026-09-02T22:07:25Z</time>
  <course>11.62</course>
  <speed>0.7247068372797375</speed>
  <fix>3d</fix>
</trkpt>
<trkpt lat="33.8102707" lon="-118.3939187">
  <ele>-0.106</ele>
  <time>2026-09-02T22:07:25Z</time>
  <course>11.62</course>
  <speed>0.7184010022264724</speed>
  <fix>3d</fix>
</trkpt>
<trkpt lat="33.8102707" lon="-118.3939187">
  <ele>-0.106</ele>
  <time>2026-09-02T22:07:25Z</time>
  <course>11.62</course>
  <speed>0.7184010022264724</speed>
  <fix>3d</fix>
</trkpt>
<trkpt lat="33.8102708" lon="-118.3939187">
  <ele>-0.106</ele>
  <time>2026-09-02T22:07:25Z</time>
  <course>11.62</course>
  <speed>0.7184010022264724</speed>
  <fix>3d</fix>
</trkpt>
<trkpt lat="33.8102708" lon="-118.3939186">
  <ele>-0.106</ele>
  <time>2026-09-02T22:07:25Z</time>
  <course>11.63</course>
  <speed>0.7184010022264724</speed>
  <fix>3d</fix>
</trkpt>
<trkpt lat="33.8102708" lon="-118.3939186">
  <ele>-0.106</ele>
  <time>2026-09-02T22:07:25Z</time>
  <course>11.63</course>
  <speed>0.7184010022264724</speed>
  <fix>3d</fix>
</trkpt>
<trkpt lat="33.8102709" lon="-118.3939185">
  <ele>-0.106</ele>
  <time>2026-09-02T22:07:25Z</time>
  <course>11.63</course>
  <speed>0.7184010022264724</speed>
  <fix>3d</fix>
</trkpt>
<trkpt lat="33.8102709" lon="-118.3939185">
  <ele>-0.106</ele>
  <time>2026-09-02T22:07:25Z</time>
  <course>11.63</course>
  <speed>0.7184010022264724</speed>
  <fix>3d</fix>
</trkpt>
<trkpt lat="33.8102709" lon="-118.3939184">
  <ele>-0.106</ele>
  <time>2026-09-02T22:07:25Z</time>
  <course>11.63</course>
  <speed>0.7184010022264724</speed>
  <fix>3d</fix>
</trkpt>
<trkpt lat="33.810271" lon="-118.3939184">
  <ele>-0.106</ele>
  <time>2026-09-02T22:07:25Z</time>
  <course>11.63</course>
  <speed>0.7184010022264724</speed>
  <fix>3d</fix>
</trkpt>
<trkpt lat="33.810271" lon="-118.3939183">
  <ele>-0.106</ele>
  <time>2026-09-02T22:07:25Z</time>
  <course>11.63</course>
  <speed>0.7184010022264724</speed>
  <fix>3d</fix>
</trkpt>
<trkpt lat="33.8102706" lon="-118.3939193">
  <ele>-0.1</ele>
  <time>2026-09-02T22:07:25Z</time>
  <course>48.41</course>
  <speed>0.73</speed>
  <fix>3d</fix>
</trkpt>
<trkpt lat="33.810271" lon="-118.3939183">
  <ele>-0.106</ele>
  <time>2026-09-02T22:07:25Z</time>
  <course>11.63</course>
  <speed>0.7184010022264724</speed>
  <fix>3d</fix>
</trkpt>
<trkpt lat="33.810271" lon="-118.3939183">
  <ele>-0.106</ele>
  <time>2026-09-02T22:07:25Z</time>
  <course>11.63</course>
  <speed>0.7184010022264724</speed>
  <fix>3d</fix>
</trkpt>
<trkpt lat="33.8102711" lon="-118.3939182">
  <ele>-0.106</ele>
  <time>2026-09-02T22:07:25Z</time>
  <course>11.63</course>
  <speed>0.7184010022264724</speed>
  <fix>3d</fix>
</trkpt>
<trkpt lat="33.8102711" lon="-118.3939182">
  <ele>-0.106</ele>
  <time>2026-09-02T22:07:25Z</time>
  <course>11.63</course>
  <speed>0.7184010022264724</speed>
  <fix>3d</fix>
</trkpt>
<trkpt lat="33.8102712" lon="-118.3939181">
  <ele>-0.106</ele>
  <time>2026-09-02T22:07:25Z</time>
  <course>11.63</course>
  <speed>0.7184010022264724</speed>
  <fix>3d</fix>
</trkpt>
<trkpt lat="33.8102712" lon="-118.3939181">
  <ele>-0.106</ele>
  <time>2026-09-02T22:07:25Z</time>
  <course>11.63</course>
  <speed>0.7184010022264724</speed>
  <fix>3d</fix>
</trkpt>
<trkpt lat="33.8102712" lon="-118.393918">
  <ele>-0.106</ele>
  <time>2026-09-02T22:07:25Z</time>
  <course>11.63</course>
  <speed>0.7184010022264724</speed>
  <fix>3d</fix>
</trkpt>
<trkpt lat="33.8102713" lon="-118.393918">
  <ele>-0.106</ele>
  <time>2026-09-02T22:07:25Z</time>
  <course>11.63</course>
  <speed>0.7184010022264724</speed>
  <fix>3d</fix>
</trkpt>
<trkpt lat="33.8102713" lon="-118.3939179">
  <ele>-0.106</ele>
  <time>2026-09-02T22:07:25Z</time>
  <course>11.63</course>
  <speed>0.7184010022264724</speed>
  <fix>3d</fix>
</trkpt>
<trkpt lat="33.8102713" lon="-118.3939179">
  <ele>-0.106</ele>
  <time>2026-09-02T22:07:25Z</time>
  <course>11.63</course>
  <speed>0.7184010022264724</speed>
  <fix>3d</fix>
</trkpt>
<trkpt lat="33.8102714" lon="-118.3939178">
  <ele>-0.106</ele>
  <time>2026-09-02T22:07:25Z</time>
  <course>11.63</course>
  <speed>0.7184010022264724</speed>
  <fix>3d</fix>
</trkpt>
<trkpt lat="33.8102714" lon="-118.3939178">
  <ele>-0.106</ele>
  <time>2026-09-02T22:07:25Z</time>
  <course>11.63</course>
  <speed>0.7184010022264724</speed>
  <fix>3d</fix>
</trkpt>
<trkpt lat="33.8102714" lon="-118.3939178">
  <ele>-0.105</ele>
  <time>2026-09-02T22:07:25Z</time>
  <course>11.63</course>
  <speed>0.7184010022264724</speed>
  <fix>3d</fix>
</trkpt>
<trkpt lat="33.8102706" lon="-118.3939193">
  <ele>-0.1</ele>
  <time>2026-09-02T22:07:25Z</time>
  <course>48.41</course>
  <speed>0.73</speed>
  <fix>3d</fix>
</trkpt>
<trkpt lat="33.8102714" lon="-118.3939177">
  <ele>-0.105</ele>
  <time>2026-09-02T22:07:25Z</time>
  <course>11.63</course>
  <speed>0.7184010022264724</speed>
  <fix>3d</fix>
</trkpt>
<trkpt lat="33.8102715" lon="-118.3939177">
  <ele>-0.105</ele>
  <time>2026-09-02T22:07:25Z</time>
  <course>11.63</course>
  <speed>0.7184010022264724</speed>
  <fix>3d</fix>
</trkpt>
<trkpt lat="33.8102715" lon="-118.3939176">
  <ele>-0.105</ele>
  <time>2026-09-02T22:07:25Z</time>
  <course>11.63</course>
  <speed>0.7184010022264724</speed>
  <fix>3d</fix>
</trkpt>
<trkpt lat="33.8102716" lon="-118.3939175">
  <ele>-0.105</ele>
  <time>2026-09-02T22:07:25Z</time>
  <course>11.63</course>
  <speed>0.7184010022264724</speed>
  <fix>3d</fix>
</trkpt>
<trkpt lat="33.8102716" lon="-118.3939175">
  <ele>-0.105</ele>
  <time>2026-09-02T22:07:25Z</time>
  <course>11.63</course>
  <speed>0.7184010022264724</speed>
  <fix>3d</fix>
</trkpt>
<trkpt lat="33.8102716" lon="-118.3939174">
  <ele>-0.105</ele>
  <time>2026-09-02T22:07:25Z</time>
  <course>11.63</course>
  <speed>0.7184010022264724</speed>
  <fix>3d</fix>
</trkpt>
<trkpt lat="33.8102717" lon="-118.3939174">
  <ele>-0.105</ele>
  <time>2026-09-02T22:07:25Z</time>
  <course>11.63</course>
  <speed>0.7184010022264724</speed>
  <fix>3d</fix>
</trkpt>
<trkpt lat="33.8102717" lon="-118.3939174">
  <ele>-0.105</ele>
  <time>2026-09-02T22:07:25Z</time>
  <course>11.63</course>
  <speed>0.7184010022264724</speed>
  <fix>3d</fix>
</trkpt>
<trkpt lat="33.8102718" lon="-118.3939173">
  <ele>-0.105</ele>
  <time>2026-09-02T22:07:25Z</time>
  <course>11.63</course>
  <speed>0.7184010022264724</speed>
  <fix>3d</fix>
</trkpt>
<trkpt lat="33.8102718" lon="-118.3939172">
  <ele>-0.105</ele>
  <time>2026-09-02T22:07:25Z</time>
  <course>11.63</course>
  <speed>0.7184010022264724</speed>
  <fix>3d</fix>
</trkpt>
<trkpt lat="33.8102718" lon="-118.3939172">
  <ele>-0.105</ele>
  <time>2026-09-02T22:07:25Z</time>
  <course>11.64</course>
  <speed>0.7184010022264724</speed>
  <fix>3d</fix>
</trkpt>
<trkpt lat="33.8102719" lon="-118.3939172">
  <ele>-0.105</ele>
  <time>2026-09-02T22:07:25Z</time>
  <course>11.64</course>
  <speed>0.7184010022264724</speed>
  <fix>3d</fix>
</trkpt>
<trkpt lat="33.8102715" lon="-118.3939182">
  <ele>-0.11</ele>
  <time>2026-09-02T22:07:25Z</time>
  <course>48.42</course>
  <speed>0.73</speed>
  <fix>3d</fix>
</trkpt>
<trkpt lat="33.8102719" lon="-118.3939171">
  <ele>-0.105</ele>
  <time>2026-09-02T22:07:25Z</time>
  <course>11.64</course>
  <speed>0.7184010022264724</speed>
  <fix>3d</fix>
</trkpt>
<trkpt lat="33.8102719" lon="-118.3939171">
  <ele>-0.105</ele>
  <time>2026-09-02T22:07:25Z</time>
  <course>11.64</course>
  <speed>0.7184010022264724</speed>
  <fix>3d</fix>
</trkpt>
<trkpt lat="33.810272" lon="-118.393917">
  <ele>-0.105</ele>
  <time>2026-09-02T22:07:25Z</time>
  <course>11.64</course>
  <speed>0.7184010022264724</speed>
  <fix>3d</fix>
</trkpt>
<trkpt lat="33.810272" lon="-118.393917">
  <ele>-0.105</ele>
  <time>2026-09-02T22:07:25Z</time>
  <course>11.64</course>
  <speed>0.7184010022264724</speed>
  <fix>3d</fix>
</trkpt>
<trkpt lat="33.810272" lon="-118.3939169">
  <ele>-0.105</ele>
  <time>2026-09-02T22:07:25Z</time>
  <course>11.64</course>
  <speed>0.7184010022264724</speed>
  <fix>3d</fix>
</trkpt>
<trkpt lat="33.8102721" lon="-118.3939169">
  <ele>-0.105</ele>
  <time>2026-09-02T22:07:25Z</time>
  <course>11.64</course>
  <speed>0.7184010022264724</speed>
  <fix>3d</fix>
</trkpt>
<trkpt lat="33.8102721" lon="-118.3939168">
  <ele>-0.104</ele>
  <time>2026-09-02T22:07:25Z</time>
  <course>11.64</course>
  <speed>0.7184010022264724</speed>
  <fix>3d</fix>
</trkpt>
<trkpt lat="33.8102721" lon="-118.3939168">
  <ele>-0.104</ele>
  <time>2026-09-02T22:07:25Z</time>
  <course>11.64</course>
  <speed>0.7184010022264724</speed>
  <fix>3d</fix>
</trkpt>
<trkpt lat="33.8102722" lon="-118.3939167">
  <ele>-0.104</ele>
  <time>2026-09-02T22:07:25Z</time>
  <course>11.64</course>
  <speed>0.7184010022264724</speed>
  <fix>3d</fix>
</trkpt>
<trkpt lat="33.8102722" lon="-118.3939167">
  <ele>-0.104</ele>
  <time>2026-09-02T22:07:25Z</time>
  <course>11.64</course>
  <speed>0.7184010022264724</speed>
  <fix>3d</fix>
</trkpt>
<trkpt lat="33.8102722" lon="-118.3939167">
  <ele>-0.104</ele>
  <time>2026-09-02T22:07:25Z</time>
  <course>11.64</course>
  <speed>0.7184010022264724</speed>
  <fix>3d</fix>
</trkpt>
<trkpt lat="33.8102723" lon="-118.3939166">
  <ele>-0.104</ele>
  <time>2026-09-02T22:07:25Z</time>
  <course>11.64</course>
  <speed>0.7184010022264724</speed>
  <fix>3d</fix>
</trkpt>
<trkpt lat="33.8102723" lon="-118.3939166">
  <ele>-0.104</ele>
  <time>2026-09-02T22:07:25Z</time>
  <course>11.64</course>
  <speed>0.7184010022264724</speed>
  <fix>3d</fix>
</trkpt>
<trkpt lat="33.8102715" lon="-118.3939182">
  <ele>-0.11</ele>
  <time>2026-09-02T22:07:25Z</time>
  <course>48.42</course>
  <speed>0.73</speed>
  <fix>3d</fix>
</trkpt>
<trkpt lat="33.8102723" lon="-118.3939166">
  <ele>-0.104</ele>
  <time>2026-09-02T22:07:25Z</time>
  <course>11.64</course>
  <speed>0.7184010022264724</speed>
  <fix>3d</fix>
</trkpt>
<trkpt lat="33.8102724" lon="-118.3939165">
  <ele>-0.104</ele>
  <time>2026-09-02T22:07:25Z</time>
  <course>11.64</course>
  <speed>0.7184010022264724</speed>
  <fix>3d</fix>
</trkpt>
<trkpt lat="33.8102724" lon="-118.3939164">
  <ele>-0.104</ele>
  <time>2026-09-02T22:07:25Z</time>
  <course>11.64</course>
  <speed>0.7184010022264724</speed>
  <fix>3d</fix>
</trkpt>
<trkpt lat="33.8102724" lon="-118.3939164">
  <ele>-0.104</ele>
  <time>2026-09-02T22:07:25Z</time>
  <course>11.64</course>
  <speed>0.7184010022264724</speed>
  <fix>3d</fix>
</trkpt>
<trkpt lat="33.8102725" lon="-118.3939163">
  <ele>-0.103</ele>
  <time>2026-09-02T22:07:25Z</time>
  <course>11.64</course>
  <speed>0.7184010022264724</speed>
  <fix>3d</fix>
</trkpt>
<trkpt lat="33.8102725" lon="-118.3939163">
  <ele>-0.103</ele>
  <time>2026-09-02T22:07:25Z</time>
  <course>11.64</course>
  <speed>0.7184010022264724</speed>
  <fix>3d</fix>
</trkpt>
<trkpt lat="33.8102725" lon="-118.3939162">
  <ele>-0.103</ele>
  <time>2026-09-02T22:07:25Z</time>
  <course>11.64</course>
  <speed>0.7184010022264724</speed>
  <fix>3d</fix>
</trkpt>
<trkpt lat="33.8102726" lon="-118.3939162">
  <ele>-0.103</ele>
  <time>2026-09-02T22:07:25Z</time>
  <course>11.64</course>
  <speed>0.7184010022264724</speed>
  <fix>3d</fix>
</trkpt>
<trkpt lat="33.8102726" lon="-118.3939161">
  <ele>-0.103</ele>
  <time>2026-09-02T22:07:25Z</time>
  <course>11.64</course>
  <speed>0.7184010022264724</speed>
  <fix>3d</fix>
</trkpt>
<trkpt lat="33.8102726" lon="-118.3939161">
  <ele>-0.102</ele>
  <time>2026-09-02T22:07:25Z</time>
  <course>11.64</course>
  <speed>0.7184010022264724</speed>
  <fix>3d</fix>
</trkpt>
<trkpt lat="33.8102727" lon="-118.3939161">
  <ele>-0.102</ele>
  <time>2026-09-02T22:07:25Z</time>
  <course>11.64</course>
  <speed>0.7184010022264724</speed>
  <fix>3d</fix>
</trkpt>
<trkpt lat="33.8102727" lon="-118.393916">
  <ele>-0.102</ele>
  <time>2026-09-02T22:07:25Z</time>
  <course>11.64</course>
  <speed>0.7184010022264724</speed>
  <fix>3d</fix>
</trkpt>
<trkpt lat="33.8102727" lon="-118.393916">
  <ele>-0.102</ele>
  <time>2026-09-02T22:07:25Z</time>
  <course>11.64</course>
  <speed>0.7184010022264724</speed>
  <fix>3d</fix>
</trkpt>
<trkpt lat="33.8102724" lon="-118.3939169">
  <ele>-0.1</ele>
  <time>2026-09-02T22:07:25Z</time>
  <course>48.43</course>
  <speed>0.73</speed>
  <fix>3d</fix>
</trkpt>
<trkpt lat="33.8102727" lon="-118.393916">
  <ele>-0.102</ele>
  <time>2026-09-02T22:07:25Z</time>
  <course>11.64</course>
  <speed>0.7184010022264724</speed>
  <fix>3d</fix>
</trkpt>
<trkpt lat="33.8102728" lon="-118.3939159">
  <ele>-0.102</ele>
  <time>2026-09-02T22:07:25Z</time>
  <course>11.65</course>
  <speed>0.7184010022264724</speed>
  <fix>3d</fix>
</trkpt>
<trkpt lat="33.8102728" lon="-118.3939158">
  <ele>-0.102</ele>
  <time>2026-09-02T22:07:25Z</time>
  <course>11.65</course>
  <speed>0.7184010022264724</speed>
  <fix>3d</fix>
</trkpt>
<trkpt lat="33.8102729" lon="-118.3939158">
  <ele>-0.102</ele>
  <time>2026-09-02T22:07:25Z</time>
  <course>11.65</course>
  <speed>0.7184010022264724</speed>
  <fix>3d</fix>
</trkpt>
<trkpt lat="33.8102729" lon="-118.3939157">
  <ele>-0.101</ele>
  <time>2026-09-02T22:07:25Z</time>
  <course>11.65</course>
  <speed>0.7184010022264724</speed>
  <fix>3d</fix>
</trkpt>
<trkpt lat="33.8102729" lon="-118.3939157">
  <ele>-0.101</ele>
  <time>2026-09-02T22:07:25Z</time>
  <course>11.65</course>
  <speed>0.7184010022264724</speed>
  <fix>3d</fix>
</trkpt>
<trkpt lat="33.810273" lon="-118.3939157">
  <ele>-0.101</ele>
  <time>2026-09-02T22:07:25Z</time>
  <course>11.65</course>
  <speed>0.7184010022264724</speed>
  <fix>3d</fix>
</trkpt>
<trkpt lat="33.810273" lon="-118.3939156">
  <ele>-0.101</ele>
  <time>2026-09-02T22:07:25Z</time>
  <course>11.65</course>
  <speed>0.7184010022264724</speed>
  <fix>3d</fix>
</trkpt>
<trkpt lat="33.810273" lon="-118.3939156">
  <ele>-0.101</ele>
  <time>2026-09-02T22:07:25Z</time>
  <course>11.65</course>
  <speed>0.7184010022264724</speed>
  <fix>3d</fix>
</trkpt>
<trkpt lat="33.8102731" lon="-118.3939155">
  <ele>-0.101</ele>
  <time>2026-09-02T22:07:25Z</time>
  <course>11.65</course>
  <speed>0.7184010022264724</speed>
  <fix>3d</fix>
</trkpt>
<trkpt lat="33.8102731" lon="-118.3939154">
  <ele>-0.101</ele>
  <time>2026-09-02T22:07:25Z</time>
  <course>11.65</course>
  <speed>0.7184010022264724</speed>
  <fix>3d</fix>
</trkpt>
<trkpt lat="33.8102732" lon="-118.3939154">
  <ele>-0.1</ele>
  <time>2026-09-02T22:07:25Z</time>
  <course>11.65</course>
  <speed>0.7184010022264724</speed>
  <fix>3d</fix>
</trkpt>
<trkpt lat="33.8102732" lon="-118.3939154">
  <ele>-0.1</ele>
  <time>2026-09-02T22:07:25Z</time>
  <course>11.65</course>
  <speed>0.7184010022264724</speed>
  <fix>3d</fix>
</trkpt>
<trkpt lat="33.8102724" lon="-118.3939169">
  <ele>-0.1</ele>
  <time>2026-09-02T22:07:25Z</time>
  <course>48.43</course>
  <speed>0.73</speed>
  <fix>3d</fix>
</trkpt>
<trkpt lat="33.8102732" lon="-118.3939153">
  <ele>-0.1</ele>
  <time>2026-09-02T22:07:25Z</time>
  <course>11.65</course>
  <speed>0.7184010022264724</speed>
  <fix>3d</fix>
</trkpt>
<trkpt lat="33.8102733" lon="-118.3939152">
  <ele>-0.1</ele>
  <time>2026-09-02T22:07:25Z</time>
  <course>11.65</course>
  <speed>0.7184010022264724</speed>
  <fix>3d</fix>
</trkpt>
<trkpt lat="33.8102733" lon="-118.3939152">
  <ele>-0.1</ele>
  <time>2026-09-02T22:07:25Z</time>
  <course>11.65</course>
  <speed>0.7184010022264724</speed>
  <fix>3d</fix>
</trkpt>
<trkpt lat="33.8102734" lon="-118.3939151">
  <ele>-0.1</ele>
  <time>2026-09-02T22:07:25Z</time>
  <course>11.65</course>
  <speed>0.7184010022264724</speed>
  <fix>3d</fix>
</trkpt>
<trkpt lat="33.8102734" lon="-118.3939151">
  <ele>-0.1</ele>
  <time>2026-09-02T22:07:25Z</time>
  <course>11.65</course>
  <speed>0.7184010022264724</speed>
  <fix>3d</fix>
</trkpt>
<trkpt lat="33.8102734" lon="-118.393915">
  <ele>-0.099</ele>
  <time>2026-09-02T22:07:25Z</time>
  <course>11.65</course>
  <speed>0.7184010022264724</speed>
  <fix>3d</fix>
</trkpt>
<trkpt lat="33.8102735" lon="-118.393915">
  <ele>-0.099</ele>
  <time>2026-09-02T22:07:25Z</time>
  <course>11.65</course>
  <speed>0.7184010022264724</speed>
  <fix>3d</fix>
</trkpt>
<trkpt lat="33.8102735" lon="-118.3939149">
  <ele>-0.099</ele>
  <time>2026-09-02T22:07:25Z</time>
  <course>11.65</course>
  <speed>0.7184010022264724</speed>
  <fix>3d</fix>
</trkpt>
<trkpt lat="33.8102735" lon="-118.3939149">
  <ele>-0.099</ele>
  <time>2026-09-02T22:07:25Z</time>
  <course>11.65</course>
  <speed>0.7184010022264724</speed>
  <fix>3d</fix>
</trkpt>
<trkpt lat="33.8102736" lon="-118.3939148">
  <ele>-0.099</ele>
  <time>2026-09-02T22:07:25Z</time>
  <course>11.65</course>
  <speed>0.7184010022264724</speed>
  <fix>3d</fix>
</trkpt>
<trkpt lat="33.8102736" lon="-118.3939148">
  <ele>-0.099</ele>
  <time>2026-09-02T22:07:25Z</time>
  <course>11.65</course>
  <speed>0.7184010022264724</speed>
  <fix>3d</fix>
</trkpt>
<trkpt lat="33.8102736" lon="-118.3939148">
  <ele>-0.099</ele>
  <time>2026-09-02T22:07:25Z</time>
  <course>11.65</course>
  <speed>0.7184010022264724</speed>
  <fix>3d</fix>
</trkpt>
<trkpt lat="33.8102732" lon="-118.3939158">
  <ele>-0.1</ele>
  <time>2026-09-02T22:07:25Z</time>
  <course>48.44</course>
  <speed>0.73</speed>
  <fix>3d</fix>
</trkpt>
<trkpt lat="33.8102737" lon="-118.3939147">
  <ele>-0.099</ele>
  <time>2026-09-02T22:07:25Z</time>
  <course>11.65</course>
  <speed>0.7184010022264724</speed>
  <fix>3d</fix>
</trkpt>
<trkpt lat="33.8102737" lon="-118.3939146">
  <ele>-0.099</ele>
  <time>2026-09-02T22:07:25Z</time>
  <course>11.65</course>
  <speed>0.7184010022264724</speed>
  <fix>3d</fix>
</trkpt>
<trkpt lat="33.8102737" lon="-118.3939146">
  <ele>-0.099</ele>
  <time>2026-09-02T22:07:25Z</time>
  <course>11.65</course>
  <speed>0.7184010022264724</speed>
  <fix>3d</fix>
</trkpt>
<trkpt lat="33.8102738" lon="-118.3939145">
  <ele>-0.099</ele>
  <time>2026-09-02T22:07:25Z</time>
  <course>11.65</course>
  <speed>0.7184010022264724</speed>
  <fix>3d</fix>
</trkpt>
<trkpt lat="33.8102738" lon="-118.3939145">
  <ele>-0.099</ele>
  <time>2026-09-02T22:07:25Z</time>
  <course>11.66</course>
  <speed>0.7184010022264724</speed>
  <fix>3d</fix>
</trkpt>
<trkpt lat="33.8102738" lon="-118.3939145">
  <ele>-0.099</ele>
  <time>2026-09-02T22:07:25Z</time>
  <course>11.66</course>
  <speed>0.7184010022264724</speed>
  <fix>3d</fix>
</trkpt>
<trkpt lat="33.8102739" lon="-118.3939144">
  <ele>-0.099</ele>
  <time>2026-09-02T22:07:25Z</time>
  <course>11.66</course>
  <speed>0.7184010022264724</speed>
  <fix>3d</fix>
</trkpt>
<trkpt lat="33.8102739" lon="-118.3939144">
  <ele>-0.099</ele>
  <time>2026-09-02T22:07:25Z</time>
  <course>11.66</course>
  <speed>0.7184010022264724</speed>
  <fix>3d</fix>
</trkpt>
<trkpt lat="33.8102739" lon="-118.3939143">
  <ele>-0.099</ele>
  <time>2026-09-02T22:07:25Z</time>
  <course>11.66</course>
  <speed>0.7184010022264724</speed>
  <fix>3d</fix>
</trkpt>
<trkpt lat="33.810274" lon="-118.3939143">
  <ele>-0.099</ele>
  <time>2026-09-02T22:07:25Z</time>
  <course>11.66</course>
  <speed>0.7184010022264724</speed>
  <fix>3d</fix>
</trkpt>
<trkpt lat="33.810274" lon="-118.3939142">
  <ele>-0.099</ele>
  <time>2026-09-02T22:07:25Z</time>
  <course>11.66</course>
  <speed>0.7184010022264724</speed>
  <fix>3d</fix>
</trkpt>
<trkpt lat="33.810274" lon="-118.3939142">
  <ele>-0.099</ele>
  <time>2026-09-02T22:07:25Z</time>
  <course>11.66</course>
  <speed>0.7184010022264724</speed>
  <fix>3d</fix>
</trkpt>
<trkpt lat="33.8102732" lon="-118.3939158">
  <ele>-0.1</ele>
  <time>2026-09-02T22:07:25Z</time>
  <course>48.44</course>
  <speed>0.73</speed>
  <fix>3d</fix>
</trkpt>
<trkpt lat="33.810274" lon="-118.3939142">
  <ele>-0.099</ele>
  <time>2026-09-02T22:07:25Z</time>
  <course>11.66</course>
  <speed>0.7184010022264724</speed>
  <fix>3d</fix>
</trkpt>
<trkpt lat="33.8102741" lon="-118.3939141">
  <ele>-0.099</ele>
  <time>2026-09-02T22:07:25Z</time>
  <course>11.66</course>
  <speed>0.7184010022264724</speed>
  <fix>3d</fix>
</trkpt>
<trkpt lat="33.8102741" lon="-118.393914">
  <ele>-0.099</ele>
  <time>2026-09-02T22:07:25Z</time>
  <course>11.66</course>
  <speed>0.7184010022264724</speed>
  <fix>3d</fix>
</trkpt>
<trkpt lat="33.8102742" lon="-118.393914">
  <ele>-0.099</ele>
  <time>2026-09-02T22:07:25Z</time>
  <course>11.66</course>
  <speed>0.7184010022264724</speed>
  <fix>3d</fix>
</trkpt>
<trkpt lat="33.8102742" lon="-118.3939139">
  <ele>-0.099</ele>
  <time>2026-09-02T22:07:25Z</time>
  <course>11.66</course>
  <speed>0.7184010022264724</speed>
  <fix>3d</fix>
</trkpt>
<trkpt lat="33.8102743" lon="-118.3939139">
  <ele>-0.099</ele>
  <time>2026-09-02T22:07:25Z</time>
  <course>11.66</course>
  <speed>0.7184010022264724</speed>
  <fix>3d</fix>
</trkpt>
<trkpt lat="33.8102743" lon="-118.3939138">
  <ele>-0.099</ele>
  <time>2026-09-02T22:07:25Z</time>
  <course>11.66</course>
  <speed>0.7184010022264724</speed>
  <fix>3d</fix>
</trkpt>
<trkpt lat="33.8102743" lon="-118.3939138">
  <ele>-0.099</ele>
  <time>2026-09-02T22:07:25Z</time>
  <course>11.66</course>
  <speed>0.7184010022264724</speed>
  <fix>3d</fix>
</trkpt>
<trkpt lat="33.8102744" lon="-118.3939137">
  <ele>-0.099</ele>
  <time>2026-09-02T22:07:25Z</time>
  <course>11.66</course>
  <speed>0.7184010022264724</speed>
  <fix>3d</fix>
</trkpt>
<trkpt lat="33.8102744" lon="-118.3939137">
  <ele>-0.099</ele>
  <time>2026-09-02T22:07:25Z</time>
  <course>11.66</course>
  <speed>0.7184010022264724</speed>
  <fix>3d</fix>
</trkpt>
<trkpt lat="33.8102744" lon="-118.3939136">
  <ele>-0.099</ele>
  <time>2026-09-02T22:07:25Z</time>
  <course>11.66</course>
  <speed>0.7184010022264724</speed>
  <fix>3d</fix>
</trkpt>
<trkpt lat="33.8102745" lon="-118.3939136">
  <ele>-0.099</ele>
  <time>2026-09-02T22:07:25Z</time>
  <course>11.66</course>
  <speed>0.7184010022264724</speed>
  <fix>3d</fix>
</trkpt>
<trkpt lat="33.8102741" lon="-118.3939146">
  <ele>-0.1</ele>
  <time>2026-09-02T22:07:25Z</time>
  <course>48.45</course>
  <speed>0.73</speed>
  <fix>3d</fix>
</trkpt>
<trkpt lat="33.8102745" lon="-118.3939136">
  <ele>-0.099</ele>
  <time>2026-09-02T22:07:25Z</time>
  <course>11.66</course>
  <speed>0.7184010022264724</speed>
  <fix>3d</fix>
</trkpt>
<trkpt lat="33.8102745" lon="-118.3939135">
  <ele>-0.099</ele>
  <time>2026-09-02T22:07:25Z</time>
  <course>11.66</course>
  <speed>0.7184010022264724</speed>
  <fix>3d</fix>
</trkpt>
<trkpt lat="33.8102746" lon="-118.3939134">
  <ele>-0.099</ele>
  <time>2026-09-02T22:07:25Z</time>
  <course>11.66</course>
  <speed>0.7184010022264724</speed>
  <fix>3d</fix>
</trkpt>
<trkpt lat="33.8102746" lon="-118.3939134">
  <ele>-0.099</ele>
  <time>2026-09-02T22:07:25Z</time>
  <course>11.66</course>
  <speed>0.7184010022264724</speed>
  <fix>3d</fix>
</trkpt>
<trkpt lat="33.8102747" lon="-118.3939133">
  <ele>-0.099</ele>
  <time>2026-09-02T22:07:25Z</time>
  <course>11.66</course>
  <speed>0.7184010022264724</speed>
  <fix>3d</fix>
</trkpt>
<trkpt lat="33.8102747" lon="-118.3939133">
  <ele>-0.099</ele>
  <time>2026-09-02T22:07:25Z</time>
  <course>11.66</course>
  <speed>0.7184010022264724</speed>
  <fix>3d</fix>
</trkpt>
<trkpt lat="33.8102747" lon="-118.3939132">
  <ele>-0.099</ele>
  <time>2026-09-02T22:07:25Z</time>
  <course>11.66</course>
  <speed>0.7184010022264724</speed>
  <fix>3d</fix>
</trkpt>
<trkpt lat="33.8102748" lon="-118.3939132">
  <ele>-0.099</ele>
  <time>2026-09-02T22:07:25Z</time>
  <course>11.66</course>
  <speed>0.7184010022264724</speed>
  <fix>3d</fix>
</trkpt>
<trkpt lat="33.8102748" lon="-118.3939132">
  <ele>-0.099</ele>
  <time>2026-09-02T22:07:25Z</time>
  <course>11.66</course>
  <speed>0.7184010022264724</speed>
  <fix>3d</fix>
</trkpt>
<trkpt lat="33.8102748" lon="-118.3939131">
  <ele>-0.099</ele>
  <time>2026-09-02T22:07:25Z</time>
  <course>11.66</course>
  <speed>0.7184010022264724</speed>
  <fix>3d</fix>
</trkpt>
<trkpt lat="33.8102749" lon="-118.3939131">
  <ele>-0.099</ele>
  <time>2026-09-02T22:07:25Z</time>
  <course>11.67</course>
  <speed>0.7184010022264724</speed>
  <fix>3d</fix>
</trkpt>
<trkpt lat="33.8102749" lon="-118.393913">
  <ele>-0.099</ele>
  <time>2026-09-02T22:07:25Z</time>
  <course>11.67</course>
  <speed>0.7184010022264724</speed>
  <fix>3d</fix>
</trkpt>
<trkpt lat="33.8102741" lon="-118.3939146">
  <ele>-0.1</ele>
  <time>2026-09-02T22:07:25Z</time>
  <course>48.45</course>
  <speed>0.73</speed>
  <fix>3d</fix>
</trkpt>
<trkpt lat="33.8102749" lon="-118.393913">
  <ele>-0.099</ele>
  <time>2026-09-02T22:07:25Z</time>
  <course>11.67</course>
  <speed>0.7184010022264724</speed>
  <fix>3d</fix>
</trkpt>
<trkpt lat="33.810275" lon="-118.3939129">
  <ele>-0.099</ele>
  <time>2026-09-02T22:07:25Z</time>
  <course>11.67</course>
  <speed>0.7184010022264724</speed>
  <fix>3d</fix>
</trkpt>
<trkpt lat="33.810275" lon="-118.3939129">
  <ele>-0.098</ele>
  <time>2026-09-02T22:07:25Z</time>
  <course>11.67</course>
  <speed>0.7184010022264724</speed>
  <fix>3d</fix>
</trkpt>
<trkpt lat="33.810275" lon="-118.3939128">
  <ele>-0.098</ele>
  <time>2026-09-02T22:07:25Z</time>
  <course>11.67</course>
  <speed>0.7184010022264724</speed>
  <fix>3d</fix>
</trkpt>
<trkpt lat="33.8102751" lon="-118.3939128">
  <ele>-0.098</ele>
  <time>2026-09-02T22:07:25Z</time>
  <course>11.67</course>
  <speed>0.7184010022264724</speed>
  <fix>3d</fix>
</trkpt>
<trkpt lat="33.8102751" lon="-118.3939127">
  <ele>-0.099</ele>
  <time>2026-09-02T22:07:25Z</time>
  <course>11.67</course>
  <speed>0.7184010022264724</speed>
  <fix>3d</fix>
</trkpt>
<trkpt lat="33.8102751" lon="-118.3939127">
  <ele>-0.099</ele>
  <time>2026-09-02T22:07:25Z</time>
  <course>11.67</course>
  <speed>0.7184010022264724</speed>
  <fix>3d</fix>
</trkpt>
<trkpt lat="33.8102752" lon="-118.3939126">
  <ele>-0.099</ele>
  <time>2026-09-02T22:07:25Z</time>
  <course>11.67</course>
  <speed>0.7184010022264724</speed>
  <fix>3d</fix>
</trkpt>
<trkpt lat="33.8102752" lon="-118.3939126">
  <ele>-0.099</ele>
  <time>2026-09-02T22:07:25Z</time>
  <course>11.67</course>
  <speed>0.7184010022264724</speed>
  <fix>3d</fix>
</trkpt>
<trkpt lat="33.8102753" lon="-118.3939125">
  <ele>-0.099</ele>
  <time>2026-09-02T22:07:25Z</time>
  <course>11.67</course>
  <speed>0.7184010022264724</speed>
  <fix>3d</fix>
</trkpt>
<trkpt lat="33.8102753" lon="-118.3939125">
  <ele>-0.099</ele>
  <time>2026-09-02T22:07:25Z</time>
  <course>11.67</course>
  <speed>0.7184010022264724</speed>
  <fix>3d</fix>
</trkpt>
<trkpt lat="33.8102753" lon="-118.3939124">
  <ele>-0.099</ele>
  <time>2026-09-02T22:07:25Z</time>
  <course>11.67</course>
  <speed>0.7184010022264724</speed>
  <fix>3d</fix>
</trkpt>
<trkpt lat="33.8102753" lon="-118.3939124">
  <ele>-0.099</ele>
  <time>2026-09-02T22:07:25Z</time>
  <course>11.67</course>
  <speed>0.7184010022264724</speed>
  <fix>3d</fix>
</trkpt>
<trkpt lat="33.810275" lon="-118.3939135">
  <ele>-0.1</ele>
  <time>2026-09-02T22:07:25Z</time>
  <course>48.46</course>
  <speed>0.73</speed>
  <fix>3d</fix>
</trkpt>
<trkpt lat="33.8102753" lon="-118.3939124">
  <ele>-0.099</ele>
  <time>2026-09-02T22:07:25Z</time>
  <course>11.67</course>
  <speed>0.7184010022264724</speed>
  <fix>3d</fix>
</trkpt>
<trkpt lat="33.8102754" lon="-118.3939123">
  <ele>-0.099</ele>
  <time>2026-09-02T22:07:25Z</time>
  <course>11.67</course>
  <speed>0.7184010022264724</speed>
  <fix>3d</fix>
</trkpt>
<trkpt lat="33.8102754" lon="-118.3939123">
  <ele>-0.099</ele>
  <time>2026-09-02T22:07:25Z</time>
  <course>11.67</course>
  <speed>0.7184010022264724</speed>
  <fix>3d</fix>
</trkpt>
<trkpt lat="33.8102755" lon="-118.3939122">
  <ele>-0.099</ele>
  <time>2026-09-02T22:07:25Z</time>
  <course>11.67</course>
  <speed>0.7184010022264724</speed>
  <fix>3d</fix>
</trkpt>
<trkpt lat="33.8102755" lon="-118.3939122">
  <ele>-0.099</ele>
  <time>2026-09-02T22:07:25Z</time>
  <course>11.67</course>
  <speed>0.7184010022264724</speed>
  <fix>3d</fix>
</trkpt>
<trkpt lat="33.8102755" lon="-118.3939121">
  <ele>-0.1</ele>
  <time>2026-09-02T22:07:25Z</time>
  <course>11.67</course>
  <speed>0.7184010022264724</speed>
  <fix>3d</fix>
</trkpt>
<trkpt lat="33.8102756" lon="-118.3939121">
  <ele>-0.1</ele>
  <time>2026-09-02T22:07:25Z</time>
  <course>11.67</course>
  <speed>0.7184010022264724</speed>
  <fix>3d</fix>
</trkpt>
<trkpt lat="33.8102756" lon="-118.393912">
  <ele>-0.1</ele>
  <time>2026-09-02T22:07:25Z</time>
  <course>11.67</course>
  <speed>0.7184010022264724</speed>
  <fix>3d</fix>
</trkpt>
<trkpt lat="33.8102757" lon="-118.393912">
  <ele>-0.1</ele>
  <time>2026-09-02T22:07:25Z</time>
  <course>11.67</course>
  <speed>0.7184010022264724</speed>
  <fix>3d</fix>
</trkpt>
<trkpt lat="33.8102757" lon="-118.3939119">
  <ele>-0.1</ele>
  <time>2026-09-02T22:07:25Z</time>
  <course>11.67</course>
  <speed>0.7184010022264724</speed>
  <fix>3d</fix>
</trkpt>
<trkpt lat="33.8102757" lon="-118.3939119">
  <ele>-0.1</ele>
  <time>2026-09-02T22:07:25Z</time>
  <course>11.67</course>
  <speed>0.7184010022264724</speed>
  <fix>3d</fix>
</trkpt>
<trkpt lat="33.8102758" lon="-118.3939119">
  <ele>-0.1</ele>
  <time>2026-09-02T22:07:25Z</time>
  <course>11.67</course>
  <speed>0.7184010022264724</speed>
  <fix>3d</fix>
</trkpt>
<trkpt lat="33.8102758" lon="-118.3939118">
  <ele>-0.1</ele>
  <time>2026-09-02T22:07:25Z</time>
  <course>11.67</course>
  <speed>0.7184010022264724</speed>
  <fix>3d</fix>
</trkpt>
<trkpt lat="33.810275" lon="-118.3939135">
  <ele>-0.1</ele>
  <time>2026-09-02T22:07:25Z</time>
  <course>48.46</course>
  <speed>0.73</speed>
  <fix>3d</fix>
</trkpt>
<trkpt lat="33.8102758" lon="-118.3939118">
  <ele>-0.1</ele>
  <time>2026-09-02T22:07:25Z</time>
  <course>11.67</course>
  <speed>0.7184010022264724</speed>
  <fix>3d</fix>
</trkpt>
<trkpt lat="33.8102758" lon="-118.3939117">
  <ele>-0.1</ele>
  <time>2026-09-02T22:07:25Z</time>
  <course>11.67</course>
  <speed>0.7184010022264724</speed>
  <fix>3d</fix>
</trkpt>
<trkpt lat="33.8102759" lon="-118.3939117">
  <ele>-0.1</ele>
  <time>2026-09-02T22:07:25Z</time>
  <course>11.68</course>
  <speed>0.7184010022264724</speed>
  <fix>3d</fix>
</trkpt>
<trkpt lat="33.8102759" lon="-118.3939116">
  <ele>-0.1</ele>
  <time>2026-09-02T22:07:25Z</time>
  <course>11.68</course>
  <speed>0.7184010022264724</speed>
  <fix>3d</fix>
</trkpt>
<trkpt lat="33.810276" lon="-118.3939116">
  <ele>-0.101</ele>
  <time>2026-09-02T22:07:25Z</time>
  <course>11.68</course>
  <speed>0.7184010022264724</speed>
  <fix>3d</fix>
</trkpt>
<trkpt lat="33.810276" lon="-118.3939115">
  <ele>-0.101</ele>
  <time>2026-09-02T22:07:25Z</time>
  <course>11.68</course>
  <speed>0.7184010022264724</speed>
  <fix>3d</fix>
</trkpt>
<trkpt lat="33.810276" lon="-118.3939115">
  <ele>-0.101</ele>
  <time>2026-09-02T22:07:25Z</time>
  <course>11.68</course>
  <speed>0.7184010022264724</speed>
  <fix>3d</fix>
</trkpt>
<trkpt lat="33.8102761" lon="-118.3939114">
  <ele>-0.101</ele>
  <time>2026-09-02T22:07:25Z</time>
  <course>11.68</course>
  <speed>0.7184010022264724</speed>
  <fix>3d</fix>
</trkpt>
<trkpt lat="33.8102761" lon="-118.3939114">
  <ele>-0.101</ele>
  <time>2026-09-02T22:07:25Z</time>
  <course>11.68</course>
  <speed>0.7184010022264724</speed>
  <fix>3d</fix>
</trkpt>
<trkpt lat="33.8102761" lon="-118.3939113">
  <ele>-0.101</ele>
  <time>2026-09-02T22:07:25Z</time>
  <course>11.68</course>
  <speed>0.7184010022264724</speed>
  <fix>3d</fix>
</trkpt>
<trkpt lat="33.8102762" lon="-118.3939113">
  <ele>-0.101</ele>
  <time>2026-09-02T22:07:25Z</time>
  <course>11.68</course>
  <speed>0.7184010022264724</speed>
  <fix>3d</fix>
</trkpt>
<trkpt lat="33.8102762" lon="-118.3939112">
  <ele>-0.101</ele>
  <time>2026-09-02T22:07:25Z</time>
  <course>11.68</course>
  <speed>0.7184010022264724</speed>
  <fix>3d</fix>
</trkpt>
<trkpt lat="33.8102759" lon="-118.3939122">
  <ele>-0.11</ele>
  <time>2026-09-02T22:07:25Z</time>
  <course>48.46</course>
  <speed>0.73</speed>
  <fix>3d</fix>
</trkpt>
<trkpt lat="33.8102762" lon="-118.3939112">
  <ele>-0.101</ele>
  <time>2026-09-02T22:07:25Z</time>
  <course>11.68</course>
  <speed>0.7184010022264724</speed>
  <fix>3d</fix>
</trkpt>
<trkpt lat="33.8102763" lon="-118.3939111">
  <ele>-0.102</ele>
  <time>2026-09-02T22:07:25Z</time>
  <course>11.68</course>
  <speed>0.7184010022264724</speed>
  <fix>3d</fix>
</trkpt>
<trkpt lat="33.8102763" lon="-118.3939111">
  <ele>-0.102</ele>
  <time>2026-09-02T22:07:25Z</time>
  <course>11.68</course>
  <speed>0.7184010022264724</speed>
  <fix>3d</fix>
</trkpt>
<trkpt lat="33.8102764" lon="-118.393911">
  <ele>-0.102</ele>
  <time>2026-09-02T22:07:25Z</time>
  <course>11.68</course>
  <speed>0.7184010022264724</speed>
  <fix>3d</fix>
</trkpt>
<trkpt lat="33.8102764" lon="-118.393911">
  <ele>-0.102</ele>
  <time>2026-09-02T22:07:25Z</time>
  <course>11.68</course>
  <speed>0.7184010022264724</speed>
  <fix>3d</fix>
</trkpt>
<trkpt lat="33.8102764" lon="-118.3939109">
  <ele>-0.102</ele>
  <time>2026-09-02T22:07:25Z</time>
  <course>11.68</course>
  <speed>0.7184010022264724</speed>
  <fix>3d</fix>
</trkpt>
<trkpt lat="33.8102765" lon="-118.3939109">
  <ele>-0.102</ele>
  <time>2026-09-02T22:07:25Z</time>
  <course>11.68</course>
  <speed>0.7184010022264724</speed>
  <fix>3d</fix>
</trkpt>
<trkpt lat="33.8102765" lon="-118.3939108">
  <ele>-0.102</ele>
  <time>2026-09-02T22:07:25Z</time>
  <course>11.68</course>
  <speed>0.7184010022264724</speed>
  <fix>3d</fix>
</trkpt>
<trkpt lat="33.8102765" lon="-118.3939108">
  <ele>-0.103</ele>
  <time>2026-09-02T22:07:25Z</time>
  <course>11.68</course>
  <speed>0.7184010022264724</speed>
  <fix>3d</fix>
</trkpt>
<trkpt lat="33.8102766" lon="-118.3939108">
  <ele>-0.103</ele>
  <time>2026-09-02T22:07:25Z</time>
  <course>11.68</course>
  <speed>0.7184010022264724</speed>
  <fix>3d</fix>
</trkpt>
<trkpt lat="33.8102766" lon="-118.3939107">
  <ele>-0.103</ele>
  <time>2026-09-02T22:07:25Z</time>
  <course>11.68</course>
  <speed>0.7184010022264724</speed>
  <fix>3d</fix>
</trkpt>
<trkpt lat="33.8102766" lon="-118.3939107">
  <ele>-0.103</ele>
  <time>2026-09-02T22:07:25Z</time>
  <course>11.68</course>
  <speed>0.7184010022264724</speed>
  <fix>3d</fix>
</trkpt>
<trkpt lat="33.8102766" lon="-118.3939106">
  <ele>-0.103</ele>
  <time>2026-09-02T22:07:25Z</time>
  <course>11.68</course>
  <speed>0.7184010022264724</speed>
  <fix>3d</fix>
</trkpt>
<trkpt lat="33.8102759" lon="-118.3939122">
  <ele>-0.11</ele>
  <time>2026-09-02T22:07:25Z</time>
  <course>48.46</course>
  <speed>0.73</speed>
  <fix>3d</fix>
</trkpt>
<trkpt lat="33.8102767" lon="-118.3939106">
  <ele>-0.103</ele>
  <time>2026-09-02T22:07:25Z</time>
  <course>11.68</course>
  <speed>0.7184010022264724</speed>
  <fix>3d</fix>
</trkpt>
<trkpt lat="33.8102767" lon="-118.3939106">
  <ele>-0.103</ele>
  <time>2026-09-02T22:07:25Z</time>
  <course>11.68</course>
  <speed>0.7184010022264724</speed>
  <fix>3d</fix>
</trkpt>
<trkpt lat="33.8102768" lon="-118.3939105">
  <ele>-0.104</ele>
  <time>2026-09-02T22:07:25Z</time>
  <course>11.68</course>
  <speed>0.7184010022264724</speed>
  <fix>3d</fix>
</trkpt>
<trkpt lat="33.8102768" lon="-118.3939104">
  <ele>-0.104</ele>
  <time>2026-09-02T22:07:25Z</time>
  <course>11.68</course>
  <speed>0.7184010022264724</speed>
  <fix>3d</fix>
</trkpt>
<trkpt lat="33.8102768" lon="-118.3939104">
  <ele>-0.104</ele>
  <time>2026-09-02T22:07:25Z</time>
  <course>11.68</course>
  <speed>0.7184010022264724</speed>
  <fix>3d</fix>
</trkpt>
<trkpt lat="33.8102769" lon="-118.3939103">
  <ele>-0.104</ele>
  <time>2026-09-02T22:07:25Z</time>
  <course>11.69</course>
  <speed>0.7184010022264724</speed>
  <fix>3d</fix>
</trkpt>
<trkpt lat="33.8102769" lon="-118.3939103">
  <ele>-0.104</ele>
  <time>2026-09-02T22:07:25Z</time>
  <course>11.69</course>
  <speed>0.7184010022264724</speed>
  <fix>3d</fix>
</trkpt>
<trkpt lat="33.8102769" lon="-118.3939102">
  <ele>-0.105</ele>
  <time>2026-09-02T22:07:25Z</time>
  <course>11.69</course>
  <speed>0.7184010022264724</speed>
  <fix>3d</fix>
</trkpt>
<trkpt lat="33.810277" lon="-118.3939102">
  <ele>-0.105</ele>
  <time>2026-09-02T22:07:25Z</time>
  <course>11.69</course>
  <speed>0.7184010022264724</speed>
  <fix>3d</fix>
</trkpt>
<trkpt lat="33.810277" lon="-118.3939102">
  <ele>-0.105</ele>
  <time>2026-09-02T22:07:25Z</time>
  <course>11.69</course>
  <speed>0.7184010022264724</speed>
  <fix>3d</fix>
</trkpt>
<trkpt lat="33.8102771" lon="-118.3939101">
  <ele>-0.105</ele>
  <time>2026-09-02T22:07:25Z</time>
  <course>11.69</course>
  <speed>0.7184010022264724</speed>
  <fix>3d</fix>
</trkpt>
<trkpt lat="33.8102771" lon="-118.39391">
  <ele>-0.105</ele>
  <time>2026-09-02T22:07:25Z</time>
  <course>11.69</course>
  <speed>0.7184010022264724</speed>
  <fix>3d</fix>
</trkpt>
<trkpt lat="33.8102767" lon="-118.3939111">
  <ele>-0.1</ele>
  <time>2026-09-02T22:07:25Z</time>
  <course>48.47</course>
  <speed>0.73</speed>
  <fix>3d</fix>
</trkpt>
<trkpt lat="33.8102771" lon="-118.39391">
  <ele>-0.105</ele>
  <time>2026-09-02T22:07:25Z</time>
  <course>11.69</course>
  <speed>0.7184010022264724</speed>
  <fix>3d</fix>
</trkpt>
<trkpt lat="33.8102772" lon="-118.39391">
  <ele>-0.105</ele>
  <time>2026-09-02T22:07:25Z</time>
  <course>11.69</course>
  <speed>0.7184010022264724</speed>
  <fix>3d</fix>
</trkpt>
<trkpt lat="33.8102772" lon="-118.3939099">
  <ele>-0.106</ele>
  <time>2026-09-02T22:07:25Z</time>
  <course>11.69</course>
  <speed>0.7184010022264724</speed>
  <fix>3d</fix>
</trkpt>
<trkpt lat="33.8102772" lon="-118.3939099">
  <ele>-0.106</ele>
  <time>2026-09-02T22:07:25Z</time>
  <course>11.69</course>
  <speed>0.7184010022264724</speed>
  <fix>3d</fix>
</trkpt>
<trkpt lat="33.8102773" lon="-118.3939098">
  <ele>-0.106</ele>
  <time>2026-09-02T22:07:25Z</time>
  <course>11.69</course>
  <speed>0.7184010022264724</speed>
  <fix>3d</fix>
</trkpt>
<trkpt lat="33.8102773" lon="-118.3939098">
  <ele>-0.106</ele>
  <time>2026-09-02T22:07:25Z</time>
  <course>11.69</course>
  <speed>0.7184010022264724</speed>
  <fix>3d</fix>
</trkpt>
<trkpt lat="33.8102773" lon="-118.3939097">
  <ele>-0.106</ele>
  <time>2026-09-02T22:07:25Z</time>
  <course>11.69</course>
  <speed>0.7184010022264724</speed>
  <fix>3d</fix>
</trkpt>
<trkpt lat="33.8102774" lon="-118.3939097">
  <ele>-0.106</ele>
  <time>2026-09-02T22:07:25Z</time>
  <course>11.69</course>
  <speed>0.7184010022264724</speed>
  <fix>3d</fix>
</trkpt>
<trkpt lat="33.8102774" lon="-118.3939096">
  <ele>-0.106</ele>
  <time>2026-09-02T22:07:25Z</time>
  <course>11.69</course>
  <speed>0.7184010022264724</speed>
  <fix>3d</fix>
</trkpt>
<trkpt lat="33.8102774" lon="-118.3939096">
  <ele>-0.106</ele>
  <time>2026-09-02T22:07:25Z</time>
  <course>11.69</course>
  <speed>0.7184010022264724</speed>
  <fix>3d</fix>
</trkpt>
<trkpt lat="33.8102775" lon="-118.3939095">
  <ele>-0.106</ele>
  <time>2026-09-02T22:07:25Z</time>
  <course>11.69</course>
  <speed>0.7184010022264724</speed>
  <fix>3d</fix>
</trkpt>
<trkpt lat="33.8102775" lon="-118.3939095">
  <ele>-0.107</ele>
  <time>2026-09-02T22:07:25Z</time>
  <course>11.69</course>
  <speed>0.7184010022264724</speed>
  <fix>3d</fix>
</trkpt>
<trkpt lat="33.8102775" lon="-118.3939095">
  <ele>-0.107</ele>
  <time>2026-09-02T22:07:25Z</time>
  <course>11.69</course>
  <speed>0.7184010022264724</speed>
  <fix>3d</fix>
</trkpt>
<trkpt lat="33.8102767" lon="-118.3939111">
  <ele>-0.1</ele>
  <time>2026-09-02T22:07:25Z</time>
  <course>48.47</course>
  <speed>0.73</speed>
  <fix>3d</fix>
</trkpt>
<trkpt lat="33.8102775" lon="-118.3939094">
  <ele>-0.107</ele>
  <time>2026-09-02T22:07:25Z</time>
  <course>11.69</course>
  <speed>0.7184010022264724</speed>
  <fix>3d</fix>
</trkpt>
<trkpt lat="33.8102776" lon="-118.3939094">
  <ele>-0.107</ele>
  <time>2026-09-02T22:07:25Z</time>
  <course>11.69</course>
  <speed>0.7184010022264724</speed>
  <fix>3d</fix>
</trkpt>
<trkpt lat="33.8102776" lon="-118.3939093">
  <ele>-0.107</ele>
  <time>2026-09-02T22:07:25Z</time>
  <course>11.69</course>
  <speed>0.7184010022264724</speed>
  <fix>3d</fix>
</trkpt>
<trkpt lat="33.8102777" lon="-118.3939093">
  <ele>-0.107</ele>
  <time>2026-09-02T22:07:25Z</time>
  <course>11.69</course>
  <speed>0.7184010022264724</speed>
  <fix>3d</fix>
</trkpt>
<trkpt lat="33.8102777" lon="-118.3939092">
  <ele>-0.107</ele>
  <time>2026-09-02T22:07:25Z</time>
  <course>11.69</course>
  <speed>0.7184010022264724</speed>
  <fix>3d</fix>
</trkpt>
<trkpt lat="33.8102777" lon="-118.3939091">
  <ele>-0.107</ele>
  <time>2026-09-02T22:07:25Z</time>
  <course>11.69</course>
  <speed>0.7184010022264724</speed>
  <fix>3d</fix>
</trkpt>
<trkpt lat="33.8102778" lon="-118.3939091">
  <ele>-0.108</ele>
  <time>2026-09-02T22:07:25Z</time>
  <course>11.69</course>
  <speed>0.7184010022264724</speed>
  <fix>3d</fix>
</trkpt>
<trkpt lat="33.8102778" lon="-118.3939091">
  <ele>-0.108</ele>
  <time>2026-09-02T22:07:25Z</time>
  <course>11.69</course>
  <speed>0.7184010022264724</speed>
  <fix>3d</fix>
</trkpt>
<trkpt lat="33.8102778" lon="-118.393909">
  <ele>-0.108</ele>
  <time>2026-09-02T22:07:25Z</time>
  <course>11.69</course>
  <speed>0.7184010022264724</speed>
  <fix>3d</fix>
</trkpt>
<trkpt lat="33.8102779" lon="-118.393909">
  <ele>-0.108</ele>
  <time>2026-09-02T22:07:25Z</time>
  <course>11.69</course>
  <speed>0.7184010022264724</speed>
  <fix>3d</fix>
</trkpt>
<trkpt lat="33.8102779" lon="-118.3939089">
  <ele>-0.108</ele>
  <time>2026-09-02T22:07:25Z</time>
  <course>11.7</course>
  <speed>0.7184010022264724</speed>
  <fix>3d</fix>
</trkpt>
<trkpt lat="33.810278" lon="-118.3939089">
  <ele>-0.108</ele>
  <time>2026-09-02T22:07:25Z</time>
  <course>11.7</course>
  <speed>0.7184010022264724</speed>
  <fix>3d</fix>
</trkpt>
<trkpt lat="33.810278" lon="-118.3939089">
  <ele>-0.108</ele>
  <time>2026-09-02T22:07:25Z</time>
  <course>11.7</course>
  <speed>0.7184010022264724</speed>
  <fix>3d</fix>
</trkpt>
<trkpt lat="33.8102776" lon="-118.3939098">
  <ele>-0.1</ele>
  <time>2026-09-02T22:07:25Z</time>
  <course>48.48</course>
  <speed>0.73</speed>
  <fix>3d</fix>
</trkpt>
<trkpt lat="33.810278" lon="-118.3939088">
  <ele>-0.109</ele>
  <time>2026-09-02T22:07:25Z</time>
  <course>11.7</course>
  <speed>0.7184010022264724</speed>
  <fix>3d</fix>
</trkpt>
<trkpt lat="33.8102781" lon="-118.3939087">
  <ele>-0.109</ele>
  <time>2026-09-02T22:07:25Z</time>
  <course>11.7</course>
  <speed>0.7184010022264724</speed>
  <fix>3d</fix>
</trkpt>
<trkpt lat="33.8102781" lon="-118.3939086">
  <ele>-0.109</ele>
  <time>2026-09-02T22:07:25Z</time>
  <course>11.7</course>
  <speed>0.7184010022264724</speed>
  <fix>3d</fix>
</trkpt>
<trkpt lat="33.8102782" lon="-118.3939086">
  <ele>-0.109</ele>
  <time>2026-09-02T22:07:25Z</time>
  <course>11.7</course>
  <speed>0.7184010022264724</speed>
  <fix>3d</fix>
</trkpt>
<trkpt lat="33.8102782" lon="-118.3939085">
  <ele>-0.109</ele>
  <time>2026-09-02T22:07:25Z</time>
  <course>11.7</course>
  <speed>0.7184010022264724</speed>
  <fix>3d</fix>
</trkpt>
<trkpt lat="33.8102782" lon="-118.3939085">
  <ele>-0.109</ele>
  <time>2026-09-02T22:07:25Z</time>
  <course>11.7</course>
  <speed>0.7184010022264724</speed>
  <fix>3d</fix>
</trkpt>
<trkpt lat="33.8102783" lon="-118.3939084">
  <ele>-0.11</ele>
  <time>2026-09-02T22:07:25Z</time>
  <course>11.7</course>
  <speed>0.7184010022264724</speed>
  <fix>3d</fix>
</trkpt>
<trkpt lat="33.8102783" lon="-118.3939084">
  <ele>-0.11</ele>
  <time>2026-09-02T22:07:25Z</time>
  <course>11.7</course>
  <speed>0.7184010022264724</speed>
  <fix>3d</fix>
</trkpt>
<trkpt lat="33.8102783" lon="-118.3939084">
  <ele>-0.11</ele>
  <time>2026-09-02T22:07:25Z</time>
  <course>11.7</course>
  <speed>0.7184010022264724</speed>
  <fix>3d</fix>
</trkpt>
<trkpt lat="33.8102784" lon="-118.3939083">
  <ele>-0.11</ele>
  <time>2026-09-02T22:07:25Z</time>
  <course>11.7</course>
  <speed>0.7184010022264724</speed>
  <fix>3d</fix>
</trkpt>
<trkpt lat="33.8102784" lon="-118.3939083">
  <ele>-0.11</ele>
  <time>2026-09-02T22:07:25Z</time>
  <course>11.7</course>
  <speed>0.7184010022264724</speed>
  <fix>3d</fix>
</trkpt>
<trkpt lat="33.8102776" lon="-118.3939098">
  <ele>-0.1</ele>
  <time>2026-09-02T22:07:25Z</time>
  <course>48.48</course>
  <speed>0.73</speed>
  <fix>3d</fix>
</trkpt>
<trkpt lat="33.8102784" lon="-118.3939083">
  <ele>-0.11</ele>
  <time>2026-09-02T22:07:25Z</time>
  <course>11.7</course>
  <speed>0.7184010022264724</speed>
  <fix>3d</fix>
</trkpt>
<trkpt lat="33.8102785" lon="-118.3939082">
  <ele>-0.11</ele>
  <time>2026-09-02T22:07:25Z</time>
  <course>11.7</course>
  <speed>0.7184010022264724</speed>
  <fix>3d</fix>
</trkpt>
<trkpt lat="33.8102785" lon="-118.3939081">
  <ele>-0.11</ele>
  <time>2026-09-02T22:07:25Z</time>
  <course>11.7</course>
  <speed>0.7184010022264724</speed>
  <fix>3d</fix>
</trkpt>
<trkpt lat="33.8102785" lon="-118.3939081">
  <ele>-0.111</ele>
  <time>2026-09-02T22:07:25Z</time>
  <course>11.7</course>
  <speed>0.7184010022264724</speed>
  <fix>3d</fix>
</trkpt>
<trkpt lat="33.8102786" lon="-118.393908">
  <ele>-0.111</ele>
  <time>2026-09-02T22:07:25Z</time>
  <course>11.7</course>
  <speed>0.7184010022264724</speed>
  <fix>3d</fix>
</trkpt>
<trkpt lat="33.8102786" lon="-118.393908">
  <ele>-0.111</ele>
  <time>2026-09-02T22:07:25Z</time>
  <course>11.7</course>
  <speed>0.7184010022264724</speed>
  <fix>3d</fix>
</trkpt>
<trkpt lat="33.8102786" lon="-118.3939079">
  <ele>-0.111</ele>
  <time>2026-09-02T22:07:25Z</time>
  <course>11.7</course>
  <speed>0.7184010022264724</speed>
  <fix>3d</fix>
</trkpt>
<trkpt lat="33.8102787" lon="-118.3939079">
  <ele>-0.111</ele>
  <time>2026-09-02T22:07:25Z</time>
  <course>11.7</course>
  <speed>0.7184010022264724</speed>
  <fix>3d</fix>
</trkpt>
<trkpt lat="33.8102787" lon="-118.3939079">
  <ele>-0.111</ele>
  <time>2026-09-02T22:07:25Z</time>
  <course>11.7</course>
  <speed>0.7184010022264724</speed>
  <fix>3d</fix>
</trkpt>
<trkpt lat="33.8102787" lon="-118.3939078">
  <ele>-0.111</ele>
  <time>2026-09-02T22:07:25Z</time>
  <course>11.7</course>
  <speed>0.7184010022264724</speed>
  <fix>3d</fix>
</trkpt>
<trkpt lat="33.8102788" lon="-118.3939077">
  <ele>-0.111</ele>
  <time>2026-09-02T22:07:25Z</time>
  <course>11.7</course>
  <speed>0.7184010022264724</speed>
  <fix>3d</fix>
</trkpt>
<trkpt lat="33.8102788" lon="-118.3939077">
  <ele>-0.111</ele>
  <time>2026-09-02T22:07:25Z</time>
  <course>11.7</course>
  <speed>0.7184010022264724</speed>
  <fix>3d</fix>
</trkpt>
<trkpt lat="33.8102788" lon="-118.3939077">
  <ele>-0.111</ele>
  <time>2026-09-02T22:07:25Z</time>
  <course>11.7</course>
  <speed>0.7184010022264724</speed>
  <fix>3d</fix>
</trkpt>
<trkpt lat="33.8102785" lon="-118.3939087">
  <ele>-0.1</ele>
  <time>2026-09-02T22:07:25Z</time>
  <course>48.49</course>
  <speed>0.73</speed>
  <fix>3d</fix>
</trkpt>
<trkpt lat="33.8102788" lon="-118.3939077">
  <ele>-0.112</ele>
  <time>2026-09-02T22:07:25Z</time>
  <course>11.7</course>
  <speed>0.7184010022264724</speed>
  <fix>3d</fix>
</trkpt>
<trkpt lat="33.8102789" lon="-118.3939076">
  <ele>-0.112</ele>
  <time>2026-09-02T22:07:25Z</time>
  <course>11.71</course>
  <speed>0.7184010022264724</speed>
  <fix>3d</fix>
</trkpt>
<trkpt lat="33.810279" lon="-118.3939075">
  <ele>-0.112</ele>
  <time>2026-09-02T22:07:25Z</time>
  <course>11.71</course>
  <speed>0.7184010022264724</speed>
  <fix>3d</fix>
</trkpt>
<trkpt lat="33.810279" lon="-118.3939075">
  <ele>-0.112</ele>
  <time>2026-09-02T22:07:25Z</time>
  <course>11.71</course>
  <speed>0.7184010022264724</speed>
  <fix>3d</fix>
</trkpt>
<trkpt lat="33.810279" lon="-118.3939074">
  <ele>-0.112</ele>
  <time>2026-09-02T22:07:25Z</time>
  <course>11.71</course>
  <speed>0.7184010022264724</speed>
  <fix>3d</fix>
</trkpt>
<trkpt lat="33.8102791" lon="-118.3939074">
  <ele>-0.112</ele>
  <time>2026-09-02T22:07:25Z</time>
  <course>11.71</course>
  <speed>0.7184010022264724</speed>
  <fix>3d</fix>
</trkpt>
<trkpt lat="33.8102791" lon="-118.3939073">
  <ele>-0.112</ele>
  <time>2026-09-02T22:07:25Z</time>
  <course>11.71</course>
  <speed>0.7184010022264724</speed>
  <fix>3d</fix>
</trkpt>
<trkpt lat="33.8102792" lon="-118.3939072">
  <ele>-0.112</ele>
  <time>2026-09-02T22:07:25Z</time>
  <course>11.71</course>
  <speed>0.7184010022264724</speed>
  <fix>3d</fix>
</trkpt>
<trkpt lat="33.8102792" lon="-118.3939072">
  <ele>-0.112</ele>
  <time>2026-09-02T22:07:25Z</time>
  <course>11.71</course>
  <speed>0.7184010022264724</speed>
  <fix>3d</fix>
</trkpt>
<trkpt lat="33.8102792" lon="-118.3939072">
  <ele>-0.112</ele>
  <time>2026-09-02T22:07:25Z</time>
  <course>11.71</course>
  <speed>0.7184010022264724</speed>
  <fix>3d</fix>
</trkpt>
<trkpt lat="33.8102793" lon="-118.3939071">
  <ele>-0.113</ele>
  <time>2026-09-02T22:07:25Z</time>
  <course>11.71</course>
  <speed>0.7184010022264724</speed>
  <fix>3d</fix>
</trkpt>
<trkpt lat="33.8102793" lon="-118.3939071">
  <ele>-0.113</ele>
  <time>2026-09-02T22:07:25Z</time>
  <course>11.71</course>
  <speed>0.7184010022264724</speed>
  <fix>3d</fix>
</trkpt>
<trkpt lat="33.8102785" lon="-118.3939087">
  <ele>-0.1</ele>
  <time>2026-09-02T22:07:25Z</time>
  <course>48.49</course>
  <speed>0.73</speed>
  <fix>3d</fix>
</trkpt>
<trkpt lat="33.8102793" lon="-118.3939071">
  <ele>-0.113</ele>
  <time>2026-09-02T22:07:25Z</time>
  <course>11.71</course>
  <speed>0.7184010022264724</speed>
  <fix>3d</fix>
</trkpt>
<trkpt lat="33.8102793" lon="-118.393907">
  <ele>-0.113</ele>
  <time>2026-09-02T22:07:25Z</time>
  <course>11.71</course>
  <speed>0.7184010022264724</speed>
  <fix>3d</fix>
</trkpt>
<trkpt lat="33.8102794" lon="-118.3939069">
  <ele>-0.113</ele>
  <time>2026-09-02T22:07:25Z</time>
  <course>11.71</course>
  <speed>0.7184010022264724</speed>
  <fix>3d</fix>
</trkpt>
<trkpt lat="33.8102794" lon="-118.3939069">
  <ele>-0.113</ele>
  <time>2026-09-02T22:07:25Z</time>
  <course>11.71</course>
  <speed>0.7184010022264724</speed>
  <fix>3d</fix>
</trkpt>
<trkpt lat="33.8102794" lon="-118.3939068">
  <ele>-0.113</ele>
  <time>2026-09-02T22:07:25Z</time>
  <course>11.71</course>
  <speed>0.7184010022264724</speed>
  <fix>3d</fix>
</trkpt>
<trkpt lat="33.8102795" lon="-118.3939068">
  <ele>-0.113</ele>
  <time>2026-09-02T22:07:25Z</time>
  <course>11.71</course>
  <speed>0.7184010022264724</speed>
  <fix>3d</fix>
</trkpt>
<trkpt lat="33.8102795" lon="-118.3939068">
  <ele>-0.113</ele>
  <time>2026-09-02T22:07:25Z</time>
  <course>11.71</course>
  <speed>0.7184010022264724</speed>
  <fix>3d</fix>
</trkpt>
<trkpt lat="33.8102795" lon="-118.3939067">
  <ele>-0.113</ele>
  <time>2026-09-02T22:07:25Z</time>
  <course>11.71</course>
  <speed>0.7184010022264724</speed>
  <fix>3d</fix>
</trkpt>
<trkpt lat="33.8102796" lon="-118.3939067">
  <ele>-0.113</ele>
  <time>2026-09-02T22:07:25Z</time>
  <course>11.71</course>
  <speed>0.7184010022264724</speed>
  <fix>3d</fix>
</trkpt>
<trkpt lat="33.8102796" lon="-118.3939066">
  <ele>-0.113</ele>
  <time>2026-09-02T22:07:25Z</time>
  <course>11.71</course>
  <speed>0.7184010022264724</speed>
  <fix>3d</fix>
</trkpt>
<trkpt lat="33.8102796" lon="-118.3939066">
  <ele>-0.114</ele>
  <time>2026-09-02T22:07:25Z</time>
  <course>11.71</course>
  <speed>0.7184010022264724</speed>
  <fix>3d</fix>
</trkpt>
<trkpt lat="33.8102797" lon="-118.3939065">
  <ele>-0.114</ele>
  <time>2026-09-02T22:07:25Z</time>
  <course>11.71</course>
  <speed>0.7184010022264724</speed>
  <fix>3d</fix>
</trkpt>
<trkpt lat="33.8102797" lon="-118.3939065">
  <ele>-0.114</ele>
  <time>2026-09-02T22:07:25Z</time>
  <course>11.71</course>
  <speed>0.7184010022264724</speed>
  <fix>3d</fix>
</trkpt>
<trkpt lat="33.8102794" lon="-118.3939074">
  <ele>-0.1</ele>
  <time>2026-09-02T22:07:25Z</time>
  <course>48.5</course>
  <speed>0.73</speed>
  <fix>3d</fix>
</trkpt>
<trkpt lat="33.8102797" lon="-118.3939065">
  <ele>-0.114</ele>
  <time>2026-09-02T22:07:25Z</time>
  <course>11.71</course>
  <speed>0.7184010022264724</speed>
  <fix>3d</fix>
</trkpt>
<trkpt lat="33.8102798" lon="-118.3939064">
  <ele>-0.114</ele>
  <time>2026-09-02T22:07:25Z</time>
  <course>11.71</course>
  <speed>0.7184010022264724</speed>
  <fix>3d</fix>
</trkpt>
<trkpt lat="33.8102798" lon="-118.3939064">
  <ele>-0.114</ele>
  <time>2026-09-02T22:07:25Z</time>
  <course>11.71</course>
  <speed>0.7184010022264724</speed>
  <fix>3d</fix>
</trkpt>
<trkpt lat="33.8102798" lon="-118.3939063">
  <ele>-0.114</ele>
  <time>2026-09-02T22:07:25Z</time>
  <course>11.71</course>
  <speed>0.7184010022264724</speed>
  <fix>3d</fix>
</trkpt>
<trkpt lat="33.8102799" lon="-118.3939063">
  <ele>-0.114</ele>
  <time>2026-09-02T22:07:25Z</time>
  <course>11.71</course>
  <speed>0.7184010022264724</speed>
  <fix>3d</fix>
</trkpt>
<trkpt lat="33.8102799" lon="-118.3939062">
  <ele>-0.114</ele>
  <time>2026-09-02T22:07:25Z</time>
  <course>11.71</course>
  <speed>0.7184010022264724</speed>
  <fix>3d</fix>
</trkpt>
<trkpt lat="33.8102799" lon="-118.3939062">
  <ele>-0.114</ele>
  <time>2026-09-02T22:07:25Z</time>
  <course>11.71</course>
  <speed>0.7184010022264724</speed>
  <fix>3d</fix>
</trkpt>
<trkpt lat="33.81028" lon="-118.3939061">
  <ele>-0.114</ele>
  <time>2026-09-02T22:07:25Z</time>
  <course>11.72</course>
  <speed>0.7184010022264724</speed>
  <fix>3d</fix>
</trkpt>
<trkpt lat="33.81028" lon="-118.3939061">
  <ele>-0.115</ele>
  <time>2026-09-02T22:07:25Z</time>
  <course>11.72</course>
  <speed>0.7184010022264724</speed>
  <fix>3d</fix>
</trkpt>
<trkpt lat="33.8102801" lon="-118.393906">
  <ele>-0.115</ele>
  <time>2026-09-02T22:07:25Z</time>
  <course>11.72</course>
  <speed>0.7184010022264724</speed>
  <fix>3d</fix>
</trkpt>
<trkpt lat="33.8102801" lon="-118.393906">
  <ele>-0.115</ele>
  <time>2026-09-02T22:07:25Z</time>
  <course>11.72</course>
  <speed>0.7184010022264724</speed>
  <fix>3d</fix>
</trkpt>
<trkpt lat="33.8102801" lon="-118.3939059">
  <ele>-0.115</ele>
  <time>2026-09-02T22:07:25Z</time>
  <course>11.72</course>
  <speed>0.7184010022264724</speed>
  <fix>3d</fix>
</trkpt>
<trkpt lat="33.8102801" lon="-118.3939059">
  <ele>-0.115</ele>
  <time>2026-09-02T22:07:25Z</time>
  <course>11.72</course>
  <speed>0.7184010022264724</speed>
  <fix>3d</fix>
</trkpt>
<trkpt lat="33.8102794" lon="-118.3939074">
  <ele>-0.1</ele>
  <time>2026-09-02T22:07:25Z</time>
  <course>48.5</course>
  <speed>0.73</speed>
  <fix>3d</fix>
</trkpt>
<trkpt lat="33.8102802" lon="-118.3939059">
  <ele>-0.115</ele>
  <time>2026-09-02T22:07:25Z</time>
  <course>11.72</course>
  <speed>0.7184010022264724</speed>
  <fix>3d</fix>
</trkpt>
<trkpt lat="33.8102802" lon="-118.3939058">
  <ele>-0.115</ele>
  <time>2026-09-02T22:07:25Z</time>
  <course>11.72</course>
  <speed>0.7184010022264724</speed>
  <fix>3d</fix>
</trkpt>
<trkpt lat="33.8102803" lon="-118.3939057">
  <ele>-0.115</ele>
  <time>2026-09-02T22:07:25Z</time>
  <course>11.72</course>
  <speed>0.7184010022264724</speed>
  <fix>3d</fix>
</trkpt>
<trkpt lat="33.8102803" lon="-118.3939057">
  <ele>-0.115</ele>
  <time>2026-09-02T22:07:25Z</time>
  <course>11.72</course>
  <speed>0.7184010022264724</speed>
  <fix>3d</fix>
</trkpt>
<trkpt lat="33.8102803" lon="-118.3939056">
  <ele>-0.115</ele>
  <time>2026-09-02T22:07:25Z</time>
  <course>11.72</course>
  <speed>0.7184010022264724</speed>
  <fix>3d</fix>
</trkpt>
<trkpt lat="33.8102804" lon="-118.3939056">
  <ele>-0.115</ele>
  <time>2026-09-02T22:07:25Z</time>
  <course>11.72</course>
  <speed>0.7184010022264724</speed>
  <fix>3d</fix>
</trkpt>
<trkpt lat="33.8102804" lon="-118.3939056">
  <ele>-0.115</ele>
  <time>2026-09-02T22:07:25Z</time>
  <course>11.72</course>
  <speed>0.7184010022264724</speed>
  <fix>3d</fix>
</trkpt>
<trkpt lat="33.8102804" lon="-118.3939055">
  <ele>-0.115</ele>
  <time>2026-09-02T22:07:25Z</time>
  <course>11.72</course>
  <speed>0.7184010022264724</speed>
  <fix>3d</fix>
</trkpt>
<trkpt lat="33.8102805" lon="-118.3939055">
  <ele>-0.115</ele>
  <time>2026-09-02T22:07:25Z</time>
  <course>11.72</course>
  <speed>0.7184010022264724</speed>
  <fix>3d</fix>
</trkpt>
<trkpt lat="33.8102805" lon="-118.3939054">
  <ele>-0.115</ele>
  <time>2026-09-02T22:07:25Z</time>
  <course>11.72</course>
  <speed>0.7184010022264724</speed>
  <fix>3d</fix>
</trkpt>
<trkpt lat="33.8102805" lon="-118.3939054">
  <ele>-0.115</ele>
  <time>2026-09-02T22:07:25Z</time>
  <course>11.72</course>
  <speed>0.7184010022264724</speed>
  <fix>3d</fix>
</trkpt>
<trkpt lat="33.8102806" lon="-118.3939053">
  <ele>-0.115</ele>
  <time>2026-09-02T22:07:25Z</time>
  <course>11.72</course>
  <speed>0.7184010022264724</speed>
  <fix>3d</fix>
</trkpt>
<trkpt lat="33.8102806" lon="-118.3939053">
  <ele>-0.115</ele>
  <time>2026-09-02T22:07:25Z</time>
  <course>11.72</course>
  <speed>0.7184010022264724</speed>
  <fix>3d</fix>
</trkpt>
<trkpt lat="33.8102806" lon="-118.3939053">
  <ele>-0.115</ele>
  <time>2026-09-02T22:07:25Z</time>
  <course>11.72</course>
  <speed>0.7184010022264724</speed>
  <fix>3d</fix>
</trkpt>
<trkpt lat="33.8102803" lon="-118.3939063">
  <ele>-0.11</ele>
  <time>2026-09-02T22:07:25Z</time>
  <course>48.51</course>
  <speed>0.73</speed>
  <fix>3d</fix>
</trkpt>
<trkpt lat="33.8102806" lon="-118.3939052">
  <ele>-0.115</ele>
  <time>2026-09-02T22:07:25Z</time>
  <course>11.72</course>
  <speed>0.7184010022264724</speed>
  <fix>3d</fix>
</trkpt>
<trkpt lat="33.8102807" lon="-118.3939052">
  <ele>-0.115</ele>
  <time>2026-09-02T22:07:25Z</time>
  <course>11.72</course>
  <speed>0.7184010022264724</speed>
  <fix>3d</fix>
</trkpt>
<trkpt lat="33.8102807" lon="-118.3939051">
  <ele>-0.115</ele>
  <time>2026-09-02T22:07:25Z</time>
  <course>11.72</course>
  <speed>0.7184010022264724</speed>
  <fix>3d</fix>
</trkpt>
<trkpt lat="33.8102808" lon="-118.3939051">
  <ele>-0.115</ele>
  <time>2026-09-02T22:07:25Z</time>
  <course>11.72</course>
  <speed>0.7184010022264724</speed>
  <fix>3d</fix>
</trkpt>
<trkpt lat="33.8102808" lon="-118.393905">
  <ele>-0.115</ele>
  <time>2026-09-02T22:07:25Z</time>
  <course>11.72</course>
  <speed>0.7184010022264724</speed>
  <fix>3d</fix>
</trkpt>
<trkpt lat="33.8102808" lon="-118.393905">
  <ele>-0.115</ele>
  <time>2026-09-02T22:07:25Z</time>
  <course>11.72</course>
  <speed>0.7184010022264724</speed>
  <fix>3d</fix>
</trkpt>
<trkpt lat="33.8102809" lon="-118.3939049">
  <ele>-0.115</ele>
  <time>2026-09-02T22:07:25Z</time>
  <course>11.72</course>
  <speed>0.7184010022264724</speed>
  <fix>3d</fix>
</trkpt>
<trkpt lat="33.8102809" lon="-118.3939049">
  <ele>-0.115</ele>
  <time>2026-09-02T22:07:25Z</time>
  <course>11.72</course>
  <speed>0.7184010022264724</speed>
  <fix>3d</fix>
</trkpt>
<trkpt lat="33.810281" lon="-118.3939048">
  <ele>-0.115</ele>
  <time>2026-09-02T22:07:25Z</time>
  <course>11.72</course>
  <speed>0.7184010022264724</speed>
  <fix>3d</fix>
</trkpt>
<trkpt lat="33.810281" lon="-118.3939048">
  <ele>-0.115</ele>
  <time>2026-09-02T22:07:25Z</time>
  <course>11.72</course>
  <speed>0.7184010022264724</speed>
  <fix>3d</fix>
</trkpt>
<trkpt lat="33.810281" lon="-118.3939047">
  <ele>-0.115</ele>
  <time>2026-09-02T22:07:25Z</time>
  <course>11.72</course>
  <speed>0.7184010022264724</speed>
  <fix>3d</fix>
</trkpt>
<trkpt lat="33.810281" lon="-118.3939047">
  <ele>-0.115</ele>
  <time>2026-09-02T22:07:25Z</time>
  <course>11.72</course>
  <speed>0.7184010022264724</speed>
  <fix>3d</fix>
</trkpt>
<trkpt lat="33.8102803" lon="-118.3939063">
  <ele>-0.11</ele>
  <time>2026-09-02T22:07:25Z</time>
  <course>48.51</course>
  <speed>0.73</speed>
  <fix>3d</fix>
</trkpt>
<trkpt lat="33.8102811" lon="-118.3939046">
  <ele>-0.114</ele>
  <time>2026-09-02T22:07:25Z</time>
  <course>11.73</course>
  <speed>0.7184010022264724</speed>
  <fix>3d</fix>
</trkpt>
<trkpt lat="33.8102811" lon="-118.3939045">
  <ele>-0.114</ele>
  <time>2026-09-02T22:07:25Z</time>
  <course>11.73</course>
  <speed>0.7184010022264724</speed>
  <fix>3d</fix>
</trkpt>
<trkpt lat="33.8102812" lon="-118.3939045">
  <ele>-0.114</ele>
  <time>2026-09-02T22:07:25Z</time>
  <course>11.73</course>
  <speed>0.7184010022264724</speed>
  <fix>3d</fix>
</trkpt>
<trkpt lat="33.8102812" lon="-118.3939045">
  <ele>-0.114</ele>
  <time>2026-09-02T22:07:25Z</time>
  <course>11.73</course>
  <speed>0.7184010022264724</speed>
  <fix>3d</fix>
</trkpt>
<trkpt lat="33.8102812" lon="-118.3939044">
  <ele>-0.114</ele>
  <time>2026-09-02T22:07:25Z</time>
  <course>11.73</course>
  <speed>0.7184010022264724</speed>
  <fix>3d</fix>
</trkpt>
<trkpt lat="33.8102813" lon="-118.3939044">
  <ele>-0.114</ele>
  <time>2026-09-02T22:07:25Z</time>
  <course>11.73</course>
  <speed>0.7184010022264724</speed>
  <fix>3d</fix>
</trkpt>
<trkpt lat="33.8102813" lon="-118.3939043">
  <ele>-0.114</ele>
  <time>2026-09-02T22:07:25Z</time>
  <course>11.73</course>
  <speed>0.7184010022264724</speed>
  <fix>3d</fix>
</trkpt>
<trkpt lat="33.8102813" lon="-118.3939043">
  <ele>-0.114</ele>
  <time>2026-09-02T22:07:25Z</time>
  <course>11.73</course>
  <speed>0.7184010022264724</speed>
  <fix>3d</fix>
</trkpt>
<trkpt lat="33.8102814" lon="-118.3939042">
  <ele>-0.113</ele>
  <time>2026-09-02T22:07:25Z</time>
  <course>11.73</course>
  <speed>0.7184010022264724</speed>
  <fix>3d</fix>
</trkpt>
<trkpt lat="33.8102814" lon="-118.3939042">
  <ele>-0.113</ele>
  <time>2026-09-02T22:07:25Z</time>
  <course>11.73</course>
  <speed>0.7184010022264724</speed>
  <fix>3d</fix>
</trkpt>
<trkpt lat="33.8102815" lon="-118.3939041">
  <ele>-0.113</ele>
  <time>2026-09-02T22:07:25Z</time>
  <course>11.73</course>
  <speed>0.7184010022264724</speed>
  <fix>3d</fix>
</trkpt>
<trkpt lat="33.8102815" lon="-118.3939041">
  <ele>-0.113</ele>
  <time>2026-09-02T22:07:25Z</time>
  <course>11.73</course>
  <speed>0.7184010022264724</speed>
  <fix>3d</fix>
</trkpt>
<trkpt lat="33.8102811" lon="-118.393905">
  <ele>-0.1</ele>
  <time>2026-09-02T22:07:25Z</time>
  <course>48.52</course>
  <speed>0.73</speed>
  <fix>3d</fix>
</trkpt>
<trkpt lat="33.8102816" lon="-118.393904">
  <ele>-0.113</ele>
  <time>2026-09-02T22:07:25Z</time>
  <course>11.73</course>
  <speed>0.7184010022264724</speed>
  <fix>3d</fix>
</trkpt>
<trkpt lat="33.8102816" lon="-118.3939039">
  <ele>-0.113</ele>
  <time>2026-09-02T22:07:25Z</time>
  <course>11.73</course>
  <speed>0.7184010022264724</speed>
  <fix>3d</fix>
</trkpt>
<trkpt lat="33.8102816" lon="-118.3939039">
  <ele>-0.112</ele>
  <time>2026-09-02T22:07:25Z</time>
  <course>11.73</course>
  <speed>0.7184010022264724</speed>
  <fix>3d</fix>
</trkpt>
<trkpt lat="33.8102817" lon="-118.3939038">
  <ele>-0.112</ele>
  <time>2026-09-02T22:07:25Z</time>
  <course>11.73</course>
  <speed>0.7184010022264724</speed>
  <fix>3d</fix>
</trkpt>
<trkpt lat="33.8102817" lon="-118.3939038">
  <ele>-0.112</ele>
  <time>2026-09-02T22:07:25Z</time>
  <course>11.73</course>
  <speed>0.7184010022264724</speed>
  <fix>3d</fix>
</trkpt>
<trkpt lat="33.8102817" lon="-118.3939037">
  <ele>-0.112</ele>
  <time>2026-09-02T22:07:25Z</time>
  <course>11.73</course>
  <speed>0.7184010022264724</speed>
  <fix>3d</fix>
</trkpt>
<trkpt lat="33.8102818" lon="-118.3939037">
  <ele>-0.112</ele>
  <time>2026-09-02T22:07:25Z</time>
  <course>11.73</course>
  <speed>0.7184010022264724</speed>
  <fix>3d</fix>
</trkpt>
<trkpt lat="33.8102818" lon="-118.3939036">
  <ele>-0.112</ele>
  <time>2026-09-02T22:07:25Z</time>
  <course>11.73</course>
  <speed>0.7184010022264724</speed>
  <fix>3d</fix>
</trkpt>
<trkpt lat="33.8102819" lon="-118.3939036">
  <ele>-0.112</ele>
  <time>2026-09-02T22:07:25Z</time>
  <course>11.73</course>
  <speed>0.7184010022264724</speed>
  <fix>3d</fix>
</trkpt>
<trkpt lat="33.8102819" lon="-118.3939035">
  <ele>-0.111</ele>
  <time>2026-09-02T22:07:25Z</time>
  <course>11.73</course>
  <speed>0.7184010022264724</speed>
  <fix>3d</fix>
</trkpt>
<trkpt lat="33.8102819" lon="-118.3939035">
  <ele>-0.111</ele>
  <time>2026-09-02T22:07:25Z</time>
  <course>11.73</course>
  <speed>0.7184010022264724</speed>
  <fix>3d</fix>
</trkpt>
<trkpt lat="33.8102819" lon="-118.3939035">
  <ele>-0.111</ele>
  <time>2026-09-02T22:07:25Z</time>
  <course>11.73</course>
  <speed>0.7184010022264724</speed>
  <fix>3d</fix>
</trkpt>
<trkpt lat="33.8102811" lon="-118.393905">
  <ele>-0.1</ele>
  <time>2026-09-02T22:07:25Z</time>
  <course>48.52</course>
  <speed>0.73</speed>
  <fix>3d</fix>
</trkpt>
<trkpt lat="33.810282" lon="-118.3939034">
  <ele>-0.111</ele>
  <time>2026-09-02T22:07:25Z</time>
  <course>11.73</course>
  <speed>0.7184010022264724</speed>
  <fix>3d</fix>
</trkpt>
<trkpt lat="33.810282" lon="-118.3939034">
  <ele>-0.111</ele>
  <time>2026-09-02T22:07:25Z</time>
  <course>11.73</course>
  <speed>0.7184010022264724</speed>
  <fix>3d</fix>
</trkpt>
<trkpt lat="33.810282" lon="-118.3939033">
  <ele>-0.111</ele>
  <time>2026-09-02T22:07:25Z</time>
  <course>11.73</course>
  <speed>0.7184010022264724</speed>
  <fix>3d</fix>
</trkpt>
<trkpt lat="33.8102821" lon="-118.3939033">
  <ele>-0.11</ele>
  <time>2026-09-02T22:07:25Z</time>
  <course>11.73</course>
  <speed>0.7184010022264724</speed>
  <fix>3d</fix>
</trkpt>
<trkpt lat="33.8102821" lon="-118.3939032">
  <ele>-0.11</ele>
  <time>2026-09-02T22:07:25Z</time>
  <course>11.74</course>
  <speed>0.7184010022264724</speed>
  <fix>3d</fix>
</trkpt>
<trkpt lat="33.8102821" lon="-118.3939032">
  <ele>-0.11</ele>
  <time>2026-09-02T22:07:25Z</time>
  <course>11.74</course>
  <speed>0.7184010022264724</speed>
  <fix>3d</fix>
</trkpt>
<trkpt lat="33.8102822" lon="-118.3939031">
  <ele>-0.11</ele>
  <time>2026-09-02T22:07:25Z</time>
  <course>11.74</course>
  <speed>0.7184010022264724</speed>
  <fix>3d</fix>
</trkpt>
<trkpt lat="33.8102822" lon="-118.393903">
  <ele>-0.11</ele>
  <time>2026-09-02T22:07:25Z</time>
  <course>11.74</course>
  <speed>0.7184010022264724</speed>
  <fix>3d</fix>
</trkpt>
<trkpt lat="33.8102823" lon="-118.393903">
  <ele>-0.11</ele>
  <time>2026-09-02T22:07:25Z</time>
  <course>11.74</course>
  <speed>0.7184010022264724</speed>
  <fix>3d</fix>
</trkpt>
<trkpt lat="33.8102823" lon="-118.3939029">
  <ele>-0.109</ele>
  <time>2026-09-02T22:07:25Z</time>
  <course>11.74</course>
  <speed>0.7184010022264724</speed>
  <fix>3d</fix>
</trkpt>
<trkpt lat="33.8102823" lon="-118.3939029">
  <ele>-0.109</ele>
  <time>2026-09-02T22:07:25Z</time>
  <course>11.74</course>
  <speed>0.7184010022264724</speed>
  <fix>3d</fix>
</trkpt>
<trkpt lat="33.810282" lon="-118.3939039">
  <ele>-0.1</ele>
  <time>2026-09-02T22:07:25Z</time>
  <course>48.52</course>
  <speed>0.73</speed>
  <fix>3d</fix>
</trkpt>
<trkpt lat="33.8102824" lon="-118.3939029">
  <ele>-0.109</ele>
  <time>2026-09-02T22:07:25Z</time>
  <course>11.74</course>
  <speed>0.7184010022264724</speed>
  <fix>3d</fix>
</trkpt>
<trkpt lat="33.8102824" lon="-118.3939028">
  <ele>-0.109</ele>
  <time>2026-09-02T22:07:25Z</time>
  <course>11.74</course>
  <speed>0.7184010022264724</speed>
  <fix>3d</fix>
</trkpt>
<trkpt lat="33.8102825" lon="-118.3939028">
  <ele>-0.109</ele>
  <time>2026-09-02T22:07:25Z</time>
  <course>11.74</course>
  <speed>0.7184010022264724</speed>
  <fix>3d</fix>
</trkpt>
<trkpt lat="33.8102825" lon="-118.3939027">
  <ele>-0.109</ele>
  <time>2026-09-02T22:07:25Z</time>
  <course>11.74</course>
  <speed>0.7184010022264724</speed>
  <fix>3d</fix>
</trkpt>
<trkpt lat="33.8102825" lon="-118.3939027">
  <ele>-0.109</ele>
  <time>2026-09-02T22:07:25Z</time>
  <course>11.74</course>
  <speed>0.7184010022264724</speed>
  <fix>3d</fix>
</trkpt>
<trkpt lat="33.8102826" lon="-118.3939026">
  <ele>-0.109</ele>
  <time>2026-09-02T22:07:25Z</time>
  <course>11.74</course>
  <speed>0.7184010022264724</speed>
  <fix>3d</fix>
</trkpt>
<trkpt lat="33.8102826" lon="-118.3939025">
  <ele>-0.109</ele>
  <time>2026-09-02T22:07:25Z</time>
  <course>11.74</course>
  <speed>0.7184010022264724</speed>
  <fix>3d</fix>
</trkpt>
<trkpt lat="33.8102826" lon="-118.3939025">
  <ele>-0.109</ele>
  <time>2026-09-02T22:07:25Z</time>
  <course>11.74</course>
  <speed>0.7184010022264724</speed>
  <fix>3d</fix>
</trkpt>
<trkpt lat="33.8102827" lon="-118.3939024">
  <ele>-0.109</ele>
  <time>2026-09-02T22:07:25Z</time>
  <course>11.74</course>
  <speed>0.7184010022264724</speed>
  <fix>3d</fix>
</trkpt>
<trkpt lat="33.8102827" lon="-118.3939024">
  <ele>-0.109</ele>
  <time>2026-09-02T22:07:25Z</time>
  <course>11.74</course>
  <speed>0.7184010022264724</speed>
  <fix>3d</fix>
</trkpt>
<trkpt lat="33.8102828" lon="-118.3939023">
  <ele>-0.109</ele>
  <time>2026-09-02T22:07:25Z</time>
  <course>11.74</course>
  <speed>0.7184010022264724</speed>
  <fix>3d</fix>
</trkpt>
<trkpt lat="33.8102828" lon="-118.3939023">
  <ele>-0.109</ele>
  <time>2026-09-02T22:07:25Z</time>
  <course>11.74</course>
  <speed>0.7184010022264724</speed>
  <fix>3d</fix>
</trkpt>
<trkpt lat="33.810282" lon="-118.3939039">
  <ele>-0.1</ele>
  <time>2026-09-02T22:07:25Z</time>
  <course>48.52</course>
  <speed>0.73</speed>
  <fix>3d</fix>
</trkpt>
<trkpt lat="33.8102828" lon="-118.3939023">
  <ele>-0.109</ele>
  <time>2026-09-02T22:07:25Z</time>
  <course>11.74</course>
  <speed>0.7184010022264724</speed>
  <fix>3d</fix>
</trkpt>
<trkpt lat="33.8102829" lon="-118.3939022">
  <ele>-0.109</ele>
  <time>2026-09-02T22:07:25Z</time>
  <course>11.74</course>
  <speed>0.7184010022264724</speed>
  <fix>3d</fix>
</trkpt>
<trkpt lat="33.8102829" lon="-118.3939022">
  <ele>-0.109</ele>
  <time>2026-09-02T22:07:25Z</time>
  <course>11.74</course>
  <speed>0.7184010022264724</speed>
  <fix>3d</fix>
</trkpt>
<trkpt lat="33.8102829" lon="-118.3939021">
  <ele>-0.108</ele>
  <time>2026-09-02T22:07:25Z</time>
  <course>11.74</course>
  <speed>0.7184010022264724</speed>
  <fix>3d</fix>
</trkpt>
<trkpt lat="33.810283" lon="-118.3939021">
  <ele>-0.108</ele>
  <time>2026-09-02T22:07:25Z</time>
  <course>11.74</course>
  <speed>0.7184010022264724</speed>
  <fix>3d</fix>
</trkpt>
<trkpt lat="33.810283" lon="-118.393902">
  <ele>-0.108</ele>
  <time>2026-09-02T22:07:25Z</time>
  <course>11.74</course>
  <speed>0.7184010022264724</speed>
  <fix>3d</fix>
</trkpt>
<trkpt lat="33.810283" lon="-118.393902">
  <ele>-0.108</ele>
  <time>2026-09-02T22:07:25Z</time>
  <course>11.74</course>
  <speed>0.7184010022264724</speed>
  <fix>3d</fix>
</trkpt>
<trkpt lat="33.8102831" lon="-118.3939019">
  <ele>-0.108</ele>
  <time>2026-09-02T22:07:25Z</time>
  <course>11.74</course>
  <speed>0.7184010022264724</speed>
  <fix>3d</fix>
</trkpt>
<trkpt lat="33.8102831" lon="-118.3939019">
  <ele>-0.108</ele>
  <time>2026-09-02T22:07:25Z</time>
  <course>11.74</course>
  <speed>0.7184010022264724</speed>
  <fix>3d</fix>
</trkpt>
<trkpt lat="33.8102831" lon="-118.3939018">
  <ele>-0.108</ele>
  <time>2026-09-02T22:07:25Z</time>
  <course>11.74</course>
  <speed>0.7184010022264724</speed>
  <fix>3d</fix>
</trkpt>
<trkpt lat="33.8102832" lon="-118.3939018">
  <ele>-0.108</ele>
  <time>2026-09-02T22:07:25Z</time>
  <course>11.74</course>
  <speed>0.7184010022264724</speed>
  <fix>3d</fix>
</trkpt>
<trkpt lat="33.8102832" lon="-118.3939017">
  <ele>-0.108</ele>
  <time>2026-09-02T22:07:25Z</time>
  <course>11.75</course>
  <speed>0.7184010022264724</speed>
  <fix>3d</fix>
</trkpt>
<trkpt lat="33.8102832" lon="-118.3939017">
  <ele>-0.108</ele>
  <time>2026-09-02T22:07:25Z</time>
  <course>11.75</course>
  <speed>0.7184010022264724</speed>
  <fix>3d</fix>
</trkpt>
<trkpt lat="33.8102829" lon="-118.3939027">
  <ele>-0.1</ele>
  <time>2026-09-02T22:07:25Z</time>
  <course>48.53</course>
  <speed>0.73</speed>
  <fix>3d</fix>
</trkpt>
<trkpt lat="33.8102833" lon="-118.3939016">
  <ele>-0.108</ele>
  <time>2026-09-02T22:07:25Z</time>
  <course>11.75</course>
  <speed>0.7184010022264724</speed>
  <fix>3d</fix>
</trkpt>
<trkpt lat="33.8102833" lon="-118.3939016">
  <ele>-0.108</ele>
  <time>2026-09-02T22:07:25Z</time>
  <course>11.75</course>
  <speed>0.7184010022264724</speed>
  <fix>3d</fix>
</trkpt>
<trkpt lat="33.8102834" lon="-118.3939015">
  <ele>-0.108</ele>
  <time>2026-09-02T22:07:25Z</time>
  <course>11.75</course>
  <speed>0.7184010022264724</speed>
  <fix>3d</fix>
</trkpt>
<trkpt lat="33.8102834" lon="-118.3939015">
  <ele>-0.108</ele>
  <time>2026-09-02T22:07:25Z</time>
  <course>11.75</course>
  <speed>0.7184010022264724</speed>
  <fix>3d</fix>
</trkpt>
<trkpt lat="33.8102834" lon="-118.3939014">
  <ele>-0.108</ele>
  <time>2026-09-02T22:07:25Z</time>
  <course>11.75</course>
  <speed>0.7184010022264724</speed>
  <fix>3d</fix>
</trkpt>
<trkpt lat="33.8102835" lon="-118.3939013">
  <ele>-0.108</ele>
  <time>2026-09-02T22:07:25Z</time>
  <course>11.75</course>
  <speed>0.7184010022264724</speed>
  <fix>3d</fix>
</trkpt>
<trkpt lat="33.8102835" lon="-118.3939013">
  <ele>-0.108</ele>
  <time>2026-09-02T22:07:25Z</time>
  <course>11.75</course>
  <speed>0.7184010022264724</speed>
  <fix>3d</fix>
</trkpt>
<trkpt lat="33.8102836" lon="-118.3939013">
  <ele>-0.108</ele>
  <time>2026-09-02T22:07:25Z</time>
  <course>11.75</course>
  <speed>0.7184010022264724</speed>
  <fix>3d</fix>
</trkpt>
<trkpt lat="33.8102836" lon="-118.3939012">
  <ele>-0.108</ele>
  <time>2026-09-02T22:07:25Z</time>
  <course>11.75</course>
  <speed>0.7184010022264724</speed>
  <fix>3d</fix>
</trkpt>
<trkpt lat="33.8102836" lon="-118.3939012">
  <ele>-0.108</ele>
  <time>2026-09-02T22:07:25Z</time>
  <course>11.75</course>
  <speed>0.7184010022264724</speed>
  <fix>3d</fix>
</trkpt>
<trkpt lat="33.8102837" lon="-118.3939011">
  <ele>-0.108</ele>
  <time>2026-09-02T22:07:25Z</time>
  <course>11.75</course>
  <speed>0.7184010022264724</speed>
  <fix>3d</fix>
</trkpt>
<trkpt lat="33.8102837" lon="-118.3939011">
  <ele>-0.108</ele>
  <time>2026-09-02T22:07:25Z</time>
  <course>11.75</course>
  <speed>0.7184010022264724</speed>
  <fix>3d</fix>
</trkpt>
<trkpt lat="33.8102829" lon="-118.3939027">
  <ele>-0.1</ele>
  <time>2026-09-02T22:07:25Z</time>
  <course>48.53</course>
  <speed>0.73</speed>
  <fix>3d</fix>
</trkpt>
<trkpt lat="33.8102837" lon="-118.393901">
  <ele>-0.108</ele>
  <time>2026-09-02T22:07:25Z</time>
  <course>11.75</course>
  <speed>0.7184010022264724</speed>
  <fix>3d</fix>
</trkpt>
<trkpt lat="33.8102838" lon="-118.3939009">
  <ele>-0.108</ele>
  <time>2026-09-02T22:07:25Z</time>
  <course>11.75</course>
  <speed>0.7184010022264724</speed>
  <fix>3d</fix>
</trkpt>
<trkpt lat="33.8102838" lon="-118.3939009">
  <ele>-0.108</ele>
  <time>2026-09-02T22:07:25Z</time>
  <course>11.75</course>
  <speed>0.7184010022264724</speed>
  <fix>3d</fix>
</trkpt>
<trkpt lat="33.8102839" lon="-118.3939008">
  <ele>-0.108</ele>
  <time>2026-09-02T22:07:25Z</time>
  <course>11.75</course>
  <speed>0.7184010022264724</speed>
  <fix>3d</fix>
</trkpt>
<trkpt lat="33.8102839" lon="-118.3939008">
  <ele>-0.108</ele>
  <time>2026-09-02T22:07:25Z</time>
  <course>11.75</course>
  <speed>0.7184010022264724</speed>
  <fix>3d</fix>
</trkpt>
<trkpt lat="33.8102839" lon="-118.3939007">
  <ele>-0.108</ele>
  <time>2026-09-02T22:07:25Z</time>
  <course>11.75</course>
  <speed>0.7184010022264724</speed>
  <fix>3d</fix>
</trkpt>
<trkpt lat="33.810284" lon="-118.3939007">
  <ele>-0.108</ele>
  <time>2026-09-02T22:07:25Z</time>
  <course>11.75</course>
  <speed>0.7184010022264724</speed>
  <fix>3d</fix>
</trkpt>
<trkpt lat="33.810284" lon="-118.3939006">
  <ele>-0.108</ele>
  <time>2026-09-02T22:07:25Z</time>
  <course>11.75</course>
  <speed>0.7184010022264724</speed>
  <fix>3d</fix>
</trkpt>
<trkpt lat="33.8102841" lon="-118.3939006">
  <ele>-0.108</ele>
  <time>2026-09-02T22:07:25Z</time>
  <course>11.75</course>
  <speed>0.7184010022264724</speed>
  <fix>3d</fix>
</trkpt>
<trkpt lat="33.8102841" lon="-118.3939005">
  <ele>-0.108</ele>
  <time>2026-09-02T22:07:25Z</time>
  <course>11.75</course>
  <speed>0.7184010022264724</speed>
  <fix>3d</fix>
</trkpt>
<trkpt lat="33.8102841" lon="-118.3939005">
  <ele>-0.108</ele>
  <time>2026-09-02T22:07:25Z</time>
  <course>11.75</course>
  <speed>0.7184010022264724</speed>
  <fix>3d</fix>
</trkpt>
<trkpt lat="33.8102837" lon="-118.3939016">
  <ele>-0.1</ele>
  <time>2026-09-02T22:07:25Z</time>
  <course>48.54</course>
  <speed>0.73</speed>
  <fix>3d</fix>
</trkpt>
<trkpt lat="33.8102842" lon="-118.3939004">
  <ele>-0.108</ele>
  <time>2026-09-02T22:07:25Z</time>
  <course>11.75</course>
  <speed>0.7184010022264724</speed>
  <fix>3d</fix>
</trkpt>
<trkpt lat="33.8102842" lon="-118.3939003">
  <ele>-0.108</ele>
  <time>2026-09-02T22:07:25Z</time>
  <course>11.75</course>
  <speed>0.7184010022264724</speed>
  <fix>3d</fix>
</trkpt>
<trkpt lat="33.8102843" lon="-118.3939003">
  <ele>-0.108</ele>
  <time>2026-09-02T22:07:25Z</time>
  <course>11.76</course>
  <speed>0.7184010022264724</speed>
  <fix>3d</fix>
</trkpt>
<trkpt lat="33.8102843" lon="-118.3939002">
  <ele>-0.108</ele>
  <time>2026-09-02T22:07:25Z</time>
  <course>11.76</course>
  <speed>0.7184010022264724</speed>
  <fix>3d</fix>
</trkpt>
<trkpt lat="33.8102844" lon="-118.3939002">
  <ele>-0.108</ele>
  <time>2026-09-02T22:07:25Z</time>
  <course>11.76</course>
  <speed>0.7184010022264724</speed>
  <fix>3d</fix>
</trkpt>
<trkpt lat="33.8102844" lon="-118.3939001">
  <ele>-0.108</ele>
  <time>2026-09-02T22:07:25Z</time>
  <course>11.76</course>
  <speed>0.7184010022264724</speed>
  <fix>3d</fix>
</trkpt>
<trkpt lat="33.8102844" lon="-118.3939001">
  <ele>-0.108</ele>
  <time>2026-09-02T22:07:25Z</time>
  <course>11.76</course>
  <speed>0.7184010022264724</speed>
  <fix>3d</fix>
</trkpt>
<trkpt lat="33.8102845" lon="-118.3939">
  <ele>-0.108</ele>
  <time>2026-09-02T22:07:25Z</time>
  <course>11.76</course>
  <speed>0.7184010022264724</speed>
  <fix>3d</fix>
</trkpt>
<trkpt lat="33.8102845" lon="-118.3939">
  <ele>-0.109</ele>
  <time>2026-09-02T22:07:25Z</time>
  <course>11.76</course>
  <speed>0.7184010022264724</speed>
  <fix>3d</fix>
</trkpt>
<trkpt lat="33.8102845" lon="-118.3938999">
  <ele>-0.109</ele>
  <time>2026-09-02T22:07:25Z</time>
  <course>11.76</course>
  <speed>0.7184010022264724</speed>
  <fix>3d</fix>
</trkpt>
<trkpt lat="33.8102837" lon="-118.3939016">
  <ele>-0.1</ele>
  <time>2026-09-02T22:07:25Z</time>
  <course>48.54</course>
  <speed>0.73</speed>
  <fix>3d</fix>
</trkpt>
<trkpt lat="33.8102845" lon="-118.3938999">
  <ele>-0.109</ele>
  <time>2026-09-02T22:07:25Z</time>
  <course>11.76</course>
  <speed>0.7184010022264724</speed>
  <fix>3d</fix>
</trkpt>
<trkpt lat="33.8102846" lon="-118.3938998">
  <ele>-0.109</ele>
  <time>2026-09-02T22:07:25Z</time>
  <course>11.76</course>
  <speed>0.7184010022264724</speed>
  <fix>3d</fix>
</trkpt>
<trkpt lat="33.8102847" lon="-118.3938998">
  <ele>-0.109</ele>
  <time>2026-09-02T22:07:25Z</time>
  <course>11.76</course>
  <speed>0.7184010022264724</speed>
  <fix>3d</fix>
</trkpt>
<trkpt lat="33.8102847" lon="-118.3938997">
  <ele>-0.109</ele>
  <time>2026-09-02T22:07:25Z</time>
  <course>11.76</course>
  <speed>0.7184010022264724</speed>
  <fix>3d</fix>
</trkpt>
<trkpt lat="33.8102847" lon="-118.3938997">
  <ele>-0.109</ele>
  <time>2026-09-02T22:07:25Z</time>
  <course>11.76</course>
  <speed>0.7184010022264724</speed>
  <fix>3d</fix>
</trkpt>
<trkpt lat="33.8102848" lon="-118.3938996">
  <ele>-0.109</ele>
  <time>2026-09-02T22:07:25Z</time>
  <course>11.76</course>
  <speed>0.7184010022264724</speed>
  <fix>3d</fix>
</trkpt>
<trkpt lat="33.8102848" lon="-118.3938996">
  <ele>-0.109</ele>
  <time>2026-09-02T22:07:25Z</time>
  <course>11.76</course>
  <speed>0.7184010022264724</speed>
  <fix>3d</fix>
</trkpt>
<trkpt lat="33.8102848" lon="-118.3938995">
  <ele>-0.109</ele>
  <time>2026-09-02T22:07:25Z</time>
  <course>11.76</course>
  <speed>0.7184010022264724</speed>
  <fix>3d</fix>
</trkpt>
<trkpt lat="33.8102849" lon="-118.3938995">
  <ele>-0.109</ele>
  <time>2026-09-02T22:07:25Z</time>
  <course>11.76</course>
  <speed>0.7184010022264724</speed>
  <fix>3d</fix>
</trkpt>
<trkpt lat="33.8102849" lon="-118.3938994">
  <ele>-0.109</ele>
  <time>2026-09-02T22:07:25Z</time>
  <course>11.76</course>
  <speed>0.7184010022264724</speed>
  <fix>3d</fix>
</trkpt>
<trkpt lat="33.8102849" lon="-118.3938994">
  <ele>-0.109</ele>
  <time>2026-09-02T22:07:25Z</time>
  <course>11.76</course>
  <speed>0.7184010022264724</speed>
  <fix>3d</fix>
</trkpt>
<trkpt lat="33.810285" lon="-118.3938993">
  <ele>-0.109</ele>
  <time>2026-09-02T22:07:25Z</time>
  <course>11.76</course>
  <speed>0.7184010022264724</speed>
  <fix>3d</fix>
</trkpt>
<trkpt lat="33.8102846" lon="-118.3939004">
  <ele>-0.11</ele>
  <time>2026-09-02T22:07:25Z</time>
  <course>48.55</course>
  <speed>0.73</speed>
  <fix>3d</fix>
</trkpt>
<trkpt lat="33.810285" lon="-118.3938993">
  <ele>-0.109</ele>
  <time>2026-09-02T22:07:25Z</time>
  <course>11.76</course>
  <speed>0.7184010022264724</speed>
  <fix>3d</fix>
</trkpt>
<trkpt lat="33.810285" lon="-118.3938992">
  <ele>-0.109</ele>
  <time>2026-09-02T22:07:25Z</time>
  <course>11.76</course>
  <speed>0.7184010022264724</speed>
  <fix>3d</fix>
</trkpt>
<trkpt lat="33.8102851" lon="-118.3938992">
  <ele>-0.109</ele>
  <time>2026-09-02T22:07:25Z</time>
  <course>11.76</course>
  <speed>0.7184010022264724</speed>
  <fix>3d</fix>
</trkpt>
<trkpt lat="33.8102851" lon="-118.3938991">
  <ele>-0.109</ele>
  <time>2026-09-02T22:07:25Z</time>
  <course>11.76</course>
  <speed>0.7184010022264724</speed>
  <fix>3d</fix>
</trkpt>
<trkpt lat="33.8102852" lon="-118.3938991">
  <ele>-0.109</ele>
  <time>2026-09-02T22:07:25Z</time>
  <course>11.76</course>
  <speed>0.7184010022264724</speed>
  <fix>3d</fix>
</trkpt>
<trkpt lat="33.8102852" lon="-118.393899">
  <ele>-0.109</ele>
  <time>2026-09-02T22:07:25Z</time>
  <course>11.76</course>
  <speed>0.7184010022264724</speed>
  <fix>3d</fix>
</trkpt>
<trkpt lat="33.8102853" lon="-118.393899">
  <ele>-0.109</ele>
  <time>2026-09-02T22:07:25Z</time>
  <course>11.76</course>
  <speed>0.7184010022264724</speed>
  <fix>3d</fix>
</trkpt>
<trkpt lat="33.8102853" lon="-118.3938989">
  <ele>-0.109</ele>
  <time>2026-09-02T22:07:25Z</time>
  <course>11.76</course>
  <speed>0.7184010022264724</speed>
  <fix>3d</fix>
</trkpt>
<trkpt lat="33.8102853" lon="-118.3938989">
  <ele>-0.109</ele>
  <time>2026-09-02T22:07:25Z</time>
  <course>11.77</course>
  <speed>0.7184010022264724</speed>
  <fix>3d</fix>
</trkpt>
<trkpt lat="33.8102854" lon="-118.3938988">
  <ele>-0.109</ele>
  <time>2026-09-02T22:07:25Z</time>
  <course>11.77</course>
  <speed>0.7184010022264724</speed>
  <fix>3d</fix>
</trkpt>
<trkpt lat="33.8102854" lon="-118.3938988">
  <ele>-0.109</ele>
  <time>2026-09-02T22:07:25Z</time>
  <course>11.77</course>
  <speed>0.7184010022264724</speed>
  <fix>3d</fix>
</trkpt>
<trkpt lat="33.8102854" lon="-118.3938987">
  <ele>-0.109</ele>
  <time>2026-09-02T22:07:25Z</time>
  <course>11.77</course>
  <speed>0.7184010022264724</speed>
  <fix>3d</fix>
</trkpt>
<trkpt lat="33.8102846" lon="-118.3939004">
  <ele>-0.11</ele>
  <time>2026-09-02T22:07:25Z</time>
  <course>48.55</course>
  <speed>0.73</speed>
  <fix>3d</fix>
</trkpt>
<trkpt lat="33.8102854" lon="-118.3938987">
  <ele>-0.109</ele>
  <time>2026-09-02T22:07:25Z</time>
  <course>11.77</course>
  <speed>0.7184010022264724</speed>
  <fix>3d</fix>
</trkpt>
<trkpt lat="33.8102855" lon="-118.3938987">
  <ele>-0.109</ele>
  <time>2026-09-02T22:07:25Z</time>
  <course>11.77</course>
  <speed>0.7184010022264724</speed>
  <fix>3d</fix>
</trkpt>
<trkpt lat="33.8102855" lon="-118.3938986">
  <ele>-0.109</ele>
  <time>2026-09-02T22:07:25Z</time>
  <course>11.77</course>
  <speed>0.7184010022264724</speed>
  <fix>3d</fix>
</trkpt>
<trkpt lat="33.8102855" lon="-118.3938985">
  <ele>-0.109</ele>
  <time>2026-09-02T22:07:25Z</time>
  <course>11.77</course>
  <speed>0.7184010022264724</speed>
  <fix>3d</fix>
</trkpt>
<trkpt lat="33.8102856" lon="-118.3938985">
  <ele>-0.109</ele>
  <time>2026-09-02T22:07:25Z</time>
  <course>11.77</course>
  <speed>0.7184010022264724</speed>
  <fix>3d</fix>
</trkpt>
<trkpt lat="33.8102856" lon="-118.3938984">
  <ele>-0.109</ele>
  <time>2026-09-02T22:07:25Z</time>
  <course>11.77</course>
  <speed>0.7184010022264724</speed>
  <fix>3d</fix>
</trkpt>
<trkpt lat="33.8102857" lon="-118.3938984">
  <ele>-0.109</ele>
  <time>2026-09-02T22:07:25Z</time>
  <course>11.77</course>
  <speed>0.7184010022264724</speed>
  <fix>3d</fix>
</trkpt>
<trkpt lat="33.8102857" lon="-118.3938984">
  <ele>-0.109</ele>
  <time>2026-09-02T22:07:25Z</time>
  <course>11.77</course>
  <speed>0.7184010022264724</speed>
  <fix>3d</fix>
</trkpt>
<trkpt lat="33.8102857" lon="-118.3938983">
  <ele>-0.109</ele>
  <time>2026-09-02T22:07:25Z</time>
  <course>11.77</course>
  <speed>0.7184010022264724</speed>
  <fix>3d</fix>
</trkpt>
<trkpt lat="33.8102858" lon="-118.3938983">
  <ele>-0.109</ele>
  <time>2026-09-02T22:07:25Z</time>
  <course>11.77</course>
  <speed>0.7184010022264724</speed>
  <fix>3d</fix>
</trkpt>
<trkpt lat="33.8102858" lon="-118.3938982">
  <ele>-0.109</ele>
  <time>2026-09-02T22:07:25Z</time>
  <course>11.77</course>
  <speed>0.7184010022264724</speed>
  <fix>3d</fix>
</trkpt>
<trkpt lat="33.8102858" lon="-118.3938982">
  <ele>-0.109</ele>
  <time>2026-09-02T22:07:25Z</time>
  <course>11.77</course>
  <speed>0.7184010022264724</speed>
  <fix>3d</fix>
</trkpt>
<trkpt lat="33.8102858" lon="-118.3938981">
  <ele>-0.109</ele>
  <time>2026-09-02T22:07:25Z</time>
  <course>11.77</course>
  <speed>0.7184010022264724</speed>
  <fix>3d</fix>
</trkpt>
<trkpt lat="33.8102855" lon="-118.3938992">
  <ele>-0.1</ele>
  <time>2026-09-02T22:07:25Z</time>
  <course>48.56</course>
  <speed>0.73</speed>
  <fix>3d</fix>
</trkpt>
<trkpt lat="33.8102859" lon="-118.3938981">
  <ele>-0.109</ele>
  <time>2026-09-02T22:07:25Z</time>
  <course>11.77</course>
  <speed>0.7184010022264724</speed>
  <fix>3d</fix>
</trkpt>
<trkpt lat="33.8102859" lon="-118.3938981">
  <ele>-0.109</ele>
  <time>2026-09-02T22:07:25Z</time>
  <course>11.77</course>
  <speed>0.7184010022264724</speed>
  <fix>3d</fix>
</trkpt>
<trkpt lat="33.8102859" lon="-118.393898">
  <ele>-0.109</ele>
  <time>2026-09-02T22:07:25Z</time>
  <course>11.77</course>
  <speed>0.7184010022264724</speed>
  <fix>3d</fix>
</trkpt>
<trkpt lat="33.810286" lon="-118.393898">
  <ele>-0.109</ele>
  <time>2026-09-02T22:07:25Z</time>
  <course>11.77</course>
  <speed>0.7184010022264724</speed>
  <fix>3d</fix>
</trkpt>
<trkpt lat="33.810286" lon="-118.3938979">
  <ele>-0.109</ele>
  <time>2026-09-02T22:07:25Z</time>
  <course>11.77</course>
  <speed>0.7184010022264724</speed>
  <fix>3d</fix>
</trkpt>
<trkpt lat="33.8102861" lon="-118.3938979">
  <ele>-0.109</ele>
  <time>2026-09-02T22:07:25Z</time>
  <course>11.77</course>
  <speed>0.7184010022264724</speed>
  <fix>3d</fix>
</trkpt>
<trkpt lat="33.8102861" lon="-118.3938978">
  <ele>-0.109</ele>
  <time>2026-09-02T22:07:25Z</time>
  <course>11.77</course>
  <speed>0.7184010022264724</speed>
  <fix>3d</fix>
</trkpt>
<trkpt lat="33.8102862" lon="-118.3938977">
  <ele>-0.109</ele>
  <time>2026-09-02T22:07:25Z</time>
  <course>11.77</course>
  <speed>0.7184010022264724</speed>
  <fix>3d</fix>
</trkpt>
<trkpt lat="33.8102862" lon="-118.3938977">
  <ele>-0.109</ele>
  <time>2026-09-02T22:07:25Z</time>
  <course>11.77</course>
  <speed>0.7184010022264724</speed>
  <fix>3d</fix>
</trkpt>
<trkpt lat="33.8102862" lon="-118.3938976">
  <ele>-0.109</ele>
  <time>2026-09-02T22:07:25Z</time>
  <course>11.77</course>
  <speed>0.7184010022264724</speed>
  <fix>3d</fix>
</trkpt>
<trkpt lat="33.8102863" lon="-118.3938976">
  <ele>-0.108</ele>
  <time>2026-09-02T22:07:25Z</time>
  <course>11.77</course>
  <speed>0.7184010022264724</speed>
  <fix>3d</fix>
</trkpt>
<trkpt lat="33.8102863" lon="-118.3938976">
  <ele>-0.108</ele>
  <time>2026-09-02T22:07:25Z</time>
  <course>11.77</course>
  <speed>0.7184010022264724</speed>
  <fix>3d</fix>
</trkpt>
<trkpt lat="33.8102855" lon="-118.3938992">
  <ele>-0.1</ele>
  <time>2026-09-02T22:07:25Z</time>
  <course>48.56</course>
  <speed>0.73</speed>
  <fix>3d</fix>
</trkpt>
<trkpt lat="33.8102863" lon="-118.3938975">
  <ele>-0.108</ele>
  <time>2026-09-02T22:07:25Z</time>
  <course>11.77</course>
  <speed>0.7184010022264724</speed>
  <fix>3d</fix>
</trkpt>
<trkpt lat="33.8102863" lon="-118.3938975">
  <ele>-0.108</ele>
  <time>2026-09-02T22:07:25Z</time>
  <course>11.77</course>
  <speed>0.7184010022264724</speed>
  <fix>3d</fix>
</trkpt>
<trkpt lat="33.8102864" lon="-118.3938974">
  <ele>-0.108</ele>
  <time>2026-09-02T22:07:25Z</time>
  <course>11.77</course>
  <speed>0.7184010022264724</speed>
  <fix>3d</fix>
</trkpt>
<trkpt lat="33.8102864" lon="-118.3938974">
  <ele>-0.108</ele>
  <time>2026-09-02T22:07:25Z</time>
  <course>11.78</course>
  <speed>0.7184010022264724</speed>
  <fix>3d</fix>
</trkpt>
<trkpt lat="33.8102865" lon="-118.3938973">
  <ele>-0.108</ele>
  <time>2026-09-02T22:07:25Z</time>
  <course>11.78</course>
  <speed>0.7184010022264724</speed>
  <fix>3d</fix>
</trkpt>
<trkpt lat="33.8102865" lon="-118.3938972">
  <ele>-0.108</ele>
  <time>2026-09-02T22:07:25Z</time>
  <course>11.78</course>
  <speed>0.7184010022264724</speed>
  <fix>3d</fix>
</trkpt>
<trkpt lat="33.8102865" lon="-118.3938972">
  <ele>-0.108</ele>
  <time>2026-09-02T22:07:25Z</time>
  <course>11.78</course>
  <speed>0.7184010022264724</speed>
  <fix>3d</fix>
</trkpt>
<trkpt lat="33.8102866" lon="-118.3938972">
  <ele>-0.108</ele>
  <time>2026-09-02T22:07:25Z</time>
  <course>11.78</course>
  <speed>0.7184010022264724</speed>
  <fix>3d</fix>
</trkpt>
<trkpt lat="33.8102866" lon="-118.3938971">
  <ele>-0.108</ele>
  <time>2026-09-02T22:07:25Z</time>
  <course>11.78</course>
  <speed>0.7184010022264724</speed>
  <fix>3d</fix>
</trkpt>
<trkpt lat="33.8102866" lon="-118.3938971">
  <ele>-0.108</ele>
  <time>2026-09-02T22:07:25Z</time>
  <course>11.78</course>
  <speed>0.7184010022264724</speed>
  <fix>3d</fix>
</trkpt>
<trkpt lat="33.8102867" lon="-118.393897">
  <ele>-0.108</ele>
  <time>2026-09-02T22:07:25Z</time>
  <course>11.78</course>
  <speed>0.7184010022264724</speed>
  <fix>3d</fix>
</trkpt>
<trkpt lat="33.8102867" lon="-118.393897">
  <ele>-0.108</ele>
  <time>2026-09-02T22:07:25Z</time>
  <course>11.78</course>
  <speed>0.7184010022264724</speed>
  <fix>3d</fix>
</trkpt>
<trkpt lat="33.8102867" lon="-118.393897">
  <ele>-0.108</ele>
  <time>2026-09-02T22:07:25Z</time>
  <course>11.78</course>
  <speed>0.7184010022264724</speed>
  <fix>3d</fix>
</trkpt>
<trkpt lat="33.8102863" lon="-118.393898">
  <ele>-0.1</ele>
  <time>2026-09-02T22:07:25Z</time>
  <course>48.56</course>
  <speed>0.73</speed>
  <fix>3d</fix>
</trkpt>
<trkpt lat="33.8102867" lon="-118.393897">
  <ele>-0.108</ele>
  <time>2026-09-02T22:07:25Z</time>
  <course>11.78</course>
  <speed>0.7184010022264724</speed>
  <fix>3d</fix>
</trkpt>
<trkpt lat="33.8102869" lon="-118.3938968">
  <ele>-0.108</ele>
  <time>2026-09-02T22:07:25Z</time>
  <course>11.78</course>
  <speed>0.7184010022264724</speed>
  <fix>3d</fix>
</trkpt>
<trkpt lat="33.8102869" lon="-118.3938967">
  <ele>-0.108</ele>
  <time>2026-09-02T22:07:25Z</time>
  <course>11.78</course>
  <speed>0.7184010022264724</speed>
  <fix>3d</fix>
</trkpt>
<trkpt lat="33.810287" lon="-118.3938966">
  <ele>-0.108</ele>
  <time>2026-09-02T22:07:25Z</time>
  <course>11.78</course>
  <speed>0.7184010022264724</speed>
  <fix>3d</fix>
</trkpt>
<trkpt lat="33.810287" lon="-118.3938966">
  <ele>-0.108</ele>
  <time>2026-09-02T22:07:25Z</time>
  <course>11.78</course>
  <speed>0.7184010022264724</speed>
  <fix>3d</fix>
</trkpt>
<trkpt lat="33.8102871" lon="-118.3938965">
  <ele>-0.108</ele>
  <time>2026-09-02T22:07:25Z</time>
  <course>11.78</course>
  <speed>0.7184010022264724</speed>
  <fix>3d</fix>
</trkpt>
<trkpt lat="33.8102871" lon="-118.3938964">
  <ele>-0.108</ele>
  <time>2026-09-02T22:07:25Z</time>
  <course>11.78</course>
  <speed>0.7184010022264724</speed>
  <fix>3d</fix>
</trkpt>
<trkpt lat="33.8102871" lon="-118.3938964">
  <ele>-0.108</ele>
  <time>2026-09-02T22:07:25Z</time>
  <course>11.78</course>
  <speed>0.7184010022264724</speed>
  <fix>3d</fix>
</trkpt>
<trkpt lat="33.8102872" lon="-118.3938964">
  <ele>-0.108</ele>
  <time>2026-09-02T22:07:25Z</time>
  <course>11.78</course>
  <speed>0.7184010022264724</speed>
  <fix>3d</fix>
</trkpt>
<trkpt lat="33.8102863" lon="-118.393898">
  <ele>-0.1</ele>
  <time>2026-09-02T22:07:25Z</time>
  <course>48.56</course>
  <speed>0.73</speed>
  <fix>3d</fix>
</trkpt>
<trkpt lat="33.8102872" lon="-118.3938964">
  <ele>-0.108</ele>
  <time>2026-09-02T22:07:25Z</time>
  <course>11.78</course>
  <speed>0.7184010022264724</speed>
  <fix>3d</fix>
</trkpt>
<trkpt lat="33.8102873" lon="-118.3938962">
  <ele>-0.107</ele>
  <time>2026-09-02T22:07:25Z</time>
  <course>11.78</course>
  <speed>0.7184010022264724</speed>
  <fix>3d</fix>
</trkpt>
<trkpt lat="33.8102873" lon="-118.3938962">
  <ele>-0.107</ele>
  <time>2026-09-02T22:07:25Z</time>
  <course>11.78</course>
  <speed>0.7184010022264724</speed>
  <fix>3d</fix>
</trkpt>
<trkpt lat="33.8102873" lon="-118.3938961">
  <ele>-0.107</ele>
  <time>2026-09-02T22:07:25Z</time>
  <course>11.78</course>
  <speed>0.7184010022264724</speed>
  <fix>3d</fix>
</trkpt>
<trkpt lat="33.8102874" lon="-118.3938961">
  <ele>-0.107</ele>
  <time>2026-09-02T22:07:25Z</time>
  <course>11.78</course>
  <speed>0.7184010022264724</speed>
  <fix>3d</fix>
</trkpt>
<trkpt lat="33.8102874" lon="-118.393896">
  <ele>-0.107</ele>
  <time>2026-09-02T22:07:25Z</time>
  <course>11.78</course>
  <speed>0.7184010022264724</speed>
  <fix>3d</fix>
</trkpt>
<trkpt lat="33.8102875" lon="-118.3938959">
  <ele>-0.107</ele>
  <time>2026-09-02T22:07:25Z</time>
  <course>11.78</course>
  <speed>0.7184010022264724</speed>
  <fix>3d</fix>
</trkpt>
<trkpt lat="33.8102876" lon="-118.3938958">
  <ele>-0.107</ele>
  <time>2026-09-02T22:07:25Z</time>
  <course>11.78</course>
  <speed>0.7184010022264724</speed>
  <fix>3d</fix>
</trkpt>
<trkpt lat="33.8102876" lon="-118.3938958">
  <ele>-0.107</ele>
  <time>2026-09-02T22:07:25Z</time>
  <course>11.79</course>
  <speed>0.7184010022264724</speed>
  <fix>3d</fix>
</trkpt>
<trkpt lat="33.8102872" lon="-118.3938968">
  <ele>-0.1</ele>
  <time>2026-09-02T22:07:25Z</time>
  <course>48.57</course>
  <speed>0.73</speed>
  <fix>3d</fix>
</trkpt>
<trkpt lat="33.8102876" lon="-118.3938958">
  <ele>-0.107</ele>
  <time>2026-09-02T22:07:25Z</time>
  <course>11.79</course>
  <speed>0.7184010022264724</speed>
  <fix>3d</fix>
</trkpt>
<trkpt lat="33.8102877" lon="-118.3938957">
  <ele>-0.107</ele>
  <time>2026-09-02T22:07:25Z</time>
  <course>11.79</course>
  <speed>0.7184010022264724</speed>
  <fix>3d</fix>
</trkpt>
<trkpt lat="33.8102877" lon="-118.3938956">
  <ele>-0.107</ele>
  <time>2026-09-02T22:07:25Z</time>
  <course>11.79</course>
  <speed>0.7184010022264724</speed>
  <fix>3d</fix>
</trkpt>
<trkpt lat="33.8102878" lon="-118.3938956">
  <ele>-0.107</ele>
  <time>2026-09-02T22:07:25Z</time>
  <course>11.79</course>
  <speed>0.7184010022264724</speed>
  <fix>3d</fix>
</trkpt>
<trkpt lat="33.8102878" lon="-118.3938955">
  <ele>-0.107</ele>
  <time>2026-09-02T22:07:25Z</time>
  <course>11.79</course>
  <speed>0.7184010022264724</speed>
  <fix>3d</fix>
</trkpt>
<trkpt lat="33.8102878" lon="-118.3938955">
  <ele>-0.107</ele>
  <time>2026-09-02T22:07:25Z</time>
  <course>11.79</course>
  <speed>0.7184010022264724</speed>
  <fix>3d</fix>
</trkpt>
<trkpt lat="33.8102879" lon="-118.3938954">
  <ele>-0.107</ele>
  <time>2026-09-02T22:07:25Z</time>
  <course>11.79</course>
  <speed>0.7184010022264724</speed>
  <fix>3d</fix>
</trkpt>
<trkpt lat="33.8102879" lon="-118.3938954">
  <ele>-0.107</ele>
  <time>2026-09-02T22:07:25Z</time>
  <course>11.79</course>
  <speed>0.7184010022264724</speed>
  <fix>3d</fix>
</trkpt>
<trkpt lat="33.8102879" lon="-118.3938953">
  <ele>-0.107</ele>
  <time>2026-09-02T22:07:25Z</time>
  <course>11.79</course>
  <speed>0.7184010022264724</speed>
  <fix>3d</fix>
</trkpt>
<trkpt lat="33.810288" lon="-118.3938952">
  <ele>-0.108</ele>
  <time>2026-09-02T22:07:25Z</time>
  <course>11.79</course>
  <speed>0.7184010022264724</speed>
  <fix>3d</fix>
</trkpt>
<trkpt lat="33.810288" lon="-118.3938952">
  <ele>-0.108</ele>
  <time>2026-09-02T22:07:25Z</time>
  <course>11.79</course>
  <speed>0.7184010022264724</speed>
  <fix>3d</fix>
</trkpt>
<trkpt lat="33.810288" lon="-118.3938952">
  <ele>-0.108</ele>
  <time>2026-09-02T22:07:25Z</time>
  <course>11.79</course>
  <speed>0.7184010022264724</speed>
  <fix>3d</fix>
</trkpt>
<trkpt lat="33.8102872" lon="-118.3938968">
  <ele>-0.1</ele>
  <time>2026-09-02T22:07:25Z</time>
  <course>48.57</course>
  <speed>0.73</speed>
  <fix>3d</fix>
</trkpt>
<trkpt lat="33.8102881" lon="-118.3938951">
  <ele>-0.108</ele>
  <time>2026-09-02T22:07:25Z</time>
  <course>11.79</course>
  <speed>0.7184010022264724</speed>
  <fix>3d</fix>
</trkpt>
<trkpt lat="33.8102882" lon="-118.393895">
  <ele>-0.108</ele>
  <time>2026-09-02T22:07:25Z</time>
  <course>11.79</course>
  <speed>0.7184010022264724</speed>
  <fix>3d</fix>
</trkpt>
<trkpt lat="33.8102882" lon="-118.3938949">
  <ele>-0.108</ele>
  <time>2026-09-02T22:07:25Z</time>
  <course>11.79</course>
  <speed>0.7184010022264724</speed>
  <fix>3d</fix>
</trkpt>
<trkpt lat="33.8102883" lon="-118.3938949">
  <ele>-0.108</ele>
  <time>2026-09-02T22:07:25Z</time>
  <course>11.79</course>
  <speed>0.7184010022264724</speed>
  <fix>3d</fix>
</trkpt>
<trkpt lat="33.8102883" lon="-118.3938948">
  <ele>-0.108</ele>
  <time>2026-09-02T22:07:25Z</time>
  <course>11.79</course>
  <speed>0.7184010022264724</speed>
  <fix>3d</fix>
</trkpt>
<trkpt lat="33.8102883" lon="-118.3938947">
  <ele>-0.108</ele>
  <time>2026-09-02T22:07:25Z</time>
  <course>11.79</course>
  <speed>0.7184010022264724</speed>
  <fix>3d</fix>
</trkpt>
<trkpt lat="33.8102884" lon="-118.3938947">
  <ele>-0.108</ele>
  <time>2026-09-02T22:07:25Z</time>
  <course>11.79</course>
  <speed>0.7184010022264724</speed>
  <fix>3d</fix>
</trkpt>
<trkpt lat="33.8102884" lon="-118.3938947">
  <ele>-0.108</ele>
  <time>2026-09-02T22:07:25Z</time>
  <course>11.79</course>
  <speed>0.7184010022264724</speed>
  <fix>3d</fix>
</trkpt>
<trkpt lat="33.8102884" lon="-118.3938946">
  <ele>-0.108</ele>
  <time>2026-09-02T22:07:25Z</time>
  <course>11.79</course>
  <speed>0.7184010022264724</speed>
  <fix>3d</fix>
</trkpt>
<trkpt lat="33.8102885" lon="-118.3938946">
  <ele>-0.108</ele>
  <time>2026-09-02T22:07:25Z</time>
  <course>11.79</course>
  <speed>0.7184010022264724</speed>
  <fix>3d</fix>
</trkpt>
<trkpt lat="33.8102881" lon="-118.3938956">
  <ele>-0.1</ele>
  <time>2026-09-02T22:07:25Z</time>
  <course>48.58</course>
  <speed>0.73</speed>
  <fix>3d</fix>
</trkpt>
<trkpt lat="33.8102885" lon="-118.3938946">
  <ele>-0.108</ele>
  <time>2026-09-02T22:07:25Z</time>
  <course>11.79</course>
  <speed>0.7184010022264724</speed>
  <fix>3d</fix>
</trkpt>
<trkpt lat="33.8102885" lon="-118.3938945">
  <ele>-0.108</ele>
  <time>2026-09-02T22:07:25Z</time>
  <course>11.79</course>
  <speed>0.7184010022264724</speed>
  <fix>3d</fix>
</trkpt>
<trkpt lat="33.8102886" lon="-118.3938944">
  <ele>-0.108</ele>
  <time>2026-09-02T22:07:25Z</time>
  <course>11.79</course>
  <speed>0.7184010022264724</speed>
  <fix>3d</fix>
</trkpt>
<trkpt lat="33.8102886" lon="-118.3938944">
  <ele>-0.108</ele>
  <time>2026-09-02T22:07:25Z</time>
  <course>11.79</course>
  <speed>0.7184010022264724</speed>
  <fix>3d</fix>
</trkpt>
<trkpt lat="33.8102887" lon="-118.3938943">
  <ele>-0.109</ele>
  <time>2026-09-02T22:07:25Z</time>
  <course>11.8</course>
  <speed>0.7184010022264724</speed>
  <fix>3d</fix>
</trkpt>
<trkpt lat="33.8102887" lon="-118.3938943">
  <ele>-0.109</ele>
  <time>2026-09-02T22:07:25Z</time>
  <course>11.8</course>
  <speed>0.7184010022264724</speed>
  <fix>3d</fix>
</trkpt>
<trkpt lat="33.8102887" lon="-118.3938942">
  <ele>-0.109</ele>
  <time>2026-09-02T22:07:25Z</time>
  <course>11.8</course>
  <speed>0.7184010022264724</speed>
  <fix>3d</fix>
</trkpt>
<trkpt lat="33.8102888" lon="-118.3938942">
  <ele>-0.109</ele>
  <time>2026-09-02T22:07:25Z</time>
  <course>11.8</course>
  <speed>0.7184010022264724</speed>
  <fix>3d</fix>
</trkpt>
<trkpt lat="33.8102888" lon="-118.3938941">
  <ele>-0.109</ele>
  <time>2026-09-02T22:07:25Z</time>
  <course>11.8</course>
  <speed>0.7184010022264724</speed>
  <fix>3d</fix>
</trkpt>
<trkpt lat="33.8102889" lon="-118.393894">
  <ele>-0.11</ele>
  <time>2026-09-02T22:07:25Z</time>
  <course>11.8</course>
  <speed>0.7184010022264724</speed>
  <fix>3d</fix>
</trkpt>
<trkpt lat="33.8102889" lon="-118.393894">
  <ele>-0.11</ele>
  <time>2026-09-02T22:07:25Z</time>
  <course>11.8</course>
  <speed>0.7184010022264724</speed>
  <fix>3d</fix>
</trkpt>
<trkpt lat="33.8102889" lon="-118.393894">
  <ele>-0.11</ele>
  <time>2026-09-02T22:07:25Z</time>
  <course>11.8</course>
  <speed>0.7184010022264724</speed>
  <fix>3d</fix>
</trkpt>
<trkpt lat="33.8102881" lon="-118.3938956">
  <ele>-0.1</ele>
  <time>2026-09-02T22:07:25Z</time>
  <course>48.58</course>
  <speed>0.73</speed>
  <fix>3d</fix>
</trkpt>
<trkpt lat="33.8102889" lon="-118.393894">
  <ele>-0.11</ele>
  <time>2026-09-02T22:07:25Z</time>
  <course>11.8</course>
  <speed>0.7184010022264724</speed>
  <fix>3d</fix>
</trkpt>
<trkpt lat="33.810289" lon="-118.3938939">
  <ele>-0.11</ele>
  <time>2026-09-02T22:07:25Z</time>
  <course>11.8</course>
  <speed>0.7184010022264724</speed>
  <fix>3d</fix>
</trkpt>
<trkpt lat="33.810289" lon="-118.3938939">
  <ele>-0.11</ele>
  <time>2026-09-02T22:07:25Z</time>
  <course>11.8</course>
  <speed>0.7184010022264724</speed>
  <fix>3d</fix>
</trkpt>
<trkpt lat="33.810289" lon="-118.3938938">
  <ele>-0.11</ele>
  <time>2026-09-02T22:07:25Z</time>
  <course>11.8</course>
  <speed>0.7184010022264724</speed>
  <fix>3d</fix>
</trkpt>
<trkpt lat="33.8102891" lon="-118.3938937">
  <ele>-0.11</ele>
  <time>2026-09-02T22:07:25Z</time>
  <course>11.8</course>
  <speed>0.7184010022264724</speed>
  <fix>3d</fix>
</trkpt>
<trkpt lat="33.8102891" lon="-118.3938937">
  <ele>-0.11</ele>
  <time>2026-09-02T22:07:25Z</time>
  <course>11.8</course>
  <speed>0.7184010022264724</speed>
  <fix>3d</fix>
</trkpt>
<trkpt lat="33.8102892" lon="-118.3938936">
  <ele>-0.111</ele>
  <time>2026-09-02T22:07:25Z</time>
  <course>11.8</course>
  <speed>0.7184010022264724</speed>
  <fix>3d</fix>
</trkpt>
<trkpt lat="33.8102892" lon="-118.3938936">
  <ele>-0.111</ele>
  <time>2026-09-02T22:07:25Z</time>
  <course>11.8</course>
  <speed>0.7184010022264724</speed>
  <fix>3d</fix>
</trkpt>
<trkpt lat="33.8102892" lon="-118.3938935">
  <ele>-0.111</ele>
  <time>2026-09-02T22:07:25Z</time>
  <course>11.8</course>
  <speed>0.7184010022264724</speed>
  <fix>3d</fix>
</trkpt>
<trkpt lat="33.8102893" lon="-118.3938935">
  <ele>-0.111</ele>
  <time>2026-09-02T22:07:25Z</time>
  <course>11.8</course>
  <speed>0.7184010022264724</speed>
  <fix>3d</fix>
</trkpt>
<trkpt lat="33.8102893" lon="-118.3938934">
  <ele>-0.111</ele>
  <time>2026-09-02T22:07:25Z</time>
  <course>11.8</course>
  <speed>0.7184010022264724</speed>
  <fix>3d</fix>
</trkpt>
<trkpt lat="33.8102893" lon="-118.3938934">
  <ele>-0.111</ele>
  <time>2026-09-02T22:07:25Z</time>
  <course>11.8</course>
  <speed>0.7184010022264724</speed>
  <fix>3d</fix>
</trkpt>
<trkpt lat="33.810289" lon="-118.3938944">
  <ele>-0.11</ele>
  <time>2026-09-02T22:07:25Z</time>
  <course>48.59</course>
  <speed>0.73</speed>
  <fix>3d</fix>
</trkpt>
<trkpt lat="33.8102893" lon="-118.3938934">
  <ele>-0.111</ele>
  <time>2026-09-02T22:07:25Z</time>
  <course>11.8</course>
  <speed>0.7184010022264724</speed>
  <fix>3d</fix>
</trkpt>
<trkpt lat="33.8102894" lon="-118.3938933">
  <ele>-0.111</ele>
  <time>2026-09-02T22:07:25Z</time>
  <course>11.8</course>
  <speed>0.7184010022264724</speed>
  <fix>3d</fix>
</trkpt>
<trkpt lat="33.8102895" lon="-118.3938932">
  <ele>-0.111</ele>
  <time>2026-09-02T22:07:25Z</time>
  <course>11.8</course>
  <speed>0.7184010022264724</speed>
  <fix>3d</fix>
</trkpt>
<trkpt lat="33.8102895" lon="-118.3938932">
  <ele>-0.111</ele>
  <time>2026-09-02T22:07:25Z</time>
  <course>11.8</course>
  <speed>0.7184010022264724</speed>
  <fix>3d</fix>
</trkpt>
<trkpt lat="33.8102895" lon="-118.3938932">
  <ele>-0.111</ele>
  <time>2026-09-02T22:07:25Z</time>
  <course>11.8</course>
  <speed>0.7184010022264724</speed>
  <fix>3d</fix>
</trkpt>
<trkpt lat="33.8102896" lon="-118.3938931">
  <ele>-0.111</ele>
  <time>2026-09-02T22:07:25Z</time>
  <course>11.8</course>
  <speed>0.7184010022264724</speed>
  <fix>3d</fix>
</trkpt>
<trkpt lat="33.8102896" lon="-118.393893">
  <ele>-0.111</ele>
  <time>2026-09-02T22:07:25Z</time>
  <course>11.8</course>
  <speed>0.7184010022264724</speed>
  <fix>3d</fix>
</trkpt>
<trkpt lat="33.8102896" lon="-118.393893">
  <ele>-0.111</ele>
  <time>2026-09-02T22:07:25Z</time>
  <course>11.8</course>
  <speed>0.7184010022264724</speed>
  <fix>3d</fix>
</trkpt>
<trkpt lat="33.8102897" lon="-118.3938929">
  <ele>-0.111</ele>
  <time>2026-09-02T22:07:25Z</time>
  <course>11.8</course>
  <speed>0.7184010022264724</speed>
  <fix>3d</fix>
</trkpt>
<trkpt lat="33.8102897" lon="-118.3938929">
  <ele>-0.111</ele>
  <time>2026-09-02T22:07:25Z</time>
  <course>11.8</course>
  <speed>0.7184010022264724</speed>
  <fix>3d</fix>
</trkpt>
<trkpt lat="33.8102897" lon="-118.3938928">
  <ele>-0.111</ele>
  <time>2026-09-02T22:07:25Z</time>
  <course>11.8</course>
  <speed>0.7184010022264724</speed>
  <fix>3d</fix>
</trkpt>
<trkpt lat="33.8102898" lon="-118.3938928">
  <ele>-0.111</ele>
  <time>2026-09-02T22:07:25Z</time>
  <course>11.81</course>
  <speed>0.7184010022264724</speed>
  <fix>3d</fix>
</trkpt>
<trkpt lat="33.810289" lon="-118.3938944">
  <ele>-0.11</ele>
  <time>2026-09-02T22:07:25Z</time>
  <course>48.59</course>
  <speed>0.73</speed>
  <fix>3d</fix>
</trkpt>
<trkpt lat="33.8102898" lon="-118.3938928">
  <ele>-0.111</ele>
  <time>2026-09-02T22:07:25Z</time>
  <course>11.81</course>
  <speed>0.7184010022264724</speed>
  <fix>3d</fix>
</trkpt>
<trkpt lat="33.8102898" lon="-118.3938927">
  <ele>-0.111</ele>
  <time>2026-09-02T22:07:25Z</time>
  <course>11.81</course>
  <speed>0.7184010022264724</speed>
  <fix>3d</fix>
</trkpt>
<trkpt lat="33.8102899" lon="-118.3938927">
  <ele>-0.111</ele>
  <time>2026-09-02T22:07:25Z</time>
  <course>11.81</course>
  <speed>0.7184010022264724</speed>
  <fix>3d</fix>
</trkpt>
<trkpt lat="33.8102899" lon="-118.3938926">
  <ele>-0.111</ele>
  <time>2026-09-02T22:07:25Z</time>
  <course>11.81</course>
  <speed>0.7184010022264724</speed>
  <fix>3d</fix>
</trkpt>
<trkpt lat="33.8102899" lon="-118.3938926">
  <ele>-0.111</ele>
  <time>2026-09-02T22:07:25Z</time>
  <course>11.81</course>
  <speed>0.7184010022264724</speed>
  <fix>3d</fix>
</trkpt>
<trkpt lat="33.81029" lon="-118.3938925">
  <ele>-0.111</ele>
  <time>2026-09-02T22:07:25Z</time>
  <course>11.81</course>
  <speed>0.7184010022264724</speed>
  <fix>3d</fix>
</trkpt>
<trkpt lat="33.81029" lon="-118.3938925">
  <ele>-0.111</ele>
  <time>2026-09-02T22:07:25Z</time>
  <course>11.81</course>
  <speed>0.7184010022264724</speed>
  <fix>3d</fix>
</trkpt>
<trkpt lat="33.8102901" lon="-118.3938924">
  <ele>-0.11</ele>
  <time>2026-09-02T22:07:25Z</time>
  <course>11.81</course>
  <speed>0.7184010022264724</speed>
  <fix>3d</fix>
</trkpt>
<trkpt lat="33.8102901" lon="-118.3938924">
  <ele>-0.11</ele>
  <time>2026-09-02T22:07:25Z</time>
  <course>11.81</course>
  <speed>0.7184010022264724</speed>
  <fix>3d</fix>
</trkpt>
<trkpt lat="33.8102901" lon="-118.3938923">
  <ele>-0.11</ele>
  <time>2026-09-02T22:07:25Z</time>
  <course>11.81</course>
  <speed>0.7184010022264724</speed>
  <fix>3d</fix>
</trkpt>
<trkpt lat="33.8102902" lon="-118.3938923">
  <ele>-0.11</ele>
  <time>2026-09-02T22:07:25Z</time>
  <course>11.81</course>
  <speed>0.7184010022264724</speed>
  <fix>3d</fix>
</trkpt>
<trkpt lat="33.8102902" lon="-118.3938922">
  <ele>-0.11</ele>
  <time>2026-09-02T22:07:25Z</time>
  <course>11.81</course>
  <speed>0.7184010022264724</speed>
  <fix>3d</fix>
</trkpt>
<trkpt lat="33.8102902" lon="-118.3938922">
  <ele>-0.11</ele>
  <time>2026-09-02T22:07:25Z</time>
  <course>11.81</course>
  <speed>0.7184010022264724</speed>
  <fix>3d</fix>
</trkpt>
<trkpt lat="33.8102899" lon="-118.3938932">
  <ele>-0.1</ele>
  <time>2026-09-02T22:07:25Z</time>
  <course>48.6</course>
  <speed>0.73</speed>
  <fix>3d</fix>
</trkpt>
<trkpt lat="33.8102903" lon="-118.3938921">
  <ele>-0.11</ele>
  <time>2026-09-02T22:07:25Z</time>
  <course>11.81</course>
  <speed>0.7184010022264724</speed>
  <fix>3d</fix>
</trkpt>
<trkpt lat="33.8102903" lon="-118.3938921">
  <ele>-0.11</ele>
  <time>2026-09-02T22:07:25Z</time>
  <course>11.81</course>
  <speed>0.7184010022264724</speed>
  <fix>3d</fix>
</trkpt>
<trkpt lat="33.8102904" lon="-118.393892">
  <ele>-0.11</ele>
  <time>2026-09-02T22:07:25Z</time>
  <course>11.81</course>
  <speed>0.7184010022264724</speed>
  <fix>3d</fix>
</trkpt>
<trkpt lat="33.8102904" lon="-118.393892">
  <ele>-0.11</ele>
  <time>2026-09-02T22:07:25Z</time>
  <course>11.81</course>
  <speed>0.7184010022264724</speed>
  <fix>3d</fix>
</trkpt>
<trkpt lat="33.8102904" lon="-118.3938919">
  <ele>-0.109</ele>
  <time>2026-09-02T22:07:25Z</time>
  <course>11.81</course>
  <speed>0.7184010022264724</speed>
  <fix>3d</fix>
</trkpt>
<trkpt lat="33.8102905" lon="-118.3938918">
  <ele>-0.109</ele>
  <time>2026-09-02T22:07:25Z</time>
  <course>11.81</course>
  <speed>0.7184010022264724</speed>
  <fix>3d</fix>
</trkpt>
<trkpt lat="33.8102905" lon="-118.3938918">
  <ele>-0.109</ele>
  <time>2026-09-02T22:07:25Z</time>
  <course>11.81</course>
  <speed>0.7184010022264724</speed>
  <fix>3d</fix>
</trkpt>
<trkpt lat="33.8102905" lon="-118.3938918">
  <ele>-0.109</ele>
  <time>2026-09-02T22:07:25Z</time>
  <course>11.81</course>
  <speed>0.7184010022264724</speed>
  <fix>3d</fix>
</trkpt>
<trkpt lat="33.8102906" lon="-118.3938917">
  <ele>-0.109</ele>
  <time>2026-09-02T22:07:25Z</time>
  <course>11.81</course>
  <speed>0.7184010022264724</speed>
  <fix>3d</fix>
</trkpt>
<trkpt lat="33.8102906" lon="-118.3938917">
  <ele>-0.109</ele>
  <time>2026-09-02T22:07:25Z</time>
  <course>11.81</course>
  <speed>0.7184010022264724</speed>
  <fix>3d</fix>
</trkpt>
<trkpt lat="33.8102906" lon="-118.3938916">
  <ele>-0.109</ele>
  <time>2026-09-02T22:07:25Z</time>
  <course>11.81</course>
  <speed>0.7184010022264724</speed>
  <fix>3d</fix>
</trkpt>
<trkpt lat="33.8102906" lon="-118.3938916">
  <ele>-0.109</ele>
  <time>2026-09-02T22:07:25Z</time>
  <course>11.81</course>
  <speed>0.7184010022264724</speed>
  <fix>3d</fix>
</trkpt>
<trkpt lat="33.8102899" lon="-118.3938932">
  <ele>-0.1</ele>
  <time>2026-09-02T22:07:25Z</time>
  <course>48.6</course>
  <speed>0.73</speed>
  <fix>3d</fix>
</trkpt>
<trkpt lat="33.8102907" lon="-118.3938915">
  <ele>-0.109</ele>
  <time>2026-09-02T22:07:25Z</time>
  <course>11.81</course>
  <speed>0.7184010022264724</speed>
  <fix>3d</fix>
</trkpt>
<trkpt lat="33.8102908" lon="-118.3938915">
  <ele>-0.108</ele>
  <time>2026-09-02T22:07:25Z</time>
  <course>11.81</course>
  <speed>0.7184010022264724</speed>
  <fix>3d</fix>
</trkpt>
<trkpt lat="33.8102908" lon="-118.3938914">
  <ele>-0.108</ele>
  <time>2026-09-02T22:07:25Z</time>
  <course>11.81</course>
  <speed>0.7184010022264724</speed>
  <fix>3d</fix>
</trkpt>
<trkpt lat="33.8102908" lon="-118.3938914">
  <ele>-0.108</ele>
  <time>2026-09-02T22:07:25Z</time>
  <course>11.82</course>
  <speed>0.7184010022264724</speed>
  <fix>3d</fix>
</trkpt>
<trkpt lat="33.8102909" lon="-118.3938913">
  <ele>-0.108</ele>
  <time>2026-09-02T22:07:25Z</time>
  <course>11.82</course>
  <speed>0.7184010022264724</speed>
  <fix>3d</fix>
</trkpt>
<trkpt lat="33.8102909" lon="-118.3938913">
  <ele>-0.108</ele>
  <time>2026-09-02T22:07:25Z</time>
  <course>11.82</course>
  <speed>0.7184010022264724</speed>
  <fix>3d</fix>
</trkpt>
<trkpt lat="33.8102909" lon="-118.3938912">
  <ele>-0.108</ele>
  <time>2026-09-02T22:07:25Z</time>
  <course>11.82</course>
  <speed>0.7184010022264724</speed>
  <fix>3d</fix>
</trkpt>
<trkpt lat="33.810291" lon="-118.3938912">
  <ele>-0.108</ele>
  <time>2026-09-02T22:07:25Z</time>
  <course>11.82</course>
  <speed>0.7184010022264724</speed>
  <fix>3d</fix>
</trkpt>
<trkpt lat="33.810291" lon="-118.3938911">
  <ele>-0.108</ele>
  <time>2026-09-02T22:07:25Z</time>
  <course>11.82</course>
  <speed>0.7184010022264724</speed>
  <fix>3d</fix>
</trkpt>
<trkpt lat="33.810291" lon="-118.3938911">
  <ele>-0.108</ele>
  <time>2026-09-02T22:07:25Z</time>
  <course>11.82</course>
  <speed>0.7184010022264724</speed>
  <fix>3d</fix>
</trkpt>
<trkpt lat="33.8102911" lon="-118.3938911">
  <ele>-0.108</ele>
  <time>2026-09-02T22:07:25Z</time>
  <course>11.82</course>
  <speed>0.7184010022264724</speed>
  <fix>3d</fix>
</trkpt>
<trkpt lat="33.8102911" lon="-118.393891">
  <ele>-0.108</ele>
  <time>2026-09-02T22:07:25Z</time>
  <course>11.82</course>
  <speed>0.7184010022264724</speed>
  <fix>3d</fix>
</trkpt>
<trkpt lat="33.8102907" lon="-118.393892">
  <ele>-0.1</ele>
  <time>2026-09-02T22:07:25Z</time>
  <course>48.6</course>
  <speed>0.73</speed>
  <fix>3d</fix>
</trkpt>
<trkpt lat="33.8102911" lon="-118.393891">
  <ele>-0.108</ele>
  <time>2026-09-02T22:07:25Z</time>
  <course>11.82</course>
  <speed>0.7184010022264724</speed>
  <fix>3d</fix>
</trkpt>
<trkpt lat="33.8102912" lon="-118.3938909">
  <ele>-0.108</ele>
  <time>2026-09-02T22:07:25Z</time>
  <course>11.82</course>
  <speed>0.7184010022264724</speed>
  <fix>3d</fix>
</trkpt>
<trkpt lat="33.8102912" lon="-118.3938909">
  <ele>-0.108</ele>
  <time>2026-09-02T22:07:25Z</time>
  <course>11.82</course>
  <speed>0.7184010022264724</speed>
  <fix>3d</fix>
</trkpt>
<trkpt lat="33.8102912" lon="-118.3938908">
  <ele>-0.108</ele>
  <time>2026-09-02T22:07:25Z</time>
  <course>11.82</course>
  <speed>0.7184010022264724</speed>
  <fix>3d</fix>
</trkpt>
<trkpt lat="33.8102912" lon="-118.3938908">
  <ele>-0.108</ele>
  <time>2026-09-02T22:07:25Z</time>
  <course>11.82</course>
  <speed>0.7184010022264724</speed>
  <fix>3d</fix>
</trkpt>
<trkpt lat="33.8102913" lon="-118.3938908">
  <ele>-0.108</ele>
  <time>2026-09-02T22:07:25Z</time>
  <course>11.82</course>
  <speed>0.7184010022264724</speed>
  <fix>3d</fix>
</trkpt>
<trkpt lat="33.8102913" lon="-118.3938907">
  <ele>-0.108</ele>
  <time>2026-09-02T22:07:25Z</time>
  <course>11.82</course>
  <speed>0.7184010022264724</speed>
  <fix>3d</fix>
</trkpt>
<trkpt lat="33.8102914" lon="-118.3938907">
  <ele>-0.108</ele>
  <time>2026-09-02T22:07:25Z</time>
  <course>11.82</course>
  <speed>0.7184010022264724</speed>
  <fix>3d</fix>
</trkpt>
<trkpt lat="33.8102914" lon="-118.3938906">
  <ele>-0.108</ele>
  <time>2026-09-02T22:07:25Z</time>
  <course>11.82</course>
  <speed>0.7184010022264724</speed>
  <fix>3d</fix>
</trkpt>
<trkpt lat="33.8102914" lon="-118.3938905">
  <ele>-0.108</ele>
  <time>2026-09-02T22:07:25Z</time>
  <course>11.82</course>
  <speed>0.7184010022264724</speed>
  <fix>3d</fix>
</trkpt>
<trkpt lat="33.8102915" lon="-118.3938904">
  <ele>-0.108</ele>
  <time>2026-09-02T22:07:25Z</time>
  <course>11.82</course>
  <speed>0.7184010022264724</speed>
  <fix>3d</fix>
</trkpt>
<trkpt lat="33.8102915" lon="-118.3938904">
  <ele>-0.108</ele>
  <time>2026-09-02T22:07:25Z</time>
  <course>11.82</course>
  <speed>0.7184010022264724</speed>
  <fix>3d</fix>
</trkpt>
<trkpt lat="33.8102907" lon="-118.393892">
  <ele>-0.1</ele>
  <time>2026-09-02T22:07:25Z</time>
  <course>48.6</course>
  <speed>0.73</speed>
  <fix>3d</fix>
</trkpt>
<trkpt lat="33.8102915" lon="-118.3938904">
  <ele>-0.108</ele>
  <time>2026-09-02T22:07:25Z</time>
  <course>11.82</course>
  <speed>0.7184010022264724</speed>
  <fix>3d</fix>
</trkpt>
<trkpt lat="33.8102916" lon="-118.3938904">
  <ele>-0.108</ele>
  <time>2026-09-02T22:07:25Z</time>
  <course>11.82</course>
  <speed>0.7184010022264724</speed>
  <fix>3d</fix>
</trkpt>
<trkpt lat="33.8102916" lon="-118.3938903">
  <ele>-0.108</ele>
  <time>2026-09-02T22:07:25Z</time>
  <course>11.82</course>
  <speed>0.7184010022264724</speed>
  <fix>3d</fix>
</trkpt>
<trkpt lat="33.8102917" lon="-118.3938902">
  <ele>-0.108</ele>
  <time>2026-09-02T22:07:25Z</time>
  <course>11.82</course>
  <speed>0.7184010022264724</speed>
  <fix>3d</fix>
</trkpt>
<trkpt lat="33.8102917" lon="-118.3938902">
  <ele>-0.108</ele>
  <time>2026-09-02T22:07:25Z</time>
  <course>11.82</course>
  <speed>0.7184010022264724</speed>
  <fix>3d</fix>
</trkpt>
<trkpt lat="33.8102917" lon="-118.3938901">
  <ele>-0.108</ele>
  <time>2026-09-02T22:07:25Z</time>
  <course>11.82</course>
  <speed>0.7184010022264724</speed>
  <fix>3d</fix>
</trkpt>
<trkpt lat="33.8102918" lon="-118.3938901">
  <ele>-0.108</ele>
  <time>2026-09-02T22:07:25Z</time>
  <course>11.82</course>
  <speed>0.7184010022264724</speed>
  <fix>3d</fix>
</trkpt>
<trkpt lat="33.8102918" lon="-118.3938901">
  <ele>-0.108</ele>
  <time>2026-09-02T22:07:25Z</time>
  <course>11.82</course>
  <speed>0.7184010022264724</speed>
  <fix>3d</fix>
</trkpt>
<trkpt lat="33.8102918" lon="-118.39389">
  <ele>-0.108</ele>
  <time>2026-09-02T22:07:25Z</time>
  <course>11.82</course>
  <speed>0.7184010022264724</speed>
  <fix>3d</fix>
</trkpt>
<trkpt lat="33.8102919" lon="-118.39389">
  <ele>-0.108</ele>
  <time>2026-09-02T22:07:25Z</time>
  <course>11.82</course>
  <speed>0.7184010022264724</speed>
  <fix>3d</fix>
</trkpt>
<trkpt lat="33.8102919" lon="-118.3938899">
  <ele>-0.108</ele>
  <time>2026-09-02T22:07:25Z</time>
  <course>11.82</course>
  <speed>0.7184010022264724</speed>
  <fix>3d</fix>
</trkpt>
<trkpt lat="33.8102919" lon="-118.3938899">
  <ele>-0.108</ele>
  <time>2026-09-02T22:07:25Z</time>
  <course>11.82</course>
  <speed>0.7184010022264724</speed>
  <fix>3d</fix>
</trkpt>
<trkpt lat="33.810292" lon="-118.3938898">
  <ele>-0.108</ele>
  <time>2026-09-02T22:07:25Z</time>
  <course>11.82</course>
  <speed>0.7184010022264724</speed>
  <fix>3d</fix>
</trkpt>
<trkpt lat="33.8102916" lon="-118.3938908">
  <ele>-0.1</ele>
  <time>2026-09-02T22:07:25Z</time>
  <course>48.61</course>
  <speed>0.73</speed>
  <fix>3d</fix>
</trkpt>
<trkpt lat="33.810292" lon="-118.3938898">
  <ele>-0.107</ele>
  <time>2026-09-02T22:07:25Z</time>
  <course>11.82</course>
  <speed>0.7184010022264724</speed>
  <fix>3d</fix>
</trkpt>
<trkpt lat="33.810292" lon="-118.3938897">
  <ele>-0.107</ele>
  <time>2026-09-02T22:07:25Z</time>
  <course>11.83</course>
  <speed>0.7184010022264724</speed>
  <fix>3d</fix>
</trkpt>
<trkpt lat="33.8102921" lon="-118.3938897">
  <ele>-0.107</ele>
  <time>2026-09-02T22:07:25Z</time>
  <course>11.83</course>
  <speed>0.7184010022264724</speed>
  <fix>3d</fix>
</trkpt>
<trkpt lat="33.8102921" lon="-118.3938896">
  <ele>-0.107</ele>
  <time>2026-09-02T22:07:25Z</time>
  <course>11.83</course>
  <speed>0.7184010022264724</speed>
  <fix>3d</fix>
</trkpt>
<trkpt lat="33.8102922" lon="-118.3938896">
  <ele>-0.107</ele>
  <time>2026-09-02T22:07:25Z</time>
  <course>11.83</course>
  <speed>0.7184010022264724</speed>
  <fix>3d</fix>
</trkpt>
<trkpt lat="33.8102922" lon="-118.3938895">
  <ele>-0.107</ele>
  <time>2026-09-02T22:07:25Z</time>
  <course>11.83</course>
  <speed>0.7184010022264724</speed>
  <fix>3d</fix>
</trkpt>
<trkpt lat="33.8102922" lon="-118.3938895">
  <ele>-0.107</ele>
  <time>2026-09-02T22:07:25Z</time>
  <course>11.83</course>
  <speed>0.7184010022264724</speed>
  <fix>3d</fix>
</trkpt>
<trkpt lat="33.8102923" lon="-118.3938894">
  <ele>-0.107</ele>
  <time>2026-09-02T22:07:25Z</time>
  <course>11.83</course>
  <speed>0.7184010022264724</speed>
  <fix>3d</fix>
</trkpt>
<trkpt lat="33.8102923" lon="-118.3938894">
  <ele>-0.107</ele>
  <time>2026-09-02T22:07:25Z</time>
  <course>11.83</course>
  <speed>0.7184010022264724</speed>
  <fix>3d</fix>
</trkpt>
<trkpt lat="33.8102923" lon="-118.3938893">
  <ele>-0.107</ele>
  <time>2026-09-02T22:07:25Z</time>
  <course>11.83</course>
  <speed>0.7184010022264724</speed>
  <fix>3d</fix>
</trkpt>
<trkpt lat="33.8102924" lon="-118.3938893">
  <ele>-0.107</ele>
  <time>2026-09-02T22:07:25Z</time>
  <course>11.83</course>
  <speed>0.7184010022264724</speed>
  <fix>3d</fix>
</trkpt>
<trkpt lat="33.8102924" lon="-118.3938892">
  <ele>-0.107</ele>
  <time>2026-09-02T22:07:25Z</time>
  <course>11.83</course>
  <speed>0.7184010022264724</speed>
  <fix>3d</fix>
</trkpt>
<trkpt lat="33.8102916" lon="-118.3938908">
  <ele>-0.1</ele>
  <time>2026-09-02T22:07:25Z</time>
  <course>48.61</course>
  <speed>0.73</speed>
  <fix>3d</fix>
</trkpt>
<trkpt lat="33.8102924" lon="-118.3938892">
  <ele>-0.107</ele>
  <time>2026-09-02T22:07:25Z</time>
  <course>11.83</course>
  <speed>0.7184010022264724</speed>
  <fix>3d</fix>
</trkpt>
<trkpt lat="33.8102925" lon="-118.3938891">
  <ele>-0.107</ele>
  <time>2026-09-02T22:07:25Z</time>
  <course>11.83</course>
  <speed>0.7184010022264724</speed>
  <fix>3d</fix>
</trkpt>
<trkpt lat="33.8102925" lon="-118.3938891">
  <ele>-0.107</ele>
  <time>2026-09-02T22:07:25Z</time>
  <course>11.83</course>
  <speed>0.7184010022264724</speed>
  <fix>3d</fix>
</trkpt>
<trkpt lat="33.8102925" lon="-118.393889">
  <ele>-0.107</ele>
  <time>2026-09-02T22:07:25Z</time>
  <course>11.83</course>
  <speed>0.7184010022264724</speed>
  <fix>3d</fix>
</trkpt>
<trkpt lat="33.8102926" lon="-118.393889">
  <ele>-0.107</ele>
  <time>2026-09-02T22:07:25Z</time>
  <course>11.83</course>
  <speed>0.7184010022264724</speed>
  <fix>3d</fix>
</trkpt>
<trkpt lat="33.8102926" lon="-118.3938889">
  <ele>-0.107</ele>
  <time>2026-09-02T22:07:25Z</time>
  <course>11.83</course>
  <speed>0.7184010022264724</speed>
  <fix>3d</fix>
</trkpt>
<trkpt lat="33.8102927" lon="-118.3938888">
  <ele>-0.107</ele>
  <time>2026-09-02T22:07:25Z</time>
  <course>11.83</course>
  <speed>0.7184010022264724</speed>
  <fix>3d</fix>
</trkpt>
<trkpt lat="33.8102928" lon="-118.3938887">
  <ele>-0.108</ele>
  <time>2026-09-02T22:07:25Z</time>
  <course>11.83</course>
  <speed>0.7184010022264724</speed>
  <fix>3d</fix>
</trkpt>
<trkpt lat="33.8102928" lon="-118.3938887">
  <ele>-0.108</ele>
  <time>2026-09-02T22:07:25Z</time>
  <course>11.83</course>
  <speed>0.7184010022264724</speed>
  <fix>3d</fix>
</trkpt>
<trkpt lat="33.8102928" lon="-118.3938886">
  <ele>-0.108</ele>
  <time>2026-09-02T22:07:25Z</time>
  <course>11.83</course>
  <speed>0.7184010022264724</speed>
  <fix>3d</fix>
</trkpt>
<trkpt lat="33.8102925" lon="-118.3938896">
  <ele>-0.1</ele>
  <time>2026-09-02T22:07:25Z</time>
  <course>48.62</course>
  <speed>0.73</speed>
  <fix>3d</fix>
</trkpt>
<trkpt lat="33.8102928" lon="-118.3938886">
  <ele>-0.108</ele>
  <time>2026-09-02T22:07:25Z</time>
  <course>11.83</course>
  <speed>0.7184010022264724</speed>
  <fix>3d</fix>
</trkpt>
<trkpt lat="33.8102929" lon="-118.3938885">
  <ele>-0.108</ele>
  <time>2026-09-02T22:07:25Z</time>
  <course>11.83</course>
  <speed>0.7184010022264724</speed>
  <fix>3d</fix>
</trkpt>
<trkpt lat="33.8102929" lon="-118.3938885">
  <ele>-0.108</ele>
  <time>2026-09-02T22:07:25Z</time>
  <course>11.83</course>
  <speed>0.7184010022264724</speed>
  <fix>3d</fix>
</trkpt>
<trkpt lat="33.810293" lon="-118.3938884">
  <ele>-0.108</ele>
  <time>2026-09-02T22:07:25Z</time>
  <course>11.83</course>
  <speed>0.7184010022264724</speed>
  <fix>3d</fix>
</trkpt>
<trkpt lat="33.810293" lon="-118.3938884">
  <ele>-0.108</ele>
  <time>2026-09-02T22:07:25Z</time>
  <course>11.83</course>
  <speed>0.7184010022264724</speed>
  <fix>3d</fix>
</trkpt>
<trkpt lat="33.8102931" lon="-118.3938883">
  <ele>-0.108</ele>
  <time>2026-09-02T22:07:25Z</time>
  <course>11.83</course>
  <speed>0.7184010022264724</speed>
  <fix>3d</fix>
</trkpt>
<trkpt lat="33.8102931" lon="-118.3938883">
  <ele>-0.108</ele>
  <time>2026-09-02T22:07:25Z</time>
  <course>11.83</course>
  <speed>0.7184010022264724</speed>
  <fix>3d</fix>
</trkpt>
<trkpt lat="33.8102931" lon="-118.3938882">
  <ele>-0.108</ele>
  <time>2026-09-02T22:07:25Z</time>
  <course>11.84</course>
  <speed>0.7184010022264724</speed>
  <fix>3d</fix>
</trkpt>
<trkpt lat="33.8102932" lon="-118.3938882">
  <ele>-0.108</ele>
  <time>2026-09-02T22:07:25Z</time>
  <course>11.84</course>
  <speed>0.7184010022264724</speed>
  <fix>3d</fix>
</trkpt>
<trkpt lat="33.8102932" lon="-118.3938881">
  <ele>-0.108</ele>
  <time>2026-09-02T22:07:25Z</time>
  <course>11.84</course>
  <speed>0.7184010022264724</speed>
  <fix>3d</fix>
</trkpt>
<trkpt lat="33.8102932" lon="-118.3938881">
  <ele>-0.108</ele>
  <time>2026-09-02T22:07:25Z</time>
  <course>11.84</course>
  <speed>0.7184010022264724</speed>
  <fix>3d</fix>
</trkpt>
<trkpt lat="33.8102933" lon="-118.393888">
  <ele>-0.108</ele>
  <time>2026-09-02T22:07:25Z</time>
  <course>11.84</course>
  <speed>0.7184010022264724</speed>
  <fix>3d</fix>
</trkpt>
<trkpt lat="33.8102925" lon="-118.3938896">
  <ele>-0.1</ele>
  <time>2026-09-02T22:07:25Z</time>
  <course>48.62</course>
  <speed>0.73</speed>
  <fix>3d</fix>
</trkpt>
<trkpt lat="33.8102933" lon="-118.393888">
  <ele>-0.108</ele>
  <time>2026-09-02T22:07:25Z</time>
  <course>11.84</course>
  <speed>0.7184010022264724</speed>
  <fix>3d</fix>
</trkpt>
<trkpt lat="33.8102934" lon="-118.3938879">
  <ele>-0.108</ele>
  <time>2026-09-02T22:07:25Z</time>
  <course>11.84</course>
  <speed>0.7184010022264724</speed>
  <fix>3d</fix>
</trkpt>
<trkpt lat="33.8102934" lon="-118.3938879">
  <ele>-0.108</ele>
  <time>2026-09-02T22:07:25Z</time>
  <course>11.84</course>
  <speed>0.7184010022264724</speed>
  <fix>3d</fix>
</trkpt>
<trkpt lat="33.8102934" lon="-118.3938878">
  <ele>-0.108</ele>
  <time>2026-09-02T22:07:25Z</time>
  <course>11.84</course>
  <speed>0.7184010022264724</speed>
  <fix>3d</fix>
</trkpt>
<trkpt lat="33.8102935" lon="-118.3938878">
  <ele>-0.108</ele>
  <time>2026-09-02T22:07:25Z</time>
  <course>11.84</course>
  <speed>0.7184010022264724</speed>
  <fix>3d</fix>
</trkpt>
<trkpt lat="33.8102935" lon="-118.3938877">
  <ele>-0.108</ele>
  <time>2026-09-02T22:07:25Z</time>
  <course>11.84</course>
  <speed>0.7184010022264724</speed>
  <fix>3d</fix>
</trkpt>
<trkpt lat="33.8102936" lon="-118.3938876">
  <ele>-0.108</ele>
  <time>2026-09-02T22:07:25Z</time>
  <course>11.84</course>
  <speed>0.7184010022264724</speed>
  <fix>3d</fix>
</trkpt>
<trkpt lat="33.8102936" lon="-118.3938876">
  <ele>-0.108</ele>
  <time>2026-09-02T22:07:25Z</time>
  <course>11.84</course>
  <speed>0.7184010022264724</speed>
  <fix>3d</fix>
</trkpt>
<trkpt lat="33.8102936" lon="-118.3938875">
  <ele>-0.109</ele>
  <time>2026-09-02T22:07:25Z</time>
  <course>11.84</course>
  <speed>0.7184010022264724</speed>
  <fix>3d</fix>
</trkpt>
<trkpt lat="33.8102937" lon="-118.3938875">
  <ele>-0.109</ele>
  <time>2026-09-02T22:07:25Z</time>
  <course>11.84</course>
  <speed>0.7184010022264724</speed>
  <fix>3d</fix>
</trkpt>
<trkpt lat="33.8102937" lon="-118.3938874">
  <ele>-0.109</ele>
  <time>2026-09-02T22:07:25Z</time>
  <course>11.84</course>
  <speed>0.7184010022264724</speed>
  <fix>3d</fix>
</trkpt>
<trkpt lat="33.8102937" lon="-118.3938874">
  <ele>-0.109</ele>
  <time>2026-09-02T22:07:25Z</time>
  <course>11.84</course>
  <speed>0.7184010022264724</speed>
  <fix>3d</fix>
</trkpt>
<trkpt lat="33.8102934" lon="-118.3938884">
  <ele>-0.11</ele>
  <time>2026-09-02T22:07:25Z</time>
  <course>48.63</course>
  <speed>0.73</speed>
  <fix>3d</fix>
</trkpt>
<trkpt lat="33.8102938" lon="-118.3938873">
  <ele>-0.109</ele>
  <time>2026-09-02T22:07:25Z</time>
  <course>11.84</course>
  <speed>0.7184010022264724</speed>
  <fix>3d</fix>
</trkpt>
<trkpt lat="33.8102938" lon="-118.3938873">
  <ele>-0.109</ele>
  <time>2026-09-02T22:07:25Z</time>
  <course>11.84</course>
  <speed>0.7184010022264724</speed>
  <fix>3d</fix>
</trkpt>
<trkpt lat="33.8102939" lon="-118.3938872">
  <ele>-0.109</ele>
  <time>2026-09-02T22:07:25Z</time>
  <course>11.84</course>
  <speed>0.7184010022264724</speed>
  <fix>3d</fix>
</trkpt>
<trkpt lat="33.8102939" lon="-118.3938872">
  <ele>-0.109</ele>
  <time>2026-09-02T22:07:25Z</time>
  <course>11.84</course>
  <speed>0.7184010022264724</speed>
  <fix>3d</fix>
</trkpt>
<trkpt lat="33.8102939" lon="-118.3938871">
  <ele>-0.11</ele>
  <time>2026-09-02T22:07:25Z</time>
  <course>11.84</course>
  <speed>0.7184010022264724</speed>
  <fix>3d</fix>
</trkpt>
<trkpt lat="33.810294" lon="-118.3938871">
  <ele>-0.11</ele>
  <time>2026-09-02T22:07:25Z</time>
  <course>11.84</course>
  <speed>0.7184010022264724</speed>
  <fix>3d</fix>
</trkpt>
<trkpt lat="33.810294" lon="-118.393887">
  <ele>-0.11</ele>
  <time>2026-09-02T22:07:25Z</time>
  <course>11.84</course>
  <speed>0.7184010022264724</speed>
  <fix>3d</fix>
</trkpt>
<trkpt lat="33.8102941" lon="-118.393887">
  <ele>-0.11</ele>
  <time>2026-09-02T22:07:25Z</time>
  <course>11.84</course>
  <speed>0.7184010022264724</speed>
  <fix>3d</fix>
</trkpt>
<trkpt lat="33.8102941" lon="-118.3938869">
  <ele>-0.11</ele>
  <time>2026-09-02T22:07:25Z</time>
  <course>11.84</course>
  <speed>0.7184010022264724</speed>
  <fix>3d</fix>
</trkpt>
<trkpt lat="33.8102941" lon="-118.3938869">
  <ele>-0.11</ele>
  <time>2026-09-02T22:07:25Z</time>
  <course>11.84</course>
  <speed>0.7184010022264724</speed>
  <fix>3d</fix>
</trkpt>
<trkpt lat="33.8102941" lon="-118.3938868">
  <ele>-0.11</ele>
  <time>2026-09-02T22:07:25Z</time>
  <course>11.84</course>
  <speed>0.7184010022264724</speed>
  <fix>3d</fix>
</trkpt>
<trkpt lat="33.8102934" lon="-118.3938884">
  <ele>-0.11</ele>
  <time>2026-09-02T22:07:25Z</time>
  <course>48.63</course>
  <speed>0.73</speed>
  <fix>3d</fix>
</trkpt>
<trkpt lat="33.8102942" lon="-118.3938868">
  <ele>-0.11</ele>
  <time>2026-09-02T22:07:25Z</time>
  <course>11.84</course>
  <speed>0.7184010022264724</speed>
  <fix>3d</fix>
</trkpt>
<trkpt lat="33.8102942" lon="-118.3938867">
  <ele>-0.11</ele>
  <time>2026-09-02T22:07:25Z</time>
  <course>11.84</course>
  <speed>0.7184010022264724</speed>
  <fix>3d</fix>
</trkpt>
<trkpt lat="33.8102943" lon="-118.3938867">
  <ele>-0.11</ele>
  <time>2026-09-02T22:07:25Z</time>
  <course>11.85</course>
  <speed>0.7184010022264724</speed>
  <fix>3d</fix>
</trkpt>
<trkpt lat="33.8102943" lon="-118.3938866">
  <ele>-0.11</ele>
  <time>2026-09-02T22:07:25Z</time>
  <course>11.85</course>
  <speed>0.7184010022264724</speed>
  <fix>3d</fix>
</trkpt>
<trkpt lat="33.8102943" lon="-118.3938866">
  <ele>-0.111</ele>
  <time>2026-09-02T22:07:25Z</time>
  <course>11.85</course>
  <speed>0.7184010022264724</speed>
  <fix>3d</fix>
</trkpt>
<trkpt lat="33.8102944" lon="-118.3938865">
  <ele>-0.111</ele>
  <time>2026-09-02T22:07:25Z</time>
  <course>11.85</course>
  <speed>0.7184010022264724</speed>
  <fix>3d</fix>
</trkpt>
<trkpt lat="33.8102944" lon="-118.3938865">
  <ele>-0.111</ele>
  <time>2026-09-02T22:07:25Z</time>
  <course>11.85</course>
  <speed>0.7184010022264724</speed>
  <fix>3d</fix>
</trkpt>
<trkpt lat="33.8102944" lon="-118.3938864">
  <ele>-0.111</ele>
  <time>2026-09-02T22:07:25Z</time>
  <course>11.85</course>
  <speed>0.7184010022264724</speed>
  <fix>3d</fix>
</trkpt>
<trkpt lat="33.8102945" lon="-118.3938864">
  <ele>-0.111</ele>
  <time>2026-09-02T22:07:25Z</time>
  <course>11.85</course>
  <speed>0.7184010022264724</speed>
  <fix>3d</fix>
</trkpt>
<trkpt lat="33.8102945" lon="-118.3938863">
  <ele>-0.111</ele>
  <time>2026-09-02T22:07:25Z</time>
  <course>11.85</course>
  <speed>0.7184010022264724</speed>
  <fix>3d</fix>
</trkpt>
<trkpt lat="33.8102946" lon="-118.3938862">
  <ele>-0.111</ele>
  <time>2026-09-02T22:07:25Z</time>
  <course>11.85</course>
  <speed>0.7184010022264724</speed>
  <fix>3d</fix>
</trkpt>
<trkpt lat="33.8102946" lon="-118.3938862">
  <ele>-0.111</ele>
  <time>2026-09-02T22:07:25Z</time>
  <course>11.85</course>
  <speed>0.7184010022264724</speed>
  <fix>3d</fix>
</trkpt>
<trkpt lat="33.8102942" lon="-118.3938872">
  <ele>-0.1</ele>
  <time>2026-09-02T22:07:25Z</time>
  <course>48.64</course>
  <speed>0.73</speed>
  <fix>3d</fix>
</trkpt>
<trkpt lat="33.8102947" lon="-118.3938861">
  <ele>-0.111</ele>
  <time>2026-09-02T22:07:26Z</time>
  <course>11.85</course>
  <speed>0.7184010022264724</speed>
  <fix>3d</fix>
</trkpt>
<trkpt lat="33.8102947" lon="-118.3938861">
  <ele>-0.111</ele>
  <time>2026-09-02T22:07:26Z</time>
  <course>11.85</course>
  <speed>0.7184010022264724</speed>
  <fix>3d</fix>
</trkpt>
<trkpt lat="33.8102948" lon="-118.393886">
  <ele>-0.111</ele>
  <time>2026-09-02T22:07:26Z</time>
  <course>11.85</course>
  <speed>0.7184010022264724</speed>
  <fix>3d</fix>
</trkpt>
<trkpt lat="33.8102948" lon="-118.3938859">
  <ele>-0.111</ele>
  <time>2026-09-02T22:07:26Z</time>
  <course>11.85</course>
  <speed>0.7184010022264724</speed>
  <fix>3d</fix>
</trkpt>
<trkpt lat="33.8102948" lon="-118.3938859">
  <ele>-0.111</ele>
  <time>2026-09-02T22:07:26Z</time>
  <course>11.85</course>
  <speed>0.7184010022264724</speed>
  <fix>3d</fix>
</trkpt>
<trkpt lat="33.8102949" lon="-118.3938859">
  <ele>-0.111</ele>
  <time>2026-09-02T22:07:26Z</time>
  <course>11.85</course>
  <speed>0.7184010022264724</speed>
  <fix>3d</fix>
</trkpt>
<trkpt lat="33.8102949" lon="-118.3938858">
  <ele>-0.111</ele>
  <time>2026-09-02T22:07:26Z</time>
  <course>11.85</course>
  <speed>0.7184010022264724</speed>
  <fix>3d</fix>
</trkpt>
<trkpt lat="33.810295" lon="-118.3938857">
  <ele>-0.111</ele>
  <time>2026-09-02T22:07:26Z</time>
  <course>11.85</course>
  <speed>0.7184010022264724</speed>
  <fix>3d</fix>
</trkpt>
<trkpt lat="33.810295" lon="-118.3938857">
  <ele>-0.111</ele>
  <time>2026-09-02T22:07:26Z</time>
  <course>11.85</course>
  <speed>0.7184010022264724</speed>
  <fix>3d</fix>
</trkpt>
<trkpt lat="33.810295" lon="-118.3938856">
  <ele>-0.111</ele>
  <time>2026-09-02T22:07:26Z</time>
  <course>11.85</course>
  <speed>0.7184010022264724</speed>
  <fix>3d</fix>
</trkpt>
<trkpt lat="33.8102942" lon="-118.3938872">
  <ele>-0.1</ele>
  <time>2026-09-02T22:07:26Z</time>
  <course>48.64</course>
  <speed>0.73</speed>
  <fix>3d</fix>
</trkpt>
<trkpt lat="33.810295" lon="-118.3938856">
  <ele>-0.111</ele>
  <time>2026-09-02T22:07:26Z</time>
  <course>11.85</course>
  <speed>0.7184010022264724</speed>
  <fix>3d</fix>
</trkpt>
<trkpt lat="33.8102951" lon="-118.3938855">
  <ele>-0.111</ele>
  <time>2026-09-02T22:07:26Z</time>
  <course>11.85</course>
  <speed>0.7184010022264724</speed>
  <fix>3d</fix>
</trkpt>
<trkpt lat="33.8102951" lon="-118.3938855">
  <ele>-0.112</ele>
  <time>2026-09-02T22:07:26Z</time>
  <course>11.85</course>
  <speed>0.7184010022264724</speed>
  <fix>3d</fix>
</trkpt>
<trkpt lat="33.8102952" lon="-118.3938854">
  <ele>-0.112</ele>
  <time>2026-09-02T22:07:26Z</time>
  <course>11.85</course>
  <speed>0.7184010022264724</speed>
  <fix>3d</fix>
</trkpt>
<trkpt lat="33.8102952" lon="-118.3938854">
  <ele>-0.112</ele>
  <time>2026-09-02T22:07:26Z</time>
  <course>11.85</course>
  <speed>0.7184010022264724</speed>
  <fix>3d</fix>
</trkpt>
<trkpt lat="33.8102953" lon="-118.3938853">
  <ele>-0.112</ele>
  <time>2026-09-02T22:07:26Z</time>
  <course>11.85</course>
  <speed>0.7184010022264724</speed>
  <fix>3d</fix>
</trkpt>
<trkpt lat="33.8102953" lon="-118.3938853">
  <ele>-0.112</ele>
  <time>2026-09-02T22:07:26Z</time>
  <course>11.85</course>
  <speed>0.7184010022264724</speed>
  <fix>3d</fix>
</trkpt>
<trkpt lat="33.8102953" lon="-118.3938852">
  <ele>-0.112</ele>
  <time>2026-09-02T22:07:26Z</time>
  <course>11.85</course>
  <speed>0.7184010022264724</speed>
  <fix>3d</fix>
</trkpt>
<trkpt lat="33.8102954" lon="-118.3938852">
  <ele>-0.112</ele>
  <time>2026-09-02T22:07:26Z</time>
  <course>11.86</course>
  <speed>0.7184010022264724</speed>
  <fix>3d</fix>
</trkpt>
<trkpt lat="33.8102954" lon="-118.3938851">
  <ele>-0.112</ele>
  <time>2026-09-02T22:07:26Z</time>
  <course>11.86</course>
  <speed>0.7184010022264724</speed>
  <fix>3d</fix>
</trkpt>
<trkpt lat="33.8102954" lon="-118.3938851">
  <ele>-0.112</ele>
  <time>2026-09-02T22:07:26Z</time>
  <course>11.86</course>
  <speed>0.7184010022264724</speed>
  <fix>3d</fix>
</trkpt>
<trkpt lat="33.8102955" lon="-118.393885">
  <ele>-0.112</ele>
  <time>2026-09-02T22:07:26Z</time>
  <course>11.86</course>
  <speed>0.7184010022264724</speed>
  <fix>3d</fix>
</trkpt>
<trkpt lat="33.8102951" lon="-118.393886">
  <ele>-0.1</ele>
  <time>2026-09-02T22:07:26Z</time>
  <course>48.64</course>
  <speed>0.73</speed>
  <fix>3d</fix>
</trkpt>
<trkpt lat="33.8102955" lon="-118.393885">
  <ele>-0.112</ele>
  <time>2026-09-02T22:07:26Z</time>
  <course>11.86</course>
  <speed>0.7184010022264724</speed>
  <fix>3d</fix>
</trkpt>
<trkpt lat="33.8102955" lon="-118.3938849">
  <ele>-0.112</ele>
  <time>2026-09-02T22:07:26Z</time>
  <course>11.86</course>
  <speed>0.7184010022264724</speed>
  <fix>3d</fix>
</trkpt>
<trkpt lat="33.8102956" lon="-118.3938849">
  <ele>-0.112</ele>
  <time>2026-09-02T22:07:26Z</time>
  <course>11.86</course>
  <speed>0.7184010022264724</speed>
  <fix>3d</fix>
</trkpt>
<trkpt lat="33.8102956" lon="-118.3938848">
  <ele>-0.112</ele>
  <time>2026-09-02T22:07:26Z</time>
  <course>11.86</course>
  <speed>0.7184010022264724</speed>
  <fix>3d</fix>
</trkpt>
<trkpt lat="33.8102956" lon="-118.3938848">
  <ele>-0.111</ele>
  <time>2026-09-02T22:07:26Z</time>
  <course>11.86</course>
  <speed>0.7184010022264724</speed>
  <fix>3d</fix>
</trkpt>
<trkpt lat="33.8102957" lon="-118.3938847">
  <ele>-0.111</ele>
  <time>2026-09-02T22:07:26Z</time>
  <course>11.86</course>
  <speed>0.7184010022264724</speed>
  <fix>3d</fix>
</trkpt>
<trkpt lat="33.8102957" lon="-118.3938847">
  <ele>-0.111</ele>
  <time>2026-09-02T22:07:26Z</time>
  <course>11.86</course>
  <speed>0.7184010022264724</speed>
  <fix>3d</fix>
</trkpt>
<trkpt lat="33.8102958" lon="-118.3938846">
  <ele>-0.111</ele>
  <time>2026-09-02T22:07:26Z</time>
  <course>11.86</course>
  <speed>0.7184010022264724</speed>
  <fix>3d</fix>
</trkpt>
<trkpt lat="33.8102958" lon="-118.3938846">
  <ele>-0.111</ele>
  <time>2026-09-02T22:07:26Z</time>
  <course>11.86</course>
  <speed>0.7184010022264724</speed>
  <fix>3d</fix>
</trkpt>
<trkpt lat="33.8102958" lon="-118.3938845">
  <ele>-0.111</ele>
  <time>2026-09-02T22:07:26Z</time>
  <course>11.86</course>
  <speed>0.7184010022264724</speed>
  <fix>3d</fix>
</trkpt>
<trkpt lat="33.8102959" lon="-118.3938845">
  <ele>-0.111</ele>
  <time>2026-09-02T22:07:26Z</time>
  <course>11.86</course>
  <speed>0.7184010022264724</speed>
  <fix>3d</fix>
</trkpt>
<trkpt lat="33.8102959" lon="-118.3938844">
  <ele>-0.111</ele>
  <time>2026-09-02T22:07:26Z</time>
  <course>11.86</course>
  <speed>0.7184010022264724</speed>
  <fix>3d</fix>
</trkpt>
<trkpt lat="33.8102959" lon="-118.3938844">
  <ele>-0.111</ele>
  <time>2026-09-02T22:07:26Z</time>
  <course>11.86</course>
  <speed>0.7184010022264724</speed>
  <fix>3d</fix>
</trkpt>
<trkpt lat="33.8102951" lon="-118.393886">
  <ele>-0.1</ele>
  <time>2026-09-02T22:07:26Z</time>
  <course>48.64</course>
  <speed>0.73</speed>
  <fix>3d</fix>
</trkpt>
<trkpt lat="33.810296" lon="-118.3938843">
  <ele>-0.111</ele>
  <time>2026-09-02T22:07:26Z</time>
  <course>11.86</course>
  <speed>0.7184010022264724</speed>
  <fix>3d</fix>
</trkpt>
<trkpt lat="33.8102961" lon="-118.3938842">
  <ele>-0.111</ele>
  <time>2026-09-02T22:07:26Z</time>
  <course>11.86</course>
  <speed>0.7184010022264724</speed>
  <fix>3d</fix>
</trkpt>
<trkpt lat="33.8102961" lon="-118.3938841">
  <ele>-0.111</ele>
  <time>2026-09-02T22:07:26Z</time>
  <course>11.86</course>
  <speed>0.7184010022264724</speed>
  <fix>3d</fix>
</trkpt>
<trkpt lat="33.8102962" lon="-118.393884">
  <ele>-0.111</ele>
  <time>2026-09-02T22:07:26Z</time>
  <course>11.86</course>
  <speed>0.7184010022264724</speed>
  <fix>3d</fix>
</trkpt>
<trkpt lat="33.8102962" lon="-118.393884">
  <ele>-0.111</ele>
  <time>2026-09-02T22:07:26Z</time>
  <course>11.86</course>
  <speed>0.7184010022264724</speed>
  <fix>3d</fix>
</trkpt>
<trkpt lat="33.8102963" lon="-118.3938839">
  <ele>-0.111</ele>
  <time>2026-09-02T22:07:26Z</time>
  <course>11.86</course>
  <speed>0.7184010022264724</speed>
  <fix>3d</fix>
</trkpt>
<trkpt lat="33.8102963" lon="-118.3938838">
  <ele>-0.111</ele>
  <time>2026-09-02T22:07:26Z</time>
  <course>11.86</course>
  <speed>0.7184010022264724</speed>
  <fix>3d</fix>
</trkpt>
<trkpt lat="33.8102963" lon="-118.3938838">
  <ele>-0.111</ele>
  <time>2026-09-02T22:07:26Z</time>
  <course>11.86</course>
  <speed>0.7184010022264724</speed>
  <fix>3d</fix>
</trkpt>
<trkpt lat="33.810296" lon="-118.3938849">
  <ele>-0.1</ele>
  <time>2026-09-02T22:07:26Z</time>
  <course>48.65</course>
  <speed>0.73</speed>
  <fix>3d</fix>
</trkpt>
<trkpt lat="33.8102965" lon="-118.3938837">
  <ele>-0.111</ele>
  <time>2026-09-02T22:07:26Z</time>
  <course>11.86</course>
  <speed>0.7184010022264724</speed>
  <fix>3d</fix>
</trkpt>
<trkpt lat="33.8102965" lon="-118.3938836">
  <ele>-0.111</ele>
  <time>2026-09-02T22:07:26Z</time>
  <course>11.87</course>
  <speed>0.7184010022264724</speed>
  <fix>3d</fix>
</trkpt>
<trkpt lat="33.8102965" lon="-118.3938836">
  <ele>-0.111</ele>
  <time>2026-09-02T22:07:26Z</time>
  <course>11.87</course>
  <speed>0.7184010022264724</speed>
  <fix>3d</fix>
</trkpt>
<trkpt lat="33.8102966" lon="-118.3938835">
  <ele>-0.111</ele>
  <time>2026-09-02T22:07:26Z</time>
  <course>11.87</course>
  <speed>0.7184010022264724</speed>
  <fix>3d</fix>
</trkpt>
<trkpt lat="33.8102966" lon="-118.3938835">
  <ele>-0.111</ele>
  <time>2026-09-02T22:07:26Z</time>
  <course>11.87</course>
  <speed>0.7184010022264724</speed>
  <fix>3d</fix>
</trkpt>
<trkpt lat="33.8102967" lon="-118.3938834">
  <ele>-0.111</ele>
  <time>2026-09-02T22:07:26Z</time>
  <course>11.87</course>
  <speed>0.7184010022264724</speed>
  <fix>3d</fix>
</trkpt>
<trkpt lat="33.8102967" lon="-118.3938833">
  <ele>-0.111</ele>
  <time>2026-09-02T22:07:26Z</time>
  <course>11.87</course>
  <speed>0.7184010022264724</speed>
  <fix>3d</fix>
</trkpt>
<trkpt lat="33.8102967" lon="-118.3938833">
  <ele>-0.11</ele>
  <time>2026-09-02T22:07:26Z</time>
  <course>11.87</course>
  <speed>0.7184010022264724</speed>
  <fix>3d</fix>
</trkpt>
<trkpt lat="33.8102968" lon="-118.3938832">
  <ele>-0.11</ele>
  <time>2026-09-02T22:07:26Z</time>
  <course>11.87</course>
  <speed>0.7184010022264724</speed>
  <fix>3d</fix>
</trkpt>
<trkpt lat="33.8102968" lon="-118.3938832">
  <ele>-0.11</ele>
  <time>2026-09-02T22:07:26Z</time>
  <course>11.87</course>
  <speed>0.7184010022264724</speed>
  <fix>3d</fix>
</trkpt>
<trkpt lat="33.810296" lon="-118.3938849">
  <ele>-0.1</ele>
  <time>2026-09-02T22:07:26Z</time>
  <course>48.65</course>
  <speed>0.73</speed>
  <fix>3d</fix>
</trkpt>
<trkpt lat="33.8102969" lon="-118.3938831">
  <ele>-0.11</ele>
  <time>2026-09-02T22:07:26Z</time>
  <course>11.87</course>
  <speed>0.7184010022264724</speed>
  <fix>3d</fix>
</trkpt>
<trkpt lat="33.8102969" lon="-118.3938831">
  <ele>-0.11</ele>
  <time>2026-09-02T22:07:26Z</time>
  <course>11.87</course>
  <speed>0.7184010022264724</speed>
  <fix>3d</fix>
</trkpt>
<trkpt lat="33.8102969" lon="-118.393883">
  <ele>-0.11</ele>
  <time>2026-09-02T22:07:26Z</time>
  <course>11.87</course>
  <speed>0.7184010022264724</speed>
  <fix>3d</fix>
</trkpt>
<trkpt lat="33.810297" lon="-118.393883">
  <ele>-0.11</ele>
  <time>2026-09-02T22:07:26Z</time>
  <course>11.87</course>
  <speed>0.7184010022264724</speed>
  <fix>3d</fix>
</trkpt>
<trkpt lat="33.810297" lon="-118.3938829">
  <ele>-0.11</ele>
  <time>2026-09-02T22:07:26Z</time>
  <course>11.87</course>
  <speed>0.7184010022264724</speed>
  <fix>3d</fix>
</trkpt>
<trkpt lat="33.810297" lon="-118.3938829">
  <ele>-0.11</ele>
  <time>2026-09-02T22:07:26Z</time>
  <course>11.87</course>
  <speed>0.7184010022264724</speed>
  <fix>3d</fix>
</trkpt>
<trkpt lat="33.8102971" lon="-118.3938828">
  <ele>-0.11</ele>
  <time>2026-09-02T22:07:26Z</time>
  <course>11.87</course>
  <speed>0.7184010022264724</speed>
  <fix>3d</fix>
</trkpt>
<trkpt lat="33.8102971" lon="-118.3938828">
  <ele>-0.11</ele>
  <time>2026-09-02T22:07:26Z</time>
  <course>11.87</course>
  <speed>0.7184010022264724</speed>
  <fix>3d</fix>
</trkpt>
<trkpt lat="33.8102971" lon="-118.3938827">
  <ele>-0.11</ele>
  <time>2026-09-02T22:07:26Z</time>
  <course>11.87</course>
  <speed>0.7184010022264724</speed>
  <fix>3d</fix>
</trkpt>
<trkpt lat="33.8102972" lon="-118.3938827">
  <ele>-0.11</ele>
  <time>2026-09-02T22:07:26Z</time>
  <course>11.87</course>
  <speed>0.7184010022264724</speed>
  <fix>3d</fix>
</trkpt>
<trkpt lat="33.8102972" lon="-118.3938827">
  <ele>-0.11</ele>
  <time>2026-09-02T22:07:26Z</time>
  <course>11.87</course>
  <speed>0.7247068372797375</speed>
  <fix>3d</fix>
</trkpt>
<trkpt lat="33.8102972" lon="-118.3938827">
  <ele>-0.11</ele>
  <time>2026-09-02T22:07:26Z</time>
  <course>11.87</course>
  <speed>0.7247068372797375</speed>
  <fix>3d</fix>
</trkpt>
<trkpt lat="33.8102969" lon="-118.3938837">
  <ele>-0.1</ele>
  <time>2026-09-02T22:07:26Z</time>
  <course>48.66</course>
  <speed>0.73</speed>
  <fix>3d</fix>
</trkpt>
<trkpt lat="33.8102973" lon="-118.3938825">
  <ele>-0.11</ele>
  <time>2026-09-02T22:07:26Z</time>
  <course>11.87</course>
  <speed>0.7247068372797375</speed>
  <fix>3d</fix>
</trkpt>
<trkpt lat="33.8102973" lon="-118.3938825">
  <ele>-0.11</ele>
  <time>2026-09-02T22:07:26Z</time>
  <course>11.87</course>
  <speed>0.7247068372797375</speed>
  <fix>3d</fix>
</trkpt>
<trkpt lat="33.8102974" lon="-118.3938824">
  <ele>-0.11</ele>
  <time>2026-09-02T22:07:26Z</time>
  <course>11.87</course>
  <speed>0.7247068372797375</speed>
  <fix>3d</fix>
</trkpt>
<trkpt lat="33.8102974" lon="-118.3938824">
  <ele>-0.11</ele>
  <time>2026-09-02T22:07:26Z</time>
  <course>11.87</course>
  <speed>0.7184010022264724</speed>
  <fix>3d</fix>
</trkpt>
<trkpt lat="33.8102975" lon="-118.3938823">
  <ele>-0.11</ele>
  <time>2026-09-02T22:07:26Z</time>
  <course>11.87</course>
  <speed>0.7247068372797375</speed>
  <fix>3d</fix>
</trkpt>
<trkpt lat="33.8102975" lon="-118.3938823">
  <ele>-0.11</ele>
  <time>2026-09-02T22:07:26Z</time>
  <course>11.87</course>
  <speed>0.7247068372797375</speed>
  <fix>3d</fix>
</trkpt>
<trkpt lat="33.8102975" lon="-118.3938822">
  <ele>-0.11</ele>
  <time>2026-09-02T22:07:26Z</time>
  <course>11.87</course>
  <speed>0.7247068372797375</speed>
  <fix>3d</fix>
</trkpt>
<trkpt lat="33.8102976" lon="-118.3938822">
  <ele>-0.11</ele>
  <time>2026-09-02T22:07:26Z</time>
  <course>11.87</course>
  <speed>0.7247068372797375</speed>
  <fix>3d</fix>
</trkpt>
<trkpt lat="33.8102976" lon="-118.3938821">
  <ele>-0.111</ele>
  <time>2026-09-02T22:07:26Z</time>
  <course>11.87</course>
  <speed>0.7247068372797375</speed>
  <fix>3d</fix>
</trkpt>
<trkpt lat="33.8102976" lon="-118.3938821">
  <ele>-0.111</ele>
  <time>2026-09-02T22:07:26Z</time>
  <course>11.88</course>
  <speed>0.7184010022264724</speed>
  <fix>3d</fix>
</trkpt>
<trkpt lat="33.8102977" lon="-118.3938821">
  <ele>-0.111</ele>
  <time>2026-09-02T22:07:26Z</time>
  <course>11.88</course>
  <speed>0.7247068372797375</speed>
  <fix>3d</fix>
</trkpt>
<trkpt lat="33.8102969" lon="-118.3938837">
  <ele>-0.1</ele>
  <time>2026-09-02T22:07:26Z</time>
  <course>48.66</course>
  <speed>0.73</speed>
  <fix>3d</fix>
</trkpt>
<trkpt lat="33.8102977" lon="-118.393882">
  <ele>-0.111</ele>
  <time>2026-09-02T22:07:26Z</time>
  <course>11.88</course>
  <speed>0.7247068372797375</speed>
  <fix>3d</fix>
</trkpt>
<trkpt lat="33.8102977" lon="-118.3938819">
  <ele>-0.111</ele>
  <time>2026-09-02T22:07:26Z</time>
  <course>11.88</course>
  <speed>0.7184010022264724</speed>
  <fix>3d</fix>
</trkpt>
<trkpt lat="33.8102978" lon="-118.3938819">
  <ele>-0.111</ele>
  <time>2026-09-02T22:07:26Z</time>
  <course>11.88</course>
  <speed>0.7184010022264724</speed>
  <fix>3d</fix>
</trkpt>
<trkpt lat="33.8102978" lon="-118.3938818">
  <ele>-0.111</ele>
  <time>2026-09-02T22:07:26Z</time>
  <course>11.88</course>
  <speed>0.7184010022264724</speed>
  <fix>3d</fix>
</trkpt>
<trkpt lat="33.8102978" lon="-118.3938818">
  <ele>-0.111</ele>
  <time>2026-09-02T22:07:26Z</time>
  <course>11.88</course>
  <speed>0.7184010022264724</speed>
  <fix>3d</fix>
</trkpt>
<trkpt lat="33.8102979" lon="-118.3938817">
  <ele>-0.111</ele>
  <time>2026-09-02T22:07:26Z</time>
  <course>11.88</course>
  <speed>0.7184010022264724</speed>
  <fix>3d</fix>
</trkpt>
<trkpt lat="33.8102979" lon="-118.3938817">
  <ele>-0.111</ele>
  <time>2026-09-02T22:07:26Z</time>
  <course>11.88</course>
  <speed>0.7184010022264724</speed>
  <fix>3d</fix>
</trkpt>
<trkpt lat="33.810298" lon="-118.3938816">
  <ele>-0.112</ele>
  <time>2026-09-02T22:07:26Z</time>
  <course>11.88</course>
  <speed>0.7184010022264724</speed>
  <fix>3d</fix>
</trkpt>
<trkpt lat="33.810298" lon="-118.3938816">
  <ele>-0.112</ele>
  <time>2026-09-02T22:07:26Z</time>
  <course>11.88</course>
  <speed>0.7247068372797375</speed>
  <fix>3d</fix>
</trkpt>
<trkpt lat="33.8102981" lon="-118.3938815">
  <ele>-0.112</ele>
  <time>2026-09-02T22:07:26Z</time>
  <course>11.88</course>
  <speed>0.7247068372797375</speed>
  <fix>3d</fix>
</trkpt>
<trkpt lat="33.8102981" lon="-118.3938815">
  <ele>-0.112</ele>
  <time>2026-09-02T22:07:26Z</time>
  <course>11.88</course>
  <speed>0.7247068372797375</speed>
  <fix>3d</fix>
</trkpt>
<trkpt lat="33.8102977" lon="-118.3938825">
  <ele>-0.11</ele>
  <time>2026-09-02T22:07:26Z</time>
  <course>48.67</course>
  <speed>0.73</speed>
  <fix>3d</fix>
</trkpt>
<trkpt lat="33.8102981" lon="-118.3938814">
  <ele>-0.112</ele>
  <time>2026-09-02T22:07:26Z</time>
  <course>11.88</course>
  <speed>0.7247068372797375</speed>
  <fix>3d</fix>
</trkpt>
<trkpt lat="33.8102982" lon="-118.3938814">
  <ele>-0.112</ele>
  <time>2026-09-02T22:07:26Z</time>
  <course>11.88</course>
  <speed>0.7247068372797375</speed>
  <fix>3d</fix>
</trkpt>
<trkpt lat="33.8102982" lon="-118.3938813">
  <ele>-0.113</ele>
  <time>2026-09-02T22:07:26Z</time>
  <course>11.88</course>
  <speed>0.7247068372797375</speed>
  <fix>3d</fix>
</trkpt>
<trkpt lat="33.8102982" lon="-118.3938813">
  <ele>-0.113</ele>
  <time>2026-09-02T22:07:26Z</time>
  <course>11.88</course>
  <speed>0.7247068372797375</speed>
  <fix>3d</fix>
</trkpt>
<trkpt lat="33.8102983" lon="-118.3938812">
  <ele>-0.113</ele>
  <time>2026-09-02T22:07:26Z</time>
  <course>11.88</course>
  <speed>0.7247068372797375</speed>
  <fix>3d</fix>
</trkpt>
<trkpt lat="33.8102983" lon="-118.3938812">
  <ele>-0.113</ele>
  <time>2026-09-02T22:07:26Z</time>
  <course>11.88</course>
  <speed>0.7247068372797375</speed>
  <fix>3d</fix>
</trkpt>
<trkpt lat="33.8102983" lon="-118.3938811">
  <ele>-0.113</ele>
  <time>2026-09-02T22:07:26Z</time>
  <course>11.88</course>
  <speed>0.7247068372797375</speed>
  <fix>3d</fix>
</trkpt>
<trkpt lat="33.8102984" lon="-118.3938811">
  <ele>-0.113</ele>
  <time>2026-09-02T22:07:26Z</time>
  <course>11.88</course>
  <speed>0.7247068372797375</speed>
  <fix>3d</fix>
</trkpt>
<trkpt lat="33.8102984" lon="-118.393881">
  <ele>-0.113</ele>
  <time>2026-09-02T22:07:26Z</time>
  <course>11.88</course>
  <speed>0.7247068372797375</speed>
  <fix>3d</fix>
</trkpt>
<trkpt lat="33.8102984" lon="-118.393881">
  <ele>-0.113</ele>
  <time>2026-09-02T22:07:26Z</time>
  <course>11.88</course>
  <speed>0.7247068372797375</speed>
  <fix>3d</fix>
</trkpt>
<trkpt lat="33.8102985" lon="-118.3938809">
  <ele>-0.113</ele>
  <time>2026-09-02T22:07:26Z</time>
  <course>11.88</course>
  <speed>0.7247068372797375</speed>
  <fix>3d</fix>
</trkpt>
<trkpt lat="33.8102985" lon="-118.3938809">
  <ele>-0.113</ele>
  <time>2026-09-02T22:07:26Z</time>
  <course>11.88</course>
  <speed>0.7184010022264724</speed>
  <fix>3d</fix>
</trkpt>
<trkpt lat="33.8102985" lon="-118.3938809">
  <ele>-0.113</ele>
  <time>2026-09-02T22:07:26Z</time>
  <course>11.88</course>
  <speed>0.7247068372797375</speed>
  <fix>3d</fix>
</trkpt>
<trkpt lat="33.8102977" lon="-118.3938825">
  <ele>-0.11</ele>
  <time>2026-09-02T22:07:26Z</time>
  <course>48.67</course>
  <speed>0.73</speed>
  <fix>3d</fix>
</trkpt>
<trkpt lat="33.8102985" lon="-118.3938809">
  <ele>-0.113</ele>
  <time>2026-09-02T22:07:26Z</time>
  <course>11.88</course>
  <speed>0.7247068372797375</speed>
  <fix>3d</fix>
</trkpt>
<trkpt lat="33.8102986" lon="-118.3938808">
  <ele>-0.113</ele>
  <time>2026-09-02T22:07:26Z</time>
  <course>11.88</course>
  <speed>0.7184010022264724</speed>
  <fix>3d</fix>
</trkpt>
<trkpt lat="33.8102986" lon="-118.3938807">
  <ele>-0.113</ele>
  <time>2026-09-02T22:07:26Z</time>
  <course>11.88</course>
  <speed>0.7184010022264724</speed>
  <fix>3d</fix>
</trkpt>
<trkpt lat="33.8102986" lon="-118.3938807">
  <ele>-0.113</ele>
  <time>2026-09-02T22:07:26Z</time>
  <course>11.88</course>
  <speed>0.7184010022264724</speed>
  <fix>3d</fix>
</trkpt>
<trkpt lat="33.8102987" lon="-118.3938807">
  <ele>-0.113</ele>
  <time>2026-09-02T22:07:26Z</time>
  <course>11.88</course>
  <speed>0.7184010022264724</speed>
  <fix>3d</fix>
</trkpt>
<trkpt lat="33.8102987" lon="-118.3938806">
  <ele>-0.113</ele>
  <time>2026-09-02T22:07:26Z</time>
  <course>11.88</course>
  <speed>0.7184010022264724</speed>
  <fix>3d</fix>
</trkpt>
<trkpt lat="33.8102987" lon="-118.3938806">
  <ele>-0.113</ele>
  <time>2026-09-02T22:07:26Z</time>
  <course>11.88</course>
  <speed>0.7184010022264724</speed>
  <fix>3d</fix>
</trkpt>
<trkpt lat="33.8102988" lon="-118.3938805">
  <ele>-0.113</ele>
  <time>2026-09-02T22:07:26Z</time>
  <course>11.89</course>
  <speed>0.7184010022264724</speed>
  <fix>3d</fix>
</trkpt>
<trkpt lat="33.8102988" lon="-118.3938805">
  <ele>-0.113</ele>
  <time>2026-09-02T22:07:26Z</time>
  <course>11.89</course>
  <speed>0.7184010022264724</speed>
  <fix>3d</fix>
</trkpt>
<trkpt lat="33.8102989" lon="-118.3938804">
  <ele>-0.113</ele>
  <time>2026-09-02T22:07:26Z</time>
  <course>11.89</course>
  <speed>0.7247068372797375</speed>
  <fix>3d</fix>
</trkpt>
<trkpt lat="33.8102989" lon="-118.3938804">
  <ele>-0.113</ele>
  <time>2026-09-02T22:07:26Z</time>
  <course>11.89</course>
  <speed>0.7184010022264724</speed>
  <fix>3d</fix>
</trkpt>
<trkpt lat="33.8102989" lon="-118.3938803">
  <ele>-0.112</ele>
  <time>2026-09-02T22:07:26Z</time>
  <course>11.89</course>
  <speed>0.7184010022264724</speed>
  <fix>3d</fix>
</trkpt>
<trkpt lat="33.810299" lon="-118.3938803">
  <ele>-0.112</ele>
  <time>2026-09-02T22:07:26Z</time>
  <course>11.89</course>
  <speed>0.7247068372797375</speed>
  <fix>3d</fix>
</trkpt>
<trkpt lat="33.8102986" lon="-118.3938813">
  <ele>-0.1</ele>
  <time>2026-09-02T22:07:26Z</time>
  <course>48.67</course>
  <speed>0.73</speed>
  <fix>3d</fix>
</trkpt>
<trkpt lat="33.810299" lon="-118.3938803">
  <ele>-0.112</ele>
  <time>2026-09-02T22:07:26Z</time>
  <course>11.89</course>
  <speed>0.7247068372797375</speed>
  <fix>3d</fix>
</trkpt>
<trkpt lat="33.810299" lon="-118.3938802">
  <ele>-0.112</ele>
  <time>2026-09-02T22:07:26Z</time>
  <course>11.89</course>
  <speed>0.7247068372797375</speed>
  <fix>3d</fix>
</trkpt>
<trkpt lat="33.8102991" lon="-118.3938801">
  <ele>-0.112</ele>
  <time>2026-09-02T22:07:26Z</time>
  <course>11.89</course>
  <speed>0.7247068372797375</speed>
  <fix>3d</fix>
</trkpt>
<trkpt lat="33.8102991" lon="-118.39388">
  <ele>-0.112</ele>
  <time>2026-09-02T22:07:26Z</time>
  <course>11.89</course>
  <speed>0.7247068372797375</speed>
  <fix>3d</fix>
</trkpt>
<trkpt lat="33.8102992" lon="-118.39388">
  <ele>-0.112</ele>
  <time>2026-09-02T22:07:26Z</time>
  <course>11.89</course>
  <speed>0.7184010022264724</speed>
  <fix>3d</fix>
</trkpt>
<trkpt lat="33.8102992" lon="-118.3938799">
  <ele>-0.112</ele>
  <time>2026-09-02T22:07:26Z</time>
  <course>11.89</course>
  <speed>0.7247068372797375</speed>
  <fix>3d</fix>
</trkpt>
<trkpt lat="33.8102993" lon="-118.3938799">
  <ele>-0.112</ele>
  <time>2026-09-02T22:07:26Z</time>
  <course>11.89</course>
  <speed>0.7247068372797375</speed>
  <fix>3d</fix>
</trkpt>
<trkpt lat="33.8102993" lon="-118.3938798">
  <ele>-0.112</ele>
  <time>2026-09-02T22:07:26Z</time>
  <course>11.89</course>
  <speed>0.7184010022264724</speed>
  <fix>3d</fix>
</trkpt>
<trkpt lat="33.8102993" lon="-118.3938798">
  <ele>-0.112</ele>
  <time>2026-09-02T22:07:26Z</time>
  <course>11.89</course>
  <speed>0.7247068372797375</speed>
  <fix>3d</fix>
</trkpt>
<trkpt lat="33.8102994" lon="-118.3938797">
  <ele>-0.112</ele>
  <time>2026-09-02T22:07:26Z</time>
  <course>11.89</course>
  <speed>0.7247068372797375</speed>
  <fix>3d</fix>
</trkpt>
<trkpt lat="33.8102994" lon="-118.3938797">
  <ele>-0.112</ele>
  <time>2026-09-02T22:07:26Z</time>
  <course>11.89</course>
  <speed>0.7184010022264724</speed>
  <fix>3d</fix>
</trkpt>
<trkpt lat="33.8102994" lon="-118.3938797">
  <ele>-0.112</ele>
  <time>2026-09-02T22:07:26Z</time>
  <course>11.89</course>
  <speed>0.7184010022264724</speed>
  <fix>3d</fix>
</trkpt>
<trkpt lat="33.8102986" lon="-118.3938813">
  <ele>-0.1</ele>
  <time>2026-09-02T22:07:26Z</time>
  <course>48.67</course>
  <speed>0.73</speed>
  <fix>3d</fix>
</trkpt>
<trkpt lat="33.8102994" lon="-118.3938797">
  <ele>-0.112</ele>
  <time>2026-09-02T22:07:26Z</time>
  <course>11.89</course>
  <speed>0.7184010022264724</speed>
  <fix>3d</fix>
</trkpt>
<trkpt lat="33.8102995" lon="-118.3938796">
  <ele>-0.112</ele>
  <time>2026-09-02T22:07:26Z</time>
  <course>11.89</course>
  <speed>0.7184010022264724</speed>
  <fix>3d</fix>
</trkpt>
<trkpt lat="33.8102995" lon="-118.3938795">
  <ele>-0.112</ele>
  <time>2026-09-02T22:07:26Z</time>
  <course>11.89</course>
  <speed>0.7184010022264724</speed>
  <fix>3d</fix>
</trkpt>
<trkpt lat="33.8102996" lon="-118.3938794">
  <ele>-0.112</ele>
  <time>2026-09-02T22:07:26Z</time>
  <course>11.89</course>
  <speed>0.7184010022264724</speed>
  <fix>3d</fix>
</trkpt>
<trkpt lat="33.8102996" lon="-118.3938794">
  <ele>-0.112</ele>
  <time>2026-09-02T22:07:26Z</time>
  <course>11.89</course>
  <speed>0.7184010022264724</speed>
  <fix>3d</fix>
</trkpt>
<trkpt lat="33.8102996" lon="-118.3938794">
  <ele>-0.112</ele>
  <time>2026-09-02T22:07:26Z</time>
  <course>11.89</course>
  <speed>0.7184010022264724</speed>
  <fix>3d</fix>
</trkpt>
<trkpt lat="33.8102997" lon="-118.3938793">
  <ele>-0.112</ele>
  <time>2026-09-02T22:07:26Z</time>
  <course>11.89</course>
  <speed>0.7184010022264724</speed>
  <fix>3d</fix>
</trkpt>
<trkpt lat="33.8102997" lon="-118.3938792">
  <ele>-0.112</ele>
  <time>2026-09-02T22:07:26Z</time>
  <course>11.89</course>
  <speed>0.7184010022264724</speed>
  <fix>3d</fix>
</trkpt>
<trkpt lat="33.8102998" lon="-118.3938792">
  <ele>-0.112</ele>
  <time>2026-09-02T22:07:26Z</time>
  <course>11.89</course>
  <speed>0.7184010022264724</speed>
  <fix>3d</fix>
</trkpt>
<trkpt lat="33.8102998" lon="-118.3938791">
  <ele>-0.112</ele>
  <time>2026-09-02T22:07:26Z</time>
  <course>11.89</course>
  <speed>0.7247068372797375</speed>
  <fix>3d</fix>
</trkpt>
<trkpt lat="33.8102998" lon="-118.3938791">
  <ele>-0.112</ele>
  <time>2026-09-02T22:07:26Z</time>
  <course>11.89</course>
  <speed>0.7184010022264724</speed>
  <fix>3d</fix>
</trkpt>
<trkpt lat="33.8102998" lon="-118.3938791">
  <ele>-0.112</ele>
  <time>2026-09-02T22:07:26Z</time>
  <course>11.89</course>
  <speed>0.7247068372797375</speed>
  <fix>3d</fix>
</trkpt>
<trkpt lat="33.8102995" lon="-118.3938801">
  <ele>-0.1</ele>
  <time>2026-09-02T22:07:26Z</time>
  <course>48.68</course>
  <speed>0.73</speed>
  <fix>3d</fix>
</trkpt>
<trkpt lat="33.8102999" lon="-118.3938791">
  <ele>-0.112</ele>
  <time>2026-09-02T22:07:26Z</time>
  <course>11.89</course>
  <speed>0.7247068372797375</speed>
  <fix>3d</fix>
</trkpt>
<trkpt lat="33.8102999" lon="-118.393879">
  <ele>-0.112</ele>
  <time>2026-09-02T22:07:26Z</time>
  <course>11.89</course>
  <speed>0.7247068372797375</speed>
  <fix>3d</fix>
</trkpt>
<trkpt lat="33.8103" lon="-118.3938789">
  <ele>-0.112</ele>
  <time>2026-09-02T22:07:26Z</time>
  <course>11.9</course>
  <speed>0.7247068372797375</speed>
  <fix>3d</fix>
</trkpt>
<trkpt lat="33.8103" lon="-118.3938789">
  <ele>-0.112</ele>
  <time>2026-09-02T22:07:26Z</time>
  <course>11.9</course>
  <speed>0.7247068372797375</speed>
  <fix>3d</fix>
</trkpt>
<trkpt lat="33.8103" lon="-118.3938788">
  <ele>-0.112</ele>
  <time>2026-09-02T22:07:26Z</time>
  <course>11.9</course>
  <speed>0.7247068372797375</speed>
  <fix>3d</fix>
</trkpt>
<trkpt lat="33.8103001" lon="-118.3938788">
  <ele>-0.112</ele>
  <time>2026-09-02T22:07:26Z</time>
  <course>11.9</course>
  <speed>0.7247068372797375</speed>
  <fix>3d</fix>
</trkpt>
<trkpt lat="33.8103001" lon="-118.3938787">
  <ele>-0.112</ele>
  <time>2026-09-02T22:07:26Z</time>
  <course>11.9</course>
  <speed>0.7247068372797375</speed>
  <fix>3d</fix>
</trkpt>
<trkpt lat="33.8103001" lon="-118.3938787">
  <ele>-0.112</ele>
  <time>2026-09-02T22:07:26Z</time>
  <course>11.9</course>
  <speed>0.7247068372797375</speed>
  <fix>3d</fix>
</trkpt>
<trkpt lat="33.8103002" lon="-118.3938786">
  <ele>-0.112</ele>
  <time>2026-09-02T22:07:26Z</time>
  <course>11.9</course>
  <speed>0.7247068372797375</speed>
  <fix>3d</fix>
</trkpt>
<trkpt lat="33.8103002" lon="-118.3938786">
  <ele>-0.112</ele>
  <time>2026-09-02T22:07:26Z</time>
  <course>11.9</course>
  <speed>0.7184010022264724</speed>
  <fix>3d</fix>
</trkpt>
<trkpt lat="33.8103002" lon="-118.3938785">
  <ele>-0.112</ele>
  <time>2026-09-02T22:07:26Z</time>
  <course>11.9</course>
  <speed>0.7184010022264724</speed>
  <fix>3d</fix>
</trkpt>
<trkpt lat="33.8103003" lon="-118.3938785">
  <ele>-0.112</ele>
  <time>2026-09-02T22:07:26Z</time>
  <course>11.9</course>
  <speed>0.7247068372797375</speed>
  <fix>3d</fix>
</trkpt>
<trkpt lat="33.8102995" lon="-118.3938801">
  <ele>-0.1</ele>
  <time>2026-09-02T22:07:26Z</time>
  <course>48.68</course>
  <speed>0.73</speed>
  <fix>3d</fix>
</trkpt>
<trkpt lat="33.8103003" lon="-118.3938785">
  <ele>-0.112</ele>
  <time>2026-09-02T22:07:26Z</time>
  <course>11.9</course>
  <speed>0.7184010022264724</speed>
  <fix>3d</fix>
</trkpt>
<trkpt lat="33.8103004" lon="-118.3938784">
  <ele>-0.112</ele>
  <time>2026-09-02T22:07:26Z</time>
  <course>11.9</course>
  <speed>0.7184010022264724</speed>
  <fix>3d</fix>
</trkpt>
<trkpt lat="33.8103004" lon="-118.3938783">
  <ele>-0.112</ele>
  <time>2026-09-02T22:07:26Z</time>
  <course>11.9</course>
  <speed>0.7184010022264724</speed>
  <fix>3d</fix>
</trkpt>
<trkpt lat="33.8103005" lon="-118.3938782">
  <ele>-0.112</ele>
  <time>2026-09-02T22:07:26Z</time>
  <course>11.9</course>
  <speed>0.7184010022264724</speed>
  <fix>3d</fix>
</trkpt>
<trkpt lat="33.8103005" lon="-118.3938782">
  <ele>-0.112</ele>
  <time>2026-09-02T22:07:26Z</time>
  <course>11.9</course>
  <speed>0.7184010022264724</speed>
  <fix>3d</fix>
</trkpt>
<trkpt lat="33.8103005" lon="-118.3938781">
  <ele>-0.112</ele>
  <time>2026-09-02T22:07:26Z</time>
  <course>11.9</course>
  <speed>0.7184010022264724</speed>
  <fix>3d</fix>
</trkpt>
<trkpt lat="33.8103006" lon="-118.3938781">
  <ele>-0.112</ele>
  <time>2026-09-02T22:07:26Z</time>
  <course>11.9</course>
  <speed>0.7184010022264724</speed>
  <fix>3d</fix>
</trkpt>
<trkpt lat="33.8103006" lon="-118.393878">
  <ele>-0.112</ele>
  <time>2026-09-02T22:07:26Z</time>
  <course>11.9</course>
  <speed>0.7247068372797375</speed>
  <fix>3d</fix>
</trkpt>
<trkpt lat="33.8103007" lon="-118.393878">
  <ele>-0.112</ele>
  <time>2026-09-02T22:07:26Z</time>
  <course>11.9</course>
  <speed>0.7184010022264724</speed>
  <fix>3d</fix>
</trkpt>
<trkpt lat="33.8103007" lon="-118.3938779">
  <ele>-0.112</ele>
  <time>2026-09-02T22:07:26Z</time>
  <course>11.9</course>
  <speed>0.7247068372797375</speed>
  <fix>3d</fix>
</trkpt>
<trkpt lat="33.8103007" lon="-118.3938779">
  <ele>-0.112</ele>
  <time>2026-09-02T22:07:26Z</time>
  <course>11.9</course>
  <speed>0.7247068372797375</speed>
  <fix>3d</fix>
</trkpt>
<trkpt lat="33.8103007" lon="-118.3938779">
  <ele>-0.112</ele>
  <time>2026-09-02T22:07:26Z</time>
  <course>11.9</course>
  <speed>0.7247068372797375</speed>
  <fix>3d</fix>
</trkpt>
<trkpt lat="33.8103003" lon="-118.3938789">
  <ele>-0.1</ele>
  <time>2026-09-02T22:07:26Z</time>
  <course>48.69</course>
  <speed>0.73</speed>
  <fix>3d</fix>
</trkpt>
<trkpt lat="33.8103008" lon="-118.3938778">
  <ele>-0.112</ele>
  <time>2026-09-02T22:07:26Z</time>
  <course>11.9</course>
  <speed>0.7247068372797375</speed>
  <fix>3d</fix>
</trkpt>
<trkpt lat="33.8103008" lon="-118.3938777">
  <ele>-0.112</ele>
  <time>2026-09-02T22:07:26Z</time>
  <course>11.9</course>
  <speed>0.7247068372797375</speed>
  <fix>3d</fix>
</trkpt>
<trkpt lat="33.8103009" lon="-118.3938777">
  <ele>-0.112</ele>
  <time>2026-09-02T22:07:26Z</time>
  <course>11.9</course>
  <speed>0.7184010022264724</speed>
  <fix>3d</fix>
</trkpt>
<trkpt lat="33.8103009" lon="-118.3938776">
  <ele>-0.113</ele>
  <time>2026-09-02T22:07:26Z</time>
  <course>11.9</course>
  <speed>0.7184010022264724</speed>
  <fix>3d</fix>
</trkpt>
<trkpt lat="33.810301" lon="-118.3938776">
  <ele>-0.113</ele>
  <time>2026-09-02T22:07:26Z</time>
  <course>11.9</course>
  <speed>0.7184010022264724</speed>
  <fix>3d</fix>
</trkpt>
<trkpt lat="33.810301" lon="-118.3938775">
  <ele>-0.113</ele>
  <time>2026-09-02T22:07:26Z</time>
  <course>11.9</course>
  <speed>0.7184010022264724</speed>
  <fix>3d</fix>
</trkpt>
<trkpt lat="33.8103011" lon="-118.3938774">
  <ele>-0.113</ele>
  <time>2026-09-02T22:07:26Z</time>
  <course>11.9</course>
  <speed>0.7184010022264724</speed>
  <fix>3d</fix>
</trkpt>
<trkpt lat="33.8103011" lon="-118.3938773">
  <ele>-0.113</ele>
  <time>2026-09-02T22:07:26Z</time>
  <course>11.9</course>
  <speed>0.7184010022264724</speed>
  <fix>3d</fix>
</trkpt>
<trkpt lat="33.8103012" lon="-118.3938773">
  <ele>-0.113</ele>
  <time>2026-09-02T22:07:26Z</time>
  <course>11.9</course>
  <speed>0.7184010022264724</speed>
  <fix>3d</fix>
</trkpt>
<trkpt lat="33.8103003" lon="-118.3938789">
  <ele>-0.1</ele>
  <time>2026-09-02T22:07:26Z</time>
  <course>48.69</course>
  <speed>0.73</speed>
  <fix>3d</fix>
</trkpt>
<trkpt lat="33.8103012" lon="-118.3938773">
  <ele>-0.113</ele>
  <time>2026-09-02T22:07:26Z</time>
  <course>11.9</course>
  <speed>0.7184010022264724</speed>
  <fix>3d</fix>
</trkpt>
<trkpt lat="33.8103012" lon="-118.3938772">
  <ele>-0.113</ele>
  <time>2026-09-02T22:07:26Z</time>
  <course>11.91</course>
  <speed>0.7184010022264724</speed>
  <fix>3d</fix>
</trkpt>
<trkpt lat="33.8103013" lon="-118.3938771">
  <ele>-0.114</ele>
  <time>2026-09-02T22:07:26Z</time>
  <course>11.91</course>
  <speed>0.7184010022264724</speed>
  <fix>3d</fix>
</trkpt>
<trkpt lat="33.8103013" lon="-118.393877">
  <ele>-0.113</ele>
  <time>2026-09-02T22:07:26Z</time>
  <course>11.91</course>
  <speed>0.7184010022264724</speed>
  <fix>3d</fix>
</trkpt>
<trkpt lat="33.8103014" lon="-118.393877">
  <ele>-0.114</ele>
  <time>2026-09-02T22:07:26Z</time>
  <course>11.91</course>
  <speed>0.7184010022264724</speed>
  <fix>3d</fix>
</trkpt>
<trkpt lat="33.8103014" lon="-118.393877">
  <ele>-0.113</ele>
  <time>2026-09-02T22:07:26Z</time>
  <course>11.91</course>
  <speed>0.7184010022264724</speed>
  <fix>3d</fix>
</trkpt>
<trkpt lat="33.8103014" lon="-118.3938769">
  <ele>-0.113</ele>
  <time>2026-09-02T22:07:26Z</time>
  <course>11.91</course>
  <speed>0.7184010022264724</speed>
  <fix>3d</fix>
</trkpt>
<trkpt lat="33.8103015" lon="-118.3938769">
  <ele>-0.113</ele>
  <time>2026-09-02T22:07:26Z</time>
  <course>11.91</course>
  <speed>0.7184010022264724</speed>
  <fix>3d</fix>
</trkpt>
<trkpt lat="33.8103015" lon="-118.3938768">
  <ele>-0.113</ele>
  <time>2026-09-02T22:07:26Z</time>
  <course>11.91</course>
  <speed>0.7184010022264724</speed>
  <fix>3d</fix>
</trkpt>
<trkpt lat="33.8103015" lon="-118.3938768">
  <ele>-0.113</ele>
  <time>2026-09-02T22:07:26Z</time>
  <course>11.91</course>
  <speed>0.7184010022264724</speed>
  <fix>3d</fix>
</trkpt>
<trkpt lat="33.8103016" lon="-118.3938767">
  <ele>-0.113</ele>
  <time>2026-09-02T22:07:26Z</time>
  <course>11.91</course>
  <speed>0.7184010022264724</speed>
  <fix>3d</fix>
</trkpt>
<trkpt lat="33.8103016" lon="-118.3938767">
  <ele>-0.113</ele>
  <time>2026-09-02T22:07:26Z</time>
  <course>11.91</course>
  <speed>0.7184010022264724</speed>
  <fix>3d</fix>
</trkpt>
<trkpt lat="33.8103012" lon="-118.3938777">
  <ele>-0.1</ele>
  <time>2026-09-02T22:07:26Z</time>
  <course>48.7</course>
  <speed>0.73</speed>
  <fix>3d</fix>
</trkpt>
<trkpt lat="33.8103016" lon="-118.3938766">
  <ele>-0.113</ele>
  <time>2026-09-02T22:07:26Z</time>
  <course>11.91</course>
  <speed>0.7184010022264724</speed>
  <fix>3d</fix>
</trkpt>
<trkpt lat="33.8103017" lon="-118.3938766">
  <ele>-0.113</ele>
  <time>2026-09-02T22:07:26Z</time>
  <course>11.91</course>
  <speed>0.7184010022264724</speed>
  <fix>3d</fix>
</trkpt>
<trkpt lat="33.8103017" lon="-118.3938765">
  <ele>-0.113</ele>
  <time>2026-09-02T22:07:26Z</time>
  <course>11.91</course>
  <speed>0.7184010022264724</speed>
  <fix>3d</fix>
</trkpt>
<trkpt lat="33.8103017" lon="-118.3938765">
  <ele>-0.113</ele>
  <time>2026-09-02T22:07:26Z</time>
  <course>11.91</course>
  <speed>0.7184010022264724</speed>
  <fix>3d</fix>
</trkpt>
<trkpt lat="33.8103018" lon="-118.3938764">
  <ele>-0.113</ele>
  <time>2026-09-02T22:07:26Z</time>
  <course>11.91</course>
  <speed>0.7184010022264724</speed>
  <fix>3d</fix>
</trkpt>
<trkpt lat="33.8103018" lon="-118.3938764">
  <ele>-0.113</ele>
  <time>2026-09-02T22:07:26Z</time>
  <course>11.91</course>
  <speed>0.7184010022264724</speed>
  <fix>3d</fix>
</trkpt>
<trkpt lat="33.8103018" lon="-118.3938763">
  <ele>-0.113</ele>
  <time>2026-09-02T22:07:26Z</time>
  <course>11.91</course>
  <speed>0.7184010022264724</speed>
  <fix>3d</fix>
</trkpt>
<trkpt lat="33.8103019" lon="-118.3938763">
  <ele>-0.113</ele>
  <time>2026-09-02T22:07:26Z</time>
  <course>11.91</course>
  <speed>0.7184010022264724</speed>
  <fix>3d</fix>
</trkpt>
<trkpt lat="33.8103019" lon="-118.3938762">
  <ele>-0.113</ele>
  <time>2026-09-02T22:07:26Z</time>
  <course>11.91</course>
  <speed>0.7184010022264724</speed>
  <fix>3d</fix>
</trkpt>
<trkpt lat="33.810302" lon="-118.3938762">
  <ele>-0.113</ele>
  <time>2026-09-02T22:07:26Z</time>
  <course>11.91</course>
  <speed>0.7184010022264724</speed>
  <fix>3d</fix>
</trkpt>
<trkpt lat="33.810302" lon="-118.3938761">
  <ele>-0.113</ele>
  <time>2026-09-02T22:07:26Z</time>
  <course>11.91</course>
  <speed>0.7184010022264724</speed>
  <fix>3d</fix>
</trkpt>
<trkpt lat="33.810302" lon="-118.3938761">
  <ele>-0.113</ele>
  <time>2026-09-02T22:07:26Z</time>
  <course>11.91</course>
  <speed>0.7184010022264724</speed>
  <fix>3d</fix>
</trkpt>
<trkpt lat="33.810302" lon="-118.3938761">
  <ele>-0.113</ele>
  <time>2026-09-02T22:07:26Z</time>
  <course>11.91</course>
  <speed>0.7184010022264724</speed>
  <fix>3d</fix>
</trkpt>
<trkpt lat="33.8103012" lon="-118.3938777">
  <ele>-0.1</ele>
  <time>2026-09-02T22:07:26Z</time>
  <course>48.7</course>
  <speed>0.73</speed>
  <fix>3d</fix>
</trkpt>
<trkpt lat="33.8103022" lon="-118.3938758">
  <ele>-0.113</ele>
  <time>2026-09-02T22:07:26Z</time>
  <course>11.91</course>
  <speed>0.7184010022264724</speed>
  <fix>3d</fix>
</trkpt>
<trkpt lat="33.8103023" lon="-118.3938757">
  <ele>-0.113</ele>
  <time>2026-09-02T22:07:26Z</time>
  <course>11.92</course>
  <speed>0.7184010022264724</speed>
  <fix>3d</fix>
</trkpt>
<trkpt lat="33.8103024" lon="-118.3938756">
  <ele>-0.113</ele>
  <time>2026-09-02T22:07:26Z</time>
  <course>11.92</course>
  <speed>0.7184010022264724</speed>
  <fix>3d</fix>
</trkpt>
<trkpt lat="33.8103024" lon="-118.3938756">
  <ele>-0.113</ele>
  <time>2026-09-02T22:07:26Z</time>
  <course>11.92</course>
  <speed>0.7184010022264724</speed>
  <fix>3d</fix>
</trkpt>
<trkpt lat="33.8103025" lon="-118.3938755">
  <ele>-0.113</ele>
  <time>2026-09-02T22:07:26Z</time>
  <course>11.92</course>
  <speed>0.7184010022264724</speed>
  <fix>3d</fix>
</trkpt>
<trkpt lat="33.8103025" lon="-118.3938755">
  <ele>-0.113</ele>
  <time>2026-09-02T22:07:26Z</time>
  <course>11.92</course>
  <speed>0.7184010022264724</speed>
  <fix>3d</fix>
</trkpt>
<trkpt lat="33.8103021" lon="-118.3938765">
  <ele>-0.1</ele>
  <time>2026-09-02T22:07:26Z</time>
  <course>48.7</course>
  <speed>0.73</speed>
  <fix>3d</fix>
</trkpt>
<trkpt lat="33.8103025" lon="-118.3938755">
  <ele>-0.113</ele>
  <time>2026-09-02T22:07:26Z</time>
  <course>11.92</course>
  <speed>0.7184010022264724</speed>
  <fix>3d</fix>
</trkpt>
<trkpt lat="33.8103026" lon="-118.3938754">
  <ele>-0.113</ele>
  <time>2026-09-02T22:07:26Z</time>
  <course>11.92</course>
  <speed>0.7184010022264724</speed>
  <fix>3d</fix>
</trkpt>
<trkpt lat="33.8103026" lon="-118.3938753">
  <ele>-0.113</ele>
  <time>2026-09-02T22:07:26Z</time>
  <course>11.92</course>
  <speed>0.7184010022264724</speed>
  <fix>3d</fix>
</trkpt>
<trkpt lat="33.8103027" lon="-118.3938752">
  <ele>-0.113</ele>
  <time>2026-09-02T22:07:26Z</time>
  <course>11.92</course>
  <speed>0.7184010022264724</speed>
  <fix>3d</fix>
</trkpt>
<trkpt lat="33.8103027" lon="-118.3938751">
  <ele>-0.113</ele>
  <time>2026-09-02T22:07:26Z</time>
  <course>11.92</course>
  <speed>0.7184010022264724</speed>
  <fix>3d</fix>
</trkpt>
<trkpt lat="33.8103028" lon="-118.3938751">
  <ele>-0.113</ele>
  <time>2026-09-02T22:07:26Z</time>
  <course>11.92</course>
  <speed>0.7184010022264724</speed>
  <fix>3d</fix>
</trkpt>
<trkpt lat="33.8103029" lon="-118.3938749">
  <ele>-0.114</ele>
  <time>2026-09-02T22:07:26Z</time>
  <course>11.92</course>
  <speed>0.7184010022264724</speed>
  <fix>3d</fix>
</trkpt>
<trkpt lat="33.8103021" lon="-118.3938765">
  <ele>-0.1</ele>
  <time>2026-09-02T22:07:26Z</time>
  <course>48.7</course>
  <speed>0.73</speed>
  <fix>3d</fix>
</trkpt>
<trkpt lat="33.810303" lon="-118.3938748">
  <ele>-0.114</ele>
  <time>2026-09-02T22:07:26Z</time>
  <course>11.92</course>
  <speed>0.7184010022264724</speed>
  <fix>3d</fix>
</trkpt>
<trkpt lat="33.810303" lon="-118.3938747">
  <ele>-0.114</ele>
  <time>2026-09-02T22:07:26Z</time>
  <course>11.92</course>
  <speed>0.7184010022264724</speed>
  <fix>3d</fix>
</trkpt>
<trkpt lat="33.810303" lon="-118.3938747">
  <ele>-0.114</ele>
  <time>2026-09-02T22:07:26Z</time>
  <course>11.92</course>
  <speed>0.7184010022264724</speed>
  <fix>3d</fix>
</trkpt>
<trkpt lat="33.8103031" lon="-118.3938746">
  <ele>-0.114</ele>
  <time>2026-09-02T22:07:26Z</time>
  <course>11.92</course>
  <speed>0.7184010022264724</speed>
  <fix>3d</fix>
</trkpt>
<trkpt lat="33.8103031" lon="-118.3938746">
  <ele>-0.114</ele>
  <time>2026-09-02T22:07:26Z</time>
  <course>11.92</course>
  <speed>0.7184010022264724</speed>
  <fix>3d</fix>
</trkpt>
<trkpt lat="33.8103032" lon="-118.3938745">
  <ele>-0.114</ele>
  <time>2026-09-02T22:07:26Z</time>
  <course>11.92</course>
  <speed>0.7184010022264724</speed>
  <fix>3d</fix>
</trkpt>
<trkpt lat="33.8103032" lon="-118.3938744">
  <ele>-0.114</ele>
  <time>2026-09-02T22:07:26Z</time>
  <course>11.92</course>
  <speed>0.7184010022264724</speed>
  <fix>3d</fix>
</trkpt>
<trkpt lat="33.8103033" lon="-118.3938744">
  <ele>-0.114</ele>
  <time>2026-09-02T22:07:26Z</time>
  <course>11.92</course>
  <speed>0.7184010022264724</speed>
  <fix>3d</fix>
</trkpt>
<trkpt lat="33.8103033" lon="-118.3938743">
  <ele>-0.114</ele>
  <time>2026-09-02T22:07:26Z</time>
  <course>11.92</course>
  <speed>0.7184010022264724</speed>
  <fix>3d</fix>
</trkpt>
<trkpt lat="33.8103033" lon="-118.3938743">
  <ele>-0.114</ele>
  <time>2026-09-02T22:07:26Z</time>
  <course>11.92</course>
  <speed>0.7184010022264724</speed>
  <fix>3d</fix>
</trkpt>
<trkpt lat="33.810303" lon="-118.3938753">
  <ele>-0.1</ele>
  <time>2026-09-02T22:07:26Z</time>
  <course>48.71</course>
  <speed>0.73</speed>
  <fix>3d</fix>
</trkpt>
<trkpt lat="33.8103033" lon="-118.3938743">
  <ele>-0.114</ele>
  <time>2026-09-02T22:07:26Z</time>
  <course>11.92</course>
  <speed>0.7184010022264724</speed>
  <fix>3d</fix>
</trkpt>
<trkpt lat="33.8103034" lon="-118.3938742">
  <ele>-0.115</ele>
  <time>2026-09-02T22:07:26Z</time>
  <course>11.92</course>
  <speed>0.7184010022264724</speed>
  <fix>3d</fix>
</trkpt>
<trkpt lat="33.8103035" lon="-118.3938741">
  <ele>-0.115</ele>
  <time>2026-09-02T22:07:26Z</time>
  <course>11.92</course>
  <speed>0.7184010022264724</speed>
  <fix>3d</fix>
</trkpt>
<trkpt lat="33.8103035" lon="-118.3938741">
  <ele>-0.115</ele>
  <time>2026-09-02T22:07:26Z</time>
  <course>11.92</course>
  <speed>0.7184010022264724</speed>
  <fix>3d</fix>
</trkpt>
<trkpt lat="33.8103035" lon="-118.393874">
  <ele>-0.115</ele>
  <time>2026-09-02T22:07:26Z</time>
  <course>11.93</course>
  <speed>0.7184010022264724</speed>
  <fix>3d</fix>
</trkpt>
<trkpt lat="33.8103036" lon="-118.393874">
  <ele>-0.115</ele>
  <time>2026-09-02T22:07:26Z</time>
  <course>11.93</course>
  <speed>0.7184010022264724</speed>
  <fix>3d</fix>
</trkpt>
<trkpt lat="33.8103036" lon="-118.3938739">
  <ele>-0.115</ele>
  <time>2026-09-02T22:07:26Z</time>
  <course>11.93</course>
  <speed>0.7184010022264724</speed>
  <fix>3d</fix>
</trkpt>
<trkpt lat="33.8103036" lon="-118.3938739">
  <ele>-0.115</ele>
  <time>2026-09-02T22:07:26Z</time>
  <course>11.93</course>
  <speed>0.7184010022264724</speed>
  <fix>3d</fix>
</trkpt>
<trkpt lat="33.8103037" lon="-118.3938738">
  <ele>-0.115</ele>
  <time>2026-09-02T22:07:26Z</time>
  <course>11.93</course>
  <speed>0.7184010022264724</speed>
  <fix>3d</fix>
</trkpt>
<trkpt lat="33.8103037" lon="-118.3938738">
  <ele>-0.115</ele>
  <time>2026-09-02T22:07:26Z</time>
  <course>11.93</course>
  <speed>0.7184010022264724</speed>
  <fix>3d</fix>
</trkpt>
<trkpt lat="33.8103037" lon="-118.3938737">
  <ele>-0.115</ele>
  <time>2026-09-02T22:07:26Z</time>
  <course>11.93</course>
  <speed>0.7184010022264724</speed>
  <fix>3d</fix>
</trkpt>
<trkpt lat="33.8103038" lon="-118.3938737">
  <ele>-0.115</ele>
  <time>2026-09-02T22:07:26Z</time>
  <course>11.93</course>
  <speed>0.7184010022264724</speed>
  <fix>3d</fix>
</trkpt>
<trkpt lat="33.810303" lon="-118.3938753">
  <ele>-0.1</ele>
  <time>2026-09-02T22:07:26Z</time>
  <course>48.71</course>
  <speed>0.73</speed>
  <fix>3d</fix>
</trkpt>
<trkpt lat="33.8103038" lon="-118.3938737">
  <ele>-0.115</ele>
  <time>2026-09-02T22:07:26Z</time>
  <course>11.93</course>
  <speed>0.7184010022264724</speed>
  <fix>3d</fix>
</trkpt>
<trkpt lat="33.8103038" lon="-118.3938736">
  <ele>-0.115</ele>
  <time>2026-09-02T22:07:26Z</time>
  <course>11.93</course>
  <speed>0.7184010022264724</speed>
  <fix>3d</fix>
</trkpt>
<trkpt lat="33.8103039" lon="-118.3938735">
  <ele>-0.115</ele>
  <time>2026-09-02T22:07:26Z</time>
  <course>11.93</course>
  <speed>0.7262231062146123</speed>
  <fix>3d</fix>
</trkpt>
<trkpt lat="33.8103039" lon="-118.3938735">
  <ele>-0.115</ele>
  <time>2026-09-02T22:07:26Z</time>
  <course>11.93</course>
  <speed>0.7262231062146123</speed>
  <fix>3d</fix>
</trkpt>
<trkpt lat="33.810304" lon="-118.3938734">
  <ele>-0.115</ele>
  <time>2026-09-02T22:07:26Z</time>
  <course>11.93</course>
  <speed>0.7262231062146123</speed>
  <fix>3d</fix>
</trkpt>
<trkpt lat="33.810304" lon="-118.3938734">
  <ele>-0.115</ele>
  <time>2026-09-02T22:07:26Z</time>
  <course>11.93</course>
  <speed>0.7262231062146123</speed>
  <fix>3d</fix>
</trkpt>
<trkpt lat="33.810304" lon="-118.3938733">
  <ele>-0.115</ele>
  <time>2026-09-02T22:07:26Z</time>
  <course>11.93</course>
  <speed>0.7184010022264724</speed>
  <fix>3d</fix>
</trkpt>
<trkpt lat="33.8103041" lon="-118.3938733">
  <ele>-0.115</ele>
  <time>2026-09-02T22:07:26Z</time>
  <course>11.93</course>
  <speed>0.7262231062146123</speed>
  <fix>3d</fix>
</trkpt>
<trkpt lat="33.8103041" lon="-118.3938732">
  <ele>-0.115</ele>
  <time>2026-09-02T22:07:26Z</time>
  <course>11.93</course>
  <speed>0.7262231062146123</speed>
  <fix>3d</fix>
</trkpt>
<trkpt lat="33.8103042" lon="-118.3938732">
  <ele>-0.115</ele>
  <time>2026-09-02T22:07:26Z</time>
  <course>11.93</course>
  <speed>0.7262231062146123</speed>
  <fix>3d</fix>
</trkpt>
<trkpt lat="33.8103042" lon="-118.3938731">
  <ele>-0.115</ele>
  <time>2026-09-02T22:07:26Z</time>
  <course>11.93</course>
  <speed>0.7184010022264724</speed>
  <fix>3d</fix>
</trkpt>
<trkpt lat="33.8103042" lon="-118.3938731">
  <ele>-0.115</ele>
  <time>2026-09-02T22:07:26Z</time>
  <course>11.93</course>
  <speed>0.7184010022264724</speed>
  <fix>3d</fix>
</trkpt>
<trkpt lat="33.8103038" lon="-118.3938741">
  <ele>-0.1</ele>
  <time>2026-09-02T22:07:26Z</time>
  <course>48.72</course>
  <speed>0.73</speed>
  <fix>3d</fix>
</trkpt>
<trkpt lat="33.8103043" lon="-118.393873">
  <ele>-0.115</ele>
  <time>2026-09-02T22:07:26Z</time>
  <course>11.93</course>
  <speed>0.7262231062146123</speed>
  <fix>3d</fix>
</trkpt>
<trkpt lat="33.8103043" lon="-118.3938729">
  <ele>-0.115</ele>
  <time>2026-09-02T22:07:26Z</time>
  <course>11.93</course>
  <speed>0.7262231062146123</speed>
  <fix>3d</fix>
</trkpt>
<trkpt lat="33.8103044" lon="-118.3938729">
  <ele>-0.115</ele>
  <time>2026-09-02T22:07:26Z</time>
  <course>11.93</course>
  <speed>0.7262231062146123</speed>
  <fix>3d</fix>
</trkpt>
<trkpt lat="33.8103044" lon="-118.3938728">
  <ele>-0.115</ele>
  <time>2026-09-02T22:07:26Z</time>
  <course>11.93</course>
  <speed>0.7262231062146123</speed>
  <fix>3d</fix>
</trkpt>
<trkpt lat="33.8103044" lon="-118.3938728">
  <ele>-0.115</ele>
  <time>2026-09-02T22:07:26Z</time>
  <course>11.93</course>
  <speed>0.7262231062146123</speed>
  <fix>3d</fix>
</trkpt>
<trkpt lat="33.8103045" lon="-118.3938727">
  <ele>-0.115</ele>
  <time>2026-09-02T22:07:26Z</time>
  <course>11.93</course>
  <speed>0.7262231062146123</speed>
  <fix>3d</fix>
</trkpt>
<trkpt lat="33.8103045" lon="-118.3938726">
  <ele>-0.115</ele>
  <time>2026-09-02T22:07:26Z</time>
  <course>11.93</course>
  <speed>0.7262231062146123</speed>
  <fix>3d</fix>
</trkpt>
<trkpt lat="33.8103046" lon="-118.3938726">
  <ele>-0.115</ele>
  <time>2026-09-02T22:07:26Z</time>
  <course>11.93</course>
  <speed>0.7262231062146123</speed>
  <fix>3d</fix>
</trkpt>
<trkpt lat="33.8103046" lon="-118.3938725">
  <ele>-0.115</ele>
  <time>2026-09-02T22:07:26Z</time>
  <course>11.93</course>
  <speed>0.7262231062146123</speed>
  <fix>3d</fix>
</trkpt>
<trkpt lat="33.8103046" lon="-118.3938725">
  <ele>-0.115</ele>
  <time>2026-09-02T22:07:26Z</time>
  <course>11.93</course>
  <speed>0.7262231062146123</speed>
  <fix>3d</fix>
</trkpt>
<trkpt lat="33.8103038" lon="-118.3938741">
  <ele>-0.1</ele>
  <time>2026-09-02T22:07:26Z</time>
  <course>48.72</course>
  <speed>0.73</speed>
  <fix>3d</fix>
</trkpt>
<trkpt lat="33.8103047" lon="-118.3938725">
  <ele>-0.115</ele>
  <time>2026-09-02T22:07:26Z</time>
  <course>11.93</course>
  <speed>0.7262231062146123</speed>
  <fix>3d</fix>
</trkpt>
<trkpt lat="33.8103048" lon="-118.3938724">
  <ele>-0.116</ele>
  <time>2026-09-02T22:07:26Z</time>
  <course>11.94</course>
  <speed>0.7262231062146123</speed>
  <fix>3d</fix>
</trkpt>
<trkpt lat="33.8103048" lon="-118.3938723">
  <ele>-0.116</ele>
  <time>2026-09-02T22:07:26Z</time>
  <course>11.94</course>
  <speed>0.7262231062146123</speed>
  <fix>3d</fix>
</trkpt>
<trkpt lat="33.8103048" lon="-118.3938722">
  <ele>-0.116</ele>
  <time>2026-09-02T22:07:26Z</time>
  <course>11.94</course>
  <speed>0.7262231062146123</speed>
  <fix>3d</fix>
</trkpt>
<trkpt lat="33.8103049" lon="-118.3938722">
  <ele>-0.116</ele>
  <time>2026-09-02T22:07:26Z</time>
  <course>11.94</course>
  <speed>0.7262231062146123</speed>
  <fix>3d</fix>
</trkpt>
<trkpt lat="33.8103049" lon="-118.3938721">
  <ele>-0.116</ele>
  <time>2026-09-02T22:07:26Z</time>
  <course>11.94</course>
  <speed>0.7262231062146123</speed>
  <fix>3d</fix>
</trkpt>
<trkpt lat="33.810305" lon="-118.3938721">
  <ele>-0.116</ele>
  <time>2026-09-02T22:07:26Z</time>
  <course>11.94</course>
  <speed>0.7262231062146123</speed>
  <fix>3d</fix>
</trkpt>
<trkpt lat="33.810305" lon="-118.393872">
  <ele>-0.116</ele>
  <time>2026-09-02T22:07:26Z</time>
  <course>11.94</course>
  <speed>0.7262231062146123</speed>
  <fix>3d</fix>
</trkpt>
<trkpt lat="33.810305" lon="-118.393872">
  <ele>-0.116</ele>
  <time>2026-09-02T22:07:26Z</time>
  <course>11.94</course>
  <speed>0.7262231062146123</speed>
  <fix>3d</fix>
</trkpt>
<trkpt lat="33.8103051" lon="-118.3938719">
  <ele>-0.116</ele>
  <time>2026-09-02T22:07:26Z</time>
  <course>11.94</course>
  <speed>0.7262231062146123</speed>
  <fix>3d</fix>
</trkpt>
<trkpt lat="33.8103051" lon="-118.3938719">
  <ele>-0.116</ele>
  <time>2026-09-02T22:07:26Z</time>
  <course>11.94</course>
  <speed>0.7262231062146123</speed>
  <fix>3d</fix>
</trkpt>
<trkpt lat="33.8103047" lon="-118.3938729">
  <ele>-0.1</ele>
  <time>2026-09-02T22:07:26Z</time>
  <course>48.73</course>
  <speed>0.73</speed>
  <fix>3d</fix>
</trkpt>
<trkpt lat="33.8103051" lon="-118.3938719">
  <ele>-0.116</ele>
  <time>2026-09-02T22:07:26Z</time>
  <course>11.94</course>
  <speed>0.7262231062146123</speed>
  <fix>3d</fix>
</trkpt>
<trkpt lat="33.8103052" lon="-118.3938718">
  <ele>-0.116</ele>
  <time>2026-09-02T22:07:26Z</time>
  <course>11.94</course>
  <speed>0.7262231062146123</speed>
  <fix>3d</fix>
</trkpt>
<trkpt lat="33.8103052" lon="-118.3938717">
  <ele>-0.116</ele>
  <time>2026-09-02T22:07:26Z</time>
  <course>11.94</course>
  <speed>0.7262231062146123</speed>
  <fix>3d</fix>
</trkpt>
<trkpt lat="33.8103053" lon="-118.3938716">
  <ele>-0.116</ele>
  <time>2026-09-02T22:07:26Z</time>
  <course>11.94</course>
  <speed>0.7262231062146123</speed>
  <fix>3d</fix>
</trkpt>
<trkpt lat="33.8103054" lon="-118.3938715">
  <ele>-0.116</ele>
  <time>2026-09-02T22:07:26Z</time>
  <course>11.94</course>
  <speed>0.7262231062146123</speed>
  <fix>3d</fix>
</trkpt>
<trkpt lat="33.8103054" lon="-118.3938714">
  <ele>-0.116</ele>
  <time>2026-09-02T22:07:26Z</time>
  <course>11.94</course>
  <speed>0.7262231062146123</speed>
  <fix>3d</fix>
</trkpt>
<trkpt lat="33.8103055" lon="-118.3938714">
  <ele>-0.116</ele>
  <time>2026-09-02T22:07:26Z</time>
  <course>11.94</course>
  <speed>0.7262231062146123</speed>
  <fix>3d</fix>
</trkpt>
<trkpt lat="33.8103055" lon="-118.3938713">
  <ele>-0.116</ele>
  <time>2026-09-02T22:07:26Z</time>
  <course>11.94</course>
  <speed>0.7262231062146123</speed>
  <fix>3d</fix>
</trkpt>
<trkpt lat="33.8103055" lon="-118.3938713">
  <ele>-0.116</ele>
  <time>2026-09-02T22:07:26Z</time>
  <course>11.94</course>
  <speed>0.7262231062146123</speed>
  <fix>3d</fix>
</trkpt>
<trkpt lat="33.8103047" lon="-118.3938729">
  <ele>-0.1</ele>
  <time>2026-09-02T22:07:26Z</time>
  <course>48.73</course>
  <speed>0.73</speed>
  <fix>3d</fix>
</trkpt>
<trkpt lat="33.8103055" lon="-118.3938713">
  <ele>-0.116</ele>
  <time>2026-09-02T22:07:26Z</time>
  <course>11.94</course>
  <speed>0.7262231062146123</speed>
  <fix>3d</fix>
</trkpt>
<trkpt lat="33.8103056" lon="-118.3938712">
  <ele>-0.116</ele>
  <time>2026-09-02T22:07:26Z</time>
  <course>11.94</course>
  <speed>0.7262231062146123</speed>
  <fix>3d</fix>
</trkpt>
<trkpt lat="33.8103056" lon="-118.3938711">
  <ele>-0.115</ele>
  <time>2026-09-02T22:07:26Z</time>
  <course>11.94</course>
  <speed>0.7262231062146123</speed>
  <fix>3d</fix>
</trkpt>
<trkpt lat="33.8103057" lon="-118.3938711">
  <ele>-0.115</ele>
  <time>2026-09-02T22:07:26Z</time>
  <course>11.94</course>
  <speed>0.7262231062146123</speed>
  <fix>3d</fix>
</trkpt>
<trkpt lat="33.8103057" lon="-118.393871">
  <ele>-0.115</ele>
  <time>2026-09-02T22:07:26Z</time>
  <course>11.94</course>
  <speed>0.7262231062146123</speed>
  <fix>3d</fix>
</trkpt>
<trkpt lat="33.8103057" lon="-118.393871">
  <ele>-0.115</ele>
  <time>2026-09-02T22:07:26Z</time>
  <course>11.94</course>
  <speed>0.7262231062146123</speed>
  <fix>3d</fix>
</trkpt>
<trkpt lat="33.8103058" lon="-118.3938709">
  <ele>-0.115</ele>
  <time>2026-09-02T22:07:26Z</time>
  <course>11.94</course>
  <speed>0.7262231062146123</speed>
  <fix>3d</fix>
</trkpt>
<trkpt lat="33.8103058" lon="-118.3938709">
  <ele>-0.115</ele>
  <time>2026-09-02T22:07:26Z</time>
  <course>11.94</course>
  <speed>0.7262231062146123</speed>
  <fix>3d</fix>
</trkpt>
<trkpt lat="33.8103059" lon="-118.3938708">
  <ele>-0.115</ele>
  <time>2026-09-02T22:07:26Z</time>
  <course>11.94</course>
  <speed>0.7262231062146123</speed>
  <fix>3d</fix>
</trkpt>
<trkpt lat="33.8103059" lon="-118.3938707">
  <ele>-0.115</ele>
  <time>2026-09-02T22:07:26Z</time>
  <course>11.94</course>
  <speed>0.7262231062146123</speed>
  <fix>3d</fix>
</trkpt>
<trkpt lat="33.810306" lon="-118.3938707">
  <ele>-0.115</ele>
  <time>2026-09-02T22:07:26Z</time>
  <course>11.95</course>
  <speed>0.7262231062146123</speed>
  <fix>3d</fix>
</trkpt>
<trkpt lat="33.810306" lon="-118.3938707">
  <ele>-0.115</ele>
  <time>2026-09-02T22:07:26Z</time>
  <course>11.95</course>
  <speed>0.7262231062146123</speed>
  <fix>3d</fix>
</trkpt>
<trkpt lat="33.8103056" lon="-118.3938717">
  <ele>-0.1</ele>
  <time>2026-09-02T22:07:26Z</time>
  <course>48.73</course>
  <speed>0.73</speed>
  <fix>3d</fix>
</trkpt>
<trkpt lat="33.810306" lon="-118.3938706">
  <ele>-0.115</ele>
  <time>2026-09-02T22:07:26Z</time>
  <course>11.95</course>
  <speed>0.7262231062146123</speed>
  <fix>3d</fix>
</trkpt>
<trkpt lat="33.8103061" lon="-118.3938705">
  <ele>-0.115</ele>
  <time>2026-09-02T22:07:26Z</time>
  <course>11.95</course>
  <speed>0.7262231062146123</speed>
  <fix>3d</fix>
</trkpt>
<trkpt lat="33.8103061" lon="-118.3938705">
  <ele>-0.115</ele>
  <time>2026-09-02T22:07:26Z</time>
  <course>11.95</course>
  <speed>0.7262231062146123</speed>
  <fix>3d</fix>
</trkpt>
<trkpt lat="33.8103062" lon="-118.3938704">
  <ele>-0.115</ele>
  <time>2026-09-02T22:07:26Z</time>
  <course>11.95</course>
  <speed>0.7262231062146123</speed>
  <fix>3d</fix>
</trkpt>
<trkpt lat="33.8103062" lon="-118.3938704">
  <ele>-0.115</ele>
  <time>2026-09-02T22:07:26Z</time>
  <course>11.95</course>
  <speed>0.7262231062146123</speed>
  <fix>3d</fix>
</trkpt>
<trkpt lat="33.8103062" lon="-118.3938703">
  <ele>-0.115</ele>
  <time>2026-09-02T22:07:26Z</time>
  <course>11.95</course>
  <speed>0.7262231062146123</speed>
  <fix>3d</fix>
</trkpt>
<trkpt lat="33.8103062" lon="-118.3938703">
  <ele>-0.115</ele>
  <time>2026-09-02T22:07:26Z</time>
  <course>11.95</course>
  <speed>0.7262231062146123</speed>
  <fix>3d</fix>
</trkpt>
<trkpt lat="33.8103063" lon="-118.3938702">
  <ele>-0.114</ele>
  <time>2026-09-02T22:07:26Z</time>
  <course>11.95</course>
  <speed>0.7262231062146123</speed>
  <fix>3d</fix>
</trkpt>
<trkpt lat="33.8103063" lon="-118.3938702">
  <ele>-0.114</ele>
  <time>2026-09-02T22:07:26Z</time>
  <course>11.95</course>
  <speed>0.7262231062146123</speed>
  <fix>3d</fix>
</trkpt>
<trkpt lat="33.8103064" lon="-118.3938701">
  <ele>-0.114</ele>
  <time>2026-09-02T22:07:26Z</time>
  <course>11.95</course>
  <speed>0.7262231062146123</speed>
  <fix>3d</fix>
</trkpt>
<trkpt lat="33.8103064" lon="-118.3938701">
  <ele>-0.114</ele>
  <time>2026-09-02T22:07:26Z</time>
  <course>11.95</course>
  <speed>0.7262231062146123</speed>
  <fix>3d</fix>
</trkpt>
<trkpt lat="33.8103064" lon="-118.3938701">
  <ele>-0.114</ele>
  <time>2026-09-02T22:07:26Z</time>
  <course>11.95</course>
  <speed>0.7262231062146123</speed>
  <fix>3d</fix>
</trkpt>
<trkpt lat="33.8103056" lon="-118.3938717">
  <ele>-0.1</ele>
  <time>2026-09-02T22:07:26Z</time>
  <course>48.73</course>
  <speed>0.73</speed>
  <fix>3d</fix>
</trkpt>
<trkpt lat="33.8103065" lon="-118.39387">
  <ele>-0.114</ele>
  <time>2026-09-02T22:07:26Z</time>
  <course>11.95</course>
  <speed>0.7262231062146123</speed>
  <fix>3d</fix>
</trkpt>
<trkpt lat="33.8103065" lon="-118.3938699">
  <ele>-0.114</ele>
  <time>2026-09-02T22:07:26Z</time>
  <course>11.95</course>
  <speed>0.7262231062146123</speed>
  <fix>3d</fix>
</trkpt>
<trkpt lat="33.8103066" lon="-118.3938699">
  <ele>-0.113</ele>
  <time>2026-09-02T22:07:26Z</time>
  <course>11.95</course>
  <speed>0.7262231062146123</speed>
  <fix>3d</fix>
</trkpt>
<trkpt lat="33.8103066" lon="-118.3938698">
  <ele>-0.113</ele>
  <time>2026-09-02T22:07:26Z</time>
  <course>11.95</course>
  <speed>0.7262231062146123</speed>
  <fix>3d</fix>
</trkpt>
<trkpt lat="33.8103066" lon="-118.3938698">
  <ele>-0.113</ele>
  <time>2026-09-02T22:07:26Z</time>
  <course>11.95</course>
  <speed>0.7262231062146123</speed>
  <fix>3d</fix>
</trkpt>
<trkpt lat="33.8103067" lon="-118.3938697">
  <ele>-0.113</ele>
  <time>2026-09-02T22:07:26Z</time>
  <course>11.95</course>
  <speed>0.7262231062146123</speed>
  <fix>3d</fix>
</trkpt>
<trkpt lat="33.8103068" lon="-118.3938695">
  <ele>-0.113</ele>
  <time>2026-09-02T22:07:26Z</time>
  <course>12.09</course>
  <speed>0.7324616030891995</speed>
  <fix>3d</fix>
</trkpt>
<trkpt lat="33.8103064" lon="-118.3938705">
  <ele>-0.1</ele>
  <time>2026-09-02T22:07:26Z</time>
  <course>48.74</course>
  <speed>0.73</speed>
  <fix>3d</fix>
</trkpt>
<trkpt lat="33.8103073" lon="-118.3938689">
  <ele>-0.114</ele>
  <time>2026-09-02T22:07:26Z</time>
  <course>15.12</course>
  <speed>0.7465252842335616</speed>
  <fix>3d</fix>
</trkpt>
<trkpt lat="33.8103064" lon="-118.3938705">
  <ele>-0.1</ele>
  <time>2026-09-02T22:07:26Z</time>
  <course>48.74</course>
  <speed>0.73</speed>
  <fix>3d</fix>
</trkpt>
<trkpt lat="33.8103077" lon="-118.3938683">
  <ele>-0.114</ele>
  <time>2026-09-02T22:07:26Z</time>
  <course>18.96</course>
  <speed>0.756042326857432</speed>
  <fix>3d</fix>
</trkpt>
<trkpt lat="33.8103073" lon="-118.3938693">
  <ele>-0.1</ele>
  <time>2026-09-02T22:07:26Z</time>
  <course>48.56</course>
  <speed>0.74</speed>
  <fix>3d</fix>
</trkpt>
<trkpt lat="33.8103082" lon="-118.3938676">
  <ele>-0.113</ele>
  <time>2026-09-02T22:07:26Z</time>
  <course>22.82</course>
  <speed>0.7602631123499285</speed>
  <fix>3d</fix>
</trkpt>
<trkpt lat="33.8103073" lon="-118.3938693">
  <ele>-0.1</ele>
  <time>2026-09-02T22:07:26Z</time>
  <course>48.56</course>
  <speed>0.74</speed>
  <fix>3d</fix>
</trkpt>
<trkpt lat="33.8103086" lon="-118.393867">
  <ele>-0.113</ele>
  <time>2026-09-02T22:07:26Z</time>
  <course>26.68</course>
  <speed>0.7600657866263946</speed>
  <fix>3d</fix>
</trkpt>
<trkpt lat="33.8103082" lon="-118.3938681">
  <ele>-0.1</ele>
  <time>2026-09-02T22:07:26Z</time>
  <course>50.49</course>
  <speed>0.76</speed>
  <fix>3d</fix>
</trkpt>
<trkpt lat="33.8103089" lon="-118.3938663">
  <ele>-0.113</ele>
  <time>2026-09-02T22:07:26Z</time>
  <course>30.54</course>
  <speed>0.7566372975210779</speed>
  <fix>3d</fix>
</trkpt>
<trkpt lat="33.8103082" lon="-118.3938681">
  <ele>-0.1</ele>
  <time>2026-09-02T22:07:26Z</time>
  <course>50.49</course>
  <speed>0.76</speed>
  <fix>3d</fix>
</trkpt>
<trkpt lat="33.8103093" lon="-118.3938655">
  <ele>-0.113</ele>
  <time>2026-09-02T22:07:26Z</time>
  <course>34.41</course>
  <speed>0.7648529270389177</speed>
  <fix>3d</fix>
</trkpt>
<trkpt lat="33.8103091" lon="-118.3938668">
  <ele>-0.1</ele>
  <time>2026-09-02T22:07:26Z</time>
  <course>55.81</course>
  <speed>0.76</speed>
  <fix>3d</fix>
</trkpt>
<trkpt lat="33.8103096" lon="-118.3938648">
  <ele>-0.113</ele>
  <time>2026-09-02T22:07:26Z</time>
  <course>38.27</course>
  <speed>0.7632168761236874</speed>
  <fix>3d</fix>
</trkpt>
<trkpt lat="33.8103091" lon="-118.3938668">
  <ele>-0.1</ele>
  <time>2026-09-02T22:07:26Z</time>
  <course>55.81</course>
  <speed>0.76</speed>
  <fix>3d</fix>
</trkpt>
<trkpt lat="33.8103099" lon="-118.3938641">
  <ele>-0.113</ele>
  <time>2026-09-02T22:07:26Z</time>
  <course>42.13</course>
  <speed>0.7589466384404111</speed>
  <fix>3d</fix>
</trkpt>
<trkpt lat="33.8103098" lon="-118.3938653">
  <ele>-0.1</ele>
  <time>2026-09-02T22:07:26Z</time>
  <course>62.65</course>
  <speed>0.76</speed>
  <fix>3d</fix>
</trkpt>
<trkpt lat="33.8103101" lon="-118.3938633">
  <ele>-0.112</ele>
  <time>2026-09-02T22:07:26Z</time>
  <course>46.0</course>
  <speed>0.7640026177965623</speed>
  <fix>3d</fix>
</trkpt>
<trkpt lat="33.8103098" lon="-118.3938653">
  <ele>-0.1</ele>
  <time>2026-09-02T22:07:26Z</time>
  <course>62.65</course>
  <speed>0.76</speed>
  <fix>3d</fix>
</trkpt>
<trkpt lat="33.8103103" lon="-118.3938625">
  <ele>-0.111</ele>
  <time>2026-09-02T22:07:26Z</time>
  <course>49.86</course>
  <speed>0.762954782408499</speed>
  <fix>3d</fix>
</trkpt>
<trkpt lat="33.8103103" lon="-118.3938638">
  <ele>-0.1</ele>
  <time>2026-09-02T22:07:26Z</time>
  <course>70.03</course>
  <speed>0.76</speed>
  <fix>3d</fix>
</trkpt>
<trkpt lat="33.8103104" lon="-118.3938617">
  <ele>-0.11</ele>
  <time>2026-09-02T22:07:26Z</time>
  <course>53.72</course>
  <speed>0.7653103945458993</speed>
  <fix>3d</fix>
</trkpt>
<trkpt lat="33.8103103" lon="-118.3938638">
  <ele>-0.1</ele>
  <time>2026-09-02T22:07:26Z</time>
  <course>70.03</course>
  <speed>0.76</speed>
  <fix>3d</fix>
</trkpt>
<trkpt lat="33.8103105" lon="-118.3938609">
  <ele>-0.109</ele>
  <time>2026-09-02T22:07:26Z</time>
  <course>57.58</course>
  <speed>0.7610519036176179</speed>
  <fix>3d</fix>
</trkpt>
<trkpt lat="33.8103107" lon="-118.3938622">
  <ele>-0.1</ele>
  <time>2026-09-02T22:07:26Z</time>
  <course>77.63</course>
  <speed>0.76</speed>
  <fix>3d</fix>
</trkpt>
<trkpt lat="33.8103106" lon="-118.3938601">
  <ele>-0.108</ele>
  <time>2026-09-02T22:07:26Z</time>
  <course>61.45</course>
  <speed>0.76</speed>
  <fix>3d</fix>
</trkpt>
<trkpt lat="33.8103107" lon="-118.3938622">
  <ele>-0.1</ele>
  <time>2026-09-02T22:07:26Z</time>
  <course>77.63</course>
  <speed>0.76</speed>
  <fix>3d</fix>
</trkpt>
<trkpt lat="33.8103106" lon="-118.3938592">
  <ele>-0.107</ele>
  <time>2026-09-02T22:07:26Z</time>
  <course>65.31</course>
  <speed>0.7616429609731845</speed>
  <fix>3d</fix>
</trkpt>
<trkpt lat="33.8103109" lon="-118.3938606">
  <ele>-0.1</ele>
  <time>2026-09-02T22:07:26Z</time>
  <course>85.32</course>
  <speed>0.76</speed>
  <fix>3d</fix>
</trkpt>
<trkpt lat="33.8103105" lon="-118.3938584">
  <ele>-0.107</ele>
  <time>2026-09-02T22:07:26Z</time>
  <course>69.17</course>
  <speed>0.766550715869472</speed>
  <fix>3d</fix>
</trkpt>
<trkpt lat="33.8103109" lon="-118.3938606">
  <ele>-0.1</ele>
  <time>2026-09-02T22:07:26Z</time>
  <course>85.32</course>
  <speed>0.76</speed>
  <fix>3d</fix>
</trkpt>
<trkpt lat="33.8103104" lon="-118.3938576">
  <ele>-0.106</ele>
  <time>2026-09-02T22:07:26Z</time>
  <course>73.04</course>
  <speed>0.7648529270389177</speed>
  <fix>3d</fix>
</trkpt>
<trkpt lat="33.8103109" lon="-118.3938589">
  <ele>-0.1</ele>
  <time>2026-09-02T22:07:26Z</time>
  <course>93.04</course>
  <speed>0.76</speed>
  <fix>3d</fix>
</trkpt>
<trkpt lat="33.8103103" lon="-118.3938568">
  <ele>-0.105</ele>
  <time>2026-09-02T22:07:26Z</time>
  <course>76.9</course>
  <speed>0.766550715869472</speed>
  <fix>3d</fix>
</trkpt>
<trkpt lat="33.8103109" lon="-118.3938589">
  <ele>-0.1</ele>
  <time>2026-09-02T22:07:26Z</time>
  <course>93.04</course>
  <speed>0.76</speed>
  <fix>3d</fix>
</trkpt>
<trkpt lat="33.8103101" lon="-118.393856">
  <ele>-0.103</ele>
  <time>2026-09-02T22:07:26Z</time>
  <course>80.79</course>
  <speed>0.7621679604916491</speed>
  <fix>3d</fix>
</trkpt>
<trkpt lat="33.8103107" lon="-118.3938573">
  <ele>-0.1</ele>
  <time>2026-09-02T22:07:26Z</time>
  <course>100.75</course>
  <speed>0.76</speed>
  <fix>3d</fix>
</trkpt>
<trkpt lat="33.81031" lon="-118.3938553">
  <ele>-0.102</ele>
  <time>2026-09-02T22:07:26Z</time>
  <course>84.66</course>
  <speed>0.7615773105863909</speed>
  <fix>3d</fix>
</trkpt>
<trkpt lat="33.8103107" lon="-118.3938573">
  <ele>-0.1</ele>
  <time>2026-09-02T22:07:26Z</time>
  <course>100.75</course>
  <speed>0.76</speed>
  <fix>3d</fix>
</trkpt>
<trkpt lat="33.8103097" lon="-118.3938545">
  <ele>-0.1</ele>
  <time>2026-09-02T22:07:26Z</time>
  <course>88.52</course>
  <speed>0.7647875521999558</speed>
  <fix>3d</fix>
</trkpt>
<trkpt lat="33.8103105" lon="-118.3938557">
  <ele>-0.1</ele>
  <time>2026-09-02T22:07:26Z</time>
  <course>108.47</course>
  <speed>0.76</speed>
  <fix>3d</fix>
</trkpt>
<trkpt lat="33.8103094" lon="-118.3938538">
  <ele>-0.1</ele>
  <time>2026-09-02T22:07:26Z</time>
  <course>92.38</course>
  <speed>0.7666159403508382</speed>
  <fix>3d</fix>
</trkpt>
<trkpt lat="33.8103105" lon="-118.3938557">
  <ele>-0.1</ele>
  <time>2026-09-02T22:07:26Z</time>
  <course>108.47</course>
  <speed>0.76</speed>
  <fix>3d</fix>
</trkpt>
<trkpt lat="33.8103091" lon="-118.3938531">
  <ele>-0.101</ele>
  <time>2026-09-02T22:07:26Z</time>
  <course>96.24</course>
  <speed>0.7627581530209953</speed>
  <fix>3d</fix>
</trkpt>
<trkpt lat="33.81031" lon="-118.3938542">
  <ele>-0.1</ele>
  <time>2026-09-02T22:07:26Z</time>
  <course>116.2</course>
  <speed>0.76</speed>
  <fix>3d</fix>
</trkpt>
<trkpt lat="33.8103087" lon="-118.3938524">
  <ele>-0.102</ele>
  <time>2026-09-02T22:07:26Z</time>
  <course>100.11</course>
  <speed>0.7683749084919418</speed>
  <fix>3d</fix>
</trkpt>
<trkpt lat="33.81031" lon="-118.3938542">
  <ele>-0.1</ele>
  <time>2026-09-02T22:07:26Z</time>
  <course>116.2</course>
  <speed>0.76</speed>
  <fix>3d</fix>
</trkpt>
<trkpt lat="33.8103083" lon="-118.3938518">
  <ele>-0.103</ele>
  <time>2026-09-02T22:07:26Z</time>
  <course>103.97</course>
  <speed>0.7648529270389177</speed>
  <fix>3d</fix>
</trkpt>
<trkpt lat="33.8103093" lon="-118.3938528">
  <ele>-0.1</ele>
  <time>2026-09-02T22:07:26Z</time>
  <course>123.92</course>
  <speed>0.76</speed>
  <fix>3d</fix>
</trkpt>
<trkpt lat="33.8103079" lon="-118.3938512">
  <ele>-0.105</ele>
  <time>2026-09-02T22:07:26Z</time>
  <course>107.83</course>
  <speed>0.7638062581571324</speed>
  <fix>3d</fix>
</trkpt>
<trkpt lat="33.8103093" lon="-118.3938528">
  <ele>-0.1</ele>
  <time>2026-09-02T22:07:26Z</time>
  <course>123.92</course>
  <speed>0.76</speed>
  <fix>3d</fix>
</trkpt>
<trkpt lat="33.8103074" lon="-118.3938506">
  <ele>-0.106</ele>
  <time>2026-09-02T22:07:26Z</time>
  <course>111.69</course>
  <speed>0.7592759709091287</speed>
  <fix>3d</fix>
</trkpt>
<trkpt lat="33.8103084" lon="-118.3938514">
  <ele>-0.1</ele>
  <time>2026-09-02T22:07:26Z</time>
  <course>131.64</course>
  <speed>0.76</speed>
  <fix>3d</fix>
</trkpt>
<trkpt lat="33.8103069" lon="-118.3938501">
  <ele>-0.108</ele>
  <time>2026-09-02T22:07:26Z</time>
  <course>115.56</course>
  <speed>0.7660939890117922</speed>
  <fix>3d</fix>
</trkpt>
<trkpt lat="33.8103084" lon="-118.3938514">
  <ele>-0.1</ele>
  <time>2026-09-02T22:07:26Z</time>
  <course>131.64</course>
  <speed>0.76</speed>
  <fix>3d</fix>
</trkpt>
<trkpt lat="33.8103064" lon="-118.3938496">
  <ele>-0.109</ele>
  <time>2026-09-02T22:07:26Z</time>
  <course>119.42</course>
  <speed>0.7600657866263946</speed>
  <fix>3d</fix>
</trkpt>
<trkpt lat="33.8103075" lon="-118.3938503">
  <ele>-0.1</ele>
  <time>2026-09-02T22:07:26Z</time>
  <course>139.37</course>
  <speed>0.76</speed>
  <fix>3d</fix>
</trkpt>
<trkpt lat="33.8103058" lon="-118.3938492">
  <ele>-0.109</ele>
  <time>2026-09-02T22:07:26Z</time>
  <course>123.28</course>
  <speed>0.765375724726098</speed>
  <fix>3d</fix>
</trkpt>
<trkpt lat="33.8103075" lon="-118.3938503">
  <ele>-0.1</ele>
  <time>2026-09-02T22:07:26Z</time>
  <course>139.37</course>
  <speed>0.76</speed>
  <fix>3d</fix>
</trkpt>
<trkpt lat="33.8103052" lon="-118.3938488">
  <ele>-0.111</ele>
  <time>2026-09-02T22:07:26Z</time>
  <course>127.15</course>
  <speed>0.7605918747922567</speed>
  <fix>3d</fix>
</trkpt>
<trkpt lat="33.8103064" lon="-118.3938493">
  <ele>-0.1</ele>
  <time>2026-09-02T22:07:26Z</time>
  <course>147.09</course>
  <speed>0.76</speed>
  <fix>3d</fix>
</trkpt>
<trkpt lat="33.8103046" lon="-118.3938485">
  <ele>-0.112</ele>
  <time>2026-09-02T22:07:26Z</time>
  <course>131.01</course>
  <speed>0.7632168761236874</speed>
  <fix>3d</fix>
</trkpt>
<trkpt lat="33.8103064" lon="-118.3938493">
  <ele>-0.1</ele>
  <time>2026-09-02T22:07:26Z</time>
  <course>147.09</course>
  <speed>0.76</speed>
  <fix>3d</fix>
</trkpt>
<trkpt lat="33.810304" lon="-118.3938482">
  <ele>-0.113</ele>
  <time>2026-09-02T22:07:26Z</time>
  <course>134.87</course>
  <speed>0.765375724726098</speed>
  <fix>3d</fix>
</trkpt>
<trkpt lat="33.8103052" lon="-118.3938485">
  <ele>-0.1</ele>
  <time>2026-09-02T22:07:26Z</time>
  <course>154.82</course>
  <speed>0.76</speed>
  <fix>3d</fix>
</trkpt>
<trkpt lat="33.8103034" lon="-118.3938479">
  <ele>-0.113</ele>
  <time>2026-09-02T22:07:26Z</time>
  <course>138.73</course>
  <speed>0.7615773105863909</speed>
  <fix>3d</fix>
</trkpt>
<trkpt lat="33.8103052" lon="-118.3938485">
  <ele>-0.1</ele>
  <time>2026-09-02T22:07:26Z</time>
  <course>154.82</course>
  <speed>0.76</speed>
  <fix>3d</fix>
</trkpt>
<trkpt lat="33.8103027" lon="-118.3938478">
  <ele>-0.114</ele>
  <time>2026-09-02T22:07:26Z</time>
  <course>142.6</course>
  <speed>0.7611832893594026</speed>
  <fix>3d</fix>
</trkpt>
<trkpt lat="33.8103039" lon="-118.3938479">
  <ele>-0.1</ele>
  <time>2026-09-02T22:07:26Z</time>
  <course>162.56</course>
  <speed>0.76</speed>
  <fix>3d</fix>
</trkpt>
<trkpt lat="33.810302" lon="-118.3938476">
  <ele>-0.113</ele>
  <time>2026-09-02T22:07:26Z</time>
  <course>146.46</course>
  <speed>0.764198926981712</speed>
  <fix>3d</fix>
</trkpt>
<trkpt lat="33.8103039" lon="-118.3938479">
  <ele>-0.1</ele>
  <time>2026-09-02T22:07:26Z</time>
  <course>162.56</course>
  <speed>0.76</speed>
  <fix>3d</fix>
</trkpt>
<trkpt lat="33.8103014" lon="-118.3938476">
  <ele>-0.112</ele>
  <time>2026-09-02T22:07:26Z</time>
  <course>150.32</course>
  <speed>0.7605918747922567</speed>
  <fix>3d</fix>
</trkpt>
<trkpt lat="33.8103026" lon="-118.3938475">
  <ele>-0.1</ele>
  <time>2026-09-02T22:07:26Z</time>
  <course>170.3</course>
  <speed>0.76</speed>
  <fix>3d</fix>
</trkpt>
<trkpt lat="33.8103007" lon="-118.3938475">
  <ele>-0.112</ele>
  <time>2026-09-02T22:07:26Z</time>
  <course>154.19</course>
  <speed>0.7600657866263946</speed>
  <fix>3d</fix>
</trkpt>
<trkpt lat="33.8103026" lon="-118.3938475">
  <ele>-0.1</ele>
  <time>2026-09-02T22:07:26Z</time>
  <course>170.3</course>
  <speed>0.76</speed>
  <fix>3d</fix>
</trkpt>
<trkpt lat="33.8103001" lon="-118.3938476">
  <ele>-0.112</ele>
  <time>2026-09-02T22:07:26Z</time>
  <course>158.05</course>
  <speed>0.7523961722390672</speed>
  <fix>3d</fix>
</trkpt>
<trkpt lat="33.8103012" lon="-118.3938474">
  <ele>-0.1</ele>
  <time>2026-09-02T22:07:26Z</time>
  <course>178.02</course>
  <speed>0.76</speed>
  <fix>3d</fix>
</trkpt>
<trkpt lat="33.8102994" lon="-118.3938477">
  <ele>-0.113</ele>
  <time>2026-09-02T22:07:26Z</time>
  <course>161.94</course>
  <speed>0.7595393340703298</speed>
  <fix>3d</fix>
</trkpt>
<trkpt lat="33.8103012" lon="-118.3938474">
  <ele>-0.1</ele>
  <time>2026-09-02T22:07:26Z</time>
  <course>178.02</course>
  <speed>0.76</speed>
  <fix>3d</fix>
</trkpt>
<trkpt lat="33.8102987" lon="-118.3938477">
  <ele>-0.113</ele>
  <time>2026-09-02T22:07:26Z</time>
  <course>165.81</course>
  <speed>0.7592759709091287</speed>
  <fix>3d</fix>
</trkpt>
<trkpt lat="33.8102998" lon="-118.3938474">
  <ele>-0.1</ele>
  <time>2026-09-02T22:07:26Z</time>
  <course>185.74</course>
  <speed>0.76</speed>
  <fix>3d</fix>
</trkpt>
<trkpt lat="33.8102981" lon="-118.3938479">
  <ele>-0.114</ele>
  <time>2026-09-02T22:07:26Z</time>
  <course>169.67</course>
  <speed>0.75</speed>
  <fix>3d</fix>
</trkpt>
<trkpt lat="33.8102998" lon="-118.3938474">
  <ele>-0.1</ele>
  <time>2026-09-02T22:07:26Z</time>
  <course>185.74</course>
  <speed>0.76</speed>
  <fix>3d</fix>
</trkpt>
<trkpt lat="33.8102974" lon="-118.3938481">
  <ele>-0.114</ele>
  <time>2026-09-02T22:07:26Z</time>
  <course>173.53</course>
  <speed>0.7561084578286372</speed>
  <fix>3d</fix>
</trkpt>
<trkpt lat="33.8102985" lon="-118.3938476">
  <ele>-0.1</ele>
  <time>2026-09-02T22:07:26Z</time>
  <course>193.47</course>
  <speed>0.76</speed>
  <fix>3d</fix>
</trkpt>
<trkpt lat="33.8102968" lon="-118.3938484">
  <ele>-0.113</ele>
  <time>2026-09-02T22:07:26Z</time>
  <course>177.4</course>
  <speed>0.7564390259630978</speed>
  <fix>3d</fix>
</trkpt>
<trkpt lat="33.8102985" lon="-118.3938476">
  <ele>-0.1</ele>
  <time>2026-09-02T22:07:26Z</time>
  <course>193.47</course>
  <speed>0.76</speed>
  <fix>3d</fix>
</trkpt>
<trkpt lat="33.8102962" lon="-118.3938488">
  <ele>-0.113</ele>
  <time>2026-09-02T22:07:26Z</time>
  <course>181.27</course>
  <speed>0.7470609078247904</speed>
  <fix>3d</fix>
</trkpt>
<trkpt lat="33.8102972" lon="-118.393848">
  <ele>-0.1</ele>
  <time>2026-09-02T22:07:26Z</time>
  <course>201.19</course>
  <speed>0.76</speed>
  <fix>3d</fix>
</trkpt>
<trkpt lat="33.8102956" lon="-118.3938492">
  <ele>-0.113</ele>
  <time>2026-09-02T22:07:26Z</time>
  <course>185.13</course>
  <speed>0.7547184905645282</speed>
  <fix>3d</fix>
</trkpt>
<trkpt lat="33.8102972" lon="-118.393848">
  <ele>-0.1</ele>
  <time>2026-09-02T22:07:26Z</time>
  <course>201.19</course>
  <speed>0.76</speed>
  <fix>3d</fix>
</trkpt>
<trkpt lat="33.8102951" lon="-118.3938496">
  <ele>-0.115</ele>
  <time>2026-09-02T22:07:26Z</time>
  <course>188.99</course>
  <speed>0.7521303078589507</speed>
  <fix>3d</fix>
</trkpt>
<trkpt lat="33.810296" lon="-118.3938488">
  <ele>-0.1</ele>
  <time>2026-09-02T22:07:26Z</time>
  <course>208.92</course>
  <speed>0.76</speed>
  <fix>3d</fix>
</trkpt>
<trkpt lat="33.8102945" lon="-118.3938501">
  <ele>-0.115</ele>
  <time>2026-09-02T22:07:26Z</time>
  <course>192.86</course>
  <speed>0.7528612089887484</speed>
  <fix>3d</fix>
</trkpt>
<trkpt lat="33.810296" lon="-118.3938488">
  <ele>-0.1</ele>
  <time>2026-09-02T22:07:26Z</time>
  <course>208.92</course>
  <speed>0.76</speed>
  <fix>3d</fix>
</trkpt>
<trkpt lat="33.810294" lon="-118.3938506">
  <ele>-0.114</ele>
  <time>2026-09-02T22:07:26Z</time>
  <course>196.72</course>
  <speed>0.7427651041883968</speed>
  <fix>3d</fix>
</trkpt>
<trkpt lat="33.8102948" lon="-118.3938497">
  <ele>-0.1</ele>
  <time>2026-09-02T22:07:26Z</time>
  <course>216.64</course>
  <speed>0.76</speed>
  <fix>3d</fix>
</trkpt>
<trkpt lat="33.8102936" lon="-118.3938512">
  <ele>-0.114</ele>
  <time>2026-09-02T22:07:26Z</time>
  <course>200.58</course>
  <speed>0.7433034373659253</speed>
  <fix>3d</fix>
</trkpt>
<trkpt lat="33.8102948" lon="-118.3938497">
  <ele>-0.1</ele>
  <time>2026-09-02T22:07:26Z</time>
  <course>216.64</course>
  <speed>0.76</speed>
  <fix>3d</fix>
</trkpt>
<trkpt lat="33.8102931" lon="-118.3938518">
  <ele>-0.114</ele>
  <time>2026-09-02T22:07:26Z</time>
  <course>204.44</course>
  <speed>0.7465252842335616</speed>
  <fix>3d</fix>
</trkpt>
<trkpt lat="33.8102937" lon="-118.3938508">
  <ele>-0.1</ele>
  <time>2026-09-02T22:07:26Z</time>
  <course>224.36</course>
  <speed>0.76</speed>
  <fix>3d</fix>
</trkpt>
<trkpt lat="33.8102927" lon="-118.3938524">
  <ele>-0.114</ele>
  <time>2026-09-02T22:07:26Z</time>
  <course>208.31</course>
  <speed>0.740607858451421</speed>
  <fix>3d</fix>
</trkpt>
<trkpt lat="33.8102937" lon="-118.3938508">
  <ele>-0.1</ele>
  <time>2026-09-02T22:07:26Z</time>
  <course>224.36</course>
  <speed>0.76</speed>
  <fix>3d</fix>
</trkpt>
<trkpt lat="33.8102923" lon="-118.3938531">
  <ele>-0.114</ele>
  <time>2026-09-02T22:07:26Z</time>
  <course>212.17</course>
  <speed>0.7443117626371358</speed>
  <fix>3d</fix>
</trkpt>
<trkpt lat="33.8102928" lon="-118.393852">
  <ele>-0.1</ele>
  <time>2026-09-02T22:07:26Z</time>
  <course>232.09</course>
  <speed>0.76</speed>
  <fix>3d</fix>
</trkpt>
<trkpt lat="33.810292" lon="-118.3938538">
  <ele>-0.113</ele>
  <time>2026-09-02T22:07:26Z</time>
  <course>216.03</course>
  <speed>0.7424284477308234</speed>
  <fix>3d</fix>
</trkpt>
<trkpt lat="33.8102928" lon="-118.393852">
  <ele>-0.1</ele>
  <time>2026-09-02T22:07:26Z</time>
  <course>232.09</course>
  <speed>0.76</speed>
  <fix>3d</fix>
</trkpt>
<trkpt lat="33.8102917" lon="-118.3938545">
  <ele>-0.112</ele>
  <time>2026-09-02T22:07:26Z</time>
  <course>219.89</course>
  <speed>0.7392563831310488</speed>
  <fix>3d</fix>
</trkpt>
<trkpt lat="33.8102921" lon="-118.3938534">
  <ele>-0.1</ele>
  <time>2026-09-02T22:07:26Z</time>
  <course>239.81</course>
  <speed>0.76</speed>
  <fix>3d</fix>
</trkpt>
<trkpt lat="33.8102915" lon="-118.3938552">
  <ele>-0.11</ele>
  <time>2026-09-02T22:07:26Z</time>
  <course>223.76</course>
  <speed>0.74</speed>
  <fix>3d</fix>
</trkpt>
<trkpt lat="33.8102921" lon="-118.3938534">
  <ele>-0.1</ele>
  <time>2026-09-02T22:07:26Z</time>
  <course>239.81</course>
  <speed>0.76</speed>
  <fix>3d</fix>
</trkpt>
<trkpt lat="33.8102912" lon="-118.393856">
  <ele>-0.11</ele>
  <time>2026-09-02T22:07:26Z</time>
  <course>227.62</course>
  <speed>0.7472616676907762</speed>
  <fix>3d</fix>
</trkpt>
<trkpt lat="33.8102915" lon="-118.3938548">
  <ele>-0.1</ele>
  <time>2026-09-02T22:07:26Z</time>
  <course>247.55</course>
  <speed>0.76</speed>
  <fix>3d</fix>
</trkpt>
<trkpt lat="33.8102911" lon="-118.3938568">
  <ele>-0.11</ele>
  <time>2026-09-02T22:07:26Z</time>
  <course>231.48</course>
  <speed>0.7452516353554683</speed>
  <fix>3d</fix>
</trkpt>
<trkpt lat="33.8102915" lon="-118.3938548">
  <ele>-0.1</ele>
  <time>2026-09-02T22:07:26Z</time>
  <course>247.55</course>
  <speed>0.76</speed>
  <fix>3d</fix>
</trkpt>
<trkpt lat="33.810291" lon="-118.3938576">
  <ele>-0.11</ele>
  <time>2026-09-02T22:07:26Z</time>
  <course>235.34</course>
  <speed>0.7467261881037789</speed>
  <fix>3d</fix>
</trkpt>
<trkpt lat="33.810291" lon="-118.3938564">
  <ele>-0.1</ele>
  <time>2026-09-02T22:07:26Z</time>
  <course>255.29</course>
  <speed>0.76</speed>
  <fix>3d</fix>
</trkpt>
<trkpt lat="33.8102909" lon="-118.3938584">
  <ele>-0.11</ele>
  <time>2026-09-02T22:07:26Z</time>
  <course>239.24</course>
  <speed>0.7416872656315463</speed>
  <fix>3d</fix>
</trkpt>
<trkpt lat="33.810291" lon="-118.3938564">
  <ele>-0.1</ele>
  <time>2026-09-02T22:07:26Z</time>
  <course>255.29</course>
  <speed>0.76</speed>
  <fix>3d</fix>
</trkpt>
<trkpt lat="33.8102908" lon="-118.3938592">
  <ele>-0.109</ele>
  <time>2026-09-02T22:07:26Z</time>
  <course>243.1</course>
  <speed>0.74</speed>
  <fix>3d</fix>
</trkpt>
<trkpt lat="33.8102908" lon="-118.393858">
  <ele>-0.1</ele>
  <time>2026-09-02T22:07:26Z</time>
  <course>263.02</course>
  <speed>0.76</speed>
  <fix>3d</fix>
</trkpt>
<trkpt lat="33.8102908" lon="-118.39386">
  <ele>-0.109</ele>
  <time>2026-09-02T22:07:26Z</time>
  <course>246.96</course>
  <speed>0.7410802925459562</speed>
  <fix>3d</fix>
</trkpt>
<trkpt lat="33.8102908" lon="-118.393858">
  <ele>-0.1</ele>
  <time>2026-09-02T22:07:26Z</time>
  <course>263.02</course>
  <speed>0.76</speed>
  <fix>3d</fix>
</trkpt>
<trkpt lat="33.8102908" lon="-118.3938608">
  <ele>-0.108</ele>
  <time>2026-09-02T22:07:26Z</time>
  <course>250.82</course>
  <speed>0.7355270219373317</speed>
  <fix>3d</fix>
</trkpt>
<trkpt lat="33.8102907" lon="-118.3938597">
  <ele>-0.1</ele>
  <time>2026-09-02T22:07:26Z</time>
  <course>270.74</course>
  <speed>0.76</speed>
  <fix>3d</fix>
</trkpt>
<trkpt lat="33.8102909" lon="-118.3938616">
  <ele>-0.108</ele>
  <time>2026-09-02T22:07:26Z</time>
  <course>254.68</course>
  <speed>0.7433034373659253</speed>
  <fix>3d</fix>
</trkpt>
<trkpt lat="33.8102907" lon="-118.3938597">
  <ele>-0.1</ele>
  <time>2026-09-02T22:07:26Z</time>
  <course>270.74</course>
  <speed>0.76</speed>
  <fix>3d</fix>
</trkpt>
<trkpt lat="33.8102911" lon="-118.3938624">
  <ele>-0.108</ele>
  <time>2026-09-02T22:07:26Z</time>
  <course>258.55</course>
  <speed>0.7349829930005184</speed>
  <fix>3d</fix>
</trkpt>
<trkpt lat="33.8102909" lon="-118.3938613">
  <ele>-0.1</ele>
  <time>2026-09-02T22:07:26Z</time>
  <course>278.47</course>
  <speed>0.76</speed>
  <fix>3d</fix>
</trkpt>
<trkpt lat="33.8102912" lon="-118.3938632">
  <ele>-0.107</ele>
  <time>2026-09-02T22:07:26Z</time>
  <course>262.41</course>
  <speed>0.74</speed>
  <fix>3d</fix>
</trkpt>
<trkpt lat="33.8102909" lon="-118.3938613">
  <ele>-0.1</ele>
  <time>2026-09-02T22:07:26Z</time>
  <course>278.47</course>
  <speed>0.76</speed>
  <fix>3d</fix>
</trkpt>
<trkpt lat="33.8102915" lon="-118.3938639">
  <ele>-0.106</ele>
  <time>2026-09-02T22:07:26Z</time>
  <course>266.27</course>
  <speed>0.7392563831310488</speed>
  <fix>3d</fix>
</trkpt>
<trkpt lat="33.8102911" lon="-118.3938628">
  <ele>-0.1</ele>
  <time>2026-09-02T22:07:26Z</time>
  <course>286.19</course>
  <speed>0.76</speed>
  <fix>3d</fix>
</trkpt>
<trkpt lat="33.8102918" lon="-118.3938647">
  <ele>-0.105</ele>
  <time>2026-09-02T22:07:26Z</time>
  <course>270.13</course>
  <speed>0.7379024325749306</speed>
  <fix>3d</fix>
</trkpt>
<trkpt lat="33.8102911" lon="-118.3938628">
  <ele>-0.1</ele>
  <time>2026-09-02T22:07:26Z</time>
  <course>286.19</course>
  <speed>0.76</speed>
  <fix>3d</fix>
</trkpt>
<trkpt lat="33.8102921" lon="-118.3938654">
  <ele>-0.106</ele>
  <time>2026-09-02T22:07:26Z</time>
  <course>273.99</course>
  <speed>0.7357309290766564</speed>
  <fix>3d</fix>
</trkpt>
<trkpt lat="33.8102915" lon="-118.3938644">
  <ele>-0.1</ele>
  <time>2026-09-02T22:07:26Z</time>
  <course>293.91</course>
  <speed>0.76</speed>
  <fix>3d</fix>
</trkpt>
<trkpt lat="33.8102924" lon="-118.3938661">
  <ele>-0.105</ele>
  <time>2026-09-02T22:07:26Z</time>
  <course>277.86</course>
  <speed>0.740607858451421</speed>
  <fix>3d</fix>
</trkpt>
<trkpt lat="33.8102915" lon="-118.3938644">
  <ele>-0.1</ele>
  <time>2026-09-02T22:07:26Z</time>
  <course>293.91</course>
  <speed>0.76</speed>
  <fix>3d</fix>
</trkpt>
<trkpt lat="33.8102928" lon="-118.3938667">
  <ele>-0.105</ele>
  <time>2026-09-02T22:07:26Z</time>
  <course>281.72</course>
  <speed>0.7402702209328699</speed>
  <fix>3d</fix>
</trkpt>
<trkpt lat="33.8102921" lon="-118.3938659">
  <ele>-0.1</ele>
  <time>2026-09-02T22:07:26Z</time>
  <course>301.64</course>
  <speed>0.76</speed>
  <fix>3d</fix>
</trkpt>
<trkpt lat="33.8102932" lon="-118.3938673">
  <ele>-0.104</ele>
  <time>2026-09-02T22:07:26Z</time>
  <course>285.58</course>
  <speed>0.7359347797189639</speed>
  <fix>3d</fix>
</trkpt>
<trkpt lat="33.8102921" lon="-118.3938659">
  <ele>-0.1</ele>
  <time>2026-09-02T22:07:26Z</time>
  <course>301.64</course>
  <speed>0.76</speed>
  <fix>3d</fix>
</trkpt>
<trkpt lat="33.8102937" lon="-118.3938679">
  <ele>-0.103</ele>
  <time>2026-09-02T22:07:26Z</time>
  <course>289.44</course>
  <speed>0.7355270219373317</speed>
  <fix>3d</fix>
</trkpt>
<trkpt lat="33.8102929" lon="-118.3938672">
  <ele>-0.1</ele>
  <time>2026-09-02T22:07:26Z</time>
  <course>309.36</course>
  <speed>0.76</speed>
  <fix>3d</fix>
</trkpt>
<trkpt lat="33.8102941" lon="-118.3938685">
  <ele>-0.102</ele>
  <time>2026-09-02T22:07:26Z</time>
  <course>293.3</course>
  <speed>0.7387827826905551</speed>
  <fix>3d</fix>
</trkpt>
<trkpt lat="33.8102929" lon="-118.3938672">
  <ele>-0.1</ele>
  <time>2026-09-02T22:07:26Z</time>
  <course>309.36</course>
  <speed>0.76</speed>
  <fix>3d</fix>
</trkpt>
<trkpt lat="33.8102947" lon="-118.393869">
  <ele>-0.101</ele>
  <time>2026-09-02T22:07:26Z</time>
  <course>297.16</course>
  <speed>0.7381734213584231</speed>
  <fix>3d</fix>
</trkpt>
<trkpt lat="33.8102939" lon="-118.3938684">
  <ele>-0.1</ele>
  <time>2026-09-02T22:07:26Z</time>
  <course>317.09</course>
  <speed>0.76</speed>
  <fix>3d</fix>
</trkpt>
<trkpt lat="33.8102952" lon="-118.3938694">
  <ele>-0.102</ele>
  <time>2026-09-02T22:07:26Z</time>
  <course>301.02</course>
  <speed>0.7324616030891995</speed>
  <fix>3d</fix>
</trkpt>
<trkpt lat="33.8102939" lon="-118.3938684">
  <ele>-0.1</ele>
  <time>2026-09-02T22:07:26Z</time>
  <course>317.09</course>
  <speed>0.76</speed>
  <fix>3d</fix>
</trkpt>
<trkpt lat="33.8102958" lon="-118.3938699">
  <ele>-0.103</ele>
  <time>2026-09-02T22:07:26Z</time>
  <course>304.88</course>
  <speed>0.7335529974037323</speed>
  <fix>3d</fix>
</trkpt>
<trkpt lat="33.8102949" lon="-118.3938695">
  <ele>-0.1</ele>
  <time>2026-09-02T22:07:26Z</time>
  <course>324.83</course>
  <speed>0.76</speed>
  <fix>3d</fix>
</trkpt>
<trkpt lat="33.8102964" lon="-118.3938702">
  <ele>-0.104</ele>
  <time>2026-09-02T22:07:26Z</time>
  <course>308.74</course>
  <speed>0.7340980860893181</speed>
  <fix>3d</fix>
</trkpt>
<trkpt lat="33.8102949" lon="-118.3938695">
  <ele>-0.1</ele>
  <time>2026-09-02T22:07:26Z</time>
  <course>324.83</course>
  <speed>0.76</speed>
  <fix>3d</fix>
</trkpt>
<trkpt lat="33.810297" lon="-118.3938706">
  <ele>-0.104</ele>
  <time>2026-09-02T22:07:26Z</time>
  <course>312.61</course>
  <speed>0.7338937252763509</speed>
  <fix>3d</fix>
</trkpt>
<trkpt lat="33.810296" lon="-118.3938703">
  <ele>-0.1</ele>
  <time>2026-09-02T22:07:26Z</time>
  <course>332.57</course>
  <speed>0.76</speed>
  <fix>3d</fix>
</trkpt>
<trkpt lat="33.8102976" lon="-118.3938708">
  <ele>-0.104</ele>
  <time>2026-09-02T22:07:26Z</time>
  <course>316.47</course>
  <speed>0.7308214556237386</speed>
  <fix>3d</fix>
</trkpt>
<trkpt lat="33.810296" lon="-118.3938703">
  <ele>-0.1</ele>
  <time>2026-09-02T22:07:26Z</time>
  <course>332.57</course>
  <speed>0.76</speed>
  <fix>3d</fix>
</trkpt>
<trkpt lat="33.8102982" lon="-118.3938711">
  <ele>-0.105</ele>
  <time>2026-09-02T22:07:26Z</time>
  <course>320.36</course>
  <speed>0.737563556583431</speed>
  <fix>3d</fix>
</trkpt>
<trkpt lat="33.8102973" lon="-118.393871">
  <ele>-0.1</ele>
  <time>2026-09-02T22:07:26Z</time>
  <course>340.29</course>
  <speed>0.76</speed>
  <fix>3d</fix>
</trkpt>
<trkpt lat="33.8102989" lon="-118.3938712">
  <ele>-0.107</ele>
  <time>2026-09-02T22:07:26Z</time>
  <course>324.22</course>
  <speed>0.7382411530116699</speed>
  <fix>3d</fix>
</trkpt>
<trkpt lat="33.8102973" lon="-118.393871">
  <ele>-0.1</ele>
  <time>2026-09-02T22:07:26Z</time>
  <course>340.29</course>
  <speed>0.76</speed>
  <fix>3d</fix>
</trkpt>
<trkpt lat="33.8102995" lon="-118.3938714">
  <ele>-0.107</ele>
  <time>2026-09-02T22:07:26Z</time>
  <course>328.08</course>
  <speed>0.7324616030891995</speed>
  <fix>3d</fix>
</trkpt>
<trkpt lat="33.8102987" lon="-118.3938714">
  <ele>-0.1</ele>
  <time>2026-09-02T22:07:26Z</time>
  <course>348.02</course>
  <speed>0.76</speed>
  <fix>3d</fix>
</trkpt>
<trkpt lat="33.8103002" lon="-118.3938714">
  <ele>-0.108</ele>
  <time>2026-09-02T22:07:26Z</time>
  <course>331.94</course>
  <speed>0.7300684899377592</speed>
  <fix>3d</fix>
</trkpt>
<trkpt lat="33.8102987" lon="-118.3938714">
  <ele>-0.1</ele>
  <time>2026-09-02T22:07:26Z</time>
  <course>348.02</course>
  <speed>0.76</speed>
  <fix>3d</fix>
</trkpt>
<trkpt lat="33.8103009" lon="-118.3938714">
  <ele>-0.108</ele>
  <time>2026-09-02T22:07:26Z</time>
  <course>335.8</course>
  <speed>0.7306161783043131</speed>
  <fix>3d</fix>
</trkpt>
<trkpt lat="33.8103" lon="-118.3938717">
  <ele>-0.1</ele>
  <time>2026-09-02T22:07:26Z</time>
  <course>355.74</course>
  <speed>0.76</speed>
  <fix>3d</fix>
</trkpt>
<trkpt lat="33.8103016" lon="-118.3938714">
  <ele>-0.107</ele>
  <time>2026-09-02T22:07:26Z</time>
  <course>339.66</course>
  <speed>0.7343704787094864</speed>
  <fix>3d</fix>
</trkpt>
<trkpt lat="33.8103" lon="-118.3938717">
  <ele>-0.1</ele>
  <time>2026-09-02T22:07:26Z</time>
  <course>355.74</course>
  <speed>0.76</speed>
  <fix>3d</fix>
</trkpt>
<trkpt lat="33.8103022" lon="-118.3938713">
  <ele>-0.107</ele>
  <time>2026-09-02T22:07:26Z</time>
  <course>343.51</course>
  <speed>0.7316419889536138</speed>
  <fix>3d</fix>
</trkpt>
<trkpt lat="33.8103014" lon="-118.3938717">
  <ele>-0.1</ele>
  <time>2026-09-02T22:07:26Z</time>
  <course>3.46</course>
  <speed>0.76</speed>
  <fix>3d</fix>
</trkpt>
<trkpt lat="33.8103029" lon="-118.3938711">
  <ele>-0.106</ele>
  <time>2026-09-02T22:07:26Z</time>
  <course>347.37</course>
  <speed>0.7324616030891995</speed>
  <fix>3d</fix>
</trkpt>
<trkpt lat="33.8103014" lon="-118.3938717">
  <ele>-0.1</ele>
  <time>2026-09-02T22:07:26Z</time>
  <course>3.46</course>
  <speed>0.76</speed>
  <fix>3d</fix>
</trkpt>
<trkpt lat="33.8103035" lon="-118.3938709">
  <ele>-0.106</ele>
  <time>2026-09-02T22:07:26Z</time>
  <course>351.23</course>
  <speed>0.7368174807915459</speed>
  <fix>3d</fix>
</trkpt>
<trkpt lat="33.8103027" lon="-118.3938715">
  <ele>-0.1</ele>
  <time>2026-09-02T22:07:26Z</time>
  <course>11.19</course>
  <speed>0.76</speed>
  <fix>3d</fix>
</trkpt>
<trkpt lat="33.8103042" lon="-118.3938708">
  <ele>-0.106</ele>
  <time>2026-09-02T22:07:26Z</time>
  <course>355.09</course>
  <speed>0.7353910524340094</speed>
  <fix>3d</fix>
</trkpt>
<trkpt lat="33.8103027" lon="-118.3938715">
  <ele>-0.1</ele>
  <time>2026-09-02T22:07:26Z</time>
  <course>11.19</course>
  <speed>0.76</speed>
  <fix>3d</fix>
</trkpt>
<trkpt lat="33.8103048" lon="-118.3938705">
  <ele>-0.108</ele>
  <time>2026-09-02T22:07:26Z</time>
  <course>357.83</course>
  <speed>0.7155417527999327</speed>
  <fix>3d</fix>
</trkpt>
<trkpt lat="33.810304" lon="-118.3938711">
  <ele>-0.1</ele>
  <time>2026-09-02T22:07:26Z</time>
  <course>18.92</course>
  <speed>0.76</speed>
  <fix>3d</fix>
</trkpt>
<trkpt lat="33.8103054" lon="-118.3938701">
  <ele>-0.109</ele>
  <time>2026-09-02T22:07:26Z</time>
  <course>359.03</course>
  <speed>0.7083078426785913</speed>
  <fix>3d</fix>
</trkpt>
<trkpt lat="33.810304" lon="-118.3938711">
  <ele>-0.1</ele>
  <time>2026-09-02T22:07:26Z</time>
  <course>18.92</course>
  <speed>0.76</speed>
  <fix>3d</fix>
</trkpt>
<trkpt lat="33.8103059" lon="-118.3938698">
  <ele>-0.109</ele>
  <time>2026-09-02T22:07:26Z</time>
  <course>359.8</course>
  <speed>0.5852349955359812</speed>
  <fix>3d</fix>
</trkpt>
<trkpt lat="33.8103052" lon="-118.3938705">
  <ele>-0.1</ele>
  <time>2026-09-02T22:07:26Z</time>
  <course>26.63</course>
  <speed>0.74</speed>
  <fix>3d</fix>
</trkpt>
<trkpt lat="33.8103063" lon="-118.3938695">
  <ele>-0.11</ele>
  <time>2026-09-02T22:07:26Z</time>
  <course>0.35</course>
  <speed>0.494064773081425</speed>
  <fix>3d</fix>
</trkpt>
<trkpt lat="33.8103052" lon="-118.3938705">
  <ele>-0.1</ele>
  <time>2026-09-02T22:07:26Z</time>
  <course>26.63</course>
  <speed>0.74</speed>
  <fix>3d</fix>
</trkpt>
<trkpt lat="33.8103067" lon="-118.3938698">
  <ele>-0.11</ele>
  <time>2026-09-02T22:07:26Z</time>
  <course>0.8</course>
  <speed>1.1352973178863766</speed>
  <fix>3d</fix>
</trkpt>
<trkpt lat="33.8103063" lon="-118.3938698">
  <ele>-0.1</ele>
  <time>2026-09-02T22:07:26Z</time>
  <course>32.41</course>
  <speed>0.61</speed>
  <fix>3d</fix>
</trkpt>
<trkpt lat="33.810307" lon="-118.3938713">
  <ele>-0.11</ele>
  <time>2026-09-02T22:07:26Z</time>
  <course>1.16</course>
  <speed>1.7575551200460255</speed>
  <fix>3d</fix>
</trkpt>
<trkpt lat="33.8103063" lon="-118.3938698">
  <ele>-0.1</ele>
  <time>2026-09-02T22:07:26Z</time>
  <course>32.41</course>
  <speed>0.61</speed>
  <fix>3d</fix>
</trkpt>
<trkpt lat="33.810307" lon="-118.3938714">
  <ele>-0.11</ele>
  <time>2026-09-02T22:07:26Z</time>
  <course>1.17</course>
  <speed>1.7673992191918608</speed>
  <fix>3d</fix>
</trkpt>
<trkpt lat="33.8103073" lon="-118.3938732">
  <ele>-0.11</ele>
  <time>2026-09-02T22:07:26Z</time>
  <course>1.47</course>
  <speed>1.8414125013152267</speed>
  <fix>3d</fix>
</trkpt>
<trkpt lat="33.8103071" lon="-118.3938706">
  <ele>-0.1</ele>
  <time>2026-09-02T22:07:26Z</time>
  <course>294.68</course>
  <speed>0.81</speed>
  <fix>3d</fix>
</trkpt>
<trkpt lat="33.8103074" lon="-118.3938739">
  <ele>-0.11</ele>
  <time>2026-09-02T22:07:26Z</time>
  <course>1.58</course>
  <speed>1.8399184764548673</speed>
  <fix>3d</fix>
</trkpt>
<trkpt lat="33.8103074" lon="-118.3938742">
  <ele>-0.11</ele>
  <time>2026-09-02T22:07:26Z</time>
  <course>1.61</course>
  <speed>1.8399184764548673</speed>
  <fix>3d</fix>
</trkpt>
<trkpt lat="33.8103075" lon="-118.3938743">
  <ele>-0.11</ele>
  <time>2026-09-02T22:07:26Z</time>
  <course>1.64</course>
  <speed>1.8399184764548673</speed>
  <fix>3d</fix>
</trkpt>
<trkpt lat="33.8103075" lon="-118.3938745">
  <ele>-0.11</ele>
  <time>2026-09-02T22:07:26Z</time>
  <course>1.66</course>
  <speed>1.8399184764548673</speed>
  <fix>3d</fix>
</trkpt>
<trkpt lat="33.8103075" lon="-118.3938747">
  <ele>-0.11</ele>
  <time>2026-09-02T22:07:26Z</time>
  <course>1.69</course>
  <speed>1.828578683021324</speed>
  <fix>3d</fix>
</trkpt>
<trkpt lat="33.8103075" lon="-118.3938749">
  <ele>-0.11</ele>
  <time>2026-09-02T22:07:26Z</time>
  <course>1.71</course>
  <speed>1.828578683021324</speed>
  <fix>3d</fix>
</trkpt>
<trkpt lat="33.8103076" lon="-118.393875">
  <ele>-0.11</ele>
  <time>2026-09-02T22:07:26Z</time>
  <course>1.73</course>
  <speed>1.828578683021324</speed>
  <fix>3d</fix>
</trkpt>
<trkpt lat="33.8103071" lon="-118.3938706">
  <ele>-0.1</ele>
  <time>2026-09-02T22:07:26Z</time>
  <course>294.68</course>
  <speed>0.81</speed>
  <fix>3d</fix>
</trkpt>
<trkpt lat="33.8103076" lon="-118.393875">
  <ele>-0.11</ele>
  <time>2026-09-02T22:07:26Z</time>
  <course>1.73</course>
  <speed>1.828578683021324</speed>
  <fix>3d</fix>
</trkpt>
<trkpt lat="33.8103076" lon="-118.3938754">
  <ele>-0.11</ele>
  <time>2026-09-02T22:07:26Z</time>
  <course>1.78</course>
  <speed>1.828578683021324</speed>
  <fix>3d</fix>
</trkpt>
<trkpt lat="33.8103076" lon="-118.3938755">
  <ele>-0.11</ele>
  <time>2026-09-02T22:07:26Z</time>
  <course>1.8</course>
  <speed>1.827183625145541</speed>
  <fix>3d</fix>
</trkpt>
<trkpt lat="33.8103076" lon="-118.3938757">
  <ele>-0.11</ele>
  <time>2026-09-02T22:07:26Z</time>
  <course>1.82</course>
  <speed>1.827183625145541</speed>
  <fix>3d</fix>
</trkpt>
<trkpt lat="33.8103077" lon="-118.3938758">
  <ele>-0.11</ele>
  <time>2026-09-02T22:07:26Z</time>
  <course>1.84</course>
  <speed>1.827183625145541</speed>
  <fix>3d</fix>
</trkpt>
<trkpt lat="33.8103077" lon="-118.393876">
  <ele>-0.11</ele>
  <time>2026-09-02T22:07:26Z</time>
  <course>1.86</course>
  <speed>1.827183625145541</speed>
  <fix>3d</fix>
</trkpt>
<trkpt lat="33.8103077" lon="-118.3938762">
  <ele>-0.11</ele>
  <time>2026-09-02T22:07:26Z</time>
  <course>1.88</course>
  <speed>1.827183625145541</speed>
  <fix>3d</fix>
</trkpt>
<trkpt lat="33.8103077" lon="-118.3938764">
  <ele>-0.11</ele>
  <time>2026-09-02T22:07:26Z</time>
  <course>1.9</course>
  <speed>1.827183625145541</speed>
  <fix>3d</fix>
</trkpt>
<trkpt lat="33.8103078" lon="-118.3938765">
  <ele>-0.11</ele>
  <time>2026-09-02T22:07:26Z</time>
  <course>1.92</course>
  <speed>1.8258422713914804</speed>
  <fix>3d</fix>
</trkpt>
<trkpt lat="33.8103078" lon="-118.3938767">
  <ele>-0.11</ele>
  <time>2026-09-02T22:07:26Z</time>
  <course>1.94</course>
  <speed>1.8258422713914804</speed>
  <fix>3d</fix>
</trkpt>
<trkpt lat="33.8103078" lon="-118.3938768">
  <ele>-0.11</ele>
  <time>2026-09-02T22:07:26Z</time>
  <course>1.96</course>
  <speed>1.8258422713914804</speed>
  <fix>3d</fix>
</trkpt>
<trkpt lat="33.8103076" lon="-118.3938737">
  <ele>-0.1</ele>
  <time>2026-09-02T22:07:26Z</time>
  <course>277.86</course>
  <speed>1.8</speed>
  <fix>3d</fix>
</trkpt>
<trkpt lat="33.8103078" lon="-118.3938769">
  <ele>-0.11</ele>
  <time>2026-09-02T22:07:26Z</time>
  <course>1.97</course>
  <speed>1.8159295140505867</speed>
  <fix>3d</fix>
</trkpt>
<trkpt lat="33.8103078" lon="-118.3938772">
  <ele>-0.11</ele>
  <time>2026-09-02T22:07:26Z</time>
  <course>2.0</course>
  <speed>1.8159295140505867</speed>
  <fix>3d</fix>
</trkpt>
<trkpt lat="33.8103079" lon="-118.3938773">
  <ele>-0.109</ele>
  <time>2026-09-02T22:07:26Z</time>
  <course>2.02</course>
  <speed>1.8159295140505867</speed>
  <fix>3d</fix>
</trkpt>
<trkpt lat="33.8103079" lon="-118.3938775">
  <ele>-0.109</ele>
  <time>2026-09-02T22:07:26Z</time>
  <course>2.04</course>
  <speed>1.8159295140505867</speed>
  <fix>3d</fix>
</trkpt>
<trkpt lat="33.8103079" lon="-118.3938776">
  <ele>-0.109</ele>
  <time>2026-09-02T22:07:26Z</time>
  <course>2.05</course>
  <speed>1.8159295140505867</speed>
  <fix>3d</fix>
</trkpt>
<trkpt lat="33.8103079" lon="-118.3938778">
  <ele>-0.109</ele>
  <time>2026-09-02T22:07:26Z</time>
  <course>2.08</course>
  <speed>1.8146349495146399</speed>
  <fix>3d</fix>
</trkpt>
<trkpt lat="33.8103079" lon="-118.393878">
  <ele>-0.109</ele>
  <time>2026-09-02T22:07:26Z</time>
  <course>2.09</course>
  <speed>1.8146349495146399</speed>
  <fix>3d</fix>
</trkpt>
<trkpt lat="33.810308" lon="-118.3938781">
  <ele>-0.109</ele>
  <time>2026-09-02T22:07:26Z</time>
  <course>2.11</course>
  <speed>1.8146349495146399</speed>
  <fix>3d</fix>
</trkpt>
<trkpt lat="33.810308" lon="-118.3938783">
  <ele>-0.109</ele>
  <time>2026-09-02T22:07:26Z</time>
  <course>2.13</course>
  <speed>1.8146349495146399</speed>
  <fix>3d</fix>
</trkpt>
<trkpt lat="33.810308" lon="-118.3938785">
  <ele>-0.109</ele>
  <time>2026-09-02T22:07:26Z</time>
  <course>2.15</course>
  <speed>1.8146349495146399</speed>
  <fix>3d</fix>
</trkpt>
<trkpt lat="33.810308" lon="-118.3938787">
  <ele>-0.109</ele>
  <time>2026-09-02T22:07:26Z</time>
  <course>2.18</course>
  <speed>1.8146349495146399</speed>
  <fix>3d</fix>
</trkpt>
<trkpt lat="33.810308" lon="-118.3938787">
  <ele>-0.109</ele>
  <time>2026-09-02T22:07:26Z</time>
  <course>2.18</course>
  <speed>1.8146349495146399</speed>
  <fix>3d</fix>
</trkpt>
<trkpt lat="33.8103076" lon="-118.3938737">
  <ele>-0.1</ele>
  <time>2026-09-02T22:07:26Z</time>
  <course>277.86</course>
  <speed>1.8</speed>
  <fix>3d</fix>
</trkpt>
<trkpt lat="33.8103081" lon="-118.393879">
  <ele>-0.109</ele>
  <time>2026-09-02T22:07:26Z</time>
  <course>2.21</course>
  <speed>1.813394606807906</speed>
  <fix>3d</fix>
</trkpt>
<trkpt lat="33.8103081" lon="-118.3938792">
  <ele>-0.109</ele>
  <time>2026-09-02T22:07:26Z</time>
  <course>2.23</course>
  <speed>1.813394606807906</speed>
  <fix>3d</fix>
</trkpt>
<trkpt lat="33.8103081" lon="-118.3938793">
  <ele>-0.109</ele>
  <time>2026-09-02T22:07:26Z</time>
  <course>2.24</course>
  <speed>1.813394606807906</speed>
  <fix>3d</fix>
</trkpt>
<trkpt lat="33.8103081" lon="-118.3938795">
  <ele>-0.109</ele>
  <time>2026-09-02T22:07:26Z</time>
  <course>2.26</course>
  <speed>1.813394606807906</speed>
  <fix>3d</fix>
</trkpt>
<trkpt lat="33.8103081" lon="-118.3938796">
  <ele>-0.109</ele>
  <time>2026-09-02T22:07:26Z</time>
  <course>2.28</course>
  <speed>1.8034688796871432</speed>
  <fix>3d</fix>
</trkpt>
<trkpt lat="33.8103081" lon="-118.3938798">
  <ele>-0.109</ele>
  <time>2026-09-02T22:07:26Z</time>
  <course>2.29</course>
  <speed>1.8034688796871432</speed>
  <fix>3d</fix>
</trkpt>
<trkpt lat="33.8103082" lon="-118.3938799">
  <ele>-0.109</ele>
  <time>2026-09-02T22:07:26Z</time>
  <course>2.31</course>
  <speed>1.8034688796871432</speed>
  <fix>3d</fix>
</trkpt>
<trkpt lat="33.8103082" lon="-118.3938801">
  <ele>-0.109</ele>
  <time>2026-09-02T22:07:26Z</time>
  <course>2.32</course>
  <speed>1.8034688796871432</speed>
  <fix>3d</fix>
</trkpt>
<trkpt lat="33.8103082" lon="-118.3938802">
  <ele>-0.109</ele>
  <time>2026-09-02T22:07:26Z</time>
  <course>2.33</course>
  <speed>1.8034688796871432</speed>
  <fix>3d</fix>
</trkpt>
<trkpt lat="33.8103082" lon="-118.3938803">
  <ele>-0.109</ele>
  <time>2026-09-02T22:07:26Z</time>
  <course>2.35</course>
  <speed>1.8034688796871432</speed>
  <fix>3d</fix>
</trkpt>
<trkpt lat="33.8103082" lon="-118.3938805">
  <ele>-0.109</ele>
  <time>2026-09-02T22:07:26Z</time>
  <course>2.36</course>
  <speed>1.8034688796871432</speed>
  <fix>3d</fix>
</trkpt>
<trkpt lat="33.8103082" lon="-118.3938806">
  <ele>-0.109</ele>
  <time>2026-09-02T22:07:26Z</time>
  <course>2.37</course>
  <speed>1.8034688796871432</speed>
  <fix>3d</fix>
</trkpt>
<trkpt lat="33.810308" lon="-118.3938776">
  <ele>-0.1</ele>
  <time>2026-09-02T22:07:26Z</time>
  <course>276.41</course>
  <speed>1.83</speed>
  <fix>3d</fix>
</trkpt>
<trkpt lat="33.8103082" lon="-118.3938806">
  <ele>-0.109</ele>
  <time>2026-09-02T22:07:26Z</time>
  <course>2.38</course>
  <speed>1.8022763384120648</speed>
  <fix>3d</fix>
</trkpt>
<trkpt lat="33.8103083" lon="-118.3938809">
  <ele>-0.11</ele>
  <time>2026-09-02T22:07:26Z</time>
  <course>2.4</course>
  <speed>1.8022763384120648</speed>
  <fix>3d</fix>
</trkpt>
<trkpt lat="33.8103083" lon="-118.3938811">
  <ele>-0.11</ele>
  <time>2026-09-02T22:07:26Z</time>
  <course>2.42</course>
  <speed>1.8022763384120648</speed>
  <fix>3d</fix>
</trkpt>
<trkpt lat="33.8103083" lon="-118.3938812">
  <ele>-0.11</ele>
  <time>2026-09-02T22:07:26Z</time>
  <course>2.44</course>
  <speed>1.8022763384120648</speed>
  <fix>3d</fix>
</trkpt>
<trkpt lat="33.8103083" lon="-118.3938814">
  <ele>-0.11</ele>
  <time>2026-09-02T22:07:26Z</time>
  <course>2.45</course>
  <speed>1.8022763384120648</speed>
  <fix>3d</fix>
</trkpt>
<trkpt lat="33.8103083" lon="-118.3938815">
  <ele>-0.11</ele>
  <time>2026-09-02T22:07:26Z</time>
  <course>2.46</course>
  <speed>1.8022763384120648</speed>
  <fix>3d</fix>
</trkpt>
<trkpt lat="33.8103083" lon="-118.3938817">
  <ele>-0.11</ele>
  <time>2026-09-02T22:07:26Z</time>
  <course>2.48</course>
  <speed>1.8022763384120648</speed>
  <fix>3d</fix>
</trkpt>
<trkpt lat="33.8103084" lon="-118.3938818">
  <ele>-0.11</ele>
  <time>2026-09-02T22:07:26Z</time>
  <course>2.49</course>
  <speed>1.8022763384120648</speed>
  <fix>3d</fix>
</trkpt>
<trkpt lat="33.8103084" lon="-118.393882">
  <ele>-0.11</ele>
  <time>2026-09-02T22:07:26Z</time>
  <course>2.51</course>
  <speed>1.8022763384120648</speed>
  <fix>3d</fix>
</trkpt>
<trkpt lat="33.8103084" lon="-118.3938821">
  <ele>-0.11</ele>
  <time>2026-09-02T22:07:26Z</time>
  <course>2.52</course>
  <speed>1.8022763384120648</speed>
  <fix>3d</fix>
</trkpt>
<trkpt lat="33.8103084" lon="-118.3938823">
  <ele>-0.11</ele>
  <time>2026-09-02T22:07:26Z</time>
  <course>2.53</course>
  <speed>1.8022763384120648</speed>
  <fix>3d</fix>
</trkpt>
<trkpt lat="33.8103084" lon="-118.3938824">
  <ele>-0.11</ele>
  <time>2026-09-02T22:07:26Z</time>
  <course>2.55</course>
  <speed>1.8022763384120648</speed>
  <fix>3d</fix>
</trkpt>
<trkpt lat="33.8103084" lon="-118.3938825">
  <ele>-0.11</ele>
  <time>2026-09-02T22:07:26Z</time>
  <course>2.55</course>
  <speed>1.8022763384120648</speed>
  <fix>3d</fix>
</trkpt>
<trkpt lat="33.810308" lon="-118.3938776">
  <ele>-0.1</ele>
  <time>2026-09-02T22:07:26Z</time>
  <course>276.41</course>
  <speed>1.83</speed>
  <fix>3d</fix>
</trkpt>
<trkpt lat="33.8103084" lon="-118.3938825">
  <ele>-0.11</ele>
  <time>2026-09-02T22:07:26Z</time>
  <course>2.56</course>
  <speed>1.801138528820035</speed>
  <fix>3d</fix>
</trkpt>
<trkpt lat="33.8103085" lon="-118.3938829">
  <ele>-0.11</ele>
  <time>2026-09-02T22:07:26Z</time>
  <course>2.59</course>
  <speed>1.801138528820035</speed>
  <fix>3d</fix>
</trkpt>
<trkpt lat="33.8103085" lon="-118.3938831">
  <ele>-0.111</ele>
  <time>2026-09-02T22:07:26Z</time>
  <course>2.61</course>
  <speed>1.801138528820035</speed>
  <fix>3d</fix>
</trkpt>
<trkpt lat="33.8103085" lon="-118.3938832">
  <ele>-0.111</ele>
  <time>2026-09-02T22:07:26Z</time>
  <course>2.62</course>
  <speed>1.801138528820035</speed>
  <fix>3d</fix>
</trkpt>
<trkpt lat="33.8103085" lon="-118.3938834">
  <ele>-0.111</ele>
  <time>2026-09-02T22:07:26Z</time>
  <course>2.64</course>
  <speed>1.801138528820035</speed>
  <fix>3d</fix>
</trkpt>
<trkpt lat="33.8103086" lon="-118.3938839">
  <ele>-0.111</ele>
  <time>2026-09-02T22:07:26Z</time>
  <course>2.68</course>
  <speed>1.801138528820035</speed>
  <fix>3d</fix>
</trkpt>
<trkpt lat="33.8103086" lon="-118.3938841">
  <ele>-0.111</ele>
  <time>2026-09-02T22:07:26Z</time>
  <course>2.7</course>
  <speed>1.801138528820035</speed>
  <fix>3d</fix>
</trkpt>
<trkpt lat="33.8103086" lon="-118.3938843">
  <ele>-0.111</ele>
  <time>2026-09-02T22:07:26Z</time>
  <course>2.71</course>
  <speed>1.801138528820035</speed>
  <fix>3d</fix>
</trkpt>
<trkpt lat="33.8103086" lon="-118.3938844">
  <ele>-0.111</ele>
  <time>2026-09-02T22:07:26Z</time>
  <course>2.72</course>
  <speed>1.801138528820035</speed>
  <fix>3d</fix>
</trkpt>
<trkpt lat="33.8103083" lon="-118.3938815">
  <ele>-0.1</ele>
  <time>2026-09-02T22:07:26Z</time>
  <course>275.62</course>
  <speed>1.82</speed>
  <fix>3d</fix>
</trkpt>
<trkpt lat="33.8103086" lon="-118.3938844">
  <ele>-0.111</ele>
  <time>2026-09-02T22:07:26Z</time>
  <course>2.72</course>
  <speed>1.801138528820035</speed>
  <fix>3d</fix>
</trkpt>
<trkpt lat="33.8103086" lon="-118.3938848">
  <ele>-0.111</ele>
  <time>2026-09-02T22:07:26Z</time>
  <course>2.76</course>
  <speed>1.790111728356641</speed>
  <fix>3d</fix>
</trkpt>
<trkpt lat="33.8103087" lon="-118.393885">
  <ele>-0.111</ele>
  <time>2026-09-02T22:07:26Z</time>
  <course>2.77</course>
  <speed>1.790111728356641</speed>
  <fix>3d</fix>
</trkpt>
<trkpt lat="33.8103087" lon="-118.3938852">
  <ele>-0.111</ele>
  <time>2026-09-02T22:07:26Z</time>
  <course>2.78</course>
  <speed>1.790111728356641</speed>
  <fix>3d</fix>
</trkpt>
<trkpt lat="33.8103087" lon="-118.3938854">
  <ele>-0.111</ele>
  <time>2026-09-02T22:07:26Z</time>
  <course>2.8</course>
  <speed>1.790111728356641</speed>
  <fix>3d</fix>
</trkpt>
<trkpt lat="33.8103087" lon="-118.3938855">
  <ele>-0.111</ele>
  <time>2026-09-02T22:07:26Z</time>
  <course>2.81</course>
  <speed>1.790111728356641</speed>
  <fix>3d</fix>
</trkpt>
<trkpt lat="33.8103087" lon="-118.3938857">
  <ele>-0.11</ele>
  <time>2026-09-02T22:07:26Z</time>
  <course>2.82</course>
  <speed>1.790111728356641</speed>
  <fix>3d</fix>
</trkpt>
<trkpt lat="33.8103087" lon="-118.3938859">
  <ele>-0.11</ele>
  <time>2026-09-02T22:07:26Z</time>
  <course>2.84</course>
  <speed>1.790111728356641</speed>
  <fix>3d</fix>
</trkpt>
<trkpt lat="33.8103088" lon="-118.3938861">
  <ele>-0.11</ele>
  <time>2026-09-02T22:07:26Z</time>
  <course>2.85</course>
  <speed>1.790111728356641</speed>
  <fix>3d</fix>
</trkpt>
<trkpt lat="33.8103088" lon="-118.3938863">
  <ele>-0.11</ele>
  <time>2026-09-02T22:07:26Z</time>
  <course>2.87</course>
  <speed>1.790111728356641</speed>
  <fix>3d</fix>
</trkpt>
<trkpt lat="33.8103088" lon="-118.3938863">
  <ele>-0.11</ele>
  <time>2026-09-02T22:07:26Z</time>
  <course>2.87</course>
  <speed>1.790111728356641</speed>
  <fix>3d</fix>
</trkpt>
<trkpt lat="33.8103083" lon="-118.3938815">
  <ele>-0.1</ele>
  <time>2026-09-02T22:07:26Z</time>
  <course>275.62</course>
  <speed>1.82</speed>
  <fix>3d</fix>
</trkpt>
<trkpt lat="33.8103088" lon="-118.3938864">
  <ele>-0.11</ele>
  <time>2026-09-02T22:07:26Z</time>
  <course>2.88</course>
  <speed>1.790111728356641</speed>
  <fix>3d</fix>
</trkpt>
<trkpt lat="33.8103088" lon="-118.3938867">
  <ele>-0.11</ele>
  <time>2026-09-02T22:07:26Z</time>
  <course>2.9</course>
  <speed>1.790111728356641</speed>
  <fix>3d</fix>
</trkpt>
<trkpt lat="33.8103088" lon="-118.3938869">
  <ele>-0.11</ele>
  <time>2026-09-02T22:07:26Z</time>
  <course>2.92</course>
  <speed>1.790111728356641</speed>
  <fix>3d</fix>
</trkpt>
<trkpt lat="33.8103088" lon="-118.3938871">
  <ele>-0.11</ele>
  <time>2026-09-02T22:07:26Z</time>
  <course>2.93</course>
  <speed>1.790111728356641</speed>
  <fix>3d</fix>
</trkpt>
<trkpt lat="33.8103089" lon="-118.3938872">
  <ele>-0.11</ele>
  <time>2026-09-02T22:07:26Z</time>
  <course>2.94</course>
  <speed>1.790111728356641</speed>
  <fix>3d</fix>
</trkpt>
<trkpt lat="33.8103089" lon="-118.3938874">
  <ele>-0.109</ele>
  <time>2026-09-02T22:07:26Z</time>
  <course>2.95</course>
  <speed>1.790111728356641</speed>
  <fix>3d</fix>
</trkpt>
<trkpt lat="33.8103089" lon="-118.3938876">
  <ele>-0.109</ele>
  <time>2026-09-02T22:07:26Z</time>
  <course>2.97</course>
  <speed>1.790111728356641</speed>
  <fix>3d</fix>
</trkpt>
<trkpt lat="33.8103089" lon="-118.3938877">
  <ele>-0.109</ele>
  <time>2026-09-02T22:07:26Z</time>
  <course>2.98</course>
  <speed>1.7890779748239034</speed>
  <fix>3d</fix>
</trkpt>
<trkpt lat="33.8103089" lon="-118.3938879">
  <ele>-0.109</ele>
  <time>2026-09-02T22:07:26Z</time>
  <course>2.99</course>
  <speed>1.7890779748239034</speed>
  <fix>3d</fix>
</trkpt>
<trkpt lat="33.8103089" lon="-118.3938881">
  <ele>-0.109</ele>
  <time>2026-09-02T22:07:26Z</time>
  <course>3.01</course>
  <speed>1.7890779748239034</speed>
  <fix>3d</fix>
</trkpt>
<trkpt lat="33.8103089" lon="-118.3938882">
  <ele>-0.109</ele>
  <time>2026-09-02T22:07:26Z</time>
  <course>3.02</course>
  <speed>1.7890779748239034</speed>
  <fix>3d</fix>
</trkpt>
<trkpt lat="33.8103086" lon="-118.3938855">
  <ele>-0.1</ele>
  <time>2026-09-02T22:07:26Z</time>
  <course>275.12</course>
  <speed>1.82</speed>
  <fix>3d</fix>
</trkpt>
<trkpt lat="33.8103089" lon="-118.3938883">
  <ele>-0.109</ele>
  <time>2026-09-02T22:07:26Z</time>
  <course>3.02</course>
  <speed>1.7890779748239034</speed>
  <fix>3d</fix>
</trkpt>
<trkpt lat="33.810309" lon="-118.3938888">
  <ele>-0.109</ele>
  <time>2026-09-02T22:07:26Z</time>
  <course>3.06</course>
  <speed>1.7890779748239034</speed>
  <fix>3d</fix>
</trkpt>
<trkpt lat="33.810309" lon="-118.393889">
  <ele>-0.109</ele>
  <time>2026-09-02T22:07:26Z</time>
  <course>3.07</course>
  <speed>1.7890779748239034</speed>
  <fix>3d</fix>
</trkpt>
<trkpt lat="33.810309" lon="-118.3938892">
  <ele>-0.109</ele>
  <time>2026-09-02T22:07:26Z</time>
  <course>3.08</course>
  <speed>1.7890779748239034</speed>
  <fix>3d</fix>
</trkpt>
<trkpt lat="33.810309" lon="-118.3938894">
  <ele>-0.109</ele>
  <time>2026-09-02T22:07:26Z</time>
  <course>3.1</course>
  <speed>1.7890779748239034</speed>
  <fix>3d</fix>
</trkpt>
<trkpt lat="33.810309" lon="-118.3938896">
  <ele>-0.109</ele>
  <time>2026-09-02T22:07:26Z</time>
  <course>3.11</course>
  <speed>1.7890779748239034</speed>
  <fix>3d</fix>
</trkpt>
<trkpt lat="33.8103091" lon="-118.3938898">
  <ele>-0.108</ele>
  <time>2026-09-02T22:07:26Z</time>
  <course>3.13</course>
  <speed>1.7890779748239034</speed>
  <fix>3d</fix>
</trkpt>
<trkpt lat="33.8103091" lon="-118.39389">
  <ele>-0.108</ele>
  <time>2026-09-02T22:07:26Z</time>
  <course>3.14</course>
  <speed>1.7890779748239034</speed>
  <fix>3d</fix>
</trkpt>
<trkpt lat="33.8103091" lon="-118.3938902">
  <ele>-0.108</ele>
  <time>2026-09-02T22:07:26Z</time>
  <course>3.15</course>
  <speed>1.7890779748239034</speed>
  <fix>3d</fix>
</trkpt>
<trkpt lat="33.8103091" lon="-118.3938902">
  <ele>-0.108</ele>
  <time>2026-09-02T22:07:26Z</time>
  <course>3.15</course>
  <speed>1.7890779748239034</speed>
  <fix>3d</fix>
</trkpt>
<trkpt lat="33.8103086" lon="-118.3938855">
  <ele>-0.1</ele>
  <time>2026-09-02T22:07:26Z</time>
  <course>275.12</course>
  <speed>1.82</speed>
  <fix>3d</fix>
</trkpt>
<trkpt lat="33.8103091" lon="-118.3938905">
  <ele>-0.108</ele>
  <time>2026-09-02T22:07:26Z</time>
  <course>3.18</course>
  <speed>1.7890779748239034</speed>
  <fix>3d</fix>
</trkpt>
<trkpt lat="33.8103091" lon="-118.3938907">
  <ele>-0.108</ele>
  <time>2026-09-02T22:07:26Z</time>
  <course>3.19</course>
  <speed>1.7890779748239034</speed>
  <fix>3d</fix>
</trkpt>
<trkpt lat="33.8103091" lon="-118.3938909">
  <ele>-0.108</ele>
  <time>2026-09-02T22:07:26Z</time>
  <course>3.2</course>
  <speed>1.7890779748239034</speed>
  <fix>3d</fix>
</trkpt>
<trkpt lat="33.8103091" lon="-118.393891">
  <ele>-0.108</ele>
  <time>2026-09-02T22:07:26Z</time>
  <course>3.21</course>
  <speed>1.7880995498014085</speed>
  <fix>3d</fix>
</trkpt>
<trkpt lat="33.8103092" lon="-118.3938912">
  <ele>-0.108</ele>
  <time>2026-09-02T22:07:26Z</time>
  <course>3.22</course>
  <speed>1.7880995498014085</speed>
  <fix>3d</fix>
</trkpt>
<trkpt lat="33.8103092" lon="-118.3938913">
  <ele>-0.108</ele>
  <time>2026-09-02T22:07:26Z</time>
  <course>3.23</course>
  <speed>1.7880995498014085</speed>
  <fix>3d</fix>
</trkpt>
<trkpt lat="33.8103092" lon="-118.3938915">
  <ele>-0.108</ele>
  <time>2026-09-02T22:07:26Z</time>
  <course>3.24</course>
  <speed>1.7880995498014085</speed>
  <fix>3d</fix>
</trkpt>
<trkpt lat="33.8103092" lon="-118.3938917">
  <ele>-0.108</ele>
  <time>2026-09-02T22:07:26Z</time>
  <course>3.25</course>
  <speed>1.7880995498014085</speed>
  <fix>3d</fix>
</trkpt>
<trkpt lat="33.8103092" lon="-118.3938919">
  <ele>-0.108</ele>
  <time>2026-09-02T22:07:26Z</time>
  <course>3.26</course>
  <speed>1.7880995498014085</speed>
  <fix>3d</fix>
</trkpt>
<trkpt lat="33.8103092" lon="-118.3938921">
  <ele>-0.108</ele>
  <time>2026-09-02T22:07:26Z</time>
  <course>3.28</course>
  <speed>1.7880995498014085</speed>
  <fix>3d</fix>
</trkpt>
<trkpt lat="33.8103089" lon="-118.3938894">
  <ele>-0.1</ele>
  <time>2026-09-02T22:07:26Z</time>
  <course>274.77</course>
  <speed>1.82</speed>
  <fix>3d</fix>
</trkpt>
<trkpt lat="33.8103092" lon="-118.3938921">
  <ele>-0.108</ele>
  <time>2026-09-02T22:07:26Z</time>
  <course>3.28</course>
  <speed>1.7880995498014085</speed>
  <fix>3d</fix>
</trkpt>
<trkpt lat="33.8103093" lon="-118.3938925">
  <ele>-0.108</ele>
  <time>2026-09-02T22:07:26Z</time>
  <course>3.3</course>
  <speed>1.7880995498014085</speed>
  <fix>3d</fix>
</trkpt>
<trkpt lat="33.8103093" lon="-118.3938927">
  <ele>-0.108</ele>
  <time>2026-09-02T22:07:26Z</time>
  <course>3.31</course>
  <speed>1.7880995498014085</speed>
  <fix>3d</fix>
</trkpt>
<trkpt lat="33.8103093" lon="-118.3938929">
  <ele>-0.108</ele>
  <time>2026-09-02T22:07:26Z</time>
  <course>3.32</course>
  <speed>1.7880995498014085</speed>
  <fix>3d</fix>
</trkpt>
<trkpt lat="33.8103093" lon="-118.393893">
  <ele>-0.108</ele>
  <time>2026-09-02T22:07:26Z</time>
  <course>3.33</course>
  <speed>1.7880995498014085</speed>
  <fix>3d</fix>
</trkpt>
<trkpt lat="33.8103093" lon="-118.3938932">
  <ele>-0.108</ele>
  <time>2026-09-02T22:07:26Z</time>
  <course>3.34</course>
  <speed>1.7880995498014085</speed>
  <fix>3d</fix>
</trkpt>
<trkpt lat="33.8103093" lon="-118.3938933">
  <ele>-0.108</ele>
  <time>2026-09-02T22:07:26Z</time>
  <course>3.35</course>
  <speed>1.7880995498014085</speed>
  <fix>3d</fix>
</trkpt>
<trkpt lat="33.8103093" lon="-118.3938935">
  <ele>-0.108</ele>
  <time>2026-09-02T22:07:26Z</time>
  <course>3.36</course>
  <speed>1.7880995498014085</speed>
  <fix>3d</fix>
</trkpt>
<trkpt lat="33.8103093" lon="-118.3938937">
  <ele>-0.108</ele>
  <time>2026-09-02T22:07:26Z</time>
  <course>3.37</course>
  <speed>1.7880995498014085</speed>
  <fix>3d</fix>
</trkpt>
<trkpt lat="33.8103093" lon="-118.3938938">
  <ele>-0.108</ele>
  <time>2026-09-02T22:07:26Z</time>
  <course>3.38</course>
  <speed>1.7880995498014085</speed>
  <fix>3d</fix>
</trkpt>
<trkpt lat="33.8103094" lon="-118.393894">
  <ele>-0.108</ele>
  <time>2026-09-02T22:07:26Z</time>
  <course>3.39</course>
  <speed>1.7880995498014085</speed>
  <fix>3d</fix>
</trkpt>
<trkpt lat="33.8103094" lon="-118.393894">
  <ele>-0.108</ele>
  <time>2026-09-02T22:07:26Z</time>
  <course>3.39</course>
  <speed>1.7880995498014085</speed>
  <fix>3d</fix>
</trkpt>
<trkpt lat="33.8103089" lon="-118.3938894">
  <ele>-0.1</ele>
  <time>2026-09-02T22:07:26Z</time>
  <course>274.77</course>
  <speed>1.82</speed>
  <fix>3d</fix>
</trkpt>
<trkpt lat="33.8103094" lon="-118.3938941">
  <ele>-0.108</ele>
  <time>2026-09-02T22:07:26Z</time>
  <course>3.4</course>
  <speed>1.7880995498014085</speed>
  <fix>3d</fix>
</trkpt>
<trkpt lat="33.8103094" lon="-118.3938949">
  <ele>-0.108</ele>
  <time>2026-09-02T22:07:26Z</time>
  <course>3.45</course>
  <speed>1.7880995498014085</speed>
  <fix>3d</fix>
</trkpt>
<trkpt lat="33.8103094" lon="-118.3938952">
  <ele>-0.108</ele>
  <time>2026-09-02T22:07:26Z</time>
  <course>3.46</course>
  <speed>1.7871765441612084</speed>
  <fix>3d</fix>
</trkpt>
<trkpt lat="33.8103095" lon="-118.3938954">
  <ele>-0.108</ele>
  <time>2026-09-02T22:07:26Z</time>
  <course>3.47</course>
  <speed>1.7871765441612084</speed>
  <fix>3d</fix>
</trkpt>
<trkpt lat="33.8103095" lon="-118.3938955">
  <ele>-0.108</ele>
  <time>2026-09-02T22:07:26Z</time>
  <course>3.48</course>
  <speed>1.7871765441612084</speed>
  <fix>3d</fix>
</trkpt>
<trkpt lat="33.8103095" lon="-118.3938957">
  <ele>-0.108</ele>
  <time>2026-09-02T22:07:26Z</time>
  <course>3.49</course>
  <speed>1.7871765441612084</speed>
  <fix>3d</fix>
</trkpt>
<trkpt lat="33.8103095" lon="-118.3938958">
  <ele>-0.108</ele>
  <time>2026-09-02T22:07:26Z</time>
  <course>3.5</course>
  <speed>1.7871765441612084</speed>
  <fix>3d</fix>
</trkpt>
<trkpt lat="33.8103095" lon="-118.393896">
  <ele>-0.108</ele>
  <time>2026-09-02T22:07:26Z</time>
  <course>3.51</course>
  <speed>1.7871765441612084</speed>
  <fix>3d</fix>
</trkpt>
<trkpt lat="33.8103095" lon="-118.393896">
  <ele>-0.108</ele>
  <time>2026-09-02T22:07:26Z</time>
  <course>3.51</course>
  <speed>1.7871765441612084</speed>
  <fix>3d</fix>
</trkpt>
<trkpt lat="33.8103092" lon="-118.3938933">
  <ele>-0.1</ele>
  <time>2026-09-02T22:07:26Z</time>
  <course>274.54</course>
  <speed>1.82</speed>
  <fix>3d</fix>
</trkpt>
<trkpt lat="33.8103095" lon="-118.3938963">
  <ele>-0.108</ele>
  <time>2026-09-02T22:07:26Z</time>
  <course>3.53</course>
  <speed>1.7871765441612084</speed>
  <fix>3d</fix>
</trkpt>
<trkpt lat="33.8103095" lon="-118.3938965">
  <ele>-0.109</ele>
  <time>2026-09-02T22:07:26Z</time>
  <course>3.54</course>
  <speed>1.7871765441612084</speed>
  <fix>3d</fix>
</trkpt>
<trkpt lat="33.8103095" lon="-118.3938967">
  <ele>-0.109</ele>
  <time>2026-09-02T22:07:26Z</time>
  <course>3.55</course>
  <speed>1.7871765441612084</speed>
  <fix>3d</fix>
</trkpt>
<trkpt lat="33.8103096" lon="-118.3938969">
  <ele>-0.109</ele>
  <time>2026-09-02T22:07:26Z</time>
  <course>3.56</course>
  <speed>1.7871765441612084</speed>
  <fix>3d</fix>
</trkpt>
<trkpt lat="33.8103096" lon="-118.393897">
  <ele>-0.109</ele>
  <time>2026-09-02T22:07:26Z</time>
  <course>3.57</course>
  <speed>1.7871765441612084</speed>
  <fix>3d</fix>
</trkpt>
<trkpt lat="33.8103096" lon="-118.3938972">
  <ele>-0.109</ele>
  <time>2026-09-02T22:07:26Z</time>
  <course>3.58</course>
  <speed>1.7871765441612084</speed>
  <fix>3d</fix>
</trkpt>
<trkpt lat="33.8103096" lon="-118.3938973">
  <ele>-0.109</ele>
  <time>2026-09-02T22:07:26Z</time>
  <course>3.58</course>
  <speed>1.7871765441612084</speed>
  <fix>3d</fix>
</trkpt>
<trkpt lat="33.8103096" lon="-118.3938975">
  <ele>-0.109</ele>
  <time>2026-09-02T22:07:26Z</time>
  <course>3.59</course>
  <speed>1.7871765441612084</speed>
  <fix>3d</fix>
</trkpt>
<trkpt lat="33.8103096" lon="-118.3938977">
  <ele>-0.109</ele>
  <time>2026-09-02T22:07:26Z</time>
  <course>3.6</course>
  <speed>1.7871765441612084</speed>
  <fix>3d</fix>
</trkpt>
<trkpt lat="33.8103096" lon="-118.3938979">
  <ele>-0.109</ele>
  <time>2026-09-02T22:07:26Z</time>
  <course>3.62</course>
  <speed>1.7871765441612084</speed>
  <fix>3d</fix>
</trkpt>
<trkpt lat="33.8103096" lon="-118.3938979">
  <ele>-0.109</ele>
  <time>2026-09-02T22:07:26Z</time>
  <course>3.62</course>
  <speed>1.7871765441612084</speed>
  <fix>3d</fix>
</trkpt>
<trkpt lat="33.8103092" lon="-118.3938933">
  <ele>-0.1</ele>
  <time>2026-09-02T22:07:26Z</time>
  <course>274.54</course>
  <speed>1.82</speed>
  <fix>3d</fix>
</trkpt>
<trkpt lat="33.8103096" lon="-118.3938982">
  <ele>-0.109</ele>
  <time>2026-09-02T22:07:26Z</time>
  <course>3.63</course>
  <speed>1.7871765441612084</speed>
  <fix>3d</fix>
</trkpt>
<trkpt lat="33.8103097" lon="-118.3938984">
  <ele>-0.109</ele>
  <time>2026-09-02T22:07:26Z</time>
  <course>3.64</course>
  <speed>1.7871765441612084</speed>
  <fix>3d</fix>
</trkpt>
<trkpt lat="33.8103097" lon="-118.3938986">
  <ele>-0.109</ele>
  <time>2026-09-02T22:07:26Z</time>
  <course>3.65</course>
  <speed>1.7871765441612084</speed>
  <fix>3d</fix>
</trkpt>
<trkpt lat="33.8103097" lon="-118.3938987">
  <ele>-0.109</ele>
  <time>2026-09-02T22:07:26Z</time>
  <course>3.66</course>
  <speed>1.7871765441612084</speed>
  <fix>3d</fix>
</trkpt>
<trkpt lat="33.8103097" lon="-118.3938989">
  <ele>-0.109</ele>
  <time>2026-09-02T22:07:26Z</time>
  <course>3.67</course>
  <speed>1.7871765441612084</speed>
  <fix>3d</fix>
</trkpt>
<trkpt lat="33.8103097" lon="-118.393899">
  <ele>-0.109</ele>
  <time>2026-09-02T22:07:26Z</time>
  <course>3.68</course>
  <speed>1.7871765441612084</speed>
  <fix>3d</fix>
</trkpt>
<trkpt lat="33.8103097" lon="-118.3938992">
  <ele>-0.109</ele>
  <time>2026-09-02T22:07:26Z</time>
  <course>3.68</course>
  <speed>1.7871765441612084</speed>
  <fix>3d</fix>
</trkpt>
<trkpt lat="33.8103097" lon="-118.3938994">
  <ele>-0.109</ele>
  <time>2026-09-02T22:07:26Z</time>
  <course>3.69</course>
  <speed>1.7871765441612084</speed>
  <fix>3d</fix>
</trkpt>
<trkpt lat="33.8103097" lon="-118.3938995">
  <ele>-0.109</ele>
  <time>2026-09-02T22:07:26Z</time>
  <course>3.7</course>
  <speed>1.7871765441612084</speed>
  <fix>3d</fix>
</trkpt>
<trkpt lat="33.8103097" lon="-118.3938997">
  <ele>-0.109</ele>
  <time>2026-09-02T22:07:26Z</time>
  <course>3.71</course>
  <speed>1.7871765441612084</speed>
  <fix>3d</fix>
</trkpt>
<trkpt lat="33.8103097" lon="-118.3938998">
  <ele>-0.109</ele>
  <time>2026-09-02T22:07:26Z</time>
  <course>3.72</course>
  <speed>1.7871765441612084</speed>
  <fix>3d</fix>
</trkpt>
<trkpt lat="33.8103097" lon="-118.3938999">
  <ele>-0.109</ele>
  <time>2026-09-02T22:07:26Z</time>
  <course>3.72</course>
  <speed>1.7871765441612084</speed>
  <fix>3d</fix>
</trkpt>
<trkpt lat="33.8103095" lon="-118.3938973">
  <ele>-0.1</ele>
  <time>2026-09-02T22:07:26Z</time>
  <course>274.37</course>
  <speed>1.82</speed>
  <fix>3d</fix>
</trkpt>
<trkpt lat="33.8103098" lon="-118.3938999">
  <ele>-0.109</ele>
  <time>2026-09-02T22:07:26Z</time>
  <course>3.72</course>
  <speed>1.7871765441612084</speed>
  <fix>3d</fix>
</trkpt>
<trkpt lat="33.8103098" lon="-118.3939002">
  <ele>-0.109</ele>
  <time>2026-09-02T22:07:26Z</time>
  <course>3.74</course>
  <speed>1.7863090438107287</speed>
  <fix>3d</fix>
</trkpt>
<trkpt lat="33.8103098" lon="-118.3939004">
  <ele>-0.109</ele>
  <time>2026-09-02T22:07:26Z</time>
  <course>3.75</course>
  <speed>1.7863090438107287</speed>
  <fix>3d</fix>
</trkpt>
<trkpt lat="33.8103098" lon="-118.3939006">
  <ele>-0.109</ele>
  <time>2026-09-02T22:07:26Z</time>
  <course>3.76</course>
  <speed>1.7863090438107287</speed>
  <fix>3d</fix>
</trkpt>
<trkpt lat="33.8103098" lon="-118.3939008">
  <ele>-0.109</ele>
  <time>2026-09-02T22:07:26Z</time>
  <course>3.77</course>
  <speed>1.7863090438107287</speed>
  <fix>3d</fix>
</trkpt>
<trkpt lat="33.8103098" lon="-118.393901">
  <ele>-0.109</ele>
  <time>2026-09-02T22:07:26Z</time>
  <course>3.77</course>
  <speed>1.7863090438107287</speed>
  <fix>3d</fix>
</trkpt>
<trkpt lat="33.8103098" lon="-118.3939011">
  <ele>-0.11</ele>
  <time>2026-09-02T22:07:26Z</time>
  <course>3.78</course>
  <speed>1.7863090438107287</speed>
  <fix>3d</fix>
</trkpt>
<trkpt lat="33.8103098" lon="-118.3939012">
  <ele>-0.11</ele>
  <time>2026-09-02T22:07:26Z</time>
  <course>3.79</course>
  <speed>1.7863090438107287</speed>
  <fix>3d</fix>
</trkpt>
<trkpt lat="33.8103098" lon="-118.3939014">
  <ele>-0.11</ele>
  <time>2026-09-02T22:07:26Z</time>
  <course>3.79</course>
  <speed>1.7863090438107287</speed>
  <fix>3d</fix>
</trkpt>
<trkpt lat="33.8103099" lon="-118.3939015">
  <ele>-0.11</ele>
  <time>2026-09-02T22:07:26Z</time>
  <course>3.8</course>
  <speed>1.7863090438107287</speed>
  <fix>3d</fix>
</trkpt>
<trkpt lat="33.8103099" lon="-118.3939017">
  <ele>-0.11</ele>
  <time>2026-09-02T22:07:26Z</time>
  <course>3.81</course>
  <speed>1.7863090438107287</speed>
  <fix>3d</fix>
</trkpt>
<trkpt lat="33.8103099" lon="-118.3939018">
  <ele>-0.11</ele>
  <time>2026-09-02T22:07:26Z</time>
  <course>3.82</course>
  <speed>1.7863090438107287</speed>
  <fix>3d</fix>
</trkpt>
<trkpt lat="33.8103095" lon="-118.3938973">
  <ele>-0.1</ele>
  <time>2026-09-02T22:07:26Z</time>
  <course>274.37</course>
  <speed>1.82</speed>
  <fix>3d</fix>
</trkpt>
<trkpt lat="33.8103099" lon="-118.3939019">
  <ele>-0.11</ele>
  <time>2026-09-02T22:07:26Z</time>
  <course>3.82</course>
  <speed>1.7863090438107287</speed>
  <fix>3d</fix>
</trkpt>
<trkpt lat="33.8103099" lon="-118.3939021">
  <ele>-0.11</ele>
  <time>2026-09-02T22:07:26Z</time>
  <course>3.83</course>
  <speed>1.7863090438107287</speed>
  <fix>3d</fix>
</trkpt>
<trkpt lat="33.8103099" lon="-118.3939023">
  <ele>-0.111</ele>
  <time>2026-09-02T22:07:26Z</time>
  <course>3.84</course>
  <speed>1.7863090438107287</speed>
  <fix>3d</fix>
</trkpt>
<trkpt lat="33.8103099" lon="-118.3939024">
  <ele>-0.111</ele>
  <time>2026-09-02T22:07:26Z</time>
  <course>3.85</course>
  <speed>1.7863090438107287</speed>
  <fix>3d</fix>
</trkpt>
<trkpt lat="33.8103099" lon="-118.3939026">
  <ele>-0.111</ele>
  <time>2026-09-02T22:07:26Z</time>
  <course>3.86</course>
  <speed>1.7863090438107287</speed>
  <fix>3d</fix>
</trkpt>
<trkpt lat="33.8103099" lon="-118.3939027">
  <ele>-0.111</ele>
  <time>2026-09-02T22:07:26Z</time>
  <course>3.86</course>
  <speed>1.7863090438107287</speed>
  <fix>3d</fix>
</trkpt>
<trkpt lat="33.8103099" lon="-118.3939029">
  <ele>-0.111</ele>
  <time>2026-09-02T22:07:26Z</time>
  <course>3.87</course>
  <speed>1.7863090438107287</speed>
  <fix>3d</fix>
</trkpt>
<trkpt lat="33.81031" lon="-118.3939031">
  <ele>-0.111</ele>
  <time>2026-09-02T22:07:26Z</time>
  <course>3.88</course>
  <speed>1.7863090438107287</speed>
  <fix>3d</fix>
</trkpt>
<trkpt lat="33.81031" lon="-118.3939033">
  <ele>-0.111</ele>
  <time>2026-09-02T22:07:26Z</time>
  <course>3.89</course>
  <speed>1.7863090438107287</speed>
  <fix>3d</fix>
</trkpt>
<trkpt lat="33.81031" lon="-118.3939035">
  <ele>-0.111</ele>
  <time>2026-09-02T22:07:26Z</time>
  <course>3.9</course>
  <speed>1.7863090438107287</speed>
  <fix>3d</fix>
</trkpt>
<trkpt lat="33.81031" lon="-118.3939036">
  <ele>-0.111</ele>
  <time>2026-09-02T22:07:26Z</time>
  <course>3.9</course>
  <speed>1.7863090438107287</speed>
  <fix>3d</fix>
</trkpt>
<trkpt lat="33.81031" lon="-118.3939038">
  <ele>-0.111</ele>
  <time>2026-09-02T22:07:26Z</time>
  <course>3.91</course>
  <speed>1.7863090438107287</speed>
  <fix>3d</fix>
</trkpt>
<trkpt lat="33.81031" lon="-118.3939038">
  <ele>-0.111</ele>
  <time>2026-09-02T22:07:26Z</time>
  <course>3.91</course>
  <speed>1.7863090438107287</speed>
  <fix>3d</fix>
</trkpt>
<trkpt lat="33.8103097" lon="-118.3939012">
  <ele>-0.1</ele>
  <time>2026-09-02T22:07:26Z</time>
  <course>274.25</course>
  <speed>1.82</speed>
  <fix>3d</fix>
</trkpt>
<trkpt lat="33.81031" lon="-118.3939041">
  <ele>-0.111</ele>
  <time>2026-09-02T22:07:26Z</time>
  <course>3.93</course>
  <speed>1.7863090438107287</speed>
  <fix>3d</fix>
</trkpt>
<trkpt lat="33.81031" lon="-118.3939043">
  <ele>-0.111</ele>
  <time>2026-09-02T22:07:26Z</time>
  <course>3.94</course>
  <speed>1.7863090438107287</speed>
  <fix>3d</fix>
</trkpt>
<trkpt lat="33.81031" lon="-118.3939045">
  <ele>-0.111</ele>
  <time>2026-09-02T22:07:26Z</time>
  <course>3.94</course>
  <speed>1.7863090438107287</speed>
  <fix>3d</fix>
</trkpt>
<trkpt lat="33.81031" lon="-118.3939046">
  <ele>-0.111</ele>
  <time>2026-09-02T22:07:26Z</time>
  <course>3.95</course>
  <speed>1.7863090438107287</speed>
  <fix>3d</fix>
</trkpt>
<trkpt lat="33.8103101" lon="-118.3939048">
  <ele>-0.111</ele>
  <time>2026-09-02T22:07:26Z</time>
  <course>3.96</course>
  <speed>1.7863090438107287</speed>
  <fix>3d</fix>
</trkpt>
<trkpt lat="33.8103101" lon="-118.393905">
  <ele>-0.111</ele>
  <time>2026-09-02T22:07:26Z</time>
  <course>3.97</course>
  <speed>1.7863090438107287</speed>
  <fix>3d</fix>
</trkpt>
<trkpt lat="33.8103101" lon="-118.3939052">
  <ele>-0.111</ele>
  <time>2026-09-02T22:07:26Z</time>
  <course>3.98</course>
  <speed>1.7863090438107287</speed>
  <fix>3d</fix>
</trkpt>
<trkpt lat="33.8103101" lon="-118.3939054">
  <ele>-0.111</ele>
  <time>2026-09-02T22:07:26Z</time>
  <course>3.98</course>
  <speed>1.7863090438107287</speed>
  <fix>3d</fix>
</trkpt>
<trkpt lat="33.8103101" lon="-118.3939055">
  <ele>-0.111</ele>
  <time>2026-09-02T22:07:26Z</time>
  <course>3.99</course>
  <speed>1.7863090438107287</speed>
  <fix>3d</fix>
</trkpt>
<trkpt lat="33.8103101" lon="-118.3939057">
  <ele>-0.111</ele>
  <time>2026-09-02T22:07:26Z</time>
  <course>4.0</course>
  <speed>1.7863090438107287</speed>
  <fix>3d</fix>
</trkpt>
<trkpt lat="33.8103101" lon="-118.3939057">
  <ele>-0.111</ele>
  <time>2026-09-02T22:07:26Z</time>
  <course>4.0</course>
  <speed>1.7863090438107287</speed>
  <fix>3d</fix>
</trkpt>
<trkpt lat="33.8103097" lon="-118.3939012">
  <ele>-0.1</ele>
  <time>2026-09-02T22:07:26Z</time>
  <course>274.25</course>
  <speed>1.82</speed>
  <fix>3d</fix>
</trkpt>
<trkpt lat="33.8103101" lon="-118.3939061">
  <ele>-0.112</ele>
  <time>2026-09-02T22:07:26Z</time>
  <course>4.02</course>
  <speed>1.7863090438107287</speed>
  <fix>3d</fix>
</trkpt>
<trkpt lat="33.8103101" lon="-118.3939063">
  <ele>-0.112</ele>
  <time>2026-09-02T22:07:26Z</time>
  <course>4.03</course>
  <speed>1.7863090438107287</speed>
  <fix>3d</fix>
</trkpt>
<trkpt lat="33.8103102" lon="-118.3939065">
  <ele>-0.112</ele>
  <time>2026-09-02T22:07:26Z</time>
  <course>4.04</course>
  <speed>1.7863090438107287</speed>
  <fix>3d</fix>
</trkpt>
<trkpt lat="33.8103102" lon="-118.3939067">
  <ele>-0.112</ele>
  <time>2026-09-02T22:07:26Z</time>
  <course>4.04</course>
  <speed>1.7854971296532514</speed>
  <fix>3d</fix>
</trkpt>
<trkpt lat="33.8103102" lon="-118.3939068">
  <ele>-0.112</ele>
  <time>2026-09-02T22:07:26Z</time>
  <course>4.05</course>
  <speed>1.7854971296532514</speed>
  <fix>3d</fix>
</trkpt>
<trkpt lat="33.8103102" lon="-118.393907">
  <ele>-0.112</ele>
  <time>2026-09-02T22:07:26Z</time>
  <course>4.06</course>
  <speed>1.7854971296532514</speed>
  <fix>3d</fix>
</trkpt>
<trkpt lat="33.8103102" lon="-118.3939071">
  <ele>-0.112</ele>
  <time>2026-09-02T22:07:26Z</time>
  <course>4.06</course>
  <speed>1.7854971296532514</speed>
  <fix>3d</fix>
</trkpt>
<trkpt lat="33.8103102" lon="-118.3939073">
  <ele>-0.112</ele>
  <time>2026-09-02T22:07:26Z</time>
  <course>4.07</course>
  <speed>1.7854971296532514</speed>
  <fix>3d</fix>
</trkpt>
<trkpt lat="33.8103102" lon="-118.3939075">
  <ele>-0.112</ele>
  <time>2026-09-02T22:07:26Z</time>
  <course>4.08</course>
  <speed>1.7854971296532514</speed>
  <fix>3d</fix>
</trkpt>
<trkpt lat="33.8103102" lon="-118.3939077">
  <ele>-0.112</ele>
  <time>2026-09-02T22:07:26Z</time>
  <course>4.09</course>
  <speed>1.7854971296532514</speed>
  <fix>3d</fix>
</trkpt>
<trkpt lat="33.8103102" lon="-118.3939077">
  <ele>-0.112</ele>
  <time>2026-09-02T22:07:26Z</time>
  <course>4.09</course>
  <speed>1.7854971296532514</speed>
  <fix>3d</fix>
</trkpt>
<trkpt lat="33.81031" lon="-118.3939051">
  <ele>-0.1</ele>
  <time>2026-09-02T22:07:26Z</time>
  <course>274.16</course>
  <speed>1.82</speed>
  <fix>3d</fix>
</trkpt>
<trkpt lat="33.8103103" lon="-118.393908">
  <ele>-0.112</ele>
  <time>2026-09-02T22:07:26Z</time>
  <course>4.1</course>
  <speed>1.7854971296532514</speed>
  <fix>3d</fix>
</trkpt>
<trkpt lat="33.8103103" lon="-118.3939084">
  <ele>-0.112</ele>
  <time>2026-09-02T22:07:26Z</time>
  <course>4.12</course>
  <speed>1.7854971296532514</speed>
  <fix>3d</fix>
</trkpt>
<trkpt lat="33.8103103" lon="-118.3939086">
  <ele>-0.112</ele>
  <time>2026-09-02T22:07:26Z</time>
  <course>4.13</course>
  <speed>1.7854971296532514</speed>
  <fix>3d</fix>
</trkpt>
<trkpt lat="33.8103103" lon="-118.3939088">
  <ele>-0.112</ele>
  <time>2026-09-02T22:07:26Z</time>
  <course>4.14</course>
  <speed>1.7854971296532514</speed>
  <fix>3d</fix>
</trkpt>
<trkpt lat="33.8103103" lon="-118.393909">
  <ele>-0.113</ele>
  <time>2026-09-02T22:07:26Z</time>
  <course>4.14</course>
  <speed>1.7854971296532514</speed>
  <fix>3d</fix>
</trkpt>
<trkpt lat="33.8103103" lon="-118.3939092">
  <ele>-0.113</ele>
  <time>2026-09-02T22:07:26Z</time>
  <course>4.15</course>
  <speed>1.7854971296532514</speed>
  <fix>3d</fix>
</trkpt>
<trkpt lat="33.8103103" lon="-118.3939093">
  <ele>-0.113</ele>
  <time>2026-09-02T22:07:26Z</time>
  <course>4.16</course>
  <speed>1.7854971296532514</speed>
  <fix>3d</fix>
</trkpt>
<trkpt lat="33.8103103" lon="-118.3939095">
  <ele>-0.113</ele>
  <time>2026-09-02T22:07:26Z</time>
  <course>4.17</course>
  <speed>1.7854971296532514</speed>
  <fix>3d</fix>
</trkpt>
<trkpt lat="33.8103103" lon="-118.3939097">
  <ele>-0.113</ele>
  <time>2026-09-02T22:07:26Z</time>
  <course>4.17</course>
  <speed>1.7854971296532514</speed>
  <fix>3d</fix>
</trkpt>
<trkpt lat="33.8103103" lon="-118.3939097">
  <ele>-0.113</ele>
  <time>2026-09-02T22:07:26Z</time>
  <course>4.17</course>
  <speed>1.7854971296532514</speed>
  <fix>3d</fix>
</trkpt>
<trkpt lat="33.81031" lon="-118.3939051">
  <ele>-0.1</ele>
  <time>2026-09-02T22:07:26Z</time>
  <course>274.16</course>
  <speed>1.82</speed>
  <fix>3d</fix>
</trkpt>
<trkpt lat="33.8103104" lon="-118.39391">
  <ele>-0.113</ele>
  <time>2026-09-02T22:07:26Z</time>
  <course>4.19</course>
  <speed>1.7854971296532514</speed>
  <fix>3d</fix>
</trkpt>
<trkpt lat="33.8103104" lon="-118.3939102">
  <ele>-0.113</ele>
  <time>2026-09-02T22:07:26Z</time>
  <course>4.2</course>
  <speed>1.7854971296532514</speed>
  <fix>3d</fix>
</trkpt>
<trkpt lat="33.8103104" lon="-118.3939104">
  <ele>-0.113</ele>
  <time>2026-09-02T22:07:26Z</time>
  <course>4.21</course>
  <speed>1.7854971296532514</speed>
  <fix>3d</fix>
</trkpt>
<trkpt lat="33.8103104" lon="-118.3939106">
  <ele>-0.113</ele>
  <time>2026-09-02T22:07:26Z</time>
  <course>4.21</course>
  <speed>1.7854971296532514</speed>
  <fix>3d</fix>
</trkpt>
<trkpt lat="33.8103104" lon="-118.3939107">
  <ele>-0.113</ele>
  <time>2026-09-02T22:07:26Z</time>
  <course>4.22</course>
  <speed>1.7854971296532514</speed>
  <fix>3d</fix>
</trkpt>
<trkpt lat="33.8103104" lon="-118.3939109">
  <ele>-0.113</ele>
  <time>2026-09-02T22:07:26Z</time>
  <course>4.23</course>
  <speed>1.7854971296532514</speed>
  <fix>3d</fix>
</trkpt>
<trkpt lat="33.8103104" lon="-118.3939111">
  <ele>-0.114</ele>
  <time>2026-09-02T22:07:26Z</time>
  <course>4.23</course>
  <speed>1.7854971296532514</speed>
  <fix>3d</fix>
</trkpt>
<trkpt lat="33.8103104" lon="-118.3939113">
  <ele>-0.114</ele>
  <time>2026-09-02T22:07:26Z</time>
  <course>4.24</course>
  <speed>1.7854971296532514</speed>
  <fix>3d</fix>
</trkpt>
<trkpt lat="33.8103104" lon="-118.3939115">
  <ele>-0.114</ele>
  <time>2026-09-02T22:07:26Z</time>
  <course>4.25</course>
  <speed>1.7854971296532514</speed>
  <fix>3d</fix>
</trkpt>
<trkpt lat="33.8103105" lon="-118.3939116">
  <ele>-0.114</ele>
  <time>2026-09-02T22:07:26Z</time>
  <course>4.25</course>
  <speed>1.7854971296532514</speed>
  <fix>3d</fix>
</trkpt>
<trkpt lat="33.8103101" lon="-118.3939091">
  <ele>-0.1</ele>
  <time>2026-09-02T22:07:26Z</time>
  <course>274.1</course>
  <speed>1.82</speed>
  <fix>3d</fix>
</trkpt>
<trkpt lat="33.8103105" lon="-118.3939117">
  <ele>-0.114</ele>
  <time>2026-09-02T22:07:26Z</time>
  <course>4.26</course>
  <speed>1.7854971296532514</speed>
  <fix>3d</fix>
</trkpt>
<trkpt lat="33.8103105" lon="-118.3939121">
  <ele>-0.114</ele>
  <time>2026-09-02T22:07:26Z</time>
  <course>4.27</course>
  <speed>1.7854971296532514</speed>
  <fix>3d</fix>
</trkpt>
<trkpt lat="33.8103105" lon="-118.3939123">
  <ele>-0.114</ele>
  <time>2026-09-02T22:07:26Z</time>
  <course>4.28</course>
  <speed>1.7854971296532514</speed>
  <fix>3d</fix>
</trkpt>
<trkpt lat="33.8103105" lon="-118.3939125">
  <ele>-0.114</ele>
  <time>2026-09-02T22:07:26Z</time>
  <course>4.29</course>
  <speed>1.7854971296532514</speed>
  <fix>3d</fix>
</trkpt>
<trkpt lat="33.8103105" lon="-118.3939126">
  <ele>-0.114</ele>
  <time>2026-09-02T22:07:26Z</time>
  <course>4.29</course>
  <speed>1.7854971296532514</speed>
  <fix>3d</fix>
</trkpt>
<trkpt lat="33.8103105" lon="-118.3939128">
  <ele>-0.114</ele>
  <time>2026-09-02T22:07:26Z</time>
  <course>4.3</course>
  <speed>1.7854971296532514</speed>
  <fix>3d</fix>
</trkpt>
<trkpt lat="33.8103105" lon="-118.3939129">
  <ele>-0.114</ele>
  <time>2026-09-02T22:07:26Z</time>
  <course>4.31</course>
  <speed>1.7854971296532514</speed>
  <fix>3d</fix>
</trkpt>
<trkpt lat="33.8103105" lon="-118.3939131">
  <ele>-0.114</ele>
  <time>2026-09-02T22:07:26Z</time>
  <course>4.31</course>
  <speed>1.7854971296532514</speed>
  <fix>3d</fix>
</trkpt>
<trkpt lat="33.8103106" lon="-118.3939133">
  <ele>-0.114</ele>
  <time>2026-09-02T22:07:26Z</time>
  <course>4.32</course>
  <speed>1.7854971296532514</speed>
  <fix>3d</fix>
</trkpt>
<trkpt lat="33.8103106" lon="-118.3939135">
  <ele>-0.114</ele>
  <time>2026-09-02T22:07:26Z</time>
  <course>4.33</course>
  <speed>1.7854971296532514</speed>
  <fix>3d</fix>
</trkpt>
<trkpt lat="33.8103106" lon="-118.3939136">
  <ele>-0.114</ele>
  <time>2026-09-02T22:07:26Z</time>
  <course>4.33</course>
  <speed>1.7854971296532514</speed>
  <fix>3d</fix>
</trkpt>
<trkpt lat="33.8103101" lon="-118.3939091">
  <ele>-0.1</ele>
  <time>2026-09-02T22:07:26Z</time>
  <course>274.1</course>
  <speed>1.82</speed>
  <fix>3d</fix>
</trkpt>
<trkpt lat="33.8103106" lon="-118.3939136">
  <ele>-0.114</ele>
  <time>2026-09-02T22:07:26Z</time>
  <course>4.33</course>
  <speed>1.7854971296532514</speed>
  <fix>3d</fix>
</trkpt>
<trkpt lat="33.8103106" lon="-118.393914">
  <ele>-0.114</ele>
  <time>2026-09-02T22:07:26Z</time>
  <course>4.35</course>
  <speed>1.7854971296532514</speed>
  <fix>3d</fix>
</trkpt>
<trkpt lat="33.8103106" lon="-118.3939141">
  <ele>-0.114</ele>
  <time>2026-09-02T22:07:26Z</time>
  <course>4.35</course>
  <speed>1.7847408775505762</speed>
  <fix>3d</fix>
</trkpt>
<trkpt lat="33.8103106" lon="-118.3939143">
  <ele>-0.114</ele>
  <time>2026-09-02T22:07:26Z</time>
  <course>4.36</course>
  <speed>1.7847408775505762</speed>
  <fix>3d</fix>
</trkpt>
<trkpt lat="33.8103106" lon="-118.3939144">
  <ele>-0.114</ele>
  <time>2026-09-02T22:07:26Z</time>
  <course>4.36</course>
  <speed>1.7847408775505762</speed>
  <fix>3d</fix>
</trkpt>
<trkpt lat="33.8103106" lon="-118.3939146">
  <ele>-0.114</ele>
  <time>2026-09-02T22:07:26Z</time>
  <course>4.37</course>
  <speed>1.7847408775505762</speed>
  <fix>3d</fix>
</trkpt>
<trkpt lat="33.8103106" lon="-118.3939147">
  <ele>-0.114</ele>
  <time>2026-09-02T22:07:26Z</time>
  <course>4.38</course>
  <speed>1.7847408775505762</speed>
  <fix>3d</fix>
</trkpt>
<trkpt lat="33.8103106" lon="-118.3939149">
  <ele>-0.114</ele>
  <time>2026-09-02T22:07:26Z</time>
  <course>4.38</course>
  <speed>1.7847408775505762</speed>
  <fix>3d</fix>
</trkpt>
<trkpt lat="33.8103107" lon="-118.3939151">
  <ele>-0.114</ele>
  <time>2026-09-02T22:07:26Z</time>
  <course>4.39</course>
  <speed>1.7847408775505762</speed>
  <fix>3d</fix>
</trkpt>
<trkpt lat="33.8103107" lon="-118.3939153">
  <ele>-0.114</ele>
  <time>2026-09-02T22:07:26Z</time>
  <course>4.4</course>
  <speed>1.7847408775505762</speed>
  <fix>3d</fix>
</trkpt>
<trkpt lat="33.8103107" lon="-118.3939154">
  <ele>-0.114</ele>
  <time>2026-09-02T22:07:26Z</time>
  <course>4.4</course>
  <speed>1.7847408775505762</speed>
  <fix>3d</fix>
</trkpt>
<trkpt lat="33.8103107" lon="-118.3939155">
  <ele>-0.114</ele>
  <time>2026-09-02T22:07:26Z</time>
  <course>4.41</course>
  <speed>1.7847408775505762</speed>
  <fix>3d</fix>
</trkpt>
<trkpt lat="33.8103104" lon="-118.393913">
  <ele>-0.1</ele>
  <time>2026-09-02T22:07:26Z</time>
  <course>274.05</course>
  <speed>1.82</speed>
  <fix>3d</fix>
</trkpt>
<trkpt lat="33.8103107" lon="-118.3939156">
  <ele>-0.114</ele>
  <time>2026-09-02T22:07:26Z</time>
  <course>4.41</course>
  <speed>1.7847408775505762</speed>
  <fix>3d</fix>
</trkpt>
<trkpt lat="33.8103107" lon="-118.3939159">
  <ele>-0.114</ele>
  <time>2026-09-02T22:07:26Z</time>
  <course>4.42</course>
  <speed>1.7847408775505762</speed>
  <fix>3d</fix>
</trkpt>
<trkpt lat="33.8103107" lon="-118.3939161">
  <ele>-0.114</ele>
  <time>2026-09-02T22:07:26Z</time>
  <course>4.43</course>
  <speed>1.7847408775505762</speed>
  <fix>3d</fix>
</trkpt>
<trkpt lat="33.8103107" lon="-118.3939163">
  <ele>-0.114</ele>
  <time>2026-09-02T22:07:26Z</time>
  <course>4.44</course>
  <speed>1.7847408775505762</speed>
  <fix>3d</fix>
</trkpt>
<trkpt lat="33.8103107" lon="-118.3939165">
  <ele>-0.114</ele>
  <time>2026-09-02T22:07:26Z</time>
  <course>4.44</course>
  <speed>1.7847408775505762</speed>
  <fix>3d</fix>
</trkpt>
<trkpt lat="33.8103107" lon="-118.3939166">
  <ele>-0.114</ele>
  <time>2026-09-02T22:07:26Z</time>
  <course>4.45</course>
  <speed>1.7847408775505762</speed>
  <fix>3d</fix>
</trkpt>
<trkpt lat="33.8103107" lon="-118.3939168">
  <ele>-0.114</ele>
  <time>2026-09-02T22:07:26Z</time>
  <course>4.45</course>
  <speed>1.7847408775505762</speed>
  <fix>3d</fix>
</trkpt>
<trkpt lat="33.8103108" lon="-118.393917">
  <ele>-0.114</ele>
  <time>2026-09-02T22:07:26Z</time>
  <course>4.46</course>
  <speed>1.7847408775505762</speed>
  <fix>3d</fix>
</trkpt>
<trkpt lat="33.8103108" lon="-118.3939171">
  <ele>-0.114</ele>
  <time>2026-09-02T22:07:26Z</time>
  <course>4.46</course>
  <speed>1.7847408775505762</speed>
  <fix>3d</fix>
</trkpt>
<trkpt lat="33.8103108" lon="-118.3939173">
  <ele>-0.114</ele>
  <time>2026-09-02T22:07:26Z</time>
  <course>4.47</course>
  <speed>1.7847408775505762</speed>
  <fix>3d</fix>
</trkpt>
<trkpt lat="33.8103108" lon="-118.3939175">
  <ele>-0.114</ele>
  <time>2026-09-02T22:07:26Z</time>
  <course>4.48</course>
  <speed>1.7847408775505762</speed>
  <fix>3d</fix>
</trkpt>
<trkpt lat="33.8103108" lon="-118.3939175">
  <ele>-0.114</ele>
  <time>2026-09-02T22:07:26Z</time>
  <course>4.48</course>
  <speed>1.7847408775505762</speed>
  <fix>3d</fix>
</trkpt>
<trkpt lat="33.8103104" lon="-118.393913">
  <ele>-0.1</ele>
  <time>2026-09-02T22:07:26Z</time>
  <course>274.05</course>
  <speed>1.82</speed>
  <fix>3d</fix>
</trkpt>
<trkpt lat="33.8103108" lon="-118.3939179">
  <ele>-0.114</ele>
  <time>2026-09-02T22:07:26Z</time>
  <course>4.49</course>
  <speed>1.7847408775505762</speed>
  <fix>3d</fix>
</trkpt>
<trkpt lat="33.8103108" lon="-118.3939181">
  <ele>-0.114</ele>
  <time>2026-09-02T22:07:26Z</time>
  <course>4.5</course>
  <speed>1.7847408775505762</speed>
  <fix>3d</fix>
</trkpt>
<trkpt lat="33.8103108" lon="-118.3939183">
  <ele>-0.114</ele>
  <time>2026-09-02T22:07:26Z</time>
  <course>4.51</course>
  <speed>1.7847408775505762</speed>
  <fix>3d</fix>
</trkpt>
<trkpt lat="33.8103108" lon="-118.3939184">
  <ele>-0.114</ele>
  <time>2026-09-02T22:07:26Z</time>
  <course>4.51</course>
  <speed>1.7847408775505762</speed>
  <fix>3d</fix>
</trkpt>
<trkpt lat="33.8103108" lon="-118.3939186">
  <ele>-0.114</ele>
  <time>2026-09-02T22:07:26Z</time>
  <course>4.52</course>
  <speed>1.7847408775505762</speed>
  <fix>3d</fix>
</trkpt>
<trkpt lat="33.8103108" lon="-118.3939188">
  <ele>-0.114</ele>
  <time>2026-09-02T22:07:26Z</time>
  <course>4.53</course>
  <speed>1.7847408775505762</speed>
  <fix>3d</fix>
</trkpt>
<trkpt lat="33.8103109" lon="-118.3939189">
  <ele>-0.114</ele>
  <time>2026-09-02T22:07:26Z</time>
  <course>4.53</course>
  <speed>1.7847408775505762</speed>
  <fix>3d</fix>
</trkpt>
<trkpt lat="33.8103109" lon="-118.3939191">
  <ele>-0.114</ele>
  <time>2026-09-02T22:07:26Z</time>
  <course>4.54</course>
  <speed>1.7847408775505762</speed>
  <fix>3d</fix>
</trkpt>
<trkpt lat="33.8103109" lon="-118.3939192">
  <ele>-0.114</ele>
  <time>2026-09-02T22:07:26Z</time>
  <course>4.54</course>
  <speed>1.7847408775505762</speed>
  <fix>3d</fix>
</trkpt>
<trkpt lat="33.8103109" lon="-118.3939194">
  <ele>-0.114</ele>
  <time>2026-09-02T22:07:26Z</time>
  <course>4.55</course>
  <speed>1.7847408775505762</speed>
  <fix>3d</fix>
</trkpt>
<trkpt lat="33.8103109" lon="-118.3939195">
  <ele>-0.114</ele>
  <time>2026-09-02T22:07:26Z</time>
  <course>4.55</course>
  <speed>1.7847408775505762</speed>
  <fix>3d</fix>
</trkpt>
<trkpt lat="33.8103107" lon="-118.3939169">
  <ele>-0.1</ele>
  <time>2026-09-02T22:07:26Z</time>
  <course>274.02</course>
  <speed>1.82</speed>
  <fix>3d</fix>
</trkpt>
<trkpt lat="33.8103109" lon="-118.3939195">
  <ele>-0.114</ele>
  <time>2026-09-02T22:07:26Z</time>
  <course>4.55</course>
  <speed>1.7847408775505762</speed>
  <fix>3d</fix>
</trkpt>
<trkpt lat="33.8103109" lon="-118.3939198">
  <ele>-0.114</ele>
  <time>2026-09-02T22:07:26Z</time>
  <course>4.56</course>
  <speed>1.7847408775505762</speed>
  <fix>3d</fix>
</trkpt>
<trkpt lat="33.8103109" lon="-118.39392">
  <ele>-0.114</ele>
  <time>2026-09-02T22:07:26Z</time>
  <course>4.57</course>
  <speed>1.7847408775505762</speed>
  <fix>3d</fix>
</trkpt>
<trkpt lat="33.8103109" lon="-118.3939201">
  <ele>-0.114</ele>
  <time>2026-09-02T22:07:26Z</time>
  <course>4.57</course>
  <speed>1.7847408775505762</speed>
  <fix>3d</fix>
</trkpt>
<trkpt lat="33.8103109" lon="-118.3939203">
  <ele>-0.114</ele>
  <time>2026-09-02T22:07:26Z</time>
  <course>4.58</course>
  <speed>1.7847408775505762</speed>
  <fix>3d</fix>
</trkpt>
<trkpt lat="33.8103109" lon="-118.3939204">
  <ele>-0.115</ele>
  <time>2026-09-02T22:07:26Z</time>
  <course>4.59</course>
  <speed>1.7847408775505762</speed>
  <fix>3d</fix>
</trkpt>
<trkpt lat="33.8103109" lon="-118.3939206">
  <ele>-0.115</ele>
  <time>2026-09-02T22:07:26Z</time>
  <course>4.59</course>
  <speed>1.7847408775505762</speed>
  <fix>3d</fix>
</trkpt>
<trkpt lat="33.810311" lon="-118.3939207">
  <ele>-0.115</ele>
  <time>2026-09-02T22:07:26Z</time>
  <course>4.6</course>
  <speed>1.7847408775505762</speed>
  <fix>3d</fix>
</trkpt>
<trkpt lat="33.810311" lon="-118.393921">
  <ele>-0.115</ele>
  <time>2026-09-02T22:07:26Z</time>
  <course>4.6</course>
  <speed>1.7847408775505762</speed>
  <fix>3d</fix>
</trkpt>
<trkpt lat="33.810311" lon="-118.3939212">
  <ele>-0.115</ele>
  <time>2026-09-02T22:07:26Z</time>
  <course>4.61</course>
  <speed>1.7847408775505762</speed>
  <fix>3d</fix>
</trkpt>
<trkpt lat="33.810311" lon="-118.3939213">
  <ele>-0.115</ele>
  <time>2026-09-02T22:07:26Z</time>
  <course>4.62</course>
  <speed>1.7847408775505762</speed>
  <fix>3d</fix>
</trkpt>
<trkpt lat="33.810311" lon="-118.3939214">
  <ele>-0.115</ele>
  <time>2026-09-02T22:07:26Z</time>
  <course>4.62</course>
  <speed>1.7847408775505762</speed>
  <fix>3d</fix>
</trkpt>
<trkpt lat="33.8103107" lon="-118.3939169">
  <ele>-0.1</ele>
  <time>2026-09-02T22:07:26Z</time>
  <course>274.02</course>
  <speed>1.82</speed>
  <fix>3d</fix>
</trkpt>
<trkpt lat="33.810311" lon="-118.3939215">
  <ele>-0.115</ele>
  <time>2026-09-02T22:07:26Z</time>
  <course>4.62</course>
  <speed>1.7847408775505762</speed>
  <fix>3d</fix>
</trkpt>
<trkpt lat="33.810311" lon="-118.3939218">
  <ele>-0.115</ele>
  <time>2026-09-02T22:07:26Z</time>
  <course>4.63</course>
  <speed>1.7847408775505762</speed>
  <fix>3d</fix>
</trkpt>
<trkpt lat="33.810311" lon="-118.393922">
  <ele>-0.115</ele>
  <time>2026-09-02T22:07:26Z</time>
  <course>4.64</course>
  <speed>1.7847408775505762</speed>
  <fix>3d</fix>
</trkpt>
<trkpt lat="33.810311" lon="-118.3939222">
  <ele>-0.116</ele>
  <time>2026-09-02T22:07:26Z</time>
  <course>4.65</course>
  <speed>1.7847408775505762</speed>
  <fix>3d</fix>
</trkpt>
<trkpt lat="33.810311" lon="-118.3939223">
  <ele>-0.116</ele>
  <time>2026-09-02T22:07:26Z</time>
  <course>4.65</course>
  <speed>1.7847408775505762</speed>
  <fix>3d</fix>
</trkpt>
<trkpt lat="33.8103111" lon="-118.3939225">
  <ele>-0.116</ele>
  <time>2026-09-02T22:07:26Z</time>
  <course>4.66</course>
  <speed>1.7847408775505762</speed>
  <fix>3d</fix>
</trkpt>
<trkpt lat="33.8103111" lon="-118.3939227">
  <ele>-0.116</ele>
  <time>2026-09-02T22:07:26Z</time>
  <course>4.66</course>
  <speed>1.7847408775505762</speed>
  <fix>3d</fix>
</trkpt>
<trkpt lat="33.8103111" lon="-118.3939229">
  <ele>-0.116</ele>
  <time>2026-09-02T22:07:26Z</time>
  <course>4.67</course>
  <speed>1.7847408775505762</speed>
  <fix>3d</fix>
</trkpt>
<trkpt lat="33.8103111" lon="-118.3939231">
  <ele>-0.116</ele>
  <time>2026-09-02T22:07:26Z</time>
  <course>4.68</course>
  <speed>1.784040358287895</speed>
  <fix>3d</fix>
</trkpt>
<trkpt lat="33.8103111" lon="-118.3939233">
  <ele>-0.116</ele>
  <time>2026-09-02T22:07:26Z</time>
  <course>4.69</course>
  <speed>1.784040358287895</speed>
  <fix>3d</fix>
</trkpt>
<trkpt lat="33.8103111" lon="-118.3939234">
  <ele>-0.117</ele>
  <time>2026-09-02T22:07:26Z</time>
  <course>4.69</course>
  <speed>1.784040358287895</speed>
  <fix>3d</fix>
</trkpt>
<trkpt lat="33.8103109" lon="-118.3939208">
  <ele>-0.1</ele>
  <time>2026-09-02T22:07:26Z</time>
  <course>274.0</course>
  <speed>1.82</speed>
  <fix>3d</fix>
</trkpt>
<trkpt lat="33.8103111" lon="-118.3939237">
  <ele>-0.117</ele>
  <time>2026-09-02T22:07:26Z</time>
  <course>4.7</course>
  <speed>1.784040358287895</speed>
  <fix>3d</fix>
</trkpt>
<trkpt lat="33.8103111" lon="-118.3939239">
  <ele>-0.117</ele>
  <time>2026-09-02T22:07:26Z</time>
  <course>4.71</course>
  <speed>1.784040358287895</speed>
  <fix>3d</fix>
</trkpt>
<trkpt lat="33.8103111" lon="-118.3939241">
  <ele>-0.117</ele>
  <time>2026-09-02T22:07:26Z</time>
  <course>4.71</course>
  <speed>1.784040358287895</speed>
  <fix>3d</fix>
</trkpt>
<trkpt lat="33.8103111" lon="-118.3939243">
  <ele>-0.117</ele>
  <time>2026-09-02T22:07:26Z</time>
  <course>4.72</course>
  <speed>1.784040358287895</speed>
  <fix>3d</fix>
</trkpt>
<trkpt lat="33.8103112" lon="-118.3939245">
  <ele>-0.117</ele>
  <time>2026-09-02T22:07:26Z</time>
  <course>4.73</course>
  <speed>1.784040358287895</speed>
  <fix>3d</fix>
</trkpt>
<trkpt lat="33.8103112" lon="-118.3939247">
  <ele>-0.117</ele>
  <time>2026-09-02T22:07:26Z</time>
  <course>4.73</course>
  <speed>1.784040358287895</speed>
  <fix>3d</fix>
</trkpt>
<trkpt lat="33.8103112" lon="-118.3939248">
  <ele>-0.117</ele>
  <time>2026-09-02T22:07:26Z</time>
  <course>4.74</course>
  <speed>1.784040358287895</speed>
  <fix>3d</fix>
</trkpt>
<trkpt lat="33.8103112" lon="-118.393925">
  <ele>-0.118</ele>
  <time>2026-09-02T22:07:26Z</time>
  <course>4.74</course>
  <speed>1.784040358287895</speed>
  <fix>3d</fix>
</trkpt>
<trkpt lat="33.8103112" lon="-118.3939251">
  <ele>-0.118</ele>
  <time>2026-09-02T22:07:26Z</time>
  <course>4.74</course>
  <speed>1.784040358287895</speed>
  <fix>3d</fix>
</trkpt>
<trkpt lat="33.8103112" lon="-118.3939253">
  <ele>-0.118</ele>
  <time>2026-09-02T22:07:26Z</time>
  <course>4.75</course>
  <speed>1.784040358287895</speed>
  <fix>3d</fix>
</trkpt>
<trkpt lat="33.8103112" lon="-118.3939254">
  <ele>-0.118</ele>
  <time>2026-09-02T22:07:26Z</time>
  <course>4.75</course>
  <speed>1.784040358287895</speed>
  <fix>3d</fix>
</trkpt>
<trkpt lat="33.8103109" lon="-118.3939208">
  <ele>-0.1</ele>
  <time>2026-09-02T22:07:26Z</time>
  <course>274.0</course>
  <speed>1.82</speed>
  <fix>3d</fix>
</trkpt>
<trkpt lat="33.8103112" lon="-118.3939254">
  <ele>-0.118</ele>
  <time>2026-09-02T22:07:26Z</time>
  <course>4.75</course>
  <speed>1.784040358287895</speed>
  <fix>3d</fix>
</trkpt>
<trkpt lat="33.8103112" lon="-118.3939259">
  <ele>-0.118</ele>
  <time>2026-09-02T22:07:26Z</time>
  <course>4.77</course>
  <speed>1.784040358287895</speed>
  <fix>3d</fix>
</trkpt>
<trkpt lat="33.8103112" lon="-118.393926">
  <ele>-0.118</ele>
  <time>2026-09-02T22:07:26Z</time>
  <course>4.78</course>
  <speed>1.784040358287895</speed>
  <fix>3d</fix>
</trkpt>
<trkpt lat="33.8103112" lon="-118.3939262">
  <ele>-0.118</ele>
  <time>2026-09-02T22:07:26Z</time>
  <course>4.78</course>
  <speed>1.784040358287895</speed>
  <fix>3d</fix>
</trkpt>
<trkpt lat="33.8103113" lon="-118.3939263">
  <ele>-0.118</ele>
  <time>2026-09-02T22:07:26Z</time>
  <course>4.78</course>
  <speed>1.784040358287895</speed>
  <fix>3d</fix>
</trkpt>
<trkpt lat="33.8103113" lon="-118.3939265">
  <ele>-0.118</ele>
  <time>2026-09-02T22:07:26Z</time>
  <course>4.79</course>
  <speed>1.784040358287895</speed>
  <fix>3d</fix>
</trkpt>
<trkpt lat="33.8103113" lon="-118.3939266">
  <ele>-0.118</ele>
  <time>2026-09-02T22:07:26Z</time>
  <course>4.79</course>
  <speed>1.784040358287895</speed>
  <fix>3d</fix>
</trkpt>
<trkpt lat="33.8103113" lon="-118.3939268">
  <ele>-0.118</ele>
  <time>2026-09-02T22:07:26Z</time>
  <course>4.8</course>
  <speed>1.784040358287895</speed>
  <fix>3d</fix>
</trkpt>
<trkpt lat="33.8103113" lon="-118.393927">
  <ele>-0.118</ele>
  <time>2026-09-02T22:07:26Z</time>
  <course>4.81</course>
  <speed>1.784040358287895</speed>
  <fix>3d</fix>
</trkpt>
<trkpt lat="33.8103113" lon="-118.3939272">
  <ele>-0.118</ele>
  <time>2026-09-02T22:07:26Z</time>
  <course>4.81</course>
  <speed>1.784040358287895</speed>
  <fix>3d</fix>
</trkpt>
<trkpt lat="33.8103113" lon="-118.3939273">
  <ele>-0.118</ele>
  <time>2026-09-02T22:07:26Z</time>
  <course>4.82</course>
  <speed>1.784040358287895</speed>
  <fix>3d</fix>
</trkpt>
<trkpt lat="33.8103111" lon="-118.3939248">
  <ele>-0.1</ele>
  <time>2026-09-02T22:07:26Z</time>
  <course>273.98</course>
  <speed>1.82</speed>
  <fix>3d</fix>
</trkpt>
<trkpt lat="33.8103113" lon="-118.3939274">
  <ele>-0.118</ele>
  <time>2026-09-02T22:07:26Z</time>
  <course>4.82</course>
  <speed>1.784040358287895</speed>
  <fix>3d</fix>
</trkpt>
<trkpt lat="33.8103113" lon="-118.3939277">
  <ele>-0.119</ele>
  <time>2026-09-02T22:07:26Z</time>
  <course>4.83</course>
  <speed>1.784040358287895</speed>
  <fix>3d</fix>
</trkpt>
<trkpt lat="33.8103113" lon="-118.3939279">
  <ele>-0.119</ele>
  <time>2026-09-02T22:07:26Z</time>
  <course>4.83</course>
  <speed>1.784040358287895</speed>
  <fix>3d</fix>
</trkpt>
<trkpt lat="33.8103113" lon="-118.3939281">
  <ele>-0.119</ele>
  <time>2026-09-02T22:07:26Z</time>
  <course>4.84</course>
  <speed>1.784040358287895</speed>
  <fix>3d</fix>
</trkpt>
<trkpt lat="33.8103114" lon="-118.3939283">
  <ele>-0.119</ele>
  <time>2026-09-02T22:07:26Z</time>
  <course>4.85</course>
  <speed>1.784040358287895</speed>
  <fix>3d</fix>
</trkpt>
<trkpt lat="33.8103114" lon="-118.3939284">
  <ele>-0.119</ele>
  <time>2026-09-02T22:07:26Z</time>
  <course>4.85</course>
  <speed>1.784040358287895</speed>
  <fix>3d</fix>
</trkpt>
<trkpt lat="33.8103114" lon="-118.3939286">
  <ele>-0.119</ele>
  <time>2026-09-02T22:07:26Z</time>
  <course>4.85</course>
  <speed>1.784040358287895</speed>
  <fix>3d</fix>
</trkpt>
<trkpt lat="33.8103114" lon="-118.3939287">
  <ele>-0.119</ele>
  <time>2026-09-02T22:07:26Z</time>
  <course>4.86</course>
  <speed>1.784040358287895</speed>
  <fix>3d</fix>
</trkpt>
<trkpt lat="33.8103114" lon="-118.3939289">
  <ele>-0.119</ele>
  <time>2026-09-02T22:07:26Z</time>
  <course>4.87</course>
  <speed>1.784040358287895</speed>
  <fix>3d</fix>
</trkpt>
<trkpt lat="33.8103114" lon="-118.393929">
  <ele>-0.119</ele>
  <time>2026-09-02T22:07:26Z</time>
  <course>4.87</course>
  <speed>1.784040358287895</speed>
  <fix>3d</fix>
</trkpt>
<trkpt lat="33.8103114" lon="-118.3939292">
  <ele>-0.119</ele>
  <time>2026-09-02T22:07:26Z</time>
  <course>4.88</course>
  <speed>1.784040358287895</speed>
  <fix>3d</fix>
</trkpt>
<trkpt lat="33.8103114" lon="-118.3939293">
  <ele>-0.119</ele>
  <time>2026-09-02T22:07:26Z</time>
  <course>4.88</course>
  <speed>1.784040358287895</speed>
  <fix>3d</fix>
</trkpt>
<trkpt lat="33.8103111" lon="-118.3939248">
  <ele>-0.1</ele>
  <time>2026-09-02T22:07:26Z</time>
  <course>273.98</course>
  <speed>1.82</speed>
  <fix>3d</fix>
</trkpt>
<trkpt lat="33.8103114" lon="-118.3939293">
  <ele>-0.119</ele>
  <time>2026-09-02T22:07:26Z</time>
  <course>4.88</course>
  <speed>1.784040358287895</speed>
  <fix>3d</fix>
</trkpt>
<trkpt lat="33.8103114" lon="-118.3939297">
  <ele>-0.119</ele>
  <time>2026-09-02T22:07:26Z</time>
  <course>4.89</course>
  <speed>1.784040358287895</speed>
  <fix>3d</fix>
</trkpt>
<trkpt lat="33.8103114" lon="-118.3939299">
  <ele>-0.119</ele>
  <time>2026-09-02T22:07:26Z</time>
  <course>4.9</course>
  <speed>1.784040358287895</speed>
  <fix>3d</fix>
</trkpt>
<trkpt lat="33.8103115" lon="-118.3939301">
  <ele>-0.119</ele>
  <time>2026-09-02T22:07:26Z</time>
  <course>4.9</course>
  <speed>1.784040358287895</speed>
  <fix>3d</fix>
</trkpt>
<trkpt lat="33.8103115" lon="-118.3939302">
  <ele>-0.119</ele>
  <time>2026-09-02T22:07:26Z</time>
  <course>4.91</course>
  <speed>1.784040358287895</speed>
  <fix>3d</fix>
</trkpt>
<trkpt lat="33.8103115" lon="-118.3939304">
  <ele>-0.119</ele>
  <time>2026-09-02T22:07:26Z</time>
  <course>4.91</course>
  <speed>1.784040358287895</speed>
  <fix>3d</fix>
</trkpt>
<trkpt lat="33.8103115" lon="-118.3939305">
  <ele>-0.119</ele>
  <time>2026-09-02T22:07:26Z</time>
  <course>4.92</course>
  <speed>1.784040358287895</speed>
  <fix>3d</fix>
</trkpt>
<trkpt lat="33.8103115" lon="-118.3939307">
  <ele>-0.119</ele>
  <time>2026-09-02T22:07:26Z</time>
  <course>4.92</course>
  <speed>1.784040358287895</speed>
  <fix>3d</fix>
</trkpt>
<trkpt lat="33.8103115" lon="-118.3939309">
  <ele>-0.119</ele>
  <time>2026-09-02T22:07:26Z</time>
  <course>4.93</course>
  <speed>1.784040358287895</speed>
  <fix>3d</fix>
</trkpt>
<trkpt lat="33.8103115" lon="-118.393931">
  <ele>-0.119</ele>
  <time>2026-09-02T22:07:26Z</time>
  <course>4.93</course>
  <speed>1.784040358287895</speed>
  <fix>3d</fix>
</trkpt>
<trkpt lat="33.8103115" lon="-118.3939312">
  <ele>-0.119</ele>
  <time>2026-09-02T22:07:26Z</time>
  <course>4.94</course>
  <speed>1.784040358287895</speed>
  <fix>3d</fix>
</trkpt>
<trkpt lat="33.8103115" lon="-118.3939313">
  <ele>-0.119</ele>
  <time>2026-09-02T22:07:26Z</time>
  <course>4.94</course>
  <speed>1.784040358287895</speed>
  <fix>3d</fix>
</trkpt>
<trkpt lat="33.8103113" lon="-118.3939287">
  <ele>-0.1</ele>
  <time>2026-09-02T22:07:26Z</time>
  <course>273.97</course>
  <speed>1.82</speed>
  <fix>3d</fix>
</trkpt>
<trkpt lat="33.8103115" lon="-118.3939313">
  <ele>-0.119</ele>
  <time>2026-09-02T22:07:26Z</time>
  <course>4.94</course>
  <speed>1.784040358287895</speed>
  <fix>3d</fix>
</trkpt>
<trkpt lat="33.8103115" lon="-118.3939316">
  <ele>-0.119</ele>
  <time>2026-09-02T22:07:26Z</time>
  <course>4.95</course>
  <speed>1.784040358287895</speed>
  <fix>3d</fix>
</trkpt>
<trkpt lat="33.8103115" lon="-118.3939318">
  <ele>-0.119</ele>
  <time>2026-09-02T22:07:26Z</time>
  <course>4.95</course>
  <speed>1.784040358287895</speed>
  <fix>3d</fix>
</trkpt>
<trkpt lat="33.8103116" lon="-118.393932">
  <ele>-0.119</ele>
  <time>2026-09-02T22:07:26Z</time>
  <course>4.96</course>
  <speed>1.784040358287895</speed>
  <fix>3d</fix>
</trkpt>
<trkpt lat="33.8103116" lon="-118.3939321">
  <ele>-0.119</ele>
  <time>2026-09-02T22:07:26Z</time>
  <course>4.96</course>
  <speed>1.784040358287895</speed>
  <fix>3d</fix>
</trkpt>
<trkpt lat="33.8103116" lon="-118.3939323">
  <ele>-0.119</ele>
  <time>2026-09-02T22:07:26Z</time>
  <course>4.97</course>
  <speed>1.784040358287895</speed>
  <fix>3d</fix>
</trkpt>
<trkpt lat="33.8103116" lon="-118.3939325">
  <ele>-0.119</ele>
  <time>2026-09-02T22:07:26Z</time>
  <course>4.97</course>
  <speed>1.784040358287895</speed>
  <fix>3d</fix>
</trkpt>
<trkpt lat="33.8103116" lon="-118.3939326">
  <ele>-0.119</ele>
  <time>2026-09-02T22:07:26Z</time>
  <course>4.98</course>
  <speed>1.784040358287895</speed>
  <fix>3d</fix>
</trkpt>
<trkpt lat="33.8103116" lon="-118.3939328">
  <ele>-0.119</ele>
  <time>2026-09-02T22:07:26Z</time>
  <course>4.98</course>
  <speed>1.784040358287895</speed>
  <fix>3d</fix>
</trkpt>
<trkpt lat="33.8103116" lon="-118.393933">
  <ele>-0.119</ele>
  <time>2026-09-02T22:07:26Z</time>
  <course>4.99</course>
  <speed>1.784040358287895</speed>
  <fix>3d</fix>
</trkpt>
<trkpt lat="33.8103116" lon="-118.3939332">
  <ele>-0.119</ele>
  <time>2026-09-02T22:07:26Z</time>
  <course>4.99</course>
  <speed>1.784040358287895</speed>
  <fix>3d</fix>
</trkpt>
<trkpt lat="33.8103116" lon="-118.3939332">
  <ele>-0.119</ele>
  <time>2026-09-02T22:07:26Z</time>
  <course>5.0</course>
  <speed>1.784040358287895</speed>
  <fix>3d</fix>
</trkpt>
<trkpt lat="33.8103113" lon="-118.3939287">
  <ele>-0.1</ele>
  <time>2026-09-02T22:07:26Z</time>
  <course>273.97</course>
  <speed>1.82</speed>
  <fix>3d</fix>
</trkpt>
<trkpt lat="33.8103116" lon="-118.3939333">
  <ele>-0.119</ele>
  <time>2026-09-02T22:07:26Z</time>
  <course>5.0</course>
  <speed>1.7833956375409243</speed>
  <fix>3d</fix>
</trkpt>
<trkpt lat="33.8103116" lon="-118.3939335">
  <ele>-0.119</ele>
  <time>2026-09-02T22:07:26Z</time>
  <course>5.0</course>
  <speed>1.7833956375409243</speed>
  <fix>3d</fix>
</trkpt>
<trkpt lat="33.8103116" lon="-118.3939337">
  <ele>-0.119</ele>
  <time>2026-09-02T22:07:26Z</time>
  <course>5.01</course>
  <speed>1.7833956375409243</speed>
  <fix>3d</fix>
</trkpt>
<trkpt lat="33.8103116" lon="-118.3939338">
  <ele>-0.119</ele>
  <time>2026-09-02T22:07:26Z</time>
  <course>5.01</course>
  <speed>1.7833956375409243</speed>
  <fix>3d</fix>
</trkpt>
<trkpt lat="33.8103117" lon="-118.393934">
  <ele>-0.118</ele>
  <time>2026-09-02T22:07:26Z</time>
  <course>5.02</course>
  <speed>1.7833956375409243</speed>
  <fix>3d</fix>
</trkpt>
<trkpt lat="33.8103117" lon="-118.3939341">
  <ele>-0.118</ele>
  <time>2026-09-02T22:07:26Z</time>
  <course>5.02</course>
  <speed>1.7833956375409243</speed>
  <fix>3d</fix>
</trkpt>
<trkpt lat="33.8103117" lon="-118.3939343">
  <ele>-0.118</ele>
  <time>2026-09-02T22:07:26Z</time>
  <course>5.03</course>
  <speed>1.7833956375409243</speed>
  <fix>3d</fix>
</trkpt>
<trkpt lat="33.8103117" lon="-118.3939345">
  <ele>-0.118</ele>
  <time>2026-09-02T22:07:26Z</time>
  <course>5.03</course>
  <speed>1.7833956375409243</speed>
  <fix>3d</fix>
</trkpt>
<trkpt lat="33.8103117" lon="-118.3939346">
  <ele>-0.118</ele>
  <time>2026-09-02T22:07:26Z</time>
  <course>5.04</course>
  <speed>1.7833956375409243</speed>
  <fix>3d</fix>
</trkpt>
<trkpt lat="33.8103117" lon="-118.3939348">
  <ele>-0.118</ele>
  <time>2026-09-02T22:07:26Z</time>
  <course>5.04</course>
  <speed>1.7833956375409243</speed>
  <fix>3d</fix>
</trkpt>
<trkpt lat="33.8103117" lon="-118.3939349">
  <ele>-0.118</ele>
  <time>2026-09-02T22:07:26Z</time>
  <course>5.05</course>
  <speed>1.7833956375409243</speed>
  <fix>3d</fix>
</trkpt>
<trkpt lat="33.8103117" lon="-118.3939351">
  <ele>-0.118</ele>
  <time>2026-09-02T22:07:26Z</time>
  <course>5.05</course>
  <speed>1.7833956375409243</speed>
  <fix>3d</fix>
</trkpt>
<trkpt lat="33.8103117" lon="-118.3939352">
  <ele>-0.117</ele>
  <time>2026-09-02T22:07:26Z</time>
  <course>5.05</course>
  <speed>1.7833956375409243</speed>
  <fix>3d</fix>
</trkpt>
<trkpt lat="33.8103116" lon="-118.3939326">
  <ele>-0.1</ele>
  <time>2026-09-02T22:07:26Z</time>
  <course>273.96</course>
  <speed>1.82</speed>
  <fix>3d</fix>
</trkpt>
<trkpt lat="33.8103117" lon="-118.3939352">
  <ele>-0.117</ele>
  <time>2026-09-02T22:07:26Z</time>
  <course>5.05</course>
  <speed>1.7833956375409243</speed>
  <fix>3d</fix>
</trkpt>
<trkpt lat="33.8103117" lon="-118.3939356">
  <ele>-0.117</ele>
  <time>2026-09-02T22:07:26Z</time>
  <course>5.06</course>
  <speed>1.7833956375409243</speed>
  <fix>3d</fix>
</trkpt>
<trkpt lat="33.8103117" lon="-118.3939357">
  <ele>-0.117</ele>
  <time>2026-09-02T22:07:26Z</time>
  <course>5.07</course>
  <speed>1.7833956375409243</speed>
  <fix>3d</fix>
</trkpt>
<trkpt lat="33.8103118" lon="-118.3939359">
  <ele>-0.117</ele>
  <time>2026-09-02T22:07:26Z</time>
  <course>5.07</course>
  <speed>1.7833956375409243</speed>
  <fix>3d</fix>
</trkpt>
<trkpt lat="33.8103118" lon="-118.3939361">
  <ele>-0.117</ele>
  <time>2026-09-02T22:07:26Z</time>
  <course>5.08</course>
  <speed>1.7833956375409243</speed>
  <fix>3d</fix>
</trkpt>
<trkpt lat="33.8103118" lon="-118.3939363">
  <ele>-0.116</ele>
  <time>2026-09-02T22:07:26Z</time>
  <course>5.08</course>
  <speed>1.7833956375409243</speed>
  <fix>3d</fix>
</trkpt>
<trkpt lat="33.8103118" lon="-118.3939368">
  <ele>-0.116</ele>
  <time>2026-09-02T22:07:26Z</time>
  <course>5.1</course>
  <speed>1.7833956375409243</speed>
  <fix>3d</fix>
</trkpt>
<trkpt lat="33.8103118" lon="-118.393937">
  <ele>-0.116</ele>
  <time>2026-09-02T22:07:26Z</time>
  <course>5.11</course>
  <speed>1.7833956375409243</speed>
  <fix>3d</fix>
</trkpt>
<trkpt lat="33.8103118" lon="-118.3939371">
  <ele>-0.116</ele>
  <time>2026-09-02T22:07:26Z</time>
  <course>5.11</course>
  <speed>1.7833956375409243</speed>
  <fix>3d</fix>
</trkpt>
<trkpt lat="33.8103116" lon="-118.3939326">
  <ele>-0.1</ele>
  <time>2026-09-02T22:07:26Z</time>
  <course>273.96</course>
  <speed>1.82</speed>
  <fix>3d</fix>
</trkpt>
<trkpt lat="33.8103118" lon="-118.3939372">
  <ele>-0.116</ele>
  <time>2026-09-02T22:07:26Z</time>
  <course>5.11</course>
  <speed>1.7833956375409243</speed>
  <fix>3d</fix>
</trkpt>
<trkpt lat="33.8103118" lon="-118.3939375">
  <ele>-0.115</ele>
  <time>2026-09-02T22:07:26Z</time>
  <course>5.12</course>
  <speed>1.7833956375409243</speed>
  <fix>3d</fix>
</trkpt>
<trkpt lat="33.8103118" lon="-118.3939377">
  <ele>-0.115</ele>
  <time>2026-09-02T22:07:26Z</time>
  <course>5.12</course>
  <speed>1.7833956375409243</speed>
  <fix>3d</fix>
</trkpt>
<trkpt lat="33.8103119" lon="-118.3939379">
  <ele>-0.115</ele>
  <time>2026-09-02T22:07:26Z</time>
  <course>5.13</course>
  <speed>1.7833956375409243</speed>
  <fix>3d</fix>
</trkpt>
<trkpt lat="33.8103119" lon="-118.3939381">
  <ele>-0.115</ele>
  <time>2026-09-02T22:07:26Z</time>
  <course>5.13</course>
  <speed>1.7833956375409243</speed>
  <fix>3d</fix>
</trkpt>
<trkpt lat="33.8103119" lon="-118.3939382">
  <ele>-0.115</ele>
  <time>2026-09-02T22:07:26Z</time>
  <course>5.14</course>
  <speed>1.7833956375409243</speed>
  <fix>3d</fix>
</trkpt>
<trkpt lat="33.8103119" lon="-118.3939384">
  <ele>-0.114</ele>
  <time>2026-09-02T22:07:26Z</time>
  <course>5.14</course>
  <speed>1.7833956375409243</speed>
  <fix>3d</fix>
</trkpt>
<trkpt lat="33.8103119" lon="-118.3939385">
  <ele>-0.114</ele>
  <time>2026-09-02T22:07:26Z</time>
  <course>5.15</course>
  <speed>1.7833956375409243</speed>
  <fix>3d</fix>
</trkpt>
<trkpt lat="33.8103119" lon="-118.3939386">
  <ele>-0.114</ele>
  <time>2026-09-02T22:07:26Z</time>
  <course>5.15</course>
  <speed>1.7833956375409243</speed>
  <fix>3d</fix>
</trkpt>
<trkpt lat="33.8103119" lon="-118.3939388">
  <ele>-0.114</ele>
  <time>2026-09-02T22:07:26Z</time>
  <course>5.15</course>
  <speed>1.7833956375409243</speed>
  <fix>3d</fix>
</trkpt>
<trkpt lat="33.8103119" lon="-118.3939389">
  <ele>-0.114</ele>
  <time>2026-09-02T22:07:26Z</time>
  <course>5.16</course>
  <speed>1.7833956375409243</speed>
  <fix>3d</fix>
</trkpt>
<trkpt lat="33.8103119" lon="-118.3939391">
  <ele>-0.114</ele>
  <time>2026-09-02T22:07:26Z</time>
  <course>5.16</course>
  <speed>1.7833956375409243</speed>
  <fix>3d</fix>
</trkpt>
<trkpt lat="33.8103119" lon="-118.3939391">
  <ele>-0.114</ele>
  <time>2026-09-02T22:07:26Z</time>
  <course>5.16</course>
  <speed>1.7833956375409243</speed>
  <fix>3d</fix>
</trkpt>
<trkpt lat="33.8103117" lon="-118.3939366">
  <ele>-0.1</ele>
  <time>2026-09-02T22:07:26Z</time>
  <course>273.96</course>
  <speed>1.82</speed>
  <fix>3d</fix>
</trkpt>
<trkpt lat="33.8103119" lon="-118.3939394">
  <ele>-0.113</ele>
  <time>2026-09-02T22:07:26Z</time>
  <course>5.17</course>
  <speed>1.7833956375409243</speed>
  <fix>3d</fix>
</trkpt>
<trkpt lat="33.8103119" lon="-118.3939396">
  <ele>-0.113</ele>
  <time>2026-09-02T22:07:26Z</time>
  <course>5.18</course>
  <speed>1.7833956375409243</speed>
  <fix>3d</fix>
</trkpt>
<trkpt lat="33.810312" lon="-118.3939398">
  <ele>-0.113</ele>
  <time>2026-09-02T22:07:26Z</time>
  <course>5.18</course>
  <speed>1.7833956375409243</speed>
  <fix>3d</fix>
</trkpt>
<trkpt lat="33.810312" lon="-118.39394">
  <ele>-0.113</ele>
  <time>2026-09-02T22:07:26Z</time>
  <course>5.19</course>
  <speed>1.7833956375409243</speed>
  <fix>3d</fix>
</trkpt>
<trkpt lat="33.810312" lon="-118.3939402">
  <ele>-0.113</ele>
  <time>2026-09-02T22:07:26Z</time>
  <course>5.19</course>
  <speed>1.7833956375409243</speed>
  <fix>3d</fix>
</trkpt>
<trkpt lat="33.810312" lon="-118.3939404">
  <ele>-0.113</ele>
  <time>2026-09-02T22:07:26Z</time>
  <course>5.2</course>
  <speed>1.7833956375409243</speed>
  <fix>3d</fix>
</trkpt>
<trkpt lat="33.810312" lon="-118.3939405">
  <ele>-0.113</ele>
  <time>2026-09-02T22:07:26Z</time>
  <course>5.2</course>
  <speed>1.7833956375409243</speed>
  <fix>3d</fix>
</trkpt>
<trkpt lat="33.810312" lon="-118.3939407">
  <ele>-0.113</ele>
  <time>2026-09-02T22:07:26Z</time>
  <course>5.2</course>
  <speed>1.7833956375409243</speed>
  <fix>3d</fix>
</trkpt>
<trkpt lat="33.810312" lon="-118.3939408">
  <ele>-0.113</ele>
  <time>2026-09-02T22:07:26Z</time>
  <course>5.21</course>
  <speed>1.7833956375409243</speed>
  <fix>3d</fix>
</trkpt>
<trkpt lat="33.810312" lon="-118.393941">
  <ele>-0.113</ele>
  <time>2026-09-02T22:07:26Z</time>
  <course>5.21</course>
  <speed>1.7833956375409243</speed>
  <fix>3d</fix>
</trkpt>
<trkpt lat="33.810312" lon="-118.3939411">
  <ele>-0.113</ele>
  <time>2026-09-02T22:07:26Z</time>
  <course>5.22</course>
  <speed>1.7833956375409243</speed>
  <fix>3d</fix>
</trkpt>
<trkpt lat="33.8103117" lon="-118.3939366">
  <ele>-0.1</ele>
  <time>2026-09-02T22:07:26Z</time>
  <course>273.96</course>
  <speed>1.82</speed>
  <fix>3d</fix>
</trkpt>
<trkpt lat="33.810312" lon="-118.3939411">
  <ele>-0.113</ele>
  <time>2026-09-02T22:07:26Z</time>
  <course>5.22</course>
  <speed>1.7833956375409243</speed>
  <fix>3d</fix>
</trkpt>
<trkpt lat="33.810312" lon="-118.3939414">
  <ele>-0.112</ele>
  <time>2026-09-02T22:07:26Z</time>
  <course>5.22</course>
  <speed>1.7833956375409243</speed>
  <fix>3d</fix>
</trkpt>
<trkpt lat="33.810312" lon="-118.3939416">
  <ele>-0.112</ele>
  <time>2026-09-02T22:07:26Z</time>
  <course>5.23</course>
  <speed>1.7833956375409243</speed>
  <fix>3d</fix>
</trkpt>
<trkpt lat="33.810312" lon="-118.3939417">
  <ele>-0.112</ele>
  <time>2026-09-02T22:07:26Z</time>
  <course>5.23</course>
  <speed>1.7833956375409243</speed>
  <fix>3d</fix>
</trkpt>
<trkpt lat="33.8103121" lon="-118.3939418">
  <ele>-0.112</ele>
  <time>2026-09-02T22:07:26Z</time>
  <course>5.24</course>
  <speed>1.7833956375409243</speed>
  <fix>3d</fix>
</trkpt>
<trkpt lat="33.8103121" lon="-118.393942">
  <ele>-0.112</ele>
  <time>2026-09-02T22:07:26Z</time>
  <course>5.24</course>
  <speed>1.7833956375409243</speed>
  <fix>3d</fix>
</trkpt>
<trkpt lat="33.8103121" lon="-118.3939421">
  <ele>-0.112</ele>
  <time>2026-09-02T22:07:26Z</time>
  <course>5.24</course>
  <speed>1.7833956375409243</speed>
  <fix>3d</fix>
</trkpt>
<trkpt lat="33.8103121" lon="-118.3939423">
  <ele>-0.112</ele>
  <time>2026-09-02T22:07:26Z</time>
  <course>5.25</course>
  <speed>1.7833956375409243</speed>
  <fix>3d</fix>
</trkpt>
<trkpt lat="33.8103121" lon="-118.3939425">
  <ele>-0.112</ele>
  <time>2026-09-02T22:07:26Z</time>
  <course>5.25</course>
  <speed>1.7833956375409243</speed>
  <fix>3d</fix>
</trkpt>
<trkpt lat="33.8103121" lon="-118.3939427">
  <ele>-0.112</ele>
  <time>2026-09-02T22:07:26Z</time>
  <course>5.26</course>
  <speed>1.7833956375409243</speed>
  <fix>3d</fix>
</trkpt>
<trkpt lat="33.8103121" lon="-118.3939429">
  <ele>-0.112</ele>
  <time>2026-09-02T22:07:26Z</time>
  <course>5.26</course>
  <speed>1.7833956375409243</speed>
  <fix>3d</fix>
</trkpt>
<trkpt lat="33.8103121" lon="-118.393943">
  <ele>-0.112</ele>
  <time>2026-09-02T22:07:26Z</time>
  <course>5.27</course>
  <speed>1.7833956375409243</speed>
  <fix>3d</fix>
</trkpt>
<trkpt lat="33.8103119" lon="-118.3939405">
  <ele>-0.1</ele>
  <time>2026-09-02T22:07:26Z</time>
  <course>273.96</course>
  <speed>1.82</speed>
  <fix>3d</fix>
</trkpt>
<trkpt lat="33.8103121" lon="-118.3939431">
  <ele>-0.112</ele>
  <time>2026-09-02T22:07:26Z</time>
  <course>5.27</course>
  <speed>1.7833956375409243</speed>
  <fix>3d</fix>
</trkpt>
<trkpt lat="33.8103121" lon="-118.3939435">
  <ele>-0.111</ele>
  <time>2026-09-02T22:07:26Z</time>
  <course>5.28</course>
  <speed>1.7833956375409243</speed>
  <fix>3d</fix>
</trkpt>
<trkpt lat="33.8103121" lon="-118.3939437">
  <ele>-0.111</ele>
  <time>2026-09-02T22:07:26Z</time>
  <course>5.28</course>
  <speed>1.7833956375409243</speed>
  <fix>3d</fix>
</trkpt>
<trkpt lat="33.8103121" lon="-118.3939438">
  <ele>-0.111</ele>
  <time>2026-09-02T22:07:26Z</time>
  <course>5.29</course>
  <speed>1.7833956375409243</speed>
  <fix>3d</fix>
</trkpt>
<trkpt lat="33.8103122" lon="-118.393944">
  <ele>-0.111</ele>
  <time>2026-09-02T22:07:26Z</time>
  <course>5.29</course>
  <speed>1.7833956375409243</speed>
  <fix>3d</fix>
</trkpt>
<trkpt lat="33.8103122" lon="-118.3939441">
  <ele>-0.111</ele>
  <time>2026-09-02T22:07:26Z</time>
  <course>5.3</course>
  <speed>1.7833956375409243</speed>
  <fix>3d</fix>
</trkpt>
<trkpt lat="33.8103122" lon="-118.3939443">
  <ele>-0.111</ele>
  <time>2026-09-02T22:07:26Z</time>
  <course>5.3</course>
  <speed>1.7833956375409243</speed>
  <fix>3d</fix>
</trkpt>
<trkpt lat="33.8103122" lon="-118.3939445">
  <ele>-0.111</ele>
  <time>2026-09-02T22:07:26Z</time>
  <course>5.3</course>
  <speed>1.782806775845324</speed>
  <fix>3d</fix>
</trkpt>
<trkpt lat="33.8103122" lon="-118.3939447">
  <ele>-0.111</ele>
  <time>2026-09-02T22:07:26Z</time>
  <course>5.31</course>
  <speed>1.782806775845324</speed>
  <fix>3d</fix>
</trkpt>
<trkpt lat="33.8103122" lon="-118.3939448">
  <ele>-0.111</ele>
  <time>2026-09-02T22:07:26Z</time>
  <course>5.31</course>
  <speed>1.782806775845324</speed>
  <fix>3d</fix>
</trkpt>
<trkpt lat="33.8103122" lon="-118.393945">
  <ele>-0.111</ele>
  <time>2026-09-02T22:07:26Z</time>
  <course>5.32</course>
  <speed>1.782806775845324</speed>
  <fix>3d</fix>
</trkpt>
<trkpt lat="33.8103122" lon="-118.393945">
  <ele>-0.111</ele>
  <time>2026-09-02T22:07:26Z</time>
  <course>5.32</course>
  <speed>1.782806775845324</speed>
  <fix>3d</fix>
</trkpt>
<trkpt lat="33.8103119" lon="-118.3939405">
  <ele>-0.1</ele>
  <time>2026-09-02T22:07:26Z</time>
  <course>273.96</course>
  <speed>1.82</speed>
  <fix>3d</fix>
</trkpt>
<trkpt lat="33.8103122" lon="-118.393945">
  <ele>-0.111</ele>
  <time>2026-09-02T22:07:26Z</time>
  <course>5.32</course>
  <speed>1.782806775845324</speed>
  <fix>3d</fix>
</trkpt>
<trkpt lat="33.8103122" lon="-118.3939452">
  <ele>-0.111</ele>
  <time>2026-09-02T22:07:26Z</time>
  <course>5.32</course>
  <speed>1.782806775845324</speed>
  <fix>3d</fix>
</trkpt>
<trkpt lat="33.8103122" lon="-118.3939454">
  <ele>-0.111</ele>
  <time>2026-09-02T22:07:26Z</time>
  <course>5.33</course>
  <speed>1.782806775845324</speed>
  <fix>3d</fix>
</trkpt>
<trkpt lat="33.8103122" lon="-118.3939456">
  <ele>-0.111</ele>
  <time>2026-09-02T22:07:26Z</time>
  <course>5.33</course>
  <speed>1.782806775845324</speed>
  <fix>3d</fix>
</trkpt>
<trkpt lat="33.8103122" lon="-118.3939458">
  <ele>-0.111</ele>
  <time>2026-09-02T22:07:26Z</time>
  <course>5.34</course>
  <speed>1.782806775845324</speed>
  <fix>3d</fix>
</trkpt>
<trkpt lat="33.8103122" lon="-118.3939459">
  <ele>-0.111</ele>
  <time>2026-09-02T22:07:26Z</time>
  <course>5.34</course>
  <speed>1.782806775845324</speed>
  <fix>3d</fix>
</trkpt>
<trkpt lat="33.8103123" lon="-118.3939461">
  <ele>-0.111</ele>
  <time>2026-09-02T22:07:26Z</time>
  <course>5.34</course>
  <speed>1.782806775845324</speed>
  <fix>3d</fix>
</trkpt>
<trkpt lat="33.8103123" lon="-118.3939462">
  <ele>-0.111</ele>
  <time>2026-09-02T22:07:26Z</time>
  <course>5.35</course>
  <speed>1.782806775845324</speed>
  <fix>3d</fix>
</trkpt>
<trkpt lat="33.8103123" lon="-118.3939464">
  <ele>-0.111</ele>
  <time>2026-09-02T22:07:26Z</time>
  <course>5.35</course>
  <speed>1.782806775845324</speed>
  <fix>3d</fix>
</trkpt>
<trkpt lat="33.8103123" lon="-118.3939467">
  <ele>-0.111</ele>
  <time>2026-09-02T22:07:26Z</time>
  <course>5.36</course>
  <speed>1.782806775845324</speed>
  <fix>3d</fix>
</trkpt>
<trkpt lat="33.8103123" lon="-118.3939469">
  <ele>-0.111</ele>
  <time>2026-09-02T22:07:26Z</time>
  <course>5.36</course>
  <speed>1.782806775845324</speed>
  <fix>3d</fix>
</trkpt>
<trkpt lat="33.8103123" lon="-118.393947">
  <ele>-0.111</ele>
  <time>2026-09-02T22:07:26Z</time>
  <course>5.37</course>
  <speed>1.782806775845324</speed>
  <fix>3d</fix>
</trkpt>
<trkpt lat="33.8103122" lon="-118.3939444">
  <ele>-0.1</ele>
  <time>2026-09-02T22:07:26Z</time>
  <course>273.96</course>
  <speed>1.82</speed>
  <fix>3d</fix>
</trkpt>
<trkpt lat="33.8103123" lon="-118.393947">
  <ele>-0.111</ele>
  <time>2026-09-02T22:07:26Z</time>
  <course>5.37</course>
  <speed>1.782806775845324</speed>
  <fix>3d</fix>
</trkpt>
<trkpt lat="33.8103123" lon="-118.3939473">
  <ele>-0.111</ele>
  <time>2026-09-02T22:07:26Z</time>
  <course>5.37</course>
  <speed>1.782806775845324</speed>
  <fix>3d</fix>
</trkpt>
<trkpt lat="33.8103123" lon="-118.3939475">
  <ele>-0.111</ele>
  <time>2026-09-02T22:07:26Z</time>
  <course>5.38</course>
  <speed>1.782806775845324</speed>
  <fix>3d</fix>
</trkpt>
<trkpt lat="33.8103123" lon="-118.3939477">
  <ele>-0.111</ele>
  <time>2026-09-02T22:07:26Z</time>
  <course>5.39</course>
  <speed>1.782806775845324</speed>
  <fix>3d</fix>
</trkpt>
<trkpt lat="33.8103123" lon="-118.3939478">
  <ele>-0.111</ele>
  <time>2026-09-02T22:07:26Z</time>
  <course>5.39</course>
  <speed>1.782806775845324</speed>
  <fix>3d</fix>
</trkpt>
<trkpt lat="33.8103124" lon="-118.393948">
  <ele>-0.111</ele>
  <time>2026-09-02T22:07:26Z</time>
  <course>5.39</course>
  <speed>1.782806775845324</speed>
  <fix>3d</fix>
</trkpt>
<trkpt lat="33.8103124" lon="-118.3939482">
  <ele>-0.111</ele>
  <time>2026-09-02T22:07:26Z</time>
  <course>5.4</course>
  <speed>1.782806775845324</speed>
  <fix>3d</fix>
</trkpt>
<trkpt lat="33.8103124" lon="-118.3939483">
  <ele>-0.111</ele>
  <time>2026-09-02T22:07:26Z</time>
  <course>5.4</course>
  <speed>1.782806775845324</speed>
  <fix>3d</fix>
</trkpt>
<trkpt lat="33.8103124" lon="-118.3939485">
  <ele>-0.111</ele>
  <time>2026-09-02T22:07:26Z</time>
  <course>5.4</course>
  <speed>1.782806775845324</speed>
  <fix>3d</fix>
</trkpt>
<trkpt lat="33.8103124" lon="-118.3939487">
  <ele>-0.111</ele>
  <time>2026-09-02T22:07:26Z</time>
  <course>5.41</course>
  <speed>1.782806775845324</speed>
  <fix>3d</fix>
</trkpt>
<trkpt lat="33.8103124" lon="-118.3939488">
  <ele>-0.111</ele>
  <time>2026-09-02T22:07:26Z</time>
  <course>5.41</course>
  <speed>1.782806775845324</speed>
  <fix>3d</fix>
</trkpt>
<trkpt lat="33.8103124" lon="-118.3939489">
  <ele>-0.111</ele>
  <time>2026-09-02T22:07:26Z</time>
  <course>5.41</course>
  <speed>1.782806775845324</speed>
  <fix>3d</fix>
</trkpt>
<trkpt lat="33.8103122" lon="-118.3939444">
  <ele>-0.1</ele>
  <time>2026-09-02T22:07:26Z</time>
  <course>273.96</course>
  <speed>1.82</speed>
  <fix>3d</fix>
</trkpt>
<trkpt lat="33.8103124" lon="-118.393949">
  <ele>-0.111</ele>
  <time>2026-09-02T22:07:26Z</time>
  <course>5.42</course>
  <speed>1.782806775845324</speed>
  <fix>3d</fix>
</trkpt>
<trkpt lat="33.8103124" lon="-118.3939493">
  <ele>-0.111</ele>
  <time>2026-09-02T22:07:26Z</time>
  <course>5.42</course>
  <speed>1.782806775845324</speed>
  <fix>3d</fix>
</trkpt>
<trkpt lat="33.8103124" lon="-118.3939494">
  <ele>-0.111</ele>
  <time>2026-09-02T22:07:26Z</time>
  <course>5.43</course>
  <speed>1.782806775845324</speed>
  <fix>3d</fix>
</trkpt>
<trkpt lat="33.8103124" lon="-118.3939496">
  <ele>-0.111</ele>
  <time>2026-09-02T22:07:26Z</time>
  <course>5.43</course>
  <speed>1.782806775845324</speed>
  <fix>3d</fix>
</trkpt>
<trkpt lat="33.8103124" lon="-118.3939497">
  <ele>-0.111</ele>
  <time>2026-09-02T22:07:26Z</time>
  <course>5.43</course>
  <speed>1.782806775845324</speed>
  <fix>3d</fix>
</trkpt>
<trkpt lat="33.8103124" lon="-118.3939498">
  <ele>-0.111</ele>
  <time>2026-09-02T22:07:26Z</time>
  <course>5.44</course>
  <speed>1.782806775845324</speed>
  <fix>3d</fix>
</trkpt>
<trkpt lat="33.8103124" lon="-118.39395">
  <ele>-0.111</ele>
  <time>2026-09-02T22:07:26Z</time>
  <course>5.44</course>
  <speed>1.782806775845324</speed>
  <fix>3d</fix>
</trkpt>
<trkpt lat="33.8103125" lon="-118.3939502">
  <ele>-0.111</ele>
  <time>2026-09-02T22:07:26Z</time>
  <course>5.45</course>
  <speed>1.782806775845324</speed>
  <fix>3d</fix>
</trkpt>
<trkpt lat="33.8103125" lon="-118.3939504">
  <ele>-0.111</ele>
  <time>2026-09-02T22:07:26Z</time>
  <course>5.45</course>
  <speed>1.782806775845324</speed>
  <fix>3d</fix>
</trkpt>
<trkpt lat="33.8103125" lon="-118.3939506">
  <ele>-0.111</ele>
  <time>2026-09-02T22:07:26Z</time>
  <course>5.46</course>
  <speed>1.782806775845324</speed>
  <fix>3d</fix>
</trkpt>
<trkpt lat="33.8103125" lon="-118.3939507">
  <ele>-0.111</ele>
  <time>2026-09-02T22:07:26Z</time>
  <course>5.46</course>
  <speed>1.782806775845324</speed>
  <fix>3d</fix>
</trkpt>
<trkpt lat="33.8103125" lon="-118.3939509">
  <ele>-0.111</ele>
  <time>2026-09-02T22:07:26Z</time>
  <course>5.46</course>
  <speed>1.782806775845324</speed>
  <fix>3d</fix>
</trkpt>
<trkpt lat="33.8103124" lon="-118.3939483">
  <ele>-0.1</ele>
  <time>2026-09-02T22:07:26Z</time>
  <course>273.96</course>
  <speed>1.82</speed>
  <fix>3d</fix>
</trkpt>
<trkpt lat="33.8103125" lon="-118.3939509">
  <ele>-0.111</ele>
  <time>2026-09-02T22:07:26Z</time>
  <course>5.46</course>
  <speed>1.782806775845324</speed>
  <fix>3d</fix>
</trkpt>
<trkpt lat="33.8103125" lon="-118.3939512">
  <ele>-0.111</ele>
  <time>2026-09-02T22:07:26Z</time>
  <course>5.47</course>
  <speed>1.782806775845324</speed>
  <fix>3d</fix>
</trkpt>
<trkpt lat="33.8103125" lon="-118.3939514">
  <ele>-0.111</ele>
  <time>2026-09-02T22:07:26Z</time>
  <course>5.48</course>
  <speed>1.782806775845324</speed>
  <fix>3d</fix>
</trkpt>
<trkpt lat="33.8103125" lon="-118.3939516">
  <ele>-0.111</ele>
  <time>2026-09-02T22:07:26Z</time>
  <course>5.48</course>
  <speed>1.782806775845324</speed>
  <fix>3d</fix>
</trkpt>
<trkpt lat="33.8103125" lon="-118.3939518">
  <ele>-0.111</ele>
  <time>2026-09-02T22:07:26Z</time>
  <course>5.48</course>
  <speed>1.782806775845324</speed>
  <fix>3d</fix>
</trkpt>
<trkpt lat="33.8103125" lon="-118.393952">
  <ele>-0.111</ele>
  <time>2026-09-02T22:07:26Z</time>
  <course>5.49</course>
  <speed>1.782806775845324</speed>
  <fix>3d</fix>
</trkpt>
<trkpt lat="33.8103126" lon="-118.3939522">
  <ele>-0.111</ele>
  <time>2026-09-02T22:07:26Z</time>
  <course>5.49</course>
  <speed>1.782806775845324</speed>
  <fix>3d</fix>
</trkpt>
<trkpt lat="33.8103126" lon="-118.3939523">
  <ele>-0.111</ele>
  <time>2026-09-02T22:07:26Z</time>
  <course>5.5</course>
  <speed>1.782806775845324</speed>
  <fix>3d</fix>
</trkpt>
<trkpt lat="33.8103126" lon="-118.3939525">
  <ele>-0.11</ele>
  <time>2026-09-02T22:07:26Z</time>
  <course>5.5</course>
  <speed>1.782806775845324</speed>
  <fix>3d</fix>
</trkpt>
<trkpt lat="33.8103126" lon="-118.3939526">
  <ele>-0.11</ele>
  <time>2026-09-02T22:07:26Z</time>
  <course>5.5</course>
  <speed>1.782806775845324</speed>
  <fix>3d</fix>
</trkpt>
<trkpt lat="33.8103126" lon="-118.3939527">
  <ele>-0.11</ele>
  <time>2026-09-02T22:07:26Z</time>
  <course>5.51</course>
  <speed>1.782806775845324</speed>
  <fix>3d</fix>
</trkpt>
<trkpt lat="33.8103126" lon="-118.3939528">
  <ele>-0.11</ele>
  <time>2026-09-02T22:07:26Z</time>
  <course>5.51</course>
  <speed>1.782806775845324</speed>
  <fix>3d</fix>
</trkpt>
<trkpt lat="33.8103124" lon="-118.3939483">
  <ele>-0.1</ele>
  <time>2026-09-02T22:07:26Z</time>
  <course>273.96</course>
  <speed>1.82</speed>
  <fix>3d</fix>
</trkpt>
<trkpt lat="33.8103126" lon="-118.3939529">
  <ele>-0.11</ele>
  <time>2026-09-02T22:07:26Z</time>
  <course>5.51</course>
  <speed>1.782806775845324</speed>
  <fix>3d</fix>
</trkpt>
<trkpt lat="33.8103126" lon="-118.3939531">
  <ele>-0.11</ele>
  <time>2026-09-02T22:07:26Z</time>
  <course>5.52</course>
  <speed>1.782806775845324</speed>
  <fix>3d</fix>
</trkpt>
<trkpt lat="33.8103126" lon="-118.3939533">
  <ele>-0.11</ele>
  <time>2026-09-02T22:07:26Z</time>
  <course>5.52</course>
  <speed>1.782806775845324</speed>
  <fix>3d</fix>
</trkpt>
<trkpt lat="33.8103126" lon="-118.3939535">
  <ele>-0.11</ele>
  <time>2026-09-02T22:07:26Z</time>
  <course>5.52</course>
  <speed>1.782806775845324</speed>
  <fix>3d</fix>
</trkpt>
<trkpt lat="33.8103126" lon="-118.3939537">
  <ele>-0.11</ele>
  <time>2026-09-02T22:07:26Z</time>
  <course>5.53</course>
  <speed>1.782806775845324</speed>
  <fix>3d</fix>
</trkpt>
<trkpt lat="33.8103126" lon="-118.3939539">
  <ele>-0.11</ele>
  <time>2026-09-02T22:07:26Z</time>
  <course>5.53</course>
  <speed>1.782806775845324</speed>
  <fix>3d</fix>
</trkpt>
<trkpt lat="33.8103127" lon="-118.3939541">
  <ele>-0.11</ele>
  <time>2026-09-02T22:07:26Z</time>
  <course>5.54</course>
  <speed>1.782806775845324</speed>
  <fix>3d</fix>
</trkpt>
<trkpt lat="33.8103127" lon="-118.3939543">
  <ele>-0.11</ele>
  <time>2026-09-02T22:07:26Z</time>
  <course>5.54</course>
  <speed>1.782806775845324</speed>
  <fix>3d</fix>
</trkpt>
<trkpt lat="33.8103127" lon="-118.3939545">
  <ele>-0.11</ele>
  <time>2026-09-02T22:07:26Z</time>
  <course>5.55</course>
  <speed>1.782806775845324</speed>
  <fix>3d</fix>
</trkpt>
<trkpt lat="33.8103127" lon="-118.3939547">
  <ele>-0.11</ele>
  <time>2026-09-02T22:07:26Z</time>
  <course>5.55</course>
  <speed>1.782806775845324</speed>
  <fix>3d</fix>
</trkpt>
<trkpt lat="33.8103127" lon="-118.3939548">
  <ele>-0.11</ele>
  <time>2026-09-02T22:07:26Z</time>
  <course>5.55</course>
  <speed>1.782806775845324</speed>
  <fix>3d</fix>
</trkpt>
<trkpt lat="33.8103127" lon="-118.3939523">
  <ele>-0.1</ele>
  <time>2026-09-02T22:07:26Z</time>
  <course>273.96</course>
  <speed>1.82</speed>
  <fix>3d</fix>
</trkpt>
<trkpt lat="33.8103127" lon="-118.3939549">
  <ele>-0.11</ele>
  <time>2026-09-02T22:07:26Z</time>
  <course>5.55</course>
  <speed>1.782806775845324</speed>
  <fix>3d</fix>
</trkpt>
<trkpt lat="33.8103127" lon="-118.3939552">
  <ele>-0.11</ele>
  <time>2026-09-02T22:07:26Z</time>
  <course>5.56</course>
  <speed>1.782806775845324</speed>
  <fix>3d</fix>
</trkpt>
<trkpt lat="33.8103127" lon="-118.3939554">
  <ele>-0.11</ele>
  <time>2026-09-02T22:07:26Z</time>
  <course>5.57</course>
  <speed>1.782806775845324</speed>
  <fix>3d</fix>
</trkpt>
<trkpt lat="33.8103127" lon="-118.3939556">
  <ele>-0.109</ele>
  <time>2026-09-02T22:07:26Z</time>
  <course>5.57</course>
  <speed>1.782806775845324</speed>
  <fix>3d</fix>
</trkpt>
<trkpt lat="33.8103127" lon="-118.3939557">
  <ele>-0.109</ele>
  <time>2026-09-02T22:07:26Z</time>
  <course>5.57</course>
  <speed>1.782806775845324</speed>
  <fix>3d</fix>
</trkpt>
<trkpt lat="33.8103127" lon="-118.3939558">
  <ele>-0.109</ele>
  <time>2026-09-02T22:07:26Z</time>
  <course>5.58</course>
  <speed>1.782806775845324</speed>
  <fix>3d</fix>
</trkpt>
<trkpt lat="33.8103128" lon="-118.393956">
  <ele>-0.109</ele>
  <time>2026-09-02T22:07:26Z</time>
  <course>5.58</course>
  <speed>1.782806775845324</speed>
  <fix>3d</fix>
</trkpt>
<trkpt lat="33.8103128" lon="-118.3939562">
  <ele>-0.109</ele>
  <time>2026-09-02T22:07:26Z</time>
  <course>5.58</course>
  <speed>1.782806775845324</speed>
  <fix>3d</fix>
</trkpt>
<trkpt lat="33.8103128" lon="-118.3939563">
  <ele>-0.109</ele>
  <time>2026-09-02T22:07:26Z</time>
  <course>5.59</course>
  <speed>1.782806775845324</speed>
  <fix>3d</fix>
</trkpt>
<trkpt lat="33.8103128" lon="-118.3939565">
  <ele>-0.109</ele>
  <time>2026-09-02T22:07:26Z</time>
  <course>5.59</course>
  <speed>1.782806775845324</speed>
  <fix>3d</fix>
</trkpt>
<trkpt lat="33.8103128" lon="-118.3939566">
  <ele>-0.109</ele>
  <time>2026-09-02T22:07:26Z</time>
  <course>5.59</course>
  <speed>1.782806775845324</speed>
  <fix>3d</fix>
</trkpt>
<trkpt lat="33.8103128" lon="-118.3939568">
  <ele>-0.109</ele>
  <time>2026-09-02T22:07:26Z</time>
  <course>5.6</course>
  <speed>1.782806775845324</speed>
  <fix>3d</fix>
</trkpt>
<trkpt lat="33.8103127" lon="-118.3939523">
  <ele>-0.1</ele>
  <time>2026-09-02T22:07:26Z</time>
  <course>273.96</course>
  <speed>1.82</speed>
  <fix>3d</fix>
</trkpt>
<trkpt lat="33.8103128" lon="-118.3939568">
  <ele>-0.109</ele>
  <time>2026-09-02T22:07:26Z</time>
  <course>5.6</course>
  <speed>1.782806775845324</speed>
  <fix>3d</fix>
</trkpt>
<trkpt lat="33.8103128" lon="-118.3939573">
  <ele>-0.109</ele>
  <time>2026-09-02T22:07:26Z</time>
  <course>5.61</course>
  <speed>1.782806775845324</speed>
  <fix>3d</fix>
</trkpt>
<trkpt lat="33.8103128" lon="-118.3939575">
  <ele>-0.109</ele>
  <time>2026-09-02T22:07:26Z</time>
  <course>5.61</course>
  <speed>1.782806775845324</speed>
  <fix>3d</fix>
</trkpt>
<trkpt lat="33.8103128" lon="-118.3939576">
  <ele>-0.109</ele>
  <time>2026-09-02T22:07:26Z</time>
  <course>5.62</course>
  <speed>1.782806775845324</speed>
  <fix>3d</fix>
</trkpt>
<trkpt lat="33.8103128" lon="-118.3939579">
  <ele>-0.109</ele>
  <time>2026-09-02T22:07:26Z</time>
  <course>5.62</course>
  <speed>1.782806775845324</speed>
  <fix>3d</fix>
</trkpt>
<trkpt lat="33.8103129" lon="-118.3939581">
  <ele>-0.109</ele>
  <time>2026-09-02T22:07:26Z</time>
  <course>5.63</course>
  <speed>1.782806775845324</speed>
  <fix>3d</fix>
</trkpt>
<trkpt lat="33.8103129" lon="-118.3939583">
  <ele>-0.109</ele>
  <time>2026-09-02T22:07:26Z</time>
  <course>5.63</course>
  <speed>1.7822738285684385</speed>
  <fix>3d</fix>
</trkpt>
<trkpt lat="33.8103129" lon="-118.3939584">
  <ele>-0.109</ele>
  <time>2026-09-02T22:07:26Z</time>
  <course>5.63</course>
  <speed>1.7822738285684385</speed>
  <fix>3d</fix>
</trkpt>
<trkpt lat="33.8103129" lon="-118.3939586">
  <ele>-0.109</ele>
  <time>2026-09-02T22:07:26Z</time>
  <course>5.64</course>
  <speed>1.7822738285684385</speed>
  <fix>3d</fix>
</trkpt>
<trkpt lat="33.8103129" lon="-118.3939587">
  <ele>-0.109</ele>
  <time>2026-09-02T22:07:26Z</time>
  <course>5.64</course>
  <speed>1.7822738285684385</speed>
  <fix>3d</fix>
</trkpt>
<trkpt lat="33.8103129" lon="-118.3939562">
  <ele>-0.1</ele>
  <time>2026-09-02T22:07:26Z</time>
  <course>273.96</course>
  <speed>1.82</speed>
  <fix>3d</fix>
</trkpt>
<trkpt lat="33.8103129" lon="-118.3939588">
  <ele>-0.109</ele>
  <time>2026-09-02T22:07:26Z</time>
  <course>5.64</course>
  <speed>1.7822738285684385</speed>
  <fix>3d</fix>
</trkpt>
<trkpt lat="33.8103129" lon="-118.393959">
  <ele>-0.109</ele>
  <time>2026-09-02T22:07:26Z</time>
  <course>5.65</course>
  <speed>1.7822738285684385</speed>
  <fix>3d</fix>
</trkpt>
<trkpt lat="33.8103129" lon="-118.3939593">
  <ele>-0.109</ele>
  <time>2026-09-02T22:07:26Z</time>
  <course>5.65</course>
  <speed>1.7822738285684385</speed>
  <fix>3d</fix>
</trkpt>
<trkpt lat="33.8103129" lon="-118.3939595">
  <ele>-0.109</ele>
  <time>2026-09-02T22:07:26Z</time>
  <course>5.66</course>
  <speed>1.7822738285684385</speed>
  <fix>3d</fix>
</trkpt>
<trkpt lat="33.8103129" lon="-118.3939596">
  <ele>-0.109</ele>
  <time>2026-09-02T22:07:26Z</time>
  <course>5.66</course>
  <speed>1.7822738285684385</speed>
  <fix>3d</fix>
</trkpt>
<trkpt lat="33.8103129" lon="-118.3939598">
  <ele>-0.109</ele>
  <time>2026-09-02T22:07:26Z</time>
  <course>5.66</course>
  <speed>1.7822738285684385</speed>
  <fix>3d</fix>
</trkpt>
<trkpt lat="33.810313" lon="-118.3939599">
  <ele>-0.109</ele>
  <time>2026-09-02T22:07:26Z</time>
  <course>5.67</course>
  <speed>1.7822738285684385</speed>
  <fix>3d</fix>
</trkpt>
<trkpt lat="33.810313" lon="-118.3939601">
  <ele>-0.109</ele>
  <time>2026-09-02T22:07:26Z</time>
  <course>5.67</course>
  <speed>1.7822738285684385</speed>
  <fix>3d</fix>
</trkpt>
<trkpt lat="33.810313" lon="-118.3939602">
  <ele>-0.11</ele>
  <time>2026-09-02T22:07:26Z</time>
  <course>5.67</course>
  <speed>1.7822738285684385</speed>
  <fix>3d</fix>
</trkpt>
<trkpt lat="33.810313" lon="-118.3939604">
  <ele>-0.109</ele>
  <time>2026-09-02T22:07:26Z</time>
  <course>5.68</course>
  <speed>1.7822738285684385</speed>
  <fix>3d</fix>
</trkpt>
<trkpt lat="33.810313" lon="-118.3939605">
  <ele>-0.11</ele>
  <time>2026-09-02T22:07:26Z</time>
  <course>5.68</course>
  <speed>1.7822738285684385</speed>
  <fix>3d</fix>
</trkpt>
<trkpt lat="33.810313" lon="-118.3939607">
  <ele>-0.11</ele>
  <time>2026-09-02T22:07:26Z</time>
  <course>5.68</course>
  <speed>1.7822738285684385</speed>
  <fix>3d</fix>
</trkpt>
<trkpt lat="33.810313" lon="-118.3939607">
  <ele>-0.11</ele>
  <time>2026-09-02T22:07:26Z</time>
  <course>5.68</course>
  <speed>1.7822738285684385</speed>
  <fix>3d</fix>
</trkpt>
<trkpt lat="33.8103129" lon="-118.3939562">
  <ele>-0.1</ele>
  <time>2026-09-02T22:07:26Z</time>
  <course>273.96</course>
  <speed>1.82</speed>
  <fix>3d</fix>
</trkpt>
<trkpt lat="33.810313" lon="-118.3939608">
  <ele>-0.11</ele>
  <time>2026-09-02T22:07:26Z</time>
  <course>5.68</course>
  <speed>1.7822738285684385</speed>
  <fix>3d</fix>
</trkpt>
<trkpt lat="33.810313" lon="-118.3939608">
  <ele>-0.11</ele>
  <time>2026-09-02T22:07:26Z</time>
  <course>5.69</course>
  <speed>1.7822738285684385</speed>
  <fix>3d</fix>
</trkpt>
<trkpt lat="33.810313" lon="-118.3939613">
  <ele>-0.11</ele>
  <time>2026-09-02T22:07:26Z</time>
  <course>5.7</course>
  <speed>1.7822738285684385</speed>
  <fix>3d</fix>
</trkpt>
<trkpt lat="33.810313" lon="-118.3939615">
  <ele>-0.11</ele>
  <time>2026-09-02T22:07:26Z</time>
  <course>5.7</course>
  <speed>1.7822738285684385</speed>
  <fix>3d</fix>
</trkpt>
<trkpt lat="33.810313" lon="-118.3939616">
  <ele>-0.11</ele>
  <time>2026-09-02T22:07:26Z</time>
  <course>5.7</course>
  <speed>1.7822738285684385</speed>
  <fix>3d</fix>
</trkpt>
<trkpt lat="33.810313" lon="-118.3939618">
  <ele>-0.11</ele>
  <time>2026-09-02T22:07:26Z</time>
  <course>5.71</course>
  <speed>1.7822738285684385</speed>
  <fix>3d</fix>
</trkpt>
<trkpt lat="33.8103131" lon="-118.3939619">
  <ele>-0.11</ele>
  <time>2026-09-02T22:07:26Z</time>
  <course>5.71</course>
  <speed>1.7822738285684385</speed>
  <fix>3d</fix>
</trkpt>
<trkpt lat="33.8103131" lon="-118.3939621">
  <ele>-0.11</ele>
  <time>2026-09-02T22:07:26Z</time>
  <course>5.71</course>
  <speed>1.7822738285684385</speed>
  <fix>3d</fix>
</trkpt>
<trkpt lat="33.8103131" lon="-118.3939622">
  <ele>-0.11</ele>
  <time>2026-09-02T22:07:26Z</time>
  <course>5.72</course>
  <speed>1.7822738285684385</speed>
  <fix>3d</fix>
</trkpt>
<trkpt lat="33.8103131" lon="-118.3939624">
  <ele>-0.11</ele>
  <time>2026-09-02T22:07:26Z</time>
  <course>5.72</course>
  <speed>1.7822738285684385</speed>
  <fix>3d</fix>
</trkpt>
<trkpt lat="33.8103131" lon="-118.3939625">
  <ele>-0.11</ele>
  <time>2026-09-02T22:07:26Z</time>
  <course>5.72</course>
  <speed>1.7822738285684385</speed>
  <fix>3d</fix>
</trkpt>
<trkpt lat="33.8103131" lon="-118.3939627">
  <ele>-0.11</ele>
  <time>2026-09-02T22:07:26Z</time>
  <course>5.73</course>
  <speed>1.7822738285684385</speed>
  <fix>3d</fix>
</trkpt>
<trkpt lat="33.8103131" lon="-118.3939627">
  <ele>-0.11</ele>
  <time>2026-09-02T22:07:26Z</time>
  <course>5.73</course>
  <speed>1.7822738285684385</speed>
  <fix>3d</fix>
</trkpt>
<trkpt lat="33.8103131" lon="-118.3939601">
  <ele>-0.1</ele>
  <time>2026-09-02T22:07:26Z</time>
  <course>273.96</course>
  <speed>1.82</speed>
  <fix>3d</fix>
</trkpt>
<trkpt lat="33.8103131" lon="-118.3939629">
  <ele>-0.11</ele>
  <time>2026-09-02T22:07:26Z</time>
  <course>5.73</course>
  <speed>1.7822738285684385</speed>
  <fix>3d</fix>
</trkpt>
<trkpt lat="33.8103131" lon="-118.3939631">
  <ele>-0.11</ele>
  <time>2026-09-02T22:07:26Z</time>
  <course>5.73</course>
  <speed>1.7822738285684385</speed>
  <fix>3d</fix>
</trkpt>
<trkpt lat="33.8103131" lon="-118.3939632">
  <ele>-0.11</ele>
  <time>2026-09-02T22:07:26Z</time>
  <course>5.74</course>
  <speed>1.7822738285684385</speed>
  <fix>3d</fix>
</trkpt>
<trkpt lat="33.8103131" lon="-118.3939634">
  <ele>-0.11</ele>
  <time>2026-09-02T22:07:26Z</time>
  <course>5.74</course>
  <speed>1.7822738285684385</speed>
  <fix>3d</fix>
</trkpt>
<trkpt lat="33.8103131" lon="-118.3939636">
  <ele>-0.11</ele>
  <time>2026-09-02T22:07:26Z</time>
  <course>5.75</course>
  <speed>1.7822738285684385</speed>
  <fix>3d</fix>
</trkpt>
<trkpt lat="33.8103132" lon="-118.3939638">
  <ele>-0.11</ele>
  <time>2026-09-02T22:07:26Z</time>
  <course>5.75</course>
  <speed>1.7822738285684385</speed>
  <fix>3d</fix>
</trkpt>
<trkpt lat="33.8103132" lon="-118.393964">
  <ele>-0.11</ele>
  <time>2026-09-02T22:07:26Z</time>
  <course>5.75</course>
  <speed>1.7822738285684385</speed>
  <fix>3d</fix>
</trkpt>
<trkpt lat="33.8103132" lon="-118.3939642">
  <ele>-0.11</ele>
  <time>2026-09-02T22:07:26Z</time>
  <course>5.76</course>
  <speed>1.7822738285684385</speed>
  <fix>3d</fix>
</trkpt>
<trkpt lat="33.8103132" lon="-118.3939644">
  <ele>-0.11</ele>
  <time>2026-09-02T22:07:26Z</time>
  <course>5.76</course>
  <speed>1.7822738285684385</speed>
  <fix>3d</fix>
</trkpt>
<trkpt lat="33.8103132" lon="-118.3939646">
  <ele>-0.11</ele>
  <time>2026-09-02T22:07:26Z</time>
  <course>5.76</course>
  <speed>1.7822738285684385</speed>
  <fix>3d</fix>
</trkpt>
<trkpt lat="33.8103132" lon="-118.3939647">
  <ele>-0.11</ele>
  <time>2026-09-02T22:07:26Z</time>
  <course>5.77</course>
  <speed>1.7822738285684385</speed>
  <fix>3d</fix>
</trkpt>
<trkpt lat="33.8103131" lon="-118.3939601">
  <ele>-0.1</ele>
  <time>2026-09-02T22:07:26Z</time>
  <course>273.96</course>
  <speed>1.82</speed>
  <fix>3d</fix>
</trkpt>
<trkpt lat="33.8103132" lon="-118.3939647">
  <ele>-0.11</ele>
  <time>2026-09-02T22:07:26Z</time>
  <course>5.77</course>
  <speed>1.7822738285684385</speed>
  <fix>3d</fix>
</trkpt>
<trkpt lat="33.8103132" lon="-118.393965">
  <ele>-0.11</ele>
  <time>2026-09-02T22:07:26Z</time>
  <course>5.77</course>
  <speed>1.7822738285684385</speed>
  <fix>3d</fix>
</trkpt>
<trkpt lat="33.8103132" lon="-118.3939652">
  <ele>-0.11</ele>
  <time>2026-09-02T22:07:26Z</time>
  <course>5.78</course>
  <speed>1.7822738285684385</speed>
  <fix>3d</fix>
</trkpt>
<trkpt lat="33.8103132" lon="-118.3939654">
  <ele>-0.11</ele>
  <time>2026-09-02T22:07:26Z</time>
  <course>5.78</course>
  <speed>1.7822738285684385</speed>
  <fix>3d</fix>
</trkpt>
<trkpt lat="33.8103132" lon="-118.3939655">
  <ele>-0.11</ele>
  <time>2026-09-02T22:07:26Z</time>
  <course>5.78</course>
  <speed>1.7822738285684385</speed>
  <fix>3d</fix>
</trkpt>
<trkpt lat="33.8103132" lon="-118.3939657">
  <ele>-0.11</ele>
  <time>2026-09-02T22:07:26Z</time>
  <course>5.79</course>
  <speed>1.7822738285684385</speed>
  <fix>3d</fix>
</trkpt>
<trkpt lat="33.8103133" lon="-118.3939659">
  <ele>-0.11</ele>
  <time>2026-09-02T22:07:26Z</time>
  <course>5.79</course>
  <speed>1.7822738285684385</speed>
  <fix>3d</fix>
</trkpt>
<trkpt lat="33.8103133" lon="-118.3939661">
  <ele>-0.11</ele>
  <time>2026-09-02T22:07:26Z</time>
  <course>5.79</course>
  <speed>1.7822738285684385</speed>
  <fix>3d</fix>
</trkpt>
<trkpt lat="33.8103133" lon="-118.3939663">
  <ele>-0.11</ele>
  <time>2026-09-02T22:07:26Z</time>
  <course>5.8</course>
  <speed>1.7822738285684385</speed>
  <fix>3d</fix>
</trkpt>
<trkpt lat="33.8103133" lon="-118.3939664">
  <ele>-0.109</ele>
  <time>2026-09-02T22:07:26Z</time>
  <course>5.8</course>
  <speed>1.7822738285684385</speed>
  <fix>3d</fix>
</trkpt>
<trkpt lat="33.8103133" lon="-118.3939666">
  <ele>-0.109</ele>
  <time>2026-09-02T22:07:26Z</time>
  <course>5.81</course>
  <speed>1.7822738285684385</speed>
  <fix>3d</fix>
</trkpt>
<trkpt lat="33.8103133" lon="-118.3939666">
  <ele>-0.109</ele>
  <time>2026-09-02T22:07:26Z</time>
  <course>5.81</course>
  <speed>1.7822738285684385</speed>
  <fix>3d</fix>
</trkpt>
<trkpt lat="33.8103134" lon="-118.3939641">
  <ele>-0.1</ele>
  <time>2026-09-02T22:07:26Z</time>
  <course>273.97</course>
  <speed>1.82</speed>
  <fix>3d</fix>
</trkpt>
<trkpt lat="33.8103133" lon="-118.3939669">
  <ele>-0.109</ele>
  <time>2026-09-02T22:07:26Z</time>
  <course>5.81</course>
  <speed>1.7822738285684385</speed>
  <fix>3d</fix>
</trkpt>
<trkpt lat="33.8103133" lon="-118.3939671">
  <ele>-0.109</ele>
  <time>2026-09-02T22:07:26Z</time>
  <course>5.82</course>
  <speed>1.7822738285684385</speed>
  <fix>3d</fix>
</trkpt>
<trkpt lat="33.8103133" lon="-118.3939673">
  <ele>-0.109</ele>
  <time>2026-09-02T22:07:26Z</time>
  <course>5.82</course>
  <speed>1.7822738285684385</speed>
  <fix>3d</fix>
</trkpt>
<trkpt lat="33.8103133" lon="-118.3939675">
  <ele>-0.109</ele>
  <time>2026-09-02T22:07:26Z</time>
  <course>5.82</course>
  <speed>1.7822738285684385</speed>
  <fix>3d</fix>
</trkpt>
<trkpt lat="33.8103134" lon="-118.3939677">
  <ele>-0.109</ele>
  <time>2026-09-02T22:07:26Z</time>
  <course>5.83</course>
  <speed>1.7822738285684385</speed>
  <fix>3d</fix>
</trkpt>
<trkpt lat="33.8103134" lon="-118.3939679">
  <ele>-0.109</ele>
  <time>2026-09-02T22:07:26Z</time>
  <course>5.83</course>
  <speed>1.7822738285684385</speed>
  <fix>3d</fix>
</trkpt>
<trkpt lat="33.8103134" lon="-118.393968">
  <ele>-0.109</ele>
  <time>2026-09-02T22:07:26Z</time>
  <course>5.83</course>
  <speed>1.7822738285684385</speed>
  <fix>3d</fix>
</trkpt>
<trkpt lat="33.8103134" lon="-118.3939682">
  <ele>-0.109</ele>
  <time>2026-09-02T22:07:26Z</time>
  <course>5.84</course>
  <speed>1.7822738285684385</speed>
  <fix>3d</fix>
</trkpt>
<trkpt lat="33.8103134" lon="-118.3939683">
  <ele>-0.108</ele>
  <time>2026-09-02T22:07:26Z</time>
  <course>5.84</course>
  <speed>1.7822738285684385</speed>
  <fix>3d</fix>
</trkpt>
<trkpt lat="33.8103134" lon="-118.3939685">
  <ele>-0.108</ele>
  <time>2026-09-02T22:07:26Z</time>
  <course>5.84</course>
  <speed>1.7822738285684385</speed>
  <fix>3d</fix>
</trkpt>
<trkpt lat="33.8103134" lon="-118.3939686">
  <ele>-0.108</ele>
  <time>2026-09-02T22:07:26Z</time>
  <course>5.84</course>
  <speed>1.7822738285684385</speed>
  <fix>3d</fix>
</trkpt>
<trkpt lat="33.8103134" lon="-118.3939641">
  <ele>-0.1</ele>
  <time>2026-09-02T22:07:26Z</time>
  <course>273.97</course>
  <speed>1.82</speed>
  <fix>3d</fix>
</trkpt>
<trkpt lat="33.8103134" lon="-118.3939686">
  <ele>-0.108</ele>
  <time>2026-09-02T22:07:26Z</time>
  <course>5.85</course>
  <speed>1.7822738285684385</speed>
  <fix>3d</fix>
</trkpt>
<trkpt lat="33.8103134" lon="-118.3939689">
  <ele>-0.108</ele>
  <time>2026-09-02T22:07:26Z</time>
  <course>5.85</course>
  <speed>1.7822738285684385</speed>
  <fix>3d</fix>
</trkpt>
<trkpt lat="33.8103134" lon="-118.3939691">
  <ele>-0.108</ele>
  <time>2026-09-02T22:07:26Z</time>
  <course>5.85</course>
  <speed>1.7822738285684385</speed>
  <fix>3d</fix>
</trkpt>
<trkpt lat="33.8103134" lon="-118.3939692">
  <ele>-0.108</ele>
  <time>2026-09-02T22:07:26Z</time>
  <course>5.86</course>
  <speed>1.7822738285684385</speed>
  <fix>3d</fix>
</trkpt>
<trkpt lat="33.8103134" lon="-118.3939694">
  <ele>-0.108</ele>
  <time>2026-09-02T22:07:26Z</time>
  <course>5.86</course>
  <speed>1.7822738285684385</speed>
  <fix>3d</fix>
</trkpt>
<trkpt lat="33.8103135" lon="-118.3939695">
  <ele>-0.108</ele>
  <time>2026-09-02T22:07:26Z</time>
  <course>5.86</course>
  <speed>1.7822738285684385</speed>
  <fix>3d</fix>
</trkpt>
<trkpt lat="33.8103135" lon="-118.3939697">
  <ele>-0.108</ele>
  <time>2026-09-02T22:07:26Z</time>
  <course>5.87</course>
  <speed>1.7822738285684385</speed>
  <fix>3d</fix>
</trkpt>
<trkpt lat="33.8103135" lon="-118.3939698">
  <ele>-0.108</ele>
  <time>2026-09-02T22:07:26Z</time>
  <course>5.87</course>
  <speed>1.7822738285684385</speed>
  <fix>3d</fix>
</trkpt>
<trkpt lat="33.8103135" lon="-118.39397">
  <ele>-0.108</ele>
  <time>2026-09-02T22:07:26Z</time>
  <course>5.87</course>
  <speed>1.7822738285684385</speed>
  <fix>3d</fix>
</trkpt>
<trkpt lat="33.8103135" lon="-118.3939702">
  <ele>-0.108</ele>
  <time>2026-09-02T22:07:26Z</time>
  <course>5.88</course>
  <speed>1.7822738285684385</speed>
  <fix>3d</fix>
</trkpt>
<trkpt lat="33.8103135" lon="-118.3939704">
  <ele>-0.107</ele>
  <time>2026-09-02T22:07:26Z</time>
  <course>5.88</course>
  <speed>1.7822738285684385</speed>
  <fix>3d</fix>
</trkpt>
<trkpt lat="33.8103135" lon="-118.3939705">
  <ele>-0.107</ele>
  <time>2026-09-02T22:07:26Z</time>
  <course>5.88</course>
  <speed>1.7822738285684385</speed>
  <fix>3d</fix>
</trkpt>
<trkpt lat="33.8103135" lon="-118.3939706">
  <ele>-0.107</ele>
  <time>2026-09-02T22:07:26Z</time>
  <course>5.88</course>
  <speed>1.7822738285684385</speed>
  <fix>3d</fix>
</trkpt>
<trkpt lat="33.8103136" lon="-118.393968">
  <ele>-0.1</ele>
  <time>2026-09-02T22:07:26Z</time>
  <course>273.97</course>
  <speed>1.82</speed>
  <fix>3d</fix>
</trkpt>
<trkpt lat="33.8103135" lon="-118.3939706">
  <ele>-0.107</ele>
  <time>2026-09-02T22:07:26Z</time>
  <course>5.88</course>
  <speed>1.7822738285684385</speed>
  <fix>3d</fix>
</trkpt>
<trkpt lat="33.8103135" lon="-118.3939709">
  <ele>-0.107</ele>
  <time>2026-09-02T22:07:26Z</time>
  <course>5.89</course>
  <speed>1.7822738285684385</speed>
  <fix>3d</fix>
</trkpt>
<trkpt lat="33.8103135" lon="-118.393971">
  <ele>-0.107</ele>
  <time>2026-09-02T22:07:26Z</time>
  <course>5.89</course>
  <speed>1.7822738285684385</speed>
  <fix>3d</fix>
</trkpt>
<trkpt lat="33.8103135" lon="-118.3939712">
  <ele>-0.107</ele>
  <time>2026-09-02T22:07:26Z</time>
  <course>5.9</course>
  <speed>1.7822738285684385</speed>
  <fix>3d</fix>
</trkpt>
<trkpt lat="33.8103136" lon="-118.3939714">
  <ele>-0.107</ele>
  <time>2026-09-02T22:07:26Z</time>
  <course>5.9</course>
  <speed>1.7822738285684385</speed>
  <fix>3d</fix>
</trkpt>
<trkpt lat="33.8103136" lon="-118.3939715">
  <ele>-0.107</ele>
  <time>2026-09-02T22:07:26Z</time>
  <course>5.9</course>
  <speed>1.7822738285684385</speed>
  <fix>3d</fix>
</trkpt>
<trkpt lat="33.8103136" lon="-118.3939717">
  <ele>-0.107</ele>
  <time>2026-09-02T22:07:26Z</time>
  <course>5.9</course>
  <speed>1.7822738285684385</speed>
  <fix>3d</fix>
</trkpt>
<trkpt lat="33.8103136" lon="-118.3939718">
  <ele>-0.107</ele>
  <time>2026-09-02T22:07:26Z</time>
  <course>5.91</course>
  <speed>1.7822738285684385</speed>
  <fix>3d</fix>
</trkpt>
<trkpt lat="33.8103136" lon="-118.393972">
  <ele>-0.107</ele>
  <time>2026-09-02T22:07:26Z</time>
  <course>5.91</course>
  <speed>1.7822738285684385</speed>
  <fix>3d</fix>
</trkpt>
<trkpt lat="33.8103136" lon="-118.3939721">
  <ele>-0.107</ele>
  <time>2026-09-02T22:07:26Z</time>
  <course>5.91</course>
  <speed>1.7822738285684385</speed>
  <fix>3d</fix>
</trkpt>
<trkpt lat="33.8103136" lon="-118.3939723">
  <ele>-0.107</ele>
  <time>2026-09-02T22:07:26Z</time>
  <course>5.92</course>
  <speed>1.7822738285684385</speed>
  <fix>3d</fix>
</trkpt>
<trkpt lat="33.8103136" lon="-118.3939724">
  <ele>-0.107</ele>
  <time>2026-09-02T22:07:26Z</time>
  <course>5.92</course>
  <speed>1.7822738285684385</speed>
  <fix>3d</fix>
</trkpt>
<trkpt lat="33.8103136" lon="-118.3939725">
  <ele>-0.107</ele>
  <time>2026-09-02T22:07:26Z</time>
  <course>5.92</course>
  <speed>1.7822738285684385</speed>
  <fix>3d</fix>
</trkpt>
<trkpt lat="33.8103136" lon="-118.393968">
  <ele>-0.1</ele>
  <time>2026-09-02T22:07:26Z</time>
  <course>273.97</course>
  <speed>1.82</speed>
  <fix>3d</fix>
</trkpt>
<trkpt lat="33.8103136" lon="-118.3939726">
  <ele>-0.107</ele>
  <time>2026-09-02T22:07:26Z</time>
  <course>5.92</course>
  <speed>1.7822738285684385</speed>
  <fix>3d</fix>
</trkpt>
<trkpt lat="33.8103136" lon="-118.3939728">
  <ele>-0.107</ele>
  <time>2026-09-02T22:07:26Z</time>
  <course>5.93</course>
  <speed>1.7822738285684385</speed>
  <fix>3d</fix>
</trkpt>
<trkpt lat="33.8103136" lon="-118.393973">
  <ele>-0.107</ele>
  <time>2026-09-02T22:07:26Z</time>
  <course>5.93</course>
  <speed>1.7822738285684385</speed>
  <fix>3d</fix>
</trkpt>
<trkpt lat="33.8103136" lon="-118.3939732">
  <ele>-0.107</ele>
  <time>2026-09-02T22:07:26Z</time>
  <course>5.93</course>
  <speed>1.7822738285684385</speed>
  <fix>3d</fix>
</trkpt>
<trkpt lat="33.8103137" lon="-118.3939733">
  <ele>-0.107</ele>
  <time>2026-09-02T22:07:26Z</time>
  <course>5.94</course>
  <speed>1.7822738285684385</speed>
  <fix>3d</fix>
</trkpt>
<trkpt lat="33.8103137" lon="-118.3939735">
  <ele>-0.108</ele>
  <time>2026-09-02T22:07:26Z</time>
  <course>5.94</course>
  <speed>1.7822738285684385</speed>
  <fix>3d</fix>
</trkpt>
<trkpt lat="33.8103137" lon="-118.3939736">
  <ele>-0.108</ele>
  <time>2026-09-02T22:07:26Z</time>
  <course>5.94</course>
  <speed>1.7822738285684385</speed>
  <fix>3d</fix>
</trkpt>
<trkpt lat="33.8103137" lon="-118.3939738">
  <ele>-0.108</ele>
  <time>2026-09-02T22:07:26Z</time>
  <course>5.94</course>
  <speed>1.7822738285684385</speed>
  <fix>3d</fix>
</trkpt>
<trkpt lat="33.8103137" lon="-118.393974">
  <ele>-0.108</ele>
  <time>2026-09-02T22:07:26Z</time>
  <course>5.95</course>
  <speed>1.7822738285684385</speed>
  <fix>3d</fix>
</trkpt>
<trkpt lat="33.8103137" lon="-118.3939741">
  <ele>-0.108</ele>
  <time>2026-09-02T22:07:26Z</time>
  <course>5.95</course>
  <speed>1.7822738285684385</speed>
  <fix>3d</fix>
</trkpt>
<trkpt lat="33.8103137" lon="-118.3939743">
  <ele>-0.108</ele>
  <time>2026-09-02T22:07:26Z</time>
  <course>5.95</course>
  <speed>1.7822738285684385</speed>
  <fix>3d</fix>
</trkpt>
<trkpt lat="33.8103137" lon="-118.3939744">
  <ele>-0.108</ele>
  <time>2026-09-02T22:07:26Z</time>
  <course>5.96</course>
  <speed>1.7822738285684385</speed>
  <fix>3d</fix>
</trkpt>
<trkpt lat="33.8103137" lon="-118.3939745">
  <ele>-0.108</ele>
  <time>2026-09-02T22:07:26Z</time>
  <course>5.96</course>
  <speed>1.7822738285684385</speed>
  <fix>3d</fix>
</trkpt>
<trkpt lat="33.8103138" lon="-118.3939719">
  <ele>-0.1</ele>
  <time>2026-09-02T22:07:26Z</time>
  <course>273.98</course>
  <speed>1.82</speed>
  <fix>3d</fix>
</trkpt>
<trkpt lat="33.8103137" lon="-118.3939745">
  <ele>-0.108</ele>
  <time>2026-09-02T22:07:26Z</time>
  <course>5.96</course>
  <speed>1.7822738285684385</speed>
  <fix>3d</fix>
</trkpt>
<trkpt lat="33.8103137" lon="-118.3939748">
  <ele>-0.108</ele>
  <time>2026-09-02T22:07:26Z</time>
  <course>5.96</course>
  <speed>1.7822738285684385</speed>
  <fix>3d</fix>
</trkpt>
<trkpt lat="33.8103138" lon="-118.393975">
  <ele>-0.108</ele>
  <time>2026-09-02T22:07:26Z</time>
  <course>5.97</course>
  <speed>1.7822738285684385</speed>
  <fix>3d</fix>
</trkpt>
<trkpt lat="33.8103138" lon="-118.3939752">
  <ele>-0.108</ele>
  <time>2026-09-02T22:07:26Z</time>
  <course>5.97</course>
  <speed>1.7822738285684385</speed>
  <fix>3d</fix>
</trkpt>
<trkpt lat="33.8103138" lon="-118.3939753">
  <ele>-0.108</ele>
  <time>2026-09-02T22:07:26Z</time>
  <course>5.97</course>
  <speed>1.7822738285684385</speed>
  <fix>3d</fix>
</trkpt>
<trkpt lat="33.8103138" lon="-118.3939755">
  <ele>-0.108</ele>
  <time>2026-09-02T22:07:26Z</time>
  <course>5.98</course>
  <speed>1.7822738285684385</speed>
  <fix>3d</fix>
</trkpt>
<trkpt lat="33.8103138" lon="-118.3939756">
  <ele>-0.108</ele>
  <time>2026-09-02T22:07:26Z</time>
  <course>5.98</course>
  <speed>1.7822738285684385</speed>
  <fix>3d</fix>
</trkpt>
<trkpt lat="33.8103138" lon="-118.3939758">
  <ele>-0.108</ele>
  <time>2026-09-02T22:07:26Z</time>
  <course>5.98</course>
  <speed>1.7822738285684385</speed>
  <fix>3d</fix>
</trkpt>
<trkpt lat="33.8103138" lon="-118.393976">
  <ele>-0.108</ele>
  <time>2026-09-02T22:07:26Z</time>
  <course>5.98</course>
  <speed>1.7822738285684385</speed>
  <fix>3d</fix>
</trkpt>
<trkpt lat="33.8103138" lon="-118.3939761">
  <ele>-0.108</ele>
  <time>2026-09-02T22:07:26Z</time>
  <course>5.99</course>
  <speed>1.7822738285684385</speed>
  <fix>3d</fix>
</trkpt>
<trkpt lat="33.8103138" lon="-118.3939763">
  <ele>-0.108</ele>
  <time>2026-09-02T22:07:26Z</time>
  <course>5.99</course>
  <speed>1.7822738285684385</speed>
  <fix>3d</fix>
</trkpt>
<trkpt lat="33.8103138" lon="-118.3939765">
  <ele>-0.108</ele>
  <time>2026-09-02T22:07:26Z</time>
  <course>5.99</course>
  <speed>1.7822738285684385</speed>
  <fix>3d</fix>
</trkpt>
<trkpt lat="33.8103138" lon="-118.3939765">
  <ele>-0.108</ele>
  <time>2026-09-02T22:07:26Z</time>
  <course>5.99</course>
  <speed>1.7822738285684385</speed>
  <fix>3d</fix>
</trkpt>
<trkpt lat="33.8103138" lon="-118.3939719">
  <ele>-0.1</ele>
  <time>2026-09-02T22:07:26Z</time>
  <course>273.98</course>
  <speed>1.82</speed>
  <fix>3d</fix>
</trkpt>
<trkpt lat="33.8103138" lon="-118.3939768">
  <ele>-0.108</ele>
  <time>2026-09-02T22:07:26Z</time>
  <course>6.0</course>
  <speed>1.7822738285684385</speed>
  <fix>3d</fix>
</trkpt>
<trkpt lat="33.8103139" lon="-118.3939769">
  <ele>-0.108</ele>
  <time>2026-09-02T22:07:26Z</time>
  <course>6.0</course>
  <speed>1.7822738285684385</speed>
  <fix>3d</fix>
</trkpt>
<trkpt lat="33.8103139" lon="-118.3939771">
  <ele>-0.108</ele>
  <time>2026-09-02T22:07:26Z</time>
  <course>6.01</course>
  <speed>1.7822738285684385</speed>
  <fix>3d</fix>
</trkpt>
<trkpt lat="33.8103139" lon="-118.3939773">
  <ele>-0.108</ele>
  <time>2026-09-02T22:07:26Z</time>
  <course>6.01</course>
  <speed>1.7822738285684385</speed>
  <fix>3d</fix>
</trkpt>
<trkpt lat="33.8103139" lon="-118.3939775">
  <ele>-0.108</ele>
  <time>2026-09-02T22:07:26Z</time>
  <course>6.01</course>
  <speed>1.7822738285684385</speed>
  <fix>3d</fix>
</trkpt>
<trkpt lat="33.8103139" lon="-118.393978">
  <ele>-0.108</ele>
  <time>2026-09-02T22:07:26Z</time>
  <course>6.02</course>
  <speed>1.7822738285684385</speed>
  <fix>3d</fix>
</trkpt>
<trkpt lat="33.8103139" lon="-118.3939781">
  <ele>-0.108</ele>
  <time>2026-09-02T22:07:26Z</time>
  <course>6.02</course>
  <speed>1.7822738285684385</speed>
  <fix>3d</fix>
</trkpt>
<trkpt lat="33.8103139" lon="-118.3939783">
  <ele>-0.108</ele>
  <time>2026-09-02T22:07:26Z</time>
  <course>6.03</course>
  <speed>1.7822738285684385</speed>
  <fix>3d</fix>
</trkpt>
<trkpt lat="33.8103139" lon="-118.3939784">
  <ele>-0.108</ele>
  <time>2026-09-02T22:07:26Z</time>
  <course>6.03</course>
  <speed>1.7822738285684385</speed>
  <fix>3d</fix>
</trkpt>
<trkpt lat="33.8103141" lon="-118.3939758">
  <ele>-0.1</ele>
  <time>2026-09-02T22:07:26Z</time>
  <course>273.99</course>
  <speed>1.82</speed>
  <fix>3d</fix>
</trkpt>
<trkpt lat="33.8103139" lon="-118.3939785">
  <ele>-0.108</ele>
  <time>2026-09-02T22:07:26Z</time>
  <course>6.03</course>
  <speed>1.7822738285684385</speed>
  <fix>3d</fix>
</trkpt>
<trkpt lat="33.810314" lon="-118.3939787">
  <ele>-0.108</ele>
  <time>2026-09-02T22:07:26Z</time>
  <course>6.03</course>
  <speed>1.7822738285684385</speed>
  <fix>3d</fix>
</trkpt>
<trkpt lat="33.810314" lon="-118.3939789">
  <ele>-0.108</ele>
  <time>2026-09-02T22:07:26Z</time>
  <course>6.04</course>
  <speed>1.7822738285684385</speed>
  <fix>3d</fix>
</trkpt>
<trkpt lat="33.810314" lon="-118.3939791">
  <ele>-0.107</ele>
  <time>2026-09-02T22:07:26Z</time>
  <course>6.04</course>
  <speed>1.7822738285684385</speed>
  <fix>3d</fix>
</trkpt>
<trkpt lat="33.810314" lon="-118.3939793">
  <ele>-0.107</ele>
  <time>2026-09-02T22:07:26Z</time>
  <course>6.04</course>
  <speed>1.7822738285684385</speed>
  <fix>3d</fix>
</trkpt>
<trkpt lat="33.810314" lon="-118.3939795">
  <ele>-0.107</ele>
  <time>2026-09-02T22:07:26Z</time>
  <course>6.05</course>
  <speed>1.7822738285684385</speed>
  <fix>3d</fix>
</trkpt>
<trkpt lat="33.810314" lon="-118.3939796">
  <ele>-0.107</ele>
  <time>2026-09-02T22:07:26Z</time>
  <course>6.05</course>
  <speed>1.7822738285684385</speed>
  <fix>3d</fix>
</trkpt>
<trkpt lat="33.810314" lon="-118.3939798">
  <ele>-0.107</ele>
  <time>2026-09-02T22:07:26Z</time>
  <course>6.05</course>
  <speed>1.7822738285684385</speed>
  <fix>3d</fix>
</trkpt>
<trkpt lat="33.810314" lon="-118.39398">
  <ele>-0.107</ele>
  <time>2026-09-02T22:07:26Z</time>
  <course>6.06</course>
  <speed>1.7822738285684385</speed>
  <fix>3d</fix>
</trkpt>
<trkpt lat="33.810314" lon="-118.3939802">
  <ele>-0.107</ele>
  <time>2026-09-02T22:07:26Z</time>
  <course>6.06</course>
  <speed>1.7822738285684385</speed>
  <fix>3d</fix>
</trkpt>
<trkpt lat="33.810314" lon="-118.3939803">
  <ele>-0.107</ele>
  <time>2026-09-02T22:07:26Z</time>
  <course>6.06</course>
  <speed>1.7822738285684385</speed>
  <fix>3d</fix>
</trkpt>
<trkpt lat="33.810314" lon="-118.3939804">
  <ele>-0.107</ele>
  <time>2026-09-02T22:07:26Z</time>
  <course>6.06</course>
  <speed>1.7822738285684385</speed>
  <fix>3d</fix>
</trkpt>
<trkpt lat="33.8103141" lon="-118.3939758">
  <ele>-0.1</ele>
  <time>2026-09-02T22:07:26Z</time>
  <course>273.99</course>
  <speed>1.82</speed>
  <fix>3d</fix>
</trkpt>
<trkpt lat="33.810314" lon="-118.3939804">
  <ele>-0.107</ele>
  <time>2026-09-02T22:07:26Z</time>
  <course>6.06</course>
  <speed>1.7822738285684385</speed>
  <fix>3d</fix>
</trkpt>
<trkpt lat="33.8103141" lon="-118.3939807">
  <ele>-0.107</ele>
  <time>2026-09-02T22:07:26Z</time>
  <course>6.07</course>
  <speed>1.7822738285684385</speed>
  <fix>3d</fix>
</trkpt>
<trkpt lat="33.8103141" lon="-118.393981">
  <ele>-0.106</ele>
  <time>2026-09-02T22:07:26Z</time>
  <course>6.07</course>
  <speed>1.7822738285684385</speed>
  <fix>3d</fix>
</trkpt>
<trkpt lat="33.8103141" lon="-118.3939812">
  <ele>-0.106</ele>
  <time>2026-09-02T22:07:26Z</time>
  <course>6.08</course>
  <speed>1.7822738285684385</speed>
  <fix>3d</fix>
</trkpt>
<trkpt lat="33.8103141" lon="-118.3939813">
  <ele>-0.106</ele>
  <time>2026-09-02T22:07:26Z</time>
  <course>6.08</course>
  <speed>1.7822738285684385</speed>
  <fix>3d</fix>
</trkpt>
<trkpt lat="33.8103141" lon="-118.3939815">
  <ele>-0.106</ele>
  <time>2026-09-02T22:07:26Z</time>
  <course>6.08</course>
  <speed>1.7822738285684385</speed>
  <fix>3d</fix>
</trkpt>
<trkpt lat="33.8103141" lon="-118.3939817">
  <ele>-0.106</ele>
  <time>2026-09-02T22:07:26Z</time>
  <course>6.08</course>
  <speed>1.7822738285684385</speed>
  <fix>3d</fix>
</trkpt>
<trkpt lat="33.8103141" lon="-118.3939819">
  <ele>-0.106</ele>
  <time>2026-09-02T22:07:26Z</time>
  <course>6.09</course>
  <speed>1.7822738285684385</speed>
  <fix>3d</fix>
</trkpt>
<trkpt lat="33.8103141" lon="-118.3939821">
  <ele>-0.106</ele>
  <time>2026-09-02T22:07:26Z</time>
  <course>6.09</course>
  <speed>1.7822738285684385</speed>
  <fix>3d</fix>
</trkpt>
<trkpt lat="33.8103141" lon="-118.3939822">
  <ele>-0.106</ele>
  <time>2026-09-02T22:07:26Z</time>
  <course>6.09</course>
  <speed>1.7822738285684385</speed>
  <fix>3d</fix>
</trkpt>
<trkpt lat="33.8103142" lon="-118.3939824">
  <ele>-0.106</ele>
  <time>2026-09-02T22:07:26Z</time>
  <course>6.1</course>
  <speed>1.7822738285684385</speed>
  <fix>3d</fix>
</trkpt>
<trkpt lat="33.8103142" lon="-118.3939824">
  <ele>-0.106</ele>
  <time>2026-09-02T22:07:26Z</time>
  <course>6.1</course>
  <speed>1.7822738285684385</speed>
  <fix>3d</fix>
</trkpt>
<trkpt lat="33.8103143" lon="-118.3939797">
  <ele>-0.1</ele>
  <time>2026-09-02T22:07:26Z</time>
  <course>274.0</course>
  <speed>1.82</speed>
  <fix>3d</fix>
</trkpt>
<trkpt lat="33.8103142" lon="-118.3939827">
  <ele>-0.106</ele>
  <time>2026-09-02T22:07:26Z</time>
  <course>6.1</course>
  <speed>1.7822738285684385</speed>
  <fix>3d</fix>
</trkpt>
<trkpt lat="33.8103142" lon="-118.3939829">
  <ele>-0.106</ele>
  <time>2026-09-02T22:07:26Z</time>
  <course>6.1</course>
  <speed>1.7822738285684385</speed>
  <fix>3d</fix>
</trkpt>
<trkpt lat="33.8103142" lon="-118.393983">
  <ele>-0.106</ele>
  <time>2026-09-02T22:07:26Z</time>
  <course>6.11</course>
  <speed>1.7822738285684385</speed>
  <fix>3d</fix>
</trkpt>
<trkpt lat="33.8103142" lon="-118.3939832">
  <ele>-0.105</ele>
  <time>2026-09-02T22:07:26Z</time>
  <course>6.11</course>
  <speed>1.7822738285684385</speed>
  <fix>3d</fix>
</trkpt>
<trkpt lat="33.8103142" lon="-118.3939833">
  <ele>-0.105</ele>
  <time>2026-09-02T22:07:26Z</time>
  <course>6.11</course>
  <speed>1.7822738285684385</speed>
  <fix>3d</fix>
</trkpt>
<trkpt lat="33.8103142" lon="-118.3939835">
  <ele>-0.105</ele>
  <time>2026-09-02T22:07:26Z</time>
  <course>6.11</course>
  <speed>1.7822738285684385</speed>
  <fix>3d</fix>
</trkpt>
<trkpt lat="33.8103142" lon="-118.3939836">
  <ele>-0.105</ele>
  <time>2026-09-02T22:07:26Z</time>
  <course>6.12</course>
  <speed>1.7822738285684385</speed>
  <fix>3d</fix>
</trkpt>
<trkpt lat="33.8103142" lon="-118.3939838">
  <ele>-0.105</ele>
  <time>2026-09-02T22:07:26Z</time>
  <course>6.12</course>
  <speed>1.7822738285684385</speed>
  <fix>3d</fix>
</trkpt>
<trkpt lat="33.8103142" lon="-118.3939839">
  <ele>-0.105</ele>
  <time>2026-09-02T22:07:26Z</time>
  <course>6.12</course>
  <speed>1.7822738285684385</speed>
  <fix>3d</fix>
</trkpt>
<trkpt lat="33.8103143" lon="-118.393984">
  <ele>-0.105</ele>
  <time>2026-09-02T22:07:26Z</time>
  <course>6.12</course>
  <speed>1.7822738285684385</speed>
  <fix>3d</fix>
</trkpt>
<trkpt lat="33.8103143" lon="-118.3939841">
  <ele>-0.105</ele>
  <time>2026-09-02T22:07:26Z</time>
  <course>6.13</course>
  <speed>1.7822738285684385</speed>
  <fix>3d</fix>
</trkpt>
<trkpt lat="33.8103143" lon="-118.3939843">
  <ele>-0.105</ele>
  <time>2026-09-02T22:07:26Z</time>
  <course>6.13</course>
  <speed>1.7822738285684385</speed>
  <fix>3d</fix>
</trkpt>
<trkpt lat="33.8103143" lon="-118.3939843">
  <ele>-0.105</ele>
  <time>2026-09-02T22:07:26Z</time>
  <course>6.13</course>
  <speed>1.7822738285684385</speed>
  <fix>3d</fix>
</trkpt>
<trkpt lat="33.8103143" lon="-118.3939797">
  <ele>-0.1</ele>
  <time>2026-09-02T22:07:26Z</time>
  <course>274.0</course>
  <speed>1.82</speed>
  <fix>3d</fix>
</trkpt>
<trkpt lat="33.8103143" lon="-118.3939844">
  <ele>-0.105</ele>
  <time>2026-09-02T22:07:26Z</time>
  <course>6.13</course>
  <speed>1.7822738285684385</speed>
  <fix>3d</fix>
</trkpt>
<trkpt lat="33.8103143" lon="-118.3939846">
  <ele>-0.105</ele>
  <time>2026-09-02T22:07:26Z</time>
  <course>6.13</course>
  <speed>1.7822738285684385</speed>
  <fix>3d</fix>
</trkpt>
<trkpt lat="33.8103143" lon="-118.3939848">
  <ele>-0.105</ele>
  <time>2026-09-02T22:07:26Z</time>
  <course>6.14</course>
  <speed>1.7822738285684385</speed>
  <fix>3d</fix>
</trkpt>
<trkpt lat="33.8103143" lon="-118.3939849">
  <ele>-0.105</ele>
  <time>2026-09-02T22:07:26Z</time>
  <course>6.14</course>
  <speed>1.7822738285684385</speed>
  <fix>3d</fix>
</trkpt>
<trkpt lat="33.8103143" lon="-118.3939851">
  <ele>-0.105</ele>
  <time>2026-09-02T22:07:26Z</time>
  <course>6.14</course>
  <speed>1.7822738285684385</speed>
  <fix>3d</fix>
</trkpt>
<trkpt lat="33.8103143" lon="-118.3939852">
  <ele>-0.104</ele>
  <time>2026-09-02T22:07:26Z</time>
  <course>6.14</course>
  <speed>1.7822738285684385</speed>
  <fix>3d</fix>
</trkpt>
<trkpt lat="33.8103143" lon="-118.3939854">
  <ele>-0.104</ele>
  <time>2026-09-02T22:07:26Z</time>
  <course>6.15</course>
  <speed>1.7822738285684385</speed>
  <fix>3d</fix>
</trkpt>
<trkpt lat="33.8103143" lon="-118.3939855">
  <ele>-0.104</ele>
  <time>2026-09-02T22:07:26Z</time>
  <course>6.15</course>
  <speed>1.7822738285684385</speed>
  <fix>3d</fix>
</trkpt>
<trkpt lat="33.8103143" lon="-118.3939857">
  <ele>-0.104</ele>
  <time>2026-09-02T22:07:26Z</time>
  <course>6.15</course>
  <speed>1.7822738285684385</speed>
  <fix>3d</fix>
</trkpt>
<trkpt lat="33.8103144" lon="-118.3939859">
  <ele>-0.104</ele>
  <time>2026-09-02T22:07:26Z</time>
  <course>6.16</course>
  <speed>1.7822738285684385</speed>
  <fix>3d</fix>
</trkpt>
<trkpt lat="33.8103144" lon="-118.393986">
  <ele>-0.104</ele>
  <time>2026-09-02T22:07:26Z</time>
  <course>6.16</course>
  <speed>1.7822738285684385</speed>
  <fix>3d</fix>
</trkpt>
<trkpt lat="33.8103144" lon="-118.3939862">
  <ele>-0.104</ele>
  <time>2026-09-02T22:07:26Z</time>
  <course>6.16</course>
  <speed>1.7822738285684385</speed>
  <fix>3d</fix>
</trkpt>
<trkpt lat="33.8103144" lon="-118.3939863">
  <ele>-0.104</ele>
  <time>2026-09-02T22:07:26Z</time>
  <course>6.16</course>
  <speed>1.7822738285684385</speed>
  <fix>3d</fix>
</trkpt>
<trkpt lat="33.8103144" lon="-118.3939837">
  <ele>-0.1</ele>
  <time>2026-09-02T22:07:26Z</time>
  <course>274.01</course>
  <speed>1.82</speed>
  <fix>3d</fix>
</trkpt>
<trkpt lat="33.8103144" lon="-118.3939863">
  <ele>-0.104</ele>
  <time>2026-09-02T22:07:26Z</time>
  <course>6.16</course>
  <speed>1.7822738285684385</speed>
  <fix>3d</fix>
</trkpt>
<trkpt lat="33.8103144" lon="-118.3939866">
  <ele>-0.104</ele>
  <time>2026-09-02T22:07:26Z</time>
  <course>6.17</course>
  <speed>1.7822738285684385</speed>
  <fix>3d</fix>
</trkpt>
<trkpt lat="33.8103144" lon="-118.3939868">
  <ele>-0.104</ele>
  <time>2026-09-02T22:07:26Z</time>
  <course>6.17</course>
  <speed>1.7822738285684385</speed>
  <fix>3d</fix>
</trkpt>
<trkpt lat="33.8103144" lon="-118.393987">
  <ele>-0.103</ele>
  <time>2026-09-02T22:07:26Z</time>
  <course>6.17</course>
  <speed>1.7822738285684385</speed>
  <fix>3d</fix>
</trkpt>
<trkpt lat="33.8103144" lon="-118.3939872">
  <ele>-0.103</ele>
  <time>2026-09-02T22:07:26Z</time>
  <course>6.18</course>
  <speed>1.7822738285684385</speed>
  <fix>3d</fix>
</trkpt>
<trkpt lat="33.8103144" lon="-118.3939873">
  <ele>-0.103</ele>
  <time>2026-09-02T22:07:26Z</time>
  <course>6.18</course>
  <speed>1.7822738285684385</speed>
  <fix>3d</fix>
</trkpt>
<trkpt lat="33.8103144" lon="-118.3939875">
  <ele>-0.103</ele>
  <time>2026-09-02T22:07:26Z</time>
  <course>6.18</course>
  <speed>1.7822738285684385</speed>
  <fix>3d</fix>
</trkpt>
<trkpt lat="33.8103144" lon="-118.3939876">
  <ele>-0.103</ele>
  <time>2026-09-02T22:07:26Z</time>
  <course>6.18</course>
  <speed>1.7822738285684385</speed>
  <fix>3d</fix>
</trkpt>
<trkpt lat="33.8103145" lon="-118.3939878">
  <ele>-0.103</ele>
  <time>2026-09-02T22:07:26Z</time>
  <course>6.19</course>
  <speed>1.7822738285684385</speed>
  <fix>3d</fix>
</trkpt>
<trkpt lat="33.8103145" lon="-118.393988">
  <ele>-0.103</ele>
  <time>2026-09-02T22:07:26Z</time>
  <course>6.19</course>
  <speed>1.7822738285684385</speed>
  <fix>3d</fix>
</trkpt>
<trkpt lat="33.8103145" lon="-118.3939881">
  <ele>-0.103</ele>
  <time>2026-09-02T22:07:26Z</time>
  <course>6.19</course>
  <speed>1.7822738285684385</speed>
  <fix>3d</fix>
</trkpt>
<trkpt lat="33.8103145" lon="-118.3939883">
  <ele>-0.103</ele>
  <time>2026-09-02T22:07:26Z</time>
  <course>6.19</course>
  <speed>1.7822738285684385</speed>
  <fix>3d</fix>
</trkpt>
<trkpt lat="33.8103145" lon="-118.3939883">
  <ele>-0.103</ele>
  <time>2026-09-02T22:07:26Z</time>
  <course>6.19</course>
  <speed>1.7822738285684385</speed>
  <fix>3d</fix>
</trkpt>
<trkpt lat="33.8103144" lon="-118.3939837">
  <ele>-0.1</ele>
  <time>2026-09-02T22:07:26Z</time>
  <course>274.01</course>
  <speed>1.82</speed>
  <fix>3d</fix>
</trkpt>
<trkpt lat="33.8103145" lon="-118.3939887">
  <ele>-0.103</ele>
  <time>2026-09-02T22:07:26Z</time>
  <course>6.2</course>
  <speed>1.7822738285684385</speed>
  <fix>3d</fix>
</trkpt>
<trkpt lat="33.8103145" lon="-118.3939889">
  <ele>-0.103</ele>
  <time>2026-09-02T22:07:26Z</time>
  <course>6.2</course>
  <speed>1.7822738285684385</speed>
  <fix>3d</fix>
</trkpt>
<trkpt lat="33.8103145" lon="-118.393989">
  <ele>-0.103</ele>
  <time>2026-09-02T22:07:26Z</time>
  <course>6.21</course>
  <speed>1.7822738285684385</speed>
  <fix>3d</fix>
</trkpt>
<trkpt lat="33.8103145" lon="-118.3939892">
  <ele>-0.104</ele>
  <time>2026-09-02T22:07:26Z</time>
  <course>6.21</course>
  <speed>1.7822738285684385</speed>
  <fix>3d</fix>
</trkpt>
<trkpt lat="33.8103145" lon="-118.3939893">
  <ele>-0.104</ele>
  <time>2026-09-02T22:07:26Z</time>
  <course>6.21</course>
  <speed>1.7822738285684385</speed>
  <fix>3d</fix>
</trkpt>
<trkpt lat="33.8103145" lon="-118.3939895">
  <ele>-0.104</ele>
  <time>2026-09-02T22:07:26Z</time>
  <course>6.21</course>
  <speed>1.7822738285684385</speed>
  <fix>3d</fix>
</trkpt>
<trkpt lat="33.8103145" lon="-118.3939896">
  <ele>-0.104</ele>
  <time>2026-09-02T22:07:26Z</time>
  <course>6.22</course>
  <speed>1.7822738285684385</speed>
  <fix>3d</fix>
</trkpt>
<trkpt lat="33.8103146" lon="-118.3939898">
  <ele>-0.104</ele>
  <time>2026-09-02T22:07:26Z</time>
  <course>6.22</course>
  <speed>1.7822738285684385</speed>
  <fix>3d</fix>
</trkpt>
<trkpt lat="33.8103146" lon="-118.39399">
  <ele>-0.104</ele>
  <time>2026-09-02T22:07:26Z</time>
  <course>6.22</course>
  <speed>1.7822738285684385</speed>
  <fix>3d</fix>
</trkpt>
<trkpt lat="33.8103146" lon="-118.3939901">
  <ele>-0.104</ele>
  <time>2026-09-02T22:07:26Z</time>
  <course>6.22</course>
  <speed>1.7822738285684385</speed>
  <fix>3d</fix>
</trkpt>
<trkpt lat="33.8103146" lon="-118.3939902">
  <ele>-0.104</ele>
  <time>2026-09-02T22:07:26Z</time>
  <course>6.23</course>
  <speed>1.7822738285684385</speed>
  <fix>3d</fix>
</trkpt>
<trkpt lat="33.8103147" lon="-118.3939876">
  <ele>-0.1</ele>
  <time>2026-09-02T22:07:26Z</time>
  <course>274.03</course>
  <speed>1.82</speed>
  <fix>3d</fix>
</trkpt>
<trkpt lat="33.8103146" lon="-118.3939903">
  <ele>-0.104</ele>
  <time>2026-09-02T22:07:26Z</time>
  <course>6.23</course>
  <speed>1.7822738285684385</speed>
  <fix>3d</fix>
</trkpt>
<trkpt lat="33.8103146" lon="-118.3939906">
  <ele>-0.104</ele>
  <time>2026-09-02T22:07:26Z</time>
  <course>6.23</course>
  <speed>1.7822738285684385</speed>
  <fix>3d</fix>
</trkpt>
<trkpt lat="33.8103146" lon="-118.3939907">
  <ele>-0.104</ele>
  <time>2026-09-02T22:07:26Z</time>
  <course>6.23</course>
  <speed>1.7822738285684385</speed>
  <fix>3d</fix>
</trkpt>
<trkpt lat="33.8103146" lon="-118.3939909">
  <ele>-0.104</ele>
  <time>2026-09-02T22:07:26Z</time>
  <course>6.24</course>
  <speed>1.7822738285684385</speed>
  <fix>3d</fix>
</trkpt>
<trkpt lat="33.8103146" lon="-118.393991">
  <ele>-0.105</ele>
  <time>2026-09-02T22:07:26Z</time>
  <course>6.24</course>
  <speed>1.7822738285684385</speed>
  <fix>3d</fix>
</trkpt>
<trkpt lat="33.8103146" lon="-118.3939912">
  <ele>-0.105</ele>
  <time>2026-09-02T22:07:26Z</time>
  <course>6.24</course>
  <speed>1.7822738285684385</speed>
  <fix>3d</fix>
</trkpt>
<trkpt lat="33.8103146" lon="-118.3939914">
  <ele>-0.105</ele>
  <time>2026-09-02T22:07:26Z</time>
  <course>6.24</course>
  <speed>1.7822738285684385</speed>
  <fix>3d</fix>
</trkpt>
<trkpt lat="33.8103147" lon="-118.3939916">
  <ele>-0.105</ele>
  <time>2026-09-02T22:07:26Z</time>
  <course>6.25</course>
  <speed>1.7822738285684385</speed>
  <fix>3d</fix>
</trkpt>
<trkpt lat="33.8103147" lon="-118.3939917">
  <ele>-0.105</ele>
  <time>2026-09-02T22:07:26Z</time>
  <course>6.25</course>
  <speed>1.7822738285684385</speed>
  <fix>3d</fix>
</trkpt>
<trkpt lat="33.8103147" lon="-118.3939918">
  <ele>-0.105</ele>
  <time>2026-09-02T22:07:26Z</time>
  <course>6.25</course>
  <speed>1.7822738285684385</speed>
  <fix>3d</fix>
</trkpt>
<trkpt lat="33.8103147" lon="-118.393992">
  <ele>-0.105</ele>
  <time>2026-09-02T22:07:26Z</time>
  <course>6.25</course>
  <speed>1.7822738285684385</speed>
  <fix>3d</fix>
</trkpt>
<trkpt lat="33.8103147" lon="-118.3939921">
  <ele>-0.105</ele>
  <time>2026-09-02T22:07:26Z</time>
  <course>6.26</course>
  <speed>1.7822738285684385</speed>
  <fix>3d</fix>
</trkpt>
<trkpt lat="33.8103147" lon="-118.3939922">
  <ele>-0.105</ele>
  <time>2026-09-02T22:07:26Z</time>
  <course>6.26</course>
  <speed>1.7822738285684385</speed>
  <fix>3d</fix>
</trkpt>
<trkpt lat="33.8103147" lon="-118.3939876">
  <ele>-0.1</ele>
  <time>2026-09-02T22:07:26Z</time>
  <course>274.03</course>
  <speed>1.82</speed>
  <fix>3d</fix>
</trkpt>
<trkpt lat="33.8103147" lon="-118.3939922">
  <ele>-0.105</ele>
  <time>2026-09-02T22:07:26Z</time>
  <course>6.26</course>
  <speed>1.7822738285684385</speed>
  <fix>3d</fix>
</trkpt>
<trkpt lat="33.8103147" lon="-118.3939925">
  <ele>-0.105</ele>
  <time>2026-09-02T22:07:26Z</time>
  <course>6.26</course>
  <speed>1.7822738285684385</speed>
  <fix>3d</fix>
</trkpt>
<trkpt lat="33.8103147" lon="-118.3939927">
  <ele>-0.105</ele>
  <time>2026-09-02T22:07:26Z</time>
  <course>6.26</course>
  <speed>1.7822738285684385</speed>
  <fix>3d</fix>
</trkpt>
<trkpt lat="33.8103147" lon="-118.3939929">
  <ele>-0.105</ele>
  <time>2026-09-02T22:07:26Z</time>
  <course>6.27</course>
  <speed>1.7822738285684385</speed>
  <fix>3d</fix>
</trkpt>
<trkpt lat="33.8103147" lon="-118.393993">
  <ele>-0.105</ele>
  <time>2026-09-02T22:07:26Z</time>
  <course>6.27</course>
  <speed>1.7822738285684385</speed>
  <fix>3d</fix>
</trkpt>
<trkpt lat="33.8103147" lon="-118.3939932">
  <ele>-0.105</ele>
  <time>2026-09-02T22:07:26Z</time>
  <course>6.27</course>
  <speed>1.7822738285684385</speed>
  <fix>3d</fix>
</trkpt>
<trkpt lat="33.8103148" lon="-118.3939933">
  <ele>-0.105</ele>
  <time>2026-09-02T22:07:26Z</time>
  <course>6.27</course>
  <speed>1.7822738285684385</speed>
  <fix>3d</fix>
</trkpt>
<trkpt lat="33.8103148" lon="-118.3939935">
  <ele>-0.105</ele>
  <time>2026-09-02T22:07:26Z</time>
  <course>6.28</course>
  <speed>1.7822738285684385</speed>
  <fix>3d</fix>
</trkpt>
<trkpt lat="33.8103148" lon="-118.3939936">
  <ele>-0.105</ele>
  <time>2026-09-02T22:07:26Z</time>
  <course>6.28</course>
  <speed>1.7822738285684385</speed>
  <fix>3d</fix>
</trkpt>
<trkpt lat="33.8103148" lon="-118.3939937">
  <ele>-0.105</ele>
  <time>2026-09-02T22:07:26Z</time>
  <course>6.28</course>
  <speed>1.7822738285684385</speed>
  <fix>3d</fix>
</trkpt>
<trkpt lat="33.8103148" lon="-118.3939939">
  <ele>-0.105</ele>
  <time>2026-09-02T22:07:26Z</time>
  <course>6.28</course>
  <speed>1.7822738285684385</speed>
  <fix>3d</fix>
</trkpt>
<trkpt lat="33.8103148" lon="-118.3939941">
  <ele>-0.105</ele>
  <time>2026-09-02T22:07:26Z</time>
  <course>6.29</course>
  <speed>1.7822738285684385</speed>
  <fix>3d</fix>
</trkpt>
<trkpt lat="33.8103148" lon="-118.3939942">
  <ele>-0.105</ele>
  <time>2026-09-02T22:07:26Z</time>
  <course>6.29</course>
  <speed>1.7822738285684385</speed>
  <fix>3d</fix>
</trkpt>
<trkpt lat="33.810315" lon="-118.3939916">
  <ele>-0.1</ele>
  <time>2026-09-02T22:07:26Z</time>
  <course>274.05</course>
  <speed>1.82</speed>
  <fix>3d</fix>
</trkpt>
<trkpt lat="33.8103148" lon="-118.3939942">
  <ele>-0.105</ele>
  <time>2026-09-02T22:07:26Z</time>
  <course>6.29</course>
  <speed>1.7822738285684385</speed>
  <fix>3d</fix>
</trkpt>
<trkpt lat="33.8103148" lon="-118.3939944">
  <ele>-0.105</ele>
  <time>2026-09-02T22:07:26Z</time>
  <course>6.29</course>
  <speed>1.7822738285684385</speed>
  <fix>3d</fix>
</trkpt>
<trkpt lat="33.8103148" lon="-118.3939946">
  <ele>-0.105</ele>
  <time>2026-09-02T22:07:26Z</time>
  <course>6.29</course>
  <speed>1.7822738285684385</speed>
  <fix>3d</fix>
</trkpt>
<trkpt lat="33.8103148" lon="-118.3939947">
  <ele>-0.105</ele>
  <time>2026-09-02T22:07:26Z</time>
  <course>6.3</course>
  <speed>1.7822738285684385</speed>
  <fix>3d</fix>
</trkpt>
<trkpt lat="33.8103148" lon="-118.3939949">
  <ele>-0.105</ele>
  <time>2026-09-02T22:07:26Z</time>
  <course>6.3</course>
  <speed>1.7822738285684385</speed>
  <fix>3d</fix>
</trkpt>
<trkpt lat="33.8103149" lon="-118.393995">
  <ele>-0.105</ele>
  <time>2026-09-02T22:07:26Z</time>
  <course>6.3</course>
  <speed>1.7822738285684385</speed>
  <fix>3d</fix>
</trkpt>
<trkpt lat="33.8103149" lon="-118.3939952">
  <ele>-0.105</ele>
  <time>2026-09-02T22:07:26Z</time>
  <course>6.3</course>
  <speed>1.7822738285684385</speed>
  <fix>3d</fix>
</trkpt>
<trkpt lat="33.8103149" lon="-118.3939953">
  <ele>-0.105</ele>
  <time>2026-09-02T22:07:26Z</time>
  <course>6.3</course>
  <speed>1.7822738285684385</speed>
  <fix>3d</fix>
</trkpt>
<trkpt lat="33.8103149" lon="-118.3939955">
  <ele>-0.105</ele>
  <time>2026-09-02T22:07:26Z</time>
  <course>6.31</course>
  <speed>1.7822738285684385</speed>
  <fix>3d</fix>
</trkpt>
<trkpt lat="33.8103149" lon="-118.3939956">
  <ele>-0.105</ele>
  <time>2026-09-02T22:07:26Z</time>
  <course>6.31</course>
  <speed>1.7822738285684385</speed>
  <fix>3d</fix>
</trkpt>
<trkpt lat="33.8103149" lon="-118.3939958">
  <ele>-0.105</ele>
  <time>2026-09-02T22:07:26Z</time>
  <course>6.31</course>
  <speed>1.7822738285684385</speed>
  <fix>3d</fix>
</trkpt>
<trkpt lat="33.8103149" lon="-118.3939959">
  <ele>-0.105</ele>
  <time>2026-09-02T22:07:26Z</time>
  <course>6.31</course>
  <speed>1.7822738285684385</speed>
  <fix>3d</fix>
</trkpt>
<trkpt lat="33.8103149" lon="-118.3939961">
  <ele>-0.105</ele>
  <time>2026-09-02T22:07:26Z</time>
  <course>6.32</course>
  <speed>1.7822738285684385</speed>
  <fix>3d</fix>
</trkpt>
<trkpt lat="33.8103149" lon="-118.3939961">
  <ele>-0.105</ele>
  <time>2026-09-02T22:07:26Z</time>
  <course>6.32</course>
  <speed>1.7822738285684385</speed>
  <fix>3d</fix>
</trkpt>
<trkpt lat="33.810315" lon="-118.3939916">
  <ele>-0.1</ele>
  <time>2026-09-02T22:07:26Z</time>
  <course>274.05</course>
  <speed>1.82</speed>
  <fix>3d</fix>
</trkpt>
<trkpt lat="33.8103149" lon="-118.3939962">
  <ele>-0.105</ele>
  <time>2026-09-02T22:07:26Z</time>
  <course>6.32</course>
  <speed>1.7822738285684385</speed>
  <fix>3d</fix>
</trkpt>
<trkpt lat="33.8103149" lon="-118.3939964">
  <ele>-0.105</ele>
  <time>2026-09-02T22:07:26Z</time>
  <course>6.32</course>
  <speed>1.7822738285684385</speed>
  <fix>3d</fix>
</trkpt>
<trkpt lat="33.8103149" lon="-118.3939966">
  <ele>-0.105</ele>
  <time>2026-09-02T22:07:26Z</time>
  <course>6.32</course>
  <speed>1.7822738285684385</speed>
  <fix>3d</fix>
</trkpt>
<trkpt lat="33.8103149" lon="-118.3939968">
  <ele>-0.105</ele>
  <time>2026-09-02T22:07:26Z</time>
  <course>6.33</course>
  <speed>1.7822738285684385</speed>
  <fix>3d</fix>
</trkpt>
<trkpt lat="33.810315" lon="-118.3939969">
  <ele>-0.105</ele>
  <time>2026-09-02T22:07:26Z</time>
  <course>6.33</course>
  <speed>1.7822738285684385</speed>
  <fix>3d</fix>
</trkpt>
<trkpt lat="33.810315" lon="-118.3939971">
  <ele>-0.105</ele>
  <time>2026-09-02T22:07:26Z</time>
  <course>6.33</course>
  <speed>1.7822738285684385</speed>
  <fix>3d</fix>
</trkpt>
<trkpt lat="33.810315" lon="-118.3939972">
  <ele>-0.105</ele>
  <time>2026-09-02T22:07:26Z</time>
  <course>6.33</course>
  <speed>1.7822738285684385</speed>
  <fix>3d</fix>
</trkpt>
<trkpt lat="33.810315" lon="-118.3939974">
  <ele>-0.105</ele>
  <time>2026-09-02T22:07:26Z</time>
  <course>6.34</course>
  <speed>1.7822738285684385</speed>
  <fix>3d</fix>
</trkpt>
<trkpt lat="33.810315" lon="-118.3939975">
  <ele>-0.105</ele>
  <time>2026-09-02T22:07:26Z</time>
  <course>6.34</course>
  <speed>1.7822738285684385</speed>
  <fix>3d</fix>
</trkpt>
<trkpt lat="33.810315" lon="-118.3939977">
  <ele>-0.105</ele>
  <time>2026-09-02T22:07:26Z</time>
  <course>6.34</course>
  <speed>1.7822738285684385</speed>
  <fix>3d</fix>
</trkpt>
<trkpt lat="33.810315" lon="-118.3939979">
  <ele>-0.106</ele>
  <time>2026-09-02T22:07:26Z</time>
  <course>6.34</course>
  <speed>1.7822738285684385</speed>
  <fix>3d</fix>
</trkpt>
<trkpt lat="33.810315" lon="-118.393998">
  <ele>-0.106</ele>
  <time>2026-09-02T22:07:26Z</time>
  <course>6.34</course>
  <speed>1.7822738285684385</speed>
  <fix>3d</fix>
</trkpt>
<trkpt lat="33.810315" lon="-118.3939981">
  <ele>-0.106</ele>
  <time>2026-09-02T22:07:26Z</time>
  <course>6.35</course>
  <speed>1.7822738285684385</speed>
  <fix>3d</fix>
</trkpt>
<trkpt lat="33.8103152" lon="-118.3939955">
  <ele>-0.1</ele>
  <time>2026-09-02T22:07:26Z</time>
  <course>274.07</course>
  <speed>1.82</speed>
  <fix>3d</fix>
</trkpt>
<trkpt lat="33.810315" lon="-118.3939981">
  <ele>-0.106</ele>
  <time>2026-09-02T22:07:26Z</time>
  <course>6.35</course>
  <speed>1.7822738285684385</speed>
  <fix>3d</fix>
</trkpt>
<trkpt lat="33.810315" lon="-118.3939984">
  <ele>-0.106</ele>
  <time>2026-09-02T22:07:26Z</time>
  <course>6.35</course>
  <speed>1.7822738285684385</speed>
  <fix>3d</fix>
</trkpt>
<trkpt lat="33.8103151" lon="-118.3939986">
  <ele>-0.106</ele>
  <time>2026-09-02T22:07:26Z</time>
  <course>6.35</course>
  <speed>1.7822738285684385</speed>
  <fix>3d</fix>
</trkpt>
<trkpt lat="33.8103151" lon="-118.3939987">
  <ele>-0.106</ele>
  <time>2026-09-02T22:07:26Z</time>
  <course>6.35</course>
  <speed>1.7822738285684385</speed>
  <fix>3d</fix>
</trkpt>
<trkpt lat="33.8103151" lon="-118.3939989">
  <ele>-0.106</ele>
  <time>2026-09-02T22:07:26Z</time>
  <course>6.36</course>
  <speed>1.7822738285684385</speed>
  <fix>3d</fix>
</trkpt>
<trkpt lat="33.8103151" lon="-118.393999">
  <ele>-0.107</ele>
  <time>2026-09-02T22:07:26Z</time>
  <course>6.36</course>
  <speed>1.7822738285684385</speed>
  <fix>3d</fix>
</trkpt>
<trkpt lat="33.8103151" lon="-118.3939992">
  <ele>-0.107</ele>
  <time>2026-09-02T22:07:26Z</time>
  <course>6.36</course>
  <speed>1.7822738285684385</speed>
  <fix>3d</fix>
</trkpt>
<trkpt lat="33.8103151" lon="-118.3939994">
  <ele>-0.107</ele>
  <time>2026-09-02T22:07:26Z</time>
  <course>6.36</course>
  <speed>1.7822738285684385</speed>
  <fix>3d</fix>
</trkpt>
<trkpt lat="33.8103151" lon="-118.3939995">
  <ele>-0.107</ele>
  <time>2026-09-02T22:07:26Z</time>
  <course>6.37</course>
  <speed>1.7822738285684385</speed>
  <fix>3d</fix>
</trkpt>
<trkpt lat="33.8103151" lon="-118.3939997">
  <ele>-0.107</ele>
  <time>2026-09-02T22:07:26Z</time>
  <course>6.37</course>
  <speed>1.7822738285684385</speed>
  <fix>3d</fix>
</trkpt>
<trkpt lat="33.8103151" lon="-118.3939998">
  <ele>-0.108</ele>
  <time>2026-09-02T22:07:26Z</time>
  <course>6.37</course>
  <speed>1.7822738285684385</speed>
  <fix>3d</fix>
</trkpt>
<trkpt lat="33.8103151" lon="-118.394">
  <ele>-0.108</ele>
  <time>2026-09-02T22:07:26Z</time>
  <course>6.37</course>
  <speed>1.7822738285684385</speed>
  <fix>3d</fix>
</trkpt>
<trkpt lat="33.8103151" lon="-118.3940001">
  <ele>-0.108</ele>
  <time>2026-09-02T22:07:26Z</time>
  <course>6.37</course>
  <speed>1.7822738285684385</speed>
  <fix>3d</fix>
</trkpt>
<trkpt lat="33.8103152" lon="-118.3939955">
  <ele>-0.1</ele>
  <time>2026-09-02T22:07:26Z</time>
  <course>274.07</course>
  <speed>1.82</speed>
  <fix>3d</fix>
</trkpt>
<trkpt lat="33.8103151" lon="-118.3940001">
  <ele>-0.108</ele>
  <time>2026-09-02T22:07:26Z</time>
  <course>6.37</course>
  <speed>1.7822738285684385</speed>
  <fix>3d</fix>
</trkpt>
<trkpt lat="33.8103152" lon="-118.3940004">
  <ele>-0.108</ele>
  <time>2026-09-02T22:07:26Z</time>
  <course>6.38</course>
  <speed>1.7822738285684385</speed>
  <fix>3d</fix>
</trkpt>
<trkpt lat="33.8103152" lon="-118.3940006">
  <ele>-0.108</ele>
  <time>2026-09-02T22:07:26Z</time>
  <course>6.38</course>
  <speed>1.7822738285684385</speed>
  <fix>3d</fix>
</trkpt>
<trkpt lat="33.8103152" lon="-118.3940007">
  <ele>-0.108</ele>
  <time>2026-09-02T22:07:26Z</time>
  <course>6.38</course>
  <speed>1.7822738285684385</speed>
  <fix>3d</fix>
</trkpt>
<trkpt lat="33.8103152" lon="-118.3940009">
  <ele>-0.109</ele>
  <time>2026-09-02T22:07:26Z</time>
  <course>6.39</course>
  <speed>1.7822738285684385</speed>
  <fix>3d</fix>
</trkpt>
<trkpt lat="33.8103152" lon="-118.3940011">
  <ele>-0.109</ele>
  <time>2026-09-02T22:07:26Z</time>
  <course>6.39</course>
  <speed>1.7822738285684385</speed>
  <fix>3d</fix>
</trkpt>
<trkpt lat="33.8103152" lon="-118.3940013">
  <ele>-0.109</ele>
  <time>2026-09-02T22:07:26Z</time>
  <course>6.39</course>
  <speed>1.7822738285684385</speed>
  <fix>3d</fix>
</trkpt>
<trkpt lat="33.8103152" lon="-118.3940014">
  <ele>-0.109</ele>
  <time>2026-09-02T22:07:26Z</time>
  <course>6.39</course>
  <speed>1.7822738285684385</speed>
  <fix>3d</fix>
</trkpt>
<trkpt lat="33.8103152" lon="-118.3940016">
  <ele>-0.11</ele>
  <time>2026-09-02T22:07:26Z</time>
  <course>6.4</course>
  <speed>1.7822738285684385</speed>
  <fix>3d</fix>
</trkpt>
<trkpt lat="33.8103152" lon="-118.3940017">
  <ele>-0.11</ele>
  <time>2026-09-02T22:07:26Z</time>
  <course>6.4</course>
  <speed>1.7822738285684385</speed>
  <fix>3d</fix>
</trkpt>
<trkpt lat="33.8103152" lon="-118.3940019">
  <ele>-0.11</ele>
  <time>2026-09-02T22:07:26Z</time>
  <course>6.4</course>
  <speed>1.7822738285684385</speed>
  <fix>3d</fix>
</trkpt>
<trkpt lat="33.8103153" lon="-118.394002">
  <ele>-0.11</ele>
  <time>2026-09-02T22:07:26Z</time>
  <course>6.4</course>
  <speed>1.7822738285684385</speed>
  <fix>3d</fix>
</trkpt>
<trkpt lat="33.8103153" lon="-118.394002">
  <ele>-0.11</ele>
  <time>2026-09-02T22:07:26Z</time>
  <course>6.4</course>
  <speed>1.7822738285684385</speed>
  <fix>3d</fix>
</trkpt>
<trkpt lat="33.8103154" lon="-118.3939994">
  <ele>-0.1</ele>
  <time>2026-09-02T22:07:26Z</time>
  <course>274.09</course>
  <speed>1.82</speed>
  <fix>3d</fix>
</trkpt>
<trkpt lat="33.8103153" lon="-118.3940024">
  <ele>-0.11</ele>
  <time>2026-09-02T22:07:26Z</time>
  <course>6.41</course>
  <speed>1.7822738285684385</speed>
  <fix>3d</fix>
</trkpt>
<trkpt lat="33.8103153" lon="-118.3940026">
  <ele>-0.11</ele>
  <time>2026-09-02T22:07:26Z</time>
  <course>6.41</course>
  <speed>1.7822738285684385</speed>
  <fix>3d</fix>
</trkpt>
<trkpt lat="33.8103153" lon="-118.3940028">
  <ele>-0.111</ele>
  <time>2026-09-02T22:07:26Z</time>
  <course>6.41</course>
  <speed>1.7822738285684385</speed>
  <fix>3d</fix>
</trkpt>
<trkpt lat="33.8103153" lon="-118.3940029">
  <ele>-0.111</ele>
  <time>2026-09-02T22:07:26Z</time>
  <course>6.42</course>
  <speed>1.7822738285684385</speed>
  <fix>3d</fix>
</trkpt>
<trkpt lat="33.8103153" lon="-118.3940031">
  <ele>-0.111</ele>
  <time>2026-09-02T22:07:26Z</time>
  <course>6.42</course>
  <speed>1.7822738285684385</speed>
  <fix>3d</fix>
</trkpt>
<trkpt lat="33.8103153" lon="-118.3940033">
  <ele>-0.111</ele>
  <time>2026-09-02T22:07:26Z</time>
  <course>6.42</course>
  <speed>1.7822738285684385</speed>
  <fix>3d</fix>
</trkpt>
<trkpt lat="33.8103153" lon="-118.3940034">
  <ele>-0.111</ele>
  <time>2026-09-02T22:07:26Z</time>
  <course>6.42</course>
  <speed>1.7822738285684385</speed>
  <fix>3d</fix>
</trkpt>
<trkpt lat="33.8103153" lon="-118.3940036">
  <ele>-0.111</ele>
  <time>2026-09-02T22:07:26Z</time>
  <course>6.42</course>
  <speed>1.7822738285684385</speed>
  <fix>3d</fix>
</trkpt>
<trkpt lat="33.8103153" lon="-118.3940037">
  <ele>-0.111</ele>
  <time>2026-09-02T22:07:26Z</time>
  <course>6.43</course>
  <speed>1.7822738285684385</speed>
  <fix>3d</fix>
</trkpt>
<trkpt lat="33.8103154" lon="-118.3940039">
  <ele>-0.111</ele>
  <time>2026-09-02T22:07:26Z</time>
  <course>6.43</course>
  <speed>1.7822738285684385</speed>
  <fix>3d</fix>
</trkpt>
<trkpt lat="33.8103154" lon="-118.394004">
  <ele>-0.111</ele>
  <time>2026-09-02T22:07:26Z</time>
  <course>6.43</course>
  <speed>1.7822738285684385</speed>
  <fix>3d</fix>
</trkpt>
<trkpt lat="33.8103154" lon="-118.394004">
  <ele>-0.111</ele>
  <time>2026-09-02T22:07:26Z</time>
  <course>6.43</course>
  <speed>1.7822738285684385</speed>
  <fix>3d</fix>
</trkpt>
<trkpt lat="33.8103154" lon="-118.3939994">
  <ele>-0.1</ele>
  <time>2026-09-02T22:07:26Z</time>
  <course>274.09</course>
  <speed>1.82</speed>
  <fix>3d</fix>
</trkpt>
<trkpt lat="33.8103154" lon="-118.3940044">
  <ele>-0.111</ele>
  <time>2026-09-02T22:07:26Z</time>
  <course>6.44</course>
  <speed>1.7822738285684385</speed>
  <fix>3d</fix>
</trkpt>
<trkpt lat="33.8103154" lon="-118.3940046">
  <ele>-0.111</ele>
  <time>2026-09-02T22:07:26Z</time>
  <course>6.44</course>
  <speed>1.7822738285684385</speed>
  <fix>3d</fix>
</trkpt>
<trkpt lat="33.8103154" lon="-118.3940048">
  <ele>-0.111</ele>
  <time>2026-09-02T22:07:26Z</time>
  <course>6.44</course>
  <speed>1.7822738285684385</speed>
  <fix>3d</fix>
</trkpt>
<trkpt lat="33.8103154" lon="-118.3940049">
  <ele>-0.112</ele>
  <time>2026-09-02T22:07:26Z</time>
  <course>6.44</course>
  <speed>1.7822738285684385</speed>
  <fix>3d</fix>
</trkpt>
<trkpt lat="33.8103154" lon="-118.3940051">
  <ele>-0.112</ele>
  <time>2026-09-02T22:07:26Z</time>
  <course>6.45</course>
  <speed>1.7822738285684385</speed>
  <fix>3d</fix>
</trkpt>
<trkpt lat="33.8103154" lon="-118.3940052">
  <ele>-0.112</ele>
  <time>2026-09-02T22:07:26Z</time>
  <course>6.45</course>
  <speed>1.7822738285684385</speed>
  <fix>3d</fix>
</trkpt>
<trkpt lat="33.8103154" lon="-118.3940054">
  <ele>-0.112</ele>
  <time>2026-09-02T22:07:26Z</time>
  <course>6.45</course>
  <speed>1.7822738285684385</speed>
  <fix>3d</fix>
</trkpt>
<trkpt lat="33.8103155" lon="-118.3940056">
  <ele>-0.112</ele>
  <time>2026-09-02T22:07:26Z</time>
  <course>6.45</course>
  <speed>1.7822738285684385</speed>
  <fix>3d</fix>
</trkpt>
<trkpt lat="33.8103155" lon="-118.3940058">
  <ele>-0.112</ele>
  <time>2026-09-02T22:07:26Z</time>
  <course>6.46</course>
  <speed>1.7822738285684385</speed>
  <fix>3d</fix>
</trkpt>
<trkpt lat="33.8103155" lon="-118.394006">
  <ele>-0.112</ele>
  <time>2026-09-02T22:07:26Z</time>
  <course>6.46</course>
  <speed>1.7822738285684385</speed>
  <fix>3d</fix>
</trkpt>
<trkpt lat="33.8103155" lon="-118.394006">
  <ele>-0.112</ele>
  <time>2026-09-02T22:07:26Z</time>
  <course>6.46</course>
  <speed>1.7822738285684385</speed>
  <fix>3d</fix>
</trkpt>
<trkpt lat="33.8103156" lon="-118.3940034">
  <ele>-0.1</ele>
  <time>2026-09-02T22:07:26Z</time>
  <course>274.11</course>
  <speed>1.82</speed>
  <fix>3d</fix>
</trkpt>
<trkpt lat="33.8103155" lon="-118.3940063">
  <ele>-0.112</ele>
  <time>2026-09-02T22:07:26Z</time>
  <course>6.46</course>
  <speed>1.7822738285684385</speed>
  <fix>3d</fix>
</trkpt>
<trkpt lat="33.8103155" lon="-118.3940065">
  <ele>-0.112</ele>
  <time>2026-09-02T22:07:26Z</time>
  <course>6.47</course>
  <speed>1.7822738285684385</speed>
  <fix>3d</fix>
</trkpt>
<trkpt lat="33.8103155" lon="-118.3940067">
  <ele>-0.113</ele>
  <time>2026-09-02T22:07:26Z</time>
  <course>6.47</course>
  <speed>1.7822738285684385</speed>
  <fix>3d</fix>
</trkpt>
<trkpt lat="33.8103155" lon="-118.3940069">
  <ele>-0.113</ele>
  <time>2026-09-02T22:07:26Z</time>
  <course>6.47</course>
  <speed>1.7822738285684385</speed>
  <fix>3d</fix>
</trkpt>
<trkpt lat="33.8103155" lon="-118.3940071">
  <ele>-0.113</ele>
  <time>2026-09-02T22:07:26Z</time>
  <course>6.47</course>
  <speed>1.7822738285684385</speed>
  <fix>3d</fix>
</trkpt>
<trkpt lat="33.8103155" lon="-118.3940072">
  <ele>-0.113</ele>
  <time>2026-09-02T22:07:26Z</time>
  <course>6.48</course>
  <speed>1.7822738285684385</speed>
  <fix>3d</fix>
</trkpt>
<trkpt lat="33.8103156" lon="-118.3940074">
  <ele>-0.113</ele>
  <time>2026-09-02T22:07:26Z</time>
  <course>6.48</course>
  <speed>1.7822738285684385</speed>
  <fix>3d</fix>
</trkpt>
<trkpt lat="33.8103156" lon="-118.3940076">
  <ele>-0.113</ele>
  <time>2026-09-02T22:07:26Z</time>
  <course>6.48</course>
  <speed>1.7822738285684385</speed>
  <fix>3d</fix>
</trkpt>
<trkpt lat="33.8103156" lon="-118.3940078">
  <ele>-0.113</ele>
  <time>2026-09-02T22:07:26Z</time>
  <course>6.48</course>
  <speed>1.7822738285684385</speed>
  <fix>3d</fix>
</trkpt>
<trkpt lat="33.8103156" lon="-118.394008">
  <ele>-0.113</ele>
  <time>2026-09-02T22:07:26Z</time>
  <course>6.49</course>
  <speed>1.7822738285684385</speed>
  <fix>3d</fix>
</trkpt>
<trkpt lat="33.8103156" lon="-118.394008">
  <ele>-0.113</ele>
  <time>2026-09-02T22:07:26Z</time>
  <course>6.49</course>
  <speed>1.7822738285684385</speed>
  <fix>3d</fix>
</trkpt>
<trkpt lat="33.8103156" lon="-118.3940034">
  <ele>-0.1</ele>
  <time>2026-09-02T22:07:26Z</time>
  <course>274.11</course>
  <speed>1.82</speed>
  <fix>3d</fix>
</trkpt>
<trkpt lat="33.8103156" lon="-118.394008">
  <ele>-0.113</ele>
  <time>2026-09-02T22:07:26Z</time>
  <course>6.49</course>
  <speed>1.7822738285684385</speed>
  <fix>3d</fix>
</trkpt>
<trkpt lat="33.8103156" lon="-118.3940082">
  <ele>-0.113</ele>
  <time>2026-09-02T22:07:26Z</time>
  <course>6.49</course>
  <speed>1.7822738285684385</speed>
  <fix>3d</fix>
</trkpt>
<trkpt lat="33.8103156" lon="-118.3940084">
  <ele>-0.113</ele>
  <time>2026-09-02T22:07:26Z</time>
  <course>6.49</course>
  <speed>1.7822738285684385</speed>
  <fix>3d</fix>
</trkpt>
<trkpt lat="33.8103156" lon="-118.3940086">
  <ele>-0.114</ele>
  <time>2026-09-02T22:07:26Z</time>
  <course>6.49</course>
  <speed>1.7822738285684385</speed>
  <fix>3d</fix>
</trkpt>
<trkpt lat="33.8103156" lon="-118.3940088">
  <ele>-0.114</ele>
  <time>2026-09-02T22:07:26Z</time>
  <course>6.5</course>
  <speed>1.7822738285684385</speed>
  <fix>3d</fix>
</trkpt>
<trkpt lat="33.8103156" lon="-118.3940089">
  <ele>-0.114</ele>
  <time>2026-09-02T22:07:26Z</time>
  <course>6.5</course>
  <speed>1.7822738285684385</speed>
  <fix>3d</fix>
</trkpt>
<trkpt lat="33.8103157" lon="-118.3940091">
  <ele>-0.113</ele>
  <time>2026-09-02T22:07:26Z</time>
  <course>6.5</course>
  <speed>1.7822738285684385</speed>
  <fix>3d</fix>
</trkpt>
<trkpt lat="33.8103157" lon="-118.3940094">
  <ele>-0.113</ele>
  <time>2026-09-02T22:07:26Z</time>
  <course>6.51</course>
  <speed>1.7822738285684385</speed>
  <fix>3d</fix>
</trkpt>
<trkpt lat="33.8103157" lon="-118.3940096">
  <ele>-0.113</ele>
  <time>2026-09-02T22:07:26Z</time>
  <course>6.51</course>
  <speed>1.7822738285684385</speed>
  <fix>3d</fix>
</trkpt>
<trkpt lat="33.8103157" lon="-118.3940098">
  <ele>-0.113</ele>
  <time>2026-09-02T22:07:26Z</time>
  <course>6.51</course>
  <speed>1.7822738285684385</speed>
  <fix>3d</fix>
</trkpt>
<trkpt lat="33.8103157" lon="-118.3940099">
  <ele>-0.113</ele>
  <time>2026-09-02T22:07:26Z</time>
  <course>6.51</course>
  <speed>1.7822738285684385</speed>
  <fix>3d</fix>
</trkpt>
<trkpt lat="33.8103159" lon="-118.3940073">
  <ele>-0.1</ele>
  <time>2026-09-02T22:07:26Z</time>
  <course>274.14</course>
  <speed>1.82</speed>
  <fix>3d</fix>
</trkpt>
<trkpt lat="33.8103157" lon="-118.39401">
  <ele>-0.113</ele>
  <time>2026-09-02T22:07:26Z</time>
  <course>6.51</course>
  <speed>1.7822738285684385</speed>
  <fix>3d</fix>
</trkpt>
<trkpt lat="33.8103157" lon="-118.3940103">
  <ele>-0.113</ele>
  <time>2026-09-02T22:07:26Z</time>
  <course>6.52</course>
  <speed>1.7822738285684385</speed>
  <fix>3d</fix>
</trkpt>
<trkpt lat="33.8103157" lon="-118.3940104">
  <ele>-0.113</ele>
  <time>2026-09-02T22:07:26Z</time>
  <course>6.52</course>
  <speed>1.7822738285684385</speed>
  <fix>3d</fix>
</trkpt>
<trkpt lat="33.8103157" lon="-118.3940106">
  <ele>-0.113</ele>
  <time>2026-09-02T22:07:26Z</time>
  <course>6.52</course>
  <speed>1.7922611416866685</speed>
  <fix>3d</fix>
</trkpt>
<trkpt lat="33.8103158" lon="-118.3940108">
  <ele>-0.113</ele>
  <time>2026-09-02T22:07:26Z</time>
  <course>6.52</course>
  <speed>1.7822738285684385</speed>
  <fix>3d</fix>
</trkpt>
<trkpt lat="33.8103158" lon="-118.3940109">
  <ele>-0.113</ele>
  <time>2026-09-02T22:07:26Z</time>
  <course>6.53</course>
  <speed>1.7922611416866685</speed>
  <fix>3d</fix>
</trkpt>
<trkpt lat="33.8103158" lon="-118.3940111">
  <ele>-0.113</ele>
  <time>2026-09-02T22:07:26Z</time>
  <course>6.53</course>
  <speed>1.7922611416866685</speed>
  <fix>3d</fix>
</trkpt>
<trkpt lat="33.8103158" lon="-118.3940112">
  <ele>-0.113</ele>
  <time>2026-09-02T22:07:26Z</time>
  <course>6.53</course>
  <speed>1.7922611416866685</speed>
  <fix>3d</fix>
</trkpt>
<trkpt lat="33.8103158" lon="-118.3940114">
  <ele>-0.113</ele>
  <time>2026-09-02T22:07:26Z</time>
  <course>6.53</course>
  <speed>1.7922611416866685</speed>
  <fix>3d</fix>
</trkpt>
<trkpt lat="33.8103158" lon="-118.3940115">
  <ele>-0.113</ele>
  <time>2026-09-02T22:07:26Z</time>
  <course>6.53</course>
  <speed>1.7922611416866685</speed>
  <fix>3d</fix>
</trkpt>
<trkpt lat="33.8103158" lon="-118.3940116">
  <ele>-0.113</ele>
  <time>2026-09-02T22:07:26Z</time>
  <course>6.53</course>
  <speed>1.7922611416866685</speed>
  <fix>3d</fix>
</trkpt>
<trkpt lat="33.8103158" lon="-118.3940118">
  <ele>-0.113</ele>
  <time>2026-09-02T22:07:26Z</time>
  <course>6.54</course>
  <speed>1.7922611416866685</speed>
  <fix>3d</fix>
</trkpt>
<trkpt lat="33.8103158" lon="-118.3940119">
  <ele>-0.113</ele>
  <time>2026-09-02T22:07:26Z</time>
  <course>6.54</course>
  <speed>1.7922611416866685</speed>
  <fix>3d</fix>
</trkpt>
<trkpt lat="33.8103159" lon="-118.3940073">
  <ele>-0.1</ele>
  <time>2026-09-02T22:07:26Z</time>
  <course>274.14</course>
  <speed>1.82</speed>
  <fix>3d</fix>
</trkpt>
<trkpt lat="33.8103158" lon="-118.3940119">
  <ele>-0.113</ele>
  <time>2026-09-02T22:07:26Z</time>
  <course>6.54</course>
  <speed>1.7922611416866685</speed>
  <fix>3d</fix>
</trkpt>
<trkpt lat="33.8103158" lon="-118.3940121">
  <ele>-0.113</ele>
  <time>2026-09-02T22:07:26Z</time>
  <course>6.54</course>
  <speed>1.7922611416866685</speed>
  <fix>3d</fix>
</trkpt>
<trkpt lat="33.8103158" lon="-118.3940123">
  <ele>-0.113</ele>
  <time>2026-09-02T22:07:26Z</time>
  <course>6.54</course>
  <speed>1.7922611416866685</speed>
  <fix>3d</fix>
</trkpt>
<trkpt lat="33.8103158" lon="-118.3940125">
  <ele>-0.113</ele>
  <time>2026-09-02T22:07:26Z</time>
  <course>6.55</course>
  <speed>1.7822738285684385</speed>
  <fix>3d</fix>
</trkpt>
<trkpt lat="33.8103159" lon="-118.3940126">
  <ele>-0.113</ele>
  <time>2026-09-02T22:07:26Z</time>
  <course>6.55</course>
  <speed>1.7922611416866685</speed>
  <fix>3d</fix>
</trkpt>
<trkpt lat="33.8103159" lon="-118.3940128">
  <ele>-0.113</ele>
  <time>2026-09-02T22:07:26Z</time>
  <course>6.55</course>
  <speed>1.7922611416866685</speed>
  <fix>3d</fix>
</trkpt>
<trkpt lat="33.8103159" lon="-118.394013">
  <ele>-0.113</ele>
  <time>2026-09-02T22:07:26Z</time>
  <course>6.55</course>
  <speed>1.7922611416866685</speed>
  <fix>3d</fix>
</trkpt>
<trkpt lat="33.8103159" lon="-118.3940132">
  <ele>-0.113</ele>
  <time>2026-09-02T22:07:26Z</time>
  <course>6.56</course>
  <speed>1.7922611416866685</speed>
  <fix>3d</fix>
</trkpt>
<trkpt lat="33.8103159" lon="-118.3940134">
  <ele>-0.113</ele>
  <time>2026-09-02T22:07:26Z</time>
  <course>6.56</course>
  <speed>1.7922611416866685</speed>
  <fix>3d</fix>
</trkpt>
<trkpt lat="33.8103159" lon="-118.3940136">
  <ele>-0.113</ele>
  <time>2026-09-02T22:07:26Z</time>
  <course>6.56</course>
  <speed>1.7922611416866685</speed>
  <fix>3d</fix>
</trkpt>
<trkpt lat="33.8103159" lon="-118.3940137">
  <ele>-0.113</ele>
  <time>2026-09-02T22:07:26Z</time>
  <course>6.56</course>
  <speed>1.7922611416866685</speed>
  <fix>3d</fix>
</trkpt>
<trkpt lat="33.8103159" lon="-118.3940139">
  <ele>-0.113</ele>
  <time>2026-09-02T22:07:26Z</time>
  <course>6.56</course>
  <speed>1.7922611416866685</speed>
  <fix>3d</fix>
</trkpt>
<trkpt lat="33.8103159" lon="-118.3940139">
  <ele>-0.113</ele>
  <time>2026-09-02T22:07:26Z</time>
  <course>6.56</course>
  <speed>1.7922611416866685</speed>
  <fix>3d</fix>
</trkpt>
<trkpt lat="33.8103161" lon="-118.3940112">
  <ele>-0.1</ele>
  <time>2026-09-02T22:07:26Z</time>
  <course>274.17</course>
  <speed>1.82</speed>
  <fix>3d</fix>
</trkpt>
<trkpt lat="33.810316" lon="-118.3940143">
  <ele>-0.112</ele>
  <time>2026-09-02T22:07:26Z</time>
  <course>6.57</course>
  <speed>1.7922611416866685</speed>
  <fix>3d</fix>
</trkpt>
<trkpt lat="33.810316" lon="-118.3940145">
  <ele>-0.112</ele>
  <time>2026-09-02T22:07:26Z</time>
  <course>6.57</course>
  <speed>1.7922611416866685</speed>
  <fix>3d</fix>
</trkpt>
<trkpt lat="33.810316" lon="-118.3940147">
  <ele>-0.112</ele>
  <time>2026-09-02T22:07:26Z</time>
  <course>6.57</course>
  <speed>1.7922611416866685</speed>
  <fix>3d</fix>
</trkpt>
<trkpt lat="33.810316" lon="-118.3940148">
  <ele>-0.112</ele>
  <time>2026-09-02T22:07:26Z</time>
  <course>6.58</course>
  <speed>1.7922611416866685</speed>
  <fix>3d</fix>
</trkpt>
<trkpt lat="33.810316" lon="-118.394015">
  <ele>-0.112</ele>
  <time>2026-09-02T22:07:26Z</time>
  <course>6.58</course>
  <speed>1.7922611416866685</speed>
  <fix>3d</fix>
</trkpt>
<trkpt lat="33.810316" lon="-118.3940151">
  <ele>-0.112</ele>
  <time>2026-09-02T22:07:26Z</time>
  <course>6.58</course>
  <speed>1.7922611416866685</speed>
  <fix>3d</fix>
</trkpt>
<trkpt lat="33.810316" lon="-118.3940153">
  <ele>-0.112</ele>
  <time>2026-09-02T22:07:26Z</time>
  <course>6.58</course>
  <speed>1.7922611416866685</speed>
  <fix>3d</fix>
</trkpt>
<trkpt lat="33.810316" lon="-118.3940154">
  <ele>-0.112</ele>
  <time>2026-09-02T22:07:26Z</time>
  <course>6.58</course>
  <speed>1.7922611416866685</speed>
  <fix>3d</fix>
</trkpt>
<trkpt lat="33.810316" lon="-118.3940156">
  <ele>-0.112</ele>
  <time>2026-09-02T22:07:26Z</time>
  <course>6.59</course>
  <speed>1.7922611416866685</speed>
  <fix>3d</fix>
</trkpt>
<trkpt lat="33.810316" lon="-118.3940157">
  <ele>-0.112</ele>
  <time>2026-09-02T22:07:26Z</time>
  <course>6.59</course>
  <speed>1.7922611416866685</speed>
  <fix>3d</fix>
</trkpt>
<trkpt lat="33.810316" lon="-118.3940158">
  <ele>-0.112</ele>
  <time>2026-09-02T22:07:26Z</time>
  <course>6.59</course>
  <speed>1.7922611416866685</speed>
  <fix>3d</fix>
</trkpt>
<trkpt lat="33.8103161" lon="-118.3940112">
  <ele>-0.1</ele>
  <time>2026-09-02T22:07:26Z</time>
  <course>274.17</course>
  <speed>1.82</speed>
  <fix>3d</fix>
</trkpt>
<trkpt lat="33.8103161" lon="-118.3940159">
  <ele>-0.112</ele>
  <time>2026-09-02T22:07:26Z</time>
  <course>6.59</course>
  <speed>1.7922611416866685</speed>
  <fix>3d</fix>
</trkpt>
<trkpt lat="33.8103161" lon="-118.3940162">
  <ele>-0.112</ele>
  <time>2026-09-02T22:07:26Z</time>
  <course>6.59</course>
  <speed>1.7922611416866685</speed>
  <fix>3d</fix>
</trkpt>
<trkpt lat="33.8103161" lon="-118.3940163">
  <ele>-0.112</ele>
  <time>2026-09-02T22:07:26Z</time>
  <course>6.6</course>
  <speed>1.7922611416866685</speed>
  <fix>3d</fix>
</trkpt>
<trkpt lat="33.8103161" lon="-118.3940165">
  <ele>-0.112</ele>
  <time>2026-09-02T22:07:26Z</time>
  <course>6.6</course>
  <speed>1.7922611416866685</speed>
  <fix>3d</fix>
</trkpt>
<trkpt lat="33.8103161" lon="-118.3940166">
  <ele>-0.112</ele>
  <time>2026-09-02T22:07:26Z</time>
  <course>6.6</course>
  <speed>1.7922611416866685</speed>
  <fix>3d</fix>
</trkpt>
<trkpt lat="33.8103161" lon="-118.3940168">
  <ele>-0.112</ele>
  <time>2026-09-02T22:07:26Z</time>
  <course>6.6</course>
  <speed>1.7922611416866685</speed>
  <fix>3d</fix>
</trkpt>
<trkpt lat="33.8103161" lon="-118.3940169">
  <ele>-0.112</ele>
  <time>2026-09-02T22:07:26Z</time>
  <course>6.6</course>
  <speed>1.7922611416866685</speed>
  <fix>3d</fix>
</trkpt>
<trkpt lat="33.8103161" lon="-118.3940171">
  <ele>-0.112</ele>
  <time>2026-09-02T22:07:26Z</time>
  <course>6.61</course>
  <speed>1.7922611416866685</speed>
  <fix>3d</fix>
</trkpt>
<trkpt lat="33.8103161" lon="-118.3940172">
  <ele>-0.112</ele>
  <time>2026-09-02T22:07:26Z</time>
  <course>6.61</course>
  <speed>1.7922611416866685</speed>
  <fix>3d</fix>
</trkpt>
<trkpt lat="33.8103161" lon="-118.3940174">
  <ele>-0.112</ele>
  <time>2026-09-02T22:07:26Z</time>
  <course>6.61</course>
  <speed>1.7922611416866685</speed>
  <fix>3d</fix>
</trkpt>
<trkpt lat="33.8103162" lon="-118.3940176">
  <ele>-0.112</ele>
  <time>2026-09-02T22:07:26Z</time>
  <course>6.61</course>
  <speed>1.7922611416866685</speed>
  <fix>3d</fix>
</trkpt>
<trkpt lat="33.8103162" lon="-118.3940178">
  <ele>-0.112</ele>
  <time>2026-09-02T22:07:26Z</time>
  <course>6.61</course>
  <speed>1.7922611416866685</speed>
  <fix>3d</fix>
</trkpt>
<trkpt lat="33.8103162" lon="-118.3940178">
  <ele>-0.112</ele>
  <time>2026-09-02T22:07:26Z</time>
  <course>6.62</course>
  <speed>1.7922611416866685</speed>
  <fix>3d</fix>
</trkpt>
<trkpt lat="33.8103164" lon="-118.3940151">
  <ele>-0.1</ele>
  <time>2026-09-02T22:07:26Z</time>
  <course>274.2</course>
  <speed>1.82</speed>
  <fix>3d</fix>
</trkpt>
<trkpt lat="33.8103162" lon="-118.3940179">
  <ele>-0.112</ele>
  <time>2026-09-02T22:07:26Z</time>
  <course>6.62</course>
  <speed>1.7922611416866685</speed>
  <fix>3d</fix>
</trkpt>
<trkpt lat="33.8103162" lon="-118.3940181">
  <ele>-0.112</ele>
  <time>2026-09-02T22:07:26Z</time>
  <course>6.62</course>
  <speed>1.7922611416866685</speed>
  <fix>3d</fix>
</trkpt>
<trkpt lat="33.8103162" lon="-118.3940183">
  <ele>-0.112</ele>
  <time>2026-09-02T22:07:26Z</time>
  <course>6.62</course>
  <speed>1.7922611416866685</speed>
  <fix>3d</fix>
</trkpt>
<trkpt lat="33.8103162" lon="-118.3940184">
  <ele>-0.112</ele>
  <time>2026-09-02T22:07:26Z</time>
  <course>6.62</course>
  <speed>1.7922611416866685</speed>
  <fix>3d</fix>
</trkpt>
<trkpt lat="33.8103162" lon="-118.3940186">
  <ele>-0.112</ele>
  <time>2026-09-02T22:07:26Z</time>
  <course>6.63</course>
  <speed>1.7922611416866685</speed>
  <fix>3d</fix>
</trkpt>
<trkpt lat="33.8103162" lon="-118.3940187">
  <ele>-0.113</ele>
  <time>2026-09-02T22:07:26Z</time>
  <course>6.63</course>
  <speed>1.7922611416866685</speed>
  <fix>3d</fix>
</trkpt>
<trkpt lat="33.8103162" lon="-118.3940189">
  <ele>-0.113</ele>
  <time>2026-09-02T22:07:26Z</time>
  <course>6.63</course>
  <speed>1.7922611416866685</speed>
  <fix>3d</fix>
</trkpt>
<trkpt lat="33.8103162" lon="-118.3940191">
  <ele>-0.113</ele>
  <time>2026-09-02T22:07:26Z</time>
  <course>6.63</course>
  <speed>1.7922611416866685</speed>
  <fix>3d</fix>
</trkpt>
<trkpt lat="33.8103163" lon="-118.3940192">
  <ele>-0.113</ele>
  <time>2026-09-02T22:07:26Z</time>
  <course>6.63</course>
  <speed>1.7922611416866685</speed>
  <fix>3d</fix>
</trkpt>
<trkpt lat="33.8103163" lon="-118.3940194">
  <ele>-0.113</ele>
  <time>2026-09-02T22:07:26Z</time>
  <course>6.64</course>
  <speed>1.7922611416866685</speed>
  <fix>3d</fix>
</trkpt>
<trkpt lat="33.8103163" lon="-118.3940196">
  <ele>-0.113</ele>
  <time>2026-09-02T22:07:26Z</time>
  <course>6.64</course>
  <speed>1.7922611416866685</speed>
  <fix>3d</fix>
</trkpt>
<trkpt lat="33.8103163" lon="-118.3940197">
  <ele>-0.113</ele>
  <time>2026-09-02T22:07:26Z</time>
  <course>6.64</course>
  <speed>1.7922611416866685</speed>
  <fix>3d</fix>
</trkpt>
<trkpt lat="33.8103163" lon="-118.3940198">
  <ele>-0.113</ele>
  <time>2026-09-02T22:07:26Z</time>
  <course>6.64</course>
  <speed>1.7922611416866685</speed>
  <fix>3d</fix>
</trkpt>
<trkpt lat="33.8103164" lon="-118.3940151">
  <ele>-0.1</ele>
  <time>2026-09-02T22:07:26Z</time>
  <course>274.2</course>
  <speed>1.82</speed>
  <fix>3d</fix>
</trkpt>
<trkpt lat="33.8103163" lon="-118.3940198">
  <ele>-0.113</ele>
  <time>2026-09-02T22:07:26Z</time>
  <course>6.64</course>
  <speed>1.7922611416866685</speed>
  <fix>3d</fix>
</trkpt>
<trkpt lat="33.8103163" lon="-118.3940202">
  <ele>-0.114</ele>
  <time>2026-09-02T22:07:26Z</time>
  <course>6.64</course>
  <speed>1.7922611416866685</speed>
  <fix>3d</fix>
</trkpt>
<trkpt lat="33.8103163" lon="-118.3940203">
  <ele>-0.114</ele>
  <time>2026-09-02T22:07:26Z</time>
  <course>6.65</course>
  <speed>1.7922611416866685</speed>
  <fix>3d</fix>
</trkpt>
<trkpt lat="33.8103163" lon="-118.3940205">
  <ele>-0.114</ele>
  <time>2026-09-02T22:07:26Z</time>
  <course>6.65</course>
  <speed>1.7922611416866685</speed>
  <fix>3d</fix>
</trkpt>
<trkpt lat="33.8103163" lon="-118.3940207">
  <ele>-0.114</ele>
  <time>2026-09-02T22:07:26Z</time>
  <course>6.65</course>
  <speed>1.7922611416866685</speed>
  <fix>3d</fix>
</trkpt>
<trkpt lat="33.8103164" lon="-118.3940209">
  <ele>-0.114</ele>
  <time>2026-09-02T22:07:26Z</time>
  <course>6.65</course>
  <speed>1.7922611416866685</speed>
  <fix>3d</fix>
</trkpt>
<trkpt lat="33.8103164" lon="-118.394021">
  <ele>-0.114</ele>
  <time>2026-09-02T22:07:26Z</time>
  <course>6.66</course>
  <speed>1.7922611416866685</speed>
  <fix>3d</fix>
</trkpt>
<trkpt lat="33.8103164" lon="-118.3940212">
  <ele>-0.114</ele>
  <time>2026-09-02T22:07:26Z</time>
  <course>6.66</course>
  <speed>1.7922611416866685</speed>
  <fix>3d</fix>
</trkpt>
<trkpt lat="33.8103164" lon="-118.3940214">
  <ele>-0.114</ele>
  <time>2026-09-02T22:07:26Z</time>
  <course>6.66</course>
  <speed>1.7922611416866685</speed>
  <fix>3d</fix>
</trkpt>
<trkpt lat="33.8103164" lon="-118.3940216">
  <ele>-0.114</ele>
  <time>2026-09-02T22:07:26Z</time>
  <course>6.66</course>
  <speed>1.7922611416866685</speed>
  <fix>3d</fix>
</trkpt>
<trkpt lat="33.8103164" lon="-118.3940217">
  <ele>-0.114</ele>
  <time>2026-09-02T22:07:26Z</time>
  <course>6.66</course>
  <speed>1.7922611416866685</speed>
  <fix>3d</fix>
</trkpt>
<trkpt lat="33.8103166" lon="-118.3940191">
  <ele>-0.1</ele>
  <time>2026-09-02T22:07:26Z</time>
  <course>274.23</course>
  <speed>1.82</speed>
  <fix>3d</fix>
</trkpt>
<trkpt lat="33.8103164" lon="-118.3940218">
  <ele>-0.114</ele>
  <time>2026-09-02T22:07:26Z</time>
  <course>6.66</course>
  <speed>1.7922611416866685</speed>
  <fix>3d</fix>
</trkpt>
<trkpt lat="33.8103164" lon="-118.3940221">
  <ele>-0.114</ele>
  <time>2026-09-02T22:07:26Z</time>
  <course>6.67</course>
  <speed>1.7922611416866685</speed>
  <fix>3d</fix>
</trkpt>
<trkpt lat="33.8103164" lon="-118.3940223">
  <ele>-0.114</ele>
  <time>2026-09-02T22:07:26Z</time>
  <course>6.67</course>
  <speed>1.7922611416866685</speed>
  <fix>3d</fix>
</trkpt>
<trkpt lat="33.8103165" lon="-118.3940224">
  <ele>-0.114</ele>
  <time>2026-09-02T22:07:26Z</time>
  <course>6.67</course>
  <speed>1.7922611416866685</speed>
  <fix>3d</fix>
</trkpt>
<trkpt lat="33.8103165" lon="-118.3940226">
  <ele>-0.114</ele>
  <time>2026-09-02T22:07:26Z</time>
  <course>6.67</course>
  <speed>1.7922611416866685</speed>
  <fix>3d</fix>
</trkpt>
<trkpt lat="33.8103165" lon="-118.3940228">
  <ele>-0.114</ele>
  <time>2026-09-02T22:07:26Z</time>
  <course>6.68</course>
  <speed>1.7922611416866685</speed>
  <fix>3d</fix>
</trkpt>
<trkpt lat="33.8103165" lon="-118.394023">
  <ele>-0.114</ele>
  <time>2026-09-02T22:07:26Z</time>
  <course>6.68</course>
  <speed>1.7922611416866685</speed>
  <fix>3d</fix>
</trkpt>
<trkpt lat="33.8103165" lon="-118.3940232">
  <ele>-0.114</ele>
  <time>2026-09-02T22:07:26Z</time>
  <course>6.68</course>
  <speed>1.7922611416866685</speed>
  <fix>3d</fix>
</trkpt>
<trkpt lat="33.8103165" lon="-118.3940234">
  <ele>-0.115</ele>
  <time>2026-09-02T22:07:26Z</time>
  <course>6.68</course>
  <speed>1.7922611416866685</speed>
  <fix>3d</fix>
</trkpt>
<trkpt lat="33.8103165" lon="-118.3940236">
  <ele>-0.115</ele>
  <time>2026-09-02T22:07:26Z</time>
  <course>6.69</course>
  <speed>1.7922611416866685</speed>
  <fix>3d</fix>
</trkpt>
<trkpt lat="33.8103165" lon="-118.3940237">
  <ele>-0.115</ele>
  <time>2026-09-02T22:07:26Z</time>
  <course>6.69</course>
  <speed>1.7922611416866685</speed>
  <fix>3d</fix>
</trkpt>
<trkpt lat="33.8103166" lon="-118.3940191">
  <ele>-0.1</ele>
  <time>2026-09-02T22:07:26Z</time>
  <course>274.23</course>
  <speed>1.82</speed>
  <fix>3d</fix>
</trkpt>
<trkpt lat="33.8103165" lon="-118.3940237">
  <ele>-0.115</ele>
  <time>2026-09-02T22:07:26Z</time>
  <course>6.69</course>
  <speed>1.7922611416866685</speed>
  <fix>3d</fix>
</trkpt>
<trkpt lat="33.8103166" lon="-118.3940242">
  <ele>-0.115</ele>
  <time>2026-09-02T22:07:26Z</time>
  <course>6.69</course>
  <speed>1.7922611416866685</speed>
  <fix>3d</fix>
</trkpt>
<trkpt lat="33.8103166" lon="-118.3940244">
  <ele>-0.115</ele>
  <time>2026-09-02T22:07:26Z</time>
  <course>6.7</course>
  <speed>1.7922611416866685</speed>
  <fix>3d</fix>
</trkpt>
<trkpt lat="33.8103166" lon="-118.3940246">
  <ele>-0.115</ele>
  <time>2026-09-02T22:07:26Z</time>
  <course>6.7</course>
  <speed>1.7922611416866685</speed>
  <fix>3d</fix>
</trkpt>
<trkpt lat="33.8103166" lon="-118.3940247">
  <ele>-0.115</ele>
  <time>2026-09-02T22:07:26Z</time>
  <course>6.7</course>
  <speed>1.7922611416866685</speed>
  <fix>3d</fix>
</trkpt>
<trkpt lat="33.8103166" lon="-118.3940249">
  <ele>-0.115</ele>
  <time>2026-09-02T22:07:26Z</time>
  <course>6.7</course>
  <speed>1.7922611416866685</speed>
  <fix>3d</fix>
</trkpt>
<trkpt lat="33.8103166" lon="-118.394025">
  <ele>-0.115</ele>
  <time>2026-09-02T22:07:26Z</time>
  <course>6.71</course>
  <speed>1.7922611416866685</speed>
  <fix>3d</fix>
</trkpt>
<trkpt lat="33.8103166" lon="-118.3940252">
  <ele>-0.115</ele>
  <time>2026-09-02T22:07:26Z</time>
  <course>6.71</course>
  <speed>1.7922611416866685</speed>
  <fix>3d</fix>
</trkpt>
<trkpt lat="33.8103166" lon="-118.3940254">
  <ele>-0.115</ele>
  <time>2026-09-02T22:07:26Z</time>
  <course>6.71</course>
  <speed>1.7922611416866685</speed>
  <fix>3d</fix>
</trkpt>
<trkpt lat="33.8103166" lon="-118.3940256">
  <ele>-0.115</ele>
  <time>2026-09-02T22:07:26Z</time>
  <course>6.71</course>
  <speed>1.7922611416866685</speed>
  <fix>3d</fix>
</trkpt>
<trkpt lat="33.8103167" lon="-118.3940257">
  <ele>-0.115</ele>
  <time>2026-09-02T22:07:26Z</time>
  <course>6.71</course>
  <speed>1.7922611416866685</speed>
  <fix>3d</fix>
</trkpt>
<trkpt lat="33.8103168" lon="-118.394023">
  <ele>-0.1</ele>
  <time>2026-09-02T22:07:26Z</time>
  <course>274.26</course>
  <speed>1.82</speed>
  <fix>3d</fix>
</trkpt>
<trkpt lat="33.8103167" lon="-118.3940257">
  <ele>-0.115</ele>
  <time>2026-09-02T22:07:26Z</time>
  <course>6.71</course>
  <speed>1.7922611416866685</speed>
  <fix>3d</fix>
</trkpt>
<trkpt lat="33.8103167" lon="-118.3940261">
  <ele>-0.115</ele>
  <time>2026-09-02T22:07:26Z</time>
  <course>6.72</course>
  <speed>1.7922611416866685</speed>
  <fix>3d</fix>
</trkpt>
<trkpt lat="33.8103167" lon="-118.3940263">
  <ele>-0.115</ele>
  <time>2026-09-02T22:07:26Z</time>
  <course>6.72</course>
  <speed>1.7922611416866685</speed>
  <fix>3d</fix>
</trkpt>
<trkpt lat="33.8103167" lon="-118.3940264">
  <ele>-0.114</ele>
  <time>2026-09-02T22:07:26Z</time>
  <course>6.72</course>
  <speed>1.7922611416866685</speed>
  <fix>3d</fix>
</trkpt>
<trkpt lat="33.8103167" lon="-118.3940266">
  <ele>-0.114</ele>
  <time>2026-09-02T22:07:26Z</time>
  <course>6.72</course>
  <speed>1.7922611416866685</speed>
  <fix>3d</fix>
</trkpt>
<trkpt lat="33.8103167" lon="-118.3940267">
  <ele>-0.114</ele>
  <time>2026-09-02T22:07:26Z</time>
  <course>6.73</course>
  <speed>1.7922611416866685</speed>
  <fix>3d</fix>
</trkpt>
<trkpt lat="33.8103167" lon="-118.3940269">
  <ele>-0.114</ele>
  <time>2026-09-02T22:07:26Z</time>
  <course>6.73</course>
  <speed>1.7922611416866685</speed>
  <fix>3d</fix>
</trkpt>
<trkpt lat="33.8103167" lon="-118.3940271">
  <ele>-0.114</ele>
  <time>2026-09-02T22:07:26Z</time>
  <course>6.73</course>
  <speed>1.7922611416866685</speed>
  <fix>3d</fix>
</trkpt>
<trkpt lat="33.8103167" lon="-118.3940273">
  <ele>-0.114</ele>
  <time>2026-09-02T22:07:26Z</time>
  <course>6.73</course>
  <speed>1.7922611416866685</speed>
  <fix>3d</fix>
</trkpt>
<trkpt lat="33.8103168" lon="-118.3940274">
  <ele>-0.114</ele>
  <time>2026-09-02T22:07:26Z</time>
  <course>6.73</course>
  <speed>1.7922611416866685</speed>
  <fix>3d</fix>
</trkpt>
<trkpt lat="33.8103168" lon="-118.3940275">
  <ele>-0.114</ele>
  <time>2026-09-02T22:07:26Z</time>
  <course>6.74</course>
  <speed>1.7922611416866685</speed>
  <fix>3d</fix>
</trkpt>
<trkpt lat="33.8103168" lon="-118.3940276">
  <ele>-0.114</ele>
  <time>2026-09-02T22:07:26Z</time>
  <course>6.74</course>
  <speed>1.7922611416866685</speed>
  <fix>3d</fix>
</trkpt>
<trkpt lat="33.8103168" lon="-118.394023">
  <ele>-0.1</ele>
  <time>2026-09-02T22:07:26Z</time>
  <course>274.26</course>
  <speed>1.82</speed>
  <fix>3d</fix>
</trkpt>
<trkpt lat="33.8103168" lon="-118.3940277">
  <ele>-0.114</ele>
  <time>2026-09-02T22:07:26Z</time>
  <course>6.74</course>
  <speed>1.7922611416866685</speed>
  <fix>3d</fix>
</trkpt>
<trkpt lat="33.8103168" lon="-118.394028">
  <ele>-0.114</ele>
  <time>2026-09-02T22:07:26Z</time>
  <course>6.74</course>
  <speed>1.7922611416866685</speed>
  <fix>3d</fix>
</trkpt>
<trkpt lat="33.8103168" lon="-118.3940282">
  <ele>-0.114</ele>
  <time>2026-09-02T22:07:26Z</time>
  <course>6.74</course>
  <speed>1.7922611416866685</speed>
  <fix>3d</fix>
</trkpt>
<trkpt lat="33.8103168" lon="-118.3940283">
  <ele>-0.114</ele>
  <time>2026-09-02T22:07:26Z</time>
  <course>6.75</course>
  <speed>1.7922611416866685</speed>
  <fix>3d</fix>
</trkpt>
<trkpt lat="33.8103168" lon="-118.3940285">
  <ele>-0.114</ele>
  <time>2026-09-02T22:07:26Z</time>
  <course>6.75</course>
  <speed>1.7922611416866685</speed>
  <fix>3d</fix>
</trkpt>
<trkpt lat="33.8103168" lon="-118.3940287">
  <ele>-0.114</ele>
  <time>2026-09-02T22:07:26Z</time>
  <course>6.75</course>
  <speed>1.7922611416866685</speed>
  <fix>3d</fix>
</trkpt>
<trkpt lat="33.8103168" lon="-118.3940289">
  <ele>-0.114</ele>
  <time>2026-09-02T22:07:26Z</time>
  <course>6.75</course>
  <speed>1.7922611416866685</speed>
  <fix>3d</fix>
</trkpt>
<trkpt lat="33.8103169" lon="-118.3940291">
  <ele>-0.114</ele>
  <time>2026-09-02T22:07:26Z</time>
  <course>6.75</course>
  <speed>1.7922611416866685</speed>
  <fix>3d</fix>
</trkpt>
<trkpt lat="33.8103169" lon="-118.3940292">
  <ele>-0.114</ele>
  <time>2026-09-02T22:07:26Z</time>
  <course>6.76</course>
  <speed>1.7922611416866685</speed>
  <fix>3d</fix>
</trkpt>
<trkpt lat="33.8103169" lon="-118.3940294">
  <ele>-0.113</ele>
  <time>2026-09-02T22:07:26Z</time>
  <course>6.76</course>
  <speed>1.7922611416866685</speed>
  <fix>3d</fix>
</trkpt>
<trkpt lat="33.8103169" lon="-118.3940295">
  <ele>-0.113</ele>
  <time>2026-09-02T22:07:26Z</time>
  <course>6.76</course>
  <speed>1.7922611416866685</speed>
  <fix>3d</fix>
</trkpt>
<trkpt lat="33.8103169" lon="-118.3940296">
  <ele>-0.113</ele>
  <time>2026-09-02T22:07:26Z</time>
  <course>6.76</course>
  <speed>1.7922611416866685</speed>
  <fix>3d</fix>
</trkpt>
<trkpt lat="33.8103171" lon="-118.3940269">
  <ele>-0.1</ele>
  <time>2026-09-02T22:07:26Z</time>
  <course>274.29</course>
  <speed>1.82</speed>
  <fix>3d</fix>
</trkpt>
<trkpt lat="33.8103169" lon="-118.3940297">
  <ele>-0.113</ele>
  <time>2026-09-02T22:07:26Z</time>
  <course>6.76</course>
  <speed>1.7922611416866685</speed>
  <fix>3d</fix>
</trkpt>
<trkpt lat="33.8103169" lon="-118.39403">
  <ele>-0.113</ele>
  <time>2026-09-02T22:07:26Z</time>
  <course>6.76</course>
  <speed>1.7922611416866685</speed>
  <fix>3d</fix>
</trkpt>
<trkpt lat="33.8103169" lon="-118.3940301">
  <ele>-0.113</ele>
  <time>2026-09-02T22:07:26Z</time>
  <course>6.77</course>
  <speed>1.7922611416866685</speed>
  <fix>3d</fix>
</trkpt>
<trkpt lat="33.8103169" lon="-118.3940303">
  <ele>-0.113</ele>
  <time>2026-09-02T22:07:26Z</time>
  <course>6.77</course>
  <speed>1.7922611416866685</speed>
  <fix>3d</fix>
</trkpt>
<trkpt lat="33.8103169" lon="-118.3940305">
  <ele>-0.113</ele>
  <time>2026-09-02T22:07:26Z</time>
  <course>6.77</course>
  <speed>1.7922611416866685</speed>
  <fix>3d</fix>
</trkpt>
<trkpt lat="33.810317" lon="-118.3940306">
  <ele>-0.113</ele>
  <time>2026-09-02T22:07:26Z</time>
  <course>6.77</course>
  <speed>1.7922611416866685</speed>
  <fix>3d</fix>
</trkpt>
<trkpt lat="33.810317" lon="-118.3940307">
  <ele>-0.113</ele>
  <time>2026-09-02T22:07:26Z</time>
  <course>6.77</course>
  <speed>1.7922611416866685</speed>
  <fix>3d</fix>
</trkpt>
<trkpt lat="33.810317" lon="-118.3940309">
  <ele>-0.113</ele>
  <time>2026-09-02T22:07:26Z</time>
  <course>6.78</course>
  <speed>1.7922611416866685</speed>
  <fix>3d</fix>
</trkpt>
<trkpt lat="33.810317" lon="-118.394031">
  <ele>-0.113</ele>
  <time>2026-09-02T22:07:26Z</time>
  <course>6.78</course>
  <speed>1.7922611416866685</speed>
  <fix>3d</fix>
</trkpt>
<trkpt lat="33.810317" lon="-118.3940312">
  <ele>-0.113</ele>
  <time>2026-09-02T22:07:26Z</time>
  <course>6.78</course>
  <speed>1.7922611416866685</speed>
  <fix>3d</fix>
</trkpt>
<trkpt lat="33.810317" lon="-118.3940313">
  <ele>-0.113</ele>
  <time>2026-09-02T22:07:26Z</time>
  <course>6.78</course>
  <speed>1.7922611416866685</speed>
  <fix>3d</fix>
</trkpt>
<trkpt lat="33.810317" lon="-118.3940315">
  <ele>-0.113</ele>
  <time>2026-09-02T22:07:26Z</time>
  <course>6.78</course>
  <speed>1.7922611416866685</speed>
  <fix>3d</fix>
</trkpt>
<trkpt lat="33.810317" lon="-118.3940316">
  <ele>-0.113</ele>
  <time>2026-09-02T22:07:26Z</time>
  <course>6.78</course>
  <speed>1.7922611416866685</speed>
  <fix>3d</fix>
</trkpt>
<trkpt lat="33.8103171" lon="-118.3940269">
  <ele>-0.1</ele>
  <time>2026-09-02T22:07:26Z</time>
  <course>274.29</course>
  <speed>1.82</speed>
  <fix>3d</fix>
</trkpt>
<trkpt lat="33.810317" lon="-118.3940316">
  <ele>-0.113</ele>
  <time>2026-09-02T22:07:26Z</time>
  <course>6.78</course>
  <speed>1.7922611416866685</speed>
  <fix>3d</fix>
</trkpt>
<trkpt lat="33.810317" lon="-118.3940319">
  <ele>-0.113</ele>
  <time>2026-09-02T22:07:26Z</time>
  <course>6.79</course>
  <speed>1.7922611416866685</speed>
  <fix>3d</fix>
</trkpt>
<trkpt lat="33.810317" lon="-118.3940321">
  <ele>-0.113</ele>
  <time>2026-09-02T22:07:26Z</time>
  <course>6.79</course>
  <speed>1.7922611416866685</speed>
  <fix>3d</fix>
</trkpt>
<trkpt lat="33.8103171" lon="-118.3940323">
  <ele>-0.113</ele>
  <time>2026-09-02T22:07:26Z</time>
  <course>6.79</course>
  <speed>1.7922611416866685</speed>
  <fix>3d</fix>
</trkpt>
<trkpt lat="33.8103171" lon="-118.3940324">
  <ele>-0.113</ele>
  <time>2026-09-02T22:07:26Z</time>
  <course>6.79</course>
  <speed>1.7922611416866685</speed>
  <fix>3d</fix>
</trkpt>
<trkpt lat="33.8103171" lon="-118.3940326">
  <ele>-0.113</ele>
  <time>2026-09-02T22:07:26Z</time>
  <course>6.8</course>
  <speed>1.7922611416866685</speed>
  <fix>3d</fix>
</trkpt>
<trkpt lat="33.8103171" lon="-118.3940328">
  <ele>-0.113</ele>
  <time>2026-09-02T22:07:26Z</time>
  <course>6.8</course>
  <speed>1.7922611416866685</speed>
  <fix>3d</fix>
</trkpt>
<trkpt lat="33.8103171" lon="-118.394033">
  <ele>-0.113</ele>
  <time>2026-09-02T22:07:26Z</time>
  <course>6.8</course>
  <speed>1.7922611416866685</speed>
  <fix>3d</fix>
</trkpt>
<trkpt lat="33.8103171" lon="-118.3940332">
  <ele>-0.113</ele>
  <time>2026-09-02T22:07:26Z</time>
  <course>6.8</course>
  <speed>1.7922611416866685</speed>
  <fix>3d</fix>
</trkpt>
<trkpt lat="33.8103171" lon="-118.3940333">
  <ele>-0.113</ele>
  <time>2026-09-02T22:07:26Z</time>
  <course>6.8</course>
  <speed>1.7922611416866685</speed>
  <fix>3d</fix>
</trkpt>
<trkpt lat="33.8103171" lon="-118.3940335">
  <ele>-0.113</ele>
  <time>2026-09-02T22:07:26Z</time>
  <course>6.81</course>
  <speed>1.7922611416866685</speed>
  <fix>3d</fix>
</trkpt>
<trkpt lat="33.8103171" lon="-118.3940335">
  <ele>-0.113</ele>
  <time>2026-09-02T22:07:26Z</time>
  <course>6.81</course>
  <speed>1.7922611416866685</speed>
  <fix>3d</fix>
</trkpt>
<trkpt lat="33.8103174" lon="-118.3940308">
  <ele>-0.1</ele>
  <time>2026-09-02T22:07:26Z</time>
  <course>274.33</course>
  <speed>1.82</speed>
  <fix>3d</fix>
</trkpt>
<trkpt lat="33.8103171" lon="-118.3940336">
  <ele>-0.113</ele>
  <time>2026-09-02T22:07:26Z</time>
  <course>6.81</course>
  <speed>1.7922611416866685</speed>
  <fix>3d</fix>
</trkpt>
<trkpt lat="33.8103172" lon="-118.3940339">
  <ele>-0.113</ele>
  <time>2026-09-02T22:07:26Z</time>
  <course>6.81</course>
  <speed>1.7922611416866685</speed>
  <fix>3d</fix>
</trkpt>
<trkpt lat="33.8103172" lon="-118.3940341">
  <ele>-0.113</ele>
  <time>2026-09-02T22:07:26Z</time>
  <course>6.81</course>
  <speed>1.7922611416866685</speed>
  <fix>3d</fix>
</trkpt>
<trkpt lat="33.8103172" lon="-118.3940343">
  <ele>-0.113</ele>
  <time>2026-09-02T22:07:26Z</time>
  <course>6.82</course>
  <speed>1.7922611416866685</speed>
  <fix>3d</fix>
</trkpt>
<trkpt lat="33.8103172" lon="-118.3940344">
  <ele>-0.113</ele>
  <time>2026-09-02T22:07:26Z</time>
  <course>6.82</course>
  <speed>1.7922611416866685</speed>
  <fix>3d</fix>
</trkpt>
<trkpt lat="33.8103172" lon="-118.3940346">
  <ele>-0.113</ele>
  <time>2026-09-02T22:07:26Z</time>
  <course>6.82</course>
  <speed>1.7922611416866685</speed>
  <fix>3d</fix>
</trkpt>
<trkpt lat="33.8103172" lon="-118.3940347">
  <ele>-0.113</ele>
  <time>2026-09-02T22:07:26Z</time>
  <course>6.82</course>
  <speed>1.7922611416866685</speed>
  <fix>3d</fix>
</trkpt>
<trkpt lat="33.8103172" lon="-118.3940349">
  <ele>-0.113</ele>
  <time>2026-09-02T22:07:26Z</time>
  <course>6.82</course>
  <speed>1.7922611416866685</speed>
  <fix>3d</fix>
</trkpt>
<trkpt lat="33.8103172" lon="-118.394035">
  <ele>-0.113</ele>
  <time>2026-09-02T22:07:26Z</time>
  <course>6.82</course>
  <speed>1.7922611416866685</speed>
  <fix>3d</fix>
</trkpt>
<trkpt lat="33.8103172" lon="-118.3940352">
  <ele>-0.113</ele>
  <time>2026-09-02T22:07:27Z</time>
  <course>6.83</course>
  <speed>1.7922611416866685</speed>
  <fix>3d</fix>
</trkpt>
<trkpt lat="33.8103173" lon="-118.3940353">
  <ele>-0.113</ele>
  <time>2026-09-02T22:07:27Z</time>
  <course>6.83</course>
  <speed>1.7922611416866685</speed>
  <fix>3d</fix>
</trkpt>
<trkpt lat="33.8103173" lon="-118.3940355">
  <ele>-0.113</ele>
  <time>2026-09-02T22:07:27Z</time>
  <course>6.83</course>
  <speed>1.7922611416866685</speed>
  <fix>3d</fix>
</trkpt>
<trkpt lat="33.8103173" lon="-118.3940355">
  <ele>-0.114</ele>
  <time>2026-09-02T22:07:27Z</time>
  <course>6.83</course>
  <speed>1.7922611416866685</speed>
  <fix>3d</fix>
</trkpt>
<trkpt lat="33.8103174" lon="-118.3940308">
  <ele>-0.1</ele>
  <time>2026-09-02T22:07:27Z</time>
  <course>274.33</course>
  <speed>1.82</speed>
  <fix>3d</fix>
</trkpt>
<trkpt lat="33.8103173" lon="-118.3940356">
  <ele>-0.114</ele>
  <time>2026-09-02T22:07:27Z</time>
  <course>6.83</course>
  <speed>1.7922611416866685</speed>
  <fix>3d</fix>
</trkpt>
<trkpt lat="33.8103173" lon="-118.3940359">
  <ele>-0.114</ele>
  <time>2026-09-02T22:07:27Z</time>
  <course>6.83</course>
  <speed>1.7922611416866685</speed>
  <fix>3d</fix>
</trkpt>
<trkpt lat="33.8103173" lon="-118.3940361">
  <ele>-0.114</ele>
  <time>2026-09-02T22:07:27Z</time>
  <course>6.84</course>
  <speed>1.7922611416866685</speed>
  <fix>3d</fix>
</trkpt>
<trkpt lat="33.8103173" lon="-118.3940363">
  <ele>-0.114</ele>
  <time>2026-09-02T22:07:27Z</time>
  <course>6.84</course>
  <speed>1.7922611416866685</speed>
  <fix>3d</fix>
</trkpt>
<trkpt lat="33.8103173" lon="-118.3940364">
  <ele>-0.114</ele>
  <time>2026-09-02T22:07:27Z</time>
  <course>6.84</course>
  <speed>1.7922611416866685</speed>
  <fix>3d</fix>
</trkpt>
<trkpt lat="33.8103173" lon="-118.3940366">
  <ele>-0.114</ele>
  <time>2026-09-02T22:07:27Z</time>
  <course>6.84</course>
  <speed>1.7922611416866685</speed>
  <fix>3d</fix>
</trkpt>
<trkpt lat="33.8103173" lon="-118.3940368">
  <ele>-0.114</ele>
  <time>2026-09-02T22:07:27Z</time>
  <course>6.84</course>
  <speed>1.7922611416866685</speed>
  <fix>3d</fix>
</trkpt>
<trkpt lat="33.8103174" lon="-118.394037">
  <ele>-0.114</ele>
  <time>2026-09-02T22:07:27Z</time>
  <course>6.85</course>
  <speed>1.7922611416866685</speed>
  <fix>3d</fix>
</trkpt>
<trkpt lat="33.8103174" lon="-118.3940371">
  <ele>-0.114</ele>
  <time>2026-09-02T22:07:27Z</time>
  <course>6.85</course>
  <speed>1.7922611416866685</speed>
  <fix>3d</fix>
</trkpt>
<trkpt lat="33.8103174" lon="-118.3940373">
  <ele>-0.114</ele>
  <time>2026-09-02T22:07:27Z</time>
  <course>6.85</course>
  <speed>1.7922611416866685</speed>
  <fix>3d</fix>
</trkpt>
<trkpt lat="33.8103174" lon="-118.3940375">
  <ele>-0.114</ele>
  <time>2026-09-02T22:07:27Z</time>
  <course>6.85</course>
  <speed>1.7927911200137063</speed>
  <fix>3d</fix>
</trkpt>
<trkpt lat="33.8103174" lon="-118.3940375">
  <ele>-0.114</ele>
  <time>2026-09-02T22:07:27Z</time>
  <course>6.85</course>
  <speed>1.7927911200137063</speed>
  <fix>3d</fix>
</trkpt>
<trkpt lat="33.8103176" lon="-118.3940347">
  <ele>-0.1</ele>
  <time>2026-09-02T22:07:27Z</time>
  <course>274.36</course>
  <speed>1.82</speed>
  <fix>3d</fix>
</trkpt>
<trkpt lat="33.8103174" lon="-118.3940379">
  <ele>-0.114</ele>
  <time>2026-09-02T22:07:27Z</time>
  <course>6.86</course>
  <speed>1.7927911200137063</speed>
  <fix>3d</fix>
</trkpt>
<trkpt lat="33.8103174" lon="-118.3940381">
  <ele>-0.114</ele>
  <time>2026-09-02T22:07:27Z</time>
  <course>6.86</course>
  <speed>1.7927911200137063</speed>
  <fix>3d</fix>
</trkpt>
<trkpt lat="33.8103174" lon="-118.3940382">
  <ele>-0.114</ele>
  <time>2026-09-02T22:07:27Z</time>
  <course>6.86</course>
  <speed>1.7927911200137063</speed>
  <fix>3d</fix>
</trkpt>
<trkpt lat="33.8103175" lon="-118.3940384">
  <ele>-0.115</ele>
  <time>2026-09-02T22:07:27Z</time>
  <course>6.86</course>
  <speed>1.7927911200137063</speed>
  <fix>3d</fix>
</trkpt>
<trkpt lat="33.8103175" lon="-118.3940385">
  <ele>-0.115</ele>
  <time>2026-09-02T22:07:27Z</time>
  <course>6.86</course>
  <speed>1.7927911200137063</speed>
  <fix>3d</fix>
</trkpt>
<trkpt lat="33.8103175" lon="-118.3940387">
  <ele>-0.115</ele>
  <time>2026-09-02T22:07:27Z</time>
  <course>6.87</course>
  <speed>1.7927911200137063</speed>
  <fix>3d</fix>
</trkpt>
<trkpt lat="33.8103175" lon="-118.3940388">
  <ele>-0.115</ele>
  <time>2026-09-02T22:07:27Z</time>
  <course>6.87</course>
  <speed>1.7927911200137063</speed>
  <fix>3d</fix>
</trkpt>
<trkpt lat="33.8103175" lon="-118.3940389">
  <ele>-0.115</ele>
  <time>2026-09-02T22:07:27Z</time>
  <course>6.87</course>
  <speed>1.7927911200137063</speed>
  <fix>3d</fix>
</trkpt>
<trkpt lat="33.8103175" lon="-118.3940391">
  <ele>-0.115</ele>
  <time>2026-09-02T22:07:27Z</time>
  <course>6.87</course>
  <speed>1.7927911200137063</speed>
  <fix>3d</fix>
</trkpt>
<trkpt lat="33.8103175" lon="-118.3940393">
  <ele>-0.115</ele>
  <time>2026-09-02T22:07:27Z</time>
  <course>6.87</course>
  <speed>1.7927911200137063</speed>
  <fix>3d</fix>
</trkpt>
<trkpt lat="33.8103175" lon="-118.3940394">
  <ele>-0.115</ele>
  <time>2026-09-02T22:07:27Z</time>
  <course>6.87</course>
  <speed>1.7927911200137063</speed>
  <fix>3d</fix>
</trkpt>
<trkpt lat="33.8103175" lon="-118.3940394">
  <ele>-0.115</ele>
  <time>2026-09-02T22:07:27Z</time>
  <course>6.87</course>
  <speed>1.7927911200137063</speed>
  <fix>3d</fix>
</trkpt>
<trkpt lat="33.8103176" lon="-118.3940347">
  <ele>-0.1</ele>
  <time>2026-09-02T22:07:27Z</time>
  <course>274.36</course>
  <speed>1.82</speed>
  <fix>3d</fix>
</trkpt>
<trkpt lat="33.8103175" lon="-118.3940398">
  <ele>-0.116</ele>
  <time>2026-09-02T22:07:27Z</time>
  <course>6.88</course>
  <speed>1.7927911200137063</speed>
  <fix>3d</fix>
</trkpt>
<trkpt lat="33.8103176" lon="-118.39404">
  <ele>-0.116</ele>
  <time>2026-09-02T22:07:27Z</time>
  <course>6.88</course>
  <speed>1.7927911200137063</speed>
  <fix>3d</fix>
</trkpt>
<trkpt lat="33.8103176" lon="-118.3940401">
  <ele>-0.116</ele>
  <time>2026-09-02T22:07:27Z</time>
  <course>6.88</course>
  <speed>1.7927911200137063</speed>
  <fix>3d</fix>
</trkpt>
<trkpt lat="33.8103176" lon="-118.3940403">
  <ele>-0.116</ele>
  <time>2026-09-02T22:07:27Z</time>
  <course>6.88</course>
  <speed>1.7927911200137063</speed>
  <fix>3d</fix>
</trkpt>
<trkpt lat="33.8103176" lon="-118.3940404">
  <ele>-0.116</ele>
  <time>2026-09-02T22:07:27Z</time>
  <course>6.89</course>
  <speed>1.7927911200137063</speed>
  <fix>3d</fix>
</trkpt>
<trkpt lat="33.8103176" lon="-118.3940406">
  <ele>-0.116</ele>
  <time>2026-09-02T22:07:27Z</time>
  <course>6.89</course>
  <speed>1.7927911200137063</speed>
  <fix>3d</fix>
</trkpt>
<trkpt lat="33.8103176" lon="-118.3940408">
  <ele>-0.116</ele>
  <time>2026-09-02T22:07:27Z</time>
  <course>6.89</course>
  <speed>1.7927911200137063</speed>
  <fix>3d</fix>
</trkpt>
<trkpt lat="33.8103176" lon="-118.394041">
  <ele>-0.116</ele>
  <time>2026-09-02T22:07:27Z</time>
  <course>6.89</course>
  <speed>1.7927911200137063</speed>
  <fix>3d</fix>
</trkpt>
<trkpt lat="33.8103176" lon="-118.3940411">
  <ele>-0.116</ele>
  <time>2026-09-02T22:07:27Z</time>
  <course>6.89</course>
  <speed>1.7927911200137063</speed>
  <fix>3d</fix>
</trkpt>
<trkpt lat="33.8103176" lon="-118.3940413">
  <ele>-0.116</ele>
  <time>2026-09-02T22:07:27Z</time>
  <course>6.9</course>
  <speed>1.7927911200137063</speed>
  <fix>3d</fix>
</trkpt>
<trkpt lat="33.8103177" lon="-118.3940414">
  <ele>-0.116</ele>
  <time>2026-09-02T22:07:27Z</time>
  <course>6.9</course>
  <speed>1.7927911200137063</speed>
  <fix>3d</fix>
</trkpt>
<trkpt lat="33.8103177" lon="-118.3940414">
  <ele>-0.116</ele>
  <time>2026-09-02T22:07:27Z</time>
  <course>6.9</course>
  <speed>1.7927911200137063</speed>
  <fix>3d</fix>
</trkpt>
<trkpt lat="33.8103179" lon="-118.3940387">
  <ele>-0.11</ele>
  <time>2026-09-02T22:07:27Z</time>
  <course>274.4</course>
  <speed>1.82</speed>
  <fix>3d</fix>
</trkpt>
<trkpt lat="33.8103177" lon="-118.3940417">
  <ele>-0.116</ele>
  <time>2026-09-02T22:07:27Z</time>
  <course>6.9</course>
  <speed>1.7927911200137063</speed>
  <fix>3d</fix>
</trkpt>
<trkpt lat="33.8103177" lon="-118.3940419">
  <ele>-0.116</ele>
  <time>2026-09-02T22:07:27Z</time>
  <course>6.9</course>
  <speed>1.7927911200137063</speed>
  <fix>3d</fix>
</trkpt>
<trkpt lat="33.8103177" lon="-118.394042">
  <ele>-0.116</ele>
  <time>2026-09-02T22:07:27Z</time>
  <course>6.9</course>
  <speed>1.7927911200137063</speed>
  <fix>3d</fix>
</trkpt>
<trkpt lat="33.8103177" lon="-118.3940422">
  <ele>-0.116</ele>
  <time>2026-09-02T22:07:27Z</time>
  <course>6.91</course>
  <speed>1.7927911200137063</speed>
  <fix>3d</fix>
</trkpt>
<trkpt lat="33.8103177" lon="-118.3940424">
  <ele>-0.116</ele>
  <time>2026-09-02T22:07:27Z</time>
  <course>6.91</course>
  <speed>1.7927911200137063</speed>
  <fix>3d</fix>
</trkpt>
<trkpt lat="33.8103177" lon="-118.3940425">
  <ele>-0.116</ele>
  <time>2026-09-02T22:07:27Z</time>
  <course>6.91</course>
  <speed>1.7927911200137063</speed>
  <fix>3d</fix>
</trkpt>
<trkpt lat="33.8103177" lon="-118.3940427">
  <ele>-0.116</ele>
  <time>2026-09-02T22:07:27Z</time>
  <course>6.91</course>
  <speed>1.7927911200137063</speed>
  <fix>3d</fix>
</trkpt>
<trkpt lat="33.8103177" lon="-118.3940428">
  <ele>-0.116</ele>
  <time>2026-09-02T22:07:27Z</time>
  <course>6.91</course>
  <speed>1.7927911200137063</speed>
  <fix>3d</fix>
</trkpt>
<trkpt lat="33.8103178" lon="-118.394043">
  <ele>-0.116</ele>
  <time>2026-09-02T22:07:27Z</time>
  <course>6.91</course>
  <speed>1.7927911200137063</speed>
  <fix>3d</fix>
</trkpt>
<trkpt lat="33.8103178" lon="-118.3940431">
  <ele>-0.116</ele>
  <time>2026-09-02T22:07:27Z</time>
  <course>6.92</course>
  <speed>1.7927911200137063</speed>
  <fix>3d</fix>
</trkpt>
<trkpt lat="33.8103178" lon="-118.3940433">
  <ele>-0.116</ele>
  <time>2026-09-02T22:07:27Z</time>
  <course>6.92</course>
  <speed>1.7927911200137063</speed>
  <fix>3d</fix>
</trkpt>
<trkpt lat="33.8103178" lon="-118.3940434">
  <ele>-0.116</ele>
  <time>2026-09-02T22:07:27Z</time>
  <course>6.92</course>
  <speed>1.7927911200137063</speed>
  <fix>3d</fix>
</trkpt>
<trkpt lat="33.8103179" lon="-118.3940387">
  <ele>-0.11</ele>
  <time>2026-09-02T22:07:27Z</time>
  <course>274.4</course>
  <speed>1.82</speed>
  <fix>3d</fix>
</trkpt>
<trkpt lat="33.8103178" lon="-118.3940434">
  <ele>-0.116</ele>
  <time>2026-09-02T22:07:27Z</time>
  <course>6.92</course>
  <speed>1.7927911200137063</speed>
  <fix>3d</fix>
</trkpt>
<trkpt lat="33.8103178" lon="-118.3940437">
  <ele>-0.116</ele>
  <time>2026-09-02T22:07:27Z</time>
  <course>6.92</course>
  <speed>1.7927911200137063</speed>
  <fix>3d</fix>
</trkpt>
<trkpt lat="33.8103178" lon="-118.3940439">
  <ele>-0.116</ele>
  <time>2026-09-02T22:07:27Z</time>
  <course>6.92</course>
  <speed>1.7927911200137063</speed>
  <fix>3d</fix>
</trkpt>
<trkpt lat="33.8103178" lon="-118.394044">
  <ele>-0.116</ele>
  <time>2026-09-02T22:07:27Z</time>
  <course>6.93</course>
  <speed>1.7927911200137063</speed>
  <fix>3d</fix>
</trkpt>
<trkpt lat="33.8103178" lon="-118.3940441">
  <ele>-0.116</ele>
  <time>2026-09-02T22:07:27Z</time>
  <course>6.93</course>
  <speed>1.7927911200137063</speed>
  <fix>3d</fix>
</trkpt>
<trkpt lat="33.8103178" lon="-118.3940443">
  <ele>-0.116</ele>
  <time>2026-09-02T22:07:27Z</time>
  <course>6.93</course>
  <speed>1.7927911200137063</speed>
  <fix>3d</fix>
</trkpt>
<trkpt lat="33.8103178" lon="-118.3940444">
  <ele>-0.116</ele>
  <time>2026-09-02T22:07:27Z</time>
  <course>6.93</course>
  <speed>1.7927911200137063</speed>
  <fix>3d</fix>
</trkpt>
<trkpt lat="33.8103179" lon="-118.3940446">
  <ele>-0.116</ele>
  <time>2026-09-02T22:07:27Z</time>
  <course>6.93</course>
  <speed>1.7927911200137063</speed>
  <fix>3d</fix>
</trkpt>
<trkpt lat="33.8103179" lon="-118.3940448">
  <ele>-0.116</ele>
  <time>2026-09-02T22:07:27Z</time>
  <course>6.93</course>
  <speed>1.7927911200137063</speed>
  <fix>3d</fix>
</trkpt>
<trkpt lat="33.8103179" lon="-118.394045">
  <ele>-0.116</ele>
  <time>2026-09-02T22:07:27Z</time>
  <course>6.94</course>
  <speed>1.7927911200137063</speed>
  <fix>3d</fix>
</trkpt>
<trkpt lat="33.8103179" lon="-118.3940451">
  <ele>-0.116</ele>
  <time>2026-09-02T22:07:27Z</time>
  <course>6.94</course>
  <speed>1.7927911200137063</speed>
  <fix>3d</fix>
</trkpt>
<trkpt lat="33.8103179" lon="-118.3940453">
  <ele>-0.116</ele>
  <time>2026-09-02T22:07:27Z</time>
  <course>6.94</course>
  <speed>1.7927911200137063</speed>
  <fix>3d</fix>
</trkpt>
<trkpt lat="33.8103179" lon="-118.3940453">
  <ele>-0.116</ele>
  <time>2026-09-02T22:07:27Z</time>
  <course>6.94</course>
  <speed>1.7927911200137063</speed>
  <fix>3d</fix>
</trkpt>
<trkpt lat="33.8103181" lon="-118.3940426">
  <ele>-0.1</ele>
  <time>2026-09-02T22:07:27Z</time>
  <course>274.44</course>
  <speed>1.82</speed>
  <fix>3d</fix>
</trkpt>
<trkpt lat="33.8103179" lon="-118.3940454">
  <ele>-0.116</ele>
  <time>2026-09-02T22:07:27Z</time>
  <course>6.94</course>
  <speed>1.7927911200137063</speed>
  <fix>3d</fix>
</trkpt>
<trkpt lat="33.8103179" lon="-118.3940457">
  <ele>-0.115</ele>
  <time>2026-09-02T22:07:27Z</time>
  <course>6.95</course>
  <speed>1.7927911200137063</speed>
  <fix>3d</fix>
</trkpt>
<trkpt lat="33.810318" lon="-118.394046">
  <ele>-0.115</ele>
  <time>2026-09-02T22:07:27Z</time>
  <course>6.95</course>
  <speed>1.7927911200137063</speed>
  <fix>3d</fix>
</trkpt>
<trkpt lat="33.810318" lon="-118.3940462">
  <ele>-0.115</ele>
  <time>2026-09-02T22:07:27Z</time>
  <course>6.95</course>
  <speed>1.7927911200137063</speed>
  <fix>3d</fix>
</trkpt>
<trkpt lat="33.810318" lon="-118.3940463">
  <ele>-0.115</ele>
  <time>2026-09-02T22:07:27Z</time>
  <course>6.95</course>
  <speed>1.7927911200137063</speed>
  <fix>3d</fix>
</trkpt>
<trkpt lat="33.810318" lon="-118.3940465">
  <ele>-0.115</ele>
  <time>2026-09-02T22:07:27Z</time>
  <course>6.95</course>
  <speed>1.7927911200137063</speed>
  <fix>3d</fix>
</trkpt>
<trkpt lat="33.810318" lon="-118.3940467">
  <ele>-0.115</ele>
  <time>2026-09-02T22:07:27Z</time>
  <course>6.96</course>
  <speed>1.7927911200137063</speed>
  <fix>3d</fix>
</trkpt>
<trkpt lat="33.810318" lon="-118.3940469">
  <ele>-0.114</ele>
  <time>2026-09-02T22:07:27Z</time>
  <course>6.96</course>
  <speed>1.7927911200137063</speed>
  <fix>3d</fix>
</trkpt>
<trkpt lat="33.810318" lon="-118.3940471">
  <ele>-0.114</ele>
  <time>2026-09-02T22:07:27Z</time>
  <course>6.96</course>
  <speed>1.7927911200137063</speed>
  <fix>3d</fix>
</trkpt>
<trkpt lat="33.810318" lon="-118.3940472">
  <ele>-0.114</ele>
  <time>2026-09-02T22:07:27Z</time>
  <course>6.96</course>
  <speed>1.7927911200137063</speed>
  <fix>3d</fix>
</trkpt>
<trkpt lat="33.810318" lon="-118.3940473">
  <ele>-0.114</ele>
  <time>2026-09-02T22:07:27Z</time>
  <course>6.96</course>
  <speed>1.7927911200137063</speed>
  <fix>3d</fix>
</trkpt>
<trkpt lat="33.8103181" lon="-118.3940426">
  <ele>-0.1</ele>
  <time>2026-09-02T22:07:27Z</time>
  <course>274.44</course>
  <speed>1.82</speed>
  <fix>3d</fix>
</trkpt>
<trkpt lat="33.810318" lon="-118.3940474">
  <ele>-0.114</ele>
  <time>2026-09-02T22:07:27Z</time>
  <course>6.96</course>
  <speed>1.7927911200137063</speed>
  <fix>3d</fix>
</trkpt>
<trkpt lat="33.8103181" lon="-118.3940477">
  <ele>-0.114</ele>
  <time>2026-09-02T22:07:27Z</time>
  <course>6.97</course>
  <speed>1.7927911200137063</speed>
  <fix>3d</fix>
</trkpt>
<trkpt lat="33.8103181" lon="-118.3940479">
  <ele>-0.114</ele>
  <time>2026-09-02T22:07:27Z</time>
  <course>6.97</course>
  <speed>1.7927911200137063</speed>
  <fix>3d</fix>
</trkpt>
<trkpt lat="33.8103181" lon="-118.394048">
  <ele>-0.114</ele>
  <time>2026-09-02T22:07:27Z</time>
  <course>6.97</course>
  <speed>1.7927911200137063</speed>
  <fix>3d</fix>
</trkpt>
<trkpt lat="33.8103181" lon="-118.3940482">
  <ele>-0.113</ele>
  <time>2026-09-02T22:07:27Z</time>
  <course>6.97</course>
  <speed>1.7927911200137063</speed>
  <fix>3d</fix>
</trkpt>
<trkpt lat="33.8103181" lon="-118.3940483">
  <ele>-0.113</ele>
  <time>2026-09-02T22:07:27Z</time>
  <course>6.97</course>
  <speed>1.7927911200137063</speed>
  <fix>3d</fix>
</trkpt>
<trkpt lat="33.8103181" lon="-118.3940485">
  <ele>-0.113</ele>
  <time>2026-09-02T22:07:27Z</time>
  <course>6.98</course>
  <speed>1.7927911200137063</speed>
  <fix>3d</fix>
</trkpt>
<trkpt lat="33.8103181" lon="-118.3940486">
  <ele>-0.113</ele>
  <time>2026-09-02T22:07:27Z</time>
  <course>6.98</course>
  <speed>1.7927911200137063</speed>
  <fix>3d</fix>
</trkpt>
<trkpt lat="33.8103181" lon="-118.3940488">
  <ele>-0.113</ele>
  <time>2026-09-02T22:07:27Z</time>
  <course>6.98</course>
  <speed>1.7927911200137063</speed>
  <fix>3d</fix>
</trkpt>
<trkpt lat="33.8103182" lon="-118.394049">
  <ele>-0.113</ele>
  <time>2026-09-02T22:07:27Z</time>
  <course>6.98</course>
  <speed>1.7927911200137063</speed>
  <fix>3d</fix>
</trkpt>
<trkpt lat="33.8103182" lon="-118.3940491">
  <ele>-0.113</ele>
  <time>2026-09-02T22:07:27Z</time>
  <course>6.98</course>
  <speed>1.7927911200137063</speed>
  <fix>3d</fix>
</trkpt>
<trkpt lat="33.8103182" lon="-118.3940493">
  <ele>-0.113</ele>
  <time>2026-09-02T22:07:27Z</time>
  <course>6.98</course>
  <speed>1.7927911200137063</speed>
  <fix>3d</fix>
</trkpt>
<trkpt lat="33.8103182" lon="-118.3940493">
  <ele>-0.113</ele>
  <time>2026-09-02T22:07:27Z</time>
  <course>6.98</course>
  <speed>1.7927911200137063</speed>
  <fix>3d</fix>
</trkpt>
<trkpt lat="33.8103184" lon="-118.3940466">
  <ele>-0.1</ele>
  <time>2026-09-02T22:07:27Z</time>
  <course>274.47</course>
  <speed>1.82</speed>
  <fix>3d</fix>
</trkpt>
<trkpt lat="33.8103182" lon="-118.3940497">
  <ele>-0.112</ele>
  <time>2026-09-02T22:07:27Z</time>
  <course>6.99</course>
  <speed>1.7927911200137063</speed>
  <fix>3d</fix>
</trkpt>
<trkpt lat="33.8103182" lon="-118.3940499">
  <ele>-0.112</ele>
  <time>2026-09-02T22:07:27Z</time>
  <course>6.99</course>
  <speed>1.7927911200137063</speed>
  <fix>3d</fix>
</trkpt>
<trkpt lat="33.8103182" lon="-118.3940501">
  <ele>-0.112</ele>
  <time>2026-09-02T22:07:27Z</time>
  <course>6.99</course>
  <speed>1.7927911200137063</speed>
  <fix>3d</fix>
</trkpt>
<trkpt lat="33.8103182" lon="-118.3940502">
  <ele>-0.112</ele>
  <time>2026-09-02T22:07:27Z</time>
  <course>6.99</course>
  <speed>1.7927911200137063</speed>
  <fix>3d</fix>
</trkpt>
<trkpt lat="33.8103183" lon="-118.3940504">
  <ele>-0.111</ele>
  <time>2026-09-02T22:07:27Z</time>
  <course>7.0</course>
  <speed>1.7927911200137063</speed>
  <fix>3d</fix>
</trkpt>
<trkpt lat="33.8103183" lon="-118.3940506">
  <ele>-0.111</ele>
  <time>2026-09-02T22:07:27Z</time>
  <course>7.0</course>
  <speed>1.7927911200137063</speed>
  <fix>3d</fix>
</trkpt>
<trkpt lat="33.8103183" lon="-118.3940507">
  <ele>-0.111</ele>
  <time>2026-09-02T22:07:27Z</time>
  <course>7.0</course>
  <speed>1.7927911200137063</speed>
  <fix>3d</fix>
</trkpt>
<trkpt lat="33.8103183" lon="-118.3940509">
  <ele>-0.111</ele>
  <time>2026-09-02T22:07:27Z</time>
  <course>7.0</course>
  <speed>1.7927911200137063</speed>
  <fix>3d</fix>
</trkpt>
<trkpt lat="33.8103183" lon="-118.3940511">
  <ele>-0.11</ele>
  <time>2026-09-02T22:07:27Z</time>
  <course>7.0</course>
  <speed>1.7927911200137063</speed>
  <fix>3d</fix>
</trkpt>
<trkpt lat="33.8103183" lon="-118.3940512">
  <ele>-0.11</ele>
  <time>2026-09-02T22:07:27Z</time>
  <course>7.01</course>
  <speed>1.7927911200137063</speed>
  <fix>3d</fix>
</trkpt>
<trkpt lat="33.8103184" lon="-118.3940466">
  <ele>-0.1</ele>
  <time>2026-09-02T22:07:27Z</time>
  <course>274.47</course>
  <speed>1.82</speed>
  <fix>3d</fix>
</trkpt>
<trkpt lat="33.8103183" lon="-118.3940513">
  <ele>-0.11</ele>
  <time>2026-09-02T22:07:27Z</time>
  <course>7.01</course>
  <speed>1.7927911200137063</speed>
  <fix>3d</fix>
</trkpt>
<trkpt lat="33.8103183" lon="-118.3940516">
  <ele>-0.11</ele>
  <time>2026-09-02T22:07:27Z</time>
  <course>7.01</course>
  <speed>1.7927911200137063</speed>
  <fix>3d</fix>
</trkpt>
<trkpt lat="33.8103183" lon="-118.3940517">
  <ele>-0.11</ele>
  <time>2026-09-02T22:07:27Z</time>
  <course>7.01</course>
  <speed>1.7927911200137063</speed>
  <fix>3d</fix>
</trkpt>
<trkpt lat="33.8103183" lon="-118.3940519">
  <ele>-0.11</ele>
  <time>2026-09-02T22:07:27Z</time>
  <course>7.01</course>
  <speed>1.7927911200137063</speed>
  <fix>3d</fix>
</trkpt>
<trkpt lat="33.8103184" lon="-118.3940521">
  <ele>-0.109</ele>
  <time>2026-09-02T22:07:27Z</time>
  <course>7.01</course>
  <speed>1.7927911200137063</speed>
  <fix>3d</fix>
</trkpt>
<trkpt lat="33.8103184" lon="-118.3940522">
  <ele>-0.109</ele>
  <time>2026-09-02T22:07:27Z</time>
  <course>7.02</course>
  <speed>1.7927911200137063</speed>
  <fix>3d</fix>
</trkpt>
<trkpt lat="33.8103184" lon="-118.3940524">
  <ele>-0.109</ele>
  <time>2026-09-02T22:07:27Z</time>
  <course>7.02</course>
  <speed>1.7927911200137063</speed>
  <fix>3d</fix>
</trkpt>
<trkpt lat="33.8103184" lon="-118.3940525">
  <ele>-0.109</ele>
  <time>2026-09-02T22:07:27Z</time>
  <course>7.02</course>
  <speed>1.7927911200137063</speed>
  <fix>3d</fix>
</trkpt>
<trkpt lat="33.8103184" lon="-118.3940527">
  <ele>-0.109</ele>
  <time>2026-09-02T22:07:27Z</time>
  <course>7.02</course>
  <speed>1.7927911200137063</speed>
  <fix>3d</fix>
</trkpt>
<trkpt lat="33.8103184" lon="-118.3940529">
  <ele>-0.109</ele>
  <time>2026-09-02T22:07:27Z</time>
  <course>7.02</course>
  <speed>1.7927911200137063</speed>
  <fix>3d</fix>
</trkpt>
<trkpt lat="33.8103184" lon="-118.3940531">
  <ele>-0.109</ele>
  <time>2026-09-02T22:07:27Z</time>
  <course>7.03</course>
  <speed>1.7927911200137063</speed>
  <fix>3d</fix>
</trkpt>
<trkpt lat="33.8103184" lon="-118.3940532">
  <ele>-0.109</ele>
  <time>2026-09-02T22:07:27Z</time>
  <course>7.03</course>
  <speed>1.7927911200137063</speed>
  <fix>3d</fix>
</trkpt>
<trkpt lat="33.8103186" lon="-118.3940505">
  <ele>-0.1</ele>
  <time>2026-09-02T22:07:27Z</time>
  <course>274.51</course>
  <speed>1.82</speed>
  <fix>3d</fix>
</trkpt>
<trkpt lat="33.8103184" lon="-118.3940532">
  <ele>-0.109</ele>
  <time>2026-09-02T22:07:27Z</time>
  <course>7.03</course>
  <speed>1.7927911200137063</speed>
  <fix>3d</fix>
</trkpt>
<trkpt lat="33.8103185" lon="-118.3940536">
  <ele>-0.108</ele>
  <time>2026-09-02T22:07:27Z</time>
  <course>7.03</course>
  <speed>1.7927911200137063</speed>
  <fix>3d</fix>
</trkpt>
<trkpt lat="33.8103185" lon="-118.3940538">
  <ele>-0.108</ele>
  <time>2026-09-02T22:07:27Z</time>
  <course>7.03</course>
  <speed>1.7927911200137063</speed>
  <fix>3d</fix>
</trkpt>
<trkpt lat="33.8103185" lon="-118.3940539">
  <ele>-0.108</ele>
  <time>2026-09-02T22:07:27Z</time>
  <course>7.03</course>
  <speed>1.7927911200137063</speed>
  <fix>3d</fix>
</trkpt>
<trkpt lat="33.8103185" lon="-118.3940541">
  <ele>-0.108</ele>
  <time>2026-09-02T22:07:27Z</time>
  <course>7.04</course>
  <speed>1.7927911200137063</speed>
  <fix>3d</fix>
</trkpt>
<trkpt lat="33.8103185" lon="-118.3940543">
  <ele>-0.108</ele>
  <time>2026-09-02T22:07:27Z</time>
  <course>7.04</course>
  <speed>1.7927911200137063</speed>
  <fix>3d</fix>
</trkpt>
<trkpt lat="33.8103185" lon="-118.3940544">
  <ele>-0.108</ele>
  <time>2026-09-02T22:07:27Z</time>
  <course>7.04</course>
  <speed>1.7927911200137063</speed>
  <fix>3d</fix>
</trkpt>
<trkpt lat="33.8103185" lon="-118.3940546">
  <ele>-0.108</ele>
  <time>2026-09-02T22:07:27Z</time>
  <course>7.04</course>
  <speed>1.7927911200137063</speed>
  <fix>3d</fix>
</trkpt>
<trkpt lat="33.8103185" lon="-118.3940547">
  <ele>-0.108</ele>
  <time>2026-09-02T22:07:27Z</time>
  <course>7.04</course>
  <speed>1.7927911200137063</speed>
  <fix>3d</fix>
</trkpt>
<trkpt lat="33.8103186" lon="-118.3940549">
  <ele>-0.108</ele>
  <time>2026-09-02T22:07:27Z</time>
  <course>7.04</course>
  <speed>1.7927911200137063</speed>
  <fix>3d</fix>
</trkpt>
<trkpt lat="33.8103186" lon="-118.394055">
  <ele>-0.108</ele>
  <time>2026-09-02T22:07:27Z</time>
  <course>7.05</course>
  <speed>1.7927911200137063</speed>
  <fix>3d</fix>
</trkpt>
<trkpt lat="33.8103186" lon="-118.3940551">
  <ele>-0.108</ele>
  <time>2026-09-02T22:07:27Z</time>
  <course>7.05</course>
  <speed>1.7927911200137063</speed>
  <fix>3d</fix>
</trkpt>
<trkpt lat="33.8103186" lon="-118.3940505">
  <ele>-0.1</ele>
  <time>2026-09-02T22:07:27Z</time>
  <course>274.51</course>
  <speed>1.82</speed>
  <fix>3d</fix>
</trkpt>
<trkpt lat="33.8103186" lon="-118.3940552">
  <ele>-0.108</ele>
  <time>2026-09-02T22:07:27Z</time>
  <course>7.05</course>
  <speed>1.7927911200137063</speed>
  <fix>3d</fix>
</trkpt>
<trkpt lat="33.8103186" lon="-118.3940555">
  <ele>-0.108</ele>
  <time>2026-09-02T22:07:27Z</time>
  <course>7.05</course>
  <speed>1.7927911200137063</speed>
  <fix>3d</fix>
</trkpt>
<trkpt lat="33.8103186" lon="-118.3940556">
  <ele>-0.108</ele>
  <time>2026-09-02T22:07:27Z</time>
  <course>7.05</course>
  <speed>1.7927911200137063</speed>
  <fix>3d</fix>
</trkpt>
<trkpt lat="33.8103186" lon="-118.3940558">
  <ele>-0.108</ele>
  <time>2026-09-02T22:07:27Z</time>
  <course>7.05</course>
  <speed>1.782806775845324</speed>
  <fix>3d</fix>
</trkpt>
<trkpt lat="33.8103186" lon="-118.394056">
  <ele>-0.108</ele>
  <time>2026-09-02T22:07:27Z</time>
  <course>7.06</course>
  <speed>1.782806775845324</speed>
  <fix>3d</fix>
</trkpt>
<trkpt lat="33.8103186" lon="-118.3940561">
  <ele>-0.108</ele>
  <time>2026-09-02T22:07:27Z</time>
  <course>7.06</course>
  <speed>1.782806775845324</speed>
  <fix>3d</fix>
</trkpt>
<trkpt lat="33.8103186" lon="-118.3940563">
  <ele>-0.108</ele>
  <time>2026-09-02T22:07:27Z</time>
  <course>7.06</course>
  <speed>1.782806775845324</speed>
  <fix>3d</fix>
</trkpt>
<trkpt lat="33.8103187" lon="-118.3940565">
  <ele>-0.108</ele>
  <time>2026-09-02T22:07:27Z</time>
  <course>7.06</course>
  <speed>1.782806775845324</speed>
  <fix>3d</fix>
</trkpt>
<trkpt lat="33.8103187" lon="-118.3940566">
  <ele>-0.108</ele>
  <time>2026-09-02T22:07:27Z</time>
  <course>7.06</course>
  <speed>1.782806775845324</speed>
  <fix>3d</fix>
</trkpt>
<trkpt lat="33.8103187" lon="-118.3940567">
  <ele>-0.108</ele>
  <time>2026-09-02T22:07:27Z</time>
  <course>7.06</course>
  <speed>1.782806775845324</speed>
  <fix>3d</fix>
</trkpt>
<trkpt lat="33.8103187" lon="-118.3940569">
  <ele>-0.108</ele>
  <time>2026-09-02T22:07:27Z</time>
  <course>7.07</course>
  <speed>1.782806775845324</speed>
  <fix>3d</fix>
</trkpt>
<trkpt lat="33.8103187" lon="-118.394057">
  <ele>-0.108</ele>
  <time>2026-09-02T22:07:27Z</time>
  <course>7.07</course>
  <speed>1.782806775845324</speed>
  <fix>3d</fix>
</trkpt>
<trkpt lat="33.8103187" lon="-118.3940571">
  <ele>-0.108</ele>
  <time>2026-09-02T22:07:27Z</time>
  <course>7.07</course>
  <speed>1.782806775845324</speed>
  <fix>3d</fix>
</trkpt>
<trkpt lat="33.8103189" lon="-118.3940544">
  <ele>-0.1</ele>
  <time>2026-09-02T22:07:27Z</time>
  <course>274.55</course>
  <speed>1.82</speed>
  <fix>3d</fix>
</trkpt>
<trkpt lat="33.8103187" lon="-118.3940571">
  <ele>-0.108</ele>
  <time>2026-09-02T22:07:27Z</time>
  <course>7.07</course>
  <speed>1.782806775845324</speed>
  <fix>3d</fix>
</trkpt>
<trkpt lat="33.8103187" lon="-118.3940575">
  <ele>-0.108</ele>
  <time>2026-09-02T22:07:27Z</time>
  <course>7.07</course>
  <speed>1.782806775845324</speed>
  <fix>3d</fix>
</trkpt>
<trkpt lat="33.8103187" lon="-118.3940577">
  <ele>-0.108</ele>
  <time>2026-09-02T22:07:27Z</time>
  <course>7.07</course>
  <speed>1.782806775845324</speed>
  <fix>3d</fix>
</trkpt>
<trkpt lat="33.8103188" lon="-118.3940578">
  <ele>-0.108</ele>
  <time>2026-09-02T22:07:27Z</time>
  <course>7.08</course>
  <speed>1.782806775845324</speed>
  <fix>3d</fix>
</trkpt>
<trkpt lat="33.8103188" lon="-118.394058">
  <ele>-0.108</ele>
  <time>2026-09-02T22:07:27Z</time>
  <course>7.08</course>
  <speed>1.782806775845324</speed>
  <fix>3d</fix>
</trkpt>
<trkpt lat="33.8103188" lon="-118.3940582">
  <ele>-0.108</ele>
  <time>2026-09-02T22:07:27Z</time>
  <course>7.08</course>
  <speed>1.782806775845324</speed>
  <fix>3d</fix>
</trkpt>
<trkpt lat="33.8103188" lon="-118.3940583">
  <ele>-0.108</ele>
  <time>2026-09-02T22:07:27Z</time>
  <course>7.08</course>
  <speed>1.782806775845324</speed>
  <fix>3d</fix>
</trkpt>
<trkpt lat="33.8103188" lon="-118.3940585">
  <ele>-0.108</ele>
  <time>2026-09-02T22:07:27Z</time>
  <course>7.08</course>
  <speed>1.782806775845324</speed>
  <fix>3d</fix>
</trkpt>
<trkpt lat="33.8103188" lon="-118.3940587">
  <ele>-0.108</ele>
  <time>2026-09-02T22:07:27Z</time>
  <course>7.09</course>
  <speed>1.782806775845324</speed>
  <fix>3d</fix>
</trkpt>
<trkpt lat="33.8103188" lon="-118.3940588">
  <ele>-0.108</ele>
  <time>2026-09-02T22:07:27Z</time>
  <course>7.09</course>
  <speed>1.782806775845324</speed>
  <fix>3d</fix>
</trkpt>
<trkpt lat="33.8103188" lon="-118.394059">
  <ele>-0.108</ele>
  <time>2026-09-02T22:07:27Z</time>
  <course>7.09</course>
  <speed>1.782806775845324</speed>
  <fix>3d</fix>
</trkpt>
<trkpt lat="33.8103188" lon="-118.394059">
  <ele>-0.108</ele>
  <time>2026-09-02T22:07:27Z</time>
  <course>7.09</course>
  <speed>1.782806775845324</speed>
  <fix>3d</fix>
</trkpt>
<trkpt lat="33.8103189" lon="-118.3940544">
  <ele>-0.1</ele>
  <time>2026-09-02T22:07:27Z</time>
  <course>274.55</course>
  <speed>1.82</speed>
  <fix>3d</fix>
</trkpt>
<trkpt lat="33.8103188" lon="-118.3940591">
  <ele>-0.108</ele>
  <time>2026-09-02T22:07:27Z</time>
  <course>7.09</course>
  <speed>1.782806775845324</speed>
  <fix>3d</fix>
</trkpt>
<trkpt lat="33.8103189" lon="-118.3940595">
  <ele>-0.108</ele>
  <time>2026-09-02T22:07:27Z</time>
  <course>7.09</course>
  <speed>1.782806775845324</speed>
  <fix>3d</fix>
</trkpt>
<trkpt lat="33.8103189" lon="-118.3940597">
  <ele>-0.108</ele>
  <time>2026-09-02T22:07:27Z</time>
  <course>7.1</course>
  <speed>1.782806775845324</speed>
  <fix>3d</fix>
</trkpt>
<trkpt lat="33.8103189" lon="-118.3940599">
  <ele>-0.108</ele>
  <time>2026-09-02T22:07:27Z</time>
  <course>7.1</course>
  <speed>1.782806775845324</speed>
  <fix>3d</fix>
</trkpt>
<trkpt lat="33.8103189" lon="-118.39406">
  <ele>-0.108</ele>
  <time>2026-09-02T22:07:27Z</time>
  <course>7.1</course>
  <speed>1.782806775845324</speed>
  <fix>3d</fix>
</trkpt>
<trkpt lat="33.8103189" lon="-118.3940601">
  <ele>-0.108</ele>
  <time>2026-09-02T22:07:27Z</time>
  <course>7.1</course>
  <speed>1.782806775845324</speed>
  <fix>3d</fix>
</trkpt>
<trkpt lat="33.8103189" lon="-118.3940603">
  <ele>-0.108</ele>
  <time>2026-09-02T22:07:27Z</time>
  <course>7.1</course>
  <speed>1.782806775845324</speed>
  <fix>3d</fix>
</trkpt>
<trkpt lat="33.8103189" lon="-118.3940605">
  <ele>-0.108</ele>
  <time>2026-09-02T22:07:27Z</time>
  <course>7.1</course>
  <speed>1.782806775845324</speed>
  <fix>3d</fix>
</trkpt>
<trkpt lat="33.8103189" lon="-118.3940606">
  <ele>-0.108</ele>
  <time>2026-09-02T22:07:27Z</time>
  <course>7.11</course>
  <speed>1.782806775845324</speed>
  <fix>3d</fix>
</trkpt>
<trkpt lat="33.8103189" lon="-118.3940608">
  <ele>-0.108</ele>
  <time>2026-09-02T22:07:27Z</time>
  <course>7.11</course>
  <speed>1.782806775845324</speed>
  <fix>3d</fix>
</trkpt>
<trkpt lat="33.810319" lon="-118.3940609">
  <ele>-0.109</ele>
  <time>2026-09-02T22:07:27Z</time>
  <course>7.11</course>
  <speed>1.782806775845324</speed>
  <fix>3d</fix>
</trkpt>
<trkpt lat="33.810319" lon="-118.394061">
  <ele>-0.109</ele>
  <time>2026-09-02T22:07:27Z</time>
  <course>7.11</course>
  <speed>1.782806775845324</speed>
  <fix>3d</fix>
</trkpt>
<trkpt lat="33.8103191" lon="-118.3940583">
  <ele>-0.11</ele>
  <time>2026-09-02T22:07:27Z</time>
  <course>274.59</course>
  <speed>1.82</speed>
  <fix>3d</fix>
</trkpt>
<trkpt lat="33.810319" lon="-118.394061">
  <ele>-0.109</ele>
  <time>2026-09-02T22:07:27Z</time>
  <course>7.11</course>
  <speed>1.782806775845324</speed>
  <fix>3d</fix>
</trkpt>
<trkpt lat="33.810319" lon="-118.394062">
  <ele>-0.109</ele>
  <time>2026-09-02T22:07:27Z</time>
  <course>7.12</course>
  <speed>1.7833956375409243</speed>
  <fix>3d</fix>
</trkpt>
<trkpt lat="33.810319" lon="-118.3940622">
  <ele>-0.109</ele>
  <time>2026-09-02T22:07:27Z</time>
  <course>7.12</course>
  <speed>1.7833956375409243</speed>
  <fix>3d</fix>
</trkpt>
<trkpt lat="33.8103191" lon="-118.3940623">
  <ele>-0.109</ele>
  <time>2026-09-02T22:07:27Z</time>
  <course>7.12</course>
  <speed>1.7833956375409243</speed>
  <fix>3d</fix>
</trkpt>
<trkpt lat="33.8103191" lon="-118.3940625">
  <ele>-0.109</ele>
  <time>2026-09-02T22:07:27Z</time>
  <course>7.12</course>
  <speed>1.7833956375409243</speed>
  <fix>3d</fix>
</trkpt>
<trkpt lat="33.8103191" lon="-118.3940626">
  <ele>-0.109</ele>
  <time>2026-09-02T22:07:27Z</time>
  <course>7.13</course>
  <speed>1.7833956375409243</speed>
  <fix>3d</fix>
</trkpt>
<trkpt lat="33.8103191" lon="-118.3940628">
  <ele>-0.109</ele>
  <time>2026-09-02T22:07:27Z</time>
  <course>7.13</course>
  <speed>1.7833956375409243</speed>
  <fix>3d</fix>
</trkpt>
<trkpt lat="33.8103191" lon="-118.3940629">
  <ele>-0.109</ele>
  <time>2026-09-02T22:07:27Z</time>
  <course>7.13</course>
  <speed>1.7833956375409243</speed>
  <fix>3d</fix>
</trkpt>
<trkpt lat="33.8103191" lon="-118.3940629">
  <ele>-0.109</ele>
  <time>2026-09-02T22:07:27Z</time>
  <course>7.13</course>
  <speed>1.7833956375409243</speed>
  <fix>3d</fix>
</trkpt>
<trkpt lat="33.8103191" lon="-118.3940583">
  <ele>-0.11</ele>
  <time>2026-09-02T22:07:27Z</time>
  <course>274.59</course>
  <speed>1.82</speed>
  <fix>3d</fix>
</trkpt>
<trkpt lat="33.8103191" lon="-118.3940633">
  <ele>-0.109</ele>
  <time>2026-09-02T22:07:27Z</time>
  <course>7.13</course>
  <speed>1.7833956375409243</speed>
  <fix>3d</fix>
</trkpt>
<trkpt lat="33.8103191" lon="-118.3940634">
  <ele>-0.109</ele>
  <time>2026-09-02T22:07:27Z</time>
  <course>7.14</course>
  <speed>1.7833956375409243</speed>
  <fix>3d</fix>
</trkpt>
<trkpt lat="33.8103191" lon="-118.3940636">
  <ele>-0.109</ele>
  <time>2026-09-02T22:07:27Z</time>
  <course>7.14</course>
  <speed>1.7833956375409243</speed>
  <fix>3d</fix>
</trkpt>
<trkpt lat="33.8103191" lon="-118.3940637">
  <ele>-0.109</ele>
  <time>2026-09-02T22:07:27Z</time>
  <course>7.14</course>
  <speed>1.7833956375409243</speed>
  <fix>3d</fix>
</trkpt>
<trkpt lat="33.8103192" lon="-118.3940639">
  <ele>-0.109</ele>
  <time>2026-09-02T22:07:27Z</time>
  <course>7.14</course>
  <speed>1.7833956375409243</speed>
  <fix>3d</fix>
</trkpt>
<trkpt lat="33.8103192" lon="-118.394064">
  <ele>-0.109</ele>
  <time>2026-09-02T22:07:27Z</time>
  <course>7.14</course>
  <speed>1.7833956375409243</speed>
  <fix>3d</fix>
</trkpt>
<trkpt lat="33.8103192" lon="-118.3940642">
  <ele>-0.109</ele>
  <time>2026-09-02T22:07:27Z</time>
  <course>7.14</course>
  <speed>1.7833956375409243</speed>
  <fix>3d</fix>
</trkpt>
<trkpt lat="33.8103192" lon="-118.3940643">
  <ele>-0.109</ele>
  <time>2026-09-02T22:07:27Z</time>
  <course>7.14</course>
  <speed>1.7833956375409243</speed>
  <fix>3d</fix>
</trkpt>
<trkpt lat="33.8103192" lon="-118.3940645">
  <ele>-0.109</ele>
  <time>2026-09-02T22:07:27Z</time>
  <course>7.15</course>
  <speed>1.7833956375409243</speed>
  <fix>3d</fix>
</trkpt>
<trkpt lat="33.8103192" lon="-118.3940646">
  <ele>-0.109</ele>
  <time>2026-09-02T22:07:27Z</time>
  <course>7.15</course>
  <speed>1.7833956375409243</speed>
  <fix>3d</fix>
</trkpt>
<trkpt lat="33.8103192" lon="-118.3940648">
  <ele>-0.109</ele>
  <time>2026-09-02T22:07:27Z</time>
  <course>7.15</course>
  <speed>1.7833956375409243</speed>
  <fix>3d</fix>
</trkpt>
<trkpt lat="33.8103192" lon="-118.3940649">
  <ele>-0.109</ele>
  <time>2026-09-02T22:07:27Z</time>
  <course>7.15</course>
  <speed>1.7833956375409243</speed>
  <fix>3d</fix>
</trkpt>
<trkpt lat="33.8103194" lon="-118.3940623">
  <ele>-0.1</ele>
  <time>2026-09-02T22:07:27Z</time>
  <course>274.63</course>
  <speed>1.82</speed>
  <fix>3d</fix>
</trkpt>
<trkpt lat="33.8103192" lon="-118.3940649">
  <ele>-0.109</ele>
  <time>2026-09-02T22:07:27Z</time>
  <course>7.15</course>
  <speed>1.7833956375409243</speed>
  <fix>3d</fix>
</trkpt>
<trkpt lat="33.8103193" lon="-118.3940652">
  <ele>-0.109</ele>
  <time>2026-09-02T22:07:27Z</time>
  <course>7.15</course>
  <speed>1.7833956375409243</speed>
  <fix>3d</fix>
</trkpt>
<trkpt lat="33.8103193" lon="-118.3940654">
  <ele>-0.109</ele>
  <time>2026-09-02T22:07:27Z</time>
  <course>7.16</course>
  <speed>1.7833956375409243</speed>
  <fix>3d</fix>
</trkpt>
<trkpt lat="33.8103193" lon="-118.3940656">
  <ele>-0.109</ele>
  <time>2026-09-02T22:07:27Z</time>
  <course>7.16</course>
  <speed>1.7833956375409243</speed>
  <fix>3d</fix>
</trkpt>
<trkpt lat="33.8103193" lon="-118.3940658">
  <ele>-0.109</ele>
  <time>2026-09-02T22:07:27Z</time>
  <course>7.16</course>
  <speed>1.7833956375409243</speed>
  <fix>3d</fix>
</trkpt>
<trkpt lat="33.8103193" lon="-118.3940659">
  <ele>-0.109</ele>
  <time>2026-09-02T22:07:27Z</time>
  <course>7.16</course>
  <speed>1.7833956375409243</speed>
  <fix>3d</fix>
</trkpt>
<trkpt lat="33.8103193" lon="-118.3940661">
  <ele>-0.109</ele>
  <time>2026-09-02T22:07:27Z</time>
  <course>7.16</course>
  <speed>1.7833956375409243</speed>
  <fix>3d</fix>
</trkpt>
<trkpt lat="33.8103193" lon="-118.3940662">
  <ele>-0.109</ele>
  <time>2026-09-02T22:07:27Z</time>
  <course>7.16</course>
  <speed>1.7833956375409243</speed>
  <fix>3d</fix>
</trkpt>
<trkpt lat="33.8103193" lon="-118.3940664">
  <ele>-0.109</ele>
  <time>2026-09-02T22:07:27Z</time>
  <course>7.17</course>
  <speed>1.7833956375409243</speed>
  <fix>3d</fix>
</trkpt>
<trkpt lat="33.8103193" lon="-118.3940665">
  <ele>-0.109</ele>
  <time>2026-09-02T22:07:27Z</time>
  <course>7.17</course>
  <speed>1.7833956375409243</speed>
  <fix>3d</fix>
</trkpt>
<trkpt lat="33.8103193" lon="-118.3940666">
  <ele>-0.109</ele>
  <time>2026-09-02T22:07:27Z</time>
  <course>7.17</course>
  <speed>1.7833956375409243</speed>
  <fix>3d</fix>
</trkpt>
<trkpt lat="33.8103194" lon="-118.3940668">
  <ele>-0.109</ele>
  <time>2026-09-02T22:07:27Z</time>
  <course>7.17</course>
  <speed>1.7833956375409243</speed>
  <fix>3d</fix>
</trkpt>
<trkpt lat="33.8103194" lon="-118.3940668">
  <ele>-0.109</ele>
  <time>2026-09-02T22:07:27Z</time>
  <course>7.17</course>
  <speed>1.7833956375409243</speed>
  <fix>3d</fix>
</trkpt>
<trkpt lat="33.8103194" lon="-118.3940623">
  <ele>-0.1</ele>
  <time>2026-09-02T22:07:27Z</time>
  <course>274.63</course>
  <speed>1.82</speed>
  <fix>3d</fix>
</trkpt>
<trkpt lat="33.8103194" lon="-118.3940669">
  <ele>-0.109</ele>
  <time>2026-09-02T22:07:27Z</time>
  <course>7.17</course>
  <speed>1.7833956375409243</speed>
  <fix>3d</fix>
</trkpt>
<trkpt lat="33.8103194" lon="-118.3940673">
  <ele>-0.109</ele>
  <time>2026-09-02T22:07:27Z</time>
  <course>7.17</course>
  <speed>1.7833956375409243</speed>
  <fix>3d</fix>
</trkpt>
<trkpt lat="33.8103194" lon="-118.3940675">
  <ele>-0.109</ele>
  <time>2026-09-02T22:07:27Z</time>
  <course>7.18</course>
  <speed>1.7833956375409243</speed>
  <fix>3d</fix>
</trkpt>
<trkpt lat="33.8103194" lon="-118.3940677">
  <ele>-0.109</ele>
  <time>2026-09-02T22:07:27Z</time>
  <course>7.18</course>
  <speed>1.7833956375409243</speed>
  <fix>3d</fix>
</trkpt>
<trkpt lat="33.8103194" lon="-118.3940678">
  <ele>-0.109</ele>
  <time>2026-09-02T22:07:27Z</time>
  <course>7.18</course>
  <speed>1.7833956375409243</speed>
  <fix>3d</fix>
</trkpt>
<trkpt lat="33.8103194" lon="-118.394068">
  <ele>-0.108</ele>
  <time>2026-09-02T22:07:27Z</time>
  <course>7.18</course>
  <speed>1.7833956375409243</speed>
  <fix>3d</fix>
</trkpt>
<trkpt lat="33.8103195" lon="-118.3940681">
  <ele>-0.108</ele>
  <time>2026-09-02T22:07:27Z</time>
  <course>7.18</course>
  <speed>1.7833956375409243</speed>
  <fix>3d</fix>
</trkpt>
<trkpt lat="33.8103195" lon="-118.3940683">
  <ele>-0.108</ele>
  <time>2026-09-02T22:07:27Z</time>
  <course>7.19</course>
  <speed>1.7833956375409243</speed>
  <fix>3d</fix>
</trkpt>
<trkpt lat="33.8103195" lon="-118.3940684">
  <ele>-0.108</ele>
  <time>2026-09-02T22:07:27Z</time>
  <course>7.19</course>
  <speed>1.7833956375409243</speed>
  <fix>3d</fix>
</trkpt>
<trkpt lat="33.8103195" lon="-118.3940686">
  <ele>-0.108</ele>
  <time>2026-09-02T22:07:27Z</time>
  <course>7.19</course>
  <speed>1.7833956375409243</speed>
  <fix>3d</fix>
</trkpt>
<trkpt lat="33.8103195" lon="-118.3940687">
  <ele>-0.108</ele>
  <time>2026-09-02T22:07:27Z</time>
  <course>7.19</course>
  <speed>1.7833956375409243</speed>
  <fix>3d</fix>
</trkpt>
<trkpt lat="33.8103195" lon="-118.3940688">
  <ele>-0.108</ele>
  <time>2026-09-02T22:07:27Z</time>
  <course>7.19</course>
  <speed>1.7833956375409243</speed>
  <fix>3d</fix>
</trkpt>
<trkpt lat="33.8103196" lon="-118.3940662">
  <ele>-0.1</ele>
  <time>2026-09-02T22:07:27Z</time>
  <course>274.67</course>
  <speed>1.82</speed>
  <fix>3d</fix>
</trkpt>
<trkpt lat="33.8103195" lon="-118.3940688">
  <ele>-0.108</ele>
  <time>2026-09-02T22:07:27Z</time>
  <course>7.19</course>
  <speed>1.7833956375409243</speed>
  <fix>3d</fix>
</trkpt>
<trkpt lat="33.8103195" lon="-118.3940692">
  <ele>-0.108</ele>
  <time>2026-09-02T22:07:27Z</time>
  <course>7.19</course>
  <speed>1.7833956375409243</speed>
  <fix>3d</fix>
</trkpt>
<trkpt lat="33.8103195" lon="-118.3940694">
  <ele>-0.108</ele>
  <time>2026-09-02T22:07:27Z</time>
  <course>7.2</course>
  <speed>1.7833956375409243</speed>
  <fix>3d</fix>
</trkpt>
<trkpt lat="33.8103195" lon="-118.3940695">
  <ele>-0.108</ele>
  <time>2026-09-02T22:07:27Z</time>
  <course>7.2</course>
  <speed>1.7833956375409243</speed>
  <fix>3d</fix>
</trkpt>
<trkpt lat="33.8103196" lon="-118.3940697">
  <ele>-0.107</ele>
  <time>2026-09-02T22:07:27Z</time>
  <course>7.2</course>
  <speed>1.7833956375409243</speed>
  <fix>3d</fix>
</trkpt>
<trkpt lat="33.8103196" lon="-118.3940698">
  <ele>-0.107</ele>
  <time>2026-09-02T22:07:27Z</time>
  <course>7.2</course>
  <speed>1.7833956375409243</speed>
  <fix>3d</fix>
</trkpt>
<trkpt lat="33.8103196" lon="-118.39407">
  <ele>-0.107</ele>
  <time>2026-09-02T22:07:27Z</time>
  <course>7.2</course>
  <speed>1.7833956375409243</speed>
  <fix>3d</fix>
</trkpt>
<trkpt lat="33.8103196" lon="-118.3940701">
  <ele>-0.107</ele>
  <time>2026-09-02T22:07:27Z</time>
  <course>7.2</course>
  <speed>1.7833956375409243</speed>
  <fix>3d</fix>
</trkpt>
<trkpt lat="33.8103196" lon="-118.3940703">
  <ele>-0.107</ele>
  <time>2026-09-02T22:07:27Z</time>
  <course>7.2</course>
  <speed>1.7833956375409243</speed>
  <fix>3d</fix>
</trkpt>
<trkpt lat="33.8103196" lon="-118.3940704">
  <ele>-0.107</ele>
  <time>2026-09-02T22:07:27Z</time>
  <course>7.21</course>
  <speed>1.7833956375409243</speed>
  <fix>3d</fix>
</trkpt>
<trkpt lat="33.8103196" lon="-118.3940706">
  <ele>-0.107</ele>
  <time>2026-09-02T22:07:27Z</time>
  <course>7.21</course>
  <speed>1.7833956375409243</speed>
  <fix>3d</fix>
</trkpt>
<trkpt lat="33.8103196" lon="-118.3940707">
  <ele>-0.107</ele>
  <time>2026-09-02T22:07:27Z</time>
  <course>7.21</course>
  <speed>1.7833956375409243</speed>
  <fix>3d</fix>
</trkpt>
<trkpt lat="33.8103196" lon="-118.3940707">
  <ele>-0.107</ele>
  <time>2026-09-02T22:07:27Z</time>
  <course>7.21</course>
  <speed>1.7833956375409243</speed>
  <fix>3d</fix>
</trkpt>
<trkpt lat="33.8103196" lon="-118.3940662">
  <ele>-0.1</ele>
  <time>2026-09-02T22:07:27Z</time>
  <course>274.67</course>
  <speed>1.82</speed>
  <fix>3d</fix>
</trkpt>
<trkpt lat="33.8103196" lon="-118.3940708">
  <ele>-0.107</ele>
  <time>2026-09-02T22:07:27Z</time>
  <course>7.21</course>
  <speed>1.7833956375409243</speed>
  <fix>3d</fix>
</trkpt>
<trkpt lat="33.8103196" lon="-118.394071">
  <ele>-0.107</ele>
  <time>2026-09-02T22:07:27Z</time>
  <course>7.21</course>
  <speed>1.7833956375409243</speed>
  <fix>3d</fix>
</trkpt>
<trkpt lat="33.8103197" lon="-118.3940712">
  <ele>-0.107</ele>
  <time>2026-09-02T22:07:27Z</time>
  <course>7.22</course>
  <speed>1.7833956375409243</speed>
  <fix>3d</fix>
</trkpt>
<trkpt lat="33.8103197" lon="-118.3940714">
  <ele>-0.107</ele>
  <time>2026-09-02T22:07:27Z</time>
  <course>7.22</course>
  <speed>1.7833956375409243</speed>
  <fix>3d</fix>
</trkpt>
<trkpt lat="33.8103197" lon="-118.3940715">
  <ele>-0.107</ele>
  <time>2026-09-02T22:07:27Z</time>
  <course>7.22</course>
  <speed>1.7833956375409243</speed>
  <fix>3d</fix>
</trkpt>
<trkpt lat="33.8103197" lon="-118.3940716">
  <ele>-0.106</ele>
  <time>2026-09-02T22:07:27Z</time>
  <course>7.22</course>
  <speed>1.7833956375409243</speed>
  <fix>3d</fix>
</trkpt>
<trkpt lat="33.8103197" lon="-118.3940718">
  <ele>-0.106</ele>
  <time>2026-09-02T22:07:27Z</time>
  <course>7.22</course>
  <speed>1.7833956375409243</speed>
  <fix>3d</fix>
</trkpt>
<trkpt lat="33.8103197" lon="-118.3940719">
  <ele>-0.106</ele>
  <time>2026-09-02T22:07:27Z</time>
  <course>7.22</course>
  <speed>1.7833956375409243</speed>
  <fix>3d</fix>
</trkpt>
<trkpt lat="33.8103197" lon="-118.3940721">
  <ele>-0.106</ele>
  <time>2026-09-02T22:07:27Z</time>
  <course>7.22</course>
  <speed>1.7833956375409243</speed>
  <fix>3d</fix>
</trkpt>
<trkpt lat="33.8103197" lon="-118.3940723">
  <ele>-0.106</ele>
  <time>2026-09-02T22:07:27Z</time>
  <course>7.23</course>
  <speed>1.7833956375409243</speed>
  <fix>3d</fix>
</trkpt>
<trkpt lat="33.8103197" lon="-118.3940725">
  <ele>-0.106</ele>
  <time>2026-09-02T22:07:27Z</time>
  <course>7.23</course>
  <speed>1.7833956375409243</speed>
  <fix>3d</fix>
</trkpt>
<trkpt lat="33.8103198" lon="-118.3940726">
  <ele>-0.105</ele>
  <time>2026-09-02T22:07:27Z</time>
  <course>7.23</course>
  <speed>1.7833956375409243</speed>
  <fix>3d</fix>
</trkpt>
<trkpt lat="33.8103198" lon="-118.3940727">
  <ele>-0.105</ele>
  <time>2026-09-02T22:07:27Z</time>
  <course>7.23</course>
  <speed>1.7833956375409243</speed>
  <fix>3d</fix>
</trkpt>
<trkpt lat="33.8103199" lon="-118.3940701">
  <ele>-0.1</ele>
  <time>2026-09-02T22:07:27Z</time>
  <course>274.71</course>
  <speed>1.82</speed>
  <fix>3d</fix>
</trkpt>
<trkpt lat="33.8103198" lon="-118.3940728">
  <ele>-0.105</ele>
  <time>2026-09-02T22:07:27Z</time>
  <course>7.23</course>
  <speed>1.7833956375409243</speed>
  <fix>3d</fix>
</trkpt>
<trkpt lat="33.8103198" lon="-118.394073">
  <ele>-0.105</ele>
  <time>2026-09-02T22:07:27Z</time>
  <course>7.23</course>
  <speed>1.7833956375409243</speed>
  <fix>3d</fix>
</trkpt>
<trkpt lat="33.8103198" lon="-118.3940732">
  <ele>-0.105</ele>
  <time>2026-09-02T22:07:27Z</time>
  <course>7.23</course>
  <speed>1.7833956375409243</speed>
  <fix>3d</fix>
</trkpt>
<trkpt lat="33.8103198" lon="-118.3940733">
  <ele>-0.105</ele>
  <time>2026-09-02T22:07:27Z</time>
  <course>7.24</course>
  <speed>1.7833956375409243</speed>
  <fix>3d</fix>
</trkpt>
<trkpt lat="33.8103198" lon="-118.3940735">
  <ele>-0.105</ele>
  <time>2026-09-02T22:07:27Z</time>
  <course>7.24</course>
  <speed>1.7833956375409243</speed>
  <fix>3d</fix>
</trkpt>
<trkpt lat="33.8103198" lon="-118.3940736">
  <ele>-0.105</ele>
  <time>2026-09-02T22:07:27Z</time>
  <course>7.24</course>
  <speed>1.7833956375409243</speed>
  <fix>3d</fix>
</trkpt>
<trkpt lat="33.8103198" lon="-118.3940738">
  <ele>-0.104</ele>
  <time>2026-09-02T22:07:27Z</time>
  <course>7.24</course>
  <speed>1.7833956375409243</speed>
  <fix>3d</fix>
</trkpt>
<trkpt lat="33.8103198" lon="-118.394074">
  <ele>-0.104</ele>
  <time>2026-09-02T22:07:27Z</time>
  <course>7.24</course>
  <speed>1.7833956375409243</speed>
  <fix>3d</fix>
</trkpt>
<trkpt lat="33.8103199" lon="-118.3940741">
  <ele>-0.104</ele>
  <time>2026-09-02T22:07:27Z</time>
  <course>7.24</course>
  <speed>1.7833956375409243</speed>
  <fix>3d</fix>
</trkpt>
<trkpt lat="33.8103199" lon="-118.3940743">
  <ele>-0.104</ele>
  <time>2026-09-02T22:07:27Z</time>
  <course>7.25</course>
  <speed>1.7833956375409243</speed>
  <fix>3d</fix>
</trkpt>
<trkpt lat="33.8103199" lon="-118.3940744">
  <ele>-0.104</ele>
  <time>2026-09-02T22:07:27Z</time>
  <course>7.25</course>
  <speed>1.7833956375409243</speed>
  <fix>3d</fix>
</trkpt>
<trkpt lat="33.8103199" lon="-118.3940746">
  <ele>-0.104</ele>
  <time>2026-09-02T22:07:27Z</time>
  <course>7.25</course>
  <speed>1.7833956375409243</speed>
  <fix>3d</fix>
</trkpt>
<trkpt lat="33.8103199" lon="-118.3940747">
  <ele>-0.104</ele>
  <time>2026-09-02T22:07:27Z</time>
  <course>7.25</course>
  <speed>1.7833956375409243</speed>
  <fix>3d</fix>
</trkpt>
<trkpt lat="33.8103199" lon="-118.3940701">
  <ele>-0.1</ele>
  <time>2026-09-02T22:07:27Z</time>
  <course>274.71</course>
  <speed>1.82</speed>
  <fix>3d</fix>
</trkpt>
<trkpt lat="33.8103199" lon="-118.3940747">
  <ele>-0.104</ele>
  <time>2026-09-02T22:07:27Z</time>
  <course>7.25</course>
  <speed>1.7833956375409243</speed>
  <fix>3d</fix>
</trkpt>
<trkpt lat="33.8103199" lon="-118.3940749">
  <ele>-0.103</ele>
  <time>2026-09-02T22:07:27Z</time>
  <course>7.25</course>
  <speed>1.7833956375409243</speed>
  <fix>3d</fix>
</trkpt>
<trkpt lat="33.8103199" lon="-118.3940751">
  <ele>-0.103</ele>
  <time>2026-09-02T22:07:27Z</time>
  <course>7.25</course>
  <speed>1.7833956375409243</speed>
  <fix>3d</fix>
</trkpt>
<trkpt lat="33.8103199" lon="-118.3940753">
  <ele>-0.103</ele>
  <time>2026-09-02T22:07:27Z</time>
  <course>7.26</course>
  <speed>1.7833956375409243</speed>
  <fix>3d</fix>
</trkpt>
<trkpt lat="33.8103199" lon="-118.3940754">
  <ele>-0.103</ele>
  <time>2026-09-02T22:07:27Z</time>
  <course>7.26</course>
  <speed>1.7833956375409243</speed>
  <fix>3d</fix>
</trkpt>
<trkpt lat="33.81032" lon="-118.3940756">
  <ele>-0.103</ele>
  <time>2026-09-02T22:07:27Z</time>
  <course>7.26</course>
  <speed>1.7833956375409243</speed>
  <fix>3d</fix>
</trkpt>
<trkpt lat="33.81032" lon="-118.3940757">
  <ele>-0.103</ele>
  <time>2026-09-02T22:07:27Z</time>
  <course>7.26</course>
  <speed>1.7833956375409243</speed>
  <fix>3d</fix>
</trkpt>
<trkpt lat="33.81032" lon="-118.3940759">
  <ele>-0.103</ele>
  <time>2026-09-02T22:07:27Z</time>
  <course>7.26</course>
  <speed>1.7833956375409243</speed>
  <fix>3d</fix>
</trkpt>
<trkpt lat="33.81032" lon="-118.394076">
  <ele>-0.102</ele>
  <time>2026-09-02T22:07:27Z</time>
  <course>7.26</course>
  <speed>1.7833956375409243</speed>
  <fix>3d</fix>
</trkpt>
<trkpt lat="33.81032" lon="-118.3940762">
  <ele>-0.102</ele>
  <time>2026-09-02T22:07:27Z</time>
  <course>7.26</course>
  <speed>1.7833956375409243</speed>
  <fix>3d</fix>
</trkpt>
<trkpt lat="33.81032" lon="-118.3940764">
  <ele>-0.102</ele>
  <time>2026-09-02T22:07:27Z</time>
  <course>7.27</course>
  <speed>1.7833956375409243</speed>
  <fix>3d</fix>
</trkpt>
<trkpt lat="33.81032" lon="-118.3940765">
  <ele>-0.102</ele>
  <time>2026-09-02T22:07:27Z</time>
  <course>7.27</course>
  <speed>1.7833956375409243</speed>
  <fix>3d</fix>
</trkpt>
<trkpt lat="33.81032" lon="-118.3940766">
  <ele>-0.102</ele>
  <time>2026-09-02T22:07:27Z</time>
  <course>7.27</course>
  <speed>1.7833956375409243</speed>
  <fix>3d</fix>
</trkpt>
<trkpt lat="33.8103202" lon="-118.394074">
  <ele>-0.1</ele>
  <time>2026-09-02T22:07:27Z</time>
  <course>274.75</course>
  <speed>1.82</speed>
  <fix>3d</fix>
</trkpt>
<trkpt lat="33.81032" lon="-118.3940767">
  <ele>-0.102</ele>
  <time>2026-09-02T22:07:27Z</time>
  <course>7.27</course>
  <speed>1.7833956375409243</speed>
  <fix>3d</fix>
</trkpt>
<trkpt lat="33.8103201" lon="-118.3940771">
  <ele>-0.102</ele>
  <time>2026-09-02T22:07:27Z</time>
  <course>7.27</course>
  <speed>1.7833956375409243</speed>
  <fix>3d</fix>
</trkpt>
<trkpt lat="33.8103201" lon="-118.3940772">
  <ele>-0.102</ele>
  <time>2026-09-02T22:07:27Z</time>
  <course>7.27</course>
  <speed>1.7833956375409243</speed>
  <fix>3d</fix>
</trkpt>
<trkpt lat="33.8103201" lon="-118.3940774">
  <ele>-0.102</ele>
  <time>2026-09-02T22:07:27Z</time>
  <course>7.28</course>
  <speed>1.7833956375409243</speed>
  <fix>3d</fix>
</trkpt>
<trkpt lat="33.8103201" lon="-118.3940775">
  <ele>-0.102</ele>
  <time>2026-09-02T22:07:27Z</time>
  <course>7.28</course>
  <speed>1.7833956375409243</speed>
  <fix>3d</fix>
</trkpt>
<trkpt lat="33.8103201" lon="-118.3940777">
  <ele>-0.102</ele>
  <time>2026-09-02T22:07:27Z</time>
  <course>7.28</course>
  <speed>1.7833956375409243</speed>
  <fix>3d</fix>
</trkpt>
<trkpt lat="33.8103201" lon="-118.3940778">
  <ele>-0.101</ele>
  <time>2026-09-02T22:07:27Z</time>
  <course>7.28</course>
  <speed>1.7833956375409243</speed>
  <fix>3d</fix>
</trkpt>
<trkpt lat="33.8103201" lon="-118.394078">
  <ele>-0.101</ele>
  <time>2026-09-02T22:07:27Z</time>
  <course>7.28</course>
  <speed>1.7833956375409243</speed>
  <fix>3d</fix>
</trkpt>
<trkpt lat="33.8103201" lon="-118.3940782">
  <ele>-0.101</ele>
  <time>2026-09-02T22:07:27Z</time>
  <course>7.28</course>
  <speed>1.7833956375409243</speed>
  <fix>3d</fix>
</trkpt>
<trkpt lat="33.8103201" lon="-118.3940783">
  <ele>-0.101</ele>
  <time>2026-09-02T22:07:27Z</time>
  <course>7.29</course>
  <speed>1.7833956375409243</speed>
  <fix>3d</fix>
</trkpt>
<trkpt lat="33.8103202" lon="-118.3940785">
  <ele>-0.101</ele>
  <time>2026-09-02T22:07:27Z</time>
  <course>7.29</course>
  <speed>1.7833956375409243</speed>
  <fix>3d</fix>
</trkpt>
<trkpt lat="33.8103202" lon="-118.3940786">
  <ele>-0.101</ele>
  <time>2026-09-02T22:07:27Z</time>
  <course>7.29</course>
  <speed>1.7833956375409243</speed>
  <fix>3d</fix>
</trkpt>
<trkpt lat="33.8103202" lon="-118.394074">
  <ele>-0.1</ele>
  <time>2026-09-02T22:07:27Z</time>
  <course>274.75</course>
  <speed>1.82</speed>
  <fix>3d</fix>
</trkpt>
<trkpt lat="33.8103202" lon="-118.3940786">
  <ele>-0.101</ele>
  <time>2026-09-02T22:07:27Z</time>
  <course>7.29</course>
  <speed>1.7833956375409243</speed>
  <fix>3d</fix>
</trkpt>
<trkpt lat="33.8103202" lon="-118.3940789">
  <ele>-0.101</ele>
  <time>2026-09-02T22:07:27Z</time>
  <course>7.29</course>
  <speed>1.7833956375409243</speed>
  <fix>3d</fix>
</trkpt>
<trkpt lat="33.8103202" lon="-118.3940791">
  <ele>-0.101</ele>
  <time>2026-09-02T22:07:27Z</time>
  <course>7.29</course>
  <speed>1.7833956375409243</speed>
  <fix>3d</fix>
</trkpt>
<trkpt lat="33.8103202" lon="-118.3940792">
  <ele>-0.101</ele>
  <time>2026-09-02T22:07:27Z</time>
  <course>7.29</course>
  <speed>1.7833956375409243</speed>
  <fix>3d</fix>
</trkpt>
<trkpt lat="33.8103202" lon="-118.3940793">
  <ele>-0.101</ele>
  <time>2026-09-02T22:07:27Z</time>
  <course>7.3</course>
  <speed>1.7833956375409243</speed>
  <fix>3d</fix>
</trkpt>
<trkpt lat="33.8103202" lon="-118.3940795">
  <ele>-0.101</ele>
  <time>2026-09-02T22:07:27Z</time>
  <course>7.3</course>
  <speed>1.7833956375409243</speed>
  <fix>3d</fix>
</trkpt>
<trkpt lat="33.8103202" lon="-118.3940796">
  <ele>-0.101</ele>
  <time>2026-09-02T22:07:27Z</time>
  <course>7.3</course>
  <speed>1.7833956375409243</speed>
  <fix>3d</fix>
</trkpt>
<trkpt lat="33.8103202" lon="-118.3940798">
  <ele>-0.101</ele>
  <time>2026-09-02T22:07:27Z</time>
  <course>7.3</course>
  <speed>1.7833956375409243</speed>
  <fix>3d</fix>
</trkpt>
<trkpt lat="33.8103203" lon="-118.3940799">
  <ele>-0.101</ele>
  <time>2026-09-02T22:07:27Z</time>
  <course>7.3</course>
  <speed>1.7833956375409243</speed>
  <fix>3d</fix>
</trkpt>
<trkpt lat="33.8103203" lon="-118.3940801">
  <ele>-0.101</ele>
  <time>2026-09-02T22:07:27Z</time>
  <course>7.3</course>
  <speed>1.7833956375409243</speed>
  <fix>3d</fix>
</trkpt>
<trkpt lat="33.8103203" lon="-118.3940803">
  <ele>-0.101</ele>
  <time>2026-09-02T22:07:27Z</time>
  <course>7.3</course>
  <speed>1.7833956375409243</speed>
  <fix>3d</fix>
</trkpt>
<trkpt lat="33.8103203" lon="-118.3940804">
  <ele>-0.101</ele>
  <time>2026-09-02T22:07:27Z</time>
  <course>7.31</course>
  <speed>1.7833956375409243</speed>
  <fix>3d</fix>
</trkpt>
<trkpt lat="33.8103203" lon="-118.3940805">
  <ele>-0.101</ele>
  <time>2026-09-02T22:07:27Z</time>
  <course>7.31</course>
  <speed>1.7833956375409243</speed>
  <fix>3d</fix>
</trkpt>
<trkpt lat="33.8103205" lon="-118.394078">
  <ele>-0.1</ele>
  <time>2026-09-02T22:07:27Z</time>
  <course>274.79</course>
  <speed>1.82</speed>
  <fix>3d</fix>
</trkpt>
<trkpt lat="33.8103203" lon="-118.3940806">
  <ele>-0.101</ele>
  <time>2026-09-02T22:07:27Z</time>
  <course>7.31</course>
  <speed>1.7833956375409243</speed>
  <fix>3d</fix>
</trkpt>
<trkpt lat="33.8103203" lon="-118.3940809">
  <ele>-0.101</ele>
  <time>2026-09-02T22:07:27Z</time>
  <course>7.31</course>
  <speed>1.7833956375409243</speed>
  <fix>3d</fix>
</trkpt>
<trkpt lat="33.8103203" lon="-118.394081">
  <ele>-0.101</ele>
  <time>2026-09-02T22:07:27Z</time>
  <course>7.31</course>
  <speed>1.7833956375409243</speed>
  <fix>3d</fix>
</trkpt>
<trkpt lat="33.8103204" lon="-118.3940812">
  <ele>-0.101</ele>
  <time>2026-09-02T22:07:27Z</time>
  <course>7.31</course>
  <speed>1.7833956375409243</speed>
  <fix>3d</fix>
</trkpt>
<trkpt lat="33.8103204" lon="-118.3940813">
  <ele>-0.101</ele>
  <time>2026-09-02T22:07:27Z</time>
  <course>7.31</course>
  <speed>1.7833956375409243</speed>
  <fix>3d</fix>
</trkpt>
<trkpt lat="33.8103204" lon="-118.3940815">
  <ele>-0.101</ele>
  <time>2026-09-02T22:07:27Z</time>
  <course>7.32</course>
  <speed>1.7833956375409243</speed>
  <fix>3d</fix>
</trkpt>
<trkpt lat="33.8103204" lon="-118.3940816">
  <ele>-0.101</ele>
  <time>2026-09-02T22:07:27Z</time>
  <course>7.32</course>
  <speed>1.7833956375409243</speed>
  <fix>3d</fix>
</trkpt>
<trkpt lat="33.8103204" lon="-118.3940817">
  <ele>-0.101</ele>
  <time>2026-09-02T22:07:27Z</time>
  <course>7.32</course>
  <speed>1.7833956375409243</speed>
  <fix>3d</fix>
</trkpt>
<trkpt lat="33.8103204" lon="-118.3940819">
  <ele>-0.101</ele>
  <time>2026-09-02T22:07:27Z</time>
  <course>7.32</course>
  <speed>1.7833956375409243</speed>
  <fix>3d</fix>
</trkpt>
<trkpt lat="33.8103204" lon="-118.3940821">
  <ele>-0.101</ele>
  <time>2026-09-02T22:07:27Z</time>
  <course>7.32</course>
  <speed>1.7833956375409243</speed>
  <fix>3d</fix>
</trkpt>
<trkpt lat="33.8103204" lon="-118.3940822">
  <ele>-0.101</ele>
  <time>2026-09-02T22:07:27Z</time>
  <course>7.32</course>
  <speed>1.7833956375409243</speed>
  <fix>3d</fix>
</trkpt>
<trkpt lat="33.8103204" lon="-118.3940824">
  <ele>-0.101</ele>
  <time>2026-09-02T22:07:27Z</time>
  <course>7.32</course>
  <speed>1.7833956375409243</speed>
  <fix>3d</fix>
</trkpt>
<trkpt lat="33.8103204" lon="-118.3940825">
  <ele>-0.101</ele>
  <time>2026-09-02T22:07:27Z</time>
  <course>7.33</course>
  <speed>1.7833956375409243</speed>
  <fix>3d</fix>
</trkpt>
<trkpt lat="33.8103205" lon="-118.394078">
  <ele>-0.1</ele>
  <time>2026-09-02T22:07:27Z</time>
  <course>274.79</course>
  <speed>1.82</speed>
  <fix>3d</fix>
</trkpt>
<trkpt lat="33.8103204" lon="-118.3940825">
  <ele>-0.101</ele>
  <time>2026-09-02T22:07:27Z</time>
  <course>7.33</course>
  <speed>1.7833956375409243</speed>
  <fix>3d</fix>
</trkpt>
<trkpt lat="33.8103205" lon="-118.3940828">
  <ele>-0.101</ele>
  <time>2026-09-02T22:07:27Z</time>
  <course>7.33</course>
  <speed>1.7833956375409243</speed>
  <fix>3d</fix>
</trkpt>
<trkpt lat="33.8103205" lon="-118.3940829">
  <ele>-0.101</ele>
  <time>2026-09-02T22:07:27Z</time>
  <course>7.33</course>
  <speed>1.7833956375409243</speed>
  <fix>3d</fix>
</trkpt>
<trkpt lat="33.8103205" lon="-118.3940831">
  <ele>-0.101</ele>
  <time>2026-09-02T22:07:27Z</time>
  <course>7.33</course>
  <speed>1.7833956375409243</speed>
  <fix>3d</fix>
</trkpt>
<trkpt lat="33.8103205" lon="-118.3940833">
  <ele>-0.101</ele>
  <time>2026-09-02T22:07:27Z</time>
  <course>7.33</course>
  <speed>1.7833956375409243</speed>
  <fix>3d</fix>
</trkpt>
<trkpt lat="33.8103205" lon="-118.3940834">
  <ele>-0.102</ele>
  <time>2026-09-02T22:07:27Z</time>
  <course>7.33</course>
  <speed>1.7833956375409243</speed>
  <fix>3d</fix>
</trkpt>
<trkpt lat="33.8103205" lon="-118.3940835">
  <ele>-0.102</ele>
  <time>2026-09-02T22:07:27Z</time>
  <course>7.34</course>
  <speed>1.7833956375409243</speed>
  <fix>3d</fix>
</trkpt>
<trkpt lat="33.8103205" lon="-118.3940836">
  <ele>-0.102</ele>
  <time>2026-09-02T22:07:27Z</time>
  <course>7.34</course>
  <speed>1.7833956375409243</speed>
  <fix>3d</fix>
</trkpt>
<trkpt lat="33.8103205" lon="-118.3940838">
  <ele>-0.102</ele>
  <time>2026-09-02T22:07:27Z</time>
  <course>7.34</course>
  <speed>1.7833956375409243</speed>
  <fix>3d</fix>
</trkpt>
<trkpt lat="33.8103205" lon="-118.394084">
  <ele>-0.102</ele>
  <time>2026-09-02T22:07:27Z</time>
  <course>7.34</course>
  <speed>1.7833956375409243</speed>
  <fix>3d</fix>
</trkpt>
<trkpt lat="33.8103206" lon="-118.3940841">
  <ele>-0.102</ele>
  <time>2026-09-02T22:07:27Z</time>
  <course>7.34</course>
  <speed>1.7833956375409243</speed>
  <fix>3d</fix>
</trkpt>
<trkpt lat="33.8103206" lon="-118.3940843">
  <ele>-0.102</ele>
  <time>2026-09-02T22:07:27Z</time>
  <course>7.34</course>
  <speed>1.7833956375409243</speed>
  <fix>3d</fix>
</trkpt>
<trkpt lat="33.8103206" lon="-118.3940844">
  <ele>-0.102</ele>
  <time>2026-09-02T22:07:27Z</time>
  <course>7.34</course>
  <speed>1.7833956375409243</speed>
  <fix>3d</fix>
</trkpt>
<trkpt lat="33.8103206" lon="-118.3940844">
  <ele>-0.102</ele>
  <time>2026-09-02T22:07:27Z</time>
  <course>7.34</course>
  <speed>1.7833956375409243</speed>
  <fix>3d</fix>
</trkpt>
<trkpt lat="33.8103207" lon="-118.3940819">
  <ele>-0.1</ele>
  <time>2026-09-02T22:07:27Z</time>
  <course>274.83</course>
  <speed>1.82</speed>
  <fix>3d</fix>
</trkpt>
<trkpt lat="33.8103206" lon="-118.3940848">
  <ele>-0.102</ele>
  <time>2026-09-02T22:07:27Z</time>
  <course>7.35</course>
  <speed>1.7833956375409243</speed>
  <fix>3d</fix>
</trkpt>
<trkpt lat="33.8103206" lon="-118.394085">
  <ele>-0.102</ele>
  <time>2026-09-02T22:07:27Z</time>
  <course>7.35</course>
  <speed>1.7833956375409243</speed>
  <fix>3d</fix>
</trkpt>
<trkpt lat="33.8103206" lon="-118.3940851">
  <ele>-0.102</ele>
  <time>2026-09-02T22:07:27Z</time>
  <course>7.35</course>
  <speed>1.7833956375409243</speed>
  <fix>3d</fix>
</trkpt>
<trkpt lat="33.8103206" lon="-118.3940853">
  <ele>-0.103</ele>
  <time>2026-09-02T22:07:27Z</time>
  <course>7.35</course>
  <speed>1.7833956375409243</speed>
  <fix>3d</fix>
</trkpt>
<trkpt lat="33.8103207" lon="-118.3940854">
  <ele>-0.103</ele>
  <time>2026-09-02T22:07:27Z</time>
  <course>7.35</course>
  <speed>1.7833956375409243</speed>
  <fix>3d</fix>
</trkpt>
<trkpt lat="33.8103207" lon="-118.3940856">
  <ele>-0.103</ele>
  <time>2026-09-02T22:07:27Z</time>
  <course>7.36</course>
  <speed>1.7833956375409243</speed>
  <fix>3d</fix>
</trkpt>
<trkpt lat="33.8103207" lon="-118.3940857">
  <ele>-0.103</ele>
  <time>2026-09-02T22:07:27Z</time>
  <course>7.36</course>
  <speed>1.7833956375409243</speed>
  <fix>3d</fix>
</trkpt>
<trkpt lat="33.8103207" lon="-118.3940859">
  <ele>-0.103</ele>
  <time>2026-09-02T22:07:27Z</time>
  <course>7.36</course>
  <speed>1.7833956375409243</speed>
  <fix>3d</fix>
</trkpt>
<trkpt lat="33.8103207" lon="-118.3940861">
  <ele>-0.103</ele>
  <time>2026-09-02T22:07:27Z</time>
  <course>7.36</course>
  <speed>1.7833956375409243</speed>
  <fix>3d</fix>
</trkpt>
<trkpt lat="33.8103207" lon="-118.3940863">
  <ele>-0.104</ele>
  <time>2026-09-02T22:07:27Z</time>
  <course>7.36</course>
  <speed>1.7833956375409243</speed>
  <fix>3d</fix>
</trkpt>
<trkpt lat="33.8103207" lon="-118.3940864">
  <ele>-0.104</ele>
  <time>2026-09-02T22:07:27Z</time>
  <course>7.36</course>
  <speed>1.7833956375409243</speed>
  <fix>3d</fix>
</trkpt>
<trkpt lat="33.8103207" lon="-118.3940864">
  <ele>-0.104</ele>
  <time>2026-09-02T22:07:27Z</time>
  <course>7.36</course>
  <speed>1.7833956375409243</speed>
  <fix>3d</fix>
</trkpt>
<trkpt lat="33.8103207" lon="-118.3940819">
  <ele>-0.1</ele>
  <time>2026-09-02T22:07:27Z</time>
  <course>274.83</course>
  <speed>1.82</speed>
  <fix>3d</fix>
</trkpt>
<trkpt lat="33.8103207" lon="-118.3940867">
  <ele>-0.104</ele>
  <time>2026-09-02T22:07:27Z</time>
  <course>7.37</course>
  <speed>1.7833956375409243</speed>
  <fix>3d</fix>
</trkpt>
<trkpt lat="33.8103208" lon="-118.394087">
  <ele>-0.104</ele>
  <time>2026-09-02T22:07:27Z</time>
  <course>7.37</course>
  <speed>1.7833956375409243</speed>
  <fix>3d</fix>
</trkpt>
<trkpt lat="33.8103208" lon="-118.3940872">
  <ele>-0.104</ele>
  <time>2026-09-02T22:07:27Z</time>
  <course>7.37</course>
  <speed>1.7833956375409243</speed>
  <fix>3d</fix>
</trkpt>
<trkpt lat="33.8103208" lon="-118.3940873">
  <ele>-0.104</ele>
  <time>2026-09-02T22:07:27Z</time>
  <course>7.37</course>
  <speed>1.7833956375409243</speed>
  <fix>3d</fix>
</trkpt>
<trkpt lat="33.8103208" lon="-118.3940875">
  <ele>-0.104</ele>
  <time>2026-09-02T22:07:27Z</time>
  <course>7.37</course>
  <speed>1.784040358287895</speed>
  <fix>3d</fix>
</trkpt>
<trkpt lat="33.8103208" lon="-118.3940876">
  <ele>-0.104</ele>
  <time>2026-09-02T22:07:27Z</time>
  <course>7.38</course>
  <speed>1.784040358287895</speed>
  <fix>3d</fix>
</trkpt>
<trkpt lat="33.8103208" lon="-118.3940878">
  <ele>-0.105</ele>
  <time>2026-09-02T22:07:27Z</time>
  <course>7.38</course>
  <speed>1.784040358287895</speed>
  <fix>3d</fix>
</trkpt>
<trkpt lat="33.8103208" lon="-118.3940879">
  <ele>-0.105</ele>
  <time>2026-09-02T22:07:27Z</time>
  <course>7.38</course>
  <speed>1.784040358287895</speed>
  <fix>3d</fix>
</trkpt>
<trkpt lat="33.8103208" lon="-118.3940881">
  <ele>-0.105</ele>
  <time>2026-09-02T22:07:27Z</time>
  <course>7.38</course>
  <speed>1.784040358287895</speed>
  <fix>3d</fix>
</trkpt>
<trkpt lat="33.8103209" lon="-118.3940882">
  <ele>-0.105</ele>
  <time>2026-09-02T22:07:27Z</time>
  <course>7.38</course>
  <speed>1.784040358287895</speed>
  <fix>3d</fix>
</trkpt>
<trkpt lat="33.8103209" lon="-118.3940884">
  <ele>-0.105</ele>
  <time>2026-09-02T22:07:27Z</time>
  <course>7.38</course>
  <speed>1.784040358287895</speed>
  <fix>3d</fix>
</trkpt>
<trkpt lat="33.810321" lon="-118.3940858">
  <ele>-0.1</ele>
  <time>2026-09-02T22:07:27Z</time>
  <course>274.86</course>
  <speed>1.82</speed>
  <fix>3d</fix>
</trkpt>
<trkpt lat="33.8103209" lon="-118.3940884">
  <ele>-0.105</ele>
  <time>2026-09-02T22:07:27Z</time>
  <course>7.38</course>
  <speed>1.784040358287895</speed>
  <fix>3d</fix>
</trkpt>
<trkpt lat="33.8103209" lon="-118.3940888">
  <ele>-0.105</ele>
  <time>2026-09-02T22:07:27Z</time>
  <course>7.39</course>
  <speed>1.784040358287895</speed>
  <fix>3d</fix>
</trkpt>
<trkpt lat="33.8103209" lon="-118.394089">
  <ele>-0.105</ele>
  <time>2026-09-02T22:07:27Z</time>
  <course>7.39</course>
  <speed>1.784040358287895</speed>
  <fix>3d</fix>
</trkpt>
<trkpt lat="33.8103209" lon="-118.3940891">
  <ele>-0.105</ele>
  <time>2026-09-02T22:07:27Z</time>
  <course>7.39</course>
  <speed>1.784040358287895</speed>
  <fix>3d</fix>
</trkpt>
<trkpt lat="33.8103209" lon="-118.3940893">
  <ele>-0.106</ele>
  <time>2026-09-02T22:07:27Z</time>
  <course>7.39</course>
  <speed>1.784040358287895</speed>
  <fix>3d</fix>
</trkpt>
<trkpt lat="33.8103209" lon="-118.3940895">
  <ele>-0.106</ele>
  <time>2026-09-02T22:07:27Z</time>
  <course>7.39</course>
  <speed>1.784040358287895</speed>
  <fix>3d</fix>
</trkpt>
<trkpt lat="33.810321" lon="-118.3940897">
  <ele>-0.106</ele>
  <time>2026-09-02T22:07:27Z</time>
  <course>7.4</course>
  <speed>1.784040358287895</speed>
  <fix>3d</fix>
</trkpt>
<trkpt lat="33.810321" lon="-118.3940898">
  <ele>-0.106</ele>
  <time>2026-09-02T22:07:27Z</time>
  <course>7.4</course>
  <speed>1.784040358287895</speed>
  <fix>3d</fix>
</trkpt>
<trkpt lat="33.810321" lon="-118.39409">
  <ele>-0.106</ele>
  <time>2026-09-02T22:07:27Z</time>
  <course>7.4</course>
  <speed>1.784040358287895</speed>
  <fix>3d</fix>
</trkpt>
<trkpt lat="33.810321" lon="-118.3940901">
  <ele>-0.106</ele>
  <time>2026-09-02T22:07:27Z</time>
  <course>7.4</course>
  <speed>1.784040358287895</speed>
  <fix>3d</fix>
</trkpt>
<trkpt lat="33.810321" lon="-118.3940903">
  <ele>-0.106</ele>
  <time>2026-09-02T22:07:27Z</time>
  <course>7.4</course>
  <speed>1.784040358287895</speed>
  <fix>3d</fix>
</trkpt>
<trkpt lat="33.810321" lon="-118.3940903">
  <ele>-0.106</ele>
  <time>2026-09-02T22:07:27Z</time>
  <course>7.4</course>
  <speed>1.784040358287895</speed>
  <fix>3d</fix>
</trkpt>
<trkpt lat="33.810321" lon="-118.3940858">
  <ele>-0.1</ele>
  <time>2026-09-02T22:07:27Z</time>
  <course>274.86</course>
  <speed>1.82</speed>
  <fix>3d</fix>
</trkpt>
<trkpt lat="33.810321" lon="-118.3940904">
  <ele>-0.106</ele>
  <time>2026-09-02T22:07:27Z</time>
  <course>7.4</course>
  <speed>1.784040358287895</speed>
  <fix>3d</fix>
</trkpt>
<trkpt lat="33.810321" lon="-118.3940907">
  <ele>-0.106</ele>
  <time>2026-09-02T22:07:27Z</time>
  <course>7.4</course>
  <speed>1.784040358287895</speed>
  <fix>3d</fix>
</trkpt>
<trkpt lat="33.810321" lon="-118.3940908">
  <ele>-0.106</ele>
  <time>2026-09-02T22:07:27Z</time>
  <course>7.41</course>
  <speed>1.784040358287895</speed>
  <fix>3d</fix>
</trkpt>
<trkpt lat="33.810321" lon="-118.394091">
  <ele>-0.106</ele>
  <time>2026-09-02T22:07:27Z</time>
  <course>7.41</course>
  <speed>1.784040358287895</speed>
  <fix>3d</fix>
</trkpt>
<trkpt lat="33.8103211" lon="-118.3940912">
  <ele>-0.106</ele>
  <time>2026-09-02T22:07:27Z</time>
  <course>7.41</course>
  <speed>1.784040358287895</speed>
  <fix>3d</fix>
</trkpt>
<trkpt lat="33.8103211" lon="-118.3940913">
  <ele>-0.107</ele>
  <time>2026-09-02T22:07:27Z</time>
  <course>7.41</course>
  <speed>1.784040358287895</speed>
  <fix>3d</fix>
</trkpt>
<trkpt lat="33.8103211" lon="-118.3940914">
  <ele>-0.107</ele>
  <time>2026-09-02T22:07:27Z</time>
  <course>7.41</course>
  <speed>1.784040358287895</speed>
  <fix>3d</fix>
</trkpt>
<trkpt lat="33.8103211" lon="-118.3940916">
  <ele>-0.107</ele>
  <time>2026-09-02T22:07:27Z</time>
  <course>7.41</course>
  <speed>1.784040358287895</speed>
  <fix>3d</fix>
</trkpt>
<trkpt lat="33.8103211" lon="-118.3940918">
  <ele>-0.107</ele>
  <time>2026-09-02T22:07:27Z</time>
  <course>7.42</course>
  <speed>1.784040358287895</speed>
  <fix>3d</fix>
</trkpt>
<trkpt lat="33.8103211" lon="-118.394092">
  <ele>-0.107</ele>
  <time>2026-09-02T22:07:27Z</time>
  <course>7.42</course>
  <speed>1.784040358287895</speed>
  <fix>3d</fix>
</trkpt>
<trkpt lat="33.8103211" lon="-118.3940922">
  <ele>-0.107</ele>
  <time>2026-09-02T22:07:27Z</time>
  <course>7.42</course>
  <speed>1.784040358287895</speed>
  <fix>3d</fix>
</trkpt>
<trkpt lat="33.8103211" lon="-118.3940923">
  <ele>-0.107</ele>
  <time>2026-09-02T22:07:27Z</time>
  <course>7.42</course>
  <speed>1.784040358287895</speed>
  <fix>3d</fix>
</trkpt>
<trkpt lat="33.8103213" lon="-118.3940897">
  <ele>-0.1</ele>
  <time>2026-09-02T22:07:27Z</time>
  <course>274.9</course>
  <speed>1.82</speed>
  <fix>3d</fix>
</trkpt>
<trkpt lat="33.8103211" lon="-118.3940923">
  <ele>-0.107</ele>
  <time>2026-09-02T22:07:27Z</time>
  <course>7.42</course>
  <speed>1.784040358287895</speed>
  <fix>3d</fix>
</trkpt>
<trkpt lat="33.8103212" lon="-118.3940925">
  <ele>-0.107</ele>
  <time>2026-09-02T22:07:27Z</time>
  <course>7.42</course>
  <speed>1.784040358287895</speed>
  <fix>3d</fix>
</trkpt>
<trkpt lat="33.8103212" lon="-118.3940927">
  <ele>-0.107</ele>
  <time>2026-09-02T22:07:27Z</time>
  <course>7.42</course>
  <speed>1.784040358287895</speed>
  <fix>3d</fix>
</trkpt>
<trkpt lat="33.8103212" lon="-118.3940929">
  <ele>-0.107</ele>
  <time>2026-09-02T22:07:27Z</time>
  <course>7.43</course>
  <speed>1.784040358287895</speed>
  <fix>3d</fix>
</trkpt>
<trkpt lat="33.8103212" lon="-118.3940931">
  <ele>-0.106</ele>
  <time>2026-09-02T22:07:27Z</time>
  <course>7.43</course>
  <speed>1.784040358287895</speed>
  <fix>3d</fix>
</trkpt>
<trkpt lat="33.8103212" lon="-118.3940933">
  <ele>-0.107</ele>
  <time>2026-09-02T22:07:27Z</time>
  <course>7.43</course>
  <speed>1.784040358287895</speed>
  <fix>3d</fix>
</trkpt>
<trkpt lat="33.8103212" lon="-118.3940935">
  <ele>-0.106</ele>
  <time>2026-09-02T22:07:27Z</time>
  <course>7.43</course>
  <speed>1.784040358287895</speed>
  <fix>3d</fix>
</trkpt>
<trkpt lat="33.8103212" lon="-118.3940936">
  <ele>-0.106</ele>
  <time>2026-09-02T22:07:27Z</time>
  <course>7.43</course>
  <speed>1.784040358287895</speed>
  <fix>3d</fix>
</trkpt>
<trkpt lat="33.8103213" lon="-118.3940938">
  <ele>-0.106</ele>
  <time>2026-09-02T22:07:27Z</time>
  <course>7.43</course>
  <speed>1.784040358287895</speed>
  <fix>3d</fix>
</trkpt>
<trkpt lat="33.8103213" lon="-118.3940939">
  <ele>-0.106</ele>
  <time>2026-09-02T22:07:27Z</time>
  <course>7.44</course>
  <speed>1.784040358287895</speed>
  <fix>3d</fix>
</trkpt>
<trkpt lat="33.8103213" lon="-118.3940941">
  <ele>-0.106</ele>
  <time>2026-09-02T22:07:27Z</time>
  <course>7.44</course>
  <speed>1.784040358287895</speed>
  <fix>3d</fix>
</trkpt>
<trkpt lat="33.8103213" lon="-118.3940942">
  <ele>-0.106</ele>
  <time>2026-09-02T22:07:27Z</time>
  <course>7.44</course>
  <speed>1.784040358287895</speed>
  <fix>3d</fix>
</trkpt>
<trkpt lat="33.8103213" lon="-118.3940897">
  <ele>-0.1</ele>
  <time>2026-09-02T22:07:27Z</time>
  <course>274.9</course>
  <speed>1.82</speed>
  <fix>3d</fix>
</trkpt>
<trkpt lat="33.8103213" lon="-118.3940943">
  <ele>-0.106</ele>
  <time>2026-09-02T22:07:27Z</time>
  <course>7.44</course>
  <speed>1.784040358287895</speed>
  <fix>3d</fix>
</trkpt>
<trkpt lat="33.8103213" lon="-118.3940947">
  <ele>-0.106</ele>
  <time>2026-09-02T22:07:27Z</time>
  <course>7.44</course>
  <speed>1.784040358287895</speed>
  <fix>3d</fix>
</trkpt>
<trkpt lat="33.8103213" lon="-118.3940949">
  <ele>-0.106</ele>
  <time>2026-09-02T22:07:27Z</time>
  <course>7.44</course>
  <speed>1.784040358287895</speed>
  <fix>3d</fix>
</trkpt>
<trkpt lat="33.8103213" lon="-118.3940951">
  <ele>-0.106</ele>
  <time>2026-09-02T22:07:27Z</time>
  <course>7.45</course>
  <speed>1.784040358287895</speed>
  <fix>3d</fix>
</trkpt>
<trkpt lat="33.8103214" lon="-118.3940953">
  <ele>-0.106</ele>
  <time>2026-09-02T22:07:27Z</time>
  <course>7.45</course>
  <speed>1.784040358287895</speed>
  <fix>3d</fix>
</trkpt>
<trkpt lat="33.8103214" lon="-118.3940955">
  <ele>-0.106</ele>
  <time>2026-09-02T22:07:27Z</time>
  <course>7.45</course>
  <speed>1.784040358287895</speed>
  <fix>3d</fix>
</trkpt>
<trkpt lat="33.8103214" lon="-118.3940956">
  <ele>-0.106</ele>
  <time>2026-09-02T22:07:27Z</time>
  <course>7.45</course>
  <speed>1.784040358287895</speed>
  <fix>3d</fix>
</trkpt>
<trkpt lat="33.8103214" lon="-118.3940957">
  <ele>-0.106</ele>
  <time>2026-09-02T22:07:27Z</time>
  <course>7.45</course>
  <speed>1.784040358287895</speed>
  <fix>3d</fix>
</trkpt>
<trkpt lat="33.8103214" lon="-118.3940959">
  <ele>-0.106</ele>
  <time>2026-09-02T22:07:27Z</time>
  <course>7.45</course>
  <speed>1.784040358287895</speed>
  <fix>3d</fix>
</trkpt>
<trkpt lat="33.8103214" lon="-118.3940961">
  <ele>-0.106</ele>
  <time>2026-09-02T22:07:27Z</time>
  <course>7.46</course>
  <speed>1.784040358287895</speed>
  <fix>3d</fix>
</trkpt>
<trkpt lat="33.8103214" lon="-118.3940962">
  <ele>-0.106</ele>
  <time>2026-09-02T22:07:27Z</time>
  <course>7.46</course>
  <speed>1.784040358287895</speed>
  <fix>3d</fix>
</trkpt>
<trkpt lat="33.8103216" lon="-118.3940936">
  <ele>-0.1</ele>
  <time>2026-09-02T22:07:27Z</time>
  <course>274.94</course>
  <speed>1.82</speed>
  <fix>3d</fix>
</trkpt>
<trkpt lat="33.8103214" lon="-118.3940962">
  <ele>-0.106</ele>
  <time>2026-09-02T22:07:27Z</time>
  <course>7.46</course>
  <speed>1.784040358287895</speed>
  <fix>3d</fix>
</trkpt>
<trkpt lat="33.8103215" lon="-118.3940965">
  <ele>-0.105</ele>
  <time>2026-09-02T22:07:27Z</time>
  <course>7.46</course>
  <speed>1.784040358287895</speed>
  <fix>3d</fix>
</trkpt>
<trkpt lat="33.8103215" lon="-118.3940967">
  <ele>-0.105</ele>
  <time>2026-09-02T22:07:27Z</time>
  <course>7.46</course>
  <speed>1.784040358287895</speed>
  <fix>3d</fix>
</trkpt>
<trkpt lat="33.8103215" lon="-118.3940969">
  <ele>-0.105</ele>
  <time>2026-09-02T22:07:27Z</time>
  <course>7.46</course>
  <speed>1.784040358287895</speed>
  <fix>3d</fix>
</trkpt>
<trkpt lat="33.8103215" lon="-118.394097">
  <ele>-0.105</ele>
  <time>2026-09-02T22:07:27Z</time>
  <course>7.46</course>
  <speed>1.784040358287895</speed>
  <fix>3d</fix>
</trkpt>
<trkpt lat="33.8103215" lon="-118.3940972">
  <ele>-0.105</ele>
  <time>2026-09-02T22:07:27Z</time>
  <course>7.47</course>
  <speed>1.784040358287895</speed>
  <fix>3d</fix>
</trkpt>
<trkpt lat="33.8103215" lon="-118.3940973">
  <ele>-0.105</ele>
  <time>2026-09-02T22:07:27Z</time>
  <course>7.47</course>
  <speed>1.784040358287895</speed>
  <fix>3d</fix>
</trkpt>
<trkpt lat="33.8103215" lon="-118.3940975">
  <ele>-0.105</ele>
  <time>2026-09-02T22:07:27Z</time>
  <course>7.47</course>
  <speed>1.784040358287895</speed>
  <fix>3d</fix>
</trkpt>
<trkpt lat="33.8103215" lon="-118.3940976">
  <ele>-0.105</ele>
  <time>2026-09-02T22:07:27Z</time>
  <course>7.47</course>
  <speed>1.784040358287895</speed>
  <fix>3d</fix>
</trkpt>
<trkpt lat="33.8103215" lon="-118.3940978">
  <ele>-0.105</ele>
  <time>2026-09-02T22:07:27Z</time>
  <course>7.47</course>
  <speed>1.784040358287895</speed>
  <fix>3d</fix>
</trkpt>
<trkpt lat="33.8103216" lon="-118.3940979">
  <ele>-0.105</ele>
  <time>2026-09-02T22:07:27Z</time>
  <course>7.47</course>
  <speed>1.784040358287895</speed>
  <fix>3d</fix>
</trkpt>
<trkpt lat="33.8103216" lon="-118.394098">
  <ele>-0.105</ele>
  <time>2026-09-02T22:07:27Z</time>
  <course>7.47</course>
  <speed>1.784040358287895</speed>
  <fix>3d</fix>
</trkpt>
<trkpt lat="33.8103216" lon="-118.3940981">
  <ele>-0.105</ele>
  <time>2026-09-02T22:07:27Z</time>
  <course>7.47</course>
  <speed>1.784040358287895</speed>
  <fix>3d</fix>
</trkpt>
<trkpt lat="33.8103216" lon="-118.3940936">
  <ele>-0.1</ele>
  <time>2026-09-02T22:07:27Z</time>
  <course>274.94</course>
  <speed>1.82</speed>
  <fix>3d</fix>
</trkpt>
<trkpt lat="33.8103216" lon="-118.3940982">
  <ele>-0.105</ele>
  <time>2026-09-02T22:07:27Z</time>
  <course>7.47</course>
  <speed>1.784040358287895</speed>
  <fix>3d</fix>
</trkpt>
<trkpt lat="33.8103216" lon="-118.3940985">
  <ele>-0.104</ele>
  <time>2026-09-02T22:07:27Z</time>
  <course>7.48</course>
  <speed>1.784040358287895</speed>
  <fix>3d</fix>
</trkpt>
<trkpt lat="33.8103216" lon="-118.3940987">
  <ele>-0.104</ele>
  <time>2026-09-02T22:07:27Z</time>
  <course>7.48</course>
  <speed>1.784040358287895</speed>
  <fix>3d</fix>
</trkpt>
<trkpt lat="33.8103216" lon="-118.3940988">
  <ele>-0.104</ele>
  <time>2026-09-02T22:07:27Z</time>
  <course>7.48</course>
  <speed>1.784040358287895</speed>
  <fix>3d</fix>
</trkpt>
<trkpt lat="33.8103216" lon="-118.394099">
  <ele>-0.104</ele>
  <time>2026-09-02T22:07:27Z</time>
  <course>7.48</course>
  <speed>1.784040358287895</speed>
  <fix>3d</fix>
</trkpt>
<trkpt lat="33.8103217" lon="-118.3940997">
  <ele>-0.104</ele>
  <time>2026-09-02T22:07:27Z</time>
  <course>7.49</course>
  <speed>1.784040358287895</speed>
  <fix>3d</fix>
</trkpt>
<trkpt lat="33.8103217" lon="-118.3940999">
  <ele>-0.104</ele>
  <time>2026-09-02T22:07:27Z</time>
  <course>7.49</course>
  <speed>1.784040358287895</speed>
  <fix>3d</fix>
</trkpt>
<trkpt lat="33.8103217" lon="-118.3941001">
  <ele>-0.104</ele>
  <time>2026-09-02T22:07:27Z</time>
  <course>7.49</course>
  <speed>1.784040358287895</speed>
  <fix>3d</fix>
</trkpt>
<trkpt lat="33.8103217" lon="-118.3941001">
  <ele>-0.104</ele>
  <time>2026-09-02T22:07:27Z</time>
  <course>7.49</course>
  <speed>1.784040358287895</speed>
  <fix>3d</fix>
</trkpt>
<trkpt lat="33.8103219" lon="-118.3940976">
  <ele>-0.1</ele>
  <time>2026-09-02T22:07:27Z</time>
  <course>274.98</course>
  <speed>1.82</speed>
  <fix>3d</fix>
</trkpt>
<trkpt lat="33.8103217" lon="-118.3941001">
  <ele>-0.104</ele>
  <time>2026-09-02T22:07:27Z</time>
  <course>7.49</course>
  <speed>1.784040358287895</speed>
  <fix>3d</fix>
</trkpt>
<trkpt lat="33.8103217" lon="-118.3941004">
  <ele>-0.104</ele>
  <time>2026-09-02T22:07:27Z</time>
  <course>7.5</course>
  <speed>1.784040358287895</speed>
  <fix>3d</fix>
</trkpt>
<trkpt lat="33.8103218" lon="-118.3941006">
  <ele>-0.104</ele>
  <time>2026-09-02T22:07:27Z</time>
  <course>7.5</course>
  <speed>1.784040358287895</speed>
  <fix>3d</fix>
</trkpt>
<trkpt lat="33.8103218" lon="-118.3941008">
  <ele>-0.104</ele>
  <time>2026-09-02T22:07:27Z</time>
  <course>7.5</course>
  <speed>1.784040358287895</speed>
  <fix>3d</fix>
</trkpt>
<trkpt lat="33.8103218" lon="-118.394101">
  <ele>-0.104</ele>
  <time>2026-09-02T22:07:27Z</time>
  <course>7.5</course>
  <speed>1.784040358287895</speed>
  <fix>3d</fix>
</trkpt>
<trkpt lat="33.8103218" lon="-118.3941012">
  <ele>-0.104</ele>
  <time>2026-09-02T22:07:27Z</time>
  <course>7.5</course>
  <speed>1.784040358287895</speed>
  <fix>3d</fix>
</trkpt>
<trkpt lat="33.8103218" lon="-118.3941014">
  <ele>-0.104</ele>
  <time>2026-09-02T22:07:27Z</time>
  <course>7.5</course>
  <speed>1.784040358287895</speed>
  <fix>3d</fix>
</trkpt>
<trkpt lat="33.8103218" lon="-118.3941016">
  <ele>-0.104</ele>
  <time>2026-09-02T22:07:27Z</time>
  <course>7.51</course>
  <speed>1.784040358287895</speed>
  <fix>3d</fix>
</trkpt>
<trkpt lat="33.8103218" lon="-118.3941017">
  <ele>-0.104</ele>
  <time>2026-09-02T22:07:27Z</time>
  <course>7.51</course>
  <speed>1.784040358287895</speed>
  <fix>3d</fix>
</trkpt>
<trkpt lat="33.8103219" lon="-118.3941019">
  <ele>-0.104</ele>
  <time>2026-09-02T22:07:27Z</time>
  <course>7.51</course>
  <speed>1.784040358287895</speed>
  <fix>3d</fix>
</trkpt>
<trkpt lat="33.8103219" lon="-118.394102">
  <ele>-0.104</ele>
  <time>2026-09-02T22:07:27Z</time>
  <course>7.51</course>
  <speed>1.784040358287895</speed>
  <fix>3d</fix>
</trkpt>
<trkpt lat="33.8103219" lon="-118.3941021">
  <ele>-0.104</ele>
  <time>2026-09-02T22:07:27Z</time>
  <course>7.51</course>
  <speed>1.784040358287895</speed>
  <fix>3d</fix>
</trkpt>
<trkpt lat="33.8103219" lon="-118.3940976">
  <ele>-0.1</ele>
  <time>2026-09-02T22:07:27Z</time>
  <course>274.98</course>
  <speed>1.82</speed>
  <fix>3d</fix>
</trkpt>
<trkpt lat="33.8103219" lon="-118.3941021">
  <ele>-0.104</ele>
  <time>2026-09-02T22:07:27Z</time>
  <course>7.51</course>
  <speed>1.784040358287895</speed>
  <fix>3d</fix>
</trkpt>
<trkpt lat="33.8103219" lon="-118.3941024">
  <ele>-0.104</ele>
  <time>2026-09-02T22:07:27Z</time>
  <course>7.51</course>
  <speed>1.784040358287895</speed>
  <fix>3d</fix>
</trkpt>
<trkpt lat="33.8103219" lon="-118.3941026">
  <ele>-0.104</ele>
  <time>2026-09-02T22:07:27Z</time>
  <course>7.52</course>
  <speed>1.784040358287895</speed>
  <fix>3d</fix>
</trkpt>
<trkpt lat="33.8103219" lon="-118.3941028">
  <ele>-0.104</ele>
  <time>2026-09-02T22:07:27Z</time>
  <course>7.52</course>
  <speed>1.784040358287895</speed>
  <fix>3d</fix>
</trkpt>
<trkpt lat="33.8103219" lon="-118.394103">
  <ele>-0.104</ele>
  <time>2026-09-02T22:07:27Z</time>
  <course>7.52</course>
  <speed>1.784040358287895</speed>
  <fix>3d</fix>
</trkpt>
<trkpt lat="33.8103219" lon="-118.3941031">
  <ele>-0.104</ele>
  <time>2026-09-02T22:07:27Z</time>
  <course>7.52</course>
  <speed>1.784040358287895</speed>
  <fix>3d</fix>
</trkpt>
<trkpt lat="33.810322" lon="-118.3941033">
  <ele>-0.104</ele>
  <time>2026-09-02T22:07:27Z</time>
  <course>7.52</course>
  <speed>1.784040358287895</speed>
  <fix>3d</fix>
</trkpt>
<trkpt lat="33.810322" lon="-118.3941034">
  <ele>-0.104</ele>
  <time>2026-09-02T22:07:27Z</time>
  <course>7.52</course>
  <speed>1.784040358287895</speed>
  <fix>3d</fix>
</trkpt>
<trkpt lat="33.810322" lon="-118.3941036">
  <ele>-0.104</ele>
  <time>2026-09-02T22:07:27Z</time>
  <course>7.52</course>
  <speed>1.784040358287895</speed>
  <fix>3d</fix>
</trkpt>
<trkpt lat="33.810322" lon="-118.3941038">
  <ele>-0.104</ele>
  <time>2026-09-02T22:07:27Z</time>
  <course>7.53</course>
  <speed>1.784040358287895</speed>
  <fix>3d</fix>
</trkpt>
<trkpt lat="33.810322" lon="-118.3941039">
  <ele>-0.105</ele>
  <time>2026-09-02T22:07:27Z</time>
  <course>7.53</course>
  <speed>1.784040358287895</speed>
  <fix>3d</fix>
</trkpt>
<trkpt lat="33.810322" lon="-118.394104">
  <ele>-0.104</ele>
  <time>2026-09-02T22:07:27Z</time>
  <course>7.53</course>
  <speed>1.784040358287895</speed>
  <fix>3d</fix>
</trkpt>
<trkpt lat="33.8103221" lon="-118.3941015">
  <ele>-0.1</ele>
  <time>2026-09-02T22:07:27Z</time>
  <course>275.02</course>
  <speed>1.82</speed>
  <fix>3d</fix>
</trkpt>
<trkpt lat="33.810322" lon="-118.394104">
  <ele>-0.104</ele>
  <time>2026-09-02T22:07:27Z</time>
  <course>7.53</course>
  <speed>1.784040358287895</speed>
  <fix>3d</fix>
</trkpt>
<trkpt lat="33.810322" lon="-118.3941043">
  <ele>-0.105</ele>
  <time>2026-09-02T22:07:27Z</time>
  <course>7.53</course>
  <speed>1.784040358287895</speed>
  <fix>3d</fix>
</trkpt>
<trkpt lat="33.810322" lon="-118.3941045">
  <ele>-0.105</ele>
  <time>2026-09-02T22:07:27Z</time>
  <course>7.53</course>
  <speed>1.784040358287895</speed>
  <fix>3d</fix>
</trkpt>
<trkpt lat="33.8103221" lon="-118.3941046">
  <ele>-0.105</ele>
  <time>2026-09-02T22:07:27Z</time>
  <course>7.53</course>
  <speed>1.784040358287895</speed>
  <fix>3d</fix>
</trkpt>
<trkpt lat="33.8103221" lon="-118.3941048">
  <ele>-0.105</ele>
  <time>2026-09-02T22:07:27Z</time>
  <course>7.54</course>
  <speed>1.784040358287895</speed>
  <fix>3d</fix>
</trkpt>
<trkpt lat="33.8103221" lon="-118.3941049">
  <ele>-0.105</ele>
  <time>2026-09-02T22:07:27Z</time>
  <course>7.54</course>
  <speed>1.784040358287895</speed>
  <fix>3d</fix>
</trkpt>
<trkpt lat="33.8103221" lon="-118.3941051">
  <ele>-0.105</ele>
  <time>2026-09-02T22:07:27Z</time>
  <course>7.54</course>
  <speed>1.784040358287895</speed>
  <fix>3d</fix>
</trkpt>
<trkpt lat="33.8103221" lon="-118.3941052">
  <ele>-0.105</ele>
  <time>2026-09-02T22:07:27Z</time>
  <course>7.54</course>
  <speed>1.784040358287895</speed>
  <fix>3d</fix>
</trkpt>
<trkpt lat="33.8103221" lon="-118.3941054">
  <ele>-0.105</ele>
  <time>2026-09-02T22:07:27Z</time>
  <course>7.54</course>
  <speed>1.784040358287895</speed>
  <fix>3d</fix>
</trkpt>
<trkpt lat="33.8103221" lon="-118.3941056">
  <ele>-0.105</ele>
  <time>2026-09-02T22:07:27Z</time>
  <course>7.54</course>
  <speed>1.784040358287895</speed>
  <fix>3d</fix>
</trkpt>
<trkpt lat="33.8103221" lon="-118.3941057">
  <ele>-0.105</ele>
  <time>2026-09-02T22:07:27Z</time>
  <course>7.54</course>
  <speed>1.784040358287895</speed>
  <fix>3d</fix>
</trkpt>
<trkpt lat="33.8103221" lon="-118.3941059">
  <ele>-0.105</ele>
  <time>2026-09-02T22:07:27Z</time>
  <course>7.54</course>
  <speed>1.784040358287895</speed>
  <fix>3d</fix>
</trkpt>
<trkpt lat="33.8103222" lon="-118.394106">
  <ele>-0.105</ele>
  <time>2026-09-02T22:07:27Z</time>
  <course>7.55</course>
  <speed>1.784040358287895</speed>
  <fix>3d</fix>
</trkpt>
<trkpt lat="33.8103221" lon="-118.3941015">
  <ele>-0.1</ele>
  <time>2026-09-02T22:07:27Z</time>
  <course>275.02</course>
  <speed>1.82</speed>
  <fix>3d</fix>
</trkpt>
<trkpt lat="33.8103222" lon="-118.394106">
  <ele>-0.105</ele>
  <time>2026-09-02T22:07:27Z</time>
  <course>7.55</course>
  <speed>1.784040358287895</speed>
  <fix>3d</fix>
</trkpt>
<trkpt lat="33.8103222" lon="-118.3941062">
  <ele>-0.106</ele>
  <time>2026-09-02T22:07:27Z</time>
  <course>7.55</course>
  <speed>1.784040358287895</speed>
  <fix>3d</fix>
</trkpt>
<trkpt lat="33.8103222" lon="-118.3941064">
  <ele>-0.106</ele>
  <time>2026-09-02T22:07:27Z</time>
  <course>7.55</course>
  <speed>1.784040358287895</speed>
  <fix>3d</fix>
</trkpt>
<trkpt lat="33.8103222" lon="-118.3941066">
  <ele>-0.106</ele>
  <time>2026-09-02T22:07:27Z</time>
  <course>7.55</course>
  <speed>1.784040358287895</speed>
  <fix>3d</fix>
</trkpt>
<trkpt lat="33.8103222" lon="-118.3941068">
  <ele>-0.106</ele>
  <time>2026-09-02T22:07:27Z</time>
  <course>7.55</course>
  <speed>1.784040358287895</speed>
  <fix>3d</fix>
</trkpt>
<trkpt lat="33.8103222" lon="-118.3941069">
  <ele>-0.106</ele>
  <time>2026-09-02T22:07:27Z</time>
  <course>7.55</course>
  <speed>1.784040358287895</speed>
  <fix>3d</fix>
</trkpt>
<trkpt lat="33.8103222" lon="-118.3941071">
  <ele>-0.106</ele>
  <time>2026-09-02T22:07:27Z</time>
  <course>7.56</course>
  <speed>1.784040358287895</speed>
  <fix>3d</fix>
</trkpt>
<trkpt lat="33.8103222" lon="-118.3941072">
  <ele>-0.106</ele>
  <time>2026-09-02T22:07:27Z</time>
  <course>7.56</course>
  <speed>1.784040358287895</speed>
  <fix>3d</fix>
</trkpt>
<trkpt lat="33.8103223" lon="-118.3941074">
  <ele>-0.106</ele>
  <time>2026-09-02T22:07:27Z</time>
  <course>7.56</course>
  <speed>1.784040358287895</speed>
  <fix>3d</fix>
</trkpt>
<trkpt lat="33.8103223" lon="-118.3941075">
  <ele>-0.106</ele>
  <time>2026-09-02T22:07:27Z</time>
  <course>7.56</course>
  <speed>1.784040358287895</speed>
  <fix>3d</fix>
</trkpt>
<trkpt lat="33.8103223" lon="-118.3941077">
  <ele>-0.106</ele>
  <time>2026-09-02T22:07:27Z</time>
  <course>7.56</course>
  <speed>1.784040358287895</speed>
  <fix>3d</fix>
</trkpt>
<trkpt lat="33.8103223" lon="-118.3941079">
  <ele>-0.106</ele>
  <time>2026-09-02T22:07:27Z</time>
  <course>7.56</course>
  <speed>1.784040358287895</speed>
  <fix>3d</fix>
</trkpt>
<trkpt lat="33.8103223" lon="-118.3941079">
  <ele>-0.106</ele>
  <time>2026-09-02T22:07:27Z</time>
  <course>7.56</course>
  <speed>1.784040358287895</speed>
  <fix>3d</fix>
</trkpt>
<trkpt lat="33.8103224" lon="-118.3941054">
  <ele>-0.1</ele>
  <time>2026-09-02T22:07:27Z</time>
  <course>275.06</course>
  <speed>1.82</speed>
  <fix>3d</fix>
</trkpt>
<trkpt lat="33.8103223" lon="-118.394108">
  <ele>-0.106</ele>
  <time>2026-09-02T22:07:27Z</time>
  <course>7.56</course>
  <speed>1.784040358287895</speed>
  <fix>3d</fix>
</trkpt>
<trkpt lat="33.8103223" lon="-118.3941082">
  <ele>-0.106</ele>
  <time>2026-09-02T22:07:27Z</time>
  <course>7.57</course>
  <speed>1.784040358287895</speed>
  <fix>3d</fix>
</trkpt>
<trkpt lat="33.8103223" lon="-118.3941085">
  <ele>-0.106</ele>
  <time>2026-09-02T22:07:27Z</time>
  <course>7.57</course>
  <speed>1.784040358287895</speed>
  <fix>3d</fix>
</trkpt>
<trkpt lat="33.8103224" lon="-118.3941086">
  <ele>-0.106</ele>
  <time>2026-09-02T22:07:27Z</time>
  <course>7.57</course>
  <speed>1.784040358287895</speed>
  <fix>3d</fix>
</trkpt>
<trkpt lat="33.8103224" lon="-118.3941088">
  <ele>-0.106</ele>
  <time>2026-09-02T22:07:27Z</time>
  <course>7.57</course>
  <speed>1.784040358287895</speed>
  <fix>3d</fix>
</trkpt>
<trkpt lat="33.8103224" lon="-118.394109">
  <ele>-0.106</ele>
  <time>2026-09-02T22:07:27Z</time>
  <course>7.57</course>
  <speed>1.784040358287895</speed>
  <fix>3d</fix>
</trkpt>
<trkpt lat="33.8103224" lon="-118.3941091">
  <ele>-0.106</ele>
  <time>2026-09-02T22:07:27Z</time>
  <course>7.57</course>
  <speed>1.784040358287895</speed>
  <fix>3d</fix>
</trkpt>
<trkpt lat="33.8103224" lon="-118.3941093">
  <ele>-0.106</ele>
  <time>2026-09-02T22:07:27Z</time>
  <course>7.58</course>
  <speed>1.784040358287895</speed>
  <fix>3d</fix>
</trkpt>
<trkpt lat="33.8103224" lon="-118.3941095">
  <ele>-0.106</ele>
  <time>2026-09-02T22:07:27Z</time>
  <course>7.58</course>
  <speed>1.784040358287895</speed>
  <fix>3d</fix>
</trkpt>
<trkpt lat="33.8103224" lon="-118.3941097">
  <ele>-0.106</ele>
  <time>2026-09-02T22:07:27Z</time>
  <course>7.58</course>
  <speed>1.784040358287895</speed>
  <fix>3d</fix>
</trkpt>
<trkpt lat="33.8103224" lon="-118.3941098">
  <ele>-0.106</ele>
  <time>2026-09-02T22:07:27Z</time>
  <course>7.58</course>
  <speed>1.784040358287895</speed>
  <fix>3d</fix>
</trkpt>
<trkpt lat="33.8103224" lon="-118.3941099">
  <ele>-0.106</ele>
  <time>2026-09-02T22:07:27Z</time>
  <course>7.58</course>
  <speed>1.784040358287895</speed>
  <fix>3d</fix>
</trkpt>
<trkpt lat="33.8103224" lon="-118.3941054">
  <ele>-0.1</ele>
  <time>2026-09-02T22:07:27Z</time>
  <course>275.06</course>
  <speed>1.82</speed>
  <fix>3d</fix>
</trkpt>
<trkpt lat="33.8103224" lon="-118.3941099">
  <ele>-0.106</ele>
  <time>2026-09-02T22:07:27Z</time>
  <course>7.58</course>
  <speed>1.784040358287895</speed>
  <fix>3d</fix>
</trkpt>
<trkpt lat="33.8103225" lon="-118.3941105">
  <ele>-0.107</ele>
  <time>2026-09-02T22:07:27Z</time>
  <course>7.59</course>
  <speed>1.784040358287895</speed>
  <fix>3d</fix>
</trkpt>
<trkpt lat="33.8103225" lon="-118.3941107">
  <ele>-0.107</ele>
  <time>2026-09-02T22:07:27Z</time>
  <course>7.59</course>
  <speed>1.784040358287895</speed>
  <fix>3d</fix>
</trkpt>
<trkpt lat="33.8103225" lon="-118.3941109">
  <ele>-0.107</ele>
  <time>2026-09-02T22:07:27Z</time>
  <course>7.59</course>
  <speed>1.784040358287895</speed>
  <fix>3d</fix>
</trkpt>
<trkpt lat="33.8103225" lon="-118.394111">
  <ele>-0.107</ele>
  <time>2026-09-02T22:07:27Z</time>
  <course>7.59</course>
  <speed>1.784040358287895</speed>
  <fix>3d</fix>
</trkpt>
<trkpt lat="33.8103225" lon="-118.3941112">
  <ele>-0.107</ele>
  <time>2026-09-02T22:07:27Z</time>
  <course>7.59</course>
  <speed>1.784040358287895</speed>
  <fix>3d</fix>
</trkpt>
<trkpt lat="33.8103225" lon="-118.3941113">
  <ele>-0.107</ele>
  <time>2026-09-02T22:07:27Z</time>
  <course>7.59</course>
  <speed>1.784040358287895</speed>
  <fix>3d</fix>
</trkpt>
<trkpt lat="33.8103226" lon="-118.3941115">
  <ele>-0.107</ele>
  <time>2026-09-02T22:07:27Z</time>
  <course>7.59</course>
  <speed>1.784040358287895</speed>
  <fix>3d</fix>
</trkpt>
<trkpt lat="33.8103226" lon="-118.3941116">
  <ele>-0.107</ele>
  <time>2026-09-02T22:07:27Z</time>
  <course>7.6</course>
  <speed>1.784040358287895</speed>
  <fix>3d</fix>
</trkpt>
<trkpt lat="33.8103226" lon="-118.3941118">
  <ele>-0.108</ele>
  <time>2026-09-02T22:07:27Z</time>
  <course>7.6</course>
  <speed>1.784040358287895</speed>
  <fix>3d</fix>
</trkpt>
<trkpt lat="33.8103226" lon="-118.3941119">
  <ele>-0.108</ele>
  <time>2026-09-02T22:07:27Z</time>
  <course>7.6</course>
  <speed>1.784040358287895</speed>
  <fix>3d</fix>
</trkpt>
<trkpt lat="33.8103227" lon="-118.3941094">
  <ele>-0.1</ele>
  <time>2026-09-02T22:07:27Z</time>
  <course>275.1</course>
  <speed>1.82</speed>
  <fix>3d</fix>
</trkpt>
<trkpt lat="33.8103226" lon="-118.3941119">
  <ele>-0.108</ele>
  <time>2026-09-02T22:07:27Z</time>
  <course>7.6</course>
  <speed>1.784040358287895</speed>
  <fix>3d</fix>
</trkpt>
<trkpt lat="33.8103226" lon="-118.3941121">
  <ele>-0.108</ele>
  <time>2026-09-02T22:07:27Z</time>
  <course>7.6</course>
  <speed>1.784040358287895</speed>
  <fix>3d</fix>
</trkpt>
<trkpt lat="33.8103226" lon="-118.3941123">
  <ele>-0.108</ele>
  <time>2026-09-02T22:07:27Z</time>
  <course>7.6</course>
  <speed>1.7847408775505762</speed>
  <fix>3d</fix>
</trkpt>
<trkpt lat="33.8103226" lon="-118.3941125">
  <ele>-0.108</ele>
  <time>2026-09-02T22:07:27Z</time>
  <course>7.6</course>
  <speed>1.7847408775505762</speed>
  <fix>3d</fix>
</trkpt>
<trkpt lat="33.8103226" lon="-118.3941126">
  <ele>-0.108</ele>
  <time>2026-09-02T22:07:27Z</time>
  <course>7.61</course>
  <speed>1.7847408775505762</speed>
  <fix>3d</fix>
</trkpt>
<trkpt lat="33.8103227" lon="-118.3941128">
  <ele>-0.109</ele>
  <time>2026-09-02T22:07:27Z</time>
  <course>7.61</course>
  <speed>1.7847408775505762</speed>
  <fix>3d</fix>
</trkpt>
<trkpt lat="33.8103227" lon="-118.3941129">
  <ele>-0.109</ele>
  <time>2026-09-02T22:07:27Z</time>
  <course>7.61</course>
  <speed>1.7847408775505762</speed>
  <fix>3d</fix>
</trkpt>
<trkpt lat="33.8103227" lon="-118.3941131">
  <ele>-0.109</ele>
  <time>2026-09-02T22:07:27Z</time>
  <course>7.61</course>
  <speed>1.7847408775505762</speed>
  <fix>3d</fix>
</trkpt>
<trkpt lat="33.8103227" lon="-118.3941132">
  <ele>-0.109</ele>
  <time>2026-09-02T22:07:27Z</time>
  <course>7.61</course>
  <speed>1.7847408775505762</speed>
  <fix>3d</fix>
</trkpt>
<trkpt lat="33.8103227" lon="-118.3941134">
  <ele>-0.109</ele>
  <time>2026-09-02T22:07:27Z</time>
  <course>7.61</course>
  <speed>1.7847408775505762</speed>
  <fix>3d</fix>
</trkpt>
<trkpt lat="33.8103227" lon="-118.3941135">
  <ele>-0.109</ele>
  <time>2026-09-02T22:07:27Z</time>
  <course>7.61</course>
  <speed>1.7847408775505762</speed>
  <fix>3d</fix>
</trkpt>
<trkpt lat="33.8103227" lon="-118.3941137">
  <ele>-0.11</ele>
  <time>2026-09-02T22:07:27Z</time>
  <course>7.61</course>
  <speed>1.7847408775505762</speed>
  <fix>3d</fix>
</trkpt>
<trkpt lat="33.8103227" lon="-118.3941138">
  <ele>-0.11</ele>
  <time>2026-09-02T22:07:27Z</time>
  <course>7.62</course>
  <speed>1.7847408775505762</speed>
  <fix>3d</fix>
</trkpt>
<trkpt lat="33.8103227" lon="-118.3941094">
  <ele>-0.1</ele>
  <time>2026-09-02T22:07:27Z</time>
  <course>275.1</course>
  <speed>1.82</speed>
  <fix>3d</fix>
</trkpt>
<trkpt lat="33.8103227" lon="-118.3941139">
  <ele>-0.11</ele>
  <time>2026-09-02T22:07:27Z</time>
  <course>7.62</course>
  <speed>1.7847408775505762</speed>
  <fix>3d</fix>
</trkpt>
<trkpt lat="33.8103228" lon="-118.3941141">
  <ele>-0.11</ele>
  <time>2026-09-02T22:07:27Z</time>
  <course>7.62</course>
  <speed>1.7847408775505762</speed>
  <fix>3d</fix>
</trkpt>
<trkpt lat="33.8103228" lon="-118.3941143">
  <ele>-0.11</ele>
  <time>2026-09-02T22:07:27Z</time>
  <course>7.62</course>
  <speed>1.7847408775505762</speed>
  <fix>3d</fix>
</trkpt>
<trkpt lat="33.8103228" lon="-118.3941145">
  <ele>-0.11</ele>
  <time>2026-09-02T22:07:27Z</time>
  <course>7.62</course>
  <speed>1.7847408775505762</speed>
  <fix>3d</fix>
</trkpt>
<trkpt lat="33.8103228" lon="-118.3941147">
  <ele>-0.11</ele>
  <time>2026-09-02T22:07:27Z</time>
  <course>7.62</course>
  <speed>1.7847408775505762</speed>
  <fix>3d</fix>
</trkpt>
<trkpt lat="33.8103228" lon="-118.3941148">
  <ele>-0.111</ele>
  <time>2026-09-02T22:07:27Z</time>
  <course>7.62</course>
  <speed>1.7847408775505762</speed>
  <fix>3d</fix>
</trkpt>
<trkpt lat="33.8103228" lon="-118.394115">
  <ele>-0.111</ele>
  <time>2026-09-02T22:07:27Z</time>
  <course>7.63</course>
  <speed>1.7847408775505762</speed>
  <fix>3d</fix>
</trkpt>
<trkpt lat="33.8103228" lon="-118.3941151">
  <ele>-0.111</ele>
  <time>2026-09-02T22:07:27Z</time>
  <course>7.63</course>
  <speed>1.7847408775505762</speed>
  <fix>3d</fix>
</trkpt>
<trkpt lat="33.8103228" lon="-118.3941153">
  <ele>-0.111</ele>
  <time>2026-09-02T22:07:27Z</time>
  <course>7.63</course>
  <speed>1.7847408775505762</speed>
  <fix>3d</fix>
</trkpt>
<trkpt lat="33.8103229" lon="-118.3941155">
  <ele>-0.111</ele>
  <time>2026-09-02T22:07:27Z</time>
  <course>7.63</course>
  <speed>1.7847408775505762</speed>
  <fix>3d</fix>
</trkpt>
<trkpt lat="33.8103229" lon="-118.3941157">
  <ele>-0.111</ele>
  <time>2026-09-02T22:07:27Z</time>
  <course>7.63</course>
  <speed>1.7847408775505762</speed>
  <fix>3d</fix>
</trkpt>
<trkpt lat="33.8103229" lon="-118.3941158">
  <ele>-0.111</ele>
  <time>2026-09-02T22:07:27Z</time>
  <course>7.63</course>
  <speed>1.7847408775505762</speed>
  <fix>3d</fix>
</trkpt>
<trkpt lat="33.810323" lon="-118.3941133">
  <ele>-0.1</ele>
  <time>2026-09-02T22:07:27Z</time>
  <course>275.13</course>
  <speed>1.82</speed>
  <fix>3d</fix>
</trkpt>
<trkpt lat="33.8103229" lon="-118.3941158">
  <ele>-0.111</ele>
  <time>2026-09-02T22:07:27Z</time>
  <course>7.63</course>
  <speed>1.7847408775505762</speed>
  <fix>3d</fix>
</trkpt>
<trkpt lat="33.8103229" lon="-118.3941161">
  <ele>-0.111</ele>
  <time>2026-09-02T22:07:27Z</time>
  <course>7.64</course>
  <speed>1.7847408775505762</speed>
  <fix>3d</fix>
</trkpt>
<trkpt lat="33.8103229" lon="-118.3941162">
  <ele>-0.111</ele>
  <time>2026-09-02T22:07:27Z</time>
  <course>7.64</course>
  <speed>1.7847408775505762</speed>
  <fix>3d</fix>
</trkpt>
<trkpt lat="33.8103229" lon="-118.3941164">
  <ele>-0.111</ele>
  <time>2026-09-02T22:07:27Z</time>
  <course>7.64</course>
  <speed>1.7847408775505762</speed>
  <fix>3d</fix>
</trkpt>
<trkpt lat="33.8103229" lon="-118.3941166">
  <ele>-0.111</ele>
  <time>2026-09-02T22:07:27Z</time>
  <course>7.64</course>
  <speed>1.7847408775505762</speed>
  <fix>3d</fix>
</trkpt>
<trkpt lat="33.810323" lon="-118.3941168">
  <ele>-0.111</ele>
  <time>2026-09-02T22:07:27Z</time>
  <course>7.64</course>
  <speed>1.7847408775505762</speed>
  <fix>3d</fix>
</trkpt>
<trkpt lat="33.810323" lon="-118.3941169">
  <ele>-0.111</ele>
  <time>2026-09-02T22:07:27Z</time>
  <course>7.64</course>
  <speed>1.7847408775505762</speed>
  <fix>3d</fix>
</trkpt>
<trkpt lat="33.810323" lon="-118.3941171">
  <ele>-0.112</ele>
  <time>2026-09-02T22:07:27Z</time>
  <course>7.64</course>
  <speed>1.7847408775505762</speed>
  <fix>3d</fix>
</trkpt>
<trkpt lat="33.810323" lon="-118.3941172">
  <ele>-0.112</ele>
  <time>2026-09-02T22:07:27Z</time>
  <course>7.65</course>
  <speed>1.7847408775505762</speed>
  <fix>3d</fix>
</trkpt>
<trkpt lat="33.810323" lon="-118.3941174">
  <ele>-0.112</ele>
  <time>2026-09-02T22:07:27Z</time>
  <course>7.65</course>
  <speed>1.7847408775505762</speed>
  <fix>3d</fix>
</trkpt>
<trkpt lat="33.810323" lon="-118.3941176">
  <ele>-0.112</ele>
  <time>2026-09-02T22:07:27Z</time>
  <course>7.65</course>
  <speed>1.7847408775505762</speed>
  <fix>3d</fix>
</trkpt>
<trkpt lat="33.810323" lon="-118.3941177">
  <ele>-0.112</ele>
  <time>2026-09-02T22:07:27Z</time>
  <course>7.65</course>
  <speed>1.7847408775505762</speed>
  <fix>3d</fix>
</trkpt>
<trkpt lat="33.810323" lon="-118.3941133">
  <ele>-0.1</ele>
  <time>2026-09-02T22:07:27Z</time>
  <course>275.13</course>
  <speed>1.82</speed>
  <fix>3d</fix>
</trkpt>
<trkpt lat="33.810323" lon="-118.3941178">
  <ele>-0.112</ele>
  <time>2026-09-02T22:07:27Z</time>
  <course>7.65</course>
  <speed>1.7847408775505762</speed>
  <fix>3d</fix>
</trkpt>
<trkpt lat="33.8103231" lon="-118.3941181">
  <ele>-0.112</ele>
  <time>2026-09-02T22:07:27Z</time>
  <course>7.65</course>
  <speed>1.7847408775505762</speed>
  <fix>3d</fix>
</trkpt>
<trkpt lat="33.8103231" lon="-118.3941182">
  <ele>-0.112</ele>
  <time>2026-09-02T22:07:27Z</time>
  <course>7.65</course>
  <speed>1.7847408775505762</speed>
  <fix>3d</fix>
</trkpt>
<trkpt lat="33.8103231" lon="-118.3941184">
  <ele>-0.112</ele>
  <time>2026-09-02T22:07:27Z</time>
  <course>7.66</course>
  <speed>1.7847408775505762</speed>
  <fix>3d</fix>
</trkpt>
<trkpt lat="33.8103231" lon="-118.3941185">
  <ele>-0.112</ele>
  <time>2026-09-02T22:07:27Z</time>
  <course>7.66</course>
  <speed>1.7847408775505762</speed>
  <fix>3d</fix>
</trkpt>
<trkpt lat="33.8103231" lon="-118.3941187">
  <ele>-0.113</ele>
  <time>2026-09-02T22:07:27Z</time>
  <course>7.66</course>
  <speed>1.7847408775505762</speed>
  <fix>3d</fix>
</trkpt>
<trkpt lat="33.8103231" lon="-118.3941189">
  <ele>-0.113</ele>
  <time>2026-09-02T22:07:27Z</time>
  <course>7.66</course>
  <speed>1.7847408775505762</speed>
  <fix>3d</fix>
</trkpt>
<trkpt lat="33.8103231" lon="-118.394119">
  <ele>-0.113</ele>
  <time>2026-09-02T22:07:27Z</time>
  <course>7.66</course>
  <speed>1.7847408775505762</speed>
  <fix>3d</fix>
</trkpt>
<trkpt lat="33.8103231" lon="-118.3941192">
  <ele>-0.113</ele>
  <time>2026-09-02T22:07:27Z</time>
  <course>7.66</course>
  <speed>1.7847408775505762</speed>
  <fix>3d</fix>
</trkpt>
<trkpt lat="33.8103232" lon="-118.3941193">
  <ele>-0.113</ele>
  <time>2026-09-02T22:07:27Z</time>
  <course>7.66</course>
  <speed>1.7847408775505762</speed>
  <fix>3d</fix>
</trkpt>
<trkpt lat="33.8103232" lon="-118.3941195">
  <ele>-0.113</ele>
  <time>2026-09-02T22:07:27Z</time>
  <course>7.66</course>
  <speed>1.7847408775505762</speed>
  <fix>3d</fix>
</trkpt>
<trkpt lat="33.8103232" lon="-118.3941196">
  <ele>-0.114</ele>
  <time>2026-09-02T22:07:27Z</time>
  <course>7.67</course>
  <speed>1.7847408775505762</speed>
  <fix>3d</fix>
</trkpt>
<trkpt lat="33.8103232" lon="-118.3941197">
  <ele>-0.114</ele>
  <time>2026-09-02T22:07:27Z</time>
  <course>7.67</course>
  <speed>1.7847408775505762</speed>
  <fix>3d</fix>
</trkpt>
<trkpt lat="33.8103233" lon="-118.3941172">
  <ele>-0.1</ele>
  <time>2026-09-02T22:07:27Z</time>
  <course>275.17</course>
  <speed>1.82</speed>
  <fix>3d</fix>
</trkpt>
<trkpt lat="33.8103232" lon="-118.3941197">
  <ele>-0.114</ele>
  <time>2026-09-02T22:07:27Z</time>
  <course>7.67</course>
  <speed>1.7847408775505762</speed>
  <fix>3d</fix>
</trkpt>
<trkpt lat="33.8103232" lon="-118.39412">
  <ele>-0.114</ele>
  <time>2026-09-02T22:07:27Z</time>
  <course>7.67</course>
  <speed>1.7847408775505762</speed>
  <fix>3d</fix>
</trkpt>
<trkpt lat="33.8103232" lon="-118.3941201">
  <ele>-0.114</ele>
  <time>2026-09-02T22:07:27Z</time>
  <course>7.67</course>
  <speed>1.7847408775505762</speed>
  <fix>3d</fix>
</trkpt>
<trkpt lat="33.8103232" lon="-118.3941203">
  <ele>-0.114</ele>
  <time>2026-09-02T22:07:27Z</time>
  <course>7.67</course>
  <speed>1.7847408775505762</speed>
  <fix>3d</fix>
</trkpt>
<trkpt lat="33.8103232" lon="-118.3941205">
  <ele>-0.114</ele>
  <time>2026-09-02T22:07:27Z</time>
  <course>7.67</course>
  <speed>1.7847408775505762</speed>
  <fix>3d</fix>
</trkpt>
<trkpt lat="33.8103233" lon="-118.3941206">
  <ele>-0.114</ele>
  <time>2026-09-02T22:07:27Z</time>
  <course>7.68</course>
  <speed>1.7847408775505762</speed>
  <fix>3d</fix>
</trkpt>
<trkpt lat="33.8103233" lon="-118.3941208">
  <ele>-0.114</ele>
  <time>2026-09-02T22:07:27Z</time>
  <course>7.68</course>
  <speed>1.7847408775505762</speed>
  <fix>3d</fix>
</trkpt>
<trkpt lat="33.8103233" lon="-118.394121">
  <ele>-0.114</ele>
  <time>2026-09-02T22:07:27Z</time>
  <course>7.68</course>
  <speed>1.7847408775505762</speed>
  <fix>3d</fix>
</trkpt>
<trkpt lat="33.8103233" lon="-118.3941211">
  <ele>-0.114</ele>
  <time>2026-09-02T22:07:27Z</time>
  <course>7.68</course>
  <speed>1.7847408775505762</speed>
  <fix>3d</fix>
</trkpt>
<trkpt lat="33.8103233" lon="-118.3941213">
  <ele>-0.114</ele>
  <time>2026-09-02T22:07:27Z</time>
  <course>7.68</course>
  <speed>1.7847408775505762</speed>
  <fix>3d</fix>
</trkpt>
<trkpt lat="33.8103233" lon="-118.3941214">
  <ele>-0.114</ele>
  <time>2026-09-02T22:07:27Z</time>
  <course>7.68</course>
  <speed>1.7847408775505762</speed>
  <fix>3d</fix>
</trkpt>
<trkpt lat="33.8103233" lon="-118.3941216">
  <ele>-0.114</ele>
  <time>2026-09-02T22:07:27Z</time>
  <course>7.68</course>
  <speed>1.7847408775505762</speed>
  <fix>3d</fix>
</trkpt>
<trkpt lat="33.8103233" lon="-118.3941217">
  <ele>-0.114</ele>
  <time>2026-09-02T22:07:27Z</time>
  <course>7.68</course>
  <speed>1.7847408775505762</speed>
  <fix>3d</fix>
</trkpt>
<trkpt lat="33.8103233" lon="-118.3941172">
  <ele>-0.1</ele>
  <time>2026-09-02T22:07:27Z</time>
  <course>275.17</course>
  <speed>1.82</speed>
  <fix>3d</fix>
</trkpt>
<trkpt lat="33.8103233" lon="-118.3941217">
  <ele>-0.114</ele>
  <time>2026-09-02T22:07:27Z</time>
  <course>7.68</course>
  <speed>1.7847408775505762</speed>
  <fix>3d</fix>
</trkpt>
<trkpt lat="33.8103234" lon="-118.3941221">
  <ele>-0.114</ele>
  <time>2026-09-02T22:07:27Z</time>
  <course>7.69</course>
  <speed>1.7847408775505762</speed>
  <fix>3d</fix>
</trkpt>
<trkpt lat="33.8103234" lon="-118.3941222">
  <ele>-0.114</ele>
  <time>2026-09-02T22:07:27Z</time>
  <course>7.69</course>
  <speed>1.7847408775505762</speed>
  <fix>3d</fix>
</trkpt>
<trkpt lat="33.8103234" lon="-118.3941223">
  <ele>-0.114</ele>
  <time>2026-09-02T22:07:27Z</time>
  <course>7.69</course>
  <speed>1.7847408775505762</speed>
  <fix>3d</fix>
</trkpt>
<trkpt lat="33.8103234" lon="-118.3941225">
  <ele>-0.114</ele>
  <time>2026-09-02T22:07:27Z</time>
  <course>7.69</course>
  <speed>1.7847408775505762</speed>
  <fix>3d</fix>
</trkpt>
<trkpt lat="33.8103234" lon="-118.3941226">
  <ele>-0.114</ele>
  <time>2026-09-02T22:07:27Z</time>
  <course>7.69</course>
  <speed>1.7847408775505762</speed>
  <fix>3d</fix>
</trkpt>
<trkpt lat="33.8103234" lon="-118.3941228">
  <ele>-0.114</ele>
  <time>2026-09-02T22:07:27Z</time>
  <course>7.69</course>
  <speed>1.7847408775505762</speed>
  <fix>3d</fix>
</trkpt>
<trkpt lat="33.8103234" lon="-118.3941229">
  <ele>-0.114</ele>
  <time>2026-09-02T22:07:27Z</time>
  <course>7.69</course>
  <speed>1.7847408775505762</speed>
  <fix>3d</fix>
</trkpt>
<trkpt lat="33.8103234" lon="-118.3941231">
  <ele>-0.114</ele>
  <time>2026-09-02T22:07:27Z</time>
  <course>7.7</course>
  <speed>1.7847408775505762</speed>
  <fix>3d</fix>
</trkpt>
<trkpt lat="33.8103235" lon="-118.3941233">
  <ele>-0.114</ele>
  <time>2026-09-02T22:07:27Z</time>
  <course>7.7</course>
  <speed>1.7847408775505762</speed>
  <fix>3d</fix>
</trkpt>
<trkpt lat="33.8103235" lon="-118.3941235">
  <ele>-0.114</ele>
  <time>2026-09-02T22:07:27Z</time>
  <course>7.7</course>
  <speed>1.7847408775505762</speed>
  <fix>3d</fix>
</trkpt>
<trkpt lat="33.8103235" lon="-118.3941236">
  <ele>-0.114</ele>
  <time>2026-09-02T22:07:27Z</time>
  <course>7.7</course>
  <speed>1.7847408775505762</speed>
  <fix>3d</fix>
</trkpt>
<trkpt lat="33.8103235" lon="-118.3941236">
  <ele>-0.114</ele>
  <time>2026-09-02T22:07:27Z</time>
  <course>7.7</course>
  <speed>1.7847408775505762</speed>
  <fix>3d</fix>
</trkpt>
<trkpt lat="33.8103236" lon="-118.3941211">
  <ele>-0.1</ele>
  <time>2026-09-02T22:07:27Z</time>
  <course>275.21</course>
  <speed>1.82</speed>
  <fix>3d</fix>
</trkpt>
<trkpt lat="33.8103235" lon="-118.3941239">
  <ele>-0.114</ele>
  <time>2026-09-02T22:07:27Z</time>
  <course>7.7</course>
  <speed>1.7847408775505762</speed>
  <fix>3d</fix>
</trkpt>
<trkpt lat="33.8103235" lon="-118.3941241">
  <ele>-0.114</ele>
  <time>2026-09-02T22:07:27Z</time>
  <course>7.7</course>
  <speed>1.7847408775505762</speed>
  <fix>3d</fix>
</trkpt>
<trkpt lat="33.8103235" lon="-118.3941242">
  <ele>-0.114</ele>
  <time>2026-09-02T22:07:27Z</time>
  <course>7.71</course>
  <speed>1.7847408775505762</speed>
  <fix>3d</fix>
</trkpt>
<trkpt lat="33.8103235" lon="-118.3941244">
  <ele>-0.114</ele>
  <time>2026-09-02T22:07:27Z</time>
  <course>7.71</course>
  <speed>1.7847408775505762</speed>
  <fix>3d</fix>
</trkpt>
<trkpt lat="33.8103235" lon="-118.3941245">
  <ele>-0.114</ele>
  <time>2026-09-02T22:07:27Z</time>
  <course>7.71</course>
  <speed>1.7847408775505762</speed>
  <fix>3d</fix>
</trkpt>
<trkpt lat="33.8103236" lon="-118.3941247">
  <ele>-0.114</ele>
  <time>2026-09-02T22:07:27Z</time>
  <course>7.71</course>
  <speed>1.7847408775505762</speed>
  <fix>3d</fix>
</trkpt>
<trkpt lat="33.8103236" lon="-118.3941249">
  <ele>-0.114</ele>
  <time>2026-09-02T22:07:27Z</time>
  <course>7.71</course>
  <speed>1.7847408775505762</speed>
  <fix>3d</fix>
</trkpt>
<trkpt lat="33.8103236" lon="-118.3941256">
  <ele>-0.113</ele>
  <time>2026-09-02T22:07:27Z</time>
  <course>7.72</course>
  <speed>1.7847408775505762</speed>
  <fix>3d</fix>
</trkpt>
<trkpt lat="33.8103236" lon="-118.3941211">
  <ele>-0.1</ele>
  <time>2026-09-02T22:07:27Z</time>
  <course>275.21</course>
  <speed>1.82</speed>
  <fix>3d</fix>
</trkpt>
<trkpt lat="33.8103236" lon="-118.3941256">
  <ele>-0.113</ele>
  <time>2026-09-02T22:07:27Z</time>
  <course>7.72</course>
  <speed>1.7847408775505762</speed>
  <fix>3d</fix>
</trkpt>
<trkpt lat="33.8103237" lon="-118.394126">
  <ele>-0.113</ele>
  <time>2026-09-02T22:07:27Z</time>
  <course>7.72</course>
  <speed>1.7847408775505762</speed>
  <fix>3d</fix>
</trkpt>
<trkpt lat="33.8103237" lon="-118.3941262">
  <ele>-0.113</ele>
  <time>2026-09-02T22:07:27Z</time>
  <course>7.72</course>
  <speed>1.7847408775505762</speed>
  <fix>3d</fix>
</trkpt>
<trkpt lat="33.8103237" lon="-118.3941264">
  <ele>-0.113</ele>
  <time>2026-09-02T22:07:27Z</time>
  <course>7.72</course>
  <speed>1.7847408775505762</speed>
  <fix>3d</fix>
</trkpt>
<trkpt lat="33.8103237" lon="-118.3941266">
  <ele>-0.113</ele>
  <time>2026-09-02T22:07:27Z</time>
  <course>7.73</course>
  <speed>1.7847408775505762</speed>
  <fix>3d</fix>
</trkpt>
<trkpt lat="33.8103237" lon="-118.3941267">
  <ele>-0.113</ele>
  <time>2026-09-02T22:07:27Z</time>
  <course>7.73</course>
  <speed>1.7847408775505762</speed>
  <fix>3d</fix>
</trkpt>
<trkpt lat="33.8103237" lon="-118.3941269">
  <ele>-0.113</ele>
  <time>2026-09-02T22:07:27Z</time>
  <course>7.73</course>
  <speed>1.7847408775505762</speed>
  <fix>3d</fix>
</trkpt>
<trkpt lat="33.8103237" lon="-118.3941271">
  <ele>-0.113</ele>
  <time>2026-09-02T22:07:27Z</time>
  <course>7.73</course>
  <speed>1.7847408775505762</speed>
  <fix>3d</fix>
</trkpt>
<trkpt lat="33.8103238" lon="-118.3941273">
  <ele>-0.113</ele>
  <time>2026-09-02T22:07:27Z</time>
  <course>7.73</course>
  <speed>1.7847408775505762</speed>
  <fix>3d</fix>
</trkpt>
<trkpt lat="33.8103238" lon="-118.3941274">
  <ele>-0.113</ele>
  <time>2026-09-02T22:07:27Z</time>
  <course>7.73</course>
  <speed>1.7847408775505762</speed>
  <fix>3d</fix>
</trkpt>
<trkpt lat="33.8103238" lon="-118.3941276">
  <ele>-0.113</ele>
  <time>2026-09-02T22:07:27Z</time>
  <course>7.73</course>
  <speed>1.7847408775505762</speed>
  <fix>3d</fix>
</trkpt>
<trkpt lat="33.8103238" lon="-118.3941276">
  <ele>-0.113</ele>
  <time>2026-09-02T22:07:27Z</time>
  <course>7.73</course>
  <speed>1.7847408775505762</speed>
  <fix>3d</fix>
</trkpt>
<trkpt lat="33.8103239" lon="-118.3941251">
  <ele>-0.1</ele>
  <time>2026-09-02T22:07:27Z</time>
  <course>275.25</course>
  <speed>1.82</speed>
  <fix>3d</fix>
</trkpt>
<trkpt lat="33.8103238" lon="-118.394128">
  <ele>-0.113</ele>
  <time>2026-09-02T22:07:27Z</time>
  <course>7.74</course>
  <speed>1.7847408775505762</speed>
  <fix>3d</fix>
</trkpt>
<trkpt lat="33.8103238" lon="-118.3941282">
  <ele>-0.113</ele>
  <time>2026-09-02T22:07:27Z</time>
  <course>7.74</course>
  <speed>1.7847408775505762</speed>
  <fix>3d</fix>
</trkpt>
<trkpt lat="33.8103238" lon="-118.3941284">
  <ele>-0.113</ele>
  <time>2026-09-02T22:07:27Z</time>
  <course>7.74</course>
  <speed>1.7847408775505762</speed>
  <fix>3d</fix>
</trkpt>
<trkpt lat="33.8103239" lon="-118.3941286">
  <ele>-0.113</ele>
  <time>2026-09-02T22:07:27Z</time>
  <course>7.74</course>
  <speed>1.7847408775505762</speed>
  <fix>3d</fix>
</trkpt>
<trkpt lat="33.8103239" lon="-118.3941287">
  <ele>-0.113</ele>
  <time>2026-09-02T22:07:27Z</time>
  <course>7.74</course>
  <speed>1.7847408775505762</speed>
  <fix>3d</fix>
</trkpt>
<trkpt lat="33.8103239" lon="-118.3941289">
  <ele>-0.113</ele>
  <time>2026-09-02T22:07:27Z</time>
  <course>7.74</course>
  <speed>1.7847408775505762</speed>
  <fix>3d</fix>
</trkpt>
<trkpt lat="33.8103239" lon="-118.3941291">
  <ele>-0.113</ele>
  <time>2026-09-02T22:07:27Z</time>
  <course>7.75</course>
  <speed>1.7847408775505762</speed>
  <fix>3d</fix>
</trkpt>
<trkpt lat="33.8103239" lon="-118.3941293">
  <ele>-0.113</ele>
  <time>2026-09-02T22:07:27Z</time>
  <course>7.75</course>
  <speed>1.7847408775505762</speed>
  <fix>3d</fix>
</trkpt>
<trkpt lat="33.8103239" lon="-118.3941294">
  <ele>-0.113</ele>
  <time>2026-09-02T22:07:27Z</time>
  <course>7.75</course>
  <speed>1.7847408775505762</speed>
  <fix>3d</fix>
</trkpt>
<trkpt lat="33.8103239" lon="-118.3941295">
  <ele>-0.113</ele>
  <time>2026-09-02T22:07:27Z</time>
  <course>7.75</course>
  <speed>1.7847408775505762</speed>
  <fix>3d</fix>
</trkpt>
<trkpt lat="33.8103239" lon="-118.3941251">
  <ele>-0.1</ele>
  <time>2026-09-02T22:07:27Z</time>
  <course>275.25</course>
  <speed>1.82</speed>
  <fix>3d</fix>
</trkpt>
<trkpt lat="33.8103239" lon="-118.3941296">
  <ele>-0.113</ele>
  <time>2026-09-02T22:07:27Z</time>
  <course>7.75</course>
  <speed>1.7847408775505762</speed>
  <fix>3d</fix>
</trkpt>
<trkpt lat="33.810324" lon="-118.3941298">
  <ele>-0.113</ele>
  <time>2026-09-02T22:07:27Z</time>
  <course>7.75</course>
  <speed>1.7847408775505762</speed>
  <fix>3d</fix>
</trkpt>
<trkpt lat="33.810324" lon="-118.39413">
  <ele>-0.113</ele>
  <time>2026-09-02T22:07:27Z</time>
  <course>7.75</course>
  <speed>1.7847408775505762</speed>
  <fix>3d</fix>
</trkpt>
<trkpt lat="33.810324" lon="-118.3941302">
  <ele>-0.113</ele>
  <time>2026-09-02T22:07:27Z</time>
  <course>7.76</course>
  <speed>1.7847408775505762</speed>
  <fix>3d</fix>
</trkpt>
<trkpt lat="33.810324" lon="-118.3941304">
  <ele>-0.113</ele>
  <time>2026-09-02T22:07:27Z</time>
  <course>7.76</course>
  <speed>1.7847408775505762</speed>
  <fix>3d</fix>
</trkpt>
<trkpt lat="33.810324" lon="-118.3941306">
  <ele>-0.113</ele>
  <time>2026-09-02T22:07:27Z</time>
  <course>7.76</course>
  <speed>1.7847408775505762</speed>
  <fix>3d</fix>
</trkpt>
<trkpt lat="33.810324" lon="-118.3941307">
  <ele>-0.113</ele>
  <time>2026-09-02T22:07:27Z</time>
  <course>7.76</course>
  <speed>1.7847408775505762</speed>
  <fix>3d</fix>
</trkpt>
<trkpt lat="33.810324" lon="-118.3941309">
  <ele>-0.113</ele>
  <time>2026-09-02T22:07:27Z</time>
  <course>7.76</course>
  <speed>1.7847408775505762</speed>
  <fix>3d</fix>
</trkpt>
<trkpt lat="33.8103241" lon="-118.3941311">
  <ele>-0.113</ele>
  <time>2026-09-02T22:07:27Z</time>
  <course>7.76</course>
  <speed>1.7847408775505762</speed>
  <fix>3d</fix>
</trkpt>
<trkpt lat="33.8103241" lon="-118.3941312">
  <ele>-0.113</ele>
  <time>2026-09-02T22:07:27Z</time>
  <course>7.76</course>
  <speed>1.7847408775505762</speed>
  <fix>3d</fix>
</trkpt>
<trkpt lat="33.8103241" lon="-118.3941314">
  <ele>-0.113</ele>
  <time>2026-09-02T22:07:27Z</time>
  <course>7.77</course>
  <speed>1.7847408775505762</speed>
  <fix>3d</fix>
</trkpt>
<trkpt lat="33.8103241" lon="-118.3941315">
  <ele>-0.114</ele>
  <time>2026-09-02T22:07:27Z</time>
  <course>7.77</course>
  <speed>1.7847408775505762</speed>
  <fix>3d</fix>
</trkpt>
<trkpt lat="33.8103242" lon="-118.394129">
  <ele>-0.1</ele>
  <time>2026-09-02T22:07:27Z</time>
  <course>275.28</course>
  <speed>1.82</speed>
  <fix>3d</fix>
</trkpt>
<trkpt lat="33.8103241" lon="-118.3941315">
  <ele>-0.114</ele>
  <time>2026-09-02T22:07:27Z</time>
  <course>7.77</course>
  <speed>1.7847408775505762</speed>
  <fix>3d</fix>
</trkpt>
<trkpt lat="33.8103241" lon="-118.3941318">
  <ele>-0.114</ele>
  <time>2026-09-02T22:07:27Z</time>
  <course>7.77</course>
  <speed>1.7847408775505762</speed>
  <fix>3d</fix>
</trkpt>
<trkpt lat="33.8103241" lon="-118.394132">
  <ele>-0.114</ele>
  <time>2026-09-02T22:07:27Z</time>
  <course>7.77</course>
  <speed>1.7847408775505762</speed>
  <fix>3d</fix>
</trkpt>
<trkpt lat="33.8103241" lon="-118.3941321">
  <ele>-0.114</ele>
  <time>2026-09-02T22:07:27Z</time>
  <course>7.77</course>
  <speed>1.7847408775505762</speed>
  <fix>3d</fix>
</trkpt>
<trkpt lat="33.8103242" lon="-118.3941323">
  <ele>-0.114</ele>
  <time>2026-09-02T22:07:27Z</time>
  <course>7.77</course>
  <speed>1.7847408775505762</speed>
  <fix>3d</fix>
</trkpt>
<trkpt lat="33.8103242" lon="-118.3941325">
  <ele>-0.114</ele>
  <time>2026-09-02T22:07:27Z</time>
  <course>7.78</course>
  <speed>1.7847408775505762</speed>
  <fix>3d</fix>
</trkpt>
<trkpt lat="33.8103242" lon="-118.3941327">
  <ele>-0.114</ele>
  <time>2026-09-02T22:07:27Z</time>
  <course>7.78</course>
  <speed>1.7847408775505762</speed>
  <fix>3d</fix>
</trkpt>
<trkpt lat="33.8103242" lon="-118.3941329">
  <ele>-0.114</ele>
  <time>2026-09-02T22:07:27Z</time>
  <course>7.78</course>
  <speed>1.7847408775505762</speed>
  <fix>3d</fix>
</trkpt>
<trkpt lat="33.8103242" lon="-118.3941331">
  <ele>-0.114</ele>
  <time>2026-09-02T22:07:27Z</time>
  <course>7.78</course>
  <speed>1.7847408775505762</speed>
  <fix>3d</fix>
</trkpt>
<trkpt lat="33.8103242" lon="-118.3941333">
  <ele>-0.114</ele>
  <time>2026-09-02T22:07:27Z</time>
  <course>7.78</course>
  <speed>1.7847408775505762</speed>
  <fix>3d</fix>
</trkpt>
<trkpt lat="33.8103242" lon="-118.3941334">
  <ele>-0.114</ele>
  <time>2026-09-02T22:07:27Z</time>
  <course>7.78</course>
  <speed>1.7847408775505762</speed>
  <fix>3d</fix>
</trkpt>
<trkpt lat="33.8103242" lon="-118.3941335">
  <ele>-0.114</ele>
  <time>2026-09-02T22:07:27Z</time>
  <course>7.78</course>
  <speed>1.7847408775505762</speed>
  <fix>3d</fix>
</trkpt>
<trkpt lat="33.8103242" lon="-118.394129">
  <ele>-0.1</ele>
  <time>2026-09-02T22:07:27Z</time>
  <course>275.28</course>
  <speed>1.82</speed>
  <fix>3d</fix>
</trkpt>
<trkpt lat="33.8103242" lon="-118.3941335">
  <ele>-0.114</ele>
  <time>2026-09-02T22:07:27Z</time>
  <course>7.78</course>
  <speed>1.7847408775505762</speed>
  <fix>3d</fix>
</trkpt>
<trkpt lat="33.8103243" lon="-118.3941338">
  <ele>-0.114</ele>
  <time>2026-09-02T22:07:27Z</time>
  <course>7.79</course>
  <speed>1.7847408775505762</speed>
  <fix>3d</fix>
</trkpt>
<trkpt lat="33.8103243" lon="-118.394134">
  <ele>-0.114</ele>
  <time>2026-09-02T22:07:27Z</time>
  <course>7.79</course>
  <speed>1.7847408775505762</speed>
  <fix>3d</fix>
</trkpt>
<trkpt lat="33.8103243" lon="-118.3941341">
  <ele>-0.114</ele>
  <time>2026-09-02T22:07:27Z</time>
  <course>7.79</course>
  <speed>1.7847408775505762</speed>
  <fix>3d</fix>
</trkpt>
<trkpt lat="33.8103243" lon="-118.3941343">
  <ele>-0.114</ele>
  <time>2026-09-02T22:07:27Z</time>
  <course>7.79</course>
  <speed>1.7847408775505762</speed>
  <fix>3d</fix>
</trkpt>
<trkpt lat="33.8103243" lon="-118.3941345">
  <ele>-0.114</ele>
  <time>2026-09-02T22:07:27Z</time>
  <course>7.79</course>
  <speed>1.7847408775505762</speed>
  <fix>3d</fix>
</trkpt>
<trkpt lat="33.8103243" lon="-118.3941346">
  <ele>-0.114</ele>
  <time>2026-09-02T22:07:27Z</time>
  <course>7.79</course>
  <speed>1.7847408775505762</speed>
  <fix>3d</fix>
</trkpt>
<trkpt lat="33.8103243" lon="-118.3941348">
  <ele>-0.114</ele>
  <time>2026-09-02T22:07:27Z</time>
  <course>7.79</course>
  <speed>1.7847408775505762</speed>
  <fix>3d</fix>
</trkpt>
<trkpt lat="33.8103244" lon="-118.3941349">
  <ele>-0.114</ele>
  <time>2026-09-02T22:07:27Z</time>
  <course>7.79</course>
  <speed>1.7847408775505762</speed>
  <fix>3d</fix>
</trkpt>
<trkpt lat="33.8103244" lon="-118.3941351">
  <ele>-0.114</ele>
  <time>2026-09-02T22:07:27Z</time>
  <course>7.8</course>
  <speed>1.7847408775505762</speed>
  <fix>3d</fix>
</trkpt>
<trkpt lat="33.8103244" lon="-118.3941353">
  <ele>-0.114</ele>
  <time>2026-09-02T22:07:27Z</time>
  <course>7.8</course>
  <speed>1.7847408775505762</speed>
  <fix>3d</fix>
</trkpt>
<trkpt lat="33.8103244" lon="-118.3941354">
  <ele>-0.114</ele>
  <time>2026-09-02T22:07:27Z</time>
  <course>7.8</course>
  <speed>1.7847408775505762</speed>
  <fix>3d</fix>
</trkpt>
<trkpt lat="33.8103245" lon="-118.3941329">
  <ele>-0.1</ele>
  <time>2026-09-02T22:07:27Z</time>
  <course>275.32</course>
  <speed>1.82</speed>
  <fix>3d</fix>
</trkpt>
<trkpt lat="33.8103244" lon="-118.3941355">
  <ele>-0.114</ele>
  <time>2026-09-02T22:07:27Z</time>
  <course>7.8</course>
  <speed>1.7847408775505762</speed>
  <fix>3d</fix>
</trkpt>
<trkpt lat="33.8103244" lon="-118.3941358">
  <ele>-0.114</ele>
  <time>2026-09-02T22:07:27Z</time>
  <course>7.8</course>
  <speed>1.7847408775505762</speed>
  <fix>3d</fix>
</trkpt>
<trkpt lat="33.8103244" lon="-118.394136">
  <ele>-0.114</ele>
  <time>2026-09-02T22:07:27Z</time>
  <course>7.8</course>
  <speed>1.7847408775505762</speed>
  <fix>3d</fix>
</trkpt>
<trkpt lat="33.8103245" lon="-118.3941362">
  <ele>-0.114</ele>
  <time>2026-09-02T22:07:27Z</time>
  <course>7.81</course>
  <speed>1.7847408775505762</speed>
  <fix>3d</fix>
</trkpt>
<trkpt lat="33.8103245" lon="-118.3941364">
  <ele>-0.114</ele>
  <time>2026-09-02T22:07:27Z</time>
  <course>7.81</course>
  <speed>1.7847408775505762</speed>
  <fix>3d</fix>
</trkpt>
<trkpt lat="33.8103245" lon="-118.3941365">
  <ele>-0.114</ele>
  <time>2026-09-02T22:07:27Z</time>
  <course>7.81</course>
  <speed>1.7847408775505762</speed>
  <fix>3d</fix>
</trkpt>
<trkpt lat="33.8103245" lon="-118.3941367">
  <ele>-0.114</ele>
  <time>2026-09-02T22:07:27Z</time>
  <course>7.81</course>
  <speed>1.7847408775505762</speed>
  <fix>3d</fix>
</trkpt>
<trkpt lat="33.8103245" lon="-118.3941368">
  <ele>-0.114</ele>
  <time>2026-09-02T22:07:27Z</time>
  <course>7.81</course>
  <speed>1.7847408775505762</speed>
  <fix>3d</fix>
</trkpt>
<trkpt lat="33.8103245" lon="-118.394137">
  <ele>-0.114</ele>
  <time>2026-09-02T22:07:27Z</time>
  <course>7.81</course>
  <speed>1.7847408775505762</speed>
  <fix>3d</fix>
</trkpt>
<trkpt lat="33.8103245" lon="-118.3941371">
  <ele>-0.114</ele>
  <time>2026-09-02T22:07:27Z</time>
  <course>7.81</course>
  <speed>1.7847408775505762</speed>
  <fix>3d</fix>
</trkpt>
<trkpt lat="33.8103245" lon="-118.3941373">
  <ele>-0.113</ele>
  <time>2026-09-02T22:07:27Z</time>
  <course>7.81</course>
  <speed>1.7847408775505762</speed>
  <fix>3d</fix>
</trkpt>
<trkpt lat="33.8103245" lon="-118.3941374">
  <ele>-0.113</ele>
  <time>2026-09-02T22:07:27Z</time>
  <course>7.81</course>
  <speed>1.7847408775505762</speed>
  <fix>3d</fix>
</trkpt>
<trkpt lat="33.8103245" lon="-118.3941329">
  <ele>-0.1</ele>
  <time>2026-09-02T22:07:27Z</time>
  <course>275.32</course>
  <speed>1.82</speed>
  <fix>3d</fix>
</trkpt>
<trkpt lat="33.8103246" lon="-118.3941374">
  <ele>-0.113</ele>
  <time>2026-09-02T22:07:27Z</time>
  <course>7.82</course>
  <speed>1.7847408775505762</speed>
  <fix>3d</fix>
</trkpt>
<trkpt lat="33.8103246" lon="-118.3941376">
  <ele>-0.113</ele>
  <time>2026-09-02T22:07:27Z</time>
  <course>7.82</course>
  <speed>1.7847408775505762</speed>
  <fix>3d</fix>
</trkpt>
<trkpt lat="33.8103246" lon="-118.3941378">
  <ele>-0.113</ele>
  <time>2026-09-02T22:07:27Z</time>
  <course>7.82</course>
  <speed>1.7847408775505762</speed>
  <fix>3d</fix>
</trkpt>
<trkpt lat="33.8103246" lon="-118.3941379">
  <ele>-0.113</ele>
  <time>2026-09-02T22:07:27Z</time>
  <course>7.82</course>
  <speed>1.7847408775505762</speed>
  <fix>3d</fix>
</trkpt>
<trkpt lat="33.8103246" lon="-118.3941381">
  <ele>-0.113</ele>
  <time>2026-09-02T22:07:27Z</time>
  <course>7.82</course>
  <speed>1.7847408775505762</speed>
  <fix>3d</fix>
</trkpt>
<trkpt lat="33.8103246" lon="-118.3941382">
  <ele>-0.113</ele>
  <time>2026-09-02T22:07:27Z</time>
  <course>7.82</course>
  <speed>1.7847408775505762</speed>
  <fix>3d</fix>
</trkpt>
<trkpt lat="33.8103246" lon="-118.3941384">
  <ele>-0.113</ele>
  <time>2026-09-02T22:07:27Z</time>
  <course>7.82</course>
  <speed>1.7847408775505762</speed>
  <fix>3d</fix>
</trkpt>
<trkpt lat="33.8103246" lon="-118.3941386">
  <ele>-0.113</ele>
  <time>2026-09-02T22:07:27Z</time>
  <course>7.82</course>
  <speed>1.7847408775505762</speed>
  <fix>3d</fix>
</trkpt>
<trkpt lat="33.8103247" lon="-118.3941387">
  <ele>-0.113</ele>
  <time>2026-09-02T22:07:27Z</time>
  <course>7.83</course>
  <speed>1.7847408775505762</speed>
  <fix>3d</fix>
</trkpt>
<trkpt lat="33.8103247" lon="-118.3941389">
  <ele>-0.113</ele>
  <time>2026-09-02T22:07:27Z</time>
  <course>7.83</course>
  <speed>1.7847408775505762</speed>
  <fix>3d</fix>
</trkpt>
<trkpt lat="33.8103247" lon="-118.394139">
  <ele>-0.113</ele>
  <time>2026-09-02T22:07:27Z</time>
  <course>7.83</course>
  <speed>1.7854971296532514</speed>
  <fix>3d</fix>
</trkpt>
<trkpt lat="33.8103247" lon="-118.3941392">
  <ele>-0.113</ele>
  <time>2026-09-02T22:07:27Z</time>
  <course>7.83</course>
  <speed>1.7854971296532514</speed>
  <fix>3d</fix>
</trkpt>
<trkpt lat="33.8103247" lon="-118.3941393">
  <ele>-0.113</ele>
  <time>2026-09-02T22:07:27Z</time>
  <course>7.83</course>
  <speed>1.7854971296532514</speed>
  <fix>3d</fix>
</trkpt>
<trkpt lat="33.8103247" lon="-118.3941394">
  <ele>-0.113</ele>
  <time>2026-09-02T22:07:27Z</time>
  <course>7.83</course>
  <speed>1.7854971296532514</speed>
  <fix>3d</fix>
</trkpt>
<trkpt lat="33.8103248" lon="-118.3941368">
  <ele>-0.1</ele>
  <time>2026-09-02T22:07:27Z</time>
  <course>275.36</course>
  <speed>1.82</speed>
  <fix>3d</fix>
</trkpt>
<trkpt lat="33.8103247" lon="-118.3941394">
  <ele>-0.112</ele>
  <time>2026-09-02T22:07:27Z</time>
  <course>7.83</course>
  <speed>1.7854971296532514</speed>
  <fix>3d</fix>
</trkpt>
<trkpt lat="33.8103248" lon="-118.3941402">
  <ele>-0.112</ele>
  <time>2026-09-02T22:07:27Z</time>
  <course>7.84</course>
  <speed>1.7854971296532514</speed>
  <fix>3d</fix>
</trkpt>
<trkpt lat="33.8103248" lon="-118.3941404">
  <ele>-0.112</ele>
  <time>2026-09-02T22:07:27Z</time>
  <course>7.84</course>
  <speed>1.7854971296532514</speed>
  <fix>3d</fix>
</trkpt>
<trkpt lat="33.8103248" lon="-118.3941406">
  <ele>-0.112</ele>
  <time>2026-09-02T22:07:27Z</time>
  <course>7.84</course>
  <speed>1.7854971296532514</speed>
  <fix>3d</fix>
</trkpt>
<trkpt lat="33.8103248" lon="-118.3941408">
  <ele>-0.111</ele>
  <time>2026-09-02T22:07:27Z</time>
  <course>7.84</course>
  <speed>1.7854971296532514</speed>
  <fix>3d</fix>
</trkpt>
<trkpt lat="33.8103248" lon="-118.394141">
  <ele>-0.111</ele>
  <time>2026-09-02T22:07:27Z</time>
  <course>7.84</course>
  <speed>1.7854971296532514</speed>
  <fix>3d</fix>
</trkpt>
<trkpt lat="33.8103248" lon="-118.3941412">
  <ele>-0.111</ele>
  <time>2026-09-02T22:07:27Z</time>
  <course>7.85</course>
  <speed>1.7854971296532514</speed>
  <fix>3d</fix>
</trkpt>
<trkpt lat="33.8103249" lon="-118.3941413">
  <ele>-0.111</ele>
  <time>2026-09-02T22:07:27Z</time>
  <course>7.85</course>
  <speed>1.7854971296532514</speed>
  <fix>3d</fix>
</trkpt>
<trkpt lat="33.8103248" lon="-118.3941368">
  <ele>-0.1</ele>
  <time>2026-09-02T22:07:27Z</time>
  <course>275.36</course>
  <speed>1.82</speed>
  <fix>3d</fix>
</trkpt>
<trkpt lat="33.8103249" lon="-118.3941414">
  <ele>-0.111</ele>
  <time>2026-09-02T22:07:27Z</time>
  <course>7.85</course>
  <speed>1.7854971296532514</speed>
  <fix>3d</fix>
</trkpt>
<trkpt lat="33.8103249" lon="-118.3941416">
  <ele>-0.11</ele>
  <time>2026-09-02T22:07:27Z</time>
  <course>7.85</course>
  <speed>1.7854971296532514</speed>
  <fix>3d</fix>
</trkpt>
<trkpt lat="33.8103249" lon="-118.3941418">
  <ele>-0.11</ele>
  <time>2026-09-02T22:07:27Z</time>
  <course>7.85</course>
  <speed>1.7854971296532514</speed>
  <fix>3d</fix>
</trkpt>
<trkpt lat="33.8103249" lon="-118.394142">
  <ele>-0.11</ele>
  <time>2026-09-02T22:07:27Z</time>
  <course>7.85</course>
  <speed>1.7854971296532514</speed>
  <fix>3d</fix>
</trkpt>
<trkpt lat="33.8103249" lon="-118.3941421">
  <ele>-0.11</ele>
  <time>2026-09-02T22:07:27Z</time>
  <course>7.85</course>
  <speed>1.7854971296532514</speed>
  <fix>3d</fix>
</trkpt>
<trkpt lat="33.8103249" lon="-118.3941423">
  <ele>-0.11</ele>
  <time>2026-09-02T22:07:27Z</time>
  <course>7.85</course>
  <speed>1.7854971296532514</speed>
  <fix>3d</fix>
</trkpt>
<trkpt lat="33.8103249" lon="-118.3941425">
  <ele>-0.11</ele>
  <time>2026-09-02T22:07:27Z</time>
  <course>7.86</course>
  <speed>1.7854971296532514</speed>
  <fix>3d</fix>
</trkpt>
<trkpt lat="33.810325" lon="-118.3941426">
  <ele>-0.11</ele>
  <time>2026-09-02T22:07:27Z</time>
  <course>7.86</course>
  <speed>1.7854971296532514</speed>
  <fix>3d</fix>
</trkpt>
<trkpt lat="33.810325" lon="-118.3941429">
  <ele>-0.11</ele>
  <time>2026-09-02T22:07:27Z</time>
  <course>7.86</course>
  <speed>1.7854971296532514</speed>
  <fix>3d</fix>
</trkpt>
<trkpt lat="33.810325" lon="-118.3941431">
  <ele>-0.11</ele>
  <time>2026-09-02T22:07:27Z</time>
  <course>7.86</course>
  <speed>1.7854971296532514</speed>
  <fix>3d</fix>
</trkpt>
<trkpt lat="33.810325" lon="-118.3941432">
  <ele>-0.11</ele>
  <time>2026-09-02T22:07:27Z</time>
  <course>7.86</course>
  <speed>1.7854971296532514</speed>
  <fix>3d</fix>
</trkpt>
<trkpt lat="33.810325" lon="-118.3941433">
  <ele>-0.11</ele>
  <time>2026-09-02T22:07:27Z</time>
  <course>7.86</course>
  <speed>1.7854971296532514</speed>
  <fix>3d</fix>
</trkpt>
<trkpt lat="33.8103251" lon="-118.3941407">
  <ele>-0.1</ele>
  <time>2026-09-02T22:07:27Z</time>
  <course>275.39</course>
  <speed>1.82</speed>
  <fix>3d</fix>
</trkpt>
<trkpt lat="33.810325" lon="-118.3941433">
  <ele>-0.11</ele>
  <time>2026-09-02T22:07:27Z</time>
  <course>7.86</course>
  <speed>1.7854971296532514</speed>
  <fix>3d</fix>
</trkpt>
<trkpt lat="33.810325" lon="-118.3941435">
  <ele>-0.109</ele>
  <time>2026-09-02T22:07:27Z</time>
  <course>7.86</course>
  <speed>1.7854971296532514</speed>
  <fix>3d</fix>
</trkpt>
<trkpt lat="33.810325" lon="-118.3941437">
  <ele>-0.109</ele>
  <time>2026-09-02T22:07:27Z</time>
  <course>7.87</course>
  <speed>1.7854971296532514</speed>
  <fix>3d</fix>
</trkpt>
<trkpt lat="33.8103251" lon="-118.3941439">
  <ele>-0.109</ele>
  <time>2026-09-02T22:07:27Z</time>
  <course>7.87</course>
  <speed>1.7854971296532514</speed>
  <fix>3d</fix>
</trkpt>
<trkpt lat="33.8103251" lon="-118.3941441">
  <ele>-0.109</ele>
  <time>2026-09-02T22:07:27Z</time>
  <course>7.87</course>
  <speed>1.7854971296532514</speed>
  <fix>3d</fix>
</trkpt>
<trkpt lat="33.8103251" lon="-118.3941443">
  <ele>-0.109</ele>
  <time>2026-09-02T22:07:27Z</time>
  <course>7.87</course>
  <speed>1.7854971296532514</speed>
  <fix>3d</fix>
</trkpt>
<trkpt lat="33.8103251" lon="-118.3941445">
  <ele>-0.109</ele>
  <time>2026-09-02T22:07:27Z</time>
  <course>7.87</course>
  <speed>1.7854971296532514</speed>
  <fix>3d</fix>
</trkpt>
<trkpt lat="33.8103251" lon="-118.3941447">
  <ele>-0.109</ele>
  <time>2026-09-02T22:07:27Z</time>
  <course>7.87</course>
  <speed>1.7854971296532514</speed>
  <fix>3d</fix>
</trkpt>
<trkpt lat="33.8103251" lon="-118.3941449">
  <ele>-0.109</ele>
  <time>2026-09-02T22:07:27Z</time>
  <course>7.87</course>
  <speed>1.7854971296532514</speed>
  <fix>3d</fix>
</trkpt>
<trkpt lat="33.8103252" lon="-118.394145">
  <ele>-0.109</ele>
  <time>2026-09-02T22:07:27Z</time>
  <course>7.88</course>
  <speed>1.7854971296532514</speed>
  <fix>3d</fix>
</trkpt>
<trkpt lat="33.8103252" lon="-118.3941452">
  <ele>-0.109</ele>
  <time>2026-09-02T22:07:27Z</time>
  <course>7.88</course>
  <speed>1.7854971296532514</speed>
  <fix>3d</fix>
</trkpt>
<trkpt lat="33.8103252" lon="-118.3941452">
  <ele>-0.109</ele>
  <time>2026-09-02T22:07:27Z</time>
  <course>7.88</course>
  <speed>1.7854971296532514</speed>
  <fix>3d</fix>
</trkpt>
<trkpt lat="33.8103251" lon="-118.3941407">
  <ele>-0.1</ele>
  <time>2026-09-02T22:07:27Z</time>
  <course>275.39</course>
  <speed>1.82</speed>
  <fix>3d</fix>
</trkpt>
<trkpt lat="33.8103252" lon="-118.3941456">
  <ele>-0.109</ele>
  <time>2026-09-02T22:07:27Z</time>
  <course>7.88</course>
  <speed>1.7854971296532514</speed>
  <fix>3d</fix>
</trkpt>
<trkpt lat="33.8103252" lon="-118.3941458">
  <ele>-0.109</ele>
  <time>2026-09-02T22:07:27Z</time>
  <course>7.88</course>
  <speed>1.7854971296532514</speed>
  <fix>3d</fix>
</trkpt>
<trkpt lat="33.8103252" lon="-118.394146">
  <ele>-0.109</ele>
  <time>2026-09-02T22:07:27Z</time>
  <course>7.88</course>
  <speed>1.7854971296532514</speed>
  <fix>3d</fix>
</trkpt>
<trkpt lat="33.8103252" lon="-118.3941462">
  <ele>-0.109</ele>
  <time>2026-09-02T22:07:27Z</time>
  <course>7.89</course>
  <speed>1.7854971296532514</speed>
  <fix>3d</fix>
</trkpt>
<trkpt lat="33.8103253" lon="-118.3941463">
  <ele>-0.109</ele>
  <time>2026-09-02T22:07:27Z</time>
  <course>7.89</course>
  <speed>1.7854971296532514</speed>
  <fix>3d</fix>
</trkpt>
<trkpt lat="33.8103253" lon="-118.3941465">
  <ele>-0.109</ele>
  <time>2026-09-02T22:07:27Z</time>
  <course>7.89</course>
  <speed>1.7854971296532514</speed>
  <fix>3d</fix>
</trkpt>
<trkpt lat="33.8103253" lon="-118.3941466">
  <ele>-0.109</ele>
  <time>2026-09-02T22:07:27Z</time>
  <course>7.89</course>
  <speed>1.7854971296532514</speed>
  <fix>3d</fix>
</trkpt>
<trkpt lat="33.8103253" lon="-118.3941468">
  <ele>-0.109</ele>
  <time>2026-09-02T22:07:27Z</time>
  <course>7.89</course>
  <speed>1.7854971296532514</speed>
  <fix>3d</fix>
</trkpt>
<trkpt lat="33.8103253" lon="-118.3941469">
  <ele>-0.109</ele>
  <time>2026-09-02T22:07:27Z</time>
  <course>7.89</course>
  <speed>1.7854971296532514</speed>
  <fix>3d</fix>
</trkpt>
<trkpt lat="33.8103253" lon="-118.3941471">
  <ele>-0.109</ele>
  <time>2026-09-02T22:07:27Z</time>
  <course>7.89</course>
  <speed>1.7854971296532514</speed>
  <fix>3d</fix>
</trkpt>
<trkpt lat="33.8103253" lon="-118.3941472">
  <ele>-0.109</ele>
  <time>2026-09-02T22:07:27Z</time>
  <course>7.89</course>
  <speed>1.7854971296532514</speed>
  <fix>3d</fix>
</trkpt>
<trkpt lat="33.8103254" lon="-118.3941447">
  <ele>-0.1</ele>
  <time>2026-09-02T22:07:27Z</time>
  <course>275.43</course>
  <speed>1.82</speed>
  <fix>3d</fix>
</trkpt>
<trkpt lat="33.8103253" lon="-118.3941472">
  <ele>-0.109</ele>
  <time>2026-09-02T22:07:27Z</time>
  <course>7.89</course>
  <speed>1.7854971296532514</speed>
  <fix>3d</fix>
</trkpt>
<trkpt lat="33.8103254" lon="-118.3941475">
  <ele>-0.109</ele>
  <time>2026-09-02T22:07:27Z</time>
  <course>7.9</course>
  <speed>1.7854971296532514</speed>
  <fix>3d</fix>
</trkpt>
<trkpt lat="33.8103254" lon="-118.3941477">
  <ele>-0.109</ele>
  <time>2026-09-02T22:07:27Z</time>
  <course>7.9</course>
  <speed>1.7854971296532514</speed>
  <fix>3d</fix>
</trkpt>
<trkpt lat="33.8103254" lon="-118.3941479">
  <ele>-0.109</ele>
  <time>2026-09-02T22:07:27Z</time>
  <course>7.9</course>
  <speed>1.7854971296532514</speed>
  <fix>3d</fix>
</trkpt>
<trkpt lat="33.8103254" lon="-118.394148">
  <ele>-0.109</ele>
  <time>2026-09-02T22:07:27Z</time>
  <course>7.9</course>
  <speed>1.7854971296532514</speed>
  <fix>3d</fix>
</trkpt>
<trkpt lat="33.8103254" lon="-118.3941482">
  <ele>-0.109</ele>
  <time>2026-09-02T22:07:27Z</time>
  <course>7.9</course>
  <speed>1.7854971296532514</speed>
  <fix>3d</fix>
</trkpt>
<trkpt lat="33.8103254" lon="-118.3941484">
  <ele>-0.109</ele>
  <time>2026-09-02T22:07:27Z</time>
  <course>7.9</course>
  <speed>1.7854971296532514</speed>
  <fix>3d</fix>
</trkpt>
<trkpt lat="33.8103254" lon="-118.3941486">
  <ele>-0.109</ele>
  <time>2026-09-02T22:07:27Z</time>
  <course>7.9</course>
  <speed>1.7854971296532514</speed>
  <fix>3d</fix>
</trkpt>
<trkpt lat="33.8103255" lon="-118.3941488">
  <ele>-0.11</ele>
  <time>2026-09-02T22:07:27Z</time>
  <course>7.91</course>
  <speed>1.7854971296532514</speed>
  <fix>3d</fix>
</trkpt>
<trkpt lat="33.8103255" lon="-118.3941489">
  <ele>-0.11</ele>
  <time>2026-09-02T22:07:27Z</time>
  <course>7.91</course>
  <speed>1.7854971296532514</speed>
  <fix>3d</fix>
</trkpt>
<trkpt lat="33.8103255" lon="-118.3941491">
  <ele>-0.11</ele>
  <time>2026-09-02T22:07:27Z</time>
  <course>7.91</course>
  <speed>1.7854971296532514</speed>
  <fix>3d</fix>
</trkpt>
<trkpt lat="33.8103255" lon="-118.3941492">
  <ele>-0.11</ele>
  <time>2026-09-02T22:07:27Z</time>
  <course>7.91</course>
  <speed>1.7854971296532514</speed>
  <fix>3d</fix>
</trkpt>
<trkpt lat="33.8103254" lon="-118.3941447">
  <ele>-0.1</ele>
  <time>2026-09-02T22:07:27Z</time>
  <course>275.43</course>
  <speed>1.82</speed>
  <fix>3d</fix>
</trkpt>
<trkpt lat="33.8103255" lon="-118.3941492">
  <ele>-0.11</ele>
  <time>2026-09-02T22:07:27Z</time>
  <course>7.91</course>
  <speed>1.7854971296532514</speed>
  <fix>3d</fix>
</trkpt>
<trkpt lat="33.8103255" lon="-118.3941495">
  <ele>-0.11</ele>
  <time>2026-09-02T22:07:27Z</time>
  <course>7.91</course>
  <speed>1.7854971296532514</speed>
  <fix>3d</fix>
</trkpt>
<trkpt lat="33.8103255" lon="-118.3941498">
  <ele>-0.11</ele>
  <time>2026-09-02T22:07:27Z</time>
  <course>7.91</course>
  <speed>1.7854971296532514</speed>
  <fix>3d</fix>
</trkpt>
<trkpt lat="33.8103255" lon="-118.39415">
  <ele>-0.11</ele>
  <time>2026-09-02T22:07:27Z</time>
  <course>7.92</course>
  <speed>1.7854971296532514</speed>
  <fix>3d</fix>
</trkpt>
<trkpt lat="33.8103256" lon="-118.3941501">
  <ele>-0.11</ele>
  <time>2026-09-02T22:07:27Z</time>
  <course>7.92</course>
  <speed>1.7854971296532514</speed>
  <fix>3d</fix>
</trkpt>
<trkpt lat="33.8103256" lon="-118.3941503">
  <ele>-0.11</ele>
  <time>2026-09-02T22:07:27Z</time>
  <course>7.92</course>
  <speed>1.7854971296532514</speed>
  <fix>3d</fix>
</trkpt>
<trkpt lat="33.8103256" lon="-118.3941504">
  <ele>-0.11</ele>
  <time>2026-09-02T22:07:27Z</time>
  <course>7.92</course>
  <speed>1.7854971296532514</speed>
  <fix>3d</fix>
</trkpt>
<trkpt lat="33.8103256" lon="-118.3941505">
  <ele>-0.11</ele>
  <time>2026-09-02T22:07:27Z</time>
  <course>7.92</course>
  <speed>1.7854971296532514</speed>
  <fix>3d</fix>
</trkpt>
<trkpt lat="33.8103256" lon="-118.3941507">
  <ele>-0.11</ele>
  <time>2026-09-02T22:07:27Z</time>
  <course>7.92</course>
  <speed>1.7854971296532514</speed>
  <fix>3d</fix>
</trkpt>
<trkpt lat="33.8103256" lon="-118.3941508">
  <ele>-0.11</ele>
  <time>2026-09-02T22:07:27Z</time>
  <course>7.92</course>
  <speed>1.7854971296532514</speed>
  <fix>3d</fix>
</trkpt>
<trkpt lat="33.8103256" lon="-118.394151">
  <ele>-0.11</ele>
  <time>2026-09-02T22:07:27Z</time>
  <course>7.92</course>
  <speed>1.7854971296532514</speed>
  <fix>3d</fix>
</trkpt>
<trkpt lat="33.8103256" lon="-118.3941511">
  <ele>-0.11</ele>
  <time>2026-09-02T22:07:27Z</time>
  <course>7.92</course>
  <speed>1.7854971296532514</speed>
  <fix>3d</fix>
</trkpt>
<trkpt lat="33.8103256" lon="-118.3941511">
  <ele>-0.11</ele>
  <time>2026-09-02T22:07:27Z</time>
  <course>7.92</course>
  <speed>1.7854971296532514</speed>
  <fix>3d</fix>
</trkpt>
<trkpt lat="33.8103257" lon="-118.3941486">
  <ele>-0.1</ele>
  <time>2026-09-02T22:07:27Z</time>
  <course>275.46</course>
  <speed>1.82</speed>
  <fix>3d</fix>
</trkpt>
<trkpt lat="33.8103257" lon="-118.3941515">
  <ele>-0.11</ele>
  <time>2026-09-02T22:07:27Z</time>
  <course>7.93</course>
  <speed>1.7854971296532514</speed>
  <fix>3d</fix>
</trkpt>
<trkpt lat="33.8103257" lon="-118.3941517">
  <ele>-0.11</ele>
  <time>2026-09-02T22:07:27Z</time>
  <course>7.93</course>
  <speed>1.7854971296532514</speed>
  <fix>3d</fix>
</trkpt>
<trkpt lat="33.8103257" lon="-118.3941519">
  <ele>-0.11</ele>
  <time>2026-09-02T22:07:27Z</time>
  <course>7.93</course>
  <speed>1.795466513193716</speed>
  <fix>3d</fix>
</trkpt>
<trkpt lat="33.8103257" lon="-118.3941521">
  <ele>-0.11</ele>
  <time>2026-09-02T22:07:27Z</time>
  <course>7.93</course>
  <speed>1.7854971296532514</speed>
  <fix>3d</fix>
</trkpt>
<trkpt lat="33.8103257" lon="-118.3941522">
  <ele>-0.11</ele>
  <time>2026-09-02T22:07:27Z</time>
  <course>7.93</course>
  <speed>1.7854971296532514</speed>
  <fix>3d</fix>
</trkpt>
<trkpt lat="33.8103257" lon="-118.3941524">
  <ele>-0.11</ele>
  <time>2026-09-02T22:07:27Z</time>
  <course>7.93</course>
  <speed>1.7854971296532514</speed>
  <fix>3d</fix>
</trkpt>
<trkpt lat="33.8103257" lon="-118.3941525">
  <ele>-0.11</ele>
  <time>2026-09-02T22:07:27Z</time>
  <course>7.94</course>
  <speed>1.7854971296532514</speed>
  <fix>3d</fix>
</trkpt>
<trkpt lat="33.8103258" lon="-118.3941527">
  <ele>-0.11</ele>
  <time>2026-09-02T22:07:27Z</time>
  <course>7.94</course>
  <speed>1.795466513193716</speed>
  <fix>3d</fix>
</trkpt>
<trkpt lat="33.8103258" lon="-118.3941528">
  <ele>-0.11</ele>
  <time>2026-09-02T22:07:27Z</time>
  <course>7.94</course>
  <speed>1.7854971296532514</speed>
  <fix>3d</fix>
</trkpt>
<trkpt lat="33.8103258" lon="-118.394153">
  <ele>-0.11</ele>
  <time>2026-09-02T22:07:27Z</time>
  <course>7.94</course>
  <speed>1.795466513193716</speed>
  <fix>3d</fix>
</trkpt>
<trkpt lat="33.8103258" lon="-118.3941531">
  <ele>-0.11</ele>
  <time>2026-09-02T22:07:27Z</time>
  <course>7.94</course>
  <speed>1.7854971296532514</speed>
  <fix>3d</fix>
</trkpt>
<trkpt lat="33.8103258" lon="-118.3941531">
  <ele>-0.11</ele>
  <time>2026-09-02T22:07:27Z</time>
  <course>7.94</course>
  <speed>1.7854971296532514</speed>
  <fix>3d</fix>
</trkpt>
<trkpt lat="33.8103257" lon="-118.3941486">
  <ele>-0.1</ele>
  <time>2026-09-02T22:07:27Z</time>
  <course>275.46</course>
  <speed>1.82</speed>
  <fix>3d</fix>
</trkpt>
<trkpt lat="33.8103258" lon="-118.3941534">
  <ele>-0.11</ele>
  <time>2026-09-02T22:07:27Z</time>
  <course>7.94</course>
  <speed>1.795466513193716</speed>
  <fix>3d</fix>
</trkpt>
<trkpt lat="33.8103258" lon="-118.3941536">
  <ele>-0.11</ele>
  <time>2026-09-02T22:07:27Z</time>
  <course>7.94</course>
  <speed>1.7854971296532514</speed>
  <fix>3d</fix>
</trkpt>
<trkpt lat="33.8103258" lon="-118.3941538">
  <ele>-0.11</ele>
  <time>2026-09-02T22:07:27Z</time>
  <course>7.95</course>
  <speed>1.7854971296532514</speed>
  <fix>3d</fix>
</trkpt>
<trkpt lat="33.8103259" lon="-118.3941539">
  <ele>-0.11</ele>
  <time>2026-09-02T22:07:27Z</time>
  <course>7.95</course>
  <speed>1.7854971296532514</speed>
  <fix>3d</fix>
</trkpt>
<trkpt lat="33.8103259" lon="-118.3941541">
  <ele>-0.11</ele>
  <time>2026-09-02T22:07:27Z</time>
  <course>7.95</course>
  <speed>1.7854971296532514</speed>
  <fix>3d</fix>
</trkpt>
<trkpt lat="33.8103259" lon="-118.3941543">
  <ele>-0.11</ele>
  <time>2026-09-02T22:07:27Z</time>
  <course>7.95</course>
  <speed>1.7854971296532514</speed>
  <fix>3d</fix>
</trkpt>
<trkpt lat="33.8103259" lon="-118.3941544">
  <ele>-0.11</ele>
  <time>2026-09-02T22:07:27Z</time>
  <course>7.95</course>
  <speed>1.795466513193716</speed>
  <fix>3d</fix>
</trkpt>
<trkpt lat="33.8103259" lon="-118.3941546">
  <ele>-0.11</ele>
  <time>2026-09-02T22:07:27Z</time>
  <course>7.95</course>
  <speed>1.795466513193716</speed>
  <fix>3d</fix>
</trkpt>
<trkpt lat="33.8103259" lon="-118.3941547">
  <ele>-0.11</ele>
  <time>2026-09-02T22:07:27Z</time>
  <course>7.95</course>
  <speed>1.795466513193716</speed>
  <fix>3d</fix>
</trkpt>
<trkpt lat="33.8103259" lon="-118.3941549">
  <ele>-0.109</ele>
  <time>2026-09-02T22:07:27Z</time>
  <course>7.95</course>
  <speed>1.795466513193716</speed>
  <fix>3d</fix>
</trkpt>
<trkpt lat="33.810326" lon="-118.3941551">
  <ele>-0.109</ele>
  <time>2026-09-02T22:07:27Z</time>
  <course>7.96</course>
  <speed>1.795466513193716</speed>
  <fix>3d</fix>
</trkpt>
<trkpt lat="33.810326" lon="-118.3941551">
  <ele>-0.109</ele>
  <time>2026-09-02T22:07:27Z</time>
  <course>7.96</course>
  <speed>1.795466513193716</speed>
  <fix>3d</fix>
</trkpt>
<trkpt lat="33.810326" lon="-118.3941525">
  <ele>-0.1</ele>
  <time>2026-09-02T22:07:27Z</time>
  <course>275.5</course>
  <speed>1.82</speed>
  <fix>3d</fix>
</trkpt>
<trkpt lat="33.810326" lon="-118.3941554">
  <ele>-0.109</ele>
  <time>2026-09-02T22:07:27Z</time>
  <course>7.96</course>
  <speed>1.795466513193716</speed>
  <fix>3d</fix>
</trkpt>
<trkpt lat="33.810326" lon="-118.3941556">
  <ele>-0.109</ele>
  <time>2026-09-02T22:07:27Z</time>
  <course>7.96</course>
  <speed>1.795466513193716</speed>
  <fix>3d</fix>
</trkpt>
<trkpt lat="33.810326" lon="-118.3941558">
  <ele>-0.109</ele>
  <time>2026-09-02T22:07:27Z</time>
  <course>7.96</course>
  <speed>1.795466513193716</speed>
  <fix>3d</fix>
</trkpt>
<trkpt lat="33.810326" lon="-118.3941559">
  <ele>-0.109</ele>
  <time>2026-09-02T22:07:27Z</time>
  <course>7.96</course>
  <speed>1.795466513193716</speed>
  <fix>3d</fix>
</trkpt>
<trkpt lat="33.810326" lon="-118.3941561">
  <ele>-0.109</ele>
  <time>2026-09-02T22:07:27Z</time>
  <course>7.96</course>
  <speed>1.795466513193716</speed>
  <fix>3d</fix>
</trkpt>
<trkpt lat="33.810326" lon="-118.3941562">
  <ele>-0.109</ele>
  <time>2026-09-02T22:07:27Z</time>
  <course>7.96</course>
  <speed>1.795466513193716</speed>
  <fix>3d</fix>
</trkpt>
<trkpt lat="33.8103261" lon="-118.3941563">
  <ele>-0.109</ele>
  <time>2026-09-02T22:07:27Z</time>
  <course>7.96</course>
  <speed>1.795466513193716</speed>
  <fix>3d</fix>
</trkpt>
<trkpt lat="33.8103261" lon="-118.3941565">
  <ele>-0.109</ele>
  <time>2026-09-02T22:07:27Z</time>
  <course>7.97</course>
  <speed>1.795466513193716</speed>
  <fix>3d</fix>
</trkpt>
<trkpt lat="33.8103261" lon="-118.3941566">
  <ele>-0.109</ele>
  <time>2026-09-02T22:07:27Z</time>
  <course>7.97</course>
  <speed>1.795466513193716</speed>
  <fix>3d</fix>
</trkpt>
<trkpt lat="33.8103261" lon="-118.3941568">
  <ele>-0.109</ele>
  <time>2026-09-02T22:07:27Z</time>
  <course>7.97</course>
  <speed>1.795466513193716</speed>
  <fix>3d</fix>
</trkpt>
<trkpt lat="33.8103261" lon="-118.3941569">
  <ele>-0.109</ele>
  <time>2026-09-02T22:07:27Z</time>
  <course>7.97</course>
  <speed>1.795466513193716</speed>
  <fix>3d</fix>
</trkpt>
<trkpt lat="33.8103261" lon="-118.394157">
  <ele>-0.109</ele>
  <time>2026-09-02T22:07:27Z</time>
  <course>7.97</course>
  <speed>1.795466513193716</speed>
  <fix>3d</fix>
</trkpt>
<trkpt lat="33.810326" lon="-118.3941525">
  <ele>-0.1</ele>
  <time>2026-09-02T22:07:27Z</time>
  <course>275.5</course>
  <speed>1.82</speed>
  <fix>3d</fix>
</trkpt>
<trkpt lat="33.8103261" lon="-118.3941571">
  <ele>-0.109</ele>
  <time>2026-09-02T22:07:27Z</time>
  <course>7.97</course>
  <speed>1.795466513193716</speed>
  <fix>3d</fix>
</trkpt>
<trkpt lat="33.8103261" lon="-118.3941573">
  <ele>-0.109</ele>
  <time>2026-09-02T22:07:27Z</time>
  <course>7.97</course>
  <speed>1.795466513193716</speed>
  <fix>3d</fix>
</trkpt>
<trkpt lat="33.8103261" lon="-118.3941575">
  <ele>-0.109</ele>
  <time>2026-09-02T22:07:27Z</time>
  <course>7.97</course>
  <speed>1.795466513193716</speed>
  <fix>3d</fix>
</trkpt>
<trkpt lat="33.8103262" lon="-118.3941576">
  <ele>-0.109</ele>
  <time>2026-09-02T22:07:27Z</time>
  <course>7.97</course>
  <speed>1.795466513193716</speed>
  <fix>3d</fix>
</trkpt>
<trkpt lat="33.8103262" lon="-118.3941578">
  <ele>-0.109</ele>
  <time>2026-09-02T22:07:27Z</time>
  <course>7.98</course>
  <speed>1.795466513193716</speed>
  <fix>3d</fix>
</trkpt>
<trkpt lat="33.8103262" lon="-118.394158">
  <ele>-0.109</ele>
  <time>2026-09-02T22:07:27Z</time>
  <course>7.98</course>
  <speed>1.795466513193716</speed>
  <fix>3d</fix>
</trkpt>
<trkpt lat="33.8103262" lon="-118.3941581">
  <ele>-0.109</ele>
  <time>2026-09-02T22:07:27Z</time>
  <course>7.98</course>
  <speed>1.795466513193716</speed>
  <fix>3d</fix>
</trkpt>
<trkpt lat="33.8103262" lon="-118.3941583">
  <ele>-0.109</ele>
  <time>2026-09-02T22:07:27Z</time>
  <course>7.98</course>
  <speed>1.795466513193716</speed>
  <fix>3d</fix>
</trkpt>
<trkpt lat="33.8103262" lon="-118.3941585">
  <ele>-0.109</ele>
  <time>2026-09-02T22:07:27Z</time>
  <course>7.98</course>
  <speed>1.795466513193716</speed>
  <fix>3d</fix>
</trkpt>
<trkpt lat="33.8103262" lon="-118.3941586">
  <ele>-0.109</ele>
  <time>2026-09-02T22:07:27Z</time>
  <course>7.98</course>
  <speed>1.795466513193716</speed>
  <fix>3d</fix>
</trkpt>
<trkpt lat="33.8103263" lon="-118.3941588">
  <ele>-0.109</ele>
  <time>2026-09-02T22:07:27Z</time>
  <course>7.98</course>
  <speed>1.795466513193716</speed>
  <fix>3d</fix>
</trkpt>
<trkpt lat="33.8103263" lon="-118.394159">
  <ele>-0.109</ele>
  <time>2026-09-02T22:07:27Z</time>
  <course>7.98</course>
  <speed>1.795466513193716</speed>
  <fix>3d</fix>
</trkpt>
<trkpt lat="33.8103263" lon="-118.394159">
  <ele>-0.109</ele>
  <time>2026-09-02T22:07:27Z</time>
  <course>7.98</course>
  <speed>1.795466513193716</speed>
  <fix>3d</fix>
</trkpt>
<trkpt lat="33.8103263" lon="-118.3941564">
  <ele>-0.1</ele>
  <time>2026-09-02T22:07:27Z</time>
  <course>275.53</course>
  <speed>1.82</speed>
  <fix>3d</fix>
</trkpt>
<trkpt lat="33.8103263" lon="-118.3941592">
  <ele>-0.109</ele>
  <time>2026-09-02T22:07:27Z</time>
  <course>7.99</course>
  <speed>1.795466513193716</speed>
  <fix>3d</fix>
</trkpt>
<trkpt lat="33.8103263" lon="-118.3941594">
  <ele>-0.109</ele>
  <time>2026-09-02T22:07:27Z</time>
  <course>7.99</course>
  <speed>1.795466513193716</speed>
  <fix>3d</fix>
</trkpt>
<trkpt lat="33.8103263" lon="-118.3941595">
  <ele>-0.109</ele>
  <time>2026-09-02T22:07:27Z</time>
  <course>7.99</course>
  <speed>1.795466513193716</speed>
  <fix>3d</fix>
</trkpt>
<trkpt lat="33.8103263" lon="-118.3941597">
  <ele>-0.109</ele>
  <time>2026-09-02T22:07:27Z</time>
  <course>7.99</course>
  <speed>1.795466513193716</speed>
  <fix>3d</fix>
</trkpt>
<trkpt lat="33.8103263" lon="-118.3941598">
  <ele>-0.109</ele>
  <time>2026-09-02T22:07:27Z</time>
  <course>7.99</course>
  <speed>1.795466513193716</speed>
  <fix>3d</fix>
</trkpt>
<trkpt lat="33.8103263" lon="-118.39416">
  <ele>-0.109</ele>
  <time>2026-09-02T22:07:27Z</time>
  <course>7.99</course>
  <speed>1.795466513193716</speed>
  <fix>3d</fix>
</trkpt>
<trkpt lat="33.8103264" lon="-118.3941602">
  <ele>-0.109</ele>
  <time>2026-09-02T22:07:27Z</time>
  <course>7.99</course>
  <speed>1.795466513193716</speed>
  <fix>3d</fix>
</trkpt>
<trkpt lat="33.8103264" lon="-118.3941603">
  <ele>-0.109</ele>
  <time>2026-09-02T22:07:27Z</time>
  <course>8.0</course>
  <speed>1.795466513193716</speed>
  <fix>3d</fix>
</trkpt>
<trkpt lat="33.8103264" lon="-118.3941605">
  <ele>-0.109</ele>
  <time>2026-09-02T22:07:27Z</time>
  <course>8.0</course>
  <speed>1.795466513193716</speed>
  <fix>3d</fix>
</trkpt>
<trkpt lat="33.8103264" lon="-118.3941606">
  <ele>-0.109</ele>
  <time>2026-09-02T22:07:27Z</time>
  <course>8.0</course>
  <speed>1.795466513193716</speed>
  <fix>3d</fix>
</trkpt>
<trkpt lat="33.8103264" lon="-118.3941608">
  <ele>-0.109</ele>
  <time>2026-09-02T22:07:27Z</time>
  <course>8.0</course>
  <speed>1.795466513193716</speed>
  <fix>3d</fix>
</trkpt>
<trkpt lat="33.8103264" lon="-118.394161">
  <ele>-0.109</ele>
  <time>2026-09-02T22:07:27Z</time>
  <course>8.0</course>
  <speed>1.795466513193716</speed>
  <fix>3d</fix>
</trkpt>
<trkpt lat="33.8103264" lon="-118.394161">
  <ele>-0.109</ele>
  <time>2026-09-02T22:07:27Z</time>
  <course>8.0</course>
  <speed>1.795466513193716</speed>
  <fix>3d</fix>
</trkpt>
<trkpt lat="33.8103263" lon="-118.3941564">
  <ele>-0.1</ele>
  <time>2026-09-02T22:07:27Z</time>
  <course>275.53</course>
  <speed>1.82</speed>
  <fix>3d</fix>
</trkpt>
<trkpt lat="33.8103264" lon="-118.3941612">
  <ele>-0.109</ele>
  <time>2026-09-02T22:07:27Z</time>
  <course>8.0</course>
  <speed>1.795466513193716</speed>
  <fix>3d</fix>
</trkpt>
<trkpt lat="33.8103265" lon="-118.3941614">
  <ele>-0.109</ele>
  <time>2026-09-02T22:07:27Z</time>
  <course>8.0</course>
  <speed>1.795466513193716</speed>
  <fix>3d</fix>
</trkpt>
<trkpt lat="33.8103265" lon="-118.3941615">
  <ele>-0.109</ele>
  <time>2026-09-02T22:07:27Z</time>
  <course>8.0</course>
  <speed>1.795466513193716</speed>
  <fix>3d</fix>
</trkpt>
<trkpt lat="33.8103265" lon="-118.3941616">
  <ele>-0.109</ele>
  <time>2026-09-02T22:07:27Z</time>
  <course>8.01</course>
  <speed>1.795466513193716</speed>
  <fix>3d</fix>
</trkpt>
<trkpt lat="33.8103265" lon="-118.3941618">
  <ele>-0.109</ele>
  <time>2026-09-02T22:07:27Z</time>
  <course>8.01</course>
  <speed>1.795466513193716</speed>
  <fix>3d</fix>
</trkpt>
<trkpt lat="33.8103265" lon="-118.394162">
  <ele>-0.109</ele>
  <time>2026-09-02T22:07:27Z</time>
  <course>8.01</course>
  <speed>1.795466513193716</speed>
  <fix>3d</fix>
</trkpt>
<trkpt lat="33.8103265" lon="-118.3941622">
  <ele>-0.109</ele>
  <time>2026-09-02T22:07:27Z</time>
  <course>8.01</course>
  <speed>1.795466513193716</speed>
  <fix>3d</fix>
</trkpt>
<trkpt lat="33.8103265" lon="-118.3941624">
  <ele>-0.109</ele>
  <time>2026-09-02T22:07:27Z</time>
  <course>8.01</course>
  <speed>1.795466513193716</speed>
  <fix>3d</fix>
</trkpt>
<trkpt lat="33.8103266" lon="-118.3941626">
  <ele>-0.109</ele>
  <time>2026-09-02T22:07:27Z</time>
  <course>8.01</course>
  <speed>1.795466513193716</speed>
  <fix>3d</fix>
</trkpt>
<trkpt lat="33.8103266" lon="-118.3941628">
  <ele>-0.109</ele>
  <time>2026-09-02T22:07:27Z</time>
  <course>8.01</course>
  <speed>1.795466513193716</speed>
  <fix>3d</fix>
</trkpt>
<trkpt lat="33.8103266" lon="-118.3941629">
  <ele>-0.109</ele>
  <time>2026-09-02T22:07:27Z</time>
  <course>8.01</course>
  <speed>1.795466513193716</speed>
  <fix>3d</fix>
</trkpt>
<trkpt lat="33.8103267" lon="-118.3941603">
  <ele>-0.1</ele>
  <time>2026-09-02T22:07:27Z</time>
  <course>275.56</course>
  <speed>1.82</speed>
  <fix>3d</fix>
</trkpt>
<trkpt lat="33.8103266" lon="-118.394163">
  <ele>-0.109</ele>
  <time>2026-09-02T22:07:27Z</time>
  <course>8.01</course>
  <speed>1.795466513193716</speed>
  <fix>3d</fix>
</trkpt>
<trkpt lat="33.8103266" lon="-118.3941632">
  <ele>-0.109</ele>
  <time>2026-09-02T22:07:27Z</time>
  <course>8.02</course>
  <speed>1.795466513193716</speed>
  <fix>3d</fix>
</trkpt>
<trkpt lat="33.8103266" lon="-118.3941633">
  <ele>-0.109</ele>
  <time>2026-09-02T22:07:27Z</time>
  <course>8.02</course>
  <speed>1.795466513193716</speed>
  <fix>3d</fix>
</trkpt>
<trkpt lat="33.8103266" lon="-118.3941635">
  <ele>-0.109</ele>
  <time>2026-09-02T22:07:27Z</time>
  <course>8.02</course>
  <speed>1.795466513193716</speed>
  <fix>3d</fix>
</trkpt>
<trkpt lat="33.8103266" lon="-118.3941636">
  <ele>-0.109</ele>
  <time>2026-09-02T22:07:27Z</time>
  <course>8.02</course>
  <speed>1.795466513193716</speed>
  <fix>3d</fix>
</trkpt>
<trkpt lat="33.8103267" lon="-118.3941638">
  <ele>-0.109</ele>
  <time>2026-09-02T22:07:27Z</time>
  <course>8.02</course>
  <speed>1.795466513193716</speed>
  <fix>3d</fix>
</trkpt>
<trkpt lat="33.8103267" lon="-118.3941639">
  <ele>-0.109</ele>
  <time>2026-09-02T22:07:27Z</time>
  <course>8.02</course>
  <speed>1.795466513193716</speed>
  <fix>3d</fix>
</trkpt>
<trkpt lat="33.8103267" lon="-118.3941641">
  <ele>-0.109</ele>
  <time>2026-09-02T22:07:27Z</time>
  <course>8.02</course>
  <speed>1.795466513193716</speed>
  <fix>3d</fix>
</trkpt>
<trkpt lat="33.8103267" lon="-118.3941642">
  <ele>-0.109</ele>
  <time>2026-09-02T22:07:27Z</time>
  <course>8.02</course>
  <speed>1.795466513193716</speed>
  <fix>3d</fix>
</trkpt>
<trkpt lat="33.8103267" lon="-118.3941644">
  <ele>-0.109</ele>
  <time>2026-09-02T22:07:27Z</time>
  <course>8.03</course>
  <speed>1.795466513193716</speed>
  <fix>3d</fix>
</trkpt>
<trkpt lat="33.8103267" lon="-118.3941646">
  <ele>-0.109</ele>
  <time>2026-09-02T22:07:27Z</time>
  <course>8.03</course>
  <speed>1.795466513193716</speed>
  <fix>3d</fix>
</trkpt>
<trkpt lat="33.8103267" lon="-118.3941647">
  <ele>-0.109</ele>
  <time>2026-09-02T22:07:27Z</time>
  <course>8.03</course>
  <speed>1.795466513193716</speed>
  <fix>3d</fix>
</trkpt>
<trkpt lat="33.8103267" lon="-118.3941649">
  <ele>-0.109</ele>
  <time>2026-09-02T22:07:27Z</time>
  <course>8.03</course>
  <speed>1.795466513193716</speed>
  <fix>3d</fix>
</trkpt>
<trkpt lat="33.8103267" lon="-118.3941649">
  <ele>-0.109</ele>
  <time>2026-09-02T22:07:27Z</time>
  <course>8.03</course>
  <speed>1.795466513193716</speed>
  <fix>3d</fix>
</trkpt>
<trkpt lat="33.8103267" lon="-118.3941603">
  <ele>-0.1</ele>
  <time>2026-09-02T22:07:27Z</time>
  <course>275.56</course>
  <speed>1.82</speed>
  <fix>3d</fix>
</trkpt>
<trkpt lat="33.8103268" lon="-118.3941651">
  <ele>-0.109</ele>
  <time>2026-09-02T22:07:27Z</time>
  <course>8.03</course>
  <speed>1.795466513193716</speed>
  <fix>3d</fix>
</trkpt>
<trkpt lat="33.8103268" lon="-118.3941653">
  <ele>-0.109</ele>
  <time>2026-09-02T22:07:27Z</time>
  <course>8.03</course>
  <speed>1.795466513193716</speed>
  <fix>3d</fix>
</trkpt>
<trkpt lat="33.8103268" lon="-118.3941655">
  <ele>-0.109</ele>
  <time>2026-09-02T22:07:27Z</time>
  <course>8.03</course>
  <speed>1.795466513193716</speed>
  <fix>3d</fix>
</trkpt>
<trkpt lat="33.8103268" lon="-118.3941656">
  <ele>-0.109</ele>
  <time>2026-09-02T22:07:27Z</time>
  <course>8.04</course>
  <speed>1.795466513193716</speed>
  <fix>3d</fix>
</trkpt>
<trkpt lat="33.8103268" lon="-118.3941658">
  <ele>-0.109</ele>
  <time>2026-09-02T22:07:27Z</time>
  <course>8.04</course>
  <speed>1.795466513193716</speed>
  <fix>3d</fix>
</trkpt>
<trkpt lat="33.8103268" lon="-118.3941659">
  <ele>-0.109</ele>
  <time>2026-09-02T22:07:27Z</time>
  <course>8.04</course>
  <speed>1.795466513193716</speed>
  <fix>3d</fix>
</trkpt>
<trkpt lat="33.8103268" lon="-118.3941661">
  <ele>-0.109</ele>
  <time>2026-09-02T22:07:27Z</time>
  <course>8.04</course>
  <speed>1.795466513193716</speed>
  <fix>3d</fix>
</trkpt>
<trkpt lat="33.8103268" lon="-118.3941662">
  <ele>-0.109</ele>
  <time>2026-09-02T22:07:27Z</time>
  <course>8.04</course>
  <speed>1.795466513193716</speed>
  <fix>3d</fix>
</trkpt>
<trkpt lat="33.8103269" lon="-118.3941663">
  <ele>-0.109</ele>
  <time>2026-09-02T22:07:27Z</time>
  <course>8.04</course>
  <speed>1.795466513193716</speed>
  <fix>3d</fix>
</trkpt>
<trkpt lat="33.8103269" lon="-118.3941665">
  <ele>-0.109</ele>
  <time>2026-09-02T22:07:27Z</time>
  <course>8.04</course>
  <speed>1.795466513193716</speed>
  <fix>3d</fix>
</trkpt>
<trkpt lat="33.8103269" lon="-118.3941666">
  <ele>-0.109</ele>
  <time>2026-09-02T22:07:27Z</time>
  <course>8.04</course>
  <speed>1.795466513193716</speed>
  <fix>3d</fix>
</trkpt>
<trkpt lat="33.8103269" lon="-118.3941668">
  <ele>-0.109</ele>
  <time>2026-09-02T22:07:27Z</time>
  <course>8.04</course>
  <speed>1.795466513193716</speed>
  <fix>3d</fix>
</trkpt>
<trkpt lat="33.8103269" lon="-118.3941668">
  <ele>-0.109</ele>
  <time>2026-09-02T22:07:27Z</time>
  <course>8.04</course>
  <speed>1.795466513193716</speed>
  <fix>3d</fix>
</trkpt>
<trkpt lat="33.810327" lon="-118.3941643">
  <ele>-0.1</ele>
  <time>2026-09-02T22:07:27Z</time>
  <course>275.6</course>
  <speed>1.82</speed>
  <fix>3d</fix>
</trkpt>
<trkpt lat="33.8103269" lon="-118.3941671">
  <ele>-0.109</ele>
  <time>2026-09-02T22:07:27Z</time>
  <course>8.05</course>
  <speed>1.795466513193716</speed>
  <fix>3d</fix>
</trkpt>
<trkpt lat="33.8103269" lon="-118.3941673">
  <ele>-0.109</ele>
  <time>2026-09-02T22:07:27Z</time>
  <course>8.05</course>
  <speed>1.795466513193716</speed>
  <fix>3d</fix>
</trkpt>
<trkpt lat="33.810327" lon="-118.3941675">
  <ele>-0.109</ele>
  <time>2026-09-02T22:07:27Z</time>
  <course>8.05</course>
  <speed>1.795466513193716</speed>
  <fix>3d</fix>
</trkpt>
<trkpt lat="33.810327" lon="-118.3941676">
  <ele>-0.11</ele>
  <time>2026-09-02T22:07:27Z</time>
  <course>8.05</course>
  <speed>1.795466513193716</speed>
  <fix>3d</fix>
</trkpt>
<trkpt lat="33.810327" lon="-118.3941678">
  <ele>-0.11</ele>
  <time>2026-09-02T22:07:27Z</time>
  <course>8.05</course>
  <speed>1.795466513193716</speed>
  <fix>3d</fix>
</trkpt>
<trkpt lat="33.810327" lon="-118.3941679">
  <ele>-0.11</ele>
  <time>2026-09-02T22:07:27Z</time>
  <course>8.05</course>
  <speed>1.795466513193716</speed>
  <fix>3d</fix>
</trkpt>
<trkpt lat="33.810327" lon="-118.3941681">
  <ele>-0.11</ele>
  <time>2026-09-02T22:07:27Z</time>
  <course>8.05</course>
  <speed>1.795466513193716</speed>
  <fix>3d</fix>
</trkpt>
<trkpt lat="33.810327" lon="-118.3941682">
  <ele>-0.11</ele>
  <time>2026-09-02T22:07:27Z</time>
  <course>8.05</course>
  <speed>1.795466513193716</speed>
  <fix>3d</fix>
</trkpt>
<trkpt lat="33.810327" lon="-118.3941684">
  <ele>-0.11</ele>
  <time>2026-09-02T22:07:27Z</time>
  <course>8.06</course>
  <speed>1.795466513193716</speed>
  <fix>3d</fix>
</trkpt>
<trkpt lat="33.810327" lon="-118.3941685">
  <ele>-0.11</ele>
  <time>2026-09-02T22:07:27Z</time>
  <course>8.06</course>
  <speed>1.795466513193716</speed>
  <fix>3d</fix>
</trkpt>
<trkpt lat="33.8103271" lon="-118.3941687">
  <ele>-0.11</ele>
  <time>2026-09-02T22:07:27Z</time>
  <course>8.06</course>
  <speed>1.7962739212046697</speed>
  <fix>3d</fix>
</trkpt>
<trkpt lat="33.8103271" lon="-118.3941688">
  <ele>-0.11</ele>
  <time>2026-09-02T22:07:27Z</time>
  <course>8.06</course>
  <speed>1.7962739212046697</speed>
  <fix>3d</fix>
</trkpt>
<trkpt lat="33.810327" lon="-118.3941643">
  <ele>-0.1</ele>
  <time>2026-09-02T22:07:27Z</time>
  <course>275.6</course>
  <speed>1.82</speed>
  <fix>3d</fix>
</trkpt>
<trkpt lat="33.8103271" lon="-118.3941689">
  <ele>-0.11</ele>
  <time>2026-09-02T22:07:27Z</time>
  <course>8.06</course>
  <speed>1.7962739212046697</speed>
  <fix>3d</fix>
</trkpt>
<trkpt lat="33.8103271" lon="-118.3941691">
  <ele>-0.111</ele>
  <time>2026-09-02T22:07:27Z</time>
  <course>8.06</course>
  <speed>1.7962739212046697</speed>
  <fix>3d</fix>
</trkpt>
<trkpt lat="33.8103271" lon="-118.3941694">
  <ele>-0.111</ele>
  <time>2026-09-02T22:07:27Z</time>
  <course>8.06</course>
  <speed>1.7962739212046697</speed>
  <fix>3d</fix>
</trkpt>
<trkpt lat="33.8103271" lon="-118.3941696">
  <ele>-0.111</ele>
  <time>2026-09-02T22:07:27Z</time>
  <course>8.06</course>
  <speed>1.7962739212046697</speed>
  <fix>3d</fix>
</trkpt>
<trkpt lat="33.8103271" lon="-118.3941697">
  <ele>-0.111</ele>
  <time>2026-09-02T22:07:27Z</time>
  <course>8.07</course>
  <speed>1.7962739212046697</speed>
  <fix>3d</fix>
</trkpt>
<trkpt lat="33.8103272" lon="-118.3941699">
  <ele>-0.111</ele>
  <time>2026-09-02T22:07:27Z</time>
  <course>8.07</course>
  <speed>1.7962739212046697</speed>
  <fix>3d</fix>
</trkpt>
<trkpt lat="33.8103272" lon="-118.39417">
  <ele>-0.111</ele>
  <time>2026-09-02T22:07:27Z</time>
  <course>8.07</course>
  <speed>1.7962739212046697</speed>
  <fix>3d</fix>
</trkpt>
<trkpt lat="33.8103272" lon="-118.3941701">
  <ele>-0.111</ele>
  <time>2026-09-02T22:07:27Z</time>
  <course>8.07</course>
  <speed>1.7962739212046697</speed>
  <fix>3d</fix>
</trkpt>
<trkpt lat="33.8103272" lon="-118.3941703">
  <ele>-0.111</ele>
  <time>2026-09-02T22:07:27Z</time>
  <course>8.07</course>
  <speed>1.7962739212046697</speed>
  <fix>3d</fix>
</trkpt>
<trkpt lat="33.8103272" lon="-118.3941705">
  <ele>-0.111</ele>
  <time>2026-09-02T22:07:27Z</time>
  <course>8.07</course>
  <speed>1.7962739212046697</speed>
  <fix>3d</fix>
</trkpt>
<trkpt lat="33.8103272" lon="-118.3941706">
  <ele>-0.111</ele>
  <time>2026-09-02T22:07:27Z</time>
  <course>8.07</course>
  <speed>1.7962739212046697</speed>
  <fix>3d</fix>
</trkpt>
<trkpt lat="33.8103272" lon="-118.3941708">
  <ele>-0.111</ele>
  <time>2026-09-02T22:07:27Z</time>
  <course>8.07</course>
  <speed>1.7962739212046697</speed>
  <fix>3d</fix>
</trkpt>
<trkpt lat="33.8103273" lon="-118.3941682">
  <ele>-0.1</ele>
  <time>2026-09-02T22:07:27Z</time>
  <course>275.63</course>
  <speed>1.82</speed>
  <fix>3d</fix>
</trkpt>
<trkpt lat="33.8103272" lon="-118.3941708">
  <ele>-0.111</ele>
  <time>2026-09-02T22:07:27Z</time>
  <course>8.07</course>
  <speed>1.7962739212046697</speed>
  <fix>3d</fix>
</trkpt>
<trkpt lat="33.8103273" lon="-118.3941711">
  <ele>-0.112</ele>
  <time>2026-09-02T22:07:27Z</time>
  <course>8.08</course>
  <speed>1.7962739212046697</speed>
  <fix>3d</fix>
</trkpt>
<trkpt lat="33.8103273" lon="-118.3941713">
  <ele>-0.112</ele>
  <time>2026-09-02T22:07:27Z</time>
  <course>8.08</course>
  <speed>1.7962739212046697</speed>
  <fix>3d</fix>
</trkpt>
<trkpt lat="33.8103273" lon="-118.3941715">
  <ele>-0.112</ele>
  <time>2026-09-02T22:07:27Z</time>
  <course>8.08</course>
  <speed>1.7962739212046697</speed>
  <fix>3d</fix>
</trkpt>
<trkpt lat="33.8103273" lon="-118.3941717">
  <ele>-0.112</ele>
  <time>2026-09-02T22:07:27Z</time>
  <course>8.08</course>
  <speed>1.7962739212046697</speed>
  <fix>3d</fix>
</trkpt>
<trkpt lat="33.8103273" lon="-118.3941719">
  <ele>-0.112</ele>
  <time>2026-09-02T22:07:27Z</time>
  <course>8.08</course>
  <speed>1.7962739212046697</speed>
  <fix>3d</fix>
</trkpt>
<trkpt lat="33.8103273" lon="-118.3941721">
  <ele>-0.112</ele>
  <time>2026-09-02T22:07:27Z</time>
  <course>8.08</course>
  <speed>1.7962739212046697</speed>
  <fix>3d</fix>
</trkpt>
<trkpt lat="33.8103274" lon="-118.3941723">
  <ele>-0.112</ele>
  <time>2026-09-02T22:07:27Z</time>
  <course>8.08</course>
  <speed>1.7962739212046697</speed>
  <fix>3d</fix>
</trkpt>
<trkpt lat="33.8103274" lon="-118.3941724">
  <ele>-0.112</ele>
  <time>2026-09-02T22:07:27Z</time>
  <course>8.09</course>
  <speed>1.7962739212046697</speed>
  <fix>3d</fix>
</trkpt>
<trkpt lat="33.8103274" lon="-118.3941726">
  <ele>-0.113</ele>
  <time>2026-09-02T22:07:27Z</time>
  <course>8.09</course>
  <speed>1.7962739212046697</speed>
  <fix>3d</fix>
</trkpt>
<trkpt lat="33.8103274" lon="-118.3941728">
  <ele>-0.113</ele>
  <time>2026-09-02T22:07:27Z</time>
  <course>8.09</course>
  <speed>1.7962739212046697</speed>
  <fix>3d</fix>
</trkpt>
<trkpt lat="33.8103273" lon="-118.3941682">
  <ele>-0.1</ele>
  <time>2026-09-02T22:07:27Z</time>
  <course>275.63</course>
  <speed>1.82</speed>
  <fix>3d</fix>
</trkpt>
<trkpt lat="33.8103274" lon="-118.3941728">
  <ele>-0.113</ele>
  <time>2026-09-02T22:07:27Z</time>
  <course>8.09</course>
  <speed>1.7962739212046697</speed>
  <fix>3d</fix>
</trkpt>
<trkpt lat="33.8103274" lon="-118.394173">
  <ele>-0.113</ele>
  <time>2026-09-02T22:07:27Z</time>
  <course>8.09</course>
  <speed>1.7962739212046697</speed>
  <fix>3d</fix>
</trkpt>
<trkpt lat="33.8103274" lon="-118.3941732">
  <ele>-0.113</ele>
  <time>2026-09-02T22:07:27Z</time>
  <course>8.09</course>
  <speed>1.7962739212046697</speed>
  <fix>3d</fix>
</trkpt>
<trkpt lat="33.8103274" lon="-118.3941734">
  <ele>-0.113</ele>
  <time>2026-09-02T22:07:27Z</time>
  <course>8.09</course>
  <speed>1.7962739212046697</speed>
  <fix>3d</fix>
</trkpt>
<trkpt lat="33.8103275" lon="-118.3941736">
  <ele>-0.113</ele>
  <time>2026-09-02T22:07:27Z</time>
  <course>8.09</course>
  <speed>1.7962739212046697</speed>
  <fix>3d</fix>
</trkpt>
<trkpt lat="33.8103275" lon="-118.3941738">
  <ele>-0.113</ele>
  <time>2026-09-02T22:07:27Z</time>
  <course>8.1</course>
  <speed>1.7962739212046697</speed>
  <fix>3d</fix>
</trkpt>
<trkpt lat="33.8103275" lon="-118.394174">
  <ele>-0.113</ele>
  <time>2026-09-02T22:07:27Z</time>
  <course>8.1</course>
  <speed>1.7962739212046697</speed>
  <fix>3d</fix>
</trkpt>
<trkpt lat="33.8103275" lon="-118.3941742">
  <ele>-0.113</ele>
  <time>2026-09-02T22:07:27Z</time>
  <course>8.1</course>
  <speed>1.7962739212046697</speed>
  <fix>3d</fix>
</trkpt>
<trkpt lat="33.8103275" lon="-118.3941743">
  <ele>-0.113</ele>
  <time>2026-09-02T22:07:27Z</time>
  <course>8.1</course>
  <speed>1.7962739212046697</speed>
  <fix>3d</fix>
</trkpt>
<trkpt lat="33.8103275" lon="-118.3941745">
  <ele>-0.114</ele>
  <time>2026-09-02T22:07:27Z</time>
  <course>8.1</course>
  <speed>1.7962739212046697</speed>
  <fix>3d</fix>
</trkpt>
<trkpt lat="33.8103275" lon="-118.3941746">
  <ele>-0.114</ele>
  <time>2026-09-02T22:07:27Z</time>
  <course>8.1</course>
  <speed>1.7962739212046697</speed>
  <fix>3d</fix>
</trkpt>
<trkpt lat="33.8103276" lon="-118.3941747">
  <ele>-0.114</ele>
  <time>2026-09-02T22:07:27Z</time>
  <course>8.1</course>
  <speed>1.7962739212046697</speed>
  <fix>3d</fix>
</trkpt>
<trkpt lat="33.8103276" lon="-118.3941721">
  <ele>-0.1</ele>
  <time>2026-09-02T22:07:27Z</time>
  <course>275.66</course>
  <speed>1.82</speed>
  <fix>3d</fix>
</trkpt>
<trkpt lat="33.8103276" lon="-118.3941748">
  <ele>-0.114</ele>
  <time>2026-09-02T22:07:27Z</time>
  <course>8.1</course>
  <speed>1.7962739212046697</speed>
  <fix>3d</fix>
</trkpt>
<trkpt lat="33.8103276" lon="-118.394175">
  <ele>-0.114</ele>
  <time>2026-09-02T22:07:27Z</time>
  <course>8.1</course>
  <speed>1.7962739212046697</speed>
  <fix>3d</fix>
</trkpt>
<trkpt lat="33.8103276" lon="-118.3941752">
  <ele>-0.114</ele>
  <time>2026-09-02T22:07:27Z</time>
  <course>8.11</course>
  <speed>1.7962739212046697</speed>
  <fix>3d</fix>
</trkpt>
<trkpt lat="33.8103276" lon="-118.3941754">
  <ele>-0.114</ele>
  <time>2026-09-02T22:07:27Z</time>
  <course>8.11</course>
  <speed>1.7962739212046697</speed>
  <fix>3d</fix>
</trkpt>
<trkpt lat="33.8103276" lon="-118.3941756">
  <ele>-0.114</ele>
  <time>2026-09-02T22:07:27Z</time>
  <course>8.11</course>
  <speed>1.7962739212046697</speed>
  <fix>3d</fix>
</trkpt>
<trkpt lat="33.8103276" lon="-118.3941758">
  <ele>-0.114</ele>
  <time>2026-09-02T22:07:27Z</time>
  <course>8.11</course>
  <speed>1.7962739212046697</speed>
  <fix>3d</fix>
</trkpt>
<trkpt lat="33.8103277" lon="-118.3941759">
  <ele>-0.114</ele>
  <time>2026-09-02T22:07:27Z</time>
  <course>8.11</course>
  <speed>1.7962739212046697</speed>
  <fix>3d</fix>
</trkpt>
<trkpt lat="33.8103277" lon="-118.3941761">
  <ele>-0.114</ele>
  <time>2026-09-02T22:07:27Z</time>
  <course>8.11</course>
  <speed>1.7962739212046697</speed>
  <fix>3d</fix>
</trkpt>
<trkpt lat="33.8103277" lon="-118.3941763">
  <ele>-0.114</ele>
  <time>2026-09-02T22:07:27Z</time>
  <course>8.11</course>
  <speed>1.7962739212046697</speed>
  <fix>3d</fix>
</trkpt>
<trkpt lat="33.8103277" lon="-118.3941764">
  <ele>-0.114</ele>
  <time>2026-09-02T22:07:27Z</time>
  <course>8.11</course>
  <speed>1.7962739212046697</speed>
  <fix>3d</fix>
</trkpt>
<trkpt lat="33.8103277" lon="-118.3941766">
  <ele>-0.114</ele>
  <time>2026-09-02T22:07:27Z</time>
  <course>8.12</course>
  <speed>1.7962739212046697</speed>
  <fix>3d</fix>
</trkpt>
<trkpt lat="33.8103277" lon="-118.3941767">
  <ele>-0.114</ele>
  <time>2026-09-02T22:07:27Z</time>
  <course>8.12</course>
  <speed>1.7962739212046697</speed>
  <fix>3d</fix>
</trkpt>
<trkpt lat="33.8103276" lon="-118.3941721">
  <ele>-0.1</ele>
  <time>2026-09-02T22:07:27Z</time>
  <course>275.66</course>
  <speed>1.82</speed>
  <fix>3d</fix>
</trkpt>
<trkpt lat="33.8103277" lon="-118.3941767">
  <ele>-0.114</ele>
  <time>2026-09-02T22:07:27Z</time>
  <course>8.12</course>
  <speed>1.7962739212046697</speed>
  <fix>3d</fix>
</trkpt>
<trkpt lat="33.8103277" lon="-118.3941769">
  <ele>-0.114</ele>
  <time>2026-09-02T22:07:27Z</time>
  <course>8.12</course>
  <speed>1.7962739212046697</speed>
  <fix>3d</fix>
</trkpt>
<trkpt lat="33.8103277" lon="-118.3941771">
  <ele>-0.114</ele>
  <time>2026-09-02T22:07:27Z</time>
  <course>8.12</course>
  <speed>1.7962739212046697</speed>
  <fix>3d</fix>
</trkpt>
<trkpt lat="33.8103278" lon="-118.3941772">
  <ele>-0.115</ele>
  <time>2026-09-02T22:07:27Z</time>
  <course>8.12</course>
  <speed>1.7962739212046697</speed>
  <fix>3d</fix>
</trkpt>
<trkpt lat="33.8103278" lon="-118.3941774">
  <ele>-0.115</ele>
  <time>2026-09-02T22:07:27Z</time>
  <course>8.12</course>
  <speed>1.7962739212046697</speed>
  <fix>3d</fix>
</trkpt>
<trkpt lat="33.8103278" lon="-118.3941775">
  <ele>-0.114</ele>
  <time>2026-09-02T22:07:27Z</time>
  <course>8.12</course>
  <speed>1.7962739212046697</speed>
  <fix>3d</fix>
</trkpt>
<trkpt lat="33.8103278" lon="-118.3941777">
  <ele>-0.114</ele>
  <time>2026-09-02T22:07:27Z</time>
  <course>8.12</course>
  <speed>1.7962739212046697</speed>
  <fix>3d</fix>
</trkpt>
<trkpt lat="33.8103278" lon="-118.3941779">
  <ele>-0.114</ele>
  <time>2026-09-02T22:07:27Z</time>
  <course>8.12</course>
  <speed>1.7962739212046697</speed>
  <fix>3d</fix>
</trkpt>
<trkpt lat="33.8103278" lon="-118.3941781">
  <ele>-0.114</ele>
  <time>2026-09-02T22:07:27Z</time>
  <course>8.13</course>
  <speed>1.7962739212046697</speed>
  <fix>3d</fix>
</trkpt>
<trkpt lat="33.8103279" lon="-118.3941782">
  <ele>-0.114</ele>
  <time>2026-09-02T22:07:27Z</time>
  <course>8.13</course>
  <speed>1.7962739212046697</speed>
  <fix>3d</fix>
</trkpt>
<trkpt lat="33.8103279" lon="-118.3941784">
  <ele>-0.114</ele>
  <time>2026-09-02T22:07:27Z</time>
  <course>8.13</course>
  <speed>1.7962739212046697</speed>
  <fix>3d</fix>
</trkpt>
<trkpt lat="33.8103279" lon="-118.3941786">
  <ele>-0.114</ele>
  <time>2026-09-02T22:07:27Z</time>
  <course>8.13</course>
  <speed>1.7962739212046697</speed>
  <fix>3d</fix>
</trkpt>
<trkpt lat="33.8103279" lon="-118.3941786">
  <ele>-0.114</ele>
  <time>2026-09-02T22:07:27Z</time>
  <course>8.13</course>
  <speed>1.7962739212046697</speed>
  <fix>3d</fix>
</trkpt>
<trkpt lat="33.810328" lon="-118.394176">
  <ele>-0.1</ele>
  <time>2026-09-02T22:07:27Z</time>
  <course>275.7</course>
  <speed>1.82</speed>
  <fix>3d</fix>
</trkpt>
<trkpt lat="33.8103279" lon="-118.3941789">
  <ele>-0.114</ele>
  <time>2026-09-02T22:07:27Z</time>
  <course>8.13</course>
  <speed>1.7962739212046697</speed>
  <fix>3d</fix>
</trkpt>
<trkpt lat="33.8103279" lon="-118.3941791">
  <ele>-0.114</ele>
  <time>2026-09-02T22:07:27Z</time>
  <course>8.13</course>
  <speed>1.7962739212046697</speed>
  <fix>3d</fix>
</trkpt>
<trkpt lat="33.8103279" lon="-118.3941793">
  <ele>-0.114</ele>
  <time>2026-09-02T22:07:27Z</time>
  <course>8.14</course>
  <speed>1.7962739212046697</speed>
  <fix>3d</fix>
</trkpt>
<trkpt lat="33.810328" lon="-118.3941795">
  <ele>-0.114</ele>
  <time>2026-09-02T22:07:27Z</time>
  <course>8.14</course>
  <speed>1.7962739212046697</speed>
  <fix>3d</fix>
</trkpt>
<trkpt lat="33.810328" lon="-118.3941796">
  <ele>-0.114</ele>
  <time>2026-09-02T22:07:27Z</time>
  <course>8.14</course>
  <speed>1.7962739212046697</speed>
  <fix>3d</fix>
</trkpt>
<trkpt lat="33.810328" lon="-118.3941798">
  <ele>-0.114</ele>
  <time>2026-09-02T22:07:27Z</time>
  <course>8.14</course>
  <speed>1.7962739212046697</speed>
  <fix>3d</fix>
</trkpt>
<trkpt lat="33.810328" lon="-118.3941799">
  <ele>-0.114</ele>
  <time>2026-09-02T22:07:27Z</time>
  <course>8.14</course>
  <speed>1.7962739212046697</speed>
  <fix>3d</fix>
</trkpt>
<trkpt lat="33.810328" lon="-118.3941801">
  <ele>-0.114</ele>
  <time>2026-09-02T22:07:27Z</time>
  <course>8.14</course>
  <speed>1.7962739212046697</speed>
  <fix>3d</fix>
</trkpt>
<trkpt lat="33.810328" lon="-118.3941803">
  <ele>-0.113</ele>
  <time>2026-09-02T22:07:27Z</time>
  <course>8.14</course>
  <speed>1.7962739212046697</speed>
  <fix>3d</fix>
</trkpt>
<trkpt lat="33.810328" lon="-118.3941805">
  <ele>-0.113</ele>
  <time>2026-09-02T22:07:27Z</time>
  <course>8.14</course>
  <speed>1.7962739212046697</speed>
  <fix>3d</fix>
</trkpt>
<trkpt lat="33.8103281" lon="-118.3941806">
  <ele>-0.113</ele>
  <time>2026-09-02T22:07:27Z</time>
  <course>8.14</course>
  <speed>1.7962739212046697</speed>
  <fix>3d</fix>
</trkpt>
<trkpt lat="33.810328" lon="-118.394176">
  <ele>-0.1</ele>
  <time>2026-09-02T22:07:27Z</time>
  <course>275.7</course>
  <speed>1.82</speed>
  <fix>3d</fix>
</trkpt>
<trkpt lat="33.8103281" lon="-118.3941807">
  <ele>-0.113</ele>
  <time>2026-09-02T22:07:27Z</time>
  <course>8.14</course>
  <speed>1.7962739212046697</speed>
  <fix>3d</fix>
</trkpt>
<trkpt lat="33.8103281" lon="-118.3941809">
  <ele>-0.113</ele>
  <time>2026-09-02T22:07:27Z</time>
  <course>8.15</course>
  <speed>1.7962739212046697</speed>
  <fix>3d</fix>
</trkpt>
<trkpt lat="33.8103281" lon="-118.3941811">
  <ele>-0.113</ele>
  <time>2026-09-02T22:07:27Z</time>
  <course>8.15</course>
  <speed>1.7962739212046697</speed>
  <fix>3d</fix>
</trkpt>
<trkpt lat="33.8103281" lon="-118.3941813">
  <ele>-0.113</ele>
  <time>2026-09-02T22:07:27Z</time>
  <course>8.15</course>
  <speed>1.7962739212046697</speed>
  <fix>3d</fix>
</trkpt>
<trkpt lat="33.8103281" lon="-118.3941814">
  <ele>-0.113</ele>
  <time>2026-09-02T22:07:27Z</time>
  <course>8.15</course>
  <speed>1.7962739212046697</speed>
  <fix>3d</fix>
</trkpt>
<trkpt lat="33.8103281" lon="-118.3941816">
  <ele>-0.113</ele>
  <time>2026-09-02T22:07:27Z</time>
  <course>8.15</course>
  <speed>1.7962739212046697</speed>
  <fix>3d</fix>
</trkpt>
<trkpt lat="33.8103281" lon="-118.3941818">
  <ele>-0.113</ele>
  <time>2026-09-02T22:07:27Z</time>
  <course>8.15</course>
  <speed>1.7962739212046697</speed>
  <fix>3d</fix>
</trkpt>
<trkpt lat="33.8103282" lon="-118.3941819">
  <ele>-0.112</ele>
  <time>2026-09-02T22:07:27Z</time>
  <course>8.15</course>
  <speed>1.7962739212046697</speed>
  <fix>3d</fix>
</trkpt>
<trkpt lat="33.8103282" lon="-118.3941821">
  <ele>-0.112</ele>
  <time>2026-09-02T22:07:27Z</time>
  <course>8.15</course>
  <speed>1.7962739212046697</speed>
  <fix>3d</fix>
</trkpt>
<trkpt lat="33.8103282" lon="-118.3941823">
  <ele>-0.112</ele>
  <time>2026-09-02T22:07:27Z</time>
  <course>8.16</course>
  <speed>1.7962739212046697</speed>
  <fix>3d</fix>
</trkpt>
<trkpt lat="33.8103282" lon="-118.3941824">
  <ele>-0.112</ele>
  <time>2026-09-02T22:07:27Z</time>
  <course>8.16</course>
  <speed>1.7962739212046697</speed>
  <fix>3d</fix>
</trkpt>
<trkpt lat="33.8103282" lon="-118.3941826">
  <ele>-0.112</ele>
  <time>2026-09-02T22:07:27Z</time>
  <course>8.16</course>
  <speed>1.7962739212046697</speed>
  <fix>3d</fix>
</trkpt>
<trkpt lat="33.8103283" lon="-118.3941799">
  <ele>-0.1</ele>
  <time>2026-09-02T22:07:27Z</time>
  <course>275.73</course>
  <speed>1.82</speed>
  <fix>3d</fix>
</trkpt>
<trkpt lat="33.8103282" lon="-118.3941826">
  <ele>-0.112</ele>
  <time>2026-09-02T22:07:27Z</time>
  <course>8.16</course>
  <speed>1.7962739212046697</speed>
  <fix>3d</fix>
</trkpt>
<trkpt lat="33.8103283" lon="-118.394183">
  <ele>-0.112</ele>
  <time>2026-09-02T22:07:27Z</time>
  <course>8.16</course>
  <speed>1.7962739212046697</speed>
  <fix>3d</fix>
</trkpt>
<trkpt lat="33.8103283" lon="-118.3941832">
  <ele>-0.112</ele>
  <time>2026-09-02T22:07:27Z</time>
  <course>8.16</course>
  <speed>1.7962739212046697</speed>
  <fix>3d</fix>
</trkpt>
<trkpt lat="33.8103283" lon="-118.3941834">
  <ele>-0.112</ele>
  <time>2026-09-02T22:07:27Z</time>
  <course>8.16</course>
  <speed>1.7962739212046697</speed>
  <fix>3d</fix>
</trkpt>
<trkpt lat="33.8103283" lon="-118.3941835">
  <ele>-0.112</ele>
  <time>2026-09-02T22:07:27Z</time>
  <course>8.17</course>
  <speed>1.7962739212046697</speed>
  <fix>3d</fix>
</trkpt>
<trkpt lat="33.8103283" lon="-118.3941837">
  <ele>-0.112</ele>
  <time>2026-09-02T22:07:27Z</time>
  <course>8.17</course>
  <speed>1.7962739212046697</speed>
  <fix>3d</fix>
</trkpt>
<trkpt lat="33.8103283" lon="-118.3941839">
  <ele>-0.111</ele>
  <time>2026-09-02T22:07:27Z</time>
  <course>8.17</course>
  <speed>1.7962739212046697</speed>
  <fix>3d</fix>
</trkpt>
<trkpt lat="33.8103284" lon="-118.3941841">
  <ele>-0.111</ele>
  <time>2026-09-02T22:07:27Z</time>
  <course>8.17</course>
  <speed>1.7962739212046697</speed>
  <fix>3d</fix>
</trkpt>
<trkpt lat="33.8103284" lon="-118.3941843">
  <ele>-0.111</ele>
  <time>2026-09-02T22:07:27Z</time>
  <course>8.17</course>
  <speed>1.7962739212046697</speed>
  <fix>3d</fix>
</trkpt>
<trkpt lat="33.8103284" lon="-118.3941844">
  <ele>-0.111</ele>
  <time>2026-09-02T22:07:27Z</time>
  <course>8.17</course>
  <speed>1.7962739212046697</speed>
  <fix>3d</fix>
</trkpt>
<trkpt lat="33.8103284" lon="-118.3941845">
  <ele>-0.111</ele>
  <time>2026-09-02T22:07:27Z</time>
  <course>8.17</course>
  <speed>1.7962739212046697</speed>
  <fix>3d</fix>
</trkpt>
<trkpt lat="33.8103283" lon="-118.3941799">
  <ele>-0.1</ele>
  <time>2026-09-02T22:07:27Z</time>
  <course>275.73</course>
  <speed>1.82</speed>
  <fix>3d</fix>
</trkpt>
<trkpt lat="33.8103284" lon="-118.3941846">
  <ele>-0.111</ele>
  <time>2026-09-02T22:07:27Z</time>
  <course>8.17</course>
  <speed>1.7962739212046697</speed>
  <fix>3d</fix>
</trkpt>
<trkpt lat="33.8103284" lon="-118.3941849">
  <ele>-0.111</ele>
  <time>2026-09-02T22:07:27Z</time>
  <course>8.17</course>
  <speed>1.7962739212046697</speed>
  <fix>3d</fix>
</trkpt>
<trkpt lat="33.8103284" lon="-118.3941851">
  <ele>-0.111</ele>
  <time>2026-09-02T22:07:27Z</time>
  <course>8.18</course>
  <speed>1.7962739212046697</speed>
  <fix>3d</fix>
</trkpt>
<trkpt lat="33.8103285" lon="-118.3941853">
  <ele>-0.111</ele>
  <time>2026-09-02T22:07:27Z</time>
  <course>8.18</course>
  <speed>1.7962739212046697</speed>
  <fix>3d</fix>
</trkpt>
<trkpt lat="33.8103285" lon="-118.3941856">
  <ele>-0.111</ele>
  <time>2026-09-02T22:07:27Z</time>
  <course>8.18</course>
  <speed>1.7962739212046697</speed>
  <fix>3d</fix>
</trkpt>
<trkpt lat="33.8103285" lon="-118.3941858">
  <ele>-0.11</ele>
  <time>2026-09-02T22:07:27Z</time>
  <course>8.18</course>
  <speed>1.7962739212046697</speed>
  <fix>3d</fix>
</trkpt>
<trkpt lat="33.8103285" lon="-118.3941859">
  <ele>-0.11</ele>
  <time>2026-09-02T22:07:27Z</time>
  <course>8.18</course>
  <speed>1.7962739212046697</speed>
  <fix>3d</fix>
</trkpt>
<trkpt lat="33.8103285" lon="-118.3941862">
  <ele>-0.11</ele>
  <time>2026-09-02T22:07:27Z</time>
  <course>8.18</course>
  <speed>1.7962739212046697</speed>
  <fix>3d</fix>
</trkpt>
<trkpt lat="33.8103285" lon="-118.3941864">
  <ele>-0.11</ele>
  <time>2026-09-02T22:07:27Z</time>
  <course>8.18</course>
  <speed>1.7962739212046697</speed>
  <fix>3d</fix>
</trkpt>
<trkpt lat="33.8103286" lon="-118.3941865">
  <ele>-0.11</ele>
  <time>2026-09-02T22:07:27Z</time>
  <course>8.19</course>
  <speed>1.7962739212046697</speed>
  <fix>3d</fix>
</trkpt>
<trkpt lat="33.8103286" lon="-118.3941839">
  <ele>-0.1</ele>
  <time>2026-09-02T22:07:27Z</time>
  <course>275.76</course>
  <speed>1.82</speed>
  <fix>3d</fix>
</trkpt>
<trkpt lat="33.8103286" lon="-118.3941865">
  <ele>-0.11</ele>
  <time>2026-09-02T22:07:27Z</time>
  <course>8.19</course>
  <speed>1.7962739212046697</speed>
  <fix>3d</fix>
</trkpt>
<trkpt lat="33.8103286" lon="-118.3941868">
  <ele>-0.11</ele>
  <time>2026-09-02T22:07:27Z</time>
  <course>8.19</course>
  <speed>1.7962739212046697</speed>
  <fix>3d</fix>
</trkpt>
<trkpt lat="33.8103286" lon="-118.394187">
  <ele>-0.11</ele>
  <time>2026-09-02T22:07:27Z</time>
  <course>8.19</course>
  <speed>1.7962739212046697</speed>
  <fix>3d</fix>
</trkpt>
<trkpt lat="33.8103286" lon="-118.3941872">
  <ele>-0.11</ele>
  <time>2026-09-02T22:07:27Z</time>
  <course>8.19</course>
  <speed>1.7962739212046697</speed>
  <fix>3d</fix>
</trkpt>
<trkpt lat="33.8103286" lon="-118.3941873">
  <ele>-0.11</ele>
  <time>2026-09-02T22:07:27Z</time>
  <course>8.19</course>
  <speed>1.7962739212046697</speed>
  <fix>3d</fix>
</trkpt>
<trkpt lat="33.8103286" lon="-118.3941875">
  <ele>-0.111</ele>
  <time>2026-09-02T22:07:27Z</time>
  <course>8.19</course>
  <speed>1.7962739212046697</speed>
  <fix>3d</fix>
</trkpt>
<trkpt lat="33.8103287" lon="-118.3941877">
  <ele>-0.111</ele>
  <time>2026-09-02T22:07:27Z</time>
  <course>8.19</course>
  <speed>1.7962739212046697</speed>
  <fix>3d</fix>
</trkpt>
<trkpt lat="33.8103287" lon="-118.3941878">
  <ele>-0.111</ele>
  <time>2026-09-02T22:07:27Z</time>
  <course>8.19</course>
  <speed>1.7962739212046697</speed>
  <fix>3d</fix>
</trkpt>
<trkpt lat="33.8103287" lon="-118.394188">
  <ele>-0.111</ele>
  <time>2026-09-02T22:07:27Z</time>
  <course>8.2</course>
  <speed>1.7962739212046697</speed>
  <fix>3d</fix>
</trkpt>
<trkpt lat="33.8103287" lon="-118.3941882">
  <ele>-0.111</ele>
  <time>2026-09-02T22:07:27Z</time>
  <course>8.2</course>
  <speed>1.7962739212046697</speed>
  <fix>3d</fix>
</trkpt>
<trkpt lat="33.8103287" lon="-118.3941883">
  <ele>-0.111</ele>
  <time>2026-09-02T22:07:27Z</time>
  <course>8.2</course>
  <speed>1.7962739212046697</speed>
  <fix>3d</fix>
</trkpt>
<trkpt lat="33.8103287" lon="-118.3941885">
  <ele>-0.111</ele>
  <time>2026-09-02T22:07:27Z</time>
  <course>8.2</course>
  <speed>1.7962739212046697</speed>
  <fix>3d</fix>
</trkpt>
<trkpt lat="33.8103286" lon="-118.3941839">
  <ele>-0.1</ele>
  <time>2026-09-02T22:07:27Z</time>
  <course>275.76</course>
  <speed>1.82</speed>
  <fix>3d</fix>
</trkpt>
<trkpt lat="33.8103287" lon="-118.3941885">
  <ele>-0.111</ele>
  <time>2026-09-02T22:07:27Z</time>
  <course>8.2</course>
  <speed>1.7962739212046697</speed>
  <fix>3d</fix>
</trkpt>
<trkpt lat="33.8103288" lon="-118.3941888">
  <ele>-0.111</ele>
  <time>2026-09-02T22:07:27Z</time>
  <course>8.2</course>
  <speed>1.7962739212046697</speed>
  <fix>3d</fix>
</trkpt>
<trkpt lat="33.8103288" lon="-118.394189">
  <ele>-0.111</ele>
  <time>2026-09-02T22:07:27Z</time>
  <course>8.2</course>
  <speed>1.7962739212046697</speed>
  <fix>3d</fix>
</trkpt>
<trkpt lat="33.8103288" lon="-118.3941892">
  <ele>-0.111</ele>
  <time>2026-09-02T22:07:27Z</time>
  <course>8.2</course>
  <speed>1.7962739212046697</speed>
  <fix>3d</fix>
</trkpt>
<trkpt lat="33.8103288" lon="-118.3941894">
  <ele>-0.111</ele>
  <time>2026-09-02T22:07:27Z</time>
  <course>8.21</course>
  <speed>1.7962739212046697</speed>
  <fix>3d</fix>
</trkpt>
<trkpt lat="33.8103288" lon="-118.3941895">
  <ele>-0.111</ele>
  <time>2026-09-02T22:07:27Z</time>
  <course>8.21</course>
  <speed>1.7962739212046697</speed>
  <fix>3d</fix>
</trkpt>
<trkpt lat="33.8103288" lon="-118.3941897">
  <ele>-0.111</ele>
  <time>2026-09-02T22:07:27Z</time>
  <course>8.21</course>
  <speed>1.7962739212046697</speed>
  <fix>3d</fix>
</trkpt>
<trkpt lat="33.8103288" lon="-118.3941899">
  <ele>-0.111</ele>
  <time>2026-09-02T22:07:27Z</time>
  <course>8.21</course>
  <speed>1.7962739212046697</speed>
  <fix>3d</fix>
</trkpt>
<trkpt lat="33.8103289" lon="-118.39419">
  <ele>-0.111</ele>
  <time>2026-09-02T22:07:27Z</time>
  <course>8.21</course>
  <speed>1.7962739212046697</speed>
  <fix>3d</fix>
</trkpt>
<trkpt lat="33.8103289" lon="-118.3941902">
  <ele>-0.111</ele>
  <time>2026-09-02T22:07:27Z</time>
  <course>8.21</course>
  <speed>1.7962739212046697</speed>
  <fix>3d</fix>
</trkpt>
<trkpt lat="33.8103289" lon="-118.3941903">
  <ele>-0.111</ele>
  <time>2026-09-02T22:07:27Z</time>
  <course>8.21</course>
  <speed>1.7962739212046697</speed>
  <fix>3d</fix>
</trkpt>
<trkpt lat="33.8103289" lon="-118.3941904">
  <ele>-0.111</ele>
  <time>2026-09-02T22:07:27Z</time>
  <course>8.21</course>
  <speed>1.7962739212046697</speed>
  <fix>3d</fix>
</trkpt>
<trkpt lat="33.8103289" lon="-118.3941878">
  <ele>-0.1</ele>
  <time>2026-09-02T22:07:27Z</time>
  <course>275.79</course>
  <speed>1.82</speed>
  <fix>3d</fix>
</trkpt>
<trkpt lat="33.8103289" lon="-118.3941905">
  <ele>-0.111</ele>
  <time>2026-09-02T22:07:27Z</time>
  <course>8.21</course>
  <speed>1.7962739212046697</speed>
  <fix>3d</fix>
</trkpt>
<trkpt lat="33.8103289" lon="-118.3941908">
  <ele>-0.111</ele>
  <time>2026-09-02T22:07:27Z</time>
  <course>8.22</course>
  <speed>1.7962739212046697</speed>
  <fix>3d</fix>
</trkpt>
<trkpt lat="33.8103289" lon="-118.3941911">
  <ele>-0.111</ele>
  <time>2026-09-02T22:07:27Z</time>
  <course>8.22</course>
  <speed>1.7962739212046697</speed>
  <fix>3d</fix>
</trkpt>
<trkpt lat="33.810329" lon="-118.3941913">
  <ele>-0.111</ele>
  <time>2026-09-02T22:07:27Z</time>
  <course>8.22</course>
  <speed>1.7962739212046697</speed>
  <fix>3d</fix>
</trkpt>
<trkpt lat="33.810329" lon="-118.3941914">
  <ele>-0.111</ele>
  <time>2026-09-02T22:07:27Z</time>
  <course>8.22</course>
  <speed>1.7962739212046697</speed>
  <fix>3d</fix>
</trkpt>
<trkpt lat="33.810329" lon="-118.3941916">
  <ele>-0.111</ele>
  <time>2026-09-02T22:07:27Z</time>
  <course>8.22</course>
  <speed>1.7962739212046697</speed>
  <fix>3d</fix>
</trkpt>
<trkpt lat="33.810329" lon="-118.3941917">
  <ele>-0.111</ele>
  <time>2026-09-02T22:07:27Z</time>
  <course>8.22</course>
  <speed>1.7962739212046697</speed>
  <fix>3d</fix>
</trkpt>
<trkpt lat="33.810329" lon="-118.3941919">
  <ele>-0.111</ele>
  <time>2026-09-02T22:07:27Z</time>
  <course>8.22</course>
  <speed>1.7962739212046697</speed>
  <fix>3d</fix>
</trkpt>
<trkpt lat="33.810329" lon="-118.394192">
  <ele>-0.111</ele>
  <time>2026-09-02T22:07:27Z</time>
  <course>8.22</course>
  <speed>1.7962739212046697</speed>
  <fix>3d</fix>
</trkpt>
<trkpt lat="33.810329" lon="-118.3941922">
  <ele>-0.111</ele>
  <time>2026-09-02T22:07:27Z</time>
  <course>8.22</course>
  <speed>1.7962739212046697</speed>
  <fix>3d</fix>
</trkpt>
<trkpt lat="33.8103291" lon="-118.3941924">
  <ele>-0.111</ele>
  <time>2026-09-02T22:07:27Z</time>
  <course>8.23</course>
  <speed>1.7962739212046697</speed>
  <fix>3d</fix>
</trkpt>
<trkpt lat="33.8103291" lon="-118.3941924">
  <ele>-0.111</ele>
  <time>2026-09-02T22:07:27Z</time>
  <course>8.23</course>
  <speed>1.7962739212046697</speed>
  <fix>3d</fix>
</trkpt>
<trkpt lat="33.8103289" lon="-118.3941878">
  <ele>-0.1</ele>
  <time>2026-09-02T22:07:27Z</time>
  <course>275.79</course>
  <speed>1.82</speed>
  <fix>3d</fix>
</trkpt>
<trkpt lat="33.8103291" lon="-118.3941928">
  <ele>-0.111</ele>
  <time>2026-09-02T22:07:27Z</time>
  <course>8.23</course>
  <speed>1.7962739212046697</speed>
  <fix>3d</fix>
</trkpt>
<trkpt lat="33.8103291" lon="-118.394193">
  <ele>-0.111</ele>
  <time>2026-09-02T22:07:27Z</time>
  <course>8.23</course>
  <speed>1.7962739212046697</speed>
  <fix>3d</fix>
</trkpt>
<trkpt lat="33.8103291" lon="-118.3941932">
  <ele>-0.111</ele>
  <time>2026-09-02T22:07:27Z</time>
  <course>8.23</course>
  <speed>1.7962739212046697</speed>
  <fix>3d</fix>
</trkpt>
<trkpt lat="33.8103291" lon="-118.3941933">
  <ele>-0.111</ele>
  <time>2026-09-02T22:07:27Z</time>
  <course>8.23</course>
  <speed>1.7962739212046697</speed>
  <fix>3d</fix>
</trkpt>
<trkpt lat="33.8103291" lon="-118.3941935">
  <ele>-0.111</ele>
  <time>2026-09-02T22:07:27Z</time>
  <course>8.23</course>
  <speed>1.7962739212046697</speed>
  <fix>3d</fix>
</trkpt>
<trkpt lat="33.8103292" lon="-118.3941937">
  <ele>-0.111</ele>
  <time>2026-09-02T22:07:27Z</time>
  <course>8.24</course>
  <speed>1.7962739212046697</speed>
  <fix>3d</fix>
</trkpt>
<trkpt lat="33.8103292" lon="-118.3941939">
  <ele>-0.111</ele>
  <time>2026-09-02T22:07:27Z</time>
  <course>8.24</course>
  <speed>1.7962739212046697</speed>
  <fix>3d</fix>
</trkpt>
<trkpt lat="33.8103292" lon="-118.394194">
  <ele>-0.111</ele>
  <time>2026-09-02T22:07:27Z</time>
  <course>8.24</course>
  <speed>1.7962739212046697</speed>
  <fix>3d</fix>
</trkpt>
<trkpt lat="33.8103292" lon="-118.3941942">
  <ele>-0.111</ele>
  <time>2026-09-02T22:07:27Z</time>
  <course>8.24</course>
  <speed>1.7962739212046697</speed>
  <fix>3d</fix>
</trkpt>
<trkpt lat="33.8103292" lon="-118.3941943">
  <ele>-0.111</ele>
  <time>2026-09-02T22:07:27Z</time>
  <course>8.24</course>
  <speed>1.7962739212046697</speed>
  <fix>3d</fix>
</trkpt>
<trkpt lat="33.8103293" lon="-118.3941917">
  <ele>-0.1</ele>
  <time>2026-09-02T22:07:27Z</time>
  <course>275.82</course>
  <speed>1.82</speed>
  <fix>3d</fix>
</trkpt>
<trkpt lat="33.8103292" lon="-118.3941944">
  <ele>-0.111</ele>
  <time>2026-09-02T22:07:27Z</time>
  <course>8.24</course>
  <speed>1.7962739212046697</speed>
  <fix>3d</fix>
</trkpt>
<trkpt lat="33.8103293" lon="-118.3941947">
  <ele>-0.111</ele>
  <time>2026-09-02T22:07:27Z</time>
  <course>8.24</course>
  <speed>1.7962739212046697</speed>
  <fix>3d</fix>
</trkpt>
<trkpt lat="33.8103293" lon="-118.3941949">
  <ele>-0.111</ele>
  <time>2026-09-02T22:07:27Z</time>
  <course>8.24</course>
  <speed>1.7962739212046697</speed>
  <fix>3d</fix>
</trkpt>
<trkpt lat="33.8103293" lon="-118.394195">
  <ele>-0.111</ele>
  <time>2026-09-02T22:07:27Z</time>
  <course>8.24</course>
  <speed>1.7962739212046697</speed>
  <fix>3d</fix>
</trkpt>
<trkpt lat="33.8103293" lon="-118.3941952">
  <ele>-0.11</ele>
  <time>2026-09-02T22:07:27Z</time>
  <course>8.25</course>
  <speed>1.7962739212046697</speed>
  <fix>3d</fix>
</trkpt>
<trkpt lat="33.8103293" lon="-118.3941953">
  <ele>-0.11</ele>
  <time>2026-09-02T22:07:27Z</time>
  <course>8.25</course>
  <speed>1.7962739212046697</speed>
  <fix>3d</fix>
</trkpt>
<trkpt lat="33.8103293" lon="-118.3941955">
  <ele>-0.11</ele>
  <time>2026-09-02T22:07:27Z</time>
  <course>8.25</course>
  <speed>1.7962739212046697</speed>
  <fix>3d</fix>
</trkpt>
<trkpt lat="33.8103293" lon="-118.3941957">
  <ele>-0.11</ele>
  <time>2026-09-02T22:07:27Z</time>
  <course>8.25</course>
  <speed>1.7962739212046697</speed>
  <fix>3d</fix>
</trkpt>
<trkpt lat="33.8103293" lon="-118.3941958">
  <ele>-0.11</ele>
  <time>2026-09-02T22:07:27Z</time>
  <course>8.25</course>
  <speed>1.7962739212046697</speed>
  <fix>3d</fix>
</trkpt>
<trkpt lat="33.8103294" lon="-118.394196">
  <ele>-0.11</ele>
  <time>2026-09-02T22:07:27Z</time>
  <course>8.25</course>
  <speed>1.7962739212046697</speed>
  <fix>3d</fix>
</trkpt>
<trkpt lat="33.8103294" lon="-118.3941962">
  <ele>-0.11</ele>
  <time>2026-09-02T22:07:27Z</time>
  <course>8.25</course>
  <speed>1.7962739212046697</speed>
  <fix>3d</fix>
</trkpt>
<trkpt lat="33.8103294" lon="-118.3941963">
  <ele>-0.11</ele>
  <time>2026-09-02T22:07:27Z</time>
  <course>8.25</course>
  <speed>1.7962739212046697</speed>
  <fix>3d</fix>
</trkpt>
<trkpt lat="33.8103293" lon="-118.3941917">
  <ele>-0.1</ele>
  <time>2026-09-02T22:07:27Z</time>
  <course>275.82</course>
  <speed>1.82</speed>
  <fix>3d</fix>
</trkpt>
<trkpt lat="33.8103294" lon="-118.3941964">
  <ele>-0.11</ele>
  <time>2026-09-02T22:07:27Z</time>
  <course>8.25</course>
  <speed>1.7962739212046697</speed>
  <fix>3d</fix>
</trkpt>
<trkpt lat="33.8103294" lon="-118.3941966">
  <ele>-0.11</ele>
  <time>2026-09-02T22:07:27Z</time>
  <course>8.26</course>
  <speed>1.7962739212046697</speed>
  <fix>3d</fix>
</trkpt>
<trkpt lat="33.8103294" lon="-118.3941968">
  <ele>-0.11</ele>
  <time>2026-09-02T22:07:27Z</time>
  <course>8.26</course>
  <speed>1.7962739212046697</speed>
  <fix>3d</fix>
</trkpt>
<trkpt lat="33.8103294" lon="-118.394197">
  <ele>-0.109</ele>
  <time>2026-09-02T22:07:27Z</time>
  <course>8.26</course>
  <speed>1.7962739212046697</speed>
  <fix>3d</fix>
</trkpt>
<trkpt lat="33.8103295" lon="-118.3941971">
  <ele>-0.109</ele>
  <time>2026-09-02T22:07:27Z</time>
  <course>8.26</course>
  <speed>1.7962739212046697</speed>
  <fix>3d</fix>
</trkpt>
<trkpt lat="33.8103295" lon="-118.3941973">
  <ele>-0.109</ele>
  <time>2026-09-02T22:07:27Z</time>
  <course>8.26</course>
  <speed>1.7962739212046697</speed>
  <fix>3d</fix>
</trkpt>
<trkpt lat="33.8103295" lon="-118.3941975">
  <ele>-0.109</ele>
  <time>2026-09-02T22:07:27Z</time>
  <course>8.26</course>
  <speed>1.7962739212046697</speed>
  <fix>3d</fix>
</trkpt>
<trkpt lat="33.8103295" lon="-118.3941976">
  <ele>-0.109</ele>
  <time>2026-09-02T22:07:27Z</time>
  <course>8.26</course>
  <speed>1.7962739212046697</speed>
  <fix>3d</fix>
</trkpt>
<trkpt lat="33.8103295" lon="-118.3941978">
  <ele>-0.109</ele>
  <time>2026-09-02T22:07:27Z</time>
  <course>8.26</course>
  <speed>1.7962739212046697</speed>
  <fix>3d</fix>
</trkpt>
<trkpt lat="33.8103295" lon="-118.394198">
  <ele>-0.109</ele>
  <time>2026-09-02T22:07:27Z</time>
  <course>8.26</course>
  <speed>1.7962739212046697</speed>
  <fix>3d</fix>
</trkpt>
<trkpt lat="33.8103295" lon="-118.3941982">
  <ele>-0.109</ele>
  <time>2026-09-02T22:07:27Z</time>
  <course>8.27</course>
  <speed>1.7962739212046697</speed>
  <fix>3d</fix>
</trkpt>
<trkpt lat="33.8103296" lon="-118.3941983">
  <ele>-0.109</ele>
  <time>2026-09-02T22:07:27Z</time>
  <course>8.27</course>
  <speed>1.7962739212046697</speed>
  <fix>3d</fix>
</trkpt>
<trkpt lat="33.8103296" lon="-118.3941956">
  <ele>-0.1</ele>
  <time>2026-09-02T22:07:27Z</time>
  <course>275.85</course>
  <speed>1.82</speed>
  <fix>3d</fix>
</trkpt>
<trkpt lat="33.8103296" lon="-118.3941983">
  <ele>-0.109</ele>
  <time>2026-09-02T22:07:27Z</time>
  <course>8.27</course>
  <speed>1.7962739212046697</speed>
  <fix>3d</fix>
</trkpt>
<trkpt lat="33.8103296" lon="-118.3941986">
  <ele>-0.109</ele>
  <time>2026-09-02T22:07:27Z</time>
  <course>8.27</course>
  <speed>1.7962739212046697</speed>
  <fix>3d</fix>
</trkpt>
<trkpt lat="33.8103296" lon="-118.3941988">
  <ele>-0.108</ele>
  <time>2026-09-02T22:07:27Z</time>
  <course>8.27</course>
  <speed>1.7962739212046697</speed>
  <fix>3d</fix>
</trkpt>
<trkpt lat="33.8103296" lon="-118.3941989">
  <ele>-0.108</ele>
  <time>2026-09-02T22:07:27Z</time>
  <course>8.27</course>
  <speed>1.7962739212046697</speed>
  <fix>3d</fix>
</trkpt>
<trkpt lat="33.8103296" lon="-118.3941991">
  <ele>-0.108</ele>
  <time>2026-09-02T22:07:27Z</time>
  <course>8.27</course>
  <speed>1.7962739212046697</speed>
  <fix>3d</fix>
</trkpt>
<trkpt lat="33.8103296" lon="-118.3941993">
  <ele>-0.108</ele>
  <time>2026-09-02T22:07:27Z</time>
  <course>8.27</course>
  <speed>1.7962739212046697</speed>
  <fix>3d</fix>
</trkpt>
<trkpt lat="33.8103297" lon="-118.3941994">
  <ele>-0.108</ele>
  <time>2026-09-02T22:07:27Z</time>
  <course>8.27</course>
  <speed>1.7962739212046697</speed>
  <fix>3d</fix>
</trkpt>
<trkpt lat="33.8103297" lon="-118.3941996">
  <ele>-0.108</ele>
  <time>2026-09-02T22:07:27Z</time>
  <course>8.28</course>
  <speed>1.7962739212046697</speed>
  <fix>3d</fix>
</trkpt>
<trkpt lat="33.8103297" lon="-118.3941997">
  <ele>-0.107</ele>
  <time>2026-09-02T22:07:27Z</time>
  <course>8.28</course>
  <speed>1.7962739212046697</speed>
  <fix>3d</fix>
</trkpt>
<trkpt lat="33.8103297" lon="-118.3941999">
  <ele>-0.107</ele>
  <time>2026-09-02T22:07:27Z</time>
  <course>8.28</course>
  <speed>1.7962739212046697</speed>
  <fix>3d</fix>
</trkpt>
<trkpt lat="33.8103297" lon="-118.3942001">
  <ele>-0.107</ele>
  <time>2026-09-02T22:07:27Z</time>
  <course>8.28</course>
  <speed>1.7962739212046697</speed>
  <fix>3d</fix>
</trkpt>
<trkpt lat="33.8103297" lon="-118.3942002">
  <ele>-0.107</ele>
  <time>2026-09-02T22:07:27Z</time>
  <course>8.28</course>
  <speed>1.7962739212046697</speed>
  <fix>3d</fix>
</trkpt>
<trkpt lat="33.8103297" lon="-118.3942002">
  <ele>-0.107</ele>
  <time>2026-09-02T22:07:27Z</time>
  <course>8.28</course>
  <speed>1.7962739212046697</speed>
  <fix>3d</fix>
</trkpt>
<trkpt lat="33.8103296" lon="-118.3941956">
  <ele>-0.1</ele>
  <time>2026-09-02T22:07:27Z</time>
  <course>275.85</course>
  <speed>1.82</speed>
  <fix>3d</fix>
</trkpt>
<trkpt lat="33.8103298" lon="-118.3942005">
  <ele>-0.107</ele>
  <time>2026-09-02T22:07:27Z</time>
  <course>8.28</course>
  <speed>1.7962739212046697</speed>
  <fix>3d</fix>
</trkpt>
<trkpt lat="33.8103298" lon="-118.3942007">
  <ele>-0.107</ele>
  <time>2026-09-02T22:07:27Z</time>
  <course>8.28</course>
  <speed>1.7962739212046697</speed>
  <fix>3d</fix>
</trkpt>
<trkpt lat="33.8103298" lon="-118.3942009">
  <ele>-0.106</ele>
  <time>2026-09-02T22:07:27Z</time>
  <course>8.29</course>
  <speed>1.7962739212046697</speed>
  <fix>3d</fix>
</trkpt>
<trkpt lat="33.8103298" lon="-118.3942011">
  <ele>-0.106</ele>
  <time>2026-09-02T22:07:27Z</time>
  <course>8.29</course>
  <speed>1.7962739212046697</speed>
  <fix>3d</fix>
</trkpt>
<trkpt lat="33.8103298" lon="-118.3942012">
  <ele>-0.106</ele>
  <time>2026-09-02T22:07:27Z</time>
  <course>8.29</course>
  <speed>1.7971366113904643</speed>
  <fix>3d</fix>
</trkpt>
<trkpt lat="33.8103298" lon="-118.3942014">
  <ele>-0.106</ele>
  <time>2026-09-02T22:07:27Z</time>
  <course>8.29</course>
  <speed>1.7971366113904643</speed>
  <fix>3d</fix>
</trkpt>
<trkpt lat="33.8103298" lon="-118.3942015">
  <ele>-0.106</ele>
  <time>2026-09-02T22:07:27Z</time>
  <course>8.29</course>
  <speed>1.7971366113904643</speed>
  <fix>3d</fix>
</trkpt>
<trkpt lat="33.8103299" lon="-118.3942017">
  <ele>-0.106</ele>
  <time>2026-09-02T22:07:27Z</time>
  <course>8.29</course>
  <speed>1.7971366113904643</speed>
  <fix>3d</fix>
</trkpt>
<trkpt lat="33.8103299" lon="-118.3942019">
  <ele>-0.106</ele>
  <time>2026-09-02T22:07:27Z</time>
  <course>8.29</course>
  <speed>1.7971366113904643</speed>
  <fix>3d</fix>
</trkpt>
<trkpt lat="33.8103299" lon="-118.394202">
  <ele>-0.106</ele>
  <time>2026-09-02T22:07:27Z</time>
  <course>8.29</course>
  <speed>1.7971366113904643</speed>
  <fix>3d</fix>
</trkpt>
<trkpt lat="33.8103299" lon="-118.3942022">
  <ele>-0.106</ele>
  <time>2026-09-02T22:07:27Z</time>
  <course>8.29</course>
  <speed>1.7971366113904643</speed>
  <fix>3d</fix>
</trkpt>
<trkpt lat="33.8103299" lon="-118.3942022">
  <ele>-0.106</ele>
  <time>2026-09-02T22:07:27Z</time>
  <course>8.29</course>
  <speed>1.7971366113904643</speed>
  <fix>3d</fix>
</trkpt>
<trkpt lat="33.8103299" lon="-118.3941995">
  <ele>-0.1</ele>
  <time>2026-09-02T22:07:27Z</time>
  <course>275.89</course>
  <speed>1.82</speed>
  <fix>3d</fix>
</trkpt>
<trkpt lat="33.8103299" lon="-118.3942024">
  <ele>-0.105</ele>
  <time>2026-09-02T22:07:27Z</time>
  <course>8.3</course>
  <speed>1.7971366113904643</speed>
  <fix>3d</fix>
</trkpt>
<trkpt lat="33.8103299" lon="-118.3942026">
  <ele>-0.105</ele>
  <time>2026-09-02T22:07:27Z</time>
  <course>8.3</course>
  <speed>1.7971366113904643</speed>
  <fix>3d</fix>
</trkpt>
<trkpt lat="33.81033" lon="-118.3942028">
  <ele>-0.105</ele>
  <time>2026-09-02T22:07:27Z</time>
  <course>8.3</course>
  <speed>1.7971366113904643</speed>
  <fix>3d</fix>
</trkpt>
<trkpt lat="33.81033" lon="-118.394203">
  <ele>-0.105</ele>
  <time>2026-09-02T22:07:27Z</time>
  <course>8.3</course>
  <speed>1.7971366113904643</speed>
  <fix>3d</fix>
</trkpt>
<trkpt lat="33.81033" lon="-118.3942032">
  <ele>-0.105</ele>
  <time>2026-09-02T22:07:27Z</time>
  <course>8.3</course>
  <speed>1.7971366113904643</speed>
  <fix>3d</fix>
</trkpt>
<trkpt lat="33.81033" lon="-118.3942033">
  <ele>-0.105</ele>
  <time>2026-09-02T22:07:27Z</time>
  <course>8.3</course>
  <speed>1.7971366113904643</speed>
  <fix>3d</fix>
</trkpt>
<trkpt lat="33.81033" lon="-118.3942035">
  <ele>-0.105</ele>
  <time>2026-09-02T22:07:27Z</time>
  <course>8.3</course>
  <speed>1.7971366113904643</speed>
  <fix>3d</fix>
</trkpt>
<trkpt lat="33.81033" lon="-118.3942037">
  <ele>-0.105</ele>
  <time>2026-09-02T22:07:27Z</time>
  <course>8.3</course>
  <speed>1.7971366113904643</speed>
  <fix>3d</fix>
</trkpt>
<trkpt lat="33.81033" lon="-118.3942038">
  <ele>-0.105</ele>
  <time>2026-09-02T22:07:27Z</time>
  <course>8.3</course>
  <speed>1.7971366113904643</speed>
  <fix>3d</fix>
</trkpt>
<trkpt lat="33.81033" lon="-118.394204">
  <ele>-0.105</ele>
  <time>2026-09-02T22:07:27Z</time>
  <course>8.31</course>
  <speed>1.7971366113904643</speed>
  <fix>3d</fix>
</trkpt>
<trkpt lat="33.8103301" lon="-118.3942041">
  <ele>-0.105</ele>
  <time>2026-09-02T22:07:27Z</time>
  <course>8.31</course>
  <speed>1.7971366113904643</speed>
  <fix>3d</fix>
</trkpt>
<trkpt lat="33.8103301" lon="-118.3942041">
  <ele>-0.105</ele>
  <time>2026-09-02T22:07:27Z</time>
  <course>8.31</course>
  <speed>1.7971366113904643</speed>
  <fix>3d</fix>
</trkpt>
<trkpt lat="33.8103299" lon="-118.3941995">
  <ele>-0.1</ele>
  <time>2026-09-02T22:07:27Z</time>
  <course>275.89</course>
  <speed>1.82</speed>
  <fix>3d</fix>
</trkpt>
<trkpt lat="33.8103301" lon="-118.3942042">
  <ele>-0.105</ele>
  <time>2026-09-02T22:07:27Z</time>
  <course>8.31</course>
  <speed>1.7971366113904643</speed>
  <fix>3d</fix>
</trkpt>
<trkpt lat="33.8103301" lon="-118.3942044">
  <ele>-0.104</ele>
  <time>2026-09-02T22:07:27Z</time>
  <course>8.31</course>
  <speed>1.7971366113904643</speed>
  <fix>3d</fix>
</trkpt>
<trkpt lat="33.8103301" lon="-118.3942046">
  <ele>-0.104</ele>
  <time>2026-09-02T22:07:27Z</time>
  <course>8.31</course>
  <speed>1.7971366113904643</speed>
  <fix>3d</fix>
</trkpt>
<trkpt lat="33.8103301" lon="-118.3942048">
  <ele>-0.104</ele>
  <time>2026-09-02T22:07:27Z</time>
  <course>8.31</course>
  <speed>1.7971366113904643</speed>
  <fix>3d</fix>
</trkpt>
<trkpt lat="33.8103301" lon="-118.394205">
  <ele>-0.104</ele>
  <time>2026-09-02T22:07:27Z</time>
  <course>8.31</course>
  <speed>1.7971366113904643</speed>
  <fix>3d</fix>
</trkpt>
<trkpt lat="33.8103301" lon="-118.3942052">
  <ele>-0.104</ele>
  <time>2026-09-02T22:07:27Z</time>
  <course>8.31</course>
  <speed>1.7971366113904643</speed>
  <fix>3d</fix>
</trkpt>
<trkpt lat="33.8103302" lon="-118.3942053">
  <ele>-0.104</ele>
  <time>2026-09-02T22:07:27Z</time>
  <course>8.31</course>
  <speed>1.7971366113904643</speed>
  <fix>3d</fix>
</trkpt>
<trkpt lat="33.8103302" lon="-118.3942055">
  <ele>-0.104</ele>
  <time>2026-09-02T22:07:27Z</time>
  <course>8.32</course>
  <speed>1.7971366113904643</speed>
  <fix>3d</fix>
</trkpt>
<trkpt lat="33.8103302" lon="-118.3942056">
  <ele>-0.104</ele>
  <time>2026-09-02T22:07:27Z</time>
  <course>8.32</course>
  <speed>1.7971366113904643</speed>
  <fix>3d</fix>
</trkpt>
<trkpt lat="33.8103302" lon="-118.3942058">
  <ele>-0.104</ele>
  <time>2026-09-02T22:07:27Z</time>
  <course>8.32</course>
  <speed>1.7971366113904643</speed>
  <fix>3d</fix>
</trkpt>
<trkpt lat="33.8103302" lon="-118.3942059">
  <ele>-0.104</ele>
  <time>2026-09-02T22:07:27Z</time>
  <course>8.32</course>
  <speed>1.7971366113904643</speed>
  <fix>3d</fix>
</trkpt>
<trkpt lat="33.8103302" lon="-118.3942061">
  <ele>-0.104</ele>
  <time>2026-09-02T22:07:27Z</time>
  <course>8.32</course>
  <speed>1.7971366113904643</speed>
  <fix>3d</fix>
</trkpt>
<trkpt lat="33.8103302" lon="-118.3942061">
  <ele>-0.104</ele>
  <time>2026-09-02T22:07:27Z</time>
  <course>8.32</course>
  <speed>1.7971366113904643</speed>
  <fix>3d</fix>
</trkpt>
<trkpt lat="33.8103303" lon="-118.3942035">
  <ele>-0.1</ele>
  <time>2026-09-02T22:07:27Z</time>
  <course>275.92</course>
  <speed>1.82</speed>
  <fix>3d</fix>
</trkpt>
<trkpt lat="33.8103302" lon="-118.3942063">
  <ele>-0.104</ele>
  <time>2026-09-02T22:07:27Z</time>
  <course>8.32</course>
  <speed>1.7971366113904643</speed>
  <fix>3d</fix>
</trkpt>
<trkpt lat="33.8103303" lon="-118.3942065">
  <ele>-0.104</ele>
  <time>2026-09-02T22:07:27Z</time>
  <course>8.32</course>
  <speed>1.7971366113904643</speed>
  <fix>3d</fix>
</trkpt>
<trkpt lat="33.8103303" lon="-118.3942067">
  <ele>-0.104</ele>
  <time>2026-09-02T22:07:27Z</time>
  <course>8.32</course>
  <speed>1.7971366113904643</speed>
  <fix>3d</fix>
</trkpt>
<trkpt lat="33.8103303" lon="-118.3942068">
  <ele>-0.104</ele>
  <time>2026-09-02T22:07:27Z</time>
  <course>8.32</course>
  <speed>1.7971366113904643</speed>
  <fix>3d</fix>
</trkpt>
<trkpt lat="33.8103303" lon="-118.394207">
  <ele>-0.104</ele>
  <time>2026-09-02T22:07:27Z</time>
  <course>8.33</course>
  <speed>1.7971366113904643</speed>
  <fix>3d</fix>
</trkpt>
<trkpt lat="33.8103303" lon="-118.3942072">
  <ele>-0.104</ele>
  <time>2026-09-02T22:07:27Z</time>
  <course>8.33</course>
  <speed>1.7971366113904643</speed>
  <fix>3d</fix>
</trkpt>
<trkpt lat="33.8103303" lon="-118.3942073">
  <ele>-0.104</ele>
  <time>2026-09-02T22:07:27Z</time>
  <course>8.33</course>
  <speed>1.7971366113904643</speed>
  <fix>3d</fix>
</trkpt>
<trkpt lat="33.8103304" lon="-118.3942075">
  <ele>-0.104</ele>
  <time>2026-09-02T22:07:27Z</time>
  <course>8.33</course>
  <speed>1.7971366113904643</speed>
  <fix>3d</fix>
</trkpt>
<trkpt lat="33.8103304" lon="-118.3942076">
  <ele>-0.104</ele>
  <time>2026-09-02T22:07:27Z</time>
  <course>8.33</course>
  <speed>1.7971366113904643</speed>
  <fix>3d</fix>
</trkpt>
<trkpt lat="33.8103304" lon="-118.3942078">
  <ele>-0.104</ele>
  <time>2026-09-02T22:07:27Z</time>
  <course>8.33</course>
  <speed>1.7971366113904643</speed>
  <fix>3d</fix>
</trkpt>
<trkpt lat="33.8103304" lon="-118.3942079">
  <ele>-0.104</ele>
  <time>2026-09-02T22:07:27Z</time>
  <course>8.33</course>
  <speed>1.7971366113904643</speed>
  <fix>3d</fix>
</trkpt>
<trkpt lat="33.8103304" lon="-118.3942081">
  <ele>-0.104</ele>
  <time>2026-09-02T22:07:27Z</time>
  <course>8.33</course>
  <speed>1.7971366113904643</speed>
  <fix>3d</fix>
</trkpt>
<trkpt lat="33.8103304" lon="-118.3942081">
  <ele>-0.104</ele>
  <time>2026-09-02T22:07:27Z</time>
  <course>8.33</course>
  <speed>1.7971366113904643</speed>
  <fix>3d</fix>
</trkpt>
<trkpt lat="33.8103303" lon="-118.3942035">
  <ele>-0.1</ele>
  <time>2026-09-02T22:07:27Z</time>
  <course>275.92</course>
  <speed>1.82</speed>
  <fix>3d</fix>
</trkpt>
<trkpt lat="33.8103304" lon="-118.3942084">
  <ele>-0.104</ele>
  <time>2026-09-02T22:07:27Z</time>
  <course>8.34</course>
  <speed>1.7971366113904643</speed>
  <fix>3d</fix>
</trkpt>
<trkpt lat="33.8103304" lon="-118.3942086">
  <ele>-0.104</ele>
  <time>2026-09-02T22:07:27Z</time>
  <course>8.34</course>
  <speed>1.7971366113904643</speed>
  <fix>3d</fix>
</trkpt>
<trkpt lat="33.8103305" lon="-118.3942088">
  <ele>-0.103</ele>
  <time>2026-09-02T22:07:27Z</time>
  <course>8.34</course>
  <speed>1.7971366113904643</speed>
  <fix>3d</fix>
</trkpt>
<trkpt lat="33.8103305" lon="-118.394209">
  <ele>-0.103</ele>
  <time>2026-09-02T22:07:27Z</time>
  <course>8.34</course>
  <speed>1.7971366113904643</speed>
  <fix>3d</fix>
</trkpt>
<trkpt lat="33.8103305" lon="-118.3942091">
  <ele>-0.103</ele>
  <time>2026-09-02T22:07:27Z</time>
  <course>8.34</course>
  <speed>1.7971366113904643</speed>
  <fix>3d</fix>
</trkpt>
<trkpt lat="33.8103305" lon="-118.3942093">
  <ele>-0.103</ele>
  <time>2026-09-02T22:07:27Z</time>
  <course>8.34</course>
  <speed>1.7971366113904643</speed>
  <fix>3d</fix>
</trkpt>
<trkpt lat="33.8103305" lon="-118.3942094">
  <ele>-0.103</ele>
  <time>2026-09-02T22:07:27Z</time>
  <course>8.34</course>
  <speed>1.7971366113904643</speed>
  <fix>3d</fix>
</trkpt>
<trkpt lat="33.8103305" lon="-118.3942096">
  <ele>-0.103</ele>
  <time>2026-09-02T22:07:27Z</time>
  <course>8.34</course>
  <speed>1.7971366113904643</speed>
  <fix>3d</fix>
</trkpt>
<trkpt lat="33.8103305" lon="-118.3942097">
  <ele>-0.103</ele>
  <time>2026-09-02T22:07:27Z</time>
  <course>8.34</course>
  <speed>1.7971366113904643</speed>
  <fix>3d</fix>
</trkpt>
<trkpt lat="33.8103306" lon="-118.3942099">
  <ele>-0.103</ele>
  <time>2026-09-02T22:07:27Z</time>
  <course>8.34</course>
  <speed>1.7971366113904643</speed>
  <fix>3d</fix>
</trkpt>
<trkpt lat="33.8103306" lon="-118.3942101">
  <ele>-0.103</ele>
  <time>2026-09-02T22:07:27Z</time>
  <course>8.35</course>
  <speed>1.7971366113904643</speed>
  <fix>3d</fix>
</trkpt>
<trkpt lat="33.8103306" lon="-118.3942101">
  <ele>-0.103</ele>
  <time>2026-09-02T22:07:27Z</time>
  <course>8.35</course>
  <speed>1.7971366113904643</speed>
  <fix>3d</fix>
</trkpt>
<trkpt lat="33.8103306" lon="-118.3942074">
  <ele>-0.1</ele>
  <time>2026-09-02T22:07:27Z</time>
  <course>275.95</course>
  <speed>1.82</speed>
  <fix>3d</fix>
</trkpt>
<trkpt lat="33.8103306" lon="-118.3942103">
  <ele>-0.103</ele>
  <time>2026-09-02T22:07:27Z</time>
  <course>8.35</course>
  <speed>1.7971366113904643</speed>
  <fix>3d</fix>
</trkpt>
<trkpt lat="33.8103306" lon="-118.3942106">
  <ele>-0.103</ele>
  <time>2026-09-02T22:07:27Z</time>
  <course>8.35</course>
  <speed>1.7971366113904643</speed>
  <fix>3d</fix>
</trkpt>
<trkpt lat="33.8103306" lon="-118.3942108">
  <ele>-0.103</ele>
  <time>2026-09-02T22:07:27Z</time>
  <course>8.35</course>
  <speed>1.7971366113904643</speed>
  <fix>3d</fix>
</trkpt>
<trkpt lat="33.8103307" lon="-118.3942109">
  <ele>-0.103</ele>
  <time>2026-09-02T22:07:27Z</time>
  <course>8.35</course>
  <speed>1.7971366113904643</speed>
  <fix>3d</fix>
</trkpt>
<trkpt lat="33.8103307" lon="-118.3942111">
  <ele>-0.103</ele>
  <time>2026-09-02T22:07:27Z</time>
  <course>8.35</course>
  <speed>1.7971366113904643</speed>
  <fix>3d</fix>
</trkpt>
<trkpt lat="33.8103307" lon="-118.3942113">
  <ele>-0.103</ele>
  <time>2026-09-02T22:07:27Z</time>
  <course>8.35</course>
  <speed>1.7971366113904643</speed>
  <fix>3d</fix>
</trkpt>
<trkpt lat="33.8103307" lon="-118.3942115">
  <ele>-0.103</ele>
  <time>2026-09-02T22:07:27Z</time>
  <course>8.36</course>
  <speed>1.7971366113904643</speed>
  <fix>3d</fix>
</trkpt>
<trkpt lat="33.8103307" lon="-118.3942117">
  <ele>-0.103</ele>
  <time>2026-09-02T22:07:27Z</time>
  <course>8.36</course>
  <speed>1.7971366113904643</speed>
  <fix>3d</fix>
</trkpt>
<trkpt lat="33.8103307" lon="-118.3942118">
  <ele>-0.103</ele>
  <time>2026-09-02T22:07:27Z</time>
  <course>8.36</course>
  <speed>1.7971366113904643</speed>
  <fix>3d</fix>
</trkpt>
<trkpt lat="33.8103307" lon="-118.394212">
  <ele>-0.103</ele>
  <time>2026-09-02T22:07:27Z</time>
  <course>8.36</course>
  <speed>1.7971366113904643</speed>
  <fix>3d</fix>
</trkpt>
<trkpt lat="33.8103307" lon="-118.394212">
  <ele>-0.103</ele>
  <time>2026-09-02T22:07:27Z</time>
  <course>8.36</course>
  <speed>1.7971366113904643</speed>
  <fix>3d</fix>
</trkpt>
<trkpt lat="33.8103306" lon="-118.3942074">
  <ele>-0.1</ele>
  <time>2026-09-02T22:07:27Z</time>
  <course>275.95</course>
  <speed>1.82</speed>
  <fix>3d</fix>
</trkpt>
<trkpt lat="33.8103308" lon="-118.3942124">
  <ele>-0.103</ele>
  <time>2026-09-02T22:07:27Z</time>
  <course>8.36</course>
  <speed>1.7971366113904643</speed>
  <fix>3d</fix>
</trkpt>
<trkpt lat="33.8103308" lon="-118.3942125">
  <ele>-0.103</ele>
  <time>2026-09-02T22:07:27Z</time>
  <course>8.36</course>
  <speed>1.7971366113904643</speed>
  <fix>3d</fix>
</trkpt>
<trkpt lat="33.8103308" lon="-118.3942127">
  <ele>-0.103</ele>
  <time>2026-09-02T22:07:27Z</time>
  <course>8.36</course>
  <speed>1.7971366113904643</speed>
  <fix>3d</fix>
</trkpt>
<trkpt lat="33.8103308" lon="-118.3942128">
  <ele>-0.103</ele>
  <time>2026-09-02T22:07:27Z</time>
  <course>8.36</course>
  <speed>1.7971366113904643</speed>
  <fix>3d</fix>
</trkpt>
<trkpt lat="33.8103308" lon="-118.394213">
  <ele>-0.103</ele>
  <time>2026-09-02T22:07:27Z</time>
  <course>8.37</course>
  <speed>1.7971366113904643</speed>
  <fix>3d</fix>
</trkpt>
<trkpt lat="33.8103308" lon="-118.3942131">
  <ele>-0.103</ele>
  <time>2026-09-02T22:07:27Z</time>
  <course>8.37</course>
  <speed>1.7971366113904643</speed>
  <fix>3d</fix>
</trkpt>
<trkpt lat="33.8103309" lon="-118.3942133">
  <ele>-0.103</ele>
  <time>2026-09-02T22:07:27Z</time>
  <course>8.37</course>
  <speed>1.7971366113904643</speed>
  <fix>3d</fix>
</trkpt>
<trkpt lat="33.8103309" lon="-118.3942135">
  <ele>-0.103</ele>
  <time>2026-09-02T22:07:27Z</time>
  <course>8.37</course>
  <speed>1.7971366113904643</speed>
  <fix>3d</fix>
</trkpt>
<trkpt lat="33.8103309" lon="-118.3942136">
  <ele>-0.103</ele>
  <time>2026-09-02T22:07:27Z</time>
  <course>8.37</course>
  <speed>1.7971366113904643</speed>
  <fix>3d</fix>
</trkpt>
<trkpt lat="33.8103309" lon="-118.3942138">
  <ele>-0.103</ele>
  <time>2026-09-02T22:07:27Z</time>
  <course>8.37</course>
  <speed>1.7971366113904643</speed>
  <fix>3d</fix>
</trkpt>
<trkpt lat="33.8103309" lon="-118.394214">
  <ele>-0.103</ele>
  <time>2026-09-02T22:07:27Z</time>
  <course>8.37</course>
  <speed>1.7971366113904643</speed>
  <fix>3d</fix>
</trkpt>
<trkpt lat="33.8103309" lon="-118.394214">
  <ele>-0.103</ele>
  <time>2026-09-02T22:07:27Z</time>
  <course>8.37</course>
  <speed>1.7971366113904643</speed>
  <fix>3d</fix>
</trkpt>
<trkpt lat="33.810331" lon="-118.3942113">
  <ele>-0.1</ele>
  <time>2026-09-02T22:07:27Z</time>
  <course>275.98</course>
  <speed>1.82</speed>
  <fix>3d</fix>
</trkpt>
<trkpt lat="33.8103309" lon="-118.3942143">
  <ele>-0.103</ele>
  <time>2026-09-02T22:07:27Z</time>
  <course>8.37</course>
  <speed>1.7971366113904643</speed>
  <fix>3d</fix>
</trkpt>
<trkpt lat="33.810331" lon="-118.3942145">
  <ele>-0.102</ele>
  <time>2026-09-02T22:07:27Z</time>
  <course>8.37</course>
  <speed>1.7971366113904643</speed>
  <fix>3d</fix>
</trkpt>
<trkpt lat="33.810331" lon="-118.3942147">
  <ele>-0.102</ele>
  <time>2026-09-02T22:07:27Z</time>
  <course>8.38</course>
  <speed>1.7971366113904643</speed>
  <fix>3d</fix>
</trkpt>
<trkpt lat="33.810331" lon="-118.3942149">
  <ele>-0.102</ele>
  <time>2026-09-02T22:07:27Z</time>
  <course>8.38</course>
  <speed>1.7971366113904643</speed>
  <fix>3d</fix>
</trkpt>
<trkpt lat="33.810331" lon="-118.394215">
  <ele>-0.102</ele>
  <time>2026-09-02T22:07:27Z</time>
  <course>8.38</course>
  <speed>1.7971366113904643</speed>
  <fix>3d</fix>
</trkpt>
<trkpt lat="33.810331" lon="-118.3942152">
  <ele>-0.102</ele>
  <time>2026-09-02T22:07:27Z</time>
  <course>8.38</course>
  <speed>1.7971366113904643</speed>
  <fix>3d</fix>
</trkpt>
<trkpt lat="33.810331" lon="-118.3942153">
  <ele>-0.102</ele>
  <time>2026-09-02T22:07:27Z</time>
  <course>8.38</course>
  <speed>1.7971366113904643</speed>
  <fix>3d</fix>
</trkpt>
<trkpt lat="33.8103311" lon="-118.3942155">
  <ele>-0.102</ele>
  <time>2026-09-02T22:07:27Z</time>
  <course>8.38</course>
  <speed>1.7971366113904643</speed>
  <fix>3d</fix>
</trkpt>
<trkpt lat="33.8103311" lon="-118.3942156">
  <ele>-0.102</ele>
  <time>2026-09-02T22:07:27Z</time>
  <course>8.38</course>
  <speed>1.7971366113904643</speed>
  <fix>3d</fix>
</trkpt>
<trkpt lat="33.8103311" lon="-118.3942158">
  <ele>-0.102</ele>
  <time>2026-09-02T22:07:27Z</time>
  <course>8.38</course>
  <speed>1.7971366113904643</speed>
  <fix>3d</fix>
</trkpt>
<trkpt lat="33.8103311" lon="-118.3942159">
  <ele>-0.102</ele>
  <time>2026-09-02T22:07:27Z</time>
  <course>8.38</course>
  <speed>1.7971366113904643</speed>
  <fix>3d</fix>
</trkpt>
<trkpt lat="33.810331" lon="-118.3942113">
  <ele>-0.1</ele>
  <time>2026-09-02T22:07:27Z</time>
  <course>275.98</course>
  <speed>1.82</speed>
  <fix>3d</fix>
</trkpt>
<trkpt lat="33.8103311" lon="-118.394216">
  <ele>-0.102</ele>
  <time>2026-09-02T22:07:27Z</time>
  <course>8.38</course>
  <speed>1.7971366113904643</speed>
  <fix>3d</fix>
</trkpt>
<trkpt lat="33.8103311" lon="-118.3942162">
  <ele>-0.102</ele>
  <time>2026-09-02T22:07:27Z</time>
  <course>8.39</course>
  <speed>1.7971366113904643</speed>
  <fix>3d</fix>
</trkpt>
<trkpt lat="33.8103311" lon="-118.3942164">
  <ele>-0.102</ele>
  <time>2026-09-02T22:07:27Z</time>
  <course>8.39</course>
  <speed>1.7971366113904643</speed>
  <fix>3d</fix>
</trkpt>
<trkpt lat="33.8103311" lon="-118.3942166">
  <ele>-0.102</ele>
  <time>2026-09-02T22:07:27Z</time>
  <course>8.39</course>
  <speed>1.7971366113904643</speed>
  <fix>3d</fix>
</trkpt>
<trkpt lat="33.8103312" lon="-118.3942167">
  <ele>-0.102</ele>
  <time>2026-09-02T22:07:27Z</time>
  <course>8.39</course>
  <speed>1.7971366113904643</speed>
  <fix>3d</fix>
</trkpt>
<trkpt lat="33.8103312" lon="-118.3942169">
  <ele>-0.102</ele>
  <time>2026-09-02T22:07:27Z</time>
  <course>8.39</course>
  <speed>1.7971366113904643</speed>
  <fix>3d</fix>
</trkpt>
<trkpt lat="33.8103312" lon="-118.394217">
  <ele>-0.102</ele>
  <time>2026-09-02T22:07:27Z</time>
  <course>8.39</course>
  <speed>1.7971366113904643</speed>
  <fix>3d</fix>
</trkpt>
<trkpt lat="33.8103312" lon="-118.3942172">
  <ele>-0.102</ele>
  <time>2026-09-02T22:07:27Z</time>
  <course>8.39</course>
  <speed>1.7971366113904643</speed>
  <fix>3d</fix>
</trkpt>
<trkpt lat="33.8103312" lon="-118.3942174">
  <ele>-0.102</ele>
  <time>2026-09-02T22:07:27Z</time>
  <course>8.39</course>
  <speed>1.7971366113904643</speed>
  <fix>3d</fix>
</trkpt>
<trkpt lat="33.8103312" lon="-118.3942175">
  <ele>-0.102</ele>
  <time>2026-09-02T22:07:27Z</time>
  <course>8.39</course>
  <speed>1.7971366113904643</speed>
  <fix>3d</fix>
</trkpt>
<trkpt lat="33.8103312" lon="-118.3942177">
  <ele>-0.102</ele>
  <time>2026-09-02T22:07:27Z</time>
  <course>8.4</course>
  <speed>1.7971366113904643</speed>
  <fix>3d</fix>
</trkpt>
<trkpt lat="33.8103313" lon="-118.3942179">
  <ele>-0.102</ele>
  <time>2026-09-02T22:07:27Z</time>
  <course>8.4</course>
  <speed>1.7971366113904643</speed>
  <fix>3d</fix>
</trkpt>
<trkpt lat="33.8103313" lon="-118.3942179">
  <ele>-0.102</ele>
  <time>2026-09-02T22:07:27Z</time>
  <course>8.4</course>
  <speed>1.7971366113904643</speed>
  <fix>3d</fix>
</trkpt>
<trkpt lat="33.8103313" lon="-118.3942152">
  <ele>-0.1</ele>
  <time>2026-09-02T22:07:27Z</time>
  <course>276.0</course>
  <speed>1.82</speed>
  <fix>3d</fix>
</trkpt>
<trkpt lat="33.8103313" lon="-118.3942181">
  <ele>-0.102</ele>
  <time>2026-09-02T22:07:27Z</time>
  <course>8.4</course>
  <speed>1.7971366113904643</speed>
  <fix>3d</fix>
</trkpt>
<trkpt lat="33.8103313" lon="-118.3942183">
  <ele>-0.102</ele>
  <time>2026-09-02T22:07:27Z</time>
  <course>8.4</course>
  <speed>1.7971366113904643</speed>
  <fix>3d</fix>
</trkpt>
<trkpt lat="33.8103313" lon="-118.3942185">
  <ele>-0.102</ele>
  <time>2026-09-02T22:07:27Z</time>
  <course>8.4</course>
  <speed>1.7971366113904643</speed>
  <fix>3d</fix>
</trkpt>
<trkpt lat="33.8103313" lon="-118.3942186">
  <ele>-0.102</ele>
  <time>2026-09-02T22:07:27Z</time>
  <course>8.4</course>
  <speed>1.7971366113904643</speed>
  <fix>3d</fix>
</trkpt>
<trkpt lat="33.8103313" lon="-118.3942188">
  <ele>-0.102</ele>
  <time>2026-09-02T22:07:27Z</time>
  <course>8.4</course>
  <speed>1.7971366113904643</speed>
  <fix>3d</fix>
</trkpt>
<trkpt lat="33.8103314" lon="-118.3942189">
  <ele>-0.101</ele>
  <time>2026-09-02T22:07:27Z</time>
  <course>8.4</course>
  <speed>1.7971366113904643</speed>
  <fix>3d</fix>
</trkpt>
<trkpt lat="33.8103314" lon="-118.3942191">
  <ele>-0.101</ele>
  <time>2026-09-02T22:07:27Z</time>
  <course>8.4</course>
  <speed>1.7971366113904643</speed>
  <fix>3d</fix>
</trkpt>
<trkpt lat="33.8103314" lon="-118.3942192">
  <ele>-0.101</ele>
  <time>2026-09-02T22:07:27Z</time>
  <course>8.41</course>
  <speed>1.7971366113904643</speed>
  <fix>3d</fix>
</trkpt>
<trkpt lat="33.8103314" lon="-118.3942194">
  <ele>-0.101</ele>
  <time>2026-09-02T22:07:27Z</time>
  <course>8.41</course>
  <speed>1.7971366113904643</speed>
  <fix>3d</fix>
</trkpt>
<trkpt lat="33.8103314" lon="-118.3942195">
  <ele>-0.101</ele>
  <time>2026-09-02T22:07:27Z</time>
  <course>8.41</course>
  <speed>1.7971366113904643</speed>
  <fix>3d</fix>
</trkpt>
<trkpt lat="33.8103314" lon="-118.3942197">
  <ele>-0.101</ele>
  <time>2026-09-02T22:07:27Z</time>
  <course>8.41</course>
  <speed>1.7971366113904643</speed>
  <fix>3d</fix>
</trkpt>
<trkpt lat="33.8103314" lon="-118.3942199">
  <ele>-0.101</ele>
  <time>2026-09-02T22:07:27Z</time>
  <course>8.41</course>
  <speed>1.7971366113904643</speed>
  <fix>3d</fix>
</trkpt>
<trkpt lat="33.8103314" lon="-118.3942199">
  <ele>-0.101</ele>
  <time>2026-09-02T22:07:27Z</time>
  <course>8.41</course>
  <speed>1.7971366113904643</speed>
  <fix>3d</fix>
</trkpt>
<trkpt lat="33.8103313" lon="-118.3942152">
  <ele>-0.1</ele>
  <time>2026-09-02T22:07:27Z</time>
  <course>276.0</course>
  <speed>1.82</speed>
  <fix>3d</fix>
</trkpt>
<trkpt lat="33.8103315" lon="-118.3942202">
  <ele>-0.101</ele>
  <time>2026-09-02T22:07:27Z</time>
  <course>8.41</course>
  <speed>1.7971366113904643</speed>
  <fix>3d</fix>
</trkpt>
<trkpt lat="33.8103315" lon="-118.3942203">
  <ele>-0.101</ele>
  <time>2026-09-02T22:07:27Z</time>
  <course>8.41</course>
  <speed>1.7971366113904643</speed>
  <fix>3d</fix>
</trkpt>
<trkpt lat="33.8103315" lon="-118.3942205">
  <ele>-0.101</ele>
  <time>2026-09-02T22:07:27Z</time>
  <course>8.41</course>
  <speed>1.7971366113904643</speed>
  <fix>3d</fix>
</trkpt>
<trkpt lat="33.8103315" lon="-118.3942207">
  <ele>-0.101</ele>
  <time>2026-09-02T22:07:27Z</time>
  <course>8.41</course>
  <speed>1.7971366113904643</speed>
  <fix>3d</fix>
</trkpt>
<trkpt lat="33.8103315" lon="-118.3942209">
  <ele>-0.101</ele>
  <time>2026-09-02T22:07:27Z</time>
  <course>8.42</course>
  <speed>1.7971366113904643</speed>
  <fix>3d</fix>
</trkpt>
<trkpt lat="33.8103316" lon="-118.3942211">
  <ele>-0.1</ele>
  <time>2026-09-02T22:07:27Z</time>
  <course>8.42</course>
  <speed>1.7971366113904643</speed>
  <fix>3d</fix>
</trkpt>
<trkpt lat="33.8103316" lon="-118.3942212">
  <ele>-0.1</ele>
  <time>2026-09-02T22:07:27Z</time>
  <course>8.42</course>
  <speed>1.7971366113904643</speed>
  <fix>3d</fix>
</trkpt>
<trkpt lat="33.8103316" lon="-118.3942214">
  <ele>-0.1</ele>
  <time>2026-09-02T22:07:27Z</time>
  <course>8.42</course>
  <speed>1.7971366113904643</speed>
  <fix>3d</fix>
</trkpt>
<trkpt lat="33.8103316" lon="-118.3942215">
  <ele>-0.1</ele>
  <time>2026-09-02T22:07:27Z</time>
  <course>8.42</course>
  <speed>1.7971366113904643</speed>
  <fix>3d</fix>
</trkpt>
<trkpt lat="33.8103316" lon="-118.3942217">
  <ele>-0.1</ele>
  <time>2026-09-02T22:07:27Z</time>
  <course>8.42</course>
  <speed>1.7971366113904643</speed>
  <fix>3d</fix>
</trkpt>
<trkpt lat="33.8103316" lon="-118.3942218">
  <ele>-0.1</ele>
  <time>2026-09-02T22:07:27Z</time>
  <course>8.42</course>
  <speed>1.7971366113904643</speed>
  <fix>3d</fix>
</trkpt>
<trkpt lat="33.8103316" lon="-118.3942218">
  <ele>-0.1</ele>
  <time>2026-09-02T22:07:27Z</time>
  <course>8.42</course>
  <speed>1.7971366113904643</speed>
  <fix>3d</fix>
</trkpt>
<trkpt lat="33.8103317" lon="-118.3942191">
  <ele>-0.1</ele>
  <time>2026-09-02T22:07:27Z</time>
  <course>276.03</course>
  <speed>1.82</speed>
  <fix>3d</fix>
</trkpt>
<trkpt lat="33.8103316" lon="-118.3942221">
  <ele>-0.1</ele>
  <time>2026-09-02T22:07:27Z</time>
  <course>8.42</course>
  <speed>1.7971366113904643</speed>
  <fix>3d</fix>
</trkpt>
<trkpt lat="33.8103317" lon="-118.3942223">
  <ele>-0.1</ele>
  <time>2026-09-02T22:07:27Z</time>
  <course>8.42</course>
  <speed>1.7971366113904643</speed>
  <fix>3d</fix>
</trkpt>
<trkpt lat="33.8103317" lon="-118.3942225">
  <ele>-0.1</ele>
  <time>2026-09-02T22:07:27Z</time>
  <course>8.43</course>
  <speed>1.7971366113904643</speed>
  <fix>3d</fix>
</trkpt>
<trkpt lat="33.8103317" lon="-118.3942226">
  <ele>-0.1</ele>
  <time>2026-09-02T22:07:27Z</time>
  <course>8.43</course>
  <speed>1.7971366113904643</speed>
  <fix>3d</fix>
</trkpt>
<trkpt lat="33.8103317" lon="-118.3942228">
  <ele>-0.1</ele>
  <time>2026-09-02T22:07:27Z</time>
  <course>8.43</course>
  <speed>1.7971366113904643</speed>
  <fix>3d</fix>
</trkpt>
<trkpt lat="33.8103317" lon="-118.394223">
  <ele>-0.1</ele>
  <time>2026-09-02T22:07:27Z</time>
  <course>8.43</course>
  <speed>1.7971366113904643</speed>
  <fix>3d</fix>
</trkpt>
<trkpt lat="33.8103317" lon="-118.3942231">
  <ele>-0.1</ele>
  <time>2026-09-02T22:07:27Z</time>
  <course>8.43</course>
  <speed>1.7971366113904643</speed>
  <fix>3d</fix>
</trkpt>
<trkpt lat="33.8103318" lon="-118.3942233">
  <ele>-0.1</ele>
  <time>2026-09-02T22:07:27Z</time>
  <course>8.43</course>
  <speed>1.7971366113904643</speed>
  <fix>3d</fix>
</trkpt>
<trkpt lat="33.8103318" lon="-118.3942234">
  <ele>-0.1</ele>
  <time>2026-09-02T22:07:27Z</time>
  <course>8.43</course>
  <speed>1.7971366113904643</speed>
  <fix>3d</fix>
</trkpt>
<trkpt lat="33.8103318" lon="-118.3942236">
  <ele>-0.1</ele>
  <time>2026-09-02T22:07:27Z</time>
  <course>8.43</course>
  <speed>1.7971366113904643</speed>
  <fix>3d</fix>
</trkpt>
<trkpt lat="33.8103318" lon="-118.3942238">
  <ele>-0.1</ele>
  <time>2026-09-02T22:07:27Z</time>
  <course>8.43</course>
  <speed>1.7971366113904643</speed>
  <fix>3d</fix>
</trkpt>
<trkpt lat="33.8103318" lon="-118.3942238">
  <ele>-0.1</ele>
  <time>2026-09-02T22:07:27Z</time>
  <course>8.43</course>
  <speed>1.7971366113904643</speed>
  <fix>3d</fix>
</trkpt>
<trkpt lat="33.8103317" lon="-118.3942191">
  <ele>-0.1</ele>
  <time>2026-09-02T22:07:27Z</time>
  <course>276.03</course>
  <speed>1.82</speed>
  <fix>3d</fix>
</trkpt>
<trkpt lat="33.8103318" lon="-118.394224">
  <ele>-0.1</ele>
  <time>2026-09-02T22:07:27Z</time>
  <course>8.44</course>
  <speed>1.7971366113904643</speed>
  <fix>3d</fix>
</trkpt>
<trkpt lat="33.8103318" lon="-118.3942242">
  <ele>-0.099</ele>
  <time>2026-09-02T22:07:27Z</time>
  <course>8.44</course>
  <speed>1.7971366113904643</speed>
  <fix>3d</fix>
</trkpt>
<trkpt lat="33.8103318" lon="-118.3942244">
  <ele>-0.099</ele>
  <time>2026-09-02T22:07:27Z</time>
  <course>8.44</course>
  <speed>1.7971366113904643</speed>
  <fix>3d</fix>
</trkpt>
<trkpt lat="33.8103319" lon="-118.3942245">
  <ele>-0.099</ele>
  <time>2026-09-02T22:07:27Z</time>
  <course>8.44</course>
  <speed>1.7971366113904643</speed>
  <fix>3d</fix>
</trkpt>
<trkpt lat="33.8103319" lon="-118.3942247">
  <ele>-0.099</ele>
  <time>2026-09-02T22:07:27Z</time>
  <course>8.44</course>
  <speed>1.7971366113904643</speed>
  <fix>3d</fix>
</trkpt>
<trkpt lat="33.8103319" lon="-118.3942248">
  <ele>-0.099</ele>
  <time>2026-09-02T22:07:27Z</time>
  <course>8.44</course>
  <speed>1.7971366113904643</speed>
  <fix>3d</fix>
</trkpt>
<trkpt lat="33.8103319" lon="-118.394225">
  <ele>-0.099</ele>
  <time>2026-09-02T22:07:27Z</time>
  <course>8.44</course>
  <speed>1.7971366113904643</speed>
  <fix>3d</fix>
</trkpt>
<trkpt lat="33.8103319" lon="-118.3942251">
  <ele>-0.099</ele>
  <time>2026-09-02T22:07:27Z</time>
  <course>8.44</course>
  <speed>1.7971366113904643</speed>
  <fix>3d</fix>
</trkpt>
<trkpt lat="33.8103319" lon="-118.3942253">
  <ele>-0.099</ele>
  <time>2026-09-02T22:07:27Z</time>
  <course>8.44</course>
  <speed>1.7971366113904643</speed>
  <fix>3d</fix>
</trkpt>
<trkpt lat="33.8103319" lon="-118.3942254">
  <ele>-0.099</ele>
  <time>2026-09-02T22:07:27Z</time>
  <course>8.44</course>
  <speed>1.7971366113904643</speed>
  <fix>3d</fix>
</trkpt>
<trkpt lat="33.810332" lon="-118.3942256">
  <ele>-0.099</ele>
  <time>2026-09-02T22:07:27Z</time>
  <course>8.45</course>
  <speed>1.7971366113904643</speed>
  <fix>3d</fix>
</trkpt>
<trkpt lat="33.810332" lon="-118.3942257">
  <ele>-0.099</ele>
  <time>2026-09-02T22:07:27Z</time>
  <course>8.45</course>
  <speed>1.7971366113904643</speed>
  <fix>3d</fix>
</trkpt>
<trkpt lat="33.810332" lon="-118.394223">
  <ele>-0.1</ele>
  <time>2026-09-02T22:07:27Z</time>
  <course>276.06</course>
  <speed>1.82</speed>
  <fix>3d</fix>
</trkpt>
<trkpt lat="33.810332" lon="-118.3942258">
  <ele>-0.099</ele>
  <time>2026-09-02T22:07:27Z</time>
  <course>8.45</course>
  <speed>1.7971366113904643</speed>
  <fix>3d</fix>
</trkpt>
<trkpt lat="33.810332" lon="-118.394226">
  <ele>-0.099</ele>
  <time>2026-09-02T22:07:27Z</time>
  <course>8.45</course>
  <speed>1.7971366113904643</speed>
  <fix>3d</fix>
</trkpt>
<trkpt lat="33.810332" lon="-118.3942262">
  <ele>-0.099</ele>
  <time>2026-09-02T22:07:27Z</time>
  <course>8.45</course>
  <speed>1.7971366113904643</speed>
  <fix>3d</fix>
</trkpt>
<trkpt lat="33.810332" lon="-118.3942264">
  <ele>-0.099</ele>
  <time>2026-09-02T22:07:27Z</time>
  <course>8.45</course>
  <speed>1.7971366113904643</speed>
  <fix>3d</fix>
</trkpt>
<trkpt lat="33.8103321" lon="-118.3942266">
  <ele>-0.099</ele>
  <time>2026-09-02T22:07:27Z</time>
  <course>8.45</course>
  <speed>1.7971366113904643</speed>
  <fix>3d</fix>
</trkpt>
<trkpt lat="33.8103321" lon="-118.3942268">
  <ele>-0.1</ele>
  <time>2026-09-02T22:07:27Z</time>
  <course>8.45</course>
  <speed>1.7971366113904643</speed>
  <fix>3d</fix>
</trkpt>
<trkpt lat="33.8103321" lon="-118.394227">
  <ele>-0.1</ele>
  <time>2026-09-02T22:07:27Z</time>
  <course>8.45</course>
  <speed>1.7971366113904643</speed>
  <fix>3d</fix>
</trkpt>
<trkpt lat="33.8103321" lon="-118.3942271">
  <ele>-0.1</ele>
  <time>2026-09-02T22:07:27Z</time>
  <course>8.45</course>
  <speed>1.7971366113904643</speed>
  <fix>3d</fix>
</trkpt>
<trkpt lat="33.8103321" lon="-118.3942272">
  <ele>-0.1</ele>
  <time>2026-09-02T22:07:27Z</time>
  <course>8.46</course>
  <speed>1.7971366113904643</speed>
  <fix>3d</fix>
</trkpt>
<trkpt lat="33.8103321" lon="-118.3942274">
  <ele>-0.1</ele>
  <time>2026-09-02T22:07:27Z</time>
  <course>8.46</course>
  <speed>1.7971366113904643</speed>
  <fix>3d</fix>
</trkpt>
<trkpt lat="33.8103321" lon="-118.3942276">
  <ele>-0.1</ele>
  <time>2026-09-02T22:07:27Z</time>
  <course>8.46</course>
  <speed>1.7971366113904643</speed>
  <fix>3d</fix>
</trkpt>
<trkpt lat="33.8103321" lon="-118.3942277">
  <ele>-0.1</ele>
  <time>2026-09-02T22:07:27Z</time>
  <course>8.46</course>
  <speed>1.7971366113904643</speed>
  <fix>3d</fix>
</trkpt>
<trkpt lat="33.810332" lon="-118.394223">
  <ele>-0.1</ele>
  <time>2026-09-02T22:07:27Z</time>
  <course>276.06</course>
  <speed>1.82</speed>
  <fix>3d</fix>
</trkpt>
<trkpt lat="33.8103321" lon="-118.3942277">
  <ele>-0.1</ele>
  <time>2026-09-02T22:07:27Z</time>
  <course>8.46</course>
  <speed>1.7971366113904643</speed>
  <fix>3d</fix>
</trkpt>
<trkpt lat="33.8103322" lon="-118.394228">
  <ele>-0.1</ele>
  <time>2026-09-02T22:07:27Z</time>
  <course>8.46</course>
  <speed>1.7971366113904643</speed>
  <fix>3d</fix>
</trkpt>
<trkpt lat="33.8103322" lon="-118.3942282">
  <ele>-0.1</ele>
  <time>2026-09-02T22:07:27Z</time>
  <course>8.46</course>
  <speed>1.7971366113904643</speed>
  <fix>3d</fix>
</trkpt>
<trkpt lat="33.8103322" lon="-118.3942283">
  <ele>-0.1</ele>
  <time>2026-09-02T22:07:27Z</time>
  <course>8.46</course>
  <speed>1.7971366113904643</speed>
  <fix>3d</fix>
</trkpt>
<trkpt lat="33.8103322" lon="-118.3942285">
  <ele>-0.1</ele>
  <time>2026-09-02T22:07:27Z</time>
  <course>8.46</course>
  <speed>1.7971366113904643</speed>
  <fix>3d</fix>
</trkpt>
<trkpt lat="33.8103322" lon="-118.3942286">
  <ele>-0.1</ele>
  <time>2026-09-02T22:07:27Z</time>
  <course>8.46</course>
  <speed>1.7971366113904643</speed>
  <fix>3d</fix>
</trkpt>
<trkpt lat="33.8103322" lon="-118.3942288">
  <ele>-0.1</ele>
  <time>2026-09-02T22:07:27Z</time>
  <course>8.46</course>
  <speed>1.7971366113904643</speed>
  <fix>3d</fix>
</trkpt>
<trkpt lat="33.8103323" lon="-118.394229">
  <ele>-0.1</ele>
  <time>2026-09-02T22:07:27Z</time>
  <course>8.47</course>
  <speed>1.7971366113904643</speed>
  <fix>3d</fix>
</trkpt>
<trkpt lat="33.8103323" lon="-118.3942292">
  <ele>-0.1</ele>
  <time>2026-09-02T22:07:27Z</time>
  <course>8.47</course>
  <speed>1.7971366113904643</speed>
  <fix>3d</fix>
</trkpt>
<trkpt lat="33.8103323" lon="-118.3942294">
  <ele>-0.1</ele>
  <time>2026-09-02T22:07:27Z</time>
  <course>8.47</course>
  <speed>1.7971366113904643</speed>
  <fix>3d</fix>
</trkpt>
<trkpt lat="33.8103323" lon="-118.3942296">
  <ele>-0.1</ele>
  <time>2026-09-02T22:07:27Z</time>
  <course>8.47</course>
  <speed>1.7971366113904643</speed>
  <fix>3d</fix>
</trkpt>
<trkpt lat="33.8103323" lon="-118.3942297">
  <ele>-0.1</ele>
  <time>2026-09-02T22:07:27Z</time>
  <course>8.47</course>
  <speed>1.7971366113904643</speed>
  <fix>3d</fix>
</trkpt>
<trkpt lat="33.8103323" lon="-118.3942269">
  <ele>-0.1</ele>
  <time>2026-09-02T22:07:27Z</time>
  <course>276.09</course>
  <speed>1.82</speed>
  <fix>3d</fix>
</trkpt>
<trkpt lat="33.8103323" lon="-118.3942297">
  <ele>-0.1</ele>
  <time>2026-09-02T22:07:27Z</time>
  <course>8.47</course>
  <speed>1.7971366113904643</speed>
  <fix>3d</fix>
</trkpt>
<trkpt lat="33.8103324" lon="-118.39423">
  <ele>-0.1</ele>
  <time>2026-09-02T22:07:27Z</time>
  <course>8.47</course>
  <speed>1.7971366113904643</speed>
  <fix>3d</fix>
</trkpt>
<trkpt lat="33.8103324" lon="-118.3942301">
  <ele>-0.1</ele>
  <time>2026-09-02T22:07:27Z</time>
  <course>8.47</course>
  <speed>1.7971366113904643</speed>
  <fix>3d</fix>
</trkpt>
<trkpt lat="33.8103324" lon="-118.3942303">
  <ele>-0.1</ele>
  <time>2026-09-02T22:07:27Z</time>
  <course>8.47</course>
  <speed>1.7971366113904643</speed>
  <fix>3d</fix>
</trkpt>
<trkpt lat="33.8103324" lon="-118.3942304">
  <ele>-0.1</ele>
  <time>2026-09-02T22:07:27Z</time>
  <course>8.48</course>
  <speed>1.7971366113904643</speed>
  <fix>3d</fix>
</trkpt>
<trkpt lat="33.8103324" lon="-118.3942306">
  <ele>-0.1</ele>
  <time>2026-09-02T22:07:27Z</time>
  <course>8.48</course>
  <speed>1.7971366113904643</speed>
  <fix>3d</fix>
</trkpt>
<trkpt lat="33.8103324" lon="-118.3942308">
  <ele>-0.1</ele>
  <time>2026-09-02T22:07:27Z</time>
  <course>8.48</course>
  <speed>1.7971366113904643</speed>
  <fix>3d</fix>
</trkpt>
<trkpt lat="33.8103324" lon="-118.3942309">
  <ele>-0.1</ele>
  <time>2026-09-02T22:07:27Z</time>
  <course>8.48</course>
  <speed>1.7971366113904643</speed>
  <fix>3d</fix>
</trkpt>
<trkpt lat="33.8103324" lon="-118.3942311">
  <ele>-0.101</ele>
  <time>2026-09-02T22:07:27Z</time>
  <course>8.48</course>
  <speed>1.7971366113904643</speed>
  <fix>3d</fix>
</trkpt>
<trkpt lat="33.8103325" lon="-118.3942312">
  <ele>-0.101</ele>
  <time>2026-09-02T22:07:27Z</time>
  <course>8.48</course>
  <speed>1.7971366113904643</speed>
  <fix>3d</fix>
</trkpt>
<trkpt lat="33.8103325" lon="-118.3942315">
  <ele>-0.101</ele>
  <time>2026-09-02T22:07:27Z</time>
  <course>8.48</course>
  <speed>1.7971366113904643</speed>
  <fix>3d</fix>
</trkpt>
<trkpt lat="33.8103325" lon="-118.3942316">
  <ele>-0.101</ele>
  <time>2026-09-02T22:07:27Z</time>
  <course>8.48</course>
  <speed>1.7971366113904643</speed>
  <fix>3d</fix>
</trkpt>
<trkpt lat="33.8103323" lon="-118.3942269">
  <ele>-0.1</ele>
  <time>2026-09-02T22:07:27Z</time>
  <course>276.09</course>
  <speed>1.82</speed>
  <fix>3d</fix>
</trkpt>
<trkpt lat="33.8103325" lon="-118.3942316">
  <ele>-0.101</ele>
  <time>2026-09-02T22:07:27Z</time>
  <course>8.48</course>
  <speed>1.7971366113904643</speed>
  <fix>3d</fix>
</trkpt>
<trkpt lat="33.8103325" lon="-118.3942319">
  <ele>-0.101</ele>
  <time>2026-09-02T22:07:27Z</time>
  <course>8.48</course>
  <speed>1.7971366113904643</speed>
  <fix>3d</fix>
</trkpt>
<trkpt lat="33.8103325" lon="-118.3942322">
  <ele>-0.101</ele>
  <time>2026-09-02T22:07:27Z</time>
  <course>8.49</course>
  <speed>1.7971366113904643</speed>
  <fix>3d</fix>
</trkpt>
<trkpt lat="33.8103326" lon="-118.3942324">
  <ele>-0.101</ele>
  <time>2026-09-02T22:07:27Z</time>
  <course>8.49</course>
  <speed>1.7971366113904643</speed>
  <fix>3d</fix>
</trkpt>
<trkpt lat="33.8103326" lon="-118.3942325">
  <ele>-0.101</ele>
  <time>2026-09-02T22:07:27Z</time>
  <course>8.49</course>
  <speed>1.7971366113904643</speed>
  <fix>3d</fix>
</trkpt>
<trkpt lat="33.8103326" lon="-118.3942327">
  <ele>-0.101</ele>
  <time>2026-09-02T22:07:27Z</time>
  <course>8.49</course>
  <speed>1.7971366113904643</speed>
  <fix>3d</fix>
</trkpt>
<trkpt lat="33.8103326" lon="-118.3942328">
  <ele>-0.101</ele>
  <time>2026-09-02T22:07:27Z</time>
  <course>8.49</course>
  <speed>1.7971366113904643</speed>
  <fix>3d</fix>
</trkpt>
<trkpt lat="33.8103326" lon="-118.394233">
  <ele>-0.101</ele>
  <time>2026-09-02T22:07:27Z</time>
  <course>8.49</course>
  <speed>1.7971366113904643</speed>
  <fix>3d</fix>
</trkpt>
<trkpt lat="33.8103326" lon="-118.3942331">
  <ele>-0.101</ele>
  <time>2026-09-02T22:07:27Z</time>
  <course>8.49</course>
  <speed>1.7971366113904643</speed>
  <fix>3d</fix>
</trkpt>
<trkpt lat="33.8103326" lon="-118.3942333">
  <ele>-0.101</ele>
  <time>2026-09-02T22:07:27Z</time>
  <course>8.49</course>
  <speed>1.7971366113904643</speed>
  <fix>3d</fix>
</trkpt>
<trkpt lat="33.8103327" lon="-118.3942335">
  <ele>-0.101</ele>
  <time>2026-09-02T22:07:27Z</time>
  <course>8.49</course>
  <speed>1.7971366113904643</speed>
  <fix>3d</fix>
</trkpt>
<trkpt lat="33.8103327" lon="-118.3942336">
  <ele>-0.101</ele>
  <time>2026-09-02T22:07:27Z</time>
  <course>8.49</course>
  <speed>1.7971366113904643</speed>
  <fix>3d</fix>
</trkpt>
<trkpt lat="33.8103327" lon="-118.3942309">
  <ele>-0.1</ele>
  <time>2026-09-02T22:07:27Z</time>
  <course>276.12</course>
  <speed>1.82</speed>
  <fix>3d</fix>
</trkpt>
<trkpt lat="33.8103327" lon="-118.3942336">
  <ele>-0.101</ele>
  <time>2026-09-02T22:07:27Z</time>
  <course>8.49</course>
  <speed>1.7971366113904643</speed>
  <fix>3d</fix>
</trkpt>
<trkpt lat="33.8103327" lon="-118.394234">
  <ele>-0.101</ele>
  <time>2026-09-02T22:07:27Z</time>
  <course>8.5</course>
  <speed>1.7971366113904643</speed>
  <fix>3d</fix>
</trkpt>
<trkpt lat="33.8103327" lon="-118.3942341">
  <ele>-0.101</ele>
  <time>2026-09-02T22:07:27Z</time>
  <course>8.5</course>
  <speed>1.7971366113904643</speed>
  <fix>3d</fix>
</trkpt>
<trkpt lat="33.8103327" lon="-118.3942343">
  <ele>-0.101</ele>
  <time>2026-09-02T22:07:27Z</time>
  <course>8.5</course>
  <speed>1.7971366113904643</speed>
  <fix>3d</fix>
</trkpt>
<trkpt lat="33.8103328" lon="-118.3942345">
  <ele>-0.101</ele>
  <time>2026-09-02T22:07:27Z</time>
  <course>8.5</course>
  <speed>1.7971366113904643</speed>
  <fix>3d</fix>
</trkpt>
<trkpt lat="33.8103328" lon="-118.3942347">
  <ele>-0.101</ele>
  <time>2026-09-02T22:07:27Z</time>
  <course>8.5</course>
  <speed>1.7971366113904643</speed>
  <fix>3d</fix>
</trkpt>
<trkpt lat="33.8103328" lon="-118.3942348">
  <ele>-0.101</ele>
  <time>2026-09-02T22:07:27Z</time>
  <course>8.5</course>
  <speed>1.7971366113904643</speed>
  <fix>3d</fix>
</trkpt>
<trkpt lat="33.8103328" lon="-118.3942349">
  <ele>-0.101</ele>
  <time>2026-09-02T22:07:27Z</time>
  <course>8.5</course>
  <speed>1.7971366113904643</speed>
  <fix>3d</fix>
</trkpt>
<trkpt lat="33.8103328" lon="-118.3942351">
  <ele>-0.101</ele>
  <time>2026-09-02T22:07:27Z</time>
  <course>8.5</course>
  <speed>1.7971366113904643</speed>
  <fix>3d</fix>
</trkpt>
<trkpt lat="33.8103328" lon="-118.3942352">
  <ele>-0.101</ele>
  <time>2026-09-02T22:07:27Z</time>
  <course>8.5</course>
  <speed>1.7971366113904643</speed>
  <fix>3d</fix>
</trkpt>
<trkpt lat="33.8103328" lon="-118.3942354">
  <ele>-0.101</ele>
  <time>2026-09-02T22:07:27Z</time>
  <course>8.51</course>
  <speed>1.7971366113904643</speed>
  <fix>3d</fix>
</trkpt>
<trkpt lat="33.8103328" lon="-118.3942355">
  <ele>-0.101</ele>
  <time>2026-09-02T22:07:27Z</time>
  <course>8.51</course>
  <speed>1.7971366113904643</speed>
  <fix>3d</fix>
</trkpt>
<trkpt lat="33.8103327" lon="-118.3942309">
  <ele>-0.1</ele>
  <time>2026-09-02T22:07:27Z</time>
  <course>276.12</course>
  <speed>1.82</speed>
  <fix>3d</fix>
</trkpt>
<trkpt lat="33.8103329" lon="-118.3942356">
  <ele>-0.101</ele>
  <time>2026-09-02T22:07:27Z</time>
  <course>8.51</course>
  <speed>1.7971366113904643</speed>
  <fix>3d</fix>
</trkpt>
<trkpt lat="33.8103329" lon="-118.3942358">
  <ele>-0.101</ele>
  <time>2026-09-02T22:07:27Z</time>
  <course>8.51</course>
  <speed>1.7971366113904643</speed>
  <fix>3d</fix>
</trkpt>
<trkpt lat="33.8103329" lon="-118.394236">
  <ele>-0.101</ele>
  <time>2026-09-02T22:07:27Z</time>
  <course>8.51</course>
  <speed>1.7971366113904643</speed>
  <fix>3d</fix>
</trkpt>
<trkpt lat="33.8103329" lon="-118.3942362">
  <ele>-0.101</ele>
  <time>2026-09-02T22:07:27Z</time>
  <course>8.51</course>
  <speed>1.7971366113904643</speed>
  <fix>3d</fix>
</trkpt>
<trkpt lat="33.8103329" lon="-118.3942364">
  <ele>-0.101</ele>
  <time>2026-09-02T22:07:27Z</time>
  <course>8.51</course>
  <speed>1.7971366113904643</speed>
  <fix>3d</fix>
</trkpt>
<trkpt lat="33.8103329" lon="-118.3942366">
  <ele>-0.101</ele>
  <time>2026-09-02T22:07:27Z</time>
  <course>8.51</course>
  <speed>1.7971366113904643</speed>
  <fix>3d</fix>
</trkpt>
<trkpt lat="33.810333" lon="-118.3942367">
  <ele>-0.101</ele>
  <time>2026-09-02T22:07:27Z</time>
  <course>8.51</course>
  <speed>1.7971366113904643</speed>
  <fix>3d</fix>
</trkpt>
<trkpt lat="33.810333" lon="-118.3942369">
  <ele>-0.101</ele>
  <time>2026-09-02T22:07:27Z</time>
  <course>8.51</course>
  <speed>1.7971366113904643</speed>
  <fix>3d</fix>
</trkpt>
<trkpt lat="33.810333" lon="-118.3942371">
  <ele>-0.101</ele>
  <time>2026-09-02T22:07:27Z</time>
  <course>8.52</course>
  <speed>1.7971366113904643</speed>
  <fix>3d</fix>
</trkpt>
<trkpt lat="33.810333" lon="-118.3942373">
  <ele>-0.102</ele>
  <time>2026-09-02T22:07:27Z</time>
  <course>8.52</course>
  <speed>1.7971366113904643</speed>
  <fix>3d</fix>
</trkpt>
<trkpt lat="33.810333" lon="-118.3942375">
  <ele>-0.102</ele>
  <time>2026-09-02T22:07:27Z</time>
  <course>8.52</course>
  <speed>1.798054504179448</speed>
  <fix>3d</fix>
</trkpt>
<trkpt lat="33.810333" lon="-118.3942375">
  <ele>-0.102</ele>
  <time>2026-09-02T22:07:27Z</time>
  <course>8.52</course>
  <speed>1.7971366113904643</speed>
  <fix>3d</fix>
</trkpt>
<trkpt lat="33.810333" lon="-118.3942348">
  <ele>-0.1</ele>
  <time>2026-09-02T22:07:27Z</time>
  <course>276.15</course>
  <speed>1.82</speed>
  <fix>3d</fix>
</trkpt>
<trkpt lat="33.810333" lon="-118.3942375">
  <ele>-0.102</ele>
  <time>2026-09-02T22:07:27Z</time>
  <course>8.52</course>
  <speed>1.7971366113904643</speed>
  <fix>3d</fix>
</trkpt>
<trkpt lat="33.8103331" lon="-118.3942378">
  <ele>-0.102</ele>
  <time>2026-09-02T22:07:27Z</time>
  <course>8.52</course>
  <speed>1.798054504179448</speed>
  <fix>3d</fix>
</trkpt>
<trkpt lat="33.8103331" lon="-118.394238">
  <ele>-0.102</ele>
  <time>2026-09-02T22:07:27Z</time>
  <course>8.52</course>
  <speed>1.798054504179448</speed>
  <fix>3d</fix>
</trkpt>
<trkpt lat="33.8103331" lon="-118.3942381">
  <ele>-0.102</ele>
  <time>2026-09-02T22:07:27Z</time>
  <course>8.52</course>
  <speed>1.798054504179448</speed>
  <fix>3d</fix>
</trkpt>
<trkpt lat="33.8103331" lon="-118.3942383">
  <ele>-0.102</ele>
  <time>2026-09-02T22:07:27Z</time>
  <course>8.52</course>
  <speed>1.798054504179448</speed>
  <fix>3d</fix>
</trkpt>
<trkpt lat="33.8103331" lon="-118.3942384">
  <ele>-0.102</ele>
  <time>2026-09-02T22:07:27Z</time>
  <course>8.52</course>
  <speed>1.798054504179448</speed>
  <fix>3d</fix>
</trkpt>
<trkpt lat="33.8103331" lon="-118.3942386">
  <ele>-0.102</ele>
  <time>2026-09-02T22:07:27Z</time>
  <course>8.52</course>
  <speed>1.798054504179448</speed>
  <fix>3d</fix>
</trkpt>
<trkpt lat="33.8103331" lon="-118.3942388">
  <ele>-0.102</ele>
  <time>2026-09-02T22:07:27Z</time>
  <course>8.53</course>
  <speed>1.798054504179448</speed>
  <fix>3d</fix>
</trkpt>
<trkpt lat="33.8103332" lon="-118.394239">
  <ele>-0.102</ele>
  <time>2026-09-02T22:07:27Z</time>
  <course>8.53</course>
  <speed>1.798054504179448</speed>
  <fix>3d</fix>
</trkpt>
<trkpt lat="33.8103332" lon="-118.3942392">
  <ele>-0.102</ele>
  <time>2026-09-02T22:07:27Z</time>
  <course>8.53</course>
  <speed>1.798054504179448</speed>
  <fix>3d</fix>
</trkpt>
<trkpt lat="33.8103332" lon="-118.3942393">
  <ele>-0.102</ele>
  <time>2026-09-02T22:07:27Z</time>
  <course>8.53</course>
  <speed>1.798054504179448</speed>
  <fix>3d</fix>
</trkpt>
<trkpt lat="33.8103332" lon="-118.3942395">
  <ele>-0.102</ele>
  <time>2026-09-02T22:07:27Z</time>
  <course>8.53</course>
  <speed>1.798054504179448</speed>
  <fix>3d</fix>
</trkpt>
<trkpt lat="33.8103332" lon="-118.3942395">
  <ele>-0.102</ele>
  <time>2026-09-02T22:07:27Z</time>
  <course>8.53</course>
  <speed>1.798054504179448</speed>
  <fix>3d</fix>
</trkpt>
<trkpt lat="33.810333" lon="-118.3942348">
  <ele>-0.1</ele>
  <time>2026-09-02T22:07:27Z</time>
  <course>276.15</course>
  <speed>1.82</speed>
  <fix>3d</fix>
</trkpt>
<trkpt lat="33.8103332" lon="-118.3942398">
  <ele>-0.102</ele>
  <time>2026-09-02T22:07:27Z</time>
  <course>8.53</course>
  <speed>1.798054504179448</speed>
  <fix>3d</fix>
</trkpt>
<trkpt lat="33.8103332" lon="-118.3942399">
  <ele>-0.102</ele>
  <time>2026-09-02T22:07:27Z</time>
  <course>8.53</course>
  <speed>1.798054504179448</speed>
  <fix>3d</fix>
</trkpt>
<trkpt lat="33.8103332" lon="-118.39424">
  <ele>-0.102</ele>
  <time>2026-09-02T22:07:27Z</time>
  <course>8.53</course>
  <speed>1.798054504179448</speed>
  <fix>3d</fix>
</trkpt>
<trkpt lat="33.8103333" lon="-118.3942402">
  <ele>-0.102</ele>
  <time>2026-09-02T22:07:27Z</time>
  <course>8.53</course>
  <speed>1.798054504179448</speed>
  <fix>3d</fix>
</trkpt>
<trkpt lat="33.8103333" lon="-118.3942403">
  <ele>-0.102</ele>
  <time>2026-09-02T22:07:27Z</time>
  <course>8.54</course>
  <speed>1.798054504179448</speed>
  <fix>3d</fix>
</trkpt>
<trkpt lat="33.8103333" lon="-118.3942405">
  <ele>-0.102</ele>
  <time>2026-09-02T22:07:27Z</time>
  <course>8.54</course>
  <speed>1.798054504179448</speed>
  <fix>3d</fix>
</trkpt>
<trkpt lat="33.8103333" lon="-118.3942407">
  <ele>-0.102</ele>
  <time>2026-09-02T22:07:27Z</time>
  <course>8.54</course>
  <speed>1.798054504179448</speed>
  <fix>3d</fix>
</trkpt>
<trkpt lat="33.8103333" lon="-118.3942409">
  <ele>-0.102</ele>
  <time>2026-09-02T22:07:27Z</time>
  <course>8.54</course>
  <speed>1.798054504179448</speed>
  <fix>3d</fix>
</trkpt>
<trkpt lat="33.8103333" lon="-118.394241">
  <ele>-0.102</ele>
  <time>2026-09-02T22:07:27Z</time>
  <course>8.54</course>
  <speed>1.798054504179448</speed>
  <fix>3d</fix>
</trkpt>
<trkpt lat="33.8103334" lon="-118.3942412">
  <ele>-0.102</ele>
  <time>2026-09-02T22:07:27Z</time>
  <course>8.54</course>
  <speed>1.798054504179448</speed>
  <fix>3d</fix>
</trkpt>
<trkpt lat="33.8103334" lon="-118.3942413">
  <ele>-0.102</ele>
  <time>2026-09-02T22:07:27Z</time>
  <course>8.54</course>
  <speed>1.798054504179448</speed>
  <fix>3d</fix>
</trkpt>
<trkpt lat="33.8103334" lon="-118.3942414">
  <ele>-0.102</ele>
  <time>2026-09-02T22:07:27Z</time>
  <course>8.54</course>
  <speed>1.798054504179448</speed>
  <fix>3d</fix>
</trkpt>
<trkpt lat="33.8103334" lon="-118.3942387">
  <ele>-0.1</ele>
  <time>2026-09-02T22:07:27Z</time>
  <course>276.17</course>
  <speed>1.82</speed>
  <fix>3d</fix>
</trkpt>
<trkpt lat="33.8103334" lon="-118.3942415">
  <ele>-0.102</ele>
  <time>2026-09-02T22:07:27Z</time>
  <course>8.54</course>
  <speed>1.798054504179448</speed>
  <fix>3d</fix>
</trkpt>
<trkpt lat="33.8103334" lon="-118.3942418">
  <ele>-0.102</ele>
  <time>2026-09-02T22:07:27Z</time>
  <course>8.54</course>
  <speed>1.798054504179448</speed>
  <fix>3d</fix>
</trkpt>
<trkpt lat="33.8103334" lon="-118.3942419">
  <ele>-0.102</ele>
  <time>2026-09-02T22:07:27Z</time>
  <course>8.54</course>
  <speed>1.798054504179448</speed>
  <fix>3d</fix>
</trkpt>
<trkpt lat="33.8103334" lon="-118.3942421">
  <ele>-0.102</ele>
  <time>2026-09-02T22:07:27Z</time>
  <course>8.55</course>
  <speed>1.798054504179448</speed>
  <fix>3d</fix>
</trkpt>
<trkpt lat="33.8103335" lon="-118.3942423">
  <ele>-0.102</ele>
  <time>2026-09-02T22:07:27Z</time>
  <course>8.55</course>
  <speed>1.798054504179448</speed>
  <fix>3d</fix>
</trkpt>
<trkpt lat="33.8103335" lon="-118.3942424">
  <ele>-0.103</ele>
  <time>2026-09-02T22:07:27Z</time>
  <course>8.55</course>
  <speed>1.798054504179448</speed>
  <fix>3d</fix>
</trkpt>
<trkpt lat="33.8103335" lon="-118.3942426">
  <ele>-0.103</ele>
  <time>2026-09-02T22:07:27Z</time>
  <course>8.55</course>
  <speed>1.798054504179448</speed>
  <fix>3d</fix>
</trkpt>
<trkpt lat="33.8103335" lon="-118.3942427">
  <ele>-0.103</ele>
  <time>2026-09-02T22:07:27Z</time>
  <course>8.55</course>
  <speed>1.798054504179448</speed>
  <fix>3d</fix>
</trkpt>
<trkpt lat="33.8103335" lon="-118.3942429">
  <ele>-0.103</ele>
  <time>2026-09-02T22:07:27Z</time>
  <course>8.55</course>
  <speed>1.798054504179448</speed>
  <fix>3d</fix>
</trkpt>
<trkpt lat="33.8103335" lon="-118.394243">
  <ele>-0.103</ele>
  <time>2026-09-02T22:07:27Z</time>
  <course>8.55</course>
  <speed>1.798054504179448</speed>
  <fix>3d</fix>
</trkpt>
<trkpt lat="33.8103335" lon="-118.3942432">
  <ele>-0.103</ele>
  <time>2026-09-02T22:07:27Z</time>
  <course>8.55</course>
  <speed>1.798054504179448</speed>
  <fix>3d</fix>
</trkpt>
<trkpt lat="33.8103336" lon="-118.3942434">
  <ele>-0.103</ele>
  <time>2026-09-02T22:07:27Z</time>
  <course>8.55</course>
  <speed>1.798054504179448</speed>
  <fix>3d</fix>
</trkpt>
<trkpt lat="33.8103336" lon="-118.3942434">
  <ele>-0.103</ele>
  <time>2026-09-02T22:07:27Z</time>
  <course>8.55</course>
  <speed>1.798054504179448</speed>
  <fix>3d</fix>
</trkpt>
<trkpt lat="33.8103334" lon="-118.3942387">
  <ele>-0.1</ele>
  <time>2026-09-02T22:07:27Z</time>
  <course>276.17</course>
  <speed>1.82</speed>
  <fix>3d</fix>
</trkpt>
<trkpt lat="33.8103336" lon="-118.3942437">
  <ele>-0.103</ele>
  <time>2026-09-02T22:07:27Z</time>
  <course>8.56</course>
  <speed>1.798054504179448</speed>
  <fix>3d</fix>
</trkpt>
<trkpt lat="33.8103336" lon="-118.3942439">
  <ele>-0.103</ele>
  <time>2026-09-02T22:07:27Z</time>
  <course>8.56</course>
  <speed>1.798054504179448</speed>
  <fix>3d</fix>
</trkpt>
<trkpt lat="33.8103336" lon="-118.3942441">
  <ele>-0.103</ele>
  <time>2026-09-02T22:07:27Z</time>
  <course>8.56</course>
  <speed>1.798054504179448</speed>
  <fix>3d</fix>
</trkpt>
<trkpt lat="33.8103336" lon="-118.3942443">
  <ele>-0.103</ele>
  <time>2026-09-02T22:07:27Z</time>
  <course>8.56</course>
  <speed>1.798054504179448</speed>
  <fix>3d</fix>
</trkpt>
<trkpt lat="33.8103336" lon="-118.3942444">
  <ele>-0.103</ele>
  <time>2026-09-02T22:07:27Z</time>
  <course>8.56</course>
  <speed>1.798054504179448</speed>
  <fix>3d</fix>
</trkpt>
<trkpt lat="33.8103337" lon="-118.3942446">
  <ele>-0.103</ele>
  <time>2026-09-02T22:07:27Z</time>
  <course>8.56</course>
  <speed>1.798054504179448</speed>
  <fix>3d</fix>
</trkpt>
<trkpt lat="33.8103337" lon="-118.3942447">
  <ele>-0.103</ele>
  <time>2026-09-02T22:07:27Z</time>
  <course>8.56</course>
  <speed>1.798054504179448</speed>
  <fix>3d</fix>
</trkpt>
<trkpt lat="33.8103337" lon="-118.3942448">
  <ele>-0.103</ele>
  <time>2026-09-02T22:07:27Z</time>
  <course>8.56</course>
  <speed>1.798054504179448</speed>
  <fix>3d</fix>
</trkpt>
<trkpt lat="33.8103337" lon="-118.394245">
  <ele>-0.103</ele>
  <time>2026-09-02T22:07:27Z</time>
  <course>8.56</course>
  <speed>1.798054504179448</speed>
  <fix>3d</fix>
</trkpt>
<trkpt lat="33.8103337" lon="-118.3942451">
  <ele>-0.103</ele>
  <time>2026-09-02T22:07:27Z</time>
  <course>8.56</course>
  <speed>1.798054504179448</speed>
  <fix>3d</fix>
</trkpt>
<trkpt lat="33.8103337" lon="-118.3942453">
  <ele>-0.103</ele>
  <time>2026-09-02T22:07:27Z</time>
  <course>8.56</course>
  <speed>1.798054504179448</speed>
  <fix>3d</fix>
</trkpt>
<trkpt lat="33.8103337" lon="-118.3942453">
  <ele>-0.103</ele>
  <time>2026-09-02T22:07:27Z</time>
  <course>8.57</course>
  <speed>1.798054504179448</speed>
  <fix>3d</fix>
</trkpt>
<trkpt lat="33.8103337" lon="-118.3942426">
  <ele>-0.1</ele>
  <time>2026-09-02T22:07:27Z</time>
  <course>276.2</course>
  <speed>1.82</speed>
  <fix>3d</fix>
</trkpt>
<trkpt lat="33.8103337" lon="-118.3942454">
  <ele>-0.103</ele>
  <time>2026-09-02T22:07:27Z</time>
  <course>8.57</course>
  <speed>1.798054504179448</speed>
  <fix>3d</fix>
</trkpt>
<trkpt lat="33.8103338" lon="-118.3942458">
  <ele>-0.103</ele>
  <time>2026-09-02T22:07:27Z</time>
  <course>8.57</course>
  <speed>1.798054504179448</speed>
  <fix>3d</fix>
</trkpt>
<trkpt lat="33.8103338" lon="-118.394246">
  <ele>-0.103</ele>
  <time>2026-09-02T22:07:27Z</time>
  <course>8.57</course>
  <speed>1.798054504179448</speed>
  <fix>3d</fix>
</trkpt>
<trkpt lat="33.8103338" lon="-118.3942462">
  <ele>-0.103</ele>
  <time>2026-09-02T22:07:27Z</time>
  <course>8.57</course>
  <speed>1.798054504179448</speed>
  <fix>3d</fix>
</trkpt>
<trkpt lat="33.8103338" lon="-118.3942463">
  <ele>-0.103</ele>
  <time>2026-09-02T22:07:27Z</time>
  <course>8.57</course>
  <speed>1.798054504179448</speed>
  <fix>3d</fix>
</trkpt>
<trkpt lat="33.8103338" lon="-118.3942465">
  <ele>-0.103</ele>
  <time>2026-09-02T22:07:27Z</time>
  <course>8.57</course>
  <speed>1.798054504179448</speed>
  <fix>3d</fix>
</trkpt>
<trkpt lat="33.8103338" lon="-118.3942466">
  <ele>-0.103</ele>
  <time>2026-09-02T22:07:27Z</time>
  <course>8.57</course>
  <speed>1.798054504179448</speed>
  <fix>3d</fix>
</trkpt>
<trkpt lat="33.8103339" lon="-118.3942468">
  <ele>-0.104</ele>
  <time>2026-09-02T22:07:27Z</time>
  <course>8.57</course>
  <speed>1.798054504179448</speed>
  <fix>3d</fix>
</trkpt>
<trkpt lat="33.8103339" lon="-118.394247">
  <ele>-0.104</ele>
  <time>2026-09-02T22:07:27Z</time>
  <course>8.57</course>
  <speed>1.798054504179448</speed>
  <fix>3d</fix>
</trkpt>
<trkpt lat="33.8103339" lon="-118.3942471">
  <ele>-0.104</ele>
  <time>2026-09-02T22:07:27Z</time>
  <course>8.58</course>
  <speed>1.798054504179448</speed>
  <fix>3d</fix>
</trkpt>
<trkpt lat="33.8103339" lon="-118.3942472">
  <ele>-0.104</ele>
  <time>2026-09-02T22:07:27Z</time>
  <course>8.58</course>
  <speed>1.798054504179448</speed>
  <fix>3d</fix>
</trkpt>
<trkpt lat="33.8103339" lon="-118.3942473">
  <ele>-0.104</ele>
  <time>2026-09-02T22:07:27Z</time>
  <course>8.58</course>
  <speed>1.798054504179448</speed>
  <fix>3d</fix>
</trkpt>
<trkpt lat="33.8103337" lon="-118.3942426">
  <ele>-0.1</ele>
  <time>2026-09-02T22:07:27Z</time>
  <course>276.2</course>
  <speed>1.82</speed>
  <fix>3d</fix>
</trkpt>
<trkpt lat="33.8103339" lon="-118.3942473">
  <ele>-0.104</ele>
  <time>2026-09-02T22:07:27Z</time>
  <course>8.58</course>
  <speed>1.798054504179448</speed>
  <fix>3d</fix>
</trkpt>
<trkpt lat="33.8103339" lon="-118.3942476">
  <ele>-0.104</ele>
  <time>2026-09-02T22:07:27Z</time>
  <course>8.58</course>
  <speed>1.798054504179448</speed>
  <fix>3d</fix>
</trkpt>
<trkpt lat="33.8103339" lon="-118.3942478">
  <ele>-0.104</ele>
  <time>2026-09-02T22:07:27Z</time>
  <course>8.58</course>
  <speed>1.798054504179448</speed>
  <fix>3d</fix>
</trkpt>
<trkpt lat="33.810334" lon="-118.394248">
  <ele>-0.104</ele>
  <time>2026-09-02T22:07:27Z</time>
  <course>8.58</course>
  <speed>1.798054504179448</speed>
  <fix>3d</fix>
</trkpt>
<trkpt lat="33.810334" lon="-118.3942482">
  <ele>-0.104</ele>
  <time>2026-09-02T22:07:27Z</time>
  <course>8.58</course>
  <speed>1.798054504179448</speed>
  <fix>3d</fix>
</trkpt>
<trkpt lat="33.810334" lon="-118.3942483">
  <ele>-0.104</ele>
  <time>2026-09-02T22:07:27Z</time>
  <course>8.58</course>
  <speed>1.798054504179448</speed>
  <fix>3d</fix>
</trkpt>
<trkpt lat="33.810334" lon="-118.3942485">
  <ele>-0.104</ele>
  <time>2026-09-02T22:07:27Z</time>
  <course>8.58</course>
  <speed>1.798054504179448</speed>
  <fix>3d</fix>
</trkpt>
<trkpt lat="33.810334" lon="-118.3942486">
  <ele>-0.104</ele>
  <time>2026-09-02T22:07:27Z</time>
  <course>8.58</course>
  <speed>1.798054504179448</speed>
  <fix>3d</fix>
</trkpt>
<trkpt lat="33.810334" lon="-118.3942488">
  <ele>-0.104</ele>
  <time>2026-09-02T22:07:27Z</time>
  <course>8.59</course>
  <speed>1.798054504179448</speed>
  <fix>3d</fix>
</trkpt>
<trkpt lat="33.8103341" lon="-118.394249">
  <ele>-0.104</ele>
  <time>2026-09-02T22:07:27Z</time>
  <course>8.59</course>
  <speed>1.798054504179448</speed>
  <fix>3d</fix>
</trkpt>
<trkpt lat="33.8103341" lon="-118.3942491">
  <ele>-0.104</ele>
  <time>2026-09-02T22:07:27Z</time>
  <course>8.59</course>
  <speed>1.798054504179448</speed>
  <fix>3d</fix>
</trkpt>
<trkpt lat="33.8103341" lon="-118.3942493">
  <ele>-0.104</ele>
  <time>2026-09-02T22:07:27Z</time>
  <course>8.59</course>
  <speed>1.798054504179448</speed>
  <fix>3d</fix>
</trkpt>
<trkpt lat="33.8103341" lon="-118.3942465">
  <ele>-0.1</ele>
  <time>2026-09-02T22:07:27Z</time>
  <course>276.23</course>
  <speed>1.82</speed>
  <fix>3d</fix>
</trkpt>
<trkpt lat="33.8103341" lon="-118.3942493">
  <ele>-0.104</ele>
  <time>2026-09-02T22:07:27Z</time>
  <course>8.59</course>
  <speed>1.798054504179448</speed>
  <fix>3d</fix>
</trkpt>
<trkpt lat="33.8103341" lon="-118.3942496">
  <ele>-0.104</ele>
  <time>2026-09-02T22:07:27Z</time>
  <course>8.59</course>
  <speed>1.798054504179448</speed>
  <fix>3d</fix>
</trkpt>
<trkpt lat="33.8103341" lon="-118.3942498">
  <ele>-0.104</ele>
  <time>2026-09-02T22:07:27Z</time>
  <course>8.59</course>
  <speed>1.798054504179448</speed>
  <fix>3d</fix>
</trkpt>
<trkpt lat="33.8103341" lon="-118.39425">
  <ele>-0.104</ele>
  <time>2026-09-02T22:07:27Z</time>
  <course>8.59</course>
  <speed>1.798054504179448</speed>
  <fix>3d</fix>
</trkpt>
<trkpt lat="33.8103342" lon="-118.3942501">
  <ele>-0.104</ele>
  <time>2026-09-02T22:07:27Z</time>
  <course>8.59</course>
  <speed>1.798054504179448</speed>
  <fix>3d</fix>
</trkpt>
<trkpt lat="33.8103342" lon="-118.3942502">
  <ele>-0.104</ele>
  <time>2026-09-02T22:07:27Z</time>
  <course>8.59</course>
  <speed>1.798054504179448</speed>
  <fix>3d</fix>
</trkpt>
<trkpt lat="33.8103342" lon="-118.3942504">
  <ele>-0.105</ele>
  <time>2026-09-02T22:07:27Z</time>
  <course>8.6</course>
  <speed>1.798054504179448</speed>
  <fix>3d</fix>
</trkpt>
<trkpt lat="33.8103342" lon="-118.3942506">
  <ele>-0.105</ele>
  <time>2026-09-02T22:07:27Z</time>
  <course>8.6</course>
  <speed>1.798054504179448</speed>
  <fix>3d</fix>
</trkpt>
<trkpt lat="33.8103342" lon="-118.3942508">
  <ele>-0.105</ele>
  <time>2026-09-02T22:07:27Z</time>
  <course>8.6</course>
  <speed>1.798054504179448</speed>
  <fix>3d</fix>
</trkpt>
<trkpt lat="33.8103342" lon="-118.3942509">
  <ele>-0.105</ele>
  <time>2026-09-02T22:07:27Z</time>
  <course>8.6</course>
  <speed>1.798054504179448</speed>
  <fix>3d</fix>
</trkpt>
<trkpt lat="33.8103342" lon="-118.3942511">
  <ele>-0.105</ele>
  <time>2026-09-02T22:07:27Z</time>
  <course>8.6</course>
  <speed>1.798054504179448</speed>
  <fix>3d</fix>
</trkpt>
<trkpt lat="33.8103343" lon="-118.3942512">
  <ele>-0.105</ele>
  <time>2026-09-02T22:07:27Z</time>
  <course>8.6</course>
  <speed>1.798054504179448</speed>
  <fix>3d</fix>
</trkpt>
<trkpt lat="33.8103343" lon="-118.3942512">
  <ele>-0.105</ele>
  <time>2026-09-02T22:07:27Z</time>
  <course>8.6</course>
  <speed>1.798054504179448</speed>
  <fix>3d</fix>
</trkpt>
<trkpt lat="33.8103341" lon="-118.3942465">
  <ele>-0.1</ele>
  <time>2026-09-02T22:07:27Z</time>
  <course>276.23</course>
  <speed>1.82</speed>
  <fix>3d</fix>
</trkpt>
<trkpt lat="33.8103343" lon="-118.3942515">
  <ele>-0.105</ele>
  <time>2026-09-02T22:07:27Z</time>
  <course>8.6</course>
  <speed>1.798054504179448</speed>
  <fix>3d</fix>
</trkpt>
<trkpt lat="33.8103343" lon="-118.3942518">
  <ele>-0.105</ele>
  <time>2026-09-02T22:07:27Z</time>
  <course>8.6</course>
  <speed>1.798054504179448</speed>
  <fix>3d</fix>
</trkpt>
<trkpt lat="33.8103343" lon="-118.394252">
  <ele>-0.105</ele>
  <time>2026-09-02T22:07:27Z</time>
  <course>8.6</course>
  <speed>1.798054504179448</speed>
  <fix>3d</fix>
</trkpt>
<trkpt lat="33.8103343" lon="-118.3942521">
  <ele>-0.105</ele>
  <time>2026-09-02T22:07:27Z</time>
  <course>8.61</course>
  <speed>1.798054504179448</speed>
  <fix>3d</fix>
</trkpt>
<trkpt lat="33.8103344" lon="-118.3942522">
  <ele>-0.105</ele>
  <time>2026-09-02T22:07:27Z</time>
  <course>8.61</course>
  <speed>1.798054504179448</speed>
  <fix>3d</fix>
</trkpt>
<trkpt lat="33.8103344" lon="-118.3942524">
  <ele>-0.105</ele>
  <time>2026-09-02T22:07:27Z</time>
  <course>8.61</course>
  <speed>1.798054504179448</speed>
  <fix>3d</fix>
</trkpt>
<trkpt lat="33.8103344" lon="-118.3942526">
  <ele>-0.105</ele>
  <time>2026-09-02T22:07:27Z</time>
  <course>8.61</course>
  <speed>1.798054504179448</speed>
  <fix>3d</fix>
</trkpt>
<trkpt lat="33.8103344" lon="-118.3942529">
  <ele>-0.106</ele>
  <time>2026-09-02T22:07:27Z</time>
  <course>8.61</course>
  <speed>1.798054504179448</speed>
  <fix>3d</fix>
</trkpt>
<trkpt lat="33.8103344" lon="-118.3942531">
  <ele>-0.106</ele>
  <time>2026-09-02T22:07:27Z</time>
  <course>8.61</course>
  <speed>1.798054504179448</speed>
  <fix>3d</fix>
</trkpt>
<trkpt lat="33.8103344" lon="-118.3942532">
  <ele>-0.106</ele>
  <time>2026-09-02T22:07:27Z</time>
  <course>8.61</course>
  <speed>1.798054504179448</speed>
  <fix>3d</fix>
</trkpt>
<trkpt lat="33.8103344" lon="-118.3942504">
  <ele>-0.1</ele>
  <time>2026-09-02T22:07:27Z</time>
  <course>276.25</course>
  <speed>1.82</speed>
  <fix>3d</fix>
</trkpt>
<trkpt lat="33.8103344" lon="-118.3942532">
  <ele>-0.106</ele>
  <time>2026-09-02T22:07:27Z</time>
  <course>8.61</course>
  <speed>1.798054504179448</speed>
  <fix>3d</fix>
</trkpt>
<trkpt lat="33.8103345" lon="-118.3942534">
  <ele>-0.106</ele>
  <time>2026-09-02T22:07:27Z</time>
  <course>8.61</course>
  <speed>1.798054504179448</speed>
  <fix>3d</fix>
</trkpt>
<trkpt lat="33.8103345" lon="-118.3942536">
  <ele>-0.106</ele>
  <time>2026-09-02T22:07:27Z</time>
  <course>8.61</course>
  <speed>1.798054504179448</speed>
  <fix>3d</fix>
</trkpt>
<trkpt lat="33.8103345" lon="-118.3942538">
  <ele>-0.106</ele>
  <time>2026-09-02T22:07:27Z</time>
  <course>8.62</course>
  <speed>1.798054504179448</speed>
  <fix>3d</fix>
</trkpt>
<trkpt lat="33.8103345" lon="-118.394254">
  <ele>-0.106</ele>
  <time>2026-09-02T22:07:27Z</time>
  <course>8.62</course>
  <speed>1.798054504179448</speed>
  <fix>3d</fix>
</trkpt>
<trkpt lat="33.8103345" lon="-118.3942542">
  <ele>-0.106</ele>
  <time>2026-09-02T22:07:27Z</time>
  <course>8.62</course>
  <speed>1.798054504179448</speed>
  <fix>3d</fix>
</trkpt>
<trkpt lat="33.8103345" lon="-118.3942543">
  <ele>-0.106</ele>
  <time>2026-09-02T22:07:27Z</time>
  <course>8.62</course>
  <speed>1.798054504179448</speed>
  <fix>3d</fix>
</trkpt>
<trkpt lat="33.8103346" lon="-118.3942545">
  <ele>-0.106</ele>
  <time>2026-09-02T22:07:27Z</time>
  <course>8.62</course>
  <speed>1.798054504179448</speed>
  <fix>3d</fix>
</trkpt>
<trkpt lat="33.8103346" lon="-118.3942546">
  <ele>-0.106</ele>
  <time>2026-09-02T22:07:27Z</time>
  <course>8.62</course>
  <speed>1.798054504179448</speed>
  <fix>3d</fix>
</trkpt>
<trkpt lat="33.8103346" lon="-118.3942547">
  <ele>-0.106</ele>
  <time>2026-09-02T22:07:27Z</time>
  <course>8.62</course>
  <speed>1.798054504179448</speed>
  <fix>3d</fix>
</trkpt>
<trkpt lat="33.8103346" lon="-118.3942549">
  <ele>-0.107</ele>
  <time>2026-09-02T22:07:27Z</time>
  <course>8.62</course>
  <speed>1.798054504179448</speed>
  <fix>3d</fix>
</trkpt>
<trkpt lat="33.8103346" lon="-118.3942551">
  <ele>-0.107</ele>
  <time>2026-09-02T22:07:27Z</time>
  <course>8.62</course>
  <speed>1.798054504179448</speed>
  <fix>3d</fix>
</trkpt>
<trkpt lat="33.8103346" lon="-118.3942551">
  <ele>-0.107</ele>
  <time>2026-09-02T22:07:27Z</time>
  <course>8.62</course>
  <speed>1.798054504179448</speed>
  <fix>3d</fix>
</trkpt>
<trkpt lat="33.8103344" lon="-118.3942504">
  <ele>-0.1</ele>
  <time>2026-09-02T22:07:27Z</time>
  <course>276.25</course>
  <speed>1.82</speed>
  <fix>3d</fix>
</trkpt>
<trkpt lat="33.8103346" lon="-118.3942552">
  <ele>-0.107</ele>
  <time>2026-09-02T22:07:27Z</time>
  <course>8.62</course>
  <speed>1.798054504179448</speed>
  <fix>3d</fix>
</trkpt>
<trkpt lat="33.8103346" lon="-118.3942554">
  <ele>-0.107</ele>
  <time>2026-09-02T22:07:27Z</time>
  <course>8.62</course>
  <speed>1.798054504179448</speed>
  <fix>3d</fix>
</trkpt>
<trkpt lat="33.8103347" lon="-118.3942556">
  <ele>-0.107</ele>
  <time>2026-09-02T22:07:27Z</time>
  <course>8.63</course>
  <speed>1.798054504179448</speed>
  <fix>3d</fix>
</trkpt>
<trkpt lat="33.8103347" lon="-118.3942558">
  <ele>-0.107</ele>
  <time>2026-09-02T22:07:27Z</time>
  <course>8.63</course>
  <speed>1.798054504179448</speed>
  <fix>3d</fix>
</trkpt>
<trkpt lat="33.8103347" lon="-118.3942559">
  <ele>-0.107</ele>
  <time>2026-09-02T22:07:27Z</time>
  <course>8.63</course>
  <speed>1.798054504179448</speed>
  <fix>3d</fix>
</trkpt>
<trkpt lat="33.8103347" lon="-118.3942561">
  <ele>-0.107</ele>
  <time>2026-09-02T22:07:27Z</time>
  <course>8.63</course>
  <speed>1.798054504179448</speed>
  <fix>3d</fix>
</trkpt>
<trkpt lat="33.8103347" lon="-118.3942562">
  <ele>-0.107</ele>
  <time>2026-09-02T22:07:27Z</time>
  <course>8.63</course>
  <speed>1.798054504179448</speed>
  <fix>3d</fix>
</trkpt>
<trkpt lat="33.8103347" lon="-118.3942564">
  <ele>-0.108</ele>
  <time>2026-09-02T22:07:27Z</time>
  <course>8.63</course>
  <speed>1.798054504179448</speed>
  <fix>3d</fix>
</trkpt>
<trkpt lat="33.8103348" lon="-118.3942566">
  <ele>-0.108</ele>
  <time>2026-09-02T22:07:27Z</time>
  <course>8.63</course>
  <speed>1.798054504179448</speed>
  <fix>3d</fix>
</trkpt>
<trkpt lat="33.8103348" lon="-118.3942568">
  <ele>-0.108</ele>
  <time>2026-09-02T22:07:27Z</time>
  <course>8.63</course>
  <speed>1.798054504179448</speed>
  <fix>3d</fix>
</trkpt>
<trkpt lat="33.8103348" lon="-118.3942569">
  <ele>-0.108</ele>
  <time>2026-09-02T22:07:27Z</time>
  <course>8.63</course>
  <speed>1.798054504179448</speed>
  <fix>3d</fix>
</trkpt>
<trkpt lat="33.8103348" lon="-118.3942571">
  <ele>-0.108</ele>
  <time>2026-09-02T22:07:27Z</time>
  <course>8.63</course>
  <speed>1.798054504179448</speed>
  <fix>3d</fix>
</trkpt>
<trkpt lat="33.8103348" lon="-118.3942544">
  <ele>-0.1</ele>
  <time>2026-09-02T22:07:27Z</time>
  <course>276.28</course>
  <speed>1.82</speed>
  <fix>3d</fix>
</trkpt>
<trkpt lat="33.8103348" lon="-118.3942571">
  <ele>-0.108</ele>
  <time>2026-09-02T22:07:27Z</time>
  <course>8.63</course>
  <speed>1.798054504179448</speed>
  <fix>3d</fix>
</trkpt>
<trkpt lat="33.8103348" lon="-118.3942574">
  <ele>-0.109</ele>
  <time>2026-09-02T22:07:27Z</time>
  <course>8.64</course>
  <speed>1.798054504179448</speed>
  <fix>3d</fix>
</trkpt>
<trkpt lat="33.8103348" lon="-118.3942576">
  <ele>-0.109</ele>
  <time>2026-09-02T22:07:27Z</time>
  <course>8.64</course>
  <speed>1.798054504179448</speed>
  <fix>3d</fix>
</trkpt>
<trkpt lat="33.8103349" lon="-118.3942578">
  <ele>-0.109</ele>
  <time>2026-09-02T22:07:27Z</time>
  <course>8.64</course>
  <speed>1.798054504179448</speed>
  <fix>3d</fix>
</trkpt>
<trkpt lat="33.8103349" lon="-118.3942579">
  <ele>-0.109</ele>
  <time>2026-09-02T22:07:27Z</time>
  <course>8.64</course>
  <speed>1.798054504179448</speed>
  <fix>3d</fix>
</trkpt>
<trkpt lat="33.8103349" lon="-118.3942581">
  <ele>-0.109</ele>
  <time>2026-09-02T22:07:27Z</time>
  <course>8.64</course>
  <speed>1.798054504179448</speed>
  <fix>3d</fix>
</trkpt>
<trkpt lat="33.8103349" lon="-118.3942582">
  <ele>-0.109</ele>
  <time>2026-09-02T22:07:27Z</time>
  <course>8.64</course>
  <speed>1.798054504179448</speed>
  <fix>3d</fix>
</trkpt>
<trkpt lat="33.8103349" lon="-118.3942584">
  <ele>-0.109</ele>
  <time>2026-09-02T22:07:27Z</time>
  <course>8.64</course>
  <speed>1.798054504179448</speed>
  <fix>3d</fix>
</trkpt>
<trkpt lat="33.8103349" lon="-118.3942585">
  <ele>-0.109</ele>
  <time>2026-09-02T22:07:27Z</time>
  <course>8.64</course>
  <speed>1.798054504179448</speed>
  <fix>3d</fix>
</trkpt>
<trkpt lat="33.8103349" lon="-118.3942587">
  <ele>-0.109</ele>
  <time>2026-09-02T22:07:27Z</time>
  <course>8.64</course>
  <speed>1.798054504179448</speed>
  <fix>3d</fix>
</trkpt>
<trkpt lat="33.810335" lon="-118.3942588">
  <ele>-0.109</ele>
  <time>2026-09-02T22:07:27Z</time>
  <course>8.64</course>
  <speed>1.798054504179448</speed>
  <fix>3d</fix>
</trkpt>
<trkpt lat="33.810335" lon="-118.394259">
  <ele>-0.109</ele>
  <time>2026-09-02T22:07:27Z</time>
  <course>8.64</course>
  <speed>1.798054504179448</speed>
  <fix>3d</fix>
</trkpt>
<trkpt lat="33.810335" lon="-118.394259">
  <ele>-0.109</ele>
  <time>2026-09-02T22:07:27Z</time>
  <course>8.65</course>
  <speed>1.798054504179448</speed>
  <fix>3d</fix>
</trkpt>
<trkpt lat="33.8103348" lon="-118.3942544">
  <ele>-0.1</ele>
  <time>2026-09-02T22:07:27Z</time>
  <course>276.28</course>
  <speed>1.82</speed>
  <fix>3d</fix>
</trkpt>
<trkpt lat="33.810335" lon="-118.3942591">
  <ele>-0.109</ele>
  <time>2026-09-02T22:07:27Z</time>
  <course>8.65</course>
  <speed>1.798054504179448</speed>
  <fix>3d</fix>
</trkpt>
<trkpt lat="33.810335" lon="-118.3942594">
  <ele>-0.109</ele>
  <time>2026-09-02T22:07:27Z</time>
  <course>8.65</course>
  <speed>1.798054504179448</speed>
  <fix>3d</fix>
</trkpt>
<trkpt lat="33.810335" lon="-118.3942596">
  <ele>-0.109</ele>
  <time>2026-09-02T22:07:27Z</time>
  <course>8.65</course>
  <speed>1.798054504179448</speed>
  <fix>3d</fix>
</trkpt>
<trkpt lat="33.810335" lon="-118.3942598">
  <ele>-0.109</ele>
  <time>2026-09-02T22:07:27Z</time>
  <course>8.65</course>
  <speed>1.798054504179448</speed>
  <fix>3d</fix>
</trkpt>
<trkpt lat="33.810335" lon="-118.3942599">
  <ele>-0.109</ele>
  <time>2026-09-02T22:07:27Z</time>
  <course>8.65</course>
  <speed>1.798054504179448</speed>
  <fix>3d</fix>
</trkpt>
<trkpt lat="33.8103351" lon="-118.3942601">
  <ele>-0.109</ele>
  <time>2026-09-02T22:07:27Z</time>
  <course>8.65</course>
  <speed>1.798054504179448</speed>
  <fix>3d</fix>
</trkpt>
<trkpt lat="33.8103351" lon="-118.3942603">
  <ele>-0.109</ele>
  <time>2026-09-02T22:07:27Z</time>
  <course>8.65</course>
  <speed>1.798054504179448</speed>
  <fix>3d</fix>
</trkpt>
<trkpt lat="33.8103351" lon="-118.3942604">
  <ele>-0.109</ele>
  <time>2026-09-02T22:07:27Z</time>
  <course>8.65</course>
  <speed>1.798054504179448</speed>
  <fix>3d</fix>
</trkpt>
<trkpt lat="33.8103351" lon="-118.3942606">
  <ele>-0.109</ele>
  <time>2026-09-02T22:07:27Z</time>
  <course>8.65</course>
  <speed>1.798054504179448</speed>
  <fix>3d</fix>
</trkpt>
<trkpt lat="33.8103351" lon="-118.3942607">
  <ele>-0.109</ele>
  <time>2026-09-02T22:07:27Z</time>
  <course>8.65</course>
  <speed>1.798054504179448</speed>
  <fix>3d</fix>
</trkpt>
<trkpt lat="33.8103351" lon="-118.3942609">
  <ele>-0.109</ele>
  <time>2026-09-02T22:07:27Z</time>
  <course>8.66</course>
  <speed>1.798054504179448</speed>
  <fix>3d</fix>
</trkpt>
<trkpt lat="33.8103352" lon="-118.394261">
  <ele>-0.109</ele>
  <time>2026-09-02T22:07:27Z</time>
  <course>8.66</course>
  <speed>1.798054504179448</speed>
  <fix>3d</fix>
</trkpt>
<trkpt lat="33.8103352" lon="-118.394261">
  <ele>-0.109</ele>
  <time>2026-09-02T22:07:27Z</time>
  <course>8.66</course>
  <speed>1.798054504179448</speed>
  <fix>3d</fix>
</trkpt>
<trkpt lat="33.8103352" lon="-118.3942583">
  <ele>-0.1</ele>
  <time>2026-09-02T22:07:27Z</time>
  <course>276.31</course>
  <speed>1.82</speed>
  <fix>3d</fix>
</trkpt>
<trkpt lat="33.8103352" lon="-118.3942613">
  <ele>-0.109</ele>
  <time>2026-09-02T22:07:27Z</time>
  <course>8.66</course>
  <speed>1.798054504179448</speed>
  <fix>3d</fix>
</trkpt>
<trkpt lat="33.8103352" lon="-118.3942614">
  <ele>-0.109</ele>
  <time>2026-09-02T22:07:27Z</time>
  <course>8.66</course>
  <speed>1.798054504179448</speed>
  <fix>3d</fix>
</trkpt>
<trkpt lat="33.8103352" lon="-118.3942616">
  <ele>-0.109</ele>
  <time>2026-09-02T22:07:27Z</time>
  <course>8.66</course>
  <speed>1.798054504179448</speed>
  <fix>3d</fix>
</trkpt>
<trkpt lat="33.8103352" lon="-118.3942618">
  <ele>-0.109</ele>
  <time>2026-09-02T22:07:27Z</time>
  <course>8.66</course>
  <speed>1.798054504179448</speed>
  <fix>3d</fix>
</trkpt>
<trkpt lat="33.8103352" lon="-118.3942619">
  <ele>-0.109</ele>
  <time>2026-09-02T22:07:27Z</time>
  <course>8.66</course>
  <speed>1.798054504179448</speed>
  <fix>3d</fix>
</trkpt>
<trkpt lat="33.8103353" lon="-118.3942622">
  <ele>-0.109</ele>
  <time>2026-09-02T22:07:27Z</time>
  <course>8.66</course>
  <speed>1.798054504179448</speed>
  <fix>3d</fix>
</trkpt>
<trkpt lat="33.8103353" lon="-118.3942623">
  <ele>-0.109</ele>
  <time>2026-09-02T22:07:27Z</time>
  <course>8.66</course>
  <speed>1.798054504179448</speed>
  <fix>3d</fix>
</trkpt>
<trkpt lat="33.8103353" lon="-118.3942625">
  <ele>-0.109</ele>
  <time>2026-09-02T22:07:27Z</time>
  <course>8.66</course>
  <speed>1.798054504179448</speed>
  <fix>3d</fix>
</trkpt>
<trkpt lat="33.8103353" lon="-118.3942627">
  <ele>-0.109</ele>
  <time>2026-09-02T22:07:27Z</time>
  <course>8.67</course>
  <speed>1.798054504179448</speed>
  <fix>3d</fix>
</trkpt>
<trkpt lat="33.8103353" lon="-118.3942629">
  <ele>-0.109</ele>
  <time>2026-09-02T22:07:27Z</time>
  <course>8.67</course>
  <speed>1.798054504179448</speed>
  <fix>3d</fix>
</trkpt>
<trkpt lat="33.8103353" lon="-118.394263">
  <ele>-0.109</ele>
  <time>2026-09-02T22:07:27Z</time>
  <course>8.67</course>
  <speed>1.798054504179448</speed>
  <fix>3d</fix>
</trkpt>
<trkpt lat="33.8103352" lon="-118.3942583">
  <ele>-0.1</ele>
  <time>2026-09-02T22:07:27Z</time>
  <course>276.31</course>
  <speed>1.82</speed>
  <fix>3d</fix>
</trkpt>
<trkpt lat="33.8103353" lon="-118.394263">
  <ele>-0.109</ele>
  <time>2026-09-02T22:07:27Z</time>
  <course>8.67</course>
  <speed>1.798054504179448</speed>
  <fix>3d</fix>
</trkpt>
<trkpt lat="33.8103354" lon="-118.3942633">
  <ele>-0.109</ele>
  <time>2026-09-02T22:07:27Z</time>
  <course>8.67</course>
  <speed>1.798054504179448</speed>
  <fix>3d</fix>
</trkpt>
<trkpt lat="33.8103354" lon="-118.3942635">
  <ele>-0.109</ele>
  <time>2026-09-02T22:07:27Z</time>
  <course>8.67</course>
  <speed>1.798054504179448</speed>
  <fix>3d</fix>
</trkpt>
<trkpt lat="33.8103354" lon="-118.3942636">
  <ele>-0.109</ele>
  <time>2026-09-02T22:07:27Z</time>
  <course>8.67</course>
  <speed>1.798054504179448</speed>
  <fix>3d</fix>
</trkpt>
<trkpt lat="33.8103354" lon="-118.3942637">
  <ele>-0.109</ele>
  <time>2026-09-02T22:07:27Z</time>
  <course>8.67</course>
  <speed>1.798054504179448</speed>
  <fix>3d</fix>
</trkpt>
<trkpt lat="33.8103354" lon="-118.3942639">
  <ele>-0.109</ele>
  <time>2026-09-02T22:07:27Z</time>
  <course>8.67</course>
  <speed>1.798054504179448</speed>
  <fix>3d</fix>
</trkpt>
<trkpt lat="33.8103354" lon="-118.394264">
  <ele>-0.109</ele>
  <time>2026-09-02T22:07:27Z</time>
  <course>8.67</course>
  <speed>1.798054504179448</speed>
  <fix>3d</fix>
</trkpt>
<trkpt lat="33.8103355" lon="-118.3942642">
  <ele>-0.109</ele>
  <time>2026-09-02T22:07:27Z</time>
  <course>8.67</course>
  <speed>1.798054504179448</speed>
  <fix>3d</fix>
</trkpt>
<trkpt lat="33.8103355" lon="-118.3942643">
  <ele>-0.109</ele>
  <time>2026-09-02T22:07:27Z</time>
  <course>8.67</course>
  <speed>1.798054504179448</speed>
  <fix>3d</fix>
</trkpt>
<trkpt lat="33.8103355" lon="-118.3942645">
  <ele>-0.11</ele>
  <time>2026-09-02T22:07:27Z</time>
  <course>8.68</course>
  <speed>1.798054504179448</speed>
  <fix>3d</fix>
</trkpt>
<trkpt lat="33.8103355" lon="-118.3942647">
  <ele>-0.11</ele>
  <time>2026-09-02T22:07:27Z</time>
  <course>8.68</course>
  <speed>1.798054504179448</speed>
  <fix>3d</fix>
</trkpt>
<trkpt lat="33.8103355" lon="-118.3942648">
  <ele>-0.11</ele>
  <time>2026-09-02T22:07:27Z</time>
  <course>8.68</course>
  <speed>1.798054504179448</speed>
  <fix>3d</fix>
</trkpt>
<trkpt lat="33.8103355" lon="-118.3942649">
  <ele>-0.11</ele>
  <time>2026-09-02T22:07:27Z</time>
  <course>8.68</course>
  <speed>1.798054504179448</speed>
  <fix>3d</fix>
</trkpt>
<trkpt lat="33.8103356" lon="-118.3942622">
  <ele>-0.1</ele>
  <time>2026-09-02T22:07:27Z</time>
  <course>276.33</course>
  <speed>1.82</speed>
  <fix>3d</fix>
</trkpt>
<trkpt lat="33.8103355" lon="-118.394265">
  <ele>-0.11</ele>
  <time>2026-09-02T22:07:27Z</time>
  <course>8.68</course>
  <speed>1.798054504179448</speed>
  <fix>3d</fix>
</trkpt>
<trkpt lat="33.8103355" lon="-118.3942652">
  <ele>-0.11</ele>
  <time>2026-09-02T22:07:27Z</time>
  <course>8.68</course>
  <speed>1.798054504179448</speed>
  <fix>3d</fix>
</trkpt>
<trkpt lat="33.8103356" lon="-118.3942654">
  <ele>-0.11</ele>
  <time>2026-09-02T22:07:27Z</time>
  <course>8.68</course>
  <speed>1.798054504179448</speed>
  <fix>3d</fix>
</trkpt>
<trkpt lat="33.8103356" lon="-118.3942655">
  <ele>-0.11</ele>
  <time>2026-09-02T22:07:27Z</time>
  <course>8.68</course>
  <speed>1.798054504179448</speed>
  <fix>3d</fix>
</trkpt>
<trkpt lat="33.8103356" lon="-118.3942656">
  <ele>-0.11</ele>
  <time>2026-09-02T22:07:27Z</time>
  <course>8.68</course>
  <speed>1.798054504179448</speed>
  <fix>3d</fix>
</trkpt>
<trkpt lat="33.8103356" lon="-118.3942658">
  <ele>-0.11</ele>
  <time>2026-09-02T22:07:27Z</time>
  <course>8.68</course>
  <speed>1.798054504179448</speed>
  <fix>3d</fix>
</trkpt>
<trkpt lat="33.8103356" lon="-118.3942659">
  <ele>-0.11</ele>
  <time>2026-09-02T22:07:27Z</time>
  <course>8.68</course>
  <speed>1.798054504179448</speed>
  <fix>3d</fix>
</trkpt>
<trkpt lat="33.8103356" lon="-118.3942661">
  <ele>-0.11</ele>
  <time>2026-09-02T22:07:27Z</time>
  <course>8.69</course>
  <speed>1.798054504179448</speed>
  <fix>3d</fix>
</trkpt>
<trkpt lat="33.8103356" lon="-118.3942663">
  <ele>-0.11</ele>
  <time>2026-09-02T22:07:27Z</time>
  <course>8.69</course>
  <speed>1.798054504179448</speed>
  <fix>3d</fix>
</trkpt>
<trkpt lat="33.8103357" lon="-118.3942664">
  <ele>-0.11</ele>
  <time>2026-09-02T22:07:27Z</time>
  <course>8.69</course>
  <speed>1.798054504179448</speed>
  <fix>3d</fix>
</trkpt>
<trkpt lat="33.8103357" lon="-118.3942666">
  <ele>-0.11</ele>
  <time>2026-09-02T22:07:27Z</time>
  <course>8.69</course>
  <speed>1.798054504179448</speed>
  <fix>3d</fix>
</trkpt>
<trkpt lat="33.8103357" lon="-118.3942667">
  <ele>-0.11</ele>
  <time>2026-09-02T22:07:27Z</time>
  <course>8.69</course>
  <speed>1.798054504179448</speed>
  <fix>3d</fix>
</trkpt>
<trkpt lat="33.8103357" lon="-118.3942669">
  <ele>-0.11</ele>
  <time>2026-09-02T22:07:27Z</time>
  <course>8.69</course>
  <speed>1.798054504179448</speed>
  <fix>3d</fix>
</trkpt>
<trkpt lat="33.8103357" lon="-118.3942669">
  <ele>-0.11</ele>
  <time>2026-09-02T22:07:27Z</time>
  <course>8.69</course>
  <speed>1.798054504179448</speed>
  <fix>3d</fix>
</trkpt>
<trkpt lat="33.8103356" lon="-118.3942622">
  <ele>-0.1</ele>
  <time>2026-09-02T22:07:27Z</time>
  <course>276.33</course>
  <speed>1.82</speed>
  <fix>3d</fix>
</trkpt>
<trkpt lat="33.8103357" lon="-118.3942672">
  <ele>-0.11</ele>
  <time>2026-09-02T22:07:27Z</time>
  <course>8.69</course>
  <speed>1.798054504179448</speed>
  <fix>3d</fix>
</trkpt>
<trkpt lat="33.8103358" lon="-118.3942674">
  <ele>-0.11</ele>
  <time>2026-09-02T22:07:27Z</time>
  <course>8.69</course>
  <speed>1.798054504179448</speed>
  <fix>3d</fix>
</trkpt>
<trkpt lat="33.8103358" lon="-118.3942676">
  <ele>-0.11</ele>
  <time>2026-09-02T22:07:27Z</time>
  <course>8.69</course>
  <speed>1.798054504179448</speed>
  <fix>3d</fix>
</trkpt>
<trkpt lat="33.8103358" lon="-118.3942677">
  <ele>-0.11</ele>
  <time>2026-09-02T22:07:27Z</time>
  <course>8.69</course>
  <speed>1.798054504179448</speed>
  <fix>3d</fix>
</trkpt>
<trkpt lat="33.8103358" lon="-118.3942679">
  <ele>-0.11</ele>
  <time>2026-09-02T22:07:27Z</time>
  <course>8.7</course>
  <speed>1.798054504179448</speed>
  <fix>3d</fix>
</trkpt>
<trkpt lat="33.8103358" lon="-118.394268">
  <ele>-0.11</ele>
  <time>2026-09-02T22:07:27Z</time>
  <course>8.7</course>
  <speed>1.798054504179448</speed>
  <fix>3d</fix>
</trkpt>
<trkpt lat="33.8103358" lon="-118.3942682">
  <ele>-0.11</ele>
  <time>2026-09-02T22:07:27Z</time>
  <course>8.7</course>
  <speed>1.798054504179448</speed>
  <fix>3d</fix>
</trkpt>
<trkpt lat="33.8103358" lon="-118.3942683">
  <ele>-0.11</ele>
  <time>2026-09-02T22:07:27Z</time>
  <course>8.7</course>
  <speed>1.798054504179448</speed>
  <fix>3d</fix>
</trkpt>
<trkpt lat="33.8103359" lon="-118.3942685">
  <ele>-0.11</ele>
  <time>2026-09-02T22:07:27Z</time>
  <course>8.7</course>
  <speed>1.798054504179448</speed>
  <fix>3d</fix>
</trkpt>
<trkpt lat="33.8103359" lon="-118.3942686">
  <ele>-0.11</ele>
  <time>2026-09-02T22:07:27Z</time>
  <course>8.7</course>
  <speed>1.798054504179448</speed>
  <fix>3d</fix>
</trkpt>
<trkpt lat="33.8103359" lon="-118.3942688">
  <ele>-0.11</ele>
  <time>2026-09-02T22:07:27Z</time>
  <course>8.7</course>
  <speed>1.798054504179448</speed>
  <fix>3d</fix>
</trkpt>
<trkpt lat="33.8103359" lon="-118.3942688">
  <ele>-0.11</ele>
  <time>2026-09-02T22:07:27Z</time>
  <course>8.7</course>
  <speed>1.798054504179448</speed>
  <fix>3d</fix>
</trkpt>
<trkpt lat="33.8103359" lon="-118.3942661">
  <ele>-0.1</ele>
  <time>2026-09-02T22:07:27Z</time>
  <course>276.36</course>
  <speed>1.82</speed>
  <fix>3d</fix>
</trkpt>
<trkpt lat="33.8103359" lon="-118.3942691">
  <ele>-0.11</ele>
  <time>2026-09-02T22:07:27Z</time>
  <course>8.7</course>
  <speed>1.798054504179448</speed>
  <fix>3d</fix>
</trkpt>
<trkpt lat="33.8103359" lon="-118.3942693">
  <ele>-0.11</ele>
  <time>2026-09-02T22:07:27Z</time>
  <course>8.7</course>
  <speed>1.798054504179448</speed>
  <fix>3d</fix>
</trkpt>
<trkpt lat="33.8103359" lon="-118.3942695">
  <ele>-0.11</ele>
  <time>2026-09-02T22:07:27Z</time>
  <course>8.7</course>
  <speed>1.798054504179448</speed>
  <fix>3d</fix>
</trkpt>
<trkpt lat="33.810336" lon="-118.3942696">
  <ele>-0.109</ele>
  <time>2026-09-02T22:07:27Z</time>
  <course>8.7</course>
  <speed>1.798054504179448</speed>
  <fix>3d</fix>
</trkpt>
<trkpt lat="33.810336" lon="-118.3942698">
  <ele>-0.109</ele>
  <time>2026-09-02T22:07:27Z</time>
  <course>8.71</course>
  <speed>1.798054504179448</speed>
  <fix>3d</fix>
</trkpt>
<trkpt lat="33.810336" lon="-118.3942699">
  <ele>-0.109</ele>
  <time>2026-09-02T22:07:27Z</time>
  <course>8.71</course>
  <speed>1.798054504179448</speed>
  <fix>3d</fix>
</trkpt>
<trkpt lat="33.810336" lon="-118.3942701">
  <ele>-0.109</ele>
  <time>2026-09-02T22:07:27Z</time>
  <course>8.71</course>
  <speed>1.798054504179448</speed>
  <fix>3d</fix>
</trkpt>
<trkpt lat="33.810336" lon="-118.3942702">
  <ele>-0.109</ele>
  <time>2026-09-02T22:07:27Z</time>
  <course>8.71</course>
  <speed>1.798054504179448</speed>
  <fix>3d</fix>
</trkpt>
<trkpt lat="33.810336" lon="-118.3942704">
  <ele>-0.109</ele>
  <time>2026-09-02T22:07:27Z</time>
  <course>8.71</course>
  <speed>1.798054504179448</speed>
  <fix>3d</fix>
</trkpt>
<trkpt lat="33.8103361" lon="-118.3942705">
  <ele>-0.109</ele>
  <time>2026-09-02T22:07:27Z</time>
  <course>8.71</course>
  <speed>1.798054504179448</speed>
  <fix>3d</fix>
</trkpt>
<trkpt lat="33.8103361" lon="-118.3942707">
  <ele>-0.109</ele>
  <time>2026-09-02T22:07:27Z</time>
  <course>8.71</course>
  <speed>1.798054504179448</speed>
  <fix>3d</fix>
</trkpt>
<trkpt lat="33.8103361" lon="-118.3942708">
  <ele>-0.109</ele>
  <time>2026-09-02T22:07:27Z</time>
  <course>8.71</course>
  <speed>1.798054504179448</speed>
  <fix>3d</fix>
</trkpt>
<trkpt lat="33.8103359" lon="-118.3942661">
  <ele>-0.1</ele>
  <time>2026-09-02T22:07:27Z</time>
  <course>276.36</course>
  <speed>1.82</speed>
  <fix>3d</fix>
</trkpt>
<trkpt lat="33.8103361" lon="-118.3942708">
  <ele>-0.109</ele>
  <time>2026-09-02T22:07:27Z</time>
  <course>8.71</course>
  <speed>1.798054504179448</speed>
  <fix>3d</fix>
</trkpt>
<trkpt lat="33.8103361" lon="-118.3942711">
  <ele>-0.109</ele>
  <time>2026-09-02T22:07:27Z</time>
  <course>8.71</course>
  <speed>1.798054504179448</speed>
  <fix>3d</fix>
</trkpt>
<trkpt lat="33.8103361" lon="-118.3942714">
  <ele>-0.109</ele>
  <time>2026-09-02T22:07:27Z</time>
  <course>8.71</course>
  <speed>1.798054504179448</speed>
  <fix>3d</fix>
</trkpt>
<trkpt lat="33.8103361" lon="-118.3942716">
  <ele>-0.109</ele>
  <time>2026-09-02T22:07:27Z</time>
  <course>8.72</course>
  <speed>1.798054504179448</speed>
  <fix>3d</fix>
</trkpt>
<trkpt lat="33.8103362" lon="-118.3942717">
  <ele>-0.109</ele>
  <time>2026-09-02T22:07:27Z</time>
  <course>8.72</course>
  <speed>1.798054504179448</speed>
  <fix>3d</fix>
</trkpt>
<trkpt lat="33.8103362" lon="-118.3942719">
  <ele>-0.109</ele>
  <time>2026-09-02T22:07:27Z</time>
  <course>8.72</course>
  <speed>1.798054504179448</speed>
  <fix>3d</fix>
</trkpt>
<trkpt lat="33.8103362" lon="-118.394272">
  <ele>-0.109</ele>
  <time>2026-09-02T22:07:27Z</time>
  <course>8.72</course>
  <speed>1.798054504179448</speed>
  <fix>3d</fix>
</trkpt>
<trkpt lat="33.8103362" lon="-118.3942722">
  <ele>-0.109</ele>
  <time>2026-09-02T22:07:27Z</time>
  <course>8.72</course>
  <speed>1.798054504179448</speed>
  <fix>3d</fix>
</trkpt>
<trkpt lat="33.8103362" lon="-118.3942723">
  <ele>-0.109</ele>
  <time>2026-09-02T22:07:27Z</time>
  <course>8.72</course>
  <speed>1.798054504179448</speed>
  <fix>3d</fix>
</trkpt>
<trkpt lat="33.8103362" lon="-118.3942725">
  <ele>-0.109</ele>
  <time>2026-09-02T22:07:27Z</time>
  <course>8.72</course>
  <speed>1.798054504179448</speed>
  <fix>3d</fix>
</trkpt>
<trkpt lat="33.8103362" lon="-118.3942727">
  <ele>-0.109</ele>
  <time>2026-09-02T22:07:27Z</time>
  <course>8.72</course>
  <speed>1.798054504179448</speed>
  <fix>3d</fix>
</trkpt>
<trkpt lat="33.8103363" lon="-118.3942728">
  <ele>-0.109</ele>
  <time>2026-09-02T22:07:27Z</time>
  <course>8.72</course>
  <speed>1.798054504179448</speed>
  <fix>3d</fix>
</trkpt>
<trkpt lat="33.8103363" lon="-118.39427">
  <ele>-0.1</ele>
  <time>2026-09-02T22:07:27Z</time>
  <course>276.38</course>
  <speed>1.82</speed>
  <fix>3d</fix>
</trkpt>
<trkpt lat="33.8103363" lon="-118.3942728">
  <ele>-0.109</ele>
  <time>2026-09-02T22:07:27Z</time>
  <course>8.72</course>
  <speed>1.798054504179448</speed>
  <fix>3d</fix>
</trkpt>
<trkpt lat="33.8103363" lon="-118.394273">
  <ele>-0.109</ele>
  <time>2026-09-02T22:07:27Z</time>
  <course>8.72</course>
  <speed>1.798054504179448</speed>
  <fix>3d</fix>
</trkpt>
<trkpt lat="33.8103363" lon="-118.3942733">
  <ele>-0.109</ele>
  <time>2026-09-02T22:07:27Z</time>
  <course>8.73</course>
  <speed>1.798054504179448</speed>
  <fix>3d</fix>
</trkpt>
<trkpt lat="33.8103363" lon="-118.3942735">
  <ele>-0.109</ele>
  <time>2026-09-02T22:07:27Z</time>
  <course>8.73</course>
  <speed>1.798054504179448</speed>
  <fix>3d</fix>
</trkpt>
<trkpt lat="33.8103363" lon="-118.3942736">
  <ele>-0.109</ele>
  <time>2026-09-02T22:07:27Z</time>
  <course>8.73</course>
  <speed>1.798054504179448</speed>
  <fix>3d</fix>
</trkpt>
<trkpt lat="33.8103364" lon="-118.3942738">
  <ele>-0.109</ele>
  <time>2026-09-02T22:07:27Z</time>
  <course>8.73</course>
  <speed>1.798054504179448</speed>
  <fix>3d</fix>
</trkpt>
<trkpt lat="33.8103364" lon="-118.3942739">
  <ele>-0.109</ele>
  <time>2026-09-02T22:07:27Z</time>
  <course>8.73</course>
  <speed>1.798054504179448</speed>
  <fix>3d</fix>
</trkpt>
<trkpt lat="33.8103364" lon="-118.3942741">
  <ele>-0.109</ele>
  <time>2026-09-02T22:07:27Z</time>
  <course>8.73</course>
  <speed>1.798054504179448</speed>
  <fix>3d</fix>
</trkpt>
<trkpt lat="33.8103364" lon="-118.3942744">
  <ele>-0.109</ele>
  <time>2026-09-02T22:07:27Z</time>
  <course>8.73</course>
  <speed>1.798054504179448</speed>
  <fix>3d</fix>
</trkpt>
<trkpt lat="33.8103364" lon="-118.3942746">
  <ele>-0.108</ele>
  <time>2026-09-02T22:07:27Z</time>
  <course>8.73</course>
  <speed>1.798054504179448</speed>
  <fix>3d</fix>
</trkpt>
<trkpt lat="33.8103364" lon="-118.3942747">
  <ele>-0.108</ele>
  <time>2026-09-02T22:07:27Z</time>
  <course>8.73</course>
  <speed>1.798054504179448</speed>
  <fix>3d</fix>
</trkpt>
<trkpt lat="33.8103364" lon="-118.3942747">
  <ele>-0.108</ele>
  <time>2026-09-02T22:07:27Z</time>
  <course>8.73</course>
  <speed>1.798054504179448</speed>
  <fix>3d</fix>
</trkpt>
<trkpt lat="33.8103363" lon="-118.39427">
  <ele>-0.1</ele>
  <time>2026-09-02T22:07:27Z</time>
  <course>276.38</course>
  <speed>1.82</speed>
  <fix>3d</fix>
</trkpt>
<trkpt lat="33.8103365" lon="-118.394275">
  <ele>-0.108</ele>
  <time>2026-09-02T22:07:27Z</time>
  <course>8.73</course>
  <speed>1.798054504179448</speed>
  <fix>3d</fix>
</trkpt>
<trkpt lat="33.8103365" lon="-118.3942752">
  <ele>-0.108</ele>
  <time>2026-09-02T22:07:27Z</time>
  <course>8.74</course>
  <speed>1.798054504179448</speed>
  <fix>3d</fix>
</trkpt>
<trkpt lat="33.8103365" lon="-118.3942754">
  <ele>-0.108</ele>
  <time>2026-09-02T22:07:27Z</time>
  <course>8.74</course>
  <speed>1.798054504179448</speed>
  <fix>3d</fix>
</trkpt>
<trkpt lat="33.8103365" lon="-118.3942756">
  <ele>-0.108</ele>
  <time>2026-09-02T22:07:27Z</time>
  <course>8.74</course>
  <speed>1.798054504179448</speed>
  <fix>3d</fix>
</trkpt>
<trkpt lat="33.8103365" lon="-118.3942757">
  <ele>-0.108</ele>
  <time>2026-09-02T22:07:27Z</time>
  <course>8.74</course>
  <speed>1.798054504179448</speed>
  <fix>3d</fix>
</trkpt>
<trkpt lat="33.8103366" lon="-118.3942759">
  <ele>-0.108</ele>
  <time>2026-09-02T22:07:27Z</time>
  <course>8.74</course>
  <speed>1.798054504179448</speed>
  <fix>3d</fix>
</trkpt>
<trkpt lat="33.8103366" lon="-118.394276">
  <ele>-0.108</ele>
  <time>2026-09-02T22:07:27Z</time>
  <course>8.74</course>
  <speed>1.798054504179448</speed>
  <fix>3d</fix>
</trkpt>
<trkpt lat="33.8103366" lon="-118.3942762">
  <ele>-0.108</ele>
  <time>2026-09-02T22:07:27Z</time>
  <course>8.74</course>
  <speed>1.798054504179448</speed>
  <fix>3d</fix>
</trkpt>
<trkpt lat="33.8103366" lon="-118.3942763">
  <ele>-0.108</ele>
  <time>2026-09-02T22:07:27Z</time>
  <course>8.74</course>
  <speed>1.798054504179448</speed>
  <fix>3d</fix>
</trkpt>
<trkpt lat="33.8103366" lon="-118.3942766">
  <ele>-0.108</ele>
  <time>2026-09-02T22:07:27Z</time>
  <course>8.74</course>
  <speed>1.798054504179448</speed>
  <fix>3d</fix>
</trkpt>
<trkpt lat="33.8103366" lon="-118.3942767">
  <ele>-0.108</ele>
  <time>2026-09-02T22:07:27Z</time>
  <course>8.74</course>
  <speed>1.798054504179448</speed>
  <fix>3d</fix>
</trkpt>
<trkpt lat="33.8103366" lon="-118.3942739">
  <ele>-0.1</ele>
  <time>2026-09-02T22:07:27Z</time>
  <course>276.41</course>
  <speed>1.82</speed>
  <fix>3d</fix>
</trkpt>
<trkpt lat="33.8103366" lon="-118.3942767">
  <ele>-0.108</ele>
  <time>2026-09-02T22:07:27Z</time>
  <course>8.74</course>
  <speed>1.798054504179448</speed>
  <fix>3d</fix>
</trkpt>
<trkpt lat="33.8103367" lon="-118.3942769">
  <ele>-0.108</ele>
  <time>2026-09-02T22:07:27Z</time>
  <course>8.75</course>
  <speed>1.798054504179448</speed>
  <fix>3d</fix>
</trkpt>
<trkpt lat="33.8103367" lon="-118.3942771">
  <ele>-0.108</ele>
  <time>2026-09-02T22:07:27Z</time>
  <course>8.75</course>
  <speed>1.798054504179448</speed>
  <fix>3d</fix>
</trkpt>
<trkpt lat="33.8103367" lon="-118.3942773">
  <ele>-0.108</ele>
  <time>2026-09-02T22:07:27Z</time>
  <course>8.75</course>
  <speed>1.798054504179448</speed>
  <fix>3d</fix>
</trkpt>
<trkpt lat="33.8103367" lon="-118.3942774">
  <ele>-0.108</ele>
  <time>2026-09-02T22:07:27Z</time>
  <course>8.75</course>
  <speed>1.798054504179448</speed>
  <fix>3d</fix>
</trkpt>
<trkpt lat="33.8103367" lon="-118.3942775">
  <ele>-0.108</ele>
  <time>2026-09-02T22:07:27Z</time>
  <course>8.75</course>
  <speed>1.798054504179448</speed>
  <fix>3d</fix>
</trkpt>
<trkpt lat="33.8103367" lon="-118.3942777">
  <ele>-0.108</ele>
  <time>2026-09-02T22:07:27Z</time>
  <course>8.75</course>
  <speed>1.798054504179448</speed>
  <fix>3d</fix>
</trkpt>
<trkpt lat="33.8103367" lon="-118.3942778">
  <ele>-0.108</ele>
  <time>2026-09-02T22:07:27Z</time>
  <course>8.75</course>
  <speed>1.798054504179448</speed>
  <fix>3d</fix>
</trkpt>
<trkpt lat="33.8103368" lon="-118.394278">
  <ele>-0.108</ele>
  <time>2026-09-02T22:07:27Z</time>
  <course>8.75</course>
  <speed>1.798054504179448</speed>
  <fix>3d</fix>
</trkpt>
<trkpt lat="33.8103368" lon="-118.3942781">
  <ele>-0.108</ele>
  <time>2026-09-02T22:07:27Z</time>
  <course>8.75</course>
  <speed>1.798054504179448</speed>
  <fix>3d</fix>
</trkpt>
<trkpt lat="33.8103368" lon="-118.3942783">
  <ele>-0.108</ele>
  <time>2026-09-02T22:07:27Z</time>
  <course>8.75</course>
  <speed>1.798054504179448</speed>
  <fix>3d</fix>
</trkpt>
<trkpt lat="33.8103368" lon="-118.3942784">
  <ele>-0.108</ele>
  <time>2026-09-02T22:07:27Z</time>
  <course>8.75</course>
  <speed>1.798054504179448</speed>
  <fix>3d</fix>
</trkpt>
<trkpt lat="33.8103368" lon="-118.3942786">
  <ele>-0.108</ele>
  <time>2026-09-02T22:07:27Z</time>
  <course>8.75</course>
  <speed>1.798054504179448</speed>
  <fix>3d</fix>
</trkpt>
<trkpt lat="33.8103368" lon="-118.3942786">
  <ele>-0.108</ele>
  <time>2026-09-02T22:07:27Z</time>
  <course>8.75</course>
  <speed>1.798054504179448</speed>
  <fix>3d</fix>
</trkpt>
<trkpt lat="33.8103366" lon="-118.3942739">
  <ele>-0.1</ele>
  <time>2026-09-02T22:07:27Z</time>
  <course>276.41</course>
  <speed>1.82</speed>
  <fix>3d</fix>
</trkpt>
<trkpt lat="33.8103368" lon="-118.3942787">
  <ele>-0.108</ele>
  <time>2026-09-02T22:07:27Z</time>
  <course>8.75</course>
  <speed>1.798054504179448</speed>
  <fix>3d</fix>
</trkpt>
<trkpt lat="33.8103368" lon="-118.394279">
  <ele>-0.107</ele>
  <time>2026-09-02T22:07:27Z</time>
  <course>8.76</course>
  <speed>1.798054504179448</speed>
  <fix>3d</fix>
</trkpt>
<trkpt lat="33.8103369" lon="-118.3942792">
  <ele>-0.107</ele>
  <time>2026-09-02T22:07:27Z</time>
  <course>8.76</course>
  <speed>1.798054504179448</speed>
  <fix>3d</fix>
</trkpt>
<trkpt lat="33.8103369" lon="-118.3942793">
  <ele>-0.107</ele>
  <time>2026-09-02T22:07:27Z</time>
  <course>8.76</course>
  <speed>1.798054504179448</speed>
  <fix>3d</fix>
</trkpt>
<trkpt lat="33.8103369" lon="-118.3942795">
  <ele>-0.107</ele>
  <time>2026-09-02T22:07:27Z</time>
  <course>8.76</course>
  <speed>1.798054504179448</speed>
  <fix>3d</fix>
</trkpt>
<trkpt lat="33.8103369" lon="-118.3942796">
  <ele>-0.107</ele>
  <time>2026-09-02T22:07:27Z</time>
  <course>8.76</course>
  <speed>1.798054504179448</speed>
  <fix>3d</fix>
</trkpt>
<trkpt lat="33.8103369" lon="-118.3942798">
  <ele>-0.107</ele>
  <time>2026-09-02T22:07:27Z</time>
  <course>8.76</course>
  <speed>1.798054504179448</speed>
  <fix>3d</fix>
</trkpt>
<trkpt lat="33.8103369" lon="-118.39428">
  <ele>-0.107</ele>
  <time>2026-09-02T22:07:27Z</time>
  <course>8.76</course>
  <speed>1.798054504179448</speed>
  <fix>3d</fix>
</trkpt>
<trkpt lat="33.810337" lon="-118.3942801">
  <ele>-0.107</ele>
  <time>2026-09-02T22:07:27Z</time>
  <course>8.76</course>
  <speed>1.798054504179448</speed>
  <fix>3d</fix>
</trkpt>
<trkpt lat="33.810337" lon="-118.3942803">
  <ele>-0.107</ele>
  <time>2026-09-02T22:07:27Z</time>
  <course>8.76</course>
  <speed>1.798054504179448</speed>
  <fix>3d</fix>
</trkpt>
<trkpt lat="33.810337" lon="-118.3942804">
  <ele>-0.107</ele>
  <time>2026-09-02T22:07:27Z</time>
  <course>8.76</course>
  <speed>1.798054504179448</speed>
  <fix>3d</fix>
</trkpt>
<trkpt lat="33.810337" lon="-118.3942806">
  <ele>-0.108</ele>
  <time>2026-09-02T22:07:27Z</time>
  <course>8.77</course>
  <speed>1.798054504179448</speed>
  <fix>3d</fix>
</trkpt>
<trkpt lat="33.810337" lon="-118.3942806">
  <ele>-0.108</ele>
  <time>2026-09-02T22:07:27Z</time>
  <course>8.77</course>
  <speed>1.798054504179448</speed>
  <fix>3d</fix>
</trkpt>
<trkpt lat="33.810337" lon="-118.3942778">
  <ele>-0.1</ele>
  <time>2026-09-02T22:07:27Z</time>
  <course>276.43</course>
  <speed>1.82</speed>
  <fix>3d</fix>
</trkpt>
<trkpt lat="33.810337" lon="-118.3942809">
  <ele>-0.108</ele>
  <time>2026-09-02T22:07:27Z</time>
  <course>8.77</course>
  <speed>1.798054504179448</speed>
  <fix>3d</fix>
</trkpt>
<trkpt lat="33.810337" lon="-118.3942811">
  <ele>-0.108</ele>
  <time>2026-09-02T22:07:27Z</time>
  <course>8.77</course>
  <speed>1.798054504179448</speed>
  <fix>3d</fix>
</trkpt>
<trkpt lat="33.8103371" lon="-118.3942813">
  <ele>-0.108</ele>
  <time>2026-09-02T22:07:27Z</time>
  <course>8.77</course>
  <speed>1.798054504179448</speed>
  <fix>3d</fix>
</trkpt>
<trkpt lat="33.8103371" lon="-118.3942815">
  <ele>-0.108</ele>
  <time>2026-09-02T22:07:27Z</time>
  <course>8.77</course>
  <speed>1.798054504179448</speed>
  <fix>3d</fix>
</trkpt>
<trkpt lat="33.8103371" lon="-118.3942816">
  <ele>-0.108</ele>
  <time>2026-09-02T22:07:27Z</time>
  <course>8.77</course>
  <speed>1.798054504179448</speed>
  <fix>3d</fix>
</trkpt>
<trkpt lat="33.8103371" lon="-118.3942818">
  <ele>-0.108</ele>
  <time>2026-09-02T22:07:27Z</time>
  <course>8.77</course>
  <speed>1.798054504179448</speed>
  <fix>3d</fix>
</trkpt>
<trkpt lat="33.8103371" lon="-118.3942819">
  <ele>-0.108</ele>
  <time>2026-09-02T22:07:27Z</time>
  <course>8.77</course>
  <speed>1.798054504179448</speed>
  <fix>3d</fix>
</trkpt>
<trkpt lat="33.8103371" lon="-118.3942821">
  <ele>-0.108</ele>
  <time>2026-09-02T22:07:27Z</time>
  <course>8.77</course>
  <speed>1.798054504179448</speed>
  <fix>3d</fix>
</trkpt>
<trkpt lat="33.8103372" lon="-118.3942823">
  <ele>-0.108</ele>
  <time>2026-09-02T22:07:27Z</time>
  <course>8.77</course>
  <speed>1.798054504179448</speed>
  <fix>3d</fix>
</trkpt>
<trkpt lat="33.8103372" lon="-118.3942825">
  <ele>-0.108</ele>
  <time>2026-09-02T22:07:27Z</time>
  <course>8.78</course>
  <speed>1.798054504179448</speed>
  <fix>3d</fix>
</trkpt>
<trkpt lat="33.8103372" lon="-118.3942825">
  <ele>-0.108</ele>
  <time>2026-09-02T22:07:27Z</time>
  <course>8.78</course>
  <speed>1.798054504179448</speed>
  <fix>3d</fix>
</trkpt>
<trkpt lat="33.810337" lon="-118.3942778">
  <ele>-0.1</ele>
  <time>2026-09-02T22:07:27Z</time>
  <course>276.43</course>
  <speed>1.82</speed>
  <fix>3d</fix>
</trkpt>
<trkpt lat="33.8103372" lon="-118.3942826">
  <ele>-0.108</ele>
  <time>2026-09-02T22:07:27Z</time>
  <course>8.78</course>
  <speed>1.798054504179448</speed>
  <fix>3d</fix>
</trkpt>
<trkpt lat="33.8103372" lon="-118.3942829">
  <ele>-0.108</ele>
  <time>2026-09-02T22:07:27Z</time>
  <course>8.78</course>
  <speed>1.798054504179448</speed>
  <fix>3d</fix>
</trkpt>
<trkpt lat="33.8103372" lon="-118.394283">
  <ele>-0.109</ele>
  <time>2026-09-02T22:07:27Z</time>
  <course>8.78</course>
  <speed>1.798054504179448</speed>
  <fix>3d</fix>
</trkpt>
<trkpt lat="33.8103372" lon="-118.3942832">
  <ele>-0.109</ele>
  <time>2026-09-02T22:07:27Z</time>
  <course>8.78</course>
  <speed>1.7880995498014085</speed>
  <fix>3d</fix>
</trkpt>
<trkpt lat="33.8103373" lon="-118.3942833">
  <ele>-0.109</ele>
  <time>2026-09-02T22:07:27Z</time>
  <course>8.78</course>
  <speed>1.7880995498014085</speed>
  <fix>3d</fix>
</trkpt>
<trkpt lat="33.8103373" lon="-118.3942835">
  <ele>-0.109</ele>
  <time>2026-09-02T22:07:27Z</time>
  <course>8.78</course>
  <speed>1.798054504179448</speed>
  <fix>3d</fix>
</trkpt>
<trkpt lat="33.8103373" lon="-118.3942836">
  <ele>-0.109</ele>
  <time>2026-09-02T22:07:27Z</time>
  <course>8.78</course>
  <speed>1.7880995498014085</speed>
  <fix>3d</fix>
</trkpt>
<trkpt lat="33.8103373" lon="-118.3942838">
  <ele>-0.109</ele>
  <time>2026-09-02T22:07:27Z</time>
  <course>8.78</course>
  <speed>1.798054504179448</speed>
  <fix>3d</fix>
</trkpt>
<trkpt lat="33.8103373" lon="-118.3942839">
  <ele>-0.109</ele>
  <time>2026-09-02T22:07:27Z</time>
  <course>8.78</course>
  <speed>1.798054504179448</speed>
  <fix>3d</fix>
</trkpt>
<trkpt lat="33.8103373" lon="-118.3942842">
  <ele>-0.109</ele>
  <time>2026-09-02T22:07:27Z</time>
  <course>8.78</course>
  <speed>1.798054504179448</speed>
  <fix>3d</fix>
</trkpt>
<trkpt lat="33.8103374" lon="-118.3942844">
  <ele>-0.109</ele>
  <time>2026-09-02T22:07:27Z</time>
  <course>8.79</course>
  <speed>1.7880995498014085</speed>
  <fix>3d</fix>
</trkpt>
<trkpt lat="33.8103374" lon="-118.3942845">
  <ele>-0.109</ele>
  <time>2026-09-02T22:07:27Z</time>
  <course>8.79</course>
  <speed>1.798054504179448</speed>
  <fix>3d</fix>
</trkpt>
<trkpt lat="33.8103373" lon="-118.3942817">
  <ele>-0.1</ele>
  <time>2026-09-02T22:07:27Z</time>
  <course>276.46</course>
  <speed>1.82</speed>
  <fix>3d</fix>
</trkpt>
<trkpt lat="33.8103374" lon="-118.3942845">
  <ele>-0.109</ele>
  <time>2026-09-02T22:07:27Z</time>
  <course>8.79</course>
  <speed>1.798054504179448</speed>
  <fix>3d</fix>
</trkpt>
<trkpt lat="33.8103374" lon="-118.3942848">
  <ele>-0.109</ele>
  <time>2026-09-02T22:07:27Z</time>
  <course>8.79</course>
  <speed>1.7880995498014085</speed>
  <fix>3d</fix>
</trkpt>
<trkpt lat="33.8103374" lon="-118.394285">
  <ele>-0.109</ele>
  <time>2026-09-02T22:07:27Z</time>
  <course>8.79</course>
  <speed>1.7880995498014085</speed>
  <fix>3d</fix>
</trkpt>
<trkpt lat="33.8103374" lon="-118.3942851">
  <ele>-0.109</ele>
  <time>2026-09-02T22:07:27Z</time>
  <course>8.79</course>
  <speed>1.7880995498014085</speed>
  <fix>3d</fix>
</trkpt>
<trkpt lat="33.8103374" lon="-118.3942853">
  <ele>-0.109</ele>
  <time>2026-09-02T22:07:27Z</time>
  <course>8.79</course>
  <speed>1.7880995498014085</speed>
  <fix>3d</fix>
</trkpt>
<trkpt lat="33.8103375" lon="-118.3942854">
  <ele>-0.109</ele>
  <time>2026-09-02T22:07:27Z</time>
  <course>8.79</course>
  <speed>1.7880995498014085</speed>
  <fix>3d</fix>
</trkpt>
<trkpt lat="33.8103375" lon="-118.3942856">
  <ele>-0.109</ele>
  <time>2026-09-02T22:07:27Z</time>
  <course>8.79</course>
  <speed>1.7880995498014085</speed>
  <fix>3d</fix>
</trkpt>
<trkpt lat="33.8103375" lon="-118.3942857">
  <ele>-0.109</ele>
  <time>2026-09-02T22:07:27Z</time>
  <course>8.79</course>
  <speed>1.7880995498014085</speed>
  <fix>3d</fix>
</trkpt>
<trkpt lat="33.8103375" lon="-118.3942858">
  <ele>-0.109</ele>
  <time>2026-09-02T22:07:27Z</time>
  <course>8.79</course>
  <speed>1.7880995498014085</speed>
  <fix>3d</fix>
</trkpt>
<trkpt lat="33.8103375" lon="-118.394286">
  <ele>-0.109</ele>
  <time>2026-09-02T22:07:27Z</time>
  <course>8.79</course>
  <speed>1.7880995498014085</speed>
  <fix>3d</fix>
</trkpt>
<trkpt lat="33.8103375" lon="-118.3942861">
  <ele>-0.109</ele>
  <time>2026-09-02T22:07:27Z</time>
  <course>8.79</course>
  <speed>1.7880995498014085</speed>
  <fix>3d</fix>
</trkpt>
<trkpt lat="33.8103375" lon="-118.3942863">
  <ele>-0.109</ele>
  <time>2026-09-02T22:07:27Z</time>
  <course>8.8</course>
  <speed>1.7880995498014085</speed>
  <fix>3d</fix>
</trkpt>
<trkpt lat="33.8103375" lon="-118.3942864">
  <ele>-0.109</ele>
  <time>2026-09-02T22:07:27Z</time>
  <course>8.8</course>
  <speed>1.7880995498014085</speed>
  <fix>3d</fix>
</trkpt>
<trkpt lat="33.8103375" lon="-118.3942864">
  <ele>-0.109</ele>
  <time>2026-09-02T22:07:27Z</time>
  <course>8.8</course>
  <speed>1.7880995498014085</speed>
  <fix>3d</fix>
</trkpt>
<trkpt lat="33.8103373" lon="-118.3942817">
  <ele>-0.1</ele>
  <time>2026-09-02T22:07:27Z</time>
  <course>276.46</course>
  <speed>1.82</speed>
  <fix>3d</fix>
</trkpt>
<trkpt lat="33.8103376" lon="-118.3942867">
  <ele>-0.109</ele>
  <time>2026-09-02T22:07:27Z</time>
  <course>8.8</course>
  <speed>1.7880995498014085</speed>
  <fix>3d</fix>
</trkpt>
<trkpt lat="33.8103376" lon="-118.3942869">
  <ele>-0.109</ele>
  <time>2026-09-02T22:07:27Z</time>
  <course>8.8</course>
  <speed>1.7880995498014085</speed>
  <fix>3d</fix>
</trkpt>
<trkpt lat="33.8103376" lon="-118.3942871">
  <ele>-0.109</ele>
  <time>2026-09-02T22:07:27Z</time>
  <course>8.8</course>
  <speed>1.7880995498014085</speed>
  <fix>3d</fix>
</trkpt>
<trkpt lat="33.8103376" lon="-118.3942872">
  <ele>-0.109</ele>
  <time>2026-09-02T22:07:27Z</time>
  <course>8.8</course>
  <speed>1.7880995498014085</speed>
  <fix>3d</fix>
</trkpt>
<trkpt lat="33.8103376" lon="-118.3942874">
  <ele>-0.109</ele>
  <time>2026-09-02T22:07:27Z</time>
  <course>8.8</course>
  <speed>1.7880995498014085</speed>
  <fix>3d</fix>
</trkpt>
<trkpt lat="33.8103376" lon="-118.3942875">
  <ele>-0.109</ele>
  <time>2026-09-02T22:07:27Z</time>
  <course>8.8</course>
  <speed>1.7880995498014085</speed>
  <fix>3d</fix>
</trkpt>
<trkpt lat="33.8103377" lon="-118.3942877">
  <ele>-0.109</ele>
  <time>2026-09-02T22:07:27Z</time>
  <course>8.8</course>
  <speed>1.7880995498014085</speed>
  <fix>3d</fix>
</trkpt>
<trkpt lat="33.8103377" lon="-118.3942878">
  <ele>-0.109</ele>
  <time>2026-09-02T22:07:27Z</time>
  <course>8.8</course>
  <speed>1.7880995498014085</speed>
  <fix>3d</fix>
</trkpt>
<trkpt lat="33.8103377" lon="-118.3942879">
  <ele>-0.109</ele>
  <time>2026-09-02T22:07:27Z</time>
  <course>8.8</course>
  <speed>1.7880995498014085</speed>
  <fix>3d</fix>
</trkpt>
<trkpt lat="33.8103377" lon="-118.3942881">
  <ele>-0.109</ele>
  <time>2026-09-02T22:07:27Z</time>
  <course>8.81</course>
  <speed>1.7890779748239034</speed>
  <fix>3d</fix>
</trkpt>
<trkpt lat="33.8103377" lon="-118.3942882">
  <ele>-0.109</ele>
  <time>2026-09-02T22:07:27Z</time>
  <course>8.81</course>
  <speed>1.7880995498014085</speed>
  <fix>3d</fix>
</trkpt>
<trkpt lat="33.8103377" lon="-118.3942884">
  <ele>-0.109</ele>
  <time>2026-09-02T22:07:27Z</time>
  <course>8.81</course>
  <speed>1.7890779748239034</speed>
  <fix>3d</fix>
</trkpt>
<trkpt lat="33.8103377" lon="-118.3942884">
  <ele>-0.109</ele>
  <time>2026-09-02T22:07:27Z</time>
  <course>8.81</course>
  <speed>1.7890779748239034</speed>
  <fix>3d</fix>
</trkpt>
<trkpt lat="33.8103377" lon="-118.3942857">
  <ele>-0.1</ele>
  <time>2026-09-02T22:07:27Z</time>
  <course>276.48</course>
  <speed>1.82</speed>
  <fix>3d</fix>
</trkpt>
<trkpt lat="33.8103378" lon="-118.3942886">
  <ele>-0.109</ele>
  <time>2026-09-02T22:07:27Z</time>
  <course>8.81</course>
  <speed>1.7890779748239034</speed>
  <fix>3d</fix>
</trkpt>
<trkpt lat="33.8103378" lon="-118.3942888">
  <ele>-0.109</ele>
  <time>2026-09-02T22:07:27Z</time>
  <course>8.81</course>
  <speed>1.7890779748239034</speed>
  <fix>3d</fix>
</trkpt>
<trkpt lat="33.8103378" lon="-118.394289">
  <ele>-0.109</ele>
  <time>2026-09-02T22:07:27Z</time>
  <course>8.81</course>
  <speed>1.7890779748239034</speed>
  <fix>3d</fix>
</trkpt>
<trkpt lat="33.8103378" lon="-118.3942892">
  <ele>-0.109</ele>
  <time>2026-09-02T22:07:27Z</time>
  <course>8.81</course>
  <speed>1.7890779748239034</speed>
  <fix>3d</fix>
</trkpt>
<trkpt lat="33.8103378" lon="-118.3942893">
  <ele>-0.109</ele>
  <time>2026-09-02T22:07:27Z</time>
  <course>8.81</course>
  <speed>1.7890779748239034</speed>
  <fix>3d</fix>
</trkpt>
<trkpt lat="33.8103378" lon="-118.3942895">
  <ele>-0.109</ele>
  <time>2026-09-02T22:07:27Z</time>
  <course>8.81</course>
  <speed>1.7890779748239034</speed>
  <fix>3d</fix>
</trkpt>
<trkpt lat="33.8103378" lon="-118.3942896">
  <ele>-0.109</ele>
  <time>2026-09-02T22:07:27Z</time>
  <course>8.81</course>
  <speed>1.7890779748239034</speed>
  <fix>3d</fix>
</trkpt>
<trkpt lat="33.8103379" lon="-118.3942898">
  <ele>-0.109</ele>
  <time>2026-09-02T22:07:27Z</time>
  <course>8.81</course>
  <speed>1.7890779748239034</speed>
  <fix>3d</fix>
</trkpt>
<trkpt lat="33.8103379" lon="-118.39429">
  <ele>-0.108</ele>
  <time>2026-09-02T22:07:27Z</time>
  <course>8.82</course>
  <speed>1.7890779748239034</speed>
  <fix>3d</fix>
</trkpt>
<trkpt lat="33.8103379" lon="-118.3942901">
  <ele>-0.108</ele>
  <time>2026-09-02T22:07:27Z</time>
  <course>8.82</course>
  <speed>1.7890779748239034</speed>
  <fix>3d</fix>
</trkpt>
<trkpt lat="33.8103379" lon="-118.3942903">
  <ele>-0.108</ele>
  <time>2026-09-02T22:07:27Z</time>
  <course>8.82</course>
  <speed>1.7890779748239034</speed>
  <fix>3d</fix>
</trkpt>
<trkpt lat="33.8103379" lon="-118.3942904">
  <ele>-0.108</ele>
  <time>2026-09-02T22:07:27Z</time>
  <course>8.82</course>
  <speed>1.7890779748239034</speed>
  <fix>3d</fix>
</trkpt>
<trkpt lat="33.8103377" lon="-118.3942857">
  <ele>-0.1</ele>
  <time>2026-09-02T22:07:27Z</time>
  <course>276.48</course>
  <speed>1.82</speed>
  <fix>3d</fix>
</trkpt>
<trkpt lat="33.8103379" lon="-118.3942904">
  <ele>-0.108</ele>
  <time>2026-09-02T22:07:27Z</time>
  <course>8.82</course>
  <speed>1.7890779748239034</speed>
  <fix>3d</fix>
</trkpt>
<trkpt lat="33.8103379" lon="-118.3942906">
  <ele>-0.108</ele>
  <time>2026-09-02T22:07:27Z</time>
  <course>8.82</course>
  <speed>1.7890779748239034</speed>
  <fix>3d</fix>
</trkpt>
<trkpt lat="33.810338" lon="-118.3942908">
  <ele>-0.108</ele>
  <time>2026-09-02T22:07:27Z</time>
  <course>8.82</course>
  <speed>1.7890779748239034</speed>
  <fix>3d</fix>
</trkpt>
<trkpt lat="33.810338" lon="-118.394291">
  <ele>-0.108</ele>
  <time>2026-09-02T22:07:27Z</time>
  <course>8.82</course>
  <speed>1.7890779748239034</speed>
  <fix>3d</fix>
</trkpt>
<trkpt lat="33.810338" lon="-118.3942911">
  <ele>-0.108</ele>
  <time>2026-09-02T22:07:27Z</time>
  <course>8.82</course>
  <speed>1.7890779748239034</speed>
  <fix>3d</fix>
</trkpt>
<trkpt lat="33.810338" lon="-118.3942913">
  <ele>-0.107</ele>
  <time>2026-09-02T22:07:27Z</time>
  <course>8.82</course>
  <speed>1.7890779748239034</speed>
  <fix>3d</fix>
</trkpt>
<trkpt lat="33.810338" lon="-118.3942914">
  <ele>-0.108</ele>
  <time>2026-09-02T22:07:27Z</time>
  <course>8.82</course>
  <speed>1.7890779748239034</speed>
  <fix>3d</fix>
</trkpt>
<trkpt lat="33.810338" lon="-118.3942917">
  <ele>-0.107</ele>
  <time>2026-09-02T22:07:27Z</time>
  <course>8.82</course>
  <speed>1.7890779748239034</speed>
  <fix>3d</fix>
</trkpt>
<trkpt lat="33.8103381" lon="-118.3942919">
  <ele>-0.107</ele>
  <time>2026-09-02T22:07:27Z</time>
  <course>8.83</course>
  <speed>1.7890779748239034</speed>
  <fix>3d</fix>
</trkpt>
<trkpt lat="33.8103381" lon="-118.3942921">
  <ele>-0.107</ele>
  <time>2026-09-02T22:07:27Z</time>
  <course>8.83</course>
  <speed>1.7890779748239034</speed>
  <fix>3d</fix>
</trkpt>
<trkpt lat="33.8103381" lon="-118.3942923">
  <ele>-0.107</ele>
  <time>2026-09-02T22:07:27Z</time>
  <course>8.83</course>
  <speed>1.7890779748239034</speed>
  <fix>3d</fix>
</trkpt>
<trkpt lat="33.8103381" lon="-118.3942923">
  <ele>-0.107</ele>
  <time>2026-09-02T22:07:27Z</time>
  <course>8.83</course>
  <speed>1.7890779748239034</speed>
  <fix>3d</fix>
</trkpt>
<trkpt lat="33.810338" lon="-118.3942896">
  <ele>-0.1</ele>
  <time>2026-09-02T22:07:27Z</time>
  <course>276.51</course>
  <speed>1.82</speed>
  <fix>3d</fix>
</trkpt>
<trkpt lat="33.8103381" lon="-118.3942924">
  <ele>-0.107</ele>
  <time>2026-09-02T22:07:27Z</time>
  <course>8.83</course>
  <speed>1.7890779748239034</speed>
  <fix>3d</fix>
</trkpt>
<trkpt lat="33.8103381" lon="-118.3942927">
  <ele>-0.107</ele>
  <time>2026-09-02T22:07:27Z</time>
  <course>8.83</course>
  <speed>1.7890779748239034</speed>
  <fix>3d</fix>
</trkpt>
<trkpt lat="33.8103382" lon="-118.3942929">
  <ele>-0.107</ele>
  <time>2026-09-02T22:07:27Z</time>
  <course>8.83</course>
  <speed>1.7890779748239034</speed>
  <fix>3d</fix>
</trkpt>
<trkpt lat="33.8103382" lon="-118.3942931">
  <ele>-0.107</ele>
  <time>2026-09-02T22:07:27Z</time>
  <course>8.83</course>
  <speed>1.7890779748239034</speed>
  <fix>3d</fix>
</trkpt>
<trkpt lat="33.8103382" lon="-118.3942932">
  <ele>-0.106</ele>
  <time>2026-09-02T22:07:27Z</time>
  <course>8.83</course>
  <speed>1.7890779748239034</speed>
  <fix>3d</fix>
</trkpt>
<trkpt lat="33.8103382" lon="-118.3942934">
  <ele>-0.106</ele>
  <time>2026-09-02T22:07:27Z</time>
  <course>8.83</course>
  <speed>1.7890779748239034</speed>
  <fix>3d</fix>
</trkpt>
<trkpt lat="33.8103382" lon="-118.3942935">
  <ele>-0.106</ele>
  <time>2026-09-02T22:07:27Z</time>
  <course>8.83</course>
  <speed>1.7890779748239034</speed>
  <fix>3d</fix>
</trkpt>
<trkpt lat="33.8103382" lon="-118.3942937">
  <ele>-0.106</ele>
  <time>2026-09-02T22:07:27Z</time>
  <course>8.83</course>
  <speed>1.7890779748239034</speed>
  <fix>3d</fix>
</trkpt>
<trkpt lat="33.8103382" lon="-118.3942939">
  <ele>-0.106</ele>
  <time>2026-09-02T22:07:27Z</time>
  <course>8.84</course>
  <speed>1.7890779748239034</speed>
  <fix>3d</fix>
</trkpt>
<trkpt lat="33.8103383" lon="-118.3942941">
  <ele>-0.106</ele>
  <time>2026-09-02T22:07:27Z</time>
  <course>8.84</course>
  <speed>1.7890779748239034</speed>
  <fix>3d</fix>
</trkpt>
<trkpt lat="33.8103383" lon="-118.3942943">
  <ele>-0.106</ele>
  <time>2026-09-02T22:07:27Z</time>
  <course>8.84</course>
  <speed>1.7890779748239034</speed>
  <fix>3d</fix>
</trkpt>
<trkpt lat="33.8103383" lon="-118.3942943">
  <ele>-0.106</ele>
  <time>2026-09-02T22:07:27Z</time>
  <course>8.84</course>
  <speed>1.7890779748239034</speed>
  <fix>3d</fix>
</trkpt>
<trkpt lat="33.810338" lon="-118.3942896">
  <ele>-0.1</ele>
  <time>2026-09-02T22:07:27Z</time>
  <course>276.51</course>
  <speed>1.82</speed>
  <fix>3d</fix>
</trkpt>
<trkpt lat="33.8103383" lon="-118.3942947">
  <ele>-0.106</ele>
  <time>2026-09-02T22:07:27Z</time>
  <course>8.84</course>
  <speed>1.7890779748239034</speed>
  <fix>3d</fix>
</trkpt>
<trkpt lat="33.8103383" lon="-118.3942949">
  <ele>-0.106</ele>
  <time>2026-09-02T22:07:27Z</time>
  <course>8.84</course>
  <speed>1.7890779748239034</speed>
  <fix>3d</fix>
</trkpt>
<trkpt lat="33.8103383" lon="-118.3942951">
  <ele>-0.106</ele>
  <time>2026-09-02T22:07:27Z</time>
  <course>8.84</course>
  <speed>1.7890779748239034</speed>
  <fix>3d</fix>
</trkpt>
<trkpt lat="33.8103384" lon="-118.3942952">
  <ele>-0.106</ele>
  <time>2026-09-02T22:07:27Z</time>
  <course>8.84</course>
  <speed>1.7890779748239034</speed>
  <fix>3d</fix>
</trkpt>
<trkpt lat="33.8103384" lon="-118.3942953">
  <ele>-0.106</ele>
  <time>2026-09-02T22:07:27Z</time>
  <course>8.84</course>
  <speed>1.7890779748239034</speed>
  <fix>3d</fix>
</trkpt>
<trkpt lat="33.8103384" lon="-118.3942954">
  <ele>-0.106</ele>
  <time>2026-09-02T22:07:27Z</time>
  <course>8.84</course>
  <speed>1.7890779748239034</speed>
  <fix>3d</fix>
</trkpt>
<trkpt lat="33.8103384" lon="-118.3942956">
  <ele>-0.106</ele>
  <time>2026-09-02T22:07:27Z</time>
  <course>8.84</course>
  <speed>1.7890779748239034</speed>
  <fix>3d</fix>
</trkpt>
<trkpt lat="33.8103384" lon="-118.3942958">
  <ele>-0.106</ele>
  <time>2026-09-02T22:07:27Z</time>
  <course>8.85</course>
  <speed>1.7890779748239034</speed>
  <fix>3d</fix>
</trkpt>
<trkpt lat="33.8103384" lon="-118.394296">
  <ele>-0.106</ele>
  <time>2026-09-02T22:07:27Z</time>
  <course>8.85</course>
  <speed>1.7890779748239034</speed>
  <fix>3d</fix>
</trkpt>
<trkpt lat="33.8103385" lon="-118.3942962">
  <ele>-0.106</ele>
  <time>2026-09-02T22:07:27Z</time>
  <course>8.85</course>
  <speed>1.7890779748239034</speed>
  <fix>3d</fix>
</trkpt>
<trkpt lat="33.8103385" lon="-118.3942962">
  <ele>-0.106</ele>
  <time>2026-09-02T22:07:27Z</time>
  <course>8.85</course>
  <speed>1.7890779748239034</speed>
  <fix>3d</fix>
</trkpt>
<trkpt lat="33.8103385" lon="-118.3942935">
  <ele>-0.1</ele>
  <time>2026-09-02T22:07:27Z</time>
  <course>276.53</course>
  <speed>1.82</speed>
  <fix>3d</fix>
</trkpt>
<trkpt lat="33.8103385" lon="-118.3942963">
  <ele>-0.106</ele>
  <time>2026-09-02T22:07:27Z</time>
  <course>8.85</course>
  <speed>1.7890779748239034</speed>
  <fix>3d</fix>
</trkpt>
<trkpt lat="33.8103385" lon="-118.3942965">
  <ele>-0.107</ele>
  <time>2026-09-02T22:07:27Z</time>
  <course>8.85</course>
  <speed>1.7890779748239034</speed>
  <fix>3d</fix>
</trkpt>
<trkpt lat="33.8103385" lon="-118.3942967">
  <ele>-0.107</ele>
  <time>2026-09-02T22:07:27Z</time>
  <course>8.85</course>
  <speed>1.7890779748239034</speed>
  <fix>3d</fix>
</trkpt>
<trkpt lat="33.8103385" lon="-118.3942968">
  <ele>-0.107</ele>
  <time>2026-09-02T22:07:27Z</time>
  <course>8.85</course>
  <speed>1.7890779748239034</speed>
  <fix>3d</fix>
</trkpt>
<trkpt lat="33.8103385" lon="-118.394297">
  <ele>-0.107</ele>
  <time>2026-09-02T22:07:27Z</time>
  <course>8.85</course>
  <speed>1.7890779748239034</speed>
  <fix>3d</fix>
</trkpt>
<trkpt lat="33.8103386" lon="-118.3942972">
  <ele>-0.107</ele>
  <time>2026-09-02T22:07:27Z</time>
  <course>8.85</course>
  <speed>1.7890779748239034</speed>
  <fix>3d</fix>
</trkpt>
<trkpt lat="33.8103386" lon="-118.3942973">
  <ele>-0.107</ele>
  <time>2026-09-02T22:07:27Z</time>
  <course>8.85</course>
  <speed>1.7890779748239034</speed>
  <fix>3d</fix>
</trkpt>
<trkpt lat="33.8103386" lon="-118.3942975">
  <ele>-0.107</ele>
  <time>2026-09-02T22:07:27Z</time>
  <course>8.85</course>
  <speed>1.7890779748239034</speed>
  <fix>3d</fix>
</trkpt>
<trkpt lat="33.8103386" lon="-118.3942977">
  <ele>-0.107</ele>
  <time>2026-09-02T22:07:27Z</time>
  <course>8.86</course>
  <speed>1.7890779748239034</speed>
  <fix>3d</fix>
</trkpt>
<trkpt lat="33.8103386" lon="-118.3942979">
  <ele>-0.107</ele>
  <time>2026-09-02T22:07:27Z</time>
  <course>8.86</course>
  <speed>1.7890779748239034</speed>
  <fix>3d</fix>
</trkpt>
<trkpt lat="33.8103386" lon="-118.394298">
  <ele>-0.107</ele>
  <time>2026-09-02T22:07:27Z</time>
  <course>8.86</course>
  <speed>1.7890779748239034</speed>
  <fix>3d</fix>
</trkpt>
<trkpt lat="33.8103386" lon="-118.3942982">
  <ele>-0.107</ele>
  <time>2026-09-02T22:07:27Z</time>
  <course>8.86</course>
  <speed>1.7890779748239034</speed>
  <fix>3d</fix>
</trkpt>
<trkpt lat="33.8103385" lon="-118.3942935">
  <ele>-0.1</ele>
  <time>2026-09-02T22:07:27Z</time>
  <course>276.53</course>
  <speed>1.82</speed>
  <fix>3d</fix>
</trkpt>
<trkpt lat="33.8103387" lon="-118.3942982">
  <ele>-0.107</ele>
  <time>2026-09-02T22:07:27Z</time>
  <course>8.86</course>
  <speed>1.7890779748239034</speed>
  <fix>3d</fix>
</trkpt>
<trkpt lat="33.8103387" lon="-118.3942985">
  <ele>-0.107</ele>
  <time>2026-09-02T22:07:27Z</time>
  <course>8.86</course>
  <speed>1.7890779748239034</speed>
  <fix>3d</fix>
</trkpt>
<trkpt lat="33.8103387" lon="-118.3942987">
  <ele>-0.107</ele>
  <time>2026-09-02T22:07:27Z</time>
  <course>8.86</course>
  <speed>1.7890779748239034</speed>
  <fix>3d</fix>
</trkpt>
<trkpt lat="33.8103387" lon="-118.3942989">
  <ele>-0.107</ele>
  <time>2026-09-02T22:07:27Z</time>
  <course>8.86</course>
  <speed>1.7890779748239034</speed>
  <fix>3d</fix>
</trkpt>
<trkpt lat="33.8103387" lon="-118.394299">
  <ele>-0.107</ele>
  <time>2026-09-02T22:07:27Z</time>
  <course>8.86</course>
  <speed>1.7890779748239034</speed>
  <fix>3d</fix>
</trkpt>
<trkpt lat="33.8103387" lon="-118.3942992">
  <ele>-0.107</ele>
  <time>2026-09-02T22:07:27Z</time>
  <course>8.86</course>
  <speed>1.7890779748239034</speed>
  <fix>3d</fix>
</trkpt>
<trkpt lat="33.8103388" lon="-118.3942993">
  <ele>-0.107</ele>
  <time>2026-09-02T22:07:27Z</time>
  <course>8.86</course>
  <speed>1.7890779748239034</speed>
  <fix>3d</fix>
</trkpt>
<trkpt lat="33.8103388" lon="-118.3942995">
  <ele>-0.107</ele>
  <time>2026-09-02T22:07:27Z</time>
  <course>8.86</course>
  <speed>1.7890779748239034</speed>
  <fix>3d</fix>
</trkpt>
<trkpt lat="33.8103388" lon="-118.3942996">
  <ele>-0.107</ele>
  <time>2026-09-02T22:07:27Z</time>
  <course>8.87</course>
  <speed>1.7890779748239034</speed>
  <fix>3d</fix>
</trkpt>
<trkpt lat="33.8103388" lon="-118.3942998">
  <ele>-0.107</ele>
  <time>2026-09-02T22:07:27Z</time>
  <course>8.87</course>
  <speed>1.7890779748239034</speed>
  <fix>3d</fix>
</trkpt>
<trkpt lat="33.8103388" lon="-118.3942999">
  <ele>-0.107</ele>
  <time>2026-09-02T22:07:27Z</time>
  <course>8.87</course>
  <speed>1.7890779748239034</speed>
  <fix>3d</fix>
</trkpt>
<trkpt lat="33.8103388" lon="-118.3943">
  <ele>-0.107</ele>
  <time>2026-09-02T22:07:27Z</time>
  <course>8.87</course>
  <speed>1.7890779748239034</speed>
  <fix>3d</fix>
</trkpt>
<trkpt lat="33.8103388" lon="-118.3943001">
  <ele>-0.107</ele>
  <time>2026-09-02T22:07:27Z</time>
  <course>8.87</course>
  <speed>1.7890779748239034</speed>
  <fix>3d</fix>
</trkpt>
<trkpt lat="33.8103389" lon="-118.3942974">
  <ele>-0.1</ele>
  <time>2026-09-02T22:07:27Z</time>
  <course>276.56</course>
  <speed>1.82</speed>
  <fix>3d</fix>
</trkpt>
<trkpt lat="33.8103388" lon="-118.3943002">
  <ele>-0.107</ele>
  <time>2026-09-02T22:07:27Z</time>
  <course>8.87</course>
  <speed>1.7890779748239034</speed>
  <fix>3d</fix>
</trkpt>
<trkpt lat="33.8103389" lon="-118.3943004">
  <ele>-0.107</ele>
  <time>2026-09-02T22:07:27Z</time>
  <course>8.87</course>
  <speed>1.7890779748239034</speed>
  <fix>3d</fix>
</trkpt>
<trkpt lat="33.8103389" lon="-118.3943006">
  <ele>-0.107</ele>
  <time>2026-09-02T22:07:27Z</time>
  <course>8.87</course>
  <speed>1.7890779748239034</speed>
  <fix>3d</fix>
</trkpt>
<trkpt lat="33.8103389" lon="-118.3943007">
  <ele>-0.106</ele>
  <time>2026-09-02T22:07:27Z</time>
  <course>8.87</course>
  <speed>1.7890779748239034</speed>
  <fix>3d</fix>
</trkpt>
<trkpt lat="33.8103389" lon="-118.3943009">
  <ele>-0.106</ele>
  <time>2026-09-02T22:07:27Z</time>
  <course>8.87</course>
  <speed>1.7890779748239034</speed>
  <fix>3d</fix>
</trkpt>
<trkpt lat="33.8103389" lon="-118.3943011">
  <ele>-0.106</ele>
  <time>2026-09-02T22:07:27Z</time>
  <course>8.87</course>
  <speed>1.7890779748239034</speed>
  <fix>3d</fix>
</trkpt>
<trkpt lat="33.8103389" lon="-118.3943012">
  <ele>-0.106</ele>
  <time>2026-09-02T22:07:27Z</time>
  <course>8.87</course>
  <speed>1.7890779748239034</speed>
  <fix>3d</fix>
</trkpt>
<trkpt lat="33.810339" lon="-118.3943014">
  <ele>-0.106</ele>
  <time>2026-09-02T22:07:27Z</time>
  <course>8.87</course>
  <speed>1.7890779748239034</speed>
  <fix>3d</fix>
</trkpt>
<trkpt lat="33.810339" lon="-118.3943015">
  <ele>-0.106</ele>
  <time>2026-09-02T22:07:27Z</time>
  <course>8.88</course>
  <speed>1.7890779748239034</speed>
  <fix>3d</fix>
</trkpt>
<trkpt lat="33.810339" lon="-118.3943017">
  <ele>-0.106</ele>
  <time>2026-09-02T22:07:27Z</time>
  <course>8.88</course>
  <speed>1.7890779748239034</speed>
  <fix>3d</fix>
</trkpt>
<trkpt lat="33.810339" lon="-118.3943018">
  <ele>-0.106</ele>
  <time>2026-09-02T22:07:27Z</time>
  <course>8.88</course>
  <speed>1.7890779748239034</speed>
  <fix>3d</fix>
</trkpt>
<trkpt lat="33.810339" lon="-118.394302">
  <ele>-0.106</ele>
  <time>2026-09-02T22:07:27Z</time>
  <course>8.88</course>
  <speed>1.7890779748239034</speed>
  <fix>3d</fix>
</trkpt>
<trkpt lat="33.810339" lon="-118.3943021">
  <ele>-0.106</ele>
  <time>2026-09-02T22:07:27Z</time>
  <course>8.88</course>
  <speed>1.7890779748239034</speed>
  <fix>3d</fix>
</trkpt>
<trkpt lat="33.8103389" lon="-118.3942974">
  <ele>-0.1</ele>
  <time>2026-09-02T22:07:27Z</time>
  <course>276.56</course>
  <speed>1.82</speed>
  <fix>3d</fix>
</trkpt>
<trkpt lat="33.810339" lon="-118.3943022">
  <ele>-0.106</ele>
  <time>2026-09-02T22:07:27Z</time>
  <course>8.88</course>
  <speed>1.7890779748239034</speed>
  <fix>3d</fix>
</trkpt>
<trkpt lat="33.8103391" lon="-118.3943025">
  <ele>-0.106</ele>
  <time>2026-09-02T22:07:27Z</time>
  <course>8.88</course>
  <speed>1.7890779748239034</speed>
  <fix>3d</fix>
</trkpt>
<trkpt lat="33.8103391" lon="-118.3943027">
  <ele>-0.106</ele>
  <time>2026-09-02T22:07:27Z</time>
  <course>8.88</course>
  <speed>1.7890779748239034</speed>
  <fix>3d</fix>
</trkpt>
<trkpt lat="33.8103391" lon="-118.3943029">
  <ele>-0.106</ele>
  <time>2026-09-02T22:07:27Z</time>
  <course>8.88</course>
  <speed>1.7890779748239034</speed>
  <fix>3d</fix>
</trkpt>
<trkpt lat="33.8103391" lon="-118.394303">
  <ele>-0.106</ele>
  <time>2026-09-02T22:07:27Z</time>
  <course>8.88</course>
  <speed>1.7890779748239034</speed>
  <fix>3d</fix>
</trkpt>
<trkpt lat="33.8103391" lon="-118.3943032">
  <ele>-0.106</ele>
  <time>2026-09-02T22:07:27Z</time>
  <course>8.88</course>
  <speed>1.7890779748239034</speed>
  <fix>3d</fix>
</trkpt>
<trkpt lat="33.8103391" lon="-118.3943034">
  <ele>-0.106</ele>
  <time>2026-09-02T22:07:27Z</time>
  <course>8.88</course>
  <speed>1.7890779748239034</speed>
  <fix>3d</fix>
</trkpt>
<trkpt lat="33.8103392" lon="-118.3943035">
  <ele>-0.106</ele>
  <time>2026-09-02T22:07:27Z</time>
  <course>8.89</course>
  <speed>1.7890779748239034</speed>
  <fix>3d</fix>
</trkpt>
<trkpt lat="33.8103392" lon="-118.3943037">
  <ele>-0.106</ele>
  <time>2026-09-02T22:07:27Z</time>
  <course>8.89</course>
  <speed>1.7890779748239034</speed>
  <fix>3d</fix>
</trkpt>
<trkpt lat="33.8103392" lon="-118.3943038">
  <ele>-0.106</ele>
  <time>2026-09-02T22:07:27Z</time>
  <course>8.89</course>
  <speed>1.7890779748239034</speed>
  <fix>3d</fix>
</trkpt>
<trkpt lat="33.8103392" lon="-118.394304">
  <ele>-0.106</ele>
  <time>2026-09-02T22:07:27Z</time>
  <course>8.89</course>
  <speed>1.7890779748239034</speed>
  <fix>3d</fix>
</trkpt>
<trkpt lat="33.8103392" lon="-118.3943041">
  <ele>-0.106</ele>
  <time>2026-09-02T22:07:27Z</time>
  <course>8.89</course>
  <speed>1.7890779748239034</speed>
  <fix>3d</fix>
</trkpt>
<trkpt lat="33.8103392" lon="-118.3943013">
  <ele>-0.1</ele>
  <time>2026-09-02T22:07:27Z</time>
  <course>276.58</course>
  <speed>1.82</speed>
  <fix>3d</fix>
</trkpt>
<trkpt lat="33.8103392" lon="-118.3943041">
  <ele>-0.105</ele>
  <time>2026-09-02T22:07:27Z</time>
  <course>8.89</course>
  <speed>1.7890779748239034</speed>
  <fix>3d</fix>
</trkpt>
<trkpt lat="33.8103392" lon="-118.3943044">
  <ele>-0.105</ele>
  <time>2026-09-02T22:07:27Z</time>
  <course>8.89</course>
  <speed>1.7890779748239034</speed>
  <fix>3d</fix>
</trkpt>
<trkpt lat="33.8103393" lon="-118.3943046">
  <ele>-0.105</ele>
  <time>2026-09-02T22:07:27Z</time>
  <course>8.89</course>
  <speed>1.7890779748239034</speed>
  <fix>3d</fix>
</trkpt>
<trkpt lat="33.8103393" lon="-118.3943048">
  <ele>-0.105</ele>
  <time>2026-09-02T22:07:27Z</time>
  <course>8.89</course>
  <speed>1.7890779748239034</speed>
  <fix>3d</fix>
</trkpt>
<trkpt lat="33.8103393" lon="-118.394305">
  <ele>-0.105</ele>
  <time>2026-09-02T22:07:27Z</time>
  <course>8.89</course>
  <speed>1.7890779748239034</speed>
  <fix>3d</fix>
</trkpt>
<trkpt lat="33.8103393" lon="-118.3943051">
  <ele>-0.105</ele>
  <time>2026-09-02T22:07:27Z</time>
  <course>8.89</course>
  <speed>1.7890779748239034</speed>
  <fix>3d</fix>
</trkpt>
<trkpt lat="33.8103393" lon="-118.3943053">
  <ele>-0.105</ele>
  <time>2026-09-02T22:07:27Z</time>
  <course>8.89</course>
  <speed>1.7890779748239034</speed>
  <fix>3d</fix>
</trkpt>
<trkpt lat="33.8103394" lon="-118.3943055">
  <ele>-0.106</ele>
  <time>2026-09-02T22:07:27Z</time>
  <course>8.9</course>
  <speed>1.7890779748239034</speed>
  <fix>3d</fix>
</trkpt>
<trkpt lat="33.8103394" lon="-118.3943057">
  <ele>-0.106</ele>
  <time>2026-09-02T22:07:27Z</time>
  <course>8.9</course>
  <speed>1.7890779748239034</speed>
  <fix>3d</fix>
</trkpt>
<trkpt lat="33.8103394" lon="-118.3943059">
  <ele>-0.106</ele>
  <time>2026-09-02T22:07:27Z</time>
  <course>8.9</course>
  <speed>1.7890779748239034</speed>
  <fix>3d</fix>
</trkpt>
<trkpt lat="33.8103394" lon="-118.394306">
  <ele>-0.106</ele>
  <time>2026-09-02T22:07:27Z</time>
  <course>8.9</course>
  <speed>1.7890779748239034</speed>
  <fix>3d</fix>
</trkpt>
<trkpt lat="33.8103394" lon="-118.394306">
  <ele>-0.106</ele>
  <time>2026-09-02T22:07:27Z</time>
  <course>8.9</course>
  <speed>1.7890779748239034</speed>
  <fix>3d</fix>
</trkpt>
<trkpt lat="33.8103392" lon="-118.3943013">
  <ele>-0.1</ele>
  <time>2026-09-02T22:07:27Z</time>
  <course>276.58</course>
  <speed>1.82</speed>
  <fix>3d</fix>
</trkpt>
<trkpt lat="33.8103394" lon="-118.3943063">
  <ele>-0.106</ele>
  <time>2026-09-02T22:07:27Z</time>
  <course>8.9</course>
  <speed>1.7890779748239034</speed>
  <fix>3d</fix>
</trkpt>
<trkpt lat="33.8103395" lon="-118.3943065">
  <ele>-0.106</ele>
  <time>2026-09-02T22:07:27Z</time>
  <course>8.9</course>
  <speed>1.7890779748239034</speed>
  <fix>3d</fix>
</trkpt>
<trkpt lat="33.8103395" lon="-118.3943067">
  <ele>-0.106</ele>
  <time>2026-09-02T22:07:27Z</time>
  <course>8.9</course>
  <speed>1.7890779748239034</speed>
  <fix>3d</fix>
</trkpt>
<trkpt lat="33.8103395" lon="-118.3943069">
  <ele>-0.106</ele>
  <time>2026-09-02T22:07:27Z</time>
  <course>8.9</course>
  <speed>1.7890779748239034</speed>
  <fix>3d</fix>
</trkpt>
<trkpt lat="33.8103395" lon="-118.394307">
  <ele>-0.106</ele>
  <time>2026-09-02T22:07:27Z</time>
  <course>8.9</course>
  <speed>1.7890779748239034</speed>
  <fix>3d</fix>
</trkpt>
<trkpt lat="33.8103395" lon="-118.3943072">
  <ele>-0.106</ele>
  <time>2026-09-02T22:07:27Z</time>
  <course>8.9</course>
  <speed>1.7890779748239034</speed>
  <fix>3d</fix>
</trkpt>
<trkpt lat="33.8103395" lon="-118.3943073">
  <ele>-0.106</ele>
  <time>2026-09-02T22:07:27Z</time>
  <course>8.9</course>
  <speed>1.7890779748239034</speed>
  <fix>3d</fix>
</trkpt>
<trkpt lat="33.8103395" lon="-118.3943075">
  <ele>-0.106</ele>
  <time>2026-09-02T22:07:27Z</time>
  <course>8.91</course>
  <speed>1.7890779748239034</speed>
  <fix>3d</fix>
</trkpt>
<trkpt lat="33.8103396" lon="-118.3943077">
  <ele>-0.107</ele>
  <time>2026-09-02T22:07:27Z</time>
  <course>8.91</course>
  <speed>1.7890779748239034</speed>
  <fix>3d</fix>
</trkpt>
<trkpt lat="33.8103396" lon="-118.3943079">
  <ele>-0.107</ele>
  <time>2026-09-02T22:07:27Z</time>
  <course>8.91</course>
  <speed>1.7890779748239034</speed>
  <fix>3d</fix>
</trkpt>
<trkpt lat="33.8103396" lon="-118.394308">
  <ele>-0.107</ele>
  <time>2026-09-02T22:07:27Z</time>
  <course>8.91</course>
  <speed>1.7890779748239034</speed>
  <fix>3d</fix>
</trkpt>
<trkpt lat="33.8103396" lon="-118.3943052">
  <ele>-0.1</ele>
  <time>2026-09-02T22:07:27Z</time>
  <course>276.6</course>
  <speed>1.82</speed>
  <fix>3d</fix>
</trkpt>
<trkpt lat="33.8103396" lon="-118.394308">
  <ele>-0.107</ele>
  <time>2026-09-02T22:07:27Z</time>
  <course>8.91</course>
  <speed>1.7890779748239034</speed>
  <fix>3d</fix>
</trkpt>
<trkpt lat="33.8103396" lon="-118.3943082">
  <ele>-0.107</ele>
  <time>2026-09-02T22:07:27Z</time>
  <course>8.91</course>
  <speed>1.7890779748239034</speed>
  <fix>3d</fix>
</trkpt>
<trkpt lat="33.8103396" lon="-118.3943084">
  <ele>-0.107</ele>
  <time>2026-09-02T22:07:27Z</time>
  <course>8.91</course>
  <speed>1.7890779748239034</speed>
  <fix>3d</fix>
</trkpt>
<trkpt lat="33.8103397" lon="-118.3943086">
  <ele>-0.107</ele>
  <time>2026-09-02T22:07:27Z</time>
  <course>8.91</course>
  <speed>1.7890779748239034</speed>
  <fix>3d</fix>
</trkpt>
<trkpt lat="33.8103397" lon="-118.3943088">
  <ele>-0.107</ele>
  <time>2026-09-02T22:07:27Z</time>
  <course>8.91</course>
  <speed>1.7890779748239034</speed>
  <fix>3d</fix>
</trkpt>
<trkpt lat="33.8103397" lon="-118.394309">
  <ele>-0.107</ele>
  <time>2026-09-02T22:07:27Z</time>
  <course>8.91</course>
  <speed>1.7890779748239034</speed>
  <fix>3d</fix>
</trkpt>
<trkpt lat="33.8103397" lon="-118.3943091">
  <ele>-0.108</ele>
  <time>2026-09-02T22:07:27Z</time>
  <course>8.91</course>
  <speed>1.7890779748239034</speed>
  <fix>3d</fix>
</trkpt>
<trkpt lat="33.8103397" lon="-118.3943093">
  <ele>-0.108</ele>
  <time>2026-09-02T22:07:27Z</time>
  <course>8.91</course>
  <speed>1.7890779748239034</speed>
  <fix>3d</fix>
</trkpt>
<trkpt lat="33.8103397" lon="-118.3943094">
  <ele>-0.108</ele>
  <time>2026-09-02T22:07:27Z</time>
  <course>8.92</course>
  <speed>1.7890779748239034</speed>
  <fix>3d</fix>
</trkpt>
<trkpt lat="33.8103398" lon="-118.3943096">
  <ele>-0.108</ele>
  <time>2026-09-02T22:07:27Z</time>
  <course>8.92</course>
  <speed>1.7890779748239034</speed>
  <fix>3d</fix>
</trkpt>
<trkpt lat="33.8103398" lon="-118.3943098">
  <ele>-0.108</ele>
  <time>2026-09-02T22:07:27Z</time>
  <course>8.92</course>
  <speed>1.7890779748239034</speed>
  <fix>3d</fix>
</trkpt>
<trkpt lat="33.8103398" lon="-118.3943099">
  <ele>-0.108</ele>
  <time>2026-09-02T22:07:27Z</time>
  <course>8.92</course>
  <speed>1.7890779748239034</speed>
  <fix>3d</fix>
</trkpt>
<trkpt lat="33.8103396" lon="-118.3943052">
  <ele>-0.1</ele>
  <time>2026-09-02T22:07:27Z</time>
  <course>276.6</course>
  <speed>1.82</speed>
  <fix>3d</fix>
</trkpt>
<trkpt lat="33.8103398" lon="-118.39431">
  <ele>-0.108</ele>
  <time>2026-09-02T22:07:27Z</time>
  <course>8.92</course>
  <speed>1.7890779748239034</speed>
  <fix>3d</fix>
</trkpt>
<trkpt lat="33.8103398" lon="-118.3943102">
  <ele>-0.108</ele>
  <time>2026-09-02T22:07:27Z</time>
  <course>8.92</course>
  <speed>1.7890779748239034</speed>
  <fix>3d</fix>
</trkpt>
<trkpt lat="33.8103398" lon="-118.3943104">
  <ele>-0.109</ele>
  <time>2026-09-02T22:07:27Z</time>
  <course>8.92</course>
  <speed>1.7890779748239034</speed>
  <fix>3d</fix>
</trkpt>
<trkpt lat="33.8103398" lon="-118.3943105">
  <ele>-0.109</ele>
  <time>2026-09-02T22:07:27Z</time>
  <course>8.92</course>
  <speed>1.7890779748239034</speed>
  <fix>3d</fix>
</trkpt>
<trkpt lat="33.8103399" lon="-118.3943107">
  <ele>-0.109</ele>
  <time>2026-09-02T22:07:27Z</time>
  <course>8.92</course>
  <speed>1.7890779748239034</speed>
  <fix>3d</fix>
</trkpt>
<trkpt lat="33.8103399" lon="-118.3943109">
  <ele>-0.109</ele>
  <time>2026-09-02T22:07:27Z</time>
  <course>8.92</course>
  <speed>1.7890779748239034</speed>
  <fix>3d</fix>
</trkpt>
<trkpt lat="33.8103399" lon="-118.3943111">
  <ele>-0.109</ele>
  <time>2026-09-02T22:07:27Z</time>
  <course>8.92</course>
  <speed>1.7890779748239034</speed>
  <fix>3d</fix>
</trkpt>
<trkpt lat="33.8103399" lon="-118.3943113">
  <ele>-0.109</ele>
  <time>2026-09-02T22:07:27Z</time>
  <course>8.92</course>
  <speed>1.7890779748239034</speed>
  <fix>3d</fix>
</trkpt>
<trkpt lat="33.8103399" lon="-118.3943115">
  <ele>-0.109</ele>
  <time>2026-09-02T22:07:27Z</time>
  <course>8.93</course>
  <speed>1.7890779748239034</speed>
  <fix>3d</fix>
</trkpt>
<trkpt lat="33.8103399" lon="-118.3943116">
  <ele>-0.109</ele>
  <time>2026-09-02T22:07:27Z</time>
  <course>8.93</course>
  <speed>1.7890779748239034</speed>
  <fix>3d</fix>
</trkpt>
<trkpt lat="33.81034" lon="-118.3943118">
  <ele>-0.109</ele>
  <time>2026-09-02T22:07:27Z</time>
  <course>8.93</course>
  <speed>1.7890779748239034</speed>
  <fix>3d</fix>
</trkpt>
<trkpt lat="33.81034" lon="-118.3943119">
  <ele>-0.109</ele>
  <time>2026-09-02T22:07:27Z</time>
  <course>8.93</course>
  <speed>1.7890779748239034</speed>
  <fix>3d</fix>
</trkpt>
<trkpt lat="33.8103399" lon="-118.3943091">
  <ele>-0.1</ele>
  <time>2026-09-02T22:07:27Z</time>
  <course>276.62</course>
  <speed>1.82</speed>
  <fix>3d</fix>
</trkpt>
<trkpt lat="33.81034" lon="-118.3943119">
  <ele>-0.109</ele>
  <time>2026-09-02T22:07:27Z</time>
  <course>8.93</course>
  <speed>1.7890779748239034</speed>
  <fix>3d</fix>
</trkpt>
<trkpt lat="33.81034" lon="-118.3943123">
  <ele>-0.109</ele>
  <time>2026-09-02T22:07:27Z</time>
  <course>8.93</course>
  <speed>1.7890779748239034</speed>
  <fix>3d</fix>
</trkpt>
<trkpt lat="33.81034" lon="-118.3943125">
  <ele>-0.109</ele>
  <time>2026-09-02T22:07:27Z</time>
  <course>8.93</course>
  <speed>1.7890779748239034</speed>
  <fix>3d</fix>
</trkpt>
<trkpt lat="33.81034" lon="-118.3943126">
  <ele>-0.109</ele>
  <time>2026-09-02T22:07:27Z</time>
  <course>8.93</course>
  <speed>1.7890779748239034</speed>
  <fix>3d</fix>
</trkpt>
<trkpt lat="33.8103401" lon="-118.3943128">
  <ele>-0.109</ele>
  <time>2026-09-02T22:07:27Z</time>
  <course>8.93</course>
  <speed>1.7890779748239034</speed>
  <fix>3d</fix>
</trkpt>
<trkpt lat="33.8103401" lon="-118.3943129">
  <ele>-0.109</ele>
  <time>2026-09-02T22:07:27Z</time>
  <course>8.93</course>
  <speed>1.7890779748239034</speed>
  <fix>3d</fix>
</trkpt>
<trkpt lat="33.8103401" lon="-118.3943131">
  <ele>-0.109</ele>
  <time>2026-09-02T22:07:27Z</time>
  <course>8.93</course>
  <speed>1.7890779748239034</speed>
  <fix>3d</fix>
</trkpt>
<trkpt lat="33.8103401" lon="-118.3943132">
  <ele>-0.109</ele>
  <time>2026-09-02T22:07:27Z</time>
  <course>8.93</course>
  <speed>1.7890779748239034</speed>
  <fix>3d</fix>
</trkpt>
<trkpt lat="33.8103401" lon="-118.3943134">
  <ele>-0.109</ele>
  <time>2026-09-02T22:07:27Z</time>
  <course>8.94</course>
  <speed>1.7890779748239034</speed>
  <fix>3d</fix>
</trkpt>
<trkpt lat="33.8103401" lon="-118.3943135">
  <ele>-0.109</ele>
  <time>2026-09-02T22:07:27Z</time>
  <course>8.94</course>
  <speed>1.7890779748239034</speed>
  <fix>3d</fix>
</trkpt>
<trkpt lat="33.8103401" lon="-118.3943137">
  <ele>-0.109</ele>
  <time>2026-09-02T22:07:27Z</time>
  <course>8.94</course>
  <speed>1.7890779748239034</speed>
  <fix>3d</fix>
</trkpt>
<trkpt lat="33.8103402" lon="-118.3943138">
  <ele>-0.109</ele>
  <time>2026-09-02T22:07:27Z</time>
  <course>8.94</course>
  <speed>1.7890779748239034</speed>
  <fix>3d</fix>
</trkpt>
<trkpt lat="33.8103402" lon="-118.3943138">
  <ele>-0.109</ele>
  <time>2026-09-02T22:07:27Z</time>
  <course>8.94</course>
  <speed>1.7890779748239034</speed>
  <fix>3d</fix>
</trkpt>
<trkpt lat="33.8103399" lon="-118.3943091">
  <ele>-0.1</ele>
  <time>2026-09-02T22:07:27Z</time>
  <course>276.62</course>
  <speed>1.82</speed>
  <fix>3d</fix>
</trkpt>
<trkpt lat="33.8103402" lon="-118.3943142">
  <ele>-0.108</ele>
  <time>2026-09-02T22:07:27Z</time>
  <course>8.94</course>
  <speed>1.7890779748239034</speed>
  <fix>3d</fix>
</trkpt>
<trkpt lat="33.8103402" lon="-118.3943145">
  <ele>-0.108</ele>
  <time>2026-09-02T22:07:27Z</time>
  <course>8.94</course>
  <speed>1.7890779748239034</speed>
  <fix>3d</fix>
</trkpt>
<trkpt lat="33.8103402" lon="-118.3943147">
  <ele>-0.108</ele>
  <time>2026-09-02T22:07:27Z</time>
  <course>8.94</course>
  <speed>1.7890779748239034</speed>
  <fix>3d</fix>
</trkpt>
<trkpt lat="33.8103403" lon="-118.3943149">
  <ele>-0.108</ele>
  <time>2026-09-02T22:07:27Z</time>
  <course>8.94</course>
  <speed>1.7890779748239034</speed>
  <fix>3d</fix>
</trkpt>
<trkpt lat="33.8103403" lon="-118.394315">
  <ele>-0.108</ele>
  <time>2026-09-02T22:07:27Z</time>
  <course>8.94</course>
  <speed>1.7890779748239034</speed>
  <fix>3d</fix>
</trkpt>
<trkpt lat="33.8103403" lon="-118.3943152">
  <ele>-0.108</ele>
  <time>2026-09-02T22:07:27Z</time>
  <course>8.94</course>
  <speed>1.7890779748239034</speed>
  <fix>3d</fix>
</trkpt>
<trkpt lat="33.8103403" lon="-118.3943154">
  <ele>-0.108</ele>
  <time>2026-09-02T22:07:27Z</time>
  <course>8.95</course>
  <speed>1.7890779748239034</speed>
  <fix>3d</fix>
</trkpt>
<trkpt lat="33.8103403" lon="-118.3943156">
  <ele>-0.108</ele>
  <time>2026-09-02T22:07:27Z</time>
  <course>8.95</course>
  <speed>1.7890779748239034</speed>
  <fix>3d</fix>
</trkpt>
<trkpt lat="33.8103403" lon="-118.3943158">
  <ele>-0.108</ele>
  <time>2026-09-02T22:07:27Z</time>
  <course>8.95</course>
  <speed>1.7890779748239034</speed>
  <fix>3d</fix>
</trkpt>
<trkpt lat="33.8103404" lon="-118.3943158">
  <ele>-0.108</ele>
  <time>2026-09-02T22:07:27Z</time>
  <course>8.95</course>
  <speed>1.7890779748239034</speed>
  <fix>3d</fix>
</trkpt>
<trkpt lat="33.8103404" lon="-118.3943131">
  <ele>-0.1</ele>
  <time>2026-09-02T22:07:27Z</time>
  <course>276.65</course>
  <speed>1.82</speed>
  <fix>3d</fix>
</trkpt>
<trkpt lat="33.8103404" lon="-118.3943158">
  <ele>-0.108</ele>
  <time>2026-09-02T22:07:27Z</time>
  <course>8.95</course>
  <speed>1.7890779748239034</speed>
  <fix>3d</fix>
</trkpt>
<trkpt lat="33.8103404" lon="-118.3943162">
  <ele>-0.108</ele>
  <time>2026-09-02T22:07:27Z</time>
  <course>8.95</course>
  <speed>1.7890779748239034</speed>
  <fix>3d</fix>
</trkpt>
<trkpt lat="33.8103404" lon="-118.3943164">
  <ele>-0.108</ele>
  <time>2026-09-02T22:07:27Z</time>
  <course>8.95</course>
  <speed>1.7890779748239034</speed>
  <fix>3d</fix>
</trkpt>
<trkpt lat="33.8103404" lon="-118.3943166">
  <ele>-0.108</ele>
  <time>2026-09-02T22:07:27Z</time>
  <course>8.95</course>
  <speed>1.7890779748239034</speed>
  <fix>3d</fix>
</trkpt>
<trkpt lat="33.8103404" lon="-118.3943167">
  <ele>-0.108</ele>
  <time>2026-09-02T22:07:27Z</time>
  <course>8.95</course>
  <speed>1.7890779748239034</speed>
  <fix>3d</fix>
</trkpt>
<trkpt lat="33.8103405" lon="-118.3943169">
  <ele>-0.108</ele>
  <time>2026-09-02T22:07:27Z</time>
  <course>8.95</course>
  <speed>1.7890779748239034</speed>
  <fix>3d</fix>
</trkpt>
<trkpt lat="33.8103405" lon="-118.394317">
  <ele>-0.109</ele>
  <time>2026-09-02T22:07:27Z</time>
  <course>8.95</course>
  <speed>1.7890779748239034</speed>
  <fix>3d</fix>
</trkpt>
<trkpt lat="33.8103405" lon="-118.3943172">
  <ele>-0.109</ele>
  <time>2026-09-02T22:07:27Z</time>
  <course>8.95</course>
  <speed>1.7890779748239034</speed>
  <fix>3d</fix>
</trkpt>
<trkpt lat="33.8103405" lon="-118.3943174">
  <ele>-0.109</ele>
  <time>2026-09-02T22:07:27Z</time>
  <course>8.95</course>
  <speed>1.7890779748239034</speed>
  <fix>3d</fix>
</trkpt>
<trkpt lat="33.8103405" lon="-118.3943175">
  <ele>-0.109</ele>
  <time>2026-09-02T22:07:27Z</time>
  <course>8.96</course>
  <speed>1.7890779748239034</speed>
  <fix>3d</fix>
</trkpt>
<trkpt lat="33.8103405" lon="-118.3943177">
  <ele>-0.109</ele>
  <time>2026-09-02T22:07:27Z</time>
  <course>8.96</course>
  <speed>1.7890779748239034</speed>
  <fix>3d</fix>
</trkpt>
<trkpt lat="33.8103405" lon="-118.3943178">
  <ele>-0.109</ele>
  <time>2026-09-02T22:07:27Z</time>
  <course>8.96</course>
  <speed>1.7890779748239034</speed>
  <fix>3d</fix>
</trkpt>
<trkpt lat="33.8103404" lon="-118.3943131">
  <ele>-0.1</ele>
  <time>2026-09-02T22:07:27Z</time>
  <course>276.65</course>
  <speed>1.82</speed>
  <fix>3d</fix>
</trkpt>
<trkpt lat="33.8103405" lon="-118.3943178">
  <ele>-0.109</ele>
  <time>2026-09-02T22:07:27Z</time>
  <course>8.96</course>
  <speed>1.7890779748239034</speed>
  <fix>3d</fix>
</trkpt>
<trkpt lat="33.8103406" lon="-118.3943181">
  <ele>-0.109</ele>
  <time>2026-09-02T22:07:27Z</time>
  <course>8.96</course>
  <speed>1.7890779748239034</speed>
  <fix>3d</fix>
</trkpt>
<trkpt lat="33.8103406" lon="-118.3943183">
  <ele>-0.109</ele>
  <time>2026-09-02T22:07:27Z</time>
  <course>8.96</course>
  <speed>1.7890779748239034</speed>
  <fix>3d</fix>
</trkpt>
<trkpt lat="33.8103406" lon="-118.3943185">
  <ele>-0.109</ele>
  <time>2026-09-02T22:07:27Z</time>
  <course>8.96</course>
  <speed>1.7890779748239034</speed>
  <fix>3d</fix>
</trkpt>
<trkpt lat="33.8103406" lon="-118.3943186">
  <ele>-0.109</ele>
  <time>2026-09-02T22:07:27Z</time>
  <course>8.96</course>
  <speed>1.7890779748239034</speed>
  <fix>3d</fix>
</trkpt>
<trkpt lat="33.8103406" lon="-118.3943188">
  <ele>-0.109</ele>
  <time>2026-09-02T22:07:27Z</time>
  <course>8.96</course>
  <speed>1.7890779748239034</speed>
  <fix>3d</fix>
</trkpt>
<trkpt lat="33.8103407" lon="-118.3943189">
  <ele>-0.109</ele>
  <time>2026-09-02T22:07:27Z</time>
  <course>8.96</course>
  <speed>1.7890779748239034</speed>
  <fix>3d</fix>
</trkpt>
<trkpt lat="33.8103407" lon="-118.3943191">
  <ele>-0.109</ele>
  <time>2026-09-02T22:07:27Z</time>
  <course>8.96</course>
  <speed>1.7890779748239034</speed>
  <fix>3d</fix>
</trkpt>
<trkpt lat="33.8103407" lon="-118.3943192">
  <ele>-0.109</ele>
  <time>2026-09-02T22:07:27Z</time>
  <course>8.96</course>
  <speed>1.7890779748239034</speed>
  <fix>3d</fix>
</trkpt>
<trkpt lat="33.8103407" lon="-118.3943194">
  <ele>-0.109</ele>
  <time>2026-09-02T22:07:27Z</time>
  <course>8.96</course>
  <speed>1.7890779748239034</speed>
  <fix>3d</fix>
</trkpt>
<trkpt lat="33.8103407" lon="-118.3943196">
  <ele>-0.109</ele>
  <time>2026-09-02T22:07:27Z</time>
  <course>8.97</course>
  <speed>1.7890779748239034</speed>
  <fix>3d</fix>
</trkpt>
<trkpt lat="33.8103407" lon="-118.3943197">
  <ele>-0.109</ele>
  <time>2026-09-02T22:07:27Z</time>
  <course>8.97</course>
  <speed>1.7890779748239034</speed>
  <fix>3d</fix>
</trkpt>
<trkpt lat="33.8103407" lon="-118.3943197">
  <ele>-0.109</ele>
  <time>2026-09-02T22:07:27Z</time>
  <course>8.97</course>
  <speed>1.7890779748239034</speed>
  <fix>3d</fix>
</trkpt>
<trkpt lat="33.8103408" lon="-118.394317">
  <ele>-0.1</ele>
  <time>2026-09-02T22:07:27Z</time>
  <course>276.67</course>
  <speed>1.82</speed>
  <fix>3d</fix>
</trkpt>
<trkpt lat="33.8103408" lon="-118.3943201">
  <ele>-0.109</ele>
  <time>2026-09-02T22:07:27Z</time>
  <course>8.97</course>
  <speed>1.7890779748239034</speed>
  <fix>3d</fix>
</trkpt>
<trkpt lat="33.8103408" lon="-118.3943203">
  <ele>-0.109</ele>
  <time>2026-09-02T22:07:27Z</time>
  <course>8.97</course>
  <speed>1.7890779748239034</speed>
  <fix>3d</fix>
</trkpt>
<trkpt lat="33.8103408" lon="-118.3943204">
  <ele>-0.109</ele>
  <time>2026-09-02T22:07:27Z</time>
  <course>8.97</course>
  <speed>1.7890779748239034</speed>
  <fix>3d</fix>
</trkpt>
<trkpt lat="33.8103408" lon="-118.3943205">
  <ele>-0.109</ele>
  <time>2026-09-02T22:07:27Z</time>
  <course>8.97</course>
  <speed>1.7890779748239034</speed>
  <fix>3d</fix>
</trkpt>
<trkpt lat="33.8103408" lon="-118.3943207">
  <ele>-0.109</ele>
  <time>2026-09-02T22:07:27Z</time>
  <course>8.97</course>
  <speed>1.7890779748239034</speed>
  <fix>3d</fix>
</trkpt>
<trkpt lat="33.8103409" lon="-118.3943209">
  <ele>-0.109</ele>
  <time>2026-09-02T22:07:27Z</time>
  <course>8.97</course>
  <speed>1.7890779748239034</speed>
  <fix>3d</fix>
</trkpt>
<trkpt lat="33.8103409" lon="-118.394321">
  <ele>-0.109</ele>
  <time>2026-09-02T22:07:27Z</time>
  <course>8.97</course>
  <speed>1.7890779748239034</speed>
  <fix>3d</fix>
</trkpt>
<trkpt lat="33.8103409" lon="-118.3943212">
  <ele>-0.108</ele>
  <time>2026-09-02T22:07:27Z</time>
  <course>8.97</course>
  <speed>1.7890779748239034</speed>
  <fix>3d</fix>
</trkpt>
<trkpt lat="33.8103409" lon="-118.3943214">
  <ele>-0.108</ele>
  <time>2026-09-02T22:07:27Z</time>
  <course>8.97</course>
  <speed>1.7890779748239034</speed>
  <fix>3d</fix>
</trkpt>
<trkpt lat="33.8103409" lon="-118.3943216">
  <ele>-0.108</ele>
  <time>2026-09-02T22:07:27Z</time>
  <course>8.98</course>
  <speed>1.7890779748239034</speed>
  <fix>3d</fix>
</trkpt>
<trkpt lat="33.8103409" lon="-118.3943217">
  <ele>-0.108</ele>
  <time>2026-09-02T22:07:27Z</time>
  <course>8.98</course>
  <speed>1.7890779748239034</speed>
  <fix>3d</fix>
</trkpt>
<trkpt lat="33.8103408" lon="-118.394317">
  <ele>-0.1</ele>
  <time>2026-09-02T22:07:27Z</time>
  <course>276.67</course>
  <speed>1.82</speed>
  <fix>3d</fix>
</trkpt>
<trkpt lat="33.8103409" lon="-118.3943217">
  <ele>-0.108</ele>
  <time>2026-09-02T22:07:27Z</time>
  <course>8.98</course>
  <speed>1.7890779748239034</speed>
  <fix>3d</fix>
</trkpt>
<trkpt lat="33.810341" lon="-118.394322">
  <ele>-0.108</ele>
  <time>2026-09-02T22:07:27Z</time>
  <course>8.98</course>
  <speed>1.7890779748239034</speed>
  <fix>3d</fix>
</trkpt>
<trkpt lat="33.810341" lon="-118.3943222">
  <ele>-0.108</ele>
  <time>2026-09-02T22:07:27Z</time>
  <course>8.98</course>
  <speed>1.7890779748239034</speed>
  <fix>3d</fix>
</trkpt>
<trkpt lat="33.810341" lon="-118.3943223">
  <ele>-0.108</ele>
  <time>2026-09-02T22:07:27Z</time>
  <course>8.98</course>
  <speed>1.7890779748239034</speed>
  <fix>3d</fix>
</trkpt>
<trkpt lat="33.810341" lon="-118.3943225">
  <ele>-0.108</ele>
  <time>2026-09-02T22:07:27Z</time>
  <course>8.98</course>
  <speed>1.7890779748239034</speed>
  <fix>3d</fix>
</trkpt>
<trkpt lat="33.810341" lon="-118.3943226">
  <ele>-0.108</ele>
  <time>2026-09-02T22:07:27Z</time>
  <course>8.98</course>
  <speed>1.7890779748239034</speed>
  <fix>3d</fix>
</trkpt>
<trkpt lat="33.810341" lon="-118.3943229">
  <ele>-0.108</ele>
  <time>2026-09-02T22:07:27Z</time>
  <course>8.98</course>
  <speed>1.7890779748239034</speed>
  <fix>3d</fix>
</trkpt>
<trkpt lat="33.8103411" lon="-118.394323">
  <ele>-0.108</ele>
  <time>2026-09-02T22:07:27Z</time>
  <course>8.98</course>
  <speed>1.7890779748239034</speed>
  <fix>3d</fix>
</trkpt>
<trkpt lat="33.8103411" lon="-118.3943232">
  <ele>-0.107</ele>
  <time>2026-09-02T22:07:27Z</time>
  <course>8.98</course>
  <speed>1.7890779748239034</speed>
  <fix>3d</fix>
</trkpt>
<trkpt lat="33.8103411" lon="-118.3943234">
  <ele>-0.107</ele>
  <time>2026-09-02T22:07:27Z</time>
  <course>8.98</course>
  <speed>1.7890779748239034</speed>
  <fix>3d</fix>
</trkpt>
<trkpt lat="33.8103411" lon="-118.3943235">
  <ele>-0.107</ele>
  <time>2026-09-02T22:07:27Z</time>
  <course>8.98</course>
  <speed>1.7890779748239034</speed>
  <fix>3d</fix>
</trkpt>
<trkpt lat="33.8103411" lon="-118.3943236">
  <ele>-0.107</ele>
  <time>2026-09-02T22:07:27Z</time>
  <course>8.99</course>
  <speed>1.7890779748239034</speed>
  <fix>3d</fix>
</trkpt>
<trkpt lat="33.8103411" lon="-118.3943209">
  <ele>-0.1</ele>
  <time>2026-09-02T22:07:27Z</time>
  <course>276.69</course>
  <speed>1.82</speed>
  <fix>3d</fix>
</trkpt>
<trkpt lat="33.8103411" lon="-118.3943237">
  <ele>-0.107</ele>
  <time>2026-09-02T22:07:27Z</time>
  <course>8.99</course>
  <speed>1.7890779748239034</speed>
  <fix>3d</fix>
</trkpt>
<trkpt lat="33.8103412" lon="-118.3943239">
  <ele>-0.107</ele>
  <time>2026-09-02T22:07:27Z</time>
  <course>8.99</course>
  <speed>1.7890779748239034</speed>
  <fix>3d</fix>
</trkpt>
<trkpt lat="33.8103412" lon="-118.3943241">
  <ele>-0.107</ele>
  <time>2026-09-02T22:07:27Z</time>
  <course>8.99</course>
  <speed>1.7890779748239034</speed>
  <fix>3d</fix>
</trkpt>
<trkpt lat="33.8103412" lon="-118.3943243">
  <ele>-0.107</ele>
  <time>2026-09-02T22:07:27Z</time>
  <course>8.99</course>
  <speed>1.7890779748239034</speed>
  <fix>3d</fix>
</trkpt>
<trkpt lat="33.8103412" lon="-118.3943245">
  <ele>-0.107</ele>
  <time>2026-09-02T22:07:27Z</time>
  <course>8.99</course>
  <speed>1.7890779748239034</speed>
  <fix>3d</fix>
</trkpt>
<trkpt lat="33.8103412" lon="-118.3943246">
  <ele>-0.107</ele>
  <time>2026-09-02T22:07:27Z</time>
  <course>8.99</course>
  <speed>1.7890779748239034</speed>
  <fix>3d</fix>
</trkpt>
<trkpt lat="33.8103412" lon="-118.3943248">
  <ele>-0.107</ele>
  <time>2026-09-02T22:07:27Z</time>
  <course>8.99</course>
  <speed>1.7890779748239034</speed>
  <fix>3d</fix>
</trkpt>
<trkpt lat="33.8103413" lon="-118.394325">
  <ele>-0.107</ele>
  <time>2026-09-02T22:07:27Z</time>
  <course>8.99</course>
  <speed>1.7890779748239034</speed>
  <fix>3d</fix>
</trkpt>
<trkpt lat="33.8103413" lon="-118.3943252">
  <ele>-0.107</ele>
  <time>2026-09-02T22:07:27Z</time>
  <course>8.99</course>
  <speed>1.7890779748239034</speed>
  <fix>3d</fix>
</trkpt>
<trkpt lat="33.8103413" lon="-118.3943253">
  <ele>-0.107</ele>
  <time>2026-09-02T22:07:27Z</time>
  <course>8.99</course>
  <speed>1.7890779748239034</speed>
  <fix>3d</fix>
</trkpt>
<trkpt lat="33.8103413" lon="-118.3943254">
  <ele>-0.107</ele>
  <time>2026-09-02T22:07:27Z</time>
  <course>8.99</course>
  <speed>1.7890779748239034</speed>
  <fix>3d</fix>
</trkpt>
<trkpt lat="33.8103413" lon="-118.3943256">
  <ele>-0.107</ele>
  <time>2026-09-02T22:07:27Z</time>
  <course>8.99</course>
  <speed>1.7890779748239034</speed>
  <fix>3d</fix>
</trkpt>
<trkpt lat="33.8103413" lon="-118.3943256">
  <ele>-0.107</ele>
  <time>2026-09-02T22:07:27Z</time>
  <course>8.99</course>
  <speed>1.7890779748239034</speed>
  <fix>3d</fix>
</trkpt>
<trkpt lat="33.8103411" lon="-118.3943209">
  <ele>-0.1</ele>
  <time>2026-09-02T22:07:27Z</time>
  <course>276.69</course>
  <speed>1.82</speed>
  <fix>3d</fix>
</trkpt>
<trkpt lat="33.8103413" lon="-118.3943259">
  <ele>-0.107</ele>
  <time>2026-09-02T22:07:27Z</time>
  <course>9.0</course>
  <speed>1.7890779748239034</speed>
  <fix>3d</fix>
</trkpt>
<trkpt lat="33.8103414" lon="-118.3943261">
  <ele>-0.106</ele>
  <time>2026-09-02T22:07:27Z</time>
  <course>9.0</course>
  <speed>1.7890779748239034</speed>
  <fix>3d</fix>
</trkpt>
<trkpt lat="33.8103414" lon="-118.3943262">
  <ele>-0.106</ele>
  <time>2026-09-02T22:07:27Z</time>
  <course>9.0</course>
  <speed>1.7890779748239034</speed>
  <fix>3d</fix>
</trkpt>
<trkpt lat="33.8103414" lon="-118.3943264">
  <ele>-0.106</ele>
  <time>2026-09-02T22:07:27Z</time>
  <course>9.0</course>
  <speed>1.7890779748239034</speed>
  <fix>3d</fix>
</trkpt>
<trkpt lat="33.8103414" lon="-118.3943265">
  <ele>-0.106</ele>
  <time>2026-09-02T22:07:27Z</time>
  <course>9.0</course>
  <speed>1.7890779748239034</speed>
  <fix>3d</fix>
</trkpt>
<trkpt lat="33.8103414" lon="-118.3943267">
  <ele>-0.106</ele>
  <time>2026-09-02T22:07:27Z</time>
  <course>9.0</course>
  <speed>1.7890779748239034</speed>
  <fix>3d</fix>
</trkpt>
<trkpt lat="33.8103414" lon="-118.3943269">
  <ele>-0.106</ele>
  <time>2026-09-02T22:07:27Z</time>
  <course>9.0</course>
  <speed>1.7890779748239034</speed>
  <fix>3d</fix>
</trkpt>
<trkpt lat="33.8103415" lon="-118.3943271">
  <ele>-0.106</ele>
  <time>2026-09-02T22:07:27Z</time>
  <course>9.0</course>
  <speed>1.7890779748239034</speed>
  <fix>3d</fix>
</trkpt>
<trkpt lat="33.8103415" lon="-118.3943272">
  <ele>-0.106</ele>
  <time>2026-09-02T22:07:27Z</time>
  <course>9.0</course>
  <speed>1.7890779748239034</speed>
  <fix>3d</fix>
</trkpt>
<trkpt lat="33.8103415" lon="-118.3943274">
  <ele>-0.106</ele>
  <time>2026-09-02T22:07:27Z</time>
  <course>9.0</course>
  <speed>1.7890779748239034</speed>
  <fix>3d</fix>
</trkpt>
<trkpt lat="33.8103415" lon="-118.3943276">
  <ele>-0.106</ele>
  <time>2026-09-02T22:07:27Z</time>
  <course>9.0</course>
  <speed>1.7890779748239034</speed>
  <fix>3d</fix>
</trkpt>
<trkpt lat="33.8103415" lon="-118.3943276">
  <ele>-0.106</ele>
  <time>2026-09-02T22:07:27Z</time>
  <course>9.0</course>
  <speed>1.7890779748239034</speed>
  <fix>3d</fix>
</trkpt>
<trkpt lat="33.8103414" lon="-118.3943248">
  <ele>-0.1</ele>
  <time>2026-09-02T22:07:27Z</time>
  <course>276.72</course>
  <speed>1.82</speed>
  <fix>3d</fix>
</trkpt>
<trkpt lat="33.8103415" lon="-118.3943278">
  <ele>-0.106</ele>
  <time>2026-09-02T22:07:27Z</time>
  <course>9.01</course>
  <speed>1.7990275150758535</speed>
  <fix>3d</fix>
</trkpt>
<trkpt lat="33.8103415" lon="-118.3943279">
  <ele>-0.106</ele>
  <time>2026-09-02T22:07:27Z</time>
  <course>9.01</course>
  <speed>1.7990275150758535</speed>
  <fix>3d</fix>
</trkpt>
<trkpt lat="33.8103416" lon="-118.3943281">
  <ele>-0.106</ele>
  <time>2026-09-02T22:07:27Z</time>
  <course>9.01</course>
  <speed>1.7890779748239034</speed>
  <fix>3d</fix>
</trkpt>
<trkpt lat="33.8103416" lon="-118.3943283">
  <ele>-0.106</ele>
  <time>2026-09-02T22:07:27Z</time>
  <course>9.01</course>
  <speed>1.7890779748239034</speed>
  <fix>3d</fix>
</trkpt>
<trkpt lat="33.8103416" lon="-118.3943285">
  <ele>-0.106</ele>
  <time>2026-09-02T22:07:27Z</time>
  <course>9.01</course>
  <speed>1.7990275150758535</speed>
  <fix>3d</fix>
</trkpt>
<trkpt lat="33.8103416" lon="-118.3943287">
  <ele>-0.106</ele>
  <time>2026-09-02T22:07:27Z</time>
  <course>9.01</course>
  <speed>1.7990275150758535</speed>
  <fix>3d</fix>
</trkpt>
<trkpt lat="33.8103416" lon="-118.3943288">
  <ele>-0.106</ele>
  <time>2026-09-02T22:07:27Z</time>
  <course>9.01</course>
  <speed>1.7890779748239034</speed>
  <fix>3d</fix>
</trkpt>
<trkpt lat="33.8103416" lon="-118.394329">
  <ele>-0.106</ele>
  <time>2026-09-02T22:07:27Z</time>
  <course>9.01</course>
  <speed>1.7890779748239034</speed>
  <fix>3d</fix>
</trkpt>
<trkpt lat="33.8103417" lon="-118.3943291">
  <ele>-0.106</ele>
  <time>2026-09-02T22:07:27Z</time>
  <course>9.01</course>
  <speed>1.7890779748239034</speed>
  <fix>3d</fix>
</trkpt>
<trkpt lat="33.8103417" lon="-118.3943293">
  <ele>-0.106</ele>
  <time>2026-09-02T22:07:27Z</time>
  <course>9.01</course>
  <speed>1.7890779748239034</speed>
  <fix>3d</fix>
</trkpt>
<trkpt lat="33.8103417" lon="-118.3943295">
  <ele>-0.106</ele>
  <time>2026-09-02T22:07:27Z</time>
  <course>9.01</course>
  <speed>1.7890779748239034</speed>
  <fix>3d</fix>
</trkpt>
<trkpt lat="33.8103417" lon="-118.3943295">
  <ele>-0.106</ele>
  <time>2026-09-02T22:07:27Z</time>
  <course>9.01</course>
  <speed>1.7890779748239034</speed>
  <fix>3d</fix>
</trkpt>
<trkpt lat="33.8103414" lon="-118.3943248">
  <ele>-0.1</ele>
  <time>2026-09-02T22:07:27Z</time>
  <course>276.72</course>
  <speed>1.82</speed>
  <fix>3d</fix>
</trkpt>
<trkpt lat="33.8103417" lon="-118.3943296">
  <ele>-0.106</ele>
  <time>2026-09-02T22:07:27Z</time>
  <course>9.01</course>
  <speed>1.7890779748239034</speed>
  <fix>3d</fix>
</trkpt>
<trkpt lat="33.8103417" lon="-118.3943298">
  <ele>-0.106</ele>
  <time>2026-09-02T22:07:27Z</time>
  <course>9.01</course>
  <speed>1.7890779748239034</speed>
  <fix>3d</fix>
</trkpt>
<trkpt lat="33.8103417" lon="-118.3943299">
  <ele>-0.105</ele>
  <time>2026-09-02T22:07:27Z</time>
  <course>9.02</course>
  <speed>1.7890779748239034</speed>
  <fix>3d</fix>
</trkpt>
<trkpt lat="33.8103417" lon="-118.3943301">
  <ele>-0.105</ele>
  <time>2026-09-02T22:07:27Z</time>
  <course>9.02</course>
  <speed>1.7890779748239034</speed>
  <fix>3d</fix>
</trkpt>
<trkpt lat="33.8103418" lon="-118.3943302">
  <ele>-0.105</ele>
  <time>2026-09-02T22:07:27Z</time>
  <course>9.02</course>
  <speed>1.7890779748239034</speed>
  <fix>3d</fix>
</trkpt>
<trkpt lat="33.8103418" lon="-118.3943304">
  <ele>-0.105</ele>
  <time>2026-09-02T22:07:27Z</time>
  <course>9.02</course>
  <speed>1.7890779748239034</speed>
  <fix>3d</fix>
</trkpt>
<trkpt lat="33.8103418" lon="-118.3943305">
  <ele>-0.105</ele>
  <time>2026-09-02T22:07:27Z</time>
  <course>9.02</course>
  <speed>1.7890779748239034</speed>
  <fix>3d</fix>
</trkpt>
<trkpt lat="33.8103418" lon="-118.3943307">
  <ele>-0.105</ele>
  <time>2026-09-02T22:07:27Z</time>
  <course>9.02</course>
  <speed>1.7890779748239034</speed>
  <fix>3d</fix>
</trkpt>
<trkpt lat="33.8103418" lon="-118.3943308">
  <ele>-0.105</ele>
  <time>2026-09-02T22:07:27Z</time>
  <course>9.02</course>
  <speed>1.7990275150758535</speed>
  <fix>3d</fix>
</trkpt>
<trkpt lat="33.8103418" lon="-118.394331">
  <ele>-0.105</ele>
  <time>2026-09-02T22:07:27Z</time>
  <course>9.02</course>
  <speed>1.7890779748239034</speed>
  <fix>3d</fix>
</trkpt>
<trkpt lat="33.8103419" lon="-118.3943312">
  <ele>-0.105</ele>
  <time>2026-09-02T22:07:27Z</time>
  <course>9.02</course>
  <speed>1.7890779748239034</speed>
  <fix>3d</fix>
</trkpt>
<trkpt lat="33.8103419" lon="-118.3943313">
  <ele>-0.105</ele>
  <time>2026-09-02T22:07:27Z</time>
  <course>9.02</course>
  <speed>1.7990275150758535</speed>
  <fix>3d</fix>
</trkpt>
<trkpt lat="33.8103419" lon="-118.3943315">
  <ele>-0.105</ele>
  <time>2026-09-02T22:07:27Z</time>
  <course>9.02</course>
  <speed>1.7890779748239034</speed>
  <fix>3d</fix>
</trkpt>
<trkpt lat="33.8103419" lon="-118.3943287">
  <ele>-0.1</ele>
  <time>2026-09-02T22:07:27Z</time>
  <course>276.74</course>
  <speed>1.82</speed>
  <fix>3d</fix>
</trkpt>
<trkpt lat="33.8103419" lon="-118.3943315">
  <ele>-0.105</ele>
  <time>2026-09-02T22:07:27Z</time>
  <course>9.02</course>
  <speed>1.7890779748239034</speed>
  <fix>3d</fix>
</trkpt>
<trkpt lat="33.8103419" lon="-118.3943318">
  <ele>-0.105</ele>
  <time>2026-09-02T22:07:27Z</time>
  <course>9.02</course>
  <speed>1.7990275150758535</speed>
  <fix>3d</fix>
</trkpt>
<trkpt lat="33.8103419" lon="-118.394332">
  <ele>-0.105</ele>
  <time>2026-09-02T22:07:27Z</time>
  <course>9.03</course>
  <speed>1.7890779748239034</speed>
  <fix>3d</fix>
</trkpt>
<trkpt lat="33.810342" lon="-118.3943322">
  <ele>-0.105</ele>
  <time>2026-09-02T22:07:27Z</time>
  <course>9.03</course>
  <speed>1.7990275150758535</speed>
  <fix>3d</fix>
</trkpt>
<trkpt lat="33.810342" lon="-118.3943324">
  <ele>-0.105</ele>
  <time>2026-09-02T22:07:27Z</time>
  <course>9.03</course>
  <speed>1.7990275150758535</speed>
  <fix>3d</fix>
</trkpt>
<trkpt lat="33.810342" lon="-118.3943326">
  <ele>-0.105</ele>
  <time>2026-09-02T22:07:27Z</time>
  <course>9.03</course>
  <speed>1.7990275150758535</speed>
  <fix>3d</fix>
</trkpt>
<trkpt lat="33.810342" lon="-118.3943327">
  <ele>-0.105</ele>
  <time>2026-09-02T22:07:27Z</time>
  <course>9.03</course>
  <speed>1.7890779748239034</speed>
  <fix>3d</fix>
</trkpt>
<trkpt lat="33.810342" lon="-118.3943329">
  <ele>-0.105</ele>
  <time>2026-09-02T22:07:27Z</time>
  <course>9.03</course>
  <speed>1.7990275150758535</speed>
  <fix>3d</fix>
</trkpt>
<trkpt lat="33.810342" lon="-118.394333">
  <ele>-0.105</ele>
  <time>2026-09-02T22:07:27Z</time>
  <course>9.03</course>
  <speed>1.7890779748239034</speed>
  <fix>3d</fix>
</trkpt>
<trkpt lat="33.8103421" lon="-118.3943331">
  <ele>-0.104</ele>
  <time>2026-09-02T22:07:27Z</time>
  <course>9.03</course>
  <speed>1.7890779748239034</speed>
  <fix>3d</fix>
</trkpt>
<trkpt lat="33.8103421" lon="-118.3943333">
  <ele>-0.104</ele>
  <time>2026-09-02T22:07:27Z</time>
  <course>9.03</course>
  <speed>1.7890779748239034</speed>
  <fix>3d</fix>
</trkpt>
<trkpt lat="33.8103421" lon="-118.3943334">
  <ele>-0.104</ele>
  <time>2026-09-02T22:07:27Z</time>
  <course>9.03</course>
  <speed>1.7890779748239034</speed>
  <fix>3d</fix>
</trkpt>
<trkpt lat="33.8103419" lon="-118.3943287">
  <ele>-0.1</ele>
  <time>2026-09-02T22:07:27Z</time>
  <course>276.74</course>
  <speed>1.82</speed>
  <fix>3d</fix>
</trkpt>
<trkpt lat="33.8103421" lon="-118.3943335">
  <ele>-0.104</ele>
  <time>2026-09-02T22:07:27Z</time>
  <course>9.03</course>
  <speed>1.7890779748239034</speed>
  <fix>3d</fix>
</trkpt>
<trkpt lat="33.8103421" lon="-118.3943337">
  <ele>-0.104</ele>
  <time>2026-09-02T22:07:27Z</time>
  <course>9.03</course>
  <speed>1.7890779748239034</speed>
  <fix>3d</fix>
</trkpt>
<trkpt lat="33.8103421" lon="-118.3943339">
  <ele>-0.104</ele>
  <time>2026-09-02T22:07:27Z</time>
  <course>9.03</course>
  <speed>1.7890779748239034</speed>
  <fix>3d</fix>
</trkpt>
<trkpt lat="33.8103421" lon="-118.3943341">
  <ele>-0.104</ele>
  <time>2026-09-02T22:07:27Z</time>
  <course>9.04</course>
  <speed>1.7890779748239034</speed>
  <fix>3d</fix>
</trkpt>
<trkpt lat="33.8103422" lon="-118.3943343">
  <ele>-0.104</ele>
  <time>2026-09-02T22:07:27Z</time>
  <course>9.04</course>
  <speed>1.7890779748239034</speed>
  <fix>3d</fix>
</trkpt>
<trkpt lat="33.8103422" lon="-118.3943345">
  <ele>-0.104</ele>
  <time>2026-09-02T22:07:27Z</time>
  <course>9.04</course>
  <speed>1.7890779748239034</speed>
  <fix>3d</fix>
</trkpt>
<trkpt lat="33.8103422" lon="-118.3943346">
  <ele>-0.104</ele>
  <time>2026-09-02T22:07:27Z</time>
  <course>9.04</course>
  <speed>1.7890779748239034</speed>
  <fix>3d</fix>
</trkpt>
<trkpt lat="33.8103422" lon="-118.3943348">
  <ele>-0.104</ele>
  <time>2026-09-02T22:07:27Z</time>
  <course>9.04</course>
  <speed>1.7890779748239034</speed>
  <fix>3d</fix>
</trkpt>
<trkpt lat="33.8103422" lon="-118.3943349">
  <ele>-0.104</ele>
  <time>2026-09-02T22:07:27Z</time>
  <course>9.04</course>
  <speed>1.7890779748239034</speed>
  <fix>3d</fix>
</trkpt>
<trkpt lat="33.8103422" lon="-118.3943351">
  <ele>-0.104</ele>
  <time>2026-09-02T22:07:27Z</time>
  <course>9.04</course>
  <speed>1.7890779748239034</speed>
  <fix>3d</fix>
</trkpt>
<trkpt lat="33.8103423" lon="-118.3943352">
  <ele>-0.104</ele>
  <time>2026-09-02T22:07:27Z</time>
  <course>9.04</course>
  <speed>1.7890779748239034</speed>
  <fix>3d</fix>
</trkpt>
<trkpt lat="33.8103423" lon="-118.3943354">
  <ele>-0.104</ele>
  <time>2026-09-02T22:07:27Z</time>
  <course>9.04</course>
  <speed>1.7890779748239034</speed>
  <fix>3d</fix>
</trkpt>
<trkpt lat="33.8103423" lon="-118.3943354">
  <ele>-0.104</ele>
  <time>2026-09-02T22:07:27Z</time>
  <course>9.04</course>
  <speed>1.7890779748239034</speed>
  <fix>3d</fix>
</trkpt>
<trkpt lat="33.8103423" lon="-118.3943326">
  <ele>-0.1</ele>
  <time>2026-09-02T22:07:27Z</time>
  <course>276.76</course>
  <speed>1.82</speed>
  <fix>3d</fix>
</trkpt>
<trkpt lat="33.8103423" lon="-118.3943357">
  <ele>-0.104</ele>
  <time>2026-09-02T22:07:27Z</time>
  <course>9.04</course>
  <speed>1.7890779748239034</speed>
  <fix>3d</fix>
</trkpt>
<trkpt lat="33.8103423" lon="-118.3943359">
  <ele>-0.104</ele>
  <time>2026-09-02T22:07:27Z</time>
  <course>9.04</course>
  <speed>1.7890779748239034</speed>
  <fix>3d</fix>
</trkpt>
<trkpt lat="33.8103423" lon="-118.394336">
  <ele>-0.104</ele>
  <time>2026-09-02T22:07:27Z</time>
  <course>9.04</course>
  <speed>1.7890779748239034</speed>
  <fix>3d</fix>
</trkpt>
<trkpt lat="33.8103424" lon="-118.3943362">
  <ele>-0.104</ele>
  <time>2026-09-02T22:07:27Z</time>
  <course>9.05</course>
  <speed>1.7890779748239034</speed>
  <fix>3d</fix>
</trkpt>
<trkpt lat="33.8103424" lon="-118.3943363">
  <ele>-0.103</ele>
  <time>2026-09-02T22:07:27Z</time>
  <course>9.05</course>
  <speed>1.7890779748239034</speed>
  <fix>3d</fix>
</trkpt>
<trkpt lat="33.8103424" lon="-118.3943365">
  <ele>-0.103</ele>
  <time>2026-09-02T22:07:27Z</time>
  <course>9.05</course>
  <speed>1.7890779748239034</speed>
  <fix>3d</fix>
</trkpt>
<trkpt lat="33.8103424" lon="-118.3943367">
  <ele>-0.103</ele>
  <time>2026-09-02T22:07:27Z</time>
  <course>9.05</course>
  <speed>1.7890779748239034</speed>
  <fix>3d</fix>
</trkpt>
<trkpt lat="33.8103424" lon="-118.3943369">
  <ele>-0.103</ele>
  <time>2026-09-02T22:07:27Z</time>
  <course>9.05</course>
  <speed>1.7890779748239034</speed>
  <fix>3d</fix>
</trkpt>
<trkpt lat="33.8103424" lon="-118.394337">
  <ele>-0.103</ele>
  <time>2026-09-02T22:07:27Z</time>
  <course>9.05</course>
  <speed>1.7890779748239034</speed>
  <fix>3d</fix>
</trkpt>
<trkpt lat="33.8103424" lon="-118.3943371">
  <ele>-0.103</ele>
  <time>2026-09-02T22:07:27Z</time>
  <course>9.05</course>
  <speed>1.7890779748239034</speed>
  <fix>3d</fix>
</trkpt>
<trkpt lat="33.8103425" lon="-118.3943373">
  <ele>-0.103</ele>
  <time>2026-09-02T22:07:27Z</time>
  <course>9.05</course>
  <speed>1.7890779748239034</speed>
  <fix>3d</fix>
</trkpt>
<trkpt lat="33.8103425" lon="-118.3943373">
  <ele>-0.103</ele>
  <time>2026-09-02T22:07:27Z</time>
  <course>9.05</course>
  <speed>1.7890779748239034</speed>
  <fix>3d</fix>
</trkpt>
<trkpt lat="33.8103423" lon="-118.3943326">
  <ele>-0.1</ele>
  <time>2026-09-02T22:07:27Z</time>
  <course>276.76</course>
  <speed>1.82</speed>
  <fix>3d</fix>
</trkpt>
<trkpt lat="33.8103425" lon="-118.3943374">
  <ele>-0.103</ele>
  <time>2026-09-02T22:07:27Z</time>
  <course>9.05</course>
  <speed>1.7890779748239034</speed>
  <fix>3d</fix>
</trkpt>
<trkpt lat="33.8103425" lon="-118.3943377">
  <ele>-0.103</ele>
  <time>2026-09-02T22:07:27Z</time>
  <course>9.05</course>
  <speed>1.7890779748239034</speed>
  <fix>3d</fix>
</trkpt>
<trkpt lat="33.8103425" lon="-118.3943379">
  <ele>-0.103</ele>
  <time>2026-09-02T22:07:27Z</time>
  <course>9.05</course>
  <speed>1.7890779748239034</speed>
  <fix>3d</fix>
</trkpt>
<trkpt lat="33.8103425" lon="-118.3943381">
  <ele>-0.103</ele>
  <time>2026-09-02T22:07:27Z</time>
  <course>9.05</course>
  <speed>1.7890779748239034</speed>
  <fix>3d</fix>
</trkpt>
<trkpt lat="33.8103426" lon="-118.3943382">
  <ele>-0.103</ele>
  <time>2026-09-02T22:07:27Z</time>
  <course>9.05</course>
  <speed>1.7890779748239034</speed>
  <fix>3d</fix>
</trkpt>
<trkpt lat="33.8103426" lon="-118.3943384">
  <ele>-0.103</ele>
  <time>2026-09-02T22:07:27Z</time>
  <course>9.06</course>
  <speed>1.7890779748239034</speed>
  <fix>3d</fix>
</trkpt>
<trkpt lat="33.8103426" lon="-118.3943386">
  <ele>-0.103</ele>
  <time>2026-09-02T22:07:27Z</time>
  <course>9.06</course>
  <speed>1.7890779748239034</speed>
  <fix>3d</fix>
</trkpt>
<trkpt lat="33.8103426" lon="-118.3943387">
  <ele>-0.103</ele>
  <time>2026-09-02T22:07:27Z</time>
  <course>9.06</course>
  <speed>1.7890779748239034</speed>
  <fix>3d</fix>
</trkpt>
<trkpt lat="33.8103426" lon="-118.394339">
  <ele>-0.103</ele>
  <time>2026-09-02T22:07:27Z</time>
  <course>9.06</course>
  <speed>1.7890779748239034</speed>
  <fix>3d</fix>
</trkpt>
<trkpt lat="33.8103426" lon="-118.3943391">
  <ele>-0.103</ele>
  <time>2026-09-02T22:07:27Z</time>
  <course>9.06</course>
  <speed>1.7890779748239034</speed>
  <fix>3d</fix>
</trkpt>
<trkpt lat="33.8103427" lon="-118.3943393">
  <ele>-0.103</ele>
  <time>2026-09-02T22:07:27Z</time>
  <course>9.06</course>
  <speed>1.7890779748239034</speed>
  <fix>3d</fix>
</trkpt>
<trkpt lat="33.8103427" lon="-118.3943393">
  <ele>-0.103</ele>
  <time>2026-09-02T22:07:27Z</time>
  <course>9.06</course>
  <speed>1.7890779748239034</speed>
  <fix>3d</fix>
</trkpt>
<trkpt lat="33.8103427" lon="-118.3943365">
  <ele>-0.1</ele>
  <time>2026-09-02T22:07:27Z</time>
  <course>276.78</course>
  <speed>1.82</speed>
  <fix>3d</fix>
</trkpt>
<trkpt lat="33.8103427" lon="-118.3943396">
  <ele>-0.103</ele>
  <time>2026-09-02T22:07:27Z</time>
  <course>9.06</course>
  <speed>1.7890779748239034</speed>
  <fix>3d</fix>
</trkpt>
<trkpt lat="33.8103427" lon="-118.3943398">
  <ele>-0.103</ele>
  <time>2026-09-02T22:07:27Z</time>
  <course>9.06</course>
  <speed>1.7890779748239034</speed>
  <fix>3d</fix>
</trkpt>
<trkpt lat="33.8103427" lon="-118.39434">
  <ele>-0.103</ele>
  <time>2026-09-02T22:07:27Z</time>
  <course>9.06</course>
  <speed>1.7890779748239034</speed>
  <fix>3d</fix>
</trkpt>
<trkpt lat="33.8103428" lon="-118.3943402">
  <ele>-0.103</ele>
  <time>2026-09-02T22:07:27Z</time>
  <course>9.06</course>
  <speed>1.7890779748239034</speed>
  <fix>3d</fix>
</trkpt>
<trkpt lat="33.8103428" lon="-118.3943403">
  <ele>-0.103</ele>
  <time>2026-09-02T22:07:27Z</time>
  <course>9.06</course>
  <speed>1.7890779748239034</speed>
  <fix>3d</fix>
</trkpt>
<trkpt lat="33.8103428" lon="-118.3943404">
  <ele>-0.103</ele>
  <time>2026-09-02T22:07:27Z</time>
  <course>9.07</course>
  <speed>1.7890779748239034</speed>
  <fix>3d</fix>
</trkpt>
<trkpt lat="33.8103428" lon="-118.3943406">
  <ele>-0.103</ele>
  <time>2026-09-02T22:07:27Z</time>
  <course>9.07</course>
  <speed>1.7890779748239034</speed>
  <fix>3d</fix>
</trkpt>
<trkpt lat="33.8103428" lon="-118.3943407">
  <ele>-0.103</ele>
  <time>2026-09-02T22:07:27Z</time>
  <course>9.07</course>
  <speed>1.7890779748239034</speed>
  <fix>3d</fix>
</trkpt>
<trkpt lat="33.8103428" lon="-118.3943409">
  <ele>-0.104</ele>
  <time>2026-09-02T22:07:27Z</time>
  <course>9.07</course>
  <speed>1.7890779748239034</speed>
  <fix>3d</fix>
</trkpt>
<trkpt lat="33.8103428" lon="-118.394341">
  <ele>-0.104</ele>
  <time>2026-09-02T22:07:27Z</time>
  <course>9.07</course>
  <speed>1.7890779748239034</speed>
  <fix>3d</fix>
</trkpt>
<trkpt lat="33.8103429" lon="-118.3943412">
  <ele>-0.104</ele>
  <time>2026-09-02T22:07:27Z</time>
  <course>9.07</course>
  <speed>1.7890779748239034</speed>
  <fix>3d</fix>
</trkpt>
<trkpt lat="33.8103429" lon="-118.3943412">
  <ele>-0.104</ele>
  <time>2026-09-02T22:07:27Z</time>
  <course>9.07</course>
  <speed>1.7890779748239034</speed>
  <fix>3d</fix>
</trkpt>
<trkpt lat="33.8103427" lon="-118.3943365">
  <ele>-0.1</ele>
  <time>2026-09-02T22:07:27Z</time>
  <course>276.78</course>
  <speed>1.82</speed>
  <fix>3d</fix>
</trkpt>
<trkpt lat="33.8103429" lon="-118.3943415">
  <ele>-0.104</ele>
  <time>2026-09-02T22:07:27Z</time>
  <course>9.07</course>
  <speed>1.7890779748239034</speed>
  <fix>3d</fix>
</trkpt>
<trkpt lat="33.8103429" lon="-118.3943417">
  <ele>-0.104</ele>
  <time>2026-09-02T22:07:27Z</time>
  <course>9.07</course>
  <speed>1.7890779748239034</speed>
  <fix>3d</fix>
</trkpt>
<trkpt lat="33.8103429" lon="-118.3943419">
  <ele>-0.104</ele>
  <time>2026-09-02T22:07:27Z</time>
  <course>9.07</course>
  <speed>1.7890779748239034</speed>
  <fix>3d</fix>
</trkpt>
<trkpt lat="33.8103429" lon="-118.3943421">
  <ele>-0.104</ele>
  <time>2026-09-02T22:07:27Z</time>
  <course>9.07</course>
  <speed>1.7890779748239034</speed>
  <fix>3d</fix>
</trkpt>
<trkpt lat="33.810343" lon="-118.3943423">
  <ele>-0.104</ele>
  <time>2026-09-02T22:07:27Z</time>
  <course>9.07</course>
  <speed>1.7890779748239034</speed>
  <fix>3d</fix>
</trkpt>
<trkpt lat="33.810343" lon="-118.3943424">
  <ele>-0.104</ele>
  <time>2026-09-02T22:07:27Z</time>
  <course>9.07</course>
  <speed>1.7890779748239034</speed>
  <fix>3d</fix>
</trkpt>
<trkpt lat="33.810343" lon="-118.3943426">
  <ele>-0.104</ele>
  <time>2026-09-02T22:07:27Z</time>
  <course>9.08</course>
  <speed>1.7890779748239034</speed>
  <fix>3d</fix>
</trkpt>
<trkpt lat="33.810343" lon="-118.3943428">
  <ele>-0.104</ele>
  <time>2026-09-02T22:07:27Z</time>
  <course>9.08</course>
  <speed>1.7890779748239034</speed>
  <fix>3d</fix>
</trkpt>
<trkpt lat="33.810343" lon="-118.394343">
  <ele>-0.104</ele>
  <time>2026-09-02T22:07:27Z</time>
  <course>9.08</course>
  <speed>1.7890779748239034</speed>
  <fix>3d</fix>
</trkpt>
<trkpt lat="33.8103431" lon="-118.3943432">
  <ele>-0.104</ele>
  <time>2026-09-02T22:07:27Z</time>
  <course>9.08</course>
  <speed>1.7890779748239034</speed>
  <fix>3d</fix>
</trkpt>
<trkpt lat="33.8103431" lon="-118.3943404">
  <ele>-0.1</ele>
  <time>2026-09-02T22:07:27Z</time>
  <course>276.8</course>
  <speed>1.82</speed>
  <fix>3d</fix>
</trkpt>
<trkpt lat="33.8103431" lon="-118.3943432">
  <ele>-0.104</ele>
  <time>2026-09-02T22:07:27Z</time>
  <course>9.08</course>
  <speed>1.7890779748239034</speed>
  <fix>3d</fix>
</trkpt>
<trkpt lat="33.8103431" lon="-118.3943434">
  <ele>-0.104</ele>
  <time>2026-09-02T22:07:27Z</time>
  <course>9.08</course>
  <speed>1.7890779748239034</speed>
  <fix>3d</fix>
</trkpt>
<trkpt lat="33.8103431" lon="-118.3943436">
  <ele>-0.104</ele>
  <time>2026-09-02T22:07:27Z</time>
  <course>9.08</course>
  <speed>1.790111728356641</speed>
  <fix>3d</fix>
</trkpt>
<trkpt lat="33.8103431" lon="-118.3943437">
  <ele>-0.104</ele>
  <time>2026-09-02T22:07:27Z</time>
  <course>9.08</course>
  <speed>1.790111728356641</speed>
  <fix>3d</fix>
</trkpt>
<trkpt lat="33.8103431" lon="-118.3943439">
  <ele>-0.103</ele>
  <time>2026-09-02T22:07:27Z</time>
  <course>9.08</course>
  <speed>1.790111728356641</speed>
  <fix>3d</fix>
</trkpt>
<trkpt lat="33.8103431" lon="-118.394344">
  <ele>-0.103</ele>
  <time>2026-09-02T22:07:27Z</time>
  <course>9.08</course>
  <speed>1.790111728356641</speed>
  <fix>3d</fix>
</trkpt>
<trkpt lat="33.8103432" lon="-118.3943442">
  <ele>-0.103</ele>
  <time>2026-09-02T22:07:27Z</time>
  <course>9.08</course>
  <speed>1.790111728356641</speed>
  <fix>3d</fix>
</trkpt>
<trkpt lat="33.8103432" lon="-118.3943443">
  <ele>-0.103</ele>
  <time>2026-09-02T22:07:27Z</time>
  <course>9.08</course>
  <speed>1.790111728356641</speed>
  <fix>3d</fix>
</trkpt>
<trkpt lat="33.8103432" lon="-118.3943445">
  <ele>-0.103</ele>
  <time>2026-09-02T22:07:27Z</time>
  <course>9.08</course>
  <speed>1.790111728356641</speed>
  <fix>3d</fix>
</trkpt>
<trkpt lat="33.8103432" lon="-118.3943447">
  <ele>-0.103</ele>
  <time>2026-09-02T22:07:27Z</time>
  <course>9.09</course>
  <speed>1.790111728356641</speed>
  <fix>3d</fix>
</trkpt>
<trkpt lat="33.8103432" lon="-118.3943448">
  <ele>-0.103</ele>
  <time>2026-09-02T22:07:27Z</time>
  <course>9.09</course>
  <speed>1.790111728356641</speed>
  <fix>3d</fix>
</trkpt>
<trkpt lat="33.8103432" lon="-118.394345">
  <ele>-0.103</ele>
  <time>2026-09-02T22:07:27Z</time>
  <course>9.09</course>
  <speed>1.790111728356641</speed>
  <fix>3d</fix>
</trkpt>
<trkpt lat="33.8103433" lon="-118.3943451">
  <ele>-0.103</ele>
  <time>2026-09-02T22:07:27Z</time>
  <course>9.09</course>
  <speed>1.790111728356641</speed>
  <fix>3d</fix>
</trkpt>
<trkpt lat="33.8103433" lon="-118.3943451">
  <ele>-0.103</ele>
  <time>2026-09-02T22:07:27Z</time>
  <course>9.09</course>
  <speed>1.790111728356641</speed>
  <fix>3d</fix>
</trkpt>
<trkpt lat="33.8103431" lon="-118.3943404">
  <ele>-0.1</ele>
  <time>2026-09-02T22:07:27Z</time>
  <course>276.8</course>
  <speed>1.82</speed>
  <fix>3d</fix>
</trkpt>
<trkpt lat="33.8103433" lon="-118.3943454">
  <ele>-0.102</ele>
  <time>2026-09-02T22:07:27Z</time>
  <course>9.09</course>
  <speed>1.790111728356641</speed>
  <fix>3d</fix>
</trkpt>
<trkpt lat="33.8103433" lon="-118.3943456">
  <ele>-0.102</ele>
  <time>2026-09-02T22:07:27Z</time>
  <course>9.09</course>
  <speed>1.790111728356641</speed>
  <fix>3d</fix>
</trkpt>
<trkpt lat="33.8103433" lon="-118.3943458">
  <ele>-0.102</ele>
  <time>2026-09-02T22:07:27Z</time>
  <course>9.09</course>
  <speed>1.790111728356641</speed>
  <fix>3d</fix>
</trkpt>
<trkpt lat="33.8103433" lon="-118.3943459">
  <ele>-0.102</ele>
  <time>2026-09-02T22:07:27Z</time>
  <course>9.09</course>
  <speed>1.790111728356641</speed>
  <fix>3d</fix>
</trkpt>
<trkpt lat="33.8103433" lon="-118.3943461">
  <ele>-0.102</ele>
  <time>2026-09-02T22:07:27Z</time>
  <course>9.09</course>
  <speed>1.790111728356641</speed>
  <fix>3d</fix>
</trkpt>
<trkpt lat="33.8103434" lon="-118.3943462">
  <ele>-0.102</ele>
  <time>2026-09-02T22:07:27Z</time>
  <course>9.09</course>
  <speed>1.790111728356641</speed>
  <fix>3d</fix>
</trkpt>
<trkpt lat="33.8103434" lon="-118.3943464">
  <ele>-0.102</ele>
  <time>2026-09-02T22:07:27Z</time>
  <course>9.09</course>
  <speed>1.790111728356641</speed>
  <fix>3d</fix>
</trkpt>
<trkpt lat="33.8103434" lon="-118.3943465">
  <ele>-0.102</ele>
  <time>2026-09-02T22:07:27Z</time>
  <course>9.09</course>
  <speed>1.790111728356641</speed>
  <fix>3d</fix>
</trkpt>
<trkpt lat="33.8103434" lon="-118.3943467">
  <ele>-0.102</ele>
  <time>2026-09-02T22:07:27Z</time>
  <course>9.09</course>
  <speed>1.790111728356641</speed>
  <fix>3d</fix>
</trkpt>
<trkpt lat="33.8103434" lon="-118.3943468">
  <ele>-0.102</ele>
  <time>2026-09-02T22:07:27Z</time>
  <course>9.1</course>
  <speed>1.790111728356641</speed>
  <fix>3d</fix>
</trkpt>
<trkpt lat="33.8103434" lon="-118.3943469">
  <ele>-0.102</ele>
  <time>2026-09-02T22:07:27Z</time>
  <course>9.1</course>
  <speed>1.790111728356641</speed>
  <fix>3d</fix>
</trkpt>
<trkpt lat="33.8103434" lon="-118.394347">
  <ele>-0.102</ele>
  <time>2026-09-02T22:07:27Z</time>
  <course>9.1</course>
  <speed>1.790111728356641</speed>
  <fix>3d</fix>
</trkpt>
<trkpt lat="33.8103435" lon="-118.3943443">
  <ele>-0.1</ele>
  <time>2026-09-02T22:07:27Z</time>
  <course>276.82</course>
  <speed>1.82</speed>
  <fix>3d</fix>
</trkpt>
<trkpt lat="33.8103435" lon="-118.3943471">
  <ele>-0.102</ele>
  <time>2026-09-02T22:07:27Z</time>
  <course>9.1</course>
  <speed>1.790111728356641</speed>
  <fix>3d</fix>
</trkpt>
<trkpt lat="33.8103435" lon="-118.3943473">
  <ele>-0.102</ele>
  <time>2026-09-02T22:07:27Z</time>
  <course>9.1</course>
  <speed>1.790111728356641</speed>
  <fix>3d</fix>
</trkpt>
<trkpt lat="33.8103435" lon="-118.3943475">
  <ele>-0.102</ele>
  <time>2026-09-02T22:07:27Z</time>
  <course>9.1</course>
  <speed>1.790111728356641</speed>
  <fix>3d</fix>
</trkpt>
<trkpt lat="33.8103435" lon="-118.3943476">
  <ele>-0.102</ele>
  <time>2026-09-02T22:07:27Z</time>
  <course>9.1</course>
  <speed>1.790111728356641</speed>
  <fix>3d</fix>
</trkpt>
<trkpt lat="33.8103435" lon="-118.3943478">
  <ele>-0.102</ele>
  <time>2026-09-02T22:07:27Z</time>
  <course>9.1</course>
  <speed>1.790111728356641</speed>
  <fix>3d</fix>
</trkpt>
<trkpt lat="33.8103435" lon="-118.3943479">
  <ele>-0.102</ele>
  <time>2026-09-02T22:07:27Z</time>
  <course>9.1</course>
  <speed>1.790111728356641</speed>
  <fix>3d</fix>
</trkpt>
<trkpt lat="33.8103436" lon="-118.394348">
  <ele>-0.102</ele>
  <time>2026-09-02T22:07:27Z</time>
  <course>9.1</course>
  <speed>1.790111728356641</speed>
  <fix>3d</fix>
</trkpt>
<trkpt lat="33.8103436" lon="-118.3943482">
  <ele>-0.101</ele>
  <time>2026-09-02T22:07:27Z</time>
  <course>9.1</course>
  <speed>1.790111728356641</speed>
  <fix>3d</fix>
</trkpt>
<trkpt lat="33.8103436" lon="-118.3943483">
  <ele>-0.101</ele>
  <time>2026-09-02T22:07:27Z</time>
  <course>9.1</course>
  <speed>1.790111728356641</speed>
  <fix>3d</fix>
</trkpt>
<trkpt lat="33.8103436" lon="-118.3943485">
  <ele>-0.101</ele>
  <time>2026-09-02T22:07:27Z</time>
  <course>9.1</course>
  <speed>1.790111728356641</speed>
  <fix>3d</fix>
</trkpt>
<trkpt lat="33.8103436" lon="-118.3943486">
  <ele>-0.101</ele>
  <time>2026-09-02T22:07:27Z</time>
  <course>9.1</course>
  <speed>1.790111728356641</speed>
  <fix>3d</fix>
</trkpt>
<trkpt lat="33.8103436" lon="-118.3943488">
  <ele>-0.101</ele>
  <time>2026-09-02T22:07:27Z</time>
  <course>9.1</course>
  <speed>1.790111728356641</speed>
  <fix>3d</fix>
</trkpt>
<trkpt lat="33.8103436" lon="-118.3943489">
  <ele>-0.101</ele>
  <time>2026-09-02T22:07:27Z</time>
  <course>9.11</course>
  <speed>1.790111728356641</speed>
  <fix>3d</fix>
</trkpt>
<trkpt lat="33.8103436" lon="-118.394349">
  <ele>-0.101</ele>
  <time>2026-09-02T22:07:27Z</time>
  <course>9.11</course>
  <speed>1.790111728356641</speed>
  <fix>3d</fix>
</trkpt>
<trkpt lat="33.8103435" lon="-118.3943443">
  <ele>-0.1</ele>
  <time>2026-09-02T22:07:27Z</time>
  <course>276.82</course>
  <speed>1.82</speed>
  <fix>3d</fix>
</trkpt>
<trkpt lat="33.8103437" lon="-118.394349">
  <ele>-0.101</ele>
  <time>2026-09-02T22:07:27Z</time>
  <course>9.11</course>
  <speed>1.790111728356641</speed>
  <fix>3d</fix>
</trkpt>
<trkpt lat="33.8103437" lon="-118.3943492">
  <ele>-0.101</ele>
  <time>2026-09-02T22:07:27Z</time>
  <course>9.11</course>
  <speed>1.790111728356641</speed>
  <fix>3d</fix>
</trkpt>
<trkpt lat="33.8103437" lon="-118.3943494">
  <ele>-0.101</ele>
  <time>2026-09-02T22:07:27Z</time>
  <course>9.11</course>
  <speed>1.790111728356641</speed>
  <fix>3d</fix>
</trkpt>
<trkpt lat="33.8103437" lon="-118.3943495">
  <ele>-0.101</ele>
  <time>2026-09-02T22:07:27Z</time>
  <course>9.11</course>
  <speed>1.790111728356641</speed>
  <fix>3d</fix>
</trkpt>
<trkpt lat="33.8103437" lon="-118.3943497">
  <ele>-0.1</ele>
  <time>2026-09-02T22:07:27Z</time>
  <course>9.11</course>
  <speed>1.790111728356641</speed>
  <fix>3d</fix>
</trkpt>
<trkpt lat="33.8103437" lon="-118.3943498">
  <ele>-0.1</ele>
  <time>2026-09-02T22:07:27Z</time>
  <course>9.11</course>
  <speed>1.790111728356641</speed>
  <fix>3d</fix>
</trkpt>
<trkpt lat="33.8103437" lon="-118.39435">
  <ele>-0.1</ele>
  <time>2026-09-02T22:07:27Z</time>
  <course>9.11</course>
  <speed>1.790111728356641</speed>
  <fix>3d</fix>
</trkpt>
<trkpt lat="33.8103438" lon="-118.3943501">
  <ele>-0.1</ele>
  <time>2026-09-02T22:07:27Z</time>
  <course>9.11</course>
  <speed>1.790111728356641</speed>
  <fix>3d</fix>
</trkpt>
<trkpt lat="33.8103438" lon="-118.3943503">
  <ele>-0.101</ele>
  <time>2026-09-02T22:07:27Z</time>
  <course>9.11</course>
  <speed>1.790111728356641</speed>
  <fix>3d</fix>
</trkpt>
<trkpt lat="33.8103438" lon="-118.3943504">
  <ele>-0.101</ele>
  <time>2026-09-02T22:07:27Z</time>
  <course>9.11</course>
  <speed>1.790111728356641</speed>
  <fix>3d</fix>
</trkpt>
<trkpt lat="33.8103438" lon="-118.3943506">
  <ele>-0.101</ele>
  <time>2026-09-02T22:07:27Z</time>
  <course>9.11</course>
  <speed>1.790111728356641</speed>
  <fix>3d</fix>
</trkpt>
<trkpt lat="33.8103438" lon="-118.3943507">
  <ele>-0.101</ele>
  <time>2026-09-02T22:07:27Z</time>
  <course>9.11</course>
  <speed>1.790111728356641</speed>
  <fix>3d</fix>
</trkpt>
<trkpt lat="33.8103438" lon="-118.3943509">
  <ele>-0.101</ele>
  <time>2026-09-02T22:07:27Z</time>
  <course>9.11</course>
  <speed>1.790111728356641</speed>
  <fix>3d</fix>
</trkpt>
<trkpt lat="33.8103438" lon="-118.3943509">
  <ele>-0.101</ele>
  <time>2026-09-02T22:07:27Z</time>
  <course>9.11</course>
  <speed>1.790111728356641</speed>
  <fix>3d</fix>
</trkpt>
<trkpt lat="33.8103438" lon="-118.3943483">
  <ele>-0.1</ele>
  <time>2026-09-02T22:07:27Z</time>
  <course>276.84</course>
  <speed>1.82</speed>
  <fix>3d</fix>
</trkpt>
<trkpt lat="33.8103438" lon="-118.394351">
  <ele>-0.101</ele>
  <time>2026-09-02T22:07:27Z</time>
  <course>9.11</course>
  <speed>1.790111728356641</speed>
  <fix>3d</fix>
</trkpt>
<trkpt lat="33.8103439" lon="-118.3943511">
  <ele>-0.101</ele>
  <time>2026-09-02T22:07:27Z</time>
  <course>9.12</course>
  <speed>1.790111728356641</speed>
  <fix>3d</fix>
</trkpt>
<trkpt lat="33.8103439" lon="-118.3943513">
  <ele>-0.101</ele>
  <time>2026-09-02T22:07:27Z</time>
  <course>9.12</course>
  <speed>1.790111728356641</speed>
  <fix>3d</fix>
</trkpt>
<trkpt lat="33.8103439" lon="-118.3943514">
  <ele>-0.101</ele>
  <time>2026-09-02T22:07:27Z</time>
  <course>9.12</course>
  <speed>1.790111728356641</speed>
  <fix>3d</fix>
</trkpt>
<trkpt lat="33.8103439" lon="-118.3943516">
  <ele>-0.101</ele>
  <time>2026-09-02T22:07:27Z</time>
  <course>9.12</course>
  <speed>1.790111728356641</speed>
  <fix>3d</fix>
</trkpt>
<trkpt lat="33.8103439" lon="-118.3943517">
  <ele>-0.101</ele>
  <time>2026-09-02T22:07:27Z</time>
  <course>9.12</course>
  <speed>1.790111728356641</speed>
  <fix>3d</fix>
</trkpt>
<trkpt lat="33.8103439" lon="-118.3943519">
  <ele>-0.101</ele>
  <time>2026-09-02T22:07:27Z</time>
  <course>9.12</course>
  <speed>1.790111728356641</speed>
  <fix>3d</fix>
</trkpt>
<trkpt lat="33.810344" lon="-118.394352">
  <ele>-0.101</ele>
  <time>2026-09-02T22:07:27Z</time>
  <course>9.12</course>
  <speed>1.790111728356641</speed>
  <fix>3d</fix>
</trkpt>
<trkpt lat="33.810344" lon="-118.3943522">
  <ele>-0.101</ele>
  <time>2026-09-02T22:07:27Z</time>
  <course>9.12</course>
  <speed>1.790111728356641</speed>
  <fix>3d</fix>
</trkpt>
<trkpt lat="33.810344" lon="-118.3943523">
  <ele>-0.101</ele>
  <time>2026-09-02T22:07:27Z</time>
  <course>9.12</course>
  <speed>1.790111728356641</speed>
  <fix>3d</fix>
</trkpt>
<trkpt lat="33.810344" lon="-118.3943525">
  <ele>-0.101</ele>
  <time>2026-09-02T22:07:27Z</time>
  <course>9.12</course>
  <speed>1.790111728356641</speed>
  <fix>3d</fix>
</trkpt>
<trkpt lat="33.810344" lon="-118.3943526">
  <ele>-0.101</ele>
  <time>2026-09-02T22:07:27Z</time>
  <course>9.12</course>
  <speed>1.790111728356641</speed>
  <fix>3d</fix>
</trkpt>
<trkpt lat="33.810344" lon="-118.3943528">
  <ele>-0.101</ele>
  <time>2026-09-02T22:07:27Z</time>
  <course>9.12</course>
  <speed>1.790111728356641</speed>
  <fix>3d</fix>
</trkpt>
<trkpt lat="33.810344" lon="-118.3943529">
  <ele>-0.101</ele>
  <time>2026-09-02T22:07:27Z</time>
  <course>9.12</course>
  <speed>1.790111728356641</speed>
  <fix>3d</fix>
</trkpt>
<trkpt lat="33.8103438" lon="-118.3943483">
  <ele>-0.1</ele>
  <time>2026-09-02T22:07:27Z</time>
  <course>276.84</course>
  <speed>1.82</speed>
  <fix>3d</fix>
</trkpt>
<trkpt lat="33.810344" lon="-118.3943529">
  <ele>-0.101</ele>
  <time>2026-09-02T22:07:27Z</time>
  <course>9.12</course>
  <speed>1.790111728356641</speed>
  <fix>3d</fix>
</trkpt>
<trkpt lat="33.8103441" lon="-118.3943531">
  <ele>-0.102</ele>
  <time>2026-09-02T22:07:27Z</time>
  <course>9.12</course>
  <speed>1.790111728356641</speed>
  <fix>3d</fix>
</trkpt>
<trkpt lat="33.8103441" lon="-118.3943532">
  <ele>-0.102</ele>
  <time>2026-09-02T22:07:27Z</time>
  <course>9.12</course>
  <speed>1.790111728356641</speed>
  <fix>3d</fix>
</trkpt>
<trkpt lat="33.8103441" lon="-118.3943533">
  <ele>-0.102</ele>
  <time>2026-09-02T22:07:27Z</time>
  <course>9.13</course>
  <speed>1.790111728356641</speed>
  <fix>3d</fix>
</trkpt>
<trkpt lat="33.8103441" lon="-118.3943535">
  <ele>-0.102</ele>
  <time>2026-09-02T22:07:27Z</time>
  <course>9.13</course>
  <speed>1.790111728356641</speed>
  <fix>3d</fix>
</trkpt>
<trkpt lat="33.8103441" lon="-118.3943536">
  <ele>-0.102</ele>
  <time>2026-09-02T22:07:27Z</time>
  <course>9.13</course>
  <speed>1.790111728356641</speed>
  <fix>3d</fix>
</trkpt>
<trkpt lat="33.8103441" lon="-118.3943537">
  <ele>-0.102</ele>
  <time>2026-09-02T22:07:27Z</time>
  <course>9.13</course>
  <speed>1.790111728356641</speed>
  <fix>3d</fix>
</trkpt>
<trkpt lat="33.8103441" lon="-118.3943538">
  <ele>-0.102</ele>
  <time>2026-09-02T22:07:27Z</time>
  <course>9.13</course>
  <speed>1.790111728356641</speed>
  <fix>3d</fix>
</trkpt>
<trkpt lat="33.8103442" lon="-118.394354">
  <ele>-0.103</ele>
  <time>2026-09-02T22:07:27Z</time>
  <course>9.13</course>
  <speed>1.790111728356641</speed>
  <fix>3d</fix>
</trkpt>
<trkpt lat="33.8103442" lon="-118.3943541">
  <ele>-0.103</ele>
  <time>2026-09-02T22:07:27Z</time>
  <course>9.13</course>
  <speed>1.790111728356641</speed>
  <fix>3d</fix>
</trkpt>
<trkpt lat="33.8103442" lon="-118.3943543">
  <ele>-0.103</ele>
  <time>2026-09-02T22:07:27Z</time>
  <course>9.13</course>
  <speed>1.790111728356641</speed>
  <fix>3d</fix>
</trkpt>
<trkpt lat="33.8103442" lon="-118.3943544">
  <ele>-0.103</ele>
  <time>2026-09-02T22:07:27Z</time>
  <course>9.13</course>
  <speed>1.790111728356641</speed>
  <fix>3d</fix>
</trkpt>
<trkpt lat="33.8103442" lon="-118.3943545">
  <ele>-0.103</ele>
  <time>2026-09-02T22:07:27Z</time>
  <course>9.13</course>
  <speed>1.790111728356641</speed>
  <fix>3d</fix>
</trkpt>
<trkpt lat="33.8103442" lon="-118.3943547">
  <ele>-0.103</ele>
  <time>2026-09-02T22:07:27Z</time>
  <course>9.13</course>
  <speed>1.790111728356641</speed>
  <fix>3d</fix>
</trkpt>
<trkpt lat="33.8103442" lon="-118.3943548">
  <ele>-0.103</ele>
  <time>2026-09-02T22:07:27Z</time>
  <course>9.13</course>
  <speed>1.790111728356641</speed>
  <fix>3d</fix>
</trkpt>
<trkpt lat="33.8103442" lon="-118.3943522">
  <ele>-0.1</ele>
  <time>2026-09-02T22:07:27Z</time>
  <course>276.87</course>
  <speed>1.82</speed>
  <fix>3d</fix>
</trkpt>
<trkpt lat="33.8103442" lon="-118.3943548">
  <ele>-0.103</ele>
  <time>2026-09-02T22:07:27Z</time>
  <course>9.13</course>
  <speed>1.790111728356641</speed>
  <fix>3d</fix>
</trkpt>
<trkpt lat="33.8103443" lon="-118.394355">
  <ele>-0.104</ele>
  <time>2026-09-02T22:07:27Z</time>
  <course>9.13</course>
  <speed>1.790111728356641</speed>
  <fix>3d</fix>
</trkpt>
<trkpt lat="33.8103443" lon="-118.3943552">
  <ele>-0.104</ele>
  <time>2026-09-02T22:07:27Z</time>
  <course>9.13</course>
  <speed>1.790111728356641</speed>
  <fix>3d</fix>
</trkpt>
<trkpt lat="33.8103443" lon="-118.3943553">
  <ele>-0.104</ele>
  <time>2026-09-02T22:07:27Z</time>
  <course>9.13</course>
  <speed>1.790111728356641</speed>
  <fix>3d</fix>
</trkpt>
<trkpt lat="33.8103443" lon="-118.3943555">
  <ele>-0.104</ele>
  <time>2026-09-02T22:07:27Z</time>
  <course>9.14</course>
  <speed>1.790111728356641</speed>
  <fix>3d</fix>
</trkpt>
<trkpt lat="33.8103443" lon="-118.3943556">
  <ele>-0.104</ele>
  <time>2026-09-02T22:07:27Z</time>
  <course>9.14</course>
  <speed>1.790111728356641</speed>
  <fix>3d</fix>
</trkpt>
<trkpt lat="33.8103443" lon="-118.3943558">
  <ele>-0.104</ele>
  <time>2026-09-02T22:07:27Z</time>
  <course>9.14</course>
  <speed>1.790111728356641</speed>
  <fix>3d</fix>
</trkpt>
<trkpt lat="33.8103444" lon="-118.394356">
  <ele>-0.105</ele>
  <time>2026-09-02T22:07:27Z</time>
  <course>9.14</course>
  <speed>1.790111728356641</speed>
  <fix>3d</fix>
</trkpt>
<trkpt lat="33.8103444" lon="-118.3943561">
  <ele>-0.105</ele>
  <time>2026-09-02T22:07:27Z</time>
  <course>9.14</course>
  <speed>1.790111728356641</speed>
  <fix>3d</fix>
</trkpt>
<trkpt lat="33.8103444" lon="-118.3943563">
  <ele>-0.105</ele>
  <time>2026-09-02T22:07:27Z</time>
  <course>9.14</course>
  <speed>1.790111728356641</speed>
  <fix>3d</fix>
</trkpt>
<trkpt lat="33.8103444" lon="-118.3943564">
  <ele>-0.105</ele>
  <time>2026-09-02T22:07:27Z</time>
  <course>9.14</course>
  <speed>1.790111728356641</speed>
  <fix>3d</fix>
</trkpt>
<trkpt lat="33.8103444" lon="-118.3943566">
  <ele>-0.105</ele>
  <time>2026-09-02T22:07:27Z</time>
  <course>9.14</course>
  <speed>1.790111728356641</speed>
  <fix>3d</fix>
</trkpt>
<trkpt lat="33.8103444" lon="-118.3943567">
  <ele>-0.106</ele>
  <time>2026-09-02T22:07:27Z</time>
  <course>9.14</course>
  <speed>1.790111728356641</speed>
  <fix>3d</fix>
</trkpt>
<trkpt lat="33.8103444" lon="-118.3943568">
  <ele>-0.106</ele>
  <time>2026-09-02T22:07:27Z</time>
  <course>9.14</course>
  <speed>1.790111728356641</speed>
  <fix>3d</fix>
</trkpt>
<trkpt lat="33.8103442" lon="-118.3943522">
  <ele>-0.1</ele>
  <time>2026-09-02T22:07:27Z</time>
  <course>276.87</course>
  <speed>1.82</speed>
  <fix>3d</fix>
</trkpt>
<trkpt lat="33.8103444" lon="-118.3943568">
  <ele>-0.106</ele>
  <time>2026-09-02T22:07:27Z</time>
  <course>9.14</course>
  <speed>1.790111728356641</speed>
  <fix>3d</fix>
</trkpt>
<trkpt lat="33.8103444" lon="-118.3943569">
  <ele>-0.106</ele>
  <time>2026-09-02T22:07:27Z</time>
  <course>9.14</course>
  <speed>1.790111728356641</speed>
  <fix>3d</fix>
</trkpt>
<trkpt lat="33.8103445" lon="-118.394357">
  <ele>-0.106</ele>
  <time>2026-09-02T22:07:27Z</time>
  <course>9.14</course>
  <speed>1.790111728356641</speed>
  <fix>3d</fix>
</trkpt>
<trkpt lat="33.8103445" lon="-118.3943572">
  <ele>-0.106</ele>
  <time>2026-09-02T22:07:27Z</time>
  <course>9.14</course>
  <speed>1.790111728356641</speed>
  <fix>3d</fix>
</trkpt>
<trkpt lat="33.8103445" lon="-118.3943573">
  <ele>-0.106</ele>
  <time>2026-09-02T22:07:27Z</time>
  <course>9.14</course>
  <speed>1.790111728356641</speed>
  <fix>3d</fix>
</trkpt>
<trkpt lat="33.8103445" lon="-118.3943575">
  <ele>-0.106</ele>
  <time>2026-09-02T22:07:27Z</time>
  <course>9.14</course>
  <speed>1.790111728356641</speed>
  <fix>3d</fix>
</trkpt>
<trkpt lat="33.8103445" lon="-118.3943576">
  <ele>-0.106</ele>
  <time>2026-09-02T22:07:27Z</time>
  <course>9.15</course>
  <speed>1.790111728356641</speed>
  <fix>3d</fix>
</trkpt>
<trkpt lat="33.8103445" lon="-118.3943578">
  <ele>-0.106</ele>
  <time>2026-09-02T22:07:27Z</time>
  <course>9.15</course>
  <speed>1.790111728356641</speed>
  <fix>3d</fix>
</trkpt>
<trkpt lat="33.8103445" lon="-118.3943579">
  <ele>-0.106</ele>
  <time>2026-09-02T22:07:27Z</time>
  <course>9.15</course>
  <speed>1.790111728356641</speed>
  <fix>3d</fix>
</trkpt>
<trkpt lat="33.8103446" lon="-118.3943581">
  <ele>-0.107</ele>
  <time>2026-09-02T22:07:27Z</time>
  <course>9.15</course>
  <speed>1.790111728356641</speed>
  <fix>3d</fix>
</trkpt>
<trkpt lat="33.8103446" lon="-118.3943582">
  <ele>-0.107</ele>
  <time>2026-09-02T22:07:27Z</time>
  <course>9.15</course>
  <speed>1.790111728356641</speed>
  <fix>3d</fix>
</trkpt>
<trkpt lat="33.8103446" lon="-118.3943584">
  <ele>-0.107</ele>
  <time>2026-09-02T22:07:27Z</time>
  <course>9.15</course>
  <speed>1.790111728356641</speed>
  <fix>3d</fix>
</trkpt>
<trkpt lat="33.8103446" lon="-118.3943585">
  <ele>-0.107</ele>
  <time>2026-09-02T22:07:27Z</time>
  <course>9.15</course>
  <speed>1.790111728356641</speed>
  <fix>3d</fix>
</trkpt>
<trkpt lat="33.8103446" lon="-118.3943587">
  <ele>-0.107</ele>
  <time>2026-09-02T22:07:27Z</time>
  <course>9.15</course>
  <speed>1.790111728356641</speed>
  <fix>3d</fix>
</trkpt>
<trkpt lat="33.8103446" lon="-118.3943587">
  <ele>-0.107</ele>
  <time>2026-09-02T22:07:27Z</time>
  <course>9.15</course>
  <speed>1.790111728356641</speed>
  <fix>3d</fix>
</trkpt>
<trkpt lat="33.8103445" lon="-118.3943561">
  <ele>-0.1</ele>
  <time>2026-09-02T22:07:27Z</time>
  <course>276.89</course>
  <speed>1.82</speed>
  <fix>3d</fix>
</trkpt>
<trkpt lat="33.8103446" lon="-118.3943587">
  <ele>-0.107</ele>
  <time>2026-09-02T22:07:27Z</time>
  <course>9.15</course>
  <speed>1.790111728356641</speed>
  <fix>3d</fix>
</trkpt>
<trkpt lat="33.8103447" lon="-118.3943594">
  <ele>-0.107</ele>
  <time>2026-09-02T22:07:27Z</time>
  <course>9.15</course>
  <speed>1.790111728356641</speed>
  <fix>3d</fix>
</trkpt>
<trkpt lat="33.8103447" lon="-118.3943595">
  <ele>-0.107</ele>
  <time>2026-09-02T22:07:27Z</time>
  <course>9.15</course>
  <speed>1.790111728356641</speed>
  <fix>3d</fix>
</trkpt>
<trkpt lat="33.8103447" lon="-118.3943597">
  <ele>-0.107</ele>
  <time>2026-09-02T22:07:27Z</time>
  <course>9.15</course>
  <speed>1.790111728356641</speed>
  <fix>3d</fix>
</trkpt>
<trkpt lat="33.8103447" lon="-118.3943598">
  <ele>-0.107</ele>
  <time>2026-09-02T22:07:27Z</time>
  <course>9.15</course>
  <speed>1.790111728356641</speed>
  <fix>3d</fix>
</trkpt>
<trkpt lat="33.8103447" lon="-118.39436">
  <ele>-0.107</ele>
  <time>2026-09-02T22:07:27Z</time>
  <course>9.16</course>
  <speed>1.790111728356641</speed>
  <fix>3d</fix>
</trkpt>
<trkpt lat="33.8103448" lon="-118.3943601">
  <ele>-0.107</ele>
  <time>2026-09-02T22:07:27Z</time>
  <course>9.16</course>
  <speed>1.790111728356641</speed>
  <fix>3d</fix>
</trkpt>
<trkpt lat="33.8103448" lon="-118.3943603">
  <ele>-0.107</ele>
  <time>2026-09-02T22:07:27Z</time>
  <course>9.16</course>
  <speed>1.790111728356641</speed>
  <fix>3d</fix>
</trkpt>
<trkpt lat="33.8103448" lon="-118.3943604">
  <ele>-0.107</ele>
  <time>2026-09-02T22:07:27Z</time>
  <course>9.16</course>
  <speed>1.790111728356641</speed>
  <fix>3d</fix>
</trkpt>
<trkpt lat="33.8103448" lon="-118.3943606">
  <ele>-0.108</ele>
  <time>2026-09-02T22:07:27Z</time>
  <course>9.16</course>
  <speed>1.790111728356641</speed>
  <fix>3d</fix>
</trkpt>
<trkpt lat="33.8103448" lon="-118.3943606">
  <ele>-0.108</ele>
  <time>2026-09-02T22:07:27Z</time>
  <course>9.16</course>
  <speed>1.790111728356641</speed>
  <fix>3d</fix>
</trkpt>
<trkpt lat="33.8103445" lon="-118.3943561">
  <ele>-0.1</ele>
  <time>2026-09-02T22:07:27Z</time>
  <course>276.89</course>
  <speed>1.82</speed>
  <fix>3d</fix>
</trkpt>
<trkpt lat="33.8103448" lon="-118.3943607">
  <ele>-0.108</ele>
  <time>2026-09-02T22:07:27Z</time>
  <course>9.16</course>
  <speed>1.790111728356641</speed>
  <fix>3d</fix>
</trkpt>
<trkpt lat="33.8103448" lon="-118.3943609">
  <ele>-0.108</ele>
  <time>2026-09-02T22:07:27Z</time>
  <course>9.16</course>
  <speed>1.790111728356641</speed>
  <fix>3d</fix>
</trkpt>
<trkpt lat="33.8103449" lon="-118.394361">
  <ele>-0.108</ele>
  <time>2026-09-02T22:07:27Z</time>
  <course>9.16</course>
  <speed>1.790111728356641</speed>
  <fix>3d</fix>
</trkpt>
<trkpt lat="33.8103449" lon="-118.3943612">
  <ele>-0.108</ele>
  <time>2026-09-02T22:07:27Z</time>
  <course>9.16</course>
  <speed>1.790111728356641</speed>
  <fix>3d</fix>
</trkpt>
<trkpt lat="33.8103449" lon="-118.3943613">
  <ele>-0.108</ele>
  <time>2026-09-02T22:07:27Z</time>
  <course>9.16</course>
  <speed>1.790111728356641</speed>
  <fix>3d</fix>
</trkpt>
<trkpt lat="33.8103449" lon="-118.3943615">
  <ele>-0.108</ele>
  <time>2026-09-02T22:07:27Z</time>
  <course>9.16</course>
  <speed>1.790111728356641</speed>
  <fix>3d</fix>
</trkpt>
<trkpt lat="33.8103449" lon="-118.3943616">
  <ele>-0.108</ele>
  <time>2026-09-02T22:07:27Z</time>
  <course>9.16</course>
  <speed>1.790111728356641</speed>
  <fix>3d</fix>
</trkpt>
<trkpt lat="33.8103449" lon="-118.3943618">
  <ele>-0.108</ele>
  <time>2026-09-02T22:07:27Z</time>
  <course>9.16</course>
  <speed>1.790111728356641</speed>
  <fix>3d</fix>
</trkpt>
<trkpt lat="33.8103449" lon="-118.3943619">
  <ele>-0.108</ele>
  <time>2026-09-02T22:07:27Z</time>
  <course>9.16</course>
  <speed>1.790111728356641</speed>
  <fix>3d</fix>
</trkpt>
<trkpt lat="33.810345" lon="-118.3943621">
  <ele>-0.108</ele>
  <time>2026-09-02T22:07:27Z</time>
  <course>9.16</course>
  <speed>1.790111728356641</speed>
  <fix>3d</fix>
</trkpt>
<trkpt lat="33.810345" lon="-118.3943622">
  <ele>-0.108</ele>
  <time>2026-09-02T22:07:27Z</time>
  <course>9.17</course>
  <speed>1.790111728356641</speed>
  <fix>3d</fix>
</trkpt>
<trkpt lat="33.810345" lon="-118.3943624">
  <ele>-0.108</ele>
  <time>2026-09-02T22:07:27Z</time>
  <course>9.17</course>
  <speed>1.790111728356641</speed>
  <fix>3d</fix>
</trkpt>
<trkpt lat="33.810345" lon="-118.3943625">
  <ele>-0.108</ele>
  <time>2026-09-02T22:07:27Z</time>
  <course>9.17</course>
  <speed>1.790111728356641</speed>
  <fix>3d</fix>
</trkpt>
<trkpt lat="33.810345" lon="-118.3943626">
  <ele>-0.108</ele>
  <time>2026-09-02T22:07:27Z</time>
  <course>9.17</course>
  <speed>1.790111728356641</speed>
  <fix>3d</fix>
</trkpt>
<trkpt lat="33.810345" lon="-118.39436">
  <ele>-0.1</ele>
  <time>2026-09-02T22:07:27Z</time>
  <course>276.91</course>
  <speed>1.82</speed>
  <fix>3d</fix>
</trkpt>
<trkpt lat="33.810345" lon="-118.3943626">
  <ele>-0.108</ele>
  <time>2026-09-02T22:07:27Z</time>
  <course>9.17</course>
  <speed>1.790111728356641</speed>
  <fix>3d</fix>
</trkpt>
<trkpt lat="33.810345" lon="-118.3943628">
  <ele>-0.108</ele>
  <time>2026-09-02T22:07:27Z</time>
  <course>9.17</course>
  <speed>1.790111728356641</speed>
  <fix>3d</fix>
</trkpt>
<trkpt lat="33.810345" lon="-118.394363">
  <ele>-0.108</ele>
  <time>2026-09-02T22:07:27Z</time>
  <course>9.17</course>
  <speed>1.790111728356641</speed>
  <fix>3d</fix>
</trkpt>
<trkpt lat="33.8103451" lon="-118.3943631">
  <ele>-0.108</ele>
  <time>2026-09-02T22:07:27Z</time>
  <course>9.17</course>
  <speed>1.790111728356641</speed>
  <fix>3d</fix>
</trkpt>
<trkpt lat="33.8103451" lon="-118.3943633">
  <ele>-0.108</ele>
  <time>2026-09-02T22:07:27Z</time>
  <course>9.17</course>
  <speed>1.790111728356641</speed>
  <fix>3d</fix>
</trkpt>
<trkpt lat="33.8103451" lon="-118.3943634">
  <ele>-0.108</ele>
  <time>2026-09-02T22:07:27Z</time>
  <course>9.17</course>
  <speed>1.790111728356641</speed>
  <fix>3d</fix>
</trkpt>
<trkpt lat="33.8103451" lon="-118.3943636">
  <ele>-0.108</ele>
  <time>2026-09-02T22:07:27Z</time>
  <course>9.17</course>
  <speed>1.790111728356641</speed>
  <fix>3d</fix>
</trkpt>
<trkpt lat="33.8103451" lon="-118.3943637">
  <ele>-0.108</ele>
  <time>2026-09-02T22:07:27Z</time>
  <course>9.17</course>
  <speed>1.790111728356641</speed>
  <fix>3d</fix>
</trkpt>
<trkpt lat="33.8103451" lon="-118.3943639">
  <ele>-0.108</ele>
  <time>2026-09-02T22:07:27Z</time>
  <course>9.17</course>
  <speed>1.790111728356641</speed>
  <fix>3d</fix>
</trkpt>
<trkpt lat="33.8103452" lon="-118.394364">
  <ele>-0.108</ele>
  <time>2026-09-02T22:07:27Z</time>
  <course>9.17</course>
  <speed>1.790111728356641</speed>
  <fix>3d</fix>
</trkpt>
<trkpt lat="33.8103452" lon="-118.3943642">
  <ele>-0.109</ele>
  <time>2026-09-02T22:07:27Z</time>
  <course>9.17</course>
  <speed>1.790111728356641</speed>
  <fix>3d</fix>
</trkpt>
<trkpt lat="33.8103452" lon="-118.3943643">
  <ele>-0.109</ele>
  <time>2026-09-02T22:07:27Z</time>
  <course>9.17</course>
  <speed>1.790111728356641</speed>
  <fix>3d</fix>
</trkpt>
<trkpt lat="33.8103452" lon="-118.3943644">
  <ele>-0.109</ele>
  <time>2026-09-02T22:07:27Z</time>
  <course>9.18</course>
  <speed>1.790111728356641</speed>
  <fix>3d</fix>
</trkpt>
<trkpt lat="33.8103452" lon="-118.3943645">
  <ele>-0.109</ele>
  <time>2026-09-02T22:07:27Z</time>
  <course>9.18</course>
  <speed>1.790111728356641</speed>
  <fix>3d</fix>
</trkpt>
<trkpt lat="33.810345" lon="-118.39436">
  <ele>-0.1</ele>
  <time>2026-09-02T22:07:27Z</time>
  <course>276.91</course>
  <speed>1.82</speed>
  <fix>3d</fix>
</trkpt>
<trkpt lat="33.8103452" lon="-118.3943646">
  <ele>-0.109</ele>
  <time>2026-09-02T22:07:27Z</time>
  <course>9.18</course>
  <speed>1.790111728356641</speed>
  <fix>3d</fix>
</trkpt>
<trkpt lat="33.8103452" lon="-118.3943648">
  <ele>-0.109</ele>
  <time>2026-09-02T22:07:27Z</time>
  <course>9.18</course>
  <speed>1.790111728356641</speed>
  <fix>3d</fix>
</trkpt>
<trkpt lat="33.8103452" lon="-118.3943649">
  <ele>-0.109</ele>
  <time>2026-09-02T22:07:27Z</time>
  <course>9.18</course>
  <speed>1.790111728356641</speed>
  <fix>3d</fix>
</trkpt>
<trkpt lat="33.8103453" lon="-118.3943651">
  <ele>-0.109</ele>
  <time>2026-09-02T22:07:27Z</time>
  <course>9.18</course>
  <speed>1.790111728356641</speed>
  <fix>3d</fix>
</trkpt>
<trkpt lat="33.8103453" lon="-118.3943652">
  <ele>-0.109</ele>
  <time>2026-09-02T22:07:27Z</time>
  <course>9.18</course>
  <speed>1.790111728356641</speed>
  <fix>3d</fix>
</trkpt>
<trkpt lat="33.8103453" lon="-118.3943654">
  <ele>-0.109</ele>
  <time>2026-09-02T22:07:27Z</time>
  <course>9.18</course>
  <speed>1.790111728356641</speed>
  <fix>3d</fix>
</trkpt>
<trkpt lat="33.8103453" lon="-118.3943656">
  <ele>-0.109</ele>
  <time>2026-09-02T22:07:27Z</time>
  <course>9.18</course>
  <speed>1.790111728356641</speed>
  <fix>3d</fix>
</trkpt>
<trkpt lat="33.8103453" lon="-118.3943657">
  <ele>-0.109</ele>
  <time>2026-09-02T22:07:27Z</time>
  <course>9.18</course>
  <speed>1.790111728356641</speed>
  <fix>3d</fix>
</trkpt>
<trkpt lat="33.8103453" lon="-118.3943659">
  <ele>-0.109</ele>
  <time>2026-09-02T22:07:27Z</time>
  <course>9.18</course>
  <speed>1.790111728356641</speed>
  <fix>3d</fix>
</trkpt>
<trkpt lat="33.8103453" lon="-118.394366">
  <ele>-0.109</ele>
  <time>2026-09-02T22:07:27Z</time>
  <course>9.18</course>
  <speed>1.790111728356641</speed>
  <fix>3d</fix>
</trkpt>
<trkpt lat="33.8103454" lon="-118.3943662">
  <ele>-0.109</ele>
  <time>2026-09-02T22:07:27Z</time>
  <course>9.18</course>
  <speed>1.790111728356641</speed>
  <fix>3d</fix>
</trkpt>
<trkpt lat="33.8103454" lon="-118.3943663">
  <ele>-0.109</ele>
  <time>2026-09-02T22:07:27Z</time>
  <course>9.18</course>
  <speed>1.790111728356641</speed>
  <fix>3d</fix>
</trkpt>
<trkpt lat="33.8103454" lon="-118.3943664">
  <ele>-0.109</ele>
  <time>2026-09-02T22:07:27Z</time>
  <course>9.18</course>
  <speed>1.790111728356641</speed>
  <fix>3d</fix>
</trkpt>
<trkpt lat="33.8103454" lon="-118.3943665">
  <ele>-0.109</ele>
  <time>2026-09-02T22:07:27Z</time>
  <course>9.18</course>
  <speed>1.790111728356641</speed>
  <fix>3d</fix>
</trkpt>
<trkpt lat="33.8103454" lon="-118.3943639">
  <ele>-0.1</ele>
  <time>2026-09-02T22:07:27Z</time>
  <course>276.93</course>
  <speed>1.82</speed>
  <fix>3d</fix>
</trkpt>
<trkpt lat="33.8103454" lon="-118.3943665">
  <ele>-0.109</ele>
  <time>2026-09-02T22:07:27Z</time>
  <course>9.18</course>
  <speed>1.790111728356641</speed>
  <fix>3d</fix>
</trkpt>
<trkpt lat="33.8103454" lon="-118.3943667">
  <ele>-0.11</ele>
  <time>2026-09-02T22:07:27Z</time>
  <course>9.19</course>
  <speed>1.790111728356641</speed>
  <fix>3d</fix>
</trkpt>
<trkpt lat="33.8103454" lon="-118.3943668">
  <ele>-0.11</ele>
  <time>2026-09-02T22:07:27Z</time>
  <course>9.19</course>
  <speed>1.790111728356641</speed>
  <fix>3d</fix>
</trkpt>
<trkpt lat="33.8103454" lon="-118.3943669">
  <ele>-0.11</ele>
  <time>2026-09-02T22:07:27Z</time>
  <course>9.19</course>
  <speed>1.790111728356641</speed>
  <fix>3d</fix>
</trkpt>
<trkpt lat="33.8103455" lon="-118.3943671">
  <ele>-0.11</ele>
  <time>2026-09-02T22:07:27Z</time>
  <course>9.19</course>
  <speed>1.790111728356641</speed>
  <fix>3d</fix>
</trkpt>
<trkpt lat="33.8103455" lon="-118.3943672">
  <ele>-0.11</ele>
  <time>2026-09-02T22:07:27Z</time>
  <course>9.19</course>
  <speed>1.790111728356641</speed>
  <fix>3d</fix>
</trkpt>
<trkpt lat="33.8103455" lon="-118.3943673">
  <ele>-0.11</ele>
  <time>2026-09-02T22:07:27Z</time>
  <course>9.19</course>
  <speed>1.790111728356641</speed>
  <fix>3d</fix>
</trkpt>
<trkpt lat="33.8103455" lon="-118.3943675">
  <ele>-0.11</ele>
  <time>2026-09-02T22:07:27Z</time>
  <course>9.19</course>
  <speed>1.790111728356641</speed>
  <fix>3d</fix>
</trkpt>
<trkpt lat="33.8103455" lon="-118.3943676">
  <ele>-0.11</ele>
  <time>2026-09-02T22:07:27Z</time>
  <course>9.19</course>
  <speed>1.790111728356641</speed>
  <fix>3d</fix>
</trkpt>
<trkpt lat="33.8103455" lon="-118.3943678">
  <ele>-0.11</ele>
  <time>2026-09-02T22:07:27Z</time>
  <course>9.19</course>
  <speed>1.790111728356641</speed>
  <fix>3d</fix>
</trkpt>
<trkpt lat="33.8103455" lon="-118.3943679">
  <ele>-0.11</ele>
  <time>2026-09-02T22:07:27Z</time>
  <course>9.19</course>
  <speed>1.790111728356641</speed>
  <fix>3d</fix>
</trkpt>
<trkpt lat="33.8103456" lon="-118.3943681">
  <ele>-0.11</ele>
  <time>2026-09-02T22:07:27Z</time>
  <course>9.19</course>
  <speed>1.790111728356641</speed>
  <fix>3d</fix>
</trkpt>
<trkpt lat="33.8103456" lon="-118.3943682">
  <ele>-0.11</ele>
  <time>2026-09-02T22:07:27Z</time>
  <course>9.19</course>
  <speed>1.790111728356641</speed>
  <fix>3d</fix>
</trkpt>
<trkpt lat="33.8103456" lon="-118.3943683">
  <ele>-0.11</ele>
  <time>2026-09-02T22:07:27Z</time>
  <course>9.19</course>
  <speed>1.790111728356641</speed>
  <fix>3d</fix>
</trkpt>
<trkpt lat="33.8103456" lon="-118.3943684">
  <ele>-0.11</ele>
  <time>2026-09-02T22:07:27Z</time>
  <course>9.19</course>
  <speed>1.790111728356641</speed>
  <fix>3d</fix>
</trkpt>
<trkpt lat="33.8103454" lon="-118.3943639">
  <ele>-0.1</ele>
  <time>2026-09-02T22:07:27Z</time>
  <course>276.93</course>
  <speed>1.82</speed>
  <fix>3d</fix>
</trkpt>
<trkpt lat="33.8103456" lon="-118.3943685">
  <ele>-0.11</ele>
  <time>2026-09-02T22:07:27Z</time>
  <course>9.19</course>
  <speed>1.790111728356641</speed>
  <fix>3d</fix>
</trkpt>
<trkpt lat="33.8103456" lon="-118.3943686">
  <ele>-0.11</ele>
  <time>2026-09-02T22:07:27Z</time>
  <course>9.19</course>
  <speed>1.790111728356641</speed>
  <fix>3d</fix>
</trkpt>
<trkpt lat="33.8103456" lon="-118.3943688">
  <ele>-0.11</ele>
  <time>2026-09-02T22:07:27Z</time>
  <course>9.19</course>
  <speed>1.790111728356641</speed>
  <fix>3d</fix>
</trkpt>
<trkpt lat="33.8103456" lon="-118.3943689">
  <ele>-0.11</ele>
  <time>2026-09-02T22:07:27Z</time>
  <course>9.2</course>
  <speed>1.790111728356641</speed>
  <fix>3d</fix>
</trkpt>
<trkpt lat="33.8103457" lon="-118.3943691">
  <ele>-0.111</ele>
  <time>2026-09-02T22:07:27Z</time>
  <course>9.2</course>
  <speed>1.790111728356641</speed>
  <fix>3d</fix>
</trkpt>
<trkpt lat="33.8103457" lon="-118.3943692">
  <ele>-0.111</ele>
  <time>2026-09-02T22:07:27Z</time>
  <course>9.2</course>
  <speed>1.790111728356641</speed>
  <fix>3d</fix>
</trkpt>
<trkpt lat="33.8103457" lon="-118.3943693">
  <ele>-0.11</ele>
  <time>2026-09-02T22:07:27Z</time>
  <course>9.2</course>
  <speed>1.790111728356641</speed>
  <fix>3d</fix>
</trkpt>
<trkpt lat="33.8103457" lon="-118.3943695">
  <ele>-0.111</ele>
  <time>2026-09-02T22:07:27Z</time>
  <course>9.2</course>
  <speed>1.790111728356641</speed>
  <fix>3d</fix>
</trkpt>
<trkpt lat="33.8103457" lon="-118.3943696">
  <ele>-0.11</ele>
  <time>2026-09-02T22:07:27Z</time>
  <course>9.2</course>
  <speed>1.790111728356641</speed>
  <fix>3d</fix>
</trkpt>
<trkpt lat="33.8103457" lon="-118.3943697">
  <ele>-0.11</ele>
  <time>2026-09-02T22:07:27Z</time>
  <course>9.2</course>
  <speed>1.790111728356641</speed>
  <fix>3d</fix>
</trkpt>
<trkpt lat="33.8103457" lon="-118.3943699">
  <ele>-0.11</ele>
  <time>2026-09-02T22:07:27Z</time>
  <course>9.2</course>
  <speed>1.790111728356641</speed>
  <fix>3d</fix>
</trkpt>
<trkpt lat="33.8103458" lon="-118.39437">
  <ele>-0.11</ele>
  <time>2026-09-02T22:07:27Z</time>
  <course>9.2</course>
  <speed>1.790111728356641</speed>
  <fix>3d</fix>
</trkpt>
<trkpt lat="33.8103458" lon="-118.3943701">
  <ele>-0.11</ele>
  <time>2026-09-02T22:07:27Z</time>
  <course>9.2</course>
  <speed>1.790111728356641</speed>
  <fix>3d</fix>
</trkpt>
<trkpt lat="33.8103458" lon="-118.3943703">
  <ele>-0.11</ele>
  <time>2026-09-02T22:07:27Z</time>
  <course>9.2</course>
  <speed>1.790111728356641</speed>
  <fix>3d</fix>
</trkpt>
<trkpt lat="33.8103458" lon="-118.3943704">
  <ele>-0.11</ele>
  <time>2026-09-02T22:07:27Z</time>
  <course>9.2</course>
  <speed>1.790111728356641</speed>
  <fix>3d</fix>
</trkpt>
<trkpt lat="33.8103457" lon="-118.3943678">
  <ele>-0.1</ele>
  <time>2026-09-02T22:07:27Z</time>
  <course>276.95</course>
  <speed>1.82</speed>
  <fix>3d</fix>
</trkpt>
<trkpt lat="33.8103458" lon="-118.3943704">
  <ele>-0.11</ele>
  <time>2026-09-02T22:07:27Z</time>
  <course>9.2</course>
  <speed>1.790111728356641</speed>
  <fix>3d</fix>
</trkpt>
<trkpt lat="33.8103458" lon="-118.3943706">
  <ele>-0.11</ele>
  <time>2026-09-02T22:07:27Z</time>
  <course>9.2</course>
  <speed>1.790111728356641</speed>
  <fix>3d</fix>
</trkpt>
<trkpt lat="33.8103458" lon="-118.3943708">
  <ele>-0.11</ele>
  <time>2026-09-02T22:07:27Z</time>
  <course>9.2</course>
  <speed>1.790111728356641</speed>
  <fix>3d</fix>
</trkpt>
<trkpt lat="33.8103458" lon="-118.3943709">
  <ele>-0.11</ele>
  <time>2026-09-02T22:07:27Z</time>
  <course>9.2</course>
  <speed>1.790111728356641</speed>
  <fix>3d</fix>
</trkpt>
<trkpt lat="33.8103459" lon="-118.394371">
  <ele>-0.11</ele>
  <time>2026-09-02T22:07:27Z</time>
  <course>9.2</course>
  <speed>1.790111728356641</speed>
  <fix>3d</fix>
</trkpt>
<trkpt lat="33.8103459" lon="-118.3943712">
  <ele>-0.11</ele>
  <time>2026-09-02T22:07:27Z</time>
  <course>9.21</course>
  <speed>1.790111728356641</speed>
  <fix>3d</fix>
</trkpt>
<trkpt lat="33.8103459" lon="-118.3943713">
  <ele>-0.11</ele>
  <time>2026-09-02T22:07:27Z</time>
  <course>9.21</course>
  <speed>1.790111728356641</speed>
  <fix>3d</fix>
</trkpt>
<trkpt lat="33.8103459" lon="-118.3943714">
  <ele>-0.11</ele>
  <time>2026-09-02T22:07:27Z</time>
  <course>9.21</course>
  <speed>1.790111728356641</speed>
  <fix>3d</fix>
</trkpt>
<trkpt lat="33.8103459" lon="-118.3943716">
  <ele>-0.11</ele>
  <time>2026-09-02T22:07:27Z</time>
  <course>9.21</course>
  <speed>1.790111728356641</speed>
  <fix>3d</fix>
</trkpt>
<trkpt lat="33.8103459" lon="-118.3943717">
  <ele>-0.11</ele>
  <time>2026-09-02T22:07:27Z</time>
  <course>9.21</course>
  <speed>1.790111728356641</speed>
  <fix>3d</fix>
</trkpt>
<trkpt lat="33.8103459" lon="-118.3943719">
  <ele>-0.11</ele>
  <time>2026-09-02T22:07:27Z</time>
  <course>9.21</course>
  <speed>1.790111728356641</speed>
  <fix>3d</fix>
</trkpt>
<trkpt lat="33.810346" lon="-118.394372">
  <ele>-0.11</ele>
  <time>2026-09-02T22:07:27Z</time>
  <course>9.21</course>
  <speed>1.790111728356641</speed>
  <fix>3d</fix>
</trkpt>
<trkpt lat="33.810346" lon="-118.3943722">
  <ele>-0.11</ele>
  <time>2026-09-02T22:07:27Z</time>
  <course>9.21</course>
  <speed>1.790111728356641</speed>
  <fix>3d</fix>
</trkpt>
<trkpt lat="33.810346" lon="-118.3943723">
  <ele>-0.11</ele>
  <time>2026-09-02T22:07:27Z</time>
  <course>9.21</course>
  <speed>1.790111728356641</speed>
  <fix>3d</fix>
</trkpt>
<trkpt lat="33.810346" lon="-118.3943724">
  <ele>-0.11</ele>
  <time>2026-09-02T22:07:27Z</time>
  <course>9.21</course>
  <speed>1.790111728356641</speed>
  <fix>3d</fix>
</trkpt>
<trkpt lat="33.8103457" lon="-118.3943678">
  <ele>-0.1</ele>
  <time>2026-09-02T22:07:27Z</time>
  <course>276.95</course>
  <speed>1.82</speed>
  <fix>3d</fix>
</trkpt>
<trkpt lat="33.810346" lon="-118.3943724">
  <ele>-0.11</ele>
  <time>2026-09-02T22:07:27Z</time>
  <course>9.21</course>
  <speed>1.790111728356641</speed>
  <fix>3d</fix>
</trkpt>
<trkpt lat="33.810346" lon="-118.3943726">
  <ele>-0.11</ele>
  <time>2026-09-02T22:07:27Z</time>
  <course>9.21</course>
  <speed>1.790111728356641</speed>
  <fix>3d</fix>
</trkpt>
<trkpt lat="33.810346" lon="-118.3943727">
  <ele>-0.11</ele>
  <time>2026-09-02T22:07:27Z</time>
  <course>9.21</course>
  <speed>1.790111728356641</speed>
  <fix>3d</fix>
</trkpt>
<trkpt lat="33.810346" lon="-118.3943728">
  <ele>-0.11</ele>
  <time>2026-09-02T22:07:27Z</time>
  <course>9.21</course>
  <speed>1.790111728356641</speed>
  <fix>3d</fix>
</trkpt>
<trkpt lat="33.810346" lon="-118.394373">
  <ele>-0.11</ele>
  <time>2026-09-02T22:07:27Z</time>
  <course>9.21</course>
  <speed>1.790111728356641</speed>
  <fix>3d</fix>
</trkpt>
<trkpt lat="33.8103461" lon="-118.3943731">
  <ele>-0.11</ele>
  <time>2026-09-02T22:07:27Z</time>
  <course>9.21</course>
  <speed>1.790111728356641</speed>
  <fix>3d</fix>
</trkpt>
<trkpt lat="33.8103461" lon="-118.3943732">
  <ele>-0.11</ele>
  <time>2026-09-02T22:07:27Z</time>
  <course>9.21</course>
  <speed>1.790111728356641</speed>
  <fix>3d</fix>
</trkpt>
<trkpt lat="33.8103461" lon="-118.3943733">
  <ele>-0.11</ele>
  <time>2026-09-02T22:07:27Z</time>
  <course>9.21</course>
  <speed>1.790111728356641</speed>
  <fix>3d</fix>
</trkpt>
<trkpt lat="33.8103461" lon="-118.3943735">
  <ele>-0.11</ele>
  <time>2026-09-02T22:07:27Z</time>
  <course>9.22</course>
  <speed>1.790111728356641</speed>
  <fix>3d</fix>
</trkpt>
<trkpt lat="33.8103461" lon="-118.3943736">
  <ele>-0.11</ele>
  <time>2026-09-02T22:07:27Z</time>
  <course>9.22</course>
  <speed>1.790111728356641</speed>
  <fix>3d</fix>
</trkpt>
<trkpt lat="33.8103461" lon="-118.3943738">
  <ele>-0.11</ele>
  <time>2026-09-02T22:07:27Z</time>
  <course>9.22</course>
  <speed>1.790111728356641</speed>
  <fix>3d</fix>
</trkpt>
<trkpt lat="33.8103461" lon="-118.3943739">
  <ele>-0.11</ele>
  <time>2026-09-02T22:07:27Z</time>
  <course>9.22</course>
  <speed>1.790111728356641</speed>
  <fix>3d</fix>
</trkpt>
<trkpt lat="33.8103462" lon="-118.3943741">
  <ele>-0.11</ele>
  <time>2026-09-02T22:07:27Z</time>
  <course>9.22</course>
  <speed>1.790111728356641</speed>
  <fix>3d</fix>
</trkpt>
<trkpt lat="33.8103462" lon="-118.3943742">
  <ele>-0.11</ele>
  <time>2026-09-02T22:07:27Z</time>
  <course>9.22</course>
  <speed>1.790111728356641</speed>
  <fix>3d</fix>
</trkpt>
<trkpt lat="33.8103462" lon="-118.3943743">
  <ele>-0.11</ele>
  <time>2026-09-02T22:07:27Z</time>
  <course>9.22</course>
  <speed>1.790111728356641</speed>
  <fix>3d</fix>
</trkpt>
<trkpt lat="33.8103462" lon="-118.3943717">
  <ele>-0.1</ele>
  <time>2026-09-02T22:07:27Z</time>
  <course>276.97</course>
  <speed>1.82</speed>
  <fix>3d</fix>
</trkpt>
<trkpt lat="33.8103462" lon="-118.3943744">
  <ele>-0.11</ele>
  <time>2026-09-02T22:07:27Z</time>
  <course>9.22</course>
  <speed>1.790111728356641</speed>
  <fix>3d</fix>
</trkpt>
<trkpt lat="33.8103462" lon="-118.3943745">
  <ele>-0.11</ele>
  <time>2026-09-02T22:07:27Z</time>
  <course>9.22</course>
  <speed>1.790111728356641</speed>
  <fix>3d</fix>
</trkpt>
<trkpt lat="33.8103462" lon="-118.3943747">
  <ele>-0.11</ele>
  <time>2026-09-02T22:07:27Z</time>
  <course>9.22</course>
  <speed>1.790111728356641</speed>
  <fix>3d</fix>
</trkpt>
<trkpt lat="33.8103462" lon="-118.3943748">
  <ele>-0.11</ele>
  <time>2026-09-02T22:07:27Z</time>
  <course>9.22</course>
  <speed>1.790111728356641</speed>
  <fix>3d</fix>
</trkpt>
<trkpt lat="33.8103463" lon="-118.394375">
  <ele>-0.11</ele>
  <time>2026-09-02T22:07:27Z</time>
  <course>9.22</course>
  <speed>1.790111728356641</speed>
  <fix>3d</fix>
</trkpt>
<trkpt lat="33.8103463" lon="-118.3943751">
  <ele>-0.11</ele>
  <time>2026-09-02T22:07:27Z</time>
  <course>9.22</course>
  <speed>1.790111728356641</speed>
  <fix>3d</fix>
</trkpt>
<trkpt lat="33.8103463" lon="-118.3943753">
  <ele>-0.11</ele>
  <time>2026-09-02T22:07:27Z</time>
  <course>9.22</course>
  <speed>1.790111728356641</speed>
  <fix>3d</fix>
</trkpt>
<trkpt lat="33.8103463" lon="-118.3943754">
  <ele>-0.11</ele>
  <time>2026-09-02T22:07:27Z</time>
  <course>9.22</course>
  <speed>1.790111728356641</speed>
  <fix>3d</fix>
</trkpt>
<trkpt lat="33.8103463" lon="-118.3943756">
  <ele>-0.11</ele>
  <time>2026-09-02T22:07:27Z</time>
  <course>9.22</course>
  <speed>1.790111728356641</speed>
  <fix>3d</fix>
</trkpt>
<trkpt lat="33.8103463" lon="-118.3943757">
  <ele>-0.11</ele>
  <time>2026-09-02T22:07:27Z</time>
  <course>9.23</course>
  <speed>1.790111728356641</speed>
  <fix>3d</fix>
</trkpt>
<trkpt lat="33.8103463" lon="-118.3943759">
  <ele>-0.11</ele>
  <time>2026-09-02T22:07:27Z</time>
  <course>9.23</course>
  <speed>1.790111728356641</speed>
  <fix>3d</fix>
</trkpt>
<trkpt lat="33.8103464" lon="-118.394376">
  <ele>-0.11</ele>
  <time>2026-09-02T22:07:27Z</time>
  <course>9.23</course>
  <speed>1.790111728356641</speed>
  <fix>3d</fix>
</trkpt>
<trkpt lat="33.8103464" lon="-118.3943762">
  <ele>-0.11</ele>
  <time>2026-09-02T22:07:27Z</time>
  <course>9.23</course>
  <speed>1.790111728356641</speed>
  <fix>3d</fix>
</trkpt>
<trkpt lat="33.8103464" lon="-118.3943763">
  <ele>-0.11</ele>
  <time>2026-09-02T22:07:27Z</time>
  <course>9.23</course>
  <speed>1.790111728356641</speed>
  <fix>3d</fix>
</trkpt>
<trkpt lat="33.8103462" lon="-118.3943717">
  <ele>-0.1</ele>
  <time>2026-09-02T22:07:27Z</time>
  <course>276.97</course>
  <speed>1.82</speed>
  <fix>3d</fix>
</trkpt>
<trkpt lat="33.8103464" lon="-118.3943763">
  <ele>-0.11</ele>
  <time>2026-09-02T22:07:27Z</time>
  <course>9.23</course>
  <speed>1.790111728356641</speed>
  <fix>3d</fix>
</trkpt>
<trkpt lat="33.8103464" lon="-118.3943765">
  <ele>-0.11</ele>
  <time>2026-09-02T22:07:27Z</time>
  <course>9.23</course>
  <speed>1.790111728356641</speed>
  <fix>3d</fix>
</trkpt>
<trkpt lat="33.8103464" lon="-118.3943767">
  <ele>-0.11</ele>
  <time>2026-09-02T22:07:27Z</time>
  <course>9.23</course>
  <speed>1.790111728356641</speed>
  <fix>3d</fix>
</trkpt>
<trkpt lat="33.8103464" lon="-118.3943769">
  <ele>-0.11</ele>
  <time>2026-09-02T22:07:27Z</time>
  <course>9.23</course>
  <speed>1.790111728356641</speed>
  <fix>3d</fix>
</trkpt>
<trkpt lat="33.8103465" lon="-118.3943771">
  <ele>-0.11</ele>
  <time>2026-09-02T22:07:27Z</time>
  <course>9.23</course>
  <speed>1.790111728356641</speed>
  <fix>3d</fix>
</trkpt>
<trkpt lat="33.8103465" lon="-118.3943772">
  <ele>-0.11</ele>
  <time>2026-09-02T22:07:27Z</time>
  <course>9.23</course>
  <speed>1.790111728356641</speed>
  <fix>3d</fix>
</trkpt>
<trkpt lat="33.8103465" lon="-118.3943775">
  <ele>-0.11</ele>
  <time>2026-09-02T22:07:27Z</time>
  <course>9.23</course>
  <speed>1.790111728356641</speed>
  <fix>3d</fix>
</trkpt>
<trkpt lat="33.8103465" lon="-118.3943777">
  <ele>-0.11</ele>
  <time>2026-09-02T22:07:27Z</time>
  <course>9.23</course>
  <speed>1.790111728356641</speed>
  <fix>3d</fix>
</trkpt>
<trkpt lat="33.8103465" lon="-118.3943778">
  <ele>-0.11</ele>
  <time>2026-09-02T22:07:27Z</time>
  <course>9.23</course>
  <speed>1.790111728356641</speed>
  <fix>3d</fix>
</trkpt>
<trkpt lat="33.8103466" lon="-118.394378">
  <ele>-0.11</ele>
  <time>2026-09-02T22:07:27Z</time>
  <course>9.23</course>
  <speed>1.790111728356641</speed>
  <fix>3d</fix>
</trkpt>
<trkpt lat="33.8103466" lon="-118.3943782">
  <ele>-0.11</ele>
  <time>2026-09-02T22:07:27Z</time>
  <course>9.24</course>
  <speed>1.790111728356641</speed>
  <fix>3d</fix>
</trkpt>
<trkpt lat="33.8103466" lon="-118.3943782">
  <ele>-0.11</ele>
  <time>2026-09-02T22:07:27Z</time>
  <course>9.24</course>
  <speed>1.790111728356641</speed>
  <fix>3d</fix>
</trkpt>
<trkpt lat="33.8103466" lon="-118.3943756">
  <ele>-0.1</ele>
  <time>2026-09-02T22:07:27Z</time>
  <course>276.99</course>
  <speed>1.82</speed>
  <fix>3d</fix>
</trkpt>
<trkpt lat="33.8103466" lon="-118.3943783">
  <ele>-0.11</ele>
  <time>2026-09-02T22:07:27Z</time>
  <course>9.24</course>
  <speed>1.790111728356641</speed>
  <fix>3d</fix>
</trkpt>
<trkpt lat="33.8103466" lon="-118.3943785">
  <ele>-0.11</ele>
  <time>2026-09-02T22:07:27Z</time>
  <course>9.24</course>
  <speed>1.790111728356641</speed>
  <fix>3d</fix>
</trkpt>
<trkpt lat="33.8103466" lon="-118.3943787">
  <ele>-0.11</ele>
  <time>2026-09-02T22:07:27Z</time>
  <course>9.24</course>
  <speed>1.790111728356641</speed>
  <fix>3d</fix>
</trkpt>
<trkpt lat="33.8103467" lon="-118.3943789">
  <ele>-0.11</ele>
  <time>2026-09-02T22:07:27Z</time>
  <course>9.24</course>
  <speed>1.790111728356641</speed>
  <fix>3d</fix>
</trkpt>
<trkpt lat="33.8103467" lon="-118.3943791">
  <ele>-0.11</ele>
  <time>2026-09-02T22:07:27Z</time>
  <course>9.24</course>
  <speed>1.790111728356641</speed>
  <fix>3d</fix>
</trkpt>
<trkpt lat="33.8103467" lon="-118.3943793">
  <ele>-0.11</ele>
  <time>2026-09-02T22:07:27Z</time>
  <course>9.24</course>
  <speed>1.790111728356641</speed>
  <fix>3d</fix>
</trkpt>
<trkpt lat="33.8103467" lon="-118.3943795">
  <ele>-0.11</ele>
  <time>2026-09-02T22:07:27Z</time>
  <course>9.24</course>
  <speed>1.790111728356641</speed>
  <fix>3d</fix>
</trkpt>
<trkpt lat="33.8103467" lon="-118.3943797">
  <ele>-0.11</ele>
  <time>2026-09-02T22:07:27Z</time>
  <course>9.24</course>
  <speed>1.790111728356641</speed>
  <fix>3d</fix>
</trkpt>
<trkpt lat="33.8103467" lon="-118.3943798">
  <ele>-0.11</ele>
  <time>2026-09-02T22:07:27Z</time>
  <course>9.24</course>
  <speed>1.790111728356641</speed>
  <fix>3d</fix>
</trkpt>
<trkpt lat="33.8103468" lon="-118.39438">
  <ele>-0.11</ele>
  <time>2026-09-02T22:07:27Z</time>
  <course>9.24</course>
  <speed>1.790111728356641</speed>
  <fix>3d</fix>
</trkpt>
<trkpt lat="33.8103468" lon="-118.3943802">
  <ele>-0.11</ele>
  <time>2026-09-02T22:07:27Z</time>
  <course>9.24</course>
  <speed>1.790111728356641</speed>
  <fix>3d</fix>
</trkpt>
<trkpt lat="33.8103468" lon="-118.3943802">
  <ele>-0.11</ele>
  <time>2026-09-02T22:07:27Z</time>
  <course>9.24</course>
  <speed>1.790111728356641</speed>
  <fix>3d</fix>
</trkpt>
<trkpt lat="33.8103466" lon="-118.3943756">
  <ele>-0.1</ele>
  <time>2026-09-02T22:07:27Z</time>
  <course>276.99</course>
  <speed>1.82</speed>
  <fix>3d</fix>
</trkpt>
<trkpt lat="33.8103468" lon="-118.3943804">
  <ele>-0.11</ele>
  <time>2026-09-02T22:07:27Z</time>
  <course>9.25</course>
  <speed>1.790111728356641</speed>
  <fix>3d</fix>
</trkpt>
<trkpt lat="33.8103468" lon="-118.3943806">
  <ele>-0.11</ele>
  <time>2026-09-02T22:07:27Z</time>
  <course>9.25</course>
  <speed>1.790111728356641</speed>
  <fix>3d</fix>
</trkpt>
<trkpt lat="33.8103468" lon="-118.3943808">
  <ele>-0.11</ele>
  <time>2026-09-02T22:07:27Z</time>
  <course>9.25</course>
  <speed>1.790111728356641</speed>
  <fix>3d</fix>
</trkpt>
<trkpt lat="33.8103469" lon="-118.394381">
  <ele>-0.11</ele>
  <time>2026-09-02T22:07:27Z</time>
  <course>9.25</course>
  <speed>1.790111728356641</speed>
  <fix>3d</fix>
</trkpt>
<trkpt lat="33.8103469" lon="-118.3943812">
  <ele>-0.11</ele>
  <time>2026-09-02T22:07:27Z</time>
  <course>9.25</course>
  <speed>1.790111728356641</speed>
  <fix>3d</fix>
</trkpt>
<trkpt lat="33.8103469" lon="-118.3943814">
  <ele>-0.11</ele>
  <time>2026-09-02T22:07:27Z</time>
  <course>9.25</course>
  <speed>1.790111728356641</speed>
  <fix>3d</fix>
</trkpt>
<trkpt lat="33.8103469" lon="-118.3943816">
  <ele>-0.11</ele>
  <time>2026-09-02T22:07:27Z</time>
  <course>9.25</course>
  <speed>1.790111728356641</speed>
  <fix>3d</fix>
</trkpt>
<trkpt lat="33.8103469" lon="-118.3943818">
  <ele>-0.111</ele>
  <time>2026-09-02T22:07:27Z</time>
  <course>9.25</course>
  <speed>1.790111728356641</speed>
  <fix>3d</fix>
</trkpt>
<trkpt lat="33.810347" lon="-118.394382">
  <ele>-0.111</ele>
  <time>2026-09-02T22:07:27Z</time>
  <course>9.25</course>
  <speed>1.790111728356641</speed>
  <fix>3d</fix>
</trkpt>
<trkpt lat="33.810347" lon="-118.3943821">
  <ele>-0.111</ele>
  <time>2026-09-02T22:07:27Z</time>
  <course>9.25</course>
  <speed>1.790111728356641</speed>
  <fix>3d</fix>
</trkpt>
<trkpt lat="33.8103469" lon="-118.3943795">
  <ele>-0.1</ele>
  <time>2026-09-02T22:07:27Z</time>
  <course>277.01</course>
  <speed>1.82</speed>
  <fix>3d</fix>
</trkpt>
<trkpt lat="33.810347" lon="-118.3943822">
  <ele>-0.111</ele>
  <time>2026-09-02T22:07:27Z</time>
  <course>9.25</course>
  <speed>1.790111728356641</speed>
  <fix>3d</fix>
</trkpt>
<trkpt lat="33.810347" lon="-118.3943824">
  <ele>-0.111</ele>
  <time>2026-09-02T22:07:27Z</time>
  <course>9.25</course>
  <speed>1.790111728356641</speed>
  <fix>3d</fix>
</trkpt>
<trkpt lat="33.810347" lon="-118.3943826">
  <ele>-0.111</ele>
  <time>2026-09-02T22:07:27Z</time>
  <course>9.25</course>
  <speed>1.790111728356641</speed>
  <fix>3d</fix>
</trkpt>
<trkpt lat="33.810347" lon="-118.3943828">
  <ele>-0.111</ele>
  <time>2026-09-02T22:07:27Z</time>
  <course>9.26</course>
  <speed>1.790111728356641</speed>
  <fix>3d</fix>
</trkpt>
<trkpt lat="33.8103471" lon="-118.3943829">
  <ele>-0.111</ele>
  <time>2026-09-02T22:07:27Z</time>
  <course>9.26</course>
  <speed>1.790111728356641</speed>
  <fix>3d</fix>
</trkpt>
<trkpt lat="33.8103471" lon="-118.3943831">
  <ele>-0.111</ele>
  <time>2026-09-02T22:07:27Z</time>
  <course>9.26</course>
  <speed>1.790111728356641</speed>
  <fix>3d</fix>
</trkpt>
<trkpt lat="33.8103471" lon="-118.3943832">
  <ele>-0.111</ele>
  <time>2026-09-02T22:07:27Z</time>
  <course>9.26</course>
  <speed>1.790111728356641</speed>
  <fix>3d</fix>
</trkpt>
<trkpt lat="33.8103471" lon="-118.3943834">
  <ele>-0.111</ele>
  <time>2026-09-02T22:07:27Z</time>
  <course>9.26</course>
  <speed>1.790111728356641</speed>
  <fix>3d</fix>
</trkpt>
<trkpt lat="33.8103471" lon="-118.3943835">
  <ele>-0.111</ele>
  <time>2026-09-02T22:07:27Z</time>
  <course>9.26</course>
  <speed>1.790111728356641</speed>
  <fix>3d</fix>
</trkpt>
<trkpt lat="33.8103471" lon="-118.3943837">
  <ele>-0.112</ele>
  <time>2026-09-02T22:07:27Z</time>
  <course>9.26</course>
  <speed>1.790111728356641</speed>
  <fix>3d</fix>
</trkpt>
<trkpt lat="33.8103472" lon="-118.3943839">
  <ele>-0.112</ele>
  <time>2026-09-02T22:07:27Z</time>
  <course>9.26</course>
  <speed>1.790111728356641</speed>
  <fix>3d</fix>
</trkpt>
<trkpt lat="33.8103472" lon="-118.3943841">
  <ele>-0.112</ele>
  <time>2026-09-02T22:07:27Z</time>
  <course>9.26</course>
  <speed>1.790111728356641</speed>
  <fix>3d</fix>
</trkpt>
<trkpt lat="33.8103472" lon="-118.3943841">
  <ele>-0.112</ele>
  <time>2026-09-02T22:07:27Z</time>
  <course>9.26</course>
  <speed>1.790111728356641</speed>
  <fix>3d</fix>
</trkpt>
<trkpt lat="33.8103469" lon="-118.3943795">
  <ele>-0.1</ele>
  <time>2026-09-02T22:07:27Z</time>
  <course>277.01</course>
  <speed>1.82</speed>
  <fix>3d</fix>
</trkpt>
<trkpt lat="33.8103472" lon="-118.3943843">
  <ele>-0.112</ele>
  <time>2026-09-02T22:07:27Z</time>
  <course>9.26</course>
  <speed>1.790111728356641</speed>
  <fix>3d</fix>
</trkpt>
<trkpt lat="33.8103472" lon="-118.3943845">
  <ele>-0.112</ele>
  <time>2026-09-02T22:07:27Z</time>
  <course>9.26</course>
  <speed>1.790111728356641</speed>
  <fix>3d</fix>
</trkpt>
<trkpt lat="33.8103472" lon="-118.3943847">
  <ele>-0.112</ele>
  <time>2026-09-02T22:07:27Z</time>
  <course>9.26</course>
  <speed>1.790111728356641</speed>
  <fix>3d</fix>
</trkpt>
<trkpt lat="33.8103473" lon="-118.3943849">
  <ele>-0.112</ele>
  <time>2026-09-02T22:07:27Z</time>
  <course>9.27</course>
  <speed>1.790111728356641</speed>
  <fix>3d</fix>
</trkpt>
<trkpt lat="33.8103473" lon="-118.3943851">
  <ele>-0.112</ele>
  <time>2026-09-02T22:07:27Z</time>
  <course>9.27</course>
  <speed>1.790111728356641</speed>
  <fix>3d</fix>
</trkpt>
<trkpt lat="33.8103473" lon="-118.3943853">
  <ele>-0.113</ele>
  <time>2026-09-02T22:07:27Z</time>
  <course>9.27</course>
  <speed>1.790111728356641</speed>
  <fix>3d</fix>
</trkpt>
<trkpt lat="33.8103473" lon="-118.3943855">
  <ele>-0.113</ele>
  <time>2026-09-02T22:07:27Z</time>
  <course>9.27</course>
  <speed>1.790111728356641</speed>
  <fix>3d</fix>
</trkpt>
<trkpt lat="33.8103473" lon="-118.3943857">
  <ele>-0.113</ele>
  <time>2026-09-02T22:07:27Z</time>
  <course>9.27</course>
  <speed>1.790111728356641</speed>
  <fix>3d</fix>
</trkpt>
<trkpt lat="33.8103474" lon="-118.3943859">
  <ele>-0.113</ele>
  <time>2026-09-02T22:07:27Z</time>
  <course>9.27</course>
  <speed>1.790111728356641</speed>
  <fix>3d</fix>
</trkpt>
<trkpt lat="33.8103474" lon="-118.394386">
  <ele>-0.113</ele>
  <time>2026-09-02T22:07:27Z</time>
  <course>9.27</course>
  <speed>1.790111728356641</speed>
  <fix>3d</fix>
</trkpt>
<trkpt lat="33.8103474" lon="-118.394386">
  <ele>-0.113</ele>
  <time>2026-09-02T22:07:27Z</time>
  <course>9.27</course>
  <speed>1.790111728356641</speed>
  <fix>3d</fix>
</trkpt>
<trkpt lat="33.8103474" lon="-118.3943834">
  <ele>-0.1</ele>
  <time>2026-09-02T22:07:27Z</time>
  <course>277.03</course>
  <speed>1.82</speed>
  <fix>3d</fix>
</trkpt>
<trkpt lat="33.8103474" lon="-118.3943863">
  <ele>-0.113</ele>
  <time>2026-09-02T22:07:27Z</time>
  <course>9.27</course>
  <speed>1.790111728356641</speed>
  <fix>3d</fix>
</trkpt>
<trkpt lat="33.8103474" lon="-118.3943865">
  <ele>-0.113</ele>
  <time>2026-09-02T22:07:27Z</time>
  <course>9.27</course>
  <speed>1.790111728356641</speed>
  <fix>3d</fix>
</trkpt>
<trkpt lat="33.8103474" lon="-118.3943866">
  <ele>-0.113</ele>
  <time>2026-09-02T22:07:27Z</time>
  <course>9.27</course>
  <speed>1.790111728356641</speed>
  <fix>3d</fix>
</trkpt>
<trkpt lat="33.8103475" lon="-118.3943868">
  <ele>-0.113</ele>
  <time>2026-09-02T22:07:27Z</time>
  <course>9.27</course>
  <speed>1.790111728356641</speed>
  <fix>3d</fix>
</trkpt>
<trkpt lat="33.8103475" lon="-118.3943869">
  <ele>-0.113</ele>
  <time>2026-09-02T22:07:27Z</time>
  <course>9.27</course>
  <speed>1.790111728356641</speed>
  <fix>3d</fix>
</trkpt>
<trkpt lat="33.8103475" lon="-118.3943871">
  <ele>-0.114</ele>
  <time>2026-09-02T22:07:27Z</time>
  <course>9.27</course>
  <speed>1.790111728356641</speed>
  <fix>3d</fix>
</trkpt>
<trkpt lat="33.8103475" lon="-118.3943873">
  <ele>-0.114</ele>
  <time>2026-09-02T22:07:27Z</time>
  <course>9.28</course>
  <speed>1.790111728356641</speed>
  <fix>3d</fix>
</trkpt>
<trkpt lat="33.8103475" lon="-118.3943875">
  <ele>-0.114</ele>
  <time>2026-09-02T22:07:27Z</time>
  <course>9.28</course>
  <speed>1.790111728356641</speed>
  <fix>3d</fix>
</trkpt>
<trkpt lat="33.8103475" lon="-118.3943877">
  <ele>-0.114</ele>
  <time>2026-09-02T22:07:27Z</time>
  <course>9.28</course>
  <speed>1.790111728356641</speed>
  <fix>3d</fix>
</trkpt>
<trkpt lat="33.8103476" lon="-118.3943878">
  <ele>-0.114</ele>
  <time>2026-09-02T22:07:27Z</time>
  <course>9.28</course>
  <speed>1.790111728356641</speed>
  <fix>3d</fix>
</trkpt>
<trkpt lat="33.8103476" lon="-118.394388">
  <ele>-0.114</ele>
  <time>2026-09-02T22:07:27Z</time>
  <course>9.28</course>
  <speed>1.790111728356641</speed>
  <fix>3d</fix>
</trkpt>
<trkpt lat="33.8103476" lon="-118.394388">
  <ele>-0.114</ele>
  <time>2026-09-02T22:07:27Z</time>
  <course>9.28</course>
  <speed>1.790111728356641</speed>
  <fix>3d</fix>
</trkpt>
<trkpt lat="33.8103474" lon="-118.3943834">
  <ele>-0.1</ele>
  <time>2026-09-02T22:07:27Z</time>
  <course>277.03</course>
  <speed>1.82</speed>
  <fix>3d</fix>
</trkpt>
<trkpt lat="33.8103476" lon="-118.3943883">
  <ele>-0.114</ele>
  <time>2026-09-02T22:07:27Z</time>
  <course>9.28</course>
  <speed>1.790111728356641</speed>
  <fix>3d</fix>
</trkpt>
<trkpt lat="33.8103476" lon="-118.3943885">
  <ele>-0.114</ele>
  <time>2026-09-02T22:07:27Z</time>
  <course>9.28</course>
  <speed>1.790111728356641</speed>
  <fix>3d</fix>
</trkpt>
<trkpt lat="33.8103476" lon="-118.3943887">
  <ele>-0.115</ele>
  <time>2026-09-02T22:07:27Z</time>
  <course>9.28</course>
  <speed>1.790111728356641</speed>
  <fix>3d</fix>
</trkpt>
<trkpt lat="33.8103477" lon="-118.3943888">
  <ele>-0.115</ele>
  <time>2026-09-02T22:07:27Z</time>
  <course>9.28</course>
  <speed>1.790111728356641</speed>
  <fix>3d</fix>
</trkpt>
<trkpt lat="33.8103477" lon="-118.394389">
  <ele>-0.115</ele>
  <time>2026-09-02T22:07:27Z</time>
  <course>9.28</course>
  <speed>1.790111728356641</speed>
  <fix>3d</fix>
</trkpt>
<trkpt lat="33.8103477" lon="-118.3943892">
  <ele>-0.115</ele>
  <time>2026-09-02T22:07:27Z</time>
  <course>9.28</course>
  <speed>1.790111728356641</speed>
  <fix>3d</fix>
</trkpt>
<trkpt lat="33.8103477" lon="-118.3943893">
  <ele>-0.115</ele>
  <time>2026-09-02T22:07:27Z</time>
  <course>9.28</course>
  <speed>1.790111728356641</speed>
  <fix>3d</fix>
</trkpt>
<trkpt lat="33.8103477" lon="-118.3943895">
  <ele>-0.115</ele>
  <time>2026-09-02T22:07:27Z</time>
  <course>9.28</course>
  <speed>1.790111728356641</speed>
  <fix>3d</fix>
</trkpt>
<trkpt lat="33.8103477" lon="-118.3943897">
  <ele>-0.115</ele>
  <time>2026-09-02T22:07:27Z</time>
  <course>9.28</course>
  <speed>1.790111728356641</speed>
  <fix>3d</fix>
</trkpt>
<trkpt lat="33.8103478" lon="-118.3943898">
  <ele>-0.116</ele>
  <time>2026-09-02T22:07:27Z</time>
  <course>9.29</course>
  <speed>1.790111728356641</speed>
  <fix>3d</fix>
</trkpt>
<trkpt lat="33.8103478" lon="-118.3943899">
  <ele>-0.116</ele>
  <time>2026-09-02T22:07:27Z</time>
  <course>9.29</course>
  <speed>1.790111728356641</speed>
  <fix>3d</fix>
</trkpt>
<trkpt lat="33.8103478" lon="-118.3943874">
  <ele>-0.1</ele>
  <time>2026-09-02T22:07:27Z</time>
  <course>277.05</course>
  <speed>1.82</speed>
  <fix>3d</fix>
</trkpt>
<trkpt lat="33.8103478" lon="-118.39439">
  <ele>-0.116</ele>
  <time>2026-09-02T22:07:27Z</time>
  <course>9.29</course>
  <speed>1.790111728356641</speed>
  <fix>3d</fix>
</trkpt>
<trkpt lat="33.8103478" lon="-118.3943902">
  <ele>-0.116</ele>
  <time>2026-09-02T22:07:27Z</time>
  <course>9.29</course>
  <speed>1.790111728356641</speed>
  <fix>3d</fix>
</trkpt>
<trkpt lat="33.8103478" lon="-118.3943904">
  <ele>-0.116</ele>
  <time>2026-09-02T22:07:27Z</time>
  <course>9.29</course>
  <speed>1.790111728356641</speed>
  <fix>3d</fix>
</trkpt>
<trkpt lat="33.8103478" lon="-118.3943906">
  <ele>-0.116</ele>
  <time>2026-09-02T22:07:27Z</time>
  <course>9.29</course>
  <speed>1.790111728356641</speed>
  <fix>3d</fix>
</trkpt>
<trkpt lat="33.8103479" lon="-118.3943907">
  <ele>-0.116</ele>
  <time>2026-09-02T22:07:27Z</time>
  <course>9.29</course>
  <speed>1.790111728356641</speed>
  <fix>3d</fix>
</trkpt>
<trkpt lat="33.8103479" lon="-118.3943909">
  <ele>-0.116</ele>
  <time>2026-09-02T22:07:27Z</time>
  <course>9.29</course>
  <speed>1.790111728356641</speed>
  <fix>3d</fix>
</trkpt>
<trkpt lat="33.8103479" lon="-118.3943911">
  <ele>-0.116</ele>
  <time>2026-09-02T22:07:27Z</time>
  <course>9.29</course>
  <speed>1.790111728356641</speed>
  <fix>3d</fix>
</trkpt>
<trkpt lat="33.8103479" lon="-118.3943913">
  <ele>-0.116</ele>
  <time>2026-09-02T22:07:27Z</time>
  <course>9.29</course>
  <speed>1.790111728356641</speed>
  <fix>3d</fix>
</trkpt>
<trkpt lat="33.8103479" lon="-118.3943915">
  <ele>-0.116</ele>
  <time>2026-09-02T22:07:27Z</time>
  <course>9.29</course>
  <speed>1.790111728356641</speed>
  <fix>3d</fix>
</trkpt>
<trkpt lat="33.810348" lon="-118.3943916">
  <ele>-0.116</ele>
  <time>2026-09-02T22:07:27Z</time>
  <course>9.29</course>
  <speed>1.790111728356641</speed>
  <fix>3d</fix>
</trkpt>
<trkpt lat="33.810348" lon="-118.3943918">
  <ele>-0.116</ele>
  <time>2026-09-02T22:07:27Z</time>
  <course>9.29</course>
  <speed>1.790111728356641</speed>
  <fix>3d</fix>
</trkpt>
<trkpt lat="33.810348" lon="-118.3943919">
  <ele>-0.116</ele>
  <time>2026-09-02T22:07:27Z</time>
  <course>9.29</course>
  <speed>1.790111728356641</speed>
  <fix>3d</fix>
</trkpt>
<trkpt lat="33.8103478" lon="-118.3943874">
  <ele>-0.1</ele>
  <time>2026-09-02T22:07:27Z</time>
  <course>277.05</course>
  <speed>1.82</speed>
  <fix>3d</fix>
</trkpt>
<trkpt lat="33.810348" lon="-118.3943919">
  <ele>-0.116</ele>
  <time>2026-09-02T22:07:27Z</time>
  <course>9.29</course>
  <speed>1.790111728356641</speed>
  <fix>3d</fix>
</trkpt>
<trkpt lat="33.810348" lon="-118.3943923">
  <ele>-0.116</ele>
  <time>2026-09-02T22:07:27Z</time>
  <course>9.3</course>
  <speed>1.790111728356641</speed>
  <fix>3d</fix>
</trkpt>
<trkpt lat="33.810348" lon="-118.3943925">
  <ele>-0.116</ele>
  <time>2026-09-02T22:07:27Z</time>
  <course>9.3</course>
  <speed>1.790111728356641</speed>
  <fix>3d</fix>
</trkpt>
<trkpt lat="33.8103481" lon="-118.3943927">
  <ele>-0.116</ele>
  <time>2026-09-02T22:07:27Z</time>
  <course>9.3</course>
  <speed>1.790111728356641</speed>
  <fix>3d</fix>
</trkpt>
<trkpt lat="33.8103481" lon="-118.3943928">
  <ele>-0.116</ele>
  <time>2026-09-02T22:07:27Z</time>
  <course>9.3</course>
  <speed>1.790111728356641</speed>
  <fix>3d</fix>
</trkpt>
<trkpt lat="33.8103481" lon="-118.3943929">
  <ele>-0.116</ele>
  <time>2026-09-02T22:07:27Z</time>
  <course>9.3</course>
  <speed>1.790111728356641</speed>
  <fix>3d</fix>
</trkpt>
<trkpt lat="33.8103481" lon="-118.3943931">
  <ele>-0.116</ele>
  <time>2026-09-02T22:07:27Z</time>
  <course>9.3</course>
  <speed>1.790111728356641</speed>
  <fix>3d</fix>
</trkpt>
<trkpt lat="33.8103481" lon="-118.3943933">
  <ele>-0.116</ele>
  <time>2026-09-02T22:07:27Z</time>
  <course>9.3</course>
  <speed>1.790111728356641</speed>
  <fix>3d</fix>
</trkpt>
<trkpt lat="33.8103481" lon="-118.3943935">
  <ele>-0.116</ele>
  <time>2026-09-02T22:07:27Z</time>
  <course>9.3</course>
  <speed>1.790111728356641</speed>
  <fix>3d</fix>
</trkpt>
<trkpt lat="33.8103482" lon="-118.3943937">
  <ele>-0.116</ele>
  <time>2026-09-02T22:07:27Z</time>
  <course>9.3</course>
  <speed>1.790111728356641</speed>
  <fix>3d</fix>
</trkpt>
<trkpt lat="33.8103482" lon="-118.3943938">
  <ele>-0.116</ele>
  <time>2026-09-02T22:07:27Z</time>
  <course>9.3</course>
  <speed>1.790111728356641</speed>
  <fix>3d</fix>
</trkpt>
<trkpt lat="33.8103482" lon="-118.3943938">
  <ele>-0.116</ele>
  <time>2026-09-02T22:07:27Z</time>
  <course>9.3</course>
  <speed>1.790111728356641</speed>
  <fix>3d</fix>
</trkpt>
<trkpt lat="33.8103481" lon="-118.3943913">
  <ele>-0.1</ele>
  <time>2026-09-02T22:07:27Z</time>
  <course>277.07</course>
  <speed>1.82</speed>
  <fix>3d</fix>
</trkpt>
<trkpt lat="33.8103482" lon="-118.3943941">
  <ele>-0.116</ele>
  <time>2026-09-02T22:07:27Z</time>
  <course>9.3</course>
  <speed>1.790111728356641</speed>
  <fix>3d</fix>
</trkpt>
<trkpt lat="33.8103482" lon="-118.3943943">
  <ele>-0.116</ele>
  <time>2026-09-02T22:07:27Z</time>
  <course>9.3</course>
  <speed>1.790111728356641</speed>
  <fix>3d</fix>
</trkpt>
<trkpt lat="33.8103482" lon="-118.3943944">
  <ele>-0.116</ele>
  <time>2026-09-02T22:07:27Z</time>
  <course>9.31</course>
  <speed>1.790111728356641</speed>
  <fix>3d</fix>
</trkpt>
<trkpt lat="33.8103483" lon="-118.3943946">
  <ele>-0.116</ele>
  <time>2026-09-02T22:07:27Z</time>
  <course>9.31</course>
  <speed>1.790111728356641</speed>
  <fix>3d</fix>
</trkpt>
<trkpt lat="33.8103483" lon="-118.3943948">
  <ele>-0.116</ele>
  <time>2026-09-02T22:07:27Z</time>
  <course>9.31</course>
  <speed>1.790111728356641</speed>
  <fix>3d</fix>
</trkpt>
<trkpt lat="33.8103483" lon="-118.394395">
  <ele>-0.116</ele>
  <time>2026-09-02T22:07:27Z</time>
  <course>9.31</course>
  <speed>1.790111728356641</speed>
  <fix>3d</fix>
</trkpt>
<trkpt lat="33.8103483" lon="-118.3943952">
  <ele>-0.116</ele>
  <time>2026-09-02T22:07:27Z</time>
  <course>9.31</course>
  <speed>1.790111728356641</speed>
  <fix>3d</fix>
</trkpt>
<trkpt lat="33.8103483" lon="-118.3943953">
  <ele>-0.116</ele>
  <time>2026-09-02T22:07:27Z</time>
  <course>9.31</course>
  <speed>1.790111728356641</speed>
  <fix>3d</fix>
</trkpt>
<trkpt lat="33.8103483" lon="-118.3943955">
  <ele>-0.116</ele>
  <time>2026-09-02T22:07:27Z</time>
  <course>9.31</course>
  <speed>1.790111728356641</speed>
  <fix>3d</fix>
</trkpt>
<trkpt lat="33.8103484" lon="-118.3943956">
  <ele>-0.116</ele>
  <time>2026-09-02T22:07:27Z</time>
  <course>9.31</course>
  <speed>1.790111728356641</speed>
  <fix>3d</fix>
</trkpt>
<trkpt lat="33.8103484" lon="-118.3943958">
  <ele>-0.116</ele>
  <time>2026-09-02T22:07:27Z</time>
  <course>9.31</course>
  <speed>1.790111728356641</speed>
  <fix>3d</fix>
</trkpt>
<trkpt lat="33.8103481" lon="-118.3943913">
  <ele>-0.1</ele>
  <time>2026-09-02T22:07:27Z</time>
  <course>277.07</course>
  <speed>1.82</speed>
  <fix>3d</fix>
</trkpt>
<trkpt lat="33.8103484" lon="-118.3943958">
  <ele>-0.116</ele>
  <time>2026-09-02T22:07:27Z</time>
  <course>9.31</course>
  <speed>1.790111728356641</speed>
  <fix>3d</fix>
</trkpt>
<trkpt lat="33.8103484" lon="-118.3943961">
  <ele>-0.116</ele>
  <time>2026-09-02T22:07:27Z</time>
  <course>9.31</course>
  <speed>1.790111728356641</speed>
  <fix>3d</fix>
</trkpt>
<trkpt lat="33.8103484" lon="-118.3943963">
  <ele>-0.116</ele>
  <time>2026-09-02T22:07:27Z</time>
  <course>9.31</course>
  <speed>1.790111728356641</speed>
  <fix>3d</fix>
</trkpt>
<trkpt lat="33.8103484" lon="-118.3943965">
  <ele>-0.116</ele>
  <time>2026-09-02T22:07:27Z</time>
  <course>9.31</course>
  <speed>1.790111728356641</speed>
  <fix>3d</fix>
</trkpt>
<trkpt lat="33.8103485" lon="-118.3943966">
  <ele>-0.116</ele>
  <time>2026-09-02T22:07:27Z</time>
  <course>9.31</course>
  <speed>1.790111728356641</speed>
  <fix>3d</fix>
</trkpt>
<trkpt lat="33.8103485" lon="-118.3943968">
  <ele>-0.116</ele>
  <time>2026-09-02T22:07:27Z</time>
  <course>9.32</course>
  <speed>1.790111728356641</speed>
  <fix>3d</fix>
</trkpt>
<trkpt lat="33.8103485" lon="-118.394397">
  <ele>-0.116</ele>
  <time>2026-09-02T22:07:27Z</time>
  <course>9.32</course>
  <speed>1.790111728356641</speed>
  <fix>3d</fix>
</trkpt>
<trkpt lat="33.8103485" lon="-118.3943972">
  <ele>-0.116</ele>
  <time>2026-09-02T22:07:27Z</time>
  <course>9.32</course>
  <speed>1.790111728356641</speed>
  <fix>3d</fix>
</trkpt>
<trkpt lat="33.8103485" lon="-118.3943973">
  <ele>-0.116</ele>
  <time>2026-09-02T22:07:27Z</time>
  <course>9.32</course>
  <speed>1.790111728356641</speed>
  <fix>3d</fix>
</trkpt>
<trkpt lat="33.8103485" lon="-118.3943974">
  <ele>-0.116</ele>
  <time>2026-09-02T22:07:27Z</time>
  <course>9.32</course>
  <speed>1.790111728356641</speed>
  <fix>3d</fix>
</trkpt>
<trkpt lat="33.8103486" lon="-118.3943976">
  <ele>-0.116</ele>
  <time>2026-09-02T22:07:27Z</time>
  <course>9.32</course>
  <speed>1.790111728356641</speed>
  <fix>3d</fix>
</trkpt>
<trkpt lat="33.8103486" lon="-118.3943977">
  <ele>-0.116</ele>
  <time>2026-09-02T22:07:27Z</time>
  <course>9.32</course>
  <speed>1.790111728356641</speed>
  <fix>3d</fix>
</trkpt>
<trkpt lat="33.8103486" lon="-118.3943952">
  <ele>-0.1</ele>
  <time>2026-09-02T22:07:27Z</time>
  <course>277.09</course>
  <speed>1.82</speed>
  <fix>3d</fix>
</trkpt>
<trkpt lat="33.8103486" lon="-118.3943978">
  <ele>-0.116</ele>
  <time>2026-09-02T22:07:27Z</time>
  <course>9.32</course>
  <speed>1.790111728356641</speed>
  <fix>3d</fix>
</trkpt>
<trkpt lat="33.8103486" lon="-118.3943981">
  <ele>-0.116</ele>
  <time>2026-09-02T22:07:27Z</time>
  <course>9.32</course>
  <speed>1.790111728356641</speed>
  <fix>3d</fix>
</trkpt>
<trkpt lat="33.8103486" lon="-118.3943983">
  <ele>-0.116</ele>
  <time>2026-09-02T22:07:27Z</time>
  <course>9.32</course>
  <speed>1.790111728356641</speed>
  <fix>3d</fix>
</trkpt>
<trkpt lat="33.8103487" lon="-118.3943985">
  <ele>-0.116</ele>
  <time>2026-09-02T22:07:27Z</time>
  <course>9.32</course>
  <speed>1.790111728356641</speed>
  <fix>3d</fix>
</trkpt>
<trkpt lat="33.8103487" lon="-118.3943987">
  <ele>-0.116</ele>
  <time>2026-09-02T22:07:27Z</time>
  <course>9.32</course>
  <speed>1.790111728356641</speed>
  <fix>3d</fix>
</trkpt>
<trkpt lat="33.8103487" lon="-118.3943988">
  <ele>-0.116</ele>
  <time>2026-09-02T22:07:27Z</time>
  <course>9.32</course>
  <speed>1.790111728356641</speed>
  <fix>3d</fix>
</trkpt>
<trkpt lat="33.8103487" lon="-118.394399">
  <ele>-0.115</ele>
  <time>2026-09-02T22:07:27Z</time>
  <course>9.32</course>
  <speed>1.790111728356641</speed>
  <fix>3d</fix>
</trkpt>
<trkpt lat="33.8103487" lon="-118.3943992">
  <ele>-0.115</ele>
  <time>2026-09-02T22:07:27Z</time>
  <course>9.32</course>
  <speed>1.790111728356641</speed>
  <fix>3d</fix>
</trkpt>
<trkpt lat="33.8103487" lon="-118.3943993">
  <ele>-0.115</ele>
  <time>2026-09-02T22:07:27Z</time>
  <course>9.33</course>
  <speed>1.790111728356641</speed>
  <fix>3d</fix>
</trkpt>
<trkpt lat="33.8103488" lon="-118.3943995">
  <ele>-0.115</ele>
  <time>2026-09-02T22:07:27Z</time>
  <course>9.33</course>
  <speed>1.790111728356641</speed>
  <fix>3d</fix>
</trkpt>
<trkpt lat="33.8103488" lon="-118.3943996">
  <ele>-0.115</ele>
  <time>2026-09-02T22:07:27Z</time>
  <course>9.33</course>
  <speed>1.790111728356641</speed>
  <fix>3d</fix>
</trkpt>
<trkpt lat="33.8103488" lon="-118.3943997">
  <ele>-0.115</ele>
  <time>2026-09-02T22:07:27Z</time>
  <course>9.33</course>
  <speed>1.790111728356641</speed>
  <fix>3d</fix>
</trkpt>
<trkpt lat="33.8103486" lon="-118.3943952">
  <ele>-0.1</ele>
  <time>2026-09-02T22:07:27Z</time>
  <course>277.09</course>
  <speed>1.82</speed>
  <fix>3d</fix>
</trkpt>
<trkpt lat="33.8103488" lon="-118.3943998">
  <ele>-0.115</ele>
  <time>2026-09-02T22:07:27Z</time>
  <course>9.33</course>
  <speed>1.790111728356641</speed>
  <fix>3d</fix>
</trkpt>
<trkpt lat="33.8103488" lon="-118.3944001">
  <ele>-0.115</ele>
  <time>2026-09-02T22:07:27Z</time>
  <course>9.33</course>
  <speed>1.790111728356641</speed>
  <fix>3d</fix>
</trkpt>
<trkpt lat="33.8103488" lon="-118.3944003">
  <ele>-0.115</ele>
  <time>2026-09-02T22:07:27Z</time>
  <course>9.33</course>
  <speed>1.790111728356641</speed>
  <fix>3d</fix>
</trkpt>
<trkpt lat="33.8103489" lon="-118.3944005">
  <ele>-0.115</ele>
  <time>2026-09-02T22:07:27Z</time>
  <course>9.33</course>
  <speed>1.790111728356641</speed>
  <fix>3d</fix>
</trkpt>
<trkpt lat="33.8103489" lon="-118.3944006">
  <ele>-0.115</ele>
  <time>2026-09-02T22:07:27Z</time>
  <course>9.33</course>
  <speed>1.790111728356641</speed>
  <fix>3d</fix>
</trkpt>
<trkpt lat="33.8103489" lon="-118.3944008">
  <ele>-0.115</ele>
  <time>2026-09-02T22:07:27Z</time>
  <course>9.33</course>
  <speed>1.790111728356641</speed>
  <fix>3d</fix>
</trkpt>
<trkpt lat="33.8103489" lon="-118.394401">
  <ele>-0.114</ele>
  <time>2026-09-02T22:07:27Z</time>
  <course>9.33</course>
  <speed>1.790111728356641</speed>
  <fix>3d</fix>
</trkpt>
<trkpt lat="33.8103489" lon="-118.3944012">
  <ele>-0.114</ele>
  <time>2026-09-02T22:07:27Z</time>
  <course>9.33</course>
  <speed>1.790111728356641</speed>
  <fix>3d</fix>
</trkpt>
<trkpt lat="33.810349" lon="-118.3944013">
  <ele>-0.114</ele>
  <time>2026-09-02T22:07:27Z</time>
  <course>9.33</course>
  <speed>1.790111728356641</speed>
  <fix>3d</fix>
</trkpt>
<trkpt lat="33.810349" lon="-118.3944015">
  <ele>-0.114</ele>
  <time>2026-09-02T22:07:27Z</time>
  <course>9.33</course>
  <speed>1.790111728356641</speed>
  <fix>3d</fix>
</trkpt>
<trkpt lat="33.810349" lon="-118.3944017">
  <ele>-0.114</ele>
  <time>2026-09-02T22:07:27Z</time>
  <course>9.33</course>
  <speed>1.790111728356641</speed>
  <fix>3d</fix>
</trkpt>
<trkpt lat="33.810349" lon="-118.3944017">
  <ele>-0.114</ele>
  <time>2026-09-02T22:07:27Z</time>
  <course>9.33</course>
  <speed>1.790111728356641</speed>
  <fix>3d</fix>
</trkpt>
<trkpt lat="33.810349" lon="-118.3943991">
  <ele>-0.1</ele>
  <time>2026-09-02T22:07:27Z</time>
  <course>277.1</course>
  <speed>1.82</speed>
  <fix>3d</fix>
</trkpt>
<trkpt lat="33.810349" lon="-118.3944019">
  <ele>-0.114</ele>
  <time>2026-09-02T22:07:27Z</time>
  <course>9.34</course>
  <speed>1.790111728356641</speed>
  <fix>3d</fix>
</trkpt>
<trkpt lat="33.810349" lon="-118.3944021">
  <ele>-0.114</ele>
  <time>2026-09-02T22:07:27Z</time>
  <course>9.34</course>
  <speed>1.790111728356641</speed>
  <fix>3d</fix>
</trkpt>
<trkpt lat="33.810349" lon="-118.3944023">
  <ele>-0.114</ele>
  <time>2026-09-02T22:07:27Z</time>
  <course>9.34</course>
  <speed>1.790111728356641</speed>
  <fix>3d</fix>
</trkpt>
<trkpt lat="33.8103491" lon="-118.3944024">
  <ele>-0.114</ele>
  <time>2026-09-02T22:07:27Z</time>
  <course>9.34</course>
  <speed>1.790111728356641</speed>
  <fix>3d</fix>
</trkpt>
<trkpt lat="33.8103491" lon="-118.3944026">
  <ele>-0.114</ele>
  <time>2026-09-02T22:07:27Z</time>
  <course>9.34</course>
  <speed>1.790111728356641</speed>
  <fix>3d</fix>
</trkpt>
<trkpt lat="33.8103491" lon="-118.3944027">
  <ele>-0.114</ele>
  <time>2026-09-02T22:07:27Z</time>
  <course>9.34</course>
  <speed>1.790111728356641</speed>
  <fix>3d</fix>
</trkpt>
<trkpt lat="33.8103491" lon="-118.3944029">
  <ele>-0.114</ele>
  <time>2026-09-02T22:07:27Z</time>
  <course>9.34</course>
  <speed>1.790111728356641</speed>
  <fix>3d</fix>
</trkpt>
<trkpt lat="33.8103491" lon="-118.3944031">
  <ele>-0.114</ele>
  <time>2026-09-02T22:07:27Z</time>
  <course>9.34</course>
  <speed>1.790111728356641</speed>
  <fix>3d</fix>
</trkpt>
<trkpt lat="33.8103492" lon="-118.3944033">
  <ele>-0.114</ele>
  <time>2026-09-02T22:07:27Z</time>
  <course>9.34</course>
  <speed>1.790111728356641</speed>
  <fix>3d</fix>
</trkpt>
<trkpt lat="33.8103492" lon="-118.3944035">
  <ele>-0.113</ele>
  <time>2026-09-02T22:07:27Z</time>
  <course>9.34</course>
  <speed>1.790111728356641</speed>
  <fix>3d</fix>
</trkpt>
<trkpt lat="33.8103492" lon="-118.3944036">
  <ele>-0.113</ele>
  <time>2026-09-02T22:07:27Z</time>
  <course>9.34</course>
  <speed>1.790111728356641</speed>
  <fix>3d</fix>
</trkpt>
<trkpt lat="33.810349" lon="-118.3943991">
  <ele>-0.1</ele>
  <time>2026-09-02T22:07:27Z</time>
  <course>277.1</course>
  <speed>1.82</speed>
  <fix>3d</fix>
</trkpt>
<trkpt lat="33.8103492" lon="-118.3944037">
  <ele>-0.113</ele>
  <time>2026-09-02T22:07:27Z</time>
  <course>9.34</course>
  <speed>1.790111728356641</speed>
  <fix>3d</fix>
</trkpt>
<trkpt lat="33.8103492" lon="-118.394404">
  <ele>-0.113</ele>
  <time>2026-09-02T22:07:27Z</time>
  <course>9.34</course>
  <speed>1.790111728356641</speed>
  <fix>3d</fix>
</trkpt>
<trkpt lat="33.8103492" lon="-118.3944042">
  <ele>-0.113</ele>
  <time>2026-09-02T22:07:27Z</time>
  <course>9.35</course>
  <speed>1.790111728356641</speed>
  <fix>3d</fix>
</trkpt>
<trkpt lat="33.8103493" lon="-118.3944043">
  <ele>-0.113</ele>
  <time>2026-09-02T22:07:27Z</time>
  <course>9.35</course>
  <speed>1.790111728356641</speed>
  <fix>3d</fix>
</trkpt>
<trkpt lat="33.8103493" lon="-118.3944045">
  <ele>-0.113</ele>
  <time>2026-09-02T22:07:27Z</time>
  <course>9.35</course>
  <speed>1.790111728356641</speed>
  <fix>3d</fix>
</trkpt>
<trkpt lat="33.8103493" lon="-118.3944046">
  <ele>-0.113</ele>
  <time>2026-09-02T22:07:27Z</time>
  <course>9.35</course>
  <speed>1.790111728356641</speed>
  <fix>3d</fix>
</trkpt>
<trkpt lat="33.8103493" lon="-118.3944048">
  <ele>-0.113</ele>
  <time>2026-09-02T22:07:27Z</time>
  <course>9.35</course>
  <speed>1.790111728356641</speed>
  <fix>3d</fix>
</trkpt>
<trkpt lat="33.8103493" lon="-118.3944049">
  <ele>-0.113</ele>
  <time>2026-09-02T22:07:27Z</time>
  <course>9.35</course>
  <speed>1.790111728356641</speed>
  <fix>3d</fix>
</trkpt>
<trkpt lat="33.8103493" lon="-118.3944051">
  <ele>-0.113</ele>
  <time>2026-09-02T22:07:27Z</time>
  <course>9.35</course>
  <speed>1.790111728356641</speed>
  <fix>3d</fix>
</trkpt>
<trkpt lat="33.8103494" lon="-118.3944053">
  <ele>-0.113</ele>
  <time>2026-09-02T22:07:27Z</time>
  <course>9.35</course>
  <speed>1.790111728356641</speed>
  <fix>3d</fix>
</trkpt>
<trkpt lat="33.8103494" lon="-118.3944054">
  <ele>-0.113</ele>
  <time>2026-09-02T22:07:27Z</time>
  <course>9.35</course>
  <speed>1.790111728356641</speed>
  <fix>3d</fix>
</trkpt>
<trkpt lat="33.8103494" lon="-118.3944056">
  <ele>-0.113</ele>
  <time>2026-09-02T22:07:27Z</time>
  <course>9.35</course>
  <speed>1.790111728356641</speed>
  <fix>3d</fix>
</trkpt>
<trkpt lat="33.8103494" lon="-118.3944056">
  <ele>-0.113</ele>
  <time>2026-09-02T22:07:27Z</time>
  <course>9.35</course>
  <speed>1.790111728356641</speed>
  <fix>3d</fix>
</trkpt>
<trkpt lat="33.8103493" lon="-118.394403">
  <ele>-0.1</ele>
  <time>2026-09-02T22:07:27Z</time>
  <course>277.12</course>
  <speed>1.82</speed>
  <fix>3d</fix>
</trkpt>
<trkpt lat="33.8103494" lon="-118.3944059">
  <ele>-0.113</ele>
  <time>2026-09-02T22:07:27Z</time>
  <course>9.35</course>
  <speed>1.790111728356641</speed>
  <fix>3d</fix>
</trkpt>
<trkpt lat="33.8103494" lon="-118.3944061">
  <ele>-0.113</ele>
  <time>2026-09-02T22:07:27Z</time>
  <course>9.35</course>
  <speed>1.790111728356641</speed>
  <fix>3d</fix>
</trkpt>
<trkpt lat="33.8103495" lon="-118.3944063">
  <ele>-0.113</ele>
  <time>2026-09-02T22:07:27Z</time>
  <course>9.35</course>
  <speed>1.790111728356641</speed>
  <fix>3d</fix>
</trkpt>
<trkpt lat="33.8103495" lon="-118.3944065">
  <ele>-0.113</ele>
  <time>2026-09-02T22:07:27Z</time>
  <course>9.35</course>
  <speed>1.790111728356641</speed>
  <fix>3d</fix>
</trkpt>
<trkpt lat="33.8103495" lon="-118.3944067">
  <ele>-0.113</ele>
  <time>2026-09-02T22:07:27Z</time>
  <course>9.36</course>
  <speed>1.790111728356641</speed>
  <fix>3d</fix>
</trkpt>
<trkpt lat="33.8103495" lon="-118.3944069">
  <ele>-0.113</ele>
  <time>2026-09-02T22:07:27Z</time>
  <course>9.36</course>
  <speed>1.790111728356641</speed>
  <fix>3d</fix>
</trkpt>
<trkpt lat="33.8103495" lon="-118.394407">
  <ele>-0.114</ele>
  <time>2026-09-02T22:07:27Z</time>
  <course>9.36</course>
  <speed>1.790111728356641</speed>
  <fix>3d</fix>
</trkpt>
<trkpt lat="33.8103496" lon="-118.3944071">
  <ele>-0.114</ele>
  <time>2026-09-02T22:07:27Z</time>
  <course>9.36</course>
  <speed>1.790111728356641</speed>
  <fix>3d</fix>
</trkpt>
<trkpt lat="33.8103496" lon="-118.3944073">
  <ele>-0.114</ele>
  <time>2026-09-02T22:07:27Z</time>
  <course>9.36</course>
  <speed>1.790111728356641</speed>
  <fix>3d</fix>
</trkpt>
<trkpt lat="33.8103496" lon="-118.3944074">
  <ele>-0.114</ele>
  <time>2026-09-02T22:07:27Z</time>
  <course>9.36</course>
  <speed>1.790111728356641</speed>
  <fix>3d</fix>
</trkpt>
<trkpt lat="33.8103496" lon="-118.3944075">
  <ele>-0.114</ele>
  <time>2026-09-02T22:07:27Z</time>
  <course>9.36</course>
  <speed>1.790111728356641</speed>
  <fix>3d</fix>
</trkpt>
<trkpt lat="33.8103493" lon="-118.394403">
  <ele>-0.1</ele>
  <time>2026-09-02T22:07:27Z</time>
  <course>277.12</course>
  <speed>1.82</speed>
  <fix>3d</fix>
</trkpt>
<trkpt lat="33.8103496" lon="-118.3944076">
  <ele>-0.114</ele>
  <time>2026-09-02T22:07:27Z</time>
  <course>9.36</course>
  <speed>1.790111728356641</speed>
  <fix>3d</fix>
</trkpt>
<trkpt lat="33.8103496" lon="-118.3944079">
  <ele>-0.114</ele>
  <time>2026-09-02T22:07:27Z</time>
  <course>9.36</course>
  <speed>1.790111728356641</speed>
  <fix>3d</fix>
</trkpt>
<trkpt lat="33.8103496" lon="-118.3944081">
  <ele>-0.114</ele>
  <time>2026-09-02T22:07:27Z</time>
  <course>9.36</course>
  <speed>1.790111728356641</speed>
  <fix>3d</fix>
</trkpt>
<trkpt lat="33.8103497" lon="-118.3944083">
  <ele>-0.114</ele>
  <time>2026-09-02T22:07:27Z</time>
  <course>9.36</course>
  <speed>1.790111728356641</speed>
  <fix>3d</fix>
</trkpt>
<trkpt lat="33.8103497" lon="-118.3944084">
  <ele>-0.114</ele>
  <time>2026-09-02T22:07:27Z</time>
  <course>9.36</course>
  <speed>1.790111728356641</speed>
  <fix>3d</fix>
</trkpt>
<trkpt lat="33.8103497" lon="-118.3944086">
  <ele>-0.114</ele>
  <time>2026-09-02T22:07:27Z</time>
  <course>9.36</course>
  <speed>1.790111728356641</speed>
  <fix>3d</fix>
</trkpt>
<trkpt lat="33.8103497" lon="-118.3944088">
  <ele>-0.114</ele>
  <time>2026-09-02T22:07:27Z</time>
  <course>9.36</course>
  <speed>1.790111728356641</speed>
  <fix>3d</fix>
</trkpt>
<trkpt lat="33.8103497" lon="-118.3944089">
  <ele>-0.114</ele>
  <time>2026-09-02T22:07:27Z</time>
  <course>9.36</course>
  <speed>1.790111728356641</speed>
  <fix>3d</fix>
</trkpt>
<trkpt lat="33.8103498" lon="-118.3944091">
  <ele>-0.114</ele>
  <time>2026-09-02T22:07:27Z</time>
  <course>9.36</course>
  <speed>1.790111728356641</speed>
  <fix>3d</fix>
</trkpt>
<trkpt lat="33.8103498" lon="-118.3944091">
  <ele>-0.114</ele>
  <time>2026-09-02T22:07:27Z</time>
  <course>9.37</course>
  <speed>1.790111728356641</speed>
  <fix>3d</fix>
</trkpt>
<trkpt lat="33.8103498" lon="-118.3944095">
  <ele>-0.114</ele>
  <time>2026-09-02T22:07:27Z</time>
  <course>9.37</course>
  <speed>1.790111728356641</speed>
  <fix>3d</fix>
</trkpt>
<trkpt lat="33.8103498" lon="-118.3944069">
  <ele>-0.1</ele>
  <time>2026-09-02T22:07:27Z</time>
  <course>277.14</course>
  <speed>1.82</speed>
  <fix>3d</fix>
</trkpt>
<trkpt lat="33.8103498" lon="-118.3944095">
  <ele>-0.114</ele>
  <time>2026-09-02T22:07:27Z</time>
  <course>9.37</course>
  <speed>1.790111728356641</speed>
  <fix>3d</fix>
</trkpt>
<trkpt lat="33.8103499" lon="-118.3944103">
  <ele>-0.114</ele>
  <time>2026-09-02T22:07:27Z</time>
  <course>9.37</course>
  <speed>1.790111728356641</speed>
  <fix>3d</fix>
</trkpt>
<trkpt lat="33.8103499" lon="-118.3944106">
  <ele>-0.114</ele>
  <time>2026-09-02T22:07:27Z</time>
  <course>9.37</course>
  <speed>1.790111728356641</speed>
  <fix>3d</fix>
</trkpt>
<trkpt lat="33.8103499" lon="-118.3944108">
  <ele>-0.114</ele>
  <time>2026-09-02T22:07:27Z</time>
  <course>9.37</course>
  <speed>1.790111728356641</speed>
  <fix>3d</fix>
</trkpt>
<trkpt lat="33.81035" lon="-118.3944111">
  <ele>-0.114</ele>
  <time>2026-09-02T22:07:27Z</time>
  <course>9.37</course>
  <speed>1.790111728356641</speed>
  <fix>3d</fix>
</trkpt>
<trkpt lat="33.81035" lon="-118.3944113">
  <ele>-0.114</ele>
  <time>2026-09-02T22:07:27Z</time>
  <course>9.37</course>
  <speed>1.790111728356641</speed>
  <fix>3d</fix>
</trkpt>
<trkpt lat="33.81035" lon="-118.3944114">
  <ele>-0.114</ele>
  <time>2026-09-02T22:07:27Z</time>
  <course>9.37</course>
  <speed>1.790111728356641</speed>
  <fix>3d</fix>
</trkpt>
<trkpt lat="33.8103498" lon="-118.3944069">
  <ele>-0.1</ele>
  <time>2026-09-02T22:07:27Z</time>
  <course>277.14</course>
  <speed>1.82</speed>
  <fix>3d</fix>
</trkpt>
<trkpt lat="33.81035" lon="-118.3944115">
  <ele>-0.114</ele>
  <time>2026-09-02T22:07:27Z</time>
  <course>9.37</course>
  <speed>1.790111728356641</speed>
  <fix>3d</fix>
</trkpt>
<trkpt lat="33.8103501" lon="-118.3944122">
  <ele>-0.114</ele>
  <time>2026-09-02T22:07:27Z</time>
  <course>9.38</course>
  <speed>1.790111728356641</speed>
  <fix>3d</fix>
</trkpt>
<trkpt lat="33.8103501" lon="-118.3944123">
  <ele>-0.114</ele>
  <time>2026-09-02T22:07:27Z</time>
  <course>9.38</course>
  <speed>1.790111728356641</speed>
  <fix>3d</fix>
</trkpt>
<trkpt lat="33.8103501" lon="-118.3944125">
  <ele>-0.114</ele>
  <time>2026-09-02T22:07:27Z</time>
  <course>9.38</course>
  <speed>1.790111728356641</speed>
  <fix>3d</fix>
</trkpt>
<trkpt lat="33.8103501" lon="-118.3944127">
  <ele>-0.114</ele>
  <time>2026-09-02T22:07:27Z</time>
  <course>9.38</course>
  <speed>1.790111728356641</speed>
  <fix>3d</fix>
</trkpt>
<trkpt lat="33.8103501" lon="-118.3944129">
  <ele>-0.114</ele>
  <time>2026-09-02T22:07:27Z</time>
  <course>9.38</course>
  <speed>1.790111728356641</speed>
  <fix>3d</fix>
</trkpt>
<trkpt lat="33.8103502" lon="-118.3944131">
  <ele>-0.114</ele>
  <time>2026-09-02T22:07:27Z</time>
  <course>9.38</course>
  <speed>1.790111728356641</speed>
  <fix>3d</fix>
</trkpt>
<trkpt lat="33.8103502" lon="-118.3944133">
  <ele>-0.114</ele>
  <time>2026-09-02T22:07:27Z</time>
  <course>9.38</course>
  <speed>1.790111728356641</speed>
  <fix>3d</fix>
</trkpt>
<trkpt lat="33.8103502" lon="-118.3944134">
  <ele>-0.114</ele>
  <time>2026-09-02T22:07:27Z</time>
  <course>9.38</course>
  <speed>1.790111728356641</speed>
  <fix>3d</fix>
</trkpt>
<trkpt lat="33.8103502" lon="-118.3944108">
  <ele>-0.1</ele>
  <time>2026-09-02T22:07:27Z</time>
  <course>277.16</course>
  <speed>1.82</speed>
  <fix>3d</fix>
</trkpt>
<trkpt lat="33.8103502" lon="-118.3944135">
  <ele>-0.114</ele>
  <time>2026-09-02T22:07:27Z</time>
  <course>9.38</course>
  <speed>1.790111728356641</speed>
  <fix>3d</fix>
</trkpt>
<trkpt lat="33.8103502" lon="-118.3944137">
  <ele>-0.114</ele>
  <time>2026-09-02T22:07:27Z</time>
  <course>9.38</course>
  <speed>1.7912007146045916</speed>
  <fix>3d</fix>
</trkpt>
<trkpt lat="33.8103503" lon="-118.3944139">
  <ele>-0.114</ele>
  <time>2026-09-02T22:07:27Z</time>
  <course>9.38</course>
  <speed>1.790111728356641</speed>
  <fix>3d</fix>
</trkpt>
<trkpt lat="33.8103503" lon="-118.3944141">
  <ele>-0.114</ele>
  <time>2026-09-02T22:07:27Z</time>
  <course>9.39</course>
  <speed>1.790111728356641</speed>
  <fix>3d</fix>
</trkpt>
<trkpt lat="33.8103503" lon="-118.3944143">
  <ele>-0.114</ele>
  <time>2026-09-02T22:07:27Z</time>
  <course>9.39</course>
  <speed>1.7912007146045916</speed>
  <fix>3d</fix>
</trkpt>
<trkpt lat="33.8103503" lon="-118.3944144">
  <ele>-0.114</ele>
  <time>2026-09-02T22:07:27Z</time>
  <course>9.39</course>
  <speed>1.7912007146045916</speed>
  <fix>3d</fix>
</trkpt>
<trkpt lat="33.8103503" lon="-118.3944146">
  <ele>-0.114</ele>
  <time>2026-09-02T22:07:27Z</time>
  <course>9.39</course>
  <speed>1.7912007146045916</speed>
  <fix>3d</fix>
</trkpt>
<trkpt lat="33.8103504" lon="-118.3944148">
  <ele>-0.114</ele>
  <time>2026-09-02T22:07:27Z</time>
  <course>9.39</course>
  <speed>1.7912007146045916</speed>
  <fix>3d</fix>
</trkpt>
<trkpt lat="33.8103504" lon="-118.394415">
  <ele>-0.114</ele>
  <time>2026-09-02T22:07:27Z</time>
  <course>9.39</course>
  <speed>1.7912007146045916</speed>
  <fix>3d</fix>
</trkpt>
<trkpt lat="33.8103504" lon="-118.3944152">
  <ele>-0.115</ele>
  <time>2026-09-02T22:07:27Z</time>
  <course>9.39</course>
  <speed>1.7912007146045916</speed>
  <fix>3d</fix>
</trkpt>
<trkpt lat="33.8103504" lon="-118.3944154">
  <ele>-0.115</ele>
  <time>2026-09-02T22:07:27Z</time>
  <course>9.39</course>
  <speed>1.7912007146045916</speed>
  <fix>3d</fix>
</trkpt>
<trkpt lat="33.8103502" lon="-118.3944108">
  <ele>-0.1</ele>
  <time>2026-09-02T22:07:27Z</time>
  <course>277.16</course>
  <speed>1.82</speed>
  <fix>3d</fix>
</trkpt>
<trkpt lat="33.8103504" lon="-118.3944154">
  <ele>-0.115</ele>
  <time>2026-09-02T22:07:27Z</time>
  <course>9.39</course>
  <speed>1.7912007146045916</speed>
  <fix>3d</fix>
</trkpt>
<trkpt lat="33.8103504" lon="-118.3944158">
  <ele>-0.115</ele>
  <time>2026-09-02T22:07:27Z</time>
  <course>9.39</course>
  <speed>1.7912007146045916</speed>
  <fix>3d</fix>
</trkpt>
<trkpt lat="33.8103505" lon="-118.394416">
  <ele>-0.115</ele>
  <time>2026-09-02T22:07:27Z</time>
  <course>9.39</course>
  <speed>1.7912007146045916</speed>
  <fix>3d</fix>
</trkpt>
<trkpt lat="33.8103505" lon="-118.3944162">
  <ele>-0.115</ele>
  <time>2026-09-02T22:07:27Z</time>
  <course>9.39</course>
  <speed>1.7912007146045916</speed>
  <fix>3d</fix>
</trkpt>
<trkpt lat="33.8103505" lon="-118.3944163">
  <ele>-0.115</ele>
  <time>2026-09-02T22:07:27Z</time>
  <course>9.39</course>
  <speed>1.7912007146045916</speed>
  <fix>3d</fix>
</trkpt>
<trkpt lat="33.8103505" lon="-118.3944165">
  <ele>-0.115</ele>
  <time>2026-09-02T22:07:27Z</time>
  <course>9.39</course>
  <speed>1.7912007146045916</speed>
  <fix>3d</fix>
</trkpt>
<trkpt lat="33.8103505" lon="-118.3944167">
  <ele>-0.115</ele>
  <time>2026-09-02T22:07:27Z</time>
  <course>9.4</course>
  <speed>1.7912007146045916</speed>
  <fix>3d</fix>
</trkpt>
<trkpt lat="33.8103506" lon="-118.3944169">
  <ele>-0.115</ele>
  <time>2026-09-02T22:07:27Z</time>
  <course>9.4</course>
  <speed>1.7912007146045916</speed>
  <fix>3d</fix>
</trkpt>
<trkpt lat="33.8103506" lon="-118.3944171">
  <ele>-0.115</ele>
  <time>2026-09-02T22:07:27Z</time>
  <course>9.4</course>
  <speed>1.7912007146045916</speed>
  <fix>3d</fix>
</trkpt>
<trkpt lat="33.8103506" lon="-118.3944172">
  <ele>-0.115</ele>
  <time>2026-09-02T22:07:27Z</time>
  <course>9.4</course>
  <speed>1.7912007146045916</speed>
  <fix>3d</fix>
</trkpt>
<trkpt lat="33.8103506" lon="-118.3944173">
  <ele>-0.115</ele>
  <time>2026-09-02T22:07:27Z</time>
  <course>9.4</course>
  <speed>1.7912007146045916</speed>
  <fix>3d</fix>
</trkpt>
<trkpt lat="33.8103506" lon="-118.3944147">
  <ele>-0.1</ele>
  <time>2026-09-02T22:07:27Z</time>
  <course>277.18</course>
  <speed>1.82</speed>
  <fix>3d</fix>
</trkpt>
<trkpt lat="33.8103506" lon="-118.3944174">
  <ele>-0.115</ele>
  <time>2026-09-02T22:07:27Z</time>
  <course>9.4</course>
  <speed>1.7912007146045916</speed>
  <fix>3d</fix>
</trkpt>
<trkpt lat="33.8103507" lon="-118.3944178">
  <ele>-0.115</ele>
  <time>2026-09-02T22:07:27Z</time>
  <course>9.4</course>
  <speed>1.7912007146045916</speed>
  <fix>3d</fix>
</trkpt>
<trkpt lat="33.8103507" lon="-118.394418">
  <ele>-0.115</ele>
  <time>2026-09-02T22:07:27Z</time>
  <course>9.4</course>
  <speed>1.7912007146045916</speed>
  <fix>3d</fix>
</trkpt>
<trkpt lat="33.8103507" lon="-118.3944182">
  <ele>-0.115</ele>
  <time>2026-09-02T22:07:27Z</time>
  <course>9.4</course>
  <speed>1.7912007146045916</speed>
  <fix>3d</fix>
</trkpt>
<trkpt lat="33.8103507" lon="-118.3944184">
  <ele>-0.115</ele>
  <time>2026-09-02T22:07:27Z</time>
  <course>9.4</course>
  <speed>1.7912007146045916</speed>
  <fix>3d</fix>
</trkpt>
<trkpt lat="33.8103507" lon="-118.3944184">
  <ele>-0.115</ele>
  <time>2026-09-02T22:07:27Z</time>
  <course>9.4</course>
  <speed>1.7912007146045916</speed>
  <fix>3d</fix>
</trkpt>
<trkpt lat="33.8103507" lon="-118.3944186">
  <ele>-0.114</ele>
  <time>2026-09-02T22:07:27Z</time>
  <course>9.4</course>
  <speed>1.7912007146045916</speed>
  <fix>3d</fix>
</trkpt>
<trkpt lat="33.8103508" lon="-118.3944188">
  <ele>-0.114</ele>
  <time>2026-09-02T22:07:27Z</time>
  <course>9.4</course>
  <speed>1.7912007146045916</speed>
  <fix>3d</fix>
</trkpt>
<trkpt lat="33.8103508" lon="-118.3944189">
  <ele>-0.114</ele>
  <time>2026-09-02T22:07:27Z</time>
  <course>9.4</course>
  <speed>1.7912007146045916</speed>
  <fix>3d</fix>
</trkpt>
<trkpt lat="33.8103508" lon="-118.3944191">
  <ele>-0.114</ele>
  <time>2026-09-02T22:07:27Z</time>
  <course>9.4</course>
  <speed>1.7912007146045916</speed>
  <fix>3d</fix>
</trkpt>
<trkpt lat="33.8103508" lon="-118.3944193">
  <ele>-0.114</ele>
  <time>2026-09-02T22:07:27Z</time>
  <course>9.41</course>
  <speed>1.7912007146045916</speed>
  <fix>3d</fix>
</trkpt>
<trkpt lat="33.8103508" lon="-118.3944193">
  <ele>-0.114</ele>
  <time>2026-09-02T22:07:27Z</time>
  <course>9.41</course>
  <speed>1.7912007146045916</speed>
  <fix>3d</fix>
</trkpt>
<trkpt lat="33.8103506" lon="-118.3944147">
  <ele>-0.1</ele>
  <time>2026-09-02T22:07:27Z</time>
  <course>277.18</course>
  <speed>1.82</speed>
  <fix>3d</fix>
</trkpt>
<trkpt lat="33.8103509" lon="-118.3944197">
  <ele>-0.114</ele>
  <time>2026-09-02T22:07:27Z</time>
  <course>9.41</course>
  <speed>1.7912007146045916</speed>
  <fix>3d</fix>
</trkpt>
<trkpt lat="33.8103509" lon="-118.3944199">
  <ele>-0.114</ele>
  <time>2026-09-02T22:07:27Z</time>
  <course>9.41</course>
  <speed>1.7912007146045916</speed>
  <fix>3d</fix>
</trkpt>
<trkpt lat="33.8103509" lon="-118.3944201">
  <ele>-0.114</ele>
  <time>2026-09-02T22:07:27Z</time>
  <course>9.41</course>
  <speed>1.7912007146045916</speed>
  <fix>3d</fix>
</trkpt>
<trkpt lat="33.8103509" lon="-118.3944203">
  <ele>-0.114</ele>
  <time>2026-09-02T22:07:27Z</time>
  <course>9.41</course>
  <speed>1.7912007146045916</speed>
  <fix>3d</fix>
</trkpt>
<trkpt lat="33.8103509" lon="-118.3944205">
  <ele>-0.114</ele>
  <time>2026-09-02T22:07:27Z</time>
  <course>9.41</course>
  <speed>1.7912007146045916</speed>
  <fix>3d</fix>
</trkpt>
<trkpt lat="33.810351" lon="-118.3944206">
  <ele>-0.114</ele>
  <time>2026-09-02T22:07:27Z</time>
  <course>9.41</course>
  <speed>1.7912007146045916</speed>
  <fix>3d</fix>
</trkpt>
<trkpt lat="33.810351" lon="-118.3944208">
  <ele>-0.114</ele>
  <time>2026-09-02T22:07:27Z</time>
  <course>9.41</course>
  <speed>1.7912007146045916</speed>
  <fix>3d</fix>
</trkpt>
<trkpt lat="33.810351" lon="-118.394421">
  <ele>-0.114</ele>
  <time>2026-09-02T22:07:27Z</time>
  <course>9.41</course>
  <speed>1.7912007146045916</speed>
  <fix>3d</fix>
</trkpt>
<trkpt lat="33.810351" lon="-118.3944212">
  <ele>-0.114</ele>
  <time>2026-09-02T22:07:27Z</time>
  <course>9.41</course>
  <speed>1.7912007146045916</speed>
  <fix>3d</fix>
</trkpt>
<trkpt lat="33.810351" lon="-118.3944212">
  <ele>-0.114</ele>
  <time>2026-09-02T22:07:27Z</time>
  <course>9.41</course>
  <speed>1.7912007146045916</speed>
  <fix>3d</fix>
</trkpt>
<trkpt lat="33.8103511" lon="-118.3944186">
  <ele>-0.1</ele>
  <time>2026-09-02T22:07:27Z</time>
  <course>277.2</course>
  <speed>1.82</speed>
  <fix>3d</fix>
</trkpt>
<trkpt lat="33.8103511" lon="-118.3944216">
  <ele>-0.113</ele>
  <time>2026-09-02T22:07:27Z</time>
  <course>9.41</course>
  <speed>1.7912007146045916</speed>
  <fix>3d</fix>
</trkpt>
<trkpt lat="33.8103511" lon="-118.3944218">
  <ele>-0.113</ele>
  <time>2026-09-02T22:07:27Z</time>
  <course>9.42</course>
  <speed>1.7912007146045916</speed>
  <fix>3d</fix>
</trkpt>
<trkpt lat="33.8103511" lon="-118.394422">
  <ele>-0.113</ele>
  <time>2026-09-02T22:07:27Z</time>
  <course>9.42</course>
  <speed>1.7912007146045916</speed>
  <fix>3d</fix>
</trkpt>
<trkpt lat="33.8103511" lon="-118.3944221">
  <ele>-0.113</ele>
  <time>2026-09-02T22:07:27Z</time>
  <course>9.42</course>
  <speed>1.7912007146045916</speed>
  <fix>3d</fix>
</trkpt>
<trkpt lat="33.8103511" lon="-118.3944223">
  <ele>-0.113</ele>
  <time>2026-09-02T22:07:27Z</time>
  <course>9.42</course>
  <speed>1.7912007146045916</speed>
  <fix>3d</fix>
</trkpt>
<trkpt lat="33.8103512" lon="-118.3944225">
  <ele>-0.113</ele>
  <time>2026-09-02T22:07:27Z</time>
  <course>9.42</course>
  <speed>1.7912007146045916</speed>
  <fix>3d</fix>
</trkpt>
<trkpt lat="33.8103512" lon="-118.3944226">
  <ele>-0.113</ele>
  <time>2026-09-02T22:07:27Z</time>
  <course>9.42</course>
  <speed>1.7912007146045916</speed>
  <fix>3d</fix>
</trkpt>
<trkpt lat="33.8103512" lon="-118.3944228">
  <ele>-0.113</ele>
  <time>2026-09-02T22:07:27Z</time>
  <course>9.42</course>
  <speed>1.7912007146045916</speed>
  <fix>3d</fix>
</trkpt>
<trkpt lat="33.8103512" lon="-118.3944229">
  <ele>-0.113</ele>
  <time>2026-09-02T22:07:27Z</time>
  <course>9.42</course>
  <speed>1.7912007146045916</speed>
  <fix>3d</fix>
</trkpt>
<trkpt lat="33.8103512" lon="-118.3944231">
  <ele>-0.112</ele>
  <time>2026-09-02T22:07:27Z</time>
  <course>9.42</course>
  <speed>1.7912007146045916</speed>
  <fix>3d</fix>
</trkpt>
<trkpt lat="33.8103512" lon="-118.3944232">
  <ele>-0.112</ele>
  <time>2026-09-02T22:07:27Z</time>
  <course>9.42</course>
  <speed>1.7912007146045916</speed>
  <fix>3d</fix>
</trkpt>
<trkpt lat="33.8103511" lon="-118.3944186">
  <ele>-0.1</ele>
  <time>2026-09-02T22:07:27Z</time>
  <course>277.2</course>
  <speed>1.82</speed>
  <fix>3d</fix>
</trkpt>
<trkpt lat="33.8103512" lon="-118.3944232">
  <ele>-0.112</ele>
  <time>2026-09-02T22:07:27Z</time>
  <course>9.42</course>
  <speed>1.7912007146045916</speed>
  <fix>3d</fix>
</trkpt>
<trkpt lat="33.8103513" lon="-118.3944235">
  <ele>-0.112</ele>
  <time>2026-09-02T22:07:27Z</time>
  <course>9.42</course>
  <speed>1.7912007146045916</speed>
  <fix>3d</fix>
</trkpt>
<trkpt lat="33.8103513" lon="-118.3944237">
  <ele>-0.112</ele>
  <time>2026-09-02T22:07:27Z</time>
  <course>9.42</course>
  <speed>1.7912007146045916</speed>
  <fix>3d</fix>
</trkpt>
<trkpt lat="33.8103513" lon="-118.3944238">
  <ele>-0.112</ele>
  <time>2026-09-02T22:07:27Z</time>
  <course>9.42</course>
  <speed>1.7912007146045916</speed>
  <fix>3d</fix>
</trkpt>
<trkpt lat="33.8103513" lon="-118.394424">
  <ele>-0.112</ele>
  <time>2026-09-02T22:07:27Z</time>
  <course>9.42</course>
  <speed>1.7912007146045916</speed>
  <fix>3d</fix>
</trkpt>
<trkpt lat="33.8103513" lon="-118.3944241">
  <ele>-0.112</ele>
  <time>2026-09-02T22:07:27Z</time>
  <course>9.42</course>
  <speed>1.7912007146045916</speed>
  <fix>3d</fix>
</trkpt>
<trkpt lat="33.8103513" lon="-118.3944243">
  <ele>-0.112</ele>
  <time>2026-09-02T22:07:27Z</time>
  <course>9.43</course>
  <speed>1.7912007146045916</speed>
  <fix>3d</fix>
</trkpt>
<trkpt lat="33.8103514" lon="-118.3944244">
  <ele>-0.112</ele>
  <time>2026-09-02T22:07:27Z</time>
  <course>9.43</course>
  <speed>1.7912007146045916</speed>
  <fix>3d</fix>
</trkpt>
<trkpt lat="33.8103514" lon="-118.3944246">
  <ele>-0.112</ele>
  <time>2026-09-02T22:07:27Z</time>
  <course>9.43</course>
  <speed>1.7912007146045916</speed>
  <fix>3d</fix>
</trkpt>
<trkpt lat="33.8103514" lon="-118.3944247">
  <ele>-0.112</ele>
  <time>2026-09-02T22:07:27Z</time>
  <course>9.43</course>
  <speed>1.7912007146045916</speed>
  <fix>3d</fix>
</trkpt>
<trkpt lat="33.8103514" lon="-118.3944248">
  <ele>-0.112</ele>
  <time>2026-09-02T22:07:27Z</time>
  <course>9.43</course>
  <speed>1.7912007146045916</speed>
  <fix>3d</fix>
</trkpt>
<trkpt lat="33.8103514" lon="-118.394425">
  <ele>-0.111</ele>
  <time>2026-09-02T22:07:27Z</time>
  <course>9.43</course>
  <speed>1.7912007146045916</speed>
  <fix>3d</fix>
</trkpt>
<trkpt lat="33.8103514" lon="-118.3944251">
  <ele>-0.111</ele>
  <time>2026-09-02T22:07:27Z</time>
  <course>9.43</course>
  <speed>1.7912007146045916</speed>
  <fix>3d</fix>
</trkpt>
<trkpt lat="33.8103514" lon="-118.3944225">
  <ele>-0.1</ele>
  <time>2026-09-02T22:07:27Z</time>
  <course>277.22</course>
  <speed>1.82</speed>
  <fix>3d</fix>
</trkpt>
<trkpt lat="33.8103514" lon="-118.3944252">
  <ele>-0.111</ele>
  <time>2026-09-02T22:07:27Z</time>
  <course>9.43</course>
  <speed>1.7912007146045916</speed>
  <fix>3d</fix>
</trkpt>
<trkpt lat="33.8103515" lon="-118.3944254">
  <ele>-0.111</ele>
  <time>2026-09-02T22:07:27Z</time>
  <course>9.43</course>
  <speed>1.7912007146045916</speed>
  <fix>3d</fix>
</trkpt>
<trkpt lat="33.8103515" lon="-118.3944256">
  <ele>-0.111</ele>
  <time>2026-09-02T22:07:27Z</time>
  <course>9.43</course>
  <speed>1.7912007146045916</speed>
  <fix>3d</fix>
</trkpt>
<trkpt lat="33.8103515" lon="-118.3944258">
  <ele>-0.111</ele>
  <time>2026-09-02T22:07:27Z</time>
  <course>9.43</course>
  <speed>1.7912007146045916</speed>
  <fix>3d</fix>
</trkpt>
<trkpt lat="33.8103515" lon="-118.394426">
  <ele>-0.111</ele>
  <time>2026-09-02T22:07:27Z</time>
  <course>9.43</course>
  <speed>1.7912007146045916</speed>
  <fix>3d</fix>
</trkpt>
<trkpt lat="33.8103515" lon="-118.3944261">
  <ele>-0.111</ele>
  <time>2026-09-02T22:07:27Z</time>
  <course>9.43</course>
  <speed>1.7912007146045916</speed>
  <fix>3d</fix>
</trkpt>
<trkpt lat="33.8103516" lon="-118.3944263">
  <ele>-0.111</ele>
  <time>2026-09-02T22:07:27Z</time>
  <course>9.43</course>
  <speed>1.7912007146045916</speed>
  <fix>3d</fix>
</trkpt>
<trkpt lat="33.8103516" lon="-118.3944264">
  <ele>-0.111</ele>
  <time>2026-09-02T22:07:27Z</time>
  <course>9.43</course>
  <speed>1.7912007146045916</speed>
  <fix>3d</fix>
</trkpt>
<trkpt lat="33.8103516" lon="-118.3944266">
  <ele>-0.111</ele>
  <time>2026-09-02T22:07:27Z</time>
  <course>9.43</course>
  <speed>1.7912007146045916</speed>
  <fix>3d</fix>
</trkpt>
<trkpt lat="33.8103516" lon="-118.3944267">
  <ele>-0.111</ele>
  <time>2026-09-02T22:07:27Z</time>
  <course>9.43</course>
  <speed>1.7912007146045916</speed>
  <fix>3d</fix>
</trkpt>
<trkpt lat="33.8103516" lon="-118.3944269">
  <ele>-0.111</ele>
  <time>2026-09-02T22:07:27Z</time>
  <course>9.44</course>
  <speed>1.7912007146045916</speed>
  <fix>3d</fix>
</trkpt>
<trkpt lat="33.8103516" lon="-118.3944271">
  <ele>-0.111</ele>
  <time>2026-09-02T22:07:27Z</time>
  <course>9.44</course>
  <speed>1.7912007146045916</speed>
  <fix>3d</fix>
</trkpt>
<trkpt lat="33.8103516" lon="-118.3944271">
  <ele>-0.111</ele>
  <time>2026-09-02T22:07:27Z</time>
  <course>9.44</course>
  <speed>1.7912007146045916</speed>
  <fix>3d</fix>
</trkpt>
<trkpt lat="33.8103514" lon="-118.3944225">
  <ele>-0.1</ele>
  <time>2026-09-02T22:07:27Z</time>
  <course>277.22</course>
  <speed>1.82</speed>
  <fix>3d</fix>
</trkpt>
<trkpt lat="33.8103517" lon="-118.3944273">
  <ele>-0.112</ele>
  <time>2026-09-02T22:07:27Z</time>
  <course>9.44</course>
  <speed>1.7912007146045916</speed>
  <fix>3d</fix>
</trkpt>
<trkpt lat="33.8103517" lon="-118.3944275">
  <ele>-0.112</ele>
  <time>2026-09-02T22:07:27Z</time>
  <course>9.44</course>
  <speed>1.7912007146045916</speed>
  <fix>3d</fix>
</trkpt>
<trkpt lat="33.8103517" lon="-118.3944277">
  <ele>-0.112</ele>
  <time>2026-09-02T22:07:27Z</time>
  <course>9.44</course>
  <speed>1.7912007146045916</speed>
  <fix>3d</fix>
</trkpt>
<trkpt lat="33.8103517" lon="-118.3944278">
  <ele>-0.112</ele>
  <time>2026-09-02T22:07:27Z</time>
  <course>9.44</course>
  <speed>1.7912007146045916</speed>
  <fix>3d</fix>
</trkpt>
<trkpt lat="33.8103517" lon="-118.394428">
  <ele>-0.112</ele>
  <time>2026-09-02T22:07:27Z</time>
  <course>9.44</course>
  <speed>1.7912007146045916</speed>
  <fix>3d</fix>
</trkpt>
<trkpt lat="33.8103518" lon="-118.3944281">
  <ele>-0.112</ele>
  <time>2026-09-02T22:07:27Z</time>
  <course>9.44</course>
  <speed>1.7912007146045916</speed>
  <fix>3d</fix>
</trkpt>
<trkpt lat="33.8103518" lon="-118.3944283">
  <ele>-0.112</ele>
  <time>2026-09-02T22:07:27Z</time>
  <course>9.44</course>
  <speed>1.7912007146045916</speed>
  <fix>3d</fix>
</trkpt>
<trkpt lat="33.8103518" lon="-118.3944285">
  <ele>-0.111</ele>
  <time>2026-09-02T22:07:27Z</time>
  <course>9.44</course>
  <speed>1.7912007146045916</speed>
  <fix>3d</fix>
</trkpt>
<trkpt lat="33.8103518" lon="-118.3944287">
  <ele>-0.111</ele>
  <time>2026-09-02T22:07:27Z</time>
  <course>9.44</course>
  <speed>1.7912007146045916</speed>
  <fix>3d</fix>
</trkpt>
<trkpt lat="33.8103518" lon="-118.3944288">
  <ele>-0.111</ele>
  <time>2026-09-02T22:07:27Z</time>
  <course>9.44</course>
  <speed>1.7912007146045916</speed>
  <fix>3d</fix>
</trkpt>
<trkpt lat="33.8103519" lon="-118.394429">
  <ele>-0.111</ele>
  <time>2026-09-02T22:07:27Z</time>
  <course>9.44</course>
  <speed>1.7912007146045916</speed>
  <fix>3d</fix>
</trkpt>
<trkpt lat="33.8103519" lon="-118.394429">
  <ele>-0.111</ele>
  <time>2026-09-02T22:07:27Z</time>
  <course>9.44</course>
  <speed>1.7912007146045916</speed>
  <fix>3d</fix>
</trkpt>
<trkpt lat="33.8103519" lon="-118.3944264">
  <ele>-0.1</ele>
  <time>2026-09-02T22:07:27Z</time>
  <course>277.23</course>
  <speed>1.82</speed>
  <fix>3d</fix>
</trkpt>
<trkpt lat="33.8103519" lon="-118.3944293">
  <ele>-0.111</ele>
  <time>2026-09-02T22:07:27Z</time>
  <course>9.44</course>
  <speed>1.7912007146045916</speed>
  <fix>3d</fix>
</trkpt>
<trkpt lat="33.8103519" lon="-118.3944295">
  <ele>-0.111</ele>
  <time>2026-09-02T22:07:27Z</time>
  <course>9.45</course>
  <speed>1.7912007146045916</speed>
  <fix>3d</fix>
</trkpt>
<trkpt lat="33.8103519" lon="-118.3944297">
  <ele>-0.111</ele>
  <time>2026-09-02T22:07:27Z</time>
  <course>9.45</course>
  <speed>1.7912007146045916</speed>
  <fix>3d</fix>
</trkpt>
<trkpt lat="33.8103519" lon="-118.3944298">
  <ele>-0.111</ele>
  <time>2026-09-02T22:07:27Z</time>
  <course>9.45</course>
  <speed>1.7912007146045916</speed>
  <fix>3d</fix>
</trkpt>
<trkpt lat="33.810352" lon="-118.39443">
  <ele>-0.111</ele>
  <time>2026-09-02T22:07:27Z</time>
  <course>9.45</course>
  <speed>1.7912007146045916</speed>
  <fix>3d</fix>
</trkpt>
<trkpt lat="33.810352" lon="-118.3944302">
  <ele>-0.111</ele>
  <time>2026-09-02T22:07:27Z</time>
  <course>9.45</course>
  <speed>1.7912007146045916</speed>
  <fix>3d</fix>
</trkpt>
<trkpt lat="33.810352" lon="-118.3944303">
  <ele>-0.111</ele>
  <time>2026-09-02T22:07:27Z</time>
  <course>9.45</course>
  <speed>1.7912007146045916</speed>
  <fix>3d</fix>
</trkpt>
<trkpt lat="33.810352" lon="-118.3944305">
  <ele>-0.111</ele>
  <time>2026-09-02T22:07:27Z</time>
  <course>9.45</course>
  <speed>1.7912007146045916</speed>
  <fix>3d</fix>
</trkpt>
<trkpt lat="33.810352" lon="-118.3944306">
  <ele>-0.111</ele>
  <time>2026-09-02T22:07:27Z</time>
  <course>9.45</course>
  <speed>1.7912007146045916</speed>
  <fix>3d</fix>
</trkpt>
<trkpt lat="33.810352" lon="-118.3944308">
  <ele>-0.111</ele>
  <time>2026-09-02T22:07:27Z</time>
  <course>9.45</course>
  <speed>1.7912007146045916</speed>
  <fix>3d</fix>
</trkpt>
<trkpt lat="33.8103521" lon="-118.394431">
  <ele>-0.111</ele>
  <time>2026-09-02T22:07:27Z</time>
  <course>9.45</course>
  <speed>1.7912007146045916</speed>
  <fix>3d</fix>
</trkpt>
<trkpt lat="33.8103521" lon="-118.394431">
  <ele>-0.111</ele>
  <time>2026-09-02T22:07:27Z</time>
  <course>9.45</course>
  <speed>1.7912007146045916</speed>
  <fix>3d</fix>
</trkpt>
<trkpt lat="33.8103519" lon="-118.3944264">
  <ele>-0.1</ele>
  <time>2026-09-02T22:07:27Z</time>
  <course>277.23</course>
  <speed>1.82</speed>
  <fix>3d</fix>
</trkpt>
<trkpt lat="33.8103521" lon="-118.3944313">
  <ele>-0.111</ele>
  <time>2026-09-02T22:07:27Z</time>
  <course>9.45</course>
  <speed>1.7912007146045916</speed>
  <fix>3d</fix>
</trkpt>
<trkpt lat="33.8103521" lon="-118.3944315">
  <ele>-0.111</ele>
  <time>2026-09-02T22:07:27Z</time>
  <course>9.45</course>
  <speed>1.7912007146045916</speed>
  <fix>3d</fix>
</trkpt>
<trkpt lat="33.8103521" lon="-118.3944316">
  <ele>-0.111</ele>
  <time>2026-09-02T22:07:27Z</time>
  <course>9.45</course>
  <speed>1.7912007146045916</speed>
  <fix>3d</fix>
</trkpt>
<trkpt lat="33.8103521" lon="-118.3944318">
  <ele>-0.111</ele>
  <time>2026-09-02T22:07:27Z</time>
  <course>9.45</course>
  <speed>1.7912007146045916</speed>
  <fix>3d</fix>
</trkpt>
<trkpt lat="33.8103522" lon="-118.3944319">
  <ele>-0.111</ele>
  <time>2026-09-02T22:07:27Z</time>
  <course>9.45</course>
  <speed>1.7912007146045916</speed>
  <fix>3d</fix>
</trkpt>
<trkpt lat="33.8103522" lon="-118.3944321">
  <ele>-0.111</ele>
  <time>2026-09-02T22:07:28Z</time>
  <course>9.46</course>
  <speed>1.7912007146045916</speed>
  <fix>3d</fix>
</trkpt>
<trkpt lat="33.8103522" lon="-118.3944322">
  <ele>-0.111</ele>
  <time>2026-09-02T22:07:28Z</time>
  <course>9.46</course>
  <speed>1.7912007146045916</speed>
  <fix>3d</fix>
</trkpt>
<trkpt lat="33.8103522" lon="-118.3944324">
  <ele>-0.111</ele>
  <time>2026-09-02T22:07:28Z</time>
  <course>9.46</course>
  <speed>1.7912007146045916</speed>
  <fix>3d</fix>
</trkpt>
<trkpt lat="33.8103522" lon="-118.3944325">
  <ele>-0.111</ele>
  <time>2026-09-02T22:07:28Z</time>
  <course>9.46</course>
  <speed>1.7912007146045916</speed>
  <fix>3d</fix>
</trkpt>
<trkpt lat="33.8103522" lon="-118.3944327">
  <ele>-0.111</ele>
  <time>2026-09-02T22:07:28Z</time>
  <course>9.46</course>
  <speed>1.7912007146045916</speed>
  <fix>3d</fix>
</trkpt>
<trkpt lat="33.8103523" lon="-118.3944328">
  <ele>-0.111</ele>
  <time>2026-09-02T22:07:28Z</time>
  <course>9.46</course>
  <speed>1.7912007146045916</speed>
  <fix>3d</fix>
</trkpt>
<trkpt lat="33.8103523" lon="-118.3944329">
  <ele>-0.111</ele>
  <time>2026-09-02T22:07:28Z</time>
  <course>9.46</course>
  <speed>1.7912007146045916</speed>
  <fix>3d</fix>
</trkpt>
<trkpt lat="33.8103523" lon="-118.3944329">
  <ele>-0.111</ele>
  <time>2026-09-02T22:07:28Z</time>
  <course>9.46</course>
  <speed>1.7912007146045916</speed>
  <fix>3d</fix>
</trkpt>
<trkpt lat="33.8103523" lon="-118.3944303">
  <ele>-0.1</ele>
  <time>2026-09-02T22:07:28Z</time>
  <course>277.25</course>
  <speed>1.82</speed>
  <fix>3d</fix>
</trkpt>
<trkpt lat="33.8103523" lon="-118.3944332">
  <ele>-0.11</ele>
  <time>2026-09-02T22:07:28Z</time>
  <course>9.46</course>
  <speed>1.7912007146045916</speed>
  <fix>3d</fix>
</trkpt>
<trkpt lat="33.8103523" lon="-118.3944334">
  <ele>-0.11</ele>
  <time>2026-09-02T22:07:28Z</time>
  <course>9.46</course>
  <speed>1.7912007146045916</speed>
  <fix>3d</fix>
</trkpt>
<trkpt lat="33.8103523" lon="-118.3944336">
  <ele>-0.11</ele>
  <time>2026-09-02T22:07:28Z</time>
  <course>9.46</course>
  <speed>1.7912007146045916</speed>
  <fix>3d</fix>
</trkpt>
<trkpt lat="33.8103524" lon="-118.3944337">
  <ele>-0.11</ele>
  <time>2026-09-02T22:07:28Z</time>
  <course>9.46</course>
  <speed>1.7912007146045916</speed>
  <fix>3d</fix>
</trkpt>
<trkpt lat="33.8103524" lon="-118.3944339">
  <ele>-0.11</ele>
  <time>2026-09-02T22:07:28Z</time>
  <course>9.46</course>
  <speed>1.7912007146045916</speed>
  <fix>3d</fix>
</trkpt>
<trkpt lat="33.8103524" lon="-118.3944341">
  <ele>-0.11</ele>
  <time>2026-09-02T22:07:28Z</time>
  <course>9.46</course>
  <speed>1.7912007146045916</speed>
  <fix>3d</fix>
</trkpt>
<trkpt lat="33.8103524" lon="-118.3944342">
  <ele>-0.11</ele>
  <time>2026-09-02T22:07:28Z</time>
  <course>9.46</course>
  <speed>1.7912007146045916</speed>
  <fix>3d</fix>
</trkpt>
<trkpt lat="33.8103524" lon="-118.3944344">
  <ele>-0.11</ele>
  <time>2026-09-02T22:07:28Z</time>
  <course>9.46</course>
  <speed>1.7912007146045916</speed>
  <fix>3d</fix>
</trkpt>
<trkpt lat="33.8103525" lon="-118.3944345">
  <ele>-0.11</ele>
  <time>2026-09-02T22:07:28Z</time>
  <course>9.46</course>
  <speed>1.7912007146045916</speed>
  <fix>3d</fix>
</trkpt>
<trkpt lat="33.8103525" lon="-118.3944347">
  <ele>-0.11</ele>
  <time>2026-09-02T22:07:28Z</time>
  <course>9.47</course>
  <speed>1.7912007146045916</speed>
  <fix>3d</fix>
</trkpt>
<trkpt lat="33.8103525" lon="-118.3944349">
  <ele>-0.11</ele>
  <time>2026-09-02T22:07:28Z</time>
  <course>9.47</course>
  <speed>1.7912007146045916</speed>
  <fix>3d</fix>
</trkpt>
<trkpt lat="33.8103525" lon="-118.3944349">
  <ele>-0.11</ele>
  <time>2026-09-02T22:07:28Z</time>
  <course>9.47</course>
  <speed>1.7912007146045916</speed>
  <fix>3d</fix>
</trkpt>
<trkpt lat="33.8103523" lon="-118.3944303">
  <ele>-0.1</ele>
  <time>2026-09-02T22:07:28Z</time>
  <course>277.25</course>
  <speed>1.82</speed>
  <fix>3d</fix>
</trkpt>
<trkpt lat="33.8103525" lon="-118.3944352">
  <ele>-0.109</ele>
  <time>2026-09-02T22:07:28Z</time>
  <course>9.47</course>
  <speed>1.7912007146045916</speed>
  <fix>3d</fix>
</trkpt>
<trkpt lat="33.8103525" lon="-118.3944354">
  <ele>-0.109</ele>
  <time>2026-09-02T22:07:28Z</time>
  <course>9.47</course>
  <speed>1.7912007146045916</speed>
  <fix>3d</fix>
</trkpt>
<trkpt lat="33.8103526" lon="-118.3944355">
  <ele>-0.109</ele>
  <time>2026-09-02T22:07:28Z</time>
  <course>9.47</course>
  <speed>1.7912007146045916</speed>
  <fix>3d</fix>
</trkpt>
<trkpt lat="33.8103526" lon="-118.3944357">
  <ele>-0.109</ele>
  <time>2026-09-02T22:07:28Z</time>
  <course>9.47</course>
  <speed>1.7912007146045916</speed>
  <fix>3d</fix>
</trkpt>
<trkpt lat="33.8103526" lon="-118.3944358">
  <ele>-0.109</ele>
  <time>2026-09-02T22:07:28Z</time>
  <course>9.47</course>
  <speed>1.7912007146045916</speed>
  <fix>3d</fix>
</trkpt>
<trkpt lat="33.8103526" lon="-118.394436">
  <ele>-0.109</ele>
  <time>2026-09-02T22:07:28Z</time>
  <course>9.47</course>
  <speed>1.7912007146045916</speed>
  <fix>3d</fix>
</trkpt>
<trkpt lat="33.8103526" lon="-118.3944362">
  <ele>-0.109</ele>
  <time>2026-09-02T22:07:28Z</time>
  <course>9.47</course>
  <speed>1.7912007146045916</speed>
  <fix>3d</fix>
</trkpt>
<trkpt lat="33.8103526" lon="-118.3944364">
  <ele>-0.108</ele>
  <time>2026-09-02T22:07:28Z</time>
  <course>9.47</course>
  <speed>1.7912007146045916</speed>
  <fix>3d</fix>
</trkpt>
<trkpt lat="33.8103527" lon="-118.3944365">
  <ele>-0.108</ele>
  <time>2026-09-02T22:07:28Z</time>
  <course>9.47</course>
  <speed>1.7912007146045916</speed>
  <fix>3d</fix>
</trkpt>
<trkpt lat="33.8103527" lon="-118.3944367">
  <ele>-0.108</ele>
  <time>2026-09-02T22:07:28Z</time>
  <course>9.47</course>
  <speed>1.7912007146045916</speed>
  <fix>3d</fix>
</trkpt>
<trkpt lat="33.8103527" lon="-118.3944368">
  <ele>-0.108</ele>
  <time>2026-09-02T22:07:28Z</time>
  <course>9.47</course>
  <speed>1.7912007146045916</speed>
  <fix>3d</fix>
</trkpt>
<trkpt lat="33.8103527" lon="-118.3944368">
  <ele>-0.108</ele>
  <time>2026-09-02T22:07:28Z</time>
  <course>9.47</course>
  <speed>1.7912007146045916</speed>
  <fix>3d</fix>
</trkpt>
<trkpt lat="33.8103526" lon="-118.3944342">
  <ele>-0.1</ele>
  <time>2026-09-02T22:07:28Z</time>
  <course>277.27</course>
  <speed>1.82</speed>
  <fix>3d</fix>
</trkpt>
<trkpt lat="33.8103527" lon="-118.3944371">
  <ele>-0.108</ele>
  <time>2026-09-02T22:07:28Z</time>
  <course>9.47</course>
  <speed>1.7912007146045916</speed>
  <fix>3d</fix>
</trkpt>
<trkpt lat="33.8103528" lon="-118.3944374">
  <ele>-0.107</ele>
  <time>2026-09-02T22:07:28Z</time>
  <course>9.48</course>
  <speed>1.7912007146045916</speed>
  <fix>3d</fix>
</trkpt>
<trkpt lat="33.8103528" lon="-118.3944376">
  <ele>-0.107</ele>
  <time>2026-09-02T22:07:28Z</time>
  <course>9.48</course>
  <speed>1.7912007146045916</speed>
  <fix>3d</fix>
</trkpt>
<trkpt lat="33.8103528" lon="-118.3944377">
  <ele>-0.107</ele>
  <time>2026-09-02T22:07:28Z</time>
  <course>9.48</course>
  <speed>1.7912007146045916</speed>
  <fix>3d</fix>
</trkpt>
<trkpt lat="33.8103528" lon="-118.3944379">
  <ele>-0.107</ele>
  <time>2026-09-02T22:07:28Z</time>
  <course>9.48</course>
  <speed>1.7912007146045916</speed>
  <fix>3d</fix>
</trkpt>
<trkpt lat="33.8103528" lon="-118.394438">
  <ele>-0.107</ele>
  <time>2026-09-02T22:07:28Z</time>
  <course>9.48</course>
  <speed>1.7912007146045916</speed>
  <fix>3d</fix>
</trkpt>
<trkpt lat="33.8103528" lon="-118.3944382">
  <ele>-0.107</ele>
  <time>2026-09-02T22:07:28Z</time>
  <course>9.48</course>
  <speed>1.7912007146045916</speed>
  <fix>3d</fix>
</trkpt>
<trkpt lat="33.8103529" lon="-118.3944383">
  <ele>-0.107</ele>
  <time>2026-09-02T22:07:28Z</time>
  <course>9.48</course>
  <speed>1.7912007146045916</speed>
  <fix>3d</fix>
</trkpt>
<trkpt lat="33.8103529" lon="-118.3944385">
  <ele>-0.107</ele>
  <time>2026-09-02T22:07:28Z</time>
  <course>9.48</course>
  <speed>1.7912007146045916</speed>
  <fix>3d</fix>
</trkpt>
<trkpt lat="33.8103529" lon="-118.3944386">
  <ele>-0.107</ele>
  <time>2026-09-02T22:07:28Z</time>
  <course>9.48</course>
  <speed>1.7912007146045916</speed>
  <fix>3d</fix>
</trkpt>
<trkpt lat="33.8103529" lon="-118.3944388">
  <ele>-0.107</ele>
  <time>2026-09-02T22:07:28Z</time>
  <course>9.48</course>
  <speed>1.7912007146045916</speed>
  <fix>3d</fix>
</trkpt>
<trkpt lat="33.8103526" lon="-118.3944342">
  <ele>-0.1</ele>
  <time>2026-09-02T22:07:28Z</time>
  <course>277.27</course>
  <speed>1.82</speed>
  <fix>3d</fix>
</trkpt>
<trkpt lat="33.8103529" lon="-118.3944388">
  <ele>-0.107</ele>
  <time>2026-09-02T22:07:28Z</time>
  <course>9.48</course>
  <speed>1.7912007146045916</speed>
  <fix>3d</fix>
</trkpt>
<trkpt lat="33.8103529" lon="-118.3944391">
  <ele>-0.107</ele>
  <time>2026-09-02T22:07:28Z</time>
  <course>9.48</course>
  <speed>1.7912007146045916</speed>
  <fix>3d</fix>
</trkpt>
<trkpt lat="33.810353" lon="-118.3944393">
  <ele>-0.107</ele>
  <time>2026-09-02T22:07:28Z</time>
  <course>9.48</course>
  <speed>1.7912007146045916</speed>
  <fix>3d</fix>
</trkpt>
<trkpt lat="33.810353" lon="-118.3944395">
  <ele>-0.107</ele>
  <time>2026-09-02T22:07:28Z</time>
  <course>9.48</course>
  <speed>1.7912007146045916</speed>
  <fix>3d</fix>
</trkpt>
<trkpt lat="33.810353" lon="-118.3944396">
  <ele>-0.107</ele>
  <time>2026-09-02T22:07:28Z</time>
  <course>9.48</course>
  <speed>1.7912007146045916</speed>
  <fix>3d</fix>
</trkpt>
<trkpt lat="33.810353" lon="-118.3944398">
  <ele>-0.107</ele>
  <time>2026-09-02T22:07:28Z</time>
  <course>9.48</course>
  <speed>1.7912007146045916</speed>
  <fix>3d</fix>
</trkpt>
<trkpt lat="33.810353" lon="-118.3944399">
  <ele>-0.107</ele>
  <time>2026-09-02T22:07:28Z</time>
  <course>9.49</course>
  <speed>1.7912007146045916</speed>
  <fix>3d</fix>
</trkpt>
<trkpt lat="33.810353" lon="-118.3944401">
  <ele>-0.106</ele>
  <time>2026-09-02T22:07:28Z</time>
  <course>9.49</course>
  <speed>1.7912007146045916</speed>
  <fix>3d</fix>
</trkpt>
<trkpt lat="33.8103531" lon="-118.3944402">
  <ele>-0.106</ele>
  <time>2026-09-02T22:07:28Z</time>
  <course>9.49</course>
  <speed>1.7912007146045916</speed>
  <fix>3d</fix>
</trkpt>
<trkpt lat="33.8103531" lon="-118.3944404">
  <ele>-0.106</ele>
  <time>2026-09-02T22:07:28Z</time>
  <course>9.49</course>
  <speed>1.7912007146045916</speed>
  <fix>3d</fix>
</trkpt>
<trkpt lat="33.8103531" lon="-118.3944406">
  <ele>-0.106</ele>
  <time>2026-09-02T22:07:28Z</time>
  <course>9.49</course>
  <speed>1.7912007146045916</speed>
  <fix>3d</fix>
</trkpt>
<trkpt lat="33.8103531" lon="-118.3944408">
  <ele>-0.106</ele>
  <time>2026-09-02T22:07:28Z</time>
  <course>9.49</course>
  <speed>1.7912007146045916</speed>
  <fix>3d</fix>
</trkpt>
<trkpt lat="33.8103531" lon="-118.3944408">
  <ele>-0.106</ele>
  <time>2026-09-02T22:07:28Z</time>
  <course>9.49</course>
  <speed>1.7912007146045916</speed>
  <fix>3d</fix>
</trkpt>
<trkpt lat="33.8103531" lon="-118.3944381">
  <ele>-0.1</ele>
  <time>2026-09-02T22:07:28Z</time>
  <course>277.29</course>
  <speed>1.82</speed>
  <fix>3d</fix>
</trkpt>
<trkpt lat="33.8103531" lon="-118.394441">
  <ele>-0.106</ele>
  <time>2026-09-02T22:07:28Z</time>
  <course>9.49</course>
  <speed>1.7912007146045916</speed>
  <fix>3d</fix>
</trkpt>
<trkpt lat="33.8103532" lon="-118.3944412">
  <ele>-0.106</ele>
  <time>2026-09-02T22:07:28Z</time>
  <course>9.49</course>
  <speed>1.7912007146045916</speed>
  <fix>3d</fix>
</trkpt>
<trkpt lat="33.8103532" lon="-118.3944414">
  <ele>-0.106</ele>
  <time>2026-09-02T22:07:28Z</time>
  <course>9.49</course>
  <speed>1.7912007146045916</speed>
  <fix>3d</fix>
</trkpt>
<trkpt lat="33.8103532" lon="-118.3944416">
  <ele>-0.106</ele>
  <time>2026-09-02T22:07:28Z</time>
  <course>9.49</course>
  <speed>1.7912007146045916</speed>
  <fix>3d</fix>
</trkpt>
<trkpt lat="33.8103532" lon="-118.3944417">
  <ele>-0.106</ele>
  <time>2026-09-02T22:07:28Z</time>
  <course>9.49</course>
  <speed>1.7912007146045916</speed>
  <fix>3d</fix>
</trkpt>
<trkpt lat="33.8103532" lon="-118.3944419">
  <ele>-0.105</ele>
  <time>2026-09-02T22:07:28Z</time>
  <course>9.49</course>
  <speed>1.7912007146045916</speed>
  <fix>3d</fix>
</trkpt>
<trkpt lat="33.8103532" lon="-118.394442">
  <ele>-0.105</ele>
  <time>2026-09-02T22:07:28Z</time>
  <course>9.49</course>
  <speed>1.7912007146045916</speed>
  <fix>3d</fix>
</trkpt>
<trkpt lat="33.8103533" lon="-118.3944422">
  <ele>-0.105</ele>
  <time>2026-09-02T22:07:28Z</time>
  <course>9.49</course>
  <speed>1.7912007146045916</speed>
  <fix>3d</fix>
</trkpt>
<trkpt lat="33.8103533" lon="-118.3944424">
  <ele>-0.105</ele>
  <time>2026-09-02T22:07:28Z</time>
  <course>9.49</course>
  <speed>1.7912007146045916</speed>
  <fix>3d</fix>
</trkpt>
<trkpt lat="33.8103533" lon="-118.3944425">
  <ele>-0.105</ele>
  <time>2026-09-02T22:07:28Z</time>
  <course>9.5</course>
  <speed>1.7912007146045916</speed>
  <fix>3d</fix>
</trkpt>
<trkpt lat="33.8103533" lon="-118.3944427">
  <ele>-0.105</ele>
  <time>2026-09-02T22:07:28Z</time>
  <course>9.5</course>
  <speed>1.7912007146045916</speed>
  <fix>3d</fix>
</trkpt>
<trkpt lat="33.8103533" lon="-118.3944427">
  <ele>-0.105</ele>
  <time>2026-09-02T22:07:28Z</time>
  <course>9.5</course>
  <speed>1.7912007146045916</speed>
  <fix>3d</fix>
</trkpt>
<trkpt lat="33.8103531" lon="-118.3944381">
  <ele>-0.1</ele>
  <time>2026-09-02T22:07:28Z</time>
  <course>277.29</course>
  <speed>1.82</speed>
  <fix>3d</fix>
</trkpt>
<trkpt lat="33.8103533" lon="-118.394443">
  <ele>-0.105</ele>
  <time>2026-09-02T22:07:28Z</time>
  <course>9.5</course>
  <speed>1.7912007146045916</speed>
  <fix>3d</fix>
</trkpt>
<trkpt lat="33.8103534" lon="-118.3944432">
  <ele>-0.105</ele>
  <time>2026-09-02T22:07:28Z</time>
  <course>9.5</course>
  <speed>1.7912007146045916</speed>
  <fix>3d</fix>
</trkpt>
<trkpt lat="33.8103534" lon="-118.3944434">
  <ele>-0.104</ele>
  <time>2026-09-02T22:07:28Z</time>
  <course>9.5</course>
  <speed>1.7912007146045916</speed>
  <fix>3d</fix>
</trkpt>
<trkpt lat="33.8103534" lon="-118.3944435">
  <ele>-0.104</ele>
  <time>2026-09-02T22:07:28Z</time>
  <course>9.5</course>
  <speed>1.7912007146045916</speed>
  <fix>3d</fix>
</trkpt>
<trkpt lat="33.8103534" lon="-118.3944437">
  <ele>-0.104</ele>
  <time>2026-09-02T22:07:28Z</time>
  <course>9.5</course>
  <speed>1.7912007146045916</speed>
  <fix>3d</fix>
</trkpt>
<trkpt lat="33.8103534" lon="-118.3944439">
  <ele>-0.104</ele>
  <time>2026-09-02T22:07:28Z</time>
  <course>9.5</course>
  <speed>1.7912007146045916</speed>
  <fix>3d</fix>
</trkpt>
<trkpt lat="33.8103535" lon="-118.3944441">
  <ele>-0.104</ele>
  <time>2026-09-02T22:07:28Z</time>
  <course>9.5</course>
  <speed>1.7912007146045916</speed>
  <fix>3d</fix>
</trkpt>
<trkpt lat="33.8103535" lon="-118.3944443">
  <ele>-0.104</ele>
  <time>2026-09-02T22:07:28Z</time>
  <course>9.5</course>
  <speed>1.7912007146045916</speed>
  <fix>3d</fix>
</trkpt>
<trkpt lat="33.8103535" lon="-118.3944444">
  <ele>-0.104</ele>
  <time>2026-09-02T22:07:28Z</time>
  <course>9.5</course>
  <speed>1.7912007146045916</speed>
  <fix>3d</fix>
</trkpt>
<trkpt lat="33.8103535" lon="-118.3944446">
  <ele>-0.104</ele>
  <time>2026-09-02T22:07:28Z</time>
  <course>9.5</course>
  <speed>1.7912007146045916</speed>
  <fix>3d</fix>
</trkpt>
<trkpt lat="33.8103535" lon="-118.3944447">
  <ele>-0.104</ele>
  <time>2026-09-02T22:07:28Z</time>
  <course>9.5</course>
  <speed>1.7912007146045916</speed>
  <fix>3d</fix>
</trkpt>
<trkpt lat="33.8103535" lon="-118.3944421">
  <ele>-0.1</ele>
  <time>2026-09-02T22:07:28Z</time>
  <course>277.3</course>
  <speed>1.82</speed>
  <fix>3d</fix>
</trkpt>
<trkpt lat="33.8103535" lon="-118.3944447">
  <ele>-0.104</ele>
  <time>2026-09-02T22:07:28Z</time>
  <course>9.5</course>
  <speed>1.7912007146045916</speed>
  <fix>3d</fix>
</trkpt>
<trkpt lat="33.8103536" lon="-118.394445">
  <ele>-0.104</ele>
  <time>2026-09-02T22:07:28Z</time>
  <course>9.5</course>
  <speed>1.7912007146045916</speed>
  <fix>3d</fix>
</trkpt>
<trkpt lat="33.8103536" lon="-118.3944451">
  <ele>-0.104</ele>
  <time>2026-09-02T22:07:28Z</time>
  <course>9.51</course>
  <speed>1.7912007146045916</speed>
  <fix>3d</fix>
</trkpt>
<trkpt lat="33.8103536" lon="-118.3944453">
  <ele>-0.104</ele>
  <time>2026-09-02T22:07:28Z</time>
  <course>9.51</course>
  <speed>1.7912007146045916</speed>
  <fix>3d</fix>
</trkpt>
<trkpt lat="33.8103536" lon="-118.3944454">
  <ele>-0.104</ele>
  <time>2026-09-02T22:07:28Z</time>
  <course>9.51</course>
  <speed>1.7912007146045916</speed>
  <fix>3d</fix>
</trkpt>
<trkpt lat="33.8103536" lon="-118.3944456">
  <ele>-0.104</ele>
  <time>2026-09-02T22:07:28Z</time>
  <course>9.51</course>
  <speed>1.7912007146045916</speed>
  <fix>3d</fix>
</trkpt>
<trkpt lat="33.8103536" lon="-118.3944457">
  <ele>-0.104</ele>
  <time>2026-09-02T22:07:28Z</time>
  <course>9.51</course>
  <speed>1.7912007146045916</speed>
  <fix>3d</fix>
</trkpt>
<trkpt lat="33.8103537" lon="-118.3944459">
  <ele>-0.104</ele>
  <time>2026-09-02T22:07:28Z</time>
  <course>9.51</course>
  <speed>1.7912007146045916</speed>
  <fix>3d</fix>
</trkpt>
<trkpt lat="33.8103537" lon="-118.394446">
  <ele>-0.104</ele>
  <time>2026-09-02T22:07:28Z</time>
  <course>9.51</course>
  <speed>1.7912007146045916</speed>
  <fix>3d</fix>
</trkpt>
<trkpt lat="33.8103537" lon="-118.3944462">
  <ele>-0.104</ele>
  <time>2026-09-02T22:07:28Z</time>
  <course>9.51</course>
  <speed>1.7912007146045916</speed>
  <fix>3d</fix>
</trkpt>
<trkpt lat="33.8103537" lon="-118.3944464">
  <ele>-0.104</ele>
  <time>2026-09-02T22:07:28Z</time>
  <course>9.51</course>
  <speed>1.7912007146045916</speed>
  <fix>3d</fix>
</trkpt>
<trkpt lat="33.8103537" lon="-118.3944465">
  <ele>-0.104</ele>
  <time>2026-09-02T22:07:28Z</time>
  <course>9.51</course>
  <speed>1.7912007146045916</speed>
  <fix>3d</fix>
</trkpt>
<trkpt lat="33.8103537" lon="-118.3944466">
  <ele>-0.104</ele>
  <time>2026-09-02T22:07:28Z</time>
  <course>9.51</course>
  <speed>1.7912007146045916</speed>
  <fix>3d</fix>
</trkpt>
<trkpt lat="33.8103537" lon="-118.3944466">
  <ele>-0.104</ele>
  <time>2026-09-02T22:07:28Z</time>
  <course>9.51</course>
  <speed>1.7912007146045916</speed>
  <fix>3d</fix>
</trkpt>
<trkpt lat="33.8103535" lon="-118.3944421">
  <ele>-0.1</ele>
  <time>2026-09-02T22:07:28Z</time>
  <course>277.3</course>
  <speed>1.82</speed>
  <fix>3d</fix>
</trkpt>
<trkpt lat="33.8103538" lon="-118.3944469">
  <ele>-0.104</ele>
  <time>2026-09-02T22:07:28Z</time>
  <course>9.51</course>
  <speed>1.7912007146045916</speed>
  <fix>3d</fix>
</trkpt>
<trkpt lat="33.8103538" lon="-118.3944471">
  <ele>-0.104</ele>
  <time>2026-09-02T22:07:28Z</time>
  <course>9.51</course>
  <speed>1.7912007146045916</speed>
  <fix>3d</fix>
</trkpt>
<trkpt lat="33.8103538" lon="-118.3944472">
  <ele>-0.104</ele>
  <time>2026-09-02T22:07:28Z</time>
  <course>9.51</course>
  <speed>1.7912007146045916</speed>
  <fix>3d</fix>
</trkpt>
<trkpt lat="33.8103538" lon="-118.3944474">
  <ele>-0.104</ele>
  <time>2026-09-02T22:07:28Z</time>
  <course>9.51</course>
  <speed>1.7912007146045916</speed>
  <fix>3d</fix>
</trkpt>
<trkpt lat="33.8103538" lon="-118.3944475">
  <ele>-0.104</ele>
  <time>2026-09-02T22:07:28Z</time>
  <course>9.51</course>
  <speed>1.7912007146045916</speed>
  <fix>3d</fix>
</trkpt>
<trkpt lat="33.8103538" lon="-118.3944477">
  <ele>-0.104</ele>
  <time>2026-09-02T22:07:28Z</time>
  <course>9.51</course>
  <speed>1.7912007146045916</speed>
  <fix>3d</fix>
</trkpt>
<trkpt lat="33.8103539" lon="-118.3944479">
  <ele>-0.104</ele>
  <time>2026-09-02T22:07:28Z</time>
  <course>9.52</course>
  <speed>1.7912007146045916</speed>
  <fix>3d</fix>
</trkpt>
<trkpt lat="33.8103539" lon="-118.3944481">
  <ele>-0.104</ele>
  <time>2026-09-02T22:07:28Z</time>
  <course>9.52</course>
  <speed>1.7912007146045916</speed>
  <fix>3d</fix>
</trkpt>
<trkpt lat="33.8103539" lon="-118.3944483">
  <ele>-0.104</ele>
  <time>2026-09-02T22:07:28Z</time>
  <course>9.52</course>
  <speed>1.7912007146045916</speed>
  <fix>3d</fix>
</trkpt>
<trkpt lat="33.8103539" lon="-118.3944485">
  <ele>-0.104</ele>
  <time>2026-09-02T22:07:28Z</time>
  <course>9.52</course>
  <speed>1.7912007146045916</speed>
  <fix>3d</fix>
</trkpt>
<trkpt lat="33.8103539" lon="-118.3944486">
  <ele>-0.104</ele>
  <time>2026-09-02T22:07:28Z</time>
  <course>9.52</course>
  <speed>1.7912007146045916</speed>
  <fix>3d</fix>
</trkpt>
<trkpt lat="33.8103539" lon="-118.394446">
  <ele>-0.1</ele>
  <time>2026-09-02T22:07:28Z</time>
  <course>277.32</course>
  <speed>1.82</speed>
  <fix>3d</fix>
</trkpt>
<trkpt lat="33.810354" lon="-118.3944486">
  <ele>-0.104</ele>
  <time>2026-09-02T22:07:28Z</time>
  <course>9.52</course>
  <speed>1.7912007146045916</speed>
  <fix>3d</fix>
</trkpt>
<trkpt lat="33.810354" lon="-118.3944489">
  <ele>-0.104</ele>
  <time>2026-09-02T22:07:28Z</time>
  <course>9.52</course>
  <speed>1.7912007146045916</speed>
  <fix>3d</fix>
</trkpt>
<trkpt lat="33.810354" lon="-118.3944491">
  <ele>-0.104</ele>
  <time>2026-09-02T22:07:28Z</time>
  <course>9.52</course>
  <speed>1.7912007146045916</speed>
  <fix>3d</fix>
</trkpt>
<trkpt lat="33.810354" lon="-118.3944492">
  <ele>-0.104</ele>
  <time>2026-09-02T22:07:28Z</time>
  <course>9.52</course>
  <speed>1.7912007146045916</speed>
  <fix>3d</fix>
</trkpt>
<trkpt lat="33.810354" lon="-118.3944494">
  <ele>-0.103</ele>
  <time>2026-09-02T22:07:28Z</time>
  <course>9.52</course>
  <speed>1.7912007146045916</speed>
  <fix>3d</fix>
</trkpt>
<trkpt lat="33.810354" lon="-118.3944495">
  <ele>-0.103</ele>
  <time>2026-09-02T22:07:28Z</time>
  <course>9.52</course>
  <speed>1.7912007146045916</speed>
  <fix>3d</fix>
</trkpt>
<trkpt lat="33.8103541" lon="-118.3944497">
  <ele>-0.103</ele>
  <time>2026-09-02T22:07:28Z</time>
  <course>9.52</course>
  <speed>1.7912007146045916</speed>
  <fix>3d</fix>
</trkpt>
<trkpt lat="33.8103541" lon="-118.3944498">
  <ele>-0.103</ele>
  <time>2026-09-02T22:07:28Z</time>
  <course>9.52</course>
  <speed>1.7912007146045916</speed>
  <fix>3d</fix>
</trkpt>
<trkpt lat="33.8103541" lon="-118.39445">
  <ele>-0.103</ele>
  <time>2026-09-02T22:07:28Z</time>
  <course>9.52</course>
  <speed>1.7912007146045916</speed>
  <fix>3d</fix>
</trkpt>
<trkpt lat="33.8103541" lon="-118.3944501">
  <ele>-0.103</ele>
  <time>2026-09-02T22:07:28Z</time>
  <course>9.52</course>
  <speed>1.7912007146045916</speed>
  <fix>3d</fix>
</trkpt>
<trkpt lat="33.8103541" lon="-118.3944503">
  <ele>-0.103</ele>
  <time>2026-09-02T22:07:28Z</time>
  <course>9.52</course>
  <speed>1.7912007146045916</speed>
  <fix>3d</fix>
</trkpt>
<trkpt lat="33.8103542" lon="-118.3944505">
  <ele>-0.103</ele>
  <time>2026-09-02T22:07:28Z</time>
  <course>9.52</course>
  <speed>1.7912007146045916</speed>
  <fix>3d</fix>
</trkpt>
<trkpt lat="33.8103542" lon="-118.3944505">
  <ele>-0.103</ele>
  <time>2026-09-02T22:07:28Z</time>
  <course>9.52</course>
  <speed>1.7912007146045916</speed>
  <fix>3d</fix>
</trkpt>
<trkpt lat="33.8103539" lon="-118.394446">
  <ele>-0.1</ele>
  <time>2026-09-02T22:07:28Z</time>
  <course>277.32</course>
  <speed>1.82</speed>
  <fix>3d</fix>
</trkpt>
<trkpt lat="33.8103542" lon="-118.3944508">
  <ele>-0.103</ele>
  <time>2026-09-02T22:07:28Z</time>
  <course>9.53</course>
  <speed>1.7912007146045916</speed>
  <fix>3d</fix>
</trkpt>
<trkpt lat="33.8103542" lon="-118.394451">
  <ele>-0.103</ele>
  <time>2026-09-02T22:07:28Z</time>
  <course>9.53</course>
  <speed>1.7912007146045916</speed>
  <fix>3d</fix>
</trkpt>
<trkpt lat="33.8103542" lon="-118.3944512">
  <ele>-0.103</ele>
  <time>2026-09-02T22:07:28Z</time>
  <course>9.53</course>
  <speed>1.7912007146045916</speed>
  <fix>3d</fix>
</trkpt>
<trkpt lat="33.8103542" lon="-118.3944514">
  <ele>-0.103</ele>
  <time>2026-09-02T22:07:28Z</time>
  <course>9.53</course>
  <speed>1.7912007146045916</speed>
  <fix>3d</fix>
</trkpt>
<trkpt lat="33.8103543" lon="-118.3944515">
  <ele>-0.103</ele>
  <time>2026-09-02T22:07:28Z</time>
  <course>9.53</course>
  <speed>1.7912007146045916</speed>
  <fix>3d</fix>
</trkpt>
<trkpt lat="33.8103543" lon="-118.3944517">
  <ele>-0.103</ele>
  <time>2026-09-02T22:07:28Z</time>
  <course>9.53</course>
  <speed>1.7912007146045916</speed>
  <fix>3d</fix>
</trkpt>
<trkpt lat="33.8103543" lon="-118.3944518">
  <ele>-0.103</ele>
  <time>2026-09-02T22:07:28Z</time>
  <course>9.53</course>
  <speed>1.7912007146045916</speed>
  <fix>3d</fix>
</trkpt>
<trkpt lat="33.8103543" lon="-118.394452">
  <ele>-0.103</ele>
  <time>2026-09-02T22:07:28Z</time>
  <course>9.53</course>
  <speed>1.7912007146045916</speed>
  <fix>3d</fix>
</trkpt>
<trkpt lat="33.8103543" lon="-118.3944522">
  <ele>-0.103</ele>
  <time>2026-09-02T22:07:28Z</time>
  <course>9.53</course>
  <speed>1.7912007146045916</speed>
  <fix>3d</fix>
</trkpt>
<trkpt lat="33.8103543" lon="-118.3944523">
  <ele>-0.103</ele>
  <time>2026-09-02T22:07:28Z</time>
  <course>9.53</course>
  <speed>1.7912007146045916</speed>
  <fix>3d</fix>
</trkpt>
<trkpt lat="33.8103544" lon="-118.3944525">
  <ele>-0.103</ele>
  <time>2026-09-02T22:07:28Z</time>
  <course>9.53</course>
  <speed>1.7912007146045916</speed>
  <fix>3d</fix>
</trkpt>
<trkpt lat="33.8103543" lon="-118.3944499">
  <ele>-0.1</ele>
  <time>2026-09-02T22:07:28Z</time>
  <course>277.34</course>
  <speed>1.82</speed>
  <fix>3d</fix>
</trkpt>
<trkpt lat="33.8103544" lon="-118.3944525">
  <ele>-0.103</ele>
  <time>2026-09-02T22:07:28Z</time>
  <course>9.53</course>
  <speed>1.7912007146045916</speed>
  <fix>3d</fix>
</trkpt>
<trkpt lat="33.8103544" lon="-118.3944528">
  <ele>-0.103</ele>
  <time>2026-09-02T22:07:28Z</time>
  <course>9.53</course>
  <speed>1.7912007146045916</speed>
  <fix>3d</fix>
</trkpt>
<trkpt lat="33.8103544" lon="-118.3944529">
  <ele>-0.102</ele>
  <time>2026-09-02T22:07:28Z</time>
  <course>9.53</course>
  <speed>1.7912007146045916</speed>
  <fix>3d</fix>
</trkpt>
<trkpt lat="33.8103544" lon="-118.3944531">
  <ele>-0.102</ele>
  <time>2026-09-02T22:07:28Z</time>
  <course>9.53</course>
  <speed>1.7912007146045916</speed>
  <fix>3d</fix>
</trkpt>
<trkpt lat="33.8103544" lon="-118.3944532">
  <ele>-0.103</ele>
  <time>2026-09-02T22:07:28Z</time>
  <course>9.54</course>
  <speed>1.7912007146045916</speed>
  <fix>3d</fix>
</trkpt>
<trkpt lat="33.8103545" lon="-118.3944534">
  <ele>-0.103</ele>
  <time>2026-09-02T22:07:28Z</time>
  <course>9.54</course>
  <speed>1.7912007146045916</speed>
  <fix>3d</fix>
</trkpt>
<trkpt lat="33.8103545" lon="-118.3944535">
  <ele>-0.103</ele>
  <time>2026-09-02T22:07:28Z</time>
  <course>9.54</course>
  <speed>1.7912007146045916</speed>
  <fix>3d</fix>
</trkpt>
<trkpt lat="33.8103545" lon="-118.3944537">
  <ele>-0.103</ele>
  <time>2026-09-02T22:07:28Z</time>
  <course>9.54</course>
  <speed>1.7912007146045916</speed>
  <fix>3d</fix>
</trkpt>
<trkpt lat="33.8103545" lon="-118.3944539">
  <ele>-0.103</ele>
  <time>2026-09-02T22:07:28Z</time>
  <course>9.54</course>
  <speed>1.7912007146045916</speed>
  <fix>3d</fix>
</trkpt>
<trkpt lat="33.8103545" lon="-118.3944541">
  <ele>-0.103</ele>
  <time>2026-09-02T22:07:28Z</time>
  <course>9.54</course>
  <speed>1.7912007146045916</speed>
  <fix>3d</fix>
</trkpt>
<trkpt lat="33.8103545" lon="-118.3944542">
  <ele>-0.103</ele>
  <time>2026-09-02T22:07:28Z</time>
  <course>9.54</course>
  <speed>1.7912007146045916</speed>
  <fix>3d</fix>
</trkpt>
<trkpt lat="33.8103546" lon="-118.3944544">
  <ele>-0.103</ele>
  <time>2026-09-02T22:07:28Z</time>
  <course>9.54</course>
  <speed>1.7912007146045916</speed>
  <fix>3d</fix>
</trkpt>
<trkpt lat="33.8103546" lon="-118.3944545">
  <ele>-0.104</ele>
  <time>2026-09-02T22:07:28Z</time>
  <course>9.54</course>
  <speed>1.7912007146045916</speed>
  <fix>3d</fix>
</trkpt>
<trkpt lat="33.8103543" lon="-118.3944499">
  <ele>-0.1</ele>
  <time>2026-09-02T22:07:28Z</time>
  <course>277.34</course>
  <speed>1.82</speed>
  <fix>3d</fix>
</trkpt>
<trkpt lat="33.8103546" lon="-118.3944545">
  <ele>-0.104</ele>
  <time>2026-09-02T22:07:28Z</time>
  <course>9.54</course>
  <speed>1.7912007146045916</speed>
  <fix>3d</fix>
</trkpt>
<trkpt lat="33.8103546" lon="-118.3944547">
  <ele>-0.104</ele>
  <time>2026-09-02T22:07:28Z</time>
  <course>9.54</course>
  <speed>1.7912007146045916</speed>
  <fix>3d</fix>
</trkpt>
<trkpt lat="33.8103546" lon="-118.3944549">
  <ele>-0.104</ele>
  <time>2026-09-02T22:07:28Z</time>
  <course>9.54</course>
  <speed>1.7912007146045916</speed>
  <fix>3d</fix>
</trkpt>
<trkpt lat="33.8103546" lon="-118.3944551">
  <ele>-0.104</ele>
  <time>2026-09-02T22:07:28Z</time>
  <course>9.54</course>
  <speed>1.7912007146045916</speed>
  <fix>3d</fix>
</trkpt>
<trkpt lat="33.8103547" lon="-118.3944553">
  <ele>-0.104</ele>
  <time>2026-09-02T22:07:28Z</time>
  <course>9.54</course>
  <speed>1.7912007146045916</speed>
  <fix>3d</fix>
</trkpt>
<trkpt lat="33.8103547" lon="-118.3944554">
  <ele>-0.104</ele>
  <time>2026-09-02T22:07:28Z</time>
  <course>9.54</course>
  <speed>1.7912007146045916</speed>
  <fix>3d</fix>
</trkpt>
<trkpt lat="33.8103547" lon="-118.3944556">
  <ele>-0.104</ele>
  <time>2026-09-02T22:07:28Z</time>
  <course>9.54</course>
  <speed>1.7912007146045916</speed>
  <fix>3d</fix>
</trkpt>
<trkpt lat="33.8103547" lon="-118.3944557">
  <ele>-0.104</ele>
  <time>2026-09-02T22:07:28Z</time>
  <course>9.54</course>
  <speed>1.7912007146045916</speed>
  <fix>3d</fix>
</trkpt>
<trkpt lat="33.8103547" lon="-118.3944559">
  <ele>-0.104</ele>
  <time>2026-09-02T22:07:28Z</time>
  <course>9.54</course>
  <speed>1.7912007146045916</speed>
  <fix>3d</fix>
</trkpt>
<trkpt lat="33.8103547" lon="-118.394456">
  <ele>-0.104</ele>
  <time>2026-09-02T22:07:28Z</time>
  <course>9.54</course>
  <speed>1.7912007146045916</speed>
  <fix>3d</fix>
</trkpt>
<trkpt lat="33.8103548" lon="-118.3944562">
  <ele>-0.104</ele>
  <time>2026-09-02T22:07:28Z</time>
  <course>9.55</course>
  <speed>1.7912007146045916</speed>
  <fix>3d</fix>
</trkpt>
<trkpt lat="33.8103548" lon="-118.3944563">
  <ele>-0.104</ele>
  <time>2026-09-02T22:07:28Z</time>
  <course>9.55</course>
  <speed>1.7912007146045916</speed>
  <fix>3d</fix>
</trkpt>
<trkpt lat="33.8103548" lon="-118.3944564">
  <ele>-0.104</ele>
  <time>2026-09-02T22:07:28Z</time>
  <course>9.55</course>
  <speed>1.7912007146045916</speed>
  <fix>3d</fix>
</trkpt>
<trkpt lat="33.8103548" lon="-118.3944538">
  <ele>-0.1</ele>
  <time>2026-09-02T22:07:28Z</time>
  <course>277.36</course>
  <speed>1.82</speed>
  <fix>3d</fix>
</trkpt>
<trkpt lat="33.8103548" lon="-118.3944565">
  <ele>-0.104</ele>
  <time>2026-09-02T22:07:28Z</time>
  <course>9.55</course>
  <speed>1.7912007146045916</speed>
  <fix>3d</fix>
</trkpt>
<trkpt lat="33.8103548" lon="-118.3944568">
  <ele>-0.104</ele>
  <time>2026-09-02T22:07:28Z</time>
  <course>9.55</course>
  <speed>1.7912007146045916</speed>
  <fix>3d</fix>
</trkpt>
<trkpt lat="33.8103549" lon="-118.3944571">
  <ele>-0.104</ele>
  <time>2026-09-02T22:07:28Z</time>
  <course>9.55</course>
  <speed>1.7912007146045916</speed>
  <fix>3d</fix>
</trkpt>
<trkpt lat="33.8103549" lon="-118.3944573">
  <ele>-0.104</ele>
  <time>2026-09-02T22:07:28Z</time>
  <course>9.55</course>
  <speed>1.7912007146045916</speed>
  <fix>3d</fix>
</trkpt>
<trkpt lat="33.8103549" lon="-118.3944574">
  <ele>-0.104</ele>
  <time>2026-09-02T22:07:28Z</time>
  <course>9.55</course>
  <speed>1.7912007146045916</speed>
  <fix>3d</fix>
</trkpt>
<trkpt lat="33.8103549" lon="-118.3944576">
  <ele>-0.104</ele>
  <time>2026-09-02T22:07:28Z</time>
  <course>9.55</course>
  <speed>1.7912007146045916</speed>
  <fix>3d</fix>
</trkpt>
<trkpt lat="33.8103549" lon="-118.3944577">
  <ele>-0.104</ele>
  <time>2026-09-02T22:07:28Z</time>
  <course>9.55</course>
  <speed>1.7912007146045916</speed>
  <fix>3d</fix>
</trkpt>
<trkpt lat="33.8103549" lon="-118.3944579">
  <ele>-0.104</ele>
  <time>2026-09-02T22:07:28Z</time>
  <course>9.55</course>
  <speed>1.7912007146045916</speed>
  <fix>3d</fix>
</trkpt>
<trkpt lat="33.810355" lon="-118.394458">
  <ele>-0.104</ele>
  <time>2026-09-02T22:07:28Z</time>
  <course>9.55</course>
  <speed>1.7912007146045916</speed>
  <fix>3d</fix>
</trkpt>
<trkpt lat="33.810355" lon="-118.3944582">
  <ele>-0.104</ele>
  <time>2026-09-02T22:07:28Z</time>
  <course>9.55</course>
  <speed>1.7912007146045916</speed>
  <fix>3d</fix>
</trkpt>
<trkpt lat="33.810355" lon="-118.3944583">
  <ele>-0.104</ele>
  <time>2026-09-02T22:07:28Z</time>
  <course>9.55</course>
  <speed>1.7912007146045916</speed>
  <fix>3d</fix>
</trkpt>
<trkpt lat="33.810355" lon="-118.3944584">
  <ele>-0.104</ele>
  <time>2026-09-02T22:07:28Z</time>
  <course>9.55</course>
  <speed>1.7912007146045916</speed>
  <fix>3d</fix>
</trkpt>
<trkpt lat="33.8103548" lon="-118.3944538">
  <ele>-0.1</ele>
  <time>2026-09-02T22:07:28Z</time>
  <course>277.36</course>
  <speed>1.82</speed>
  <fix>3d</fix>
</trkpt>
<trkpt lat="33.810355" lon="-118.3944585">
  <ele>-0.104</ele>
  <time>2026-09-02T22:07:28Z</time>
  <course>9.55</course>
  <speed>1.7912007146045916</speed>
  <fix>3d</fix>
</trkpt>
<trkpt lat="33.810355" lon="-118.3944587">
  <ele>-0.104</ele>
  <time>2026-09-02T22:07:28Z</time>
  <course>9.55</course>
  <speed>1.7912007146045916</speed>
  <fix>3d</fix>
</trkpt>
<trkpt lat="33.810355" lon="-118.3944589">
  <ele>-0.104</ele>
  <time>2026-09-02T22:07:28Z</time>
  <course>9.56</course>
  <speed>1.7912007146045916</speed>
  <fix>3d</fix>
</trkpt>
<trkpt lat="33.8103551" lon="-118.394459">
  <ele>-0.104</ele>
  <time>2026-09-02T22:07:28Z</time>
  <course>9.56</course>
  <speed>1.7912007146045916</speed>
  <fix>3d</fix>
</trkpt>
<trkpt lat="33.8103551" lon="-118.3944592">
  <ele>-0.104</ele>
  <time>2026-09-02T22:07:28Z</time>
  <course>9.56</course>
  <speed>1.7912007146045916</speed>
  <fix>3d</fix>
</trkpt>
<trkpt lat="33.8103551" lon="-118.3944593">
  <ele>-0.104</ele>
  <time>2026-09-02T22:07:28Z</time>
  <course>9.56</course>
  <speed>1.7912007146045916</speed>
  <fix>3d</fix>
</trkpt>
<trkpt lat="33.8103551" lon="-118.3944595">
  <ele>-0.104</ele>
  <time>2026-09-02T22:07:28Z</time>
  <course>9.56</course>
  <speed>1.7912007146045916</speed>
  <fix>3d</fix>
</trkpt>
<trkpt lat="33.8103551" lon="-118.3944596">
  <ele>-0.104</ele>
  <time>2026-09-02T22:07:28Z</time>
  <course>9.56</course>
  <speed>1.7912007146045916</speed>
  <fix>3d</fix>
</trkpt>
<trkpt lat="33.8103551" lon="-118.3944598">
  <ele>-0.104</ele>
  <time>2026-09-02T22:07:28Z</time>
  <course>9.56</course>
  <speed>1.7912007146045916</speed>
  <fix>3d</fix>
</trkpt>
<trkpt lat="33.8103552" lon="-118.3944599">
  <ele>-0.104</ele>
  <time>2026-09-02T22:07:28Z</time>
  <course>9.56</course>
  <speed>1.7912007146045916</speed>
  <fix>3d</fix>
</trkpt>
<trkpt lat="33.8103552" lon="-118.3944601">
  <ele>-0.104</ele>
  <time>2026-09-02T22:07:28Z</time>
  <course>9.56</course>
  <speed>1.7912007146045916</speed>
  <fix>3d</fix>
</trkpt>
<trkpt lat="33.8103552" lon="-118.3944603">
  <ele>-0.104</ele>
  <time>2026-09-02T22:07:28Z</time>
  <course>9.56</course>
  <speed>1.7912007146045916</speed>
  <fix>3d</fix>
</trkpt>
<trkpt lat="33.8103552" lon="-118.3944603">
  <ele>-0.104</ele>
  <time>2026-09-02T22:07:28Z</time>
  <course>9.56</course>
  <speed>1.7912007146045916</speed>
  <fix>3d</fix>
</trkpt>
<trkpt lat="33.8103552" lon="-118.3944577">
  <ele>-0.1</ele>
  <time>2026-09-02T22:07:28Z</time>
  <course>277.37</course>
  <speed>1.82</speed>
  <fix>3d</fix>
</trkpt>
<trkpt lat="33.8103552" lon="-118.3944604">
  <ele>-0.104</ele>
  <time>2026-09-02T22:07:28Z</time>
  <course>9.56</course>
  <speed>1.7912007146045916</speed>
  <fix>3d</fix>
</trkpt>
<trkpt lat="33.8103552" lon="-118.3944606">
  <ele>-0.104</ele>
  <time>2026-09-02T22:07:28Z</time>
  <course>9.56</course>
  <speed>1.7912007146045916</speed>
  <fix>3d</fix>
</trkpt>
<trkpt lat="33.8103553" lon="-118.3944608">
  <ele>-0.104</ele>
  <time>2026-09-02T22:07:28Z</time>
  <course>9.56</course>
  <speed>1.7912007146045916</speed>
  <fix>3d</fix>
</trkpt>
<trkpt lat="33.8103553" lon="-118.394461">
  <ele>-0.104</ele>
  <time>2026-09-02T22:07:28Z</time>
  <course>9.56</course>
  <speed>1.7912007146045916</speed>
  <fix>3d</fix>
</trkpt>
<trkpt lat="33.8103553" lon="-118.3944612">
  <ele>-0.104</ele>
  <time>2026-09-02T22:07:28Z</time>
  <course>9.56</course>
  <speed>1.7912007146045916</speed>
  <fix>3d</fix>
</trkpt>
<trkpt lat="33.8103553" lon="-118.3944613">
  <ele>-0.104</ele>
  <time>2026-09-02T22:07:28Z</time>
  <course>9.56</course>
  <speed>1.7912007146045916</speed>
  <fix>3d</fix>
</trkpt>
<trkpt lat="33.8103553" lon="-118.3944615">
  <ele>-0.104</ele>
  <time>2026-09-02T22:07:28Z</time>
  <course>9.56</course>
  <speed>1.7912007146045916</speed>
  <fix>3d</fix>
</trkpt>
<trkpt lat="33.8103553" lon="-118.3944616">
  <ele>-0.104</ele>
  <time>2026-09-02T22:07:28Z</time>
  <course>9.57</course>
  <speed>1.7912007146045916</speed>
  <fix>3d</fix>
</trkpt>
<trkpt lat="33.8103554" lon="-118.3944618">
  <ele>-0.104</ele>
  <time>2026-09-02T22:07:28Z</time>
  <course>9.57</course>
  <speed>1.7912007146045916</speed>
  <fix>3d</fix>
</trkpt>
<trkpt lat="33.8103554" lon="-118.394462">
  <ele>-0.104</ele>
  <time>2026-09-02T22:07:28Z</time>
  <course>9.57</course>
  <speed>1.7912007146045916</speed>
  <fix>3d</fix>
</trkpt>
<trkpt lat="33.8103554" lon="-118.3944622">
  <ele>-0.104</ele>
  <time>2026-09-02T22:07:28Z</time>
  <course>9.57</course>
  <speed>1.7912007146045916</speed>
  <fix>3d</fix>
</trkpt>
<trkpt lat="33.8103554" lon="-118.3944623">
  <ele>-0.104</ele>
  <time>2026-09-02T22:07:28Z</time>
  <course>9.57</course>
  <speed>1.7912007146045916</speed>
  <fix>3d</fix>
</trkpt>
<trkpt lat="33.8103552" lon="-118.3944577">
  <ele>-0.1</ele>
  <time>2026-09-02T22:07:28Z</time>
  <course>277.37</course>
  <speed>1.82</speed>
  <fix>3d</fix>
</trkpt>
<trkpt lat="33.8103554" lon="-118.3944623">
  <ele>-0.104</ele>
  <time>2026-09-02T22:07:28Z</time>
  <course>9.57</course>
  <speed>1.7912007146045916</speed>
  <fix>3d</fix>
</trkpt>
<trkpt lat="33.8103554" lon="-118.3944626">
  <ele>-0.104</ele>
  <time>2026-09-02T22:07:28Z</time>
  <course>9.57</course>
  <speed>1.7912007146045916</speed>
  <fix>3d</fix>
</trkpt>
<trkpt lat="33.8103555" lon="-118.3944627">
  <ele>-0.104</ele>
  <time>2026-09-02T22:07:28Z</time>
  <course>9.57</course>
  <speed>1.7912007146045916</speed>
  <fix>3d</fix>
</trkpt>
<trkpt lat="33.8103555" lon="-118.3944629">
  <ele>-0.105</ele>
  <time>2026-09-02T22:07:28Z</time>
  <course>9.57</course>
  <speed>1.7912007146045916</speed>
  <fix>3d</fix>
</trkpt>
<trkpt lat="33.8103555" lon="-118.394463">
  <ele>-0.105</ele>
  <time>2026-09-02T22:07:28Z</time>
  <course>9.57</course>
  <speed>1.7912007146045916</speed>
  <fix>3d</fix>
</trkpt>
<trkpt lat="33.8103555" lon="-118.3944632">
  <ele>-0.105</ele>
  <time>2026-09-02T22:07:28Z</time>
  <course>9.57</course>
  <speed>1.7912007146045916</speed>
  <fix>3d</fix>
</trkpt>
<trkpt lat="33.8103555" lon="-118.3944633">
  <ele>-0.105</ele>
  <time>2026-09-02T22:07:28Z</time>
  <course>9.57</course>
  <speed>1.7912007146045916</speed>
  <fix>3d</fix>
</trkpt>
<trkpt lat="33.8103555" lon="-118.3944635">
  <ele>-0.105</ele>
  <time>2026-09-02T22:07:28Z</time>
  <course>9.57</course>
  <speed>1.7912007146045916</speed>
  <fix>3d</fix>
</trkpt>
<trkpt lat="33.8103556" lon="-118.3944636">
  <ele>-0.105</ele>
  <time>2026-09-02T22:07:28Z</time>
  <course>9.57</course>
  <speed>1.7912007146045916</speed>
  <fix>3d</fix>
</trkpt>
<trkpt lat="33.8103556" lon="-118.3944638">
  <ele>-0.105</ele>
  <time>2026-09-02T22:07:28Z</time>
  <course>9.57</course>
  <speed>1.7912007146045916</speed>
  <fix>3d</fix>
</trkpt>
<trkpt lat="33.8103556" lon="-118.3944639">
  <ele>-0.105</ele>
  <time>2026-09-02T22:07:28Z</time>
  <course>9.57</course>
  <speed>1.7912007146045916</speed>
  <fix>3d</fix>
</trkpt>
<trkpt lat="33.8103556" lon="-118.394464">
  <ele>-0.106</ele>
  <time>2026-09-02T22:07:28Z</time>
  <course>9.57</course>
  <speed>1.7912007146045916</speed>
  <fix>3d</fix>
</trkpt>
<trkpt lat="33.8103556" lon="-118.3944642">
  <ele>-0.106</ele>
  <time>2026-09-02T22:07:28Z</time>
  <course>9.57</course>
  <speed>1.7912007146045916</speed>
  <fix>3d</fix>
</trkpt>
<trkpt lat="33.8103556" lon="-118.3944642">
  <ele>-0.106</ele>
  <time>2026-09-02T22:07:28Z</time>
  <course>9.57</course>
  <speed>1.7912007146045916</speed>
  <fix>3d</fix>
</trkpt>
<trkpt lat="33.8103555" lon="-118.3944616">
  <ele>-0.1</ele>
  <time>2026-09-02T22:07:28Z</time>
  <course>277.39</course>
  <speed>1.82</speed>
  <fix>3d</fix>
</trkpt>
<trkpt lat="33.8103556" lon="-118.3944643">
  <ele>-0.106</ele>
  <time>2026-09-02T22:07:28Z</time>
  <course>9.57</course>
  <speed>1.7912007146045916</speed>
  <fix>3d</fix>
</trkpt>
<trkpt lat="33.8103557" lon="-118.3944646">
  <ele>-0.106</ele>
  <time>2026-09-02T22:07:28Z</time>
  <course>9.58</course>
  <speed>1.7912007146045916</speed>
  <fix>3d</fix>
</trkpt>
<trkpt lat="33.8103557" lon="-118.3944648">
  <ele>-0.106</ele>
  <time>2026-09-02T22:07:28Z</time>
  <course>9.58</course>
  <speed>1.7912007146045916</speed>
  <fix>3d</fix>
</trkpt>
<trkpt lat="33.8103557" lon="-118.3944649">
  <ele>-0.106</ele>
  <time>2026-09-02T22:07:28Z</time>
  <course>9.58</course>
  <speed>1.7912007146045916</speed>
  <fix>3d</fix>
</trkpt>
<trkpt lat="33.8103557" lon="-118.3944651">
  <ele>-0.106</ele>
  <time>2026-09-02T22:07:28Z</time>
  <course>9.58</course>
  <speed>1.7912007146045916</speed>
  <fix>3d</fix>
</trkpt>
<trkpt lat="33.8103557" lon="-118.3944653">
  <ele>-0.107</ele>
  <time>2026-09-02T22:07:28Z</time>
  <course>9.58</course>
  <speed>1.7912007146045916</speed>
  <fix>3d</fix>
</trkpt>
<trkpt lat="33.8103558" lon="-118.3944654">
  <ele>-0.107</ele>
  <time>2026-09-02T22:07:28Z</time>
  <course>9.58</course>
  <speed>1.7912007146045916</speed>
  <fix>3d</fix>
</trkpt>
<trkpt lat="33.8103558" lon="-118.3944656">
  <ele>-0.107</ele>
  <time>2026-09-02T22:07:28Z</time>
  <course>9.58</course>
  <speed>1.7912007146045916</speed>
  <fix>3d</fix>
</trkpt>
<trkpt lat="33.8103558" lon="-118.3944657">
  <ele>-0.107</ele>
  <time>2026-09-02T22:07:28Z</time>
  <course>9.58</course>
  <speed>1.7912007146045916</speed>
  <fix>3d</fix>
</trkpt>
<trkpt lat="33.8103558" lon="-118.3944659">
  <ele>-0.107</ele>
  <time>2026-09-02T22:07:28Z</time>
  <course>9.58</course>
  <speed>1.7912007146045916</speed>
  <fix>3d</fix>
</trkpt>
<trkpt lat="33.8103558" lon="-118.394466">
  <ele>-0.107</ele>
  <time>2026-09-02T22:07:28Z</time>
  <course>9.58</course>
  <speed>1.7912007146045916</speed>
  <fix>3d</fix>
</trkpt>
<trkpt lat="33.8103558" lon="-118.3944662">
  <ele>-0.108</ele>
  <time>2026-09-02T22:07:28Z</time>
  <course>9.58</course>
  <speed>1.7912007146045916</speed>
  <fix>3d</fix>
</trkpt>
<trkpt lat="33.8103558" lon="-118.3944662">
  <ele>-0.108</ele>
  <time>2026-09-02T22:07:28Z</time>
  <course>9.58</course>
  <speed>1.7912007146045916</speed>
  <fix>3d</fix>
</trkpt>
<trkpt lat="33.8103555" lon="-118.3944616">
  <ele>-0.1</ele>
  <time>2026-09-02T22:07:28Z</time>
  <course>277.39</course>
  <speed>1.82</speed>
  <fix>3d</fix>
</trkpt>
<trkpt lat="33.8103559" lon="-118.3944665">
  <ele>-0.108</ele>
  <time>2026-09-02T22:07:28Z</time>
  <course>9.58</course>
  <speed>1.7912007146045916</speed>
  <fix>3d</fix>
</trkpt>
<trkpt lat="33.8103559" lon="-118.3944667">
  <ele>-0.108</ele>
  <time>2026-09-02T22:07:28Z</time>
  <course>9.58</course>
  <speed>1.7912007146045916</speed>
  <fix>3d</fix>
</trkpt>
<trkpt lat="33.8103559" lon="-118.3944669">
  <ele>-0.108</ele>
  <time>2026-09-02T22:07:28Z</time>
  <course>9.58</course>
  <speed>1.7912007146045916</speed>
  <fix>3d</fix>
</trkpt>
<trkpt lat="33.8103559" lon="-118.394467">
  <ele>-0.108</ele>
  <time>2026-09-02T22:07:28Z</time>
  <course>9.58</course>
  <speed>1.7912007146045916</speed>
  <fix>3d</fix>
</trkpt>
<trkpt lat="33.8103559" lon="-118.3944672">
  <ele>-0.108</ele>
  <time>2026-09-02T22:07:28Z</time>
  <course>9.59</course>
  <speed>1.7912007146045916</speed>
  <fix>3d</fix>
</trkpt>
<trkpt lat="33.810356" lon="-118.3944673">
  <ele>-0.108</ele>
  <time>2026-09-02T22:07:28Z</time>
  <course>9.59</course>
  <speed>1.7912007146045916</speed>
  <fix>3d</fix>
</trkpt>
<trkpt lat="33.810356" lon="-118.3944675">
  <ele>-0.109</ele>
  <time>2026-09-02T22:07:28Z</time>
  <course>9.59</course>
  <speed>1.7912007146045916</speed>
  <fix>3d</fix>
</trkpt>
<trkpt lat="33.810356" lon="-118.3944676">
  <ele>-0.109</ele>
  <time>2026-09-02T22:07:28Z</time>
  <course>9.59</course>
  <speed>1.7912007146045916</speed>
  <fix>3d</fix>
</trkpt>
<trkpt lat="33.810356" lon="-118.3944678">
  <ele>-0.109</ele>
  <time>2026-09-02T22:07:28Z</time>
  <course>9.59</course>
  <speed>1.7912007146045916</speed>
  <fix>3d</fix>
</trkpt>
<trkpt lat="33.810356" lon="-118.3944679">
  <ele>-0.109</ele>
  <time>2026-09-02T22:07:28Z</time>
  <course>9.59</course>
  <speed>1.7912007146045916</speed>
  <fix>3d</fix>
</trkpt>
<trkpt lat="33.810356" lon="-118.3944681">
  <ele>-0.109</ele>
  <time>2026-09-02T22:07:28Z</time>
  <course>9.59</course>
  <speed>1.7912007146045916</speed>
  <fix>3d</fix>
</trkpt>
<trkpt lat="33.810356" lon="-118.3944682">
  <ele>-0.109</ele>
  <time>2026-09-02T22:07:28Z</time>
  <course>9.59</course>
  <speed>1.7912007146045916</speed>
  <fix>3d</fix>
</trkpt>
<trkpt lat="33.810356" lon="-118.3944655">
  <ele>-0.1</ele>
  <time>2026-09-02T22:07:28Z</time>
  <course>277.41</course>
  <speed>1.82</speed>
  <fix>3d</fix>
</trkpt>
<trkpt lat="33.810356" lon="-118.3944682">
  <ele>-0.109</ele>
  <time>2026-09-02T22:07:28Z</time>
  <course>9.59</course>
  <speed>1.7912007146045916</speed>
  <fix>3d</fix>
</trkpt>
<trkpt lat="33.8103561" lon="-118.3944684">
  <ele>-0.109</ele>
  <time>2026-09-02T22:07:28Z</time>
  <course>9.59</course>
  <speed>1.7912007146045916</speed>
  <fix>3d</fix>
</trkpt>
<trkpt lat="33.8103561" lon="-118.3944686">
  <ele>-0.109</ele>
  <time>2026-09-02T22:07:28Z</time>
  <course>9.59</course>
  <speed>1.7912007146045916</speed>
  <fix>3d</fix>
</trkpt>
<trkpt lat="33.8103561" lon="-118.3944688">
  <ele>-0.109</ele>
  <time>2026-09-02T22:07:28Z</time>
  <course>9.59</course>
  <speed>1.7912007146045916</speed>
  <fix>3d</fix>
</trkpt>
<trkpt lat="33.8103561" lon="-118.394469">
  <ele>-0.11</ele>
  <time>2026-09-02T22:07:28Z</time>
  <course>9.59</course>
  <speed>1.7912007146045916</speed>
  <fix>3d</fix>
</trkpt>
<trkpt lat="33.8103562" lon="-118.3944691">
  <ele>-0.11</ele>
  <time>2026-09-02T22:07:28Z</time>
  <course>9.59</course>
  <speed>1.7912007146045916</speed>
  <fix>3d</fix>
</trkpt>
<trkpt lat="33.8103562" lon="-118.3944693">
  <ele>-0.11</ele>
  <time>2026-09-02T22:07:28Z</time>
  <course>9.59</course>
  <speed>1.7912007146045916</speed>
  <fix>3d</fix>
</trkpt>
<trkpt lat="33.8103562" lon="-118.3944695">
  <ele>-0.11</ele>
  <time>2026-09-02T22:07:28Z</time>
  <course>9.59</course>
  <speed>1.7912007146045916</speed>
  <fix>3d</fix>
</trkpt>
<trkpt lat="33.8103562" lon="-118.3944696">
  <ele>-0.11</ele>
  <time>2026-09-02T22:07:28Z</time>
  <course>9.59</course>
  <speed>1.7912007146045916</speed>
  <fix>3d</fix>
</trkpt>
<trkpt lat="33.8103562" lon="-118.3944698">
  <ele>-0.11</ele>
  <time>2026-09-02T22:07:28Z</time>
  <course>9.59</course>
  <speed>1.7912007146045916</speed>
  <fix>3d</fix>
</trkpt>
<trkpt lat="33.8103562" lon="-118.39447">
  <ele>-0.11</ele>
  <time>2026-09-02T22:07:28Z</time>
  <course>9.6</course>
  <speed>1.7912007146045916</speed>
  <fix>3d</fix>
</trkpt>
<trkpt lat="33.8103563" lon="-118.3944701">
  <ele>-0.11</ele>
  <time>2026-09-02T22:07:28Z</time>
  <course>9.6</course>
  <speed>1.7912007146045916</speed>
  <fix>3d</fix>
</trkpt>
<trkpt lat="33.810356" lon="-118.3944655">
  <ele>-0.1</ele>
  <time>2026-09-02T22:07:28Z</time>
  <course>277.41</course>
  <speed>1.82</speed>
  <fix>3d</fix>
</trkpt>
<trkpt lat="33.8103563" lon="-118.3944701">
  <ele>-0.11</ele>
  <time>2026-09-02T22:07:28Z</time>
  <course>9.6</course>
  <speed>1.7912007146045916</speed>
  <fix>3d</fix>
</trkpt>
<trkpt lat="33.8103563" lon="-118.3944703">
  <ele>-0.11</ele>
  <time>2026-09-02T22:07:28Z</time>
  <course>9.6</course>
  <speed>1.7912007146045916</speed>
  <fix>3d</fix>
</trkpt>
<trkpt lat="33.8103563" lon="-118.3944705">
  <ele>-0.11</ele>
  <time>2026-09-02T22:07:28Z</time>
  <course>9.6</course>
  <speed>1.7912007146045916</speed>
  <fix>3d</fix>
</trkpt>
<trkpt lat="33.8103563" lon="-118.3944707">
  <ele>-0.11</ele>
  <time>2026-09-02T22:07:28Z</time>
  <course>9.6</course>
  <speed>1.7912007146045916</speed>
  <fix>3d</fix>
</trkpt>
<trkpt lat="33.8103563" lon="-118.3944709">
  <ele>-0.11</ele>
  <time>2026-09-02T22:07:28Z</time>
  <course>9.6</course>
  <speed>1.7912007146045916</speed>
  <fix>3d</fix>
</trkpt>
<trkpt lat="33.8103563" lon="-118.394471">
  <ele>-0.11</ele>
  <time>2026-09-02T22:07:28Z</time>
  <course>9.6</course>
  <speed>1.7912007146045916</speed>
  <fix>3d</fix>
</trkpt>
<trkpt lat="33.8103564" lon="-118.3944712">
  <ele>-0.11</ele>
  <time>2026-09-02T22:07:28Z</time>
  <course>9.6</course>
  <speed>1.7912007146045916</speed>
  <fix>3d</fix>
</trkpt>
<trkpt lat="33.8103564" lon="-118.3944713">
  <ele>-0.11</ele>
  <time>2026-09-02T22:07:28Z</time>
  <course>9.6</course>
  <speed>1.7912007146045916</speed>
  <fix>3d</fix>
</trkpt>
<trkpt lat="33.8103564" lon="-118.3944715">
  <ele>-0.11</ele>
  <time>2026-09-02T22:07:28Z</time>
  <course>9.6</course>
  <speed>1.7912007146045916</speed>
  <fix>3d</fix>
</trkpt>
<trkpt lat="33.8103564" lon="-118.3944716">
  <ele>-0.11</ele>
  <time>2026-09-02T22:07:28Z</time>
  <course>9.6</course>
  <speed>1.7912007146045916</speed>
  <fix>3d</fix>
</trkpt>
<trkpt lat="33.8103564" lon="-118.3944718">
  <ele>-0.11</ele>
  <time>2026-09-02T22:07:28Z</time>
  <course>9.6</course>
  <speed>1.7912007146045916</speed>
  <fix>3d</fix>
</trkpt>
<trkpt lat="33.8103565" lon="-118.394472">
  <ele>-0.11</ele>
  <time>2026-09-02T22:07:28Z</time>
  <course>9.6</course>
  <speed>1.7912007146045916</speed>
  <fix>3d</fix>
</trkpt>
<trkpt lat="33.8103565" lon="-118.3944721">
  <ele>-0.11</ele>
  <time>2026-09-02T22:07:28Z</time>
  <course>9.6</course>
  <speed>1.7912007146045916</speed>
  <fix>3d</fix>
</trkpt>
<trkpt lat="33.8103565" lon="-118.3944694">
  <ele>-0.1</ele>
  <time>2026-09-02T22:07:28Z</time>
  <course>277.42</course>
  <speed>1.82</speed>
  <fix>3d</fix>
</trkpt>
<trkpt lat="33.8103565" lon="-118.3944721">
  <ele>-0.11</ele>
  <time>2026-09-02T22:07:28Z</time>
  <course>9.6</course>
  <speed>1.7912007146045916</speed>
  <fix>3d</fix>
</trkpt>
<trkpt lat="33.8103565" lon="-118.3944724">
  <ele>-0.11</ele>
  <time>2026-09-02T22:07:28Z</time>
  <course>9.6</course>
  <speed>1.7912007146045916</speed>
  <fix>3d</fix>
</trkpt>
<trkpt lat="33.8103565" lon="-118.3944726">
  <ele>-0.11</ele>
  <time>2026-09-02T22:07:28Z</time>
  <course>9.6</course>
  <speed>1.7912007146045916</speed>
  <fix>3d</fix>
</trkpt>
<trkpt lat="33.8103565" lon="-118.3944727">
  <ele>-0.11</ele>
  <time>2026-09-02T22:07:28Z</time>
  <course>9.61</course>
  <speed>1.7912007146045916</speed>
  <fix>3d</fix>
</trkpt>
<trkpt lat="33.8103566" lon="-118.3944729">
  <ele>-0.11</ele>
  <time>2026-09-02T22:07:28Z</time>
  <course>9.61</course>
  <speed>1.7912007146045916</speed>
  <fix>3d</fix>
</trkpt>
<trkpt lat="33.8103566" lon="-118.394473">
  <ele>-0.11</ele>
  <time>2026-09-02T22:07:28Z</time>
  <course>9.61</course>
  <speed>1.7912007146045916</speed>
  <fix>3d</fix>
</trkpt>
<trkpt lat="33.8103566" lon="-118.3944732">
  <ele>-0.11</ele>
  <time>2026-09-02T22:07:28Z</time>
  <course>9.61</course>
  <speed>1.7912007146045916</speed>
  <fix>3d</fix>
</trkpt>
<trkpt lat="33.8103566" lon="-118.3944734">
  <ele>-0.11</ele>
  <time>2026-09-02T22:07:28Z</time>
  <course>9.61</course>
  <speed>1.7912007146045916</speed>
  <fix>3d</fix>
</trkpt>
<trkpt lat="33.8103566" lon="-118.3944736">
  <ele>-0.11</ele>
  <time>2026-09-02T22:07:28Z</time>
  <course>9.61</course>
  <speed>1.7912007146045916</speed>
  <fix>3d</fix>
</trkpt>
<trkpt lat="33.8103567" lon="-118.3944738">
  <ele>-0.11</ele>
  <time>2026-09-02T22:07:28Z</time>
  <course>9.61</course>
  <speed>1.7912007146045916</speed>
  <fix>3d</fix>
</trkpt>
<trkpt lat="33.8103567" lon="-118.394474">
  <ele>-0.11</ele>
  <time>2026-09-02T22:07:28Z</time>
  <course>9.61</course>
  <speed>1.7912007146045916</speed>
  <fix>3d</fix>
</trkpt>
<trkpt lat="33.8103567" lon="-118.394474">
  <ele>-0.11</ele>
  <time>2026-09-02T22:07:28Z</time>
  <course>9.61</course>
  <speed>1.7912007146045916</speed>
  <fix>3d</fix>
</trkpt>
<trkpt lat="33.8103565" lon="-118.3944694">
  <ele>-0.1</ele>
  <time>2026-09-02T22:07:28Z</time>
  <course>277.42</course>
  <speed>1.82</speed>
  <fix>3d</fix>
</trkpt>
<trkpt lat="33.8103567" lon="-118.3944741">
  <ele>-0.11</ele>
  <time>2026-09-02T22:07:28Z</time>
  <course>9.61</course>
  <speed>1.7912007146045916</speed>
  <fix>3d</fix>
</trkpt>
<trkpt lat="33.8103567" lon="-118.3944743">
  <ele>-0.11</ele>
  <time>2026-09-02T22:07:28Z</time>
  <course>9.61</course>
  <speed>1.7912007146045916</speed>
  <fix>3d</fix>
</trkpt>
<trkpt lat="33.8103567" lon="-118.3944745">
  <ele>-0.11</ele>
  <time>2026-09-02T22:07:28Z</time>
  <course>9.61</course>
  <speed>1.7912007146045916</speed>
  <fix>3d</fix>
</trkpt>
<trkpt lat="33.8103568" lon="-118.3944747">
  <ele>-0.11</ele>
  <time>2026-09-02T22:07:28Z</time>
  <course>9.61</course>
  <speed>1.7912007146045916</speed>
  <fix>3d</fix>
</trkpt>
<trkpt lat="33.8103568" lon="-118.3944748">
  <ele>-0.11</ele>
  <time>2026-09-02T22:07:28Z</time>
  <course>9.61</course>
  <speed>1.7912007146045916</speed>
  <fix>3d</fix>
</trkpt>
<trkpt lat="33.8103568" lon="-118.394475">
  <ele>-0.11</ele>
  <time>2026-09-02T22:07:28Z</time>
  <course>9.61</course>
  <speed>1.7912007146045916</speed>
  <fix>3d</fix>
</trkpt>
<trkpt lat="33.8103568" lon="-118.3944751">
  <ele>-0.11</ele>
  <time>2026-09-02T22:07:28Z</time>
  <course>9.61</course>
  <speed>1.7912007146045916</speed>
  <fix>3d</fix>
</trkpt>
<trkpt lat="33.8103568" lon="-118.3944753">
  <ele>-0.111</ele>
  <time>2026-09-02T22:07:28Z</time>
  <course>9.61</course>
  <speed>1.7912007146045916</speed>
  <fix>3d</fix>
</trkpt>
<trkpt lat="33.8103568" lon="-118.3944754">
  <ele>-0.111</ele>
  <time>2026-09-02T22:07:28Z</time>
  <course>9.61</course>
  <speed>1.7912007146045916</speed>
  <fix>3d</fix>
</trkpt>
<trkpt lat="33.8103569" lon="-118.3944756">
  <ele>-0.111</ele>
  <time>2026-09-02T22:07:28Z</time>
  <course>9.62</course>
  <speed>1.7923448328934921</speed>
  <fix>3d</fix>
</trkpt>
<trkpt lat="33.8103569" lon="-118.3944758">
  <ele>-0.111</ele>
  <time>2026-09-02T22:07:28Z</time>
  <course>9.62</course>
  <speed>1.7923448328934921</speed>
  <fix>3d</fix>
</trkpt>
<trkpt lat="33.8103569" lon="-118.394476">
  <ele>-0.111</ele>
  <time>2026-09-02T22:07:28Z</time>
  <course>9.62</course>
  <speed>1.7923448328934921</speed>
  <fix>3d</fix>
</trkpt>
<trkpt lat="33.8103569" lon="-118.394476">
  <ele>-0.111</ele>
  <time>2026-09-02T22:07:28Z</time>
  <course>9.62</course>
  <speed>1.7923448328934921</speed>
  <fix>3d</fix>
</trkpt>
<trkpt lat="33.8103569" lon="-118.3944733">
  <ele>-0.1</ele>
  <time>2026-09-02T22:07:28Z</time>
  <course>277.44</course>
  <speed>1.82</speed>
  <fix>3d</fix>
</trkpt>
<trkpt lat="33.8103569" lon="-118.3944763">
  <ele>-0.111</ele>
  <time>2026-09-02T22:07:28Z</time>
  <course>9.62</course>
  <speed>1.7923448328934921</speed>
  <fix>3d</fix>
</trkpt>
<trkpt lat="33.8103569" lon="-118.3944764">
  <ele>-0.111</ele>
  <time>2026-09-02T22:07:28Z</time>
  <course>9.62</course>
  <speed>1.7923448328934921</speed>
  <fix>3d</fix>
</trkpt>
<trkpt lat="33.810357" lon="-118.3944766">
  <ele>-0.111</ele>
  <time>2026-09-02T22:07:28Z</time>
  <course>9.62</course>
  <speed>1.7923448328934921</speed>
  <fix>3d</fix>
</trkpt>
<trkpt lat="33.810357" lon="-118.3944767">
  <ele>-0.11</ele>
  <time>2026-09-02T22:07:28Z</time>
  <course>9.62</course>
  <speed>1.7923448328934921</speed>
  <fix>3d</fix>
</trkpt>
<trkpt lat="33.810357" lon="-118.3944769">
  <ele>-0.11</ele>
  <time>2026-09-02T22:07:28Z</time>
  <course>9.62</course>
  <speed>1.7923448328934921</speed>
  <fix>3d</fix>
</trkpt>
<trkpt lat="33.810357" lon="-118.3944771">
  <ele>-0.11</ele>
  <time>2026-09-02T22:07:28Z</time>
  <course>9.62</course>
  <speed>1.7923448328934921</speed>
  <fix>3d</fix>
</trkpt>
<trkpt lat="33.810357" lon="-118.3944772">
  <ele>-0.11</ele>
  <time>2026-09-02T22:07:28Z</time>
  <course>9.62</course>
  <speed>1.7923448328934921</speed>
  <fix>3d</fix>
</trkpt>
<trkpt lat="33.8103571" lon="-118.3944774">
  <ele>-0.11</ele>
  <time>2026-09-02T22:07:28Z</time>
  <course>9.62</course>
  <speed>1.7923448328934921</speed>
  <fix>3d</fix>
</trkpt>
<trkpt lat="33.8103571" lon="-118.3944776">
  <ele>-0.11</ele>
  <time>2026-09-02T22:07:28Z</time>
  <course>9.62</course>
  <speed>1.7923448328934921</speed>
  <fix>3d</fix>
</trkpt>
<trkpt lat="33.8103571" lon="-118.3944778">
  <ele>-0.11</ele>
  <time>2026-09-02T22:07:28Z</time>
  <course>9.62</course>
  <speed>1.7923448328934921</speed>
  <fix>3d</fix>
</trkpt>
<trkpt lat="33.8103571" lon="-118.3944779">
  <ele>-0.11</ele>
  <time>2026-09-02T22:07:28Z</time>
  <course>9.62</course>
  <speed>1.7923448328934921</speed>
  <fix>3d</fix>
</trkpt>
<trkpt lat="33.8103569" lon="-118.3944733">
  <ele>-0.1</ele>
  <time>2026-09-02T22:07:28Z</time>
  <course>277.44</course>
  <speed>1.82</speed>
  <fix>3d</fix>
</trkpt>
<trkpt lat="33.8103571" lon="-118.394478">
  <ele>-0.11</ele>
  <time>2026-09-02T22:07:28Z</time>
  <course>9.62</course>
  <speed>1.7923448328934921</speed>
  <fix>3d</fix>
</trkpt>
<trkpt lat="33.8103572" lon="-118.3944783">
  <ele>-0.11</ele>
  <time>2026-09-02T22:07:28Z</time>
  <course>9.62</course>
  <speed>1.7923448328934921</speed>
  <fix>3d</fix>
</trkpt>
<trkpt lat="33.8103572" lon="-118.3944786">
  <ele>-0.11</ele>
  <time>2026-09-02T22:07:28Z</time>
  <course>9.63</course>
  <speed>1.7923448328934921</speed>
  <fix>3d</fix>
</trkpt>
<trkpt lat="33.8103572" lon="-118.3944788">
  <ele>-0.11</ele>
  <time>2026-09-02T22:07:28Z</time>
  <course>9.63</course>
  <speed>1.7923448328934921</speed>
  <fix>3d</fix>
</trkpt>
<trkpt lat="33.8103572" lon="-118.3944789">
  <ele>-0.109</ele>
  <time>2026-09-02T22:07:28Z</time>
  <course>9.63</course>
  <speed>1.7923448328934921</speed>
  <fix>3d</fix>
</trkpt>
<trkpt lat="33.8103572" lon="-118.3944791">
  <ele>-0.109</ele>
  <time>2026-09-02T22:07:28Z</time>
  <course>9.63</course>
  <speed>1.7923448328934921</speed>
  <fix>3d</fix>
</trkpt>
<trkpt lat="33.8103572" lon="-118.3944792">
  <ele>-0.109</ele>
  <time>2026-09-02T22:07:28Z</time>
  <course>9.63</course>
  <speed>1.7923448328934921</speed>
  <fix>3d</fix>
</trkpt>
<trkpt lat="33.8103573" lon="-118.3944794">
  <ele>-0.109</ele>
  <time>2026-09-02T22:07:28Z</time>
  <course>9.63</course>
  <speed>1.7923448328934921</speed>
  <fix>3d</fix>
</trkpt>
<trkpt lat="33.8103573" lon="-118.3944796">
  <ele>-0.109</ele>
  <time>2026-09-02T22:07:28Z</time>
  <course>9.63</course>
  <speed>1.7923448328934921</speed>
  <fix>3d</fix>
</trkpt>
<trkpt lat="33.8103573" lon="-118.3944797">
  <ele>-0.109</ele>
  <time>2026-09-02T22:07:28Z</time>
  <course>9.63</course>
  <speed>1.7923448328934921</speed>
  <fix>3d</fix>
</trkpt>
<trkpt lat="33.8103573" lon="-118.3944799">
  <ele>-0.109</ele>
  <time>2026-09-02T22:07:28Z</time>
  <course>9.63</course>
  <speed>1.7923448328934921</speed>
  <fix>3d</fix>
</trkpt>
<trkpt lat="33.8103573" lon="-118.3944799">
  <ele>-0.109</ele>
  <time>2026-09-02T22:07:28Z</time>
  <course>9.63</course>
  <speed>1.7923448328934921</speed>
  <fix>3d</fix>
</trkpt>
<trkpt lat="33.8103572" lon="-118.3944772">
  <ele>-0.1</ele>
  <time>2026-09-02T22:07:28Z</time>
  <course>277.46</course>
  <speed>1.82</speed>
  <fix>3d</fix>
</trkpt>
<trkpt lat="33.8103574" lon="-118.3944802">
  <ele>-0.109</ele>
  <time>2026-09-02T22:07:28Z</time>
  <course>9.63</course>
  <speed>1.7923448328934921</speed>
  <fix>3d</fix>
</trkpt>
<trkpt lat="33.8103574" lon="-118.3944804">
  <ele>-0.109</ele>
  <time>2026-09-02T22:07:28Z</time>
  <course>9.63</course>
  <speed>1.7923448328934921</speed>
  <fix>3d</fix>
</trkpt>
<trkpt lat="33.8103574" lon="-118.3944806">
  <ele>-0.108</ele>
  <time>2026-09-02T22:07:28Z</time>
  <course>9.63</course>
  <speed>1.7923448328934921</speed>
  <fix>3d</fix>
</trkpt>
<trkpt lat="33.8103574" lon="-118.3944808">
  <ele>-0.108</ele>
  <time>2026-09-02T22:07:28Z</time>
  <course>9.63</course>
  <speed>1.7923448328934921</speed>
  <fix>3d</fix>
</trkpt>
<trkpt lat="33.8103574" lon="-118.3944809">
  <ele>-0.108</ele>
  <time>2026-09-02T22:07:28Z</time>
  <course>9.63</course>
  <speed>1.7923448328934921</speed>
  <fix>3d</fix>
</trkpt>
<trkpt lat="33.8103575" lon="-118.3944811">
  <ele>-0.108</ele>
  <time>2026-09-02T22:07:28Z</time>
  <course>9.63</course>
  <speed>1.7923448328934921</speed>
  <fix>3d</fix>
</trkpt>
<trkpt lat="33.8103575" lon="-118.3944813">
  <ele>-0.108</ele>
  <time>2026-09-02T22:07:28Z</time>
  <course>9.64</course>
  <speed>1.7923448328934921</speed>
  <fix>3d</fix>
</trkpt>
<trkpt lat="33.8103575" lon="-118.3944815">
  <ele>-0.108</ele>
  <time>2026-09-02T22:07:28Z</time>
  <course>9.64</course>
  <speed>1.7923448328934921</speed>
  <fix>3d</fix>
</trkpt>
<trkpt lat="33.8103575" lon="-118.3944816">
  <ele>-0.108</ele>
  <time>2026-09-02T22:07:28Z</time>
  <course>9.64</course>
  <speed>1.7923448328934921</speed>
  <fix>3d</fix>
</trkpt>
<trkpt lat="33.8103575" lon="-118.3944818">
  <ele>-0.108</ele>
  <time>2026-09-02T22:07:28Z</time>
  <course>9.64</course>
  <speed>1.7923448328934921</speed>
  <fix>3d</fix>
</trkpt>
<trkpt lat="33.8103575" lon="-118.3944818">
  <ele>-0.108</ele>
  <time>2026-09-02T22:07:28Z</time>
  <course>9.64</course>
  <speed>1.7923448328934921</speed>
  <fix>3d</fix>
</trkpt>
<trkpt lat="33.8103572" lon="-118.3944772">
  <ele>-0.1</ele>
  <time>2026-09-02T22:07:28Z</time>
  <course>277.46</course>
  <speed>1.82</speed>
  <fix>3d</fix>
</trkpt>
<trkpt lat="33.8103575" lon="-118.3944819">
  <ele>-0.108</ele>
  <time>2026-09-02T22:07:28Z</time>
  <course>9.64</course>
  <speed>1.7923448328934921</speed>
  <fix>3d</fix>
</trkpt>
<trkpt lat="33.8103576" lon="-118.3944821">
  <ele>-0.107</ele>
  <time>2026-09-02T22:07:28Z</time>
  <course>9.64</course>
  <speed>1.7923448328934921</speed>
  <fix>3d</fix>
</trkpt>
<trkpt lat="33.8103576" lon="-118.3944823">
  <ele>-0.107</ele>
  <time>2026-09-02T22:07:28Z</time>
  <course>9.64</course>
  <speed>1.7923448328934921</speed>
  <fix>3d</fix>
</trkpt>
<trkpt lat="33.8103576" lon="-118.3944825">
  <ele>-0.107</ele>
  <time>2026-09-02T22:07:28Z</time>
  <course>9.64</course>
  <speed>1.7923448328934921</speed>
  <fix>3d</fix>
</trkpt>
<trkpt lat="33.8103576" lon="-118.3944827">
  <ele>-0.107</ele>
  <time>2026-09-02T22:07:28Z</time>
  <course>9.64</course>
  <speed>1.7923448328934921</speed>
  <fix>3d</fix>
</trkpt>
<trkpt lat="33.8103576" lon="-118.3944829">
  <ele>-0.107</ele>
  <time>2026-09-02T22:07:28Z</time>
  <course>9.64</course>
  <speed>1.7923448328934921</speed>
  <fix>3d</fix>
</trkpt>
<trkpt lat="33.8103577" lon="-118.3944831">
  <ele>-0.107</ele>
  <time>2026-09-02T22:07:28Z</time>
  <course>9.64</course>
  <speed>1.7923448328934921</speed>
  <fix>3d</fix>
</trkpt>
<trkpt lat="33.8103577" lon="-118.3944833">
  <ele>-0.107</ele>
  <time>2026-09-02T22:07:28Z</time>
  <course>9.64</course>
  <speed>1.7923448328934921</speed>
  <fix>3d</fix>
</trkpt>
<trkpt lat="33.8103577" lon="-118.3944834">
  <ele>-0.107</ele>
  <time>2026-09-02T22:07:28Z</time>
  <course>9.64</course>
  <speed>1.7923448328934921</speed>
  <fix>3d</fix>
</trkpt>
<trkpt lat="33.8103577" lon="-118.3944836">
  <ele>-0.106</ele>
  <time>2026-09-02T22:07:28Z</time>
  <course>9.64</course>
  <speed>1.7923448328934921</speed>
  <fix>3d</fix>
</trkpt>
<trkpt lat="33.8103577" lon="-118.3944838">
  <ele>-0.106</ele>
  <time>2026-09-02T22:07:28Z</time>
  <course>9.64</course>
  <speed>1.7923448328934921</speed>
  <fix>3d</fix>
</trkpt>
<trkpt lat="33.8103577" lon="-118.3944838">
  <ele>-0.106</ele>
  <time>2026-09-02T22:07:28Z</time>
  <course>9.64</course>
  <speed>1.7923448328934921</speed>
  <fix>3d</fix>
</trkpt>
<trkpt lat="33.8103577" lon="-118.3944811">
  <ele>-0.1</ele>
  <time>2026-09-02T22:07:28Z</time>
  <course>277.47</course>
  <speed>1.82</speed>
  <fix>3d</fix>
</trkpt>
<trkpt lat="33.8103578" lon="-118.3944841">
  <ele>-0.106</ele>
  <time>2026-09-02T22:07:28Z</time>
  <course>9.65</course>
  <speed>1.7923448328934921</speed>
  <fix>3d</fix>
</trkpt>
<trkpt lat="33.8103578" lon="-118.3944843">
  <ele>-0.106</ele>
  <time>2026-09-02T22:07:28Z</time>
  <course>9.65</course>
  <speed>1.7923448328934921</speed>
  <fix>3d</fix>
</trkpt>
<trkpt lat="33.8103578" lon="-118.3944845">
  <ele>-0.106</ele>
  <time>2026-09-02T22:07:28Z</time>
  <course>9.65</course>
  <speed>1.7923448328934921</speed>
  <fix>3d</fix>
</trkpt>
<trkpt lat="33.8103578" lon="-118.3944846">
  <ele>-0.106</ele>
  <time>2026-09-02T22:07:28Z</time>
  <course>9.65</course>
  <speed>1.7923448328934921</speed>
  <fix>3d</fix>
</trkpt>
<trkpt lat="33.8103579" lon="-118.3944848">
  <ele>-0.106</ele>
  <time>2026-09-02T22:07:28Z</time>
  <course>9.65</course>
  <speed>1.7923448328934921</speed>
  <fix>3d</fix>
</trkpt>
<trkpt lat="33.8103579" lon="-118.394485">
  <ele>-0.106</ele>
  <time>2026-09-02T22:07:28Z</time>
  <course>9.65</course>
  <speed>1.7923448328934921</speed>
  <fix>3d</fix>
</trkpt>
<trkpt lat="33.8103579" lon="-118.3944851">
  <ele>-0.106</ele>
  <time>2026-09-02T22:07:28Z</time>
  <course>9.65</course>
  <speed>1.7923448328934921</speed>
  <fix>3d</fix>
</trkpt>
<trkpt lat="33.8103579" lon="-118.3944853">
  <ele>-0.106</ele>
  <time>2026-09-02T22:07:28Z</time>
  <course>9.65</course>
  <speed>1.7923448328934921</speed>
  <fix>3d</fix>
</trkpt>
<trkpt lat="33.8103579" lon="-118.3944854">
  <ele>-0.106</ele>
  <time>2026-09-02T22:07:28Z</time>
  <course>9.65</course>
  <speed>1.7923448328934921</speed>
  <fix>3d</fix>
</trkpt>
<trkpt lat="33.8103579" lon="-118.3944855">
  <ele>-0.106</ele>
  <time>2026-09-02T22:07:28Z</time>
  <course>9.65</course>
  <speed>1.7923448328934921</speed>
  <fix>3d</fix>
</trkpt>
<trkpt lat="33.810358" lon="-118.3944857">
  <ele>-0.106</ele>
  <time>2026-09-02T22:07:28Z</time>
  <course>9.65</course>
  <speed>1.7923448328934921</speed>
  <fix>3d</fix>
</trkpt>
<trkpt lat="33.810358" lon="-118.3944857">
  <ele>-0.106</ele>
  <time>2026-09-02T22:07:28Z</time>
  <course>9.65</course>
  <speed>1.7923448328934921</speed>
  <fix>3d</fix>
</trkpt>
<trkpt lat="33.8103577" lon="-118.3944811">
  <ele>-0.1</ele>
  <time>2026-09-02T22:07:28Z</time>
  <course>277.47</course>
  <speed>1.82</speed>
  <fix>3d</fix>
</trkpt>
<trkpt lat="33.810358" lon="-118.394486">
  <ele>-0.106</ele>
  <time>2026-09-02T22:07:28Z</time>
  <course>9.65</course>
  <speed>1.7923448328934921</speed>
  <fix>3d</fix>
</trkpt>
<trkpt lat="33.810358" lon="-118.3944862">
  <ele>-0.106</ele>
  <time>2026-09-02T22:07:28Z</time>
  <course>9.65</course>
  <speed>1.7923448328934921</speed>
  <fix>3d</fix>
</trkpt>
<trkpt lat="33.810358" lon="-118.3944864">
  <ele>-0.106</ele>
  <time>2026-09-02T22:07:28Z</time>
  <course>9.65</course>
  <speed>1.7923448328934921</speed>
  <fix>3d</fix>
</trkpt>
<trkpt lat="33.810358" lon="-118.3944866">
  <ele>-0.106</ele>
  <time>2026-09-02T22:07:28Z</time>
  <course>9.65</course>
  <speed>1.7923448328934921</speed>
  <fix>3d</fix>
</trkpt>
<trkpt lat="33.8103581" lon="-118.3944868">
  <ele>-0.106</ele>
  <time>2026-09-02T22:07:28Z</time>
  <course>9.65</course>
  <speed>1.7923448328934921</speed>
  <fix>3d</fix>
</trkpt>
<trkpt lat="33.8103581" lon="-118.3944869">
  <ele>-0.106</ele>
  <time>2026-09-02T22:07:28Z</time>
  <course>9.66</course>
  <speed>1.7923448328934921</speed>
  <fix>3d</fix>
</trkpt>
<trkpt lat="33.8103581" lon="-118.3944871">
  <ele>-0.106</ele>
  <time>2026-09-02T22:07:28Z</time>
  <course>9.66</course>
  <speed>1.7923448328934921</speed>
  <fix>3d</fix>
</trkpt>
<trkpt lat="33.8103581" lon="-118.3944872">
  <ele>-0.106</ele>
  <time>2026-09-02T22:07:28Z</time>
  <course>9.66</course>
  <speed>1.7923448328934921</speed>
  <fix>3d</fix>
</trkpt>
<trkpt lat="33.8103581" lon="-118.3944874">
  <ele>-0.106</ele>
  <time>2026-09-02T22:07:28Z</time>
  <course>9.66</course>
  <speed>1.7923448328934921</speed>
  <fix>3d</fix>
</trkpt>
<trkpt lat="33.8103581" lon="-118.3944875">
  <ele>-0.107</ele>
  <time>2026-09-02T22:07:28Z</time>
  <course>9.66</course>
  <speed>1.7923448328934921</speed>
  <fix>3d</fix>
</trkpt>
<trkpt lat="33.8103582" lon="-118.3944876">
  <ele>-0.107</ele>
  <time>2026-09-02T22:07:28Z</time>
  <course>9.66</course>
  <speed>1.7923448328934921</speed>
  <fix>3d</fix>
</trkpt>
<trkpt lat="33.8103582" lon="-118.3944877">
  <ele>-0.107</ele>
  <time>2026-09-02T22:07:28Z</time>
  <course>9.66</course>
  <speed>1.7923448328934921</speed>
  <fix>3d</fix>
</trkpt>
<trkpt lat="33.8103581" lon="-118.394485">
  <ele>-0.1</ele>
  <time>2026-09-02T22:07:28Z</time>
  <course>277.49</course>
  <speed>1.82</speed>
  <fix>3d</fix>
</trkpt>
<trkpt lat="33.8103582" lon="-118.3944877">
  <ele>-0.107</ele>
  <time>2026-09-02T22:07:28Z</time>
  <course>9.66</course>
  <speed>1.7923448328934921</speed>
  <fix>3d</fix>
</trkpt>
<trkpt lat="33.8103582" lon="-118.3944879">
  <ele>-0.107</ele>
  <time>2026-09-02T22:07:28Z</time>
  <course>9.66</course>
  <speed>1.7923448328934921</speed>
  <fix>3d</fix>
</trkpt>
<trkpt lat="33.8103582" lon="-118.394488">
  <ele>-0.107</ele>
  <time>2026-09-02T22:07:28Z</time>
  <course>9.66</course>
  <speed>1.7923448328934921</speed>
  <fix>3d</fix>
</trkpt>
<trkpt lat="33.8103582" lon="-118.3944882">
  <ele>-0.107</ele>
  <time>2026-09-02T22:07:28Z</time>
  <course>9.66</course>
  <speed>1.7923448328934921</speed>
  <fix>3d</fix>
</trkpt>
<trkpt lat="33.8103582" lon="-118.3944883">
  <ele>-0.107</ele>
  <time>2026-09-02T22:07:28Z</time>
  <course>9.66</course>
  <speed>1.7923448328934921</speed>
  <fix>3d</fix>
</trkpt>
<trkpt lat="33.8103583" lon="-118.3944885">
  <ele>-0.107</ele>
  <time>2026-09-02T22:07:28Z</time>
  <course>9.66</course>
  <speed>1.7923448328934921</speed>
  <fix>3d</fix>
</trkpt>
<trkpt lat="33.8103583" lon="-118.3944886">
  <ele>-0.107</ele>
  <time>2026-09-02T22:07:28Z</time>
  <course>9.66</course>
  <speed>1.7923448328934921</speed>
  <fix>3d</fix>
</trkpt>
<trkpt lat="33.8103583" lon="-118.3944888">
  <ele>-0.107</ele>
  <time>2026-09-02T22:07:28Z</time>
  <course>9.66</course>
  <speed>1.7923448328934921</speed>
  <fix>3d</fix>
</trkpt>
<trkpt lat="33.8103583" lon="-118.3944889">
  <ele>-0.107</ele>
  <time>2026-09-02T22:07:28Z</time>
  <course>9.66</course>
  <speed>1.7923448328934921</speed>
  <fix>3d</fix>
</trkpt>
<trkpt lat="33.8103583" lon="-118.3944891">
  <ele>-0.107</ele>
  <time>2026-09-02T22:07:28Z</time>
  <course>9.66</course>
  <speed>1.7923448328934921</speed>
  <fix>3d</fix>
</trkpt>
<trkpt lat="33.8103583" lon="-118.3944892">
  <ele>-0.108</ele>
  <time>2026-09-02T22:07:28Z</time>
  <course>9.66</course>
  <speed>1.7923448328934921</speed>
  <fix>3d</fix>
</trkpt>
<trkpt lat="33.8103583" lon="-118.3944894">
  <ele>-0.108</ele>
  <time>2026-09-02T22:07:28Z</time>
  <course>9.66</course>
  <speed>1.7923448328934921</speed>
  <fix>3d</fix>
</trkpt>
<trkpt lat="33.8103584" lon="-118.3944895">
  <ele>-0.108</ele>
  <time>2026-09-02T22:07:28Z</time>
  <course>9.66</course>
  <speed>1.7923448328934921</speed>
  <fix>3d</fix>
</trkpt>
<trkpt lat="33.8103584" lon="-118.3944896">
  <ele>-0.108</ele>
  <time>2026-09-02T22:07:28Z</time>
  <course>9.66</course>
  <speed>1.7923448328934921</speed>
  <fix>3d</fix>
</trkpt>
<trkpt lat="33.8103584" lon="-118.3944896">
  <ele>-0.108</ele>
  <time>2026-09-02T22:07:28Z</time>
  <course>9.66</course>
  <speed>1.7923448328934921</speed>
  <fix>3d</fix>
</trkpt>
<trkpt lat="33.8103581" lon="-118.394485">
  <ele>-0.1</ele>
  <time>2026-09-02T22:07:28Z</time>
  <course>277.49</course>
  <speed>1.82</speed>
  <fix>3d</fix>
</trkpt>
<trkpt lat="33.8103584" lon="-118.3944899">
  <ele>-0.108</ele>
  <time>2026-09-02T22:07:28Z</time>
  <course>9.67</course>
  <speed>1.7923448328934921</speed>
  <fix>3d</fix>
</trkpt>
<trkpt lat="33.8103584" lon="-118.3944901">
  <ele>-0.108</ele>
  <time>2026-09-02T22:07:28Z</time>
  <course>9.67</course>
  <speed>1.7923448328934921</speed>
  <fix>3d</fix>
</trkpt>
<trkpt lat="33.8103585" lon="-118.3944903">
  <ele>-0.108</ele>
  <time>2026-09-02T22:07:28Z</time>
  <course>9.67</course>
  <speed>1.7923448328934921</speed>
  <fix>3d</fix>
</trkpt>
<trkpt lat="33.8103585" lon="-118.3944905">
  <ele>-0.108</ele>
  <time>2026-09-02T22:07:28Z</time>
  <course>9.67</course>
  <speed>1.7923448328934921</speed>
  <fix>3d</fix>
</trkpt>
<trkpt lat="33.8103585" lon="-118.3944907">
  <ele>-0.108</ele>
  <time>2026-09-02T22:07:28Z</time>
  <course>9.67</course>
  <speed>1.7923448328934921</speed>
  <fix>3d</fix>
</trkpt>
<trkpt lat="33.8103585" lon="-118.3944908">
  <ele>-0.108</ele>
  <time>2026-09-02T22:07:28Z</time>
  <course>9.67</course>
  <speed>1.7923448328934921</speed>
  <fix>3d</fix>
</trkpt>
<trkpt lat="33.8103585" lon="-118.394491">
  <ele>-0.108</ele>
  <time>2026-09-02T22:07:28Z</time>
  <course>9.67</course>
  <speed>1.7923448328934921</speed>
  <fix>3d</fix>
</trkpt>
<trkpt lat="33.8103585" lon="-118.3944912">
  <ele>-0.108</ele>
  <time>2026-09-02T22:07:28Z</time>
  <course>9.67</course>
  <speed>1.7923448328934921</speed>
  <fix>3d</fix>
</trkpt>
<trkpt lat="33.8103586" lon="-118.3944913">
  <ele>-0.108</ele>
  <time>2026-09-02T22:07:28Z</time>
  <course>9.67</course>
  <speed>1.7923448328934921</speed>
  <fix>3d</fix>
</trkpt>
<trkpt lat="33.8103586" lon="-118.3944915">
  <ele>-0.108</ele>
  <time>2026-09-02T22:07:28Z</time>
  <course>9.67</course>
  <speed>1.7923448328934921</speed>
  <fix>3d</fix>
</trkpt>
<trkpt lat="33.8103586" lon="-118.3944916">
  <ele>-0.108</ele>
  <time>2026-09-02T22:07:28Z</time>
  <course>9.67</course>
  <speed>1.7923448328934921</speed>
  <fix>3d</fix>
</trkpt>
<trkpt lat="33.8103586" lon="-118.3944889">
  <ele>-0.1</ele>
  <time>2026-09-02T22:07:28Z</time>
  <course>277.5</course>
  <speed>1.82</speed>
  <fix>3d</fix>
</trkpt>
<trkpt lat="33.8103586" lon="-118.3944917">
  <ele>-0.108</ele>
  <time>2026-09-02T22:07:28Z</time>
  <course>9.67</course>
  <speed>1.7923448328934921</speed>
  <fix>3d</fix>
</trkpt>
<trkpt lat="33.8103586" lon="-118.3944919">
  <ele>-0.108</ele>
  <time>2026-09-02T22:07:28Z</time>
  <course>9.67</course>
  <speed>1.7923448328934921</speed>
  <fix>3d</fix>
</trkpt>
<trkpt lat="33.8103587" lon="-118.3944921">
  <ele>-0.108</ele>
  <time>2026-09-02T22:07:28Z</time>
  <course>9.67</course>
  <speed>1.7923448328934921</speed>
  <fix>3d</fix>
</trkpt>
<trkpt lat="33.8103587" lon="-118.3944923">
  <ele>-0.108</ele>
  <time>2026-09-02T22:07:28Z</time>
  <course>9.67</course>
  <speed>1.7923448328934921</speed>
  <fix>3d</fix>
</trkpt>
<trkpt lat="33.8103587" lon="-118.3944924">
  <ele>-0.108</ele>
  <time>2026-09-02T22:07:28Z</time>
  <course>9.67</course>
  <speed>1.7923448328934921</speed>
  <fix>3d</fix>
</trkpt>
<trkpt lat="33.8103587" lon="-118.3944926">
  <ele>-0.108</ele>
  <time>2026-09-02T22:07:28Z</time>
  <course>9.68</course>
  <speed>1.7923448328934921</speed>
  <fix>3d</fix>
</trkpt>
<trkpt lat="33.8103587" lon="-118.3944928">
  <ele>-0.108</ele>
  <time>2026-09-02T22:07:28Z</time>
  <course>9.68</course>
  <speed>1.7923448328934921</speed>
  <fix>3d</fix>
</trkpt>
<trkpt lat="33.8103587" lon="-118.3944929">
  <ele>-0.109</ele>
  <time>2026-09-02T22:07:28Z</time>
  <course>9.68</course>
  <speed>1.7923448328934921</speed>
  <fix>3d</fix>
</trkpt>
<trkpt lat="33.8103588" lon="-118.3944931">
  <ele>-0.109</ele>
  <time>2026-09-02T22:07:28Z</time>
  <course>9.68</course>
  <speed>1.7923448328934921</speed>
  <fix>3d</fix>
</trkpt>
<trkpt lat="33.8103588" lon="-118.3944933">
  <ele>-0.109</ele>
  <time>2026-09-02T22:07:28Z</time>
  <course>9.68</course>
  <speed>1.7923448328934921</speed>
  <fix>3d</fix>
</trkpt>
<trkpt lat="33.8103588" lon="-118.3944935">
  <ele>-0.109</ele>
  <time>2026-09-02T22:07:28Z</time>
  <course>9.68</course>
  <speed>1.7923448328934921</speed>
  <fix>3d</fix>
</trkpt>
<trkpt lat="33.8103588" lon="-118.3944936">
  <ele>-0.109</ele>
  <time>2026-09-02T22:07:28Z</time>
  <course>9.68</course>
  <speed>1.7923448328934921</speed>
  <fix>3d</fix>
</trkpt>
<trkpt lat="33.8103586" lon="-118.3944889">
  <ele>-0.1</ele>
  <time>2026-09-02T22:07:28Z</time>
  <course>277.5</course>
  <speed>1.82</speed>
  <fix>3d</fix>
</trkpt>
<trkpt lat="33.8103588" lon="-118.3944936">
  <ele>-0.109</ele>
  <time>2026-09-02T22:07:28Z</time>
  <course>9.68</course>
  <speed>1.7923448328934921</speed>
  <fix>3d</fix>
</trkpt>
<trkpt lat="33.8103588" lon="-118.3944939">
  <ele>-0.109</ele>
  <time>2026-09-02T22:07:28Z</time>
  <course>9.68</course>
  <speed>1.7923448328934921</speed>
  <fix>3d</fix>
</trkpt>
<trkpt lat="33.8103589" lon="-118.3944941">
  <ele>-0.109</ele>
  <time>2026-09-02T22:07:28Z</time>
  <course>9.68</course>
  <speed>1.7923448328934921</speed>
  <fix>3d</fix>
</trkpt>
<trkpt lat="33.8103589" lon="-118.3944943">
  <ele>-0.109</ele>
  <time>2026-09-02T22:07:28Z</time>
  <course>9.68</course>
  <speed>1.7923448328934921</speed>
  <fix>3d</fix>
</trkpt>
<trkpt lat="33.8103589" lon="-118.3944944">
  <ele>-0.109</ele>
  <time>2026-09-02T22:07:28Z</time>
  <course>9.68</course>
  <speed>1.7923448328934921</speed>
  <fix>3d</fix>
</trkpt>
<trkpt lat="33.8103589" lon="-118.3944946">
  <ele>-0.109</ele>
  <time>2026-09-02T22:07:28Z</time>
  <course>9.68</course>
  <speed>1.7923448328934921</speed>
  <fix>3d</fix>
</trkpt>
<trkpt lat="33.8103589" lon="-118.3944948">
  <ele>-0.109</ele>
  <time>2026-09-02T22:07:28Z</time>
  <course>9.68</course>
  <speed>1.7923448328934921</speed>
  <fix>3d</fix>
</trkpt>
<trkpt lat="33.810359" lon="-118.394495">
  <ele>-0.11</ele>
  <time>2026-09-02T22:07:28Z</time>
  <course>9.68</course>
  <speed>1.7923448328934921</speed>
  <fix>3d</fix>
</trkpt>
<trkpt lat="33.810359" lon="-118.3944952">
  <ele>-0.11</ele>
  <time>2026-09-02T22:07:28Z</time>
  <course>9.68</course>
  <speed>1.7923448328934921</speed>
  <fix>3d</fix>
</trkpt>
<trkpt lat="33.810359" lon="-118.3944953">
  <ele>-0.11</ele>
  <time>2026-09-02T22:07:28Z</time>
  <course>9.68</course>
  <speed>1.7923448328934921</speed>
  <fix>3d</fix>
</trkpt>
<trkpt lat="33.810359" lon="-118.3944955">
  <ele>-0.11</ele>
  <time>2026-09-02T22:07:28Z</time>
  <course>9.68</course>
  <speed>1.7923448328934921</speed>
  <fix>3d</fix>
</trkpt>
<trkpt lat="33.810359" lon="-118.3944955">
  <ele>-0.11</ele>
  <time>2026-09-02T22:07:28Z</time>
  <course>9.68</course>
  <speed>1.7923448328934921</speed>
  <fix>3d</fix>
</trkpt>
<trkpt lat="33.810359" lon="-118.3944928">
  <ele>-0.1</ele>
  <time>2026-09-02T22:07:28Z</time>
  <course>277.52</course>
  <speed>1.82</speed>
  <fix>3d</fix>
</trkpt>
<trkpt lat="33.810359" lon="-118.3944956">
  <ele>-0.11</ele>
  <time>2026-09-02T22:07:28Z</time>
  <course>9.68</course>
  <speed>1.7923448328934921</speed>
  <fix>3d</fix>
</trkpt>
<trkpt lat="33.8103591" lon="-118.3944959">
  <ele>-0.11</ele>
  <time>2026-09-02T22:07:28Z</time>
  <course>9.69</course>
  <speed>1.7923448328934921</speed>
  <fix>3d</fix>
</trkpt>
<trkpt lat="33.8103591" lon="-118.394496">
  <ele>-0.11</ele>
  <time>2026-09-02T22:07:28Z</time>
  <course>9.69</course>
  <speed>1.7923448328934921</speed>
  <fix>3d</fix>
</trkpt>
<trkpt lat="33.8103591" lon="-118.3944962">
  <ele>-0.11</ele>
  <time>2026-09-02T22:07:28Z</time>
  <course>9.69</course>
  <speed>1.7923448328934921</speed>
  <fix>3d</fix>
</trkpt>
<trkpt lat="33.8103591" lon="-118.3944963">
  <ele>-0.11</ele>
  <time>2026-09-02T22:07:28Z</time>
  <course>9.69</course>
  <speed>1.7923448328934921</speed>
  <fix>3d</fix>
</trkpt>
<trkpt lat="33.8103591" lon="-118.3944964">
  <ele>-0.11</ele>
  <time>2026-09-02T22:07:28Z</time>
  <course>9.69</course>
  <speed>1.7923448328934921</speed>
  <fix>3d</fix>
</trkpt>
<trkpt lat="33.8103591" lon="-118.3944966">
  <ele>-0.11</ele>
  <time>2026-09-02T22:07:28Z</time>
  <course>9.69</course>
  <speed>1.7923448328934921</speed>
  <fix>3d</fix>
</trkpt>
<trkpt lat="33.8103592" lon="-118.3944967">
  <ele>-0.11</ele>
  <time>2026-09-02T22:07:28Z</time>
  <course>9.69</course>
  <speed>1.7923448328934921</speed>
  <fix>3d</fix>
</trkpt>
<trkpt lat="33.8103592" lon="-118.3944969">
  <ele>-0.11</ele>
  <time>2026-09-02T22:07:28Z</time>
  <course>9.69</course>
  <speed>1.7923448328934921</speed>
  <fix>3d</fix>
</trkpt>
<trkpt lat="33.8103592" lon="-118.3944971">
  <ele>-0.11</ele>
  <time>2026-09-02T22:07:28Z</time>
  <course>9.69</course>
  <speed>1.7923448328934921</speed>
  <fix>3d</fix>
</trkpt>
<trkpt lat="33.8103592" lon="-118.3944973">
  <ele>-0.11</ele>
  <time>2026-09-02T22:07:28Z</time>
  <course>9.69</course>
  <speed>1.7923448328934921</speed>
  <fix>3d</fix>
</trkpt>
<trkpt lat="33.8103592" lon="-118.3944974">
  <ele>-0.11</ele>
  <time>2026-09-02T22:07:28Z</time>
  <course>9.69</course>
  <speed>1.7923448328934921</speed>
  <fix>3d</fix>
</trkpt>
<trkpt lat="33.8103592" lon="-118.3944975">
  <ele>-0.11</ele>
  <time>2026-09-02T22:07:28Z</time>
  <course>9.69</course>
  <speed>1.7923448328934921</speed>
  <fix>3d</fix>
</trkpt>
<trkpt lat="33.810359" lon="-118.3944928">
  <ele>-0.1</ele>
  <time>2026-09-02T22:07:28Z</time>
  <course>277.52</course>
  <speed>1.82</speed>
  <fix>3d</fix>
</trkpt>
<trkpt lat="33.8103592" lon="-118.3944975">
  <ele>-0.11</ele>
  <time>2026-09-02T22:07:28Z</time>
  <course>9.69</course>
  <speed>1.7923448328934921</speed>
  <fix>3d</fix>
</trkpt>
<trkpt lat="33.8103593" lon="-118.3944978">
  <ele>-0.11</ele>
  <time>2026-09-02T22:07:28Z</time>
  <course>9.69</course>
  <speed>1.7923448328934921</speed>
  <fix>3d</fix>
</trkpt>
<trkpt lat="33.8103593" lon="-118.3944981">
  <ele>-0.11</ele>
  <time>2026-09-02T22:07:28Z</time>
  <course>9.69</course>
  <speed>1.7923448328934921</speed>
  <fix>3d</fix>
</trkpt>
<trkpt lat="33.8103593" lon="-118.3944982">
  <ele>-0.11</ele>
  <time>2026-09-02T22:07:28Z</time>
  <course>9.69</course>
  <speed>1.7923448328934921</speed>
  <fix>3d</fix>
</trkpt>
<trkpt lat="33.8103593" lon="-118.3944984">
  <ele>-0.11</ele>
  <time>2026-09-02T22:07:28Z</time>
  <course>9.7</course>
  <speed>1.7923448328934921</speed>
  <fix>3d</fix>
</trkpt>
<trkpt lat="33.8103594" lon="-118.3944986">
  <ele>-0.11</ele>
  <time>2026-09-02T22:07:28Z</time>
  <course>9.7</course>
  <speed>1.7923448328934921</speed>
  <fix>3d</fix>
</trkpt>
<trkpt lat="33.8103594" lon="-118.3944987">
  <ele>-0.11</ele>
  <time>2026-09-02T22:07:28Z</time>
  <course>9.7</course>
  <speed>1.7923448328934921</speed>
  <fix>3d</fix>
</trkpt>
<trkpt lat="33.8103594" lon="-118.3944989">
  <ele>-0.11</ele>
  <time>2026-09-02T22:07:28Z</time>
  <course>9.7</course>
  <speed>1.7923448328934921</speed>
  <fix>3d</fix>
</trkpt>
<trkpt lat="33.8103594" lon="-118.3944991">
  <ele>-0.11</ele>
  <time>2026-09-02T22:07:28Z</time>
  <course>9.7</course>
  <speed>1.7923448328934921</speed>
  <fix>3d</fix>
</trkpt>
<trkpt lat="33.8103594" lon="-118.3944992">
  <ele>-0.11</ele>
  <time>2026-09-02T22:07:28Z</time>
  <course>9.7</course>
  <speed>1.7923448328934921</speed>
  <fix>3d</fix>
</trkpt>
<trkpt lat="33.8103595" lon="-118.3944994">
  <ele>-0.109</ele>
  <time>2026-09-02T22:07:28Z</time>
  <course>9.7</course>
  <speed>1.7923448328934921</speed>
  <fix>3d</fix>
</trkpt>
<trkpt lat="33.8103595" lon="-118.3944994">
  <ele>-0.109</ele>
  <time>2026-09-02T22:07:28Z</time>
  <course>9.7</course>
  <speed>1.7923448328934921</speed>
  <fix>3d</fix>
</trkpt>
<trkpt lat="33.8103594" lon="-118.3944967">
  <ele>-0.1</ele>
  <time>2026-09-02T22:07:28Z</time>
  <course>277.54</course>
  <speed>1.82</speed>
  <fix>3d</fix>
</trkpt>
<trkpt lat="33.8103595" lon="-118.3944995">
  <ele>-0.109</ele>
  <time>2026-09-02T22:07:28Z</time>
  <course>9.7</course>
  <speed>1.7923448328934921</speed>
  <fix>3d</fix>
</trkpt>
<trkpt lat="33.8103595" lon="-118.3944998">
  <ele>-0.109</ele>
  <time>2026-09-02T22:07:28Z</time>
  <course>9.7</course>
  <speed>1.7923448328934921</speed>
  <fix>3d</fix>
</trkpt>
<trkpt lat="33.8103595" lon="-118.3945">
  <ele>-0.109</ele>
  <time>2026-09-02T22:07:28Z</time>
  <course>9.7</course>
  <speed>1.7923448328934921</speed>
  <fix>3d</fix>
</trkpt>
<trkpt lat="33.8103595" lon="-118.3945002">
  <ele>-0.109</ele>
  <time>2026-09-02T22:07:28Z</time>
  <course>9.7</course>
  <speed>1.7923448328934921</speed>
  <fix>3d</fix>
</trkpt>
<trkpt lat="33.8103596" lon="-118.3945003">
  <ele>-0.109</ele>
  <time>2026-09-02T22:07:28Z</time>
  <course>9.7</course>
  <speed>1.7923448328934921</speed>
  <fix>3d</fix>
</trkpt>
<trkpt lat="33.8103596" lon="-118.3945004">
  <ele>-0.109</ele>
  <time>2026-09-02T22:07:28Z</time>
  <course>9.7</course>
  <speed>1.7923448328934921</speed>
  <fix>3d</fix>
</trkpt>
<trkpt lat="33.8103596" lon="-118.3945006">
  <ele>-0.109</ele>
  <time>2026-09-02T22:07:28Z</time>
  <course>9.7</course>
  <speed>1.7923448328934921</speed>
  <fix>3d</fix>
</trkpt>
<trkpt lat="33.8103596" lon="-118.3945008">
  <ele>-0.108</ele>
  <time>2026-09-02T22:07:28Z</time>
  <course>9.7</course>
  <speed>1.7923448328934921</speed>
  <fix>3d</fix>
</trkpt>
<trkpt lat="33.8103596" lon="-118.394501">
  <ele>-0.108</ele>
  <time>2026-09-02T22:07:28Z</time>
  <course>9.7</course>
  <speed>1.7923448328934921</speed>
  <fix>3d</fix>
</trkpt>
<trkpt lat="33.8103597" lon="-118.3945012">
  <ele>-0.108</ele>
  <time>2026-09-02T22:07:28Z</time>
  <course>9.7</course>
  <speed>1.7923448328934921</speed>
  <fix>3d</fix>
</trkpt>
<trkpt lat="33.8103597" lon="-118.3945014">
  <ele>-0.108</ele>
  <time>2026-09-02T22:07:28Z</time>
  <course>9.7</course>
  <speed>1.7923448328934921</speed>
  <fix>3d</fix>
</trkpt>
<trkpt lat="33.8103597" lon="-118.3945014">
  <ele>-0.108</ele>
  <time>2026-09-02T22:07:28Z</time>
  <course>9.7</course>
  <speed>1.7923448328934921</speed>
  <fix>3d</fix>
</trkpt>
<trkpt lat="33.8103594" lon="-118.3944967">
  <ele>-0.1</ele>
  <time>2026-09-02T22:07:28Z</time>
  <course>277.54</course>
  <speed>1.82</speed>
  <fix>3d</fix>
</trkpt>
<trkpt lat="33.8103597" lon="-118.3945017">
  <ele>-0.108</ele>
  <time>2026-09-02T22:07:28Z</time>
  <course>9.71</course>
  <speed>1.7923448328934921</speed>
  <fix>3d</fix>
</trkpt>
<trkpt lat="33.8103597" lon="-118.3945019">
  <ele>-0.108</ele>
  <time>2026-09-02T22:07:28Z</time>
  <course>9.71</course>
  <speed>1.7923448328934921</speed>
  <fix>3d</fix>
</trkpt>
<trkpt lat="33.8103597" lon="-118.3945021">
  <ele>-0.108</ele>
  <time>2026-09-02T22:07:28Z</time>
  <course>9.71</course>
  <speed>1.7923448328934921</speed>
  <fix>3d</fix>
</trkpt>
<trkpt lat="33.8103598" lon="-118.3945022">
  <ele>-0.108</ele>
  <time>2026-09-02T22:07:28Z</time>
  <course>9.71</course>
  <speed>1.7923448328934921</speed>
  <fix>3d</fix>
</trkpt>
<trkpt lat="33.8103598" lon="-118.3945024">
  <ele>-0.108</ele>
  <time>2026-09-02T22:07:28Z</time>
  <course>9.71</course>
  <speed>1.7923448328934921</speed>
  <fix>3d</fix>
</trkpt>
<trkpt lat="33.8103598" lon="-118.3945025">
  <ele>-0.108</ele>
  <time>2026-09-02T22:07:28Z</time>
  <course>9.71</course>
  <speed>1.7923448328934921</speed>
  <fix>3d</fix>
</trkpt>
<trkpt lat="33.8103598" lon="-118.3945027">
  <ele>-0.108</ele>
  <time>2026-09-02T22:07:28Z</time>
  <course>9.71</course>
  <speed>1.7923448328934921</speed>
  <fix>3d</fix>
</trkpt>
<trkpt lat="33.8103598" lon="-118.3945029">
  <ele>-0.108</ele>
  <time>2026-09-02T22:07:28Z</time>
  <course>9.71</course>
  <speed>1.7923448328934921</speed>
  <fix>3d</fix>
</trkpt>
<trkpt lat="33.8103599" lon="-118.394503">
  <ele>-0.108</ele>
  <time>2026-09-02T22:07:28Z</time>
  <course>9.71</course>
  <speed>1.7923448328934921</speed>
  <fix>3d</fix>
</trkpt>
<trkpt lat="33.8103599" lon="-118.3945032">
  <ele>-0.108</ele>
  <time>2026-09-02T22:07:28Z</time>
  <course>9.71</course>
  <speed>1.7923448328934921</speed>
  <fix>3d</fix>
</trkpt>
<trkpt lat="33.8103599" lon="-118.3945033">
  <ele>-0.108</ele>
  <time>2026-09-02T22:07:28Z</time>
  <course>9.71</course>
  <speed>1.7923448328934921</speed>
  <fix>3d</fix>
</trkpt>
<trkpt lat="33.8103598" lon="-118.3945006">
  <ele>-0.1</ele>
  <time>2026-09-02T22:07:28Z</time>
  <course>277.55</course>
  <speed>1.82</speed>
  <fix>3d</fix>
</trkpt>
<trkpt lat="33.8103599" lon="-118.3945034">
  <ele>-0.108</ele>
  <time>2026-09-02T22:07:28Z</time>
  <course>9.71</course>
  <speed>1.7923448328934921</speed>
  <fix>3d</fix>
</trkpt>
<trkpt lat="33.8103599" lon="-118.3945036">
  <ele>-0.107</ele>
  <time>2026-09-02T22:07:28Z</time>
  <course>9.71</course>
  <speed>1.7923448328934921</speed>
  <fix>3d</fix>
</trkpt>
<trkpt lat="33.8103599" lon="-118.3945038">
  <ele>-0.107</ele>
  <time>2026-09-02T22:07:28Z</time>
  <course>9.71</course>
  <speed>1.7923448328934921</speed>
  <fix>3d</fix>
</trkpt>
<trkpt lat="33.81036" lon="-118.394504">
  <ele>-0.107</ele>
  <time>2026-09-02T22:07:28Z</time>
  <course>9.71</course>
  <speed>1.7923448328934921</speed>
  <fix>3d</fix>
</trkpt>
<trkpt lat="33.81036" lon="-118.3945041">
  <ele>-0.107</ele>
  <time>2026-09-02T22:07:28Z</time>
  <course>9.71</course>
  <speed>1.7923448328934921</speed>
  <fix>3d</fix>
</trkpt>
<trkpt lat="33.81036" lon="-118.3945043">
  <ele>-0.107</ele>
  <time>2026-09-02T22:07:28Z</time>
  <course>9.71</course>
  <speed>1.7923448328934921</speed>
  <fix>3d</fix>
</trkpt>
<trkpt lat="33.81036" lon="-118.3945044">
  <ele>-0.107</ele>
  <time>2026-09-02T22:07:28Z</time>
  <course>9.72</course>
  <speed>1.7923448328934921</speed>
  <fix>3d</fix>
</trkpt>
<trkpt lat="33.81036" lon="-118.3945045">
  <ele>-0.107</ele>
  <time>2026-09-02T22:07:28Z</time>
  <course>9.72</course>
  <speed>1.7923448328934921</speed>
  <fix>3d</fix>
</trkpt>
<trkpt lat="33.81036" lon="-118.3945047">
  <ele>-0.107</ele>
  <time>2026-09-02T22:07:28Z</time>
  <course>9.72</course>
  <speed>1.7923448328934921</speed>
  <fix>3d</fix>
</trkpt>
<trkpt lat="33.8103601" lon="-118.3945049">
  <ele>-0.107</ele>
  <time>2026-09-02T22:07:28Z</time>
  <course>9.72</course>
  <speed>1.7923448328934921</speed>
  <fix>3d</fix>
</trkpt>
<trkpt lat="33.8103601" lon="-118.394505">
  <ele>-0.107</ele>
  <time>2026-09-02T22:07:28Z</time>
  <course>9.72</course>
  <speed>1.7923448328934921</speed>
  <fix>3d</fix>
</trkpt>
<trkpt lat="33.8103601" lon="-118.3945052">
  <ele>-0.107</ele>
  <time>2026-09-02T22:07:28Z</time>
  <course>9.72</course>
  <speed>1.7923448328934921</speed>
  <fix>3d</fix>
</trkpt>
<trkpt lat="33.8103601" lon="-118.3945053">
  <ele>-0.107</ele>
  <time>2026-09-02T22:07:28Z</time>
  <course>9.72</course>
  <speed>1.7923448328934921</speed>
  <fix>3d</fix>
</trkpt>
<trkpt lat="33.8103598" lon="-118.3945006">
  <ele>-0.1</ele>
  <time>2026-09-02T22:07:28Z</time>
  <course>277.55</course>
  <speed>1.82</speed>
  <fix>3d</fix>
</trkpt>
<trkpt lat="33.8103601" lon="-118.3945053">
  <ele>-0.107</ele>
  <time>2026-09-02T22:07:28Z</time>
  <course>9.72</course>
  <speed>1.7923448328934921</speed>
  <fix>3d</fix>
</trkpt>
<trkpt lat="33.8103601" lon="-118.3945056">
  <ele>-0.107</ele>
  <time>2026-09-02T22:07:28Z</time>
  <course>9.72</course>
  <speed>1.7923448328934921</speed>
  <fix>3d</fix>
</trkpt>
<trkpt lat="33.8103602" lon="-118.3945058">
  <ele>-0.107</ele>
  <time>2026-09-02T22:07:28Z</time>
  <course>9.72</course>
  <speed>1.7923448328934921</speed>
  <fix>3d</fix>
</trkpt>
<trkpt lat="33.8103602" lon="-118.394506">
  <ele>-0.107</ele>
  <time>2026-09-02T22:07:28Z</time>
  <course>9.72</course>
  <speed>1.7923448328934921</speed>
  <fix>3d</fix>
</trkpt>
<trkpt lat="33.8103602" lon="-118.3945061">
  <ele>-0.107</ele>
  <time>2026-09-02T22:07:28Z</time>
  <course>9.72</course>
  <speed>1.7923448328934921</speed>
  <fix>3d</fix>
</trkpt>
<trkpt lat="33.8103602" lon="-118.3945063">
  <ele>-0.107</ele>
  <time>2026-09-02T22:07:28Z</time>
  <course>9.72</course>
  <speed>1.7923448328934921</speed>
  <fix>3d</fix>
</trkpt>
<trkpt lat="33.8103602" lon="-118.3945064">
  <ele>-0.107</ele>
  <time>2026-09-02T22:07:28Z</time>
  <course>9.72</course>
  <speed>1.7923448328934921</speed>
  <fix>3d</fix>
</trkpt>
<trkpt lat="33.8103602" lon="-118.3945065">
  <ele>-0.107</ele>
  <time>2026-09-02T22:07:28Z</time>
  <course>9.72</course>
  <speed>1.7923448328934921</speed>
  <fix>3d</fix>
</trkpt>
<trkpt lat="33.8103603" lon="-118.3945067">
  <ele>-0.107</ele>
  <time>2026-09-02T22:07:28Z</time>
  <course>9.72</course>
  <speed>1.7923448328934921</speed>
  <fix>3d</fix>
</trkpt>
<trkpt lat="33.8103603" lon="-118.3945069">
  <ele>-0.107</ele>
  <time>2026-09-02T22:07:28Z</time>
  <course>9.72</course>
  <speed>1.7923448328934921</speed>
  <fix>3d</fix>
</trkpt>
<trkpt lat="33.8103603" lon="-118.394507">
  <ele>-0.107</ele>
  <time>2026-09-02T22:07:28Z</time>
  <course>9.72</course>
  <speed>1.7923448328934921</speed>
  <fix>3d</fix>
</trkpt>
<trkpt lat="33.8103603" lon="-118.3945072">
  <ele>-0.107</ele>
  <time>2026-09-02T22:07:28Z</time>
  <course>9.72</course>
  <speed>1.7923448328934921</speed>
  <fix>3d</fix>
</trkpt>
<trkpt lat="33.8103603" lon="-118.3945072">
  <ele>-0.107</ele>
  <time>2026-09-02T22:07:28Z</time>
  <course>9.72</course>
  <speed>1.7923448328934921</speed>
  <fix>3d</fix>
</trkpt>
<trkpt lat="33.8103603" lon="-118.3945045">
  <ele>-0.1</ele>
  <time>2026-09-02T22:07:28Z</time>
  <course>277.57</course>
  <speed>1.82</speed>
  <fix>3d</fix>
</trkpt>
<trkpt lat="33.8103603" lon="-118.3945073">
  <ele>-0.107</ele>
  <time>2026-09-02T22:07:28Z</time>
  <course>9.72</course>
  <speed>1.7923448328934921</speed>
  <fix>3d</fix>
</trkpt>
<trkpt lat="33.8103604" lon="-118.3945076">
  <ele>-0.107</ele>
  <time>2026-09-02T22:07:28Z</time>
  <course>9.73</course>
  <speed>1.7923448328934921</speed>
  <fix>3d</fix>
</trkpt>
<trkpt lat="33.8103604" lon="-118.3945077">
  <ele>-0.107</ele>
  <time>2026-09-02T22:07:28Z</time>
  <course>9.73</course>
  <speed>1.7923448328934921</speed>
  <fix>3d</fix>
</trkpt>
<trkpt lat="33.8103604" lon="-118.3945079">
  <ele>-0.107</ele>
  <time>2026-09-02T22:07:28Z</time>
  <course>9.73</course>
  <speed>1.7923448328934921</speed>
  <fix>3d</fix>
</trkpt>
<trkpt lat="33.8103604" lon="-118.3945081">
  <ele>-0.107</ele>
  <time>2026-09-02T22:07:28Z</time>
  <course>9.73</course>
  <speed>1.7923448328934921</speed>
  <fix>3d</fix>
</trkpt>
<trkpt lat="33.8103604" lon="-118.3945082">
  <ele>-0.107</ele>
  <time>2026-09-02T22:07:28Z</time>
  <course>9.73</course>
  <speed>1.7923448328934921</speed>
  <fix>3d</fix>
</trkpt>
<trkpt lat="33.8103604" lon="-118.3945084">
  <ele>-0.107</ele>
  <time>2026-09-02T22:07:28Z</time>
  <course>9.73</course>
  <speed>1.7923448328934921</speed>
  <fix>3d</fix>
</trkpt>
<trkpt lat="33.8103605" lon="-118.3945085">
  <ele>-0.107</ele>
  <time>2026-09-02T22:07:28Z</time>
  <course>9.73</course>
  <speed>1.7923448328934921</speed>
  <fix>3d</fix>
</trkpt>
<trkpt lat="33.8103605" lon="-118.3945086">
  <ele>-0.107</ele>
  <time>2026-09-02T22:07:28Z</time>
  <course>9.73</course>
  <speed>1.7923448328934921</speed>
  <fix>3d</fix>
</trkpt>
<trkpt lat="33.8103605" lon="-118.3945088">
  <ele>-0.107</ele>
  <time>2026-09-02T22:07:28Z</time>
  <course>9.73</course>
  <speed>1.7923448328934921</speed>
  <fix>3d</fix>
</trkpt>
<trkpt lat="33.8103605" lon="-118.3945089">
  <ele>-0.107</ele>
  <time>2026-09-02T22:07:28Z</time>
  <course>9.73</course>
  <speed>1.7923448328934921</speed>
  <fix>3d</fix>
</trkpt>
<trkpt lat="33.8103605" lon="-118.3945091">
  <ele>-0.107</ele>
  <time>2026-09-02T22:07:28Z</time>
  <course>9.73</course>
  <speed>1.7923448328934921</speed>
  <fix>3d</fix>
</trkpt>
<trkpt lat="33.8103605" lon="-118.3945092">
  <ele>-0.107</ele>
  <time>2026-09-02T22:07:28Z</time>
  <course>9.73</course>
  <speed>1.7923448328934921</speed>
  <fix>3d</fix>
</trkpt>
<trkpt lat="33.8103603" lon="-118.3945045">
  <ele>-0.1</ele>
  <time>2026-09-02T22:07:28Z</time>
  <course>277.57</course>
  <speed>1.82</speed>
  <fix>3d</fix>
</trkpt>
<trkpt lat="33.8103605" lon="-118.3945092">
  <ele>-0.107</ele>
  <time>2026-09-02T22:07:28Z</time>
  <course>9.73</course>
  <speed>1.7923448328934921</speed>
  <fix>3d</fix>
</trkpt>
<trkpt lat="33.8103606" lon="-118.3945095">
  <ele>-0.107</ele>
  <time>2026-09-02T22:07:28Z</time>
  <course>9.73</course>
  <speed>1.7923448328934921</speed>
  <fix>3d</fix>
</trkpt>
<trkpt lat="33.8103606" lon="-118.3945097">
  <ele>-0.106</ele>
  <time>2026-09-02T22:07:28Z</time>
  <course>9.73</course>
  <speed>1.7923448328934921</speed>
  <fix>3d</fix>
</trkpt>
<trkpt lat="33.8103606" lon="-118.3945099">
  <ele>-0.106</ele>
  <time>2026-09-02T22:07:28Z</time>
  <course>9.73</course>
  <speed>1.7923448328934921</speed>
  <fix>3d</fix>
</trkpt>
<trkpt lat="33.8103606" lon="-118.3945101">
  <ele>-0.106</ele>
  <time>2026-09-02T22:07:28Z</time>
  <course>9.73</course>
  <speed>1.7923448328934921</speed>
  <fix>3d</fix>
</trkpt>
<trkpt lat="33.8103606" lon="-118.3945102">
  <ele>-0.106</ele>
  <time>2026-09-02T22:07:28Z</time>
  <course>9.73</course>
  <speed>1.7923448328934921</speed>
  <fix>3d</fix>
</trkpt>
<trkpt lat="33.8103607" lon="-118.3945104">
  <ele>-0.106</ele>
  <time>2026-09-02T22:07:28Z</time>
  <course>9.74</course>
  <speed>1.7923448328934921</speed>
  <fix>3d</fix>
</trkpt>
<trkpt lat="33.8103607" lon="-118.3945106">
  <ele>-0.106</ele>
  <time>2026-09-02T22:07:28Z</time>
  <course>9.74</course>
  <speed>1.7923448328934921</speed>
  <fix>3d</fix>
</trkpt>
<trkpt lat="33.8103607" lon="-118.3945108">
  <ele>-0.106</ele>
  <time>2026-09-02T22:07:28Z</time>
  <course>9.74</course>
  <speed>1.7923448328934921</speed>
  <fix>3d</fix>
</trkpt>
<trkpt lat="33.8103607" lon="-118.3945109">
  <ele>-0.106</ele>
  <time>2026-09-02T22:07:28Z</time>
  <course>9.74</course>
  <speed>1.7923448328934921</speed>
  <fix>3d</fix>
</trkpt>
<trkpt lat="33.8103608" lon="-118.3945111">
  <ele>-0.106</ele>
  <time>2026-09-02T22:07:28Z</time>
  <course>9.74</course>
  <speed>1.7923448328934921</speed>
  <fix>3d</fix>
</trkpt>
<trkpt lat="33.8103608" lon="-118.3945111">
  <ele>-0.106</ele>
  <time>2026-09-02T22:07:28Z</time>
  <course>9.74</course>
  <speed>1.7923448328934921</speed>
  <fix>3d</fix>
</trkpt>
<trkpt lat="33.8103607" lon="-118.3945084">
  <ele>-0.1</ele>
  <time>2026-09-02T22:07:28Z</time>
  <course>277.58</course>
  <speed>1.82</speed>
  <fix>3d</fix>
</trkpt>
<trkpt lat="33.8103608" lon="-118.3945115">
  <ele>-0.106</ele>
  <time>2026-09-02T22:07:28Z</time>
  <course>9.74</course>
  <speed>1.7923448328934921</speed>
  <fix>3d</fix>
</trkpt>
<trkpt lat="33.8103608" lon="-118.3945117">
  <ele>-0.106</ele>
  <time>2026-09-02T22:07:28Z</time>
  <course>9.74</course>
  <speed>1.7923448328934921</speed>
  <fix>3d</fix>
</trkpt>
<trkpt lat="33.8103608" lon="-118.3945119">
  <ele>-0.106</ele>
  <time>2026-09-02T22:07:28Z</time>
  <course>9.74</course>
  <speed>1.7923448328934921</speed>
  <fix>3d</fix>
</trkpt>
<trkpt lat="33.8103609" lon="-118.394512">
  <ele>-0.106</ele>
  <time>2026-09-02T22:07:28Z</time>
  <course>9.74</course>
  <speed>1.7923448328934921</speed>
  <fix>3d</fix>
</trkpt>
<trkpt lat="33.8103609" lon="-118.3945121">
  <ele>-0.106</ele>
  <time>2026-09-02T22:07:28Z</time>
  <course>9.74</course>
  <speed>1.7923448328934921</speed>
  <fix>3d</fix>
</trkpt>
<trkpt lat="33.8103609" lon="-118.3945123">
  <ele>-0.107</ele>
  <time>2026-09-02T22:07:28Z</time>
  <course>9.74</course>
  <speed>1.7923448328934921</speed>
  <fix>3d</fix>
</trkpt>
<trkpt lat="33.8103609" lon="-118.3945124">
  <ele>-0.106</ele>
  <time>2026-09-02T22:07:28Z</time>
  <course>9.74</course>
  <speed>1.7923448328934921</speed>
  <fix>3d</fix>
</trkpt>
<trkpt lat="33.8103609" lon="-118.3945126">
  <ele>-0.107</ele>
  <time>2026-09-02T22:07:28Z</time>
  <course>9.74</course>
  <speed>1.7923448328934921</speed>
  <fix>3d</fix>
</trkpt>
<trkpt lat="33.8103609" lon="-118.3945128">
  <ele>-0.107</ele>
  <time>2026-09-02T22:07:28Z</time>
  <course>9.74</course>
  <speed>1.7923448328934921</speed>
  <fix>3d</fix>
</trkpt>
<trkpt lat="33.810361" lon="-118.394513">
  <ele>-0.107</ele>
  <time>2026-09-02T22:07:28Z</time>
  <course>9.74</course>
  <speed>1.7923448328934921</speed>
  <fix>3d</fix>
</trkpt>
<trkpt lat="33.810361" lon="-118.3945131">
  <ele>-0.107</ele>
  <time>2026-09-02T22:07:28Z</time>
  <course>9.74</course>
  <speed>1.7923448328934921</speed>
  <fix>3d</fix>
</trkpt>
<trkpt lat="33.8103607" lon="-118.3945084">
  <ele>-0.1</ele>
  <time>2026-09-02T22:07:28Z</time>
  <course>277.58</course>
  <speed>1.82</speed>
  <fix>3d</fix>
</trkpt>
<trkpt lat="33.810361" lon="-118.3945131">
  <ele>-0.107</ele>
  <time>2026-09-02T22:07:28Z</time>
  <course>9.74</course>
  <speed>1.7923448328934921</speed>
  <fix>3d</fix>
</trkpt>
<trkpt lat="33.810361" lon="-118.3945134">
  <ele>-0.107</ele>
  <time>2026-09-02T22:07:28Z</time>
  <course>9.75</course>
  <speed>1.7923448328934921</speed>
  <fix>3d</fix>
</trkpt>
<trkpt lat="33.810361" lon="-118.3945136">
  <ele>-0.107</ele>
  <time>2026-09-02T22:07:28Z</time>
  <course>9.75</course>
  <speed>1.7923448328934921</speed>
  <fix>3d</fix>
</trkpt>
<trkpt lat="33.810361" lon="-118.3945138">
  <ele>-0.107</ele>
  <time>2026-09-02T22:07:28Z</time>
  <course>9.75</course>
  <speed>1.7923448328934921</speed>
  <fix>3d</fix>
</trkpt>
<trkpt lat="33.8103611" lon="-118.3945139">
  <ele>-0.107</ele>
  <time>2026-09-02T22:07:28Z</time>
  <course>9.75</course>
  <speed>1.7923448328934921</speed>
  <fix>3d</fix>
</trkpt>
<trkpt lat="33.8103611" lon="-118.3945141">
  <ele>-0.107</ele>
  <time>2026-09-02T22:07:28Z</time>
  <course>9.75</course>
  <speed>1.7923448328934921</speed>
  <fix>3d</fix>
</trkpt>
<trkpt lat="33.8103611" lon="-118.3945143">
  <ele>-0.107</ele>
  <time>2026-09-02T22:07:28Z</time>
  <course>9.75</course>
  <speed>1.7923448328934921</speed>
  <fix>3d</fix>
</trkpt>
<trkpt lat="33.8103611" lon="-118.3945145">
  <ele>-0.107</ele>
  <time>2026-09-02T22:07:28Z</time>
  <course>9.75</course>
  <speed>1.7923448328934921</speed>
  <fix>3d</fix>
</trkpt>
<trkpt lat="33.8103611" lon="-118.3945146">
  <ele>-0.107</ele>
  <time>2026-09-02T22:07:28Z</time>
  <course>9.75</course>
  <speed>1.7923448328934921</speed>
  <fix>3d</fix>
</trkpt>
<trkpt lat="33.8103612" lon="-118.3945148">
  <ele>-0.108</ele>
  <time>2026-09-02T22:07:28Z</time>
  <course>9.75</course>
  <speed>1.7923448328934921</speed>
  <fix>3d</fix>
</trkpt>
<trkpt lat="33.8103612" lon="-118.394515">
  <ele>-0.108</ele>
  <time>2026-09-02T22:07:28Z</time>
  <course>9.75</course>
  <speed>1.7923448328934921</speed>
  <fix>3d</fix>
</trkpt>
<trkpt lat="33.8103612" lon="-118.394515">
  <ele>-0.108</ele>
  <time>2026-09-02T22:07:28Z</time>
  <course>9.75</course>
  <speed>1.7923448328934921</speed>
  <fix>3d</fix>
</trkpt>
<trkpt lat="33.8103612" lon="-118.3945123">
  <ele>-0.1</ele>
  <time>2026-09-02T22:07:28Z</time>
  <course>277.6</course>
  <speed>1.82</speed>
  <fix>3d</fix>
</trkpt>
<trkpt lat="33.8103612" lon="-118.3945151">
  <ele>-0.108</ele>
  <time>2026-09-02T22:07:28Z</time>
  <course>9.75</course>
  <speed>1.7923448328934921</speed>
  <fix>3d</fix>
</trkpt>
<trkpt lat="33.8103612" lon="-118.3945154">
  <ele>-0.108</ele>
  <time>2026-09-02T22:07:28Z</time>
  <course>9.75</course>
  <speed>1.7923448328934921</speed>
  <fix>3d</fix>
</trkpt>
<trkpt lat="33.8103612" lon="-118.3945155">
  <ele>-0.108</ele>
  <time>2026-09-02T22:07:28Z</time>
  <course>9.75</course>
  <speed>1.7923448328934921</speed>
  <fix>3d</fix>
</trkpt>
<trkpt lat="33.8103613" lon="-118.3945157">
  <ele>-0.108</ele>
  <time>2026-09-02T22:07:28Z</time>
  <course>9.75</course>
  <speed>1.7923448328934921</speed>
  <fix>3d</fix>
</trkpt>
<trkpt lat="33.8103613" lon="-118.3945159">
  <ele>-0.108</ele>
  <time>2026-09-02T22:07:28Z</time>
  <course>9.75</course>
  <speed>1.7923448328934921</speed>
  <fix>3d</fix>
</trkpt>
<trkpt lat="33.8103613" lon="-118.3945161">
  <ele>-0.108</ele>
  <time>2026-09-02T22:07:28Z</time>
  <course>9.75</course>
  <speed>1.7923448328934921</speed>
  <fix>3d</fix>
</trkpt>
<trkpt lat="33.8103613" lon="-118.3945162">
  <ele>-0.108</ele>
  <time>2026-09-02T22:07:28Z</time>
  <course>9.76</course>
  <speed>1.7923448328934921</speed>
  <fix>3d</fix>
</trkpt>
<trkpt lat="33.8103613" lon="-118.3945163">
  <ele>-0.108</ele>
  <time>2026-09-02T22:07:28Z</time>
  <course>9.76</course>
  <speed>1.7923448328934921</speed>
  <fix>3d</fix>
</trkpt>
<trkpt lat="33.8103614" lon="-118.3945165">
  <ele>-0.108</ele>
  <time>2026-09-02T22:07:28Z</time>
  <course>9.76</course>
  <speed>1.7923448328934921</speed>
  <fix>3d</fix>
</trkpt>
<trkpt lat="33.8103614" lon="-118.3945167">
  <ele>-0.108</ele>
  <time>2026-09-02T22:07:28Z</time>
  <course>9.76</course>
  <speed>1.7923448328934921</speed>
  <fix>3d</fix>
</trkpt>
<trkpt lat="33.8103614" lon="-118.3945169">
  <ele>-0.108</ele>
  <time>2026-09-02T22:07:28Z</time>
  <course>9.76</course>
  <speed>1.7923448328934921</speed>
  <fix>3d</fix>
</trkpt>
<trkpt lat="33.8103614" lon="-118.394517">
  <ele>-0.108</ele>
  <time>2026-09-02T22:07:28Z</time>
  <course>9.76</course>
  <speed>1.7923448328934921</speed>
  <fix>3d</fix>
</trkpt>
<trkpt lat="33.8103612" lon="-118.3945123">
  <ele>-0.1</ele>
  <time>2026-09-02T22:07:28Z</time>
  <course>277.6</course>
  <speed>1.82</speed>
  <fix>3d</fix>
</trkpt>
<trkpt lat="33.8103614" lon="-118.394517">
  <ele>-0.108</ele>
  <time>2026-09-02T22:07:28Z</time>
  <course>9.76</course>
  <speed>1.7923448328934921</speed>
  <fix>3d</fix>
</trkpt>
<trkpt lat="33.8103614" lon="-118.3945173">
  <ele>-0.108</ele>
  <time>2026-09-02T22:07:28Z</time>
  <course>9.76</course>
  <speed>1.7923448328934921</speed>
  <fix>3d</fix>
</trkpt>
<trkpt lat="33.8103615" lon="-118.3945175">
  <ele>-0.108</ele>
  <time>2026-09-02T22:07:28Z</time>
  <course>9.76</course>
  <speed>1.7923448328934921</speed>
  <fix>3d</fix>
</trkpt>
<trkpt lat="33.8103615" lon="-118.3945176">
  <ele>-0.108</ele>
  <time>2026-09-02T22:07:28Z</time>
  <course>9.76</course>
  <speed>1.7923448328934921</speed>
  <fix>3d</fix>
</trkpt>
<trkpt lat="33.8103615" lon="-118.3945178">
  <ele>-0.108</ele>
  <time>2026-09-02T22:07:28Z</time>
  <course>9.76</course>
  <speed>1.7923448328934921</speed>
  <fix>3d</fix>
</trkpt>
<trkpt lat="33.8103615" lon="-118.3945179">
  <ele>-0.107</ele>
  <time>2026-09-02T22:07:28Z</time>
  <course>9.76</course>
  <speed>1.7923448328934921</speed>
  <fix>3d</fix>
</trkpt>
<trkpt lat="33.8103615" lon="-118.3945181">
  <ele>-0.107</ele>
  <time>2026-09-02T22:07:28Z</time>
  <course>9.76</course>
  <speed>1.7923448328934921</speed>
  <fix>3d</fix>
</trkpt>
<trkpt lat="33.8103615" lon="-118.3945182">
  <ele>-0.107</ele>
  <time>2026-09-02T22:07:28Z</time>
  <course>9.76</course>
  <speed>1.7923448328934921</speed>
  <fix>3d</fix>
</trkpt>
<trkpt lat="33.8103616" lon="-118.3945184">
  <ele>-0.107</ele>
  <time>2026-09-02T22:07:28Z</time>
  <course>9.76</course>
  <speed>1.7923448328934921</speed>
  <fix>3d</fix>
</trkpt>
<trkpt lat="33.8103616" lon="-118.3945186">
  <ele>-0.107</ele>
  <time>2026-09-02T22:07:28Z</time>
  <course>9.76</course>
  <speed>1.7923448328934921</speed>
  <fix>3d</fix>
</trkpt>
<trkpt lat="33.8103616" lon="-118.3945188">
  <ele>-0.107</ele>
  <time>2026-09-02T22:07:28Z</time>
  <course>9.76</course>
  <speed>1.7923448328934921</speed>
  <fix>3d</fix>
</trkpt>
<trkpt lat="33.8103616" lon="-118.3945189">
  <ele>-0.107</ele>
  <time>2026-09-02T22:07:28Z</time>
  <course>9.76</course>
  <speed>1.7923448328934921</speed>
  <fix>3d</fix>
</trkpt>
<trkpt lat="33.8103616" lon="-118.3945189">
  <ele>-0.107</ele>
  <time>2026-09-02T22:07:28Z</time>
  <course>9.76</course>
  <speed>1.7923448328934921</speed>
  <fix>3d</fix>
</trkpt>
<trkpt lat="33.8103615" lon="-118.3945162">
  <ele>-0.1</ele>
  <time>2026-09-02T22:07:28Z</time>
  <course>277.61</course>
  <speed>1.82</speed>
  <fix>3d</fix>
</trkpt>
<trkpt lat="33.8103617" lon="-118.3945193">
  <ele>-0.107</ele>
  <time>2026-09-02T22:07:28Z</time>
  <course>9.76</course>
  <speed>1.7923448328934921</speed>
  <fix>3d</fix>
</trkpt>
<trkpt lat="33.8103617" lon="-118.3945195">
  <ele>-0.107</ele>
  <time>2026-09-02T22:07:28Z</time>
  <course>9.77</course>
  <speed>1.7923448328934921</speed>
  <fix>3d</fix>
</trkpt>
<trkpt lat="33.8103617" lon="-118.3945197">
  <ele>-0.106</ele>
  <time>2026-09-02T22:07:28Z</time>
  <course>9.77</course>
  <speed>1.7923448328934921</speed>
  <fix>3d</fix>
</trkpt>
<trkpt lat="33.8103617" lon="-118.3945199">
  <ele>-0.106</ele>
  <time>2026-09-02T22:07:28Z</time>
  <course>9.77</course>
  <speed>1.7923448328934921</speed>
  <fix>3d</fix>
</trkpt>
<trkpt lat="33.8103617" lon="-118.3945201">
  <ele>-0.106</ele>
  <time>2026-09-02T22:07:28Z</time>
  <course>9.77</course>
  <speed>1.7923448328934921</speed>
  <fix>3d</fix>
</trkpt>
<trkpt lat="33.8103618" lon="-118.3945202">
  <ele>-0.106</ele>
  <time>2026-09-02T22:07:28Z</time>
  <course>9.77</course>
  <speed>1.7923448328934921</speed>
  <fix>3d</fix>
</trkpt>
<trkpt lat="33.8103618" lon="-118.3945204">
  <ele>-0.106</ele>
  <time>2026-09-02T22:07:28Z</time>
  <course>9.77</course>
  <speed>1.7923448328934921</speed>
  <fix>3d</fix>
</trkpt>
<trkpt lat="33.8103618" lon="-118.3945205">
  <ele>-0.106</ele>
  <time>2026-09-02T22:07:28Z</time>
  <course>9.77</course>
  <speed>1.7923448328934921</speed>
  <fix>3d</fix>
</trkpt>
<trkpt lat="33.8103618" lon="-118.3945207">
  <ele>-0.106</ele>
  <time>2026-09-02T22:07:28Z</time>
  <course>9.77</course>
  <speed>1.7923448328934921</speed>
  <fix>3d</fix>
</trkpt>
<trkpt lat="33.8103618" lon="-118.3945208">
  <ele>-0.106</ele>
  <time>2026-09-02T22:07:28Z</time>
  <course>9.77</course>
  <speed>1.7923448328934921</speed>
  <fix>3d</fix>
</trkpt>
<trkpt lat="33.8103618" lon="-118.3945209">
  <ele>-0.106</ele>
  <time>2026-09-02T22:07:28Z</time>
  <course>9.77</course>
  <speed>1.7923448328934921</speed>
  <fix>3d</fix>
</trkpt>
<trkpt lat="33.8103615" lon="-118.3945162">
  <ele>-0.1</ele>
  <time>2026-09-02T22:07:28Z</time>
  <course>277.61</course>
  <speed>1.82</speed>
  <fix>3d</fix>
</trkpt>
<trkpt lat="33.8103618" lon="-118.3945209">
  <ele>-0.106</ele>
  <time>2026-09-02T22:07:28Z</time>
  <course>9.77</course>
  <speed>1.7923448328934921</speed>
  <fix>3d</fix>
</trkpt>
<trkpt lat="33.8103619" lon="-118.3945212">
  <ele>-0.106</ele>
  <time>2026-09-02T22:07:28Z</time>
  <course>9.77</course>
  <speed>1.7923448328934921</speed>
  <fix>3d</fix>
</trkpt>
<trkpt lat="33.8103619" lon="-118.3945214">
  <ele>-0.105</ele>
  <time>2026-09-02T22:07:28Z</time>
  <course>9.77</course>
  <speed>1.7923448328934921</speed>
  <fix>3d</fix>
</trkpt>
<trkpt lat="33.8103619" lon="-118.3945216">
  <ele>-0.105</ele>
  <time>2026-09-02T22:07:28Z</time>
  <course>9.77</course>
  <speed>1.7923448328934921</speed>
  <fix>3d</fix>
</trkpt>
<trkpt lat="33.8103619" lon="-118.3945217">
  <ele>-0.105</ele>
  <time>2026-09-02T22:07:28Z</time>
  <course>9.77</course>
  <speed>1.7923448328934921</speed>
  <fix>3d</fix>
</trkpt>
<trkpt lat="33.810362" lon="-118.3945219">
  <ele>-0.105</ele>
  <time>2026-09-02T22:07:28Z</time>
  <course>9.77</course>
  <speed>1.7923448328934921</speed>
  <fix>3d</fix>
</trkpt>
<trkpt lat="33.810362" lon="-118.3945221">
  <ele>-0.105</ele>
  <time>2026-09-02T22:07:28Z</time>
  <course>9.77</course>
  <speed>1.7923448328934921</speed>
  <fix>3d</fix>
</trkpt>
<trkpt lat="33.810362" lon="-118.3945222">
  <ele>-0.105</ele>
  <time>2026-09-02T22:07:28Z</time>
  <course>9.77</course>
  <speed>1.7923448328934921</speed>
  <fix>3d</fix>
</trkpt>
<trkpt lat="33.810362" lon="-118.3945224">
  <ele>-0.105</ele>
  <time>2026-09-02T22:07:28Z</time>
  <course>9.77</course>
  <speed>1.7923448328934921</speed>
  <fix>3d</fix>
</trkpt>
<trkpt lat="33.810362" lon="-118.3945226">
  <ele>-0.105</ele>
  <time>2026-09-02T22:07:28Z</time>
  <course>9.78</course>
  <speed>1.7923448328934921</speed>
  <fix>3d</fix>
</trkpt>
<trkpt lat="33.810362" lon="-118.3945228">
  <ele>-0.105</ele>
  <time>2026-09-02T22:07:28Z</time>
  <course>9.78</course>
  <speed>1.7923448328934921</speed>
  <fix>3d</fix>
</trkpt>
<trkpt lat="33.8103621" lon="-118.3945229">
  <ele>-0.104</ele>
  <time>2026-09-02T22:07:28Z</time>
  <course>9.78</course>
  <speed>1.7923448328934921</speed>
  <fix>3d</fix>
</trkpt>
<trkpt lat="33.810362" lon="-118.3945202">
  <ele>-0.1</ele>
  <time>2026-09-02T22:07:28Z</time>
  <course>277.63</course>
  <speed>1.82</speed>
  <fix>3d</fix>
</trkpt>
<trkpt lat="33.8103621" lon="-118.3945229">
  <ele>-0.104</ele>
  <time>2026-09-02T22:07:28Z</time>
  <course>9.78</course>
  <speed>1.7923448328934921</speed>
  <fix>3d</fix>
</trkpt>
<trkpt lat="33.8103621" lon="-118.3945232">
  <ele>-0.104</ele>
  <time>2026-09-02T22:07:28Z</time>
  <course>9.78</course>
  <speed>1.7923448328934921</speed>
  <fix>3d</fix>
</trkpt>
<trkpt lat="33.8103621" lon="-118.3945233">
  <ele>-0.104</ele>
  <time>2026-09-02T22:07:28Z</time>
  <course>9.78</course>
  <speed>1.7923448328934921</speed>
  <fix>3d</fix>
</trkpt>
<trkpt lat="33.8103621" lon="-118.3945235">
  <ele>-0.104</ele>
  <time>2026-09-02T22:07:28Z</time>
  <course>9.78</course>
  <speed>1.7923448328934921</speed>
  <fix>3d</fix>
</trkpt>
<trkpt lat="33.8103622" lon="-118.3945237">
  <ele>-0.104</ele>
  <time>2026-09-02T22:07:28Z</time>
  <course>9.78</course>
  <speed>1.7923448328934921</speed>
  <fix>3d</fix>
</trkpt>
<trkpt lat="33.8103622" lon="-118.3945239">
  <ele>-0.104</ele>
  <time>2026-09-02T22:07:28Z</time>
  <course>9.78</course>
  <speed>1.7923448328934921</speed>
  <fix>3d</fix>
</trkpt>
<trkpt lat="33.8103622" lon="-118.3945241">
  <ele>-0.104</ele>
  <time>2026-09-02T22:07:28Z</time>
  <course>9.78</course>
  <speed>1.7923448328934921</speed>
  <fix>3d</fix>
</trkpt>
<trkpt lat="33.8103622" lon="-118.3945243">
  <ele>-0.103</ele>
  <time>2026-09-02T22:07:28Z</time>
  <course>9.78</course>
  <speed>1.7923448328934921</speed>
  <fix>3d</fix>
</trkpt>
<trkpt lat="33.8103622" lon="-118.3945244">
  <ele>-0.103</ele>
  <time>2026-09-02T22:07:28Z</time>
  <course>9.78</course>
  <speed>1.7923448328934921</speed>
  <fix>3d</fix>
</trkpt>
<trkpt lat="33.8103622" lon="-118.3945246">
  <ele>-0.103</ele>
  <time>2026-09-02T22:07:28Z</time>
  <course>9.78</course>
  <speed>1.7923448328934921</speed>
  <fix>3d</fix>
</trkpt>
<trkpt lat="33.8103623" lon="-118.3945247">
  <ele>-0.103</ele>
  <time>2026-09-02T22:07:28Z</time>
  <course>9.78</course>
  <speed>1.7923448328934921</speed>
  <fix>3d</fix>
</trkpt>
<trkpt lat="33.8103623" lon="-118.3945248">
  <ele>-0.103</ele>
  <time>2026-09-02T22:07:28Z</time>
  <course>9.78</course>
  <speed>1.7923448328934921</speed>
  <fix>3d</fix>
</trkpt>
<trkpt lat="33.810362" lon="-118.3945202">
  <ele>-0.1</ele>
  <time>2026-09-02T22:07:28Z</time>
  <course>277.63</course>
  <speed>1.82</speed>
  <fix>3d</fix>
</trkpt>
<trkpt lat="33.8103623" lon="-118.3945249">
  <ele>-0.103</ele>
  <time>2026-09-02T22:07:28Z</time>
  <course>9.78</course>
  <speed>1.7923448328934921</speed>
  <fix>3d</fix>
</trkpt>
<trkpt lat="33.8103623" lon="-118.3945251">
  <ele>-0.103</ele>
  <time>2026-09-02T22:07:28Z</time>
  <course>9.78</course>
  <speed>1.7923448328934921</speed>
  <fix>3d</fix>
</trkpt>
<trkpt lat="33.8103623" lon="-118.3945253">
  <ele>-0.103</ele>
  <time>2026-09-02T22:07:28Z</time>
  <course>9.78</course>
  <speed>1.7923448328934921</speed>
  <fix>3d</fix>
</trkpt>
<trkpt lat="33.8103623" lon="-118.3945255">
  <ele>-0.103</ele>
  <time>2026-09-02T22:07:28Z</time>
  <course>9.79</course>
  <speed>1.7923448328934921</speed>
  <fix>3d</fix>
</trkpt>
<trkpt lat="33.8103624" lon="-118.3945256">
  <ele>-0.103</ele>
  <time>2026-09-02T22:07:28Z</time>
  <course>9.79</course>
  <speed>1.7923448328934921</speed>
  <fix>3d</fix>
</trkpt>
<trkpt lat="33.8103624" lon="-118.3945258">
  <ele>-0.103</ele>
  <time>2026-09-02T22:07:28Z</time>
  <course>9.79</course>
  <speed>1.7923448328934921</speed>
  <fix>3d</fix>
</trkpt>
<trkpt lat="33.8103624" lon="-118.394526">
  <ele>-0.103</ele>
  <time>2026-09-02T22:07:28Z</time>
  <course>9.79</course>
  <speed>1.7923448328934921</speed>
  <fix>3d</fix>
</trkpt>
<trkpt lat="33.8103624" lon="-118.3945261">
  <ele>-0.103</ele>
  <time>2026-09-02T22:07:28Z</time>
  <course>9.79</course>
  <speed>1.7923448328934921</speed>
  <fix>3d</fix>
</trkpt>
<trkpt lat="33.8103624" lon="-118.3945263">
  <ele>-0.103</ele>
  <time>2026-09-02T22:07:28Z</time>
  <course>9.79</course>
  <speed>1.7923448328934921</speed>
  <fix>3d</fix>
</trkpt>
<trkpt lat="33.8103625" lon="-118.3945265">
  <ele>-0.103</ele>
  <time>2026-09-02T22:07:28Z</time>
  <course>9.79</course>
  <speed>1.7923448328934921</speed>
  <fix>3d</fix>
</trkpt>
<trkpt lat="33.8103625" lon="-118.3945267">
  <ele>-0.103</ele>
  <time>2026-09-02T22:07:28Z</time>
  <course>9.79</course>
  <speed>1.7923448328934921</speed>
  <fix>3d</fix>
</trkpt>
<trkpt lat="33.8103625" lon="-118.3945268">
  <ele>-0.103</ele>
  <time>2026-09-02T22:07:28Z</time>
  <course>9.79</course>
  <speed>1.7923448328934921</speed>
  <fix>3d</fix>
</trkpt>
<trkpt lat="33.8103624" lon="-118.3945241">
  <ele>-0.1</ele>
  <time>2026-09-02T22:07:28Z</time>
  <course>277.64</course>
  <speed>1.82</speed>
  <fix>3d</fix>
</trkpt>
<trkpt lat="33.8103625" lon="-118.3945268">
  <ele>-0.103</ele>
  <time>2026-09-02T22:07:28Z</time>
  <course>9.79</course>
  <speed>1.7923448328934921</speed>
  <fix>3d</fix>
</trkpt>
<trkpt lat="33.8103625" lon="-118.394527">
  <ele>-0.103</ele>
  <time>2026-09-02T22:07:28Z</time>
  <course>9.79</course>
  <speed>1.7923448328934921</speed>
  <fix>3d</fix>
</trkpt>
<trkpt lat="33.8103625" lon="-118.3945272">
  <ele>-0.103</ele>
  <time>2026-09-02T22:07:28Z</time>
  <course>9.79</course>
  <speed>1.7923448328934921</speed>
  <fix>3d</fix>
</trkpt>
<trkpt lat="33.8103626" lon="-118.3945274">
  <ele>-0.103</ele>
  <time>2026-09-02T22:07:28Z</time>
  <course>9.79</course>
  <speed>1.7923448328934921</speed>
  <fix>3d</fix>
</trkpt>
<trkpt lat="33.8103626" lon="-118.3945276">
  <ele>-0.103</ele>
  <time>2026-09-02T22:07:28Z</time>
  <course>9.79</course>
  <speed>1.7923448328934921</speed>
  <fix>3d</fix>
</trkpt>
<trkpt lat="33.8103626" lon="-118.3945277">
  <ele>-0.103</ele>
  <time>2026-09-02T22:07:28Z</time>
  <course>9.79</course>
  <speed>1.7923448328934921</speed>
  <fix>3d</fix>
</trkpt>
<trkpt lat="33.8103626" lon="-118.3945279">
  <ele>-0.103</ele>
  <time>2026-09-02T22:07:28Z</time>
  <course>9.79</course>
  <speed>1.7923448328934921</speed>
  <fix>3d</fix>
</trkpt>
<trkpt lat="33.8103626" lon="-118.394528">
  <ele>-0.103</ele>
  <time>2026-09-02T22:07:28Z</time>
  <course>9.79</course>
  <speed>1.7923448328934921</speed>
  <fix>3d</fix>
</trkpt>
<trkpt lat="33.8103627" lon="-118.3945282">
  <ele>-0.102</ele>
  <time>2026-09-02T22:07:28Z</time>
  <course>9.79</course>
  <speed>1.7923448328934921</speed>
  <fix>3d</fix>
</trkpt>
<trkpt lat="33.8103627" lon="-118.3945284">
  <ele>-0.102</ele>
  <time>2026-09-02T22:07:28Z</time>
  <course>9.79</course>
  <speed>1.7923448328934921</speed>
  <fix>3d</fix>
</trkpt>
<trkpt lat="33.8103627" lon="-118.3945286">
  <ele>-0.102</ele>
  <time>2026-09-02T22:07:28Z</time>
  <course>9.79</course>
  <speed>1.7923448328934921</speed>
  <fix>3d</fix>
</trkpt>
<trkpt lat="33.8103627" lon="-118.3945287">
  <ele>-0.102</ele>
  <time>2026-09-02T22:07:28Z</time>
  <course>9.8</course>
  <speed>1.7923448328934921</speed>
  <fix>3d</fix>
</trkpt>
<trkpt lat="33.8103624" lon="-118.3945241">
  <ele>-0.1</ele>
  <time>2026-09-02T22:07:28Z</time>
  <course>277.64</course>
  <speed>1.82</speed>
  <fix>3d</fix>
</trkpt>
<trkpt lat="33.8103627" lon="-118.3945288">
  <ele>-0.102</ele>
  <time>2026-09-02T22:07:28Z</time>
  <course>9.8</course>
  <speed>1.7923448328934921</speed>
  <fix>3d</fix>
</trkpt>
<trkpt lat="33.8103627" lon="-118.394529">
  <ele>-0.102</ele>
  <time>2026-09-02T22:07:28Z</time>
  <course>9.8</course>
  <speed>1.7923448328934921</speed>
  <fix>3d</fix>
</trkpt>
<trkpt lat="33.8103628" lon="-118.3945292">
  <ele>-0.102</ele>
  <time>2026-09-02T22:07:28Z</time>
  <course>9.8</course>
  <speed>1.7923448328934921</speed>
  <fix>3d</fix>
</trkpt>
<trkpt lat="33.8103628" lon="-118.3945294">
  <ele>-0.102</ele>
  <time>2026-09-02T22:07:28Z</time>
  <course>9.8</course>
  <speed>1.7923448328934921</speed>
  <fix>3d</fix>
</trkpt>
<trkpt lat="33.8103628" lon="-118.3945295">
  <ele>-0.102</ele>
  <time>2026-09-02T22:07:28Z</time>
  <course>9.8</course>
  <speed>1.7923448328934921</speed>
  <fix>3d</fix>
</trkpt>
<trkpt lat="33.8103628" lon="-118.3945297">
  <ele>-0.102</ele>
  <time>2026-09-02T22:07:28Z</time>
  <course>9.8</course>
  <speed>1.7923448328934921</speed>
  <fix>3d</fix>
</trkpt>
<trkpt lat="33.8103628" lon="-118.3945298">
  <ele>-0.102</ele>
  <time>2026-09-02T22:07:28Z</time>
  <course>9.8</course>
  <speed>1.7923448328934921</speed>
  <fix>3d</fix>
</trkpt>
<trkpt lat="33.8103629" lon="-118.39453">
  <ele>-0.102</ele>
  <time>2026-09-02T22:07:28Z</time>
  <course>9.8</course>
  <speed>1.7923448328934921</speed>
  <fix>3d</fix>
</trkpt>
<trkpt lat="33.8103629" lon="-118.3945302">
  <ele>-0.102</ele>
  <time>2026-09-02T22:07:28Z</time>
  <course>9.8</course>
  <speed>1.7923448328934921</speed>
  <fix>3d</fix>
</trkpt>
<trkpt lat="33.8103629" lon="-118.3945303">
  <ele>-0.102</ele>
  <time>2026-09-02T22:07:28Z</time>
  <course>9.8</course>
  <speed>1.7923448328934921</speed>
  <fix>3d</fix>
</trkpt>
<trkpt lat="33.8103629" lon="-118.3945305">
  <ele>-0.102</ele>
  <time>2026-09-02T22:07:28Z</time>
  <course>9.8</course>
  <speed>1.7923448328934921</speed>
  <fix>3d</fix>
</trkpt>
<trkpt lat="33.8103629" lon="-118.3945307">
  <ele>-0.102</ele>
  <time>2026-09-02T22:07:28Z</time>
  <course>9.8</course>
  <speed>1.7923448328934921</speed>
  <fix>3d</fix>
</trkpt>
<trkpt lat="33.8103629" lon="-118.394528">
  <ele>-0.1</ele>
  <time>2026-09-02T22:07:28Z</time>
  <course>277.66</course>
  <speed>1.82</speed>
  <fix>3d</fix>
</trkpt>
<trkpt lat="33.8103629" lon="-118.3945307">
  <ele>-0.102</ele>
  <time>2026-09-02T22:07:28Z</time>
  <course>9.8</course>
  <speed>1.7923448328934921</speed>
  <fix>3d</fix>
</trkpt>
<trkpt lat="33.810363" lon="-118.394531">
  <ele>-0.102</ele>
  <time>2026-09-02T22:07:28Z</time>
  <course>9.8</course>
  <speed>1.7923448328934921</speed>
  <fix>3d</fix>
</trkpt>
<trkpt lat="33.810363" lon="-118.3945312">
  <ele>-0.102</ele>
  <time>2026-09-02T22:07:28Z</time>
  <course>9.8</course>
  <speed>1.7923448328934921</speed>
  <fix>3d</fix>
</trkpt>
<trkpt lat="33.810363" lon="-118.3945314">
  <ele>-0.102</ele>
  <time>2026-09-02T22:07:28Z</time>
  <course>9.8</course>
  <speed>1.7923448328934921</speed>
  <fix>3d</fix>
</trkpt>
<trkpt lat="33.810363" lon="-118.3945315">
  <ele>-0.102</ele>
  <time>2026-09-02T22:07:28Z</time>
  <course>9.8</course>
  <speed>1.7923448328934921</speed>
  <fix>3d</fix>
</trkpt>
<trkpt lat="33.810363" lon="-118.3945317">
  <ele>-0.102</ele>
  <time>2026-09-02T22:07:28Z</time>
  <course>9.8</course>
  <speed>1.7923448328934921</speed>
  <fix>3d</fix>
</trkpt>
<trkpt lat="33.8103631" lon="-118.3945318">
  <ele>-0.102</ele>
  <time>2026-09-02T22:07:28Z</time>
  <course>9.81</course>
  <speed>1.7923448328934921</speed>
  <fix>3d</fix>
</trkpt>
<trkpt lat="33.8103631" lon="-118.394532">
  <ele>-0.102</ele>
  <time>2026-09-02T22:07:28Z</time>
  <course>9.81</course>
  <speed>1.7923448328934921</speed>
  <fix>3d</fix>
</trkpt>
<trkpt lat="33.8103631" lon="-118.3945321">
  <ele>-0.102</ele>
  <time>2026-09-02T22:07:28Z</time>
  <course>9.81</course>
  <speed>1.7923448328934921</speed>
  <fix>3d</fix>
</trkpt>
<trkpt lat="33.8103631" lon="-118.3945322">
  <ele>-0.102</ele>
  <time>2026-09-02T22:07:28Z</time>
  <course>9.81</course>
  <speed>1.7923448328934921</speed>
  <fix>3d</fix>
</trkpt>
<trkpt lat="33.8103631" lon="-118.3945324">
  <ele>-0.102</ele>
  <time>2026-09-02T22:07:28Z</time>
  <course>9.81</course>
  <speed>1.7923448328934921</speed>
  <fix>3d</fix>
</trkpt>
<trkpt lat="33.8103631" lon="-118.3945326">
  <ele>-0.102</ele>
  <time>2026-09-02T22:07:28Z</time>
  <course>9.81</course>
  <speed>1.7923448328934921</speed>
  <fix>3d</fix>
</trkpt>
<trkpt lat="33.8103631" lon="-118.3945326">
  <ele>-0.102</ele>
  <time>2026-09-02T22:07:28Z</time>
  <course>9.81</course>
  <speed>1.7923448328934921</speed>
  <fix>3d</fix>
</trkpt>
<trkpt lat="33.8103629" lon="-118.394528">
  <ele>-0.1</ele>
  <time>2026-09-02T22:07:28Z</time>
  <course>277.66</course>
  <speed>1.82</speed>
  <fix>3d</fix>
</trkpt>
<trkpt lat="33.8103631" lon="-118.3945327">
  <ele>-0.102</ele>
  <time>2026-09-02T22:07:28Z</time>
  <course>9.81</course>
  <speed>1.7923448328934921</speed>
  <fix>3d</fix>
</trkpt>
<trkpt lat="33.8103632" lon="-118.394533">
  <ele>-0.102</ele>
  <time>2026-09-02T22:07:28Z</time>
  <course>9.81</course>
  <speed>1.7923448328934921</speed>
  <fix>3d</fix>
</trkpt>
<trkpt lat="33.8103632" lon="-118.3945332">
  <ele>-0.102</ele>
  <time>2026-09-02T22:07:28Z</time>
  <course>9.81</course>
  <speed>1.7923448328934921</speed>
  <fix>3d</fix>
</trkpt>
<trkpt lat="33.8103632" lon="-118.3945334">
  <ele>-0.102</ele>
  <time>2026-09-02T22:07:28Z</time>
  <course>9.81</course>
  <speed>1.7923448328934921</speed>
  <fix>3d</fix>
</trkpt>
<trkpt lat="33.8103632" lon="-118.3945335">
  <ele>-0.102</ele>
  <time>2026-09-02T22:07:28Z</time>
  <course>9.81</course>
  <speed>1.7923448328934921</speed>
  <fix>3d</fix>
</trkpt>
<trkpt lat="33.8103633" lon="-118.3945337">
  <ele>-0.102</ele>
  <time>2026-09-02T22:07:28Z</time>
  <course>9.81</course>
  <speed>1.7923448328934921</speed>
  <fix>3d</fix>
</trkpt>
<trkpt lat="33.8103633" lon="-118.3945338">
  <ele>-0.103</ele>
  <time>2026-09-02T22:07:28Z</time>
  <course>9.81</course>
  <speed>1.7923448328934921</speed>
  <fix>3d</fix>
</trkpt>
<trkpt lat="33.8103633" lon="-118.394534">
  <ele>-0.103</ele>
  <time>2026-09-02T22:07:28Z</time>
  <course>9.81</course>
  <speed>1.7923448328934921</speed>
  <fix>3d</fix>
</trkpt>
<trkpt lat="33.8103633" lon="-118.3945341">
  <ele>-0.103</ele>
  <time>2026-09-02T22:07:28Z</time>
  <course>9.81</course>
  <speed>1.7923448328934921</speed>
  <fix>3d</fix>
</trkpt>
<trkpt lat="33.8103633" lon="-118.3945343">
  <ele>-0.103</ele>
  <time>2026-09-02T22:07:28Z</time>
  <course>9.81</course>
  <speed>1.7923448328934921</speed>
  <fix>3d</fix>
</trkpt>
<trkpt lat="33.8103633" lon="-118.3945344">
  <ele>-0.103</ele>
  <time>2026-09-02T22:07:28Z</time>
  <course>9.81</course>
  <speed>1.7923448328934921</speed>
  <fix>3d</fix>
</trkpt>
<trkpt lat="33.8103634" lon="-118.3945346">
  <ele>-0.103</ele>
  <time>2026-09-02T22:07:28Z</time>
  <course>9.81</course>
  <speed>1.7923448328934921</speed>
  <fix>3d</fix>
</trkpt>
<trkpt lat="33.8103634" lon="-118.3945346">
  <ele>-0.103</ele>
  <time>2026-09-02T22:07:28Z</time>
  <course>9.81</course>
  <speed>1.7923448328934921</speed>
  <fix>3d</fix>
</trkpt>
<trkpt lat="33.8103633" lon="-118.3945319">
  <ele>-0.1</ele>
  <time>2026-09-02T22:07:28Z</time>
  <course>277.67</course>
  <speed>1.82</speed>
  <fix>3d</fix>
</trkpt>
<trkpt lat="33.8103634" lon="-118.3945347">
  <ele>-0.103</ele>
  <time>2026-09-02T22:07:28Z</time>
  <course>9.81</course>
  <speed>1.7923448328934921</speed>
  <fix>3d</fix>
</trkpt>
<trkpt lat="33.8103634" lon="-118.394535">
  <ele>-0.103</ele>
  <time>2026-09-02T22:07:28Z</time>
  <course>9.82</course>
  <speed>1.7923448328934921</speed>
  <fix>3d</fix>
</trkpt>
<trkpt lat="33.8103634" lon="-118.3945351">
  <ele>-0.103</ele>
  <time>2026-09-02T22:07:28Z</time>
  <course>9.82</course>
  <speed>1.7923448328934921</speed>
  <fix>3d</fix>
</trkpt>
<trkpt lat="33.8103634" lon="-118.3945352">
  <ele>-0.103</ele>
  <time>2026-09-02T22:07:28Z</time>
  <course>9.82</course>
  <speed>1.7923448328934921</speed>
  <fix>3d</fix>
</trkpt>
<trkpt lat="33.8103635" lon="-118.3945354">
  <ele>-0.103</ele>
  <time>2026-09-02T22:07:28Z</time>
  <course>9.82</course>
  <speed>1.7923448328934921</speed>
  <fix>3d</fix>
</trkpt>
<trkpt lat="33.8103635" lon="-118.3945356">
  <ele>-0.103</ele>
  <time>2026-09-02T22:07:28Z</time>
  <course>9.82</course>
  <speed>1.7923448328934921</speed>
  <fix>3d</fix>
</trkpt>
<trkpt lat="33.8103635" lon="-118.3945358">
  <ele>-0.103</ele>
  <time>2026-09-02T22:07:28Z</time>
  <course>9.82</course>
  <speed>1.7923448328934921</speed>
  <fix>3d</fix>
</trkpt>
<trkpt lat="33.8103635" lon="-118.394536">
  <ele>-0.104</ele>
  <time>2026-09-02T22:07:28Z</time>
  <course>9.82</course>
  <speed>1.7923448328934921</speed>
  <fix>3d</fix>
</trkpt>
<trkpt lat="33.8103635" lon="-118.3945362">
  <ele>-0.103</ele>
  <time>2026-09-02T22:07:28Z</time>
  <course>9.82</course>
  <speed>1.7923448328934921</speed>
  <fix>3d</fix>
</trkpt>
<trkpt lat="33.8103636" lon="-118.3945364">
  <ele>-0.104</ele>
  <time>2026-09-02T22:07:28Z</time>
  <course>9.82</course>
  <speed>1.7923448328934921</speed>
  <fix>3d</fix>
</trkpt>
<trkpt lat="33.8103636" lon="-118.3945365">
  <ele>-0.104</ele>
  <time>2026-09-02T22:07:28Z</time>
  <course>9.82</course>
  <speed>1.7923448328934921</speed>
  <fix>3d</fix>
</trkpt>
<trkpt lat="33.8103636" lon="-118.3945366">
  <ele>-0.104</ele>
  <time>2026-09-02T22:07:28Z</time>
  <course>9.82</course>
  <speed>1.7923448328934921</speed>
  <fix>3d</fix>
</trkpt>
<trkpt lat="33.8103633" lon="-118.3945319">
  <ele>-0.1</ele>
  <time>2026-09-02T22:07:28Z</time>
  <course>277.67</course>
  <speed>1.82</speed>
  <fix>3d</fix>
</trkpt>
<trkpt lat="33.8103636" lon="-118.3945366">
  <ele>-0.104</ele>
  <time>2026-09-02T22:07:28Z</time>
  <course>9.82</course>
  <speed>1.7923448328934921</speed>
  <fix>3d</fix>
</trkpt>
<trkpt lat="33.8103636" lon="-118.3945369">
  <ele>-0.104</ele>
  <time>2026-09-02T22:07:28Z</time>
  <course>9.82</course>
  <speed>1.7923448328934921</speed>
  <fix>3d</fix>
</trkpt>
<trkpt lat="33.8103636" lon="-118.3945371">
  <ele>-0.104</ele>
  <time>2026-09-02T22:07:28Z</time>
  <course>9.82</course>
  <speed>1.7923448328934921</speed>
  <fix>3d</fix>
</trkpt>
<trkpt lat="33.8103637" lon="-118.3945372">
  <ele>-0.104</ele>
  <time>2026-09-02T22:07:28Z</time>
  <course>9.82</course>
  <speed>1.7923448328934921</speed>
  <fix>3d</fix>
</trkpt>
<trkpt lat="33.8103637" lon="-118.3945374">
  <ele>-0.104</ele>
  <time>2026-09-02T22:07:28Z</time>
  <course>9.82</course>
  <speed>1.7923448328934921</speed>
  <fix>3d</fix>
</trkpt>
<trkpt lat="33.8103637" lon="-118.3945376">
  <ele>-0.105</ele>
  <time>2026-09-02T22:07:28Z</time>
  <course>9.82</course>
  <speed>1.7923448328934921</speed>
  <fix>3d</fix>
</trkpt>
<trkpt lat="33.8103637" lon="-118.3945377">
  <ele>-0.105</ele>
  <time>2026-09-02T22:07:28Z</time>
  <course>9.82</course>
  <speed>1.7923448328934921</speed>
  <fix>3d</fix>
</trkpt>
<trkpt lat="33.8103637" lon="-118.3945379">
  <ele>-0.105</ele>
  <time>2026-09-02T22:07:28Z</time>
  <course>9.82</course>
  <speed>1.7923448328934921</speed>
  <fix>3d</fix>
</trkpt>
<trkpt lat="33.8103638" lon="-118.3945381">
  <ele>-0.105</ele>
  <time>2026-09-02T22:07:28Z</time>
  <course>9.82</course>
  <speed>1.7923448328934921</speed>
  <fix>3d</fix>
</trkpt>
<trkpt lat="33.8103638" lon="-118.3945382">
  <ele>-0.105</ele>
  <time>2026-09-02T22:07:28Z</time>
  <course>9.83</course>
  <speed>1.7923448328934921</speed>
  <fix>3d</fix>
</trkpt>
<trkpt lat="33.8103638" lon="-118.3945384">
  <ele>-0.105</ele>
  <time>2026-09-02T22:07:28Z</time>
  <course>9.83</course>
  <speed>1.7923448328934921</speed>
  <fix>3d</fix>
</trkpt>
<trkpt lat="33.8103638" lon="-118.3945385">
  <ele>-0.106</ele>
  <time>2026-09-02T22:07:28Z</time>
  <course>9.83</course>
  <speed>1.7923448328934921</speed>
  <fix>3d</fix>
</trkpt>
<trkpt lat="33.8103638" lon="-118.3945385">
  <ele>-0.106</ele>
  <time>2026-09-02T22:07:28Z</time>
  <course>9.83</course>
  <speed>1.7923448328934921</speed>
  <fix>3d</fix>
</trkpt>
<trkpt lat="33.8103638" lon="-118.3945358">
  <ele>-0.1</ele>
  <time>2026-09-02T22:07:28Z</time>
  <course>277.69</course>
  <speed>1.82</speed>
  <fix>3d</fix>
</trkpt>
<trkpt lat="33.8103638" lon="-118.3945388">
  <ele>-0.106</ele>
  <time>2026-09-02T22:07:28Z</time>
  <course>9.83</course>
  <speed>1.7923448328934921</speed>
  <fix>3d</fix>
</trkpt>
<trkpt lat="33.8103639" lon="-118.3945391">
  <ele>-0.106</ele>
  <time>2026-09-02T22:07:28Z</time>
  <course>9.83</course>
  <speed>1.7923448328934921</speed>
  <fix>3d</fix>
</trkpt>
<trkpt lat="33.8103639" lon="-118.3945393">
  <ele>-0.106</ele>
  <time>2026-09-02T22:07:28Z</time>
  <course>9.83</course>
  <speed>1.7923448328934921</speed>
  <fix>3d</fix>
</trkpt>
<trkpt lat="33.8103639" lon="-118.3945394">
  <ele>-0.107</ele>
  <time>2026-09-02T22:07:28Z</time>
  <course>9.83</course>
  <speed>1.7923448328934921</speed>
  <fix>3d</fix>
</trkpt>
<trkpt lat="33.8103639" lon="-118.3945396">
  <ele>-0.107</ele>
  <time>2026-09-02T22:07:28Z</time>
  <course>9.83</course>
  <speed>1.7923448328934921</speed>
  <fix>3d</fix>
</trkpt>
<trkpt lat="33.8103639" lon="-118.3945397">
  <ele>-0.107</ele>
  <time>2026-09-02T22:07:28Z</time>
  <course>9.83</course>
  <speed>1.7923448328934921</speed>
  <fix>3d</fix>
</trkpt>
<trkpt lat="33.810364" lon="-118.3945399">
  <ele>-0.107</ele>
  <time>2026-09-02T22:07:28Z</time>
  <course>9.83</course>
  <speed>1.7923448328934921</speed>
  <fix>3d</fix>
</trkpt>
<trkpt lat="33.810364" lon="-118.3945401">
  <ele>-0.107</ele>
  <time>2026-09-02T22:07:28Z</time>
  <course>9.83</course>
  <speed>1.7923448328934921</speed>
  <fix>3d</fix>
</trkpt>
<trkpt lat="33.810364" lon="-118.3945403">
  <ele>-0.107</ele>
  <time>2026-09-02T22:07:28Z</time>
  <course>9.83</course>
  <speed>1.7923448328934921</speed>
  <fix>3d</fix>
</trkpt>
<trkpt lat="33.810364" lon="-118.3945405">
  <ele>-0.107</ele>
  <time>2026-09-02T22:07:28Z</time>
  <course>9.83</course>
  <speed>1.7923448328934921</speed>
  <fix>3d</fix>
</trkpt>
<trkpt lat="33.8103638" lon="-118.3945358">
  <ele>-0.1</ele>
  <time>2026-09-02T22:07:28Z</time>
  <course>277.69</course>
  <speed>1.82</speed>
  <fix>3d</fix>
</trkpt>
<trkpt lat="33.810364" lon="-118.3945405">
  <ele>-0.107</ele>
  <time>2026-09-02T22:07:28Z</time>
  <course>9.83</course>
  <speed>1.7923448328934921</speed>
  <fix>3d</fix>
</trkpt>
<trkpt lat="33.8103641" lon="-118.3945407">
  <ele>-0.107</ele>
  <time>2026-09-02T22:07:28Z</time>
  <course>9.83</course>
  <speed>1.7923448328934921</speed>
  <fix>3d</fix>
</trkpt>
<trkpt lat="33.8103641" lon="-118.3945409">
  <ele>-0.107</ele>
  <time>2026-09-02T22:07:28Z</time>
  <course>9.83</course>
  <speed>1.7923448328934921</speed>
  <fix>3d</fix>
</trkpt>
<trkpt lat="33.8103641" lon="-118.3945411">
  <ele>-0.107</ele>
  <time>2026-09-02T22:07:28Z</time>
  <course>9.83</course>
  <speed>1.7923448328934921</speed>
  <fix>3d</fix>
</trkpt>
<trkpt lat="33.8103641" lon="-118.3945413">
  <ele>-0.107</ele>
  <time>2026-09-02T22:07:28Z</time>
  <course>9.83</course>
  <speed>1.7923448328934921</speed>
  <fix>3d</fix>
</trkpt>
<trkpt lat="33.8103641" lon="-118.3945415">
  <ele>-0.108</ele>
  <time>2026-09-02T22:07:28Z</time>
  <course>9.84</course>
  <speed>1.7923448328934921</speed>
  <fix>3d</fix>
</trkpt>
<trkpt lat="33.8103642" lon="-118.3945416">
  <ele>-0.108</ele>
  <time>2026-09-02T22:07:28Z</time>
  <course>9.84</course>
  <speed>1.7923448328934921</speed>
  <fix>3d</fix>
</trkpt>
<trkpt lat="33.8103642" lon="-118.3945418">
  <ele>-0.108</ele>
  <time>2026-09-02T22:07:28Z</time>
  <course>9.84</course>
  <speed>1.7923448328934921</speed>
  <fix>3d</fix>
</trkpt>
<trkpt lat="33.8103642" lon="-118.3945419">
  <ele>-0.108</ele>
  <time>2026-09-02T22:07:28Z</time>
  <course>9.84</course>
  <speed>1.7923448328934921</speed>
  <fix>3d</fix>
</trkpt>
<trkpt lat="33.8103642" lon="-118.3945421">
  <ele>-0.108</ele>
  <time>2026-09-02T22:07:28Z</time>
  <course>9.84</course>
  <speed>1.7923448328934921</speed>
  <fix>3d</fix>
</trkpt>
<trkpt lat="33.8103642" lon="-118.3945423">
  <ele>-0.108</ele>
  <time>2026-09-02T22:07:28Z</time>
  <course>9.84</course>
  <speed>1.7923448328934921</speed>
  <fix>3d</fix>
</trkpt>
<trkpt lat="33.8103642" lon="-118.3945424">
  <ele>-0.108</ele>
  <time>2026-09-02T22:07:28Z</time>
  <course>9.84</course>
  <speed>1.7923448328934921</speed>
  <fix>3d</fix>
</trkpt>
<trkpt lat="33.8103642" lon="-118.3945424">
  <ele>-0.108</ele>
  <time>2026-09-02T22:07:28Z</time>
  <course>9.84</course>
  <speed>1.7923448328934921</speed>
  <fix>3d</fix>
</trkpt>
<trkpt lat="33.8103642" lon="-118.3945397">
  <ele>-0.1</ele>
  <time>2026-09-02T22:07:28Z</time>
  <course>277.7</course>
  <speed>1.82</speed>
  <fix>3d</fix>
</trkpt>
<trkpt lat="33.8103643" lon="-118.3945427">
  <ele>-0.108</ele>
  <time>2026-09-02T22:07:28Z</time>
  <course>9.84</course>
  <speed>1.7923448328934921</speed>
  <fix>3d</fix>
</trkpt>
<trkpt lat="33.8103643" lon="-118.3945429">
  <ele>-0.109</ele>
  <time>2026-09-02T22:07:28Z</time>
  <course>9.84</course>
  <speed>1.7923448328934921</speed>
  <fix>3d</fix>
</trkpt>
<trkpt lat="33.8103643" lon="-118.3945431">
  <ele>-0.109</ele>
  <time>2026-09-02T22:07:28Z</time>
  <course>9.84</course>
  <speed>1.7923448328934921</speed>
  <fix>3d</fix>
</trkpt>
<trkpt lat="33.8103643" lon="-118.3945432">
  <ele>-0.109</ele>
  <time>2026-09-02T22:07:28Z</time>
  <course>9.84</course>
  <speed>1.7923448328934921</speed>
  <fix>3d</fix>
</trkpt>
<trkpt lat="33.8103644" lon="-118.3945434">
  <ele>-0.109</ele>
  <time>2026-09-02T22:07:28Z</time>
  <course>9.84</course>
  <speed>1.7923448328934921</speed>
  <fix>3d</fix>
</trkpt>
<trkpt lat="33.8103644" lon="-118.3945435">
  <ele>-0.109</ele>
  <time>2026-09-02T22:07:28Z</time>
  <course>9.84</course>
  <speed>1.7923448328934921</speed>
  <fix>3d</fix>
</trkpt>
<trkpt lat="33.8103644" lon="-118.3945436">
  <ele>-0.109</ele>
  <time>2026-09-02T22:07:28Z</time>
  <course>9.84</course>
  <speed>1.7923448328934921</speed>
  <fix>3d</fix>
</trkpt>
<trkpt lat="33.8103644" lon="-118.3945438">
  <ele>-0.109</ele>
  <time>2026-09-02T22:07:28Z</time>
  <course>9.84</course>
  <speed>1.7923448328934921</speed>
  <fix>3d</fix>
</trkpt>
<trkpt lat="33.8103644" lon="-118.394544">
  <ele>-0.109</ele>
  <time>2026-09-02T22:07:28Z</time>
  <course>9.84</course>
  <speed>1.7923448328934921</speed>
  <fix>3d</fix>
</trkpt>
<trkpt lat="33.8103644" lon="-118.3945441">
  <ele>-0.109</ele>
  <time>2026-09-02T22:07:28Z</time>
  <course>9.84</course>
  <speed>1.7923448328934921</speed>
  <fix>3d</fix>
</trkpt>
<trkpt lat="33.8103645" lon="-118.3945443">
  <ele>-0.109</ele>
  <time>2026-09-02T22:07:28Z</time>
  <course>9.84</course>
  <speed>1.7923448328934921</speed>
  <fix>3d</fix>
</trkpt>
<trkpt lat="33.8103645" lon="-118.3945444">
  <ele>-0.109</ele>
  <time>2026-09-02T22:07:28Z</time>
  <course>9.84</course>
  <speed>1.7923448328934921</speed>
  <fix>3d</fix>
</trkpt>
<trkpt lat="33.8103642" lon="-118.3945397">
  <ele>-0.1</ele>
  <time>2026-09-02T22:07:28Z</time>
  <course>277.7</course>
  <speed>1.82</speed>
  <fix>3d</fix>
</trkpt>
<trkpt lat="33.8103645" lon="-118.3945444">
  <ele>-0.109</ele>
  <time>2026-09-02T22:07:28Z</time>
  <course>9.84</course>
  <speed>1.7923448328934921</speed>
  <fix>3d</fix>
</trkpt>
<trkpt lat="33.8103645" lon="-118.3945447">
  <ele>-0.109</ele>
  <time>2026-09-02T22:07:28Z</time>
  <course>9.85</course>
  <speed>1.7923448328934921</speed>
  <fix>3d</fix>
</trkpt>
<trkpt lat="33.8103645" lon="-118.3945449">
  <ele>-0.109</ele>
  <time>2026-09-02T22:07:28Z</time>
  <course>9.85</course>
  <speed>1.7923448328934921</speed>
  <fix>3d</fix>
</trkpt>
<trkpt lat="33.8103645" lon="-118.3945451">
  <ele>-0.109</ele>
  <time>2026-09-02T22:07:28Z</time>
  <course>9.85</course>
  <speed>1.7923448328934921</speed>
  <fix>3d</fix>
</trkpt>
<trkpt lat="33.8103646" lon="-118.3945453">
  <ele>-0.109</ele>
  <time>2026-09-02T22:07:28Z</time>
  <course>9.85</course>
  <speed>1.7923448328934921</speed>
  <fix>3d</fix>
</trkpt>
<trkpt lat="33.8103646" lon="-118.3945455">
  <ele>-0.109</ele>
  <time>2026-09-02T22:07:28Z</time>
  <course>9.85</course>
  <speed>1.7923448328934921</speed>
  <fix>3d</fix>
</trkpt>
<trkpt lat="33.8103646" lon="-118.3945456">
  <ele>-0.109</ele>
  <time>2026-09-02T22:07:28Z</time>
  <course>9.85</course>
  <speed>1.7923448328934921</speed>
  <fix>3d</fix>
</trkpt>
<trkpt lat="33.8103646" lon="-118.3945458">
  <ele>-0.109</ele>
  <time>2026-09-02T22:07:28Z</time>
  <course>9.85</course>
  <speed>1.7923448328934921</speed>
  <fix>3d</fix>
</trkpt>
<trkpt lat="33.8103646" lon="-118.394546">
  <ele>-0.109</ele>
  <time>2026-09-02T22:07:28Z</time>
  <course>9.85</course>
  <speed>1.7923448328934921</speed>
  <fix>3d</fix>
</trkpt>
<trkpt lat="33.8103647" lon="-118.3945462">
  <ele>-0.109</ele>
  <time>2026-09-02T22:07:28Z</time>
  <course>9.85</course>
  <speed>1.7923448328934921</speed>
  <fix>3d</fix>
</trkpt>
<trkpt lat="33.8103647" lon="-118.3945463">
  <ele>-0.109</ele>
  <time>2026-09-02T22:07:28Z</time>
  <course>9.85</course>
  <speed>1.7923448328934921</speed>
  <fix>3d</fix>
</trkpt>
<trkpt lat="33.8103647" lon="-118.3945463">
  <ele>-0.109</ele>
  <time>2026-09-02T22:07:28Z</time>
  <course>9.85</course>
  <speed>1.7923448328934921</speed>
  <fix>3d</fix>
</trkpt>
<trkpt lat="33.8103646" lon="-118.3945436">
  <ele>-0.1</ele>
  <time>2026-09-02T22:07:28Z</time>
  <course>277.72</course>
  <speed>1.82</speed>
  <fix>3d</fix>
</trkpt>
<trkpt lat="33.8103647" lon="-118.3945464">
  <ele>-0.109</ele>
  <time>2026-09-02T22:07:28Z</time>
  <course>9.85</course>
  <speed>1.7923448328934921</speed>
  <fix>3d</fix>
</trkpt>
<trkpt lat="33.8103647" lon="-118.3945467">
  <ele>-0.109</ele>
  <time>2026-09-02T22:07:28Z</time>
  <course>9.85</course>
  <speed>1.7923448328934921</speed>
  <fix>3d</fix>
</trkpt>
<trkpt lat="33.8103648" lon="-118.3945469">
  <ele>-0.109</ele>
  <time>2026-09-02T22:07:28Z</time>
  <course>9.85</course>
  <speed>1.7923448328934921</speed>
  <fix>3d</fix>
</trkpt>
<trkpt lat="33.8103648" lon="-118.394547">
  <ele>-0.109</ele>
  <time>2026-09-02T22:07:28Z</time>
  <course>9.85</course>
  <speed>1.7923448328934921</speed>
  <fix>3d</fix>
</trkpt>
<trkpt lat="33.8103648" lon="-118.3945472">
  <ele>-0.109</ele>
  <time>2026-09-02T22:07:28Z</time>
  <course>9.85</course>
  <speed>1.7923448328934921</speed>
  <fix>3d</fix>
</trkpt>
<trkpt lat="33.8103648" lon="-118.3945474">
  <ele>-0.109</ele>
  <time>2026-09-02T22:07:28Z</time>
  <course>9.85</course>
  <speed>1.7923448328934921</speed>
  <fix>3d</fix>
</trkpt>
<trkpt lat="33.8103648" lon="-118.3945476">
  <ele>-0.109</ele>
  <time>2026-09-02T22:07:28Z</time>
  <course>9.85</course>
  <speed>1.7923448328934921</speed>
  <fix>3d</fix>
</trkpt>
<trkpt lat="33.8103648" lon="-118.3945478">
  <ele>-0.109</ele>
  <time>2026-09-02T22:07:28Z</time>
  <course>9.85</course>
  <speed>1.7923448328934921</speed>
  <fix>3d</fix>
</trkpt>
<trkpt lat="33.8103649" lon="-118.394548">
  <ele>-0.109</ele>
  <time>2026-09-02T22:07:28Z</time>
  <course>9.86</course>
  <speed>1.7923448328934921</speed>
  <fix>3d</fix>
</trkpt>
<trkpt lat="33.8103649" lon="-118.3945481">
  <ele>-0.109</ele>
  <time>2026-09-02T22:07:28Z</time>
  <course>9.86</course>
  <speed>1.7923448328934921</speed>
  <fix>3d</fix>
</trkpt>
<trkpt lat="33.8103649" lon="-118.3945483">
  <ele>-0.109</ele>
  <time>2026-09-02T22:07:28Z</time>
  <course>9.86</course>
  <speed>1.7923448328934921</speed>
  <fix>3d</fix>
</trkpt>
<trkpt lat="33.8103649" lon="-118.3945483">
  <ele>-0.109</ele>
  <time>2026-09-02T22:07:28Z</time>
  <course>9.86</course>
  <speed>1.7923448328934921</speed>
  <fix>3d</fix>
</trkpt>
<trkpt lat="33.8103646" lon="-118.3945436">
  <ele>-0.1</ele>
  <time>2026-09-02T22:07:28Z</time>
  <course>277.72</course>
  <speed>1.82</speed>
  <fix>3d</fix>
</trkpt>
<trkpt lat="33.8103649" lon="-118.3945485">
  <ele>-0.109</ele>
  <time>2026-09-02T22:07:28Z</time>
  <course>9.86</course>
  <speed>1.7923448328934921</speed>
  <fix>3d</fix>
</trkpt>
<trkpt lat="33.810365" lon="-118.3945487">
  <ele>-0.109</ele>
  <time>2026-09-02T22:07:28Z</time>
  <course>9.86</course>
  <speed>1.7923448328934921</speed>
  <fix>3d</fix>
</trkpt>
<trkpt lat="33.810365" lon="-118.3945489">
  <ele>-0.109</ele>
  <time>2026-09-02T22:07:28Z</time>
  <course>9.86</course>
  <speed>1.7923448328934921</speed>
  <fix>3d</fix>
</trkpt>
<trkpt lat="33.810365" lon="-118.3945491">
  <ele>-0.109</ele>
  <time>2026-09-02T22:07:28Z</time>
  <course>9.86</course>
  <speed>1.7923448328934921</speed>
  <fix>3d</fix>
</trkpt>
<trkpt lat="33.810365" lon="-118.3945492">
  <ele>-0.109</ele>
  <time>2026-09-02T22:07:28Z</time>
  <course>9.86</course>
  <speed>1.7923448328934921</speed>
  <fix>3d</fix>
</trkpt>
<trkpt lat="33.810365" lon="-118.3945494">
  <ele>-0.109</ele>
  <time>2026-09-02T22:07:28Z</time>
  <course>9.86</course>
  <speed>1.7923448328934921</speed>
  <fix>3d</fix>
</trkpt>
<trkpt lat="33.8103651" lon="-118.3945496">
  <ele>-0.109</ele>
  <time>2026-09-02T22:07:28Z</time>
  <course>9.86</course>
  <speed>1.7923448328934921</speed>
  <fix>3d</fix>
</trkpt>
<trkpt lat="33.8103651" lon="-118.3945497">
  <ele>-0.109</ele>
  <time>2026-09-02T22:07:28Z</time>
  <course>9.86</course>
  <speed>1.7923448328934921</speed>
  <fix>3d</fix>
</trkpt>
<trkpt lat="33.8103651" lon="-118.3945499">
  <ele>-0.109</ele>
  <time>2026-09-02T22:07:28Z</time>
  <course>9.86</course>
  <speed>1.7923448328934921</speed>
  <fix>3d</fix>
</trkpt>
<trkpt lat="33.8103651" lon="-118.3945501">
  <ele>-0.109</ele>
  <time>2026-09-02T22:07:28Z</time>
  <course>9.86</course>
  <speed>1.7923448328934921</speed>
  <fix>3d</fix>
</trkpt>
<trkpt lat="33.8103651" lon="-118.3945503">
  <ele>-0.109</ele>
  <time>2026-09-02T22:07:28Z</time>
  <course>9.86</course>
  <speed>1.7923448328934921</speed>
  <fix>3d</fix>
</trkpt>
<trkpt lat="33.8103651" lon="-118.3945503">
  <ele>-0.109</ele>
  <time>2026-09-02T22:07:28Z</time>
  <course>9.86</course>
  <speed>1.7923448328934921</speed>
  <fix>3d</fix>
</trkpt>
<trkpt lat="33.8103651" lon="-118.3945475">
  <ele>-0.1</ele>
  <time>2026-09-02T22:07:28Z</time>
  <course>277.73</course>
  <speed>1.82</speed>
  <fix>3d</fix>
</trkpt>
<trkpt lat="33.8103652" lon="-118.3945505">
  <ele>-0.109</ele>
  <time>2026-09-02T22:07:28Z</time>
  <course>9.86</course>
  <speed>1.7923448328934921</speed>
  <fix>3d</fix>
</trkpt>
<trkpt lat="33.8103652" lon="-118.3945507">
  <ele>-0.11</ele>
  <time>2026-09-02T22:07:28Z</time>
  <course>9.86</course>
  <speed>1.7923448328934921</speed>
  <fix>3d</fix>
</trkpt>
<trkpt lat="33.8103652" lon="-118.3945509">
  <ele>-0.11</ele>
  <time>2026-09-02T22:07:28Z</time>
  <course>9.86</course>
  <speed>1.7923448328934921</speed>
  <fix>3d</fix>
</trkpt>
<trkpt lat="33.8103652" lon="-118.3945511">
  <ele>-0.11</ele>
  <time>2026-09-02T22:07:28Z</time>
  <course>9.87</course>
  <speed>1.7923448328934921</speed>
  <fix>3d</fix>
</trkpt>
<trkpt lat="33.8103652" lon="-118.3945512">
  <ele>-0.11</ele>
  <time>2026-09-02T22:07:28Z</time>
  <course>9.87</course>
  <speed>1.7923448328934921</speed>
  <fix>3d</fix>
</trkpt>
<trkpt lat="33.8103653" lon="-118.3945514">
  <ele>-0.11</ele>
  <time>2026-09-02T22:07:28Z</time>
  <course>9.87</course>
  <speed>1.7923448328934921</speed>
  <fix>3d</fix>
</trkpt>
<trkpt lat="33.8103653" lon="-118.3945515">
  <ele>-0.11</ele>
  <time>2026-09-02T22:07:28Z</time>
  <course>9.87</course>
  <speed>1.7923448328934921</speed>
  <fix>3d</fix>
</trkpt>
<trkpt lat="33.8103653" lon="-118.3945517">
  <ele>-0.11</ele>
  <time>2026-09-02T22:07:28Z</time>
  <course>9.87</course>
  <speed>1.7923448328934921</speed>
  <fix>3d</fix>
</trkpt>
<trkpt lat="33.8103653" lon="-118.3945519">
  <ele>-0.11</ele>
  <time>2026-09-02T22:07:28Z</time>
  <course>9.87</course>
  <speed>1.7923448328934921</speed>
  <fix>3d</fix>
</trkpt>
<trkpt lat="33.8103653" lon="-118.3945521">
  <ele>-0.11</ele>
  <time>2026-09-02T22:07:28Z</time>
  <course>9.87</course>
  <speed>1.7923448328934921</speed>
  <fix>3d</fix>
</trkpt>
<trkpt lat="33.8103654" lon="-118.3945522">
  <ele>-0.11</ele>
  <time>2026-09-02T22:07:28Z</time>
  <course>9.87</course>
  <speed>1.7923448328934921</speed>
  <fix>3d</fix>
</trkpt>
<trkpt lat="33.8103654" lon="-118.3945522">
  <ele>-0.11</ele>
  <time>2026-09-02T22:07:28Z</time>
  <course>9.87</course>
  <speed>1.7923448328934921</speed>
  <fix>3d</fix>
</trkpt>
<trkpt lat="33.8103651" lon="-118.3945475">
  <ele>-0.1</ele>
  <time>2026-09-02T22:07:28Z</time>
  <course>277.73</course>
  <speed>1.82</speed>
  <fix>3d</fix>
</trkpt>
<trkpt lat="33.8103654" lon="-118.3945525">
  <ele>-0.11</ele>
  <time>2026-09-02T22:07:28Z</time>
  <course>9.87</course>
  <speed>1.7923448328934921</speed>
  <fix>3d</fix>
</trkpt>
<trkpt lat="33.8103654" lon="-118.3945527">
  <ele>-0.11</ele>
  <time>2026-09-02T22:07:28Z</time>
  <course>9.87</course>
  <speed>1.7923448328934921</speed>
  <fix>3d</fix>
</trkpt>
<trkpt lat="33.8103654" lon="-118.3945529">
  <ele>-0.11</ele>
  <time>2026-09-02T22:07:28Z</time>
  <course>9.87</course>
  <speed>1.7923448328934921</speed>
  <fix>3d</fix>
</trkpt>
<trkpt lat="33.8103655" lon="-118.3945531">
  <ele>-0.109</ele>
  <time>2026-09-02T22:07:28Z</time>
  <course>9.87</course>
  <speed>1.7923448328934921</speed>
  <fix>3d</fix>
</trkpt>
<trkpt lat="33.8103655" lon="-118.3945533">
  <ele>-0.109</ele>
  <time>2026-09-02T22:07:28Z</time>
  <course>9.87</course>
  <speed>1.7923448328934921</speed>
  <fix>3d</fix>
</trkpt>
<trkpt lat="33.8103655" lon="-118.3945534">
  <ele>-0.109</ele>
  <time>2026-09-02T22:07:28Z</time>
  <course>9.87</course>
  <speed>1.7923448328934921</speed>
  <fix>3d</fix>
</trkpt>
<trkpt lat="33.8103655" lon="-118.3945536">
  <ele>-0.109</ele>
  <time>2026-09-02T22:07:28Z</time>
  <course>9.87</course>
  <speed>1.7935439777156288</speed>
  <fix>3d</fix>
</trkpt>
<trkpt lat="33.8103655" lon="-118.3945538">
  <ele>-0.109</ele>
  <time>2026-09-02T22:07:28Z</time>
  <course>9.87</course>
  <speed>1.7935439777156288</speed>
  <fix>3d</fix>
</trkpt>
<trkpt lat="33.8103656" lon="-118.394554">
  <ele>-0.109</ele>
  <time>2026-09-02T22:07:28Z</time>
  <course>9.87</course>
  <speed>1.7935439777156288</speed>
  <fix>3d</fix>
</trkpt>
<trkpt lat="33.8103656" lon="-118.3945542">
  <ele>-0.109</ele>
  <time>2026-09-02T22:07:28Z</time>
  <course>9.87</course>
  <speed>1.7935439777156288</speed>
  <fix>3d</fix>
</trkpt>
<trkpt lat="33.8103656" lon="-118.3945542">
  <ele>-0.109</ele>
  <time>2026-09-02T22:07:28Z</time>
  <course>9.87</course>
  <speed>1.7935439777156288</speed>
  <fix>3d</fix>
</trkpt>
<trkpt lat="33.8103655" lon="-118.3945514">
  <ele>-0.1</ele>
  <time>2026-09-02T22:07:28Z</time>
  <course>277.75</course>
  <speed>1.82</speed>
  <fix>3d</fix>
</trkpt>
<trkpt lat="33.8103656" lon="-118.3945545">
  <ele>-0.109</ele>
  <time>2026-09-02T22:07:28Z</time>
  <course>9.88</course>
  <speed>1.7935439777156288</speed>
  <fix>3d</fix>
</trkpt>
<trkpt lat="33.8103656" lon="-118.3945546">
  <ele>-0.109</ele>
  <time>2026-09-02T22:07:28Z</time>
  <course>9.88</course>
  <speed>1.7935439777156288</speed>
  <fix>3d</fix>
</trkpt>
<trkpt lat="33.8103656" lon="-118.3945548">
  <ele>-0.109</ele>
  <time>2026-09-02T22:07:28Z</time>
  <course>9.88</course>
  <speed>1.7935439777156288</speed>
  <fix>3d</fix>
</trkpt>
<trkpt lat="33.8103657" lon="-118.394555">
  <ele>-0.109</ele>
  <time>2026-09-02T22:07:28Z</time>
  <course>9.88</course>
  <speed>1.7935439777156288</speed>
  <fix>3d</fix>
</trkpt>
<trkpt lat="33.8103657" lon="-118.3945551">
  <ele>-0.109</ele>
  <time>2026-09-02T22:07:28Z</time>
  <course>9.88</course>
  <speed>1.7935439777156288</speed>
  <fix>3d</fix>
</trkpt>
<trkpt lat="33.8103657" lon="-118.3945552">
  <ele>-0.109</ele>
  <time>2026-09-02T22:07:28Z</time>
  <course>9.88</course>
  <speed>1.7935439777156288</speed>
  <fix>3d</fix>
</trkpt>
<trkpt lat="33.8103657" lon="-118.3945554">
  <ele>-0.109</ele>
  <time>2026-09-02T22:07:28Z</time>
  <course>9.88</course>
  <speed>1.7935439777156288</speed>
  <fix>3d</fix>
</trkpt>
<trkpt lat="33.8103657" lon="-118.3945556">
  <ele>-0.109</ele>
  <time>2026-09-02T22:07:28Z</time>
  <course>9.88</course>
  <speed>1.7935439777156288</speed>
  <fix>3d</fix>
</trkpt>
<trkpt lat="33.8103658" lon="-118.3945558">
  <ele>-0.109</ele>
  <time>2026-09-02T22:07:28Z</time>
  <course>9.88</course>
  <speed>1.7935439777156288</speed>
  <fix>3d</fix>
</trkpt>
<trkpt lat="33.8103658" lon="-118.3945559">
  <ele>-0.109</ele>
  <time>2026-09-02T22:07:28Z</time>
  <course>9.88</course>
  <speed>1.7935439777156288</speed>
  <fix>3d</fix>
</trkpt>
<trkpt lat="33.8103658" lon="-118.3945561">
  <ele>-0.109</ele>
  <time>2026-09-02T22:07:28Z</time>
  <course>9.88</course>
  <speed>1.7935439777156288</speed>
  <fix>3d</fix>
</trkpt>
<trkpt lat="33.8103658" lon="-118.3945561">
  <ele>-0.109</ele>
  <time>2026-09-02T22:07:28Z</time>
  <course>9.88</course>
  <speed>1.7935439777156288</speed>
  <fix>3d</fix>
</trkpt>
<trkpt lat="33.8103655" lon="-118.3945514">
  <ele>-0.1</ele>
  <time>2026-09-02T22:07:28Z</time>
  <course>277.75</course>
  <speed>1.82</speed>
  <fix>3d</fix>
</trkpt>
<trkpt lat="33.8103658" lon="-118.3945562">
  <ele>-0.109</ele>
  <time>2026-09-02T22:07:28Z</time>
  <course>9.88</course>
  <speed>1.7935439777156288</speed>
  <fix>3d</fix>
</trkpt>
<trkpt lat="33.8103658" lon="-118.3945565">
  <ele>-0.109</ele>
  <time>2026-09-02T22:07:28Z</time>
  <course>9.88</course>
  <speed>1.7935439777156288</speed>
  <fix>3d</fix>
</trkpt>
<trkpt lat="33.8103659" lon="-118.3945567">
  <ele>-0.109</ele>
  <time>2026-09-02T22:07:28Z</time>
  <course>9.88</course>
  <speed>1.7935439777156288</speed>
  <fix>3d</fix>
</trkpt>
<trkpt lat="33.8103659" lon="-118.3945568">
  <ele>-0.109</ele>
  <time>2026-09-02T22:07:28Z</time>
  <course>9.88</course>
  <speed>1.7935439777156288</speed>
  <fix>3d</fix>
</trkpt>
<trkpt lat="33.8103659" lon="-118.394557">
  <ele>-0.109</ele>
  <time>2026-09-02T22:07:28Z</time>
  <course>9.88</course>
  <speed>1.7935439777156288</speed>
  <fix>3d</fix>
</trkpt>
<trkpt lat="33.8103659" lon="-118.3945571">
  <ele>-0.109</ele>
  <time>2026-09-02T22:07:28Z</time>
  <course>9.88</course>
  <speed>1.7935439777156288</speed>
  <fix>3d</fix>
</trkpt>
<trkpt lat="33.8103659" lon="-118.3945573">
  <ele>-0.109</ele>
  <time>2026-09-02T22:07:28Z</time>
  <course>9.88</course>
  <speed>1.7935439777156288</speed>
  <fix>3d</fix>
</trkpt>
<trkpt lat="33.8103659" lon="-118.3945574">
  <ele>-0.109</ele>
  <time>2026-09-02T22:07:28Z</time>
  <course>9.88</course>
  <speed>1.7935439777156288</speed>
  <fix>3d</fix>
</trkpt>
<trkpt lat="33.810366" lon="-118.3945576">
  <ele>-0.109</ele>
  <time>2026-09-02T22:07:28Z</time>
  <course>9.89</course>
  <speed>1.7935439777156288</speed>
  <fix>3d</fix>
</trkpt>
<trkpt lat="33.810366" lon="-118.3945578">
  <ele>-0.109</ele>
  <time>2026-09-02T22:07:28Z</time>
  <course>9.89</course>
  <speed>1.7935439777156288</speed>
  <fix>3d</fix>
</trkpt>
<trkpt lat="33.810366" lon="-118.394558">
  <ele>-0.11</ele>
  <time>2026-09-02T22:07:28Z</time>
  <course>9.89</course>
  <speed>1.7935439777156288</speed>
  <fix>3d</fix>
</trkpt>
<trkpt lat="33.810366" lon="-118.3945581">
  <ele>-0.11</ele>
  <time>2026-09-02T22:07:28Z</time>
  <course>9.89</course>
  <speed>1.7935439777156288</speed>
  <fix>3d</fix>
</trkpt>
<trkpt lat="33.810366" lon="-118.3945553">
  <ele>-0.1</ele>
  <time>2026-09-02T22:07:28Z</time>
  <course>277.76</course>
  <speed>1.82</speed>
  <fix>3d</fix>
</trkpt>
<trkpt lat="33.810366" lon="-118.3945581">
  <ele>-0.11</ele>
  <time>2026-09-02T22:07:28Z</time>
  <course>9.89</course>
  <speed>1.7935439777156288</speed>
  <fix>3d</fix>
</trkpt>
<trkpt lat="33.810366" lon="-118.3945583">
  <ele>-0.11</ele>
  <time>2026-09-02T22:07:28Z</time>
  <course>9.89</course>
  <speed>1.7935439777156288</speed>
  <fix>3d</fix>
</trkpt>
<trkpt lat="33.8103661" lon="-118.3945585">
  <ele>-0.11</ele>
  <time>2026-09-02T22:07:28Z</time>
  <course>9.89</course>
  <speed>1.7935439777156288</speed>
  <fix>3d</fix>
</trkpt>
<trkpt lat="33.8103661" lon="-118.3945587">
  <ele>-0.11</ele>
  <time>2026-09-02T22:07:28Z</time>
  <course>9.89</course>
  <speed>1.7935439777156288</speed>
  <fix>3d</fix>
</trkpt>
<trkpt lat="33.8103661" lon="-118.3945589">
  <ele>-0.11</ele>
  <time>2026-09-02T22:07:28Z</time>
  <course>9.89</course>
  <speed>1.7935439777156288</speed>
  <fix>3d</fix>
</trkpt>
<trkpt lat="33.8103661" lon="-118.3945591">
  <ele>-0.11</ele>
  <time>2026-09-02T22:07:28Z</time>
  <course>9.89</course>
  <speed>1.7935439777156288</speed>
  <fix>3d</fix>
</trkpt>
<trkpt lat="33.8103662" lon="-118.3945593">
  <ele>-0.11</ele>
  <time>2026-09-02T22:07:28Z</time>
  <course>9.89</course>
  <speed>1.7935439777156288</speed>
  <fix>3d</fix>
</trkpt>
<trkpt lat="33.8103662" lon="-118.3945594">
  <ele>-0.11</ele>
  <time>2026-09-02T22:07:28Z</time>
  <course>9.89</course>
  <speed>1.7935439777156288</speed>
  <fix>3d</fix>
</trkpt>
<trkpt lat="33.8103662" lon="-118.3945595">
  <ele>-0.11</ele>
  <time>2026-09-02T22:07:28Z</time>
  <course>9.89</course>
  <speed>1.7935439777156288</speed>
  <fix>3d</fix>
</trkpt>
<trkpt lat="33.8103662" lon="-118.3945597">
  <ele>-0.11</ele>
  <time>2026-09-02T22:07:28Z</time>
  <course>9.89</course>
  <speed>1.7935439777156288</speed>
  <fix>3d</fix>
</trkpt>
<trkpt lat="33.8103662" lon="-118.3945599">
  <ele>-0.11</ele>
  <time>2026-09-02T22:07:28Z</time>
  <course>9.89</course>
  <speed>1.7935439777156288</speed>
  <fix>3d</fix>
</trkpt>
<trkpt lat="33.8103662" lon="-118.39456">
  <ele>-0.11</ele>
  <time>2026-09-02T22:07:28Z</time>
  <course>9.89</course>
  <speed>1.7935439777156288</speed>
  <fix>3d</fix>
</trkpt>
<trkpt lat="33.8103662" lon="-118.39456">
  <ele>-0.11</ele>
  <time>2026-09-02T22:07:28Z</time>
  <course>9.89</course>
  <speed>1.7935439777156288</speed>
  <fix>3d</fix>
</trkpt>
<trkpt lat="33.810366" lon="-118.3945553">
  <ele>-0.1</ele>
  <time>2026-09-02T22:07:28Z</time>
  <course>277.76</course>
  <speed>1.82</speed>
  <fix>3d</fix>
</trkpt>
<trkpt lat="33.8103663" lon="-118.3945603">
  <ele>-0.11</ele>
  <time>2026-09-02T22:07:28Z</time>
  <course>9.89</course>
  <speed>1.7935439777156288</speed>
  <fix>3d</fix>
</trkpt>
<trkpt lat="33.8103663" lon="-118.3945606">
  <ele>-0.11</ele>
  <time>2026-09-02T22:07:28Z</time>
  <course>9.89</course>
  <speed>1.7935439777156288</speed>
  <fix>3d</fix>
</trkpt>
<trkpt lat="33.8103663" lon="-118.3945608">
  <ele>-0.11</ele>
  <time>2026-09-02T22:07:28Z</time>
  <course>9.9</course>
  <speed>1.7935439777156288</speed>
  <fix>3d</fix>
</trkpt>
<trkpt lat="33.8103663" lon="-118.3945609">
  <ele>-0.11</ele>
  <time>2026-09-02T22:07:28Z</time>
  <course>9.9</course>
  <speed>1.7935439777156288</speed>
  <fix>3d</fix>
</trkpt>
<trkpt lat="33.8103664" lon="-118.3945611">
  <ele>-0.11</ele>
  <time>2026-09-02T22:07:28Z</time>
  <course>9.9</course>
  <speed>1.7935439777156288</speed>
  <fix>3d</fix>
</trkpt>
<trkpt lat="33.8103664" lon="-118.3945613">
  <ele>-0.11</ele>
  <time>2026-09-02T22:07:28Z</time>
  <course>9.9</course>
  <speed>1.7935439777156288</speed>
  <fix>3d</fix>
</trkpt>
<trkpt lat="33.8103664" lon="-118.3945614">
  <ele>-0.11</ele>
  <time>2026-09-02T22:07:28Z</time>
  <course>9.9</course>
  <speed>1.7935439777156288</speed>
  <fix>3d</fix>
</trkpt>
<trkpt lat="33.8103664" lon="-118.3945616">
  <ele>-0.111</ele>
  <time>2026-09-02T22:07:28Z</time>
  <course>9.9</course>
  <speed>1.7935439777156288</speed>
  <fix>3d</fix>
</trkpt>
<trkpt lat="33.8103664" lon="-118.3945618">
  <ele>-0.111</ele>
  <time>2026-09-02T22:07:28Z</time>
  <course>9.9</course>
  <speed>1.7935439777156288</speed>
  <fix>3d</fix>
</trkpt>
<trkpt lat="33.8103665" lon="-118.3945619">
  <ele>-0.111</ele>
  <time>2026-09-02T22:07:28Z</time>
  <course>9.9</course>
  <speed>1.7935439777156288</speed>
  <fix>3d</fix>
</trkpt>
<trkpt lat="33.8103665" lon="-118.394562">
  <ele>-0.111</ele>
  <time>2026-09-02T22:07:28Z</time>
  <course>9.9</course>
  <speed>1.7935439777156288</speed>
  <fix>3d</fix>
</trkpt>
<trkpt lat="33.8103664" lon="-118.3945592">
  <ele>-0.1</ele>
  <time>2026-09-02T22:07:28Z</time>
  <course>277.77</course>
  <speed>1.82</speed>
  <fix>3d</fix>
</trkpt>
<trkpt lat="33.8103665" lon="-118.394562">
  <ele>-0.111</ele>
  <time>2026-09-02T22:07:28Z</time>
  <course>9.9</course>
  <speed>1.7935439777156288</speed>
  <fix>3d</fix>
</trkpt>
<trkpt lat="33.8103665" lon="-118.3945624">
  <ele>-0.111</ele>
  <time>2026-09-02T22:07:28Z</time>
  <course>9.9</course>
  <speed>1.7935439777156288</speed>
  <fix>3d</fix>
</trkpt>
<trkpt lat="33.8103665" lon="-118.3945626">
  <ele>-0.111</ele>
  <time>2026-09-02T22:07:28Z</time>
  <course>9.9</course>
  <speed>1.7935439777156288</speed>
  <fix>3d</fix>
</trkpt>
<trkpt lat="33.8103666" lon="-118.3945628">
  <ele>-0.111</ele>
  <time>2026-09-02T22:07:28Z</time>
  <course>9.9</course>
  <speed>1.7935439777156288</speed>
  <fix>3d</fix>
</trkpt>
<trkpt lat="33.8103666" lon="-118.394563">
  <ele>-0.111</ele>
  <time>2026-09-02T22:07:28Z</time>
  <course>9.9</course>
  <speed>1.7935439777156288</speed>
  <fix>3d</fix>
</trkpt>
<trkpt lat="33.8103666" lon="-118.3945632">
  <ele>-0.112</ele>
  <time>2026-09-02T22:07:28Z</time>
  <course>9.9</course>
  <speed>1.7935439777156288</speed>
  <fix>3d</fix>
</trkpt>
<trkpt lat="33.8103666" lon="-118.3945633">
  <ele>-0.112</ele>
  <time>2026-09-02T22:07:28Z</time>
  <course>9.9</course>
  <speed>1.7935439777156288</speed>
  <fix>3d</fix>
</trkpt>
<trkpt lat="33.8103666" lon="-118.3945634">
  <ele>-0.112</ele>
  <time>2026-09-02T22:07:28Z</time>
  <course>9.9</course>
  <speed>1.7935439777156288</speed>
  <fix>3d</fix>
</trkpt>
<trkpt lat="33.8103667" lon="-118.3945636">
  <ele>-0.112</ele>
  <time>2026-09-02T22:07:28Z</time>
  <course>9.9</course>
  <speed>1.7935439777156288</speed>
  <fix>3d</fix>
</trkpt>
<trkpt lat="33.8103667" lon="-118.3945638">
  <ele>-0.112</ele>
  <time>2026-09-02T22:07:28Z</time>
  <course>9.91</course>
  <speed>1.7935439777156288</speed>
  <fix>3d</fix>
</trkpt>
<trkpt lat="33.8103667" lon="-118.3945639">
  <ele>-0.112</ele>
  <time>2026-09-02T22:07:28Z</time>
  <course>9.91</course>
  <speed>1.7935439777156288</speed>
  <fix>3d</fix>
</trkpt>
<trkpt lat="33.8103664" lon="-118.3945592">
  <ele>-0.1</ele>
  <time>2026-09-02T22:07:28Z</time>
  <course>277.77</course>
  <speed>1.82</speed>
  <fix>3d</fix>
</trkpt>
<trkpt lat="33.8103667" lon="-118.394564">
  <ele>-0.112</ele>
  <time>2026-09-02T22:07:28Z</time>
  <course>9.91</course>
  <speed>1.7935439777156288</speed>
  <fix>3d</fix>
</trkpt>
<trkpt lat="33.8103667" lon="-118.3945642">
  <ele>-0.112</ele>
  <time>2026-09-02T22:07:28Z</time>
  <course>9.91</course>
  <speed>1.7935439777156288</speed>
  <fix>3d</fix>
</trkpt>
<trkpt lat="33.8103667" lon="-118.3945644">
  <ele>-0.113</ele>
  <time>2026-09-02T22:07:28Z</time>
  <course>9.91</course>
  <speed>1.7935439777156288</speed>
  <fix>3d</fix>
</trkpt>
<trkpt lat="33.8103668" lon="-118.3945646">
  <ele>-0.113</ele>
  <time>2026-09-02T22:07:28Z</time>
  <course>9.91</course>
  <speed>1.7935439777156288</speed>
  <fix>3d</fix>
</trkpt>
<trkpt lat="33.8103668" lon="-118.3945648">
  <ele>-0.113</ele>
  <time>2026-09-02T22:07:28Z</time>
  <course>9.91</course>
  <speed>1.7935439777156288</speed>
  <fix>3d</fix>
</trkpt>
<trkpt lat="33.8103668" lon="-118.3945649">
  <ele>-0.113</ele>
  <time>2026-09-02T22:07:28Z</time>
  <course>9.91</course>
  <speed>1.7935439777156288</speed>
  <fix>3d</fix>
</trkpt>
<trkpt lat="33.8103668" lon="-118.3945651">
  <ele>-0.113</ele>
  <time>2026-09-02T22:07:28Z</time>
  <course>9.91</course>
  <speed>1.7935439777156288</speed>
  <fix>3d</fix>
</trkpt>
<trkpt lat="33.8103668" lon="-118.3945653">
  <ele>-0.114</ele>
  <time>2026-09-02T22:07:28Z</time>
  <course>9.91</course>
  <speed>1.7935439777156288</speed>
  <fix>3d</fix>
</trkpt>
<trkpt lat="33.8103669" lon="-118.3945655">
  <ele>-0.114</ele>
  <time>2026-09-02T22:07:28Z</time>
  <course>9.91</course>
  <speed>1.7935439777156288</speed>
  <fix>3d</fix>
</trkpt>
<trkpt lat="33.8103669" lon="-118.3945657">
  <ele>-0.114</ele>
  <time>2026-09-02T22:07:28Z</time>
  <course>9.91</course>
  <speed>1.7935439777156288</speed>
  <fix>3d</fix>
</trkpt>
<trkpt lat="33.8103669" lon="-118.3945658">
  <ele>-0.114</ele>
  <time>2026-09-02T22:07:28Z</time>
  <course>9.91</course>
  <speed>1.7935439777156288</speed>
  <fix>3d</fix>
</trkpt>
<trkpt lat="33.8103669" lon="-118.3945659">
  <ele>-0.114</ele>
  <time>2026-09-02T22:07:28Z</time>
  <course>9.91</course>
  <speed>1.7935439777156288</speed>
  <fix>3d</fix>
</trkpt>
<trkpt lat="33.8103669" lon="-118.3945631">
  <ele>-0.1</ele>
  <time>2026-09-02T22:07:28Z</time>
  <course>277.79</course>
  <speed>1.82</speed>
  <fix>3d</fix>
</trkpt>
<trkpt lat="33.8103669" lon="-118.3945659">
  <ele>-0.114</ele>
  <time>2026-09-02T22:07:28Z</time>
  <course>9.91</course>
  <speed>1.7935439777156288</speed>
  <fix>3d</fix>
</trkpt>
<trkpt lat="33.810367" lon="-118.3945662">
  <ele>-0.114</ele>
  <time>2026-09-02T22:07:28Z</time>
  <course>9.91</course>
  <speed>1.7935439777156288</speed>
  <fix>3d</fix>
</trkpt>
<trkpt lat="33.810367" lon="-118.3945664">
  <ele>-0.115</ele>
  <time>2026-09-02T22:07:28Z</time>
  <course>9.91</course>
  <speed>1.7935439777156288</speed>
  <fix>3d</fix>
</trkpt>
<trkpt lat="33.810367" lon="-118.3945666">
  <ele>-0.115</ele>
  <time>2026-09-02T22:07:28Z</time>
  <course>9.91</course>
  <speed>1.7935439777156288</speed>
  <fix>3d</fix>
</trkpt>
<trkpt lat="33.810367" lon="-118.3945668">
  <ele>-0.115</ele>
  <time>2026-09-02T22:07:28Z</time>
  <course>9.91</course>
  <speed>1.7935439777156288</speed>
  <fix>3d</fix>
</trkpt>
<trkpt lat="33.810367" lon="-118.3945669">
  <ele>-0.115</ele>
  <time>2026-09-02T22:07:28Z</time>
  <course>9.91</course>
  <speed>1.7935439777156288</speed>
  <fix>3d</fix>
</trkpt>
<trkpt lat="33.8103671" lon="-118.3945671">
  <ele>-0.115</ele>
  <time>2026-09-02T22:07:28Z</time>
  <course>9.91</course>
  <speed>1.7935439777156288</speed>
  <fix>3d</fix>
</trkpt>
<trkpt lat="33.8103671" lon="-118.3945672">
  <ele>-0.116</ele>
  <time>2026-09-02T22:07:28Z</time>
  <course>9.92</course>
  <speed>1.7935439777156288</speed>
  <fix>3d</fix>
</trkpt>
<trkpt lat="33.8103671" lon="-118.3945674">
  <ele>-0.116</ele>
  <time>2026-09-02T22:07:28Z</time>
  <course>9.92</course>
  <speed>1.7935439777156288</speed>
  <fix>3d</fix>
</trkpt>
<trkpt lat="33.8103671" lon="-118.3945675">
  <ele>-0.116</ele>
  <time>2026-09-02T22:07:28Z</time>
  <course>9.92</course>
  <speed>1.7935439777156288</speed>
  <fix>3d</fix>
</trkpt>
<trkpt lat="33.8103671" lon="-118.3945676">
  <ele>-0.116</ele>
  <time>2026-09-02T22:07:28Z</time>
  <course>9.92</course>
  <speed>1.7935439777156288</speed>
  <fix>3d</fix>
</trkpt>
<trkpt lat="33.8103671" lon="-118.3945678">
  <ele>-0.116</ele>
  <time>2026-09-02T22:07:28Z</time>
  <course>9.92</course>
  <speed>1.7935439777156288</speed>
  <fix>3d</fix>
</trkpt>
<trkpt lat="33.8103671" lon="-118.3945678">
  <ele>-0.116</ele>
  <time>2026-09-02T22:07:28Z</time>
  <course>9.92</course>
  <speed>1.7935439777156288</speed>
  <fix>3d</fix>
</trkpt>
<trkpt lat="33.8103669" lon="-118.3945631">
  <ele>-0.1</ele>
  <time>2026-09-02T22:07:28Z</time>
  <course>277.79</course>
  <speed>1.82</speed>
  <fix>3d</fix>
</trkpt>
<trkpt lat="33.8103671" lon="-118.3945679">
  <ele>-0.116</ele>
  <time>2026-09-02T22:07:28Z</time>
  <course>9.92</course>
  <speed>1.7935439777156288</speed>
  <fix>3d</fix>
</trkpt>
<trkpt lat="33.8103672" lon="-118.3945682">
  <ele>-0.117</ele>
  <time>2026-09-02T22:07:28Z</time>
  <course>9.92</course>
  <speed>1.7935439777156288</speed>
  <fix>3d</fix>
</trkpt>
<trkpt lat="33.8103672" lon="-118.3945683">
  <ele>-0.117</ele>
  <time>2026-09-02T22:07:28Z</time>
  <course>9.92</course>
  <speed>1.7935439777156288</speed>
  <fix>3d</fix>
</trkpt>
<trkpt lat="33.8103672" lon="-118.3945685">
  <ele>-0.117</ele>
  <time>2026-09-02T22:07:28Z</time>
  <course>9.92</course>
  <speed>1.7935439777156288</speed>
  <fix>3d</fix>
</trkpt>
<trkpt lat="33.8103672" lon="-118.3945687">
  <ele>-0.117</ele>
  <time>2026-09-02T22:07:28Z</time>
  <course>9.92</course>
  <speed>1.7935439777156288</speed>
  <fix>3d</fix>
</trkpt>
<trkpt lat="33.8103673" lon="-118.3945689">
  <ele>-0.117</ele>
  <time>2026-09-02T22:07:28Z</time>
  <course>9.92</course>
  <speed>1.7935439777156288</speed>
  <fix>3d</fix>
</trkpt>
<trkpt lat="33.8103673" lon="-118.394569">
  <ele>-0.117</ele>
  <time>2026-09-02T22:07:28Z</time>
  <course>9.92</course>
  <speed>1.7935439777156288</speed>
  <fix>3d</fix>
</trkpt>
<trkpt lat="33.8103673" lon="-118.3945692">
  <ele>-0.117</ele>
  <time>2026-09-02T22:07:28Z</time>
  <course>9.92</course>
  <speed>1.7935439777156288</speed>
  <fix>3d</fix>
</trkpt>
<trkpt lat="33.8103673" lon="-118.3945693">
  <ele>-0.117</ele>
  <time>2026-09-02T22:07:28Z</time>
  <course>9.92</course>
  <speed>1.7935439777156288</speed>
  <fix>3d</fix>
</trkpt>
<trkpt lat="33.8103673" lon="-118.3945695">
  <ele>-0.117</ele>
  <time>2026-09-02T22:07:28Z</time>
  <course>9.92</course>
  <speed>1.7935439777156288</speed>
  <fix>3d</fix>
</trkpt>
<trkpt lat="33.8103673" lon="-118.3945696">
  <ele>-0.117</ele>
  <time>2026-09-02T22:07:28Z</time>
  <course>9.92</course>
  <speed>1.7935439777156288</speed>
  <fix>3d</fix>
</trkpt>
<trkpt lat="33.8103674" lon="-118.3945698">
  <ele>-0.117</ele>
  <time>2026-09-02T22:07:28Z</time>
  <course>9.92</course>
  <speed>1.7935439777156288</speed>
  <fix>3d</fix>
</trkpt>
<trkpt lat="33.8103674" lon="-118.3945698">
  <ele>-0.117</ele>
  <time>2026-09-02T22:07:28Z</time>
  <course>9.92</course>
  <speed>1.7935439777156288</speed>
  <fix>3d</fix>
</trkpt>
<trkpt lat="33.8103673" lon="-118.394567">
  <ele>-0.1</ele>
  <time>2026-09-02T22:07:28Z</time>
  <course>277.8</course>
  <speed>1.82</speed>
  <fix>3d</fix>
</trkpt>
<trkpt lat="33.8103674" lon="-118.39457">
  <ele>-0.117</ele>
  <time>2026-09-02T22:07:28Z</time>
  <course>9.92</course>
  <speed>1.7935439777156288</speed>
  <fix>3d</fix>
</trkpt>
<trkpt lat="33.8103674" lon="-118.3945702">
  <ele>-0.117</ele>
  <time>2026-09-02T22:07:28Z</time>
  <course>9.92</course>
  <speed>1.7935439777156288</speed>
  <fix>3d</fix>
</trkpt>
<trkpt lat="33.8103674" lon="-118.3945704">
  <ele>-0.117</ele>
  <time>2026-09-02T22:07:28Z</time>
  <course>9.93</course>
  <speed>1.7935439777156288</speed>
  <fix>3d</fix>
</trkpt>
<trkpt lat="33.8103675" lon="-118.3945706">
  <ele>-0.117</ele>
  <time>2026-09-02T22:07:28Z</time>
  <course>9.93</course>
  <speed>1.7935439777156288</speed>
  <fix>3d</fix>
</trkpt>
<trkpt lat="33.8103675" lon="-118.3945708">
  <ele>-0.118</ele>
  <time>2026-09-02T22:07:28Z</time>
  <course>9.93</course>
  <speed>1.7935439777156288</speed>
  <fix>3d</fix>
</trkpt>
<trkpt lat="33.8103675" lon="-118.394571">
  <ele>-0.118</ele>
  <time>2026-09-02T22:07:28Z</time>
  <course>9.93</course>
  <speed>1.7935439777156288</speed>
  <fix>3d</fix>
</trkpt>
<trkpt lat="33.8103675" lon="-118.3945711">
  <ele>-0.118</ele>
  <time>2026-09-02T22:07:28Z</time>
  <course>9.93</course>
  <speed>1.7935439777156288</speed>
  <fix>3d</fix>
</trkpt>
<trkpt lat="33.8103675" lon="-118.3945713">
  <ele>-0.118</ele>
  <time>2026-09-02T22:07:28Z</time>
  <course>9.93</course>
  <speed>1.7935439777156288</speed>
  <fix>3d</fix>
</trkpt>
<trkpt lat="33.8103675" lon="-118.3945714">
  <ele>-0.118</ele>
  <time>2026-09-02T22:07:28Z</time>
  <course>9.93</course>
  <speed>1.7935439777156288</speed>
  <fix>3d</fix>
</trkpt>
<trkpt lat="33.8103676" lon="-118.3945715">
  <ele>-0.118</ele>
  <time>2026-09-02T22:07:28Z</time>
  <course>9.93</course>
  <speed>1.7935439777156288</speed>
  <fix>3d</fix>
</trkpt>
<trkpt lat="33.8103676" lon="-118.3945717">
  <ele>-0.118</ele>
  <time>2026-09-02T22:07:28Z</time>
  <course>9.93</course>
  <speed>1.7935439777156288</speed>
  <fix>3d</fix>
</trkpt>
<trkpt lat="33.8103676" lon="-118.3945717">
  <ele>-0.118</ele>
  <time>2026-09-02T22:07:28Z</time>
  <course>9.93</course>
  <speed>1.7935439777156288</speed>
  <fix>3d</fix>
</trkpt>
<trkpt lat="33.8103673" lon="-118.394567">
  <ele>-0.1</ele>
  <time>2026-09-02T22:07:28Z</time>
  <course>277.8</course>
  <speed>1.82</speed>
  <fix>3d</fix>
</trkpt>
<trkpt lat="33.8103676" lon="-118.394572">
  <ele>-0.118</ele>
  <time>2026-09-02T22:07:28Z</time>
  <course>9.93</course>
  <speed>1.7935439777156288</speed>
  <fix>3d</fix>
</trkpt>
<trkpt lat="33.8103676" lon="-118.3945722">
  <ele>-0.118</ele>
  <time>2026-09-02T22:07:28Z</time>
  <course>9.93</course>
  <speed>1.7935439777156288</speed>
  <fix>3d</fix>
</trkpt>
<trkpt lat="33.8103677" lon="-118.3945724">
  <ele>-0.118</ele>
  <time>2026-09-02T22:07:28Z</time>
  <course>9.93</course>
  <speed>1.7935439777156288</speed>
  <fix>3d</fix>
</trkpt>
<trkpt lat="33.8103677" lon="-118.3945726">
  <ele>-0.118</ele>
  <time>2026-09-02T22:07:28Z</time>
  <course>9.93</course>
  <speed>1.7935439777156288</speed>
  <fix>3d</fix>
</trkpt>
<trkpt lat="33.8103677" lon="-118.3945727">
  <ele>-0.118</ele>
  <time>2026-09-02T22:07:28Z</time>
  <course>9.93</course>
  <speed>1.7935439777156288</speed>
  <fix>3d</fix>
</trkpt>
<trkpt lat="33.8103677" lon="-118.3945729">
  <ele>-0.118</ele>
  <time>2026-09-02T22:07:28Z</time>
  <course>9.93</course>
  <speed>1.7935439777156288</speed>
  <fix>3d</fix>
</trkpt>
<trkpt lat="33.8103677" lon="-118.3945731">
  <ele>-0.118</ele>
  <time>2026-09-02T22:07:28Z</time>
  <course>9.93</course>
  <speed>1.7935439777156288</speed>
  <fix>3d</fix>
</trkpt>
<trkpt lat="33.8103678" lon="-118.3945732">
  <ele>-0.118</ele>
  <time>2026-09-02T22:07:28Z</time>
  <course>9.93</course>
  <speed>1.7935439777156288</speed>
  <fix>3d</fix>
</trkpt>
<trkpt lat="33.8103678" lon="-118.3945734">
  <ele>-0.119</ele>
  <time>2026-09-02T22:07:28Z</time>
  <course>9.93</course>
  <speed>1.7935439777156288</speed>
  <fix>3d</fix>
</trkpt>
<trkpt lat="33.8103678" lon="-118.3945736">
  <ele>-0.119</ele>
  <time>2026-09-02T22:07:28Z</time>
  <course>9.93</course>
  <speed>1.7935439777156288</speed>
  <fix>3d</fix>
</trkpt>
<trkpt lat="33.8103678" lon="-118.3945737">
  <ele>-0.119</ele>
  <time>2026-09-02T22:07:28Z</time>
  <course>9.93</course>
  <speed>1.7935439777156288</speed>
  <fix>3d</fix>
</trkpt>
<trkpt lat="33.8103677" lon="-118.3945709">
  <ele>-0.1</ele>
  <time>2026-09-02T22:07:28Z</time>
  <course>277.82</course>
  <speed>1.82</speed>
  <fix>3d</fix>
</trkpt>
<trkpt lat="33.8103678" lon="-118.3945737">
  <ele>-0.119</ele>
  <time>2026-09-02T22:07:28Z</time>
  <course>9.93</course>
  <speed>1.7935439777156288</speed>
  <fix>3d</fix>
</trkpt>
<trkpt lat="33.8103678" lon="-118.3945739">
  <ele>-0.119</ele>
  <time>2026-09-02T22:07:28Z</time>
  <course>9.94</course>
  <speed>1.7935439777156288</speed>
  <fix>3d</fix>
</trkpt>
<trkpt lat="33.8103679" lon="-118.3945741">
  <ele>-0.119</ele>
  <time>2026-09-02T22:07:28Z</time>
  <course>9.94</course>
  <speed>1.7935439777156288</speed>
  <fix>3d</fix>
</trkpt>
<trkpt lat="33.8103679" lon="-118.3945743">
  <ele>-0.119</ele>
  <time>2026-09-02T22:07:28Z</time>
  <course>9.94</course>
  <speed>1.7935439777156288</speed>
  <fix>3d</fix>
</trkpt>
<trkpt lat="33.8103679" lon="-118.3945744">
  <ele>-0.119</ele>
  <time>2026-09-02T22:07:28Z</time>
  <course>9.94</course>
  <speed>1.7935439777156288</speed>
  <fix>3d</fix>
</trkpt>
<trkpt lat="33.8103679" lon="-118.3945746">
  <ele>-0.119</ele>
  <time>2026-09-02T22:07:28Z</time>
  <course>9.94</course>
  <speed>1.7935439777156288</speed>
  <fix>3d</fix>
</trkpt>
<trkpt lat="33.8103679" lon="-118.3945747">
  <ele>-0.119</ele>
  <time>2026-09-02T22:07:28Z</time>
  <course>9.94</course>
  <speed>1.7935439777156288</speed>
  <fix>3d</fix>
</trkpt>
<trkpt lat="33.8103679" lon="-118.3945749">
  <ele>-0.119</ele>
  <time>2026-09-02T22:07:28Z</time>
  <course>9.94</course>
  <speed>1.7935439777156288</speed>
  <fix>3d</fix>
</trkpt>
<trkpt lat="33.810368" lon="-118.394575">
  <ele>-0.119</ele>
  <time>2026-09-02T22:07:28Z</time>
  <course>9.94</course>
  <speed>1.7935439777156288</speed>
  <fix>3d</fix>
</trkpt>
<trkpt lat="33.810368" lon="-118.3945752">
  <ele>-0.119</ele>
  <time>2026-09-02T22:07:28Z</time>
  <course>9.94</course>
  <speed>1.7935439777156288</speed>
  <fix>3d</fix>
</trkpt>
<trkpt lat="33.810368" lon="-118.3945753">
  <ele>-0.119</ele>
  <time>2026-09-02T22:07:28Z</time>
  <course>9.94</course>
  <speed>1.7935439777156288</speed>
  <fix>3d</fix>
</trkpt>
<trkpt lat="33.810368" lon="-118.3945755">
  <ele>-0.119</ele>
  <time>2026-09-02T22:07:28Z</time>
  <course>9.94</course>
  <speed>1.7935439777156288</speed>
  <fix>3d</fix>
</trkpt>
<trkpt lat="33.810368" lon="-118.3945756">
  <ele>-0.119</ele>
  <time>2026-09-02T22:07:28Z</time>
  <course>9.94</course>
  <speed>1.7935439777156288</speed>
  <fix>3d</fix>
</trkpt>
<trkpt lat="33.810368" lon="-118.3945757">
  <ele>-0.119</ele>
  <time>2026-09-02T22:07:28Z</time>
  <course>9.94</course>
  <speed>1.7935439777156288</speed>
  <fix>3d</fix>
</trkpt>
<trkpt lat="33.8103677" lon="-118.3945709">
  <ele>-0.1</ele>
  <time>2026-09-02T22:07:28Z</time>
  <course>277.82</course>
  <speed>1.82</speed>
  <fix>3d</fix>
</trkpt>
<trkpt lat="33.810368" lon="-118.3945757">
  <ele>-0.119</ele>
  <time>2026-09-02T22:07:28Z</time>
  <course>9.94</course>
  <speed>1.7935439777156288</speed>
  <fix>3d</fix>
</trkpt>
<trkpt lat="33.8103681" lon="-118.394576">
  <ele>-0.12</ele>
  <time>2026-09-02T22:07:28Z</time>
  <course>9.94</course>
  <speed>1.7935439777156288</speed>
  <fix>3d</fix>
</trkpt>
<trkpt lat="33.8103681" lon="-118.3945761">
  <ele>-0.12</ele>
  <time>2026-09-02T22:07:28Z</time>
  <course>9.94</course>
  <speed>1.7935439777156288</speed>
  <fix>3d</fix>
</trkpt>
<trkpt lat="33.8103681" lon="-118.3945763">
  <ele>-0.12</ele>
  <time>2026-09-02T22:07:28Z</time>
  <course>9.94</course>
  <speed>1.7935439777156288</speed>
  <fix>3d</fix>
</trkpt>
<trkpt lat="33.8103681" lon="-118.3945765">
  <ele>-0.12</ele>
  <time>2026-09-02T22:07:28Z</time>
  <course>9.94</course>
  <speed>1.7935439777156288</speed>
  <fix>3d</fix>
</trkpt>
<trkpt lat="33.8103681" lon="-118.3945766">
  <ele>-0.12</ele>
  <time>2026-09-02T22:07:28Z</time>
  <course>9.94</course>
  <speed>1.7935439777156288</speed>
  <fix>3d</fix>
</trkpt>
<trkpt lat="33.8103682" lon="-118.3945768">
  <ele>-0.12</ele>
  <time>2026-09-02T22:07:28Z</time>
  <course>9.94</course>
  <speed>1.7935439777156288</speed>
  <fix>3d</fix>
</trkpt>
<trkpt lat="33.8103682" lon="-118.3945769">
  <ele>-0.12</ele>
  <time>2026-09-02T22:07:28Z</time>
  <course>9.94</course>
  <speed>1.7935439777156288</speed>
  <fix>3d</fix>
</trkpt>
<trkpt lat="33.8103682" lon="-118.3945771">
  <ele>-0.12</ele>
  <time>2026-09-02T22:07:28Z</time>
  <course>9.95</course>
  <speed>1.7935439777156288</speed>
  <fix>3d</fix>
</trkpt>
<trkpt lat="33.8103682" lon="-118.3945772">
  <ele>-0.12</ele>
  <time>2026-09-02T22:07:28Z</time>
  <course>9.95</course>
  <speed>1.7935439777156288</speed>
  <fix>3d</fix>
</trkpt>
<trkpt lat="33.8103682" lon="-118.3945774">
  <ele>-0.12</ele>
  <time>2026-09-02T22:07:28Z</time>
  <course>9.95</course>
  <speed>1.7935439777156288</speed>
  <fix>3d</fix>
</trkpt>
<trkpt lat="33.8103682" lon="-118.3945775">
  <ele>-0.12</ele>
  <time>2026-09-02T22:07:28Z</time>
  <course>9.95</course>
  <speed>1.7935439777156288</speed>
  <fix>3d</fix>
</trkpt>
<trkpt lat="33.8103683" lon="-118.3945776">
  <ele>-0.12</ele>
  <time>2026-09-02T22:07:28Z</time>
  <course>9.95</course>
  <speed>1.7935439777156288</speed>
  <fix>3d</fix>
</trkpt>
<trkpt lat="33.8103682" lon="-118.3945748">
  <ele>-0.1</ele>
  <time>2026-09-02T22:07:28Z</time>
  <course>277.83</course>
  <speed>1.82</speed>
  <fix>3d</fix>
</trkpt>
<trkpt lat="33.8103683" lon="-118.3945777">
  <ele>-0.12</ele>
  <time>2026-09-02T22:07:28Z</time>
  <course>9.95</course>
  <speed>1.7935439777156288</speed>
  <fix>3d</fix>
</trkpt>
<trkpt lat="33.8103683" lon="-118.394578">
  <ele>-0.12</ele>
  <time>2026-09-02T22:07:28Z</time>
  <course>9.95</course>
  <speed>1.7935439777156288</speed>
  <fix>3d</fix>
</trkpt>
<trkpt lat="33.8103683" lon="-118.3945782">
  <ele>-0.12</ele>
  <time>2026-09-02T22:07:28Z</time>
  <course>9.95</course>
  <speed>1.7935439777156288</speed>
  <fix>3d</fix>
</trkpt>
<trkpt lat="33.8103683" lon="-118.3945783">
  <ele>-0.12</ele>
  <time>2026-09-02T22:07:28Z</time>
  <course>9.95</course>
  <speed>1.7935439777156288</speed>
  <fix>3d</fix>
</trkpt>
<trkpt lat="33.8103684" lon="-118.3945784">
  <ele>-0.12</ele>
  <time>2026-09-02T22:07:28Z</time>
  <course>9.95</course>
  <speed>1.7935439777156288</speed>
  <fix>3d</fix>
</trkpt>
<trkpt lat="33.8103684" lon="-118.3945786">
  <ele>-0.12</ele>
  <time>2026-09-02T22:07:28Z</time>
  <course>9.95</course>
  <speed>1.7935439777156288</speed>
  <fix>3d</fix>
</trkpt>
<trkpt lat="33.8103684" lon="-118.3945788">
  <ele>-0.12</ele>
  <time>2026-09-02T22:07:28Z</time>
  <course>9.95</course>
  <speed>1.7935439777156288</speed>
  <fix>3d</fix>
</trkpt>
<trkpt lat="33.8103684" lon="-118.3945789">
  <ele>-0.12</ele>
  <time>2026-09-02T22:07:28Z</time>
  <course>9.95</course>
  <speed>1.7935439777156288</speed>
  <fix>3d</fix>
</trkpt>
<trkpt lat="33.8103684" lon="-118.3945791">
  <ele>-0.119</ele>
  <time>2026-09-02T22:07:28Z</time>
  <course>9.95</course>
  <speed>1.7935439777156288</speed>
  <fix>3d</fix>
</trkpt>
<trkpt lat="33.8103684" lon="-118.3945793">
  <ele>-0.119</ele>
  <time>2026-09-02T22:07:28Z</time>
  <course>9.95</course>
  <speed>1.7935439777156288</speed>
  <fix>3d</fix>
</trkpt>
<trkpt lat="33.8103685" lon="-118.3945795">
  <ele>-0.119</ele>
  <time>2026-09-02T22:07:28Z</time>
  <course>9.95</course>
  <speed>1.7935439777156288</speed>
  <fix>3d</fix>
</trkpt>
<trkpt lat="33.8103685" lon="-118.3945796">
  <ele>-0.119</ele>
  <time>2026-09-02T22:07:28Z</time>
  <course>9.95</course>
  <speed>1.7935439777156288</speed>
  <fix>3d</fix>
</trkpt>
<trkpt lat="33.8103682" lon="-118.3945748">
  <ele>-0.1</ele>
  <time>2026-09-02T22:07:28Z</time>
  <course>277.83</course>
  <speed>1.82</speed>
  <fix>3d</fix>
</trkpt>
<trkpt lat="33.8103685" lon="-118.3945796">
  <ele>-0.119</ele>
  <time>2026-09-02T22:07:28Z</time>
  <course>9.95</course>
  <speed>1.7935439777156288</speed>
  <fix>3d</fix>
</trkpt>
<trkpt lat="33.8103685" lon="-118.3945799">
  <ele>-0.119</ele>
  <time>2026-09-02T22:07:28Z</time>
  <course>9.95</course>
  <speed>1.7935439777156288</speed>
  <fix>3d</fix>
</trkpt>
<trkpt lat="33.8103685" lon="-118.3945801">
  <ele>-0.119</ele>
  <time>2026-09-02T22:07:28Z</time>
  <course>9.95</course>
  <speed>1.7935439777156288</speed>
  <fix>3d</fix>
</trkpt>
<trkpt lat="33.8103686" lon="-118.3945803">
  <ele>-0.119</ele>
  <time>2026-09-02T22:07:28Z</time>
  <course>9.95</course>
  <speed>1.7935439777156288</speed>
  <fix>3d</fix>
</trkpt>
<trkpt lat="33.8103686" lon="-118.3945804">
  <ele>-0.118</ele>
  <time>2026-09-02T22:07:28Z</time>
  <course>9.96</course>
  <speed>1.7935439777156288</speed>
  <fix>3d</fix>
</trkpt>
<trkpt lat="33.8103686" lon="-118.3945806">
  <ele>-0.119</ele>
  <time>2026-09-02T22:07:28Z</time>
  <course>9.96</course>
  <speed>1.7935439777156288</speed>
  <fix>3d</fix>
</trkpt>
<trkpt lat="33.8103686" lon="-118.3945808">
  <ele>-0.118</ele>
  <time>2026-09-02T22:07:28Z</time>
  <course>9.96</course>
  <speed>1.7935439777156288</speed>
  <fix>3d</fix>
</trkpt>
<trkpt lat="33.8103686" lon="-118.3945809">
  <ele>-0.118</ele>
  <time>2026-09-02T22:07:28Z</time>
  <course>9.96</course>
  <speed>1.7935439777156288</speed>
  <fix>3d</fix>
</trkpt>
<trkpt lat="33.8103687" lon="-118.3945811">
  <ele>-0.118</ele>
  <time>2026-09-02T22:07:28Z</time>
  <course>9.96</course>
  <speed>1.7935439777156288</speed>
  <fix>3d</fix>
</trkpt>
<trkpt lat="33.8103687" lon="-118.3945813">
  <ele>-0.118</ele>
  <time>2026-09-02T22:07:28Z</time>
  <course>9.96</course>
  <speed>1.7935439777156288</speed>
  <fix>3d</fix>
</trkpt>
<trkpt lat="33.8103687" lon="-118.3945815">
  <ele>-0.118</ele>
  <time>2026-09-02T22:07:28Z</time>
  <course>9.96</course>
  <speed>1.7935439777156288</speed>
  <fix>3d</fix>
</trkpt>
<trkpt lat="33.8103687" lon="-118.3945815">
  <ele>-0.118</ele>
  <time>2026-09-02T22:07:28Z</time>
  <course>9.96</course>
  <speed>1.7935439777156288</speed>
  <fix>3d</fix>
</trkpt>
<trkpt lat="33.8103686" lon="-118.3945787">
  <ele>-0.1</ele>
  <time>2026-09-02T22:07:28Z</time>
  <course>277.84</course>
  <speed>1.82</speed>
  <fix>3d</fix>
</trkpt>
<trkpt lat="33.8103687" lon="-118.3945816">
  <ele>-0.118</ele>
  <time>2026-09-02T22:07:28Z</time>
  <course>9.96</course>
  <speed>1.7935439777156288</speed>
  <fix>3d</fix>
</trkpt>
<trkpt lat="33.8103687" lon="-118.3945818">
  <ele>-0.118</ele>
  <time>2026-09-02T22:07:28Z</time>
  <course>9.96</course>
  <speed>1.7935439777156288</speed>
  <fix>3d</fix>
</trkpt>
<trkpt lat="33.8103688" lon="-118.394582">
  <ele>-0.117</ele>
  <time>2026-09-02T22:07:28Z</time>
  <course>9.96</course>
  <speed>1.7935439777156288</speed>
  <fix>3d</fix>
</trkpt>
<trkpt lat="33.8103688" lon="-118.3945822">
  <ele>-0.117</ele>
  <time>2026-09-02T22:07:28Z</time>
  <course>9.96</course>
  <speed>1.7935439777156288</speed>
  <fix>3d</fix>
</trkpt>
<trkpt lat="33.8103688" lon="-118.3945824">
  <ele>-0.117</ele>
  <time>2026-09-02T22:07:28Z</time>
  <course>9.96</course>
  <speed>1.7935439777156288</speed>
  <fix>3d</fix>
</trkpt>
<trkpt lat="33.8103688" lon="-118.3945826">
  <ele>-0.117</ele>
  <time>2026-09-02T22:07:28Z</time>
  <course>9.96</course>
  <speed>1.7935439777156288</speed>
  <fix>3d</fix>
</trkpt>
<trkpt lat="33.8103688" lon="-118.3945828">
  <ele>-0.117</ele>
  <time>2026-09-02T22:07:28Z</time>
  <course>9.96</course>
  <speed>1.7935439777156288</speed>
  <fix>3d</fix>
</trkpt>
<trkpt lat="33.8103689" lon="-118.3945829">
  <ele>-0.117</ele>
  <time>2026-09-02T22:07:28Z</time>
  <course>9.96</course>
  <speed>1.7935439777156288</speed>
  <fix>3d</fix>
</trkpt>
<trkpt lat="33.8103689" lon="-118.3945831">
  <ele>-0.117</ele>
  <time>2026-09-02T22:07:28Z</time>
  <course>9.96</course>
  <speed>1.7935439777156288</speed>
  <fix>3d</fix>
</trkpt>
<trkpt lat="33.8103689" lon="-118.3945832">
  <ele>-0.117</ele>
  <time>2026-09-02T22:07:28Z</time>
  <course>9.96</course>
  <speed>1.7935439777156288</speed>
  <fix>3d</fix>
</trkpt>
<trkpt lat="33.8103689" lon="-118.3945834">
  <ele>-0.117</ele>
  <time>2026-09-02T22:07:28Z</time>
  <course>9.96</course>
  <speed>1.7935439777156288</speed>
  <fix>3d</fix>
</trkpt>
<trkpt lat="33.8103689" lon="-118.3945835">
  <ele>-0.117</ele>
  <time>2026-09-02T22:07:28Z</time>
  <course>9.96</course>
  <speed>1.7935439777156288</speed>
  <fix>3d</fix>
</trkpt>
<trkpt lat="33.8103686" lon="-118.3945787">
  <ele>-0.1</ele>
  <time>2026-09-02T22:07:28Z</time>
  <course>277.84</course>
  <speed>1.82</speed>
  <fix>3d</fix>
</trkpt>
<trkpt lat="33.8103689" lon="-118.3945835">
  <ele>-0.117</ele>
  <time>2026-09-02T22:07:28Z</time>
  <course>9.96</course>
  <speed>1.7935439777156288</speed>
  <fix>3d</fix>
</trkpt>
<trkpt lat="33.810369" lon="-118.3945838">
  <ele>-0.117</ele>
  <time>2026-09-02T22:07:28Z</time>
  <course>9.97</course>
  <speed>1.7935439777156288</speed>
  <fix>3d</fix>
</trkpt>
<trkpt lat="33.810369" lon="-118.394584">
  <ele>-0.116</ele>
  <time>2026-09-02T22:07:28Z</time>
  <course>9.97</course>
  <speed>1.7935439777156288</speed>
  <fix>3d</fix>
</trkpt>
<trkpt lat="33.810369" lon="-118.3945841">
  <ele>-0.116</ele>
  <time>2026-09-02T22:07:28Z</time>
  <course>9.97</course>
  <speed>1.7935439777156288</speed>
  <fix>3d</fix>
</trkpt>
<trkpt lat="33.810369" lon="-118.3945843">
  <ele>-0.116</ele>
  <time>2026-09-02T22:07:28Z</time>
  <course>9.97</course>
  <speed>1.7935439777156288</speed>
  <fix>3d</fix>
</trkpt>
<trkpt lat="33.810369" lon="-118.3945844">
  <ele>-0.116</ele>
  <time>2026-09-02T22:07:28Z</time>
  <course>9.97</course>
  <speed>1.7935439777156288</speed>
  <fix>3d</fix>
</trkpt>
<trkpt lat="33.8103691" lon="-118.3945846">
  <ele>-0.116</ele>
  <time>2026-09-02T22:07:28Z</time>
  <course>9.97</course>
  <speed>1.7935439777156288</speed>
  <fix>3d</fix>
</trkpt>
<trkpt lat="33.8103691" lon="-118.3945847">
  <ele>-0.116</ele>
  <time>2026-09-02T22:07:28Z</time>
  <course>9.97</course>
  <speed>1.7935439777156288</speed>
  <fix>3d</fix>
</trkpt>
<trkpt lat="33.8103691" lon="-118.3945849">
  <ele>-0.116</ele>
  <time>2026-09-02T22:07:28Z</time>
  <course>9.97</course>
  <speed>1.7935439777156288</speed>
  <fix>3d</fix>
</trkpt>
<trkpt lat="33.8103691" lon="-118.394585">
  <ele>-0.116</ele>
  <time>2026-09-02T22:07:28Z</time>
  <course>9.97</course>
  <speed>1.7935439777156288</speed>
  <fix>3d</fix>
</trkpt>
<trkpt lat="33.8103691" lon="-118.3945852">
  <ele>-0.116</ele>
  <time>2026-09-02T22:07:28Z</time>
  <course>9.97</course>
  <speed>1.7935439777156288</speed>
  <fix>3d</fix>
</trkpt>
<trkpt lat="33.8103691" lon="-118.3945852">
  <ele>-0.116</ele>
  <time>2026-09-02T22:07:28Z</time>
  <course>9.97</course>
  <speed>1.7935439777156288</speed>
  <fix>3d</fix>
</trkpt>
<trkpt lat="33.8103692" lon="-118.3945854">
  <ele>-0.116</ele>
  <time>2026-09-02T22:07:28Z</time>
  <course>9.97</course>
  <speed>1.7935439777156288</speed>
  <fix>3d</fix>
</trkpt>
<trkpt lat="33.8103692" lon="-118.3945854">
  <ele>-0.116</ele>
  <time>2026-09-02T22:07:28Z</time>
  <course>9.97</course>
  <speed>1.7935439777156288</speed>
  <fix>3d</fix>
</trkpt>
<trkpt lat="33.8103691" lon="-118.3945826">
  <ele>-0.1</ele>
  <time>2026-09-02T22:07:28Z</time>
  <course>277.86</course>
  <speed>1.82</speed>
  <fix>3d</fix>
</trkpt>
<trkpt lat="33.8103692" lon="-118.3945857">
  <ele>-0.116</ele>
  <time>2026-09-02T22:07:28Z</time>
  <course>9.97</course>
  <speed>1.7935439777156288</speed>
  <fix>3d</fix>
</trkpt>
<trkpt lat="33.8103692" lon="-118.3945859">
  <ele>-0.116</ele>
  <time>2026-09-02T22:07:28Z</time>
  <course>9.97</course>
  <speed>1.7935439777156288</speed>
  <fix>3d</fix>
</trkpt>
<trkpt lat="33.8103692" lon="-118.394586">
  <ele>-0.116</ele>
  <time>2026-09-02T22:07:28Z</time>
  <course>9.97</course>
  <speed>1.7935439777156288</speed>
  <fix>3d</fix>
</trkpt>
<trkpt lat="33.8103692" lon="-118.3945862">
  <ele>-0.116</ele>
  <time>2026-09-02T22:07:28Z</time>
  <course>9.97</course>
  <speed>1.7935439777156288</speed>
  <fix>3d</fix>
</trkpt>
<trkpt lat="33.8103693" lon="-118.3945863">
  <ele>-0.116</ele>
  <time>2026-09-02T22:07:28Z</time>
  <course>9.97</course>
  <speed>1.7935439777156288</speed>
  <fix>3d</fix>
</trkpt>
<trkpt lat="33.8103693" lon="-118.3945865">
  <ele>-0.116</ele>
  <time>2026-09-02T22:07:28Z</time>
  <course>9.97</course>
  <speed>1.7935439777156288</speed>
  <fix>3d</fix>
</trkpt>
<trkpt lat="33.8103693" lon="-118.3945866">
  <ele>-0.116</ele>
  <time>2026-09-02T22:07:28Z</time>
  <course>9.97</course>
  <speed>1.7935439777156288</speed>
  <fix>3d</fix>
</trkpt>
<trkpt lat="33.8103693" lon="-118.3945868">
  <ele>-0.116</ele>
  <time>2026-09-02T22:07:28Z</time>
  <course>9.97</course>
  <speed>1.7935439777156288</speed>
  <fix>3d</fix>
</trkpt>
<trkpt lat="33.8103693" lon="-118.394587">
  <ele>-0.116</ele>
  <time>2026-09-02T22:07:28Z</time>
  <course>9.97</course>
  <speed>1.7935439777156288</speed>
  <fix>3d</fix>
</trkpt>
<trkpt lat="33.8103694" lon="-118.3945872">
  <ele>-0.116</ele>
  <time>2026-09-02T22:07:28Z</time>
  <course>9.98</course>
  <speed>1.7935439777156288</speed>
  <fix>3d</fix>
</trkpt>
<trkpt lat="33.8103694" lon="-118.3945873">
  <ele>-0.116</ele>
  <time>2026-09-02T22:07:28Z</time>
  <course>9.98</course>
  <speed>1.7935439777156288</speed>
  <fix>3d</fix>
</trkpt>
<trkpt lat="33.8103694" lon="-118.3945874">
  <ele>-0.116</ele>
  <time>2026-09-02T22:07:28Z</time>
  <course>9.98</course>
  <speed>1.7935439777156288</speed>
  <fix>3d</fix>
</trkpt>
<trkpt lat="33.8103691" lon="-118.3945826">
  <ele>-0.1</ele>
  <time>2026-09-02T22:07:28Z</time>
  <course>277.86</course>
  <speed>1.82</speed>
  <fix>3d</fix>
</trkpt>
<trkpt lat="33.8103694" lon="-118.3945874">
  <ele>-0.116</ele>
  <time>2026-09-02T22:07:28Z</time>
  <course>9.98</course>
  <speed>1.7935439777156288</speed>
  <fix>3d</fix>
</trkpt>
<trkpt lat="33.8103694" lon="-118.3945877">
  <ele>-0.116</ele>
  <time>2026-09-02T22:07:28Z</time>
  <course>9.98</course>
  <speed>1.7935439777156288</speed>
  <fix>3d</fix>
</trkpt>
<trkpt lat="33.8103694" lon="-118.3945878">
  <ele>-0.116</ele>
  <time>2026-09-02T22:07:28Z</time>
  <course>9.98</course>
  <speed>1.7935439777156288</speed>
  <fix>3d</fix>
</trkpt>
<trkpt lat="33.8103695" lon="-118.394588">
  <ele>-0.116</ele>
  <time>2026-09-02T22:07:28Z</time>
  <course>9.98</course>
  <speed>1.7935439777156288</speed>
  <fix>3d</fix>
</trkpt>
<trkpt lat="33.8103695" lon="-118.3945882">
  <ele>-0.116</ele>
  <time>2026-09-02T22:07:28Z</time>
  <course>9.98</course>
  <speed>1.7935439777156288</speed>
  <fix>3d</fix>
</trkpt>
<trkpt lat="33.8103695" lon="-118.3945884">
  <ele>-0.116</ele>
  <time>2026-09-02T22:07:28Z</time>
  <course>9.98</course>
  <speed>1.7935439777156288</speed>
  <fix>3d</fix>
</trkpt>
<trkpt lat="33.8103695" lon="-118.3945886">
  <ele>-0.115</ele>
  <time>2026-09-02T22:07:28Z</time>
  <course>9.98</course>
  <speed>1.7935439777156288</speed>
  <fix>3d</fix>
</trkpt>
<trkpt lat="33.8103695" lon="-118.3945887">
  <ele>-0.115</ele>
  <time>2026-09-02T22:07:28Z</time>
  <course>9.98</course>
  <speed>1.7935439777156288</speed>
  <fix>3d</fix>
</trkpt>
<trkpt lat="33.8103696" lon="-118.3945889">
  <ele>-0.115</ele>
  <time>2026-09-02T22:07:28Z</time>
  <course>9.98</course>
  <speed>1.7935439777156288</speed>
  <fix>3d</fix>
</trkpt>
<trkpt lat="33.8103696" lon="-118.3945891">
  <ele>-0.115</ele>
  <time>2026-09-02T22:07:28Z</time>
  <course>9.98</course>
  <speed>1.7935439777156288</speed>
  <fix>3d</fix>
</trkpt>
<trkpt lat="33.8103696" lon="-118.3945892">
  <ele>-0.115</ele>
  <time>2026-09-02T22:07:28Z</time>
  <course>9.98</course>
  <speed>1.7935439777156288</speed>
  <fix>3d</fix>
</trkpt>
<trkpt lat="33.8103696" lon="-118.3945893">
  <ele>-0.115</ele>
  <time>2026-09-02T22:07:28Z</time>
  <course>9.98</course>
  <speed>1.7935439777156288</speed>
  <fix>3d</fix>
</trkpt>
<trkpt lat="33.8103695" lon="-118.3945865">
  <ele>-0.1</ele>
  <time>2026-09-02T22:07:28Z</time>
  <course>277.87</course>
  <speed>1.82</speed>
  <fix>3d</fix>
</trkpt>
<trkpt lat="33.8103696" lon="-118.3945894">
  <ele>-0.115</ele>
  <time>2026-09-02T22:07:28Z</time>
  <course>9.98</course>
  <speed>1.7935439777156288</speed>
  <fix>3d</fix>
</trkpt>
<trkpt lat="33.8103696" lon="-118.3945896">
  <ele>-0.115</ele>
  <time>2026-09-02T22:07:28Z</time>
  <course>9.98</course>
  <speed>1.7935439777156288</speed>
  <fix>3d</fix>
</trkpt>
<trkpt lat="33.8103697" lon="-118.3945898">
  <ele>-0.114</ele>
  <time>2026-09-02T22:07:28Z</time>
  <course>9.98</course>
  <speed>1.7935439777156288</speed>
  <fix>3d</fix>
</trkpt>
<trkpt lat="33.8103697" lon="-118.3945899">
  <ele>-0.114</ele>
  <time>2026-09-02T22:07:28Z</time>
  <course>9.98</course>
  <speed>1.7935439777156288</speed>
  <fix>3d</fix>
</trkpt>
<trkpt lat="33.8103697" lon="-118.3945901">
  <ele>-0.114</ele>
  <time>2026-09-02T22:07:28Z</time>
  <course>9.98</course>
  <speed>1.7935439777156288</speed>
  <fix>3d</fix>
</trkpt>
<trkpt lat="33.8103697" lon="-118.3945903">
  <ele>-0.114</ele>
  <time>2026-09-02T22:07:28Z</time>
  <course>9.98</course>
  <speed>1.7935439777156288</speed>
  <fix>3d</fix>
</trkpt>
<trkpt lat="33.8103697" lon="-118.3945905">
  <ele>-0.114</ele>
  <time>2026-09-02T22:07:28Z</time>
  <course>9.99</course>
  <speed>1.7935439777156288</speed>
  <fix>3d</fix>
</trkpt>
<trkpt lat="33.8103698" lon="-118.3945906">
  <ele>-0.114</ele>
  <time>2026-09-02T22:07:28Z</time>
  <course>9.99</course>
  <speed>1.7935439777156288</speed>
  <fix>3d</fix>
</trkpt>
<trkpt lat="33.8103698" lon="-118.3945908">
  <ele>-0.114</ele>
  <time>2026-09-02T22:07:28Z</time>
  <course>9.99</course>
  <speed>1.7935439777156288</speed>
  <fix>3d</fix>
</trkpt>
<trkpt lat="33.8103698" lon="-118.3945909">
  <ele>-0.114</ele>
  <time>2026-09-02T22:07:28Z</time>
  <course>9.99</course>
  <speed>1.7935439777156288</speed>
  <fix>3d</fix>
</trkpt>
<trkpt lat="33.8103698" lon="-118.3945911">
  <ele>-0.114</ele>
  <time>2026-09-02T22:07:28Z</time>
  <course>9.99</course>
  <speed>1.7935439777156288</speed>
  <fix>3d</fix>
</trkpt>
<trkpt lat="33.8103698" lon="-118.3945912">
  <ele>-0.114</ele>
  <time>2026-09-02T22:07:28Z</time>
  <course>9.99</course>
  <speed>1.7935439777156288</speed>
  <fix>3d</fix>
</trkpt>
<trkpt lat="33.8103698" lon="-118.3945913">
  <ele>-0.114</ele>
  <time>2026-09-02T22:07:28Z</time>
  <course>9.99</course>
  <speed>1.7935439777156288</speed>
  <fix>3d</fix>
</trkpt>
<trkpt lat="33.8103695" lon="-118.3945865">
  <ele>-0.1</ele>
  <time>2026-09-02T22:07:28Z</time>
  <course>277.87</course>
  <speed>1.82</speed>
  <fix>3d</fix>
</trkpt>
<trkpt lat="33.8103698" lon="-118.3945913">
  <ele>-0.114</ele>
  <time>2026-09-02T22:07:28Z</time>
  <course>9.99</course>
  <speed>1.7935439777156288</speed>
  <fix>3d</fix>
</trkpt>
<trkpt lat="33.8103699" lon="-118.3945916">
  <ele>-0.114</ele>
  <time>2026-09-02T22:07:28Z</time>
  <course>9.99</course>
  <speed>1.7935439777156288</speed>
  <fix>3d</fix>
</trkpt>
<trkpt lat="33.8103699" lon="-118.3945917">
  <ele>-0.114</ele>
  <time>2026-09-02T22:07:28Z</time>
  <course>9.99</course>
  <speed>1.7935439777156288</speed>
  <fix>3d</fix>
</trkpt>
<trkpt lat="33.8103699" lon="-118.3945919">
  <ele>-0.114</ele>
  <time>2026-09-02T22:07:28Z</time>
  <course>9.99</course>
  <speed>1.7935439777156288</speed>
  <fix>3d</fix>
</trkpt>
<trkpt lat="33.8103699" lon="-118.3945921">
  <ele>-0.114</ele>
  <time>2026-09-02T22:07:28Z</time>
  <course>9.99</course>
  <speed>1.7935439777156288</speed>
  <fix>3d</fix>
</trkpt>
<trkpt lat="33.8103699" lon="-118.3945922">
  <ele>-0.114</ele>
  <time>2026-09-02T22:07:28Z</time>
  <course>9.99</course>
  <speed>1.7935439777156288</speed>
  <fix>3d</fix>
</trkpt>
<trkpt lat="33.81037" lon="-118.3945924">
  <ele>-0.114</ele>
  <time>2026-09-02T22:07:28Z</time>
  <course>9.99</course>
  <speed>1.7935439777156288</speed>
  <fix>3d</fix>
</trkpt>
<trkpt lat="33.81037" lon="-118.3945925">
  <ele>-0.114</ele>
  <time>2026-09-02T22:07:28Z</time>
  <course>9.99</course>
  <speed>1.7935439777156288</speed>
  <fix>3d</fix>
</trkpt>
<trkpt lat="33.81037" lon="-118.3945927">
  <ele>-0.114</ele>
  <time>2026-09-02T22:07:28Z</time>
  <course>9.99</course>
  <speed>1.7935439777156288</speed>
  <fix>3d</fix>
</trkpt>
<trkpt lat="33.81037" lon="-118.3945929">
  <ele>-0.113</ele>
  <time>2026-09-02T22:07:28Z</time>
  <course>9.99</course>
  <speed>1.7935439777156288</speed>
  <fix>3d</fix>
</trkpt>
<trkpt lat="33.81037" lon="-118.394593">
  <ele>-0.113</ele>
  <time>2026-09-02T22:07:28Z</time>
  <course>9.99</course>
  <speed>1.7935439777156288</speed>
  <fix>3d</fix>
</trkpt>
<trkpt lat="33.81037" lon="-118.3945931">
  <ele>-0.113</ele>
  <time>2026-09-02T22:07:28Z</time>
  <course>9.99</course>
  <speed>1.7935439777156288</speed>
  <fix>3d</fix>
</trkpt>
<trkpt lat="33.81037" lon="-118.3945932">
  <ele>-0.113</ele>
  <time>2026-09-02T22:07:28Z</time>
  <course>9.99</course>
  <speed>1.7935439777156288</speed>
  <fix>3d</fix>
</trkpt>
<trkpt lat="33.81037" lon="-118.3945904">
  <ele>-0.1</ele>
  <time>2026-09-02T22:07:28Z</time>
  <course>277.89</course>
  <speed>1.82</speed>
  <fix>3d</fix>
</trkpt>
<trkpt lat="33.8103701" lon="-118.3945935">
  <ele>-0.113</ele>
  <time>2026-09-02T22:07:28Z</time>
  <course>9.99</course>
  <speed>1.7935439777156288</speed>
  <fix>3d</fix>
</trkpt>
<trkpt lat="33.8103701" lon="-118.3945936">
  <ele>-0.113</ele>
  <time>2026-09-02T22:07:28Z</time>
  <course>9.99</course>
  <speed>1.7935439777156288</speed>
  <fix>3d</fix>
</trkpt>
<trkpt lat="33.8103701" lon="-118.3945938">
  <ele>-0.113</ele>
  <time>2026-09-02T22:07:28Z</time>
  <course>9.99</course>
  <speed>1.7935439777156288</speed>
  <fix>3d</fix>
</trkpt>
<trkpt lat="33.8103701" lon="-118.3945939">
  <ele>-0.113</ele>
  <time>2026-09-02T22:07:28Z</time>
  <course>10.0</course>
  <speed>1.7935439777156288</speed>
  <fix>3d</fix>
</trkpt>
<trkpt lat="33.8103702" lon="-118.3945941">
  <ele>-0.113</ele>
  <time>2026-09-02T22:07:28Z</time>
  <course>10.0</course>
  <speed>1.7935439777156288</speed>
  <fix>3d</fix>
</trkpt>
<trkpt lat="33.8103702" lon="-118.3945943">
  <ele>-0.113</ele>
  <time>2026-09-02T22:07:28Z</time>
  <course>10.0</course>
  <speed>1.7935439777156288</speed>
  <fix>3d</fix>
</trkpt>
<trkpt lat="33.8103702" lon="-118.3945945">
  <ele>-0.113</ele>
  <time>2026-09-02T22:07:28Z</time>
  <course>10.0</course>
  <speed>1.7935439777156288</speed>
  <fix>3d</fix>
</trkpt>
<trkpt lat="33.8103702" lon="-118.3945946">
  <ele>-0.113</ele>
  <time>2026-09-02T22:07:28Z</time>
  <course>10.0</course>
  <speed>1.7935439777156288</speed>
  <fix>3d</fix>
</trkpt>
<trkpt lat="33.8103702" lon="-118.3945948">
  <ele>-0.113</ele>
  <time>2026-09-02T22:07:28Z</time>
  <course>10.0</course>
  <speed>1.7935439777156288</speed>
  <fix>3d</fix>
</trkpt>
<trkpt lat="33.8103702" lon="-118.3945949">
  <ele>-0.113</ele>
  <time>2026-09-02T22:07:28Z</time>
  <course>10.0</course>
  <speed>1.7935439777156288</speed>
  <fix>3d</fix>
</trkpt>
<trkpt lat="33.8103703" lon="-118.3945951">
  <ele>-0.112</ele>
  <time>2026-09-02T22:07:28Z</time>
  <course>10.0</course>
  <speed>1.7935439777156288</speed>
  <fix>3d</fix>
</trkpt>
<trkpt lat="33.8103703" lon="-118.3945952">
  <ele>-0.112</ele>
  <time>2026-09-02T22:07:28Z</time>
  <course>10.0</course>
  <speed>1.7935439777156288</speed>
  <fix>3d</fix>
</trkpt>
<trkpt lat="33.81037" lon="-118.3945904">
  <ele>-0.1</ele>
  <time>2026-09-02T22:07:28Z</time>
  <course>277.89</course>
  <speed>1.82</speed>
  <fix>3d</fix>
</trkpt>
<trkpt lat="33.8103703" lon="-118.3945952">
  <ele>-0.112</ele>
  <time>2026-09-02T22:07:28Z</time>
  <course>10.0</course>
  <speed>1.7935439777156288</speed>
  <fix>3d</fix>
</trkpt>
<trkpt lat="33.8103703" lon="-118.3945955">
  <ele>-0.112</ele>
  <time>2026-09-02T22:07:28Z</time>
  <course>10.0</course>
  <speed>1.7935439777156288</speed>
  <fix>3d</fix>
</trkpt>
<trkpt lat="33.8103703" lon="-118.3945956">
  <ele>-0.112</ele>
  <time>2026-09-02T22:07:28Z</time>
  <course>10.0</course>
  <speed>1.7935439777156288</speed>
  <fix>3d</fix>
</trkpt>
<trkpt lat="33.8103703" lon="-118.3945958">
  <ele>-0.112</ele>
  <time>2026-09-02T22:07:28Z</time>
  <course>10.0</course>
  <speed>1.7935439777156288</speed>
  <fix>3d</fix>
</trkpt>
<trkpt lat="33.8103704" lon="-118.394596">
  <ele>-0.112</ele>
  <time>2026-09-02T22:07:28Z</time>
  <course>10.0</course>
  <speed>1.7935439777156288</speed>
  <fix>3d</fix>
</trkpt>
<trkpt lat="33.8103704" lon="-118.3945961">
  <ele>-0.112</ele>
  <time>2026-09-02T22:07:28Z</time>
  <course>10.0</course>
  <speed>1.7935439777156288</speed>
  <fix>3d</fix>
</trkpt>
<trkpt lat="33.8103704" lon="-118.3945963">
  <ele>-0.112</ele>
  <time>2026-09-02T22:07:28Z</time>
  <course>10.0</course>
  <speed>1.7935439777156288</speed>
  <fix>3d</fix>
</trkpt>
<trkpt lat="33.8103704" lon="-118.3945964">
  <ele>-0.112</ele>
  <time>2026-09-02T22:07:28Z</time>
  <course>10.0</course>
  <speed>1.7935439777156288</speed>
  <fix>3d</fix>
</trkpt>
<trkpt lat="33.8103704" lon="-118.3945966">
  <ele>-0.112</ele>
  <time>2026-09-02T22:07:28Z</time>
  <course>10.0</course>
  <speed>1.7935439777156288</speed>
  <fix>3d</fix>
</trkpt>
<trkpt lat="33.8103705" lon="-118.3945967">
  <ele>-0.112</ele>
  <time>2026-09-02T22:07:28Z</time>
  <course>10.0</course>
  <speed>1.7935439777156288</speed>
  <fix>3d</fix>
</trkpt>
<trkpt lat="33.8103705" lon="-118.3945968">
  <ele>-0.112</ele>
  <time>2026-09-02T22:07:28Z</time>
  <course>10.0</course>
  <speed>1.7935439777156288</speed>
  <fix>3d</fix>
</trkpt>
<trkpt lat="33.8103705" lon="-118.394597">
  <ele>-0.112</ele>
  <time>2026-09-02T22:07:28Z</time>
  <course>10.0</course>
  <speed>1.7935439777156288</speed>
  <fix>3d</fix>
</trkpt>
<trkpt lat="33.8103705" lon="-118.3945971">
  <ele>-0.112</ele>
  <time>2026-09-02T22:07:28Z</time>
  <course>10.0</course>
  <speed>1.7935439777156288</speed>
  <fix>3d</fix>
</trkpt>
<trkpt lat="33.8103704" lon="-118.3945943">
  <ele>-0.1</ele>
  <time>2026-09-02T22:07:28Z</time>
  <course>277.9</course>
  <speed>1.82</speed>
  <fix>3d</fix>
</trkpt>
<trkpt lat="33.8103705" lon="-118.3945971">
  <ele>-0.112</ele>
  <time>2026-09-02T22:07:28Z</time>
  <course>10.0</course>
  <speed>1.7935439777156288</speed>
  <fix>3d</fix>
</trkpt>
<trkpt lat="33.8103705" lon="-118.3945973">
  <ele>-0.111</ele>
  <time>2026-09-02T22:07:28Z</time>
  <course>10.0</course>
  <speed>1.7935439777156288</speed>
  <fix>3d</fix>
</trkpt>
<trkpt lat="33.8103705" lon="-118.3945975">
  <ele>-0.111</ele>
  <time>2026-09-02T22:07:28Z</time>
  <course>10.01</course>
  <speed>1.7935439777156288</speed>
  <fix>3d</fix>
</trkpt>
<trkpt lat="33.8103706" lon="-118.3945977">
  <ele>-0.111</ele>
  <time>2026-09-02T22:07:28Z</time>
  <course>10.01</course>
  <speed>1.7935439777156288</speed>
  <fix>3d</fix>
</trkpt>
<trkpt lat="33.8103706" lon="-118.3945979">
  <ele>-0.111</ele>
  <time>2026-09-02T22:07:28Z</time>
  <course>10.01</course>
  <speed>1.7935439777156288</speed>
  <fix>3d</fix>
</trkpt>
<trkpt lat="33.8103706" lon="-118.3945981">
  <ele>-0.111</ele>
  <time>2026-09-02T22:07:28Z</time>
  <course>10.01</course>
  <speed>1.7935439777156288</speed>
  <fix>3d</fix>
</trkpt>
<trkpt lat="33.8103706" lon="-118.3945982">
  <ele>-0.111</ele>
  <time>2026-09-02T22:07:28Z</time>
  <course>10.01</course>
  <speed>1.7935439777156288</speed>
  <fix>3d</fix>
</trkpt>
<trkpt lat="33.8103706" lon="-118.3945984">
  <ele>-0.111</ele>
  <time>2026-09-02T22:07:28Z</time>
  <course>10.01</course>
  <speed>1.7935439777156288</speed>
  <fix>3d</fix>
</trkpt>
<trkpt lat="33.8103707" lon="-118.3945986">
  <ele>-0.111</ele>
  <time>2026-09-02T22:07:28Z</time>
  <course>10.01</course>
  <speed>1.7935439777156288</speed>
  <fix>3d</fix>
</trkpt>
<trkpt lat="33.8103707" lon="-118.3945988">
  <ele>-0.111</ele>
  <time>2026-09-02T22:07:28Z</time>
  <course>10.01</course>
  <speed>1.7935439777156288</speed>
  <fix>3d</fix>
</trkpt>
<trkpt lat="33.8103707" lon="-118.3945989">
  <ele>-0.111</ele>
  <time>2026-09-02T22:07:28Z</time>
  <course>10.01</course>
  <speed>1.7935439777156288</speed>
  <fix>3d</fix>
</trkpt>
<trkpt lat="33.8103707" lon="-118.3945991">
  <ele>-0.111</ele>
  <time>2026-09-02T22:07:28Z</time>
  <course>10.01</course>
  <speed>1.7935439777156288</speed>
  <fix>3d</fix>
</trkpt>
<trkpt lat="33.8103707" lon="-118.3945991">
  <ele>-0.111</ele>
  <time>2026-09-02T22:07:28Z</time>
  <course>10.01</course>
  <speed>1.7935439777156288</speed>
  <fix>3d</fix>
</trkpt>
<trkpt lat="33.8103704" lon="-118.3945943">
  <ele>-0.1</ele>
  <time>2026-09-02T22:07:28Z</time>
  <course>277.9</course>
  <speed>1.82</speed>
  <fix>3d</fix>
</trkpt>
<trkpt lat="33.8103708" lon="-118.3945993">
  <ele>-0.111</ele>
  <time>2026-09-02T22:07:28Z</time>
  <course>10.01</course>
  <speed>1.7935439777156288</speed>
  <fix>3d</fix>
</trkpt>
<trkpt lat="33.8103708" lon="-118.3945995">
  <ele>-0.11</ele>
  <time>2026-09-02T22:07:28Z</time>
  <course>10.01</course>
  <speed>1.7935439777156288</speed>
  <fix>3d</fix>
</trkpt>
<trkpt lat="33.8103708" lon="-118.3945997">
  <ele>-0.11</ele>
  <time>2026-09-02T22:07:28Z</time>
  <course>10.01</course>
  <speed>1.7935439777156288</speed>
  <fix>3d</fix>
</trkpt>
<trkpt lat="33.8103708" lon="-118.3945999">
  <ele>-0.11</ele>
  <time>2026-09-02T22:07:28Z</time>
  <course>10.01</course>
  <speed>1.7935439777156288</speed>
  <fix>3d</fix>
</trkpt>
<trkpt lat="33.8103709" lon="-118.3946002">
  <ele>-0.11</ele>
  <time>2026-09-02T22:07:28Z</time>
  <course>10.01</course>
  <speed>1.7935439777156288</speed>
  <fix>3d</fix>
</trkpt>
<trkpt lat="33.8103709" lon="-118.3946003">
  <ele>-0.11</ele>
  <time>2026-09-02T22:07:28Z</time>
  <course>10.01</course>
  <speed>1.7935439777156288</speed>
  <fix>3d</fix>
</trkpt>
<trkpt lat="33.8103709" lon="-118.3946005">
  <ele>-0.11</ele>
  <time>2026-09-02T22:07:28Z</time>
  <course>10.01</course>
  <speed>1.7935439777156288</speed>
  <fix>3d</fix>
</trkpt>
<trkpt lat="33.8103709" lon="-118.3946007">
  <ele>-0.11</ele>
  <time>2026-09-02T22:07:28Z</time>
  <course>10.01</course>
  <speed>1.7935439777156288</speed>
  <fix>3d</fix>
</trkpt>
<trkpt lat="33.8103709" lon="-118.3946009">
  <ele>-0.11</ele>
  <time>2026-09-02T22:07:28Z</time>
  <course>10.01</course>
  <speed>1.7935439777156288</speed>
  <fix>3d</fix>
</trkpt>
<trkpt lat="33.8103709" lon="-118.394601">
  <ele>-0.11</ele>
  <time>2026-09-02T22:07:28Z</time>
  <course>10.02</course>
  <speed>1.7935439777156288</speed>
  <fix>3d</fix>
</trkpt>
<trkpt lat="33.8103708" lon="-118.3945982">
  <ele>-0.1</ele>
  <time>2026-09-02T22:07:28Z</time>
  <course>277.91</course>
  <speed>1.82</speed>
  <fix>3d</fix>
</trkpt>
<trkpt lat="33.810371" lon="-118.3946011">
  <ele>-0.11</ele>
  <time>2026-09-02T22:07:28Z</time>
  <course>10.02</course>
  <speed>1.7935439777156288</speed>
  <fix>3d</fix>
</trkpt>
<trkpt lat="33.810371" lon="-118.3946013">
  <ele>-0.11</ele>
  <time>2026-09-02T22:07:28Z</time>
  <course>10.02</course>
  <speed>1.7935439777156288</speed>
  <fix>3d</fix>
</trkpt>
<trkpt lat="33.810371" lon="-118.3946015">
  <ele>-0.11</ele>
  <time>2026-09-02T22:07:28Z</time>
  <course>10.02</course>
  <speed>1.7935439777156288</speed>
  <fix>3d</fix>
</trkpt>
<trkpt lat="33.810371" lon="-118.3946017">
  <ele>-0.11</ele>
  <time>2026-09-02T22:07:28Z</time>
  <course>10.02</course>
  <speed>1.7935439777156288</speed>
  <fix>3d</fix>
</trkpt>
<trkpt lat="33.810371" lon="-118.3946018">
  <ele>-0.11</ele>
  <time>2026-09-02T22:07:28Z</time>
  <course>10.02</course>
  <speed>1.7935439777156288</speed>
  <fix>3d</fix>
</trkpt>
<trkpt lat="33.8103711" lon="-118.394602">
  <ele>-0.11</ele>
  <time>2026-09-02T22:07:28Z</time>
  <course>10.02</course>
  <speed>1.7935439777156288</speed>
  <fix>3d</fix>
</trkpt>
<trkpt lat="33.8103711" lon="-118.3946021">
  <ele>-0.11</ele>
  <time>2026-09-02T22:07:28Z</time>
  <course>10.02</course>
  <speed>1.7935439777156288</speed>
  <fix>3d</fix>
</trkpt>
<trkpt lat="33.8103711" lon="-118.3946023">
  <ele>-0.11</ele>
  <time>2026-09-02T22:07:28Z</time>
  <course>10.02</course>
  <speed>1.7935439777156288</speed>
  <fix>3d</fix>
</trkpt>
<trkpt lat="33.8103711" lon="-118.3946025">
  <ele>-0.11</ele>
  <time>2026-09-02T22:07:28Z</time>
  <course>10.02</course>
  <speed>1.7935439777156288</speed>
  <fix>3d</fix>
</trkpt>
<trkpt lat="33.8103711" lon="-118.3946027">
  <ele>-0.11</ele>
  <time>2026-09-02T22:07:28Z</time>
  <course>10.02</course>
  <speed>1.7935439777156288</speed>
  <fix>3d</fix>
</trkpt>
<trkpt lat="33.8103712" lon="-118.3946029">
  <ele>-0.11</ele>
  <time>2026-09-02T22:07:28Z</time>
  <course>10.02</course>
  <speed>1.7935439777156288</speed>
  <fix>3d</fix>
</trkpt>
<trkpt lat="33.8103708" lon="-118.3945982">
  <ele>-0.1</ele>
  <time>2026-09-02T22:07:28Z</time>
  <course>277.91</course>
  <speed>1.82</speed>
  <fix>3d</fix>
</trkpt>
<trkpt lat="33.8103713" lon="-118.3946044">
  <ele>-0.113</ele>
  <time>2026-09-02T22:07:28Z</time>
  <course>10.03</course>
  <speed>0.9126883367283708</speed>
  <fix>3d</fix>
</trkpt>
<trkpt lat="33.8103713" lon="-118.3946021">
  <ele>-0.1</ele>
  <time>2026-09-02T22:07:28Z</time>
  <course>277.89</course>
  <speed>1.72</speed>
  <fix>3d</fix>
</trkpt>
<trkpt lat="33.8103714" lon="-118.3946052">
  <ele>-0.12</ele>
  <time>2026-09-02T22:07:28Z</time>
  <course>10.03</course>
  <speed>0.5800862004909271</speed>
  <fix>3d</fix>
</trkpt>
<trkpt lat="33.8103713" lon="-118.3946021">
  <ele>-0.1</ele>
  <time>2026-09-02T22:07:28Z</time>
  <course>277.89</course>
  <speed>1.72</speed>
  <fix>3d</fix>
</trkpt>
<trkpt lat="33.8103714" lon="-118.3946058">
  <ele>-0.13</ele>
  <time>2026-09-02T22:07:28Z</time>
  <course>10.03</course>
  <speed>0.4301162633521314</speed>
  <fix>3d</fix>
</trkpt>
<trkpt lat="33.8103717" lon="-118.394605">
  <ele>-0.11</ele>
  <time>2026-09-02T22:07:28Z</time>
  <course>277.49</course>
  <speed>1.09</speed>
  <fix>3d</fix>
</trkpt>
<trkpt lat="33.8103714" lon="-118.3946062">
  <ele>-0.14</ele>
  <time>2026-09-02T22:07:28Z</time>
  <course>10.04</course>
  <speed>0.34058772731852804</speed>
  <fix>3d</fix>
</trkpt>
<trkpt lat="33.8103717" lon="-118.394605">
  <ele>-0.11</ele>
  <time>2026-09-02T22:07:28Z</time>
  <course>277.49</course>
  <speed>1.09</speed>
  <fix>3d</fix>
</trkpt>
<trkpt lat="33.8103714" lon="-118.3946067">
  <ele>-0.147</ele>
  <time>2026-09-02T22:07:28Z</time>
  <course>10.04</course>
  <speed>0.2816025568065745</speed>
  <fix>3d</fix>
</trkpt>
<trkpt lat="33.8103718" lon="-118.3946064">
  <ele>-0.12</ele>
  <time>2026-09-02T22:07:28Z</time>
  <course>275.91</course>
  <speed>0.44</speed>
  <fix>3d</fix>
</trkpt>
<trkpt lat="33.8103714" lon="-118.394607">
  <ele>-0.154</ele>
  <time>2026-09-02T22:07:28Z</time>
  <course>10.03</course>
  <speed>0.24331050121192876</speed>
  <fix>3d</fix>
</trkpt>
<trkpt lat="33.8103718" lon="-118.3946064">
  <ele>-0.12</ele>
  <time>2026-09-02T22:07:28Z</time>
  <course>275.91</course>
  <speed>0.44</speed>
  <fix>3d</fix>
</trkpt>
<trkpt lat="33.8103714" lon="-118.3946073">
  <ele>-0.159</ele>
  <time>2026-09-02T22:07:28Z</time>
  <course>10.03</course>
  <speed>0.21377558326431947</speed>
  <fix>3d</fix>
</trkpt>
<trkpt lat="33.8103719" lon="-118.3946072">
  <ele>-0.14</ele>
  <time>2026-09-02T22:07:28Z</time>
  <course>274.5</course>
  <speed>0.28</speed>
  <fix>3d</fix>
</trkpt>
<trkpt lat="33.8103714" lon="-118.3946076">
  <ele>-0.165</ele>
  <time>2026-09-02T22:07:28Z</time>
  <course>10.03</course>
  <speed>0.194164878389476</speed>
  <fix>3d</fix>
</trkpt>
<trkpt lat="33.8103719" lon="-118.3946072">
  <ele>-0.14</ele>
  <time>2026-09-02T22:07:28Z</time>
  <course>274.5</course>
  <speed>0.28</speed>
  <fix>3d</fix>
</trkpt>
<trkpt lat="33.8103714" lon="-118.3946078">
  <ele>-0.17</ele>
  <time>2026-09-02T22:07:28Z</time>
  <course>10.02</course>
  <speed>0.1772004514666935</speed>
  <fix>3d</fix>
</trkpt>
<trkpt lat="33.8103719" lon="-118.3946077">
  <ele>-0.15</ele>
  <time>2026-09-02T22:07:28Z</time>
  <course>273.18</course>
  <speed>0.21</speed>
  <fix>3d</fix>
</trkpt>
<trkpt lat="33.8103714" lon="-118.394608">
  <ele>-0.175</ele>
  <time>2026-09-02T22:07:28Z</time>
  <course>10.02</course>
  <speed>0.1676305461424021</speed>
  <fix>3d</fix>
</trkpt>
<trkpt lat="33.8103719" lon="-118.3946077">
  <ele>-0.15</ele>
  <time>2026-09-02T22:07:28Z</time>
  <course>273.18</course>
  <speed>0.21</speed>
  <fix>3d</fix>
</trkpt>
<trkpt lat="33.8103714" lon="-118.3946082">
  <ele>-0.178</ele>
  <time>2026-09-02T22:07:28Z</time>
  <course>10.02</course>
  <speed>0.14866068747318506</speed>
  <fix>3d</fix>
</trkpt>
<trkpt lat="33.8103719" lon="-118.3946082">
  <ele>-0.16</ele>
  <time>2026-09-02T22:07:28Z</time>
  <course>271.92</course>
  <speed>0.17</speed>
  <fix>3d</fix>
</trkpt>
<trkpt lat="33.8103714" lon="-118.3946084">
  <ele>-0.181</ele>
  <time>2026-09-02T22:07:28Z</time>
  <course>10.01</course>
  <speed>0.1392838827718412</speed>
  <fix>3d</fix>
</trkpt>
<trkpt lat="33.8103719" lon="-118.3946082">
  <ele>-0.16</ele>
  <time>2026-09-02T22:07:28Z</time>
  <course>271.92</course>
  <speed>0.17</speed>
  <fix>3d</fix>
</trkpt>
<trkpt lat="33.8103715" lon="-118.3946085">
  <ele>-0.183</ele>
  <time>2026-09-02T22:07:28Z</time>
  <course>10.01</course>
  <speed>0.13</speed>
  <fix>3d</fix>
</trkpt>
<trkpt lat="33.8103719" lon="-118.3946085">
  <ele>-0.16</ele>
  <time>2026-09-02T22:07:28Z</time>
  <course>270.72</course>
  <speed>0.14</speed>
  <fix>3d</fix>
</trkpt>
<trkpt lat="33.8103715" lon="-118.3946087">
  <ele>-0.184</ele>
  <time>2026-09-02T22:07:28Z</time>
  <course>10.01</course>
  <speed>0.13</speed>
  <fix>3d</fix>
</trkpt>
<trkpt lat="33.8103719" lon="-118.3946085">
  <ele>-0.16</ele>
  <time>2026-09-02T22:07:28Z</time>
  <course>270.72</course>
  <speed>0.14</speed>
  <fix>3d</fix>
</trkpt>
<trkpt lat="33.8103715" lon="-118.3946088">
  <ele>-0.183</ele>
  <time>2026-09-02T22:07:28Z</time>
  <course>10.01</course>
  <speed>0.11704699910719625</speed>
  <fix>3d</fix>
</trkpt>
<trkpt lat="33.8103719" lon="-118.3946087">
  <ele>-0.17</ele>
  <time>2026-09-02T22:07:28Z</time>
  <course>269.57</course>
  <speed>0.12</speed>
  <fix>3d</fix>
</trkpt>
<trkpt lat="33.8103715" lon="-118.394609">
  <ele>-0.182</ele>
  <time>2026-09-02T22:07:28Z</time>
  <course>10.0</course>
  <speed>0.10770329614269007</speed>
  <fix>3d</fix>
</trkpt>
<trkpt lat="33.8103719" lon="-118.3946087">
  <ele>-0.17</ele>
  <time>2026-09-02T22:07:28Z</time>
  <course>269.57</course>
  <speed>0.12</speed>
  <fix>3d</fix>
</trkpt>
<trkpt lat="33.8103715" lon="-118.3946091">
  <ele>-0.181</ele>
  <time>2026-09-02T22:07:28Z</time>
  <course>10.0</course>
  <speed>0.10770329614269007</speed>
  <fix>3d</fix>
</trkpt>
<trkpt lat="33.8103719" lon="-118.394609">
  <ele>-0.17</ele>
  <time>2026-09-02T22:07:28Z</time>
  <course>268.46</course>
  <speed>0.1</speed>
  <fix>3d</fix>
</trkpt>
<trkpt lat="33.8103715" lon="-118.3946092">
  <ele>-0.179</ele>
  <time>2026-09-02T22:07:28Z</time>
  <course>10.0</course>
  <speed>0.09848857801796104</speed>
  <fix>3d</fix>
</trkpt>
<trkpt lat="33.8103719" lon="-118.394609">
  <ele>-0.17</ele>
  <time>2026-09-02T22:07:28Z</time>
  <course>268.46</course>
  <speed>0.1</speed>
  <fix>3d</fix>
</trkpt>
<trkpt lat="33.8103716" lon="-118.3946093">
  <ele>-0.176</ele>
  <time>2026-09-02T22:07:28Z</time>
  <course>10.0</course>
  <speed>0.09848857801796104</speed>
  <fix>3d</fix>
</trkpt>
<trkpt lat="33.8103719" lon="-118.3946092">
  <ele>-0.17</ele>
  <time>2026-09-02T22:07:28Z</time>
  <course>267.4</course>
  <speed>0.09</speed>
  <fix>3d</fix>
</trkpt>
<trkpt lat="33.8103716" lon="-118.3946094">
  <ele>-0.172</ele>
  <time>2026-09-02T22:07:28Z</time>
  <course>10.0</course>
  <speed>0.08944271909999159</speed>
  <fix>3d</fix>
</trkpt>
<trkpt lat="33.8103719" lon="-118.3946092">
  <ele>-0.17</ele>
  <time>2026-09-02T22:07:28Z</time>
  <course>267.4</course>
  <speed>0.09</speed>
  <fix>3d</fix>
</trkpt>
<trkpt lat="33.8103716" lon="-118.3946095">
  <ele>-0.167</ele>
  <time>2026-09-02T22:07:28Z</time>
  <course>10.0</course>
  <speed>0.08944271909999159</speed>
  <fix>3d</fix>
</trkpt>
<trkpt lat="33.8103719" lon="-118.3946095">
  <ele>-0.16</ele>
  <time>2026-09-02T22:07:28Z</time>
  <course>266.39</course>
  <speed>0.08</speed>
  <fix>3d</fix>
</trkpt>
<trkpt lat="33.8103716" lon="-118.3946096">
  <ele>-0.162</ele>
  <time>2026-09-02T22:07:28Z</time>
  <course>10.0</course>
  <speed>0.08062257748298549</speed>
  <fix>3d</fix>
</trkpt>
<trkpt lat="33.8103719" lon="-118.3946095">
  <ele>-0.16</ele>
  <time>2026-09-02T22:07:28Z</time>
  <course>266.39</course>
  <speed>0.08</speed>
  <fix>3d</fix>
</trkpt>
<trkpt lat="33.8103716" lon="-118.3946097">
  <ele>-0.156</ele>
  <time>2026-09-02T22:07:28Z</time>
  <course>10.0</course>
  <speed>0.08062257748298549</speed>
  <fix>3d</fix>
</trkpt>
<trkpt lat="33.8103719" lon="-118.3946096">
  <ele>-0.16</ele>
  <time>2026-09-02T22:07:28Z</time>
  <course>265.41</course>
  <speed>0.07</speed>
  <fix>3d</fix>
</trkpt>
<trkpt lat="33.8103716" lon="-118.3946097">
  <ele>-0.15</ele>
  <time>2026-09-02T22:07:28Z</time>
  <course>10.01</course>
  <speed>0.07615773105863909</speed>
  <fix>3d</fix>
</trkpt>
<trkpt lat="33.8103719" lon="-118.3946096">
  <ele>-0.16</ele>
  <time>2026-09-02T22:07:28Z</time>
  <course>265.41</course>
  <speed>0.07</speed>
  <fix>3d</fix>
</trkpt>
<trkpt lat="33.8103716" lon="-118.3946098">
  <ele>-0.143</ele>
  <time>2026-09-02T22:07:28Z</time>
  <course>10.01</course>
  <speed>0.0670820393249937</speed>
  <fix>3d</fix>
</trkpt>
<trkpt lat="33.8103719" lon="-118.3946097">
  <ele>-0.15</ele>
  <time>2026-09-02T22:07:28Z</time>
  <course>264.48</course>
  <speed>0.07</speed>
  <fix>3d</fix>
</trkpt>
<trkpt lat="33.8103716" lon="-118.3946099">
  <ele>-0.137</ele>
  <time>2026-09-02T22:07:28Z</time>
  <course>10.01</course>
  <speed>0.0670820393249937</speed>
  <fix>3d</fix>
</trkpt>
<trkpt lat="33.8103719" lon="-118.3946097">
  <ele>-0.15</ele>
  <time>2026-09-02T22:07:28Z</time>
  <course>264.48</course>
  <speed>0.07</speed>
  <fix>3d</fix>
</trkpt>
<trkpt lat="33.8103716" lon="-118.3946101">
  <ele>-0.114</ele>
  <time>2026-09-02T22:07:28Z</time>
  <course>10.02</course>
  <speed>0.05830951894845301</speed>
  <fix>3d</fix>
</trkpt>
<trkpt lat="33.8103719" lon="-118.3946101">
  <ele>-0.13</ele>
  <time>2026-09-02T22:07:28Z</time>
  <course>262.72</course>
  <speed>0.06</speed>
  <fix>3d</fix>
</trkpt>
<trkpt lat="33.8103716" lon="-118.3946103">
  <ele>-0.114</ele>
  <time>2026-09-02T22:07:28Z</time>
  <course>10.03</course>
  <speed>0.044721359549995794</speed>
  <fix>3d</fix>
</trkpt>
<trkpt lat="33.8103719" lon="-118.3946103">
  <ele>-0.11</ele>
  <time>2026-09-02T22:07:28Z</time>
  <course>261.1</course>
  <speed>0.05</speed>
  <fix>3d</fix>
</trkpt>
<trkpt lat="33.8103716" lon="-118.3946104">
  <ele>-0.119</ele>
  <time>2026-09-02T22:07:28Z</time>
  <course>10.04</course>
  <speed>0.044721359549995794</speed>
  <fix>3d</fix>
</trkpt>
<trkpt lat="33.8103719" lon="-118.3946103">
  <ele>-0.11</ele>
  <time>2026-09-02T22:07:28Z</time>
  <course>261.1</course>
  <speed>0.05</speed>
  <fix>3d</fix>
</trkpt>
<trkpt lat="33.8103716" lon="-118.3946105">
  <ele>-0.129</ele>
  <time>2026-09-02T22:07:28Z</time>
  <course>10.05</course>
  <speed>0.044721359549995794</speed>
  <fix>3d</fix>
</trkpt>
<trkpt lat="33.8103719" lon="-118.3946104">
  <ele>-0.11</ele>
  <time>2026-09-02T22:07:28Z</time>
  <course>260.33</course>
  <speed>0.05</speed>
  <fix>3d</fix>
</trkpt>
<trkpt lat="33.8103716" lon="-118.3946105">
  <ele>-0.134</ele>
  <time>2026-09-02T22:07:28Z</time>
  <course>10.05</course>
  <speed>0.03605551275463989</speed>
  <fix>3d</fix>
</trkpt>
<trkpt lat="33.8103719" lon="-118.3946105">
  <ele>-0.12</ele>
  <time>2026-09-02T22:07:28Z</time>
  <course>259.6</course>
  <speed>0.04</speed>
  <fix>3d</fix>
</trkpt>
<trkpt lat="33.8103716" lon="-118.3946106">
  <ele>-0.139</ele>
  <time>2026-09-02T22:07:28Z</time>
  <course>10.05</course>
  <speed>0.03605551275463989</speed>
  <fix>3d</fix>
</trkpt>
<trkpt lat="33.8103719" lon="-118.3946105">
  <ele>-0.12</ele>
  <time>2026-09-02T22:07:28Z</time>
  <course>259.6</course>
  <speed>0.04</speed>
  <fix>3d</fix>
</trkpt>
<trkpt lat="33.8103716" lon="-118.3946106">
  <ele>-0.143</ele>
  <time>2026-09-02T22:07:28Z</time>
  <course>10.06</course>
  <speed>0.03605551275463989</speed>
  <fix>3d</fix>
</trkpt>
<trkpt lat="33.8103719" lon="-118.3946106">
  <ele>-0.13</ele>
  <time>2026-09-02T22:07:28Z</time>
  <course>258.89</course>
  <speed>0.04</speed>
  <fix>3d</fix>
</trkpt>
<trkpt lat="33.8103716" lon="-118.3946106">
  <ele>-0.147</ele>
  <time>2026-09-02T22:07:28Z</time>
  <course>10.06</course>
  <speed>0.03605551275463989</speed>
  <fix>3d</fix>
</trkpt>
<trkpt lat="33.8103719" lon="-118.3946106">
  <ele>-0.13</ele>
  <time>2026-09-02T22:07:28Z</time>
  <course>258.89</course>
  <speed>0.04</speed>
  <fix>3d</fix>
</trkpt>
<trkpt lat="33.8103716" lon="-118.3946107">
  <ele>-0.15</ele>
  <time>2026-09-02T22:07:28Z</time>
  <course>10.07</course>
  <speed>0.03605551275463989</speed>
  <fix>3d</fix>
</trkpt>
<trkpt lat="33.8103719" lon="-118.3946107">
  <ele>-0.14</ele>
  <time>2026-09-02T22:07:28Z</time>
  <course>258.21</course>
  <speed>0.04</speed>
  <fix>3d</fix>
</trkpt>
<trkpt lat="33.8103716" lon="-118.3946107">
  <ele>-0.152</ele>
  <time>2026-09-02T22:07:28Z</time>
  <course>10.08</course>
  <speed>0.022360679774997897</speed>
  <fix>3d</fix>
</trkpt>
<trkpt lat="33.8103719" lon="-118.3946107">
  <ele>-0.14</ele>
  <time>2026-09-02T22:07:28Z</time>
  <course>258.21</course>
  <speed>0.04</speed>
  <fix>3d</fix>
</trkpt>
<trkpt lat="33.8103716" lon="-118.3946108">
  <ele>-0.153</ele>
  <time>2026-09-02T22:07:28Z</time>
  <course>10.08</course>
  <speed>0.022360679774997897</speed>
  <fix>3d</fix>
</trkpt>
<trkpt lat="33.8103719" lon="-118.3946108">
  <ele>-0.14</ele>
  <time>2026-09-02T22:07:28Z</time>
  <course>257.56</course>
  <speed>0.04</speed>
  <fix>3d</fix>
</trkpt>
<trkpt lat="33.8103716" lon="-118.3946108">
  <ele>-0.153</ele>
  <time>2026-09-02T22:07:28Z</time>
  <course>10.09</course>
  <speed>0.022360679774997897</speed>
  <fix>3d</fix>
</trkpt>
<trkpt lat="33.8103719" lon="-118.3946108">
  <ele>-0.14</ele>
  <time>2026-09-02T22:07:28Z</time>
  <course>257.56</course>
  <speed>0.04</speed>
  <fix>3d</fix>
</trkpt>
<trkpt lat="33.8103716" lon="-118.3946108">
  <ele>-0.152</ele>
  <time>2026-09-02T22:07:28Z</time>
  <course>10.09</course>
  <speed>0.022360679774997897</speed>
  <fix>3d</fix>
</trkpt>
<trkpt lat="33.8103718" lon="-118.3946109">
  <ele>-0.15</ele>
  <time>2026-09-02T22:07:28Z</time>
  <course>256.92</course>
  <speed>0.04</speed>
  <fix>3d</fix>
</trkpt>
<trkpt lat="33.8103716" lon="-118.3946109">
  <ele>-0.15</ele>
  <time>2026-09-02T22:07:28Z</time>
  <course>10.1</course>
  <speed>0.022360679774997897</speed>
  <fix>3d</fix>
</trkpt>
<trkpt lat="33.8103718" lon="-118.3946109">
  <ele>-0.15</ele>
  <time>2026-09-02T22:07:28Z</time>
  <course>256.92</course>
  <speed>0.04</speed>
  <fix>3d</fix>
</trkpt>
<trkpt lat="33.8103716" lon="-118.3946109">
  <ele>-0.148</ele>
  <time>2026-09-02T22:07:28Z</time>
  <course>10.1</course>
  <speed>0.022360679774997897</speed>
  <fix>3d</fix>
</trkpt>
<trkpt lat="33.8103718" lon="-118.394611">
  <ele>-0.14</ele>
  <time>2026-09-02T22:07:28Z</time>
  <course>256.32</course>
  <speed>0.03</speed>
  <fix>3d</fix>
</trkpt>
<trkpt lat="33.8103716" lon="-118.3946109">
  <ele>-0.147</ele>
  <time>2026-09-02T22:07:28Z</time>
  <course>10.11</course>
  <speed>0.022360679774997897</speed>
  <fix>3d</fix>
</trkpt>
<trkpt lat="33.8103718" lon="-118.394611">
  <ele>-0.14</ele>
  <time>2026-09-02T22:07:28Z</time>
  <course>256.32</course>
  <speed>0.03</speed>
  <fix>3d</fix>
</trkpt>
<trkpt lat="33.8103716" lon="-118.394611">
  <ele>-0.145</ele>
  <time>2026-09-02T22:07:28Z</time>
  <course>10.12</course>
  <speed>0.01414213562373095</speed>
  <fix>3d</fix>
</trkpt>
<trkpt lat="33.8103718" lon="-118.3946111">
  <ele>-0.14</ele>
  <time>2026-09-02T22:07:28Z</time>
  <course>255.73</course>
  <speed>0.03</speed>
  <fix>3d</fix>
</trkpt>
<trkpt lat="33.8103716" lon="-118.394611">
  <ele>-0.142</ele>
  <time>2026-09-02T22:07:28Z</time>
  <course>10.12</course>
  <speed>0.01414213562373095</speed>
  <fix>3d</fix>
</trkpt>
<trkpt lat="33.8103718" lon="-118.3946111">
  <ele>-0.14</ele>
  <time>2026-09-02T22:07:28Z</time>
  <course>255.73</course>
  <speed>0.03</speed>
  <fix>3d</fix>
</trkpt>
<trkpt lat="33.8103716" lon="-118.394611">
  <ele>-0.137</ele>
  <time>2026-09-02T22:07:28Z</time>
  <course>10.13</course>
  <speed>0.01414213562373095</speed>
  <fix>3d</fix>
</trkpt>
<trkpt lat="33.8103718" lon="-118.3946112">
  <ele>-0.13</ele>
  <time>2026-09-02T22:07:28Z</time>
  <course>255.16</course>
  <speed>0.03</speed>
  <fix>3d</fix>
</trkpt>
<trkpt lat="33.8103716" lon="-118.3946111">
  <ele>-0.132</ele>
  <time>2026-09-02T22:07:28Z</time>
  <course>10.13</course>
  <speed>0.01414213562373095</speed>
  <fix>3d</fix>
</trkpt>
<trkpt lat="33.8103718" lon="-118.3946112">
  <ele>-0.13</ele>
  <time>2026-09-02T22:07:28Z</time>
  <course>255.16</course>
  <speed>0.03</speed>
  <fix>3d</fix>
</trkpt>
<trkpt lat="33.8103716" lon="-118.3946111">
  <ele>-0.128</ele>
  <time>2026-09-02T22:07:28Z</time>
  <course>10.14</course>
  <speed>0.01414213562373095</speed>
  <fix>3d</fix>
</trkpt>
<trkpt lat="33.8103718" lon="-118.3946112">
  <ele>-0.12</ele>
  <time>2026-09-02T22:07:28Z</time>
  <course>254.62</course>
  <speed>0.03</speed>
  <fix>3d</fix>
</trkpt>
<trkpt lat="33.8103716" lon="-118.3946111">
  <ele>-0.124</ele>
  <time>2026-09-02T22:07:28Z</time>
  <course>10.15</course>
  <speed>0.01414213562373095</speed>
  <fix>3d</fix>
</trkpt>
<trkpt lat="33.8103718" lon="-118.3946112">
  <ele>-0.12</ele>
  <time>2026-09-02T22:07:28Z</time>
  <course>254.62</course>
  <speed>0.03</speed>
  <fix>3d</fix>
</trkpt>
<trkpt lat="33.8103716" lon="-118.3946112">
  <ele>-0.122</ele>
  <time>2026-09-02T22:07:28Z</time>
  <course>10.15</course>
  <speed>0.01414213562373095</speed>
  <fix>3d</fix>
</trkpt>
<trkpt lat="33.8103718" lon="-118.3946113">
  <ele>-0.11</ele>
  <time>2026-09-02T22:07:28Z</time>
  <course>254.09</course>
  <speed>0.03</speed>
  <fix>3d</fix>
</trkpt>
<trkpt lat="33.8103716" lon="-118.3946112">
  <ele>-0.124</ele>
  <time>2026-09-02T22:07:28Z</time>
  <course>10.16</course>
  <speed>0.01414213562373095</speed>
  <fix>3d</fix>
</trkpt>
<trkpt lat="33.8103718" lon="-118.3946113">
  <ele>-0.11</ele>
  <time>2026-09-02T22:07:28Z</time>
  <course>254.09</course>
  <speed>0.03</speed>
  <fix>3d</fix>
</trkpt>
<trkpt lat="33.8103716" lon="-118.3946112">
  <ele>-0.127</ele>
  <time>2026-09-02T22:07:28Z</time>
  <course>10.16</course>
  <speed>0.01414213562373095</speed>
  <fix>3d</fix>
</trkpt>
<trkpt lat="33.8103717" lon="-118.3946114">
  <ele>-0.11</ele>
  <time>2026-09-02T22:07:28Z</time>
  <course>253.59</course>
  <speed>0.03</speed>
  <fix>3d</fix>
</trkpt>
<trkpt lat="33.8103716" lon="-118.3946113">
  <ele>-0.131</ele>
  <time>2026-09-02T22:07:28Z</time>
  <course>10.17</course>
  <speed>0.01414213562373095</speed>
  <fix>3d</fix>
</trkpt>
<trkpt lat="33.8103717" lon="-118.3946114">
  <ele>-0.11</ele>
  <time>2026-09-02T22:07:28Z</time>
  <course>253.59</course>
  <speed>0.03</speed>
  <fix>3d</fix>
</trkpt>
<trkpt lat="33.8103716" lon="-118.3946113">
  <ele>-0.134</ele>
  <time>2026-09-02T22:07:28Z</time>
  <course>10.18</course>
  <speed>0.01414213562373095</speed>
  <fix>3d</fix>
</trkpt>
<trkpt lat="33.8103717" lon="-118.3946115">
  <ele>-0.11</ele>
  <time>2026-09-02T22:07:28Z</time>
  <course>253.09</course>
  <speed>0.03</speed>
  <fix>3d</fix>
</trkpt>
<trkpt lat="33.4368002" lon="-117.0859339">
  <ele>-0.11</ele>
  <time>2026-09-02T22:07:29Z</time>
  <course>0.0</course>
  <speed>0.0</speed>
  <fix>3d</fix>
</trkpt>
<trkpt lat="33.4368002" lon="-117.0859339">
  <ele>-0.11</ele>
  <time>2026-09-02T22:07:29Z</time>
  <course>0.0</course>
  <speed>0.0</speed>
  <fix>3d</fix>
</trkpt>
<trkpt lat="33.810313" lon="-118.393867">
  <ele>0.0</ele>
  <time>2026-09-02T22:07:29Z</time>
  <course>173.5</course>
  <speed>0.0</speed>
  <fix>3d</fix>
</trkpt>
<trkpt lat="33.810313" lon="-118.393867">
  <ele>-0.11</ele>
  <time>2026-09-02T22:07:29Z</time>
  <course>0.0</course>
  <speed>0.0</speed>
  <fix>3d</fix>
</trkpt>
<trkpt lat="33.810313" lon="-118.393867">
  <ele>0.0</ele>
  <time>2026-09-02T22:07:29Z</time>
  <course>173.61</course>
  <speed>0.0</speed>
  <fix>3d</fix>
</trkpt>
<trkpt lat="33.810313" lon="-118.393867">
  <ele>-0.11</ele>
  <time>2026-09-02T22:07:29Z</time>
  <course>0.0</course>
  <speed>0.0</speed>
  <fix>3d</fix>
</trkpt>
<trkpt lat="33.810313" lon="-118.393867">
  <ele>0.0</ele>
  <time>2026-09-02T22:07:29Z</time>
  <course>173.98</course>
  <speed>0.0</speed>
  <fix>3d</fix>
</trkpt>
<trkpt lat="33.810313" lon="-118.393867">
  <ele>-0.11</ele>
  <time>2026-09-02T22:07:29Z</time>
  <course>0.0</course>
  <speed>0.0</speed>
  <fix>3d</fix>
</trkpt>
<trkpt lat="33.810313" lon="-118.393867">
  <ele>0.0</ele>
  <time>2026-09-02T22:07:29Z</time>
  <course>174.51</course>
  <speed>0.0</speed>
  <fix>3d</fix>
</trkpt>
<trkpt lat="33.810313" lon="-118.393867">
  <ele>-0.11</ele>
  <time>2026-09-02T22:07:29Z</time>
  <course>0.0</course>
  <speed>0.0</speed>
  <fix>3d</fix>
</trkpt>
<trkpt lat="33.810313" lon="-118.393867">
  <ele>0.0</ele>
  <time>2026-09-02T22:07:29Z</time>
  <course>175.07</course>
  <speed>0.0</speed>
  <fix>3d</fix>
</trkpt>
<trkpt lat="33.810313" lon="-118.393867">
  <ele>-0.12</ele>
  <time>2026-09-02T22:07:29Z</time>
  <course>0.0</course>
  <speed>0.0</speed>
  <fix>3d</fix>
</trkpt>
<trkpt lat="33.810313" lon="-118.393867">
  <ele>0.0</ele>
  <time>2026-09-02T22:07:29Z</time>
  <course>175.61</course>
  <speed>0.0</speed>
  <fix>3d</fix>
</trkpt>
<trkpt lat="33.810313" lon="-118.393867">
  <ele>-0.12</ele>
  <time>2026-09-02T22:07:29Z</time>
  <course>0.0</course>
  <speed>0.0</speed>
  <fix>3d</fix>
</trkpt>
<trkpt lat="33.810313" lon="-118.393867">
  <ele>0.0</ele>
  <time>2026-09-02T22:07:29Z</time>
  <course>176.12</course>
  <speed>0.0</speed>
  <fix>3d</fix>
</trkpt>
<trkpt lat="33.810313" lon="-118.393867">
  <ele>-0.13</ele>
  <time>2026-09-02T22:07:29Z</time>
  <course>0.0</course>
  <speed>0.0</speed>
  <fix>3d</fix>
</trkpt>
<trkpt lat="33.810313" lon="-118.393867">
  <ele>0.0</ele>
  <time>2026-09-02T22:07:29Z</time>
  <course>176.6</course>
  <speed>0.0</speed>
  <fix>3d</fix>
</trkpt>
<trkpt lat="33.810313" lon="-118.393867">
  <ele>-0.13</ele>
  <time>2026-09-02T22:07:29Z</time>
  <course>0.0</course>
  <speed>0.0</speed>
  <fix>3d</fix>
</trkpt>
<trkpt lat="33.810313" lon="-118.393867">
  <ele>0.0</ele>
  <time>2026-09-02T22:07:29Z</time>
  <course>177.07</course>
  <speed>0.0</speed>
  <fix>3d</fix>
</trkpt>
<trkpt lat="33.810313" lon="-118.393867">
  <ele>-0.13</ele>
  <time>2026-09-02T22:07:29Z</time>
  <course>0.0</course>
  <speed>0.0</speed>
  <fix>3d</fix>
</trkpt>
<trkpt lat="33.810313" lon="-118.393867">
  <ele>0.0</ele>
  <time>2026-09-02T22:07:29Z</time>
  <course>177.53</course>
  <speed>0.0</speed>
  <fix>3d</fix>
</trkpt>
<trkpt lat="33.810313" lon="-118.393867">
  <ele>-0.13</ele>
  <time>2026-09-02T22:07:29Z</time>
  <course>0.0</course>
  <speed>0.0</speed>
  <fix>3d</fix>
</trkpt>
<trkpt lat="33.810313" lon="-118.393867">
  <ele>0.0</ele>
  <time>2026-09-02T22:07:29Z</time>
  <course>177.97</course>
  <speed>0.0</speed>
  <fix>3d</fix>
</trkpt>
<trkpt lat="33.810313" lon="-118.393867">
  <ele>-0.14</ele>
  <time>2026-09-02T22:07:29Z</time>
  <course>0.0</course>
  <speed>0.0</speed>
  <fix>3d</fix>
</trkpt>
<trkpt lat="33.810313" lon="-118.393867">
  <ele>0.0</ele>
  <time>2026-09-02T22:07:29Z</time>
  <course>178.4</course>
  <speed>0.0</speed>
  <fix>3d</fix>
</trkpt>
<trkpt lat="33.810313" lon="-118.393867">
  <ele>-0.14</ele>
  <time>2026-09-02T22:07:29Z</time>
  <course>0.0</course>
  <speed>0.0</speed>
  <fix>3d</fix>
</trkpt>
<trkpt lat="33.810313" lon="-118.393867">
  <ele>0.0</ele>
  <time>2026-09-02T22:07:29Z</time>
  <course>178.83</course>
  <speed>0.0</speed>
  <fix>3d</fix>
</trkpt>
<trkpt lat="33.810313" lon="-118.393867">
  <ele>-0.14</ele>
  <time>2026-09-02T22:07:29Z</time>
  <course>0.0</course>
  <speed>0.0</speed>
  <fix>3d</fix>
</trkpt>
<trkpt lat="33.810313" lon="-118.393867">
  <ele>0.0</ele>
  <time>2026-09-02T22:07:29Z</time>
  <course>179.23</course>
  <speed>0.0</speed>
  <fix>3d</fix>
</trkpt>
<trkpt lat="33.810313" lon="-118.393867">
  <ele>-0.14</ele>
  <time>2026-09-02T22:07:29Z</time>
  <course>0.0</course>
  <speed>0.0</speed>
  <fix>3d</fix>
</trkpt>
<trkpt lat="33.810313" lon="-118.393867">
  <ele>0.0</ele>
  <time>2026-09-02T22:07:29Z</time>
  <course>179.62</course>
  <speed>0.0</speed>
  <fix>3d</fix>
</trkpt>
<trkpt lat="33.810313" lon="-118.393867">
  <ele>-0.14</ele>
  <time>2026-09-02T22:07:29Z</time>
  <course>0.0</course>
  <speed>0.0</speed>
  <fix>3d</fix>
</trkpt>
<trkpt lat="33.810313" lon="-118.393867">
  <ele>0.0</ele>
  <time>2026-09-02T22:07:29Z</time>
  <course>180.01</course>
  <speed>0.0</speed>
  <fix>3d</fix>
</trkpt>
<trkpt lat="33.810313" lon="-118.393867">
  <ele>-0.14</ele>
  <time>2026-09-02T22:07:29Z</time>
  <course>0.0</course>
  <speed>0.0</speed>
  <fix>3d</fix>
</trkpt>
<trkpt lat="33.810313" lon="-118.393867">
  <ele>0.0</ele>
  <time>2026-09-02T22:07:29Z</time>
  <course>180.37</course>
  <speed>0.0</speed>
  <fix>3d</fix>
</trkpt>
<trkpt lat="33.810313" lon="-118.393867">
  <ele>-0.14</ele>
  <time>2026-09-02T22:07:29Z</time>
  <course>0.0</course>
  <speed>0.0</speed>
  <fix>3d</fix>
</trkpt>
<trkpt lat="33.810313" lon="-118.393867">
  <ele>0.0</ele>
  <time>2026-09-02T22:07:29Z</time>
  <course>180.73</course>
  <speed>0.0</speed>
  <fix>3d</fix>
</trkpt>
<trkpt lat="33.810313" lon="-118.393867">
  <ele>-0.14</ele>
  <time>2026-09-02T22:07:29Z</time>
  <course>0.0</course>
  <speed>0.0</speed>
  <fix>3d</fix>
</trkpt>
<trkpt lat="33.810313" lon="-118.393867">
  <ele>0.0</ele>
  <time>2026-09-02T22:07:29Z</time>
  <course>181.07</course>
  <speed>0.0</speed>
  <fix>3d</fix>
</trkpt>
<trkpt lat="33.810313" lon="-118.393867">
  <ele>-0.13</ele>
  <time>2026-09-02T22:07:29Z</time>
  <course>0.0</course>
  <speed>0.0</speed>
  <fix>3d</fix>
</trkpt>
<trkpt lat="33.810313" lon="-118.393867">
  <ele>0.0</ele>
  <time>2026-09-02T22:07:29Z</time>
  <course>181.4</course>
  <speed>0.0</speed>
  <fix>3d</fix>
</trkpt>
<trkpt lat="33.810313" lon="-118.393867">
  <ele>-0.13</ele>
  <time>2026-09-02T22:07:29Z</time>
  <course>0.0</course>
  <speed>0.0</speed>
  <fix>3d</fix>
</trkpt>
<trkpt lat="33.810313" lon="-118.393867">
  <ele>0.0</ele>
  <time>2026-09-02T22:07:29Z</time>
  <course>181.72</course>
  <speed>0.0</speed>
  <fix>3d</fix>
</trkpt>
<trkpt lat="33.810313" lon="-118.393867">
  <ele>-0.12</ele>
  <time>2026-09-02T22:07:29Z</time>
  <course>0.0</course>
  <speed>0.0</speed>
  <fix>3d</fix>
</trkpt>
<trkpt lat="33.810313" lon="-118.393867">
  <ele>0.0</ele>
  <time>2026-09-02T22:07:29Z</time>
  <course>182.02</course>
  <speed>0.0</speed>
  <fix>3d</fix>
</trkpt>
<trkpt lat="33.810313" lon="-118.393867">
  <ele>-0.12</ele>
  <time>2026-09-02T22:07:29Z</time>
  <course>0.0</course>
  <speed>0.0</speed>
  <fix>3d</fix>
</trkpt>
<trkpt lat="33.810313" lon="-118.393867">
  <ele>0.0</ele>
  <time>2026-09-02T22:07:29Z</time>
  <course>182.32</course>
  <speed>0.0</speed>
  <fix>3d</fix>
</trkpt>
<trkpt lat="33.810313" lon="-118.393867">
  <ele>-0.12</ele>
  <time>2026-09-02T22:07:29Z</time>
  <course>0.0</course>
  <speed>0.0</speed>
  <fix>3d</fix>
</trkpt>
<trkpt lat="33.810313" lon="-118.393867">
  <ele>0.0</ele>
  <time>2026-09-02T22:07:29Z</time>
  <course>182.6</course>
  <speed>0.0</speed>
  <fix>3d</fix>
</trkpt>
<trkpt lat="33.810313" lon="-118.393867">
  <ele>-0.12</ele>
  <time>2026-09-02T22:07:29Z</time>
  <course>0.0</course>
  <speed>0.0</speed>
  <fix>3d</fix>
</trkpt>
<trkpt lat="33.810313" lon="-118.393867">
  <ele>0.0</ele>
  <time>2026-09-02T22:07:29Z</time>
  <course>182.87</course>
  <speed>0.0</speed>
  <fix>3d</fix>
</trkpt>
<trkpt lat="33.810313" lon="-118.393867">
  <ele>-0.11</ele>
  <time>2026-09-02T22:07:29Z</time>
  <course>0.0</course>
  <speed>0.0</speed>
  <fix>3d</fix>
</trkpt>
<trkpt lat="33.810313" lon="-118.393867">
  <ele>0.0</ele>
  <time>2026-09-02T22:07:29Z</time>
  <course>183.14</course>
  <speed>0.0</speed>
  <fix>3d</fix>
</trkpt>
<trkpt lat="33.810313" lon="-118.393867">
  <ele>-0.11</ele>
  <time>2026-09-02T22:07:29Z</time>
  <course>0.0</course>
  <speed>0.0</speed>
  <fix>3d</fix>
</trkpt>
<trkpt lat="33.810313" lon="-118.393867">
  <ele>0.0</ele>
  <time>2026-09-02T22:07:29Z</time>
  <course>183.39</course>
  <speed>0.0</speed>
  <fix>3d</fix>
</trkpt>
<trkpt lat="33.810313" lon="-118.393867">
  <ele>-0.11</ele>
  <time>2026-09-02T22:07:29Z</time>
  <course>0.0</course>
  <speed>0.0</speed>
  <fix>3d</fix>
</trkpt>
<trkpt lat="33.810313" lon="-118.393867">
  <ele>0.0</ele>
  <time>2026-09-02T22:07:29Z</time>
  <course>183.63</course>
  <speed>0.0</speed>
  <fix>3d</fix>
</trkpt>
<trkpt lat="33.810313" lon="-118.393867">
  <ele>-0.11</ele>
  <time>2026-09-02T22:07:29Z</time>
  <course>0.0</course>
  <speed>0.0</speed>
  <fix>3d</fix>
</trkpt>
<trkpt lat="33.810313" lon="-118.393867">
  <ele>0.0</ele>
  <time>2026-09-02T22:07:29Z</time>
  <course>183.86</course>
  <speed>0.0</speed>
  <fix>3d</fix>
</trkpt>
<trkpt lat="33.810313" lon="-118.393867">
  <ele>-0.12</ele>
  <time>2026-09-02T22:07:29Z</time>
  <course>0.0</course>
  <speed>0.0</speed>
  <fix>3d</fix>
</trkpt>
<trkpt lat="33.810313" lon="-118.393867">
  <ele>0.0</ele>
  <time>2026-09-02T22:07:29Z</time>
  <course>184.08</course>
  <speed>0.0</speed>
  <fix>3d</fix>
</trkpt>
<trkpt lat="33.810313" lon="-118.393867">
  <ele>-0.12</ele>
  <time>2026-09-02T22:07:29Z</time>
  <course>0.0</course>
  <speed>0.0</speed>
  <fix>3d</fix>
</trkpt>
<trkpt lat="33.810313" lon="-118.393867">
  <ele>0.0</ele>
  <time>2026-09-02T22:07:29Z</time>
  <course>184.3</course>
  <speed>0.0</speed>
  <fix>3d</fix>
</trkpt>
<trkpt lat="33.810313" lon="-118.393867">
  <ele>-0.13</ele>
  <time>2026-09-02T22:07:29Z</time>
  <course>0.0</course>
  <speed>0.0</speed>
  <fix>3d</fix>
</trkpt>
<trkpt lat="33.810313" lon="-118.393867">
  <ele>0.0</ele>
  <time>2026-09-02T22:07:29Z</time>
  <course>184.5</course>
  <speed>0.0</speed>
  <fix>3d</fix>
</trkpt>
<trkpt lat="33.810313" lon="-118.393867">
  <ele>-0.13</ele>
  <time>2026-09-02T22:07:29Z</time>
  <course>0.0</course>
  <speed>0.0</speed>
  <fix>3d</fix>
</trkpt>
<trkpt lat="33.810313" lon="-118.393867">
  <ele>0.0</ele>
  <time>2026-09-02T22:07:29Z</time>
  <course>184.7</course>
  <speed>0.0</speed>
  <fix>3d</fix>
</trkpt>
<trkpt lat="33.810313" lon="-118.393867">
  <ele>-0.13</ele>
  <time>2026-09-02T22:07:29Z</time>
  <course>0.0</course>
  <speed>0.0</speed>
  <fix>3d</fix>
</trkpt>
<trkpt lat="33.810313" lon="-118.393867">
  <ele>0.0</ele>
  <time>2026-09-02T22:07:29Z</time>
  <course>184.89</course>
  <speed>0.0</speed>
  <fix>3d</fix>
</trkpt>
<trkpt lat="33.810313" lon="-118.393867">
  <ele>-0.13</ele>
  <time>2026-09-02T22:07:29Z</time>
  <course>0.0</course>
  <speed>0.0</speed>
  <fix>3d</fix>
</trkpt>
<trkpt lat="33.810313" lon="-118.393867">
  <ele>0.0</ele>
  <time>2026-09-02T22:07:29Z</time>
  <course>185.07</course>
  <speed>0.0</speed>
  <fix>3d</fix>
</trkpt>
<trkpt lat="33.810313" lon="-118.393867">
  <ele>-0.14</ele>
  <time>2026-09-02T22:07:29Z</time>
  <course>0.0</course>
  <speed>0.0</speed>
  <fix>3d</fix>
</trkpt>
<trkpt lat="33.810313" lon="-118.393867">
  <ele>0.0</ele>
  <time>2026-09-02T22:07:29Z</time>
  <course>185.24</course>
  <speed>0.0</speed>
  <fix>3d</fix>
</trkpt>
<trkpt lat="33.810313" lon="-118.393867">
  <ele>-0.14</ele>
  <time>2026-09-02T22:07:29Z</time>
  <course>0.0</course>
  <speed>0.0</speed>
  <fix>3d</fix>
</trkpt>
<trkpt lat="33.810313" lon="-118.393867">
  <ele>0.0</ele>
  <time>2026-09-02T22:07:29Z</time>
  <course>185.41</course>
  <speed>0.0</speed>
  <fix>3d</fix>
</trkpt>
<trkpt lat="33.810313" lon="-118.393867">
  <ele>-0.13</ele>
  <time>2026-09-02T22:07:29Z</time>
  <course>0.0</course>
  <speed>0.0</speed>
  <fix>3d</fix>
</trkpt>
<trkpt lat="33.810313" lon="-118.393867">
  <ele>0.0</ele>
  <time>2026-09-02T22:07:29Z</time>
  <course>185.56</course>
  <speed>0.0</speed>
  <fix>3d</fix>
</trkpt>
<trkpt lat="33.810313" lon="-118.393867">
  <ele>-0.13</ele>
  <time>2026-09-02T22:07:29Z</time>
  <course>0.0</course>
  <speed>0.0</speed>
  <fix>3d</fix>
</trkpt>
<trkpt lat="33.810313" lon="-118.393867">
  <ele>0.0</ele>
  <time>2026-09-02T22:07:29Z</time>
  <course>185.72</course>
  <speed>0.0</speed>
  <fix>3d</fix>
</trkpt>
<trkpt lat="33.810313" lon="-118.393867">
  <ele>-0.13</ele>
  <time>2026-09-02T22:07:29Z</time>
  <course>0.0</course>
  <speed>0.0</speed>
  <fix>3d</fix>
</trkpt>
<trkpt lat="33.810313" lon="-118.393867">
  <ele>0.0</ele>
  <time>2026-09-02T22:07:29Z</time>
  <course>185.86</course>
  <speed>0.0</speed>
  <fix>3d</fix>
</trkpt>
<trkpt lat="33.810313" lon="-118.393867">
  <ele>-0.13</ele>
  <time>2026-09-02T22:07:29Z</time>
  <course>0.0</course>
  <speed>0.0</speed>
  <fix>3d</fix>
</trkpt>
<trkpt lat="33.810313" lon="-118.393867">
  <ele>0.0</ele>
  <time>2026-09-02T22:07:29Z</time>
  <course>186.0</course>
  <speed>0.0</speed>
  <fix>3d</fix>
</trkpt>
<trkpt lat="33.810313" lon="-118.393867">
  <ele>-0.12</ele>
  <time>2026-09-02T22:07:29Z</time>
  <course>0.0</course>
  <speed>0.0</speed>
  <fix>3d</fix>
</trkpt>
<trkpt lat="33.810313" lon="-118.393867">
  <ele>0.0</ele>
  <time>2026-09-02T22:07:29Z</time>
  <course>186.13</course>
  <speed>0.0</speed>
  <fix>3d</fix>
</trkpt>
<trkpt lat="33.810313" lon="-118.393867">
  <ele>-0.12</ele>
  <time>2026-09-02T22:07:29Z</time>
  <course>0.0</course>
  <speed>0.0</speed>
  <fix>3d</fix>
</trkpt>
<trkpt lat="33.810313" lon="-118.393867">
  <ele>0.0</ele>
  <time>2026-09-02T22:07:29Z</time>
  <course>186.26</course>
  <speed>0.0</speed>
  <fix>3d</fix>
</trkpt>
<trkpt lat="33.810313" lon="-118.393867">
  <ele>-0.12</ele>
  <time>2026-09-02T22:07:29Z</time>
  <course>0.0</course>
  <speed>0.0</speed>
  <fix>3d</fix>
</trkpt>
<trkpt lat="33.810313" lon="-118.393867">
  <ele>0.0</ele>
  <time>2026-09-02T22:07:29Z</time>
  <course>186.38</course>
  <speed>0.0</speed>
  <fix>3d</fix>
</trkpt>
<trkpt lat="33.810313" lon="-118.393867">
  <ele>-0.12</ele>
  <time>2026-09-02T22:07:29Z</time>
  <course>0.0</course>
  <speed>0.0</speed>
  <fix>3d</fix>
</trkpt>
<trkpt lat="33.810313" lon="-118.393867">
  <ele>0.0</ele>
  <time>2026-09-02T22:07:29Z</time>
  <course>186.49</course>
  <speed>0.0</speed>
  <fix>3d</fix>
</trkpt>
<trkpt lat="33.810313" lon="-118.393867">
  <ele>-0.12</ele>
  <time>2026-09-02T22:07:29Z</time>
  <course>0.0</course>
  <speed>0.0</speed>
  <fix>3d</fix>
</trkpt>
<trkpt lat="33.810313" lon="-118.393867">
  <ele>0.0</ele>
  <time>2026-09-02T22:07:29Z</time>
  <course>186.6</course>
  <speed>0.0</speed>
  <fix>3d</fix>
</trkpt>
<trkpt lat="33.810313" lon="-118.393867">
  <ele>-0.12</ele>
  <time>2026-09-02T22:07:29Z</time>
  <course>0.0</course>
  <speed>0.0</speed>
  <fix>3d</fix>
</trkpt>
<trkpt lat="33.810313" lon="-118.393867">
  <ele>0.0</ele>
  <time>2026-09-02T22:07:29Z</time>
  <course>186.71</course>
  <speed>0.0</speed>
  <fix>3d</fix>
</trkpt>
<trkpt lat="33.810313" lon="-118.393867">
  <ele>-0.12</ele>
  <time>2026-09-02T22:07:29Z</time>
  <course>0.0</course>
  <speed>0.0</speed>
  <fix>3d</fix>
</trkpt>
<trkpt lat="33.810313" lon="-118.393867">
  <ele>0.0</ele>
  <time>2026-09-02T22:07:29Z</time>
  <course>186.81</course>
  <speed>0.0</speed>
  <fix>3d</fix>
</trkpt>
<trkpt lat="33.810313" lon="-118.393867">
  <ele>-0.12</ele>
  <time>2026-09-02T22:07:29Z</time>
  <course>0.0</course>
  <speed>0.0</speed>
  <fix>3d</fix>
</trkpt>
<trkpt lat="33.810313" lon="-118.393867">
  <ele>0.0</ele>
  <time>2026-09-02T22:07:29Z</time>
  <course>186.9</course>
  <speed>0.0</speed>
  <fix>3d</fix>
</trkpt>
<trkpt lat="33.810313" lon="-118.393867">
  <ele>-0.12</ele>
  <time>2026-09-02T22:07:29Z</time>
  <course>0.0</course>
  <speed>0.0</speed>
  <fix>3d</fix>
</trkpt>
<trkpt lat="33.810313" lon="-118.393867">
  <ele>0.0</ele>
  <time>2026-09-02T22:07:29Z</time>
  <course>187.0</course>
  <speed>0.0</speed>
  <fix>3d</fix>
</trkpt>
<trkpt lat="33.810313" lon="-118.393867">
  <ele>-0.12</ele>
  <time>2026-09-02T22:07:29Z</time>
  <course>0.0</course>
  <speed>0.0</speed>
  <fix>3d</fix>
</trkpt>
<trkpt lat="33.810313" lon="-118.393867">
  <ele>0.0</ele>
  <time>2026-09-02T22:07:29Z</time>
  <course>187.08</course>
  <speed>0.0</speed>
  <fix>3d</fix>
</trkpt>
<trkpt lat="33.810313" lon="-118.393867">
  <ele>-0.13</ele>
  <time>2026-09-02T22:07:29Z</time>
  <course>0.0</course>
  <speed>0.0</speed>
  <fix>3d</fix>
</trkpt>
<trkpt lat="33.810313" lon="-118.393867">
  <ele>0.0</ele>
  <time>2026-09-02T22:07:29Z</time>
  <course>187.17</course>
  <speed>0.0</speed>
  <fix>3d</fix>
</trkpt>
<trkpt lat="33.810313" lon="-118.393867">
  <ele>-0.13</ele>
  <time>2026-09-02T22:07:29Z</time>
  <course>0.0</course>
  <speed>0.0</speed>
  <fix>3d</fix>
</trkpt>
<trkpt lat="33.810313" lon="-118.393867">
  <ele>0.0</ele>
  <time>2026-09-02T22:07:29Z</time>
  <course>187.24</course>
  <speed>0.0</speed>
  <fix>3d</fix>
</trkpt>
<trkpt lat="33.810313" lon="-118.393867">
  <ele>-0.13</ele>
  <time>2026-09-02T22:07:29Z</time>
  <course>0.0</course>
  <speed>0.0</speed>
  <fix>3d</fix>
</trkpt>
<trkpt lat="33.810313" lon="-118.393867">
  <ele>0.0</ele>
  <time>2026-09-02T22:07:29Z</time>
  <course>187.32</course>
  <speed>0.0</speed>
  <fix>3d</fix>
</trkpt>
<trkpt lat="33.810313" lon="-118.393867">
  <ele>-0.13</ele>
  <time>2026-09-02T22:07:29Z</time>
  <course>0.0</course>
  <speed>0.0</speed>
  <fix>3d</fix>
</trkpt>
<trkpt lat="33.810313" lon="-118.393867">
  <ele>0.0</ele>
  <time>2026-09-02T22:07:29Z</time>
  <course>187.39</course>
  <speed>0.0</speed>
  <fix>3d</fix>
</trkpt>
<trkpt lat="33.810313" lon="-118.393867">
  <ele>-0.13</ele>
  <time>2026-09-02T22:07:29Z</time>
  <course>0.0</course>
  <speed>0.0</speed>
  <fix>3d</fix>
</trkpt>
<trkpt lat="33.810313" lon="-118.393867">
  <ele>0.0</ele>
  <time>2026-09-02T22:07:29Z</time>
  <course>187.46</course>
  <speed>0.0</speed>
  <fix>3d</fix>
</trkpt>
<trkpt lat="33.810313" lon="-118.393867">
  <ele>-0.13</ele>
  <time>2026-09-02T22:07:29Z</time>
  <course>0.0</course>
  <speed>0.0</speed>
  <fix>3d</fix>
</trkpt>
<trkpt lat="33.810313" lon="-118.393867">
  <ele>0.0</ele>
  <time>2026-09-02T22:07:29Z</time>
  <course>187.53</course>
  <speed>0.0</speed>
  <fix>3d</fix>
</trkpt>
<trkpt lat="33.810313" lon="-118.393867">
  <ele>-0.13</ele>
  <time>2026-09-02T22:07:29Z</time>
  <course>0.0</course>
  <speed>0.0</speed>
  <fix>3d</fix>
</trkpt>
<trkpt lat="33.810313" lon="-118.393867">
  <ele>0.0</ele>
  <time>2026-09-02T22:07:29Z</time>
  <course>187.59</course>
  <speed>0.0</speed>
  <fix>3d</fix>
</trkpt>
<trkpt lat="33.810313" lon="-118.393867">
  <ele>-0.13</ele>
  <time>2026-09-02T22:07:29Z</time>
  <course>0.0</course>
  <speed>0.0</speed>
  <fix>3d</fix>
</trkpt>
<trkpt lat="33.810313" lon="-118.393867">
  <ele>0.0</ele>
  <time>2026-09-02T22:07:29Z</time>
  <course>187.65</course>
  <speed>0.0</speed>
  <fix>3d</fix>
</trkpt>
<trkpt lat="33.810313" lon="-118.393867">
  <ele>-0.12</ele>
  <time>2026-09-02T22:07:29Z</time>
  <course>0.0</course>
  <speed>0.0</speed>
  <fix>3d</fix>
</trkpt>
<trkpt lat="33.810313" lon="-118.393867">
  <ele>0.0</ele>
  <time>2026-09-02T22:07:29Z</time>
  <course>187.7</course>
  <speed>0.0</speed>
  <fix>3d</fix>
</trkpt>
<trkpt lat="33.810313" lon="-118.393867">
  <ele>-0.12</ele>
  <time>2026-09-02T22:07:29Z</time>
  <course>0.0</course>
  <speed>0.0</speed>
  <fix>3d</fix>
</trkpt>
<trkpt lat="33.810313" lon="-118.393867">
  <ele>0.0</ele>
  <time>2026-09-02T22:07:29Z</time>
  <course>187.76</course>
  <speed>0.0</speed>
  <fix>3d</fix>
</trkpt>
<trkpt lat="33.810313" lon="-118.393867">
  <ele>-0.12</ele>
  <time>2026-09-02T22:07:29Z</time>
  <course>0.0</course>
  <speed>0.0</speed>
  <fix>3d</fix>
</trkpt>
<trkpt lat="33.810313" lon="-118.393867">
  <ele>0.0</ele>
  <time>2026-09-02T22:07:29Z</time>
  <course>187.81</course>
  <speed>0.0</speed>
  <fix>3d</fix>
</trkpt>
<trkpt lat="33.810313" lon="-118.393867">
  <ele>-0.12</ele>
  <time>2026-09-02T22:07:29Z</time>
  <course>0.0</course>
  <speed>0.0</speed>
  <fix>3d</fix>
</trkpt>
<trkpt lat="33.810313" lon="-118.393867">
  <ele>0.0</ele>
  <time>2026-09-02T22:07:29Z</time>
  <course>187.86</course>
  <speed>0.0</speed>
  <fix>3d</fix>
</trkpt>
<trkpt lat="33.810313" lon="-118.393867">
  <ele>-0.12</ele>
  <time>2026-09-02T22:07:29Z</time>
  <course>0.0</course>
  <speed>0.0</speed>
  <fix>3d</fix>
</trkpt>
<trkpt lat="33.810313" lon="-118.393867">
  <ele>0.0</ele>
  <time>2026-09-02T22:07:29Z</time>
  <course>187.9</course>
  <speed>0.0</speed>
  <fix>3d</fix>
</trkpt>
<trkpt lat="33.810313" lon="-118.393867">
  <ele>-0.12</ele>
  <time>2026-09-02T22:07:29Z</time>
  <course>0.0</course>
  <speed>0.0</speed>
  <fix>3d</fix>
</trkpt>
<trkpt lat="33.810313" lon="-118.393867">
  <ele>0.0</ele>
  <time>2026-09-02T22:07:29Z</time>
  <course>187.94</course>
  <speed>0.0</speed>
  <fix>3d</fix>
</trkpt>
<trkpt lat="33.810313" lon="-118.393867">
  <ele>-0.12</ele>
  <time>2026-09-02T22:07:29Z</time>
  <course>0.0</course>
  <speed>0.0</speed>
  <fix>3d</fix>
</trkpt>
<trkpt lat="33.810313" lon="-118.393867">
  <ele>0.0</ele>
  <time>2026-09-02T22:07:29Z</time>
  <course>187.99</course>
  <speed>0.0</speed>
  <fix>3d</fix>
</trkpt>
<trkpt lat="33.810313" lon="-118.393867">
  <ele>-0.12</ele>
  <time>2026-09-02T22:07:29Z</time>
  <course>0.0</course>
  <speed>0.0</speed>
  <fix>3d</fix>
</trkpt>
<trkpt lat="33.810313" lon="-118.393867">
  <ele>0.0</ele>
  <time>2026-09-02T22:07:29Z</time>
  <course>188.02</course>
  <speed>0.0</speed>
  <fix>3d</fix>
</trkpt>
<trkpt lat="33.810313" lon="-118.393867">
  <ele>-0.12</ele>
  <time>2026-09-02T22:07:29Z</time>
  <course>0.0</course>
  <speed>0.0</speed>
  <fix>3d</fix>
</trkpt>
<trkpt lat="33.810313" lon="-118.393867">
  <ele>0.0</ele>
  <time>2026-09-02T22:07:29Z</time>
  <course>188.06</course>
  <speed>0.0</speed>
  <fix>3d</fix>
</trkpt>
<trkpt lat="33.810313" lon="-118.393867">
  <ele>-0.12</ele>
  <time>2026-09-02T22:07:29Z</time>
  <course>0.0</course>
  <speed>0.0</speed>
  <fix>3d</fix>
</trkpt>
<trkpt lat="33.810313" lon="-118.393867">
  <ele>0.0</ele>
  <time>2026-09-02T22:07:29Z</time>
  <course>188.1</course>
  <speed>0.0</speed>
  <fix>3d</fix>
</trkpt>
<trkpt lat="33.810313" lon="-118.393867">
  <ele>-0.13</ele>
  <time>2026-09-02T22:07:29Z</time>
  <course>0.0</course>
  <speed>0.0</speed>
  <fix>3d</fix>
</trkpt>
<trkpt lat="33.810313" lon="-118.393867">
  <ele>0.0</ele>
  <time>2026-09-02T22:07:29Z</time>
  <course>188.13</course>
  <speed>0.0</speed>
  <fix>3d</fix>
</trkpt>
<trkpt lat="33.810313" lon="-118.393867">
  <ele>-0.13</ele>
  <time>2026-09-02T22:07:29Z</time>
  <course>0.0</course>
  <speed>0.0</speed>
  <fix>3d</fix>
</trkpt>
<trkpt lat="33.810313" lon="-118.393867">
  <ele>0.0</ele>
  <time>2026-09-02T22:07:29Z</time>
  <course>188.16</course>
  <speed>0.0</speed>
  <fix>3d</fix>
</trkpt>
<trkpt lat="33.810313" lon="-118.393867">
  <ele>-0.13</ele>
  <time>2026-09-02T22:07:29Z</time>
  <course>0.0</course>
  <speed>0.0</speed>
  <fix>3d</fix>
</trkpt>
<trkpt lat="33.810313" lon="-118.393867">
  <ele>0.0</ele>
  <time>2026-09-02T22:07:29Z</time>
  <course>188.19</course>
  <speed>0.0</speed>
  <fix>3d</fix>
</trkpt>
<trkpt lat="33.810313" lon="-118.393867">
  <ele>-0.13</ele>
  <time>2026-09-02T22:07:29Z</time>
  <course>0.0</course>
  <speed>0.0</speed>
  <fix>3d</fix>
</trkpt>
<trkpt lat="33.810313" lon="-118.393867">
  <ele>0.0</ele>
  <time>2026-09-02T22:07:29Z</time>
  <course>188.22</course>
  <speed>0.0</speed>
  <fix>3d</fix>
</trkpt>
<trkpt lat="33.810313" lon="-118.393867">
  <ele>-0.13</ele>
  <time>2026-09-02T22:07:29Z</time>
  <course>0.0</course>
  <speed>0.0</speed>
  <fix>3d</fix>
</trkpt>
<trkpt lat="33.810313" lon="-118.393867">
  <ele>0.0</ele>
  <time>2026-09-02T22:07:29Z</time>
  <course>188.24</course>
  <speed>0.0</speed>
  <fix>3d</fix>
</trkpt>
<trkpt lat="33.810313" lon="-118.393867">
  <ele>-0.13</ele>
  <time>2026-09-02T22:07:29Z</time>
  <course>0.0</course>
  <speed>0.0</speed>
  <fix>3d</fix>
</trkpt>
<trkpt lat="33.810313" lon="-118.393867">
  <ele>0.0</ele>
  <time>2026-09-02T22:07:29Z</time>
  <course>188.27</course>
  <speed>0.0</speed>
  <fix>3d</fix>
</trkpt>
<trkpt lat="33.810313" lon="-118.393867">
  <ele>-0.12</ele>
  <time>2026-09-02T22:07:29Z</time>
  <course>0.0</course>
  <speed>0.0</speed>
  <fix>3d</fix>
</trkpt>
<trkpt lat="33.810313" lon="-118.393867">
  <ele>0.0</ele>
  <time>2026-09-02T22:07:29Z</time>
  <course>188.29</course>
  <speed>0.0</speed>
  <fix>3d</fix>
</trkpt>
<trkpt lat="33.810313" lon="-118.393867">
  <ele>-0.12</ele>
  <time>2026-09-02T22:07:29Z</time>
  <course>0.0</course>
  <speed>0.0</speed>
  <fix>3d</fix>
</trkpt>
<trkpt lat="33.810313" lon="-118.393867">
  <ele>0.0</ele>
  <time>2026-09-02T22:07:29Z</time>
  <course>188.32</course>
  <speed>0.0</speed>
  <fix>3d</fix>
</trkpt>
<trkpt lat="33.810313" lon="-118.393867">
  <ele>-0.12</ele>
  <time>2026-09-02T22:07:29Z</time>
  <course>0.0</course>
  <speed>0.0</speed>
  <fix>3d</fix>
</trkpt>
<trkpt lat="33.810313" lon="-118.393867">
  <ele>0.0</ele>
  <time>2026-09-02T22:07:29Z</time>
  <course>188.34</course>
  <speed>0.0</speed>
  <fix>3d</fix>
</trkpt>
<trkpt lat="33.810313" lon="-118.393867">
  <ele>-0.12</ele>
  <time>2026-09-02T22:07:29Z</time>
  <course>0.0</course>
  <speed>0.0</speed>
  <fix>3d</fix>
</trkpt>
<trkpt lat="33.810313" lon="-118.393867">
  <ele>0.0</ele>
  <time>2026-09-02T22:07:29Z</time>
  <course>188.36</course>
  <speed>0.0</speed>
  <fix>3d</fix>
</trkpt>
<trkpt lat="33.810313" lon="-118.393867">
  <ele>-0.12</ele>
  <time>2026-09-02T22:07:29Z</time>
  <course>0.0</course>
  <speed>0.0</speed>
  <fix>3d</fix>
</trkpt>
<trkpt lat="33.810313" lon="-118.393867">
  <ele>0.0</ele>
  <time>2026-09-02T22:07:29Z</time>
  <course>188.38</course>
  <speed>0.0</speed>
  <fix>3d</fix>
</trkpt>
<trkpt lat="33.810313" lon="-118.393867">
  <ele>-0.12</ele>
  <time>2026-09-02T22:07:29Z</time>
  <course>0.0</course>
  <speed>0.0</speed>
  <fix>3d</fix>
</trkpt>
<trkpt lat="33.810313" lon="-118.393867">
  <ele>0.0</ele>
  <time>2026-09-02T22:07:29Z</time>
  <course>188.39</course>
  <speed>0.0</speed>
  <fix>3d</fix>
</trkpt>
<trkpt lat="33.810313" lon="-118.393867">
  <ele>-0.12</ele>
  <time>2026-09-02T22:07:29Z</time>
  <course>0.0</course>
  <speed>0.0</speed>
  <fix>3d</fix>
</trkpt>
<trkpt lat="33.810313" lon="-118.393867">
  <ele>0.0</ele>
  <time>2026-09-02T22:07:29Z</time>
  <course>188.41</course>
  <speed>0.0</speed>
  <fix>3d</fix>
</trkpt>
<trkpt lat="33.810313" lon="-118.393867">
  <ele>-0.12</ele>
  <time>2026-09-02T22:07:29Z</time>
  <course>0.0</course>
  <speed>0.0</speed>
  <fix>3d</fix>
</trkpt>
<trkpt lat="33.810313" lon="-118.393867">
  <ele>0.0</ele>
  <time>2026-09-02T22:07:29Z</time>
  <course>188.42</course>
  <speed>0.0</speed>
  <fix>3d</fix>
</trkpt>
<trkpt lat="33.810313" lon="-118.393867">
  <ele>-0.12</ele>
  <time>2026-09-02T22:07:29Z</time>
  <course>0.0</course>
  <speed>0.0</speed>
  <fix>3d</fix>
</trkpt>
<trkpt lat="33.810313" lon="-118.393867">
  <ele>0.0</ele>
  <time>2026-09-02T22:07:29Z</time>
  <course>188.44</course>
  <speed>0.0</speed>
  <fix>3d</fix>
</trkpt>
<trkpt lat="33.810313" lon="-118.393867">
  <ele>-0.12</ele>
  <time>2026-09-02T22:07:29Z</time>
  <course>0.0</course>
  <speed>0.0</speed>
  <fix>3d</fix>
</trkpt>
<trkpt lat="33.810313" lon="-118.393867">
  <ele>0.0</ele>
  <time>2026-09-02T22:07:29Z</time>
  <course>188.45</course>
  <speed>0.0</speed>
  <fix>3d</fix>
</trkpt>
<trkpt lat="33.810313" lon="-118.393867">
  <ele>-0.13</ele>
  <time>2026-09-02T22:07:29Z</time>
  <course>0.0</course>
  <speed>0.0</speed>
  <fix>3d</fix>
</trkpt>
<trkpt lat="33.810313" lon="-118.393867">
  <ele>0.0</ele>
  <time>2026-09-02T22:07:29Z</time>
  <course>188.46</course>
  <speed>0.0</speed>
  <fix>3d</fix>
</trkpt>
<trkpt lat="33.810313" lon="-118.393867">
  <ele>-0.13</ele>
  <time>2026-09-02T22:07:29Z</time>
  <course>0.0</course>
  <speed>0.0</speed>
  <fix>3d</fix>
</trkpt>
<trkpt lat="33.810313" lon="-118.393867">
  <ele>0.0</ele>
  <time>2026-09-02T22:07:29Z</time>
  <course>188.47</course>
  <speed>0.0</speed>
  <fix>3d</fix>
</trkpt>
<trkpt lat="33.810313" lon="-118.393867">
  <ele>-0.13</ele>
  <time>2026-09-02T22:07:29Z</time>
  <course>0.0</course>
  <speed>0.0</speed>
  <fix>3d</fix>
</trkpt>
<trkpt lat="33.810313" lon="-118.393867">
  <ele>0.0</ele>
  <time>2026-09-02T22:07:29Z</time>
  <course>188.48</course>
  <speed>0.0</speed>
  <fix>3d</fix>
</trkpt>
<trkpt lat="33.810313" lon="-118.393867">
  <ele>-0.13</ele>
  <time>2026-09-02T22:07:29Z</time>
  <course>0.0</course>
  <speed>0.0</speed>
  <fix>3d</fix>
</trkpt>
<trkpt lat="33.810313" lon="-118.393867">
  <ele>0.0</ele>
  <time>2026-09-02T22:07:29Z</time>
  <course>188.49</course>
  <speed>0.0</speed>
  <fix>3d</fix>
</trkpt>
<trkpt lat="33.810313" lon="-118.393867">
  <ele>-0.13</ele>
  <time>2026-09-02T22:07:29Z</time>
  <course>0.0</course>
  <speed>0.0</speed>
  <fix>3d</fix>
</trkpt>
<trkpt lat="33.810313" lon="-118.393867">
  <ele>0.0</ele>
  <time>2026-09-02T22:07:29Z</time>
  <course>188.5</course>
  <speed>0.0</speed>
  <fix>3d</fix>
</trkpt>
<trkpt lat="33.810313" lon="-118.393867">
  <ele>-0.13</ele>
  <time>2026-09-02T22:07:29Z</time>
  <course>0.0</course>
  <speed>0.0</speed>
  <fix>3d</fix>
</trkpt>
<trkpt lat="33.810313" lon="-118.393867">
  <ele>0.0</ele>
  <time>2026-09-02T22:07:29Z</time>
  <course>188.51</course>
  <speed>0.0</speed>
  <fix>3d</fix>
</trkpt>
<trkpt lat="33.810313" lon="-118.393867">
  <ele>-0.12</ele>
  <time>2026-09-02T22:07:29Z</time>
  <course>0.0</course>
  <speed>0.0</speed>
  <fix>3d</fix>
</trkpt>
<trkpt lat="33.810313" lon="-118.393867">
  <ele>0.0</ele>
  <time>2026-09-02T22:07:29Z</time>
  <course>188.52</course>
  <speed>0.0</speed>
  <fix>3d</fix>
</trkpt>
<trkpt lat="33.810313" lon="-118.393867">
  <ele>-0.12</ele>
  <time>2026-09-02T22:07:29Z</time>
  <course>0.0</course>
  <speed>0.0</speed>
  <fix>3d</fix>
</trkpt>
<trkpt lat="33.810313" lon="-118.393867">
  <ele>0.0</ele>
  <time>2026-09-02T22:07:29Z</time>
  <course>188.53</course>
  <speed>0.0</speed>
  <fix>3d</fix>
</trkpt>
<trkpt lat="33.810313" lon="-118.393867">
  <ele>-0.12</ele>
  <time>2026-09-02T22:07:29Z</time>
  <course>0.0</course>
  <speed>0.0</speed>
  <fix>3d</fix>
</trkpt>
<trkpt lat="33.810313" lon="-118.393867">
  <ele>0.0</ele>
  <time>2026-09-02T22:07:29Z</time>
  <course>188.53</course>
  <speed>0.0</speed>
  <fix>3d</fix>
</trkpt>
<trkpt lat="33.810313" lon="-118.393867">
  <ele>-0.12</ele>
  <time>2026-09-02T22:07:29Z</time>
  <course>0.0</course>
  <speed>0.0</speed>
  <fix>3d</fix>
</trkpt>
<trkpt lat="33.810313" lon="-118.393867">
  <ele>0.0</ele>
  <time>2026-09-02T22:07:29Z</time>
  <course>188.54</course>
  <speed>0.0</speed>
  <fix>3d</fix>
</trkpt>
<trkpt lat="33.810313" lon="-118.393867">
  <ele>-0.12</ele>
  <time>2026-09-02T22:07:29Z</time>
  <course>0.0</course>
  <speed>0.0</speed>
  <fix>3d</fix>
</trkpt>
<trkpt lat="33.810313" lon="-118.393867">
  <ele>0.0</ele>
  <time>2026-09-02T22:07:29Z</time>
  <course>188.54</course>
  <speed>0.0</speed>
  <fix>3d</fix>
</trkpt>
<trkpt lat="33.810313" lon="-118.393867">
  <ele>-0.12</ele>
  <time>2026-09-02T22:07:29Z</time>
  <course>0.0</course>
  <speed>0.0</speed>
  <fix>3d</fix>
</trkpt>
<trkpt lat="33.810313" lon="-118.393867">
  <ele>0.0</ele>
  <time>2026-09-02T22:07:29Z</time>
  <course>188.54</course>
  <speed>0.0</speed>
  <fix>3d</fix>
</trkpt>
<trkpt lat="33.810313" lon="-118.393867">
  <ele>-0.12</ele>
  <time>2026-09-02T22:07:29Z</time>
  <course>0.0</course>
  <speed>0.0</speed>
  <fix>3d</fix>
</trkpt>
<trkpt lat="33.810313" lon="-118.393867">
  <ele>0.0</ele>
  <time>2026-09-02T22:07:29Z</time>
  <course>188.55</course>
  <speed>0.0</speed>
  <fix>3d</fix>
</trkpt>
<trkpt lat="33.810313" lon="-118.393867">
  <ele>-0.12</ele>
  <time>2026-09-02T22:07:29Z</time>
  <course>0.0</course>
  <speed>0.0</speed>
  <fix>3d</fix>
</trkpt>
<trkpt lat="33.810313" lon="-118.393867">
  <ele>0.0</ele>
  <time>2026-09-02T22:07:29Z</time>
  <course>188.55</course>
  <speed>0.0</speed>
  <fix>3d</fix>
</trkpt>
<trkpt lat="33.810313" lon="-118.393867">
  <ele>-0.12</ele>
  <time>2026-09-02T22:07:29Z</time>
  <course>0.0</course>
  <speed>0.0</speed>
  <fix>3d</fix>
</trkpt>
<trkpt lat="33.810313" lon="-118.393867">
  <ele>0.0</ele>
  <time>2026-09-02T22:07:29Z</time>
  <course>188.55</course>
  <speed>0.0</speed>
  <fix>3d</fix>
</trkpt>
<trkpt lat="33.810313" lon="-118.393867">
  <ele>-0.12</ele>
  <time>2026-09-02T22:07:29Z</time>
  <course>0.0</course>
  <speed>0.0</speed>
  <fix>3d</fix>
</trkpt>
<trkpt lat="33.810313" lon="-118.393867">
  <ele>-0.126</ele>
  <time>2026-09-02T22:07:29Z</time>
  <course>188.55</course>
  <speed>0.0</speed>
  <fix>3d</fix>
</trkpt>
<trkpt lat="33.810313" lon="-118.393867">
  <ele>-0.13</ele>
  <time>2026-09-02T22:07:29Z</time>
  <course>0.0</course>
  <speed>0.0</speed>
  <fix>3d</fix>
</trkpt>
<trkpt lat="33.810313" lon="-118.393867">
  <ele>-0.126</ele>
  <time>2026-09-02T22:07:29Z</time>
  <course>188.56</course>
  <speed>0.0</speed>
  <fix>3d</fix>
</trkpt>
<trkpt lat="33.810313" lon="-118.393867">
  <ele>-0.13</ele>
  <time>2026-09-02T22:07:29Z</time>
  <course>0.0</course>
  <speed>0.0</speed>
  <fix>3d</fix>
</trkpt>
<trkpt lat="33.810313" lon="-118.393867">
  <ele>-0.125</ele>
  <time>2026-09-02T22:07:29Z</time>
  <course>188.56</course>
  <speed>0.0</speed>
  <fix>3d</fix>
</trkpt>
<trkpt lat="33.810313" lon="-118.393867">
  <ele>-0.13</ele>
  <time>2026-09-02T22:07:29Z</time>
  <course>0.0</course>
  <speed>0.0</speed>
  <fix>3d</fix>
</trkpt>
<trkpt lat="33.810313" lon="-118.393867">
  <ele>-0.123</ele>
  <time>2026-09-02T22:07:29Z</time>
  <course>188.56</course>
  <speed>0.0</speed>
  <fix>3d</fix>
</trkpt>
<trkpt lat="33.810313" lon="-118.393867">
  <ele>-0.13</ele>
  <time>2026-09-02T22:07:29Z</time>
  <course>0.0</course>
  <speed>0.0</speed>
  <fix>3d</fix>
</trkpt>
<trkpt lat="33.810313" lon="-118.393867">
  <ele>-0.121</ele>
  <time>2026-09-02T22:07:29Z</time>
  <course>188.56</course>
  <speed>0.0</speed>
  <fix>3d</fix>
</trkpt>
<trkpt lat="33.810313" lon="-118.393867">
  <ele>-0.12</ele>
  <time>2026-09-02T22:07:29Z</time>
  <course>0.0</course>
  <speed>0.0</speed>
  <fix>3d</fix>
</trkpt>
<trkpt lat="33.810313" lon="-118.393867">
  <ele>-0.12</ele>
  <time>2026-09-02T22:07:29Z</time>
  <course>188.56</course>
  <speed>0.0</speed>
  <fix>3d</fix>
</trkpt>
<trkpt lat="33.810313" lon="-118.393867">
  <ele>-0.12</ele>
  <time>2026-09-02T22:07:29Z</time>
  <course>0.0</course>
  <speed>0.0</speed>
  <fix>3d</fix>
</trkpt>
<trkpt lat="33.810313" lon="-118.393867">
  <ele>-0.119</ele>
  <time>2026-09-02T22:07:29Z</time>
  <course>188.56</course>
  <speed>0.0</speed>
  <fix>3d</fix>
</trkpt>
<trkpt lat="33.810313" lon="-118.393867">
  <ele>-0.12</ele>
  <time>2026-09-02T22:07:29Z</time>
  <course>0.0</course>
  <speed>0.0</speed>
  <fix>3d</fix>
</trkpt>
<trkpt lat="33.810313" lon="-118.393867">
  <ele>-0.12</ele>
  <time>2026-09-02T22:07:29Z</time>
  <course>188.56</course>
  <speed>0.0</speed>
  <fix>3d</fix>
</trkpt>
<trkpt lat="33.810313" lon="-118.393867">
  <ele>-0.12</ele>
  <time>2026-09-02T22:07:29Z</time>
  <course>0.0</course>
  <speed>0.0</speed>
  <fix>3d</fix>
</trkpt>
<trkpt lat="33.810313" lon="-118.393867">
  <ele>-0.123</ele>
  <time>2026-09-02T22:07:29Z</time>
  <course>188.55</course>
  <speed>0.0</speed>
  <fix>3d</fix>
</trkpt>
<trkpt lat="33.810313" lon="-118.393867">
  <ele>-0.12</ele>
  <time>2026-09-02T22:07:29Z</time>
  <course>0.0</course>
  <speed>0.0</speed>
  <fix>3d</fix>
</trkpt>
<trkpt lat="33.810313" lon="-118.393867">
  <ele>-0.127</ele>
  <time>2026-09-02T22:07:29Z</time>
  <course>188.55</course>
  <speed>0.0</speed>
  <fix>3d</fix>
</trkpt>
<trkpt lat="33.810313" lon="-118.393867">
  <ele>-0.12</ele>
  <time>2026-09-02T22:07:29Z</time>
  <course>0.0</course>
  <speed>0.0</speed>
  <fix>3d</fix>
</trkpt>
<trkpt lat="33.810313" lon="-118.393867">
  <ele>-0.13</ele>
  <time>2026-09-02T22:07:29Z</time>
  <course>188.55</course>
  <speed>0.0</speed>
  <fix>3d</fix>
</trkpt>
<trkpt lat="33.810313" lon="-118.393867">
  <ele>-0.12</ele>
  <time>2026-09-02T22:07:29Z</time>
  <course>0.0</course>
  <speed>0.0</speed>
  <fix>3d</fix>
</trkpt>
<trkpt lat="33.810313" lon="-118.393867">
  <ele>-0.132</ele>
  <time>2026-09-02T22:07:29Z</time>
  <course>188.55</course>
  <speed>0.0</speed>
  <fix>3d</fix>
</trkpt>
<trkpt lat="33.810313" lon="-118.393867">
  <ele>-0.12</ele>
  <time>2026-09-02T22:07:29Z</time>
  <course>0.0</course>
  <speed>0.0</speed>
  <fix>3d</fix>
</trkpt>
<trkpt lat="33.810313" lon="-118.393867">
  <ele>-0.132</ele>
  <time>2026-09-02T22:07:29Z</time>
  <course>188.55</course>
  <speed>0.0</speed>
  <fix>3d</fix>
</trkpt>
<trkpt lat="33.810313" lon="-118.393867">
  <ele>-0.12</ele>
  <time>2026-09-02T22:07:29Z</time>
  <course>0.0</course>
  <speed>0.0</speed>
  <fix>3d</fix>
</trkpt>
<trkpt lat="33.810313" lon="-118.393867">
  <ele>-0.132</ele>
  <time>2026-09-02T22:07:29Z</time>
  <course>188.55</course>
  <speed>0.0</speed>
  <fix>3d</fix>
</trkpt>
<trkpt lat="33.810313" lon="-118.393867">
  <ele>-0.12</ele>
  <time>2026-09-02T22:07:29Z</time>
  <course>0.0</course>
  <speed>0.0</speed>
  <fix>3d</fix>
</trkpt>
<trkpt lat="33.810313" lon="-118.393867">
  <ele>-0.132</ele>
  <time>2026-09-02T22:07:29Z</time>
  <course>188.55</course>
  <speed>0.0</speed>
  <fix>3d</fix>
</trkpt>
<trkpt lat="33.810313" lon="-118.393867">
  <ele>-0.12</ele>
  <time>2026-09-02T22:07:29Z</time>
  <course>0.0</course>
  <speed>0.0</speed>
  <fix>3d</fix>
</trkpt>
<trkpt lat="33.810313" lon="-118.393867">
  <ele>-0.131</ele>
  <time>2026-09-02T22:07:29Z</time>
  <course>188.55</course>
  <speed>0.0</speed>
  <fix>3d</fix>
</trkpt>
<trkpt lat="33.810313" lon="-118.393867">
  <ele>-0.12</ele>
  <time>2026-09-02T22:07:29Z</time>
  <course>0.0</course>
  <speed>0.0</speed>
  <fix>3d</fix>
</trkpt>
<trkpt lat="33.810313" lon="-118.393867">
  <ele>-0.129</ele>
  <time>2026-09-02T22:07:29Z</time>
  <course>188.54</course>
  <speed>0.0</speed>
  <fix>3d</fix>
</trkpt>
<trkpt lat="33.810313" lon="-118.393867">
  <ele>-0.13</ele>
  <time>2026-09-02T22:07:29Z</time>
  <course>0.0</course>
  <speed>0.0</speed>
  <fix>3d</fix>
</trkpt>
<trkpt lat="33.810313" lon="-118.393867">
  <ele>-0.128</ele>
  <time>2026-09-02T22:07:29Z</time>
  <course>188.54</course>
  <speed>0.0</speed>
  <fix>3d</fix>
</trkpt>
<trkpt lat="33.810313" lon="-118.393867">
  <ele>-0.13</ele>
  <time>2026-09-02T22:07:29Z</time>
  <course>0.0</course>
  <speed>0.0</speed>
  <fix>3d</fix>
</trkpt>
<trkpt lat="33.810313" lon="-118.393867">
  <ele>-0.125</ele>
  <time>2026-09-02T22:07:29Z</time>
  <course>188.53</course>
  <speed>0.0</speed>
  <fix>3d</fix>
</trkpt>
<trkpt lat="33.810313" lon="-118.393867">
  <ele>-0.12</ele>
  <time>2026-09-02T22:07:29Z</time>
  <course>0.0</course>
  <speed>0.0</speed>
  <fix>3d</fix>
</trkpt>
<trkpt lat="33.810313" lon="-118.393867">
  <ele>-0.123</ele>
  <time>2026-09-02T22:07:29Z</time>
  <course>188.53</course>
  <speed>0.0</speed>
  <fix>3d</fix>
</trkpt>
<trkpt lat="33.810313" lon="-118.393867">
  <ele>-0.12</ele>
  <time>2026-09-02T22:07:29Z</time>
  <course>0.0</course>
  <speed>0.0</speed>
  <fix>3d</fix>
</trkpt>
<trkpt lat="33.810313" lon="-118.393867">
  <ele>-0.121</ele>
  <time>2026-09-02T22:07:29Z</time>
  <course>188.52</course>
  <speed>0.0</speed>
  <fix>3d</fix>
</trkpt>
<trkpt lat="33.810313" lon="-118.393867">
  <ele>-0.12</ele>
  <time>2026-09-02T22:07:29Z</time>
  <course>0.0</course>
  <speed>0.0</speed>
  <fix>3d</fix>
</trkpt>
<trkpt lat="33.810313" lon="-118.393867">
  <ele>-0.121</ele>
  <time>2026-09-02T22:07:29Z</time>
  <course>188.52</course>
  <speed>0.0</speed>
  <fix>3d</fix>
</trkpt>
<trkpt lat="33.810313" lon="-118.393867">
  <ele>-0.12</ele>
  <time>2026-09-02T22:07:29Z</time>
  <course>0.0</course>
  <speed>0.0</speed>
  <fix>3d</fix>
</trkpt>
<trkpt lat="33.810313" lon="-118.393867">
  <ele>-0.121</ele>
  <time>2026-09-02T22:07:29Z</time>
  <course>188.51</course>
  <speed>0.0</speed>
  <fix>3d</fix>
</trkpt>
<trkpt lat="33.810313" lon="-118.393867">
  <ele>-0.12</ele>
  <time>2026-09-02T22:07:30Z</time>
  <course>0.0</course>
  <speed>0.0</speed>
  <fix>3d</fix>
</trkpt>
<trkpt lat="33.810313" lon="-118.393867">
  <ele>-0.123</ele>
  <time>2026-09-02T22:07:30Z</time>
  <course>188.51</course>
  <speed>0.0</speed>
  <fix>3d</fix>
</trkpt>
<trkpt lat="33.810313" lon="-118.393867">
  <ele>-0.12</ele>
  <time>2026-09-02T22:07:30Z</time>
  <course>0.0</course>
  <speed>0.0</speed>
  <fix>3d</fix>
</trkpt>
<trkpt lat="33.810313" lon="-118.393867">
  <ele>-0.126</ele>
  <time>2026-09-02T22:07:30Z</time>
  <course>188.5</course>
  <speed>0.0</speed>
  <fix>3d</fix>
</trkpt>
<trkpt lat="33.810313" lon="-118.393867">
  <ele>-0.12</ele>
  <time>2026-09-02T22:07:30Z</time>
  <course>0.0</course>
  <speed>0.0</speed>
  <fix>3d</fix>
</trkpt>
<trkpt lat="33.810313" lon="-118.393867">
  <ele>-0.127</ele>
  <time>2026-09-02T22:07:30Z</time>
  <course>188.5</course>
  <speed>0.0</speed>
  <fix>3d</fix>
</trkpt>
<trkpt lat="33.810313" lon="-118.393867">
  <ele>-0.12</ele>
  <time>2026-09-02T22:07:30Z</time>
  <course>0.0</course>
  <speed>0.0</speed>
  <fix>3d</fix>
</trkpt>
<trkpt lat="33.810313" lon="-118.393867">
  <ele>-0.128</ele>
  <time>2026-09-02T22:07:30Z</time>
  <course>188.49</course>
  <speed>0.0</speed>
  <fix>3d</fix>
</trkpt>
<trkpt lat="33.810313" lon="-118.393867">
  <ele>-0.12</ele>
  <time>2026-09-02T22:07:30Z</time>
  <course>0.0</course>
  <speed>0.0</speed>
  <fix>3d</fix>
</trkpt>
<trkpt lat="33.810313" lon="-118.393867">
  <ele>-0.127</ele>
  <time>2026-09-02T22:07:30Z</time>
  <course>188.49</course>
  <speed>0.0</speed>
  <fix>3d</fix>
</trkpt>
<trkpt lat="33.810313" lon="-118.393867">
  <ele>-0.12</ele>
  <time>2026-09-02T22:07:30Z</time>
  <course>0.0</course>
  <speed>0.0</speed>
  <fix>3d</fix>
</trkpt>
<trkpt lat="33.810313" lon="-118.393867">
  <ele>-0.127</ele>
  <time>2026-09-02T22:07:30Z</time>
  <course>188.48</course>
  <speed>0.0</speed>
  <fix>3d</fix>
</trkpt>
<trkpt lat="33.810313" lon="-118.393867">
  <ele>-0.12</ele>
  <time>2026-09-02T22:07:30Z</time>
  <course>0.0</course>
  <speed>0.0</speed>
  <fix>3d</fix>
</trkpt>
<trkpt lat="33.810313" lon="-118.393867">
  <ele>-0.127</ele>
  <time>2026-09-02T22:07:30Z</time>
  <course>188.47</course>
  <speed>0.01</speed>
  <fix>3d</fix>
</trkpt>
<trkpt lat="33.810313" lon="-118.393867">
  <ele>-0.12</ele>
  <time>2026-09-02T22:07:30Z</time>
  <course>0.0</course>
  <speed>0.0</speed>
  <fix>3d</fix>
</trkpt>
<trkpt lat="33.810313" lon="-118.393867">
  <ele>-0.127</ele>
  <time>2026-09-02T22:07:30Z</time>
  <course>188.47</course>
  <speed>0.01</speed>
  <fix>3d</fix>
</trkpt>
<trkpt lat="33.810313" lon="-118.393867">
  <ele>-0.12</ele>
  <time>2026-09-02T22:07:30Z</time>
  <course>0.0</course>
  <speed>0.0</speed>
  <fix>3d</fix>
</trkpt>
<trkpt lat="33.810313" lon="-118.393867">
  <ele>-0.127</ele>
  <time>2026-09-02T22:07:30Z</time>
  <course>188.46</course>
  <speed>0.01</speed>
  <fix>3d</fix>
</trkpt>
<trkpt lat="33.810313" lon="-118.393867">
  <ele>-0.12</ele>
  <time>2026-09-02T22:07:30Z</time>
  <course>0.0</course>
  <speed>0.0</speed>
  <fix>3d</fix>
</trkpt>
<trkpt lat="33.810313" lon="-118.393867">
  <ele>-0.126</ele>
  <time>2026-09-02T22:07:30Z</time>
  <course>188.45</course>
  <speed>0.01</speed>
  <fix>3d</fix>
</trkpt>
<trkpt lat="33.810313" lon="-118.393867">
  <ele>-0.12</ele>
  <time>2026-09-02T22:07:30Z</time>
  <course>0.0</course>
  <speed>0.0</speed>
  <fix>3d</fix>
</trkpt>
<trkpt lat="33.810313" lon="-118.393867">
  <ele>-0.126</ele>
  <time>2026-09-02T22:07:30Z</time>
  <course>188.45</course>
  <speed>0.01</speed>
  <fix>3d</fix>
</trkpt>
<trkpt lat="33.810313" lon="-118.393867">
  <ele>-0.12</ele>
  <time>2026-09-02T22:07:30Z</time>
  <course>0.0</course>
  <speed>0.0</speed>
  <fix>3d</fix>
</trkpt>
<trkpt lat="33.810313" lon="-118.393867">
  <ele>-0.125</ele>
  <time>2026-09-02T22:07:30Z</time>
  <course>188.44</course>
  <speed>0.01</speed>
  <fix>3d</fix>
</trkpt>
<trkpt lat="33.810313" lon="-118.393867">
  <ele>-0.12</ele>
  <time>2026-09-02T22:07:30Z</time>
  <course>0.0</course>
  <speed>0.0</speed>
  <fix>3d</fix>
</trkpt>
<trkpt lat="33.810313" lon="-118.393867">
  <ele>-0.126</ele>
  <time>2026-09-02T22:07:30Z</time>
  <course>188.43</course>
  <speed>0.01</speed>
  <fix>3d</fix>
</trkpt>
<trkpt lat="33.810313" lon="-118.393867">
  <ele>-0.12</ele>
  <time>2026-09-02T22:07:30Z</time>
  <course>0.0</course>
  <speed>0.0</speed>
  <fix>3d</fix>
</trkpt>
<trkpt lat="33.810313" lon="-118.393867">
  <ele>-0.127</ele>
  <time>2026-09-02T22:07:30Z</time>
  <course>188.42</course>
  <speed>0.01</speed>
  <fix>3d</fix>
</trkpt>
<trkpt lat="33.810313" lon="-118.393867">
  <ele>-0.12</ele>
  <time>2026-09-02T22:07:30Z</time>
  <course>0.0</course>
  <speed>0.0</speed>
  <fix>3d</fix>
</trkpt>
<trkpt lat="33.810313" lon="-118.393867">
  <ele>-0.128</ele>
  <time>2026-09-02T22:07:30Z</time>
  <course>188.42</course>
  <speed>0.01</speed>
  <fix>3d</fix>
</trkpt>
<trkpt lat="33.810313" lon="-118.393867">
  <ele>-0.12</ele>
  <time>2026-09-02T22:07:30Z</time>
  <course>0.0</course>
  <speed>0.0</speed>
  <fix>3d</fix>
</trkpt>
<trkpt lat="33.810313" lon="-118.393867">
  <ele>-0.129</ele>
  <time>2026-09-02T22:07:30Z</time>
  <course>188.41</course>
  <speed>0.01</speed>
  <fix>3d</fix>
</trkpt>
<trkpt lat="33.810313" lon="-118.393867">
  <ele>-0.12</ele>
  <time>2026-09-02T22:07:30Z</time>
  <course>0.0</course>
  <speed>0.0</speed>
  <fix>3d</fix>
</trkpt>
<trkpt lat="33.810313" lon="-118.393867">
  <ele>-0.129</ele>
  <time>2026-09-02T22:07:30Z</time>
  <course>188.4</course>
  <speed>0.01</speed>
  <fix>3d</fix>
</trkpt>
<trkpt lat="33.810313" lon="-118.393867">
  <ele>-0.12</ele>
  <time>2026-09-02T22:07:30Z</time>
  <course>0.0</course>
  <speed>0.0</speed>
  <fix>3d</fix>
</trkpt>
<trkpt lat="33.810313" lon="-118.393867">
  <ele>-0.13</ele>
  <time>2026-09-02T22:07:30Z</time>
  <course>188.4</course>
  <speed>0.01414213562373095</speed>
  <fix>3d</fix>
</trkpt>
<trkpt lat="33.810313" lon="-118.393867">
  <ele>-0.12</ele>
  <time>2026-09-02T22:07:30Z</time>
  <course>0.0</course>
  <speed>0.0</speed>
  <fix>3d</fix>
</trkpt>
<trkpt lat="33.810313" lon="-118.393867">
  <ele>-0.13</ele>
  <time>2026-09-02T22:07:30Z</time>
  <course>188.39</course>
  <speed>0.01414213562373095</speed>
  <fix>3d</fix>
</trkpt>
<trkpt lat="33.810313" lon="-118.393867">
  <ele>-0.12</ele>
  <time>2026-09-02T22:07:30Z</time>
  <course>0.0</course>
  <speed>0.0</speed>
  <fix>3d</fix>
</trkpt>
<trkpt lat="33.810313" lon="-118.393867">
  <ele>-0.13</ele>
  <time>2026-09-02T22:07:30Z</time>
  <course>188.38</course>
  <speed>0.01414213562373095</speed>
  <fix>3d</fix>
</trkpt>
<trkpt lat="33.810313" lon="-118.393867">
  <ele>-0.12</ele>
  <time>2026-09-02T22:07:30Z</time>
  <course>0.0</course>
  <speed>0.0</speed>
  <fix>3d</fix>
</trkpt>
<trkpt lat="33.810313" lon="-118.393867">
  <ele>-0.129</ele>
  <time>2026-09-02T22:07:30Z</time>
  <course>188.37</course>
  <speed>0.01414213562373095</speed>
  <fix>3d</fix>
</trkpt>
<trkpt lat="33.810313" lon="-118.393867">
  <ele>-0.12</ele>
  <time>2026-09-02T22:07:30Z</time>
  <course>0.0</course>
  <speed>0.0</speed>
  <fix>3d</fix>
</trkpt>
<trkpt lat="33.810313" lon="-118.393867">
  <ele>-0.128</ele>
  <time>2026-09-02T22:07:30Z</time>
  <course>188.37</course>
  <speed>0.01414213562373095</speed>
  <fix>3d</fix>
</trkpt>
<trkpt lat="33.810313" lon="-118.393867">
  <ele>-0.12</ele>
  <time>2026-09-02T22:07:30Z</time>
  <course>0.0</course>
  <speed>0.0</speed>
  <fix>3d</fix>
</trkpt>
<trkpt lat="33.810313" lon="-118.393867">
  <ele>-0.126</ele>
  <time>2026-09-02T22:07:30Z</time>
  <course>188.36</course>
  <speed>0.01414213562373095</speed>
  <fix>3d</fix>
</trkpt>
<trkpt lat="33.810313" lon="-118.393867">
  <ele>-0.12</ele>
  <time>2026-09-02T22:07:30Z</time>
  <course>0.0</course>
  <speed>0.0</speed>
  <fix>3d</fix>
</trkpt>
<trkpt lat="33.810313" lon="-118.393867">
  <ele>-0.124</ele>
  <time>2026-09-02T22:07:30Z</time>
  <course>188.35</course>
  <speed>0.01414213562373095</speed>
  <fix>3d</fix>
</trkpt>
<trkpt lat="33.810313" lon="-118.393867">
  <ele>-0.12</ele>
  <time>2026-09-02T22:07:30Z</time>
  <course>0.0</course>
  <speed>0.0</speed>
  <fix>3d</fix>
</trkpt>
<trkpt lat="33.810313" lon="-118.393867">
  <ele>-0.122</ele>
  <time>2026-09-02T22:07:30Z</time>
  <course>188.34</course>
  <speed>0.01414213562373095</speed>
  <fix>3d</fix>
</trkpt>
<trkpt lat="33.810313" lon="-118.393867">
  <ele>-0.12</ele>
  <time>2026-09-02T22:07:30Z</time>
  <course>0.0</course>
  <speed>0.0</speed>
  <fix>3d</fix>
</trkpt>
<trkpt lat="33.810313" lon="-118.393867">
  <ele>-0.123</ele>
  <time>2026-09-02T22:07:30Z</time>
  <course>188.34</course>
  <speed>0.01414213562373095</speed>
  <fix>3d</fix>
</trkpt>
<trkpt lat="33.810313" lon="-118.393867">
  <ele>-0.12</ele>
  <time>2026-09-02T22:07:30Z</time>
  <course>0.0</course>
  <speed>0.0</speed>
  <fix>3d</fix>
</trkpt>
<trkpt lat="33.810313" lon="-118.393867">
  <ele>-0.125</ele>
  <time>2026-09-02T22:07:30Z</time>
  <course>188.33</course>
  <speed>0.01414213562373095</speed>
  <fix>3d</fix>
</trkpt>
<trkpt lat="33.810313" lon="-118.393867">
  <ele>-0.12</ele>
  <time>2026-09-02T22:07:30Z</time>
  <course>0.0</course>
  <speed>0.0</speed>
  <fix>3d</fix>
</trkpt>
<trkpt lat="33.810313" lon="-118.393867">
  <ele>-0.128</ele>
  <time>2026-09-02T22:07:30Z</time>
  <course>188.32</course>
  <speed>0.01414213562373095</speed>
  <fix>3d</fix>
</trkpt>
<trkpt lat="33.810313" lon="-118.393867">
  <ele>-0.12</ele>
  <time>2026-09-02T22:07:30Z</time>
  <course>0.0</course>
  <speed>0.0</speed>
  <fix>3d</fix>
</trkpt>
<trkpt lat="33.810313" lon="-118.393867">
  <ele>-0.131</ele>
  <time>2026-09-02T22:07:30Z</time>
  <course>188.31</course>
  <speed>0.01414213562373095</speed>
  <fix>3d</fix>
</trkpt>
<trkpt lat="33.810313" lon="-118.393867">
  <ele>-0.12</ele>
  <time>2026-09-02T22:07:30Z</time>
  <course>0.0</course>
  <speed>0.0</speed>
  <fix>3d</fix>
</trkpt>
<trkpt lat="33.810313" lon="-118.393867">
  <ele>-0.134</ele>
  <time>2026-09-02T22:07:30Z</time>
  <course>188.3</course>
  <speed>0.01414213562373095</speed>
  <fix>3d</fix>
</trkpt>
<trkpt lat="33.810313" lon="-118.393867">
  <ele>-0.12</ele>
  <time>2026-09-02T22:07:30Z</time>
  <course>0.0</course>
  <speed>0.0</speed>
  <fix>3d</fix>
</trkpt>
<trkpt lat="33.810313" lon="-118.393867">
  <ele>-0.135</ele>
  <time>2026-09-02T22:07:30Z</time>
  <course>188.3</course>
  <speed>0.01414213562373095</speed>
  <fix>3d</fix>
</trkpt>
<trkpt lat="33.810313" lon="-118.393867">
  <ele>-0.12</ele>
  <time>2026-09-02T22:07:30Z</time>
  <course>0.0</course>
  <speed>0.0</speed>
  <fix>3d</fix>
</trkpt>
<trkpt lat="33.810313" lon="-118.393867">
  <ele>-0.134</ele>
  <time>2026-09-02T22:07:30Z</time>
  <course>188.29</course>
  <speed>0.01414213562373095</speed>
  <fix>3d</fix>
</trkpt>
<trkpt lat="33.810313" lon="-118.393867">
  <ele>-0.12</ele>
  <time>2026-09-02T22:07:30Z</time>
  <course>0.0</course>
  <speed>0.0</speed>
  <fix>3d</fix>
</trkpt>
<trkpt lat="33.810313" lon="-118.393867">
  <ele>-0.132</ele>
  <time>2026-09-02T22:07:30Z</time>
  <course>188.28</course>
  <speed>0.01414213562373095</speed>
  <fix>3d</fix>
</trkpt>
<trkpt lat="33.810313" lon="-118.393867">
  <ele>-0.12</ele>
  <time>2026-09-02T22:07:30Z</time>
  <course>0.0</course>
  <speed>0.0</speed>
  <fix>3d</fix>
</trkpt>
<trkpt lat="33.810313" lon="-118.393867">
  <ele>-0.13</ele>
  <time>2026-09-02T22:07:30Z</time>
  <course>188.27</course>
  <speed>0.01414213562373095</speed>
  <fix>3d</fix>
</trkpt>
<trkpt lat="33.810313" lon="-118.393867">
  <ele>-0.12</ele>
  <time>2026-09-02T22:07:30Z</time>
  <course>0.0</course>
  <speed>0.0</speed>
  <fix>3d</fix>
</trkpt>
<trkpt lat="33.810313" lon="-118.393867">
  <ele>-0.127</ele>
  <time>2026-09-02T22:07:30Z</time>
  <course>188.26</course>
  <speed>0.01414213562373095</speed>
  <fix>3d</fix>
</trkpt>
<trkpt lat="33.810313" lon="-118.393867">
  <ele>-0.12</ele>
  <time>2026-09-02T22:07:30Z</time>
  <course>0.0</course>
  <speed>0.0</speed>
  <fix>3d</fix>
</trkpt>
<trkpt lat="33.810313" lon="-118.393867">
  <ele>-0.125</ele>
  <time>2026-09-02T22:07:30Z</time>
  <course>188.25</course>
  <speed>0.01414213562373095</speed>
  <fix>3d</fix>
</trkpt>
<trkpt lat="33.810313" lon="-118.393867">
  <ele>-0.12</ele>
  <time>2026-09-02T22:07:30Z</time>
  <course>0.0</course>
  <speed>0.0</speed>
  <fix>3d</fix>
</trkpt>
<trkpt lat="33.810313" lon="-118.393867">
  <ele>-0.123</ele>
  <time>2026-09-02T22:07:30Z</time>
  <course>188.25</course>
  <speed>0.01414213562373095</speed>
  <fix>3d</fix>
</trkpt>
<trkpt lat="33.810313" lon="-118.393867">
  <ele>-0.12</ele>
  <time>2026-09-02T22:07:30Z</time>
  <course>0.0</course>
  <speed>0.0</speed>
  <fix>3d</fix>
</trkpt>
<trkpt lat="33.810313" lon="-118.393867">
  <ele>-0.124</ele>
  <time>2026-09-02T22:07:30Z</time>
  <course>188.24</course>
  <speed>0.01414213562373095</speed>
  <fix>3d</fix>
</trkpt>
<trkpt lat="33.810313" lon="-118.393867">
  <ele>-0.12</ele>
  <time>2026-09-02T22:07:30Z</time>
  <course>0.0</course>
  <speed>0.0</speed>
  <fix>3d</fix>
</trkpt>
<trkpt lat="33.810313" lon="-118.393867">
  <ele>-0.125</ele>
  <time>2026-09-02T22:07:30Z</time>
  <course>188.23</course>
  <speed>0.01414213562373095</speed>
  <fix>3d</fix>
</trkpt>
<trkpt lat="33.810313" lon="-118.393867">
  <ele>-0.12</ele>
  <time>2026-09-02T22:07:30Z</time>
  <course>0.0</course>
  <speed>0.0</speed>
  <fix>3d</fix>
</trkpt>
<trkpt lat="33.810313" lon="-118.393867">
  <ele>-0.127</ele>
  <time>2026-09-02T22:07:30Z</time>
  <course>188.22</course>
  <speed>0.01414213562373095</speed>
  <fix>3d</fix>
</trkpt>
<trkpt lat="33.810313" lon="-118.393867">
  <ele>-0.12</ele>
  <time>2026-09-02T22:07:30Z</time>
  <course>0.0</course>
  <speed>0.0</speed>
  <fix>3d</fix>
</trkpt>
<trkpt lat="33.810313" lon="-118.393867">
  <ele>-0.128</ele>
  <time>2026-09-02T22:07:30Z</time>
  <course>188.21</course>
  <speed>0.01414213562373095</speed>
  <fix>3d</fix>
</trkpt>
<trkpt lat="33.810313" lon="-118.393867">
  <ele>-0.12</ele>
  <time>2026-09-02T22:07:30Z</time>
  <course>0.0</course>
  <speed>0.0</speed>
  <fix>3d</fix>
</trkpt>
<trkpt lat="33.810313" lon="-118.393867">
  <ele>-0.129</ele>
  <time>2026-09-02T22:07:30Z</time>
  <course>188.21</course>
  <speed>0.01414213562373095</speed>
  <fix>3d</fix>
</trkpt>
<trkpt lat="33.810313" lon="-118.393867">
  <ele>-0.12</ele>
  <time>2026-09-02T22:07:30Z</time>
  <course>0.0</course>
  <speed>0.0</speed>
  <fix>3d</fix>
</trkpt>
<trkpt lat="33.810313" lon="-118.393867">
  <ele>-0.129</ele>
  <time>2026-09-02T22:07:30Z</time>
  <course>188.2</course>
  <speed>0.01414213562373095</speed>
  <fix>3d</fix>
</trkpt>
<trkpt lat="33.810313" lon="-118.393867">
  <ele>-0.12</ele>
  <time>2026-09-02T22:07:30Z</time>
  <course>0.0</course>
  <speed>0.0</speed>
  <fix>3d</fix>
</trkpt>
<trkpt lat="33.810313" lon="-118.393867">
  <ele>-0.128</ele>
  <time>2026-09-02T22:07:30Z</time>
  <course>188.19</course>
  <speed>0.01414213562373095</speed>
  <fix>3d</fix>
</trkpt>
<trkpt lat="33.810313" lon="-118.393867">
  <ele>-0.12</ele>
  <time>2026-09-02T22:07:30Z</time>
  <course>0.0</course>
  <speed>0.0</speed>
  <fix>3d</fix>
</trkpt>
<trkpt lat="33.810313" lon="-118.393867">
  <ele>-0.128</ele>
  <time>2026-09-02T22:07:30Z</time>
  <course>188.18</course>
  <speed>0.01414213562373095</speed>
  <fix>3d</fix>
</trkpt>
<trkpt lat="33.810313" lon="-118.393867">
  <ele>-0.12</ele>
  <time>2026-09-02T22:07:30Z</time>
  <course>0.0</course>
  <speed>0.0</speed>
  <fix>3d</fix>
</trkpt>
<trkpt lat="33.810313" lon="-118.393867">
  <ele>-0.127</ele>
  <time>2026-09-02T22:07:30Z</time>
  <course>188.17</course>
  <speed>0.01414213562373095</speed>
  <fix>3d</fix>
</trkpt>
<trkpt lat="33.810313" lon="-118.393867">
  <ele>-0.12</ele>
  <time>2026-09-02T22:07:30Z</time>
  <course>0.0</course>
  <speed>0.0</speed>
  <fix>3d</fix>
</trkpt>
<trkpt lat="33.810313" lon="-118.393867">
  <ele>-0.127</ele>
  <time>2026-09-02T22:07:30Z</time>
  <course>188.16</course>
  <speed>0.01414213562373095</speed>
  <fix>3d</fix>
</trkpt>
<trkpt lat="33.810313" lon="-118.393867">
  <ele>-0.12</ele>
  <time>2026-09-02T22:07:30Z</time>
  <course>0.0</course>
  <speed>0.0</speed>
  <fix>3d</fix>
</trkpt>
<trkpt lat="33.810313" lon="-118.393867">
  <ele>-0.128</ele>
  <time>2026-09-02T22:07:30Z</time>
  <course>188.16</course>
  <speed>0.01414213562373095</speed>
  <fix>3d</fix>
</trkpt>
<trkpt lat="33.810313" lon="-118.393867">
  <ele>-0.12</ele>
  <time>2026-09-02T22:07:30Z</time>
  <course>0.0</course>
  <speed>0.0</speed>
  <fix>3d</fix>
</trkpt>
<trkpt lat="33.810313" lon="-118.393867">
  <ele>-0.129</ele>
  <time>2026-09-02T22:07:30Z</time>
  <course>188.15</course>
  <speed>0.01414213562373095</speed>
  <fix>3d</fix>
</trkpt>
<trkpt lat="33.810313" lon="-118.393867">
  <ele>-0.12</ele>
  <time>2026-09-02T22:07:30Z</time>
  <course>0.0</course>
  <speed>0.0</speed>
  <fix>3d</fix>
</trkpt>
<trkpt lat="33.810313" lon="-118.393867">
  <ele>-0.131</ele>
  <time>2026-09-02T22:07:30Z</time>
  <course>188.14</course>
  <speed>0.01414213562373095</speed>
  <fix>3d</fix>
</trkpt>
<trkpt lat="33.810313" lon="-118.393867">
  <ele>-0.12</ele>
  <time>2026-09-02T22:07:30Z</time>
  <course>0.0</course>
  <speed>0.0</speed>
  <fix>3d</fix>
</trkpt>
<trkpt lat="33.810313" lon="-118.393867">
  <ele>-0.133</ele>
  <time>2026-09-02T22:07:30Z</time>
  <course>188.13</course>
  <speed>0.01414213562373095</speed>
  <fix>3d</fix>
</trkpt>
<trkpt lat="33.810313" lon="-118.393867">
  <ele>-0.12</ele>
  <time>2026-09-02T22:07:30Z</time>
  <course>0.0</course>
  <speed>0.0</speed>
  <fix>3d</fix>
</trkpt>
<trkpt lat="33.810313" lon="-118.393867">
  <ele>-0.135</ele>
  <time>2026-09-02T22:07:30Z</time>
  <course>188.12</course>
  <speed>0.01414213562373095</speed>
  <fix>3d</fix>
</trkpt>
<trkpt lat="33.810313" lon="-118.393867">
  <ele>-0.12</ele>
  <time>2026-09-02T22:07:30Z</time>
  <course>0.0</course>
  <speed>0.0</speed>
  <fix>3d</fix>
</trkpt>
<trkpt lat="33.810313" lon="-118.393867">
  <ele>-0.136</ele>
  <time>2026-09-02T22:07:30Z</time>
  <course>188.12</course>
  <speed>0.01414213562373095</speed>
  <fix>3d</fix>
</trkpt>
<trkpt lat="33.810313" lon="-118.393867">
  <ele>-0.12</ele>
  <time>2026-09-02T22:07:30Z</time>
  <course>0.0</course>
  <speed>0.0</speed>
  <fix>3d</fix>
</trkpt>
<trkpt lat="33.810313" lon="-118.393867">
  <ele>-0.136</ele>
  <time>2026-09-02T22:07:30Z</time>
  <course>188.11</course>
  <speed>0.01414213562373095</speed>
  <fix>3d</fix>
</trkpt>
<trkpt lat="33.810313" lon="-118.393867">
  <ele>-0.12</ele>
  <time>2026-09-02T22:07:30Z</time>
  <course>0.0</course>
  <speed>0.0</speed>
  <fix>3d</fix>
</trkpt>
<trkpt lat="33.810313" lon="-118.393867">
  <ele>-0.136</ele>
  <time>2026-09-02T22:07:30Z</time>
  <course>188.1</course>
  <speed>0.01414213562373095</speed>
  <fix>3d</fix>
</trkpt>
<trkpt lat="33.810313" lon="-118.393867">
  <ele>-0.12</ele>
  <time>2026-09-02T22:07:30Z</time>
  <course>0.0</course>
  <speed>0.0</speed>
  <fix>3d</fix>
</trkpt>
<trkpt lat="33.810313" lon="-118.393867">
  <ele>-0.135</ele>
  <time>2026-09-02T22:07:30Z</time>
  <course>188.09</course>
  <speed>0.01414213562373095</speed>
  <fix>3d</fix>
</trkpt>
<trkpt lat="33.810313" lon="-118.393867">
  <ele>-0.12</ele>
  <time>2026-09-02T22:07:30Z</time>
  <course>0.0</course>
  <speed>0.0</speed>
  <fix>3d</fix>
</trkpt>
<trkpt lat="33.810313" lon="-118.393867">
  <ele>-0.134</ele>
  <time>2026-09-02T22:07:30Z</time>
  <course>188.08</course>
  <speed>0.01414213562373095</speed>
  <fix>3d</fix>
</trkpt>
<trkpt lat="33.810313" lon="-118.393867">
  <ele>-0.12</ele>
  <time>2026-09-02T22:07:30Z</time>
  <course>0.0</course>
  <speed>0.0</speed>
  <fix>3d</fix>
</trkpt>
<trkpt lat="33.810313" lon="-118.393867">
  <ele>-0.131</ele>
  <time>2026-09-02T22:07:30Z</time>
  <course>188.07</course>
  <speed>0.022360679774997897</speed>
  <fix>3d</fix>
</trkpt>
<trkpt lat="33.810313" lon="-118.393867">
  <ele>-0.12</ele>
  <time>2026-09-02T22:07:30Z</time>
  <course>0.0</course>
  <speed>0.0</speed>
  <fix>3d</fix>
</trkpt>
<trkpt lat="33.810313" lon="-118.393867">
  <ele>-0.128</ele>
  <time>2026-09-02T22:07:30Z</time>
  <course>188.07</course>
  <speed>0.022360679774997897</speed>
  <fix>3d</fix>
</trkpt>
<trkpt lat="33.810313" lon="-118.393867">
  <ele>-0.12</ele>
  <time>2026-09-02T22:07:30Z</time>
  <course>0.0</course>
  <speed>0.0</speed>
  <fix>3d</fix>
</trkpt>
<trkpt lat="33.810313" lon="-118.393867">
  <ele>-0.127</ele>
  <time>2026-09-02T22:07:30Z</time>
  <course>188.06</course>
  <speed>0.022360679774997897</speed>
  <fix>3d</fix>
</trkpt>
<trkpt lat="33.810313" lon="-118.393867">
  <ele>-0.12</ele>
  <time>2026-09-02T22:07:30Z</time>
  <course>0.0</course>
  <speed>0.0</speed>
  <fix>3d</fix>
</trkpt>
<trkpt lat="33.810313" lon="-118.393867">
  <ele>-0.126</ele>
  <time>2026-09-02T22:07:30Z</time>
  <course>188.05</course>
  <speed>0.022360679774997897</speed>
  <fix>3d</fix>
</trkpt>
<trkpt lat="33.810313" lon="-118.393867">
  <ele>-0.12</ele>
  <time>2026-09-02T22:07:30Z</time>
  <course>0.0</course>
  <speed>0.0</speed>
  <fix>3d</fix>
</trkpt>
<trkpt lat="33.810313" lon="-118.393867">
  <ele>-0.126</ele>
  <time>2026-09-02T22:07:30Z</time>
  <course>188.04</course>
  <speed>0.022360679774997897</speed>
  <fix>3d</fix>
</trkpt>
<trkpt lat="33.810313" lon="-118.393867">
  <ele>-0.12</ele>
  <time>2026-09-02T22:07:30Z</time>
  <course>0.0</course>
  <speed>0.0</speed>
  <fix>3d</fix>
</trkpt>
<trkpt lat="33.810313" lon="-118.393867">
  <ele>-0.127</ele>
  <time>2026-09-02T22:07:30Z</time>
  <course>188.03</course>
  <speed>0.022360679774997897</speed>
  <fix>3d</fix>
</trkpt>
<trkpt lat="33.810313" lon="-118.393867">
  <ele>-0.12</ele>
  <time>2026-09-02T22:07:30Z</time>
  <course>0.0</course>
  <speed>0.0</speed>
  <fix>3d</fix>
</trkpt>
<trkpt lat="33.810313" lon="-118.393867">
  <ele>-0.127</ele>
  <time>2026-09-02T22:07:30Z</time>
  <course>188.03</course>
  <speed>0.022360679774997897</speed>
  <fix>3d</fix>
</trkpt>
<trkpt lat="33.810313" lon="-118.393867">
  <ele>-0.12</ele>
  <time>2026-09-02T22:07:30Z</time>
  <course>0.0</course>
  <speed>0.0</speed>
  <fix>3d</fix>
</trkpt>
<trkpt lat="33.810313" lon="-118.393867">
  <ele>-0.127</ele>
  <time>2026-09-02T22:07:30Z</time>
  <course>188.02</course>
  <speed>0.022360679774997897</speed>
  <fix>3d</fix>
</trkpt>
<trkpt lat="33.810313" lon="-118.393867">
  <ele>-0.12</ele>
  <time>2026-09-02T22:07:30Z</time>
  <course>0.0</course>
  <speed>0.0</speed>
  <fix>3d</fix>
</trkpt>
<trkpt lat="33.810313" lon="-118.393867">
  <ele>-0.128</ele>
  <time>2026-09-02T22:07:30Z</time>
  <course>188.01</course>
  <speed>0.022360679774997897</speed>
  <fix>3d</fix>
</trkpt>
<trkpt lat="33.810313" lon="-118.393867">
  <ele>-0.12</ele>
  <time>2026-09-02T22:07:30Z</time>
  <course>0.0</course>
  <speed>0.0</speed>
  <fix>3d</fix>
</trkpt>
<trkpt lat="33.810313" lon="-118.393867">
  <ele>-0.128</ele>
  <time>2026-09-02T22:07:30Z</time>
  <course>188.0</course>
  <speed>0.022360679774997897</speed>
  <fix>3d</fix>
</trkpt>
<trkpt lat="33.810313" lon="-118.393867">
  <ele>-0.12</ele>
  <time>2026-09-02T22:07:30Z</time>
  <course>0.0</course>
  <speed>0.0</speed>
  <fix>3d</fix>
</trkpt>
<trkpt lat="33.810313" lon="-118.393867">
  <ele>-0.128</ele>
  <time>2026-09-02T22:07:30Z</time>
  <course>187.99</course>
  <speed>0.022360679774997897</speed>
  <fix>3d</fix>
</trkpt>
<trkpt lat="33.810313" lon="-118.393867">
  <ele>-0.12</ele>
  <time>2026-09-02T22:07:30Z</time>
  <course>0.0</course>
  <speed>0.0</speed>
  <fix>3d</fix>
</trkpt>
<trkpt lat="33.810313" lon="-118.393867">
  <ele>-0.126</ele>
  <time>2026-09-02T22:07:30Z</time>
  <course>187.99</course>
  <speed>0.022360679774997897</speed>
  <fix>3d</fix>
</trkpt>
<trkpt lat="33.810313" lon="-118.393867">
  <ele>-0.12</ele>
  <time>2026-09-02T22:07:30Z</time>
  <course>0.0</course>
  <speed>0.0</speed>
  <fix>3d</fix>
</trkpt>
<trkpt lat="33.810313" lon="-118.393867">
  <ele>-0.124</ele>
  <time>2026-09-02T22:07:30Z</time>
  <course>187.98</course>
  <speed>0.022360679774997897</speed>
  <fix>3d</fix>
</trkpt>
<trkpt lat="33.810313" lon="-118.393867">
  <ele>-0.12</ele>
  <time>2026-09-02T22:07:30Z</time>
  <course>0.0</course>
  <speed>0.0</speed>
  <fix>3d</fix>
</trkpt>
<trkpt lat="33.810313" lon="-118.393867">
  <ele>-0.122</ele>
  <time>2026-09-02T22:07:30Z</time>
  <course>187.97</course>
  <speed>0.022360679774997897</speed>
  <fix>3d</fix>
</trkpt>
<trkpt lat="33.810313" lon="-118.393867">
  <ele>-0.12</ele>
  <time>2026-09-02T22:07:30Z</time>
  <course>0.0</course>
  <speed>0.0</speed>
  <fix>3d</fix>
</trkpt>
<trkpt lat="33.810313" lon="-118.393867">
  <ele>-0.12</ele>
  <time>2026-09-02T22:07:30Z</time>
  <course>187.96</course>
  <speed>0.022360679774997897</speed>
  <fix>3d</fix>
</trkpt>
<trkpt lat="33.810313" lon="-118.393867">
  <ele>-0.12</ele>
  <time>2026-09-02T22:07:30Z</time>
  <course>0.0</course>
  <speed>0.0</speed>
  <fix>3d</fix>
</trkpt>
<trkpt lat="33.810313" lon="-118.393867">
  <ele>-0.12</ele>
  <time>2026-09-02T22:07:30Z</time>
  <course>187.95</course>
  <speed>0.022360679774997897</speed>
  <fix>3d</fix>
</trkpt>
<trkpt lat="33.810313" lon="-118.393867">
  <ele>-0.12</ele>
  <time>2026-09-02T22:07:30Z</time>
  <course>0.0</course>
  <speed>0.0</speed>
  <fix>3d</fix>
</trkpt>
<trkpt lat="33.810313" lon="-118.393867">
  <ele>-0.122</ele>
  <time>2026-09-02T22:07:30Z</time>
  <course>187.94</course>
  <speed>0.022360679774997897</speed>
  <fix>3d</fix>
</trkpt>
<trkpt lat="33.810313" lon="-118.393867">
  <ele>-0.12</ele>
  <time>2026-09-02T22:07:30Z</time>
  <course>0.0</course>
  <speed>0.0</speed>
  <fix>3d</fix>
</trkpt>
<trkpt lat="33.810313" lon="-118.393867">
  <ele>-0.125</ele>
  <time>2026-09-02T22:07:30Z</time>
  <course>187.94</course>
  <speed>0.022360679774997897</speed>
  <fix>3d</fix>
</trkpt>
<trkpt lat="33.810313" lon="-118.393867">
  <ele>-0.12</ele>
  <time>2026-09-02T22:07:30Z</time>
  <course>0.0</course>
  <speed>0.0</speed>
  <fix>3d</fix>
</trkpt>
<trkpt lat="33.810313" lon="-118.393867">
  <ele>-0.128</ele>
  <time>2026-09-02T22:07:30Z</time>
  <course>187.93</course>
  <speed>0.022360679774997897</speed>
  <fix>3d</fix>
</trkpt>
<trkpt lat="33.810313" lon="-118.393867">
  <ele>-0.12</ele>
  <time>2026-09-02T22:07:30Z</time>
  <course>0.0</course>
  <speed>0.0</speed>
  <fix>3d</fix>
</trkpt>
<trkpt lat="33.810313" lon="-118.393867">
  <ele>-0.131</ele>
  <time>2026-09-02T22:07:30Z</time>
  <course>187.92</course>
  <speed>0.022360679774997897</speed>
  <fix>3d</fix>
</trkpt>
<trkpt lat="33.810313" lon="-118.393867">
  <ele>-0.12</ele>
  <time>2026-09-02T22:07:30Z</time>
  <course>0.0</course>
  <speed>0.0</speed>
  <fix>3d</fix>
</trkpt>
<trkpt lat="33.810313" lon="-118.393867">
  <ele>-0.132</ele>
  <time>2026-09-02T22:07:30Z</time>
  <course>187.91</course>
  <speed>0.022360679774997897</speed>
  <fix>3d</fix>
</trkpt>
<trkpt lat="33.810313" lon="-118.393867">
  <ele>-0.12</ele>
  <time>2026-09-02T22:07:30Z</time>
  <course>0.0</course>
  <speed>0.0</speed>
  <fix>3d</fix>
</trkpt>
<trkpt lat="33.810313" lon="-118.393867">
  <ele>-0.132</ele>
  <time>2026-09-02T22:07:30Z</time>
  <course>187.91</course>
  <speed>0.022360679774997897</speed>
  <fix>3d</fix>
</trkpt>
<trkpt lat="33.810313" lon="-118.393867">
  <ele>-0.12</ele>
  <time>2026-09-02T22:07:30Z</time>
  <course>0.0</course>
  <speed>0.0</speed>
  <fix>3d</fix>
</trkpt>
<trkpt lat="33.810313" lon="-118.393867">
  <ele>-0.132</ele>
  <time>2026-09-02T22:07:30Z</time>
  <course>187.9</course>
  <speed>0.022360679774997897</speed>
  <fix>3d</fix>
</trkpt>
<trkpt lat="33.810313" lon="-118.393867">
  <ele>-0.12</ele>
  <time>2026-09-02T22:07:30Z</time>
  <course>0.0</course>
  <speed>0.0</speed>
  <fix>3d</fix>
</trkpt>
<trkpt lat="33.810313" lon="-118.393867">
  <ele>-0.13</ele>
  <time>2026-09-02T22:07:30Z</time>
  <course>187.89</course>
  <speed>0.022360679774997897</speed>
  <fix>3d</fix>
</trkpt>
<trkpt lat="33.810313" lon="-118.393867">
  <ele>-0.12</ele>
  <time>2026-09-02T22:07:30Z</time>
  <course>0.0</course>
  <speed>0.0</speed>
  <fix>3d</fix>
</trkpt>
<trkpt lat="33.810313" lon="-118.393867">
  <ele>-0.127</ele>
  <time>2026-09-02T22:07:30Z</time>
  <course>187.88</course>
  <speed>0.022360679774997897</speed>
  <fix>3d</fix>
</trkpt>
<trkpt lat="33.810313" lon="-118.393867">
  <ele>-0.12</ele>
  <time>2026-09-02T22:07:30Z</time>
  <course>0.0</course>
  <speed>0.0</speed>
  <fix>3d</fix>
</trkpt>
<trkpt lat="33.810313" lon="-118.393867">
  <ele>-0.123</ele>
  <time>2026-09-02T22:07:30Z</time>
  <course>187.87</course>
  <speed>0.022360679774997897</speed>
  <fix>3d</fix>
</trkpt>
<trkpt lat="33.810313" lon="-118.393867">
  <ele>-0.12</ele>
  <time>2026-09-02T22:07:30Z</time>
  <course>0.0</course>
  <speed>0.0</speed>
  <fix>3d</fix>
</trkpt>
<trkpt lat="33.810313" lon="-118.393867">
  <ele>-0.121</ele>
  <time>2026-09-02T22:07:30Z</time>
  <course>187.87</course>
  <speed>0.022360679774997897</speed>
  <fix>3d</fix>
</trkpt>
<trkpt lat="33.810313" lon="-118.393867">
  <ele>-0.12</ele>
  <time>2026-09-02T22:07:30Z</time>
  <course>0.0</course>
  <speed>0.0</speed>
  <fix>3d</fix>
</trkpt>
<trkpt lat="33.810313" lon="-118.393867">
  <ele>-0.121</ele>
  <time>2026-09-02T22:07:30Z</time>
  <course>187.86</course>
  <speed>0.022360679774997897</speed>
  <fix>3d</fix>
</trkpt>
<trkpt lat="33.810313" lon="-118.393867">
  <ele>-0.12</ele>
  <time>2026-09-02T22:07:30Z</time>
  <course>0.0</course>
  <speed>0.0</speed>
  <fix>3d</fix>
</trkpt>
<trkpt lat="33.810313" lon="-118.393867">
  <ele>-0.123</ele>
  <time>2026-09-02T22:07:30Z</time>
  <course>187.85</course>
  <speed>0.022360679774997897</speed>
  <fix>3d</fix>
</trkpt>
<trkpt lat="33.810313" lon="-118.393867">
  <ele>-0.12</ele>
  <time>2026-09-02T22:07:30Z</time>
  <course>0.0</course>
  <speed>0.0</speed>
  <fix>3d</fix>
</trkpt>
<trkpt lat="33.810313" lon="-118.393867">
  <ele>-0.124</ele>
  <time>2026-09-02T22:07:30Z</time>
  <course>187.84</course>
  <speed>0.022360679774997897</speed>
  <fix>3d</fix>
</trkpt>
<trkpt lat="33.810313" lon="-118.393867">
  <ele>-0.12</ele>
  <time>2026-09-02T22:07:30Z</time>
  <course>0.0</course>
  <speed>0.0</speed>
  <fix>3d</fix>
</trkpt>
<trkpt lat="33.810313" lon="-118.393867">
  <ele>-0.126</ele>
  <time>2026-09-02T22:07:30Z</time>
  <course>187.83</course>
  <speed>0.022360679774997897</speed>
  <fix>3d</fix>
</trkpt>
<trkpt lat="33.810313" lon="-118.393867">
  <ele>-0.12</ele>
  <time>2026-09-02T22:07:30Z</time>
  <course>0.0</course>
  <speed>0.0</speed>
  <fix>3d</fix>
</trkpt>
<trkpt lat="33.810313" lon="-118.393867">
  <ele>-0.127</ele>
  <time>2026-09-02T22:07:30Z</time>
  <course>187.83</course>
  <speed>0.022360679774997897</speed>
  <fix>3d</fix>
</trkpt>
<trkpt lat="33.810313" lon="-118.393867">
  <ele>-0.12</ele>
  <time>2026-09-02T22:07:30Z</time>
  <course>0.0</course>
  <speed>0.0</speed>
  <fix>3d</fix>
</trkpt>
<trkpt lat="33.810313" lon="-118.393867">
  <ele>-0.127</ele>
  <time>2026-09-02T22:07:30Z</time>
  <course>187.82</course>
  <speed>0.022360679774997897</speed>
  <fix>3d</fix>
</trkpt>
<trkpt lat="33.810313" lon="-118.393867">
  <ele>-0.12</ele>
  <time>2026-09-02T22:07:30Z</time>
  <course>0.0</course>
  <speed>0.0</speed>
  <fix>3d</fix>
</trkpt>
<trkpt lat="33.810313" lon="-118.393867">
  <ele>-0.127</ele>
  <time>2026-09-02T22:07:30Z</time>
  <course>187.81</course>
  <speed>0.022360679774997897</speed>
  <fix>3d</fix>
</trkpt>
<trkpt lat="33.810313" lon="-118.393867">
  <ele>-0.12</ele>
  <time>2026-09-02T22:07:30Z</time>
  <course>0.0</course>
  <speed>0.0</speed>
  <fix>3d</fix>
</trkpt>
<trkpt lat="33.810313" lon="-118.393867">
  <ele>-0.126</ele>
  <time>2026-09-02T22:07:30Z</time>
  <course>187.8</course>
  <speed>0.022360679774997897</speed>
  <fix>3d</fix>
</trkpt>
<trkpt lat="33.810313" lon="-118.393867">
  <ele>-0.12</ele>
  <time>2026-09-02T22:07:30Z</time>
  <course>0.0</course>
  <speed>0.0</speed>
  <fix>3d</fix>
</trkpt>
<trkpt lat="33.810313" lon="-118.393867">
  <ele>-0.124</ele>
  <time>2026-09-02T22:07:30Z</time>
  <course>187.8</course>
  <speed>0.022360679774997897</speed>
  <fix>3d</fix>
</trkpt>
<trkpt lat="33.810313" lon="-118.393867">
  <ele>-0.12</ele>
  <time>2026-09-02T22:07:30Z</time>
  <course>0.0</course>
  <speed>0.0</speed>
  <fix>3d</fix>
</trkpt>
<trkpt lat="33.810313" lon="-118.393867">
  <ele>-0.121</ele>
  <time>2026-09-02T22:07:30Z</time>
  <course>187.79</course>
  <speed>0.022360679774997897</speed>
  <fix>3d</fix>
</trkpt>
<trkpt lat="33.810313" lon="-118.393867">
  <ele>-0.12</ele>
  <time>2026-09-02T22:07:30Z</time>
  <course>0.0</course>
  <speed>0.0</speed>
  <fix>3d</fix>
</trkpt>
<trkpt lat="33.810313" lon="-118.393867">
  <ele>-0.119</ele>
  <time>2026-09-02T22:07:30Z</time>
  <course>187.78</course>
  <speed>0.022360679774997897</speed>
  <fix>3d</fix>
</trkpt>
<trkpt lat="33.810313" lon="-118.393867">
  <ele>-0.12</ele>
  <time>2026-09-02T22:07:30Z</time>
  <course>0.0</course>
  <speed>0.0</speed>
  <fix>3d</fix>
</trkpt>
<trkpt lat="33.810313" lon="-118.393867">
  <ele>-0.118</ele>
  <time>2026-09-02T22:07:30Z</time>
  <course>187.77</course>
  <speed>0.022360679774997897</speed>
  <fix>3d</fix>
</trkpt>
<trkpt lat="33.810313" lon="-118.393867">
  <ele>-0.12</ele>
  <time>2026-09-02T22:07:30Z</time>
  <course>0.0</course>
  <speed>0.0</speed>
  <fix>3d</fix>
</trkpt>
<trkpt lat="33.810313" lon="-118.393867">
  <ele>-0.118</ele>
  <time>2026-09-02T22:07:30Z</time>
  <course>187.77</course>
  <speed>0.022360679774997897</speed>
  <fix>3d</fix>
</trkpt>
<trkpt lat="33.810313" lon="-118.393867">
  <ele>-0.12</ele>
  <time>2026-09-02T22:07:30Z</time>
  <course>0.0</course>
  <speed>0.0</speed>
  <fix>3d</fix>
</trkpt>
<trkpt lat="33.810313" lon="-118.393867">
  <ele>-0.119</ele>
  <time>2026-09-02T22:07:30Z</time>
  <course>187.76</course>
  <speed>0.022360679774997897</speed>
  <fix>3d</fix>
</trkpt>
<trkpt lat="33.810313" lon="-118.393867">
  <ele>-0.12</ele>
  <time>2026-09-02T22:07:30Z</time>
  <course>0.0</course>
  <speed>0.0</speed>
  <fix>3d</fix>
</trkpt>
<trkpt lat="33.810313" lon="-118.393867">
  <ele>-0.12</ele>
  <time>2026-09-02T22:07:30Z</time>
  <course>187.75</course>
  <speed>0.022360679774997897</speed>
  <fix>3d</fix>
</trkpt>
<trkpt lat="33.810313" lon="-118.393867">
  <ele>-0.12</ele>
  <time>2026-09-02T22:07:30Z</time>
  <course>0.0</course>
  <speed>0.0</speed>
  <fix>3d</fix>
</trkpt>
<trkpt lat="33.810313" lon="-118.393867">
  <ele>-0.12</ele>
  <time>2026-09-02T22:07:30Z</time>
  <course>187.74</course>
  <speed>0.0282842712474619</speed>
  <fix>3d</fix>
</trkpt>
<trkpt lat="33.810313" lon="-118.393867">
  <ele>-0.12</ele>
  <time>2026-09-02T22:07:30Z</time>
  <course>0.0</course>
  <speed>0.0</speed>
  <fix>3d</fix>
</trkpt>
<trkpt lat="33.810313" lon="-118.393867">
  <ele>-0.12</ele>
  <time>2026-09-02T22:07:30Z</time>
  <course>187.74</course>
  <speed>0.0282842712474619</speed>
  <fix>3d</fix>
</trkpt>
<trkpt lat="33.810313" lon="-118.393867">
  <ele>-0.12</ele>
  <time>2026-09-02T22:07:30Z</time>
  <course>0.0</course>
  <speed>0.0</speed>
  <fix>3d</fix>
</trkpt>
<trkpt lat="33.810313" lon="-118.393867">
  <ele>-0.119</ele>
  <time>2026-09-02T22:07:30Z</time>
  <course>187.73</course>
  <speed>0.0282842712474619</speed>
  <fix>3d</fix>
</trkpt>
<trkpt lat="33.810313" lon="-118.393867">
  <ele>-0.12</ele>
  <time>2026-09-02T22:07:30Z</time>
  <course>0.0</course>
  <speed>0.0</speed>
  <fix>3d</fix>
</trkpt>
<trkpt lat="33.810313" lon="-118.393867">
  <ele>-0.118</ele>
  <time>2026-09-02T22:07:30Z</time>
  <course>187.72</course>
  <speed>0.0282842712474619</speed>
  <fix>3d</fix>
</trkpt>
<trkpt lat="33.810313" lon="-118.393867">
  <ele>-0.12</ele>
  <time>2026-09-02T22:07:30Z</time>
  <course>0.0</course>
  <speed>0.0</speed>
  <fix>3d</fix>
</trkpt>
<trkpt lat="33.810313" lon="-118.393867">
  <ele>-0.116</ele>
  <time>2026-09-02T22:07:30Z</time>
  <course>187.71</course>
  <speed>0.0282842712474619</speed>
  <fix>3d</fix>
</trkpt>
<trkpt lat="33.810313" lon="-118.393867">
  <ele>-0.12</ele>
  <time>2026-09-02T22:07:30Z</time>
  <course>0.0</course>
  <speed>0.0</speed>
  <fix>3d</fix>
</trkpt>
<trkpt lat="33.810313" lon="-118.393867">
  <ele>-0.114</ele>
  <time>2026-09-02T22:07:30Z</time>
  <course>187.71</course>
  <speed>0.0282842712474619</speed>
  <fix>3d</fix>
</trkpt>
<trkpt lat="33.810313" lon="-118.393867">
  <ele>-0.12</ele>
  <time>2026-09-02T22:07:30Z</time>
  <course>0.0</course>
  <speed>0.0</speed>
  <fix>3d</fix>
</trkpt>
<trkpt lat="33.810313" lon="-118.393867">
  <ele>-0.112</ele>
  <time>2026-09-02T22:07:30Z</time>
  <course>187.7</course>
  <speed>0.0282842712474619</speed>
  <fix>3d</fix>
</trkpt>
<trkpt lat="33.810313" lon="-118.393867">
  <ele>-0.12</ele>
  <time>2026-09-02T22:07:30Z</time>
  <course>0.0</course>
  <speed>0.0</speed>
  <fix>3d</fix>
</trkpt>
<trkpt lat="33.810313" lon="-118.393867">
  <ele>-0.113</ele>
  <time>2026-09-02T22:07:30Z</time>
  <course>187.69</course>
  <speed>0.0282842712474619</speed>
  <fix>3d</fix>
</trkpt>
<trkpt lat="33.810313" lon="-118.393867">
  <ele>-0.12</ele>
  <time>2026-09-02T22:07:30Z</time>
  <course>0.0</course>
  <speed>0.0</speed>
  <fix>3d</fix>
</trkpt>
<trkpt lat="33.810313" lon="-118.393867">
  <ele>-0.115</ele>
  <time>2026-09-02T22:07:30Z</time>
  <course>187.69</course>
  <speed>0.0282842712474619</speed>
  <fix>3d</fix>
</trkpt>
<trkpt lat="33.810313" lon="-118.393867">
  <ele>-0.12</ele>
  <time>2026-09-02T22:07:30Z</time>
  <course>0.0</course>
  <speed>0.0</speed>
  <fix>3d</fix>
</trkpt>
<trkpt lat="33.810313" lon="-118.393867">
  <ele>-0.119</ele>
  <time>2026-09-02T22:07:30Z</time>
  <course>187.68</course>
  <speed>0.0282842712474619</speed>
  <fix>3d</fix>
</trkpt>
<trkpt lat="33.810313" lon="-118.393867">
  <ele>-0.12</ele>
  <time>2026-09-02T22:07:30Z</time>
  <course>0.0</course>
  <speed>0.0</speed>
  <fix>3d</fix>
</trkpt>
<trkpt lat="33.810313" lon="-118.393867">
  <ele>-0.123</ele>
  <time>2026-09-02T22:07:30Z</time>
  <course>187.67</course>
  <speed>0.0282842712474619</speed>
  <fix>3d</fix>
</trkpt>
<trkpt lat="33.810313" lon="-118.393867">
  <ele>-0.12</ele>
  <time>2026-09-02T22:07:30Z</time>
  <course>0.0</course>
  <speed>0.0</speed>
  <fix>3d</fix>
</trkpt>
<trkpt lat="33.810313" lon="-118.393867">
  <ele>-0.128</ele>
  <time>2026-09-02T22:07:30Z</time>
  <course>187.66</course>
  <speed>0.0282842712474619</speed>
  <fix>3d</fix>
</trkpt>
<trkpt lat="33.810313" lon="-118.393867">
  <ele>-0.12</ele>
  <time>2026-09-02T22:07:30Z</time>
  <course>0.0</course>
  <speed>0.0</speed>
  <fix>3d</fix>
</trkpt>
<trkpt lat="33.810313" lon="-118.393867">
  <ele>-0.132</ele>
  <time>2026-09-02T22:07:30Z</time>
  <course>187.66</course>
  <speed>0.0282842712474619</speed>
  <fix>3d</fix>
</trkpt>
<trkpt lat="33.810313" lon="-118.393867">
  <ele>-0.12</ele>
  <time>2026-09-02T22:07:30Z</time>
  <course>0.0</course>
  <speed>0.0</speed>
  <fix>3d</fix>
</trkpt>
<trkpt lat="33.810313" lon="-118.393867">
  <ele>-0.134</ele>
  <time>2026-09-02T22:07:30Z</time>
  <course>187.65</course>
  <speed>0.0282842712474619</speed>
  <fix>3d</fix>
</trkpt>
<trkpt lat="33.810313" lon="-118.393867">
  <ele>-0.12</ele>
  <time>2026-09-02T22:07:30Z</time>
  <course>0.0</course>
  <speed>0.0</speed>
  <fix>3d</fix>
</trkpt>
<trkpt lat="33.810313" lon="-118.393867">
  <ele>-0.135</ele>
  <time>2026-09-02T22:07:30Z</time>
  <course>187.64</course>
  <speed>0.0282842712474619</speed>
  <fix>3d</fix>
</trkpt>
<trkpt lat="33.810313" lon="-118.393867">
  <ele>-0.12</ele>
  <time>2026-09-02T22:07:30Z</time>
  <course>0.0</course>
  <speed>0.0</speed>
  <fix>3d</fix>
</trkpt>
<trkpt lat="33.810313" lon="-118.393867">
  <ele>-0.135</ele>
  <time>2026-09-02T22:07:30Z</time>
  <course>187.64</course>
  <speed>0.0282842712474619</speed>
  <fix>3d</fix>
</trkpt>
<trkpt lat="33.810313" lon="-118.393867">
  <ele>-0.12</ele>
  <time>2026-09-02T22:07:30Z</time>
  <course>0.0</course>
  <speed>0.0</speed>
  <fix>3d</fix>
</trkpt>
<trkpt lat="33.810313" lon="-118.393867">
  <ele>-0.133</ele>
  <time>2026-09-02T22:07:30Z</time>
  <course>187.63</course>
  <speed>0.0282842712474619</speed>
  <fix>3d</fix>
</trkpt>
<trkpt lat="33.810313" lon="-118.393867">
  <ele>-0.12</ele>
  <time>2026-09-02T22:07:30Z</time>
  <course>0.0</course>
  <speed>0.0</speed>
  <fix>3d</fix>
</trkpt>
<trkpt lat="33.810313" lon="-118.393867">
  <ele>-0.132</ele>
  <time>2026-09-02T22:07:30Z</time>
  <course>187.63</course>
  <speed>0.0282842712474619</speed>
  <fix>3d</fix>
</trkpt>
<trkpt lat="33.810313" lon="-118.393867">
  <ele>-0.12</ele>
  <time>2026-09-02T22:07:30Z</time>
  <course>0.0</course>
  <speed>0.0</speed>
  <fix>3d</fix>
</trkpt>
<trkpt lat="33.810313" lon="-118.393867">
  <ele>-0.132</ele>
  <time>2026-09-02T22:07:30Z</time>
  <course>187.62</course>
  <speed>0.03605551275463989</speed>
  <fix>3d</fix>
</trkpt>
<trkpt lat="33.810313" lon="-118.393867">
  <ele>-0.12</ele>
  <time>2026-09-02T22:07:30Z</time>
  <course>0.0</course>
  <speed>0.0</speed>
  <fix>3d</fix>
</trkpt>
<trkpt lat="33.810313" lon="-118.393867">
  <ele>-0.132</ele>
  <time>2026-09-02T22:07:30Z</time>
  <course>187.61</course>
  <speed>0.03605551275463989</speed>
  <fix>3d</fix>
</trkpt>
<trkpt lat="33.810313" lon="-118.393867">
  <ele>-0.12</ele>
  <time>2026-09-02T22:07:30Z</time>
  <course>0.0</course>
  <speed>0.0</speed>
  <fix>3d</fix>
</trkpt>
<trkpt lat="33.810313" lon="-118.393867">
  <ele>-0.133</ele>
  <time>2026-09-02T22:07:30Z</time>
  <course>187.61</course>
  <speed>0.03605551275463989</speed>
  <fix>3d</fix>
</trkpt>
<trkpt lat="33.810313" lon="-118.393867">
  <ele>-0.12</ele>
  <time>2026-09-02T22:07:30Z</time>
  <course>0.0</course>
  <speed>0.0</speed>
  <fix>3d</fix>
</trkpt>
<trkpt lat="33.810313" lon="-118.393867">
  <ele>-0.134</ele>
  <time>2026-09-02T22:07:30Z</time>
  <course>187.6</course>
  <speed>0.03605551275463989</speed>
  <fix>3d</fix>
</trkpt>
<trkpt lat="33.810313" lon="-118.393867">
  <ele>-0.12</ele>
  <time>2026-09-02T22:07:30Z</time>
  <course>0.0</course>
  <speed>0.0</speed>
  <fix>3d</fix>
</trkpt>
<trkpt lat="33.810313" lon="-118.393867">
  <ele>-0.133</ele>
  <time>2026-09-02T22:07:30Z</time>
  <course>187.59</course>
  <speed>0.03605551275463989</speed>
  <fix>3d</fix>
</trkpt>
<trkpt lat="33.810313" lon="-118.393867">
  <ele>-0.12</ele>
  <time>2026-09-02T22:07:30Z</time>
  <course>0.0</course>
  <speed>0.0</speed>
  <fix>3d</fix>
</trkpt>
<trkpt lat="33.810313" lon="-118.393867">
  <ele>-0.132</ele>
  <time>2026-09-02T22:07:30Z</time>
  <course>187.59</course>
  <speed>0.03605551275463989</speed>
  <fix>3d</fix>
</trkpt>
<trkpt lat="33.810313" lon="-118.393867">
  <ele>-0.12</ele>
  <time>2026-09-02T22:07:30Z</time>
  <course>0.0</course>
  <speed>0.0</speed>
  <fix>3d</fix>
</trkpt>
<trkpt lat="33.810313" lon="-118.393867">
  <ele>-0.13</ele>
  <time>2026-09-02T22:07:30Z</time>
  <course>187.58</course>
  <speed>0.03605551275463989</speed>
  <fix>3d</fix>
</trkpt>
<trkpt lat="33.810313" lon="-118.393867">
  <ele>-0.12</ele>
  <time>2026-09-02T22:07:30Z</time>
  <course>0.0</course>
  <speed>0.0</speed>
  <fix>3d</fix>
</trkpt>
<trkpt lat="33.810313" lon="-118.393867">
  <ele>-0.127</ele>
  <time>2026-09-02T22:07:30Z</time>
  <course>187.57</course>
  <speed>0.03605551275463989</speed>
  <fix>3d</fix>
</trkpt>
<trkpt lat="33.810313" lon="-118.393867">
  <ele>-0.12</ele>
  <time>2026-09-02T22:07:30Z</time>
  <course>0.0</course>
  <speed>0.0</speed>
  <fix>3d</fix>
</trkpt>
<trkpt lat="33.810313" lon="-118.393867">
  <ele>-0.125</ele>
  <time>2026-09-02T22:07:30Z</time>
  <course>187.57</course>
  <speed>0.03605551275463989</speed>
  <fix>3d</fix>
</trkpt>
<trkpt lat="33.810313" lon="-118.393867">
  <ele>-0.12</ele>
  <time>2026-09-02T22:07:30Z</time>
  <course>0.0</course>
  <speed>0.0</speed>
  <fix>3d</fix>
</trkpt>
<trkpt lat="33.810313" lon="-118.393867">
  <ele>-0.122</ele>
  <time>2026-09-02T22:07:30Z</time>
  <course>187.56</course>
  <speed>0.03605551275463989</speed>
  <fix>3d</fix>
</trkpt>
<trkpt lat="33.810313" lon="-118.393867">
  <ele>-0.12</ele>
  <time>2026-09-02T22:07:30Z</time>
  <course>0.0</course>
  <speed>0.0</speed>
  <fix>3d</fix>
</trkpt>
<trkpt lat="33.810313" lon="-118.393867">
  <ele>-0.119</ele>
  <time>2026-09-02T22:07:30Z</time>
  <course>187.55</course>
  <speed>0.03605551275463989</speed>
  <fix>3d</fix>
</trkpt>
<trkpt lat="33.810313" lon="-118.393867">
  <ele>-0.12</ele>
  <time>2026-09-02T22:07:30Z</time>
  <course>0.0</course>
  <speed>0.0</speed>
  <fix>3d</fix>
</trkpt>
<trkpt lat="33.810313" lon="-118.393867">
  <ele>-0.117</ele>
  <time>2026-09-02T22:07:30Z</time>
  <course>187.55</course>
  <speed>0.03605551275463989</speed>
  <fix>3d</fix>
</trkpt>
<trkpt lat="33.810313" lon="-118.393867">
  <ele>-0.12</ele>
  <time>2026-09-02T22:07:30Z</time>
  <course>0.0</course>
  <speed>0.0</speed>
  <fix>3d</fix>
</trkpt>
<trkpt lat="33.810313" lon="-118.393867">
  <ele>-0.117</ele>
  <time>2026-09-02T22:07:30Z</time>
  <course>187.54</course>
  <speed>0.03605551275463989</speed>
  <fix>3d</fix>
</trkpt>
<trkpt lat="33.810313" lon="-118.393867">
  <ele>-0.12</ele>
  <time>2026-09-02T22:07:30Z</time>
  <course>0.0</course>
  <speed>0.0</speed>
  <fix>3d</fix>
</trkpt>
<trkpt lat="33.810313" lon="-118.393867">
  <ele>-0.118</ele>
  <time>2026-09-02T22:07:30Z</time>
  <course>187.53</course>
  <speed>0.03605551275463989</speed>
  <fix>3d</fix>
</trkpt>
<trkpt lat="33.810313" lon="-118.393867">
  <ele>-0.12</ele>
  <time>2026-09-02T22:07:30Z</time>
  <course>0.0</course>
  <speed>0.0</speed>
  <fix>3d</fix>
</trkpt>
<trkpt lat="33.810313" lon="-118.393867">
  <ele>-0.119</ele>
  <time>2026-09-02T22:07:30Z</time>
  <course>187.53</course>
  <speed>0.03605551275463989</speed>
  <fix>3d</fix>
</trkpt>
<trkpt lat="33.810313" lon="-118.393867">
  <ele>-0.12</ele>
  <time>2026-09-02T22:07:30Z</time>
  <course>0.0</course>
  <speed>0.0</speed>
  <fix>3d</fix>
</trkpt>
<trkpt lat="33.810313" lon="-118.393867">
  <ele>-0.12</ele>
  <time>2026-09-02T22:07:30Z</time>
  <course>187.52</course>
  <speed>0.03605551275463989</speed>
  <fix>3d</fix>
</trkpt>
<trkpt lat="33.810313" lon="-118.393867">
  <ele>-0.12</ele>
  <time>2026-09-02T22:07:30Z</time>
  <course>0.0</course>
  <speed>0.0</speed>
  <fix>3d</fix>
</trkpt>
<trkpt lat="33.810313" lon="-118.393867">
  <ele>-0.121</ele>
  <time>2026-09-02T22:07:30Z</time>
  <course>187.51</course>
  <speed>0.03605551275463989</speed>
  <fix>3d</fix>
</trkpt>
<trkpt lat="33.810313" lon="-118.393867">
  <ele>-0.12</ele>
  <time>2026-09-02T22:07:30Z</time>
  <course>0.0</course>
  <speed>0.0</speed>
  <fix>3d</fix>
</trkpt>
<trkpt lat="33.810313" lon="-118.393867">
  <ele>-0.121</ele>
  <time>2026-09-02T22:07:30Z</time>
  <course>187.51</course>
  <speed>0.03605551275463989</speed>
  <fix>3d</fix>
</trkpt>
<trkpt lat="33.810313" lon="-118.393867">
  <ele>-0.12</ele>
  <time>2026-09-02T22:07:30Z</time>
  <course>0.0</course>
  <speed>0.0</speed>
  <fix>3d</fix>
</trkpt>
<trkpt lat="33.810313" lon="-118.393867">
  <ele>-0.121</ele>
  <time>2026-09-02T22:07:30Z</time>
  <course>187.5</course>
  <speed>0.03605551275463989</speed>
  <fix>3d</fix>
</trkpt>
<trkpt lat="33.810313" lon="-118.393867">
  <ele>-0.12</ele>
  <time>2026-09-02T22:07:30Z</time>
  <course>0.0</course>
  <speed>0.0</speed>
  <fix>3d</fix>
</trkpt>
<trkpt lat="33.810313" lon="-118.393867">
  <ele>-0.121</ele>
  <time>2026-09-02T22:07:30Z</time>
  <course>187.49</course>
  <speed>0.03605551275463989</speed>
  <fix>3d</fix>
</trkpt>
<trkpt lat="33.810313" lon="-118.393867">
  <ele>-0.12</ele>
  <time>2026-09-02T22:07:30Z</time>
  <course>0.0</course>
  <speed>0.0</speed>
  <fix>3d</fix>
</trkpt>
<trkpt lat="33.810313" lon="-118.393867">
  <ele>-0.121</ele>
  <time>2026-09-02T22:07:30Z</time>
  <course>187.49</course>
  <speed>0.03605551275463989</speed>
  <fix>3d</fix>
</trkpt>
<trkpt lat="33.810313" lon="-118.393867">
  <ele>-0.12</ele>
  <time>2026-09-02T22:07:30Z</time>
  <course>0.0</course>
  <speed>0.0</speed>
  <fix>3d</fix>
</trkpt>
<trkpt lat="33.810313" lon="-118.393867">
  <ele>-0.121</ele>
  <time>2026-09-02T22:07:30Z</time>
  <course>187.48</course>
  <speed>0.03605551275463989</speed>
  <fix>3d</fix>
</trkpt>
<trkpt lat="33.810313" lon="-118.393867">
  <ele>-0.12</ele>
  <time>2026-09-02T22:07:30Z</time>
  <course>0.0</course>
  <speed>0.0</speed>
  <fix>3d</fix>
</trkpt>
<trkpt lat="33.810313" lon="-118.393867">
  <ele>-0.122</ele>
  <time>2026-09-02T22:07:30Z</time>
  <course>187.47</course>
  <speed>0.03605551275463989</speed>
  <fix>3d</fix>
</trkpt>
<trkpt lat="33.810313" lon="-118.393867">
  <ele>-0.12</ele>
  <time>2026-09-02T22:07:30Z</time>
  <course>0.0</course>
  <speed>0.0</speed>
  <fix>3d</fix>
</trkpt>
<trkpt lat="33.810313" lon="-118.393867">
  <ele>-0.124</ele>
  <time>2026-09-02T22:07:30Z</time>
  <course>187.47</course>
  <speed>0.03605551275463989</speed>
  <fix>3d</fix>
</trkpt>
<trkpt lat="33.810313" lon="-118.393867">
  <ele>-0.12</ele>
  <time>2026-09-02T22:07:30Z</time>
  <course>0.0</course>
  <speed>0.0</speed>
  <fix>3d</fix>
</trkpt>
<trkpt lat="33.810313" lon="-118.393867">
  <ele>-0.127</ele>
  <time>2026-09-02T22:07:30Z</time>
  <course>187.46</course>
  <speed>0.03605551275463989</speed>
  <fix>3d</fix>
</trkpt>
<trkpt lat="33.810313" lon="-118.393867">
  <ele>-0.12</ele>
  <time>2026-09-02T22:07:30Z</time>
  <course>0.0</course>
  <speed>0.0</speed>
  <fix>3d</fix>
</trkpt>
<trkpt lat="33.810313" lon="-118.393867">
  <ele>-0.129</ele>
  <time>2026-09-02T22:07:30Z</time>
  <course>187.46</course>
  <speed>0.03605551275463989</speed>
  <fix>3d</fix>
</trkpt>
<trkpt lat="33.810313" lon="-118.393867">
  <ele>-0.12</ele>
  <time>2026-09-02T22:07:30Z</time>
  <course>0.0</course>
  <speed>0.0</speed>
  <fix>3d</fix>
</trkpt>
<trkpt lat="33.810313" lon="-118.393867">
  <ele>-0.131</ele>
  <time>2026-09-02T22:07:30Z</time>
  <course>187.45</course>
  <speed>0.03605551275463989</speed>
  <fix>3d</fix>
</trkpt>
<trkpt lat="33.810313" lon="-118.393867">
  <ele>-0.12</ele>
  <time>2026-09-02T22:07:30Z</time>
  <course>0.0</course>
  <speed>0.0</speed>
  <fix>3d</fix>
</trkpt>
<trkpt lat="33.810313" lon="-118.393867">
  <ele>-0.132</ele>
  <time>2026-09-02T22:07:30Z</time>
  <course>187.44</course>
  <speed>0.03605551275463989</speed>
  <fix>3d</fix>
</trkpt>
<trkpt lat="33.810313" lon="-118.393867">
  <ele>-0.12</ele>
  <time>2026-09-02T22:07:30Z</time>
  <course>0.0</course>
  <speed>0.0</speed>
  <fix>3d</fix>
</trkpt>
<trkpt lat="33.810313" lon="-118.393867">
  <ele>-0.132</ele>
  <time>2026-09-02T22:07:30Z</time>
  <course>187.44</course>
  <speed>0.03605551275463989</speed>
  <fix>3d</fix>
</trkpt>
<trkpt lat="33.810313" lon="-118.393867">
  <ele>-0.12</ele>
  <time>2026-09-02T22:07:30Z</time>
  <course>0.0</course>
  <speed>0.0</speed>
  <fix>3d</fix>
</trkpt>
<trkpt lat="33.810313" lon="-118.393867">
  <ele>-0.132</ele>
  <time>2026-09-02T22:07:30Z</time>
  <course>187.43</course>
  <speed>0.03605551275463989</speed>
  <fix>3d</fix>
</trkpt>
<trkpt lat="33.810313" lon="-118.393867">
  <ele>-0.12</ele>
  <time>2026-09-02T22:07:30Z</time>
  <course>0.0</course>
  <speed>0.0</speed>
  <fix>3d</fix>
</trkpt>
<trkpt lat="33.810313" lon="-118.393867">
  <ele>-0.132</ele>
  <time>2026-09-02T22:07:30Z</time>
  <course>187.42</course>
  <speed>0.03605551275463989</speed>
  <fix>3d</fix>
</trkpt>
<trkpt lat="33.810313" lon="-118.393867">
  <ele>-0.12</ele>
  <time>2026-09-02T22:07:30Z</time>
  <course>0.0</course>
  <speed>0.0</speed>
  <fix>3d</fix>
</trkpt>
<trkpt lat="33.810313" lon="-118.393867">
  <ele>-0.131</ele>
  <time>2026-09-02T22:07:30Z</time>
  <course>187.42</course>
  <speed>0.03605551275463989</speed>
  <fix>3d</fix>
</trkpt>
<trkpt lat="33.810313" lon="-118.393867">
  <ele>-0.12</ele>
  <time>2026-09-02T22:07:30Z</time>
  <course>0.0</course>
  <speed>0.0</speed>
  <fix>3d</fix>
</trkpt>
<trkpt lat="33.810313" lon="-118.393867">
  <ele>-0.131</ele>
  <time>2026-09-02T22:07:30Z</time>
  <course>187.41</course>
  <speed>0.03605551275463989</speed>
  <fix>3d</fix>
</trkpt>
<trkpt lat="33.810313" lon="-118.393867">
  <ele>-0.12</ele>
  <time>2026-09-02T22:07:30Z</time>
  <course>0.0</course>
  <speed>0.0</speed>
  <fix>3d</fix>
</trkpt>
<trkpt lat="33.810313" lon="-118.393867">
  <ele>-0.132</ele>
  <time>2026-09-02T22:07:30Z</time>
  <course>187.41</course>
  <speed>0.03605551275463989</speed>
  <fix>3d</fix>
</trkpt>
<trkpt lat="33.810313" lon="-118.393867">
  <ele>-0.12</ele>
  <time>2026-09-02T22:07:30Z</time>
  <course>0.0</course>
  <speed>0.0</speed>
  <fix>3d</fix>
</trkpt>
<trkpt lat="33.810313" lon="-118.393867">
  <ele>-0.134</ele>
  <time>2026-09-02T22:07:30Z</time>
  <course>187.4</course>
  <speed>0.03605551275463989</speed>
  <fix>3d</fix>
</trkpt>
<trkpt lat="33.810313" lon="-118.393867">
  <ele>-0.12</ele>
  <time>2026-09-02T22:07:30Z</time>
  <course>0.0</course>
  <speed>0.0</speed>
  <fix>3d</fix>
</trkpt>
<trkpt lat="33.810313" lon="-118.393867">
  <ele>-0.137</ele>
  <time>2026-09-02T22:07:30Z</time>
  <course>187.39</course>
  <speed>0.03605551275463989</speed>
  <fix>3d</fix>
</trkpt>
<trkpt lat="33.810313" lon="-118.393867">
  <ele>-0.12</ele>
  <time>2026-09-02T22:07:30Z</time>
  <course>0.0</course>
  <speed>0.0</speed>
  <fix>3d</fix>
</trkpt>
<trkpt lat="33.810313" lon="-118.393867">
  <ele>-0.139</ele>
  <time>2026-09-02T22:07:30Z</time>
  <course>187.39</course>
  <speed>0.03605551275463989</speed>
  <fix>3d</fix>
</trkpt>
<trkpt lat="33.810313" lon="-118.393867">
  <ele>-0.12</ele>
  <time>2026-09-02T22:07:30Z</time>
  <course>0.0</course>
  <speed>0.0</speed>
  <fix>3d</fix>
</trkpt>
<trkpt lat="33.810313" lon="-118.393867">
  <ele>-0.141</ele>
  <time>2026-09-02T22:07:30Z</time>
  <course>187.38</course>
  <speed>0.03605551275463989</speed>
  <fix>3d</fix>
</trkpt>
<trkpt lat="33.810313" lon="-118.393867">
  <ele>-0.12</ele>
  <time>2026-09-02T22:07:30Z</time>
  <course>0.0</course>
  <speed>0.0</speed>
  <fix>3d</fix>
</trkpt>
<trkpt lat="33.810313" lon="-118.393867">
  <ele>-0.141</ele>
  <time>2026-09-02T22:07:30Z</time>
  <course>187.38</course>
  <speed>0.03605551275463989</speed>
  <fix>3d</fix>
</trkpt>
<trkpt lat="33.810313" lon="-118.393867">
  <ele>-0.12</ele>
  <time>2026-09-02T22:07:30Z</time>
  <course>0.0</course>
  <speed>0.0</speed>
  <fix>3d</fix>
</trkpt>
<trkpt lat="33.810313" lon="-118.393867">
  <ele>-0.139</ele>
  <time>2026-09-02T22:07:30Z</time>
  <course>187.37</course>
  <speed>0.03605551275463989</speed>
  <fix>3d</fix>
</trkpt>
<trkpt lat="33.810313" lon="-118.393867">
  <ele>-0.12</ele>
  <time>2026-09-02T22:07:30Z</time>
  <course>0.0</course>
  <speed>0.0</speed>
  <fix>3d</fix>
</trkpt>
<trkpt lat="33.810313" lon="-118.393867">
  <ele>-0.136</ele>
  <time>2026-09-02T22:07:30Z</time>
  <course>187.36</course>
  <speed>0.03605551275463989</speed>
  <fix>3d</fix>
</trkpt>
<trkpt lat="33.810313" lon="-118.393867">
  <ele>-0.12</ele>
  <time>2026-09-02T22:07:30Z</time>
  <course>0.0</course>
  <speed>0.0</speed>
  <fix>3d</fix>
</trkpt>
<trkpt lat="33.810313" lon="-118.393867">
  <ele>-0.133</ele>
  <time>2026-09-02T22:07:30Z</time>
  <course>187.36</course>
  <speed>0.03605551275463989</speed>
  <fix>3d</fix>
</trkpt>
<trkpt lat="33.810313" lon="-118.393867">
  <ele>-0.12</ele>
  <time>2026-09-02T22:07:30Z</time>
  <course>0.0</course>
  <speed>0.0</speed>
  <fix>3d</fix>
</trkpt>
<trkpt lat="33.810313" lon="-118.393867">
  <ele>-0.129</ele>
  <time>2026-09-02T22:07:30Z</time>
  <course>187.35</course>
  <speed>0.03605551275463989</speed>
  <fix>3d</fix>
</trkpt>
<trkpt lat="33.810313" lon="-118.393867">
  <ele>-0.12</ele>
  <time>2026-09-02T22:07:30Z</time>
  <course>0.0</course>
  <speed>0.0</speed>
  <fix>3d</fix>
</trkpt>
<trkpt lat="33.810313" lon="-118.393867">
  <ele>-0.127</ele>
  <time>2026-09-02T22:07:30Z</time>
  <course>187.35</course>
  <speed>0.03605551275463989</speed>
  <fix>3d</fix>
</trkpt>
<trkpt lat="33.810313" lon="-118.393867">
  <ele>-0.12</ele>
  <time>2026-09-02T22:07:30Z</time>
  <course>0.0</course>
  <speed>0.0</speed>
  <fix>3d</fix>
</trkpt>
<trkpt lat="33.810313" lon="-118.393867">
  <ele>-0.127</ele>
  <time>2026-09-02T22:07:30Z</time>
  <course>187.34</course>
  <speed>0.03605551275463989</speed>
  <fix>3d</fix>
</trkpt>
<trkpt lat="33.810313" lon="-118.393867">
  <ele>-0.12</ele>
  <time>2026-09-02T22:07:30Z</time>
  <course>0.0</course>
  <speed>0.0</speed>
  <fix>3d</fix>
</trkpt>
<trkpt lat="33.810313" lon="-118.393867">
  <ele>-0.126</ele>
  <time>2026-09-02T22:07:30Z</time>
  <course>187.34</course>
  <speed>0.03605551275463989</speed>
  <fix>3d</fix>
</trkpt>
<trkpt lat="33.810313" lon="-118.393867">
  <ele>-0.12</ele>
  <time>2026-09-02T22:07:30Z</time>
  <course>0.0</course>
  <speed>0.0</speed>
  <fix>3d</fix>
</trkpt>
<trkpt lat="33.810313" lon="-118.393867">
  <ele>-0.126</ele>
  <time>2026-09-02T22:07:30Z</time>
  <course>187.33</course>
  <speed>0.03605551275463989</speed>
  <fix>3d</fix>
</trkpt>
<trkpt lat="33.810313" lon="-118.393867">
  <ele>-0.12</ele>
  <time>2026-09-02T22:07:30Z</time>
  <course>0.0</course>
  <speed>0.0</speed>
  <fix>3d</fix>
</trkpt>
<trkpt lat="33.810313" lon="-118.393867">
  <ele>-0.126</ele>
  <time>2026-09-02T22:07:30Z</time>
  <course>187.32</course>
  <speed>0.03605551275463989</speed>
  <fix>3d</fix>
</trkpt>
<trkpt lat="33.810313" lon="-118.393867">
  <ele>-0.12</ele>
  <time>2026-09-02T22:07:30Z</time>
  <course>0.0</course>
  <speed>0.0</speed>
  <fix>3d</fix>
</trkpt>
<trkpt lat="33.810313" lon="-118.393867">
  <ele>-0.126</ele>
  <time>2026-09-02T22:07:30Z</time>
  <course>187.32</course>
  <speed>0.03605551275463989</speed>
  <fix>3d</fix>
</trkpt>
<trkpt lat="33.810313" lon="-118.393867">
  <ele>-0.12</ele>
  <time>2026-09-02T22:07:30Z</time>
  <course>0.0</course>
  <speed>0.0</speed>
  <fix>3d</fix>
</trkpt>
<trkpt lat="33.810313" lon="-118.393867">
  <ele>-0.125</ele>
  <time>2026-09-02T22:07:30Z</time>
  <course>187.31</course>
  <speed>0.03605551275463989</speed>
  <fix>3d</fix>
</trkpt>
<trkpt lat="33.810313" lon="-118.393867">
  <ele>-0.12</ele>
  <time>2026-09-02T22:07:30Z</time>
  <course>0.0</course>
  <speed>0.0</speed>
  <fix>3d</fix>
</trkpt>
<trkpt lat="33.810313" lon="-118.393867">
  <ele>-0.124</ele>
  <time>2026-09-02T22:07:30Z</time>
  <course>187.31</course>
  <speed>0.03605551275463989</speed>
  <fix>3d</fix>
</trkpt>
<trkpt lat="33.810313" lon="-118.393867">
  <ele>-0.12</ele>
  <time>2026-09-02T22:07:30Z</time>
  <course>0.0</course>
  <speed>0.0</speed>
  <fix>3d</fix>
</trkpt>
<trkpt lat="33.810313" lon="-118.393867">
  <ele>-0.122</ele>
  <time>2026-09-02T22:07:30Z</time>
  <course>187.3</course>
  <speed>0.03605551275463989</speed>
  <fix>3d</fix>
</trkpt>
<trkpt lat="33.810313" lon="-118.393867">
  <ele>-0.12</ele>
  <time>2026-09-02T22:07:30Z</time>
  <course>0.0</course>
  <speed>0.0</speed>
  <fix>3d</fix>
</trkpt>
<trkpt lat="33.810313" lon="-118.393867">
  <ele>-0.121</ele>
  <time>2026-09-02T22:07:30Z</time>
  <course>187.3</course>
  <speed>0.03605551275463989</speed>
  <fix>3d</fix>
</trkpt>
<trkpt lat="33.810313" lon="-118.393867">
  <ele>-0.12</ele>
  <time>2026-09-02T22:07:30Z</time>
  <course>0.0</course>
  <speed>0.0</speed>
  <fix>3d</fix>
</trkpt>
<trkpt lat="33.810313" lon="-118.393867">
  <ele>-0.122</ele>
  <time>2026-09-02T22:07:30Z</time>
  <course>187.29</course>
  <speed>0.03605551275463989</speed>
  <fix>3d</fix>
</trkpt>
<trkpt lat="33.810313" lon="-118.393867">
  <ele>-0.12</ele>
  <time>2026-09-02T22:07:30Z</time>
  <course>0.0</course>
  <speed>0.0</speed>
  <fix>3d</fix>
</trkpt>
<trkpt lat="33.810313" lon="-118.393867">
  <ele>-0.124</ele>
  <time>2026-09-02T22:07:30Z</time>
  <course>187.28</course>
  <speed>0.03605551275463989</speed>
  <fix>3d</fix>
</trkpt>
<trkpt lat="33.810313" lon="-118.393867">
  <ele>-0.12</ele>
  <time>2026-09-02T22:07:30Z</time>
  <course>0.0</course>
  <speed>0.0</speed>
  <fix>3d</fix>
</trkpt>
<trkpt lat="33.810313" lon="-118.393867">
  <ele>-0.127</ele>
  <time>2026-09-02T22:07:30Z</time>
  <course>187.28</course>
  <speed>0.03605551275463989</speed>
  <fix>3d</fix>
</trkpt>
<trkpt lat="33.810313" lon="-118.393867">
  <ele>-0.12</ele>
  <time>2026-09-02T22:07:30Z</time>
  <course>0.0</course>
  <speed>0.0</speed>
  <fix>3d</fix>
</trkpt>
<trkpt lat="33.810313" lon="-118.393867">
  <ele>-0.13</ele>
  <time>2026-09-02T22:07:30Z</time>
  <course>187.27</course>
  <speed>0.03605551275463989</speed>
  <fix>3d</fix>
</trkpt>
<trkpt lat="33.810313" lon="-118.393867">
  <ele>-0.12</ele>
  <time>2026-09-02T22:07:30Z</time>
  <course>0.0</course>
  <speed>0.0</speed>
  <fix>3d</fix>
</trkpt>
<trkpt lat="33.810313" lon="-118.393867">
  <ele>-0.132</ele>
  <time>2026-09-02T22:07:30Z</time>
  <course>187.27</course>
  <speed>0.03605551275463989</speed>
  <fix>3d</fix>
</trkpt>
<trkpt lat="33.810313" lon="-118.393867">
  <ele>-0.12</ele>
  <time>2026-09-02T22:07:30Z</time>
  <course>0.0</course>
  <speed>0.0</speed>
  <fix>3d</fix>
</trkpt>
<trkpt lat="33.810313" lon="-118.393867">
  <ele>-0.134</ele>
  <time>2026-09-02T22:07:30Z</time>
  <course>187.26</course>
  <speed>0.03605551275463989</speed>
  <fix>3d</fix>
</trkpt>
<trkpt lat="33.810313" lon="-118.393867">
  <ele>-0.12</ele>
  <time>2026-09-02T22:07:30Z</time>
  <course>0.0</course>
  <speed>0.0</speed>
  <fix>3d</fix>
</trkpt>
<trkpt lat="33.810313" lon="-118.393867">
  <ele>-0.136</ele>
  <time>2026-09-02T22:07:30Z</time>
  <course>187.26</course>
  <speed>0.03605551275463989</speed>
  <fix>3d</fix>
</trkpt>
<trkpt lat="33.810313" lon="-118.393867">
  <ele>-0.12</ele>
  <time>2026-09-02T22:07:30Z</time>
  <course>0.0</course>
  <speed>0.0</speed>
  <fix>3d</fix>
</trkpt>
<trkpt lat="33.810313" lon="-118.393867">
  <ele>-0.136</ele>
  <time>2026-09-02T22:07:30Z</time>
  <course>187.25</course>
  <speed>0.03605551275463989</speed>
  <fix>3d</fix>
</trkpt>
<trkpt lat="33.810313" lon="-118.393867">
  <ele>-0.12</ele>
  <time>2026-09-02T22:07:30Z</time>
  <course>0.0</course>
  <speed>0.0</speed>
  <fix>3d</fix>
</trkpt>
<trkpt lat="33.810313" lon="-118.393867">
  <ele>-0.135</ele>
  <time>2026-09-02T22:07:30Z</time>
  <course>187.25</course>
  <speed>0.03605551275463989</speed>
  <fix>3d</fix>
</trkpt>
<trkpt lat="33.810313" lon="-118.393867">
  <ele>-0.12</ele>
  <time>2026-09-02T22:07:30Z</time>
  <course>0.0</course>
  <speed>0.0</speed>
  <fix>3d</fix>
</trkpt>
<trkpt lat="33.810313" lon="-118.393867">
  <ele>-0.134</ele>
  <time>2026-09-02T22:07:30Z</time>
  <course>187.24</course>
  <speed>0.03605551275463989</speed>
  <fix>3d</fix>
</trkpt>
<trkpt lat="33.810313" lon="-118.393867">
  <ele>-0.12</ele>
  <time>2026-09-02T22:07:30Z</time>
  <course>0.0</course>
  <speed>0.0</speed>
  <fix>3d</fix>
</trkpt>
<trkpt lat="33.810313" lon="-118.393867">
  <ele>-0.132</ele>
  <time>2026-09-02T22:07:30Z</time>
  <course>187.24</course>
  <speed>0.03605551275463989</speed>
  <fix>3d</fix>
</trkpt>
<trkpt lat="33.810313" lon="-118.393867">
  <ele>-0.12</ele>
  <time>2026-09-02T22:07:30Z</time>
  <course>0.0</course>
  <speed>0.0</speed>
  <fix>3d</fix>
</trkpt>
<trkpt lat="33.810313" lon="-118.393867">
  <ele>-0.131</ele>
  <time>2026-09-02T22:07:30Z</time>
  <course>187.23</course>
  <speed>0.03605551275463989</speed>
  <fix>3d</fix>
</trkpt>
<trkpt lat="33.810313" lon="-118.393867">
  <ele>-0.12</ele>
  <time>2026-09-02T22:07:30Z</time>
  <course>0.0</course>
  <speed>0.0</speed>
  <fix>3d</fix>
</trkpt>
<trkpt lat="33.810313" lon="-118.393867">
  <ele>-0.131</ele>
  <time>2026-09-02T22:07:30Z</time>
  <course>187.23</course>
  <speed>0.03605551275463989</speed>
  <fix>3d</fix>
</trkpt>
<trkpt lat="33.810313" lon="-118.393867">
  <ele>-0.12</ele>
  <time>2026-09-02T22:07:30Z</time>
  <course>0.0</course>
  <speed>0.0</speed>
  <fix>3d</fix>
</trkpt>
<trkpt lat="33.810313" lon="-118.393867">
  <ele>-0.132</ele>
  <time>2026-09-02T22:07:30Z</time>
  <course>187.22</course>
  <speed>0.03605551275463989</speed>
  <fix>3d</fix>
</trkpt>
<trkpt lat="33.810313" lon="-118.393867">
  <ele>-0.12</ele>
  <time>2026-09-02T22:07:30Z</time>
  <course>0.0</course>
  <speed>0.0</speed>
  <fix>3d</fix>
</trkpt>
<trkpt lat="33.810313" lon="-118.393867">
  <ele>-0.132</ele>
  <time>2026-09-02T22:07:30Z</time>
  <course>187.21</course>
  <speed>0.03605551275463989</speed>
  <fix>3d</fix>
</trkpt>
<trkpt lat="33.810313" lon="-118.393867">
  <ele>-0.12</ele>
  <time>2026-09-02T22:07:30Z</time>
  <course>0.0</course>
  <speed>0.0</speed>
  <fix>3d</fix>
</trkpt>
<trkpt lat="33.810313" lon="-118.393867">
  <ele>-0.133</ele>
  <time>2026-09-02T22:07:30Z</time>
  <course>187.21</course>
  <speed>0.03605551275463989</speed>
  <fix>3d</fix>
</trkpt>
<trkpt lat="33.810313" lon="-118.393867">
  <ele>-0.12</ele>
  <time>2026-09-02T22:07:30Z</time>
  <course>0.0</course>
  <speed>0.0</speed>
  <fix>3d</fix>
</trkpt>
<trkpt lat="33.810313" lon="-118.393867">
  <ele>-0.132</ele>
  <time>2026-09-02T22:07:30Z</time>
  <course>187.2</course>
  <speed>0.03605551275463989</speed>
  <fix>3d</fix>
</trkpt>
<trkpt lat="33.810313" lon="-118.393867">
  <ele>-0.12</ele>
  <time>2026-09-02T22:07:30Z</time>
  <course>0.0</course>
  <speed>0.0</speed>
  <fix>3d</fix>
</trkpt>
<trkpt lat="33.810313" lon="-118.393867">
  <ele>-0.131</ele>
  <time>2026-09-02T22:07:30Z</time>
  <course>187.2</course>
  <speed>0.03605551275463989</speed>
  <fix>3d</fix>
</trkpt>
<trkpt lat="33.810313" lon="-118.393867">
  <ele>-0.12</ele>
  <time>2026-09-02T22:07:30Z</time>
  <course>0.0</course>
  <speed>0.0</speed>
  <fix>3d</fix>
</trkpt>
<trkpt lat="33.810313" lon="-118.393867">
  <ele>-0.129</ele>
  <time>2026-09-02T22:07:30Z</time>
  <course>187.19</course>
  <speed>0.03605551275463989</speed>
  <fix>3d</fix>
</trkpt>
<trkpt lat="33.810313" lon="-118.393867">
  <ele>-0.12</ele>
  <time>2026-09-02T22:07:30Z</time>
  <course>0.0</course>
  <speed>0.0</speed>
  <fix>3d</fix>
</trkpt>
<trkpt lat="33.810313" lon="-118.393867">
  <ele>-0.126</ele>
  <time>2026-09-02T22:07:30Z</time>
  <course>187.19</course>
  <speed>0.03605551275463989</speed>
  <fix>3d</fix>
</trkpt>
<trkpt lat="33.810313" lon="-118.393867">
  <ele>-0.12</ele>
  <time>2026-09-02T22:07:30Z</time>
  <course>0.0</course>
  <speed>0.0</speed>
  <fix>3d</fix>
</trkpt>
<trkpt lat="33.810313" lon="-118.393867">
  <ele>-0.124</ele>
  <time>2026-09-02T22:07:30Z</time>
  <course>187.18</course>
  <speed>0.03605551275463989</speed>
  <fix>3d</fix>
</trkpt>
<trkpt lat="33.810313" lon="-118.393867">
  <ele>-0.12</ele>
  <time>2026-09-02T22:07:30Z</time>
  <course>0.0</course>
  <speed>0.0</speed>
  <fix>3d</fix>
</trkpt>
<trkpt lat="33.810313" lon="-118.393867">
  <ele>-0.123</ele>
  <time>2026-09-02T22:07:30Z</time>
  <course>187.18</course>
  <speed>0.03605551275463989</speed>
  <fix>3d</fix>
</trkpt>
<trkpt lat="33.810313" lon="-118.393867">
  <ele>-0.12</ele>
  <time>2026-09-02T22:07:30Z</time>
  <course>0.0</course>
  <speed>0.0</speed>
  <fix>3d</fix>
</trkpt>
<trkpt lat="33.810313" lon="-118.393867">
  <ele>-0.123</ele>
  <time>2026-09-02T22:07:31Z</time>
  <course>187.17</course>
  <speed>0.03605551275463989</speed>
  <fix>3d</fix>
</trkpt>
<trkpt lat="33.810313" lon="-118.393867">
  <ele>-0.12</ele>
  <time>2026-09-02T22:07:31Z</time>
  <course>0.0</course>
  <speed>0.0</speed>
  <fix>3d</fix>
</trkpt>
<trkpt lat="33.810313" lon="-118.393867">
  <ele>-0.122</ele>
  <time>2026-09-02T22:07:31Z</time>
  <course>187.17</course>
  <speed>0.0</speed>
  <fix>3d</fix>
</trkpt>
<trkpt lat="33.810313" lon="-118.393867">
  <ele>-0.12</ele>
  <time>2026-09-02T22:07:31Z</time>
  <course>0.0</course>
  <speed>0.0</speed>
  <fix>3d</fix>
</trkpt>
<trkpt lat="33.810313" lon="-118.393867">
  <ele>-0.121</ele>
  <time>2026-09-02T22:07:31Z</time>
  <course>187.16</course>
  <speed>0.0</speed>
  <fix>3d</fix>
</trkpt>
<trkpt lat="33.810313" lon="-118.393867">
  <ele>-0.12</ele>
  <time>2026-09-02T22:07:31Z</time>
  <course>0.0</course>
  <speed>0.0</speed>
  <fix>3d</fix>
</trkpt>
<trkpt lat="33.810313" lon="-118.393867">
  <ele>-0.121</ele>
  <time>2026-09-02T22:07:31Z</time>
  <course>187.16</course>
  <speed>0.0</speed>
  <fix>3d</fix>
</trkpt>
<trkpt lat="33.810313" lon="-118.393867">
  <ele>-0.12</ele>
  <time>2026-09-02T22:07:31Z</time>
  <course>0.0</course>
  <speed>0.0</speed>
  <fix>3d</fix>
</trkpt>
<trkpt lat="33.810313" lon="-118.393867">
  <ele>-0.119</ele>
  <time>2026-09-02T22:07:31Z</time>
  <course>187.15</course>
  <speed>0.0</speed>
  <fix>3d</fix>
</trkpt>
<trkpt lat="33.810313" lon="-118.393867">
  <ele>-0.12</ele>
  <time>2026-09-02T22:07:31Z</time>
  <course>0.0</course>
  <speed>0.0</speed>
  <fix>3d</fix>
</trkpt>
<trkpt lat="33.810313" lon="-118.393867">
  <ele>-0.116</ele>
  <time>2026-09-02T22:07:31Z</time>
  <course>187.15</course>
  <speed>0.0</speed>
  <fix>3d</fix>
</trkpt>
<trkpt lat="33.810313" lon="-118.393867">
  <ele>-0.12</ele>
  <time>2026-09-02T22:07:31Z</time>
  <course>0.0</course>
  <speed>0.0</speed>
  <fix>3d</fix>
</trkpt>
<trkpt lat="33.810313" lon="-118.393867">
  <ele>-0.114</ele>
  <time>2026-09-02T22:07:31Z</time>
  <course>187.14</course>
  <speed>0.0</speed>
  <fix>3d</fix>
</trkpt>
<trkpt lat="33.810313" lon="-118.393867">
  <ele>-0.12</ele>
  <time>2026-09-02T22:07:31Z</time>
  <course>0.0</course>
  <speed>0.0</speed>
  <fix>3d</fix>
</trkpt>
<trkpt lat="33.810313" lon="-118.393867">
  <ele>-0.113</ele>
  <time>2026-09-02T22:07:31Z</time>
  <course>187.14</course>
  <speed>0.0</speed>
  <fix>3d</fix>
</trkpt>
<trkpt lat="33.810313" lon="-118.393867">
  <ele>-0.12</ele>
  <time>2026-09-02T22:07:31Z</time>
  <course>0.0</course>
  <speed>0.0</speed>
  <fix>3d</fix>
</trkpt>
<trkpt lat="33.810313" lon="-118.393867">
  <ele>-0.112</ele>
  <time>2026-09-02T22:07:31Z</time>
  <course>187.13</course>
  <speed>0.0</speed>
  <fix>3d</fix>
</trkpt>
<trkpt lat="33.810313" lon="-118.393867">
  <ele>-0.12</ele>
  <time>2026-09-02T22:07:31Z</time>
  <course>0.0</course>
  <speed>0.0</speed>
  <fix>3d</fix>
</trkpt>
<trkpt lat="33.810313" lon="-118.393867">
  <ele>-0.113</ele>
  <time>2026-09-02T22:07:31Z</time>
  <course>187.13</course>
  <speed>0.0</speed>
  <fix>3d</fix>
</trkpt>
<trkpt lat="33.810313" lon="-118.393867">
  <ele>-0.12</ele>
  <time>2026-09-02T22:07:31Z</time>
  <course>0.0</course>
  <speed>0.0</speed>
  <fix>3d</fix>
</trkpt>
<trkpt lat="33.810313" lon="-118.393867">
  <ele>-0.114</ele>
  <time>2026-09-02T22:07:31Z</time>
  <course>187.12</course>
  <speed>0.0</speed>
  <fix>3d</fix>
</trkpt>
<trkpt lat="33.810313" lon="-118.393867">
  <ele>-0.12</ele>
  <time>2026-09-02T22:07:31Z</time>
  <course>0.0</course>
  <speed>0.0</speed>
  <fix>3d</fix>
</trkpt>
<trkpt lat="33.810313" lon="-118.393867">
  <ele>-0.116</ele>
  <time>2026-09-02T22:07:31Z</time>
  <course>187.12</course>
  <speed>0.0</speed>
  <fix>3d</fix>
</trkpt>
<trkpt lat="33.810313" lon="-118.393867">
  <ele>-0.12</ele>
  <time>2026-09-02T22:07:31Z</time>
  <course>0.0</course>
  <speed>0.0</speed>
  <fix>3d</fix>
</trkpt>
<trkpt lat="33.810313" lon="-118.393867">
  <ele>-0.119</ele>
  <time>2026-09-02T22:07:31Z</time>
  <course>187.11</course>
  <speed>0.01</speed>
  <fix>3d</fix>
</trkpt>
<trkpt lat="33.810313" lon="-118.393867">
  <ele>-0.12</ele>
  <time>2026-09-02T22:07:31Z</time>
  <course>0.0</course>
  <speed>0.0</speed>
  <fix>3d</fix>
</trkpt>
<trkpt lat="33.810313" lon="-118.393867">
  <ele>-0.12</ele>
  <time>2026-09-02T22:07:31Z</time>
  <course>187.11</course>
  <speed>0.01</speed>
  <fix>3d</fix>
</trkpt>
<trkpt lat="33.810313" lon="-118.393867">
  <ele>-0.12</ele>
  <time>2026-09-02T22:07:31Z</time>
  <course>0.0</course>
  <speed>0.0</speed>
  <fix>3d</fix>
</trkpt>
<trkpt lat="33.810313" lon="-118.393867">
  <ele>-0.121</ele>
  <time>2026-09-02T22:07:31Z</time>
  <course>187.1</course>
  <speed>0.01</speed>
  <fix>3d</fix>
</trkpt>
<trkpt lat="33.810313" lon="-118.393867">
  <ele>-0.12</ele>
  <time>2026-09-02T22:07:31Z</time>
  <course>0.0</course>
  <speed>0.0</speed>
  <fix>3d</fix>
</trkpt>
<trkpt lat="33.810313" lon="-118.393867">
  <ele>-0.122</ele>
  <time>2026-09-02T22:07:31Z</time>
  <course>187.1</course>
  <speed>0.01414213562373095</speed>
  <fix>3d</fix>
</trkpt>
<trkpt lat="33.810313" lon="-118.393867">
  <ele>-0.12</ele>
  <time>2026-09-02T22:07:31Z</time>
  <course>0.0</course>
  <speed>0.0</speed>
  <fix>3d</fix>
</trkpt>
<trkpt lat="33.810313" lon="-118.393867">
  <ele>-0.122</ele>
  <time>2026-09-02T22:07:31Z</time>
  <course>187.1</course>
  <speed>0.09219544457292887</speed>
  <fix>3d</fix>
</trkpt>
<trkpt lat="33.810313" lon="-118.393867">
  <ele>-0.12</ele>
  <time>2026-09-02T22:07:31Z</time>
  <course>0.0</course>
  <speed>0.0</speed>
  <fix>3d</fix>
</trkpt>
<trkpt lat="33.8103129" lon="-118.393867">
  <ele>-0.119</ele>
  <time>2026-09-02T22:07:31Z</time>
  <course>187.09</course>
  <speed>0.25238858928247926</speed>
  <fix>3d</fix>
</trkpt>
<trkpt lat="33.810313" lon="-118.393867">
  <ele>-0.12</ele>
  <time>2026-09-02T22:07:31Z</time>
  <course>192.41</course>
  <speed>0.07</speed>
  <fix>3d</fix>
</trkpt>
<trkpt lat="33.8103126" lon="-118.3938673">
  <ele>-0.113</ele>
  <time>2026-09-02T22:07:31Z</time>
  <course>187.09</course>
  <speed>0.4045985664828782</speed>
  <fix>3d</fix>
</trkpt>
<trkpt lat="33.810313" lon="-118.393867">
  <ele>-0.12</ele>
  <time>2026-09-02T22:07:31Z</time>
  <course>192.41</course>
  <speed>0.07</speed>
  <fix>3d</fix>
</trkpt>
<trkpt lat="33.8103125" lon="-118.3938673">
  <ele>-0.111</ele>
  <time>2026-09-02T22:07:31Z</time>
  <course>187.08</course>
  <speed>0.4393176527297759</speed>
  <fix>3d</fix>
</trkpt>
<trkpt lat="33.8103123" lon="-118.3938676">
  <ele>-0.106</ele>
  <time>2026-09-02T22:07:31Z</time>
  <course>187.08</course>
  <speed>0.5166236541235796</speed>
  <fix>3d</fix>
</trkpt>
<trkpt lat="33.8103127" lon="-118.3938671">
  <ele>-0.11</ele>
  <time>2026-09-02T22:07:31Z</time>
  <course>210.9</course>
  <speed>0.29</speed>
  <fix>3d</fix>
</trkpt>
<trkpt lat="33.8103122" lon="-118.3938677">
  <ele>-0.104</ele>
  <time>2026-09-02T22:07:31Z</time>
  <course>187.08</course>
  <speed>0.5375872022286245</speed>
  <fix>3d</fix>
</trkpt>
<trkpt lat="33.8103122" lon="-118.3938677">
  <ele>-0.103</ele>
  <time>2026-09-02T22:07:31Z</time>
  <course>187.08</course>
  <speed>0.5517245689653489</speed>
  <fix>3d</fix>
</trkpt>
<trkpt lat="33.8103121" lon="-118.3938678">
  <ele>-0.103</ele>
  <time>2026-09-02T22:07:31Z</time>
  <course>187.08</course>
  <speed>0.5586591089385369</speed>
  <fix>3d</fix>
</trkpt>
<trkpt lat="33.8103121" lon="-118.3938678">
  <ele>-0.102</ele>
  <time>2026-09-02T22:07:31Z</time>
  <course>187.07</course>
  <speed>0.5728001396647874</speed>
  <fix>3d</fix>
</trkpt>
<trkpt lat="33.810312" lon="-118.3938679">
  <ele>-0.101</ele>
  <time>2026-09-02T22:07:31Z</time>
  <course>187.07</course>
  <speed>0.5728001396647874</speed>
  <fix>3d</fix>
</trkpt>
<trkpt lat="33.810312" lon="-118.3938679">
  <ele>-0.101</ele>
  <time>2026-09-02T22:07:31Z</time>
  <course>187.07</course>
  <speed>0.5869412236331676</speed>
  <fix>3d</fix>
</trkpt>
<trkpt lat="33.8103119" lon="-118.393868">
  <ele>-0.101</ele>
  <time>2026-09-02T22:07:31Z</time>
  <course>187.07</course>
  <speed>0.5939696961966999</speed>
  <fix>3d</fix>
</trkpt>
<trkpt lat="33.8103119" lon="-118.393868">
  <ele>-0.101</ele>
  <time>2026-09-02T22:07:31Z</time>
  <course>187.07</course>
  <speed>0.5939696961966999</speed>
  <fix>3d</fix>
</trkpt>
<trkpt lat="33.8103127" lon="-118.3938671">
  <ele>-0.11</ele>
  <time>2026-09-02T22:07:31Z</time>
  <course>210.9</course>
  <speed>0.29</speed>
  <fix>3d</fix>
</trkpt>
<trkpt lat="33.8103119" lon="-118.393868">
  <ele>-0.1</ele>
  <time>2026-09-02T22:07:31Z</time>
  <course>187.07</course>
  <speed>0.6010823570859487</speed>
  <fix>3d</fix>
</trkpt>
<trkpt lat="33.8103119" lon="-118.3938681">
  <ele>-0.1</ele>
  <time>2026-09-02T22:07:31Z</time>
  <course>187.07</course>
  <speed>0.6081118318204308</speed>
  <fix>3d</fix>
</trkpt>
<trkpt lat="33.8103118" lon="-118.3938681">
  <ele>-0.1</ele>
  <time>2026-09-02T22:07:31Z</time>
  <course>187.07</course>
  <speed>0.6081118318204308</speed>
  <fix>3d</fix>
</trkpt>
<trkpt lat="33.8103118" lon="-118.3938681">
  <ele>-0.1</ele>
  <time>2026-09-02T22:07:31Z</time>
  <course>187.07</course>
  <speed>0.6081118318204308</speed>
  <fix>3d</fix>
</trkpt>
<trkpt lat="33.8103118" lon="-118.3938682">
  <ele>-0.1</ele>
  <time>2026-09-02T22:07:31Z</time>
  <course>187.07</course>
  <speed>0.6222539674441618</speed>
  <fix>3d</fix>
</trkpt>
<trkpt lat="33.8103117" lon="-118.3938682">
  <ele>-0.1</ele>
  <time>2026-09-02T22:07:31Z</time>
  <course>187.07</course>
  <speed>0.6222539674441618</speed>
  <fix>3d</fix>
</trkpt>
<trkpt lat="33.8103117" lon="-118.3938683">
  <ele>-0.099</ele>
  <time>2026-09-02T22:07:31Z</time>
  <course>187.07</course>
  <speed>0.6222539674441618</speed>
  <fix>3d</fix>
</trkpt>
<trkpt lat="33.8103116" lon="-118.3938683">
  <ele>-0.1</ele>
  <time>2026-09-02T22:07:31Z</time>
  <course>187.07</course>
  <speed>0.6293647591023825</speed>
  <fix>3d</fix>
</trkpt>
<trkpt lat="33.8103116" lon="-118.3938684">
  <ele>-0.1</ele>
  <time>2026-09-02T22:07:31Z</time>
  <course>187.06</course>
  <speed>0.6363961030678928</speed>
  <fix>3d</fix>
</trkpt>
<trkpt lat="33.8103116" lon="-118.3938684">
  <ele>-0.1</ele>
  <time>2026-09-02T22:07:31Z</time>
  <course>187.06</course>
  <speed>0.6363961030678928</speed>
  <fix>3d</fix>
</trkpt>
<trkpt lat="33.8103115" lon="-118.3938684">
  <ele>-0.1</ele>
  <time>2026-09-02T22:07:31Z</time>
  <course>187.06</course>
  <speed>0.6435060217278468</speed>
  <fix>3d</fix>
</trkpt>
<trkpt lat="33.8103121" lon="-118.3938676">
  <ele>-0.1</ele>
  <time>2026-09-02T22:07:31Z</time>
  <course>219.46</course>
  <speed>0.53</speed>
  <fix>3d</fix>
</trkpt>
<trkpt lat="33.8103114" lon="-118.3938685">
  <ele>-0.101</ele>
  <time>2026-09-02T22:07:31Z</time>
  <course>187.06</course>
  <speed>0.6505382386916237</speed>
  <fix>3d</fix>
</trkpt>
<trkpt lat="33.8103114" lon="-118.3938686">
  <ele>-0.101</ele>
  <time>2026-09-02T22:07:31Z</time>
  <course>187.06</course>
  <speed>0.6576473218982953</speed>
  <fix>3d</fix>
</trkpt>
<trkpt lat="33.8103114" lon="-118.3938686">
  <ele>-0.102</ele>
  <time>2026-09-02T22:07:31Z</time>
  <course>187.06</course>
  <speed>0.6576473218982953</speed>
  <fix>3d</fix>
</trkpt>
<trkpt lat="33.8103113" lon="-118.3938687">
  <ele>-0.102</ele>
  <time>2026-09-02T22:07:31Z</time>
  <course>187.06</course>
  <speed>0.6576473218982953</speed>
  <fix>3d</fix>
</trkpt>
<trkpt lat="33.8103113" lon="-118.3938687">
  <ele>-0.102</ele>
  <time>2026-09-02T22:07:31Z</time>
  <course>187.06</course>
  <speed>0.6576473218982953</speed>
  <fix>3d</fix>
</trkpt>
<trkpt lat="33.8103113" lon="-118.3938687">
  <ele>-0.103</ele>
  <time>2026-09-02T22:07:31Z</time>
  <course>187.06</course>
  <speed>0.6576473218982953</speed>
  <fix>3d</fix>
</trkpt>
<trkpt lat="33.8103112" lon="-118.3938688">
  <ele>-0.103</ele>
  <time>2026-09-02T22:07:31Z</time>
  <course>187.06</course>
  <speed>0.6576473218982953</speed>
  <fix>3d</fix>
</trkpt>
<trkpt lat="33.8103112" lon="-118.3938688">
  <ele>-0.104</ele>
  <time>2026-09-02T22:07:31Z</time>
  <course>187.05</course>
  <speed>0.6717886572427374</speed>
  <fix>3d</fix>
</trkpt>
<trkpt lat="33.8103112" lon="-118.3938689">
  <ele>-0.104</ele>
  <time>2026-09-02T22:07:31Z</time>
  <course>187.05</course>
  <speed>0.6717886572427374</speed>
  <fix>3d</fix>
</trkpt>
<trkpt lat="33.8103111" lon="-118.3938689">
  <ele>-0.105</ele>
  <time>2026-09-02T22:07:31Z</time>
  <course>187.05</course>
  <speed>0.6717886572427374</speed>
  <fix>3d</fix>
</trkpt>
<trkpt lat="33.8103111" lon="-118.3938689">
  <ele>-0.105</ele>
  <time>2026-09-02T22:07:31Z</time>
  <course>187.05</course>
  <speed>0.6717886572427374</speed>
  <fix>3d</fix>
</trkpt>
<trkpt lat="33.8103121" lon="-118.3938676">
  <ele>-0.1</ele>
  <time>2026-09-02T22:07:31Z</time>
  <course>219.46</course>
  <speed>0.53</speed>
  <fix>3d</fix>
</trkpt>
<trkpt lat="33.8103111" lon="-118.393869">
  <ele>-0.106</ele>
  <time>2026-09-02T22:07:31Z</time>
  <course>187.05</course>
  <speed>0.6717886572427374</speed>
  <fix>3d</fix>
</trkpt>
<trkpt lat="33.810311" lon="-118.393869">
  <ele>-0.107</ele>
  <time>2026-09-02T22:07:31Z</time>
  <course>187.05</course>
  <speed>0.6717886572427374</speed>
  <fix>3d</fix>
</trkpt>
<trkpt lat="33.810311" lon="-118.3938691">
  <ele>-0.108</ele>
  <time>2026-09-02T22:07:31Z</time>
  <course>187.05</course>
  <speed>0.6789698078707183</speed>
  <fix>3d</fix>
</trkpt>
<trkpt lat="33.8103109" lon="-118.3938691">
  <ele>-0.109</ele>
  <time>2026-09-02T22:07:31Z</time>
  <course>187.05</course>
  <speed>0.6789698078707183</speed>
  <fix>3d</fix>
</trkpt>
<trkpt lat="33.8103109" lon="-118.3938692">
  <ele>-0.109</ele>
  <time>2026-09-02T22:07:31Z</time>
  <course>187.05</course>
  <speed>0.6789698078707183</speed>
  <fix>3d</fix>
</trkpt>
<trkpt lat="33.8103108" lon="-118.3938692">
  <ele>-0.11</ele>
  <time>2026-09-02T22:07:31Z</time>
  <course>187.05</course>
  <speed>0.6859300255857006</speed>
  <fix>3d</fix>
</trkpt>
<trkpt lat="33.8103108" lon="-118.3938693">
  <ele>-0.111</ele>
  <time>2026-09-02T22:07:31Z</time>
  <course>187.05</course>
  <speed>0.6859300255857006</speed>
  <fix>3d</fix>
</trkpt>
<trkpt lat="33.8103107" lon="-118.3938693">
  <ele>-0.112</ele>
  <time>2026-09-02T22:07:31Z</time>
  <course>187.04</course>
  <speed>0.6859300255857006</speed>
  <fix>3d</fix>
</trkpt>
<trkpt lat="33.8103107" lon="-118.3938694">
  <ele>-0.113</ele>
  <time>2026-09-02T22:07:31Z</time>
  <course>187.04</course>
  <speed>0.6859300255857006</speed>
  <fix>3d</fix>
</trkpt>
<trkpt lat="33.8103107" lon="-118.3938694">
  <ele>-0.113</ele>
  <time>2026-09-02T22:07:31Z</time>
  <course>187.04</course>
  <speed>0.6859300255857006</speed>
  <fix>3d</fix>
</trkpt>
<trkpt lat="33.8103112" lon="-118.3938685">
  <ele>-0.09</ele>
  <time>2026-09-02T22:07:31Z</time>
  <course>221.97</course>
  <speed>0.65</speed>
  <fix>3d</fix>
</trkpt>
<trkpt lat="33.8103107" lon="-118.3938694">
  <ele>-0.113</ele>
  <time>2026-09-02T22:07:31Z</time>
  <course>187.04</course>
  <speed>0.6859300255857006</speed>
  <fix>3d</fix>
</trkpt>
<trkpt lat="33.8103106" lon="-118.3938695">
  <ele>-0.114</ele>
  <time>2026-09-02T22:07:31Z</time>
  <course>187.04</course>
  <speed>0.6859300255857006</speed>
  <fix>3d</fix>
</trkpt>
<trkpt lat="33.8103106" lon="-118.3938695">
  <ele>-0.115</ele>
  <time>2026-09-02T22:07:31Z</time>
  <course>187.04</course>
  <speed>0.6859300255857006</speed>
  <fix>3d</fix>
</trkpt>
<trkpt lat="33.8103105" lon="-118.3938695">
  <ele>-0.116</ele>
  <time>2026-09-02T22:07:31Z</time>
  <course>187.04</course>
  <speed>0.6859300255857006</speed>
  <fix>3d</fix>
</trkpt>
<trkpt lat="33.8103105" lon="-118.3938696">
  <ele>-0.117</ele>
  <time>2026-09-02T22:07:31Z</time>
  <course>187.04</course>
  <speed>0.6931089380465383</speed>
  <fix>3d</fix>
</trkpt>
<trkpt lat="33.8103105" lon="-118.3938696">
  <ele>-0.118</ele>
  <time>2026-09-02T22:07:31Z</time>
  <course>187.04</course>
  <speed>0.6931089380465383</speed>
  <fix>3d</fix>
</trkpt>
<trkpt lat="33.8103104" lon="-118.3938697">
  <ele>-0.118</ele>
  <time>2026-09-02T22:07:31Z</time>
  <course>187.04</course>
  <speed>0.6931089380465383</speed>
  <fix>3d</fix>
</trkpt>
<trkpt lat="33.8103104" lon="-118.3938697">
  <ele>-0.119</ele>
  <time>2026-09-02T22:07:31Z</time>
  <course>187.04</course>
  <speed>0.6931089380465383</speed>
  <fix>3d</fix>
</trkpt>
<trkpt lat="33.8103103" lon="-118.3938698">
  <ele>-0.12</ele>
  <time>2026-09-02T22:07:31Z</time>
  <course>187.04</course>
  <speed>0.6931089380465383</speed>
  <fix>3d</fix>
</trkpt>
<trkpt lat="33.8103103" lon="-118.3938699">
  <ele>-0.121</ele>
  <time>2026-09-02T22:07:31Z</time>
  <course>187.03</course>
  <speed>0.7000714249274855</speed>
  <fix>3d</fix>
</trkpt>
<trkpt lat="33.8103102" lon="-118.3938699">
  <ele>-0.122</ele>
  <time>2026-09-02T22:07:31Z</time>
  <course>187.03</course>
  <speed>0.7000714249274855</speed>
  <fix>3d</fix>
</trkpt>
<trkpt lat="33.8103112" lon="-118.3938685">
  <ele>-0.09</ele>
  <time>2026-09-02T22:07:31Z</time>
  <course>221.97</course>
  <speed>0.65</speed>
  <fix>3d</fix>
</trkpt>
<trkpt lat="33.8103102" lon="-118.3938699">
  <ele>-0.122</ele>
  <time>2026-09-02T22:07:31Z</time>
  <course>187.03</course>
  <speed>0.7000714249274855</speed>
  <fix>3d</fix>
</trkpt>
<trkpt lat="33.8103101" lon="-118.39387">
  <ele>-0.124</ele>
  <time>2026-09-02T22:07:31Z</time>
  <course>187.03</course>
  <speed>0.7000714249274855</speed>
  <fix>3d</fix>
</trkpt>
<trkpt lat="33.8103101" lon="-118.3938701">
  <ele>-0.125</ele>
  <time>2026-09-02T22:07:31Z</time>
  <course>187.03</course>
  <speed>0.7000714249274855</speed>
  <fix>3d</fix>
</trkpt>
<trkpt lat="33.81031" lon="-118.3938701">
  <ele>-0.125</ele>
  <time>2026-09-02T22:07:31Z</time>
  <course>187.03</course>
  <speed>0.7000714249274855</speed>
  <fix>3d</fix>
</trkpt>
<trkpt lat="33.81031" lon="-118.3938702">
  <ele>-0.126</ele>
  <time>2026-09-02T22:07:31Z</time>
  <course>187.03</course>
  <speed>0.7000714249274855</speed>
  <fix>3d</fix>
</trkpt>
<trkpt lat="33.81031" lon="-118.3938702">
  <ele>-0.126</ele>
  <time>2026-09-02T22:07:31Z</time>
  <course>187.03</course>
  <speed>0.7000714249274855</speed>
  <fix>3d</fix>
</trkpt>
<trkpt lat="33.8103099" lon="-118.3938702">
  <ele>-0.127</ele>
  <time>2026-09-02T22:07:31Z</time>
  <course>187.03</course>
  <speed>0.7000714249274855</speed>
  <fix>3d</fix>
</trkpt>
<trkpt lat="33.8103099" lon="-118.3938703">
  <ele>-0.127</ele>
  <time>2026-09-02T22:07:31Z</time>
  <course>187.03</course>
  <speed>0.7000714249274855</speed>
  <fix>3d</fix>
</trkpt>
<trkpt lat="33.8103099" lon="-118.3938703">
  <ele>-0.127</ele>
  <time>2026-09-02T22:07:31Z</time>
  <course>187.03</course>
  <speed>0.7000714249274855</speed>
  <fix>3d</fix>
</trkpt>
<trkpt lat="33.8103098" lon="-118.3938704">
  <ele>-0.128</ele>
  <time>2026-09-02T22:07:31Z</time>
  <course>187.03</course>
  <speed>0.7000714249274855</speed>
  <fix>3d</fix>
</trkpt>
<trkpt lat="33.8103098" lon="-118.3938704">
  <ele>-0.128</ele>
  <time>2026-09-02T22:07:31Z</time>
  <course>187.02</course>
  <speed>0.7000714249274855</speed>
  <fix>3d</fix>
</trkpt>
<trkpt lat="33.8103098" lon="-118.3938704">
  <ele>-0.128</ele>
  <time>2026-09-02T22:07:31Z</time>
  <course>187.02</course>
  <speed>0.7000714249274855</speed>
  <fix>3d</fix>
</trkpt>
<trkpt lat="33.8103104" lon="-118.3938695">
  <ele>-0.1</ele>
  <time>2026-09-02T22:07:31Z</time>
  <course>222.83</course>
  <speed>0.7</speed>
  <fix>3d</fix>
</trkpt>
<trkpt lat="33.8103098" lon="-118.3938704">
  <ele>-0.128</ele>
  <time>2026-09-02T22:07:31Z</time>
  <course>187.02</course>
  <speed>0.7000714249274855</speed>
  <fix>3d</fix>
</trkpt>
<trkpt lat="33.8103097" lon="-118.3938705">
  <ele>-0.129</ele>
  <time>2026-09-02T22:07:31Z</time>
  <course>187.02</course>
  <speed>0.7000714249274855</speed>
  <fix>3d</fix>
</trkpt>
<trkpt lat="33.8103097" lon="-118.3938705">
  <ele>-0.129</ele>
  <time>2026-09-02T22:07:31Z</time>
  <course>187.02</course>
  <speed>0.7000714249274855</speed>
  <fix>3d</fix>
</trkpt>
<trkpt lat="33.8103096" lon="-118.3938705">
  <ele>-0.129</ele>
  <time>2026-09-02T22:07:31Z</time>
  <course>187.02</course>
  <speed>0.7000714249274855</speed>
  <fix>3d</fix>
</trkpt>
<trkpt lat="33.8103096" lon="-118.3938706">
  <ele>-0.13</ele>
  <time>2026-09-02T22:07:31Z</time>
  <course>187.02</course>
  <speed>0.7000714249274855</speed>
  <fix>3d</fix>
</trkpt>
<trkpt lat="33.8103096" lon="-118.3938706">
  <ele>-0.13</ele>
  <time>2026-09-02T22:07:31Z</time>
  <course>187.02</course>
  <speed>0.7000714249274855</speed>
  <fix>3d</fix>
</trkpt>
<trkpt lat="33.8103095" lon="-118.3938707">
  <ele>-0.13</ele>
  <time>2026-09-02T22:07:31Z</time>
  <course>187.02</course>
  <speed>0.7000714249274855</speed>
  <fix>3d</fix>
</trkpt>
<trkpt lat="33.8103095" lon="-118.3938707">
  <ele>-0.13</ele>
  <time>2026-09-02T22:07:31Z</time>
  <course>187.02</course>
  <speed>0.7000714249274855</speed>
  <fix>3d</fix>
</trkpt>
<trkpt lat="33.8103094" lon="-118.3938708">
  <ele>-0.13</ele>
  <time>2026-09-02T22:07:31Z</time>
  <course>187.02</course>
  <speed>0.7000714249274855</speed>
  <fix>3d</fix>
</trkpt>
<trkpt lat="33.8103094" lon="-118.3938708">
  <ele>-0.13</ele>
  <time>2026-09-02T22:07:31Z</time>
  <course>187.02</course>
  <speed>0.7000714249274855</speed>
  <fix>3d</fix>
</trkpt>
<trkpt lat="33.8103094" lon="-118.3938708">
  <ele>-0.13</ele>
  <time>2026-09-02T22:07:31Z</time>
  <course>187.02</course>
  <speed>0.7000714249274855</speed>
  <fix>3d</fix>
</trkpt>
<trkpt lat="33.8103093" lon="-118.3938709">
  <ele>-0.13</ele>
  <time>2026-09-02T22:07:31Z</time>
  <course>187.02</course>
  <speed>0.7000714249274855</speed>
  <fix>3d</fix>
</trkpt>
<trkpt lat="33.8103093" lon="-118.3938709">
  <ele>-0.13</ele>
  <time>2026-09-02T22:07:31Z</time>
  <course>187.02</course>
  <speed>0.7000714249274855</speed>
  <fix>3d</fix>
</trkpt>
<trkpt lat="33.8103104" lon="-118.3938695">
  <ele>-0.1</ele>
  <time>2026-09-02T22:07:31Z</time>
  <course>222.83</course>
  <speed>0.7</speed>
  <fix>3d</fix>
</trkpt>
<trkpt lat="33.8103093" lon="-118.3938709">
  <ele>-0.13</ele>
  <time>2026-09-02T22:07:31Z</time>
  <course>187.02</course>
  <speed>0.7000714249274855</speed>
  <fix>3d</fix>
</trkpt>
<trkpt lat="33.8103092" lon="-118.3938711">
  <ele>-0.13</ele>
  <time>2026-09-02T22:07:31Z</time>
  <course>187.01</course>
  <speed>0.7000714249274855</speed>
  <fix>3d</fix>
</trkpt>
<trkpt lat="33.8103091" lon="-118.3938711">
  <ele>-0.13</ele>
  <time>2026-09-02T22:07:31Z</time>
  <course>187.01</course>
  <speed>0.7000714249274855</speed>
  <fix>3d</fix>
</trkpt>
<trkpt lat="33.8103091" lon="-118.3938712">
  <ele>-0.13</ele>
  <time>2026-09-02T22:07:31Z</time>
  <course>187.01</course>
  <speed>0.7000714249274855</speed>
  <fix>3d</fix>
</trkpt>
<trkpt lat="33.810309" lon="-118.3938712">
  <ele>-0.129</ele>
  <time>2026-09-02T22:07:31Z</time>
  <course>187.01</course>
  <speed>0.7000714249274855</speed>
  <fix>3d</fix>
</trkpt>
<trkpt lat="33.810309" lon="-118.3938713">
  <ele>-0.129</ele>
  <time>2026-09-02T22:07:31Z</time>
  <course>187.01</course>
  <speed>0.7071067811865476</speed>
  <fix>3d</fix>
</trkpt>
<trkpt lat="33.810309" lon="-118.3938713">
  <ele>-0.129</ele>
  <time>2026-09-02T22:07:31Z</time>
  <course>187.01</course>
  <speed>0.7071067811865476</speed>
  <fix>3d</fix>
</trkpt>
<trkpt lat="33.8103089" lon="-118.3938713">
  <ele>-0.128</ele>
  <time>2026-09-02T22:07:31Z</time>
  <course>187.01</course>
  <speed>0.7071067811865476</speed>
  <fix>3d</fix>
</trkpt>
<trkpt lat="33.8103089" lon="-118.3938714">
  <ele>-0.128</ele>
  <time>2026-09-02T22:07:31Z</time>
  <course>187.01</course>
  <speed>0.7071067811865476</speed>
  <fix>3d</fix>
</trkpt>
<trkpt lat="33.8103089" lon="-118.3938714">
  <ele>-0.127</ele>
  <time>2026-09-02T22:07:31Z</time>
  <course>187.01</course>
  <speed>0.7071067811865476</speed>
  <fix>3d</fix>
</trkpt>
<trkpt lat="33.8103089" lon="-118.3938714">
  <ele>-0.127</ele>
  <time>2026-09-02T22:07:31Z</time>
  <course>187.01</course>
  <speed>0.7071067811865476</speed>
  <fix>3d</fix>
</trkpt>
<trkpt lat="33.8103094" lon="-118.3938706">
  <ele>-0.11</ele>
  <time>2026-09-02T22:07:31Z</time>
  <course>223.12</course>
  <speed>0.72</speed>
  <fix>3d</fix>
</trkpt>
<trkpt lat="33.8103088" lon="-118.3938715">
  <ele>-0.127</ele>
  <time>2026-09-02T22:07:31Z</time>
  <course>187.01</course>
  <speed>0.7071067811865476</speed>
  <fix>3d</fix>
</trkpt>
<trkpt lat="33.8103087" lon="-118.3938716">
  <ele>-0.126</ele>
  <time>2026-09-02T22:07:31Z</time>
  <course>187.01</course>
  <speed>0.7071067811865476</speed>
  <fix>3d</fix>
</trkpt>
<trkpt lat="33.8103087" lon="-118.3938716">
  <ele>-0.125</ele>
  <time>2026-09-02T22:07:31Z</time>
  <course>187.01</course>
  <speed>0.7071067811865476</speed>
  <fix>3d</fix>
</trkpt>
<trkpt lat="33.8103086" lon="-118.3938717">
  <ele>-0.125</ele>
  <time>2026-09-02T22:07:31Z</time>
  <course>187.01</course>
  <speed>0.7071067811865476</speed>
  <fix>3d</fix>
</trkpt>
<trkpt lat="33.8103086" lon="-118.3938717">
  <ele>-0.124</ele>
  <time>2026-09-02T22:07:31Z</time>
  <course>187.01</course>
  <speed>0.7071067811865476</speed>
  <fix>3d</fix>
</trkpt>
<trkpt lat="33.8103085" lon="-118.3938718">
  <ele>-0.123</ele>
  <time>2026-09-02T22:07:31Z</time>
  <course>187.01</course>
  <speed>0.7071067811865476</speed>
  <fix>3d</fix>
</trkpt>
<trkpt lat="33.8103085" lon="-118.3938718">
  <ele>-0.122</ele>
  <time>2026-09-02T22:07:31Z</time>
  <course>187.0</course>
  <speed>0.7071067811865476</speed>
  <fix>3d</fix>
</trkpt>
<trkpt lat="33.8103084" lon="-118.3938719">
  <ele>-0.121</ele>
  <time>2026-09-02T22:07:31Z</time>
  <course>187.0</course>
  <speed>0.7071067811865476</speed>
  <fix>3d</fix>
</trkpt>
<trkpt lat="33.8103084" lon="-118.3938719">
  <ele>-0.12</ele>
  <time>2026-09-02T22:07:31Z</time>
  <course>187.0</course>
  <speed>0.7071067811865476</speed>
  <fix>3d</fix>
</trkpt>
<trkpt lat="33.8103084" lon="-118.393872">
  <ele>-0.12</ele>
  <time>2026-09-02T22:07:31Z</time>
  <course>187.0</course>
  <speed>0.7071067811865476</speed>
  <fix>3d</fix>
</trkpt>
<trkpt lat="33.8103094" lon="-118.3938706">
  <ele>-0.11</ele>
  <time>2026-09-02T22:07:31Z</time>
  <course>223.12</course>
  <speed>0.72</speed>
  <fix>3d</fix>
</trkpt>
<trkpt lat="33.8103084" lon="-118.393872">
  <ele>-0.12</ele>
  <time>2026-09-02T22:07:31Z</time>
  <course>187.0</course>
  <speed>0.7071067811865476</speed>
  <fix>3d</fix>
</trkpt>
<trkpt lat="33.8103083" lon="-118.393872">
  <ele>-0.119</ele>
  <time>2026-09-02T22:07:31Z</time>
  <course>187.0</course>
  <speed>0.7071067811865476</speed>
  <fix>3d</fix>
</trkpt>
<trkpt lat="33.8103083" lon="-118.3938721">
  <ele>-0.118</ele>
  <time>2026-09-02T22:07:31Z</time>
  <course>187.0</course>
  <speed>0.7071067811865476</speed>
  <fix>3d</fix>
</trkpt>
<trkpt lat="33.8103082" lon="-118.3938721">
  <ele>-0.117</ele>
  <time>2026-09-02T22:07:31Z</time>
  <course>187.0</course>
  <speed>0.7071067811865476</speed>
  <fix>3d</fix>
</trkpt>
<trkpt lat="33.8103082" lon="-118.3938721">
  <ele>-0.117</ele>
  <time>2026-09-02T22:07:31Z</time>
  <course>187.0</course>
  <speed>0.7071067811865476</speed>
  <fix>3d</fix>
</trkpt>
<trkpt lat="33.8103082" lon="-118.3938722">
  <ele>-0.116</ele>
  <time>2026-09-02T22:07:31Z</time>
  <course>187.0</course>
  <speed>0.7071067811865476</speed>
  <fix>3d</fix>
</trkpt>
<trkpt lat="33.8103081" lon="-118.3938723">
  <ele>-0.115</ele>
  <time>2026-09-02T22:07:31Z</time>
  <course>187.0</course>
  <speed>0.7071067811865476</speed>
  <fix>3d</fix>
</trkpt>
<trkpt lat="33.8103081" lon="-118.3938723">
  <ele>-0.114</ele>
  <time>2026-09-02T22:07:31Z</time>
  <course>187.0</course>
  <speed>0.7071067811865476</speed>
  <fix>3d</fix>
</trkpt>
<trkpt lat="33.810308" lon="-118.3938724">
  <ele>-0.113</ele>
  <time>2026-09-02T22:07:31Z</time>
  <course>187.0</course>
  <speed>0.7071067811865476</speed>
  <fix>3d</fix>
</trkpt>
<trkpt lat="33.8103079" lon="-118.3938724">
  <ele>-0.112</ele>
  <time>2026-09-02T22:07:31Z</time>
  <course>187.0</course>
  <speed>0.7071067811865476</speed>
  <fix>3d</fix>
</trkpt>
<trkpt lat="33.8103079" lon="-118.3938725">
  <ele>-0.112</ele>
  <time>2026-09-02T22:07:31Z</time>
  <course>187.0</course>
  <speed>0.7071067811865476</speed>
  <fix>3d</fix>
</trkpt>
<trkpt lat="33.8103085" lon="-118.3938716">
  <ele>-0.11</ele>
  <time>2026-09-02T22:07:31Z</time>
  <course>223.21</course>
  <speed>0.73</speed>
  <fix>3d</fix>
</trkpt>
<trkpt lat="33.8103079" lon="-118.3938725">
  <ele>-0.111</ele>
  <time>2026-09-02T22:07:31Z</time>
  <course>187.0</course>
  <speed>0.7071067811865476</speed>
  <fix>3d</fix>
</trkpt>
<trkpt lat="33.8103078" lon="-118.3938726">
  <ele>-0.11</ele>
  <time>2026-09-02T22:07:31Z</time>
  <course>187.0</course>
  <speed>0.7071067811865476</speed>
  <fix>3d</fix>
</trkpt>
<trkpt lat="33.8103078" lon="-118.3938726">
  <ele>-0.11</ele>
  <time>2026-09-02T22:07:31Z</time>
  <course>186.99</course>
  <speed>0.7071067811865476</speed>
  <fix>3d</fix>
</trkpt>
<trkpt lat="33.8103077" lon="-118.3938727">
  <ele>-0.109</ele>
  <time>2026-09-02T22:07:31Z</time>
  <course>186.99</course>
  <speed>0.7071067811865476</speed>
  <fix>3d</fix>
</trkpt>
<trkpt lat="33.8103077" lon="-118.3938727">
  <ele>-0.108</ele>
  <time>2026-09-02T22:07:31Z</time>
  <course>186.99</course>
  <speed>0.7071067811865476</speed>
  <fix>3d</fix>
</trkpt>
<trkpt lat="33.8103077" lon="-118.3938727">
  <ele>-0.108</ele>
  <time>2026-09-02T22:07:31Z</time>
  <course>186.99</course>
  <speed>0.7071067811865476</speed>
  <fix>3d</fix>
</trkpt>
<trkpt lat="33.8103076" lon="-118.3938728">
  <ele>-0.107</ele>
  <time>2026-09-02T22:07:31Z</time>
  <course>186.99</course>
  <speed>0.7071067811865476</speed>
  <fix>3d</fix>
</trkpt>
<trkpt lat="33.8103076" lon="-118.3938728">
  <ele>-0.107</ele>
  <time>2026-09-02T22:07:31Z</time>
  <course>186.99</course>
  <speed>0.7071067811865476</speed>
  <fix>3d</fix>
</trkpt>
<trkpt lat="33.8103076" lon="-118.3938729">
  <ele>-0.107</ele>
  <time>2026-09-02T22:07:31Z</time>
  <course>186.99</course>
  <speed>0.7071067811865476</speed>
  <fix>3d</fix>
</trkpt>
<trkpt lat="33.8103075" lon="-118.3938729">
  <ele>-0.106</ele>
  <time>2026-09-02T22:07:31Z</time>
  <course>186.99</course>
  <speed>0.7071067811865476</speed>
  <fix>3d</fix>
</trkpt>
<trkpt lat="33.8103075" lon="-118.393873">
  <ele>-0.105</ele>
  <time>2026-09-02T22:07:31Z</time>
  <course>186.99</course>
  <speed>0.7071067811865476</speed>
  <fix>3d</fix>
</trkpt>
<trkpt lat="33.8103074" lon="-118.393873">
  <ele>-0.105</ele>
  <time>2026-09-02T22:07:31Z</time>
  <course>186.99</course>
  <speed>0.7071067811865476</speed>
  <fix>3d</fix>
</trkpt>
<trkpt lat="33.8103085" lon="-118.3938716">
  <ele>-0.11</ele>
  <time>2026-09-02T22:07:31Z</time>
  <course>223.21</course>
  <speed>0.73</speed>
  <fix>3d</fix>
</trkpt>
<trkpt lat="33.8103074" lon="-118.393873">
  <ele>-0.105</ele>
  <time>2026-09-02T22:07:31Z</time>
  <course>186.99</course>
  <speed>0.7071067811865476</speed>
  <fix>3d</fix>
</trkpt>
<trkpt lat="33.8103074" lon="-118.3938731">
  <ele>-0.104</ele>
  <time>2026-09-02T22:07:31Z</time>
  <course>186.99</course>
  <speed>0.7071067811865476</speed>
  <fix>3d</fix>
</trkpt>
<trkpt lat="33.8103073" lon="-118.3938732">
  <ele>-0.103</ele>
  <time>2026-09-02T22:07:31Z</time>
  <course>186.99</course>
  <speed>0.7071067811865476</speed>
  <fix>3d</fix>
</trkpt>
<trkpt lat="33.8103072" lon="-118.3938732">
  <ele>-0.103</ele>
  <time>2026-09-02T22:07:31Z</time>
  <course>186.99</course>
  <speed>0.7071067811865476</speed>
  <fix>3d</fix>
</trkpt>
<trkpt lat="33.8103072" lon="-118.3938733">
  <ele>-0.103</ele>
  <time>2026-09-02T22:07:31Z</time>
  <course>186.99</course>
  <speed>0.7071067811865476</speed>
  <fix>3d</fix>
</trkpt>
<trkpt lat="33.8103071" lon="-118.3938733">
  <ele>-0.103</ele>
  <time>2026-09-02T22:07:31Z</time>
  <course>186.99</course>
  <speed>0.7071067811865476</speed>
  <fix>3d</fix>
</trkpt>
<trkpt lat="33.8103071" lon="-118.3938734">
  <ele>-0.102</ele>
  <time>2026-09-02T22:07:31Z</time>
  <course>186.99</course>
  <speed>0.7071067811865476</speed>
  <fix>3d</fix>
</trkpt>
<trkpt lat="33.810307" lon="-118.3938734">
  <ele>-0.102</ele>
  <time>2026-09-02T22:07:31Z</time>
  <course>186.99</course>
  <speed>0.7142128534267639</speed>
  <fix>3d</fix>
</trkpt>
<trkpt lat="33.810307" lon="-118.3938735">
  <ele>-0.101</ele>
  <time>2026-09-02T22:07:31Z</time>
  <course>186.99</course>
  <speed>0.7142128534267639</speed>
  <fix>3d</fix>
</trkpt>
<trkpt lat="33.810307" lon="-118.3938735">
  <ele>-0.101</ele>
  <time>2026-09-02T22:07:31Z</time>
  <course>186.98</course>
  <speed>0.7142128534267639</speed>
  <fix>3d</fix>
</trkpt>
<trkpt lat="33.8103075" lon="-118.3938727">
  <ele>-0.1</ele>
  <time>2026-09-02T22:07:31Z</time>
  <course>223.25</course>
  <speed>0.73</speed>
  <fix>3d</fix>
</trkpt>
<trkpt lat="33.8103069" lon="-118.3938735">
  <ele>-0.101</ele>
  <time>2026-09-02T22:07:31Z</time>
  <course>186.98</course>
  <speed>0.7142128534267639</speed>
  <fix>3d</fix>
</trkpt>
<trkpt lat="33.8103069" lon="-118.3938736">
  <ele>-0.101</ele>
  <time>2026-09-02T22:07:31Z</time>
  <course>186.98</course>
  <speed>0.7142128534267639</speed>
  <fix>3d</fix>
</trkpt>
<trkpt lat="33.8103068" lon="-118.3938737">
  <ele>-0.101</ele>
  <time>2026-09-02T22:07:31Z</time>
  <course>186.98</course>
  <speed>0.7142128534267639</speed>
  <fix>3d</fix>
</trkpt>
<trkpt lat="33.8103068" lon="-118.3938737">
  <ele>-0.101</ele>
  <time>2026-09-02T22:07:31Z</time>
  <course>186.98</course>
  <speed>0.7142128534267639</speed>
  <fix>3d</fix>
</trkpt>
<trkpt lat="33.8103067" lon="-118.3938738">
  <ele>-0.101</ele>
  <time>2026-09-02T22:07:31Z</time>
  <course>186.98</course>
  <speed>0.7142128534267639</speed>
  <fix>3d</fix>
</trkpt>
<trkpt lat="33.8103067" lon="-118.3938738">
  <ele>-0.101</ele>
  <time>2026-09-02T22:07:31Z</time>
  <course>186.98</course>
  <speed>0.7142128534267639</speed>
  <fix>3d</fix>
</trkpt>
<trkpt lat="33.8103067" lon="-118.3938739">
  <ele>-0.101</ele>
  <time>2026-09-02T22:07:31Z</time>
  <course>186.98</course>
  <speed>0.7142128534267639</speed>
  <fix>3d</fix>
</trkpt>
<trkpt lat="33.8103066" lon="-118.3938739">
  <ele>-0.101</ele>
  <time>2026-09-02T22:07:31Z</time>
  <course>186.98</course>
  <speed>0.7142128534267639</speed>
  <fix>3d</fix>
</trkpt>
<trkpt lat="33.8103066" lon="-118.3938739">
  <ele>-0.102</ele>
  <time>2026-09-02T22:07:31Z</time>
  <course>186.98</course>
  <speed>0.7142128534267639</speed>
  <fix>3d</fix>
</trkpt>
<trkpt lat="33.8103065" lon="-118.393874">
  <ele>-0.102</ele>
  <time>2026-09-02T22:07:31Z</time>
  <course>186.98</course>
  <speed>0.7142128534267639</speed>
  <fix>3d</fix>
</trkpt>
<trkpt lat="33.8103065" lon="-118.393874">
  <ele>-0.102</ele>
  <time>2026-09-02T22:07:31Z</time>
  <course>186.98</course>
  <speed>0.7072481884034769</speed>
  <fix>3d</fix>
</trkpt>
<trkpt lat="33.8103065" lon="-118.393874">
  <ele>-0.102</ele>
  <time>2026-09-02T22:07:31Z</time>
  <course>186.98</course>
  <speed>0.7072481884034769</speed>
  <fix>3d</fix>
</trkpt>
<trkpt lat="33.8103065" lon="-118.393874">
  <ele>-0.102</ele>
  <time>2026-09-02T22:07:31Z</time>
  <course>186.98</course>
  <speed>0.7072481884034769</speed>
  <fix>3d</fix>
</trkpt>
<trkpt lat="33.8103075" lon="-118.3938727">
  <ele>-0.1</ele>
  <time>2026-09-02T22:07:31Z</time>
  <course>223.25</course>
  <speed>0.73</speed>
  <fix>3d</fix>
</trkpt>
<trkpt lat="33.8103065" lon="-118.3938741">
  <ele>-0.102</ele>
  <time>2026-09-02T22:07:31Z</time>
  <course>186.98</course>
  <speed>0.7072481884034769</speed>
  <fix>3d</fix>
</trkpt>
<trkpt lat="33.8103064" lon="-118.3938741">
  <ele>-0.103</ele>
  <time>2026-09-02T22:07:31Z</time>
  <course>186.98</course>
  <speed>0.7072481884034769</speed>
  <fix>3d</fix>
</trkpt>
<trkpt lat="33.8103064" lon="-118.3938742">
  <ele>-0.103</ele>
  <time>2026-09-02T22:07:31Z</time>
  <course>186.98</course>
  <speed>0.7072481884034769</speed>
  <fix>3d</fix>
</trkpt>
<trkpt lat="33.8103063" lon="-118.3938742">
  <ele>-0.104</ele>
  <time>2026-09-02T22:07:31Z</time>
  <course>186.98</course>
  <speed>0.7072481884034769</speed>
  <fix>3d</fix>
</trkpt>
<trkpt lat="33.8103063" lon="-118.3938743">
  <ele>-0.104</ele>
  <time>2026-09-02T22:07:31Z</time>
  <course>186.98</course>
  <speed>0.7072481884034769</speed>
  <fix>3d</fix>
</trkpt>
<trkpt lat="33.8103062" lon="-118.3938743">
  <ele>-0.104</ele>
  <time>2026-09-02T22:07:31Z</time>
  <course>186.98</course>
  <speed>0.7072481884034769</speed>
  <fix>3d</fix>
</trkpt>
<trkpt lat="33.8103062" lon="-118.3938743">
  <ele>-0.105</ele>
  <time>2026-09-02T22:07:31Z</time>
  <course>186.98</course>
  <speed>0.7072481884034769</speed>
  <fix>3d</fix>
</trkpt>
<trkpt lat="33.8103062" lon="-118.3938744">
  <ele>-0.105</ele>
  <time>2026-09-02T22:07:31Z</time>
  <course>186.98</course>
  <speed>0.7072481884034769</speed>
  <fix>3d</fix>
</trkpt>
<trkpt lat="33.8103061" lon="-118.3938744">
  <ele>-0.106</ele>
  <time>2026-09-02T22:07:31Z</time>
  <course>186.98</course>
  <speed>0.7072481884034769</speed>
  <fix>3d</fix>
</trkpt>
<trkpt lat="33.8103061" lon="-118.3938745">
  <ele>-0.106</ele>
  <time>2026-09-02T22:07:31Z</time>
  <course>186.98</course>
  <speed>0.7072481884034769</speed>
  <fix>3d</fix>
</trkpt>
<trkpt lat="33.8103061" lon="-118.3938745">
  <ele>-0.107</ele>
  <time>2026-09-02T22:07:31Z</time>
  <course>186.98</course>
  <speed>0.7072481884034769</speed>
  <fix>3d</fix>
</trkpt>
<trkpt lat="33.810306" lon="-118.3938745">
  <ele>-0.108</ele>
  <time>2026-09-02T22:07:31Z</time>
  <course>186.98</course>
  <speed>0.7072481884034769</speed>
  <fix>3d</fix>
</trkpt>
<trkpt lat="33.810306" lon="-118.3938746">
  <ele>-0.108</ele>
  <time>2026-09-02T22:07:31Z</time>
  <course>186.98</course>
  <speed>0.7072481884034769</speed>
  <fix>3d</fix>
</trkpt>
<trkpt lat="33.8103065" lon="-118.3938738">
  <ele>-0.09</ele>
  <time>2026-09-02T22:07:31Z</time>
  <course>223.26</course>
  <speed>0.73</speed>
  <fix>3d</fix>
</trkpt>
<trkpt lat="33.810306" lon="-118.3938746">
  <ele>-0.108</ele>
  <time>2026-09-02T22:07:31Z</time>
  <course>186.97</course>
  <speed>0.7072481884034769</speed>
  <fix>3d</fix>
</trkpt>
<trkpt lat="33.8103059" lon="-118.3938747">
  <ele>-0.11</ele>
  <time>2026-09-02T22:07:31Z</time>
  <course>186.97</course>
  <speed>0.7072481884034769</speed>
  <fix>3d</fix>
</trkpt>
<trkpt lat="33.8103058" lon="-118.3938748">
  <ele>-0.111</ele>
  <time>2026-09-02T22:07:31Z</time>
  <course>186.97</course>
  <speed>0.7072481884034769</speed>
  <fix>3d</fix>
</trkpt>
<trkpt lat="33.8103058" lon="-118.3938748">
  <ele>-0.112</ele>
  <time>2026-09-02T22:07:31Z</time>
  <course>186.97</course>
  <speed>0.7072481884034769</speed>
  <fix>3d</fix>
</trkpt>
<trkpt lat="33.8103057" lon="-118.3938749">
  <ele>-0.112</ele>
  <time>2026-09-02T22:07:31Z</time>
  <course>186.97</course>
  <speed>0.7072481884034769</speed>
  <fix>3d</fix>
</trkpt>
<trkpt lat="33.8103057" lon="-118.3938749">
  <ele>-0.113</ele>
  <time>2026-09-02T22:07:31Z</time>
  <course>186.97</course>
  <speed>0.7072481884034769</speed>
  <fix>3d</fix>
</trkpt>
<trkpt lat="33.8103056" lon="-118.393875">
  <ele>-0.113</ele>
  <time>2026-09-02T22:07:31Z</time>
  <course>186.97</course>
  <speed>0.7072481884034769</speed>
  <fix>3d</fix>
</trkpt>
<trkpt lat="33.8103056" lon="-118.393875">
  <ele>-0.114</ele>
  <time>2026-09-02T22:07:31Z</time>
  <course>186.97</course>
  <speed>0.7072481884034769</speed>
  <fix>3d</fix>
</trkpt>
<trkpt lat="33.8103056" lon="-118.393875">
  <ele>-0.114</ele>
  <time>2026-09-02T22:07:31Z</time>
  <course>186.97</course>
  <speed>0.7072481884034769</speed>
  <fix>3d</fix>
</trkpt>
<trkpt lat="33.8103055" lon="-118.3938751">
  <ele>-0.115</ele>
  <time>2026-09-02T22:07:31Z</time>
  <course>186.97</course>
  <speed>0.7072481884034769</speed>
  <fix>3d</fix>
</trkpt>
<trkpt lat="33.8103055" lon="-118.3938751">
  <ele>-0.115</ele>
  <time>2026-09-02T22:07:31Z</time>
  <course>186.97</course>
  <speed>0.7072481884034769</speed>
  <fix>3d</fix>
</trkpt>
<trkpt lat="33.8103065" lon="-118.3938738">
  <ele>-0.09</ele>
  <time>2026-09-02T22:07:31Z</time>
  <course>223.26</course>
  <speed>0.73</speed>
  <fix>3d</fix>
</trkpt>
<trkpt lat="33.8103055" lon="-118.3938751">
  <ele>-0.115</ele>
  <time>2026-09-02T22:07:31Z</time>
  <course>186.97</course>
  <speed>0.7072481884034769</speed>
  <fix>3d</fix>
</trkpt>
<trkpt lat="33.8103054" lon="-118.3938752">
  <ele>-0.116</ele>
  <time>2026-09-02T22:07:31Z</time>
  <course>186.97</course>
  <speed>0.7072481884034769</speed>
  <fix>3d</fix>
</trkpt>
<trkpt lat="33.8103054" lon="-118.3938753">
  <ele>-0.117</ele>
  <time>2026-09-02T22:07:31Z</time>
  <course>186.97</course>
  <speed>0.7072481884034769</speed>
  <fix>3d</fix>
</trkpt>
<trkpt lat="33.8103053" lon="-118.3938753">
  <ele>-0.117</ele>
  <time>2026-09-02T22:07:31Z</time>
  <course>186.97</course>
  <speed>0.7072481884034769</speed>
  <fix>3d</fix>
</trkpt>
<trkpt lat="33.8103053" lon="-118.3938754">
  <ele>-0.118</ele>
  <time>2026-09-02T22:07:31Z</time>
  <course>186.97</course>
  <speed>0.7072481884034769</speed>
  <fix>3d</fix>
</trkpt>
<trkpt lat="33.8103052" lon="-118.3938754">
  <ele>-0.118</ele>
  <time>2026-09-02T22:07:31Z</time>
  <course>186.97</course>
  <speed>0.7072481884034769</speed>
  <fix>3d</fix>
</trkpt>
<trkpt lat="33.8103052" lon="-118.3938755">
  <ele>-0.119</ele>
  <time>2026-09-02T22:07:31Z</time>
  <course>186.97</course>
  <speed>0.7072481884034769</speed>
  <fix>3d</fix>
</trkpt>
<trkpt lat="33.8103051" lon="-118.3938755">
  <ele>-0.119</ele>
  <time>2026-09-02T22:07:31Z</time>
  <course>186.97</course>
  <speed>0.7072481884034769</speed>
  <fix>3d</fix>
</trkpt>
<trkpt lat="33.8103051" lon="-118.3938756">
  <ele>-0.12</ele>
  <time>2026-09-02T22:07:31Z</time>
  <course>186.97</course>
  <speed>0.7072481884034769</speed>
  <fix>3d</fix>
</trkpt>
<trkpt lat="33.8103051" lon="-118.3938756">
  <ele>-0.12</ele>
  <time>2026-09-02T22:07:31Z</time>
  <course>186.97</course>
  <speed>0.7072481884034769</speed>
  <fix>3d</fix>
</trkpt>
<trkpt lat="33.810305" lon="-118.3938756">
  <ele>-0.121</ele>
  <time>2026-09-02T22:07:31Z</time>
  <course>186.97</course>
  <speed>0.7072481884034769</speed>
  <fix>3d</fix>
</trkpt>
<trkpt lat="33.810305" lon="-118.3938756">
  <ele>-0.121</ele>
  <time>2026-09-02T22:07:31Z</time>
  <course>186.97</course>
  <speed>0.7072481884034769</speed>
  <fix>3d</fix>
</trkpt>
<trkpt lat="33.8103056" lon="-118.3938749">
  <ele>-0.1</ele>
  <time>2026-09-02T22:07:31Z</time>
  <course>223.26</course>
  <speed>0.73</speed>
  <fix>3d</fix>
</trkpt>
<trkpt lat="33.8103049" lon="-118.3938757">
  <ele>-0.121</ele>
  <time>2026-09-02T22:07:31Z</time>
  <course>186.97</course>
  <speed>0.7072481884034769</speed>
  <fix>3d</fix>
</trkpt>
<trkpt lat="33.8103049" lon="-118.3938758">
  <ele>-0.122</ele>
  <time>2026-09-02T22:07:31Z</time>
  <course>186.97</course>
  <speed>0.7072481884034769</speed>
  <fix>3d</fix>
</trkpt>
<trkpt lat="33.8103049" lon="-118.3938758">
  <ele>-0.122</ele>
  <time>2026-09-02T22:07:31Z</time>
  <course>186.96</course>
  <speed>0.7072481884034769</speed>
  <fix>3d</fix>
</trkpt>
<trkpt lat="33.8103048" lon="-118.3938759">
  <ele>-0.122</ele>
  <time>2026-09-02T22:07:31Z</time>
  <course>186.96</course>
  <speed>0.7072481884034769</speed>
  <fix>3d</fix>
</trkpt>
<trkpt lat="33.8103048" lon="-118.3938759">
  <ele>-0.122</ele>
  <time>2026-09-02T22:07:31Z</time>
  <course>186.96</course>
  <speed>0.7072481884034769</speed>
  <fix>3d</fix>
</trkpt>
<trkpt lat="33.8103047" lon="-118.3938759">
  <ele>-0.123</ele>
  <time>2026-09-02T22:07:31Z</time>
  <course>186.96</course>
  <speed>0.7072481884034769</speed>
  <fix>3d</fix>
</trkpt>
<trkpt lat="33.8103047" lon="-118.393876">
  <ele>-0.123</ele>
  <time>2026-09-02T22:07:31Z</time>
  <course>186.96</course>
  <speed>0.7072481884034769</speed>
  <fix>3d</fix>
</trkpt>
<trkpt lat="33.8103047" lon="-118.393876">
  <ele>-0.123</ele>
  <time>2026-09-02T22:07:31Z</time>
  <course>186.96</course>
  <speed>0.7072481884034769</speed>
  <fix>3d</fix>
</trkpt>
<trkpt lat="33.8103046" lon="-118.3938761">
  <ele>-0.123</ele>
  <time>2026-09-02T22:07:31Z</time>
  <course>186.96</course>
  <speed>0.7144928271158499</speed>
  <fix>3d</fix>
</trkpt>
<trkpt lat="33.8103045" lon="-118.3938762">
  <ele>-0.123</ele>
  <time>2026-09-02T22:07:31Z</time>
  <course>186.96</course>
  <speed>0.7144928271158499</speed>
  <fix>3d</fix>
</trkpt>
<trkpt lat="33.8103045" lon="-118.3938762">
  <ele>-0.123</ele>
  <time>2026-09-02T22:07:31Z</time>
  <course>186.96</course>
  <speed>0.7144928271158499</speed>
  <fix>3d</fix>
</trkpt>
<trkpt lat="33.8103056" lon="-118.3938749">
  <ele>-0.1</ele>
  <time>2026-09-02T22:07:31Z</time>
  <course>223.26</course>
  <speed>0.73</speed>
  <fix>3d</fix>
</trkpt>
<trkpt lat="33.8103045" lon="-118.3938763">
  <ele>-0.124</ele>
  <time>2026-09-02T22:07:31Z</time>
  <course>186.96</course>
  <speed>0.7144928271158499</speed>
  <fix>3d</fix>
</trkpt>
<trkpt lat="33.8103044" lon="-118.3938763">
  <ele>-0.124</ele>
  <time>2026-09-02T22:07:31Z</time>
  <course>186.96</course>
  <speed>0.7144928271158499</speed>
  <fix>3d</fix>
</trkpt>
<trkpt lat="33.8103044" lon="-118.3938764">
  <ele>-0.124</ele>
  <time>2026-09-02T22:07:31Z</time>
  <course>186.96</course>
  <speed>0.7144928271158499</speed>
  <fix>3d</fix>
</trkpt>
<trkpt lat="33.8103043" lon="-118.3938764">
  <ele>-0.124</ele>
  <time>2026-09-02T22:07:31Z</time>
  <course>186.96</course>
  <speed>0.7144928271158499</speed>
  <fix>3d</fix>
</trkpt>
<trkpt lat="33.8103043" lon="-118.3938764">
  <ele>-0.124</ele>
  <time>2026-09-02T22:07:31Z</time>
  <course>186.96</course>
  <speed>0.7144928271158499</speed>
  <fix>3d</fix>
</trkpt>
<trkpt lat="33.8103043" lon="-118.3938765">
  <ele>-0.123</ele>
  <time>2026-09-02T22:07:31Z</time>
  <course>186.96</course>
  <speed>0.7144928271158499</speed>
  <fix>3d</fix>
</trkpt>
<trkpt lat="33.8103042" lon="-118.3938765">
  <ele>-0.123</ele>
  <time>2026-09-02T22:07:31Z</time>
  <course>186.96</course>
  <speed>0.7144928271158499</speed>
  <fix>3d</fix>
</trkpt>
<trkpt lat="33.8103042" lon="-118.3938766">
  <ele>-0.123</ele>
  <time>2026-09-02T22:07:31Z</time>
  <course>186.96</course>
  <speed>0.7144928271158499</speed>
  <fix>3d</fix>
</trkpt>
<trkpt lat="33.8103042" lon="-118.3938766">
  <ele>-0.123</ele>
  <time>2026-09-02T22:07:31Z</time>
  <course>186.96</course>
  <speed>0.7144928271158499</speed>
  <fix>3d</fix>
</trkpt>
<trkpt lat="33.8103041" lon="-118.3938766">
  <ele>-0.122</ele>
  <time>2026-09-02T22:07:31Z</time>
  <course>186.96</course>
  <speed>0.7144928271158499</speed>
  <fix>3d</fix>
</trkpt>
<trkpt lat="33.8103041" lon="-118.3938767">
  <ele>-0.122</ele>
  <time>2026-09-02T22:07:31Z</time>
  <course>186.96</course>
  <speed>0.7144928271158499</speed>
  <fix>3d</fix>
</trkpt>
<trkpt lat="33.810304" lon="-118.3938767">
  <ele>-0.122</ele>
  <time>2026-09-02T22:07:31Z</time>
  <course>186.96</course>
  <speed>0.7144928271158499</speed>
  <fix>3d</fix>
</trkpt>
<trkpt lat="33.8103046" lon="-118.393876">
  <ele>-0.11</ele>
  <time>2026-09-02T22:07:31Z</time>
  <course>223.26</course>
  <speed>0.73</speed>
  <fix>3d</fix>
</trkpt>
<trkpt lat="33.810304" lon="-118.3938767">
  <ele>-0.122</ele>
  <time>2026-09-02T22:07:31Z</time>
  <course>186.96</course>
  <speed>0.7144928271158499</speed>
  <fix>3d</fix>
</trkpt>
<trkpt lat="33.8103039" lon="-118.3938769">
  <ele>-0.121</ele>
  <time>2026-09-02T22:07:31Z</time>
  <course>186.96</course>
  <speed>0.7144928271158499</speed>
  <fix>3d</fix>
</trkpt>
<trkpt lat="33.8103039" lon="-118.3938769">
  <ele>-0.12</ele>
  <time>2026-09-02T22:07:31Z</time>
  <course>186.96</course>
  <speed>0.7144928271158499</speed>
  <fix>3d</fix>
</trkpt>
<trkpt lat="33.8103038" lon="-118.393877">
  <ele>-0.119</ele>
  <time>2026-09-02T22:07:31Z</time>
  <course>186.96</course>
  <speed>0.7144928271158499</speed>
  <fix>3d</fix>
</trkpt>
<trkpt lat="33.8103038" lon="-118.393877">
  <ele>-0.119</ele>
  <time>2026-09-02T22:07:31Z</time>
  <course>186.96</course>
  <speed>0.7144928271158499</speed>
  <fix>3d</fix>
</trkpt>
<trkpt lat="33.8103037" lon="-118.3938771">
  <ele>-0.118</ele>
  <time>2026-09-02T22:07:31Z</time>
  <course>186.96</course>
  <speed>0.7144928271158499</speed>
  <fix>3d</fix>
</trkpt>
<trkpt lat="33.8103037" lon="-118.3938771">
  <ele>-0.118</ele>
  <time>2026-09-02T22:07:31Z</time>
  <course>186.95</course>
  <speed>0.7144928271158499</speed>
  <fix>3d</fix>
</trkpt>
<trkpt lat="33.8103036" lon="-118.3938772">
  <ele>-0.117</ele>
  <time>2026-09-02T22:07:31Z</time>
  <course>186.95</course>
  <speed>0.7144928271158499</speed>
  <fix>3d</fix>
</trkpt>
<trkpt lat="33.8103036" lon="-118.3938772">
  <ele>-0.117</ele>
  <time>2026-09-02T22:07:31Z</time>
  <course>186.95</course>
  <speed>0.7144928271158499</speed>
  <fix>3d</fix>
</trkpt>
<trkpt lat="33.8103036" lon="-118.3938772">
  <ele>-0.116</ele>
  <time>2026-09-02T22:07:31Z</time>
  <course>186.95</course>
  <speed>0.7144928271158499</speed>
  <fix>3d</fix>
</trkpt>
<trkpt lat="33.8103036" lon="-118.3938772">
  <ele>-0.116</ele>
  <time>2026-09-02T22:07:31Z</time>
  <course>186.95</course>
  <speed>0.7144928271158499</speed>
  <fix>3d</fix>
</trkpt>
<trkpt lat="33.8103046" lon="-118.393876">
  <ele>-0.11</ele>
  <time>2026-09-02T22:07:31Z</time>
  <course>223.26</course>
  <speed>0.73</speed>
  <fix>3d</fix>
</trkpt>
<trkpt lat="33.8103036" lon="-118.3938773">
  <ele>-0.116</ele>
  <time>2026-09-02T22:07:31Z</time>
  <course>186.95</course>
  <speed>0.7144928271158499</speed>
  <fix>3d</fix>
</trkpt>
<trkpt lat="33.8103035" lon="-118.3938773">
  <ele>-0.115</ele>
  <time>2026-09-02T22:07:31Z</time>
  <course>186.95</course>
  <speed>0.7144928271158499</speed>
  <fix>3d</fix>
</trkpt>
<trkpt lat="33.8103034" lon="-118.3938774">
  <ele>-0.115</ele>
  <time>2026-09-02T22:07:31Z</time>
  <course>186.95</course>
  <speed>0.7144928271158499</speed>
  <fix>3d</fix>
</trkpt>
<trkpt lat="33.8103034" lon="-118.3938775">
  <ele>-0.114</ele>
  <time>2026-09-02T22:07:31Z</time>
  <course>186.95</course>
  <speed>0.7144928271158499</speed>
  <fix>3d</fix>
</trkpt>
<trkpt lat="33.8103033" lon="-118.3938775">
  <ele>-0.113</ele>
  <time>2026-09-02T22:07:31Z</time>
  <course>186.95</course>
  <speed>0.7144928271158499</speed>
  <fix>3d</fix>
</trkpt>
<trkpt lat="33.8103033" lon="-118.3938775">
  <ele>-0.113</ele>
  <time>2026-09-02T22:07:31Z</time>
  <course>186.95</course>
  <speed>0.7144928271158499</speed>
  <fix>3d</fix>
</trkpt>
<trkpt lat="33.8103032" lon="-118.3938776">
  <ele>-0.112</ele>
  <time>2026-09-02T22:07:31Z</time>
  <course>186.95</course>
  <speed>0.7144928271158499</speed>
  <fix>3d</fix>
</trkpt>
<trkpt lat="33.8103032" lon="-118.3938777">
  <ele>-0.112</ele>
  <time>2026-09-02T22:07:31Z</time>
  <course>186.95</course>
  <speed>0.7144928271158499</speed>
  <fix>3d</fix>
</trkpt>
<trkpt lat="33.8103032" lon="-118.3938777">
  <ele>-0.111</ele>
  <time>2026-09-02T22:07:31Z</time>
  <course>186.95</course>
  <speed>0.7144928271158499</speed>
  <fix>3d</fix>
</trkpt>
<trkpt lat="33.8103031" lon="-118.3938777">
  <ele>-0.111</ele>
  <time>2026-09-02T22:07:31Z</time>
  <course>186.95</course>
  <speed>0.7144928271158499</speed>
  <fix>3d</fix>
</trkpt>
<trkpt lat="33.8103031" lon="-118.3938778">
  <ele>-0.11</ele>
  <time>2026-09-02T22:07:31Z</time>
  <course>186.95</course>
  <speed>0.7144928271158499</speed>
  <fix>3d</fix>
</trkpt>
<trkpt lat="33.8103031" lon="-118.3938778">
  <ele>-0.11</ele>
  <time>2026-09-02T22:07:31Z</time>
  <course>186.95</course>
  <speed>0.7144928271158499</speed>
  <fix>3d</fix>
</trkpt>
<trkpt lat="33.8103037" lon="-118.3938771">
  <ele>-0.11</ele>
  <time>2026-09-02T22:07:31Z</time>
  <course>223.26</course>
  <speed>0.73</speed>
  <fix>3d</fix>
</trkpt>
<trkpt lat="33.8103031" lon="-118.3938778">
  <ele>-0.11</ele>
  <time>2026-09-02T22:07:31Z</time>
  <course>186.95</course>
  <speed>0.7144928271158499</speed>
  <fix>3d</fix>
</trkpt>
<trkpt lat="33.810303" lon="-118.3938779">
  <ele>-0.109</ele>
  <time>2026-09-02T22:07:31Z</time>
  <course>186.95</course>
  <speed>0.7144928271158499</speed>
  <fix>3d</fix>
</trkpt>
<trkpt lat="33.810303" lon="-118.3938779">
  <ele>-0.109</ele>
  <time>2026-09-02T22:07:31Z</time>
  <course>186.95</course>
  <speed>0.7144928271158499</speed>
  <fix>3d</fix>
</trkpt>
<trkpt lat="33.8103029" lon="-118.393878">
  <ele>-0.109</ele>
  <time>2026-09-02T22:07:31Z</time>
  <course>186.95</course>
  <speed>0.7144928271158499</speed>
  <fix>3d</fix>
</trkpt>
<trkpt lat="33.8103029" lon="-118.393878">
  <ele>-0.108</ele>
  <time>2026-09-02T22:07:31Z</time>
  <course>186.95</course>
  <speed>0.7144928271158499</speed>
  <fix>3d</fix>
</trkpt>
<trkpt lat="33.8103028" lon="-118.393878">
  <ele>-0.108</ele>
  <time>2026-09-02T22:07:31Z</time>
  <course>186.95</course>
  <speed>0.7144928271158499</speed>
  <fix>3d</fix>
</trkpt>
<trkpt lat="33.8103028" lon="-118.3938781">
  <ele>-0.107</ele>
  <time>2026-09-02T22:07:31Z</time>
  <course>186.95</course>
  <speed>0.7144928271158499</speed>
  <fix>3d</fix>
</trkpt>
<trkpt lat="33.8103028" lon="-118.3938781">
  <ele>-0.107</ele>
  <time>2026-09-02T22:07:31Z</time>
  <course>186.95</course>
  <speed>0.7144928271158499</speed>
  <fix>3d</fix>
</trkpt>
<trkpt lat="33.8103027" lon="-118.3938782">
  <ele>-0.107</ele>
  <time>2026-09-02T22:07:31Z</time>
  <course>186.95</course>
  <speed>0.7144928271158499</speed>
  <fix>3d</fix>
</trkpt>
<trkpt lat="33.8103027" lon="-118.3938782">
  <ele>-0.106</ele>
  <time>2026-09-02T22:07:31Z</time>
  <course>186.95</course>
  <speed>0.7144928271158499</speed>
  <fix>3d</fix>
</trkpt>
<trkpt lat="33.8103026" lon="-118.3938783">
  <ele>-0.106</ele>
  <time>2026-09-02T22:07:31Z</time>
  <course>186.95</course>
  <speed>0.7144928271158499</speed>
  <fix>3d</fix>
</trkpt>
<trkpt lat="33.8103026" lon="-118.3938783">
  <ele>-0.105</ele>
  <time>2026-09-02T22:07:31Z</time>
  <course>186.95</course>
  <speed>0.7144928271158499</speed>
  <fix>3d</fix>
</trkpt>
<trkpt lat="33.8103037" lon="-118.3938771">
  <ele>-0.11</ele>
  <time>2026-09-02T22:07:31Z</time>
  <course>223.26</course>
  <speed>0.73</speed>
  <fix>3d</fix>
</trkpt>
<trkpt lat="33.8103026" lon="-118.3938783">
  <ele>-0.105</ele>
  <time>2026-09-02T22:07:31Z</time>
  <course>186.94</course>
  <speed>0.7144928271158499</speed>
  <fix>3d</fix>
</trkpt>
<trkpt lat="33.8103024" lon="-118.3938785">
  <ele>-0.104</ele>
  <time>2026-09-02T22:07:31Z</time>
  <course>186.94</course>
  <speed>0.7144928271158499</speed>
  <fix>3d</fix>
</trkpt>
<trkpt lat="33.8103024" lon="-118.3938786">
  <ele>-0.104</ele>
  <time>2026-09-02T22:07:31Z</time>
  <course>186.94</course>
  <speed>0.7144928271158499</speed>
  <fix>3d</fix>
</trkpt>
<trkpt lat="33.8103023" lon="-118.3938786">
  <ele>-0.104</ele>
  <time>2026-09-02T22:07:31Z</time>
  <course>186.94</course>
  <speed>0.7144928271158499</speed>
  <fix>3d</fix>
</trkpt>
<trkpt lat="33.8103023" lon="-118.3938787">
  <ele>-0.104</ele>
  <time>2026-09-02T22:07:31Z</time>
  <course>186.94</course>
  <speed>0.7144928271158499</speed>
  <fix>3d</fix>
</trkpt>
<trkpt lat="33.8103022" lon="-118.3938787">
  <ele>-0.103</ele>
  <time>2026-09-02T22:07:31Z</time>
  <course>186.94</course>
  <speed>0.7144928271158499</speed>
  <fix>3d</fix>
</trkpt>
<trkpt lat="33.8103022" lon="-118.3938788">
  <ele>-0.103</ele>
  <time>2026-09-02T22:07:31Z</time>
  <course>186.94</course>
  <speed>0.7144928271158499</speed>
  <fix>3d</fix>
</trkpt>
<trkpt lat="33.8103022" lon="-118.3938788">
  <ele>-0.103</ele>
  <time>2026-09-02T22:07:31Z</time>
  <course>186.94</course>
  <speed>0.7144928271158499</speed>
  <fix>3d</fix>
</trkpt>
<trkpt lat="33.8103021" lon="-118.3938789">
  <ele>-0.103</ele>
  <time>2026-09-02T22:07:31Z</time>
  <course>186.94</course>
  <speed>0.7144928271158499</speed>
  <fix>3d</fix>
</trkpt>
<trkpt lat="33.8103026" lon="-118.3938782">
  <ele>-0.1</ele>
  <time>2026-09-02T22:07:31Z</time>
  <course>223.26</course>
  <speed>0.73</speed>
  <fix>3d</fix>
</trkpt>
<trkpt lat="33.8103021" lon="-118.3938789">
  <ele>-0.103</ele>
  <time>2026-09-02T22:07:31Z</time>
  <course>186.94</course>
  <speed>0.7144928271158499</speed>
  <fix>3d</fix>
</trkpt>
<trkpt lat="33.810302" lon="-118.393879">
  <ele>-0.104</ele>
  <time>2026-09-02T22:07:31Z</time>
  <course>186.94</course>
  <speed>0.7144928271158499</speed>
  <fix>3d</fix>
</trkpt>
<trkpt lat="33.8103019" lon="-118.3938791">
  <ele>-0.104</ele>
  <time>2026-09-02T22:07:31Z</time>
  <course>186.94</course>
  <speed>0.7144928271158499</speed>
  <fix>3d</fix>
</trkpt>
<trkpt lat="33.8103019" lon="-118.3938791">
  <ele>-0.104</ele>
  <time>2026-09-02T22:07:31Z</time>
  <course>186.94</course>
  <speed>0.7144928271158499</speed>
  <fix>3d</fix>
</trkpt>
<trkpt lat="33.8103019" lon="-118.3938791">
  <ele>-0.104</ele>
  <time>2026-09-02T22:07:31Z</time>
  <course>186.94</course>
  <speed>0.7144928271158499</speed>
  <fix>3d</fix>
</trkpt>
<trkpt lat="33.8103018" lon="-118.3938792">
  <ele>-0.104</ele>
  <time>2026-09-02T22:07:31Z</time>
  <course>186.94</course>
  <speed>0.7144928271158499</speed>
  <fix>3d</fix>
</trkpt>
<trkpt lat="33.8103018" lon="-118.3938792">
  <ele>-0.105</ele>
  <time>2026-09-02T22:07:31Z</time>
  <course>186.94</course>
  <speed>0.7144928271158499</speed>
  <fix>3d</fix>
</trkpt>
<trkpt lat="33.8103017" lon="-118.3938793">
  <ele>-0.105</ele>
  <time>2026-09-02T22:07:31Z</time>
  <course>186.94</course>
  <speed>0.7144928271158499</speed>
  <fix>3d</fix>
</trkpt>
<trkpt lat="33.8103017" lon="-118.3938793">
  <ele>-0.105</ele>
  <time>2026-09-02T22:07:31Z</time>
  <course>186.94</course>
  <speed>0.7144928271158499</speed>
  <fix>3d</fix>
</trkpt>
<trkpt lat="33.8103017" lon="-118.3938794">
  <ele>-0.106</ele>
  <time>2026-09-02T22:07:31Z</time>
  <course>186.94</course>
  <speed>0.7144928271158499</speed>
  <fix>3d</fix>
</trkpt>
<trkpt lat="33.8103016" lon="-118.3938794">
  <ele>-0.106</ele>
  <time>2026-09-02T22:07:31Z</time>
  <course>186.94</course>
  <speed>0.7144928271158499</speed>
  <fix>3d</fix>
</trkpt>
<trkpt lat="33.8103016" lon="-118.3938794">
  <ele>-0.106</ele>
  <time>2026-09-02T22:07:31Z</time>
  <course>186.94</course>
  <speed>0.7144928271158499</speed>
  <fix>3d</fix>
</trkpt>
<trkpt lat="33.8103026" lon="-118.3938782">
  <ele>-0.1</ele>
  <time>2026-09-02T22:07:31Z</time>
  <course>223.26</course>
  <speed>0.73</speed>
  <fix>3d</fix>
</trkpt>
<trkpt lat="33.8103016" lon="-118.3938794">
  <ele>-0.106</ele>
  <time>2026-09-02T22:07:31Z</time>
  <course>186.94</course>
  <speed>0.7144928271158499</speed>
  <fix>3d</fix>
</trkpt>
<trkpt lat="33.8103014" lon="-118.3938796">
  <ele>-0.108</ele>
  <time>2026-09-02T22:07:31Z</time>
  <course>186.94</course>
  <speed>0.7144928271158499</speed>
  <fix>3d</fix>
</trkpt>
<trkpt lat="33.8103014" lon="-118.3938797">
  <ele>-0.109</ele>
  <time>2026-09-02T22:07:31Z</time>
  <course>186.94</course>
  <speed>0.7144928271158499</speed>
  <fix>3d</fix>
</trkpt>
<trkpt lat="33.8103013" lon="-118.3938797">
  <ele>-0.109</ele>
  <time>2026-09-02T22:07:31Z</time>
  <course>186.94</course>
  <speed>0.7144928271158499</speed>
  <fix>3d</fix>
</trkpt>
<trkpt lat="33.8103013" lon="-118.3938798">
  <ele>-0.11</ele>
  <time>2026-09-02T22:07:31Z</time>
  <course>186.93</course>
  <speed>0.7144928271158499</speed>
  <fix>3d</fix>
</trkpt>
<trkpt lat="33.8103013" lon="-118.3938798">
  <ele>-0.11</ele>
  <time>2026-09-02T22:07:31Z</time>
  <course>186.93</course>
  <speed>0.7144928271158499</speed>
  <fix>3d</fix>
</trkpt>
<trkpt lat="33.8103012" lon="-118.3938798">
  <ele>-0.11</ele>
  <time>2026-09-02T22:07:31Z</time>
  <course>186.93</course>
  <speed>0.7144928271158499</speed>
  <fix>3d</fix>
</trkpt>
<trkpt lat="33.8103012" lon="-118.3938799">
  <ele>-0.111</ele>
  <time>2026-09-02T22:07:31Z</time>
  <course>186.93</course>
  <speed>0.7144928271158499</speed>
  <fix>3d</fix>
</trkpt>
<trkpt lat="33.8103012" lon="-118.3938799">
  <ele>-0.111</ele>
  <time>2026-09-02T22:07:31Z</time>
  <course>186.93</course>
  <speed>0.7144928271158499</speed>
  <fix>3d</fix>
</trkpt>
<trkpt lat="33.8103011" lon="-118.39388">
  <ele>-0.112</ele>
  <time>2026-09-02T22:07:31Z</time>
  <course>186.93</course>
  <speed>0.7144928271158499</speed>
  <fix>3d</fix>
</trkpt>
<trkpt lat="33.8103011" lon="-118.39388">
  <ele>-0.112</ele>
  <time>2026-09-02T22:07:31Z</time>
  <course>186.93</course>
  <speed>0.7144928271158499</speed>
  <fix>3d</fix>
</trkpt>
<trkpt lat="33.8103017" lon="-118.3938793">
  <ele>-0.1</ele>
  <time>2026-09-02T22:07:31Z</time>
  <course>223.26</course>
  <speed>0.73</speed>
  <fix>3d</fix>
</trkpt>
<trkpt lat="33.810301" lon="-118.3938801">
  <ele>-0.113</ele>
  <time>2026-09-02T22:07:31Z</time>
  <course>186.93</course>
  <speed>0.7144928271158499</speed>
  <fix>3d</fix>
</trkpt>
<trkpt lat="33.810301" lon="-118.3938801">
  <ele>-0.114</ele>
  <time>2026-09-02T22:07:31Z</time>
  <course>186.93</course>
  <speed>0.7144928271158499</speed>
  <fix>3d</fix>
</trkpt>
<trkpt lat="33.8103009" lon="-118.3938802">
  <ele>-0.115</ele>
  <time>2026-09-02T22:07:31Z</time>
  <course>186.93</course>
  <speed>0.7144928271158499</speed>
  <fix>3d</fix>
</trkpt>
<trkpt lat="33.8103008" lon="-118.3938803">
  <ele>-0.116</ele>
  <time>2026-09-02T22:07:31Z</time>
  <course>186.93</course>
  <speed>0.7144928271158499</speed>
  <fix>3d</fix>
</trkpt>
<trkpt lat="33.8103008" lon="-118.3938803">
  <ele>-0.116</ele>
  <time>2026-09-02T22:07:31Z</time>
  <course>186.93</course>
  <speed>0.7144928271158499</speed>
  <fix>3d</fix>
</trkpt>
<trkpt lat="33.8103008" lon="-118.3938804">
  <ele>-0.116</ele>
  <time>2026-09-02T22:07:31Z</time>
  <course>186.93</course>
  <speed>0.7144928271158499</speed>
  <fix>3d</fix>
</trkpt>
<trkpt lat="33.8103007" lon="-118.3938804">
  <ele>-0.117</ele>
  <time>2026-09-02T22:07:31Z</time>
  <course>186.93</course>
  <speed>0.7144928271158499</speed>
  <fix>3d</fix>
</trkpt>
<trkpt lat="33.8103007" lon="-118.3938805">
  <ele>-0.117</ele>
  <time>2026-09-02T22:07:31Z</time>
  <course>186.93</course>
  <speed>0.7144928271158499</speed>
  <fix>3d</fix>
</trkpt>
<trkpt lat="33.8103006" lon="-118.3938805">
  <ele>-0.118</ele>
  <time>2026-09-02T22:07:31Z</time>
  <course>186.93</course>
  <speed>0.7144928271158499</speed>
  <fix>3d</fix>
</trkpt>
<trkpt lat="33.8103006" lon="-118.3938805">
  <ele>-0.118</ele>
  <time>2026-09-02T22:07:31Z</time>
  <course>186.93</course>
  <speed>0.7144928271158499</speed>
  <fix>3d</fix>
</trkpt>
<trkpt lat="33.8103017" lon="-118.3938793">
  <ele>-0.1</ele>
  <time>2026-09-02T22:07:31Z</time>
  <course>223.26</course>
  <speed>0.73</speed>
  <fix>3d</fix>
</trkpt>
<trkpt lat="33.8103006" lon="-118.3938805">
  <ele>-0.118</ele>
  <time>2026-09-02T22:07:31Z</time>
  <course>186.93</course>
  <speed>0.7144928271158499</speed>
  <fix>3d</fix>
</trkpt>
<trkpt lat="33.8103006" lon="-118.3938806">
  <ele>-0.119</ele>
  <time>2026-09-02T22:07:31Z</time>
  <course>186.93</course>
  <speed>0.7144928271158499</speed>
  <fix>3d</fix>
</trkpt>
<trkpt lat="33.8103005" lon="-118.3938806">
  <ele>-0.119</ele>
  <time>2026-09-02T22:07:31Z</time>
  <course>186.93</course>
  <speed>0.7144928271158499</speed>
  <fix>3d</fix>
</trkpt>
<trkpt lat="33.8103005" lon="-118.3938807">
  <ele>-0.12</ele>
  <time>2026-09-02T22:07:31Z</time>
  <course>186.93</course>
  <speed>0.7144928271158499</speed>
  <fix>3d</fix>
</trkpt>
<trkpt lat="33.8103004" lon="-118.3938807">
  <ele>-0.12</ele>
  <time>2026-09-02T22:07:31Z</time>
  <course>186.93</course>
  <speed>0.7144928271158499</speed>
  <fix>3d</fix>
</trkpt>
<trkpt lat="33.8103004" lon="-118.3938808">
  <ele>-0.12</ele>
  <time>2026-09-02T22:07:31Z</time>
  <course>186.93</course>
  <speed>0.7144928271158499</speed>
  <fix>3d</fix>
</trkpt>
<trkpt lat="33.8103004" lon="-118.3938808">
  <ele>-0.121</ele>
  <time>2026-09-02T22:07:31Z</time>
  <course>186.93</course>
  <speed>0.7144928271158499</speed>
  <fix>3d</fix>
</trkpt>
<trkpt lat="33.8103003" lon="-118.3938809">
  <ele>-0.121</ele>
  <time>2026-09-02T22:07:31Z</time>
  <course>186.93</course>
  <speed>0.7144928271158499</speed>
  <fix>3d</fix>
</trkpt>
<trkpt lat="33.8103003" lon="-118.3938809">
  <ele>-0.122</ele>
  <time>2026-09-02T22:07:31Z</time>
  <course>186.93</course>
  <speed>0.7144928271158499</speed>
  <fix>3d</fix>
</trkpt>
<trkpt lat="33.8103002" lon="-118.393881">
  <ele>-0.122</ele>
  <time>2026-09-02T22:07:31Z</time>
  <course>186.92</course>
  <speed>0.7144928271158499</speed>
  <fix>3d</fix>
</trkpt>
<trkpt lat="33.8103002" lon="-118.393881">
  <ele>-0.122</ele>
  <time>2026-09-02T22:07:31Z</time>
  <course>186.92</course>
  <speed>0.7218032973047436</speed>
  <fix>3d</fix>
</trkpt>
<trkpt lat="33.8103002" lon="-118.3938811">
  <ele>-0.122</ele>
  <time>2026-09-02T22:07:31Z</time>
  <course>186.92</course>
  <speed>0.7218032973047436</speed>
  <fix>3d</fix>
</trkpt>
<trkpt lat="33.8103008" lon="-118.3938803">
  <ele>-0.1</ele>
  <time>2026-09-02T22:07:31Z</time>
  <course>223.26</course>
  <speed>0.73</speed>
  <fix>3d</fix>
</trkpt>
<trkpt lat="33.8103001" lon="-118.3938811">
  <ele>-0.123</ele>
  <time>2026-09-02T22:07:31Z</time>
  <course>186.92</course>
  <speed>0.7218032973047436</speed>
  <fix>3d</fix>
</trkpt>
<trkpt lat="33.8103" lon="-118.3938812">
  <ele>-0.123</ele>
  <time>2026-09-02T22:07:31Z</time>
  <course>186.92</course>
  <speed>0.7218032973047436</speed>
  <fix>3d</fix>
</trkpt>
<trkpt lat="33.8103" lon="-118.3938812">
  <ele>-0.123</ele>
  <time>2026-09-02T22:07:31Z</time>
  <course>186.92</course>
  <speed>0.7218032973047436</speed>
  <fix>3d</fix>
</trkpt>
<trkpt lat="33.8102999" lon="-118.3938813">
  <ele>-0.123</ele>
  <time>2026-09-02T22:07:31Z</time>
  <course>186.92</course>
  <speed>0.7218032973047436</speed>
  <fix>3d</fix>
</trkpt>
<trkpt lat="33.8102999" lon="-118.3938813">
  <ele>-0.123</ele>
  <time>2026-09-02T22:07:31Z</time>
  <course>186.92</course>
  <speed>0.7218032973047436</speed>
  <fix>3d</fix>
</trkpt>
<trkpt lat="33.8102999" lon="-118.3938814">
  <ele>-0.124</ele>
  <time>2026-09-02T22:07:31Z</time>
  <course>186.92</course>
  <speed>0.7218032973047436</speed>
  <fix>3d</fix>
</trkpt>
<trkpt lat="33.8102998" lon="-118.3938814">
  <ele>-0.124</ele>
  <time>2026-09-02T22:07:31Z</time>
  <course>186.92</course>
  <speed>0.7218032973047436</speed>
  <fix>3d</fix>
</trkpt>
<trkpt lat="33.8102998" lon="-118.3938814">
  <ele>-0.124</ele>
  <time>2026-09-02T22:07:31Z</time>
  <course>186.92</course>
  <speed>0.7218032973047436</speed>
  <fix>3d</fix>
</trkpt>
<trkpt lat="33.8102998" lon="-118.3938815">
  <ele>-0.124</ele>
  <time>2026-09-02T22:07:31Z</time>
  <course>186.92</course>
  <speed>0.7218032973047436</speed>
  <fix>3d</fix>
</trkpt>
<trkpt lat="33.8102997" lon="-118.3938815">
  <ele>-0.124</ele>
  <time>2026-09-02T22:07:31Z</time>
  <course>186.92</course>
  <speed>0.7218032973047436</speed>
  <fix>3d</fix>
</trkpt>
<trkpt lat="33.8102997" lon="-118.3938816">
  <ele>-0.124</ele>
  <time>2026-09-02T22:07:31Z</time>
  <course>186.92</course>
  <speed>0.7218032973047436</speed>
  <fix>3d</fix>
</trkpt>
<trkpt lat="33.8102997" lon="-118.3938816">
  <ele>-0.124</ele>
  <time>2026-09-02T22:07:31Z</time>
  <course>186.92</course>
  <speed>0.7218032973047436</speed>
  <fix>3d</fix>
</trkpt>
<trkpt lat="33.8103008" lon="-118.3938803">
  <ele>-0.1</ele>
  <time>2026-09-02T22:07:31Z</time>
  <course>223.26</course>
  <speed>0.73</speed>
  <fix>3d</fix>
</trkpt>
<trkpt lat="33.8102997" lon="-118.3938816">
  <ele>-0.124</ele>
  <time>2026-09-02T22:07:31Z</time>
  <course>186.92</course>
  <speed>0.7218032973047436</speed>
  <fix>3d</fix>
</trkpt>
<trkpt lat="33.8102996" lon="-118.3938817">
  <ele>-0.124</ele>
  <time>2026-09-02T22:07:31Z</time>
  <course>186.92</course>
  <speed>0.7218032973047436</speed>
  <fix>3d</fix>
</trkpt>
<trkpt lat="33.8102996" lon="-118.3938817">
  <ele>-0.124</ele>
  <time>2026-09-02T22:07:31Z</time>
  <course>186.92</course>
  <speed>0.7218032973047436</speed>
  <fix>3d</fix>
</trkpt>
<trkpt lat="33.8102995" lon="-118.3938818">
  <ele>-0.124</ele>
  <time>2026-09-02T22:07:31Z</time>
  <course>186.92</course>
  <speed>0.7218032973047436</speed>
  <fix>3d</fix>
</trkpt>
<trkpt lat="33.8102995" lon="-118.3938818">
  <ele>-0.124</ele>
  <time>2026-09-02T22:07:31Z</time>
  <course>186.92</course>
  <speed>0.7218032973047436</speed>
  <fix>3d</fix>
</trkpt>
<trkpt lat="33.8102995" lon="-118.3938818">
  <ele>-0.124</ele>
  <time>2026-09-02T22:07:31Z</time>
  <course>186.92</course>
  <speed>0.7218032973047436</speed>
  <fix>3d</fix>
</trkpt>
<trkpt lat="33.8102994" lon="-118.3938819">
  <ele>-0.124</ele>
  <time>2026-09-02T22:07:31Z</time>
  <course>186.92</course>
  <speed>0.7218032973047436</speed>
  <fix>3d</fix>
</trkpt>
<trkpt lat="33.8102994" lon="-118.3938819">
  <ele>-0.124</ele>
  <time>2026-09-02T22:07:31Z</time>
  <course>186.92</course>
  <speed>0.7218032973047436</speed>
  <fix>3d</fix>
</trkpt>
<trkpt lat="33.8102993" lon="-118.393882">
  <ele>-0.124</ele>
  <time>2026-09-02T22:07:31Z</time>
  <course>186.92</course>
  <speed>0.7218032973047436</speed>
  <fix>3d</fix>
</trkpt>
<trkpt lat="33.8102993" lon="-118.3938821">
  <ele>-0.124</ele>
  <time>2026-09-02T22:07:31Z</time>
  <course>186.92</course>
  <speed>0.7218032973047436</speed>
  <fix>3d</fix>
</trkpt>
<trkpt lat="33.8102992" lon="-118.3938821">
  <ele>-0.123</ele>
  <time>2026-09-02T22:07:31Z</time>
  <course>186.92</course>
  <speed>0.7218032973047436</speed>
  <fix>3d</fix>
</trkpt>
<trkpt lat="33.8102992" lon="-118.3938821">
  <ele>-0.123</ele>
  <time>2026-09-02T22:07:31Z</time>
  <course>186.92</course>
  <speed>0.7218032973047436</speed>
  <fix>3d</fix>
</trkpt>
<trkpt lat="33.8102998" lon="-118.3938814">
  <ele>-0.11</ele>
  <time>2026-09-02T22:07:31Z</time>
  <course>223.26</course>
  <speed>0.73</speed>
  <fix>3d</fix>
</trkpt>
<trkpt lat="33.8102991" lon="-118.3938822">
  <ele>-0.123</ele>
  <time>2026-09-02T22:07:31Z</time>
  <course>186.92</course>
  <speed>0.7218032973047436</speed>
  <fix>3d</fix>
</trkpt>
<trkpt lat="33.810299" lon="-118.3938823">
  <ele>-0.123</ele>
  <time>2026-09-02T22:07:31Z</time>
  <course>186.92</course>
  <speed>0.7218032973047436</speed>
  <fix>3d</fix>
</trkpt>
<trkpt lat="33.810299" lon="-118.3938823">
  <ele>-0.122</ele>
  <time>2026-09-02T22:07:31Z</time>
  <course>186.91</course>
  <speed>0.7218032973047436</speed>
  <fix>3d</fix>
</trkpt>
<trkpt lat="33.810299" lon="-118.3938824">
  <ele>-0.122</ele>
  <time>2026-09-02T22:07:31Z</time>
  <course>186.91</course>
  <speed>0.7218032973047436</speed>
  <fix>3d</fix>
</trkpt>
<trkpt lat="33.8102989" lon="-118.3938824">
  <ele>-0.122</ele>
  <time>2026-09-02T22:07:31Z</time>
  <course>186.92</course>
  <speed>0.7218032973047436</speed>
  <fix>3d</fix>
</trkpt>
<trkpt lat="33.8102989" lon="-118.3938825">
  <ele>-0.121</ele>
  <time>2026-09-02T22:07:31Z</time>
  <course>186.91</course>
  <speed>0.7218032973047436</speed>
  <fix>3d</fix>
</trkpt>
<trkpt lat="33.8102989" lon="-118.3938825">
  <ele>-0.121</ele>
  <time>2026-09-02T22:07:31Z</time>
  <course>186.91</course>
  <speed>0.7218032973047436</speed>
  <fix>3d</fix>
</trkpt>
<trkpt lat="33.8102988" lon="-118.3938825">
  <ele>-0.121</ele>
  <time>2026-09-02T22:07:31Z</time>
  <course>186.91</course>
  <speed>0.7218032973047436</speed>
  <fix>3d</fix>
</trkpt>
<trkpt lat="33.8102988" lon="-118.3938826">
  <ele>-0.12</ele>
  <time>2026-09-02T22:07:31Z</time>
  <course>186.91</course>
  <speed>0.7218032973047436</speed>
  <fix>3d</fix>
</trkpt>
<trkpt lat="33.8102987" lon="-118.3938826">
  <ele>-0.12</ele>
  <time>2026-09-02T22:07:31Z</time>
  <course>186.91</course>
  <speed>0.7218032973047436</speed>
  <fix>3d</fix>
</trkpt>
<trkpt lat="33.8102987" lon="-118.3938827">
  <ele>-0.119</ele>
  <time>2026-09-02T22:07:31Z</time>
  <course>186.91</course>
  <speed>0.7218032973047436</speed>
  <fix>3d</fix>
</trkpt>
<trkpt lat="33.8102998" lon="-118.3938814">
  <ele>-0.11</ele>
  <time>2026-09-02T22:07:31Z</time>
  <course>223.26</course>
  <speed>0.73</speed>
  <fix>3d</fix>
</trkpt>
<trkpt lat="33.8102987" lon="-118.3938827">
  <ele>-0.119</ele>
  <time>2026-09-02T22:07:31Z</time>
  <course>186.91</course>
  <speed>0.7218032973047436</speed>
  <fix>3d</fix>
</trkpt>
<trkpt lat="33.8102986" lon="-118.3938828">
  <ele>-0.118</ele>
  <time>2026-09-02T22:07:31Z</time>
  <course>186.91</course>
  <speed>0.7218032973047436</speed>
  <fix>3d</fix>
</trkpt>
<trkpt lat="33.8102985" lon="-118.3938829">
  <ele>-0.117</ele>
  <time>2026-09-02T22:07:31Z</time>
  <course>186.91</course>
  <speed>0.7218032973047436</speed>
  <fix>3d</fix>
</trkpt>
<trkpt lat="33.8102985" lon="-118.3938829">
  <ele>-0.117</ele>
  <time>2026-09-02T22:07:31Z</time>
  <course>186.91</course>
  <speed>0.7218032973047436</speed>
  <fix>3d</fix>
</trkpt>
<trkpt lat="33.8102985" lon="-118.393883">
  <ele>-0.116</ele>
  <time>2026-09-02T22:07:31Z</time>
  <course>186.91</course>
  <speed>0.7218032973047436</speed>
  <fix>3d</fix>
</trkpt>
<trkpt lat="33.8102984" lon="-118.393883">
  <ele>-0.116</ele>
  <time>2026-09-02T22:07:31Z</time>
  <course>186.91</course>
  <speed>0.7286288492778747</speed>
  <fix>3d</fix>
</trkpt>
<trkpt lat="33.8102984" lon="-118.3938831">
  <ele>-0.115</ele>
  <time>2026-09-02T22:07:31Z</time>
  <course>186.91</course>
  <speed>0.7218032973047436</speed>
  <fix>3d</fix>
</trkpt>
<trkpt lat="33.8102983" lon="-118.3938831">
  <ele>-0.115</ele>
  <time>2026-09-02T22:07:31Z</time>
  <course>186.91</course>
  <speed>0.7218032973047436</speed>
  <fix>3d</fix>
</trkpt>
<trkpt lat="33.8102983" lon="-118.3938832">
  <ele>-0.114</ele>
  <time>2026-09-02T22:07:31Z</time>
  <course>186.91</course>
  <speed>0.7218032973047436</speed>
  <fix>3d</fix>
</trkpt>
<trkpt lat="33.8102982" lon="-118.3938832">
  <ele>-0.114</ele>
  <time>2026-09-02T22:07:31Z</time>
  <course>186.91</course>
  <speed>0.7286288492778747</speed>
  <fix>3d</fix>
</trkpt>
<trkpt lat="33.8102989" lon="-118.3938825">
  <ele>-0.11</ele>
  <time>2026-09-02T22:07:31Z</time>
  <course>223.26</course>
  <speed>0.73</speed>
  <fix>3d</fix>
</trkpt>
<trkpt lat="33.8102982" lon="-118.3938832">
  <ele>-0.113</ele>
  <time>2026-09-02T22:07:31Z</time>
  <course>186.91</course>
  <speed>0.7218032973047436</speed>
  <fix>3d</fix>
</trkpt>
<trkpt lat="33.8102982" lon="-118.3938833">
  <ele>-0.113</ele>
  <time>2026-09-02T22:07:31Z</time>
  <course>186.91</course>
  <speed>0.7218032973047436</speed>
  <fix>3d</fix>
</trkpt>
<trkpt lat="33.8102981" lon="-118.3938834">
  <ele>-0.112</ele>
  <time>2026-09-02T22:07:31Z</time>
  <course>186.91</course>
  <speed>0.7286288492778747</speed>
  <fix>3d</fix>
</trkpt>
<trkpt lat="33.8102981" lon="-118.3938834">
  <ele>-0.112</ele>
  <time>2026-09-02T22:07:31Z</time>
  <course>186.91</course>
  <speed>0.7286288492778747</speed>
  <fix>3d</fix>
</trkpt>
<trkpt lat="33.810298" lon="-118.3938834">
  <ele>-0.111</ele>
  <time>2026-09-02T22:07:31Z</time>
  <course>186.91</course>
  <speed>0.7286288492778747</speed>
  <fix>3d</fix>
</trkpt>
<trkpt lat="33.810298" lon="-118.3938835">
  <ele>-0.111</ele>
  <time>2026-09-02T22:07:31Z</time>
  <course>186.91</course>
  <speed>0.7286288492778747</speed>
  <fix>3d</fix>
</trkpt>
<trkpt lat="33.810298" lon="-118.3938835">
  <ele>-0.11</ele>
  <time>2026-09-02T22:07:31Z</time>
  <course>186.91</course>
  <speed>0.7286288492778747</speed>
  <fix>3d</fix>
</trkpt>
<trkpt lat="33.8102979" lon="-118.3938836">
  <ele>-0.11</ele>
  <time>2026-09-02T22:07:31Z</time>
  <course>186.91</course>
  <speed>0.7286288492778747</speed>
  <fix>3d</fix>
</trkpt>
<trkpt lat="33.8102979" lon="-118.3938836">
  <ele>-0.109</ele>
  <time>2026-09-02T22:07:31Z</time>
  <course>186.9</course>
  <speed>0.7286288492778747</speed>
  <fix>3d</fix>
</trkpt>
<trkpt lat="33.8102978" lon="-118.3938837">
  <ele>-0.109</ele>
  <time>2026-09-02T22:07:31Z</time>
  <course>186.9</course>
  <speed>0.7286288492778747</speed>
  <fix>3d</fix>
</trkpt>
<trkpt lat="33.8102978" lon="-118.3938837">
  <ele>-0.108</ele>
  <time>2026-09-02T22:07:31Z</time>
  <course>186.9</course>
  <speed>0.7286288492778747</speed>
  <fix>3d</fix>
</trkpt>
<trkpt lat="33.8102978" lon="-118.3938837">
  <ele>-0.108</ele>
  <time>2026-09-02T22:07:31Z</time>
  <course>186.9</course>
  <speed>0.7213875518748573</speed>
  <fix>3d</fix>
</trkpt>
<trkpt lat="33.8102978" lon="-118.3938838">
  <ele>-0.108</ele>
  <time>2026-09-02T22:07:31Z</time>
  <course>186.9</course>
  <speed>0.7213875518748573</speed>
  <fix>3d</fix>
</trkpt>
<trkpt lat="33.8102989" lon="-118.3938825">
  <ele>-0.11</ele>
  <time>2026-09-02T22:07:31Z</time>
  <course>223.26</course>
  <speed>0.73</speed>
  <fix>3d</fix>
</trkpt>
<trkpt lat="33.8102977" lon="-118.3938839">
  <ele>-0.107</ele>
  <time>2026-09-02T22:07:31Z</time>
  <course>186.9</course>
  <speed>0.7213875518748573</speed>
  <fix>3d</fix>
</trkpt>
<trkpt lat="33.8102976" lon="-118.3938839">
  <ele>-0.107</ele>
  <time>2026-09-02T22:07:31Z</time>
  <course>186.9</course>
  <speed>0.7213875518748573</speed>
  <fix>3d</fix>
</trkpt>
<trkpt lat="33.8102976" lon="-118.3938839">
  <ele>-0.107</ele>
  <time>2026-09-02T22:07:31Z</time>
  <course>186.9</course>
  <speed>0.7213875518748573</speed>
  <fix>3d</fix>
</trkpt>
<trkpt lat="33.8102976" lon="-118.393884">
  <ele>-0.106</ele>
  <time>2026-09-02T22:07:31Z</time>
  <course>186.9</course>
  <speed>0.7213875518748573</speed>
  <fix>3d</fix>
</trkpt>
<trkpt lat="33.8102975" lon="-118.393884">
  <ele>-0.106</ele>
  <time>2026-09-02T22:07:31Z</time>
  <course>186.9</course>
  <speed>0.7213875518748573</speed>
  <fix>3d</fix>
</trkpt>
<trkpt lat="33.8102975" lon="-118.3938841">
  <ele>-0.106</ele>
  <time>2026-09-02T22:07:31Z</time>
  <course>186.9</course>
  <speed>0.7213875518748573</speed>
  <fix>3d</fix>
</trkpt>
<trkpt lat="33.8102975" lon="-118.3938841">
  <ele>-0.106</ele>
  <time>2026-09-02T22:07:31Z</time>
  <course>186.9</course>
  <speed>0.7213875518748573</speed>
  <fix>3d</fix>
</trkpt>
<trkpt lat="33.8102974" lon="-118.3938842">
  <ele>-0.105</ele>
  <time>2026-09-02T22:07:31Z</time>
  <course>186.9</course>
  <speed>0.7213875518748573</speed>
  <fix>3d</fix>
</trkpt>
<trkpt lat="33.8102974" lon="-118.3938842">
  <ele>-0.105</ele>
  <time>2026-09-02T22:07:31Z</time>
  <course>186.9</course>
  <speed>0.7213875518748573</speed>
  <fix>3d</fix>
</trkpt>
<trkpt lat="33.8102973" lon="-118.3938842">
  <ele>-0.105</ele>
  <time>2026-09-02T22:07:31Z</time>
  <course>186.9</course>
  <speed>0.7213875518748573</speed>
  <fix>3d</fix>
</trkpt>
<trkpt lat="33.8102973" lon="-118.3938843">
  <ele>-0.105</ele>
  <time>2026-09-02T22:07:31Z</time>
  <course>186.9</course>
  <speed>0.7213875518748573</speed>
  <fix>3d</fix>
</trkpt>
<trkpt lat="33.8102973" lon="-118.3938843">
  <ele>-0.105</ele>
  <time>2026-09-02T22:07:31Z</time>
  <course>186.9</course>
  <speed>0.7213875518748573</speed>
  <fix>3d</fix>
</trkpt>
<trkpt lat="33.8102978" lon="-118.3938836">
  <ele>-0.1</ele>
  <time>2026-09-02T22:07:31Z</time>
  <course>223.26</course>
  <speed>0.73</speed>
  <fix>3d</fix>
</trkpt>
<trkpt lat="33.8102973" lon="-118.3938843">
  <ele>-0.104</ele>
  <time>2026-09-02T22:07:31Z</time>
  <course>186.9</course>
  <speed>0.7213875518748573</speed>
  <fix>3d</fix>
</trkpt>
<trkpt lat="33.8102972" lon="-118.3938844">
  <ele>-0.104</ele>
  <time>2026-09-02T22:07:31Z</time>
  <course>186.9</course>
  <speed>0.7213875518748573</speed>
  <fix>3d</fix>
</trkpt>
<trkpt lat="33.8102971" lon="-118.3938844">
  <ele>-0.104</ele>
  <time>2026-09-02T22:07:31Z</time>
  <course>186.9</course>
  <speed>0.7213875518748573</speed>
  <fix>3d</fix>
</trkpt>
<trkpt lat="33.8102971" lon="-118.3938845">
  <ele>-0.104</ele>
  <time>2026-09-02T22:07:31Z</time>
  <course>186.9</course>
  <speed>0.7213875518748573</speed>
  <fix>3d</fix>
</trkpt>
<trkpt lat="33.8102971" lon="-118.3938845">
  <ele>-0.104</ele>
  <time>2026-09-02T22:07:31Z</time>
  <course>186.9</course>
  <speed>0.7286288492778747</speed>
  <fix>3d</fix>
</trkpt>
<trkpt lat="33.810297" lon="-118.3938846">
  <ele>-0.104</ele>
  <time>2026-09-02T22:07:31Z</time>
  <course>186.9</course>
  <speed>0.7213875518748573</speed>
  <fix>3d</fix>
</trkpt>
<trkpt lat="33.810297" lon="-118.3938846">
  <ele>-0.104</ele>
  <time>2026-09-02T22:07:31Z</time>
  <course>186.9</course>
  <speed>0.7286288492778747</speed>
  <fix>3d</fix>
</trkpt>
<trkpt lat="33.810297" lon="-118.3938846">
  <ele>-0.104</ele>
  <time>2026-09-02T22:07:31Z</time>
  <course>186.9</course>
  <speed>0.7286288492778747</speed>
  <fix>3d</fix>
</trkpt>
<trkpt lat="33.8102969" lon="-118.3938847">
  <ele>-0.104</ele>
  <time>2026-09-02T22:07:31Z</time>
  <course>186.9</course>
  <speed>0.7286288492778747</speed>
  <fix>3d</fix>
</trkpt>
<trkpt lat="33.8102969" lon="-118.3938847">
  <ele>-0.104</ele>
  <time>2026-09-02T22:07:31Z</time>
  <course>186.9</course>
  <speed>0.7286288492778747</speed>
  <fix>3d</fix>
</trkpt>
<trkpt lat="33.8102968" lon="-118.3938848">
  <ele>-0.105</ele>
  <time>2026-09-02T22:07:31Z</time>
  <course>186.9</course>
  <speed>0.7286288492778747</speed>
  <fix>3d</fix>
</trkpt>
<trkpt lat="33.8102968" lon="-118.3938848">
  <ele>-0.105</ele>
  <time>2026-09-02T22:07:31Z</time>
  <course>186.9</course>
  <speed>0.7286288492778747</speed>
  <fix>3d</fix>
</trkpt>
<trkpt lat="33.8102978" lon="-118.3938836">
  <ele>-0.1</ele>
  <time>2026-09-02T22:07:31Z</time>
  <course>223.26</course>
  <speed>0.73</speed>
  <fix>3d</fix>
</trkpt>
<trkpt lat="33.8102968" lon="-118.3938849">
  <ele>-0.105</ele>
  <time>2026-09-02T22:07:31Z</time>
  <course>186.9</course>
  <speed>0.7286288492778747</speed>
  <fix>3d</fix>
</trkpt>
<trkpt lat="33.8102967" lon="-118.3938849">
  <ele>-0.105</ele>
  <time>2026-09-02T22:07:31Z</time>
  <course>186.89</course>
  <speed>0.7286288492778747</speed>
  <fix>3d</fix>
</trkpt>
<trkpt lat="33.8102967" lon="-118.393885">
  <ele>-0.106</ele>
  <time>2026-09-02T22:07:31Z</time>
  <course>186.89</course>
  <speed>0.7213875518748573</speed>
  <fix>3d</fix>
</trkpt>
<trkpt lat="33.8102966" lon="-118.393885">
  <ele>-0.106</ele>
  <time>2026-09-02T22:07:31Z</time>
  <course>186.89</course>
  <speed>0.7213875518748573</speed>
  <fix>3d</fix>
</trkpt>
<trkpt lat="33.8102966" lon="-118.3938851">
  <ele>-0.106</ele>
  <time>2026-09-02T22:07:31Z</time>
  <course>186.89</course>
  <speed>0.7286288492778747</speed>
  <fix>3d</fix>
</trkpt>
<trkpt lat="33.8102966" lon="-118.3938851">
  <ele>-0.106</ele>
  <time>2026-09-02T22:07:31Z</time>
  <course>186.89</course>
  <speed>0.7213875518748573</speed>
  <fix>3d</fix>
</trkpt>
<trkpt lat="33.8102965" lon="-118.3938851">
  <ele>-0.106</ele>
  <time>2026-09-02T22:07:31Z</time>
  <course>186.89</course>
  <speed>0.7213875518748573</speed>
  <fix>3d</fix>
</trkpt>
<trkpt lat="33.8102965" lon="-118.3938852">
  <ele>-0.107</ele>
  <time>2026-09-02T22:07:31Z</time>
  <course>186.89</course>
  <speed>0.7213875518748573</speed>
  <fix>3d</fix>
</trkpt>
<trkpt lat="33.8102964" lon="-118.3938852">
  <ele>-0.107</ele>
  <time>2026-09-02T22:07:31Z</time>
  <course>186.89</course>
  <speed>0.7213875518748573</speed>
  <fix>3d</fix>
</trkpt>
<trkpt lat="33.8102964" lon="-118.3938853">
  <ele>-0.107</ele>
  <time>2026-09-02T22:07:31Z</time>
  <course>186.89</course>
  <speed>0.7286288492778747</speed>
  <fix>3d</fix>
</trkpt>
<trkpt lat="33.8102964" lon="-118.3938853">
  <ele>-0.107</ele>
  <time>2026-09-02T22:07:31Z</time>
  <course>186.89</course>
  <speed>0.7213875518748573</speed>
  <fix>3d</fix>
</trkpt>
<trkpt lat="33.8102963" lon="-118.3938854">
  <ele>-0.108</ele>
  <time>2026-09-02T22:07:31Z</time>
  <course>186.89</course>
  <speed>0.7286288492778747</speed>
  <fix>3d</fix>
</trkpt>
<trkpt lat="33.8102963" lon="-118.3938854">
  <ele>-0.108</ele>
  <time>2026-09-02T22:07:31Z</time>
  <course>186.89</course>
  <speed>0.7213875518748573</speed>
  <fix>3d</fix>
</trkpt>
<trkpt lat="33.8102969" lon="-118.3938847">
  <ele>-0.1</ele>
  <time>2026-09-02T22:07:31Z</time>
  <course>223.26</course>
  <speed>0.73</speed>
  <fix>3d</fix>
</trkpt>
<trkpt lat="33.8102963" lon="-118.3938854">
  <ele>-0.108</ele>
  <time>2026-09-02T22:07:31Z</time>
  <course>186.89</course>
  <speed>0.7286288492778747</speed>
  <fix>3d</fix>
</trkpt>
<trkpt lat="33.8102963" lon="-118.3938854">
  <ele>-0.108</ele>
  <time>2026-09-02T22:07:31Z</time>
  <course>186.89</course>
  <speed>0.7213875518748573</speed>
  <fix>3d</fix>
</trkpt>
<trkpt lat="33.8102962" lon="-118.3938855">
  <ele>-0.109</ele>
  <time>2026-09-02T22:07:31Z</time>
  <course>186.89</course>
  <speed>0.7286288492778747</speed>
  <fix>3d</fix>
</trkpt>
<trkpt lat="33.8102962" lon="-118.3938855">
  <ele>-0.109</ele>
  <time>2026-09-02T22:07:31Z</time>
  <course>186.89</course>
  <speed>0.7286288492778747</speed>
  <fix>3d</fix>
</trkpt>
<trkpt lat="33.8102961" lon="-118.3938856">
  <ele>-0.109</ele>
  <time>2026-09-02T22:07:31Z</time>
  <course>186.89</course>
  <speed>0.7286288492778747</speed>
  <fix>3d</fix>
</trkpt>
<trkpt lat="33.8102961" lon="-118.3938856">
  <ele>-0.109</ele>
  <time>2026-09-02T22:07:31Z</time>
  <course>186.89</course>
  <speed>0.7286288492778747</speed>
  <fix>3d</fix>
</trkpt>
<trkpt lat="33.8102961" lon="-118.3938856">
  <ele>-0.11</ele>
  <time>2026-09-02T22:07:31Z</time>
  <course>186.89</course>
  <speed>0.7213875518748573</speed>
  <fix>3d</fix>
</trkpt>
<trkpt lat="33.810296" lon="-118.3938857">
  <ele>-0.11</ele>
  <time>2026-09-02T22:07:31Z</time>
  <course>186.89</course>
  <speed>0.7286288492778747</speed>
  <fix>3d</fix>
</trkpt>
<trkpt lat="33.810296" lon="-118.3938857">
  <ele>-0.11</ele>
  <time>2026-09-02T22:07:31Z</time>
  <course>186.89</course>
  <speed>0.7213875518748573</speed>
  <fix>3d</fix>
</trkpt>
<trkpt lat="33.810296" lon="-118.3938858">
  <ele>-0.111</ele>
  <time>2026-09-02T22:07:31Z</time>
  <course>186.89</course>
  <speed>0.7213875518748573</speed>
  <fix>3d</fix>
</trkpt>
<trkpt lat="33.8102959" lon="-118.3938858">
  <ele>-0.111</ele>
  <time>2026-09-02T22:07:31Z</time>
  <course>186.89</course>
  <speed>0.7213875518748573</speed>
  <fix>3d</fix>
</trkpt>
<trkpt lat="33.8102959" lon="-118.3938859">
  <ele>-0.111</ele>
  <time>2026-09-02T22:07:31Z</time>
  <course>186.89</course>
  <speed>0.7213875518748573</speed>
  <fix>3d</fix>
</trkpt>
<trkpt lat="33.8102959" lon="-118.3938859">
  <ele>-0.112</ele>
  <time>2026-09-02T22:07:31Z</time>
  <course>186.89</course>
  <speed>0.7213875518748573</speed>
  <fix>3d</fix>
</trkpt>
<trkpt lat="33.8102958" lon="-118.3938859">
  <ele>-0.112</ele>
  <time>2026-09-02T22:07:31Z</time>
  <course>186.89</course>
  <speed>0.7213875518748573</speed>
  <fix>3d</fix>
</trkpt>
<trkpt lat="33.8102969" lon="-118.3938847">
  <ele>-0.1</ele>
  <time>2026-09-02T22:07:31Z</time>
  <course>223.26</course>
  <speed>0.73</speed>
  <fix>3d</fix>
</trkpt>
<trkpt lat="33.8102958" lon="-118.3938859">
  <ele>-0.112</ele>
  <time>2026-09-02T22:07:31Z</time>
  <course>186.89</course>
  <speed>0.7213875518748573</speed>
  <fix>3d</fix>
</trkpt>
<trkpt lat="33.8102958" lon="-118.393886">
  <ele>-0.112</ele>
  <time>2026-09-02T22:07:31Z</time>
  <course>186.89</course>
  <speed>0.7213875518748573</speed>
  <fix>3d</fix>
</trkpt>
<trkpt lat="33.8102957" lon="-118.3938861">
  <ele>-0.113</ele>
  <time>2026-09-02T22:07:31Z</time>
  <course>186.89</course>
  <speed>0.7213875518748573</speed>
  <fix>3d</fix>
</trkpt>
<trkpt lat="33.8102957" lon="-118.3938861">
  <ele>-0.113</ele>
  <time>2026-09-02T22:07:31Z</time>
  <course>186.89</course>
  <speed>0.7213875518748573</speed>
  <fix>3d</fix>
</trkpt>
<trkpt lat="33.8102956" lon="-118.3938861">
  <ele>-0.113</ele>
  <time>2026-09-02T22:07:31Z</time>
  <course>186.89</course>
  <speed>0.7213875518748573</speed>
  <fix>3d</fix>
</trkpt>
<trkpt lat="33.8102956" lon="-118.3938862">
  <ele>-0.114</ele>
  <time>2026-09-02T22:07:31Z</time>
  <course>186.89</course>
  <speed>0.7213875518748573</speed>
  <fix>3d</fix>
</trkpt>
<trkpt lat="33.8102956" lon="-118.3938862">
  <ele>-0.114</ele>
  <time>2026-09-02T22:07:31Z</time>
  <course>186.89</course>
  <speed>0.7213875518748573</speed>
  <fix>3d</fix>
</trkpt>
<trkpt lat="33.8102955" lon="-118.3938863">
  <ele>-0.114</ele>
  <time>2026-09-02T22:07:31Z</time>
  <course>186.89</course>
  <speed>0.7213875518748573</speed>
  <fix>3d</fix>
</trkpt>
<trkpt lat="33.8102955" lon="-118.3938863">
  <ele>-0.115</ele>
  <time>2026-09-02T22:07:31Z</time>
  <course>186.89</course>
  <speed>0.7213875518748573</speed>
  <fix>3d</fix>
</trkpt>
<trkpt lat="33.8102954" lon="-118.3938864">
  <ele>-0.115</ele>
  <time>2026-09-02T22:07:31Z</time>
  <course>186.88</course>
  <speed>0.7213875518748573</speed>
  <fix>3d</fix>
</trkpt>
<trkpt lat="33.8102954" lon="-118.3938864">
  <ele>-0.115</ele>
  <time>2026-09-02T22:07:31Z</time>
  <course>186.88</course>
  <speed>0.7213875518748573</speed>
  <fix>3d</fix>
</trkpt>
<trkpt lat="33.8102954" lon="-118.3938864">
  <ele>-0.116</ele>
  <time>2026-09-02T22:07:31Z</time>
  <course>186.88</course>
  <speed>0.7213875518748573</speed>
  <fix>3d</fix>
</trkpt>
<trkpt lat="33.8102954" lon="-118.3938865">
  <ele>-0.116</ele>
  <time>2026-09-02T22:07:31Z</time>
  <course>186.88</course>
  <speed>0.7213875518748573</speed>
  <fix>3d</fix>
</trkpt>
<trkpt lat="33.8102959" lon="-118.3938858">
  <ele>-0.1</ele>
  <time>2026-09-02T22:07:31Z</time>
  <course>223.26</course>
  <speed>0.73</speed>
  <fix>3d</fix>
</trkpt>
<trkpt lat="33.8102953" lon="-118.3938865">
  <ele>-0.116</ele>
  <time>2026-09-02T22:07:31Z</time>
  <course>186.88</course>
  <speed>0.7213875518748573</speed>
  <fix>3d</fix>
</trkpt>
<trkpt lat="33.8102953" lon="-118.3938865">
  <ele>-0.116</ele>
  <time>2026-09-02T22:07:31Z</time>
  <course>186.88</course>
  <speed>0.7213875518748573</speed>
  <fix>3d</fix>
</trkpt>
<trkpt lat="33.8102952" lon="-118.3938866">
  <ele>-0.116</ele>
  <time>2026-09-02T22:07:31Z</time>
  <course>186.88</course>
  <speed>0.7213875518748573</speed>
  <fix>3d</fix>
</trkpt>
<trkpt lat="33.8102952" lon="-118.3938866">
  <ele>-0.117</ele>
  <time>2026-09-02T22:07:31Z</time>
  <course>186.88</course>
  <speed>0.7213875518748573</speed>
  <fix>3d</fix>
</trkpt>
<trkpt lat="33.8102952" lon="-118.3938867">
  <ele>-0.117</ele>
  <time>2026-09-02T22:07:31Z</time>
  <course>186.88</course>
  <speed>0.7213875518748573</speed>
  <fix>3d</fix>
</trkpt>
<trkpt lat="33.8102951" lon="-118.3938867">
  <ele>-0.117</ele>
  <time>2026-09-02T22:07:31Z</time>
  <course>186.88</course>
  <speed>0.7213875518748573</speed>
  <fix>3d</fix>
</trkpt>
<trkpt lat="33.8102951" lon="-118.3938867">
  <ele>-0.117</ele>
  <time>2026-09-02T22:07:31Z</time>
  <course>186.88</course>
  <speed>0.7213875518748573</speed>
  <fix>3d</fix>
</trkpt>
<trkpt lat="33.8102951" lon="-118.3938868">
  <ele>-0.117</ele>
  <time>2026-09-02T22:07:31Z</time>
  <course>186.88</course>
  <speed>0.7213875518748573</speed>
  <fix>3d</fix>
</trkpt>
<trkpt lat="33.810295" lon="-118.3938868">
  <ele>-0.117</ele>
  <time>2026-09-02T22:07:31Z</time>
  <course>186.88</course>
  <speed>0.7213875518748573</speed>
  <fix>3d</fix>
</trkpt>
<trkpt lat="33.810295" lon="-118.3938869">
  <ele>-0.118</ele>
  <time>2026-09-02T22:07:31Z</time>
  <course>186.88</course>
  <speed>0.7213875518748573</speed>
  <fix>3d</fix>
</trkpt>
<trkpt lat="33.810295" lon="-118.3938869">
  <ele>-0.118</ele>
  <time>2026-09-02T22:07:31Z</time>
  <course>186.88</course>
  <speed>0.7213875518748573</speed>
  <fix>3d</fix>
</trkpt>
<trkpt lat="33.8102949" lon="-118.393887">
  <ele>-0.118</ele>
  <time>2026-09-02T22:07:31Z</time>
  <course>186.88</course>
  <speed>0.7213875518748573</speed>
  <fix>3d</fix>
</trkpt>
<trkpt lat="33.8102949" lon="-118.393887">
  <ele>-0.118</ele>
  <time>2026-09-02T22:07:31Z</time>
  <course>186.88</course>
  <speed>0.7213875518748573</speed>
  <fix>3d</fix>
</trkpt>
<trkpt lat="33.8102949" lon="-118.393887">
  <ele>-0.118</ele>
  <time>2026-09-02T22:07:31Z</time>
  <course>186.88</course>
  <speed>0.7213875518748573</speed>
  <fix>3d</fix>
</trkpt>
<trkpt lat="33.8102959" lon="-118.3938858">
  <ele>-0.1</ele>
  <time>2026-09-02T22:07:31Z</time>
  <course>223.26</course>
  <speed>0.73</speed>
  <fix>3d</fix>
</trkpt>
<trkpt lat="33.8102949" lon="-118.393887">
  <ele>-0.118</ele>
  <time>2026-09-02T22:07:31Z</time>
  <course>186.88</course>
  <speed>0.7213875518748573</speed>
  <fix>3d</fix>
</trkpt>
<trkpt lat="33.8102948" lon="-118.3938871">
  <ele>-0.118</ele>
  <time>2026-09-02T22:07:31Z</time>
  <course>186.88</course>
  <speed>0.7213875518748573</speed>
  <fix>3d</fix>
</trkpt>
<trkpt lat="33.8102948" lon="-118.3938871">
  <ele>-0.118</ele>
  <time>2026-09-02T22:07:31Z</time>
  <course>186.88</course>
  <speed>0.7213875518748573</speed>
  <fix>3d</fix>
</trkpt>
<trkpt lat="33.8102947" lon="-118.3938872">
  <ele>-0.118</ele>
  <time>2026-09-02T22:07:31Z</time>
  <course>186.88</course>
  <speed>0.7213875518748573</speed>
  <fix>3d</fix>
</trkpt>
<trkpt lat="33.8102947" lon="-118.3938872">
  <ele>-0.118</ele>
  <time>2026-09-02T22:07:31Z</time>
  <course>186.88</course>
  <speed>0.7213875518748573</speed>
  <fix>3d</fix>
</trkpt>
<trkpt lat="33.8102946" lon="-118.3938873">
  <ele>-0.118</ele>
  <time>2026-09-02T22:07:31Z</time>
  <course>186.88</course>
  <speed>0.7213875518748573</speed>
  <fix>3d</fix>
</trkpt>
<trkpt lat="33.8102946" lon="-118.3938873">
  <ele>-0.117</ele>
  <time>2026-09-02T22:07:31Z</time>
  <course>186.88</course>
  <speed>0.7213875518748573</speed>
  <fix>3d</fix>
</trkpt>
<trkpt lat="33.8102946" lon="-118.3938873">
  <ele>-0.117</ele>
  <time>2026-09-02T22:07:31Z</time>
  <course>186.88</course>
  <speed>0.7213875518748573</speed>
  <fix>3d</fix>
</trkpt>
<trkpt lat="33.8102945" lon="-118.3938874">
  <ele>-0.117</ele>
  <time>2026-09-02T22:07:31Z</time>
  <course>186.88</course>
  <speed>0.7213875518748573</speed>
  <fix>3d</fix>
</trkpt>
<trkpt lat="33.8102945" lon="-118.3938874">
  <ele>-0.117</ele>
  <time>2026-09-02T22:07:31Z</time>
  <course>186.88</course>
  <speed>0.7213875518748573</speed>
  <fix>3d</fix>
</trkpt>
<trkpt lat="33.8102945" lon="-118.3938875">
  <ele>-0.117</ele>
  <time>2026-09-02T22:07:31Z</time>
  <course>186.88</course>
  <speed>0.7213875518748573</speed>
  <fix>3d</fix>
</trkpt>
<trkpt lat="33.8102944" lon="-118.3938875">
  <ele>-0.117</ele>
  <time>2026-09-02T22:07:31Z</time>
  <course>186.88</course>
  <speed>0.7213875518748573</speed>
  <fix>3d</fix>
</trkpt>
<trkpt lat="33.8102944" lon="-118.3938876">
  <ele>-0.117</ele>
  <time>2026-09-02T22:07:31Z</time>
  <course>186.88</course>
  <speed>0.7213875518748573</speed>
  <fix>3d</fix>
</trkpt>
<trkpt lat="33.8102944" lon="-118.3938876">
  <ele>-0.117</ele>
  <time>2026-09-02T22:07:31Z</time>
  <course>186.88</course>
  <speed>0.7213875518748573</speed>
  <fix>3d</fix>
</trkpt>
<trkpt lat="33.8102949" lon="-118.3938869">
  <ele>-0.11</ele>
  <time>2026-09-02T22:07:31Z</time>
  <course>223.26</course>
  <speed>0.73</speed>
  <fix>3d</fix>
</trkpt>
<trkpt lat="33.8102943" lon="-118.3938876">
  <ele>-0.116</ele>
  <time>2026-09-02T22:07:31Z</time>
  <course>186.88</course>
  <speed>0.7213875518748573</speed>
  <fix>3d</fix>
</trkpt>
<trkpt lat="33.8102943" lon="-118.3938877">
  <ele>-0.116</ele>
  <time>2026-09-02T22:07:31Z</time>
  <course>186.88</course>
  <speed>0.7213875518748573</speed>
  <fix>3d</fix>
</trkpt>
<trkpt lat="33.8102942" lon="-118.3938877">
  <ele>-0.116</ele>
  <time>2026-09-02T22:07:31Z</time>
  <course>186.87</course>
  <speed>0.7213875518748573</speed>
  <fix>3d</fix>
</trkpt>
<trkpt lat="33.8102942" lon="-118.3938878">
  <ele>-0.116</ele>
  <time>2026-09-02T22:07:31Z</time>
  <course>186.87</course>
  <speed>0.7213875518748573</speed>
  <fix>3d</fix>
</trkpt>
<trkpt lat="33.8102941" lon="-118.3938878">
  <ele>-0.115</ele>
  <time>2026-09-02T22:07:31Z</time>
  <course>186.87</course>
  <speed>0.7213875518748573</speed>
  <fix>3d</fix>
</trkpt>
<trkpt lat="33.8102941" lon="-118.3938879">
  <ele>-0.115</ele>
  <time>2026-09-02T22:07:31Z</time>
  <course>186.87</course>
  <speed>0.7213875518748573</speed>
  <fix>3d</fix>
</trkpt>
<trkpt lat="33.8102941" lon="-118.3938879">
  <ele>-0.114</ele>
  <time>2026-09-02T22:07:31Z</time>
  <course>186.87</course>
  <speed>0.7213875518748573</speed>
  <fix>3d</fix>
</trkpt>
<trkpt lat="33.810294" lon="-118.3938879">
  <ele>-0.114</ele>
  <time>2026-09-02T22:07:31Z</time>
  <course>186.87</course>
  <speed>0.7213875518748573</speed>
  <fix>3d</fix>
</trkpt>
<trkpt lat="33.810294" lon="-118.393888">
  <ele>-0.114</ele>
  <time>2026-09-02T22:07:31Z</time>
  <course>186.87</course>
  <speed>0.7213875518748573</speed>
  <fix>3d</fix>
</trkpt>
<trkpt lat="33.810294" lon="-118.393888">
  <ele>-0.114</ele>
  <time>2026-09-02T22:07:31Z</time>
  <course>186.87</course>
  <speed>0.7213875518748573</speed>
  <fix>3d</fix>
</trkpt>
<trkpt lat="33.8102939" lon="-118.3938881">
  <ele>-0.113</ele>
  <time>2026-09-02T22:07:31Z</time>
  <course>186.87</course>
  <speed>0.7213875518748573</speed>
  <fix>3d</fix>
</trkpt>
<trkpt lat="33.8102939" lon="-118.3938881">
  <ele>-0.113</ele>
  <time>2026-09-02T22:07:31Z</time>
  <course>186.87</course>
  <speed>0.7213875518748573</speed>
  <fix>3d</fix>
</trkpt>
<trkpt lat="33.8102949" lon="-118.3938869">
  <ele>-0.11</ele>
  <time>2026-09-02T22:07:31Z</time>
  <course>223.26</course>
  <speed>0.73</speed>
  <fix>3d</fix>
</trkpt>
<trkpt lat="33.8102939" lon="-118.3938881">
  <ele>-0.113</ele>
  <time>2026-09-02T22:07:31Z</time>
  <course>186.87</course>
  <speed>0.7213875518748573</speed>
  <fix>3d</fix>
</trkpt>
<trkpt lat="33.8102939" lon="-118.3938882">
  <ele>-0.112</ele>
  <time>2026-09-02T22:07:31Z</time>
  <course>186.87</course>
  <speed>0.7213875518748573</speed>
  <fix>3d</fix>
</trkpt>
<trkpt lat="33.8102938" lon="-118.3938882">
  <ele>-0.112</ele>
  <time>2026-09-02T22:07:31Z</time>
  <course>186.87</course>
  <speed>0.7213875518748573</speed>
  <fix>3d</fix>
</trkpt>
<trkpt lat="33.8102938" lon="-118.3938882">
  <ele>-0.111</ele>
  <time>2026-09-02T22:07:31Z</time>
  <course>186.87</course>
  <speed>0.7213875518748573</speed>
  <fix>3d</fix>
</trkpt>
<trkpt lat="33.8102937" lon="-118.3938883">
  <ele>-0.111</ele>
  <time>2026-09-02T22:07:31Z</time>
  <course>186.87</course>
  <speed>0.7213875518748573</speed>
  <fix>3d</fix>
</trkpt>
<trkpt lat="33.8102937" lon="-118.3938883">
  <ele>-0.111</ele>
  <time>2026-09-02T22:07:31Z</time>
  <course>186.87</course>
  <speed>0.7213875518748573</speed>
  <fix>3d</fix>
</trkpt>
<trkpt lat="33.8102937" lon="-118.3938884">
  <ele>-0.11</ele>
  <time>2026-09-02T22:07:31Z</time>
  <course>186.87</course>
  <speed>0.7213875518748573</speed>
  <fix>3d</fix>
</trkpt>
<trkpt lat="33.8102936" lon="-118.3938884">
  <ele>-0.11</ele>
  <time>2026-09-02T22:07:31Z</time>
  <course>186.87</course>
  <speed>0.7213875518748573</speed>
  <fix>3d</fix>
</trkpt>
<trkpt lat="33.8102936" lon="-118.3938884">
  <ele>-0.109</ele>
  <time>2026-09-02T22:07:31Z</time>
  <course>186.87</course>
  <speed>0.7213875518748573</speed>
  <fix>3d</fix>
</trkpt>
<trkpt lat="33.8102936" lon="-118.3938885">
  <ele>-0.109</ele>
  <time>2026-09-02T22:07:31Z</time>
  <course>186.87</course>
  <speed>0.7213875518748573</speed>
  <fix>3d</fix>
</trkpt>
<trkpt lat="33.8102935" lon="-118.3938885">
  <ele>-0.108</ele>
  <time>2026-09-02T22:07:31Z</time>
  <course>186.87</course>
  <speed>0.7213875518748573</speed>
  <fix>3d</fix>
</trkpt>
<trkpt lat="33.8102935" lon="-118.3938886">
  <ele>-0.108</ele>
  <time>2026-09-02T22:07:31Z</time>
  <course>186.87</course>
  <speed>0.7213875518748573</speed>
  <fix>3d</fix>
</trkpt>
<trkpt lat="33.8102935" lon="-118.3938886">
  <ele>-0.108</ele>
  <time>2026-09-02T22:07:31Z</time>
  <course>186.87</course>
  <speed>0.7213875518748573</speed>
  <fix>3d</fix>
</trkpt>
<trkpt lat="33.8102934" lon="-118.3938886">
  <ele>-0.107</ele>
  <time>2026-09-02T22:07:31Z</time>
  <course>186.87</course>
  <speed>0.7213875518748573</speed>
  <fix>3d</fix>
</trkpt>
<trkpt lat="33.8102934" lon="-118.3938886">
  <ele>-0.107</ele>
  <time>2026-09-02T22:07:31Z</time>
  <course>186.87</course>
  <speed>0.7213875518748573</speed>
  <fix>3d</fix>
</trkpt>
<trkpt lat="33.810294" lon="-118.393888">
  <ele>-0.11</ele>
  <time>2026-09-02T22:07:31Z</time>
  <course>223.26</course>
  <speed>0.73</speed>
  <fix>3d</fix>
</trkpt>
<trkpt lat="33.8102934" lon="-118.3938887">
  <ele>-0.106</ele>
  <time>2026-09-02T22:07:31Z</time>
  <course>186.87</course>
  <speed>0.7213875518748573</speed>
  <fix>3d</fix>
</trkpt>
<trkpt lat="33.8102933" lon="-118.3938888">
  <ele>-0.106</ele>
  <time>2026-09-02T22:07:31Z</time>
  <course>186.87</course>
  <speed>0.7213875518748573</speed>
  <fix>3d</fix>
</trkpt>
<trkpt lat="33.8102933" lon="-118.3938888">
  <ele>-0.105</ele>
  <time>2026-09-02T22:07:31Z</time>
  <course>186.87</course>
  <speed>0.7213875518748573</speed>
  <fix>3d</fix>
</trkpt>
<trkpt lat="33.8102932" lon="-118.3938889">
  <ele>-0.105</ele>
  <time>2026-09-02T22:07:31Z</time>
  <course>186.87</course>
  <speed>0.7213875518748573</speed>
  <fix>3d</fix>
</trkpt>
<trkpt lat="33.8102932" lon="-118.3938889">
  <ele>-0.105</ele>
  <time>2026-09-02T22:07:31Z</time>
  <course>186.87</course>
  <speed>0.7213875518748573</speed>
  <fix>3d</fix>
</trkpt>
<trkpt lat="33.8102932" lon="-118.3938889">
  <ele>-0.104</ele>
  <time>2026-09-02T22:07:31Z</time>
  <course>186.87</course>
  <speed>0.7213875518748573</speed>
  <fix>3d</fix>
</trkpt>
<trkpt lat="33.8102931" lon="-118.393889">
  <ele>-0.104</ele>
  <time>2026-09-02T22:07:31Z</time>
  <course>186.87</course>
  <speed>0.7213875518748573</speed>
  <fix>3d</fix>
</trkpt>
<trkpt lat="33.8102931" lon="-118.393889">
  <ele>-0.103</ele>
  <time>2026-09-02T22:07:31Z</time>
  <course>186.87</course>
  <speed>0.7213875518748573</speed>
  <fix>3d</fix>
</trkpt>
<trkpt lat="33.8102931" lon="-118.3938891">
  <ele>-0.103</ele>
  <time>2026-09-02T22:07:31Z</time>
  <course>186.87</course>
  <speed>0.7213875518748573</speed>
  <fix>3d</fix>
</trkpt>
<trkpt lat="33.810293" lon="-118.3938891">
  <ele>-0.102</ele>
  <time>2026-09-02T22:07:31Z</time>
  <course>186.86</course>
  <speed>0.7213875518748573</speed>
  <fix>3d</fix>
</trkpt>
<trkpt lat="33.810293" lon="-118.3938892">
  <ele>-0.102</ele>
  <time>2026-09-02T22:07:31Z</time>
  <course>186.86</course>
  <speed>0.7213875518748573</speed>
  <fix>3d</fix>
</trkpt>
<trkpt lat="33.8102929" lon="-118.3938892">
  <ele>-0.102</ele>
  <time>2026-09-02T22:07:31Z</time>
  <course>186.86</course>
  <speed>0.7213875518748573</speed>
  <fix>3d</fix>
</trkpt>
<trkpt lat="33.8102929" lon="-118.3938892">
  <ele>-0.102</ele>
  <time>2026-09-02T22:07:31Z</time>
  <course>186.86</course>
  <speed>0.7213875518748573</speed>
  <fix>3d</fix>
</trkpt>
<trkpt lat="33.810294" lon="-118.393888">
  <ele>-0.11</ele>
  <time>2026-09-02T22:07:31Z</time>
  <course>223.26</course>
  <speed>0.73</speed>
  <fix>3d</fix>
</trkpt>
<trkpt lat="33.8102929" lon="-118.3938892">
  <ele>-0.101</ele>
  <time>2026-09-02T22:07:31Z</time>
  <course>186.86</course>
  <speed>0.7213875518748573</speed>
  <fix>3d</fix>
</trkpt>
<trkpt lat="33.8102929" lon="-118.3938893">
  <ele>-0.101</ele>
  <time>2026-09-02T22:07:31Z</time>
  <course>186.86</course>
  <speed>0.7213875518748573</speed>
  <fix>3d</fix>
</trkpt>
<trkpt lat="33.8102928" lon="-118.3938893">
  <ele>-0.101</ele>
  <time>2026-09-02T22:07:31Z</time>
  <course>186.86</course>
  <speed>0.7213875518748573</speed>
  <fix>3d</fix>
</trkpt>
<trkpt lat="33.8102928" lon="-118.3938894">
  <ele>-0.1</ele>
  <time>2026-09-02T22:07:31Z</time>
  <course>186.86</course>
  <speed>0.7213875518748573</speed>
  <fix>3d</fix>
</trkpt>
<trkpt lat="33.8102928" lon="-118.3938894">
  <ele>-0.1</ele>
  <time>2026-09-02T22:07:31Z</time>
  <course>186.86</course>
  <speed>0.7213875518748573</speed>
  <fix>3d</fix>
</trkpt>
<trkpt lat="33.8102927" lon="-118.3938895">
  <ele>-0.1</ele>
  <time>2026-09-02T22:07:31Z</time>
  <course>186.86</course>
  <speed>0.7213875518748573</speed>
  <fix>3d</fix>
</trkpt>
<trkpt lat="33.8102927" lon="-118.3938895">
  <ele>-0.099</ele>
  <time>2026-09-02T22:07:31Z</time>
  <course>186.86</course>
  <speed>0.7213875518748573</speed>
  <fix>3d</fix>
</trkpt>
<trkpt lat="33.8102926" lon="-118.3938895">
  <ele>-0.099</ele>
  <time>2026-09-02T22:07:31Z</time>
  <course>186.86</course>
  <speed>0.7213875518748573</speed>
  <fix>3d</fix>
</trkpt>
<trkpt lat="33.8102926" lon="-118.3938896">
  <ele>-0.099</ele>
  <time>2026-09-02T22:07:31Z</time>
  <course>186.86</course>
  <speed>0.7213875518748573</speed>
  <fix>3d</fix>
</trkpt>
<trkpt lat="33.8102926" lon="-118.3938896">
  <ele>-0.098</ele>
  <time>2026-09-02T22:07:31Z</time>
  <course>186.86</course>
  <speed>0.7213875518748573</speed>
  <fix>3d</fix>
</trkpt>
<trkpt lat="33.8102925" lon="-118.3938897">
  <ele>-0.098</ele>
  <time>2026-09-02T22:07:31Z</time>
  <course>186.86</course>
  <speed>0.7213875518748573</speed>
  <fix>3d</fix>
</trkpt>
<trkpt lat="33.8102925" lon="-118.3938897">
  <ele>-0.098</ele>
  <time>2026-09-02T22:07:31Z</time>
  <course>186.86</course>
  <speed>0.7213875518748573</speed>
  <fix>3d</fix>
</trkpt>
<trkpt lat="33.8102925" lon="-118.3938897">
  <ele>-0.098</ele>
  <time>2026-09-02T22:07:31Z</time>
  <course>186.86</course>
  <speed>0.7213875518748573</speed>
  <fix>3d</fix>
</trkpt>
<trkpt lat="33.810293" lon="-118.3938891">
  <ele>-0.1</ele>
  <time>2026-09-02T22:07:31Z</time>
  <course>223.26</course>
  <speed>0.73</speed>
  <fix>3d</fix>
</trkpt>
<trkpt lat="33.8102924" lon="-118.3938898">
  <ele>-0.098</ele>
  <time>2026-09-02T22:07:31Z</time>
  <course>186.86</course>
  <speed>0.7213875518748573</speed>
  <fix>3d</fix>
</trkpt>
<trkpt lat="33.8102924" lon="-118.3938898">
  <ele>-0.098</ele>
  <time>2026-09-02T22:07:31Z</time>
  <course>186.86</course>
  <speed>0.7213875518748573</speed>
  <fix>3d</fix>
</trkpt>
<trkpt lat="33.8102924" lon="-118.3938899">
  <ele>-0.098</ele>
  <time>2026-09-02T22:07:31Z</time>
  <course>186.86</course>
  <speed>0.7213875518748573</speed>
  <fix>3d</fix>
</trkpt>
<trkpt lat="33.8102923" lon="-118.3938899">
  <ele>-0.097</ele>
  <time>2026-09-02T22:07:31Z</time>
  <course>186.86</course>
  <speed>0.7213875518748573</speed>
  <fix>3d</fix>
</trkpt>
<trkpt lat="33.8102923" lon="-118.3938899">
  <ele>-0.097</ele>
  <time>2026-09-02T22:07:31Z</time>
  <course>186.86</course>
  <speed>0.7213875518748573</speed>
  <fix>3d</fix>
</trkpt>
<trkpt lat="33.8102923" lon="-118.39389">
  <ele>-0.097</ele>
  <time>2026-09-02T22:07:31Z</time>
  <course>186.86</course>
  <speed>0.7213875518748573</speed>
  <fix>3d</fix>
</trkpt>
<trkpt lat="33.8102922" lon="-118.39389">
  <ele>-0.097</ele>
  <time>2026-09-02T22:07:31Z</time>
  <course>186.86</course>
  <speed>0.7213875518748573</speed>
  <fix>3d</fix>
</trkpt>
<trkpt lat="33.8102922" lon="-118.3938901">
  <ele>-0.097</ele>
  <time>2026-09-02T22:07:31Z</time>
  <course>186.86</course>
  <speed>0.7213875518748573</speed>
  <fix>3d</fix>
</trkpt>
<trkpt lat="33.8102921" lon="-118.3938901">
  <ele>-0.097</ele>
  <time>2026-09-02T22:07:31Z</time>
  <course>186.86</course>
  <speed>0.7213875518748573</speed>
  <fix>3d</fix>
</trkpt>
<trkpt lat="33.8102921" lon="-118.3938901">
  <ele>-0.097</ele>
  <time>2026-09-02T22:07:31Z</time>
  <course>186.86</course>
  <speed>0.7213875518748573</speed>
  <fix>3d</fix>
</trkpt>
<trkpt lat="33.8102921" lon="-118.3938902">
  <ele>-0.097</ele>
  <time>2026-09-02T22:07:31Z</time>
  <course>186.86</course>
  <speed>0.7213875518748573</speed>
  <fix>3d</fix>
</trkpt>
<trkpt lat="33.810292" lon="-118.3938902">
  <ele>-0.097</ele>
  <time>2026-09-02T22:07:31Z</time>
  <course>186.86</course>
  <speed>0.7213875518748573</speed>
  <fix>3d</fix>
</trkpt>
<trkpt lat="33.810292" lon="-118.3938903">
  <ele>-0.097</ele>
  <time>2026-09-02T22:07:31Z</time>
  <course>186.86</course>
  <speed>0.7213875518748573</speed>
  <fix>3d</fix>
</trkpt>
<trkpt lat="33.810292" lon="-118.3938903">
  <ele>-0.097</ele>
  <time>2026-09-02T22:07:31Z</time>
  <course>186.86</course>
  <speed>0.7213875518748573</speed>
  <fix>3d</fix>
</trkpt>
<trkpt lat="33.810293" lon="-118.3938891">
  <ele>-0.1</ele>
  <time>2026-09-02T22:07:31Z</time>
  <course>223.26</course>
  <speed>0.73</speed>
  <fix>3d</fix>
</trkpt>
<trkpt lat="33.810292" lon="-118.3938903">
  <ele>-0.097</ele>
  <time>2026-09-02T22:07:31Z</time>
  <course>186.86</course>
  <speed>0.7213875518748573</speed>
  <fix>3d</fix>
</trkpt>
<trkpt lat="33.8102919" lon="-118.3938904">
  <ele>-0.097</ele>
  <time>2026-09-02T22:07:31Z</time>
  <course>186.86</course>
  <speed>0.7213875518748573</speed>
  <fix>3d</fix>
</trkpt>
<trkpt lat="33.8102918" lon="-118.3938904">
  <ele>-0.097</ele>
  <time>2026-09-02T22:07:31Z</time>
  <course>186.86</course>
  <speed>0.7213875518748573</speed>
  <fix>3d</fix>
</trkpt>
<trkpt lat="33.8102918" lon="-118.3938905">
  <ele>-0.097</ele>
  <time>2026-09-02T22:07:31Z</time>
  <course>186.86</course>
  <speed>0.7213875518748573</speed>
  <fix>3d</fix>
</trkpt>
<trkpt lat="33.8102918" lon="-118.3938905">
  <ele>-0.097</ele>
  <time>2026-09-02T22:07:31Z</time>
  <course>186.86</course>
  <speed>0.7213875518748573</speed>
  <fix>3d</fix>
</trkpt>
<trkpt lat="33.8102917" lon="-118.3938906">
  <ele>-0.098</ele>
  <time>2026-09-02T22:07:31Z</time>
  <course>186.86</course>
  <speed>0.7213875518748573</speed>
  <fix>3d</fix>
</trkpt>
<trkpt lat="33.8102917" lon="-118.3938906">
  <ele>-0.098</ele>
  <time>2026-09-02T22:07:31Z</time>
  <course>186.85</course>
  <speed>0.7213875518748573</speed>
  <fix>3d</fix>
</trkpt>
<trkpt lat="33.8102916" lon="-118.3938907">
  <ele>-0.098</ele>
  <time>2026-09-02T22:07:31Z</time>
  <course>186.85</course>
  <speed>0.7213875518748573</speed>
  <fix>3d</fix>
</trkpt>
<trkpt lat="33.8102916" lon="-118.3938907">
  <ele>-0.098</ele>
  <time>2026-09-02T22:07:31Z</time>
  <course>186.85</course>
  <speed>0.7213875518748573</speed>
  <fix>3d</fix>
</trkpt>
<trkpt lat="33.8102916" lon="-118.3938908">
  <ele>-0.099</ele>
  <time>2026-09-02T22:07:31Z</time>
  <course>186.85</course>
  <speed>0.7213875518748573</speed>
  <fix>3d</fix>
</trkpt>
<trkpt lat="33.8102915" lon="-118.3938908">
  <ele>-0.099</ele>
  <time>2026-09-02T22:07:31Z</time>
  <course>186.85</course>
  <speed>0.7213875518748573</speed>
  <fix>3d</fix>
</trkpt>
<trkpt lat="33.8102915" lon="-118.3938908">
  <ele>-0.099</ele>
  <time>2026-09-02T22:07:31Z</time>
  <course>186.85</course>
  <speed>0.7213875518748573</speed>
  <fix>3d</fix>
</trkpt>
<trkpt lat="33.8102921" lon="-118.3938901">
  <ele>-0.1</ele>
  <time>2026-09-02T22:07:31Z</time>
  <course>223.26</course>
  <speed>0.73</speed>
  <fix>3d</fix>
</trkpt>
<trkpt lat="33.8102915" lon="-118.3938909">
  <ele>-0.099</ele>
  <time>2026-09-02T22:07:31Z</time>
  <course>186.85</course>
  <speed>0.7213875518748573</speed>
  <fix>3d</fix>
</trkpt>
<trkpt lat="33.8102914" lon="-118.393891">
  <ele>-0.1</ele>
  <time>2026-09-02T22:07:31Z</time>
  <course>186.85</course>
  <speed>0.7213875518748573</speed>
  <fix>3d</fix>
</trkpt>
<trkpt lat="33.8102913" lon="-118.393891">
  <ele>-0.101</ele>
  <time>2026-09-02T22:07:31Z</time>
  <course>186.85</course>
  <speed>0.7213875518748573</speed>
  <fix>3d</fix>
</trkpt>
<trkpt lat="33.8102913" lon="-118.3938911">
  <ele>-0.101</ele>
  <time>2026-09-02T22:07:31Z</time>
  <course>186.85</course>
  <speed>0.7213875518748573</speed>
  <fix>3d</fix>
</trkpt>
<trkpt lat="33.8102912" lon="-118.3938911">
  <ele>-0.102</ele>
  <time>2026-09-02T22:07:31Z</time>
  <course>186.85</course>
  <speed>0.7213875518748573</speed>
  <fix>3d</fix>
</trkpt>
<trkpt lat="33.8102912" lon="-118.3938912">
  <ele>-0.102</ele>
  <time>2026-09-02T22:07:31Z</time>
  <course>186.85</course>
  <speed>0.7213875518748573</speed>
  <fix>3d</fix>
</trkpt>
<trkpt lat="33.8102912" lon="-118.3938912">
  <ele>-0.102</ele>
  <time>2026-09-02T22:07:31Z</time>
  <course>186.85</course>
  <speed>0.7213875518748573</speed>
  <fix>3d</fix>
</trkpt>
<trkpt lat="33.8102911" lon="-118.3938913">
  <ele>-0.102</ele>
  <time>2026-09-02T22:07:31Z</time>
  <course>186.85</course>
  <speed>0.7213875518748573</speed>
  <fix>3d</fix>
</trkpt>
<trkpt lat="33.8102911" lon="-118.3938913">
  <ele>-0.103</ele>
  <time>2026-09-02T22:07:31Z</time>
  <course>186.85</course>
  <speed>0.7213875518748573</speed>
  <fix>3d</fix>
</trkpt>
<trkpt lat="33.810291" lon="-118.3938914">
  <ele>-0.103</ele>
  <time>2026-09-02T22:07:31Z</time>
  <course>186.85</course>
  <speed>0.7213875518748573</speed>
  <fix>3d</fix>
</trkpt>
<trkpt lat="33.810291" lon="-118.3938914">
  <ele>-0.103</ele>
  <time>2026-09-02T22:07:31Z</time>
  <course>186.85</course>
  <speed>0.7213875518748573</speed>
  <fix>3d</fix>
</trkpt>
<trkpt lat="33.8102921" lon="-118.3938901">
  <ele>-0.1</ele>
  <time>2026-09-02T22:07:31Z</time>
  <course>223.26</course>
  <speed>0.73</speed>
  <fix>3d</fix>
</trkpt>
<trkpt lat="33.810291" lon="-118.3938914">
  <ele>-0.103</ele>
  <time>2026-09-02T22:07:31Z</time>
  <course>186.85</course>
  <speed>0.7213875518748573</speed>
  <fix>3d</fix>
</trkpt>
<trkpt lat="33.810291" lon="-118.3938915">
  <ele>-0.104</ele>
  <time>2026-09-02T22:07:31Z</time>
  <course>186.85</course>
  <speed>0.7213875518748573</speed>
  <fix>3d</fix>
</trkpt>
<trkpt lat="33.8102909" lon="-118.3938915">
  <ele>-0.104</ele>
  <time>2026-09-02T22:07:31Z</time>
  <course>186.85</course>
  <speed>0.7213875518748573</speed>
  <fix>3d</fix>
</trkpt>
<trkpt lat="33.8102909" lon="-118.3938916">
  <ele>-0.104</ele>
  <time>2026-09-02T22:07:31Z</time>
  <course>186.85</course>
  <speed>0.7213875518748573</speed>
  <fix>3d</fix>
</trkpt>
<trkpt lat="33.8102908" lon="-118.3938916">
  <ele>-0.105</ele>
  <time>2026-09-02T22:07:31Z</time>
  <course>186.85</course>
  <speed>0.7213875518748573</speed>
  <fix>3d</fix>
</trkpt>
<trkpt lat="33.8102908" lon="-118.3938916">
  <ele>-0.105</ele>
  <time>2026-09-02T22:07:31Z</time>
  <course>186.85</course>
  <speed>0.7213875518748573</speed>
  <fix>3d</fix>
</trkpt>
<trkpt lat="33.8102908" lon="-118.3938917">
  <ele>-0.105</ele>
  <time>2026-09-02T22:07:31Z</time>
  <course>186.85</course>
  <speed>0.7213875518748573</speed>
  <fix>3d</fix>
</trkpt>
<trkpt lat="33.8102907" lon="-118.3938917">
  <ele>-0.106</ele>
  <time>2026-09-02T22:07:31Z</time>
  <course>186.85</course>
  <speed>0.7213875518748573</speed>
  <fix>3d</fix>
</trkpt>
<trkpt lat="33.8102907" lon="-118.3938918">
  <ele>-0.106</ele>
  <time>2026-09-02T22:07:31Z</time>
  <course>186.85</course>
  <speed>0.7213875518748573</speed>
  <fix>3d</fix>
</trkpt>
<trkpt lat="33.8102907" lon="-118.3938918">
  <ele>-0.106</ele>
  <time>2026-09-02T22:07:31Z</time>
  <course>186.85</course>
  <speed>0.7213875518748573</speed>
  <fix>3d</fix>
</trkpt>
<trkpt lat="33.8102906" lon="-118.3938918">
  <ele>-0.106</ele>
  <time>2026-09-02T22:07:31Z</time>
  <course>186.84</course>
  <speed>0.7213875518748573</speed>
  <fix>3d</fix>
</trkpt>
<trkpt lat="33.8102906" lon="-118.3938919">
  <ele>-0.107</ele>
  <time>2026-09-02T22:07:31Z</time>
  <course>186.84</course>
  <speed>0.7213875518748573</speed>
  <fix>3d</fix>
</trkpt>
<trkpt lat="33.8102905" lon="-118.3938919">
  <ele>-0.107</ele>
  <time>2026-09-02T22:07:31Z</time>
  <course>186.84</course>
  <speed>0.7213875518748573</speed>
  <fix>3d</fix>
</trkpt>
<trkpt lat="33.8102911" lon="-118.3938912">
  <ele>-0.1</ele>
  <time>2026-09-02T22:07:31Z</time>
  <course>223.26</course>
  <speed>0.73</speed>
  <fix>3d</fix>
</trkpt>
<trkpt lat="33.8102905" lon="-118.3938919">
  <ele>-0.107</ele>
  <time>2026-09-02T22:07:31Z</time>
  <course>186.84</course>
  <speed>0.7213875518748573</speed>
  <fix>3d</fix>
</trkpt>
<trkpt lat="33.8102905" lon="-118.393892">
  <ele>-0.108</ele>
  <time>2026-09-02T22:07:31Z</time>
  <course>186.84</course>
  <speed>0.7213875518748573</speed>
  <fix>3d</fix>
</trkpt>
<trkpt lat="33.8102904" lon="-118.3938921">
  <ele>-0.108</ele>
  <time>2026-09-02T22:07:31Z</time>
  <course>186.84</course>
  <speed>0.7213875518748573</speed>
  <fix>3d</fix>
</trkpt>
<trkpt lat="33.8102904" lon="-118.3938921">
  <ele>-0.108</ele>
  <time>2026-09-02T22:07:31Z</time>
  <course>186.84</course>
  <speed>0.7213875518748573</speed>
  <fix>3d</fix>
</trkpt>
<trkpt lat="33.8102904" lon="-118.3938921">
  <ele>-0.108</ele>
  <time>2026-09-02T22:07:31Z</time>
  <course>186.84</course>
  <speed>0.7213875518748573</speed>
  <fix>3d</fix>
</trkpt>
<trkpt lat="33.8102903" lon="-118.3938922">
  <ele>-0.108</ele>
  <time>2026-09-02T22:07:31Z</time>
  <course>186.84</course>
  <speed>0.7213875518748573</speed>
  <fix>3d</fix>
</trkpt>
<trkpt lat="33.8102903" lon="-118.3938922">
  <ele>-0.109</ele>
  <time>2026-09-02T22:07:31Z</time>
  <course>186.84</course>
  <speed>0.7213875518748573</speed>
  <fix>3d</fix>
</trkpt>
<trkpt lat="33.8102902" lon="-118.3938923">
  <ele>-0.109</ele>
  <time>2026-09-02T22:07:31Z</time>
  <course>186.84</course>
  <speed>0.7213875518748573</speed>
  <fix>3d</fix>
</trkpt>
<trkpt lat="33.8102902" lon="-118.3938923">
  <ele>-0.109</ele>
  <time>2026-09-02T22:07:31Z</time>
  <course>186.84</course>
  <speed>0.7213875518748573</speed>
  <fix>3d</fix>
</trkpt>
<trkpt lat="33.8102902" lon="-118.3938924">
  <ele>-0.11</ele>
  <time>2026-09-02T22:07:31Z</time>
  <course>186.84</course>
  <speed>0.7213875518748573</speed>
  <fix>3d</fix>
</trkpt>
<trkpt lat="33.8102901" lon="-118.3938924">
  <ele>-0.11</ele>
  <time>2026-09-02T22:07:31Z</time>
  <course>186.84</course>
  <speed>0.7213875518748573</speed>
  <fix>3d</fix>
</trkpt>
<trkpt lat="33.8102901" lon="-118.3938924">
  <ele>-0.11</ele>
  <time>2026-09-02T22:07:31Z</time>
  <course>186.84</course>
  <speed>0.7213875518748573</speed>
  <fix>3d</fix>
</trkpt>
<trkpt lat="33.8102901" lon="-118.3938925">
  <ele>-0.11</ele>
  <time>2026-09-02T22:07:31Z</time>
  <course>186.84</course>
  <speed>0.7213875518748573</speed>
  <fix>3d</fix>
</trkpt>
<trkpt lat="33.8102911" lon="-118.3938912">
  <ele>-0.1</ele>
  <time>2026-09-02T22:07:31Z</time>
  <course>223.26</course>
  <speed>0.73</speed>
  <fix>3d</fix>
</trkpt>
<trkpt lat="33.8102901" lon="-118.3938925">
  <ele>-0.11</ele>
  <time>2026-09-02T22:07:31Z</time>
  <course>186.84</course>
  <speed>0.7213875518748573</speed>
  <fix>3d</fix>
</trkpt>
<trkpt lat="33.81029" lon="-118.3938926">
  <ele>-0.11</ele>
  <time>2026-09-02T22:07:31Z</time>
  <course>186.84</course>
  <speed>0.7213875518748573</speed>
  <fix>3d</fix>
</trkpt>
<trkpt lat="33.8102899" lon="-118.3938926">
  <ele>-0.11</ele>
  <time>2026-09-02T22:07:31Z</time>
  <course>186.84</course>
  <speed>0.7213875518748573</speed>
  <fix>3d</fix>
</trkpt>
<trkpt lat="33.8102899" lon="-118.3938927">
  <ele>-0.11</ele>
  <time>2026-09-02T22:07:31Z</time>
  <course>186.84</course>
  <speed>0.7213875518748573</speed>
  <fix>3d</fix>
</trkpt>
<trkpt lat="33.8102899" lon="-118.3938927">
  <ele>-0.111</ele>
  <time>2026-09-02T22:07:31Z</time>
  <course>186.84</course>
  <speed>0.7213875518748573</speed>
  <fix>3d</fix>
</trkpt>
<trkpt lat="33.8102898" lon="-118.3938928">
  <ele>-0.111</ele>
  <time>2026-09-02T22:07:31Z</time>
  <course>186.84</course>
  <speed>0.7213875518748573</speed>
  <fix>3d</fix>
</trkpt>
<trkpt lat="33.8102898" lon="-118.3938928">
  <ele>-0.111</ele>
  <time>2026-09-02T22:07:31Z</time>
  <course>186.84</course>
  <speed>0.7213875518748573</speed>
  <fix>3d</fix>
</trkpt>
<trkpt lat="33.8102897" lon="-118.3938929">
  <ele>-0.111</ele>
  <time>2026-09-02T22:07:31Z</time>
  <course>186.84</course>
  <speed>0.7213875518748573</speed>
  <fix>3d</fix>
</trkpt>
<trkpt lat="33.8102897" lon="-118.3938929">
  <ele>-0.111</ele>
  <time>2026-09-02T22:07:31Z</time>
  <course>186.84</course>
  <speed>0.7213875518748573</speed>
  <fix>3d</fix>
</trkpt>
<trkpt lat="33.8102896" lon="-118.393893">
  <ele>-0.111</ele>
  <time>2026-09-02T22:07:31Z</time>
  <course>186.84</course>
  <speed>0.7213875518748573</speed>
  <fix>3d</fix>
</trkpt>
<trkpt lat="33.8102896" lon="-118.393893">
  <ele>-0.11</ele>
  <time>2026-09-02T22:07:31Z</time>
  <course>186.84</course>
  <speed>0.7213875518748573</speed>
  <fix>3d</fix>
</trkpt>
<trkpt lat="33.8102896" lon="-118.393893">
  <ele>-0.11</ele>
  <time>2026-09-02T22:07:31Z</time>
  <course>186.84</course>
  <speed>0.7213875518748573</speed>
  <fix>3d</fix>
</trkpt>
<trkpt lat="33.8102902" lon="-118.3938923">
  <ele>-0.11</ele>
  <time>2026-09-02T22:07:31Z</time>
  <course>223.26</course>
  <speed>0.73</speed>
  <fix>3d</fix>
</trkpt>
<trkpt lat="33.8102895" lon="-118.3938931">
  <ele>-0.11</ele>
  <time>2026-09-02T22:07:31Z</time>
  <course>186.84</course>
  <speed>0.7213875518748573</speed>
  <fix>3d</fix>
</trkpt>
<trkpt lat="33.8102895" lon="-118.3938932">
  <ele>-0.11</ele>
  <time>2026-09-02T22:07:31Z</time>
  <course>186.84</course>
  <speed>0.7213875518748573</speed>
  <fix>3d</fix>
</trkpt>
<trkpt lat="33.8102894" lon="-118.3938932">
  <ele>-0.11</ele>
  <time>2026-09-02T22:07:31Z</time>
  <course>186.84</course>
  <speed>0.7213875518748573</speed>
  <fix>3d</fix>
</trkpt>
<trkpt lat="33.8102894" lon="-118.3938932">
  <ele>-0.11</ele>
  <time>2026-09-02T22:07:31Z</time>
  <course>186.84</course>
  <speed>0.7213875518748573</speed>
  <fix>3d</fix>
</trkpt>
<trkpt lat="33.8102894" lon="-118.3938933">
  <ele>-0.11</ele>
  <time>2026-09-02T22:07:31Z</time>
  <course>186.84</course>
  <speed>0.7213875518748573</speed>
  <fix>3d</fix>
</trkpt>
<trkpt lat="33.8102893" lon="-118.3938933">
  <ele>-0.11</ele>
  <time>2026-09-02T22:07:31Z</time>
  <course>186.84</course>
  <speed>0.7213875518748573</speed>
  <fix>3d</fix>
</trkpt>
<trkpt lat="33.8102893" lon="-118.3938934">
  <ele>-0.11</ele>
  <time>2026-09-02T22:07:31Z</time>
  <course>186.83</course>
  <speed>0.7213875518748573</speed>
  <fix>3d</fix>
</trkpt>
<trkpt lat="33.8102892" lon="-118.3938934">
  <ele>-0.11</ele>
  <time>2026-09-02T22:07:31Z</time>
  <course>186.83</course>
  <speed>0.7213875518748573</speed>
  <fix>3d</fix>
</trkpt>
<trkpt lat="33.8102892" lon="-118.3938935">
  <ele>-0.109</ele>
  <time>2026-09-02T22:07:31Z</time>
  <course>186.83</course>
  <speed>0.7213875518748573</speed>
  <fix>3d</fix>
</trkpt>
<trkpt lat="33.8102891" lon="-118.3938935">
  <ele>-0.109</ele>
  <time>2026-09-02T22:07:31Z</time>
  <course>186.83</course>
  <speed>0.7213875518748573</speed>
  <fix>3d</fix>
</trkpt>
<trkpt lat="33.8102891" lon="-118.3938936">
  <ele>-0.109</ele>
  <time>2026-09-02T22:07:31Z</time>
  <course>186.83</course>
  <speed>0.7213875518748573</speed>
  <fix>3d</fix>
</trkpt>
<trkpt lat="33.8102902" lon="-118.3938923">
  <ele>-0.11</ele>
  <time>2026-09-02T22:07:31Z</time>
  <course>223.26</course>
  <speed>0.73</speed>
  <fix>3d</fix>
</trkpt>
<trkpt lat="33.8102891" lon="-118.3938936">
  <ele>-0.109</ele>
  <time>2026-09-02T22:07:31Z</time>
  <course>186.83</course>
  <speed>0.7213875518748573</speed>
  <fix>3d</fix>
</trkpt>
<trkpt lat="33.810289" lon="-118.3938937">
  <ele>-0.109</ele>
  <time>2026-09-02T22:07:31Z</time>
  <course>186.83</course>
  <speed>0.7213875518748573</speed>
  <fix>3d</fix>
</trkpt>
<trkpt lat="33.810289" lon="-118.3938937">
  <ele>-0.109</ele>
  <time>2026-09-02T22:07:31Z</time>
  <course>186.83</course>
  <speed>0.7213875518748573</speed>
  <fix>3d</fix>
</trkpt>
<trkpt lat="33.8102889" lon="-118.3938938">
  <ele>-0.109</ele>
  <time>2026-09-02T22:07:31Z</time>
  <course>186.83</course>
  <speed>0.7213875518748573</speed>
  <fix>3d</fix>
</trkpt>
<trkpt lat="33.8102889" lon="-118.3938938">
  <ele>-0.108</ele>
  <time>2026-09-02T22:07:31Z</time>
  <course>186.83</course>
  <speed>0.7213875518748573</speed>
  <fix>3d</fix>
</trkpt>
<trkpt lat="33.8102888" lon="-118.3938939">
  <ele>-0.108</ele>
  <time>2026-09-02T22:07:31Z</time>
  <course>186.83</course>
  <speed>0.7213875518748573</speed>
  <fix>3d</fix>
</trkpt>
<trkpt lat="33.8102888" lon="-118.3938939">
  <ele>-0.108</ele>
  <time>2026-09-02T22:07:31Z</time>
  <course>186.83</course>
  <speed>0.7213875518748573</speed>
  <fix>3d</fix>
</trkpt>
<trkpt lat="33.8102888" lon="-118.393894">
  <ele>-0.108</ele>
  <time>2026-09-02T22:07:31Z</time>
  <course>186.83</course>
  <speed>0.7213875518748573</speed>
  <fix>3d</fix>
</trkpt>
<trkpt lat="33.8102887" lon="-118.393894">
  <ele>-0.108</ele>
  <time>2026-09-02T22:07:31Z</time>
  <course>186.83</course>
  <speed>0.7213875518748573</speed>
  <fix>3d</fix>
</trkpt>
<trkpt lat="33.8102887" lon="-118.393894">
  <ele>-0.108</ele>
  <time>2026-09-02T22:07:31Z</time>
  <course>186.83</course>
  <speed>0.7213875518748573</speed>
  <fix>3d</fix>
</trkpt>
<trkpt lat="33.8102887" lon="-118.3938941">
  <ele>-0.108</ele>
  <time>2026-09-02T22:07:31Z</time>
  <course>186.83</course>
  <speed>0.7213875518748573</speed>
  <fix>3d</fix>
</trkpt>
<trkpt lat="33.8102886" lon="-118.3938941">
  <ele>-0.108</ele>
  <time>2026-09-02T22:07:31Z</time>
  <course>186.83</course>
  <speed>0.7213875518748573</speed>
  <fix>3d</fix>
</trkpt>
<trkpt lat="33.8102892" lon="-118.3938934">
  <ele>-0.11</ele>
  <time>2026-09-02T22:07:31Z</time>
  <course>223.26</course>
  <speed>0.73</speed>
  <fix>3d</fix>
</trkpt>
<trkpt lat="33.8102886" lon="-118.3938941">
  <ele>-0.108</ele>
  <time>2026-09-02T22:07:31Z</time>
  <course>186.83</course>
  <speed>0.7213875518748573</speed>
  <fix>3d</fix>
</trkpt>
<trkpt lat="33.8102885" lon="-118.3938942">
  <ele>-0.107</ele>
  <time>2026-09-02T22:07:31Z</time>
  <course>186.83</course>
  <speed>0.7213875518748573</speed>
  <fix>3d</fix>
</trkpt>
<trkpt lat="33.8102885" lon="-118.3938943">
  <ele>-0.107</ele>
  <time>2026-09-02T22:07:31Z</time>
  <course>186.83</course>
  <speed>0.7213875518748573</speed>
  <fix>3d</fix>
</trkpt>
<trkpt lat="33.8102884" lon="-118.3938943">
  <ele>-0.107</ele>
  <time>2026-09-02T22:07:31Z</time>
  <course>186.83</course>
  <speed>0.7213875518748573</speed>
  <fix>3d</fix>
</trkpt>
<trkpt lat="33.8102884" lon="-118.3938944">
  <ele>-0.107</ele>
  <time>2026-09-02T22:07:31Z</time>
  <course>186.83</course>
  <speed>0.7213875518748573</speed>
  <fix>3d</fix>
</trkpt>
<trkpt lat="33.8102884" lon="-118.3938944">
  <ele>-0.107</ele>
  <time>2026-09-02T22:07:31Z</time>
  <course>186.83</course>
  <speed>0.7213875518748573</speed>
  <fix>3d</fix>
</trkpt>
<trkpt lat="33.8102883" lon="-118.3938945">
  <ele>-0.106</ele>
  <time>2026-09-02T22:07:31Z</time>
  <course>186.83</course>
  <speed>0.7213875518748573</speed>
  <fix>3d</fix>
</trkpt>
<trkpt lat="33.8102883" lon="-118.3938945">
  <ele>-0.106</ele>
  <time>2026-09-02T22:07:31Z</time>
  <course>186.83</course>
  <speed>0.7213875518748573</speed>
  <fix>3d</fix>
</trkpt>
<trkpt lat="33.8102882" lon="-118.3938946">
  <ele>-0.106</ele>
  <time>2026-09-02T22:07:31Z</time>
  <course>186.83</course>
  <speed>0.7283543093852057</speed>
  <fix>3d</fix>
</trkpt>
<trkpt lat="33.8102882" lon="-118.3938946">
  <ele>-0.106</ele>
  <time>2026-09-02T22:07:31Z</time>
  <course>186.83</course>
  <speed>0.7283543093852057</speed>
  <fix>3d</fix>
</trkpt>
<trkpt lat="33.8102882" lon="-118.3938947">
  <ele>-0.106</ele>
  <time>2026-09-02T22:07:31Z</time>
  <course>186.83</course>
  <speed>0.7283543093852057</speed>
  <fix>3d</fix>
</trkpt>
<trkpt lat="33.8102882" lon="-118.3938947">
  <ele>-0.106</ele>
  <time>2026-09-02T22:07:31Z</time>
  <course>186.83</course>
  <speed>0.7283543093852057</speed>
  <fix>3d</fix>
</trkpt>
<trkpt lat="33.8102892" lon="-118.3938934">
  <ele>-0.11</ele>
  <time>2026-09-02T22:07:31Z</time>
  <course>223.26</course>
  <speed>0.73</speed>
  <fix>3d</fix>
</trkpt>
<trkpt lat="33.8102881" lon="-118.3938947">
  <ele>-0.106</ele>
  <time>2026-09-02T22:07:31Z</time>
  <course>186.83</course>
  <speed>0.7283543093852057</speed>
  <fix>3d</fix>
</trkpt>
<trkpt lat="33.8102881" lon="-118.3938948">
  <ele>-0.106</ele>
  <time>2026-09-02T22:07:31Z</time>
  <course>186.83</course>
  <speed>0.7283543093852057</speed>
  <fix>3d</fix>
</trkpt>
<trkpt lat="33.810288" lon="-118.3938948">
  <ele>-0.106</ele>
  <time>2026-09-02T22:07:31Z</time>
  <course>186.83</course>
  <speed>0.7283543093852057</speed>
  <fix>3d</fix>
</trkpt>
<trkpt lat="33.810288" lon="-118.3938949">
  <ele>-0.105</ele>
  <time>2026-09-02T22:07:31Z</time>
  <course>186.83</course>
  <speed>0.7283543093852057</speed>
  <fix>3d</fix>
</trkpt>
<trkpt lat="33.810288" lon="-118.3938949">
  <ele>-0.105</ele>
  <time>2026-09-02T22:07:31Z</time>
  <course>186.83</course>
  <speed>0.7283543093852057</speed>
  <fix>3d</fix>
</trkpt>
<trkpt lat="33.8102879" lon="-118.3938949">
  <ele>-0.105</ele>
  <time>2026-09-02T22:07:31Z</time>
  <course>186.83</course>
  <speed>0.7283543093852057</speed>
  <fix>3d</fix>
</trkpt>
<trkpt lat="33.8102879" lon="-118.393895">
  <ele>-0.105</ele>
  <time>2026-09-02T22:07:31Z</time>
  <course>186.83</course>
  <speed>0.7283543093852057</speed>
  <fix>3d</fix>
</trkpt>
<trkpt lat="33.8102879" lon="-118.393895">
  <ele>-0.105</ele>
  <time>2026-09-02T22:07:31Z</time>
  <course>186.83</course>
  <speed>0.7283543093852057</speed>
  <fix>3d</fix>
</trkpt>
<trkpt lat="33.8102878" lon="-118.3938951">
  <ele>-0.105</ele>
  <time>2026-09-02T22:07:31Z</time>
  <course>186.83</course>
  <speed>0.7283543093852057</speed>
  <fix>3d</fix>
</trkpt>
<trkpt lat="33.8102878" lon="-118.3938951">
  <ele>-0.105</ele>
  <time>2026-09-02T22:07:31Z</time>
  <course>186.82</course>
  <speed>0.7283543093852057</speed>
  <fix>3d</fix>
</trkpt>
<trkpt lat="33.8102877" lon="-118.3938951">
  <ele>-0.105</ele>
  <time>2026-09-02T22:07:31Z</time>
  <course>186.82</course>
  <speed>0.7283543093852057</speed>
  <fix>3d</fix>
</trkpt>
<trkpt lat="33.8102877" lon="-118.3938952">
  <ele>-0.105</ele>
  <time>2026-09-02T22:07:31Z</time>
  <course>186.82</course>
  <speed>0.7283543093852057</speed>
  <fix>3d</fix>
</trkpt>
<trkpt lat="33.8102877" lon="-118.3938952">
  <ele>-0.105</ele>
  <time>2026-09-02T22:07:31Z</time>
  <course>186.82</course>
  <speed>0.7283543093852057</speed>
  <fix>3d</fix>
</trkpt>
<trkpt lat="33.8102882" lon="-118.3938945">
  <ele>-0.1</ele>
  <time>2026-09-02T22:07:31Z</time>
  <course>223.26</course>
  <speed>0.73</speed>
  <fix>3d</fix>
</trkpt>
<trkpt lat="33.8102877" lon="-118.3938952">
  <ele>-0.105</ele>
  <time>2026-09-02T22:07:31Z</time>
  <course>186.82</course>
  <speed>0.7283543093852057</speed>
  <fix>3d</fix>
</trkpt>
<trkpt lat="33.8102876" lon="-118.3938953">
  <ele>-0.105</ele>
  <time>2026-09-02T22:07:31Z</time>
  <course>186.82</course>
  <speed>0.7283543093852057</speed>
  <fix>3d</fix>
</trkpt>
<trkpt lat="33.8102876" lon="-118.3938954">
  <ele>-0.105</ele>
  <time>2026-09-02T22:07:31Z</time>
  <course>186.82</course>
  <speed>0.7283543093852057</speed>
  <fix>3d</fix>
</trkpt>
<trkpt lat="33.8102875" lon="-118.3938954">
  <ele>-0.105</ele>
  <time>2026-09-02T22:07:31Z</time>
  <course>186.82</course>
  <speed>0.7283543093852057</speed>
  <fix>3d</fix>
</trkpt>
<trkpt lat="33.8102875" lon="-118.3938954">
  <ele>-0.105</ele>
  <time>2026-09-02T22:07:31Z</time>
  <course>186.82</course>
  <speed>0.7283543093852057</speed>
  <fix>3d</fix>
</trkpt>
<trkpt lat="33.8102875" lon="-118.3938955">
  <ele>-0.105</ele>
  <time>2026-09-02T22:07:31Z</time>
  <course>186.82</course>
  <speed>0.7283543093852057</speed>
  <fix>3d</fix>
</trkpt>
<trkpt lat="33.8102874" lon="-118.3938955">
  <ele>-0.105</ele>
  <time>2026-09-02T22:07:31Z</time>
  <course>186.82</course>
  <speed>0.7283543093852057</speed>
  <fix>3d</fix>
</trkpt>
<trkpt lat="33.8102874" lon="-118.3938956">
  <ele>-0.105</ele>
  <time>2026-09-02T22:07:31Z</time>
  <course>186.82</course>
  <speed>0.7283543093852057</speed>
  <fix>3d</fix>
</trkpt>
<trkpt lat="33.8102873" lon="-118.3938956">
  <ele>-0.105</ele>
  <time>2026-09-02T22:07:31Z</time>
  <course>186.82</course>
  <speed>0.7283543093852057</speed>
  <fix>3d</fix>
</trkpt>
<trkpt lat="33.8102873" lon="-118.3938957">
  <ele>-0.106</ele>
  <time>2026-09-02T22:07:31Z</time>
  <course>186.82</course>
  <speed>0.7283543093852057</speed>
  <fix>3d</fix>
</trkpt>
<trkpt lat="33.8102872" lon="-118.3938957">
  <ele>-0.106</ele>
  <time>2026-09-02T22:07:31Z</time>
  <course>186.82</course>
  <speed>0.7283543093852057</speed>
  <fix>3d</fix>
</trkpt>
<trkpt lat="33.8102872" lon="-118.3938957">
  <ele>-0.106</ele>
  <time>2026-09-02T22:07:31Z</time>
  <course>186.82</course>
  <speed>0.7283543093852057</speed>
  <fix>3d</fix>
</trkpt>
<trkpt lat="33.8102872" lon="-118.3938958">
  <ele>-0.106</ele>
  <time>2026-09-02T22:07:31Z</time>
  <course>186.82</course>
  <speed>0.7283543093852057</speed>
  <fix>3d</fix>
</trkpt>
<trkpt lat="33.8102882" lon="-118.3938945">
  <ele>-0.1</ele>
  <time>2026-09-02T22:07:31Z</time>
  <course>223.26</course>
  <speed>0.73</speed>
  <fix>3d</fix>
</trkpt>
<trkpt lat="33.8102872" lon="-118.3938958">
  <ele>-0.106</ele>
  <time>2026-09-02T22:07:31Z</time>
  <course>186.82</course>
  <speed>0.7283543093852057</speed>
  <fix>3d</fix>
</trkpt>
<trkpt lat="33.8102871" lon="-118.3938958">
  <ele>-0.107</ele>
  <time>2026-09-02T22:07:31Z</time>
  <course>186.82</course>
  <speed>0.7283543093852057</speed>
  <fix>3d</fix>
</trkpt>
<trkpt lat="33.8102871" lon="-118.3938959">
  <ele>-0.107</ele>
  <time>2026-09-02T22:07:31Z</time>
  <course>186.82</course>
  <speed>0.7283543093852057</speed>
  <fix>3d</fix>
</trkpt>
<trkpt lat="33.8102871" lon="-118.3938959">
  <ele>-0.107</ele>
  <time>2026-09-02T22:07:31Z</time>
  <course>186.82</course>
  <speed>0.7283543093852057</speed>
  <fix>3d</fix>
</trkpt>
<trkpt lat="33.810287" lon="-118.393896">
  <ele>-0.107</ele>
  <time>2026-09-02T22:07:31Z</time>
  <course>186.82</course>
  <speed>0.7283543093852057</speed>
  <fix>3d</fix>
</trkpt>
<trkpt lat="33.810287" lon="-118.393896">
  <ele>-0.108</ele>
  <time>2026-09-02T22:07:31Z</time>
  <course>186.82</course>
  <speed>0.7283543093852057</speed>
  <fix>3d</fix>
</trkpt>
<trkpt lat="33.810287" lon="-118.393896">
  <ele>-0.108</ele>
  <time>2026-09-02T22:07:31Z</time>
  <course>186.82</course>
  <speed>0.7283543093852057</speed>
  <fix>3d</fix>
</trkpt>
<trkpt lat="33.8102869" lon="-118.3938961">
  <ele>-0.108</ele>
  <time>2026-09-02T22:07:31Z</time>
  <course>186.82</course>
  <speed>0.7283543093852057</speed>
  <fix>3d</fix>
</trkpt>
<trkpt lat="33.8102869" lon="-118.3938961">
  <ele>-0.109</ele>
  <time>2026-09-02T22:07:31Z</time>
  <course>186.82</course>
  <speed>0.7283543093852057</speed>
  <fix>3d</fix>
</trkpt>
<trkpt lat="33.8102868" lon="-118.3938962">
  <ele>-0.109</ele>
  <time>2026-09-02T22:07:31Z</time>
  <course>186.82</course>
  <speed>0.7283543093852057</speed>
  <fix>3d</fix>
</trkpt>
<trkpt lat="33.8102868" lon="-118.3938962">
  <ele>-0.109</ele>
  <time>2026-09-02T22:07:31Z</time>
  <course>186.82</course>
  <speed>0.7283543093852057</speed>
  <fix>3d</fix>
</trkpt>
<trkpt lat="33.8102868" lon="-118.3938963">
  <ele>-0.11</ele>
  <time>2026-09-02T22:07:31Z</time>
  <course>186.82</course>
  <speed>0.7283543093852057</speed>
  <fix>3d</fix>
</trkpt>
<trkpt lat="33.8102867" lon="-118.3938963">
  <ele>-0.11</ele>
  <time>2026-09-02T22:07:31Z</time>
  <course>186.82</course>
  <speed>0.7283543093852057</speed>
  <fix>3d</fix>
</trkpt>
<trkpt lat="33.8102867" lon="-118.3938963">
  <ele>-0.11</ele>
  <time>2026-09-02T22:07:31Z</time>
  <course>186.82</course>
  <speed>0.7283543093852057</speed>
  <fix>3d</fix>
</trkpt>
<trkpt lat="33.8102873" lon="-118.3938956">
  <ele>-0.1</ele>
  <time>2026-09-02T22:07:31Z</time>
  <course>223.26</course>
  <speed>0.73</speed>
  <fix>3d</fix>
</trkpt>
<trkpt lat="33.8102867" lon="-118.3938963">
  <ele>-0.11</ele>
  <time>2026-09-02T22:07:31Z</time>
  <course>186.82</course>
  <speed>0.7283543093852057</speed>
  <fix>3d</fix>
</trkpt>
<trkpt lat="33.8102867" lon="-118.3938964">
  <ele>-0.111</ele>
  <time>2026-09-02T22:07:31Z</time>
  <course>186.82</course>
  <speed>0.7283543093852057</speed>
  <fix>3d</fix>
</trkpt>
<trkpt lat="33.8102866" lon="-118.3938964">
  <ele>-0.112</ele>
  <time>2026-09-02T22:07:31Z</time>
  <course>186.82</course>
  <speed>0.7283543093852057</speed>
  <fix>3d</fix>
</trkpt>
<trkpt lat="33.8102866" lon="-118.3938965">
  <ele>-0.112</ele>
  <time>2026-09-02T22:07:31Z</time>
  <course>186.82</course>
  <speed>0.7283543093852057</speed>
  <fix>3d</fix>
</trkpt>
<trkpt lat="33.8102865" lon="-118.3938965">
  <ele>-0.112</ele>
  <time>2026-09-02T22:07:31Z</time>
  <course>186.82</course>
  <speed>0.7283543093852057</speed>
  <fix>3d</fix>
</trkpt>
<trkpt lat="33.8102865" lon="-118.3938966">
  <ele>-0.113</ele>
  <time>2026-09-02T22:07:31Z</time>
  <course>186.82</course>
  <speed>0.7283543093852057</speed>
  <fix>3d</fix>
</trkpt>
<trkpt lat="33.8102865" lon="-118.3938966">
  <ele>-0.113</ele>
  <time>2026-09-02T22:07:31Z</time>
  <course>186.82</course>
  <speed>0.7283543093852057</speed>
  <fix>3d</fix>
</trkpt>
<trkpt lat="33.8102864" lon="-118.3938967">
  <ele>-0.114</ele>
  <time>2026-09-02T22:07:31Z</time>
  <course>186.81</course>
  <speed>0.7283543093852057</speed>
  <fix>3d</fix>
</trkpt>
<trkpt lat="33.8102864" lon="-118.3938967">
  <ele>-0.114</ele>
  <time>2026-09-02T22:07:31Z</time>
  <course>186.81</course>
  <speed>0.7283543093852057</speed>
  <fix>3d</fix>
</trkpt>
<trkpt lat="33.8102863" lon="-118.3938968">
  <ele>-0.115</ele>
  <time>2026-09-02T22:07:31Z</time>
  <course>186.81</course>
  <speed>0.7283543093852057</speed>
  <fix>3d</fix>
</trkpt>
<trkpt lat="33.8102863" lon="-118.3938968">
  <ele>-0.115</ele>
  <time>2026-09-02T22:07:31Z</time>
  <course>186.81</course>
  <speed>0.7283543093852057</speed>
  <fix>3d</fix>
</trkpt>
<trkpt lat="33.8102863" lon="-118.3938968">
  <ele>-0.115</ele>
  <time>2026-09-02T22:07:31Z</time>
  <course>186.81</course>
  <speed>0.7283543093852057</speed>
  <fix>3d</fix>
</trkpt>
<trkpt lat="33.8102862" lon="-118.3938969">
  <ele>-0.116</ele>
  <time>2026-09-02T22:07:31Z</time>
  <course>186.81</course>
  <speed>0.7283543093852057</speed>
  <fix>3d</fix>
</trkpt>
<trkpt lat="33.8102873" lon="-118.3938956">
  <ele>-0.1</ele>
  <time>2026-09-02T22:07:31Z</time>
  <course>223.26</course>
  <speed>0.73</speed>
  <fix>3d</fix>
</trkpt>
<trkpt lat="33.8102862" lon="-118.3938969">
  <ele>-0.116</ele>
  <time>2026-09-02T22:07:31Z</time>
  <course>186.81</course>
  <speed>0.7283543093852057</speed>
  <fix>3d</fix>
</trkpt>
<trkpt lat="33.8102862" lon="-118.3938969">
  <ele>-0.116</ele>
  <time>2026-09-02T22:07:31Z</time>
  <course>186.81</course>
  <speed>0.7283543093852057</speed>
  <fix>3d</fix>
</trkpt>
<trkpt lat="33.8102861" lon="-118.393897">
  <ele>-0.117</ele>
  <time>2026-09-02T22:07:31Z</time>
  <course>186.81</course>
  <speed>0.7283543093852057</speed>
  <fix>3d</fix>
</trkpt>
<trkpt lat="33.8102861" lon="-118.393897">
  <ele>-0.117</ele>
  <time>2026-09-02T22:07:31Z</time>
  <course>186.81</course>
  <speed>0.7283543093852057</speed>
  <fix>3d</fix>
</trkpt>
<trkpt lat="33.8102861" lon="-118.3938971">
  <ele>-0.117</ele>
  <time>2026-09-02T22:07:31Z</time>
  <course>186.81</course>
  <speed>0.7283543093852057</speed>
  <fix>3d</fix>
</trkpt>
<trkpt lat="33.810286" lon="-118.3938971">
  <ele>-0.118</ele>
  <time>2026-09-02T22:07:31Z</time>
  <course>186.81</course>
  <speed>0.7283543093852057</speed>
  <fix>3d</fix>
</trkpt>
<trkpt lat="33.810286" lon="-118.3938972">
  <ele>-0.118</ele>
  <time>2026-09-02T22:07:31Z</time>
  <course>186.81</course>
  <speed>0.7283543093852057</speed>
  <fix>3d</fix>
</trkpt>
<trkpt lat="33.810286" lon="-118.3938972">
  <ele>-0.118</ele>
  <time>2026-09-02T22:07:31Z</time>
  <course>186.81</course>
  <speed>0.7283543093852057</speed>
  <fix>3d</fix>
</trkpt>
<trkpt lat="33.8102859" lon="-118.3938972">
  <ele>-0.119</ele>
  <time>2026-09-02T22:07:31Z</time>
  <course>186.81</course>
  <speed>0.7283543093852057</speed>
  <fix>3d</fix>
</trkpt>
<trkpt lat="33.8102859" lon="-118.3938973">
  <ele>-0.119</ele>
  <time>2026-09-02T22:07:31Z</time>
  <course>186.81</course>
  <speed>0.7283543093852057</speed>
  <fix>3d</fix>
</trkpt>
<trkpt lat="33.8102858" lon="-118.3938973">
  <ele>-0.119</ele>
  <time>2026-09-02T22:07:31Z</time>
  <course>186.81</course>
  <speed>0.7283543093852057</speed>
  <fix>3d</fix>
</trkpt>
<trkpt lat="33.8102858" lon="-118.3938974">
  <ele>-0.12</ele>
  <time>2026-09-02T22:07:31Z</time>
  <course>186.81</course>
  <speed>0.7283543093852057</speed>
  <fix>3d</fix>
</trkpt>
<trkpt lat="33.8102858" lon="-118.3938974">
  <ele>-0.12</ele>
  <time>2026-09-02T22:07:31Z</time>
  <course>186.81</course>
  <speed>0.7283543093852057</speed>
  <fix>3d</fix>
</trkpt>
<trkpt lat="33.8102863" lon="-118.3938967">
  <ele>-0.1</ele>
  <time>2026-09-02T22:07:31Z</time>
  <course>223.26</course>
  <speed>0.73</speed>
  <fix>3d</fix>
</trkpt>
<trkpt lat="33.8102858" lon="-118.3938974">
  <ele>-0.12</ele>
  <time>2026-09-02T22:07:31Z</time>
  <course>186.81</course>
  <speed>0.7283543093852057</speed>
  <fix>3d</fix>
</trkpt>
<trkpt lat="33.8102857" lon="-118.3938975">
  <ele>-0.12</ele>
  <time>2026-09-02T22:07:31Z</time>
  <course>186.81</course>
  <speed>0.7283543093852057</speed>
  <fix>3d</fix>
</trkpt>
<trkpt lat="33.8102856" lon="-118.3938976">
  <ele>-0.121</ele>
  <time>2026-09-02T22:07:31Z</time>
  <course>186.81</course>
  <speed>0.7283543093852057</speed>
  <fix>3d</fix>
</trkpt>
<trkpt lat="33.8102856" lon="-118.3938976">
  <ele>-0.121</ele>
  <time>2026-09-02T22:07:31Z</time>
  <course>186.81</course>
  <speed>0.7283543093852057</speed>
  <fix>3d</fix>
</trkpt>
<trkpt lat="33.8102856" lon="-118.3938976">
  <ele>-0.121</ele>
  <time>2026-09-02T22:07:31Z</time>
  <course>186.81</course>
  <speed>0.7283543093852057</speed>
  <fix>3d</fix>
</trkpt>
<trkpt lat="33.8102855" lon="-118.3938977">
  <ele>-0.121</ele>
  <time>2026-09-02T22:07:31Z</time>
  <course>186.81</course>
  <speed>0.7283543093852057</speed>
  <fix>3d</fix>
</trkpt>
<trkpt lat="33.8102855" lon="-118.3938977">
  <ele>-0.121</ele>
  <time>2026-09-02T22:07:31Z</time>
  <course>186.81</course>
  <speed>0.7283543093852057</speed>
  <fix>3d</fix>
</trkpt>
<trkpt lat="33.8102855" lon="-118.3938978">
  <ele>-0.121</ele>
  <time>2026-09-02T22:07:31Z</time>
  <course>186.81</course>
  <speed>0.7283543093852057</speed>
  <fix>3d</fix>
</trkpt>
<trkpt lat="33.8102854" lon="-118.3938978">
  <ele>-0.122</ele>
  <time>2026-09-02T22:07:31Z</time>
  <course>186.81</course>
  <speed>0.7283543093852057</speed>
  <fix>3d</fix>
</trkpt>
<trkpt lat="33.8102854" lon="-118.3938979">
  <ele>-0.122</ele>
  <time>2026-09-02T22:07:31Z</time>
  <course>186.81</course>
  <speed>0.7283543093852057</speed>
  <fix>3d</fix>
</trkpt>
<trkpt lat="33.8102854" lon="-118.3938979">
  <ele>-0.122</ele>
  <time>2026-09-02T22:07:31Z</time>
  <course>186.81</course>
  <speed>0.7283543093852057</speed>
  <fix>3d</fix>
</trkpt>
<trkpt lat="33.8102853" lon="-118.3938979">
  <ele>-0.122</ele>
  <time>2026-09-02T22:07:31Z</time>
  <course>186.81</course>
  <speed>0.7283543093852057</speed>
  <fix>3d</fix>
</trkpt>
<trkpt lat="33.8102853" lon="-118.393898">
  <ele>-0.122</ele>
  <time>2026-09-02T22:07:31Z</time>
  <course>186.81</course>
  <speed>0.7283543093852057</speed>
  <fix>3d</fix>
</trkpt>
<trkpt lat="33.8102863" lon="-118.3938967">
  <ele>-0.1</ele>
  <time>2026-09-02T22:07:31Z</time>
  <course>223.26</course>
  <speed>0.73</speed>
  <fix>3d</fix>
</trkpt>
<trkpt lat="33.8102853" lon="-118.393898">
  <ele>-0.122</ele>
  <time>2026-09-02T22:07:31Z</time>
  <course>186.81</course>
  <speed>0.7283543093852057</speed>
  <fix>3d</fix>
</trkpt>
<trkpt lat="33.8102852" lon="-118.393898">
  <ele>-0.122</ele>
  <time>2026-09-02T22:07:31Z</time>
  <course>186.8</course>
  <speed>0.7283543093852057</speed>
  <fix>3d</fix>
</trkpt>
<trkpt lat="33.8102852" lon="-118.3938981">
  <ele>-0.122</ele>
  <time>2026-09-02T22:07:31Z</time>
  <course>186.8</course>
  <speed>0.7283543093852057</speed>
  <fix>3d</fix>
</trkpt>
<trkpt lat="33.8102851" lon="-118.3938982">
  <ele>-0.122</ele>
  <time>2026-09-02T22:07:31Z</time>
  <course>186.8</course>
  <speed>0.7283543093852057</speed>
  <fix>3d</fix>
</trkpt>
<trkpt lat="33.810285" lon="-118.3938983">
  <ele>-0.122</ele>
  <time>2026-09-02T22:07:31Z</time>
  <course>186.8</course>
  <speed>0.7283543093852057</speed>
  <fix>3d</fix>
</trkpt>
<trkpt lat="33.810285" lon="-118.3938983">
  <ele>-0.122</ele>
  <time>2026-09-02T22:07:31Z</time>
  <course>186.8</course>
  <speed>0.7283543093852057</speed>
  <fix>3d</fix>
</trkpt>
<trkpt lat="33.8102849" lon="-118.3938984">
  <ele>-0.121</ele>
  <time>2026-09-02T22:07:31Z</time>
  <course>186.8</course>
  <speed>0.7283543093852057</speed>
  <fix>3d</fix>
</trkpt>
<trkpt lat="33.8102849" lon="-118.3938984">
  <ele>-0.121</ele>
  <time>2026-09-02T22:07:31Z</time>
  <course>186.8</course>
  <speed>0.7283543093852057</speed>
  <fix>3d</fix>
</trkpt>
<trkpt lat="33.8102849" lon="-118.3938985">
  <ele>-0.121</ele>
  <time>2026-09-02T22:07:31Z</time>
  <course>186.8</course>
  <speed>0.7283543093852057</speed>
  <fix>3d</fix>
</trkpt>
<trkpt lat="33.8102848" lon="-118.3938985">
  <ele>-0.121</ele>
  <time>2026-09-02T22:07:31Z</time>
  <course>186.8</course>
  <speed>0.7283543093852057</speed>
  <fix>3d</fix>
</trkpt>
<trkpt lat="33.8102848" lon="-118.3938985">
  <ele>-0.121</ele>
  <time>2026-09-02T22:07:31Z</time>
  <course>186.8</course>
  <speed>0.7283543093852057</speed>
  <fix>3d</fix>
</trkpt>
<trkpt lat="33.8102854" lon="-118.3938978">
  <ele>-0.11</ele>
  <time>2026-09-02T22:07:31Z</time>
  <course>223.26</course>
  <speed>0.73</speed>
  <fix>3d</fix>
</trkpt>
<trkpt lat="33.8102848" lon="-118.3938986">
  <ele>-0.121</ele>
  <time>2026-09-02T22:07:31Z</time>
  <course>186.8</course>
  <speed>0.7283543093852057</speed>
  <fix>3d</fix>
</trkpt>
<trkpt lat="33.8102847" lon="-118.3938986">
  <ele>-0.121</ele>
  <time>2026-09-02T22:07:31Z</time>
  <course>186.8</course>
  <speed>0.7283543093852057</speed>
  <fix>3d</fix>
</trkpt>
<trkpt lat="33.8102847" lon="-118.3938987">
  <ele>-0.12</ele>
  <time>2026-09-02T22:07:31Z</time>
  <course>186.8</course>
  <speed>0.7283543093852057</speed>
  <fix>3d</fix>
</trkpt>
<trkpt lat="33.8102846" lon="-118.3938987">
  <ele>-0.12</ele>
  <time>2026-09-02T22:07:31Z</time>
  <course>186.8</course>
  <speed>0.7283543093852057</speed>
  <fix>3d</fix>
</trkpt>
<trkpt lat="33.8102846" lon="-118.3938988">
  <ele>-0.12</ele>
  <time>2026-09-02T22:07:31Z</time>
  <course>186.8</course>
  <speed>0.7283543093852057</speed>
  <fix>3d</fix>
</trkpt>
<trkpt lat="33.8102845" lon="-118.3938988">
  <ele>-0.12</ele>
  <time>2026-09-02T22:07:31Z</time>
  <course>186.8</course>
  <speed>0.7283543093852057</speed>
  <fix>3d</fix>
</trkpt>
<trkpt lat="33.8102845" lon="-118.3938989">
  <ele>-0.119</ele>
  <time>2026-09-02T22:07:31Z</time>
  <course>186.8</course>
  <speed>0.7283543093852057</speed>
  <fix>3d</fix>
</trkpt>
<trkpt lat="33.8102845" lon="-118.3938989">
  <ele>-0.119</ele>
  <time>2026-09-02T22:07:31Z</time>
  <course>186.8</course>
  <speed>0.7283543093852057</speed>
  <fix>3d</fix>
</trkpt>
<trkpt lat="33.8102844" lon="-118.393899">
  <ele>-0.119</ele>
  <time>2026-09-02T22:07:31Z</time>
  <course>186.8</course>
  <speed>0.7283543093852057</speed>
  <fix>3d</fix>
</trkpt>
<trkpt lat="33.8102844" lon="-118.393899">
  <ele>-0.119</ele>
  <time>2026-09-02T22:07:31Z</time>
  <course>186.8</course>
  <speed>0.7283543093852057</speed>
  <fix>3d</fix>
</trkpt>
<trkpt lat="33.8102843" lon="-118.3938991">
  <ele>-0.118</ele>
  <time>2026-09-02T22:07:31Z</time>
  <course>186.8</course>
  <speed>0.7283543093852057</speed>
  <fix>3d</fix>
</trkpt>
<trkpt lat="33.8102843" lon="-118.3938991">
  <ele>-0.118</ele>
  <time>2026-09-02T22:07:31Z</time>
  <course>186.8</course>
  <speed>0.7283543093852057</speed>
  <fix>3d</fix>
</trkpt>
<trkpt lat="33.8102854" lon="-118.3938978">
  <ele>-0.11</ele>
  <time>2026-09-02T22:07:31Z</time>
  <course>223.26</course>
  <speed>0.73</speed>
  <fix>3d</fix>
</trkpt>
<trkpt lat="33.8102843" lon="-118.3938991">
  <ele>-0.118</ele>
  <time>2026-09-02T22:07:31Z</time>
  <course>186.8</course>
  <speed>0.7283543093852057</speed>
  <fix>3d</fix>
</trkpt>
<trkpt lat="33.8102842" lon="-118.3938992">
  <ele>-0.117</ele>
  <time>2026-09-02T22:07:31Z</time>
  <course>186.8</course>
  <speed>0.7283543093852057</speed>
  <fix>3d</fix>
</trkpt>
<trkpt lat="33.8102842" lon="-118.3938993">
  <ele>-0.117</ele>
  <time>2026-09-02T22:07:31Z</time>
  <course>186.8</course>
  <speed>0.7283543093852057</speed>
  <fix>3d</fix>
</trkpt>
<trkpt lat="33.8102841" lon="-118.3938993">
  <ele>-0.117</ele>
  <time>2026-09-02T22:07:31Z</time>
  <course>186.8</course>
  <speed>0.7283543093852057</speed>
  <fix>3d</fix>
</trkpt>
<trkpt lat="33.8102841" lon="-118.3938994">
  <ele>-0.116</ele>
  <time>2026-09-02T22:07:31Z</time>
  <course>186.8</course>
  <speed>0.7283543093852057</speed>
  <fix>3d</fix>
</trkpt>
<trkpt lat="33.810284" lon="-118.3938994">
  <ele>-0.116</ele>
  <time>2026-09-02T22:07:31Z</time>
  <course>186.8</course>
  <speed>0.7283543093852057</speed>
  <fix>3d</fix>
</trkpt>
<trkpt lat="33.810284" lon="-118.3938995">
  <ele>-0.116</ele>
  <time>2026-09-02T22:07:31Z</time>
  <course>186.8</course>
  <speed>0.7283543093852057</speed>
  <fix>3d</fix>
</trkpt>
<trkpt lat="33.810284" lon="-118.3938995">
  <ele>-0.115</ele>
  <time>2026-09-02T22:07:31Z</time>
  <course>186.8</course>
  <speed>0.7283543093852057</speed>
  <fix>3d</fix>
</trkpt>
<trkpt lat="33.8102839" lon="-118.3938995">
  <ele>-0.115</ele>
  <time>2026-09-02T22:07:31Z</time>
  <course>186.79</course>
  <speed>0.7283543093852057</speed>
  <fix>3d</fix>
</trkpt>
<trkpt lat="33.8102839" lon="-118.3938996">
  <ele>-0.115</ele>
  <time>2026-09-02T22:07:31Z</time>
  <course>186.79</course>
  <speed>0.7283543093852057</speed>
  <fix>3d</fix>
</trkpt>
<trkpt lat="33.8102839" lon="-118.3938996">
  <ele>-0.115</ele>
  <time>2026-09-02T22:07:31Z</time>
  <course>186.79</course>
  <speed>0.7283543093852057</speed>
  <fix>3d</fix>
</trkpt>
<trkpt lat="33.8102844" lon="-118.3938989">
  <ele>-0.11</ele>
  <time>2026-09-02T22:07:31Z</time>
  <course>223.26</course>
  <speed>0.73</speed>
  <fix>3d</fix>
</trkpt>
<trkpt lat="33.8102839" lon="-118.3938996">
  <ele>-0.115</ele>
  <time>2026-09-02T22:07:31Z</time>
  <course>186.79</course>
  <speed>0.7283543093852057</speed>
  <fix>3d</fix>
</trkpt>
<trkpt lat="33.8102838" lon="-118.3938997">
  <ele>-0.114</ele>
  <time>2026-09-02T22:07:31Z</time>
  <course>186.79</course>
  <speed>0.7283543093852057</speed>
  <fix>3d</fix>
</trkpt>
<trkpt lat="33.8102837" lon="-118.3938998">
  <ele>-0.114</ele>
  <time>2026-09-02T22:07:31Z</time>
  <course>186.79</course>
  <speed>0.7283543093852057</speed>
  <fix>3d</fix>
</trkpt>
<trkpt lat="33.8102837" lon="-118.3938998">
  <ele>-0.113</ele>
  <time>2026-09-02T22:07:31Z</time>
  <course>186.79</course>
  <speed>0.7283543093852057</speed>
  <fix>3d</fix>
</trkpt>
<trkpt lat="33.8102837" lon="-118.3938998">
  <ele>-0.113</ele>
  <time>2026-09-02T22:07:31Z</time>
  <course>186.79</course>
  <speed>0.7283543093852057</speed>
  <fix>3d</fix>
</trkpt>
<trkpt lat="33.8102836" lon="-118.3938999">
  <ele>-0.113</ele>
  <time>2026-09-02T22:07:31Z</time>
  <course>186.79</course>
  <speed>0.7283543093852057</speed>
  <fix>3d</fix>
</trkpt>
<trkpt lat="33.8102835" lon="-118.3939">
  <ele>-0.112</ele>
  <time>2026-09-02T22:07:31Z</time>
  <course>186.79</course>
  <speed>0.7283543093852057</speed>
  <fix>3d</fix>
</trkpt>
<trkpt lat="33.8102835" lon="-118.3939">
  <ele>-0.112</ele>
  <time>2026-09-02T22:07:31Z</time>
  <course>186.79</course>
  <speed>0.7283543093852057</speed>
  <fix>3d</fix>
</trkpt>
<trkpt lat="33.8102835" lon="-118.3939001">
  <ele>-0.111</ele>
  <time>2026-09-02T22:07:31Z</time>
  <course>186.79</course>
  <speed>0.7283543093852057</speed>
  <fix>3d</fix>
</trkpt>
<trkpt lat="33.8102834" lon="-118.3939002">
  <ele>-0.111</ele>
  <time>2026-09-02T22:07:31Z</time>
  <course>186.79</course>
  <speed>0.7212489168102785</speed>
  <fix>3d</fix>
</trkpt>
<trkpt lat="33.8102834" lon="-118.3939002">
  <ele>-0.111</ele>
  <time>2026-09-02T22:07:31Z</time>
  <course>186.79</course>
  <speed>0.7212489168102785</speed>
  <fix>3d</fix>
</trkpt>
<trkpt lat="33.8102844" lon="-118.3938989">
  <ele>-0.11</ele>
  <time>2026-09-02T22:07:31Z</time>
  <course>223.26</course>
  <speed>0.73</speed>
  <fix>3d</fix>
</trkpt>
<trkpt lat="33.8102833" lon="-118.3939003">
  <ele>-0.11</ele>
  <time>2026-09-02T22:07:31Z</time>
  <course>186.79</course>
  <speed>0.7212489168102785</speed>
  <fix>3d</fix>
</trkpt>
<trkpt lat="33.8102833" lon="-118.3939003">
  <ele>-0.11</ele>
  <time>2026-09-02T22:07:31Z</time>
  <course>186.79</course>
  <speed>0.7212489168102785</speed>
  <fix>3d</fix>
</trkpt>
<trkpt lat="33.8102832" lon="-118.3939004">
  <ele>-0.109</ele>
  <time>2026-09-02T22:07:31Z</time>
  <course>186.79</course>
  <speed>0.7212489168102785</speed>
  <fix>3d</fix>
</trkpt>
<trkpt lat="33.8102832" lon="-118.3939004">
  <ele>-0.109</ele>
  <time>2026-09-02T22:07:31Z</time>
  <course>186.79</course>
  <speed>0.7212489168102785</speed>
  <fix>3d</fix>
</trkpt>
<trkpt lat="33.8102832" lon="-118.3939005">
  <ele>-0.109</ele>
  <time>2026-09-02T22:07:31Z</time>
  <course>186.79</course>
  <speed>0.7212489168102785</speed>
  <fix>3d</fix>
</trkpt>
<trkpt lat="33.8102831" lon="-118.3939005">
  <ele>-0.109</ele>
  <time>2026-09-02T22:07:31Z</time>
  <course>186.79</course>
  <speed>0.7212489168102785</speed>
  <fix>3d</fix>
</trkpt>
<trkpt lat="33.8102831" lon="-118.3939005">
  <ele>-0.109</ele>
  <time>2026-09-02T22:07:31Z</time>
  <course>186.79</course>
  <speed>0.7212489168102785</speed>
  <fix>3d</fix>
</trkpt>
<trkpt lat="33.8102831" lon="-118.3939006">
  <ele>-0.108</ele>
  <time>2026-09-02T22:07:31Z</time>
  <course>186.79</course>
  <speed>0.7212489168102785</speed>
  <fix>3d</fix>
</trkpt>
<trkpt lat="33.810283" lon="-118.3939006">
  <ele>-0.108</ele>
  <time>2026-09-02T22:07:31Z</time>
  <course>186.79</course>
  <speed>0.7212489168102785</speed>
  <fix>3d</fix>
</trkpt>
<trkpt lat="33.810283" lon="-118.3939006">
  <ele>-0.108</ele>
  <time>2026-09-02T22:07:31Z</time>
  <course>186.79</course>
  <speed>0.7212489168102785</speed>
  <fix>3d</fix>
</trkpt>
<trkpt lat="33.8102829" lon="-118.3939007">
  <ele>-0.108</ele>
  <time>2026-09-02T22:07:31Z</time>
  <course>186.79</course>
  <speed>0.7212489168102785</speed>
  <fix>3d</fix>
</trkpt>
<trkpt lat="33.8102829" lon="-118.3939007">
  <ele>-0.108</ele>
  <time>2026-09-02T22:07:31Z</time>
  <course>186.79</course>
  <speed>0.7212489168102785</speed>
  <fix>3d</fix>
</trkpt>
<trkpt lat="33.8102835" lon="-118.3939">
  <ele>-0.1</ele>
  <time>2026-09-02T22:07:31Z</time>
  <course>223.26</course>
  <speed>0.73</speed>
  <fix>3d</fix>
</trkpt>
<trkpt lat="33.8102829" lon="-118.3939007">
  <ele>-0.108</ele>
  <time>2026-09-02T22:07:31Z</time>
  <course>186.79</course>
  <speed>0.7212489168102785</speed>
  <fix>3d</fix>
</trkpt>
<trkpt lat="33.8102828" lon="-118.3939008">
  <ele>-0.108</ele>
  <time>2026-09-02T22:07:31Z</time>
  <course>186.79</course>
  <speed>0.7212489168102785</speed>
  <fix>3d</fix>
</trkpt>
<trkpt lat="33.8102828" lon="-118.3939009">
  <ele>-0.107</ele>
  <time>2026-09-02T22:07:31Z</time>
  <course>186.79</course>
  <speed>0.7212489168102785</speed>
  <fix>3d</fix>
</trkpt>
<trkpt lat="33.8102828" lon="-118.3939009">
  <ele>-0.107</ele>
  <time>2026-09-02T22:07:31Z</time>
  <course>186.79</course>
  <speed>0.7212489168102785</speed>
  <fix>3d</fix>
</trkpt>
<trkpt lat="33.8102827" lon="-118.393901">
  <ele>-0.107</ele>
  <time>2026-09-02T22:07:31Z</time>
  <course>186.79</course>
  <speed>0.7212489168102785</speed>
  <fix>3d</fix>
</trkpt>
<trkpt lat="33.8102827" lon="-118.393901">
  <ele>-0.107</ele>
  <time>2026-09-02T22:07:31Z</time>
  <course>186.79</course>
  <speed>0.7212489168102785</speed>
  <fix>3d</fix>
</trkpt>
<trkpt lat="33.8102826" lon="-118.393901">
  <ele>-0.107</ele>
  <time>2026-09-02T22:07:31Z</time>
  <course>186.79</course>
  <speed>0.7212489168102785</speed>
  <fix>3d</fix>
</trkpt>
<trkpt lat="33.8102826" lon="-118.3939011">
  <ele>-0.107</ele>
  <time>2026-09-02T22:07:31Z</time>
  <course>186.79</course>
  <speed>0.7212489168102785</speed>
  <fix>3d</fix>
</trkpt>
<trkpt lat="33.8102826" lon="-118.3939011">
  <ele>-0.107</ele>
  <time>2026-09-02T22:07:31Z</time>
  <course>186.79</course>
  <speed>0.7212489168102785</speed>
  <fix>3d</fix>
</trkpt>
<trkpt lat="33.8102825" lon="-118.3939012">
  <ele>-0.107</ele>
  <time>2026-09-02T22:07:31Z</time>
  <course>186.78</course>
  <speed>0.7212489168102785</speed>
  <fix>3d</fix>
</trkpt>
<trkpt lat="33.8102825" lon="-118.3939012">
  <ele>-0.107</ele>
  <time>2026-09-02T22:07:31Z</time>
  <course>186.78</course>
  <speed>0.7212489168102785</speed>
  <fix>3d</fix>
</trkpt>
<trkpt lat="33.8102825" lon="-118.3939013">
  <ele>-0.107</ele>
  <time>2026-09-02T22:07:31Z</time>
  <course>186.78</course>
  <speed>0.7212489168102785</speed>
  <fix>3d</fix>
</trkpt>
<trkpt lat="33.8102824" lon="-118.3939013">
  <ele>-0.107</ele>
  <time>2026-09-02T22:07:31Z</time>
  <course>186.78</course>
  <speed>0.7212489168102785</speed>
  <fix>3d</fix>
</trkpt>
<trkpt lat="33.8102835" lon="-118.3939">
  <ele>-0.1</ele>
  <time>2026-09-02T22:07:31Z</time>
  <course>223.26</course>
  <speed>0.73</speed>
  <fix>3d</fix>
</trkpt>
<trkpt lat="33.8102824" lon="-118.3939013">
  <ele>-0.107</ele>
  <time>2026-09-02T22:07:31Z</time>
  <course>186.78</course>
  <speed>0.7212489168102785</speed>
  <fix>3d</fix>
</trkpt>
<trkpt lat="33.8102824" lon="-118.3939013">
  <ele>-0.107</ele>
  <time>2026-09-02T22:07:31Z</time>
  <course>186.78</course>
  <speed>0.7212489168102785</speed>
  <fix>3d</fix>
</trkpt>
<trkpt lat="33.8102823" lon="-118.3939014">
  <ele>-0.107</ele>
  <time>2026-09-02T22:07:31Z</time>
  <course>186.78</course>
  <speed>0.7212489168102785</speed>
  <fix>3d</fix>
</trkpt>
<trkpt lat="33.8102823" lon="-118.3939014">
  <ele>-0.107</ele>
  <time>2026-09-02T22:07:31Z</time>
  <course>186.78</course>
  <speed>0.7212489168102785</speed>
  <fix>3d</fix>
</trkpt>
<trkpt lat="33.8102823" lon="-118.3939015">
  <ele>-0.107</ele>
  <time>2026-09-02T22:07:31Z</time>
  <course>186.78</course>
  <speed>0.7212489168102785</speed>
  <fix>3d</fix>
</trkpt>
<trkpt lat="33.8102822" lon="-118.3939015">
  <ele>-0.107</ele>
  <time>2026-09-02T22:07:31Z</time>
  <course>186.78</course>
  <speed>0.7212489168102785</speed>
  <fix>3d</fix>
</trkpt>
<trkpt lat="33.8102822" lon="-118.3939016">
  <ele>-0.107</ele>
  <time>2026-09-02T22:07:31Z</time>
  <course>186.78</course>
  <speed>0.7212489168102785</speed>
  <fix>3d</fix>
</trkpt>
<trkpt lat="33.8102822" lon="-118.3939016">
  <ele>-0.107</ele>
  <time>2026-09-02T22:07:31Z</time>
  <course>186.78</course>
  <speed>0.7212489168102785</speed>
  <fix>3d</fix>
</trkpt>
<trkpt lat="33.8102821" lon="-118.3939016">
  <ele>-0.107</ele>
  <time>2026-09-02T22:07:31Z</time>
  <course>186.78</course>
  <speed>0.7212489168102785</speed>
  <fix>3d</fix>
</trkpt>
<trkpt lat="33.8102821" lon="-118.3939017">
  <ele>-0.107</ele>
  <time>2026-09-02T22:07:31Z</time>
  <course>186.78</course>
  <speed>0.7212489168102785</speed>
  <fix>3d</fix>
</trkpt>
<trkpt lat="33.8102821" lon="-118.3939017">
  <ele>-0.107</ele>
  <time>2026-09-02T22:07:31Z</time>
  <course>186.78</course>
  <speed>0.7212489168102785</speed>
  <fix>3d</fix>
</trkpt>
<trkpt lat="33.810282" lon="-118.3939018">
  <ele>-0.107</ele>
  <time>2026-09-02T22:07:31Z</time>
  <course>186.78</course>
  <speed>0.7212489168102785</speed>
  <fix>3d</fix>
</trkpt>
<trkpt lat="33.810282" lon="-118.3939018">
  <ele>-0.107</ele>
  <time>2026-09-02T22:07:31Z</time>
  <course>186.78</course>
  <speed>0.7212489168102785</speed>
  <fix>3d</fix>
</trkpt>
<trkpt lat="33.810282" lon="-118.3939018">
  <ele>-0.107</ele>
  <time>2026-09-02T22:07:31Z</time>
  <course>186.78</course>
  <speed>0.7212489168102785</speed>
  <fix>3d</fix>
</trkpt>
<trkpt lat="33.810282" lon="-118.3939018">
  <ele>-0.107</ele>
  <time>2026-09-02T22:07:31Z</time>
  <course>186.78</course>
  <speed>0.7212489168102785</speed>
  <fix>3d</fix>
</trkpt>
<trkpt lat="33.8102825" lon="-118.393901">
  <ele>-0.1</ele>
  <time>2026-09-02T22:07:31Z</time>
  <course>223.26</course>
  <speed>0.73</speed>
  <fix>3d</fix>
</trkpt>
<trkpt lat="33.8102819" lon="-118.3939019">
  <ele>-0.108</ele>
  <time>2026-09-02T22:07:31Z</time>
  <course>186.78</course>
  <speed>0.7212489168102785</speed>
  <fix>3d</fix>
</trkpt>
<trkpt lat="33.8102819" lon="-118.3939019">
  <ele>-0.108</ele>
  <time>2026-09-02T22:07:31Z</time>
  <course>186.78</course>
  <speed>0.7212489168102785</speed>
  <fix>3d</fix>
</trkpt>
<trkpt lat="33.8102818" lon="-118.393902">
  <ele>-0.108</ele>
  <time>2026-09-02T22:07:31Z</time>
  <course>186.78</course>
  <speed>0.7212489168102785</speed>
  <fix>3d</fix>
</trkpt>
<trkpt lat="33.8102818" lon="-118.393902">
  <ele>-0.108</ele>
  <time>2026-09-02T22:07:31Z</time>
  <course>186.78</course>
  <speed>0.7212489168102785</speed>
  <fix>3d</fix>
</trkpt>
<trkpt lat="33.8102818" lon="-118.3939021">
  <ele>-0.108</ele>
  <time>2026-09-02T22:07:31Z</time>
  <course>186.78</course>
  <speed>0.7212489168102785</speed>
  <fix>3d</fix>
</trkpt>
<trkpt lat="33.8102817" lon="-118.3939021">
  <ele>-0.108</ele>
  <time>2026-09-02T22:07:31Z</time>
  <course>186.78</course>
  <speed>0.7212489168102785</speed>
  <fix>3d</fix>
</trkpt>
<trkpt lat="33.8102817" lon="-118.3939022">
  <ele>-0.108</ele>
  <time>2026-09-02T22:07:31Z</time>
  <course>186.78</course>
  <speed>0.7212489168102785</speed>
  <fix>3d</fix>
</trkpt>
<trkpt lat="33.8102816" lon="-118.3939022">
  <ele>-0.108</ele>
  <time>2026-09-02T22:07:31Z</time>
  <course>186.78</course>
  <speed>0.7212489168102785</speed>
  <fix>3d</fix>
</trkpt>
<trkpt lat="33.8102816" lon="-118.3939022">
  <ele>-0.109</ele>
  <time>2026-09-02T22:07:31Z</time>
  <course>186.78</course>
  <speed>0.7212489168102785</speed>
  <fix>3d</fix>
</trkpt>
<trkpt lat="33.8102816" lon="-118.3939023">
  <ele>-0.109</ele>
  <time>2026-09-02T22:07:31Z</time>
  <course>186.78</course>
  <speed>0.7212489168102785</speed>
  <fix>3d</fix>
</trkpt>
<trkpt lat="33.8102815" lon="-118.3939023">
  <ele>-0.109</ele>
  <time>2026-09-02T22:07:31Z</time>
  <course>186.78</course>
  <speed>0.7212489168102785</speed>
  <fix>3d</fix>
</trkpt>
<trkpt lat="33.8102815" lon="-118.3939024">
  <ele>-0.109</ele>
  <time>2026-09-02T22:07:31Z</time>
  <course>186.78</course>
  <speed>0.7212489168102785</speed>
  <fix>3d</fix>
</trkpt>
<trkpt lat="33.8102815" lon="-118.3939024">
  <ele>-0.109</ele>
  <time>2026-09-02T22:07:31Z</time>
  <course>186.78</course>
  <speed>0.7212489168102785</speed>
  <fix>3d</fix>
</trkpt>
<trkpt lat="33.8102825" lon="-118.393901">
  <ele>-0.1</ele>
  <time>2026-09-02T22:07:31Z</time>
  <course>223.26</course>
  <speed>0.73</speed>
  <fix>3d</fix>
</trkpt>
<trkpt lat="33.8102815" lon="-118.3939024">
  <ele>-0.109</ele>
  <time>2026-09-02T22:07:31Z</time>
  <course>186.78</course>
  <speed>0.7212489168102785</speed>
  <fix>3d</fix>
</trkpt>
<trkpt lat="33.8102814" lon="-118.3939025">
  <ele>-0.109</ele>
  <time>2026-09-02T22:07:31Z</time>
  <course>186.78</course>
  <speed>0.7212489168102785</speed>
  <fix>3d</fix>
</trkpt>
<trkpt lat="33.8102814" lon="-118.3939025">
  <ele>-0.109</ele>
  <time>2026-09-02T22:07:31Z</time>
  <course>186.78</course>
  <speed>0.7212489168102785</speed>
  <fix>3d</fix>
</trkpt>
<trkpt lat="33.8102813" lon="-118.3939026">
  <ele>-0.11</ele>
  <time>2026-09-02T22:07:31Z</time>
  <course>186.78</course>
  <speed>0.7212489168102785</speed>
  <fix>3d</fix>
</trkpt>
<trkpt lat="33.8102813" lon="-118.3939026">
  <ele>-0.11</ele>
  <time>2026-09-02T22:07:31Z</time>
  <course>186.78</course>
  <speed>0.7212489168102785</speed>
  <fix>3d</fix>
</trkpt>
<trkpt lat="33.8102813" lon="-118.3939027">
  <ele>-0.11</ele>
  <time>2026-09-02T22:07:31Z</time>
  <course>186.77</course>
  <speed>0.7212489168102785</speed>
  <fix>3d</fix>
</trkpt>
<trkpt lat="33.8102812" lon="-118.3939027">
  <ele>-0.11</ele>
  <time>2026-09-02T22:07:31Z</time>
  <course>186.77</course>
  <speed>0.7212489168102785</speed>
  <fix>3d</fix>
</trkpt>
<trkpt lat="33.8102812" lon="-118.3939027">
  <ele>-0.11</ele>
  <time>2026-09-02T22:07:31Z</time>
  <course>186.77</course>
  <speed>0.7212489168102785</speed>
  <fix>3d</fix>
</trkpt>
<trkpt lat="33.8102812" lon="-118.3939028">
  <ele>-0.11</ele>
  <time>2026-09-02T22:07:31Z</time>
  <course>186.77</course>
  <speed>0.7212489168102785</speed>
  <fix>3d</fix>
</trkpt>
<trkpt lat="33.8102811" lon="-118.3939028">
  <ele>-0.111</ele>
  <time>2026-09-02T22:07:31Z</time>
  <course>186.77</course>
  <speed>0.7212489168102785</speed>
  <fix>3d</fix>
</trkpt>
<trkpt lat="33.8102811" lon="-118.3939029">
  <ele>-0.111</ele>
  <time>2026-09-02T22:07:31Z</time>
  <course>186.77</course>
  <speed>0.7212489168102785</speed>
  <fix>3d</fix>
</trkpt>
<trkpt lat="33.810281" lon="-118.3939029">
  <ele>-0.111</ele>
  <time>2026-09-02T22:07:31Z</time>
  <course>186.77</course>
  <speed>0.7212489168102785</speed>
  <fix>3d</fix>
</trkpt>
<trkpt lat="33.810281" lon="-118.3939029">
  <ele>-0.111</ele>
  <time>2026-09-02T22:07:31Z</time>
  <course>186.77</course>
  <speed>0.7212489168102785</speed>
  <fix>3d</fix>
</trkpt>
<trkpt lat="33.8102815" lon="-118.3939021">
  <ele>-0.1</ele>
  <time>2026-09-02T22:07:31Z</time>
  <course>223.26</course>
  <speed>0.73</speed>
  <fix>3d</fix>
</trkpt>
<trkpt lat="33.810281" lon="-118.3939029">
  <ele>-0.111</ele>
  <time>2026-09-02T22:07:31Z</time>
  <course>186.77</course>
  <speed>0.7212489168102785</speed>
  <fix>3d</fix>
</trkpt>
<trkpt lat="33.8102809" lon="-118.393903">
  <ele>-0.111</ele>
  <time>2026-09-02T22:07:31Z</time>
  <course>186.77</course>
  <speed>0.7212489168102785</speed>
  <fix>3d</fix>
</trkpt>
<trkpt lat="33.8102809" lon="-118.3939031">
  <ele>-0.111</ele>
  <time>2026-09-02T22:07:31Z</time>
  <course>186.77</course>
  <speed>0.7212489168102785</speed>
  <fix>3d</fix>
</trkpt>
<trkpt lat="33.8102808" lon="-118.3939031">
  <ele>-0.112</ele>
  <time>2026-09-02T22:07:31Z</time>
  <course>186.77</course>
  <speed>0.7212489168102785</speed>
  <fix>3d</fix>
</trkpt>
<trkpt lat="33.8102808" lon="-118.3939032">
  <ele>-0.112</ele>
  <time>2026-09-02T22:07:31Z</time>
  <course>186.77</course>
  <speed>0.7212489168102785</speed>
  <fix>3d</fix>
</trkpt>
<trkpt lat="33.8102807" lon="-118.3939033">
  <ele>-0.112</ele>
  <time>2026-09-02T22:07:31Z</time>
  <course>186.77</course>
  <speed>0.7212489168102785</speed>
  <fix>3d</fix>
</trkpt>
<trkpt lat="33.8102807" lon="-118.3939033">
  <ele>-0.112</ele>
  <time>2026-09-02T22:07:31Z</time>
  <course>186.77</course>
  <speed>0.7212489168102785</speed>
  <fix>3d</fix>
</trkpt>
<trkpt lat="33.8102806" lon="-118.3939034">
  <ele>-0.113</ele>
  <time>2026-09-02T22:07:31Z</time>
  <course>186.77</course>
  <speed>0.7212489168102785</speed>
  <fix>3d</fix>
</trkpt>
<trkpt lat="33.8102806" lon="-118.3939034">
  <ele>-0.113</ele>
  <time>2026-09-02T22:07:31Z</time>
  <course>186.77</course>
  <speed>0.7212489168102785</speed>
  <fix>3d</fix>
</trkpt>
<trkpt lat="33.8102805" lon="-118.3939035">
  <ele>-0.113</ele>
  <time>2026-09-02T22:07:31Z</time>
  <course>186.77</course>
  <speed>0.7212489168102785</speed>
  <fix>3d</fix>
</trkpt>
<trkpt lat="33.8102815" lon="-118.3939021">
  <ele>-0.1</ele>
  <time>2026-09-02T22:07:31Z</time>
  <course>223.26</course>
  <speed>0.73</speed>
  <fix>3d</fix>
</trkpt>
<trkpt lat="33.8102805" lon="-118.3939035">
  <ele>-0.113</ele>
  <time>2026-09-02T22:07:31Z</time>
  <course>186.77</course>
  <speed>0.7212489168102785</speed>
  <fix>3d</fix>
</trkpt>
<trkpt lat="33.8102805" lon="-118.3939036">
  <ele>-0.113</ele>
  <time>2026-09-02T22:07:31Z</time>
  <course>186.77</course>
  <speed>0.7212489168102785</speed>
  <fix>3d</fix>
</trkpt>
<trkpt lat="33.8102804" lon="-118.3939036">
  <ele>-0.113</ele>
  <time>2026-09-02T22:07:31Z</time>
  <course>186.77</course>
  <speed>0.7212489168102785</speed>
  <fix>3d</fix>
</trkpt>
<trkpt lat="33.8102804" lon="-118.3939037">
  <ele>-0.113</ele>
  <time>2026-09-02T22:07:31Z</time>
  <course>186.77</course>
  <speed>0.7212489168102785</speed>
  <fix>3d</fix>
</trkpt>
<trkpt lat="33.8102803" lon="-118.3939037">
  <ele>-0.113</ele>
  <time>2026-09-02T22:07:31Z</time>
  <course>186.77</course>
  <speed>0.7212489168102785</speed>
  <fix>3d</fix>
</trkpt>
<trkpt lat="33.8102803" lon="-118.3939038">
  <ele>-0.113</ele>
  <time>2026-09-02T22:07:31Z</time>
  <course>186.77</course>
  <speed>0.7212489168102785</speed>
  <fix>3d</fix>
</trkpt>
<trkpt lat="33.8102803" lon="-118.3939038">
  <ele>-0.113</ele>
  <time>2026-09-02T22:07:31Z</time>
  <course>186.77</course>
  <speed>0.7212489168102785</speed>
  <fix>3d</fix>
</trkpt>
<trkpt lat="33.8102802" lon="-118.3939038">
  <ele>-0.113</ele>
  <time>2026-09-02T22:07:31Z</time>
  <course>186.77</course>
  <speed>0.7212489168102785</speed>
  <fix>3d</fix>
</trkpt>
<trkpt lat="33.8102802" lon="-118.3939039">
  <ele>-0.113</ele>
  <time>2026-09-02T22:07:31Z</time>
  <course>186.77</course>
  <speed>0.7212489168102785</speed>
  <fix>3d</fix>
</trkpt>
<trkpt lat="33.8102802" lon="-118.3939039">
  <ele>-0.113</ele>
  <time>2026-09-02T22:07:31Z</time>
  <course>186.77</course>
  <speed>0.7212489168102785</speed>
  <fix>3d</fix>
</trkpt>
<trkpt lat="33.8102801" lon="-118.393904">
  <ele>-0.113</ele>
  <time>2026-09-02T22:07:31Z</time>
  <course>186.77</course>
  <speed>0.7212489168102785</speed>
  <fix>3d</fix>
</trkpt>
<trkpt lat="33.8102801" lon="-118.393904">
  <ele>-0.113</ele>
  <time>2026-09-02T22:07:31Z</time>
  <course>186.77</course>
  <speed>0.7212489168102785</speed>
  <fix>3d</fix>
</trkpt>
<trkpt lat="33.8102806" lon="-118.3939032">
  <ele>-0.11</ele>
  <time>2026-09-02T22:07:31Z</time>
  <course>223.26</course>
  <speed>0.73</speed>
  <fix>3d</fix>
</trkpt>
<trkpt lat="33.8102801" lon="-118.393904">
  <ele>-0.113</ele>
  <time>2026-09-02T22:07:31Z</time>
  <course>186.77</course>
  <speed>0.7212489168102785</speed>
  <fix>3d</fix>
</trkpt>
<trkpt lat="33.81028" lon="-118.3939041">
  <ele>-0.113</ele>
  <time>2026-09-02T22:07:31Z</time>
  <course>186.77</course>
  <speed>0.7212489168102785</speed>
  <fix>3d</fix>
</trkpt>
<trkpt lat="33.8102799" lon="-118.3939042">
  <ele>-0.113</ele>
  <time>2026-09-02T22:07:31Z</time>
  <course>186.77</course>
  <speed>0.7212489168102785</speed>
  <fix>3d</fix>
</trkpt>
<trkpt lat="33.8102799" lon="-118.3939042">
  <ele>-0.113</ele>
  <time>2026-09-02T22:07:31Z</time>
  <course>186.77</course>
  <speed>0.7283543093852057</speed>
  <fix>3d</fix>
</trkpt>
<trkpt lat="33.8102798" lon="-118.3939043">
  <ele>-0.112</ele>
  <time>2026-09-02T22:07:31Z</time>
  <course>186.77</course>
  <speed>0.7283543093852057</speed>
  <fix>3d</fix>
</trkpt>
<trkpt lat="33.8102798" lon="-118.3939044">
  <ele>-0.112</ele>
  <time>2026-09-02T22:07:31Z</time>
  <course>186.77</course>
  <speed>0.7283543093852057</speed>
  <fix>3d</fix>
</trkpt>
<trkpt lat="33.8102797" lon="-118.3939044">
  <ele>-0.112</ele>
  <time>2026-09-02T22:07:31Z</time>
  <course>186.76</course>
  <speed>0.7283543093852057</speed>
  <fix>3d</fix>
</trkpt>
<trkpt lat="33.8102797" lon="-118.3939045">
  <ele>-0.112</ele>
  <time>2026-09-02T22:07:31Z</time>
  <course>186.76</course>
  <speed>0.7283543093852057</speed>
  <fix>3d</fix>
</trkpt>
<trkpt lat="33.8102797" lon="-118.3939045">
  <ele>-0.112</ele>
  <time>2026-09-02T22:07:31Z</time>
  <course>186.76</course>
  <speed>0.7283543093852057</speed>
  <fix>3d</fix>
</trkpt>
<trkpt lat="33.8102796" lon="-118.3939045">
  <ele>-0.111</ele>
  <time>2026-09-02T22:07:31Z</time>
  <course>186.76</course>
  <speed>0.7283543093852057</speed>
  <fix>3d</fix>
</trkpt>
<trkpt lat="33.8102796" lon="-118.3939046">
  <ele>-0.111</ele>
  <time>2026-09-02T22:07:31Z</time>
  <course>186.76</course>
  <speed>0.7283543093852057</speed>
  <fix>3d</fix>
</trkpt>
<trkpt lat="33.8102806" lon="-118.3939032">
  <ele>-0.11</ele>
  <time>2026-09-02T22:07:31Z</time>
  <course>223.26</course>
  <speed>0.73</speed>
  <fix>3d</fix>
</trkpt>
<trkpt lat="33.8102796" lon="-118.3939046">
  <ele>-0.111</ele>
  <time>2026-09-02T22:07:31Z</time>
  <course>186.76</course>
  <speed>0.7283543093852057</speed>
  <fix>3d</fix>
</trkpt>
<trkpt lat="33.8102795" lon="-118.3939047">
  <ele>-0.111</ele>
  <time>2026-09-02T22:07:31Z</time>
  <course>186.76</course>
  <speed>0.7283543093852057</speed>
  <fix>3d</fix>
</trkpt>
<trkpt lat="33.8102795" lon="-118.3939047">
  <ele>-0.111</ele>
  <time>2026-09-02T22:07:31Z</time>
  <course>186.76</course>
  <speed>0.7283543093852057</speed>
  <fix>3d</fix>
</trkpt>
<trkpt lat="33.8102794" lon="-118.3939048">
  <ele>-0.11</ele>
  <time>2026-09-02T22:07:31Z</time>
  <course>186.76</course>
  <speed>0.7283543093852057</speed>
  <fix>3d</fix>
</trkpt>
<trkpt lat="33.8102794" lon="-118.3939048">
  <ele>-0.11</ele>
  <time>2026-09-02T22:07:31Z</time>
  <course>186.76</course>
  <speed>0.7283543093852057</speed>
  <fix>3d</fix>
</trkpt>
<trkpt lat="33.8102794" lon="-118.3939048">
  <ele>-0.11</ele>
  <time>2026-09-02T22:07:31Z</time>
  <course>186.76</course>
  <speed>0.7283543093852057</speed>
  <fix>3d</fix>
</trkpt>
<trkpt lat="33.8102793" lon="-118.3939049">
  <ele>-0.11</ele>
  <time>2026-09-02T22:07:31Z</time>
  <course>186.76</course>
  <speed>0.7283543093852057</speed>
  <fix>3d</fix>
</trkpt>
<trkpt lat="33.8102793" lon="-118.3939049">
  <ele>-0.11</ele>
  <time>2026-09-02T22:07:31Z</time>
  <course>186.76</course>
  <speed>0.7283543093852057</speed>
  <fix>3d</fix>
</trkpt>
<trkpt lat="33.8102793" lon="-118.393905">
  <ele>-0.109</ele>
  <time>2026-09-02T22:07:31Z</time>
  <course>186.76</course>
  <speed>0.7283543093852057</speed>
  <fix>3d</fix>
</trkpt>
<trkpt lat="33.8102792" lon="-118.393905">
  <ele>-0.109</ele>
  <time>2026-09-02T22:07:31Z</time>
  <course>186.76</course>
  <speed>0.7283543093852057</speed>
  <fix>3d</fix>
</trkpt>
<trkpt lat="33.8102792" lon="-118.393905">
  <ele>-0.109</ele>
  <time>2026-09-02T22:07:31Z</time>
  <course>186.76</course>
  <speed>0.7283543093852057</speed>
  <fix>3d</fix>
</trkpt>
<trkpt lat="33.8102792" lon="-118.3939051">
  <ele>-0.109</ele>
  <time>2026-09-02T22:07:31Z</time>
  <course>186.76</course>
  <speed>0.7283543093852057</speed>
  <fix>3d</fix>
</trkpt>
<trkpt lat="33.8102791" lon="-118.3939051">
  <ele>-0.109</ele>
  <time>2026-09-02T22:07:31Z</time>
  <course>186.76</course>
  <speed>0.7283543093852057</speed>
  <fix>3d</fix>
</trkpt>
<trkpt lat="33.8102791" lon="-118.3939051">
  <ele>-0.109</ele>
  <time>2026-09-02T22:07:31Z</time>
  <course>186.76</course>
  <speed>0.7283543093852057</speed>
  <fix>3d</fix>
</trkpt>
<trkpt lat="33.8102796" lon="-118.3939043">
  <ele>-0.11</ele>
  <time>2026-09-02T22:07:31Z</time>
  <course>223.26</course>
  <speed>0.73</speed>
  <fix>3d</fix>
</trkpt>
<trkpt lat="33.810279" lon="-118.3939052">
  <ele>-0.108</ele>
  <time>2026-09-02T22:07:31Z</time>
  <course>186.76</course>
  <speed>0.7283543093852057</speed>
  <fix>3d</fix>
</trkpt>
<trkpt lat="33.810279" lon="-118.3939053">
  <ele>-0.108</ele>
  <time>2026-09-02T22:07:31Z</time>
  <course>186.76</course>
  <speed>0.7283543093852057</speed>
  <fix>3d</fix>
</trkpt>
<trkpt lat="33.8102789" lon="-118.3939053">
  <ele>-0.108</ele>
  <time>2026-09-02T22:07:31Z</time>
  <course>186.76</course>
  <speed>0.7283543093852057</speed>
  <fix>3d</fix>
</trkpt>
<trkpt lat="33.8102789" lon="-118.3939054">
  <ele>-0.107</ele>
  <time>2026-09-02T22:07:31Z</time>
  <course>186.76</course>
  <speed>0.7283543093852057</speed>
  <fix>3d</fix>
</trkpt>
<trkpt lat="33.8102789" lon="-118.3939054">
  <ele>-0.107</ele>
  <time>2026-09-02T22:07:31Z</time>
  <course>186.76</course>
  <speed>0.7283543093852057</speed>
  <fix>3d</fix>
</trkpt>
<trkpt lat="33.8102788" lon="-118.3939054">
  <ele>-0.107</ele>
  <time>2026-09-02T22:07:31Z</time>
  <course>186.76</course>
  <speed>0.7283543093852057</speed>
  <fix>3d</fix>
</trkpt>
<trkpt lat="33.8102788" lon="-118.3939055">
  <ele>-0.107</ele>
  <time>2026-09-02T22:07:31Z</time>
  <course>186.76</course>
  <speed>0.7283543093852057</speed>
  <fix>3d</fix>
</trkpt>
<trkpt lat="33.8102788" lon="-118.3939055">
  <ele>-0.106</ele>
  <time>2026-09-02T22:07:31Z</time>
  <course>186.76</course>
  <speed>0.7283543093852057</speed>
  <fix>3d</fix>
</trkpt>
<trkpt lat="33.8102787" lon="-118.3939056">
  <ele>-0.106</ele>
  <time>2026-09-02T22:07:31Z</time>
  <course>186.76</course>
  <speed>0.7283543093852057</speed>
  <fix>3d</fix>
</trkpt>
<trkpt lat="33.8102787" lon="-118.3939056">
  <ele>-0.106</ele>
  <time>2026-09-02T22:07:31Z</time>
  <course>186.76</course>
  <speed>0.7283543093852057</speed>
  <fix>3d</fix>
</trkpt>
<trkpt lat="33.8102787" lon="-118.3939057">
  <ele>-0.105</ele>
  <time>2026-09-02T22:07:31Z</time>
  <course>186.76</course>
  <speed>0.7283543093852057</speed>
  <fix>3d</fix>
</trkpt>
<trkpt lat="33.8102786" lon="-118.3939057">
  <ele>-0.105</ele>
  <time>2026-09-02T22:07:31Z</time>
  <course>186.76</course>
  <speed>0.7283543093852057</speed>
  <fix>3d</fix>
</trkpt>
<trkpt lat="33.8102796" lon="-118.3939043">
  <ele>-0.11</ele>
  <time>2026-09-02T22:07:31Z</time>
  <course>223.26</course>
  <speed>0.73</speed>
  <fix>3d</fix>
</trkpt>
<trkpt lat="33.8102786" lon="-118.3939057">
  <ele>-0.105</ele>
  <time>2026-09-02T22:07:31Z</time>
  <course>186.76</course>
  <speed>0.7283543093852057</speed>
  <fix>3d</fix>
</trkpt>
<trkpt lat="33.8102786" lon="-118.3939058">
  <ele>-0.105</ele>
  <time>2026-09-02T22:07:31Z</time>
  <course>186.76</course>
  <speed>0.7283543093852057</speed>
  <fix>3d</fix>
</trkpt>
<trkpt lat="33.8102785" lon="-118.3939058">
  <ele>-0.104</ele>
  <time>2026-09-02T22:07:31Z</time>
  <course>186.76</course>
  <speed>0.7283543093852057</speed>
  <fix>3d</fix>
</trkpt>
<trkpt lat="33.8102785" lon="-118.3939059">
  <ele>-0.104</ele>
  <time>2026-09-02T22:07:31Z</time>
  <course>186.76</course>
  <speed>0.7283543093852057</speed>
  <fix>3d</fix>
</trkpt>
<trkpt lat="33.8102785" lon="-118.3939059">
  <ele>-0.104</ele>
  <time>2026-09-02T22:07:31Z</time>
  <course>186.75</course>
  <speed>0.7283543093852057</speed>
  <fix>3d</fix>
</trkpt>
<trkpt lat="33.8102784" lon="-118.3939059">
  <ele>-0.104</ele>
  <time>2026-09-02T22:07:31Z</time>
  <course>186.75</course>
  <speed>0.7283543093852057</speed>
  <fix>3d</fix>
</trkpt>
<trkpt lat="33.8102784" lon="-118.393906">
  <ele>-0.104</ele>
  <time>2026-09-02T22:07:31Z</time>
  <course>186.75</course>
  <speed>0.7283543093852057</speed>
  <fix>3d</fix>
</trkpt>
<trkpt lat="33.8102783" lon="-118.393906">
  <ele>-0.103</ele>
  <time>2026-09-02T22:07:31Z</time>
  <course>186.75</course>
  <speed>0.7283543093852057</speed>
  <fix>3d</fix>
</trkpt>
<trkpt lat="33.8102783" lon="-118.3939061">
  <ele>-0.103</ele>
  <time>2026-09-02T22:07:31Z</time>
  <course>186.75</course>
  <speed>0.7283543093852057</speed>
  <fix>3d</fix>
</trkpt>
<trkpt lat="33.8102783" lon="-118.3939061">
  <ele>-0.103</ele>
  <time>2026-09-02T22:07:31Z</time>
  <course>186.75</course>
  <speed>0.7283543093852057</speed>
  <fix>3d</fix>
</trkpt>
<trkpt lat="33.8102782" lon="-118.3939061">
  <ele>-0.103</ele>
  <time>2026-09-02T22:07:31Z</time>
  <course>186.75</course>
  <speed>0.7283543093852057</speed>
  <fix>3d</fix>
</trkpt>
<trkpt lat="33.8102782" lon="-118.3939062">
  <ele>-0.102</ele>
  <time>2026-09-02T22:07:31Z</time>
  <course>186.75</course>
  <speed>0.7283543093852057</speed>
  <fix>3d</fix>
</trkpt>
<trkpt lat="33.8102782" lon="-118.3939062">
  <ele>-0.102</ele>
  <time>2026-09-02T22:07:31Z</time>
  <course>186.75</course>
  <speed>0.7283543093852057</speed>
  <fix>3d</fix>
</trkpt>
<trkpt lat="33.8102782" lon="-118.3939062">
  <ele>-0.102</ele>
  <time>2026-09-02T22:07:31Z</time>
  <course>186.75</course>
  <speed>0.7283543093852057</speed>
  <fix>3d</fix>
</trkpt>
<trkpt lat="33.8102787" lon="-118.3939054">
  <ele>-0.1</ele>
  <time>2026-09-02T22:07:31Z</time>
  <course>223.26</course>
  <speed>0.73</speed>
  <fix>3d</fix>
</trkpt>
<trkpt lat="33.8102781" lon="-118.3939063">
  <ele>-0.102</ele>
  <time>2026-09-02T22:07:31Z</time>
  <course>186.75</course>
  <speed>0.7283543093852057</speed>
  <fix>3d</fix>
</trkpt>
<trkpt lat="33.8102781" lon="-118.3939063">
  <ele>-0.102</ele>
  <time>2026-09-02T22:07:31Z</time>
  <course>186.75</course>
  <speed>0.7283543093852057</speed>
  <fix>3d</fix>
</trkpt>
<trkpt lat="33.810278" lon="-118.3939064">
  <ele>-0.102</ele>
  <time>2026-09-02T22:07:31Z</time>
  <course>186.75</course>
  <speed>0.7283543093852057</speed>
  <fix>3d</fix>
</trkpt>
<trkpt lat="33.810278" lon="-118.3939064">
  <ele>-0.101</ele>
  <time>2026-09-02T22:07:31Z</time>
  <course>186.75</course>
  <speed>0.7283543093852057</speed>
  <fix>3d</fix>
</trkpt>
<trkpt lat="33.810278" lon="-118.3939065">
  <ele>-0.101</ele>
  <time>2026-09-02T22:07:31Z</time>
  <course>186.75</course>
  <speed>0.7283543093852057</speed>
  <fix>3d</fix>
</trkpt>
<trkpt lat="33.8102779" lon="-118.3939065">
  <ele>-0.101</ele>
  <time>2026-09-02T22:07:31Z</time>
  <course>186.75</course>
  <speed>0.7283543093852057</speed>
  <fix>3d</fix>
</trkpt>
<trkpt lat="33.8102779" lon="-118.3939066">
  <ele>-0.101</ele>
  <time>2026-09-02T22:07:31Z</time>
  <course>186.75</course>
  <speed>0.7283543093852057</speed>
  <fix>3d</fix>
</trkpt>
<trkpt lat="33.8102778" lon="-118.3939066">
  <ele>-0.101</ele>
  <time>2026-09-02T22:07:31Z</time>
  <course>186.75</course>
  <speed>0.7283543093852057</speed>
  <fix>3d</fix>
</trkpt>
<trkpt lat="33.8102778" lon="-118.3939067">
  <ele>-0.101</ele>
  <time>2026-09-02T22:07:31Z</time>
  <course>186.75</course>
  <speed>0.7283543093852057</speed>
  <fix>3d</fix>
</trkpt>
<trkpt lat="33.8102778" lon="-118.3939067">
  <ele>-0.101</ele>
  <time>2026-09-02T22:07:31Z</time>
  <course>186.75</course>
  <speed>0.7283543093852057</speed>
  <fix>3d</fix>
</trkpt>
<trkpt lat="33.8102777" lon="-118.3939068">
  <ele>-0.101</ele>
  <time>2026-09-02T22:07:31Z</time>
  <course>186.75</course>
  <speed>0.7283543093852057</speed>
  <fix>3d</fix>
</trkpt>
<trkpt lat="33.8102777" lon="-118.3939068">
  <ele>-0.101</ele>
  <time>2026-09-02T22:07:31Z</time>
  <course>186.75</course>
  <speed>0.7283543093852057</speed>
  <fix>3d</fix>
</trkpt>
<trkpt lat="33.8102787" lon="-118.3939054">
  <ele>-0.1</ele>
  <time>2026-09-02T22:07:31Z</time>
  <course>223.26</course>
  <speed>0.73</speed>
  <fix>3d</fix>
</trkpt>
<trkpt lat="33.8102777" lon="-118.3939068">
  <ele>-0.101</ele>
  <time>2026-09-02T22:07:31Z</time>
  <course>186.75</course>
  <speed>0.7283543093852057</speed>
  <fix>3d</fix>
</trkpt>
<trkpt lat="33.8102776" lon="-118.3939069">
  <ele>-0.102</ele>
  <time>2026-09-02T22:07:31Z</time>
  <course>186.75</course>
  <speed>0.7283543093852057</speed>
  <fix>3d</fix>
</trkpt>
<trkpt lat="33.8102776" lon="-118.3939069">
  <ele>-0.102</ele>
  <time>2026-09-02T22:07:31Z</time>
  <course>186.75</course>
  <speed>0.7283543093852057</speed>
  <fix>3d</fix>
</trkpt>
<trkpt lat="33.8102775" lon="-118.393907">
  <ele>-0.102</ele>
  <time>2026-09-02T22:07:31Z</time>
  <course>186.75</course>
  <speed>0.7283543093852057</speed>
  <fix>3d</fix>
</trkpt>
<trkpt lat="33.8102775" lon="-118.393907">
  <ele>-0.102</ele>
  <time>2026-09-02T22:07:31Z</time>
  <course>186.75</course>
  <speed>0.7283543093852057</speed>
  <fix>3d</fix>
</trkpt>
<trkpt lat="33.8102775" lon="-118.3939071">
  <ele>-0.102</ele>
  <time>2026-09-02T22:07:31Z</time>
  <course>186.75</course>
  <speed>0.7283543093852057</speed>
  <fix>3d</fix>
</trkpt>
<trkpt lat="33.8102774" lon="-118.3939071">
  <ele>-0.102</ele>
  <time>2026-09-02T22:07:31Z</time>
  <course>186.75</course>
  <speed>0.7283543093852057</speed>
  <fix>3d</fix>
</trkpt>
<trkpt lat="33.8102774" lon="-118.3939071">
  <ele>-0.102</ele>
  <time>2026-09-02T22:07:31Z</time>
  <course>186.75</course>
  <speed>0.7283543093852057</speed>
  <fix>3d</fix>
</trkpt>
<trkpt lat="33.8102773" lon="-118.3939072">
  <ele>-0.102</ele>
  <time>2026-09-02T22:07:31Z</time>
  <course>186.75</course>
  <speed>0.7283543093852057</speed>
  <fix>3d</fix>
</trkpt>
<trkpt lat="33.8102773" lon="-118.3939072">
  <ele>-0.102</ele>
  <time>2026-09-02T22:07:31Z</time>
  <course>186.75</course>
  <speed>0.7283543093852057</speed>
  <fix>3d</fix>
</trkpt>
<trkpt lat="33.8102773" lon="-118.3939073">
  <ele>-0.102</ele>
  <time>2026-09-02T22:07:31Z</time>
  <course>186.75</course>
  <speed>0.7283543093852057</speed>
  <fix>3d</fix>
</trkpt>
<trkpt lat="33.8102772" lon="-118.3939073">
  <ele>-0.102</ele>
  <time>2026-09-02T22:07:31Z</time>
  <course>186.75</course>
  <speed>0.7283543093852057</speed>
  <fix>3d</fix>
</trkpt>
<trkpt lat="33.8102772" lon="-118.3939073">
  <ele>-0.102</ele>
  <time>2026-09-02T22:07:31Z</time>
  <course>186.75</course>
  <speed>0.7283543093852057</speed>
  <fix>3d</fix>
</trkpt>
<trkpt lat="33.8102777" lon="-118.3939065">
  <ele>-0.1</ele>
  <time>2026-09-02T22:07:31Z</time>
  <course>223.26</course>
  <speed>0.73</speed>
  <fix>3d</fix>
</trkpt>
<trkpt lat="33.8102772" lon="-118.3939073">
  <ele>-0.103</ele>
  <time>2026-09-02T22:07:31Z</time>
  <course>186.75</course>
  <speed>0.7283543093852057</speed>
  <fix>3d</fix>
</trkpt>
<trkpt lat="33.8102771" lon="-118.3939074">
  <ele>-0.103</ele>
  <time>2026-09-02T22:07:31Z</time>
  <course>186.75</course>
  <speed>0.7283543093852057</speed>
  <fix>3d</fix>
</trkpt>
<trkpt lat="33.8102771" lon="-118.3939075">
  <ele>-0.103</ele>
  <time>2026-09-02T22:07:31Z</time>
  <course>186.74</course>
  <speed>0.7283543093852057</speed>
  <fix>3d</fix>
</trkpt>
<trkpt lat="33.8102771" lon="-118.3939075">
  <ele>-0.103</ele>
  <time>2026-09-02T22:07:31Z</time>
  <course>186.74</course>
  <speed>0.7283543093852057</speed>
  <fix>3d</fix>
</trkpt>
<trkpt lat="33.810277" lon="-118.3939075">
  <ele>-0.103</ele>
  <time>2026-09-02T22:07:31Z</time>
  <course>186.74</course>
  <speed>0.7283543093852057</speed>
  <fix>3d</fix>
</trkpt>
<trkpt lat="33.810277" lon="-118.3939076">
  <ele>-0.103</ele>
  <time>2026-09-02T22:07:31Z</time>
  <course>186.74</course>
  <speed>0.7283543093852057</speed>
  <fix>3d</fix>
</trkpt>
<trkpt lat="33.8102769" lon="-118.3939076">
  <ele>-0.104</ele>
  <time>2026-09-02T22:07:31Z</time>
  <course>186.74</course>
  <speed>0.7283543093852057</speed>
  <fix>3d</fix>
</trkpt>
<trkpt lat="33.8102769" lon="-118.3939077">
  <ele>-0.104</ele>
  <time>2026-09-02T22:07:31Z</time>
  <course>186.74</course>
  <speed>0.7283543093852057</speed>
  <fix>3d</fix>
</trkpt>
<trkpt lat="33.8102769" lon="-118.3939077">
  <ele>-0.104</ele>
  <time>2026-09-02T22:07:31Z</time>
  <course>186.74</course>
  <speed>0.7283543093852057</speed>
  <fix>3d</fix>
</trkpt>
<trkpt lat="33.8102768" lon="-118.3939078">
  <ele>-0.104</ele>
  <time>2026-09-02T22:07:31Z</time>
  <course>186.74</course>
  <speed>0.7283543093852057</speed>
  <fix>3d</fix>
</trkpt>
<trkpt lat="33.8102768" lon="-118.3939078">
  <ele>-0.105</ele>
  <time>2026-09-02T22:07:31Z</time>
  <course>186.74</course>
  <speed>0.7283543093852057</speed>
  <fix>3d</fix>
</trkpt>
<trkpt lat="33.8102768" lon="-118.3939078">
  <ele>-0.105</ele>
  <time>2026-09-02T22:07:31Z</time>
  <course>186.74</course>
  <speed>0.7283543093852057</speed>
  <fix>3d</fix>
</trkpt>
<trkpt lat="33.8102767" lon="-118.3939079">
  <ele>-0.105</ele>
  <time>2026-09-02T22:07:31Z</time>
  <course>186.74</course>
  <speed>0.7283543093852057</speed>
  <fix>3d</fix>
</trkpt>
<trkpt lat="33.8102777" lon="-118.3939065">
  <ele>-0.1</ele>
  <time>2026-09-02T22:07:31Z</time>
  <course>223.26</course>
  <speed>0.73</speed>
  <fix>3d</fix>
</trkpt>
<trkpt lat="33.8102767" lon="-118.3939079">
  <ele>-0.105</ele>
  <time>2026-09-02T22:07:31Z</time>
  <course>186.74</course>
  <speed>0.7283543093852057</speed>
  <fix>3d</fix>
</trkpt>
<trkpt lat="33.8102767" lon="-118.393908">
  <ele>-0.105</ele>
  <time>2026-09-02T22:07:31Z</time>
  <course>186.74</course>
  <speed>0.7283543093852057</speed>
  <fix>3d</fix>
</trkpt>
<trkpt lat="33.8102766" lon="-118.393908">
  <ele>-0.106</ele>
  <time>2026-09-02T22:07:31Z</time>
  <course>186.74</course>
  <speed>0.7283543093852057</speed>
  <fix>3d</fix>
</trkpt>
<trkpt lat="33.8102766" lon="-118.3939081">
  <ele>-0.106</ele>
  <time>2026-09-02T22:07:31Z</time>
  <course>186.74</course>
  <speed>0.7283543093852057</speed>
  <fix>3d</fix>
</trkpt>
<trkpt lat="33.8102765" lon="-118.3939082">
  <ele>-0.106</ele>
  <time>2026-09-02T22:07:31Z</time>
  <course>186.74</course>
  <speed>0.7283543093852057</speed>
  <fix>3d</fix>
</trkpt>
<trkpt lat="33.8102765" lon="-118.3939082">
  <ele>-0.107</ele>
  <time>2026-09-02T22:07:31Z</time>
  <course>186.74</course>
  <speed>0.7283543093852057</speed>
  <fix>3d</fix>
</trkpt>
<trkpt lat="33.8102764" lon="-118.3939082">
  <ele>-0.107</ele>
  <time>2026-09-02T22:07:31Z</time>
  <course>186.74</course>
  <speed>0.7283543093852057</speed>
  <fix>3d</fix>
</trkpt>
<trkpt lat="33.8102764" lon="-118.3939083">
  <ele>-0.107</ele>
  <time>2026-09-02T22:07:31Z</time>
  <course>186.74</course>
  <speed>0.7283543093852057</speed>
  <fix>3d</fix>
</trkpt>
<trkpt lat="33.8102763" lon="-118.3939084">
  <ele>-0.107</ele>
  <time>2026-09-02T22:07:31Z</time>
  <course>186.74</course>
  <speed>0.7283543093852057</speed>
  <fix>3d</fix>
</trkpt>
<trkpt lat="33.8102763" lon="-118.3939084">
  <ele>-0.108</ele>
  <time>2026-09-02T22:07:31Z</time>
  <course>186.74</course>
  <speed>0.7283543093852057</speed>
  <fix>3d</fix>
</trkpt>
<trkpt lat="33.8102763" lon="-118.3939084">
  <ele>-0.108</ele>
  <time>2026-09-02T22:07:31Z</time>
  <course>186.74</course>
  <speed>0.7283543093852057</speed>
  <fix>3d</fix>
</trkpt>
<trkpt lat="33.8102767" lon="-118.3939076">
  <ele>-0.1</ele>
  <time>2026-09-02T22:07:31Z</time>
  <course>223.26</course>
  <speed>0.73</speed>
  <fix>3d</fix>
</trkpt>
<trkpt lat="33.8102763" lon="-118.3939084">
  <ele>-0.108</ele>
  <time>2026-09-02T22:07:31Z</time>
  <course>186.74</course>
  <speed>0.7283543093852057</speed>
  <fix>3d</fix>
</trkpt>
<trkpt lat="33.8102762" lon="-118.3939085">
  <ele>-0.108</ele>
  <time>2026-09-02T22:07:31Z</time>
  <course>186.74</course>
  <speed>0.7283543093852057</speed>
  <fix>3d</fix>
</trkpt>
<trkpt lat="33.8102761" lon="-118.3939086">
  <ele>-0.108</ele>
  <time>2026-09-02T22:07:31Z</time>
  <course>186.74</course>
  <speed>0.7283543093852057</speed>
  <fix>3d</fix>
</trkpt>
<trkpt lat="33.8102761" lon="-118.3939086">
  <ele>-0.109</ele>
  <time>2026-09-02T22:07:31Z</time>
  <course>186.74</course>
  <speed>0.7283543093852057</speed>
  <fix>3d</fix>
</trkpt>
<trkpt lat="33.8102761" lon="-118.3939087">
  <ele>-0.109</ele>
  <time>2026-09-02T22:07:31Z</time>
  <course>186.74</course>
  <speed>0.7283543093852057</speed>
  <fix>3d</fix>
</trkpt>
<trkpt lat="33.810276" lon="-118.3939087">
  <ele>-0.109</ele>
  <time>2026-09-02T22:07:31Z</time>
  <course>186.74</course>
  <speed>0.7283543093852057</speed>
  <fix>3d</fix>
</trkpt>
<trkpt lat="33.810276" lon="-118.3939088">
  <ele>-0.109</ele>
  <time>2026-09-02T22:07:31Z</time>
  <course>186.74</course>
  <speed>0.7283543093852057</speed>
  <fix>3d</fix>
</trkpt>
<trkpt lat="33.8102759" lon="-118.3939088">
  <ele>-0.109</ele>
  <time>2026-09-02T22:07:31Z</time>
  <course>186.74</course>
  <speed>0.7283543093852057</speed>
  <fix>3d</fix>
</trkpt>
<trkpt lat="33.8102759" lon="-118.3939088">
  <ele>-0.11</ele>
  <time>2026-09-02T22:07:31Z</time>
  <course>186.74</course>
  <speed>0.7283543093852057</speed>
  <fix>3d</fix>
</trkpt>
<trkpt lat="33.8102759" lon="-118.3939089">
  <ele>-0.11</ele>
  <time>2026-09-02T22:07:31Z</time>
  <course>186.74</course>
  <speed>0.7283543093852057</speed>
  <fix>3d</fix>
</trkpt>
<trkpt lat="33.8102758" lon="-118.3939089">
  <ele>-0.11</ele>
  <time>2026-09-02T22:07:31Z</time>
  <course>186.74</course>
  <speed>0.7283543093852057</speed>
  <fix>3d</fix>
</trkpt>
<trkpt lat="33.8102758" lon="-118.393909">
  <ele>-0.11</ele>
  <time>2026-09-02T22:07:31Z</time>
  <course>186.74</course>
  <speed>0.7283543093852057</speed>
  <fix>3d</fix>
</trkpt>
<trkpt lat="33.8102758" lon="-118.393909">
  <ele>-0.11</ele>
  <time>2026-09-02T22:07:31Z</time>
  <course>186.74</course>
  <speed>0.7283543093852057</speed>
  <fix>3d</fix>
</trkpt>
<trkpt lat="33.8102767" lon="-118.3939076">
  <ele>-0.1</ele>
  <time>2026-09-02T22:07:31Z</time>
  <course>223.26</course>
  <speed>0.73</speed>
  <fix>3d</fix>
</trkpt>
<trkpt lat="33.8102758" lon="-118.393909">
  <ele>-0.11</ele>
  <time>2026-09-02T22:07:31Z</time>
  <course>186.74</course>
  <speed>0.7283543093852057</speed>
  <fix>3d</fix>
</trkpt>
<trkpt lat="33.8102757" lon="-118.3939091">
  <ele>-0.111</ele>
  <time>2026-09-02T22:07:31Z</time>
  <course>186.73</course>
  <speed>0.7283543093852057</speed>
  <fix>3d</fix>
</trkpt>
<trkpt lat="33.8102757" lon="-118.3939091">
  <ele>-0.111</ele>
  <time>2026-09-02T22:07:31Z</time>
  <course>186.73</course>
  <speed>0.7283543093852057</speed>
  <fix>3d</fix>
</trkpt>
<trkpt lat="33.8102756" lon="-118.3939092">
  <ele>-0.111</ele>
  <time>2026-09-02T22:07:31Z</time>
  <course>186.73</course>
  <speed>0.7283543093852057</speed>
  <fix>3d</fix>
</trkpt>
<trkpt lat="33.8102756" lon="-118.3939092">
  <ele>-0.111</ele>
  <time>2026-09-02T22:07:31Z</time>
  <course>186.73</course>
  <speed>0.7283543093852057</speed>
  <fix>3d</fix>
</trkpt>
<trkpt lat="33.8102755" lon="-118.3939093">
  <ele>-0.111</ele>
  <time>2026-09-02T22:07:31Z</time>
  <course>186.73</course>
  <speed>0.7283543093852057</speed>
  <fix>3d</fix>
</trkpt>
<trkpt lat="33.8102755" lon="-118.3939093">
  <ele>-0.111</ele>
  <time>2026-09-02T22:07:31Z</time>
  <course>186.73</course>
  <speed>0.7283543093852057</speed>
  <fix>3d</fix>
</trkpt>
<trkpt lat="33.8102754" lon="-118.3939094">
  <ele>-0.111</ele>
  <time>2026-09-02T22:07:31Z</time>
  <course>186.73</course>
  <speed>0.7283543093852057</speed>
  <fix>3d</fix>
</trkpt>
<trkpt lat="33.8102754" lon="-118.3939095">
  <ele>-0.111</ele>
  <time>2026-09-02T22:07:31Z</time>
  <course>186.73</course>
  <speed>0.7283543093852057</speed>
  <fix>3d</fix>
</trkpt>
<trkpt lat="33.8102753" lon="-118.3939095">
  <ele>-0.111</ele>
  <time>2026-09-02T22:07:31Z</time>
  <course>186.73</course>
  <speed>0.7283543093852057</speed>
  <fix>3d</fix>
</trkpt>
<trkpt lat="33.8102753" lon="-118.3939095">
  <ele>-0.111</ele>
  <time>2026-09-02T22:07:31Z</time>
  <course>186.73</course>
  <speed>0.7283543093852057</speed>
  <fix>3d</fix>
</trkpt>
<trkpt lat="33.8102758" lon="-118.3939087">
  <ele>-0.11</ele>
  <time>2026-09-02T22:07:31Z</time>
  <course>223.26</course>
  <speed>0.73</speed>
  <fix>3d</fix>
</trkpt>
<trkpt lat="33.8102753" lon="-118.3939095">
  <ele>-0.111</ele>
  <time>2026-09-02T22:07:31Z</time>
  <course>186.73</course>
  <speed>0.7283543093852057</speed>
  <fix>3d</fix>
</trkpt>
<trkpt lat="33.8102752" lon="-118.3939096">
  <ele>-0.111</ele>
  <time>2026-09-02T22:07:31Z</time>
  <course>186.73</course>
  <speed>0.7283543093852057</speed>
  <fix>3d</fix>
</trkpt>
<trkpt lat="33.8102752" lon="-118.3939097">
  <ele>-0.11</ele>
  <time>2026-09-02T22:07:31Z</time>
  <course>186.73</course>
  <speed>0.7283543093852057</speed>
  <fix>3d</fix>
</trkpt>
<trkpt lat="33.8102751" lon="-118.3939097">
  <ele>-0.11</ele>
  <time>2026-09-02T22:07:31Z</time>
  <course>186.73</course>
  <speed>0.7283543093852057</speed>
  <fix>3d</fix>
</trkpt>
<trkpt lat="33.8102751" lon="-118.3939098">
  <ele>-0.11</ele>
  <time>2026-09-02T22:07:31Z</time>
  <course>186.73</course>
  <speed>0.7283543093852057</speed>
  <fix>3d</fix>
</trkpt>
<trkpt lat="33.8102751" lon="-118.3939098">
  <ele>-0.11</ele>
  <time>2026-09-02T22:07:31Z</time>
  <course>186.73</course>
  <speed>0.7283543093852057</speed>
  <fix>3d</fix>
</trkpt>
<trkpt lat="33.810275" lon="-118.3939099">
  <ele>-0.11</ele>
  <time>2026-09-02T22:07:31Z</time>
  <course>186.73</course>
  <speed>0.7283543093852057</speed>
  <fix>3d</fix>
</trkpt>
<trkpt lat="33.810275" lon="-118.3939099">
  <ele>-0.11</ele>
  <time>2026-09-02T22:07:31Z</time>
  <course>186.73</course>
  <speed>0.7283543093852057</speed>
  <fix>3d</fix>
</trkpt>
<trkpt lat="33.8102749" lon="-118.39391">
  <ele>-0.11</ele>
  <time>2026-09-02T22:07:31Z</time>
  <course>186.73</course>
  <speed>0.7283543093852057</speed>
  <fix>3d</fix>
</trkpt>
<trkpt lat="33.8102749" lon="-118.39391">
  <ele>-0.11</ele>
  <time>2026-09-02T22:07:31Z</time>
  <course>186.73</course>
  <speed>0.7283543093852057</speed>
  <fix>3d</fix>
</trkpt>
<trkpt lat="33.8102749" lon="-118.3939101">
  <ele>-0.109</ele>
  <time>2026-09-02T22:07:31Z</time>
  <course>186.73</course>
  <speed>0.7283543093852057</speed>
  <fix>3d</fix>
</trkpt>
<trkpt lat="33.8102748" lon="-118.3939101">
  <ele>-0.109</ele>
  <time>2026-09-02T22:07:31Z</time>
  <course>186.73</course>
  <speed>0.7283543093852057</speed>
  <fix>3d</fix>
</trkpt>
<trkpt lat="33.8102758" lon="-118.3939087">
  <ele>-0.11</ele>
  <time>2026-09-02T22:07:31Z</time>
  <course>223.26</course>
  <speed>0.73</speed>
  <fix>3d</fix>
</trkpt>
<trkpt lat="33.8102748" lon="-118.3939101">
  <ele>-0.109</ele>
  <time>2026-09-02T22:07:31Z</time>
  <course>186.73</course>
  <speed>0.7283543093852057</speed>
  <fix>3d</fix>
</trkpt>
<trkpt lat="33.8102748" lon="-118.3939102">
  <ele>-0.109</ele>
  <time>2026-09-02T22:07:31Z</time>
  <course>186.73</course>
  <speed>0.7283543093852057</speed>
  <fix>3d</fix>
</trkpt>
<trkpt lat="33.8102747" lon="-118.3939102">
  <ele>-0.109</ele>
  <time>2026-09-02T22:07:31Z</time>
  <course>186.73</course>
  <speed>0.7283543093852057</speed>
  <fix>3d</fix>
</trkpt>
<trkpt lat="33.8102747" lon="-118.3939103">
  <ele>-0.109</ele>
  <time>2026-09-02T22:07:31Z</time>
  <course>186.73</course>
  <speed>0.7283543093852057</speed>
  <fix>3d</fix>
</trkpt>
<trkpt lat="33.8102746" lon="-118.3939103">
  <ele>-0.108</ele>
  <time>2026-09-02T22:07:31Z</time>
  <course>186.73</course>
  <speed>0.7283543093852057</speed>
  <fix>3d</fix>
</trkpt>
<trkpt lat="33.8102746" lon="-118.3939103">
  <ele>-0.108</ele>
  <time>2026-09-02T22:07:31Z</time>
  <course>186.73</course>
  <speed>0.7283543093852057</speed>
  <fix>3d</fix>
</trkpt>
<trkpt lat="33.8102746" lon="-118.3939104">
  <ele>-0.108</ele>
  <time>2026-09-02T22:07:31Z</time>
  <course>186.73</course>
  <speed>0.7283543093852057</speed>
  <fix>3d</fix>
</trkpt>
<trkpt lat="33.8102745" lon="-118.3939104">
  <ele>-0.108</ele>
  <time>2026-09-02T22:07:31Z</time>
  <course>186.73</course>
  <speed>0.7283543093852057</speed>
  <fix>3d</fix>
</trkpt>
<trkpt lat="33.8102745" lon="-118.3939105">
  <ele>-0.108</ele>
  <time>2026-09-02T22:07:31Z</time>
  <course>186.73</course>
  <speed>0.7283543093852057</speed>
  <fix>3d</fix>
</trkpt>
<trkpt lat="33.8102745" lon="-118.3939105">
  <ele>-0.107</ele>
  <time>2026-09-02T22:07:31Z</time>
  <course>186.73</course>
  <speed>0.7283543093852057</speed>
  <fix>3d</fix>
</trkpt>
<trkpt lat="33.8102744" lon="-118.3939106">
  <ele>-0.107</ele>
  <time>2026-09-02T22:07:31Z</time>
  <course>186.73</course>
  <speed>0.7283543093852057</speed>
  <fix>3d</fix>
</trkpt>
<trkpt lat="33.8102744" lon="-118.3939106">
  <ele>-0.107</ele>
  <time>2026-09-02T22:07:31Z</time>
  <course>186.72</course>
  <speed>0.7283543093852057</speed>
  <fix>3d</fix>
</trkpt>
<trkpt lat="33.8102744" lon="-118.3939106">
  <ele>-0.107</ele>
  <time>2026-09-02T22:07:31Z</time>
  <course>186.72</course>
  <speed>0.7283543093852057</speed>
  <fix>3d</fix>
</trkpt>
<trkpt lat="33.8102744" lon="-118.3939106">
  <ele>-0.107</ele>
  <time>2026-09-02T22:07:31Z</time>
  <course>186.72</course>
  <speed>0.7283543093852057</speed>
  <fix>3d</fix>
</trkpt>
<trkpt lat="33.8102748" lon="-118.3939098">
  <ele>-0.11</ele>
  <time>2026-09-02T22:07:31Z</time>
  <course>223.26</course>
  <speed>0.73</speed>
  <fix>3d</fix>
</trkpt>
<trkpt lat="33.8102743" lon="-118.3939107">
  <ele>-0.106</ele>
  <time>2026-09-02T22:07:31Z</time>
  <course>186.72</course>
  <speed>0.7283543093852057</speed>
  <fix>3d</fix>
</trkpt>
<trkpt lat="33.8102742" lon="-118.3939108">
  <ele>-0.106</ele>
  <time>2026-09-02T22:07:31Z</time>
  <course>186.72</course>
  <speed>0.7283543093852057</speed>
  <fix>3d</fix>
</trkpt>
<trkpt lat="33.8102742" lon="-118.3939108">
  <ele>-0.106</ele>
  <time>2026-09-02T22:07:31Z</time>
  <course>186.72</course>
  <speed>0.7283543093852057</speed>
  <fix>3d</fix>
</trkpt>
<trkpt lat="33.8102741" lon="-118.3939109">
  <ele>-0.105</ele>
  <time>2026-09-02T22:07:31Z</time>
  <course>186.72</course>
  <speed>0.7283543093852057</speed>
  <fix>3d</fix>
</trkpt>
<trkpt lat="33.8102741" lon="-118.3939109">
  <ele>-0.105</ele>
  <time>2026-09-02T22:07:31Z</time>
  <course>186.72</course>
  <speed>0.7283543093852057</speed>
  <fix>3d</fix>
</trkpt>
<trkpt lat="33.8102741" lon="-118.393911">
  <ele>-0.105</ele>
  <time>2026-09-02T22:07:31Z</time>
  <course>186.72</course>
  <speed>0.7283543093852057</speed>
  <fix>3d</fix>
</trkpt>
<trkpt lat="33.810274" lon="-118.393911">
  <ele>-0.105</ele>
  <time>2026-09-02T22:07:31Z</time>
  <course>186.72</course>
  <speed>0.7283543093852057</speed>
  <fix>3d</fix>
</trkpt>
<trkpt lat="33.810274" lon="-118.393911">
  <ele>-0.105</ele>
  <time>2026-09-02T22:07:31Z</time>
  <course>186.72</course>
  <speed>0.7283543093852057</speed>
  <fix>3d</fix>
</trkpt>
<trkpt lat="33.810274" lon="-118.3939111">
  <ele>-0.105</ele>
  <time>2026-09-02T22:07:31Z</time>
  <course>186.72</course>
  <speed>0.7283543093852057</speed>
  <fix>3d</fix>
</trkpt>
<trkpt lat="33.8102739" lon="-118.3939111">
  <ele>-0.104</ele>
  <time>2026-09-02T22:07:31Z</time>
  <course>186.72</course>
  <speed>0.7283543093852057</speed>
  <fix>3d</fix>
</trkpt>
<trkpt lat="33.8102739" lon="-118.3939112">
  <ele>-0.104</ele>
  <time>2026-09-02T22:07:31Z</time>
  <course>186.72</course>
  <speed>0.7283543093852057</speed>
  <fix>3d</fix>
</trkpt>
<trkpt lat="33.8102739" lon="-118.3939112">
  <ele>-0.104</ele>
  <time>2026-09-02T22:07:31Z</time>
  <course>186.72</course>
  <speed>0.7283543093852057</speed>
  <fix>3d</fix>
</trkpt>
<trkpt lat="33.8102748" lon="-118.3939098">
  <ele>-0.11</ele>
  <time>2026-09-02T22:07:31Z</time>
  <course>223.26</course>
  <speed>0.73</speed>
  <fix>3d</fix>
</trkpt>
<trkpt lat="33.8102738" lon="-118.3939113">
  <ele>-0.104</ele>
  <time>2026-09-02T22:07:31Z</time>
  <course>186.72</course>
  <speed>0.7283543093852057</speed>
  <fix>3d</fix>
</trkpt>
<trkpt lat="33.8102738" lon="-118.3939113">
  <ele>-0.104</ele>
  <time>2026-09-02T22:07:31Z</time>
  <course>186.72</course>
  <speed>0.7283543093852057</speed>
  <fix>3d</fix>
</trkpt>
<trkpt lat="33.8102737" lon="-118.3939114">
  <ele>-0.104</ele>
  <time>2026-09-02T22:07:31Z</time>
  <course>186.72</course>
  <speed>0.7283543093852057</speed>
  <fix>3d</fix>
</trkpt>
<trkpt lat="33.8102737" lon="-118.3939114">
  <ele>-0.103</ele>
  <time>2026-09-02T22:07:31Z</time>
  <course>186.72</course>
  <speed>0.7283543093852057</speed>
  <fix>3d</fix>
</trkpt>
<trkpt lat="33.8102737" lon="-118.3939114">
  <ele>-0.103</ele>
  <time>2026-09-02T22:07:31Z</time>
  <course>186.72</course>
  <speed>0.7283543093852057</speed>
  <fix>3d</fix>
</trkpt>
<trkpt lat="33.8102736" lon="-118.3939115">
  <ele>-0.103</ele>
  <time>2026-09-02T22:07:31Z</time>
  <course>186.72</course>
  <speed>0.7283543093852057</speed>
  <fix>3d</fix>
</trkpt>
<trkpt lat="33.8102736" lon="-118.3939115">
  <ele>-0.103</ele>
  <time>2026-09-02T22:07:31Z</time>
  <course>186.72</course>
  <speed>0.7283543093852057</speed>
  <fix>3d</fix>
</trkpt>
<trkpt lat="33.8102736" lon="-118.3939116">
  <ele>-0.103</ele>
  <time>2026-09-02T22:07:31Z</time>
  <course>186.72</course>
  <speed>0.7283543093852057</speed>
  <fix>3d</fix>
</trkpt>
<trkpt lat="33.8102735" lon="-118.3939116">
  <ele>-0.103</ele>
  <time>2026-09-02T22:07:31Z</time>
  <course>186.72</course>
  <speed>0.7283543093852057</speed>
  <fix>3d</fix>
</trkpt>
<trkpt lat="33.8102735" lon="-118.3939117">
  <ele>-0.103</ele>
  <time>2026-09-02T22:07:31Z</time>
  <course>186.72</course>
  <speed>0.7283543093852057</speed>
  <fix>3d</fix>
</trkpt>
<trkpt lat="33.8102734" lon="-118.3939117">
  <ele>-0.103</ele>
  <time>2026-09-02T22:07:31Z</time>
  <course>186.72</course>
  <speed>0.7283543093852057</speed>
  <fix>3d</fix>
</trkpt>
<trkpt lat="33.8102734" lon="-118.3939117">
  <ele>-0.103</ele>
  <time>2026-09-02T22:07:31Z</time>
  <course>186.72</course>
  <speed>0.7283543093852057</speed>
  <fix>3d</fix>
</trkpt>
<trkpt lat="33.8102738" lon="-118.3939109">
  <ele>-0.1</ele>
  <time>2026-09-02T22:07:31Z</time>
  <course>223.26</course>
  <speed>0.73</speed>
  <fix>3d</fix>
</trkpt>
<trkpt lat="33.8102734" lon="-118.3939118">
  <ele>-0.103</ele>
  <time>2026-09-02T22:07:31Z</time>
  <course>186.72</course>
  <speed>0.7283543093852057</speed>
  <fix>3d</fix>
</trkpt>
<trkpt lat="33.8102733" lon="-118.3939118">
  <ele>-0.103</ele>
  <time>2026-09-02T22:07:31Z</time>
  <course>186.72</course>
  <speed>0.7283543093852057</speed>
  <fix>3d</fix>
</trkpt>
<trkpt lat="33.8102733" lon="-118.3939119">
  <ele>-0.103</ele>
  <time>2026-09-02T22:07:31Z</time>
  <course>186.72</course>
  <speed>0.7283543093852057</speed>
  <fix>3d</fix>
</trkpt>
<trkpt lat="33.8102733" lon="-118.3939119">
  <ele>-0.103</ele>
  <time>2026-09-02T22:07:31Z</time>
  <course>186.72</course>
  <speed>0.7283543093852057</speed>
  <fix>3d</fix>
</trkpt>
<trkpt lat="33.8102732" lon="-118.3939119">
  <ele>-0.103</ele>
  <time>2026-09-02T22:07:31Z</time>
  <course>186.72</course>
  <speed>0.7283543093852057</speed>
  <fix>3d</fix>
</trkpt>
<trkpt lat="33.8102732" lon="-118.393912">
  <ele>-0.103</ele>
  <time>2026-09-02T22:07:31Z</time>
  <course>186.72</course>
  <speed>0.7283543093852057</speed>
  <fix>3d</fix>
</trkpt>
<trkpt lat="33.8102732" lon="-118.393912">
  <ele>-0.103</ele>
  <time>2026-09-02T22:07:31Z</time>
  <course>186.72</course>
  <speed>0.7283543093852057</speed>
  <fix>3d</fix>
</trkpt>
<trkpt lat="33.8102731" lon="-118.3939121">
  <ele>-0.104</ele>
  <time>2026-09-02T22:07:31Z</time>
  <course>186.72</course>
  <speed>0.7283543093852057</speed>
  <fix>3d</fix>
</trkpt>
<trkpt lat="33.8102731" lon="-118.3939121">
  <ele>-0.104</ele>
  <time>2026-09-02T22:07:31Z</time>
  <course>186.72</course>
  <speed>0.7283543093852057</speed>
  <fix>3d</fix>
</trkpt>
<trkpt lat="33.810273" lon="-118.3939122">
  <ele>-0.104</ele>
  <time>2026-09-02T22:07:31Z</time>
  <course>186.72</course>
  <speed>0.7283543093852057</speed>
  <fix>3d</fix>
</trkpt>
<trkpt lat="33.810273" lon="-118.3939123">
  <ele>-0.104</ele>
  <time>2026-09-02T22:07:31Z</time>
  <course>186.72</course>
  <speed>0.7283543093852057</speed>
  <fix>3d</fix>
</trkpt>
<trkpt lat="33.8102729" lon="-118.3939123">
  <ele>-0.104</ele>
  <time>2026-09-02T22:07:31Z</time>
  <course>186.71</course>
  <speed>0.7283543093852057</speed>
  <fix>3d</fix>
</trkpt>
<trkpt lat="33.8102738" lon="-118.3939109">
  <ele>-0.1</ele>
  <time>2026-09-02T22:07:31Z</time>
  <course>223.26</course>
  <speed>0.73</speed>
  <fix>3d</fix>
</trkpt>
<trkpt lat="33.8102729" lon="-118.3939123">
  <ele>-0.104</ele>
  <time>2026-09-02T22:07:31Z</time>
  <course>186.71</course>
  <speed>0.7283543093852057</speed>
  <fix>3d</fix>
</trkpt>
<trkpt lat="33.8102728" lon="-118.3939124">
  <ele>-0.105</ele>
  <time>2026-09-02T22:07:31Z</time>
  <course>186.71</course>
  <speed>0.7213875518748573</speed>
  <fix>3d</fix>
</trkpt>
<trkpt lat="33.8102728" lon="-118.3939124">
  <ele>-0.105</ele>
  <time>2026-09-02T22:07:31Z</time>
  <course>186.71</course>
  <speed>0.7213875518748573</speed>
  <fix>3d</fix>
</trkpt>
<trkpt lat="33.8102728" lon="-118.3939125">
  <ele>-0.105</ele>
  <time>2026-09-02T22:07:31Z</time>
  <course>186.71</course>
  <speed>0.7213875518748573</speed>
  <fix>3d</fix>
</trkpt>
<trkpt lat="33.8102727" lon="-118.3939125">
  <ele>-0.105</ele>
  <time>2026-09-02T22:07:31Z</time>
  <course>186.71</course>
  <speed>0.7213875518748573</speed>
  <fix>3d</fix>
</trkpt>
<trkpt lat="33.8102727" lon="-118.3939126">
  <ele>-0.106</ele>
  <time>2026-09-02T22:07:31Z</time>
  <course>186.71</course>
  <speed>0.7213875518748573</speed>
  <fix>3d</fix>
</trkpt>
<trkpt lat="33.8102726" lon="-118.3939126">
  <ele>-0.106</ele>
  <time>2026-09-02T22:07:31Z</time>
  <course>186.71</course>
  <speed>0.7213875518748573</speed>
  <fix>3d</fix>
</trkpt>
<trkpt lat="33.8102726" lon="-118.3939127">
  <ele>-0.106</ele>
  <time>2026-09-02T22:07:31Z</time>
  <course>186.71</course>
  <speed>0.7213875518748573</speed>
  <fix>3d</fix>
</trkpt>
<trkpt lat="33.8102726" lon="-118.3939127">
  <ele>-0.107</ele>
  <time>2026-09-02T22:07:31Z</time>
  <course>186.71</course>
  <speed>0.7213875518748573</speed>
  <fix>3d</fix>
</trkpt>
<trkpt lat="33.8102725" lon="-118.3939127">
  <ele>-0.107</ele>
  <time>2026-09-02T22:07:31Z</time>
  <course>186.71</course>
  <speed>0.7213875518748573</speed>
  <fix>3d</fix>
</trkpt>
<trkpt lat="33.8102725" lon="-118.3939128">
  <ele>-0.107</ele>
  <time>2026-09-02T22:07:31Z</time>
  <course>186.71</course>
  <speed>0.7213875518748573</speed>
  <fix>3d</fix>
</trkpt>
<trkpt lat="33.8102725" lon="-118.3939128">
  <ele>-0.108</ele>
  <time>2026-09-02T22:07:31Z</time>
  <course>186.71</course>
  <speed>0.7213875518748573</speed>
  <fix>3d</fix>
</trkpt>
<trkpt lat="33.8102724" lon="-118.3939128">
  <ele>-0.108</ele>
  <time>2026-09-02T22:07:31Z</time>
  <course>186.71</course>
  <speed>0.7213875518748573</speed>
  <fix>3d</fix>
</trkpt>
<trkpt lat="33.8102729" lon="-118.3939119">
  <ele>-0.1</ele>
  <time>2026-09-02T22:07:31Z</time>
  <course>223.26</course>
  <speed>0.73</speed>
  <fix>3d</fix>
</trkpt>
<trkpt lat="33.8102724" lon="-118.3939129">
  <ele>-0.108</ele>
  <time>2026-09-02T22:07:31Z</time>
  <course>186.71</course>
  <speed>0.7213875518748573</speed>
  <fix>3d</fix>
</trkpt>
<trkpt lat="33.8102723" lon="-118.393913">
  <ele>-0.109</ele>
  <time>2026-09-02T22:07:31Z</time>
  <course>186.71</course>
  <speed>0.7213875518748573</speed>
  <fix>3d</fix>
</trkpt>
<trkpt lat="33.8102723" lon="-118.393913">
  <ele>-0.109</ele>
  <time>2026-09-02T22:07:31Z</time>
  <course>186.71</course>
  <speed>0.7213875518748573</speed>
  <fix>3d</fix>
</trkpt>
<trkpt lat="33.8102722" lon="-118.3939131">
  <ele>-0.11</ele>
  <time>2026-09-02T22:07:31Z</time>
  <course>186.71</course>
  <speed>0.7213875518748573</speed>
  <fix>3d</fix>
</trkpt>
<trkpt lat="33.8102722" lon="-118.3939132">
  <ele>-0.11</ele>
  <time>2026-09-02T22:07:31Z</time>
  <course>186.71</course>
  <speed>0.7213875518748573</speed>
  <fix>3d</fix>
</trkpt>
<trkpt lat="33.8102721" lon="-118.3939132">
  <ele>-0.11</ele>
  <time>2026-09-02T22:07:31Z</time>
  <course>186.71</course>
  <speed>0.7213875518748573</speed>
  <fix>3d</fix>
</trkpt>
<trkpt lat="33.8102721" lon="-118.3939133">
  <ele>-0.111</ele>
  <time>2026-09-02T22:07:31Z</time>
  <course>186.71</course>
  <speed>0.7213875518748573</speed>
  <fix>3d</fix>
</trkpt>
<trkpt lat="33.810272" lon="-118.3939133">
  <ele>-0.111</ele>
  <time>2026-09-02T22:07:31Z</time>
  <course>186.71</course>
  <speed>0.7213875518748573</speed>
  <fix>3d</fix>
</trkpt>
<trkpt lat="33.810272" lon="-118.3939134">
  <ele>-0.111</ele>
  <time>2026-09-02T22:07:31Z</time>
  <course>186.71</course>
  <speed>0.7213875518748573</speed>
  <fix>3d</fix>
</trkpt>
<trkpt lat="33.810272" lon="-118.3939134">
  <ele>-0.111</ele>
  <time>2026-09-02T22:07:31Z</time>
  <course>186.71</course>
  <speed>0.7213875518748573</speed>
  <fix>3d</fix>
</trkpt>
<trkpt lat="33.810272" lon="-118.3939134">
  <ele>-0.111</ele>
  <time>2026-09-02T22:07:31Z</time>
  <course>186.71</course>
  <speed>0.7213875518748573</speed>
  <fix>3d</fix>
</trkpt>
<trkpt lat="33.8102729" lon="-118.3939119">
  <ele>-0.1</ele>
  <time>2026-09-02T22:07:31Z</time>
  <course>223.26</course>
  <speed>0.73</speed>
  <fix>3d</fix>
</trkpt>
<trkpt lat="33.8102719" lon="-118.3939135">
  <ele>-0.112</ele>
  <time>2026-09-02T22:07:31Z</time>
  <course>186.71</course>
  <speed>0.7213875518748573</speed>
  <fix>3d</fix>
</trkpt>
<trkpt lat="33.8102719" lon="-118.3939135">
  <ele>-0.112</ele>
  <time>2026-09-02T22:07:31Z</time>
  <course>186.71</course>
  <speed>0.7213875518748573</speed>
  <fix>3d</fix>
</trkpt>
<trkpt lat="33.8102718" lon="-118.3939136">
  <ele>-0.113</ele>
  <time>2026-09-02T22:07:31Z</time>
  <course>186.71</course>
  <speed>0.7213875518748573</speed>
  <fix>3d</fix>
</trkpt>
<trkpt lat="33.8102718" lon="-118.3939136">
  <ele>-0.113</ele>
  <time>2026-09-02T22:07:31Z</time>
  <course>186.71</course>
  <speed>0.7213875518748573</speed>
  <fix>3d</fix>
</trkpt>
<trkpt lat="33.8102718" lon="-118.3939136">
  <ele>-0.113</ele>
  <time>2026-09-02T22:07:31Z</time>
  <course>186.71</course>
  <speed>0.7213875518748573</speed>
  <fix>3d</fix>
</trkpt>
<trkpt lat="33.8102717" lon="-118.3939137">
  <ele>-0.113</ele>
  <time>2026-09-02T22:07:31Z</time>
  <course>186.71</course>
  <speed>0.7213875518748573</speed>
  <fix>3d</fix>
</trkpt>
<trkpt lat="33.8102717" lon="-118.3939137">
  <ele>-0.113</ele>
  <time>2026-09-02T22:07:31Z</time>
  <course>186.71</course>
  <speed>0.7213875518748573</speed>
  <fix>3d</fix>
</trkpt>
<trkpt lat="33.8102716" lon="-118.3939138">
  <ele>-0.114</ele>
  <time>2026-09-02T22:07:31Z</time>
  <course>186.71</course>
  <speed>0.7213875518748573</speed>
  <fix>3d</fix>
</trkpt>
<trkpt lat="33.8102716" lon="-118.3939138">
  <ele>-0.114</ele>
  <time>2026-09-02T22:07:31Z</time>
  <course>186.71</course>
  <speed>0.7213875518748573</speed>
  <fix>3d</fix>
</trkpt>
<trkpt lat="33.8102716" lon="-118.3939139">
  <ele>-0.114</ele>
  <time>2026-09-02T22:07:31Z</time>
  <course>186.71</course>
  <speed>0.7213875518748573</speed>
  <fix>3d</fix>
</trkpt>
<trkpt lat="33.8102715" lon="-118.3939139">
  <ele>-0.114</ele>
  <time>2026-09-02T22:07:31Z</time>
  <course>186.71</course>
  <speed>0.7213875518748573</speed>
  <fix>3d</fix>
</trkpt>
<trkpt lat="33.8102715" lon="-118.3939139">
  <ele>-0.114</ele>
  <time>2026-09-02T22:07:31Z</time>
  <course>186.7</course>
  <speed>0.7213875518748573</speed>
  <fix>3d</fix>
</trkpt>
<trkpt lat="33.8102715" lon="-118.3939139">
  <ele>-0.114</ele>
  <time>2026-09-02T22:07:31Z</time>
  <course>186.7</course>
  <speed>0.7213875518748573</speed>
  <fix>3d</fix>
</trkpt>
<trkpt lat="33.8102719" lon="-118.393913">
  <ele>-0.1</ele>
  <time>2026-09-02T22:07:31Z</time>
  <course>223.26</course>
  <speed>0.73</speed>
  <fix>3d</fix>
</trkpt>
<trkpt lat="33.8102714" lon="-118.393914">
  <ele>-0.115</ele>
  <time>2026-09-02T22:07:31Z</time>
  <course>186.7</course>
  <speed>0.7213875518748573</speed>
  <fix>3d</fix>
</trkpt>
<trkpt lat="33.8102714" lon="-118.393914">
  <ele>-0.115</ele>
  <time>2026-09-02T22:07:31Z</time>
  <course>186.7</course>
  <speed>0.7213875518748573</speed>
  <fix>3d</fix>
</trkpt>
<trkpt lat="33.8102714" lon="-118.3939141">
  <ele>-0.115</ele>
  <time>2026-09-02T22:07:31Z</time>
  <course>186.7</course>
  <speed>0.7213875518748573</speed>
  <fix>3d</fix>
</trkpt>
<trkpt lat="33.8102713" lon="-118.3939141">
  <ele>-0.115</ele>
  <time>2026-09-02T22:07:31Z</time>
  <course>186.7</course>
  <speed>0.7213875518748573</speed>
  <fix>3d</fix>
</trkpt>
<trkpt lat="33.8102713" lon="-118.3939142">
  <ele>-0.115</ele>
  <time>2026-09-02T22:07:31Z</time>
  <course>186.7</course>
  <speed>0.7213875518748573</speed>
  <fix>3d</fix>
</trkpt>
<trkpt lat="33.8102713" lon="-118.3939142">
  <ele>-0.115</ele>
  <time>2026-09-02T22:07:31Z</time>
  <course>186.7</course>
  <speed>0.7213875518748573</speed>
  <fix>3d</fix>
</trkpt>
<trkpt lat="33.8102712" lon="-118.3939143">
  <ele>-0.116</ele>
  <time>2026-09-02T22:07:31Z</time>
  <course>186.7</course>
  <speed>0.7213875518748573</speed>
  <fix>3d</fix>
</trkpt>
<trkpt lat="33.8102712" lon="-118.3939143">
  <ele>-0.116</ele>
  <time>2026-09-02T22:07:31Z</time>
  <course>186.7</course>
  <speed>0.7213875518748573</speed>
  <fix>3d</fix>
</trkpt>
<trkpt lat="33.8102711" lon="-118.3939143">
  <ele>-0.116</ele>
  <time>2026-09-02T22:07:31Z</time>
  <course>186.7</course>
  <speed>0.7213875518748573</speed>
  <fix>3d</fix>
</trkpt>
<trkpt lat="33.8102711" lon="-118.3939144">
  <ele>-0.116</ele>
  <time>2026-09-02T22:07:31Z</time>
  <course>186.7</course>
  <speed>0.7213875518748573</speed>
  <fix>3d</fix>
</trkpt>
<trkpt lat="33.8102711" lon="-118.3939144">
  <ele>-0.116</ele>
  <time>2026-09-02T22:07:31Z</time>
  <course>186.7</course>
  <speed>0.7213875518748573</speed>
  <fix>3d</fix>
</trkpt>
<trkpt lat="33.810271" lon="-118.3939145">
  <ele>-0.116</ele>
  <time>2026-09-02T22:07:31Z</time>
  <course>186.7</course>
  <speed>0.7213875518748573</speed>
  <fix>3d</fix>
</trkpt>
<trkpt lat="33.810271" lon="-118.3939145">
  <ele>-0.116</ele>
  <time>2026-09-02T22:07:31Z</time>
  <course>186.7</course>
  <speed>0.7213875518748573</speed>
  <fix>3d</fix>
</trkpt>
<trkpt lat="33.8102719" lon="-118.393913">
  <ele>-0.1</ele>
  <time>2026-09-02T22:07:31Z</time>
  <course>223.26</course>
  <speed>0.73</speed>
  <fix>3d</fix>
</trkpt>
<trkpt lat="33.810271" lon="-118.3939145">
  <ele>-0.116</ele>
  <time>2026-09-02T22:07:31Z</time>
  <course>186.7</course>
  <speed>0.7213875518748573</speed>
  <fix>3d</fix>
</trkpt>
<trkpt lat="33.810271" lon="-118.3939146">
  <ele>-0.116</ele>
  <time>2026-09-02T22:07:31Z</time>
  <course>186.7</course>
  <speed>0.7213875518748573</speed>
  <fix>3d</fix>
</trkpt>
<trkpt lat="33.8102709" lon="-118.3939146">
  <ele>-0.116</ele>
  <time>2026-09-02T22:07:31Z</time>
  <course>186.7</course>
  <speed>0.7213875518748573</speed>
  <fix>3d</fix>
</trkpt>
<trkpt lat="33.8102708" lon="-118.3939147">
  <ele>-0.116</ele>
  <time>2026-09-02T22:07:31Z</time>
  <course>186.7</course>
  <speed>0.7213875518748573</speed>
  <fix>3d</fix>
</trkpt>
<trkpt lat="33.8102708" lon="-118.3939147">
  <ele>-0.116</ele>
  <time>2026-09-02T22:07:31Z</time>
  <course>186.7</course>
  <speed>0.7213875518748573</speed>
  <fix>3d</fix>
</trkpt>
<trkpt lat="33.8102708" lon="-118.3939148">
  <ele>-0.115</ele>
  <time>2026-09-02T22:07:31Z</time>
  <course>186.7</course>
  <speed>0.7213875518748573</speed>
  <fix>3d</fix>
</trkpt>
<trkpt lat="33.8102708" lon="-118.3939148">
  <ele>-0.115</ele>
  <time>2026-09-02T22:07:31Z</time>
  <course>186.7</course>
  <speed>0.7213875518748573</speed>
  <fix>3d</fix>
</trkpt>
<trkpt lat="33.8102707" lon="-118.3939148">
  <ele>-0.115</ele>
  <time>2026-09-02T22:07:31Z</time>
  <course>186.7</course>
  <speed>0.7213875518748573</speed>
  <fix>3d</fix>
</trkpt>
<trkpt lat="33.8102707" lon="-118.3939149">
  <ele>-0.115</ele>
  <time>2026-09-02T22:07:31Z</time>
  <course>186.7</course>
  <speed>0.7213875518748573</speed>
  <fix>3d</fix>
</trkpt>
<trkpt lat="33.8102706" lon="-118.3939149">
  <ele>-0.115</ele>
  <time>2026-09-02T22:07:31Z</time>
  <course>186.7</course>
  <speed>0.7213875518748573</speed>
  <fix>3d</fix>
</trkpt>
<trkpt lat="33.8102706" lon="-118.393915">
  <ele>-0.115</ele>
  <time>2026-09-02T22:07:31Z</time>
  <course>186.7</course>
  <speed>0.7213875518748573</speed>
  <fix>3d</fix>
</trkpt>
<trkpt lat="33.8102706" lon="-118.393915">
  <ele>-0.115</ele>
  <time>2026-09-02T22:07:31Z</time>
  <course>186.7</course>
  <speed>0.7213875518748573</speed>
  <fix>3d</fix>
</trkpt>
<trkpt lat="33.8102705" lon="-118.393915">
  <ele>-0.115</ele>
  <time>2026-09-02T22:07:31Z</time>
  <course>186.7</course>
  <speed>0.7213875518748573</speed>
  <fix>3d</fix>
</trkpt>
<trkpt lat="33.810271" lon="-118.3939141">
  <ele>-0.11</ele>
  <time>2026-09-02T22:07:31Z</time>
  <course>223.26</course>
  <speed>0.73</speed>
  <fix>3d</fix>
</trkpt>
<trkpt lat="33.8102705" lon="-118.393915">
  <ele>-0.115</ele>
  <time>2026-09-02T22:07:31Z</time>
  <course>186.7</course>
  <speed>0.7213875518748573</speed>
  <fix>3d</fix>
</trkpt>
<trkpt lat="33.8102705" lon="-118.3939151">
  <ele>-0.114</ele>
  <time>2026-09-02T22:07:31Z</time>
  <course>186.7</course>
  <speed>0.7213875518748573</speed>
  <fix>3d</fix>
</trkpt>
<trkpt lat="33.8102704" lon="-118.3939152">
  <ele>-0.114</ele>
  <time>2026-09-02T22:07:31Z</time>
  <course>186.7</course>
  <speed>0.7213875518748573</speed>
  <fix>3d</fix>
</trkpt>
<trkpt lat="33.8102704" lon="-118.3939152">
  <ele>-0.114</ele>
  <time>2026-09-02T22:07:31Z</time>
  <course>186.7</course>
  <speed>0.7213875518748573</speed>
  <fix>3d</fix>
</trkpt>
<trkpt lat="33.8102704" lon="-118.3939152">
  <ele>-0.114</ele>
  <time>2026-09-02T22:07:31Z</time>
  <course>186.7</course>
  <speed>0.7213875518748573</speed>
  <fix>3d</fix>
</trkpt>
<trkpt lat="33.8102703" lon="-118.3939153">
  <ele>-0.114</ele>
  <time>2026-09-02T22:07:31Z</time>
  <course>186.7</course>
  <speed>0.7213875518748573</speed>
  <fix>3d</fix>
</trkpt>
<trkpt lat="33.8102703" lon="-118.3939153">
  <ele>-0.114</ele>
  <time>2026-09-02T22:07:31Z</time>
  <course>186.7</course>
  <speed>0.7213875518748573</speed>
  <fix>3d</fix>
</trkpt>
<trkpt lat="33.8102702" lon="-118.3939154">
  <ele>-0.113</ele>
  <time>2026-09-02T22:07:31Z</time>
  <course>186.7</course>
  <speed>0.7213875518748573</speed>
  <fix>3d</fix>
</trkpt>
<trkpt lat="33.8102702" lon="-118.3939154">
  <ele>-0.113</ele>
  <time>2026-09-02T22:07:31Z</time>
  <course>186.7</course>
  <speed>0.7213875518748573</speed>
  <fix>3d</fix>
</trkpt>
<trkpt lat="33.8102702" lon="-118.3939154">
  <ele>-0.113</ele>
  <time>2026-09-02T22:07:31Z</time>
  <course>186.7</course>
  <speed>0.7213875518748573</speed>
  <fix>3d</fix>
</trkpt>
<trkpt lat="33.8102702" lon="-118.3939155">
  <ele>-0.113</ele>
  <time>2026-09-02T22:07:31Z</time>
  <course>186.7</course>
  <speed>0.7213875518748573</speed>
  <fix>3d</fix>
</trkpt>
<trkpt lat="33.8102701" lon="-118.3939155">
  <ele>-0.113</ele>
  <time>2026-09-02T22:07:31Z</time>
  <course>186.7</course>
  <speed>0.7213875518748573</speed>
  <fix>3d</fix>
</trkpt>
<trkpt lat="33.8102701" lon="-118.3939156">
  <ele>-0.113</ele>
  <time>2026-09-02T22:07:31Z</time>
  <course>186.7</course>
  <speed>0.7213875518748573</speed>
  <fix>3d</fix>
</trkpt>
<trkpt lat="33.8102701" lon="-118.3939156">
  <ele>-0.113</ele>
  <time>2026-09-02T22:07:31Z</time>
  <course>186.69</course>
  <speed>0.7213875518748573</speed>
  <fix>3d</fix>
</trkpt>
<trkpt lat="33.810271" lon="-118.3939141">
  <ele>-0.11</ele>
  <time>2026-09-02T22:07:31Z</time>
  <course>223.26</course>
  <speed>0.73</speed>
  <fix>3d</fix>
</trkpt>
<trkpt lat="33.81027" lon="-118.3939156">
  <ele>-0.113</ele>
  <time>2026-09-02T22:07:31Z</time>
  <course>186.69</course>
  <speed>0.7213875518748573</speed>
  <fix>3d</fix>
</trkpt>
<trkpt lat="33.81027" lon="-118.3939157">
  <ele>-0.112</ele>
  <time>2026-09-02T22:07:31Z</time>
  <course>186.69</course>
  <speed>0.7213875518748573</speed>
  <fix>3d</fix>
</trkpt>
<trkpt lat="33.8102699" lon="-118.3939157">
  <ele>-0.112</ele>
  <time>2026-09-02T22:07:31Z</time>
  <course>186.69</course>
  <speed>0.7213875518748573</speed>
  <fix>3d</fix>
</trkpt>
<trkpt lat="33.8102699" lon="-118.3939158">
  <ele>-0.112</ele>
  <time>2026-09-02T22:07:31Z</time>
  <course>186.69</course>
  <speed>0.7213875518748573</speed>
  <fix>3d</fix>
</trkpt>
<trkpt lat="33.8102699" lon="-118.3939158">
  <ele>-0.112</ele>
  <time>2026-09-02T22:07:31Z</time>
  <course>186.69</course>
  <speed>0.7213875518748573</speed>
  <fix>3d</fix>
</trkpt>
<trkpt lat="33.8102698" lon="-118.3939158">
  <ele>-0.112</ele>
  <time>2026-09-02T22:07:31Z</time>
  <course>186.69</course>
  <speed>0.7213875518748573</speed>
  <fix>3d</fix>
</trkpt>
<trkpt lat="33.8102698" lon="-118.3939159">
  <ele>-0.111</ele>
  <time>2026-09-02T22:07:31Z</time>
  <course>186.69</course>
  <speed>0.7213875518748573</speed>
  <fix>3d</fix>
</trkpt>
<trkpt lat="33.8102697" lon="-118.393916">
  <ele>-0.111</ele>
  <time>2026-09-02T22:07:31Z</time>
  <course>186.69</course>
  <speed>0.7213875518748573</speed>
  <fix>3d</fix>
</trkpt>
<trkpt lat="33.8102697" lon="-118.393916">
  <ele>-0.111</ele>
  <time>2026-09-02T22:07:31Z</time>
  <course>186.69</course>
  <speed>0.7213875518748573</speed>
  <fix>3d</fix>
</trkpt>
<trkpt lat="33.8102696" lon="-118.3939161">
  <ele>-0.11</ele>
  <time>2026-09-02T22:07:31Z</time>
  <course>186.69</course>
  <speed>0.7213875518748573</speed>
  <fix>3d</fix>
</trkpt>
<trkpt lat="33.8102696" lon="-118.3939161">
  <ele>-0.11</ele>
  <time>2026-09-02T22:07:31Z</time>
  <course>186.69</course>
  <speed>0.7213875518748573</speed>
  <fix>3d</fix>
</trkpt>
<trkpt lat="33.81027" lon="-118.3939152">
  <ele>-0.11</ele>
  <time>2026-09-02T22:07:31Z</time>
  <course>223.26</course>
  <speed>0.73</speed>
  <fix>3d</fix>
</trkpt>
<trkpt lat="33.8102696" lon="-118.3939161">
  <ele>-0.11</ele>
  <time>2026-09-02T22:07:31Z</time>
  <course>186.69</course>
  <speed>0.7213875518748573</speed>
  <fix>3d</fix>
</trkpt>
<trkpt lat="33.8102695" lon="-118.3939162">
  <ele>-0.11</ele>
  <time>2026-09-02T22:07:31Z</time>
  <course>186.69</course>
  <speed>0.7213875518748573</speed>
  <fix>3d</fix>
</trkpt>
<trkpt lat="33.8102694" lon="-118.3939163">
  <ele>-0.109</ele>
  <time>2026-09-02T22:07:31Z</time>
  <course>186.69</course>
  <speed>0.7213875518748573</speed>
  <fix>3d</fix>
</trkpt>
<trkpt lat="33.8102694" lon="-118.3939163">
  <ele>-0.109</ele>
  <time>2026-09-02T22:07:31Z</time>
  <course>186.69</course>
  <speed>0.7213875518748573</speed>
  <fix>3d</fix>
</trkpt>
<trkpt lat="33.8102693" lon="-118.3939164">
  <ele>-0.109</ele>
  <time>2026-09-02T22:07:31Z</time>
  <course>186.69</course>
  <speed>0.7213875518748573</speed>
  <fix>3d</fix>
</trkpt>
<trkpt lat="33.8102693" lon="-118.3939164">
  <ele>-0.108</ele>
  <time>2026-09-02T22:07:31Z</time>
  <course>186.69</course>
  <speed>0.7213875518748573</speed>
  <fix>3d</fix>
</trkpt>
<trkpt lat="33.8102693" lon="-118.3939165">
  <ele>-0.108</ele>
  <time>2026-09-02T22:07:31Z</time>
  <course>186.69</course>
  <speed>0.7213875518748573</speed>
  <fix>3d</fix>
</trkpt>
<trkpt lat="33.8102692" lon="-118.3939166">
  <ele>-0.108</ele>
  <time>2026-09-02T22:07:31Z</time>
  <course>186.69</course>
  <speed>0.7213875518748573</speed>
  <fix>3d</fix>
</trkpt>
<trkpt lat="33.8102692" lon="-118.3939166">
  <ele>-0.107</ele>
  <time>2026-09-02T22:07:31Z</time>
  <course>186.69</course>
  <speed>0.7213875518748573</speed>
  <fix>3d</fix>
</trkpt>
<trkpt lat="33.8102691" lon="-118.3939167">
  <ele>-0.107</ele>
  <time>2026-09-02T22:07:31Z</time>
  <course>186.69</course>
  <speed>0.7213875518748573</speed>
  <fix>3d</fix>
</trkpt>
<trkpt lat="33.8102691" lon="-118.3939167">
  <ele>-0.107</ele>
  <time>2026-09-02T22:07:31Z</time>
  <course>186.69</course>
  <speed>0.7213875518748573</speed>
  <fix>3d</fix>
</trkpt>
<trkpt lat="33.81027" lon="-118.3939152">
  <ele>-0.11</ele>
  <time>2026-09-02T22:07:31Z</time>
  <course>223.26</course>
  <speed>0.73</speed>
  <fix>3d</fix>
</trkpt>
<trkpt lat="33.8102691" lon="-118.3939167">
  <ele>-0.107</ele>
  <time>2026-09-02T22:07:31Z</time>
  <course>186.69</course>
  <speed>0.7213875518748573</speed>
  <fix>3d</fix>
</trkpt>
<trkpt lat="33.810269" lon="-118.3939168">
  <ele>-0.106</ele>
  <time>2026-09-02T22:07:31Z</time>
  <course>186.69</course>
  <speed>0.7213875518748573</speed>
  <fix>3d</fix>
</trkpt>
<trkpt lat="33.810269" lon="-118.3939168">
  <ele>-0.106</ele>
  <time>2026-09-02T22:07:31Z</time>
  <course>186.69</course>
  <speed>0.7213875518748573</speed>
  <fix>3d</fix>
</trkpt>
<trkpt lat="33.8102689" lon="-118.3939169">
  <ele>-0.105</ele>
  <time>2026-09-02T22:07:31Z</time>
  <course>186.69</course>
  <speed>0.7213875518748573</speed>
  <fix>3d</fix>
</trkpt>
<trkpt lat="33.8102689" lon="-118.3939169">
  <ele>-0.105</ele>
  <time>2026-09-02T22:07:31Z</time>
  <course>186.69</course>
  <speed>0.7213875518748573</speed>
  <fix>3d</fix>
</trkpt>
<trkpt lat="33.8102689" lon="-118.393917">
  <ele>-0.105</ele>
  <time>2026-09-02T22:07:31Z</time>
  <course>186.69</course>
  <speed>0.7213875518748573</speed>
  <fix>3d</fix>
</trkpt>
<trkpt lat="33.8102688" lon="-118.393917">
  <ele>-0.105</ele>
  <time>2026-09-02T22:07:31Z</time>
  <course>186.69</course>
  <speed>0.7213875518748573</speed>
  <fix>3d</fix>
</trkpt>
<trkpt lat="33.8102688" lon="-118.393917">
  <ele>-0.105</ele>
  <time>2026-09-02T22:07:31Z</time>
  <course>186.69</course>
  <speed>0.7213875518748573</speed>
  <fix>3d</fix>
</trkpt>
<trkpt lat="33.8102688" lon="-118.3939171">
  <ele>-0.104</ele>
  <time>2026-09-02T22:07:31Z</time>
  <course>186.69</course>
  <speed>0.7213875518748573</speed>
  <fix>3d</fix>
</trkpt>
<trkpt lat="33.8102687" lon="-118.3939171">
  <ele>-0.104</ele>
  <time>2026-09-02T22:07:31Z</time>
  <course>186.69</course>
  <speed>0.7213875518748573</speed>
  <fix>3d</fix>
</trkpt>
<trkpt lat="33.8102687" lon="-118.3939172">
  <ele>-0.104</ele>
  <time>2026-09-02T22:07:31Z</time>
  <course>186.69</course>
  <speed>0.7213875518748573</speed>
  <fix>3d</fix>
</trkpt>
<trkpt lat="33.8102686" lon="-118.3939172">
  <ele>-0.103</ele>
  <time>2026-09-02T22:07:31Z</time>
  <course>186.68</course>
  <speed>0.7213875518748573</speed>
  <fix>3d</fix>
</trkpt>
<trkpt lat="33.810269" lon="-118.3939163">
  <ele>-0.1</ele>
  <time>2026-09-02T22:07:31Z</time>
  <course>223.26</course>
  <speed>0.73</speed>
  <fix>3d</fix>
</trkpt>
<trkpt lat="33.8102686" lon="-118.3939172">
  <ele>-0.103</ele>
  <time>2026-09-02T22:07:31Z</time>
  <course>186.68</course>
  <speed>0.7213875518748573</speed>
  <fix>3d</fix>
</trkpt>
<trkpt lat="33.8102685" lon="-118.3939174">
  <ele>-0.103</ele>
  <time>2026-09-02T22:07:31Z</time>
  <course>186.68</course>
  <speed>0.7213875518748573</speed>
  <fix>3d</fix>
</trkpt>
<trkpt lat="33.8102685" lon="-118.3939174">
  <ele>-0.102</ele>
  <time>2026-09-02T22:07:31Z</time>
  <course>186.68</course>
  <speed>0.7213875518748573</speed>
  <fix>3d</fix>
</trkpt>
<trkpt lat="33.8102684" lon="-118.3939175">
  <ele>-0.102</ele>
  <time>2026-09-02T22:07:31Z</time>
  <course>186.68</course>
  <speed>0.7213875518748573</speed>
  <fix>3d</fix>
</trkpt>
<trkpt lat="33.8102684" lon="-118.3939175">
  <ele>-0.102</ele>
  <time>2026-09-02T22:07:31Z</time>
  <course>186.68</course>
  <speed>0.7213875518748573</speed>
  <fix>3d</fix>
</trkpt>
<trkpt lat="33.8102683" lon="-118.3939176">
  <ele>-0.102</ele>
  <time>2026-09-02T22:07:31Z</time>
  <course>186.68</course>
  <speed>0.7213875518748573</speed>
  <fix>3d</fix>
</trkpt>
<trkpt lat="33.8102683" lon="-118.3939176">
  <ele>-0.102</ele>
  <time>2026-09-02T22:07:31Z</time>
  <course>186.68</course>
  <speed>0.7213875518748573</speed>
  <fix>3d</fix>
</trkpt>
<trkpt lat="33.8102682" lon="-118.3939177">
  <ele>-0.101</ele>
  <time>2026-09-02T22:07:31Z</time>
  <course>186.68</course>
  <speed>0.7213875518748573</speed>
  <fix>3d</fix>
</trkpt>
<trkpt lat="33.8102682" lon="-118.3939177">
  <ele>-0.101</ele>
  <time>2026-09-02T22:07:31Z</time>
  <course>186.68</course>
  <speed>0.7213875518748573</speed>
  <fix>3d</fix>
</trkpt>
<trkpt lat="33.8102681" lon="-118.3939178">
  <ele>-0.101</ele>
  <time>2026-09-02T22:07:31Z</time>
  <course>186.68</course>
  <speed>0.7213875518748573</speed>
  <fix>3d</fix>
</trkpt>
<trkpt lat="33.810269" lon="-118.3939163">
  <ele>-0.1</ele>
  <time>2026-09-02T22:07:31Z</time>
  <course>223.26</course>
  <speed>0.73</speed>
  <fix>3d</fix>
</trkpt>
<trkpt lat="33.8102681" lon="-118.3939178">
  <ele>-0.101</ele>
  <time>2026-09-02T22:07:31Z</time>
  <course>186.68</course>
  <speed>0.7213875518748573</speed>
  <fix>3d</fix>
</trkpt>
<trkpt lat="33.810268" lon="-118.3939179">
  <ele>-0.101</ele>
  <time>2026-09-02T22:07:31Z</time>
  <course>186.68</course>
  <speed>0.7213875518748573</speed>
  <fix>3d</fix>
</trkpt>
<trkpt lat="33.810268" lon="-118.3939179">
  <ele>-0.101</ele>
  <time>2026-09-02T22:07:31Z</time>
  <course>186.68</course>
  <speed>0.7213875518748573</speed>
  <fix>3d</fix>
</trkpt>
<trkpt lat="33.810268" lon="-118.393918">
  <ele>-0.101</ele>
  <time>2026-09-02T22:07:31Z</time>
  <course>186.68</course>
  <speed>0.7213875518748573</speed>
  <fix>3d</fix>
</trkpt>
<trkpt lat="33.8102679" lon="-118.393918">
  <ele>-0.101</ele>
  <time>2026-09-02T22:07:31Z</time>
  <course>186.68</course>
  <speed>0.7213875518748573</speed>
  <fix>3d</fix>
</trkpt>
<trkpt lat="33.8102679" lon="-118.3939181">
  <ele>-0.101</ele>
  <time>2026-09-02T22:07:31Z</time>
  <course>186.68</course>
  <speed>0.7213875518748573</speed>
  <fix>3d</fix>
</trkpt>
<trkpt lat="33.8102678" lon="-118.3939181">
  <ele>-0.101</ele>
  <time>2026-09-02T22:07:31Z</time>
  <course>186.68</course>
  <speed>0.7213875518748573</speed>
  <fix>3d</fix>
</trkpt>
<trkpt lat="33.8102678" lon="-118.3939182">
  <ele>-0.101</ele>
  <time>2026-09-02T22:07:31Z</time>
  <course>186.68</course>
  <speed>0.7213875518748573</speed>
  <fix>3d</fix>
</trkpt>
<trkpt lat="33.8102677" lon="-118.3939183">
  <ele>-0.101</ele>
  <time>2026-09-02T22:07:31Z</time>
  <course>186.68</course>
  <speed>0.7213875518748573</speed>
  <fix>3d</fix>
</trkpt>
<trkpt lat="33.8102677" lon="-118.3939183">
  <ele>-0.101</ele>
  <time>2026-09-02T22:07:31Z</time>
  <course>186.68</course>
  <speed>0.7213875518748573</speed>
  <fix>3d</fix>
</trkpt>
<trkpt lat="33.8102677" lon="-118.3939183">
  <ele>-0.101</ele>
  <time>2026-09-02T22:07:31Z</time>
  <course>186.68</course>
  <speed>0.7213875518748573</speed>
  <fix>3d</fix>
</trkpt>
<trkpt lat="33.8102681" lon="-118.3939174">
  <ele>-0.1</ele>
  <time>2026-09-02T22:07:31Z</time>
  <course>223.26</course>
  <speed>0.73</speed>
  <fix>3d</fix>
</trkpt>
<trkpt lat="33.8102676" lon="-118.3939184">
  <ele>-0.101</ele>
  <time>2026-09-02T22:07:31Z</time>
  <course>186.68</course>
  <speed>0.7213875518748573</speed>
  <fix>3d</fix>
</trkpt>
<trkpt lat="33.8102675" lon="-118.3939185">
  <ele>-0.102</ele>
  <time>2026-09-02T22:07:31Z</time>
  <course>186.68</course>
  <speed>0.7213875518748573</speed>
  <fix>3d</fix>
</trkpt>
<trkpt lat="33.8102675" lon="-118.3939185">
  <ele>-0.102</ele>
  <time>2026-09-02T22:07:31Z</time>
  <course>186.68</course>
  <speed>0.7213875518748573</speed>
  <fix>3d</fix>
</trkpt>
<trkpt lat="33.8102674" lon="-118.3939186">
  <ele>-0.102</ele>
  <time>2026-09-02T22:07:31Z</time>
  <course>186.68</course>
  <speed>0.7213875518748573</speed>
  <fix>3d</fix>
</trkpt>
<trkpt lat="33.8102674" lon="-118.3939186">
  <ele>-0.102</ele>
  <time>2026-09-02T22:07:31Z</time>
  <course>186.68</course>
  <speed>0.7213875518748573</speed>
  <fix>3d</fix>
</trkpt>
<trkpt lat="33.8102674" lon="-118.3939187">
  <ele>-0.102</ele>
  <time>2026-09-02T22:07:31Z</time>
  <course>186.68</course>
  <speed>0.7213875518748573</speed>
  <fix>3d</fix>
</trkpt>
<trkpt lat="33.8102673" lon="-118.3939187">
  <ele>-0.103</ele>
  <time>2026-09-02T22:07:31Z</time>
  <course>186.68</course>
  <speed>0.7213875518748573</speed>
  <fix>3d</fix>
</trkpt>
<trkpt lat="33.8102673" lon="-118.3939187">
  <ele>-0.103</ele>
  <time>2026-09-02T22:07:31Z</time>
  <course>186.68</course>
  <speed>0.7213875518748573</speed>
  <fix>3d</fix>
</trkpt>
<trkpt lat="33.8102673" lon="-118.3939188">
  <ele>-0.103</ele>
  <time>2026-09-02T22:07:31Z</time>
  <course>186.67</course>
  <speed>0.7213875518748573</speed>
  <fix>3d</fix>
</trkpt>
<trkpt lat="33.8102672" lon="-118.3939188">
  <ele>-0.103</ele>
  <time>2026-09-02T22:07:31Z</time>
  <course>186.67</course>
  <speed>0.7213875518748573</speed>
  <fix>3d</fix>
</trkpt>
<trkpt lat="33.8102672" lon="-118.3939189">
  <ele>-0.104</ele>
  <time>2026-09-02T22:07:31Z</time>
  <course>186.67</course>
  <speed>0.7213875518748573</speed>
  <fix>3d</fix>
</trkpt>
<trkpt lat="33.8102672" lon="-118.3939189">
  <ele>-0.104</ele>
  <time>2026-09-02T22:07:31Z</time>
  <course>186.67</course>
  <speed>0.7213875518748573</speed>
  <fix>3d</fix>
</trkpt>
<trkpt lat="33.8102681" lon="-118.3939174">
  <ele>-0.1</ele>
  <time>2026-09-02T22:07:31Z</time>
  <course>223.26</course>
  <speed>0.73</speed>
  <fix>3d</fix>
</trkpt>
<trkpt lat="33.8102671" lon="-118.3939189">
  <ele>-0.104</ele>
  <time>2026-09-02T22:07:31Z</time>
  <course>186.67</course>
  <speed>0.7213875518748573</speed>
  <fix>3d</fix>
</trkpt>
<trkpt lat="33.8102671" lon="-118.393919">
  <ele>-0.104</ele>
  <time>2026-09-02T22:07:31Z</time>
  <course>186.67</course>
  <speed>0.7213875518748573</speed>
  <fix>3d</fix>
</trkpt>
<trkpt lat="33.810267" lon="-118.393919">
  <ele>-0.104</ele>
  <time>2026-09-02T22:07:31Z</time>
  <course>186.67</course>
  <speed>0.7213875518748573</speed>
  <fix>3d</fix>
</trkpt>
<trkpt lat="33.810267" lon="-118.3939191">
  <ele>-0.105</ele>
  <time>2026-09-02T22:07:31Z</time>
  <course>186.67</course>
  <speed>0.7213875518748573</speed>
  <fix>3d</fix>
</trkpt>
<trkpt lat="33.8102669" lon="-118.3939192">
  <ele>-0.105</ele>
  <time>2026-09-02T22:07:31Z</time>
  <course>186.67</course>
  <speed>0.7213875518748573</speed>
  <fix>3d</fix>
</trkpt>
<trkpt lat="33.8102669" lon="-118.3939192">
  <ele>-0.105</ele>
  <time>2026-09-02T22:07:31Z</time>
  <course>186.67</course>
  <speed>0.7213875518748573</speed>
  <fix>3d</fix>
</trkpt>
<trkpt lat="33.8102668" lon="-118.3939193">
  <ele>-0.105</ele>
  <time>2026-09-02T22:07:31Z</time>
  <course>186.67</course>
  <speed>0.7213875518748573</speed>
  <fix>3d</fix>
</trkpt>
<trkpt lat="33.8102668" lon="-118.3939193">
  <ele>-0.106</ele>
  <time>2026-09-02T22:07:31Z</time>
  <course>186.67</course>
  <speed>0.7213875518748573</speed>
  <fix>3d</fix>
</trkpt>
<trkpt lat="33.8102667" lon="-118.3939194">
  <ele>-0.106</ele>
  <time>2026-09-02T22:07:31Z</time>
  <course>186.67</course>
  <speed>0.7213875518748573</speed>
  <fix>3d</fix>
</trkpt>
<trkpt lat="33.8102667" lon="-118.3939194">
  <ele>-0.106</ele>
  <time>2026-09-02T22:07:31Z</time>
  <course>186.67</course>
  <speed>0.7213875518748573</speed>
  <fix>3d</fix>
</trkpt>
<trkpt lat="33.8102671" lon="-118.3939185">
  <ele>-0.1</ele>
  <time>2026-09-02T22:07:31Z</time>
  <course>223.26</course>
  <speed>0.73</speed>
  <fix>3d</fix>
</trkpt>
<trkpt lat="33.8102667" lon="-118.3939194">
  <ele>-0.106</ele>
  <time>2026-09-02T22:07:31Z</time>
  <course>186.67</course>
  <speed>0.7213875518748573</speed>
  <fix>3d</fix>
</trkpt>
<trkpt lat="33.8102666" lon="-118.3939195">
  <ele>-0.106</ele>
  <time>2026-09-02T22:07:31Z</time>
  <course>186.67</course>
  <speed>0.7213875518748573</speed>
  <fix>3d</fix>
</trkpt>
<trkpt lat="33.8102666" lon="-118.3939196">
  <ele>-0.106</ele>
  <time>2026-09-02T22:07:31Z</time>
  <course>186.67</course>
  <speed>0.7213875518748573</speed>
  <fix>3d</fix>
</trkpt>
<trkpt lat="33.8102665" lon="-118.3939196">
  <ele>-0.106</ele>
  <time>2026-09-02T22:07:31Z</time>
  <course>186.67</course>
  <speed>0.7213875518748573</speed>
  <fix>3d</fix>
</trkpt>
<trkpt lat="33.8102665" lon="-118.3939197">
  <ele>-0.107</ele>
  <time>2026-09-02T22:07:31Z</time>
  <course>186.67</course>
  <speed>0.7213875518748573</speed>
  <fix>3d</fix>
</trkpt>
<trkpt lat="33.8102665" lon="-118.3939197">
  <ele>-0.107</ele>
  <time>2026-09-02T22:07:31Z</time>
  <course>186.67</course>
  <speed>0.7213875518748573</speed>
  <fix>3d</fix>
</trkpt>
<trkpt lat="33.8102664" lon="-118.3939197">
  <ele>-0.107</ele>
  <time>2026-09-02T22:07:31Z</time>
  <course>186.67</course>
  <speed>0.7213875518748573</speed>
  <fix>3d</fix>
</trkpt>
<trkpt lat="33.8102664" lon="-118.3939198">
  <ele>-0.107</ele>
  <time>2026-09-02T22:07:31Z</time>
  <course>186.67</course>
  <speed>0.7213875518748573</speed>
  <fix>3d</fix>
</trkpt>
<trkpt lat="33.8102663" lon="-118.3939198">
  <ele>-0.107</ele>
  <time>2026-09-02T22:07:31Z</time>
  <course>186.67</course>
  <speed>0.7213875518748573</speed>
  <fix>3d</fix>
</trkpt>
<trkpt lat="33.8102663" lon="-118.3939199">
  <ele>-0.107</ele>
  <time>2026-09-02T22:07:31Z</time>
  <course>186.67</course>
  <speed>0.7213875518748573</speed>
  <fix>3d</fix>
</trkpt>
<trkpt lat="33.8102663" lon="-118.3939199">
  <ele>-0.107</ele>
  <time>2026-09-02T22:07:31Z</time>
  <course>186.67</course>
  <speed>0.7213875518748573</speed>
  <fix>3d</fix>
</trkpt>
<trkpt lat="33.8102662" lon="-118.39392">
  <ele>-0.107</ele>
  <time>2026-09-02T22:07:31Z</time>
  <course>186.67</course>
  <speed>0.7213875518748573</speed>
  <fix>3d</fix>
</trkpt>
<trkpt lat="33.8102671" lon="-118.3939185">
  <ele>-0.1</ele>
  <time>2026-09-02T22:07:31Z</time>
  <course>223.26</course>
  <speed>0.73</speed>
  <fix>3d</fix>
</trkpt>
<trkpt lat="33.8102662" lon="-118.39392">
  <ele>-0.107</ele>
  <time>2026-09-02T22:07:31Z</time>
  <course>186.67</course>
  <speed>0.7213875518748573</speed>
  <fix>3d</fix>
</trkpt>
<trkpt lat="33.8102661" lon="-118.3939201">
  <ele>-0.107</ele>
  <time>2026-09-02T22:07:31Z</time>
  <course>186.67</course>
  <speed>0.7213875518748573</speed>
  <fix>3d</fix>
</trkpt>
<trkpt lat="33.8102661" lon="-118.3939201">
  <ele>-0.107</ele>
  <time>2026-09-02T22:07:31Z</time>
  <course>186.67</course>
  <speed>0.7213875518748573</speed>
  <fix>3d</fix>
</trkpt>
<trkpt lat="33.8102661" lon="-118.3939202">
  <ele>-0.107</ele>
  <time>2026-09-02T22:07:31Z</time>
  <course>186.67</course>
  <speed>0.7213875518748573</speed>
  <fix>3d</fix>
</trkpt>
<trkpt lat="33.810266" lon="-118.3939202">
  <ele>-0.107</ele>
  <time>2026-09-02T22:07:31Z</time>
  <course>186.67</course>
  <speed>0.7213875518748573</speed>
  <fix>3d</fix>
</trkpt>
<trkpt lat="33.810266" lon="-118.3939202">
  <ele>-0.107</ele>
  <time>2026-09-02T22:07:31Z</time>
  <course>186.67</course>
  <speed>0.7213875518748573</speed>
  <fix>3d</fix>
</trkpt>
<trkpt lat="33.810266" lon="-118.3939203">
  <ele>-0.107</ele>
  <time>2026-09-02T22:07:31Z</time>
  <course>186.67</course>
  <speed>0.7213875518748573</speed>
  <fix>3d</fix>
</trkpt>
<trkpt lat="33.8102659" lon="-118.3939203">
  <ele>-0.107</ele>
  <time>2026-09-02T22:07:31Z</time>
  <course>186.67</course>
  <speed>0.7213875518748573</speed>
  <fix>3d</fix>
</trkpt>
<trkpt lat="33.8102659" lon="-118.3939204">
  <ele>-0.107</ele>
  <time>2026-09-02T22:07:31Z</time>
  <course>186.67</course>
  <speed>0.7213875518748573</speed>
  <fix>3d</fix>
</trkpt>
<trkpt lat="33.8102658" lon="-118.3939204">
  <ele>-0.107</ele>
  <time>2026-09-02T22:07:31Z</time>
  <course>186.66</course>
  <speed>0.7213875518748573</speed>
  <fix>3d</fix>
</trkpt>
<trkpt lat="33.8102658" lon="-118.3939204">
  <ele>-0.107</ele>
  <time>2026-09-02T22:07:31Z</time>
  <course>186.66</course>
  <speed>0.7213875518748573</speed>
  <fix>3d</fix>
</trkpt>
<trkpt lat="33.8102658" lon="-118.3939205">
  <ele>-0.107</ele>
  <time>2026-09-02T22:07:31Z</time>
  <course>186.66</course>
  <speed>0.7213875518748573</speed>
  <fix>3d</fix>
</trkpt>
<trkpt lat="33.8102658" lon="-118.3939205">
  <ele>-0.107</ele>
  <time>2026-09-02T22:07:31Z</time>
  <course>186.66</course>
  <speed>0.7213875518748573</speed>
  <fix>3d</fix>
</trkpt>
<trkpt lat="33.8102662" lon="-118.3939196">
  <ele>-0.11</ele>
  <time>2026-09-02T22:07:31Z</time>
  <course>223.26</course>
  <speed>0.73</speed>
  <fix>3d</fix>
</trkpt>
<trkpt lat="33.8102657" lon="-118.3939205">
  <ele>-0.107</ele>
  <time>2026-09-02T22:07:31Z</time>
  <course>186.66</course>
  <speed>0.7213875518748573</speed>
  <fix>3d</fix>
</trkpt>
<trkpt lat="33.8102656" lon="-118.3939207">
  <ele>-0.107</ele>
  <time>2026-09-02T22:07:31Z</time>
  <course>186.66</course>
  <speed>0.7213875518748573</speed>
  <fix>3d</fix>
</trkpt>
<trkpt lat="33.8102655" lon="-118.3939208">
  <ele>-0.107</ele>
  <time>2026-09-02T22:07:31Z</time>
  <course>186.66</course>
  <speed>0.7213875518748573</speed>
  <fix>3d</fix>
</trkpt>
<trkpt lat="33.8102655" lon="-118.3939208">
  <ele>-0.107</ele>
  <time>2026-09-02T22:07:31Z</time>
  <course>186.66</course>
  <speed>0.7213875518748573</speed>
  <fix>3d</fix>
</trkpt>
<trkpt lat="33.8102654" lon="-118.3939209">
  <ele>-0.107</ele>
  <time>2026-09-02T22:07:31Z</time>
  <course>186.66</course>
  <speed>0.7213875518748573</speed>
  <fix>3d</fix>
</trkpt>
<trkpt lat="33.8102654" lon="-118.3939209">
  <ele>-0.107</ele>
  <time>2026-09-02T22:07:31Z</time>
  <course>186.66</course>
  <speed>0.7213875518748573</speed>
  <fix>3d</fix>
</trkpt>
<trkpt lat="33.8102653" lon="-118.393921">
  <ele>-0.107</ele>
  <time>2026-09-02T22:07:31Z</time>
  <course>186.66</course>
  <speed>0.7213875518748573</speed>
  <fix>3d</fix>
</trkpt>
<trkpt lat="33.8102653" lon="-118.393921">
  <ele>-0.107</ele>
  <time>2026-09-02T22:07:31Z</time>
  <course>186.66</course>
  <speed>0.7213875518748573</speed>
  <fix>3d</fix>
</trkpt>
<trkpt lat="33.8102653" lon="-118.3939211">
  <ele>-0.107</ele>
  <time>2026-09-02T22:07:31Z</time>
  <course>186.66</course>
  <speed>0.7213875518748573</speed>
  <fix>3d</fix>
</trkpt>
<trkpt lat="33.8102662" lon="-118.3939196">
  <ele>-0.11</ele>
  <time>2026-09-02T22:07:31Z</time>
  <course>223.26</course>
  <speed>0.73</speed>
  <fix>3d</fix>
</trkpt>
<trkpt lat="33.8102653" lon="-118.3939211">
  <ele>-0.107</ele>
  <time>2026-09-02T22:07:31Z</time>
  <course>186.66</course>
  <speed>0.7213875518748573</speed>
  <fix>3d</fix>
</trkpt>
<trkpt lat="33.8102652" lon="-118.3939212">
  <ele>-0.106</ele>
  <time>2026-09-02T22:07:31Z</time>
  <course>186.66</course>
  <speed>0.7213875518748573</speed>
  <fix>3d</fix>
</trkpt>
<trkpt lat="33.8102651" lon="-118.3939212">
  <ele>-0.106</ele>
  <time>2026-09-02T22:07:31Z</time>
  <course>186.66</course>
  <speed>0.7213875518748573</speed>
  <fix>3d</fix>
</trkpt>
<trkpt lat="33.8102651" lon="-118.3939213">
  <ele>-0.106</ele>
  <time>2026-09-02T22:07:31Z</time>
  <course>186.66</course>
  <speed>0.7213875518748573</speed>
  <fix>3d</fix>
</trkpt>
<trkpt lat="33.8102651" lon="-118.3939213">
  <ele>-0.106</ele>
  <time>2026-09-02T22:07:31Z</time>
  <course>186.66</course>
  <speed>0.7213875518748573</speed>
  <fix>3d</fix>
</trkpt>
<trkpt lat="33.810265" lon="-118.3939214">
  <ele>-0.106</ele>
  <time>2026-09-02T22:07:31Z</time>
  <course>186.66</course>
  <speed>0.7213875518748573</speed>
  <fix>3d</fix>
</trkpt>
<trkpt lat="33.810265" lon="-118.3939214">
  <ele>-0.106</ele>
  <time>2026-09-02T22:07:31Z</time>
  <course>186.66</course>
  <speed>0.7213875518748573</speed>
  <fix>3d</fix>
</trkpt>
<trkpt lat="33.8102649" lon="-118.3939215">
  <ele>-0.106</ele>
  <time>2026-09-02T22:07:31Z</time>
  <course>186.66</course>
  <speed>0.7213875518748573</speed>
  <fix>3d</fix>
</trkpt>
<trkpt lat="33.8102649" lon="-118.3939215">
  <ele>-0.106</ele>
  <time>2026-09-02T22:07:31Z</time>
  <course>186.66</course>
  <speed>0.7213875518748573</speed>
  <fix>3d</fix>
</trkpt>
<trkpt lat="33.8102648" lon="-118.3939216">
  <ele>-0.106</ele>
  <time>2026-09-02T22:07:31Z</time>
  <course>186.66</course>
  <speed>0.7213875518748573</speed>
  <fix>3d</fix>
</trkpt>
<trkpt lat="33.8102648" lon="-118.3939216">
  <ele>-0.105</ele>
  <time>2026-09-02T22:07:31Z</time>
  <course>186.66</course>
  <speed>0.7213875518748573</speed>
  <fix>3d</fix>
</trkpt>
<trkpt lat="33.8102651" lon="-118.3939207">
  <ele>-0.11</ele>
  <time>2026-09-02T22:07:31Z</time>
  <course>223.26</course>
  <speed>0.73</speed>
  <fix>3d</fix>
</trkpt>
<trkpt lat="33.8102648" lon="-118.3939216">
  <ele>-0.105</ele>
  <time>2026-09-02T22:07:31Z</time>
  <course>186.66</course>
  <speed>0.7213875518748573</speed>
  <fix>3d</fix>
</trkpt>
<trkpt lat="33.8102647" lon="-118.3939217">
  <ele>-0.105</ele>
  <time>2026-09-02T22:07:31Z</time>
  <course>186.66</course>
  <speed>0.7213875518748573</speed>
  <fix>3d</fix>
</trkpt>
<trkpt lat="33.8102647" lon="-118.3939217">
  <ele>-0.105</ele>
  <time>2026-09-02T22:07:31Z</time>
  <course>186.66</course>
  <speed>0.7213875518748573</speed>
  <fix>3d</fix>
</trkpt>
<trkpt lat="33.8102646" lon="-118.3939218">
  <ele>-0.105</ele>
  <time>2026-09-02T22:07:31Z</time>
  <course>186.66</course>
  <speed>0.7213875518748573</speed>
  <fix>3d</fix>
</trkpt>
<trkpt lat="33.8102646" lon="-118.3939218">
  <ele>-0.105</ele>
  <time>2026-09-02T22:07:31Z</time>
  <course>186.66</course>
  <speed>0.7213875518748573</speed>
  <fix>3d</fix>
</trkpt>
<trkpt lat="33.8102646" lon="-118.3939219">
  <ele>-0.105</ele>
  <time>2026-09-02T22:07:31Z</time>
  <course>186.66</course>
  <speed>0.7213875518748573</speed>
  <fix>3d</fix>
</trkpt>
<trkpt lat="33.8102645" lon="-118.3939219">
  <ele>-0.105</ele>
  <time>2026-09-02T22:07:31Z</time>
  <course>186.66</course>
  <speed>0.7213875518748573</speed>
  <fix>3d</fix>
</trkpt>
<trkpt lat="33.8102645" lon="-118.393922">
  <ele>-0.105</ele>
  <time>2026-09-02T22:07:31Z</time>
  <course>186.66</course>
  <speed>0.7213875518748573</speed>
  <fix>3d</fix>
</trkpt>
<trkpt lat="33.8102644" lon="-118.393922">
  <ele>-0.104</ele>
  <time>2026-09-02T22:07:31Z</time>
  <course>186.65</course>
  <speed>0.7213875518748573</speed>
  <fix>3d</fix>
</trkpt>
<trkpt lat="33.8102644" lon="-118.3939221">
  <ele>-0.104</ele>
  <time>2026-09-02T22:07:31Z</time>
  <course>186.65</course>
  <speed>0.7213875518748573</speed>
  <fix>3d</fix>
</trkpt>
<trkpt lat="33.8102643" lon="-118.3939221">
  <ele>-0.104</ele>
  <time>2026-09-02T22:07:31Z</time>
  <course>186.65</course>
  <speed>0.7213875518748573</speed>
  <fix>3d</fix>
</trkpt>
<trkpt lat="33.8102643" lon="-118.3939222">
  <ele>-0.104</ele>
  <time>2026-09-02T22:07:31Z</time>
  <course>186.65</course>
  <speed>0.7213875518748573</speed>
  <fix>3d</fix>
</trkpt>
<trkpt lat="33.8102651" lon="-118.3939207">
  <ele>-0.11</ele>
  <time>2026-09-02T22:07:31Z</time>
  <course>223.26</course>
  <speed>0.73</speed>
  <fix>3d</fix>
</trkpt>
<trkpt lat="33.8102643" lon="-118.3939222">
  <ele>-0.104</ele>
  <time>2026-09-02T22:07:31Z</time>
  <course>186.65</course>
  <speed>0.7213875518748573</speed>
  <fix>3d</fix>
</trkpt>
<trkpt lat="33.8102642" lon="-118.3939223">
  <ele>-0.104</ele>
  <time>2026-09-02T22:07:31Z</time>
  <course>186.65</course>
  <speed>0.7213875518748573</speed>
  <fix>3d</fix>
</trkpt>
<trkpt lat="33.8102642" lon="-118.3939223">
  <ele>-0.104</ele>
  <time>2026-09-02T22:07:31Z</time>
  <course>186.65</course>
  <speed>0.7213875518748573</speed>
  <fix>3d</fix>
</trkpt>
<trkpt lat="33.8102641" lon="-118.3939224">
  <ele>-0.104</ele>
  <time>2026-09-02T22:07:31Z</time>
  <course>186.65</course>
  <speed>0.7213875518748573</speed>
  <fix>3d</fix>
</trkpt>
<trkpt lat="33.8102641" lon="-118.3939224">
  <ele>-0.104</ele>
  <time>2026-09-02T22:07:31Z</time>
  <course>186.65</course>
  <speed>0.7213875518748573</speed>
  <fix>3d</fix>
</trkpt>
<trkpt lat="33.8102641" lon="-118.3939224">
  <ele>-0.103</ele>
  <time>2026-09-02T22:07:31Z</time>
  <course>186.65</course>
  <speed>0.7213875518748573</speed>
  <fix>3d</fix>
</trkpt>
<trkpt lat="33.810264" lon="-118.3939225">
  <ele>-0.103</ele>
  <time>2026-09-02T22:07:31Z</time>
  <course>186.65</course>
  <speed>0.7213875518748573</speed>
  <fix>3d</fix>
</trkpt>
<trkpt lat="33.810264" lon="-118.3939225">
  <ele>-0.103</ele>
  <time>2026-09-02T22:07:31Z</time>
  <course>186.65</course>
  <speed>0.7213875518748573</speed>
  <fix>3d</fix>
</trkpt>
<trkpt lat="33.810264" lon="-118.3939226">
  <ele>-0.103</ele>
  <time>2026-09-02T22:07:31Z</time>
  <course>186.65</course>
  <speed>0.7213875518748573</speed>
  <fix>3d</fix>
</trkpt>
<trkpt lat="33.8102639" lon="-118.3939226">
  <ele>-0.103</ele>
  <time>2026-09-02T22:07:31Z</time>
  <course>186.65</course>
  <speed>0.7213875518748573</speed>
  <fix>3d</fix>
</trkpt>
<trkpt lat="33.8102639" lon="-118.3939227">
  <ele>-0.103</ele>
  <time>2026-09-02T22:07:31Z</time>
  <course>186.65</course>
  <speed>0.7213875518748573</speed>
  <fix>3d</fix>
</trkpt>
<trkpt lat="33.8102638" lon="-118.3939227">
  <ele>-0.103</ele>
  <time>2026-09-02T22:07:31Z</time>
  <course>186.65</course>
  <speed>0.7213875518748573</speed>
  <fix>3d</fix>
</trkpt>
<trkpt lat="33.8102638" lon="-118.3939227">
  <ele>-0.103</ele>
  <time>2026-09-02T22:07:31Z</time>
  <course>186.65</course>
  <speed>0.7213875518748573</speed>
  <fix>3d</fix>
</trkpt>
<trkpt lat="33.8102642" lon="-118.3939217">
  <ele>-0.1</ele>
  <time>2026-09-02T22:07:31Z</time>
  <course>223.26</course>
  <speed>0.73</speed>
  <fix>3d</fix>
</trkpt>
<trkpt lat="33.8102638" lon="-118.3939227">
  <ele>-0.103</ele>
  <time>2026-09-02T22:07:31Z</time>
  <course>186.65</course>
  <speed>0.7213875518748573</speed>
  <fix>3d</fix>
</trkpt>
<trkpt lat="33.8102637" lon="-118.3939228">
  <ele>-0.103</ele>
  <time>2026-09-02T22:07:31Z</time>
  <course>186.65</course>
  <speed>0.7213875518748573</speed>
  <fix>3d</fix>
</trkpt>
<trkpt lat="33.8102637" lon="-118.3939228">
  <ele>-0.103</ele>
  <time>2026-09-02T22:07:31Z</time>
  <course>186.65</course>
  <speed>0.7213875518748573</speed>
  <fix>3d</fix>
</trkpt>
<trkpt lat="33.8102637" lon="-118.3939229">
  <ele>-0.103</ele>
  <time>2026-09-02T22:07:31Z</time>
  <course>186.65</course>
  <speed>0.7213875518748573</speed>
  <fix>3d</fix>
</trkpt>
<trkpt lat="33.8102636" lon="-118.3939229">
  <ele>-0.103</ele>
  <time>2026-09-02T22:07:31Z</time>
  <course>186.65</course>
  <speed>0.7213875518748573</speed>
  <fix>3d</fix>
</trkpt>
<trkpt lat="33.8102636" lon="-118.393923">
  <ele>-0.103</ele>
  <time>2026-09-02T22:07:31Z</time>
  <course>186.65</course>
  <speed>0.7213875518748573</speed>
  <fix>3d</fix>
</trkpt>
<trkpt lat="33.8102636" lon="-118.393923">
  <ele>-0.103</ele>
  <time>2026-09-02T22:07:31Z</time>
  <course>186.65</course>
  <speed>0.7213875518748573</speed>
  <fix>3d</fix>
</trkpt>
<trkpt lat="33.8102635" lon="-118.3939231">
  <ele>-0.103</ele>
  <time>2026-09-02T22:07:31Z</time>
  <course>186.65</course>
  <speed>0.7213875518748573</speed>
  <fix>3d</fix>
</trkpt>
<trkpt lat="33.8102635" lon="-118.3939231">
  <ele>-0.103</ele>
  <time>2026-09-02T22:07:31Z</time>
  <course>186.65</course>
  <speed>0.7213875518748573</speed>
  <fix>3d</fix>
</trkpt>
<trkpt lat="33.8102634" lon="-118.3939232">
  <ele>-0.103</ele>
  <time>2026-09-02T22:07:31Z</time>
  <course>186.65</course>
  <speed>0.7213875518748573</speed>
  <fix>3d</fix>
</trkpt>
<trkpt lat="33.8102634" lon="-118.3939232">
  <ele>-0.103</ele>
  <time>2026-09-02T22:07:31Z</time>
  <course>186.65</course>
  <speed>0.7213875518748573</speed>
  <fix>3d</fix>
</trkpt>
<trkpt lat="33.8102634" lon="-118.3939232">
  <ele>-0.104</ele>
  <time>2026-09-02T22:07:31Z</time>
  <course>186.65</course>
  <speed>0.7213875518748573</speed>
  <fix>3d</fix>
</trkpt>
<trkpt lat="33.8102634" lon="-118.3939232">
  <ele>-0.104</ele>
  <time>2026-09-02T22:07:31Z</time>
  <course>186.65</course>
  <speed>0.7213875518748573</speed>
  <fix>3d</fix>
</trkpt>
<trkpt lat="33.8102642" lon="-118.3939217">
  <ele>-0.1</ele>
  <time>2026-09-02T22:07:31Z</time>
  <course>223.26</course>
  <speed>0.73</speed>
  <fix>3d</fix>
</trkpt>
<trkpt lat="33.8102633" lon="-118.3939233">
  <ele>-0.104</ele>
  <time>2026-09-02T22:07:31Z</time>
  <course>186.65</course>
  <speed>0.7213875518748573</speed>
  <fix>3d</fix>
</trkpt>
<trkpt lat="33.8102633" lon="-118.3939233">
  <ele>-0.104</ele>
  <time>2026-09-02T22:07:31Z</time>
  <course>186.65</course>
  <speed>0.7213875518748573</speed>
  <fix>3d</fix>
</trkpt>
<trkpt lat="33.8102632" lon="-118.3939234">
  <ele>-0.104</ele>
  <time>2026-09-02T22:07:31Z</time>
  <course>186.65</course>
  <speed>0.7213875518748573</speed>
  <fix>3d</fix>
</trkpt>
<trkpt lat="33.8102632" lon="-118.3939234">
  <ele>-0.104</ele>
  <time>2026-09-02T22:07:31Z</time>
  <course>186.65</course>
  <speed>0.7213875518748573</speed>
  <fix>3d</fix>
</trkpt>
<trkpt lat="33.8102632" lon="-118.3939235">
  <ele>-0.104</ele>
  <time>2026-09-02T22:07:31Z</time>
  <course>186.65</course>
  <speed>0.7213875518748573</speed>
  <fix>3d</fix>
</trkpt>
<trkpt lat="33.8102631" lon="-118.3939235">
  <ele>-0.104</ele>
  <time>2026-09-02T22:07:31Z</time>
  <course>186.65</course>
  <speed>0.7213875518748573</speed>
  <fix>3d</fix>
</trkpt>
<trkpt lat="33.810263" lon="-118.3939236">
  <ele>-0.105</ele>
  <time>2026-09-02T22:07:31Z</time>
  <course>186.64</course>
  <speed>0.7213875518748573</speed>
  <fix>3d</fix>
</trkpt>
<trkpt lat="33.810263" lon="-118.3939237">
  <ele>-0.105</ele>
  <time>2026-09-02T22:07:31Z</time>
  <course>186.64</course>
  <speed>0.7213875518748573</speed>
  <fix>3d</fix>
</trkpt>
<trkpt lat="33.8102629" lon="-118.3939237">
  <ele>-0.105</ele>
  <time>2026-09-02T22:07:31Z</time>
  <course>186.64</course>
  <speed>0.7213875518748573</speed>
  <fix>3d</fix>
</trkpt>
<trkpt lat="33.8102629" lon="-118.3939238">
  <ele>-0.105</ele>
  <time>2026-09-02T22:07:31Z</time>
  <course>186.64</course>
  <speed>0.7213875518748573</speed>
  <fix>3d</fix>
</trkpt>
<trkpt lat="33.8102629" lon="-118.3939238">
  <ele>-0.106</ele>
  <time>2026-09-02T22:07:31Z</time>
  <course>186.64</course>
  <speed>0.7213875518748573</speed>
  <fix>3d</fix>
</trkpt>
<trkpt lat="33.8102633" lon="-118.3939228">
  <ele>-0.1</ele>
  <time>2026-09-02T22:07:31Z</time>
  <course>223.26</course>
  <speed>0.73</speed>
  <fix>3d</fix>
</trkpt>
<trkpt lat="33.8102629" lon="-118.3939238">
  <ele>-0.106</ele>
  <time>2026-09-02T22:07:31Z</time>
  <course>186.64</course>
  <speed>0.7213875518748573</speed>
  <fix>3d</fix>
</trkpt>
<trkpt lat="33.8102627" lon="-118.3939239">
  <ele>-0.106</ele>
  <time>2026-09-02T22:07:31Z</time>
  <course>186.64</course>
  <speed>0.7213875518748573</speed>
  <fix>3d</fix>
</trkpt>
<trkpt lat="33.8102627" lon="-118.393924">
  <ele>-0.107</ele>
  <time>2026-09-02T22:07:31Z</time>
  <course>186.64</course>
  <speed>0.7213875518748573</speed>
  <fix>3d</fix>
</trkpt>
<trkpt lat="33.8102627" lon="-118.393924">
  <ele>-0.107</ele>
  <time>2026-09-02T22:07:31Z</time>
  <course>186.64</course>
  <speed>0.7213875518748573</speed>
  <fix>3d</fix>
</trkpt>
<trkpt lat="33.8102626" lon="-118.3939241">
  <ele>-0.107</ele>
  <time>2026-09-02T22:07:31Z</time>
  <course>186.64</course>
  <speed>0.7213875518748573</speed>
  <fix>3d</fix>
</trkpt>
<trkpt lat="33.8102626" lon="-118.3939241">
  <ele>-0.107</ele>
  <time>2026-09-02T22:07:31Z</time>
  <course>186.64</course>
  <speed>0.7213875518748573</speed>
  <fix>3d</fix>
</trkpt>
<trkpt lat="33.8102625" lon="-118.3939242">
  <ele>-0.107</ele>
  <time>2026-09-02T22:07:31Z</time>
  <course>186.64</course>
  <speed>0.7213875518748573</speed>
  <fix>3d</fix>
</trkpt>
<trkpt lat="33.8102625" lon="-118.3939242">
  <ele>-0.108</ele>
  <time>2026-09-02T22:07:31Z</time>
  <course>186.64</course>
  <speed>0.7213875518748573</speed>
  <fix>3d</fix>
</trkpt>
<trkpt lat="33.8102624" lon="-118.3939243">
  <ele>-0.108</ele>
  <time>2026-09-02T22:07:31Z</time>
  <course>186.64</course>
  <speed>0.7213875518748573</speed>
  <fix>3d</fix>
</trkpt>
<trkpt lat="33.8102624" lon="-118.3939243">
  <ele>-0.108</ele>
  <time>2026-09-02T22:07:31Z</time>
  <course>186.64</course>
  <speed>0.7213875518748573</speed>
  <fix>3d</fix>
</trkpt>
<trkpt lat="33.8102624" lon="-118.3939243">
  <ele>-0.108</ele>
  <time>2026-09-02T22:07:31Z</time>
  <course>186.64</course>
  <speed>0.7213875518748573</speed>
  <fix>3d</fix>
</trkpt>
<trkpt lat="33.8102633" lon="-118.3939228">
  <ele>-0.1</ele>
  <time>2026-09-02T22:07:31Z</time>
  <course>223.26</course>
  <speed>0.73</speed>
  <fix>3d</fix>
</trkpt>
<trkpt lat="33.8102624" lon="-118.3939244">
  <ele>-0.108</ele>
  <time>2026-09-02T22:07:31Z</time>
  <course>186.64</course>
  <speed>0.7213875518748573</speed>
  <fix>3d</fix>
</trkpt>
<trkpt lat="33.8102623" lon="-118.3939244">
  <ele>-0.109</ele>
  <time>2026-09-02T22:07:31Z</time>
  <course>186.64</course>
  <speed>0.7213875518748573</speed>
  <fix>3d</fix>
</trkpt>
<trkpt lat="33.8102623" lon="-118.3939245">
  <ele>-0.109</ele>
  <time>2026-09-02T22:07:31Z</time>
  <course>186.64</course>
  <speed>0.7213875518748573</speed>
  <fix>3d</fix>
</trkpt>
<trkpt lat="33.8102622" lon="-118.3939245">
  <ele>-0.109</ele>
  <time>2026-09-02T22:07:31Z</time>
  <course>186.64</course>
  <speed>0.7213875518748573</speed>
  <fix>3d</fix>
</trkpt>
<trkpt lat="33.8102622" lon="-118.3939246">
  <ele>-0.109</ele>
  <time>2026-09-02T22:07:31Z</time>
  <course>186.64</course>
  <speed>0.7213875518748573</speed>
  <fix>3d</fix>
</trkpt>
<trkpt lat="33.8102621" lon="-118.3939246">
  <ele>-0.109</ele>
  <time>2026-09-02T22:07:31Z</time>
  <course>186.64</course>
  <speed>0.7213875518748573</speed>
  <fix>3d</fix>
</trkpt>
<trkpt lat="33.8102621" lon="-118.3939247">
  <ele>-0.109</ele>
  <time>2026-09-02T22:07:31Z</time>
  <course>186.64</course>
  <speed>0.7213875518748573</speed>
  <fix>3d</fix>
</trkpt>
<trkpt lat="33.8102621" lon="-118.3939247">
  <ele>-0.11</ele>
  <time>2026-09-02T22:07:31Z</time>
  <course>186.64</course>
  <speed>0.7213875518748573</speed>
  <fix>3d</fix>
</trkpt>
<trkpt lat="33.810262" lon="-118.3939247">
  <ele>-0.11</ele>
  <time>2026-09-02T22:07:31Z</time>
  <course>186.64</course>
  <speed>0.7213875518748573</speed>
  <fix>3d</fix>
</trkpt>
<trkpt lat="33.810262" lon="-118.3939248">
  <ele>-0.11</ele>
  <time>2026-09-02T22:07:31Z</time>
  <course>186.64</course>
  <speed>0.7213875518748573</speed>
  <fix>3d</fix>
</trkpt>
<trkpt lat="33.810262" lon="-118.3939248">
  <ele>-0.11</ele>
  <time>2026-09-02T22:07:31Z</time>
  <course>186.64</course>
  <speed>0.7213875518748573</speed>
  <fix>3d</fix>
</trkpt>
<trkpt lat="33.8102619" lon="-118.3939249">
  <ele>-0.11</ele>
  <time>2026-09-02T22:07:31Z</time>
  <course>186.64</course>
  <speed>0.7213875518748573</speed>
  <fix>3d</fix>
</trkpt>
<trkpt lat="33.8102619" lon="-118.3939249">
  <ele>-0.11</ele>
  <time>2026-09-02T22:07:31Z</time>
  <course>186.64</course>
  <speed>0.7213875518748573</speed>
  <fix>3d</fix>
</trkpt>
<trkpt lat="33.8102623" lon="-118.3939239">
  <ele>-0.1</ele>
  <time>2026-09-02T22:07:31Z</time>
  <course>223.26</course>
  <speed>0.73</speed>
  <fix>3d</fix>
</trkpt>
<trkpt lat="33.8102619" lon="-118.3939249">
  <ele>-0.11</ele>
  <time>2026-09-02T22:07:31Z</time>
  <course>186.64</course>
  <speed>0.7213875518748573</speed>
  <fix>3d</fix>
</trkpt>
<trkpt lat="33.8102618" lon="-118.393925">
  <ele>-0.111</ele>
  <time>2026-09-02T22:07:31Z</time>
  <course>186.63</course>
  <speed>0.7213875518748573</speed>
  <fix>3d</fix>
</trkpt>
<trkpt lat="33.8102617" lon="-118.3939251">
  <ele>-0.111</ele>
  <time>2026-09-02T22:07:31Z</time>
  <course>186.63</course>
  <speed>0.7213875518748573</speed>
  <fix>3d</fix>
</trkpt>
<trkpt lat="33.8102617" lon="-118.3939252">
  <ele>-0.111</ele>
  <time>2026-09-02T22:07:31Z</time>
  <course>186.63</course>
  <speed>0.7213875518748573</speed>
  <fix>3d</fix>
</trkpt>
<trkpt lat="33.8102616" lon="-118.3939252">
  <ele>-0.112</ele>
  <time>2026-09-02T22:07:31Z</time>
  <course>186.63</course>
  <speed>0.7213875518748573</speed>
  <fix>3d</fix>
</trkpt>
<trkpt lat="33.8102616" lon="-118.3939253">
  <ele>-0.112</ele>
  <time>2026-09-02T22:07:31Z</time>
  <course>186.63</course>
  <speed>0.7213875518748573</speed>
  <fix>3d</fix>
</trkpt>
<trkpt lat="33.8102615" lon="-118.3939253">
  <ele>-0.112</ele>
  <time>2026-09-02T22:07:31Z</time>
  <course>186.63</course>
  <speed>0.7213875518748573</speed>
  <fix>3d</fix>
</trkpt>
<trkpt lat="33.8102615" lon="-118.3939254">
  <ele>-0.112</ele>
  <time>2026-09-02T22:07:31Z</time>
  <course>186.63</course>
  <speed>0.7213875518748573</speed>
  <fix>3d</fix>
</trkpt>
<trkpt lat="33.8102614" lon="-118.3939254">
  <ele>-0.112</ele>
  <time>2026-09-02T22:07:31Z</time>
  <course>186.63</course>
  <speed>0.7213875518748573</speed>
  <fix>3d</fix>
</trkpt>
<trkpt lat="33.8102614" lon="-118.3939254">
  <ele>-0.112</ele>
  <time>2026-09-02T22:07:31Z</time>
  <course>186.63</course>
  <speed>0.7213875518748573</speed>
  <fix>3d</fix>
</trkpt>
<trkpt lat="33.8102623" lon="-118.3939239">
  <ele>-0.1</ele>
  <time>2026-09-02T22:07:31Z</time>
  <course>223.26</course>
  <speed>0.73</speed>
  <fix>3d</fix>
</trkpt>
<trkpt lat="33.8102613" lon="-118.3939255">
  <ele>-0.112</ele>
  <time>2026-09-02T22:07:31Z</time>
  <course>186.63</course>
  <speed>0.7213875518748573</speed>
  <fix>3d</fix>
</trkpt>
<trkpt lat="33.8102613" lon="-118.3939256">
  <ele>-0.113</ele>
  <time>2026-09-02T22:07:31Z</time>
  <course>186.63</course>
  <speed>0.7213875518748573</speed>
  <fix>3d</fix>
</trkpt>
<trkpt lat="33.8102612" lon="-118.3939256">
  <ele>-0.113</ele>
  <time>2026-09-02T22:07:31Z</time>
  <course>186.63</course>
  <speed>0.7213875518748573</speed>
  <fix>3d</fix>
</trkpt>
<trkpt lat="33.8102612" lon="-118.3939257">
  <ele>-0.113</ele>
  <time>2026-09-02T22:07:31Z</time>
  <course>186.63</course>
  <speed>0.7213875518748573</speed>
  <fix>3d</fix>
</trkpt>
<trkpt lat="33.8102612" lon="-118.3939257">
  <ele>-0.113</ele>
  <time>2026-09-02T22:07:31Z</time>
  <course>186.63</course>
  <speed>0.7213875518748573</speed>
  <fix>3d</fix>
</trkpt>
<trkpt lat="33.8102611" lon="-118.3939258">
  <ele>-0.113</ele>
  <time>2026-09-02T22:07:31Z</time>
  <course>186.63</course>
  <speed>0.7213875518748573</speed>
  <fix>3d</fix>
</trkpt>
<trkpt lat="33.8102611" lon="-118.3939258">
  <ele>-0.113</ele>
  <time>2026-09-02T22:07:31Z</time>
  <course>186.63</course>
  <speed>0.7213875518748573</speed>
  <fix>3d</fix>
</trkpt>
<trkpt lat="33.8102611" lon="-118.3939258">
  <ele>-0.112</ele>
  <time>2026-09-02T22:07:31Z</time>
  <course>186.63</course>
  <speed>0.7213875518748573</speed>
  <fix>3d</fix>
</trkpt>
<trkpt lat="33.810261" lon="-118.3939259">
  <ele>-0.112</ele>
  <time>2026-09-02T22:07:31Z</time>
  <course>186.63</course>
  <speed>0.7213875518748573</speed>
  <fix>3d</fix>
</trkpt>
<trkpt lat="33.810261" lon="-118.3939259">
  <ele>-0.112</ele>
  <time>2026-09-02T22:07:31Z</time>
  <course>186.63</course>
  <speed>0.7213875518748573</speed>
  <fix>3d</fix>
</trkpt>
<trkpt lat="33.810261" lon="-118.393926">
  <ele>-0.112</ele>
  <time>2026-09-02T22:07:31Z</time>
  <course>186.63</course>
  <speed>0.7213875518748573</speed>
  <fix>3d</fix>
</trkpt>
<trkpt lat="33.810261" lon="-118.393926">
  <ele>-0.112</ele>
  <time>2026-09-02T22:07:31Z</time>
  <course>186.63</course>
  <speed>0.7213875518748573</speed>
  <fix>3d</fix>
</trkpt>
<trkpt lat="33.8102613" lon="-118.393925">
  <ele>-0.1</ele>
  <time>2026-09-02T22:07:31Z</time>
  <course>223.26</course>
  <speed>0.73</speed>
  <fix>3d</fix>
</trkpt>
<trkpt lat="33.8102609" lon="-118.393926">
  <ele>-0.112</ele>
  <time>2026-09-02T22:07:31Z</time>
  <course>186.63</course>
  <speed>0.7213875518748573</speed>
  <fix>3d</fix>
</trkpt>
<trkpt lat="33.8102608" lon="-118.3939261">
  <ele>-0.112</ele>
  <time>2026-09-02T22:07:31Z</time>
  <course>186.63</course>
  <speed>0.7213875518748573</speed>
  <fix>3d</fix>
</trkpt>
<trkpt lat="33.8102608" lon="-118.3939261">
  <ele>-0.112</ele>
  <time>2026-09-02T22:07:31Z</time>
  <course>186.63</course>
  <speed>0.7213875518748573</speed>
  <fix>3d</fix>
</trkpt>
<trkpt lat="33.8102608" lon="-118.3939262">
  <ele>-0.112</ele>
  <time>2026-09-02T22:07:31Z</time>
  <course>186.63</course>
  <speed>0.7213875518748573</speed>
  <fix>3d</fix>
</trkpt>
<trkpt lat="33.8102607" lon="-118.3939262">
  <ele>-0.112</ele>
  <time>2026-09-02T22:07:31Z</time>
  <course>186.63</course>
  <speed>0.7213875518748573</speed>
  <fix>3d</fix>
</trkpt>
<trkpt lat="33.8102607" lon="-118.3939263">
  <ele>-0.112</ele>
  <time>2026-09-02T22:07:31Z</time>
  <course>186.63</course>
  <speed>0.7213875518748573</speed>
  <fix>3d</fix>
</trkpt>
<trkpt lat="33.8102607" lon="-118.3939263">
  <ele>-0.112</ele>
  <time>2026-09-02T22:07:31Z</time>
  <course>186.63</course>
  <speed>0.7213875518748573</speed>
  <fix>3d</fix>
</trkpt>
<trkpt lat="33.8102606" lon="-118.3939263">
  <ele>-0.112</ele>
  <time>2026-09-02T22:07:31Z</time>
  <course>186.63</course>
  <speed>0.7213875518748573</speed>
  <fix>3d</fix>
</trkpt>
<trkpt lat="33.8102606" lon="-118.3939264">
  <ele>-0.112</ele>
  <time>2026-09-02T22:07:31Z</time>
  <course>186.63</course>
  <speed>0.7213875518748573</speed>
  <fix>3d</fix>
</trkpt>
<trkpt lat="33.8102605" lon="-118.3939264">
  <ele>-0.112</ele>
  <time>2026-09-02T22:07:31Z</time>
  <course>186.63</course>
  <speed>0.7213875518748573</speed>
  <fix>3d</fix>
</trkpt>
<trkpt lat="33.8102605" lon="-118.3939265">
  <ele>-0.112</ele>
  <time>2026-09-02T22:07:31Z</time>
  <course>186.63</course>
  <speed>0.7213875518748573</speed>
  <fix>3d</fix>
</trkpt>
<trkpt lat="33.8102605" lon="-118.3939265">
  <ele>-0.112</ele>
  <time>2026-09-02T22:07:31Z</time>
  <course>186.63</course>
  <speed>0.7213875518748573</speed>
  <fix>3d</fix>
</trkpt>
<trkpt lat="33.8102605" lon="-118.3939265">
  <ele>-0.112</ele>
  <time>2026-09-02T22:07:31Z</time>
  <course>186.63</course>
  <speed>0.7213875518748573</speed>
  <fix>3d</fix>
</trkpt>
<trkpt lat="33.8102613" lon="-118.393925">
  <ele>-0.1</ele>
  <time>2026-09-02T22:07:31Z</time>
  <course>223.26</course>
  <speed>0.73</speed>
  <fix>3d</fix>
</trkpt>
<trkpt lat="33.8102604" lon="-118.3939266">
  <ele>-0.112</ele>
  <time>2026-09-02T22:07:31Z</time>
  <course>186.62</course>
  <speed>0.7213875518748573</speed>
  <fix>3d</fix>
</trkpt>
<trkpt lat="33.8102604" lon="-118.3939266">
  <ele>-0.111</ele>
  <time>2026-09-02T22:07:31Z</time>
  <course>186.62</course>
  <speed>0.7213875518748573</speed>
  <fix>3d</fix>
</trkpt>
<trkpt lat="33.8102603" lon="-118.3939267">
  <ele>-0.111</ele>
  <time>2026-09-02T22:07:31Z</time>
  <course>186.62</course>
  <speed>0.7213875518748573</speed>
  <fix>3d</fix>
</trkpt>
<trkpt lat="33.8102602" lon="-118.3939268">
  <ele>-0.111</ele>
  <time>2026-09-02T22:07:31Z</time>
  <course>186.62</course>
  <speed>0.7213875518748573</speed>
  <fix>3d</fix>
</trkpt>
<trkpt lat="33.8102602" lon="-118.3939268">
  <ele>-0.111</ele>
  <time>2026-09-02T22:07:31Z</time>
  <course>186.62</course>
  <speed>0.7213875518748573</speed>
  <fix>3d</fix>
</trkpt>
<trkpt lat="33.8102602" lon="-118.3939269">
  <ele>-0.111</ele>
  <time>2026-09-02T22:07:31Z</time>
  <course>186.62</course>
  <speed>0.7213875518748573</speed>
  <fix>3d</fix>
</trkpt>
<trkpt lat="33.8102601" lon="-118.3939269">
  <ele>-0.111</ele>
  <time>2026-09-02T22:07:31Z</time>
  <course>186.62</course>
  <speed>0.7213875518748573</speed>
  <fix>3d</fix>
</trkpt>
<trkpt lat="33.8102601" lon="-118.393927">
  <ele>-0.111</ele>
  <time>2026-09-02T22:07:31Z</time>
  <course>186.62</course>
  <speed>0.7213875518748573</speed>
  <fix>3d</fix>
</trkpt>
<trkpt lat="33.81026" lon="-118.393927">
  <ele>-0.11</ele>
  <time>2026-09-02T22:07:31Z</time>
  <course>186.62</course>
  <speed>0.7213875518748573</speed>
  <fix>3d</fix>
</trkpt>
<trkpt lat="33.81026" lon="-118.3939271">
  <ele>-0.11</ele>
  <time>2026-09-02T22:07:31Z</time>
  <course>186.62</course>
  <speed>0.7213875518748573</speed>
  <fix>3d</fix>
</trkpt>
<trkpt lat="33.8102604" lon="-118.3939261">
  <ele>-0.11</ele>
  <time>2026-09-02T22:07:31Z</time>
  <course>223.26</course>
  <speed>0.73</speed>
  <fix>3d</fix>
</trkpt>
<trkpt lat="33.81026" lon="-118.3939271">
  <ele>-0.11</ele>
  <time>2026-09-02T22:07:31Z</time>
  <course>186.62</course>
  <speed>0.7213875518748573</speed>
  <fix>3d</fix>
</trkpt>
<trkpt lat="33.8102599" lon="-118.3939272">
  <ele>-0.11</ele>
  <time>2026-09-02T22:07:31Z</time>
  <course>186.62</course>
  <speed>0.7213875518748573</speed>
  <fix>3d</fix>
</trkpt>
<trkpt lat="33.8102599" lon="-118.3939272">
  <ele>-0.11</ele>
  <time>2026-09-02T22:07:31Z</time>
  <course>186.62</course>
  <speed>0.7213875518748573</speed>
  <fix>3d</fix>
</trkpt>
<trkpt lat="33.8102598" lon="-118.3939273">
  <ele>-0.11</ele>
  <time>2026-09-02T22:07:31Z</time>
  <course>186.62</course>
  <speed>0.7213875518748573</speed>
  <fix>3d</fix>
</trkpt>
<trkpt lat="33.8102598" lon="-118.3939273">
  <ele>-0.11</ele>
  <time>2026-09-02T22:07:31Z</time>
  <course>186.62</course>
  <speed>0.7213875518748573</speed>
  <fix>3d</fix>
</trkpt>
<trkpt lat="33.8102597" lon="-118.3939273">
  <ele>-0.11</ele>
  <time>2026-09-02T22:07:31Z</time>
  <course>186.62</course>
  <speed>0.7213875518748573</speed>
  <fix>3d</fix>
</trkpt>
<trkpt lat="33.8102597" lon="-118.3939274">
  <ele>-0.11</ele>
  <time>2026-09-02T22:07:31Z</time>
  <course>186.62</course>
  <speed>0.7213875518748573</speed>
  <fix>3d</fix>
</trkpt>
<trkpt lat="33.8102597" lon="-118.3939274">
  <ele>-0.11</ele>
  <time>2026-09-02T22:07:31Z</time>
  <course>186.62</course>
  <speed>0.7213875518748573</speed>
  <fix>3d</fix>
</trkpt>
<trkpt lat="33.8102596" lon="-118.3939275">
  <ele>-0.11</ele>
  <time>2026-09-02T22:07:31Z</time>
  <course>186.62</course>
  <speed>0.7213875518748573</speed>
  <fix>3d</fix>
</trkpt>
<trkpt lat="33.8102596" lon="-118.3939275">
  <ele>-0.11</ele>
  <time>2026-09-02T22:07:31Z</time>
  <course>186.62</course>
  <speed>0.7213875518748573</speed>
  <fix>3d</fix>
</trkpt>
<trkpt lat="33.8102595" lon="-118.3939276">
  <ele>-0.11</ele>
  <time>2026-09-02T22:07:31Z</time>
  <course>186.62</course>
  <speed>0.7213875518748573</speed>
  <fix>3d</fix>
</trkpt>
<trkpt lat="33.8102595" lon="-118.3939276">
  <ele>-0.11</ele>
  <time>2026-09-02T22:07:31Z</time>
  <course>186.62</course>
  <speed>0.7213875518748573</speed>
  <fix>3d</fix>
</trkpt>
<trkpt lat="33.8102604" lon="-118.3939261">
  <ele>-0.11</ele>
  <time>2026-09-02T22:07:31Z</time>
  <course>223.26</course>
  <speed>0.73</speed>
  <fix>3d</fix>
</trkpt>
<trkpt lat="33.8102595" lon="-118.3939276">
  <ele>-0.11</ele>
  <time>2026-09-02T22:07:31Z</time>
  <course>186.62</course>
  <speed>0.7213875518748573</speed>
  <fix>3d</fix>
</trkpt>
<trkpt lat="33.8102594" lon="-118.3939277">
  <ele>-0.11</ele>
  <time>2026-09-02T22:07:31Z</time>
  <course>186.62</course>
  <speed>0.7213875518748573</speed>
  <fix>3d</fix>
</trkpt>
<trkpt lat="33.8102594" lon="-118.3939277">
  <ele>-0.11</ele>
  <time>2026-09-02T22:07:31Z</time>
  <course>186.62</course>
  <speed>0.7213875518748573</speed>
  <fix>3d</fix>
</trkpt>
<trkpt lat="33.8102594" lon="-118.3939278">
  <ele>-0.11</ele>
  <time>2026-09-02T22:07:31Z</time>
  <course>186.62</course>
  <speed>0.7213875518748573</speed>
  <fix>3d</fix>
</trkpt>
<trkpt lat="33.8102593" lon="-118.3939278">
  <ele>-0.11</ele>
  <time>2026-09-02T22:07:31Z</time>
  <course>186.62</course>
  <speed>0.7213875518748573</speed>
  <fix>3d</fix>
</trkpt>
<trkpt lat="33.8102593" lon="-118.3939278">
  <ele>-0.11</ele>
  <time>2026-09-02T22:07:31Z</time>
  <course>186.62</course>
  <speed>0.7213875518748573</speed>
  <fix>3d</fix>
</trkpt>
<trkpt lat="33.8102592" lon="-118.3939279">
  <ele>-0.11</ele>
  <time>2026-09-02T22:07:31Z</time>
  <course>186.62</course>
  <speed>0.7213875518748573</speed>
  <fix>3d</fix>
</trkpt>
<trkpt lat="33.8102592" lon="-118.3939279">
  <ele>-0.11</ele>
  <time>2026-09-02T22:07:31Z</time>
  <course>186.62</course>
  <speed>0.7213875518748573</speed>
  <fix>3d</fix>
</trkpt>
<trkpt lat="33.8102592" lon="-118.393928">
  <ele>-0.11</ele>
  <time>2026-09-02T22:07:31Z</time>
  <course>186.62</course>
  <speed>0.7213875518748573</speed>
  <fix>3d</fix>
</trkpt>
<trkpt lat="33.8102591" lon="-118.393928">
  <ele>-0.11</ele>
  <time>2026-09-02T22:07:31Z</time>
  <course>186.62</course>
  <speed>0.7213875518748573</speed>
  <fix>3d</fix>
</trkpt>
<trkpt lat="33.8102591" lon="-118.3939281">
  <ele>-0.11</ele>
  <time>2026-09-02T22:07:31Z</time>
  <course>186.62</course>
  <speed>0.7213875518748573</speed>
  <fix>3d</fix>
</trkpt>
<trkpt lat="33.8102591" lon="-118.3939281">
  <ele>-0.11</ele>
  <time>2026-09-02T22:07:31Z</time>
  <course>186.61</course>
  <speed>0.7213875518748573</speed>
  <fix>3d</fix>
</trkpt>
<trkpt lat="33.810259" lon="-118.3939281">
  <ele>-0.11</ele>
  <time>2026-09-02T22:07:31Z</time>
  <course>186.61</course>
  <speed>0.7213875518748573</speed>
  <fix>3d</fix>
</trkpt>
<trkpt lat="33.8102594" lon="-118.3939272">
  <ele>-0.1</ele>
  <time>2026-09-02T22:07:31Z</time>
  <course>223.26</course>
  <speed>0.73</speed>
  <fix>3d</fix>
</trkpt>
<trkpt lat="33.810259" lon="-118.3939282">
  <ele>-0.11</ele>
  <time>2026-09-02T22:07:31Z</time>
  <course>186.61</course>
  <speed>0.7213875518748573</speed>
  <fix>3d</fix>
</trkpt>
<trkpt lat="33.810259" lon="-118.3939282">
  <ele>-0.11</ele>
  <time>2026-09-02T22:07:31Z</time>
  <course>186.61</course>
  <speed>0.7213875518748573</speed>
  <fix>3d</fix>
</trkpt>
<trkpt lat="33.8102589" lon="-118.3939283">
  <ele>-0.11</ele>
  <time>2026-09-02T22:07:31Z</time>
  <course>186.61</course>
  <speed>0.7213875518748573</speed>
  <fix>3d</fix>
</trkpt>
<trkpt lat="33.8102589" lon="-118.3939283">
  <ele>-0.11</ele>
  <time>2026-09-02T22:07:31Z</time>
  <course>186.61</course>
  <speed>0.7213875518748573</speed>
  <fix>3d</fix>
</trkpt>
<trkpt lat="33.8102588" lon="-118.3939284">
  <ele>-0.11</ele>
  <time>2026-09-02T22:07:31Z</time>
  <course>186.61</course>
  <speed>0.7213875518748573</speed>
  <fix>3d</fix>
</trkpt>
<trkpt lat="33.8102588" lon="-118.3939284">
  <ele>-0.11</ele>
  <time>2026-09-02T22:07:31Z</time>
  <course>186.61</course>
  <speed>0.7213875518748573</speed>
  <fix>3d</fix>
</trkpt>
<trkpt lat="33.8102588" lon="-118.3939284">
  <ele>-0.11</ele>
  <time>2026-09-02T22:07:31Z</time>
  <course>186.61</course>
  <speed>0.7213875518748573</speed>
  <fix>3d</fix>
</trkpt>
<trkpt lat="33.8102587" lon="-118.3939285">
  <ele>-0.111</ele>
  <time>2026-09-02T22:07:31Z</time>
  <course>186.61</course>
  <speed>0.7213875518748573</speed>
  <fix>3d</fix>
</trkpt>
<trkpt lat="33.8102587" lon="-118.3939285">
  <ele>-0.111</ele>
  <time>2026-09-02T22:07:31Z</time>
  <course>186.61</course>
  <speed>0.7213875518748573</speed>
  <fix>3d</fix>
</trkpt>
<trkpt lat="33.8102586" lon="-118.3939286">
  <ele>-0.111</ele>
  <time>2026-09-02T22:07:31Z</time>
  <course>186.61</course>
  <speed>0.7213875518748573</speed>
  <fix>3d</fix>
</trkpt>
<trkpt lat="33.8102586" lon="-118.3939286">
  <ele>-0.111</ele>
  <time>2026-09-02T22:07:31Z</time>
  <course>186.61</course>
  <speed>0.7213875518748573</speed>
  <fix>3d</fix>
</trkpt>
<trkpt lat="33.8102586" lon="-118.3939287">
  <ele>-0.111</ele>
  <time>2026-09-02T22:07:31Z</time>
  <course>186.61</course>
  <speed>0.7213875518748573</speed>
  <fix>3d</fix>
</trkpt>
<trkpt lat="33.8102585" lon="-118.3939287">
  <ele>-0.111</ele>
  <time>2026-09-02T22:07:31Z</time>
  <course>186.61</course>
  <speed>0.7213875518748573</speed>
  <fix>3d</fix>
</trkpt>
<trkpt lat="33.8102594" lon="-118.3939272">
  <ele>-0.1</ele>
  <time>2026-09-02T22:07:31Z</time>
  <course>223.26</course>
  <speed>0.73</speed>
  <fix>3d</fix>
</trkpt>
<trkpt lat="33.8102585" lon="-118.3939287">
  <ele>-0.111</ele>
  <time>2026-09-02T22:07:31Z</time>
  <course>186.61</course>
  <speed>0.7213875518748573</speed>
  <fix>3d</fix>
</trkpt>
<trkpt lat="33.8102585" lon="-118.3939288">
  <ele>-0.112</ele>
  <time>2026-09-02T22:07:31Z</time>
  <course>186.61</course>
  <speed>0.7213875518748573</speed>
  <fix>3d</fix>
</trkpt>
<trkpt lat="33.8102584" lon="-118.3939288">
  <ele>-0.112</ele>
  <time>2026-09-02T22:07:31Z</time>
  <course>186.61</course>
  <speed>0.7213875518748573</speed>
  <fix>3d</fix>
</trkpt>
<trkpt lat="33.8102584" lon="-118.3939289">
  <ele>-0.112</ele>
  <time>2026-09-02T22:07:31Z</time>
  <course>186.61</course>
  <speed>0.7213875518748573</speed>
  <fix>3d</fix>
</trkpt>
<trkpt lat="33.8102584" lon="-118.3939289">
  <ele>-0.112</ele>
  <time>2026-09-02T22:07:31Z</time>
  <course>186.61</course>
  <speed>0.7213875518748573</speed>
  <fix>3d</fix>
</trkpt>
<trkpt lat="33.8102583" lon="-118.393929">
  <ele>-0.112</ele>
  <time>2026-09-02T22:07:31Z</time>
  <course>186.61</course>
  <speed>0.7213875518748573</speed>
  <fix>3d</fix>
</trkpt>
<trkpt lat="33.8102583" lon="-118.393929">
  <ele>-0.113</ele>
  <time>2026-09-02T22:07:31Z</time>
  <course>186.61</course>
  <speed>0.7213875518748573</speed>
  <fix>3d</fix>
</trkpt>
<trkpt lat="33.8102582" lon="-118.393929">
  <ele>-0.113</ele>
  <time>2026-09-02T22:07:31Z</time>
  <course>186.61</course>
  <speed>0.7213875518748573</speed>
  <fix>3d</fix>
</trkpt>
<trkpt lat="33.8102582" lon="-118.3939291">
  <ele>-0.113</ele>
  <time>2026-09-02T22:07:31Z</time>
  <course>186.61</course>
  <speed>0.7213875518748573</speed>
  <fix>3d</fix>
</trkpt>
<trkpt lat="33.8102582" lon="-118.3939291">
  <ele>-0.113</ele>
  <time>2026-09-02T22:07:31Z</time>
  <course>186.61</course>
  <speed>0.7213875518748573</speed>
  <fix>3d</fix>
</trkpt>
<trkpt lat="33.8102581" lon="-118.3939292">
  <ele>-0.113</ele>
  <time>2026-09-02T22:07:31Z</time>
  <course>186.61</course>
  <speed>0.7213875518748573</speed>
  <fix>3d</fix>
</trkpt>
<trkpt lat="33.8102581" lon="-118.3939292">
  <ele>-0.113</ele>
  <time>2026-09-02T22:07:31Z</time>
  <course>186.61</course>
  <speed>0.7213875518748573</speed>
  <fix>3d</fix>
</trkpt>
<trkpt lat="33.8102581" lon="-118.3939292">
  <ele>-0.113</ele>
  <time>2026-09-02T22:07:31Z</time>
  <course>186.61</course>
  <speed>0.7213875518748573</speed>
  <fix>3d</fix>
</trkpt>
<trkpt lat="33.8102584" lon="-118.3939283">
  <ele>-0.1</ele>
  <time>2026-09-02T22:07:31Z</time>
  <course>223.26</course>
  <speed>0.73</speed>
  <fix>3d</fix>
</trkpt>
<trkpt lat="33.810258" lon="-118.3939293">
  <ele>-0.114</ele>
  <time>2026-09-02T22:07:31Z</time>
  <course>186.61</course>
  <speed>0.7213875518748573</speed>
  <fix>3d</fix>
</trkpt>
<trkpt lat="33.8102579" lon="-118.3939294">
  <ele>-0.114</ele>
  <time>2026-09-02T22:07:31Z</time>
  <course>186.61</course>
  <speed>0.7213875518748573</speed>
  <fix>3d</fix>
</trkpt>
<trkpt lat="33.8102579" lon="-118.3939294">
  <ele>-0.114</ele>
  <time>2026-09-02T22:07:31Z</time>
  <course>186.61</course>
  <speed>0.7213875518748573</speed>
  <fix>3d</fix>
</trkpt>
<trkpt lat="33.8102579" lon="-118.3939295">
  <ele>-0.114</ele>
  <time>2026-09-02T22:07:31Z</time>
  <course>186.61</course>
  <speed>0.7213875518748573</speed>
  <fix>3d</fix>
</trkpt>
<trkpt lat="33.8102578" lon="-118.3939295">
  <ele>-0.114</ele>
  <time>2026-09-02T22:07:31Z</time>
  <course>186.61</course>
  <speed>0.7213875518748573</speed>
  <fix>3d</fix>
</trkpt>
<trkpt lat="33.8102578" lon="-118.3939295">
  <ele>-0.114</ele>
  <time>2026-09-02T22:07:31Z</time>
  <course>186.61</course>
  <speed>0.7213875518748573</speed>
  <fix>3d</fix>
</trkpt>
<trkpt lat="33.8102577" lon="-118.3939296">
  <ele>-0.115</ele>
  <time>2026-09-02T22:07:31Z</time>
  <course>186.61</course>
  <speed>0.7213875518748573</speed>
  <fix>3d</fix>
</trkpt>
<trkpt lat="33.8102577" lon="-118.3939296">
  <ele>-0.114</ele>
  <time>2026-09-02T22:07:31Z</time>
  <course>186.6</course>
  <speed>0.7213875518748573</speed>
  <fix>3d</fix>
</trkpt>
<trkpt lat="33.8102577" lon="-118.3939297">
  <ele>-0.115</ele>
  <time>2026-09-02T22:07:31Z</time>
  <course>186.6</course>
  <speed>0.7213875518748573</speed>
  <fix>3d</fix>
</trkpt>
<trkpt lat="33.8102576" lon="-118.3939297">
  <ele>-0.115</ele>
  <time>2026-09-02T22:07:31Z</time>
  <course>186.6</course>
  <speed>0.7213875518748573</speed>
  <fix>3d</fix>
</trkpt>
<trkpt lat="33.8102576" lon="-118.3939298">
  <ele>-0.115</ele>
  <time>2026-09-02T22:07:31Z</time>
  <course>186.6</course>
  <speed>0.7213875518748573</speed>
  <fix>3d</fix>
</trkpt>
<trkpt lat="33.8102584" lon="-118.3939283">
  <ele>-0.1</ele>
  <time>2026-09-02T22:07:31Z</time>
  <course>223.26</course>
  <speed>0.73</speed>
  <fix>3d</fix>
</trkpt>
<trkpt lat="33.8102576" lon="-118.3939298">
  <ele>-0.115</ele>
  <time>2026-09-02T22:07:31Z</time>
  <course>186.6</course>
  <speed>0.7213875518748573</speed>
  <fix>3d</fix>
</trkpt>
<trkpt lat="33.8102575" lon="-118.3939299">
  <ele>-0.115</ele>
  <time>2026-09-02T22:07:31Z</time>
  <course>186.6</course>
  <speed>0.7213875518748573</speed>
  <fix>3d</fix>
</trkpt>
<trkpt lat="33.8102575" lon="-118.3939299">
  <ele>-0.115</ele>
  <time>2026-09-02T22:07:31Z</time>
  <course>186.6</course>
  <speed>0.7213875518748573</speed>
  <fix>3d</fix>
</trkpt>
<trkpt lat="33.8102574" lon="-118.39393">
  <ele>-0.115</ele>
  <time>2026-09-02T22:07:31Z</time>
  <course>186.6</course>
  <speed>0.7213875518748573</speed>
  <fix>3d</fix>
</trkpt>
<trkpt lat="33.8102574" lon="-118.39393">
  <ele>-0.115</ele>
  <time>2026-09-02T22:07:31Z</time>
  <course>186.6</course>
  <speed>0.7213875518748573</speed>
  <fix>3d</fix>
</trkpt>
<trkpt lat="33.8102574" lon="-118.39393">
  <ele>-0.115</ele>
  <time>2026-09-02T22:07:31Z</time>
  <course>186.6</course>
  <speed>0.7213875518748573</speed>
  <fix>3d</fix>
</trkpt>
<trkpt lat="33.8102573" lon="-118.3939301">
  <ele>-0.115</ele>
  <time>2026-09-02T22:07:31Z</time>
  <course>186.6</course>
  <speed>0.7213875518748573</speed>
  <fix>3d</fix>
</trkpt>
<trkpt lat="33.8102573" lon="-118.3939301">
  <ele>-0.116</ele>
  <time>2026-09-02T22:07:31Z</time>
  <course>186.6</course>
  <speed>0.7213875518748573</speed>
  <fix>3d</fix>
</trkpt>
<trkpt lat="33.8102572" lon="-118.3939302">
  <ele>-0.116</ele>
  <time>2026-09-02T22:07:31Z</time>
  <course>186.6</course>
  <speed>0.7213875518748573</speed>
  <fix>3d</fix>
</trkpt>
<trkpt lat="33.8102572" lon="-118.3939302">
  <ele>-0.116</ele>
  <time>2026-09-02T22:07:31Z</time>
  <course>186.6</course>
  <speed>0.7213875518748573</speed>
  <fix>3d</fix>
</trkpt>
<trkpt lat="33.8102572" lon="-118.3939303">
  <ele>-0.116</ele>
  <time>2026-09-02T22:07:31Z</time>
  <course>186.6</course>
  <speed>0.7213875518748573</speed>
  <fix>3d</fix>
</trkpt>
<trkpt lat="33.8102571" lon="-118.3939303">
  <ele>-0.116</ele>
  <time>2026-09-02T22:07:31Z</time>
  <course>186.6</course>
  <speed>0.7213875518748573</speed>
  <fix>3d</fix>
</trkpt>
<trkpt lat="33.8102571" lon="-118.3939303">
  <ele>-0.116</ele>
  <time>2026-09-02T22:07:31Z</time>
  <course>186.6</course>
  <speed>0.7213875518748573</speed>
  <fix>3d</fix>
</trkpt>
<trkpt lat="33.8102575" lon="-118.3939294">
  <ele>-0.1</ele>
  <time>2026-09-02T22:07:31Z</time>
  <course>223.26</course>
  <speed>0.73</speed>
  <fix>3d</fix>
</trkpt>
<trkpt lat="33.8102571" lon="-118.3939303">
  <ele>-0.116</ele>
  <time>2026-09-02T22:07:31Z</time>
  <course>186.6</course>
  <speed>0.7213875518748573</speed>
  <fix>3d</fix>
</trkpt>
<trkpt lat="33.810257" lon="-118.3939304">
  <ele>-0.117</ele>
  <time>2026-09-02T22:07:31Z</time>
  <course>186.6</course>
  <speed>0.7213875518748573</speed>
  <fix>3d</fix>
</trkpt>
<trkpt lat="33.810257" lon="-118.3939305">
  <ele>-0.117</ele>
  <time>2026-09-02T22:07:31Z</time>
  <course>186.6</course>
  <speed>0.7213875518748573</speed>
  <fix>3d</fix>
</trkpt>
<trkpt lat="33.8102569" lon="-118.3939305">
  <ele>-0.117</ele>
  <time>2026-09-02T22:07:31Z</time>
  <course>186.6</course>
  <speed>0.7213875518748573</speed>
  <fix>3d</fix>
</trkpt>
<trkpt lat="33.8102569" lon="-118.3939305">
  <ele>-0.117</ele>
  <time>2026-09-02T22:07:31Z</time>
  <course>186.6</course>
  <speed>0.7213875518748573</speed>
  <fix>3d</fix>
</trkpt>
<trkpt lat="33.8102569" lon="-118.3939306">
  <ele>-0.117</ele>
  <time>2026-09-02T22:07:31Z</time>
  <course>186.6</course>
  <speed>0.7213875518748573</speed>
  <fix>3d</fix>
</trkpt>
<trkpt lat="33.8102568" lon="-118.3939306">
  <ele>-0.117</ele>
  <time>2026-09-02T22:07:31Z</time>
  <course>186.6</course>
  <speed>0.7213875518748573</speed>
  <fix>3d</fix>
</trkpt>
<trkpt lat="33.8102568" lon="-118.3939307">
  <ele>-0.117</ele>
  <time>2026-09-02T22:07:31Z</time>
  <course>186.6</course>
  <speed>0.7213875518748573</speed>
  <fix>3d</fix>
</trkpt>
<trkpt lat="33.8102567" lon="-118.3939307">
  <ele>-0.118</ele>
  <time>2026-09-02T22:07:31Z</time>
  <course>186.6</course>
  <speed>0.7213875518748573</speed>
  <fix>3d</fix>
</trkpt>
<trkpt lat="33.8102567" lon="-118.3939308">
  <ele>-0.118</ele>
  <time>2026-09-02T22:07:31Z</time>
  <course>186.6</course>
  <speed>0.7213875518748573</speed>
  <fix>3d</fix>
</trkpt>
<trkpt lat="33.8102567" lon="-118.3939308">
  <ele>-0.118</ele>
  <time>2026-09-02T22:07:31Z</time>
  <course>186.6</course>
  <speed>0.7213875518748573</speed>
  <fix>3d</fix>
</trkpt>
<trkpt lat="33.8102566" lon="-118.3939308">
  <ele>-0.118</ele>
  <time>2026-09-02T22:07:31Z</time>
  <course>186.6</course>
  <speed>0.7213875518748573</speed>
  <fix>3d</fix>
</trkpt>
<trkpt lat="33.8102566" lon="-118.3939309">
  <ele>-0.118</ele>
  <time>2026-09-02T22:07:31Z</time>
  <course>186.6</course>
  <speed>0.7213875518748573</speed>
  <fix>3d</fix>
</trkpt>
<trkpt lat="33.8102575" lon="-118.3939294">
  <ele>-0.1</ele>
  <time>2026-09-02T22:07:31Z</time>
  <course>223.26</course>
  <speed>0.73</speed>
  <fix>3d</fix>
</trkpt>
<trkpt lat="33.8102566" lon="-118.3939309">
  <ele>-0.118</ele>
  <time>2026-09-02T22:07:31Z</time>
  <course>186.6</course>
  <speed>0.7213875518748573</speed>
  <fix>3d</fix>
</trkpt>
<trkpt lat="33.8102565" lon="-118.393931">
  <ele>-0.118</ele>
  <time>2026-09-02T22:07:31Z</time>
  <course>186.6</course>
  <speed>0.7213875518748573</speed>
  <fix>3d</fix>
</trkpt>
<trkpt lat="33.8102565" lon="-118.393931">
  <ele>-0.118</ele>
  <time>2026-09-02T22:07:31Z</time>
  <course>186.6</course>
  <speed>0.7213875518748573</speed>
  <fix>3d</fix>
</trkpt>
<trkpt lat="33.8102565" lon="-118.3939311">
  <ele>-0.118</ele>
  <time>2026-09-02T22:07:31Z</time>
  <course>186.6</course>
  <speed>0.7213875518748573</speed>
  <fix>3d</fix>
</trkpt>
<trkpt lat="33.8102564" lon="-118.3939311">
  <ele>-0.118</ele>
  <time>2026-09-02T22:07:31Z</time>
  <course>186.6</course>
  <speed>0.7213875518748573</speed>
  <fix>3d</fix>
</trkpt>
<trkpt lat="33.8102564" lon="-118.3939312">
  <ele>-0.119</ele>
  <time>2026-09-02T22:07:31Z</time>
  <course>186.6</course>
  <speed>0.7213875518748573</speed>
  <fix>3d</fix>
</trkpt>
<trkpt lat="33.8102563" lon="-118.3939312">
  <ele>-0.119</ele>
  <time>2026-09-02T22:07:31Z</time>
  <course>186.6</course>
  <speed>0.7213875518748573</speed>
  <fix>3d</fix>
</trkpt>
<trkpt lat="33.8102563" lon="-118.3939312">
  <ele>-0.119</ele>
  <time>2026-09-02T22:07:31Z</time>
  <course>186.6</course>
  <speed>0.7213875518748573</speed>
  <fix>3d</fix>
</trkpt>
<trkpt lat="33.8102563" lon="-118.3939313">
  <ele>-0.119</ele>
  <time>2026-09-02T22:07:31Z</time>
  <course>186.59</course>
  <speed>0.7213875518748573</speed>
  <fix>3d</fix>
</trkpt>
<trkpt lat="33.8102562" lon="-118.3939313">
  <ele>-0.119</ele>
  <time>2026-09-02T22:07:31Z</time>
  <course>186.59</course>
  <speed>0.7213875518748573</speed>
  <fix>3d</fix>
</trkpt>
<trkpt lat="33.8102562" lon="-118.3939314">
  <ele>-0.119</ele>
  <time>2026-09-02T22:07:31Z</time>
  <course>186.59</course>
  <speed>0.7213875518748573</speed>
  <fix>3d</fix>
</trkpt>
<trkpt lat="33.8102562" lon="-118.3939314">
  <ele>-0.119</ele>
  <time>2026-09-02T22:07:31Z</time>
  <course>186.59</course>
  <speed>0.7213875518748573</speed>
  <fix>3d</fix>
</trkpt>
<trkpt lat="33.8102561" lon="-118.3939314">
  <ele>-0.119</ele>
  <time>2026-09-02T22:07:31Z</time>
  <course>186.59</course>
  <speed>0.7213875518748573</speed>
  <fix>3d</fix>
</trkpt>
<trkpt lat="33.8102565" lon="-118.3939305">
  <ele>-0.1</ele>
  <time>2026-09-02T22:07:31Z</time>
  <course>223.26</course>
  <speed>0.73</speed>
  <fix>3d</fix>
</trkpt>
<trkpt lat="33.8102561" lon="-118.3939314">
  <ele>-0.119</ele>
  <time>2026-09-02T22:07:31Z</time>
  <course>186.59</course>
  <speed>0.7213875518748573</speed>
  <fix>3d</fix>
</trkpt>
<trkpt lat="33.8102561" lon="-118.3939315">
  <ele>-0.119</ele>
  <time>2026-09-02T22:07:31Z</time>
  <course>186.59</course>
  <speed>0.7213875518748573</speed>
  <fix>3d</fix>
</trkpt>
<trkpt lat="33.810256" lon="-118.3939315">
  <ele>-0.119</ele>
  <time>2026-09-02T22:07:31Z</time>
  <course>186.59</course>
  <speed>0.7213875518748573</speed>
  <fix>3d</fix>
</trkpt>
<trkpt lat="33.810256" lon="-118.3939316">
  <ele>-0.118</ele>
  <time>2026-09-02T22:07:31Z</time>
  <course>186.59</course>
  <speed>0.7213875518748573</speed>
  <fix>3d</fix>
</trkpt>
<trkpt lat="33.810256" lon="-118.3939316">
  <ele>-0.118</ele>
  <time>2026-09-02T22:07:31Z</time>
  <course>186.59</course>
  <speed>0.7213875518748573</speed>
  <fix>3d</fix>
</trkpt>
<trkpt lat="33.8102559" lon="-118.3939317">
  <ele>-0.118</ele>
  <time>2026-09-02T22:07:31Z</time>
  <course>186.59</course>
  <speed>0.7213875518748573</speed>
  <fix>3d</fix>
</trkpt>
<trkpt lat="33.8102559" lon="-118.3939317">
  <ele>-0.118</ele>
  <time>2026-09-02T22:07:31Z</time>
  <course>186.59</course>
  <speed>0.7213875518748573</speed>
  <fix>3d</fix>
</trkpt>
<trkpt lat="33.8102558" lon="-118.3939317">
  <ele>-0.118</ele>
  <time>2026-09-02T22:07:31Z</time>
  <course>186.59</course>
  <speed>0.7213875518748573</speed>
  <fix>3d</fix>
</trkpt>
<trkpt lat="33.8102558" lon="-118.3939318">
  <ele>-0.118</ele>
  <time>2026-09-02T22:07:31Z</time>
  <course>186.59</course>
  <speed>0.7213875518748573</speed>
  <fix>3d</fix>
</trkpt>
<trkpt lat="33.8102558" lon="-118.3939318">
  <ele>-0.118</ele>
  <time>2026-09-02T22:07:31Z</time>
  <course>186.59</course>
  <speed>0.7213875518748573</speed>
  <fix>3d</fix>
</trkpt>
<trkpt lat="33.8102557" lon="-118.3939319">
  <ele>-0.118</ele>
  <time>2026-09-02T22:07:31Z</time>
  <course>186.59</course>
  <speed>0.7213875518748573</speed>
  <fix>3d</fix>
</trkpt>
<trkpt lat="33.8102557" lon="-118.3939319">
  <ele>-0.118</ele>
  <time>2026-09-02T22:07:31Z</time>
  <course>186.59</course>
  <speed>0.7213875518748573</speed>
  <fix>3d</fix>
</trkpt>
<trkpt lat="33.8102557" lon="-118.393932">
  <ele>-0.118</ele>
  <time>2026-09-02T22:07:31Z</time>
  <course>186.59</course>
  <speed>0.7213875518748573</speed>
  <fix>3d</fix>
</trkpt>
<trkpt lat="33.8102557" lon="-118.393932">
  <ele>-0.118</ele>
  <time>2026-09-02T22:07:31Z</time>
  <course>186.59</course>
  <speed>0.7213875518748573</speed>
  <fix>3d</fix>
</trkpt>
<trkpt lat="33.8102565" lon="-118.3939305">
  <ele>-0.1</ele>
  <time>2026-09-02T22:07:31Z</time>
  <course>223.26</course>
  <speed>0.73</speed>
  <fix>3d</fix>
</trkpt>
<trkpt lat="33.8102556" lon="-118.393932">
  <ele>-0.118</ele>
  <time>2026-09-02T22:07:31Z</time>
  <course>186.59</course>
  <speed>0.7213875518748573</speed>
  <fix>3d</fix>
</trkpt>
<trkpt lat="33.8102556" lon="-118.3939321">
  <ele>-0.118</ele>
  <time>2026-09-02T22:07:31Z</time>
  <course>186.59</course>
  <speed>0.7213875518748573</speed>
  <fix>3d</fix>
</trkpt>
<trkpt lat="33.8102555" lon="-118.3939321">
  <ele>-0.118</ele>
  <time>2026-09-02T22:07:31Z</time>
  <course>186.59</course>
  <speed>0.7213875518748573</speed>
  <fix>3d</fix>
</trkpt>
<trkpt lat="33.8102555" lon="-118.3939322">
  <ele>-0.118</ele>
  <time>2026-09-02T22:07:31Z</time>
  <course>186.59</course>
  <speed>0.7213875518748573</speed>
  <fix>3d</fix>
</trkpt>
<trkpt lat="33.8102555" lon="-118.3939322">
  <ele>-0.118</ele>
  <time>2026-09-02T22:07:31Z</time>
  <course>186.59</course>
  <speed>0.7213875518748573</speed>
  <fix>3d</fix>
</trkpt>
<trkpt lat="33.8102554" lon="-118.3939322">
  <ele>-0.118</ele>
  <time>2026-09-02T22:07:31Z</time>
  <course>186.59</course>
  <speed>0.7213875518748573</speed>
  <fix>3d</fix>
</trkpt>
<trkpt lat="33.8102554" lon="-118.3939323">
  <ele>-0.118</ele>
  <time>2026-09-02T22:07:31Z</time>
  <course>186.59</course>
  <speed>0.7213875518748573</speed>
  <fix>3d</fix>
</trkpt>
<trkpt lat="33.8102553" lon="-118.3939323">
  <ele>-0.118</ele>
  <time>2026-09-02T22:07:31Z</time>
  <course>186.59</course>
  <speed>0.7213875518748573</speed>
  <fix>3d</fix>
</trkpt>
<trkpt lat="33.8102553" lon="-118.3939324">
  <ele>-0.117</ele>
  <time>2026-09-02T22:07:31Z</time>
  <course>186.59</course>
  <speed>0.7213875518748573</speed>
  <fix>3d</fix>
</trkpt>
<trkpt lat="33.8102552" lon="-118.3939324">
  <ele>-0.117</ele>
  <time>2026-09-02T22:07:31Z</time>
  <course>186.59</course>
  <speed>0.7213875518748573</speed>
  <fix>3d</fix>
</trkpt>
<trkpt lat="33.8102552" lon="-118.3939325">
  <ele>-0.117</ele>
  <time>2026-09-02T22:07:31Z</time>
  <course>186.59</course>
  <speed>0.7213875518748573</speed>
  <fix>3d</fix>
</trkpt>
<trkpt lat="33.8102552" lon="-118.3939325">
  <ele>-0.117</ele>
  <time>2026-09-02T22:07:31Z</time>
  <course>186.59</course>
  <speed>0.7213875518748573</speed>
  <fix>3d</fix>
</trkpt>
<trkpt lat="33.8102556" lon="-118.3939316">
  <ele>-0.11</ele>
  <time>2026-09-02T22:07:31Z</time>
  <course>223.26</course>
  <speed>0.73</speed>
  <fix>3d</fix>
</trkpt>
<trkpt lat="33.8102552" lon="-118.3939325">
  <ele>-0.117</ele>
  <time>2026-09-02T22:07:31Z</time>
  <course>186.59</course>
  <speed>0.7213875518748573</speed>
  <fix>3d</fix>
</trkpt>
<trkpt lat="33.8102551" lon="-118.3939326">
  <ele>-0.117</ele>
  <time>2026-09-02T22:07:31Z</time>
  <course>186.59</course>
  <speed>0.7213875518748573</speed>
  <fix>3d</fix>
</trkpt>
<trkpt lat="33.810255" lon="-118.3939327">
  <ele>-0.116</ele>
  <time>2026-09-02T22:07:31Z</time>
  <course>186.59</course>
  <speed>0.7213875518748573</speed>
  <fix>3d</fix>
</trkpt>
<trkpt lat="33.810255" lon="-118.3939327">
  <ele>-0.116</ele>
  <time>2026-09-02T22:07:31Z</time>
  <course>186.59</course>
  <speed>0.7213875518748573</speed>
  <fix>3d</fix>
</trkpt>
<trkpt lat="33.810255" lon="-118.3939327">
  <ele>-0.116</ele>
  <time>2026-09-02T22:07:31Z</time>
  <course>186.59</course>
  <speed>0.7213875518748573</speed>
  <fix>3d</fix>
</trkpt>
<trkpt lat="33.8102549" lon="-118.3939328">
  <ele>-0.116</ele>
  <time>2026-09-02T22:07:31Z</time>
  <course>186.59</course>
  <speed>0.7213875518748573</speed>
  <fix>3d</fix>
</trkpt>
<trkpt lat="33.8102549" lon="-118.3939328">
  <ele>-0.116</ele>
  <time>2026-09-02T22:07:31Z</time>
  <course>186.59</course>
  <speed>0.7213875518748573</speed>
  <fix>3d</fix>
</trkpt>
<trkpt lat="33.8102549" lon="-118.3939329">
  <ele>-0.116</ele>
  <time>2026-09-02T22:07:31Z</time>
  <course>186.59</course>
  <speed>0.7213875518748573</speed>
  <fix>3d</fix>
</trkpt>
<trkpt lat="33.8102548" lon="-118.3939329">
  <ele>-0.115</ele>
  <time>2026-09-02T22:07:31Z</time>
  <course>186.58</course>
  <speed>0.7213875518748573</speed>
  <fix>3d</fix>
</trkpt>
<trkpt lat="33.8102548" lon="-118.393933">
  <ele>-0.115</ele>
  <time>2026-09-02T22:07:31Z</time>
  <course>186.58</course>
  <speed>0.7213875518748573</speed>
  <fix>3d</fix>
</trkpt>
<trkpt lat="33.8102547" lon="-118.393933">
  <ele>-0.115</ele>
  <time>2026-09-02T22:07:31Z</time>
  <course>186.58</course>
  <speed>0.7213875518748573</speed>
  <fix>3d</fix>
</trkpt>
<trkpt lat="33.8102547" lon="-118.3939331">
  <ele>-0.115</ele>
  <time>2026-09-02T22:07:31Z</time>
  <course>186.58</course>
  <speed>0.7213875518748573</speed>
  <fix>3d</fix>
</trkpt>
<trkpt lat="33.8102556" lon="-118.3939316">
  <ele>-0.11</ele>
  <time>2026-09-02T22:07:31Z</time>
  <course>223.26</course>
  <speed>0.73</speed>
  <fix>3d</fix>
</trkpt>
<trkpt lat="33.8102547" lon="-118.3939331">
  <ele>-0.115</ele>
  <time>2026-09-02T22:07:31Z</time>
  <course>186.58</course>
  <speed>0.7213875518748573</speed>
  <fix>3d</fix>
</trkpt>
<trkpt lat="33.8102546" lon="-118.3939331">
  <ele>-0.115</ele>
  <time>2026-09-02T22:07:31Z</time>
  <course>186.58</course>
  <speed>0.7213875518748573</speed>
  <fix>3d</fix>
</trkpt>
<trkpt lat="33.8102546" lon="-118.3939332">
  <ele>-0.114</ele>
  <time>2026-09-02T22:07:31Z</time>
  <course>186.58</course>
  <speed>0.7213875518748573</speed>
  <fix>3d</fix>
</trkpt>
<trkpt lat="33.8102545" lon="-118.3939333">
  <ele>-0.114</ele>
  <time>2026-09-02T22:07:31Z</time>
  <course>186.58</course>
  <speed>0.7213875518748573</speed>
  <fix>3d</fix>
</trkpt>
<trkpt lat="33.8102545" lon="-118.3939333">
  <ele>-0.114</ele>
  <time>2026-09-02T22:07:31Z</time>
  <course>186.58</course>
  <speed>0.7213875518748573</speed>
  <fix>3d</fix>
</trkpt>
<trkpt lat="33.8102544" lon="-118.3939334">
  <ele>-0.114</ele>
  <time>2026-09-02T22:07:31Z</time>
  <course>186.58</course>
  <speed>0.7213875518748573</speed>
  <fix>3d</fix>
</trkpt>
<trkpt lat="33.8102544" lon="-118.3939334">
  <ele>-0.114</ele>
  <time>2026-09-02T22:07:31Z</time>
  <course>186.58</course>
  <speed>0.7213875518748573</speed>
  <fix>3d</fix>
</trkpt>
<trkpt lat="33.8102543" lon="-118.3939335">
  <ele>-0.113</ele>
  <time>2026-09-02T22:07:31Z</time>
  <course>186.58</course>
  <speed>0.7213875518748573</speed>
  <fix>3d</fix>
</trkpt>
<trkpt lat="33.8102543" lon="-118.3939335">
  <ele>-0.113</ele>
  <time>2026-09-02T22:07:31Z</time>
  <course>186.58</course>
  <speed>0.7213875518748573</speed>
  <fix>3d</fix>
</trkpt>
<trkpt lat="33.8102542" lon="-118.3939336">
  <ele>-0.113</ele>
  <time>2026-09-02T22:07:31Z</time>
  <course>186.58</course>
  <speed>0.7213875518748573</speed>
  <fix>3d</fix>
</trkpt>
<trkpt lat="33.8102542" lon="-118.3939336">
  <ele>-0.113</ele>
  <time>2026-09-02T22:07:31Z</time>
  <course>186.58</course>
  <speed>0.7213875518748573</speed>
  <fix>3d</fix>
</trkpt>
<trkpt lat="33.8102546" lon="-118.3939326">
  <ele>-0.1</ele>
  <time>2026-09-02T22:07:31Z</time>
  <course>223.26</course>
  <speed>0.73</speed>
  <fix>3d</fix>
</trkpt>
<trkpt lat="33.8102542" lon="-118.3939336">
  <ele>-0.113</ele>
  <time>2026-09-02T22:07:31Z</time>
  <course>186.58</course>
  <speed>0.7213875518748573</speed>
  <fix>3d</fix>
</trkpt>
<trkpt lat="33.8102541" lon="-118.3939337">
  <ele>-0.112</ele>
  <time>2026-09-02T22:07:31Z</time>
  <course>186.58</course>
  <speed>0.7213875518748573</speed>
  <fix>3d</fix>
</trkpt>
<trkpt lat="33.8102541" lon="-118.3939337">
  <ele>-0.112</ele>
  <time>2026-09-02T22:07:31Z</time>
  <course>186.58</course>
  <speed>0.7213875518748573</speed>
  <fix>3d</fix>
</trkpt>
<trkpt lat="33.810254" lon="-118.3939338">
  <ele>-0.112</ele>
  <time>2026-09-02T22:07:31Z</time>
  <course>186.58</course>
  <speed>0.7213875518748573</speed>
  <fix>3d</fix>
</trkpt>
<trkpt lat="33.810254" lon="-118.3939339">
  <ele>-0.112</ele>
  <time>2026-09-02T22:07:31Z</time>
  <course>186.58</course>
  <speed>0.7213875518748573</speed>
  <fix>3d</fix>
</trkpt>
<trkpt lat="33.8102539" lon="-118.3939339">
  <ele>-0.112</ele>
  <time>2026-09-02T22:07:31Z</time>
  <course>186.58</course>
  <speed>0.7213875518748573</speed>
  <fix>3d</fix>
</trkpt>
<trkpt lat="33.8102539" lon="-118.3939339">
  <ele>-0.112</ele>
  <time>2026-09-02T22:07:31Z</time>
  <course>186.58</course>
  <speed>0.7213875518748573</speed>
  <fix>3d</fix>
</trkpt>
<trkpt lat="33.8102539" lon="-118.393934">
  <ele>-0.112</ele>
  <time>2026-09-02T22:07:31Z</time>
  <course>186.58</course>
  <speed>0.7213875518748573</speed>
  <fix>3d</fix>
</trkpt>
<trkpt lat="33.8102538" lon="-118.393934">
  <ele>-0.112</ele>
  <time>2026-09-02T22:07:31Z</time>
  <course>186.58</course>
  <speed>0.7213875518748573</speed>
  <fix>3d</fix>
</trkpt>
<trkpt lat="33.8102538" lon="-118.3939341">
  <ele>-0.112</ele>
  <time>2026-09-02T22:07:31Z</time>
  <course>186.58</course>
  <speed>0.7213875518748573</speed>
  <fix>3d</fix>
</trkpt>
<trkpt lat="33.8102538" lon="-118.3939341">
  <ele>-0.112</ele>
  <time>2026-09-02T22:07:31Z</time>
  <course>186.58</course>
  <speed>0.7213875518748573</speed>
  <fix>3d</fix>
</trkpt>
<trkpt lat="33.8102537" lon="-118.3939342">
  <ele>-0.112</ele>
  <time>2026-09-02T22:07:31Z</time>
  <course>186.58</course>
  <speed>0.7213875518748573</speed>
  <fix>3d</fix>
</trkpt>
<trkpt lat="33.8102537" lon="-118.3939342">
  <ele>-0.112</ele>
  <time>2026-09-02T22:07:31Z</time>
  <course>186.58</course>
  <speed>0.7213875518748573</speed>
  <fix>3d</fix>
</trkpt>
<trkpt lat="33.8102546" lon="-118.3939326">
  <ele>-0.1</ele>
  <time>2026-09-02T22:07:31Z</time>
  <course>223.26</course>
  <speed>0.73</speed>
  <fix>3d</fix>
</trkpt>
<trkpt lat="33.8102537" lon="-118.3939342">
  <ele>-0.112</ele>
  <time>2026-09-02T22:07:31Z</time>
  <course>186.58</course>
  <speed>0.7213875518748573</speed>
  <fix>3d</fix>
</trkpt>
<trkpt lat="33.8102536" lon="-118.3939343">
  <ele>-0.112</ele>
  <time>2026-09-02T22:07:31Z</time>
  <course>186.58</course>
  <speed>0.7213875518748573</speed>
  <fix>3d</fix>
</trkpt>
<trkpt lat="33.8102536" lon="-118.3939343">
  <ele>-0.112</ele>
  <time>2026-09-02T22:07:31Z</time>
  <course>186.58</course>
  <speed>0.7213875518748573</speed>
  <fix>3d</fix>
</trkpt>
<trkpt lat="33.8102536" lon="-118.3939344">
  <ele>-0.112</ele>
  <time>2026-09-02T22:07:31Z</time>
  <course>186.58</course>
  <speed>0.7213875518748573</speed>
  <fix>3d</fix>
</trkpt>
<trkpt lat="33.8102535" lon="-118.3939344">
  <ele>-0.112</ele>
  <time>2026-09-02T22:07:31Z</time>
  <course>186.58</course>
  <speed>0.7213875518748573</speed>
  <fix>3d</fix>
</trkpt>
<trkpt lat="33.8102535" lon="-118.3939344">
  <ele>-0.112</ele>
  <time>2026-09-02T22:07:31Z</time>
  <course>186.58</course>
  <speed>0.7213875518748573</speed>
  <fix>3d</fix>
</trkpt>
<trkpt lat="33.8102534" lon="-118.3939345">
  <ele>-0.112</ele>
  <time>2026-09-02T22:07:31Z</time>
  <course>186.58</course>
  <speed>0.7213875518748573</speed>
  <fix>3d</fix>
</trkpt>
<trkpt lat="33.8102534" lon="-118.3939345">
  <ele>-0.112</ele>
  <time>2026-09-02T22:07:31Z</time>
  <course>186.58</course>
  <speed>0.7213875518748573</speed>
  <fix>3d</fix>
</trkpt>
<trkpt lat="33.8102534" lon="-118.3939346">
  <ele>-0.112</ele>
  <time>2026-09-02T22:07:31Z</time>
  <course>186.57</course>
  <speed>0.7213875518748573</speed>
  <fix>3d</fix>
</trkpt>
<trkpt lat="33.8102533" lon="-118.3939346">
  <ele>-0.112</ele>
  <time>2026-09-02T22:07:31Z</time>
  <course>186.57</course>
  <speed>0.7213875518748573</speed>
  <fix>3d</fix>
</trkpt>
<trkpt lat="33.8102533" lon="-118.3939347">
  <ele>-0.112</ele>
  <time>2026-09-02T22:07:31Z</time>
  <course>186.57</course>
  <speed>0.7213875518748573</speed>
  <fix>3d</fix>
</trkpt>
<trkpt lat="33.8102532" lon="-118.3939347">
  <ele>-0.112</ele>
  <time>2026-09-02T22:07:31Z</time>
  <course>186.57</course>
  <speed>0.7213875518748573</speed>
  <fix>3d</fix>
</trkpt>
<trkpt lat="33.8102536" lon="-118.3939337">
  <ele>-0.1</ele>
  <time>2026-09-02T22:07:31Z</time>
  <course>223.26</course>
  <speed>0.73</speed>
  <fix>3d</fix>
</trkpt>
<trkpt lat="33.8102532" lon="-118.3939347">
  <ele>-0.112</ele>
  <time>2026-09-02T22:07:31Z</time>
  <course>186.57</course>
  <speed>0.7213875518748573</speed>
  <fix>3d</fix>
</trkpt>
<trkpt lat="33.8102532" lon="-118.3939348">
  <ele>-0.112</ele>
  <time>2026-09-02T22:07:31Z</time>
  <course>186.57</course>
  <speed>0.7213875518748573</speed>
  <fix>3d</fix>
</trkpt>
<trkpt lat="33.8102531" lon="-118.3939348">
  <ele>-0.112</ele>
  <time>2026-09-02T22:07:31Z</time>
  <course>186.57</course>
  <speed>0.7213875518748573</speed>
  <fix>3d</fix>
</trkpt>
<trkpt lat="33.8102531" lon="-118.3939349">
  <ele>-0.112</ele>
  <time>2026-09-02T22:07:31Z</time>
  <course>186.57</course>
  <speed>0.7213875518748573</speed>
  <fix>3d</fix>
</trkpt>
<trkpt lat="33.810253" lon="-118.3939349">
  <ele>-0.112</ele>
  <time>2026-09-02T22:07:31Z</time>
  <course>186.57</course>
  <speed>0.7213875518748573</speed>
  <fix>3d</fix>
</trkpt>
<trkpt lat="33.810253" lon="-118.393935">
  <ele>-0.112</ele>
  <time>2026-09-02T22:07:31Z</time>
  <course>186.57</course>
  <speed>0.7213875518748573</speed>
  <fix>3d</fix>
</trkpt>
<trkpt lat="33.8102529" lon="-118.393935">
  <ele>-0.112</ele>
  <time>2026-09-02T22:07:31Z</time>
  <course>186.57</course>
  <speed>0.7213875518748573</speed>
  <fix>3d</fix>
</trkpt>
<trkpt lat="33.8102529" lon="-118.3939351">
  <ele>-0.112</ele>
  <time>2026-09-02T22:07:31Z</time>
  <course>186.57</course>
  <speed>0.7213875518748573</speed>
  <fix>3d</fix>
</trkpt>
<trkpt lat="33.8102529" lon="-118.3939351">
  <ele>-0.112</ele>
  <time>2026-09-02T22:07:31Z</time>
  <course>186.57</course>
  <speed>0.7213875518748573</speed>
  <fix>3d</fix>
</trkpt>
<trkpt lat="33.8102528" lon="-118.3939352">
  <ele>-0.112</ele>
  <time>2026-09-02T22:07:31Z</time>
  <course>186.57</course>
  <speed>0.7213875518748573</speed>
  <fix>3d</fix>
</trkpt>
<trkpt lat="33.8102528" lon="-118.3939352">
  <ele>-0.112</ele>
  <time>2026-09-02T22:07:31Z</time>
  <course>186.57</course>
  <speed>0.7213875518748573</speed>
  <fix>3d</fix>
</trkpt>
<trkpt lat="33.8102528" lon="-118.3939352">
  <ele>-0.112</ele>
  <time>2026-09-02T22:07:31Z</time>
  <course>186.57</course>
  <speed>0.7213875518748573</speed>
  <fix>3d</fix>
</trkpt>
<trkpt lat="33.8102536" lon="-118.3939337">
  <ele>-0.1</ele>
  <time>2026-09-02T22:07:31Z</time>
  <course>223.26</course>
  <speed>0.73</speed>
  <fix>3d</fix>
</trkpt>
<trkpt lat="33.8102528" lon="-118.3939353">
  <ele>-0.113</ele>
  <time>2026-09-02T22:07:31Z</time>
  <course>186.57</course>
  <speed>0.7213875518748573</speed>
  <fix>3d</fix>
</trkpt>
<trkpt lat="33.8102527" lon="-118.3939353">
  <ele>-0.113</ele>
  <time>2026-09-02T22:07:31Z</time>
  <course>186.57</course>
  <speed>0.7213875518748573</speed>
  <fix>3d</fix>
</trkpt>
<trkpt lat="33.8102527" lon="-118.3939354">
  <ele>-0.112</ele>
  <time>2026-09-02T22:07:31Z</time>
  <course>186.57</course>
  <speed>0.7213875518748573</speed>
  <fix>3d</fix>
</trkpt>
<trkpt lat="33.8102526" lon="-118.3939354">
  <ele>-0.113</ele>
  <time>2026-09-02T22:07:31Z</time>
  <course>186.57</course>
  <speed>0.7213875518748573</speed>
  <fix>3d</fix>
</trkpt>
<trkpt lat="33.8102526" lon="-118.3939354">
  <ele>-0.113</ele>
  <time>2026-09-02T22:07:31Z</time>
  <course>186.57</course>
  <speed>0.7213875518748573</speed>
  <fix>3d</fix>
</trkpt>
<trkpt lat="33.8102525" lon="-118.3939355">
  <ele>-0.113</ele>
  <time>2026-09-02T22:07:31Z</time>
  <course>186.57</course>
  <speed>0.7213875518748573</speed>
  <fix>3d</fix>
</trkpt>
<trkpt lat="33.8102525" lon="-118.3939355">
  <ele>-0.113</ele>
  <time>2026-09-02T22:07:31Z</time>
  <course>186.57</course>
  <speed>0.7213875518748573</speed>
  <fix>3d</fix>
</trkpt>
<trkpt lat="33.8102525" lon="-118.3939356">
  <ele>-0.113</ele>
  <time>2026-09-02T22:07:31Z</time>
  <course>186.57</course>
  <speed>0.7213875518748573</speed>
  <fix>3d</fix>
</trkpt>
<trkpt lat="33.8102524" lon="-118.3939356">
  <ele>-0.113</ele>
  <time>2026-09-02T22:07:31Z</time>
  <course>186.57</course>
  <speed>0.7213875518748573</speed>
  <fix>3d</fix>
</trkpt>
<trkpt lat="33.8102524" lon="-118.3939356">
  <ele>-0.113</ele>
  <time>2026-09-02T22:07:31Z</time>
  <course>186.57</course>
  <speed>0.7213875518748573</speed>
  <fix>3d</fix>
</trkpt>
<trkpt lat="33.8102524" lon="-118.3939357">
  <ele>-0.113</ele>
  <time>2026-09-02T22:07:31Z</time>
  <course>186.57</course>
  <speed>0.7213875518748573</speed>
  <fix>3d</fix>
</trkpt>
<trkpt lat="33.8102523" lon="-118.3939357">
  <ele>-0.113</ele>
  <time>2026-09-02T22:07:31Z</time>
  <course>186.57</course>
  <speed>0.7213875518748573</speed>
  <fix>3d</fix>
</trkpt>
<trkpt lat="33.8102523" lon="-118.3939358">
  <ele>-0.113</ele>
  <time>2026-09-02T22:07:31Z</time>
  <course>186.57</course>
  <speed>0.7213875518748573</speed>
  <fix>3d</fix>
</trkpt>
<trkpt lat="33.8102523" lon="-118.3939358">
  <ele>-0.113</ele>
  <time>2026-09-02T22:07:31Z</time>
  <course>186.57</course>
  <speed>0.7213875518748573</speed>
  <fix>3d</fix>
</trkpt>
<trkpt lat="33.8102527" lon="-118.3939348">
  <ele>-0.1</ele>
  <time>2026-09-02T22:07:31Z</time>
  <course>223.26</course>
  <speed>0.73</speed>
  <fix>3d</fix>
</trkpt>
<trkpt lat="33.8102523" lon="-118.3939358">
  <ele>-0.113</ele>
  <time>2026-09-02T22:07:31Z</time>
  <course>186.57</course>
  <speed>0.7213875518748573</speed>
  <fix>3d</fix>
</trkpt>
<trkpt lat="33.8102522" lon="-118.3939359">
  <ele>-0.113</ele>
  <time>2026-09-02T22:07:31Z</time>
  <course>186.57</course>
  <speed>0.7213875518748573</speed>
  <fix>3d</fix>
</trkpt>
<trkpt lat="33.8102521" lon="-118.3939359">
  <ele>-0.113</ele>
  <time>2026-09-02T22:07:31Z</time>
  <course>186.57</course>
  <speed>0.7213875518748573</speed>
  <fix>3d</fix>
</trkpt>
<trkpt lat="33.8102521" lon="-118.393936">
  <ele>-0.113</ele>
  <time>2026-09-02T22:07:31Z</time>
  <course>186.57</course>
  <speed>0.7213875518748573</speed>
  <fix>3d</fix>
</trkpt>
<trkpt lat="33.8102521" lon="-118.393936">
  <ele>-0.113</ele>
  <time>2026-09-02T22:07:31Z</time>
  <course>186.57</course>
  <speed>0.7213875518748573</speed>
  <fix>3d</fix>
</trkpt>
<trkpt lat="33.810252" lon="-118.3939361">
  <ele>-0.113</ele>
  <time>2026-09-02T22:07:31Z</time>
  <course>186.57</course>
  <speed>0.7213875518748573</speed>
  <fix>3d</fix>
</trkpt>
<trkpt lat="33.810252" lon="-118.3939361">
  <ele>-0.113</ele>
  <time>2026-09-02T22:07:31Z</time>
  <course>186.57</course>
  <speed>0.7213875518748573</speed>
  <fix>3d</fix>
</trkpt>
<trkpt lat="33.810252" lon="-118.3939361">
  <ele>-0.113</ele>
  <time>2026-09-02T22:07:31Z</time>
  <course>186.57</course>
  <speed>0.7213875518748573</speed>
  <fix>3d</fix>
</trkpt>
<trkpt lat="33.8102519" lon="-118.3939362">
  <ele>-0.113</ele>
  <time>2026-09-02T22:07:31Z</time>
  <course>186.57</course>
  <speed>0.7213875518748573</speed>
  <fix>3d</fix>
</trkpt>
<trkpt lat="33.8102519" lon="-118.3939362">
  <ele>-0.113</ele>
  <time>2026-09-02T22:07:31Z</time>
  <course>186.56</course>
  <speed>0.7213875518748573</speed>
  <fix>3d</fix>
</trkpt>
<trkpt lat="33.8102518" lon="-118.3939363">
  <ele>-0.113</ele>
  <time>2026-09-02T22:07:31Z</time>
  <course>186.56</course>
  <speed>0.7213875518748573</speed>
  <fix>3d</fix>
</trkpt>
<trkpt lat="33.8102518" lon="-118.3939363">
  <ele>-0.113</ele>
  <time>2026-09-02T22:07:31Z</time>
  <course>186.56</course>
  <speed>0.7213875518748573</speed>
  <fix>3d</fix>
</trkpt>
<trkpt lat="33.8102518" lon="-118.3939363">
  <ele>-0.113</ele>
  <time>2026-09-02T22:07:31Z</time>
  <course>186.56</course>
  <speed>0.7213875518748573</speed>
  <fix>3d</fix>
</trkpt>
<trkpt lat="33.8102527" lon="-118.3939348">
  <ele>-0.1</ele>
  <time>2026-09-02T22:07:31Z</time>
  <course>223.26</course>
  <speed>0.73</speed>
  <fix>3d</fix>
</trkpt>
<trkpt lat="33.8102518" lon="-118.3939363">
  <ele>-0.113</ele>
  <time>2026-09-02T22:07:31Z</time>
  <course>186.56</course>
  <speed>0.7213875518748573</speed>
  <fix>3d</fix>
</trkpt>
<trkpt lat="33.8102517" lon="-118.3939364">
  <ele>-0.113</ele>
  <time>2026-09-02T22:07:31Z</time>
  <course>186.56</course>
  <speed>0.7213875518748573</speed>
  <fix>3d</fix>
</trkpt>
<trkpt lat="33.8102517" lon="-118.3939364">
  <ele>-0.113</ele>
  <time>2026-09-02T22:07:31Z</time>
  <course>186.56</course>
  <speed>0.7213875518748573</speed>
  <fix>3d</fix>
</trkpt>
<trkpt lat="33.8102517" lon="-118.3939365">
  <ele>-0.113</ele>
  <time>2026-09-02T22:07:31Z</time>
  <course>186.56</course>
  <speed>0.7213875518748573</speed>
  <fix>3d</fix>
</trkpt>
<trkpt lat="33.8102516" lon="-118.3939365">
  <ele>-0.113</ele>
  <time>2026-09-02T22:07:31Z</time>
  <course>186.56</course>
  <speed>0.7213875518748573</speed>
  <fix>3d</fix>
</trkpt>
<trkpt lat="33.8102516" lon="-118.3939366">
  <ele>-0.113</ele>
  <time>2026-09-02T22:07:31Z</time>
  <course>186.56</course>
  <speed>0.7213875518748573</speed>
  <fix>3d</fix>
</trkpt>
<trkpt lat="33.8102516" lon="-118.3939366">
  <ele>-0.113</ele>
  <time>2026-09-02T22:07:31Z</time>
  <course>186.56</course>
  <speed>0.7213875518748573</speed>
  <fix>3d</fix>
</trkpt>
<trkpt lat="33.8102515" lon="-118.3939367">
  <ele>-0.113</ele>
  <time>2026-09-02T22:07:31Z</time>
  <course>186.56</course>
  <speed>0.7213875518748573</speed>
  <fix>3d</fix>
</trkpt>
<trkpt lat="33.8102515" lon="-118.3939367">
  <ele>-0.113</ele>
  <time>2026-09-02T22:07:31Z</time>
  <course>186.56</course>
  <speed>0.7213875518748573</speed>
  <fix>3d</fix>
</trkpt>
<trkpt lat="33.8102514" lon="-118.3939367">
  <ele>-0.113</ele>
  <time>2026-09-02T22:07:31Z</time>
  <course>186.56</course>
  <speed>0.7213875518748573</speed>
  <fix>3d</fix>
</trkpt>
<trkpt lat="33.8102514" lon="-118.3939368">
  <ele>-0.113</ele>
  <time>2026-09-02T22:07:31Z</time>
  <course>186.56</course>
  <speed>0.7213875518748573</speed>
  <fix>3d</fix>
</trkpt>
<trkpt lat="33.8102514" lon="-118.3939368">
  <ele>-0.113</ele>
  <time>2026-09-02T22:07:31Z</time>
  <course>186.56</course>
  <speed>0.7213875518748573</speed>
  <fix>3d</fix>
</trkpt>
<trkpt lat="33.8102513" lon="-118.3939369">
  <ele>-0.112</ele>
  <time>2026-09-02T22:07:31Z</time>
  <course>186.56</course>
  <speed>0.7213875518748573</speed>
  <fix>3d</fix>
</trkpt>
<trkpt lat="33.8102513" lon="-118.3939369">
  <ele>-0.112</ele>
  <time>2026-09-02T22:07:31Z</time>
  <course>186.56</course>
  <speed>0.7213875518748573</speed>
  <fix>3d</fix>
</trkpt>
<trkpt lat="33.8102517" lon="-118.3939359">
  <ele>-0.1</ele>
  <time>2026-09-02T22:07:31Z</time>
  <course>223.26</course>
  <speed>0.73</speed>
  <fix>3d</fix>
</trkpt>
<trkpt lat="33.8102513" lon="-118.3939369">
  <ele>-0.112</ele>
  <time>2026-09-02T22:07:31Z</time>
  <course>186.56</course>
  <speed>0.7213875518748573</speed>
  <fix>3d</fix>
</trkpt>
<trkpt lat="33.8102512" lon="-118.393937">
  <ele>-0.112</ele>
  <time>2026-09-02T22:07:31Z</time>
  <course>186.56</course>
  <speed>0.7213875518748573</speed>
  <fix>3d</fix>
</trkpt>
<trkpt lat="33.8102512" lon="-118.393937">
  <ele>-0.112</ele>
  <time>2026-09-02T22:07:31Z</time>
  <course>186.56</course>
  <speed>0.7213875518748573</speed>
  <fix>3d</fix>
</trkpt>
<trkpt lat="33.8102511" lon="-118.3939371">
  <ele>-0.112</ele>
  <time>2026-09-02T22:07:31Z</time>
  <course>186.56</course>
  <speed>0.7213875518748573</speed>
  <fix>3d</fix>
</trkpt>
<trkpt lat="33.8102511" lon="-118.3939371">
  <ele>-0.112</ele>
  <time>2026-09-02T22:07:31Z</time>
  <course>186.56</course>
  <speed>0.7213875518748573</speed>
  <fix>3d</fix>
</trkpt>
<trkpt lat="33.810251" lon="-118.3939372">
  <ele>-0.112</ele>
  <time>2026-09-02T22:07:31Z</time>
  <course>186.56</course>
  <speed>0.7213875518748573</speed>
  <fix>3d</fix>
</trkpt>
<trkpt lat="33.810251" lon="-118.3939372">
  <ele>-0.111</ele>
  <time>2026-09-02T22:07:31Z</time>
  <course>186.56</course>
  <speed>0.7213875518748573</speed>
  <fix>3d</fix>
</trkpt>
<trkpt lat="33.8102509" lon="-118.3939373">
  <ele>-0.111</ele>
  <time>2026-09-02T22:07:31Z</time>
  <course>186.56</course>
  <speed>0.7213875518748573</speed>
  <fix>3d</fix>
</trkpt>
<trkpt lat="33.8102509" lon="-118.3939374">
  <ele>-0.111</ele>
  <time>2026-09-02T22:07:31Z</time>
  <course>186.56</course>
  <speed>0.7213875518748573</speed>
  <fix>3d</fix>
</trkpt>
<trkpt lat="33.8102508" lon="-118.3939374">
  <ele>-0.111</ele>
  <time>2026-09-02T22:07:31Z</time>
  <course>186.56</course>
  <speed>0.7213875518748573</speed>
  <fix>3d</fix>
</trkpt>
<trkpt lat="33.8102508" lon="-118.3939374">
  <ele>-0.111</ele>
  <time>2026-09-02T22:07:31Z</time>
  <course>186.56</course>
  <speed>0.7213875518748573</speed>
  <fix>3d</fix>
</trkpt>
<trkpt lat="33.8102517" lon="-118.3939359">
  <ele>-0.1</ele>
  <time>2026-09-02T22:07:31Z</time>
  <course>223.26</course>
  <speed>0.73</speed>
  <fix>3d</fix>
</trkpt>
<trkpt lat="33.8102508" lon="-118.3939375">
  <ele>-0.111</ele>
  <time>2026-09-02T22:07:31Z</time>
  <course>186.56</course>
  <speed>0.7213875518748573</speed>
  <fix>3d</fix>
</trkpt>
<trkpt lat="33.8102507" lon="-118.3939375">
  <ele>-0.11</ele>
  <time>2026-09-02T22:07:31Z</time>
  <course>186.56</course>
  <speed>0.7213875518748573</speed>
  <fix>3d</fix>
</trkpt>
<trkpt lat="33.8102507" lon="-118.3939376">
  <ele>-0.11</ele>
  <time>2026-09-02T22:07:31Z</time>
  <course>186.56</course>
  <speed>0.7213875518748573</speed>
  <fix>3d</fix>
</trkpt>
<trkpt lat="33.8102506" lon="-118.3939377">
  <ele>-0.11</ele>
  <time>2026-09-02T22:07:31Z</time>
  <course>186.56</course>
  <speed>0.7213875518748573</speed>
  <fix>3d</fix>
</trkpt>
<trkpt lat="33.8102506" lon="-118.3939377">
  <ele>-0.11</ele>
  <time>2026-09-02T22:07:31Z</time>
  <course>186.56</course>
  <speed>0.7213875518748573</speed>
  <fix>3d</fix>
</trkpt>
<trkpt lat="33.8102505" lon="-118.3939378">
  <ele>-0.11</ele>
  <time>2026-09-02T22:07:31Z</time>
  <course>186.56</course>
  <speed>0.7213875518748573</speed>
  <fix>3d</fix>
</trkpt>
<trkpt lat="33.8102505" lon="-118.3939378">
  <ele>-0.11</ele>
  <time>2026-09-02T22:07:31Z</time>
  <course>186.56</course>
  <speed>0.7213875518748573</speed>
  <fix>3d</fix>
</trkpt>
<trkpt lat="33.8102505" lon="-118.3939378">
  <ele>-0.109</ele>
  <time>2026-09-02T22:07:31Z</time>
  <course>186.56</course>
  <speed>0.7213875518748573</speed>
  <fix>3d</fix>
</trkpt>
<trkpt lat="33.8102504" lon="-118.3939379">
  <ele>-0.109</ele>
  <time>2026-09-02T22:07:31Z</time>
  <course>186.56</course>
  <speed>0.7213875518748573</speed>
  <fix>3d</fix>
</trkpt>
<trkpt lat="33.8102504" lon="-118.3939379">
  <ele>-0.109</ele>
  <time>2026-09-02T22:07:31Z</time>
  <course>186.55</course>
  <speed>0.7213875518748573</speed>
  <fix>3d</fix>
</trkpt>
<trkpt lat="33.8102504" lon="-118.393938">
  <ele>-0.109</ele>
  <time>2026-09-02T22:07:31Z</time>
  <course>186.55</course>
  <speed>0.7213875518748573</speed>
  <fix>3d</fix>
</trkpt>
<trkpt lat="33.8102508" lon="-118.393937">
  <ele>-0.11</ele>
  <time>2026-09-02T22:07:31Z</time>
  <course>223.26</course>
  <speed>0.73</speed>
  <fix>3d</fix>
</trkpt>
<trkpt lat="33.8102503" lon="-118.393938">
  <ele>-0.109</ele>
  <time>2026-09-02T22:07:31Z</time>
  <course>186.55</course>
  <speed>0.7213875518748573</speed>
  <fix>3d</fix>
</trkpt>
<trkpt lat="33.8102503" lon="-118.393938">
  <ele>-0.109</ele>
  <time>2026-09-02T22:07:31Z</time>
  <course>186.55</course>
  <speed>0.7213875518748573</speed>
  <fix>3d</fix>
</trkpt>
<trkpt lat="33.8102502" lon="-118.3939381">
  <ele>-0.109</ele>
  <time>2026-09-02T22:07:31Z</time>
  <course>186.55</course>
  <speed>0.7213875518748573</speed>
  <fix>3d</fix>
</trkpt>
<trkpt lat="33.8102502" lon="-118.3939381">
  <ele>-0.109</ele>
  <time>2026-09-02T22:07:31Z</time>
  <course>186.55</course>
  <speed>0.7213875518748573</speed>
  <fix>3d</fix>
</trkpt>
<trkpt lat="33.8102502" lon="-118.3939382">
  <ele>-0.109</ele>
  <time>2026-09-02T22:07:31Z</time>
  <course>186.55</course>
  <speed>0.7213875518748573</speed>
  <fix>3d</fix>
</trkpt>
<trkpt lat="33.8102501" lon="-118.3939382">
  <ele>-0.108</ele>
  <time>2026-09-02T22:07:31Z</time>
  <course>186.55</course>
  <speed>0.7213875518748573</speed>
  <fix>3d</fix>
</trkpt>
<trkpt lat="33.8102501" lon="-118.3939383">
  <ele>-0.108</ele>
  <time>2026-09-02T22:07:31Z</time>
  <course>186.55</course>
  <speed>0.7213875518748573</speed>
  <fix>3d</fix>
</trkpt>
<trkpt lat="33.8102501" lon="-118.3939383">
  <ele>-0.108</ele>
  <time>2026-09-02T22:07:31Z</time>
  <course>186.55</course>
  <speed>0.7213875518748573</speed>
  <fix>3d</fix>
</trkpt>
<trkpt lat="33.81025" lon="-118.3939383">
  <ele>-0.108</ele>
  <time>2026-09-02T22:07:31Z</time>
  <course>186.55</course>
  <speed>0.7213875518748573</speed>
  <fix>3d</fix>
</trkpt>
<trkpt lat="33.81025" lon="-118.3939384">
  <ele>-0.108</ele>
  <time>2026-09-02T22:07:31Z</time>
  <course>186.55</course>
  <speed>0.7213875518748573</speed>
  <fix>3d</fix>
</trkpt>
<trkpt lat="33.8102499" lon="-118.3939384">
  <ele>-0.108</ele>
  <time>2026-09-02T22:07:31Z</time>
  <course>186.55</course>
  <speed>0.7213875518748573</speed>
  <fix>3d</fix>
</trkpt>
<trkpt lat="33.8102499" lon="-118.3939385">
  <ele>-0.108</ele>
  <time>2026-09-02T22:07:31Z</time>
  <course>186.55</course>
  <speed>0.7213875518748573</speed>
  <fix>3d</fix>
</trkpt>
<trkpt lat="33.8102508" lon="-118.393937">
  <ele>-0.11</ele>
  <time>2026-09-02T22:07:31Z</time>
  <course>223.26</course>
  <speed>0.73</speed>
  <fix>3d</fix>
</trkpt>
<trkpt lat="33.8102499" lon="-118.3939385">
  <ele>-0.108</ele>
  <time>2026-09-02T22:07:31Z</time>
  <course>186.55</course>
  <speed>0.7213875518748573</speed>
  <fix>3d</fix>
</trkpt>
<trkpt lat="33.8102498" lon="-118.3939386">
  <ele>-0.108</ele>
  <time>2026-09-02T22:07:31Z</time>
  <course>186.55</course>
  <speed>0.7213875518748573</speed>
  <fix>3d</fix>
</trkpt>
<trkpt lat="33.8102497" lon="-118.3939387">
  <ele>-0.108</ele>
  <time>2026-09-02T22:07:31Z</time>
  <course>186.55</course>
  <speed>0.7213875518748573</speed>
  <fix>3d</fix>
</trkpt>
<trkpt lat="33.8102497" lon="-118.3939387">
  <ele>-0.108</ele>
  <time>2026-09-02T22:07:31Z</time>
  <course>186.55</course>
  <speed>0.7213875518748573</speed>
  <fix>3d</fix>
</trkpt>
<trkpt lat="33.8102496" lon="-118.3939388">
  <ele>-0.108</ele>
  <time>2026-09-02T22:07:31Z</time>
  <course>186.55</course>
  <speed>0.7213875518748573</speed>
  <fix>3d</fix>
</trkpt>
<trkpt lat="33.8102496" lon="-118.3939388">
  <ele>-0.108</ele>
  <time>2026-09-02T22:07:31Z</time>
  <course>186.55</course>
  <speed>0.7213875518748573</speed>
  <fix>3d</fix>
</trkpt>
<trkpt lat="33.8102495" lon="-118.3939389">
  <ele>-0.108</ele>
  <time>2026-09-02T22:07:31Z</time>
  <course>186.55</course>
  <speed>0.7213875518748573</speed>
  <fix>3d</fix>
</trkpt>
<trkpt lat="33.8102495" lon="-118.3939389">
  <ele>-0.108</ele>
  <time>2026-09-02T22:07:31Z</time>
  <course>186.55</course>
  <speed>0.7213875518748573</speed>
  <fix>3d</fix>
</trkpt>
<trkpt lat="33.8102495" lon="-118.393939">
  <ele>-0.108</ele>
  <time>2026-09-02T22:07:31Z</time>
  <course>186.55</course>
  <speed>0.7213875518748573</speed>
  <fix>3d</fix>
</trkpt>
<trkpt lat="33.8102494" lon="-118.393939">
  <ele>-0.108</ele>
  <time>2026-09-02T22:07:31Z</time>
  <course>186.55</course>
  <speed>0.7213875518748573</speed>
  <fix>3d</fix>
</trkpt>
<trkpt lat="33.8102494" lon="-118.393939">
  <ele>-0.108</ele>
  <time>2026-09-02T22:07:31Z</time>
  <course>186.55</course>
  <speed>0.7213875518748573</speed>
  <fix>3d</fix>
</trkpt>
<trkpt lat="33.8102497" lon="-118.3939381">
  <ele>-0.1</ele>
  <time>2026-09-02T22:07:31Z</time>
  <course>223.26</course>
  <speed>0.73</speed>
  <fix>3d</fix>
</trkpt>
<trkpt lat="33.8102493" lon="-118.3939391">
  <ele>-0.108</ele>
  <time>2026-09-02T22:07:31Z</time>
  <course>186.55</course>
  <speed>0.7213875518748573</speed>
  <fix>3d</fix>
</trkpt>
<trkpt lat="33.8102493" lon="-118.3939392">
  <ele>-0.108</ele>
  <time>2026-09-02T22:07:31Z</time>
  <course>186.55</course>
  <speed>0.7213875518748573</speed>
  <fix>3d</fix>
</trkpt>
<trkpt lat="33.8102492" lon="-118.3939392">
  <ele>-0.108</ele>
  <time>2026-09-02T22:07:31Z</time>
  <course>186.55</course>
  <speed>0.7213875518748573</speed>
  <fix>3d</fix>
</trkpt>
<trkpt lat="33.8102492" lon="-118.3939393">
  <ele>-0.108</ele>
  <time>2026-09-02T22:07:31Z</time>
  <course>186.55</course>
  <speed>0.7213875518748573</speed>
  <fix>3d</fix>
</trkpt>
<trkpt lat="33.8102492" lon="-118.3939393">
  <ele>-0.109</ele>
  <time>2026-09-02T22:07:31Z</time>
  <course>186.55</course>
  <speed>0.7213875518748573</speed>
  <fix>3d</fix>
</trkpt>
<trkpt lat="33.8102491" lon="-118.3939393">
  <ele>-0.109</ele>
  <time>2026-09-02T22:07:31Z</time>
  <course>186.55</course>
  <speed>0.7213875518748573</speed>
  <fix>3d</fix>
</trkpt>
<trkpt lat="33.8102491" lon="-118.3939394">
  <ele>-0.109</ele>
  <time>2026-09-02T22:07:31Z</time>
  <course>186.55</course>
  <speed>0.7213875518748573</speed>
  <fix>3d</fix>
</trkpt>
<trkpt lat="33.810249" lon="-118.3939394">
  <ele>-0.109</ele>
  <time>2026-09-02T22:07:31Z</time>
  <course>186.55</course>
  <speed>0.7213875518748573</speed>
  <fix>3d</fix>
</trkpt>
<trkpt lat="33.810249" lon="-118.3939395">
  <ele>-0.109</ele>
  <time>2026-09-02T22:07:31Z</time>
  <course>186.55</course>
  <speed>0.7213875518748573</speed>
  <fix>3d</fix>
</trkpt>
<trkpt lat="33.810249" lon="-118.3939395">
  <ele>-0.109</ele>
  <time>2026-09-02T22:07:31Z</time>
  <course>186.55</course>
  <speed>0.7213875518748573</speed>
  <fix>3d</fix>
</trkpt>
<trkpt lat="33.8102489" lon="-118.3939395">
  <ele>-0.109</ele>
  <time>2026-09-02T22:07:31Z</time>
  <course>186.55</course>
  <speed>0.7213875518748573</speed>
  <fix>3d</fix>
</trkpt>
<trkpt lat="33.8102489" lon="-118.3939396">
  <ele>-0.109</ele>
  <time>2026-09-02T22:07:31Z</time>
  <course>186.55</course>
  <speed>0.7213875518748573</speed>
  <fix>3d</fix>
</trkpt>
<trkpt lat="33.8102497" lon="-118.3939381">
  <ele>-0.1</ele>
  <time>2026-09-02T22:07:31Z</time>
  <course>223.26</course>
  <speed>0.73</speed>
  <fix>3d</fix>
</trkpt>
<trkpt lat="33.8102489" lon="-118.3939396">
  <ele>-0.109</ele>
  <time>2026-09-02T22:07:31Z</time>
  <course>186.55</course>
  <speed>0.7213875518748573</speed>
  <fix>3d</fix>
</trkpt>
<trkpt lat="33.8102488" lon="-118.3939397">
  <ele>-0.109</ele>
  <time>2026-09-02T22:07:31Z</time>
  <course>186.54</course>
  <speed>0.7213875518748573</speed>
  <fix>3d</fix>
</trkpt>
<trkpt lat="33.8102488" lon="-118.3939397">
  <ele>-0.109</ele>
  <time>2026-09-02T22:07:31Z</time>
  <course>186.54</course>
  <speed>0.7213875518748573</speed>
  <fix>3d</fix>
</trkpt>
<trkpt lat="33.8102487" lon="-118.3939398">
  <ele>-0.109</ele>
  <time>2026-09-02T22:07:31Z</time>
  <course>186.54</course>
  <speed>0.7213875518748573</speed>
  <fix>3d</fix>
</trkpt>
<trkpt lat="33.8102487" lon="-118.3939398">
  <ele>-0.11</ele>
  <time>2026-09-02T22:07:31Z</time>
  <course>186.54</course>
  <speed>0.7213875518748573</speed>
  <fix>3d</fix>
</trkpt>
<trkpt lat="33.8102487" lon="-118.3939399">
  <ele>-0.11</ele>
  <time>2026-09-02T22:07:31Z</time>
  <course>186.54</course>
  <speed>0.7213875518748573</speed>
  <fix>3d</fix>
</trkpt>
<trkpt lat="33.8102486" lon="-118.3939399">
  <ele>-0.11</ele>
  <time>2026-09-02T22:07:31Z</time>
  <course>186.54</course>
  <speed>0.7213875518748573</speed>
  <fix>3d</fix>
</trkpt>
<trkpt lat="33.8102486" lon="-118.3939399">
  <ele>-0.11</ele>
  <time>2026-09-02T22:07:31Z</time>
  <course>186.54</course>
  <speed>0.7213875518748573</speed>
  <fix>3d</fix>
</trkpt>
<trkpt lat="33.8102486" lon="-118.39394">
  <ele>-0.11</ele>
  <time>2026-09-02T22:07:31Z</time>
  <course>186.54</course>
  <speed>0.7213875518748573</speed>
  <fix>3d</fix>
</trkpt>
<trkpt lat="33.8102485" lon="-118.39394">
  <ele>-0.11</ele>
  <time>2026-09-02T22:07:31Z</time>
  <course>186.54</course>
  <speed>0.7213875518748573</speed>
  <fix>3d</fix>
</trkpt>
<trkpt lat="33.8102485" lon="-118.3939401">
  <ele>-0.11</ele>
  <time>2026-09-02T22:07:31Z</time>
  <course>186.54</course>
  <speed>0.7213875518748573</speed>
  <fix>3d</fix>
</trkpt>
<trkpt lat="33.8102485" lon="-118.3939401">
  <ele>-0.11</ele>
  <time>2026-09-02T22:07:31Z</time>
  <course>186.54</course>
  <speed>0.7213875518748573</speed>
  <fix>3d</fix>
</trkpt>
<trkpt lat="33.8102484" lon="-118.3939401">
  <ele>-0.11</ele>
  <time>2026-09-02T22:07:31Z</time>
  <course>186.54</course>
  <speed>0.7213875518748573</speed>
  <fix>3d</fix>
</trkpt>
<trkpt lat="33.8102484" lon="-118.3939401">
  <ele>-0.11</ele>
  <time>2026-09-02T22:07:31Z</time>
  <course>186.54</course>
  <speed>0.7213875518748573</speed>
  <fix>3d</fix>
</trkpt>
<trkpt lat="33.8102488" lon="-118.3939392">
  <ele>-0.1</ele>
  <time>2026-09-02T22:07:31Z</time>
  <course>223.26</course>
  <speed>0.73</speed>
  <fix>3d</fix>
</trkpt>
<trkpt lat="33.8102483" lon="-118.3939402">
  <ele>-0.11</ele>
  <time>2026-09-02T22:07:31Z</time>
  <course>186.54</course>
  <speed>0.7213875518748573</speed>
  <fix>3d</fix>
</trkpt>
<trkpt lat="33.8102483" lon="-118.3939403">
  <ele>-0.11</ele>
  <time>2026-09-02T22:07:31Z</time>
  <course>186.54</course>
  <speed>0.7213875518748573</speed>
  <fix>3d</fix>
</trkpt>
<trkpt lat="33.8102483" lon="-118.3939403">
  <ele>-0.111</ele>
  <time>2026-09-02T22:07:31Z</time>
  <course>186.54</course>
  <speed>0.7213875518748573</speed>
  <fix>3d</fix>
</trkpt>
<trkpt lat="33.8102482" lon="-118.3939403">
  <ele>-0.111</ele>
  <time>2026-09-02T22:07:31Z</time>
  <course>186.54</course>
  <speed>0.7213875518748573</speed>
  <fix>3d</fix>
</trkpt>
<trkpt lat="33.8102482" lon="-118.3939404">
  <ele>-0.111</ele>
  <time>2026-09-02T22:07:31Z</time>
  <course>186.54</course>
  <speed>0.7213875518748573</speed>
  <fix>3d</fix>
</trkpt>
<trkpt lat="33.8102482" lon="-118.3939404">
  <ele>-0.111</ele>
  <time>2026-09-02T22:07:31Z</time>
  <course>186.54</course>
  <speed>0.7213875518748573</speed>
  <fix>3d</fix>
</trkpt>
<trkpt lat="33.8102481" lon="-118.3939405">
  <ele>-0.111</ele>
  <time>2026-09-02T22:07:31Z</time>
  <course>186.54</course>
  <speed>0.7213875518748573</speed>
  <fix>3d</fix>
</trkpt>
<trkpt lat="33.8102481" lon="-118.3939405">
  <ele>-0.111</ele>
  <time>2026-09-02T22:07:31Z</time>
  <course>186.54</course>
  <speed>0.7213875518748573</speed>
  <fix>3d</fix>
</trkpt>
<trkpt lat="33.8102481" lon="-118.3939405">
  <ele>-0.111</ele>
  <time>2026-09-02T22:07:31Z</time>
  <course>186.54</course>
  <speed>0.7213875518748573</speed>
  <fix>3d</fix>
</trkpt>
<trkpt lat="33.810248" lon="-118.3939406">
  <ele>-0.111</ele>
  <time>2026-09-02T22:07:31Z</time>
  <course>186.54</course>
  <speed>0.7213875518748573</speed>
  <fix>3d</fix>
</trkpt>
<trkpt lat="33.810248" lon="-118.3939406">
  <ele>-0.111</ele>
  <time>2026-09-02T22:07:31Z</time>
  <course>186.54</course>
  <speed>0.7213875518748573</speed>
  <fix>3d</fix>
</trkpt>
<trkpt lat="33.8102479" lon="-118.3939407">
  <ele>-0.112</ele>
  <time>2026-09-02T22:07:31Z</time>
  <course>186.54</course>
  <speed>0.7213875518748573</speed>
  <fix>3d</fix>
</trkpt>
<trkpt lat="33.8102479" lon="-118.3939407">
  <ele>-0.112</ele>
  <time>2026-09-02T22:07:31Z</time>
  <course>186.54</course>
  <speed>0.7213875518748573</speed>
  <fix>3d</fix>
</trkpt>
<trkpt lat="33.8102488" lon="-118.3939392">
  <ele>-0.1</ele>
  <time>2026-09-02T22:07:31Z</time>
  <course>223.26</course>
  <speed>0.73</speed>
  <fix>3d</fix>
</trkpt>
<trkpt lat="33.8102479" lon="-118.3939408">
  <ele>-0.112</ele>
  <time>2026-09-02T22:07:31Z</time>
  <course>186.54</course>
  <speed>0.7213875518748573</speed>
  <fix>3d</fix>
</trkpt>
<trkpt lat="33.8102478" lon="-118.3939408">
  <ele>-0.112</ele>
  <time>2026-09-02T22:07:31Z</time>
  <course>186.54</course>
  <speed>0.7213875518748573</speed>
  <fix>3d</fix>
</trkpt>
<trkpt lat="33.8102478" lon="-118.3939408">
  <ele>-0.112</ele>
  <time>2026-09-02T22:07:31Z</time>
  <course>186.54</course>
  <speed>0.7213875518748573</speed>
  <fix>3d</fix>
</trkpt>
<trkpt lat="33.8102478" lon="-118.3939409">
  <ele>-0.112</ele>
  <time>2026-09-02T22:07:31Z</time>
  <course>186.54</course>
  <speed>0.7213875518748573</speed>
  <fix>3d</fix>
</trkpt>
<trkpt lat="33.8102477" lon="-118.3939409">
  <ele>-0.112</ele>
  <time>2026-09-02T22:07:31Z</time>
  <course>186.54</course>
  <speed>0.7213875518748573</speed>
  <fix>3d</fix>
</trkpt>
<trkpt lat="33.8102477" lon="-118.393941">
  <ele>-0.112</ele>
  <time>2026-09-02T22:07:31Z</time>
  <course>186.54</course>
  <speed>0.7213875518748573</speed>
  <fix>3d</fix>
</trkpt>
<trkpt lat="33.8102476" lon="-118.393941">
  <ele>-0.113</ele>
  <time>2026-09-02T22:07:31Z</time>
  <course>186.54</course>
  <speed>0.7213875518748573</speed>
  <fix>3d</fix>
</trkpt>
<trkpt lat="33.8102476" lon="-118.393941">
  <ele>-0.113</ele>
  <time>2026-09-02T22:07:31Z</time>
  <course>186.54</course>
  <speed>0.7213875518748573</speed>
  <fix>3d</fix>
</trkpt>
<trkpt lat="33.8102476" lon="-118.3939411">
  <ele>-0.113</ele>
  <time>2026-09-02T22:07:31Z</time>
  <course>186.54</course>
  <speed>0.7213875518748573</speed>
  <fix>3d</fix>
</trkpt>
<trkpt lat="33.8102475" lon="-118.3939411">
  <ele>-0.113</ele>
  <time>2026-09-02T22:07:31Z</time>
  <course>186.54</course>
  <speed>0.7213875518748573</speed>
  <fix>3d</fix>
</trkpt>
<trkpt lat="33.8102475" lon="-118.3939412">
  <ele>-0.113</ele>
  <time>2026-09-02T22:07:31Z</time>
  <course>186.54</course>
  <speed>0.7213875518748573</speed>
  <fix>3d</fix>
</trkpt>
<trkpt lat="33.8102475" lon="-118.3939412">
  <ele>-0.113</ele>
  <time>2026-09-02T22:07:31Z</time>
  <course>186.54</course>
  <speed>0.7213875518748573</speed>
  <fix>3d</fix>
</trkpt>
<trkpt lat="33.8102475" lon="-118.3939412">
  <ele>-0.114</ele>
  <time>2026-09-02T22:07:31Z</time>
  <course>186.54</course>
  <speed>0.7213875518748573</speed>
  <fix>3d</fix>
</trkpt>
<trkpt lat="33.8102479" lon="-118.3939403">
  <ele>-0.1</ele>
  <time>2026-09-02T22:07:31Z</time>
  <course>223.26</course>
  <speed>0.73</speed>
  <fix>3d</fix>
</trkpt>
<trkpt lat="33.8102474" lon="-118.3939412">
  <ele>-0.114</ele>
  <time>2026-09-02T22:07:31Z</time>
  <course>186.54</course>
  <speed>0.7213875518748573</speed>
  <fix>3d</fix>
</trkpt>
<trkpt lat="33.8102474" lon="-118.3939413">
  <ele>-0.114</ele>
  <time>2026-09-02T22:07:31Z</time>
  <course>186.53</course>
  <speed>0.7213875518748573</speed>
  <fix>3d</fix>
</trkpt>
<trkpt lat="33.8102473" lon="-118.3939414">
  <ele>-0.114</ele>
  <time>2026-09-02T22:07:31Z</time>
  <course>186.53</course>
  <speed>0.7213875518748573</speed>
  <fix>3d</fix>
</trkpt>
<trkpt lat="33.8102473" lon="-118.3939414">
  <ele>-0.114</ele>
  <time>2026-09-02T22:07:31Z</time>
  <course>186.53</course>
  <speed>0.7213875518748573</speed>
  <fix>3d</fix>
</trkpt>
<trkpt lat="33.8102472" lon="-118.3939415">
  <ele>-0.115</ele>
  <time>2026-09-02T22:07:31Z</time>
  <course>186.53</course>
  <speed>0.7213875518748573</speed>
  <fix>3d</fix>
</trkpt>
<trkpt lat="33.8102472" lon="-118.3939416">
  <ele>-0.115</ele>
  <time>2026-09-02T22:07:31Z</time>
  <course>186.53</course>
  <speed>0.7213875518748573</speed>
  <fix>3d</fix>
</trkpt>
<trkpt lat="33.8102471" lon="-118.3939416">
  <ele>-0.115</ele>
  <time>2026-09-02T22:07:31Z</time>
  <course>186.53</course>
  <speed>0.7213875518748573</speed>
  <fix>3d</fix>
</trkpt>
<trkpt lat="33.8102471" lon="-118.3939417">
  <ele>-0.115</ele>
  <time>2026-09-02T22:07:31Z</time>
  <course>186.53</course>
  <speed>0.7213875518748573</speed>
  <fix>3d</fix>
</trkpt>
<trkpt lat="33.810247" lon="-118.3939417">
  <ele>-0.115</ele>
  <time>2026-09-02T22:07:31Z</time>
  <course>186.53</course>
  <speed>0.7213875518748573</speed>
  <fix>3d</fix>
</trkpt>
<trkpt lat="33.810247" lon="-118.3939418">
  <ele>-0.115</ele>
  <time>2026-09-02T22:07:31Z</time>
  <course>186.53</course>
  <speed>0.7213875518748573</speed>
  <fix>3d</fix>
</trkpt>
<trkpt lat="33.810247" lon="-118.3939418">
  <ele>-0.115</ele>
  <time>2026-09-02T22:07:31Z</time>
  <course>186.53</course>
  <speed>0.7213875518748573</speed>
  <fix>3d</fix>
</trkpt>
<trkpt lat="33.8102479" lon="-118.3939403">
  <ele>-0.1</ele>
  <time>2026-09-02T22:07:31Z</time>
  <course>223.26</course>
  <speed>0.73</speed>
  <fix>3d</fix>
</trkpt>
<trkpt lat="33.8102469" lon="-118.3939419">
  <ele>-0.115</ele>
  <time>2026-09-02T22:07:31Z</time>
  <course>186.53</course>
  <speed>0.7213875518748573</speed>
  <fix>3d</fix>
</trkpt>
<trkpt lat="33.8102468" lon="-118.3939419">
  <ele>-0.115</ele>
  <time>2026-09-02T22:07:31Z</time>
  <course>186.53</course>
  <speed>0.7213875518748573</speed>
  <fix>3d</fix>
</trkpt>
<trkpt lat="33.8102468" lon="-118.393942">
  <ele>-0.115</ele>
  <time>2026-09-02T22:07:31Z</time>
  <course>186.53</course>
  <speed>0.7213875518748573</speed>
  <fix>3d</fix>
</trkpt>
<trkpt lat="33.8102467" lon="-118.3939421">
  <ele>-0.115</ele>
  <time>2026-09-02T22:07:31Z</time>
  <course>186.53</course>
  <speed>0.7213875518748573</speed>
  <fix>3d</fix>
</trkpt>
<trkpt lat="33.8102467" lon="-118.3939421">
  <ele>-0.116</ele>
  <time>2026-09-02T22:07:31Z</time>
  <course>186.53</course>
  <speed>0.7213875518748573</speed>
  <fix>3d</fix>
</trkpt>
<trkpt lat="33.8102466" lon="-118.3939422">
  <ele>-0.116</ele>
  <time>2026-09-02T22:07:31Z</time>
  <course>186.53</course>
  <speed>0.7213875518748573</speed>
  <fix>3d</fix>
</trkpt>
<trkpt lat="33.8102466" lon="-118.3939422">
  <ele>-0.116</ele>
  <time>2026-09-02T22:07:31Z</time>
  <course>186.53</course>
  <speed>0.7213875518748573</speed>
  <fix>3d</fix>
</trkpt>
<trkpt lat="33.8102465" lon="-118.3939423">
  <ele>-0.116</ele>
  <time>2026-09-02T22:07:31Z</time>
  <course>186.53</course>
  <speed>0.7213875518748573</speed>
  <fix>3d</fix>
</trkpt>
<trkpt lat="33.8102465" lon="-118.3939423">
  <ele>-0.116</ele>
  <time>2026-09-02T22:07:31Z</time>
  <course>186.53</course>
  <speed>0.7213875518748573</speed>
  <fix>3d</fix>
</trkpt>
<trkpt lat="33.8102465" lon="-118.3939423">
  <ele>-0.116</ele>
  <time>2026-09-02T22:07:31Z</time>
  <course>186.53</course>
  <speed>0.7213875518748573</speed>
  <fix>3d</fix>
</trkpt>
<trkpt lat="33.8102469" lon="-118.3939414">
  <ele>-0.1</ele>
  <time>2026-09-02T22:07:31Z</time>
  <course>223.26</course>
  <speed>0.73</speed>
  <fix>3d</fix>
</trkpt>
<trkpt lat="33.8102464" lon="-118.3939424">
  <ele>-0.116</ele>
  <time>2026-09-02T22:07:31Z</time>
  <course>186.53</course>
  <speed>0.7213875518748573</speed>
  <fix>3d</fix>
</trkpt>
<trkpt lat="33.8102463" lon="-118.3939425">
  <ele>-0.116</ele>
  <time>2026-09-02T22:07:31Z</time>
  <course>186.53</course>
  <speed>0.7213875518748573</speed>
  <fix>3d</fix>
</trkpt>
<trkpt lat="33.8102463" lon="-118.3939425">
  <ele>-0.116</ele>
  <time>2026-09-02T22:07:31Z</time>
  <course>186.53</course>
  <speed>0.7213875518748573</speed>
  <fix>3d</fix>
</trkpt>
<trkpt lat="33.8102462" lon="-118.3939426">
  <ele>-0.116</ele>
  <time>2026-09-02T22:07:31Z</time>
  <course>186.53</course>
  <speed>0.7213875518748573</speed>
  <fix>3d</fix>
</trkpt>
<trkpt lat="33.8102462" lon="-118.3939426">
  <ele>-0.116</ele>
  <time>2026-09-02T22:07:31Z</time>
  <course>186.53</course>
  <speed>0.7213875518748573</speed>
  <fix>3d</fix>
</trkpt>
<trkpt lat="33.8102462" lon="-118.3939427">
  <ele>-0.116</ele>
  <time>2026-09-02T22:07:31Z</time>
  <course>186.53</course>
  <speed>0.7213875518748573</speed>
  <fix>3d</fix>
</trkpt>
<trkpt lat="33.8102461" lon="-118.3939427">
  <ele>-0.115</ele>
  <time>2026-09-02T22:07:31Z</time>
  <course>186.53</course>
  <speed>0.7213875518748573</speed>
  <fix>3d</fix>
</trkpt>
<trkpt lat="33.8102461" lon="-118.3939428">
  <ele>-0.115</ele>
  <time>2026-09-02T22:07:31Z</time>
  <course>186.53</course>
  <speed>0.7213875518748573</speed>
  <fix>3d</fix>
</trkpt>
<trkpt lat="33.8102461" lon="-118.3939428">
  <ele>-0.115</ele>
  <time>2026-09-02T22:07:31Z</time>
  <course>186.53</course>
  <speed>0.7213875518748573</speed>
  <fix>3d</fix>
</trkpt>
<trkpt lat="33.810246" lon="-118.3939429">
  <ele>-0.115</ele>
  <time>2026-09-02T22:07:31Z</time>
  <course>186.53</course>
  <speed>0.7213875518748573</speed>
  <fix>3d</fix>
</trkpt>
<trkpt lat="33.8102469" lon="-118.3939414">
  <ele>-0.1</ele>
  <time>2026-09-02T22:07:31Z</time>
  <course>223.26</course>
  <speed>0.73</speed>
  <fix>3d</fix>
</trkpt>
<trkpt lat="33.810246" lon="-118.3939429">
  <ele>-0.115</ele>
  <time>2026-09-02T22:07:31Z</time>
  <course>186.53</course>
  <speed>0.7213875518748573</speed>
  <fix>3d</fix>
</trkpt>
<trkpt lat="33.8102459" lon="-118.3939429">
  <ele>-0.115</ele>
  <time>2026-09-02T22:07:31Z</time>
  <course>186.53</course>
  <speed>0.7213875518748573</speed>
  <fix>3d</fix>
</trkpt>
<trkpt lat="33.8102459" lon="-118.393943">
  <ele>-0.115</ele>
  <time>2026-09-02T22:07:31Z</time>
  <course>186.53</course>
  <speed>0.7213875518748573</speed>
  <fix>3d</fix>
</trkpt>
<trkpt lat="33.8102459" lon="-118.393943">
  <ele>-0.115</ele>
  <time>2026-09-02T22:07:31Z</time>
  <course>186.53</course>
  <speed>0.7213875518748573</speed>
  <fix>3d</fix>
</trkpt>
<trkpt lat="33.8102458" lon="-118.3939431">
  <ele>-0.115</ele>
  <time>2026-09-02T22:07:31Z</time>
  <course>186.53</course>
  <speed>0.7213875518748573</speed>
  <fix>3d</fix>
</trkpt>
<trkpt lat="33.8102458" lon="-118.3939431">
  <ele>-0.114</ele>
  <time>2026-09-02T22:07:31Z</time>
  <course>186.53</course>
  <speed>0.7213875518748573</speed>
  <fix>3d</fix>
</trkpt>
<trkpt lat="33.8102458" lon="-118.3939431">
  <ele>-0.114</ele>
  <time>2026-09-02T22:07:31Z</time>
  <course>186.53</course>
  <speed>0.7213875518748573</speed>
  <fix>3d</fix>
</trkpt>
<trkpt lat="33.8102457" lon="-118.3939432">
  <ele>-0.114</ele>
  <time>2026-09-02T22:07:31Z</time>
  <course>186.53</course>
  <speed>0.7213875518748573</speed>
  <fix>3d</fix>
</trkpt>
<trkpt lat="33.8102457" lon="-118.3939432">
  <ele>-0.114</ele>
  <time>2026-09-02T22:07:31Z</time>
  <course>186.53</course>
  <speed>0.7213875518748573</speed>
  <fix>3d</fix>
</trkpt>
<trkpt lat="33.8102457" lon="-118.3939433">
  <ele>-0.114</ele>
  <time>2026-09-02T22:07:31Z</time>
  <course>186.52</course>
  <speed>0.7213875518748573</speed>
  <fix>3d</fix>
</trkpt>
<trkpt lat="33.8102456" lon="-118.3939433">
  <ele>-0.114</ele>
  <time>2026-09-02T22:07:31Z</time>
  <course>186.52</course>
  <speed>0.7213875518748573</speed>
  <fix>3d</fix>
</trkpt>
<trkpt lat="33.8102456" lon="-118.3939433">
  <ele>-0.114</ele>
  <time>2026-09-02T22:07:31Z</time>
  <course>186.52</course>
  <speed>0.7213875518748573</speed>
  <fix>3d</fix>
</trkpt>
<trkpt lat="33.8102456" lon="-118.3939434">
  <ele>-0.113</ele>
  <time>2026-09-02T22:07:31Z</time>
  <course>186.52</course>
  <speed>0.7213875518748573</speed>
  <fix>3d</fix>
</trkpt>
<trkpt lat="33.8102455" lon="-118.3939434">
  <ele>-0.113</ele>
  <time>2026-09-02T22:07:31Z</time>
  <course>186.52</course>
  <speed>0.7213875518748573</speed>
  <fix>3d</fix>
</trkpt>
<trkpt lat="33.810246" lon="-118.3939425">
  <ele>-0.11</ele>
  <time>2026-09-02T22:07:31Z</time>
  <course>223.26</course>
  <speed>0.73</speed>
  <fix>3d</fix>
</trkpt>
<trkpt lat="33.8102455" lon="-118.3939434">
  <ele>-0.113</ele>
  <time>2026-09-02T22:07:31Z</time>
  <course>186.52</course>
  <speed>0.7213875518748573</speed>
  <fix>3d</fix>
</trkpt>
<trkpt lat="33.8102455" lon="-118.3939435">
  <ele>-0.113</ele>
  <time>2026-09-02T22:07:31Z</time>
  <course>186.52</course>
  <speed>0.7213875518748573</speed>
  <fix>3d</fix>
</trkpt>
<trkpt lat="33.8102454" lon="-118.3939435">
  <ele>-0.113</ele>
  <time>2026-09-02T22:07:31Z</time>
  <course>186.52</course>
  <speed>0.7213875518748573</speed>
  <fix>3d</fix>
</trkpt>
<trkpt lat="33.8102454" lon="-118.3939436">
  <ele>-0.113</ele>
  <time>2026-09-02T22:07:31Z</time>
  <course>186.52</course>
  <speed>0.7213875518748573</speed>
  <fix>3d</fix>
</trkpt>
<trkpt lat="33.8102453" lon="-118.3939436">
  <ele>-0.112</ele>
  <time>2026-09-02T22:07:31Z</time>
  <course>186.52</course>
  <speed>0.7213875518748573</speed>
  <fix>3d</fix>
</trkpt>
<trkpt lat="33.8102453" lon="-118.3939437">
  <ele>-0.112</ele>
  <time>2026-09-02T22:07:31Z</time>
  <course>186.52</course>
  <speed>0.7213875518748573</speed>
  <fix>3d</fix>
</trkpt>
<trkpt lat="33.8102452" lon="-118.3939438">
  <ele>-0.112</ele>
  <time>2026-09-02T22:07:31Z</time>
  <course>186.52</course>
  <speed>0.7213875518748573</speed>
  <fix>3d</fix>
</trkpt>
<trkpt lat="33.8102452" lon="-118.3939438">
  <ele>-0.112</ele>
  <time>2026-09-02T22:07:31Z</time>
  <course>186.52</course>
  <speed>0.7213875518748573</speed>
  <fix>3d</fix>
</trkpt>
<trkpt lat="33.8102452" lon="-118.3939438">
  <ele>-0.112</ele>
  <time>2026-09-02T22:07:31Z</time>
  <course>186.52</course>
  <speed>0.7213875518748573</speed>
  <fix>3d</fix>
</trkpt>
<trkpt lat="33.8102451" lon="-118.3939439">
  <ele>-0.112</ele>
  <time>2026-09-02T22:07:31Z</time>
  <course>186.52</course>
  <speed>0.7213875518748573</speed>
  <fix>3d</fix>
</trkpt>
<trkpt lat="33.8102451" lon="-118.3939439">
  <ele>-0.112</ele>
  <time>2026-09-02T22:07:31Z</time>
  <course>186.52</course>
  <speed>0.7213875518748573</speed>
  <fix>3d</fix>
</trkpt>
<trkpt lat="33.810245" lon="-118.393944">
  <ele>-0.112</ele>
  <time>2026-09-02T22:07:31Z</time>
  <course>186.52</course>
  <speed>0.7213875518748573</speed>
  <fix>3d</fix>
</trkpt>
<trkpt lat="33.810246" lon="-118.3939425">
  <ele>-0.11</ele>
  <time>2026-09-02T22:07:31Z</time>
  <course>223.26</course>
  <speed>0.73</speed>
  <fix>3d</fix>
</trkpt>
<trkpt lat="33.810245" lon="-118.393944">
  <ele>-0.112</ele>
  <time>2026-09-02T22:07:31Z</time>
  <course>186.52</course>
  <speed>0.7213875518748573</speed>
  <fix>3d</fix>
</trkpt>
<trkpt lat="33.810245" lon="-118.3939441">
  <ele>-0.111</ele>
  <time>2026-09-02T22:07:31Z</time>
  <course>186.52</course>
  <speed>0.7213875518748573</speed>
  <fix>3d</fix>
</trkpt>
<trkpt lat="33.8102449" lon="-118.3939441">
  <ele>-0.111</ele>
  <time>2026-09-02T22:07:31Z</time>
  <course>186.52</course>
  <speed>0.7213875518748573</speed>
  <fix>3d</fix>
</trkpt>
<trkpt lat="33.8102449" lon="-118.3939442">
  <ele>-0.111</ele>
  <time>2026-09-02T22:07:31Z</time>
  <course>186.52</course>
  <speed>0.7213875518748573</speed>
  <fix>3d</fix>
</trkpt>
<trkpt lat="33.8102448" lon="-118.3939442">
  <ele>-0.111</ele>
  <time>2026-09-02T22:07:31Z</time>
  <course>186.52</course>
  <speed>0.7213875518748573</speed>
  <fix>3d</fix>
</trkpt>
<trkpt lat="33.8102448" lon="-118.3939442">
  <ele>-0.111</ele>
  <time>2026-09-02T22:07:31Z</time>
  <course>186.52</course>
  <speed>0.7213875518748573</speed>
  <fix>3d</fix>
</trkpt>
<trkpt lat="33.8102448" lon="-118.3939443">
  <ele>-0.111</ele>
  <time>2026-09-02T22:07:31Z</time>
  <course>186.52</course>
  <speed>0.7213875518748573</speed>
  <fix>3d</fix>
</trkpt>
<trkpt lat="33.8102447" lon="-118.3939443">
  <ele>-0.111</ele>
  <time>2026-09-02T22:07:31Z</time>
  <course>186.52</course>
  <speed>0.7213875518748573</speed>
  <fix>3d</fix>
</trkpt>
<trkpt lat="33.8102447" lon="-118.3939444">
  <ele>-0.11</ele>
  <time>2026-09-02T22:07:31Z</time>
  <course>186.52</course>
  <speed>0.7213875518748573</speed>
  <fix>3d</fix>
</trkpt>
<trkpt lat="33.8102446" lon="-118.3939444">
  <ele>-0.11</ele>
  <time>2026-09-02T22:07:31Z</time>
  <course>186.52</course>
  <speed>0.7213875518748573</speed>
  <fix>3d</fix>
</trkpt>
<trkpt lat="33.8102446" lon="-118.3939445">
  <ele>-0.11</ele>
  <time>2026-09-02T22:07:31Z</time>
  <course>186.52</course>
  <speed>0.7213875518748573</speed>
  <fix>3d</fix>
</trkpt>
<trkpt lat="33.8102446" lon="-118.3939445">
  <ele>-0.11</ele>
  <time>2026-09-02T22:07:31Z</time>
  <course>186.52</course>
  <speed>0.7213875518748573</speed>
  <fix>3d</fix>
</trkpt>
<trkpt lat="33.8102449" lon="-118.3939435">
  <ele>-0.1</ele>
  <time>2026-09-02T22:07:31Z</time>
  <course>223.26</course>
  <speed>0.73</speed>
  <fix>3d</fix>
</trkpt>
<trkpt lat="33.8102446" lon="-118.3939445">
  <ele>-0.11</ele>
  <time>2026-09-02T22:07:31Z</time>
  <course>186.52</course>
  <speed>0.7213875518748573</speed>
  <fix>3d</fix>
</trkpt>
<trkpt lat="33.8102444" lon="-118.3939446">
  <ele>-0.11</ele>
  <time>2026-09-02T22:07:31Z</time>
  <course>186.52</course>
  <speed>0.7213875518748573</speed>
  <fix>3d</fix>
</trkpt>
<trkpt lat="33.8102444" lon="-118.3939447">
  <ele>-0.11</ele>
  <time>2026-09-02T22:07:31Z</time>
  <course>186.52</course>
  <speed>0.7213875518748573</speed>
  <fix>3d</fix>
</trkpt>
<trkpt lat="33.8102443" lon="-118.3939448">
  <ele>-0.11</ele>
  <time>2026-09-02T22:07:31Z</time>
  <course>186.52</course>
  <speed>0.7213875518748573</speed>
  <fix>3d</fix>
</trkpt>
<trkpt lat="33.8102443" lon="-118.3939448">
  <ele>-0.109</ele>
  <time>2026-09-02T22:07:31Z</time>
  <course>186.52</course>
  <speed>0.7213875518748573</speed>
  <fix>3d</fix>
</trkpt>
<trkpt lat="33.8102443" lon="-118.3939448">
  <ele>-0.109</ele>
  <time>2026-09-02T22:07:31Z</time>
  <course>186.52</course>
  <speed>0.7213875518748573</speed>
  <fix>3d</fix>
</trkpt>
<trkpt lat="33.8102442" lon="-118.3939449">
  <ele>-0.109</ele>
  <time>2026-09-02T22:07:31Z</time>
  <course>186.52</course>
  <speed>0.7213875518748573</speed>
  <fix>3d</fix>
</trkpt>
<trkpt lat="33.8102442" lon="-118.3939449">
  <ele>-0.109</ele>
  <time>2026-09-02T22:07:31Z</time>
  <course>186.52</course>
  <speed>0.7213875518748573</speed>
  <fix>3d</fix>
</trkpt>
<trkpt lat="33.8102442" lon="-118.393945">
  <ele>-0.109</ele>
  <time>2026-09-02T22:07:31Z</time>
  <course>186.51</course>
  <speed>0.7213875518748573</speed>
  <fix>3d</fix>
</trkpt>
<trkpt lat="33.8102441" lon="-118.393945">
  <ele>-0.109</ele>
  <time>2026-09-02T22:07:31Z</time>
  <course>186.51</course>
  <speed>0.7213875518748573</speed>
  <fix>3d</fix>
</trkpt>
<trkpt lat="33.8102441" lon="-118.3939451">
  <ele>-0.109</ele>
  <time>2026-09-02T22:07:31Z</time>
  <course>186.51</course>
  <speed>0.7213875518748573</speed>
  <fix>3d</fix>
</trkpt>
<trkpt lat="33.8102441" lon="-118.3939451">
  <ele>-0.109</ele>
  <time>2026-09-02T22:07:31Z</time>
  <course>186.51</course>
  <speed>0.7213875518748573</speed>
  <fix>3d</fix>
</trkpt>
<trkpt lat="33.8102449" lon="-118.3939435">
  <ele>-0.1</ele>
  <time>2026-09-02T22:07:31Z</time>
  <course>223.26</course>
  <speed>0.73</speed>
  <fix>3d</fix>
</trkpt>
<trkpt lat="33.810244" lon="-118.3939451">
  <ele>-0.109</ele>
  <time>2026-09-02T22:07:31Z</time>
  <course>186.51</course>
  <speed>0.7213875518748573</speed>
  <fix>3d</fix>
</trkpt>
<trkpt lat="33.810244" lon="-118.3939452">
  <ele>-0.109</ele>
  <time>2026-09-02T22:07:31Z</time>
  <course>186.51</course>
  <speed>0.7213875518748573</speed>
  <fix>3d</fix>
</trkpt>
<trkpt lat="33.8102439" lon="-118.3939452">
  <ele>-0.109</ele>
  <time>2026-09-02T22:07:31Z</time>
  <course>186.51</course>
  <speed>0.7213875518748573</speed>
  <fix>3d</fix>
</trkpt>
<trkpt lat="33.8102439" lon="-118.3939453">
  <ele>-0.109</ele>
  <time>2026-09-02T22:07:31Z</time>
  <course>186.51</course>
  <speed>0.7213875518748573</speed>
  <fix>3d</fix>
</trkpt>
<trkpt lat="33.8102439" lon="-118.3939453">
  <ele>-0.109</ele>
  <time>2026-09-02T22:07:31Z</time>
  <course>186.51</course>
  <speed>0.7213875518748573</speed>
  <fix>3d</fix>
</trkpt>
<trkpt lat="33.8102438" lon="-118.3939453">
  <ele>-0.109</ele>
  <time>2026-09-02T22:07:31Z</time>
  <course>186.51</course>
  <speed>0.7213875518748573</speed>
  <fix>3d</fix>
</trkpt>
<trkpt lat="33.8102438" lon="-118.3939454">
  <ele>-0.109</ele>
  <time>2026-09-02T22:07:31Z</time>
  <course>186.51</course>
  <speed>0.7213875518748573</speed>
  <fix>3d</fix>
</trkpt>
<trkpt lat="33.8102437" lon="-118.3939454">
  <ele>-0.109</ele>
  <time>2026-09-02T22:07:31Z</time>
  <course>186.51</course>
  <speed>0.7213875518748573</speed>
  <fix>3d</fix>
</trkpt>
<trkpt lat="33.8102437" lon="-118.3939455">
  <ele>-0.109</ele>
  <time>2026-09-02T22:07:31Z</time>
  <course>186.51</course>
  <speed>0.7213875518748573</speed>
  <fix>3d</fix>
</trkpt>
<trkpt lat="33.8102437" lon="-118.3939455">
  <ele>-0.109</ele>
  <time>2026-09-02T22:07:31Z</time>
  <course>186.51</course>
  <speed>0.7213875518748573</speed>
  <fix>3d</fix>
</trkpt>
<trkpt lat="33.8102436" lon="-118.3939455">
  <ele>-0.109</ele>
  <time>2026-09-02T22:07:31Z</time>
  <course>186.51</course>
  <speed>0.7213875518748573</speed>
  <fix>3d</fix>
</trkpt>
<trkpt lat="33.8102436" lon="-118.3939456">
  <ele>-0.109</ele>
  <time>2026-09-02T22:07:31Z</time>
  <course>186.51</course>
  <speed>0.7213875518748573</speed>
  <fix>3d</fix>
</trkpt>
<trkpt lat="33.8102436" lon="-118.3939456">
  <ele>-0.109</ele>
  <time>2026-09-02T22:07:31Z</time>
  <course>186.51</course>
  <speed>0.7213875518748573</speed>
  <fix>3d</fix>
</trkpt>
<trkpt lat="33.810244" lon="-118.3939446">
  <ele>-0.1</ele>
  <time>2026-09-02T22:07:31Z</time>
  <course>223.26</course>
  <speed>0.73</speed>
  <fix>3d</fix>
</trkpt>
<trkpt lat="33.8102435" lon="-118.3939457">
  <ele>-0.109</ele>
  <time>2026-09-02T22:07:31Z</time>
  <course>186.51</course>
  <speed>0.7213875518748573</speed>
  <fix>3d</fix>
</trkpt>
<trkpt lat="33.8102435" lon="-118.3939457">
  <ele>-0.109</ele>
  <time>2026-09-02T22:07:31Z</time>
  <course>186.51</course>
  <speed>0.7213875518748573</speed>
  <fix>3d</fix>
</trkpt>
<trkpt lat="33.8102435" lon="-118.3939458">
  <ele>-0.109</ele>
  <time>2026-09-02T22:07:31Z</time>
  <course>186.51</course>
  <speed>0.7213875518748573</speed>
  <fix>3d</fix>
</trkpt>
<trkpt lat="33.8102434" lon="-118.3939458">
  <ele>-0.109</ele>
  <time>2026-09-02T22:07:31Z</time>
  <course>186.51</course>
  <speed>0.7213875518748573</speed>
  <fix>3d</fix>
</trkpt>
<trkpt lat="33.8102434" lon="-118.3939458">
  <ele>-0.109</ele>
  <time>2026-09-02T22:07:31Z</time>
  <course>186.51</course>
  <speed>0.7213875518748573</speed>
  <fix>3d</fix>
</trkpt>
<trkpt lat="33.8102433" lon="-118.3939459">
  <ele>-0.109</ele>
  <time>2026-09-02T22:07:31Z</time>
  <course>186.51</course>
  <speed>0.7213875518748573</speed>
  <fix>3d</fix>
</trkpt>
<trkpt lat="33.8102433" lon="-118.3939459">
  <ele>-0.109</ele>
  <time>2026-09-02T22:07:31Z</time>
  <course>186.51</course>
  <speed>0.7213875518748573</speed>
  <fix>3d</fix>
</trkpt>
<trkpt lat="33.8102433" lon="-118.393946">
  <ele>-0.11</ele>
  <time>2026-09-02T22:07:31Z</time>
  <course>186.51</course>
  <speed>0.7213875518748573</speed>
  <fix>3d</fix>
</trkpt>
<trkpt lat="33.8102432" lon="-118.393946">
  <ele>-0.11</ele>
  <time>2026-09-02T22:07:31Z</time>
  <course>186.51</course>
  <speed>0.7213875518748573</speed>
  <fix>3d</fix>
</trkpt>
<trkpt lat="33.8102432" lon="-118.3939461">
  <ele>-0.11</ele>
  <time>2026-09-02T22:07:31Z</time>
  <course>186.51</course>
  <speed>0.7213875518748573</speed>
  <fix>3d</fix>
</trkpt>
<trkpt lat="33.8102431" lon="-118.3939461">
  <ele>-0.11</ele>
  <time>2026-09-02T22:07:31Z</time>
  <course>186.51</course>
  <speed>0.7213875518748573</speed>
  <fix>3d</fix>
</trkpt>
<trkpt lat="33.8102431" lon="-118.3939461">
  <ele>-0.11</ele>
  <time>2026-09-02T22:07:31Z</time>
  <course>186.51</course>
  <speed>0.7213875518748573</speed>
  <fix>3d</fix>
</trkpt>
<trkpt lat="33.8102431" lon="-118.3939461">
  <ele>-0.11</ele>
  <time>2026-09-02T22:07:31Z</time>
  <course>186.51</course>
  <speed>0.7213875518748573</speed>
  <fix>3d</fix>
</trkpt>
<trkpt lat="33.810244" lon="-118.3939446">
  <ele>-0.1</ele>
  <time>2026-09-02T22:07:31Z</time>
  <course>223.26</course>
  <speed>0.73</speed>
  <fix>3d</fix>
</trkpt>
<trkpt lat="33.810243" lon="-118.3939462">
  <ele>-0.11</ele>
  <time>2026-09-02T22:07:31Z</time>
  <course>186.51</course>
  <speed>0.7213875518748573</speed>
  <fix>3d</fix>
</trkpt>
<trkpt lat="33.810243" lon="-118.3939463">
  <ele>-0.11</ele>
  <time>2026-09-02T22:07:31Z</time>
  <course>186.51</course>
  <speed>0.7213875518748573</speed>
  <fix>3d</fix>
</trkpt>
<trkpt lat="33.810243" lon="-118.3939463">
  <ele>-0.11</ele>
  <time>2026-09-02T22:07:31Z</time>
  <course>186.51</course>
  <speed>0.7213875518748573</speed>
  <fix>3d</fix>
</trkpt>
<trkpt lat="33.8102429" lon="-118.3939464">
  <ele>-0.111</ele>
  <time>2026-09-02T22:07:31Z</time>
  <course>186.51</course>
  <speed>0.7213875518748573</speed>
  <fix>3d</fix>
</trkpt>
<trkpt lat="33.8102429" lon="-118.3939464">
  <ele>-0.111</ele>
  <time>2026-09-02T22:07:31Z</time>
  <course>186.51</course>
  <speed>0.7213875518748573</speed>
  <fix>3d</fix>
</trkpt>
<trkpt lat="33.8102428" lon="-118.3939464">
  <ele>-0.111</ele>
  <time>2026-09-02T22:07:31Z</time>
  <course>186.51</course>
  <speed>0.7213875518748573</speed>
  <fix>3d</fix>
</trkpt>
<trkpt lat="33.8102428" lon="-118.3939465">
  <ele>-0.111</ele>
  <time>2026-09-02T22:07:31Z</time>
  <course>186.51</course>
  <speed>0.7213875518748573</speed>
  <fix>3d</fix>
</trkpt>
<trkpt lat="33.8102428" lon="-118.3939465">
  <ele>-0.111</ele>
  <time>2026-09-02T22:07:31Z</time>
  <course>186.51</course>
  <speed>0.7213875518748573</speed>
  <fix>3d</fix>
</trkpt>
<trkpt lat="33.8102427" lon="-118.3939466">
  <ele>-0.111</ele>
  <time>2026-09-02T22:07:31Z</time>
  <course>186.51</course>
  <speed>0.7213875518748573</speed>
  <fix>3d</fix>
</trkpt>
<trkpt lat="33.8102427" lon="-118.3939466">
  <ele>-0.111</ele>
  <time>2026-09-02T22:07:31Z</time>
  <course>186.51</course>
  <speed>0.7213875518748573</speed>
  <fix>3d</fix>
</trkpt>
<trkpt lat="33.8102427" lon="-118.3939467">
  <ele>-0.111</ele>
  <time>2026-09-02T22:07:31Z</time>
  <course>186.51</course>
  <speed>0.7213875518748573</speed>
  <fix>3d</fix>
</trkpt>
<trkpt lat="33.8102426" lon="-118.3939467">
  <ele>-0.111</ele>
  <time>2026-09-02T22:07:31Z</time>
  <course>186.51</course>
  <speed>0.7213875518748573</speed>
  <fix>3d</fix>
</trkpt>
<trkpt lat="33.810243" lon="-118.3939457">
  <ele>-0.1</ele>
  <time>2026-09-02T22:07:31Z</time>
  <course>223.26</course>
  <speed>0.73</speed>
  <fix>3d</fix>
</trkpt>
<trkpt lat="33.8102426" lon="-118.3939467">
  <ele>-0.111</ele>
  <time>2026-09-02T22:07:31Z</time>
  <course>186.51</course>
  <speed>0.7213875518748573</speed>
  <fix>3d</fix>
</trkpt>
<trkpt lat="33.8102426" lon="-118.3939468">
  <ele>-0.111</ele>
  <time>2026-09-02T22:07:31Z</time>
  <course>186.51</course>
  <speed>0.7213875518748573</speed>
  <fix>3d</fix>
</trkpt>
<trkpt lat="33.8102425" lon="-118.3939468">
  <ele>-0.111</ele>
  <time>2026-09-02T22:07:31Z</time>
  <course>186.51</course>
  <speed>0.7213875518748573</speed>
  <fix>3d</fix>
</trkpt>
<trkpt lat="33.8102425" lon="-118.3939469">
  <ele>-0.111</ele>
  <time>2026-09-02T22:07:31Z</time>
  <course>186.51</course>
  <speed>0.7213875518748573</speed>
  <fix>3d</fix>
</trkpt>
<trkpt lat="33.8102424" lon="-118.3939469">
  <ele>-0.111</ele>
  <time>2026-09-02T22:07:31Z</time>
  <course>186.51</course>
  <speed>0.7213875518748573</speed>
  <fix>3d</fix>
</trkpt>
<trkpt lat="33.8102424" lon="-118.3939469">
  <ele>-0.111</ele>
  <time>2026-09-02T22:07:31Z</time>
  <course>186.51</course>
  <speed>0.7213875518748573</speed>
  <fix>3d</fix>
</trkpt>
<trkpt lat="33.8102424" lon="-118.393947">
  <ele>-0.111</ele>
  <time>2026-09-02T22:07:31Z</time>
  <course>186.51</course>
  <speed>0.7213875518748573</speed>
  <fix>3d</fix>
</trkpt>
<trkpt lat="33.8102423" lon="-118.393947">
  <ele>-0.111</ele>
  <time>2026-09-02T22:07:31Z</time>
  <course>186.5</course>
  <speed>0.7213875518748573</speed>
  <fix>3d</fix>
</trkpt>
<trkpt lat="33.8102423" lon="-118.3939471">
  <ele>-0.112</ele>
  <time>2026-09-02T22:07:31Z</time>
  <course>186.5</course>
  <speed>0.7213875518748573</speed>
  <fix>3d</fix>
</trkpt>
<trkpt lat="33.8102423" lon="-118.3939471">
  <ele>-0.112</ele>
  <time>2026-09-02T22:07:31Z</time>
  <course>186.5</course>
  <speed>0.7213875518748573</speed>
  <fix>3d</fix>
</trkpt>
<trkpt lat="33.8102422" lon="-118.3939471">
  <ele>-0.112</ele>
  <time>2026-09-02T22:07:31Z</time>
  <course>186.5</course>
  <speed>0.7213875518748573</speed>
  <fix>3d</fix>
</trkpt>
<trkpt lat="33.8102422" lon="-118.3939472">
  <ele>-0.112</ele>
  <time>2026-09-02T22:07:31Z</time>
  <course>186.5</course>
  <speed>0.7213875518748573</speed>
  <fix>3d</fix>
</trkpt>
<trkpt lat="33.8102421" lon="-118.3939472">
  <ele>-0.112</ele>
  <time>2026-09-02T22:07:31Z</time>
  <course>186.5</course>
  <speed>0.7213875518748573</speed>
  <fix>3d</fix>
</trkpt>
<trkpt lat="33.810243" lon="-118.3939457">
  <ele>-0.1</ele>
  <time>2026-09-02T22:07:31Z</time>
  <course>223.26</course>
  <speed>0.73</speed>
  <fix>3d</fix>
</trkpt>
<trkpt lat="33.8102421" lon="-118.3939472">
  <ele>-0.112</ele>
  <time>2026-09-02T22:07:31Z</time>
  <course>186.5</course>
  <speed>0.7213875518748573</speed>
  <fix>3d</fix>
</trkpt>
<trkpt lat="33.810242" lon="-118.3939473">
  <ele>-0.112</ele>
  <time>2026-09-02T22:07:31Z</time>
  <course>186.5</course>
  <speed>0.7213875518748573</speed>
  <fix>3d</fix>
</trkpt>
<trkpt lat="33.810242" lon="-118.3939474">
  <ele>-0.112</ele>
  <time>2026-09-02T22:07:31Z</time>
  <course>186.5</course>
  <speed>0.7213875518748573</speed>
  <fix>3d</fix>
</trkpt>
<trkpt lat="33.810242" lon="-118.3939474">
  <ele>-0.113</ele>
  <time>2026-09-02T22:07:31Z</time>
  <course>186.5</course>
  <speed>0.7213875518748573</speed>
  <fix>3d</fix>
</trkpt>
<trkpt lat="33.8102419" lon="-118.3939475">
  <ele>-0.113</ele>
  <time>2026-09-02T22:07:31Z</time>
  <course>186.5</course>
  <speed>0.7213875518748573</speed>
  <fix>3d</fix>
</trkpt>
<trkpt lat="33.8102419" lon="-118.3939475">
  <ele>-0.113</ele>
  <time>2026-09-02T22:07:31Z</time>
  <course>186.5</course>
  <speed>0.7213875518748573</speed>
  <fix>3d</fix>
</trkpt>
<trkpt lat="33.8102419" lon="-118.3939475">
  <ele>-0.113</ele>
  <time>2026-09-02T22:07:31Z</time>
  <course>186.5</course>
  <speed>0.7213875518748573</speed>
  <fix>3d</fix>
</trkpt>
<trkpt lat="33.8102418" lon="-118.3939476">
  <ele>-0.113</ele>
  <time>2026-09-02T22:07:31Z</time>
  <course>186.5</course>
  <speed>0.7213875518748573</speed>
  <fix>3d</fix>
</trkpt>
<trkpt lat="33.8102418" lon="-118.3939476">
  <ele>-0.113</ele>
  <time>2026-09-02T22:07:31Z</time>
  <course>186.5</course>
  <speed>0.7213875518748573</speed>
  <fix>3d</fix>
</trkpt>
<trkpt lat="33.8102418" lon="-118.3939477">
  <ele>-0.113</ele>
  <time>2026-09-02T22:07:31Z</time>
  <course>186.5</course>
  <speed>0.7283543093852057</speed>
  <fix>3d</fix>
</trkpt>
<trkpt lat="33.8102417" lon="-118.3939477">
  <ele>-0.113</ele>
  <time>2026-09-02T22:07:31Z</time>
  <course>186.5</course>
  <speed>0.7213875518748573</speed>
  <fix>3d</fix>
</trkpt>
<trkpt lat="33.8102417" lon="-118.3939477">
  <ele>-0.113</ele>
  <time>2026-09-02T22:07:31Z</time>
  <course>186.5</course>
  <speed>0.7283543093852057</speed>
  <fix>3d</fix>
</trkpt>
<trkpt lat="33.8102417" lon="-118.3939478">
  <ele>-0.113</ele>
  <time>2026-09-02T22:07:31Z</time>
  <course>186.5</course>
  <speed>0.7213875518748573</speed>
  <fix>3d</fix>
</trkpt>
<trkpt lat="33.810242" lon="-118.3939468">
  <ele>-0.1</ele>
  <time>2026-09-02T22:07:31Z</time>
  <course>223.26</course>
  <speed>0.73</speed>
  <fix>3d</fix>
</trkpt>
<trkpt lat="33.8102416" lon="-118.3939478">
  <ele>-0.113</ele>
  <time>2026-09-02T22:07:31Z</time>
  <course>186.5</course>
  <speed>0.7213875518748573</speed>
  <fix>3d</fix>
</trkpt>
<trkpt lat="33.8102416" lon="-118.3939478">
  <ele>-0.113</ele>
  <time>2026-09-02T22:07:31Z</time>
  <course>186.5</course>
  <speed>0.7283543093852057</speed>
  <fix>3d</fix>
</trkpt>
<trkpt lat="33.8102415" lon="-118.3939479">
  <ele>-0.113</ele>
  <time>2026-09-02T22:07:31Z</time>
  <course>186.5</course>
  <speed>0.7283543093852057</speed>
  <fix>3d</fix>
</trkpt>
<trkpt lat="33.8102415" lon="-118.3939479">
  <ele>-0.113</ele>
  <time>2026-09-02T22:07:31Z</time>
  <course>186.5</course>
  <speed>0.7283543093852057</speed>
  <fix>3d</fix>
</trkpt>
<trkpt lat="33.8102415" lon="-118.393948">
  <ele>-0.113</ele>
  <time>2026-09-02T22:07:31Z</time>
  <course>186.5</course>
  <speed>0.7283543093852057</speed>
  <fix>3d</fix>
</trkpt>
<trkpt lat="33.8102414" lon="-118.393948">
  <ele>-0.113</ele>
  <time>2026-09-02T22:07:31Z</time>
  <course>186.5</course>
  <speed>0.7283543093852057</speed>
  <fix>3d</fix>
</trkpt>
<trkpt lat="33.8102414" lon="-118.393948">
  <ele>-0.113</ele>
  <time>2026-09-02T22:07:31Z</time>
  <course>186.5</course>
  <speed>0.7283543093852057</speed>
  <fix>3d</fix>
</trkpt>
<trkpt lat="33.8102414" lon="-118.3939481">
  <ele>-0.113</ele>
  <time>2026-09-02T22:07:31Z</time>
  <course>186.5</course>
  <speed>0.7283543093852057</speed>
  <fix>3d</fix>
</trkpt>
<trkpt lat="33.8102413" lon="-118.3939481">
  <ele>-0.113</ele>
  <time>2026-09-02T22:07:31Z</time>
  <course>186.5</course>
  <speed>0.7283543093852057</speed>
  <fix>3d</fix>
</trkpt>
<trkpt lat="33.8102413" lon="-118.3939482">
  <ele>-0.113</ele>
  <time>2026-09-02T22:07:31Z</time>
  <course>186.5</course>
  <speed>0.7283543093852057</speed>
  <fix>3d</fix>
</trkpt>
<trkpt lat="33.8102412" lon="-118.3939482">
  <ele>-0.113</ele>
  <time>2026-09-02T22:07:31Z</time>
  <course>186.5</course>
  <speed>0.7283543093852057</speed>
  <fix>3d</fix>
</trkpt>
<trkpt lat="33.8102412" lon="-118.3939483">
  <ele>-0.113</ele>
  <time>2026-09-02T22:07:31Z</time>
  <course>186.5</course>
  <speed>0.7283543093852057</speed>
  <fix>3d</fix>
</trkpt>
<trkpt lat="33.8102412" lon="-118.3939483">
  <ele>-0.113</ele>
  <time>2026-09-02T22:07:31Z</time>
  <course>186.5</course>
  <speed>0.7283543093852057</speed>
  <fix>3d</fix>
</trkpt>
<trkpt lat="33.8102412" lon="-118.3939483">
  <ele>-0.113</ele>
  <time>2026-09-02T22:07:31Z</time>
  <course>186.5</course>
  <speed>0.7283543093852057</speed>
  <fix>3d</fix>
</trkpt>
<trkpt lat="33.810242" lon="-118.3939468">
  <ele>-0.1</ele>
  <time>2026-09-02T22:07:31Z</time>
  <course>223.26</course>
  <speed>0.73</speed>
  <fix>3d</fix>
</trkpt>
<trkpt lat="33.810241" lon="-118.3939485">
  <ele>-0.113</ele>
  <time>2026-09-02T22:07:31Z</time>
  <course>186.5</course>
  <speed>0.7283543093852057</speed>
  <fix>3d</fix>
</trkpt>
<trkpt lat="33.810241" lon="-118.3939486">
  <ele>-0.113</ele>
  <time>2026-09-02T22:07:31Z</time>
  <course>186.5</course>
  <speed>0.7283543093852057</speed>
  <fix>3d</fix>
</trkpt>
<trkpt lat="33.8102409" lon="-118.3939486">
  <ele>-0.113</ele>
  <time>2026-09-02T22:07:31Z</time>
  <course>186.5</course>
  <speed>0.7283543093852057</speed>
  <fix>3d</fix>
</trkpt>
<trkpt lat="33.8102409" lon="-118.3939487">
  <ele>-0.112</ele>
  <time>2026-09-02T22:07:31Z</time>
  <course>186.5</course>
  <speed>0.7283543093852057</speed>
  <fix>3d</fix>
</trkpt>
<trkpt lat="33.8102408" lon="-118.3939487">
  <ele>-0.112</ele>
  <time>2026-09-02T22:07:31Z</time>
  <course>186.5</course>
  <speed>0.7283543093852057</speed>
  <fix>3d</fix>
</trkpt>
<trkpt lat="33.8102408" lon="-118.3939488">
  <ele>-0.112</ele>
  <time>2026-09-02T22:07:31Z</time>
  <course>186.5</course>
  <speed>0.7283543093852057</speed>
  <fix>3d</fix>
</trkpt>
<trkpt lat="33.8102407" lon="-118.3939488">
  <ele>-0.112</ele>
  <time>2026-09-02T22:07:31Z</time>
  <course>186.5</course>
  <speed>0.7283543093852057</speed>
  <fix>3d</fix>
</trkpt>
<trkpt lat="33.8102407" lon="-118.3939488">
  <ele>-0.112</ele>
  <time>2026-09-02T22:07:31Z</time>
  <course>186.5</course>
  <speed>0.7283543093852057</speed>
  <fix>3d</fix>
</trkpt>
<trkpt lat="33.8102407" lon="-118.3939488">
  <ele>-0.112</ele>
  <time>2026-09-02T22:07:31Z</time>
  <course>186.5</course>
  <speed>0.7283543093852057</speed>
  <fix>3d</fix>
</trkpt>
<trkpt lat="33.8102411" lon="-118.3939479">
  <ele>-0.11</ele>
  <time>2026-09-02T22:07:31Z</time>
  <course>223.26</course>
  <speed>0.73</speed>
  <fix>3d</fix>
</trkpt>
<trkpt lat="33.8102407" lon="-118.3939489">
  <ele>-0.112</ele>
  <time>2026-09-02T22:07:31Z</time>
  <course>186.5</course>
  <speed>0.7283543093852057</speed>
  <fix>3d</fix>
</trkpt>
<trkpt lat="33.8102406" lon="-118.3939489">
  <ele>-0.112</ele>
  <time>2026-09-02T22:07:31Z</time>
  <course>186.49</course>
  <speed>0.7283543093852057</speed>
  <fix>3d</fix>
</trkpt>
<trkpt lat="33.8102406" lon="-118.393949">
  <ele>-0.111</ele>
  <time>2026-09-02T22:07:31Z</time>
  <course>186.49</course>
  <speed>0.7283543093852057</speed>
  <fix>3d</fix>
</trkpt>
<trkpt lat="33.8102405" lon="-118.393949">
  <ele>-0.111</ele>
  <time>2026-09-02T22:07:31Z</time>
  <course>186.49</course>
  <speed>0.7283543093852057</speed>
  <fix>3d</fix>
</trkpt>
<trkpt lat="33.8102405" lon="-118.3939491">
  <ele>-0.111</ele>
  <time>2026-09-02T22:07:31Z</time>
  <course>186.49</course>
  <speed>0.7283543093852057</speed>
  <fix>3d</fix>
</trkpt>
<trkpt lat="33.8102405" lon="-118.3939491">
  <ele>-0.111</ele>
  <time>2026-09-02T22:07:31Z</time>
  <course>186.49</course>
  <speed>0.7283543093852057</speed>
  <fix>3d</fix>
</trkpt>
<trkpt lat="33.8102404" lon="-118.3939491">
  <ele>-0.111</ele>
  <time>2026-09-02T22:07:31Z</time>
  <course>186.49</course>
  <speed>0.7283543093852057</speed>
  <fix>3d</fix>
</trkpt>
<trkpt lat="33.8102404" lon="-118.3939492">
  <ele>-0.111</ele>
  <time>2026-09-02T22:07:31Z</time>
  <course>186.49</course>
  <speed>0.7283543093852057</speed>
  <fix>3d</fix>
</trkpt>
<trkpt lat="33.8102403" lon="-118.3939493">
  <ele>-0.111</ele>
  <time>2026-09-02T22:07:31Z</time>
  <course>186.49</course>
  <speed>0.7283543093852057</speed>
  <fix>3d</fix>
</trkpt>
<trkpt lat="33.8102403" lon="-118.3939493">
  <ele>-0.111</ele>
  <time>2026-09-02T22:07:31Z</time>
  <course>186.49</course>
  <speed>0.7283543093852057</speed>
  <fix>3d</fix>
</trkpt>
<trkpt lat="33.8102403" lon="-118.3939493">
  <ele>-0.11</ele>
  <time>2026-09-02T22:07:31Z</time>
  <course>186.49</course>
  <speed>0.7283543093852057</speed>
  <fix>3d</fix>
</trkpt>
<trkpt lat="33.8102402" lon="-118.3939494">
  <ele>-0.11</ele>
  <time>2026-09-02T22:07:31Z</time>
  <course>186.49</course>
  <speed>0.7283543093852057</speed>
  <fix>3d</fix>
</trkpt>
<trkpt lat="33.8102402" lon="-118.3939494">
  <ele>-0.11</ele>
  <time>2026-09-02T22:07:31Z</time>
  <course>186.49</course>
  <speed>0.7283543093852057</speed>
  <fix>3d</fix>
</trkpt>
<trkpt lat="33.8102411" lon="-118.3939479">
  <ele>-0.11</ele>
  <time>2026-09-02T22:07:31Z</time>
  <course>223.26</course>
  <speed>0.73</speed>
  <fix>3d</fix>
</trkpt>
<trkpt lat="33.8102402" lon="-118.3939494">
  <ele>-0.11</ele>
  <time>2026-09-02T22:07:31Z</time>
  <course>186.49</course>
  <speed>0.7283543093852057</speed>
  <fix>3d</fix>
</trkpt>
<trkpt lat="33.8102401" lon="-118.3939495">
  <ele>-0.11</ele>
  <time>2026-09-02T22:07:31Z</time>
  <course>186.49</course>
  <speed>0.7283543093852057</speed>
  <fix>3d</fix>
</trkpt>
<trkpt lat="33.8102401" lon="-118.3939495">
  <ele>-0.11</ele>
  <time>2026-09-02T22:07:31Z</time>
  <course>186.49</course>
  <speed>0.7283543093852057</speed>
  <fix>3d</fix>
</trkpt>
<trkpt lat="33.81024" lon="-118.3939496">
  <ele>-0.11</ele>
  <time>2026-09-02T22:07:31Z</time>
  <course>186.49</course>
  <speed>0.7283543093852057</speed>
  <fix>3d</fix>
</trkpt>
<trkpt lat="33.81024" lon="-118.3939496">
  <ele>-0.11</ele>
  <time>2026-09-02T22:07:31Z</time>
  <course>186.49</course>
  <speed>0.7283543093852057</speed>
  <fix>3d</fix>
</trkpt>
<trkpt lat="33.81024" lon="-118.3939497">
  <ele>-0.11</ele>
  <time>2026-09-02T22:07:31Z</time>
  <course>186.49</course>
  <speed>0.7283543093852057</speed>
  <fix>3d</fix>
</trkpt>
<trkpt lat="33.8102399" lon="-118.3939497">
  <ele>-0.11</ele>
  <time>2026-09-02T22:07:31Z</time>
  <course>186.49</course>
  <speed>0.7283543093852057</speed>
  <fix>3d</fix>
</trkpt>
<trkpt lat="33.8102399" lon="-118.3939498">
  <ele>-0.11</ele>
  <time>2026-09-02T22:07:31Z</time>
  <course>186.49</course>
  <speed>0.7283543093852057</speed>
  <fix>3d</fix>
</trkpt>
<trkpt lat="33.8102398" lon="-118.3939498">
  <ele>-0.11</ele>
  <time>2026-09-02T22:07:31Z</time>
  <course>186.49</course>
  <speed>0.7283543093852057</speed>
  <fix>3d</fix>
</trkpt>
<trkpt lat="33.8102398" lon="-118.3939498">
  <ele>-0.11</ele>
  <time>2026-09-02T22:07:31Z</time>
  <course>186.49</course>
  <speed>0.7283543093852057</speed>
  <fix>3d</fix>
</trkpt>
<trkpt lat="33.8102398" lon="-118.3939499">
  <ele>-0.11</ele>
  <time>2026-09-02T22:07:31Z</time>
  <course>186.49</course>
  <speed>0.7283543093852057</speed>
  <fix>3d</fix>
</trkpt>
<trkpt lat="33.8102397" lon="-118.3939499">
  <ele>-0.11</ele>
  <time>2026-09-02T22:07:31Z</time>
  <course>186.49</course>
  <speed>0.7283543093852057</speed>
  <fix>3d</fix>
</trkpt>
<trkpt lat="33.8102397" lon="-118.3939499">
  <ele>-0.11</ele>
  <time>2026-09-02T22:07:31Z</time>
  <course>186.49</course>
  <speed>0.7283543093852057</speed>
  <fix>3d</fix>
</trkpt>
<trkpt lat="33.8102401" lon="-118.393949">
  <ele>-0.1</ele>
  <time>2026-09-02T22:07:31Z</time>
  <course>223.26</course>
  <speed>0.73</speed>
  <fix>3d</fix>
</trkpt>
<trkpt lat="33.8102397" lon="-118.39395">
  <ele>-0.109</ele>
  <time>2026-09-02T22:07:31Z</time>
  <course>186.49</course>
  <speed>0.7283543093852057</speed>
  <fix>3d</fix>
</trkpt>
<trkpt lat="33.8102396" lon="-118.39395">
  <ele>-0.11</ele>
  <time>2026-09-02T22:07:31Z</time>
  <course>186.49</course>
  <speed>0.7283543093852057</speed>
  <fix>3d</fix>
</trkpt>
<trkpt lat="33.8102396" lon="-118.3939501">
  <ele>-0.109</ele>
  <time>2026-09-02T22:07:31Z</time>
  <course>186.49</course>
  <speed>0.7283543093852057</speed>
  <fix>3d</fix>
</trkpt>
<trkpt lat="33.8102396" lon="-118.3939501">
  <ele>-0.109</ele>
  <time>2026-09-02T22:07:31Z</time>
  <course>186.49</course>
  <speed>0.7283543093852057</speed>
  <fix>3d</fix>
</trkpt>
<trkpt lat="33.8102395" lon="-118.3939501">
  <ele>-0.109</ele>
  <time>2026-09-02T22:07:31Z</time>
  <course>186.49</course>
  <speed>0.7283543093852057</speed>
  <fix>3d</fix>
</trkpt>
<trkpt lat="33.8102395" lon="-118.3939502">
  <ele>-0.109</ele>
  <time>2026-09-02T22:07:31Z</time>
  <course>186.49</course>
  <speed>0.7283543093852057</speed>
  <fix>3d</fix>
</trkpt>
<trkpt lat="33.8102394" lon="-118.3939502">
  <ele>-0.109</ele>
  <time>2026-09-02T22:07:31Z</time>
  <course>186.49</course>
  <speed>0.7283543093852057</speed>
  <fix>3d</fix>
</trkpt>
<trkpt lat="33.8102394" lon="-118.3939503">
  <ele>-0.109</ele>
  <time>2026-09-02T22:07:31Z</time>
  <course>186.49</course>
  <speed>0.7283543093852057</speed>
  <fix>3d</fix>
</trkpt>
<trkpt lat="33.8102394" lon="-118.3939503">
  <ele>-0.109</ele>
  <time>2026-09-02T22:07:31Z</time>
  <course>186.49</course>
  <speed>0.7283543093852057</speed>
  <fix>3d</fix>
</trkpt>
<trkpt lat="33.8102393" lon="-118.3939504">
  <ele>-0.109</ele>
  <time>2026-09-02T22:07:31Z</time>
  <course>186.49</course>
  <speed>0.7283543093852057</speed>
  <fix>3d</fix>
</trkpt>
<trkpt lat="33.8102393" lon="-118.3939504">
  <ele>-0.109</ele>
  <time>2026-09-02T22:07:31Z</time>
  <course>186.49</course>
  <speed>0.7283543093852057</speed>
  <fix>3d</fix>
</trkpt>
<trkpt lat="33.8102393" lon="-118.3939505">
  <ele>-0.109</ele>
  <time>2026-09-02T22:07:31Z</time>
  <course>186.49</course>
  <speed>0.7283543093852057</speed>
  <fix>3d</fix>
</trkpt>
<trkpt lat="33.8102392" lon="-118.3939505">
  <ele>-0.109</ele>
  <time>2026-09-02T22:07:31Z</time>
  <course>186.49</course>
  <speed>0.7283543093852057</speed>
  <fix>3d</fix>
</trkpt>
<trkpt lat="33.8102401" lon="-118.393949">
  <ele>-0.1</ele>
  <time>2026-09-02T22:07:31Z</time>
  <course>223.26</course>
  <speed>0.73</speed>
  <fix>3d</fix>
</trkpt>
<trkpt lat="33.8102392" lon="-118.3939505">
  <ele>-0.109</ele>
  <time>2026-09-02T22:07:31Z</time>
  <course>186.49</course>
  <speed>0.7283543093852057</speed>
  <fix>3d</fix>
</trkpt>
<trkpt lat="33.8102392" lon="-118.3939506">
  <ele>-0.109</ele>
  <time>2026-09-02T22:07:31Z</time>
  <course>186.49</course>
  <speed>0.7283543093852057</speed>
  <fix>3d</fix>
</trkpt>
<trkpt lat="33.8102391" lon="-118.3939506">
  <ele>-0.109</ele>
  <time>2026-09-02T22:07:31Z</time>
  <course>186.49</course>
  <speed>0.7283543093852057</speed>
  <fix>3d</fix>
</trkpt>
<trkpt lat="33.8102391" lon="-118.3939507">
  <ele>-0.109</ele>
  <time>2026-09-02T22:07:31Z</time>
  <course>186.49</course>
  <speed>0.7283543093852057</speed>
  <fix>3d</fix>
</trkpt>
<trkpt lat="33.810239" lon="-118.3939507">
  <ele>-0.109</ele>
  <time>2026-09-02T22:07:31Z</time>
  <course>186.49</course>
  <speed>0.7283543093852057</speed>
  <fix>3d</fix>
</trkpt>
<trkpt lat="33.810239" lon="-118.3939508">
  <ele>-0.109</ele>
  <time>2026-09-02T22:07:31Z</time>
  <course>186.49</course>
  <speed>0.7283543093852057</speed>
  <fix>3d</fix>
</trkpt>
<trkpt lat="33.810239" lon="-118.3939508">
  <ele>-0.109</ele>
  <time>2026-09-02T22:07:31Z</time>
  <course>186.49</course>
  <speed>0.7283543093852057</speed>
  <fix>3d</fix>
</trkpt>
<trkpt lat="33.8102389" lon="-118.3939508">
  <ele>-0.109</ele>
  <time>2026-09-02T22:07:31Z</time>
  <course>186.49</course>
  <speed>0.7283543093852057</speed>
  <fix>3d</fix>
</trkpt>
<trkpt lat="33.8102389" lon="-118.3939509">
  <ele>-0.109</ele>
  <time>2026-09-02T22:07:31Z</time>
  <course>186.49</course>
  <speed>0.7283543093852057</speed>
  <fix>3d</fix>
</trkpt>
<trkpt lat="33.8102389" lon="-118.3939509">
  <ele>-0.109</ele>
  <time>2026-09-02T22:07:31Z</time>
  <course>186.49</course>
  <speed>0.7283543093852057</speed>
  <fix>3d</fix>
</trkpt>
<trkpt lat="33.8102388" lon="-118.3939509">
  <ele>-0.109</ele>
  <time>2026-09-02T22:07:31Z</time>
  <course>186.49</course>
  <speed>0.7283543093852057</speed>
  <fix>3d</fix>
</trkpt>
<trkpt lat="33.8102388" lon="-118.393951">
  <ele>-0.11</ele>
  <time>2026-09-02T22:07:31Z</time>
  <course>186.49</course>
  <speed>0.7283543093852057</speed>
  <fix>3d</fix>
</trkpt>
<trkpt lat="33.8102387" lon="-118.393951">
  <ele>-0.11</ele>
  <time>2026-09-02T22:07:31Z</time>
  <course>186.48</course>
  <speed>0.7283543093852057</speed>
  <fix>3d</fix>
</trkpt>
<trkpt lat="33.8102387" lon="-118.393951">
  <ele>-0.11</ele>
  <time>2026-09-02T22:07:31Z</time>
  <course>186.48</course>
  <speed>0.7283543093852057</speed>
  <fix>3d</fix>
</trkpt>
<trkpt lat="33.8102392" lon="-118.3939501">
  <ele>-0.1</ele>
  <time>2026-09-02T22:07:31Z</time>
  <course>223.26</course>
  <speed>0.73</speed>
  <fix>3d</fix>
</trkpt>
<trkpt lat="33.8102387" lon="-118.3939511">
  <ele>-0.11</ele>
  <time>2026-09-02T22:07:31Z</time>
  <course>186.48</course>
  <speed>0.7283543093852057</speed>
  <fix>3d</fix>
</trkpt>
<trkpt lat="33.8102386" lon="-118.3939512">
  <ele>-0.11</ele>
  <time>2026-09-02T22:07:31Z</time>
  <course>186.48</course>
  <speed>0.7283543093852057</speed>
  <fix>3d</fix>
</trkpt>
<trkpt lat="33.8102385" lon="-118.3939513">
  <ele>-0.111</ele>
  <time>2026-09-02T22:07:31Z</time>
  <course>186.48</course>
  <speed>0.7283543093852057</speed>
  <fix>3d</fix>
</trkpt>
<trkpt lat="33.8102385" lon="-118.3939513">
  <ele>-0.111</ele>
  <time>2026-09-02T22:07:31Z</time>
  <course>186.48</course>
  <speed>0.7283543093852057</speed>
  <fix>3d</fix>
</trkpt>
<trkpt lat="33.8102384" lon="-118.3939514">
  <ele>-0.111</ele>
  <time>2026-09-02T22:07:31Z</time>
  <course>186.48</course>
  <speed>0.7283543093852057</speed>
  <fix>3d</fix>
</trkpt>
<trkpt lat="33.8102384" lon="-118.3939514">
  <ele>-0.111</ele>
  <time>2026-09-02T22:07:31Z</time>
  <course>186.48</course>
  <speed>0.7283543093852057</speed>
  <fix>3d</fix>
</trkpt>
<trkpt lat="33.8102383" lon="-118.3939515">
  <ele>-0.111</ele>
  <time>2026-09-02T22:07:31Z</time>
  <course>186.48</course>
  <speed>0.7283543093852057</speed>
  <fix>3d</fix>
</trkpt>
<trkpt lat="33.8102383" lon="-118.3939515">
  <ele>-0.112</ele>
  <time>2026-09-02T22:07:31Z</time>
  <course>186.48</course>
  <speed>0.7283543093852057</speed>
  <fix>3d</fix>
</trkpt>
<trkpt lat="33.8102383" lon="-118.3939516">
  <ele>-0.112</ele>
  <time>2026-09-02T22:07:31Z</time>
  <course>186.48</course>
  <speed>0.7283543093852057</speed>
  <fix>3d</fix>
</trkpt>
<trkpt lat="33.8102392" lon="-118.3939501">
  <ele>-0.1</ele>
  <time>2026-09-02T22:07:31Z</time>
  <course>223.26</course>
  <speed>0.73</speed>
  <fix>3d</fix>
</trkpt>
<trkpt lat="33.8102383" lon="-118.3939516">
  <ele>-0.112</ele>
  <time>2026-09-02T22:07:31Z</time>
  <course>186.48</course>
  <speed>0.7283543093852057</speed>
  <fix>3d</fix>
</trkpt>
<trkpt lat="33.8102382" lon="-118.3939517">
  <ele>-0.112</ele>
  <time>2026-09-02T22:07:31Z</time>
  <course>186.48</course>
  <speed>0.7283543093852057</speed>
  <fix>3d</fix>
</trkpt>
<trkpt lat="33.8102381" lon="-118.3939517">
  <ele>-0.113</ele>
  <time>2026-09-02T22:07:31Z</time>
  <course>186.48</course>
  <speed>0.7283543093852057</speed>
  <fix>3d</fix>
</trkpt>
<trkpt lat="33.8102381" lon="-118.3939518">
  <ele>-0.113</ele>
  <time>2026-09-02T22:07:31Z</time>
  <course>186.48</course>
  <speed>0.7283543093852057</speed>
  <fix>3d</fix>
</trkpt>
<trkpt lat="33.8102381" lon="-118.3939518">
  <ele>-0.113</ele>
  <time>2026-09-02T22:07:31Z</time>
  <course>186.48</course>
  <speed>0.7283543093852057</speed>
  <fix>3d</fix>
</trkpt>
<trkpt lat="33.810238" lon="-118.3939519">
  <ele>-0.113</ele>
  <time>2026-09-02T22:07:31Z</time>
  <course>186.48</course>
  <speed>0.7283543093852057</speed>
  <fix>3d</fix>
</trkpt>
<trkpt lat="33.810238" lon="-118.3939519">
  <ele>-0.114</ele>
  <time>2026-09-02T22:07:31Z</time>
  <course>186.48</course>
  <speed>0.7283543093852057</speed>
  <fix>3d</fix>
</trkpt>
<trkpt lat="33.8102379" lon="-118.3939519">
  <ele>-0.114</ele>
  <time>2026-09-02T22:07:31Z</time>
  <course>186.48</course>
  <speed>0.7283543093852057</speed>
  <fix>3d</fix>
</trkpt>
<trkpt lat="33.8102379" lon="-118.393952">
  <ele>-0.114</ele>
  <time>2026-09-02T22:07:31Z</time>
  <course>186.48</course>
  <speed>0.7283543093852057</speed>
  <fix>3d</fix>
</trkpt>
<trkpt lat="33.8102379" lon="-118.393952">
  <ele>-0.114</ele>
  <time>2026-09-02T22:07:31Z</time>
  <course>186.48</course>
  <speed>0.7283543093852057</speed>
  <fix>3d</fix>
</trkpt>
<trkpt lat="33.8102378" lon="-118.3939521">
  <ele>-0.115</ele>
  <time>2026-09-02T22:07:31Z</time>
  <course>186.48</course>
  <speed>0.7283543093852057</speed>
  <fix>3d</fix>
</trkpt>
<trkpt lat="33.8102378" lon="-118.3939521">
  <ele>-0.115</ele>
  <time>2026-09-02T22:07:31Z</time>
  <course>186.48</course>
  <speed>0.7283543093852057</speed>
  <fix>3d</fix>
</trkpt>
<trkpt lat="33.8102382" lon="-118.3939512">
  <ele>-0.1</ele>
  <time>2026-09-02T22:07:31Z</time>
  <course>223.26</course>
  <speed>0.73</speed>
  <fix>3d</fix>
</trkpt>
<trkpt lat="33.8102378" lon="-118.3939521">
  <ele>-0.115</ele>
  <time>2026-09-02T22:07:31Z</time>
  <course>186.48</course>
  <speed>0.7283543093852057</speed>
  <fix>3d</fix>
</trkpt>
<trkpt lat="33.8102377" lon="-118.3939522">
  <ele>-0.115</ele>
  <time>2026-09-02T22:07:31Z</time>
  <course>186.48</course>
  <speed>0.7283543093852057</speed>
  <fix>3d</fix>
</trkpt>
<trkpt lat="33.8102377" lon="-118.3939523">
  <ele>-0.115</ele>
  <time>2026-09-02T22:07:31Z</time>
  <course>186.48</course>
  <speed>0.7283543093852057</speed>
  <fix>3d</fix>
</trkpt>
<trkpt lat="33.8102376" lon="-118.3939523">
  <ele>-0.116</ele>
  <time>2026-09-02T22:07:31Z</time>
  <course>186.48</course>
  <speed>0.7283543093852057</speed>
  <fix>3d</fix>
</trkpt>
<trkpt lat="33.8102376" lon="-118.3939523">
  <ele>-0.116</ele>
  <time>2026-09-02T22:07:31Z</time>
  <course>186.48</course>
  <speed>0.7283543093852057</speed>
  <fix>3d</fix>
</trkpt>
<trkpt lat="33.8102375" lon="-118.3939524">
  <ele>-0.116</ele>
  <time>2026-09-02T22:07:31Z</time>
  <course>186.48</course>
  <speed>0.7283543093852057</speed>
  <fix>3d</fix>
</trkpt>
<trkpt lat="33.8102375" lon="-118.3939525">
  <ele>-0.116</ele>
  <time>2026-09-02T22:07:31Z</time>
  <course>186.48</course>
  <speed>0.7283543093852057</speed>
  <fix>3d</fix>
</trkpt>
<trkpt lat="33.8102375" lon="-118.3939525">
  <ele>-0.117</ele>
  <time>2026-09-02T22:07:31Z</time>
  <course>186.48</course>
  <speed>0.7283543093852057</speed>
  <fix>3d</fix>
</trkpt>
<trkpt lat="33.8102374" lon="-118.3939525">
  <ele>-0.117</ele>
  <time>2026-09-02T22:07:31Z</time>
  <course>186.48</course>
  <speed>0.7283543093852057</speed>
  <fix>3d</fix>
</trkpt>
<trkpt lat="33.8102374" lon="-118.3939526">
  <ele>-0.117</ele>
  <time>2026-09-02T22:07:31Z</time>
  <course>186.48</course>
  <speed>0.7283543093852057</speed>
  <fix>3d</fix>
</trkpt>
<trkpt lat="33.8102373" lon="-118.3939526">
  <ele>-0.117</ele>
  <time>2026-09-02T22:07:31Z</time>
  <course>186.48</course>
  <speed>0.7283543093852057</speed>
  <fix>3d</fix>
</trkpt>
<trkpt lat="33.8102373" lon="-118.3939527">
  <ele>-0.117</ele>
  <time>2026-09-02T22:07:31Z</time>
  <course>186.48</course>
  <speed>0.7283543093852057</speed>
  <fix>3d</fix>
</trkpt>
<trkpt lat="33.8102382" lon="-118.3939512">
  <ele>-0.1</ele>
  <time>2026-09-02T22:07:31Z</time>
  <course>223.26</course>
  <speed>0.73</speed>
  <fix>3d</fix>
</trkpt>
<trkpt lat="33.8102373" lon="-118.3939527">
  <ele>-0.117</ele>
  <time>2026-09-02T22:07:31Z</time>
  <course>186.48</course>
  <speed>0.7283543093852057</speed>
  <fix>3d</fix>
</trkpt>
<trkpt lat="33.8102371" lon="-118.3939528">
  <ele>-0.118</ele>
  <time>2026-09-02T22:07:31Z</time>
  <course>186.48</course>
  <speed>0.7283543093852057</speed>
  <fix>3d</fix>
</trkpt>
<trkpt lat="33.8102371" lon="-118.3939529">
  <ele>-0.118</ele>
  <time>2026-09-02T22:07:31Z</time>
  <course>186.48</course>
  <speed>0.7283543093852057</speed>
  <fix>3d</fix>
</trkpt>
<trkpt lat="33.810237" lon="-118.393953">
  <ele>-0.118</ele>
  <time>2026-09-02T22:07:31Z</time>
  <course>186.48</course>
  <speed>0.7283543093852057</speed>
  <fix>3d</fix>
</trkpt>
<trkpt lat="33.810237" lon="-118.393953">
  <ele>-0.118</ele>
  <time>2026-09-02T22:07:31Z</time>
  <course>186.48</course>
  <speed>0.7283543093852057</speed>
  <fix>3d</fix>
</trkpt>
<trkpt lat="33.810237" lon="-118.3939531">
  <ele>-0.118</ele>
  <time>2026-09-02T22:07:31Z</time>
  <course>186.48</course>
  <speed>0.7283543093852057</speed>
  <fix>3d</fix>
</trkpt>
<trkpt lat="33.8102369" lon="-118.3939531">
  <ele>-0.118</ele>
  <time>2026-09-02T22:07:31Z</time>
  <course>186.48</course>
  <speed>0.7283543093852057</speed>
  <fix>3d</fix>
</trkpt>
<trkpt lat="33.8102369" lon="-118.3939532">
  <ele>-0.118</ele>
  <time>2026-09-02T22:07:31Z</time>
  <course>186.48</course>
  <speed>0.7283543093852057</speed>
  <fix>3d</fix>
</trkpt>
<trkpt lat="33.8102368" lon="-118.3939532">
  <ele>-0.118</ele>
  <time>2026-09-02T22:07:31Z</time>
  <course>186.48</course>
  <speed>0.7283543093852057</speed>
  <fix>3d</fix>
</trkpt>
<trkpt lat="33.8102373" lon="-118.3939523">
  <ele>-0.1</ele>
  <time>2026-09-02T22:07:31Z</time>
  <course>223.26</course>
  <speed>0.73</speed>
  <fix>3d</fix>
</trkpt>
<trkpt lat="33.8102368" lon="-118.3939532">
  <ele>-0.118</ele>
  <time>2026-09-02T22:07:31Z</time>
  <course>186.48</course>
  <speed>0.7283543093852057</speed>
  <fix>3d</fix>
</trkpt>
<trkpt lat="33.8102368" lon="-118.3939533">
  <ele>-0.118</ele>
  <time>2026-09-02T22:07:31Z</time>
  <course>186.47</course>
  <speed>0.7283543093852057</speed>
  <fix>3d</fix>
</trkpt>
<trkpt lat="33.8102367" lon="-118.3939533">
  <ele>-0.118</ele>
  <time>2026-09-02T22:07:31Z</time>
  <course>186.47</course>
  <speed>0.7283543093852057</speed>
  <fix>3d</fix>
</trkpt>
<trkpt lat="33.8102367" lon="-118.3939534">
  <ele>-0.118</ele>
  <time>2026-09-02T22:07:31Z</time>
  <course>186.47</course>
  <speed>0.7283543093852057</speed>
  <fix>3d</fix>
</trkpt>
<trkpt lat="33.8102366" lon="-118.3939534">
  <ele>-0.118</ele>
  <time>2026-09-02T22:07:31Z</time>
  <course>186.47</course>
  <speed>0.7283543093852057</speed>
  <fix>3d</fix>
</trkpt>
<trkpt lat="33.8102366" lon="-118.3939535">
  <ele>-0.118</ele>
  <time>2026-09-02T22:07:31Z</time>
  <course>186.47</course>
  <speed>0.7283543093852057</speed>
  <fix>3d</fix>
</trkpt>
<trkpt lat="33.8102365" lon="-118.3939535">
  <ele>-0.118</ele>
  <time>2026-09-02T22:07:31Z</time>
  <course>186.47</course>
  <speed>0.7283543093852057</speed>
  <fix>3d</fix>
</trkpt>
<trkpt lat="33.8102365" lon="-118.3939536">
  <ele>-0.117</ele>
  <time>2026-09-02T22:07:31Z</time>
  <course>186.47</course>
  <speed>0.7283543093852057</speed>
  <fix>3d</fix>
</trkpt>
<trkpt lat="33.8102365" lon="-118.3939536">
  <ele>-0.117</ele>
  <time>2026-09-02T22:07:31Z</time>
  <course>186.47</course>
  <speed>0.7283543093852057</speed>
  <fix>3d</fix>
</trkpt>
<trkpt lat="33.8102364" lon="-118.3939537">
  <ele>-0.117</ele>
  <time>2026-09-02T22:07:31Z</time>
  <course>186.47</course>
  <speed>0.7283543093852057</speed>
  <fix>3d</fix>
</trkpt>
<trkpt lat="33.8102364" lon="-118.3939537">
  <ele>-0.117</ele>
  <time>2026-09-02T22:07:31Z</time>
  <course>186.47</course>
  <speed>0.7283543093852057</speed>
  <fix>3d</fix>
</trkpt>
<trkpt lat="33.8102364" lon="-118.3939537">
  <ele>-0.117</ele>
  <time>2026-09-02T22:07:31Z</time>
  <course>186.47</course>
  <speed>0.7283543093852057</speed>
  <fix>3d</fix>
</trkpt>
<trkpt lat="33.8102373" lon="-118.3939523">
  <ele>-0.1</ele>
  <time>2026-09-02T22:07:31Z</time>
  <course>223.26</course>
  <speed>0.73</speed>
  <fix>3d</fix>
</trkpt>
<trkpt lat="33.8102363" lon="-118.3939538">
  <ele>-0.117</ele>
  <time>2026-09-02T22:07:31Z</time>
  <course>186.47</course>
  <speed>0.7283543093852057</speed>
  <fix>3d</fix>
</trkpt>
<trkpt lat="33.8102363" lon="-118.3939538">
  <ele>-0.117</ele>
  <time>2026-09-02T22:07:31Z</time>
  <course>186.47</course>
  <speed>0.7283543093852057</speed>
  <fix>3d</fix>
</trkpt>
<trkpt lat="33.8102362" lon="-118.3939539">
  <ele>-0.116</ele>
  <time>2026-09-02T22:07:31Z</time>
  <course>186.47</course>
  <speed>0.7283543093852057</speed>
  <fix>3d</fix>
</trkpt>
<trkpt lat="33.8102362" lon="-118.3939539">
  <ele>-0.116</ele>
  <time>2026-09-02T22:07:31Z</time>
  <course>186.47</course>
  <speed>0.7213875518748573</speed>
  <fix>3d</fix>
</trkpt>
<trkpt lat="33.8102361" lon="-118.393954">
  <ele>-0.116</ele>
  <time>2026-09-02T22:07:31Z</time>
  <course>186.47</course>
  <speed>0.7213875518748573</speed>
  <fix>3d</fix>
</trkpt>
<trkpt lat="33.8102361" lon="-118.393954">
  <ele>-0.116</ele>
  <time>2026-09-02T22:07:31Z</time>
  <course>186.47</course>
  <speed>0.7213875518748573</speed>
  <fix>3d</fix>
</trkpt>
<trkpt lat="33.8102361" lon="-118.3939541">
  <ele>-0.116</ele>
  <time>2026-09-02T22:07:31Z</time>
  <course>186.47</course>
  <speed>0.7213875518748573</speed>
  <fix>3d</fix>
</trkpt>
<trkpt lat="33.810236" lon="-118.3939541">
  <ele>-0.116</ele>
  <time>2026-09-02T22:07:31Z</time>
  <course>186.47</course>
  <speed>0.7213875518748573</speed>
  <fix>3d</fix>
</trkpt>
<trkpt lat="33.810236" lon="-118.3939542">
  <ele>-0.116</ele>
  <time>2026-09-02T22:07:31Z</time>
  <course>186.47</course>
  <speed>0.7213875518748573</speed>
  <fix>3d</fix>
</trkpt>
<trkpt lat="33.810236" lon="-118.3939542">
  <ele>-0.116</ele>
  <time>2026-09-02T22:07:31Z</time>
  <course>186.47</course>
  <speed>0.7213875518748573</speed>
  <fix>3d</fix>
</trkpt>
<trkpt lat="33.8102359" lon="-118.3939542">
  <ele>-0.116</ele>
  <time>2026-09-02T22:07:31Z</time>
  <course>186.47</course>
  <speed>0.7213875518748573</speed>
  <fix>3d</fix>
</trkpt>
<trkpt lat="33.8102359" lon="-118.3939543">
  <ele>-0.116</ele>
  <time>2026-09-02T22:07:31Z</time>
  <course>186.47</course>
  <speed>0.7213875518748573</speed>
  <fix>3d</fix>
</trkpt>
<trkpt lat="33.8102363" lon="-118.3939533">
  <ele>-0.11</ele>
  <time>2026-09-02T22:07:31Z</time>
  <course>223.26</course>
  <speed>0.73</speed>
  <fix>3d</fix>
</trkpt>
<trkpt lat="33.8102359" lon="-118.3939543">
  <ele>-0.116</ele>
  <time>2026-09-02T22:07:31Z</time>
  <course>186.47</course>
  <speed>0.7283543093852057</speed>
  <fix>3d</fix>
</trkpt>
<trkpt lat="33.8102358" lon="-118.3939544">
  <ele>-0.115</ele>
  <time>2026-09-02T22:07:31Z</time>
  <course>186.47</course>
  <speed>0.7283543093852057</speed>
  <fix>3d</fix>
</trkpt>
<trkpt lat="33.8102358" lon="-118.3939544">
  <ele>-0.115</ele>
  <time>2026-09-02T22:07:31Z</time>
  <course>186.47</course>
  <speed>0.7213875518748573</speed>
  <fix>3d</fix>
</trkpt>
<trkpt lat="33.8102357" lon="-118.3939545">
  <ele>-0.115</ele>
  <time>2026-09-02T22:07:31Z</time>
  <course>186.47</course>
  <speed>0.7213875518748573</speed>
  <fix>3d</fix>
</trkpt>
<trkpt lat="33.8102357" lon="-118.3939545">
  <ele>-0.115</ele>
  <time>2026-09-02T22:07:31Z</time>
  <course>186.47</course>
  <speed>0.7213875518748573</speed>
  <fix>3d</fix>
</trkpt>
<trkpt lat="33.8102357" lon="-118.3939545">
  <ele>-0.115</ele>
  <time>2026-09-02T22:07:31Z</time>
  <course>186.47</course>
  <speed>0.7213875518748573</speed>
  <fix>3d</fix>
</trkpt>
<trkpt lat="33.8102356" lon="-118.3939546">
  <ele>-0.115</ele>
  <time>2026-09-02T22:07:31Z</time>
  <course>186.47</course>
  <speed>0.7213875518748573</speed>
  <fix>3d</fix>
</trkpt>
<trkpt lat="33.8102356" lon="-118.3939546">
  <ele>-0.115</ele>
  <time>2026-09-02T22:07:31Z</time>
  <course>186.47</course>
  <speed>0.7213875518748573</speed>
  <fix>3d</fix>
</trkpt>
<trkpt lat="33.8102355" lon="-118.3939547">
  <ele>-0.115</ele>
  <time>2026-09-02T22:07:31Z</time>
  <course>186.47</course>
  <speed>0.7213875518748573</speed>
  <fix>3d</fix>
</trkpt>
<trkpt lat="33.8102355" lon="-118.3939547">
  <ele>-0.115</ele>
  <time>2026-09-02T22:07:31Z</time>
  <course>186.47</course>
  <speed>0.7213875518748573</speed>
  <fix>3d</fix>
</trkpt>
<trkpt lat="33.8102355" lon="-118.3939547">
  <ele>-0.115</ele>
  <time>2026-09-02T22:07:31Z</time>
  <course>186.47</course>
  <speed>0.7213875518748573</speed>
  <fix>3d</fix>
</trkpt>
<trkpt lat="33.8102354" lon="-118.3939548">
  <ele>-0.115</ele>
  <time>2026-09-02T22:07:31Z</time>
  <course>186.47</course>
  <speed>0.7213875518748573</speed>
  <fix>3d</fix>
</trkpt>
<trkpt lat="33.8102354" lon="-118.3939548">
  <ele>-0.115</ele>
  <time>2026-09-02T22:07:31Z</time>
  <course>186.47</course>
  <speed>0.7213875518748573</speed>
  <fix>3d</fix>
</trkpt>
<trkpt lat="33.8102363" lon="-118.3939533">
  <ele>-0.11</ele>
  <time>2026-09-02T22:07:31Z</time>
  <course>223.26</course>
  <speed>0.73</speed>
  <fix>3d</fix>
</trkpt>
<trkpt lat="33.8102354" lon="-118.3939548">
  <ele>-0.115</ele>
  <time>2026-09-02T22:07:31Z</time>
  <course>186.47</course>
  <speed>0.7213875518748573</speed>
  <fix>3d</fix>
</trkpt>
<trkpt lat="33.8102353" lon="-118.393955">
  <ele>-0.115</ele>
  <time>2026-09-02T22:07:31Z</time>
  <course>186.47</course>
  <speed>0.7213875518748573</speed>
  <fix>3d</fix>
</trkpt>
<trkpt lat="33.8102352" lon="-118.393955">
  <ele>-0.115</ele>
  <time>2026-09-02T22:07:31Z</time>
  <course>186.47</course>
  <speed>0.7213875518748573</speed>
  <fix>3d</fix>
</trkpt>
<trkpt lat="33.8102352" lon="-118.3939551">
  <ele>-0.115</ele>
  <time>2026-09-02T22:07:31Z</time>
  <course>186.47</course>
  <speed>0.7213875518748573</speed>
  <fix>3d</fix>
</trkpt>
<trkpt lat="33.8102351" lon="-118.3939552">
  <ele>-0.114</ele>
  <time>2026-09-02T22:07:31Z</time>
  <course>186.47</course>
  <speed>0.7213875518748573</speed>
  <fix>3d</fix>
</trkpt>
<trkpt lat="33.8102351" lon="-118.3939552">
  <ele>-0.114</ele>
  <time>2026-09-02T22:07:31Z</time>
  <course>186.47</course>
  <speed>0.7213875518748573</speed>
  <fix>3d</fix>
</trkpt>
<trkpt lat="33.810235" lon="-118.3939553">
  <ele>-0.114</ele>
  <time>2026-09-02T22:07:31Z</time>
  <course>186.47</course>
  <speed>0.7213875518748573</speed>
  <fix>3d</fix>
</trkpt>
<trkpt lat="33.810235" lon="-118.3939553">
  <ele>-0.114</ele>
  <time>2026-09-02T22:07:31Z</time>
  <course>186.47</course>
  <speed>0.7213875518748573</speed>
  <fix>3d</fix>
</trkpt>
<trkpt lat="33.8102349" lon="-118.3939554">
  <ele>-0.114</ele>
  <time>2026-09-02T22:07:31Z</time>
  <course>186.47</course>
  <speed>0.7213875518748573</speed>
  <fix>3d</fix>
</trkpt>
<trkpt lat="33.8102353" lon="-118.3939544">
  <ele>-0.1</ele>
  <time>2026-09-02T22:07:31Z</time>
  <course>223.26</course>
  <speed>0.73</speed>
  <fix>3d</fix>
</trkpt>
<trkpt lat="33.8102349" lon="-118.3939554">
  <ele>-0.114</ele>
  <time>2026-09-02T22:07:31Z</time>
  <course>186.47</course>
  <speed>0.7213875518748573</speed>
  <fix>3d</fix>
</trkpt>
<trkpt lat="33.8102348" lon="-118.3939555">
  <ele>-0.114</ele>
  <time>2026-09-02T22:07:31Z</time>
  <course>186.47</course>
  <speed>0.7213875518748573</speed>
  <fix>3d</fix>
</trkpt>
<trkpt lat="33.8102348" lon="-118.3939555">
  <ele>-0.114</ele>
  <time>2026-09-02T22:07:31Z</time>
  <course>186.47</course>
  <speed>0.7213875518748573</speed>
  <fix>3d</fix>
</trkpt>
<trkpt lat="33.8102347" lon="-118.3939556">
  <ele>-0.114</ele>
  <time>2026-09-02T22:07:31Z</time>
  <course>186.47</course>
  <speed>0.7213875518748573</speed>
  <fix>3d</fix>
</trkpt>
<trkpt lat="33.8102347" lon="-118.3939556">
  <ele>-0.114</ele>
  <time>2026-09-02T22:07:31Z</time>
  <course>186.47</course>
  <speed>0.7213875518748573</speed>
  <fix>3d</fix>
</trkpt>
<trkpt lat="33.8102347" lon="-118.3939557">
  <ele>-0.114</ele>
  <time>2026-09-02T22:07:31Z</time>
  <course>186.47</course>
  <speed>0.7213875518748573</speed>
  <fix>3d</fix>
</trkpt>
<trkpt lat="33.8102346" lon="-118.3939557">
  <ele>-0.114</ele>
  <time>2026-09-02T22:07:31Z</time>
  <course>186.46</course>
  <speed>0.7213875518748573</speed>
  <fix>3d</fix>
</trkpt>
<trkpt lat="33.8102346" lon="-118.3939557">
  <ele>-0.114</ele>
  <time>2026-09-02T22:07:31Z</time>
  <course>186.46</course>
  <speed>0.7213875518748573</speed>
  <fix>3d</fix>
</trkpt>
<trkpt lat="33.8102346" lon="-118.3939558">
  <ele>-0.114</ele>
  <time>2026-09-02T22:07:31Z</time>
  <course>186.46</course>
  <speed>0.7213875518748573</speed>
  <fix>3d</fix>
</trkpt>
<trkpt lat="33.8102345" lon="-118.3939558">
  <ele>-0.114</ele>
  <time>2026-09-02T22:07:31Z</time>
  <course>186.46</course>
  <speed>0.7213875518748573</speed>
  <fix>3d</fix>
</trkpt>
<trkpt lat="33.8102345" lon="-118.3939559">
  <ele>-0.114</ele>
  <time>2026-09-02T22:07:31Z</time>
  <course>186.46</course>
  <speed>0.7213875518748573</speed>
  <fix>3d</fix>
</trkpt>
<trkpt lat="33.8102344" lon="-118.3939559">
  <ele>-0.114</ele>
  <time>2026-09-02T22:07:31Z</time>
  <course>186.46</course>
  <speed>0.7213875518748573</speed>
  <fix>3d</fix>
</trkpt>
<trkpt lat="33.8102353" lon="-118.3939544">
  <ele>-0.1</ele>
  <time>2026-09-02T22:07:31Z</time>
  <course>223.26</course>
  <speed>0.73</speed>
  <fix>3d</fix>
</trkpt>
<trkpt lat="33.8102344" lon="-118.3939559">
  <ele>-0.114</ele>
  <time>2026-09-02T22:07:31Z</time>
  <course>186.46</course>
  <speed>0.7213875518748573</speed>
  <fix>3d</fix>
</trkpt>
<trkpt lat="33.8102344" lon="-118.393956">
  <ele>-0.115</ele>
  <time>2026-09-02T22:07:31Z</time>
  <course>186.46</course>
  <speed>0.7213875518748573</speed>
  <fix>3d</fix>
</trkpt>
<trkpt lat="33.8102343" lon="-118.393956">
  <ele>-0.115</ele>
  <time>2026-09-02T22:07:31Z</time>
  <course>186.46</course>
  <speed>0.7213875518748573</speed>
  <fix>3d</fix>
</trkpt>
<trkpt lat="33.8102343" lon="-118.3939561">
  <ele>-0.115</ele>
  <time>2026-09-02T22:07:31Z</time>
  <course>186.46</course>
  <speed>0.7213875518748573</speed>
  <fix>3d</fix>
</trkpt>
<trkpt lat="33.8102343" lon="-118.3939561">
  <ele>-0.115</ele>
  <time>2026-09-02T22:07:31Z</time>
  <course>186.46</course>
  <speed>0.7213875518748573</speed>
  <fix>3d</fix>
</trkpt>
<trkpt lat="33.8102342" lon="-118.3939562">
  <ele>-0.115</ele>
  <time>2026-09-02T22:07:31Z</time>
  <course>186.46</course>
  <speed>0.7213875518748573</speed>
  <fix>3d</fix>
</trkpt>
<trkpt lat="33.8102342" lon="-118.3939562">
  <ele>-0.115</ele>
  <time>2026-09-02T22:07:31Z</time>
  <course>186.46</course>
  <speed>0.7213875518748573</speed>
  <fix>3d</fix>
</trkpt>
<trkpt lat="33.8102342" lon="-118.3939562">
  <ele>-0.115</ele>
  <time>2026-09-02T22:07:31Z</time>
  <course>186.46</course>
  <speed>0.7213875518748573</speed>
  <fix>3d</fix>
</trkpt>
<trkpt lat="33.8102341" lon="-118.3939563">
  <ele>-0.115</ele>
  <time>2026-09-02T22:07:31Z</time>
  <course>186.46</course>
  <speed>0.7213875518748573</speed>
  <fix>3d</fix>
</trkpt>
<trkpt lat="33.8102341" lon="-118.3939563">
  <ele>-0.114</ele>
  <time>2026-09-02T22:07:31Z</time>
  <course>186.46</course>
  <speed>0.7213875518748573</speed>
  <fix>3d</fix>
</trkpt>
<trkpt lat="33.810234" lon="-118.3939564">
  <ele>-0.115</ele>
  <time>2026-09-02T22:07:31Z</time>
  <course>186.46</course>
  <speed>0.7213875518748573</speed>
  <fix>3d</fix>
</trkpt>
<trkpt lat="33.810234" lon="-118.3939564">
  <ele>-0.114</ele>
  <time>2026-09-02T22:07:31Z</time>
  <course>186.46</course>
  <speed>0.7213875518748573</speed>
  <fix>3d</fix>
</trkpt>
<trkpt lat="33.810234" lon="-118.3939564">
  <ele>-0.115</ele>
  <time>2026-09-02T22:07:31Z</time>
  <course>186.46</course>
  <speed>0.7213875518748573</speed>
  <fix>3d</fix>
</trkpt>
<trkpt lat="33.8102344" lon="-118.3939555">
  <ele>-0.1</ele>
  <time>2026-09-02T22:07:31Z</time>
  <course>223.26</course>
  <speed>0.73</speed>
  <fix>3d</fix>
</trkpt>
<trkpt lat="33.810234" lon="-118.3939564">
  <ele>-0.114</ele>
  <time>2026-09-02T22:07:31Z</time>
  <course>186.46</course>
  <speed>0.7213875518748573</speed>
  <fix>3d</fix>
</trkpt>
<trkpt lat="33.8102339" lon="-118.3939565">
  <ele>-0.114</ele>
  <time>2026-09-02T22:07:31Z</time>
  <course>186.46</course>
  <speed>0.7213875518748573</speed>
  <fix>3d</fix>
</trkpt>
<trkpt lat="33.8102339" lon="-118.3939565">
  <ele>-0.114</ele>
  <time>2026-09-02T22:07:31Z</time>
  <course>186.46</course>
  <speed>0.7213875518748573</speed>
  <fix>3d</fix>
</trkpt>
<trkpt lat="33.8102338" lon="-118.3939566">
  <ele>-0.115</ele>
  <time>2026-09-02T22:07:31Z</time>
  <course>186.46</course>
  <speed>0.7213875518748573</speed>
  <fix>3d</fix>
</trkpt>
<trkpt lat="33.8102338" lon="-118.3939566">
  <ele>-0.115</ele>
  <time>2026-09-02T22:07:31Z</time>
  <course>186.46</course>
  <speed>0.7213875518748573</speed>
  <fix>3d</fix>
</trkpt>
<trkpt lat="33.8102338" lon="-118.3939567">
  <ele>-0.114</ele>
  <time>2026-09-02T22:07:31Z</time>
  <course>186.46</course>
  <speed>0.7213875518748573</speed>
  <fix>3d</fix>
</trkpt>
<trkpt lat="33.8102337" lon="-118.3939567">
  <ele>-0.114</ele>
  <time>2026-09-02T22:07:31Z</time>
  <course>186.46</course>
  <speed>0.7213875518748573</speed>
  <fix>3d</fix>
</trkpt>
<trkpt lat="33.8102337" lon="-118.3939568">
  <ele>-0.115</ele>
  <time>2026-09-02T22:07:31Z</time>
  <course>186.46</course>
  <speed>0.7213875518748573</speed>
  <fix>3d</fix>
</trkpt>
<trkpt lat="33.8102336" lon="-118.3939568">
  <ele>-0.115</ele>
  <time>2026-09-02T22:07:31Z</time>
  <course>186.46</course>
  <speed>0.7213875518748573</speed>
  <fix>3d</fix>
</trkpt>
<trkpt lat="33.8102336" lon="-118.3939569">
  <ele>-0.114</ele>
  <time>2026-09-02T22:07:31Z</time>
  <course>186.46</course>
  <speed>0.7213875518748573</speed>
  <fix>3d</fix>
</trkpt>
<trkpt lat="33.8102336" lon="-118.3939569">
  <ele>-0.115</ele>
  <time>2026-09-02T22:07:31Z</time>
  <course>186.46</course>
  <speed>0.7213875518748573</speed>
  <fix>3d</fix>
</trkpt>
<trkpt lat="33.8102335" lon="-118.3939569">
  <ele>-0.115</ele>
  <time>2026-09-02T22:07:31Z</time>
  <course>186.46</course>
  <speed>0.7213875518748573</speed>
  <fix>3d</fix>
</trkpt>
<trkpt lat="33.8102335" lon="-118.393957">
  <ele>-0.115</ele>
  <time>2026-09-02T22:07:31Z</time>
  <course>186.46</course>
  <speed>0.7213875518748573</speed>
  <fix>3d</fix>
</trkpt>
<trkpt lat="33.8102344" lon="-118.3939555">
  <ele>-0.1</ele>
  <time>2026-09-02T22:07:31Z</time>
  <course>223.26</course>
  <speed>0.73</speed>
  <fix>3d</fix>
</trkpt>
<trkpt lat="33.8102335" lon="-118.393957">
  <ele>-0.115</ele>
  <time>2026-09-02T22:07:31Z</time>
  <course>186.46</course>
  <speed>0.7213875518748573</speed>
  <fix>3d</fix>
</trkpt>
<trkpt lat="33.8102334" lon="-118.3939571">
  <ele>-0.115</ele>
  <time>2026-09-02T22:07:31Z</time>
  <course>186.46</course>
  <speed>0.7213875518748573</speed>
  <fix>3d</fix>
</trkpt>
<trkpt lat="33.8102333" lon="-118.3939571">
  <ele>-0.115</ele>
  <time>2026-09-02T22:07:31Z</time>
  <course>186.46</course>
  <speed>0.7213875518748573</speed>
  <fix>3d</fix>
</trkpt>
<trkpt lat="33.8102333" lon="-118.3939572">
  <ele>-0.115</ele>
  <time>2026-09-02T22:07:31Z</time>
  <course>186.46</course>
  <speed>0.7213875518748573</speed>
  <fix>3d</fix>
</trkpt>
<trkpt lat="33.8102333" lon="-118.3939572">
  <ele>-0.115</ele>
  <time>2026-09-02T22:07:31Z</time>
  <course>186.46</course>
  <speed>0.7213875518748573</speed>
  <fix>3d</fix>
</trkpt>
<trkpt lat="33.8102332" lon="-118.3939573">
  <ele>-0.115</ele>
  <time>2026-09-02T22:07:31Z</time>
  <course>186.46</course>
  <speed>0.7213875518748573</speed>
  <fix>3d</fix>
</trkpt>
<trkpt lat="33.8102332" lon="-118.3939573">
  <ele>-0.115</ele>
  <time>2026-09-02T22:07:31Z</time>
  <course>186.46</course>
  <speed>0.7213875518748573</speed>
  <fix>3d</fix>
</trkpt>
<trkpt lat="33.8102332" lon="-118.3939574">
  <ele>-0.115</ele>
  <time>2026-09-02T22:07:31Z</time>
  <course>186.46</course>
  <speed>0.7213875518748573</speed>
  <fix>3d</fix>
</trkpt>
<trkpt lat="33.8102331" lon="-118.3939574">
  <ele>-0.115</ele>
  <time>2026-09-02T22:07:31Z</time>
  <course>186.46</course>
  <speed>0.7213875518748573</speed>
  <fix>3d</fix>
</trkpt>
<trkpt lat="33.8102331" lon="-118.3939574">
  <ele>-0.115</ele>
  <time>2026-09-02T22:07:31Z</time>
  <course>186.46</course>
  <speed>0.7213875518748573</speed>
  <fix>3d</fix>
</trkpt>
<trkpt lat="33.810233" lon="-118.3939575">
  <ele>-0.115</ele>
  <time>2026-09-02T22:07:31Z</time>
  <course>186.46</course>
  <speed>0.7213875518748573</speed>
  <fix>3d</fix>
</trkpt>
<trkpt lat="33.810233" lon="-118.3939575">
  <ele>-0.115</ele>
  <time>2026-09-02T22:07:31Z</time>
  <course>186.46</course>
  <speed>0.7213875518748573</speed>
  <fix>3d</fix>
</trkpt>
<trkpt lat="33.8102334" lon="-118.3939566">
  <ele>-0.1</ele>
  <time>2026-09-02T22:07:31Z</time>
  <course>223.26</course>
  <speed>0.73</speed>
  <fix>3d</fix>
</trkpt>
<trkpt lat="33.810233" lon="-118.3939575">
  <ele>-0.115</ele>
  <time>2026-09-02T22:07:31Z</time>
  <course>186.46</course>
  <speed>0.7213875518748573</speed>
  <fix>3d</fix>
</trkpt>
<trkpt lat="33.8102329" lon="-118.3939576">
  <ele>-0.115</ele>
  <time>2026-09-02T22:07:31Z</time>
  <course>186.46</course>
  <speed>0.7213875518748573</speed>
  <fix>3d</fix>
</trkpt>
<trkpt lat="33.8102329" lon="-118.3939576">
  <ele>-0.115</ele>
  <time>2026-09-02T22:07:31Z</time>
  <course>186.46</course>
  <speed>0.7213875518748573</speed>
  <fix>3d</fix>
</trkpt>
<trkpt lat="33.8102328" lon="-118.3939577">
  <ele>-0.115</ele>
  <time>2026-09-02T22:07:31Z</time>
  <course>186.46</course>
  <speed>0.7213875518748573</speed>
  <fix>3d</fix>
</trkpt>
<trkpt lat="33.8102328" lon="-118.3939578">
  <ele>-0.115</ele>
  <time>2026-09-02T22:07:31Z</time>
  <course>186.46</course>
  <speed>0.7213875518748573</speed>
  <fix>3d</fix>
</trkpt>
<trkpt lat="33.8102327" lon="-118.3939578">
  <ele>-0.115</ele>
  <time>2026-09-02T22:07:31Z</time>
  <course>186.46</course>
  <speed>0.7213875518748573</speed>
  <fix>3d</fix>
</trkpt>
<trkpt lat="33.8102327" lon="-118.3939579">
  <ele>-0.115</ele>
  <time>2026-09-02T22:07:31Z</time>
  <course>186.46</course>
  <speed>0.7213875518748573</speed>
  <fix>3d</fix>
</trkpt>
<trkpt lat="33.8102327" lon="-118.3939579">
  <ele>-0.115</ele>
  <time>2026-09-02T22:07:31Z</time>
  <course>186.46</course>
  <speed>0.7213875518748573</speed>
  <fix>3d</fix>
</trkpt>
<trkpt lat="33.8102326" lon="-118.393958">
  <ele>-0.115</ele>
  <time>2026-09-02T22:07:31Z</time>
  <course>186.45</course>
  <speed>0.7213875518748573</speed>
  <fix>3d</fix>
</trkpt>
<trkpt lat="33.8102326" lon="-118.393958">
  <ele>-0.115</ele>
  <time>2026-09-02T22:07:31Z</time>
  <course>186.45</course>
  <speed>0.7213875518748573</speed>
  <fix>3d</fix>
</trkpt>
<trkpt lat="33.8102325" lon="-118.3939581">
  <ele>-0.115</ele>
  <time>2026-09-02T22:07:31Z</time>
  <course>186.45</course>
  <speed>0.7213875518748573</speed>
  <fix>3d</fix>
</trkpt>
<trkpt lat="33.8102325" lon="-118.3939581">
  <ele>-0.115</ele>
  <time>2026-09-02T22:07:31Z</time>
  <course>186.45</course>
  <speed>0.7213875518748573</speed>
  <fix>3d</fix>
</trkpt>
<trkpt lat="33.8102334" lon="-118.3939566">
  <ele>-0.1</ele>
  <time>2026-09-02T22:07:31Z</time>
  <course>223.26</course>
  <speed>0.73</speed>
  <fix>3d</fix>
</trkpt>
<trkpt lat="33.8102324" lon="-118.3939581">
  <ele>-0.115</ele>
  <time>2026-09-02T22:07:31Z</time>
  <course>186.45</course>
  <speed>0.7213875518748573</speed>
  <fix>3d</fix>
</trkpt>
<trkpt lat="33.8102324" lon="-118.3939582">
  <ele>-0.115</ele>
  <time>2026-09-02T22:07:31Z</time>
  <course>186.45</course>
  <speed>0.7213875518748573</speed>
  <fix>3d</fix>
</trkpt>
<trkpt lat="33.8102324" lon="-118.3939582">
  <ele>-0.115</ele>
  <time>2026-09-02T22:07:31Z</time>
  <course>186.45</course>
  <speed>0.7213875518748573</speed>
  <fix>3d</fix>
</trkpt>
<trkpt lat="33.8102323" lon="-118.3939583">
  <ele>-0.115</ele>
  <time>2026-09-02T22:07:31Z</time>
  <course>186.45</course>
  <speed>0.7213875518748573</speed>
  <fix>3d</fix>
</trkpt>
<trkpt lat="33.8102323" lon="-118.3939584">
  <ele>-0.115</ele>
  <time>2026-09-02T22:07:31Z</time>
  <course>186.45</course>
  <speed>0.7213875518748573</speed>
  <fix>3d</fix>
</trkpt>
<trkpt lat="33.8102322" lon="-118.3939584">
  <ele>-0.115</ele>
  <time>2026-09-02T22:07:31Z</time>
  <course>186.45</course>
  <speed>0.7213875518748573</speed>
  <fix>3d</fix>
</trkpt>
<trkpt lat="33.8102322" lon="-118.3939584">
  <ele>-0.115</ele>
  <time>2026-09-02T22:07:31Z</time>
  <course>186.45</course>
  <speed>0.7213875518748573</speed>
  <fix>3d</fix>
</trkpt>
<trkpt lat="33.8102322" lon="-118.3939585">
  <ele>-0.115</ele>
  <time>2026-09-02T22:07:31Z</time>
  <course>186.45</course>
  <speed>0.7213875518748573</speed>
  <fix>3d</fix>
</trkpt>
<trkpt lat="33.8102321" lon="-118.3939585">
  <ele>-0.115</ele>
  <time>2026-09-02T22:07:31Z</time>
  <course>186.45</course>
  <speed>0.7213875518748573</speed>
  <fix>3d</fix>
</trkpt>
<trkpt lat="33.8102321" lon="-118.3939586">
  <ele>-0.114</ele>
  <time>2026-09-02T22:07:31Z</time>
  <course>186.45</course>
  <speed>0.7213875518748573</speed>
  <fix>3d</fix>
</trkpt>
<trkpt lat="33.8102321" lon="-118.3939586">
  <ele>-0.114</ele>
  <time>2026-09-02T22:07:31Z</time>
  <course>186.45</course>
  <speed>0.7213875518748573</speed>
  <fix>3d</fix>
</trkpt>
<trkpt lat="33.8102325" lon="-118.3939577">
  <ele>-0.1</ele>
  <time>2026-09-02T22:07:32Z</time>
  <course>223.26</course>
  <speed>0.73</speed>
  <fix>3d</fix>
</trkpt>
<trkpt lat="33.810232" lon="-118.3939586">
  <ele>-0.114</ele>
  <time>2026-09-02T22:07:32Z</time>
  <course>186.45</course>
  <speed>0.7213875518748573</speed>
  <fix>3d</fix>
</trkpt>
<trkpt lat="33.810232" lon="-118.3939586">
  <ele>-0.114</ele>
  <time>2026-09-02T22:07:32Z</time>
  <course>186.45</course>
  <speed>0.7213875518748573</speed>
  <fix>3d</fix>
</trkpt>
<trkpt lat="33.810232" lon="-118.3939587">
  <ele>-0.114</ele>
  <time>2026-09-02T22:07:32Z</time>
  <course>186.45</course>
  <speed>0.7213875518748573</speed>
  <fix>3d</fix>
</trkpt>
<trkpt lat="33.8102319" lon="-118.3939587">
  <ele>-0.114</ele>
  <time>2026-09-02T22:07:32Z</time>
  <course>186.45</course>
  <speed>0.7213875518748573</speed>
  <fix>3d</fix>
</trkpt>
<trkpt lat="33.8102319" lon="-118.3939588">
  <ele>-0.114</ele>
  <time>2026-09-02T22:07:32Z</time>
  <course>186.45</course>
  <speed>0.7213875518748573</speed>
  <fix>3d</fix>
</trkpt>
<trkpt lat="33.8102319" lon="-118.3939588">
  <ele>-0.113</ele>
  <time>2026-09-02T22:07:32Z</time>
  <course>186.45</course>
  <speed>0.7213875518748573</speed>
  <fix>3d</fix>
</trkpt>
<trkpt lat="33.8102318" lon="-118.3939588">
  <ele>-0.113</ele>
  <time>2026-09-02T22:07:32Z</time>
  <course>186.45</course>
  <speed>0.7213875518748573</speed>
  <fix>3d</fix>
</trkpt>
<trkpt lat="33.8102318" lon="-118.3939589">
  <ele>-0.113</ele>
  <time>2026-09-02T22:07:32Z</time>
  <course>186.45</course>
  <speed>0.7213875518748573</speed>
  <fix>3d</fix>
</trkpt>
<trkpt lat="33.8102318" lon="-118.3939589">
  <ele>-0.113</ele>
  <time>2026-09-02T22:07:32Z</time>
  <course>186.45</course>
  <speed>0.7213875518748573</speed>
  <fix>3d</fix>
</trkpt>
<trkpt lat="33.8102317" lon="-118.393959">
  <ele>-0.113</ele>
  <time>2026-09-02T22:07:32Z</time>
  <course>186.45</course>
  <speed>0.7213875518748573</speed>
  <fix>3d</fix>
</trkpt>
<trkpt lat="33.8102317" lon="-118.393959">
  <ele>-0.113</ele>
  <time>2026-09-02T22:07:32Z</time>
  <course>186.45</course>
  <speed>0.7213875518748573</speed>
  <fix>3d</fix>
</trkpt>
<trkpt lat="33.8102316" lon="-118.3939591">
  <ele>-0.113</ele>
  <time>2026-09-02T22:07:32Z</time>
  <course>186.45</course>
  <speed>0.7213875518748573</speed>
  <fix>3d</fix>
</trkpt>
<trkpt lat="33.8102316" lon="-118.3939591">
  <ele>-0.113</ele>
  <time>2026-09-02T22:07:32Z</time>
  <course>186.45</course>
  <speed>0.7213875518748573</speed>
  <fix>3d</fix>
</trkpt>
<trkpt lat="33.8102316" lon="-118.3939591">
  <ele>-0.113</ele>
  <time>2026-09-02T22:07:32Z</time>
  <course>186.45</course>
  <speed>0.7213875518748573</speed>
  <fix>3d</fix>
</trkpt>
<trkpt lat="33.8102325" lon="-118.3939577">
  <ele>-0.1</ele>
  <time>2026-09-02T22:07:32Z</time>
  <course>223.26</course>
  <speed>0.73</speed>
  <fix>3d</fix>
</trkpt>
<trkpt lat="33.8102316" lon="-118.3939591">
  <ele>-0.113</ele>
  <time>2026-09-02T22:07:32Z</time>
  <course>186.45</course>
  <speed>0.7213875518748573</speed>
  <fix>3d</fix>
</trkpt>
<trkpt lat="33.8102315" lon="-118.3939592">
  <ele>-0.113</ele>
  <time>2026-09-02T22:07:32Z</time>
  <course>186.45</course>
  <speed>0.7213875518748573</speed>
  <fix>3d</fix>
</trkpt>
<trkpt lat="33.8102315" lon="-118.3939593">
  <ele>-0.112</ele>
  <time>2026-09-02T22:07:32Z</time>
  <course>186.45</course>
  <speed>0.7213875518748573</speed>
  <fix>3d</fix>
</trkpt>
<trkpt lat="33.8102314" lon="-118.3939593">
  <ele>-0.112</ele>
  <time>2026-09-02T22:07:32Z</time>
  <course>186.45</course>
  <speed>0.7213875518748573</speed>
  <fix>3d</fix>
</trkpt>
<trkpt lat="33.8102314" lon="-118.3939593">
  <ele>-0.112</ele>
  <time>2026-09-02T22:07:32Z</time>
  <course>186.45</course>
  <speed>0.7213875518748573</speed>
  <fix>3d</fix>
</trkpt>
<trkpt lat="33.8102314" lon="-118.3939594">
  <ele>-0.112</ele>
  <time>2026-09-02T22:07:32Z</time>
  <course>186.45</course>
  <speed>0.7213875518748573</speed>
  <fix>3d</fix>
</trkpt>
<trkpt lat="33.8102313" lon="-118.3939594">
  <ele>-0.112</ele>
  <time>2026-09-02T22:07:32Z</time>
  <course>186.45</course>
  <speed>0.7213875518748573</speed>
  <fix>3d</fix>
</trkpt>
<trkpt lat="33.8102313" lon="-118.3939595">
  <ele>-0.112</ele>
  <time>2026-09-02T22:07:32Z</time>
  <course>186.45</course>
  <speed>0.7213875518748573</speed>
  <fix>3d</fix>
</trkpt>
<trkpt lat="33.8102312" lon="-118.3939595">
  <ele>-0.112</ele>
  <time>2026-09-02T22:07:32Z</time>
  <course>186.45</course>
  <speed>0.7213875518748573</speed>
  <fix>3d</fix>
</trkpt>
<trkpt lat="33.8102312" lon="-118.3939596">
  <ele>-0.112</ele>
  <time>2026-09-02T22:07:32Z</time>
  <course>186.45</course>
  <speed>0.7213875518748573</speed>
  <fix>3d</fix>
</trkpt>
<trkpt lat="33.8102312" lon="-118.3939596">
  <ele>-0.112</ele>
  <time>2026-09-02T22:07:32Z</time>
  <course>186.45</course>
  <speed>0.7213875518748573</speed>
  <fix>3d</fix>
</trkpt>
<trkpt lat="33.8102311" lon="-118.3939596">
  <ele>-0.112</ele>
  <time>2026-09-02T22:07:32Z</time>
  <course>186.45</course>
  <speed>0.7213875518748573</speed>
  <fix>3d</fix>
</trkpt>
<trkpt lat="33.8102311" lon="-118.3939597">
  <ele>-0.112</ele>
  <time>2026-09-02T22:07:32Z</time>
  <course>186.45</course>
  <speed>0.7213875518748573</speed>
  <fix>3d</fix>
</trkpt>
<trkpt lat="33.8102311" lon="-118.3939597">
  <ele>-0.112</ele>
  <time>2026-09-02T22:07:32Z</time>
  <course>186.45</course>
  <speed>0.7213875518748573</speed>
  <fix>3d</fix>
</trkpt>
<trkpt lat="33.8102315" lon="-118.3939588">
  <ele>-0.11</ele>
  <time>2026-09-02T22:07:32Z</time>
  <course>223.26</course>
  <speed>0.73</speed>
  <fix>3d</fix>
</trkpt>
<trkpt lat="33.810231" lon="-118.3939598">
  <ele>-0.112</ele>
  <time>2026-09-02T22:07:32Z</time>
  <course>186.45</course>
  <speed>0.7213875518748573</speed>
  <fix>3d</fix>
</trkpt>
<trkpt lat="33.810231" lon="-118.3939598">
  <ele>-0.111</ele>
  <time>2026-09-02T22:07:32Z</time>
  <course>186.45</course>
  <speed>0.7213875518748573</speed>
  <fix>3d</fix>
</trkpt>
<trkpt lat="33.8102309" lon="-118.3939598">
  <ele>-0.111</ele>
  <time>2026-09-02T22:07:32Z</time>
  <course>186.45</course>
  <speed>0.7213875518748573</speed>
  <fix>3d</fix>
</trkpt>
<trkpt lat="33.8102309" lon="-118.3939599">
  <ele>-0.111</ele>
  <time>2026-09-02T22:07:32Z</time>
  <course>186.45</course>
  <speed>0.7213875518748573</speed>
  <fix>3d</fix>
</trkpt>
<trkpt lat="33.8102309" lon="-118.3939599">
  <ele>-0.111</ele>
  <time>2026-09-02T22:07:32Z</time>
  <course>186.45</course>
  <speed>0.7213875518748573</speed>
  <fix>3d</fix>
</trkpt>
<trkpt lat="33.8102308" lon="-118.39396">
  <ele>-0.111</ele>
  <time>2026-09-02T22:07:32Z</time>
  <course>186.45</course>
  <speed>0.7213875518748573</speed>
  <fix>3d</fix>
</trkpt>
<trkpt lat="33.8102307" lon="-118.3939601">
  <ele>-0.111</ele>
  <time>2026-09-02T22:07:32Z</time>
  <course>186.45</course>
  <speed>0.7213875518748573</speed>
  <fix>3d</fix>
</trkpt>
<trkpt lat="33.8102307" lon="-118.3939601">
  <ele>-0.111</ele>
  <time>2026-09-02T22:07:32Z</time>
  <course>186.45</course>
  <speed>0.7213875518748573</speed>
  <fix>3d</fix>
</trkpt>
<trkpt lat="33.8102306" lon="-118.3939602">
  <ele>-0.111</ele>
  <time>2026-09-02T22:07:32Z</time>
  <course>186.45</course>
  <speed>0.7213875518748573</speed>
  <fix>3d</fix>
</trkpt>
<trkpt lat="33.8102306" lon="-118.3939602">
  <ele>-0.111</ele>
  <time>2026-09-02T22:07:32Z</time>
  <course>186.45</course>
  <speed>0.7213875518748573</speed>
  <fix>3d</fix>
</trkpt>
<trkpt lat="33.8102315" lon="-118.3939588">
  <ele>-0.11</ele>
  <time>2026-09-02T22:07:32Z</time>
  <course>223.26</course>
  <speed>0.73</speed>
  <fix>3d</fix>
</trkpt>
<trkpt lat="33.8102306" lon="-118.3939602">
  <ele>-0.111</ele>
  <time>2026-09-02T22:07:32Z</time>
  <course>186.45</course>
  <speed>0.7213875518748573</speed>
  <fix>3d</fix>
</trkpt>
<trkpt lat="33.8102305" lon="-118.3939603">
  <ele>-0.111</ele>
  <time>2026-09-02T22:07:32Z</time>
  <course>186.45</course>
  <speed>0.7213875518748573</speed>
  <fix>3d</fix>
</trkpt>
<trkpt lat="33.8102305" lon="-118.3939604">
  <ele>-0.111</ele>
  <time>2026-09-02T22:07:32Z</time>
  <course>186.45</course>
  <speed>0.7213875518748573</speed>
  <fix>3d</fix>
</trkpt>
<trkpt lat="33.8102304" lon="-118.3939604">
  <ele>-0.111</ele>
  <time>2026-09-02T22:07:32Z</time>
  <course>186.45</course>
  <speed>0.7213875518748573</speed>
  <fix>3d</fix>
</trkpt>
<trkpt lat="33.8102304" lon="-118.3939605">
  <ele>-0.111</ele>
  <time>2026-09-02T22:07:32Z</time>
  <course>186.45</course>
  <speed>0.7213875518748573</speed>
  <fix>3d</fix>
</trkpt>
<trkpt lat="33.8102304" lon="-118.3939605">
  <ele>-0.111</ele>
  <time>2026-09-02T22:07:32Z</time>
  <course>186.45</course>
  <speed>0.7213875518748573</speed>
  <fix>3d</fix>
</trkpt>
<trkpt lat="33.8102303" lon="-118.3939605">
  <ele>-0.111</ele>
  <time>2026-09-02T22:07:32Z</time>
  <course>186.44</course>
  <speed>0.7213875518748573</speed>
  <fix>3d</fix>
</trkpt>
<trkpt lat="33.8102303" lon="-118.3939606">
  <ele>-0.111</ele>
  <time>2026-09-02T22:07:32Z</time>
  <course>186.44</course>
  <speed>0.7213875518748573</speed>
  <fix>3d</fix>
</trkpt>
<trkpt lat="33.8102303" lon="-118.3939606">
  <ele>-0.111</ele>
  <time>2026-09-02T22:07:32Z</time>
  <course>186.44</course>
  <speed>0.7213875518748573</speed>
  <fix>3d</fix>
</trkpt>
<trkpt lat="33.8102302" lon="-118.3939607">
  <ele>-0.111</ele>
  <time>2026-09-02T22:07:32Z</time>
  <course>186.44</course>
  <speed>0.7213875518748573</speed>
  <fix>3d</fix>
</trkpt>
<trkpt lat="33.8102301" lon="-118.3939608">
  <ele>-0.111</ele>
  <time>2026-09-02T22:07:32Z</time>
  <course>186.44</course>
  <speed>0.7213875518748573</speed>
  <fix>3d</fix>
</trkpt>
<trkpt lat="33.8102306" lon="-118.3939599">
  <ele>-0.1</ele>
  <time>2026-09-02T22:07:32Z</time>
  <course>223.26</course>
  <speed>0.73</speed>
  <fix>3d</fix>
</trkpt>
<trkpt lat="33.8102301" lon="-118.3939608">
  <ele>-0.111</ele>
  <time>2026-09-02T22:07:32Z</time>
  <course>186.44</course>
  <speed>0.7213875518748573</speed>
  <fix>3d</fix>
</trkpt>
<trkpt lat="33.8102301" lon="-118.3939609">
  <ele>-0.11</ele>
  <time>2026-09-02T22:07:32Z</time>
  <course>186.44</course>
  <speed>0.7213875518748573</speed>
  <fix>3d</fix>
</trkpt>
<trkpt lat="33.81023" lon="-118.3939609">
  <ele>-0.11</ele>
  <time>2026-09-02T22:07:32Z</time>
  <course>186.44</course>
  <speed>0.7213875518748573</speed>
  <fix>3d</fix>
</trkpt>
<trkpt lat="33.81023" lon="-118.393961">
  <ele>-0.11</ele>
  <time>2026-09-02T22:07:32Z</time>
  <course>186.44</course>
  <speed>0.7213875518748573</speed>
  <fix>3d</fix>
</trkpt>
<trkpt lat="33.8102299" lon="-118.393961">
  <ele>-0.11</ele>
  <time>2026-09-02T22:07:32Z</time>
  <course>186.44</course>
  <speed>0.7213875518748573</speed>
  <fix>3d</fix>
</trkpt>
<trkpt lat="33.8102299" lon="-118.3939611">
  <ele>-0.11</ele>
  <time>2026-09-02T22:07:32Z</time>
  <course>186.44</course>
  <speed>0.7213875518748573</speed>
  <fix>3d</fix>
</trkpt>
<trkpt lat="33.8102298" lon="-118.3939611">
  <ele>-0.11</ele>
  <time>2026-09-02T22:07:32Z</time>
  <course>186.44</course>
  <speed>0.7213875518748573</speed>
  <fix>3d</fix>
</trkpt>
<trkpt lat="33.8102298" lon="-118.3939612">
  <ele>-0.11</ele>
  <time>2026-09-02T22:07:32Z</time>
  <course>186.44</course>
  <speed>0.7213875518748573</speed>
  <fix>3d</fix>
</trkpt>
<trkpt lat="33.8102298" lon="-118.3939612">
  <ele>-0.11</ele>
  <time>2026-09-02T22:07:32Z</time>
  <course>186.44</course>
  <speed>0.7213875518748573</speed>
  <fix>3d</fix>
</trkpt>
<trkpt lat="33.8102297" lon="-118.3939613">
  <ele>-0.11</ele>
  <time>2026-09-02T22:07:32Z</time>
  <course>186.44</course>
  <speed>0.7213875518748573</speed>
  <fix>3d</fix>
</trkpt>
<trkpt lat="33.8102297" lon="-118.3939613">
  <ele>-0.11</ele>
  <time>2026-09-02T22:07:32Z</time>
  <course>186.44</course>
  <speed>0.7213875518748573</speed>
  <fix>3d</fix>
</trkpt>
<trkpt lat="33.8102306" lon="-118.3939599">
  <ele>-0.1</ele>
  <time>2026-09-02T22:07:32Z</time>
  <course>223.26</course>
  <speed>0.73</speed>
  <fix>3d</fix>
</trkpt>
<trkpt lat="33.8102297" lon="-118.3939613">
  <ele>-0.109</ele>
  <time>2026-09-02T22:07:32Z</time>
  <course>186.44</course>
  <speed>0.7213875518748573</speed>
  <fix>3d</fix>
</trkpt>
<trkpt lat="33.8102296" lon="-118.3939614">
  <ele>-0.109</ele>
  <time>2026-09-02T22:07:32Z</time>
  <course>186.44</course>
  <speed>0.7213875518748573</speed>
  <fix>3d</fix>
</trkpt>
<trkpt lat="33.8102295" lon="-118.3939615">
  <ele>-0.109</ele>
  <time>2026-09-02T22:07:32Z</time>
  <course>186.44</course>
  <speed>0.7213875518748573</speed>
  <fix>3d</fix>
</trkpt>
<trkpt lat="33.8102295" lon="-118.3939615">
  <ele>-0.109</ele>
  <time>2026-09-02T22:07:32Z</time>
  <course>186.44</course>
  <speed>0.7213875518748573</speed>
  <fix>3d</fix>
</trkpt>
<trkpt lat="33.8102294" lon="-118.3939616">
  <ele>-0.109</ele>
  <time>2026-09-02T22:07:32Z</time>
  <course>186.44</course>
  <speed>0.7213875518748573</speed>
  <fix>3d</fix>
</trkpt>
<trkpt lat="33.8102294" lon="-118.3939616">
  <ele>-0.109</ele>
  <time>2026-09-02T22:07:32Z</time>
  <course>186.44</course>
  <speed>0.7213875518748573</speed>
  <fix>3d</fix>
</trkpt>
<trkpt lat="33.8102294" lon="-118.3939616">
  <ele>-0.109</ele>
  <time>2026-09-02T22:07:32Z</time>
  <course>186.44</course>
  <speed>0.7213875518748573</speed>
  <fix>3d</fix>
</trkpt>
<trkpt lat="33.8102293" lon="-118.3939617">
  <ele>-0.109</ele>
  <time>2026-09-02T22:07:32Z</time>
  <course>186.44</course>
  <speed>0.7213875518748573</speed>
  <fix>3d</fix>
</trkpt>
<trkpt lat="33.8102293" lon="-118.3939617">
  <ele>-0.109</ele>
  <time>2026-09-02T22:07:32Z</time>
  <course>186.44</course>
  <speed>0.7213875518748573</speed>
  <fix>3d</fix>
</trkpt>
<trkpt lat="33.8102293" lon="-118.3939618">
  <ele>-0.109</ele>
  <time>2026-09-02T22:07:32Z</time>
  <course>186.44</course>
  <speed>0.7213875518748573</speed>
  <fix>3d</fix>
</trkpt>
<trkpt lat="33.8102292" lon="-118.3939618">
  <ele>-0.109</ele>
  <time>2026-09-02T22:07:32Z</time>
  <course>186.44</course>
  <speed>0.7213875518748573</speed>
  <fix>3d</fix>
</trkpt>
<trkpt lat="33.8102292" lon="-118.3939619">
  <ele>-0.109</ele>
  <time>2026-09-02T22:07:32Z</time>
  <course>186.44</course>
  <speed>0.7213875518748573</speed>
  <fix>3d</fix>
</trkpt>
<trkpt lat="33.8102296" lon="-118.393961">
  <ele>-0.1</ele>
  <time>2026-09-02T22:07:32Z</time>
  <course>223.26</course>
  <speed>0.73</speed>
  <fix>3d</fix>
</trkpt>
<trkpt lat="33.8102292" lon="-118.3939619">
  <ele>-0.109</ele>
  <time>2026-09-02T22:07:32Z</time>
  <course>186.44</course>
  <speed>0.7213875518748573</speed>
  <fix>3d</fix>
</trkpt>
<trkpt lat="33.8102291" lon="-118.3939619">
  <ele>-0.109</ele>
  <time>2026-09-02T22:07:32Z</time>
  <course>186.44</course>
  <speed>0.7213875518748573</speed>
  <fix>3d</fix>
</trkpt>
<trkpt lat="33.8102291" lon="-118.393962">
  <ele>-0.109</ele>
  <time>2026-09-02T22:07:32Z</time>
  <course>186.44</course>
  <speed>0.7213875518748573</speed>
  <fix>3d</fix>
</trkpt>
<trkpt lat="33.810229" lon="-118.393962">
  <ele>-0.109</ele>
  <time>2026-09-02T22:07:32Z</time>
  <course>186.44</course>
  <speed>0.7213875518748573</speed>
  <fix>3d</fix>
</trkpt>
<trkpt lat="33.810229" lon="-118.3939621">
  <ele>-0.109</ele>
  <time>2026-09-02T22:07:32Z</time>
  <course>186.44</course>
  <speed>0.7213875518748573</speed>
  <fix>3d</fix>
</trkpt>
<trkpt lat="33.8102289" lon="-118.3939621">
  <ele>-0.109</ele>
  <time>2026-09-02T22:07:32Z</time>
  <course>186.44</course>
  <speed>0.7213875518748573</speed>
  <fix>3d</fix>
</trkpt>
<trkpt lat="33.8102289" lon="-118.3939622">
  <ele>-0.109</ele>
  <time>2026-09-02T22:07:32Z</time>
  <course>186.44</course>
  <speed>0.7213875518748573</speed>
  <fix>3d</fix>
</trkpt>
<trkpt lat="33.8102288" lon="-118.3939622">
  <ele>-0.109</ele>
  <time>2026-09-02T22:07:32Z</time>
  <course>186.44</course>
  <speed>0.7213875518748573</speed>
  <fix>3d</fix>
</trkpt>
<trkpt lat="33.8102288" lon="-118.3939623">
  <ele>-0.109</ele>
  <time>2026-09-02T22:07:32Z</time>
  <course>186.44</course>
  <speed>0.7213875518748573</speed>
  <fix>3d</fix>
</trkpt>
<trkpt lat="33.8102288" lon="-118.3939623">
  <ele>-0.109</ele>
  <time>2026-09-02T22:07:32Z</time>
  <course>186.44</course>
  <speed>0.7213875518748573</speed>
  <fix>3d</fix>
</trkpt>
<trkpt lat="33.8102287" lon="-118.3939624">
  <ele>-0.109</ele>
  <time>2026-09-02T22:07:32Z</time>
  <course>186.44</course>
  <speed>0.7213875518748573</speed>
  <fix>3d</fix>
</trkpt>
<trkpt lat="33.8102287" lon="-118.3939624">
  <ele>-0.109</ele>
  <time>2026-09-02T22:07:32Z</time>
  <course>186.44</course>
  <speed>0.7213875518748573</speed>
  <fix>3d</fix>
</trkpt>
<trkpt lat="33.8102296" lon="-118.393961">
  <ele>-0.1</ele>
  <time>2026-09-02T22:07:32Z</time>
  <course>223.26</course>
  <speed>0.73</speed>
  <fix>3d</fix>
</trkpt>
<trkpt lat="33.8102287" lon="-118.3939624">
  <ele>-0.109</ele>
  <time>2026-09-02T22:07:32Z</time>
  <course>186.44</course>
  <speed>0.7213875518748573</speed>
  <fix>3d</fix>
</trkpt>
<trkpt lat="33.8102286" lon="-118.3939625">
  <ele>-0.109</ele>
  <time>2026-09-02T22:07:32Z</time>
  <course>186.44</course>
  <speed>0.7213875518748573</speed>
  <fix>3d</fix>
</trkpt>
<trkpt lat="33.8102286" lon="-118.3939625">
  <ele>-0.109</ele>
  <time>2026-09-02T22:07:32Z</time>
  <course>186.44</course>
  <speed>0.7213875518748573</speed>
  <fix>3d</fix>
</trkpt>
<trkpt lat="33.8102286" lon="-118.3939626">
  <ele>-0.109</ele>
  <time>2026-09-02T22:07:32Z</time>
  <course>186.44</course>
  <speed>0.7213875518748573</speed>
  <fix>3d</fix>
</trkpt>
<trkpt lat="33.8102285" lon="-118.3939626">
  <ele>-0.109</ele>
  <time>2026-09-02T22:07:32Z</time>
  <course>186.44</course>
  <speed>0.7213875518748573</speed>
  <fix>3d</fix>
</trkpt>
<trkpt lat="33.8102285" lon="-118.3939627">
  <ele>-0.11</ele>
  <time>2026-09-02T22:07:32Z</time>
  <course>186.44</course>
  <speed>0.7213875518748573</speed>
  <fix>3d</fix>
</trkpt>
<trkpt lat="33.8102285" lon="-118.3939627">
  <ele>-0.11</ele>
  <time>2026-09-02T22:07:32Z</time>
  <course>186.44</course>
  <speed>0.7213875518748573</speed>
  <fix>3d</fix>
</trkpt>
<trkpt lat="33.8102284" lon="-118.3939627">
  <ele>-0.109</ele>
  <time>2026-09-02T22:07:32Z</time>
  <course>186.44</course>
  <speed>0.7213875518748573</speed>
  <fix>3d</fix>
</trkpt>
<trkpt lat="33.8102284" lon="-118.3939628">
  <ele>-0.11</ele>
  <time>2026-09-02T22:07:32Z</time>
  <course>186.44</course>
  <speed>0.7213875518748573</speed>
  <fix>3d</fix>
</trkpt>
<trkpt lat="33.8102283" lon="-118.3939628">
  <ele>-0.109</ele>
  <time>2026-09-02T22:07:32Z</time>
  <course>186.44</course>
  <speed>0.7213875518748573</speed>
  <fix>3d</fix>
</trkpt>
<trkpt lat="33.8102283" lon="-118.3939629">
  <ele>-0.11</ele>
  <time>2026-09-02T22:07:32Z</time>
  <course>186.44</course>
  <speed>0.7213875518748573</speed>
  <fix>3d</fix>
</trkpt>
<trkpt lat="33.8102283" lon="-118.3939629">
  <ele>-0.11</ele>
  <time>2026-09-02T22:07:32Z</time>
  <course>186.44</course>
  <speed>0.7213875518748573</speed>
  <fix>3d</fix>
</trkpt>
<trkpt lat="33.8102282" lon="-118.3939629">
  <ele>-0.11</ele>
  <time>2026-09-02T22:07:32Z</time>
  <course>186.44</course>
  <speed>0.7213875518748573</speed>
  <fix>3d</fix>
</trkpt>
<trkpt lat="33.8102286" lon="-118.3939621">
  <ele>-0.1</ele>
  <time>2026-09-02T22:07:32Z</time>
  <course>223.26</course>
  <speed>0.73</speed>
  <fix>3d</fix>
</trkpt>
<trkpt lat="33.8102282" lon="-118.393963">
  <ele>-0.109</ele>
  <time>2026-09-02T22:07:32Z</time>
  <course>186.44</course>
  <speed>0.7213875518748573</speed>
  <fix>3d</fix>
</trkpt>
<trkpt lat="33.8102282" lon="-118.393963">
  <ele>-0.11</ele>
  <time>2026-09-02T22:07:32Z</time>
  <course>186.44</course>
  <speed>0.7213875518748573</speed>
  <fix>3d</fix>
</trkpt>
<trkpt lat="33.8102281" lon="-118.3939631">
  <ele>-0.11</ele>
  <time>2026-09-02T22:07:32Z</time>
  <course>186.44</course>
  <speed>0.7213875518748573</speed>
  <fix>3d</fix>
</trkpt>
<trkpt lat="33.8102281" lon="-118.3939631">
  <ele>-0.11</ele>
  <time>2026-09-02T22:07:32Z</time>
  <course>186.44</course>
  <speed>0.7213875518748573</speed>
  <fix>3d</fix>
</trkpt>
<trkpt lat="33.810228" lon="-118.3939632">
  <ele>-0.109</ele>
  <time>2026-09-02T22:07:32Z</time>
  <course>186.44</course>
  <speed>0.7213875518748573</speed>
  <fix>3d</fix>
</trkpt>
<trkpt lat="33.810228" lon="-118.3939632">
  <ele>-0.11</ele>
  <time>2026-09-02T22:07:32Z</time>
  <course>186.44</course>
  <speed>0.7213875518748573</speed>
  <fix>3d</fix>
</trkpt>
<trkpt lat="33.810228" lon="-118.3939633">
  <ele>-0.11</ele>
  <time>2026-09-02T22:07:32Z</time>
  <course>186.43</course>
  <speed>0.7213875518748573</speed>
  <fix>3d</fix>
</trkpt>
<trkpt lat="33.8102279" lon="-118.3939633">
  <ele>-0.11</ele>
  <time>2026-09-02T22:07:32Z</time>
  <course>186.43</course>
  <speed>0.7213875518748573</speed>
  <fix>3d</fix>
</trkpt>
<trkpt lat="33.8102279" lon="-118.3939633">
  <ele>-0.11</ele>
  <time>2026-09-02T22:07:32Z</time>
  <course>186.43</course>
  <speed>0.7213875518748573</speed>
  <fix>3d</fix>
</trkpt>
<trkpt lat="33.8102279" lon="-118.3939634">
  <ele>-0.11</ele>
  <time>2026-09-02T22:07:32Z</time>
  <course>186.43</course>
  <speed>0.7213875518748573</speed>
  <fix>3d</fix>
</trkpt>
<trkpt lat="33.8102278" lon="-118.3939634">
  <ele>-0.11</ele>
  <time>2026-09-02T22:07:32Z</time>
  <course>186.43</course>
  <speed>0.7213875518748573</speed>
  <fix>3d</fix>
</trkpt>
<trkpt lat="33.8102278" lon="-118.3939635">
  <ele>-0.11</ele>
  <time>2026-09-02T22:07:32Z</time>
  <course>186.43</course>
  <speed>0.7213875518748573</speed>
  <fix>3d</fix>
</trkpt>
<trkpt lat="33.8102278" lon="-118.3939635">
  <ele>-0.11</ele>
  <time>2026-09-02T22:07:32Z</time>
  <course>186.43</course>
  <speed>0.7213875518748573</speed>
  <fix>3d</fix>
</trkpt>
<trkpt lat="33.8102286" lon="-118.3939621">
  <ele>-0.1</ele>
  <time>2026-09-02T22:07:32Z</time>
  <course>223.26</course>
  <speed>0.73</speed>
  <fix>3d</fix>
</trkpt>
<trkpt lat="33.8102277" lon="-118.3939635">
  <ele>-0.11</ele>
  <time>2026-09-02T22:07:32Z</time>
  <course>186.43</course>
  <speed>0.7213875518748573</speed>
  <fix>3d</fix>
</trkpt>
<trkpt lat="33.8102277" lon="-118.3939636">
  <ele>-0.11</ele>
  <time>2026-09-02T22:07:32Z</time>
  <course>186.43</course>
  <speed>0.7213875518748573</speed>
  <fix>3d</fix>
</trkpt>
<trkpt lat="33.8102276" lon="-118.3939636">
  <ele>-0.11</ele>
  <time>2026-09-02T22:07:32Z</time>
  <course>186.43</course>
  <speed>0.7213875518748573</speed>
  <fix>3d</fix>
</trkpt>
<trkpt lat="33.8102276" lon="-118.3939637">
  <ele>-0.11</ele>
  <time>2026-09-02T22:07:32Z</time>
  <course>186.43</course>
  <speed>0.7213875518748573</speed>
  <fix>3d</fix>
</trkpt>
<trkpt lat="33.8102276" lon="-118.3939637">
  <ele>-0.111</ele>
  <time>2026-09-02T22:07:32Z</time>
  <course>186.43</course>
  <speed>0.7213875518748573</speed>
  <fix>3d</fix>
</trkpt>
<trkpt lat="33.8102275" lon="-118.3939637">
  <ele>-0.111</ele>
  <time>2026-09-02T22:07:32Z</time>
  <course>186.43</course>
  <speed>0.7213875518748573</speed>
  <fix>3d</fix>
</trkpt>
<trkpt lat="33.8102275" lon="-118.3939638">
  <ele>-0.111</ele>
  <time>2026-09-02T22:07:32Z</time>
  <course>186.43</course>
  <speed>0.7213875518748573</speed>
  <fix>3d</fix>
</trkpt>
<trkpt lat="33.8102274" lon="-118.3939638">
  <ele>-0.111</ele>
  <time>2026-09-02T22:07:32Z</time>
  <course>186.43</course>
  <speed>0.7213875518748573</speed>
  <fix>3d</fix>
</trkpt>
<trkpt lat="33.8102274" lon="-118.3939639">
  <ele>-0.111</ele>
  <time>2026-09-02T22:07:32Z</time>
  <course>186.43</course>
  <speed>0.7213875518748573</speed>
  <fix>3d</fix>
</trkpt>
<trkpt lat="33.8102273" lon="-118.393964">
  <ele>-0.111</ele>
  <time>2026-09-02T22:07:32Z</time>
  <course>186.43</course>
  <speed>0.7213875518748573</speed>
  <fix>3d</fix>
</trkpt>
<trkpt lat="33.8102273" lon="-118.393964">
  <ele>-0.111</ele>
  <time>2026-09-02T22:07:32Z</time>
  <course>186.43</course>
  <speed>0.7213875518748573</speed>
  <fix>3d</fix>
</trkpt>
<trkpt lat="33.8102277" lon="-118.3939632">
  <ele>-0.1</ele>
  <time>2026-09-02T22:07:32Z</time>
  <course>223.26</course>
  <speed>0.73</speed>
  <fix>3d</fix>
</trkpt>
<trkpt lat="33.8102273" lon="-118.393964">
  <ele>-0.111</ele>
  <time>2026-09-02T22:07:32Z</time>
  <course>186.43</course>
  <speed>0.7213875518748573</speed>
  <fix>3d</fix>
</trkpt>
<trkpt lat="33.8102272" lon="-118.3939641">
  <ele>-0.111</ele>
  <time>2026-09-02T22:07:32Z</time>
  <course>186.43</course>
  <speed>0.7213875518748573</speed>
  <fix>3d</fix>
</trkpt>
<trkpt lat="33.8102272" lon="-118.3939641">
  <ele>-0.111</ele>
  <time>2026-09-02T22:07:32Z</time>
  <course>186.43</course>
  <speed>0.7213875518748573</speed>
  <fix>3d</fix>
</trkpt>
<trkpt lat="33.8102271" lon="-118.3939642">
  <ele>-0.111</ele>
  <time>2026-09-02T22:07:32Z</time>
  <course>186.43</course>
  <speed>0.7213875518748573</speed>
  <fix>3d</fix>
</trkpt>
<trkpt lat="33.8102271" lon="-118.3939642">
  <ele>-0.111</ele>
  <time>2026-09-02T22:07:32Z</time>
  <course>186.43</course>
  <speed>0.7213875518748573</speed>
  <fix>3d</fix>
</trkpt>
<trkpt lat="33.8102271" lon="-118.3939643">
  <ele>-0.111</ele>
  <time>2026-09-02T22:07:32Z</time>
  <course>186.43</course>
  <speed>0.7213875518748573</speed>
  <fix>3d</fix>
</trkpt>
<trkpt lat="33.810227" lon="-118.3939643">
  <ele>-0.112</ele>
  <time>2026-09-02T22:07:32Z</time>
  <course>186.43</course>
  <speed>0.7213875518748573</speed>
  <fix>3d</fix>
</trkpt>
<trkpt lat="33.810227" lon="-118.3939644">
  <ele>-0.112</ele>
  <time>2026-09-02T22:07:32Z</time>
  <course>186.43</course>
  <speed>0.7213875518748573</speed>
  <fix>3d</fix>
</trkpt>
<trkpt lat="33.810227" lon="-118.3939644">
  <ele>-0.112</ele>
  <time>2026-09-02T22:07:32Z</time>
  <course>186.43</course>
  <speed>0.7213875518748573</speed>
  <fix>3d</fix>
</trkpt>
<trkpt lat="33.8102269" lon="-118.3939644">
  <ele>-0.112</ele>
  <time>2026-09-02T22:07:32Z</time>
  <course>186.43</course>
  <speed>0.7213875518748573</speed>
  <fix>3d</fix>
</trkpt>
<trkpt lat="33.8102269" lon="-118.3939645">
  <ele>-0.112</ele>
  <time>2026-09-02T22:07:32Z</time>
  <course>186.43</course>
  <speed>0.7213875518748573</speed>
  <fix>3d</fix>
</trkpt>
<trkpt lat="33.8102268" lon="-118.3939645">
  <ele>-0.112</ele>
  <time>2026-09-02T22:07:32Z</time>
  <course>186.43</course>
  <speed>0.7213875518748573</speed>
  <fix>3d</fix>
</trkpt>
<trkpt lat="33.8102268" lon="-118.3939646">
  <ele>-0.112</ele>
  <time>2026-09-02T22:07:32Z</time>
  <course>186.43</course>
  <speed>0.7213875518748573</speed>
  <fix>3d</fix>
</trkpt>
<trkpt lat="33.8102268" lon="-118.3939646">
  <ele>-0.112</ele>
  <time>2026-09-02T22:07:32Z</time>
  <course>186.43</course>
  <speed>0.7213875518748573</speed>
  <fix>3d</fix>
</trkpt>
<trkpt lat="33.8102277" lon="-118.3939632">
  <ele>-0.1</ele>
  <time>2026-09-02T22:07:32Z</time>
  <course>223.26</course>
  <speed>0.73</speed>
  <fix>3d</fix>
</trkpt>
<trkpt lat="33.8102268" lon="-118.3939646">
  <ele>-0.112</ele>
  <time>2026-09-02T22:07:32Z</time>
  <course>186.43</course>
  <speed>0.7213875518748573</speed>
  <fix>3d</fix>
</trkpt>
<trkpt lat="33.8102267" lon="-118.3939647">
  <ele>-0.112</ele>
  <time>2026-09-02T22:07:32Z</time>
  <course>186.43</course>
  <speed>0.7213875518748573</speed>
  <fix>3d</fix>
</trkpt>
<trkpt lat="33.8102267" lon="-118.3939647">
  <ele>-0.112</ele>
  <time>2026-09-02T22:07:32Z</time>
  <course>186.43</course>
  <speed>0.7213875518748573</speed>
  <fix>3d</fix>
</trkpt>
<trkpt lat="33.8102266" lon="-118.3939648">
  <ele>-0.112</ele>
  <time>2026-09-02T22:07:32Z</time>
  <course>186.43</course>
  <speed>0.7213875518748573</speed>
  <fix>3d</fix>
</trkpt>
<trkpt lat="33.8102266" lon="-118.3939648">
  <ele>-0.112</ele>
  <time>2026-09-02T22:07:32Z</time>
  <course>186.43</course>
  <speed>0.7213875518748573</speed>
  <fix>3d</fix>
</trkpt>
<trkpt lat="33.8102266" lon="-118.3939648">
  <ele>-0.112</ele>
  <time>2026-09-02T22:07:32Z</time>
  <course>186.43</course>
  <speed>0.7213875518748573</speed>
  <fix>3d</fix>
</trkpt>
<trkpt lat="33.8102265" lon="-118.3939649">
  <ele>-0.112</ele>
  <time>2026-09-02T22:07:32Z</time>
  <course>186.43</course>
  <speed>0.7213875518748573</speed>
  <fix>3d</fix>
</trkpt>
<trkpt lat="33.8102265" lon="-118.3939649">
  <ele>-0.112</ele>
  <time>2026-09-02T22:07:32Z</time>
  <course>186.43</course>
  <speed>0.7213875518748573</speed>
  <fix>3d</fix>
</trkpt>
<trkpt lat="33.8102265" lon="-118.393965">
  <ele>-0.112</ele>
  <time>2026-09-02T22:07:32Z</time>
  <course>186.43</course>
  <speed>0.7213875518748573</speed>
  <fix>3d</fix>
</trkpt>
<trkpt lat="33.8102264" lon="-118.393965">
  <ele>-0.112</ele>
  <time>2026-09-02T22:07:32Z</time>
  <course>186.43</course>
  <speed>0.7213875518748573</speed>
  <fix>3d</fix>
</trkpt>
<trkpt lat="33.8102264" lon="-118.3939651">
  <ele>-0.112</ele>
  <time>2026-09-02T22:07:32Z</time>
  <course>186.43</course>
  <speed>0.7213875518748573</speed>
  <fix>3d</fix>
</trkpt>
<trkpt lat="33.8102263" lon="-118.3939651">
  <ele>-0.112</ele>
  <time>2026-09-02T22:07:32Z</time>
  <course>186.43</course>
  <speed>0.7213875518748573</speed>
  <fix>3d</fix>
</trkpt>
<trkpt lat="33.8102263" lon="-118.3939651">
  <ele>-0.112</ele>
  <time>2026-09-02T22:07:32Z</time>
  <course>186.43</course>
  <speed>0.7213875518748573</speed>
  <fix>3d</fix>
</trkpt>
<trkpt lat="33.8102267" lon="-118.3939642">
  <ele>-0.11</ele>
  <time>2026-09-02T22:07:32Z</time>
  <course>223.26</course>
  <speed>0.73</speed>
  <fix>3d</fix>
</trkpt>
<trkpt lat="33.8102263" lon="-118.3939651">
  <ele>-0.112</ele>
  <time>2026-09-02T22:07:32Z</time>
  <course>186.43</course>
  <speed>0.7213875518748573</speed>
  <fix>3d</fix>
</trkpt>
<trkpt lat="33.8102262" lon="-118.3939652">
  <ele>-0.112</ele>
  <time>2026-09-02T22:07:32Z</time>
  <course>186.43</course>
  <speed>0.7213875518748573</speed>
  <fix>3d</fix>
</trkpt>
<trkpt lat="33.8102262" lon="-118.3939653">
  <ele>-0.112</ele>
  <time>2026-09-02T22:07:32Z</time>
  <course>186.43</course>
  <speed>0.7213875518748573</speed>
  <fix>3d</fix>
</trkpt>
<trkpt lat="33.8102262" lon="-118.3939653">
  <ele>-0.112</ele>
  <time>2026-09-02T22:07:32Z</time>
  <course>186.43</course>
  <speed>0.7213875518748573</speed>
  <fix>3d</fix>
</trkpt>
<trkpt lat="33.8102261" lon="-118.3939653">
  <ele>-0.112</ele>
  <time>2026-09-02T22:07:32Z</time>
  <course>186.43</course>
  <speed>0.7213875518748573</speed>
  <fix>3d</fix>
</trkpt>
<trkpt lat="33.8102261" lon="-118.3939654">
  <ele>-0.112</ele>
  <time>2026-09-02T22:07:32Z</time>
  <course>186.43</course>
  <speed>0.7213875518748573</speed>
  <fix>3d</fix>
</trkpt>
<trkpt lat="33.8102261" lon="-118.3939654">
  <ele>-0.111</ele>
  <time>2026-09-02T22:07:32Z</time>
  <course>186.43</course>
  <speed>0.7213875518748573</speed>
  <fix>3d</fix>
</trkpt>
<trkpt lat="33.810226" lon="-118.3939655">
  <ele>-0.111</ele>
  <time>2026-09-02T22:07:32Z</time>
  <course>186.43</course>
  <speed>0.7213875518748573</speed>
  <fix>3d</fix>
</trkpt>
<trkpt lat="33.810226" lon="-118.3939655">
  <ele>-0.111</ele>
  <time>2026-09-02T22:07:32Z</time>
  <course>186.43</course>
  <speed>0.7213875518748573</speed>
  <fix>3d</fix>
</trkpt>
<trkpt lat="33.810226" lon="-118.3939655">
  <ele>-0.111</ele>
  <time>2026-09-02T22:07:32Z</time>
  <course>186.43</course>
  <speed>0.7213875518748573</speed>
  <fix>3d</fix>
</trkpt>
<trkpt lat="33.8102259" lon="-118.3939656">
  <ele>-0.111</ele>
  <time>2026-09-02T22:07:32Z</time>
  <course>186.43</course>
  <speed>0.7213875518748573</speed>
  <fix>3d</fix>
</trkpt>
<trkpt lat="33.8102259" lon="-118.3939656">
  <ele>-0.111</ele>
  <time>2026-09-02T22:07:32Z</time>
  <course>186.43</course>
  <speed>0.7213875518748573</speed>
  <fix>3d</fix>
</trkpt>
<trkpt lat="33.8102258" lon="-118.3939657">
  <ele>-0.111</ele>
  <time>2026-09-02T22:07:32Z</time>
  <course>186.43</course>
  <speed>0.7213875518748573</speed>
  <fix>3d</fix>
</trkpt>
<trkpt lat="33.8102267" lon="-118.3939642">
  <ele>-0.11</ele>
  <time>2026-09-02T22:07:32Z</time>
  <course>223.26</course>
  <speed>0.73</speed>
  <fix>3d</fix>
</trkpt>
<trkpt lat="33.8102258" lon="-118.3939657">
  <ele>-0.111</ele>
  <time>2026-09-02T22:07:32Z</time>
  <course>186.43</course>
  <speed>0.7213875518748573</speed>
  <fix>3d</fix>
</trkpt>
<trkpt lat="33.8102258" lon="-118.3939657">
  <ele>-0.111</ele>
  <time>2026-09-02T22:07:32Z</time>
  <course>186.43</course>
  <speed>0.7213875518748573</speed>
  <fix>3d</fix>
</trkpt>
<trkpt lat="33.8102257" lon="-118.3939658">
  <ele>-0.111</ele>
  <time>2026-09-02T22:07:32Z</time>
  <course>186.43</course>
  <speed>0.7213875518748573</speed>
  <fix>3d</fix>
</trkpt>
<trkpt lat="33.8102257" lon="-118.3939658">
  <ele>-0.111</ele>
  <time>2026-09-02T22:07:32Z</time>
  <course>186.43</course>
  <speed>0.7213875518748573</speed>
  <fix>3d</fix>
</trkpt>
<trkpt lat="33.8102257" lon="-118.3939659">
  <ele>-0.11</ele>
  <time>2026-09-02T22:07:32Z</time>
  <course>186.43</course>
  <speed>0.7213875518748573</speed>
  <fix>3d</fix>
</trkpt>
<trkpt lat="33.8102256" lon="-118.3939659">
  <ele>-0.11</ele>
  <time>2026-09-02T22:07:32Z</time>
  <course>186.43</course>
  <speed>0.7213875518748573</speed>
  <fix>3d</fix>
</trkpt>
<trkpt lat="33.8102256" lon="-118.393966">
  <ele>-0.11</ele>
  <time>2026-09-02T22:07:32Z</time>
  <course>186.43</course>
  <speed>0.7213875518748573</speed>
  <fix>3d</fix>
</trkpt>
<trkpt lat="33.8102256" lon="-118.393966">
  <ele>-0.11</ele>
  <time>2026-09-02T22:07:32Z</time>
  <course>186.42</course>
  <speed>0.7213875518748573</speed>
  <fix>3d</fix>
</trkpt>
<trkpt lat="33.8102255" lon="-118.393966">
  <ele>-0.11</ele>
  <time>2026-09-02T22:07:32Z</time>
  <course>186.42</course>
  <speed>0.7213875518748573</speed>
  <fix>3d</fix>
</trkpt>
<trkpt lat="33.8102255" lon="-118.3939661">
  <ele>-0.11</ele>
  <time>2026-09-02T22:07:32Z</time>
  <course>186.42</course>
  <speed>0.7213875518748573</speed>
  <fix>3d</fix>
</trkpt>
<trkpt lat="33.8102254" lon="-118.3939661">
  <ele>-0.109</ele>
  <time>2026-09-02T22:07:32Z</time>
  <course>186.42</course>
  <speed>0.7213875518748573</speed>
  <fix>3d</fix>
</trkpt>
<trkpt lat="33.8102254" lon="-118.3939662">
  <ele>-0.109</ele>
  <time>2026-09-02T22:07:32Z</time>
  <course>186.42</course>
  <speed>0.7213875518748573</speed>
  <fix>3d</fix>
</trkpt>
<trkpt lat="33.8102254" lon="-118.3939662">
  <ele>-0.109</ele>
  <time>2026-09-02T22:07:32Z</time>
  <course>186.42</course>
  <speed>0.7213875518748573</speed>
  <fix>3d</fix>
</trkpt>
<trkpt lat="33.8102254" lon="-118.3939662">
  <ele>-0.109</ele>
  <time>2026-09-02T22:07:32Z</time>
  <course>186.42</course>
  <speed>0.7213875518748573</speed>
  <fix>3d</fix>
</trkpt>
<trkpt lat="33.8102258" lon="-118.3939653">
  <ele>-0.1</ele>
  <time>2026-09-02T22:07:32Z</time>
  <course>223.26</course>
  <speed>0.73</speed>
  <fix>3d</fix>
</trkpt>
<trkpt lat="33.8102253" lon="-118.3939663">
  <ele>-0.109</ele>
  <time>2026-09-02T22:07:32Z</time>
  <course>186.42</course>
  <speed>0.7213875518748573</speed>
  <fix>3d</fix>
</trkpt>
<trkpt lat="33.8102252" lon="-118.3939663">
  <ele>-0.109</ele>
  <time>2026-09-02T22:07:32Z</time>
  <course>186.42</course>
  <speed>0.7213875518748573</speed>
  <fix>3d</fix>
</trkpt>
<trkpt lat="33.8102252" lon="-118.3939664">
  <ele>-0.109</ele>
  <time>2026-09-02T22:07:32Z</time>
  <course>186.42</course>
  <speed>0.7213875518748573</speed>
  <fix>3d</fix>
</trkpt>
<trkpt lat="33.8102252" lon="-118.3939664">
  <ele>-0.108</ele>
  <time>2026-09-02T22:07:32Z</time>
  <course>186.42</course>
  <speed>0.7213875518748573</speed>
  <fix>3d</fix>
</trkpt>
<trkpt lat="33.8102251" lon="-118.3939665">
  <ele>-0.108</ele>
  <time>2026-09-02T22:07:32Z</time>
  <course>186.42</course>
  <speed>0.7213875518748573</speed>
  <fix>3d</fix>
</trkpt>
<trkpt lat="33.8102251" lon="-118.3939665">
  <ele>-0.108</ele>
  <time>2026-09-02T22:07:32Z</time>
  <course>186.42</course>
  <speed>0.7213875518748573</speed>
  <fix>3d</fix>
</trkpt>
<trkpt lat="33.8102251" lon="-118.3939666">
  <ele>-0.108</ele>
  <time>2026-09-02T22:07:32Z</time>
  <course>186.42</course>
  <speed>0.7213875518748573</speed>
  <fix>3d</fix>
</trkpt>
<trkpt lat="33.810225" lon="-118.3939666">
  <ele>-0.108</ele>
  <time>2026-09-02T22:07:32Z</time>
  <course>186.42</course>
  <speed>0.7213875518748573</speed>
  <fix>3d</fix>
</trkpt>
<trkpt lat="33.810225" lon="-118.3939666">
  <ele>-0.108</ele>
  <time>2026-09-02T22:07:32Z</time>
  <course>186.42</course>
  <speed>0.7213875518748573</speed>
  <fix>3d</fix>
</trkpt>
<trkpt lat="33.8102249" lon="-118.3939667">
  <ele>-0.108</ele>
  <time>2026-09-02T22:07:32Z</time>
  <course>186.42</course>
  <speed>0.7213875518748573</speed>
  <fix>3d</fix>
</trkpt>
<trkpt lat="33.8102249" lon="-118.3939667">
  <ele>-0.108</ele>
  <time>2026-09-02T22:07:32Z</time>
  <course>186.42</course>
  <speed>0.7213875518748573</speed>
  <fix>3d</fix>
</trkpt>
<trkpt lat="33.8102249" lon="-118.3939667">
  <ele>-0.108</ele>
  <time>2026-09-02T22:07:32Z</time>
  <course>186.42</course>
  <speed>0.7213875518748573</speed>
  <fix>3d</fix>
</trkpt>
<trkpt lat="33.8102258" lon="-118.3939653">
  <ele>-0.1</ele>
  <time>2026-09-02T22:07:32Z</time>
  <course>223.26</course>
  <speed>0.73</speed>
  <fix>3d</fix>
</trkpt>
<trkpt lat="33.8102249" lon="-118.3939668">
  <ele>-0.108</ele>
  <time>2026-09-02T22:07:32Z</time>
  <course>186.42</course>
  <speed>0.7213875518748573</speed>
  <fix>3d</fix>
</trkpt>
<trkpt lat="33.8102248" lon="-118.3939668">
  <ele>-0.108</ele>
  <time>2026-09-02T22:07:32Z</time>
  <course>186.42</course>
  <speed>0.7213875518748573</speed>
  <fix>3d</fix>
</trkpt>
<trkpt lat="33.8102248" lon="-118.3939669">
  <ele>-0.108</ele>
  <time>2026-09-02T22:07:32Z</time>
  <course>186.42</course>
  <speed>0.7213875518748573</speed>
  <fix>3d</fix>
</trkpt>
<trkpt lat="33.8102247" lon="-118.3939669">
  <ele>-0.108</ele>
  <time>2026-09-02T22:07:32Z</time>
  <course>186.42</course>
  <speed>0.7213875518748573</speed>
  <fix>3d</fix>
</trkpt>
<trkpt lat="33.8102247" lon="-118.393967">
  <ele>-0.108</ele>
  <time>2026-09-02T22:07:32Z</time>
  <course>186.42</course>
  <speed>0.7213875518748573</speed>
  <fix>3d</fix>
</trkpt>
<trkpt lat="33.8102246" lon="-118.393967">
  <ele>-0.108</ele>
  <time>2026-09-02T22:07:32Z</time>
  <course>186.42</course>
  <speed>0.7213875518748573</speed>
  <fix>3d</fix>
</trkpt>
<trkpt lat="33.8102246" lon="-118.3939671">
  <ele>-0.108</ele>
  <time>2026-09-02T22:07:32Z</time>
  <course>186.42</course>
  <speed>0.7213875518748573</speed>
  <fix>3d</fix>
</trkpt>
<trkpt lat="33.8102246" lon="-118.3939671">
  <ele>-0.108</ele>
  <time>2026-09-02T22:07:32Z</time>
  <course>186.42</course>
  <speed>0.7213875518748573</speed>
  <fix>3d</fix>
</trkpt>
<trkpt lat="33.8102245" lon="-118.3939672">
  <ele>-0.108</ele>
  <time>2026-09-02T22:07:32Z</time>
  <course>186.42</course>
  <speed>0.7213875518748573</speed>
  <fix>3d</fix>
</trkpt>
<trkpt lat="33.8102245" lon="-118.3939672">
  <ele>-0.108</ele>
  <time>2026-09-02T22:07:32Z</time>
  <course>186.42</course>
  <speed>0.7213875518748573</speed>
  <fix>3d</fix>
</trkpt>
<trkpt lat="33.8102245" lon="-118.3939672">
  <ele>-0.108</ele>
  <time>2026-09-02T22:07:32Z</time>
  <course>186.42</course>
  <speed>0.7213875518748573</speed>
  <fix>3d</fix>
</trkpt>
<trkpt lat="33.8102244" lon="-118.3939673">
  <ele>-0.108</ele>
  <time>2026-09-02T22:07:32Z</time>
  <course>186.42</course>
  <speed>0.7213875518748573</speed>
  <fix>3d</fix>
</trkpt>
<trkpt lat="33.8102244" lon="-118.3939673">
  <ele>-0.108</ele>
  <time>2026-09-02T22:07:32Z</time>
  <course>186.42</course>
  <speed>0.7213875518748573</speed>
  <fix>3d</fix>
</trkpt>
<trkpt lat="33.8102248" lon="-118.3939664">
  <ele>-0.1</ele>
  <time>2026-09-02T22:07:32Z</time>
  <course>223.26</course>
  <speed>0.73</speed>
  <fix>3d</fix>
</trkpt>
<trkpt lat="33.8102244" lon="-118.3939673">
  <ele>-0.108</ele>
  <time>2026-09-02T22:07:32Z</time>
  <course>186.42</course>
  <speed>0.7213875518748573</speed>
  <fix>3d</fix>
</trkpt>
<trkpt lat="33.8102243" lon="-118.3939674">
  <ele>-0.108</ele>
  <time>2026-09-02T22:07:32Z</time>
  <course>186.42</course>
  <speed>0.7213875518748573</speed>
  <fix>3d</fix>
</trkpt>
<trkpt lat="33.8102243" lon="-118.3939674">
  <ele>-0.108</ele>
  <time>2026-09-02T22:07:32Z</time>
  <course>186.42</course>
  <speed>0.7213875518748573</speed>
  <fix>3d</fix>
</trkpt>
<trkpt lat="33.8102243" lon="-118.3939675">
  <ele>-0.108</ele>
  <time>2026-09-02T22:07:32Z</time>
  <course>186.42</course>
  <speed>0.7213875518748573</speed>
  <fix>3d</fix>
</trkpt>
<trkpt lat="33.8102242" lon="-118.3939675">
  <ele>-0.108</ele>
  <time>2026-09-02T22:07:32Z</time>
  <course>186.42</course>
  <speed>0.7213875518748573</speed>
  <fix>3d</fix>
</trkpt>
<trkpt lat="33.8102242" lon="-118.3939675">
  <ele>-0.108</ele>
  <time>2026-09-02T22:07:32Z</time>
  <course>186.42</course>
  <speed>0.7213875518748573</speed>
  <fix>3d</fix>
</trkpt>
<trkpt lat="33.8102241" lon="-118.3939676">
  <ele>-0.108</ele>
  <time>2026-09-02T22:07:32Z</time>
  <course>186.42</course>
  <speed>0.7213875518748573</speed>
  <fix>3d</fix>
</trkpt>
<trkpt lat="33.8102241" lon="-118.3939676">
  <ele>-0.109</ele>
  <time>2026-09-02T22:07:32Z</time>
  <course>186.42</course>
  <speed>0.7213875518748573</speed>
  <fix>3d</fix>
</trkpt>
<trkpt lat="33.8102241" lon="-118.3939677">
  <ele>-0.109</ele>
  <time>2026-09-02T22:07:32Z</time>
  <course>186.42</course>
  <speed>0.7213875518748573</speed>
  <fix>3d</fix>
</trkpt>
<trkpt lat="33.810224" lon="-118.3939677">
  <ele>-0.109</ele>
  <time>2026-09-02T22:07:32Z</time>
  <course>186.42</course>
  <speed>0.7213875518748573</speed>
  <fix>3d</fix>
</trkpt>
<trkpt lat="33.810224" lon="-118.3939678">
  <ele>-0.109</ele>
  <time>2026-09-02T22:07:32Z</time>
  <course>186.42</course>
  <speed>0.7213875518748573</speed>
  <fix>3d</fix>
</trkpt>
<trkpt lat="33.810224" lon="-118.3939678">
  <ele>-0.109</ele>
  <time>2026-09-02T22:07:32Z</time>
  <course>186.42</course>
  <speed>0.7213875518748573</speed>
  <fix>3d</fix>
</trkpt>
<trkpt lat="33.8102239" lon="-118.3939678">
  <ele>-0.109</ele>
  <time>2026-09-02T22:07:32Z</time>
  <course>186.42</course>
  <speed>0.7213875518748573</speed>
  <fix>3d</fix>
</trkpt>
<trkpt lat="33.8102248" lon="-118.3939664">
  <ele>-0.1</ele>
  <time>2026-09-02T22:07:32Z</time>
  <course>223.26</course>
  <speed>0.73</speed>
  <fix>3d</fix>
</trkpt>
<trkpt lat="33.8102239" lon="-118.3939678">
  <ele>-0.109</ele>
  <time>2026-09-02T22:07:32Z</time>
  <course>186.42</course>
  <speed>0.7213875518748573</speed>
  <fix>3d</fix>
</trkpt>
<trkpt lat="33.8102239" lon="-118.3939679">
  <ele>-0.109</ele>
  <time>2026-09-02T22:07:32Z</time>
  <course>186.42</course>
  <speed>0.7213875518748573</speed>
  <fix>3d</fix>
</trkpt>
<trkpt lat="33.8102238" lon="-118.393968">
  <ele>-0.109</ele>
  <time>2026-09-02T22:07:32Z</time>
  <course>186.42</course>
  <speed>0.7213875518748573</speed>
  <fix>3d</fix>
</trkpt>
<trkpt lat="33.8102238" lon="-118.393968">
  <ele>-0.109</ele>
  <time>2026-09-02T22:07:32Z</time>
  <course>186.42</course>
  <speed>0.7213875518748573</speed>
  <fix>3d</fix>
</trkpt>
<trkpt lat="33.8102237" lon="-118.3939681">
  <ele>-0.109</ele>
  <time>2026-09-02T22:07:32Z</time>
  <course>186.42</course>
  <speed>0.7213875518748573</speed>
  <fix>3d</fix>
</trkpt>
<trkpt lat="33.8102237" lon="-118.3939682">
  <ele>-0.109</ele>
  <time>2026-09-02T22:07:32Z</time>
  <course>186.42</course>
  <speed>0.7213875518748573</speed>
  <fix>3d</fix>
</trkpt>
<trkpt lat="33.8102236" lon="-118.3939682">
  <ele>-0.109</ele>
  <time>2026-09-02T22:07:32Z</time>
  <course>186.42</course>
  <speed>0.7213875518748573</speed>
  <fix>3d</fix>
</trkpt>
<trkpt lat="33.8102236" lon="-118.3939682">
  <ele>-0.109</ele>
  <time>2026-09-02T22:07:32Z</time>
  <course>186.42</course>
  <speed>0.7213875518748573</speed>
  <fix>3d</fix>
</trkpt>
<trkpt lat="33.8102235" lon="-118.3939683">
  <ele>-0.109</ele>
  <time>2026-09-02T22:07:32Z</time>
  <course>186.42</course>
  <speed>0.7213875518748573</speed>
  <fix>3d</fix>
</trkpt>
<trkpt lat="33.8102235" lon="-118.3939683">
  <ele>-0.109</ele>
  <time>2026-09-02T22:07:32Z</time>
  <course>186.42</course>
  <speed>0.7213875518748573</speed>
  <fix>3d</fix>
</trkpt>
<trkpt lat="33.8102235" lon="-118.3939684">
  <ele>-0.109</ele>
  <time>2026-09-02T22:07:32Z</time>
  <course>186.42</course>
  <speed>0.7213875518748573</speed>
  <fix>3d</fix>
</trkpt>
<trkpt lat="33.8102235" lon="-118.3939684">
  <ele>-0.109</ele>
  <time>2026-09-02T22:07:32Z</time>
  <course>186.42</course>
  <speed>0.7213875518748573</speed>
  <fix>3d</fix>
</trkpt>
<trkpt lat="33.8102238" lon="-118.3939675">
  <ele>-0.1</ele>
  <time>2026-09-02T22:07:32Z</time>
  <course>223.26</course>
  <speed>0.73</speed>
  <fix>3d</fix>
</trkpt>
<trkpt lat="33.8102234" lon="-118.3939685">
  <ele>-0.109</ele>
  <time>2026-09-02T22:07:32Z</time>
  <course>186.42</course>
  <speed>0.7213875518748573</speed>
  <fix>3d</fix>
</trkpt>
<trkpt lat="33.8102233" lon="-118.3939685">
  <ele>-0.109</ele>
  <time>2026-09-02T22:07:32Z</time>
  <course>186.42</course>
  <speed>0.7213875518748573</speed>
  <fix>3d</fix>
</trkpt>
<trkpt lat="33.8102233" lon="-118.3939686">
  <ele>-0.109</ele>
  <time>2026-09-02T22:07:32Z</time>
  <course>186.42</course>
  <speed>0.7213875518748573</speed>
  <fix>3d</fix>
</trkpt>
<trkpt lat="33.8102232" lon="-118.3939686">
  <ele>-0.109</ele>
  <time>2026-09-02T22:07:32Z</time>
  <course>186.42</course>
  <speed>0.7213875518748573</speed>
  <fix>3d</fix>
</trkpt>
<trkpt lat="33.8102232" lon="-118.3939687">
  <ele>-0.109</ele>
  <time>2026-09-02T22:07:32Z</time>
  <course>186.42</course>
  <speed>0.7213875518748573</speed>
  <fix>3d</fix>
</trkpt>
<trkpt lat="33.8102232" lon="-118.3939687">
  <ele>-0.109</ele>
  <time>2026-09-02T22:07:32Z</time>
  <course>186.42</course>
  <speed>0.7213875518748573</speed>
  <fix>3d</fix>
</trkpt>
<trkpt lat="33.8102231" lon="-118.3939688">
  <ele>-0.109</ele>
  <time>2026-09-02T22:07:32Z</time>
  <course>186.42</course>
  <speed>0.7213875518748573</speed>
  <fix>3d</fix>
</trkpt>
<trkpt lat="33.8102231" lon="-118.3939688">
  <ele>-0.109</ele>
  <time>2026-09-02T22:07:32Z</time>
  <course>186.42</course>
  <speed>0.7213875518748573</speed>
  <fix>3d</fix>
</trkpt>
<trkpt lat="33.810223" lon="-118.3939688">
  <ele>-0.109</ele>
  <time>2026-09-02T22:07:32Z</time>
  <course>186.41</course>
  <speed>0.7213875518748573</speed>
  <fix>3d</fix>
</trkpt>
<trkpt lat="33.810223" lon="-118.3939689">
  <ele>-0.109</ele>
  <time>2026-09-02T22:07:32Z</time>
  <course>186.41</course>
  <speed>0.7213875518748573</speed>
  <fix>3d</fix>
</trkpt>
<trkpt lat="33.810223" lon="-118.3939689">
  <ele>-0.109</ele>
  <time>2026-09-02T22:07:32Z</time>
  <course>186.41</course>
  <speed>0.7213875518748573</speed>
  <fix>3d</fix>
</trkpt>
<trkpt lat="33.810223" lon="-118.3939689">
  <ele>-0.109</ele>
  <time>2026-09-02T22:07:32Z</time>
  <course>186.41</course>
  <speed>0.7213875518748573</speed>
  <fix>3d</fix>
</trkpt>
<trkpt lat="33.8102238" lon="-118.3939675">
  <ele>-0.1</ele>
  <time>2026-09-02T22:07:32Z</time>
  <course>223.26</course>
  <speed>0.73</speed>
  <fix>3d</fix>
</trkpt>
<trkpt lat="33.8102229" lon="-118.393969">
  <ele>-0.109</ele>
  <time>2026-09-02T22:07:32Z</time>
  <course>186.41</course>
  <speed>0.7213875518748573</speed>
  <fix>3d</fix>
</trkpt>
<trkpt lat="33.8102229" lon="-118.3939691">
  <ele>-0.109</ele>
  <time>2026-09-02T22:07:32Z</time>
  <course>186.41</course>
  <speed>0.7213875518748573</speed>
  <fix>3d</fix>
</trkpt>
<trkpt lat="33.8102228" lon="-118.3939691">
  <ele>-0.109</ele>
  <time>2026-09-02T22:07:32Z</time>
  <course>186.41</course>
  <speed>0.7213875518748573</speed>
  <fix>3d</fix>
</trkpt>
<trkpt lat="33.8102228" lon="-118.3939691">
  <ele>-0.109</ele>
  <time>2026-09-02T22:07:32Z</time>
  <course>186.41</course>
  <speed>0.7213875518748573</speed>
  <fix>3d</fix>
</trkpt>
<trkpt lat="33.8102227" lon="-118.3939692">
  <ele>-0.109</ele>
  <time>2026-09-02T22:07:32Z</time>
  <course>186.41</course>
  <speed>0.7213875518748573</speed>
  <fix>3d</fix>
</trkpt>
<trkpt lat="33.8102227" lon="-118.3939692">
  <ele>-0.11</ele>
  <time>2026-09-02T22:07:32Z</time>
  <course>186.41</course>
  <speed>0.7213875518748573</speed>
  <fix>3d</fix>
</trkpt>
<trkpt lat="33.8102227" lon="-118.3939693">
  <ele>-0.11</ele>
  <time>2026-09-02T22:07:32Z</time>
  <course>186.41</course>
  <speed>0.7213875518748573</speed>
  <fix>3d</fix>
</trkpt>
<trkpt lat="33.8102226" lon="-118.3939693">
  <ele>-0.11</ele>
  <time>2026-09-02T22:07:32Z</time>
  <course>186.41</course>
  <speed>0.7213875518748573</speed>
  <fix>3d</fix>
</trkpt>
<trkpt lat="33.8102226" lon="-118.3939693">
  <ele>-0.11</ele>
  <time>2026-09-02T22:07:32Z</time>
  <course>186.41</course>
  <speed>0.7213875518748573</speed>
  <fix>3d</fix>
</trkpt>
<trkpt lat="33.8102226" lon="-118.3939694">
  <ele>-0.11</ele>
  <time>2026-09-02T22:07:32Z</time>
  <course>186.41</course>
  <speed>0.7213875518748573</speed>
  <fix>3d</fix>
</trkpt>
<trkpt lat="33.8102225" lon="-118.3939694">
  <ele>-0.11</ele>
  <time>2026-09-02T22:07:32Z</time>
  <course>186.41</course>
  <speed>0.7213875518748573</speed>
  <fix>3d</fix>
</trkpt>
<trkpt lat="33.8102225" lon="-118.3939695">
  <ele>-0.11</ele>
  <time>2026-09-02T22:07:32Z</time>
  <course>186.41</course>
  <speed>0.7213875518748573</speed>
  <fix>3d</fix>
</trkpt>
<trkpt lat="33.8102229" lon="-118.3939686">
  <ele>-0.1</ele>
  <time>2026-09-02T22:07:32Z</time>
  <course>223.26</course>
  <speed>0.73</speed>
  <fix>3d</fix>
</trkpt>
<trkpt lat="33.8102225" lon="-118.3939695">
  <ele>-0.11</ele>
  <time>2026-09-02T22:07:32Z</time>
  <course>186.41</course>
  <speed>0.7213875518748573</speed>
  <fix>3d</fix>
</trkpt>
<trkpt lat="33.8102224" lon="-118.3939695">
  <ele>-0.11</ele>
  <time>2026-09-02T22:07:32Z</time>
  <course>186.41</course>
  <speed>0.7213875518748573</speed>
  <fix>3d</fix>
</trkpt>
<trkpt lat="33.8102224" lon="-118.3939696">
  <ele>-0.11</ele>
  <time>2026-09-02T22:07:32Z</time>
  <course>186.41</course>
  <speed>0.7213875518748573</speed>
  <fix>3d</fix>
</trkpt>
<trkpt lat="33.8102224" lon="-118.3939696">
  <ele>-0.11</ele>
  <time>2026-09-02T22:07:32Z</time>
  <course>186.41</course>
  <speed>0.7213875518748573</speed>
  <fix>3d</fix>
</trkpt>
<trkpt lat="33.8102223" lon="-118.3939697">
  <ele>-0.11</ele>
  <time>2026-09-02T22:07:32Z</time>
  <course>186.41</course>
  <speed>0.7213875518748573</speed>
  <fix>3d</fix>
</trkpt>
<trkpt lat="33.8102223" lon="-118.3939697">
  <ele>-0.11</ele>
  <time>2026-09-02T22:07:32Z</time>
  <course>186.41</course>
  <speed>0.7213875518748573</speed>
  <fix>3d</fix>
</trkpt>
<trkpt lat="33.8102222" lon="-118.3939698">
  <ele>-0.11</ele>
  <time>2026-09-02T22:07:32Z</time>
  <course>186.41</course>
  <speed>0.7213875518748573</speed>
  <fix>3d</fix>
</trkpt>
<trkpt lat="33.8102222" lon="-118.3939698">
  <ele>-0.11</ele>
  <time>2026-09-02T22:07:32Z</time>
  <course>186.41</course>
  <speed>0.7213875518748573</speed>
  <fix>3d</fix>
</trkpt>
<trkpt lat="33.8102221" lon="-118.3939699">
  <ele>-0.11</ele>
  <time>2026-09-02T22:07:32Z</time>
  <course>186.41</course>
  <speed>0.7213875518748573</speed>
  <fix>3d</fix>
</trkpt>
<trkpt lat="33.8102221" lon="-118.3939699">
  <ele>-0.11</ele>
  <time>2026-09-02T22:07:32Z</time>
  <course>186.41</course>
  <speed>0.7213875518748573</speed>
  <fix>3d</fix>
</trkpt>
<trkpt lat="33.8102221" lon="-118.3939699">
  <ele>-0.11</ele>
  <time>2026-09-02T22:07:32Z</time>
  <course>186.41</course>
  <speed>0.7213875518748573</speed>
  <fix>3d</fix>
</trkpt>
<trkpt lat="33.810222" lon="-118.39397">
  <ele>-0.11</ele>
  <time>2026-09-02T22:07:32Z</time>
  <course>186.41</course>
  <speed>0.7213875518748573</speed>
  <fix>3d</fix>
</trkpt>
<trkpt lat="33.810222" lon="-118.39397">
  <ele>-0.11</ele>
  <time>2026-09-02T22:07:32Z</time>
  <course>186.41</course>
  <speed>0.7213875518748573</speed>
  <fix>3d</fix>
</trkpt>
<trkpt lat="33.8102229" lon="-118.3939686">
  <ele>-0.1</ele>
  <time>2026-09-02T22:07:32Z</time>
  <course>223.26</course>
  <speed>0.73</speed>
  <fix>3d</fix>
</trkpt>
<trkpt lat="33.810222" lon="-118.39397">
  <ele>-0.11</ele>
  <time>2026-09-02T22:07:32Z</time>
  <course>186.41</course>
  <speed>0.7213875518748573</speed>
  <fix>3d</fix>
</trkpt>
<trkpt lat="33.8102219" lon="-118.3939701">
  <ele>-0.11</ele>
  <time>2026-09-02T22:07:32Z</time>
  <course>186.41</course>
  <speed>0.7213875518748573</speed>
  <fix>3d</fix>
</trkpt>
<trkpt lat="33.8102219" lon="-118.3939701">
  <ele>-0.109</ele>
  <time>2026-09-02T22:07:32Z</time>
  <course>186.41</course>
  <speed>0.7213875518748573</speed>
  <fix>3d</fix>
</trkpt>
<trkpt lat="33.8102219" lon="-118.3939702">
  <ele>-0.109</ele>
  <time>2026-09-02T22:07:32Z</time>
  <course>186.41</course>
  <speed>0.7213875518748573</speed>
  <fix>3d</fix>
</trkpt>
<trkpt lat="33.8102218" lon="-118.3939702">
  <ele>-0.109</ele>
  <time>2026-09-02T22:07:32Z</time>
  <course>186.41</course>
  <speed>0.7213875518748573</speed>
  <fix>3d</fix>
</trkpt>
<trkpt lat="33.8102218" lon="-118.3939703">
  <ele>-0.109</ele>
  <time>2026-09-02T22:07:32Z</time>
  <course>186.41</course>
  <speed>0.7213875518748573</speed>
  <fix>3d</fix>
</trkpt>
<trkpt lat="33.8102218" lon="-118.3939703">
  <ele>-0.109</ele>
  <time>2026-09-02T22:07:32Z</time>
  <course>186.41</course>
  <speed>0.7213875518748573</speed>
  <fix>3d</fix>
</trkpt>
<trkpt lat="33.8102217" lon="-118.3939703">
  <ele>-0.109</ele>
  <time>2026-09-02T22:07:32Z</time>
  <course>186.41</course>
  <speed>0.7213875518748573</speed>
  <fix>3d</fix>
</trkpt>
<trkpt lat="33.8102217" lon="-118.3939704">
  <ele>-0.109</ele>
  <time>2026-09-02T22:07:32Z</time>
  <course>186.41</course>
  <speed>0.7213875518748573</speed>
  <fix>3d</fix>
</trkpt>
<trkpt lat="33.8102216" lon="-118.3939704">
  <ele>-0.109</ele>
  <time>2026-09-02T22:07:32Z</time>
  <course>186.41</course>
  <speed>0.7213875518748573</speed>
  <fix>3d</fix>
</trkpt>
<trkpt lat="33.8102216" lon="-118.3939705">
  <ele>-0.109</ele>
  <time>2026-09-02T22:07:32Z</time>
  <course>186.41</course>
  <speed>0.7213875518748573</speed>
  <fix>3d</fix>
</trkpt>
<trkpt lat="33.8102216" lon="-118.3939705">
  <ele>-0.109</ele>
  <time>2026-09-02T22:07:32Z</time>
  <course>186.41</course>
  <speed>0.7213875518748573</speed>
  <fix>3d</fix>
</trkpt>
<trkpt lat="33.8102215" lon="-118.3939705">
  <ele>-0.108</ele>
  <time>2026-09-02T22:07:32Z</time>
  <course>186.41</course>
  <speed>0.7213875518748573</speed>
  <fix>3d</fix>
</trkpt>
<trkpt lat="33.8102219" lon="-118.3939697">
  <ele>-0.11</ele>
  <time>2026-09-02T22:07:32Z</time>
  <course>223.26</course>
  <speed>0.73</speed>
  <fix>3d</fix>
</trkpt>
<trkpt lat="33.8102215" lon="-118.3939706">
  <ele>-0.108</ele>
  <time>2026-09-02T22:07:32Z</time>
  <course>186.41</course>
  <speed>0.7213875518748573</speed>
  <fix>3d</fix>
</trkpt>
<trkpt lat="33.8102215" lon="-118.3939706">
  <ele>-0.108</ele>
  <time>2026-09-02T22:07:32Z</time>
  <course>186.41</course>
  <speed>0.7213875518748573</speed>
  <fix>3d</fix>
</trkpt>
<trkpt lat="33.8102214" lon="-118.3939707">
  <ele>-0.108</ele>
  <time>2026-09-02T22:07:32Z</time>
  <course>186.41</course>
  <speed>0.7213875518748573</speed>
  <fix>3d</fix>
</trkpt>
<trkpt lat="33.8102214" lon="-118.3939707">
  <ele>-0.108</ele>
  <time>2026-09-02T22:07:32Z</time>
  <course>186.41</course>
  <speed>0.7213875518748573</speed>
  <fix>3d</fix>
</trkpt>
<trkpt lat="33.8102214" lon="-118.3939707">
  <ele>-0.108</ele>
  <time>2026-09-02T22:07:32Z</time>
  <course>186.41</course>
  <speed>0.7213875518748573</speed>
  <fix>3d</fix>
</trkpt>
<trkpt lat="33.8102213" lon="-118.3939708">
  <ele>-0.108</ele>
  <time>2026-09-02T22:07:32Z</time>
  <course>186.41</course>
  <speed>0.7213875518748573</speed>
  <fix>3d</fix>
</trkpt>
<trkpt lat="33.8102213" lon="-118.3939708">
  <ele>-0.108</ele>
  <time>2026-09-02T22:07:32Z</time>
  <course>186.41</course>
  <speed>0.7213875518748573</speed>
  <fix>3d</fix>
</trkpt>
<trkpt lat="33.8102213" lon="-118.3939709">
  <ele>-0.107</ele>
  <time>2026-09-02T22:07:32Z</time>
  <course>186.41</course>
  <speed>0.7213875518748573</speed>
  <fix>3d</fix>
</trkpt>
<trkpt lat="33.8102212" lon="-118.3939709">
  <ele>-0.107</ele>
  <time>2026-09-02T22:07:32Z</time>
  <course>186.41</course>
  <speed>0.7213875518748573</speed>
  <fix>3d</fix>
</trkpt>
<trkpt lat="33.8102212" lon="-118.3939709">
  <ele>-0.107</ele>
  <time>2026-09-02T22:07:32Z</time>
  <course>186.41</course>
  <speed>0.7213875518748573</speed>
  <fix>3d</fix>
</trkpt>
<trkpt lat="33.8102212" lon="-118.393971">
  <ele>-0.107</ele>
  <time>2026-09-02T22:07:32Z</time>
  <course>186.41</course>
  <speed>0.7213875518748573</speed>
  <fix>3d</fix>
</trkpt>
<trkpt lat="33.8102211" lon="-118.393971">
  <ele>-0.107</ele>
  <time>2026-09-02T22:07:32Z</time>
  <course>186.41</course>
  <speed>0.7213875518748573</speed>
  <fix>3d</fix>
</trkpt>
<trkpt lat="33.8102211" lon="-118.3939711">
  <ele>-0.107</ele>
  <time>2026-09-02T22:07:32Z</time>
  <course>186.41</course>
  <speed>0.7213875518748573</speed>
  <fix>3d</fix>
</trkpt>
<trkpt lat="33.8102211" lon="-118.3939711">
  <ele>-0.107</ele>
  <time>2026-09-02T22:07:32Z</time>
  <course>186.41</course>
  <speed>0.7213875518748573</speed>
  <fix>3d</fix>
</trkpt>
<trkpt lat="33.8102219" lon="-118.3939697">
  <ele>-0.11</ele>
  <time>2026-09-02T22:07:32Z</time>
  <course>223.26</course>
  <speed>0.73</speed>
  <fix>3d</fix>
</trkpt>
<trkpt lat="33.810221" lon="-118.3939711">
  <ele>-0.107</ele>
  <time>2026-09-02T22:07:32Z</time>
  <course>186.41</course>
  <speed>0.7213875518748573</speed>
  <fix>3d</fix>
</trkpt>
<trkpt lat="33.810221" lon="-118.3939712">
  <ele>-0.106</ele>
  <time>2026-09-02T22:07:32Z</time>
  <course>186.41</course>
  <speed>0.7213875518748573</speed>
  <fix>3d</fix>
</trkpt>
<trkpt lat="33.8102209" lon="-118.3939712">
  <ele>-0.106</ele>
  <time>2026-09-02T22:07:32Z</time>
  <course>186.41</course>
  <speed>0.7213875518748573</speed>
  <fix>3d</fix>
</trkpt>
<trkpt lat="33.8102209" lon="-118.3939713">
  <ele>-0.106</ele>
  <time>2026-09-02T22:07:32Z</time>
  <course>186.41</course>
  <speed>0.7213875518748573</speed>
  <fix>3d</fix>
</trkpt>
<trkpt lat="33.8102209" lon="-118.3939713">
  <ele>-0.106</ele>
  <time>2026-09-02T22:07:32Z</time>
  <course>186.41</course>
  <speed>0.7213875518748573</speed>
  <fix>3d</fix>
</trkpt>
<trkpt lat="33.8102208" lon="-118.3939714">
  <ele>-0.106</ele>
  <time>2026-09-02T22:07:32Z</time>
  <course>186.41</course>
  <speed>0.7213875518748573</speed>
  <fix>3d</fix>
</trkpt>
<trkpt lat="33.8102208" lon="-118.3939714">
  <ele>-0.106</ele>
  <time>2026-09-02T22:07:32Z</time>
  <course>186.41</course>
  <speed>0.7213875518748573</speed>
  <fix>3d</fix>
</trkpt>
<trkpt lat="33.8102208" lon="-118.3939714">
  <ele>-0.106</ele>
  <time>2026-09-02T22:07:32Z</time>
  <course>186.41</course>
  <speed>0.7213875518748573</speed>
  <fix>3d</fix>
</trkpt>
<trkpt lat="33.8102207" lon="-118.3939715">
  <ele>-0.105</ele>
  <time>2026-09-02T22:07:32Z</time>
  <course>186.41</course>
  <speed>0.7213875518748573</speed>
  <fix>3d</fix>
</trkpt>
<trkpt lat="33.8102207" lon="-118.3939715">
  <ele>-0.105</ele>
  <time>2026-09-02T22:07:32Z</time>
  <course>186.41</course>
  <speed>0.7213875518748573</speed>
  <fix>3d</fix>
</trkpt>
<trkpt lat="33.8102206" lon="-118.3939716">
  <ele>-0.105</ele>
  <time>2026-09-02T22:07:32Z</time>
  <course>186.41</course>
  <speed>0.7213875518748573</speed>
  <fix>3d</fix>
</trkpt>
<trkpt lat="33.8102206" lon="-118.3939716">
  <ele>-0.105</ele>
  <time>2026-09-02T22:07:32Z</time>
  <course>186.41</course>
  <speed>0.7213875518748573</speed>
  <fix>3d</fix>
</trkpt>
<trkpt lat="33.8102206" lon="-118.3939716">
  <ele>-0.105</ele>
  <time>2026-09-02T22:07:32Z</time>
  <course>186.41</course>
  <speed>0.7213875518748573</speed>
  <fix>3d</fix>
</trkpt>
<trkpt lat="33.8102209" lon="-118.3939708">
  <ele>-0.1</ele>
  <time>2026-09-02T22:07:32Z</time>
  <course>223.26</course>
  <speed>0.73</speed>
  <fix>3d</fix>
</trkpt>
<trkpt lat="33.8102206" lon="-118.3939716">
  <ele>-0.105</ele>
  <time>2026-09-02T22:07:32Z</time>
  <course>186.41</course>
  <speed>0.7213875518748573</speed>
  <fix>3d</fix>
</trkpt>
<trkpt lat="33.8102205" lon="-118.3939717">
  <ele>-0.105</ele>
  <time>2026-09-02T22:07:32Z</time>
  <course>186.41</course>
  <speed>0.7213875518748573</speed>
  <fix>3d</fix>
</trkpt>
<trkpt lat="33.8102205" lon="-118.3939718">
  <ele>-0.105</ele>
  <time>2026-09-02T22:07:32Z</time>
  <course>186.41</course>
  <speed>0.7213875518748573</speed>
  <fix>3d</fix>
</trkpt>
<trkpt lat="33.8102204" lon="-118.3939718">
  <ele>-0.104</ele>
  <time>2026-09-02T22:07:32Z</time>
  <course>186.41</course>
  <speed>0.7213875518748573</speed>
  <fix>3d</fix>
</trkpt>
<trkpt lat="33.8102204" lon="-118.3939718">
  <ele>-0.104</ele>
  <time>2026-09-02T22:07:32Z</time>
  <course>186.41</course>
  <speed>0.7213875518748573</speed>
  <fix>3d</fix>
</trkpt>
<trkpt lat="33.8102204" lon="-118.3939719">
  <ele>-0.104</ele>
  <time>2026-09-02T22:07:32Z</time>
  <course>186.41</course>
  <speed>0.7213875518748573</speed>
  <fix>3d</fix>
</trkpt>
<trkpt lat="33.8102203" lon="-118.3939719">
  <ele>-0.104</ele>
  <time>2026-09-02T22:07:32Z</time>
  <course>186.41</course>
  <speed>0.7213875518748573</speed>
  <fix>3d</fix>
</trkpt>
<trkpt lat="33.8102203" lon="-118.393972">
  <ele>-0.104</ele>
  <time>2026-09-02T22:07:32Z</time>
  <course>186.4</course>
  <speed>0.7213875518748573</speed>
  <fix>3d</fix>
</trkpt>
<trkpt lat="33.8102202" lon="-118.393972">
  <ele>-0.104</ele>
  <time>2026-09-02T22:07:32Z</time>
  <course>186.4</course>
  <speed>0.7213875518748573</speed>
  <fix>3d</fix>
</trkpt>
<trkpt lat="33.8102202" lon="-118.3939721">
  <ele>-0.104</ele>
  <time>2026-09-02T22:07:32Z</time>
  <course>186.4</course>
  <speed>0.7213875518748573</speed>
  <fix>3d</fix>
</trkpt>
<trkpt lat="33.8102202" lon="-118.3939721">
  <ele>-0.104</ele>
  <time>2026-09-02T22:07:32Z</time>
  <course>186.4</course>
  <speed>0.7213875518748573</speed>
  <fix>3d</fix>
</trkpt>
<trkpt lat="33.8102201" lon="-118.3939721">
  <ele>-0.104</ele>
  <time>2026-09-02T22:07:32Z</time>
  <course>186.4</course>
  <speed>0.7213875518748573</speed>
  <fix>3d</fix>
</trkpt>
<trkpt lat="33.8102201" lon="-118.3939722">
  <ele>-0.104</ele>
  <time>2026-09-02T22:07:32Z</time>
  <course>186.4</course>
  <speed>0.7213875518748573</speed>
  <fix>3d</fix>
</trkpt>
<trkpt lat="33.8102201" lon="-118.3939722">
  <ele>-0.104</ele>
  <time>2026-09-02T22:07:32Z</time>
  <course>186.4</course>
  <speed>0.7213875518748573</speed>
  <fix>3d</fix>
</trkpt>
<trkpt lat="33.8102209" lon="-118.3939708">
  <ele>-0.1</ele>
  <time>2026-09-02T22:07:32Z</time>
  <course>223.26</course>
  <speed>0.73</speed>
  <fix>3d</fix>
</trkpt>
<trkpt lat="33.81022" lon="-118.3939723">
  <ele>-0.104</ele>
  <time>2026-09-02T22:07:32Z</time>
  <course>186.4</course>
  <speed>0.7213875518748573</speed>
  <fix>3d</fix>
</trkpt>
<trkpt lat="33.81022" lon="-118.3939723">
  <ele>-0.104</ele>
  <time>2026-09-02T22:07:32Z</time>
  <course>186.4</course>
  <speed>0.7213875518748573</speed>
  <fix>3d</fix>
</trkpt>
<trkpt lat="33.8102199" lon="-118.3939724">
  <ele>-0.104</ele>
  <time>2026-09-02T22:07:32Z</time>
  <course>186.4</course>
  <speed>0.7213875518748573</speed>
  <fix>3d</fix>
</trkpt>
<trkpt lat="33.8102199" lon="-118.3939724">
  <ele>-0.103</ele>
  <time>2026-09-02T22:07:32Z</time>
  <course>186.4</course>
  <speed>0.7213875518748573</speed>
  <fix>3d</fix>
</trkpt>
<trkpt lat="33.8102199" lon="-118.3939725">
  <ele>-0.103</ele>
  <time>2026-09-02T22:07:32Z</time>
  <course>186.4</course>
  <speed>0.7213875518748573</speed>
  <fix>3d</fix>
</trkpt>
<trkpt lat="33.8102198" lon="-118.3939725">
  <ele>-0.103</ele>
  <time>2026-09-02T22:07:32Z</time>
  <course>186.4</course>
  <speed>0.7213875518748573</speed>
  <fix>3d</fix>
</trkpt>
<trkpt lat="33.8102198" lon="-118.3939725">
  <ele>-0.103</ele>
  <time>2026-09-02T22:07:32Z</time>
  <course>186.4</course>
  <speed>0.7213875518748573</speed>
  <fix>3d</fix>
</trkpt>
<trkpt lat="33.8102198" lon="-118.3939726">
  <ele>-0.103</ele>
  <time>2026-09-02T22:07:32Z</time>
  <course>186.4</course>
  <speed>0.7213875518748573</speed>
  <fix>3d</fix>
</trkpt>
<trkpt lat="33.8102197" lon="-118.3939726">
  <ele>-0.103</ele>
  <time>2026-09-02T22:07:32Z</time>
  <course>186.4</course>
  <speed>0.7213875518748573</speed>
  <fix>3d</fix>
</trkpt>
<trkpt lat="33.8102197" lon="-118.3939727">
  <ele>-0.103</ele>
  <time>2026-09-02T22:07:32Z</time>
  <course>186.4</course>
  <speed>0.7213875518748573</speed>
  <fix>3d</fix>
</trkpt>
<trkpt lat="33.8102196" lon="-118.3939727">
  <ele>-0.103</ele>
  <time>2026-09-02T22:07:32Z</time>
  <course>186.4</course>
  <speed>0.7213875518748573</speed>
  <fix>3d</fix>
</trkpt>
<trkpt lat="33.8102196" lon="-118.3939727">
  <ele>-0.103</ele>
  <time>2026-09-02T22:07:32Z</time>
  <course>186.4</course>
  <speed>0.7213875518748573</speed>
  <fix>3d</fix>
</trkpt>
<trkpt lat="33.81022" lon="-118.3939719">
  <ele>-0.1</ele>
  <time>2026-09-02T22:07:32Z</time>
  <course>223.26</course>
  <speed>0.73</speed>
  <fix>3d</fix>
</trkpt>
<trkpt lat="33.8102196" lon="-118.3939727">
  <ele>-0.103</ele>
  <time>2026-09-02T22:07:32Z</time>
  <course>186.4</course>
  <speed>0.7213875518748573</speed>
  <fix>3d</fix>
</trkpt>
<trkpt lat="33.8102195" lon="-118.3939728">
  <ele>-0.103</ele>
  <time>2026-09-02T22:07:32Z</time>
  <course>186.4</course>
  <speed>0.7213875518748573</speed>
  <fix>3d</fix>
</trkpt>
<trkpt lat="33.8102195" lon="-118.3939729">
  <ele>-0.103</ele>
  <time>2026-09-02T22:07:32Z</time>
  <course>186.4</course>
  <speed>0.7213875518748573</speed>
  <fix>3d</fix>
</trkpt>
<trkpt lat="33.8102194" lon="-118.3939729">
  <ele>-0.103</ele>
  <time>2026-09-02T22:07:32Z</time>
  <course>186.4</course>
  <speed>0.7213875518748573</speed>
  <fix>3d</fix>
</trkpt>
<trkpt lat="33.8102194" lon="-118.393973">
  <ele>-0.103</ele>
  <time>2026-09-02T22:07:32Z</time>
  <course>186.4</course>
  <speed>0.7213875518748573</speed>
  <fix>3d</fix>
</trkpt>
<trkpt lat="33.8102194" lon="-118.393973">
  <ele>-0.103</ele>
  <time>2026-09-02T22:07:32Z</time>
  <course>186.4</course>
  <speed>0.7213875518748573</speed>
  <fix>3d</fix>
</trkpt>
<trkpt lat="33.8102193" lon="-118.393973">
  <ele>-0.103</ele>
  <time>2026-09-02T22:07:32Z</time>
  <course>186.4</course>
  <speed>0.7213875518748573</speed>
  <fix>3d</fix>
</trkpt>
<trkpt lat="33.8102193" lon="-118.3939731">
  <ele>-0.103</ele>
  <time>2026-09-02T22:07:32Z</time>
  <course>186.4</course>
  <speed>0.7213875518748573</speed>
  <fix>3d</fix>
</trkpt>
<trkpt lat="33.8102193" lon="-118.3939731">
  <ele>-0.103</ele>
  <time>2026-09-02T22:07:32Z</time>
  <course>186.4</course>
  <speed>0.7213875518748573</speed>
  <fix>3d</fix>
</trkpt>
<trkpt lat="33.8102192" lon="-118.3939732">
  <ele>-0.103</ele>
  <time>2026-09-02T22:07:32Z</time>
  <course>186.4</course>
  <speed>0.7213875518748573</speed>
  <fix>3d</fix>
</trkpt>
<trkpt lat="33.8102192" lon="-118.3939732">
  <ele>-0.103</ele>
  <time>2026-09-02T22:07:32Z</time>
  <course>186.4</course>
  <speed>0.7213875518748573</speed>
  <fix>3d</fix>
</trkpt>
<trkpt lat="33.8102192" lon="-118.3939733">
  <ele>-0.103</ele>
  <time>2026-09-02T22:07:32Z</time>
  <course>186.4</course>
  <speed>0.7213875518748573</speed>
  <fix>3d</fix>
</trkpt>
<trkpt lat="33.8102191" lon="-118.3939733">
  <ele>-0.103</ele>
  <time>2026-09-02T22:07:32Z</time>
  <course>186.4</course>
  <speed>0.7213875518748573</speed>
  <fix>3d</fix>
</trkpt>
<trkpt lat="33.81022" lon="-118.3939719">
  <ele>-0.1</ele>
  <time>2026-09-02T22:07:32Z</time>
  <course>223.26</course>
  <speed>0.73</speed>
  <fix>3d</fix>
</trkpt>
<trkpt lat="33.8102191" lon="-118.3939733">
  <ele>-0.103</ele>
  <time>2026-09-02T22:07:32Z</time>
  <course>186.4</course>
  <speed>0.7213875518748573</speed>
  <fix>3d</fix>
</trkpt>
<trkpt lat="33.8102191" lon="-118.3939734">
  <ele>-0.103</ele>
  <time>2026-09-02T22:07:32Z</time>
  <course>186.4</course>
  <speed>0.7213875518748573</speed>
  <fix>3d</fix>
</trkpt>
<trkpt lat="33.810219" lon="-118.3939734">
  <ele>-0.104</ele>
  <time>2026-09-02T22:07:32Z</time>
  <course>186.4</course>
  <speed>0.7213875518748573</speed>
  <fix>3d</fix>
</trkpt>
<trkpt lat="33.8102189" lon="-118.3939735">
  <ele>-0.104</ele>
  <time>2026-09-02T22:07:32Z</time>
  <course>186.4</course>
  <speed>0.7213875518748573</speed>
  <fix>3d</fix>
</trkpt>
<trkpt lat="33.8102189" lon="-118.3939735">
  <ele>-0.104</ele>
  <time>2026-09-02T22:07:32Z</time>
  <course>186.4</course>
  <speed>0.7213875518748573</speed>
  <fix>3d</fix>
</trkpt>
<trkpt lat="33.8102189" lon="-118.3939736">
  <ele>-0.104</ele>
  <time>2026-09-02T22:07:32Z</time>
  <course>186.4</course>
  <speed>0.7213875518748573</speed>
  <fix>3d</fix>
</trkpt>
<trkpt lat="33.8102188" lon="-118.3939736">
  <ele>-0.104</ele>
  <time>2026-09-02T22:07:32Z</time>
  <course>186.4</course>
  <speed>0.7213875518748573</speed>
  <fix>3d</fix>
</trkpt>
<trkpt lat="33.8102188" lon="-118.3939737">
  <ele>-0.104</ele>
  <time>2026-09-02T22:07:32Z</time>
  <course>186.4</course>
  <speed>0.7213875518748573</speed>
  <fix>3d</fix>
</trkpt>
<trkpt lat="33.8102188" lon="-118.3939737">
  <ele>-0.104</ele>
  <time>2026-09-02T22:07:32Z</time>
  <course>186.4</course>
  <speed>0.7213875518748573</speed>
  <fix>3d</fix>
</trkpt>
<trkpt lat="33.8102187" lon="-118.3939737">
  <ele>-0.104</ele>
  <time>2026-09-02T22:07:32Z</time>
  <course>186.4</course>
  <speed>0.7213875518748573</speed>
  <fix>3d</fix>
</trkpt>
<trkpt lat="33.8102187" lon="-118.3939738">
  <ele>-0.105</ele>
  <time>2026-09-02T22:07:32Z</time>
  <course>186.4</course>
  <speed>0.7213875518748573</speed>
  <fix>3d</fix>
</trkpt>
<trkpt lat="33.8102186" lon="-118.3939738">
  <ele>-0.105</ele>
  <time>2026-09-02T22:07:32Z</time>
  <course>186.4</course>
  <speed>0.7213875518748573</speed>
  <fix>3d</fix>
</trkpt>
<trkpt lat="33.8102186" lon="-118.3939738">
  <ele>-0.105</ele>
  <time>2026-09-02T22:07:32Z</time>
  <course>186.4</course>
  <speed>0.7213875518748573</speed>
  <fix>3d</fix>
</trkpt>
<trkpt lat="33.810219" lon="-118.393973">
  <ele>-0.1</ele>
  <time>2026-09-02T22:07:32Z</time>
  <course>223.26</course>
  <speed>0.73</speed>
  <fix>3d</fix>
</trkpt>
<trkpt lat="33.8102185" lon="-118.393974">
  <ele>-0.105</ele>
  <time>2026-09-02T22:07:32Z</time>
  <course>186.4</course>
  <speed>0.7213875518748573</speed>
  <fix>3d</fix>
</trkpt>
<trkpt lat="33.8102185" lon="-118.393974">
  <ele>-0.105</ele>
  <time>2026-09-02T22:07:32Z</time>
  <course>186.4</course>
  <speed>0.7213875518748573</speed>
  <fix>3d</fix>
</trkpt>
<trkpt lat="33.8102184" lon="-118.3939741">
  <ele>-0.105</ele>
  <time>2026-09-02T22:07:32Z</time>
  <course>186.4</course>
  <speed>0.7213875518748573</speed>
  <fix>3d</fix>
</trkpt>
<trkpt lat="33.8102184" lon="-118.3939741">
  <ele>-0.105</ele>
  <time>2026-09-02T22:07:32Z</time>
  <course>186.4</course>
  <speed>0.7213875518748573</speed>
  <fix>3d</fix>
</trkpt>
<trkpt lat="33.8102183" lon="-118.3939742">
  <ele>-0.106</ele>
  <time>2026-09-02T22:07:32Z</time>
  <course>186.4</course>
  <speed>0.7213875518748573</speed>
  <fix>3d</fix>
</trkpt>
<trkpt lat="33.8102183" lon="-118.3939742">
  <ele>-0.106</ele>
  <time>2026-09-02T22:07:32Z</time>
  <course>186.4</course>
  <speed>0.7213875518748573</speed>
  <fix>3d</fix>
</trkpt>
<trkpt lat="33.8102183" lon="-118.3939743">
  <ele>-0.106</ele>
  <time>2026-09-02T22:07:32Z</time>
  <course>186.4</course>
  <speed>0.7213875518748573</speed>
  <fix>3d</fix>
</trkpt>
<trkpt lat="33.8102182" lon="-118.3939743">
  <ele>-0.106</ele>
  <time>2026-09-02T22:07:32Z</time>
  <course>186.4</course>
  <speed>0.7213875518748573</speed>
  <fix>3d</fix>
</trkpt>
<trkpt lat="33.8102182" lon="-118.3939743">
  <ele>-0.106</ele>
  <time>2026-09-02T22:07:32Z</time>
  <course>186.4</course>
  <speed>0.7213875518748573</speed>
  <fix>3d</fix>
</trkpt>
<trkpt lat="33.8102182" lon="-118.3939744">
  <ele>-0.106</ele>
  <time>2026-09-02T22:07:32Z</time>
  <course>186.4</course>
  <speed>0.7213875518748573</speed>
  <fix>3d</fix>
</trkpt>
<trkpt lat="33.810219" lon="-118.393973">
  <ele>-0.1</ele>
  <time>2026-09-02T22:07:32Z</time>
  <course>223.26</course>
  <speed>0.73</speed>
  <fix>3d</fix>
</trkpt>
<trkpt lat="33.8102182" lon="-118.3939744">
  <ele>-0.106</ele>
  <time>2026-09-02T22:07:32Z</time>
  <course>186.4</course>
  <speed>0.7213875518748573</speed>
  <fix>3d</fix>
</trkpt>
<trkpt lat="33.8102181" lon="-118.3939745">
  <ele>-0.106</ele>
  <time>2026-09-02T22:07:32Z</time>
  <course>186.4</course>
  <speed>0.7213875518748573</speed>
  <fix>3d</fix>
</trkpt>
<trkpt lat="33.8102181" lon="-118.3939745">
  <ele>-0.106</ele>
  <time>2026-09-02T22:07:32Z</time>
  <course>186.4</course>
  <speed>0.7213875518748573</speed>
  <fix>3d</fix>
</trkpt>
<trkpt lat="33.810218" lon="-118.3939745">
  <ele>-0.106</ele>
  <time>2026-09-02T22:07:32Z</time>
  <course>186.4</course>
  <speed>0.7213875518748573</speed>
  <fix>3d</fix>
</trkpt>
<trkpt lat="33.810218" lon="-118.3939746">
  <ele>-0.106</ele>
  <time>2026-09-02T22:07:32Z</time>
  <course>186.4</course>
  <speed>0.7213875518748573</speed>
  <fix>3d</fix>
</trkpt>
<trkpt lat="33.8102179" lon="-118.3939746">
  <ele>-0.106</ele>
  <time>2026-09-02T22:07:32Z</time>
  <course>186.4</course>
  <speed>0.7213875518748573</speed>
  <fix>3d</fix>
</trkpt>
<trkpt lat="33.8102179" lon="-118.3939747">
  <ele>-0.107</ele>
  <time>2026-09-02T22:07:32Z</time>
  <course>186.4</course>
  <speed>0.7213875518748573</speed>
  <fix>3d</fix>
</trkpt>
<trkpt lat="33.8102179" lon="-118.3939747">
  <ele>-0.107</ele>
  <time>2026-09-02T22:07:32Z</time>
  <course>186.4</course>
  <speed>0.7213875518748573</speed>
  <fix>3d</fix>
</trkpt>
<trkpt lat="33.8102178" lon="-118.3939748">
  <ele>-0.107</ele>
  <time>2026-09-02T22:07:32Z</time>
  <course>186.4</course>
  <speed>0.7213875518748573</speed>
  <fix>3d</fix>
</trkpt>
<trkpt lat="33.8102178" lon="-118.3939748">
  <ele>-0.107</ele>
  <time>2026-09-02T22:07:32Z</time>
  <course>186.4</course>
  <speed>0.7213875518748573</speed>
  <fix>3d</fix>
</trkpt>
<trkpt lat="33.8102177" lon="-118.3939749">
  <ele>-0.107</ele>
  <time>2026-09-02T22:07:32Z</time>
  <course>186.4</course>
  <speed>0.7213875518748573</speed>
  <fix>3d</fix>
</trkpt>
<trkpt lat="33.8102177" lon="-118.3939749">
  <ele>-0.107</ele>
  <time>2026-09-02T22:07:32Z</time>
  <course>186.4</course>
  <speed>0.7213875518748573</speed>
  <fix>3d</fix>
</trkpt>
<trkpt lat="33.8102177" lon="-118.3939749">
  <ele>-0.107</ele>
  <time>2026-09-02T22:07:32Z</time>
  <course>186.4</course>
  <speed>0.7213875518748573</speed>
  <fix>3d</fix>
</trkpt>
<trkpt lat="33.8102181" lon="-118.3939741">
  <ele>-0.1</ele>
  <time>2026-09-02T22:07:32Z</time>
  <course>223.26</course>
  <speed>0.73</speed>
  <fix>3d</fix>
</trkpt>
<trkpt lat="33.8102177" lon="-118.3939749">
  <ele>-0.107</ele>
  <time>2026-09-02T22:07:32Z</time>
  <course>186.4</course>
  <speed>0.7213875518748573</speed>
  <fix>3d</fix>
</trkpt>
<trkpt lat="33.8102176" lon="-118.393975">
  <ele>-0.108</ele>
  <time>2026-09-02T22:07:32Z</time>
  <course>186.4</course>
  <speed>0.7213875518748573</speed>
  <fix>3d</fix>
</trkpt>
<trkpt lat="33.8102176" lon="-118.3939751">
  <ele>-0.108</ele>
  <time>2026-09-02T22:07:32Z</time>
  <course>186.4</course>
  <speed>0.7213875518748573</speed>
  <fix>3d</fix>
</trkpt>
<trkpt lat="33.8102175" lon="-118.3939751">
  <ele>-0.108</ele>
  <time>2026-09-02T22:07:32Z</time>
  <course>186.4</course>
  <speed>0.7213875518748573</speed>
  <fix>3d</fix>
</trkpt>
<trkpt lat="33.8102175" lon="-118.3939752">
  <ele>-0.108</ele>
  <time>2026-09-02T22:07:32Z</time>
  <course>186.4</course>
  <speed>0.7213875518748573</speed>
  <fix>3d</fix>
</trkpt>
<trkpt lat="33.8102174" lon="-118.3939752">
  <ele>-0.108</ele>
  <time>2026-09-02T22:07:32Z</time>
  <course>186.4</course>
  <speed>0.7213875518748573</speed>
  <fix>3d</fix>
</trkpt>
<trkpt lat="33.8102174" lon="-118.3939753">
  <ele>-0.108</ele>
  <time>2026-09-02T22:07:32Z</time>
  <course>186.4</course>
  <speed>0.7213875518748573</speed>
  <fix>3d</fix>
</trkpt>
<trkpt lat="33.8102173" lon="-118.3939753">
  <ele>-0.108</ele>
  <time>2026-09-02T22:07:32Z</time>
  <course>186.4</course>
  <speed>0.7213875518748573</speed>
  <fix>3d</fix>
</trkpt>
<trkpt lat="33.8102173" lon="-118.3939753">
  <ele>-0.108</ele>
  <time>2026-09-02T22:07:32Z</time>
  <course>186.4</course>
  <speed>0.7213875518748573</speed>
  <fix>3d</fix>
</trkpt>
<trkpt lat="33.8102173" lon="-118.3939754">
  <ele>-0.108</ele>
  <time>2026-09-02T22:07:32Z</time>
  <course>186.4</course>
  <speed>0.7213875518748573</speed>
  <fix>3d</fix>
</trkpt>
<trkpt lat="33.8102172" lon="-118.3939754">
  <ele>-0.108</ele>
  <time>2026-09-02T22:07:32Z</time>
  <course>186.4</course>
  <speed>0.7213875518748573</speed>
  <fix>3d</fix>
</trkpt>
<trkpt lat="33.8102172" lon="-118.3939755">
  <ele>-0.108</ele>
  <time>2026-09-02T22:07:32Z</time>
  <course>186.4</course>
  <speed>0.7213875518748573</speed>
  <fix>3d</fix>
</trkpt>
<trkpt lat="33.8102181" lon="-118.3939741">
  <ele>-0.1</ele>
  <time>2026-09-02T22:07:32Z</time>
  <course>223.26</course>
  <speed>0.73</speed>
  <fix>3d</fix>
</trkpt>
<trkpt lat="33.8102172" lon="-118.3939755">
  <ele>-0.108</ele>
  <time>2026-09-02T22:07:32Z</time>
  <course>186.4</course>
  <speed>0.7213875518748573</speed>
  <fix>3d</fix>
</trkpt>
<trkpt lat="33.8102171" lon="-118.3939756">
  <ele>-0.108</ele>
  <time>2026-09-02T22:07:32Z</time>
  <course>186.4</course>
  <speed>0.7213875518748573</speed>
  <fix>3d</fix>
</trkpt>
<trkpt lat="33.8102171" lon="-118.3939756">
  <ele>-0.108</ele>
  <time>2026-09-02T22:07:32Z</time>
  <course>186.4</course>
  <speed>0.7213875518748573</speed>
  <fix>3d</fix>
</trkpt>
<trkpt lat="33.810217" lon="-118.3939757">
  <ele>-0.108</ele>
  <time>2026-09-02T22:07:32Z</time>
  <course>186.4</course>
  <speed>0.7213875518748573</speed>
  <fix>3d</fix>
</trkpt>
<trkpt lat="33.810217" lon="-118.3939757">
  <ele>-0.108</ele>
  <time>2026-09-02T22:07:32Z</time>
  <course>186.4</course>
  <speed>0.7213875518748573</speed>
  <fix>3d</fix>
</trkpt>
<trkpt lat="33.810217" lon="-118.3939757">
  <ele>-0.108</ele>
  <time>2026-09-02T22:07:32Z</time>
  <course>186.4</course>
  <speed>0.7213875518748573</speed>
  <fix>3d</fix>
</trkpt>
<trkpt lat="33.8102169" lon="-118.3939758">
  <ele>-0.107</ele>
  <time>2026-09-02T22:07:32Z</time>
  <course>186.4</course>
  <speed>0.7213875518748573</speed>
  <fix>3d</fix>
</trkpt>
<trkpt lat="33.8102169" lon="-118.3939758">
  <ele>-0.107</ele>
  <time>2026-09-02T22:07:32Z</time>
  <course>186.4</course>
  <speed>0.7213875518748573</speed>
  <fix>3d</fix>
</trkpt>
<trkpt lat="33.8102169" lon="-118.3939759">
  <ele>-0.107</ele>
  <time>2026-09-02T22:07:32Z</time>
  <course>186.4</course>
  <speed>0.7213875518748573</speed>
  <fix>3d</fix>
</trkpt>
<trkpt lat="33.8102168" lon="-118.3939759">
  <ele>-0.107</ele>
  <time>2026-09-02T22:07:32Z</time>
  <course>186.39</course>
  <speed>0.7213875518748573</speed>
  <fix>3d</fix>
</trkpt>
<trkpt lat="33.8102168" lon="-118.3939759">
  <ele>-0.107</ele>
  <time>2026-09-02T22:07:32Z</time>
  <course>186.39</course>
  <speed>0.7213875518748573</speed>
  <fix>3d</fix>
</trkpt>
<trkpt lat="33.8102167" lon="-118.393976">
  <ele>-0.107</ele>
  <time>2026-09-02T22:07:32Z</time>
  <course>186.39</course>
  <speed>0.7213875518748573</speed>
  <fix>3d</fix>
</trkpt>
<trkpt lat="33.8102167" lon="-118.393976">
  <ele>-0.107</ele>
  <time>2026-09-02T22:07:32Z</time>
  <course>186.39</course>
  <speed>0.7213875518748573</speed>
  <fix>3d</fix>
</trkpt>
<trkpt lat="33.8102171" lon="-118.3939751">
  <ele>-0.11</ele>
  <time>2026-09-02T22:07:32Z</time>
  <course>223.26</course>
  <speed>0.73</speed>
  <fix>3d</fix>
</trkpt>
<trkpt lat="33.8102167" lon="-118.393976">
  <ele>-0.107</ele>
  <time>2026-09-02T22:07:32Z</time>
  <course>186.39</course>
  <speed>0.7213875518748573</speed>
  <fix>3d</fix>
</trkpt>
<trkpt lat="33.8102166" lon="-118.3939762">
  <ele>-0.107</ele>
  <time>2026-09-02T22:07:32Z</time>
  <course>186.39</course>
  <speed>0.7213875518748573</speed>
  <fix>3d</fix>
</trkpt>
<trkpt lat="33.8102165" lon="-118.3939762">
  <ele>-0.107</ele>
  <time>2026-09-02T22:07:32Z</time>
  <course>186.39</course>
  <speed>0.7213875518748573</speed>
  <fix>3d</fix>
</trkpt>
<trkpt lat="33.8102165" lon="-118.3939763">
  <ele>-0.107</ele>
  <time>2026-09-02T22:07:32Z</time>
  <course>186.39</course>
  <speed>0.7213875518748573</speed>
  <fix>3d</fix>
</trkpt>
<trkpt lat="33.8102165" lon="-118.3939763">
  <ele>-0.107</ele>
  <time>2026-09-02T22:07:32Z</time>
  <course>186.39</course>
  <speed>0.7213875518748573</speed>
  <fix>3d</fix>
</trkpt>
<trkpt lat="33.8102164" lon="-118.3939764">
  <ele>-0.107</ele>
  <time>2026-09-02T22:07:32Z</time>
  <course>186.39</course>
  <speed>0.7213875518748573</speed>
  <fix>3d</fix>
</trkpt>
<trkpt lat="33.8102164" lon="-118.3939764">
  <ele>-0.106</ele>
  <time>2026-09-02T22:07:32Z</time>
  <course>186.39</course>
  <speed>0.7213875518748573</speed>
  <fix>3d</fix>
</trkpt>
<trkpt lat="33.8102163" lon="-118.3939765">
  <ele>-0.106</ele>
  <time>2026-09-02T22:07:32Z</time>
  <course>186.39</course>
  <speed>0.7213875518748573</speed>
  <fix>3d</fix>
</trkpt>
<trkpt lat="33.8102163" lon="-118.3939765">
  <ele>-0.106</ele>
  <time>2026-09-02T22:07:32Z</time>
  <course>186.39</course>
  <speed>0.7213875518748573</speed>
  <fix>3d</fix>
</trkpt>
<trkpt lat="33.8102162" lon="-118.3939766">
  <ele>-0.106</ele>
  <time>2026-09-02T22:07:32Z</time>
  <course>186.39</course>
  <speed>0.7213875518748573</speed>
  <fix>3d</fix>
</trkpt>
<trkpt lat="33.8102162" lon="-118.3939766">
  <ele>-0.106</ele>
  <time>2026-09-02T22:07:32Z</time>
  <course>186.39</course>
  <speed>0.7213875518748573</speed>
  <fix>3d</fix>
</trkpt>
<trkpt lat="33.8102171" lon="-118.3939751">
  <ele>-0.11</ele>
  <time>2026-09-02T22:07:32Z</time>
  <course>223.26</course>
  <speed>0.73</speed>
  <fix>3d</fix>
</trkpt>
<trkpt lat="33.8102161" lon="-118.3939767">
  <ele>-0.106</ele>
  <time>2026-09-02T22:07:32Z</time>
  <course>186.39</course>
  <speed>0.7213875518748573</speed>
  <fix>3d</fix>
</trkpt>
<trkpt lat="33.8102161" lon="-118.3939767">
  <ele>-0.106</ele>
  <time>2026-09-02T22:07:32Z</time>
  <course>186.39</course>
  <speed>0.7213875518748573</speed>
  <fix>3d</fix>
</trkpt>
<trkpt lat="33.810216" lon="-118.3939768">
  <ele>-0.106</ele>
  <time>2026-09-02T22:07:32Z</time>
  <course>186.39</course>
  <speed>0.7213875518748573</speed>
  <fix>3d</fix>
</trkpt>
<trkpt lat="33.810216" lon="-118.3939769">
  <ele>-0.106</ele>
  <time>2026-09-02T22:07:32Z</time>
  <course>186.39</course>
  <speed>0.7213875518748573</speed>
  <fix>3d</fix>
</trkpt>
<trkpt lat="33.8102159" lon="-118.3939769">
  <ele>-0.106</ele>
  <time>2026-09-02T22:07:32Z</time>
  <course>186.39</course>
  <speed>0.7213875518748573</speed>
  <fix>3d</fix>
</trkpt>
<trkpt lat="33.8102159" lon="-118.3939769">
  <ele>-0.106</ele>
  <time>2026-09-02T22:07:32Z</time>
  <course>186.39</course>
  <speed>0.7213875518748573</speed>
  <fix>3d</fix>
</trkpt>
<trkpt lat="33.8102159" lon="-118.393977">
  <ele>-0.106</ele>
  <time>2026-09-02T22:07:32Z</time>
  <course>186.39</course>
  <speed>0.7213875518748573</speed>
  <fix>3d</fix>
</trkpt>
<trkpt lat="33.8102158" lon="-118.393977">
  <ele>-0.106</ele>
  <time>2026-09-02T22:07:32Z</time>
  <course>186.39</course>
  <speed>0.7213875518748573</speed>
  <fix>3d</fix>
</trkpt>
<trkpt lat="33.8102158" lon="-118.3939771">
  <ele>-0.106</ele>
  <time>2026-09-02T22:07:32Z</time>
  <course>186.39</course>
  <speed>0.7213875518748573</speed>
  <fix>3d</fix>
</trkpt>
<trkpt lat="33.8102158" lon="-118.3939771">
  <ele>-0.106</ele>
  <time>2026-09-02T22:07:32Z</time>
  <course>186.39</course>
  <speed>0.7213875518748573</speed>
  <fix>3d</fix>
</trkpt>
<trkpt lat="33.8102161" lon="-118.3939762">
  <ele>-0.1</ele>
  <time>2026-09-02T22:07:32Z</time>
  <course>223.26</course>
  <speed>0.73</speed>
  <fix>3d</fix>
</trkpt>
<trkpt lat="33.8102157" lon="-118.3939771">
  <ele>-0.106</ele>
  <time>2026-09-02T22:07:32Z</time>
  <course>186.39</course>
  <speed>0.7213875518748573</speed>
  <fix>3d</fix>
</trkpt>
<trkpt lat="33.8102157" lon="-118.3939772">
  <ele>-0.106</ele>
  <time>2026-09-02T22:07:32Z</time>
  <course>186.39</course>
  <speed>0.7213875518748573</speed>
  <fix>3d</fix>
</trkpt>
<trkpt lat="33.8102156" lon="-118.3939773">
  <ele>-0.106</ele>
  <time>2026-09-02T22:07:32Z</time>
  <course>186.39</course>
  <speed>0.7213875518748573</speed>
  <fix>3d</fix>
</trkpt>
<trkpt lat="33.8102156" lon="-118.3939773">
  <ele>-0.106</ele>
  <time>2026-09-02T22:07:32Z</time>
  <course>186.39</course>
  <speed>0.7213875518748573</speed>
  <fix>3d</fix>
</trkpt>
<trkpt lat="33.8102156" lon="-118.3939773">
  <ele>-0.106</ele>
  <time>2026-09-02T22:07:32Z</time>
  <course>186.39</course>
  <speed>0.7213875518748573</speed>
  <fix>3d</fix>
</trkpt>
<trkpt lat="33.8102155" lon="-118.3939774">
  <ele>-0.106</ele>
  <time>2026-09-02T22:07:32Z</time>
  <course>186.39</course>
  <speed>0.7213875518748573</speed>
  <fix>3d</fix>
</trkpt>
<trkpt lat="33.8102155" lon="-118.3939774">
  <ele>-0.106</ele>
  <time>2026-09-02T22:07:32Z</time>
  <course>186.39</course>
  <speed>0.7213875518748573</speed>
  <fix>3d</fix>
</trkpt>
<trkpt lat="33.8102154" lon="-118.3939775">
  <ele>-0.106</ele>
  <time>2026-09-02T22:07:32Z</time>
  <course>186.39</course>
  <speed>0.7213875518748573</speed>
  <fix>3d</fix>
</trkpt>
<trkpt lat="33.8102154" lon="-118.3939775">
  <ele>-0.106</ele>
  <time>2026-09-02T22:07:32Z</time>
  <course>186.39</course>
  <speed>0.7213875518748573</speed>
  <fix>3d</fix>
</trkpt>
<trkpt lat="33.8102154" lon="-118.3939776">
  <ele>-0.106</ele>
  <time>2026-09-02T22:07:32Z</time>
  <course>186.39</course>
  <speed>0.7213875518748573</speed>
  <fix>3d</fix>
</trkpt>
<trkpt lat="33.8102153" lon="-118.3939776">
  <ele>-0.107</ele>
  <time>2026-09-02T22:07:32Z</time>
  <course>186.39</course>
  <speed>0.7213875518748573</speed>
  <fix>3d</fix>
</trkpt>
<trkpt lat="33.8102153" lon="-118.3939776">
  <ele>-0.107</ele>
  <time>2026-09-02T22:07:32Z</time>
  <course>186.39</course>
  <speed>0.7213875518748573</speed>
  <fix>3d</fix>
</trkpt>
<trkpt lat="33.8102153" lon="-118.3939777">
  <ele>-0.107</ele>
  <time>2026-09-02T22:07:32Z</time>
  <course>186.39</course>
  <speed>0.7213875518748573</speed>
  <fix>3d</fix>
</trkpt>
<trkpt lat="33.8102161" lon="-118.3939762">
  <ele>-0.1</ele>
  <time>2026-09-02T22:07:32Z</time>
  <course>223.26</course>
  <speed>0.73</speed>
  <fix>3d</fix>
</trkpt>
<trkpt lat="33.8102153" lon="-118.3939777">
  <ele>-0.107</ele>
  <time>2026-09-02T22:07:32Z</time>
  <course>186.39</course>
  <speed>0.7213875518748573</speed>
  <fix>3d</fix>
</trkpt>
<trkpt lat="33.8102151" lon="-118.3939779">
  <ele>-0.107</ele>
  <time>2026-09-02T22:07:32Z</time>
  <course>186.39</course>
  <speed>0.7213875518748573</speed>
  <fix>3d</fix>
</trkpt>
<trkpt lat="33.8102151" lon="-118.3939779">
  <ele>-0.107</ele>
  <time>2026-09-02T22:07:32Z</time>
  <course>186.39</course>
  <speed>0.7213875518748573</speed>
  <fix>3d</fix>
</trkpt>
<trkpt lat="33.810215" lon="-118.393978">
  <ele>-0.107</ele>
  <time>2026-09-02T22:07:32Z</time>
  <course>186.39</course>
  <speed>0.7213875518748573</speed>
  <fix>3d</fix>
</trkpt>
<trkpt lat="33.810215" lon="-118.393978">
  <ele>-0.108</ele>
  <time>2026-09-02T22:07:32Z</time>
  <course>186.39</course>
  <speed>0.7213875518748573</speed>
  <fix>3d</fix>
</trkpt>
<trkpt lat="33.8102149" lon="-118.3939781">
  <ele>-0.108</ele>
  <time>2026-09-02T22:07:32Z</time>
  <course>186.39</course>
  <speed>0.7213875518748573</speed>
  <fix>3d</fix>
</trkpt>
<trkpt lat="33.8102149" lon="-118.3939781">
  <ele>-0.108</ele>
  <time>2026-09-02T22:07:32Z</time>
  <course>186.39</course>
  <speed>0.7213875518748573</speed>
  <fix>3d</fix>
</trkpt>
<trkpt lat="33.8102148" lon="-118.3939782">
  <ele>-0.108</ele>
  <time>2026-09-02T22:07:32Z</time>
  <course>186.39</course>
  <speed>0.7213875518748573</speed>
  <fix>3d</fix>
</trkpt>
<trkpt lat="33.8102148" lon="-118.3939782">
  <ele>-0.108</ele>
  <time>2026-09-02T22:07:32Z</time>
  <course>186.39</course>
  <speed>0.7213875518748573</speed>
  <fix>3d</fix>
</trkpt>
<trkpt lat="33.8102148" lon="-118.3939782">
  <ele>-0.108</ele>
  <time>2026-09-02T22:07:32Z</time>
  <course>186.39</course>
  <speed>0.7213875518748573</speed>
  <fix>3d</fix>
</trkpt>
<trkpt lat="33.8102152" lon="-118.3939773">
  <ele>-0.1</ele>
  <time>2026-09-02T22:07:32Z</time>
  <course>223.26</course>
  <speed>0.73</speed>
  <fix>3d</fix>
</trkpt>
<trkpt lat="33.8102147" lon="-118.3939783">
  <ele>-0.109</ele>
  <time>2026-09-02T22:07:32Z</time>
  <course>186.39</course>
  <speed>0.7213875518748573</speed>
  <fix>3d</fix>
</trkpt>
<trkpt lat="33.8102146" lon="-118.3939784">
  <ele>-0.109</ele>
  <time>2026-09-02T22:07:32Z</time>
  <course>186.39</course>
  <speed>0.7213875518748573</speed>
  <fix>3d</fix>
</trkpt>
<trkpt lat="33.8102146" lon="-118.3939784">
  <ele>-0.109</ele>
  <time>2026-09-02T22:07:32Z</time>
  <course>186.39</course>
  <speed>0.7213875518748573</speed>
  <fix>3d</fix>
</trkpt>
<trkpt lat="33.8102146" lon="-118.3939784">
  <ele>-0.109</ele>
  <time>2026-09-02T22:07:32Z</time>
  <course>186.39</course>
  <speed>0.7213875518748573</speed>
  <fix>3d</fix>
</trkpt>
<trkpt lat="33.8102145" lon="-118.3939785">
  <ele>-0.109</ele>
  <time>2026-09-02T22:07:32Z</time>
  <course>186.39</course>
  <speed>0.7213875518748573</speed>
  <fix>3d</fix>
</trkpt>
<trkpt lat="33.8102145" lon="-118.3939785">
  <ele>-0.11</ele>
  <time>2026-09-02T22:07:32Z</time>
  <course>186.39</course>
  <speed>0.7213875518748573</speed>
  <fix>3d</fix>
</trkpt>
<trkpt lat="33.8102144" lon="-118.3939786">
  <ele>-0.11</ele>
  <time>2026-09-02T22:07:32Z</time>
  <course>186.39</course>
  <speed>0.7213875518748573</speed>
  <fix>3d</fix>
</trkpt>
<trkpt lat="33.8102144" lon="-118.3939786">
  <ele>-0.11</ele>
  <time>2026-09-02T22:07:32Z</time>
  <course>186.39</course>
  <speed>0.7213875518748573</speed>
  <fix>3d</fix>
</trkpt>
<trkpt lat="33.8102144" lon="-118.3939787">
  <ele>-0.11</ele>
  <time>2026-09-02T22:07:32Z</time>
  <course>186.39</course>
  <speed>0.7213875518748573</speed>
  <fix>3d</fix>
</trkpt>
<trkpt lat="33.8102143" lon="-118.3939787">
  <ele>-0.111</ele>
  <time>2026-09-02T22:07:32Z</time>
  <course>186.39</course>
  <speed>0.7213875518748573</speed>
  <fix>3d</fix>
</trkpt>
<trkpt lat="33.8102143" lon="-118.3939787">
  <ele>-0.111</ele>
  <time>2026-09-02T22:07:32Z</time>
  <course>186.39</course>
  <speed>0.7213875518748573</speed>
  <fix>3d</fix>
</trkpt>
<trkpt lat="33.8102152" lon="-118.3939773">
  <ele>-0.1</ele>
  <time>2026-09-02T22:07:32Z</time>
  <course>223.26</course>
  <speed>0.73</speed>
  <fix>3d</fix>
</trkpt>
<trkpt lat="33.8102143" lon="-118.3939787">
  <ele>-0.111</ele>
  <time>2026-09-02T22:07:32Z</time>
  <course>186.39</course>
  <speed>0.7213875518748573</speed>
  <fix>3d</fix>
</trkpt>
<trkpt lat="33.8102142" lon="-118.3939788">
  <ele>-0.111</ele>
  <time>2026-09-02T22:07:32Z</time>
  <course>186.39</course>
  <speed>0.7213875518748573</speed>
  <fix>3d</fix>
</trkpt>
<trkpt lat="33.8102142" lon="-118.3939789">
  <ele>-0.112</ele>
  <time>2026-09-02T22:07:32Z</time>
  <course>186.39</course>
  <speed>0.7213875518748573</speed>
  <fix>3d</fix>
</trkpt>
<trkpt lat="33.8102141" lon="-118.3939789">
  <ele>-0.112</ele>
  <time>2026-09-02T22:07:32Z</time>
  <course>186.39</course>
  <speed>0.7213875518748573</speed>
  <fix>3d</fix>
</trkpt>
<trkpt lat="33.8102141" lon="-118.393979">
  <ele>-0.112</ele>
  <time>2026-09-02T22:07:32Z</time>
  <course>186.39</course>
  <speed>0.7213875518748573</speed>
  <fix>3d</fix>
</trkpt>
<trkpt lat="33.8102141" lon="-118.393979">
  <ele>-0.112</ele>
  <time>2026-09-02T22:07:32Z</time>
  <course>186.39</course>
  <speed>0.7213875518748573</speed>
  <fix>3d</fix>
</trkpt>
<trkpt lat="33.810214" lon="-118.3939791">
  <ele>-0.113</ele>
  <time>2026-09-02T22:07:32Z</time>
  <course>186.39</course>
  <speed>0.7213875518748573</speed>
  <fix>3d</fix>
</trkpt>
<trkpt lat="33.810214" lon="-118.3939791">
  <ele>-0.113</ele>
  <time>2026-09-02T22:07:32Z</time>
  <course>186.39</course>
  <speed>0.7213875518748573</speed>
  <fix>3d</fix>
</trkpt>
<trkpt lat="33.8102139" lon="-118.3939792">
  <ele>-0.113</ele>
  <time>2026-09-02T22:07:32Z</time>
  <course>186.39</course>
  <speed>0.7213875518748573</speed>
  <fix>3d</fix>
</trkpt>
<trkpt lat="33.8102139" lon="-118.3939792">
  <ele>-0.113</ele>
  <time>2026-09-02T22:07:32Z</time>
  <course>186.38</course>
  <speed>0.7213875518748573</speed>
  <fix>3d</fix>
</trkpt>
<trkpt lat="33.8102139" lon="-118.3939793">
  <ele>-0.113</ele>
  <time>2026-09-02T22:07:32Z</time>
  <course>186.38</course>
  <speed>0.7213875518748573</speed>
  <fix>3d</fix>
</trkpt>
<trkpt lat="33.8102138" lon="-118.3939793">
  <ele>-0.113</ele>
  <time>2026-09-02T22:07:32Z</time>
  <course>186.38</course>
  <speed>0.7283543093852057</speed>
  <fix>3d</fix>
</trkpt>
<trkpt lat="33.8102142" lon="-118.3939784">
  <ele>-0.1</ele>
  <time>2026-09-02T22:07:32Z</time>
  <course>223.26</course>
  <speed>0.73</speed>
  <fix>3d</fix>
</trkpt>
<trkpt lat="33.8102138" lon="-118.3939793">
  <ele>-0.113</ele>
  <time>2026-09-02T22:07:32Z</time>
  <course>186.38</course>
  <speed>0.7283543093852057</speed>
  <fix>3d</fix>
</trkpt>
<trkpt lat="33.8102138" lon="-118.3939794">
  <ele>-0.113</ele>
  <time>2026-09-02T22:07:32Z</time>
  <course>186.38</course>
  <speed>0.7283543093852057</speed>
  <fix>3d</fix>
</trkpt>
<trkpt lat="33.8102137" lon="-118.3939794">
  <ele>-0.114</ele>
  <time>2026-09-02T22:07:32Z</time>
  <course>186.38</course>
  <speed>0.7283543093852057</speed>
  <fix>3d</fix>
</trkpt>
<trkpt lat="33.8102136" lon="-118.3939795">
  <ele>-0.114</ele>
  <time>2026-09-02T22:07:32Z</time>
  <course>186.38</course>
  <speed>0.7283543093852057</speed>
  <fix>3d</fix>
</trkpt>
<trkpt lat="33.8102136" lon="-118.3939795">
  <ele>-0.114</ele>
  <time>2026-09-02T22:07:32Z</time>
  <course>186.38</course>
  <speed>0.7283543093852057</speed>
  <fix>3d</fix>
</trkpt>
<trkpt lat="33.8102136" lon="-118.3939796">
  <ele>-0.114</ele>
  <time>2026-09-02T22:07:32Z</time>
  <course>186.38</course>
  <speed>0.7283543093852057</speed>
  <fix>3d</fix>
</trkpt>
<trkpt lat="33.8102135" lon="-118.3939796">
  <ele>-0.114</ele>
  <time>2026-09-02T22:07:32Z</time>
  <course>186.38</course>
  <speed>0.7283543093852057</speed>
  <fix>3d</fix>
</trkpt>
<trkpt lat="33.8102135" lon="-118.3939797">
  <ele>-0.115</ele>
  <time>2026-09-02T22:07:32Z</time>
  <course>186.38</course>
  <speed>0.7283543093852057</speed>
  <fix>3d</fix>
</trkpt>
<trkpt lat="33.8102134" lon="-118.3939797">
  <ele>-0.115</ele>
  <time>2026-09-02T22:07:32Z</time>
  <course>186.38</course>
  <speed>0.7283543093852057</speed>
  <fix>3d</fix>
</trkpt>
<trkpt lat="33.8102134" lon="-118.3939798">
  <ele>-0.115</ele>
  <time>2026-09-02T22:07:32Z</time>
  <course>186.38</course>
  <speed>0.7283543093852057</speed>
  <fix>3d</fix>
</trkpt>
<trkpt lat="33.8102133" lon="-118.3939798">
  <ele>-0.115</ele>
  <time>2026-09-02T22:07:32Z</time>
  <course>186.38</course>
  <speed>0.7283543093852057</speed>
  <fix>3d</fix>
</trkpt>
<trkpt lat="33.8102133" lon="-118.3939798">
  <ele>-0.115</ele>
  <time>2026-09-02T22:07:32Z</time>
  <course>186.38</course>
  <speed>0.7283543093852057</speed>
  <fix>3d</fix>
</trkpt>
<trkpt lat="33.8102142" lon="-118.3939784">
  <ele>-0.1</ele>
  <time>2026-09-02T22:07:32Z</time>
  <course>223.26</course>
  <speed>0.73</speed>
  <fix>3d</fix>
</trkpt>
<trkpt lat="33.8102133" lon="-118.3939799">
  <ele>-0.116</ele>
  <time>2026-09-02T22:07:32Z</time>
  <course>186.38</course>
  <speed>0.7283543093852057</speed>
  <fix>3d</fix>
</trkpt>
<trkpt lat="33.8102132" lon="-118.39398">
  <ele>-0.116</ele>
  <time>2026-09-02T22:07:32Z</time>
  <course>186.38</course>
  <speed>0.7283543093852057</speed>
  <fix>3d</fix>
</trkpt>
<trkpt lat="33.8102132" lon="-118.39398">
  <ele>-0.116</ele>
  <time>2026-09-02T22:07:32Z</time>
  <course>186.38</course>
  <speed>0.7213875518748573</speed>
  <fix>3d</fix>
</trkpt>
<trkpt lat="33.8102131" lon="-118.3939801">
  <ele>-0.116</ele>
  <time>2026-09-02T22:07:32Z</time>
  <course>186.38</course>
  <speed>0.7283543093852057</speed>
  <fix>3d</fix>
</trkpt>
<trkpt lat="33.8102131" lon="-118.3939801">
  <ele>-0.116</ele>
  <time>2026-09-02T22:07:32Z</time>
  <course>186.38</course>
  <speed>0.7283543093852057</speed>
  <fix>3d</fix>
</trkpt>
<trkpt lat="33.8102131" lon="-118.3939801">
  <ele>-0.116</ele>
  <time>2026-09-02T22:07:32Z</time>
  <course>186.38</course>
  <speed>0.7213875518748573</speed>
  <fix>3d</fix>
</trkpt>
<trkpt lat="33.810213" lon="-118.3939802">
  <ele>-0.116</ele>
  <time>2026-09-02T22:07:32Z</time>
  <course>186.38</course>
  <speed>0.7283543093852057</speed>
  <fix>3d</fix>
</trkpt>
<trkpt lat="33.810213" lon="-118.3939802">
  <ele>-0.116</ele>
  <time>2026-09-02T22:07:32Z</time>
  <course>186.38</course>
  <speed>0.7283543093852057</speed>
  <fix>3d</fix>
</trkpt>
<trkpt lat="33.810213" lon="-118.3939803">
  <ele>-0.117</ele>
  <time>2026-09-02T22:07:32Z</time>
  <course>186.38</course>
  <speed>0.7283543093852057</speed>
  <fix>3d</fix>
</trkpt>
<trkpt lat="33.8102129" lon="-118.3939803">
  <ele>-0.117</ele>
  <time>2026-09-02T22:07:32Z</time>
  <course>186.38</course>
  <speed>0.7283543093852057</speed>
  <fix>3d</fix>
</trkpt>
<trkpt lat="33.8102129" lon="-118.3939804">
  <ele>-0.117</ele>
  <time>2026-09-02T22:07:32Z</time>
  <course>186.38</course>
  <speed>0.7283543093852057</speed>
  <fix>3d</fix>
</trkpt>
<trkpt lat="33.8102129" lon="-118.3939804">
  <ele>-0.117</ele>
  <time>2026-09-02T22:07:32Z</time>
  <course>186.38</course>
  <speed>0.7283543093852057</speed>
  <fix>3d</fix>
</trkpt>
<trkpt lat="33.8102133" lon="-118.3939795">
  <ele>-0.1</ele>
  <time>2026-09-02T22:07:32Z</time>
  <course>223.26</course>
  <speed>0.73</speed>
  <fix>3d</fix>
</trkpt>
<trkpt lat="33.8102129" lon="-118.3939804">
  <ele>-0.117</ele>
  <time>2026-09-02T22:07:32Z</time>
  <course>186.38</course>
  <speed>0.7283543093852057</speed>
  <fix>3d</fix>
</trkpt>
<trkpt lat="33.8102128" lon="-118.3939804">
  <ele>-0.117</ele>
  <time>2026-09-02T22:07:32Z</time>
  <course>186.38</course>
  <speed>0.7283543093852057</speed>
  <fix>3d</fix>
</trkpt>
<trkpt lat="33.8102128" lon="-118.3939805">
  <ele>-0.117</ele>
  <time>2026-09-02T22:07:32Z</time>
  <course>186.38</course>
  <speed>0.7283543093852057</speed>
  <fix>3d</fix>
</trkpt>
<trkpt lat="33.8102127" lon="-118.3939806">
  <ele>-0.117</ele>
  <time>2026-09-02T22:07:32Z</time>
  <course>186.38</course>
  <speed>0.7283543093852057</speed>
  <fix>3d</fix>
</trkpt>
<trkpt lat="33.8102127" lon="-118.3939806">
  <ele>-0.117</ele>
  <time>2026-09-02T22:07:32Z</time>
  <course>186.38</course>
  <speed>0.7283543093852057</speed>
  <fix>3d</fix>
</trkpt>
<trkpt lat="33.8102126" lon="-118.3939807">
  <ele>-0.117</ele>
  <time>2026-09-02T22:07:32Z</time>
  <course>186.38</course>
  <speed>0.7283543093852057</speed>
  <fix>3d</fix>
</trkpt>
<trkpt lat="33.8102126" lon="-118.3939807">
  <ele>-0.117</ele>
  <time>2026-09-02T22:07:32Z</time>
  <course>186.38</course>
  <speed>0.7283543093852057</speed>
  <fix>3d</fix>
</trkpt>
<trkpt lat="33.8102126" lon="-118.3939807">
  <ele>-0.117</ele>
  <time>2026-09-02T22:07:32Z</time>
  <course>186.38</course>
  <speed>0.7283543093852057</speed>
  <fix>3d</fix>
</trkpt>
<trkpt lat="33.8102125" lon="-118.3939808">
  <ele>-0.117</ele>
  <time>2026-09-02T22:07:32Z</time>
  <course>186.38</course>
  <speed>0.7283543093852057</speed>
  <fix>3d</fix>
</trkpt>
<trkpt lat="33.8102125" lon="-118.3939808">
  <ele>-0.117</ele>
  <time>2026-09-02T22:07:32Z</time>
  <course>186.38</course>
  <speed>0.7283543093852057</speed>
  <fix>3d</fix>
</trkpt>
<trkpt lat="33.8102124" lon="-118.3939809">
  <ele>-0.117</ele>
  <time>2026-09-02T22:07:32Z</time>
  <course>186.38</course>
  <speed>0.7283543093852057</speed>
  <fix>3d</fix>
</trkpt>
<trkpt lat="33.8102124" lon="-118.3939809">
  <ele>-0.117</ele>
  <time>2026-09-02T22:07:32Z</time>
  <course>186.38</course>
  <speed>0.7283543093852057</speed>
  <fix>3d</fix>
</trkpt>
<trkpt lat="33.8102133" lon="-118.3939795">
  <ele>-0.1</ele>
  <time>2026-09-02T22:07:32Z</time>
  <course>223.26</course>
  <speed>0.73</speed>
  <fix>3d</fix>
</trkpt>
<trkpt lat="33.8102124" lon="-118.3939809">
  <ele>-0.117</ele>
  <time>2026-09-02T22:07:32Z</time>
  <course>186.38</course>
  <speed>0.7283543093852057</speed>
  <fix>3d</fix>
</trkpt>
<trkpt lat="33.8102123" lon="-118.393981">
  <ele>-0.117</ele>
  <time>2026-09-02T22:07:32Z</time>
  <course>186.38</course>
  <speed>0.7283543093852057</speed>
  <fix>3d</fix>
</trkpt>
<trkpt lat="33.8102123" lon="-118.3939811">
  <ele>-0.118</ele>
  <time>2026-09-02T22:07:32Z</time>
  <course>186.38</course>
  <speed>0.7283543093852057</speed>
  <fix>3d</fix>
</trkpt>
<trkpt lat="33.8102122" lon="-118.3939811">
  <ele>-0.118</ele>
  <time>2026-09-02T22:07:32Z</time>
  <course>186.38</course>
  <speed>0.7213875518748573</speed>
  <fix>3d</fix>
</trkpt>
<trkpt lat="33.8102122" lon="-118.3939811">
  <ele>-0.118</ele>
  <time>2026-09-02T22:07:32Z</time>
  <course>186.38</course>
  <speed>0.7283543093852057</speed>
  <fix>3d</fix>
</trkpt>
<trkpt lat="33.8102122" lon="-118.3939812">
  <ele>-0.118</ele>
  <time>2026-09-02T22:07:32Z</time>
  <course>186.38</course>
  <speed>0.7213875518748573</speed>
  <fix>3d</fix>
</trkpt>
<trkpt lat="33.8102121" lon="-118.3939812">
  <ele>-0.118</ele>
  <time>2026-09-02T22:07:32Z</time>
  <course>186.38</course>
  <speed>0.7213875518748573</speed>
  <fix>3d</fix>
</trkpt>
<trkpt lat="33.8102121" lon="-118.3939813">
  <ele>-0.118</ele>
  <time>2026-09-02T22:07:32Z</time>
  <course>186.38</course>
  <speed>0.7283543093852057</speed>
  <fix>3d</fix>
</trkpt>
<trkpt lat="33.810212" lon="-118.3939813">
  <ele>-0.118</ele>
  <time>2026-09-02T22:07:32Z</time>
  <course>186.38</course>
  <speed>0.7213875518748573</speed>
  <fix>3d</fix>
</trkpt>
<trkpt lat="33.810212" lon="-118.3939814">
  <ele>-0.118</ele>
  <time>2026-09-02T22:07:32Z</time>
  <course>186.38</course>
  <speed>0.7283543093852057</speed>
  <fix>3d</fix>
</trkpt>
<trkpt lat="33.810212" lon="-118.3939814">
  <ele>-0.118</ele>
  <time>2026-09-02T22:07:32Z</time>
  <course>186.38</course>
  <speed>0.7283543093852057</speed>
  <fix>3d</fix>
</trkpt>
<trkpt lat="33.8102119" lon="-118.3939814">
  <ele>-0.118</ele>
  <time>2026-09-02T22:07:32Z</time>
  <course>186.38</course>
  <speed>0.7283543093852057</speed>
  <fix>3d</fix>
</trkpt>
<trkpt lat="33.8102119" lon="-118.3939815">
  <ele>-0.118</ele>
  <time>2026-09-02T22:07:32Z</time>
  <course>186.38</course>
  <speed>0.7283543093852057</speed>
  <fix>3d</fix>
</trkpt>
<trkpt lat="33.8102122" lon="-118.3939806">
  <ele>-0.11</ele>
  <time>2026-09-02T22:07:32Z</time>
  <course>223.26</course>
  <speed>0.73</speed>
  <fix>3d</fix>
</trkpt>
<trkpt lat="33.8102119" lon="-118.3939815">
  <ele>-0.118</ele>
  <time>2026-09-02T22:07:32Z</time>
  <course>186.38</course>
  <speed>0.7283543093852057</speed>
  <fix>3d</fix>
</trkpt>
<trkpt lat="33.8102118" lon="-118.3939816">
  <ele>-0.118</ele>
  <time>2026-09-02T22:07:32Z</time>
  <course>186.38</course>
  <speed>0.7283543093852057</speed>
  <fix>3d</fix>
</trkpt>
<trkpt lat="33.8102118" lon="-118.3939816">
  <ele>-0.117</ele>
  <time>2026-09-02T22:07:32Z</time>
  <course>186.38</course>
  <speed>0.7283543093852057</speed>
  <fix>3d</fix>
</trkpt>
<trkpt lat="33.8102117" lon="-118.3939816">
  <ele>-0.117</ele>
  <time>2026-09-02T22:07:32Z</time>
  <course>186.38</course>
  <speed>0.7283543093852057</speed>
  <fix>3d</fix>
</trkpt>
<trkpt lat="33.8102117" lon="-118.3939817">
  <ele>-0.117</ele>
  <time>2026-09-02T22:07:32Z</time>
  <course>186.38</course>
  <speed>0.7283543093852057</speed>
  <fix>3d</fix>
</trkpt>
<trkpt lat="33.8102117" lon="-118.3939817">
  <ele>-0.117</ele>
  <time>2026-09-02T22:07:32Z</time>
  <course>186.38</course>
  <speed>0.7283543093852057</speed>
  <fix>3d</fix>
</trkpt>
<trkpt lat="33.8102116" lon="-118.3939818">
  <ele>-0.117</ele>
  <time>2026-09-02T22:07:32Z</time>
  <course>186.38</course>
  <speed>0.7283543093852057</speed>
  <fix>3d</fix>
</trkpt>
<trkpt lat="33.8102116" lon="-118.3939818">
  <ele>-0.117</ele>
  <time>2026-09-02T22:07:32Z</time>
  <course>186.38</course>
  <speed>0.7283543093852057</speed>
  <fix>3d</fix>
</trkpt>
<trkpt lat="33.8102115" lon="-118.3939819">
  <ele>-0.117</ele>
  <time>2026-09-02T22:07:32Z</time>
  <course>186.38</course>
  <speed>0.7283543093852057</speed>
  <fix>3d</fix>
</trkpt>
<trkpt lat="33.8102115" lon="-118.3939819">
  <ele>-0.117</ele>
  <time>2026-09-02T22:07:32Z</time>
  <course>186.38</course>
  <speed>0.7283543093852057</speed>
  <fix>3d</fix>
</trkpt>
<trkpt lat="33.8102115" lon="-118.393982">
  <ele>-0.117</ele>
  <time>2026-09-02T22:07:32Z</time>
  <course>186.38</course>
  <speed>0.7283543093852057</speed>
  <fix>3d</fix>
</trkpt>
<trkpt lat="33.8102114" lon="-118.393982">
  <ele>-0.117</ele>
  <time>2026-09-02T22:07:32Z</time>
  <course>186.38</course>
  <speed>0.7283543093852057</speed>
  <fix>3d</fix>
</trkpt>
<trkpt lat="33.8102114" lon="-118.393982">
  <ele>-0.117</ele>
  <time>2026-09-02T22:07:32Z</time>
  <course>186.38</course>
  <speed>0.7283543093852057</speed>
  <fix>3d</fix>
</trkpt>
<trkpt lat="33.8102122" lon="-118.3939806">
  <ele>-0.11</ele>
  <time>2026-09-02T22:07:32Z</time>
  <course>223.26</course>
  <speed>0.73</speed>
  <fix>3d</fix>
</trkpt>
<trkpt lat="33.8102114" lon="-118.393982">
  <ele>-0.117</ele>
  <time>2026-09-02T22:07:32Z</time>
  <course>186.38</course>
  <speed>0.7283543093852057</speed>
  <fix>3d</fix>
</trkpt>
<trkpt lat="33.8102113" lon="-118.3939821">
  <ele>-0.117</ele>
  <time>2026-09-02T22:07:32Z</time>
  <course>186.38</course>
  <speed>0.7283543093852057</speed>
  <fix>3d</fix>
</trkpt>
<trkpt lat="33.8102113" lon="-118.3939822">
  <ele>-0.117</ele>
  <time>2026-09-02T22:07:32Z</time>
  <course>186.38</course>
  <speed>0.7283543093852057</speed>
  <fix>3d</fix>
</trkpt>
<trkpt lat="33.8102113" lon="-118.3939822">
  <ele>-0.117</ele>
  <time>2026-09-02T22:07:32Z</time>
  <course>186.38</course>
  <speed>0.7283543093852057</speed>
  <fix>3d</fix>
</trkpt>
<trkpt lat="33.8102112" lon="-118.3939822">
  <ele>-0.117</ele>
  <time>2026-09-02T22:07:32Z</time>
  <course>186.38</course>
  <speed>0.7283543093852057</speed>
  <fix>3d</fix>
</trkpt>
<trkpt lat="33.8102112" lon="-118.3939823">
  <ele>-0.117</ele>
  <time>2026-09-02T22:07:32Z</time>
  <course>186.38</course>
  <speed>0.7283543093852057</speed>
  <fix>3d</fix>
</trkpt>
<trkpt lat="33.8102112" lon="-118.3939823">
  <ele>-0.117</ele>
  <time>2026-09-02T22:07:32Z</time>
  <course>186.38</course>
  <speed>0.7283543093852057</speed>
  <fix>3d</fix>
</trkpt>
<trkpt lat="33.8102111" lon="-118.3939824">
  <ele>-0.117</ele>
  <time>2026-09-02T22:07:32Z</time>
  <course>186.38</course>
  <speed>0.7283543093852057</speed>
  <fix>3d</fix>
</trkpt>
<trkpt lat="33.8102111" lon="-118.3939824">
  <ele>-0.117</ele>
  <time>2026-09-02T22:07:32Z</time>
  <course>186.38</course>
  <speed>0.7283543093852057</speed>
  <fix>3d</fix>
</trkpt>
<trkpt lat="33.810211" lon="-118.3939825">
  <ele>-0.117</ele>
  <time>2026-09-02T22:07:32Z</time>
  <course>186.38</course>
  <speed>0.7283543093852057</speed>
  <fix>3d</fix>
</trkpt>
<trkpt lat="33.810211" lon="-118.3939825">
  <ele>-0.117</ele>
  <time>2026-09-02T22:07:32Z</time>
  <course>186.38</course>
  <speed>0.7283543093852057</speed>
  <fix>3d</fix>
</trkpt>
<trkpt lat="33.8102109" lon="-118.3939826">
  <ele>-0.117</ele>
  <time>2026-09-02T22:07:32Z</time>
  <course>186.38</course>
  <speed>0.7283543093852057</speed>
  <fix>3d</fix>
</trkpt>
<trkpt lat="33.8102109" lon="-118.3939826">
  <ele>-0.117</ele>
  <time>2026-09-02T22:07:32Z</time>
  <course>186.38</course>
  <speed>0.7283543093852057</speed>
  <fix>3d</fix>
</trkpt>
<trkpt lat="33.8102113" lon="-118.3939817">
  <ele>-0.1</ele>
  <time>2026-09-02T22:07:32Z</time>
  <course>223.26</course>
  <speed>0.73</speed>
  <fix>3d</fix>
</trkpt>
<trkpt lat="33.8102109" lon="-118.3939827">
  <ele>-0.117</ele>
  <time>2026-09-02T22:07:32Z</time>
  <course>186.38</course>
  <speed>0.7283543093852057</speed>
  <fix>3d</fix>
</trkpt>
<trkpt lat="33.8102108" lon="-118.3939827">
  <ele>-0.117</ele>
  <time>2026-09-02T22:07:32Z</time>
  <course>186.38</course>
  <speed>0.7283543093852057</speed>
  <fix>3d</fix>
</trkpt>
<trkpt lat="33.8102108" lon="-118.3939827">
  <ele>-0.117</ele>
  <time>2026-09-02T22:07:32Z</time>
  <course>186.38</course>
  <speed>0.7283543093852057</speed>
  <fix>3d</fix>
</trkpt>
<trkpt lat="33.8102107" lon="-118.3939828">
  <ele>-0.117</ele>
  <time>2026-09-02T22:07:32Z</time>
  <course>186.38</course>
  <speed>0.7283543093852057</speed>
  <fix>3d</fix>
</trkpt>
<trkpt lat="33.8102107" lon="-118.3939828">
  <ele>-0.117</ele>
  <time>2026-09-02T22:07:32Z</time>
  <course>186.38</course>
  <speed>0.7283543093852057</speed>
  <fix>3d</fix>
</trkpt>
<trkpt lat="33.8102107" lon="-118.3939829">
  <ele>-0.116</ele>
  <time>2026-09-02T22:07:32Z</time>
  <course>186.38</course>
  <speed>0.7283543093852057</speed>
  <fix>3d</fix>
</trkpt>
<trkpt lat="33.8102106" lon="-118.3939829">
  <ele>-0.116</ele>
  <time>2026-09-02T22:07:32Z</time>
  <course>186.38</course>
  <speed>0.7283543093852057</speed>
  <fix>3d</fix>
</trkpt>
<trkpt lat="33.8102106" lon="-118.393983">
  <ele>-0.116</ele>
  <time>2026-09-02T22:07:32Z</time>
  <course>186.37</course>
  <speed>0.7283543093852057</speed>
  <fix>3d</fix>
</trkpt>
<trkpt lat="33.8102105" lon="-118.393983">
  <ele>-0.116</ele>
  <time>2026-09-02T22:07:32Z</time>
  <course>186.37</course>
  <speed>0.7283543093852057</speed>
  <fix>3d</fix>
</trkpt>
<trkpt lat="33.8102105" lon="-118.393983">
  <ele>-0.116</ele>
  <time>2026-09-02T22:07:32Z</time>
  <course>186.37</course>
  <speed>0.7283543093852057</speed>
  <fix>3d</fix>
</trkpt>
<trkpt lat="33.8102105" lon="-118.3939831">
  <ele>-0.116</ele>
  <time>2026-09-02T22:07:32Z</time>
  <course>186.37</course>
  <speed>0.7283543093852057</speed>
  <fix>3d</fix>
</trkpt>
<trkpt lat="33.8102105" lon="-118.3939831">
  <ele>-0.116</ele>
  <time>2026-09-02T22:07:32Z</time>
  <course>186.37</course>
  <speed>0.7283543093852057</speed>
  <fix>3d</fix>
</trkpt>
<trkpt lat="33.8102113" lon="-118.3939817">
  <ele>-0.1</ele>
  <time>2026-09-02T22:07:32Z</time>
  <course>223.26</course>
  <speed>0.73</speed>
  <fix>3d</fix>
</trkpt>
<trkpt lat="33.8102104" lon="-118.3939831">
  <ele>-0.116</ele>
  <time>2026-09-02T22:07:32Z</time>
  <course>186.37</course>
  <speed>0.7283543093852057</speed>
  <fix>3d</fix>
</trkpt>
<trkpt lat="33.8102104" lon="-118.3939832">
  <ele>-0.116</ele>
  <time>2026-09-02T22:07:32Z</time>
  <course>186.37</course>
  <speed>0.7283543093852057</speed>
  <fix>3d</fix>
</trkpt>
<trkpt lat="33.8102103" lon="-118.3939833">
  <ele>-0.116</ele>
  <time>2026-09-02T22:07:32Z</time>
  <course>186.37</course>
  <speed>0.7283543093852057</speed>
  <fix>3d</fix>
</trkpt>
<trkpt lat="33.8102103" lon="-118.3939833">
  <ele>-0.116</ele>
  <time>2026-09-02T22:07:32Z</time>
  <course>186.37</course>
  <speed>0.7283543093852057</speed>
  <fix>3d</fix>
</trkpt>
<trkpt lat="33.8102102" lon="-118.3939833">
  <ele>-0.116</ele>
  <time>2026-09-02T22:07:32Z</time>
  <course>186.37</course>
  <speed>0.7283543093852057</speed>
  <fix>3d</fix>
</trkpt>
<trkpt lat="33.8102102" lon="-118.3939834">
  <ele>-0.116</ele>
  <time>2026-09-02T22:07:32Z</time>
  <course>186.37</course>
  <speed>0.7283543093852057</speed>
  <fix>3d</fix>
</trkpt>
<trkpt lat="33.8102102" lon="-118.3939834">
  <ele>-0.115</ele>
  <time>2026-09-02T22:07:32Z</time>
  <course>186.37</course>
  <speed>0.7283543093852057</speed>
  <fix>3d</fix>
</trkpt>
<trkpt lat="33.8102101" lon="-118.3939835">
  <ele>-0.115</ele>
  <time>2026-09-02T22:07:32Z</time>
  <course>186.37</course>
  <speed>0.7283543093852057</speed>
  <fix>3d</fix>
</trkpt>
<trkpt lat="33.8102101" lon="-118.3939835">
  <ele>-0.115</ele>
  <time>2026-09-02T22:07:32Z</time>
  <course>186.37</course>
  <speed>0.7283543093852057</speed>
  <fix>3d</fix>
</trkpt>
<trkpt lat="33.81021" lon="-118.3939836">
  <ele>-0.115</ele>
  <time>2026-09-02T22:07:32Z</time>
  <course>186.37</course>
  <speed>0.7283543093852057</speed>
  <fix>3d</fix>
</trkpt>
<trkpt lat="33.81021" lon="-118.3939836">
  <ele>-0.115</ele>
  <time>2026-09-02T22:07:32Z</time>
  <course>186.37</course>
  <speed>0.7283543093852057</speed>
  <fix>3d</fix>
</trkpt>
<trkpt lat="33.81021" lon="-118.3939836">
  <ele>-0.115</ele>
  <time>2026-09-02T22:07:32Z</time>
  <course>186.37</course>
  <speed>0.7283543093852057</speed>
  <fix>3d</fix>
</trkpt>
<trkpt lat="33.81021" lon="-118.3939836">
  <ele>-0.115</ele>
  <time>2026-09-02T22:07:32Z</time>
  <course>186.37</course>
  <speed>0.7283543093852057</speed>
  <fix>3d</fix>
</trkpt>
<trkpt lat="33.8102104" lon="-118.3939828">
  <ele>-0.1</ele>
  <time>2026-09-02T22:07:32Z</time>
  <course>223.26</course>
  <speed>0.73</speed>
  <fix>3d</fix>
</trkpt>
<trkpt lat="33.8102099" lon="-118.3939837">
  <ele>-0.115</ele>
  <time>2026-09-02T22:07:32Z</time>
  <course>186.37</course>
  <speed>0.7283543093852057</speed>
  <fix>3d</fix>
</trkpt>
<trkpt lat="33.8102098" lon="-118.3939838">
  <ele>-0.115</ele>
  <time>2026-09-02T22:07:32Z</time>
  <course>186.37</course>
  <speed>0.7283543093852057</speed>
  <fix>3d</fix>
</trkpt>
<trkpt lat="33.8102098" lon="-118.3939838">
  <ele>-0.115</ele>
  <time>2026-09-02T22:07:32Z</time>
  <course>186.37</course>
  <speed>0.7283543093852057</speed>
  <fix>3d</fix>
</trkpt>
<trkpt lat="33.8102098" lon="-118.3939839">
  <ele>-0.115</ele>
  <time>2026-09-02T22:07:32Z</time>
  <course>186.37</course>
  <speed>0.7283543093852057</speed>
  <fix>3d</fix>
</trkpt>
<trkpt lat="33.8102097" lon="-118.3939839">
  <ele>-0.115</ele>
  <time>2026-09-02T22:07:32Z</time>
  <course>186.37</course>
  <speed>0.7283543093852057</speed>
  <fix>3d</fix>
</trkpt>
<trkpt lat="33.8102097" lon="-118.393984">
  <ele>-0.115</ele>
  <time>2026-09-02T22:07:32Z</time>
  <course>186.37</course>
  <speed>0.7283543093852057</speed>
  <fix>3d</fix>
</trkpt>
<trkpt lat="33.8102097" lon="-118.393984">
  <ele>-0.115</ele>
  <time>2026-09-02T22:07:32Z</time>
  <course>186.37</course>
  <speed>0.7283543093852057</speed>
  <fix>3d</fix>
</trkpt>
<trkpt lat="33.8102096" lon="-118.393984">
  <ele>-0.115</ele>
  <time>2026-09-02T22:07:32Z</time>
  <course>186.37</course>
  <speed>0.7283543093852057</speed>
  <fix>3d</fix>
</trkpt>
<trkpt lat="33.8102096" lon="-118.3939841">
  <ele>-0.115</ele>
  <time>2026-09-02T22:07:32Z</time>
  <course>186.37</course>
  <speed>0.7283543093852057</speed>
  <fix>3d</fix>
</trkpt>
<trkpt lat="33.8102095" lon="-118.3939841">
  <ele>-0.114</ele>
  <time>2026-09-02T22:07:32Z</time>
  <course>186.37</course>
  <speed>0.7283543093852057</speed>
  <fix>3d</fix>
</trkpt>
<trkpt lat="33.8102095" lon="-118.3939842">
  <ele>-0.114</ele>
  <time>2026-09-02T22:07:32Z</time>
  <course>186.37</course>
  <speed>0.7283543093852057</speed>
  <fix>3d</fix>
</trkpt>
<trkpt lat="33.8102095" lon="-118.3939842">
  <ele>-0.114</ele>
  <time>2026-09-02T22:07:32Z</time>
  <course>186.37</course>
  <speed>0.7283543093852057</speed>
  <fix>3d</fix>
</trkpt>
<trkpt lat="33.8102104" lon="-118.3939828">
  <ele>-0.1</ele>
  <time>2026-09-02T22:07:32Z</time>
  <course>223.26</course>
  <speed>0.73</speed>
  <fix>3d</fix>
</trkpt>
<trkpt lat="33.8102095" lon="-118.3939842">
  <ele>-0.114</ele>
  <time>2026-09-02T22:07:32Z</time>
  <course>186.37</course>
  <speed>0.7283543093852057</speed>
  <fix>3d</fix>
</trkpt>
<trkpt lat="33.8102094" lon="-118.3939843">
  <ele>-0.115</ele>
  <time>2026-09-02T22:07:32Z</time>
  <course>186.37</course>
  <speed>0.7283543093852057</speed>
  <fix>3d</fix>
</trkpt>
<trkpt lat="33.8102094" lon="-118.3939844">
  <ele>-0.115</ele>
  <time>2026-09-02T22:07:32Z</time>
  <course>186.37</course>
  <speed>0.7283543093852057</speed>
  <fix>3d</fix>
</trkpt>
<trkpt lat="33.8102093" lon="-118.3939844">
  <ele>-0.114</ele>
  <time>2026-09-02T22:07:32Z</time>
  <course>186.37</course>
  <speed>0.7283543093852057</speed>
  <fix>3d</fix>
</trkpt>
<trkpt lat="33.8102093" lon="-118.3939844">
  <ele>-0.115</ele>
  <time>2026-09-02T22:07:32Z</time>
  <course>186.37</course>
  <speed>0.7283543093852057</speed>
  <fix>3d</fix>
</trkpt>
<trkpt lat="33.8102092" lon="-118.3939845">
  <ele>-0.115</ele>
  <time>2026-09-02T22:07:32Z</time>
  <course>186.37</course>
  <speed>0.7283543093852057</speed>
  <fix>3d</fix>
</trkpt>
<trkpt lat="33.8102092" lon="-118.3939845">
  <ele>-0.115</ele>
  <time>2026-09-02T22:07:32Z</time>
  <course>186.37</course>
  <speed>0.7283543093852057</speed>
  <fix>3d</fix>
</trkpt>
<trkpt lat="33.8102092" lon="-118.3939846">
  <ele>-0.115</ele>
  <time>2026-09-02T22:07:32Z</time>
  <course>186.37</course>
  <speed>0.7283543093852057</speed>
  <fix>3d</fix>
</trkpt>
<trkpt lat="33.8102091" lon="-118.3939846">
  <ele>-0.115</ele>
  <time>2026-09-02T22:07:32Z</time>
  <course>186.37</course>
  <speed>0.7283543093852057</speed>
  <fix>3d</fix>
</trkpt>
<trkpt lat="33.8102091" lon="-118.3939846">
  <ele>-0.115</ele>
  <time>2026-09-02T22:07:32Z</time>
  <course>186.37</course>
  <speed>0.7283543093852057</speed>
  <fix>3d</fix>
</trkpt>
<trkpt lat="33.8102091" lon="-118.3939847">
  <ele>-0.115</ele>
  <time>2026-09-02T22:07:32Z</time>
  <course>186.37</course>
  <speed>0.7283543093852057</speed>
  <fix>3d</fix>
</trkpt>
<trkpt lat="33.810209" lon="-118.3939847">
  <ele>-0.115</ele>
  <time>2026-09-02T22:07:32Z</time>
  <course>186.37</course>
  <speed>0.7283543093852057</speed>
  <fix>3d</fix>
</trkpt>
<trkpt lat="33.810209" lon="-118.3939847">
  <ele>-0.115</ele>
  <time>2026-09-02T22:07:32Z</time>
  <course>186.37</course>
  <speed>0.7283543093852057</speed>
  <fix>3d</fix>
</trkpt>
<trkpt lat="33.8102094" lon="-118.3939839">
  <ele>-0.1</ele>
  <time>2026-09-02T22:07:32Z</time>
  <course>223.26</course>
  <speed>0.73</speed>
  <fix>3d</fix>
</trkpt>
<trkpt lat="33.810209" lon="-118.3939848">
  <ele>-0.115</ele>
  <time>2026-09-02T22:07:32Z</time>
  <course>186.37</course>
  <speed>0.7283543093852057</speed>
  <fix>3d</fix>
</trkpt>
<trkpt lat="33.8102089" lon="-118.3939849">
  <ele>-0.115</ele>
  <time>2026-09-02T22:07:32Z</time>
  <course>186.37</course>
  <speed>0.7283543093852057</speed>
  <fix>3d</fix>
</trkpt>
<trkpt lat="33.8102089" lon="-118.3939849">
  <ele>-0.115</ele>
  <time>2026-09-02T22:07:32Z</time>
  <course>186.37</course>
  <speed>0.7283543093852057</speed>
  <fix>3d</fix>
</trkpt>
<trkpt lat="33.8102088" lon="-118.393985">
  <ele>-0.115</ele>
  <time>2026-09-02T22:07:32Z</time>
  <course>186.37</course>
  <speed>0.7283543093852057</speed>
  <fix>3d</fix>
</trkpt>
<trkpt lat="33.8102088" lon="-118.393985">
  <ele>-0.115</ele>
  <time>2026-09-02T22:07:32Z</time>
  <course>186.37</course>
  <speed>0.7283543093852057</speed>
  <fix>3d</fix>
</trkpt>
<trkpt lat="33.8102087" lon="-118.393985">
  <ele>-0.115</ele>
  <time>2026-09-02T22:07:32Z</time>
  <course>186.37</course>
  <speed>0.7283543093852057</speed>
  <fix>3d</fix>
</trkpt>
<trkpt lat="33.8102087" lon="-118.3939851">
  <ele>-0.115</ele>
  <time>2026-09-02T22:07:32Z</time>
  <course>186.37</course>
  <speed>0.7283543093852057</speed>
  <fix>3d</fix>
</trkpt>
<trkpt lat="33.8102087" lon="-118.3939851">
  <ele>-0.115</ele>
  <time>2026-09-02T22:07:32Z</time>
  <course>186.37</course>
  <speed>0.7283543093852057</speed>
  <fix>3d</fix>
</trkpt>
<trkpt lat="33.8102086" lon="-118.3939852">
  <ele>-0.115</ele>
  <time>2026-09-02T22:07:32Z</time>
  <course>186.37</course>
  <speed>0.7283543093852057</speed>
  <fix>3d</fix>
</trkpt>
<trkpt lat="33.8102086" lon="-118.3939852">
  <ele>-0.114</ele>
  <time>2026-09-02T22:07:32Z</time>
  <course>186.37</course>
  <speed>0.7283543093852057</speed>
  <fix>3d</fix>
</trkpt>
<trkpt lat="33.8102086" lon="-118.3939853">
  <ele>-0.115</ele>
  <time>2026-09-02T22:07:32Z</time>
  <course>186.37</course>
  <speed>0.7283543093852057</speed>
  <fix>3d</fix>
</trkpt>
<trkpt lat="33.8102085" lon="-118.3939853">
  <ele>-0.114</ele>
  <time>2026-09-02T22:07:32Z</time>
  <course>186.37</course>
  <speed>0.7283543093852057</speed>
  <fix>3d</fix>
</trkpt>
<trkpt lat="33.8102094" lon="-118.3939839">
  <ele>-0.1</ele>
  <time>2026-09-02T22:07:32Z</time>
  <course>223.26</course>
  <speed>0.73</speed>
  <fix>3d</fix>
</trkpt>
<trkpt lat="33.8102085" lon="-118.3939853">
  <ele>-0.114</ele>
  <time>2026-09-02T22:07:32Z</time>
  <course>186.37</course>
  <speed>0.7283543093852057</speed>
  <fix>3d</fix>
</trkpt>
<trkpt lat="33.8102084" lon="-118.3939854">
  <ele>-0.114</ele>
  <time>2026-09-02T22:07:32Z</time>
  <course>186.37</course>
  <speed>0.7283543093852057</speed>
  <fix>3d</fix>
</trkpt>
<trkpt lat="33.8102084" lon="-118.3939854">
  <ele>-0.114</ele>
  <time>2026-09-02T22:07:32Z</time>
  <course>186.37</course>
  <speed>0.7283543093852057</speed>
  <fix>3d</fix>
</trkpt>
<trkpt lat="33.8102083" lon="-118.3939855">
  <ele>-0.114</ele>
  <time>2026-09-02T22:07:32Z</time>
  <course>186.37</course>
  <speed>0.7283543093852057</speed>
  <fix>3d</fix>
</trkpt>
<trkpt lat="33.8102083" lon="-118.3939855">
  <ele>-0.114</ele>
  <time>2026-09-02T22:07:32Z</time>
  <course>186.37</course>
  <speed>0.7283543093852057</speed>
  <fix>3d</fix>
</trkpt>
<trkpt lat="33.8102083" lon="-118.3939856">
  <ele>-0.114</ele>
  <time>2026-09-02T22:07:32Z</time>
  <course>186.37</course>
  <speed>0.7283543093852057</speed>
  <fix>3d</fix>
</trkpt>
<trkpt lat="33.8102082" lon="-118.3939856">
  <ele>-0.114</ele>
  <time>2026-09-02T22:07:32Z</time>
  <course>186.37</course>
  <speed>0.7283543093852057</speed>
  <fix>3d</fix>
</trkpt>
<trkpt lat="33.8102082" lon="-118.3939857">
  <ele>-0.114</ele>
  <time>2026-09-02T22:07:32Z</time>
  <course>186.37</course>
  <speed>0.7283543093852057</speed>
  <fix>3d</fix>
</trkpt>
<trkpt lat="33.8102082" lon="-118.3939857">
  <ele>-0.114</ele>
  <time>2026-09-02T22:07:32Z</time>
  <course>186.37</course>
  <speed>0.7283543093852057</speed>
  <fix>3d</fix>
</trkpt>
<trkpt lat="33.8102081" lon="-118.3939858">
  <ele>-0.113</ele>
  <time>2026-09-02T22:07:32Z</time>
  <course>186.37</course>
  <speed>0.7283543093852057</speed>
  <fix>3d</fix>
</trkpt>
<trkpt lat="33.8102081" lon="-118.3939858">
  <ele>-0.113</ele>
  <time>2026-09-02T22:07:32Z</time>
  <course>186.37</course>
  <speed>0.7283543093852057</speed>
  <fix>3d</fix>
</trkpt>
<trkpt lat="33.810208" lon="-118.3939858">
  <ele>-0.113</ele>
  <time>2026-09-02T22:07:32Z</time>
  <course>186.37</course>
  <speed>0.7283543093852057</speed>
  <fix>3d</fix>
</trkpt>
<trkpt lat="33.8102084" lon="-118.3939849">
  <ele>-0.1</ele>
  <time>2026-09-02T22:07:32Z</time>
  <course>223.26</course>
  <speed>0.73</speed>
  <fix>3d</fix>
</trkpt>
<trkpt lat="33.810208" lon="-118.3939859">
  <ele>-0.113</ele>
  <time>2026-09-02T22:07:32Z</time>
  <course>186.37</course>
  <speed>0.7283543093852057</speed>
  <fix>3d</fix>
</trkpt>
<trkpt lat="33.810208" lon="-118.3939859">
  <ele>-0.113</ele>
  <time>2026-09-02T22:07:32Z</time>
  <course>186.37</course>
  <speed>0.7283543093852057</speed>
  <fix>3d</fix>
</trkpt>
<trkpt lat="33.8102079" lon="-118.393986">
  <ele>-0.113</ele>
  <time>2026-09-02T22:07:32Z</time>
  <course>186.37</course>
  <speed>0.7283543093852057</speed>
  <fix>3d</fix>
</trkpt>
<trkpt lat="33.8102079" lon="-118.393986">
  <ele>-0.113</ele>
  <time>2026-09-02T22:07:32Z</time>
  <course>186.37</course>
  <speed>0.7283543093852057</speed>
  <fix>3d</fix>
</trkpt>
<trkpt lat="33.8102078" lon="-118.3939861">
  <ele>-0.113</ele>
  <time>2026-09-02T22:07:32Z</time>
  <course>186.37</course>
  <speed>0.7283543093852057</speed>
  <fix>3d</fix>
</trkpt>
<trkpt lat="33.8102078" lon="-118.3939861">
  <ele>-0.112</ele>
  <time>2026-09-02T22:07:32Z</time>
  <course>186.37</course>
  <speed>0.7283543093852057</speed>
  <fix>3d</fix>
</trkpt>
<trkpt lat="33.8102078" lon="-118.3939861">
  <ele>-0.112</ele>
  <time>2026-09-02T22:07:32Z</time>
  <course>186.37</course>
  <speed>0.7283543093852057</speed>
  <fix>3d</fix>
</trkpt>
<trkpt lat="33.8102077" lon="-118.3939862">
  <ele>-0.112</ele>
  <time>2026-09-02T22:07:32Z</time>
  <course>186.37</course>
  <speed>0.7283543093852057</speed>
  <fix>3d</fix>
</trkpt>
<trkpt lat="33.8102077" lon="-118.3939862">
  <ele>-0.112</ele>
  <time>2026-09-02T22:07:32Z</time>
  <course>186.37</course>
  <speed>0.7283543093852057</speed>
  <fix>3d</fix>
</trkpt>
<trkpt lat="33.8102076" lon="-118.3939863">
  <ele>-0.112</ele>
  <time>2026-09-02T22:07:32Z</time>
  <course>186.37</course>
  <speed>0.7283543093852057</speed>
  <fix>3d</fix>
</trkpt>
<trkpt lat="33.8102076" lon="-118.3939863">
  <ele>-0.111</ele>
  <time>2026-09-02T22:07:32Z</time>
  <course>186.37</course>
  <speed>0.7283543093852057</speed>
  <fix>3d</fix>
</trkpt>
<trkpt lat="33.8102076" lon="-118.3939864">
  <ele>-0.111</ele>
  <time>2026-09-02T22:07:32Z</time>
  <course>186.37</course>
  <speed>0.7283543093852057</speed>
  <fix>3d</fix>
</trkpt>
<trkpt lat="33.8102076" lon="-118.3939864">
  <ele>-0.111</ele>
  <time>2026-09-02T22:07:32Z</time>
  <course>186.37</course>
  <speed>0.7283543093852057</speed>
  <fix>3d</fix>
</trkpt>
<trkpt lat="33.8102084" lon="-118.3939849">
  <ele>-0.1</ele>
  <time>2026-09-02T22:07:32Z</time>
  <course>223.26</course>
  <speed>0.73</speed>
  <fix>3d</fix>
</trkpt>
<trkpt lat="33.8102075" lon="-118.3939864">
  <ele>-0.111</ele>
  <time>2026-09-02T22:07:32Z</time>
  <course>186.37</course>
  <speed>0.7283543093852057</speed>
  <fix>3d</fix>
</trkpt>
<trkpt lat="33.8102074" lon="-118.3939865">
  <ele>-0.111</ele>
  <time>2026-09-02T22:07:32Z</time>
  <course>186.37</course>
  <speed>0.7283543093852057</speed>
  <fix>3d</fix>
</trkpt>
<trkpt lat="33.8102074" lon="-118.3939866">
  <ele>-0.111</ele>
  <time>2026-09-02T22:07:32Z</time>
  <course>186.37</course>
  <speed>0.7283543093852057</speed>
  <fix>3d</fix>
</trkpt>
<trkpt lat="33.8102074" lon="-118.3939866">
  <ele>-0.11</ele>
  <time>2026-09-02T22:07:32Z</time>
  <course>186.37</course>
  <speed>0.7283543093852057</speed>
  <fix>3d</fix>
</trkpt>
<trkpt lat="33.8102073" lon="-118.3939866">
  <ele>-0.11</ele>
  <time>2026-09-02T22:07:32Z</time>
  <course>186.37</course>
  <speed>0.7283543093852057</speed>
  <fix>3d</fix>
</trkpt>
<trkpt lat="33.8102073" lon="-118.3939867">
  <ele>-0.11</ele>
  <time>2026-09-02T22:07:32Z</time>
  <course>186.37</course>
  <speed>0.7283543093852057</speed>
  <fix>3d</fix>
</trkpt>
<trkpt lat="33.8102072" lon="-118.3939867">
  <ele>-0.11</ele>
  <time>2026-09-02T22:07:32Z</time>
  <course>186.37</course>
  <speed>0.7283543093852057</speed>
  <fix>3d</fix>
</trkpt>
<trkpt lat="33.8102072" lon="-118.3939868">
  <ele>-0.109</ele>
  <time>2026-09-02T22:07:32Z</time>
  <course>186.36</course>
  <speed>0.7283543093852057</speed>
  <fix>3d</fix>
</trkpt>
<trkpt lat="33.8102072" lon="-118.3939868">
  <ele>-0.109</ele>
  <time>2026-09-02T22:07:32Z</time>
  <course>186.36</course>
  <speed>0.7283543093852057</speed>
  <fix>3d</fix>
</trkpt>
<trkpt lat="33.8102071" lon="-118.3939869">
  <ele>-0.109</ele>
  <time>2026-09-02T22:07:32Z</time>
  <course>186.36</course>
  <speed>0.7283543093852057</speed>
  <fix>3d</fix>
</trkpt>
<trkpt lat="33.8102071" lon="-118.3939869">
  <ele>-0.108</ele>
  <time>2026-09-02T22:07:32Z</time>
  <course>186.36</course>
  <speed>0.7283543093852057</speed>
  <fix>3d</fix>
</trkpt>
<trkpt lat="33.8102075" lon="-118.393986">
  <ele>-0.11</ele>
  <time>2026-09-02T22:07:32Z</time>
  <course>223.26</course>
  <speed>0.73</speed>
  <fix>3d</fix>
</trkpt>
<trkpt lat="33.8102071" lon="-118.3939869">
  <ele>-0.108</ele>
  <time>2026-09-02T22:07:32Z</time>
  <course>186.36</course>
  <speed>0.7283543093852057</speed>
  <fix>3d</fix>
</trkpt>
<trkpt lat="33.810207" lon="-118.393987">
  <ele>-0.108</ele>
  <time>2026-09-02T22:07:32Z</time>
  <course>186.36</course>
  <speed>0.7283543093852057</speed>
  <fix>3d</fix>
</trkpt>
<trkpt lat="33.810207" lon="-118.3939871">
  <ele>-0.108</ele>
  <time>2026-09-02T22:07:32Z</time>
  <course>186.36</course>
  <speed>0.7283543093852057</speed>
  <fix>3d</fix>
</trkpt>
<trkpt lat="33.8102069" lon="-118.3939871">
  <ele>-0.108</ele>
  <time>2026-09-02T22:07:32Z</time>
  <course>186.36</course>
  <speed>0.7283543093852057</speed>
  <fix>3d</fix>
</trkpt>
<trkpt lat="33.8102069" lon="-118.3939871">
  <ele>-0.107</ele>
  <time>2026-09-02T22:07:32Z</time>
  <course>186.36</course>
  <speed>0.7283543093852057</speed>
  <fix>3d</fix>
</trkpt>
<trkpt lat="33.8102068" lon="-118.3939872">
  <ele>-0.107</ele>
  <time>2026-09-02T22:07:32Z</time>
  <course>186.36</course>
  <speed>0.7283543093852057</speed>
  <fix>3d</fix>
</trkpt>
<trkpt lat="33.8102068" lon="-118.3939872">
  <ele>-0.107</ele>
  <time>2026-09-02T22:07:32Z</time>
  <course>186.36</course>
  <speed>0.7283543093852057</speed>
  <fix>3d</fix>
</trkpt>
<trkpt lat="33.8102068" lon="-118.3939873">
  <ele>-0.107</ele>
  <time>2026-09-02T22:07:32Z</time>
  <course>186.36</course>
  <speed>0.7283543093852057</speed>
  <fix>3d</fix>
</trkpt>
<trkpt lat="33.8102067" lon="-118.3939873">
  <ele>-0.107</ele>
  <time>2026-09-02T22:07:32Z</time>
  <course>186.36</course>
  <speed>0.7283543093852057</speed>
  <fix>3d</fix>
</trkpt>
<trkpt lat="33.8102067" lon="-118.3939874">
  <ele>-0.107</ele>
  <time>2026-09-02T22:07:32Z</time>
  <course>186.36</course>
  <speed>0.7283543093852057</speed>
  <fix>3d</fix>
</trkpt>
<trkpt lat="33.8102067" lon="-118.3939874">
  <ele>-0.107</ele>
  <time>2026-09-02T22:07:32Z</time>
  <course>186.36</course>
  <speed>0.7283543093852057</speed>
  <fix>3d</fix>
</trkpt>
<trkpt lat="33.8102066" lon="-118.3939874">
  <ele>-0.106</ele>
  <time>2026-09-02T22:07:32Z</time>
  <course>186.36</course>
  <speed>0.7283543093852057</speed>
  <fix>3d</fix>
</trkpt>
<trkpt lat="33.8102066" lon="-118.3939875">
  <ele>-0.106</ele>
  <time>2026-09-02T22:07:32Z</time>
  <course>186.36</course>
  <speed>0.7283543093852057</speed>
  <fix>3d</fix>
</trkpt>
<trkpt lat="33.8102075" lon="-118.393986">
  <ele>-0.11</ele>
  <time>2026-09-02T22:07:32Z</time>
  <course>223.26</course>
  <speed>0.73</speed>
  <fix>3d</fix>
</trkpt>
<trkpt lat="33.8102066" lon="-118.3939875">
  <ele>-0.106</ele>
  <time>2026-09-02T22:07:32Z</time>
  <course>186.36</course>
  <speed>0.7283543093852057</speed>
  <fix>3d</fix>
</trkpt>
<trkpt lat="33.8102065" lon="-118.3939876">
  <ele>-0.106</ele>
  <time>2026-09-02T22:07:32Z</time>
  <course>186.36</course>
  <speed>0.7283543093852057</speed>
  <fix>3d</fix>
</trkpt>
<trkpt lat="33.8102065" lon="-118.3939876">
  <ele>-0.106</ele>
  <time>2026-09-02T22:07:32Z</time>
  <course>186.36</course>
  <speed>0.7283543093852057</speed>
  <fix>3d</fix>
</trkpt>
<trkpt lat="33.8102064" lon="-118.3939877">
  <ele>-0.106</ele>
  <time>2026-09-02T22:07:32Z</time>
  <course>186.36</course>
  <speed>0.7283543093852057</speed>
  <fix>3d</fix>
</trkpt>
<trkpt lat="33.8102064" lon="-118.3939877">
  <ele>-0.106</ele>
  <time>2026-09-02T22:07:32Z</time>
  <course>186.36</course>
  <speed>0.7283543093852057</speed>
  <fix>3d</fix>
</trkpt>
<trkpt lat="33.8102064" lon="-118.3939877">
  <ele>-0.105</ele>
  <time>2026-09-02T22:07:32Z</time>
  <course>186.36</course>
  <speed>0.7283543093852057</speed>
  <fix>3d</fix>
</trkpt>
<trkpt lat="33.8102063" lon="-118.3939878">
  <ele>-0.105</ele>
  <time>2026-09-02T22:07:32Z</time>
  <course>186.36</course>
  <speed>0.7283543093852057</speed>
  <fix>3d</fix>
</trkpt>
<trkpt lat="33.8102063" lon="-118.3939878">
  <ele>-0.105</ele>
  <time>2026-09-02T22:07:32Z</time>
  <course>186.36</course>
  <speed>0.7283543093852057</speed>
  <fix>3d</fix>
</trkpt>
<trkpt lat="33.8102062" lon="-118.3939879">
  <ele>-0.105</ele>
  <time>2026-09-02T22:07:32Z</time>
  <course>186.36</course>
  <speed>0.7283543093852057</speed>
  <fix>3d</fix>
</trkpt>
<trkpt lat="33.8102062" lon="-118.3939879">
  <ele>-0.105</ele>
  <time>2026-09-02T22:07:32Z</time>
  <course>186.36</course>
  <speed>0.7283543093852057</speed>
  <fix>3d</fix>
</trkpt>
<trkpt lat="33.8102062" lon="-118.3939879">
  <ele>-0.105</ele>
  <time>2026-09-02T22:07:32Z</time>
  <course>186.36</course>
  <speed>0.7283543093852057</speed>
  <fix>3d</fix>
</trkpt>
<trkpt lat="33.8102061" lon="-118.393988">
  <ele>-0.105</ele>
  <time>2026-09-02T22:07:32Z</time>
  <course>186.36</course>
  <speed>0.7283543093852057</speed>
  <fix>3d</fix>
</trkpt>
<trkpt lat="33.8102061" lon="-118.393988">
  <ele>-0.105</ele>
  <time>2026-09-02T22:07:32Z</time>
  <course>186.36</course>
  <speed>0.7283543093852057</speed>
  <fix>3d</fix>
</trkpt>
<trkpt lat="33.8102065" lon="-118.3939871">
  <ele>-0.1</ele>
  <time>2026-09-02T22:07:32Z</time>
  <course>223.26</course>
  <speed>0.73</speed>
  <fix>3d</fix>
</trkpt>
<trkpt lat="33.8102061" lon="-118.393988">
  <ele>-0.105</ele>
  <time>2026-09-02T22:07:32Z</time>
  <course>186.36</course>
  <speed>0.7283543093852057</speed>
  <fix>3d</fix>
</trkpt>
<trkpt lat="33.810206" lon="-118.3939881">
  <ele>-0.104</ele>
  <time>2026-09-02T22:07:32Z</time>
  <course>186.36</course>
  <speed>0.7283543093852057</speed>
  <fix>3d</fix>
</trkpt>
<trkpt lat="33.810206" lon="-118.3939882">
  <ele>-0.104</ele>
  <time>2026-09-02T22:07:32Z</time>
  <course>186.36</course>
  <speed>0.7283543093852057</speed>
  <fix>3d</fix>
</trkpt>
<trkpt lat="33.810206" lon="-118.3939882">
  <ele>-0.104</ele>
  <time>2026-09-02T22:07:32Z</time>
  <course>186.36</course>
  <speed>0.7283543093852057</speed>
  <fix>3d</fix>
</trkpt>
<trkpt lat="33.8102059" lon="-118.3939882">
  <ele>-0.104</ele>
  <time>2026-09-02T22:07:32Z</time>
  <course>186.36</course>
  <speed>0.7283543093852057</speed>
  <fix>3d</fix>
</trkpt>
<trkpt lat="33.8102059" lon="-118.3939883">
  <ele>-0.104</ele>
  <time>2026-09-02T22:07:32Z</time>
  <course>186.36</course>
  <speed>0.7283543093852057</speed>
  <fix>3d</fix>
</trkpt>
<trkpt lat="33.8102058" lon="-118.3939883">
  <ele>-0.104</ele>
  <time>2026-09-02T22:07:32Z</time>
  <course>186.36</course>
  <speed>0.7283543093852057</speed>
  <fix>3d</fix>
</trkpt>
<trkpt lat="33.8102058" lon="-118.3939884">
  <ele>-0.104</ele>
  <time>2026-09-02T22:07:32Z</time>
  <course>186.36</course>
  <speed>0.7283543093852057</speed>
  <fix>3d</fix>
</trkpt>
<trkpt lat="33.8102058" lon="-118.3939884">
  <ele>-0.103</ele>
  <time>2026-09-02T22:07:32Z</time>
  <course>186.36</course>
  <speed>0.7283543093852057</speed>
  <fix>3d</fix>
</trkpt>
<trkpt lat="33.8102057" lon="-118.3939884">
  <ele>-0.103</ele>
  <time>2026-09-02T22:07:32Z</time>
  <course>186.36</course>
  <speed>0.7283543093852057</speed>
  <fix>3d</fix>
</trkpt>
<trkpt lat="33.8102057" lon="-118.3939885">
  <ele>-0.103</ele>
  <time>2026-09-02T22:07:32Z</time>
  <course>186.36</course>
  <speed>0.7283543093852057</speed>
  <fix>3d</fix>
</trkpt>
<trkpt lat="33.8102057" lon="-118.3939885">
  <ele>-0.103</ele>
  <time>2026-09-02T22:07:32Z</time>
  <course>186.36</course>
  <speed>0.7283543093852057</speed>
  <fix>3d</fix>
</trkpt>
<trkpt lat="33.8102056" lon="-118.3939886">
  <ele>-0.103</ele>
  <time>2026-09-02T22:07:32Z</time>
  <course>186.36</course>
  <speed>0.7283543093852057</speed>
  <fix>3d</fix>
</trkpt>
<trkpt lat="33.8102065" lon="-118.3939871">
  <ele>-0.1</ele>
  <time>2026-09-02T22:07:32Z</time>
  <course>223.26</course>
  <speed>0.73</speed>
  <fix>3d</fix>
</trkpt>
<trkpt lat="33.8102056" lon="-118.3939886">
  <ele>-0.103</ele>
  <time>2026-09-02T22:07:32Z</time>
  <course>186.36</course>
  <speed>0.7283543093852057</speed>
  <fix>3d</fix>
</trkpt>
<trkpt lat="33.8102056" lon="-118.3939886">
  <ele>-0.103</ele>
  <time>2026-09-02T22:07:32Z</time>
  <course>186.36</course>
  <speed>0.7283543093852057</speed>
  <fix>3d</fix>
</trkpt>
<trkpt lat="33.8102055" lon="-118.3939887">
  <ele>-0.102</ele>
  <time>2026-09-02T22:07:32Z</time>
  <course>186.36</course>
  <speed>0.7283543093852057</speed>
  <fix>3d</fix>
</trkpt>
<trkpt lat="33.8102055" lon="-118.3939887">
  <ele>-0.102</ele>
  <time>2026-09-02T22:07:32Z</time>
  <course>186.36</course>
  <speed>0.7283543093852057</speed>
  <fix>3d</fix>
</trkpt>
<trkpt lat="33.8102054" lon="-118.3939888">
  <ele>-0.102</ele>
  <time>2026-09-02T22:07:32Z</time>
  <course>186.36</course>
  <speed>0.7283543093852057</speed>
  <fix>3d</fix>
</trkpt>
<trkpt lat="33.8102054" lon="-118.3939888">
  <ele>-0.102</ele>
  <time>2026-09-02T22:07:32Z</time>
  <course>186.36</course>
  <speed>0.7283543093852057</speed>
  <fix>3d</fix>
</trkpt>
<trkpt lat="33.8102053" lon="-118.3939889">
  <ele>-0.102</ele>
  <time>2026-09-02T22:07:32Z</time>
  <course>186.36</course>
  <speed>0.7283543093852057</speed>
  <fix>3d</fix>
</trkpt>
<trkpt lat="33.8102053" lon="-118.393989">
  <ele>-0.102</ele>
  <time>2026-09-02T22:07:32Z</time>
  <course>186.36</course>
  <speed>0.7283543093852057</speed>
  <fix>3d</fix>
</trkpt>
<trkpt lat="33.8102052" lon="-118.393989">
  <ele>-0.102</ele>
  <time>2026-09-02T22:07:32Z</time>
  <course>186.36</course>
  <speed>0.7283543093852057</speed>
  <fix>3d</fix>
</trkpt>
<trkpt lat="33.8102052" lon="-118.3939891">
  <ele>-0.102</ele>
  <time>2026-09-02T22:07:32Z</time>
  <course>186.36</course>
  <speed>0.7283543093852057</speed>
  <fix>3d</fix>
</trkpt>
<trkpt lat="33.8102051" lon="-118.3939891">
  <ele>-0.102</ele>
  <time>2026-09-02T22:07:32Z</time>
  <course>186.36</course>
  <speed>0.7283543093852057</speed>
  <fix>3d</fix>
</trkpt>
<trkpt lat="33.8102055" lon="-118.3939882">
  <ele>-0.1</ele>
  <time>2026-09-02T22:07:32Z</time>
  <course>223.26</course>
  <speed>0.73</speed>
  <fix>3d</fix>
</trkpt>
<trkpt lat="33.8102051" lon="-118.3939891">
  <ele>-0.102</ele>
  <time>2026-09-02T22:07:32Z</time>
  <course>186.36</course>
  <speed>0.7283543093852057</speed>
  <fix>3d</fix>
</trkpt>
<trkpt lat="33.8102051" lon="-118.3939892">
  <ele>-0.102</ele>
  <time>2026-09-02T22:07:32Z</time>
  <course>186.36</course>
  <speed>0.7283543093852057</speed>
  <fix>3d</fix>
</trkpt>
<trkpt lat="33.810205" lon="-118.3939892">
  <ele>-0.102</ele>
  <time>2026-09-02T22:07:32Z</time>
  <course>186.36</course>
  <speed>0.7283543093852057</speed>
  <fix>3d</fix>
</trkpt>
<trkpt lat="33.810205" lon="-118.3939892">
  <ele>-0.102</ele>
  <time>2026-09-02T22:07:32Z</time>
  <course>186.36</course>
  <speed>0.7283543093852057</speed>
  <fix>3d</fix>
</trkpt>
<trkpt lat="33.810205" lon="-118.3939893">
  <ele>-0.102</ele>
  <time>2026-09-02T22:07:32Z</time>
  <course>186.36</course>
  <speed>0.7283543093852057</speed>
  <fix>3d</fix>
</trkpt>
<trkpt lat="33.8102049" lon="-118.3939893">
  <ele>-0.102</ele>
  <time>2026-09-02T22:07:32Z</time>
  <course>186.36</course>
  <speed>0.7283543093852057</speed>
  <fix>3d</fix>
</trkpt>
<trkpt lat="33.8102049" lon="-118.3939894">
  <ele>-0.102</ele>
  <time>2026-09-02T22:07:32Z</time>
  <course>186.36</course>
  <speed>0.7283543093852057</speed>
  <fix>3d</fix>
</trkpt>
<trkpt lat="33.8102049" lon="-118.3939894">
  <ele>-0.102</ele>
  <time>2026-09-02T22:07:32Z</time>
  <course>186.36</course>
  <speed>0.7283543093852057</speed>
  <fix>3d</fix>
</trkpt>
<trkpt lat="33.8102048" lon="-118.3939895">
  <ele>-0.102</ele>
  <time>2026-09-02T22:07:32Z</time>
  <course>186.36</course>
  <speed>0.7283543093852057</speed>
  <fix>3d</fix>
</trkpt>
<trkpt lat="33.8102048" lon="-118.3939895">
  <ele>-0.102</ele>
  <time>2026-09-02T22:07:32Z</time>
  <course>186.36</course>
  <speed>0.7283543093852057</speed>
  <fix>3d</fix>
</trkpt>
<trkpt lat="33.8102047" lon="-118.3939895">
  <ele>-0.102</ele>
  <time>2026-09-02T22:07:32Z</time>
  <course>186.36</course>
  <speed>0.7283543093852057</speed>
  <fix>3d</fix>
</trkpt>
<trkpt lat="33.8102047" lon="-118.3939896">
  <ele>-0.102</ele>
  <time>2026-09-02T22:07:32Z</time>
  <course>186.36</course>
  <speed>0.7283543093852057</speed>
  <fix>3d</fix>
</trkpt>
<trkpt lat="33.8102047" lon="-118.3939896">
  <ele>-0.102</ele>
  <time>2026-09-02T22:07:32Z</time>
  <course>186.36</course>
  <speed>0.7283543093852057</speed>
  <fix>3d</fix>
</trkpt>
<trkpt lat="33.8102047" lon="-118.3939896">
  <ele>-0.102</ele>
  <time>2026-09-02T22:07:32Z</time>
  <course>186.36</course>
  <speed>0.7283543093852057</speed>
  <fix>3d</fix>
</trkpt>
<trkpt lat="33.8102055" lon="-118.3939882">
  <ele>-0.1</ele>
  <time>2026-09-02T22:07:32Z</time>
  <course>223.26</course>
  <speed>0.73</speed>
  <fix>3d</fix>
</trkpt>
<trkpt lat="33.8102047" lon="-118.3939897">
  <ele>-0.102</ele>
  <time>2026-09-02T22:07:32Z</time>
  <course>186.36</course>
  <speed>0.7283543093852057</speed>
  <fix>3d</fix>
</trkpt>
<trkpt lat="33.8102046" lon="-118.3939897">
  <ele>-0.102</ele>
  <time>2026-09-02T22:07:32Z</time>
  <course>186.36</course>
  <speed>0.7283543093852057</speed>
  <fix>3d</fix>
</trkpt>
<trkpt lat="33.8102045" lon="-118.3939898">
  <ele>-0.102</ele>
  <time>2026-09-02T22:07:32Z</time>
  <course>186.36</course>
  <speed>0.7283543093852057</speed>
  <fix>3d</fix>
</trkpt>
<trkpt lat="33.8102045" lon="-118.3939898">
  <ele>-0.102</ele>
  <time>2026-09-02T22:07:32Z</time>
  <course>186.36</course>
  <speed>0.7283543093852057</speed>
  <fix>3d</fix>
</trkpt>
<trkpt lat="33.8102045" lon="-118.3939899">
  <ele>-0.102</ele>
  <time>2026-09-02T22:07:32Z</time>
  <course>186.36</course>
  <speed>0.7283543093852057</speed>
  <fix>3d</fix>
</trkpt>
<trkpt lat="33.8102044" lon="-118.39399">
  <ele>-0.102</ele>
  <time>2026-09-02T22:07:32Z</time>
  <course>186.36</course>
  <speed>0.7283543093852057</speed>
  <fix>3d</fix>
</trkpt>
<trkpt lat="33.8102043" lon="-118.39399">
  <ele>-0.102</ele>
  <time>2026-09-02T22:07:32Z</time>
  <course>186.36</course>
  <speed>0.7283543093852057</speed>
  <fix>3d</fix>
</trkpt>
<trkpt lat="33.8102043" lon="-118.3939901">
  <ele>-0.101</ele>
  <time>2026-09-02T22:07:32Z</time>
  <course>186.36</course>
  <speed>0.7283543093852057</speed>
  <fix>3d</fix>
</trkpt>
<trkpt lat="33.8102042" lon="-118.3939901">
  <ele>-0.101</ele>
  <time>2026-09-02T22:07:32Z</time>
  <course>186.36</course>
  <speed>0.7283543093852057</speed>
  <fix>3d</fix>
</trkpt>
<trkpt lat="33.8102042" lon="-118.3939902">
  <ele>-0.101</ele>
  <time>2026-09-02T22:07:32Z</time>
  <course>186.36</course>
  <speed>0.7283543093852057</speed>
  <fix>3d</fix>
</trkpt>
<trkpt lat="33.8102046" lon="-118.3939893">
  <ele>-0.1</ele>
  <time>2026-09-02T22:07:32Z</time>
  <course>223.26</course>
  <speed>0.73</speed>
  <fix>3d</fix>
</trkpt>
<trkpt lat="33.8102042" lon="-118.3939902">
  <ele>-0.101</ele>
  <time>2026-09-02T22:07:32Z</time>
  <course>186.36</course>
  <speed>0.7283543093852057</speed>
  <fix>3d</fix>
</trkpt>
<trkpt lat="33.810204" lon="-118.3939904">
  <ele>-0.101</ele>
  <time>2026-09-02T22:07:32Z</time>
  <course>186.36</course>
  <speed>0.7283543093852057</speed>
  <fix>3d</fix>
</trkpt>
<trkpt lat="33.8102039" lon="-118.3939905">
  <ele>-0.101</ele>
  <time>2026-09-02T22:07:32Z</time>
  <course>186.36</course>
  <speed>0.7283543093852057</speed>
  <fix>3d</fix>
</trkpt>
<trkpt lat="33.8102039" lon="-118.3939905">
  <ele>-0.102</ele>
  <time>2026-09-02T22:07:32Z</time>
  <course>186.36</course>
  <speed>0.7283543093852057</speed>
  <fix>3d</fix>
</trkpt>
<trkpt lat="33.8102038" lon="-118.3939906">
  <ele>-0.102</ele>
  <time>2026-09-02T22:07:32Z</time>
  <course>186.36</course>
  <speed>0.7283543093852057</speed>
  <fix>3d</fix>
</trkpt>
<trkpt lat="33.8102038" lon="-118.3939907">
  <ele>-0.102</ele>
  <time>2026-09-02T22:07:32Z</time>
  <course>186.36</course>
  <speed>0.7283543093852057</speed>
  <fix>3d</fix>
</trkpt>
<trkpt lat="33.8102037" lon="-118.3939907">
  <ele>-0.102</ele>
  <time>2026-09-02T22:07:32Z</time>
  <course>186.36</course>
  <speed>0.7283543093852057</speed>
  <fix>3d</fix>
</trkpt>
<trkpt lat="33.8102046" lon="-118.3939893">
  <ele>-0.1</ele>
  <time>2026-09-02T22:07:32Z</time>
  <course>223.26</course>
  <speed>0.73</speed>
  <fix>3d</fix>
</trkpt>
<trkpt lat="33.8102037" lon="-118.3939907">
  <ele>-0.102</ele>
  <time>2026-09-02T22:07:32Z</time>
  <course>186.36</course>
  <speed>0.7283543093852057</speed>
  <fix>3d</fix>
</trkpt>
<trkpt lat="33.8102036" lon="-118.3939909">
  <ele>-0.102</ele>
  <time>2026-09-02T22:07:32Z</time>
  <course>186.36</course>
  <speed>0.7283543093852057</speed>
  <fix>3d</fix>
</trkpt>
<trkpt lat="33.8102035" lon="-118.393991">
  <ele>-0.103</ele>
  <time>2026-09-02T22:07:32Z</time>
  <course>186.36</course>
  <speed>0.7283543093852057</speed>
  <fix>3d</fix>
</trkpt>
<trkpt lat="33.8102034" lon="-118.393991">
  <ele>-0.103</ele>
  <time>2026-09-02T22:07:32Z</time>
  <course>186.36</course>
  <speed>0.7283543093852057</speed>
  <fix>3d</fix>
</trkpt>
<trkpt lat="33.8102034" lon="-118.3939911">
  <ele>-0.103</ele>
  <time>2026-09-02T22:07:32Z</time>
  <course>186.35</course>
  <speed>0.7283543093852057</speed>
  <fix>3d</fix>
</trkpt>
<trkpt lat="33.8102033" lon="-118.3939912">
  <ele>-0.103</ele>
  <time>2026-09-02T22:07:32Z</time>
  <course>186.35</course>
  <speed>0.7283543093852057</speed>
  <fix>3d</fix>
</trkpt>
<trkpt lat="33.8102033" lon="-118.3939912">
  <ele>-0.103</ele>
  <time>2026-09-02T22:07:32Z</time>
  <course>186.35</course>
  <speed>0.7283543093852057</speed>
  <fix>3d</fix>
</trkpt>
<trkpt lat="33.8102032" lon="-118.3939913">
  <ele>-0.103</ele>
  <time>2026-09-02T22:07:32Z</time>
  <course>186.35</course>
  <speed>0.7283543093852057</speed>
  <fix>3d</fix>
</trkpt>
<trkpt lat="33.8102032" lon="-118.3939913">
  <ele>-0.103</ele>
  <time>2026-09-02T22:07:32Z</time>
  <course>186.35</course>
  <speed>0.7283543093852057</speed>
  <fix>3d</fix>
</trkpt>
<trkpt lat="33.8102036" lon="-118.3939904">
  <ele>-0.1</ele>
  <time>2026-09-02T22:07:32Z</time>
  <course>223.26</course>
  <speed>0.73</speed>
  <fix>3d</fix>
</trkpt>
<trkpt lat="33.8102032" lon="-118.3939913">
  <ele>-0.103</ele>
  <time>2026-09-02T22:07:32Z</time>
  <course>186.35</course>
  <speed>0.7283543093852057</speed>
  <fix>3d</fix>
</trkpt>
<trkpt lat="33.8102031" lon="-118.3939914">
  <ele>-0.103</ele>
  <time>2026-09-02T22:07:32Z</time>
  <course>186.35</course>
  <speed>0.7283543093852057</speed>
  <fix>3d</fix>
</trkpt>
<trkpt lat="33.8102031" lon="-118.3939914">
  <ele>-0.103</ele>
  <time>2026-09-02T22:07:32Z</time>
  <course>186.35</course>
  <speed>0.7283543093852057</speed>
  <fix>3d</fix>
</trkpt>
<trkpt lat="33.810203" lon="-118.3939915">
  <ele>-0.103</ele>
  <time>2026-09-02T22:07:32Z</time>
  <course>186.35</course>
  <speed>0.7283543093852057</speed>
  <fix>3d</fix>
</trkpt>
<trkpt lat="33.810203" lon="-118.3939915">
  <ele>-0.103</ele>
  <time>2026-09-02T22:07:32Z</time>
  <course>186.35</course>
  <speed>0.7283543093852057</speed>
  <fix>3d</fix>
</trkpt>
<trkpt lat="33.8102029" lon="-118.3939916">
  <ele>-0.104</ele>
  <time>2026-09-02T22:07:32Z</time>
  <course>186.35</course>
  <speed>0.7283543093852057</speed>
  <fix>3d</fix>
</trkpt>
<trkpt lat="33.8102029" lon="-118.3939916">
  <ele>-0.104</ele>
  <time>2026-09-02T22:07:32Z</time>
  <course>186.35</course>
  <speed>0.7283543093852057</speed>
  <fix>3d</fix>
</trkpt>
<trkpt lat="33.8102029" lon="-118.3939917">
  <ele>-0.104</ele>
  <time>2026-09-02T22:07:32Z</time>
  <course>186.35</course>
  <speed>0.7283543093852057</speed>
  <fix>3d</fix>
</trkpt>
<trkpt lat="33.8102028" lon="-118.3939917">
  <ele>-0.104</ele>
  <time>2026-09-02T22:07:32Z</time>
  <course>186.35</course>
  <speed>0.7283543093852057</speed>
  <fix>3d</fix>
</trkpt>
<trkpt lat="33.8102028" lon="-118.3939918">
  <ele>-0.104</ele>
  <time>2026-09-02T22:07:32Z</time>
  <course>186.35</course>
  <speed>0.7283543093852057</speed>
  <fix>3d</fix>
</trkpt>
<trkpt lat="33.8102027" lon="-118.3939918">
  <ele>-0.104</ele>
  <time>2026-09-02T22:07:32Z</time>
  <course>186.35</course>
  <speed>0.7283543093852057</speed>
  <fix>3d</fix>
</trkpt>
<trkpt lat="33.8102027" lon="-118.3939918">
  <ele>-0.104</ele>
  <time>2026-09-02T22:07:32Z</time>
  <course>186.35</course>
  <speed>0.7283543093852057</speed>
  <fix>3d</fix>
</trkpt>
<trkpt lat="33.8102036" lon="-118.3939904">
  <ele>-0.1</ele>
  <time>2026-09-02T22:07:32Z</time>
  <course>223.26</course>
  <speed>0.73</speed>
  <fix>3d</fix>
</trkpt>
<trkpt lat="33.8102027" lon="-118.3939919">
  <ele>-0.104</ele>
  <time>2026-09-02T22:07:32Z</time>
  <course>186.35</course>
  <speed>0.7283543093852057</speed>
  <fix>3d</fix>
</trkpt>
<trkpt lat="33.8102026" lon="-118.393992">
  <ele>-0.104</ele>
  <time>2026-09-02T22:07:32Z</time>
  <course>186.35</course>
  <speed>0.7283543093852057</speed>
  <fix>3d</fix>
</trkpt>
<trkpt lat="33.8102026" lon="-118.393992">
  <ele>-0.104</ele>
  <time>2026-09-02T22:07:32Z</time>
  <course>186.35</course>
  <speed>0.7283543093852057</speed>
  <fix>3d</fix>
</trkpt>
<trkpt lat="33.8102025" lon="-118.393992">
  <ele>-0.104</ele>
  <time>2026-09-02T22:07:32Z</time>
  <course>186.35</course>
  <speed>0.7283543093852057</speed>
  <fix>3d</fix>
</trkpt>
<trkpt lat="33.8102025" lon="-118.3939921">
  <ele>-0.104</ele>
  <time>2026-09-02T22:07:32Z</time>
  <course>186.35</course>
  <speed>0.7283543093852057</speed>
  <fix>3d</fix>
</trkpt>
<trkpt lat="33.8102025" lon="-118.3939921">
  <ele>-0.104</ele>
  <time>2026-09-02T22:07:32Z</time>
  <course>186.35</course>
  <speed>0.7283543093852057</speed>
  <fix>3d</fix>
</trkpt>
<trkpt lat="33.8102024" lon="-118.3939922">
  <ele>-0.104</ele>
  <time>2026-09-02T22:07:32Z</time>
  <course>186.35</course>
  <speed>0.7283543093852057</speed>
  <fix>3d</fix>
</trkpt>
<trkpt lat="33.8102024" lon="-118.3939922">
  <ele>-0.104</ele>
  <time>2026-09-02T22:07:32Z</time>
  <course>186.35</course>
  <speed>0.7283543093852057</speed>
  <fix>3d</fix>
</trkpt>
<trkpt lat="33.8102024" lon="-118.3939923">
  <ele>-0.103</ele>
  <time>2026-09-02T22:07:32Z</time>
  <course>186.35</course>
  <speed>0.7283543093852057</speed>
  <fix>3d</fix>
</trkpt>
<trkpt lat="33.8102023" lon="-118.3939923">
  <ele>-0.103</ele>
  <time>2026-09-02T22:07:32Z</time>
  <course>186.35</course>
  <speed>0.7283543093852057</speed>
  <fix>3d</fix>
</trkpt>
<trkpt lat="33.8102023" lon="-118.3939923">
  <ele>-0.103</ele>
  <time>2026-09-02T22:07:32Z</time>
  <course>186.35</course>
  <speed>0.7283543093852057</speed>
  <fix>3d</fix>
</trkpt>
<trkpt lat="33.8102022" lon="-118.3939924">
  <ele>-0.103</ele>
  <time>2026-09-02T22:07:32Z</time>
  <course>186.35</course>
  <speed>0.7283543093852057</speed>
  <fix>3d</fix>
</trkpt>
<trkpt lat="33.8102022" lon="-118.3939924">
  <ele>-0.103</ele>
  <time>2026-09-02T22:07:32Z</time>
  <course>186.35</course>
  <speed>0.7283543093852057</speed>
  <fix>3d</fix>
</trkpt>
<trkpt lat="33.8102027" lon="-118.3939915">
  <ele>-0.11</ele>
  <time>2026-09-02T22:07:32Z</time>
  <course>223.26</course>
  <speed>0.73</speed>
  <fix>3d</fix>
</trkpt>
<trkpt lat="33.8102022" lon="-118.3939925">
  <ele>-0.103</ele>
  <time>2026-09-02T22:07:32Z</time>
  <course>186.35</course>
  <speed>0.7283543093852057</speed>
  <fix>3d</fix>
</trkpt>
<trkpt lat="33.8102021" lon="-118.3939925">
  <ele>-0.103</ele>
  <time>2026-09-02T22:07:32Z</time>
  <course>186.35</course>
  <speed>0.7283543093852057</speed>
  <fix>3d</fix>
</trkpt>
<trkpt lat="33.8102021" lon="-118.3939926">
  <ele>-0.103</ele>
  <time>2026-09-02T22:07:32Z</time>
  <course>186.35</course>
  <speed>0.7283543093852057</speed>
  <fix>3d</fix>
</trkpt>
<trkpt lat="33.810202" lon="-118.3939926">
  <ele>-0.103</ele>
  <time>2026-09-02T22:07:32Z</time>
  <course>186.35</course>
  <speed>0.7283543093852057</speed>
  <fix>3d</fix>
</trkpt>
<trkpt lat="33.810202" lon="-118.3939927">
  <ele>-0.102</ele>
  <time>2026-09-02T22:07:32Z</time>
  <course>186.35</course>
  <speed>0.7283543093852057</speed>
  <fix>3d</fix>
</trkpt>
<trkpt lat="33.810202" lon="-118.3939927">
  <ele>-0.102</ele>
  <time>2026-09-02T22:07:32Z</time>
  <course>186.35</course>
  <speed>0.7283543093852057</speed>
  <fix>3d</fix>
</trkpt>
<trkpt lat="33.8102019" lon="-118.3939927">
  <ele>-0.102</ele>
  <time>2026-09-02T22:07:32Z</time>
  <course>186.35</course>
  <speed>0.7283543093852057</speed>
  <fix>3d</fix>
</trkpt>
<trkpt lat="33.8102019" lon="-118.3939928">
  <ele>-0.102</ele>
  <time>2026-09-02T22:07:32Z</time>
  <course>186.35</course>
  <speed>0.7283543093852057</speed>
  <fix>3d</fix>
</trkpt>
<trkpt lat="33.8102018" lon="-118.3939928">
  <ele>-0.102</ele>
  <time>2026-09-02T22:07:32Z</time>
  <course>186.35</course>
  <speed>0.7283543093852057</speed>
  <fix>3d</fix>
</trkpt>
<trkpt lat="33.8102018" lon="-118.3939929">
  <ele>-0.102</ele>
  <time>2026-09-02T22:07:32Z</time>
  <course>186.35</course>
  <speed>0.7283543093852057</speed>
  <fix>3d</fix>
</trkpt>
<trkpt lat="33.8102018" lon="-118.3939929">
  <ele>-0.102</ele>
  <time>2026-09-02T22:07:32Z</time>
  <course>186.35</course>
  <speed>0.7283543093852057</speed>
  <fix>3d</fix>
</trkpt>
<trkpt lat="33.8102018" lon="-118.3939929">
  <ele>-0.102</ele>
  <time>2026-09-02T22:07:32Z</time>
  <course>186.35</course>
  <speed>0.7283543093852057</speed>
  <fix>3d</fix>
</trkpt>
<trkpt lat="33.8102027" lon="-118.3939915">
  <ele>-0.11</ele>
  <time>2026-09-02T22:07:32Z</time>
  <course>223.26</course>
  <speed>0.73</speed>
  <fix>3d</fix>
</trkpt>
<trkpt lat="33.8102017" lon="-118.393993">
  <ele>-0.102</ele>
  <time>2026-09-02T22:07:32Z</time>
  <course>186.35</course>
  <speed>0.7283543093852057</speed>
  <fix>3d</fix>
</trkpt>
<trkpt lat="33.8102016" lon="-118.3939931">
  <ele>-0.101</ele>
  <time>2026-09-02T22:07:32Z</time>
  <course>186.35</course>
  <speed>0.7283543093852057</speed>
  <fix>3d</fix>
</trkpt>
<trkpt lat="33.8102016" lon="-118.3939931">
  <ele>-0.101</ele>
  <time>2026-09-02T22:07:32Z</time>
  <course>186.35</course>
  <speed>0.7283543093852057</speed>
  <fix>3d</fix>
</trkpt>
<trkpt lat="33.8102016" lon="-118.3939932">
  <ele>-0.101</ele>
  <time>2026-09-02T22:07:32Z</time>
  <course>186.35</course>
  <speed>0.7283543093852057</speed>
  <fix>3d</fix>
</trkpt>
<trkpt lat="33.8102015" lon="-118.3939932">
  <ele>-0.101</ele>
  <time>2026-09-02T22:07:32Z</time>
  <course>186.35</course>
  <speed>0.7283543093852057</speed>
  <fix>3d</fix>
</trkpt>
<trkpt lat="33.8102015" lon="-118.3939932">
  <ele>-0.101</ele>
  <time>2026-09-02T22:07:32Z</time>
  <course>186.35</course>
  <speed>0.7283543093852057</speed>
  <fix>3d</fix>
</trkpt>
<trkpt lat="33.8102014" lon="-118.3939933">
  <ele>-0.101</ele>
  <time>2026-09-02T22:07:32Z</time>
  <course>186.35</course>
  <speed>0.7283543093852057</speed>
  <fix>3d</fix>
</trkpt>
<trkpt lat="33.8102014" lon="-118.3939933">
  <ele>-0.101</ele>
  <time>2026-09-02T22:07:32Z</time>
  <course>186.35</course>
  <speed>0.7283543093852057</speed>
  <fix>3d</fix>
</trkpt>
<trkpt lat="33.8102014" lon="-118.3939934">
  <ele>-0.101</ele>
  <time>2026-09-02T22:07:32Z</time>
  <course>186.35</course>
  <speed>0.7283543093852057</speed>
  <fix>3d</fix>
</trkpt>
<trkpt lat="33.8102013" lon="-118.3939934">
  <ele>-0.101</ele>
  <time>2026-09-02T22:07:32Z</time>
  <course>186.35</course>
  <speed>0.7283543093852057</speed>
  <fix>3d</fix>
</trkpt>
<trkpt lat="33.8102013" lon="-118.3939935">
  <ele>-0.101</ele>
  <time>2026-09-02T22:07:32Z</time>
  <course>186.35</course>
  <speed>0.7283543093852057</speed>
  <fix>3d</fix>
</trkpt>
<trkpt lat="33.8102013" lon="-118.3939935">
  <ele>-0.101</ele>
  <time>2026-09-02T22:07:32Z</time>
  <course>186.35</course>
  <speed>0.7283543093852057</speed>
  <fix>3d</fix>
</trkpt>
<trkpt lat="33.8102017" lon="-118.3939926">
  <ele>-0.1</ele>
  <time>2026-09-02T22:07:32Z</time>
  <course>223.26</course>
  <speed>0.73</speed>
  <fix>3d</fix>
</trkpt>
<trkpt lat="33.8102012" lon="-118.3939935">
  <ele>-0.101</ele>
  <time>2026-09-02T22:07:32Z</time>
  <course>186.35</course>
  <speed>0.7283543093852057</speed>
  <fix>3d</fix>
</trkpt>
<trkpt lat="33.8102012" lon="-118.3939936">
  <ele>-0.101</ele>
  <time>2026-09-02T22:07:32Z</time>
  <course>186.35</course>
  <speed>0.7283543093852057</speed>
  <fix>3d</fix>
</trkpt>
<trkpt lat="33.8102011" lon="-118.3939937">
  <ele>-0.101</ele>
  <time>2026-09-02T22:07:32Z</time>
  <course>186.35</course>
  <speed>0.7283543093852057</speed>
  <fix>3d</fix>
</trkpt>
<trkpt lat="33.8102011" lon="-118.3939937">
  <ele>-0.101</ele>
  <time>2026-09-02T22:07:32Z</time>
  <course>186.35</course>
  <speed>0.7283543093852057</speed>
  <fix>3d</fix>
</trkpt>
<trkpt lat="33.810201" lon="-118.3939938">
  <ele>-0.1</ele>
  <time>2026-09-02T22:07:32Z</time>
  <course>186.35</course>
  <speed>0.7283543093852057</speed>
  <fix>3d</fix>
</trkpt>
<trkpt lat="33.810201" lon="-118.3939938">
  <ele>-0.1</ele>
  <time>2026-09-02T22:07:32Z</time>
  <course>186.35</course>
  <speed>0.7283543093852057</speed>
  <fix>3d</fix>
</trkpt>
<trkpt lat="33.8102009" lon="-118.3939938">
  <ele>-0.1</ele>
  <time>2026-09-02T22:07:32Z</time>
  <course>186.35</course>
  <speed>0.7283543093852057</speed>
  <fix>3d</fix>
</trkpt>
<trkpt lat="33.8102009" lon="-118.3939939">
  <ele>-0.1</ele>
  <time>2026-09-02T22:07:32Z</time>
  <course>186.35</course>
  <speed>0.7283543093852057</speed>
  <fix>3d</fix>
</trkpt>
<trkpt lat="33.8102009" lon="-118.3939939">
  <ele>-0.1</ele>
  <time>2026-09-02T22:07:32Z</time>
  <course>186.35</course>
  <speed>0.7283543093852057</speed>
  <fix>3d</fix>
</trkpt>
<trkpt lat="33.8102008" lon="-118.393994">
  <ele>-0.1</ele>
  <time>2026-09-02T22:07:32Z</time>
  <course>186.35</course>
  <speed>0.7283543093852057</speed>
  <fix>3d</fix>
</trkpt>
<trkpt lat="33.8102008" lon="-118.393994">
  <ele>-0.1</ele>
  <time>2026-09-02T22:07:32Z</time>
  <course>186.35</course>
  <speed>0.7283543093852057</speed>
  <fix>3d</fix>
</trkpt>
<trkpt lat="33.8102017" lon="-118.3939926">
  <ele>-0.1</ele>
  <time>2026-09-02T22:07:32Z</time>
  <course>223.26</course>
  <speed>0.73</speed>
  <fix>3d</fix>
</trkpt>
<trkpt lat="33.8102008" lon="-118.393994">
  <ele>-0.1</ele>
  <time>2026-09-02T22:07:32Z</time>
  <course>186.35</course>
  <speed>0.7283543093852057</speed>
  <fix>3d</fix>
</trkpt>
<trkpt lat="33.8102007" lon="-118.3939941">
  <ele>-0.1</ele>
  <time>2026-09-02T22:07:32Z</time>
  <course>186.35</course>
  <speed>0.7283543093852057</speed>
  <fix>3d</fix>
</trkpt>
<trkpt lat="33.8102007" lon="-118.3939942">
  <ele>-0.1</ele>
  <time>2026-09-02T22:07:32Z</time>
  <course>186.35</course>
  <speed>0.7283543093852057</speed>
  <fix>3d</fix>
</trkpt>
<trkpt lat="33.8102006" lon="-118.3939942">
  <ele>-0.1</ele>
  <time>2026-09-02T22:07:32Z</time>
  <course>186.35</course>
  <speed>0.7283543093852057</speed>
  <fix>3d</fix>
</trkpt>
<trkpt lat="33.8102006" lon="-118.3939942">
  <ele>-0.1</ele>
  <time>2026-09-02T22:07:32Z</time>
  <course>186.35</course>
  <speed>0.7283543093852057</speed>
  <fix>3d</fix>
</trkpt>
<trkpt lat="33.8102006" lon="-118.3939943">
  <ele>-0.1</ele>
  <time>2026-09-02T22:07:32Z</time>
  <course>186.35</course>
  <speed>0.7283543093852057</speed>
  <fix>3d</fix>
</trkpt>
<trkpt lat="33.8102005" lon="-118.3939943">
  <ele>-0.1</ele>
  <time>2026-09-02T22:07:32Z</time>
  <course>186.35</course>
  <speed>0.7283543093852057</speed>
  <fix>3d</fix>
</trkpt>
<trkpt lat="33.8102005" lon="-118.3939944">
  <ele>-0.1</ele>
  <time>2026-09-02T22:07:32Z</time>
  <course>186.35</course>
  <speed>0.7283543093852057</speed>
  <fix>3d</fix>
</trkpt>
<trkpt lat="33.8102005" lon="-118.3939944">
  <ele>-0.1</ele>
  <time>2026-09-02T22:07:32Z</time>
  <course>186.35</course>
  <speed>0.7283543093852057</speed>
  <fix>3d</fix>
</trkpt>
<trkpt lat="33.8102004" lon="-118.3939944">
  <ele>-0.1</ele>
  <time>2026-09-02T22:07:32Z</time>
  <course>186.35</course>
  <speed>0.7283543093852057</speed>
  <fix>3d</fix>
</trkpt>
<trkpt lat="33.8102004" lon="-118.3939945">
  <ele>-0.1</ele>
  <time>2026-09-02T22:07:32Z</time>
  <course>186.35</course>
  <speed>0.7283543093852057</speed>
  <fix>3d</fix>
</trkpt>
<trkpt lat="33.8102003" lon="-118.3939945">
  <ele>-0.1</ele>
  <time>2026-09-02T22:07:32Z</time>
  <course>186.35</course>
  <speed>0.7283543093852057</speed>
  <fix>3d</fix>
</trkpt>
<trkpt lat="33.8102003" lon="-118.3939946">
  <ele>-0.1</ele>
  <time>2026-09-02T22:07:32Z</time>
  <course>186.35</course>
  <speed>0.7283543093852057</speed>
  <fix>3d</fix>
</trkpt>
<trkpt lat="33.8102007" lon="-118.3939937">
  <ele>-0.1</ele>
  <time>2026-09-02T22:07:32Z</time>
  <course>223.26</course>
  <speed>0.73</speed>
  <fix>3d</fix>
</trkpt>
<trkpt lat="33.8102003" lon="-118.3939946">
  <ele>-0.1</ele>
  <time>2026-09-02T22:07:32Z</time>
  <course>186.35</course>
  <speed>0.7283543093852057</speed>
  <fix>3d</fix>
</trkpt>
<trkpt lat="33.8102001" lon="-118.3939948">
  <ele>-0.1</ele>
  <time>2026-09-02T22:07:32Z</time>
  <course>186.35</course>
  <speed>0.7283543093852057</speed>
  <fix>3d</fix>
</trkpt>
<trkpt lat="33.8102" lon="-118.3939949">
  <ele>-0.1</ele>
  <time>2026-09-02T22:07:32Z</time>
  <course>186.35</course>
  <speed>0.7283543093852057</speed>
  <fix>3d</fix>
</trkpt>
<trkpt lat="33.8102" lon="-118.3939949">
  <ele>-0.101</ele>
  <time>2026-09-02T22:07:32Z</time>
  <course>186.35</course>
  <speed>0.7283543093852057</speed>
  <fix>3d</fix>
</trkpt>
<trkpt lat="33.8102" lon="-118.393995">
  <ele>-0.101</ele>
  <time>2026-09-02T22:07:32Z</time>
  <course>186.35</course>
  <speed>0.7283543093852057</speed>
  <fix>3d</fix>
</trkpt>
<trkpt lat="33.8101999" lon="-118.393995">
  <ele>-0.101</ele>
  <time>2026-09-02T22:07:32Z</time>
  <course>186.35</course>
  <speed>0.7283543093852057</speed>
  <fix>3d</fix>
</trkpt>
<trkpt lat="33.8101999" lon="-118.393995">
  <ele>-0.101</ele>
  <time>2026-09-02T22:07:32Z</time>
  <course>186.35</course>
  <speed>0.7283543093852057</speed>
  <fix>3d</fix>
</trkpt>
<trkpt lat="33.8101999" lon="-118.3939951">
  <ele>-0.101</ele>
  <time>2026-09-02T22:07:32Z</time>
  <course>186.35</course>
  <speed>0.7283543093852057</speed>
  <fix>3d</fix>
</trkpt>
<trkpt lat="33.8101998" lon="-118.3939951">
  <ele>-0.101</ele>
  <time>2026-09-02T22:07:32Z</time>
  <course>186.35</course>
  <speed>0.7283543093852057</speed>
  <fix>3d</fix>
</trkpt>
<trkpt lat="33.8102007" lon="-118.3939937">
  <ele>-0.1</ele>
  <time>2026-09-02T22:07:32Z</time>
  <course>223.26</course>
  <speed>0.73</speed>
  <fix>3d</fix>
</trkpt>
<trkpt lat="33.8101998" lon="-118.3939951">
  <ele>-0.101</ele>
  <time>2026-09-02T22:07:32Z</time>
  <course>186.35</course>
  <speed>0.7283543093852057</speed>
  <fix>3d</fix>
</trkpt>
<trkpt lat="33.8101998" lon="-118.3939952">
  <ele>-0.102</ele>
  <time>2026-09-02T22:07:32Z</time>
  <course>186.35</course>
  <speed>0.7283543093852057</speed>
  <fix>3d</fix>
</trkpt>
<trkpt lat="33.8101997" lon="-118.3939952">
  <ele>-0.102</ele>
  <time>2026-09-02T22:07:32Z</time>
  <course>186.35</course>
  <speed>0.7283543093852057</speed>
  <fix>3d</fix>
</trkpt>
<trkpt lat="33.8101997" lon="-118.3939953">
  <ele>-0.102</ele>
  <time>2026-09-02T22:07:32Z</time>
  <course>186.35</course>
  <speed>0.7283543093852057</speed>
  <fix>3d</fix>
</trkpt>
<trkpt lat="33.8101996" lon="-118.3939954">
  <ele>-0.102</ele>
  <time>2026-09-02T22:07:32Z</time>
  <course>186.35</course>
  <speed>0.7283543093852057</speed>
  <fix>3d</fix>
</trkpt>
<trkpt lat="33.8101996" lon="-118.3939954">
  <ele>-0.102</ele>
  <time>2026-09-02T22:07:32Z</time>
  <course>186.35</course>
  <speed>0.7283543093852057</speed>
  <fix>3d</fix>
</trkpt>
<trkpt lat="33.8101995" lon="-118.3939954">
  <ele>-0.102</ele>
  <time>2026-09-02T22:07:32Z</time>
  <course>186.35</course>
  <speed>0.7283543093852057</speed>
  <fix>3d</fix>
</trkpt>
<trkpt lat="33.8101995" lon="-118.3939955">
  <ele>-0.102</ele>
  <time>2026-09-02T22:07:32Z</time>
  <course>186.35</course>
  <speed>0.7283543093852057</speed>
  <fix>3d</fix>
</trkpt>
<trkpt lat="33.8101995" lon="-118.3939955">
  <ele>-0.103</ele>
  <time>2026-09-02T22:07:32Z</time>
  <course>186.35</course>
  <speed>0.7283543093852057</speed>
  <fix>3d</fix>
</trkpt>
<trkpt lat="33.8101994" lon="-118.3939956">
  <ele>-0.103</ele>
  <time>2026-09-02T22:07:32Z</time>
  <course>186.35</course>
  <speed>0.7283543093852057</speed>
  <fix>3d</fix>
</trkpt>
<trkpt lat="33.8101994" lon="-118.3939956">
  <ele>-0.103</ele>
  <time>2026-09-02T22:07:32Z</time>
  <course>186.34</course>
  <speed>0.7283543093852057</speed>
  <fix>3d</fix>
</trkpt>
<trkpt lat="33.8101994" lon="-118.3939957">
  <ele>-0.103</ele>
  <time>2026-09-02T22:07:32Z</time>
  <course>186.34</course>
  <speed>0.7283543093852057</speed>
  <fix>3d</fix>
</trkpt>
<trkpt lat="33.8101998" lon="-118.3939948">
  <ele>-0.1</ele>
  <time>2026-09-02T22:07:32Z</time>
  <course>223.26</course>
  <speed>0.73</speed>
  <fix>3d</fix>
</trkpt>
<trkpt lat="33.8101993" lon="-118.3939957">
  <ele>-0.103</ele>
  <time>2026-09-02T22:07:32Z</time>
  <course>186.34</course>
  <speed>0.7283543093852057</speed>
  <fix>3d</fix>
</trkpt>
<trkpt lat="33.8101993" lon="-118.3939957">
  <ele>-0.103</ele>
  <time>2026-09-02T22:07:32Z</time>
  <course>186.34</course>
  <speed>0.7283543093852057</speed>
  <fix>3d</fix>
</trkpt>
<trkpt lat="33.8101992" lon="-118.3939958">
  <ele>-0.103</ele>
  <time>2026-09-02T22:07:32Z</time>
  <course>186.34</course>
  <speed>0.7283543093852057</speed>
  <fix>3d</fix>
</trkpt>
<trkpt lat="33.8101992" lon="-118.3939959">
  <ele>-0.104</ele>
  <time>2026-09-02T22:07:32Z</time>
  <course>186.34</course>
  <speed>0.7283543093852057</speed>
  <fix>3d</fix>
</trkpt>
<trkpt lat="33.8101991" lon="-118.3939959">
  <ele>-0.104</ele>
  <time>2026-09-02T22:07:32Z</time>
  <course>186.34</course>
  <speed>0.7283543093852057</speed>
  <fix>3d</fix>
</trkpt>
<trkpt lat="33.8101991" lon="-118.3939959">
  <ele>-0.104</ele>
  <time>2026-09-02T22:07:32Z</time>
  <course>186.34</course>
  <speed>0.7283543093852057</speed>
  <fix>3d</fix>
</trkpt>
<trkpt lat="33.8101991" lon="-118.393996">
  <ele>-0.104</ele>
  <time>2026-09-02T22:07:32Z</time>
  <course>186.34</course>
  <speed>0.7283543093852057</speed>
  <fix>3d</fix>
</trkpt>
<trkpt lat="33.810199" lon="-118.393996">
  <ele>-0.104</ele>
  <time>2026-09-02T22:07:32Z</time>
  <course>186.34</course>
  <speed>0.7283543093852057</speed>
  <fix>3d</fix>
</trkpt>
<trkpt lat="33.810199" lon="-118.3939961">
  <ele>-0.104</ele>
  <time>2026-09-02T22:07:32Z</time>
  <course>186.34</course>
  <speed>0.7283543093852057</speed>
  <fix>3d</fix>
</trkpt>
<trkpt lat="33.810199" lon="-118.3939961">
  <ele>-0.104</ele>
  <time>2026-09-02T22:07:32Z</time>
  <course>186.34</course>
  <speed>0.7283543093852057</speed>
  <fix>3d</fix>
</trkpt>
<trkpt lat="33.8101989" lon="-118.3939962">
  <ele>-0.104</ele>
  <time>2026-09-02T22:07:32Z</time>
  <course>186.34</course>
  <speed>0.7283543093852057</speed>
  <fix>3d</fix>
</trkpt>
<trkpt lat="33.8101989" lon="-118.3939962">
  <ele>-0.104</ele>
  <time>2026-09-02T22:07:32Z</time>
  <course>186.34</course>
  <speed>0.7283543093852057</speed>
  <fix>3d</fix>
</trkpt>
<trkpt lat="33.8101989" lon="-118.3939962">
  <ele>-0.104</ele>
  <time>2026-09-02T22:07:32Z</time>
  <course>186.34</course>
  <speed>0.7283543093852057</speed>
  <fix>3d</fix>
</trkpt>
<trkpt lat="33.8101998" lon="-118.3939948">
  <ele>-0.1</ele>
  <time>2026-09-02T22:07:32Z</time>
  <course>223.26</course>
  <speed>0.73</speed>
  <fix>3d</fix>
</trkpt>
<trkpt lat="33.8101989" lon="-118.3939962">
  <ele>-0.104</ele>
  <time>2026-09-02T22:07:32Z</time>
  <course>186.34</course>
  <speed>0.7283543093852057</speed>
  <fix>3d</fix>
</trkpt>
<trkpt lat="33.8101988" lon="-118.3939963">
  <ele>-0.104</ele>
  <time>2026-09-02T22:07:32Z</time>
  <course>186.34</course>
  <speed>0.7283543093852057</speed>
  <fix>3d</fix>
</trkpt>
<trkpt lat="33.8101987" lon="-118.3939964">
  <ele>-0.104</ele>
  <time>2026-09-02T22:07:32Z</time>
  <course>186.34</course>
  <speed>0.7283543093852057</speed>
  <fix>3d</fix>
</trkpt>
<trkpt lat="33.8101987" lon="-118.3939964">
  <ele>-0.104</ele>
  <time>2026-09-02T22:07:32Z</time>
  <course>186.34</course>
  <speed>0.7283543093852057</speed>
  <fix>3d</fix>
</trkpt>
<trkpt lat="33.8101987" lon="-118.3939964">
  <ele>-0.104</ele>
  <time>2026-09-02T22:07:32Z</time>
  <course>186.34</course>
  <speed>0.7283543093852057</speed>
  <fix>3d</fix>
</trkpt>
<trkpt lat="33.8101986" lon="-118.3939965">
  <ele>-0.104</ele>
  <time>2026-09-02T22:07:32Z</time>
  <course>186.34</course>
  <speed>0.7283543093852057</speed>
  <fix>3d</fix>
</trkpt>
<trkpt lat="33.8101986" lon="-118.3939965">
  <ele>-0.104</ele>
  <time>2026-09-02T22:07:32Z</time>
  <course>186.34</course>
  <speed>0.7283543093852057</speed>
  <fix>3d</fix>
</trkpt>
<trkpt lat="33.8101986" lon="-118.3939966">
  <ele>-0.104</ele>
  <time>2026-09-02T22:07:32Z</time>
  <course>186.34</course>
  <speed>0.7283543093852057</speed>
  <fix>3d</fix>
</trkpt>
<trkpt lat="33.8101985" lon="-118.3939967">
  <ele>-0.104</ele>
  <time>2026-09-02T22:07:32Z</time>
  <course>186.34</course>
  <speed>0.7283543093852057</speed>
  <fix>3d</fix>
</trkpt>
<trkpt lat="33.8101984" lon="-118.3939967">
  <ele>-0.104</ele>
  <time>2026-09-02T22:07:32Z</time>
  <course>186.34</course>
  <speed>0.7283543093852057</speed>
  <fix>3d</fix>
</trkpt>
<trkpt lat="33.8101984" lon="-118.3939968">
  <ele>-0.104</ele>
  <time>2026-09-02T22:07:32Z</time>
  <course>186.34</course>
  <speed>0.7283543093852057</speed>
  <fix>3d</fix>
</trkpt>
<trkpt lat="33.8101988" lon="-118.3939958">
  <ele>-0.1</ele>
  <time>2026-09-02T22:07:32Z</time>
  <course>223.26</course>
  <speed>0.73</speed>
  <fix>3d</fix>
</trkpt>
<trkpt lat="33.8101984" lon="-118.3939968">
  <ele>-0.104</ele>
  <time>2026-09-02T22:07:32Z</time>
  <course>186.34</course>
  <speed>0.7283543093852057</speed>
  <fix>3d</fix>
</trkpt>
<trkpt lat="33.8101983" lon="-118.3939969">
  <ele>-0.104</ele>
  <time>2026-09-02T22:07:32Z</time>
  <course>186.34</course>
  <speed>0.7283543093852057</speed>
  <fix>3d</fix>
</trkpt>
<trkpt lat="33.8101982" lon="-118.3939969">
  <ele>-0.104</ele>
  <time>2026-09-02T22:07:32Z</time>
  <course>186.34</course>
  <speed>0.7283543093852057</speed>
  <fix>3d</fix>
</trkpt>
<trkpt lat="33.8101982" lon="-118.393997">
  <ele>-0.104</ele>
  <time>2026-09-02T22:07:32Z</time>
  <course>186.34</course>
  <speed>0.7283543093852057</speed>
  <fix>3d</fix>
</trkpt>
<trkpt lat="33.8101981" lon="-118.393997">
  <ele>-0.104</ele>
  <time>2026-09-02T22:07:32Z</time>
  <course>186.34</course>
  <speed>0.7283543093852057</speed>
  <fix>3d</fix>
</trkpt>
<trkpt lat="33.8101981" lon="-118.3939971">
  <ele>-0.104</ele>
  <time>2026-09-02T22:07:32Z</time>
  <course>186.34</course>
  <speed>0.7283543093852057</speed>
  <fix>3d</fix>
</trkpt>
<trkpt lat="33.8101981" lon="-118.3939971">
  <ele>-0.104</ele>
  <time>2026-09-02T22:07:32Z</time>
  <course>186.34</course>
  <speed>0.7283543093852057</speed>
  <fix>3d</fix>
</trkpt>
<trkpt lat="33.810198" lon="-118.3939972">
  <ele>-0.104</ele>
  <time>2026-09-02T22:07:32Z</time>
  <course>186.34</course>
  <speed>0.7283543093852057</speed>
  <fix>3d</fix>
</trkpt>
<trkpt lat="33.810198" lon="-118.3939972">
  <ele>-0.104</ele>
  <time>2026-09-02T22:07:32Z</time>
  <course>186.34</course>
  <speed>0.7283543093852057</speed>
  <fix>3d</fix>
</trkpt>
<trkpt lat="33.810198" lon="-118.3939972">
  <ele>-0.104</ele>
  <time>2026-09-02T22:07:32Z</time>
  <course>186.34</course>
  <speed>0.7283543093852057</speed>
  <fix>3d</fix>
</trkpt>
<trkpt lat="33.8101979" lon="-118.3939973">
  <ele>-0.104</ele>
  <time>2026-09-02T22:07:32Z</time>
  <course>186.34</course>
  <speed>0.7283543093852057</speed>
  <fix>3d</fix>
</trkpt>
<trkpt lat="33.8101979" lon="-118.3939973">
  <ele>-0.104</ele>
  <time>2026-09-02T22:07:32Z</time>
  <course>186.34</course>
  <speed>0.7283543093852057</speed>
  <fix>3d</fix>
</trkpt>
<trkpt lat="33.8101988" lon="-118.3939958">
  <ele>-0.1</ele>
  <time>2026-09-02T22:07:32Z</time>
  <course>223.26</course>
  <speed>0.73</speed>
  <fix>3d</fix>
</trkpt>
<trkpt lat="33.8101979" lon="-118.3939973">
  <ele>-0.104</ele>
  <time>2026-09-02T22:07:32Z</time>
  <course>186.34</course>
  <speed>0.7283543093852057</speed>
  <fix>3d</fix>
</trkpt>
<trkpt lat="33.8101978" lon="-118.3939974">
  <ele>-0.104</ele>
  <time>2026-09-02T22:07:32Z</time>
  <course>186.34</course>
  <speed>0.7283543093852057</speed>
  <fix>3d</fix>
</trkpt>
<trkpt lat="33.8101978" lon="-118.3939974">
  <ele>-0.104</ele>
  <time>2026-09-02T22:07:32Z</time>
  <course>186.34</course>
  <speed>0.7283543093852057</speed>
  <fix>3d</fix>
</trkpt>
<trkpt lat="33.8101978" lon="-118.3939975">
  <ele>-0.104</ele>
  <time>2026-09-02T22:07:32Z</time>
  <course>186.34</course>
  <speed>0.7283543093852057</speed>
  <fix>3d</fix>
</trkpt>
<trkpt lat="33.8101977" lon="-118.3939975">
  <ele>-0.104</ele>
  <time>2026-09-02T22:07:32Z</time>
  <course>186.34</course>
  <speed>0.7283543093852057</speed>
  <fix>3d</fix>
</trkpt>
<trkpt lat="33.8101977" lon="-118.3939976">
  <ele>-0.104</ele>
  <time>2026-09-02T22:07:32Z</time>
  <course>186.34</course>
  <speed>0.7283543093852057</speed>
  <fix>3d</fix>
</trkpt>
<trkpt lat="33.8101976" lon="-118.3939976">
  <ele>-0.104</ele>
  <time>2026-09-02T22:07:32Z</time>
  <course>186.34</course>
  <speed>0.7283543093852057</speed>
  <fix>3d</fix>
</trkpt>
<trkpt lat="33.8101976" lon="-118.3939976">
  <ele>-0.104</ele>
  <time>2026-09-02T22:07:32Z</time>
  <course>186.34</course>
  <speed>0.7283543093852057</speed>
  <fix>3d</fix>
</trkpt>
<trkpt lat="33.8101976" lon="-118.3939977">
  <ele>-0.104</ele>
  <time>2026-09-02T22:07:32Z</time>
  <course>186.34</course>
  <speed>0.7283543093852057</speed>
  <fix>3d</fix>
</trkpt>
<trkpt lat="33.8101975" lon="-118.3939977">
  <ele>-0.104</ele>
  <time>2026-09-02T22:07:32Z</time>
  <course>186.34</course>
  <speed>0.7283543093852057</speed>
  <fix>3d</fix>
</trkpt>
<trkpt lat="33.8101975" lon="-118.3939978">
  <ele>-0.104</ele>
  <time>2026-09-02T22:07:32Z</time>
  <course>186.34</course>
  <speed>0.7283543093852057</speed>
  <fix>3d</fix>
</trkpt>
<trkpt lat="33.8101975" lon="-118.3939978">
  <ele>-0.104</ele>
  <time>2026-09-02T22:07:32Z</time>
  <course>186.34</course>
  <speed>0.7283543093852057</speed>
  <fix>3d</fix>
</trkpt>
<trkpt lat="33.8101974" lon="-118.3939978">
  <ele>-0.104</ele>
  <time>2026-09-02T22:07:32Z</time>
  <course>186.34</course>
  <speed>0.7283543093852057</speed>
  <fix>3d</fix>
</trkpt>
<trkpt lat="33.8101974" lon="-118.3939978">
  <ele>-0.104</ele>
  <time>2026-09-02T22:07:32Z</time>
  <course>186.34</course>
  <speed>0.7283543093852057</speed>
  <fix>3d</fix>
</trkpt>
<trkpt lat="33.8101979" lon="-118.3939969">
  <ele>-0.11</ele>
  <time>2026-09-02T22:07:32Z</time>
  <course>223.26</course>
  <speed>0.73</speed>
  <fix>3d</fix>
</trkpt>
<trkpt lat="33.8101974" lon="-118.3939979">
  <ele>-0.104</ele>
  <time>2026-09-02T22:07:32Z</time>
  <course>186.34</course>
  <speed>0.7283543093852057</speed>
  <fix>3d</fix>
</trkpt>
<trkpt lat="33.8101973" lon="-118.393998">
  <ele>-0.104</ele>
  <time>2026-09-02T22:07:32Z</time>
  <course>186.34</course>
  <speed>0.7283543093852057</speed>
  <fix>3d</fix>
</trkpt>
<trkpt lat="33.8101973" lon="-118.393998">
  <ele>-0.104</ele>
  <time>2026-09-02T22:07:32Z</time>
  <course>186.34</course>
  <speed>0.7283543093852057</speed>
  <fix>3d</fix>
</trkpt>
<trkpt lat="33.8101972" lon="-118.3939981">
  <ele>-0.104</ele>
  <time>2026-09-02T22:07:32Z</time>
  <course>186.34</course>
  <speed>0.7283543093852057</speed>
  <fix>3d</fix>
</trkpt>
<trkpt lat="33.8101972" lon="-118.3939981">
  <ele>-0.104</ele>
  <time>2026-09-02T22:07:32Z</time>
  <course>186.34</course>
  <speed>0.7283543093852057</speed>
  <fix>3d</fix>
</trkpt>
<trkpt lat="33.8101972" lon="-118.3939981">
  <ele>-0.103</ele>
  <time>2026-09-02T22:07:32Z</time>
  <course>186.34</course>
  <speed>0.7283543093852057</speed>
  <fix>3d</fix>
</trkpt>
<trkpt lat="33.8101971" lon="-118.3939982">
  <ele>-0.104</ele>
  <time>2026-09-02T22:07:32Z</time>
  <course>186.34</course>
  <speed>0.7283543093852057</speed>
  <fix>3d</fix>
</trkpt>
<trkpt lat="33.810197" lon="-118.3939983">
  <ele>-0.104</ele>
  <time>2026-09-02T22:07:32Z</time>
  <course>186.34</course>
  <speed>0.7283543093852057</speed>
  <fix>3d</fix>
</trkpt>
<trkpt lat="33.810197" lon="-118.3939983">
  <ele>-0.104</ele>
  <time>2026-09-02T22:07:32Z</time>
  <course>186.34</course>
  <speed>0.7283543093852057</speed>
  <fix>3d</fix>
</trkpt>
<trkpt lat="33.8101969" lon="-118.3939984">
  <ele>-0.104</ele>
  <time>2026-09-02T22:07:32Z</time>
  <course>186.34</course>
  <speed>0.7283543093852057</speed>
  <fix>3d</fix>
</trkpt>
<trkpt lat="33.8101979" lon="-118.3939969">
  <ele>-0.11</ele>
  <time>2026-09-02T22:07:32Z</time>
  <course>223.26</course>
  <speed>0.73</speed>
  <fix>3d</fix>
</trkpt>
<trkpt lat="33.8101969" lon="-118.3939984">
  <ele>-0.104</ele>
  <time>2026-09-02T22:07:32Z</time>
  <course>186.34</course>
  <speed>0.7283543093852057</speed>
  <fix>3d</fix>
</trkpt>
<trkpt lat="33.8101969" lon="-118.3939985">
  <ele>-0.104</ele>
  <time>2026-09-02T22:07:32Z</time>
  <course>186.34</course>
  <speed>0.7283543093852057</speed>
  <fix>3d</fix>
</trkpt>
<trkpt lat="33.8101968" lon="-118.3939985">
  <ele>-0.104</ele>
  <time>2026-09-02T22:07:32Z</time>
  <course>186.34</course>
  <speed>0.7283543093852057</speed>
  <fix>3d</fix>
</trkpt>
<trkpt lat="33.8101968" lon="-118.3939986">
  <ele>-0.104</ele>
  <time>2026-09-02T22:07:32Z</time>
  <course>186.34</course>
  <speed>0.7283543093852057</speed>
  <fix>3d</fix>
</trkpt>
<trkpt lat="33.8101967" lon="-118.3939986">
  <ele>-0.104</ele>
  <time>2026-09-02T22:07:32Z</time>
  <course>186.34</course>
  <speed>0.7283543093852057</speed>
  <fix>3d</fix>
</trkpt>
<trkpt lat="33.8101967" lon="-118.3939987">
  <ele>-0.104</ele>
  <time>2026-09-02T22:07:32Z</time>
  <course>186.34</course>
  <speed>0.7283543093852057</speed>
  <fix>3d</fix>
</trkpt>
<trkpt lat="33.8101967" lon="-118.3939987">
  <ele>-0.104</ele>
  <time>2026-09-02T22:07:32Z</time>
  <course>186.34</course>
  <speed>0.7283543093852057</speed>
  <fix>3d</fix>
</trkpt>
<trkpt lat="33.8101966" lon="-118.3939988">
  <ele>-0.104</ele>
  <time>2026-09-02T22:07:32Z</time>
  <course>186.34</course>
  <speed>0.7283543093852057</speed>
  <fix>3d</fix>
</trkpt>
<trkpt lat="33.8101966" lon="-118.3939988">
  <ele>-0.104</ele>
  <time>2026-09-02T22:07:32Z</time>
  <course>186.34</course>
  <speed>0.7283543093852057</speed>
  <fix>3d</fix>
</trkpt>
<trkpt lat="33.8101965" lon="-118.3939988">
  <ele>-0.104</ele>
  <time>2026-09-02T22:07:32Z</time>
  <course>186.34</course>
  <speed>0.7283543093852057</speed>
  <fix>3d</fix>
</trkpt>
<trkpt lat="33.8101965" lon="-118.3939989">
  <ele>-0.104</ele>
  <time>2026-09-02T22:07:32Z</time>
  <course>186.34</course>
  <speed>0.7283543093852057</speed>
  <fix>3d</fix>
</trkpt>
<trkpt lat="33.8101965" lon="-118.3939989">
  <ele>-0.104</ele>
  <time>2026-09-02T22:07:32Z</time>
  <course>186.34</course>
  <speed>0.7283543093852057</speed>
  <fix>3d</fix>
</trkpt>
<trkpt lat="33.8101965" lon="-118.3939989">
  <ele>-0.104</ele>
  <time>2026-09-02T22:07:32Z</time>
  <course>186.34</course>
  <speed>0.7283543093852057</speed>
  <fix>3d</fix>
</trkpt>
<trkpt lat="33.8101968" lon="-118.393998">
  <ele>-0.1</ele>
  <time>2026-09-02T22:07:32Z</time>
  <course>223.26</course>
  <speed>0.73</speed>
  <fix>3d</fix>
</trkpt>
<trkpt lat="33.8101965" lon="-118.3939989">
  <ele>-0.104</ele>
  <time>2026-09-02T22:07:32Z</time>
  <course>186.34</course>
  <speed>0.7283543093852057</speed>
  <fix>3d</fix>
</trkpt>
<trkpt lat="33.8101963" lon="-118.3939991">
  <ele>-0.104</ele>
  <time>2026-09-02T22:07:32Z</time>
  <course>186.34</course>
  <speed>0.7283543093852057</speed>
  <fix>3d</fix>
</trkpt>
<trkpt lat="33.8101962" lon="-118.3939992">
  <ele>-0.104</ele>
  <time>2026-09-02T22:07:32Z</time>
  <course>186.34</course>
  <speed>0.7283543093852057</speed>
  <fix>3d</fix>
</trkpt>
<trkpt lat="33.8101962" lon="-118.3939992">
  <ele>-0.104</ele>
  <time>2026-09-02T22:07:32Z</time>
  <course>186.34</course>
  <speed>0.7283543093852057</speed>
  <fix>3d</fix>
</trkpt>
<trkpt lat="33.8101961" lon="-118.3939993">
  <ele>-0.104</ele>
  <time>2026-09-02T22:07:32Z</time>
  <course>186.34</course>
  <speed>0.7283543093852057</speed>
  <fix>3d</fix>
</trkpt>
<trkpt lat="33.8101961" lon="-118.3939994">
  <ele>-0.104</ele>
  <time>2026-09-02T22:07:32Z</time>
  <course>186.34</course>
  <speed>0.7283543093852057</speed>
  <fix>3d</fix>
</trkpt>
<trkpt lat="33.8101961" lon="-118.3939994">
  <ele>-0.104</ele>
  <time>2026-09-02T22:07:32Z</time>
  <course>186.34</course>
  <speed>0.7283543093852057</speed>
  <fix>3d</fix>
</trkpt>
<trkpt lat="33.810196" lon="-118.3939994">
  <ele>-0.103</ele>
  <time>2026-09-02T22:07:32Z</time>
  <course>186.34</course>
  <speed>0.7283543093852057</speed>
  <fix>3d</fix>
</trkpt>
<trkpt lat="33.810196" lon="-118.3939995">
  <ele>-0.103</ele>
  <time>2026-09-02T22:07:32Z</time>
  <course>186.34</course>
  <speed>0.7283543093852057</speed>
  <fix>3d</fix>
</trkpt>
<trkpt lat="33.8101968" lon="-118.393998">
  <ele>-0.1</ele>
  <time>2026-09-02T22:07:32Z</time>
  <course>223.26</course>
  <speed>0.73</speed>
  <fix>3d</fix>
</trkpt>
<trkpt lat="33.810196" lon="-118.3939995">
  <ele>-0.103</ele>
  <time>2026-09-02T22:07:32Z</time>
  <course>186.34</course>
  <speed>0.7283543093852057</speed>
  <fix>3d</fix>
</trkpt>
<trkpt lat="33.8101959" lon="-118.3939996">
  <ele>-0.103</ele>
  <time>2026-09-02T22:07:32Z</time>
  <course>186.34</course>
  <speed>0.7283543093852057</speed>
  <fix>3d</fix>
</trkpt>
<trkpt lat="33.8101959" lon="-118.3939996">
  <ele>-0.103</ele>
  <time>2026-09-02T22:07:32Z</time>
  <course>186.34</course>
  <speed>0.7283543093852057</speed>
  <fix>3d</fix>
</trkpt>
<trkpt lat="33.8101958" lon="-118.3939996">
  <ele>-0.103</ele>
  <time>2026-09-02T22:07:32Z</time>
  <course>186.34</course>
  <speed>0.7283543093852057</speed>
  <fix>3d</fix>
</trkpt>
<trkpt lat="33.8101958" lon="-118.3939997">
  <ele>-0.103</ele>
  <time>2026-09-02T22:07:32Z</time>
  <course>186.34</course>
  <speed>0.7283543093852057</speed>
  <fix>3d</fix>
</trkpt>
<trkpt lat="33.8101958" lon="-118.3939997">
  <ele>-0.103</ele>
  <time>2026-09-02T22:07:32Z</time>
  <course>186.34</course>
  <speed>0.7283543093852057</speed>
  <fix>3d</fix>
</trkpt>
<trkpt lat="33.8101957" lon="-118.3939998">
  <ele>-0.103</ele>
  <time>2026-09-02T22:07:32Z</time>
  <course>186.34</course>
  <speed>0.7283543093852057</speed>
  <fix>3d</fix>
</trkpt>
<trkpt lat="33.8101957" lon="-118.3939998">
  <ele>-0.103</ele>
  <time>2026-09-02T22:07:32Z</time>
  <course>186.34</course>
  <speed>0.7283543093852057</speed>
  <fix>3d</fix>
</trkpt>
<trkpt lat="33.8101956" lon="-118.3939999">
  <ele>-0.103</ele>
  <time>2026-09-02T22:07:32Z</time>
  <course>186.34</course>
  <speed>0.7283543093852057</speed>
  <fix>3d</fix>
</trkpt>
<trkpt lat="33.8101956" lon="-118.3939999">
  <ele>-0.103</ele>
  <time>2026-09-02T22:07:32Z</time>
  <course>186.34</course>
  <speed>0.7283543093852057</speed>
  <fix>3d</fix>
</trkpt>
<trkpt lat="33.8101955" lon="-118.394">
  <ele>-0.103</ele>
  <time>2026-09-02T22:07:32Z</time>
  <course>186.34</course>
  <speed>0.7283543093852057</speed>
  <fix>3d</fix>
</trkpt>
<trkpt lat="33.8101955" lon="-118.394">
  <ele>-0.103</ele>
  <time>2026-09-02T22:07:32Z</time>
  <course>186.34</course>
  <speed>0.7283543093852057</speed>
  <fix>3d</fix>
</trkpt>
<trkpt lat="33.8101955" lon="-118.394">
  <ele>-0.103</ele>
  <time>2026-09-02T22:07:32Z</time>
  <course>186.34</course>
  <speed>0.7283543093852057</speed>
  <fix>3d</fix>
</trkpt>
<trkpt lat="33.8101959" lon="-118.3939991">
  <ele>-0.1</ele>
  <time>2026-09-02T22:07:32Z</time>
  <course>223.26</course>
  <speed>0.73</speed>
  <fix>3d</fix>
</trkpt>
<trkpt lat="33.8101954" lon="-118.3940001">
  <ele>-0.103</ele>
  <time>2026-09-02T22:07:32Z</time>
  <course>186.34</course>
  <speed>0.7283543093852057</speed>
  <fix>3d</fix>
</trkpt>
<trkpt lat="33.8101953" lon="-118.3940002">
  <ele>-0.103</ele>
  <time>2026-09-02T22:07:32Z</time>
  <course>186.34</course>
  <speed>0.7283543093852057</speed>
  <fix>3d</fix>
</trkpt>
<trkpt lat="33.8101953" lon="-118.3940002">
  <ele>-0.103</ele>
  <time>2026-09-02T22:07:32Z</time>
  <course>186.34</course>
  <speed>0.7283543093852057</speed>
  <fix>3d</fix>
</trkpt>
<trkpt lat="33.8101953" lon="-118.3940003">
  <ele>-0.104</ele>
  <time>2026-09-02T22:07:32Z</time>
  <course>186.34</course>
  <speed>0.7283543093852057</speed>
  <fix>3d</fix>
</trkpt>
<trkpt lat="33.8101952" lon="-118.3940003">
  <ele>-0.104</ele>
  <time>2026-09-02T22:07:32Z</time>
  <course>186.34</course>
  <speed>0.7283543093852057</speed>
  <fix>3d</fix>
</trkpt>
<trkpt lat="33.8101952" lon="-118.3940004">
  <ele>-0.104</ele>
  <time>2026-09-02T22:07:32Z</time>
  <course>186.34</course>
  <speed>0.7283543093852057</speed>
  <fix>3d</fix>
</trkpt>
<trkpt lat="33.8101951" lon="-118.3940004">
  <ele>-0.104</ele>
  <time>2026-09-02T22:07:32Z</time>
  <course>186.33</course>
  <speed>0.7283543093852057</speed>
  <fix>3d</fix>
</trkpt>
<trkpt lat="33.8101951" lon="-118.3940005">
  <ele>-0.104</ele>
  <time>2026-09-02T22:07:32Z</time>
  <course>186.33</course>
  <speed>0.7283543093852057</speed>
  <fix>3d</fix>
</trkpt>
<trkpt lat="33.8101951" lon="-118.3940005">
  <ele>-0.104</ele>
  <time>2026-09-02T22:07:32Z</time>
  <course>186.33</course>
  <speed>0.7283543093852057</speed>
  <fix>3d</fix>
</trkpt>
<trkpt lat="33.810195" lon="-118.3940006">
  <ele>-0.104</ele>
  <time>2026-09-02T22:07:32Z</time>
  <course>186.33</course>
  <speed>0.7283543093852057</speed>
  <fix>3d</fix>
</trkpt>
<trkpt lat="33.810195" lon="-118.3940006">
  <ele>-0.104</ele>
  <time>2026-09-02T22:07:32Z</time>
  <course>186.33</course>
  <speed>0.7283543093852057</speed>
  <fix>3d</fix>
</trkpt>
<trkpt lat="33.8101959" lon="-118.3939991">
  <ele>-0.1</ele>
  <time>2026-09-02T22:07:32Z</time>
  <course>223.26</course>
  <speed>0.73</speed>
  <fix>3d</fix>
</trkpt>
<trkpt lat="33.8101949" lon="-118.3940006">
  <ele>-0.104</ele>
  <time>2026-09-02T22:07:32Z</time>
  <course>186.33</course>
  <speed>0.7283543093852057</speed>
  <fix>3d</fix>
</trkpt>
<trkpt lat="33.8101949" lon="-118.3940007">
  <ele>-0.104</ele>
  <time>2026-09-02T22:07:32Z</time>
  <course>186.33</course>
  <speed>0.7283543093852057</speed>
  <fix>3d</fix>
</trkpt>
<trkpt lat="33.8101948" lon="-118.3940008">
  <ele>-0.105</ele>
  <time>2026-09-02T22:07:32Z</time>
  <course>186.33</course>
  <speed>0.7283543093852057</speed>
  <fix>3d</fix>
</trkpt>
<trkpt lat="33.8101948" lon="-118.3940008">
  <ele>-0.105</ele>
  <time>2026-09-02T22:07:32Z</time>
  <course>186.33</course>
  <speed>0.7283543093852057</speed>
  <fix>3d</fix>
</trkpt>
<trkpt lat="33.8101948" lon="-118.3940008">
  <ele>-0.105</ele>
  <time>2026-09-02T22:07:32Z</time>
  <course>186.33</course>
  <speed>0.7283543093852057</speed>
  <fix>3d</fix>
</trkpt>
<trkpt lat="33.8101947" lon="-118.3940009">
  <ele>-0.105</ele>
  <time>2026-09-02T22:07:32Z</time>
  <course>186.33</course>
  <speed>0.7283543093852057</speed>
  <fix>3d</fix>
</trkpt>
<trkpt lat="33.8101947" lon="-118.3940009">
  <ele>-0.105</ele>
  <time>2026-09-02T22:07:32Z</time>
  <course>186.33</course>
  <speed>0.7283543093852057</speed>
  <fix>3d</fix>
</trkpt>
<trkpt lat="33.8101947" lon="-118.394001">
  <ele>-0.105</ele>
  <time>2026-09-02T22:07:32Z</time>
  <course>186.33</course>
  <speed>0.7283543093852057</speed>
  <fix>3d</fix>
</trkpt>
<trkpt lat="33.8101946" lon="-118.394001">
  <ele>-0.105</ele>
  <time>2026-09-02T22:07:32Z</time>
  <course>186.33</course>
  <speed>0.7283543093852057</speed>
  <fix>3d</fix>
</trkpt>
<trkpt lat="33.8101946" lon="-118.394001">
  <ele>-0.106</ele>
  <time>2026-09-02T22:07:32Z</time>
  <course>186.33</course>
  <speed>0.7283543093852057</speed>
  <fix>3d</fix>
</trkpt>
<trkpt lat="33.8101946" lon="-118.3940011">
  <ele>-0.106</ele>
  <time>2026-09-02T22:07:32Z</time>
  <course>186.33</course>
  <speed>0.7283543093852057</speed>
  <fix>3d</fix>
</trkpt>
<trkpt lat="33.8101945" lon="-118.3940011">
  <ele>-0.106</ele>
  <time>2026-09-02T22:07:32Z</time>
  <course>186.33</course>
  <speed>0.7283543093852057</speed>
  <fix>3d</fix>
</trkpt>
<trkpt lat="33.810195" lon="-118.3940002">
  <ele>-0.1</ele>
  <time>2026-09-02T22:07:32Z</time>
  <course>223.26</course>
  <speed>0.73</speed>
  <fix>3d</fix>
</trkpt>
<trkpt lat="33.8101945" lon="-118.3940011">
  <ele>-0.106</ele>
  <time>2026-09-02T22:07:32Z</time>
  <course>186.33</course>
  <speed>0.7283543093852057</speed>
  <fix>3d</fix>
</trkpt>
<trkpt lat="33.8101945" lon="-118.3940012">
  <ele>-0.106</ele>
  <time>2026-09-02T22:07:32Z</time>
  <course>186.33</course>
  <speed>0.7283543093852057</speed>
  <fix>3d</fix>
</trkpt>
<trkpt lat="33.8101944" lon="-118.3940012">
  <ele>-0.106</ele>
  <time>2026-09-02T22:07:32Z</time>
  <course>186.33</course>
  <speed>0.7283543093852057</speed>
  <fix>3d</fix>
</trkpt>
<trkpt lat="33.8101944" lon="-118.3940012">
  <ele>-0.106</ele>
  <time>2026-09-02T22:07:32Z</time>
  <course>186.33</course>
  <speed>0.7283543093852057</speed>
  <fix>3d</fix>
</trkpt>
<trkpt lat="33.8101944" lon="-118.3940013">
  <ele>-0.107</ele>
  <time>2026-09-02T22:07:32Z</time>
  <course>186.33</course>
  <speed>0.7283543093852057</speed>
  <fix>3d</fix>
</trkpt>
<trkpt lat="33.8101943" lon="-118.3940013">
  <ele>-0.107</ele>
  <time>2026-09-02T22:07:32Z</time>
  <course>186.33</course>
  <speed>0.7283543093852057</speed>
  <fix>3d</fix>
</trkpt>
<trkpt lat="33.8101943" lon="-118.3940014">
  <ele>-0.107</ele>
  <time>2026-09-02T22:07:32Z</time>
  <course>186.33</course>
  <speed>0.7283543093852057</speed>
  <fix>3d</fix>
</trkpt>
<trkpt lat="33.8101943" lon="-118.3940014">
  <ele>-0.107</ele>
  <time>2026-09-02T22:07:32Z</time>
  <course>186.33</course>
  <speed>0.7283543093852057</speed>
  <fix>3d</fix>
</trkpt>
<trkpt lat="33.8101942" lon="-118.3940014">
  <ele>-0.107</ele>
  <time>2026-09-02T22:07:32Z</time>
  <course>186.33</course>
  <speed>0.7283543093852057</speed>
  <fix>3d</fix>
</trkpt>
<trkpt lat="33.8101942" lon="-118.3940015">
  <ele>-0.108</ele>
  <time>2026-09-02T22:07:32Z</time>
  <course>186.33</course>
  <speed>0.7283543093852057</speed>
  <fix>3d</fix>
</trkpt>
<trkpt lat="33.8101942" lon="-118.3940015">
  <ele>-0.108</ele>
  <time>2026-09-02T22:07:32Z</time>
  <course>186.33</course>
  <speed>0.7283543093852057</speed>
  <fix>3d</fix>
</trkpt>
<trkpt lat="33.8101941" lon="-118.3940016">
  <ele>-0.108</ele>
  <time>2026-09-02T22:07:32Z</time>
  <course>186.33</course>
  <speed>0.7283543093852057</speed>
  <fix>3d</fix>
</trkpt>
<trkpt lat="33.8101941" lon="-118.3940016">
  <ele>-0.108</ele>
  <time>2026-09-02T22:07:32Z</time>
  <course>186.33</course>
  <speed>0.7283543093852057</speed>
  <fix>3d</fix>
</trkpt>
<trkpt lat="33.810194" lon="-118.3940017">
  <ele>-0.108</ele>
  <time>2026-09-02T22:07:32Z</time>
  <course>186.33</course>
  <speed>0.7283543093852057</speed>
  <fix>3d</fix>
</trkpt>
<trkpt lat="33.810194" lon="-118.3940017">
  <ele>-0.108</ele>
  <time>2026-09-02T22:07:32Z</time>
  <course>186.33</course>
  <speed>0.7283543093852057</speed>
  <fix>3d</fix>
</trkpt>
<trkpt lat="33.810195" lon="-118.3940002">
  <ele>-0.1</ele>
  <time>2026-09-02T22:07:32Z</time>
  <course>223.26</course>
  <speed>0.73</speed>
  <fix>3d</fix>
</trkpt>
<trkpt lat="33.810194" lon="-118.3940017">
  <ele>-0.108</ele>
  <time>2026-09-02T22:07:32Z</time>
  <course>186.33</course>
  <speed>0.7283543093852057</speed>
  <fix>3d</fix>
</trkpt>
<trkpt lat="33.810194" lon="-118.3940017">
  <ele>-0.109</ele>
  <time>2026-09-02T22:07:32Z</time>
  <course>186.33</course>
  <speed>0.7283543093852057</speed>
  <fix>3d</fix>
</trkpt>
<trkpt lat="33.810194" lon="-118.3940018">
  <ele>-0.109</ele>
  <time>2026-09-02T22:07:32Z</time>
  <course>186.33</course>
  <speed>0.7283543093852057</speed>
  <fix>3d</fix>
</trkpt>
<trkpt lat="33.8101939" lon="-118.3940018">
  <ele>-0.109</ele>
  <time>2026-09-02T22:07:32Z</time>
  <course>186.33</course>
  <speed>0.7283543093852057</speed>
  <fix>3d</fix>
</trkpt>
<trkpt lat="33.8101939" lon="-118.3940018">
  <ele>-0.109</ele>
  <time>2026-09-02T22:07:32Z</time>
  <course>186.33</course>
  <speed>0.7283543093852057</speed>
  <fix>3d</fix>
</trkpt>
<trkpt lat="33.8101938" lon="-118.3940019">
  <ele>-0.109</ele>
  <time>2026-09-02T22:07:32Z</time>
  <course>186.33</course>
  <speed>0.7283543093852057</speed>
  <fix>3d</fix>
</trkpt>
<trkpt lat="33.8101938" lon="-118.3940019">
  <ele>-0.11</ele>
  <time>2026-09-02T22:07:32Z</time>
  <course>186.33</course>
  <speed>0.7283543093852057</speed>
  <fix>3d</fix>
</trkpt>
<trkpt lat="33.8101938" lon="-118.394002">
  <ele>-0.11</ele>
  <time>2026-09-02T22:07:32Z</time>
  <course>186.33</course>
  <speed>0.7283543093852057</speed>
  <fix>3d</fix>
</trkpt>
<trkpt lat="33.8101938" lon="-118.394002">
  <ele>-0.11</ele>
  <time>2026-09-02T22:07:32Z</time>
  <course>186.33</course>
  <speed>0.7283543093852057</speed>
  <fix>3d</fix>
</trkpt>
<trkpt lat="33.8101937" lon="-118.394002">
  <ele>-0.11</ele>
  <time>2026-09-02T22:07:32Z</time>
  <course>186.33</course>
  <speed>0.7283543093852057</speed>
  <fix>3d</fix>
</trkpt>
<trkpt lat="33.8101937" lon="-118.3940021">
  <ele>-0.11</ele>
  <time>2026-09-02T22:07:32Z</time>
  <course>186.33</course>
  <speed>0.7283543093852057</speed>
  <fix>3d</fix>
</trkpt>
<trkpt lat="33.8101936" lon="-118.3940021">
  <ele>-0.11</ele>
  <time>2026-09-02T22:07:32Z</time>
  <course>186.33</course>
  <speed>0.7283543093852057</speed>
  <fix>3d</fix>
</trkpt>
<trkpt lat="33.8101936" lon="-118.3940022">
  <ele>-0.111</ele>
  <time>2026-09-02T22:07:32Z</time>
  <course>186.33</course>
  <speed>0.7283543093852057</speed>
  <fix>3d</fix>
</trkpt>
<trkpt lat="33.8101936" lon="-118.3940022">
  <ele>-0.111</ele>
  <time>2026-09-02T22:07:32Z</time>
  <course>186.33</course>
  <speed>0.7283543093852057</speed>
  <fix>3d</fix>
</trkpt>
<trkpt lat="33.810194" lon="-118.3940013">
  <ele>-0.1</ele>
  <time>2026-09-02T22:07:32Z</time>
  <course>223.26</course>
  <speed>0.73</speed>
  <fix>3d</fix>
</trkpt>
<trkpt lat="33.8101936" lon="-118.3940022">
  <ele>-0.111</ele>
  <time>2026-09-02T22:07:32Z</time>
  <course>186.33</course>
  <speed>0.7283543093852057</speed>
  <fix>3d</fix>
</trkpt>
<trkpt lat="33.8101934" lon="-118.3940023">
  <ele>-0.111</ele>
  <time>2026-09-02T22:07:32Z</time>
  <course>186.33</course>
  <speed>0.7283543093852057</speed>
  <fix>3d</fix>
</trkpt>
<trkpt lat="33.8101933" lon="-118.3940024">
  <ele>-0.111</ele>
  <time>2026-09-02T22:07:32Z</time>
  <course>186.33</course>
  <speed>0.7283543093852057</speed>
  <fix>3d</fix>
</trkpt>
<trkpt lat="33.8101933" lon="-118.3940025">
  <ele>-0.112</ele>
  <time>2026-09-02T22:07:32Z</time>
  <course>186.33</course>
  <speed>0.7283543093852057</speed>
  <fix>3d</fix>
</trkpt>
<trkpt lat="33.8101932" lon="-118.3940026">
  <ele>-0.112</ele>
  <time>2026-09-02T22:07:32Z</time>
  <course>186.33</course>
  <speed>0.7283543093852057</speed>
  <fix>3d</fix>
</trkpt>
<trkpt lat="33.8101932" lon="-118.3940026">
  <ele>-0.112</ele>
  <time>2026-09-02T22:07:32Z</time>
  <course>186.33</course>
  <speed>0.7283543093852057</speed>
  <fix>3d</fix>
</trkpt>
<trkpt lat="33.8101932" lon="-118.3940026">
  <ele>-0.112</ele>
  <time>2026-09-02T22:07:32Z</time>
  <course>186.33</course>
  <speed>0.7283543093852057</speed>
  <fix>3d</fix>
</trkpt>
<trkpt lat="33.8101931" lon="-118.3940027">
  <ele>-0.112</ele>
  <time>2026-09-02T22:07:32Z</time>
  <course>186.33</course>
  <speed>0.7283543093852057</speed>
  <fix>3d</fix>
</trkpt>
<trkpt lat="33.8101931" lon="-118.3940027">
  <ele>-0.112</ele>
  <time>2026-09-02T22:07:32Z</time>
  <course>186.33</course>
  <speed>0.7283543093852057</speed>
  <fix>3d</fix>
</trkpt>
<trkpt lat="33.8101931" lon="-118.3940027">
  <ele>-0.112</ele>
  <time>2026-09-02T22:07:32Z</time>
  <course>186.33</course>
  <speed>0.7283543093852057</speed>
  <fix>3d</fix>
</trkpt>
<trkpt lat="33.810194" lon="-118.3940013">
  <ele>-0.1</ele>
  <time>2026-09-02T22:07:32Z</time>
  <course>223.26</course>
  <speed>0.73</speed>
  <fix>3d</fix>
</trkpt>
<trkpt lat="33.8101931" lon="-118.3940028">
  <ele>-0.112</ele>
  <time>2026-09-02T22:07:32Z</time>
  <course>186.33</course>
  <speed>0.7283543093852057</speed>
  <fix>3d</fix>
</trkpt>
<trkpt lat="33.810193" lon="-118.3940028">
  <ele>-0.113</ele>
  <time>2026-09-02T22:07:32Z</time>
  <course>186.33</course>
  <speed>0.7283543093852057</speed>
  <fix>3d</fix>
</trkpt>
<trkpt lat="33.810193" lon="-118.3940029">
  <ele>-0.113</ele>
  <time>2026-09-02T22:07:32Z</time>
  <course>186.33</course>
  <speed>0.7283543093852057</speed>
  <fix>3d</fix>
</trkpt>
<trkpt lat="33.8101929" lon="-118.3940029">
  <ele>-0.113</ele>
  <time>2026-09-02T22:07:32Z</time>
  <course>186.33</course>
  <speed>0.7283543093852057</speed>
  <fix>3d</fix>
</trkpt>
<trkpt lat="33.8101929" lon="-118.394003">
  <ele>-0.113</ele>
  <time>2026-09-02T22:07:32Z</time>
  <course>186.33</course>
  <speed>0.7283543093852057</speed>
  <fix>3d</fix>
</trkpt>
<trkpt lat="33.8101928" lon="-118.394003">
  <ele>-0.113</ele>
  <time>2026-09-02T22:07:32Z</time>
  <course>186.33</course>
  <speed>0.7283543093852057</speed>
  <fix>3d</fix>
</trkpt>
<trkpt lat="33.8101928" lon="-118.3940031">
  <ele>-0.113</ele>
  <time>2026-09-02T22:07:32Z</time>
  <course>186.33</course>
  <speed>0.7283543093852057</speed>
  <fix>3d</fix>
</trkpt>
<trkpt lat="33.8101928" lon="-118.3940031">
  <ele>-0.113</ele>
  <time>2026-09-02T22:07:32Z</time>
  <course>186.33</course>
  <speed>0.7283543093852057</speed>
  <fix>3d</fix>
</trkpt>
<trkpt lat="33.8101927" lon="-118.3940032">
  <ele>-0.114</ele>
  <time>2026-09-02T22:07:32Z</time>
  <course>186.33</course>
  <speed>0.7283543093852057</speed>
  <fix>3d</fix>
</trkpt>
<trkpt lat="33.8101927" lon="-118.3940032">
  <ele>-0.114</ele>
  <time>2026-09-02T22:07:32Z</time>
  <course>186.33</course>
  <speed>0.7283543093852057</speed>
  <fix>3d</fix>
</trkpt>
<trkpt lat="33.8101927" lon="-118.3940032">
  <ele>-0.114</ele>
  <time>2026-09-02T22:07:32Z</time>
  <course>186.33</course>
  <speed>0.7283543093852057</speed>
  <fix>3d</fix>
</trkpt>
<trkpt lat="33.8101926" lon="-118.3940033">
  <ele>-0.114</ele>
  <time>2026-09-02T22:07:32Z</time>
  <course>186.33</course>
  <speed>0.7283543093852057</speed>
  <fix>3d</fix>
</trkpt>
<trkpt lat="33.8101926" lon="-118.3940033">
  <ele>-0.114</ele>
  <time>2026-09-02T22:07:32Z</time>
  <course>186.33</course>
  <speed>0.7283543093852057</speed>
  <fix>3d</fix>
</trkpt>
<trkpt lat="33.8101931" lon="-118.3940024">
  <ele>-0.11</ele>
  <time>2026-09-02T22:07:32Z</time>
  <course>223.26</course>
  <speed>0.73</speed>
  <fix>3d</fix>
</trkpt>
<trkpt lat="33.8101925" lon="-118.3940034">
  <ele>-0.114</ele>
  <time>2026-09-02T22:07:32Z</time>
  <course>186.33</course>
  <speed>0.7283543093852057</speed>
  <fix>3d</fix>
</trkpt>
<trkpt lat="33.8101925" lon="-118.3940034">
  <ele>-0.114</ele>
  <time>2026-09-02T22:07:32Z</time>
  <course>186.33</course>
  <speed>0.7283543093852057</speed>
  <fix>3d</fix>
</trkpt>
<trkpt lat="33.8101924" lon="-118.3940035">
  <ele>-0.115</ele>
  <time>2026-09-02T22:07:32Z</time>
  <course>186.33</course>
  <speed>0.7283543093852057</speed>
  <fix>3d</fix>
</trkpt>
<trkpt lat="33.8101924" lon="-118.3940035">
  <ele>-0.115</ele>
  <time>2026-09-02T22:07:32Z</time>
  <course>186.33</course>
  <speed>0.7283543093852057</speed>
  <fix>3d</fix>
</trkpt>
<trkpt lat="33.8101924" lon="-118.3940036">
  <ele>-0.115</ele>
  <time>2026-09-02T22:07:32Z</time>
  <course>186.33</course>
  <speed>0.7283543093852057</speed>
  <fix>3d</fix>
</trkpt>
<trkpt lat="33.8101923" lon="-118.3940036">
  <ele>-0.115</ele>
  <time>2026-09-02T22:07:32Z</time>
  <course>186.33</course>
  <speed>0.7283543093852057</speed>
  <fix>3d</fix>
</trkpt>
<trkpt lat="33.8101923" lon="-118.3940036">
  <ele>-0.115</ele>
  <time>2026-09-02T22:07:32Z</time>
  <course>186.33</course>
  <speed>0.7283543093852057</speed>
  <fix>3d</fix>
</trkpt>
<trkpt lat="33.8101923" lon="-118.3940037">
  <ele>-0.115</ele>
  <time>2026-09-02T22:07:32Z</time>
  <course>186.33</course>
  <speed>0.7283543093852057</speed>
  <fix>3d</fix>
</trkpt>
<trkpt lat="33.8101922" lon="-118.3940037">
  <ele>-0.115</ele>
  <time>2026-09-02T22:07:32Z</time>
  <course>186.33</course>
  <speed>0.7283543093852057</speed>
  <fix>3d</fix>
</trkpt>
<trkpt lat="33.8101922" lon="-118.3940038">
  <ele>-0.115</ele>
  <time>2026-09-02T22:07:32Z</time>
  <course>186.33</course>
  <speed>0.7283543093852057</speed>
  <fix>3d</fix>
</trkpt>
<trkpt lat="33.8101921" lon="-118.3940038">
  <ele>-0.115</ele>
  <time>2026-09-02T22:07:32Z</time>
  <course>186.33</course>
  <speed>0.7283543093852057</speed>
  <fix>3d</fix>
</trkpt>
<trkpt lat="33.8101921" lon="-118.3940038">
  <ele>-0.115</ele>
  <time>2026-09-02T22:07:32Z</time>
  <course>186.33</course>
  <speed>0.7283543093852057</speed>
  <fix>3d</fix>
</trkpt>
<trkpt lat="33.8101931" lon="-118.3940024">
  <ele>-0.11</ele>
  <time>2026-09-02T22:07:32Z</time>
  <course>223.26</course>
  <speed>0.73</speed>
  <fix>3d</fix>
</trkpt>
<trkpt lat="33.8101921" lon="-118.3940039">
  <ele>-0.115</ele>
  <time>2026-09-02T22:07:32Z</time>
  <course>186.33</course>
  <speed>0.7283543093852057</speed>
  <fix>3d</fix>
</trkpt>
<trkpt lat="33.8101921" lon="-118.3940039">
  <ele>-0.115</ele>
  <time>2026-09-02T22:07:32Z</time>
  <course>186.33</course>
  <speed>0.7283543093852057</speed>
  <fix>3d</fix>
</trkpt>
<trkpt lat="33.810192" lon="-118.394004">
  <ele>-0.116</ele>
  <time>2026-09-02T22:07:32Z</time>
  <course>186.33</course>
  <speed>0.7283543093852057</speed>
  <fix>3d</fix>
</trkpt>
<trkpt lat="33.810192" lon="-118.394004">
  <ele>-0.116</ele>
  <time>2026-09-02T22:07:32Z</time>
  <course>186.33</course>
  <speed>0.7283543093852057</speed>
  <fix>3d</fix>
</trkpt>
<trkpt lat="33.8101919" lon="-118.3940041">
  <ele>-0.116</ele>
  <time>2026-09-02T22:07:32Z</time>
  <course>186.33</course>
  <speed>0.7283543093852057</speed>
  <fix>3d</fix>
</trkpt>
<trkpt lat="33.8101919" lon="-118.3940041">
  <ele>-0.116</ele>
  <time>2026-09-02T22:07:32Z</time>
  <course>186.33</course>
  <speed>0.7283543093852057</speed>
  <fix>3d</fix>
</trkpt>
<trkpt lat="33.8101919" lon="-118.3940041">
  <ele>-0.116</ele>
  <time>2026-09-02T22:07:32Z</time>
  <course>186.33</course>
  <speed>0.7283543093852057</speed>
  <fix>3d</fix>
</trkpt>
<trkpt lat="33.8101918" lon="-118.3940042">
  <ele>-0.116</ele>
  <time>2026-09-02T22:07:32Z</time>
  <course>186.33</course>
  <speed>0.7283543093852057</speed>
  <fix>3d</fix>
</trkpt>
<trkpt lat="33.8101918" lon="-118.3940042">
  <ele>-0.116</ele>
  <time>2026-09-02T22:07:32Z</time>
  <course>186.33</course>
  <speed>0.7283543093852057</speed>
  <fix>3d</fix>
</trkpt>
<trkpt lat="33.8101918" lon="-118.3940043">
  <ele>-0.116</ele>
  <time>2026-09-02T22:07:32Z</time>
  <course>186.33</course>
  <speed>0.7283543093852057</speed>
  <fix>3d</fix>
</trkpt>
<trkpt lat="33.8101917" lon="-118.3940043">
  <ele>-0.116</ele>
  <time>2026-09-02T22:07:32Z</time>
  <course>186.33</course>
  <speed>0.7283543093852057</speed>
  <fix>3d</fix>
</trkpt>
<trkpt lat="33.8101917" lon="-118.3940044">
  <ele>-0.116</ele>
  <time>2026-09-02T22:07:32Z</time>
  <course>186.33</course>
  <speed>0.7283543093852057</speed>
  <fix>3d</fix>
</trkpt>
<trkpt lat="33.8101916" lon="-118.3940044">
  <ele>-0.116</ele>
  <time>2026-09-02T22:07:32Z</time>
  <course>186.33</course>
  <speed>0.7283543093852057</speed>
  <fix>3d</fix>
</trkpt>
<trkpt lat="33.810192" lon="-118.3940035">
  <ele>-0.1</ele>
  <time>2026-09-02T22:07:32Z</time>
  <course>223.26</course>
  <speed>0.73</speed>
  <fix>3d</fix>
</trkpt>
<trkpt lat="33.8101916" lon="-118.3940044">
  <ele>-0.116</ele>
  <time>2026-09-02T22:07:32Z</time>
  <course>186.33</course>
  <speed>0.7283543093852057</speed>
  <fix>3d</fix>
</trkpt>
<trkpt lat="33.8101916" lon="-118.3940045">
  <ele>-0.117</ele>
  <time>2026-09-02T22:07:32Z</time>
  <course>186.33</course>
  <speed>0.7283543093852057</speed>
  <fix>3d</fix>
</trkpt>
<trkpt lat="33.8101915" lon="-118.3940045">
  <ele>-0.117</ele>
  <time>2026-09-02T22:07:32Z</time>
  <course>186.33</course>
  <speed>0.7283543093852057</speed>
  <fix>3d</fix>
</trkpt>
<trkpt lat="33.8101915" lon="-118.3940046">
  <ele>-0.117</ele>
  <time>2026-09-02T22:07:32Z</time>
  <course>186.33</course>
  <speed>0.7283543093852057</speed>
  <fix>3d</fix>
</trkpt>
<trkpt lat="33.8101914" lon="-118.3940046">
  <ele>-0.117</ele>
  <time>2026-09-02T22:07:32Z</time>
  <course>186.33</course>
  <speed>0.7283543093852057</speed>
  <fix>3d</fix>
</trkpt>
<trkpt lat="33.8101914" lon="-118.3940047">
  <ele>-0.117</ele>
  <time>2026-09-02T22:07:32Z</time>
  <course>186.33</course>
  <speed>0.7283543093852057</speed>
  <fix>3d</fix>
</trkpt>
<trkpt lat="33.8101913" lon="-118.3940047">
  <ele>-0.117</ele>
  <time>2026-09-02T22:07:32Z</time>
  <course>186.33</course>
  <speed>0.7283543093852057</speed>
  <fix>3d</fix>
</trkpt>
<trkpt lat="33.8101913" lon="-118.3940048">
  <ele>-0.117</ele>
  <time>2026-09-02T22:07:32Z</time>
  <course>186.33</course>
  <speed>0.7283543093852057</speed>
  <fix>3d</fix>
</trkpt>
<trkpt lat="33.8101912" lon="-118.3940048">
  <ele>-0.117</ele>
  <time>2026-09-02T22:07:32Z</time>
  <course>186.33</course>
  <speed>0.7283543093852057</speed>
  <fix>3d</fix>
</trkpt>
<trkpt lat="33.8101912" lon="-118.3940049">
  <ele>-0.117</ele>
  <time>2026-09-02T22:07:32Z</time>
  <course>186.33</course>
  <speed>0.7283543093852057</speed>
  <fix>3d</fix>
</trkpt>
<trkpt lat="33.8101912" lon="-118.3940049">
  <ele>-0.118</ele>
  <time>2026-09-02T22:07:32Z</time>
  <course>186.33</course>
  <speed>0.7283543093852057</speed>
  <fix>3d</fix>
</trkpt>
<trkpt lat="33.8101912" lon="-118.3940049">
  <ele>-0.118</ele>
  <time>2026-09-02T22:07:32Z</time>
  <course>186.33</course>
  <speed>0.7283543093852057</speed>
  <fix>3d</fix>
</trkpt>
<trkpt lat="33.810192" lon="-118.3940035">
  <ele>-0.1</ele>
  <time>2026-09-02T22:07:32Z</time>
  <course>223.26</course>
  <speed>0.73</speed>
  <fix>3d</fix>
</trkpt>
<trkpt lat="33.8101911" lon="-118.394005">
  <ele>-0.118</ele>
  <time>2026-09-02T22:07:32Z</time>
  <course>186.33</course>
  <speed>0.7283543093852057</speed>
  <fix>3d</fix>
</trkpt>
<trkpt lat="33.810191" lon="-118.3940051">
  <ele>-0.118</ele>
  <time>2026-09-02T22:07:32Z</time>
  <course>186.33</course>
  <speed>0.7283543093852057</speed>
  <fix>3d</fix>
</trkpt>
<trkpt lat="33.810191" lon="-118.3940051">
  <ele>-0.118</ele>
  <time>2026-09-02T22:07:32Z</time>
  <course>186.33</course>
  <speed>0.7283543093852057</speed>
  <fix>3d</fix>
</trkpt>
<trkpt lat="33.8101909" lon="-118.3940052">
  <ele>-0.118</ele>
  <time>2026-09-02T22:07:32Z</time>
  <course>186.33</course>
  <speed>0.7283543093852057</speed>
  <fix>3d</fix>
</trkpt>
<trkpt lat="33.8101909" lon="-118.3940052">
  <ele>-0.118</ele>
  <time>2026-09-02T22:07:32Z</time>
  <course>186.33</course>
  <speed>0.7283543093852057</speed>
  <fix>3d</fix>
</trkpt>
<trkpt lat="33.8101909" lon="-118.3940053">
  <ele>-0.118</ele>
  <time>2026-09-02T22:07:32Z</time>
  <course>186.33</course>
  <speed>0.7283543093852057</speed>
  <fix>3d</fix>
</trkpt>
<trkpt lat="33.8101908" lon="-118.3940053">
  <ele>-0.118</ele>
  <time>2026-09-02T22:07:32Z</time>
  <course>186.33</course>
  <speed>0.7283543093852057</speed>
  <fix>3d</fix>
</trkpt>
<trkpt lat="33.8101908" lon="-118.3940054">
  <ele>-0.118</ele>
  <time>2026-09-02T22:07:32Z</time>
  <course>186.33</course>
  <speed>0.7283543093852057</speed>
  <fix>3d</fix>
</trkpt>
<trkpt lat="33.8101908" lon="-118.3940054">
  <ele>-0.118</ele>
  <time>2026-09-02T22:07:32Z</time>
  <course>186.33</course>
  <speed>0.7283543093852057</speed>
  <fix>3d</fix>
</trkpt>
<trkpt lat="33.8101907" lon="-118.3940054">
  <ele>-0.118</ele>
  <time>2026-09-02T22:07:32Z</time>
  <course>186.33</course>
  <speed>0.7283543093852057</speed>
  <fix>3d</fix>
</trkpt>
<trkpt lat="33.8101907" lon="-118.3940055">
  <ele>-0.118</ele>
  <time>2026-09-02T22:07:32Z</time>
  <course>186.33</course>
  <speed>0.7283543093852057</speed>
  <fix>3d</fix>
</trkpt>
<trkpt lat="33.8101907" lon="-118.3940055">
  <ele>-0.118</ele>
  <time>2026-09-02T22:07:32Z</time>
  <course>186.33</course>
  <speed>0.7283543093852057</speed>
  <fix>3d</fix>
</trkpt>
<trkpt lat="33.8101911" lon="-118.3940046">
  <ele>-0.1</ele>
  <time>2026-09-02T22:07:32Z</time>
  <course>223.26</course>
  <speed>0.73</speed>
  <fix>3d</fix>
</trkpt>
<trkpt lat="33.8101906" lon="-118.3940056">
  <ele>-0.119</ele>
  <time>2026-09-02T22:07:32Z</time>
  <course>186.33</course>
  <speed>0.7283543093852057</speed>
  <fix>3d</fix>
</trkpt>
<trkpt lat="33.8101906" lon="-118.3940056">
  <ele>-0.119</ele>
  <time>2026-09-02T22:07:32Z</time>
  <course>186.33</course>
  <speed>0.7283543093852057</speed>
  <fix>3d</fix>
</trkpt>
<trkpt lat="33.8101905" lon="-118.3940057">
  <ele>-0.119</ele>
  <time>2026-09-02T22:07:32Z</time>
  <course>186.33</course>
  <speed>0.7283543093852057</speed>
  <fix>3d</fix>
</trkpt>
<trkpt lat="33.8101905" lon="-118.3940057">
  <ele>-0.119</ele>
  <time>2026-09-02T22:07:32Z</time>
  <course>186.33</course>
  <speed>0.7283543093852057</speed>
  <fix>3d</fix>
</trkpt>
<trkpt lat="33.8101904" lon="-118.3940057">
  <ele>-0.119</ele>
  <time>2026-09-02T22:07:32Z</time>
  <course>186.33</course>
  <speed>0.7283543093852057</speed>
  <fix>3d</fix>
</trkpt>
<trkpt lat="33.8101904" lon="-118.3940058">
  <ele>-0.119</ele>
  <time>2026-09-02T22:07:32Z</time>
  <course>186.33</course>
  <speed>0.7283543093852057</speed>
  <fix>3d</fix>
</trkpt>
<trkpt lat="33.8101904" lon="-118.3940058">
  <ele>-0.119</ele>
  <time>2026-09-02T22:07:32Z</time>
  <course>186.33</course>
  <speed>0.7283543093852057</speed>
  <fix>3d</fix>
</trkpt>
<trkpt lat="33.8101903" lon="-118.3940059">
  <ele>-0.119</ele>
  <time>2026-09-02T22:07:32Z</time>
  <course>186.33</course>
  <speed>0.7283543093852057</speed>
  <fix>3d</fix>
</trkpt>
<trkpt lat="33.8101903" lon="-118.3940059">
  <ele>-0.119</ele>
  <time>2026-09-02T22:07:32Z</time>
  <course>186.33</course>
  <speed>0.7283543093852057</speed>
  <fix>3d</fix>
</trkpt>
<trkpt lat="33.8101903" lon="-118.3940059">
  <ele>-0.119</ele>
  <time>2026-09-02T22:07:32Z</time>
  <course>186.33</course>
  <speed>0.7283543093852057</speed>
  <fix>3d</fix>
</trkpt>
<trkpt lat="33.8101902" lon="-118.394006">
  <ele>-0.119</ele>
  <time>2026-09-02T22:07:32Z</time>
  <course>186.33</course>
  <speed>0.7283543093852057</speed>
  <fix>3d</fix>
</trkpt>
<trkpt lat="33.8101902" lon="-118.394006">
  <ele>-0.119</ele>
  <time>2026-09-02T22:07:32Z</time>
  <course>186.32</course>
  <speed>0.7283543093852057</speed>
  <fix>3d</fix>
</trkpt>
<trkpt lat="33.8101902" lon="-118.394006">
  <ele>-0.119</ele>
  <time>2026-09-02T22:07:32Z</time>
  <course>186.32</course>
  <speed>0.7283543093852057</speed>
  <fix>3d</fix>
</trkpt>
<trkpt lat="33.8101911" lon="-118.3940046">
  <ele>-0.1</ele>
  <time>2026-09-02T22:07:32Z</time>
  <course>223.26</course>
  <speed>0.73</speed>
  <fix>3d</fix>
</trkpt>
<trkpt lat="33.8101901" lon="-118.3940061">
  <ele>-0.119</ele>
  <time>2026-09-02T22:07:32Z</time>
  <course>186.32</course>
  <speed>0.7283543093852057</speed>
  <fix>3d</fix>
</trkpt>
<trkpt lat="33.8101901" lon="-118.3940062">
  <ele>-0.119</ele>
  <time>2026-09-02T22:07:32Z</time>
  <course>186.32</course>
  <speed>0.7283543093852057</speed>
  <fix>3d</fix>
</trkpt>
<trkpt lat="33.81019" lon="-118.3940062">
  <ele>-0.119</ele>
  <time>2026-09-02T22:07:32Z</time>
  <course>186.32</course>
  <speed>0.7283543093852057</speed>
  <fix>3d</fix>
</trkpt>
<trkpt lat="33.81019" lon="-118.3940063">
  <ele>-0.119</ele>
  <time>2026-09-02T22:07:32Z</time>
  <course>186.32</course>
  <speed>0.7283543093852057</speed>
  <fix>3d</fix>
</trkpt>
<trkpt lat="33.81019" lon="-118.3940063">
  <ele>-0.119</ele>
  <time>2026-09-02T22:07:32Z</time>
  <course>186.32</course>
  <speed>0.7283543093852057</speed>
  <fix>3d</fix>
</trkpt>
<trkpt lat="33.8101899" lon="-118.3940063">
  <ele>-0.119</ele>
  <time>2026-09-02T22:07:32Z</time>
  <course>186.32</course>
  <speed>0.7283543093852057</speed>
  <fix>3d</fix>
</trkpt>
<trkpt lat="33.8101899" lon="-118.3940064">
  <ele>-0.119</ele>
  <time>2026-09-02T22:07:32Z</time>
  <course>186.32</course>
  <speed>0.7283543093852057</speed>
  <fix>3d</fix>
</trkpt>
<trkpt lat="33.8101898" lon="-118.3940064">
  <ele>-0.119</ele>
  <time>2026-09-02T22:07:32Z</time>
  <course>186.32</course>
  <speed>0.7283543093852057</speed>
  <fix>3d</fix>
</trkpt>
<trkpt lat="33.8101898" lon="-118.3940065">
  <ele>-0.119</ele>
  <time>2026-09-02T22:07:32Z</time>
  <course>186.32</course>
  <speed>0.7283543093852057</speed>
  <fix>3d</fix>
</trkpt>
<trkpt lat="33.8101898" lon="-118.3940065">
  <ele>-0.12</ele>
  <time>2026-09-02T22:07:32Z</time>
  <course>186.32</course>
  <speed>0.7283543093852057</speed>
  <fix>3d</fix>
</trkpt>
<trkpt lat="33.8101897" lon="-118.3940066">
  <ele>-0.12</ele>
  <time>2026-09-02T22:07:32Z</time>
  <course>186.32</course>
  <speed>0.7283543093852057</speed>
  <fix>3d</fix>
</trkpt>
<trkpt lat="33.8101897" lon="-118.3940066">
  <ele>-0.12</ele>
  <time>2026-09-02T22:07:32Z</time>
  <course>186.32</course>
  <speed>0.7283543093852057</speed>
  <fix>3d</fix>
</trkpt>
<trkpt lat="33.8101901" lon="-118.3940056">
  <ele>-0.1</ele>
  <time>2026-09-02T22:07:32Z</time>
  <course>223.26</course>
  <speed>0.73</speed>
  <fix>3d</fix>
</trkpt>
<trkpt lat="33.8101897" lon="-118.3940066">
  <ele>-0.12</ele>
  <time>2026-09-02T22:07:32Z</time>
  <course>186.32</course>
  <speed>0.7283543093852057</speed>
  <fix>3d</fix>
</trkpt>
<trkpt lat="33.8101896" lon="-118.3940067">
  <ele>-0.12</ele>
  <time>2026-09-02T22:07:32Z</time>
  <course>186.32</course>
  <speed>0.7283543093852057</speed>
  <fix>3d</fix>
</trkpt>
<trkpt lat="33.8101896" lon="-118.3940067">
  <ele>-0.12</ele>
  <time>2026-09-02T22:07:32Z</time>
  <course>186.32</course>
  <speed>0.7283543093852057</speed>
  <fix>3d</fix>
</trkpt>
<trkpt lat="33.8101896" lon="-118.3940067">
  <ele>-0.12</ele>
  <time>2026-09-02T22:07:32Z</time>
  <course>186.32</course>
  <speed>0.7283543093852057</speed>
  <fix>3d</fix>
</trkpt>
<trkpt lat="33.8101895" lon="-118.3940068">
  <ele>-0.12</ele>
  <time>2026-09-02T22:07:32Z</time>
  <course>186.32</course>
  <speed>0.7283543093852057</speed>
  <fix>3d</fix>
</trkpt>
<trkpt lat="33.8101895" lon="-118.3940068">
  <ele>-0.12</ele>
  <time>2026-09-02T22:07:32Z</time>
  <course>186.32</course>
  <speed>0.7283543093852057</speed>
  <fix>3d</fix>
</trkpt>
<trkpt lat="33.8101894" lon="-118.3940069">
  <ele>-0.12</ele>
  <time>2026-09-02T22:07:32Z</time>
  <course>186.32</course>
  <speed>0.7283543093852057</speed>
  <fix>3d</fix>
</trkpt>
<trkpt lat="33.8101894" lon="-118.3940069">
  <ele>-0.12</ele>
  <time>2026-09-02T22:07:32Z</time>
  <course>186.32</course>
  <speed>0.7283543093852057</speed>
  <fix>3d</fix>
</trkpt>
<trkpt lat="33.8101893" lon="-118.394007">
  <ele>-0.12</ele>
  <time>2026-09-02T22:07:32Z</time>
  <course>186.32</course>
  <speed>0.7283543093852057</speed>
  <fix>3d</fix>
</trkpt>
<trkpt lat="33.8101893" lon="-118.394007">
  <ele>-0.12</ele>
  <time>2026-09-02T22:07:32Z</time>
  <course>186.32</course>
  <speed>0.7283543093852057</speed>
  <fix>3d</fix>
</trkpt>
<trkpt lat="33.8101893" lon="-118.3940071">
  <ele>-0.121</ele>
  <time>2026-09-02T22:07:32Z</time>
  <course>186.32</course>
  <speed>0.7283543093852057</speed>
  <fix>3d</fix>
</trkpt>
<trkpt lat="33.8101892" lon="-118.3940071">
  <ele>-0.121</ele>
  <time>2026-09-02T22:07:32Z</time>
  <course>186.32</course>
  <speed>0.7283543093852057</speed>
  <fix>3d</fix>
</trkpt>
<trkpt lat="33.8101892" lon="-118.3940071">
  <ele>-0.121</ele>
  <time>2026-09-02T22:07:32Z</time>
  <course>186.32</course>
  <speed>0.7283543093852057</speed>
  <fix>3d</fix>
</trkpt>
<trkpt lat="33.8101901" lon="-118.3940056">
  <ele>-0.1</ele>
  <time>2026-09-02T22:07:32Z</time>
  <course>223.26</course>
  <speed>0.73</speed>
  <fix>3d</fix>
</trkpt>
<trkpt lat="33.8101892" lon="-118.3940072">
  <ele>-0.121</ele>
  <time>2026-09-02T22:07:32Z</time>
  <course>186.32</course>
  <speed>0.7283543093852057</speed>
  <fix>3d</fix>
</trkpt>
<trkpt lat="33.8101891" lon="-118.3940073">
  <ele>-0.121</ele>
  <time>2026-09-02T22:07:32Z</time>
  <course>186.32</course>
  <speed>0.7283543093852057</speed>
  <fix>3d</fix>
</trkpt>
<trkpt lat="33.8101891" lon="-118.3940073">
  <ele>-0.121</ele>
  <time>2026-09-02T22:07:32Z</time>
  <course>186.32</course>
  <speed>0.7283543093852057</speed>
  <fix>3d</fix>
</trkpt>
<trkpt lat="33.810189" lon="-118.3940073">
  <ele>-0.121</ele>
  <time>2026-09-02T22:07:32Z</time>
  <course>186.32</course>
  <speed>0.7283543093852057</speed>
  <fix>3d</fix>
</trkpt>
<trkpt lat="33.810189" lon="-118.3940074">
  <ele>-0.121</ele>
  <time>2026-09-02T22:07:32Z</time>
  <course>186.32</course>
  <speed>0.7283543093852057</speed>
  <fix>3d</fix>
</trkpt>
<trkpt lat="33.810189" lon="-118.3940074">
  <ele>-0.121</ele>
  <time>2026-09-02T22:07:32Z</time>
  <course>186.32</course>
  <speed>0.7283543093852057</speed>
  <fix>3d</fix>
</trkpt>
<trkpt lat="33.8101889" lon="-118.3940075">
  <ele>-0.121</ele>
  <time>2026-09-02T22:07:32Z</time>
  <course>186.32</course>
  <speed>0.7283543093852057</speed>
  <fix>3d</fix>
</trkpt>
<trkpt lat="33.8101889" lon="-118.3940075">
  <ele>-0.12</ele>
  <time>2026-09-02T22:07:32Z</time>
  <course>186.32</course>
  <speed>0.7283543093852057</speed>
  <fix>3d</fix>
</trkpt>
<trkpt lat="33.8101889" lon="-118.3940075">
  <ele>-0.121</ele>
  <time>2026-09-02T22:07:32Z</time>
  <course>186.32</course>
  <speed>0.7283543093852057</speed>
  <fix>3d</fix>
</trkpt>
<trkpt lat="33.8101888" lon="-118.3940076">
  <ele>-0.12</ele>
  <time>2026-09-02T22:07:32Z</time>
  <course>186.32</course>
  <speed>0.7283543093852057</speed>
  <fix>3d</fix>
</trkpt>
<trkpt lat="33.8101888" lon="-118.3940076">
  <ele>-0.12</ele>
  <time>2026-09-02T22:07:32Z</time>
  <course>186.32</course>
  <speed>0.7283543093852057</speed>
  <fix>3d</fix>
</trkpt>
<trkpt lat="33.8101887" lon="-118.3940077">
  <ele>-0.12</ele>
  <time>2026-09-02T22:07:32Z</time>
  <course>186.32</course>
  <speed>0.7283543093852057</speed>
  <fix>3d</fix>
</trkpt>
<trkpt lat="33.8101891" lon="-118.3940067">
  <ele>-0.1</ele>
  <time>2026-09-02T22:07:32Z</time>
  <course>223.26</course>
  <speed>0.73</speed>
  <fix>3d</fix>
</trkpt>
<trkpt lat="33.8101887" lon="-118.3940077">
  <ele>-0.12</ele>
  <time>2026-09-02T22:07:32Z</time>
  <course>186.32</course>
  <speed>0.7283543093852057</speed>
  <fix>3d</fix>
</trkpt>
<trkpt lat="33.8101887" lon="-118.3940078">
  <ele>-0.12</ele>
  <time>2026-09-02T22:07:32Z</time>
  <course>186.32</course>
  <speed>0.7283543093852057</speed>
  <fix>3d</fix>
</trkpt>
<trkpt lat="33.8101886" lon="-118.3940078">
  <ele>-0.12</ele>
  <time>2026-09-02T22:07:32Z</time>
  <course>186.32</course>
  <speed>0.7283543093852057</speed>
  <fix>3d</fix>
</trkpt>
<trkpt lat="33.8101886" lon="-118.3940079">
  <ele>-0.12</ele>
  <time>2026-09-02T22:07:32Z</time>
  <course>186.32</course>
  <speed>0.7283543093852057</speed>
  <fix>3d</fix>
</trkpt>
<trkpt lat="33.8101885" lon="-118.3940079">
  <ele>-0.12</ele>
  <time>2026-09-02T22:07:32Z</time>
  <course>186.32</course>
  <speed>0.7283543093852057</speed>
  <fix>3d</fix>
</trkpt>
<trkpt lat="33.8101885" lon="-118.3940079">
  <ele>-0.12</ele>
  <time>2026-09-02T22:07:32Z</time>
  <course>186.32</course>
  <speed>0.7283543093852057</speed>
  <fix>3d</fix>
</trkpt>
<trkpt lat="33.8101884" lon="-118.394008">
  <ele>-0.12</ele>
  <time>2026-09-02T22:07:32Z</time>
  <course>186.32</course>
  <speed>0.7283543093852057</speed>
  <fix>3d</fix>
</trkpt>
<trkpt lat="33.8101884" lon="-118.394008">
  <ele>-0.12</ele>
  <time>2026-09-02T22:07:32Z</time>
  <course>186.32</course>
  <speed>0.7283543093852057</speed>
  <fix>3d</fix>
</trkpt>
<trkpt lat="33.8101884" lon="-118.3940081">
  <ele>-0.12</ele>
  <time>2026-09-02T22:07:32Z</time>
  <course>186.32</course>
  <speed>0.7283543093852057</speed>
  <fix>3d</fix>
</trkpt>
<trkpt lat="33.8101883" lon="-118.3940081">
  <ele>-0.12</ele>
  <time>2026-09-02T22:07:32Z</time>
  <course>186.32</course>
  <speed>0.7283543093852057</speed>
  <fix>3d</fix>
</trkpt>
<trkpt lat="33.8101883" lon="-118.3940082">
  <ele>-0.12</ele>
  <time>2026-09-02T22:07:32Z</time>
  <course>186.32</course>
  <speed>0.7283543093852057</speed>
  <fix>3d</fix>
</trkpt>
<trkpt lat="33.8101883" lon="-118.3940082">
  <ele>-0.12</ele>
  <time>2026-09-02T22:07:32Z</time>
  <course>186.32</course>
  <speed>0.7283543093852057</speed>
  <fix>3d</fix>
</trkpt>
<trkpt lat="33.8101883" lon="-118.3940082">
  <ele>-0.12</ele>
  <time>2026-09-02T22:07:32Z</time>
  <course>186.32</course>
  <speed>0.7283543093852057</speed>
  <fix>3d</fix>
</trkpt>
<trkpt lat="33.8101891" lon="-118.3940067">
  <ele>-0.1</ele>
  <time>2026-09-02T22:07:32Z</time>
  <course>223.26</course>
  <speed>0.73</speed>
  <fix>3d</fix>
</trkpt>
<trkpt lat="33.8101882" lon="-118.3940082">
  <ele>-0.12</ele>
  <time>2026-09-02T22:07:32Z</time>
  <course>186.32</course>
  <speed>0.7283543093852057</speed>
  <fix>3d</fix>
</trkpt>
<trkpt lat="33.8101882" lon="-118.3940083">
  <ele>-0.12</ele>
  <time>2026-09-02T22:07:32Z</time>
  <course>186.32</course>
  <speed>0.7283543093852057</speed>
  <fix>3d</fix>
</trkpt>
<trkpt lat="33.8101881" lon="-118.3940083">
  <ele>-0.12</ele>
  <time>2026-09-02T22:07:32Z</time>
  <course>186.32</course>
  <speed>0.7283543093852057</speed>
  <fix>3d</fix>
</trkpt>
<trkpt lat="33.8101881" lon="-118.3940084">
  <ele>-0.12</ele>
  <time>2026-09-02T22:07:32Z</time>
  <course>186.32</course>
  <speed>0.7283543093852057</speed>
  <fix>3d</fix>
</trkpt>
<trkpt lat="33.8101881" lon="-118.3940084">
  <ele>-0.12</ele>
  <time>2026-09-02T22:07:32Z</time>
  <course>186.32</course>
  <speed>0.7283543093852057</speed>
  <fix>3d</fix>
</trkpt>
<trkpt lat="33.810188" lon="-118.3940085">
  <ele>-0.12</ele>
  <time>2026-09-02T22:07:32Z</time>
  <course>186.32</course>
  <speed>0.7283543093852057</speed>
  <fix>3d</fix>
</trkpt>
<trkpt lat="33.810188" lon="-118.3940085">
  <ele>-0.12</ele>
  <time>2026-09-02T22:07:32Z</time>
  <course>186.32</course>
  <speed>0.7283543093852057</speed>
  <fix>3d</fix>
</trkpt>
<trkpt lat="33.8101879" lon="-118.3940086">
  <ele>-0.12</ele>
  <time>2026-09-02T22:07:32Z</time>
  <course>186.32</course>
  <speed>0.7283543093852057</speed>
  <fix>3d</fix>
</trkpt>
<trkpt lat="33.8101879" lon="-118.3940086">
  <ele>-0.12</ele>
  <time>2026-09-02T22:07:32Z</time>
  <course>186.32</course>
  <speed>0.7283543093852057</speed>
  <fix>3d</fix>
</trkpt>
<trkpt lat="33.8101879" lon="-118.3940087">
  <ele>-0.119</ele>
  <time>2026-09-02T22:07:32Z</time>
  <course>186.32</course>
  <speed>0.7283543093852057</speed>
  <fix>3d</fix>
</trkpt>
<trkpt lat="33.8101878" lon="-118.3940087">
  <ele>-0.119</ele>
  <time>2026-09-02T22:07:32Z</time>
  <course>186.32</course>
  <speed>0.7283543093852057</speed>
  <fix>3d</fix>
</trkpt>
<trkpt lat="33.8101878" lon="-118.3940087">
  <ele>-0.119</ele>
  <time>2026-09-02T22:07:32Z</time>
  <course>186.32</course>
  <speed>0.7283543093852057</speed>
  <fix>3d</fix>
</trkpt>
<trkpt lat="33.8101878" lon="-118.3940087">
  <ele>-0.119</ele>
  <time>2026-09-02T22:07:32Z</time>
  <course>186.32</course>
  <speed>0.7283543093852057</speed>
  <fix>3d</fix>
</trkpt>
<trkpt lat="33.8101882" lon="-118.3940078">
  <ele>-0.11</ele>
  <time>2026-09-02T22:07:32Z</time>
  <course>223.26</course>
  <speed>0.73</speed>
  <fix>3d</fix>
</trkpt>
<trkpt lat="33.8101878" lon="-118.3940088">
  <ele>-0.119</ele>
  <time>2026-09-02T22:07:32Z</time>
  <course>186.32</course>
  <speed>0.7283543093852057</speed>
  <fix>3d</fix>
</trkpt>
<trkpt lat="33.8101877" lon="-118.3940089">
  <ele>-0.119</ele>
  <time>2026-09-02T22:07:32Z</time>
  <course>186.32</course>
  <speed>0.7283543093852057</speed>
  <fix>3d</fix>
</trkpt>
<trkpt lat="33.8101876" lon="-118.3940089">
  <ele>-0.119</ele>
  <time>2026-09-02T22:07:32Z</time>
  <course>186.32</course>
  <speed>0.7283543093852057</speed>
  <fix>3d</fix>
</trkpt>
<trkpt lat="33.8101876" lon="-118.3940089">
  <ele>-0.119</ele>
  <time>2026-09-02T22:07:32Z</time>
  <course>186.32</course>
  <speed>0.7283543093852057</speed>
  <fix>3d</fix>
</trkpt>
<trkpt lat="33.8101875" lon="-118.394009">
  <ele>-0.119</ele>
  <time>2026-09-02T22:07:32Z</time>
  <course>186.32</course>
  <speed>0.7283543093852057</speed>
  <fix>3d</fix>
</trkpt>
<trkpt lat="33.8101875" lon="-118.394009">
  <ele>-0.119</ele>
  <time>2026-09-02T22:07:32Z</time>
  <course>186.32</course>
  <speed>0.7283543093852057</speed>
  <fix>3d</fix>
</trkpt>
<trkpt lat="33.8101875" lon="-118.3940091">
  <ele>-0.119</ele>
  <time>2026-09-02T22:07:32Z</time>
  <course>186.32</course>
  <speed>0.7283543093852057</speed>
  <fix>3d</fix>
</trkpt>
<trkpt lat="33.8101874" lon="-118.3940091">
  <ele>-0.119</ele>
  <time>2026-09-02T22:07:32Z</time>
  <course>186.32</course>
  <speed>0.7283543093852057</speed>
  <fix>3d</fix>
</trkpt>
<trkpt lat="33.8101874" lon="-118.3940092">
  <ele>-0.119</ele>
  <time>2026-09-02T22:07:32Z</time>
  <course>186.32</course>
  <speed>0.7283543093852057</speed>
  <fix>3d</fix>
</trkpt>
<trkpt lat="33.8101873" lon="-118.3940092">
  <ele>-0.119</ele>
  <time>2026-09-02T22:07:32Z</time>
  <course>186.32</course>
  <speed>0.7283543093852057</speed>
  <fix>3d</fix>
</trkpt>
<trkpt lat="33.8101873" lon="-118.3940093">
  <ele>-0.119</ele>
  <time>2026-09-02T22:07:32Z</time>
  <course>186.32</course>
  <speed>0.7283543093852057</speed>
  <fix>3d</fix>
</trkpt>
<trkpt lat="33.8101873" lon="-118.3940093">
  <ele>-0.119</ele>
  <time>2026-09-02T22:07:32Z</time>
  <course>186.32</course>
  <speed>0.7283543093852057</speed>
  <fix>3d</fix>
</trkpt>
<trkpt lat="33.8101882" lon="-118.3940078">
  <ele>-0.11</ele>
  <time>2026-09-02T22:07:32Z</time>
  <course>223.26</course>
  <speed>0.73</speed>
  <fix>3d</fix>
</trkpt>
<trkpt lat="33.8101873" lon="-118.3940093">
  <ele>-0.119</ele>
  <time>2026-09-02T22:07:32Z</time>
  <course>186.32</course>
  <speed>0.7283543093852057</speed>
  <fix>3d</fix>
</trkpt>
<trkpt lat="33.8101872" lon="-118.3940094">
  <ele>-0.119</ele>
  <time>2026-09-02T22:07:32Z</time>
  <course>186.32</course>
  <speed>0.7283543093852057</speed>
  <fix>3d</fix>
</trkpt>
<trkpt lat="33.8101872" lon="-118.3940094">
  <ele>-0.119</ele>
  <time>2026-09-02T22:07:32Z</time>
  <course>186.32</course>
  <speed>0.7283543093852057</speed>
  <fix>3d</fix>
</trkpt>
<trkpt lat="33.8101871" lon="-118.3940095">
  <ele>-0.119</ele>
  <time>2026-09-02T22:07:32Z</time>
  <course>186.32</course>
  <speed>0.7283543093852057</speed>
  <fix>3d</fix>
</trkpt>
<trkpt lat="33.8101871" lon="-118.3940095">
  <ele>-0.119</ele>
  <time>2026-09-02T22:07:32Z</time>
  <course>186.32</course>
  <speed>0.7283543093852057</speed>
  <fix>3d</fix>
</trkpt>
<trkpt lat="33.8101871" lon="-118.3940095">
  <ele>-0.119</ele>
  <time>2026-09-02T22:07:32Z</time>
  <course>186.32</course>
  <speed>0.7283543093852057</speed>
  <fix>3d</fix>
</trkpt>
<trkpt lat="33.810187" lon="-118.3940096">
  <ele>-0.119</ele>
  <time>2026-09-02T22:07:32Z</time>
  <course>186.32</course>
  <speed>0.7283543093852057</speed>
  <fix>3d</fix>
</trkpt>
<trkpt lat="33.810187" lon="-118.3940096">
  <ele>-0.118</ele>
  <time>2026-09-02T22:07:32Z</time>
  <course>186.32</course>
  <speed>0.7283543093852057</speed>
  <fix>3d</fix>
</trkpt>
<trkpt lat="33.8101869" lon="-118.3940097">
  <ele>-0.118</ele>
  <time>2026-09-02T22:07:32Z</time>
  <course>186.32</course>
  <speed>0.7283543093852057</speed>
  <fix>3d</fix>
</trkpt>
<trkpt lat="33.8101869" lon="-118.3940097">
  <ele>-0.118</ele>
  <time>2026-09-02T22:07:32Z</time>
  <course>186.32</course>
  <speed>0.7283543093852057</speed>
  <fix>3d</fix>
</trkpt>
<trkpt lat="33.8101869" lon="-118.3940098">
  <ele>-0.118</ele>
  <time>2026-09-02T22:07:32Z</time>
  <course>186.32</course>
  <speed>0.7283543093852057</speed>
  <fix>3d</fix>
</trkpt>
<trkpt lat="33.8101868" lon="-118.3940098">
  <ele>-0.118</ele>
  <time>2026-09-02T22:07:32Z</time>
  <course>186.32</course>
  <speed>0.7283543093852057</speed>
  <fix>3d</fix>
</trkpt>
<trkpt lat="33.8101868" lon="-118.3940098">
  <ele>-0.118</ele>
  <time>2026-09-02T22:07:32Z</time>
  <course>186.32</course>
  <speed>0.7283543093852057</speed>
  <fix>3d</fix>
</trkpt>
<trkpt lat="33.8101872" lon="-118.3940089">
  <ele>-0.1</ele>
  <time>2026-09-02T22:07:32Z</time>
  <course>223.26</course>
  <speed>0.73</speed>
  <fix>3d</fix>
</trkpt>
<trkpt lat="33.8101868" lon="-118.3940098">
  <ele>-0.118</ele>
  <time>2026-09-02T22:07:32Z</time>
  <course>186.32</course>
  <speed>0.7283543093852057</speed>
  <fix>3d</fix>
</trkpt>
<trkpt lat="33.8101867" lon="-118.3940099">
  <ele>-0.118</ele>
  <time>2026-09-02T22:07:32Z</time>
  <course>186.32</course>
  <speed>0.7283543093852057</speed>
  <fix>3d</fix>
</trkpt>
<trkpt lat="33.8101867" lon="-118.39401">
  <ele>-0.118</ele>
  <time>2026-09-02T22:07:32Z</time>
  <course>186.32</course>
  <speed>0.7283543093852057</speed>
  <fix>3d</fix>
</trkpt>
<trkpt lat="33.8101867" lon="-118.39401">
  <ele>-0.117</ele>
  <time>2026-09-02T22:07:32Z</time>
  <course>186.32</course>
  <speed>0.7283543093852057</speed>
  <fix>3d</fix>
</trkpt>
<trkpt lat="33.8101866" lon="-118.39401">
  <ele>-0.117</ele>
  <time>2026-09-02T22:07:32Z</time>
  <course>186.32</course>
  <speed>0.7283543093852057</speed>
  <fix>3d</fix>
</trkpt>
<trkpt lat="33.8101866" lon="-118.3940101">
  <ele>-0.117</ele>
  <time>2026-09-02T22:07:32Z</time>
  <course>186.32</course>
  <speed>0.7283543093852057</speed>
  <fix>3d</fix>
</trkpt>
<trkpt lat="33.8101865" lon="-118.3940101">
  <ele>-0.117</ele>
  <time>2026-09-02T22:07:32Z</time>
  <course>186.32</course>
  <speed>0.7283543093852057</speed>
  <fix>3d</fix>
</trkpt>
<trkpt lat="33.8101865" lon="-118.3940102">
  <ele>-0.117</ele>
  <time>2026-09-02T22:07:32Z</time>
  <course>186.32</course>
  <speed>0.7283543093852057</speed>
  <fix>3d</fix>
</trkpt>
<trkpt lat="33.8101865" lon="-118.3940102">
  <ele>-0.117</ele>
  <time>2026-09-02T22:07:32Z</time>
  <course>186.32</course>
  <speed>0.7283543093852057</speed>
  <fix>3d</fix>
</trkpt>
<trkpt lat="33.8101864" lon="-118.3940103">
  <ele>-0.117</ele>
  <time>2026-09-02T22:07:32Z</time>
  <course>186.32</course>
  <speed>0.7283543093852057</speed>
  <fix>3d</fix>
</trkpt>
<trkpt lat="33.8101864" lon="-118.3940103">
  <ele>-0.117</ele>
  <time>2026-09-02T22:07:32Z</time>
  <course>186.32</course>
  <speed>0.7283543093852057</speed>
  <fix>3d</fix>
</trkpt>
<trkpt lat="33.8101863" lon="-118.3940103">
  <ele>-0.116</ele>
  <time>2026-09-02T22:07:32Z</time>
  <course>186.32</course>
  <speed>0.7283543093852057</speed>
  <fix>3d</fix>
</trkpt>
<trkpt lat="33.8101863" lon="-118.3940104">
  <ele>-0.116</ele>
  <time>2026-09-02T22:07:32Z</time>
  <course>186.32</course>
  <speed>0.7283543093852057</speed>
  <fix>3d</fix>
</trkpt>
<trkpt lat="33.8101872" lon="-118.3940089">
  <ele>-0.1</ele>
  <time>2026-09-02T22:07:32Z</time>
  <course>223.26</course>
  <speed>0.73</speed>
  <fix>3d</fix>
</trkpt>
<trkpt lat="33.8101863" lon="-118.3940104">
  <ele>-0.116</ele>
  <time>2026-09-02T22:07:32Z</time>
  <course>186.32</course>
  <speed>0.7283543093852057</speed>
  <fix>3d</fix>
</trkpt>
<trkpt lat="33.8101862" lon="-118.3940105">
  <ele>-0.116</ele>
  <time>2026-09-02T22:07:32Z</time>
  <course>186.32</course>
  <speed>0.7283543093852057</speed>
  <fix>3d</fix>
</trkpt>
<trkpt lat="33.8101862" lon="-118.3940105">
  <ele>-0.116</ele>
  <time>2026-09-02T22:07:32Z</time>
  <course>186.32</course>
  <speed>0.7283543093852057</speed>
  <fix>3d</fix>
</trkpt>
<trkpt lat="33.8101861" lon="-118.3940106">
  <ele>-0.116</ele>
  <time>2026-09-02T22:07:32Z</time>
  <course>186.32</course>
  <speed>0.7283543093852057</speed>
  <fix>3d</fix>
</trkpt>
<trkpt lat="33.8101861" lon="-118.3940106">
  <ele>-0.116</ele>
  <time>2026-09-02T22:07:32Z</time>
  <course>186.32</course>
  <speed>0.7283543093852057</speed>
  <fix>3d</fix>
</trkpt>
<trkpt lat="33.8101861" lon="-118.3940106">
  <ele>-0.116</ele>
  <time>2026-09-02T22:07:32Z</time>
  <course>186.32</course>
  <speed>0.7283543093852057</speed>
  <fix>3d</fix>
</trkpt>
<trkpt lat="33.810186" lon="-118.3940107">
  <ele>-0.116</ele>
  <time>2026-09-02T22:07:32Z</time>
  <course>186.32</course>
  <speed>0.7283543093852057</speed>
  <fix>3d</fix>
</trkpt>
<trkpt lat="33.810186" lon="-118.3940107">
  <ele>-0.116</ele>
  <time>2026-09-02T22:07:32Z</time>
  <course>186.32</course>
  <speed>0.7283543093852057</speed>
  <fix>3d</fix>
</trkpt>
<trkpt lat="33.810186" lon="-118.3940108">
  <ele>-0.116</ele>
  <time>2026-09-02T22:07:32Z</time>
  <course>186.32</course>
  <speed>0.7283543093852057</speed>
  <fix>3d</fix>
</trkpt>
<trkpt lat="33.8101859" lon="-118.3940108">
  <ele>-0.116</ele>
  <time>2026-09-02T22:07:32Z</time>
  <course>186.32</course>
  <speed>0.7283543093852057</speed>
  <fix>3d</fix>
</trkpt>
<trkpt lat="33.8101859" lon="-118.3940109">
  <ele>-0.116</ele>
  <time>2026-09-02T22:07:32Z</time>
  <course>186.32</course>
  <speed>0.7283543093852057</speed>
  <fix>3d</fix>
</trkpt>
<trkpt lat="33.8101858" lon="-118.3940109">
  <ele>-0.116</ele>
  <time>2026-09-02T22:07:32Z</time>
  <course>186.32</course>
  <speed>0.7283543093852057</speed>
  <fix>3d</fix>
</trkpt>
<trkpt lat="33.8101858" lon="-118.3940109">
  <ele>-0.116</ele>
  <time>2026-09-02T22:07:32Z</time>
  <course>186.32</course>
  <speed>0.7283543093852057</speed>
  <fix>3d</fix>
</trkpt>
<trkpt lat="33.8101863" lon="-118.39401">
  <ele>-0.1</ele>
  <time>2026-09-02T22:07:32Z</time>
  <course>223.26</course>
  <speed>0.73</speed>
  <fix>3d</fix>
</trkpt>
<trkpt lat="33.8101858" lon="-118.3940109">
  <ele>-0.116</ele>
  <time>2026-09-02T22:07:32Z</time>
  <course>186.32</course>
  <speed>0.7283543093852057</speed>
  <fix>3d</fix>
</trkpt>
<trkpt lat="33.8101858" lon="-118.394011">
  <ele>-0.116</ele>
  <time>2026-09-02T22:07:32Z</time>
  <course>186.32</course>
  <speed>0.7283543093852057</speed>
  <fix>3d</fix>
</trkpt>
<trkpt lat="33.8101857" lon="-118.394011">
  <ele>-0.115</ele>
  <time>2026-09-02T22:07:32Z</time>
  <course>186.32</course>
  <speed>0.7283543093852057</speed>
  <fix>3d</fix>
</trkpt>
<trkpt lat="33.8101857" lon="-118.3940111">
  <ele>-0.115</ele>
  <time>2026-09-02T22:07:32Z</time>
  <course>186.32</course>
  <speed>0.7283543093852057</speed>
  <fix>3d</fix>
</trkpt>
<trkpt lat="33.8101857" lon="-118.3940111">
  <ele>-0.115</ele>
  <time>2026-09-02T22:07:32Z</time>
  <course>186.32</course>
  <speed>0.7283543093852057</speed>
  <fix>3d</fix>
</trkpt>
<trkpt lat="33.8101856" lon="-118.3940112">
  <ele>-0.115</ele>
  <time>2026-09-02T22:07:32Z</time>
  <course>186.32</course>
  <speed>0.7283543093852057</speed>
  <fix>3d</fix>
</trkpt>
<trkpt lat="33.8101856" lon="-118.3940112">
  <ele>-0.115</ele>
  <time>2026-09-02T22:07:32Z</time>
  <course>186.32</course>
  <speed>0.7283543093852057</speed>
  <fix>3d</fix>
</trkpt>
<trkpt lat="33.8101855" lon="-118.3940112">
  <ele>-0.115</ele>
  <time>2026-09-02T22:07:32Z</time>
  <course>186.32</course>
  <speed>0.7283543093852057</speed>
  <fix>3d</fix>
</trkpt>
<trkpt lat="33.8101855" lon="-118.3940113">
  <ele>-0.115</ele>
  <time>2026-09-02T22:07:32Z</time>
  <course>186.32</course>
  <speed>0.7283543093852057</speed>
  <fix>3d</fix>
</trkpt>
<trkpt lat="33.8101855" lon="-118.3940113">
  <ele>-0.115</ele>
  <time>2026-09-02T22:07:32Z</time>
  <course>186.32</course>
  <speed>0.7283543093852057</speed>
  <fix>3d</fix>
</trkpt>
<trkpt lat="33.8101854" lon="-118.3940114">
  <ele>-0.115</ele>
  <time>2026-09-02T22:07:32Z</time>
  <course>186.32</course>
  <speed>0.7283543093852057</speed>
  <fix>3d</fix>
</trkpt>
<trkpt lat="33.8101854" lon="-118.3940114">
  <ele>-0.115</ele>
  <time>2026-09-02T22:07:32Z</time>
  <course>186.32</course>
  <speed>0.7283543093852057</speed>
  <fix>3d</fix>
</trkpt>
<trkpt lat="33.8101854" lon="-118.3940115">
  <ele>-0.115</ele>
  <time>2026-09-02T22:07:32Z</time>
  <course>186.32</course>
  <speed>0.7283543093852057</speed>
  <fix>3d</fix>
</trkpt>
<trkpt lat="33.8101854" lon="-118.3940115">
  <ele>-0.115</ele>
  <time>2026-09-02T22:07:32Z</time>
  <course>186.32</course>
  <speed>0.7283543093852057</speed>
  <fix>3d</fix>
</trkpt>
<trkpt lat="33.8101863" lon="-118.39401">
  <ele>-0.1</ele>
  <time>2026-09-02T22:07:32Z</time>
  <course>223.26</course>
  <speed>0.73</speed>
  <fix>3d</fix>
</trkpt>
<trkpt lat="33.8101853" lon="-118.3940115">
  <ele>-0.115</ele>
  <time>2026-09-02T22:07:32Z</time>
  <course>186.32</course>
  <speed>0.7283543093852057</speed>
  <fix>3d</fix>
</trkpt>
<trkpt lat="33.8101852" lon="-118.3940116">
  <ele>-0.115</ele>
  <time>2026-09-02T22:07:32Z</time>
  <course>186.32</course>
  <speed>0.7283543093852057</speed>
  <fix>3d</fix>
</trkpt>
<trkpt lat="33.8101852" lon="-118.3940117">
  <ele>-0.115</ele>
  <time>2026-09-02T22:07:32Z</time>
  <course>186.32</course>
  <speed>0.7283543093852057</speed>
  <fix>3d</fix>
</trkpt>
<trkpt lat="33.8101852" lon="-118.3940117">
  <ele>-0.115</ele>
  <time>2026-09-02T22:07:32Z</time>
  <course>186.32</course>
  <speed>0.7283543093852057</speed>
  <fix>3d</fix>
</trkpt>
<trkpt lat="33.8101851" lon="-118.3940117">
  <ele>-0.115</ele>
  <time>2026-09-02T22:07:32Z</time>
  <course>186.32</course>
  <speed>0.7283543093852057</speed>
  <fix>3d</fix>
</trkpt>
<trkpt lat="33.8101851" lon="-118.3940118">
  <ele>-0.115</ele>
  <time>2026-09-02T22:07:32Z</time>
  <course>186.32</course>
  <speed>0.7283543093852057</speed>
  <fix>3d</fix>
</trkpt>
<trkpt lat="33.810185" lon="-118.3940118">
  <ele>-0.115</ele>
  <time>2026-09-02T22:07:32Z</time>
  <course>186.32</course>
  <speed>0.7283543093852057</speed>
  <fix>3d</fix>
</trkpt>
<trkpt lat="33.810185" lon="-118.3940119">
  <ele>-0.115</ele>
  <time>2026-09-02T22:07:32Z</time>
  <course>186.32</course>
  <speed>0.7283543093852057</speed>
  <fix>3d</fix>
</trkpt>
<trkpt lat="33.8101849" lon="-118.3940119">
  <ele>-0.115</ele>
  <time>2026-09-02T22:07:32Z</time>
  <course>186.32</course>
  <speed>0.7283543093852057</speed>
  <fix>3d</fix>
</trkpt>
<trkpt lat="33.8101849" lon="-118.394012">
  <ele>-0.115</ele>
  <time>2026-09-02T22:07:32Z</time>
  <course>186.31</course>
  <speed>0.7283543093852057</speed>
  <fix>3d</fix>
</trkpt>
<trkpt lat="33.8101849" lon="-118.394012">
  <ele>-0.116</ele>
  <time>2026-09-02T22:07:32Z</time>
  <course>186.31</course>
  <speed>0.7283543093852057</speed>
  <fix>3d</fix>
</trkpt>
<trkpt lat="33.8101853" lon="-118.3940111">
  <ele>-0.1</ele>
  <time>2026-09-02T22:07:32Z</time>
  <course>223.26</course>
  <speed>0.73</speed>
  <fix>3d</fix>
</trkpt>
<trkpt lat="33.8101849" lon="-118.394012">
  <ele>-0.116</ele>
  <time>2026-09-02T22:07:32Z</time>
  <course>186.31</course>
  <speed>0.7283543093852057</speed>
  <fix>3d</fix>
</trkpt>
<trkpt lat="33.8101848" lon="-118.3940121">
  <ele>-0.116</ele>
  <time>2026-09-02T22:07:32Z</time>
  <course>186.31</course>
  <speed>0.7283543093852057</speed>
  <fix>3d</fix>
</trkpt>
<trkpt lat="33.8101847" lon="-118.3940121">
  <ele>-0.116</ele>
  <time>2026-09-02T22:07:32Z</time>
  <course>186.31</course>
  <speed>0.7283543093852057</speed>
  <fix>3d</fix>
</trkpt>
<trkpt lat="33.8101847" lon="-118.3940122">
  <ele>-0.116</ele>
  <time>2026-09-02T22:07:32Z</time>
  <course>186.31</course>
  <speed>0.7283543093852057</speed>
  <fix>3d</fix>
</trkpt>
<trkpt lat="33.8101847" lon="-118.3940122">
  <ele>-0.116</ele>
  <time>2026-09-02T22:07:32Z</time>
  <course>186.31</course>
  <speed>0.7283543093852057</speed>
  <fix>3d</fix>
</trkpt>
<trkpt lat="33.8101846" lon="-118.3940123">
  <ele>-0.116</ele>
  <time>2026-09-02T22:07:32Z</time>
  <course>186.31</course>
  <speed>0.7283543093852057</speed>
  <fix>3d</fix>
</trkpt>
<trkpt lat="33.8101846" lon="-118.3940123">
  <ele>-0.116</ele>
  <time>2026-09-02T22:07:32Z</time>
  <course>186.31</course>
  <speed>0.7283543093852057</speed>
  <fix>3d</fix>
</trkpt>
<trkpt lat="33.8101846" lon="-118.3940123">
  <ele>-0.116</ele>
  <time>2026-09-02T22:07:32Z</time>
  <course>186.31</course>
  <speed>0.7283543093852057</speed>
  <fix>3d</fix>
</trkpt>
<trkpt lat="33.8101845" lon="-118.3940124">
  <ele>-0.116</ele>
  <time>2026-09-02T22:07:32Z</time>
  <course>186.31</course>
  <speed>0.7283543093852057</speed>
  <fix>3d</fix>
</trkpt>
<trkpt lat="33.8101845" lon="-118.3940124">
  <ele>-0.116</ele>
  <time>2026-09-02T22:07:32Z</time>
  <course>186.31</course>
  <speed>0.7283543093852057</speed>
  <fix>3d</fix>
</trkpt>
<trkpt lat="33.8101845" lon="-118.3940125">
  <ele>-0.116</ele>
  <time>2026-09-02T22:07:32Z</time>
  <course>186.31</course>
  <speed>0.7283543093852057</speed>
  <fix>3d</fix>
</trkpt>
<trkpt lat="33.8101844" lon="-118.3940125">
  <ele>-0.116</ele>
  <time>2026-09-02T22:07:32Z</time>
  <course>186.31</course>
  <speed>0.7283543093852057</speed>
  <fix>3d</fix>
</trkpt>
<trkpt lat="33.8101844" lon="-118.3940125">
  <ele>-0.116</ele>
  <time>2026-09-02T22:07:32Z</time>
  <course>186.31</course>
  <speed>0.7283543093852057</speed>
  <fix>3d</fix>
</trkpt>
<trkpt lat="33.8101853" lon="-118.3940111">
  <ele>-0.1</ele>
  <time>2026-09-02T22:07:32Z</time>
  <course>223.26</course>
  <speed>0.73</speed>
  <fix>3d</fix>
</trkpt>
<trkpt lat="33.8101844" lon="-118.3940126">
  <ele>-0.116</ele>
  <time>2026-09-02T22:07:32Z</time>
  <course>186.31</course>
  <speed>0.7283543093852057</speed>
  <fix>3d</fix>
</trkpt>
<trkpt lat="33.8101843" lon="-118.3940126">
  <ele>-0.116</ele>
  <time>2026-09-02T22:07:32Z</time>
  <course>186.31</course>
  <speed>0.7283543093852057</speed>
  <fix>3d</fix>
</trkpt>
<trkpt lat="33.8101843" lon="-118.3940127">
  <ele>-0.116</ele>
  <time>2026-09-02T22:07:32Z</time>
  <course>186.31</course>
  <speed>0.7283543093852057</speed>
  <fix>3d</fix>
</trkpt>
<trkpt lat="33.8101842" lon="-118.3940127">
  <ele>-0.116</ele>
  <time>2026-09-02T22:07:32Z</time>
  <course>186.31</course>
  <speed>0.7283543093852057</speed>
  <fix>3d</fix>
</trkpt>
<trkpt lat="33.8101842" lon="-118.3940128">
  <ele>-0.116</ele>
  <time>2026-09-02T22:07:32Z</time>
  <course>186.31</course>
  <speed>0.7283543093852057</speed>
  <fix>3d</fix>
</trkpt>
<trkpt lat="33.8101842" lon="-118.3940128">
  <ele>-0.115</ele>
  <time>2026-09-02T22:07:32Z</time>
  <course>186.31</course>
  <speed>0.7283543093852057</speed>
  <fix>3d</fix>
</trkpt>
<trkpt lat="33.8101841" lon="-118.3940128">
  <ele>-0.116</ele>
  <time>2026-09-02T22:07:32Z</time>
  <course>186.31</course>
  <speed>0.7283543093852057</speed>
  <fix>3d</fix>
</trkpt>
<trkpt lat="33.8101841" lon="-118.3940129">
  <ele>-0.116</ele>
  <time>2026-09-02T22:07:32Z</time>
  <course>186.31</course>
  <speed>0.7283543093852057</speed>
  <fix>3d</fix>
</trkpt>
<trkpt lat="33.8101841" lon="-118.3940129">
  <ele>-0.116</ele>
  <time>2026-09-02T22:07:32Z</time>
  <course>186.31</course>
  <speed>0.7283543093852057</speed>
  <fix>3d</fix>
</trkpt>
<trkpt lat="33.810184" lon="-118.394013">
  <ele>-0.116</ele>
  <time>2026-09-02T22:07:32Z</time>
  <course>186.31</course>
  <speed>0.7283543093852057</speed>
  <fix>3d</fix>
</trkpt>
<trkpt lat="33.810184" lon="-118.394013">
  <ele>-0.116</ele>
  <time>2026-09-02T22:07:32Z</time>
  <course>186.31</course>
  <speed>0.7283543093852057</speed>
  <fix>3d</fix>
</trkpt>
<trkpt lat="33.810184" lon="-118.394013">
  <ele>-0.116</ele>
  <time>2026-09-02T22:07:32Z</time>
  <course>186.31</course>
  <speed>0.7283543093852057</speed>
  <fix>3d</fix>
</trkpt>
<trkpt lat="33.8101839" lon="-118.3940131">
  <ele>-0.116</ele>
  <time>2026-09-02T22:07:32Z</time>
  <course>186.31</course>
  <speed>0.7283543093852057</speed>
  <fix>3d</fix>
</trkpt>
<trkpt lat="33.8101839" lon="-118.3940131">
  <ele>-0.116</ele>
  <time>2026-09-02T22:07:32Z</time>
  <course>186.31</course>
  <speed>0.7283543093852057</speed>
  <fix>3d</fix>
</trkpt>
<trkpt lat="33.8101844" lon="-118.3940122">
  <ele>-0.1</ele>
  <time>2026-09-02T22:07:32Z</time>
  <course>223.26</course>
  <speed>0.73</speed>
  <fix>3d</fix>
</trkpt>
<trkpt lat="33.8101839" lon="-118.3940131">
  <ele>-0.116</ele>
  <time>2026-09-02T22:07:32Z</time>
  <course>186.31</course>
  <speed>0.7283543093852057</speed>
  <fix>3d</fix>
</trkpt>
<trkpt lat="33.8101838" lon="-118.3940132">
  <ele>-0.116</ele>
  <time>2026-09-02T22:07:32Z</time>
  <course>186.31</course>
  <speed>0.7283543093852057</speed>
  <fix>3d</fix>
</trkpt>
<trkpt lat="33.8101838" lon="-118.3940132">
  <ele>-0.116</ele>
  <time>2026-09-02T22:07:32Z</time>
  <course>186.31</course>
  <speed>0.7283543093852057</speed>
  <fix>3d</fix>
</trkpt>
<trkpt lat="33.8101837" lon="-118.3940133">
  <ele>-0.116</ele>
  <time>2026-09-02T22:07:32Z</time>
  <course>186.31</course>
  <speed>0.7283543093852057</speed>
  <fix>3d</fix>
</trkpt>
<trkpt lat="33.8101837" lon="-118.3940133">
  <ele>-0.116</ele>
  <time>2026-09-02T22:07:32Z</time>
  <course>186.31</course>
  <speed>0.7283543093852057</speed>
  <fix>3d</fix>
</trkpt>
<trkpt lat="33.8101837" lon="-118.3940134">
  <ele>-0.116</ele>
  <time>2026-09-02T22:07:32Z</time>
  <course>186.31</course>
  <speed>0.7283543093852057</speed>
  <fix>3d</fix>
</trkpt>
<trkpt lat="33.8101836" lon="-118.3940134">
  <ele>-0.116</ele>
  <time>2026-09-02T22:07:32Z</time>
  <course>186.31</course>
  <speed>0.7283543093852057</speed>
  <fix>3d</fix>
</trkpt>
<trkpt lat="33.8101836" lon="-118.3940134">
  <ele>-0.116</ele>
  <time>2026-09-02T22:07:32Z</time>
  <course>186.31</course>
  <speed>0.7283543093852057</speed>
  <fix>3d</fix>
</trkpt>
<trkpt lat="33.8101836" lon="-118.3940135">
  <ele>-0.116</ele>
  <time>2026-09-02T22:07:32Z</time>
  <course>186.31</course>
  <speed>0.7283543093852057</speed>
  <fix>3d</fix>
</trkpt>
<trkpt lat="33.8101835" lon="-118.3940135">
  <ele>-0.116</ele>
  <time>2026-09-02T22:07:32Z</time>
  <course>186.31</course>
  <speed>0.7283543093852057</speed>
  <fix>3d</fix>
</trkpt>
<trkpt lat="33.8101835" lon="-118.3940136">
  <ele>-0.116</ele>
  <time>2026-09-02T22:07:32Z</time>
  <course>186.31</course>
  <speed>0.7283543093852057</speed>
  <fix>3d</fix>
</trkpt>
<trkpt lat="33.8101834" lon="-118.3940136">
  <ele>-0.116</ele>
  <time>2026-09-02T22:07:32Z</time>
  <course>186.31</course>
  <speed>0.7283543093852057</speed>
  <fix>3d</fix>
</trkpt>
<trkpt lat="33.8101834" lon="-118.3940136">
  <ele>-0.116</ele>
  <time>2026-09-02T22:07:32Z</time>
  <course>186.31</course>
  <speed>0.7283543093852057</speed>
  <fix>3d</fix>
</trkpt>
<trkpt lat="33.8101844" lon="-118.3940122">
  <ele>-0.1</ele>
  <time>2026-09-02T22:07:32Z</time>
  <course>223.26</course>
  <speed>0.73</speed>
  <fix>3d</fix>
</trkpt>
<trkpt lat="33.8101834" lon="-118.3940137">
  <ele>-0.116</ele>
  <time>2026-09-02T22:07:32Z</time>
  <course>186.31</course>
  <speed>0.7283543093852057</speed>
  <fix>3d</fix>
</trkpt>
<trkpt lat="33.8101834" lon="-118.3940137">
  <ele>-0.116</ele>
  <time>2026-09-02T22:07:32Z</time>
  <course>186.31</course>
  <speed>0.7283543093852057</speed>
  <fix>3d</fix>
</trkpt>
<trkpt lat="33.8101833" lon="-118.3940138">
  <ele>-0.116</ele>
  <time>2026-09-02T22:07:32Z</time>
  <course>186.31</course>
  <speed>0.7283543093852057</speed>
  <fix>3d</fix>
</trkpt>
<trkpt lat="33.8101833" lon="-118.3940138">
  <ele>-0.116</ele>
  <time>2026-09-02T22:07:32Z</time>
  <course>186.31</course>
  <speed>0.7283543093852057</speed>
  <fix>3d</fix>
</trkpt>
<trkpt lat="33.8101832" lon="-118.3940139">
  <ele>-0.116</ele>
  <time>2026-09-02T22:07:32Z</time>
  <course>186.31</course>
  <speed>0.7283543093852057</speed>
  <fix>3d</fix>
</trkpt>
<trkpt lat="33.8101832" lon="-118.3940139">
  <ele>-0.116</ele>
  <time>2026-09-02T22:07:32Z</time>
  <course>186.31</course>
  <speed>0.7283543093852057</speed>
  <fix>3d</fix>
</trkpt>
<trkpt lat="33.8101831" lon="-118.394014">
  <ele>-0.116</ele>
  <time>2026-09-02T22:07:32Z</time>
  <course>186.31</course>
  <speed>0.7283543093852057</speed>
  <fix>3d</fix>
</trkpt>
<trkpt lat="33.8101831" lon="-118.394014">
  <ele>-0.116</ele>
  <time>2026-09-02T22:07:32Z</time>
  <course>186.31</course>
  <speed>0.7283543093852057</speed>
  <fix>3d</fix>
</trkpt>
<trkpt lat="33.8101831" lon="-118.3940141">
  <ele>-0.116</ele>
  <time>2026-09-02T22:07:32Z</time>
  <course>186.31</course>
  <speed>0.7283543093852057</speed>
  <fix>3d</fix>
</trkpt>
<trkpt lat="33.810183" lon="-118.3940141">
  <ele>-0.116</ele>
  <time>2026-09-02T22:07:32Z</time>
  <course>186.31</course>
  <speed>0.7283543093852057</speed>
  <fix>3d</fix>
</trkpt>
<trkpt lat="33.810183" lon="-118.3940142">
  <ele>-0.115</ele>
  <time>2026-09-02T22:07:32Z</time>
  <course>186.31</course>
  <speed>0.7283543093852057</speed>
  <fix>3d</fix>
</trkpt>
<trkpt lat="33.8101829" lon="-118.3940142">
  <ele>-0.115</ele>
  <time>2026-09-02T22:07:32Z</time>
  <course>186.31</course>
  <speed>0.7283543093852057</speed>
  <fix>3d</fix>
</trkpt>
<trkpt lat="33.8101834" lon="-118.3940133">
  <ele>-0.11</ele>
  <time>2026-09-02T22:07:32Z</time>
  <course>223.26</course>
  <speed>0.73</speed>
  <fix>3d</fix>
</trkpt>
<trkpt lat="33.8101829" lon="-118.3940142">
  <ele>-0.115</ele>
  <time>2026-09-02T22:07:32Z</time>
  <course>186.31</course>
  <speed>0.7283543093852057</speed>
  <fix>3d</fix>
</trkpt>
<trkpt lat="33.8101829" lon="-118.3940143">
  <ele>-0.115</ele>
  <time>2026-09-02T22:07:32Z</time>
  <course>186.31</course>
  <speed>0.7283543093852057</speed>
  <fix>3d</fix>
</trkpt>
<trkpt lat="33.8101828" lon="-118.3940143">
  <ele>-0.115</ele>
  <time>2026-09-02T22:07:32Z</time>
  <course>186.31</course>
  <speed>0.7283543093852057</speed>
  <fix>3d</fix>
</trkpt>
<trkpt lat="33.8101828" lon="-118.3940144">
  <ele>-0.115</ele>
  <time>2026-09-02T22:07:32Z</time>
  <course>186.31</course>
  <speed>0.7283543093852057</speed>
  <fix>3d</fix>
</trkpt>
<trkpt lat="33.8101827" lon="-118.3940144">
  <ele>-0.115</ele>
  <time>2026-09-02T22:07:32Z</time>
  <course>186.31</course>
  <speed>0.7283543093852057</speed>
  <fix>3d</fix>
</trkpt>
<trkpt lat="33.8101827" lon="-118.3940145">
  <ele>-0.115</ele>
  <time>2026-09-02T22:07:32Z</time>
  <course>186.31</course>
  <speed>0.7283543093852057</speed>
  <fix>3d</fix>
</trkpt>
<trkpt lat="33.8101827" lon="-118.3940145">
  <ele>-0.115</ele>
  <time>2026-09-02T22:07:32Z</time>
  <course>186.31</course>
  <speed>0.7283543093852057</speed>
  <fix>3d</fix>
</trkpt>
<trkpt lat="33.8101826" lon="-118.3940146">
  <ele>-0.115</ele>
  <time>2026-09-02T22:07:32Z</time>
  <course>186.31</course>
  <speed>0.7283543093852057</speed>
  <fix>3d</fix>
</trkpt>
<trkpt lat="33.8101826" lon="-118.3940146">
  <ele>-0.114</ele>
  <time>2026-09-02T22:07:32Z</time>
  <course>186.31</course>
  <speed>0.7283543093852057</speed>
  <fix>3d</fix>
</trkpt>
<trkpt lat="33.8101826" lon="-118.3940146">
  <ele>-0.114</ele>
  <time>2026-09-02T22:07:32Z</time>
  <course>186.31</course>
  <speed>0.7283543093852057</speed>
  <fix>3d</fix>
</trkpt>
<trkpt lat="33.8101825" lon="-118.3940147">
  <ele>-0.114</ele>
  <time>2026-09-02T22:07:32Z</time>
  <course>186.31</course>
  <speed>0.7283543093852057</speed>
  <fix>3d</fix>
</trkpt>
<trkpt lat="33.8101825" lon="-118.3940147">
  <ele>-0.114</ele>
  <time>2026-09-02T22:07:32Z</time>
  <course>186.31</course>
  <speed>0.7283543093852057</speed>
  <fix>3d</fix>
</trkpt>
<trkpt lat="33.8101825" lon="-118.3940147">
  <ele>-0.114</ele>
  <time>2026-09-02T22:07:32Z</time>
  <course>186.31</course>
  <speed>0.7283543093852057</speed>
  <fix>3d</fix>
</trkpt>
<trkpt lat="33.8101834" lon="-118.3940133">
  <ele>-0.11</ele>
  <time>2026-09-02T22:07:32Z</time>
  <course>223.26</course>
  <speed>0.73</speed>
  <fix>3d</fix>
</trkpt>
<trkpt lat="33.8101825" lon="-118.3940147">
  <ele>-0.114</ele>
  <time>2026-09-02T22:07:32Z</time>
  <course>186.31</course>
  <speed>0.7283543093852057</speed>
  <fix>3d</fix>
</trkpt>
<trkpt lat="33.8101824" lon="-118.3940148">
  <ele>-0.114</ele>
  <time>2026-09-02T22:07:32Z</time>
  <course>186.31</course>
  <speed>0.7283543093852057</speed>
  <fix>3d</fix>
</trkpt>
<trkpt lat="33.8101824" lon="-118.3940149">
  <ele>-0.113</ele>
  <time>2026-09-02T22:07:32Z</time>
  <course>186.31</course>
  <speed>0.7283543093852057</speed>
  <fix>3d</fix>
</trkpt>
<trkpt lat="33.8101823" lon="-118.3940149">
  <ele>-0.113</ele>
  <time>2026-09-02T22:07:32Z</time>
  <course>186.31</course>
  <speed>0.7283543093852057</speed>
  <fix>3d</fix>
</trkpt>
<trkpt lat="33.8101823" lon="-118.394015">
  <ele>-0.113</ele>
  <time>2026-09-02T22:07:32Z</time>
  <course>186.31</course>
  <speed>0.7283543093852057</speed>
  <fix>3d</fix>
</trkpt>
<trkpt lat="33.8101822" lon="-118.394015">
  <ele>-0.113</ele>
  <time>2026-09-02T22:07:32Z</time>
  <course>186.31</course>
  <speed>0.7283543093852057</speed>
  <fix>3d</fix>
</trkpt>
<trkpt lat="33.8101822" lon="-118.394015">
  <ele>-0.113</ele>
  <time>2026-09-02T22:07:32Z</time>
  <course>186.31</course>
  <speed>0.7283543093852057</speed>
  <fix>3d</fix>
</trkpt>
<trkpt lat="33.8101822" lon="-118.3940151">
  <ele>-0.113</ele>
  <time>2026-09-02T22:07:32Z</time>
  <course>186.31</course>
  <speed>0.7283543093852057</speed>
  <fix>3d</fix>
</trkpt>
<trkpt lat="33.8101821" lon="-118.3940151">
  <ele>-0.112</ele>
  <time>2026-09-02T22:07:32Z</time>
  <course>186.31</course>
  <speed>0.7283543093852057</speed>
  <fix>3d</fix>
</trkpt>
<trkpt lat="33.8101821" lon="-118.3940152">
  <ele>-0.112</ele>
  <time>2026-09-02T22:07:32Z</time>
  <course>186.31</course>
  <speed>0.7283543093852057</speed>
  <fix>3d</fix>
</trkpt>
<trkpt lat="33.8101821" lon="-118.3940152">
  <ele>-0.112</ele>
  <time>2026-09-02T22:07:32Z</time>
  <course>186.31</course>
  <speed>0.7283543093852057</speed>
  <fix>3d</fix>
</trkpt>
<trkpt lat="33.810182" lon="-118.3940152">
  <ele>-0.112</ele>
  <time>2026-09-02T22:07:32Z</time>
  <course>186.31</course>
  <speed>0.7283543093852057</speed>
  <fix>3d</fix>
</trkpt>
<trkpt lat="33.810182" lon="-118.3940153">
  <ele>-0.112</ele>
  <time>2026-09-02T22:07:32Z</time>
  <course>186.31</course>
  <speed>0.7283543093852057</speed>
  <fix>3d</fix>
</trkpt>
<trkpt lat="33.810182" lon="-118.3940153">
  <ele>-0.112</ele>
  <time>2026-09-02T22:07:32Z</time>
  <course>186.31</course>
  <speed>0.7283543093852057</speed>
  <fix>3d</fix>
</trkpt>
<trkpt lat="33.8101824" lon="-118.3940144">
  <ele>-0.1</ele>
  <time>2026-09-02T22:07:32Z</time>
  <course>223.26</course>
  <speed>0.73</speed>
  <fix>3d</fix>
</trkpt>
<trkpt lat="33.8101819" lon="-118.3940153">
  <ele>-0.111</ele>
  <time>2026-09-02T22:07:32Z</time>
  <course>186.31</course>
  <speed>0.7283543093852057</speed>
  <fix>3d</fix>
</trkpt>
<trkpt lat="33.8101819" lon="-118.3940154">
  <ele>-0.111</ele>
  <time>2026-09-02T22:07:32Z</time>
  <course>186.31</course>
  <speed>0.7283543093852057</speed>
  <fix>3d</fix>
</trkpt>
<trkpt lat="33.8101819" lon="-118.3940154">
  <ele>-0.111</ele>
  <time>2026-09-02T22:07:32Z</time>
  <course>186.31</course>
  <speed>0.7283543093852057</speed>
  <fix>3d</fix>
</trkpt>
<trkpt lat="33.8101818" lon="-118.3940155">
  <ele>-0.111</ele>
  <time>2026-09-02T22:07:32Z</time>
  <course>186.31</course>
  <speed>0.7283543093852057</speed>
  <fix>3d</fix>
</trkpt>
<trkpt lat="33.8101818" lon="-118.3940155">
  <ele>-0.111</ele>
  <time>2026-09-02T22:07:32Z</time>
  <course>186.31</course>
  <speed>0.7283543093852057</speed>
  <fix>3d</fix>
</trkpt>
<trkpt lat="33.8101817" lon="-118.3940156">
  <ele>-0.111</ele>
  <time>2026-09-02T22:07:32Z</time>
  <course>186.31</course>
  <speed>0.7283543093852057</speed>
  <fix>3d</fix>
</trkpt>
<trkpt lat="33.8101817" lon="-118.3940156">
  <ele>-0.11</ele>
  <time>2026-09-02T22:07:32Z</time>
  <course>186.31</course>
  <speed>0.7283543093852057</speed>
  <fix>3d</fix>
</trkpt>
<trkpt lat="33.8101816" lon="-118.3940157">
  <ele>-0.11</ele>
  <time>2026-09-02T22:07:32Z</time>
  <course>186.31</course>
  <speed>0.7283543093852057</speed>
  <fix>3d</fix>
</trkpt>
<trkpt lat="33.8101816" lon="-118.3940157">
  <ele>-0.11</ele>
  <time>2026-09-02T22:07:32Z</time>
  <course>186.31</course>
  <speed>0.7283543093852057</speed>
  <fix>3d</fix>
</trkpt>
<trkpt lat="33.8101816" lon="-118.3940158">
  <ele>-0.11</ele>
  <time>2026-09-02T22:07:32Z</time>
  <course>186.31</course>
  <speed>0.7283543093852057</speed>
  <fix>3d</fix>
</trkpt>
<trkpt lat="33.8101815" lon="-118.3940158">
  <ele>-0.109</ele>
  <time>2026-09-02T22:07:32Z</time>
  <course>186.31</course>
  <speed>0.7283543093852057</speed>
  <fix>3d</fix>
</trkpt>
<trkpt lat="33.8101815" lon="-118.3940158">
  <ele>-0.109</ele>
  <time>2026-09-02T22:07:32Z</time>
  <course>186.31</course>
  <speed>0.7283543093852057</speed>
  <fix>3d</fix>
</trkpt>
<trkpt lat="33.8101824" lon="-118.3940144">
  <ele>-0.1</ele>
  <time>2026-09-02T22:07:32Z</time>
  <course>223.26</course>
  <speed>0.73</speed>
  <fix>3d</fix>
</trkpt>
<trkpt lat="33.8101815" lon="-118.3940158">
  <ele>-0.109</ele>
  <time>2026-09-02T22:07:32Z</time>
  <course>186.31</course>
  <speed>0.7283543093852057</speed>
  <fix>3d</fix>
</trkpt>
<trkpt lat="33.8101813" lon="-118.3940161">
  <ele>-0.108</ele>
  <time>2026-09-02T22:07:32Z</time>
  <course>186.31</course>
  <speed>0.7283543093852057</speed>
  <fix>3d</fix>
</trkpt>
<trkpt lat="33.8101812" lon="-118.3940161">
  <ele>-0.108</ele>
  <time>2026-09-02T22:07:32Z</time>
  <course>186.31</course>
  <speed>0.7283543093852057</speed>
  <fix>3d</fix>
</trkpt>
<trkpt lat="33.8101812" lon="-118.3940162">
  <ele>-0.108</ele>
  <time>2026-09-02T22:07:32Z</time>
  <course>186.31</course>
  <speed>0.7283543093852057</speed>
  <fix>3d</fix>
</trkpt>
<trkpt lat="33.8101812" lon="-118.3940162">
  <ele>-0.108</ele>
  <time>2026-09-02T22:07:32Z</time>
  <course>186.31</course>
  <speed>0.7283543093852057</speed>
  <fix>3d</fix>
</trkpt>
<trkpt lat="33.8101811" lon="-118.3940163">
  <ele>-0.108</ele>
  <time>2026-09-02T22:07:32Z</time>
  <course>186.31</course>
  <speed>0.7283543093852057</speed>
  <fix>3d</fix>
</trkpt>
<trkpt lat="33.8101811" lon="-118.3940163">
  <ele>-0.108</ele>
  <time>2026-09-02T22:07:32Z</time>
  <course>186.31</course>
  <speed>0.7283543093852057</speed>
  <fix>3d</fix>
</trkpt>
<trkpt lat="33.8101811" lon="-118.3940163">
  <ele>-0.108</ele>
  <time>2026-09-02T22:07:32Z</time>
  <course>186.31</course>
  <speed>0.7283543093852057</speed>
  <fix>3d</fix>
</trkpt>
<trkpt lat="33.810181" lon="-118.3940164">
  <ele>-0.108</ele>
  <time>2026-09-02T22:07:32Z</time>
  <course>186.31</course>
  <speed>0.7283543093852057</speed>
  <fix>3d</fix>
</trkpt>
<trkpt lat="33.8101815" lon="-118.3940155">
  <ele>-0.1</ele>
  <time>2026-09-02T22:07:32Z</time>
  <course>223.26</course>
  <speed>0.73</speed>
  <fix>3d</fix>
</trkpt>
<trkpt lat="33.810181" lon="-118.3940164">
  <ele>-0.108</ele>
  <time>2026-09-02T22:07:32Z</time>
  <course>186.31</course>
  <speed>0.7283543093852057</speed>
  <fix>3d</fix>
</trkpt>
<trkpt lat="33.810181" lon="-118.3940165">
  <ele>-0.108</ele>
  <time>2026-09-02T22:07:32Z</time>
  <course>186.31</course>
  <speed>0.7283543093852057</speed>
  <fix>3d</fix>
</trkpt>
<trkpt lat="33.8101809" lon="-118.3940165">
  <ele>-0.108</ele>
  <time>2026-09-02T22:07:32Z</time>
  <course>186.31</course>
  <speed>0.7283543093852057</speed>
  <fix>3d</fix>
</trkpt>
<trkpt lat="33.8101809" lon="-118.3940165">
  <ele>-0.108</ele>
  <time>2026-09-02T22:07:32Z</time>
  <course>186.31</course>
  <speed>0.7283543093852057</speed>
  <fix>3d</fix>
</trkpt>
<trkpt lat="33.8101808" lon="-118.3940166">
  <ele>-0.108</ele>
  <time>2026-09-02T22:07:32Z</time>
  <course>186.31</course>
  <speed>0.7283543093852057</speed>
  <fix>3d</fix>
</trkpt>
<trkpt lat="33.8101808" lon="-118.3940166">
  <ele>-0.108</ele>
  <time>2026-09-02T22:07:32Z</time>
  <course>186.31</course>
  <speed>0.7283543093852057</speed>
  <fix>3d</fix>
</trkpt>
<trkpt lat="33.8101808" lon="-118.3940167">
  <ele>-0.108</ele>
  <time>2026-09-02T22:07:32Z</time>
  <course>186.31</course>
  <speed>0.7283543093852057</speed>
  <fix>3d</fix>
</trkpt>
<trkpt lat="33.8101807" lon="-118.3940167">
  <ele>-0.108</ele>
  <time>2026-09-02T22:07:32Z</time>
  <course>186.31</course>
  <speed>0.7283543093852057</speed>
  <fix>3d</fix>
</trkpt>
<trkpt lat="33.8101807" lon="-118.3940168">
  <ele>-0.108</ele>
  <time>2026-09-02T22:07:32Z</time>
  <course>186.31</course>
  <speed>0.7283543093852057</speed>
  <fix>3d</fix>
</trkpt>
<trkpt lat="33.8101807" lon="-118.3940168">
  <ele>-0.108</ele>
  <time>2026-09-02T22:07:32Z</time>
  <course>186.31</course>
  <speed>0.7283543093852057</speed>
  <fix>3d</fix>
</trkpt>
<trkpt lat="33.8101806" lon="-118.3940168">
  <ele>-0.108</ele>
  <time>2026-09-02T22:07:32Z</time>
  <course>186.31</course>
  <speed>0.7283543093852057</speed>
  <fix>3d</fix>
</trkpt>
<trkpt lat="33.8101806" lon="-118.3940169">
  <ele>-0.108</ele>
  <time>2026-09-02T22:07:32Z</time>
  <course>186.31</course>
  <speed>0.7283543093852057</speed>
  <fix>3d</fix>
</trkpt>
<trkpt lat="33.8101805" lon="-118.3940169">
  <ele>-0.108</ele>
  <time>2026-09-02T22:07:32Z</time>
  <course>186.31</course>
  <speed>0.7283543093852057</speed>
  <fix>3d</fix>
</trkpt>
<trkpt lat="33.8101805" lon="-118.3940169">
  <ele>-0.108</ele>
  <time>2026-09-02T22:07:32Z</time>
  <course>186.31</course>
  <speed>0.7283543093852057</speed>
  <fix>3d</fix>
</trkpt>
<trkpt lat="33.8101815" lon="-118.3940155">
  <ele>-0.1</ele>
  <time>2026-09-02T22:07:32Z</time>
  <course>223.26</course>
  <speed>0.73</speed>
  <fix>3d</fix>
</trkpt>
<trkpt lat="33.8101805" lon="-118.394017">
  <ele>-0.108</ele>
  <time>2026-09-02T22:07:32Z</time>
  <course>186.31</course>
  <speed>0.7283543093852057</speed>
  <fix>3d</fix>
</trkpt>
<trkpt lat="33.8101804" lon="-118.3940171">
  <ele>-0.108</ele>
  <time>2026-09-02T22:07:32Z</time>
  <course>186.31</course>
  <speed>0.7283543093852057</speed>
  <fix>3d</fix>
</trkpt>
<trkpt lat="33.8101804" lon="-118.3940171">
  <ele>-0.108</ele>
  <time>2026-09-02T22:07:32Z</time>
  <course>186.31</course>
  <speed>0.7283543093852057</speed>
  <fix>3d</fix>
</trkpt>
<trkpt lat="33.8101804" lon="-118.3940171">
  <ele>-0.109</ele>
  <time>2026-09-02T22:07:32Z</time>
  <course>186.31</course>
  <speed>0.7283543093852057</speed>
  <fix>3d</fix>
</trkpt>
<trkpt lat="33.8101803" lon="-118.3940172">
  <ele>-0.109</ele>
  <time>2026-09-02T22:07:32Z</time>
  <course>186.31</course>
  <speed>0.7283543093852057</speed>
  <fix>3d</fix>
</trkpt>
<trkpt lat="33.8101803" lon="-118.3940172">
  <ele>-0.109</ele>
  <time>2026-09-02T22:07:32Z</time>
  <course>186.31</course>
  <speed>0.7283543093852057</speed>
  <fix>3d</fix>
</trkpt>
<trkpt lat="33.8101803" lon="-118.3940173">
  <ele>-0.109</ele>
  <time>2026-09-02T22:07:32Z</time>
  <course>186.31</course>
  <speed>0.7283543093852057</speed>
  <fix>3d</fix>
</trkpt>
<trkpt lat="33.8101802" lon="-118.3940173">
  <ele>-0.109</ele>
  <time>2026-09-02T22:07:32Z</time>
  <course>186.31</course>
  <speed>0.7283543093852057</speed>
  <fix>3d</fix>
</trkpt>
<trkpt lat="33.8101802" lon="-118.3940173">
  <ele>-0.109</ele>
  <time>2026-09-02T22:07:32Z</time>
  <course>186.31</course>
  <speed>0.7283543093852057</speed>
  <fix>3d</fix>
</trkpt>
<trkpt lat="33.8101801" lon="-118.3940174">
  <ele>-0.109</ele>
  <time>2026-09-02T22:07:32Z</time>
  <course>186.31</course>
  <speed>0.7283543093852057</speed>
  <fix>3d</fix>
</trkpt>
<trkpt lat="33.8101801" lon="-118.3940174">
  <ele>-0.109</ele>
  <time>2026-09-02T22:07:32Z</time>
  <course>186.31</course>
  <speed>0.7283543093852057</speed>
  <fix>3d</fix>
</trkpt>
<trkpt lat="33.8101801" lon="-118.3940175">
  <ele>-0.109</ele>
  <time>2026-09-02T22:07:32Z</time>
  <course>186.31</course>
  <speed>0.7283543093852057</speed>
  <fix>3d</fix>
</trkpt>
<trkpt lat="33.8101805" lon="-118.3940165">
  <ele>-0.1</ele>
  <time>2026-09-02T22:07:32Z</time>
  <course>223.26</course>
  <speed>0.73</speed>
  <fix>3d</fix>
</trkpt>
<trkpt lat="33.8101801" lon="-118.3940175">
  <ele>-0.109</ele>
  <time>2026-09-02T22:07:32Z</time>
  <course>186.31</course>
  <speed>0.7283543093852057</speed>
  <fix>3d</fix>
</trkpt>
<trkpt lat="33.81018" lon="-118.3940175">
  <ele>-0.109</ele>
  <time>2026-09-02T22:07:32Z</time>
  <course>186.31</course>
  <speed>0.7283543093852057</speed>
  <fix>3d</fix>
</trkpt>
<trkpt lat="33.81018" lon="-118.3940176">
  <ele>-0.109</ele>
  <time>2026-09-02T22:07:32Z</time>
  <course>186.31</course>
  <speed>0.7283543093852057</speed>
  <fix>3d</fix>
</trkpt>
<trkpt lat="33.8101799" lon="-118.3940176">
  <ele>-0.109</ele>
  <time>2026-09-02T22:07:32Z</time>
  <course>186.31</course>
  <speed>0.7283543093852057</speed>
  <fix>3d</fix>
</trkpt>
<trkpt lat="33.8101799" lon="-118.3940177">
  <ele>-0.109</ele>
  <time>2026-09-02T22:07:32Z</time>
  <course>186.31</course>
  <speed>0.7283543093852057</speed>
  <fix>3d</fix>
</trkpt>
<trkpt lat="33.8101798" lon="-118.3940177">
  <ele>-0.109</ele>
  <time>2026-09-02T22:07:32Z</time>
  <course>186.31</course>
  <speed>0.7283543093852057</speed>
  <fix>3d</fix>
</trkpt>
<trkpt lat="33.8101798" lon="-118.3940178">
  <ele>-0.109</ele>
  <time>2026-09-02T22:07:32Z</time>
  <course>186.31</course>
  <speed>0.7283543093852057</speed>
  <fix>3d</fix>
</trkpt>
<trkpt lat="33.8101798" lon="-118.3940178">
  <ele>-0.109</ele>
  <time>2026-09-02T22:07:32Z</time>
  <course>186.31</course>
  <speed>0.7283543093852057</speed>
  <fix>3d</fix>
</trkpt>
<trkpt lat="33.8101797" lon="-118.3940178">
  <ele>-0.109</ele>
  <time>2026-09-02T22:07:32Z</time>
  <course>186.31</course>
  <speed>0.7283543093852057</speed>
  <fix>3d</fix>
</trkpt>
<trkpt lat="33.8101797" lon="-118.3940179">
  <ele>-0.109</ele>
  <time>2026-09-02T22:07:32Z</time>
  <course>186.31</course>
  <speed>0.7283543093852057</speed>
  <fix>3d</fix>
</trkpt>
<trkpt lat="33.8101797" lon="-118.3940179">
  <ele>-0.109</ele>
  <time>2026-09-02T22:07:32Z</time>
  <course>186.31</course>
  <speed>0.7283543093852057</speed>
  <fix>3d</fix>
</trkpt>
<trkpt lat="33.8101796" lon="-118.394018">
  <ele>-0.109</ele>
  <time>2026-09-02T22:07:32Z</time>
  <course>186.31</course>
  <speed>0.7283543093852057</speed>
  <fix>3d</fix>
</trkpt>
<trkpt lat="33.8101796" lon="-118.394018">
  <ele>-0.109</ele>
  <time>2026-09-02T22:07:32Z</time>
  <course>186.31</course>
  <speed>0.7283543093852057</speed>
  <fix>3d</fix>
</trkpt>
<trkpt lat="33.8101796" lon="-118.394018">
  <ele>-0.109</ele>
  <time>2026-09-02T22:07:32Z</time>
  <course>186.31</course>
  <speed>0.7283543093852057</speed>
  <fix>3d</fix>
</trkpt>
<trkpt lat="33.8101805" lon="-118.3940165">
  <ele>-0.1</ele>
  <time>2026-09-02T22:07:32Z</time>
  <course>223.26</course>
  <speed>0.73</speed>
  <fix>3d</fix>
</trkpt>
<trkpt lat="33.8101795" lon="-118.3940181">
  <ele>-0.109</ele>
  <time>2026-09-02T22:07:32Z</time>
  <course>186.31</course>
  <speed>0.7283543093852057</speed>
  <fix>3d</fix>
</trkpt>
<trkpt lat="33.8101795" lon="-118.3940181">
  <ele>-0.109</ele>
  <time>2026-09-02T22:07:32Z</time>
  <course>186.31</course>
  <speed>0.7283543093852057</speed>
  <fix>3d</fix>
</trkpt>
<trkpt lat="33.8101794" lon="-118.3940182">
  <ele>-0.109</ele>
  <time>2026-09-02T22:07:32Z</time>
  <course>186.31</course>
  <speed>0.7283543093852057</speed>
  <fix>3d</fix>
</trkpt>
<trkpt lat="33.8101794" lon="-118.3940182">
  <ele>-0.109</ele>
  <time>2026-09-02T22:07:32Z</time>
  <course>186.31</course>
  <speed>0.7283543093852057</speed>
  <fix>3d</fix>
</trkpt>
<trkpt lat="33.8101794" lon="-118.3940183">
  <ele>-0.109</ele>
  <time>2026-09-02T22:07:32Z</time>
  <course>186.31</course>
  <speed>0.7283543093852057</speed>
  <fix>3d</fix>
</trkpt>
<trkpt lat="33.8101793" lon="-118.3940183">
  <ele>-0.11</ele>
  <time>2026-09-02T22:07:32Z</time>
  <course>186.31</course>
  <speed>0.7283543093852057</speed>
  <fix>3d</fix>
</trkpt>
<trkpt lat="33.8101793" lon="-118.3940184">
  <ele>-0.11</ele>
  <time>2026-09-02T22:07:32Z</time>
  <course>186.31</course>
  <speed>0.7283543093852057</speed>
  <fix>3d</fix>
</trkpt>
<trkpt lat="33.8101792" lon="-118.3940184">
  <ele>-0.11</ele>
  <time>2026-09-02T22:07:32Z</time>
  <course>186.31</course>
  <speed>0.7283543093852057</speed>
  <fix>3d</fix>
</trkpt>
<trkpt lat="33.8101792" lon="-118.3940185">
  <ele>-0.11</ele>
  <time>2026-09-02T22:07:32Z</time>
  <course>186.31</course>
  <speed>0.7283543093852057</speed>
  <fix>3d</fix>
</trkpt>
<trkpt lat="33.8101791" lon="-118.3940185">
  <ele>-0.11</ele>
  <time>2026-09-02T22:07:32Z</time>
  <course>186.31</course>
  <speed>0.7283543093852057</speed>
  <fix>3d</fix>
</trkpt>
<trkpt lat="33.8101791" lon="-118.3940186">
  <ele>-0.11</ele>
  <time>2026-09-02T22:07:32Z</time>
  <course>186.31</course>
  <speed>0.7283543093852057</speed>
  <fix>3d</fix>
</trkpt>
<trkpt lat="33.8101796" lon="-118.3940176">
  <ele>-0.1</ele>
  <time>2026-09-02T22:07:32Z</time>
  <course>223.26</course>
  <speed>0.73</speed>
  <fix>3d</fix>
</trkpt>
<trkpt lat="33.8101791" lon="-118.3940186">
  <ele>-0.11</ele>
  <time>2026-09-02T22:07:32Z</time>
  <course>186.31</course>
  <speed>0.7283543093852057</speed>
  <fix>3d</fix>
</trkpt>
<trkpt lat="33.810179" lon="-118.3940186">
  <ele>-0.11</ele>
  <time>2026-09-02T22:07:32Z</time>
  <course>186.31</course>
  <speed>0.7283543093852057</speed>
  <fix>3d</fix>
</trkpt>
<trkpt lat="33.810179" lon="-118.3940187">
  <ele>-0.11</ele>
  <time>2026-09-02T22:07:32Z</time>
  <course>186.31</course>
  <speed>0.7283543093852057</speed>
  <fix>3d</fix>
</trkpt>
<trkpt lat="33.8101789" lon="-118.3940187">
  <ele>-0.11</ele>
  <time>2026-09-02T22:07:32Z</time>
  <course>186.31</course>
  <speed>0.7283543093852057</speed>
  <fix>3d</fix>
</trkpt>
<trkpt lat="33.8101789" lon="-118.3940188">
  <ele>-0.11</ele>
  <time>2026-09-02T22:07:32Z</time>
  <course>186.31</course>
  <speed>0.7283543093852057</speed>
  <fix>3d</fix>
</trkpt>
<trkpt lat="33.8101789" lon="-118.3940188">
  <ele>-0.11</ele>
  <time>2026-09-02T22:07:32Z</time>
  <course>186.31</course>
  <speed>0.7283543093852057</speed>
  <fix>3d</fix>
</trkpt>
<trkpt lat="33.8101788" lon="-118.3940189">
  <ele>-0.111</ele>
  <time>2026-09-02T22:07:32Z</time>
  <course>186.31</course>
  <speed>0.7283543093852057</speed>
  <fix>3d</fix>
</trkpt>
<trkpt lat="33.8101788" lon="-118.3940189">
  <ele>-0.111</ele>
  <time>2026-09-02T22:07:32Z</time>
  <course>186.31</course>
  <speed>0.7283543093852057</speed>
  <fix>3d</fix>
</trkpt>
<trkpt lat="33.8101788" lon="-118.3940189">
  <ele>-0.111</ele>
  <time>2026-09-02T22:07:32Z</time>
  <course>186.3</course>
  <speed>0.7283543093852057</speed>
  <fix>3d</fix>
</trkpt>
<trkpt lat="33.8101787" lon="-118.394019">
  <ele>-0.111</ele>
  <time>2026-09-02T22:07:32Z</time>
  <course>186.3</course>
  <speed>0.7283543093852057</speed>
  <fix>3d</fix>
</trkpt>
<trkpt lat="33.8101787" lon="-118.394019">
  <ele>-0.111</ele>
  <time>2026-09-02T22:07:32Z</time>
  <course>186.3</course>
  <speed>0.7283543093852057</speed>
  <fix>3d</fix>
</trkpt>
<trkpt lat="33.8101787" lon="-118.3940191">
  <ele>-0.111</ele>
  <time>2026-09-02T22:07:32Z</time>
  <course>186.3</course>
  <speed>0.7283543093852057</speed>
  <fix>3d</fix>
</trkpt>
<trkpt lat="33.8101786" lon="-118.3940191">
  <ele>-0.111</ele>
  <time>2026-09-02T22:07:32Z</time>
  <course>186.3</course>
  <speed>0.7283543093852057</speed>
  <fix>3d</fix>
</trkpt>
<trkpt lat="33.8101786" lon="-118.3940191">
  <ele>-0.111</ele>
  <time>2026-09-02T22:07:32Z</time>
  <course>186.3</course>
  <speed>0.7283543093852057</speed>
  <fix>3d</fix>
</trkpt>
<trkpt lat="33.8101796" lon="-118.3940176">
  <ele>-0.1</ele>
  <time>2026-09-02T22:07:32Z</time>
  <course>223.26</course>
  <speed>0.73</speed>
  <fix>3d</fix>
</trkpt>
<trkpt lat="33.8101786" lon="-118.3940192">
  <ele>-0.111</ele>
  <time>2026-09-02T22:07:32Z</time>
  <course>186.3</course>
  <speed>0.7283543093852057</speed>
  <fix>3d</fix>
</trkpt>
<trkpt lat="33.8101785" lon="-118.3940192">
  <ele>-0.111</ele>
  <time>2026-09-02T22:07:32Z</time>
  <course>186.3</course>
  <speed>0.7283543093852057</speed>
  <fix>3d</fix>
</trkpt>
<trkpt lat="33.8101785" lon="-118.3940193">
  <ele>-0.111</ele>
  <time>2026-09-02T22:07:32Z</time>
  <course>186.3</course>
  <speed>0.7283543093852057</speed>
  <fix>3d</fix>
</trkpt>
<trkpt lat="33.8101784" lon="-118.3940193">
  <ele>-0.111</ele>
  <time>2026-09-02T22:07:32Z</time>
  <course>186.3</course>
  <speed>0.7283543093852057</speed>
  <fix>3d</fix>
</trkpt>
<trkpt lat="33.8101784" lon="-118.3940194">
  <ele>-0.111</ele>
  <time>2026-09-02T22:07:32Z</time>
  <course>186.3</course>
  <speed>0.7283543093852057</speed>
  <fix>3d</fix>
</trkpt>
<trkpt lat="33.8101784" lon="-118.3940194">
  <ele>-0.112</ele>
  <time>2026-09-02T22:07:32Z</time>
  <course>186.3</course>
  <speed>0.7283543093852057</speed>
  <fix>3d</fix>
</trkpt>
<trkpt lat="33.8101783" lon="-118.3940195">
  <ele>-0.112</ele>
  <time>2026-09-02T22:07:32Z</time>
  <course>186.3</course>
  <speed>0.7283543093852057</speed>
  <fix>3d</fix>
</trkpt>
<trkpt lat="33.8101783" lon="-118.3940195">
  <ele>-0.112</ele>
  <time>2026-09-02T22:07:32Z</time>
  <course>186.3</course>
  <speed>0.7283543093852057</speed>
  <fix>3d</fix>
</trkpt>
<trkpt lat="33.8101782" lon="-118.3940195">
  <ele>-0.112</ele>
  <time>2026-09-02T22:07:32Z</time>
  <course>186.3</course>
  <speed>0.7283543093852057</speed>
  <fix>3d</fix>
</trkpt>
<trkpt lat="33.8101782" lon="-118.3940196">
  <ele>-0.112</ele>
  <time>2026-09-02T22:07:32Z</time>
  <course>186.3</course>
  <speed>0.7283543093852057</speed>
  <fix>3d</fix>
</trkpt>
<trkpt lat="33.8101782" lon="-118.3940196">
  <ele>-0.112</ele>
  <time>2026-09-02T22:07:32Z</time>
  <course>186.3</course>
  <speed>0.7283543093852057</speed>
  <fix>3d</fix>
</trkpt>
<trkpt lat="33.8101781" lon="-118.3940196">
  <ele>-0.112</ele>
  <time>2026-09-02T22:07:32Z</time>
  <course>186.3</course>
  <speed>0.7283543093852057</speed>
  <fix>3d</fix>
</trkpt>
<trkpt lat="33.8101786" lon="-118.3940187">
  <ele>-0.11</ele>
  <time>2026-09-02T22:07:32Z</time>
  <course>223.26</course>
  <speed>0.73</speed>
  <fix>3d</fix>
</trkpt>
<trkpt lat="33.8101781" lon="-118.3940197">
  <ele>-0.112</ele>
  <time>2026-09-02T22:07:32Z</time>
  <course>186.3</course>
  <speed>0.7283543093852057</speed>
  <fix>3d</fix>
</trkpt>
<trkpt lat="33.8101781" lon="-118.3940197">
  <ele>-0.112</ele>
  <time>2026-09-02T22:07:32Z</time>
  <course>186.3</course>
  <speed>0.7283543093852057</speed>
  <fix>3d</fix>
</trkpt>
<trkpt lat="33.810178" lon="-118.3940198">
  <ele>-0.112</ele>
  <time>2026-09-02T22:07:32Z</time>
  <course>186.3</course>
  <speed>0.7283543093852057</speed>
  <fix>3d</fix>
</trkpt>
<trkpt lat="33.810178" lon="-118.3940198">
  <ele>-0.112</ele>
  <time>2026-09-02T22:07:32Z</time>
  <course>186.3</course>
  <speed>0.7283543093852057</speed>
  <fix>3d</fix>
</trkpt>
<trkpt lat="33.8101779" lon="-118.3940199">
  <ele>-0.112</ele>
  <time>2026-09-02T22:07:32Z</time>
  <course>186.3</course>
  <speed>0.7283543093852057</speed>
  <fix>3d</fix>
</trkpt>
<trkpt lat="33.8101779" lon="-118.3940199">
  <ele>-0.113</ele>
  <time>2026-09-02T22:07:32Z</time>
  <course>186.3</course>
  <speed>0.7283543093852057</speed>
  <fix>3d</fix>
</trkpt>
<trkpt lat="33.8101778" lon="-118.39402">
  <ele>-0.113</ele>
  <time>2026-09-02T22:07:32Z</time>
  <course>186.3</course>
  <speed>0.7283543093852057</speed>
  <fix>3d</fix>
</trkpt>
<trkpt lat="33.8101778" lon="-118.39402">
  <ele>-0.113</ele>
  <time>2026-09-02T22:07:32Z</time>
  <course>186.3</course>
  <speed>0.7283543093852057</speed>
  <fix>3d</fix>
</trkpt>
<trkpt lat="33.8101778" lon="-118.3940201">
  <ele>-0.113</ele>
  <time>2026-09-02T22:07:32Z</time>
  <course>186.3</course>
  <speed>0.7283543093852057</speed>
  <fix>3d</fix>
</trkpt>
<trkpt lat="33.8101777" lon="-118.3940201">
  <ele>-0.113</ele>
  <time>2026-09-02T22:07:32Z</time>
  <course>186.3</course>
  <speed>0.7283543093852057</speed>
  <fix>3d</fix>
</trkpt>
<trkpt lat="33.8101777" lon="-118.3940202">
  <ele>-0.113</ele>
  <time>2026-09-02T22:07:32Z</time>
  <course>186.3</course>
  <speed>0.7283543093852057</speed>
  <fix>3d</fix>
</trkpt>
<trkpt lat="33.8101777" lon="-118.3940202">
  <ele>-0.113</ele>
  <time>2026-09-02T22:07:32Z</time>
  <course>186.3</course>
  <speed>0.7283543093852057</speed>
  <fix>3d</fix>
</trkpt>
<trkpt lat="33.8101786" lon="-118.3940187">
  <ele>-0.11</ele>
  <time>2026-09-02T22:07:32Z</time>
  <course>223.26</course>
  <speed>0.73</speed>
  <fix>3d</fix>
</trkpt>
<trkpt lat="33.8101777" lon="-118.3940202">
  <ele>-0.113</ele>
  <time>2026-09-02T22:07:32Z</time>
  <course>186.3</course>
  <speed>0.7283543093852057</speed>
  <fix>3d</fix>
</trkpt>
<trkpt lat="33.8101776" lon="-118.3940203">
  <ele>-0.113</ele>
  <time>2026-09-02T22:07:32Z</time>
  <course>186.3</course>
  <speed>0.7283543093852057</speed>
  <fix>3d</fix>
</trkpt>
<trkpt lat="33.8101776" lon="-118.3940203">
  <ele>-0.113</ele>
  <time>2026-09-02T22:07:32Z</time>
  <course>186.3</course>
  <speed>0.7283543093852057</speed>
  <fix>3d</fix>
</trkpt>
<trkpt lat="33.8101775" lon="-118.3940204">
  <ele>-0.114</ele>
  <time>2026-09-02T22:07:32Z</time>
  <course>186.3</course>
  <speed>0.7283543093852057</speed>
  <fix>3d</fix>
</trkpt>
<trkpt lat="33.8101775" lon="-118.3940204">
  <ele>-0.114</ele>
  <time>2026-09-02T22:07:32Z</time>
  <course>186.3</course>
  <speed>0.7283543093852057</speed>
  <fix>3d</fix>
</trkpt>
<trkpt lat="33.8101774" lon="-118.3940204">
  <ele>-0.114</ele>
  <time>2026-09-02T22:07:32Z</time>
  <course>186.3</course>
  <speed>0.7283543093852057</speed>
  <fix>3d</fix>
</trkpt>
<trkpt lat="33.8101774" lon="-118.3940205">
  <ele>-0.114</ele>
  <time>2026-09-02T22:07:32Z</time>
  <course>186.3</course>
  <speed>0.7283543093852057</speed>
  <fix>3d</fix>
</trkpt>
<trkpt lat="33.8101774" lon="-118.3940205">
  <ele>-0.114</ele>
  <time>2026-09-02T22:07:32Z</time>
  <course>186.3</course>
  <speed>0.7283543093852057</speed>
  <fix>3d</fix>
</trkpt>
<trkpt lat="33.8101773" lon="-118.3940206">
  <ele>-0.114</ele>
  <time>2026-09-02T22:07:32Z</time>
  <course>186.3</course>
  <speed>0.7283543093852057</speed>
  <fix>3d</fix>
</trkpt>
<trkpt lat="33.8101773" lon="-118.3940206">
  <ele>-0.114</ele>
  <time>2026-09-02T22:07:32Z</time>
  <course>186.3</course>
  <speed>0.7283543093852057</speed>
  <fix>3d</fix>
</trkpt>
<trkpt lat="33.8101773" lon="-118.3940206">
  <ele>-0.114</ele>
  <time>2026-09-02T22:07:32Z</time>
  <course>186.3</course>
  <speed>0.7283543093852057</speed>
  <fix>3d</fix>
</trkpt>
<trkpt lat="33.8101772" lon="-118.3940207">
  <ele>-0.115</ele>
  <time>2026-09-02T22:07:32Z</time>
  <course>186.3</course>
  <speed>0.7283543093852057</speed>
  <fix>3d</fix>
</trkpt>
<trkpt lat="33.8101772" lon="-118.3940207">
  <ele>-0.114</ele>
  <time>2026-09-02T22:07:32Z</time>
  <course>186.3</course>
  <speed>0.7283543093852057</speed>
  <fix>3d</fix>
</trkpt>
<trkpt lat="33.8101776" lon="-118.3940198">
  <ele>-0.11</ele>
  <time>2026-09-02T22:07:32Z</time>
  <course>223.26</course>
  <speed>0.73</speed>
  <fix>3d</fix>
</trkpt>
<trkpt lat="33.8101772" lon="-118.3940207">
  <ele>-0.114</ele>
  <time>2026-09-02T22:07:32Z</time>
  <course>186.3</course>
  <speed>0.7283543093852057</speed>
  <fix>3d</fix>
</trkpt>
<trkpt lat="33.8101771" lon="-118.3940208">
  <ele>-0.115</ele>
  <time>2026-09-02T22:07:32Z</time>
  <course>186.3</course>
  <speed>0.7283543093852057</speed>
  <fix>3d</fix>
</trkpt>
<trkpt lat="33.8101771" lon="-118.3940209">
  <ele>-0.115</ele>
  <time>2026-09-02T22:07:32Z</time>
  <course>186.3</course>
  <speed>0.7283543093852057</speed>
  <fix>3d</fix>
</trkpt>
<trkpt lat="33.810177" lon="-118.3940209">
  <ele>-0.115</ele>
  <time>2026-09-02T22:07:32Z</time>
  <course>186.3</course>
  <speed>0.7283543093852057</speed>
  <fix>3d</fix>
</trkpt>
<trkpt lat="33.810177" lon="-118.394021">
  <ele>-0.115</ele>
  <time>2026-09-02T22:07:32Z</time>
  <course>186.3</course>
  <speed>0.7283543093852057</speed>
  <fix>3d</fix>
</trkpt>
<trkpt lat="33.8101769" lon="-118.394021">
  <ele>-0.115</ele>
  <time>2026-09-02T22:07:32Z</time>
  <course>186.3</course>
  <speed>0.7283543093852057</speed>
  <fix>3d</fix>
</trkpt>
<trkpt lat="33.8101769" lon="-118.3940211">
  <ele>-0.115</ele>
  <time>2026-09-02T22:07:32Z</time>
  <course>186.3</course>
  <speed>0.7283543093852057</speed>
  <fix>3d</fix>
</trkpt>
<trkpt lat="33.8101769" lon="-118.3940211">
  <ele>-0.115</ele>
  <time>2026-09-02T22:07:32Z</time>
  <course>186.3</course>
  <speed>0.7283543093852057</speed>
  <fix>3d</fix>
</trkpt>
<trkpt lat="33.8101768" lon="-118.3940211">
  <ele>-0.115</ele>
  <time>2026-09-02T22:07:32Z</time>
  <course>186.3</course>
  <speed>0.7283543093852057</speed>
  <fix>3d</fix>
</trkpt>
<trkpt lat="33.8101768" lon="-118.3940212">
  <ele>-0.115</ele>
  <time>2026-09-02T22:07:32Z</time>
  <course>186.3</course>
  <speed>0.7283543093852057</speed>
  <fix>3d</fix>
</trkpt>
<trkpt lat="33.8101768" lon="-118.3940212">
  <ele>-0.115</ele>
  <time>2026-09-02T22:07:32Z</time>
  <course>186.3</course>
  <speed>0.7283543093852057</speed>
  <fix>3d</fix>
</trkpt>
<trkpt lat="33.8101767" lon="-118.3940213">
  <ele>-0.115</ele>
  <time>2026-09-02T22:07:32Z</time>
  <course>186.3</course>
  <speed>0.7283543093852057</speed>
  <fix>3d</fix>
</trkpt>
<trkpt lat="33.8101767" lon="-118.3940213">
  <ele>-0.115</ele>
  <time>2026-09-02T22:07:32Z</time>
  <course>186.3</course>
  <speed>0.7283543093852057</speed>
  <fix>3d</fix>
</trkpt>
<trkpt lat="33.8101776" lon="-118.3940198">
  <ele>-0.11</ele>
  <time>2026-09-02T22:07:32Z</time>
  <course>223.26</course>
  <speed>0.73</speed>
  <fix>3d</fix>
</trkpt>
<trkpt lat="33.8101767" lon="-118.3940213">
  <ele>-0.115</ele>
  <time>2026-09-02T22:07:32Z</time>
  <course>186.3</course>
  <speed>0.7283543093852057</speed>
  <fix>3d</fix>
</trkpt>
<trkpt lat="33.8101766" lon="-118.3940214">
  <ele>-0.116</ele>
  <time>2026-09-02T22:07:32Z</time>
  <course>186.3</course>
  <speed>0.7283543093852057</speed>
  <fix>3d</fix>
</trkpt>
<trkpt lat="33.8101766" lon="-118.3940214">
  <ele>-0.116</ele>
  <time>2026-09-02T22:07:32Z</time>
  <course>186.3</course>
  <speed>0.7283543093852057</speed>
  <fix>3d</fix>
</trkpt>
<trkpt lat="33.8101766" lon="-118.3940214">
  <ele>-0.116</ele>
  <time>2026-09-02T22:07:32Z</time>
  <course>186.3</course>
  <speed>0.7283543093852057</speed>
  <fix>3d</fix>
</trkpt>
<trkpt lat="33.8101765" lon="-118.3940215">
  <ele>-0.116</ele>
  <time>2026-09-02T22:07:32Z</time>
  <course>186.3</course>
  <speed>0.7283543093852057</speed>
  <fix>3d</fix>
</trkpt>
<trkpt lat="33.8101765" lon="-118.3940215">
  <ele>-0.116</ele>
  <time>2026-09-02T22:07:32Z</time>
  <course>186.3</course>
  <speed>0.7283543093852057</speed>
  <fix>3d</fix>
</trkpt>
<trkpt lat="33.8101765" lon="-118.3940216">
  <ele>-0.116</ele>
  <time>2026-09-02T22:07:32Z</time>
  <course>186.3</course>
  <speed>0.7283543093852057</speed>
  <fix>3d</fix>
</trkpt>
<trkpt lat="33.8101764" lon="-118.3940216">
  <ele>-0.116</ele>
  <time>2026-09-02T22:07:32Z</time>
  <course>186.3</course>
  <speed>0.7283543093852057</speed>
  <fix>3d</fix>
</trkpt>
<trkpt lat="33.8101764" lon="-118.3940217">
  <ele>-0.116</ele>
  <time>2026-09-02T22:07:32Z</time>
  <course>186.3</course>
  <speed>0.7283543093852057</speed>
  <fix>3d</fix>
</trkpt>
<trkpt lat="33.8101763" lon="-118.3940217">
  <ele>-0.116</ele>
  <time>2026-09-02T22:07:32Z</time>
  <course>186.3</course>
  <speed>0.7283543093852057</speed>
  <fix>3d</fix>
</trkpt>
<trkpt lat="33.8101763" lon="-118.3940217">
  <ele>-0.116</ele>
  <time>2026-09-02T22:07:32Z</time>
  <course>186.3</course>
  <speed>0.7283543093852057</speed>
  <fix>3d</fix>
</trkpt>
<trkpt lat="33.8101763" lon="-118.3940218">
  <ele>-0.116</ele>
  <time>2026-09-02T22:07:32Z</time>
  <course>186.3</course>
  <speed>0.7283543093852057</speed>
  <fix>3d</fix>
</trkpt>
<trkpt lat="33.8101762" lon="-118.3940218">
  <ele>-0.116</ele>
  <time>2026-09-02T22:07:32Z</time>
  <course>186.3</course>
  <speed>0.7283543093852057</speed>
  <fix>3d</fix>
</trkpt>
<trkpt lat="33.8101762" lon="-118.3940218">
  <ele>-0.116</ele>
  <time>2026-09-02T22:07:32Z</time>
  <course>186.3</course>
  <speed>0.7283543093852057</speed>
  <fix>3d</fix>
</trkpt>
<trkpt lat="33.8101767" lon="-118.3940209">
  <ele>-0.1</ele>
  <time>2026-09-02T22:07:32Z</time>
  <course>223.26</course>
  <speed>0.73</speed>
  <fix>3d</fix>
</trkpt>
<trkpt lat="33.8101762" lon="-118.3940219">
  <ele>-0.116</ele>
  <time>2026-09-02T22:07:32Z</time>
  <course>186.3</course>
  <speed>0.7283543093852057</speed>
  <fix>3d</fix>
</trkpt>
<trkpt lat="33.8101761" lon="-118.3940219">
  <ele>-0.117</ele>
  <time>2026-09-02T22:07:32Z</time>
  <course>186.3</course>
  <speed>0.7283543093852057</speed>
  <fix>3d</fix>
</trkpt>
<trkpt lat="33.8101761" lon="-118.394022">
  <ele>-0.117</ele>
  <time>2026-09-02T22:07:32Z</time>
  <course>186.3</course>
  <speed>0.7283543093852057</speed>
  <fix>3d</fix>
</trkpt>
<trkpt lat="33.810176" lon="-118.394022">
  <ele>-0.117</ele>
  <time>2026-09-02T22:07:32Z</time>
  <course>186.3</course>
  <speed>0.7283543093852057</speed>
  <fix>3d</fix>
</trkpt>
<trkpt lat="33.810176" lon="-118.3940221">
  <ele>-0.117</ele>
  <time>2026-09-02T22:07:32Z</time>
  <course>186.3</course>
  <speed>0.7283543093852057</speed>
  <fix>3d</fix>
</trkpt>
<trkpt lat="33.810176" lon="-118.3940221">
  <ele>-0.117</ele>
  <time>2026-09-02T22:07:32Z</time>
  <course>186.3</course>
  <speed>0.7283543093852057</speed>
  <fix>3d</fix>
</trkpt>
<trkpt lat="33.8101759" lon="-118.3940221">
  <ele>-0.117</ele>
  <time>2026-09-02T22:07:32Z</time>
  <course>186.3</course>
  <speed>0.7283543093852057</speed>
  <fix>3d</fix>
</trkpt>
<trkpt lat="33.8101759" lon="-118.3940222">
  <ele>-0.117</ele>
  <time>2026-09-02T22:07:32Z</time>
  <course>186.3</course>
  <speed>0.7283543093852057</speed>
  <fix>3d</fix>
</trkpt>
<trkpt lat="33.8101759" lon="-118.3940222">
  <ele>-0.117</ele>
  <time>2026-09-02T22:07:32Z</time>
  <course>186.3</course>
  <speed>0.7283543093852057</speed>
  <fix>3d</fix>
</trkpt>
<trkpt lat="33.8101758" lon="-118.3940223">
  <ele>-0.117</ele>
  <time>2026-09-02T22:07:32Z</time>
  <course>186.3</course>
  <speed>0.7283543093852057</speed>
  <fix>3d</fix>
</trkpt>
<trkpt lat="33.8101758" lon="-118.3940223">
  <ele>-0.117</ele>
  <time>2026-09-02T22:07:32Z</time>
  <course>186.3</course>
  <speed>0.7283543093852057</speed>
  <fix>3d</fix>
</trkpt>
<trkpt lat="33.8101757" lon="-118.3940224">
  <ele>-0.118</ele>
  <time>2026-09-02T22:07:32Z</time>
  <course>186.3</course>
  <speed>0.7283543093852057</speed>
  <fix>3d</fix>
</trkpt>
<trkpt lat="33.8101767" lon="-118.3940209">
  <ele>-0.1</ele>
  <time>2026-09-02T22:07:32Z</time>
  <course>223.26</course>
  <speed>0.73</speed>
  <fix>3d</fix>
</trkpt>
<trkpt lat="33.8101757" lon="-118.3940224">
  <ele>-0.118</ele>
  <time>2026-09-02T22:07:32Z</time>
  <course>186.3</course>
  <speed>0.7283543093852057</speed>
  <fix>3d</fix>
</trkpt>
<trkpt lat="33.8101757" lon="-118.3940224">
  <ele>-0.118</ele>
  <time>2026-09-02T22:07:32Z</time>
  <course>186.3</course>
  <speed>0.7283543093852057</speed>
  <fix>3d</fix>
</trkpt>
<trkpt lat="33.8101756" lon="-118.3940225">
  <ele>-0.118</ele>
  <time>2026-09-02T22:07:32Z</time>
  <course>186.3</course>
  <speed>0.7283543093852057</speed>
  <fix>3d</fix>
</trkpt>
<trkpt lat="33.8101756" lon="-118.3940225">
  <ele>-0.118</ele>
  <time>2026-09-02T22:07:32Z</time>
  <course>186.3</course>
  <speed>0.7283543093852057</speed>
  <fix>3d</fix>
</trkpt>
<trkpt lat="33.8101756" lon="-118.3940226">
  <ele>-0.118</ele>
  <time>2026-09-02T22:07:32Z</time>
  <course>186.3</course>
  <speed>0.7283543093852057</speed>
  <fix>3d</fix>
</trkpt>
<trkpt lat="33.8101755" lon="-118.3940226">
  <ele>-0.118</ele>
  <time>2026-09-02T22:07:32Z</time>
  <course>186.3</course>
  <speed>0.7283543093852057</speed>
  <fix>3d</fix>
</trkpt>
<trkpt lat="33.8101755" lon="-118.3940227">
  <ele>-0.118</ele>
  <time>2026-09-02T22:07:32Z</time>
  <course>186.3</course>
  <speed>0.7283543093852057</speed>
  <fix>3d</fix>
</trkpt>
<trkpt lat="33.8101755" lon="-118.3940227">
  <ele>-0.118</ele>
  <time>2026-09-02T22:07:32Z</time>
  <course>186.3</course>
  <speed>0.7283543093852057</speed>
  <fix>3d</fix>
</trkpt>
<trkpt lat="33.8101754" lon="-118.3940227">
  <ele>-0.118</ele>
  <time>2026-09-02T22:07:32Z</time>
  <course>186.3</course>
  <speed>0.7283543093852057</speed>
  <fix>3d</fix>
</trkpt>
<trkpt lat="33.8101754" lon="-118.3940228">
  <ele>-0.118</ele>
  <time>2026-09-02T22:07:32Z</time>
  <course>186.3</course>
  <speed>0.7283543093852057</speed>
  <fix>3d</fix>
</trkpt>
<trkpt lat="33.8101753" lon="-118.3940228">
  <ele>-0.118</ele>
  <time>2026-09-02T22:07:32Z</time>
  <course>186.3</course>
  <speed>0.7283543093852057</speed>
  <fix>3d</fix>
</trkpt>
<trkpt lat="33.8101753" lon="-118.3940229">
  <ele>-0.118</ele>
  <time>2026-09-02T22:07:32Z</time>
  <course>186.3</course>
  <speed>0.7283543093852057</speed>
  <fix>3d</fix>
</trkpt>
<trkpt lat="33.8101753" lon="-118.3940229">
  <ele>-0.118</ele>
  <time>2026-09-02T22:07:32Z</time>
  <course>186.3</course>
  <speed>0.7283543093852057</speed>
  <fix>3d</fix>
</trkpt>
<trkpt lat="33.8101753" lon="-118.3940229">
  <ele>-0.118</ele>
  <time>2026-09-02T22:07:32Z</time>
  <course>186.3</course>
  <speed>0.7283543093852057</speed>
  <fix>3d</fix>
</trkpt>
<trkpt lat="33.8101757" lon="-118.394022">
  <ele>-0.1</ele>
  <time>2026-09-02T22:07:32Z</time>
  <course>223.26</course>
  <speed>0.73</speed>
  <fix>3d</fix>
</trkpt>
<trkpt lat="33.8101752" lon="-118.394023">
  <ele>-0.118</ele>
  <time>2026-09-02T22:07:32Z</time>
  <course>186.3</course>
  <speed>0.7283543093852057</speed>
  <fix>3d</fix>
</trkpt>
<trkpt lat="33.8101751" lon="-118.3940231">
  <ele>-0.118</ele>
  <time>2026-09-02T22:07:32Z</time>
  <course>186.3</course>
  <speed>0.7283543093852057</speed>
  <fix>3d</fix>
</trkpt>
<trkpt lat="33.8101751" lon="-118.3940231">
  <ele>-0.118</ele>
  <time>2026-09-02T22:07:32Z</time>
  <course>186.3</course>
  <speed>0.7283543093852057</speed>
  <fix>3d</fix>
</trkpt>
<trkpt lat="33.8101751" lon="-118.3940231">
  <ele>-0.118</ele>
  <time>2026-09-02T22:07:32Z</time>
  <course>186.3</course>
  <speed>0.7283543093852057</speed>
  <fix>3d</fix>
</trkpt>
<trkpt lat="33.810175" lon="-118.3940232">
  <ele>-0.118</ele>
  <time>2026-09-02T22:07:32Z</time>
  <course>186.3</course>
  <speed>0.7283543093852057</speed>
  <fix>3d</fix>
</trkpt>
<trkpt lat="33.810175" lon="-118.3940232">
  <ele>-0.118</ele>
  <time>2026-09-02T22:07:32Z</time>
  <course>186.3</course>
  <speed>0.7283543093852057</speed>
  <fix>3d</fix>
</trkpt>
<trkpt lat="33.8101749" lon="-118.3940233">
  <ele>-0.118</ele>
  <time>2026-09-02T22:07:32Z</time>
  <course>186.3</course>
  <speed>0.7283543093852057</speed>
  <fix>3d</fix>
</trkpt>
<trkpt lat="33.8101749" lon="-118.3940233">
  <ele>-0.118</ele>
  <time>2026-09-02T22:07:32Z</time>
  <course>186.3</course>
  <speed>0.7283543093852057</speed>
  <fix>3d</fix>
</trkpt>
<trkpt lat="33.8101749" lon="-118.3940233">
  <ele>-0.118</ele>
  <time>2026-09-02T22:07:32Z</time>
  <course>186.3</course>
  <speed>0.7283543093852057</speed>
  <fix>3d</fix>
</trkpt>
<trkpt lat="33.8101748" lon="-118.3940234">
  <ele>-0.118</ele>
  <time>2026-09-02T22:07:32Z</time>
  <course>186.3</course>
  <speed>0.7283543093852057</speed>
  <fix>3d</fix>
</trkpt>
<trkpt lat="33.8101748" lon="-118.3940234">
  <ele>-0.118</ele>
  <time>2026-09-02T22:07:32Z</time>
  <course>186.3</course>
  <speed>0.7283543093852057</speed>
  <fix>3d</fix>
</trkpt>
<trkpt lat="33.8101748" lon="-118.3940235">
  <ele>-0.118</ele>
  <time>2026-09-02T22:07:32Z</time>
  <course>186.3</course>
  <speed>0.7283543093852057</speed>
  <fix>3d</fix>
</trkpt>
<trkpt lat="33.8101757" lon="-118.394022">
  <ele>-0.1</ele>
  <time>2026-09-02T22:07:32Z</time>
  <course>223.26</course>
  <speed>0.73</speed>
  <fix>3d</fix>
</trkpt>
<trkpt lat="33.8101748" lon="-118.3940235">
  <ele>-0.118</ele>
  <time>2026-09-02T22:07:32Z</time>
  <course>186.3</course>
  <speed>0.7283543093852057</speed>
  <fix>3d</fix>
</trkpt>
<trkpt lat="33.8101747" lon="-118.3940235">
  <ele>-0.119</ele>
  <time>2026-09-02T22:07:32Z</time>
  <course>186.3</course>
  <speed>0.7283543093852057</speed>
  <fix>3d</fix>
</trkpt>
<trkpt lat="33.8101747" lon="-118.3940236">
  <ele>-0.119</ele>
  <time>2026-09-02T22:07:32Z</time>
  <course>186.3</course>
  <speed>0.7283543093852057</speed>
  <fix>3d</fix>
</trkpt>
<trkpt lat="33.8101746" lon="-118.3940236">
  <ele>-0.119</ele>
  <time>2026-09-02T22:07:32Z</time>
  <course>186.3</course>
  <speed>0.7283543093852057</speed>
  <fix>3d</fix>
</trkpt>
<trkpt lat="33.8101746" lon="-118.3940237">
  <ele>-0.119</ele>
  <time>2026-09-02T22:07:32Z</time>
  <course>186.3</course>
  <speed>0.7283543093852057</speed>
  <fix>3d</fix>
</trkpt>
<trkpt lat="33.8101746" lon="-118.3940237">
  <ele>-0.119</ele>
  <time>2026-09-02T22:07:32Z</time>
  <course>186.3</course>
  <speed>0.7283543093852057</speed>
  <fix>3d</fix>
</trkpt>
<trkpt lat="33.8101745" lon="-118.3940238">
  <ele>-0.118</ele>
  <time>2026-09-02T22:07:32Z</time>
  <course>186.3</course>
  <speed>0.7283543093852057</speed>
  <fix>3d</fix>
</trkpt>
<trkpt lat="33.8101745" lon="-118.3940238">
  <ele>-0.119</ele>
  <time>2026-09-02T22:07:32Z</time>
  <course>186.3</course>
  <speed>0.7283543093852057</speed>
  <fix>3d</fix>
</trkpt>
<trkpt lat="33.8101744" lon="-118.3940239">
  <ele>-0.119</ele>
  <time>2026-09-02T22:07:32Z</time>
  <course>186.3</course>
  <speed>0.7283543093852057</speed>
  <fix>3d</fix>
</trkpt>
<trkpt lat="33.8101744" lon="-118.3940239">
  <ele>-0.118</ele>
  <time>2026-09-02T22:07:32Z</time>
  <course>186.3</course>
  <speed>0.7283543093852057</speed>
  <fix>3d</fix>
</trkpt>
<trkpt lat="33.8101743" lon="-118.394024">
  <ele>-0.118</ele>
  <time>2026-09-02T22:07:32Z</time>
  <course>186.3</course>
  <speed>0.7283543093852057</speed>
  <fix>3d</fix>
</trkpt>
<trkpt lat="33.8101743" lon="-118.394024">
  <ele>-0.118</ele>
  <time>2026-09-02T22:07:32Z</time>
  <course>186.3</course>
  <speed>0.7283543093852057</speed>
  <fix>3d</fix>
</trkpt>
<trkpt lat="33.8101748" lon="-118.3940231">
  <ele>-0.1</ele>
  <time>2026-09-02T22:07:32Z</time>
  <course>223.26</course>
  <speed>0.73</speed>
  <fix>3d</fix>
</trkpt>
<trkpt lat="33.8101743" lon="-118.394024">
  <ele>-0.118</ele>
  <time>2026-09-02T22:07:32Z</time>
  <course>186.3</course>
  <speed>0.7283543093852057</speed>
  <fix>3d</fix>
</trkpt>
<trkpt lat="33.8101742" lon="-118.3940241">
  <ele>-0.118</ele>
  <time>2026-09-02T22:07:32Z</time>
  <course>186.3</course>
  <speed>0.7283543093852057</speed>
  <fix>3d</fix>
</trkpt>
<trkpt lat="33.8101742" lon="-118.3940241">
  <ele>-0.118</ele>
  <time>2026-09-02T22:07:32Z</time>
  <course>186.3</course>
  <speed>0.7283543093852057</speed>
  <fix>3d</fix>
</trkpt>
<trkpt lat="33.8101741" lon="-118.3940242">
  <ele>-0.118</ele>
  <time>2026-09-02T22:07:32Z</time>
  <course>186.3</course>
  <speed>0.7283543093852057</speed>
  <fix>3d</fix>
</trkpt>
<trkpt lat="33.8101741" lon="-118.3940242">
  <ele>-0.118</ele>
  <time>2026-09-02T22:07:32Z</time>
  <course>186.3</course>
  <speed>0.7283543093852057</speed>
  <fix>3d</fix>
</trkpt>
<trkpt lat="33.8101741" lon="-118.3940243">
  <ele>-0.118</ele>
  <time>2026-09-02T22:07:32Z</time>
  <course>186.3</course>
  <speed>0.7283543093852057</speed>
  <fix>3d</fix>
</trkpt>
<trkpt lat="33.810174" lon="-118.3940243">
  <ele>-0.118</ele>
  <time>2026-09-02T22:07:32Z</time>
  <course>186.3</course>
  <speed>0.7283543093852057</speed>
  <fix>3d</fix>
</trkpt>
<trkpt lat="33.810174" lon="-118.3940244">
  <ele>-0.118</ele>
  <time>2026-09-02T22:07:32Z</time>
  <course>186.3</course>
  <speed>0.7283543093852057</speed>
  <fix>3d</fix>
</trkpt>
<trkpt lat="33.810174" lon="-118.3940244">
  <ele>-0.118</ele>
  <time>2026-09-02T22:07:32Z</time>
  <course>186.3</course>
  <speed>0.7283543093852057</speed>
  <fix>3d</fix>
</trkpt>
<trkpt lat="33.8101739" lon="-118.3940244">
  <ele>-0.118</ele>
  <time>2026-09-02T22:07:32Z</time>
  <course>186.3</course>
  <speed>0.7283543093852057</speed>
  <fix>3d</fix>
</trkpt>
<trkpt lat="33.8101739" lon="-118.3940245">
  <ele>-0.118</ele>
  <time>2026-09-02T22:07:32Z</time>
  <course>186.3</course>
  <speed>0.7283543093852057</speed>
  <fix>3d</fix>
</trkpt>
<trkpt lat="33.8101738" lon="-118.3940245">
  <ele>-0.118</ele>
  <time>2026-09-02T22:07:32Z</time>
  <course>186.3</course>
  <speed>0.7283543093852057</speed>
  <fix>3d</fix>
</trkpt>
<trkpt lat="33.8101738" lon="-118.3940245">
  <ele>-0.118</ele>
  <time>2026-09-02T22:07:32Z</time>
  <course>186.3</course>
  <speed>0.7283543093852057</speed>
  <fix>3d</fix>
</trkpt>
<trkpt lat="33.8101748" lon="-118.3940231">
  <ele>-0.1</ele>
  <time>2026-09-02T22:07:32Z</time>
  <course>223.26</course>
  <speed>0.73</speed>
  <fix>3d</fix>
</trkpt>
<trkpt lat="33.8101738" lon="-118.3940246">
  <ele>-0.118</ele>
  <time>2026-09-02T22:07:32Z</time>
  <course>186.3</course>
  <speed>0.7283543093852057</speed>
  <fix>3d</fix>
</trkpt>
<trkpt lat="33.8101738" lon="-118.3940246">
  <ele>-0.118</ele>
  <time>2026-09-02T22:07:32Z</time>
  <course>186.3</course>
  <speed>0.7283543093852057</speed>
  <fix>3d</fix>
</trkpt>
<trkpt lat="33.8101737" lon="-118.3940247">
  <ele>-0.118</ele>
  <time>2026-09-02T22:07:32Z</time>
  <course>186.3</course>
  <speed>0.7283543093852057</speed>
  <fix>3d</fix>
</trkpt>
<trkpt lat="33.8101737" lon="-118.3940247">
  <ele>-0.117</ele>
  <time>2026-09-02T22:07:32Z</time>
  <course>186.3</course>
  <speed>0.7283543093852057</speed>
  <fix>3d</fix>
</trkpt>
<trkpt lat="33.8101736" lon="-118.3940248">
  <ele>-0.117</ele>
  <time>2026-09-02T22:07:32Z</time>
  <course>186.3</course>
  <speed>0.7283543093852057</speed>
  <fix>3d</fix>
</trkpt>
<trkpt lat="33.8101736" lon="-118.3940248">
  <ele>-0.117</ele>
  <time>2026-09-02T22:07:32Z</time>
  <course>186.3</course>
  <speed>0.7283543093852057</speed>
  <fix>3d</fix>
</trkpt>
<trkpt lat="33.8101736" lon="-118.3940248">
  <ele>-0.117</ele>
  <time>2026-09-02T22:07:32Z</time>
  <course>186.3</course>
  <speed>0.7283543093852057</speed>
  <fix>3d</fix>
</trkpt>
<trkpt lat="33.8101735" lon="-118.3940249">
  <ele>-0.117</ele>
  <time>2026-09-02T22:07:32Z</time>
  <course>186.3</course>
  <speed>0.7283543093852057</speed>
  <fix>3d</fix>
</trkpt>
<trkpt lat="33.8101735" lon="-118.3940249">
  <ele>-0.117</ele>
  <time>2026-09-02T22:07:32Z</time>
  <course>186.3</course>
  <speed>0.7283543093852057</speed>
  <fix>3d</fix>
</trkpt>
<trkpt lat="33.8101735" lon="-118.394025">
  <ele>-0.117</ele>
  <time>2026-09-02T22:07:32Z</time>
  <course>186.3</course>
  <speed>0.7283543093852057</speed>
  <fix>3d</fix>
</trkpt>
<trkpt lat="33.8101734" lon="-118.394025">
  <ele>-0.117</ele>
  <time>2026-09-02T22:07:32Z</time>
  <course>186.3</course>
  <speed>0.7283543093852057</speed>
  <fix>3d</fix>
</trkpt>
<trkpt lat="33.8101734" lon="-118.394025">
  <ele>-0.117</ele>
  <time>2026-09-02T22:07:32Z</time>
  <course>186.3</course>
  <speed>0.7283543093852057</speed>
  <fix>3d</fix>
</trkpt>
<trkpt lat="33.8101734" lon="-118.3940251">
  <ele>-0.117</ele>
  <time>2026-09-02T22:07:32Z</time>
  <course>186.3</course>
  <speed>0.7283543093852057</speed>
  <fix>3d</fix>
</trkpt>
<trkpt lat="33.8101734" lon="-118.3940251">
  <ele>-0.117</ele>
  <time>2026-09-02T22:07:32Z</time>
  <course>186.3</course>
  <speed>0.7283543093852057</speed>
  <fix>3d</fix>
</trkpt>
<trkpt lat="33.8101738" lon="-118.3940242">
  <ele>-0.11</ele>
  <time>2026-09-02T22:07:32Z</time>
  <course>223.26</course>
  <speed>0.73</speed>
  <fix>3d</fix>
</trkpt>
<trkpt lat="33.8101733" lon="-118.3940252">
  <ele>-0.117</ele>
  <time>2026-09-02T22:07:32Z</time>
  <course>186.3</course>
  <speed>0.7283543093852057</speed>
  <fix>3d</fix>
</trkpt>
<trkpt lat="33.8101732" lon="-118.3940252">
  <ele>-0.117</ele>
  <time>2026-09-02T22:07:32Z</time>
  <course>186.3</course>
  <speed>0.7283543093852057</speed>
  <fix>3d</fix>
</trkpt>
<trkpt lat="33.8101732" lon="-118.3940253">
  <ele>-0.117</ele>
  <time>2026-09-02T22:07:32Z</time>
  <course>186.3</course>
  <speed>0.7283543093852057</speed>
  <fix>3d</fix>
</trkpt>
<trkpt lat="33.8101731" lon="-118.3940253">
  <ele>-0.117</ele>
  <time>2026-09-02T22:07:32Z</time>
  <course>186.3</course>
  <speed>0.7283543093852057</speed>
  <fix>3d</fix>
</trkpt>
<trkpt lat="33.8101731" lon="-118.3940254">
  <ele>-0.117</ele>
  <time>2026-09-02T22:07:32Z</time>
  <course>186.3</course>
  <speed>0.7283543093852057</speed>
  <fix>3d</fix>
</trkpt>
<trkpt lat="33.8101731" lon="-118.3940254">
  <ele>-0.117</ele>
  <time>2026-09-02T22:07:32Z</time>
  <course>186.3</course>
  <speed>0.7283543093852057</speed>
  <fix>3d</fix>
</trkpt>
<trkpt lat="33.810173" lon="-118.3940255">
  <ele>-0.117</ele>
  <time>2026-09-02T22:07:32Z</time>
  <course>186.3</course>
  <speed>0.7283543093852057</speed>
  <fix>3d</fix>
</trkpt>
<trkpt lat="33.810173" lon="-118.3940255">
  <ele>-0.117</ele>
  <time>2026-09-02T22:07:32Z</time>
  <course>186.3</course>
  <speed>0.7283543093852057</speed>
  <fix>3d</fix>
</trkpt>
<trkpt lat="33.810173" lon="-118.3940255">
  <ele>-0.117</ele>
  <time>2026-09-02T22:07:32Z</time>
  <course>186.3</course>
  <speed>0.7283543093852057</speed>
  <fix>3d</fix>
</trkpt>
<trkpt lat="33.8101729" lon="-118.3940256">
  <ele>-0.117</ele>
  <time>2026-09-02T22:07:32Z</time>
  <course>186.3</course>
  <speed>0.7283543093852057</speed>
  <fix>3d</fix>
</trkpt>
<trkpt lat="33.8101729" lon="-118.3940256">
  <ele>-0.117</ele>
  <time>2026-09-02T22:07:32Z</time>
  <course>186.3</course>
  <speed>0.7283543093852057</speed>
  <fix>3d</fix>
</trkpt>
<trkpt lat="33.8101729" lon="-118.3940256">
  <ele>-0.117</ele>
  <time>2026-09-02T22:07:32Z</time>
  <course>186.3</course>
  <speed>0.7283543093852057</speed>
  <fix>3d</fix>
</trkpt>
<trkpt lat="33.8101738" lon="-118.3940242">
  <ele>-0.11</ele>
  <time>2026-09-02T22:07:32Z</time>
  <course>223.26</course>
  <speed>0.73</speed>
  <fix>3d</fix>
</trkpt>
<trkpt lat="33.8101728" lon="-118.3940257">
  <ele>-0.117</ele>
  <time>2026-09-02T22:07:32Z</time>
  <course>186.3</course>
  <speed>0.7283543093852057</speed>
  <fix>3d</fix>
</trkpt>
<trkpt lat="33.8101728" lon="-118.3940257">
  <ele>-0.116</ele>
  <time>2026-09-02T22:07:32Z</time>
  <course>186.3</course>
  <speed>0.7283543093852057</speed>
  <fix>3d</fix>
</trkpt>
<trkpt lat="33.8101727" lon="-118.3940258">
  <ele>-0.116</ele>
  <time>2026-09-02T22:07:32Z</time>
  <course>186.3</course>
  <speed>0.7283543093852057</speed>
  <fix>3d</fix>
</trkpt>
<trkpt lat="33.8101727" lon="-118.3940258">
  <ele>-0.116</ele>
  <time>2026-09-02T22:07:32Z</time>
  <course>186.3</course>
  <speed>0.7283543093852057</speed>
  <fix>3d</fix>
</trkpt>
<trkpt lat="33.8101727" lon="-118.3940259">
  <ele>-0.116</ele>
  <time>2026-09-02T22:07:32Z</time>
  <course>186.3</course>
  <speed>0.7283543093852057</speed>
  <fix>3d</fix>
</trkpt>
<trkpt lat="33.8101726" lon="-118.3940259">
  <ele>-0.116</ele>
  <time>2026-09-02T22:07:32Z</time>
  <course>186.3</course>
  <speed>0.7283543093852057</speed>
  <fix>3d</fix>
</trkpt>
<trkpt lat="33.8101726" lon="-118.3940259">
  <ele>-0.116</ele>
  <time>2026-09-02T22:07:32Z</time>
  <course>186.3</course>
  <speed>0.7283543093852057</speed>
  <fix>3d</fix>
</trkpt>
<trkpt lat="33.8101726" lon="-118.394026">
  <ele>-0.116</ele>
  <time>2026-09-02T22:07:32Z</time>
  <course>186.3</course>
  <speed>0.7283543093852057</speed>
  <fix>3d</fix>
</trkpt>
<trkpt lat="33.8101725" lon="-118.394026">
  <ele>-0.116</ele>
  <time>2026-09-02T22:07:32Z</time>
  <course>186.3</course>
  <speed>0.7283543093852057</speed>
  <fix>3d</fix>
</trkpt>
<trkpt lat="33.8101725" lon="-118.3940261">
  <ele>-0.116</ele>
  <time>2026-09-02T22:07:32Z</time>
  <course>186.3</course>
  <speed>0.7283543093852057</speed>
  <fix>3d</fix>
</trkpt>
<trkpt lat="33.8101724" lon="-118.3940262">
  <ele>-0.116</ele>
  <time>2026-09-02T22:07:32Z</time>
  <course>186.3</course>
  <speed>0.7283543093852057</speed>
  <fix>3d</fix>
</trkpt>
<trkpt lat="33.8101724" lon="-118.3940262">
  <ele>-0.116</ele>
  <time>2026-09-02T22:07:32Z</time>
  <course>186.3</course>
  <speed>0.7283543093852057</speed>
  <fix>3d</fix>
</trkpt>
<trkpt lat="33.8101729" lon="-118.3940253">
  <ele>-0.11</ele>
  <time>2026-09-02T22:07:32Z</time>
  <course>223.26</course>
  <speed>0.73</speed>
  <fix>3d</fix>
</trkpt>
<trkpt lat="33.8101723" lon="-118.3940263">
  <ele>-0.116</ele>
  <time>2026-09-02T22:07:32Z</time>
  <course>186.3</course>
  <speed>0.7283543093852057</speed>
  <fix>3d</fix>
</trkpt>
<trkpt lat="33.8101723" lon="-118.3940263">
  <ele>-0.116</ele>
  <time>2026-09-02T22:07:32Z</time>
  <course>186.3</course>
  <speed>0.7283543093852057</speed>
  <fix>3d</fix>
</trkpt>
<trkpt lat="33.8101722" lon="-118.3940264">
  <ele>-0.116</ele>
  <time>2026-09-02T22:07:32Z</time>
  <course>186.3</course>
  <speed>0.7283543093852057</speed>
  <fix>3d</fix>
</trkpt>
<trkpt lat="33.8101722" lon="-118.3940264">
  <ele>-0.116</ele>
  <time>2026-09-02T22:07:32Z</time>
  <course>186.3</course>
  <speed>0.7283543093852057</speed>
  <fix>3d</fix>
</trkpt>
<trkpt lat="33.8101721" lon="-118.3940265">
  <ele>-0.116</ele>
  <time>2026-09-02T22:07:32Z</time>
  <course>186.3</course>
  <speed>0.7283543093852057</speed>
  <fix>3d</fix>
</trkpt>
<trkpt lat="33.8101721" lon="-118.3940265">
  <ele>-0.116</ele>
  <time>2026-09-02T22:07:32Z</time>
  <course>186.3</course>
  <speed>0.7283543093852057</speed>
  <fix>3d</fix>
</trkpt>
<trkpt lat="33.810172" lon="-118.3940266">
  <ele>-0.116</ele>
  <time>2026-09-02T22:07:32Z</time>
  <course>186.3</course>
  <speed>0.7283543093852057</speed>
  <fix>3d</fix>
</trkpt>
<trkpt lat="33.810172" lon="-118.3940266">
  <ele>-0.116</ele>
  <time>2026-09-02T22:07:32Z</time>
  <course>186.3</course>
  <speed>0.7283543093852057</speed>
  <fix>3d</fix>
</trkpt>
<trkpt lat="33.810172" lon="-118.3940267">
  <ele>-0.116</ele>
  <time>2026-09-02T22:07:32Z</time>
  <course>186.3</course>
  <speed>0.7283543093852057</speed>
  <fix>3d</fix>
</trkpt>
<trkpt lat="33.8101719" lon="-118.3940267">
  <ele>-0.116</ele>
  <time>2026-09-02T22:07:32Z</time>
  <course>186.3</course>
  <speed>0.7283543093852057</speed>
  <fix>3d</fix>
</trkpt>
<trkpt lat="33.8101719" lon="-118.3940267">
  <ele>-0.116</ele>
  <time>2026-09-02T22:07:32Z</time>
  <course>186.3</course>
  <speed>0.7283543093852057</speed>
  <fix>3d</fix>
</trkpt>
<trkpt lat="33.8101729" lon="-118.3940253">
  <ele>-0.11</ele>
  <time>2026-09-02T22:07:32Z</time>
  <course>223.26</course>
  <speed>0.73</speed>
  <fix>3d</fix>
</trkpt>
<trkpt lat="33.8101719" lon="-118.3940267">
  <ele>-0.116</ele>
  <time>2026-09-02T22:07:32Z</time>
  <course>186.3</course>
  <speed>0.7283543093852057</speed>
  <fix>3d</fix>
</trkpt>
<trkpt lat="33.8101718" lon="-118.3940268">
  <ele>-0.116</ele>
  <time>2026-09-02T22:07:32Z</time>
  <course>186.29</course>
  <speed>0.7283543093852057</speed>
  <fix>3d</fix>
</trkpt>
<trkpt lat="33.8101718" lon="-118.3940269">
  <ele>-0.116</ele>
  <time>2026-09-02T22:07:32Z</time>
  <course>186.29</course>
  <speed>0.7283543093852057</speed>
  <fix>3d</fix>
</trkpt>
<trkpt lat="33.8101718" lon="-118.3940269">
  <ele>-0.116</ele>
  <time>2026-09-02T22:07:32Z</time>
  <course>186.29</course>
  <speed>0.7283543093852057</speed>
  <fix>3d</fix>
</trkpt>
<trkpt lat="33.8101717" lon="-118.394027">
  <ele>-0.116</ele>
  <time>2026-09-02T22:07:32Z</time>
  <course>186.3</course>
  <speed>0.7283543093852057</speed>
  <fix>3d</fix>
</trkpt>
<trkpt lat="33.8101717" lon="-118.394027">
  <ele>-0.116</ele>
  <time>2026-09-02T22:07:32Z</time>
  <course>186.3</course>
  <speed>0.7283543093852057</speed>
  <fix>3d</fix>
</trkpt>
<trkpt lat="33.8101716" lon="-118.394027">
  <ele>-0.116</ele>
  <time>2026-09-02T22:07:32Z</time>
  <course>186.3</course>
  <speed>0.7283543093852057</speed>
  <fix>3d</fix>
</trkpt>
<trkpt lat="33.8101716" lon="-118.3940271">
  <ele>-0.116</ele>
  <time>2026-09-02T22:07:32Z</time>
  <course>186.29</course>
  <speed>0.7283543093852057</speed>
  <fix>3d</fix>
</trkpt>
<trkpt lat="33.8101716" lon="-118.3940271">
  <ele>-0.116</ele>
  <time>2026-09-02T22:07:32Z</time>
  <course>186.29</course>
  <speed>0.7283543093852057</speed>
  <fix>3d</fix>
</trkpt>
<trkpt lat="33.8101715" lon="-118.3940272">
  <ele>-0.116</ele>
  <time>2026-09-02T22:07:32Z</time>
  <course>186.29</course>
  <speed>0.7283543093852057</speed>
  <fix>3d</fix>
</trkpt>
<trkpt lat="33.8101715" lon="-118.3940272">
  <ele>-0.116</ele>
  <time>2026-09-02T22:07:32Z</time>
  <course>186.29</course>
  <speed>0.7283543093852057</speed>
  <fix>3d</fix>
</trkpt>
<trkpt lat="33.8101715" lon="-118.3940272">
  <ele>-0.116</ele>
  <time>2026-09-02T22:07:32Z</time>
  <course>186.29</course>
  <speed>0.7283543093852057</speed>
  <fix>3d</fix>
</trkpt>
<trkpt lat="33.8101714" lon="-118.3940273">
  <ele>-0.116</ele>
  <time>2026-09-02T22:07:32Z</time>
  <course>186.29</course>
  <speed>0.7283543093852057</speed>
  <fix>3d</fix>
</trkpt>
<trkpt lat="33.8101719" lon="-118.3940263">
  <ele>-0.1</ele>
  <time>2026-09-02T22:07:32Z</time>
  <course>223.26</course>
  <speed>0.73</speed>
  <fix>3d</fix>
</trkpt>
<trkpt lat="33.8101714" lon="-118.3940273">
  <ele>-0.116</ele>
  <time>2026-09-02T22:07:32Z</time>
  <course>186.29</course>
  <speed>0.7283543093852057</speed>
  <fix>3d</fix>
</trkpt>
<trkpt lat="33.8101714" lon="-118.3940274">
  <ele>-0.115</ele>
  <time>2026-09-02T22:07:32Z</time>
  <course>186.29</course>
  <speed>0.7283543093852057</speed>
  <fix>3d</fix>
</trkpt>
<trkpt lat="33.8101713" lon="-118.3940274">
  <ele>-0.115</ele>
  <time>2026-09-02T22:07:32Z</time>
  <course>186.29</course>
  <speed>0.7283543093852057</speed>
  <fix>3d</fix>
</trkpt>
<trkpt lat="33.8101713" lon="-118.3940275">
  <ele>-0.115</ele>
  <time>2026-09-02T22:07:32Z</time>
  <course>186.29</course>
  <speed>0.7283543093852057</speed>
  <fix>3d</fix>
</trkpt>
<trkpt lat="33.8101712" lon="-118.3940275">
  <ele>-0.115</ele>
  <time>2026-09-02T22:07:32Z</time>
  <course>186.29</course>
  <speed>0.7283543093852057</speed>
  <fix>3d</fix>
</trkpt>
<trkpt lat="33.8101712" lon="-118.3940275">
  <ele>-0.115</ele>
  <time>2026-09-02T22:07:32Z</time>
  <course>186.29</course>
  <speed>0.7283543093852057</speed>
  <fix>3d</fix>
</trkpt>
<trkpt lat="33.8101712" lon="-118.3940276">
  <ele>-0.115</ele>
  <time>2026-09-02T22:07:32Z</time>
  <course>186.29</course>
  <speed>0.7283543093852057</speed>
  <fix>3d</fix>
</trkpt>
<trkpt lat="33.8101711" lon="-118.3940276">
  <ele>-0.115</ele>
  <time>2026-09-02T22:07:32Z</time>
  <course>186.29</course>
  <speed>0.7283543093852057</speed>
  <fix>3d</fix>
</trkpt>
<trkpt lat="33.8101711" lon="-118.3940277">
  <ele>-0.115</ele>
  <time>2026-09-02T22:07:32Z</time>
  <course>186.29</course>
  <speed>0.7283543093852057</speed>
  <fix>3d</fix>
</trkpt>
<trkpt lat="33.810171" lon="-118.3940277">
  <ele>-0.115</ele>
  <time>2026-09-02T22:07:32Z</time>
  <course>186.29</course>
  <speed>0.7283543093852057</speed>
  <fix>3d</fix>
</trkpt>
<trkpt lat="33.810171" lon="-118.3940278">
  <ele>-0.115</ele>
  <time>2026-09-02T22:07:32Z</time>
  <course>186.29</course>
  <speed>0.7283543093852057</speed>
  <fix>3d</fix>
</trkpt>
<trkpt lat="33.810171" lon="-118.3940278">
  <ele>-0.114</ele>
  <time>2026-09-02T22:07:32Z</time>
  <course>186.29</course>
  <speed>0.7283543093852057</speed>
  <fix>3d</fix>
</trkpt>
<trkpt lat="33.810171" lon="-118.3940278">
  <ele>-0.114</ele>
  <time>2026-09-02T22:07:32Z</time>
  <course>186.29</course>
  <speed>0.7283543093852057</speed>
  <fix>3d</fix>
</trkpt>
<trkpt lat="33.8101719" lon="-118.3940263">
  <ele>-0.1</ele>
  <time>2026-09-02T22:07:32Z</time>
  <course>223.26</course>
  <speed>0.73</speed>
  <fix>3d</fix>
</trkpt>
<trkpt lat="33.810171" lon="-118.3940278">
  <ele>-0.114</ele>
  <time>2026-09-02T22:07:32Z</time>
  <course>186.29</course>
  <speed>0.7283543093852057</speed>
  <fix>3d</fix>
</trkpt>
<trkpt lat="33.8101709" lon="-118.3940279">
  <ele>-0.114</ele>
  <time>2026-09-02T22:07:32Z</time>
  <course>186.29</course>
  <speed>0.7283543093852057</speed>
  <fix>3d</fix>
</trkpt>
<trkpt lat="33.8101708" lon="-118.394028">
  <ele>-0.114</ele>
  <time>2026-09-02T22:07:32Z</time>
  <course>186.29</course>
  <speed>0.7283543093852057</speed>
  <fix>3d</fix>
</trkpt>
<trkpt lat="33.8101708" lon="-118.394028">
  <ele>-0.114</ele>
  <time>2026-09-02T22:07:32Z</time>
  <course>186.29</course>
  <speed>0.7283543093852057</speed>
  <fix>3d</fix>
</trkpt>
<trkpt lat="33.8101708" lon="-118.3940281">
  <ele>-0.114</ele>
  <time>2026-09-02T22:07:32Z</time>
  <course>186.29</course>
  <speed>0.7283543093852057</speed>
  <fix>3d</fix>
</trkpt>
<trkpt lat="33.8101707" lon="-118.3940281">
  <ele>-0.114</ele>
  <time>2026-09-02T22:07:32Z</time>
  <course>186.29</course>
  <speed>0.7283543093852057</speed>
  <fix>3d</fix>
</trkpt>
<trkpt lat="33.8101707" lon="-118.3940282">
  <ele>-0.114</ele>
  <time>2026-09-02T22:07:32Z</time>
  <course>186.29</course>
  <speed>0.7283543093852057</speed>
  <fix>3d</fix>
</trkpt>
<trkpt lat="33.8101706" lon="-118.3940282">
  <ele>-0.114</ele>
  <time>2026-09-02T22:07:32Z</time>
  <course>186.29</course>
  <speed>0.7283543093852057</speed>
  <fix>3d</fix>
</trkpt>
<trkpt lat="33.8101706" lon="-118.3940282">
  <ele>-0.114</ele>
  <time>2026-09-02T22:07:32Z</time>
  <course>186.29</course>
  <speed>0.7283543093852057</speed>
  <fix>3d</fix>
</trkpt>
<trkpt lat="33.8101706" lon="-118.3940283">
  <ele>-0.114</ele>
  <time>2026-09-02T22:07:32Z</time>
  <course>186.29</course>
  <speed>0.7283543093852057</speed>
  <fix>3d</fix>
</trkpt>
<trkpt lat="33.8101705" lon="-118.3940283">
  <ele>-0.114</ele>
  <time>2026-09-02T22:07:32Z</time>
  <course>186.29</course>
  <speed>0.7283543093852057</speed>
  <fix>3d</fix>
</trkpt>
<trkpt lat="33.8101705" lon="-118.3940284">
  <ele>-0.114</ele>
  <time>2026-09-02T22:07:32Z</time>
  <course>186.29</course>
  <speed>0.7283543093852057</speed>
  <fix>3d</fix>
</trkpt>
<trkpt lat="33.8101705" lon="-118.3940284">
  <ele>-0.114</ele>
  <time>2026-09-02T22:07:32Z</time>
  <course>186.29</course>
  <speed>0.7283543093852057</speed>
  <fix>3d</fix>
</trkpt>
<trkpt lat="33.8101709" lon="-118.3940274">
  <ele>-0.1</ele>
  <time>2026-09-02T22:07:32Z</time>
  <course>223.26</course>
  <speed>0.73</speed>
  <fix>3d</fix>
</trkpt>
<trkpt lat="33.8101704" lon="-118.3940284">
  <ele>-0.114</ele>
  <time>2026-09-02T22:07:32Z</time>
  <course>186.29</course>
  <speed>0.7283543093852057</speed>
  <fix>3d</fix>
</trkpt>
<trkpt lat="33.8101704" lon="-118.3940285">
  <ele>-0.114</ele>
  <time>2026-09-02T22:07:32Z</time>
  <course>186.29</course>
  <speed>0.7283543093852057</speed>
  <fix>3d</fix>
</trkpt>
<trkpt lat="33.8101703" lon="-118.3940285">
  <ele>-0.114</ele>
  <time>2026-09-02T22:07:32Z</time>
  <course>186.29</course>
  <speed>0.7283543093852057</speed>
  <fix>3d</fix>
</trkpt>
<trkpt lat="33.8101703" lon="-118.3940286">
  <ele>-0.114</ele>
  <time>2026-09-02T22:07:32Z</time>
  <course>186.29</course>
  <speed>0.7283543093852057</speed>
  <fix>3d</fix>
</trkpt>
<trkpt lat="33.8101702" lon="-118.3940286">
  <ele>-0.114</ele>
  <time>2026-09-02T22:07:32Z</time>
  <course>186.29</course>
  <speed>0.7283543093852057</speed>
  <fix>3d</fix>
</trkpt>
<trkpt lat="33.8101702" lon="-118.3940287">
  <ele>-0.114</ele>
  <time>2026-09-02T22:07:32Z</time>
  <course>186.29</course>
  <speed>0.7283543093852057</speed>
  <fix>3d</fix>
</trkpt>
<trkpt lat="33.8101702" lon="-118.3940287">
  <ele>-0.114</ele>
  <time>2026-09-02T22:07:32Z</time>
  <course>186.29</course>
  <speed>0.7283543093852057</speed>
  <fix>3d</fix>
</trkpt>
<trkpt lat="33.8101701" lon="-118.3940288">
  <ele>-0.114</ele>
  <time>2026-09-02T22:07:32Z</time>
  <course>186.29</course>
  <speed>0.7283543093852057</speed>
  <fix>3d</fix>
</trkpt>
<trkpt lat="33.8101701" lon="-118.3940288">
  <ele>-0.114</ele>
  <time>2026-09-02T22:07:32Z</time>
  <course>186.29</course>
  <speed>0.7283543093852057</speed>
  <fix>3d</fix>
</trkpt>
<trkpt lat="33.8101701" lon="-118.3940288">
  <ele>-0.114</ele>
  <time>2026-09-02T22:07:32Z</time>
  <course>186.29</course>
  <speed>0.7283543093852057</speed>
  <fix>3d</fix>
</trkpt>
<trkpt lat="33.81017" lon="-118.3940289">
  <ele>-0.114</ele>
  <time>2026-09-02T22:07:32Z</time>
  <course>186.29</course>
  <speed>0.7283543093852057</speed>
  <fix>3d</fix>
</trkpt>
<trkpt lat="33.81017" lon="-118.3940289">
  <ele>-0.114</ele>
  <time>2026-09-02T22:07:32Z</time>
  <course>186.29</course>
  <speed>0.7283543093852057</speed>
  <fix>3d</fix>
</trkpt>
<trkpt lat="33.8101709" lon="-118.3940274">
  <ele>-0.1</ele>
  <time>2026-09-02T22:07:32Z</time>
  <course>223.26</course>
  <speed>0.73</speed>
  <fix>3d</fix>
</trkpt>
<trkpt lat="33.81017" lon="-118.3940289">
  <ele>-0.114</ele>
  <time>2026-09-02T22:07:32Z</time>
  <course>186.29</course>
  <speed>0.7283543093852057</speed>
  <fix>3d</fix>
</trkpt>
<trkpt lat="33.8101699" lon="-118.394029">
  <ele>-0.114</ele>
  <time>2026-09-02T22:07:32Z</time>
  <course>186.29</course>
  <speed>0.7283543093852057</speed>
  <fix>3d</fix>
</trkpt>
<trkpt lat="33.8101699" lon="-118.394029">
  <ele>-0.114</ele>
  <time>2026-09-02T22:07:32Z</time>
  <course>186.29</course>
  <speed>0.7283543093852057</speed>
  <fix>3d</fix>
</trkpt>
<trkpt lat="33.8101699" lon="-118.3940291">
  <ele>-0.114</ele>
  <time>2026-09-02T22:07:32Z</time>
  <course>186.29</course>
  <speed>0.7283543093852057</speed>
  <fix>3d</fix>
</trkpt>
<trkpt lat="33.8101698" lon="-118.3940291">
  <ele>-0.114</ele>
  <time>2026-09-02T22:07:32Z</time>
  <course>186.29</course>
  <speed>0.7283543093852057</speed>
  <fix>3d</fix>
</trkpt>
<trkpt lat="33.8101698" lon="-118.3940292">
  <ele>-0.114</ele>
  <time>2026-09-02T22:07:32Z</time>
  <course>186.29</course>
  <speed>0.7283543093852057</speed>
  <fix>3d</fix>
</trkpt>
<trkpt lat="33.8101698" lon="-118.3940292">
  <ele>-0.114</ele>
  <time>2026-09-02T22:07:32Z</time>
  <course>186.29</course>
  <speed>0.7283543093852057</speed>
  <fix>3d</fix>
</trkpt>
<trkpt lat="33.8101697" lon="-118.3940292">
  <ele>-0.114</ele>
  <time>2026-09-02T22:07:32Z</time>
  <course>186.29</course>
  <speed>0.7283543093852057</speed>
  <fix>3d</fix>
</trkpt>
<trkpt lat="33.8101697" lon="-118.3940293">
  <ele>-0.114</ele>
  <time>2026-09-02T22:07:32Z</time>
  <course>186.29</course>
  <speed>0.7283543093852057</speed>
  <fix>3d</fix>
</trkpt>
<trkpt lat="33.8101696" lon="-118.3940293">
  <ele>-0.114</ele>
  <time>2026-09-02T22:07:32Z</time>
  <course>186.29</course>
  <speed>0.7283543093852057</speed>
  <fix>3d</fix>
</trkpt>
<trkpt lat="33.8101696" lon="-118.3940294">
  <ele>-0.114</ele>
  <time>2026-09-02T22:07:32Z</time>
  <course>186.29</course>
  <speed>0.7283543093852057</speed>
  <fix>3d</fix>
</trkpt>
<trkpt lat="33.8101696" lon="-118.3940294">
  <ele>-0.114</ele>
  <time>2026-09-02T22:07:32Z</time>
  <course>186.29</course>
  <speed>0.7283543093852057</speed>
  <fix>3d</fix>
</trkpt>
<trkpt lat="33.8101695" lon="-118.3940294">
  <ele>-0.115</ele>
  <time>2026-09-02T22:07:32Z</time>
  <course>186.29</course>
  <speed>0.7283543093852057</speed>
  <fix>3d</fix>
</trkpt>
<trkpt lat="33.8101695" lon="-118.3940294">
  <ele>-0.115</ele>
  <time>2026-09-02T22:07:32Z</time>
  <course>186.29</course>
  <speed>0.7283543093852057</speed>
  <fix>3d</fix>
</trkpt>
<trkpt lat="33.81017" lon="-118.3940285">
  <ele>-0.1</ele>
  <time>2026-09-02T22:07:32Z</time>
  <course>223.26</course>
  <speed>0.73</speed>
  <fix>3d</fix>
</trkpt>
<trkpt lat="33.8101695" lon="-118.3940295">
  <ele>-0.115</ele>
  <time>2026-09-02T22:07:32Z</time>
  <course>186.29</course>
  <speed>0.7283543093852057</speed>
  <fix>3d</fix>
</trkpt>
<trkpt lat="33.8101694" lon="-118.3940296">
  <ele>-0.115</ele>
  <time>2026-09-02T22:07:32Z</time>
  <course>186.29</course>
  <speed>0.7283543093852057</speed>
  <fix>3d</fix>
</trkpt>
<trkpt lat="33.8101694" lon="-118.3940296">
  <ele>-0.115</ele>
  <time>2026-09-02T22:07:32Z</time>
  <course>186.29</course>
  <speed>0.7283543093852057</speed>
  <fix>3d</fix>
</trkpt>
<trkpt lat="33.8101693" lon="-118.3940297">
  <ele>-0.115</ele>
  <time>2026-09-02T22:07:32Z</time>
  <course>186.29</course>
  <speed>0.7283543093852057</speed>
  <fix>3d</fix>
</trkpt>
<trkpt lat="33.8101693" lon="-118.3940297">
  <ele>-0.115</ele>
  <time>2026-09-02T22:07:32Z</time>
  <course>186.29</course>
  <speed>0.7283543093852057</speed>
  <fix>3d</fix>
</trkpt>
<trkpt lat="33.8101693" lon="-118.3940297">
  <ele>-0.115</ele>
  <time>2026-09-02T22:07:32Z</time>
  <course>186.29</course>
  <speed>0.7283543093852057</speed>
  <fix>3d</fix>
</trkpt>
<trkpt lat="33.8101691" lon="-118.3940299">
  <ele>-0.115</ele>
  <time>2026-09-02T22:07:32Z</time>
  <course>186.29</course>
  <speed>0.7283543093852057</speed>
  <fix>3d</fix>
</trkpt>
<trkpt lat="33.8101691" lon="-118.3940299">
  <ele>-0.115</ele>
  <time>2026-09-02T22:07:32Z</time>
  <course>186.29</course>
  <speed>0.7283543093852057</speed>
  <fix>3d</fix>
</trkpt>
<trkpt lat="33.8101691" lon="-118.39403">
  <ele>-0.115</ele>
  <time>2026-09-02T22:07:32Z</time>
  <course>186.29</course>
  <speed>0.7283543093852057</speed>
  <fix>3d</fix>
</trkpt>
<trkpt lat="33.810169" lon="-118.39403">
  <ele>-0.115</ele>
  <time>2026-09-02T22:07:32Z</time>
  <course>186.29</course>
  <speed>0.7283543093852057</speed>
  <fix>3d</fix>
</trkpt>
<trkpt lat="33.81017" lon="-118.3940285">
  <ele>-0.1</ele>
  <time>2026-09-02T22:07:32Z</time>
  <course>223.26</course>
  <speed>0.73</speed>
  <fix>3d</fix>
</trkpt>
<trkpt lat="33.810169" lon="-118.39403">
  <ele>-0.116</ele>
  <time>2026-09-02T22:07:32Z</time>
  <course>186.29</course>
  <speed>0.7283543093852057</speed>
  <fix>3d</fix>
</trkpt>
<trkpt lat="33.810169" lon="-118.3940301">
  <ele>-0.116</ele>
  <time>2026-09-02T22:07:32Z</time>
  <course>186.29</course>
  <speed>0.7283543093852057</speed>
  <fix>3d</fix>
</trkpt>
<trkpt lat="33.8101689" lon="-118.3940301">
  <ele>-0.116</ele>
  <time>2026-09-02T22:07:32Z</time>
  <course>186.29</course>
  <speed>0.7213875518748573</speed>
  <fix>3d</fix>
</trkpt>
<trkpt lat="33.8101689" lon="-118.3940302">
  <ele>-0.116</ele>
  <time>2026-09-02T22:07:32Z</time>
  <course>186.29</course>
  <speed>0.7213875518748573</speed>
  <fix>3d</fix>
</trkpt>
<trkpt lat="33.8101688" lon="-118.3940302">
  <ele>-0.116</ele>
  <time>2026-09-02T22:07:32Z</time>
  <course>186.29</course>
  <speed>0.7213875518748573</speed>
  <fix>3d</fix>
</trkpt>
<trkpt lat="33.8101688" lon="-118.3940303">
  <ele>-0.116</ele>
  <time>2026-09-02T22:07:32Z</time>
  <course>186.29</course>
  <speed>0.7213875518748573</speed>
  <fix>3d</fix>
</trkpt>
<trkpt lat="33.8101688" lon="-118.3940303">
  <ele>-0.116</ele>
  <time>2026-09-02T22:07:32Z</time>
  <course>186.29</course>
  <speed>0.7213875518748573</speed>
  <fix>3d</fix>
</trkpt>
<trkpt lat="33.8101687" lon="-118.3940303">
  <ele>-0.116</ele>
  <time>2026-09-02T22:07:32Z</time>
  <course>186.29</course>
  <speed>0.7213875518748573</speed>
  <fix>3d</fix>
</trkpt>
<trkpt lat="33.8101687" lon="-118.3940304">
  <ele>-0.116</ele>
  <time>2026-09-02T22:07:32Z</time>
  <course>186.29</course>
  <speed>0.7213875518748573</speed>
  <fix>3d</fix>
</trkpt>
<trkpt lat="33.8101687" lon="-118.3940304">
  <ele>-0.116</ele>
  <time>2026-09-02T22:07:32Z</time>
  <course>186.29</course>
  <speed>0.7213875518748573</speed>
  <fix>3d</fix>
</trkpt>
<trkpt lat="33.8101686" lon="-118.3940305">
  <ele>-0.116</ele>
  <time>2026-09-02T22:07:32Z</time>
  <course>186.29</course>
  <speed>0.7213875518748573</speed>
  <fix>3d</fix>
</trkpt>
<trkpt lat="33.8101686" lon="-118.3940305">
  <ele>-0.116</ele>
  <time>2026-09-02T22:07:32Z</time>
  <course>186.29</course>
  <speed>0.7213875518748573</speed>
  <fix>3d</fix>
</trkpt>
<trkpt lat="33.8101686" lon="-118.3940305">
  <ele>-0.116</ele>
  <time>2026-09-02T22:07:32Z</time>
  <course>186.29</course>
  <speed>0.7213875518748573</speed>
  <fix>3d</fix>
</trkpt>
<trkpt lat="33.810169" lon="-118.3940296">
  <ele>-0.11</ele>
  <time>2026-09-02T22:07:32Z</time>
  <course>223.26</course>
  <speed>0.73</speed>
  <fix>3d</fix>
</trkpt>
<trkpt lat="33.8101686" lon="-118.3940306">
  <ele>-0.116</ele>
  <time>2026-09-02T22:07:32Z</time>
  <course>186.29</course>
  <speed>0.7213875518748573</speed>
  <fix>3d</fix>
</trkpt>
<trkpt lat="33.8101685" lon="-118.3940306">
  <ele>-0.116</ele>
  <time>2026-09-02T22:07:32Z</time>
  <course>186.29</course>
  <speed>0.7213875518748573</speed>
  <fix>3d</fix>
</trkpt>
<trkpt lat="33.8101684" lon="-118.3940307">
  <ele>-0.116</ele>
  <time>2026-09-02T22:07:32Z</time>
  <course>186.29</course>
  <speed>0.7213875518748573</speed>
  <fix>3d</fix>
</trkpt>
<trkpt lat="33.8101684" lon="-118.3940307">
  <ele>-0.116</ele>
  <time>2026-09-02T22:07:32Z</time>
  <course>186.29</course>
  <speed>0.7213875518748573</speed>
  <fix>3d</fix>
</trkpt>
<trkpt lat="33.8101684" lon="-118.3940308">
  <ele>-0.116</ele>
  <time>2026-09-02T22:07:32Z</time>
  <course>186.29</course>
  <speed>0.7213875518748573</speed>
  <fix>3d</fix>
</trkpt>
<trkpt lat="33.8101683" lon="-118.3940308">
  <ele>-0.116</ele>
  <time>2026-09-02T22:07:32Z</time>
  <course>186.29</course>
  <speed>0.7213875518748573</speed>
  <fix>3d</fix>
</trkpt>
<trkpt lat="33.8101683" lon="-118.3940308">
  <ele>-0.116</ele>
  <time>2026-09-02T22:07:32Z</time>
  <course>186.29</course>
  <speed>0.7213875518748573</speed>
  <fix>3d</fix>
</trkpt>
<trkpt lat="33.8101683" lon="-118.3940309">
  <ele>-0.116</ele>
  <time>2026-09-02T22:07:32Z</time>
  <course>186.29</course>
  <speed>0.7213875518748573</speed>
  <fix>3d</fix>
</trkpt>
<trkpt lat="33.8101682" lon="-118.3940309">
  <ele>-0.116</ele>
  <time>2026-09-02T22:07:32Z</time>
  <course>186.29</course>
  <speed>0.7213875518748573</speed>
  <fix>3d</fix>
</trkpt>
<trkpt lat="33.8101682" lon="-118.394031">
  <ele>-0.116</ele>
  <time>2026-09-02T22:07:32Z</time>
  <course>186.29</course>
  <speed>0.7213875518748573</speed>
  <fix>3d</fix>
</trkpt>
<trkpt lat="33.8101681" lon="-118.394031">
  <ele>-0.115</ele>
  <time>2026-09-02T22:07:32Z</time>
  <course>186.29</course>
  <speed>0.7213875518748573</speed>
  <fix>3d</fix>
</trkpt>
<trkpt lat="33.8101681" lon="-118.3940311">
  <ele>-0.115</ele>
  <time>2026-09-02T22:07:32Z</time>
  <course>186.29</course>
  <speed>0.7213875518748573</speed>
  <fix>3d</fix>
</trkpt>
<trkpt lat="33.8101681" lon="-118.3940311">
  <ele>-0.115</ele>
  <time>2026-09-02T22:07:32Z</time>
  <course>186.29</course>
  <speed>0.7213875518748573</speed>
  <fix>3d</fix>
</trkpt>
<trkpt lat="33.810169" lon="-118.3940296">
  <ele>-0.11</ele>
  <time>2026-09-02T22:07:32Z</time>
  <course>223.26</course>
  <speed>0.73</speed>
  <fix>3d</fix>
</trkpt>
<trkpt lat="33.8101681" lon="-118.3940311">
  <ele>-0.115</ele>
  <time>2026-09-02T22:07:32Z</time>
  <course>186.29</course>
  <speed>0.7213875518748573</speed>
  <fix>3d</fix>
</trkpt>
<trkpt lat="33.810168" lon="-118.3940312">
  <ele>-0.115</ele>
  <time>2026-09-02T22:07:32Z</time>
  <course>186.29</course>
  <speed>0.7213875518748573</speed>
  <fix>3d</fix>
</trkpt>
<trkpt lat="33.810168" lon="-118.3940312">
  <ele>-0.115</ele>
  <time>2026-09-02T22:07:32Z</time>
  <course>186.29</course>
  <speed>0.7213875518748573</speed>
  <fix>3d</fix>
</trkpt>
<trkpt lat="33.8101679" lon="-118.3940313">
  <ele>-0.115</ele>
  <time>2026-09-02T22:07:32Z</time>
  <course>186.29</course>
  <speed>0.7213875518748573</speed>
  <fix>3d</fix>
</trkpt>
<trkpt lat="33.8101679" lon="-118.3940313">
  <ele>-0.115</ele>
  <time>2026-09-02T22:07:32Z</time>
  <course>186.29</course>
  <speed>0.7213875518748573</speed>
  <fix>3d</fix>
</trkpt>
<trkpt lat="33.8101678" lon="-118.3940314">
  <ele>-0.114</ele>
  <time>2026-09-02T22:07:32Z</time>
  <course>186.29</course>
  <speed>0.7213875518748573</speed>
  <fix>3d</fix>
</trkpt>
<trkpt lat="33.8101678" lon="-118.3940314">
  <ele>-0.114</ele>
  <time>2026-09-02T22:07:32Z</time>
  <course>186.29</course>
  <speed>0.7213875518748573</speed>
  <fix>3d</fix>
</trkpt>
<trkpt lat="33.8101678" lon="-118.3940315">
  <ele>-0.114</ele>
  <time>2026-09-02T22:07:32Z</time>
  <course>186.29</course>
  <speed>0.7213875518748573</speed>
  <fix>3d</fix>
</trkpt>
<trkpt lat="33.8101677" lon="-118.3940315">
  <ele>-0.114</ele>
  <time>2026-09-02T22:07:32Z</time>
  <course>186.29</course>
  <speed>0.7213875518748573</speed>
  <fix>3d</fix>
</trkpt>
<trkpt lat="33.8101677" lon="-118.3940316">
  <ele>-0.114</ele>
  <time>2026-09-02T22:07:32Z</time>
  <course>186.29</course>
  <speed>0.7213875518748573</speed>
  <fix>3d</fix>
</trkpt>
<trkpt lat="33.8101676" lon="-118.3940316">
  <ele>-0.114</ele>
  <time>2026-09-02T22:07:32Z</time>
  <course>186.29</course>
  <speed>0.7213875518748573</speed>
  <fix>3d</fix>
</trkpt>
<trkpt lat="33.8101676" lon="-118.3940316">
  <ele>-0.114</ele>
  <time>2026-09-02T22:07:32Z</time>
  <course>186.29</course>
  <speed>0.7213875518748573</speed>
  <fix>3d</fix>
</trkpt>
<trkpt lat="33.8101681" lon="-118.3940307">
  <ele>-0.11</ele>
  <time>2026-09-02T22:07:32Z</time>
  <course>223.26</course>
  <speed>0.73</speed>
  <fix>3d</fix>
</trkpt>
<trkpt lat="33.8101676" lon="-118.3940316">
  <ele>-0.114</ele>
  <time>2026-09-02T22:07:32Z</time>
  <course>186.29</course>
  <speed>0.7213875518748573</speed>
  <fix>3d</fix>
</trkpt>
<trkpt lat="33.8101675" lon="-118.3940317">
  <ele>-0.114</ele>
  <time>2026-09-02T22:07:32Z</time>
  <course>186.29</course>
  <speed>0.7213875518748573</speed>
  <fix>3d</fix>
</trkpt>
<trkpt lat="33.8101675" lon="-118.3940318">
  <ele>-0.114</ele>
  <time>2026-09-02T22:07:32Z</time>
  <course>186.29</course>
  <speed>0.7213875518748573</speed>
  <fix>3d</fix>
</trkpt>
<trkpt lat="33.8101675" lon="-118.3940318">
  <ele>-0.113</ele>
  <time>2026-09-02T22:07:32Z</time>
  <course>186.29</course>
  <speed>0.7213875518748573</speed>
  <fix>3d</fix>
</trkpt>
<trkpt lat="33.8101674" lon="-118.3940318">
  <ele>-0.113</ele>
  <time>2026-09-02T22:07:32Z</time>
  <course>186.29</course>
  <speed>0.7213875518748573</speed>
  <fix>3d</fix>
</trkpt>
<trkpt lat="33.8101674" lon="-118.3940319">
  <ele>-0.113</ele>
  <time>2026-09-02T22:07:32Z</time>
  <course>186.29</course>
  <speed>0.7213875518748573</speed>
  <fix>3d</fix>
</trkpt>
<trkpt lat="33.8101673" lon="-118.3940319">
  <ele>-0.113</ele>
  <time>2026-09-02T22:07:32Z</time>
  <course>186.29</course>
  <speed>0.7213875518748573</speed>
  <fix>3d</fix>
</trkpt>
<trkpt lat="33.8101673" lon="-118.394032">
  <ele>-0.113</ele>
  <time>2026-09-02T22:07:32Z</time>
  <course>186.29</course>
  <speed>0.7213875518748573</speed>
  <fix>3d</fix>
</trkpt>
<trkpt lat="33.8101673" lon="-118.394032">
  <ele>-0.113</ele>
  <time>2026-09-02T22:07:32Z</time>
  <course>186.29</course>
  <speed>0.7213875518748573</speed>
  <fix>3d</fix>
</trkpt>
<trkpt lat="33.8101672" lon="-118.3940321">
  <ele>-0.113</ele>
  <time>2026-09-02T22:07:32Z</time>
  <course>186.29</course>
  <speed>0.7213875518748573</speed>
  <fix>3d</fix>
</trkpt>
<trkpt lat="33.8101672" lon="-118.3940321">
  <ele>-0.113</ele>
  <time>2026-09-02T22:07:32Z</time>
  <course>186.29</course>
  <speed>0.7213875518748573</speed>
  <fix>3d</fix>
</trkpt>
<trkpt lat="33.8101671" lon="-118.3940322">
  <ele>-0.113</ele>
  <time>2026-09-02T22:07:32Z</time>
  <course>186.29</course>
  <speed>0.7213875518748573</speed>
  <fix>3d</fix>
</trkpt>
<trkpt lat="33.8101681" lon="-118.3940307">
  <ele>-0.11</ele>
  <time>2026-09-02T22:07:32Z</time>
  <course>223.26</course>
  <speed>0.73</speed>
  <fix>3d</fix>
</trkpt>
<trkpt lat="33.8101671" lon="-118.3940322">
  <ele>-0.113</ele>
  <time>2026-09-02T22:07:32Z</time>
  <course>186.29</course>
  <speed>0.7213875518748573</speed>
  <fix>3d</fix>
</trkpt>
<trkpt lat="33.8101671" lon="-118.3940322">
  <ele>-0.112</ele>
  <time>2026-09-02T22:07:32Z</time>
  <course>186.29</course>
  <speed>0.7213875518748573</speed>
  <fix>3d</fix>
</trkpt>
<trkpt lat="33.810167" lon="-118.3940323">
  <ele>-0.112</ele>
  <time>2026-09-02T22:07:32Z</time>
  <course>186.29</course>
  <speed>0.7213875518748573</speed>
  <fix>3d</fix>
</trkpt>
<trkpt lat="33.810167" lon="-118.3940323">
  <ele>-0.112</ele>
  <time>2026-09-02T22:07:32Z</time>
  <course>186.29</course>
  <speed>0.7213875518748573</speed>
  <fix>3d</fix>
</trkpt>
<trkpt lat="33.810167" lon="-118.3940324">
  <ele>-0.112</ele>
  <time>2026-09-02T22:07:32Z</time>
  <course>186.29</course>
  <speed>0.7213875518748573</speed>
  <fix>3d</fix>
</trkpt>
<trkpt lat="33.8101669" lon="-118.3940324">
  <ele>-0.112</ele>
  <time>2026-09-02T22:07:32Z</time>
  <course>186.29</course>
  <speed>0.7213875518748573</speed>
  <fix>3d</fix>
</trkpt>
<trkpt lat="33.8101669" lon="-118.3940325">
  <ele>-0.112</ele>
  <time>2026-09-02T22:07:32Z</time>
  <course>186.29</course>
  <speed>0.7213875518748573</speed>
  <fix>3d</fix>
</trkpt>
<trkpt lat="33.8101668" lon="-118.3940325">
  <ele>-0.112</ele>
  <time>2026-09-02T22:07:32Z</time>
  <course>186.29</course>
  <speed>0.7213875518748573</speed>
  <fix>3d</fix>
</trkpt>
<trkpt lat="33.8101668" lon="-118.3940326">
  <ele>-0.112</ele>
  <time>2026-09-02T22:07:32Z</time>
  <course>186.29</course>
  <speed>0.7213875518748573</speed>
  <fix>3d</fix>
</trkpt>
<trkpt lat="33.8101667" lon="-118.3940326">
  <ele>-0.112</ele>
  <time>2026-09-02T22:07:32Z</time>
  <course>186.29</course>
  <speed>0.7213875518748573</speed>
  <fix>3d</fix>
</trkpt>
<trkpt lat="33.8101667" lon="-118.3940327">
  <ele>-0.112</ele>
  <time>2026-09-02T22:07:32Z</time>
  <course>186.29</course>
  <speed>0.7213875518748573</speed>
  <fix>3d</fix>
</trkpt>
<trkpt lat="33.8101667" lon="-118.3940327">
  <ele>-0.112</ele>
  <time>2026-09-02T22:07:32Z</time>
  <course>186.29</course>
  <speed>0.7213875518748573</speed>
  <fix>3d</fix>
</trkpt>
<trkpt lat="33.8101667" lon="-118.3940327">
  <ele>-0.112</ele>
  <time>2026-09-02T22:07:32Z</time>
  <course>186.29</course>
  <speed>0.7213875518748573</speed>
  <fix>3d</fix>
</trkpt>
<trkpt lat="33.8101671" lon="-118.3940318">
  <ele>-0.1</ele>
  <time>2026-09-02T22:07:32Z</time>
  <course>223.26</course>
  <speed>0.73</speed>
  <fix>3d</fix>
</trkpt>
<trkpt lat="33.8101666" lon="-118.3940328">
  <ele>-0.112</ele>
  <time>2026-09-02T22:07:32Z</time>
  <course>186.29</course>
  <speed>0.7213875518748573</speed>
  <fix>3d</fix>
</trkpt>
<trkpt lat="33.8101665" lon="-118.3940328">
  <ele>-0.112</ele>
  <time>2026-09-02T22:07:32Z</time>
  <course>186.29</course>
  <speed>0.7213875518748573</speed>
  <fix>3d</fix>
</trkpt>
<trkpt lat="33.8101665" lon="-118.3940329">
  <ele>-0.112</ele>
  <time>2026-09-02T22:07:32Z</time>
  <course>186.29</course>
  <speed>0.7213875518748573</speed>
  <fix>3d</fix>
</trkpt>
<trkpt lat="33.8101665" lon="-118.3940329">
  <ele>-0.112</ele>
  <time>2026-09-02T22:07:32Z</time>
  <course>186.29</course>
  <speed>0.7213875518748573</speed>
  <fix>3d</fix>
</trkpt>
<trkpt lat="33.8101664" lon="-118.394033">
  <ele>-0.112</ele>
  <time>2026-09-02T22:07:32Z</time>
  <course>186.29</course>
  <speed>0.7213875518748573</speed>
  <fix>3d</fix>
</trkpt>
<trkpt lat="33.8101664" lon="-118.394033">
  <ele>-0.112</ele>
  <time>2026-09-02T22:07:32Z</time>
  <course>186.29</course>
  <speed>0.7213875518748573</speed>
  <fix>3d</fix>
</trkpt>
<trkpt lat="33.8101664" lon="-118.3940331">
  <ele>-0.112</ele>
  <time>2026-09-02T22:07:32Z</time>
  <course>186.29</course>
  <speed>0.7213875518748573</speed>
  <fix>3d</fix>
</trkpt>
<trkpt lat="33.8101663" lon="-118.3940331">
  <ele>-0.112</ele>
  <time>2026-09-02T22:07:32Z</time>
  <course>186.29</course>
  <speed>0.7213875518748573</speed>
  <fix>3d</fix>
</trkpt>
<trkpt lat="33.8101662" lon="-118.3940332">
  <ele>-0.112</ele>
  <time>2026-09-02T22:07:32Z</time>
  <course>186.29</course>
  <speed>0.7213875518748573</speed>
  <fix>3d</fix>
</trkpt>
<trkpt lat="33.8101662" lon="-118.3940332">
  <ele>-0.112</ele>
  <time>2026-09-02T22:07:32Z</time>
  <course>186.29</course>
  <speed>0.7213875518748573</speed>
  <fix>3d</fix>
</trkpt>
<trkpt lat="33.8101671" lon="-118.3940318">
  <ele>-0.1</ele>
  <time>2026-09-02T22:07:32Z</time>
  <course>223.26</course>
  <speed>0.73</speed>
  <fix>3d</fix>
</trkpt>
<trkpt lat="33.8101662" lon="-118.3940333">
  <ele>-0.112</ele>
  <time>2026-09-02T22:07:32Z</time>
  <course>186.29</course>
  <speed>0.7213875518748573</speed>
  <fix>3d</fix>
</trkpt>
<trkpt lat="33.8101661" lon="-118.3940333">
  <ele>-0.112</ele>
  <time>2026-09-02T22:07:32Z</time>
  <course>186.29</course>
  <speed>0.7213875518748573</speed>
  <fix>3d</fix>
</trkpt>
<trkpt lat="33.8101661" lon="-118.3940334">
  <ele>-0.112</ele>
  <time>2026-09-02T22:07:32Z</time>
  <course>186.29</course>
  <speed>0.7213875518748573</speed>
  <fix>3d</fix>
</trkpt>
<trkpt lat="33.810166" lon="-118.3940334">
  <ele>-0.112</ele>
  <time>2026-09-02T22:07:32Z</time>
  <course>186.29</course>
  <speed>0.7213875518748573</speed>
  <fix>3d</fix>
</trkpt>
<trkpt lat="33.810166" lon="-118.3940335">
  <ele>-0.112</ele>
  <time>2026-09-02T22:07:32Z</time>
  <course>186.29</course>
  <speed>0.7213875518748573</speed>
  <fix>3d</fix>
</trkpt>
<trkpt lat="33.8101659" lon="-118.3940335">
  <ele>-0.112</ele>
  <time>2026-09-02T22:07:32Z</time>
  <course>186.29</course>
  <speed>0.7213875518748573</speed>
  <fix>3d</fix>
</trkpt>
<trkpt lat="33.8101659" lon="-118.3940336">
  <ele>-0.112</ele>
  <time>2026-09-02T22:07:32Z</time>
  <course>186.29</course>
  <speed>0.7213875518748573</speed>
  <fix>3d</fix>
</trkpt>
<trkpt lat="33.8101659" lon="-118.3940336">
  <ele>-0.112</ele>
  <time>2026-09-02T22:07:32Z</time>
  <course>186.29</course>
  <speed>0.7213875518748573</speed>
  <fix>3d</fix>
</trkpt>
<trkpt lat="33.8101658" lon="-118.3940337">
  <ele>-0.112</ele>
  <time>2026-09-02T22:07:32Z</time>
  <course>186.29</course>
  <speed>0.7213875518748573</speed>
  <fix>3d</fix>
</trkpt>
<trkpt lat="33.8101658" lon="-118.3940337">
  <ele>-0.112</ele>
  <time>2026-09-02T22:07:32Z</time>
  <course>186.29</course>
  <speed>0.7213875518748573</speed>
  <fix>3d</fix>
</trkpt>
<trkpt lat="33.8101657" lon="-118.3940338">
  <ele>-0.112</ele>
  <time>2026-09-02T22:07:32Z</time>
  <course>186.29</course>
  <speed>0.7213875518748573</speed>
  <fix>3d</fix>
</trkpt>
<trkpt lat="33.8101657" lon="-118.3940338">
  <ele>-0.112</ele>
  <time>2026-09-02T22:07:32Z</time>
  <course>186.29</course>
  <speed>0.7213875518748573</speed>
  <fix>3d</fix>
</trkpt>
<trkpt lat="33.8101661" lon="-118.3940329">
  <ele>-0.1</ele>
  <time>2026-09-02T22:07:32Z</time>
  <course>223.26</course>
  <speed>0.73</speed>
  <fix>3d</fix>
</trkpt>
<trkpt lat="33.8101657" lon="-118.3940338">
  <ele>-0.112</ele>
  <time>2026-09-02T22:07:32Z</time>
  <course>186.29</course>
  <speed>0.7213875518748573</speed>
  <fix>3d</fix>
</trkpt>
<trkpt lat="33.8101656" lon="-118.3940339">
  <ele>-0.112</ele>
  <time>2026-09-02T22:07:32Z</time>
  <course>186.29</course>
  <speed>0.7213875518748573</speed>
  <fix>3d</fix>
</trkpt>
<trkpt lat="33.8101656" lon="-118.3940339">
  <ele>-0.112</ele>
  <time>2026-09-02T22:07:32Z</time>
  <course>186.29</course>
  <speed>0.7213875518748573</speed>
  <fix>3d</fix>
</trkpt>
<trkpt lat="33.8101655" lon="-118.394034">
  <ele>-0.112</ele>
  <time>2026-09-02T22:07:32Z</time>
  <course>186.29</course>
  <speed>0.7213875518748573</speed>
  <fix>3d</fix>
</trkpt>
<trkpt lat="33.8101655" lon="-118.3940341">
  <ele>-0.112</ele>
  <time>2026-09-02T22:07:32Z</time>
  <course>186.29</course>
  <speed>0.7213875518748573</speed>
  <fix>3d</fix>
</trkpt>
<trkpt lat="33.8101654" lon="-118.3940341">
  <ele>-0.112</ele>
  <time>2026-09-02T22:07:32Z</time>
  <course>186.29</course>
  <speed>0.7213875518748573</speed>
  <fix>3d</fix>
</trkpt>
<trkpt lat="33.8101654" lon="-118.3940341">
  <ele>-0.112</ele>
  <time>2026-09-02T22:07:32Z</time>
  <course>186.29</course>
  <speed>0.7213875518748573</speed>
  <fix>3d</fix>
</trkpt>
<trkpt lat="33.8101654" lon="-118.3940342">
  <ele>-0.112</ele>
  <time>2026-09-02T22:07:32Z</time>
  <course>186.29</course>
  <speed>0.7213875518748573</speed>
  <fix>3d</fix>
</trkpt>
<trkpt lat="33.8101653" lon="-118.3940342">
  <ele>-0.112</ele>
  <time>2026-09-02T22:07:32Z</time>
  <course>186.29</course>
  <speed>0.7213875518748573</speed>
  <fix>3d</fix>
</trkpt>
<trkpt lat="33.8101653" lon="-118.3940343">
  <ele>-0.112</ele>
  <time>2026-09-02T22:07:32Z</time>
  <course>186.29</course>
  <speed>0.7213875518748573</speed>
  <fix>3d</fix>
</trkpt>
<trkpt lat="33.8101652" lon="-118.3940343">
  <ele>-0.112</ele>
  <time>2026-09-02T22:07:32Z</time>
  <course>186.29</course>
  <speed>0.7213875518748573</speed>
  <fix>3d</fix>
</trkpt>
<trkpt lat="33.8101652" lon="-118.3940343">
  <ele>-0.112</ele>
  <time>2026-09-02T22:07:32Z</time>
  <course>186.29</course>
  <speed>0.7213875518748573</speed>
  <fix>3d</fix>
</trkpt>
<trkpt lat="33.8101661" lon="-118.3940329">
  <ele>-0.1</ele>
  <time>2026-09-02T22:07:32Z</time>
  <course>223.26</course>
  <speed>0.73</speed>
  <fix>3d</fix>
</trkpt>
<trkpt lat="33.8101652" lon="-118.3940344">
  <ele>-0.112</ele>
  <time>2026-09-02T22:07:32Z</time>
  <course>186.29</course>
  <speed>0.7213875518748573</speed>
  <fix>3d</fix>
</trkpt>
<trkpt lat="33.8101651" lon="-118.3940345">
  <ele>-0.112</ele>
  <time>2026-09-02T22:07:32Z</time>
  <course>186.29</course>
  <speed>0.7213875518748573</speed>
  <fix>3d</fix>
</trkpt>
<trkpt lat="33.8101651" lon="-118.3940345">
  <ele>-0.112</ele>
  <time>2026-09-02T22:07:32Z</time>
  <course>186.29</course>
  <speed>0.7213875518748573</speed>
  <fix>3d</fix>
</trkpt>
<trkpt lat="33.810165" lon="-118.3940345">
  <ele>-0.112</ele>
  <time>2026-09-02T22:07:32Z</time>
  <course>186.29</course>
  <speed>0.7213875518748573</speed>
  <fix>3d</fix>
</trkpt>
<trkpt lat="33.810165" lon="-118.3940346">
  <ele>-0.112</ele>
  <time>2026-09-02T22:07:32Z</time>
  <course>186.29</course>
  <speed>0.7213875518748573</speed>
  <fix>3d</fix>
</trkpt>
<trkpt lat="33.810165" lon="-118.3940346">
  <ele>-0.112</ele>
  <time>2026-09-02T22:07:32Z</time>
  <course>186.29</course>
  <speed>0.7213875518748573</speed>
  <fix>3d</fix>
</trkpt>
<trkpt lat="33.8101649" lon="-118.3940347">
  <ele>-0.112</ele>
  <time>2026-09-02T22:07:32Z</time>
  <course>186.29</course>
  <speed>0.7213875518748573</speed>
  <fix>3d</fix>
</trkpt>
<trkpt lat="33.8101649" lon="-118.3940347">
  <ele>-0.112</ele>
  <time>2026-09-02T22:07:32Z</time>
  <course>186.29</course>
  <speed>0.7213875518748573</speed>
  <fix>3d</fix>
</trkpt>
<trkpt lat="33.8101648" lon="-118.3940348">
  <ele>-0.112</ele>
  <time>2026-09-02T22:07:32Z</time>
  <course>186.29</course>
  <speed>0.7213875518748573</speed>
  <fix>3d</fix>
</trkpt>
<trkpt lat="33.8101648" lon="-118.3940348">
  <ele>-0.112</ele>
  <time>2026-09-02T22:07:32Z</time>
  <course>186.28</course>
  <speed>0.7213875518748573</speed>
  <fix>3d</fix>
</trkpt>
<trkpt lat="33.8101648" lon="-118.3940349">
  <ele>-0.112</ele>
  <time>2026-09-02T22:07:32Z</time>
  <course>186.28</course>
  <speed>0.7213875518748573</speed>
  <fix>3d</fix>
</trkpt>
<trkpt lat="33.8101652" lon="-118.394034">
  <ele>-0.1</ele>
  <time>2026-09-02T22:07:32Z</time>
  <course>223.26</course>
  <speed>0.73</speed>
  <fix>3d</fix>
</trkpt>
<trkpt lat="33.8101648" lon="-118.3940349">
  <ele>-0.112</ele>
  <time>2026-09-02T22:07:32Z</time>
  <course>186.28</course>
  <speed>0.7213875518748573</speed>
  <fix>3d</fix>
</trkpt>
<trkpt lat="33.8101647" lon="-118.3940349">
  <ele>-0.112</ele>
  <time>2026-09-02T22:07:32Z</time>
  <course>186.28</course>
  <speed>0.7213875518748573</speed>
  <fix>3d</fix>
</trkpt>
<trkpt lat="33.8101646" lon="-118.394035">
  <ele>-0.112</ele>
  <time>2026-09-02T22:07:32Z</time>
  <course>186.28</course>
  <speed>0.7213875518748573</speed>
  <fix>3d</fix>
</trkpt>
<trkpt lat="33.8101646" lon="-118.3940351">
  <ele>-0.112</ele>
  <time>2026-09-02T22:07:32Z</time>
  <course>186.29</course>
  <speed>0.7213875518748573</speed>
  <fix>3d</fix>
</trkpt>
<trkpt lat="33.8101646" lon="-118.3940351">
  <ele>-0.112</ele>
  <time>2026-09-02T22:07:32Z</time>
  <course>186.29</course>
  <speed>0.7213875518748573</speed>
  <fix>3d</fix>
</trkpt>
<trkpt lat="33.8101645" lon="-118.3940351">
  <ele>-0.112</ele>
  <time>2026-09-02T22:07:32Z</time>
  <course>186.29</course>
  <speed>0.7213875518748573</speed>
  <fix>3d</fix>
</trkpt>
<trkpt lat="33.8101645" lon="-118.3940352">
  <ele>-0.112</ele>
  <time>2026-09-02T22:07:32Z</time>
  <course>186.29</course>
  <speed>0.7213875518748573</speed>
  <fix>3d</fix>
</trkpt>
<trkpt lat="33.8101644" lon="-118.3940353">
  <ele>-0.112</ele>
  <time>2026-09-02T22:07:32Z</time>
  <course>186.28</course>
  <speed>0.7213875518748573</speed>
  <fix>3d</fix>
</trkpt>
<trkpt lat="33.8101644" lon="-118.3940353">
  <ele>-0.112</ele>
  <time>2026-09-02T22:07:32Z</time>
  <course>186.28</course>
  <speed>0.7213875518748573</speed>
  <fix>3d</fix>
</trkpt>
<trkpt lat="33.8101643" lon="-118.3940354">
  <ele>-0.112</ele>
  <time>2026-09-02T22:07:32Z</time>
  <course>186.28</course>
  <speed>0.7213875518748573</speed>
  <fix>3d</fix>
</trkpt>
<trkpt lat="33.8101643" lon="-118.3940354">
  <ele>-0.112</ele>
  <time>2026-09-02T22:07:32Z</time>
  <course>186.28</course>
  <speed>0.7213875518748573</speed>
  <fix>3d</fix>
</trkpt>
<trkpt lat="33.8101643" lon="-118.3940354">
  <ele>-0.112</ele>
  <time>2026-09-02T22:07:32Z</time>
  <course>186.28</course>
  <speed>0.7213875518748573</speed>
  <fix>3d</fix>
</trkpt>
<trkpt lat="33.8101652" lon="-118.394034">
  <ele>-0.1</ele>
  <time>2026-09-02T22:07:32Z</time>
  <course>223.26</course>
  <speed>0.73</speed>
  <fix>3d</fix>
</trkpt>
<trkpt lat="33.8101642" lon="-118.3940355">
  <ele>-0.112</ele>
  <time>2026-09-02T22:07:32Z</time>
  <course>186.28</course>
  <speed>0.7213875518748573</speed>
  <fix>3d</fix>
</trkpt>
<trkpt lat="33.8101642" lon="-118.3940356">
  <ele>-0.112</ele>
  <time>2026-09-02T22:07:32Z</time>
  <course>186.28</course>
  <speed>0.7213875518748573</speed>
  <fix>3d</fix>
</trkpt>
<trkpt lat="33.8101641" lon="-118.3940356">
  <ele>-0.112</ele>
  <time>2026-09-02T22:07:32Z</time>
  <course>186.28</course>
  <speed>0.7213875518748573</speed>
  <fix>3d</fix>
</trkpt>
<trkpt lat="33.8101641" lon="-118.3940356">
  <ele>-0.112</ele>
  <time>2026-09-02T22:07:32Z</time>
  <course>186.28</course>
  <speed>0.7213875518748573</speed>
  <fix>3d</fix>
</trkpt>
<trkpt lat="33.8101641" lon="-118.3940357">
  <ele>-0.112</ele>
  <time>2026-09-02T22:07:32Z</time>
  <course>186.28</course>
  <speed>0.7213875518748573</speed>
  <fix>3d</fix>
</trkpt>
<trkpt lat="33.810164" lon="-118.3940357">
  <ele>-0.112</ele>
  <time>2026-09-02T22:07:32Z</time>
  <course>186.28</course>
  <speed>0.7213875518748573</speed>
  <fix>3d</fix>
</trkpt>
<trkpt lat="33.810164" lon="-118.3940358">
  <ele>-0.112</ele>
  <time>2026-09-02T22:07:32Z</time>
  <course>186.28</course>
  <speed>0.7213875518748573</speed>
  <fix>3d</fix>
</trkpt>
<trkpt lat="33.8101639" lon="-118.3940358">
  <ele>-0.112</ele>
  <time>2026-09-02T22:07:32Z</time>
  <course>186.28</course>
  <speed>0.7213875518748573</speed>
  <fix>3d</fix>
</trkpt>
<trkpt lat="33.8101639" lon="-118.3940359">
  <ele>-0.112</ele>
  <time>2026-09-02T22:07:32Z</time>
  <course>186.28</course>
  <speed>0.7213875518748573</speed>
  <fix>3d</fix>
</trkpt>
<trkpt lat="33.8101638" lon="-118.3940359">
  <ele>-0.112</ele>
  <time>2026-09-02T22:07:32Z</time>
  <course>186.28</course>
  <speed>0.7213875518748573</speed>
  <fix>3d</fix>
</trkpt>
<trkpt lat="33.8101638" lon="-118.394036">
  <ele>-0.112</ele>
  <time>2026-09-02T22:07:32Z</time>
  <course>186.28</course>
  <speed>0.7213875518748573</speed>
  <fix>3d</fix>
</trkpt>
<trkpt lat="33.8101642" lon="-118.3940351">
  <ele>-0.11</ele>
  <time>2026-09-02T22:07:32Z</time>
  <course>223.26</course>
  <speed>0.73</speed>
  <fix>3d</fix>
</trkpt>
<trkpt lat="33.8101638" lon="-118.394036">
  <ele>-0.112</ele>
  <time>2026-09-02T22:07:32Z</time>
  <course>186.28</course>
  <speed>0.7213875518748573</speed>
  <fix>3d</fix>
</trkpt>
<trkpt lat="33.8101637" lon="-118.394036">
  <ele>-0.112</ele>
  <time>2026-09-02T22:07:32Z</time>
  <course>186.28</course>
  <speed>0.7213875518748573</speed>
  <fix>3d</fix>
</trkpt>
<trkpt lat="33.8101637" lon="-118.3940361">
  <ele>-0.112</ele>
  <time>2026-09-02T22:07:32Z</time>
  <course>186.28</course>
  <speed>0.7213875518748573</speed>
  <fix>3d</fix>
</trkpt>
<trkpt lat="33.8101637" lon="-118.3940361">
  <ele>-0.112</ele>
  <time>2026-09-02T22:07:32Z</time>
  <course>186.28</course>
  <speed>0.7213875518748573</speed>
  <fix>3d</fix>
</trkpt>
<trkpt lat="33.8101636" lon="-118.3940362">
  <ele>-0.112</ele>
  <time>2026-09-02T22:07:32Z</time>
  <course>186.28</course>
  <speed>0.7213875518748573</speed>
  <fix>3d</fix>
</trkpt>
<trkpt lat="33.8101636" lon="-118.3940362">
  <ele>-0.112</ele>
  <time>2026-09-02T22:07:32Z</time>
  <course>186.28</course>
  <speed>0.7213875518748573</speed>
  <fix>3d</fix>
</trkpt>
<trkpt lat="33.8101635" lon="-118.3940363">
  <ele>-0.112</ele>
  <time>2026-09-02T22:07:32Z</time>
  <course>186.28</course>
  <speed>0.7213875518748573</speed>
  <fix>3d</fix>
</trkpt>
<trkpt lat="33.8101635" lon="-118.3940363">
  <ele>-0.112</ele>
  <time>2026-09-02T22:07:32Z</time>
  <course>186.28</course>
  <speed>0.7213875518748573</speed>
  <fix>3d</fix>
</trkpt>
<trkpt lat="33.8101635" lon="-118.3940363">
  <ele>-0.111</ele>
  <time>2026-09-02T22:07:32Z</time>
  <course>186.28</course>
  <speed>0.7213875518748573</speed>
  <fix>3d</fix>
</trkpt>
<trkpt lat="33.8101634" lon="-118.3940364">
  <ele>-0.111</ele>
  <time>2026-09-02T22:07:32Z</time>
  <course>186.28</course>
  <speed>0.7213875518748573</speed>
  <fix>3d</fix>
</trkpt>
<trkpt lat="33.8101634" lon="-118.3940364">
  <ele>-0.111</ele>
  <time>2026-09-02T22:07:32Z</time>
  <course>186.28</course>
  <speed>0.7213875518748573</speed>
  <fix>3d</fix>
</trkpt>
<trkpt lat="33.8101634" lon="-118.3940365">
  <ele>-0.111</ele>
  <time>2026-09-02T22:07:32Z</time>
  <course>186.28</course>
  <speed>0.7213875518748573</speed>
  <fix>3d</fix>
</trkpt>
<trkpt lat="33.8101633" lon="-118.3940365">
  <ele>-0.111</ele>
  <time>2026-09-02T22:07:32Z</time>
  <course>186.28</course>
  <speed>0.7213875518748573</speed>
  <fix>3d</fix>
</trkpt>
<trkpt lat="33.8101633" lon="-118.3940365">
  <ele>-0.111</ele>
  <time>2026-09-02T22:07:32Z</time>
  <course>186.28</course>
  <speed>0.7213875518748573</speed>
  <fix>3d</fix>
</trkpt>
<trkpt lat="33.8101642" lon="-118.3940351">
  <ele>-0.11</ele>
  <time>2026-09-02T22:07:32Z</time>
  <course>223.26</course>
  <speed>0.73</speed>
  <fix>3d</fix>
</trkpt>
<trkpt lat="33.8101633" lon="-118.3940366">
  <ele>-0.111</ele>
  <time>2026-09-02T22:07:32Z</time>
  <course>186.28</course>
  <speed>0.7213875518748573</speed>
  <fix>3d</fix>
</trkpt>
<trkpt lat="33.8101632" lon="-118.3940366">
  <ele>-0.111</ele>
  <time>2026-09-02T22:07:32Z</time>
  <course>186.28</course>
  <speed>0.7213875518748573</speed>
  <fix>3d</fix>
</trkpt>
<trkpt lat="33.8101632" lon="-118.3940367">
  <ele>-0.11</ele>
  <time>2026-09-02T22:07:32Z</time>
  <course>186.28</course>
  <speed>0.7213875518748573</speed>
  <fix>3d</fix>
</trkpt>
<trkpt lat="33.8101631" lon="-118.3940367">
  <ele>-0.11</ele>
  <time>2026-09-02T22:07:32Z</time>
  <course>186.28</course>
  <speed>0.7213875518748573</speed>
  <fix>3d</fix>
</trkpt>
<trkpt lat="33.8101631" lon="-118.3940368">
  <ele>-0.11</ele>
  <time>2026-09-02T22:07:32Z</time>
  <course>186.28</course>
  <speed>0.7213875518748573</speed>
  <fix>3d</fix>
</trkpt>
<trkpt lat="33.810163" lon="-118.3940368">
  <ele>-0.11</ele>
  <time>2026-09-02T22:07:32Z</time>
  <course>186.28</course>
  <speed>0.7213875518748573</speed>
  <fix>3d</fix>
</trkpt>
<trkpt lat="33.810163" lon="-118.3940369">
  <ele>-0.11</ele>
  <time>2026-09-02T22:07:32Z</time>
  <course>186.28</course>
  <speed>0.7213875518748573</speed>
  <fix>3d</fix>
</trkpt>
<trkpt lat="33.810163" lon="-118.3940369">
  <ele>-0.11</ele>
  <time>2026-09-02T22:07:32Z</time>
  <course>186.28</course>
  <speed>0.7213875518748573</speed>
  <fix>3d</fix>
</trkpt>
<trkpt lat="33.8101629" lon="-118.3940369">
  <ele>-0.109</ele>
  <time>2026-09-02T22:07:32Z</time>
  <course>186.28</course>
  <speed>0.7213875518748573</speed>
  <fix>3d</fix>
</trkpt>
<trkpt lat="33.8101629" lon="-118.394037">
  <ele>-0.109</ele>
  <time>2026-09-02T22:07:32Z</time>
  <course>186.28</course>
  <speed>0.7213875518748573</speed>
  <fix>3d</fix>
</trkpt>
<trkpt lat="33.8101629" lon="-118.394037">
  <ele>-0.109</ele>
  <time>2026-09-02T22:07:32Z</time>
  <course>186.28</course>
  <speed>0.7213875518748573</speed>
  <fix>3d</fix>
</trkpt>
<trkpt lat="33.8101632" lon="-118.3940361">
  <ele>-0.11</ele>
  <time>2026-09-02T22:07:32Z</time>
  <course>223.26</course>
  <speed>0.73</speed>
  <fix>3d</fix>
</trkpt>
<trkpt lat="33.8101628" lon="-118.3940371">
  <ele>-0.109</ele>
  <time>2026-09-02T22:07:32Z</time>
  <course>186.28</course>
  <speed>0.7213875518748573</speed>
  <fix>3d</fix>
</trkpt>
<trkpt lat="33.8101628" lon="-118.3940371">
  <ele>-0.109</ele>
  <time>2026-09-02T22:07:32Z</time>
  <course>186.28</course>
  <speed>0.7213875518748573</speed>
  <fix>3d</fix>
</trkpt>
<trkpt lat="33.8101627" lon="-118.3940372">
  <ele>-0.108</ele>
  <time>2026-09-02T22:07:32Z</time>
  <course>186.28</course>
  <speed>0.7213875518748573</speed>
  <fix>3d</fix>
</trkpt>
<trkpt lat="33.8101627" lon="-118.3940372">
  <ele>-0.108</ele>
  <time>2026-09-02T22:07:32Z</time>
  <course>186.28</course>
  <speed>0.7213875518748573</speed>
  <fix>3d</fix>
</trkpt>
<trkpt lat="33.8101626" lon="-118.3940373">
  <ele>-0.108</ele>
  <time>2026-09-02T22:07:32Z</time>
  <course>186.28</course>
  <speed>0.7213875518748573</speed>
  <fix>3d</fix>
</trkpt>
<trkpt lat="33.8101626" lon="-118.3940373">
  <ele>-0.108</ele>
  <time>2026-09-02T22:07:32Z</time>
  <course>186.28</course>
  <speed>0.7213875518748573</speed>
  <fix>3d</fix>
</trkpt>
<trkpt lat="33.8101626" lon="-118.3940373">
  <ele>-0.108</ele>
  <time>2026-09-02T22:07:32Z</time>
  <course>186.28</course>
  <speed>0.7213875518748573</speed>
  <fix>3d</fix>
</trkpt>
<trkpt lat="33.8101625" lon="-118.3940374">
  <ele>-0.107</ele>
  <time>2026-09-02T22:07:32Z</time>
  <course>186.28</course>
  <speed>0.7213875518748573</speed>
  <fix>3d</fix>
</trkpt>
<trkpt lat="33.8101625" lon="-118.3940374">
  <ele>-0.107</ele>
  <time>2026-09-02T22:07:32Z</time>
  <course>186.28</course>
  <speed>0.7213875518748573</speed>
  <fix>3d</fix>
</trkpt>
<trkpt lat="33.8101625" lon="-118.3940375">
  <ele>-0.107</ele>
  <time>2026-09-02T22:07:32Z</time>
  <course>186.28</course>
  <speed>0.7213875518748573</speed>
  <fix>3d</fix>
</trkpt>
<trkpt lat="33.8101624" lon="-118.3940375">
  <ele>-0.107</ele>
  <time>2026-09-02T22:07:32Z</time>
  <course>186.28</course>
  <speed>0.7213875518748573</speed>
  <fix>3d</fix>
</trkpt>
<trkpt lat="33.8101624" lon="-118.3940376">
  <ele>-0.107</ele>
  <time>2026-09-02T22:07:32Z</time>
  <course>186.28</course>
  <speed>0.7213875518748573</speed>
  <fix>3d</fix>
</trkpt>
<trkpt lat="33.8101624" lon="-118.3940376">
  <ele>-0.107</ele>
  <time>2026-09-02T22:07:32Z</time>
  <course>186.28</course>
  <speed>0.7213875518748573</speed>
  <fix>3d</fix>
</trkpt>
<trkpt lat="33.8101632" lon="-118.3940361">
  <ele>-0.11</ele>
  <time>2026-09-02T22:07:32Z</time>
  <course>223.26</course>
  <speed>0.73</speed>
  <fix>3d</fix>
</trkpt>
<trkpt lat="33.8101624" lon="-118.3940376">
  <ele>-0.106</ele>
  <time>2026-09-02T22:07:32Z</time>
  <course>186.28</course>
  <speed>0.7213875518748573</speed>
  <fix>3d</fix>
</trkpt>
<trkpt lat="33.8101623" lon="-118.3940377">
  <ele>-0.106</ele>
  <time>2026-09-02T22:07:32Z</time>
  <course>186.28</course>
  <speed>0.7213875518748573</speed>
  <fix>3d</fix>
</trkpt>
<trkpt lat="33.8101623" lon="-118.3940377">
  <ele>-0.106</ele>
  <time>2026-09-02T22:07:32Z</time>
  <course>186.28</course>
  <speed>0.7213875518748573</speed>
  <fix>3d</fix>
</trkpt>
<trkpt lat="33.8101622" lon="-118.3940378">
  <ele>-0.106</ele>
  <time>2026-09-02T22:07:32Z</time>
  <course>186.28</course>
  <speed>0.7213875518748573</speed>
  <fix>3d</fix>
</trkpt>
<trkpt lat="33.8101622" lon="-118.3940378">
  <ele>-0.106</ele>
  <time>2026-09-02T22:07:32Z</time>
  <course>186.28</course>
  <speed>0.7213875518748573</speed>
  <fix>3d</fix>
</trkpt>
<trkpt lat="33.8101621" lon="-118.3940379">
  <ele>-0.105</ele>
  <time>2026-09-02T22:07:32Z</time>
  <course>186.28</course>
  <speed>0.7213875518748573</speed>
  <fix>3d</fix>
</trkpt>
<trkpt lat="33.8101619" lon="-118.3940381">
  <ele>-0.104</ele>
  <time>2026-09-02T22:07:32Z</time>
  <course>186.53</course>
  <speed>0.7283543093852057</speed>
  <fix>3d</fix>
</trkpt>
<trkpt lat="33.8101623" lon="-118.3940372">
  <ele>-0.1</ele>
  <time>2026-09-02T22:07:32Z</time>
  <course>223.26</course>
  <speed>0.73</speed>
  <fix>3d</fix>
</trkpt>
<trkpt lat="33.8101614" lon="-118.3940387">
  <ele>-0.102</ele>
  <time>2026-09-02T22:07:32Z</time>
  <course>189.73</course>
  <speed>0.7424957912338628</speed>
  <fix>3d</fix>
</trkpt>
<trkpt lat="33.8101623" lon="-118.3940372">
  <ele>-0.1</ele>
  <time>2026-09-02T22:07:32Z</time>
  <course>223.26</course>
  <speed>0.73</speed>
  <fix>3d</fix>
</trkpt>
<trkpt lat="33.8101609" lon="-118.3940392">
  <ele>-0.102</ele>
  <time>2026-09-02T22:07:32Z</time>
  <course>193.57</course>
  <speed>0.7569015788066504</speed>
  <fix>3d</fix>
</trkpt>
<trkpt lat="33.8101613" lon="-118.3940383">
  <ele>-0.1</ele>
  <time>2026-09-02T22:07:32Z</time>
  <course>223.18</course>
  <speed>0.74</speed>
  <fix>3d</fix>
</trkpt>
<trkpt lat="33.8101604" lon="-118.3940398">
  <ele>-0.102</ele>
  <time>2026-09-02T22:07:32Z</time>
  <course>197.44</course>
  <speed>0.7516648189186453</speed>
  <fix>3d</fix>
</trkpt>
<trkpt lat="33.8101613" lon="-118.3940383">
  <ele>-0.1</ele>
  <time>2026-09-02T22:07:32Z</time>
  <course>223.18</course>
  <speed>0.74</speed>
  <fix>3d</fix>
</trkpt>
<trkpt lat="33.81016" lon="-118.3940404">
  <ele>-0.102</ele>
  <time>2026-09-02T22:07:32Z</time>
  <course>201.3</course>
  <speed>0.756042326857432</speed>
  <fix>3d</fix>
</trkpt>
<trkpt lat="33.8101603" lon="-118.3940395">
  <ele>-0.1</ele>
  <time>2026-09-02T22:07:32Z</time>
  <course>225.37</course>
  <speed>0.76</speed>
  <fix>3d</fix>
</trkpt>
<trkpt lat="33.8101595" lon="-118.3940411">
  <ele>-0.102</ele>
  <time>2026-09-02T22:07:32Z</time>
  <course>205.13</course>
  <speed>0.7545197147855052</speed>
  <fix>3d</fix>
</trkpt>
<trkpt lat="33.8101603" lon="-118.3940395">
  <ele>-0.1</ele>
  <time>2026-09-02T22:07:32Z</time>
  <course>225.37</course>
  <speed>0.76</speed>
  <fix>3d</fix>
</trkpt>
<trkpt lat="33.8101591" lon="-118.3940417">
  <ele>-0.102</ele>
  <time>2026-09-02T22:07:32Z</time>
  <course>209.06</course>
  <speed>0.758023746329889</speed>
  <fix>3d</fix>
</trkpt>
<trkpt lat="33.8101594" lon="-118.3940407">
  <ele>-0.11</ele>
  <time>2026-09-02T22:07:32Z</time>
  <course>230.9</course>
  <speed>0.76</speed>
  <fix>3d</fix>
</trkpt>
<trkpt lat="33.8101588" lon="-118.3940424">
  <ele>-0.103</ele>
  <time>2026-09-02T22:07:32Z</time>
  <course>212.92</course>
  <speed>0.7513321502504735</speed>
  <fix>3d</fix>
</trkpt>
<trkpt lat="33.8101594" lon="-118.3940407">
  <ele>-0.11</ele>
  <time>2026-09-02T22:07:32Z</time>
  <course>230.9</course>
  <speed>0.76</speed>
  <fix>3d</fix>
</trkpt>
<trkpt lat="33.8101585" lon="-118.3940432">
  <ele>-0.104</ele>
  <time>2026-09-02T22:07:32Z</time>
  <course>216.79</course>
  <speed>0.7523961722390672</speed>
  <fix>3d</fix>
</trkpt>
<trkpt lat="33.8101586" lon="-118.3940421">
  <ele>-0.11</ele>
  <time>2026-09-02T22:07:32Z</time>
  <course>237.81</course>
  <speed>0.76</speed>
  <fix>3d</fix>
</trkpt>
<trkpt lat="33.8101582" lon="-118.3940439">
  <ele>-0.105</ele>
  <time>2026-09-02T22:07:32Z</time>
  <course>220.65</course>
  <speed>0.7527283706623525</speed>
  <fix>3d</fix>
</trkpt>
<trkpt lat="33.8101586" lon="-118.3940421">
  <ele>-0.11</ele>
  <time>2026-09-02T22:07:32Z</time>
  <course>237.81</course>
  <speed>0.76</speed>
  <fix>3d</fix>
</trkpt>
<trkpt lat="33.8101579" lon="-118.3940447">
  <ele>-0.106</ele>
  <time>2026-09-02T22:07:32Z</time>
  <course>224.51</course>
  <speed>0.7596051605933176</speed>
  <fix>3d</fix>
</trkpt>
<trkpt lat="33.810158" lon="-118.3940435">
  <ele>-0.1</ele>
  <time>2026-09-02T22:07:32Z</time>
  <course>245.23</course>
  <speed>0.76</speed>
  <fix>3d</fix>
</trkpt>
<trkpt lat="33.8101577" lon="-118.3940455">
  <ele>-0.107</ele>
  <time>2026-09-02T22:07:32Z</time>
  <course>228.37</course>
  <speed>0.757099729229908</speed>
  <fix>3d</fix>
</trkpt>
<trkpt lat="33.810158" lon="-118.3940435">
  <ele>-0.1</ele>
  <time>2026-09-02T22:07:32Z</time>
  <course>245.23</course>
  <speed>0.76</speed>
  <fix>3d</fix>
</trkpt>
<trkpt lat="33.8101576" lon="-118.3940463">
  <ele>-0.109</ele>
  <time>2026-09-02T22:07:32Z</time>
  <course>232.23</course>
  <speed>0.758023746329889</speed>
  <fix>3d</fix>
</trkpt>
<trkpt lat="33.8101575" lon="-118.3940451">
  <ele>-0.1</ele>
  <time>2026-09-02T22:07:32Z</time>
  <course>252.83</course>
  <speed>0.76</speed>
  <fix>3d</fix>
</trkpt>
<trkpt lat="33.8101575" lon="-118.3940471">
  <ele>-0.11</ele>
  <time>2026-09-02T22:07:32Z</time>
  <course>236.09</course>
  <speed>0.7623647421018367</speed>
  <fix>3d</fix>
</trkpt>
<trkpt lat="33.8101575" lon="-118.3940451">
  <ele>-0.1</ele>
  <time>2026-09-02T22:07:32Z</time>
  <course>252.83</course>
  <speed>0.76</speed>
  <fix>3d</fix>
</trkpt>
<trkpt lat="33.8101574" lon="-118.3940479">
  <ele>-0.112</ele>
  <time>2026-09-02T22:07:32Z</time>
  <course>239.95</course>
  <speed>0.7600657866263946</speed>
  <fix>3d</fix>
</trkpt>
<trkpt lat="33.8101572" lon="-118.3940467">
  <ele>-0.1</ele>
  <time>2026-09-02T22:07:32Z</time>
  <course>260.51</course>
  <speed>0.76</speed>
  <fix>3d</fix>
</trkpt>
<trkpt lat="33.8101574" lon="-118.3940487">
  <ele>-0.114</ele>
  <time>2026-09-02T22:07:32Z</time>
  <course>243.82</course>
  <speed>0.7605918747922567</speed>
  <fix>3d</fix>
</trkpt>
<trkpt lat="33.8101572" lon="-118.3940467">
  <ele>-0.1</ele>
  <time>2026-09-02T22:07:32Z</time>
  <course>260.51</course>
  <speed>0.76</speed>
  <fix>3d</fix>
</trkpt>
<trkpt lat="33.8101574" lon="-118.3940495">
  <ele>-0.116</ele>
  <time>2026-09-02T22:07:32Z</time>
  <course>247.68</course>
  <speed>0.7653103945458993</speed>
  <fix>3d</fix>
</trkpt>
<trkpt lat="33.810157" lon="-118.3940483">
  <ele>-0.1</ele>
  <time>2026-09-02T22:07:32Z</time>
  <course>268.21</course>
  <speed>0.76</speed>
  <fix>3d</fix>
</trkpt>
<trkpt lat="33.8101575" lon="-118.3940503">
  <ele>-0.117</ele>
  <time>2026-09-02T22:07:32Z</time>
  <course>251.54</course>
  <speed>0.7611832893594026</speed>
  <fix>3d</fix>
</trkpt>
<trkpt lat="33.810157" lon="-118.3940483">
  <ele>-0.1</ele>
  <time>2026-09-02T22:07:32Z</time>
  <course>268.21</course>
  <speed>0.76</speed>
  <fix>3d</fix>
</trkpt>
<trkpt lat="33.8101576" lon="-118.3940511">
  <ele>-0.117</ele>
  <time>2026-09-02T22:07:32Z</time>
  <course>255.4</course>
  <speed>0.7615773105863909</speed>
  <fix>3d</fix>
</trkpt>
<trkpt lat="33.8101571" lon="-118.39405">
  <ele>-0.11</ele>
  <time>2026-09-02T22:07:32Z</time>
  <course>275.93</course>
  <speed>0.76</speed>
  <fix>3d</fix>
</trkpt>
<trkpt lat="33.8101578" lon="-118.3940519">
  <ele>-0.116</ele>
  <time>2026-09-02T22:07:32Z</time>
  <course>259.26</course>
  <speed>0.765375724726098</speed>
  <fix>3d</fix>
</trkpt>
<trkpt lat="33.8101571" lon="-118.39405">
  <ele>-0.11</ele>
  <time>2026-09-02T22:07:32Z</time>
  <course>275.93</course>
  <speed>0.76</speed>
  <fix>3d</fix>
</trkpt>
<trkpt lat="33.8101579" lon="-118.3940527">
  <ele>-0.115</ele>
  <time>2026-09-02T22:07:32Z</time>
  <course>263.12</course>
  <speed>0.7632168761236874</speed>
  <fix>3d</fix>
</trkpt>
<trkpt lat="33.8101573" lon="-118.3940515">
  <ele>-0.1</ele>
  <time>2026-09-02T22:07:32Z</time>
  <course>283.65</course>
  <speed>0.76</speed>
  <fix>3d</fix>
</trkpt>
<trkpt lat="33.8101581" lon="-118.3940534">
  <ele>-0.114</ele>
  <time>2026-09-02T22:07:32Z</time>
  <course>266.98</course>
  <speed>0.7605918747922567</speed>
  <fix>3d</fix>
</trkpt>
<trkpt lat="33.8101573" lon="-118.3940515">
  <ele>-0.1</ele>
  <time>2026-09-02T22:07:32Z</time>
  <course>283.65</course>
  <speed>0.76</speed>
  <fix>3d</fix>
</trkpt>
<trkpt lat="33.8101584" lon="-118.3940542">
  <ele>-0.114</ele>
  <time>2026-09-02T22:07:32Z</time>
  <course>270.85</course>
  <speed>0.765375724726098</speed>
  <fix>3d</fix>
</trkpt>
<trkpt lat="33.8101576" lon="-118.3940531">
  <ele>-0.1</ele>
  <time>2026-09-02T22:07:32Z</time>
  <course>291.39</course>
  <speed>0.76</speed>
  <fix>3d</fix>
</trkpt>
<trkpt lat="33.8101587" lon="-118.3940549">
  <ele>-0.114</ele>
  <time>2026-09-02T22:07:32Z</time>
  <course>274.71</course>
  <speed>0.7600657866263946</speed>
  <fix>3d</fix>
</trkpt>
<trkpt lat="33.8101576" lon="-118.3940531">
  <ele>-0.1</ele>
  <time>2026-09-02T22:07:32Z</time>
  <course>291.39</course>
  <speed>0.76</speed>
  <fix>3d</fix>
</trkpt>
<trkpt lat="33.810159" lon="-118.3940555">
  <ele>-0.113</ele>
  <time>2026-09-02T22:07:32Z</time>
  <course>278.57</course>
  <speed>0.758023746329889</speed>
  <fix>3d</fix>
</trkpt>
<trkpt lat="33.8101582" lon="-118.3940546">
  <ele>-0.1</ele>
  <time>2026-09-02T22:07:32Z</time>
  <course>299.13</course>
  <speed>0.76</speed>
  <fix>3d</fix>
</trkpt>
<trkpt lat="33.8101594" lon="-118.3940562">
  <ele>-0.113</ele>
  <time>2026-09-02T22:07:32Z</time>
  <course>282.43</course>
  <speed>0.7592759709091287</speed>
  <fix>3d</fix>
</trkpt>
<trkpt lat="33.8101582" lon="-118.3940546">
  <ele>-0.1</ele>
  <time>2026-09-02T22:07:32Z</time>
  <course>299.13</course>
  <speed>0.76</speed>
  <fix>3d</fix>
</trkpt>
<trkpt lat="33.8101598" lon="-118.3940568">
  <ele>-0.113</ele>
  <time>2026-09-02T22:07:32Z</time>
  <course>286.33</course>
  <speed>0.7496665925596525</speed>
  <fix>3d</fix>
</trkpt>
<trkpt lat="33.8101589" lon="-118.394056">
  <ele>-0.1</ele>
  <time>2026-09-02T22:07:32Z</time>
  <course>306.85</course>
  <speed>0.76</speed>
  <fix>3d</fix>
</trkpt>
<trkpt lat="33.8101603" lon="-118.3940574">
  <ele>-0.113</ele>
  <time>2026-09-02T22:07:32Z</time>
  <course>290.19</course>
  <speed>0.757429864739964</speed>
  <fix>3d</fix>
</trkpt>
<trkpt lat="33.8101589" lon="-118.394056">
  <ele>-0.1</ele>
  <time>2026-09-02T22:07:32Z</time>
  <course>306.85</course>
  <speed>0.76</speed>
  <fix>3d</fix>
</trkpt>
<trkpt lat="33.8101608" lon="-118.3940579">
  <ele>-0.112</ele>
  <time>2026-09-02T22:07:32Z</time>
  <course>294.05</course>
  <speed>0.7543208866258443</speed>
  <fix>3d</fix>
</trkpt>
<trkpt lat="33.8101598" lon="-118.3940572">
  <ele>-0.11</ele>
  <time>2026-09-02T22:07:32Z</time>
  <course>314.58</course>
  <speed>0.76</speed>
  <fix>3d</fix>
</trkpt>
<trkpt lat="33.8101613" lon="-118.3940584">
  <ele>-0.11</ele>
  <time>2026-09-02T22:07:32Z</time>
  <course>297.91</course>
  <speed>0.7545197147855052</speed>
  <fix>3d</fix>
</trkpt>
<trkpt lat="33.8101598" lon="-118.3940572">
  <ele>-0.11</ele>
  <time>2026-09-02T22:07:32Z</time>
  <course>314.58</course>
  <speed>0.76</speed>
  <fix>3d</fix>
</trkpt>
<trkpt lat="33.8101618" lon="-118.3940589">
  <ele>-0.11</ele>
  <time>2026-09-02T22:07:32Z</time>
  <course>301.77</course>
  <speed>0.7494664769020694</speed>
  <fix>3d</fix>
</trkpt>
<trkpt lat="33.8101608" lon="-118.3940584">
  <ele>-0.1</ele>
  <time>2026-09-02T22:07:32Z</time>
  <course>322.3</course>
  <speed>0.76</speed>
  <fix>3d</fix>
</trkpt>
<trkpt lat="33.8101624" lon="-118.3940593">
  <ele>-0.11</ele>
  <time>2026-09-02T22:07:32Z</time>
  <course>305.63</course>
  <speed>0.7424284477308234</speed>
  <fix>3d</fix>
</trkpt>
<trkpt lat="33.8101608" lon="-118.3940584">
  <ele>-0.1</ele>
  <time>2026-09-02T22:07:32Z</time>
  <course>322.3</course>
  <speed>0.76</speed>
  <fix>3d</fix>
</trkpt>
<trkpt lat="33.810163" lon="-118.3940596">
  <ele>-0.11</ele>
  <time>2026-09-02T22:07:32Z</time>
  <course>309.49</course>
  <speed>0.7432361670424819</speed>
  <fix>3d</fix>
</trkpt>
<trkpt lat="33.810162" lon="-118.3940593">
  <ele>-0.1</ele>
  <time>2026-09-02T22:07:32Z</time>
  <course>330.03</course>
  <speed>0.76</speed>
  <fix>3d</fix>
</trkpt>
<trkpt lat="33.8101636" lon="-118.39406">
  <ele>-0.111</ele>
  <time>2026-09-02T22:07:32Z</time>
  <course>313.35</course>
  <speed>0.7433034373659253</speed>
  <fix>3d</fix>
</trkpt>
<trkpt lat="33.810162" lon="-118.3940593">
  <ele>-0.1</ele>
  <time>2026-09-02T22:07:32Z</time>
  <course>330.03</course>
  <speed>0.76</speed>
  <fix>3d</fix>
</trkpt>
<trkpt lat="33.8101642" lon="-118.3940602">
  <ele>-0.112</ele>
  <time>2026-09-02T22:07:32Z</time>
  <course>317.22</course>
  <speed>0.7376313442364011</speed>
  <fix>3d</fix>
</trkpt>
<trkpt lat="33.8101632" lon="-118.39406">
  <ele>-0.1</ele>
  <time>2026-09-02T22:07:32Z</time>
  <course>337.75</course>
  <speed>0.76</speed>
  <fix>3d</fix>
</trkpt>
<trkpt lat="33.8101648" lon="-118.3940604">
  <ele>-0.112</ele>
  <time>2026-09-02T22:07:32Z</time>
  <course>321.08</course>
  <speed>0.7354590403278758</speed>
  <fix>3d</fix>
</trkpt>
<trkpt lat="33.8101632" lon="-118.39406">
  <ele>-0.1</ele>
  <time>2026-09-02T22:07:32Z</time>
  <course>337.75</course>
  <speed>0.76</speed>
  <fix>3d</fix>
</trkpt>
<trkpt lat="33.8101655" lon="-118.3940606">
  <ele>-0.111</ele>
  <time>2026-09-02T22:07:32Z</time>
  <course>324.94</course>
  <speed>0.7382411530116699</speed>
  <fix>3d</fix>
</trkpt>
<trkpt lat="33.8101645" lon="-118.3940605">
  <ele>-0.1</ele>
  <time>2026-09-02T22:07:32Z</time>
  <course>345.48</course>
  <speed>0.76</speed>
  <fix>3d</fix>
</trkpt>
<trkpt lat="33.8101661" lon="-118.3940607">
  <ele>-0.111</ele>
  <time>2026-09-02T22:07:33Z</time>
  <course>328.8</course>
  <speed>0.7324616030891995</speed>
  <fix>3d</fix>
</trkpt>
<trkpt lat="33.8101645" lon="-118.3940605">
  <ele>-0.1</ele>
  <time>2026-09-02T22:07:33Z</time>
  <course>345.48</course>
  <speed>0.76</speed>
  <fix>3d</fix>
</trkpt>
<trkpt lat="33.8101668" lon="-118.3940608">
  <ele>-0.11</ele>
  <time>2026-09-02T22:07:33Z</time>
  <course>332.66</course>
  <speed>0.7300684899377592</speed>
  <fix>3d</fix>
</trkpt>
<trkpt lat="33.8101659" lon="-118.3940608">
  <ele>-0.11</ele>
  <time>2026-09-02T22:07:33Z</time>
  <course>353.2</course>
  <speed>0.76</speed>
  <fix>3d</fix>
</trkpt>
<trkpt lat="33.8101674" lon="-118.3940608">
  <ele>-0.11</ele>
  <time>2026-09-02T22:07:33Z</time>
  <course>336.52</course>
  <speed>0.7306161783043131</speed>
  <fix>3d</fix>
</trkpt>
<trkpt lat="33.8101659" lon="-118.3940608">
  <ele>-0.11</ele>
  <time>2026-09-02T22:07:33Z</time>
  <course>353.2</course>
  <speed>0.76</speed>
  <fix>3d</fix>
</trkpt>
<trkpt lat="33.8101681" lon="-118.3940608">
  <ele>-0.11</ele>
  <time>2026-09-02T22:07:33Z</time>
  <course>340.38</course>
  <speed>0.7343704787094864</speed>
  <fix>3d</fix>
</trkpt>
<trkpt lat="33.8101672" lon="-118.3940609">
  <ele>-0.1</ele>
  <time>2026-09-02T22:07:33Z</time>
  <course>0.92</course>
  <speed>0.76</speed>
  <fix>3d</fix>
</trkpt>
<trkpt lat="33.8101687" lon="-118.3940607">
  <ele>-0.111</ele>
  <time>2026-09-02T22:07:33Z</time>
  <course>344.25</course>
  <speed>0.7316419889536138</speed>
  <fix>3d</fix>
</trkpt>
<trkpt lat="33.8101672" lon="-118.3940609">
  <ele>-0.1</ele>
  <time>2026-09-02T22:07:33Z</time>
  <course>0.92</course>
  <speed>0.76</speed>
  <fix>3d</fix>
</trkpt>
<trkpt lat="33.8101694" lon="-118.3940605">
  <ele>-0.111</ele>
  <time>2026-09-02T22:07:33Z</time>
  <course>348.11</course>
  <speed>0.7227724399837061</speed>
  <fix>3d</fix>
</trkpt>
<trkpt lat="33.8101686" lon="-118.3940608">
  <ele>-0.1</ele>
  <time>2026-09-02T22:07:33Z</time>
  <course>8.65</course>
  <speed>0.76</speed>
  <fix>3d</fix>
</trkpt>
<trkpt lat="33.81017" lon="-118.3940603">
  <ele>-0.112</ele>
  <time>2026-09-02T22:07:33Z</time>
  <course>351.97</course>
  <speed>0.7273238618387272</speed>
  <fix>3d</fix>
</trkpt>
<trkpt lat="33.8101686" lon="-118.3940608">
  <ele>-0.1</ele>
  <time>2026-09-02T22:07:33Z</time>
  <course>8.65</course>
  <speed>0.76</speed>
  <fix>3d</fix>
</trkpt>
<trkpt lat="33.8101707" lon="-118.3940601">
  <ele>-0.112</ele>
  <time>2026-09-02T22:07:33Z</time>
  <course>355.83</course>
  <speed>0.722357252334328</speed>
  <fix>3d</fix>
</trkpt>
<trkpt lat="33.8101699" lon="-118.3940605">
  <ele>-0.1</ele>
  <time>2026-09-02T22:07:33Z</time>
  <course>16.39</course>
  <speed>0.76</speed>
  <fix>3d</fix>
</trkpt>
<trkpt lat="33.8101713" lon="-118.3940597">
  <ele>-0.111</ele>
  <time>2026-09-02T22:07:33Z</time>
  <course>358.63</course>
  <speed>0.7066116330771806</speed>
  <fix>3d</fix>
</trkpt>
<trkpt lat="33.8101699" lon="-118.3940605">
  <ele>-0.1</ele>
  <time>2026-09-02T22:07:33Z</time>
  <course>16.39</course>
  <speed>0.76</speed>
  <fix>3d</fix>
</trkpt>
<trkpt lat="33.8101718" lon="-118.3940594">
  <ele>-0.111</ele>
  <time>2026-09-02T22:07:33Z</time>
  <course>359.85</course>
  <speed>0.6946221994724903</speed>
  <fix>3d</fix>
</trkpt>
<trkpt lat="33.8101712" lon="-118.3940599">
  <ele>-0.1</ele>
  <time>2026-09-02T22:07:33Z</time>
  <course>24.39</course>
  <speed>0.75</speed>
  <fix>3d</fix>
</trkpt>
<trkpt lat="33.8101724" lon="-118.394059">
  <ele>-0.11</ele>
  <time>2026-09-02T22:07:33Z</time>
  <course>0.62</course>
  <speed>0.5852349955359812</speed>
  <fix>3d</fix>
</trkpt>
<trkpt lat="33.8101712" lon="-118.3940599">
  <ele>-0.1</ele>
  <time>2026-09-02T22:07:33Z</time>
  <course>24.39</course>
  <speed>0.75</speed>
  <fix>3d</fix>
</trkpt>
<trkpt lat="33.8101728" lon="-118.3940587">
  <ele>-0.109</ele>
  <time>2026-09-02T22:07:33Z</time>
  <course>1.19</course>
  <speed>0.4801041553663121</speed>
  <fix>3d</fix>
</trkpt>
<trkpt lat="33.8101723" lon="-118.3940591">
  <ele>-0.11</ele>
  <time>2026-09-02T22:07:33Z</time>
  <course>31.43</course>
  <speed>0.66</speed>
  <fix>3d</fix>
</trkpt>
<trkpt lat="33.8101731" lon="-118.3940584">
  <ele>-0.108</ele>
  <time>2026-09-02T22:07:33Z</time>
  <course>1.64</course>
  <speed>0.39408120990476064</speed>
  <fix>3d</fix>
</trkpt>
<trkpt lat="33.8101723" lon="-118.3940591">
  <ele>-0.11</ele>
  <time>2026-09-02T22:07:33Z</time>
  <course>31.43</course>
  <speed>0.66</speed>
  <fix>3d</fix>
</trkpt>
<trkpt lat="33.8101734" lon="-118.3940582">
  <ele>-0.107</ele>
  <time>2026-09-02T22:07:33Z</time>
  <course>2.01</course>
  <speed>0.33837848631377265</speed>
  <fix>3d</fix>
</trkpt>
<trkpt lat="33.8101732" lon="-118.3940585">
  <ele>-0.1</ele>
  <time>2026-09-02T22:07:33Z</time>
  <course>36.14</course>
  <speed>0.5</speed>
  <fix>3d</fix>
</trkpt>
<trkpt lat="33.8101737" lon="-118.394058">
  <ele>-0.107</ele>
  <time>2026-09-02T22:07:33Z</time>
  <course>2.32</course>
  <speed>0.29410882339705485</speed>
  <fix>3d</fix>
</trkpt>
<trkpt lat="33.8101732" lon="-118.3940585">
  <ele>-0.1</ele>
  <time>2026-09-02T22:07:33Z</time>
  <course>36.14</course>
  <speed>0.5</speed>
  <fix>3d</fix>
</trkpt>
<trkpt lat="33.8101739" lon="-118.3940578">
  <ele>-0.112</ele>
  <time>2026-09-02T22:07:33Z</time>
  <course>2.6</course>
  <speed>0.260768096208106</speed>
  <fix>3d</fix>
</trkpt>
<trkpt lat="33.8101738" lon="-118.3940579">
  <ele>-0.1</ele>
  <time>2026-09-02T22:07:33Z</time>
  <course>37.83</course>
  <speed>0.37</speed>
  <fix>3d</fix>
</trkpt>
<trkpt lat="33.8101741" lon="-118.3940576">
  <ele>-0.12</ele>
  <time>2026-09-02T22:07:33Z</time>
  <course>2.84</course>
  <speed>0.23853720883753127</speed>
  <fix>3d</fix>
</trkpt>
<trkpt lat="33.8101738" lon="-118.3940579">
  <ele>-0.1</ele>
  <time>2026-09-02T22:07:33Z</time>
  <course>37.83</course>
  <speed>0.37</speed>
  <fix>3d</fix>
</trkpt>
<trkpt lat="33.8101743" lon="-118.3940574">
  <ele>-0.128</ele>
  <time>2026-09-02T22:07:33Z</time>
  <course>3.06</course>
  <speed>0.2109502310972899</speed>
  <fix>3d</fix>
</trkpt>
<trkpt lat="33.8101743" lon="-118.3940575">
  <ele>-0.11</ele>
  <time>2026-09-02T22:07:33Z</time>
  <course>38.07</course>
  <speed>0.29</speed>
  <fix>3d</fix>
</trkpt>
<trkpt lat="33.8101745" lon="-118.3940573">
  <ele>-0.135</ele>
  <time>2026-09-02T22:07:33Z</time>
  <course>3.25</course>
  <speed>0.1972308292331602</speed>
  <fix>3d</fix>
</trkpt>
<trkpt lat="33.8101743" lon="-118.3940575">
  <ele>-0.11</ele>
  <time>2026-09-02T22:07:33Z</time>
  <course>38.07</course>
  <speed>0.29</speed>
  <fix>3d</fix>
</trkpt>
<trkpt lat="33.8101747" lon="-118.3940572">
  <ele>-0.142</ele>
  <time>2026-09-02T22:07:33Z</time>
  <course>3.43</course>
  <speed>0.18027756377319945</speed>
  <fix>3d</fix>
</trkpt>
<trkpt lat="33.8101747" lon="-118.3940571">
  <ele>-0.13</ele>
  <time>2026-09-02T22:07:33Z</time>
  <course>38.32</course>
  <speed>0.24</speed>
  <fix>3d</fix>
</trkpt>
<trkpt lat="33.8101749" lon="-118.394057">
  <ele>-0.148</ele>
  <time>2026-09-02T22:07:33Z</time>
  <course>3.6</course>
  <speed>0.1664331697709324</speed>
  <fix>3d</fix>
</trkpt>
<trkpt lat="33.8101747" lon="-118.3940571">
  <ele>-0.13</ele>
  <time>2026-09-02T22:07:33Z</time>
  <course>38.32</course>
  <speed>0.24</speed>
  <fix>3d</fix>
</trkpt>
<trkpt lat="33.810175" lon="-118.3940569">
  <ele>-0.153</ele>
  <time>2026-09-02T22:07:33Z</time>
  <course>3.75</course>
  <speed>0.15264337522473748</speed>
  <fix>3d</fix>
</trkpt>
<trkpt lat="33.810175" lon="-118.3940568">
  <ele>-0.14</ele>
  <time>2026-09-02T22:07:33Z</time>
  <course>38.56</course>
  <speed>0.2</speed>
  <fix>3d</fix>
</trkpt>
<trkpt lat="33.8101751" lon="-118.3940568">
  <ele>-0.158</ele>
  <time>2026-09-02T22:07:33Z</time>
  <course>3.9</course>
  <speed>0.15264337522473748</speed>
  <fix>3d</fix>
</trkpt>
<trkpt lat="33.810175" lon="-118.3940568">
  <ele>-0.14</ele>
  <time>2026-09-02T22:07:33Z</time>
  <course>38.56</course>
  <speed>0.2</speed>
  <fix>3d</fix>
</trkpt>
<trkpt lat="33.8101753" lon="-118.3940567">
  <ele>-0.162</ele>
  <time>2026-09-02T22:07:33Z</time>
  <course>4.03</course>
  <speed>0.13892443989449804</speed>
  <fix>3d</fix>
</trkpt>
<trkpt lat="33.8101753" lon="-118.3940566">
  <ele>-0.15</ele>
  <time>2026-09-02T22:07:33Z</time>
  <course>38.78</course>
  <speed>0.17</speed>
  <fix>3d</fix>
</trkpt>
<trkpt lat="33.8101754" lon="-118.3940565">
  <ele>-0.165</ele>
  <time>2026-09-02T22:07:33Z</time>
  <course>4.16</course>
  <speed>0.130384048104053</speed>
  <fix>3d</fix>
</trkpt>
<trkpt lat="33.8101753" lon="-118.3940566">
  <ele>-0.15</ele>
  <time>2026-09-02T22:07:33Z</time>
  <course>38.78</course>
  <speed>0.17</speed>
  <fix>3d</fix>
</trkpt>
<trkpt lat="33.8101755" lon="-118.3940564">
  <ele>-0.169</ele>
  <time>2026-09-02T22:07:33Z</time>
  <course>4.28</course>
  <speed>0.130384048104053</speed>
  <fix>3d</fix>
</trkpt>
<trkpt lat="33.8101755" lon="-118.3940563">
  <ele>-0.16</ele>
  <time>2026-09-02T22:07:33Z</time>
  <course>38.98</course>
  <speed>0.15</speed>
  <fix>3d</fix>
</trkpt>
<trkpt lat="33.8101756" lon="-118.3940563">
  <ele>-0.173</ele>
  <time>2026-09-02T22:07:33Z</time>
  <course>4.4</course>
  <speed>0.11661903789690602</speed>
  <fix>3d</fix>
</trkpt>
<trkpt lat="33.8101755" lon="-118.3940563">
  <ele>-0.16</ele>
  <time>2026-09-02T22:07:33Z</time>
  <course>38.98</course>
  <speed>0.15</speed>
  <fix>3d</fix>
</trkpt>
<trkpt lat="33.8101757" lon="-118.3940562">
  <ele>-0.176</ele>
  <time>2026-09-02T22:07:33Z</time>
  <course>4.5</course>
  <speed>0.11661903789690602</speed>
  <fix>3d</fix>
</trkpt>
<trkpt lat="33.8101757" lon="-118.3940562">
  <ele>-0.17</ele>
  <time>2026-09-02T22:07:33Z</time>
  <course>39.17</course>
  <speed>0.14</speed>
  <fix>3d</fix>
</trkpt>
<trkpt lat="33.8101758" lon="-118.3940561">
  <ele>-0.178</ele>
  <time>2026-09-02T22:07:33Z</time>
  <course>4.61</course>
  <speed>0.10816653826391968</speed>
  <fix>3d</fix>
</trkpt>
<trkpt lat="33.8101757" lon="-118.3940562">
  <ele>-0.17</ele>
  <time>2026-09-02T22:07:33Z</time>
  <course>39.17</course>
  <speed>0.14</speed>
  <fix>3d</fix>
</trkpt>
<trkpt lat="33.8101759" lon="-118.394056">
  <ele>-0.179</ele>
  <time>2026-09-02T22:07:33Z</time>
  <course>4.71</course>
  <speed>0.10816653826391968</speed>
  <fix>3d</fix>
</trkpt>
<trkpt lat="33.8101759" lon="-118.394056">
  <ele>-0.17</ele>
  <time>2026-09-02T22:07:33Z</time>
  <course>39.35</course>
  <speed>0.12</speed>
  <fix>3d</fix>
</trkpt>
<trkpt lat="33.810176" lon="-118.394056">
  <ele>-0.179</ele>
  <time>2026-09-02T22:07:33Z</time>
  <course>4.8</course>
  <speed>0.10816653826391968</speed>
  <fix>3d</fix>
</trkpt>
<trkpt lat="33.8101759" lon="-118.394056">
  <ele>-0.17</ele>
  <time>2026-09-02T22:07:33Z</time>
  <course>39.35</course>
  <speed>0.12</speed>
  <fix>3d</fix>
</trkpt>
<trkpt lat="33.8101761" lon="-118.3940559">
  <ele>-0.179</ele>
  <time>2026-09-02T22:07:33Z</time>
  <course>4.89</course>
  <speed>0.1</speed>
  <fix>3d</fix>
</trkpt>
<trkpt lat="33.8101761" lon="-118.3940558">
  <ele>-0.18</ele>
  <time>2026-09-02T22:07:33Z</time>
  <course>39.51</course>
  <speed>0.11</speed>
  <fix>3d</fix>
</trkpt>
<trkpt lat="33.8101762" lon="-118.3940558">
  <ele>-0.178</ele>
  <time>2026-09-02T22:07:33Z</time>
  <course>4.98</course>
  <speed>0.09433981132056603</speed>
  <fix>3d</fix>
</trkpt>
<trkpt lat="33.8101761" lon="-118.3940558">
  <ele>-0.18</ele>
  <time>2026-09-02T22:07:33Z</time>
  <course>39.51</course>
  <speed>0.11</speed>
  <fix>3d</fix>
</trkpt>
<trkpt lat="33.8101762" lon="-118.3940557">
  <ele>-0.177</ele>
  <time>2026-09-02T22:07:33Z</time>
  <course>5.06</course>
  <speed>0.08602325267042626</speed>
  <fix>3d</fix>
</trkpt>
<trkpt lat="33.8101762" lon="-118.3940556">
  <ele>-0.17</ele>
  <time>2026-09-02T22:07:33Z</time>
  <course>39.66</course>
  <speed>0.1</speed>
  <fix>3d</fix>
</trkpt>
<trkpt lat="33.8101763" lon="-118.3940556">
  <ele>-0.175</ele>
  <time>2026-09-02T22:07:33Z</time>
  <course>5.14</course>
  <speed>0.08602325267042626</speed>
  <fix>3d</fix>
</trkpt>
<trkpt lat="33.8101762" lon="-118.3940556">
  <ele>-0.17</ele>
  <time>2026-09-02T22:07:33Z</time>
  <course>39.66</course>
  <speed>0.1</speed>
  <fix>3d</fix>
</trkpt>
<trkpt lat="33.8101764" lon="-118.3940556">
  <ele>-0.172</ele>
  <time>2026-09-02T22:07:33Z</time>
  <course>5.22</course>
  <speed>0.08602325267042626</speed>
  <fix>3d</fix>
</trkpt>
<trkpt lat="33.8101764" lon="-118.3940555">
  <ele>-0.17</ele>
  <time>2026-09-02T22:07:33Z</time>
  <course>39.8</course>
  <speed>0.09</speed>
  <fix>3d</fix>
</trkpt>
<trkpt lat="33.8101765" lon="-118.3940555">
  <ele>-0.168</ele>
  <time>2026-09-02T22:07:33Z</time>
  <course>5.3</course>
  <speed>0.08602325267042626</speed>
  <fix>3d</fix>
</trkpt>
<trkpt lat="33.8101764" lon="-118.3940555">
  <ele>-0.17</ele>
  <time>2026-09-02T22:07:33Z</time>
  <course>39.8</course>
  <speed>0.09</speed>
  <fix>3d</fix>
</trkpt>
<trkpt lat="33.8101765" lon="-118.3940554">
  <ele>-0.163</ele>
  <time>2026-09-02T22:07:33Z</time>
  <course>5.37</course>
  <speed>0.07810249675906654</speed>
  <fix>3d</fix>
</trkpt>
<trkpt lat="33.8101765" lon="-118.3940553">
  <ele>-0.16</ele>
  <time>2026-09-02T22:07:33Z</time>
  <course>39.94</course>
  <speed>0.09</speed>
  <fix>3d</fix>
</trkpt>
<trkpt lat="33.8101766" lon="-118.3940553">
  <ele>-0.157</ele>
  <time>2026-09-02T22:07:33Z</time>
  <course>5.44</course>
  <speed>0.07810249675906654</speed>
  <fix>3d</fix>
</trkpt>
<trkpt lat="33.8101765" lon="-118.3940553">
  <ele>-0.16</ele>
  <time>2026-09-02T22:07:33Z</time>
  <course>39.94</course>
  <speed>0.09</speed>
  <fix>3d</fix>
</trkpt>
<trkpt lat="33.8101766" lon="-118.3940553">
  <ele>-0.152</ele>
  <time>2026-09-02T22:07:33Z</time>
  <course>5.51</course>
  <speed>0.07810249675906654</speed>
  <fix>3d</fix>
</trkpt>
<trkpt lat="33.8101766" lon="-118.3940552">
  <ele>-0.15</ele>
  <time>2026-09-02T22:07:33Z</time>
  <course>40.07</course>
  <speed>0.08</speed>
  <fix>3d</fix>
</trkpt>
<trkpt lat="33.8101767" lon="-118.3940552">
  <ele>-0.145</ele>
  <time>2026-09-02T22:07:33Z</time>
  <course>5.58</course>
  <speed>0.07810249675906654</speed>
  <fix>3d</fix>
</trkpt>
<trkpt lat="33.8101766" lon="-118.3940552">
  <ele>-0.15</ele>
  <time>2026-09-02T22:07:33Z</time>
  <course>40.07</course>
  <speed>0.08</speed>
  <fix>3d</fix>
</trkpt>
<trkpt lat="33.8101768" lon="-118.3940551">
  <ele>-0.139</ele>
  <time>2026-09-02T22:07:33Z</time>
  <course>5.64</course>
  <speed>0.07071067811865475</speed>
  <fix>3d</fix>
</trkpt>
<trkpt lat="33.8101767" lon="-118.3940551">
  <ele>-0.14</ele>
  <time>2026-09-02T22:07:33Z</time>
  <course>40.19</course>
  <speed>0.08</speed>
  <fix>3d</fix>
</trkpt>
<trkpt lat="33.8101768" lon="-118.3940551">
  <ele>-0.131</ele>
  <time>2026-09-02T22:07:33Z</time>
  <course>5.71</course>
  <speed>0.07071067811865475</speed>
  <fix>3d</fix>
</trkpt>
<trkpt lat="33.8101767" lon="-118.3940551">
  <ele>-0.14</ele>
  <time>2026-09-02T22:07:33Z</time>
  <course>40.19</course>
  <speed>0.08</speed>
  <fix>3d</fix>
</trkpt>
<trkpt lat="33.8101768" lon="-118.394055">
  <ele>-0.124</ele>
  <time>2026-09-02T22:07:33Z</time>
  <course>5.77</course>
  <speed>0.07071067811865475</speed>
  <fix>3d</fix>
</trkpt>
<trkpt lat="33.8101768" lon="-118.394055">
  <ele>-0.13</ele>
  <time>2026-09-02T22:07:33Z</time>
  <course>40.3</course>
  <speed>0.07</speed>
  <fix>3d</fix>
</trkpt>
<trkpt lat="33.8101769" lon="-118.3940549">
  <ele>-0.118</ele>
  <time>2026-09-02T22:07:33Z</time>
  <course>5.83</course>
  <speed>0.07071067811865475</speed>
  <fix>3d</fix>
</trkpt>
<trkpt lat="33.8101768" lon="-118.394055">
  <ele>-0.13</ele>
  <time>2026-09-02T22:07:33Z</time>
  <course>40.3</course>
  <speed>0.07</speed>
  <fix>3d</fix>
</trkpt>
<trkpt lat="33.8101769" lon="-118.3940549">
  <ele>-0.113</ele>
  <time>2026-09-02T22:07:33Z</time>
  <course>5.89</course>
  <speed>0.06403124237432849</speed>
  <fix>3d</fix>
</trkpt>
<trkpt lat="33.8101769" lon="-118.3940549">
  <ele>-0.12</ele>
  <time>2026-09-02T22:07:33Z</time>
  <course>40.41</course>
  <speed>0.07</speed>
  <fix>3d</fix>
</trkpt>
<trkpt lat="33.810177" lon="-118.3940548">
  <ele>-0.111</ele>
  <time>2026-09-02T22:07:33Z</time>
  <course>5.94</course>
  <speed>0.06403124237432849</speed>
  <fix>3d</fix>
</trkpt>
<trkpt lat="33.8101769" lon="-118.3940549">
  <ele>-0.12</ele>
  <time>2026-09-02T22:07:33Z</time>
  <course>40.41</course>
  <speed>0.07</speed>
  <fix>3d</fix>
</trkpt>
<trkpt lat="33.810177" lon="-118.3940548">
  <ele>-0.113</ele>
  <time>2026-09-02T22:07:33Z</time>
  <course>6.0</course>
  <speed>0.06403124237432849</speed>
  <fix>3d</fix>
</trkpt>
<trkpt lat="33.810177" lon="-118.3940548">
  <ele>-0.11</ele>
  <time>2026-09-02T22:07:33Z</time>
  <course>40.51</course>
  <speed>0.06</speed>
  <fix>3d</fix>
</trkpt>
<trkpt lat="33.8101771" lon="-118.3940547">
  <ele>-0.119</ele>
  <time>2026-09-02T22:07:33Z</time>
  <course>6.05</course>
  <speed>0.06403124237432849</speed>
  <fix>3d</fix>
</trkpt>
<trkpt lat="33.810177" lon="-118.3940548">
  <ele>-0.11</ele>
  <time>2026-09-02T22:07:33Z</time>
  <course>40.51</course>
  <speed>0.06</speed>
  <fix>3d</fix>
</trkpt>
<trkpt lat="33.8101771" lon="-118.3940546">
  <ele>-0.125</ele>
  <time>2026-09-02T22:07:33Z</time>
  <course>6.11</course>
  <speed>0.06403124237432849</speed>
  <fix>3d</fix>
</trkpt>
<trkpt lat="33.8101771" lon="-118.3940547">
  <ele>-0.11</ele>
  <time>2026-09-02T22:07:33Z</time>
  <course>40.61</course>
  <speed>0.06</speed>
  <fix>3d</fix>
</trkpt>
<trkpt lat="33.8101771" lon="-118.3940546">
  <ele>-0.132</ele>
  <time>2026-09-02T22:07:33Z</time>
  <course>6.16</course>
  <speed>0.05830951894845301</speed>
  <fix>3d</fix>
</trkpt>
<trkpt lat="33.8101771" lon="-118.3940547">
  <ele>-0.11</ele>
  <time>2026-09-02T22:07:33Z</time>
  <course>40.61</course>
  <speed>0.06</speed>
  <fix>3d</fix>
</trkpt>
<trkpt lat="33.8101772" lon="-118.3940545">
  <ele>-0.138</ele>
  <time>2026-09-02T22:07:33Z</time>
  <course>6.21</course>
  <speed>0.05830951894845301</speed>
  <fix>3d</fix>
</trkpt>
<trkpt lat="33.8101772" lon="-118.3940546">
  <ele>-0.12</ele>
  <time>2026-09-02T22:07:33Z</time>
  <course>40.7</course>
  <speed>0.06</speed>
  <fix>3d</fix>
</trkpt>
<trkpt lat="33.8101772" lon="-118.3940545">
  <ele>-0.142</ele>
  <time>2026-09-02T22:07:33Z</time>
  <course>6.26</course>
  <speed>0.05830951894845301</speed>
  <fix>3d</fix>
</trkpt>
<trkpt lat="33.8101772" lon="-118.3940546">
  <ele>-0.12</ele>
  <time>2026-09-02T22:07:33Z</time>
  <course>40.7</course>
  <speed>0.06</speed>
  <fix>3d</fix>
</trkpt>
<trkpt lat="33.8101772" lon="-118.3940544">
  <ele>-0.147</ele>
  <time>2026-09-02T22:07:33Z</time>
  <course>6.31</course>
  <speed>0.05830951894845301</speed>
  <fix>3d</fix>
</trkpt>
<trkpt lat="33.8101773" lon="-118.3940545">
  <ele>-0.13</ele>
  <time>2026-09-02T22:07:33Z</time>
  <course>40.8</course>
  <speed>0.06</speed>
  <fix>3d</fix>
</trkpt>
<trkpt lat="33.8101773" lon="-118.3940544">
  <ele>-0.151</ele>
  <time>2026-09-02T22:07:33Z</time>
  <course>6.36</course>
  <speed>0.05830951894845301</speed>
  <fix>3d</fix>
</trkpt>
<trkpt lat="33.8101773" lon="-118.3940545">
  <ele>-0.13</ele>
  <time>2026-09-02T22:07:33Z</time>
  <course>40.8</course>
  <speed>0.06</speed>
  <fix>3d</fix>
</trkpt>
<trkpt lat="33.8101773" lon="-118.3940543">
  <ele>-0.153</ele>
  <time>2026-09-02T22:07:33Z</time>
  <course>6.41</course>
  <speed>0.053851648071345036</speed>
  <fix>3d</fix>
</trkpt>
<trkpt lat="33.8101774" lon="-118.3940544">
  <ele>-0.14</ele>
  <time>2026-09-02T22:07:33Z</time>
  <course>40.88</course>
  <speed>0.05</speed>
  <fix>3d</fix>
</trkpt>
<trkpt lat="33.8101773" lon="-118.3940543">
  <ele>-0.155</ele>
  <time>2026-09-02T22:07:33Z</time>
  <course>6.45</course>
  <speed>0.053851648071345036</speed>
  <fix>3d</fix>
</trkpt>
<trkpt lat="33.8101774" lon="-118.3940544">
  <ele>-0.14</ele>
  <time>2026-09-02T22:07:33Z</time>
  <course>40.88</course>
  <speed>0.05</speed>
  <fix>3d</fix>
</trkpt>
<trkpt lat="33.8101774" lon="-118.3940542">
  <ele>-0.156</ele>
  <time>2026-09-02T22:07:33Z</time>
  <course>6.5</course>
  <speed>0.053851648071345036</speed>
  <fix>3d</fix>
</trkpt>
<trkpt lat="33.8101775" lon="-118.3940543">
  <ele>-0.14</ele>
  <time>2026-09-02T22:07:33Z</time>
  <course>40.97</course>
  <speed>0.05</speed>
  <fix>3d</fix>
</trkpt>
<trkpt lat="33.8101774" lon="-118.3940542">
  <ele>-0.157</ele>
  <time>2026-09-02T22:07:33Z</time>
  <course>6.54</course>
  <speed>0.053851648071345036</speed>
  <fix>3d</fix>
</trkpt>
<trkpt lat="33.8101775" lon="-118.3940543">
  <ele>-0.14</ele>
  <time>2026-09-02T22:07:33Z</time>
  <course>40.97</course>
  <speed>0.05</speed>
  <fix>3d</fix>
</trkpt>
<trkpt lat="33.8101774" lon="-118.3940542">
  <ele>-0.157</ele>
  <time>2026-09-02T22:07:33Z</time>
  <course>6.59</course>
  <speed>0.053851648071345036</speed>
  <fix>3d</fix>
</trkpt>
<trkpt lat="33.8101775" lon="-118.3940543">
  <ele>-0.15</ele>
  <time>2026-09-02T22:07:33Z</time>
  <course>41.05</course>
  <speed>0.05</speed>
  <fix>3d</fix>
</trkpt>
<trkpt lat="33.8101775" lon="-118.3940541">
  <ele>-0.157</ele>
  <time>2026-09-02T22:07:33Z</time>
  <course>6.63</course>
  <speed>0.053851648071345036</speed>
  <fix>3d</fix>
</trkpt>
<trkpt lat="33.8101775" lon="-118.3940543">
  <ele>-0.15</ele>
  <time>2026-09-02T22:07:33Z</time>
  <course>41.05</course>
  <speed>0.05</speed>
  <fix>3d</fix>
</trkpt>
<trkpt lat="33.8101775" lon="-118.3940541">
  <ele>-0.156</ele>
  <time>2026-09-02T22:07:33Z</time>
  <course>6.67</course>
  <speed>0.053851648071345036</speed>
  <fix>3d</fix>
</trkpt>
<trkpt lat="33.8101776" lon="-118.3940542">
  <ele>-0.15</ele>
  <time>2026-09-02T22:07:33Z</time>
  <course>41.13</course>
  <speed>0.05</speed>
  <fix>3d</fix>
</trkpt>
<trkpt lat="33.8101775" lon="-118.394054">
  <ele>-0.153</ele>
  <time>2026-09-02T22:07:33Z</time>
  <course>6.71</course>
  <speed>0.05099019513592785</speed>
  <fix>3d</fix>
</trkpt>
<trkpt lat="33.8101776" lon="-118.3940542">
  <ele>-0.15</ele>
  <time>2026-09-02T22:07:33Z</time>
  <course>41.13</course>
  <speed>0.05</speed>
  <fix>3d</fix>
</trkpt>
<trkpt lat="33.8101775" lon="-118.394054">
  <ele>-0.15</ele>
  <time>2026-09-02T22:07:33Z</time>
  <course>6.75</course>
  <speed>0.05099019513592785</speed>
  <fix>3d</fix>
</trkpt>
<trkpt lat="33.8101776" lon="-118.3940541">
  <ele>-0.14</ele>
  <time>2026-09-02T22:07:33Z</time>
  <course>41.2</course>
  <speed>0.04</speed>
  <fix>3d</fix>
</trkpt>
<trkpt lat="33.8101776" lon="-118.3940539">
  <ele>-0.145</ele>
  <time>2026-09-02T22:07:33Z</time>
  <course>6.79</course>
  <speed>0.05099019513592785</speed>
  <fix>3d</fix>
</trkpt>
<trkpt lat="33.8101776" lon="-118.3940541">
  <ele>-0.14</ele>
  <time>2026-09-02T22:07:33Z</time>
  <course>41.2</course>
  <speed>0.04</speed>
  <fix>3d</fix>
</trkpt>
<trkpt lat="33.4368002" lon="-117.0859339">
  <ele>-0.11</ele>
  <time>2026-09-02T22:07:34Z</time>
  <course>0.0</course>
  <speed>0.0</speed>
  <fix>3d</fix>
</trkpt>
<trkpt lat="33.4368002" lon="-117.0859339">
  <ele>-0.11</ele>
  <time>2026-09-02T22:07:34Z</time>
  <course>0.0</course>
  <speed>0.0</speed>
  <fix>3d</fix>
</trkpt>
<trkpt lat="33.810313" lon="-118.393867">
  <ele>0.0</ele>
  <time>2026-09-02T22:07:34Z</time>
  <course>173.5</course>
  <speed>0.0</speed>
  <fix>3d</fix>
</trkpt>
<trkpt lat="33.810313" lon="-118.393867">
  <ele>-0.11</ele>
  <time>2026-09-02T22:07:34Z</time>
  <course>0.0</course>
  <speed>0.0</speed>
  <fix>3d</fix>
</trkpt>
<trkpt lat="33.810313" lon="-118.393867">
  <ele>0.0</ele>
  <time>2026-09-02T22:07:34Z</time>
  <course>173.64</course>
  <speed>0.0</speed>
  <fix>3d</fix>
</trkpt>
<trkpt lat="33.810313" lon="-118.393867">
  <ele>-0.11</ele>
  <time>2026-09-02T22:07:34Z</time>
  <course>0.0</course>
  <speed>0.0</speed>
  <fix>3d</fix>
</trkpt>
<trkpt lat="33.810313" lon="-118.393867">
  <ele>0.0</ele>
  <time>2026-09-02T22:07:34Z</time>
  <course>174.03</course>
  <speed>0.0</speed>
  <fix>3d</fix>
</trkpt>
<trkpt lat="33.810313" lon="-118.393867">
  <ele>-0.11</ele>
  <time>2026-09-02T22:07:34Z</time>
  <course>0.0</course>
  <speed>0.0</speed>
  <fix>3d</fix>
</trkpt>
<trkpt lat="33.810313" lon="-118.393867">
  <ele>0.0</ele>
  <time>2026-09-02T22:07:34Z</time>
  <course>174.57</course>
  <speed>0.0</speed>
  <fix>3d</fix>
</trkpt>
<trkpt lat="33.810313" lon="-118.393867">
  <ele>-0.11</ele>
  <time>2026-09-02T22:07:34Z</time>
  <course>0.0</course>
  <speed>0.0</speed>
  <fix>3d</fix>
</trkpt>
<trkpt lat="33.810313" lon="-118.393867">
  <ele>0.0</ele>
  <time>2026-09-02T22:07:34Z</time>
  <course>175.13</course>
  <speed>0.0</speed>
  <fix>3d</fix>
</trkpt>
<trkpt lat="33.810313" lon="-118.393867">
  <ele>-0.12</ele>
  <time>2026-09-02T22:07:34Z</time>
  <course>0.0</course>
  <speed>0.0</speed>
  <fix>3d</fix>
</trkpt>
<trkpt lat="33.810313" lon="-118.393867">
  <ele>0.0</ele>
  <time>2026-09-02T22:07:34Z</time>
  <course>175.67</course>
  <speed>0.0</speed>
  <fix>3d</fix>
</trkpt>
<trkpt lat="33.810313" lon="-118.393867">
  <ele>-0.12</ele>
  <time>2026-09-02T22:07:34Z</time>
  <course>0.0</course>
  <speed>0.0</speed>
  <fix>3d</fix>
</trkpt>
<trkpt lat="33.810313" lon="-118.393867">
  <ele>0.0</ele>
  <time>2026-09-02T22:07:34Z</time>
  <course>176.17</course>
  <speed>0.0</speed>
  <fix>3d</fix>
</trkpt>
<trkpt lat="33.810313" lon="-118.393867">
  <ele>-0.13</ele>
  <time>2026-09-02T22:07:34Z</time>
  <course>0.0</course>
  <speed>0.0</speed>
  <fix>3d</fix>
</trkpt>
<trkpt lat="33.810313" lon="-118.393867">
  <ele>0.0</ele>
  <time>2026-09-02T22:07:34Z</time>
  <course>176.65</course>
  <speed>0.0</speed>
  <fix>3d</fix>
</trkpt>
<trkpt lat="33.810313" lon="-118.393867">
  <ele>-0.13</ele>
  <time>2026-09-02T22:07:34Z</time>
  <course>0.0</course>
  <speed>0.0</speed>
  <fix>3d</fix>
</trkpt>
<trkpt lat="33.810313" lon="-118.393867">
  <ele>0.0</ele>
  <time>2026-09-02T22:07:34Z</time>
  <course>177.12</course>
  <speed>0.0</speed>
  <fix>3d</fix>
</trkpt>
<trkpt lat="33.810313" lon="-118.393867">
  <ele>-0.13</ele>
  <time>2026-09-02T22:07:34Z</time>
  <course>0.0</course>
  <speed>0.0</speed>
  <fix>3d</fix>
</trkpt>
<trkpt lat="33.810313" lon="-118.393867">
  <ele>0.0</ele>
  <time>2026-09-02T22:07:34Z</time>
  <course>177.57</course>
  <speed>0.0</speed>
  <fix>3d</fix>
</trkpt>
<trkpt lat="33.810313" lon="-118.393867">
  <ele>-0.13</ele>
  <time>2026-09-02T22:07:34Z</time>
  <course>0.0</course>
  <speed>0.0</speed>
  <fix>3d</fix>
</trkpt>
<trkpt lat="33.810313" lon="-118.393867">
  <ele>0.0</ele>
  <time>2026-09-02T22:07:34Z</time>
  <course>178.02</course>
  <speed>0.0</speed>
  <fix>3d</fix>
</trkpt>
<trkpt lat="33.810313" lon="-118.393867">
  <ele>-0.14</ele>
  <time>2026-09-02T22:07:34Z</time>
  <course>0.0</course>
  <speed>0.0</speed>
  <fix>3d</fix>
</trkpt>
<trkpt lat="33.810313" lon="-118.393867">
  <ele>0.0</ele>
  <time>2026-09-02T22:07:34Z</time>
  <course>178.45</course>
  <speed>0.0</speed>
  <fix>3d</fix>
</trkpt>
<trkpt lat="33.810313" lon="-118.393867">
  <ele>-0.14</ele>
  <time>2026-09-02T22:07:34Z</time>
  <course>0.0</course>
  <speed>0.0</speed>
  <fix>3d</fix>
</trkpt>
<trkpt lat="33.810313" lon="-118.393867">
  <ele>0.0</ele>
  <time>2026-09-02T22:07:34Z</time>
  <course>178.87</course>
  <speed>0.0</speed>
  <fix>3d</fix>
</trkpt>
<trkpt lat="33.810313" lon="-118.393867">
  <ele>-0.14</ele>
  <time>2026-09-02T22:07:34Z</time>
  <course>0.0</course>
  <speed>0.0</speed>
  <fix>3d</fix>
</trkpt>
<trkpt lat="33.810313" lon="-118.393867">
  <ele>0.0</ele>
  <time>2026-09-02T22:07:34Z</time>
  <course>179.27</course>
  <speed>0.0</speed>
  <fix>3d</fix>
</trkpt>
<trkpt lat="33.810313" lon="-118.393867">
  <ele>-0.14</ele>
  <time>2026-09-02T22:07:34Z</time>
  <course>0.0</course>
  <speed>0.0</speed>
  <fix>3d</fix>
</trkpt>
<trkpt lat="33.810313" lon="-118.393867">
  <ele>0.0</ele>
  <time>2026-09-02T22:07:34Z</time>
  <course>179.66</course>
  <speed>0.0</speed>
  <fix>3d</fix>
</trkpt>
<trkpt lat="33.810313" lon="-118.393867">
  <ele>-0.14</ele>
  <time>2026-09-02T22:07:34Z</time>
  <course>0.0</course>
  <speed>0.0</speed>
  <fix>3d</fix>
</trkpt>
<trkpt lat="33.810313" lon="-118.393867">
  <ele>0.0</ele>
  <time>2026-09-02T22:07:34Z</time>
  <course>180.05</course>
  <speed>0.0</speed>
  <fix>3d</fix>
</trkpt>
<trkpt lat="33.810313" lon="-118.393867">
  <ele>-0.14</ele>
  <time>2026-09-02T22:07:34Z</time>
  <course>0.0</course>
  <speed>0.0</speed>
  <fix>3d</fix>
</trkpt>
<trkpt lat="33.810313" lon="-118.393867">
  <ele>0.0</ele>
  <time>2026-09-02T22:07:34Z</time>
  <course>180.41</course>
  <speed>0.0</speed>
  <fix>3d</fix>
</trkpt>
<trkpt lat="33.810313" lon="-118.393867">
  <ele>-0.14</ele>
  <time>2026-09-02T22:07:34Z</time>
  <course>0.0</course>
  <speed>0.0</speed>
  <fix>3d</fix>
</trkpt>
<trkpt lat="33.810313" lon="-118.393867">
  <ele>0.0</ele>
  <time>2026-09-02T22:07:34Z</time>
  <course>180.76</course>
  <speed>0.0</speed>
  <fix>3d</fix>
</trkpt>
<trkpt lat="33.810313" lon="-118.393867">
  <ele>-0.14</ele>
  <time>2026-09-02T22:07:34Z</time>
  <course>0.0</course>
  <speed>0.0</speed>
  <fix>3d</fix>
</trkpt>
<trkpt lat="33.810313" lon="-118.393867">
  <ele>0.0</ele>
  <time>2026-09-02T22:07:34Z</time>
  <course>181.1</course>
  <speed>0.0</speed>
  <fix>3d</fix>
</trkpt>
<trkpt lat="33.810313" lon="-118.393867">
  <ele>-0.13</ele>
  <time>2026-09-02T22:07:34Z</time>
  <course>0.0</course>
  <speed>0.0</speed>
  <fix>3d</fix>
</trkpt>
<trkpt lat="33.810313" lon="-118.393867">
  <ele>0.0</ele>
  <time>2026-09-02T22:07:34Z</time>
  <course>181.43</course>
  <speed>0.0</speed>
  <fix>3d</fix>
</trkpt>
<trkpt lat="33.810313" lon="-118.393867">
  <ele>-0.13</ele>
  <time>2026-09-02T22:07:34Z</time>
  <course>0.0</course>
  <speed>0.0</speed>
  <fix>3d</fix>
</trkpt>
<trkpt lat="33.810313" lon="-118.393867">
  <ele>0.0</ele>
  <time>2026-09-02T22:07:34Z</time>
  <course>181.75</course>
  <speed>0.0</speed>
  <fix>3d</fix>
</trkpt>
<trkpt lat="33.810313" lon="-118.393867">
  <ele>-0.12</ele>
  <time>2026-09-02T22:07:34Z</time>
  <course>0.0</course>
  <speed>0.0</speed>
  <fix>3d</fix>
</trkpt>
<trkpt lat="33.810313" lon="-118.393867">
  <ele>0.0</ele>
  <time>2026-09-02T22:07:34Z</time>
  <course>182.05</course>
  <speed>0.0</speed>
  <fix>3d</fix>
</trkpt>
<trkpt lat="33.810313" lon="-118.393867">
  <ele>-0.12</ele>
  <time>2026-09-02T22:07:34Z</time>
  <course>0.0</course>
  <speed>0.0</speed>
  <fix>3d</fix>
</trkpt>
<trkpt lat="33.810313" lon="-118.393867">
  <ele>0.0</ele>
  <time>2026-09-02T22:07:34Z</time>
  <course>182.35</course>
  <speed>0.0</speed>
  <fix>3d</fix>
</trkpt>
<trkpt lat="33.810313" lon="-118.393867">
  <ele>-0.12</ele>
  <time>2026-09-02T22:07:34Z</time>
  <course>0.0</course>
  <speed>0.0</speed>
  <fix>3d</fix>
</trkpt>
<trkpt lat="33.810313" lon="-118.393867">
  <ele>0.0</ele>
  <time>2026-09-02T22:07:34Z</time>
  <course>182.63</course>
  <speed>0.0</speed>
  <fix>3d</fix>
</trkpt>
<trkpt lat="33.810313" lon="-118.393867">
  <ele>-0.12</ele>
  <time>2026-09-02T22:07:34Z</time>
  <course>0.0</course>
  <speed>0.0</speed>
  <fix>3d</fix>
</trkpt>
<trkpt lat="33.810313" lon="-118.393867">
  <ele>0.0</ele>
  <time>2026-09-02T22:07:34Z</time>
  <course>182.9</course>
  <speed>0.0</speed>
  <fix>3d</fix>
</trkpt>
<trkpt lat="33.810313" lon="-118.393867">
  <ele>-0.11</ele>
  <time>2026-09-02T22:07:34Z</time>
  <course>0.0</course>
  <speed>0.0</speed>
  <fix>3d</fix>
</trkpt>
<trkpt lat="33.810313" lon="-118.393867">
  <ele>0.0</ele>
  <time>2026-09-02T22:07:34Z</time>
  <course>183.16</course>
  <speed>0.0</speed>
  <fix>3d</fix>
</trkpt>
<trkpt lat="33.810313" lon="-118.393867">
  <ele>-0.11</ele>
  <time>2026-09-02T22:07:34Z</time>
  <course>0.0</course>
  <speed>0.0</speed>
  <fix>3d</fix>
</trkpt>
<trkpt lat="33.810313" lon="-118.393867">
  <ele>0.0</ele>
  <time>2026-09-02T22:07:34Z</time>
  <course>183.41</course>
  <speed>0.0</speed>
  <fix>3d</fix>
</trkpt>
<trkpt lat="33.810313" lon="-118.393867">
  <ele>-0.11</ele>
  <time>2026-09-02T22:07:34Z</time>
  <course>0.0</course>
  <speed>0.0</speed>
  <fix>3d</fix>
</trkpt>
<trkpt lat="33.810313" lon="-118.393867">
  <ele>0.0</ele>
  <time>2026-09-02T22:07:34Z</time>
  <course>183.65</course>
  <speed>0.0</speed>
  <fix>3d</fix>
</trkpt>
<trkpt lat="33.810313" lon="-118.393867">
  <ele>-0.11</ele>
  <time>2026-09-02T22:07:34Z</time>
  <course>0.0</course>
  <speed>0.0</speed>
  <fix>3d</fix>
</trkpt>
<trkpt lat="33.810313" lon="-118.393867">
  <ele>0.0</ele>
  <time>2026-09-02T22:07:34Z</time>
  <course>183.88</course>
  <speed>0.0</speed>
  <fix>3d</fix>
</trkpt>
<trkpt lat="33.810313" lon="-118.393867">
  <ele>-0.12</ele>
  <time>2026-09-02T22:07:34Z</time>
  <course>0.0</course>
  <speed>0.0</speed>
  <fix>3d</fix>
</trkpt>
<trkpt lat="33.810313" lon="-118.393867">
  <ele>0.0</ele>
  <time>2026-09-02T22:07:34Z</time>
  <course>184.11</course>
  <speed>0.0</speed>
  <fix>3d</fix>
</trkpt>
<trkpt lat="33.810313" lon="-118.393867">
  <ele>-0.12</ele>
  <time>2026-09-02T22:07:34Z</time>
  <course>0.0</course>
  <speed>0.0</speed>
  <fix>3d</fix>
</trkpt>
<trkpt lat="33.810313" lon="-118.393867">
  <ele>0.0</ele>
  <time>2026-09-02T22:07:34Z</time>
  <course>184.32</course>
  <speed>0.0</speed>
  <fix>3d</fix>
</trkpt>
<trkpt lat="33.810313" lon="-118.393867">
  <ele>-0.13</ele>
  <time>2026-09-02T22:07:34Z</time>
  <course>0.0</course>
  <speed>0.0</speed>
  <fix>3d</fix>
</trkpt>
<trkpt lat="33.810313" lon="-118.393867">
  <ele>0.0</ele>
  <time>2026-09-02T22:07:34Z</time>
  <course>184.52</course>
  <speed>0.0</speed>
  <fix>3d</fix>
</trkpt>
<trkpt lat="33.810313" lon="-118.393867">
  <ele>-0.13</ele>
  <time>2026-09-02T22:07:34Z</time>
  <course>0.0</course>
  <speed>0.0</speed>
  <fix>3d</fix>
</trkpt>
<trkpt lat="33.810313" lon="-118.393867">
  <ele>0.0</ele>
  <time>2026-09-02T22:07:34Z</time>
  <course>184.72</course>
  <speed>0.0</speed>
  <fix>3d</fix>
</trkpt>
<trkpt lat="33.810313" lon="-118.393867">
  <ele>-0.13</ele>
  <time>2026-09-02T22:07:34Z</time>
  <course>0.0</course>
  <speed>0.0</speed>
  <fix>3d</fix>
</trkpt>
<trkpt lat="33.810313" lon="-118.393867">
  <ele>0.0</ele>
  <time>2026-09-02T22:07:34Z</time>
  <course>184.91</course>
  <speed>0.0</speed>
  <fix>3d</fix>
</trkpt>
<trkpt lat="33.810313" lon="-118.393867">
  <ele>-0.13</ele>
  <time>2026-09-02T22:07:34Z</time>
  <course>0.0</course>
  <speed>0.0</speed>
  <fix>3d</fix>
</trkpt>
<trkpt lat="33.810313" lon="-118.393867">
  <ele>0.0</ele>
  <time>2026-09-02T22:07:34Z</time>
  <course>185.09</course>
  <speed>0.0</speed>
  <fix>3d</fix>
</trkpt>
<trkpt lat="33.810313" lon="-118.393867">
  <ele>-0.14</ele>
  <time>2026-09-02T22:07:34Z</time>
  <course>0.0</course>
  <speed>0.0</speed>
  <fix>3d</fix>
</trkpt>
<trkpt lat="33.810313" lon="-118.393867">
  <ele>0.0</ele>
  <time>2026-09-02T22:07:34Z</time>
  <course>185.26</course>
  <speed>0.0</speed>
  <fix>3d</fix>
</trkpt>
<trkpt lat="33.810313" lon="-118.393867">
  <ele>-0.14</ele>
  <time>2026-09-02T22:07:34Z</time>
  <course>0.0</course>
  <speed>0.0</speed>
  <fix>3d</fix>
</trkpt>
<trkpt lat="33.810313" lon="-118.393867">
  <ele>0.0</ele>
  <time>2026-09-02T22:07:34Z</time>
  <course>185.42</course>
  <speed>0.0</speed>
  <fix>3d</fix>
</trkpt>
<trkpt lat="33.810313" lon="-118.393867">
  <ele>-0.13</ele>
  <time>2026-09-02T22:07:34Z</time>
  <course>0.0</course>
  <speed>0.0</speed>
  <fix>3d</fix>
</trkpt>
<trkpt lat="33.810313" lon="-118.393867">
  <ele>0.0</ele>
  <time>2026-09-02T22:07:34Z</time>
  <course>185.58</course>
  <speed>0.0</speed>
  <fix>3d</fix>
</trkpt>
<trkpt lat="33.810313" lon="-118.393867">
  <ele>-0.13</ele>
  <time>2026-09-02T22:07:34Z</time>
  <course>0.0</course>
  <speed>0.0</speed>
  <fix>3d</fix>
</trkpt>
<trkpt lat="33.810313" lon="-118.393867">
  <ele>0.0</ele>
  <time>2026-09-02T22:07:34Z</time>
  <course>185.73</course>
  <speed>0.0</speed>
  <fix>3d</fix>
</trkpt>
<trkpt lat="33.810313" lon="-118.393867">
  <ele>-0.13</ele>
  <time>2026-09-02T22:07:34Z</time>
  <course>0.0</course>
  <speed>0.0</speed>
  <fix>3d</fix>
</trkpt>
<trkpt lat="33.810313" lon="-118.393867">
  <ele>0.0</ele>
  <time>2026-09-02T22:07:34Z</time>
  <course>185.87</course>
  <speed>0.0</speed>
  <fix>3d</fix>
</trkpt>
<trkpt lat="33.810313" lon="-118.393867">
  <ele>-0.13</ele>
  <time>2026-09-02T22:07:34Z</time>
  <course>0.0</course>
  <speed>0.0</speed>
  <fix>3d</fix>
</trkpt>
<trkpt lat="33.810313" lon="-118.393867">
  <ele>0.0</ele>
  <time>2026-09-02T22:07:34Z</time>
  <course>186.01</course>
  <speed>0.0</speed>
  <fix>3d</fix>
</trkpt>
<trkpt lat="33.810313" lon="-118.393867">
  <ele>-0.12</ele>
  <time>2026-09-02T22:07:34Z</time>
  <course>0.0</course>
  <speed>0.0</speed>
  <fix>3d</fix>
</trkpt>
<trkpt lat="33.810313" lon="-118.393867">
  <ele>0.0</ele>
  <time>2026-09-02T22:07:34Z</time>
  <course>186.14</course>
  <speed>0.0</speed>
  <fix>3d</fix>
</trkpt>
<trkpt lat="33.810313" lon="-118.393867">
  <ele>-0.12</ele>
  <time>2026-09-02T22:07:34Z</time>
  <course>0.0</course>
  <speed>0.0</speed>
  <fix>3d</fix>
</trkpt>
<trkpt lat="33.810313" lon="-118.393867">
  <ele>0.0</ele>
  <time>2026-09-02T22:07:34Z</time>
  <course>186.27</course>
  <speed>0.0</speed>
  <fix>3d</fix>
</trkpt>
<trkpt lat="33.810313" lon="-118.393867">
  <ele>-0.12</ele>
  <time>2026-09-02T22:07:34Z</time>
  <course>0.0</course>
  <speed>0.0</speed>
  <fix>3d</fix>
</trkpt>
<trkpt lat="33.810313" lon="-118.393867">
  <ele>0.0</ele>
  <time>2026-09-02T22:07:34Z</time>
  <course>186.39</course>
  <speed>0.0</speed>
  <fix>3d</fix>
</trkpt>
<trkpt lat="33.810313" lon="-118.393867">
  <ele>-0.12</ele>
  <time>2026-09-02T22:07:34Z</time>
  <course>0.0</course>
  <speed>0.0</speed>
  <fix>3d</fix>
</trkpt>
<trkpt lat="33.810313" lon="-118.393867">
  <ele>0.0</ele>
  <time>2026-09-02T22:07:34Z</time>
  <course>186.5</course>
  <speed>0.0</speed>
  <fix>3d</fix>
</trkpt>
<trkpt lat="33.810313" lon="-118.393867">
  <ele>-0.12</ele>
  <time>2026-09-02T22:07:34Z</time>
  <course>0.0</course>
  <speed>0.0</speed>
  <fix>3d</fix>
</trkpt>
<trkpt lat="33.810313" lon="-118.393867">
  <ele>0.0</ele>
  <time>2026-09-02T22:07:34Z</time>
  <course>186.61</course>
  <speed>0.0</speed>
  <fix>3d</fix>
</trkpt>
<trkpt lat="33.810313" lon="-118.393867">
  <ele>-0.12</ele>
  <time>2026-09-02T22:07:34Z</time>
  <course>0.0</course>
  <speed>0.0</speed>
  <fix>3d</fix>
</trkpt>
<trkpt lat="33.810313" lon="-118.393867">
  <ele>0.0</ele>
  <time>2026-09-02T22:07:34Z</time>
  <course>186.72</course>
  <speed>0.0</speed>
  <fix>3d</fix>
</trkpt>
<trkpt lat="33.810313" lon="-118.393867">
  <ele>-0.12</ele>
  <time>2026-09-02T22:07:34Z</time>
  <course>0.0</course>
  <speed>0.0</speed>
  <fix>3d</fix>
</trkpt>
<trkpt lat="33.810313" lon="-118.393867">
  <ele>0.0</ele>
  <time>2026-09-02T22:07:34Z</time>
  <course>186.82</course>
  <speed>0.0</speed>
  <fix>3d</fix>
</trkpt>
<trkpt lat="33.810313" lon="-118.393867">
  <ele>-0.12</ele>
  <time>2026-09-02T22:07:34Z</time>
  <course>0.0</course>
  <speed>0.0</speed>
  <fix>3d</fix>
</trkpt>
<trkpt lat="33.810313" lon="-118.393867">
  <ele>0.0</ele>
  <time>2026-09-02T22:07:34Z</time>
  <course>186.91</course>
  <speed>0.0</speed>
  <fix>3d</fix>
</trkpt>
<trkpt lat="33.810313" lon="-118.393867">
  <ele>-0.12</ele>
  <time>2026-09-02T22:07:34Z</time>
  <course>0.0</course>
  <speed>0.0</speed>
  <fix>3d</fix>
</trkpt>
<trkpt lat="33.810313" lon="-118.393867">
  <ele>0.0</ele>
  <time>2026-09-02T22:07:34Z</time>
  <course>187.0</course>
  <speed>0.0</speed>
  <fix>3d</fix>
</trkpt>
<trkpt lat="33.810313" lon="-118.393867">
  <ele>-0.12</ele>
  <time>2026-09-02T22:07:34Z</time>
  <course>0.0</course>
  <speed>0.0</speed>
  <fix>3d</fix>
</trkpt>
<trkpt lat="33.810313" lon="-118.393867">
  <ele>0.0</ele>
  <time>2026-09-02T22:07:34Z</time>
  <course>187.09</course>
  <speed>0.0</speed>
  <fix>3d</fix>
</trkpt>
<trkpt lat="33.810313" lon="-118.393867">
  <ele>-0.13</ele>
  <time>2026-09-02T22:07:34Z</time>
  <course>0.0</course>
  <speed>0.0</speed>
  <fix>3d</fix>
</trkpt>
<trkpt lat="33.810313" lon="-118.393867">
  <ele>0.0</ele>
  <time>2026-09-02T22:07:34Z</time>
  <course>187.17</course>
  <speed>0.0</speed>
  <fix>3d</fix>
</trkpt>
<trkpt lat="33.810313" lon="-118.393867">
  <ele>-0.13</ele>
  <time>2026-09-02T22:07:34Z</time>
  <course>0.0</course>
  <speed>0.0</speed>
  <fix>3d</fix>
</trkpt>
<trkpt lat="33.810313" lon="-118.393867">
  <ele>0.0</ele>
  <time>2026-09-02T22:07:34Z</time>
  <course>187.25</course>
  <speed>0.0</speed>
  <fix>3d</fix>
</trkpt>
<trkpt lat="33.810313" lon="-118.393867">
  <ele>-0.13</ele>
  <time>2026-09-02T22:07:34Z</time>
  <course>0.0</course>
  <speed>0.0</speed>
  <fix>3d</fix>
</trkpt>
<trkpt lat="33.810313" lon="-118.393867">
  <ele>0.0</ele>
  <time>2026-09-02T22:07:34Z</time>
  <course>187.33</course>
  <speed>0.0</speed>
  <fix>3d</fix>
</trkpt>
<trkpt lat="33.810313" lon="-118.393867">
  <ele>-0.13</ele>
  <time>2026-09-02T22:07:34Z</time>
  <course>0.0</course>
  <speed>0.0</speed>
  <fix>3d</fix>
</trkpt>
<trkpt lat="33.810313" lon="-118.393867">
  <ele>0.0</ele>
  <time>2026-09-02T22:07:34Z</time>
  <course>187.4</course>
  <speed>0.0</speed>
  <fix>3d</fix>
</trkpt>
<trkpt lat="33.810313" lon="-118.393867">
  <ele>-0.13</ele>
  <time>2026-09-02T22:07:34Z</time>
  <course>0.0</course>
  <speed>0.0</speed>
  <fix>3d</fix>
</trkpt>
<trkpt lat="33.810313" lon="-118.393867">
  <ele>0.0</ele>
  <time>2026-09-02T22:07:34Z</time>
  <course>187.47</course>
  <speed>0.0</speed>
  <fix>3d</fix>
</trkpt>
<trkpt lat="33.810313" lon="-118.393867">
  <ele>-0.13</ele>
  <time>2026-09-02T22:07:34Z</time>
  <course>0.0</course>
  <speed>0.0</speed>
  <fix>3d</fix>
</trkpt>
<trkpt lat="33.810313" lon="-118.393867">
  <ele>0.0</ele>
  <time>2026-09-02T22:07:34Z</time>
  <course>187.53</course>
  <speed>0.0</speed>
  <fix>3d</fix>
</trkpt>
<trkpt lat="33.810313" lon="-118.393867">
  <ele>-0.13</ele>
  <time>2026-09-02T22:07:34Z</time>
  <course>0.0</course>
  <speed>0.0</speed>
  <fix>3d</fix>
</trkpt>
<trkpt lat="33.810313" lon="-118.393867">
  <ele>0.0</ele>
  <time>2026-09-02T22:07:34Z</time>
  <course>187.59</course>
  <speed>0.0</speed>
  <fix>3d</fix>
</trkpt>
<trkpt lat="33.810313" lon="-118.393867">
  <ele>-0.13</ele>
  <time>2026-09-02T22:07:34Z</time>
  <course>0.0</course>
  <speed>0.0</speed>
  <fix>3d</fix>
</trkpt>
<trkpt lat="33.810313" lon="-118.393867">
  <ele>0.0</ele>
  <time>2026-09-02T22:07:34Z</time>
  <course>187.65</course>
  <speed>0.0</speed>
  <fix>3d</fix>
</trkpt>
<trkpt lat="33.810313" lon="-118.393867">
  <ele>-0.12</ele>
  <time>2026-09-02T22:07:34Z</time>
  <course>0.0</course>
  <speed>0.0</speed>
  <fix>3d</fix>
</trkpt>
<trkpt lat="33.810313" lon="-118.393867">
  <ele>0.0</ele>
  <time>2026-09-02T22:07:34Z</time>
  <course>187.71</course>
  <speed>0.0</speed>
  <fix>3d</fix>
</trkpt>
<trkpt lat="33.810313" lon="-118.393867">
  <ele>-0.12</ele>
  <time>2026-09-02T22:07:34Z</time>
  <course>0.0</course>
  <speed>0.0</speed>
  <fix>3d</fix>
</trkpt>
<trkpt lat="33.810313" lon="-118.393867">
  <ele>0.0</ele>
  <time>2026-09-02T22:07:34Z</time>
  <course>187.76</course>
  <speed>0.0</speed>
  <fix>3d</fix>
</trkpt>
<trkpt lat="33.810313" lon="-118.393867">
  <ele>-0.12</ele>
  <time>2026-09-02T22:07:34Z</time>
  <course>0.0</course>
  <speed>0.0</speed>
  <fix>3d</fix>
</trkpt>
<trkpt lat="33.810313" lon="-118.393867">
  <ele>0.0</ele>
  <time>2026-09-02T22:07:34Z</time>
  <course>187.81</course>
  <speed>0.0</speed>
  <fix>3d</fix>
</trkpt>
<trkpt lat="33.810313" lon="-118.393867">
  <ele>-0.12</ele>
  <time>2026-09-02T22:07:34Z</time>
  <course>0.0</course>
  <speed>0.0</speed>
  <fix>3d</fix>
</trkpt>
<trkpt lat="33.810313" lon="-118.393867">
  <ele>0.0</ele>
  <time>2026-09-02T22:07:34Z</time>
  <course>187.86</course>
  <speed>0.0</speed>
  <fix>3d</fix>
</trkpt>
<trkpt lat="33.810313" lon="-118.393867">
  <ele>-0.12</ele>
  <time>2026-09-02T22:07:34Z</time>
  <course>0.0</course>
  <speed>0.0</speed>
  <fix>3d</fix>
</trkpt>
<trkpt lat="33.810313" lon="-118.393867">
  <ele>0.0</ele>
  <time>2026-09-02T22:07:34Z</time>
  <course>187.91</course>
  <speed>0.0</speed>
  <fix>3d</fix>
</trkpt>
<trkpt lat="33.810313" lon="-118.393867">
  <ele>-0.12</ele>
  <time>2026-09-02T22:07:34Z</time>
  <course>0.0</course>
  <speed>0.0</speed>
  <fix>3d</fix>
</trkpt>
<trkpt lat="33.810313" lon="-118.393867">
  <ele>0.0</ele>
  <time>2026-09-02T22:07:34Z</time>
  <course>187.95</course>
  <speed>0.0</speed>
  <fix>3d</fix>
</trkpt>
<trkpt lat="33.810313" lon="-118.393867">
  <ele>-0.12</ele>
  <time>2026-09-02T22:07:34Z</time>
  <course>0.0</course>
  <speed>0.0</speed>
  <fix>3d</fix>
</trkpt>
<trkpt lat="33.810313" lon="-118.393867">
  <ele>0.0</ele>
  <time>2026-09-02T22:07:34Z</time>
  <course>187.99</course>
  <speed>0.0</speed>
  <fix>3d</fix>
</trkpt>
<trkpt lat="33.810313" lon="-118.393867">
  <ele>-0.12</ele>
  <time>2026-09-02T22:07:34Z</time>
  <course>0.0</course>
  <speed>0.0</speed>
  <fix>3d</fix>
</trkpt>
<trkpt lat="33.810313" lon="-118.393867">
  <ele>0.0</ele>
  <time>2026-09-02T22:07:34Z</time>
  <course>188.03</course>
  <speed>0.0</speed>
  <fix>3d</fix>
</trkpt>
<trkpt lat="33.810313" lon="-118.393867">
  <ele>-0.12</ele>
  <time>2026-09-02T22:07:34Z</time>
  <course>0.0</course>
  <speed>0.0</speed>
  <fix>3d</fix>
</trkpt>
<trkpt lat="33.810313" lon="-118.393867">
  <ele>0.0</ele>
  <time>2026-09-02T22:07:34Z</time>
  <course>188.07</course>
  <speed>0.0</speed>
  <fix>3d</fix>
</trkpt>
<trkpt lat="33.810313" lon="-118.393867">
  <ele>-0.12</ele>
  <time>2026-09-02T22:07:34Z</time>
  <course>0.0</course>
  <speed>0.0</speed>
  <fix>3d</fix>
</trkpt>
<trkpt lat="33.810313" lon="-118.393867">
  <ele>0.0</ele>
  <time>2026-09-02T22:07:34Z</time>
  <course>188.1</course>
  <speed>0.0</speed>
  <fix>3d</fix>
</trkpt>
<trkpt lat="33.810313" lon="-118.393867">
  <ele>-0.13</ele>
  <time>2026-09-02T22:07:34Z</time>
  <course>0.0</course>
  <speed>0.0</speed>
  <fix>3d</fix>
</trkpt>
<trkpt lat="33.810313" lon="-118.393867">
  <ele>0.0</ele>
  <time>2026-09-02T22:07:34Z</time>
  <course>188.13</course>
  <speed>0.0</speed>
  <fix>3d</fix>
</trkpt>
<trkpt lat="33.810313" lon="-118.393867">
  <ele>-0.13</ele>
  <time>2026-09-02T22:07:34Z</time>
  <course>0.0</course>
  <speed>0.0</speed>
  <fix>3d</fix>
</trkpt>
<trkpt lat="33.810313" lon="-118.393867">
  <ele>0.0</ele>
  <time>2026-09-02T22:07:34Z</time>
  <course>188.17</course>
  <speed>0.0</speed>
  <fix>3d</fix>
</trkpt>
<trkpt lat="33.810313" lon="-118.393867">
  <ele>-0.13</ele>
  <time>2026-09-02T22:07:34Z</time>
  <course>0.0</course>
  <speed>0.0</speed>
  <fix>3d</fix>
</trkpt>
<trkpt lat="33.810313" lon="-118.393867">
  <ele>0.0</ele>
  <time>2026-09-02T22:07:34Z</time>
  <course>188.19</course>
  <speed>0.0</speed>
  <fix>3d</fix>
</trkpt>
<trkpt lat="33.810313" lon="-118.393867">
  <ele>-0.13</ele>
  <time>2026-09-02T22:07:34Z</time>
  <course>0.0</course>
  <speed>0.0</speed>
  <fix>3d</fix>
</trkpt>
<trkpt lat="33.810313" lon="-118.393867">
  <ele>0.0</ele>
  <time>2026-09-02T22:07:34Z</time>
  <course>188.22</course>
  <speed>0.0</speed>
  <fix>3d</fix>
</trkpt>
<trkpt lat="33.810313" lon="-118.393867">
  <ele>-0.13</ele>
  <time>2026-09-02T22:07:34Z</time>
  <course>0.0</course>
  <speed>0.0</speed>
  <fix>3d</fix>
</trkpt>
<trkpt lat="33.810313" lon="-118.393867">
  <ele>0.0</ele>
  <time>2026-09-02T22:07:34Z</time>
  <course>188.25</course>
  <speed>0.0</speed>
  <fix>3d</fix>
</trkpt>
<trkpt lat="33.810313" lon="-118.393867">
  <ele>-0.13</ele>
  <time>2026-09-02T22:07:34Z</time>
  <course>0.0</course>
  <speed>0.0</speed>
  <fix>3d</fix>
</trkpt>
<trkpt lat="33.810313" lon="-118.393867">
  <ele>0.0</ele>
  <time>2026-09-02T22:07:34Z</time>
  <course>188.27</course>
  <speed>0.0</speed>
  <fix>3d</fix>
</trkpt>
<trkpt lat="33.810313" lon="-118.393867">
  <ele>-0.12</ele>
  <time>2026-09-02T22:07:34Z</time>
  <course>0.0</course>
  <speed>0.0</speed>
  <fix>3d</fix>
</trkpt>
<trkpt lat="33.810313" lon="-118.393867">
  <ele>0.0</ele>
  <time>2026-09-02T22:07:34Z</time>
  <course>188.3</course>
  <speed>0.0</speed>
  <fix>3d</fix>
</trkpt>
<trkpt lat="33.810313" lon="-118.393867">
  <ele>-0.12</ele>
  <time>2026-09-02T22:07:34Z</time>
  <course>0.0</course>
  <speed>0.0</speed>
  <fix>3d</fix>
</trkpt>
<trkpt lat="33.810313" lon="-118.393867">
  <ele>0.0</ele>
  <time>2026-09-02T22:07:34Z</time>
  <course>188.32</course>
  <speed>0.0</speed>
  <fix>3d</fix>
</trkpt>
<trkpt lat="33.810313" lon="-118.393867">
  <ele>-0.12</ele>
  <time>2026-09-02T22:07:34Z</time>
  <course>0.0</course>
  <speed>0.0</speed>
  <fix>3d</fix>
</trkpt>
<trkpt lat="33.810313" lon="-118.393867">
  <ele>0.0</ele>
  <time>2026-09-02T22:07:34Z</time>
  <course>188.34</course>
  <speed>0.0</speed>
  <fix>3d</fix>
</trkpt>
<trkpt lat="33.810313" lon="-118.393867">
  <ele>-0.12</ele>
  <time>2026-09-02T22:07:34Z</time>
  <course>0.0</course>
  <speed>0.0</speed>
  <fix>3d</fix>
</trkpt>
<trkpt lat="33.810313" lon="-118.393867">
  <ele>0.0</ele>
  <time>2026-09-02T22:07:34Z</time>
  <course>188.36</course>
  <speed>0.0</speed>
  <fix>3d</fix>
</trkpt>
<trkpt lat="33.810313" lon="-118.393867">
  <ele>-0.12</ele>
  <time>2026-09-02T22:07:34Z</time>
  <course>0.0</course>
  <speed>0.0</speed>
  <fix>3d</fix>
</trkpt>
<trkpt lat="33.810313" lon="-118.393867">
  <ele>0.0</ele>
  <time>2026-09-02T22:07:34Z</time>
  <course>188.38</course>
  <speed>0.0</speed>
  <fix>3d</fix>
</trkpt>
<trkpt lat="33.810313" lon="-118.393867">
  <ele>-0.12</ele>
  <time>2026-09-02T22:07:34Z</time>
  <course>0.0</course>
  <speed>0.0</speed>
  <fix>3d</fix>
</trkpt>
<trkpt lat="33.810313" lon="-118.393867">
  <ele>0.0</ele>
  <time>2026-09-02T22:07:34Z</time>
  <course>188.39</course>
  <speed>0.0</speed>
  <fix>3d</fix>
</trkpt>
<trkpt lat="33.810313" lon="-118.393867">
  <ele>-0.12</ele>
  <time>2026-09-02T22:07:34Z</time>
  <course>0.0</course>
  <speed>0.0</speed>
  <fix>3d</fix>
</trkpt>
<trkpt lat="33.810313" lon="-118.393867">
  <ele>0.0</ele>
  <time>2026-09-02T22:07:34Z</time>
  <course>188.41</course>
  <speed>0.0</speed>
  <fix>3d</fix>
</trkpt>
<trkpt lat="33.810313" lon="-118.393867">
  <ele>-0.12</ele>
  <time>2026-09-02T22:07:34Z</time>
  <course>0.0</course>
  <speed>0.0</speed>
  <fix>3d</fix>
</trkpt>
<trkpt lat="33.810313" lon="-118.393867">
  <ele>0.0</ele>
  <time>2026-09-02T22:07:34Z</time>
  <course>188.43</course>
  <speed>0.0</speed>
  <fix>3d</fix>
</trkpt>
<trkpt lat="33.810313" lon="-118.393867">
  <ele>-0.12</ele>
  <time>2026-09-02T22:07:34Z</time>
  <course>0.0</course>
  <speed>0.0</speed>
  <fix>3d</fix>
</trkpt>
<trkpt lat="33.810313" lon="-118.393867">
  <ele>0.0</ele>
  <time>2026-09-02T22:07:34Z</time>
  <course>188.44</course>
  <speed>0.0</speed>
  <fix>3d</fix>
</trkpt>
<trkpt lat="33.810313" lon="-118.393867">
  <ele>-0.12</ele>
  <time>2026-09-02T22:07:34Z</time>
  <course>0.0</course>
  <speed>0.0</speed>
  <fix>3d</fix>
</trkpt>
<trkpt lat="33.810313" lon="-118.393867">
  <ele>0.0</ele>
  <time>2026-09-02T22:07:34Z</time>
  <course>188.45</course>
  <speed>0.0</speed>
  <fix>3d</fix>
</trkpt>
<trkpt lat="33.810313" lon="-118.393867">
  <ele>-0.13</ele>
  <time>2026-09-02T22:07:34Z</time>
  <course>0.0</course>
  <speed>0.0</speed>
  <fix>3d</fix>
</trkpt>
<trkpt lat="33.810313" lon="-118.393867">
  <ele>0.0</ele>
  <time>2026-09-02T22:07:34Z</time>
  <course>188.46</course>
  <speed>0.0</speed>
  <fix>3d</fix>
</trkpt>
<trkpt lat="33.810313" lon="-118.393867">
  <ele>-0.13</ele>
  <time>2026-09-02T22:07:34Z</time>
  <course>0.0</course>
  <speed>0.0</speed>
  <fix>3d</fix>
</trkpt>
<trkpt lat="33.810313" lon="-118.393867">
  <ele>0.0</ele>
  <time>2026-09-02T22:07:34Z</time>
  <course>188.48</course>
  <speed>0.0</speed>
  <fix>3d</fix>
</trkpt>
<trkpt lat="33.810313" lon="-118.393867">
  <ele>-0.13</ele>
  <time>2026-09-02T22:07:34Z</time>
  <course>0.0</course>
  <speed>0.0</speed>
  <fix>3d</fix>
</trkpt>
<trkpt lat="33.810313" lon="-118.393867">
  <ele>0.0</ele>
  <time>2026-09-02T22:07:34Z</time>
  <course>188.49</course>
  <speed>0.0</speed>
  <fix>3d</fix>
</trkpt>
<trkpt lat="33.810313" lon="-118.393867">
  <ele>-0.13</ele>
  <time>2026-09-02T22:07:34Z</time>
  <course>0.0</course>
  <speed>0.0</speed>
  <fix>3d</fix>
</trkpt>
<trkpt lat="33.810313" lon="-118.393867">
  <ele>0.0</ele>
  <time>2026-09-02T22:07:34Z</time>
  <course>188.49</course>
  <speed>0.0</speed>
  <fix>3d</fix>
</trkpt>
<trkpt lat="33.810313" lon="-118.393867">
  <ele>-0.13</ele>
  <time>2026-09-02T22:07:34Z</time>
  <course>0.0</course>
  <speed>0.0</speed>
  <fix>3d</fix>
</trkpt>
<trkpt lat="33.810313" lon="-118.393867">
  <ele>0.0</ele>
  <time>2026-09-02T22:07:34Z</time>
  <course>188.5</course>
  <speed>0.0</speed>
  <fix>3d</fix>
</trkpt>
<trkpt lat="33.810313" lon="-118.393867">
  <ele>-0.13</ele>
  <time>2026-09-02T22:07:34Z</time>
  <course>0.0</course>
  <speed>0.0</speed>
  <fix>3d</fix>
</trkpt>
<trkpt lat="33.810313" lon="-118.393867">
  <ele>0.0</ele>
  <time>2026-09-02T22:07:34Z</time>
  <course>188.51</course>
  <speed>0.0</speed>
  <fix>3d</fix>
</trkpt>
<trkpt lat="33.810313" lon="-118.393867">
  <ele>-0.12</ele>
  <time>2026-09-02T22:07:34Z</time>
  <course>0.0</course>
  <speed>0.0</speed>
  <fix>3d</fix>
</trkpt>
<trkpt lat="33.810313" lon="-118.393867">
  <ele>0.0</ele>
  <time>2026-09-02T22:07:34Z</time>
  <course>188.52</course>
  <speed>0.0</speed>
  <fix>3d</fix>
</trkpt>
<trkpt lat="33.810313" lon="-118.393867">
  <ele>-0.12</ele>
  <time>2026-09-02T22:07:34Z</time>
  <course>0.0</course>
  <speed>0.0</speed>
  <fix>3d</fix>
</trkpt>
<trkpt lat="33.810313" lon="-118.393867">
  <ele>0.0</ele>
  <time>2026-09-02T22:07:34Z</time>
  <course>188.53</course>
  <speed>0.0</speed>
  <fix>3d</fix>
</trkpt>
<trkpt lat="33.810313" lon="-118.393867">
  <ele>-0.12</ele>
  <time>2026-09-02T22:07:34Z</time>
  <course>0.0</course>
  <speed>0.0</speed>
  <fix>3d</fix>
</trkpt>
<trkpt lat="33.810313" lon="-118.393867">
  <ele>0.0</ele>
  <time>2026-09-02T22:07:34Z</time>
  <course>188.53</course>
  <speed>0.0</speed>
  <fix>3d</fix>
</trkpt>
<trkpt lat="33.810313" lon="-118.393867">
  <ele>-0.12</ele>
  <time>2026-09-02T22:07:34Z</time>
  <course>0.0</course>
  <speed>0.0</speed>
  <fix>3d</fix>
</trkpt>
<trkpt lat="33.810313" lon="-118.393867">
  <ele>0.0</ele>
  <time>2026-09-02T22:07:34Z</time>
  <course>188.54</course>
  <speed>0.0</speed>
  <fix>3d</fix>
</trkpt>
<trkpt lat="33.810313" lon="-118.393867">
  <ele>-0.12</ele>
  <time>2026-09-02T22:07:34Z</time>
  <course>0.0</course>
  <speed>0.0</speed>
  <fix>3d</fix>
</trkpt>
<trkpt lat="33.810313" lon="-118.393867">
  <ele>0.0</ele>
  <time>2026-09-02T22:07:34Z</time>
  <course>188.54</course>
  <speed>0.0</speed>
  <fix>3d</fix>
</trkpt>
<trkpt lat="33.810313" lon="-118.393867">
  <ele>-0.12</ele>
  <time>2026-09-02T22:07:34Z</time>
  <course>0.0</course>
  <speed>0.0</speed>
  <fix>3d</fix>
</trkpt>
<trkpt lat="33.810313" lon="-118.393867">
  <ele>0.0</ele>
  <time>2026-09-02T22:07:34Z</time>
  <course>188.54</course>
  <speed>0.0</speed>
  <fix>3d</fix>
</trkpt>
<trkpt lat="33.810313" lon="-118.393867">
  <ele>-0.12</ele>
  <time>2026-09-02T22:07:34Z</time>
  <course>0.0</course>
  <speed>0.0</speed>
  <fix>3d</fix>
</trkpt>
<trkpt lat="33.810313" lon="-118.393867">
  <ele>0.0</ele>
  <time>2026-09-02T22:07:34Z</time>
  <course>188.55</course>
  <speed>0.0</speed>
  <fix>3d</fix>
</trkpt>
<trkpt lat="33.810313" lon="-118.393867">
  <ele>-0.12</ele>
  <time>2026-09-02T22:07:34Z</time>
  <course>0.0</course>
  <speed>0.0</speed>
  <fix>3d</fix>
</trkpt>
<trkpt lat="33.810313" lon="-118.393867">
  <ele>0.0</ele>
  <time>2026-09-02T22:07:34Z</time>
  <course>188.55</course>
  <speed>0.0</speed>
  <fix>3d</fix>
</trkpt>
<trkpt lat="33.810313" lon="-118.393867">
  <ele>-0.12</ele>
  <time>2026-09-02T22:07:34Z</time>
  <course>0.0</course>
  <speed>0.0</speed>
  <fix>3d</fix>
</trkpt>
<trkpt lat="33.810313" lon="-118.393867">
  <ele>0.0</ele>
  <time>2026-09-02T22:07:34Z</time>
  <course>188.55</course>
  <speed>0.0</speed>
  <fix>3d</fix>
</trkpt>
<trkpt lat="33.810313" lon="-118.393867">
  <ele>-0.12</ele>
  <time>2026-09-02T22:07:34Z</time>
  <course>0.0</course>
  <speed>0.0</speed>
  <fix>3d</fix>
</trkpt>
<trkpt lat="33.810313" lon="-118.393867">
  <ele>-0.126</ele>
  <time>2026-09-02T22:07:34Z</time>
  <course>188.55</course>
  <speed>0.0</speed>
  <fix>3d</fix>
</trkpt>
<trkpt lat="33.810313" lon="-118.393867">
  <ele>-0.13</ele>
  <time>2026-09-02T22:07:34Z</time>
  <course>0.0</course>
  <speed>0.0</speed>
  <fix>3d</fix>
</trkpt>
<trkpt lat="33.810313" lon="-118.393867">
  <ele>-0.126</ele>
  <time>2026-09-02T22:07:34Z</time>
  <course>188.56</course>
  <speed>0.0</speed>
  <fix>3d</fix>
</trkpt>
<trkpt lat="33.810313" lon="-118.393867">
  <ele>-0.13</ele>
  <time>2026-09-02T22:07:34Z</time>
  <course>0.0</course>
  <speed>0.0</speed>
  <fix>3d</fix>
</trkpt>
<trkpt lat="33.810313" lon="-118.393867">
  <ele>-0.124</ele>
  <time>2026-09-02T22:07:34Z</time>
  <course>188.56</course>
  <speed>0.0</speed>
  <fix>3d</fix>
</trkpt>
<trkpt lat="33.810313" lon="-118.393867">
  <ele>-0.13</ele>
  <time>2026-09-02T22:07:34Z</time>
  <course>0.0</course>
  <speed>0.0</speed>
  <fix>3d</fix>
</trkpt>
<trkpt lat="33.810313" lon="-118.393867">
  <ele>-0.123</ele>
  <time>2026-09-02T22:07:34Z</time>
  <course>188.56</course>
  <speed>0.0</speed>
  <fix>3d</fix>
</trkpt>
<trkpt lat="33.810313" lon="-118.393867">
  <ele>-0.13</ele>
  <time>2026-09-02T22:07:34Z</time>
  <course>0.0</course>
  <speed>0.0</speed>
  <fix>3d</fix>
</trkpt>
<trkpt lat="33.810313" lon="-118.393867">
  <ele>-0.121</ele>
  <time>2026-09-02T22:07:34Z</time>
  <course>188.56</course>
  <speed>0.0</speed>
  <fix>3d</fix>
</trkpt>
<trkpt lat="33.810313" lon="-118.393867">
  <ele>-0.12</ele>
  <time>2026-09-02T22:07:34Z</time>
  <course>0.0</course>
  <speed>0.0</speed>
  <fix>3d</fix>
</trkpt>
<trkpt lat="33.810313" lon="-118.393867">
  <ele>-0.12</ele>
  <time>2026-09-02T22:07:34Z</time>
  <course>188.56</course>
  <speed>0.0</speed>
  <fix>3d</fix>
</trkpt>
<trkpt lat="33.810313" lon="-118.393867">
  <ele>-0.12</ele>
  <time>2026-09-02T22:07:34Z</time>
  <course>0.0</course>
  <speed>0.0</speed>
  <fix>3d</fix>
</trkpt>
<trkpt lat="33.810313" lon="-118.393867">
  <ele>-0.119</ele>
  <time>2026-09-02T22:07:34Z</time>
  <course>188.56</course>
  <speed>0.0</speed>
  <fix>3d</fix>
</trkpt>
<trkpt lat="33.810313" lon="-118.393867">
  <ele>-0.12</ele>
  <time>2026-09-02T22:07:34Z</time>
  <course>0.0</course>
  <speed>0.0</speed>
  <fix>3d</fix>
</trkpt>
<trkpt lat="33.810313" lon="-118.393867">
  <ele>-0.12</ele>
  <time>2026-09-02T22:07:34Z</time>
  <course>188.56</course>
  <speed>0.0</speed>
  <fix>3d</fix>
</trkpt>
<trkpt lat="33.810313" lon="-118.393867">
  <ele>-0.12</ele>
  <time>2026-09-02T22:07:34Z</time>
  <course>0.0</course>
  <speed>0.0</speed>
  <fix>3d</fix>
</trkpt>
<trkpt lat="33.810313" lon="-118.393867">
  <ele>-0.124</ele>
  <time>2026-09-02T22:07:34Z</time>
  <course>188.55</course>
  <speed>0.0</speed>
  <fix>3d</fix>
</trkpt>
<trkpt lat="33.810313" lon="-118.393867">
  <ele>-0.12</ele>
  <time>2026-09-02T22:07:34Z</time>
  <course>0.0</course>
  <speed>0.0</speed>
  <fix>3d</fix>
</trkpt>
<trkpt lat="33.810313" lon="-118.393867">
  <ele>-0.127</ele>
  <time>2026-09-02T22:07:34Z</time>
  <course>188.55</course>
  <speed>0.0</speed>
  <fix>3d</fix>
</trkpt>
<trkpt lat="33.810313" lon="-118.393867">
  <ele>-0.12</ele>
  <time>2026-09-02T22:07:34Z</time>
  <course>0.0</course>
  <speed>0.0</speed>
  <fix>3d</fix>
</trkpt>
<trkpt lat="33.810313" lon="-118.393867">
  <ele>-0.13</ele>
  <time>2026-09-02T22:07:34Z</time>
  <course>188.55</course>
  <speed>0.0</speed>
  <fix>3d</fix>
</trkpt>
<trkpt lat="33.810313" lon="-118.393867">
  <ele>-0.12</ele>
  <time>2026-09-02T22:07:34Z</time>
  <course>0.0</course>
  <speed>0.0</speed>
  <fix>3d</fix>
</trkpt>
<trkpt lat="33.810313" lon="-118.393867">
  <ele>-0.132</ele>
  <time>2026-09-02T22:07:34Z</time>
  <course>188.55</course>
  <speed>0.0</speed>
  <fix>3d</fix>
</trkpt>
<trkpt lat="33.810313" lon="-118.393867">
  <ele>-0.12</ele>
  <time>2026-09-02T22:07:34Z</time>
  <course>0.0</course>
  <speed>0.0</speed>
  <fix>3d</fix>
</trkpt>
<trkpt lat="33.810313" lon="-118.393867">
  <ele>-0.132</ele>
  <time>2026-09-02T22:07:34Z</time>
  <course>188.55</course>
  <speed>0.0</speed>
  <fix>3d</fix>
</trkpt>
<trkpt lat="33.810313" lon="-118.393867">
  <ele>-0.12</ele>
  <time>2026-09-02T22:07:34Z</time>
  <course>0.0</course>
  <speed>0.0</speed>
  <fix>3d</fix>
</trkpt>
<trkpt lat="33.810313" lon="-118.393867">
  <ele>-0.132</ele>
  <time>2026-09-02T22:07:34Z</time>
  <course>188.55</course>
  <speed>0.0</speed>
  <fix>3d</fix>
</trkpt>
<trkpt lat="33.810313" lon="-118.393867">
  <ele>-0.12</ele>
  <time>2026-09-02T22:07:34Z</time>
  <course>0.0</course>
  <speed>0.0</speed>
  <fix>3d</fix>
</trkpt>
<trkpt lat="33.810313" lon="-118.393867">
  <ele>-0.132</ele>
  <time>2026-09-02T22:07:34Z</time>
  <course>188.55</course>
  <speed>0.0</speed>
  <fix>3d</fix>
</trkpt>
<trkpt lat="33.810313" lon="-118.393867">
  <ele>-0.12</ele>
  <time>2026-09-02T22:07:34Z</time>
  <course>0.0</course>
  <speed>0.0</speed>
  <fix>3d</fix>
</trkpt>
<trkpt lat="33.810313" lon="-118.393867">
  <ele>-0.131</ele>
  <time>2026-09-02T22:07:34Z</time>
  <course>188.55</course>
  <speed>0.0</speed>
  <fix>3d</fix>
</trkpt>
<trkpt lat="33.810313" lon="-118.393867">
  <ele>-0.12</ele>
  <time>2026-09-02T22:07:34Z</time>
  <course>0.0</course>
  <speed>0.0</speed>
  <fix>3d</fix>
</trkpt>
<trkpt lat="33.810313" lon="-118.393867">
  <ele>-0.129</ele>
  <time>2026-09-02T22:07:34Z</time>
  <course>188.54</course>
  <speed>0.0</speed>
  <fix>3d</fix>
</trkpt>
<trkpt lat="33.810313" lon="-118.393867">
  <ele>-0.13</ele>
  <time>2026-09-02T22:07:34Z</time>
  <course>0.0</course>
  <speed>0.0</speed>
  <fix>3d</fix>
</trkpt>
<trkpt lat="33.810313" lon="-118.393867">
  <ele>-0.128</ele>
  <time>2026-09-02T22:07:34Z</time>
  <course>188.54</course>
  <speed>0.0</speed>
  <fix>3d</fix>
</trkpt>
<trkpt lat="33.810313" lon="-118.393867">
  <ele>-0.13</ele>
  <time>2026-09-02T22:07:34Z</time>
  <course>0.0</course>
  <speed>0.0</speed>
  <fix>3d</fix>
</trkpt>
<trkpt lat="33.810313" lon="-118.393867">
  <ele>-0.125</ele>
  <time>2026-09-02T22:07:34Z</time>
  <course>188.53</course>
  <speed>0.0</speed>
  <fix>3d</fix>
</trkpt>
<trkpt lat="33.810313" lon="-118.393867">
  <ele>-0.12</ele>
  <time>2026-09-02T22:07:34Z</time>
  <course>0.0</course>
  <speed>0.0</speed>
  <fix>3d</fix>
</trkpt>
<trkpt lat="33.810313" lon="-118.393867">
  <ele>-0.123</ele>
  <time>2026-09-02T22:07:34Z</time>
  <course>188.53</course>
  <speed>0.0</speed>
  <fix>3d</fix>
</trkpt>
<trkpt lat="33.810313" lon="-118.393867">
  <ele>-0.12</ele>
  <time>2026-09-02T22:07:34Z</time>
  <course>0.0</course>
  <speed>0.0</speed>
  <fix>3d</fix>
</trkpt>
<trkpt lat="33.810313" lon="-118.393867">
  <ele>-0.121</ele>
  <time>2026-09-02T22:07:34Z</time>
  <course>188.52</course>
  <speed>0.0</speed>
  <fix>3d</fix>
</trkpt>
<trkpt lat="33.810313" lon="-118.393867">
  <ele>-0.12</ele>
  <time>2026-09-02T22:07:34Z</time>
  <course>0.0</course>
  <speed>0.0</speed>
  <fix>3d</fix>
</trkpt>
<trkpt lat="33.810313" lon="-118.393867">
  <ele>-0.121</ele>
  <time>2026-09-02T22:07:34Z</time>
  <course>188.52</course>
  <speed>0.0</speed>
  <fix>3d</fix>
</trkpt>
<trkpt lat="33.810313" lon="-118.393867">
  <ele>-0.12</ele>
  <time>2026-09-02T22:07:34Z</time>
  <course>0.0</course>
  <speed>0.0</speed>
  <fix>3d</fix>
</trkpt>
<trkpt lat="33.810313" lon="-118.393867">
  <ele>-0.122</ele>
  <time>2026-09-02T22:07:34Z</time>
  <course>188.51</course>
  <speed>0.0</speed>
  <fix>3d</fix>
</trkpt>
<trkpt lat="33.810313" lon="-118.393867">
  <ele>-0.12</ele>
  <time>2026-09-02T22:07:34Z</time>
  <course>0.0</course>
  <speed>0.0</speed>
  <fix>3d</fix>
</trkpt>
<trkpt lat="33.810313" lon="-118.393867">
  <ele>-0.123</ele>
  <time>2026-09-02T22:07:34Z</time>
  <course>188.51</course>
  <speed>0.0</speed>
  <fix>3d</fix>
</trkpt>
<trkpt lat="33.810313" lon="-118.393867">
  <ele>-0.12</ele>
  <time>2026-09-02T22:07:34Z</time>
  <course>0.0</course>
  <speed>0.0</speed>
  <fix>3d</fix>
</trkpt>
<trkpt lat="33.810313" lon="-118.393867">
  <ele>-0.126</ele>
  <time>2026-09-02T22:07:34Z</time>
  <course>188.5</course>
  <speed>0.0</speed>
  <fix>3d</fix>
</trkpt>
<trkpt lat="33.810313" lon="-118.393867">
  <ele>-0.12</ele>
  <time>2026-09-02T22:07:34Z</time>
  <course>0.0</course>
  <speed>0.0</speed>
  <fix>3d</fix>
</trkpt>
<trkpt lat="33.810313" lon="-118.393867">
  <ele>-0.127</ele>
  <time>2026-09-02T22:07:34Z</time>
  <course>188.5</course>
  <speed>0.0</speed>
  <fix>3d</fix>
</trkpt>
<trkpt lat="33.810313" lon="-118.393867">
  <ele>-0.12</ele>
  <time>2026-09-02T22:07:34Z</time>
  <course>0.0</course>
  <speed>0.0</speed>
  <fix>3d</fix>
</trkpt>
<trkpt lat="33.810313" lon="-118.393867">
  <ele>-0.128</ele>
  <time>2026-09-02T22:07:34Z</time>
  <course>188.49</course>
  <speed>0.0</speed>
  <fix>3d</fix>
</trkpt>
<trkpt lat="33.810313" lon="-118.393867">
  <ele>-0.12</ele>
  <time>2026-09-02T22:07:34Z</time>
  <course>0.0</course>
  <speed>0.0</speed>
  <fix>3d</fix>
</trkpt>
<trkpt lat="33.810313" lon="-118.393867">
  <ele>-0.127</ele>
  <time>2026-09-02T22:07:34Z</time>
  <course>188.48</course>
  <speed>0.0</speed>
  <fix>3d</fix>
</trkpt>
<trkpt lat="33.810313" lon="-118.393867">
  <ele>-0.12</ele>
  <time>2026-09-02T22:07:34Z</time>
  <course>0.0</course>
  <speed>0.0</speed>
  <fix>3d</fix>
</trkpt>
<trkpt lat="33.810313" lon="-118.393867">
  <ele>-0.127</ele>
  <time>2026-09-02T22:07:34Z</time>
  <course>188.48</course>
  <speed>0.0</speed>
  <fix>3d</fix>
</trkpt>
<trkpt lat="33.810313" lon="-118.393867">
  <ele>-0.12</ele>
  <time>2026-09-02T22:07:34Z</time>
  <course>0.0</course>
  <speed>0.0</speed>
  <fix>3d</fix>
</trkpt>
<trkpt lat="33.810313" lon="-118.393867">
  <ele>-0.127</ele>
  <time>2026-09-02T22:07:34Z</time>
  <course>188.47</course>
  <speed>0.01</speed>
  <fix>3d</fix>
</trkpt>
<trkpt lat="33.810313" lon="-118.393867">
  <ele>-0.12</ele>
  <time>2026-09-02T22:07:34Z</time>
  <course>0.0</course>
  <speed>0.0</speed>
  <fix>3d</fix>
</trkpt>
<trkpt lat="33.810313" lon="-118.393867">
  <ele>-0.127</ele>
  <time>2026-09-02T22:07:34Z</time>
  <course>188.47</course>
  <speed>0.01</speed>
  <fix>3d</fix>
</trkpt>
<trkpt lat="33.810313" lon="-118.393867">
  <ele>-0.12</ele>
  <time>2026-09-02T22:07:34Z</time>
  <course>0.0</course>
  <speed>0.0</speed>
  <fix>3d</fix>
</trkpt>
<trkpt lat="33.810313" lon="-118.393867">
  <ele>-0.126</ele>
  <time>2026-09-02T22:07:34Z</time>
  <course>188.46</course>
  <speed>0.01</speed>
  <fix>3d</fix>
</trkpt>
<trkpt lat="33.810313" lon="-118.393867">
  <ele>-0.12</ele>
  <time>2026-09-02T22:07:34Z</time>
  <course>0.0</course>
  <speed>0.0</speed>
  <fix>3d</fix>
</trkpt>
<trkpt lat="33.810313" lon="-118.393867">
  <ele>-0.126</ele>
  <time>2026-09-02T22:07:34Z</time>
  <course>188.45</course>
  <speed>0.01</speed>
  <fix>3d</fix>
</trkpt>
<trkpt lat="33.810313" lon="-118.393867">
  <ele>-0.12</ele>
  <time>2026-09-02T22:07:34Z</time>
  <course>0.0</course>
  <speed>0.0</speed>
  <fix>3d</fix>
</trkpt>
<trkpt lat="33.810313" lon="-118.393867">
  <ele>-0.126</ele>
  <time>2026-09-02T22:07:34Z</time>
  <course>188.45</course>
  <speed>0.01</speed>
  <fix>3d</fix>
</trkpt>
<trkpt lat="33.810313" lon="-118.393867">
  <ele>-0.12</ele>
  <time>2026-09-02T22:07:34Z</time>
  <course>0.0</course>
  <speed>0.0</speed>
  <fix>3d</fix>
</trkpt>
<trkpt lat="33.810313" lon="-118.393867">
  <ele>-0.125</ele>
  <time>2026-09-02T22:07:34Z</time>
  <course>188.44</course>
  <speed>0.01</speed>
  <fix>3d</fix>
</trkpt>
<trkpt lat="33.810313" lon="-118.393867">
  <ele>-0.12</ele>
  <time>2026-09-02T22:07:34Z</time>
  <course>0.0</course>
  <speed>0.0</speed>
  <fix>3d</fix>
</trkpt>
<trkpt lat="33.810313" lon="-118.393867">
  <ele>-0.126</ele>
  <time>2026-09-02T22:07:34Z</time>
  <course>188.43</course>
  <speed>0.01</speed>
  <fix>3d</fix>
</trkpt>
<trkpt lat="33.810313" lon="-118.393867">
  <ele>-0.12</ele>
  <time>2026-09-02T22:07:34Z</time>
  <course>0.0</course>
  <speed>0.0</speed>
  <fix>3d</fix>
</trkpt>
<trkpt lat="33.810313" lon="-118.393867">
  <ele>-0.127</ele>
  <time>2026-09-02T22:07:34Z</time>
  <course>188.42</course>
  <speed>0.01</speed>
  <fix>3d</fix>
</trkpt>
<trkpt lat="33.810313" lon="-118.393867">
  <ele>-0.12</ele>
  <time>2026-09-02T22:07:34Z</time>
  <course>0.0</course>
  <speed>0.0</speed>
  <fix>3d</fix>
</trkpt>
<trkpt lat="33.810313" lon="-118.393867">
  <ele>-0.128</ele>
  <time>2026-09-02T22:07:34Z</time>
  <course>188.42</course>
  <speed>0.01</speed>
  <fix>3d</fix>
</trkpt>
<trkpt lat="33.810313" lon="-118.393867">
  <ele>-0.12</ele>
  <time>2026-09-02T22:07:34Z</time>
  <course>0.0</course>
  <speed>0.0</speed>
  <fix>3d</fix>
</trkpt>
<trkpt lat="33.810313" lon="-118.393867">
  <ele>-0.129</ele>
  <time>2026-09-02T22:07:34Z</time>
  <course>188.41</course>
  <speed>0.01</speed>
  <fix>3d</fix>
</trkpt>
<trkpt lat="33.810313" lon="-118.393867">
  <ele>-0.12</ele>
  <time>2026-09-02T22:07:34Z</time>
  <course>0.0</course>
  <speed>0.0</speed>
  <fix>3d</fix>
</trkpt>
<trkpt lat="33.810313" lon="-118.393867">
  <ele>-0.129</ele>
  <time>2026-09-02T22:07:34Z</time>
  <course>188.4</course>
  <speed>0.01</speed>
  <fix>3d</fix>
</trkpt>
<trkpt lat="33.810313" lon="-118.393867">
  <ele>-0.12</ele>
  <time>2026-09-02T22:07:34Z</time>
  <course>0.0</course>
  <speed>0.0</speed>
  <fix>3d</fix>
</trkpt>
<trkpt lat="33.810313" lon="-118.393867">
  <ele>-0.13</ele>
  <time>2026-09-02T22:07:34Z</time>
  <course>188.4</course>
  <speed>0.01414213562373095</speed>
  <fix>3d</fix>
</trkpt>
<trkpt lat="33.810313" lon="-118.393867">
  <ele>-0.12</ele>
  <time>2026-09-02T22:07:34Z</time>
  <course>0.0</course>
  <speed>0.0</speed>
  <fix>3d</fix>
</trkpt>
<trkpt lat="33.810313" lon="-118.393867">
  <ele>-0.13</ele>
  <time>2026-09-02T22:07:34Z</time>
  <course>188.39</course>
  <speed>0.01414213562373095</speed>
  <fix>3d</fix>
</trkpt>
<trkpt lat="33.810313" lon="-118.393867">
  <ele>-0.12</ele>
  <time>2026-09-02T22:07:34Z</time>
  <course>0.0</course>
  <speed>0.0</speed>
  <fix>3d</fix>
</trkpt>
<trkpt lat="33.810313" lon="-118.393867">
  <ele>-0.13</ele>
  <time>2026-09-02T22:07:34Z</time>
  <course>188.38</course>
  <speed>0.01414213562373095</speed>
  <fix>3d</fix>
</trkpt>
<trkpt lat="33.810313" lon="-118.393867">
  <ele>-0.12</ele>
  <time>2026-09-02T22:07:34Z</time>
  <course>0.0</course>
  <speed>0.0</speed>
  <fix>3d</fix>
</trkpt>
<trkpt lat="33.810313" lon="-118.393867">
  <ele>-0.129</ele>
  <time>2026-09-02T22:07:34Z</time>
  <course>188.37</course>
  <speed>0.01414213562373095</speed>
  <fix>3d</fix>
</trkpt>
<trkpt lat="33.810313" lon="-118.393867">
  <ele>-0.12</ele>
  <time>2026-09-02T22:07:34Z</time>
  <course>0.0</course>
  <speed>0.0</speed>
  <fix>3d</fix>
</trkpt>
<trkpt lat="33.810313" lon="-118.393867">
  <ele>-0.128</ele>
  <time>2026-09-02T22:07:34Z</time>
  <course>188.37</course>
  <speed>0.01414213562373095</speed>
  <fix>3d</fix>
</trkpt>
<trkpt lat="33.810313" lon="-118.393867">
  <ele>-0.12</ele>
  <time>2026-09-02T22:07:34Z</time>
  <course>0.0</course>
  <speed>0.0</speed>
  <fix>3d</fix>
</trkpt>
<trkpt lat="33.810313" lon="-118.393867">
  <ele>-0.126</ele>
  <time>2026-09-02T22:07:34Z</time>
  <course>188.36</course>
  <speed>0.01414213562373095</speed>
  <fix>3d</fix>
</trkpt>
<trkpt lat="33.810313" lon="-118.393867">
  <ele>-0.12</ele>
  <time>2026-09-02T22:07:34Z</time>
  <course>0.0</course>
  <speed>0.0</speed>
  <fix>3d</fix>
</trkpt>
<trkpt lat="33.810313" lon="-118.393867">
  <ele>-0.124</ele>
  <time>2026-09-02T22:07:34Z</time>
  <course>188.35</course>
  <speed>0.01414213562373095</speed>
  <fix>3d</fix>
</trkpt>
<trkpt lat="33.810313" lon="-118.393867">
  <ele>-0.12</ele>
  <time>2026-09-02T22:07:34Z</time>
  <course>0.0</course>
  <speed>0.0</speed>
  <fix>3d</fix>
</trkpt>
<trkpt lat="33.810313" lon="-118.393867">
  <ele>-0.122</ele>
  <time>2026-09-02T22:07:34Z</time>
  <course>188.34</course>
  <speed>0.01414213562373095</speed>
  <fix>3d</fix>
</trkpt>
<trkpt lat="33.810313" lon="-118.393867">
  <ele>-0.12</ele>
  <time>2026-09-02T22:07:34Z</time>
  <course>0.0</course>
  <speed>0.0</speed>
  <fix>3d</fix>
</trkpt>
<trkpt lat="33.810313" lon="-118.393867">
  <ele>-0.123</ele>
  <time>2026-09-02T22:07:34Z</time>
  <course>188.33</course>
  <speed>0.01414213562373095</speed>
  <fix>3d</fix>
</trkpt>
<trkpt lat="33.810313" lon="-118.393867">
  <ele>-0.12</ele>
  <time>2026-09-02T22:07:34Z</time>
  <course>0.0</course>
  <speed>0.0</speed>
  <fix>3d</fix>
</trkpt>
<trkpt lat="33.810313" lon="-118.393867">
  <ele>-0.125</ele>
  <time>2026-09-02T22:07:34Z</time>
  <course>188.33</course>
  <speed>0.01414213562373095</speed>
  <fix>3d</fix>
</trkpt>
<trkpt lat="33.810313" lon="-118.393867">
  <ele>-0.12</ele>
  <time>2026-09-02T22:07:34Z</time>
  <course>0.0</course>
  <speed>0.0</speed>
  <fix>3d</fix>
</trkpt>
<trkpt lat="33.810313" lon="-118.393867">
  <ele>-0.128</ele>
  <time>2026-09-02T22:07:34Z</time>
  <course>188.32</course>
  <speed>0.01414213562373095</speed>
  <fix>3d</fix>
</trkpt>
<trkpt lat="33.810313" lon="-118.393867">
  <ele>-0.12</ele>
  <time>2026-09-02T22:07:34Z</time>
  <course>0.0</course>
  <speed>0.0</speed>
  <fix>3d</fix>
</trkpt>
<trkpt lat="33.810313" lon="-118.393867">
  <ele>-0.132</ele>
  <time>2026-09-02T22:07:34Z</time>
  <course>188.31</course>
  <speed>0.01414213562373095</speed>
  <fix>3d</fix>
</trkpt>
<trkpt lat="33.810313" lon="-118.393867">
  <ele>-0.12</ele>
  <time>2026-09-02T22:07:34Z</time>
  <course>0.0</course>
  <speed>0.0</speed>
  <fix>3d</fix>
</trkpt>
<trkpt lat="33.810313" lon="-118.393867">
  <ele>-0.135</ele>
  <time>2026-09-02T22:07:34Z</time>
  <course>188.3</course>
  <speed>0.01414213562373095</speed>
  <fix>3d</fix>
</trkpt>
<trkpt lat="33.810313" lon="-118.393867">
  <ele>-0.12</ele>
  <time>2026-09-02T22:07:34Z</time>
  <course>0.0</course>
  <speed>0.0</speed>
  <fix>3d</fix>
</trkpt>
<trkpt lat="33.810313" lon="-118.393867">
  <ele>-0.135</ele>
  <time>2026-09-02T22:07:34Z</time>
  <course>188.3</course>
  <speed>0.01414213562373095</speed>
  <fix>3d</fix>
</trkpt>
<trkpt lat="33.810313" lon="-118.393867">
  <ele>-0.12</ele>
  <time>2026-09-02T22:07:34Z</time>
  <course>0.0</course>
  <speed>0.0</speed>
  <fix>3d</fix>
</trkpt>
<trkpt lat="33.810313" lon="-118.393867">
  <ele>-0.134</ele>
  <time>2026-09-02T22:07:34Z</time>
  <course>188.29</course>
  <speed>0.01414213562373095</speed>
  <fix>3d</fix>
</trkpt>
<trkpt lat="33.810313" lon="-118.393867">
  <ele>-0.12</ele>
  <time>2026-09-02T22:07:34Z</time>
  <course>0.0</course>
  <speed>0.0</speed>
  <fix>3d</fix>
</trkpt>
<trkpt lat="33.810313" lon="-118.393867">
  <ele>-0.132</ele>
  <time>2026-09-02T22:07:34Z</time>
  <course>188.28</course>
  <speed>0.01414213562373095</speed>
  <fix>3d</fix>
</trkpt>
<trkpt lat="33.810313" lon="-118.393867">
  <ele>-0.12</ele>
  <time>2026-09-02T22:07:34Z</time>
  <course>0.0</course>
  <speed>0.0</speed>
  <fix>3d</fix>
</trkpt>
<trkpt lat="33.810313" lon="-118.393867">
  <ele>-0.129</ele>
  <time>2026-09-02T22:07:34Z</time>
  <course>188.27</course>
  <speed>0.01414213562373095</speed>
  <fix>3d</fix>
</trkpt>
<trkpt lat="33.810313" lon="-118.393867">
  <ele>-0.12</ele>
  <time>2026-09-02T22:07:34Z</time>
  <course>0.0</course>
  <speed>0.0</speed>
  <fix>3d</fix>
</trkpt>
<trkpt lat="33.810313" lon="-118.393867">
  <ele>-0.127</ele>
  <time>2026-09-02T22:07:34Z</time>
  <course>188.26</course>
  <speed>0.01414213562373095</speed>
  <fix>3d</fix>
</trkpt>
<trkpt lat="33.810313" lon="-118.393867">
  <ele>-0.12</ele>
  <time>2026-09-02T22:07:34Z</time>
  <course>0.0</course>
  <speed>0.0</speed>
  <fix>3d</fix>
</trkpt>
<trkpt lat="33.810313" lon="-118.393867">
  <ele>-0.124</ele>
  <time>2026-09-02T22:07:34Z</time>
  <course>188.25</course>
  <speed>0.01414213562373095</speed>
  <fix>3d</fix>
</trkpt>
<trkpt lat="33.810313" lon="-118.393867">
  <ele>-0.12</ele>
  <time>2026-09-02T22:07:34Z</time>
  <course>0.0</course>
  <speed>0.0</speed>
  <fix>3d</fix>
</trkpt>
<trkpt lat="33.810313" lon="-118.393867">
  <ele>-0.123</ele>
  <time>2026-09-02T22:07:34Z</time>
  <course>188.25</course>
  <speed>0.01414213562373095</speed>
  <fix>3d</fix>
</trkpt>
<trkpt lat="33.810313" lon="-118.393867">
  <ele>-0.12</ele>
  <time>2026-09-02T22:07:34Z</time>
  <course>0.0</course>
  <speed>0.0</speed>
  <fix>3d</fix>
</trkpt>
<trkpt lat="33.810313" lon="-118.393867">
  <ele>-0.124</ele>
  <time>2026-09-02T22:07:34Z</time>
  <course>188.24</course>
  <speed>0.01414213562373095</speed>
  <fix>3d</fix>
</trkpt>
<trkpt lat="33.810313" lon="-118.393867">
  <ele>-0.12</ele>
  <time>2026-09-02T22:07:34Z</time>
  <course>0.0</course>
  <speed>0.0</speed>
  <fix>3d</fix>
</trkpt>
<trkpt lat="33.810313" lon="-118.393867">
  <ele>-0.126</ele>
  <time>2026-09-02T22:07:34Z</time>
  <course>188.23</course>
  <speed>0.01414213562373095</speed>
  <fix>3d</fix>
</trkpt>
<trkpt lat="33.810313" lon="-118.393867">
  <ele>-0.12</ele>
  <time>2026-09-02T22:07:34Z</time>
  <course>0.0</course>
  <speed>0.0</speed>
  <fix>3d</fix>
</trkpt>
<trkpt lat="33.810313" lon="-118.393867">
  <ele>-0.127</ele>
  <time>2026-09-02T22:07:34Z</time>
  <course>188.22</course>
  <speed>0.01414213562373095</speed>
  <fix>3d</fix>
</trkpt>
<trkpt lat="33.810313" lon="-118.393867">
  <ele>-0.12</ele>
  <time>2026-09-02T22:07:34Z</time>
  <course>0.0</course>
  <speed>0.0</speed>
  <fix>3d</fix>
</trkpt>
<trkpt lat="33.810313" lon="-118.393867">
  <ele>-0.129</ele>
  <time>2026-09-02T22:07:34Z</time>
  <course>188.21</course>
  <speed>0.01414213562373095</speed>
  <fix>3d</fix>
</trkpt>
<trkpt lat="33.810313" lon="-118.393867">
  <ele>-0.12</ele>
  <time>2026-09-02T22:07:34Z</time>
  <course>0.0</course>
  <speed>0.0</speed>
  <fix>3d</fix>
</trkpt>
<trkpt lat="33.810313" lon="-118.393867">
  <ele>-0.129</ele>
  <time>2026-09-02T22:07:34Z</time>
  <course>188.21</course>
  <speed>0.01414213562373095</speed>
  <fix>3d</fix>
</trkpt>
<trkpt lat="33.810313" lon="-118.393867">
  <ele>-0.12</ele>
  <time>2026-09-02T22:07:34Z</time>
  <course>0.0</course>
  <speed>0.0</speed>
  <fix>3d</fix>
</trkpt>
<trkpt lat="33.810313" lon="-118.393867">
  <ele>-0.129</ele>
  <time>2026-09-02T22:07:34Z</time>
  <course>188.2</course>
  <speed>0.01414213562373095</speed>
  <fix>3d</fix>
</trkpt>
<trkpt lat="33.810313" lon="-118.393867">
  <ele>-0.12</ele>
  <time>2026-09-02T22:07:34Z</time>
  <course>0.0</course>
  <speed>0.0</speed>
  <fix>3d</fix>
</trkpt>
<trkpt lat="33.810313" lon="-118.393867">
  <ele>-0.128</ele>
  <time>2026-09-02T22:07:34Z</time>
  <course>188.19</course>
  <speed>0.01414213562373095</speed>
  <fix>3d</fix>
</trkpt>
<trkpt lat="33.810313" lon="-118.393867">
  <ele>-0.12</ele>
  <time>2026-09-02T22:07:34Z</time>
  <course>0.0</course>
  <speed>0.0</speed>
  <fix>3d</fix>
</trkpt>
<trkpt lat="33.810313" lon="-118.393867">
  <ele>-0.128</ele>
  <time>2026-09-02T22:07:34Z</time>
  <course>188.18</course>
  <speed>0.01414213562373095</speed>
  <fix>3d</fix>
</trkpt>
<trkpt lat="33.810313" lon="-118.393867">
  <ele>-0.12</ele>
  <time>2026-09-02T22:07:34Z</time>
  <course>0.0</course>
  <speed>0.0</speed>
  <fix>3d</fix>
</trkpt>
<trkpt lat="33.810313" lon="-118.393867">
  <ele>-0.127</ele>
  <time>2026-09-02T22:07:34Z</time>
  <course>188.17</course>
  <speed>0.01414213562373095</speed>
  <fix>3d</fix>
</trkpt>
<trkpt lat="33.810313" lon="-118.393867">
  <ele>-0.12</ele>
  <time>2026-09-02T22:07:34Z</time>
  <course>0.0</course>
  <speed>0.0</speed>
  <fix>3d</fix>
</trkpt>
<trkpt lat="33.810313" lon="-118.393867">
  <ele>-0.127</ele>
  <time>2026-09-02T22:07:34Z</time>
  <course>188.16</course>
  <speed>0.01414213562373095</speed>
  <fix>3d</fix>
</trkpt>
<trkpt lat="33.810313" lon="-118.393867">
  <ele>-0.12</ele>
  <time>2026-09-02T22:07:34Z</time>
  <course>0.0</course>
  <speed>0.0</speed>
  <fix>3d</fix>
</trkpt>
<trkpt lat="33.810313" lon="-118.393867">
  <ele>-0.128</ele>
  <time>2026-09-02T22:07:34Z</time>
  <course>188.16</course>
  <speed>0.01414213562373095</speed>
  <fix>3d</fix>
</trkpt>
<trkpt lat="33.810313" lon="-118.393867">
  <ele>-0.12</ele>
  <time>2026-09-02T22:07:34Z</time>
  <course>0.0</course>
  <speed>0.0</speed>
  <fix>3d</fix>
</trkpt>
<trkpt lat="33.810313" lon="-118.393867">
  <ele>-0.129</ele>
  <time>2026-09-02T22:07:34Z</time>
  <course>188.15</course>
  <speed>0.01414213562373095</speed>
  <fix>3d</fix>
</trkpt>
<trkpt lat="33.810313" lon="-118.393867">
  <ele>-0.12</ele>
  <time>2026-09-02T22:07:34Z</time>
  <course>0.0</course>
  <speed>0.0</speed>
  <fix>3d</fix>
</trkpt>
<trkpt lat="33.810313" lon="-118.393867">
  <ele>-0.131</ele>
  <time>2026-09-02T22:07:34Z</time>
  <course>188.14</course>
  <speed>0.01414213562373095</speed>
  <fix>3d</fix>
</trkpt>
<trkpt lat="33.810313" lon="-118.393867">
  <ele>-0.12</ele>
  <time>2026-09-02T22:07:34Z</time>
  <course>0.0</course>
  <speed>0.0</speed>
  <fix>3d</fix>
</trkpt>
<trkpt lat="33.810313" lon="-118.393867">
  <ele>-0.133</ele>
  <time>2026-09-02T22:07:34Z</time>
  <course>188.13</course>
  <speed>0.01414213562373095</speed>
  <fix>3d</fix>
</trkpt>
<trkpt lat="33.810313" lon="-118.393867">
  <ele>-0.12</ele>
  <time>2026-09-02T22:07:34Z</time>
  <course>0.0</course>
  <speed>0.0</speed>
  <fix>3d</fix>
</trkpt>
<trkpt lat="33.810313" lon="-118.393867">
  <ele>-0.135</ele>
  <time>2026-09-02T22:07:34Z</time>
  <course>188.12</course>
  <speed>0.01414213562373095</speed>
  <fix>3d</fix>
</trkpt>
<trkpt lat="33.810313" lon="-118.393867">
  <ele>-0.12</ele>
  <time>2026-09-02T22:07:34Z</time>
  <course>0.0</course>
  <speed>0.0</speed>
  <fix>3d</fix>
</trkpt>
<trkpt lat="33.810313" lon="-118.393867">
  <ele>-0.136</ele>
  <time>2026-09-02T22:07:34Z</time>
  <course>188.12</course>
  <speed>0.01414213562373095</speed>
  <fix>3d</fix>
</trkpt>
<trkpt lat="33.810313" lon="-118.393867">
  <ele>-0.12</ele>
  <time>2026-09-02T22:07:34Z</time>
  <course>0.0</course>
  <speed>0.0</speed>
  <fix>3d</fix>
</trkpt>
<trkpt lat="33.810313" lon="-118.393867">
  <ele>-0.136</ele>
  <time>2026-09-02T22:07:34Z</time>
  <course>188.11</course>
  <speed>0.01414213562373095</speed>
  <fix>3d</fix>
</trkpt>
<trkpt lat="33.810313" lon="-118.393867">
  <ele>-0.12</ele>
  <time>2026-09-02T22:07:34Z</time>
  <course>0.0</course>
  <speed>0.0</speed>
  <fix>3d</fix>
</trkpt>
<trkpt lat="33.810313" lon="-118.393867">
  <ele>-0.136</ele>
  <time>2026-09-02T22:07:34Z</time>
  <course>188.1</course>
  <speed>0.01414213562373095</speed>
  <fix>3d</fix>
</trkpt>
<trkpt lat="33.810313" lon="-118.393867">
  <ele>-0.12</ele>
  <time>2026-09-02T22:07:34Z</time>
  <course>0.0</course>
  <speed>0.0</speed>
  <fix>3d</fix>
</trkpt>
<trkpt lat="33.810313" lon="-118.393867">
  <ele>-0.135</ele>
  <time>2026-09-02T22:07:34Z</time>
  <course>188.09</course>
  <speed>0.01414213562373095</speed>
  <fix>3d</fix>
</trkpt>
<trkpt lat="33.810313" lon="-118.393867">
  <ele>-0.12</ele>
  <time>2026-09-02T22:07:34Z</time>
  <course>0.0</course>
  <speed>0.0</speed>
  <fix>3d</fix>
</trkpt>
<trkpt lat="33.810313" lon="-118.393867">
  <ele>-0.134</ele>
  <time>2026-09-02T22:07:34Z</time>
  <course>188.08</course>
  <speed>0.01414213562373095</speed>
  <fix>3d</fix>
</trkpt>
<trkpt lat="33.810313" lon="-118.393867">
  <ele>-0.12</ele>
  <time>2026-09-02T22:07:34Z</time>
  <course>0.0</course>
  <speed>0.0</speed>
  <fix>3d</fix>
</trkpt>
<trkpt lat="33.810313" lon="-118.393867">
  <ele>-0.131</ele>
  <time>2026-09-02T22:07:34Z</time>
  <course>188.07</course>
  <speed>0.022360679774997897</speed>
  <fix>3d</fix>
</trkpt>
<trkpt lat="33.810313" lon="-118.393867">
  <ele>-0.12</ele>
  <time>2026-09-02T22:07:34Z</time>
  <course>0.0</course>
  <speed>0.0</speed>
  <fix>3d</fix>
</trkpt>
<trkpt lat="33.810313" lon="-118.393867">
  <ele>-0.128</ele>
  <time>2026-09-02T22:07:34Z</time>
  <course>188.07</course>
  <speed>0.022360679774997897</speed>
  <fix>3d</fix>
</trkpt>
<trkpt lat="33.810313" lon="-118.393867">
  <ele>-0.12</ele>
  <time>2026-09-02T22:07:34Z</time>
  <course>0.0</course>
  <speed>0.0</speed>
  <fix>3d</fix>
</trkpt>
<trkpt lat="33.810313" lon="-118.393867">
  <ele>-0.126</ele>
  <time>2026-09-02T22:07:34Z</time>
  <course>188.06</course>
  <speed>0.022360679774997897</speed>
  <fix>3d</fix>
</trkpt>
<trkpt lat="33.810313" lon="-118.393867">
  <ele>-0.12</ele>
  <time>2026-09-02T22:07:34Z</time>
  <course>0.0</course>
  <speed>0.0</speed>
  <fix>3d</fix>
</trkpt>
<trkpt lat="33.810313" lon="-118.393867">
  <ele>-0.126</ele>
  <time>2026-09-02T22:07:34Z</time>
  <course>188.05</course>
  <speed>0.022360679774997897</speed>
  <fix>3d</fix>
</trkpt>
<trkpt lat="33.810313" lon="-118.393867">
  <ele>-0.12</ele>
  <time>2026-09-02T22:07:34Z</time>
  <course>0.0</course>
  <speed>0.0</speed>
  <fix>3d</fix>
</trkpt>
<trkpt lat="33.810313" lon="-118.393867">
  <ele>-0.126</ele>
  <time>2026-09-02T22:07:34Z</time>
  <course>188.04</course>
  <speed>0.022360679774997897</speed>
  <fix>3d</fix>
</trkpt>
<trkpt lat="33.810313" lon="-118.393867">
  <ele>-0.12</ele>
  <time>2026-09-02T22:07:34Z</time>
  <course>0.0</course>
  <speed>0.0</speed>
  <fix>3d</fix>
</trkpt>
<trkpt lat="33.810313" lon="-118.393867">
  <ele>-0.127</ele>
  <time>2026-09-02T22:07:34Z</time>
  <course>188.03</course>
  <speed>0.022360679774997897</speed>
  <fix>3d</fix>
</trkpt>
<trkpt lat="33.810313" lon="-118.393867">
  <ele>-0.12</ele>
  <time>2026-09-02T22:07:34Z</time>
  <course>0.0</course>
  <speed>0.0</speed>
  <fix>3d</fix>
</trkpt>
<trkpt lat="33.810313" lon="-118.393867">
  <ele>-0.127</ele>
  <time>2026-09-02T22:07:34Z</time>
  <course>188.03</course>
  <speed>0.022360679774997897</speed>
  <fix>3d</fix>
</trkpt>
<trkpt lat="33.810313" lon="-118.393867">
  <ele>-0.12</ele>
  <time>2026-09-02T22:07:34Z</time>
  <course>0.0</course>
  <speed>0.0</speed>
  <fix>3d</fix>
</trkpt>
<trkpt lat="33.810313" lon="-118.393867">
  <ele>-0.127</ele>
  <time>2026-09-02T22:07:34Z</time>
  <course>188.02</course>
  <speed>0.022360679774997897</speed>
  <fix>3d</fix>
</trkpt>
<trkpt lat="33.810313" lon="-118.393867">
  <ele>-0.12</ele>
  <time>2026-09-02T22:07:34Z</time>
  <course>0.0</course>
  <speed>0.0</speed>
  <fix>3d</fix>
</trkpt>
<trkpt lat="33.810313" lon="-118.393867">
  <ele>-0.128</ele>
  <time>2026-09-02T22:07:34Z</time>
  <course>188.01</course>
  <speed>0.022360679774997897</speed>
  <fix>3d</fix>
</trkpt>
<trkpt lat="33.810313" lon="-118.393867">
  <ele>-0.12</ele>
  <time>2026-09-02T22:07:34Z</time>
  <course>0.0</course>
  <speed>0.0</speed>
  <fix>3d</fix>
</trkpt>
<trkpt lat="33.810313" lon="-118.393867">
  <ele>-0.128</ele>
  <time>2026-09-02T22:07:35Z</time>
  <course>188.0</course>
  <speed>0.022360679774997897</speed>
  <fix>3d</fix>
</trkpt>
<trkpt lat="33.810313" lon="-118.393867">
  <ele>-0.12</ele>
  <time>2026-09-02T22:07:35Z</time>
  <course>0.0</course>
  <speed>0.0</speed>
  <fix>3d</fix>
</trkpt>
<trkpt lat="33.810313" lon="-118.393867">
  <ele>-0.127</ele>
  <time>2026-09-02T22:07:35Z</time>
  <course>187.99</course>
  <speed>0.022360679774997897</speed>
  <fix>3d</fix>
</trkpt>
<trkpt lat="33.810313" lon="-118.393867">
  <ele>-0.12</ele>
  <time>2026-09-02T22:07:35Z</time>
  <course>0.0</course>
  <speed>0.0</speed>
  <fix>3d</fix>
</trkpt>
<trkpt lat="33.810313" lon="-118.393867">
  <ele>-0.126</ele>
  <time>2026-09-02T22:07:35Z</time>
  <course>187.98</course>
  <speed>0.022360679774997897</speed>
  <fix>3d</fix>
</trkpt>
<trkpt lat="33.810313" lon="-118.393867">
  <ele>-0.12</ele>
  <time>2026-09-02T22:07:35Z</time>
  <course>0.0</course>
  <speed>0.0</speed>
  <fix>3d</fix>
</trkpt>
<trkpt lat="33.810313" lon="-118.393867">
  <ele>-0.123</ele>
  <time>2026-09-02T22:07:35Z</time>
  <course>187.98</course>
  <speed>0.022360679774997897</speed>
  <fix>3d</fix>
</trkpt>
<trkpt lat="33.810313" lon="-118.393867">
  <ele>-0.12</ele>
  <time>2026-09-02T22:07:35Z</time>
  <course>0.0</course>
  <speed>0.0</speed>
  <fix>3d</fix>
</trkpt>
<trkpt lat="33.810313" lon="-118.393867">
  <ele>-0.121</ele>
  <time>2026-09-02T22:07:35Z</time>
  <course>187.97</course>
  <speed>0.022360679774997897</speed>
  <fix>3d</fix>
</trkpt>
<trkpt lat="33.810313" lon="-118.393867">
  <ele>-0.12</ele>
  <time>2026-09-02T22:07:35Z</time>
  <course>0.0</course>
  <speed>0.0</speed>
  <fix>3d</fix>
</trkpt>
<trkpt lat="33.810313" lon="-118.393867">
  <ele>-0.12</ele>
  <time>2026-09-02T22:07:35Z</time>
  <course>187.96</course>
  <speed>0.022360679774997897</speed>
  <fix>3d</fix>
</trkpt>
<trkpt lat="33.810313" lon="-118.393867">
  <ele>-0.12</ele>
  <time>2026-09-02T22:07:35Z</time>
  <course>0.0</course>
  <speed>0.0</speed>
  <fix>3d</fix>
</trkpt>
<trkpt lat="33.810313" lon="-118.393867">
  <ele>-0.12</ele>
  <time>2026-09-02T22:07:35Z</time>
  <course>187.95</course>
  <speed>0.022360679774997897</speed>
  <fix>3d</fix>
</trkpt>
<trkpt lat="33.810313" lon="-118.393867">
  <ele>-0.12</ele>
  <time>2026-09-02T22:07:35Z</time>
  <course>0.0</course>
  <speed>0.0</speed>
  <fix>3d</fix>
</trkpt>
<trkpt lat="33.810313" lon="-118.393867">
  <ele>-0.122</ele>
  <time>2026-09-02T22:07:35Z</time>
  <course>187.94</course>
  <speed>0.022360679774997897</speed>
  <fix>3d</fix>
</trkpt>
<trkpt lat="33.810313" lon="-118.393867">
  <ele>-0.12</ele>
  <time>2026-09-02T22:07:35Z</time>
  <course>0.0</course>
  <speed>0.0</speed>
  <fix>3d</fix>
</trkpt>
<trkpt lat="33.810313" lon="-118.393867">
  <ele>-0.125</ele>
  <time>2026-09-02T22:07:35Z</time>
  <course>187.94</course>
  <speed>0.022360679774997897</speed>
  <fix>3d</fix>
</trkpt>
<trkpt lat="33.810313" lon="-118.393867">
  <ele>-0.12</ele>
  <time>2026-09-02T22:07:35Z</time>
  <course>0.0</course>
  <speed>0.0</speed>
  <fix>3d</fix>
</trkpt>
<trkpt lat="33.810313" lon="-118.393867">
  <ele>-0.129</ele>
  <time>2026-09-02T22:07:35Z</time>
  <course>187.93</course>
  <speed>0.022360679774997897</speed>
  <fix>3d</fix>
</trkpt>
<trkpt lat="33.810313" lon="-118.393867">
  <ele>-0.12</ele>
  <time>2026-09-02T22:07:35Z</time>
  <course>0.0</course>
  <speed>0.0</speed>
  <fix>3d</fix>
</trkpt>
<trkpt lat="33.810313" lon="-118.393867">
  <ele>-0.131</ele>
  <time>2026-09-02T22:07:35Z</time>
  <course>187.92</course>
  <speed>0.022360679774997897</speed>
  <fix>3d</fix>
</trkpt>
<trkpt lat="33.810313" lon="-118.393867">
  <ele>-0.12</ele>
  <time>2026-09-02T22:07:35Z</time>
  <course>0.0</course>
  <speed>0.0</speed>
  <fix>3d</fix>
</trkpt>
<trkpt lat="33.810313" lon="-118.393867">
  <ele>-0.132</ele>
  <time>2026-09-02T22:07:35Z</time>
  <course>187.91</course>
  <speed>0.022360679774997897</speed>
  <fix>3d</fix>
</trkpt>
<trkpt lat="33.810313" lon="-118.393867">
  <ele>-0.12</ele>
  <time>2026-09-02T22:07:35Z</time>
  <course>0.0</course>
  <speed>0.0</speed>
  <fix>3d</fix>
</trkpt>
<trkpt lat="33.810313" lon="-118.393867">
  <ele>-0.132</ele>
  <time>2026-09-02T22:07:35Z</time>
  <course>187.9</course>
  <speed>0.022360679774997897</speed>
  <fix>3d</fix>
</trkpt>
<trkpt lat="33.810313" lon="-118.393867">
  <ele>-0.12</ele>
  <time>2026-09-02T22:07:35Z</time>
  <course>0.0</course>
  <speed>0.0</speed>
  <fix>3d</fix>
</trkpt>
<trkpt lat="33.810313" lon="-118.393867">
  <ele>-0.132</ele>
  <time>2026-09-02T22:07:35Z</time>
  <course>187.9</course>
  <speed>0.022360679774997897</speed>
  <fix>3d</fix>
</trkpt>
<trkpt lat="33.810313" lon="-118.393867">
  <ele>-0.12</ele>
  <time>2026-09-02T22:07:35Z</time>
  <course>0.0</course>
  <speed>0.0</speed>
  <fix>3d</fix>
</trkpt>
<trkpt lat="33.810313" lon="-118.393867">
  <ele>-0.13</ele>
  <time>2026-09-02T22:07:35Z</time>
  <course>187.89</course>
  <speed>0.022360679774997897</speed>
  <fix>3d</fix>
</trkpt>
<trkpt lat="33.810313" lon="-118.393867">
  <ele>-0.12</ele>
  <time>2026-09-02T22:07:35Z</time>
  <course>0.0</course>
  <speed>0.0</speed>
  <fix>3d</fix>
</trkpt>
<trkpt lat="33.810313" lon="-118.393867">
  <ele>-0.127</ele>
  <time>2026-09-02T22:07:35Z</time>
  <course>187.88</course>
  <speed>0.022360679774997897</speed>
  <fix>3d</fix>
</trkpt>
<trkpt lat="33.810313" lon="-118.393867">
  <ele>-0.12</ele>
  <time>2026-09-02T22:07:35Z</time>
  <course>0.0</course>
  <speed>0.0</speed>
  <fix>3d</fix>
</trkpt>
<trkpt lat="33.810313" lon="-118.393867">
  <ele>-0.123</ele>
  <time>2026-09-02T22:07:35Z</time>
  <course>187.87</course>
  <speed>0.022360679774997897</speed>
  <fix>3d</fix>
</trkpt>
<trkpt lat="33.810313" lon="-118.393867">
  <ele>-0.12</ele>
  <time>2026-09-02T22:07:35Z</time>
  <course>0.0</course>
  <speed>0.0</speed>
  <fix>3d</fix>
</trkpt>
<trkpt lat="33.810313" lon="-118.393867">
  <ele>-0.121</ele>
  <time>2026-09-02T22:07:35Z</time>
  <course>187.87</course>
  <speed>0.022360679774997897</speed>
  <fix>3d</fix>
</trkpt>
<trkpt lat="33.810313" lon="-118.393867">
  <ele>-0.12</ele>
  <time>2026-09-02T22:07:35Z</time>
  <course>0.0</course>
  <speed>0.0</speed>
  <fix>3d</fix>
</trkpt>
<trkpt lat="33.810313" lon="-118.393867">
  <ele>-0.121</ele>
  <time>2026-09-02T22:07:35Z</time>
  <course>187.86</course>
  <speed>0.022360679774997897</speed>
  <fix>3d</fix>
</trkpt>
<trkpt lat="33.810313" lon="-118.393867">
  <ele>-0.12</ele>
  <time>2026-09-02T22:07:35Z</time>
  <course>0.0</course>
  <speed>0.0</speed>
  <fix>3d</fix>
</trkpt>
<trkpt lat="33.810313" lon="-118.393867">
  <ele>-0.123</ele>
  <time>2026-09-02T22:07:35Z</time>
  <course>187.85</course>
  <speed>0.022360679774997897</speed>
  <fix>3d</fix>
</trkpt>
<trkpt lat="33.810313" lon="-118.393867">
  <ele>-0.12</ele>
  <time>2026-09-02T22:07:35Z</time>
  <course>0.0</course>
  <speed>0.0</speed>
  <fix>3d</fix>
</trkpt>
<trkpt lat="33.810313" lon="-118.393867">
  <ele>-0.124</ele>
  <time>2026-09-02T22:07:35Z</time>
  <course>187.84</course>
  <speed>0.022360679774997897</speed>
  <fix>3d</fix>
</trkpt>
<trkpt lat="33.810313" lon="-118.393867">
  <ele>-0.12</ele>
  <time>2026-09-02T22:07:35Z</time>
  <course>0.0</course>
  <speed>0.0</speed>
  <fix>3d</fix>
</trkpt>
<trkpt lat="33.810313" lon="-118.393867">
  <ele>-0.126</ele>
  <time>2026-09-02T22:07:35Z</time>
  <course>187.83</course>
  <speed>0.022360679774997897</speed>
  <fix>3d</fix>
</trkpt>
<trkpt lat="33.810313" lon="-118.393867">
  <ele>-0.12</ele>
  <time>2026-09-02T22:07:35Z</time>
  <course>0.0</course>
  <speed>0.0</speed>
  <fix>3d</fix>
</trkpt>
<trkpt lat="33.810313" lon="-118.393867">
  <ele>-0.127</ele>
  <time>2026-09-02T22:07:35Z</time>
  <course>187.83</course>
  <speed>0.022360679774997897</speed>
  <fix>3d</fix>
</trkpt>
<trkpt lat="33.810313" lon="-118.393867">
  <ele>-0.12</ele>
  <time>2026-09-02T22:07:35Z</time>
  <course>0.0</course>
  <speed>0.0</speed>
  <fix>3d</fix>
</trkpt>
<trkpt lat="33.810313" lon="-118.393867">
  <ele>-0.127</ele>
  <time>2026-09-02T22:07:35Z</time>
  <course>187.82</course>
  <speed>0.022360679774997897</speed>
  <fix>3d</fix>
</trkpt>
<trkpt lat="33.810313" lon="-118.393867">
  <ele>-0.12</ele>
  <time>2026-09-02T22:07:35Z</time>
  <course>0.0</course>
  <speed>0.0</speed>
  <fix>3d</fix>
</trkpt>
<trkpt lat="33.810313" lon="-118.393867">
  <ele>-0.127</ele>
  <time>2026-09-02T22:07:35Z</time>
  <course>187.81</course>
  <speed>0.022360679774997897</speed>
  <fix>3d</fix>
</trkpt>
<trkpt lat="33.810313" lon="-118.393867">
  <ele>-0.12</ele>
  <time>2026-09-02T22:07:35Z</time>
  <course>0.0</course>
  <speed>0.0</speed>
  <fix>3d</fix>
</trkpt>
<trkpt lat="33.810313" lon="-118.393867">
  <ele>-0.126</ele>
  <time>2026-09-02T22:07:35Z</time>
  <course>187.8</course>
  <speed>0.022360679774997897</speed>
  <fix>3d</fix>
</trkpt>
<trkpt lat="33.810313" lon="-118.393867">
  <ele>-0.12</ele>
  <time>2026-09-02T22:07:35Z</time>
  <course>0.0</course>
  <speed>0.0</speed>
  <fix>3d</fix>
</trkpt>
<trkpt lat="33.810313" lon="-118.393867">
  <ele>-0.124</ele>
  <time>2026-09-02T22:07:35Z</time>
  <course>187.8</course>
  <speed>0.022360679774997897</speed>
  <fix>3d</fix>
</trkpt>
<trkpt lat="33.810313" lon="-118.393867">
  <ele>-0.12</ele>
  <time>2026-09-02T22:07:35Z</time>
  <course>0.0</course>
  <speed>0.0</speed>
  <fix>3d</fix>
</trkpt>
<trkpt lat="33.810313" lon="-118.393867">
  <ele>-0.121</ele>
  <time>2026-09-02T22:07:35Z</time>
  <course>187.79</course>
  <speed>0.022360679774997897</speed>
  <fix>3d</fix>
</trkpt>
<trkpt lat="33.810313" lon="-118.393867">
  <ele>-0.12</ele>
  <time>2026-09-02T22:07:35Z</time>
  <course>0.0</course>
  <speed>0.0</speed>
  <fix>3d</fix>
</trkpt>
<trkpt lat="33.810313" lon="-118.393867">
  <ele>-0.119</ele>
  <time>2026-09-02T22:07:35Z</time>
  <course>187.78</course>
  <speed>0.022360679774997897</speed>
  <fix>3d</fix>
</trkpt>
<trkpt lat="33.810313" lon="-118.393867">
  <ele>-0.12</ele>
  <time>2026-09-02T22:07:35Z</time>
  <course>0.0</course>
  <speed>0.0</speed>
  <fix>3d</fix>
</trkpt>
<trkpt lat="33.810313" lon="-118.393867">
  <ele>-0.118</ele>
  <time>2026-09-02T22:07:35Z</time>
  <course>187.77</course>
  <speed>0.022360679774997897</speed>
  <fix>3d</fix>
</trkpt>
<trkpt lat="33.810313" lon="-118.393867">
  <ele>-0.12</ele>
  <time>2026-09-02T22:07:35Z</time>
  <course>0.0</course>
  <speed>0.0</speed>
  <fix>3d</fix>
</trkpt>
<trkpt lat="33.810313" lon="-118.393867">
  <ele>-0.118</ele>
  <time>2026-09-02T22:07:35Z</time>
  <course>187.76</course>
  <speed>0.022360679774997897</speed>
  <fix>3d</fix>
</trkpt>
<trkpt lat="33.810313" lon="-118.393867">
  <ele>-0.12</ele>
  <time>2026-09-02T22:07:35Z</time>
  <course>0.0</course>
  <speed>0.0</speed>
  <fix>3d</fix>
</trkpt>
<trkpt lat="33.810313" lon="-118.393867">
  <ele>-0.119</ele>
  <time>2026-09-02T22:07:35Z</time>
  <course>187.76</course>
  <speed>0.022360679774997897</speed>
  <fix>3d</fix>
</trkpt>
<trkpt lat="33.810313" lon="-118.393867">
  <ele>-0.12</ele>
  <time>2026-09-02T22:07:35Z</time>
  <course>0.0</course>
  <speed>0.0</speed>
  <fix>3d</fix>
</trkpt>
<trkpt lat="33.810313" lon="-118.393867">
  <ele>-0.12</ele>
  <time>2026-09-02T22:07:35Z</time>
  <course>187.75</course>
  <speed>0.022360679774997897</speed>
  <fix>3d</fix>
</trkpt>
<trkpt lat="33.810313" lon="-118.393867">
  <ele>-0.12</ele>
  <time>2026-09-02T22:07:35Z</time>
  <course>0.0</course>
  <speed>0.0</speed>
  <fix>3d</fix>
</trkpt>
<trkpt lat="33.810313" lon="-118.393867">
  <ele>-0.12</ele>
  <time>2026-09-02T22:07:35Z</time>
  <course>187.74</course>
  <speed>0.0282842712474619</speed>
  <fix>3d</fix>
</trkpt>
<trkpt lat="33.810313" lon="-118.393867">
  <ele>-0.12</ele>
  <time>2026-09-02T22:07:35Z</time>
  <course>0.0</course>
  <speed>0.0</speed>
  <fix>3d</fix>
</trkpt>
<trkpt lat="33.810313" lon="-118.393867">
  <ele>-0.12</ele>
  <time>2026-09-02T22:07:35Z</time>
  <course>187.74</course>
  <speed>0.0282842712474619</speed>
  <fix>3d</fix>
</trkpt>
<trkpt lat="33.810313" lon="-118.393867">
  <ele>-0.12</ele>
  <time>2026-09-02T22:07:35Z</time>
  <course>0.0</course>
  <speed>0.0</speed>
  <fix>3d</fix>
</trkpt>
<trkpt lat="33.810313" lon="-118.393867">
  <ele>-0.119</ele>
  <time>2026-09-02T22:07:35Z</time>
  <course>187.73</course>
  <speed>0.0282842712474619</speed>
  <fix>3d</fix>
</trkpt>
<trkpt lat="33.810313" lon="-118.393867">
  <ele>-0.12</ele>
  <time>2026-09-02T22:07:35Z</time>
  <course>0.0</course>
  <speed>0.0</speed>
  <fix>3d</fix>
</trkpt>
<trkpt lat="33.810313" lon="-118.393867">
  <ele>-0.118</ele>
  <time>2026-09-02T22:07:35Z</time>
  <course>187.72</course>
  <speed>0.0282842712474619</speed>
  <fix>3d</fix>
</trkpt>
<trkpt lat="33.810313" lon="-118.393867">
  <ele>-0.12</ele>
  <time>2026-09-02T22:07:35Z</time>
  <course>0.0</course>
  <speed>0.0</speed>
  <fix>3d</fix>
</trkpt>
<trkpt lat="33.810313" lon="-118.393867">
  <ele>-0.116</ele>
  <time>2026-09-02T22:07:35Z</time>
  <course>187.71</course>
  <speed>0.0282842712474619</speed>
  <fix>3d</fix>
</trkpt>
<trkpt lat="33.810313" lon="-118.393867">
  <ele>-0.12</ele>
  <time>2026-09-02T22:07:35Z</time>
  <course>0.0</course>
  <speed>0.0</speed>
  <fix>3d</fix>
</trkpt>
<trkpt lat="33.810313" lon="-118.393867">
  <ele>-0.113</ele>
  <time>2026-09-02T22:07:35Z</time>
  <course>187.71</course>
  <speed>0.0282842712474619</speed>
  <fix>3d</fix>
</trkpt>
<trkpt lat="33.810313" lon="-118.393867">
  <ele>-0.12</ele>
  <time>2026-09-02T22:07:35Z</time>
  <course>0.0</course>
  <speed>0.0</speed>
  <fix>3d</fix>
</trkpt>
<trkpt lat="33.810313" lon="-118.393867">
  <ele>-0.112</ele>
  <time>2026-09-02T22:07:35Z</time>
  <course>187.7</course>
  <speed>0.0282842712474619</speed>
  <fix>3d</fix>
</trkpt>
<trkpt lat="33.810313" lon="-118.393867">
  <ele>-0.12</ele>
  <time>2026-09-02T22:07:35Z</time>
  <course>0.0</course>
  <speed>0.0</speed>
  <fix>3d</fix>
</trkpt>
<trkpt lat="33.810313" lon="-118.393867">
  <ele>-0.113</ele>
  <time>2026-09-02T22:07:35Z</time>
  <course>187.69</course>
  <speed>0.0282842712474619</speed>
  <fix>3d</fix>
</trkpt>
<trkpt lat="33.810313" lon="-118.393867">
  <ele>-0.12</ele>
  <time>2026-09-02T22:07:35Z</time>
  <course>0.0</course>
  <speed>0.0</speed>
  <fix>3d</fix>
</trkpt>
<trkpt lat="33.810313" lon="-118.393867">
  <ele>-0.115</ele>
  <time>2026-09-02T22:07:35Z</time>
  <course>187.68</course>
  <speed>0.0282842712474619</speed>
  <fix>3d</fix>
</trkpt>
<trkpt lat="33.810313" lon="-118.393867">
  <ele>-0.12</ele>
  <time>2026-09-02T22:07:35Z</time>
  <course>0.0</course>
  <speed>0.0</speed>
  <fix>3d</fix>
</trkpt>
<trkpt lat="33.810313" lon="-118.393867">
  <ele>-0.119</ele>
  <time>2026-09-02T22:07:35Z</time>
  <course>187.68</course>
  <speed>0.0282842712474619</speed>
  <fix>3d</fix>
</trkpt>
<trkpt lat="33.810313" lon="-118.393867">
  <ele>-0.12</ele>
  <time>2026-09-02T22:07:35Z</time>
  <course>0.0</course>
  <speed>0.0</speed>
  <fix>3d</fix>
</trkpt>
<trkpt lat="33.810313" lon="-118.393867">
  <ele>-0.124</ele>
  <time>2026-09-02T22:07:35Z</time>
  <course>187.67</course>
  <speed>0.0282842712474619</speed>
  <fix>3d</fix>
</trkpt>
<trkpt lat="33.810313" lon="-118.393867">
  <ele>-0.12</ele>
  <time>2026-09-02T22:07:35Z</time>
  <course>0.0</course>
  <speed>0.0</speed>
  <fix>3d</fix>
</trkpt>
<trkpt lat="33.810313" lon="-118.393867">
  <ele>-0.129</ele>
  <time>2026-09-02T22:07:35Z</time>
  <course>187.66</course>
  <speed>0.0282842712474619</speed>
  <fix>3d</fix>
</trkpt>
<trkpt lat="33.810313" lon="-118.393867">
  <ele>-0.12</ele>
  <time>2026-09-02T22:07:35Z</time>
  <course>0.0</course>
  <speed>0.0</speed>
  <fix>3d</fix>
</trkpt>
<trkpt lat="33.810313" lon="-118.393867">
  <ele>-0.133</ele>
  <time>2026-09-02T22:07:35Z</time>
  <course>187.66</course>
  <speed>0.0282842712474619</speed>
  <fix>3d</fix>
</trkpt>
<trkpt lat="33.810313" lon="-118.393867">
  <ele>-0.12</ele>
  <time>2026-09-02T22:07:35Z</time>
  <course>0.0</course>
  <speed>0.0</speed>
  <fix>3d</fix>
</trkpt>
<trkpt lat="33.810313" lon="-118.393867">
  <ele>-0.135</ele>
  <time>2026-09-02T22:07:35Z</time>
  <course>187.65</course>
  <speed>0.0282842712474619</speed>
  <fix>3d</fix>
</trkpt>
<trkpt lat="33.810313" lon="-118.393867">
  <ele>-0.12</ele>
  <time>2026-09-02T22:07:35Z</time>
  <course>0.0</course>
  <speed>0.0</speed>
  <fix>3d</fix>
</trkpt>
<trkpt lat="33.810313" lon="-118.393867">
  <ele>-0.135</ele>
  <time>2026-09-02T22:07:35Z</time>
  <course>187.64</course>
  <speed>0.0282842712474619</speed>
  <fix>3d</fix>
</trkpt>
<trkpt lat="33.810313" lon="-118.393867">
  <ele>-0.12</ele>
  <time>2026-09-02T22:07:35Z</time>
  <course>0.0</course>
  <speed>0.0</speed>
  <fix>3d</fix>
</trkpt>
<trkpt lat="33.810313" lon="-118.393867">
  <ele>-0.135</ele>
  <time>2026-09-02T22:07:35Z</time>
  <course>187.64</course>
  <speed>0.0282842712474619</speed>
  <fix>3d</fix>
</trkpt>
<trkpt lat="33.810313" lon="-118.393867">
  <ele>-0.12</ele>
  <time>2026-09-02T22:07:35Z</time>
  <course>0.0</course>
  <speed>0.0</speed>
  <fix>3d</fix>
</trkpt>
<trkpt lat="33.810313" lon="-118.393867">
  <ele>-0.133</ele>
  <time>2026-09-02T22:07:35Z</time>
  <course>187.63</course>
  <speed>0.0282842712474619</speed>
  <fix>3d</fix>
</trkpt>
<trkpt lat="33.810313" lon="-118.393867">
  <ele>-0.12</ele>
  <time>2026-09-02T22:07:35Z</time>
  <course>0.0</course>
  <speed>0.0</speed>
  <fix>3d</fix>
</trkpt>
<trkpt lat="33.810313" lon="-118.393867">
  <ele>-0.132</ele>
  <time>2026-09-02T22:07:35Z</time>
  <course>187.63</course>
  <speed>0.03605551275463989</speed>
  <fix>3d</fix>
</trkpt>
<trkpt lat="33.810313" lon="-118.393867">
  <ele>-0.12</ele>
  <time>2026-09-02T22:07:35Z</time>
  <course>0.0</course>
  <speed>0.0</speed>
  <fix>3d</fix>
</trkpt>
<trkpt lat="33.810313" lon="-118.393867">
  <ele>-0.132</ele>
  <time>2026-09-02T22:07:35Z</time>
  <course>187.62</course>
  <speed>0.03605551275463989</speed>
  <fix>3d</fix>
</trkpt>
<trkpt lat="33.810313" lon="-118.393867">
  <ele>-0.12</ele>
  <time>2026-09-02T22:07:35Z</time>
  <course>0.0</course>
  <speed>0.0</speed>
  <fix>3d</fix>
</trkpt>
<trkpt lat="33.810313" lon="-118.393867">
  <ele>-0.133</ele>
  <time>2026-09-02T22:07:35Z</time>
  <course>187.61</course>
  <speed>0.03605551275463989</speed>
  <fix>3d</fix>
</trkpt>
<trkpt lat="33.810313" lon="-118.393867">
  <ele>-0.12</ele>
  <time>2026-09-02T22:07:35Z</time>
  <course>0.0</course>
  <speed>0.0</speed>
  <fix>3d</fix>
</trkpt>
<trkpt lat="33.810313" lon="-118.393867">
  <ele>-0.134</ele>
  <time>2026-09-02T22:07:35Z</time>
  <course>187.6</course>
  <speed>0.03605551275463989</speed>
  <fix>3d</fix>
</trkpt>
<trkpt lat="33.810313" lon="-118.393867">
  <ele>-0.12</ele>
  <time>2026-09-02T22:07:35Z</time>
  <course>0.0</course>
  <speed>0.0</speed>
  <fix>3d</fix>
</trkpt>
<trkpt lat="33.810313" lon="-118.393867">
  <ele>-0.134</ele>
  <time>2026-09-02T22:07:35Z</time>
  <course>187.6</course>
  <speed>0.03605551275463989</speed>
  <fix>3d</fix>
</trkpt>
<trkpt lat="33.810313" lon="-118.393867">
  <ele>-0.12</ele>
  <time>2026-09-02T22:07:35Z</time>
  <course>0.0</course>
  <speed>0.0</speed>
  <fix>3d</fix>
</trkpt>
<trkpt lat="33.810313" lon="-118.393867">
  <ele>-0.134</ele>
  <time>2026-09-02T22:07:35Z</time>
  <course>187.59</course>
  <speed>0.03605551275463989</speed>
  <fix>3d</fix>
</trkpt>
<trkpt lat="33.810313" lon="-118.393867">
  <ele>-0.12</ele>
  <time>2026-09-02T22:07:35Z</time>
  <course>0.0</course>
  <speed>0.0</speed>
  <fix>3d</fix>
</trkpt>
<trkpt lat="33.810313" lon="-118.393867">
  <ele>-0.132</ele>
  <time>2026-09-02T22:07:35Z</time>
  <course>187.58</course>
  <speed>0.03605551275463989</speed>
  <fix>3d</fix>
</trkpt>
<trkpt lat="33.810313" lon="-118.393867">
  <ele>-0.12</ele>
  <time>2026-09-02T22:07:35Z</time>
  <course>0.0</course>
  <speed>0.0</speed>
  <fix>3d</fix>
</trkpt>
<trkpt lat="33.810313" lon="-118.393867">
  <ele>-0.129</ele>
  <time>2026-09-02T22:07:35Z</time>
  <course>187.58</course>
  <speed>0.03605551275463989</speed>
  <fix>3d</fix>
</trkpt>
<trkpt lat="33.810313" lon="-118.393867">
  <ele>-0.12</ele>
  <time>2026-09-02T22:07:35Z</time>
  <course>0.0</course>
  <speed>0.0</speed>
  <fix>3d</fix>
</trkpt>
<trkpt lat="33.810313" lon="-118.393867">
  <ele>-0.127</ele>
  <time>2026-09-02T22:07:35Z</time>
  <course>187.57</course>
  <speed>0.03605551275463989</speed>
  <fix>3d</fix>
</trkpt>
<trkpt lat="33.810313" lon="-118.393867">
  <ele>-0.12</ele>
  <time>2026-09-02T22:07:35Z</time>
  <course>0.0</course>
  <speed>0.0</speed>
  <fix>3d</fix>
</trkpt>
<trkpt lat="33.810313" lon="-118.393867">
  <ele>-0.125</ele>
  <time>2026-09-02T22:07:35Z</time>
  <course>187.56</course>
  <speed>0.03605551275463989</speed>
  <fix>3d</fix>
</trkpt>
<trkpt lat="33.810313" lon="-118.393867">
  <ele>-0.12</ele>
  <time>2026-09-02T22:07:35Z</time>
  <course>0.0</course>
  <speed>0.0</speed>
  <fix>3d</fix>
</trkpt>
<trkpt lat="33.810313" lon="-118.393867">
  <ele>-0.122</ele>
  <time>2026-09-02T22:07:35Z</time>
  <course>187.56</course>
  <speed>0.03605551275463989</speed>
  <fix>3d</fix>
</trkpt>
<trkpt lat="33.810313" lon="-118.393867">
  <ele>-0.12</ele>
  <time>2026-09-02T22:07:35Z</time>
  <course>0.0</course>
  <speed>0.0</speed>
  <fix>3d</fix>
</trkpt>
<trkpt lat="33.810313" lon="-118.393867">
  <ele>-0.119</ele>
  <time>2026-09-02T22:07:35Z</time>
  <course>187.55</course>
  <speed>0.03605551275463989</speed>
  <fix>3d</fix>
</trkpt>
<trkpt lat="33.810313" lon="-118.393867">
  <ele>-0.12</ele>
  <time>2026-09-02T22:07:35Z</time>
  <course>0.0</course>
  <speed>0.0</speed>
  <fix>3d</fix>
</trkpt>
<trkpt lat="33.810313" lon="-118.393867">
  <ele>-0.117</ele>
  <time>2026-09-02T22:07:35Z</time>
  <course>187.54</course>
  <speed>0.03605551275463989</speed>
  <fix>3d</fix>
</trkpt>
<trkpt lat="33.810313" lon="-118.393867">
  <ele>-0.12</ele>
  <time>2026-09-02T22:07:35Z</time>
  <course>0.0</course>
  <speed>0.0</speed>
  <fix>3d</fix>
</trkpt>
<trkpt lat="33.810313" lon="-118.393867">
  <ele>-0.117</ele>
  <time>2026-09-02T22:07:35Z</time>
  <course>187.54</course>
  <speed>0.03605551275463989</speed>
  <fix>3d</fix>
</trkpt>
<trkpt lat="33.810313" lon="-118.393867">
  <ele>-0.12</ele>
  <time>2026-09-02T22:07:35Z</time>
  <course>0.0</course>
  <speed>0.0</speed>
  <fix>3d</fix>
</trkpt>
<trkpt lat="33.810313" lon="-118.393867">
  <ele>-0.118</ele>
  <time>2026-09-02T22:07:35Z</time>
  <course>187.53</course>
  <speed>0.03605551275463989</speed>
  <fix>3d</fix>
</trkpt>
<trkpt lat="33.810313" lon="-118.393867">
  <ele>-0.12</ele>
  <time>2026-09-02T22:07:35Z</time>
  <course>0.0</course>
  <speed>0.0</speed>
  <fix>3d</fix>
</trkpt>
<trkpt lat="33.810313" lon="-118.393867">
  <ele>-0.119</ele>
  <time>2026-09-02T22:07:35Z</time>
  <course>187.52</course>
  <speed>0.03605551275463989</speed>
  <fix>3d</fix>
</trkpt>
<trkpt lat="33.810313" lon="-118.393867">
  <ele>-0.12</ele>
  <time>2026-09-02T22:07:35Z</time>
  <course>0.0</course>
  <speed>0.0</speed>
  <fix>3d</fix>
</trkpt>
<trkpt lat="33.810313" lon="-118.393867">
  <ele>-0.12</ele>
  <time>2026-09-02T22:07:35Z</time>
  <course>187.52</course>
  <speed>0.03605551275463989</speed>
  <fix>3d</fix>
</trkpt>
<trkpt lat="33.810313" lon="-118.393867">
  <ele>-0.12</ele>
  <time>2026-09-02T22:07:35Z</time>
  <course>0.0</course>
  <speed>0.0</speed>
  <fix>3d</fix>
</trkpt>
<trkpt lat="33.810313" lon="-118.393867">
  <ele>-0.121</ele>
  <time>2026-09-02T22:07:35Z</time>
  <course>187.51</course>
  <speed>0.03605551275463989</speed>
  <fix>3d</fix>
</trkpt>
<trkpt lat="33.810313" lon="-118.393867">
  <ele>-0.12</ele>
  <time>2026-09-02T22:07:35Z</time>
  <course>0.0</course>
  <speed>0.0</speed>
  <fix>3d</fix>
</trkpt>
<trkpt lat="33.810313" lon="-118.393867">
  <ele>-0.121</ele>
  <time>2026-09-02T22:07:35Z</time>
  <course>187.51</course>
  <speed>0.03605551275463989</speed>
  <fix>3d</fix>
</trkpt>
<trkpt lat="33.810313" lon="-118.393867">
  <ele>-0.12</ele>
  <time>2026-09-02T22:07:35Z</time>
  <course>0.0</course>
  <speed>0.0</speed>
  <fix>3d</fix>
</trkpt>
<trkpt lat="33.810313" lon="-118.393867">
  <ele>-0.121</ele>
  <time>2026-09-02T22:07:35Z</time>
  <course>187.5</course>
  <speed>0.03605551275463989</speed>
  <fix>3d</fix>
</trkpt>
<trkpt lat="33.810313" lon="-118.393867">
  <ele>-0.12</ele>
  <time>2026-09-02T22:07:35Z</time>
  <course>0.0</course>
  <speed>0.0</speed>
  <fix>3d</fix>
</trkpt>
<trkpt lat="33.810313" lon="-118.393867">
  <ele>-0.121</ele>
  <time>2026-09-02T22:07:35Z</time>
  <course>187.49</course>
  <speed>0.03605551275463989</speed>
  <fix>3d</fix>
</trkpt>
<trkpt lat="33.810313" lon="-118.393867">
  <ele>-0.12</ele>
  <time>2026-09-02T22:07:35Z</time>
  <course>0.0</course>
  <speed>0.0</speed>
  <fix>3d</fix>
</trkpt>
<trkpt lat="33.810313" lon="-118.393867">
  <ele>-0.121</ele>
  <time>2026-09-02T22:07:35Z</time>
  <course>187.49</course>
  <speed>0.03605551275463989</speed>
  <fix>3d</fix>
</trkpt>
<trkpt lat="33.810313" lon="-118.393867">
  <ele>-0.12</ele>
  <time>2026-09-02T22:07:35Z</time>
  <course>0.0</course>
  <speed>0.0</speed>
  <fix>3d</fix>
</trkpt>
<trkpt lat="33.810313" lon="-118.393867">
  <ele>-0.121</ele>
  <time>2026-09-02T22:07:35Z</time>
  <course>187.48</course>
  <speed>0.03605551275463989</speed>
  <fix>3d</fix>
</trkpt>
<trkpt lat="33.810313" lon="-118.393867">
  <ele>-0.12</ele>
  <time>2026-09-02T22:07:35Z</time>
  <course>0.0</course>
  <speed>0.0</speed>
  <fix>3d</fix>
</trkpt>
<trkpt lat="33.810313" lon="-118.393867">
  <ele>-0.122</ele>
  <time>2026-09-02T22:07:35Z</time>
  <course>187.47</course>
  <speed>0.03605551275463989</speed>
  <fix>3d</fix>
</trkpt>
<trkpt lat="33.810313" lon="-118.393867">
  <ele>-0.12</ele>
  <time>2026-09-02T22:07:35Z</time>
  <course>0.0</course>
  <speed>0.0</speed>
  <fix>3d</fix>
</trkpt>
<trkpt lat="33.810313" lon="-118.393867">
  <ele>-0.124</ele>
  <time>2026-09-02T22:07:35Z</time>
  <course>187.47</course>
  <speed>0.03605551275463989</speed>
  <fix>3d</fix>
</trkpt>
<trkpt lat="33.810313" lon="-118.393867">
  <ele>-0.12</ele>
  <time>2026-09-02T22:07:35Z</time>
  <course>0.0</course>
  <speed>0.0</speed>
  <fix>3d</fix>
</trkpt>
<trkpt lat="33.810313" lon="-118.393867">
  <ele>-0.127</ele>
  <time>2026-09-02T22:07:35Z</time>
  <course>187.46</course>
  <speed>0.03605551275463989</speed>
  <fix>3d</fix>
</trkpt>
<trkpt lat="33.810313" lon="-118.393867">
  <ele>-0.12</ele>
  <time>2026-09-02T22:07:35Z</time>
  <course>0.0</course>
  <speed>0.0</speed>
  <fix>3d</fix>
</trkpt>
<trkpt lat="33.810313" lon="-118.393867">
  <ele>-0.129</ele>
  <time>2026-09-02T22:07:35Z</time>
  <course>187.45</course>
  <speed>0.03605551275463989</speed>
  <fix>3d</fix>
</trkpt>
<trkpt lat="33.810313" lon="-118.393867">
  <ele>-0.12</ele>
  <time>2026-09-02T22:07:35Z</time>
  <course>0.0</course>
  <speed>0.0</speed>
  <fix>3d</fix>
</trkpt>
<trkpt lat="33.810313" lon="-118.393867">
  <ele>-0.131</ele>
  <time>2026-09-02T22:07:35Z</time>
  <course>187.45</course>
  <speed>0.03605551275463989</speed>
  <fix>3d</fix>
</trkpt>
<trkpt lat="33.810313" lon="-118.393867">
  <ele>-0.12</ele>
  <time>2026-09-02T22:07:35Z</time>
  <course>0.0</course>
  <speed>0.0</speed>
  <fix>3d</fix>
</trkpt>
<trkpt lat="33.810313" lon="-118.393867">
  <ele>-0.132</ele>
  <time>2026-09-02T22:07:35Z</time>
  <course>187.44</course>
  <speed>0.03605551275463989</speed>
  <fix>3d</fix>
</trkpt>
<trkpt lat="33.810313" lon="-118.393867">
  <ele>-0.12</ele>
  <time>2026-09-02T22:07:35Z</time>
  <course>0.0</course>
  <speed>0.0</speed>
  <fix>3d</fix>
</trkpt>
<trkpt lat="33.810313" lon="-118.393867">
  <ele>-0.132</ele>
  <time>2026-09-02T22:07:35Z</time>
  <course>187.44</course>
  <speed>0.03605551275463989</speed>
  <fix>3d</fix>
</trkpt>
<trkpt lat="33.810313" lon="-118.393867">
  <ele>-0.12</ele>
  <time>2026-09-02T22:07:35Z</time>
  <course>0.0</course>
  <speed>0.0</speed>
  <fix>3d</fix>
</trkpt>
<trkpt lat="33.810313" lon="-118.393867">
  <ele>-0.132</ele>
  <time>2026-09-02T22:07:35Z</time>
  <course>187.43</course>
  <speed>0.03605551275463989</speed>
  <fix>3d</fix>
</trkpt>
<trkpt lat="33.810313" lon="-118.393867">
  <ele>-0.12</ele>
  <time>2026-09-02T22:07:35Z</time>
  <course>0.0</course>
  <speed>0.0</speed>
  <fix>3d</fix>
</trkpt>
<trkpt lat="33.810313" lon="-118.393867">
  <ele>-0.132</ele>
  <time>2026-09-02T22:07:35Z</time>
  <course>187.42</course>
  <speed>0.03605551275463989</speed>
  <fix>3d</fix>
</trkpt>
<trkpt lat="33.810313" lon="-118.393867">
  <ele>-0.12</ele>
  <time>2026-09-02T22:07:35Z</time>
  <course>0.0</course>
  <speed>0.0</speed>
  <fix>3d</fix>
</trkpt>
<trkpt lat="33.810313" lon="-118.393867">
  <ele>-0.131</ele>
  <time>2026-09-02T22:07:35Z</time>
  <course>187.42</course>
  <speed>0.03605551275463989</speed>
  <fix>3d</fix>
</trkpt>
<trkpt lat="33.810313" lon="-118.393867">
  <ele>-0.12</ele>
  <time>2026-09-02T22:07:35Z</time>
  <course>0.0</course>
  <speed>0.0</speed>
  <fix>3d</fix>
</trkpt>
<trkpt lat="33.810313" lon="-118.393867">
  <ele>-0.131</ele>
  <time>2026-09-02T22:07:35Z</time>
  <course>187.41</course>
  <speed>0.03605551275463989</speed>
  <fix>3d</fix>
</trkpt>
<trkpt lat="33.810313" lon="-118.393867">
  <ele>-0.12</ele>
  <time>2026-09-02T22:07:35Z</time>
  <course>0.0</course>
  <speed>0.0</speed>
  <fix>3d</fix>
</trkpt>
<trkpt lat="33.810313" lon="-118.393867">
  <ele>-0.132</ele>
  <time>2026-09-02T22:07:35Z</time>
  <course>187.41</course>
  <speed>0.03605551275463989</speed>
  <fix>3d</fix>
</trkpt>
<trkpt lat="33.810313" lon="-118.393867">
  <ele>-0.12</ele>
  <time>2026-09-02T22:07:35Z</time>
  <course>0.0</course>
  <speed>0.0</speed>
  <fix>3d</fix>
</trkpt>
<trkpt lat="33.810313" lon="-118.393867">
  <ele>-0.134</ele>
  <time>2026-09-02T22:07:35Z</time>
  <course>187.4</course>
  <speed>0.03605551275463989</speed>
  <fix>3d</fix>
</trkpt>
<trkpt lat="33.810313" lon="-118.393867">
  <ele>-0.12</ele>
  <time>2026-09-02T22:07:35Z</time>
  <course>0.0</course>
  <speed>0.0</speed>
  <fix>3d</fix>
</trkpt>
<trkpt lat="33.810313" lon="-118.393867">
  <ele>-0.137</ele>
  <time>2026-09-02T22:07:35Z</time>
  <course>187.39</course>
  <speed>0.03605551275463989</speed>
  <fix>3d</fix>
</trkpt>
<trkpt lat="33.810313" lon="-118.393867">
  <ele>-0.12</ele>
  <time>2026-09-02T22:07:35Z</time>
  <course>0.0</course>
  <speed>0.0</speed>
  <fix>3d</fix>
</trkpt>
<trkpt lat="33.810313" lon="-118.393867">
  <ele>-0.139</ele>
  <time>2026-09-02T22:07:35Z</time>
  <course>187.39</course>
  <speed>0.03605551275463989</speed>
  <fix>3d</fix>
</trkpt>
<trkpt lat="33.810313" lon="-118.393867">
  <ele>-0.12</ele>
  <time>2026-09-02T22:07:35Z</time>
  <course>0.0</course>
  <speed>0.0</speed>
  <fix>3d</fix>
</trkpt>
<trkpt lat="33.810313" lon="-118.393867">
  <ele>-0.141</ele>
  <time>2026-09-02T22:07:35Z</time>
  <course>187.38</course>
  <speed>0.03605551275463989</speed>
  <fix>3d</fix>
</trkpt>
<trkpt lat="33.810313" lon="-118.393867">
  <ele>-0.12</ele>
  <time>2026-09-02T22:07:35Z</time>
  <course>0.0</course>
  <speed>0.0</speed>
  <fix>3d</fix>
</trkpt>
<trkpt lat="33.810313" lon="-118.393867">
  <ele>-0.141</ele>
  <time>2026-09-02T22:07:35Z</time>
  <course>187.38</course>
  <speed>0.03605551275463989</speed>
  <fix>3d</fix>
</trkpt>
<trkpt lat="33.810313" lon="-118.393867">
  <ele>-0.12</ele>
  <time>2026-09-02T22:07:35Z</time>
  <course>0.0</course>
  <speed>0.0</speed>
  <fix>3d</fix>
</trkpt>
<trkpt lat="33.810313" lon="-118.393867">
  <ele>-0.139</ele>
  <time>2026-09-02T22:07:35Z</time>
  <course>187.37</course>
  <speed>0.03605551275463989</speed>
  <fix>3d</fix>
</trkpt>
<trkpt lat="33.810313" lon="-118.393867">
  <ele>-0.12</ele>
  <time>2026-09-02T22:07:35Z</time>
  <course>0.0</course>
  <speed>0.0</speed>
  <fix>3d</fix>
</trkpt>
<trkpt lat="33.810313" lon="-118.393867">
  <ele>-0.136</ele>
  <time>2026-09-02T22:07:35Z</time>
  <course>187.36</course>
  <speed>0.03605551275463989</speed>
  <fix>3d</fix>
</trkpt>
<trkpt lat="33.810313" lon="-118.393867">
  <ele>-0.12</ele>
  <time>2026-09-02T22:07:35Z</time>
  <course>0.0</course>
  <speed>0.0</speed>
  <fix>3d</fix>
</trkpt>
<trkpt lat="33.810313" lon="-118.393867">
  <ele>-0.132</ele>
  <time>2026-09-02T22:07:35Z</time>
  <course>187.36</course>
  <speed>0.03605551275463989</speed>
  <fix>3d</fix>
</trkpt>
<trkpt lat="33.810313" lon="-118.393867">
  <ele>-0.12</ele>
  <time>2026-09-02T22:07:35Z</time>
  <course>0.0</course>
  <speed>0.0</speed>
  <fix>3d</fix>
</trkpt>
<trkpt lat="33.810313" lon="-118.393867">
  <ele>-0.129</ele>
  <time>2026-09-02T22:07:35Z</time>
  <course>187.35</course>
  <speed>0.03605551275463989</speed>
  <fix>3d</fix>
</trkpt>
<trkpt lat="33.810313" lon="-118.393867">
  <ele>-0.12</ele>
  <time>2026-09-02T22:07:35Z</time>
  <course>0.0</course>
  <speed>0.0</speed>
  <fix>3d</fix>
</trkpt>
<trkpt lat="33.810313" lon="-118.393867">
  <ele>-0.127</ele>
  <time>2026-09-02T22:07:35Z</time>
  <course>187.35</course>
  <speed>0.03605551275463989</speed>
  <fix>3d</fix>
</trkpt>
<trkpt lat="33.810313" lon="-118.393867">
  <ele>-0.12</ele>
  <time>2026-09-02T22:07:35Z</time>
  <course>0.0</course>
  <speed>0.0</speed>
  <fix>3d</fix>
</trkpt>
<trkpt lat="33.810313" lon="-118.393867">
  <ele>-0.126</ele>
  <time>2026-09-02T22:07:35Z</time>
  <course>187.34</course>
  <speed>0.03605551275463989</speed>
  <fix>3d</fix>
</trkpt>
<trkpt lat="33.810313" lon="-118.393867">
  <ele>-0.12</ele>
  <time>2026-09-02T22:07:35Z</time>
  <course>0.0</course>
  <speed>0.0</speed>
  <fix>3d</fix>
</trkpt>
<trkpt lat="33.810313" lon="-118.393867">
  <ele>-0.126</ele>
  <time>2026-09-02T22:07:35Z</time>
  <course>187.33</course>
  <speed>0.03605551275463989</speed>
  <fix>3d</fix>
</trkpt>
<trkpt lat="33.810313" lon="-118.393867">
  <ele>-0.12</ele>
  <time>2026-09-02T22:07:35Z</time>
  <course>0.0</course>
  <speed>0.0</speed>
  <fix>3d</fix>
</trkpt>
<trkpt lat="33.810313" lon="-118.393867">
  <ele>-0.127</ele>
  <time>2026-09-02T22:07:35Z</time>
  <course>187.33</course>
  <speed>0.03605551275463989</speed>
  <fix>3d</fix>
</trkpt>
<trkpt lat="33.810313" lon="-118.393867">
  <ele>-0.12</ele>
  <time>2026-09-02T22:07:35Z</time>
  <course>0.0</course>
  <speed>0.0</speed>
  <fix>3d</fix>
</trkpt>
<trkpt lat="33.810313" lon="-118.393867">
  <ele>-0.126</ele>
  <time>2026-09-02T22:07:35Z</time>
  <course>187.32</course>
  <speed>0.03605551275463989</speed>
  <fix>3d</fix>
</trkpt>
<trkpt lat="33.810313" lon="-118.393867">
  <ele>-0.12</ele>
  <time>2026-09-02T22:07:35Z</time>
  <course>0.0</course>
  <speed>0.0</speed>
  <fix>3d</fix>
</trkpt>
<trkpt lat="33.810313" lon="-118.393867">
  <ele>-0.126</ele>
  <time>2026-09-02T22:07:35Z</time>
  <course>187.32</course>
  <speed>0.03605551275463989</speed>
  <fix>3d</fix>
</trkpt>
<trkpt lat="33.810313" lon="-118.393867">
  <ele>-0.12</ele>
  <time>2026-09-02T22:07:35Z</time>
  <course>0.0</course>
  <speed>0.0</speed>
  <fix>3d</fix>
</trkpt>
<trkpt lat="33.810313" lon="-118.393867">
  <ele>-0.125</ele>
  <time>2026-09-02T22:07:35Z</time>
  <course>187.31</course>
  <speed>0.03605551275463989</speed>
  <fix>3d</fix>
</trkpt>
<trkpt lat="33.810313" lon="-118.393867">
  <ele>-0.12</ele>
  <time>2026-09-02T22:07:35Z</time>
  <course>0.0</course>
  <speed>0.0</speed>
  <fix>3d</fix>
</trkpt>
<trkpt lat="33.810313" lon="-118.393867">
  <ele>-0.124</ele>
  <time>2026-09-02T22:07:35Z</time>
  <course>187.31</course>
  <speed>0.03605551275463989</speed>
  <fix>3d</fix>
</trkpt>
<trkpt lat="33.810313" lon="-118.393867">
  <ele>-0.12</ele>
  <time>2026-09-02T22:07:35Z</time>
  <course>0.0</course>
  <speed>0.0</speed>
  <fix>3d</fix>
</trkpt>
<trkpt lat="33.810313" lon="-118.393867">
  <ele>-0.122</ele>
  <time>2026-09-02T22:07:35Z</time>
  <course>187.3</course>
  <speed>0.03605551275463989</speed>
  <fix>3d</fix>
</trkpt>
<trkpt lat="33.810313" lon="-118.393867">
  <ele>-0.12</ele>
  <time>2026-09-02T22:07:35Z</time>
  <course>0.0</course>
  <speed>0.0</speed>
  <fix>3d</fix>
</trkpt>
<trkpt lat="33.810313" lon="-118.393867">
  <ele>-0.121</ele>
  <time>2026-09-02T22:07:35Z</time>
  <course>187.29</course>
  <speed>0.03605551275463989</speed>
  <fix>3d</fix>
</trkpt>
<trkpt lat="33.810313" lon="-118.393867">
  <ele>-0.12</ele>
  <time>2026-09-02T22:07:35Z</time>
  <course>0.0</course>
  <speed>0.0</speed>
  <fix>3d</fix>
</trkpt>
<trkpt lat="33.810313" lon="-118.393867">
  <ele>-0.122</ele>
  <time>2026-09-02T22:07:35Z</time>
  <course>187.29</course>
  <speed>0.03605551275463989</speed>
  <fix>3d</fix>
</trkpt>
<trkpt lat="33.810313" lon="-118.393867">
  <ele>-0.12</ele>
  <time>2026-09-02T22:07:35Z</time>
  <course>0.0</course>
  <speed>0.0</speed>
  <fix>3d</fix>
</trkpt>
<trkpt lat="33.810313" lon="-118.393867">
  <ele>-0.124</ele>
  <time>2026-09-02T22:07:35Z</time>
  <course>187.28</course>
  <speed>0.03605551275463989</speed>
  <fix>3d</fix>
</trkpt>
<trkpt lat="33.810313" lon="-118.393867">
  <ele>-0.12</ele>
  <time>2026-09-02T22:07:35Z</time>
  <course>0.0</course>
  <speed>0.0</speed>
  <fix>3d</fix>
</trkpt>
<trkpt lat="33.810313" lon="-118.393867">
  <ele>-0.128</ele>
  <time>2026-09-02T22:07:35Z</time>
  <course>187.28</course>
  <speed>0.03605551275463989</speed>
  <fix>3d</fix>
</trkpt>
<trkpt lat="33.810313" lon="-118.393867">
  <ele>-0.12</ele>
  <time>2026-09-02T22:07:35Z</time>
  <course>0.0</course>
  <speed>0.0</speed>
  <fix>3d</fix>
</trkpt>
<trkpt lat="33.810313" lon="-118.393867">
  <ele>-0.13</ele>
  <time>2026-09-02T22:07:35Z</time>
  <course>187.27</course>
  <speed>0.03605551275463989</speed>
  <fix>3d</fix>
</trkpt>
<trkpt lat="33.810313" lon="-118.393867">
  <ele>-0.12</ele>
  <time>2026-09-02T22:07:35Z</time>
  <course>0.0</course>
  <speed>0.0</speed>
  <fix>3d</fix>
</trkpt>
<trkpt lat="33.810313" lon="-118.393867">
  <ele>-0.133</ele>
  <time>2026-09-02T22:07:35Z</time>
  <course>187.27</course>
  <speed>0.03605551275463989</speed>
  <fix>3d</fix>
</trkpt>
<trkpt lat="33.810313" lon="-118.393867">
  <ele>-0.12</ele>
  <time>2026-09-02T22:07:35Z</time>
  <course>0.0</course>
  <speed>0.0</speed>
  <fix>3d</fix>
</trkpt>
<trkpt lat="33.810313" lon="-118.393867">
  <ele>-0.135</ele>
  <time>2026-09-02T22:07:35Z</time>
  <course>187.26</course>
  <speed>0.03605551275463989</speed>
  <fix>3d</fix>
</trkpt>
<trkpt lat="33.810313" lon="-118.393867">
  <ele>-0.12</ele>
  <time>2026-09-02T22:07:35Z</time>
  <course>0.0</course>
  <speed>0.0</speed>
  <fix>3d</fix>
</trkpt>
<trkpt lat="33.810313" lon="-118.393867">
  <ele>-0.136</ele>
  <time>2026-09-02T22:07:35Z</time>
  <course>187.26</course>
  <speed>0.03605551275463989</speed>
  <fix>3d</fix>
</trkpt>
<trkpt lat="33.810313" lon="-118.393867">
  <ele>-0.12</ele>
  <time>2026-09-02T22:07:35Z</time>
  <course>0.0</course>
  <speed>0.0</speed>
  <fix>3d</fix>
</trkpt>
<trkpt lat="33.810313" lon="-118.393867">
  <ele>-0.136</ele>
  <time>2026-09-02T22:07:35Z</time>
  <course>187.25</course>
  <speed>0.03605551275463989</speed>
  <fix>3d</fix>
</trkpt>
<trkpt lat="33.810313" lon="-118.393867">
  <ele>-0.12</ele>
  <time>2026-09-02T22:07:35Z</time>
  <course>0.0</course>
  <speed>0.0</speed>
  <fix>3d</fix>
</trkpt>
<trkpt lat="33.810313" lon="-118.393867">
  <ele>-0.135</ele>
  <time>2026-09-02T22:07:35Z</time>
  <course>187.25</course>
  <speed>0.03605551275463989</speed>
  <fix>3d</fix>
</trkpt>
<trkpt lat="33.810313" lon="-118.393867">
  <ele>-0.12</ele>
  <time>2026-09-02T22:07:35Z</time>
  <course>0.0</course>
  <speed>0.0</speed>
  <fix>3d</fix>
</trkpt>
<trkpt lat="33.810313" lon="-118.393867">
  <ele>-0.134</ele>
  <time>2026-09-02T22:07:35Z</time>
  <course>187.24</course>
  <speed>0.03605551275463989</speed>
  <fix>3d</fix>
</trkpt>
<trkpt lat="33.810313" lon="-118.393867">
  <ele>-0.12</ele>
  <time>2026-09-02T22:07:35Z</time>
  <course>0.0</course>
  <speed>0.0</speed>
  <fix>3d</fix>
</trkpt>
<trkpt lat="33.810313" lon="-118.393867">
  <ele>-0.132</ele>
  <time>2026-09-02T22:07:35Z</time>
  <course>187.24</course>
  <speed>0.03605551275463989</speed>
  <fix>3d</fix>
</trkpt>
<trkpt lat="33.810313" lon="-118.393867">
  <ele>-0.12</ele>
  <time>2026-09-02T22:07:35Z</time>
  <course>0.0</course>
  <speed>0.0</speed>
  <fix>3d</fix>
</trkpt>
<trkpt lat="33.810313" lon="-118.393867">
  <ele>-0.131</ele>
  <time>2026-09-02T22:07:35Z</time>
  <course>187.23</course>
  <speed>0.03605551275463989</speed>
  <fix>3d</fix>
</trkpt>
<trkpt lat="33.810313" lon="-118.393867">
  <ele>-0.12</ele>
  <time>2026-09-02T22:07:35Z</time>
  <course>0.0</course>
  <speed>0.0</speed>
  <fix>3d</fix>
</trkpt>
<trkpt lat="33.810313" lon="-118.393867">
  <ele>-0.131</ele>
  <time>2026-09-02T22:07:35Z</time>
  <course>187.22</course>
  <speed>0.03605551275463989</speed>
  <fix>3d</fix>
</trkpt>
<trkpt lat="33.810313" lon="-118.393867">
  <ele>-0.12</ele>
  <time>2026-09-02T22:07:35Z</time>
  <course>0.0</course>
  <speed>0.0</speed>
  <fix>3d</fix>
</trkpt>
<trkpt lat="33.810313" lon="-118.393867">
  <ele>-0.132</ele>
  <time>2026-09-02T22:07:35Z</time>
  <course>187.22</course>
  <speed>0.03605551275463989</speed>
  <fix>3d</fix>
</trkpt>
<trkpt lat="33.810313" lon="-118.393867">
  <ele>-0.12</ele>
  <time>2026-09-02T22:07:35Z</time>
  <course>0.0</course>
  <speed>0.0</speed>
  <fix>3d</fix>
</trkpt>
<trkpt lat="33.810313" lon="-118.393867">
  <ele>-0.132</ele>
  <time>2026-09-02T22:07:35Z</time>
  <course>187.21</course>
  <speed>0.03605551275463989</speed>
  <fix>3d</fix>
</trkpt>
<trkpt lat="33.810313" lon="-118.393867">
  <ele>-0.12</ele>
  <time>2026-09-02T22:07:35Z</time>
  <course>0.0</course>
  <speed>0.0</speed>
  <fix>3d</fix>
</trkpt>
<trkpt lat="33.810313" lon="-118.393867">
  <ele>-0.133</ele>
  <time>2026-09-02T22:07:35Z</time>
  <course>187.21</course>
  <speed>0.03605551275463989</speed>
  <fix>3d</fix>
</trkpt>
<trkpt lat="33.810313" lon="-118.393867">
  <ele>-0.12</ele>
  <time>2026-09-02T22:07:35Z</time>
  <course>0.0</course>
  <speed>0.0</speed>
  <fix>3d</fix>
</trkpt>
<trkpt lat="33.810313" lon="-118.393867">
  <ele>-0.132</ele>
  <time>2026-09-02T22:07:35Z</time>
  <course>187.2</course>
  <speed>0.03605551275463989</speed>
  <fix>3d</fix>
</trkpt>
<trkpt lat="33.810313" lon="-118.393867">
  <ele>-0.12</ele>
  <time>2026-09-02T22:07:35Z</time>
  <course>0.0</course>
  <speed>0.0</speed>
  <fix>3d</fix>
</trkpt>
<trkpt lat="33.810313" lon="-118.393867">
  <ele>-0.131</ele>
  <time>2026-09-02T22:07:35Z</time>
  <course>187.2</course>
  <speed>0.03605551275463989</speed>
  <fix>3d</fix>
</trkpt>
<trkpt lat="33.810313" lon="-118.393867">
  <ele>-0.12</ele>
  <time>2026-09-02T22:07:35Z</time>
  <course>0.0</course>
  <speed>0.0</speed>
  <fix>3d</fix>
</trkpt>
<trkpt lat="33.810313" lon="-118.393867">
  <ele>-0.129</ele>
  <time>2026-09-02T22:07:35Z</time>
  <course>187.19</course>
  <speed>0.03605551275463989</speed>
  <fix>3d</fix>
</trkpt>
<trkpt lat="33.810313" lon="-118.393867">
  <ele>-0.12</ele>
  <time>2026-09-02T22:07:35Z</time>
  <course>0.0</course>
  <speed>0.0</speed>
  <fix>3d</fix>
</trkpt>
<trkpt lat="33.810313" lon="-118.393867">
  <ele>-0.126</ele>
  <time>2026-09-02T22:07:35Z</time>
  <course>187.19</course>
  <speed>0.03605551275463989</speed>
  <fix>3d</fix>
</trkpt>
<trkpt lat="33.810313" lon="-118.393867">
  <ele>-0.12</ele>
  <time>2026-09-02T22:07:35Z</time>
  <course>0.0</course>
  <speed>0.0</speed>
  <fix>3d</fix>
</trkpt>
<trkpt lat="33.810313" lon="-118.393867">
  <ele>-0.124</ele>
  <time>2026-09-02T22:07:35Z</time>
  <course>187.18</course>
  <speed>0.03605551275463989</speed>
  <fix>3d</fix>
</trkpt>
<trkpt lat="33.810313" lon="-118.393867">
  <ele>-0.12</ele>
  <time>2026-09-02T22:07:35Z</time>
  <course>0.0</course>
  <speed>0.0</speed>
  <fix>3d</fix>
</trkpt>
<trkpt lat="33.810313" lon="-118.393867">
  <ele>-0.123</ele>
  <time>2026-09-02T22:07:35Z</time>
  <course>187.18</course>
  <speed>0.03605551275463989</speed>
  <fix>3d</fix>
</trkpt>
<trkpt lat="33.810313" lon="-118.393867">
  <ele>-0.12</ele>
  <time>2026-09-02T22:07:35Z</time>
  <course>0.0</course>
  <speed>0.0</speed>
  <fix>3d</fix>
</trkpt>
<trkpt lat="33.810313" lon="-118.393867">
  <ele>-0.123</ele>
  <time>2026-09-02T22:07:35Z</time>
  <course>187.17</course>
  <speed>0.03605551275463989</speed>
  <fix>3d</fix>
</trkpt>
<trkpt lat="33.810313" lon="-118.393867">
  <ele>-0.12</ele>
  <time>2026-09-02T22:07:35Z</time>
  <course>0.0</course>
  <speed>0.0</speed>
  <fix>3d</fix>
</trkpt>
<trkpt lat="33.810313" lon="-118.393867">
  <ele>-0.122</ele>
  <time>2026-09-02T22:07:35Z</time>
  <course>187.17</course>
  <speed>0.0</speed>
  <fix>3d</fix>
</trkpt>
<trkpt lat="33.810313" lon="-118.393867">
  <ele>-0.12</ele>
  <time>2026-09-02T22:07:35Z</time>
  <course>0.0</course>
  <speed>0.0</speed>
  <fix>3d</fix>
</trkpt>
<trkpt lat="33.810313" lon="-118.393867">
  <ele>-0.121</ele>
  <time>2026-09-02T22:07:35Z</time>
  <course>187.16</course>
  <speed>0.0</speed>
  <fix>3d</fix>
</trkpt>
<trkpt lat="33.810313" lon="-118.393867">
  <ele>-0.12</ele>
  <time>2026-09-02T22:07:35Z</time>
  <course>0.0</course>
  <speed>0.0</speed>
  <fix>3d</fix>
</trkpt>
<trkpt lat="33.810313" lon="-118.393867">
  <ele>-0.12</ele>
  <time>2026-09-02T22:07:35Z</time>
  <course>187.16</course>
  <speed>0.0</speed>
  <fix>3d</fix>
</trkpt>
<trkpt lat="33.810313" lon="-118.393867">
  <ele>-0.12</ele>
  <time>2026-09-02T22:07:35Z</time>
  <course>0.0</course>
  <speed>0.0</speed>
  <fix>3d</fix>
</trkpt>
<trkpt lat="33.810313" lon="-118.393867">
  <ele>-0.119</ele>
  <time>2026-09-02T22:07:35Z</time>
  <course>187.15</course>
  <speed>0.0</speed>
  <fix>3d</fix>
</trkpt>
<trkpt lat="33.810313" lon="-118.393867">
  <ele>-0.12</ele>
  <time>2026-09-02T22:07:35Z</time>
  <course>0.0</course>
  <speed>0.0</speed>
  <fix>3d</fix>
</trkpt>
<trkpt lat="33.810313" lon="-118.393867">
  <ele>-0.116</ele>
  <time>2026-09-02T22:07:35Z</time>
  <course>187.15</course>
  <speed>0.0</speed>
  <fix>3d</fix>
</trkpt>
<trkpt lat="33.810313" lon="-118.393867">
  <ele>-0.12</ele>
  <time>2026-09-02T22:07:35Z</time>
  <course>0.0</course>
  <speed>0.0</speed>
  <fix>3d</fix>
</trkpt>
<trkpt lat="33.810313" lon="-118.393867">
  <ele>-0.114</ele>
  <time>2026-09-02T22:07:35Z</time>
  <course>187.14</course>
  <speed>0.0</speed>
  <fix>3d</fix>
</trkpt>
<trkpt lat="33.810313" lon="-118.393867">
  <ele>-0.12</ele>
  <time>2026-09-02T22:07:35Z</time>
  <course>0.0</course>
  <speed>0.0</speed>
  <fix>3d</fix>
</trkpt>
<trkpt lat="33.810313" lon="-118.393867">
  <ele>-0.113</ele>
  <time>2026-09-02T22:07:35Z</time>
  <course>187.14</course>
  <speed>0.0</speed>
  <fix>3d</fix>
</trkpt>
<trkpt lat="33.810313" lon="-118.393867">
  <ele>-0.12</ele>
  <time>2026-09-02T22:07:35Z</time>
  <course>0.0</course>
  <speed>0.0</speed>
  <fix>3d</fix>
</trkpt>
<trkpt lat="33.810313" lon="-118.393867">
  <ele>-0.112</ele>
  <time>2026-09-02T22:07:35Z</time>
  <course>187.13</course>
  <speed>0.0</speed>
  <fix>3d</fix>
</trkpt>
<trkpt lat="33.810313" lon="-118.393867">
  <ele>-0.12</ele>
  <time>2026-09-02T22:07:35Z</time>
  <course>0.0</course>
  <speed>0.0</speed>
  <fix>3d</fix>
</trkpt>
<trkpt lat="33.810313" lon="-118.393867">
  <ele>-0.113</ele>
  <time>2026-09-02T22:07:35Z</time>
  <course>187.13</course>
  <speed>0.0</speed>
  <fix>3d</fix>
</trkpt>
<trkpt lat="33.810313" lon="-118.393867">
  <ele>-0.12</ele>
  <time>2026-09-02T22:07:35Z</time>
  <course>0.0</course>
  <speed>0.0</speed>
  <fix>3d</fix>
</trkpt>
<trkpt lat="33.810313" lon="-118.393867">
  <ele>-0.114</ele>
  <time>2026-09-02T22:07:35Z</time>
  <course>187.12</course>
  <speed>0.0</speed>
  <fix>3d</fix>
</trkpt>
<trkpt lat="33.810313" lon="-118.393867">
  <ele>-0.12</ele>
  <time>2026-09-02T22:07:35Z</time>
  <course>0.0</course>
  <speed>0.0</speed>
  <fix>3d</fix>
</trkpt>
<trkpt lat="33.810313" lon="-118.393867">
  <ele>-0.117</ele>
  <time>2026-09-02T22:07:35Z</time>
  <course>187.12</course>
  <speed>0.0</speed>
  <fix>3d</fix>
</trkpt>
<trkpt lat="33.810313" lon="-118.393867">
  <ele>-0.12</ele>
  <time>2026-09-02T22:07:35Z</time>
  <course>0.0</course>
  <speed>0.0</speed>
  <fix>3d</fix>
</trkpt>
<trkpt lat="33.810313" lon="-118.393867">
  <ele>-0.119</ele>
  <time>2026-09-02T22:07:35Z</time>
  <course>187.11</course>
  <speed>0.01</speed>
  <fix>3d</fix>
</trkpt>
<trkpt lat="33.810313" lon="-118.393867">
  <ele>-0.12</ele>
  <time>2026-09-02T22:07:35Z</time>
  <course>0.0</course>
  <speed>0.0</speed>
  <fix>3d</fix>
</trkpt>
<trkpt lat="33.810313" lon="-118.393867">
  <ele>-0.12</ele>
  <time>2026-09-02T22:07:35Z</time>
  <course>187.11</course>
  <speed>0.01</speed>
  <fix>3d</fix>
</trkpt>
<trkpt lat="33.810313" lon="-118.393867">
  <ele>-0.12</ele>
  <time>2026-09-02T22:07:35Z</time>
  <course>0.0</course>
  <speed>0.0</speed>
  <fix>3d</fix>
</trkpt>
<trkpt lat="33.810313" lon="-118.393867">
  <ele>-0.121</ele>
  <time>2026-09-02T22:07:35Z</time>
  <course>187.1</course>
  <speed>0.01</speed>
  <fix>3d</fix>
</trkpt>
<trkpt lat="33.810313" lon="-118.393867">
  <ele>-0.12</ele>
  <time>2026-09-02T22:07:35Z</time>
  <course>0.0</course>
  <speed>0.0</speed>
  <fix>3d</fix>
</trkpt>
<trkpt lat="33.810313" lon="-118.393867">
  <ele>-0.122</ele>
  <time>2026-09-02T22:07:35Z</time>
  <course>187.1</course>
  <speed>0.01414213562373095</speed>
  <fix>3d</fix>
</trkpt>
<trkpt lat="33.810313" lon="-118.393867">
  <ele>-0.12</ele>
  <time>2026-09-02T22:07:35Z</time>
  <course>0.0</course>
  <speed>0.0</speed>
  <fix>3d</fix>
</trkpt>
<trkpt lat="33.810313" lon="-118.393867">
  <ele>-0.122</ele>
  <time>2026-09-02T22:07:35Z</time>
  <course>187.09</course>
  <speed>0.01414213562373095</speed>
  <fix>3d</fix>
</trkpt>
<trkpt lat="33.810313" lon="-118.393867">
  <ele>-0.12</ele>
  <time>2026-09-02T22:07:35Z</time>
  <course>0.0</course>
  <speed>0.0</speed>
  <fix>3d</fix>
</trkpt>
<trkpt lat="33.810313" lon="-118.393867">
  <ele>-0.123</ele>
  <time>2026-09-02T22:07:35Z</time>
  <course>187.09</course>
  <speed>0.01414213562373095</speed>
  <fix>3d</fix>
</trkpt>
<trkpt lat="33.810313" lon="-118.393867">
  <ele>-0.12</ele>
  <time>2026-09-02T22:07:35Z</time>
  <course>0.0</course>
  <speed>0.0</speed>
  <fix>3d</fix>
</trkpt>
<trkpt lat="33.810313" lon="-118.393867">
  <ele>-0.124</ele>
  <time>2026-09-02T22:07:35Z</time>
  <course>187.08</course>
  <speed>0.01414213562373095</speed>
  <fix>3d</fix>
</trkpt>
<trkpt lat="33.810313" lon="-118.393867">
  <ele>-0.12</ele>
  <time>2026-09-02T22:07:35Z</time>
  <course>0.0</course>
  <speed>0.0</speed>
  <fix>3d</fix>
</trkpt>
<trkpt lat="33.810313" lon="-118.393867">
  <ele>-0.126</ele>
  <time>2026-09-02T22:07:35Z</time>
  <course>187.08</course>
  <speed>0.01414213562373095</speed>
  <fix>3d</fix>
</trkpt>
<trkpt lat="33.810313" lon="-118.393867">
  <ele>-0.12</ele>
  <time>2026-09-02T22:07:35Z</time>
  <course>0.0</course>
  <speed>0.0</speed>
  <fix>3d</fix>
</trkpt>
<trkpt lat="33.810313" lon="-118.393867">
  <ele>-0.128</ele>
  <time>2026-09-02T22:07:35Z</time>
  <course>187.07</course>
  <speed>0.01414213562373095</speed>
  <fix>3d</fix>
</trkpt>
<trkpt lat="33.810313" lon="-118.393867">
  <ele>-0.12</ele>
  <time>2026-09-02T22:07:35Z</time>
  <course>0.0</course>
  <speed>0.0</speed>
  <fix>3d</fix>
</trkpt>
<trkpt lat="33.810313" lon="-118.393867">
  <ele>-0.131</ele>
  <time>2026-09-02T22:07:35Z</time>
  <course>187.07</course>
  <speed>0.01414213562373095</speed>
  <fix>3d</fix>
</trkpt>
<trkpt lat="33.810313" lon="-118.393867">
  <ele>-0.12</ele>
  <time>2026-09-02T22:07:35Z</time>
  <course>0.0</course>
  <speed>0.0</speed>
  <fix>3d</fix>
</trkpt>
<trkpt lat="33.810313" lon="-118.393867">
  <ele>-0.134</ele>
  <time>2026-09-02T22:07:35Z</time>
  <course>187.06</course>
  <speed>0.01414213562373095</speed>
  <fix>3d</fix>
</trkpt>
<trkpt lat="33.810313" lon="-118.393867">
  <ele>-0.12</ele>
  <time>2026-09-02T22:07:35Z</time>
  <course>0.0</course>
  <speed>0.0</speed>
  <fix>3d</fix>
</trkpt>
<trkpt lat="33.810313" lon="-118.393867">
  <ele>-0.136</ele>
  <time>2026-09-02T22:07:35Z</time>
  <course>187.06</course>
  <speed>0.01414213562373095</speed>
  <fix>3d</fix>
</trkpt>
<trkpt lat="33.810313" lon="-118.393867">
  <ele>-0.12</ele>
  <time>2026-09-02T22:07:35Z</time>
  <course>0.0</course>
  <speed>0.0</speed>
  <fix>3d</fix>
</trkpt>
<trkpt lat="33.810313" lon="-118.393867">
  <ele>-0.137</ele>
  <time>2026-09-02T22:07:35Z</time>
  <course>187.06</course>
  <speed>0.01414213562373095</speed>
  <fix>3d</fix>
</trkpt>
<trkpt lat="33.810313" lon="-118.393867">
  <ele>-0.12</ele>
  <time>2026-09-02T22:07:35Z</time>
  <course>0.0</course>
  <speed>0.0</speed>
  <fix>3d</fix>
</trkpt>
<trkpt lat="33.810313" lon="-118.393867">
  <ele>-0.137</ele>
  <time>2026-09-02T22:07:35Z</time>
  <course>187.05</course>
  <speed>0.01414213562373095</speed>
  <fix>3d</fix>
</trkpt>
<trkpt lat="33.810313" lon="-118.393867">
  <ele>-0.12</ele>
  <time>2026-09-02T22:07:35Z</time>
  <course>0.0</course>
  <speed>0.0</speed>
  <fix>3d</fix>
</trkpt>
<trkpt lat="33.810313" lon="-118.393867">
  <ele>-0.135</ele>
  <time>2026-09-02T22:07:35Z</time>
  <course>187.05</course>
  <speed>0.01414213562373095</speed>
  <fix>3d</fix>
</trkpt>
<trkpt lat="33.810313" lon="-118.393867">
  <ele>-0.12</ele>
  <time>2026-09-02T22:07:35Z</time>
  <course>0.0</course>
  <speed>0.0</speed>
  <fix>3d</fix>
</trkpt>
<trkpt lat="33.810313" lon="-118.393867">
  <ele>-0.133</ele>
  <time>2026-09-02T22:07:35Z</time>
  <course>187.04</course>
  <speed>0.01414213562373095</speed>
  <fix>3d</fix>
</trkpt>
<trkpt lat="33.810313" lon="-118.393867">
  <ele>-0.12</ele>
  <time>2026-09-02T22:07:35Z</time>
  <course>0.0</course>
  <speed>0.0</speed>
  <fix>3d</fix>
</trkpt>
<trkpt lat="33.810313" lon="-118.393867">
  <ele>-0.131</ele>
  <time>2026-09-02T22:07:35Z</time>
  <course>187.04</course>
  <speed>0.01414213562373095</speed>
  <fix>3d</fix>
</trkpt>
<trkpt lat="33.810313" lon="-118.393867">
  <ele>-0.12</ele>
  <time>2026-09-02T22:07:35Z</time>
  <course>0.0</course>
  <speed>0.0</speed>
  <fix>3d</fix>
</trkpt>
<trkpt lat="33.810313" lon="-118.393867">
  <ele>-0.129</ele>
  <time>2026-09-02T22:07:35Z</time>
  <course>187.03</course>
  <speed>0.01414213562373095</speed>
  <fix>3d</fix>
</trkpt>
<trkpt lat="33.810313" lon="-118.393867">
  <ele>-0.12</ele>
  <time>2026-09-02T22:07:35Z</time>
  <course>0.0</course>
  <speed>0.0</speed>
  <fix>3d</fix>
</trkpt>
<trkpt lat="33.810313" lon="-118.393867">
  <ele>-0.129</ele>
  <time>2026-09-02T22:07:36Z</time>
  <course>187.03</course>
  <speed>0.01</speed>
  <fix>3d</fix>
</trkpt>
<trkpt lat="33.810313" lon="-118.393867">
  <ele>-0.12</ele>
  <time>2026-09-02T22:07:36Z</time>
  <course>0.0</course>
  <speed>0.0</speed>
  <fix>3d</fix>
</trkpt>
<trkpt lat="33.810313" lon="-118.393867">
  <ele>-0.128</ele>
  <time>2026-09-02T22:07:36Z</time>
  <course>187.02</course>
  <speed>0.01</speed>
  <fix>3d</fix>
</trkpt>
<trkpt lat="33.810313" lon="-118.393867">
  <ele>-0.12</ele>
  <time>2026-09-02T22:07:36Z</time>
  <course>0.0</course>
  <speed>0.0</speed>
  <fix>3d</fix>
</trkpt>
<trkpt lat="33.810313" lon="-118.393867">
  <ele>-0.129</ele>
  <time>2026-09-02T22:07:36Z</time>
  <course>187.02</course>
  <speed>0.01</speed>
  <fix>3d</fix>
</trkpt>
<trkpt lat="33.810313" lon="-118.393867">
  <ele>-0.12</ele>
  <time>2026-09-02T22:07:36Z</time>
  <course>0.0</course>
  <speed>0.0</speed>
  <fix>3d</fix>
</trkpt>
<trkpt lat="33.810313" lon="-118.393867">
  <ele>-0.13</ele>
  <time>2026-09-02T22:07:36Z</time>
  <course>187.01</course>
  <speed>0.01</speed>
  <fix>3d</fix>
</trkpt>
<trkpt lat="33.810313" lon="-118.393867">
  <ele>-0.12</ele>
  <time>2026-09-02T22:07:36Z</time>
  <course>0.0</course>
  <speed>0.0</speed>
  <fix>3d</fix>
</trkpt>
<trkpt lat="33.810313" lon="-118.393867">
  <ele>-0.131</ele>
  <time>2026-09-02T22:07:36Z</time>
  <course>187.01</course>
  <speed>0.01</speed>
  <fix>3d</fix>
</trkpt>
<trkpt lat="33.810313" lon="-118.393867">
  <ele>-0.12</ele>
  <time>2026-09-02T22:07:36Z</time>
  <course>0.0</course>
  <speed>0.0</speed>
  <fix>3d</fix>
</trkpt>
<trkpt lat="33.810313" lon="-118.393867">
  <ele>-0.13</ele>
  <time>2026-09-02T22:07:36Z</time>
  <course>187.0</course>
  <speed>0.0</speed>
  <fix>3d</fix>
</trkpt>
<trkpt lat="33.810313" lon="-118.393867">
  <ele>-0.12</ele>
  <time>2026-09-02T22:07:36Z</time>
  <course>0.0</course>
  <speed>0.0</speed>
  <fix>3d</fix>
</trkpt>
<trkpt lat="33.810313" lon="-118.393867">
  <ele>-0.13</ele>
  <time>2026-09-02T22:07:36Z</time>
  <course>187.0</course>
  <speed>0.0</speed>
  <fix>3d</fix>
</trkpt>
<trkpt lat="33.810313" lon="-118.393867">
  <ele>-0.12</ele>
  <time>2026-09-02T22:07:36Z</time>
  <course>0.0</course>
  <speed>0.0</speed>
  <fix>3d</fix>
</trkpt>
<trkpt lat="33.810313" lon="-118.393867">
  <ele>-0.129</ele>
  <time>2026-09-02T22:07:36Z</time>
  <course>186.99</course>
  <speed>0.0</speed>
  <fix>3d</fix>
</trkpt>
<trkpt lat="33.810313" lon="-118.393867">
  <ele>-0.12</ele>
  <time>2026-09-02T22:07:36Z</time>
  <course>0.0</course>
  <speed>0.0</speed>
  <fix>3d</fix>
</trkpt>
<trkpt lat="33.810313" lon="-118.393867">
  <ele>-0.128</ele>
  <time>2026-09-02T22:07:36Z</time>
  <course>186.99</course>
  <speed>0.0</speed>
  <fix>3d</fix>
</trkpt>
<trkpt lat="33.810313" lon="-118.393867">
  <ele>-0.12</ele>
  <time>2026-09-02T22:07:36Z</time>
  <course>0.0</course>
  <speed>0.0</speed>
  <fix>3d</fix>
</trkpt>
<trkpt lat="33.810313" lon="-118.393867">
  <ele>-0.128</ele>
  <time>2026-09-02T22:07:36Z</time>
  <course>186.98</course>
  <speed>0.0</speed>
  <fix>3d</fix>
</trkpt>
<trkpt lat="33.810313" lon="-118.393867">
  <ele>-0.12</ele>
  <time>2026-09-02T22:07:36Z</time>
  <course>0.0</course>
  <speed>0.0</speed>
  <fix>3d</fix>
</trkpt>
<trkpt lat="33.810313" lon="-118.393867">
  <ele>-0.128</ele>
  <time>2026-09-02T22:07:36Z</time>
  <course>186.98</course>
  <speed>0.0</speed>
  <fix>3d</fix>
</trkpt>
<trkpt lat="33.810313" lon="-118.393867">
  <ele>-0.12</ele>
  <time>2026-09-02T22:07:36Z</time>
  <course>0.0</course>
  <speed>0.0</speed>
  <fix>3d</fix>
</trkpt>
<trkpt lat="33.810313" lon="-118.393867">
  <ele>-0.129</ele>
  <time>2026-09-02T22:07:36Z</time>
  <course>186.97</course>
  <speed>0.0</speed>
  <fix>3d</fix>
</trkpt>
<trkpt lat="33.810313" lon="-118.393867">
  <ele>-0.12</ele>
  <time>2026-09-02T22:07:36Z</time>
  <course>0.0</course>
  <speed>0.0</speed>
  <fix>3d</fix>
</trkpt>
<trkpt lat="33.810313" lon="-118.393867">
  <ele>-0.132</ele>
  <time>2026-09-02T22:07:36Z</time>
  <course>186.97</course>
  <speed>0.0</speed>
  <fix>3d</fix>
</trkpt>
<trkpt lat="33.810313" lon="-118.393867">
  <ele>-0.12</ele>
  <time>2026-09-02T22:07:36Z</time>
  <course>0.0</course>
  <speed>0.0</speed>
  <fix>3d</fix>
</trkpt>
<trkpt lat="33.810313" lon="-118.393867">
  <ele>-0.133</ele>
  <time>2026-09-02T22:07:36Z</time>
  <course>186.96</course>
  <speed>0.0</speed>
  <fix>3d</fix>
</trkpt>
<trkpt lat="33.810313" lon="-118.393867">
  <ele>-0.12</ele>
  <time>2026-09-02T22:07:36Z</time>
  <course>0.0</course>
  <speed>0.0</speed>
  <fix>3d</fix>
</trkpt>
<trkpt lat="33.810313" lon="-118.393867">
  <ele>-0.134</ele>
  <time>2026-09-02T22:07:36Z</time>
  <course>186.96</course>
  <speed>0.0</speed>
  <fix>3d</fix>
</trkpt>
<trkpt lat="33.810313" lon="-118.393867">
  <ele>-0.12</ele>
  <time>2026-09-02T22:07:36Z</time>
  <course>0.0</course>
  <speed>0.0</speed>
  <fix>3d</fix>
</trkpt>
<trkpt lat="33.810313" lon="-118.393867">
  <ele>-0.132</ele>
  <time>2026-09-02T22:07:36Z</time>
  <course>186.95</course>
  <speed>0.0</speed>
  <fix>3d</fix>
</trkpt>
<trkpt lat="33.810313" lon="-118.393867">
  <ele>-0.12</ele>
  <time>2026-09-02T22:07:36Z</time>
  <course>0.0</course>
  <speed>0.0</speed>
  <fix>3d</fix>
</trkpt>
<trkpt lat="33.810313" lon="-118.393867">
  <ele>-0.131</ele>
  <time>2026-09-02T22:07:36Z</time>
  <course>186.95</course>
  <speed>0.0</speed>
  <fix>3d</fix>
</trkpt>
<trkpt lat="33.810313" lon="-118.393867">
  <ele>-0.12</ele>
  <time>2026-09-02T22:07:36Z</time>
  <course>0.0</course>
  <speed>0.0</speed>
  <fix>3d</fix>
</trkpt>
<trkpt lat="33.810313" lon="-118.393867">
  <ele>-0.13</ele>
  <time>2026-09-02T22:07:36Z</time>
  <course>186.94</course>
  <speed>0.0</speed>
  <fix>3d</fix>
</trkpt>
<trkpt lat="33.810313" lon="-118.393867">
  <ele>-0.12</ele>
  <time>2026-09-02T22:07:36Z</time>
  <course>0.0</course>
  <speed>0.0</speed>
  <fix>3d</fix>
</trkpt>
<trkpt lat="33.810313" lon="-118.393867">
  <ele>-0.129</ele>
  <time>2026-09-02T22:07:36Z</time>
  <course>186.94</course>
  <speed>0.0</speed>
  <fix>3d</fix>
</trkpt>
<trkpt lat="33.810313" lon="-118.393867">
  <ele>-0.12</ele>
  <time>2026-09-02T22:07:36Z</time>
  <course>0.0</course>
  <speed>0.0</speed>
  <fix>3d</fix>
</trkpt>
<trkpt lat="33.810313" lon="-118.393867">
  <ele>-0.128</ele>
  <time>2026-09-02T22:07:36Z</time>
  <course>186.93</course>
  <speed>0.0</speed>
  <fix>3d</fix>
</trkpt>
<trkpt lat="33.810313" lon="-118.393867">
  <ele>-0.12</ele>
  <time>2026-09-02T22:07:36Z</time>
  <course>0.0</course>
  <speed>0.0</speed>
  <fix>3d</fix>
</trkpt>
<trkpt lat="33.810313" lon="-118.393867">
  <ele>-0.128</ele>
  <time>2026-09-02T22:07:36Z</time>
  <course>186.93</course>
  <speed>0.0</speed>
  <fix>3d</fix>
</trkpt>
<trkpt lat="33.810313" lon="-118.393867">
  <ele>-0.12</ele>
  <time>2026-09-02T22:07:36Z</time>
  <course>0.0</course>
  <speed>0.0</speed>
  <fix>3d</fix>
</trkpt>
<trkpt lat="33.810313" lon="-118.393867">
  <ele>-0.127</ele>
  <time>2026-09-02T22:07:36Z</time>
  <course>186.92</course>
  <speed>0.0</speed>
  <fix>3d</fix>
</trkpt>
<trkpt lat="33.810313" lon="-118.393867">
  <ele>-0.12</ele>
  <time>2026-09-02T22:07:36Z</time>
  <course>0.0</course>
  <speed>0.0</speed>
  <fix>3d</fix>
</trkpt>
<trkpt lat="33.810313" lon="-118.393867">
  <ele>-0.128</ele>
  <time>2026-09-02T22:07:36Z</time>
  <course>186.92</course>
  <speed>0.0</speed>
  <fix>3d</fix>
</trkpt>
<trkpt lat="33.810313" lon="-118.393867">
  <ele>-0.12</ele>
  <time>2026-09-02T22:07:36Z</time>
  <course>0.0</course>
  <speed>0.0</speed>
  <fix>3d</fix>
</trkpt>
<trkpt lat="33.810313" lon="-118.393867">
  <ele>-0.128</ele>
  <time>2026-09-02T22:07:36Z</time>
  <course>186.91</course>
  <speed>0.0</speed>
  <fix>3d</fix>
</trkpt>
<trkpt lat="33.810313" lon="-118.393867">
  <ele>-0.12</ele>
  <time>2026-09-02T22:07:36Z</time>
  <course>0.0</course>
  <speed>0.0</speed>
  <fix>3d</fix>
</trkpt>
<trkpt lat="33.810313" lon="-118.393867">
  <ele>-0.127</ele>
  <time>2026-09-02T22:07:36Z</time>
  <course>186.91</course>
  <speed>0.0</speed>
  <fix>3d</fix>
</trkpt>
<trkpt lat="33.810313" lon="-118.393867">
  <ele>-0.12</ele>
  <time>2026-09-02T22:07:36Z</time>
  <course>0.0</course>
  <speed>0.0</speed>
  <fix>3d</fix>
</trkpt>
<trkpt lat="33.810313" lon="-118.393867">
  <ele>-0.127</ele>
  <time>2026-09-02T22:07:36Z</time>
  <course>186.91</course>
  <speed>0.0</speed>
  <fix>3d</fix>
</trkpt>
<trkpt lat="33.810313" lon="-118.393867">
  <ele>-0.12</ele>
  <time>2026-09-02T22:07:36Z</time>
  <course>0.0</course>
  <speed>0.0</speed>
  <fix>3d</fix>
</trkpt>
<trkpt lat="33.810313" lon="-118.393867">
  <ele>-0.125</ele>
  <time>2026-09-02T22:07:36Z</time>
  <course>186.9</course>
  <speed>0.0</speed>
  <fix>3d</fix>
</trkpt>
<trkpt lat="33.810313" lon="-118.393867">
  <ele>-0.12</ele>
  <time>2026-09-02T22:07:36Z</time>
  <course>0.0</course>
  <speed>0.0</speed>
  <fix>3d</fix>
</trkpt>
<trkpt lat="33.810313" lon="-118.393867">
  <ele>-0.124</ele>
  <time>2026-09-02T22:07:36Z</time>
  <course>186.9</course>
  <speed>0.0</speed>
  <fix>3d</fix>
</trkpt>
<trkpt lat="33.810313" lon="-118.393867">
  <ele>-0.12</ele>
  <time>2026-09-02T22:07:36Z</time>
  <course>0.0</course>
  <speed>0.0</speed>
  <fix>3d</fix>
</trkpt>
<trkpt lat="33.810313" lon="-118.393867">
  <ele>-0.122</ele>
  <time>2026-09-02T22:07:36Z</time>
  <course>186.89</course>
  <speed>0.0</speed>
  <fix>3d</fix>
</trkpt>
<trkpt lat="33.810313" lon="-118.393867">
  <ele>-0.12</ele>
  <time>2026-09-02T22:07:36Z</time>
  <course>0.0</course>
  <speed>0.0</speed>
  <fix>3d</fix>
</trkpt>
<trkpt lat="33.810313" lon="-118.393867">
  <ele>-0.121</ele>
  <time>2026-09-02T22:07:36Z</time>
  <course>186.89</course>
  <speed>0.0</speed>
  <fix>3d</fix>
</trkpt>
<trkpt lat="33.810313" lon="-118.393867">
  <ele>-0.12</ele>
  <time>2026-09-02T22:07:36Z</time>
  <course>0.0</course>
  <speed>0.0</speed>
  <fix>3d</fix>
</trkpt>
<trkpt lat="33.810313" lon="-118.393867">
  <ele>-0.12</ele>
  <time>2026-09-02T22:07:36Z</time>
  <course>186.88</course>
  <speed>0.01</speed>
  <fix>3d</fix>
</trkpt>
<trkpt lat="33.810313" lon="-118.393867">
  <ele>-0.12</ele>
  <time>2026-09-02T22:07:36Z</time>
  <course>0.0</course>
  <speed>0.0</speed>
  <fix>3d</fix>
</trkpt>
<trkpt lat="33.810313" lon="-118.393867">
  <ele>-0.119</ele>
  <time>2026-09-02T22:07:36Z</time>
  <course>186.88</course>
  <speed>0.01</speed>
  <fix>3d</fix>
</trkpt>
<trkpt lat="33.810313" lon="-118.393867">
  <ele>-0.12</ele>
  <time>2026-09-02T22:07:36Z</time>
  <course>0.0</course>
  <speed>0.0</speed>
  <fix>3d</fix>
</trkpt>
<trkpt lat="33.810313" lon="-118.393867">
  <ele>-0.119</ele>
  <time>2026-09-02T22:07:36Z</time>
  <course>186.87</course>
  <speed>0.01</speed>
  <fix>3d</fix>
</trkpt>
<trkpt lat="33.810313" lon="-118.393867">
  <ele>-0.12</ele>
  <time>2026-09-02T22:07:36Z</time>
  <course>0.0</course>
  <speed>0.0</speed>
  <fix>3d</fix>
</trkpt>
<trkpt lat="33.810313" lon="-118.393867">
  <ele>-0.119</ele>
  <time>2026-09-02T22:07:36Z</time>
  <course>186.87</course>
  <speed>0.01</speed>
  <fix>3d</fix>
</trkpt>
<trkpt lat="33.810313" lon="-118.393867">
  <ele>-0.12</ele>
  <time>2026-09-02T22:07:36Z</time>
  <course>0.0</course>
  <speed>0.0</speed>
  <fix>3d</fix>
</trkpt>
<trkpt lat="33.810313" lon="-118.393867">
  <ele>-0.119</ele>
  <time>2026-09-02T22:07:36Z</time>
  <course>186.86</course>
  <speed>0.01</speed>
  <fix>3d</fix>
</trkpt>
<trkpt lat="33.810313" lon="-118.393867">
  <ele>-0.12</ele>
  <time>2026-09-02T22:07:36Z</time>
  <course>0.0</course>
  <speed>0.0</speed>
  <fix>3d</fix>
</trkpt>
<trkpt lat="33.810313" lon="-118.393867">
  <ele>-0.119</ele>
  <time>2026-09-02T22:07:36Z</time>
  <course>186.86</course>
  <speed>0.01</speed>
  <fix>3d</fix>
</trkpt>
<trkpt lat="33.810313" lon="-118.393867">
  <ele>-0.12</ele>
  <time>2026-09-02T22:07:36Z</time>
  <course>0.0</course>
  <speed>0.0</speed>
  <fix>3d</fix>
</trkpt>
<trkpt lat="33.810313" lon="-118.393867">
  <ele>-0.119</ele>
  <time>2026-09-02T22:07:36Z</time>
  <course>186.85</course>
  <speed>0.01</speed>
  <fix>3d</fix>
</trkpt>
<trkpt lat="33.810313" lon="-118.393867">
  <ele>-0.12</ele>
  <time>2026-09-02T22:07:36Z</time>
  <course>0.0</course>
  <speed>0.0</speed>
  <fix>3d</fix>
</trkpt>
<trkpt lat="33.810313" lon="-118.393867">
  <ele>-0.119</ele>
  <time>2026-09-02T22:07:36Z</time>
  <course>186.85</course>
  <speed>0.01</speed>
  <fix>3d</fix>
</trkpt>
<trkpt lat="33.810313" lon="-118.393867">
  <ele>-0.12</ele>
  <time>2026-09-02T22:07:36Z</time>
  <course>0.0</course>
  <speed>0.0</speed>
  <fix>3d</fix>
</trkpt>
<trkpt lat="33.810313" lon="-118.393867">
  <ele>-0.12</ele>
  <time>2026-09-02T22:07:36Z</time>
  <course>186.84</course>
  <speed>0.01414213562373095</speed>
  <fix>3d</fix>
</trkpt>
<trkpt lat="33.810313" lon="-118.393867">
  <ele>-0.12</ele>
  <time>2026-09-02T22:07:36Z</time>
  <course>0.0</course>
  <speed>0.0</speed>
  <fix>3d</fix>
</trkpt>
<trkpt lat="33.810313" lon="-118.393867">
  <ele>-0.125</ele>
  <time>2026-09-02T22:07:36Z</time>
  <course>186.84</course>
  <speed>0.01414213562373095</speed>
  <fix>3d</fix>
</trkpt>
<trkpt lat="33.810313" lon="-118.393867">
  <ele>-0.12</ele>
  <time>2026-09-02T22:07:36Z</time>
  <course>95.0</course>
  <speed>0.0</speed>
  <fix>3d</fix>
</trkpt>
<trkpt lat="33.810313" lon="-118.393867">
  <ele>-0.146</ele>
  <time>2026-09-02T22:07:37Z</time>
  <course>186.83</course>
  <speed>0.01414213562373095</speed>
  <fix>3d</fix>
</trkpt>
<trkpt lat="33.810313" lon="-118.393867">
  <ele>-0.12</ele>
  <time>2026-09-02T22:07:37Z</time>
  <course>95.0</course>
  <speed>0.0</speed>
  <fix>3d</fix>
</trkpt>
<trkpt lat="33.810313" lon="-118.393867">
  <ele>-0.171</ele>
  <time>2026-09-02T22:07:37Z</time>
  <course>186.83</course>
  <speed>0.01414213562373095</speed>
  <fix>3d</fix>
</trkpt>
<trkpt lat="33.810313" lon="-118.393867">
  <ele>-0.13</ele>
  <time>2026-09-02T22:07:37Z</time>
  <course>275.0</course>
  <speed>0.0</speed>
  <fix>3d</fix>
</trkpt>
<trkpt lat="33.810313" lon="-118.393867">
  <ele>-0.194</ele>
  <time>2026-09-02T22:07:37Z</time>
  <course>186.82</course>
  <speed>0.01414213562373095</speed>
  <fix>3d</fix>
</trkpt>
<trkpt lat="33.810313" lon="-118.393867">
  <ele>-0.13</ele>
  <time>2026-09-02T22:07:37Z</time>
  <course>275.0</course>
  <speed>0.0</speed>
  <fix>3d</fix>
</trkpt>
<trkpt lat="33.810313" lon="-118.393867">
  <ele>-0.216</ele>
  <time>2026-09-02T22:07:37Z</time>
  <course>186.82</course>
  <speed>0.01414213562373095</speed>
  <fix>3d</fix>
</trkpt>
<trkpt lat="33.810313" lon="-118.393867">
  <ele>-0.17</ele>
  <time>2026-09-02T22:07:37Z</time>
  <course>275.0</course>
  <speed>0.0</speed>
  <fix>3d</fix>
</trkpt>
<trkpt lat="33.810313" lon="-118.393867">
  <ele>-0.235</ele>
  <time>2026-09-02T22:07:37Z</time>
  <course>186.81</course>
  <speed>0.01414213562373095</speed>
  <fix>3d</fix>
</trkpt>
<trkpt lat="33.810313" lon="-118.393867">
  <ele>-0.17</ele>
  <time>2026-09-02T22:07:37Z</time>
  <course>275.0</course>
  <speed>0.0</speed>
  <fix>3d</fix>
</trkpt>
<trkpt lat="33.810313" lon="-118.393867">
  <ele>-0.251</ele>
  <time>2026-09-02T22:07:37Z</time>
  <course>186.81</course>
  <speed>0.01414213562373095</speed>
  <fix>3d</fix>
</trkpt>
<trkpt lat="33.810313" lon="-118.393867">
  <ele>-0.2</ele>
  <time>2026-09-02T22:07:37Z</time>
  <course>95.0</course>
  <speed>0.0</speed>
  <fix>3d</fix>
</trkpt>
<trkpt lat="33.810313" lon="-118.393867">
  <ele>-0.264</ele>
  <time>2026-09-02T22:07:37Z</time>
  <course>186.81</course>
  <speed>0.01414213562373095</speed>
  <fix>3d</fix>
</trkpt>
<trkpt lat="33.810313" lon="-118.393867">
  <ele>-0.2</ele>
  <time>2026-09-02T22:07:37Z</time>
  <course>95.0</course>
  <speed>0.0</speed>
  <fix>3d</fix>
</trkpt>
<trkpt lat="33.810313" lon="-118.393867">
  <ele>-0.276</ele>
  <time>2026-09-02T22:07:37Z</time>
  <course>186.8</course>
  <speed>0.01414213562373095</speed>
  <fix>3d</fix>
</trkpt>
<trkpt lat="33.810313" lon="-118.393867">
  <ele>-0.23</ele>
  <time>2026-09-02T22:07:37Z</time>
  <course>95.0</course>
  <speed>0.0</speed>
  <fix>3d</fix>
</trkpt>
<trkpt lat="33.810313" lon="-118.393867">
  <ele>-0.286</ele>
  <time>2026-09-02T22:07:37Z</time>
  <course>186.8</course>
  <speed>0.01414213562373095</speed>
  <fix>3d</fix>
</trkpt>
<trkpt lat="33.810313" lon="-118.393867">
  <ele>-0.23</ele>
  <time>2026-09-02T22:07:37Z</time>
  <course>95.0</course>
  <speed>0.0</speed>
  <fix>3d</fix>
</trkpt>
<trkpt lat="33.8103131" lon="-118.393867">
  <ele>-0.295</ele>
  <time>2026-09-02T22:07:37Z</time>
  <course>186.79</course>
  <speed>0.01414213562373095</speed>
  <fix>3d</fix>
</trkpt>
<trkpt lat="33.810313" lon="-118.393867">
  <ele>-0.26</ele>
  <time>2026-09-02T22:07:37Z</time>
  <course>95.0</course>
  <speed>0.0</speed>
  <fix>3d</fix>
</trkpt>
<trkpt lat="33.8103131" lon="-118.393867">
  <ele>-0.303</ele>
  <time>2026-09-02T22:07:37Z</time>
  <course>186.79</course>
  <speed>0.01414213562373095</speed>
  <fix>3d</fix>
</trkpt>
<trkpt lat="33.810313" lon="-118.393867">
  <ele>-0.26</ele>
  <time>2026-09-02T22:07:37Z</time>
  <course>95.0</course>
  <speed>0.0</speed>
  <fix>3d</fix>
</trkpt>
<trkpt lat="33.8103131" lon="-118.3938671">
  <ele>-0.309</ele>
  <time>2026-09-02T22:07:37Z</time>
  <course>186.78</course>
  <speed>0.01414213562373095</speed>
  <fix>3d</fix>
</trkpt>
<trkpt lat="33.810313" lon="-118.393867">
  <ele>-0.27</ele>
  <time>2026-09-02T22:07:37Z</time>
  <course>95.0</course>
  <speed>0.0</speed>
  <fix>3d</fix>
</trkpt>
<trkpt lat="33.8103131" lon="-118.3938671">
  <ele>-0.314</ele>
  <time>2026-09-02T22:07:37Z</time>
  <course>186.78</course>
  <speed>0.01414213562373095</speed>
  <fix>3d</fix>
</trkpt>
<trkpt lat="33.810313" lon="-118.393867">
  <ele>-0.27</ele>
  <time>2026-09-02T22:07:37Z</time>
  <course>95.0</course>
  <speed>0.0</speed>
  <fix>3d</fix>
</trkpt>
<trkpt lat="33.8103131" lon="-118.3938671">
  <ele>-0.318</ele>
  <time>2026-09-02T22:07:37Z</time>
  <course>186.77</course>
  <speed>0.01414213562373095</speed>
  <fix>3d</fix>
</trkpt>
<trkpt lat="33.810313" lon="-118.393867">
  <ele>-0.28</ele>
  <time>2026-09-02T22:07:37Z</time>
  <course>95.0</course>
  <speed>0.0</speed>
  <fix>3d</fix>
</trkpt>
<trkpt lat="33.8103131" lon="-118.3938671">
  <ele>-0.32</ele>
  <time>2026-09-02T22:07:37Z</time>
  <course>186.77</course>
  <speed>0.022360679774997897</speed>
  <fix>3d</fix>
</trkpt>
<trkpt lat="33.810313" lon="-118.393867">
  <ele>-0.28</ele>
  <time>2026-09-02T22:07:37Z</time>
  <course>95.0</course>
  <speed>0.0</speed>
  <fix>3d</fix>
</trkpt>
<trkpt lat="33.8103131" lon="-118.3938671">
  <ele>-0.322</ele>
  <time>2026-09-02T22:07:37Z</time>
  <course>186.76</course>
  <speed>0.022360679774997897</speed>
  <fix>3d</fix>
</trkpt>
<trkpt lat="33.810313" lon="-118.393867">
  <ele>-0.29</ele>
  <time>2026-09-02T22:07:37Z</time>
  <course>95.0</course>
  <speed>0.0</speed>
  <fix>3d</fix>
</trkpt>
<trkpt lat="33.8103131" lon="-118.3938671">
  <ele>-0.324</ele>
  <time>2026-09-02T22:07:37Z</time>
  <course>186.76</course>
  <speed>0.022360679774997897</speed>
  <fix>3d</fix>
</trkpt>
<trkpt lat="33.810313" lon="-118.393867">
  <ele>-0.29</ele>
  <time>2026-09-02T22:07:37Z</time>
  <course>95.0</course>
  <speed>0.0</speed>
  <fix>3d</fix>
</trkpt>
<trkpt lat="33.8103131" lon="-118.3938671">
  <ele>-0.326</ele>
  <time>2026-09-02T22:07:37Z</time>
  <course>186.75</course>
  <speed>0.022360679774997897</speed>
  <fix>3d</fix>
</trkpt>
<trkpt lat="33.810313" lon="-118.393867">
  <ele>-0.3</ele>
  <time>2026-09-02T22:07:37Z</time>
  <course>95.0</course>
  <speed>0.0</speed>
  <fix>3d</fix>
</trkpt>
<trkpt lat="33.8103131" lon="-118.3938671">
  <ele>-0.326</ele>
  <time>2026-09-02T22:07:37Z</time>
  <course>186.75</course>
  <speed>0.022360679774997897</speed>
  <fix>3d</fix>
</trkpt>
<trkpt lat="33.810313" lon="-118.393867">
  <ele>-0.3</ele>
  <time>2026-09-02T22:07:37Z</time>
  <course>95.0</course>
  <speed>0.0</speed>
  <fix>3d</fix>
</trkpt>
<trkpt lat="33.8103131" lon="-118.3938671">
  <ele>-0.327</ele>
  <time>2026-09-02T22:07:37Z</time>
  <course>186.74</course>
  <speed>0.022360679774997897</speed>
  <fix>3d</fix>
</trkpt>
<trkpt lat="33.810313" lon="-118.393867">
  <ele>-0.31</ele>
  <time>2026-09-02T22:07:37Z</time>
  <course>95.0</course>
  <speed>0.0</speed>
  <fix>3d</fix>
</trkpt>
<trkpt lat="33.8103131" lon="-118.3938671">
  <ele>-0.326</ele>
  <time>2026-09-02T22:07:37Z</time>
  <course>186.74</course>
  <speed>0.022360679774997897</speed>
  <fix>3d</fix>
</trkpt>
<trkpt lat="33.810313" lon="-118.393867">
  <ele>-0.31</ele>
  <time>2026-09-02T22:07:37Z</time>
  <course>95.0</course>
  <speed>0.0</speed>
  <fix>3d</fix>
</trkpt>
<trkpt lat="33.8103131" lon="-118.3938671">
  <ele>-0.324</ele>
  <time>2026-09-02T22:07:37Z</time>
  <course>186.73</course>
  <speed>0.022360679774997897</speed>
  <fix>3d</fix>
</trkpt>
<trkpt lat="33.810313" lon="-118.393867">
  <ele>-0.31</ele>
  <time>2026-09-02T22:07:37Z</time>
  <course>95.0</course>
  <speed>0.0</speed>
  <fix>3d</fix>
</trkpt>
<trkpt lat="33.8103131" lon="-118.3938671">
  <ele>-0.321</ele>
  <time>2026-09-02T22:07:37Z</time>
  <course>186.73</course>
  <speed>0.022360679774997897</speed>
  <fix>3d</fix>
</trkpt>
<trkpt lat="33.810313" lon="-118.393867">
  <ele>-0.31</ele>
  <time>2026-09-02T22:07:37Z</time>
  <course>95.0</course>
  <speed>0.0</speed>
  <fix>3d</fix>
</trkpt>
<trkpt lat="33.8103131" lon="-118.3938671">
  <ele>-0.318</ele>
  <time>2026-09-02T22:07:37Z</time>
  <course>186.73</course>
  <speed>0.022360679774997897</speed>
  <fix>3d</fix>
</trkpt>
<trkpt lat="33.810313" lon="-118.393867">
  <ele>-0.31</ele>
  <time>2026-09-02T22:07:37Z</time>
  <course>95.0</course>
  <speed>0.0</speed>
  <fix>3d</fix>
</trkpt>
<trkpt lat="33.8103131" lon="-118.3938671">
  <ele>-0.315</ele>
  <time>2026-09-02T22:07:37Z</time>
  <course>186.72</course>
  <speed>0.022360679774997897</speed>
  <fix>3d</fix>
</trkpt>
<trkpt lat="33.810313" lon="-118.393867">
  <ele>-0.31</ele>
  <time>2026-09-02T22:07:37Z</time>
  <course>95.0</course>
  <speed>0.0</speed>
  <fix>3d</fix>
</trkpt>
<trkpt lat="33.8103131" lon="-118.3938671">
  <ele>-0.311</ele>
  <time>2026-09-02T22:07:37Z</time>
  <course>186.72</course>
  <speed>0.01414213562373095</speed>
  <fix>3d</fix>
</trkpt>
<trkpt lat="33.810313" lon="-118.393867">
  <ele>-0.31</ele>
  <time>2026-09-02T22:07:37Z</time>
  <course>95.0</course>
  <speed>0.0</speed>
  <fix>3d</fix>
</trkpt>
<trkpt lat="33.8103131" lon="-118.3938671">
  <ele>-0.308</ele>
  <time>2026-09-02T22:07:37Z</time>
  <course>186.71</course>
  <speed>0.01414213562373095</speed>
  <fix>3d</fix>
</trkpt>
<trkpt lat="33.810313" lon="-118.393867">
  <ele>-0.31</ele>
  <time>2026-09-02T22:07:37Z</time>
  <course>95.0</course>
  <speed>0.0</speed>
  <fix>3d</fix>
</trkpt>
<trkpt lat="33.8103131" lon="-118.3938671">
  <ele>-0.303</ele>
  <time>2026-09-02T22:07:37Z</time>
  <course>186.71</course>
  <speed>0.01414213562373095</speed>
  <fix>3d</fix>
</trkpt>
<trkpt lat="33.810313" lon="-118.393867">
  <ele>-0.3</ele>
  <time>2026-09-02T22:07:37Z</time>
  <course>95.0</course>
  <speed>0.0</speed>
  <fix>3d</fix>
</trkpt>
<trkpt lat="33.8103131" lon="-118.3938671">
  <ele>-0.298</ele>
  <time>2026-09-02T22:07:37Z</time>
  <course>186.7</course>
  <speed>0.01414213562373095</speed>
  <fix>3d</fix>
</trkpt>
<trkpt lat="33.810313" lon="-118.393867">
  <ele>-0.3</ele>
  <time>2026-09-02T22:07:37Z</time>
  <course>95.0</course>
  <speed>0.0</speed>
  <fix>3d</fix>
</trkpt>
<trkpt lat="33.8103131" lon="-118.3938671">
  <ele>-0.293</ele>
  <time>2026-09-02T22:07:37Z</time>
  <course>186.7</course>
  <speed>0.01414213562373095</speed>
  <fix>3d</fix>
</trkpt>
<trkpt lat="33.810313" lon="-118.393867">
  <ele>-0.29</ele>
  <time>2026-09-02T22:07:37Z</time>
  <course>95.0</course>
  <speed>0.0</speed>
  <fix>3d</fix>
</trkpt>
<trkpt lat="33.8103131" lon="-118.3938671">
  <ele>-0.287</ele>
  <time>2026-09-02T22:07:37Z</time>
  <course>186.7</course>
  <speed>0.01414213562373095</speed>
  <fix>3d</fix>
</trkpt>
<trkpt lat="33.810313" lon="-118.393867">
  <ele>-0.29</ele>
  <time>2026-09-02T22:07:37Z</time>
  <course>95.0</course>
  <speed>0.0</speed>
  <fix>3d</fix>
</trkpt>
<trkpt lat="33.8103131" lon="-118.3938671">
  <ele>-0.282</ele>
  <time>2026-09-02T22:07:37Z</time>
  <course>186.69</course>
  <speed>0.01414213562373095</speed>
  <fix>3d</fix>
</trkpt>
<trkpt lat="33.810313" lon="-118.393867">
  <ele>-0.28</ele>
  <time>2026-09-02T22:07:37Z</time>
  <course>95.0</course>
  <speed>0.0</speed>
  <fix>3d</fix>
</trkpt>
<trkpt lat="33.8103131" lon="-118.3938671">
  <ele>-0.277</ele>
  <time>2026-09-02T22:07:37Z</time>
  <course>186.69</course>
  <speed>0.01414213562373095</speed>
  <fix>3d</fix>
</trkpt>
<trkpt lat="33.810313" lon="-118.393867">
  <ele>-0.28</ele>
  <time>2026-09-02T22:07:37Z</time>
  <course>95.0</course>
  <speed>0.0</speed>
  <fix>3d</fix>
</trkpt>
<trkpt lat="33.8103131" lon="-118.3938671">
  <ele>-0.25</ele>
  <time>2026-09-02T22:07:37Z</time>
  <course>186.67</course>
  <speed>0.01414213562373095</speed>
  <fix>3d</fix>
</trkpt>
<trkpt lat="33.810313" lon="-118.393867">
  <ele>-0.26</ele>
  <time>2026-09-02T22:07:37Z</time>
  <course>95.0</course>
  <speed>0.0</speed>
  <fix>3d</fix>
</trkpt>
<trkpt lat="33.8103131" lon="-118.3938671">
  <ele>-0.223</ele>
  <time>2026-09-02T22:07:37Z</time>
  <course>186.66</course>
  <speed>0.01414213562373095</speed>
  <fix>3d</fix>
</trkpt>
<trkpt lat="33.810313" lon="-118.393867">
  <ele>-0.23</ele>
  <time>2026-09-02T22:07:37Z</time>
  <course>95.0</course>
  <speed>0.0</speed>
  <fix>3d</fix>
</trkpt>
<trkpt lat="33.8103131" lon="-118.3938671">
  <ele>-0.214</ele>
  <time>2026-09-02T22:07:37Z</time>
  <course>186.66</course>
  <speed>0.01414213562373095</speed>
  <fix>3d</fix>
</trkpt>
<trkpt lat="33.810313" lon="-118.393867">
  <ele>-0.23</ele>
  <time>2026-09-02T22:07:37Z</time>
  <course>95.0</course>
  <speed>0.0</speed>
  <fix>3d</fix>
</trkpt>
<trkpt lat="33.8103131" lon="-118.3938671">
  <ele>-0.193</ele>
  <time>2026-09-02T22:07:37Z</time>
  <course>186.65</course>
  <speed>0.01414213562373095</speed>
  <fix>3d</fix>
</trkpt>
<trkpt lat="33.810313" lon="-118.393867">
  <ele>-0.22</ele>
  <time>2026-09-02T22:07:37Z</time>
  <course>95.0</course>
  <speed>0.0</speed>
  <fix>3d</fix>
</trkpt>
<trkpt lat="33.8103131" lon="-118.3938671">
  <ele>-0.183</ele>
  <time>2026-09-02T22:07:37Z</time>
  <course>186.64</course>
  <speed>0.01414213562373095</speed>
  <fix>3d</fix>
</trkpt>
<trkpt lat="33.810313" lon="-118.393867">
  <ele>-0.19</ele>
  <time>2026-09-02T22:07:37Z</time>
  <course>95.0</course>
  <speed>0.0</speed>
  <fix>3d</fix>
</trkpt>
<trkpt lat="33.8103131" lon="-118.3938671">
  <ele>-0.175</ele>
  <time>2026-09-02T22:07:37Z</time>
  <course>186.64</course>
  <speed>0.01414213562373095</speed>
  <fix>3d</fix>
</trkpt>
<trkpt lat="33.810313" lon="-118.393867">
  <ele>-0.19</ele>
  <time>2026-09-02T22:07:37Z</time>
  <course>95.0</course>
  <speed>0.0</speed>
  <fix>3d</fix>
</trkpt>
<trkpt lat="33.8103131" lon="-118.3938671">
  <ele>-0.166</ele>
  <time>2026-09-02T22:07:37Z</time>
  <course>186.64</course>
  <speed>0.01414213562373095</speed>
  <fix>3d</fix>
</trkpt>
<trkpt lat="33.810313" lon="-118.393867">
  <ele>-0.18</ele>
  <time>2026-09-02T22:07:37Z</time>
  <course>95.0</course>
  <speed>0.0</speed>
  <fix>3d</fix>
</trkpt>
<trkpt lat="33.8103131" lon="-118.3938671">
  <ele>-0.156</ele>
  <time>2026-09-02T22:07:37Z</time>
  <course>186.63</course>
  <speed>0.01414213562373095</speed>
  <fix>3d</fix>
</trkpt>
<trkpt lat="33.810313" lon="-118.393867">
  <ele>-0.18</ele>
  <time>2026-09-02T22:07:37Z</time>
  <course>95.0</course>
  <speed>0.0</speed>
  <fix>3d</fix>
</trkpt>
<trkpt lat="33.8103131" lon="-118.3938671">
  <ele>-0.147</ele>
  <time>2026-09-02T22:07:37Z</time>
  <course>186.63</course>
  <speed>0.01414213562373095</speed>
  <fix>3d</fix>
</trkpt>
<trkpt lat="33.810313" lon="-118.393867">
  <ele>-0.17</ele>
  <time>2026-09-02T22:07:37Z</time>
  <course>95.0</course>
  <speed>0.0</speed>
  <fix>3d</fix>
</trkpt>
<trkpt lat="33.8103131" lon="-118.3938671">
  <ele>-0.138</ele>
  <time>2026-09-02T22:07:37Z</time>
  <course>186.63</course>
  <speed>0.01414213562373095</speed>
  <fix>3d</fix>
</trkpt>
<trkpt lat="33.810313" lon="-118.393867">
  <ele>-0.17</ele>
  <time>2026-09-02T22:07:37Z</time>
  <course>95.0</course>
  <speed>0.0</speed>
  <fix>3d</fix>
</trkpt>
<trkpt lat="33.8103131" lon="-118.3938671">
  <ele>-0.129</ele>
  <time>2026-09-02T22:07:37Z</time>
  <course>186.62</course>
  <speed>0.01414213562373095</speed>
  <fix>3d</fix>
</trkpt>
<trkpt lat="33.810313" lon="-118.393867">
  <ele>-0.15</ele>
  <time>2026-09-02T22:07:37Z</time>
  <course>95.0</course>
  <speed>0.0</speed>
  <fix>3d</fix>
</trkpt>
<trkpt lat="33.8103131" lon="-118.3938671">
  <ele>-0.121</ele>
  <time>2026-09-02T22:07:37Z</time>
  <course>186.62</course>
  <speed>0.01414213562373095</speed>
  <fix>3d</fix>
</trkpt>
<trkpt lat="33.810313" lon="-118.393867">
  <ele>-0.15</ele>
  <time>2026-09-02T22:07:37Z</time>
  <course>95.0</course>
  <speed>0.0</speed>
  <fix>3d</fix>
</trkpt>
<trkpt lat="33.8103131" lon="-118.3938671">
  <ele>-0.113</ele>
  <time>2026-09-02T22:07:37Z</time>
  <course>186.62</course>
  <speed>0.01414213562373095</speed>
  <fix>3d</fix>
</trkpt>
<trkpt lat="33.810313" lon="-118.393867">
  <ele>-0.13</ele>
  <time>2026-09-02T22:07:37Z</time>
  <course>95.0</course>
  <speed>0.0</speed>
  <fix>3d</fix>
</trkpt>
<trkpt lat="33.8103131" lon="-118.3938671">
  <ele>-0.106</ele>
  <time>2026-09-02T22:07:37Z</time>
  <course>186.61</course>
  <speed>0.01414213562373095</speed>
  <fix>3d</fix>
</trkpt>
<trkpt lat="33.810313" lon="-118.393867">
  <ele>-0.13</ele>
  <time>2026-09-02T22:07:37Z</time>
  <course>95.0</course>
  <speed>0.0</speed>
  <fix>3d</fix>
</trkpt>
<trkpt lat="33.8103131" lon="-118.3938671">
  <ele>-0.104</ele>
  <time>2026-09-02T22:07:37Z</time>
  <course>186.61</course>
  <speed>0.01414213562373095</speed>
  <fix>3d</fix>
</trkpt>
<trkpt lat="33.810313" lon="-118.393867">
  <ele>-0.11</ele>
  <time>2026-09-02T22:07:37Z</time>
  <course>95.0</course>
  <speed>0.0</speed>
  <fix>3d</fix>
</trkpt>
<trkpt lat="33.8103131" lon="-118.3938671">
  <ele>-0.107</ele>
  <time>2026-09-02T22:07:37Z</time>
  <course>186.6</course>
  <speed>0.01414213562373095</speed>
  <fix>3d</fix>
</trkpt>
<trkpt lat="33.810313" lon="-118.393867">
  <ele>-0.11</ele>
  <time>2026-09-02T22:07:37Z</time>
  <course>95.0</course>
  <speed>0.0</speed>
  <fix>3d</fix>
</trkpt>
<trkpt lat="33.8103131" lon="-118.3938671">
  <ele>-0.114</ele>
  <time>2026-09-02T22:07:37Z</time>
  <course>186.6</course>
  <speed>0.01414213562373095</speed>
  <fix>3d</fix>
</trkpt>
<trkpt lat="33.810313" lon="-118.393867">
  <ele>-0.11</ele>
  <time>2026-09-02T22:07:37Z</time>
  <course>95.0</course>
  <speed>0.0</speed>
  <fix>3d</fix>
</trkpt>
<trkpt lat="33.8103131" lon="-118.3938671">
  <ele>-0.124</ele>
  <time>2026-09-02T22:07:37Z</time>
  <course>186.6</course>
  <speed>0.01414213562373095</speed>
  <fix>3d</fix>
</trkpt>
<trkpt lat="33.810313" lon="-118.393867">
  <ele>-0.11</ele>
  <time>2026-09-02T22:07:37Z</time>
  <course>95.0</course>
  <speed>0.0</speed>
  <fix>3d</fix>
</trkpt>
<trkpt lat="33.8103131" lon="-118.3938671">
  <ele>-0.131</ele>
  <time>2026-09-02T22:07:37Z</time>
  <course>186.59</course>
  <speed>0.01414213562373095</speed>
  <fix>3d</fix>
</trkpt>
<trkpt lat="33.810313" lon="-118.393867">
  <ele>-0.11</ele>
  <time>2026-09-02T22:07:37Z</time>
  <course>95.0</course>
  <speed>0.0</speed>
  <fix>3d</fix>
</trkpt>
<trkpt lat="33.8103131" lon="-118.3938671">
  <ele>-0.139</ele>
  <time>2026-09-02T22:07:37Z</time>
  <course>186.59</course>
  <speed>0.01414213562373095</speed>
  <fix>3d</fix>
</trkpt>
<trkpt lat="33.810313" lon="-118.393867">
  <ele>-0.11</ele>
  <time>2026-09-02T22:07:37Z</time>
  <course>95.0</course>
  <speed>0.0</speed>
  <fix>3d</fix>
</trkpt>
<trkpt lat="33.8103131" lon="-118.3938671">
  <ele>-0.147</ele>
  <time>2026-09-02T22:07:37Z</time>
  <course>186.59</course>
  <speed>0.01414213562373095</speed>
  <fix>3d</fix>
</trkpt>
<trkpt lat="33.810313" lon="-118.393867">
  <ele>-0.13</ele>
  <time>2026-09-02T22:07:37Z</time>
  <course>95.0</course>
  <speed>0.0</speed>
  <fix>3d</fix>
</trkpt>
<trkpt lat="33.8103131" lon="-118.3938671">
  <ele>-0.154</ele>
  <time>2026-09-02T22:07:37Z</time>
  <course>186.58</course>
  <speed>0.01414213562373095</speed>
  <fix>3d</fix>
</trkpt>
<trkpt lat="33.810313" lon="-118.393867">
  <ele>-0.13</ele>
  <time>2026-09-02T22:07:37Z</time>
  <course>95.0</course>
  <speed>0.0</speed>
  <fix>3d</fix>
</trkpt>
<trkpt lat="33.8103131" lon="-118.3938671">
  <ele>-0.161</ele>
  <time>2026-09-02T22:07:37Z</time>
  <course>186.58</course>
  <speed>0.01414213562373095</speed>
  <fix>3d</fix>
</trkpt>
<trkpt lat="33.810313" lon="-118.393867">
  <ele>-0.14</ele>
  <time>2026-09-02T22:07:37Z</time>
  <course>95.0</course>
  <speed>0.0</speed>
  <fix>3d</fix>
</trkpt>
<trkpt lat="33.8103131" lon="-118.3938671">
  <ele>-0.167</ele>
  <time>2026-09-02T22:07:38Z</time>
  <course>186.58</course>
  <speed>0.01414213562373095</speed>
  <fix>3d</fix>
</trkpt>
<trkpt lat="33.810313" lon="-118.393867">
  <ele>-0.14</ele>
  <time>2026-09-02T22:07:38Z</time>
  <course>95.0</course>
  <speed>0.0</speed>
  <fix>3d</fix>
</trkpt>
<trkpt lat="33.8103131" lon="-118.3938671">
  <ele>-0.172</ele>
  <time>2026-09-02T22:07:38Z</time>
  <course>186.57</course>
  <speed>0.01414213562373095</speed>
  <fix>3d</fix>
</trkpt>
<trkpt lat="33.810313" lon="-118.393867">
  <ele>-0.15</ele>
  <time>2026-09-02T22:07:38Z</time>
  <course>95.0</course>
  <speed>0.0</speed>
  <fix>3d</fix>
</trkpt>
<trkpt lat="33.8103131" lon="-118.3938671">
  <ele>-0.174</ele>
  <time>2026-09-02T22:07:38Z</time>
  <course>186.57</course>
  <speed>0.01414213562373095</speed>
  <fix>3d</fix>
</trkpt>
<trkpt lat="33.810313" lon="-118.393867">
  <ele>-0.15</ele>
  <time>2026-09-02T22:07:38Z</time>
  <course>95.0</course>
  <speed>0.0</speed>
  <fix>3d</fix>
</trkpt>
<trkpt lat="33.8103131" lon="-118.3938671">
  <ele>-0.175</ele>
  <time>2026-09-02T22:07:38Z</time>
  <course>186.56</course>
  <speed>0.01414213562373095</speed>
  <fix>3d</fix>
</trkpt>
<trkpt lat="33.810313" lon="-118.393867">
  <ele>-0.16</ele>
  <time>2026-09-02T22:07:38Z</time>
  <course>95.0</course>
  <speed>0.0</speed>
  <fix>3d</fix>
</trkpt>
<trkpt lat="33.8103131" lon="-118.3938671">
  <ele>-0.177</ele>
  <time>2026-09-02T22:07:38Z</time>
  <course>186.56</course>
  <speed>0.01414213562373095</speed>
  <fix>3d</fix>
</trkpt>
<trkpt lat="33.810313" lon="-118.393867">
  <ele>-0.16</ele>
  <time>2026-09-02T22:07:38Z</time>
  <course>95.0</course>
  <speed>0.0</speed>
  <fix>3d</fix>
</trkpt>
<trkpt lat="33.8103131" lon="-118.3938671">
  <ele>-0.177</ele>
  <time>2026-09-02T22:07:38Z</time>
  <course>186.56</course>
  <speed>0.01414213562373095</speed>
  <fix>3d</fix>
</trkpt>
<trkpt lat="33.810313" lon="-118.393867">
  <ele>-0.16</ele>
  <time>2026-09-02T22:07:38Z</time>
  <course>95.0</course>
  <speed>0.0</speed>
  <fix>3d</fix>
</trkpt>
<trkpt lat="33.8103131" lon="-118.3938671">
  <ele>-0.177</ele>
  <time>2026-09-02T22:07:38Z</time>
  <course>186.55</course>
  <speed>0.01414213562373095</speed>
  <fix>3d</fix>
</trkpt>
<trkpt lat="33.810313" lon="-118.393867">
  <ele>-0.16</ele>
  <time>2026-09-02T22:07:38Z</time>
  <course>95.0</course>
  <speed>0.0</speed>
  <fix>3d</fix>
</trkpt>
<trkpt lat="33.8103131" lon="-118.3938671">
  <ele>-0.176</ele>
  <time>2026-09-02T22:07:38Z</time>
  <course>186.55</course>
  <speed>0.01414213562373095</speed>
  <fix>3d</fix>
</trkpt>
<trkpt lat="33.810313" lon="-118.393867">
  <ele>-0.16</ele>
  <time>2026-09-02T22:07:38Z</time>
  <course>95.0</course>
  <speed>0.0</speed>
  <fix>3d</fix>
</trkpt>
<trkpt lat="33.8103131" lon="-118.3938671">
  <ele>-0.174</ele>
  <time>2026-09-02T22:07:38Z</time>
  <course>186.55</course>
  <speed>0.01414213562373095</speed>
  <fix>3d</fix>
</trkpt>
<trkpt lat="33.810313" lon="-118.393867">
  <ele>-0.16</ele>
  <time>2026-09-02T22:07:38Z</time>
  <course>95.0</course>
  <speed>0.0</speed>
  <fix>3d</fix>
</trkpt>
<trkpt lat="33.8103131" lon="-118.3938671">
  <ele>-0.171</ele>
  <time>2026-09-02T22:07:38Z</time>
  <course>186.54</course>
  <speed>0.022360679774997897</speed>
  <fix>3d</fix>
</trkpt>
<trkpt lat="33.810313" lon="-118.393867">
  <ele>-0.16</ele>
  <time>2026-09-02T22:07:38Z</time>
  <course>95.0</course>
  <speed>0.0</speed>
  <fix>3d</fix>
</trkpt>
<trkpt lat="33.8103131" lon="-118.3938671">
  <ele>-0.168</ele>
  <time>2026-09-02T22:07:38Z</time>
  <course>186.54</course>
  <speed>0.022360679774997897</speed>
  <fix>3d</fix>
</trkpt>
<trkpt lat="33.810313" lon="-118.393867">
  <ele>-0.16</ele>
  <time>2026-09-02T22:07:38Z</time>
  <course>95.0</course>
  <speed>0.0</speed>
  <fix>3d</fix>
</trkpt>
<trkpt lat="33.8103131" lon="-118.3938671">
  <ele>-0.164</ele>
  <time>2026-09-02T22:07:38Z</time>
  <course>186.54</course>
  <speed>0.022360679774997897</speed>
  <fix>3d</fix>
</trkpt>
<trkpt lat="33.810313" lon="-118.393867">
  <ele>-0.15</ele>
  <time>2026-09-02T22:07:38Z</time>
  <course>95.0</course>
  <speed>0.0</speed>
  <fix>3d</fix>
</trkpt>
<trkpt lat="33.8103131" lon="-118.3938671">
  <ele>-0.158</ele>
  <time>2026-09-02T22:07:38Z</time>
  <course>186.53</course>
  <speed>0.022360679774997897</speed>
  <fix>3d</fix>
</trkpt>
<trkpt lat="33.810313" lon="-118.393867">
  <ele>-0.15</ele>
  <time>2026-09-02T22:07:38Z</time>
  <course>95.0</course>
  <speed>0.0</speed>
  <fix>3d</fix>
</trkpt>
<trkpt lat="33.8103131" lon="-118.3938671">
  <ele>-0.152</ele>
  <time>2026-09-02T22:07:38Z</time>
  <course>186.53</course>
  <speed>0.022360679774997897</speed>
  <fix>3d</fix>
</trkpt>
<trkpt lat="33.810313" lon="-118.393867">
  <ele>-0.15</ele>
  <time>2026-09-02T22:07:38Z</time>
  <course>95.0</course>
  <speed>0.0</speed>
  <fix>3d</fix>
</trkpt>
<trkpt lat="33.8103131" lon="-118.3938671">
  <ele>-0.146</ele>
  <time>2026-09-02T22:07:38Z</time>
  <course>186.53</course>
  <speed>0.022360679774997897</speed>
  <fix>3d</fix>
</trkpt>
<trkpt lat="33.810313" lon="-118.393867">
  <ele>-0.15</ele>
  <time>2026-09-02T22:07:38Z</time>
  <course>95.0</course>
  <speed>0.0</speed>
  <fix>3d</fix>
</trkpt>
<trkpt lat="33.8103131" lon="-118.3938671">
  <ele>-0.139</ele>
  <time>2026-09-02T22:07:38Z</time>
  <course>186.52</course>
  <speed>0.022360679774997897</speed>
  <fix>3d</fix>
</trkpt>
<trkpt lat="33.810313" lon="-118.393867">
  <ele>-0.14</ele>
  <time>2026-09-02T22:07:38Z</time>
  <course>95.0</course>
  <speed>0.0</speed>
  <fix>3d</fix>
</trkpt>
<trkpt lat="33.8103131" lon="-118.3938671">
  <ele>-0.131</ele>
  <time>2026-09-02T22:07:38Z</time>
  <course>186.52</course>
  <speed>0.022360679774997897</speed>
  <fix>3d</fix>
</trkpt>
<trkpt lat="33.810313" lon="-118.393867">
  <ele>-0.14</ele>
  <time>2026-09-02T22:07:38Z</time>
  <course>95.0</course>
  <speed>0.0</speed>
  <fix>3d</fix>
</trkpt>
<trkpt lat="33.8103131" lon="-118.3938671">
  <ele>-0.125</ele>
  <time>2026-09-02T22:07:38Z</time>
  <course>186.52</course>
  <speed>0.022360679774997897</speed>
  <fix>3d</fix>
</trkpt>
<trkpt lat="33.810313" lon="-118.393867">
  <ele>-0.13</ele>
  <time>2026-09-02T22:07:38Z</time>
  <course>95.0</course>
  <speed>0.0</speed>
  <fix>3d</fix>
</trkpt>
<trkpt lat="33.8103131" lon="-118.3938671">
  <ele>-0.119</ele>
  <time>2026-09-02T22:07:38Z</time>
  <course>186.51</course>
  <speed>0.022360679774997897</speed>
  <fix>3d</fix>
</trkpt>
<trkpt lat="33.810313" lon="-118.393867">
  <ele>-0.13</ele>
  <time>2026-09-02T22:07:38Z</time>
  <course>95.0</course>
  <speed>0.0</speed>
  <fix>3d</fix>
</trkpt>
<trkpt lat="33.8103131" lon="-118.3938671">
  <ele>-0.116</ele>
  <time>2026-09-02T22:07:38Z</time>
  <course>186.51</course>
  <speed>0.022360679774997897</speed>
  <fix>3d</fix>
</trkpt>
<trkpt lat="33.810313" lon="-118.393867">
  <ele>-0.12</ele>
  <time>2026-09-02T22:07:38Z</time>
  <course>95.0</course>
  <speed>0.0</speed>
  <fix>3d</fix>
</trkpt>
<trkpt lat="33.8103131" lon="-118.3938671">
  <ele>-0.116</ele>
  <time>2026-09-02T22:07:38Z</time>
  <course>186.51</course>
  <speed>0.022360679774997897</speed>
  <fix>3d</fix>
</trkpt>
<trkpt lat="33.810313" lon="-118.393867">
  <ele>-0.12</ele>
  <time>2026-09-02T22:07:38Z</time>
  <course>95.0</course>
  <speed>0.0</speed>
  <fix>3d</fix>
</trkpt>
<trkpt lat="33.8103131" lon="-118.3938671">
  <ele>-0.119</ele>
  <time>2026-09-02T22:07:38Z</time>
  <course>186.5</course>
  <speed>0.022360679774997897</speed>
  <fix>3d</fix>
</trkpt>
<trkpt lat="33.810313" lon="-118.393867">
  <ele>-0.11</ele>
  <time>2026-09-02T22:07:38Z</time>
  <course>95.0</course>
  <speed>0.0</speed>
  <fix>3d</fix>
</trkpt>
<trkpt lat="33.8103131" lon="-118.3938671">
  <ele>-0.124</ele>
  <time>2026-09-02T22:07:38Z</time>
  <course>186.5</course>
  <speed>0.0282842712474619</speed>
  <fix>3d</fix>
</trkpt>
<trkpt lat="33.810313" lon="-118.393867">
  <ele>-0.11</ele>
  <time>2026-09-02T22:07:38Z</time>
  <course>95.0</course>
  <speed>0.0</speed>
  <fix>3d</fix>
</trkpt>
<trkpt lat="33.8103131" lon="-118.3938671">
  <ele>-0.13</ele>
  <time>2026-09-02T22:07:38Z</time>
  <course>186.5</course>
  <speed>0.0282842712474619</speed>
  <fix>3d</fix>
</trkpt>
<trkpt lat="33.810313" lon="-118.393867">
  <ele>-0.11</ele>
  <time>2026-09-02T22:07:38Z</time>
  <course>95.0</course>
  <speed>0.0</speed>
  <fix>3d</fix>
</trkpt>
<trkpt lat="33.8103131" lon="-118.3938671">
  <ele>-0.135</ele>
  <time>2026-09-02T22:07:38Z</time>
  <course>186.49</course>
  <speed>0.0282842712474619</speed>
  <fix>3d</fix>
</trkpt>
<trkpt lat="33.810313" lon="-118.393867">
  <ele>-0.11</ele>
  <time>2026-09-02T22:07:38Z</time>
  <course>95.0</course>
  <speed>0.0</speed>
  <fix>3d</fix>
</trkpt>
<trkpt lat="33.8103131" lon="-118.3938671">
  <ele>-0.139</ele>
  <time>2026-09-02T22:07:38Z</time>
  <course>186.49</course>
  <speed>0.0282842712474619</speed>
  <fix>3d</fix>
</trkpt>
<trkpt lat="33.810313" lon="-118.393867">
  <ele>-0.12</ele>
  <time>2026-09-02T22:07:38Z</time>
  <course>95.0</course>
  <speed>0.0</speed>
  <fix>3d</fix>
</trkpt>
<trkpt lat="33.8103131" lon="-118.3938671">
  <ele>-0.142</ele>
  <time>2026-09-02T22:07:38Z</time>
  <course>186.49</course>
  <speed>0.0282842712474619</speed>
  <fix>3d</fix>
</trkpt>
<trkpt lat="33.810313" lon="-118.393867">
  <ele>-0.12</ele>
  <time>2026-09-02T22:07:38Z</time>
  <course>95.0</course>
  <speed>0.0</speed>
  <fix>3d</fix>
</trkpt>
<trkpt lat="33.8103131" lon="-118.3938671">
  <ele>-0.145</ele>
  <time>2026-09-02T22:07:38Z</time>
  <course>186.48</course>
  <speed>0.0282842712474619</speed>
  <fix>3d</fix>
</trkpt>
<trkpt lat="33.810313" lon="-118.393867">
  <ele>-0.13</ele>
  <time>2026-09-02T22:07:38Z</time>
  <course>95.0</course>
  <speed>0.0</speed>
  <fix>3d</fix>
</trkpt>
<trkpt lat="33.8103131" lon="-118.3938671">
  <ele>-0.148</ele>
  <time>2026-09-02T22:07:38Z</time>
  <course>186.48</course>
  <speed>0.0282842712474619</speed>
  <fix>3d</fix>
</trkpt>
<trkpt lat="33.810313" lon="-118.393867">
  <ele>-0.13</ele>
  <time>2026-09-02T22:07:38Z</time>
  <course>95.0</course>
  <speed>0.0</speed>
  <fix>3d</fix>
</trkpt>
<trkpt lat="33.8103131" lon="-118.3938671">
  <ele>-0.15</ele>
  <time>2026-09-02T22:07:38Z</time>
  <course>186.48</course>
  <speed>0.0282842712474619</speed>
  <fix>3d</fix>
</trkpt>
<trkpt lat="33.810313" lon="-118.393867">
  <ele>-0.14</ele>
  <time>2026-09-02T22:07:38Z</time>
  <course>95.0</course>
  <speed>0.0</speed>
  <fix>3d</fix>
</trkpt>
<trkpt lat="33.8103132" lon="-118.3938671">
  <ele>-0.151</ele>
  <time>2026-09-02T22:07:38Z</time>
  <course>186.47</course>
  <speed>0.0282842712474619</speed>
  <fix>3d</fix>
</trkpt>
<trkpt lat="33.810313" lon="-118.393867">
  <ele>-0.14</ele>
  <time>2026-09-02T22:07:38Z</time>
  <course>95.0</course>
  <speed>0.0</speed>
  <fix>3d</fix>
</trkpt>
<trkpt lat="33.8103132" lon="-118.3938672">
  <ele>-0.146</ele>
  <time>2026-09-02T22:07:38Z</time>
  <course>186.46</course>
  <speed>0.0282842712474619</speed>
  <fix>3d</fix>
</trkpt>
<trkpt lat="33.810313" lon="-118.393867">
  <ele>-0.14</ele>
  <time>2026-09-02T22:07:38Z</time>
  <course>95.0</course>
  <speed>0.0</speed>
  <fix>3d</fix>
</trkpt>
<trkpt lat="33.8103132" lon="-118.3938672">
  <ele>-0.138</ele>
  <time>2026-09-02T22:07:38Z</time>
  <course>186.45</course>
  <speed>0.0282842712474619</speed>
  <fix>3d</fix>
</trkpt>
<trkpt lat="33.810313" lon="-118.393867">
  <ele>-0.14</ele>
  <time>2026-09-02T22:07:38Z</time>
  <course>95.0</course>
  <speed>0.0</speed>
  <fix>3d</fix>
</trkpt>
<trkpt lat="33.8103132" lon="-118.3938672">
  <ele>-0.134</ele>
  <time>2026-09-02T22:07:38Z</time>
  <course>186.45</course>
  <speed>0.0282842712474619</speed>
  <fix>3d</fix>
</trkpt>
<trkpt lat="33.810313" lon="-118.393867">
  <ele>-0.14</ele>
  <time>2026-09-02T22:07:38Z</time>
  <course>95.0</course>
  <speed>0.0</speed>
  <fix>3d</fix>
</trkpt>
<trkpt lat="33.8103132" lon="-118.3938672">
  <ele>-0.131</ele>
  <time>2026-09-02T22:07:38Z</time>
  <course>186.45</course>
  <speed>0.0282842712474619</speed>
  <fix>3d</fix>
</trkpt>
<trkpt lat="33.810313" lon="-118.393867">
  <ele>-0.13</ele>
  <time>2026-09-02T22:07:38Z</time>
  <course>95.0</course>
  <speed>0.0</speed>
  <fix>3d</fix>
</trkpt>
<trkpt lat="33.8103132" lon="-118.3938672">
  <ele>-0.126</ele>
  <time>2026-09-02T22:07:38Z</time>
  <course>186.44</course>
  <speed>0.0282842712474619</speed>
  <fix>3d</fix>
</trkpt>
<trkpt lat="33.810313" lon="-118.393867">
  <ele>-0.13</ele>
  <time>2026-09-02T22:07:38Z</time>
  <course>95.0</course>
  <speed>0.0</speed>
  <fix>3d</fix>
</trkpt>
<trkpt lat="33.8103132" lon="-118.3938672">
  <ele>-0.122</ele>
  <time>2026-09-02T22:07:38Z</time>
  <course>186.44</course>
  <speed>0.03605551275463989</speed>
  <fix>3d</fix>
</trkpt>
<trkpt lat="33.810313" lon="-118.393867">
  <ele>-0.12</ele>
  <time>2026-09-02T22:07:38Z</time>
  <course>95.0</course>
  <speed>0.0</speed>
  <fix>3d</fix>
</trkpt>
<trkpt lat="33.8103132" lon="-118.3938672">
  <ele>-0.121</ele>
  <time>2026-09-02T22:07:38Z</time>
  <course>186.44</course>
  <speed>0.03605551275463989</speed>
  <fix>3d</fix>
</trkpt>
<trkpt lat="33.810313" lon="-118.393867">
  <ele>-0.12</ele>
  <time>2026-09-02T22:07:38Z</time>
  <course>95.0</course>
  <speed>0.0</speed>
  <fix>3d</fix>
</trkpt>
<trkpt lat="33.8103132" lon="-118.3938672">
  <ele>-0.123</ele>
  <time>2026-09-02T22:07:38Z</time>
  <course>186.43</course>
  <speed>0.03605551275463989</speed>
  <fix>3d</fix>
</trkpt>
<trkpt lat="33.810313" lon="-118.393867">
  <ele>-0.11</ele>
  <time>2026-09-02T22:07:38Z</time>
  <course>95.0</course>
  <speed>0.0</speed>
  <fix>3d</fix>
</trkpt>
<trkpt lat="33.8103132" lon="-118.3938672">
  <ele>-0.126</ele>
  <time>2026-09-02T22:07:38Z</time>
  <course>186.43</course>
  <speed>0.03605551275463989</speed>
  <fix>3d</fix>
</trkpt>
<trkpt lat="33.810313" lon="-118.393867">
  <ele>-0.11</ele>
  <time>2026-09-02T22:07:38Z</time>
  <course>95.0</course>
  <speed>0.0</speed>
  <fix>3d</fix>
</trkpt>
<trkpt lat="33.8103132" lon="-118.3938672">
  <ele>-0.13</ele>
  <time>2026-09-02T22:07:38Z</time>
  <course>186.43</course>
  <speed>0.03605551275463989</speed>
  <fix>3d</fix>
</trkpt>
<trkpt lat="33.810313" lon="-118.393867">
  <ele>-0.11</ele>
  <time>2026-09-02T22:07:38Z</time>
  <course>95.0</course>
  <speed>0.0</speed>
  <fix>3d</fix>
</trkpt>
<trkpt lat="33.8103132" lon="-118.3938672">
  <ele>-0.134</ele>
  <time>2026-09-02T22:07:38Z</time>
  <course>186.42</course>
  <speed>0.03605551275463989</speed>
  <fix>3d</fix>
</trkpt>
<trkpt lat="33.810313" lon="-118.393867">
  <ele>-0.11</ele>
  <time>2026-09-02T22:07:38Z</time>
  <course>95.0</course>
  <speed>0.0</speed>
  <fix>3d</fix>
</trkpt>
<trkpt lat="33.8103132" lon="-118.3938672">
  <ele>-0.137</ele>
  <time>2026-09-02T22:07:38Z</time>
  <course>186.42</course>
  <speed>0.03605551275463989</speed>
  <fix>3d</fix>
</trkpt>
<trkpt lat="33.810313" lon="-118.393867">
  <ele>-0.12</ele>
  <time>2026-09-02T22:07:38Z</time>
  <course>95.0</course>
  <speed>0.0</speed>
  <fix>3d</fix>
</trkpt>
<trkpt lat="33.8103132" lon="-118.3938672">
  <ele>-0.141</ele>
  <time>2026-09-02T22:07:38Z</time>
  <course>186.42</course>
  <speed>0.03605551275463989</speed>
  <fix>3d</fix>
</trkpt>
<trkpt lat="33.810313" lon="-118.393867">
  <ele>-0.12</ele>
  <time>2026-09-02T22:07:38Z</time>
  <course>95.0</course>
  <speed>0.0</speed>
  <fix>3d</fix>
</trkpt>
<trkpt lat="33.8103132" lon="-118.3938672">
  <ele>-0.145</ele>
  <time>2026-09-02T22:07:38Z</time>
  <course>186.42</course>
  <speed>0.03605551275463989</speed>
  <fix>3d</fix>
</trkpt>
<trkpt lat="33.810313" lon="-118.393867">
  <ele>-0.13</ele>
  <time>2026-09-02T22:07:38Z</time>
  <course>95.0</course>
  <speed>0.0</speed>
  <fix>3d</fix>
</trkpt>
<trkpt lat="33.8103132" lon="-118.3938672">
  <ele>-0.147</ele>
  <time>2026-09-02T22:07:38Z</time>
  <course>186.41</course>
  <speed>0.03605551275463989</speed>
  <fix>3d</fix>
</trkpt>
<trkpt lat="33.810313" lon="-118.393867">
  <ele>-0.13</ele>
  <time>2026-09-02T22:07:38Z</time>
  <course>95.0</course>
  <speed>0.0</speed>
  <fix>3d</fix>
</trkpt>
<trkpt lat="33.8103132" lon="-118.3938672">
  <ele>-0.148</ele>
  <time>2026-09-02T22:07:38Z</time>
  <course>186.41</course>
  <speed>0.03605551275463989</speed>
  <fix>3d</fix>
</trkpt>
<trkpt lat="33.810313" lon="-118.393867">
  <ele>-0.13</ele>
  <time>2026-09-02T22:07:38Z</time>
  <course>95.0</course>
  <speed>0.0</speed>
  <fix>3d</fix>
</trkpt>
<trkpt lat="33.8103132" lon="-118.3938672">
  <ele>-0.148</ele>
  <time>2026-09-02T22:07:38Z</time>
  <course>186.41</course>
  <speed>0.03605551275463989</speed>
  <fix>3d</fix>
</trkpt>
<trkpt lat="33.810313" lon="-118.393867">
  <ele>-0.13</ele>
  <time>2026-09-02T22:07:38Z</time>
  <course>95.0</course>
  <speed>0.0</speed>
  <fix>3d</fix>
</trkpt>
<trkpt lat="33.8103132" lon="-118.3938672">
  <ele>-0.147</ele>
  <time>2026-09-02T22:07:38Z</time>
  <course>186.4</course>
  <speed>0.03605551275463989</speed>
  <fix>3d</fix>
</trkpt>
<trkpt lat="33.810313" lon="-118.393867">
  <ele>-0.14</ele>
  <time>2026-09-02T22:07:38Z</time>
  <course>95.0</course>
  <speed>0.0</speed>
  <fix>3d</fix>
</trkpt>
<trkpt lat="33.8103132" lon="-118.3938672">
  <ele>-0.146</ele>
  <time>2026-09-02T22:07:38Z</time>
  <course>186.4</course>
  <speed>0.03605551275463989</speed>
  <fix>3d</fix>
</trkpt>
<trkpt lat="33.810313" lon="-118.393867">
  <ele>-0.14</ele>
  <time>2026-09-02T22:07:38Z</time>
  <course>95.0</course>
  <speed>0.0</speed>
  <fix>3d</fix>
</trkpt>
<trkpt lat="33.8103132" lon="-118.3938672">
  <ele>-0.143</ele>
  <time>2026-09-02T22:07:38Z</time>
  <course>186.4</course>
  <speed>0.03605551275463989</speed>
  <fix>3d</fix>
</trkpt>
<trkpt lat="33.810313" lon="-118.393867">
  <ele>-0.14</ele>
  <time>2026-09-02T22:07:38Z</time>
  <course>95.0</course>
  <speed>0.0</speed>
  <fix>3d</fix>
</trkpt>
<trkpt lat="33.8103132" lon="-118.3938672">
  <ele>-0.14</ele>
  <time>2026-09-02T22:07:38Z</time>
  <course>186.4</course>
  <speed>0.03605551275463989</speed>
  <fix>3d</fix>
</trkpt>
<trkpt lat="33.810313" lon="-118.393867">
  <ele>-0.14</ele>
  <time>2026-09-02T22:07:38Z</time>
  <course>95.0</course>
  <speed>0.0</speed>
  <fix>3d</fix>
</trkpt>
<trkpt lat="33.8103132" lon="-118.3938672">
  <ele>-0.137</ele>
  <time>2026-09-02T22:07:38Z</time>
  <course>186.39</course>
  <speed>0.03605551275463989</speed>
  <fix>3d</fix>
</trkpt>
<trkpt lat="33.810313" lon="-118.393867">
  <ele>-0.13</ele>
  <time>2026-09-02T22:07:38Z</time>
  <course>95.0</course>
  <speed>0.0</speed>
  <fix>3d</fix>
</trkpt>
<trkpt lat="33.8103132" lon="-118.3938672">
  <ele>-0.135</ele>
  <time>2026-09-02T22:07:38Z</time>
  <course>186.39</course>
  <speed>0.03605551275463989</speed>
  <fix>3d</fix>
</trkpt>
<trkpt lat="33.810313" lon="-118.393867">
  <ele>-0.13</ele>
  <time>2026-09-02T22:07:38Z</time>
  <course>95.0</course>
  <speed>0.0</speed>
  <fix>3d</fix>
</trkpt>
<trkpt lat="33.8103132" lon="-118.3938672">
  <ele>-0.132</ele>
  <time>2026-09-02T22:07:38Z</time>
  <course>186.39</course>
  <speed>0.03605551275463989</speed>
  <fix>3d</fix>
</trkpt>
<trkpt lat="33.810313" lon="-118.393867">
  <ele>-0.13</ele>
  <time>2026-09-02T22:07:38Z</time>
  <course>95.0</course>
  <speed>0.0</speed>
  <fix>3d</fix>
</trkpt>
<trkpt lat="33.8103132" lon="-118.3938672">
  <ele>-0.127</ele>
  <time>2026-09-02T22:07:38Z</time>
  <course>186.38</course>
  <speed>0.03605551275463989</speed>
  <fix>3d</fix>
</trkpt>
<trkpt lat="33.810313" lon="-118.393867">
  <ele>-0.13</ele>
  <time>2026-09-02T22:07:38Z</time>
  <course>95.0</course>
  <speed>0.0</speed>
  <fix>3d</fix>
</trkpt>
<trkpt lat="33.8103132" lon="-118.3938672">
  <ele>-0.123</ele>
  <time>2026-09-02T22:07:38Z</time>
  <course>186.38</course>
  <speed>0.03605551275463989</speed>
  <fix>3d</fix>
</trkpt>
<trkpt lat="33.810313" lon="-118.393867">
  <ele>-0.12</ele>
  <time>2026-09-02T22:07:38Z</time>
  <course>95.0</course>
  <speed>0.0</speed>
  <fix>3d</fix>
</trkpt>
<trkpt lat="33.8103132" lon="-118.3938672">
  <ele>-0.121</ele>
  <time>2026-09-02T22:07:38Z</time>
  <course>186.38</course>
  <speed>0.03605551275463989</speed>
  <fix>3d</fix>
</trkpt>
<trkpt lat="33.810313" lon="-118.393867">
  <ele>-0.12</ele>
  <time>2026-09-02T22:07:38Z</time>
  <course>95.0</course>
  <speed>0.0</speed>
  <fix>3d</fix>
</trkpt>
<trkpt lat="33.8103132" lon="-118.3938672">
  <ele>-0.12</ele>
  <time>2026-09-02T22:07:38Z</time>
  <course>186.38</course>
  <speed>0.03605551275463989</speed>
  <fix>3d</fix>
</trkpt>
<trkpt lat="33.810313" lon="-118.393867">
  <ele>-0.11</ele>
  <time>2026-09-02T22:07:38Z</time>
  <course>95.0</course>
  <speed>0.0</speed>
  <fix>3d</fix>
</trkpt>
<trkpt lat="33.8103132" lon="-118.3938672">
  <ele>-0.122</ele>
  <time>2026-09-02T22:07:38Z</time>
  <course>186.37</course>
  <speed>0.03605551275463989</speed>
  <fix>3d</fix>
</trkpt>
<trkpt lat="33.810313" lon="-118.393867">
  <ele>-0.11</ele>
  <time>2026-09-02T22:07:38Z</time>
  <course>95.0</course>
  <speed>0.0</speed>
  <fix>3d</fix>
</trkpt>
<trkpt lat="33.8103132" lon="-118.3938672">
  <ele>-0.126</ele>
  <time>2026-09-02T22:07:38Z</time>
  <course>186.37</course>
  <speed>0.03605551275463989</speed>
  <fix>3d</fix>
</trkpt>
<trkpt lat="33.810313" lon="-118.393867">
  <ele>-0.11</ele>
  <time>2026-09-02T22:07:38Z</time>
  <course>95.0</course>
  <speed>0.0</speed>
  <fix>3d</fix>
</trkpt>
<trkpt lat="33.8103132" lon="-118.3938672">
  <ele>-0.131</ele>
  <time>2026-09-02T22:07:38Z</time>
  <course>186.37</course>
  <speed>0.03605551275463989</speed>
  <fix>3d</fix>
</trkpt>
<trkpt lat="33.810313" lon="-118.393867">
  <ele>-0.11</ele>
  <time>2026-09-02T22:07:38Z</time>
  <course>95.0</course>
  <speed>0.0</speed>
  <fix>3d</fix>
</trkpt>
<trkpt lat="33.8103132" lon="-118.3938672">
  <ele>-0.134</ele>
  <time>2026-09-02T22:07:38Z</time>
  <course>186.36</course>
  <speed>0.03605551275463989</speed>
  <fix>3d</fix>
</trkpt>
<trkpt lat="33.810313" lon="-118.393867">
  <ele>-0.12</ele>
  <time>2026-09-02T22:07:38Z</time>
  <course>95.0</course>
  <speed>0.0</speed>
  <fix>3d</fix>
</trkpt>
<trkpt lat="33.8103132" lon="-118.3938672">
  <ele>-0.137</ele>
  <time>2026-09-02T22:07:38Z</time>
  <course>186.36</course>
  <speed>0.03605551275463989</speed>
  <fix>3d</fix>
</trkpt>
<trkpt lat="33.810313" lon="-118.393867">
  <ele>-0.12</ele>
  <time>2026-09-02T22:07:38Z</time>
  <course>95.0</course>
  <speed>0.0</speed>
  <fix>3d</fix>
</trkpt>
<trkpt lat="33.8103132" lon="-118.3938672">
  <ele>-0.139</ele>
  <time>2026-09-02T22:07:38Z</time>
  <course>186.36</course>
  <speed>0.03605551275463989</speed>
  <fix>3d</fix>
</trkpt>
<trkpt lat="33.810313" lon="-118.393867">
  <ele>-0.13</ele>
  <time>2026-09-02T22:07:38Z</time>
  <course>95.0</course>
  <speed>0.0</speed>
  <fix>3d</fix>
</trkpt>
<trkpt lat="33.8103132" lon="-118.3938672">
  <ele>-0.14</ele>
  <time>2026-09-02T22:07:38Z</time>
  <course>186.36</course>
  <speed>0.03605551275463989</speed>
  <fix>3d</fix>
</trkpt>
<trkpt lat="33.810313" lon="-118.393867">
  <ele>-0.13</ele>
  <time>2026-09-02T22:07:38Z</time>
  <course>95.0</course>
  <speed>0.0</speed>
  <fix>3d</fix>
</trkpt>
<trkpt lat="33.8103132" lon="-118.3938672">
  <ele>-0.14</ele>
  <time>2026-09-02T22:07:38Z</time>
  <course>186.35</course>
  <speed>0.03605551275463989</speed>
  <fix>3d</fix>
</trkpt>
<trkpt lat="33.810313" lon="-118.393867">
  <ele>-0.13</ele>
  <time>2026-09-02T22:07:38Z</time>
  <course>95.0</course>
  <speed>0.0</speed>
  <fix>3d</fix>
</trkpt>
<trkpt lat="33.8103132" lon="-118.3938672">
  <ele>-0.14</ele>
  <time>2026-09-02T22:07:38Z</time>
  <course>186.35</course>
  <speed>0.03605551275463989</speed>
  <fix>3d</fix>
</trkpt>
<trkpt lat="33.810313" lon="-118.393867">
  <ele>-0.13</ele>
  <time>2026-09-02T22:07:38Z</time>
  <course>95.0</course>
  <speed>0.0</speed>
  <fix>3d</fix>
</trkpt>
<trkpt lat="33.8103132" lon="-118.3938672">
  <ele>-0.138</ele>
  <time>2026-09-02T22:07:38Z</time>
  <course>186.35</course>
  <speed>0.03605551275463989</speed>
  <fix>3d</fix>
</trkpt>
<trkpt lat="33.810313" lon="-118.393867">
  <ele>-0.13</ele>
  <time>2026-09-02T22:07:38Z</time>
  <course>95.0</course>
  <speed>0.0</speed>
  <fix>3d</fix>
</trkpt>
<trkpt lat="33.8103132" lon="-118.3938672">
  <ele>-0.135</ele>
  <time>2026-09-02T22:07:38Z</time>
  <course>186.35</course>
  <speed>0.03605551275463989</speed>
  <fix>3d</fix>
</trkpt>
<trkpt lat="33.810313" lon="-118.393867">
  <ele>-0.13</ele>
  <time>2026-09-02T22:07:38Z</time>
  <course>95.0</course>
  <speed>0.0</speed>
  <fix>3d</fix>
</trkpt>
<trkpt lat="33.8103132" lon="-118.3938672">
  <ele>-0.132</ele>
  <time>2026-09-02T22:07:38Z</time>
  <course>186.34</course>
  <speed>0.03605551275463989</speed>
  <fix>3d</fix>
</trkpt>
<trkpt lat="33.810313" lon="-118.393867">
  <ele>-0.13</ele>
  <time>2026-09-02T22:07:38Z</time>
  <course>95.0</course>
  <speed>0.0</speed>
  <fix>3d</fix>
</trkpt>
<trkpt lat="33.8103132" lon="-118.3938672">
  <ele>-0.129</ele>
  <time>2026-09-02T22:07:38Z</time>
  <course>186.34</course>
  <speed>0.03605551275463989</speed>
  <fix>3d</fix>
</trkpt>
<trkpt lat="33.810313" lon="-118.393867">
  <ele>-0.13</ele>
  <time>2026-09-02T22:07:38Z</time>
  <course>95.0</course>
  <speed>0.0</speed>
  <fix>3d</fix>
</trkpt>
<trkpt lat="33.8103132" lon="-118.3938672">
  <ele>-0.124</ele>
  <time>2026-09-02T22:07:38Z</time>
  <course>186.34</course>
  <speed>0.03605551275463989</speed>
  <fix>3d</fix>
</trkpt>
<trkpt lat="33.810313" lon="-118.393867">
  <ele>-0.12</ele>
  <time>2026-09-02T22:07:38Z</time>
  <course>95.0</course>
  <speed>0.0</speed>
  <fix>3d</fix>
</trkpt>
<trkpt lat="33.8103132" lon="-118.3938672">
  <ele>-0.119</ele>
  <time>2026-09-02T22:07:38Z</time>
  <course>186.34</course>
  <speed>0.03605551275463989</speed>
  <fix>3d</fix>
</trkpt>
<trkpt lat="33.810313" lon="-118.393867">
  <ele>-0.12</ele>
  <time>2026-09-02T22:07:38Z</time>
  <course>95.0</course>
  <speed>0.0</speed>
  <fix>3d</fix>
</trkpt>
<trkpt lat="33.8103132" lon="-118.3938672">
  <ele>-0.116</ele>
  <time>2026-09-02T22:07:38Z</time>
  <course>186.33</course>
  <speed>0.03605551275463989</speed>
  <fix>3d</fix>
</trkpt>
<trkpt lat="33.810313" lon="-118.393867">
  <ele>-0.12</ele>
  <time>2026-09-02T22:07:38Z</time>
  <course>95.0</course>
  <speed>0.0</speed>
  <fix>3d</fix>
</trkpt>
<trkpt lat="33.8103132" lon="-118.3938672">
  <ele>-0.115</ele>
  <time>2026-09-02T22:07:38Z</time>
  <course>186.33</course>
  <speed>0.03605551275463989</speed>
  <fix>3d</fix>
</trkpt>
<trkpt lat="33.810313" lon="-118.393867">
  <ele>-0.12</ele>
  <time>2026-09-02T22:07:38Z</time>
  <course>95.0</course>
  <speed>0.0</speed>
  <fix>3d</fix>
</trkpt>
<trkpt lat="33.8103132" lon="-118.3938672">
  <ele>-0.115</ele>
  <time>2026-09-02T22:07:38Z</time>
  <course>186.33</course>
  <speed>0.03605551275463989</speed>
  <fix>3d</fix>
</trkpt>
<trkpt lat="33.810313" lon="-118.393867">
  <ele>-0.12</ele>
  <time>2026-09-02T22:07:38Z</time>
  <course>95.0</course>
  <speed>0.0</speed>
  <fix>3d</fix>
</trkpt>
<trkpt lat="33.8103132" lon="-118.3938672">
  <ele>-0.118</ele>
  <time>2026-09-02T22:07:38Z</time>
  <course>186.33</course>
  <speed>0.03605551275463989</speed>
  <fix>3d</fix>
</trkpt>
<trkpt lat="33.810313" lon="-118.393867">
  <ele>-0.12</ele>
  <time>2026-09-02T22:07:38Z</time>
  <course>95.0</course>
  <speed>0.0</speed>
  <fix>3d</fix>
</trkpt>
<trkpt lat="33.8103132" lon="-118.3938672">
  <ele>-0.122</ele>
  <time>2026-09-02T22:07:38Z</time>
  <course>186.33</course>
  <speed>0.03605551275463989</speed>
  <fix>3d</fix>
</trkpt>
<trkpt lat="33.810313" lon="-118.393867">
  <ele>-0.12</ele>
  <time>2026-09-02T22:07:38Z</time>
  <course>95.0</course>
  <speed>0.0</speed>
  <fix>3d</fix>
</trkpt>
<trkpt lat="33.8103132" lon="-118.3938672">
  <ele>-0.125</ele>
  <time>2026-09-02T22:07:38Z</time>
  <course>186.32</course>
  <speed>0.03605551275463989</speed>
  <fix>3d</fix>
</trkpt>
<trkpt lat="33.810313" lon="-118.393867">
  <ele>-0.12</ele>
  <time>2026-09-02T22:07:38Z</time>
  <course>95.0</course>
  <speed>0.0</speed>
  <fix>3d</fix>
</trkpt>
<trkpt lat="33.8103132" lon="-118.3938672">
  <ele>-0.128</ele>
  <time>2026-09-02T22:07:38Z</time>
  <course>186.32</course>
  <speed>0.03605551275463989</speed>
  <fix>3d</fix>
</trkpt>
<trkpt lat="33.810313" lon="-118.393867">
  <ele>-0.12</ele>
  <time>2026-09-02T22:07:38Z</time>
  <course>95.0</course>
  <speed>0.0</speed>
  <fix>3d</fix>
</trkpt>
<trkpt lat="33.8103132" lon="-118.3938672">
  <ele>-0.131</ele>
  <time>2026-09-02T22:07:38Z</time>
  <course>186.32</course>
  <speed>0.0282842712474619</speed>
  <fix>3d</fix>
</trkpt>
<trkpt lat="33.810313" lon="-118.393867">
  <ele>-0.12</ele>
  <time>2026-09-02T22:07:38Z</time>
  <course>95.0</course>
  <speed>0.0</speed>
  <fix>3d</fix>
</trkpt>
<trkpt lat="33.8103132" lon="-118.3938672">
  <ele>-0.132</ele>
  <time>2026-09-02T22:07:38Z</time>
  <course>186.32</course>
  <speed>0.0282842712474619</speed>
  <fix>3d</fix>
</trkpt>
<trkpt lat="33.810313" lon="-118.393867">
  <ele>-0.13</ele>
  <time>2026-09-02T22:07:38Z</time>
  <course>95.0</course>
  <speed>0.0</speed>
  <fix>3d</fix>
</trkpt>
<trkpt lat="33.8103132" lon="-118.3938672">
  <ele>-0.151</ele>
  <time>2026-09-02T22:07:38Z</time>
  <course>186.31</course>
  <speed>0.0282842712474619</speed>
  <fix>3d</fix>
</trkpt>
<trkpt lat="33.810313" lon="-118.393867">
  <ele>-0.13</ele>
  <time>2026-09-02T22:07:38Z</time>
  <course>95.0</course>
  <speed>0.0</speed>
  <fix>3d</fix>
</trkpt>
<trkpt lat="33.8103132" lon="-118.3938672">
  <ele>-0.177</ele>
  <time>2026-09-02T22:07:38Z</time>
  <course>186.31</course>
  <speed>0.0282842712474619</speed>
  <fix>3d</fix>
</trkpt>
<trkpt lat="33.810313" lon="-118.393867">
  <ele>-0.14</ele>
  <time>2026-09-02T22:07:38Z</time>
  <course>275.0</course>
  <speed>0.0</speed>
  <fix>3d</fix>
</trkpt>
<trkpt lat="33.8103132" lon="-118.3938672">
  <ele>-0.201</ele>
  <time>2026-09-02T22:07:38Z</time>
  <course>186.31</course>
  <speed>0.0282842712474619</speed>
  <fix>3d</fix>
</trkpt>
<trkpt lat="33.810313" lon="-118.393867">
  <ele>-0.14</ele>
  <time>2026-09-02T22:07:38Z</time>
  <course>275.0</course>
  <speed>0.0</speed>
  <fix>3d</fix>
</trkpt>
<trkpt lat="33.8103132" lon="-118.3938672">
  <ele>-0.22</ele>
  <time>2026-09-02T22:07:38Z</time>
  <course>186.31</course>
  <speed>0.0282842712474619</speed>
  <fix>3d</fix>
</trkpt>
<trkpt lat="33.810313" lon="-118.393867">
  <ele>-0.17</ele>
  <time>2026-09-02T22:07:38Z</time>
  <course>275.0</course>
  <speed>0.0</speed>
  <fix>3d</fix>
</trkpt>
<trkpt lat="33.8103132" lon="-118.3938672">
  <ele>-0.221</ele>
  <time>2026-09-02T22:07:38Z</time>
  <course>186.31</course>
  <speed>0.0282842712474619</speed>
  <fix>3d</fix>
</trkpt>
<trkpt lat="33.8103132" lon="-118.3938672">
  <ele>-0.234</ele>
  <time>2026-09-02T22:07:38Z</time>
  <course>186.3</course>
  <speed>0.0282842712474619</speed>
  <fix>3d</fix>
</trkpt>
<trkpt lat="33.810313" lon="-118.393867">
  <ele>-0.17</ele>
  <time>2026-09-02T22:07:38Z</time>
  <course>275.0</course>
  <speed>0.0</speed>
  <fix>3d</fix>
</trkpt>
<trkpt lat="33.8103132" lon="-118.3938672">
  <ele>-0.244</ele>
  <time>2026-09-02T22:07:38Z</time>
  <course>186.3</course>
  <speed>0.0282842712474619</speed>
  <fix>3d</fix>
</trkpt>
<trkpt lat="33.810313" lon="-118.393867">
  <ele>-0.21</ele>
  <time>2026-09-02T22:07:38Z</time>
  <course>94.99</course>
  <speed>0.0</speed>
  <fix>3d</fix>
</trkpt>
<trkpt lat="33.8103132" lon="-118.3938672">
  <ele>-0.258</ele>
  <time>2026-09-02T22:07:38Z</time>
  <course>186.3</course>
  <speed>0.0282842712474619</speed>
  <fix>3d</fix>
</trkpt>
<trkpt lat="33.810313" lon="-118.393867">
  <ele>-0.21</ele>
  <time>2026-09-02T22:07:38Z</time>
  <course>94.99</course>
  <speed>0.0</speed>
  <fix>3d</fix>
</trkpt>
<trkpt lat="33.8103132" lon="-118.3938672">
  <ele>-0.291</ele>
  <time>2026-09-02T22:07:38Z</time>
  <course>186.3</course>
  <speed>0.0282842712474619</speed>
  <fix>3d</fix>
</trkpt>
<trkpt lat="33.810313" lon="-118.393867">
  <ele>-0.22</ele>
  <time>2026-09-02T22:07:38Z</time>
  <course>94.99</course>
  <speed>0.0</speed>
  <fix>3d</fix>
</trkpt>
<trkpt lat="33.8103132" lon="-118.3938672">
  <ele>-0.292</ele>
  <time>2026-09-02T22:07:38Z</time>
  <course>186.3</course>
  <speed>0.0282842712474619</speed>
  <fix>3d</fix>
</trkpt>
<trkpt lat="33.8103132" lon="-118.3938672">
  <ele>-0.343</ele>
  <time>2026-09-02T22:07:38Z</time>
  <course>186.29</course>
  <speed>0.0282842712474619</speed>
  <fix>3d</fix>
</trkpt>
<trkpt lat="33.810313" lon="-118.393867">
  <ele>-0.22</ele>
  <time>2026-09-02T22:07:38Z</time>
  <course>94.99</course>
  <speed>0.0</speed>
  <fix>3d</fix>
</trkpt>
<trkpt lat="33.8103132" lon="-118.3938672">
  <ele>-0.346</ele>
  <time>2026-09-02T22:07:38Z</time>
  <course>186.29</course>
  <speed>0.0282842712474619</speed>
  <fix>3d</fix>
</trkpt>
<trkpt lat="33.8103132" lon="-118.3938672">
  <ele>-0.41</ele>
  <time>2026-09-02T22:07:38Z</time>
  <course>186.29</course>
  <speed>0.0282842712474619</speed>
  <fix>3d</fix>
</trkpt>
<trkpt lat="33.810313" lon="-118.393867">
  <ele>-0.28</ele>
  <time>2026-09-02T22:07:38Z</time>
  <course>275.0</course>
  <speed>0.0</speed>
  <fix>3d</fix>
</trkpt>
<trkpt lat="33.8103132" lon="-118.3938672">
  <ele>-0.432</ele>
  <time>2026-09-02T22:07:38Z</time>
  <course>186.29</course>
  <speed>0.0282842712474619</speed>
  <fix>3d</fix>
</trkpt>
<trkpt lat="33.8103132" lon="-118.3938672">
  <ele>-0.487</ele>
  <time>2026-09-02T22:07:38Z</time>
  <course>186.29</course>
  <speed>0.0282842712474619</speed>
  <fix>3d</fix>
</trkpt>
<trkpt lat="33.810313" lon="-118.393867">
  <ele>-0.28</ele>
  <time>2026-09-02T22:07:38Z</time>
  <course>275.0</course>
  <speed>0.0</speed>
  <fix>3d</fix>
</trkpt>
<trkpt lat="33.8103132" lon="-118.3938672">
  <ele>-0.512</ele>
  <time>2026-09-02T22:07:38Z</time>
  <course>186.29</course>
  <speed>0.0282842712474619</speed>
  <fix>3d</fix>
</trkpt>
<trkpt lat="33.8103132" lon="-118.3938672">
  <ele>-0.571</ele>
  <time>2026-09-02T22:07:38Z</time>
  <course>186.29</course>
  <speed>0.022360679774997897</speed>
  <fix>3d</fix>
</trkpt>
<trkpt lat="33.810313" lon="-118.393867">
  <ele>-0.4</ele>
  <time>2026-09-02T22:07:38Z</time>
  <course>275.0</course>
  <speed>0.0</speed>
  <fix>3d</fix>
</trkpt>
<trkpt lat="33.8103132" lon="-118.3938672">
  <ele>-0.597</ele>
  <time>2026-09-02T22:07:38Z</time>
  <course>186.29</course>
  <speed>0.022360679774997897</speed>
  <fix>3d</fix>
</trkpt>
<trkpt lat="33.8103132" lon="-118.3938672">
  <ele>-0.66</ele>
  <time>2026-09-02T22:07:38Z</time>
  <course>186.29</course>
  <speed>0.022360679774997897</speed>
  <fix>3d</fix>
</trkpt>
<trkpt lat="33.810313" lon="-118.393867">
  <ele>-0.4</ele>
  <time>2026-09-02T22:07:38Z</time>
  <course>275.0</course>
  <speed>0.0</speed>
  <fix>3d</fix>
</trkpt>
<trkpt lat="33.8103132" lon="-118.3938672">
  <ele>-0.691</ele>
  <time>2026-09-02T22:07:38Z</time>
  <course>186.29</course>
  <speed>0.022360679774997897</speed>
  <fix>3d</fix>
</trkpt>
<trkpt lat="33.8103132" lon="-118.3938672">
  <ele>-0.752</ele>
  <time>2026-09-02T22:07:38Z</time>
  <course>184.66</course>
  <speed>0.022360679774997897</speed>
  <fix>3d</fix>
</trkpt>
<trkpt lat="33.810313" lon="-118.393867">
  <ele>-0.55</ele>
  <time>2026-09-02T22:07:38Z</time>
  <course>275.0</course>
  <speed>0.0</speed>
  <fix>3d</fix>
</trkpt>
<trkpt lat="33.8103132" lon="-118.3938672">
  <ele>-0.754</ele>
  <time>2026-09-02T22:07:38Z</time>
  <course>184.66</course>
  <speed>0.022360679774997897</speed>
  <fix>3d</fix>
</trkpt>
<trkpt lat="33.8103132" lon="-118.3938672">
  <ele>-0.847</ele>
  <time>2026-09-02T22:07:38Z</time>
  <course>184.65</course>
  <speed>0.01414213562373095</speed>
  <fix>3d</fix>
</trkpt>
<trkpt lat="33.810313" lon="-118.393867">
  <ele>-0.55</ele>
  <time>2026-09-02T22:07:38Z</time>
  <course>275.0</course>
  <speed>0.0</speed>
  <fix>3d</fix>
</trkpt>
<trkpt lat="33.8103132" lon="-118.3938672">
  <ele>-0.85</ele>
  <time>2026-09-02T22:07:38Z</time>
  <course>184.65</course>
  <speed>0.01414213562373095</speed>
  <fix>3d</fix>
</trkpt>
<trkpt lat="33.8103132" lon="-118.3938672">
  <ele>-0.944</ele>
  <time>2026-09-02T22:07:38Z</time>
  <course>184.65</course>
  <speed>0.01414213562373095</speed>
  <fix>3d</fix>
</trkpt>
<trkpt lat="33.810313" lon="-118.393867">
  <ele>-0.72</ele>
  <time>2026-09-02T22:07:38Z</time>
  <course>275.0</course>
  <speed>0.0</speed>
  <fix>3d</fix>
</trkpt>
<trkpt lat="33.8103132" lon="-118.3938672">
  <ele>-0.949</ele>
  <time>2026-09-02T22:07:38Z</time>
  <course>184.65</course>
  <speed>0.01414213562373095</speed>
  <fix>3d</fix>
</trkpt>
<trkpt lat="33.8103132" lon="-118.3938672">
  <ele>-1.041</ele>
  <time>2026-09-02T22:07:38Z</time>
  <course>184.65</course>
  <speed>0.01414213562373095</speed>
  <fix>3d</fix>
</trkpt>
<trkpt lat="33.810313" lon="-118.393867">
  <ele>-0.72</ele>
  <time>2026-09-02T22:07:38Z</time>
  <course>275.0</course>
  <speed>0.0</speed>
  <fix>3d</fix>
</trkpt>
<trkpt lat="33.8103132" lon="-118.3938672">
  <ele>-1.043</ele>
  <time>2026-09-02T22:07:38Z</time>
  <course>184.65</course>
  <speed>0.01414213562373095</speed>
  <fix>3d</fix>
</trkpt>
<trkpt lat="33.8103132" lon="-118.3938672">
  <ele>-1.138</ele>
  <time>2026-09-02T22:07:38Z</time>
  <course>184.64</course>
  <speed>0.01414213562373095</speed>
  <fix>3d</fix>
</trkpt>
<trkpt lat="33.810313" lon="-118.393867">
  <ele>-0.9</ele>
  <time>2026-09-02T22:07:38Z</time>
  <course>275.0</course>
  <speed>0.0</speed>
  <fix>3d</fix>
</trkpt>
<trkpt lat="33.8103132" lon="-118.3938672">
  <ele>-1.14</ele>
  <time>2026-09-02T22:07:38Z</time>
  <course>184.64</course>
  <speed>0.01414213562373095</speed>
  <fix>3d</fix>
</trkpt>
<trkpt lat="33.8103132" lon="-118.3938672">
  <ele>-1.235</ele>
  <time>2026-09-02T22:07:38Z</time>
  <course>184.64</course>
  <speed>0.01414213562373095</speed>
  <fix>3d</fix>
</trkpt>
<trkpt lat="33.810313" lon="-118.393867">
  <ele>-0.9</ele>
  <time>2026-09-02T22:07:38Z</time>
  <course>275.0</course>
  <speed>0.0</speed>
  <fix>3d</fix>
</trkpt>
<trkpt lat="33.8103132" lon="-118.3938672">
  <ele>-1.238</ele>
  <time>2026-09-02T22:07:38Z</time>
  <course>184.64</course>
  <speed>0.01414213562373095</speed>
  <fix>3d</fix>
</trkpt>
<trkpt lat="33.8103132" lon="-118.3938672">
  <ele>-1.333</ele>
  <time>2026-09-02T22:07:38Z</time>
  <course>184.64</course>
  <speed>0.01414213562373095</speed>
  <fix>3d</fix>
</trkpt>
<trkpt lat="33.810313" lon="-118.393867">
  <ele>-1.08</ele>
  <time>2026-09-02T22:07:38Z</time>
  <course>275.0</course>
  <speed>0.0</speed>
  <fix>3d</fix>
</trkpt>
<trkpt lat="33.8103132" lon="-118.3938672">
  <ele>-1.336</ele>
  <time>2026-09-02T22:07:38Z</time>
  <course>184.64</course>
  <speed>0.01414213562373095</speed>
  <fix>3d</fix>
</trkpt>
<trkpt lat="33.8103132" lon="-118.3938672">
  <ele>-1.432</ele>
  <time>2026-09-02T22:07:38Z</time>
  <course>184.63</course>
  <speed>0.01414213562373095</speed>
  <fix>3d</fix>
</trkpt>
<trkpt lat="33.810313" lon="-118.393867">
  <ele>-1.08</ele>
  <time>2026-09-02T22:07:38Z</time>
  <course>275.0</course>
  <speed>0.0</speed>
  <fix>3d</fix>
</trkpt>
<trkpt lat="33.8103132" lon="-118.3938672">
  <ele>-1.464</ele>
  <time>2026-09-02T22:07:38Z</time>
  <course>184.64</course>
  <speed>0.01414213562373095</speed>
  <fix>3d</fix>
</trkpt>
<trkpt lat="33.8103132" lon="-118.3938672">
  <ele>-1.532</ele>
  <time>2026-09-02T22:07:38Z</time>
  <course>184.63</course>
  <speed>0.01414213562373095</speed>
  <fix>3d</fix>
</trkpt>
<trkpt lat="33.810313" lon="-118.393867">
  <ele>-1.27</ele>
  <time>2026-09-02T22:07:38Z</time>
  <course>275.0</course>
  <speed>0.0</speed>
  <fix>3d</fix>
</trkpt>
<trkpt lat="33.8103132" lon="-118.3938672">
  <ele>-1.534</ele>
  <time>2026-09-02T22:07:38Z</time>
  <course>184.63</course>
  <speed>0.01414213562373095</speed>
  <fix>3d</fix>
</trkpt>
<trkpt lat="33.8103132" lon="-118.3938672">
  <ele>-1.631</ele>
  <time>2026-09-02T22:07:38Z</time>
  <course>184.63</course>
  <speed>0.01414213562373095</speed>
  <fix>3d</fix>
</trkpt>
<trkpt lat="33.810313" lon="-118.393867">
  <ele>-1.27</ele>
  <time>2026-09-02T22:07:38Z</time>
  <course>275.0</course>
  <speed>0.0</speed>
  <fix>3d</fix>
</trkpt>
<trkpt lat="33.8103132" lon="-118.3938672">
  <ele>-1.633</ele>
  <time>2026-09-02T22:07:38Z</time>
  <course>184.63</course>
  <speed>0.01414213562373095</speed>
  <fix>3d</fix>
</trkpt>
<trkpt lat="33.8103132" lon="-118.3938672">
  <ele>-1.729</ele>
  <time>2026-09-02T22:07:38Z</time>
  <course>184.62</course>
  <speed>0.01414213562373095</speed>
  <fix>3d</fix>
</trkpt>
<trkpt lat="33.810313" lon="-118.393867">
  <ele>-1.46</ele>
  <time>2026-09-02T22:07:38Z</time>
  <course>275.0</course>
  <speed>0.0</speed>
  <fix>3d</fix>
</trkpt>
<trkpt lat="33.8103132" lon="-118.3938672">
  <ele>-1.731</ele>
  <time>2026-09-02T22:07:38Z</time>
  <course>184.62</course>
  <speed>0.01414213562373095</speed>
  <fix>3d</fix>
</trkpt>
<trkpt lat="33.8103132" lon="-118.3938672">
  <ele>-1.827</ele>
  <time>2026-09-02T22:07:38Z</time>
  <course>184.62</course>
  <speed>0.01414213562373095</speed>
  <fix>3d</fix>
</trkpt>
<trkpt lat="33.810313" lon="-118.393867">
  <ele>-1.46</ele>
  <time>2026-09-02T22:07:38Z</time>
  <course>275.0</course>
  <speed>0.0</speed>
  <fix>3d</fix>
</trkpt>
<trkpt lat="33.8103132" lon="-118.3938672">
  <ele>-1.832</ele>
  <time>2026-09-02T22:07:38Z</time>
  <course>184.62</course>
  <speed>0.01414213562373095</speed>
  <fix>3d</fix>
</trkpt>
<trkpt lat="33.8103132" lon="-118.3938672">
  <ele>-1.924</ele>
  <time>2026-09-02T22:07:38Z</time>
  <course>184.62</course>
  <speed>0.01414213562373095</speed>
  <fix>3d</fix>
</trkpt>
<trkpt lat="33.810313" lon="-118.393867">
  <ele>-1.65</ele>
  <time>2026-09-02T22:07:38Z</time>
  <course>275.0</course>
  <speed>0.0</speed>
  <fix>3d</fix>
</trkpt>
<trkpt lat="33.8103132" lon="-118.3938672">
  <ele>-1.958</ele>
  <time>2026-09-02T22:07:38Z</time>
  <course>184.62</course>
  <speed>0.01414213562373095</speed>
  <fix>3d</fix>
</trkpt>
<trkpt lat="33.8103132" lon="-118.3938672">
  <ele>-2.023</ele>
  <time>2026-09-02T22:07:38Z</time>
  <course>184.62</course>
  <speed>0.01414213562373095</speed>
  <fix>3d</fix>
</trkpt>
<trkpt lat="33.810313" lon="-118.393867">
  <ele>-1.65</ele>
  <time>2026-09-02T22:07:38Z</time>
  <course>275.0</course>
  <speed>0.0</speed>
  <fix>3d</fix>
</trkpt>
<trkpt lat="33.8103132" lon="-118.3938672">
  <ele>-2.052</ele>
  <time>2026-09-02T22:07:38Z</time>
  <course>184.62</course>
  <speed>0.01414213562373095</speed>
  <fix>3d</fix>
</trkpt>
<trkpt lat="33.8103132" lon="-118.3938672">
  <ele>-2.121</ele>
  <time>2026-09-02T22:07:38Z</time>
  <course>184.62</course>
  <speed>0.01414213562373095</speed>
  <fix>3d</fix>
</trkpt>
<trkpt lat="33.810313" lon="-118.393867">
  <ele>-1.83</ele>
  <time>2026-09-02T22:07:38Z</time>
  <course>275.0</course>
  <speed>0.0</speed>
  <fix>3d</fix>
</trkpt>
<trkpt lat="33.8103132" lon="-118.3938672">
  <ele>-2.151</ele>
  <time>2026-09-02T22:07:38Z</time>
  <course>184.63</course>
  <speed>0.01414213562373095</speed>
  <fix>3d</fix>
</trkpt>
<trkpt lat="33.8103132" lon="-118.3938672">
  <ele>-2.219</ele>
  <time>2026-09-02T22:07:38Z</time>
  <course>184.63</course>
  <speed>0.01414213562373095</speed>
  <fix>3d</fix>
</trkpt>
<trkpt lat="33.810313" lon="-118.393867">
  <ele>-1.83</ele>
  <time>2026-09-02T22:07:38Z</time>
  <course>275.0</course>
  <speed>0.0</speed>
  <fix>3d</fix>
</trkpt>
<trkpt lat="33.8103132" lon="-118.3938672">
  <ele>-2.251</ele>
  <time>2026-09-02T22:07:38Z</time>
  <course>184.63</course>
  <speed>0.01414213562373095</speed>
  <fix>3d</fix>
</trkpt>
<trkpt lat="33.8103132" lon="-118.3938672">
  <ele>-2.316</ele>
  <time>2026-09-02T22:07:38Z</time>
  <course>184.64</course>
  <speed>0.01414213562373095</speed>
  <fix>3d</fix>
</trkpt>
<trkpt lat="33.810313" lon="-118.393867">
  <ele>-2.02</ele>
  <time>2026-09-02T22:07:38Z</time>
  <course>275.0</course>
  <speed>0.0</speed>
  <fix>3d</fix>
</trkpt>
<trkpt lat="33.8103132" lon="-118.3938672">
  <ele>-2.318</ele>
  <time>2026-09-02T22:07:38Z</time>
  <course>184.64</course>
  <speed>0.01414213562373095</speed>
  <fix>3d</fix>
</trkpt>
<trkpt lat="33.8103132" lon="-118.3938672">
  <ele>-2.412</ele>
  <time>2026-09-02T22:07:38Z</time>
  <course>184.64</course>
  <speed>0.01414213562373095</speed>
  <fix>3d</fix>
</trkpt>
<trkpt lat="33.810313" lon="-118.393867">
  <ele>-2.02</ele>
  <time>2026-09-02T22:07:38Z</time>
  <course>275.0</course>
  <speed>0.0</speed>
  <fix>3d</fix>
</trkpt>
<trkpt lat="33.8103132" lon="-118.3938672">
  <ele>-2.443</ele>
  <time>2026-09-02T22:07:38Z</time>
  <course>184.64</course>
  <speed>0.01414213562373095</speed>
  <fix>3d</fix>
</trkpt>
<trkpt lat="33.8103132" lon="-118.3938672">
  <ele>-2.509</ele>
  <time>2026-09-02T22:07:38Z</time>
  <course>184.65</course>
  <speed>0.01414213562373095</speed>
  <fix>3d</fix>
</trkpt>
<trkpt lat="33.810313" lon="-118.393867">
  <ele>-2.21</ele>
  <time>2026-09-02T22:07:38Z</time>
  <course>275.0</course>
  <speed>0.0</speed>
  <fix>3d</fix>
</trkpt>
<trkpt lat="33.8103132" lon="-118.3938672">
  <ele>-2.536</ele>
  <time>2026-09-02T22:07:38Z</time>
  <course>184.65</course>
  <speed>0.01414213562373095</speed>
  <fix>3d</fix>
</trkpt>
<trkpt lat="33.8103132" lon="-118.3938672">
  <ele>-2.607</ele>
  <time>2026-09-02T22:07:38Z</time>
  <course>184.65</course>
  <speed>0.01414213562373095</speed>
  <fix>3d</fix>
</trkpt>
<trkpt lat="33.810313" lon="-118.393867">
  <ele>-2.21</ele>
  <time>2026-09-02T22:07:38Z</time>
  <course>275.0</course>
  <speed>0.0</speed>
  <fix>3d</fix>
</trkpt>
<trkpt lat="33.8103132" lon="-118.3938672">
  <ele>-2.609</ele>
  <time>2026-09-02T22:07:38Z</time>
  <course>184.65</course>
  <speed>0.01414213562373095</speed>
  <fix>3d</fix>
</trkpt>
<trkpt lat="33.8103132" lon="-118.3938672">
  <ele>-2.704</ele>
  <time>2026-09-02T22:07:38Z</time>
  <course>184.66</course>
  <speed>0.01414213562373095</speed>
  <fix>3d</fix>
</trkpt>
<trkpt lat="33.810313" lon="-118.393867">
  <ele>-2.4</ele>
  <time>2026-09-02T22:07:38Z</time>
  <course>275.0</course>
  <speed>0.0</speed>
  <fix>3d</fix>
</trkpt>
<trkpt lat="33.8103132" lon="-118.3938672">
  <ele>-2.707</ele>
  <time>2026-09-02T22:07:38Z</time>
  <course>184.66</course>
  <speed>0.01414213562373095</speed>
  <fix>3d</fix>
</trkpt>
<trkpt lat="33.8103132" lon="-118.3938672">
  <ele>-2.802</ele>
  <time>2026-09-02T22:07:38Z</time>
  <course>184.66</course>
  <speed>0.01414213562373095</speed>
  <fix>3d</fix>
</trkpt>
<trkpt lat="33.810313" lon="-118.393867">
  <ele>-2.4</ele>
  <time>2026-09-02T22:07:38Z</time>
  <course>275.0</course>
  <speed>0.0</speed>
  <fix>3d</fix>
</trkpt>
<trkpt lat="33.8103132" lon="-118.3938672">
  <ele>-2.83</ele>
  <time>2026-09-02T22:07:38Z</time>
  <course>184.66</course>
  <speed>0.01414213562373095</speed>
  <fix>3d</fix>
</trkpt>
<trkpt lat="33.8103132" lon="-118.3938672">
  <ele>-2.901</ele>
  <time>2026-09-02T22:07:38Z</time>
  <course>184.66</course>
  <speed>0.01414213562373095</speed>
  <fix>3d</fix>
</trkpt>
<trkpt lat="33.810313" lon="-118.393867">
  <ele>-2.59</ele>
  <time>2026-09-02T22:07:38Z</time>
  <course>275.0</course>
  <speed>0.0</speed>
  <fix>3d</fix>
</trkpt>
<trkpt lat="33.8103132" lon="-118.3938672">
  <ele>-2.93</ele>
  <time>2026-09-02T22:07:38Z</time>
  <course>184.66</course>
  <speed>0.01414213562373095</speed>
  <fix>3d</fix>
</trkpt>
<trkpt lat="33.8103132" lon="-118.3938672">
  <ele>-2.998</ele>
  <time>2026-09-02T22:07:38Z</time>
  <course>184.67</course>
  <speed>0.01414213562373095</speed>
  <fix>3d</fix>
</trkpt>
<trkpt lat="33.810313" lon="-118.393867">
  <ele>-2.59</ele>
  <time>2026-09-02T22:07:38Z</time>
  <course>275.0</course>
  <speed>0.0</speed>
  <fix>3d</fix>
</trkpt>
<trkpt lat="33.8103132" lon="-118.3938672">
  <ele>-3.025</ele>
  <time>2026-09-02T22:07:38Z</time>
  <course>184.67</course>
  <speed>0.01414213562373095</speed>
  <fix>3d</fix>
</trkpt>
<trkpt lat="33.8103132" lon="-118.3938672">
  <ele>-3.094</ele>
  <time>2026-09-02T22:07:38Z</time>
  <course>184.67</course>
  <speed>0.01414213562373095</speed>
  <fix>3d</fix>
</trkpt>
<trkpt lat="33.810313" lon="-118.393867">
  <ele>-2.78</ele>
  <time>2026-09-02T22:07:38Z</time>
  <course>275.0</course>
  <speed>0.0</speed>
  <fix>3d</fix>
</trkpt>
<trkpt lat="33.8103132" lon="-118.3938672">
  <ele>-3.123</ele>
  <time>2026-09-02T22:07:38Z</time>
  <course>184.67</course>
  <speed>0.01414213562373095</speed>
  <fix>3d</fix>
</trkpt>
<trkpt lat="33.8103132" lon="-118.3938672">
  <ele>-3.19</ele>
  <time>2026-09-02T22:07:38Z</time>
  <course>184.67</course>
  <speed>0.01414213562373095</speed>
  <fix>3d</fix>
</trkpt>
<trkpt lat="33.810313" lon="-118.393867">
  <ele>-2.78</ele>
  <time>2026-09-02T22:07:38Z</time>
  <course>275.0</course>
  <speed>0.0</speed>
  <fix>3d</fix>
</trkpt>
<trkpt lat="33.8103132" lon="-118.3938672">
  <ele>-3.219</ele>
  <time>2026-09-02T22:07:38Z</time>
  <course>184.67</course>
  <speed>0.01414213562373095</speed>
  <fix>3d</fix>
</trkpt>
<trkpt lat="33.8103132" lon="-118.3938672">
  <ele>-3.286</ele>
  <time>2026-09-02T22:07:38Z</time>
  <course>184.68</course>
  <speed>0.01414213562373095</speed>
  <fix>3d</fix>
</trkpt>
<trkpt lat="33.810313" lon="-118.393867">
  <ele>-2.97</ele>
  <time>2026-09-02T22:07:38Z</time>
  <course>275.0</course>
  <speed>0.0</speed>
  <fix>3d</fix>
</trkpt>
<trkpt lat="33.8103132" lon="-118.3938672">
  <ele>-3.288</ele>
  <time>2026-09-02T22:07:38Z</time>
  <course>184.68</course>
  <speed>0.01414213562373095</speed>
  <fix>3d</fix>
</trkpt>
<trkpt lat="33.8103132" lon="-118.3938672">
  <ele>-3.382</ele>
  <time>2026-09-02T22:07:38Z</time>
  <course>184.68</course>
  <speed>0.01414213562373095</speed>
  <fix>3d</fix>
</trkpt>
<trkpt lat="33.810313" lon="-118.393867">
  <ele>-2.97</ele>
  <time>2026-09-02T22:07:38Z</time>
  <course>275.0</course>
  <speed>0.0</speed>
  <fix>3d</fix>
</trkpt>
<trkpt lat="33.8103132" lon="-118.3938672">
  <ele>-3.409</ele>
  <time>2026-09-02T22:07:38Z</time>
  <course>184.68</course>
  <speed>0.01414213562373095</speed>
  <fix>3d</fix>
</trkpt>
<trkpt lat="33.8103132" lon="-118.3938672">
  <ele>-3.48</ele>
  <time>2026-09-02T22:07:38Z</time>
  <course>184.68</course>
  <speed>0.01414213562373095</speed>
  <fix>3d</fix>
</trkpt>
<trkpt lat="33.810313" lon="-118.393867">
  <ele>-3.16</ele>
  <time>2026-09-02T22:07:38Z</time>
  <course>275.0</course>
  <speed>0.0</speed>
  <fix>3d</fix>
</trkpt>
<trkpt lat="33.8103132" lon="-118.3938672">
  <ele>-3.512</ele>
  <time>2026-09-02T22:07:38Z</time>
  <course>184.69</course>
  <speed>0.01414213562373095</speed>
  <fix>3d</fix>
</trkpt>
<trkpt lat="33.8103132" lon="-118.3938672">
  <ele>-3.578</ele>
  <time>2026-09-02T22:07:38Z</time>
  <course>184.69</course>
  <speed>0.01414213562373095</speed>
  <fix>3d</fix>
</trkpt>
<trkpt lat="33.810313" lon="-118.393867">
  <ele>-3.16</ele>
  <time>2026-09-02T22:07:38Z</time>
  <course>275.0</course>
  <speed>0.0</speed>
  <fix>3d</fix>
</trkpt>
<trkpt lat="33.8103132" lon="-118.3938672">
  <ele>-3.612</ele>
  <time>2026-09-02T22:07:38Z</time>
  <course>184.69</course>
  <speed>0.01414213562373095</speed>
  <fix>3d</fix>
</trkpt>
<trkpt lat="33.8103132" lon="-118.3938672">
  <ele>-3.676</ele>
  <time>2026-09-02T22:07:38Z</time>
  <course>184.69</course>
  <speed>0.01414213562373095</speed>
  <fix>3d</fix>
</trkpt>
<trkpt lat="33.810313" lon="-118.393867">
  <ele>-3.36</ele>
  <time>2026-09-02T22:07:38Z</time>
  <course>275.0</course>
  <speed>0.0</speed>
  <fix>3d</fix>
</trkpt>
<trkpt lat="33.8103132" lon="-118.3938672">
  <ele>-3.705</ele>
  <time>2026-09-02T22:07:38Z</time>
  <course>184.69</course>
  <speed>0.01414213562373095</speed>
  <fix>3d</fix>
</trkpt>
<trkpt lat="33.8103131" lon="-118.3938672">
  <ele>-3.774</ele>
  <time>2026-09-02T22:07:38Z</time>
  <course>184.69</course>
  <speed>0.01414213562373095</speed>
  <fix>3d</fix>
</trkpt>
<trkpt lat="33.810313" lon="-118.393867">
  <ele>-3.36</ele>
  <time>2026-09-02T22:07:38Z</time>
  <course>275.0</course>
  <speed>0.0</speed>
  <fix>3d</fix>
</trkpt>
<trkpt lat="33.8103132" lon="-118.3938672">
  <ele>-3.804</ele>
  <time>2026-09-02T22:07:38Z</time>
  <course>184.7</course>
  <speed>0.01414213562373095</speed>
  <fix>3d</fix>
</trkpt>
<trkpt lat="33.8103131" lon="-118.3938672">
  <ele>-3.874</ele>
  <time>2026-09-02T22:07:38Z</time>
  <course>184.7</course>
  <speed>0.01414213562373095</speed>
  <fix>3d</fix>
</trkpt>
<trkpt lat="33.810313" lon="-118.3938671">
  <ele>-3.56</ele>
  <time>2026-09-02T22:07:38Z</time>
  <course>275.0</course>
  <speed>0.0</speed>
  <fix>3d</fix>
</trkpt>
<trkpt lat="33.8103131" lon="-118.3938672">
  <ele>-3.906</ele>
  <time>2026-09-02T22:07:38Z</time>
  <course>184.7</course>
  <speed>0.01414213562373095</speed>
  <fix>3d</fix>
</trkpt>
<trkpt lat="33.8103131" lon="-118.3938672">
  <ele>-3.974</ele>
  <time>2026-09-02T22:07:38Z</time>
  <course>184.7</course>
  <speed>0.01414213562373095</speed>
  <fix>3d</fix>
</trkpt>
<trkpt lat="33.810313" lon="-118.3938671">
  <ele>-3.56</ele>
  <time>2026-09-02T22:07:38Z</time>
  <course>275.0</course>
  <speed>0.0</speed>
  <fix>3d</fix>
</trkpt>
<trkpt lat="33.8103131" lon="-118.3938672">
  <ele>-3.976</ele>
  <time>2026-09-02T22:07:38Z</time>
  <course>184.7</course>
  <speed>0.01414213562373095</speed>
  <fix>3d</fix>
</trkpt>
<trkpt lat="33.8103131" lon="-118.3938672">
  <ele>-4.073</ele>
  <time>2026-09-02T22:07:38Z</time>
  <course>184.7</course>
  <speed>0.01414213562373095</speed>
  <fix>3d</fix>
</trkpt>
<trkpt lat="33.810313" lon="-118.3938671">
  <ele>-3.75</ele>
  <time>2026-09-02T22:07:38Z</time>
  <course>275.0</course>
  <speed>0.0</speed>
  <fix>3d</fix>
</trkpt>
<trkpt lat="33.8103131" lon="-118.3938672">
  <ele>-4.1</ele>
  <time>2026-09-02T22:07:38Z</time>
  <course>184.71</course>
  <speed>0.01414213562373095</speed>
  <fix>3d</fix>
</trkpt>
<trkpt lat="33.8103131" lon="-118.3938672">
  <ele>-4.172</ele>
  <time>2026-09-02T22:07:38Z</time>
  <course>184.71</course>
  <speed>0.01414213562373095</speed>
  <fix>3d</fix>
</trkpt>
<trkpt lat="33.810313" lon="-118.3938671">
  <ele>-3.75</ele>
  <time>2026-09-02T22:07:38Z</time>
  <course>275.0</course>
  <speed>0.0</speed>
  <fix>3d</fix>
</trkpt>
<trkpt lat="33.8103131" lon="-118.3938672">
  <ele>-4.202</ele>
  <time>2026-09-02T22:07:38Z</time>
  <course>184.71</course>
  <speed>0.01414213562373095</speed>
  <fix>3d</fix>
</trkpt>
<trkpt lat="33.8103131" lon="-118.3938672">
  <ele>-4.272</ele>
  <time>2026-09-02T22:07:38Z</time>
  <course>184.71</course>
  <speed>0.01414213562373095</speed>
  <fix>3d</fix>
</trkpt>
<trkpt lat="33.810313" lon="-118.3938671">
  <ele>-3.95</ele>
  <time>2026-09-02T22:07:38Z</time>
  <course>275.0</course>
  <speed>0.0</speed>
  <fix>3d</fix>
</trkpt>
<trkpt lat="33.8103131" lon="-118.3938672">
  <ele>-4.302</ele>
  <time>2026-09-02T22:07:38Z</time>
  <course>184.71</course>
  <speed>0.01414213562373095</speed>
  <fix>3d</fix>
</trkpt>
<trkpt lat="33.8103131" lon="-118.3938672">
  <ele>-4.371</ele>
  <time>2026-09-02T22:07:38Z</time>
  <course>184.72</course>
  <speed>0.01414213562373095</speed>
  <fix>3d</fix>
</trkpt>
<trkpt lat="33.810313" lon="-118.3938671">
  <ele>-3.95</ele>
  <time>2026-09-02T22:07:38Z</time>
  <course>275.0</course>
  <speed>0.0</speed>
  <fix>3d</fix>
</trkpt>
<trkpt lat="33.8103131" lon="-118.3938672">
  <ele>-4.374</ele>
  <time>2026-09-02T22:07:38Z</time>
  <course>184.72</course>
  <speed>0.01414213562373095</speed>
  <fix>3d</fix>
</trkpt>
<trkpt lat="33.8103131" lon="-118.3938672">
  <ele>-4.47</ele>
  <time>2026-09-02T22:07:38Z</time>
  <course>184.72</course>
  <speed>0.01414213562373095</speed>
  <fix>3d</fix>
</trkpt>
<trkpt lat="33.810313" lon="-118.3938671">
  <ele>-4.14</ele>
  <time>2026-09-02T22:07:38Z</time>
  <course>275.0</course>
  <speed>0.0</speed>
  <fix>3d</fix>
</trkpt>
<trkpt lat="33.8103131" lon="-118.3938672">
  <ele>-4.5</ele>
  <time>2026-09-02T22:07:38Z</time>
  <course>184.72</course>
  <speed>0.01414213562373095</speed>
  <fix>3d</fix>
</trkpt>
<trkpt lat="33.8103131" lon="-118.3938672">
  <ele>-4.569</ele>
  <time>2026-09-02T22:07:38Z</time>
  <course>184.72</course>
  <speed>0.01414213562373095</speed>
  <fix>3d</fix>
</trkpt>
<trkpt lat="33.810313" lon="-118.3938671">
  <ele>-4.14</ele>
  <time>2026-09-02T22:07:38Z</time>
  <course>275.0</course>
  <speed>0.0</speed>
  <fix>3d</fix>
</trkpt>
<trkpt lat="33.8103131" lon="-118.3938672">
  <ele>-4.601</ele>
  <time>2026-09-02T22:07:38Z</time>
  <course>184.72</course>
  <speed>0.01414213562373095</speed>
  <fix>3d</fix>
</trkpt>
<trkpt lat="33.8103131" lon="-118.3938672">
  <ele>-4.667</ele>
  <time>2026-09-02T22:07:38Z</time>
  <course>184.73</course>
  <speed>0.01414213562373095</speed>
  <fix>3d</fix>
</trkpt>
<trkpt lat="33.810313" lon="-118.3938671">
  <ele>-4.34</ele>
  <time>2026-09-02T22:07:38Z</time>
  <course>275.0</course>
  <speed>0.0</speed>
  <fix>3d</fix>
</trkpt>
<trkpt lat="33.8103131" lon="-118.3938672">
  <ele>-4.699</ele>
  <time>2026-09-02T22:07:38Z</time>
  <course>184.73</course>
  <speed>0.01414213562373095</speed>
  <fix>3d</fix>
</trkpt>
<trkpt lat="33.8103131" lon="-118.3938672">
  <ele>-4.764</ele>
  <time>2026-09-02T22:07:38Z</time>
  <course>184.73</course>
  <speed>0.01414213562373095</speed>
  <fix>3d</fix>
</trkpt>
<trkpt lat="33.810313" lon="-118.3938671">
  <ele>-4.34</ele>
  <time>2026-09-02T22:07:38Z</time>
  <course>275.0</course>
  <speed>0.0</speed>
  <fix>3d</fix>
</trkpt>
<trkpt lat="33.8103131" lon="-118.3938672">
  <ele>-4.793</ele>
  <time>2026-09-02T22:07:38Z</time>
  <course>184.73</course>
  <speed>0.01414213562373095</speed>
  <fix>3d</fix>
</trkpt>
<trkpt lat="33.8103131" lon="-118.3938672">
  <ele>-4.861</ele>
  <time>2026-09-02T22:07:38Z</time>
  <course>184.73</course>
  <speed>0.01414213562373095</speed>
  <fix>3d</fix>
</trkpt>
<trkpt lat="33.810313" lon="-118.3938671">
  <ele>-4.53</ele>
  <time>2026-09-02T22:07:38Z</time>
  <course>275.0</course>
  <speed>0.0</speed>
  <fix>3d</fix>
</trkpt>
<trkpt lat="33.8103131" lon="-118.3938672">
  <ele>-4.89</ele>
  <time>2026-09-02T22:07:38Z</time>
  <course>184.73</course>
  <speed>0.01414213562373095</speed>
  <fix>3d</fix>
</trkpt>
<trkpt lat="33.8103131" lon="-118.3938672">
  <ele>-4.959</ele>
  <time>2026-09-02T22:07:38Z</time>
  <course>184.74</course>
  <speed>0.01414213562373095</speed>
  <fix>3d</fix>
</trkpt>
<trkpt lat="33.810313" lon="-118.3938671">
  <ele>-4.53</ele>
  <time>2026-09-02T22:07:38Z</time>
  <course>275.0</course>
  <speed>0.0</speed>
  <fix>3d</fix>
</trkpt>
<trkpt lat="33.8103131" lon="-118.3938672">
  <ele>-4.988</ele>
  <time>2026-09-02T22:07:38Z</time>
  <course>184.74</course>
  <speed>0.01414213562373095</speed>
  <fix>3d</fix>
</trkpt>
<trkpt lat="33.8103131" lon="-118.3938672">
  <ele>-5.055</ele>
  <time>2026-09-02T22:07:38Z</time>
  <course>184.74</course>
  <speed>0.01414213562373095</speed>
  <fix>3d</fix>
</trkpt>
<trkpt lat="33.810313" lon="-118.3938671">
  <ele>-4.72</ele>
  <time>2026-09-02T22:07:38Z</time>
  <course>275.0</course>
  <speed>0.0</speed>
  <fix>3d</fix>
</trkpt>
<trkpt lat="33.8103131" lon="-118.3938672">
  <ele>-5.058</ele>
  <time>2026-09-02T22:07:38Z</time>
  <course>184.74</course>
  <speed>0.01414213562373095</speed>
  <fix>3d</fix>
</trkpt>
<trkpt lat="33.8103131" lon="-118.3938672">
  <ele>-5.152</ele>
  <time>2026-09-02T22:07:38Z</time>
  <course>184.74</course>
  <speed>0.01414213562373095</speed>
  <fix>3d</fix>
</trkpt>
<trkpt lat="33.810313" lon="-118.3938671">
  <ele>-4.72</ele>
  <time>2026-09-02T22:07:38Z</time>
  <course>275.0</course>
  <speed>0.0</speed>
  <fix>3d</fix>
</trkpt>
<trkpt lat="33.8103131" lon="-118.3938672">
  <ele>-5.244</ele>
  <time>2026-09-02T22:07:38Z</time>
  <course>184.75</course>
  <speed>0.01414213562373095</speed>
  <fix>3d</fix>
</trkpt>
<trkpt lat="33.810313" lon="-118.3938671">
  <ele>-4.91</ele>
  <time>2026-09-02T22:07:38Z</time>
  <course>275.0</course>
  <speed>0.0</speed>
  <fix>3d</fix>
</trkpt>
<trkpt lat="33.8103132" lon="-118.3938672">
  <ele>-5.325</ele>
  <time>2026-09-02T22:07:39Z</time>
  <course>184.75</course>
  <speed>0.01414213562373095</speed>
  <fix>3d</fix>
</trkpt>
<trkpt lat="33.810313" lon="-118.3938671">
  <ele>-4.91</ele>
  <time>2026-09-02T22:07:39Z</time>
  <course>275.0</course>
  <speed>0.0</speed>
  <fix>3d</fix>
</trkpt>
<trkpt lat="33.8103132" lon="-118.3938672">
  <ele>-5.388</ele>
  <time>2026-09-02T22:07:39Z</time>
  <course>184.75</course>
  <speed>0.01414213562373095</speed>
  <fix>3d</fix>
</trkpt>
<trkpt lat="33.810313" lon="-118.3938671">
  <ele>-5.09</ele>
  <time>2026-09-02T22:07:39Z</time>
  <course>275.0</course>
  <speed>0.0</speed>
  <fix>3d</fix>
</trkpt>
<trkpt lat="33.8103132" lon="-118.3938672">
  <ele>-5.435</ele>
  <time>2026-09-02T22:07:39Z</time>
  <course>184.76</course>
  <speed>0.01414213562373095</speed>
  <fix>3d</fix>
</trkpt>
<trkpt lat="33.810313" lon="-118.3938671">
  <ele>-5.09</ele>
  <time>2026-09-02T22:07:39Z</time>
  <course>275.0</course>
  <speed>0.0</speed>
  <fix>3d</fix>
</trkpt>
<trkpt lat="33.8103132" lon="-118.3938672">
  <ele>-5.47</ele>
  <time>2026-09-02T22:07:39Z</time>
  <course>184.76</course>
  <speed>0.022360679774997897</speed>
  <fix>3d</fix>
</trkpt>
<trkpt lat="33.810313" lon="-118.3938671">
  <ele>-5.22</ele>
  <time>2026-09-02T22:07:39Z</time>
  <course>275.0</course>
  <speed>0.0</speed>
  <fix>3d</fix>
</trkpt>
<trkpt lat="33.8103132" lon="-118.3938672">
  <ele>-5.496</ele>
  <time>2026-09-02T22:07:39Z</time>
  <course>184.77</course>
  <speed>0.022360679774997897</speed>
  <fix>3d</fix>
</trkpt>
<trkpt lat="33.810313" lon="-118.3938671">
  <ele>-5.22</ele>
  <time>2026-09-02T22:07:39Z</time>
  <course>275.0</course>
  <speed>0.0</speed>
  <fix>3d</fix>
</trkpt>
<trkpt lat="33.8103132" lon="-118.3938672">
  <ele>-5.512</ele>
  <time>2026-09-02T22:07:39Z</time>
  <course>184.77</course>
  <speed>0.022360679774997897</speed>
  <fix>3d</fix>
</trkpt>
<trkpt lat="33.810313" lon="-118.3938671">
  <ele>-5.3</ele>
  <time>2026-09-02T22:07:39Z</time>
  <course>275.0</course>
  <speed>0.0</speed>
  <fix>3d</fix>
</trkpt>
<trkpt lat="33.8103132" lon="-118.3938672">
  <ele>-5.519</ele>
  <time>2026-09-02T22:07:39Z</time>
  <course>184.77</course>
  <speed>0.022360679774997897</speed>
  <fix>3d</fix>
</trkpt>
<trkpt lat="33.810313" lon="-118.3938671">
  <ele>-5.3</ele>
  <time>2026-09-02T22:07:39Z</time>
  <course>275.0</course>
  <speed>0.0</speed>
  <fix>3d</fix>
</trkpt>
<trkpt lat="33.8103132" lon="-118.3938672">
  <ele>-5.522</ele>
  <time>2026-09-02T22:07:39Z</time>
  <course>184.78</course>
  <speed>0.022360679774997897</speed>
  <fix>3d</fix>
</trkpt>
<trkpt lat="33.810313" lon="-118.3938671">
  <ele>-5.34</ele>
  <time>2026-09-02T22:07:39Z</time>
  <course>275.0</course>
  <speed>0.0</speed>
  <fix>3d</fix>
</trkpt>
<trkpt lat="33.8103132" lon="-118.3938672">
  <ele>-5.52</ele>
  <time>2026-09-02T22:07:39Z</time>
  <course>184.78</course>
  <speed>0.022360679774997897</speed>
  <fix>3d</fix>
</trkpt>
<trkpt lat="33.810313" lon="-118.3938671">
  <ele>-5.34</ele>
  <time>2026-09-02T22:07:39Z</time>
  <course>275.0</course>
  <speed>0.0</speed>
  <fix>3d</fix>
</trkpt>
<trkpt lat="33.8103132" lon="-118.3938672">
  <ele>-5.516</ele>
  <time>2026-09-02T22:07:39Z</time>
  <course>184.78</course>
  <speed>0.022360679774997897</speed>
  <fix>3d</fix>
</trkpt>
<trkpt lat="33.810313" lon="-118.3938671">
  <ele>-5.35</ele>
  <time>2026-09-02T22:07:39Z</time>
  <course>275.0</course>
  <speed>0.0</speed>
  <fix>3d</fix>
</trkpt>
<trkpt lat="33.8103132" lon="-118.3938672">
  <ele>-5.51</ele>
  <time>2026-09-02T22:07:39Z</time>
  <course>184.79</course>
  <speed>0.022360679774997897</speed>
  <fix>3d</fix>
</trkpt>
<trkpt lat="33.810313" lon="-118.3938671">
  <ele>-5.35</ele>
  <time>2026-09-02T22:07:39Z</time>
  <course>275.0</course>
  <speed>0.0</speed>
  <fix>3d</fix>
</trkpt>
<trkpt lat="33.8103132" lon="-118.3938672">
  <ele>-5.504</ele>
  <time>2026-09-02T22:07:39Z</time>
  <course>184.79</course>
  <speed>0.022360679774997897</speed>
  <fix>3d</fix>
</trkpt>
<trkpt lat="33.810313" lon="-118.3938671">
  <ele>-5.35</ele>
  <time>2026-09-02T22:07:39Z</time>
  <course>275.0</course>
  <speed>0.0</speed>
  <fix>3d</fix>
</trkpt>
<trkpt lat="33.8103132" lon="-118.3938672">
  <ele>-5.497</ele>
  <time>2026-09-02T22:07:39Z</time>
  <course>184.8</course>
  <speed>0.022360679774997897</speed>
  <fix>3d</fix>
</trkpt>
<trkpt lat="33.810313" lon="-118.3938671">
  <ele>-5.35</ele>
  <time>2026-09-02T22:07:39Z</time>
  <course>275.0</course>
  <speed>0.0</speed>
  <fix>3d</fix>
</trkpt>
<trkpt lat="33.8103132" lon="-118.3938672">
  <ele>-5.494</ele>
  <time>2026-09-02T22:07:39Z</time>
  <course>184.8</course>
  <speed>0.022360679774997897</speed>
  <fix>3d</fix>
</trkpt>
<trkpt lat="33.810313" lon="-118.3938671">
  <ele>-5.35</ele>
  <time>2026-09-02T22:07:39Z</time>
  <course>275.0</course>
  <speed>0.0</speed>
  <fix>3d</fix>
</trkpt>
<trkpt lat="33.8103132" lon="-118.3938672">
  <ele>-5.494</ele>
  <time>2026-09-02T22:07:39Z</time>
  <course>184.8</course>
  <speed>0.022360679774997897</speed>
  <fix>3d</fix>
</trkpt>
<trkpt lat="33.810313" lon="-118.3938671">
  <ele>-5.35</ele>
  <time>2026-09-02T22:07:39Z</time>
  <course>275.0</course>
  <speed>0.0</speed>
  <fix>3d</fix>
</trkpt>
<trkpt lat="33.8103132" lon="-118.3938672">
  <ele>-5.497</ele>
  <time>2026-09-02T22:07:39Z</time>
  <course>184.81</course>
  <speed>0.022360679774997897</speed>
  <fix>3d</fix>
</trkpt>
<trkpt lat="33.810313" lon="-118.3938671">
  <ele>-5.35</ele>
  <time>2026-09-02T22:07:39Z</time>
  <course>275.0</course>
  <speed>0.0</speed>
  <fix>3d</fix>
</trkpt>
<trkpt lat="33.8103132" lon="-118.3938672">
  <ele>-5.499</ele>
  <time>2026-09-02T22:07:39Z</time>
  <course>184.81</course>
  <speed>0.022360679774997897</speed>
  <fix>3d</fix>
</trkpt>
<trkpt lat="33.810313" lon="-118.3938671">
  <ele>-5.35</ele>
  <time>2026-09-02T22:07:39Z</time>
  <course>275.0</course>
  <speed>0.0</speed>
  <fix>3d</fix>
</trkpt>
<trkpt lat="33.8103132" lon="-118.3938672">
  <ele>-5.502</ele>
  <time>2026-09-02T22:07:39Z</time>
  <course>184.82</course>
  <speed>0.022360679774997897</speed>
  <fix>3d</fix>
</trkpt>
<trkpt lat="33.810313" lon="-118.3938671">
  <ele>-5.36</ele>
  <time>2026-09-02T22:07:39Z</time>
  <course>275.0</course>
  <speed>0.0</speed>
  <fix>3d</fix>
</trkpt>
<trkpt lat="33.8103132" lon="-118.3938672">
  <ele>-5.505</ele>
  <time>2026-09-02T22:07:39Z</time>
  <course>184.82</course>
  <speed>0.022360679774997897</speed>
  <fix>3d</fix>
</trkpt>
<trkpt lat="33.810313" lon="-118.3938671">
  <ele>-5.36</ele>
  <time>2026-09-02T22:07:39Z</time>
  <course>275.0</course>
  <speed>0.0</speed>
  <fix>3d</fix>
</trkpt>
<trkpt lat="33.8103132" lon="-118.3938672">
  <ele>-5.509</ele>
  <time>2026-09-02T22:07:39Z</time>
  <course>184.82</course>
  <speed>0.0282842712474619</speed>
  <fix>3d</fix>
</trkpt>
<trkpt lat="33.810313" lon="-118.3938671">
  <ele>-5.37</ele>
  <time>2026-09-02T22:07:39Z</time>
  <course>275.0</course>
  <speed>0.0</speed>
  <fix>3d</fix>
</trkpt>
<trkpt lat="33.8103132" lon="-118.3938672">
  <ele>-5.512</ele>
  <time>2026-09-02T22:07:39Z</time>
  <course>184.83</course>
  <speed>0.0282842712474619</speed>
  <fix>3d</fix>
</trkpt>
<trkpt lat="33.810313" lon="-118.3938671">
  <ele>-5.37</ele>
  <time>2026-09-02T22:07:39Z</time>
  <course>275.0</course>
  <speed>0.0</speed>
  <fix>3d</fix>
</trkpt>
<trkpt lat="33.8103132" lon="-118.3938672">
  <ele>-5.515</ele>
  <time>2026-09-02T22:07:39Z</time>
  <course>184.83</course>
  <speed>0.0282842712474619</speed>
  <fix>3d</fix>
</trkpt>
<trkpt lat="33.810313" lon="-118.3938671">
  <ele>-5.37</ele>
  <time>2026-09-02T22:07:39Z</time>
  <course>275.0</course>
  <speed>0.0</speed>
  <fix>3d</fix>
</trkpt>
<trkpt lat="33.8103132" lon="-118.3938672">
  <ele>-5.517</ele>
  <time>2026-09-02T22:07:39Z</time>
  <course>184.84</course>
  <speed>0.0282842712474619</speed>
  <fix>3d</fix>
</trkpt>
<trkpt lat="33.810313" lon="-118.3938671">
  <ele>-5.37</ele>
  <time>2026-09-02T22:07:39Z</time>
  <course>275.0</course>
  <speed>0.0</speed>
  <fix>3d</fix>
</trkpt>
<trkpt lat="33.8103132" lon="-118.3938672">
  <ele>-5.518</ele>
  <time>2026-09-02T22:07:39Z</time>
  <course>184.84</course>
  <speed>0.0282842712474619</speed>
  <fix>3d</fix>
</trkpt>
<trkpt lat="33.810313" lon="-118.3938671">
  <ele>-5.38</ele>
  <time>2026-09-02T22:07:39Z</time>
  <course>275.0</course>
  <speed>0.0</speed>
  <fix>3d</fix>
</trkpt>
<trkpt lat="33.8103132" lon="-118.3938672">
  <ele>-5.518</ele>
  <time>2026-09-02T22:07:39Z</time>
  <course>184.85</course>
  <speed>0.0282842712474619</speed>
  <fix>3d</fix>
</trkpt>
<trkpt lat="33.810313" lon="-118.3938671">
  <ele>-5.38</ele>
  <time>2026-09-02T22:07:39Z</time>
  <course>275.0</course>
  <speed>0.0</speed>
  <fix>3d</fix>
</trkpt>
<trkpt lat="33.8103132" lon="-118.3938672">
  <ele>-5.516</ele>
  <time>2026-09-02T22:07:39Z</time>
  <course>184.85</course>
  <speed>0.0282842712474619</speed>
  <fix>3d</fix>
</trkpt>
<trkpt lat="33.810313" lon="-118.3938671">
  <ele>-5.38</ele>
  <time>2026-09-02T22:07:39Z</time>
  <course>275.0</course>
  <speed>0.0</speed>
  <fix>3d</fix>
</trkpt>
<trkpt lat="33.8103132" lon="-118.3938672">
  <ele>-5.513</ele>
  <time>2026-09-02T22:07:39Z</time>
  <course>184.86</course>
  <speed>0.0282842712474619</speed>
  <fix>3d</fix>
</trkpt>
<trkpt lat="33.810313" lon="-118.3938671">
  <ele>-5.38</ele>
  <time>2026-09-02T22:07:39Z</time>
  <course>275.0</course>
  <speed>0.0</speed>
  <fix>3d</fix>
</trkpt>
<trkpt lat="33.8103132" lon="-118.3938672">
  <ele>-5.509</ele>
  <time>2026-09-02T22:07:39Z</time>
  <course>184.86</course>
  <speed>0.0282842712474619</speed>
  <fix>3d</fix>
</trkpt>
<trkpt lat="33.810313" lon="-118.3938671">
  <ele>-5.38</ele>
  <time>2026-09-02T22:07:39Z</time>
  <course>275.0</course>
  <speed>0.0</speed>
  <fix>3d</fix>
</trkpt>
<trkpt lat="33.8103132" lon="-118.3938672">
  <ele>-5.504</ele>
  <time>2026-09-02T22:07:39Z</time>
  <course>184.86</course>
  <speed>0.0282842712474619</speed>
  <fix>3d</fix>
</trkpt>
<trkpt lat="33.810313" lon="-118.3938671">
  <ele>-5.38</ele>
  <time>2026-09-02T22:07:39Z</time>
  <course>275.0</course>
  <speed>0.0</speed>
  <fix>3d</fix>
</trkpt>
<trkpt lat="33.8103132" lon="-118.3938672">
  <ele>-5.501</ele>
  <time>2026-09-02T22:07:39Z</time>
  <course>184.87</course>
  <speed>0.0282842712474619</speed>
  <fix>3d</fix>
</trkpt>
<trkpt lat="33.810313" lon="-118.3938672">
  <ele>-5.37</ele>
  <time>2026-09-02T22:07:39Z</time>
  <course>275.0</course>
  <speed>0.0</speed>
  <fix>3d</fix>
</trkpt>
<trkpt lat="33.8103132" lon="-118.3938672">
  <ele>-5.5</ele>
  <time>2026-09-02T22:07:39Z</time>
  <course>184.87</course>
  <speed>0.0282842712474619</speed>
  <fix>3d</fix>
</trkpt>
<trkpt lat="33.810313" lon="-118.3938672">
  <ele>-5.37</ele>
  <time>2026-09-02T22:07:39Z</time>
  <course>275.0</course>
  <speed>0.0</speed>
  <fix>3d</fix>
</trkpt>
<trkpt lat="33.8103132" lon="-118.3938673">
  <ele>-5.5</ele>
  <time>2026-09-02T22:07:39Z</time>
  <course>184.88</course>
  <speed>0.0282842712474619</speed>
  <fix>3d</fix>
</trkpt>
<trkpt lat="33.810313" lon="-118.3938672">
  <ele>-5.37</ele>
  <time>2026-09-02T22:07:39Z</time>
  <course>275.0</course>
  <speed>0.0</speed>
  <fix>3d</fix>
</trkpt>
<trkpt lat="33.8103132" lon="-118.3938673">
  <ele>-5.502</ele>
  <time>2026-09-02T22:07:39Z</time>
  <course>184.88</course>
  <speed>0.0282842712474619</speed>
  <fix>3d</fix>
</trkpt>
<trkpt lat="33.810313" lon="-118.3938672">
  <ele>-5.37</ele>
  <time>2026-09-02T22:07:39Z</time>
  <course>275.0</course>
  <speed>0.0</speed>
  <fix>3d</fix>
</trkpt>
<trkpt lat="33.8103132" lon="-118.3938673">
  <ele>-5.504</ele>
  <time>2026-09-02T22:07:39Z</time>
  <course>184.89</course>
  <speed>0.0282842712474619</speed>
  <fix>3d</fix>
</trkpt>
<trkpt lat="33.810313" lon="-118.3938672">
  <ele>-5.37</ele>
  <time>2026-09-02T22:07:39Z</time>
  <course>275.0</course>
  <speed>0.0</speed>
  <fix>3d</fix>
</trkpt>
<trkpt lat="33.8103132" lon="-118.3938673">
  <ele>-5.505</ele>
  <time>2026-09-02T22:07:39Z</time>
  <course>184.89</course>
  <speed>0.0282842712474619</speed>
  <fix>3d</fix>
</trkpt>
<trkpt lat="33.810313" lon="-118.3938672">
  <ele>-5.37</ele>
  <time>2026-09-02T22:07:39Z</time>
  <course>275.0</course>
  <speed>0.0</speed>
  <fix>3d</fix>
</trkpt>
<trkpt lat="33.8103132" lon="-118.3938673">
  <ele>-5.505</ele>
  <time>2026-09-02T22:07:39Z</time>
  <course>184.9</course>
  <speed>0.0282842712474619</speed>
  <fix>3d</fix>
</trkpt>
<trkpt lat="33.810313" lon="-118.3938672">
  <ele>-5.37</ele>
  <time>2026-09-02T22:07:39Z</time>
  <course>275.0</course>
  <speed>0.0</speed>
  <fix>3d</fix>
</trkpt>
<trkpt lat="33.8103132" lon="-118.3938673">
  <ele>-5.505</ele>
  <time>2026-09-02T22:07:39Z</time>
  <course>184.9</course>
  <speed>0.0282842712474619</speed>
  <fix>3d</fix>
</trkpt>
<trkpt lat="33.810313" lon="-118.3938672">
  <ele>-5.37</ele>
  <time>2026-09-02T22:07:39Z</time>
  <course>275.0</course>
  <speed>0.0</speed>
  <fix>3d</fix>
</trkpt>
<trkpt lat="33.8103132" lon="-118.3938673">
  <ele>-5.506</ele>
  <time>2026-09-02T22:07:39Z</time>
  <course>184.91</course>
  <speed>0.0282842712474619</speed>
  <fix>3d</fix>
</trkpt>
<trkpt lat="33.810313" lon="-118.3938672">
  <ele>-5.37</ele>
  <time>2026-09-02T22:07:39Z</time>
  <course>275.0</course>
  <speed>0.0</speed>
  <fix>3d</fix>
</trkpt>
<trkpt lat="33.8103132" lon="-118.3938673">
  <ele>-5.506</ele>
  <time>2026-09-02T22:07:39Z</time>
  <course>184.91</course>
  <speed>0.03605551275463989</speed>
  <fix>3d</fix>
</trkpt>
<trkpt lat="33.810313" lon="-118.3938672">
  <ele>-5.37</ele>
  <time>2026-09-02T22:07:39Z</time>
  <course>275.0</course>
  <speed>0.0</speed>
  <fix>3d</fix>
</trkpt>
<trkpt lat="33.8103132" lon="-118.3938673">
  <ele>-5.506</ele>
  <time>2026-09-02T22:07:39Z</time>
  <course>184.92</course>
  <speed>0.03605551275463989</speed>
  <fix>3d</fix>
</trkpt>
<trkpt lat="33.810313" lon="-118.3938672">
  <ele>-5.37</ele>
  <time>2026-09-02T22:07:39Z</time>
  <course>275.0</course>
  <speed>0.0</speed>
  <fix>3d</fix>
</trkpt>
<trkpt lat="33.8103132" lon="-118.3938673">
  <ele>-5.506</ele>
  <time>2026-09-02T22:07:39Z</time>
  <course>184.92</course>
  <speed>0.03605551275463989</speed>
  <fix>3d</fix>
</trkpt>
<trkpt lat="33.810313" lon="-118.3938672">
  <ele>-5.37</ele>
  <time>2026-09-02T22:07:39Z</time>
  <course>275.0</course>
  <speed>0.0</speed>
  <fix>3d</fix>
</trkpt>
<trkpt lat="33.8103132" lon="-118.3938674">
  <ele>-5.505</ele>
  <time>2026-09-02T22:07:39Z</time>
  <course>184.93</course>
  <speed>0.03605551275463989</speed>
  <fix>3d</fix>
</trkpt>
<trkpt lat="33.810313" lon="-118.3938672">
  <ele>-5.37</ele>
  <time>2026-09-02T22:07:39Z</time>
  <course>275.0</course>
  <speed>0.0</speed>
  <fix>3d</fix>
</trkpt>
<trkpt lat="33.8103132" lon="-118.3938674">
  <ele>-5.504</ele>
  <time>2026-09-02T22:07:39Z</time>
  <course>184.94</course>
  <speed>0.03605551275463989</speed>
  <fix>3d</fix>
</trkpt>
<trkpt lat="33.810313" lon="-118.3938672">
  <ele>-5.37</ele>
  <time>2026-09-02T22:07:39Z</time>
  <course>275.0</course>
  <speed>0.0</speed>
  <fix>3d</fix>
</trkpt>
<trkpt lat="33.8103132" lon="-118.3938674">
  <ele>-5.504</ele>
  <time>2026-09-02T22:07:39Z</time>
  <course>184.94</course>
  <speed>0.03605551275463989</speed>
  <fix>3d</fix>
</trkpt>
<trkpt lat="33.810313" lon="-118.3938672">
  <ele>-5.37</ele>
  <time>2026-09-02T22:07:39Z</time>
  <course>275.0</course>
  <speed>0.0</speed>
  <fix>3d</fix>
</trkpt>
<trkpt lat="33.8103132" lon="-118.3938674">
  <ele>-5.505</ele>
  <time>2026-09-02T22:07:39Z</time>
  <course>184.95</course>
  <speed>0.03605551275463989</speed>
  <fix>3d</fix>
</trkpt>
<trkpt lat="33.810313" lon="-118.3938672">
  <ele>-5.37</ele>
  <time>2026-09-02T22:07:39Z</time>
  <course>275.0</course>
  <speed>0.0</speed>
  <fix>3d</fix>
</trkpt>
<trkpt lat="33.8103132" lon="-118.3938674">
  <ele>-5.505</ele>
  <time>2026-09-02T22:07:39Z</time>
  <course>184.95</course>
  <speed>0.03605551275463989</speed>
  <fix>3d</fix>
</trkpt>
<trkpt lat="33.810313" lon="-118.3938672">
  <ele>-5.37</ele>
  <time>2026-09-02T22:07:39Z</time>
  <course>275.0</course>
  <speed>0.0</speed>
  <fix>3d</fix>
</trkpt>
<trkpt lat="33.8103132" lon="-118.3938674">
  <ele>-5.505</ele>
  <time>2026-09-02T22:07:39Z</time>
  <course>184.96</course>
  <speed>0.03605551275463989</speed>
  <fix>3d</fix>
</trkpt>
<trkpt lat="33.810313" lon="-118.3938672">
  <ele>-5.37</ele>
  <time>2026-09-02T22:07:39Z</time>
  <course>275.0</course>
  <speed>0.0</speed>
  <fix>3d</fix>
</trkpt>
<trkpt lat="33.8103132" lon="-118.3938674">
  <ele>-5.505</ele>
  <time>2026-09-02T22:07:39Z</time>
  <course>184.96</course>
  <speed>0.03605551275463989</speed>
  <fix>3d</fix>
</trkpt>
<trkpt lat="33.810313" lon="-118.3938672">
  <ele>-5.37</ele>
  <time>2026-09-02T22:07:39Z</time>
  <course>275.0</course>
  <speed>0.0</speed>
  <fix>3d</fix>
</trkpt>
<trkpt lat="33.8103132" lon="-118.3938674">
  <ele>-5.505</ele>
  <time>2026-09-02T22:07:39Z</time>
  <course>184.97</course>
  <speed>0.03605551275463989</speed>
  <fix>3d</fix>
</trkpt>
<trkpt lat="33.810313" lon="-118.3938672">
  <ele>-5.37</ele>
  <time>2026-09-02T22:07:39Z</time>
  <course>275.0</course>
  <speed>0.0</speed>
  <fix>3d</fix>
</trkpt>
<trkpt lat="33.8103132" lon="-118.3938674">
  <ele>-5.506</ele>
  <time>2026-09-02T22:07:39Z</time>
  <course>184.98</course>
  <speed>0.03605551275463989</speed>
  <fix>3d</fix>
</trkpt>
<trkpt lat="33.810313" lon="-118.3938672">
  <ele>-5.37</ele>
  <time>2026-09-02T22:07:39Z</time>
  <course>275.0</course>
  <speed>0.0</speed>
  <fix>3d</fix>
</trkpt>
<trkpt lat="33.8103132" lon="-118.3938674">
  <ele>-5.505</ele>
  <time>2026-09-02T22:07:39Z</time>
  <course>184.98</course>
  <speed>0.03605551275463989</speed>
  <fix>3d</fix>
</trkpt>
<trkpt lat="33.810313" lon="-118.3938672">
  <ele>-5.37</ele>
  <time>2026-09-02T22:07:39Z</time>
  <course>275.0</course>
  <speed>0.0</speed>
  <fix>3d</fix>
</trkpt>
<trkpt lat="33.8103132" lon="-118.3938674">
  <ele>-5.504</ele>
  <time>2026-09-02T22:07:39Z</time>
  <course>184.99</course>
  <speed>0.03605551275463989</speed>
  <fix>3d</fix>
</trkpt>
<trkpt lat="33.810313" lon="-118.3938672">
  <ele>-5.37</ele>
  <time>2026-09-02T22:07:39Z</time>
  <course>275.0</course>
  <speed>0.0</speed>
  <fix>3d</fix>
</trkpt>
<trkpt lat="33.8103132" lon="-118.3938674">
  <ele>-5.502</ele>
  <time>2026-09-02T22:07:39Z</time>
  <course>184.99</course>
  <speed>0.03605551275463989</speed>
  <fix>3d</fix>
</trkpt>
<trkpt lat="33.810313" lon="-118.3938672">
  <ele>-5.37</ele>
  <time>2026-09-02T22:07:39Z</time>
  <course>275.0</course>
  <speed>0.0</speed>
  <fix>3d</fix>
</trkpt>
<trkpt lat="33.8103132" lon="-118.3938674">
  <ele>-5.5</ele>
  <time>2026-09-02T22:07:39Z</time>
  <course>185.0</course>
  <speed>0.03605551275463989</speed>
  <fix>3d</fix>
</trkpt>
<trkpt lat="33.810313" lon="-118.3938672">
  <ele>-5.37</ele>
  <time>2026-09-02T22:07:39Z</time>
  <course>275.0</course>
  <speed>0.0</speed>
  <fix>3d</fix>
</trkpt>
<trkpt lat="33.8103132" lon="-118.3938674">
  <ele>-5.5</ele>
  <time>2026-09-02T22:07:39Z</time>
  <course>185.01</course>
  <speed>0.03605551275463989</speed>
  <fix>3d</fix>
</trkpt>
<trkpt lat="33.810313" lon="-118.3938672">
  <ele>-5.37</ele>
  <time>2026-09-02T22:07:39Z</time>
  <course>275.0</course>
  <speed>0.0</speed>
  <fix>3d</fix>
</trkpt>
<trkpt lat="33.8103132" lon="-118.3938674">
  <ele>-5.501</ele>
  <time>2026-09-02T22:07:39Z</time>
  <course>185.01</course>
  <speed>0.03605551275463989</speed>
  <fix>3d</fix>
</trkpt>
<trkpt lat="33.810313" lon="-118.3938672">
  <ele>-5.37</ele>
  <time>2026-09-02T22:07:39Z</time>
  <course>275.0</course>
  <speed>0.0</speed>
  <fix>3d</fix>
</trkpt>
<trkpt lat="33.8103132" lon="-118.3938674">
  <ele>-5.503</ele>
  <time>2026-09-02T22:07:39Z</time>
  <course>185.02</course>
  <speed>0.03605551275463989</speed>
  <fix>3d</fix>
</trkpt>
<trkpt lat="33.810313" lon="-118.3938672">
  <ele>-5.37</ele>
  <time>2026-09-02T22:07:39Z</time>
  <course>275.0</course>
  <speed>0.0</speed>
  <fix>3d</fix>
</trkpt>
<trkpt lat="33.8103132" lon="-118.3938674">
  <ele>-5.506</ele>
  <time>2026-09-02T22:07:39Z</time>
  <course>185.03</course>
  <speed>0.03605551275463989</speed>
  <fix>3d</fix>
</trkpt>
<trkpt lat="33.810313" lon="-118.3938672">
  <ele>-5.38</ele>
  <time>2026-09-02T22:07:39Z</time>
  <course>275.0</course>
  <speed>0.0</speed>
  <fix>3d</fix>
</trkpt>
<trkpt lat="33.8103132" lon="-118.3938674">
  <ele>-5.507</ele>
  <time>2026-09-02T22:07:39Z</time>
  <course>185.03</course>
  <speed>0.03605551275463989</speed>
  <fix>3d</fix>
</trkpt>
<trkpt lat="33.810313" lon="-118.3938672">
  <ele>-5.38</ele>
  <time>2026-09-02T22:07:39Z</time>
  <course>275.0</course>
  <speed>0.0</speed>
  <fix>3d</fix>
</trkpt>
<trkpt lat="33.8103132" lon="-118.3938674">
  <ele>-5.509</ele>
  <time>2026-09-02T22:07:39Z</time>
  <course>185.04</course>
  <speed>0.03605551275463989</speed>
  <fix>3d</fix>
</trkpt>
<trkpt lat="33.810313" lon="-118.3938672">
  <ele>-5.38</ele>
  <time>2026-09-02T22:07:39Z</time>
  <course>275.0</course>
  <speed>0.0</speed>
  <fix>3d</fix>
</trkpt>
<trkpt lat="33.8103132" lon="-118.3938674">
  <ele>-5.51</ele>
  <time>2026-09-02T22:07:39Z</time>
  <course>185.05</course>
  <speed>0.03605551275463989</speed>
  <fix>3d</fix>
</trkpt>
<trkpt lat="33.810313" lon="-118.3938672">
  <ele>-5.38</ele>
  <time>2026-09-02T22:07:39Z</time>
  <course>275.0</course>
  <speed>0.0</speed>
  <fix>3d</fix>
</trkpt>
<trkpt lat="33.8103132" lon="-118.3938674">
  <ele>-5.511</ele>
  <time>2026-09-02T22:07:39Z</time>
  <course>185.05</course>
  <speed>0.03605551275463989</speed>
  <fix>3d</fix>
</trkpt>
<trkpt lat="33.810313" lon="-118.3938672">
  <ele>-5.38</ele>
  <time>2026-09-02T22:07:39Z</time>
  <course>275.0</course>
  <speed>0.0</speed>
  <fix>3d</fix>
</trkpt>
<trkpt lat="33.8103132" lon="-118.3938674">
  <ele>-5.512</ele>
  <time>2026-09-02T22:07:39Z</time>
  <course>185.06</course>
  <speed>0.03605551275463989</speed>
  <fix>3d</fix>
</trkpt>
<trkpt lat="33.810313" lon="-118.3938672">
  <ele>-5.38</ele>
  <time>2026-09-02T22:07:39Z</time>
  <course>275.0</course>
  <speed>0.0</speed>
  <fix>3d</fix>
</trkpt>
<trkpt lat="33.8103132" lon="-118.3938674">
  <ele>-5.517</ele>
  <time>2026-09-02T22:07:39Z</time>
  <course>185.07</course>
  <speed>0.03605551275463989</speed>
  <fix>3d</fix>
</trkpt>
<trkpt lat="33.810313" lon="-118.3938672">
  <ele>-5.38</ele>
  <time>2026-09-02T22:07:39Z</time>
  <course>275.0</course>
  <speed>0.0</speed>
  <fix>3d</fix>
</trkpt>
<trkpt lat="33.8103132" lon="-118.3938674">
  <ele>-5.538</ele>
  <time>2026-09-02T22:07:39Z</time>
  <course>185.07</course>
  <speed>0.03605551275463989</speed>
  <fix>3d</fix>
</trkpt>
<trkpt lat="33.810313" lon="-118.3938672">
  <ele>-5.38</ele>
  <time>2026-09-02T22:07:39Z</time>
  <course>275.0</course>
  <speed>0.0</speed>
  <fix>3d</fix>
</trkpt>
<trkpt lat="33.8103132" lon="-118.3938674">
  <ele>-5.579</ele>
  <time>2026-09-02T22:07:39Z</time>
  <course>185.08</course>
  <speed>0.03605551275463989</speed>
  <fix>3d</fix>
</trkpt>
<trkpt lat="33.810313" lon="-118.3938672">
  <ele>-5.39</ele>
  <time>2026-09-02T22:07:39Z</time>
  <course>274.99</course>
  <speed>0.0</speed>
  <fix>3d</fix>
</trkpt>
<trkpt lat="33.8103132" lon="-118.3938674">
  <ele>-5.581</ele>
  <time>2026-09-02T22:07:39Z</time>
  <course>185.08</course>
  <speed>0.03605551275463989</speed>
  <fix>3d</fix>
</trkpt>
<trkpt lat="33.8103132" lon="-118.3938674">
  <ele>-5.641</ele>
  <time>2026-09-02T22:07:39Z</time>
  <course>185.09</course>
  <speed>0.03605551275463989</speed>
  <fix>3d</fix>
</trkpt>
<trkpt lat="33.810313" lon="-118.3938672">
  <ele>-5.39</ele>
  <time>2026-09-02T22:07:39Z</time>
  <course>274.99</course>
  <speed>0.0</speed>
  <fix>3d</fix>
</trkpt>
<trkpt lat="33.8103132" lon="-118.3938674">
  <ele>-5.643</ele>
  <time>2026-09-02T22:07:39Z</time>
  <course>185.09</course>
  <speed>0.03605551275463989</speed>
  <fix>3d</fix>
</trkpt>
<trkpt lat="33.8103132" lon="-118.3938674">
  <ele>-5.722</ele>
  <time>2026-09-02T22:07:39Z</time>
  <course>185.09</course>
  <speed>0.04242640687119285</speed>
  <fix>3d</fix>
</trkpt>
<trkpt lat="33.810313" lon="-118.3938672">
  <ele>-5.46</ele>
  <time>2026-09-02T22:07:39Z</time>
  <course>274.99</course>
  <speed>0.0</speed>
  <fix>3d</fix>
</trkpt>
<trkpt lat="33.8103132" lon="-118.3938674">
  <ele>-5.753</ele>
  <time>2026-09-02T22:07:39Z</time>
  <course>185.09</course>
  <speed>0.03605551275463989</speed>
  <fix>3d</fix>
</trkpt>
<trkpt lat="33.8103132" lon="-118.3938674">
  <ele>-5.825</ele>
  <time>2026-09-02T22:07:39Z</time>
  <course>185.1</course>
  <speed>0.03605551275463989</speed>
  <fix>3d</fix>
</trkpt>
<trkpt lat="33.810313" lon="-118.3938672">
  <ele>-5.46</ele>
  <time>2026-09-02T22:07:39Z</time>
  <course>274.99</course>
  <speed>0.0</speed>
  <fix>3d</fix>
</trkpt>
<trkpt lat="33.8103132" lon="-118.3938674">
  <ele>-5.86</ele>
  <time>2026-09-02T22:07:39Z</time>
  <course>185.1</course>
  <speed>0.03605551275463989</speed>
  <fix>3d</fix>
</trkpt>
<trkpt lat="33.8103132" lon="-118.3938674">
  <ele>-5.947</ele>
  <time>2026-09-02T22:07:39Z</time>
  <course>185.11</course>
  <speed>0.03605551275463989</speed>
  <fix>3d</fix>
</trkpt>
<trkpt lat="33.810313" lon="-118.3938672">
  <ele>-5.6</ele>
  <time>2026-09-02T22:07:39Z</time>
  <course>274.99</course>
  <speed>0.0</speed>
  <fix>3d</fix>
</trkpt>
<trkpt lat="33.8103132" lon="-118.3938674">
  <ele>-5.987</ele>
  <time>2026-09-02T22:07:39Z</time>
  <course>185.11</course>
  <speed>0.03605551275463989</speed>
  <fix>3d</fix>
</trkpt>
<trkpt lat="33.8103132" lon="-118.3938675">
  <ele>-6.076</ele>
  <time>2026-09-02T22:07:39Z</time>
  <course>185.11</course>
  <speed>0.03605551275463989</speed>
  <fix>3d</fix>
</trkpt>
<trkpt lat="33.810313" lon="-118.3938672">
  <ele>-5.6</ele>
  <time>2026-09-02T22:07:39Z</time>
  <course>274.99</course>
  <speed>0.0</speed>
  <fix>3d</fix>
</trkpt>
<trkpt lat="33.8103132" lon="-118.3938675">
  <ele>-6.116</ele>
  <time>2026-09-02T22:07:39Z</time>
  <course>185.11</course>
  <speed>0.03605551275463989</speed>
  <fix>3d</fix>
</trkpt>
<trkpt lat="33.8103132" lon="-118.3938675">
  <ele>-6.208</ele>
  <time>2026-09-02T22:07:39Z</time>
  <course>185.12</course>
  <speed>0.03605551275463989</speed>
  <fix>3d</fix>
</trkpt>
<trkpt lat="33.810313" lon="-118.3938672">
  <ele>-5.81</ele>
  <time>2026-09-02T22:07:39Z</time>
  <course>274.99</course>
  <speed>0.01</speed>
  <fix>3d</fix>
</trkpt>
<trkpt lat="33.8103132" lon="-118.3938675">
  <ele>-6.247</ele>
  <time>2026-09-02T22:07:39Z</time>
  <course>185.12</course>
  <speed>0.03605551275463989</speed>
  <fix>3d</fix>
</trkpt>
<trkpt lat="33.8103132" lon="-118.3938675">
  <ele>-6.34</ele>
  <time>2026-09-02T22:07:39Z</time>
  <course>185.12</course>
  <speed>0.03605551275463989</speed>
  <fix>3d</fix>
</trkpt>
<trkpt lat="33.810313" lon="-118.3938672">
  <ele>-5.81</ele>
  <time>2026-09-02T22:07:39Z</time>
  <course>274.99</course>
  <speed>0.01</speed>
  <fix>3d</fix>
</trkpt>
<trkpt lat="33.8103132" lon="-118.3938675">
  <ele>-6.386</ele>
  <time>2026-09-02T22:07:39Z</time>
  <course>185.13</course>
  <speed>0.03605551275463989</speed>
  <fix>3d</fix>
</trkpt>
<trkpt lat="33.8103132" lon="-118.3938675">
  <ele>-6.472</ele>
  <time>2026-09-02T22:07:39Z</time>
  <course>185.13</course>
  <speed>0.03605551275463989</speed>
  <fix>3d</fix>
</trkpt>
<trkpt lat="33.810313" lon="-118.3938673">
  <ele>-6.06</ele>
  <time>2026-09-02T22:07:39Z</time>
  <course>274.99</course>
  <speed>0.01</speed>
  <fix>3d</fix>
</trkpt>
<trkpt lat="33.8103132" lon="-118.3938675">
  <ele>-6.515</ele>
  <time>2026-09-02T22:07:39Z</time>
  <course>185.13</course>
  <speed>0.03605551275463989</speed>
  <fix>3d</fix>
</trkpt>
<trkpt lat="33.8103132" lon="-118.3938675">
  <ele>-6.604</ele>
  <time>2026-09-02T22:07:39Z</time>
  <course>185.14</course>
  <speed>0.03605551275463989</speed>
  <fix>3d</fix>
</trkpt>
<trkpt lat="33.810313" lon="-118.3938673">
  <ele>-6.06</ele>
  <time>2026-09-02T22:07:39Z</time>
  <course>274.99</course>
  <speed>0.01</speed>
  <fix>3d</fix>
</trkpt>
<trkpt lat="33.8103132" lon="-118.3938675">
  <ele>-6.65</ele>
  <time>2026-09-02T22:07:39Z</time>
  <course>185.14</course>
  <speed>0.03605551275463989</speed>
  <fix>3d</fix>
</trkpt>
<trkpt lat="33.8103132" lon="-118.3938675">
  <ele>-6.737</ele>
  <time>2026-09-02T22:07:39Z</time>
  <course>185.14</course>
  <speed>0.04242640687119285</speed>
  <fix>3d</fix>
</trkpt>
<trkpt lat="33.810313" lon="-118.3938673">
  <ele>-6.3</ele>
  <time>2026-09-02T22:07:39Z</time>
  <course>274.99</course>
  <speed>0.01</speed>
  <fix>3d</fix>
</trkpt>
<trkpt lat="33.8103132" lon="-118.3938675">
  <ele>-6.78</ele>
  <time>2026-09-02T22:07:39Z</time>
  <course>185.14</course>
  <speed>0.03605551275463989</speed>
  <fix>3d</fix>
</trkpt>
<trkpt lat="33.8103132" lon="-118.3938675">
  <ele>-6.868</ele>
  <time>2026-09-02T22:07:39Z</time>
  <course>185.15</course>
  <speed>0.04242640687119285</speed>
  <fix>3d</fix>
</trkpt>
<trkpt lat="33.810313" lon="-118.3938673">
  <ele>-6.3</ele>
  <time>2026-09-02T22:07:39Z</time>
  <course>274.99</course>
  <speed>0.01</speed>
  <fix>3d</fix>
</trkpt>
<trkpt lat="33.8103132" lon="-118.3938675">
  <ele>-6.911</ele>
  <time>2026-09-02T22:07:39Z</time>
  <course>185.15</course>
  <speed>0.04242640687119285</speed>
  <fix>3d</fix>
</trkpt>
<trkpt lat="33.8103132" lon="-118.3938675">
  <ele>-6.999</ele>
  <time>2026-09-02T22:07:39Z</time>
  <course>185.15</course>
  <speed>0.04242640687119285</speed>
  <fix>3d</fix>
</trkpt>
<trkpt lat="33.810313" lon="-118.3938673">
  <ele>-6.55</ele>
  <time>2026-09-02T22:07:39Z</time>
  <course>274.99</course>
  <speed>0.01</speed>
  <fix>3d</fix>
</trkpt>
<trkpt lat="33.8103132" lon="-118.3938675">
  <ele>-7.003</ele>
  <time>2026-09-02T22:07:39Z</time>
  <course>185.15</course>
  <speed>0.04242640687119285</speed>
  <fix>3d</fix>
</trkpt>
<trkpt lat="33.8103132" lon="-118.3938675">
  <ele>-7.13</ele>
  <time>2026-09-02T22:07:39Z</time>
  <course>185.16</course>
  <speed>0.04242640687119285</speed>
  <fix>3d</fix>
</trkpt>
<trkpt lat="33.810313" lon="-118.3938673">
  <ele>-6.55</ele>
  <time>2026-09-02T22:07:39Z</time>
  <course>274.99</course>
  <speed>0.01</speed>
  <fix>3d</fix>
</trkpt>
<trkpt lat="33.8103132" lon="-118.3938675">
  <ele>-7.173</ele>
  <time>2026-09-02T22:07:39Z</time>
  <course>185.16</course>
  <speed>0.04242640687119285</speed>
  <fix>3d</fix>
</trkpt>
<trkpt lat="33.8103132" lon="-118.3938675">
  <ele>-7.261</ele>
  <time>2026-09-02T22:07:39Z</time>
  <course>185.17</course>
  <speed>0.04242640687119285</speed>
  <fix>3d</fix>
</trkpt>
<trkpt lat="33.810313" lon="-118.3938673">
  <ele>-6.79</ele>
  <time>2026-09-02T22:07:39Z</time>
  <course>274.99</course>
  <speed>0.01</speed>
  <fix>3d</fix>
</trkpt>
<trkpt lat="33.8103132" lon="-118.3938675">
  <ele>-7.303</ele>
  <time>2026-09-02T22:07:39Z</time>
  <course>185.17</course>
  <speed>0.04242640687119285</speed>
  <fix>3d</fix>
</trkpt>
<trkpt lat="33.8103132" lon="-118.3938675">
  <ele>-7.39</ele>
  <time>2026-09-02T22:07:39Z</time>
  <course>185.17</course>
  <speed>0.04242640687119285</speed>
  <fix>3d</fix>
</trkpt>
<trkpt lat="33.810313" lon="-118.3938673">
  <ele>-6.79</ele>
  <time>2026-09-02T22:07:39Z</time>
  <course>274.99</course>
  <speed>0.01</speed>
  <fix>3d</fix>
</trkpt>
<trkpt lat="33.8103132" lon="-118.3938675">
  <ele>-7.431</ele>
  <time>2026-09-02T22:07:39Z</time>
  <course>185.17</course>
  <speed>0.04242640687119285</speed>
  <fix>3d</fix>
</trkpt>
<trkpt lat="33.8103132" lon="-118.3938676">
  <ele>-7.518</ele>
  <time>2026-09-02T22:07:39Z</time>
  <course>185.18</course>
  <speed>0.04242640687119285</speed>
  <fix>3d</fix>
</trkpt>
<trkpt lat="33.810313" lon="-118.3938674">
  <ele>-7.02</ele>
  <time>2026-09-02T22:07:39Z</time>
  <course>274.99</course>
  <speed>0.01</speed>
  <fix>3d</fix>
</trkpt>
<trkpt lat="33.8103132" lon="-118.3938676">
  <ele>-7.569</ele>
  <time>2026-09-02T22:07:39Z</time>
  <course>185.18</course>
  <speed>0.04242640687119285</speed>
  <fix>3d</fix>
</trkpt>
<trkpt lat="33.8103132" lon="-118.3938676">
  <ele>-7.645</ele>
  <time>2026-09-02T22:07:39Z</time>
  <course>185.18</course>
  <speed>0.04242640687119285</speed>
  <fix>3d</fix>
</trkpt>
<trkpt lat="33.810313" lon="-118.3938674">
  <ele>-7.02</ele>
  <time>2026-09-02T22:07:39Z</time>
  <course>274.99</course>
  <speed>0.01</speed>
  <fix>3d</fix>
</trkpt>
<trkpt lat="33.8103132" lon="-118.3938676">
  <ele>-7.686</ele>
  <time>2026-09-02T22:07:39Z</time>
  <course>185.19</course>
  <speed>0.04242640687119285</speed>
  <fix>3d</fix>
</trkpt>
<trkpt lat="33.8103132" lon="-118.3938676">
  <ele>-7.772</ele>
  <time>2026-09-02T22:07:39Z</time>
  <course>185.19</course>
  <speed>0.04242640687119285</speed>
  <fix>3d</fix>
</trkpt>
<trkpt lat="33.810313" lon="-118.3938674">
  <ele>-7.27</ele>
  <time>2026-09-02T22:07:39Z</time>
  <course>274.99</course>
  <speed>0.01</speed>
  <fix>3d</fix>
</trkpt>
<trkpt lat="33.8103132" lon="-118.3938676">
  <ele>-7.814</ele>
  <time>2026-09-02T22:07:39Z</time>
  <course>185.19</course>
  <speed>0.04242640687119285</speed>
  <fix>3d</fix>
</trkpt>
<trkpt lat="33.8103132" lon="-118.3938676">
  <ele>-7.9</ele>
  <time>2026-09-02T22:07:39Z</time>
  <course>185.2</course>
  <speed>0.04242640687119285</speed>
  <fix>3d</fix>
</trkpt>
<trkpt lat="33.810313" lon="-118.3938674">
  <ele>-7.27</ele>
  <time>2026-09-02T22:07:39Z</time>
  <course>274.99</course>
  <speed>0.01</speed>
  <fix>3d</fix>
</trkpt>
<trkpt lat="33.8103132" lon="-118.3938676">
  <ele>-7.941</ele>
  <time>2026-09-02T22:07:39Z</time>
  <course>185.2</course>
  <speed>0.04242640687119285</speed>
  <fix>3d</fix>
</trkpt>
<trkpt lat="33.8103132" lon="-118.3938676">
  <ele>-8.026</ele>
  <time>2026-09-02T22:07:39Z</time>
  <course>185.2</course>
  <speed>0.04242640687119285</speed>
  <fix>3d</fix>
</trkpt>
<trkpt lat="33.810313" lon="-118.3938674">
  <ele>-7.52</ele>
  <time>2026-09-02T22:07:39Z</time>
  <course>274.99</course>
  <speed>0.01</speed>
  <fix>3d</fix>
</trkpt>
<trkpt lat="33.8103132" lon="-118.3938676">
  <ele>-8.067</ele>
  <time>2026-09-02T22:07:39Z</time>
  <course>185.2</course>
  <speed>0.04242640687119285</speed>
  <fix>3d</fix>
</trkpt>
<trkpt lat="33.8103132" lon="-118.3938676">
  <ele>-8.152</ele>
  <time>2026-09-02T22:07:39Z</time>
  <course>185.21</course>
  <speed>0.04242640687119285</speed>
  <fix>3d</fix>
</trkpt>
<trkpt lat="33.810313" lon="-118.3938674">
  <ele>-7.52</ele>
  <time>2026-09-02T22:07:39Z</time>
  <course>274.99</course>
  <speed>0.01</speed>
  <fix>3d</fix>
</trkpt>
<trkpt lat="33.8103132" lon="-118.3938676">
  <ele>-8.193</ele>
  <time>2026-09-02T22:07:39Z</time>
  <course>185.21</course>
  <speed>0.04242640687119285</speed>
  <fix>3d</fix>
</trkpt>
<trkpt lat="33.8103132" lon="-118.3938676">
  <ele>-8.278</ele>
  <time>2026-09-02T22:07:39Z</time>
  <course>185.21</course>
  <speed>0.04242640687119285</speed>
  <fix>3d</fix>
</trkpt>
<trkpt lat="33.810313" lon="-118.3938674">
  <ele>-7.76</ele>
  <time>2026-09-02T22:07:39Z</time>
  <course>274.99</course>
  <speed>0.01</speed>
  <fix>3d</fix>
</trkpt>
<trkpt lat="33.8103132" lon="-118.3938676">
  <ele>-8.322</ele>
  <time>2026-09-02T22:07:39Z</time>
  <course>185.22</course>
  <speed>0.04242640687119285</speed>
  <fix>3d</fix>
</trkpt>
<trkpt lat="33.8103132" lon="-118.3938676">
  <ele>-8.403</ele>
  <time>2026-09-02T22:07:39Z</time>
  <course>185.22</course>
  <speed>0.04242640687119285</speed>
  <fix>3d</fix>
</trkpt>
<trkpt lat="33.810313" lon="-118.3938674">
  <ele>-7.76</ele>
  <time>2026-09-02T22:07:39Z</time>
  <course>274.99</course>
  <speed>0.01</speed>
  <fix>3d</fix>
</trkpt>
<trkpt lat="33.8103132" lon="-118.3938676">
  <ele>-8.405</ele>
  <time>2026-09-02T22:07:39Z</time>
  <course>185.22</course>
  <speed>0.04242640687119285</speed>
  <fix>3d</fix>
</trkpt>
<trkpt lat="33.8103132" lon="-118.3938677">
  <ele>-8.527</ele>
  <time>2026-09-02T22:07:39Z</time>
  <course>185.23</course>
  <speed>0.04242640687119285</speed>
  <fix>3d</fix>
</trkpt>
<trkpt lat="33.810313" lon="-118.3938675">
  <ele>-8.0</ele>
  <time>2026-09-02T22:07:39Z</time>
  <course>274.99</course>
  <speed>0.01</speed>
  <fix>3d</fix>
</trkpt>
<trkpt lat="33.8103132" lon="-118.3938677">
  <ele>-8.529</ele>
  <time>2026-09-02T22:07:39Z</time>
  <course>185.23</course>
  <speed>0.04242640687119285</speed>
  <fix>3d</fix>
</trkpt>
<trkpt lat="33.8103132" lon="-118.3938677">
  <ele>-8.651</ele>
  <time>2026-09-02T22:07:39Z</time>
  <course>185.23</course>
  <speed>0.04242640687119285</speed>
  <fix>3d</fix>
</trkpt>
<trkpt lat="33.810313" lon="-118.3938675">
  <ele>-8.0</ele>
  <time>2026-09-02T22:07:39Z</time>
  <course>274.99</course>
  <speed>0.01</speed>
  <fix>3d</fix>
</trkpt>
<trkpt lat="33.8103132" lon="-118.3938677">
  <ele>-8.691</ele>
  <time>2026-09-02T22:07:39Z</time>
  <course>185.23</course>
  <speed>0.04242640687119285</speed>
  <fix>3d</fix>
</trkpt>
<trkpt lat="33.8103132" lon="-118.3938677">
  <ele>-8.775</ele>
  <time>2026-09-02T22:07:39Z</time>
  <course>185.24</course>
  <speed>0.04242640687119285</speed>
  <fix>3d</fix>
</trkpt>
<trkpt lat="33.810313" lon="-118.3938675">
  <ele>-8.25</ele>
  <time>2026-09-02T22:07:39Z</time>
  <course>274.99</course>
  <speed>0.01</speed>
  <fix>3d</fix>
</trkpt>
<trkpt lat="33.8103132" lon="-118.3938677">
  <ele>-8.818</ele>
  <time>2026-09-02T22:07:39Z</time>
  <course>185.24</course>
  <speed>0.04242640687119285</speed>
  <fix>3d</fix>
</trkpt>
<trkpt lat="33.8103132" lon="-118.3938677">
  <ele>-8.899</ele>
  <time>2026-09-02T22:07:39Z</time>
  <course>185.24</course>
  <speed>0.04242640687119285</speed>
  <fix>3d</fix>
</trkpt>
<trkpt lat="33.810313" lon="-118.3938675">
  <ele>-8.25</ele>
  <time>2026-09-02T22:07:39Z</time>
  <course>274.99</course>
  <speed>0.01</speed>
  <fix>3d</fix>
</trkpt>
<trkpt lat="33.8103132" lon="-118.3938677">
  <ele>-8.942</ele>
  <time>2026-09-02T22:07:39Z</time>
  <course>185.25</course>
  <speed>0.04242640687119285</speed>
  <fix>3d</fix>
</trkpt>
<trkpt lat="33.8103132" lon="-118.3938677">
  <ele>-9.024</ele>
  <time>2026-09-02T22:07:39Z</time>
  <course>185.25</course>
  <speed>0.04242640687119285</speed>
  <fix>3d</fix>
</trkpt>
<trkpt lat="33.810313" lon="-118.3938675">
  <ele>-8.49</ele>
  <time>2026-09-02T22:07:39Z</time>
  <course>274.99</course>
  <speed>0.01</speed>
  <fix>3d</fix>
</trkpt>
<trkpt lat="33.8103132" lon="-118.3938677">
  <ele>-9.064</ele>
  <time>2026-09-02T22:07:39Z</time>
  <course>185.25</course>
  <speed>0.04242640687119285</speed>
  <fix>3d</fix>
</trkpt>
<trkpt lat="33.8103132" lon="-118.3938677">
  <ele>-9.148</ele>
  <time>2026-09-02T22:07:39Z</time>
  <course>185.26</course>
  <speed>0.04242640687119285</speed>
  <fix>3d</fix>
</trkpt>
<trkpt lat="33.810313" lon="-118.3938675">
  <ele>-8.49</ele>
  <time>2026-09-02T22:07:39Z</time>
  <course>274.99</course>
  <speed>0.01</speed>
  <fix>3d</fix>
</trkpt>
<trkpt lat="33.8103132" lon="-118.3938677">
  <ele>-9.189</ele>
  <time>2026-09-02T22:07:39Z</time>
  <course>185.26</course>
  <speed>0.04242640687119285</speed>
  <fix>3d</fix>
</trkpt>
<trkpt lat="33.8103132" lon="-118.3938677">
  <ele>-9.272</ele>
  <time>2026-09-02T22:07:39Z</time>
  <course>185.26</course>
  <speed>0.04242640687119285</speed>
  <fix>3d</fix>
</trkpt>
<trkpt lat="33.810313" lon="-118.3938675">
  <ele>-8.73</ele>
  <time>2026-09-02T22:07:39Z</time>
  <course>274.99</course>
  <speed>0.01</speed>
  <fix>3d</fix>
</trkpt>
<trkpt lat="33.8103132" lon="-118.3938677">
  <ele>-9.312</ele>
  <time>2026-09-02T22:07:39Z</time>
  <course>185.26</course>
  <speed>0.04242640687119285</speed>
  <fix>3d</fix>
</trkpt>
<trkpt lat="33.8103132" lon="-118.3938677">
  <ele>-9.396</ele>
  <time>2026-09-02T22:07:39Z</time>
  <course>185.27</course>
  <speed>0.04242640687119285</speed>
  <fix>3d</fix>
</trkpt>
<trkpt lat="33.810313" lon="-118.3938675">
  <ele>-8.73</ele>
  <time>2026-09-02T22:07:39Z</time>
  <course>274.99</course>
  <speed>0.01</speed>
  <fix>3d</fix>
</trkpt>
<trkpt lat="33.8103132" lon="-118.3938677">
  <ele>-9.433</ele>
  <time>2026-09-02T22:07:39Z</time>
  <course>185.27</course>
  <speed>0.04242640687119285</speed>
  <fix>3d</fix>
</trkpt>
<trkpt lat="33.8103132" lon="-118.3938678">
  <ele>-9.519</ele>
  <time>2026-09-02T22:07:39Z</time>
  <course>185.27</course>
  <speed>0.04242640687119285</speed>
  <fix>3d</fix>
</trkpt>
<trkpt lat="33.810313" lon="-118.3938676">
  <ele>-8.98</ele>
  <time>2026-09-02T22:07:39Z</time>
  <course>274.99</course>
  <speed>0.01</speed>
  <fix>3d</fix>
</trkpt>
<trkpt lat="33.8103132" lon="-118.3938678">
  <ele>-9.556</ele>
  <time>2026-09-02T22:07:39Z</time>
  <course>185.28</course>
  <speed>0.04242640687119285</speed>
  <fix>3d</fix>
</trkpt>
<trkpt lat="33.8103132" lon="-118.3938678">
  <ele>-9.641</ele>
  <time>2026-09-02T22:07:39Z</time>
  <course>185.28</course>
  <speed>0.04242640687119285</speed>
  <fix>3d</fix>
</trkpt>
<trkpt lat="33.810313" lon="-118.3938676">
  <ele>-8.98</ele>
  <time>2026-09-02T22:07:39Z</time>
  <course>274.99</course>
  <speed>0.01</speed>
  <fix>3d</fix>
</trkpt>
<trkpt lat="33.8103132" lon="-118.3938678">
  <ele>-9.681</ele>
  <time>2026-09-02T22:07:39Z</time>
  <course>185.28</course>
  <speed>0.04242640687119285</speed>
  <fix>3d</fix>
</trkpt>
<trkpt lat="33.8103132" lon="-118.3938678">
  <ele>-9.763</ele>
  <time>2026-09-02T22:07:39Z</time>
  <course>185.29</course>
  <speed>0.04242640687119285</speed>
  <fix>3d</fix>
</trkpt>
<trkpt lat="33.810313" lon="-118.3938676">
  <ele>-9.22</ele>
  <time>2026-09-02T22:07:39Z</time>
  <course>274.99</course>
  <speed>0.01</speed>
  <fix>3d</fix>
</trkpt>
<trkpt lat="33.8103132" lon="-118.3938678">
  <ele>-9.766</ele>
  <time>2026-09-02T22:07:39Z</time>
  <course>185.29</course>
  <speed>0.04242640687119285</speed>
  <fix>3d</fix>
</trkpt>
<trkpt lat="33.8103132" lon="-118.3938678">
  <ele>-9.887</ele>
  <time>2026-09-02T22:07:39Z</time>
  <course>185.29</course>
  <speed>0.04242640687119285</speed>
  <fix>3d</fix>
</trkpt>
<trkpt lat="33.810313" lon="-118.3938676">
  <ele>-9.22</ele>
  <time>2026-09-02T22:07:39Z</time>
  <course>274.99</course>
  <speed>0.01</speed>
  <fix>3d</fix>
</trkpt>
<trkpt lat="33.8103132" lon="-118.3938678">
  <ele>-9.924</ele>
  <time>2026-09-02T22:07:39Z</time>
  <course>185.29</course>
  <speed>0.04242640687119285</speed>
  <fix>3d</fix>
</trkpt>
<trkpt lat="33.8103132" lon="-118.3938678">
  <ele>-10.01</ele>
  <time>2026-09-02T22:07:39Z</time>
  <course>185.3</course>
  <speed>0.04242640687119285</speed>
  <fix>3d</fix>
</trkpt>
<trkpt lat="33.810313" lon="-118.3938676">
  <ele>-9.46</ele>
  <time>2026-09-02T22:07:39Z</time>
  <course>274.99</course>
  <speed>0.01</speed>
  <fix>3d</fix>
</trkpt>
<trkpt lat="33.8103132" lon="-118.3938678">
  <ele>-10.053</ele>
  <time>2026-09-02T22:07:39Z</time>
  <course>185.3</course>
  <speed>0.04242640687119285</speed>
  <fix>3d</fix>
</trkpt>
<trkpt lat="33.8103132" lon="-118.3938678">
  <ele>-10.133</ele>
  <time>2026-09-02T22:07:39Z</time>
  <course>185.3</course>
  <speed>0.04242640687119285</speed>
  <fix>3d</fix>
</trkpt>
<trkpt lat="33.810313" lon="-118.3938676">
  <ele>-9.46</ele>
  <time>2026-09-02T22:07:39Z</time>
  <course>274.99</course>
  <speed>0.01</speed>
  <fix>3d</fix>
</trkpt>
<trkpt lat="33.8103132" lon="-118.3938678">
  <ele>-10.136</ele>
  <time>2026-09-02T22:07:39Z</time>
  <course>185.3</course>
  <speed>0.04242640687119285</speed>
  <fix>3d</fix>
</trkpt>
<trkpt lat="33.8103132" lon="-118.3938678">
  <ele>-10.256</ele>
  <time>2026-09-02T22:07:39Z</time>
  <course>185.31</course>
  <speed>0.04242640687119285</speed>
  <fix>3d</fix>
</trkpt>
<trkpt lat="33.810313" lon="-118.3938676">
  <ele>-9.71</ele>
  <time>2026-09-02T22:07:39Z</time>
  <course>274.99</course>
  <speed>0.01</speed>
  <fix>3d</fix>
</trkpt>
<trkpt lat="33.8103132" lon="-118.3938678">
  <ele>-10.296</ele>
  <time>2026-09-02T22:07:39Z</time>
  <course>185.31</course>
  <speed>0.04242640687119285</speed>
  <fix>3d</fix>
</trkpt>
<trkpt lat="33.8103132" lon="-118.3938678">
  <ele>-10.378</ele>
  <time>2026-09-02T22:07:39Z</time>
  <course>185.32</course>
  <speed>0.04242640687119285</speed>
  <fix>3d</fix>
</trkpt>
<trkpt lat="33.810313" lon="-118.3938676">
  <ele>-9.71</ele>
  <time>2026-09-02T22:07:39Z</time>
  <course>274.99</course>
  <speed>0.01</speed>
  <fix>3d</fix>
</trkpt>
<trkpt lat="33.8103132" lon="-118.3938678">
  <ele>-10.415</ele>
  <time>2026-09-02T22:07:39Z</time>
  <course>185.32</course>
  <speed>0.04242640687119285</speed>
  <fix>3d</fix>
</trkpt>
<trkpt lat="33.8103132" lon="-118.3938679">
  <ele>-10.501</ele>
  <time>2026-09-02T22:07:39Z</time>
  <course>185.32</course>
  <speed>0.04242640687119285</speed>
  <fix>3d</fix>
</trkpt>
<trkpt lat="33.810313" lon="-118.3938677">
  <ele>-9.95</ele>
  <time>2026-09-02T22:07:39Z</time>
  <course>274.99</course>
  <speed>0.01</speed>
  <fix>3d</fix>
</trkpt>
<trkpt lat="33.8103132" lon="-118.3938679">
  <ele>-10.541</ele>
  <time>2026-09-02T22:07:39Z</time>
  <course>185.32</course>
  <speed>0.04242640687119285</speed>
  <fix>3d</fix>
</trkpt>
<trkpt lat="33.8103132" lon="-118.3938679">
  <ele>-10.623</ele>
  <time>2026-09-02T22:07:39Z</time>
  <course>185.33</course>
  <speed>0.04242640687119285</speed>
  <fix>3d</fix>
</trkpt>
<trkpt lat="33.810313" lon="-118.3938677">
  <ele>-9.95</ele>
  <time>2026-09-02T22:07:39Z</time>
  <course>274.99</course>
  <speed>0.01</speed>
  <fix>3d</fix>
</trkpt>
<trkpt lat="33.8103132" lon="-118.3938679">
  <ele>-10.663</ele>
  <time>2026-09-02T22:07:39Z</time>
  <course>185.33</course>
  <speed>0.04242640687119285</speed>
  <fix>3d</fix>
</trkpt>
<trkpt lat="33.8103132" lon="-118.3938679">
  <ele>-10.745</ele>
  <time>2026-09-02T22:07:39Z</time>
  <course>185.33</course>
  <speed>0.04242640687119285</speed>
  <fix>3d</fix>
</trkpt>
<trkpt lat="33.810313" lon="-118.3938677">
  <ele>-10.19</ele>
  <time>2026-09-02T22:07:39Z</time>
  <course>274.99</course>
  <speed>0.01</speed>
  <fix>3d</fix>
</trkpt>
<trkpt lat="33.8103132" lon="-118.3938679">
  <ele>-10.785</ele>
  <time>2026-09-02T22:07:39Z</time>
  <course>185.34</course>
  <speed>0.04242640687119285</speed>
  <fix>3d</fix>
</trkpt>
<trkpt lat="33.8103132" lon="-118.3938679">
  <ele>-10.868</ele>
  <time>2026-09-02T22:07:39Z</time>
  <course>185.34</course>
  <speed>0.04242640687119285</speed>
  <fix>3d</fix>
</trkpt>
<trkpt lat="33.810313" lon="-118.3938677">
  <ele>-10.19</ele>
  <time>2026-09-02T22:07:39Z</time>
  <course>274.99</course>
  <speed>0.01</speed>
  <fix>3d</fix>
</trkpt>
<trkpt lat="33.8103132" lon="-118.3938679">
  <ele>-10.907</ele>
  <time>2026-09-02T22:07:39Z</time>
  <course>185.34</course>
  <speed>0.04242640687119285</speed>
  <fix>3d</fix>
</trkpt>
<trkpt lat="33.8103132" lon="-118.3938679">
  <ele>-10.991</ele>
  <time>2026-09-02T22:07:39Z</time>
  <course>185.35</course>
  <speed>0.04242640687119285</speed>
  <fix>3d</fix>
</trkpt>
<trkpt lat="33.810313" lon="-118.3938677">
  <ele>-10.44</ele>
  <time>2026-09-02T22:07:39Z</time>
  <course>274.99</course>
  <speed>0.01</speed>
  <fix>3d</fix>
</trkpt>
<trkpt lat="33.8103132" lon="-118.3938679">
  <ele>-11.024</ele>
  <time>2026-09-02T22:07:39Z</time>
  <course>185.35</course>
  <speed>0.04242640687119285</speed>
  <fix>3d</fix>
</trkpt>
<trkpt lat="33.8103132" lon="-118.3938679">
  <ele>-11.114</ele>
  <time>2026-09-02T22:07:39Z</time>
  <course>185.35</course>
  <speed>0.04242640687119285</speed>
  <fix>3d</fix>
</trkpt>
<trkpt lat="33.810313" lon="-118.3938677">
  <ele>-10.44</ele>
  <time>2026-09-02T22:07:39Z</time>
  <course>274.99</course>
  <speed>0.01</speed>
  <fix>3d</fix>
</trkpt>
<trkpt lat="33.8103132" lon="-118.3938679">
  <ele>-11.116</ele>
  <time>2026-09-02T22:07:39Z</time>
  <course>185.35</course>
  <speed>0.04242640687119285</speed>
  <fix>3d</fix>
</trkpt>
<trkpt lat="33.8103132" lon="-118.3938679">
  <ele>-11.237</ele>
  <time>2026-09-02T22:07:39Z</time>
  <course>185.36</course>
  <speed>0.04242640687119285</speed>
  <fix>3d</fix>
</trkpt>
<trkpt lat="33.810313" lon="-118.3938678">
  <ele>-10.68</ele>
  <time>2026-09-02T22:07:39Z</time>
  <course>274.99</course>
  <speed>0.01</speed>
  <fix>3d</fix>
</trkpt>
<trkpt lat="33.8103132" lon="-118.3938679">
  <ele>-11.276</ele>
  <time>2026-09-02T22:07:39Z</time>
  <course>185.36</course>
  <speed>0.04242640687119285</speed>
  <fix>3d</fix>
</trkpt>
<trkpt lat="33.8103132" lon="-118.3938679">
  <ele>-11.361</ele>
  <time>2026-09-02T22:07:39Z</time>
  <course>185.36</course>
  <speed>0.04242640687119285</speed>
  <fix>3d</fix>
</trkpt>
<trkpt lat="33.810313" lon="-118.3938678">
  <ele>-10.68</ele>
  <time>2026-09-02T22:07:39Z</time>
  <course>274.99</course>
  <speed>0.01</speed>
  <fix>3d</fix>
</trkpt>
<trkpt lat="33.8103132" lon="-118.3938679">
  <ele>-11.363</ele>
  <time>2026-09-02T22:07:39Z</time>
  <course>185.36</course>
  <speed>0.04242640687119285</speed>
  <fix>3d</fix>
</trkpt>
<trkpt lat="33.8103132" lon="-118.393868">
  <ele>-11.485</ele>
  <time>2026-09-02T22:07:39Z</time>
  <course>185.37</course>
  <speed>0.04242640687119285</speed>
  <fix>3d</fix>
</trkpt>
<trkpt lat="33.810313" lon="-118.3938678">
  <ele>-10.92</ele>
  <time>2026-09-02T22:07:39Z</time>
  <course>274.99</course>
  <speed>0.01</speed>
  <fix>3d</fix>
</trkpt>
<trkpt lat="33.8103132" lon="-118.393868">
  <ele>-11.488</ele>
  <time>2026-09-02T22:07:39Z</time>
  <course>185.37</course>
  <speed>0.04242640687119285</speed>
  <fix>3d</fix>
</trkpt>
<trkpt lat="33.8103132" lon="-118.393868">
  <ele>-11.61</ele>
  <time>2026-09-02T22:07:39Z</time>
  <course>185.38</course>
  <speed>0.04242640687119285</speed>
  <fix>3d</fix>
</trkpt>
<trkpt lat="33.810313" lon="-118.3938678">
  <ele>-10.92</ele>
  <time>2026-09-02T22:07:39Z</time>
  <course>274.99</course>
  <speed>0.01</speed>
  <fix>3d</fix>
</trkpt>
<trkpt lat="33.8103132" lon="-118.393868">
  <ele>-11.613</ele>
  <time>2026-09-02T22:07:39Z</time>
  <course>185.38</course>
  <speed>0.04242640687119285</speed>
  <fix>3d</fix>
</trkpt>
<trkpt lat="33.8103132" lon="-118.393868">
  <ele>-11.735</ele>
  <time>2026-09-02T22:07:39Z</time>
  <course>185.38</course>
  <speed>0.04242640687119285</speed>
  <fix>3d</fix>
</trkpt>
<trkpt lat="33.810313" lon="-118.3938678">
  <ele>-11.17</ele>
  <time>2026-09-02T22:07:39Z</time>
  <course>274.99</course>
  <speed>0.01</speed>
  <fix>3d</fix>
</trkpt>
<trkpt lat="33.8103132" lon="-118.393868">
  <ele>-11.773</ele>
  <time>2026-09-02T22:07:39Z</time>
  <course>185.38</course>
  <speed>0.04242640687119285</speed>
  <fix>3d</fix>
</trkpt>
<trkpt lat="33.8103132" lon="-118.393868">
  <ele>-11.861</ele>
  <time>2026-09-02T22:07:39Z</time>
  <course>185.39</course>
  <speed>0.04242640687119285</speed>
  <fix>3d</fix>
</trkpt>
<trkpt lat="33.810313" lon="-118.3938678">
  <ele>-11.17</ele>
  <time>2026-09-02T22:07:39Z</time>
  <course>274.99</course>
  <speed>0.01</speed>
  <fix>3d</fix>
</trkpt>
<trkpt lat="33.8103132" lon="-118.393868">
  <ele>-11.899</ele>
  <time>2026-09-02T22:07:39Z</time>
  <course>185.39</course>
  <speed>0.04242640687119285</speed>
  <fix>3d</fix>
</trkpt>
<trkpt lat="33.8103132" lon="-118.393868">
  <ele>-11.987</ele>
  <time>2026-09-02T22:07:39Z</time>
  <course>185.39</course>
  <speed>0.04242640687119285</speed>
  <fix>3d</fix>
</trkpt>
<trkpt lat="33.810313" lon="-118.3938678">
  <ele>-11.41</ele>
  <time>2026-09-02T22:07:39Z</time>
  <course>274.99</course>
  <speed>0.01</speed>
  <fix>3d</fix>
</trkpt>
<trkpt lat="33.8103132" lon="-118.393868">
  <ele>-12.028</ele>
  <time>2026-09-02T22:07:39Z</time>
  <course>185.4</course>
  <speed>0.04242640687119285</speed>
  <fix>3d</fix>
</trkpt>
<trkpt lat="33.8103132" lon="-118.393868">
  <ele>-12.113</ele>
  <time>2026-09-02T22:07:39Z</time>
  <course>185.4</course>
  <speed>0.04242640687119285</speed>
  <fix>3d</fix>
</trkpt>
<trkpt lat="33.810313" lon="-118.3938678">
  <ele>-11.41</ele>
  <time>2026-09-02T22:07:39Z</time>
  <course>274.99</course>
  <speed>0.01</speed>
  <fix>3d</fix>
</trkpt>
<trkpt lat="33.8103132" lon="-118.393868">
  <ele>-12.154</ele>
  <time>2026-09-02T22:07:39Z</time>
  <course>185.4</course>
  <speed>0.04242640687119285</speed>
  <fix>3d</fix>
</trkpt>
<trkpt lat="33.8103132" lon="-118.393868">
  <ele>-12.238</ele>
  <time>2026-09-02T22:07:39Z</time>
  <course>185.41</course>
  <speed>0.04242640687119285</speed>
  <fix>3d</fix>
</trkpt>
<trkpt lat="33.810313" lon="-118.3938679">
  <ele>-11.65</ele>
  <time>2026-09-02T22:07:39Z</time>
  <course>274.99</course>
  <speed>0.01</speed>
  <fix>3d</fix>
</trkpt>
<trkpt lat="33.8103132" lon="-118.393868">
  <ele>-12.276</ele>
  <time>2026-09-02T22:07:39Z</time>
  <course>185.41</course>
  <speed>0.04242640687119285</speed>
  <fix>3d</fix>
</trkpt>
<trkpt lat="33.8103132" lon="-118.3938681">
  <ele>-12.363</ele>
  <time>2026-09-02T22:07:39Z</time>
  <course>185.41</course>
  <speed>0.04242640687119285</speed>
  <fix>3d</fix>
</trkpt>
<trkpt lat="33.810313" lon="-118.3938679">
  <ele>-11.65</ele>
  <time>2026-09-02T22:07:39Z</time>
  <course>274.99</course>
  <speed>0.01</speed>
  <fix>3d</fix>
</trkpt>
<trkpt lat="33.8103132" lon="-118.3938681">
  <ele>-12.403</ele>
  <time>2026-09-02T22:07:39Z</time>
  <course>185.41</course>
  <speed>0.04242640687119285</speed>
  <fix>3d</fix>
</trkpt>
<trkpt lat="33.8103132" lon="-118.3938681">
  <ele>-12.489</ele>
  <time>2026-09-02T22:07:39Z</time>
  <course>185.42</course>
  <speed>0.04242640687119285</speed>
  <fix>3d</fix>
</trkpt>
<trkpt lat="33.810313" lon="-118.3938679">
  <ele>-11.9</ele>
  <time>2026-09-02T22:07:39Z</time>
  <course>274.99</course>
  <speed>0.01</speed>
  <fix>3d</fix>
</trkpt>
<trkpt lat="33.8103132" lon="-118.3938681">
  <ele>-12.492</ele>
  <time>2026-09-02T22:07:39Z</time>
  <course>185.42</course>
  <speed>0.04242640687119285</speed>
  <fix>3d</fix>
</trkpt>
<trkpt lat="33.8103132" lon="-118.3938681">
  <ele>-12.614</ele>
  <time>2026-09-02T22:07:39Z</time>
  <course>185.42</course>
  <speed>0.04242640687119285</speed>
  <fix>3d</fix>
</trkpt>
<trkpt lat="33.810313" lon="-118.3938679">
  <ele>-11.9</ele>
  <time>2026-09-02T22:07:39Z</time>
  <course>274.99</course>
  <speed>0.01</speed>
  <fix>3d</fix>
</trkpt>
<trkpt lat="33.8103132" lon="-118.3938681">
  <ele>-12.654</ele>
  <time>2026-09-02T22:07:39Z</time>
  <course>185.43</course>
  <speed>0.04242640687119285</speed>
  <fix>3d</fix>
</trkpt>
<trkpt lat="33.8103132" lon="-118.3938681">
  <ele>-12.739</ele>
  <time>2026-09-02T22:07:39Z</time>
  <course>185.43</course>
  <speed>0.04242640687119285</speed>
  <fix>3d</fix>
</trkpt>
<trkpt lat="33.810313" lon="-118.3938679">
  <ele>-12.14</ele>
  <time>2026-09-02T22:07:39Z</time>
  <course>274.99</course>
  <speed>0.01</speed>
  <fix>3d</fix>
</trkpt>
<trkpt lat="33.8103132" lon="-118.3938681">
  <ele>-12.779</ele>
  <time>2026-09-02T22:07:39Z</time>
  <course>185.43</course>
  <speed>0.04242640687119285</speed>
  <fix>3d</fix>
</trkpt>
<trkpt lat="33.8103132" lon="-118.3938681">
  <ele>-12.863</ele>
  <time>2026-09-02T22:07:39Z</time>
  <course>185.44</course>
  <speed>0.04242640687119285</speed>
  <fix>3d</fix>
</trkpt>
<trkpt lat="33.810313" lon="-118.3938679">
  <ele>-12.14</ele>
  <time>2026-09-02T22:07:39Z</time>
  <course>274.99</course>
  <speed>0.01</speed>
  <fix>3d</fix>
</trkpt>
<trkpt lat="33.8103132" lon="-118.3938681">
  <ele>-12.903</ele>
  <time>2026-09-02T22:07:39Z</time>
  <course>185.44</course>
  <speed>0.04242640687119285</speed>
  <fix>3d</fix>
</trkpt>
<trkpt lat="33.8103132" lon="-118.3938681">
  <ele>-12.986</ele>
  <time>2026-09-02T22:07:39Z</time>
  <course>185.44</course>
  <speed>0.04242640687119285</speed>
  <fix>3d</fix>
</trkpt>
<trkpt lat="33.810313" lon="-118.3938679">
  <ele>-12.38</ele>
  <time>2026-09-02T22:07:39Z</time>
  <course>274.99</course>
  <speed>0.01</speed>
  <fix>3d</fix>
</trkpt>
<trkpt lat="33.8103132" lon="-118.3938681">
  <ele>-13.022</ele>
  <time>2026-09-02T22:07:39Z</time>
  <course>185.44</course>
  <speed>0.04242640687119285</speed>
  <fix>3d</fix>
</trkpt>
<trkpt lat="33.8103132" lon="-118.3938681">
  <ele>-13.107</ele>
  <time>2026-09-02T22:07:39Z</time>
  <course>185.45</course>
  <speed>0.04242640687119285</speed>
  <fix>3d</fix>
</trkpt>
<trkpt lat="33.810313" lon="-118.3938679">
  <ele>-12.38</ele>
  <time>2026-09-02T22:07:39Z</time>
  <course>274.99</course>
  <speed>0.01</speed>
  <fix>3d</fix>
</trkpt>
<trkpt lat="33.8103132" lon="-118.3938681">
  <ele>-13.147</ele>
  <time>2026-09-02T22:07:39Z</time>
  <course>185.45</course>
  <speed>0.04242640687119285</speed>
  <fix>3d</fix>
</trkpt>
<trkpt lat="33.8103132" lon="-118.3938681">
  <ele>-13.228</ele>
  <time>2026-09-02T22:07:39Z</time>
  <course>185.45</course>
  <speed>0.04242640687119285</speed>
  <fix>3d</fix>
</trkpt>
<trkpt lat="33.810313" lon="-118.393868">
  <ele>-12.63</ele>
  <time>2026-09-02T22:07:39Z</time>
  <course>274.99</course>
  <speed>0.01</speed>
  <fix>3d</fix>
</trkpt>
<trkpt lat="33.8103132" lon="-118.3938681">
  <ele>-13.231</ele>
  <time>2026-09-02T22:07:39Z</time>
  <course>185.45</course>
  <speed>0.04242640687119285</speed>
  <fix>3d</fix>
</trkpt>
<trkpt lat="33.8103132" lon="-118.3938682">
  <ele>-13.348</ele>
  <time>2026-09-02T22:07:39Z</time>
  <course>185.46</course>
  <speed>0.03605551275463989</speed>
  <fix>3d</fix>
</trkpt>
<trkpt lat="33.810313" lon="-118.393868">
  <ele>-12.63</ele>
  <time>2026-09-02T22:07:39Z</time>
  <course>274.99</course>
  <speed>0.01</speed>
  <fix>3d</fix>
</trkpt>
<trkpt lat="33.8103132" lon="-118.3938682">
  <ele>-13.388</ele>
  <time>2026-09-02T22:07:39Z</time>
  <course>185.46</course>
  <speed>0.04242640687119285</speed>
  <fix>3d</fix>
</trkpt>
<trkpt lat="33.8103132" lon="-118.3938682">
  <ele>-13.469</ele>
  <time>2026-09-02T22:07:39Z</time>
  <course>185.47</course>
  <speed>0.03605551275463989</speed>
  <fix>3d</fix>
</trkpt>
<trkpt lat="33.810313" lon="-118.393868">
  <ele>-12.87</ele>
  <time>2026-09-02T22:07:39Z</time>
  <course>274.99</course>
  <speed>0.01</speed>
  <fix>3d</fix>
</trkpt>
<trkpt lat="33.8103132" lon="-118.3938682">
  <ele>-13.508</ele>
  <time>2026-09-02T22:07:39Z</time>
  <course>185.47</course>
  <speed>0.03605551275463989</speed>
  <fix>3d</fix>
</trkpt>
<trkpt lat="33.8103132" lon="-118.3938682">
  <ele>-13.59</ele>
  <time>2026-09-02T22:07:39Z</time>
  <course>185.47</course>
  <speed>0.03605551275463989</speed>
  <fix>3d</fix>
</trkpt>
<trkpt lat="33.810313" lon="-118.393868">
  <ele>-12.87</ele>
  <time>2026-09-02T22:07:39Z</time>
  <course>274.99</course>
  <speed>0.01</speed>
  <fix>3d</fix>
</trkpt>
<trkpt lat="33.8103132" lon="-118.3938682">
  <ele>-13.627</ele>
  <time>2026-09-02T22:07:39Z</time>
  <course>185.47</course>
  <speed>0.03605551275463989</speed>
  <fix>3d</fix>
</trkpt>
<trkpt lat="33.8103132" lon="-118.3938682">
  <ele>-13.712</ele>
  <time>2026-09-02T22:07:39Z</time>
  <course>185.48</course>
  <speed>0.03605551275463989</speed>
  <fix>3d</fix>
</trkpt>
<trkpt lat="33.810313" lon="-118.393868">
  <ele>-13.11</ele>
  <time>2026-09-02T22:07:39Z</time>
  <course>274.99</course>
  <speed>0.01</speed>
  <fix>3d</fix>
</trkpt>
<trkpt lat="33.8103132" lon="-118.3938682">
  <ele>-13.75</ele>
  <time>2026-09-02T22:07:39Z</time>
  <course>185.48</course>
  <speed>0.03605551275463989</speed>
  <fix>3d</fix>
</trkpt>
<trkpt lat="33.8103132" lon="-118.3938682">
  <ele>-13.833</ele>
  <time>2026-09-02T22:07:39Z</time>
  <course>185.48</course>
  <speed>0.03605551275463989</speed>
  <fix>3d</fix>
</trkpt>
<trkpt lat="33.810313" lon="-118.393868">
  <ele>-13.11</ele>
  <time>2026-09-02T22:07:39Z</time>
  <course>274.99</course>
  <speed>0.01</speed>
  <fix>3d</fix>
</trkpt>
<trkpt lat="33.8103132" lon="-118.3938682">
  <ele>-13.835</ele>
  <time>2026-09-02T22:07:39Z</time>
  <course>185.48</course>
  <speed>0.03605551275463989</speed>
  <fix>3d</fix>
</trkpt>
<trkpt lat="33.8103132" lon="-118.3938682">
  <ele>-13.955</ele>
  <time>2026-09-02T22:07:39Z</time>
  <course>185.49</course>
  <speed>0.03605551275463989</speed>
  <fix>3d</fix>
</trkpt>
<trkpt lat="33.810313" lon="-118.393868">
  <ele>-13.36</ele>
  <time>2026-09-02T22:07:39Z</time>
  <course>274.99</course>
  <speed>0.01</speed>
  <fix>3d</fix>
</trkpt>
<trkpt lat="33.8103132" lon="-118.3938682">
  <ele>-13.992</ele>
  <time>2026-09-02T22:07:39Z</time>
  <course>185.49</course>
  <speed>0.03605551275463989</speed>
  <fix>3d</fix>
</trkpt>
<trkpt lat="33.8103132" lon="-118.3938682">
  <ele>-14.078</ele>
  <time>2026-09-02T22:07:39Z</time>
  <course>185.5</course>
  <speed>0.03605551275463989</speed>
  <fix>3d</fix>
</trkpt>
<trkpt lat="33.810313" lon="-118.393868">
  <ele>-13.36</ele>
  <time>2026-09-02T22:07:39Z</time>
  <course>274.99</course>
  <speed>0.01</speed>
  <fix>3d</fix>
</trkpt>
<trkpt lat="33.8103132" lon="-118.3938682">
  <ele>-14.115</ele>
  <time>2026-09-02T22:07:39Z</time>
  <course>185.5</course>
  <speed>0.03605551275463989</speed>
  <fix>3d</fix>
</trkpt>
<trkpt lat="33.8103132" lon="-118.3938682">
  <ele>-14.202</ele>
  <time>2026-09-02T22:07:39Z</time>
  <course>185.5</course>
  <speed>0.03605551275463989</speed>
  <fix>3d</fix>
</trkpt>
<trkpt lat="33.810313" lon="-118.3938681">
  <ele>-13.6</ele>
  <time>2026-09-02T22:07:39Z</time>
  <course>274.99</course>
  <speed>0.01</speed>
  <fix>3d</fix>
</trkpt>
<trkpt lat="33.8103132" lon="-118.3938682">
  <ele>-14.242</ele>
  <time>2026-09-02T22:07:39Z</time>
  <course>185.5</course>
  <speed>0.03605551275463989</speed>
  <fix>3d</fix>
</trkpt>
<trkpt lat="33.8103132" lon="-118.3938682">
  <ele>-14.325</ele>
  <time>2026-09-02T22:07:39Z</time>
  <course>185.51</course>
  <speed>0.03605551275463989</speed>
  <fix>3d</fix>
</trkpt>
<trkpt lat="33.810313" lon="-118.3938681">
  <ele>-13.6</ele>
  <time>2026-09-02T22:07:39Z</time>
  <course>274.99</course>
  <speed>0.01</speed>
  <fix>3d</fix>
</trkpt>
<trkpt lat="33.8103132" lon="-118.3938682">
  <ele>-14.356</ele>
  <time>2026-09-02T22:07:39Z</time>
  <course>185.51</course>
  <speed>0.03605551275463989</speed>
  <fix>3d</fix>
</trkpt>
<trkpt lat="33.8103132" lon="-118.3938683">
  <ele>-14.448</ele>
  <time>2026-09-02T22:07:39Z</time>
  <course>185.51</course>
  <speed>0.03605551275463989</speed>
  <fix>3d</fix>
</trkpt>
<trkpt lat="33.810313" lon="-118.3938681">
  <ele>-13.84</ele>
  <time>2026-09-02T22:07:39Z</time>
  <course>274.99</course>
  <speed>0.01</speed>
  <fix>3d</fix>
</trkpt>
<trkpt lat="33.8103132" lon="-118.3938683">
  <ele>-14.486</ele>
  <time>2026-09-02T22:07:39Z</time>
  <course>185.51</course>
  <speed>0.03605551275463989</speed>
  <fix>3d</fix>
</trkpt>
<trkpt lat="33.8103132" lon="-118.3938683">
  <ele>-14.573</ele>
  <time>2026-09-02T22:07:39Z</time>
  <course>185.52</course>
  <speed>0.03605551275463989</speed>
  <fix>3d</fix>
</trkpt>
<trkpt lat="33.810313" lon="-118.3938681">
  <ele>-13.84</ele>
  <time>2026-09-02T22:07:39Z</time>
  <course>274.99</course>
  <speed>0.01</speed>
  <fix>3d</fix>
</trkpt>
<trkpt lat="33.8103132" lon="-118.3938683">
  <ele>-14.61</ele>
  <time>2026-09-02T22:07:39Z</time>
  <course>185.52</course>
  <speed>0.03605551275463989</speed>
  <fix>3d</fix>
</trkpt>
<trkpt lat="33.8103132" lon="-118.3938683">
  <ele>-14.698</ele>
  <time>2026-09-02T22:07:39Z</time>
  <course>185.52</course>
  <speed>0.03605551275463989</speed>
  <fix>3d</fix>
</trkpt>
<trkpt lat="33.810313" lon="-118.3938681">
  <ele>-14.09</ele>
  <time>2026-09-02T22:07:39Z</time>
  <course>274.99</course>
  <speed>0.01</speed>
  <fix>3d</fix>
</trkpt>
<trkpt lat="33.8103132" lon="-118.3938683">
  <ele>-14.704</ele>
  <time>2026-09-02T22:07:39Z</time>
  <course>185.52</course>
  <speed>0.03605551275463989</speed>
  <fix>3d</fix>
</trkpt>
<trkpt lat="33.8103132" lon="-118.3938683">
  <ele>-14.822</ele>
  <time>2026-09-02T22:07:39Z</time>
  <course>185.53</course>
  <speed>0.03605551275463989</speed>
  <fix>3d</fix>
</trkpt>
<trkpt lat="33.810313" lon="-118.3938681">
  <ele>-14.09</ele>
  <time>2026-09-02T22:07:39Z</time>
  <course>274.99</course>
  <speed>0.01</speed>
  <fix>3d</fix>
</trkpt>
<trkpt lat="33.8103132" lon="-118.3938683">
  <ele>-14.863</ele>
  <time>2026-09-02T22:07:39Z</time>
  <course>185.53</course>
  <speed>0.03605551275463989</speed>
  <fix>3d</fix>
</trkpt>
<trkpt lat="33.8103132" lon="-118.3938683">
  <ele>-14.948</ele>
  <time>2026-09-02T22:07:39Z</time>
  <course>185.53</course>
  <speed>0.03605551275463989</speed>
  <fix>3d</fix>
</trkpt>
<trkpt lat="33.810313" lon="-118.3938682">
  <ele>-14.33</ele>
  <time>2026-09-02T22:07:39Z</time>
  <course>274.99</course>
  <speed>0.01</speed>
  <fix>3d</fix>
</trkpt>
<trkpt lat="33.8103132" lon="-118.3938683">
  <ele>-14.986</ele>
  <time>2026-09-02T22:07:39Z</time>
  <course>185.54</course>
  <speed>0.03605551275463989</speed>
  <fix>3d</fix>
</trkpt>
<trkpt lat="33.8103132" lon="-118.3938683">
  <ele>-15.074</ele>
  <time>2026-09-02T22:07:39Z</time>
  <course>185.54</course>
  <speed>0.03605551275463989</speed>
  <fix>3d</fix>
</trkpt>
<trkpt lat="33.810313" lon="-118.3938682">
  <ele>-14.33</ele>
  <time>2026-09-02T22:07:39Z</time>
  <course>274.99</course>
  <speed>0.01</speed>
  <fix>3d</fix>
</trkpt>
<trkpt lat="33.8103132" lon="-118.3938683">
  <ele>-15.114</ele>
  <time>2026-09-02T22:07:39Z</time>
  <course>185.54</course>
  <speed>0.03605551275463989</speed>
  <fix>3d</fix>
</trkpt>
<trkpt lat="33.8103132" lon="-118.3938683">
  <ele>-15.199</ele>
  <time>2026-09-02T22:07:39Z</time>
  <course>185.55</course>
  <speed>0.03605551275463989</speed>
  <fix>3d</fix>
</trkpt>
<trkpt lat="33.810313" lon="-118.3938682">
  <ele>-14.57</ele>
  <time>2026-09-02T22:07:39Z</time>
  <course>274.99</course>
  <speed>0.01</speed>
  <fix>3d</fix>
</trkpt>
<trkpt lat="33.8103132" lon="-118.3938683">
  <ele>-15.202</ele>
  <time>2026-09-02T22:07:39Z</time>
  <course>185.55</course>
  <speed>0.03605551275463989</speed>
  <fix>3d</fix>
</trkpt>
<trkpt lat="33.8103132" lon="-118.3938683">
  <ele>-15.325</ele>
  <time>2026-09-02T22:07:39Z</time>
  <course>185.55</course>
  <speed>0.03605551275463989</speed>
  <fix>3d</fix>
</trkpt>
<trkpt lat="33.810313" lon="-118.3938682">
  <ele>-14.57</ele>
  <time>2026-09-02T22:07:39Z</time>
  <course>274.99</course>
  <speed>0.01</speed>
  <fix>3d</fix>
</trkpt>
<trkpt lat="33.8103132" lon="-118.3938684">
  <ele>-15.366</ele>
  <time>2026-09-02T22:07:39Z</time>
  <course>185.55</course>
  <speed>0.03605551275463989</speed>
  <fix>3d</fix>
</trkpt>
<trkpt lat="33.8103132" lon="-118.3938684">
  <ele>-15.451</ele>
  <time>2026-09-02T22:07:39Z</time>
  <course>185.56</course>
  <speed>0.03605551275463989</speed>
  <fix>3d</fix>
</trkpt>
<trkpt lat="33.810313" lon="-118.3938682">
  <ele>-14.82</ele>
  <time>2026-09-02T22:07:39Z</time>
  <course>274.99</course>
  <speed>0.01</speed>
  <fix>3d</fix>
</trkpt>
<trkpt lat="33.8103132" lon="-118.3938684">
  <ele>-15.495</ele>
  <time>2026-09-02T22:07:39Z</time>
  <course>185.56</course>
  <speed>0.03605551275463989</speed>
  <fix>3d</fix>
</trkpt>
<trkpt lat="33.8103132" lon="-118.3938684">
  <ele>-15.576</ele>
  <time>2026-09-02T22:07:39Z</time>
  <course>185.56</course>
  <speed>0.03605551275463989</speed>
  <fix>3d</fix>
</trkpt>
<trkpt lat="33.810313" lon="-118.3938682">
  <ele>-14.82</ele>
  <time>2026-09-02T22:07:39Z</time>
  <course>274.99</course>
  <speed>0.01</speed>
  <fix>3d</fix>
</trkpt>
<trkpt lat="33.8103132" lon="-118.3938684">
  <ele>-15.614</ele>
  <time>2026-09-02T22:07:39Z</time>
  <course>185.56</course>
  <speed>0.03605551275463989</speed>
  <fix>3d</fix>
</trkpt>
<trkpt lat="33.8103132" lon="-118.3938684">
  <ele>-15.701</ele>
  <time>2026-09-02T22:07:39Z</time>
  <course>185.57</course>
  <speed>0.03605551275463989</speed>
  <fix>3d</fix>
</trkpt>
<trkpt lat="33.810313" lon="-118.3938682">
  <ele>-15.05</ele>
  <time>2026-09-02T22:07:39Z</time>
  <course>274.99</course>
  <speed>0.01</speed>
  <fix>3d</fix>
</trkpt>
<trkpt lat="33.8103132" lon="-118.3938684">
  <ele>-15.739</ele>
  <time>2026-09-02T22:07:39Z</time>
  <course>185.57</course>
  <speed>0.03605551275463989</speed>
  <fix>3d</fix>
</trkpt>
<trkpt lat="33.8103132" lon="-118.3938684">
  <ele>-15.827</ele>
  <time>2026-09-02T22:07:39Z</time>
  <course>185.57</course>
  <speed>0.03605551275463989</speed>
  <fix>3d</fix>
</trkpt>
<trkpt lat="33.810313" lon="-118.3938682">
  <ele>-15.05</ele>
  <time>2026-09-02T22:07:39Z</time>
  <course>274.99</course>
  <speed>0.01</speed>
  <fix>3d</fix>
</trkpt>
<trkpt lat="33.8103132" lon="-118.3938684">
  <ele>-15.871</ele>
  <time>2026-09-02T22:07:39Z</time>
  <course>185.57</course>
  <speed>0.03605551275463989</speed>
  <fix>3d</fix>
</trkpt>
<trkpt lat="33.8103132" lon="-118.3938684">
  <ele>-15.953</ele>
  <time>2026-09-02T22:07:39Z</time>
  <course>185.58</course>
  <speed>0.03605551275463989</speed>
  <fix>3d</fix>
</trkpt>
<trkpt lat="33.810313" lon="-118.3938683">
  <ele>-15.3</ele>
  <time>2026-09-02T22:07:39Z</time>
  <course>274.99</course>
  <speed>0.01</speed>
  <fix>3d</fix>
</trkpt>
<trkpt lat="33.8103132" lon="-118.3938684">
  <ele>-15.991</ele>
  <time>2026-09-02T22:07:39Z</time>
  <course>185.58</course>
  <speed>0.03605551275463989</speed>
  <fix>3d</fix>
</trkpt>
<trkpt lat="33.8103132" lon="-118.3938684">
  <ele>-16.079</ele>
  <time>2026-09-02T22:07:39Z</time>
  <course>185.58</course>
  <speed>0.03605551275463989</speed>
  <fix>3d</fix>
</trkpt>
<trkpt lat="33.810313" lon="-118.3938683">
  <ele>-15.3</ele>
  <time>2026-09-02T22:07:39Z</time>
  <course>274.99</course>
  <speed>0.01</speed>
  <fix>3d</fix>
</trkpt>
<trkpt lat="33.8103132" lon="-118.3938684">
  <ele>-16.111</ele>
  <time>2026-09-02T22:07:39Z</time>
  <course>185.58</course>
  <speed>0.03605551275463989</speed>
  <fix>3d</fix>
</trkpt>
<trkpt lat="33.8103132" lon="-118.3938684">
  <ele>-16.205</ele>
  <time>2026-09-02T22:07:39Z</time>
  <course>185.59</course>
  <speed>0.03605551275463989</speed>
  <fix>3d</fix>
</trkpt>
<trkpt lat="33.810313" lon="-118.3938683">
  <ele>-15.55</ele>
  <time>2026-09-02T22:07:39Z</time>
  <course>274.99</course>
  <speed>0.01</speed>
  <fix>3d</fix>
</trkpt>
<trkpt lat="33.8103132" lon="-118.3938684">
  <ele>-16.249</ele>
  <time>2026-09-02T22:07:39Z</time>
  <course>185.59</course>
  <speed>0.03605551275463989</speed>
  <fix>3d</fix>
</trkpt>
<trkpt lat="33.8103132" lon="-118.3938684">
  <ele>-16.33</ele>
  <time>2026-09-02T22:07:39Z</time>
  <course>185.59</course>
  <speed>0.03605551275463989</speed>
  <fix>3d</fix>
</trkpt>
<trkpt lat="33.810313" lon="-118.3938683">
  <ele>-15.55</ele>
  <time>2026-09-02T22:07:39Z</time>
  <course>274.99</course>
  <speed>0.01</speed>
  <fix>3d</fix>
</trkpt>
<trkpt lat="33.8103132" lon="-118.3938685">
  <ele>-16.369</ele>
  <time>2026-09-02T22:07:39Z</time>
  <course>185.59</course>
  <speed>0.03605551275463989</speed>
  <fix>3d</fix>
</trkpt>
<trkpt lat="33.8103132" lon="-118.3938685">
  <ele>-16.455</ele>
  <time>2026-09-02T22:07:39Z</time>
  <course>185.6</course>
  <speed>0.03605551275463989</speed>
  <fix>3d</fix>
</trkpt>
<trkpt lat="33.810313" lon="-118.3938683">
  <ele>-15.79</ele>
  <time>2026-09-02T22:07:39Z</time>
  <course>274.99</course>
  <speed>0.01</speed>
  <fix>3d</fix>
</trkpt>
<trkpt lat="33.8103132" lon="-118.3938685">
  <ele>-16.492</ele>
  <time>2026-09-02T22:07:39Z</time>
  <course>185.6</course>
  <speed>0.03605551275463989</speed>
  <fix>3d</fix>
</trkpt>
<trkpt lat="33.8103132" lon="-118.3938685">
  <ele>-16.58</ele>
  <time>2026-09-02T22:07:39Z</time>
  <course>185.6</course>
  <speed>0.03605551275463989</speed>
  <fix>3d</fix>
</trkpt>
<trkpt lat="33.810313" lon="-118.3938683">
  <ele>-15.79</ele>
  <time>2026-09-02T22:07:39Z</time>
  <course>274.99</course>
  <speed>0.01</speed>
  <fix>3d</fix>
</trkpt>
<trkpt lat="33.8103132" lon="-118.3938685">
  <ele>-16.583</ele>
  <time>2026-09-02T22:07:39Z</time>
  <course>185.6</course>
  <speed>0.03605551275463989</speed>
  <fix>3d</fix>
</trkpt>
<trkpt lat="33.8103132" lon="-118.3938685">
  <ele>-16.705</ele>
  <time>2026-09-02T22:07:39Z</time>
  <course>185.61</course>
  <speed>0.03605551275463989</speed>
  <fix>3d</fix>
</trkpt>
<trkpt lat="33.8103131" lon="-118.3938683">
  <ele>-16.03</ele>
  <time>2026-09-02T22:07:39Z</time>
  <course>274.99</course>
  <speed>0.01</speed>
  <fix>3d</fix>
</trkpt>
<trkpt lat="33.8103132" lon="-118.3938685">
  <ele>-16.746</ele>
  <time>2026-09-02T22:07:39Z</time>
  <course>185.61</course>
  <speed>0.03605551275463989</speed>
  <fix>3d</fix>
</trkpt>
<trkpt lat="33.8103132" lon="-118.3938685">
  <ele>-16.83</ele>
  <time>2026-09-02T22:07:39Z</time>
  <course>185.61</course>
  <speed>0.03605551275463989</speed>
  <fix>3d</fix>
</trkpt>
<trkpt lat="33.8103131" lon="-118.3938683">
  <ele>-16.03</ele>
  <time>2026-09-02T22:07:39Z</time>
  <course>274.99</course>
  <speed>0.01</speed>
  <fix>3d</fix>
</trkpt>
<trkpt lat="33.8103132" lon="-118.3938685">
  <ele>-16.868</ele>
  <time>2026-09-02T22:07:39Z</time>
  <course>185.61</course>
  <speed>0.03605551275463989</speed>
  <fix>3d</fix>
</trkpt>
<trkpt lat="33.8103132" lon="-118.3938685">
  <ele>-16.955</ele>
  <time>2026-09-02T22:07:39Z</time>
  <course>185.62</course>
  <speed>0.03605551275463989</speed>
  <fix>3d</fix>
</trkpt>
<trkpt lat="33.8103131" lon="-118.3938684">
  <ele>-16.27</ele>
  <time>2026-09-02T22:07:39Z</time>
  <course>274.99</course>
  <speed>0.01</speed>
  <fix>3d</fix>
</trkpt>
<trkpt lat="33.8103132" lon="-118.3938685">
  <ele>-16.996</ele>
  <time>2026-09-02T22:07:39Z</time>
  <course>185.62</course>
  <speed>0.0282842712474619</speed>
  <fix>3d</fix>
</trkpt>
<trkpt lat="33.8103132" lon="-118.3938685">
  <ele>-17.079</ele>
  <time>2026-09-02T22:07:39Z</time>
  <course>185.62</course>
  <speed>0.0282842712474619</speed>
  <fix>3d</fix>
</trkpt>
<trkpt lat="33.8103131" lon="-118.3938684">
  <ele>-16.27</ele>
  <time>2026-09-02T22:07:39Z</time>
  <course>274.99</course>
  <speed>0.01</speed>
  <fix>3d</fix>
</trkpt>
<trkpt lat="33.8103132" lon="-118.3938685">
  <ele>-17.117</ele>
  <time>2026-09-02T22:07:39Z</time>
  <course>185.62</course>
  <speed>0.03605551275463989</speed>
  <fix>3d</fix>
</trkpt>
<trkpt lat="33.8103132" lon="-118.3938685">
  <ele>-17.203</ele>
  <time>2026-09-02T22:07:39Z</time>
  <course>185.63</course>
  <speed>0.0282842712474619</speed>
  <fix>3d</fix>
</trkpt>
<trkpt lat="33.8103131" lon="-118.3938684">
  <ele>-16.52</ele>
  <time>2026-09-02T22:07:39Z</time>
  <course>274.99</course>
  <speed>0.01</speed>
  <fix>3d</fix>
</trkpt>
<trkpt lat="33.8103132" lon="-118.3938685">
  <ele>-17.247</ele>
  <time>2026-09-02T22:07:39Z</time>
  <course>185.63</course>
  <speed>0.0282842712474619</speed>
  <fix>3d</fix>
</trkpt>
<trkpt lat="33.8103132" lon="-118.3938685">
  <ele>-17.327</ele>
  <time>2026-09-02T22:07:39Z</time>
  <course>185.63</course>
  <speed>0.0282842712474619</speed>
  <fix>3d</fix>
</trkpt>
<trkpt lat="33.8103131" lon="-118.3938684">
  <ele>-16.52</ele>
  <time>2026-09-02T22:07:39Z</time>
  <course>274.99</course>
  <speed>0.01</speed>
  <fix>3d</fix>
</trkpt>
<trkpt lat="33.8103132" lon="-118.3938686">
  <ele>-17.368</ele>
  <time>2026-09-02T22:07:39Z</time>
  <course>185.63</course>
  <speed>0.0282842712474619</speed>
  <fix>3d</fix>
</trkpt>
<trkpt lat="33.8103132" lon="-118.3938686">
  <ele>-17.452</ele>
  <time>2026-09-02T22:07:39Z</time>
  <course>185.64</course>
  <speed>0.0282842712474619</speed>
  <fix>3d</fix>
</trkpt>
<trkpt lat="33.8103131" lon="-118.3938684">
  <ele>-16.76</ele>
  <time>2026-09-02T22:07:39Z</time>
  <course>274.99</course>
  <speed>0.01</speed>
  <fix>3d</fix>
</trkpt>
<trkpt lat="33.8103132" lon="-118.3938686">
  <ele>-17.501</ele>
  <time>2026-09-02T22:07:39Z</time>
  <course>185.64</course>
  <speed>0.0282842712474619</speed>
  <fix>3d</fix>
</trkpt>
<trkpt lat="33.8103132" lon="-118.3938686">
  <ele>-17.576</ele>
  <time>2026-09-02T22:07:39Z</time>
  <course>185.64</course>
  <speed>0.0282842712474619</speed>
  <fix>3d</fix>
</trkpt>
<trkpt lat="33.8103131" lon="-118.3938684">
  <ele>-16.76</ele>
  <time>2026-09-02T22:07:39Z</time>
  <course>274.99</course>
  <speed>0.01</speed>
  <fix>3d</fix>
</trkpt>
<trkpt lat="33.8103132" lon="-118.3938686">
  <ele>-17.611</ele>
  <time>2026-09-02T22:07:39Z</time>
  <course>185.64</course>
  <speed>0.0282842712474619</speed>
  <fix>3d</fix>
</trkpt>
<trkpt lat="33.8103132" lon="-118.3938686">
  <ele>-17.702</ele>
  <time>2026-09-02T22:07:39Z</time>
  <course>185.65</course>
  <speed>0.0282842712474619</speed>
  <fix>3d</fix>
</trkpt>
<trkpt lat="33.8103131" lon="-118.3938685">
  <ele>-17.0</ele>
  <time>2026-09-02T22:07:39Z</time>
  <course>274.99</course>
  <speed>0.01</speed>
  <fix>3d</fix>
</trkpt>
<trkpt lat="33.8103132" lon="-118.3938686">
  <ele>-17.746</ele>
  <time>2026-09-02T22:07:39Z</time>
  <course>185.65</course>
  <speed>0.0282842712474619</speed>
  <fix>3d</fix>
</trkpt>
<trkpt lat="33.8103132" lon="-118.3938686">
  <ele>-17.826</ele>
  <time>2026-09-02T22:07:39Z</time>
  <course>185.65</course>
  <speed>0.0282842712474619</speed>
  <fix>3d</fix>
</trkpt>
<trkpt lat="33.8103131" lon="-118.3938685">
  <ele>-17.0</ele>
  <time>2026-09-02T22:07:39Z</time>
  <course>274.99</course>
  <speed>0.01</speed>
  <fix>3d</fix>
</trkpt>
<trkpt lat="33.8103132" lon="-118.3938686">
  <ele>-17.833</ele>
  <time>2026-09-02T22:07:39Z</time>
  <course>185.65</course>
  <speed>0.0282842712474619</speed>
  <fix>3d</fix>
</trkpt>
<trkpt lat="33.8103132" lon="-118.3938686">
  <ele>-17.951</ele>
  <time>2026-09-02T22:07:39Z</time>
  <course>185.65</course>
  <speed>0.0282842712474619</speed>
  <fix>3d</fix>
</trkpt>
<trkpt lat="33.8103131" lon="-118.3938685">
  <ele>-17.25</ele>
  <time>2026-09-02T22:07:39Z</time>
  <course>274.99</course>
  <speed>0.01</speed>
  <fix>3d</fix>
</trkpt>
<trkpt lat="33.8103132" lon="-118.3938686">
  <ele>-17.998</ele>
  <time>2026-09-02T22:07:39Z</time>
  <course>185.66</course>
  <speed>0.0282842712474619</speed>
  <fix>3d</fix>
</trkpt>
<trkpt lat="33.8103133" lon="-118.3938686">
  <ele>-18.077</ele>
  <time>2026-09-02T22:07:39Z</time>
  <course>185.66</course>
  <speed>0.0282842712474619</speed>
  <fix>3d</fix>
</trkpt>
<trkpt lat="33.8103131" lon="-118.3938685">
  <ele>-17.25</ele>
  <time>2026-09-02T22:07:39Z</time>
  <course>274.99</course>
  <speed>0.01</speed>
  <fix>3d</fix>
</trkpt>
<trkpt lat="33.8103133" lon="-118.3938686">
  <ele>-18.115</ele>
  <time>2026-09-02T22:07:39Z</time>
  <course>185.66</course>
  <speed>0.0282842712474619</speed>
  <fix>3d</fix>
</trkpt>
<trkpt lat="33.8103133" lon="-118.3938686">
  <ele>-18.203</ele>
  <time>2026-09-02T22:07:39Z</time>
  <course>185.66</course>
  <speed>0.0282842712474619</speed>
  <fix>3d</fix>
</trkpt>
<trkpt lat="33.8103131" lon="-118.3938685">
  <ele>-17.49</ele>
  <time>2026-09-02T22:07:39Z</time>
  <course>274.99</course>
  <speed>0.01</speed>
  <fix>3d</fix>
</trkpt>
<trkpt lat="33.8103133" lon="-118.3938686">
  <ele>-18.247</ele>
  <time>2026-09-02T22:07:39Z</time>
  <course>185.67</course>
  <speed>0.0282842712474619</speed>
  <fix>3d</fix>
</trkpt>
<trkpt lat="33.8103133" lon="-118.3938687">
  <ele>-18.329</ele>
  <time>2026-09-02T22:07:39Z</time>
  <course>185.67</course>
  <speed>0.0282842712474619</speed>
  <fix>3d</fix>
</trkpt>
<trkpt lat="33.8103131" lon="-118.3938685">
  <ele>-17.49</ele>
  <time>2026-09-02T22:07:39Z</time>
  <course>274.99</course>
  <speed>0.01</speed>
  <fix>3d</fix>
</trkpt>
<trkpt lat="33.8103133" lon="-118.3938687">
  <ele>-18.367</ele>
  <time>2026-09-02T22:07:39Z</time>
  <course>185.67</course>
  <speed>0.0282842712474619</speed>
  <fix>3d</fix>
</trkpt>
<trkpt lat="33.8103133" lon="-118.3938687">
  <ele>-18.456</ele>
  <time>2026-09-02T22:07:39Z</time>
  <course>185.67</course>
  <speed>0.0282842712474619</speed>
  <fix>3d</fix>
</trkpt>
<trkpt lat="33.8103131" lon="-118.3938685">
  <ele>-17.74</ele>
  <time>2026-09-02T22:07:39Z</time>
  <course>274.99</course>
  <speed>0.01</speed>
  <fix>3d</fix>
</trkpt>
<trkpt lat="33.8103133" lon="-118.3938687">
  <ele>-18.493</ele>
  <time>2026-09-02T22:07:39Z</time>
  <course>185.67</course>
  <speed>0.0282842712474619</speed>
  <fix>3d</fix>
</trkpt>
<trkpt lat="33.8103133" lon="-118.3938687">
  <ele>-18.582</ele>
  <time>2026-09-02T22:07:39Z</time>
  <course>185.68</course>
  <speed>0.0282842712474619</speed>
  <fix>3d</fix>
</trkpt>
<trkpt lat="33.8103131" lon="-118.3938685">
  <ele>-17.74</ele>
  <time>2026-09-02T22:07:39Z</time>
  <course>274.99</course>
  <speed>0.01</speed>
  <fix>3d</fix>
</trkpt>
<trkpt lat="33.8103133" lon="-118.3938687">
  <ele>-18.632</ele>
  <time>2026-09-02T22:07:39Z</time>
  <course>185.68</course>
  <speed>0.0282842712474619</speed>
  <fix>3d</fix>
</trkpt>
<trkpt lat="33.8103133" lon="-118.3938687">
  <ele>-18.707</ele>
  <time>2026-09-02T22:07:39Z</time>
  <course>185.68</course>
  <speed>0.0282842712474619</speed>
  <fix>3d</fix>
</trkpt>
<trkpt lat="33.8103131" lon="-118.3938686">
  <ele>-17.98</ele>
  <time>2026-09-02T22:07:39Z</time>
  <course>274.99</course>
  <speed>0.01</speed>
  <fix>3d</fix>
</trkpt>
<trkpt lat="33.8103133" lon="-118.3938687">
  <ele>-18.745</ele>
  <time>2026-09-02T22:07:39Z</time>
  <course>185.68</course>
  <speed>0.0282842712474619</speed>
  <fix>3d</fix>
</trkpt>
<trkpt lat="33.8103133" lon="-118.3938687">
  <ele>-18.833</ele>
  <time>2026-09-02T22:07:39Z</time>
  <course>185.69</course>
  <speed>0.0282842712474619</speed>
  <fix>3d</fix>
</trkpt>
<trkpt lat="33.8103131" lon="-118.3938686">
  <ele>-17.98</ele>
  <time>2026-09-02T22:07:39Z</time>
  <course>274.99</course>
  <speed>0.01</speed>
  <fix>3d</fix>
</trkpt>
<trkpt lat="33.8103133" lon="-118.3938687">
  <ele>-18.873</ele>
  <time>2026-09-02T22:07:39Z</time>
  <course>185.69</course>
  <speed>0.0282842712474619</speed>
  <fix>3d</fix>
</trkpt>
<trkpt lat="33.8103133" lon="-118.3938687">
  <ele>-18.96</ele>
  <time>2026-09-02T22:07:39Z</time>
  <course>185.69</course>
  <speed>0.0282842712474619</speed>
  <fix>3d</fix>
</trkpt>
<trkpt lat="33.8103131" lon="-118.3938686">
  <ele>-18.22</ele>
  <time>2026-09-02T22:07:39Z</time>
  <course>274.99</course>
  <speed>0.01</speed>
  <fix>3d</fix>
</trkpt>
<trkpt lat="33.8103133" lon="-118.3938687">
  <ele>-19.004</ele>
  <time>2026-09-02T22:07:39Z</time>
  <course>185.69</course>
  <speed>0.0282842712474619</speed>
  <fix>3d</fix>
</trkpt>
<trkpt lat="33.8103133" lon="-118.3938687">
  <ele>-19.085</ele>
  <time>2026-09-02T22:07:39Z</time>
  <course>185.69</course>
  <speed>0.0282842712474619</speed>
  <fix>3d</fix>
</trkpt>
<trkpt lat="33.8103131" lon="-118.3938686">
  <ele>-18.22</ele>
  <time>2026-09-02T22:07:39Z</time>
  <course>274.99</course>
  <speed>0.01</speed>
  <fix>3d</fix>
</trkpt>
<trkpt lat="33.8103133" lon="-118.3938687">
  <ele>-19.21</ele>
  <time>2026-09-02T22:07:39Z</time>
  <course>185.7</course>
  <speed>0.0282842712474619</speed>
  <fix>3d</fix>
</trkpt>
<trkpt lat="33.8103131" lon="-118.3938686">
  <ele>-18.47</ele>
  <time>2026-09-02T22:07:39Z</time>
  <course>274.99</course>
  <speed>0.01</speed>
  <fix>3d</fix>
</trkpt>
<trkpt lat="33.8103133" lon="-118.3938688">
  <ele>-19.335</ele>
  <time>2026-09-02T22:07:39Z</time>
  <course>185.7</course>
  <speed>0.0282842712474619</speed>
  <fix>3d</fix>
</trkpt>
<trkpt lat="33.8103131" lon="-118.3938686">
  <ele>-18.47</ele>
  <time>2026-09-02T22:07:39Z</time>
  <course>274.99</course>
  <speed>0.01</speed>
  <fix>3d</fix>
</trkpt>
<trkpt lat="33.8103133" lon="-118.3938688">
  <ele>-19.458</ele>
  <time>2026-09-02T22:07:39Z</time>
  <course>185.71</course>
  <speed>0.0282842712474619</speed>
  <fix>3d</fix>
</trkpt>
<trkpt lat="33.8103131" lon="-118.3938686">
  <ele>-18.71</ele>
  <time>2026-09-02T22:07:39Z</time>
  <course>274.99</course>
  <speed>0.01</speed>
  <fix>3d</fix>
</trkpt>
<trkpt lat="33.8103133" lon="-118.3938688">
  <ele>-19.575</ele>
  <time>2026-09-02T22:07:39Z</time>
  <course>185.71</course>
  <speed>0.0282842712474619</speed>
  <fix>3d</fix>
</trkpt>
<trkpt lat="33.8103131" lon="-118.3938686">
  <ele>-18.71</ele>
  <time>2026-09-02T22:07:39Z</time>
  <course>274.99</course>
  <speed>0.01</speed>
  <fix>3d</fix>
</trkpt>
<trkpt lat="33.8103133" lon="-118.3938688">
  <ele>-19.683</ele>
  <time>2026-09-02T22:07:39Z</time>
  <course>185.71</course>
  <speed>0.0282842712474619</speed>
  <fix>3d</fix>
</trkpt>
<trkpt lat="33.8103131" lon="-118.3938687">
  <ele>-18.94</ele>
  <time>2026-09-02T22:07:39Z</time>
  <course>274.99</course>
  <speed>0.01</speed>
  <fix>3d</fix>
</trkpt>
<trkpt lat="33.8103133" lon="-118.3938688">
  <ele>-19.777</ele>
  <time>2026-09-02T22:07:39Z</time>
  <course>185.72</course>
  <speed>0.03605551275463989</speed>
  <fix>3d</fix>
</trkpt>
<trkpt lat="33.8103131" lon="-118.3938687">
  <ele>-18.94</ele>
  <time>2026-09-02T22:07:39Z</time>
  <course>274.99</course>
  <speed>0.01</speed>
  <fix>3d</fix>
</trkpt>
<trkpt lat="33.8103133" lon="-118.3938688">
  <ele>-19.854</ele>
  <time>2026-09-02T22:07:39Z</time>
  <course>185.73</course>
  <speed>0.03605551275463989</speed>
  <fix>3d</fix>
</trkpt>
<trkpt lat="33.8103131" lon="-118.3938687">
  <ele>-19.15</ele>
  <time>2026-09-02T22:07:39Z</time>
  <course>274.99</course>
  <speed>0.01</speed>
  <fix>3d</fix>
</trkpt>
<trkpt lat="33.8103133" lon="-118.3938688">
  <ele>-19.914</ele>
  <time>2026-09-02T22:07:39Z</time>
  <course>185.74</course>
  <speed>0.03605551275463989</speed>
  <fix>3d</fix>
</trkpt>
<trkpt lat="33.8103131" lon="-118.3938687">
  <ele>-19.15</ele>
  <time>2026-09-02T22:07:39Z</time>
  <course>274.99</course>
  <speed>0.01</speed>
  <fix>3d</fix>
</trkpt>
<trkpt lat="33.8103133" lon="-118.3938688">
  <ele>-19.959</ele>
  <time>2026-09-02T22:07:39Z</time>
  <course>185.75</course>
  <speed>0.03605551275463989</speed>
  <fix>3d</fix>
</trkpt>
<trkpt lat="33.8103131" lon="-118.3938687">
  <ele>-19.31</ele>
  <time>2026-09-02T22:07:39Z</time>
  <course>274.99</course>
  <speed>0.01</speed>
  <fix>3d</fix>
</trkpt>
<trkpt lat="33.8103133" lon="-118.3938689">
  <ele>-19.993</ele>
  <time>2026-09-02T22:07:39Z</time>
  <course>185.75</course>
  <speed>0.03605551275463989</speed>
  <fix>3d</fix>
</trkpt>
<trkpt lat="33.8103131" lon="-118.3938687">
  <ele>-19.31</ele>
  <time>2026-09-02T22:07:39Z</time>
  <course>274.99</course>
  <speed>0.01</speed>
  <fix>3d</fix>
</trkpt>
<trkpt lat="33.8103133" lon="-118.3938689">
  <ele>-20.018</ele>
  <time>2026-09-02T22:07:39Z</time>
  <course>185.76</course>
  <speed>0.03605551275463989</speed>
  <fix>3d</fix>
</trkpt>
<trkpt lat="33.8103131" lon="-118.3938687">
  <ele>-19.41</ele>
  <time>2026-09-02T22:07:39Z</time>
  <course>274.99</course>
  <speed>0.0</speed>
  <fix>3d</fix>
</trkpt>
<trkpt lat="33.8103133" lon="-118.3938689">
  <ele>-20.036</ele>
  <time>2026-09-02T22:07:39Z</time>
  <course>185.77</course>
  <speed>0.03605551275463989</speed>
  <fix>3d</fix>
</trkpt>
<trkpt lat="33.8103131" lon="-118.3938687">
  <ele>-19.41</ele>
  <time>2026-09-02T22:07:39Z</time>
  <course>274.99</course>
  <speed>0.0</speed>
  <fix>3d</fix>
</trkpt>
<trkpt lat="33.8103133" lon="-118.3938689">
  <ele>-20.047</ele>
  <time>2026-09-02T22:07:39Z</time>
  <course>185.78</course>
  <speed>0.03605551275463989</speed>
  <fix>3d</fix>
</trkpt>
<trkpt lat="33.8103131" lon="-118.3938688">
  <ele>-19.48</ele>
  <time>2026-09-02T22:07:39Z</time>
  <course>274.99</course>
  <speed>0.0</speed>
  <fix>3d</fix>
</trkpt>
<trkpt lat="33.8103133" lon="-118.3938689">
  <ele>-20.051</ele>
  <time>2026-09-02T22:07:39Z</time>
  <course>185.79</course>
  <speed>0.03605551275463989</speed>
  <fix>3d</fix>
</trkpt>
<trkpt lat="33.8103131" lon="-118.3938688">
  <ele>-19.48</ele>
  <time>2026-09-02T22:07:39Z</time>
  <course>274.99</course>
  <speed>0.0</speed>
  <fix>3d</fix>
</trkpt>
<trkpt lat="33.8103133" lon="-118.3938689">
  <ele>-20.051</ele>
  <time>2026-09-02T22:07:39Z</time>
  <course>185.8</course>
  <speed>0.03605551275463989</speed>
  <fix>3d</fix>
</trkpt>
<trkpt lat="33.8103131" lon="-118.3938688">
  <ele>-19.51</ele>
  <time>2026-09-02T22:07:39Z</time>
  <course>274.99</course>
  <speed>0.0</speed>
  <fix>3d</fix>
</trkpt>
<trkpt lat="33.8103133" lon="-118.3938689">
  <ele>-20.049</ele>
  <time>2026-09-02T22:07:39Z</time>
  <course>185.81</course>
  <speed>0.03605551275463989</speed>
  <fix>3d</fix>
</trkpt>
<trkpt lat="33.8103131" lon="-118.3938688">
  <ele>-19.51</ele>
  <time>2026-09-02T22:07:39Z</time>
  <course>274.99</course>
  <speed>0.0</speed>
  <fix>3d</fix>
</trkpt>
<trkpt lat="33.8103133" lon="-118.3938689">
  <ele>-20.046</ele>
  <time>2026-09-02T22:07:39Z</time>
  <course>185.82</course>
  <speed>0.03605551275463989</speed>
  <fix>3d</fix>
</trkpt>
<trkpt lat="33.8103131" lon="-118.3938688">
  <ele>-19.52</ele>
  <time>2026-09-02T22:07:39Z</time>
  <course>274.99</course>
  <speed>0.0</speed>
  <fix>3d</fix>
</trkpt>
<trkpt lat="33.8103133" lon="-118.3938689">
  <ele>-20.043</ele>
  <time>2026-09-02T22:07:39Z</time>
  <course>185.83</course>
  <speed>0.03605551275463989</speed>
  <fix>3d</fix>
</trkpt>
<trkpt lat="33.8103131" lon="-118.3938688">
  <ele>-19.52</ele>
  <time>2026-09-02T22:07:39Z</time>
  <course>274.99</course>
  <speed>0.0</speed>
  <fix>3d</fix>
</trkpt>
<trkpt lat="33.8103133" lon="-118.3938689">
  <ele>-20.04</ele>
  <time>2026-09-02T22:07:39Z</time>
  <course>185.84</course>
  <speed>0.0282842712474619</speed>
  <fix>3d</fix>
</trkpt>
<trkpt lat="33.8103131" lon="-118.3938688">
  <ele>-19.53</ele>
  <time>2026-09-02T22:07:39Z</time>
  <course>274.99</course>
  <speed>0.0</speed>
  <fix>3d</fix>
</trkpt>
<trkpt lat="33.8103133" lon="-118.393869">
  <ele>-20.036</ele>
  <time>2026-09-02T22:07:39Z</time>
  <course>185.85</course>
  <speed>0.0282842712474619</speed>
  <fix>3d</fix>
</trkpt>
<trkpt lat="33.8103131" lon="-118.3938688">
  <ele>-19.53</ele>
  <time>2026-09-02T22:07:39Z</time>
  <course>274.99</course>
  <speed>0.0</speed>
  <fix>3d</fix>
</trkpt>
<trkpt lat="33.8103133" lon="-118.393869">
  <ele>-20.034</ele>
  <time>2026-09-02T22:07:39Z</time>
  <course>185.86</course>
  <speed>0.0282842712474619</speed>
  <fix>3d</fix>
</trkpt>
<trkpt lat="33.8103131" lon="-118.3938688">
  <ele>-19.53</ele>
  <time>2026-09-02T22:07:39Z</time>
  <course>274.99</course>
  <speed>0.0</speed>
  <fix>3d</fix>
</trkpt>
<trkpt lat="33.8103133" lon="-118.393869">
  <ele>-20.034</ele>
  <time>2026-09-02T22:07:39Z</time>
  <course>185.87</course>
  <speed>0.0282842712474619</speed>
  <fix>3d</fix>
</trkpt>
<trkpt lat="33.8103131" lon="-118.3938688">
  <ele>-19.53</ele>
  <time>2026-09-02T22:07:39Z</time>
  <course>274.99</course>
  <speed>0.0</speed>
  <fix>3d</fix>
</trkpt>
<trkpt lat="33.8103133" lon="-118.393869">
  <ele>-20.035</ele>
  <time>2026-09-02T22:07:39Z</time>
  <course>185.88</course>
  <speed>0.0282842712474619</speed>
  <fix>3d</fix>
</trkpt>
<trkpt lat="33.8103131" lon="-118.3938688">
  <ele>-19.53</ele>
  <time>2026-09-02T22:07:39Z</time>
  <course>274.99</course>
  <speed>0.0</speed>
  <fix>3d</fix>
</trkpt>
<trkpt lat="33.8103133" lon="-118.393869">
  <ele>-20.036</ele>
  <time>2026-09-02T22:07:39Z</time>
  <course>185.89</course>
  <speed>0.0282842712474619</speed>
  <fix>3d</fix>
</trkpt>
<trkpt lat="33.8103131" lon="-118.3938688">
  <ele>-19.53</ele>
  <time>2026-09-02T22:07:39Z</time>
  <course>274.99</course>
  <speed>0.0</speed>
  <fix>3d</fix>
</trkpt>
<trkpt lat="33.8103133" lon="-118.393869">
  <ele>-20.038</ele>
  <time>2026-09-02T22:07:39Z</time>
  <course>185.9</course>
  <speed>0.0282842712474619</speed>
  <fix>3d</fix>
</trkpt>
<trkpt lat="33.8103131" lon="-118.3938689">
  <ele>-19.54</ele>
  <time>2026-09-02T22:07:39Z</time>
  <course>274.99</course>
  <speed>0.0</speed>
  <fix>3d</fix>
</trkpt>
<trkpt lat="33.8103133" lon="-118.393869">
  <ele>-20.04</ele>
  <time>2026-09-02T22:07:39Z</time>
  <course>185.9</course>
  <speed>0.0282842712474619</speed>
  <fix>3d</fix>
</trkpt>
<trkpt lat="33.8103131" lon="-118.3938689">
  <ele>-19.54</ele>
  <time>2026-09-02T22:07:39Z</time>
  <course>274.99</course>
  <speed>0.0</speed>
  <fix>3d</fix>
</trkpt>
<trkpt lat="33.8103133" lon="-118.393869">
  <ele>-20.041</ele>
  <time>2026-09-02T22:07:39Z</time>
  <course>185.91</course>
  <speed>0.0282842712474619</speed>
  <fix>3d</fix>
</trkpt>
<trkpt lat="33.8103131" lon="-118.3938689">
  <ele>-19.55</ele>
  <time>2026-09-02T22:07:39Z</time>
  <course>274.99</course>
  <speed>0.0</speed>
  <fix>3d</fix>
</trkpt>
<trkpt lat="33.8103133" lon="-118.393869">
  <ele>-20.043</ele>
  <time>2026-09-02T22:07:39Z</time>
  <course>185.92</course>
  <speed>0.0282842712474619</speed>
  <fix>3d</fix>
</trkpt>
<trkpt lat="33.8103131" lon="-118.3938689">
  <ele>-19.55</ele>
  <time>2026-09-02T22:07:39Z</time>
  <course>274.99</course>
  <speed>0.0</speed>
  <fix>3d</fix>
</trkpt>
<trkpt lat="33.8103133" lon="-118.393869">
  <ele>-20.045</ele>
  <time>2026-09-02T22:07:39Z</time>
  <course>185.93</course>
  <speed>0.0282842712474619</speed>
  <fix>3d</fix>
</trkpt>
<trkpt lat="33.8103131" lon="-118.3938689">
  <ele>-19.56</ele>
  <time>2026-09-02T22:07:39Z</time>
  <course>274.99</course>
  <speed>0.0</speed>
  <fix>3d</fix>
</trkpt>
<trkpt lat="33.8103133" lon="-118.393869">
  <ele>-20.049</ele>
  <time>2026-09-02T22:07:39Z</time>
  <course>185.94</course>
  <speed>0.0282842712474619</speed>
  <fix>3d</fix>
</trkpt>
<trkpt lat="33.8103131" lon="-118.3938689">
  <ele>-19.56</ele>
  <time>2026-09-02T22:07:39Z</time>
  <course>274.99</course>
  <speed>0.0</speed>
  <fix>3d</fix>
</trkpt>
<trkpt lat="33.8103133" lon="-118.393869">
  <ele>-20.054</ele>
  <time>2026-09-02T22:07:39Z</time>
  <course>185.95</course>
  <speed>0.0282842712474619</speed>
  <fix>3d</fix>
</trkpt>
<trkpt lat="33.8103131" lon="-118.3938689">
  <ele>-19.57</ele>
  <time>2026-09-02T22:07:39Z</time>
  <course>274.99</course>
  <speed>0.0</speed>
  <fix>3d</fix>
</trkpt>
<trkpt lat="33.8103133" lon="-118.393869">
  <ele>-20.057</ele>
  <time>2026-09-02T22:07:39Z</time>
  <course>185.96</course>
  <speed>0.0282842712474619</speed>
  <fix>3d</fix>
</trkpt>
<trkpt lat="33.8103131" lon="-118.3938689">
  <ele>-19.57</ele>
  <time>2026-09-02T22:07:39Z</time>
  <course>274.99</course>
  <speed>0.0</speed>
  <fix>3d</fix>
</trkpt>
<trkpt lat="33.8103133" lon="-118.393869">
  <ele>-20.059</ele>
  <time>2026-09-02T22:07:39Z</time>
  <course>185.97</course>
  <speed>0.0282842712474619</speed>
  <fix>3d</fix>
</trkpt>
<trkpt lat="33.8103131" lon="-118.3938689">
  <ele>-19.58</ele>
  <time>2026-09-02T22:07:39Z</time>
  <course>274.99</course>
  <speed>0.0</speed>
  <fix>3d</fix>
</trkpt>
<trkpt lat="33.8103133" lon="-118.393869">
  <ele>-20.06</ele>
  <time>2026-09-02T22:07:39Z</time>
  <course>185.98</course>
  <speed>0.0282842712474619</speed>
  <fix>3d</fix>
</trkpt>
<trkpt lat="33.8103131" lon="-118.3938689">
  <ele>-19.58</ele>
  <time>2026-09-02T22:07:39Z</time>
  <course>274.99</course>
  <speed>0.0</speed>
  <fix>3d</fix>
</trkpt>
<trkpt lat="33.8103133" lon="-118.3938691">
  <ele>-20.061</ele>
  <time>2026-09-02T22:07:39Z</time>
  <course>185.98</course>
  <speed>0.0282842712474619</speed>
  <fix>3d</fix>
</trkpt>
<trkpt lat="33.8103131" lon="-118.393869">
  <ele>-19.59</ele>
  <time>2026-09-02T22:07:39Z</time>
  <course>274.99</course>
  <speed>0.0</speed>
  <fix>3d</fix>
</trkpt>
<trkpt lat="33.8103133" lon="-118.3938691">
  <ele>-20.062</ele>
  <time>2026-09-02T22:07:39Z</time>
  <course>185.99</course>
  <speed>0.0282842712474619</speed>
  <fix>3d</fix>
</trkpt>
<trkpt lat="33.8103131" lon="-118.393869">
  <ele>-19.59</ele>
  <time>2026-09-02T22:07:39Z</time>
  <course>274.99</course>
  <speed>0.0</speed>
  <fix>3d</fix>
</trkpt>
<trkpt lat="33.8103133" lon="-118.3938691">
  <ele>-20.061</ele>
  <time>2026-09-02T22:07:39Z</time>
  <course>186.0</course>
  <speed>0.0282842712474619</speed>
  <fix>3d</fix>
</trkpt>
<trkpt lat="33.8103131" lon="-118.393869">
  <ele>-19.59</ele>
  <time>2026-09-02T22:07:39Z</time>
  <course>274.98</course>
  <speed>0.0</speed>
  <fix>3d</fix>
</trkpt>
<trkpt lat="33.8103133" lon="-118.3938691">
  <ele>-20.059</ele>
  <time>2026-09-02T22:07:39Z</time>
  <course>186.01</course>
  <speed>0.0282842712474619</speed>
  <fix>3d</fix>
</trkpt>
<trkpt lat="33.8103131" lon="-118.393869">
  <ele>-19.59</ele>
  <time>2026-09-02T22:07:39Z</time>
  <course>274.98</course>
  <speed>0.0</speed>
  <fix>3d</fix>
</trkpt>
<trkpt lat="33.8103133" lon="-118.3938691">
  <ele>-20.056</ele>
  <time>2026-09-02T22:07:39Z</time>
  <course>186.02</course>
  <speed>0.0282842712474619</speed>
  <fix>3d</fix>
</trkpt>
<trkpt lat="33.8103131" lon="-118.393869">
  <ele>-19.59</ele>
  <time>2026-09-02T22:07:39Z</time>
  <course>274.98</course>
  <speed>0.0</speed>
  <fix>3d</fix>
</trkpt>
<trkpt lat="33.8103133" lon="-118.3938691">
  <ele>-20.053</ele>
  <time>2026-09-02T22:07:39Z</time>
  <course>186.02</course>
  <speed>0.0282842712474619</speed>
  <fix>3d</fix>
</trkpt>
<trkpt lat="33.8103131" lon="-118.393869">
  <ele>-19.59</ele>
  <time>2026-09-02T22:07:39Z</time>
  <course>274.98</course>
  <speed>0.0</speed>
  <fix>3d</fix>
</trkpt>
<trkpt lat="33.8103133" lon="-118.3938691">
  <ele>-20.05</ele>
  <time>2026-09-02T22:07:39Z</time>
  <course>186.03</course>
  <speed>0.0282842712474619</speed>
  <fix>3d</fix>
</trkpt>
<trkpt lat="33.8103131" lon="-118.393869">
  <ele>-19.58</ele>
  <time>2026-09-02T22:07:39Z</time>
  <course>274.98</course>
  <speed>0.0</speed>
  <fix>3d</fix>
</trkpt>
<trkpt lat="33.8103133" lon="-118.3938691">
  <ele>-20.048</ele>
  <time>2026-09-02T22:07:39Z</time>
  <course>186.04</course>
  <speed>0.0282842712474619</speed>
  <fix>3d</fix>
</trkpt>
<trkpt lat="33.8103131" lon="-118.393869">
  <ele>-19.58</ele>
  <time>2026-09-02T22:07:39Z</time>
  <course>274.98</course>
  <speed>0.0</speed>
  <fix>3d</fix>
</trkpt>
<trkpt lat="33.8103133" lon="-118.3938691">
  <ele>-20.047</ele>
  <time>2026-09-02T22:07:39Z</time>
  <course>186.05</course>
  <speed>0.0282842712474619</speed>
  <fix>3d</fix>
</trkpt>
<trkpt lat="33.8103131" lon="-118.393869">
  <ele>-19.57</ele>
  <time>2026-09-02T22:07:39Z</time>
  <course>274.98</course>
  <speed>0.0</speed>
  <fix>3d</fix>
</trkpt>
<trkpt lat="33.8103133" lon="-118.3938691">
  <ele>-20.046</ele>
  <time>2026-09-02T22:07:39Z</time>
  <course>186.06</course>
  <speed>0.0282842712474619</speed>
  <fix>3d</fix>
</trkpt>
<trkpt lat="33.8103131" lon="-118.393869">
  <ele>-19.57</ele>
  <time>2026-09-02T22:07:39Z</time>
  <course>274.98</course>
  <speed>0.0</speed>
  <fix>3d</fix>
</trkpt>
<trkpt lat="33.8103133" lon="-118.3938691">
  <ele>-20.047</ele>
  <time>2026-09-02T22:07:39Z</time>
  <course>186.07</course>
  <speed>0.0282842712474619</speed>
  <fix>3d</fix>
</trkpt>
<trkpt lat="33.8103131" lon="-118.393869">
  <ele>-19.57</ele>
  <time>2026-09-02T22:07:39Z</time>
  <course>274.98</course>
  <speed>0.0</speed>
  <fix>3d</fix>
</trkpt>
<trkpt lat="33.8103133" lon="-118.3938691">
  <ele>-20.047</ele>
  <time>2026-09-02T22:07:39Z</time>
  <course>186.07</course>
  <speed>0.0282842712474619</speed>
  <fix>3d</fix>
</trkpt>
<trkpt lat="33.8103131" lon="-118.393869">
  <ele>-19.57</ele>
  <time>2026-09-02T22:07:39Z</time>
  <course>274.98</course>
  <speed>0.0</speed>
  <fix>3d</fix>
</trkpt>
<trkpt lat="33.8103133" lon="-118.3938691">
  <ele>-20.047</ele>
  <time>2026-09-02T22:07:40Z</time>
  <course>186.08</course>
  <speed>0.0282842712474619</speed>
  <fix>3d</fix>
</trkpt>
<trkpt lat="33.8103131" lon="-118.393869">
  <ele>-19.57</ele>
  <time>2026-09-02T22:07:40Z</time>
  <course>274.98</course>
  <speed>0.0</speed>
  <fix>3d</fix>
</trkpt>
<trkpt lat="33.8103133" lon="-118.3938691">
  <ele>-20.048</ele>
  <time>2026-09-02T22:07:40Z</time>
  <course>186.09</course>
  <speed>0.0282842712474619</speed>
  <fix>3d</fix>
</trkpt>
<trkpt lat="33.8103131" lon="-118.393869">
  <ele>-19.57</ele>
  <time>2026-09-02T22:07:40Z</time>
  <course>274.98</course>
  <speed>0.0</speed>
  <fix>3d</fix>
</trkpt>
<trkpt lat="33.8103133" lon="-118.3938692">
  <ele>-20.048</ele>
  <time>2026-09-02T22:07:40Z</time>
  <course>186.1</course>
  <speed>0.0282842712474619</speed>
  <fix>3d</fix>
</trkpt>
<trkpt lat="33.8103131" lon="-118.3938691">
  <ele>-19.57</ele>
  <time>2026-09-02T22:07:40Z</time>
  <course>274.98</course>
  <speed>0.0</speed>
  <fix>3d</fix>
</trkpt>
<trkpt lat="33.8103133" lon="-118.3938692">
  <ele>-20.048</ele>
  <time>2026-09-02T22:07:40Z</time>
  <course>186.11</course>
  <speed>0.0282842712474619</speed>
  <fix>3d</fix>
</trkpt>
<trkpt lat="33.8103131" lon="-118.3938691">
  <ele>-19.57</ele>
  <time>2026-09-02T22:07:40Z</time>
  <course>274.98</course>
  <speed>0.0</speed>
  <fix>3d</fix>
</trkpt>
<trkpt lat="33.8103133" lon="-118.3938692">
  <ele>-20.047</ele>
  <time>2026-09-02T22:07:40Z</time>
  <course>186.11</course>
  <speed>0.0282842712474619</speed>
  <fix>3d</fix>
</trkpt>
<trkpt lat="33.8103131" lon="-118.3938691">
  <ele>-19.57</ele>
  <time>2026-09-02T22:07:40Z</time>
  <course>274.98</course>
  <speed>0.0</speed>
  <fix>3d</fix>
</trkpt>
<trkpt lat="33.8103133" lon="-118.3938692">
  <ele>-20.047</ele>
  <time>2026-09-02T22:07:40Z</time>
  <course>186.12</course>
  <speed>0.0282842712474619</speed>
  <fix>3d</fix>
</trkpt>
<trkpt lat="33.8103131" lon="-118.3938691">
  <ele>-19.57</ele>
  <time>2026-09-02T22:07:40Z</time>
  <course>274.98</course>
  <speed>0.0</speed>
  <fix>3d</fix>
</trkpt>
<trkpt lat="33.8103133" lon="-118.3938692">
  <ele>-20.048</ele>
  <time>2026-09-02T22:07:40Z</time>
  <course>186.13</course>
  <speed>0.0282842712474619</speed>
  <fix>3d</fix>
</trkpt>
<trkpt lat="33.8103131" lon="-118.3938691">
  <ele>-19.57</ele>
  <time>2026-09-02T22:07:40Z</time>
  <course>274.98</course>
  <speed>0.0</speed>
  <fix>3d</fix>
</trkpt>
<trkpt lat="33.8103133" lon="-118.3938692">
  <ele>-20.05</ele>
  <time>2026-09-02T22:07:40Z</time>
  <course>186.14</course>
  <speed>0.0282842712474619</speed>
  <fix>3d</fix>
</trkpt>
<trkpt lat="33.8103131" lon="-118.3938691">
  <ele>-19.57</ele>
  <time>2026-09-02T22:07:40Z</time>
  <course>274.98</course>
  <speed>0.0</speed>
  <fix>3d</fix>
</trkpt>
<trkpt lat="33.8103133" lon="-118.3938692">
  <ele>-20.054</ele>
  <time>2026-09-02T22:07:40Z</time>
  <course>186.14</course>
  <speed>0.0282842712474619</speed>
  <fix>3d</fix>
</trkpt>
<trkpt lat="33.8103131" lon="-118.3938691">
  <ele>-19.57</ele>
  <time>2026-09-02T22:07:40Z</time>
  <course>274.98</course>
  <speed>0.0</speed>
  <fix>3d</fix>
</trkpt>
<trkpt lat="33.8103133" lon="-118.3938692">
  <ele>-20.056</ele>
  <time>2026-09-02T22:07:40Z</time>
  <course>186.15</course>
  <speed>0.0282842712474619</speed>
  <fix>3d</fix>
</trkpt>
<trkpt lat="33.8103131" lon="-118.3938691">
  <ele>-19.57</ele>
  <time>2026-09-02T22:07:40Z</time>
  <course>274.98</course>
  <speed>0.0</speed>
  <fix>3d</fix>
</trkpt>
<trkpt lat="33.8103133" lon="-118.3938692">
  <ele>-20.057</ele>
  <time>2026-09-02T22:07:40Z</time>
  <course>186.16</course>
  <speed>0.0282842712474619</speed>
  <fix>3d</fix>
</trkpt>
<trkpt lat="33.8103131" lon="-118.3938691">
  <ele>-19.58</ele>
  <time>2026-09-02T22:07:40Z</time>
  <course>274.97</course>
  <speed>0.0</speed>
  <fix>3d</fix>
</trkpt>
<trkpt lat="33.8103133" lon="-118.3938692">
  <ele>-20.057</ele>
  <time>2026-09-02T22:07:40Z</time>
  <course>186.17</course>
  <speed>0.0282842712474619</speed>
  <fix>3d</fix>
</trkpt>
<trkpt lat="33.8103131" lon="-118.3938691">
  <ele>-19.58</ele>
  <time>2026-09-02T22:07:40Z</time>
  <course>274.97</course>
  <speed>0.0</speed>
  <fix>3d</fix>
</trkpt>
<trkpt lat="33.8103133" lon="-118.3938692">
  <ele>-20.056</ele>
  <time>2026-09-02T22:07:40Z</time>
  <course>186.18</course>
  <speed>0.0282842712474619</speed>
  <fix>3d</fix>
</trkpt>
<trkpt lat="33.8103131" lon="-118.3938691">
  <ele>-19.57</ele>
  <time>2026-09-02T22:07:40Z</time>
  <course>274.97</course>
  <speed>0.0</speed>
  <fix>3d</fix>
</trkpt>
<trkpt lat="33.8103133" lon="-118.3938692">
  <ele>-20.053</ele>
  <time>2026-09-02T22:07:40Z</time>
  <course>186.18</course>
  <speed>0.0282842712474619</speed>
  <fix>3d</fix>
</trkpt>
<trkpt lat="33.8103131" lon="-118.3938691">
  <ele>-19.57</ele>
  <time>2026-09-02T22:07:40Z</time>
  <course>274.97</course>
  <speed>0.0</speed>
  <fix>3d</fix>
</trkpt>
<trkpt lat="33.8103133" lon="-118.3938692">
  <ele>-20.051</ele>
  <time>2026-09-02T22:07:40Z</time>
  <course>186.19</course>
  <speed>0.0282842712474619</speed>
  <fix>3d</fix>
</trkpt>
<trkpt lat="33.8103131" lon="-118.3938692">
  <ele>-19.57</ele>
  <time>2026-09-02T22:07:40Z</time>
  <course>274.97</course>
  <speed>0.0</speed>
  <fix>3d</fix>
</trkpt>
<trkpt lat="33.8103133" lon="-118.3938692">
  <ele>-20.049</ele>
  <time>2026-09-02T22:07:40Z</time>
  <course>186.2</course>
  <speed>0.0282842712474619</speed>
  <fix>3d</fix>
</trkpt>
<trkpt lat="33.8103131" lon="-118.3938692">
  <ele>-19.57</ele>
  <time>2026-09-02T22:07:40Z</time>
  <course>274.97</course>
  <speed>0.0</speed>
  <fix>3d</fix>
</trkpt>
<trkpt lat="33.8103133" lon="-118.3938693">
  <ele>-20.046</ele>
  <time>2026-09-02T22:07:40Z</time>
  <course>186.2</course>
  <speed>0.0282842712474619</speed>
  <fix>3d</fix>
</trkpt>
<trkpt lat="33.8103131" lon="-118.3938692">
  <ele>-19.56</ele>
  <time>2026-09-02T22:07:40Z</time>
  <course>274.97</course>
  <speed>0.0</speed>
  <fix>3d</fix>
</trkpt>
<trkpt lat="33.8103133" lon="-118.3938693">
  <ele>-20.045</ele>
  <time>2026-09-02T22:07:40Z</time>
  <course>186.21</course>
  <speed>0.0282842712474619</speed>
  <fix>3d</fix>
</trkpt>
<trkpt lat="33.8103131" lon="-118.3938692">
  <ele>-19.56</ele>
  <time>2026-09-02T22:07:40Z</time>
  <course>274.97</course>
  <speed>0.0</speed>
  <fix>3d</fix>
</trkpt>
<trkpt lat="33.8103133" lon="-118.3938693">
  <ele>-20.045</ele>
  <time>2026-09-02T22:07:40Z</time>
  <course>186.22</course>
  <speed>0.0282842712474619</speed>
  <fix>3d</fix>
</trkpt>
<trkpt lat="33.8103131" lon="-118.3938692">
  <ele>-19.56</ele>
  <time>2026-09-02T22:07:40Z</time>
  <course>274.96</course>
  <speed>0.0</speed>
  <fix>3d</fix>
</trkpt>
<trkpt lat="33.8103133" lon="-118.3938693">
  <ele>-20.043</ele>
  <time>2026-09-02T22:07:40Z</time>
  <course>186.23</course>
  <speed>0.0282842712474619</speed>
  <fix>3d</fix>
</trkpt>
<trkpt lat="33.8103131" lon="-118.3938692">
  <ele>-19.56</ele>
  <time>2026-09-02T22:07:40Z</time>
  <course>274.96</course>
  <speed>0.0</speed>
  <fix>3d</fix>
</trkpt>
<trkpt lat="33.8103133" lon="-118.3938693">
  <ele>-20.025</ele>
  <time>2026-09-02T22:07:40Z</time>
  <course>186.23</course>
  <speed>0.022360679774997897</speed>
  <fix>3d</fix>
</trkpt>
<trkpt lat="33.8103131" lon="-118.3938692">
  <ele>-19.55</ele>
  <time>2026-09-02T22:07:40Z</time>
  <course>274.94</course>
  <speed>0.0</speed>
  <fix>3d</fix>
</trkpt>
<trkpt lat="33.8103133" lon="-118.3938693">
  <ele>-19.985</ele>
  <time>2026-09-02T22:07:40Z</time>
  <course>186.24</course>
  <speed>0.022360679774997897</speed>
  <fix>3d</fix>
</trkpt>
<trkpt lat="33.8103131" lon="-118.3938692">
  <ele>-19.55</ele>
  <time>2026-09-02T22:07:40Z</time>
  <course>274.94</course>
  <speed>0.0</speed>
  <fix>3d</fix>
</trkpt>
<trkpt lat="33.8103133" lon="-118.3938693">
  <ele>-19.981</ele>
  <time>2026-09-02T22:07:40Z</time>
  <course>186.24</course>
  <speed>0.022360679774997897</speed>
  <fix>3d</fix>
</trkpt>
<trkpt lat="33.8103133" lon="-118.3938693">
  <ele>-19.924</ele>
  <time>2026-09-02T22:07:40Z</time>
  <course>186.25</course>
  <speed>0.022360679774997897</speed>
  <fix>3d</fix>
</trkpt>
<trkpt lat="33.8103131" lon="-118.3938692">
  <ele>-19.51</ele>
  <time>2026-09-02T22:07:40Z</time>
  <course>274.8</course>
  <speed>0.0</speed>
  <fix>3d</fix>
</trkpt>
<trkpt lat="33.8103133" lon="-118.3938693">
  <ele>-19.922</ele>
  <time>2026-09-02T22:07:40Z</time>
  <course>186.25</course>
  <speed>0.022360679774997897</speed>
  <fix>3d</fix>
</trkpt>
<trkpt lat="33.8103133" lon="-118.3938693">
  <ele>-19.843</ele>
  <time>2026-09-02T22:07:40Z</time>
  <course>186.26</course>
  <speed>0.022360679774997897</speed>
  <fix>3d</fix>
</trkpt>
<trkpt lat="33.8103131" lon="-118.3938692">
  <ele>-19.51</ele>
  <time>2026-09-02T22:07:40Z</time>
  <course>274.8</course>
  <speed>0.0</speed>
  <fix>3d</fix>
</trkpt>
<trkpt lat="33.8103133" lon="-118.3938693">
  <ele>-19.815</ele>
  <time>2026-09-02T22:07:40Z</time>
  <course>186.26</course>
  <speed>0.022360679774997897</speed>
  <fix>3d</fix>
</trkpt>
<trkpt lat="33.8103133" lon="-118.3938693">
  <ele>-19.741</ele>
  <time>2026-09-02T22:07:40Z</time>
  <course>186.26</course>
  <speed>0.022360679774997897</speed>
  <fix>3d</fix>
</trkpt>
<trkpt lat="33.8103131" lon="-118.3938692">
  <ele>-19.41</ele>
  <time>2026-09-02T22:07:40Z</time>
  <course>273.96</course>
  <speed>0.0</speed>
  <fix>3d</fix>
</trkpt>
<trkpt lat="33.8103133" lon="-118.3938693">
  <ele>-19.702</ele>
  <time>2026-09-02T22:07:40Z</time>
  <course>186.27</course>
  <speed>0.022360679774997897</speed>
  <fix>3d</fix>
</trkpt>
<trkpt lat="33.8103133" lon="-118.3938693">
  <ele>-19.619</ele>
  <time>2026-09-02T22:07:40Z</time>
  <course>186.27</course>
  <speed>0.022360679774997897</speed>
  <fix>3d</fix>
</trkpt>
<trkpt lat="33.8103131" lon="-118.3938692">
  <ele>-19.41</ele>
  <time>2026-09-02T22:07:40Z</time>
  <course>273.96</course>
  <speed>0.0</speed>
  <fix>3d</fix>
</trkpt>
<trkpt lat="33.8103133" lon="-118.3938693">
  <ele>-19.581</ele>
  <time>2026-09-02T22:07:40Z</time>
  <course>186.27</course>
  <speed>0.022360679774997897</speed>
  <fix>3d</fix>
</trkpt>
<trkpt lat="33.8103133" lon="-118.3938693">
  <ele>-19.488</ele>
  <time>2026-09-02T22:07:40Z</time>
  <course>186.28</course>
  <speed>0.022360679774997897</speed>
  <fix>3d</fix>
</trkpt>
<trkpt lat="33.8103131" lon="-118.3938692">
  <ele>-19.23</ele>
  <time>2026-09-02T22:07:40Z</time>
  <course>99.46</course>
  <speed>0.0</speed>
  <fix>3d</fix>
</trkpt>
<trkpt lat="33.8103133" lon="-118.3938693">
  <ele>-19.446</ele>
  <time>2026-09-02T22:07:40Z</time>
  <course>186.28</course>
  <speed>0.022360679774997897</speed>
  <fix>3d</fix>
</trkpt>
<trkpt lat="33.8103133" lon="-118.3938693">
  <ele>-19.355</ele>
  <time>2026-09-02T22:07:40Z</time>
  <course>186.29</course>
  <speed>0.022360679774997897</speed>
  <fix>3d</fix>
</trkpt>
<trkpt lat="33.8103131" lon="-118.3938692">
  <ele>-19.23</ele>
  <time>2026-09-02T22:07:40Z</time>
  <course>99.46</course>
  <speed>0.0</speed>
  <fix>3d</fix>
</trkpt>
<trkpt lat="33.8103133" lon="-118.3938693">
  <ele>-19.315</ele>
  <time>2026-09-02T22:07:40Z</time>
  <course>186.29</course>
  <speed>0.022360679774997897</speed>
  <fix>3d</fix>
</trkpt>
<trkpt lat="33.8103133" lon="-118.3938693">
  <ele>-19.221</ele>
  <time>2026-09-02T22:07:40Z</time>
  <course>186.3</course>
  <speed>0.022360679774997897</speed>
  <fix>3d</fix>
</trkpt>
<trkpt lat="33.8103131" lon="-118.3938692">
  <ele>-18.99</ele>
  <time>2026-09-02T22:07:40Z</time>
  <course>96.86</course>
  <speed>0.0</speed>
  <fix>3d</fix>
</trkpt>
<trkpt lat="33.8103133" lon="-118.3938693">
  <ele>-19.175</ele>
  <time>2026-09-02T22:07:40Z</time>
  <course>186.3</course>
  <speed>0.022360679774997897</speed>
  <fix>3d</fix>
</trkpt>
<trkpt lat="33.8103133" lon="-118.3938693">
  <ele>-19.087</ele>
  <time>2026-09-02T22:07:40Z</time>
  <course>186.3</course>
  <speed>0.022360679774997897</speed>
  <fix>3d</fix>
</trkpt>
<trkpt lat="33.8103131" lon="-118.3938692">
  <ele>-18.99</ele>
  <time>2026-09-02T22:07:40Z</time>
  <course>96.86</course>
  <speed>0.0</speed>
  <fix>3d</fix>
</trkpt>
<trkpt lat="33.8103133" lon="-118.3938693">
  <ele>-19.047</ele>
  <time>2026-09-02T22:07:40Z</time>
  <course>186.31</course>
  <speed>0.022360679774997897</speed>
  <fix>3d</fix>
</trkpt>
<trkpt lat="33.8103133" lon="-118.3938693">
  <ele>-18.952</ele>
  <time>2026-09-02T22:07:40Z</time>
  <course>186.31</course>
  <speed>0.022360679774997897</speed>
  <fix>3d</fix>
</trkpt>
<trkpt lat="33.8103131" lon="-118.3938692">
  <ele>-18.75</ele>
  <time>2026-09-02T22:07:40Z</time>
  <course>96.84</course>
  <speed>0.0</speed>
  <fix>3d</fix>
</trkpt>
<trkpt lat="33.8103133" lon="-118.3938693">
  <ele>-18.912</ele>
  <time>2026-09-02T22:07:40Z</time>
  <course>186.31</course>
  <speed>0.022360679774997897</speed>
  <fix>3d</fix>
</trkpt>
<trkpt lat="33.8103133" lon="-118.3938693">
  <ele>-18.817</ele>
  <time>2026-09-02T22:07:40Z</time>
  <course>186.32</course>
  <speed>0.022360679774997897</speed>
  <fix>3d</fix>
</trkpt>
<trkpt lat="33.8103131" lon="-118.3938692">
  <ele>-18.75</ele>
  <time>2026-09-02T22:07:40Z</time>
  <course>96.84</course>
  <speed>0.0</speed>
  <fix>3d</fix>
</trkpt>
<trkpt lat="33.8103133" lon="-118.3938693">
  <ele>-18.775</ele>
  <time>2026-09-02T22:07:40Z</time>
  <course>186.32</course>
  <speed>0.022360679774997897</speed>
  <fix>3d</fix>
</trkpt>
<trkpt lat="33.8103133" lon="-118.3938693">
  <ele>-18.684</ele>
  <time>2026-09-02T22:07:40Z</time>
  <course>186.33</course>
  <speed>0.022360679774997897</speed>
  <fix>3d</fix>
</trkpt>
<trkpt lat="33.8103131" lon="-118.3938692">
  <ele>-18.5</ele>
  <time>2026-09-02T22:07:40Z</time>
  <course>96.87</course>
  <speed>0.0</speed>
  <fix>3d</fix>
</trkpt>
<trkpt lat="33.8103133" lon="-118.3938693">
  <ele>-18.642</ele>
  <time>2026-09-02T22:07:40Z</time>
  <course>186.33</course>
  <speed>0.022360679774997897</speed>
  <fix>3d</fix>
</trkpt>
<trkpt lat="33.8103133" lon="-118.3938693">
  <ele>-18.553</ele>
  <time>2026-09-02T22:07:40Z</time>
  <course>186.33</course>
  <speed>0.022360679774997897</speed>
  <fix>3d</fix>
</trkpt>
<trkpt lat="33.8103131" lon="-118.3938692">
  <ele>-18.5</ele>
  <time>2026-09-02T22:07:40Z</time>
  <course>96.87</course>
  <speed>0.0</speed>
  <fix>3d</fix>
</trkpt>
<trkpt lat="33.8103133" lon="-118.3938693">
  <ele>-18.551</ele>
  <time>2026-09-02T22:07:40Z</time>
  <course>186.33</course>
  <speed>0.022360679774997897</speed>
  <fix>3d</fix>
</trkpt>
<trkpt lat="33.8103133" lon="-118.3938693">
  <ele>-18.422</ele>
  <time>2026-09-02T22:07:40Z</time>
  <course>186.34</course>
  <speed>0.022360679774997897</speed>
  <fix>3d</fix>
</trkpt>
<trkpt lat="33.8103131" lon="-118.3938692">
  <ele>-18.25</ele>
  <time>2026-09-02T22:07:40Z</time>
  <course>96.9</course>
  <speed>0.0</speed>
  <fix>3d</fix>
</trkpt>
<trkpt lat="33.8103133" lon="-118.3938693">
  <ele>-18.381</ele>
  <time>2026-09-02T22:07:40Z</time>
  <course>186.34</course>
  <speed>0.022360679774997897</speed>
  <fix>3d</fix>
</trkpt>
<trkpt lat="33.8103133" lon="-118.3938693">
  <ele>-18.291</ele>
  <time>2026-09-02T22:07:40Z</time>
  <course>186.35</course>
  <speed>0.022360679774997897</speed>
  <fix>3d</fix>
</trkpt>
<trkpt lat="33.8103131" lon="-118.3938692">
  <ele>-18.25</ele>
  <time>2026-09-02T22:07:40Z</time>
  <course>96.9</course>
  <speed>0.0</speed>
  <fix>3d</fix>
</trkpt>
<trkpt lat="33.8103133" lon="-118.3938693">
  <ele>-18.289</ele>
  <time>2026-09-02T22:07:40Z</time>
  <course>186.35</course>
  <speed>0.022360679774997897</speed>
  <fix>3d</fix>
</trkpt>
<trkpt lat="33.8103133" lon="-118.3938693">
  <ele>-18.16</ele>
  <time>2026-09-02T22:07:40Z</time>
  <course>186.36</course>
  <speed>0.022360679774997897</speed>
  <fix>3d</fix>
</trkpt>
<trkpt lat="33.8103131" lon="-118.3938692">
  <ele>-18.01</ele>
  <time>2026-09-02T22:07:40Z</time>
  <course>96.94</course>
  <speed>0.0</speed>
  <fix>3d</fix>
</trkpt>
<trkpt lat="33.8103133" lon="-118.3938693">
  <ele>-18.119</ele>
  <time>2026-09-02T22:07:40Z</time>
  <course>186.36</course>
  <speed>0.022360679774997897</speed>
  <fix>3d</fix>
</trkpt>
<trkpt lat="33.8103133" lon="-118.3938693">
  <ele>-18.031</ele>
  <time>2026-09-02T22:07:40Z</time>
  <course>186.36</course>
  <speed>0.022360679774997897</speed>
  <fix>3d</fix>
</trkpt>
<trkpt lat="33.8103131" lon="-118.3938692">
  <ele>-18.01</ele>
  <time>2026-09-02T22:07:40Z</time>
  <course>96.94</course>
  <speed>0.0</speed>
  <fix>3d</fix>
</trkpt>
<trkpt lat="33.8103133" lon="-118.3938693">
  <ele>-17.986</ele>
  <time>2026-09-02T22:07:40Z</time>
  <course>186.37</course>
  <speed>0.022360679774997897</speed>
  <fix>3d</fix>
</trkpt>
<trkpt lat="33.8103133" lon="-118.3938693">
  <ele>-17.902</ele>
  <time>2026-09-02T22:07:40Z</time>
  <course>186.37</course>
  <speed>0.022360679774997897</speed>
  <fix>3d</fix>
</trkpt>
<trkpt lat="33.8103131" lon="-118.3938692">
  <ele>-17.77</ele>
  <time>2026-09-02T22:07:40Z</time>
  <course>96.97</course>
  <speed>0.0</speed>
  <fix>3d</fix>
</trkpt>
<trkpt lat="33.8103133" lon="-118.3938693">
  <ele>-17.864</ele>
  <time>2026-09-02T22:07:40Z</time>
  <course>186.37</course>
  <speed>0.022360679774997897</speed>
  <fix>3d</fix>
</trkpt>
<trkpt lat="33.8103133" lon="-118.3938693">
  <ele>-17.773</ele>
  <time>2026-09-02T22:07:40Z</time>
  <course>186.38</course>
  <speed>0.022360679774997897</speed>
  <fix>3d</fix>
</trkpt>
<trkpt lat="33.8103131" lon="-118.3938692">
  <ele>-17.77</ele>
  <time>2026-09-02T22:07:40Z</time>
  <course>96.97</course>
  <speed>0.0</speed>
  <fix>3d</fix>
</trkpt>
<trkpt lat="33.8103133" lon="-118.3938693">
  <ele>-17.731</ele>
  <time>2026-09-02T22:07:40Z</time>
  <course>186.38</course>
  <speed>0.022360679774997897</speed>
  <fix>3d</fix>
</trkpt>
<trkpt lat="33.8103133" lon="-118.3938693">
  <ele>-17.644</ele>
  <time>2026-09-02T22:07:40Z</time>
  <course>186.39</course>
  <speed>0.022360679774997897</speed>
  <fix>3d</fix>
</trkpt>
<trkpt lat="33.8103131" lon="-118.3938692">
  <ele>-17.52</ele>
  <time>2026-09-02T22:07:40Z</time>
  <course>97.01</course>
  <speed>0.0</speed>
  <fix>3d</fix>
</trkpt>
<trkpt lat="33.8103133" lon="-118.3938693">
  <ele>-17.606</ele>
  <time>2026-09-02T22:07:40Z</time>
  <course>186.39</course>
  <speed>0.022360679774997897</speed>
  <fix>3d</fix>
</trkpt>
<trkpt lat="33.8103133" lon="-118.3938693">
  <ele>-17.517</ele>
  <time>2026-09-02T22:07:40Z</time>
  <course>186.39</course>
  <speed>0.022360679774997897</speed>
  <fix>3d</fix>
</trkpt>
<trkpt lat="33.8103131" lon="-118.3938692">
  <ele>-17.52</ele>
  <time>2026-09-02T22:07:40Z</time>
  <course>97.01</course>
  <speed>0.0</speed>
  <fix>3d</fix>
</trkpt>
<trkpt lat="33.8103133" lon="-118.3938693">
  <ele>-17.475</ele>
  <time>2026-09-02T22:07:40Z</time>
  <course>186.39</course>
  <speed>0.022360679774997897</speed>
  <fix>3d</fix>
</trkpt>
<trkpt lat="33.8103133" lon="-118.3938693">
  <ele>-17.389</ele>
  <time>2026-09-02T22:07:40Z</time>
  <course>186.4</course>
  <speed>0.022360679774997897</speed>
  <fix>3d</fix>
</trkpt>
<trkpt lat="33.8103131" lon="-118.3938692">
  <ele>-17.27</ele>
  <time>2026-09-02T22:07:40Z</time>
  <course>97.05</course>
  <speed>0.0</speed>
  <fix>3d</fix>
</trkpt>
<trkpt lat="33.8103133" lon="-118.3938693">
  <ele>-17.348</ele>
  <time>2026-09-02T22:07:40Z</time>
  <course>186.4</course>
  <speed>0.022360679774997897</speed>
  <fix>3d</fix>
</trkpt>
<trkpt lat="33.8103133" lon="-118.3938693">
  <ele>-17.262</ele>
  <time>2026-09-02T22:07:40Z</time>
  <course>186.41</course>
  <speed>0.022360679774997897</speed>
  <fix>3d</fix>
</trkpt>
<trkpt lat="33.8103131" lon="-118.3938692">
  <ele>-17.27</ele>
  <time>2026-09-02T22:07:40Z</time>
  <course>97.05</course>
  <speed>0.0</speed>
  <fix>3d</fix>
</trkpt>
<trkpt lat="33.8103133" lon="-118.3938693">
  <ele>-17.227</ele>
  <time>2026-09-02T22:07:40Z</time>
  <course>186.41</course>
  <speed>0.022360679774997897</speed>
  <fix>3d</fix>
</trkpt>
<trkpt lat="33.8103133" lon="-118.3938693">
  <ele>-17.135</ele>
  <time>2026-09-02T22:07:40Z</time>
  <course>186.41</course>
  <speed>0.022360679774997897</speed>
  <fix>3d</fix>
</trkpt>
<trkpt lat="33.8103131" lon="-118.3938692">
  <ele>-17.03</ele>
  <time>2026-09-02T22:07:40Z</time>
  <course>97.09</course>
  <speed>0.0</speed>
  <fix>3d</fix>
</trkpt>
<trkpt lat="33.8103133" lon="-118.3938693">
  <ele>-17.132</ele>
  <time>2026-09-02T22:07:40Z</time>
  <course>186.41</course>
  <speed>0.022360679774997897</speed>
  <fix>3d</fix>
</trkpt>
<trkpt lat="33.8103133" lon="-118.3938693">
  <ele>-17.01</ele>
  <time>2026-09-02T22:07:40Z</time>
  <course>186.42</course>
  <speed>0.022360679774997897</speed>
  <fix>3d</fix>
</trkpt>
<trkpt lat="33.8103131" lon="-118.3938692">
  <ele>-17.03</ele>
  <time>2026-09-02T22:07:40Z</time>
  <course>97.09</course>
  <speed>0.0</speed>
  <fix>3d</fix>
</trkpt>
<trkpt lat="33.8103133" lon="-118.3938693">
  <ele>-16.972</ele>
  <time>2026-09-02T22:07:40Z</time>
  <course>186.42</course>
  <speed>0.022360679774997897</speed>
  <fix>3d</fix>
</trkpt>
<trkpt lat="33.8103133" lon="-118.3938693">
  <ele>-16.885</ele>
  <time>2026-09-02T22:07:40Z</time>
  <course>186.43</course>
  <speed>0.022360679774997897</speed>
  <fix>3d</fix>
</trkpt>
<trkpt lat="33.8103131" lon="-118.3938692">
  <ele>-16.79</ele>
  <time>2026-09-02T22:07:40Z</time>
  <course>97.13</course>
  <speed>0.0</speed>
  <fix>3d</fix>
</trkpt>
<trkpt lat="33.8103133" lon="-118.3938693">
  <ele>-16.882</ele>
  <time>2026-09-02T22:07:40Z</time>
  <course>186.43</course>
  <speed>0.022360679774997897</speed>
  <fix>3d</fix>
</trkpt>
<trkpt lat="33.8103133" lon="-118.3938693">
  <ele>-16.762</ele>
  <time>2026-09-02T22:07:40Z</time>
  <course>186.43</course>
  <speed>0.022360679774997897</speed>
  <fix>3d</fix>
</trkpt>
<trkpt lat="33.8103131" lon="-118.3938692">
  <ele>-16.79</ele>
  <time>2026-09-02T22:07:40Z</time>
  <course>97.13</course>
  <speed>0.0</speed>
  <fix>3d</fix>
</trkpt>
<trkpt lat="33.8103133" lon="-118.3938693">
  <ele>-16.759</ele>
  <time>2026-09-02T22:07:40Z</time>
  <course>186.43</course>
  <speed>0.022360679774997897</speed>
  <fix>3d</fix>
</trkpt>
<trkpt lat="33.8103133" lon="-118.3938693">
  <ele>-16.64</ele>
  <time>2026-09-02T22:07:40Z</time>
  <course>186.44</course>
  <speed>0.022360679774997897</speed>
  <fix>3d</fix>
</trkpt>
<trkpt lat="33.8103131" lon="-118.3938692">
  <ele>-16.54</ele>
  <time>2026-09-02T22:07:40Z</time>
  <course>97.17</course>
  <speed>0.0</speed>
  <fix>3d</fix>
</trkpt>
<trkpt lat="33.8103133" lon="-118.3938693">
  <ele>-16.6</ele>
  <time>2026-09-02T22:07:40Z</time>
  <course>186.44</course>
  <speed>0.022360679774997897</speed>
  <fix>3d</fix>
</trkpt>
<trkpt lat="33.8103133" lon="-118.3938693">
  <ele>-16.519</ele>
  <time>2026-09-02T22:07:40Z</time>
  <course>186.45</course>
  <speed>0.022360679774997897</speed>
  <fix>3d</fix>
</trkpt>
<trkpt lat="33.8103131" lon="-118.3938692">
  <ele>-16.54</ele>
  <time>2026-09-02T22:07:40Z</time>
  <course>97.17</course>
  <speed>0.0</speed>
  <fix>3d</fix>
</trkpt>
<trkpt lat="33.8103133" lon="-118.3938693">
  <ele>-16.479</ele>
  <time>2026-09-02T22:07:40Z</time>
  <course>186.45</course>
  <speed>0.022360679774997897</speed>
  <fix>3d</fix>
</trkpt>
<trkpt lat="33.8103133" lon="-118.3938693">
  <ele>-16.398</ele>
  <time>2026-09-02T22:07:40Z</time>
  <course>186.45</course>
  <speed>0.022360679774997897</speed>
  <fix>3d</fix>
</trkpt>
<trkpt lat="33.8103131" lon="-118.3938692">
  <ele>-16.29</ele>
  <time>2026-09-02T22:07:40Z</time>
  <course>97.21</course>
  <speed>0.0</speed>
  <fix>3d</fix>
</trkpt>
<trkpt lat="33.8103133" lon="-118.3938693">
  <ele>-16.362</ele>
  <time>2026-09-02T22:07:40Z</time>
  <course>186.46</course>
  <speed>0.022360679774997897</speed>
  <fix>3d</fix>
</trkpt>
<trkpt lat="33.8103133" lon="-118.3938693">
  <ele>-16.278</ele>
  <time>2026-09-02T22:07:40Z</time>
  <course>186.46</course>
  <speed>0.022360679774997897</speed>
  <fix>3d</fix>
</trkpt>
<trkpt lat="33.8103131" lon="-118.3938692">
  <ele>-16.29</ele>
  <time>2026-09-02T22:07:40Z</time>
  <course>97.21</course>
  <speed>0.0</speed>
  <fix>3d</fix>
</trkpt>
<trkpt lat="33.8103133" lon="-118.3938693">
  <ele>-16.238</ele>
  <time>2026-09-02T22:07:40Z</time>
  <course>186.46</course>
  <speed>0.022360679774997897</speed>
  <fix>3d</fix>
</trkpt>
<trkpt lat="33.8103133" lon="-118.3938693">
  <ele>-16.156</ele>
  <time>2026-09-02T22:07:40Z</time>
  <course>186.47</course>
  <speed>0.022360679774997897</speed>
  <fix>3d</fix>
</trkpt>
<trkpt lat="33.8103131" lon="-118.3938692">
  <ele>-16.05</ele>
  <time>2026-09-02T22:07:40Z</time>
  <course>97.26</course>
  <speed>0.0</speed>
  <fix>3d</fix>
</trkpt>
<trkpt lat="33.8103133" lon="-118.3938693">
  <ele>-16.104</ele>
  <time>2026-09-02T22:07:40Z</time>
  <course>186.47</course>
  <speed>0.022360679774997897</speed>
  <fix>3d</fix>
</trkpt>
<trkpt lat="33.8103133" lon="-118.3938693">
  <ele>-16.034</ele>
  <time>2026-09-02T22:07:40Z</time>
  <course>186.47</course>
  <speed>0.022360679774997897</speed>
  <fix>3d</fix>
</trkpt>
<trkpt lat="33.8103131" lon="-118.3938692">
  <ele>-16.05</ele>
  <time>2026-09-02T22:07:40Z</time>
  <course>97.26</course>
  <speed>0.0</speed>
  <fix>3d</fix>
</trkpt>
<trkpt lat="33.8103133" lon="-118.3938693">
  <ele>-15.998</ele>
  <time>2026-09-02T22:07:40Z</time>
  <course>186.48</course>
  <speed>0.022360679774997897</speed>
  <fix>3d</fix>
</trkpt>
<trkpt lat="33.8103133" lon="-118.3938693">
  <ele>-15.913</ele>
  <time>2026-09-02T22:07:40Z</time>
  <course>186.48</course>
  <speed>0.022360679774997897</speed>
  <fix>3d</fix>
</trkpt>
<trkpt lat="33.8103131" lon="-118.3938692">
  <ele>-15.8</ele>
  <time>2026-09-02T22:07:40Z</time>
  <course>97.31</course>
  <speed>0.0</speed>
  <fix>3d</fix>
</trkpt>
<trkpt lat="33.8103133" lon="-118.3938693">
  <ele>-15.876</ele>
  <time>2026-09-02T22:07:40Z</time>
  <course>186.48</course>
  <speed>0.022360679774997897</speed>
  <fix>3d</fix>
</trkpt>
<trkpt lat="33.8103133" lon="-118.3938693">
  <ele>-15.791</ele>
  <time>2026-09-02T22:07:40Z</time>
  <course>186.49</course>
  <speed>0.022360679774997897</speed>
  <fix>3d</fix>
</trkpt>
<trkpt lat="33.8103131" lon="-118.3938692">
  <ele>-15.8</ele>
  <time>2026-09-02T22:07:40Z</time>
  <course>97.31</course>
  <speed>0.0</speed>
  <fix>3d</fix>
</trkpt>
<trkpt lat="33.8103133" lon="-118.3938693">
  <ele>-15.789</ele>
  <time>2026-09-02T22:07:40Z</time>
  <course>186.49</course>
  <speed>0.022360679774997897</speed>
  <fix>3d</fix>
</trkpt>
<trkpt lat="33.8103133" lon="-118.3938693">
  <ele>-15.669</ele>
  <time>2026-09-02T22:07:40Z</time>
  <course>186.49</course>
  <speed>0.022360679774997897</speed>
  <fix>3d</fix>
</trkpt>
<trkpt lat="33.8103131" lon="-118.3938692">
  <ele>-15.56</ele>
  <time>2026-09-02T22:07:40Z</time>
  <course>97.35</course>
  <speed>0.0</speed>
  <fix>3d</fix>
</trkpt>
<trkpt lat="33.8103133" lon="-118.3938693">
  <ele>-15.63</ele>
  <time>2026-09-02T22:07:40Z</time>
  <course>186.5</course>
  <speed>0.022360679774997897</speed>
  <fix>3d</fix>
</trkpt>
<trkpt lat="33.8103133" lon="-118.3938693">
  <ele>-15.547</ele>
  <time>2026-09-02T22:07:40Z</time>
  <course>186.5</course>
  <speed>0.022360679774997897</speed>
  <fix>3d</fix>
</trkpt>
<trkpt lat="33.8103131" lon="-118.3938692">
  <ele>-15.56</ele>
  <time>2026-09-02T22:07:40Z</time>
  <course>97.35</course>
  <speed>0.0</speed>
  <fix>3d</fix>
</trkpt>
<trkpt lat="33.8103133" lon="-118.3938693">
  <ele>-15.51</ele>
  <time>2026-09-02T22:07:40Z</time>
  <course>186.5</course>
  <speed>0.022360679774997897</speed>
  <fix>3d</fix>
</trkpt>
<trkpt lat="33.8103133" lon="-118.3938693">
  <ele>-15.424</ele>
  <time>2026-09-02T22:07:40Z</time>
  <course>186.51</course>
  <speed>0.022360679774997897</speed>
  <fix>3d</fix>
</trkpt>
<trkpt lat="33.8103131" lon="-118.3938692">
  <ele>-15.32</ele>
  <time>2026-09-02T22:07:40Z</time>
  <course>97.4</course>
  <speed>0.0</speed>
  <fix>3d</fix>
</trkpt>
<trkpt lat="33.8103133" lon="-118.3938693">
  <ele>-15.391</ele>
  <time>2026-09-02T22:07:40Z</time>
  <course>186.51</course>
  <speed>0.022360679774997897</speed>
  <fix>3d</fix>
</trkpt>
<trkpt lat="33.8103133" lon="-118.3938693">
  <ele>-15.302</ele>
  <time>2026-09-02T22:07:40Z</time>
  <course>186.51</course>
  <speed>0.022360679774997897</speed>
  <fix>3d</fix>
</trkpt>
<trkpt lat="33.8103131" lon="-118.3938692">
  <ele>-15.32</ele>
  <time>2026-09-02T22:07:40Z</time>
  <course>97.4</course>
  <speed>0.0</speed>
  <fix>3d</fix>
</trkpt>
<trkpt lat="33.8103133" lon="-118.3938693">
  <ele>-15.265</ele>
  <time>2026-09-02T22:07:40Z</time>
  <course>186.51</course>
  <speed>0.022360679774997897</speed>
  <fix>3d</fix>
</trkpt>
<trkpt lat="33.8103133" lon="-118.3938693">
  <ele>-15.18</ele>
  <time>2026-09-02T22:07:40Z</time>
  <course>186.52</course>
  <speed>0.022360679774997897</speed>
  <fix>3d</fix>
</trkpt>
<trkpt lat="33.8103131" lon="-118.3938692">
  <ele>-15.07</ele>
  <time>2026-09-02T22:07:40Z</time>
  <course>97.45</course>
  <speed>0.0</speed>
  <fix>3d</fix>
</trkpt>
<trkpt lat="33.8103133" lon="-118.3938693">
  <ele>-15.177</ele>
  <time>2026-09-02T22:07:40Z</time>
  <course>186.52</course>
  <speed>0.022360679774997897</speed>
  <fix>3d</fix>
</trkpt>
<trkpt lat="33.8103133" lon="-118.3938693">
  <ele>-15.058</ele>
  <time>2026-09-02T22:07:40Z</time>
  <course>186.52</course>
  <speed>0.022360679774997897</speed>
  <fix>3d</fix>
</trkpt>
<trkpt lat="33.8103131" lon="-118.3938692">
  <ele>-15.07</ele>
  <time>2026-09-02T22:07:40Z</time>
  <course>97.45</course>
  <speed>0.0</speed>
  <fix>3d</fix>
</trkpt>
<trkpt lat="33.8103133" lon="-118.3938693">
  <ele>-15.018</ele>
  <time>2026-09-02T22:07:40Z</time>
  <course>186.53</course>
  <speed>0.022360679774997897</speed>
  <fix>3d</fix>
</trkpt>
<trkpt lat="33.8103133" lon="-118.3938693">
  <ele>-14.935</ele>
  <time>2026-09-02T22:07:40Z</time>
  <course>186.53</course>
  <speed>0.022360679774997897</speed>
  <fix>3d</fix>
</trkpt>
<trkpt lat="33.8103131" lon="-118.3938692">
  <ele>-14.83</ele>
  <time>2026-09-02T22:07:40Z</time>
  <course>97.51</course>
  <speed>0.0</speed>
  <fix>3d</fix>
</trkpt>
<trkpt lat="33.8103133" lon="-118.3938693">
  <ele>-14.895</ele>
  <time>2026-09-02T22:07:40Z</time>
  <course>186.53</course>
  <speed>0.022360679774997897</speed>
  <fix>3d</fix>
</trkpt>
<trkpt lat="33.8103133" lon="-118.3938693">
  <ele>-14.811</ele>
  <time>2026-09-02T22:07:40Z</time>
  <course>186.54</course>
  <speed>0.022360679774997897</speed>
  <fix>3d</fix>
</trkpt>
<trkpt lat="33.8103131" lon="-118.3938692">
  <ele>-14.83</ele>
  <time>2026-09-02T22:07:40Z</time>
  <course>97.51</course>
  <speed>0.0</speed>
  <fix>3d</fix>
</trkpt>
<trkpt lat="33.8103133" lon="-118.3938693">
  <ele>-14.771</ele>
  <time>2026-09-02T22:07:40Z</time>
  <course>186.54</course>
  <speed>0.022360679774997897</speed>
  <fix>3d</fix>
</trkpt>
<trkpt lat="33.8103133" lon="-118.3938693">
  <ele>-14.687</ele>
  <time>2026-09-02T22:07:40Z</time>
  <course>186.54</course>
  <speed>0.022360679774997897</speed>
  <fix>3d</fix>
</trkpt>
<trkpt lat="33.8103131" lon="-118.3938692">
  <ele>-14.58</ele>
  <time>2026-09-02T22:07:40Z</time>
  <course>97.57</course>
  <speed>0.0</speed>
  <fix>3d</fix>
</trkpt>
<trkpt lat="33.8103133" lon="-118.3938693">
  <ele>-14.649</ele>
  <time>2026-09-02T22:07:40Z</time>
  <course>186.54</course>
  <speed>0.022360679774997897</speed>
  <fix>3d</fix>
</trkpt>
<trkpt lat="33.8103133" lon="-118.3938693">
  <ele>-14.562</ele>
  <time>2026-09-02T22:07:40Z</time>
  <course>186.55</course>
  <speed>0.022360679774997897</speed>
  <fix>3d</fix>
</trkpt>
<trkpt lat="33.8103131" lon="-118.3938692">
  <ele>-14.58</ele>
  <time>2026-09-02T22:07:40Z</time>
  <course>97.57</course>
  <speed>0.0</speed>
  <fix>3d</fix>
</trkpt>
<trkpt lat="33.8103133" lon="-118.3938693">
  <ele>-14.525</ele>
  <time>2026-09-02T22:07:40Z</time>
  <course>186.55</course>
  <speed>0.022360679774997897</speed>
  <fix>3d</fix>
</trkpt>
<trkpt lat="33.8103133" lon="-118.3938693">
  <ele>-14.439</ele>
  <time>2026-09-02T22:07:40Z</time>
  <course>186.55</course>
  <speed>0.022360679774997897</speed>
  <fix>3d</fix>
</trkpt>
<trkpt lat="33.8103131" lon="-118.3938692">
  <ele>-14.34</ele>
  <time>2026-09-02T22:07:40Z</time>
  <course>97.63</course>
  <speed>0.0</speed>
  <fix>3d</fix>
</trkpt>
<trkpt lat="33.8103133" lon="-118.3938693">
  <ele>-14.434</ele>
  <time>2026-09-02T22:07:40Z</time>
  <course>186.56</course>
  <speed>0.022360679774997897</speed>
  <fix>3d</fix>
</trkpt>
<trkpt lat="33.8103133" lon="-118.3938693">
  <ele>-14.313</ele>
  <time>2026-09-02T22:07:40Z</time>
  <course>186.56</course>
  <speed>0.022360679774997897</speed>
  <fix>3d</fix>
</trkpt>
<trkpt lat="33.8103131" lon="-118.3938692">
  <ele>-14.34</ele>
  <time>2026-09-02T22:07:40Z</time>
  <course>97.63</course>
  <speed>0.0</speed>
  <fix>3d</fix>
</trkpt>
<trkpt lat="33.8103133" lon="-118.3938693">
  <ele>-14.275</ele>
  <time>2026-09-02T22:07:40Z</time>
  <course>186.56</course>
  <speed>0.022360679774997897</speed>
  <fix>3d</fix>
</trkpt>
<trkpt lat="33.8103133" lon="-118.3938693">
  <ele>-14.187</ele>
  <time>2026-09-02T22:07:40Z</time>
  <course>186.57</course>
  <speed>0.022360679774997897</speed>
  <fix>3d</fix>
</trkpt>
<trkpt lat="33.8103131" lon="-118.3938692">
  <ele>-14.09</ele>
  <time>2026-09-02T22:07:40Z</time>
  <course>97.69</course>
  <speed>0.0</speed>
  <fix>3d</fix>
</trkpt>
<trkpt lat="33.8103133" lon="-118.3938693">
  <ele>-14.149</ele>
  <time>2026-09-02T22:07:40Z</time>
  <course>186.57</course>
  <speed>0.022360679774997897</speed>
  <fix>3d</fix>
</trkpt>
<trkpt lat="33.8103133" lon="-118.3938693">
  <ele>-14.061</ele>
  <time>2026-09-02T22:07:40Z</time>
  <course>186.57</course>
  <speed>0.022360679774997897</speed>
  <fix>3d</fix>
</trkpt>
<trkpt lat="33.8103131" lon="-118.3938692">
  <ele>-14.09</ele>
  <time>2026-09-02T22:07:40Z</time>
  <course>97.69</course>
  <speed>0.0</speed>
  <fix>3d</fix>
</trkpt>
<trkpt lat="33.8103133" lon="-118.3938693">
  <ele>-14.024</ele>
  <time>2026-09-02T22:07:40Z</time>
  <course>186.57</course>
  <speed>0.022360679774997897</speed>
  <fix>3d</fix>
</trkpt>
<trkpt lat="33.8103133" lon="-118.3938693">
  <ele>-13.935</ele>
  <time>2026-09-02T22:07:40Z</time>
  <course>186.58</course>
  <speed>0.022360679774997897</speed>
  <fix>3d</fix>
</trkpt>
<trkpt lat="33.8103131" lon="-118.3938692">
  <ele>-13.85</ele>
  <time>2026-09-02T22:07:40Z</time>
  <course>97.75</course>
  <speed>0.0</speed>
  <fix>3d</fix>
</trkpt>
<trkpt lat="33.8103133" lon="-118.3938693">
  <ele>-13.884</ele>
  <time>2026-09-02T22:07:40Z</time>
  <course>186.58</course>
  <speed>0.022360679774997897</speed>
  <fix>3d</fix>
</trkpt>
<trkpt lat="33.8103133" lon="-118.3938693">
  <ele>-13.809</ele>
  <time>2026-09-02T22:07:40Z</time>
  <course>186.58</course>
  <speed>0.022360679774997897</speed>
  <fix>3d</fix>
</trkpt>
<trkpt lat="33.8103131" lon="-118.3938692">
  <ele>-13.85</ele>
  <time>2026-09-02T22:07:40Z</time>
  <course>97.75</course>
  <speed>0.0</speed>
  <fix>3d</fix>
</trkpt>
<trkpt lat="33.8103133" lon="-118.3938693">
  <ele>-13.682</ele>
  <time>2026-09-02T22:07:40Z</time>
  <course>186.59</course>
  <speed>0.022360679774997897</speed>
  <fix>3d</fix>
</trkpt>
<trkpt lat="33.8103131" lon="-118.3938692">
  <ele>-13.6</ele>
  <time>2026-09-02T22:07:40Z</time>
  <course>97.81</course>
  <speed>0.0</speed>
  <fix>3d</fix>
</trkpt>
<trkpt lat="33.8103133" lon="-118.3938693">
  <ele>-13.556</ele>
  <time>2026-09-02T22:07:40Z</time>
  <course>186.6</course>
  <speed>0.022360679774997897</speed>
  <fix>3d</fix>
</trkpt>
<trkpt lat="33.8103131" lon="-118.3938692">
  <ele>-13.6</ele>
  <time>2026-09-02T22:07:40Z</time>
  <course>97.81</course>
  <speed>0.0</speed>
  <fix>3d</fix>
</trkpt>
<trkpt lat="33.8103133" lon="-118.3938693">
  <ele>-13.432</ele>
  <time>2026-09-02T22:07:40Z</time>
  <course>186.6</course>
  <speed>0.022360679774997897</speed>
  <fix>3d</fix>
</trkpt>
<trkpt lat="33.8103131" lon="-118.3938692">
  <ele>-13.36</ele>
  <time>2026-09-02T22:07:40Z</time>
  <course>97.93</course>
  <speed>0.0</speed>
  <fix>3d</fix>
</trkpt>
<trkpt lat="33.8103133" lon="-118.3938693">
  <ele>-13.311</ele>
  <time>2026-09-02T22:07:40Z</time>
  <course>186.61</course>
  <speed>0.022360679774997897</speed>
  <fix>3d</fix>
</trkpt>
<trkpt lat="33.8103131" lon="-118.3938692">
  <ele>-13.36</ele>
  <time>2026-09-02T22:07:40Z</time>
  <course>97.93</course>
  <speed>0.0</speed>
  <fix>3d</fix>
</trkpt>
<trkpt lat="33.8103133" lon="-118.3938693">
  <ele>-13.198</ele>
  <time>2026-09-02T22:07:40Z</time>
  <course>186.61</course>
  <speed>0.022360679774997897</speed>
  <fix>3d</fix>
</trkpt>
<trkpt lat="33.8103131" lon="-118.3938692">
  <ele>-13.12</ele>
  <time>2026-09-02T22:07:40Z</time>
  <course>99.15</course>
  <speed>0.0</speed>
  <fix>3d</fix>
</trkpt>
<trkpt lat="33.8103133" lon="-118.3938693">
  <ele>-13.099</ele>
  <time>2026-09-02T22:07:40Z</time>
  <course>186.62</course>
  <speed>0.022360679774997897</speed>
  <fix>3d</fix>
</trkpt>
<trkpt lat="33.8103131" lon="-118.3938692">
  <ele>-13.12</ele>
  <time>2026-09-02T22:07:40Z</time>
  <course>99.15</course>
  <speed>0.0</speed>
  <fix>3d</fix>
</trkpt>
<trkpt lat="33.8103133" lon="-118.3938693">
  <ele>-13.018</ele>
  <time>2026-09-02T22:07:40Z</time>
  <course>186.62</course>
  <speed>0.022360679774997897</speed>
  <fix>3d</fix>
</trkpt>
<trkpt lat="33.8103131" lon="-118.3938692">
  <ele>-12.9</ele>
  <time>2026-09-02T22:07:40Z</time>
  <course>271.2</course>
  <speed>0.0</speed>
  <fix>3d</fix>
</trkpt>
<trkpt lat="33.8103133" lon="-118.3938693">
  <ele>-12.953</ele>
  <time>2026-09-02T22:07:40Z</time>
  <course>186.63</course>
  <speed>0.01414213562373095</speed>
  <fix>3d</fix>
</trkpt>
<trkpt lat="33.8103131" lon="-118.3938692">
  <ele>-12.9</ele>
  <time>2026-09-02T22:07:40Z</time>
  <course>271.2</course>
  <speed>0.0</speed>
  <fix>3d</fix>
</trkpt>
<trkpt lat="33.8103133" lon="-118.3938693">
  <ele>-12.904</ele>
  <time>2026-09-02T22:07:40Z</time>
  <course>186.63</course>
  <speed>0.01414213562373095</speed>
  <fix>3d</fix>
</trkpt>
<trkpt lat="33.8103131" lon="-118.3938692">
  <ele>-12.74</ele>
  <time>2026-09-02T22:07:40Z</time>
  <course>274.59</course>
  <speed>0.0</speed>
  <fix>3d</fix>
</trkpt>
<trkpt lat="33.8103133" lon="-118.3938693">
  <ele>-12.867</ele>
  <time>2026-09-02T22:07:40Z</time>
  <course>186.64</course>
  <speed>0.01414213562373095</speed>
  <fix>3d</fix>
</trkpt>
<trkpt lat="33.8103131" lon="-118.3938692">
  <ele>-12.74</ele>
  <time>2026-09-02T22:07:40Z</time>
  <course>274.59</course>
  <speed>0.0</speed>
  <fix>3d</fix>
</trkpt>
<trkpt lat="33.8103133" lon="-118.3938693">
  <ele>-12.839</ele>
  <time>2026-09-02T22:07:40Z</time>
  <course>186.64</course>
  <speed>0.01414213562373095</speed>
  <fix>3d</fix>
</trkpt>
<trkpt lat="33.8103131" lon="-118.3938692">
  <ele>-12.63</ele>
  <time>2026-09-02T22:07:40Z</time>
  <course>274.97</course>
  <speed>0.0</speed>
  <fix>3d</fix>
</trkpt>
<trkpt lat="33.8103133" lon="-118.3938693">
  <ele>-12.821</ele>
  <time>2026-09-02T22:07:40Z</time>
  <course>186.65</course>
  <speed>0.01414213562373095</speed>
  <fix>3d</fix>
</trkpt>
<trkpt lat="33.8103131" lon="-118.3938692">
  <ele>-12.63</ele>
  <time>2026-09-02T22:07:40Z</time>
  <course>274.97</course>
  <speed>0.0</speed>
  <fix>3d</fix>
</trkpt>
<trkpt lat="33.8103133" lon="-118.3938693">
  <ele>-12.812</ele>
  <time>2026-09-02T22:07:40Z</time>
  <course>186.65</course>
  <speed>0.01414213562373095</speed>
  <fix>3d</fix>
</trkpt>
<trkpt lat="33.8103131" lon="-118.3938692">
  <ele>-12.57</ele>
  <time>2026-09-02T22:07:40Z</time>
  <course>275.08</course>
  <speed>0.0</speed>
  <fix>3d</fix>
</trkpt>
<trkpt lat="33.8103133" lon="-118.3938693">
  <ele>-12.81</ele>
  <time>2026-09-02T22:07:40Z</time>
  <course>186.66</course>
  <speed>0.01414213562373095</speed>
  <fix>3d</fix>
</trkpt>
<trkpt lat="33.8103131" lon="-118.3938692">
  <ele>-12.57</ele>
  <time>2026-09-02T22:07:40Z</time>
  <course>275.08</course>
  <speed>0.0</speed>
  <fix>3d</fix>
</trkpt>
<trkpt lat="33.8103133" lon="-118.3938693">
  <ele>-12.812</ele>
  <time>2026-09-02T22:07:40Z</time>
  <course>186.67</course>
  <speed>0.01414213562373095</speed>
  <fix>3d</fix>
</trkpt>
<trkpt lat="33.8103131" lon="-118.3938692">
  <ele>-12.54</ele>
  <time>2026-09-02T22:07:40Z</time>
  <course>275.13</course>
  <speed>0.0</speed>
  <fix>3d</fix>
</trkpt>
<trkpt lat="33.8103133" lon="-118.3938693">
  <ele>-12.815</ele>
  <time>2026-09-02T22:07:40Z</time>
  <course>186.67</course>
  <speed>0.01414213562373095</speed>
  <fix>3d</fix>
</trkpt>
<trkpt lat="33.8103131" lon="-118.3938692">
  <ele>-12.54</ele>
  <time>2026-09-02T22:07:40Z</time>
  <course>275.13</course>
  <speed>0.0</speed>
  <fix>3d</fix>
</trkpt>
<trkpt lat="33.8103133" lon="-118.3938693">
  <ele>-12.819</ele>
  <time>2026-09-02T22:07:40Z</time>
  <course>186.68</course>
  <speed>0.01414213562373095</speed>
  <fix>3d</fix>
</trkpt>
<trkpt lat="33.8103131" lon="-118.3938692">
  <ele>-12.54</ele>
  <time>2026-09-02T22:07:40Z</time>
  <course>275.15</course>
  <speed>0.0</speed>
  <fix>3d</fix>
</trkpt>
<trkpt lat="33.8103133" lon="-118.3938693">
  <ele>-12.822</ele>
  <time>2026-09-02T22:07:40Z</time>
  <course>186.68</course>
  <speed>0.01414213562373095</speed>
  <fix>3d</fix>
</trkpt>
<trkpt lat="33.8103131" lon="-118.3938692">
  <ele>-12.54</ele>
  <time>2026-09-02T22:07:40Z</time>
  <course>275.15</course>
  <speed>0.0</speed>
  <fix>3d</fix>
</trkpt>
<trkpt lat="33.8103133" lon="-118.3938693">
  <ele>-12.825</ele>
  <time>2026-09-02T22:07:40Z</time>
  <course>186.69</course>
  <speed>0.01414213562373095</speed>
  <fix>3d</fix>
</trkpt>
<trkpt lat="33.8103131" lon="-118.3938692">
  <ele>-12.53</ele>
  <time>2026-09-02T22:07:40Z</time>
  <course>275.16</course>
  <speed>0.0</speed>
  <fix>3d</fix>
</trkpt>
<trkpt lat="33.8103133" lon="-118.3938693">
  <ele>-12.827</ele>
  <time>2026-09-02T22:07:40Z</time>
  <course>186.69</course>
  <speed>0.022360679774997897</speed>
  <fix>3d</fix>
</trkpt>
<trkpt lat="33.8103131" lon="-118.3938692">
  <ele>-12.53</ele>
  <time>2026-09-02T22:07:40Z</time>
  <course>275.16</course>
  <speed>0.0</speed>
  <fix>3d</fix>
</trkpt>
<trkpt lat="33.8103133" lon="-118.3938693">
  <ele>-12.827</ele>
  <time>2026-09-02T22:07:40Z</time>
  <course>186.7</course>
  <speed>0.022360679774997897</speed>
  <fix>3d</fix>
</trkpt>
<trkpt lat="33.8103131" lon="-118.3938692">
  <ele>-12.53</ele>
  <time>2026-09-02T22:07:40Z</time>
  <course>275.16</course>
  <speed>0.0</speed>
  <fix>3d</fix>
</trkpt>
<trkpt lat="33.8103133" lon="-118.3938693">
  <ele>-12.827</ele>
  <time>2026-09-02T22:07:40Z</time>
  <course>186.7</course>
  <speed>0.022360679774997897</speed>
  <fix>3d</fix>
</trkpt>
<trkpt lat="33.8103131" lon="-118.3938692">
  <ele>-12.53</ele>
  <time>2026-09-02T22:07:40Z</time>
  <course>275.16</course>
  <speed>0.0</speed>
  <fix>3d</fix>
</trkpt>
<trkpt lat="33.8103133" lon="-118.3938693">
  <ele>-12.826</ele>
  <time>2026-09-02T22:07:40Z</time>
  <course>186.71</course>
  <speed>0.022360679774997897</speed>
  <fix>3d</fix>
</trkpt>
<trkpt lat="33.8103131" lon="-118.3938692">
  <ele>-12.52</ele>
  <time>2026-09-02T22:07:40Z</time>
  <course>275.16</course>
  <speed>0.0</speed>
  <fix>3d</fix>
</trkpt>
<trkpt lat="33.8103133" lon="-118.3938693">
  <ele>-12.824</ele>
  <time>2026-09-02T22:07:40Z</time>
  <course>186.71</course>
  <speed>0.022360679774997897</speed>
  <fix>3d</fix>
</trkpt>
<trkpt lat="33.8103131" lon="-118.3938692">
  <ele>-12.52</ele>
  <time>2026-09-02T22:07:40Z</time>
  <course>275.16</course>
  <speed>0.0</speed>
  <fix>3d</fix>
</trkpt>
<trkpt lat="33.8103133" lon="-118.3938693">
  <ele>-12.82</ele>
  <time>2026-09-02T22:07:40Z</time>
  <course>186.72</course>
  <speed>0.022360679774997897</speed>
  <fix>3d</fix>
</trkpt>
<trkpt lat="33.8103131" lon="-118.3938692">
  <ele>-12.51</ele>
  <time>2026-09-02T22:07:40Z</time>
  <course>275.15</course>
  <speed>0.0</speed>
  <fix>3d</fix>
</trkpt>
<trkpt lat="33.8103133" lon="-118.3938693">
  <ele>-12.816</ele>
  <time>2026-09-02T22:07:40Z</time>
  <course>186.72</course>
  <speed>0.022360679774997897</speed>
  <fix>3d</fix>
</trkpt>
<trkpt lat="33.8103131" lon="-118.3938692">
  <ele>-12.51</ele>
  <time>2026-09-02T22:07:40Z</time>
  <course>275.15</course>
  <speed>0.0</speed>
  <fix>3d</fix>
</trkpt>
<trkpt lat="33.8103133" lon="-118.3938693">
  <ele>-12.812</ele>
  <time>2026-09-02T22:07:40Z</time>
  <course>186.73</course>
  <speed>0.022360679774997897</speed>
  <fix>3d</fix>
</trkpt>
<trkpt lat="33.8103131" lon="-118.3938692">
  <ele>-12.5</ele>
  <time>2026-09-02T22:07:40Z</time>
  <course>275.15</course>
  <speed>0.0</speed>
  <fix>3d</fix>
</trkpt>
<trkpt lat="33.8103133" lon="-118.3938693">
  <ele>-12.809</ele>
  <time>2026-09-02T22:07:40Z</time>
  <course>186.73</course>
  <speed>0.022360679774997897</speed>
  <fix>3d</fix>
</trkpt>
<trkpt lat="33.8103131" lon="-118.3938692">
  <ele>-12.5</ele>
  <time>2026-09-02T22:07:40Z</time>
  <course>275.15</course>
  <speed>0.0</speed>
  <fix>3d</fix>
</trkpt>
<trkpt lat="33.8103133" lon="-118.3938693">
  <ele>-12.809</ele>
  <time>2026-09-02T22:07:40Z</time>
  <course>186.73</course>
  <speed>0.022360679774997897</speed>
  <fix>3d</fix>
</trkpt>
<trkpt lat="33.8103131" lon="-118.3938693">
  <ele>-12.5</ele>
  <time>2026-09-02T22:07:40Z</time>
  <course>275.15</course>
  <speed>0.0</speed>
  <fix>3d</fix>
</trkpt>
<trkpt lat="33.8103133" lon="-118.3938693">
  <ele>-12.809</ele>
  <time>2026-09-02T22:07:40Z</time>
  <course>186.74</course>
  <speed>0.022360679774997897</speed>
  <fix>3d</fix>
</trkpt>
<trkpt lat="33.8103131" lon="-118.3938693">
  <ele>-12.5</ele>
  <time>2026-09-02T22:07:40Z</time>
  <course>275.15</course>
  <speed>0.0</speed>
  <fix>3d</fix>
</trkpt>
<trkpt lat="33.8103133" lon="-118.3938693">
  <ele>-12.81</ele>
  <time>2026-09-02T22:07:40Z</time>
  <course>186.74</course>
  <speed>0.022360679774997897</speed>
  <fix>3d</fix>
</trkpt>
<trkpt lat="33.8103131" lon="-118.3938693">
  <ele>-12.5</ele>
  <time>2026-09-02T22:07:40Z</time>
  <course>275.17</course>
  <speed>0.0</speed>
  <fix>3d</fix>
</trkpt>
<trkpt lat="33.8103133" lon="-118.3938693">
  <ele>-12.811</ele>
  <time>2026-09-02T22:07:40Z</time>
  <course>186.75</course>
  <speed>0.022360679774997897</speed>
  <fix>3d</fix>
</trkpt>
<trkpt lat="33.8103131" lon="-118.3938693">
  <ele>-12.5</ele>
  <time>2026-09-02T22:07:40Z</time>
  <course>275.17</course>
  <speed>0.0</speed>
  <fix>3d</fix>
</trkpt>
<trkpt lat="33.8103133" lon="-118.3938693">
  <ele>-12.813</ele>
  <time>2026-09-02T22:07:40Z</time>
  <course>186.75</course>
  <speed>0.022360679774997897</speed>
  <fix>3d</fix>
</trkpt>
<trkpt lat="33.8103131" lon="-118.3938693">
  <ele>-12.5</ele>
  <time>2026-09-02T22:07:40Z</time>
  <course>275.18</course>
  <speed>0.0</speed>
  <fix>3d</fix>
</trkpt>
<trkpt lat="33.8103133" lon="-118.3938693">
  <ele>-12.814</ele>
  <time>2026-09-02T22:07:40Z</time>
  <course>186.76</course>
  <speed>0.022360679774997897</speed>
  <fix>3d</fix>
</trkpt>
<trkpt lat="33.8103131" lon="-118.3938693">
  <ele>-12.5</ele>
  <time>2026-09-02T22:07:40Z</time>
  <course>275.18</course>
  <speed>0.0</speed>
  <fix>3d</fix>
</trkpt>
<trkpt lat="33.8103133" lon="-118.3938694">
  <ele>-12.816</ele>
  <time>2026-09-02T22:07:40Z</time>
  <course>186.76</course>
  <speed>0.022360679774997897</speed>
  <fix>3d</fix>
</trkpt>
<trkpt lat="33.8103131" lon="-118.3938693">
  <ele>-12.5</ele>
  <time>2026-09-02T22:07:40Z</time>
  <course>275.18</course>
  <speed>0.0</speed>
  <fix>3d</fix>
</trkpt>
<trkpt lat="33.8103133" lon="-118.3938694">
  <ele>-12.816</ele>
  <time>2026-09-02T22:07:40Z</time>
  <course>186.77</course>
  <speed>0.022360679774997897</speed>
  <fix>3d</fix>
</trkpt>
<trkpt lat="33.8103131" lon="-118.3938693">
  <ele>-12.5</ele>
  <time>2026-09-02T22:07:40Z</time>
  <course>275.18</course>
  <speed>0.0</speed>
  <fix>3d</fix>
</trkpt>
<trkpt lat="33.8103133" lon="-118.3938694">
  <ele>-12.817</ele>
  <time>2026-09-02T22:07:40Z</time>
  <course>186.77</course>
  <speed>0.022360679774997897</speed>
  <fix>3d</fix>
</trkpt>
<trkpt lat="33.8103131" lon="-118.3938693">
  <ele>-12.5</ele>
  <time>2026-09-02T22:07:40Z</time>
  <course>275.18</course>
  <speed>0.0</speed>
  <fix>3d</fix>
</trkpt>
<trkpt lat="33.8103133" lon="-118.3938694">
  <ele>-12.818</ele>
  <time>2026-09-02T22:07:40Z</time>
  <course>186.78</course>
  <speed>0.022360679774997897</speed>
  <fix>3d</fix>
</trkpt>
<trkpt lat="33.8103131" lon="-118.3938693">
  <ele>-12.5</ele>
  <time>2026-09-02T22:07:40Z</time>
  <course>275.18</course>
  <speed>0.0</speed>
  <fix>3d</fix>
</trkpt>
<trkpt lat="33.8103133" lon="-118.3938694">
  <ele>-12.819</ele>
  <time>2026-09-02T22:07:40Z</time>
  <course>186.78</course>
  <speed>0.022360679774997897</speed>
  <fix>3d</fix>
</trkpt>
<trkpt lat="33.8103131" lon="-118.3938693">
  <ele>-12.5</ele>
  <time>2026-09-02T22:07:40Z</time>
  <course>275.18</course>
  <speed>0.0</speed>
  <fix>3d</fix>
</trkpt>
<trkpt lat="33.8103133" lon="-118.3938694">
  <ele>-12.82</ele>
  <time>2026-09-02T22:07:40Z</time>
  <course>186.79</course>
  <speed>0.022360679774997897</speed>
  <fix>3d</fix>
</trkpt>
<trkpt lat="33.8103131" lon="-118.3938693">
  <ele>-12.5</ele>
  <time>2026-09-02T22:07:40Z</time>
  <course>275.18</course>
  <speed>0.0</speed>
  <fix>3d</fix>
</trkpt>
<trkpt lat="33.8103133" lon="-118.3938694">
  <ele>-12.82</ele>
  <time>2026-09-02T22:07:40Z</time>
  <course>186.79</course>
  <speed>0.022360679774997897</speed>
  <fix>3d</fix>
</trkpt>
<trkpt lat="33.8103131" lon="-118.3938693">
  <ele>-12.5</ele>
  <time>2026-09-02T22:07:40Z</time>
  <course>275.18</course>
  <speed>0.0</speed>
  <fix>3d</fix>
</trkpt>
<trkpt lat="33.8103133" lon="-118.3938694">
  <ele>-12.818</ele>
  <time>2026-09-02T22:07:40Z</time>
  <course>186.8</course>
  <speed>0.022360679774997897</speed>
  <fix>3d</fix>
</trkpt>
<trkpt lat="33.8103131" lon="-118.3938693">
  <ele>-12.5</ele>
  <time>2026-09-02T22:07:40Z</time>
  <course>275.18</course>
  <speed>0.0</speed>
  <fix>3d</fix>
</trkpt>
<trkpt lat="33.8103133" lon="-118.3938694">
  <ele>-12.816</ele>
  <time>2026-09-02T22:07:40Z</time>
  <course>186.8</course>
  <speed>0.022360679774997897</speed>
  <fix>3d</fix>
</trkpt>
<trkpt lat="33.8103131" lon="-118.3938693">
  <ele>-12.49</ele>
  <time>2026-09-02T22:07:40Z</time>
  <course>275.18</course>
  <speed>0.0</speed>
  <fix>3d</fix>
</trkpt>
<trkpt lat="33.8103133" lon="-118.3938694">
  <ele>-12.813</ele>
  <time>2026-09-02T22:07:40Z</time>
  <course>186.81</course>
  <speed>0.022360679774997897</speed>
  <fix>3d</fix>
</trkpt>
<trkpt lat="33.8103131" lon="-118.3938693">
  <ele>-12.49</ele>
  <time>2026-09-02T22:07:40Z</time>
  <course>275.18</course>
  <speed>0.0</speed>
  <fix>3d</fix>
</trkpt>
<trkpt lat="33.8103133" lon="-118.3938694">
  <ele>-12.81</ele>
  <time>2026-09-02T22:07:40Z</time>
  <course>186.81</course>
  <speed>0.022360679774997897</speed>
  <fix>3d</fix>
</trkpt>
<trkpt lat="33.8103131" lon="-118.3938693">
  <ele>-12.49</ele>
  <time>2026-09-02T22:07:40Z</time>
  <course>275.19</course>
  <speed>0.0</speed>
  <fix>3d</fix>
</trkpt>
<trkpt lat="33.8103133" lon="-118.3938694">
  <ele>-12.807</ele>
  <time>2026-09-02T22:07:40Z</time>
  <course>186.82</course>
  <speed>0.022360679774997897</speed>
  <fix>3d</fix>
</trkpt>
<trkpt lat="33.8103131" lon="-118.3938693">
  <ele>-12.49</ele>
  <time>2026-09-02T22:07:40Z</time>
  <course>275.19</course>
  <speed>0.0</speed>
  <fix>3d</fix>
</trkpt>
<trkpt lat="33.8103133" lon="-118.3938694">
  <ele>-12.806</ele>
  <time>2026-09-02T22:07:40Z</time>
  <course>186.82</course>
  <speed>0.022360679774997897</speed>
  <fix>3d</fix>
</trkpt>
<trkpt lat="33.8103131" lon="-118.3938694">
  <ele>-12.49</ele>
  <time>2026-09-02T22:07:40Z</time>
  <course>275.19</course>
  <speed>0.0</speed>
  <fix>3d</fix>
</trkpt>
<trkpt lat="33.8103133" lon="-118.3938694">
  <ele>-12.807</ele>
  <time>2026-09-02T22:07:40Z</time>
  <course>186.83</course>
  <speed>0.022360679774997897</speed>
  <fix>3d</fix>
</trkpt>
<trkpt lat="33.8103131" lon="-118.3938694">
  <ele>-12.49</ele>
  <time>2026-09-02T22:07:40Z</time>
  <course>275.19</course>
  <speed>0.0</speed>
  <fix>3d</fix>
</trkpt>
<trkpt lat="33.8103133" lon="-118.3938694">
  <ele>-12.809</ele>
  <time>2026-09-02T22:07:40Z</time>
  <course>186.83</course>
  <speed>0.022360679774997897</speed>
  <fix>3d</fix>
</trkpt>
<trkpt lat="33.8103131" lon="-118.3938694">
  <ele>-12.49</ele>
  <time>2026-09-02T22:07:40Z</time>
  <course>275.2</course>
  <speed>0.0</speed>
  <fix>3d</fix>
</trkpt>
<trkpt lat="33.8103133" lon="-118.3938694">
  <ele>-12.811</ele>
  <time>2026-09-02T22:07:40Z</time>
  <course>186.83</course>
  <speed>0.022360679774997897</speed>
  <fix>3d</fix>
</trkpt>
<trkpt lat="33.8103131" lon="-118.3938694">
  <ele>-12.49</ele>
  <time>2026-09-02T22:07:40Z</time>
  <course>275.2</course>
  <speed>0.0</speed>
  <fix>3d</fix>
</trkpt>
<trkpt lat="33.8103133" lon="-118.3938695">
  <ele>-12.812</ele>
  <time>2026-09-02T22:07:40Z</time>
  <course>186.84</course>
  <speed>0.022360679774997897</speed>
  <fix>3d</fix>
</trkpt>
<trkpt lat="33.8103131" lon="-118.3938694">
  <ele>-12.49</ele>
  <time>2026-09-02T22:07:40Z</time>
  <course>275.2</course>
  <speed>0.0</speed>
  <fix>3d</fix>
</trkpt>
<trkpt lat="33.8103133" lon="-118.3938695">
  <ele>-12.813</ele>
  <time>2026-09-02T22:07:40Z</time>
  <course>186.84</course>
  <speed>0.022360679774997897</speed>
  <fix>3d</fix>
</trkpt>
<trkpt lat="33.8103131" lon="-118.3938694">
  <ele>-12.49</ele>
  <time>2026-09-02T22:07:40Z</time>
  <course>275.2</course>
  <speed>0.0</speed>
  <fix>3d</fix>
</trkpt>
<trkpt lat="33.8103133" lon="-118.3938695">
  <ele>-12.814</ele>
  <time>2026-09-02T22:07:40Z</time>
  <course>186.85</course>
  <speed>0.022360679774997897</speed>
  <fix>3d</fix>
</trkpt>
<trkpt lat="33.8103131" lon="-118.3938694">
  <ele>-12.5</ele>
  <time>2026-09-02T22:07:40Z</time>
  <course>275.2</course>
  <speed>0.0</speed>
  <fix>3d</fix>
</trkpt>
<trkpt lat="33.8103133" lon="-118.3938695">
  <ele>-12.815</ele>
  <time>2026-09-02T22:07:40Z</time>
  <course>186.85</course>
  <speed>0.022360679774997897</speed>
  <fix>3d</fix>
</trkpt>
<trkpt lat="33.8103131" lon="-118.3938694">
  <ele>-12.5</ele>
  <time>2026-09-02T22:07:40Z</time>
  <course>275.2</course>
  <speed>0.0</speed>
  <fix>3d</fix>
</trkpt>
<trkpt lat="33.8103133" lon="-118.3938695">
  <ele>-12.816</ele>
  <time>2026-09-02T22:07:40Z</time>
  <course>186.86</course>
  <speed>0.0282842712474619</speed>
  <fix>3d</fix>
</trkpt>
<trkpt lat="33.8103131" lon="-118.3938694">
  <ele>-12.51</ele>
  <time>2026-09-02T22:07:40Z</time>
  <course>275.2</course>
  <speed>0.0</speed>
  <fix>3d</fix>
</trkpt>
<trkpt lat="33.8103133" lon="-118.3938695">
  <ele>-12.817</ele>
  <time>2026-09-02T22:07:40Z</time>
  <course>186.86</course>
  <speed>0.0282842712474619</speed>
  <fix>3d</fix>
</trkpt>
<trkpt lat="33.8103131" lon="-118.3938694">
  <ele>-12.51</ele>
  <time>2026-09-02T22:07:40Z</time>
  <course>275.2</course>
  <speed>0.0</speed>
  <fix>3d</fix>
</trkpt>
<trkpt lat="33.8103133" lon="-118.3938695">
  <ele>-12.817</ele>
  <time>2026-09-02T22:07:40Z</time>
  <course>186.87</course>
  <speed>0.0282842712474619</speed>
  <fix>3d</fix>
</trkpt>
<trkpt lat="33.8103131" lon="-118.3938694">
  <ele>-12.51</ele>
  <time>2026-09-02T22:07:40Z</time>
  <course>275.2</course>
  <speed>0.0</speed>
  <fix>3d</fix>
</trkpt>
<trkpt lat="33.8103133" lon="-118.3938695">
  <ele>-12.817</ele>
  <time>2026-09-02T22:07:40Z</time>
  <course>186.87</course>
  <speed>0.0282842712474619</speed>
  <fix>3d</fix>
</trkpt>
<trkpt lat="33.8103131" lon="-118.3938694">
  <ele>-12.51</ele>
  <time>2026-09-02T22:07:40Z</time>
  <course>275.2</course>
  <speed>0.0</speed>
  <fix>3d</fix>
</trkpt>
<trkpt lat="33.8103133" lon="-118.3938695">
  <ele>-12.818</ele>
  <time>2026-09-02T22:07:40Z</time>
  <course>186.88</course>
  <speed>0.0282842712474619</speed>
  <fix>3d</fix>
</trkpt>
<trkpt lat="33.8103131" lon="-118.3938694">
  <ele>-12.51</ele>
  <time>2026-09-02T22:07:40Z</time>
  <course>275.2</course>
  <speed>0.0</speed>
  <fix>3d</fix>
</trkpt>
<trkpt lat="33.8103133" lon="-118.3938695">
  <ele>-12.819</ele>
  <time>2026-09-02T22:07:40Z</time>
  <course>186.88</course>
  <speed>0.0282842712474619</speed>
  <fix>3d</fix>
</trkpt>
<trkpt lat="33.8103131" lon="-118.3938694">
  <ele>-12.51</ele>
  <time>2026-09-02T22:07:40Z</time>
  <course>275.2</course>
  <speed>0.0</speed>
  <fix>3d</fix>
</trkpt>
<trkpt lat="33.8103133" lon="-118.3938695">
  <ele>-12.82</ele>
  <time>2026-09-02T22:07:40Z</time>
  <course>186.88</course>
  <speed>0.0282842712474619</speed>
  <fix>3d</fix>
</trkpt>
<trkpt lat="33.8103131" lon="-118.3938694">
  <ele>-12.52</ele>
  <time>2026-09-02T22:07:40Z</time>
  <course>275.21</course>
  <speed>0.0</speed>
  <fix>3d</fix>
</trkpt>
<trkpt lat="33.8103133" lon="-118.3938695">
  <ele>-12.822</ele>
  <time>2026-09-02T22:07:40Z</time>
  <course>186.89</course>
  <speed>0.0282842712474619</speed>
  <fix>3d</fix>
</trkpt>
<trkpt lat="33.8103131" lon="-118.3938694">
  <ele>-12.52</ele>
  <time>2026-09-02T22:07:40Z</time>
  <course>275.21</course>
  <speed>0.0</speed>
  <fix>3d</fix>
</trkpt>
<trkpt lat="33.8103133" lon="-118.3938695">
  <ele>-12.822</ele>
  <time>2026-09-02T22:07:40Z</time>
  <course>186.89</course>
  <speed>0.0282842712474619</speed>
  <fix>3d</fix>
</trkpt>
<trkpt lat="33.8103131" lon="-118.3938694">
  <ele>-12.52</ele>
  <time>2026-09-02T22:07:40Z</time>
  <course>275.2</course>
  <speed>0.0</speed>
  <fix>3d</fix>
</trkpt>
<trkpt lat="33.8103133" lon="-118.3938695">
  <ele>-12.823</ele>
  <time>2026-09-02T22:07:40Z</time>
  <course>186.9</course>
  <speed>0.0282842712474619</speed>
  <fix>3d</fix>
</trkpt>
<trkpt lat="33.8103131" lon="-118.3938694">
  <ele>-12.52</ele>
  <time>2026-09-02T22:07:40Z</time>
  <course>275.2</course>
  <speed>0.0</speed>
  <fix>3d</fix>
</trkpt>
<trkpt lat="33.8103133" lon="-118.3938695">
  <ele>-12.822</ele>
  <time>2026-09-02T22:07:40Z</time>
  <course>186.9</course>
  <speed>0.0282842712474619</speed>
  <fix>3d</fix>
</trkpt>
<trkpt lat="33.8103131" lon="-118.3938695">
  <ele>-12.52</ele>
  <time>2026-09-02T22:07:40Z</time>
  <course>275.2</course>
  <speed>0.0</speed>
  <fix>3d</fix>
</trkpt>
<trkpt lat="33.8103133" lon="-118.3938695">
  <ele>-12.819</ele>
  <time>2026-09-02T22:07:40Z</time>
  <course>186.91</course>
  <speed>0.0282842712474619</speed>
  <fix>3d</fix>
</trkpt>
<trkpt lat="33.8103131" lon="-118.3938695">
  <ele>-12.52</ele>
  <time>2026-09-02T22:07:40Z</time>
  <course>275.2</course>
  <speed>0.0</speed>
  <fix>3d</fix>
</trkpt>
<trkpt lat="33.8103133" lon="-118.3938696">
  <ele>-12.802</ele>
  <time>2026-09-02T22:07:40Z</time>
  <course>186.91</course>
  <speed>0.022360679774997897</speed>
  <fix>3d</fix>
</trkpt>
<trkpt lat="33.8103131" lon="-118.3938695">
  <ele>-12.51</ele>
  <time>2026-09-02T22:07:40Z</time>
  <course>275.16</course>
  <speed>0.0</speed>
  <fix>3d</fix>
</trkpt>
<trkpt lat="33.8103133" lon="-118.3938696">
  <ele>-12.763</ele>
  <time>2026-09-02T22:07:40Z</time>
  <course>186.91</course>
  <speed>0.022360679774997897</speed>
  <fix>3d</fix>
</trkpt>
<trkpt lat="33.8103131" lon="-118.3938695">
  <ele>-12.51</ele>
  <time>2026-09-02T22:07:40Z</time>
  <course>275.16</course>
  <speed>0.0</speed>
  <fix>3d</fix>
</trkpt>
<trkpt lat="33.8103133" lon="-118.3938696">
  <ele>-12.763</ele>
  <time>2026-09-02T22:07:40Z</time>
  <course>186.91</course>
  <speed>0.022360679774997897</speed>
  <fix>3d</fix>
</trkpt>
<trkpt lat="33.8103133" lon="-118.3938696">
  <ele>-12.704</ele>
  <time>2026-09-02T22:07:40Z</time>
  <course>186.92</course>
  <speed>0.022360679774997897</speed>
  <fix>3d</fix>
</trkpt>
<trkpt lat="33.8103131" lon="-118.3938695">
  <ele>-12.47</ele>
  <time>2026-09-02T22:07:40Z</time>
  <course>274.89</course>
  <speed>0.0</speed>
  <fix>3d</fix>
</trkpt>
<trkpt lat="33.8103133" lon="-118.3938696">
  <ele>-12.703</ele>
  <time>2026-09-02T22:07:40Z</time>
  <course>186.92</course>
  <speed>0.022360679774997897</speed>
  <fix>3d</fix>
</trkpt>
<trkpt lat="33.8103133" lon="-118.3938696">
  <ele>-12.624</ele>
  <time>2026-09-02T22:07:40Z</time>
  <course>186.92</course>
  <speed>0.022360679774997897</speed>
  <fix>3d</fix>
</trkpt>
<trkpt lat="33.8103131" lon="-118.3938695">
  <ele>-12.47</ele>
  <time>2026-09-02T22:07:40Z</time>
  <course>274.89</course>
  <speed>0.0</speed>
  <fix>3d</fix>
</trkpt>
<trkpt lat="33.8103133" lon="-118.3938696">
  <ele>-12.589</ele>
  <time>2026-09-02T22:07:40Z</time>
  <course>186.93</course>
  <speed>0.022360679774997897</speed>
  <fix>3d</fix>
</trkpt>
<trkpt lat="33.8103133" lon="-118.3938696">
  <ele>-12.524</ele>
  <time>2026-09-02T22:07:40Z</time>
  <course>186.93</course>
  <speed>0.022360679774997897</speed>
  <fix>3d</fix>
</trkpt>
<trkpt lat="33.8103131" lon="-118.3938695">
  <ele>-12.37</ele>
  <time>2026-09-02T22:07:40Z</time>
  <course>273.21</course>
  <speed>0.0</speed>
  <fix>3d</fix>
</trkpt>
<trkpt lat="33.8103133" lon="-118.3938696">
  <ele>-12.488</ele>
  <time>2026-09-02T22:07:40Z</time>
  <course>186.93</course>
  <speed>0.022360679774997897</speed>
  <fix>3d</fix>
</trkpt>
<trkpt lat="33.8103133" lon="-118.3938696">
  <ele>-12.406</ele>
  <time>2026-09-02T22:07:40Z</time>
  <course>186.93</course>
  <speed>0.022360679774997897</speed>
  <fix>3d</fix>
</trkpt>
<trkpt lat="33.8103131" lon="-118.3938695">
  <ele>-12.37</ele>
  <time>2026-09-02T22:07:40Z</time>
  <course>273.21</course>
  <speed>0.0</speed>
  <fix>3d</fix>
</trkpt>
<trkpt lat="33.8103133" lon="-118.3938696">
  <ele>-12.362</ele>
  <time>2026-09-02T22:07:40Z</time>
  <course>186.93</course>
  <speed>0.022360679774997897</speed>
  <fix>3d</fix>
</trkpt>
<trkpt lat="33.8103133" lon="-118.3938696">
  <ele>-12.279</ele>
  <time>2026-09-02T22:07:40Z</time>
  <course>186.94</course>
  <speed>0.022360679774997897</speed>
  <fix>3d</fix>
</trkpt>
<trkpt lat="33.8103131" lon="-118.3938695">
  <ele>-12.19</ele>
  <time>2026-09-02T22:07:40Z</time>
  <course>100.19</course>
  <speed>0.0</speed>
  <fix>3d</fix>
</trkpt>
<trkpt lat="33.8103133" lon="-118.3938696">
  <ele>-12.234</ele>
  <time>2026-09-02T22:07:40Z</time>
  <course>186.94</course>
  <speed>0.022360679774997897</speed>
  <fix>3d</fix>
</trkpt>
<trkpt lat="33.8103133" lon="-118.3938696">
  <ele>-12.148</ele>
  <time>2026-09-02T22:07:40Z</time>
  <course>186.94</course>
  <speed>0.022360679774997897</speed>
  <fix>3d</fix>
</trkpt>
<trkpt lat="33.8103131" lon="-118.3938695">
  <ele>-12.19</ele>
  <time>2026-09-02T22:07:40Z</time>
  <course>100.19</course>
  <speed>0.0</speed>
  <fix>3d</fix>
</trkpt>
<trkpt lat="33.8103133" lon="-118.3938696">
  <ele>-12.103</ele>
  <time>2026-09-02T22:07:40Z</time>
  <course>186.94</course>
  <speed>0.022360679774997897</speed>
  <fix>3d</fix>
</trkpt>
<trkpt lat="33.8103133" lon="-118.3938696">
  <ele>-12.017</ele>
  <time>2026-09-02T22:07:40Z</time>
  <course>186.95</course>
  <speed>0.022360679774997897</speed>
  <fix>3d</fix>
</trkpt>
<trkpt lat="33.8103131" lon="-118.3938695">
  <ele>-11.95</ele>
  <time>2026-09-02T22:07:40Z</time>
  <course>97.81</course>
  <speed>0.0</speed>
  <fix>3d</fix>
</trkpt>
<trkpt lat="33.8103133" lon="-118.3938696">
  <ele>-11.97</ele>
  <time>2026-09-02T22:07:40Z</time>
  <course>186.95</course>
  <speed>0.022360679774997897</speed>
  <fix>3d</fix>
</trkpt>
<trkpt lat="33.8103133" lon="-118.3938696">
  <ele>-11.884</ele>
  <time>2026-09-02T22:07:40Z</time>
  <course>186.95</course>
  <speed>0.022360679774997897</speed>
  <fix>3d</fix>
</trkpt>
<trkpt lat="33.8103131" lon="-118.3938695">
  <ele>-11.95</ele>
  <time>2026-09-02T22:07:40Z</time>
  <course>97.81</course>
  <speed>0.0</speed>
  <fix>3d</fix>
</trkpt>
<trkpt lat="33.8103133" lon="-118.3938696">
  <ele>-11.837</ele>
  <time>2026-09-02T22:07:40Z</time>
  <course>186.95</course>
  <speed>0.022360679774997897</speed>
  <fix>3d</fix>
</trkpt>
<trkpt lat="33.8103133" lon="-118.3938696">
  <ele>-11.75</ele>
  <time>2026-09-02T22:07:40Z</time>
  <course>186.95</course>
  <speed>0.022360679774997897</speed>
  <fix>3d</fix>
</trkpt>
<trkpt lat="33.8103131" lon="-118.3938695">
  <ele>-11.71</ele>
  <time>2026-09-02T22:07:40Z</time>
  <course>97.79</course>
  <speed>0.0</speed>
  <fix>3d</fix>
</trkpt>
<trkpt lat="33.8103133" lon="-118.3938696">
  <ele>-11.706</ele>
  <time>2026-09-02T22:07:40Z</time>
  <course>186.96</course>
  <speed>0.022360679774997897</speed>
  <fix>3d</fix>
</trkpt>
<trkpt lat="33.8103133" lon="-118.3938696">
  <ele>-11.617</ele>
  <time>2026-09-02T22:07:40Z</time>
  <course>186.96</course>
  <speed>0.022360679774997897</speed>
  <fix>3d</fix>
</trkpt>
<trkpt lat="33.8103131" lon="-118.3938695">
  <ele>-11.71</ele>
  <time>2026-09-02T22:07:40Z</time>
  <course>97.79</course>
  <speed>0.0</speed>
  <fix>3d</fix>
</trkpt>
<trkpt lat="33.8103133" lon="-118.3938696">
  <ele>-11.569</ele>
  <time>2026-09-02T22:07:40Z</time>
  <course>186.96</course>
  <speed>0.022360679774997897</speed>
  <fix>3d</fix>
</trkpt>
<trkpt lat="33.8103133" lon="-118.3938696">
  <ele>-11.483</ele>
  <time>2026-09-02T22:07:40Z</time>
  <course>186.96</course>
  <speed>0.022360679774997897</speed>
  <fix>3d</fix>
</trkpt>
<trkpt lat="33.8103131" lon="-118.3938695">
  <ele>-11.46</ele>
  <time>2026-09-02T22:07:40Z</time>
  <course>97.82</course>
  <speed>0.0</speed>
  <fix>3d</fix>
</trkpt>
<trkpt lat="33.8103133" lon="-118.3938696">
  <ele>-11.44</ele>
  <time>2026-09-02T22:07:40Z</time>
  <course>186.97</course>
  <speed>0.022360679774997897</speed>
  <fix>3d</fix>
</trkpt>
<trkpt lat="33.8103133" lon="-118.3938696">
  <ele>-11.349</ele>
  <time>2026-09-02T22:07:40Z</time>
  <course>186.97</course>
  <speed>0.022360679774997897</speed>
  <fix>3d</fix>
</trkpt>
<trkpt lat="33.8103131" lon="-118.3938695">
  <ele>-11.46</ele>
  <time>2026-09-02T22:07:40Z</time>
  <course>97.82</course>
  <speed>0.0</speed>
  <fix>3d</fix>
</trkpt>
<trkpt lat="33.8103133" lon="-118.3938696">
  <ele>-11.346</ele>
  <time>2026-09-02T22:07:40Z</time>
  <course>186.97</course>
  <speed>0.022360679774997897</speed>
  <fix>3d</fix>
</trkpt>
<trkpt lat="33.8103133" lon="-118.3938696">
  <ele>-11.217</ele>
  <time>2026-09-02T22:07:40Z</time>
  <course>186.97</course>
  <speed>0.022360679774997897</speed>
  <fix>3d</fix>
</trkpt>
<trkpt lat="33.8103131" lon="-118.3938695">
  <ele>-11.22</ele>
  <time>2026-09-02T22:07:40Z</time>
  <course>97.87</course>
  <speed>0.0</speed>
  <fix>3d</fix>
</trkpt>
<trkpt lat="33.8103133" lon="-118.3938696">
  <ele>-11.175</ele>
  <time>2026-09-02T22:07:40Z</time>
  <course>186.97</course>
  <speed>0.022360679774997897</speed>
  <fix>3d</fix>
</trkpt>
<trkpt lat="33.8103133" lon="-118.3938696">
  <ele>-11.085</ele>
  <time>2026-09-02T22:07:40Z</time>
  <course>186.98</course>
  <speed>0.022360679774997897</speed>
  <fix>3d</fix>
</trkpt>
<trkpt lat="33.8103131" lon="-118.3938695">
  <ele>-11.22</ele>
  <time>2026-09-02T22:07:40Z</time>
  <course>97.87</course>
  <speed>0.0</speed>
  <fix>3d</fix>
</trkpt>
<trkpt lat="33.8103133" lon="-118.3938696">
  <ele>-11.04</ele>
  <time>2026-09-02T22:07:40Z</time>
  <course>186.98</course>
  <speed>0.022360679774997897</speed>
  <fix>3d</fix>
</trkpt>
<trkpt lat="33.8103133" lon="-118.3938696">
  <ele>-10.955</ele>
  <time>2026-09-02T22:07:40Z</time>
  <course>186.98</course>
  <speed>0.022360679774997897</speed>
  <fix>3d</fix>
</trkpt>
<trkpt lat="33.8103131" lon="-118.3938695">
  <ele>-10.97</ele>
  <time>2026-09-02T22:07:40Z</time>
  <course>97.91</course>
  <speed>0.0</speed>
  <fix>3d</fix>
</trkpt>
<trkpt lat="33.8103133" lon="-118.3938696">
  <ele>-10.91</ele>
  <time>2026-09-02T22:07:40Z</time>
  <course>186.98</course>
  <speed>0.022360679774997897</speed>
  <fix>3d</fix>
</trkpt>
<trkpt lat="33.8103133" lon="-118.3938696">
  <ele>-10.825</ele>
  <time>2026-09-02T22:07:40Z</time>
  <course>186.99</course>
  <speed>0.022360679774997897</speed>
  <fix>3d</fix>
</trkpt>
<trkpt lat="33.8103131" lon="-118.3938695">
  <ele>-10.97</ele>
  <time>2026-09-02T22:07:40Z</time>
  <course>97.91</course>
  <speed>0.0</speed>
  <fix>3d</fix>
</trkpt>
<trkpt lat="33.8103133" lon="-118.3938696">
  <ele>-10.777</ele>
  <time>2026-09-02T22:07:40Z</time>
  <course>186.99</course>
  <speed>0.022360679774997897</speed>
  <fix>3d</fix>
</trkpt>
<trkpt lat="33.8103133" lon="-118.3938696">
  <ele>-10.697</ele>
  <time>2026-09-02T22:07:40Z</time>
  <course>186.99</course>
  <speed>0.022360679774997897</speed>
  <fix>3d</fix>
</trkpt>
<trkpt lat="33.8103131" lon="-118.3938695">
  <ele>-10.73</ele>
  <time>2026-09-02T22:07:40Z</time>
  <course>97.96</course>
  <speed>0.0</speed>
  <fix>3d</fix>
</trkpt>
<trkpt lat="33.8103133" lon="-118.3938696">
  <ele>-10.652</ele>
  <time>2026-09-02T22:07:40Z</time>
  <course>186.99</course>
  <speed>0.022360679774997897</speed>
  <fix>3d</fix>
</trkpt>
<trkpt lat="33.8103133" lon="-118.3938696">
  <ele>-10.568</ele>
  <time>2026-09-02T22:07:40Z</time>
  <course>186.99</course>
  <speed>0.022360679774997897</speed>
  <fix>3d</fix>
</trkpt>
<trkpt lat="33.8103131" lon="-118.3938695">
  <ele>-10.73</ele>
  <time>2026-09-02T22:07:40Z</time>
  <course>97.96</course>
  <speed>0.0</speed>
  <fix>3d</fix>
</trkpt>
<trkpt lat="33.8103133" lon="-118.3938696">
  <ele>-10.523</ele>
  <time>2026-09-02T22:07:40Z</time>
  <course>187.0</course>
  <speed>0.022360679774997897</speed>
  <fix>3d</fix>
</trkpt>
<trkpt lat="33.8103133" lon="-118.3938696">
  <ele>-10.441</ele>
  <time>2026-09-02T22:07:40Z</time>
  <course>187.0</course>
  <speed>0.022360679774997897</speed>
  <fix>3d</fix>
</trkpt>
<trkpt lat="33.8103131" lon="-118.3938695">
  <ele>-10.48</ele>
  <time>2026-09-02T22:07:40Z</time>
  <course>98.01</course>
  <speed>0.0</speed>
  <fix>3d</fix>
</trkpt>
<trkpt lat="33.8103133" lon="-118.3938696">
  <ele>-10.396</ele>
  <time>2026-09-02T22:07:40Z</time>
  <course>187.0</course>
  <speed>0.022360679774997897</speed>
  <fix>3d</fix>
</trkpt>
<trkpt lat="33.8103133" lon="-118.3938696">
  <ele>-10.313</ele>
  <time>2026-09-02T22:07:40Z</time>
  <course>187.0</course>
  <speed>0.022360679774997897</speed>
  <fix>3d</fix>
</trkpt>
<trkpt lat="33.8103131" lon="-118.3938695">
  <ele>-10.48</ele>
  <time>2026-09-02T22:07:40Z</time>
  <course>98.01</course>
  <speed>0.0</speed>
  <fix>3d</fix>
</trkpt>
<trkpt lat="33.8103133" lon="-118.3938696">
  <ele>-10.272</ele>
  <time>2026-09-02T22:07:40Z</time>
  <course>187.0</course>
  <speed>0.022360679774997897</speed>
  <fix>3d</fix>
</trkpt>
<trkpt lat="33.8103133" lon="-118.3938696">
  <ele>-10.184</ele>
  <time>2026-09-02T22:07:40Z</time>
  <course>187.01</course>
  <speed>0.022360679774997897</speed>
  <fix>3d</fix>
</trkpt>
<trkpt lat="33.8103131" lon="-118.3938695">
  <ele>-10.24</ele>
  <time>2026-09-02T22:07:40Z</time>
  <course>98.06</course>
  <speed>0.0</speed>
  <fix>3d</fix>
</trkpt>
<trkpt lat="33.8103133" lon="-118.3938696">
  <ele>-10.139</ele>
  <time>2026-09-02T22:07:40Z</time>
  <course>187.01</course>
  <speed>0.022360679774997897</speed>
  <fix>3d</fix>
</trkpt>
<trkpt lat="33.8103133" lon="-118.3938696">
  <ele>-10.055</ele>
  <time>2026-09-02T22:07:40Z</time>
  <course>187.01</course>
  <speed>0.022360679774997897</speed>
  <fix>3d</fix>
</trkpt>
<trkpt lat="33.8103131" lon="-118.3938695">
  <ele>-10.24</ele>
  <time>2026-09-02T22:07:40Z</time>
  <course>98.06</course>
  <speed>0.0</speed>
  <fix>3d</fix>
</trkpt>
<trkpt lat="33.8103133" lon="-118.3938696">
  <ele>-10.008</ele>
  <time>2026-09-02T22:07:40Z</time>
  <course>187.01</course>
  <speed>0.022360679774997897</speed>
  <fix>3d</fix>
</trkpt>
<trkpt lat="33.8103133" lon="-118.3938696">
  <ele>-9.928</ele>
  <time>2026-09-02T22:07:40Z</time>
  <course>187.01</course>
  <speed>0.022360679774997897</speed>
  <fix>3d</fix>
</trkpt>
<trkpt lat="33.8103131" lon="-118.3938695">
  <ele>-9.99</ele>
  <time>2026-09-02T22:07:40Z</time>
  <course>98.11</course>
  <speed>0.0</speed>
  <fix>3d</fix>
</trkpt>
<trkpt lat="33.8103133" lon="-118.3938696">
  <ele>-9.925</ele>
  <time>2026-09-02T22:07:40Z</time>
  <course>187.01</course>
  <speed>0.022360679774997897</speed>
  <fix>3d</fix>
</trkpt>
<trkpt lat="33.8103133" lon="-118.3938696">
  <ele>-9.801</ele>
  <time>2026-09-02T22:07:40Z</time>
  <course>187.02</course>
  <speed>0.022360679774997897</speed>
  <fix>3d</fix>
</trkpt>
<trkpt lat="33.8103131" lon="-118.3938695">
  <ele>-9.99</ele>
  <time>2026-09-02T22:07:40Z</time>
  <course>98.11</course>
  <speed>0.0</speed>
  <fix>3d</fix>
</trkpt>
<trkpt lat="33.8103133" lon="-118.3938696">
  <ele>-9.798</ele>
  <time>2026-09-02T22:07:40Z</time>
  <course>187.02</course>
  <speed>0.022360679774997897</speed>
  <fix>3d</fix>
</trkpt>
<trkpt lat="33.8103133" lon="-118.3938696">
  <ele>-9.674</ele>
  <time>2026-09-02T22:07:40Z</time>
  <course>187.02</course>
  <speed>0.022360679774997897</speed>
  <fix>3d</fix>
</trkpt>
<trkpt lat="33.8103131" lon="-118.3938695">
  <ele>-9.75</ele>
  <time>2026-09-02T22:07:40Z</time>
  <course>98.16</course>
  <speed>0.0</speed>
  <fix>3d</fix>
</trkpt>
<trkpt lat="33.8103133" lon="-118.3938696">
  <ele>-9.629</ele>
  <time>2026-09-02T22:07:40Z</time>
  <course>187.02</course>
  <speed>0.022360679774997897</speed>
  <fix>3d</fix>
</trkpt>
<trkpt lat="33.8103133" lon="-118.3938696">
  <ele>-9.547</ele>
  <time>2026-09-02T22:07:40Z</time>
  <course>187.03</course>
  <speed>0.022360679774997897</speed>
  <fix>3d</fix>
</trkpt>
<trkpt lat="33.8103131" lon="-118.3938695">
  <ele>-9.75</ele>
  <time>2026-09-02T22:07:40Z</time>
  <course>98.16</course>
  <speed>0.0</speed>
  <fix>3d</fix>
</trkpt>
<trkpt lat="33.8103133" lon="-118.3938696">
  <ele>-9.503</ele>
  <time>2026-09-02T22:07:40Z</time>
  <course>187.03</course>
  <speed>0.022360679774997897</speed>
  <fix>3d</fix>
</trkpt>
<trkpt lat="33.8103133" lon="-118.3938696">
  <ele>-9.421</ele>
  <time>2026-09-02T22:07:40Z</time>
  <course>187.03</course>
  <speed>0.022360679774997897</speed>
  <fix>3d</fix>
</trkpt>
<trkpt lat="33.8103131" lon="-118.3938695">
  <ele>-9.5</ele>
  <time>2026-09-02T22:07:40Z</time>
  <course>98.22</course>
  <speed>0.0</speed>
  <fix>3d</fix>
</trkpt>
<trkpt lat="33.8103133" lon="-118.3938696">
  <ele>-9.377</ele>
  <time>2026-09-02T22:07:40Z</time>
  <course>187.03</course>
  <speed>0.022360679774997897</speed>
  <fix>3d</fix>
</trkpt>
<trkpt lat="33.8103133" lon="-118.3938696">
  <ele>-9.296</ele>
  <time>2026-09-02T22:07:40Z</time>
  <course>187.03</course>
  <speed>0.022360679774997897</speed>
  <fix>3d</fix>
</trkpt>
<trkpt lat="33.8103131" lon="-118.3938695">
  <ele>-9.5</ele>
  <time>2026-09-02T22:07:40Z</time>
  <course>98.22</course>
  <speed>0.0</speed>
  <fix>3d</fix>
</trkpt>
<trkpt lat="33.8103133" lon="-118.3938696">
  <ele>-9.255</ele>
  <time>2026-09-02T22:07:40Z</time>
  <course>187.04</course>
  <speed>0.022360679774997897</speed>
  <fix>3d</fix>
</trkpt>
<trkpt lat="33.8103133" lon="-118.3938696">
  <ele>-9.171</ele>
  <time>2026-09-02T22:07:40Z</time>
  <course>187.04</course>
  <speed>0.022360679774997897</speed>
  <fix>3d</fix>
</trkpt>
<trkpt lat="33.8103131" lon="-118.3938695">
  <ele>-9.26</ele>
  <time>2026-09-02T22:07:40Z</time>
  <course>98.28</course>
  <speed>0.0</speed>
  <fix>3d</fix>
</trkpt>
<trkpt lat="33.8103133" lon="-118.3938696">
  <ele>-9.127</ele>
  <time>2026-09-02T22:07:40Z</time>
  <course>187.04</course>
  <speed>0.022360679774997897</speed>
  <fix>3d</fix>
</trkpt>
<trkpt lat="33.8103133" lon="-118.3938696">
  <ele>-9.046</ele>
  <time>2026-09-02T22:07:40Z</time>
  <course>187.04</course>
  <speed>0.022360679774997897</speed>
  <fix>3d</fix>
</trkpt>
<trkpt lat="33.8103131" lon="-118.3938695">
  <ele>-9.26</ele>
  <time>2026-09-02T22:07:40Z</time>
  <course>98.28</course>
  <speed>0.0</speed>
  <fix>3d</fix>
</trkpt>
<trkpt lat="33.8103133" lon="-118.3938696">
  <ele>-9.005</ele>
  <time>2026-09-02T22:07:40Z</time>
  <course>187.04</course>
  <speed>0.022360679774997897</speed>
  <fix>3d</fix>
</trkpt>
<trkpt lat="33.8103133" lon="-118.3938696">
  <ele>-8.922</ele>
  <time>2026-09-02T22:07:40Z</time>
  <course>187.05</course>
  <speed>0.022360679774997897</speed>
  <fix>3d</fix>
</trkpt>
<trkpt lat="33.8103131" lon="-118.3938695">
  <ele>-9.01</ele>
  <time>2026-09-02T22:07:40Z</time>
  <course>98.34</course>
  <speed>0.0</speed>
  <fix>3d</fix>
</trkpt>
<trkpt lat="33.8103133" lon="-118.3938696">
  <ele>-8.877</ele>
  <time>2026-09-02T22:07:40Z</time>
  <course>187.05</course>
  <speed>0.022360679774997897</speed>
  <fix>3d</fix>
</trkpt>
<trkpt lat="33.8103133" lon="-118.3938696">
  <ele>-8.796</ele>
  <time>2026-09-02T22:07:40Z</time>
  <course>187.05</course>
  <speed>0.022360679774997897</speed>
  <fix>3d</fix>
</trkpt>
<trkpt lat="33.8103131" lon="-118.3938695">
  <ele>-9.01</ele>
  <time>2026-09-02T22:07:40Z</time>
  <course>98.34</course>
  <speed>0.0</speed>
  <fix>3d</fix>
</trkpt>
<trkpt lat="33.8103133" lon="-118.3938696">
  <ele>-8.753</ele>
  <time>2026-09-02T22:07:40Z</time>
  <course>187.05</course>
  <speed>0.022360679774997897</speed>
  <fix>3d</fix>
</trkpt>
<trkpt lat="33.8103133" lon="-118.3938696">
  <ele>-8.672</ele>
  <time>2026-09-02T22:07:40Z</time>
  <course>187.05</course>
  <speed>0.022360679774997897</speed>
  <fix>3d</fix>
</trkpt>
<trkpt lat="33.8103131" lon="-118.3938695">
  <ele>-8.77</ele>
  <time>2026-09-02T22:07:40Z</time>
  <course>98.4</course>
  <speed>0.0</speed>
  <fix>3d</fix>
</trkpt>
<trkpt lat="33.8103133" lon="-118.3938696">
  <ele>-8.669</ele>
  <time>2026-09-02T22:07:40Z</time>
  <course>187.05</course>
  <speed>0.022360679774997897</speed>
  <fix>3d</fix>
</trkpt>
<trkpt lat="33.8103133" lon="-118.3938696">
  <ele>-8.55</ele>
  <time>2026-09-02T22:07:40Z</time>
  <course>187.06</course>
  <speed>0.022360679774997897</speed>
  <fix>3d</fix>
</trkpt>
<trkpt lat="33.8103131" lon="-118.3938695">
  <ele>-8.77</ele>
  <time>2026-09-02T22:07:40Z</time>
  <course>98.4</course>
  <speed>0.0</speed>
  <fix>3d</fix>
</trkpt>
<trkpt lat="33.8103133" lon="-118.3938696">
  <ele>-8.495</ele>
  <time>2026-09-02T22:07:40Z</time>
  <course>187.06</course>
  <speed>0.022360679774997897</speed>
  <fix>3d</fix>
</trkpt>
<trkpt lat="33.8103133" lon="-118.3938696">
  <ele>-8.429</ele>
  <time>2026-09-02T22:07:40Z</time>
  <course>187.06</course>
  <speed>0.022360679774997897</speed>
  <fix>3d</fix>
</trkpt>
<trkpt lat="33.8103131" lon="-118.3938695">
  <ele>-8.52</ele>
  <time>2026-09-02T22:07:40Z</time>
  <course>98.47</course>
  <speed>0.0</speed>
  <fix>3d</fix>
</trkpt>
<trkpt lat="33.8103133" lon="-118.3938696">
  <ele>-8.389</ele>
  <time>2026-09-02T22:07:40Z</time>
  <course>187.06</course>
  <speed>0.022360679774997897</speed>
  <fix>3d</fix>
</trkpt>
<trkpt lat="33.8103133" lon="-118.3938696">
  <ele>-8.308</ele>
  <time>2026-09-02T22:07:40Z</time>
  <course>187.06</course>
  <speed>0.022360679774997897</speed>
  <fix>3d</fix>
</trkpt>
<trkpt lat="33.8103131" lon="-118.3938695">
  <ele>-8.52</ele>
  <time>2026-09-02T22:07:40Z</time>
  <course>98.47</course>
  <speed>0.0</speed>
  <fix>3d</fix>
</trkpt>
<trkpt lat="33.8103133" lon="-118.3938696">
  <ele>-8.283</ele>
  <time>2026-09-02T22:07:40Z</time>
  <course>187.06</course>
  <speed>0.022360679774997897</speed>
  <fix>3d</fix>
</trkpt>
<trkpt lat="33.8103133" lon="-118.3938696">
  <ele>-8.188</ele>
  <time>2026-09-02T22:07:40Z</time>
  <course>187.07</course>
  <speed>0.022360679774997897</speed>
  <fix>3d</fix>
</trkpt>
<trkpt lat="33.8103131" lon="-118.3938695">
  <ele>-8.28</ele>
  <time>2026-09-02T22:07:40Z</time>
  <course>98.53</course>
  <speed>0.0</speed>
  <fix>3d</fix>
</trkpt>
<trkpt lat="33.8103133" lon="-118.3938696">
  <ele>-8.185</ele>
  <time>2026-09-02T22:07:40Z</time>
  <course>187.07</course>
  <speed>0.022360679774997897</speed>
  <fix>3d</fix>
</trkpt>
<trkpt lat="33.8103133" lon="-118.3938696">
  <ele>-8.069</ele>
  <time>2026-09-02T22:07:40Z</time>
  <course>187.07</course>
  <speed>0.022360679774997897</speed>
  <fix>3d</fix>
</trkpt>
<trkpt lat="33.8103131" lon="-118.3938695">
  <ele>-8.28</ele>
  <time>2026-09-02T22:07:40Z</time>
  <course>98.53</course>
  <speed>0.0</speed>
  <fix>3d</fix>
</trkpt>
<trkpt lat="33.8103133" lon="-118.3938696">
  <ele>-8.03</ele>
  <time>2026-09-02T22:07:40Z</time>
  <course>187.07</course>
  <speed>0.022360679774997897</speed>
  <fix>3d</fix>
</trkpt>
<trkpt lat="33.8103133" lon="-118.3938696">
  <ele>-7.949</ele>
  <time>2026-09-02T22:07:40Z</time>
  <course>187.07</course>
  <speed>0.022360679774997897</speed>
  <fix>3d</fix>
</trkpt>
<trkpt lat="33.8103131" lon="-118.3938695">
  <ele>-8.03</ele>
  <time>2026-09-02T22:07:40Z</time>
  <course>98.6</course>
  <speed>0.0</speed>
  <fix>3d</fix>
</trkpt>
<trkpt lat="33.8103133" lon="-118.3938696">
  <ele>-7.91</ele>
  <time>2026-09-02T22:07:40Z</time>
  <course>187.07</course>
  <speed>0.022360679774997897</speed>
  <fix>3d</fix>
</trkpt>
<trkpt lat="33.8103133" lon="-118.3938696">
  <ele>-7.828</ele>
  <time>2026-09-02T22:07:40Z</time>
  <course>187.08</course>
  <speed>0.022360679774997897</speed>
  <fix>3d</fix>
</trkpt>
<trkpt lat="33.8103131" lon="-118.3938695">
  <ele>-8.03</ele>
  <time>2026-09-02T22:07:40Z</time>
  <course>98.6</course>
  <speed>0.0</speed>
  <fix>3d</fix>
</trkpt>
<trkpt lat="33.8103133" lon="-118.3938696">
  <ele>-7.784</ele>
  <time>2026-09-02T22:07:40Z</time>
  <course>187.08</course>
  <speed>0.022360679774997897</speed>
  <fix>3d</fix>
</trkpt>
<trkpt lat="33.8103133" lon="-118.3938696">
  <ele>-7.707</ele>
  <time>2026-09-02T22:07:40Z</time>
  <course>187.08</course>
  <speed>0.022360679774997897</speed>
  <fix>3d</fix>
</trkpt>
<trkpt lat="33.8103131" lon="-118.3938695">
  <ele>-7.79</ele>
  <time>2026-09-02T22:07:40Z</time>
  <course>98.67</course>
  <speed>0.0</speed>
  <fix>3d</fix>
</trkpt>
<trkpt lat="33.8103133" lon="-118.3938696">
  <ele>-7.664</ele>
  <time>2026-09-02T22:07:40Z</time>
  <course>187.08</course>
  <speed>0.022360679774997897</speed>
  <fix>3d</fix>
</trkpt>
<trkpt lat="33.8103133" lon="-118.3938696">
  <ele>-7.584</ele>
  <time>2026-09-02T22:07:40Z</time>
  <course>187.08</course>
  <speed>0.022360679774997897</speed>
  <fix>3d</fix>
</trkpt>
<trkpt lat="33.8103131" lon="-118.3938695">
  <ele>-7.79</ele>
  <time>2026-09-02T22:07:40Z</time>
  <course>98.67</course>
  <speed>0.0</speed>
  <fix>3d</fix>
</trkpt>
<trkpt lat="33.8103133" lon="-118.3938696">
  <ele>-7.551</ele>
  <time>2026-09-02T22:07:40Z</time>
  <course>187.08</course>
  <speed>0.022360679774997897</speed>
  <fix>3d</fix>
</trkpt>
<trkpt lat="33.8103133" lon="-118.3938696">
  <ele>-7.459</ele>
  <time>2026-09-02T22:07:40Z</time>
  <course>187.09</course>
  <speed>0.022360679774997897</speed>
  <fix>3d</fix>
</trkpt>
<trkpt lat="33.8103131" lon="-118.3938695">
  <ele>-7.54</ele>
  <time>2026-09-02T22:07:40Z</time>
  <course>98.75</course>
  <speed>0.0</speed>
  <fix>3d</fix>
</trkpt>
<trkpt lat="33.8103133" lon="-118.3938696">
  <ele>-7.416</ele>
  <time>2026-09-02T22:07:40Z</time>
  <course>187.09</course>
  <speed>0.022360679774997897</speed>
  <fix>3d</fix>
</trkpt>
<trkpt lat="33.8103133" lon="-118.3938696">
  <ele>-7.335</ele>
  <time>2026-09-02T22:07:40Z</time>
  <course>187.09</course>
  <speed>0.022360679774997897</speed>
  <fix>3d</fix>
</trkpt>
<trkpt lat="33.8103131" lon="-118.3938695">
  <ele>-7.54</ele>
  <time>2026-09-02T22:07:40Z</time>
  <course>98.75</course>
  <speed>0.0</speed>
  <fix>3d</fix>
</trkpt>
<trkpt lat="33.8103133" lon="-118.3938696">
  <ele>-7.332</ele>
  <time>2026-09-02T22:07:40Z</time>
  <course>187.09</course>
  <speed>0.022360679774997897</speed>
  <fix>3d</fix>
</trkpt>
<trkpt lat="33.8103133" lon="-118.3938696">
  <ele>-7.211</ele>
  <time>2026-09-02T22:07:40Z</time>
  <course>187.09</course>
  <speed>0.022360679774997897</speed>
  <fix>3d</fix>
</trkpt>
<trkpt lat="33.8103131" lon="-118.3938695">
  <ele>-7.3</ele>
  <time>2026-09-02T22:07:40Z</time>
  <course>98.84</course>
  <speed>0.0</speed>
  <fix>3d</fix>
</trkpt>
<trkpt lat="33.8103133" lon="-118.3938696">
  <ele>-7.168</ele>
  <time>2026-09-02T22:07:40Z</time>
  <course>187.09</course>
  <speed>0.022360679774997897</speed>
  <fix>3d</fix>
</trkpt>
<trkpt lat="33.8103133" lon="-118.3938696">
  <ele>-7.087</ele>
  <time>2026-09-02T22:07:40Z</time>
  <course>187.09</course>
  <speed>0.022360679774997897</speed>
  <fix>3d</fix>
</trkpt>
<trkpt lat="33.8103131" lon="-118.3938695">
  <ele>-7.3</ele>
  <time>2026-09-02T22:07:40Z</time>
  <course>98.84</course>
  <speed>0.0</speed>
  <fix>3d</fix>
</trkpt>
<trkpt lat="33.8103133" lon="-118.3938696">
  <ele>-7.047</ele>
  <time>2026-09-02T22:07:40Z</time>
  <course>187.1</course>
  <speed>0.022360679774997897</speed>
  <fix>3d</fix>
</trkpt>
<trkpt lat="33.8103133" lon="-118.3938696">
  <ele>-6.963</ele>
  <time>2026-09-02T22:07:40Z</time>
  <course>187.1</course>
  <speed>0.022360679774997897</speed>
  <fix>3d</fix>
</trkpt>
<trkpt lat="33.8103131" lon="-118.3938695">
  <ele>-7.05</ele>
  <time>2026-09-02T22:07:40Z</time>
  <course>98.92</course>
  <speed>0.0</speed>
  <fix>3d</fix>
</trkpt>
<trkpt lat="33.8103133" lon="-118.3938696">
  <ele>-6.92</ele>
  <time>2026-09-02T22:07:40Z</time>
  <course>187.1</course>
  <speed>0.022360679774997897</speed>
  <fix>3d</fix>
</trkpt>
<trkpt lat="33.8103133" lon="-118.3938696">
  <ele>-6.84</ele>
  <time>2026-09-02T22:07:40Z</time>
  <course>187.1</course>
  <speed>0.022360679774997897</speed>
  <fix>3d</fix>
</trkpt>
<trkpt lat="33.8103131" lon="-118.3938695">
  <ele>-7.05</ele>
  <time>2026-09-02T22:07:40Z</time>
  <course>98.92</course>
  <speed>0.0</speed>
  <fix>3d</fix>
</trkpt>
<trkpt lat="33.8103133" lon="-118.3938696">
  <ele>-6.815</ele>
  <time>2026-09-02T22:07:40Z</time>
  <course>187.1</course>
  <speed>0.022360679774997897</speed>
  <fix>3d</fix>
</trkpt>
<trkpt lat="33.8103133" lon="-118.3938696">
  <ele>-6.716</ele>
  <time>2026-09-02T22:07:40Z</time>
  <course>187.1</course>
  <speed>0.022360679774997897</speed>
  <fix>3d</fix>
</trkpt>
<trkpt lat="33.8103131" lon="-118.3938695">
  <ele>-6.81</ele>
  <time>2026-09-02T22:07:40Z</time>
  <course>99.01</course>
  <speed>0.0</speed>
  <fix>3d</fix>
</trkpt>
<trkpt lat="33.8103133" lon="-118.3938696">
  <ele>-6.657</ele>
  <time>2026-09-02T22:07:40Z</time>
  <course>187.1</course>
  <speed>0.022360679774997897</speed>
  <fix>3d</fix>
</trkpt>
<trkpt lat="33.8103133" lon="-118.3938696">
  <ele>-6.593</ele>
  <time>2026-09-02T22:07:40Z</time>
  <course>187.11</course>
  <speed>0.022360679774997897</speed>
  <fix>3d</fix>
</trkpt>
<trkpt lat="33.8103131" lon="-118.3938695">
  <ele>-6.81</ele>
  <time>2026-09-02T22:07:40Z</time>
  <course>99.01</course>
  <speed>0.0</speed>
  <fix>3d</fix>
</trkpt>
<trkpt lat="33.8103133" lon="-118.3938696">
  <ele>-6.534</ele>
  <time>2026-09-02T22:07:40Z</time>
  <course>187.11</course>
  <speed>0.022360679774997897</speed>
  <fix>3d</fix>
</trkpt>
<trkpt lat="33.8103133" lon="-118.3938696">
  <ele>-6.469</ele>
  <time>2026-09-02T22:07:40Z</time>
  <course>187.11</course>
  <speed>0.022360679774997897</speed>
  <fix>3d</fix>
</trkpt>
<trkpt lat="33.8103131" lon="-118.3938695">
  <ele>-6.56</ele>
  <time>2026-09-02T22:07:40Z</time>
  <course>99.1</course>
  <speed>0.0</speed>
  <fix>3d</fix>
</trkpt>
<trkpt lat="33.8103133" lon="-118.3938696">
  <ele>-6.41</ele>
  <time>2026-09-02T22:07:40Z</time>
  <course>187.11</course>
  <speed>0.022360679774997897</speed>
  <fix>3d</fix>
</trkpt>
<trkpt lat="33.8103133" lon="-118.3938696">
  <ele>-6.344</ele>
  <time>2026-09-02T22:07:40Z</time>
  <course>187.11</course>
  <speed>0.022360679774997897</speed>
  <fix>3d</fix>
</trkpt>
<trkpt lat="33.8103131" lon="-118.3938695">
  <ele>-6.56</ele>
  <time>2026-09-02T22:07:40Z</time>
  <course>99.1</course>
  <speed>0.0</speed>
  <fix>3d</fix>
</trkpt>
<trkpt lat="33.8103133" lon="-118.3938696">
  <ele>-6.341</ele>
  <time>2026-09-02T22:07:40Z</time>
  <course>187.11</course>
  <speed>0.022360679774997897</speed>
  <fix>3d</fix>
</trkpt>
<trkpt lat="33.8103133" lon="-118.3938696">
  <ele>-6.22</ele>
  <time>2026-09-02T22:07:40Z</time>
  <course>187.11</course>
  <speed>0.022360679774997897</speed>
  <fix>3d</fix>
</trkpt>
<trkpt lat="33.8103131" lon="-118.3938695">
  <ele>-6.31</ele>
  <time>2026-09-02T22:07:40Z</time>
  <course>99.19</course>
  <speed>0.0</speed>
  <fix>3d</fix>
</trkpt>
<trkpt lat="33.8103133" lon="-118.3938696">
  <ele>-6.155</ele>
  <time>2026-09-02T22:07:40Z</time>
  <course>187.12</course>
  <speed>0.022360679774997897</speed>
  <fix>3d</fix>
</trkpt>
<trkpt lat="33.8103133" lon="-118.3938696">
  <ele>-6.096</ele>
  <time>2026-09-02T22:07:40Z</time>
  <course>187.12</course>
  <speed>0.022360679774997897</speed>
  <fix>3d</fix>
</trkpt>
<trkpt lat="33.8103131" lon="-118.3938695">
  <ele>-6.31</ele>
  <time>2026-09-02T22:07:40Z</time>
  <course>99.19</course>
  <speed>0.0</speed>
  <fix>3d</fix>
</trkpt>
<trkpt lat="33.8103133" lon="-118.3938696">
  <ele>-6.093</ele>
  <time>2026-09-02T22:07:40Z</time>
  <course>187.12</course>
  <speed>0.022360679774997897</speed>
  <fix>3d</fix>
</trkpt>
<trkpt lat="33.8103133" lon="-118.3938696">
  <ele>-5.972</ele>
  <time>2026-09-02T22:07:40Z</time>
  <course>187.12</course>
  <speed>0.022360679774997897</speed>
  <fix>3d</fix>
</trkpt>
<trkpt lat="33.8103131" lon="-118.3938695">
  <ele>-6.07</ele>
  <time>2026-09-02T22:07:40Z</time>
  <course>99.3</course>
  <speed>0.0</speed>
  <fix>3d</fix>
</trkpt>
<trkpt lat="33.8103133" lon="-118.3938696">
  <ele>-5.916</ele>
  <time>2026-09-02T22:07:40Z</time>
  <course>187.12</course>
  <speed>0.022360679774997897</speed>
  <fix>3d</fix>
</trkpt>
<trkpt lat="33.8103133" lon="-118.3938696">
  <ele>-5.848</ele>
  <time>2026-09-02T22:07:40Z</time>
  <course>187.12</course>
  <speed>0.022360679774997897</speed>
  <fix>3d</fix>
</trkpt>
<trkpt lat="33.8103131" lon="-118.3938695">
  <ele>-6.07</ele>
  <time>2026-09-02T22:07:40Z</time>
  <course>99.3</course>
  <speed>0.0</speed>
  <fix>3d</fix>
</trkpt>
<trkpt lat="33.8103133" lon="-118.3938696">
  <ele>-5.805</ele>
  <time>2026-09-02T22:07:40Z</time>
  <course>187.12</course>
  <speed>0.022360679774997897</speed>
  <fix>3d</fix>
</trkpt>
<trkpt lat="33.8103133" lon="-118.3938696">
  <ele>-5.724</ele>
  <time>2026-09-02T22:07:40Z</time>
  <course>187.13</course>
  <speed>0.022360679774997897</speed>
  <fix>3d</fix>
</trkpt>
<trkpt lat="33.8103131" lon="-118.3938695">
  <ele>-5.83</ele>
  <time>2026-09-02T22:07:40Z</time>
  <course>99.41</course>
  <speed>0.0</speed>
  <fix>3d</fix>
</trkpt>
<trkpt lat="33.8103133" lon="-118.3938696">
  <ele>-5.68</ele>
  <time>2026-09-02T22:07:40Z</time>
  <course>187.13</course>
  <speed>0.022360679774997897</speed>
  <fix>3d</fix>
</trkpt>
<trkpt lat="33.8103133" lon="-118.3938696">
  <ele>-5.599</ele>
  <time>2026-09-02T22:07:40Z</time>
  <course>187.13</course>
  <speed>0.022360679774997897</speed>
  <fix>3d</fix>
</trkpt>
<trkpt lat="33.8103131" lon="-118.3938695">
  <ele>-5.83</ele>
  <time>2026-09-02T22:07:40Z</time>
  <course>99.41</course>
  <speed>0.0</speed>
  <fix>3d</fix>
</trkpt>
<trkpt lat="33.8103133" lon="-118.3938696">
  <ele>-5.555</ele>
  <time>2026-09-02T22:07:40Z</time>
  <course>187.13</course>
  <speed>0.022360679774997897</speed>
  <fix>3d</fix>
</trkpt>
<trkpt lat="33.8103133" lon="-118.3938696">
  <ele>-5.473</ele>
  <time>2026-09-02T22:07:40Z</time>
  <course>187.13</course>
  <speed>0.022360679774997897</speed>
  <fix>3d</fix>
</trkpt>
<trkpt lat="33.8103131" lon="-118.3938695">
  <ele>-5.58</ele>
  <time>2026-09-02T22:07:40Z</time>
  <course>99.53</course>
  <speed>0.0</speed>
  <fix>3d</fix>
</trkpt>
<trkpt lat="33.8103133" lon="-118.3938696">
  <ele>-5.439</ele>
  <time>2026-09-02T22:07:40Z</time>
  <course>187.13</course>
  <speed>0.022360679774997897</speed>
  <fix>3d</fix>
</trkpt>
<trkpt lat="33.8103133" lon="-118.3938696">
  <ele>-5.347</ele>
  <time>2026-09-02T22:07:40Z</time>
  <course>187.13</course>
  <speed>0.022360679774997897</speed>
  <fix>3d</fix>
</trkpt>
<trkpt lat="33.8103131" lon="-118.3938695">
  <ele>-5.58</ele>
  <time>2026-09-02T22:07:40Z</time>
  <course>99.53</course>
  <speed>0.0</speed>
  <fix>3d</fix>
</trkpt>
<trkpt lat="33.8103133" lon="-118.3938696">
  <ele>-5.307</ele>
  <time>2026-09-02T22:07:40Z</time>
  <course>187.14</course>
  <speed>0.022360679774997897</speed>
  <fix>3d</fix>
</trkpt>
<trkpt lat="33.8103133" lon="-118.3938696">
  <ele>-5.221</ele>
  <time>2026-09-02T22:07:40Z</time>
  <course>187.14</course>
  <speed>0.022360679774997897</speed>
  <fix>3d</fix>
</trkpt>
<trkpt lat="33.8103131" lon="-118.3938695">
  <ele>-5.34</ele>
  <time>2026-09-02T22:07:40Z</time>
  <course>99.65</course>
  <speed>0.0</speed>
  <fix>3d</fix>
</trkpt>
<trkpt lat="33.8103133" lon="-118.3938696">
  <ele>-5.177</ele>
  <time>2026-09-02T22:07:40Z</time>
  <course>187.14</course>
  <speed>0.022360679774997897</speed>
  <fix>3d</fix>
</trkpt>
<trkpt lat="33.8103133" lon="-118.3938696">
  <ele>-5.095</ele>
  <time>2026-09-02T22:07:40Z</time>
  <course>187.14</course>
  <speed>0.022360679774997897</speed>
  <fix>3d</fix>
</trkpt>
<trkpt lat="33.8103131" lon="-118.3938695">
  <ele>-5.34</ele>
  <time>2026-09-02T22:07:40Z</time>
  <course>99.65</course>
  <speed>0.0</speed>
  <fix>3d</fix>
</trkpt>
<trkpt lat="33.8103133" lon="-118.3938696">
  <ele>-5.089</ele>
  <time>2026-09-02T22:07:40Z</time>
  <course>187.14</course>
  <speed>0.022360679774997897</speed>
  <fix>3d</fix>
</trkpt>
<trkpt lat="33.8103133" lon="-118.3938696">
  <ele>-4.968</ele>
  <time>2026-09-02T22:07:40Z</time>
  <course>187.14</course>
  <speed>0.022360679774997897</speed>
  <fix>3d</fix>
</trkpt>
<trkpt lat="33.8103131" lon="-118.3938695">
  <ele>-5.09</ele>
  <time>2026-09-02T22:07:40Z</time>
  <course>99.78</course>
  <speed>0.0</speed>
  <fix>3d</fix>
</trkpt>
<trkpt lat="33.8103133" lon="-118.3938696">
  <ele>-4.924</ele>
  <time>2026-09-02T22:07:40Z</time>
  <course>187.14</course>
  <speed>0.022360679774997897</speed>
  <fix>3d</fix>
</trkpt>
<trkpt lat="33.8103133" lon="-118.3938696">
  <ele>-4.841</ele>
  <time>2026-09-02T22:07:40Z</time>
  <course>187.14</course>
  <speed>0.022360679774997897</speed>
  <fix>3d</fix>
</trkpt>
<trkpt lat="33.8103131" lon="-118.3938695">
  <ele>-5.09</ele>
  <time>2026-09-02T22:07:40Z</time>
  <course>99.78</course>
  <speed>0.0</speed>
  <fix>3d</fix>
</trkpt>
<trkpt lat="33.8103133" lon="-118.3938696">
  <ele>-4.713</ele>
  <time>2026-09-02T22:07:40Z</time>
  <course>187.15</course>
  <speed>0.022360679774997897</speed>
  <fix>3d</fix>
</trkpt>
<trkpt lat="33.8103131" lon="-118.3938695">
  <ele>-4.85</ele>
  <time>2026-09-02T22:07:40Z</time>
  <course>99.91</course>
  <speed>0.0</speed>
  <fix>3d</fix>
</trkpt>
<trkpt lat="33.8103133" lon="-118.3938696">
  <ele>-4.586</ele>
  <time>2026-09-02T22:07:40Z</time>
  <course>187.15</course>
  <speed>0.022360679774997897</speed>
  <fix>3d</fix>
</trkpt>
<trkpt lat="33.8103131" lon="-118.3938695">
  <ele>-4.85</ele>
  <time>2026-09-02T22:07:40Z</time>
  <course>99.91</course>
  <speed>0.0</speed>
  <fix>3d</fix>
</trkpt>
<trkpt lat="33.8103133" lon="-118.3938696">
  <ele>-4.461</ele>
  <time>2026-09-02T22:07:40Z</time>
  <course>187.15</course>
  <speed>0.022360679774997897</speed>
  <fix>3d</fix>
</trkpt>
<trkpt lat="33.8103131" lon="-118.3938695">
  <ele>-4.6</ele>
  <time>2026-09-02T22:07:40Z</time>
  <course>100.23</course>
  <speed>0.0</speed>
  <fix>3d</fix>
</trkpt>
<trkpt lat="33.8103133" lon="-118.3938696">
  <ele>-4.342</ele>
  <time>2026-09-02T22:07:40Z</time>
  <course>187.15</course>
  <speed>0.022360679774997897</speed>
  <fix>3d</fix>
</trkpt>
<trkpt lat="33.8103131" lon="-118.3938695">
  <ele>-4.6</ele>
  <time>2026-09-02T22:07:40Z</time>
  <course>100.23</course>
  <speed>0.0</speed>
  <fix>3d</fix>
</trkpt>
<trkpt lat="33.8103133" lon="-118.3938696">
  <ele>-4.232</ele>
  <time>2026-09-02T22:07:40Z</time>
  <course>187.16</course>
  <speed>0.022360679774997897</speed>
  <fix>3d</fix>
</trkpt>
<trkpt lat="33.8103131" lon="-118.3938695">
  <ele>-4.37</ele>
  <time>2026-09-02T22:07:40Z</time>
  <course>104.81</course>
  <speed>0.0</speed>
  <fix>3d</fix>
</trkpt>
<trkpt lat="33.8103133" lon="-118.3938696">
  <ele>-4.137</ele>
  <time>2026-09-02T22:07:40Z</time>
  <course>187.16</course>
  <speed>0.022360679774997897</speed>
  <fix>3d</fix>
</trkpt>
<trkpt lat="33.8103131" lon="-118.3938695">
  <ele>-4.37</ele>
  <time>2026-09-02T22:07:40Z</time>
  <course>104.81</course>
  <speed>0.0</speed>
  <fix>3d</fix>
</trkpt>
<trkpt lat="33.8103133" lon="-118.3938696">
  <ele>-4.057</ele>
  <time>2026-09-02T22:07:40Z</time>
  <course>187.16</course>
  <speed>0.022360679774997897</speed>
  <fix>3d</fix>
</trkpt>
<trkpt lat="33.8103131" lon="-118.3938695">
  <ele>-4.15</ele>
  <time>2026-09-02T22:07:40Z</time>
  <course>272.57</course>
  <speed>0.0</speed>
  <fix>3d</fix>
</trkpt>
<trkpt lat="33.8103133" lon="-118.3938696">
  <ele>-3.994</ele>
  <time>2026-09-02T22:07:40Z</time>
  <course>187.16</course>
  <speed>0.01414213562373095</speed>
  <fix>3d</fix>
</trkpt>
<trkpt lat="33.8103131" lon="-118.3938695">
  <ele>-4.15</ele>
  <time>2026-09-02T22:07:40Z</time>
  <course>272.57</course>
  <speed>0.0</speed>
  <fix>3d</fix>
</trkpt>
<trkpt lat="33.8103133" lon="-118.3938696">
  <ele>-3.945</ele>
  <time>2026-09-02T22:07:40Z</time>
  <course>187.17</course>
  <speed>0.01414213562373095</speed>
  <fix>3d</fix>
</trkpt>
<trkpt lat="33.8103131" lon="-118.3938695">
  <ele>-3.99</ele>
  <time>2026-09-02T22:07:40Z</time>
  <course>274.94</course>
  <speed>0.0</speed>
  <fix>3d</fix>
</trkpt>
<trkpt lat="33.8103133" lon="-118.3938696">
  <ele>-3.909</ele>
  <time>2026-09-02T22:07:40Z</time>
  <course>187.17</course>
  <speed>0.01414213562373095</speed>
  <fix>3d</fix>
</trkpt>
<trkpt lat="33.8103131" lon="-118.3938695">
  <ele>-3.99</ele>
  <time>2026-09-02T22:07:40Z</time>
  <course>274.94</course>
  <speed>0.0</speed>
  <fix>3d</fix>
</trkpt>
<trkpt lat="33.8103133" lon="-118.3938696">
  <ele>-3.883</ele>
  <time>2026-09-02T22:07:40Z</time>
  <course>187.17</course>
  <speed>0.01414213562373095</speed>
  <fix>3d</fix>
</trkpt>
<trkpt lat="33.8103131" lon="-118.3938695">
  <ele>-3.88</ele>
  <time>2026-09-02T22:07:40Z</time>
  <course>275.35</course>
  <speed>0.0</speed>
  <fix>3d</fix>
</trkpt>
<trkpt lat="33.8103133" lon="-118.3938696">
  <ele>-3.867</ele>
  <time>2026-09-02T22:07:40Z</time>
  <course>187.17</course>
  <speed>0.01414213562373095</speed>
  <fix>3d</fix>
</trkpt>
<trkpt lat="33.8103131" lon="-118.3938695">
  <ele>-3.88</ele>
  <time>2026-09-02T22:07:40Z</time>
  <course>275.35</course>
  <speed>0.0</speed>
  <fix>3d</fix>
</trkpt>
<trkpt lat="33.8103133" lon="-118.3938696">
  <ele>-3.859</ele>
  <time>2026-09-02T22:07:40Z</time>
  <course>187.18</course>
  <speed>0.01414213562373095</speed>
  <fix>3d</fix>
</trkpt>
<trkpt lat="33.8103131" lon="-118.3938695">
  <ele>-3.83</ele>
  <time>2026-09-02T22:07:40Z</time>
  <course>275.47</course>
  <speed>0.0</speed>
  <fix>3d</fix>
</trkpt>
<trkpt lat="33.8103133" lon="-118.3938696">
  <ele>-3.857</ele>
  <time>2026-09-02T22:07:40Z</time>
  <course>187.18</course>
  <speed>0.01414213562373095</speed>
  <fix>3d</fix>
</trkpt>
<trkpt lat="33.8103131" lon="-118.3938695">
  <ele>-3.83</ele>
  <time>2026-09-02T22:07:41Z</time>
  <course>275.47</course>
  <speed>0.0</speed>
  <fix>3d</fix>
</trkpt>
<trkpt lat="33.8103133" lon="-118.3938696">
  <ele>-3.859</ele>
  <time>2026-09-02T22:07:41Z</time>
  <course>187.18</course>
  <speed>0.01414213562373095</speed>
  <fix>3d</fix>
</trkpt>
<trkpt lat="33.8103131" lon="-118.3938695">
  <ele>-3.8</ele>
  <time>2026-09-02T22:07:41Z</time>
  <course>275.53</course>
  <speed>0.0</speed>
  <fix>3d</fix>
</trkpt>
<trkpt lat="33.8103133" lon="-118.3938696">
  <ele>-3.862</ele>
  <time>2026-09-02T22:07:41Z</time>
  <course>187.18</course>
  <speed>0.01414213562373095</speed>
  <fix>3d</fix>
</trkpt>
<trkpt lat="33.8103131" lon="-118.3938695">
  <ele>-3.8</ele>
  <time>2026-09-02T22:07:41Z</time>
  <course>275.53</course>
  <speed>0.0</speed>
  <fix>3d</fix>
</trkpt>
<trkpt lat="33.8103133" lon="-118.3938696">
  <ele>-3.866</ele>
  <time>2026-09-02T22:07:41Z</time>
  <course>187.19</course>
  <speed>0.01414213562373095</speed>
  <fix>3d</fix>
</trkpt>
<trkpt lat="33.8103131" lon="-118.3938695">
  <ele>-3.8</ele>
  <time>2026-09-02T22:07:41Z</time>
  <course>275.56</course>
  <speed>0.0</speed>
  <fix>3d</fix>
</trkpt>
<trkpt lat="33.8103133" lon="-118.3938696">
  <ele>-3.867</ele>
  <time>2026-09-02T22:07:41Z</time>
  <course>187.19</course>
  <speed>0.01414213562373095</speed>
  <fix>3d</fix>
</trkpt>
<trkpt lat="33.8103131" lon="-118.3938695">
  <ele>-3.8</ele>
  <time>2026-09-02T22:07:41Z</time>
  <course>275.56</course>
  <speed>0.0</speed>
  <fix>3d</fix>
</trkpt>
<trkpt lat="33.8103133" lon="-118.3938696">
  <ele>-3.868</ele>
  <time>2026-09-02T22:07:41Z</time>
  <course>187.19</course>
  <speed>0.01414213562373095</speed>
  <fix>3d</fix>
</trkpt>
<trkpt lat="33.8103131" lon="-118.3938695">
  <ele>-3.79</ele>
  <time>2026-09-02T22:07:41Z</time>
  <course>275.56</course>
  <speed>0.0</speed>
  <fix>3d</fix>
</trkpt>
<trkpt lat="33.8103133" lon="-118.3938696">
  <ele>-3.868</ele>
  <time>2026-09-02T22:07:41Z</time>
  <course>187.19</course>
  <speed>0.01414213562373095</speed>
  <fix>3d</fix>
</trkpt>
<trkpt lat="33.8103131" lon="-118.3938695">
  <ele>-3.79</ele>
  <time>2026-09-02T22:07:41Z</time>
  <course>275.56</course>
  <speed>0.0</speed>
  <fix>3d</fix>
</trkpt>
<trkpt lat="33.8103133" lon="-118.3938696">
  <ele>-3.868</ele>
  <time>2026-09-02T22:07:41Z</time>
  <course>187.19</course>
  <speed>0.01414213562373095</speed>
  <fix>3d</fix>
</trkpt>
<trkpt lat="33.8103131" lon="-118.3938695">
  <ele>-3.79</ele>
  <time>2026-09-02T22:07:41Z</time>
  <course>275.56</course>
  <speed>0.0</speed>
  <fix>3d</fix>
</trkpt>
<trkpt lat="33.8103133" lon="-118.3938696">
  <ele>-3.867</ele>
  <time>2026-09-02T22:07:41Z</time>
  <course>187.2</course>
  <speed>0.022360679774997897</speed>
  <fix>3d</fix>
</trkpt>
<trkpt lat="33.8103131" lon="-118.3938695">
  <ele>-3.79</ele>
  <time>2026-09-02T22:07:41Z</time>
  <course>275.56</course>
  <speed>0.0</speed>
  <fix>3d</fix>
</trkpt>
<trkpt lat="33.8103133" lon="-118.3938696">
  <ele>-3.865</ele>
  <time>2026-09-02T22:07:41Z</time>
  <course>187.2</course>
  <speed>0.022360679774997897</speed>
  <fix>3d</fix>
</trkpt>
<trkpt lat="33.8103131" lon="-118.3938695">
  <ele>-3.78</ele>
  <time>2026-09-02T22:07:41Z</time>
  <course>275.56</course>
  <speed>0.0</speed>
  <fix>3d</fix>
</trkpt>
<trkpt lat="33.8103133" lon="-118.3938696">
  <ele>-3.863</ele>
  <time>2026-09-02T22:07:41Z</time>
  <course>187.2</course>
  <speed>0.022360679774997897</speed>
  <fix>3d</fix>
</trkpt>
<trkpt lat="33.8103131" lon="-118.3938695">
  <ele>-3.78</ele>
  <time>2026-09-02T22:07:41Z</time>
  <course>275.56</course>
  <speed>0.0</speed>
  <fix>3d</fix>
</trkpt>
<trkpt lat="33.8103133" lon="-118.3938696">
  <ele>-3.863</ele>
  <time>2026-09-02T22:07:41Z</time>
  <course>187.2</course>
  <speed>0.022360679774997897</speed>
  <fix>3d</fix>
</trkpt>
<trkpt lat="33.8103131" lon="-118.3938695">
  <ele>-3.77</ele>
  <time>2026-09-02T22:07:41Z</time>
  <course>275.55</course>
  <speed>0.0</speed>
  <fix>3d</fix>
</trkpt>
<trkpt lat="33.8103133" lon="-118.3938696">
  <ele>-3.862</ele>
  <time>2026-09-02T22:07:41Z</time>
  <course>187.2</course>
  <speed>0.022360679774997897</speed>
  <fix>3d</fix>
</trkpt>
<trkpt lat="33.8103131" lon="-118.3938695">
  <ele>-3.77</ele>
  <time>2026-09-02T22:07:41Z</time>
  <course>275.55</course>
  <speed>0.0</speed>
  <fix>3d</fix>
</trkpt>
<trkpt lat="33.8103133" lon="-118.3938696">
  <ele>-3.862</ele>
  <time>2026-09-02T22:07:41Z</time>
  <course>187.21</course>
  <speed>0.022360679774997897</speed>
  <fix>3d</fix>
</trkpt>
<trkpt lat="33.8103131" lon="-118.3938695">
  <ele>-3.77</ele>
  <time>2026-09-02T22:07:41Z</time>
  <course>275.56</course>
  <speed>0.0</speed>
  <fix>3d</fix>
</trkpt>
<trkpt lat="33.8103133" lon="-118.3938696">
  <ele>-3.863</ele>
  <time>2026-09-02T22:07:41Z</time>
  <course>187.21</course>
  <speed>0.022360679774997897</speed>
  <fix>3d</fix>
</trkpt>
<trkpt lat="33.8103131" lon="-118.3938695">
  <ele>-3.77</ele>
  <time>2026-09-02T22:07:41Z</time>
  <course>275.56</course>
  <speed>0.0</speed>
  <fix>3d</fix>
</trkpt>
<trkpt lat="33.8103133" lon="-118.3938696">
  <ele>-3.864</ele>
  <time>2026-09-02T22:07:41Z</time>
  <course>187.21</course>
  <speed>0.022360679774997897</speed>
  <fix>3d</fix>
</trkpt>
<trkpt lat="33.8103131" lon="-118.3938695">
  <ele>-3.76</ele>
  <time>2026-09-02T22:07:41Z</time>
  <course>275.57</course>
  <speed>0.0</speed>
  <fix>3d</fix>
</trkpt>
<trkpt lat="33.8103133" lon="-118.3938696">
  <ele>-3.864</ele>
  <time>2026-09-02T22:07:41Z</time>
  <course>187.21</course>
  <speed>0.022360679774997897</speed>
  <fix>3d</fix>
</trkpt>
<trkpt lat="33.8103131" lon="-118.3938695">
  <ele>-3.76</ele>
  <time>2026-09-02T22:07:41Z</time>
  <course>275.57</course>
  <speed>0.0</speed>
  <fix>3d</fix>
</trkpt>
<trkpt lat="33.8103133" lon="-118.3938696">
  <ele>-3.864</ele>
  <time>2026-09-02T22:07:41Z</time>
  <course>187.22</course>
  <speed>0.022360679774997897</speed>
  <fix>3d</fix>
</trkpt>
<trkpt lat="33.8103131" lon="-118.3938695">
  <ele>-3.76</ele>
  <time>2026-09-02T22:07:41Z</time>
  <course>275.57</course>
  <speed>0.0</speed>
  <fix>3d</fix>
</trkpt>
<trkpt lat="33.8103133" lon="-118.3938696">
  <ele>-3.863</ele>
  <time>2026-09-02T22:07:41Z</time>
  <course>187.22</course>
  <speed>0.022360679774997897</speed>
  <fix>3d</fix>
</trkpt>
<trkpt lat="33.8103131" lon="-118.3938695">
  <ele>-3.76</ele>
  <time>2026-09-02T22:07:41Z</time>
  <course>275.57</course>
  <speed>0.0</speed>
  <fix>3d</fix>
</trkpt>
<trkpt lat="33.8103133" lon="-118.3938696">
  <ele>-3.86</ele>
  <time>2026-09-02T22:07:41Z</time>
  <course>187.22</course>
  <speed>0.022360679774997897</speed>
  <fix>3d</fix>
</trkpt>
<trkpt lat="33.8103131" lon="-118.3938695">
  <ele>-3.75</ele>
  <time>2026-09-02T22:07:41Z</time>
  <course>275.57</course>
  <speed>0.0</speed>
  <fix>3d</fix>
</trkpt>
<trkpt lat="33.8103133" lon="-118.3938696">
  <ele>-3.857</ele>
  <time>2026-09-02T22:07:41Z</time>
  <course>187.22</course>
  <speed>0.022360679774997897</speed>
  <fix>3d</fix>
</trkpt>
<trkpt lat="33.8103131" lon="-118.3938695">
  <ele>-3.75</ele>
  <time>2026-09-02T22:07:41Z</time>
  <course>275.57</course>
  <speed>0.0</speed>
  <fix>3d</fix>
</trkpt>
<trkpt lat="33.8103133" lon="-118.3938696">
  <ele>-3.855</ele>
  <time>2026-09-02T22:07:41Z</time>
  <course>187.22</course>
  <speed>0.022360679774997897</speed>
  <fix>3d</fix>
</trkpt>
<trkpt lat="33.8103131" lon="-118.3938695">
  <ele>-3.75</ele>
  <time>2026-09-02T22:07:41Z</time>
  <course>275.57</course>
  <speed>0.0</speed>
  <fix>3d</fix>
</trkpt>
<trkpt lat="33.8103133" lon="-118.3938696">
  <ele>-3.853</ele>
  <time>2026-09-02T22:07:41Z</time>
  <course>187.23</course>
  <speed>0.022360679774997897</speed>
  <fix>3d</fix>
</trkpt>
<trkpt lat="33.8103131" lon="-118.3938695">
  <ele>-3.75</ele>
  <time>2026-09-02T22:07:41Z</time>
  <course>275.57</course>
  <speed>0.0</speed>
  <fix>3d</fix>
</trkpt>
<trkpt lat="33.8103133" lon="-118.3938696">
  <ele>-3.853</ele>
  <time>2026-09-02T22:07:41Z</time>
  <course>187.23</course>
  <speed>0.022360679774997897</speed>
  <fix>3d</fix>
</trkpt>
<trkpt lat="33.8103131" lon="-118.3938695">
  <ele>-3.75</ele>
  <time>2026-09-02T22:07:41Z</time>
  <course>275.58</course>
  <speed>0.0</speed>
  <fix>3d</fix>
</trkpt>
<trkpt lat="33.8103133" lon="-118.3938696">
  <ele>-3.853</ele>
  <time>2026-09-02T22:07:41Z</time>
  <course>187.23</course>
  <speed>0.022360679774997897</speed>
  <fix>3d</fix>
</trkpt>
<trkpt lat="33.8103131" lon="-118.3938695">
  <ele>-3.75</ele>
  <time>2026-09-02T22:07:41Z</time>
  <course>275.58</course>
  <speed>0.0</speed>
  <fix>3d</fix>
</trkpt>
<trkpt lat="33.8103133" lon="-118.3938696">
  <ele>-3.855</ele>
  <time>2026-09-02T22:07:41Z</time>
  <course>187.23</course>
  <speed>0.022360679774997897</speed>
  <fix>3d</fix>
</trkpt>
<trkpt lat="33.8103131" lon="-118.3938695">
  <ele>-3.75</ele>
  <time>2026-09-02T22:07:41Z</time>
  <course>275.59</course>
  <speed>0.0</speed>
  <fix>3d</fix>
</trkpt>
<trkpt lat="33.8103133" lon="-118.3938696">
  <ele>-3.857</ele>
  <time>2026-09-02T22:07:41Z</time>
  <course>187.24</course>
  <speed>0.022360679774997897</speed>
  <fix>3d</fix>
</trkpt>
<trkpt lat="33.8103131" lon="-118.3938695">
  <ele>-3.75</ele>
  <time>2026-09-02T22:07:41Z</time>
  <course>275.59</course>
  <speed>0.0</speed>
  <fix>3d</fix>
</trkpt>
<trkpt lat="33.8103133" lon="-118.3938696">
  <ele>-3.859</ele>
  <time>2026-09-02T22:07:41Z</time>
  <course>187.24</course>
  <speed>0.022360679774997897</speed>
  <fix>3d</fix>
</trkpt>
<trkpt lat="33.8103131" lon="-118.3938695">
  <ele>-3.75</ele>
  <time>2026-09-02T22:07:41Z</time>
  <course>275.6</course>
  <speed>0.0</speed>
  <fix>3d</fix>
</trkpt>
<trkpt lat="33.8103133" lon="-118.3938696">
  <ele>-3.861</ele>
  <time>2026-09-02T22:07:41Z</time>
  <course>187.24</course>
  <speed>0.022360679774997897</speed>
  <fix>3d</fix>
</trkpt>
<trkpt lat="33.8103131" lon="-118.3938695">
  <ele>-3.75</ele>
  <time>2026-09-02T22:07:41Z</time>
  <course>275.6</course>
  <speed>0.0</speed>
  <fix>3d</fix>
</trkpt>
<trkpt lat="33.8103133" lon="-118.3938696">
  <ele>-3.862</ele>
  <time>2026-09-02T22:07:41Z</time>
  <course>187.24</course>
  <speed>0.022360679774997897</speed>
  <fix>3d</fix>
</trkpt>
<trkpt lat="33.8103131" lon="-118.3938695">
  <ele>-3.76</ele>
  <time>2026-09-02T22:07:41Z</time>
  <course>275.6</course>
  <speed>0.0</speed>
  <fix>3d</fix>
</trkpt>
<trkpt lat="33.8103133" lon="-118.3938696">
  <ele>-3.863</ele>
  <time>2026-09-02T22:07:41Z</time>
  <course>187.24</course>
  <speed>0.022360679774997897</speed>
  <fix>3d</fix>
</trkpt>
<trkpt lat="33.8103131" lon="-118.3938695">
  <ele>-3.76</ele>
  <time>2026-09-02T22:07:41Z</time>
  <course>275.6</course>
  <speed>0.0</speed>
  <fix>3d</fix>
</trkpt>
<trkpt lat="33.8103133" lon="-118.3938696">
  <ele>-3.862</ele>
  <time>2026-09-02T22:07:41Z</time>
  <course>187.25</course>
  <speed>0.022360679774997897</speed>
  <fix>3d</fix>
</trkpt>
<trkpt lat="33.8103131" lon="-118.3938695">
  <ele>-3.76</ele>
  <time>2026-09-02T22:07:41Z</time>
  <course>275.6</course>
  <speed>0.0</speed>
  <fix>3d</fix>
</trkpt>
<trkpt lat="33.8103133" lon="-118.3938696">
  <ele>-3.862</ele>
  <time>2026-09-02T22:07:41Z</time>
  <course>187.25</course>
  <speed>0.022360679774997897</speed>
  <fix>3d</fix>
</trkpt>
<trkpt lat="33.8103131" lon="-118.3938695">
  <ele>-3.76</ele>
  <time>2026-09-02T22:07:41Z</time>
  <course>275.6</course>
  <speed>0.0</speed>
  <fix>3d</fix>
</trkpt>
<trkpt lat="33.8103133" lon="-118.3938696">
  <ele>-3.863</ele>
  <time>2026-09-02T22:07:41Z</time>
  <course>187.25</course>
  <speed>0.022360679774997897</speed>
  <fix>3d</fix>
</trkpt>
<trkpt lat="33.8103131" lon="-118.3938695">
  <ele>-3.77</ele>
  <time>2026-09-02T22:07:41Z</time>
  <course>275.59</course>
  <speed>0.0</speed>
  <fix>3d</fix>
</trkpt>
<trkpt lat="33.8103133" lon="-118.3938696">
  <ele>-3.863</ele>
  <time>2026-09-02T22:07:41Z</time>
  <course>187.25</course>
  <speed>0.022360679774997897</speed>
  <fix>3d</fix>
</trkpt>
<trkpt lat="33.8103131" lon="-118.3938695">
  <ele>-3.77</ele>
  <time>2026-09-02T22:07:41Z</time>
  <course>275.59</course>
  <speed>0.0</speed>
  <fix>3d</fix>
</trkpt>
<trkpt lat="33.8103133" lon="-118.3938696">
  <ele>-3.864</ele>
  <time>2026-09-02T22:07:41Z</time>
  <course>187.25</course>
  <speed>0.022360679774997897</speed>
  <fix>3d</fix>
</trkpt>
<trkpt lat="33.8103131" lon="-118.3938695">
  <ele>-3.77</ele>
  <time>2026-09-02T22:07:41Z</time>
  <course>275.59</course>
  <speed>0.0</speed>
  <fix>3d</fix>
</trkpt>
<trkpt lat="33.8103133" lon="-118.3938696">
  <ele>-3.864</ele>
  <time>2026-09-02T22:07:41Z</time>
  <course>187.26</course>
  <speed>0.022360679774997897</speed>
  <fix>3d</fix>
</trkpt>
<trkpt lat="33.8103131" lon="-118.3938695">
  <ele>-3.77</ele>
  <time>2026-09-02T22:07:41Z</time>
  <course>275.59</course>
  <speed>0.0</speed>
  <fix>3d</fix>
</trkpt>
<trkpt lat="33.8103133" lon="-118.3938696">
  <ele>-3.863</ele>
  <time>2026-09-02T22:07:41Z</time>
  <course>187.26</course>
  <speed>0.022360679774997897</speed>
  <fix>3d</fix>
</trkpt>
<trkpt lat="33.8103131" lon="-118.3938695">
  <ele>-3.76</ele>
  <time>2026-09-02T22:07:41Z</time>
  <course>275.6</course>
  <speed>0.0</speed>
  <fix>3d</fix>
</trkpt>
<trkpt lat="33.8103133" lon="-118.3938696">
  <ele>-3.862</ele>
  <time>2026-09-02T22:07:41Z</time>
  <course>187.26</course>
  <speed>0.022360679774997897</speed>
  <fix>3d</fix>
</trkpt>
<trkpt lat="33.8103131" lon="-118.3938695">
  <ele>-3.76</ele>
  <time>2026-09-02T22:07:41Z</time>
  <course>275.6</course>
  <speed>0.0</speed>
  <fix>3d</fix>
</trkpt>
<trkpt lat="33.8103133" lon="-118.3938696">
  <ele>-3.861</ele>
  <time>2026-09-02T22:07:41Z</time>
  <course>187.26</course>
  <speed>0.022360679774997897</speed>
  <fix>3d</fix>
</trkpt>
<trkpt lat="33.8103131" lon="-118.3938696">
  <ele>-3.76</ele>
  <time>2026-09-02T22:07:41Z</time>
  <course>275.6</course>
  <speed>0.0</speed>
  <fix>3d</fix>
</trkpt>
<trkpt lat="33.8103133" lon="-118.3938696">
  <ele>-3.86</ele>
  <time>2026-09-02T22:07:41Z</time>
  <course>187.26</course>
  <speed>0.022360679774997897</speed>
  <fix>3d</fix>
</trkpt>
<trkpt lat="33.8103131" lon="-118.3938696">
  <ele>-3.76</ele>
  <time>2026-09-02T22:07:41Z</time>
  <course>275.6</course>
  <speed>0.0</speed>
  <fix>3d</fix>
</trkpt>
<trkpt lat="33.8103133" lon="-118.3938696">
  <ele>-3.859</ele>
  <time>2026-09-02T22:07:41Z</time>
  <course>187.27</course>
  <speed>0.022360679774997897</speed>
  <fix>3d</fix>
</trkpt>
<trkpt lat="33.8103131" lon="-118.3938697">
  <ele>-3.76</ele>
  <time>2026-09-02T22:07:41Z</time>
  <course>275.6</course>
  <speed>0.0</speed>
  <fix>3d</fix>
</trkpt>
<trkpt lat="33.8103133" lon="-118.3938696">
  <ele>-3.86</ele>
  <time>2026-09-02T22:07:41Z</time>
  <course>187.27</course>
  <speed>0.022360679774997897</speed>
  <fix>3d</fix>
</trkpt>
<trkpt lat="33.8103131" lon="-118.3938697">
  <ele>-3.76</ele>
  <time>2026-09-02T22:07:41Z</time>
  <course>275.6</course>
  <speed>0.0</speed>
  <fix>3d</fix>
</trkpt>
<trkpt lat="33.8103133" lon="-118.3938697">
  <ele>-3.861</ele>
  <time>2026-09-02T22:07:41Z</time>
  <course>187.27</course>
  <speed>0.022360679774997897</speed>
  <fix>3d</fix>
</trkpt>
<trkpt lat="33.8103131" lon="-118.3938697">
  <ele>-3.76</ele>
  <time>2026-09-02T22:07:41Z</time>
  <course>275.61</course>
  <speed>0.0</speed>
  <fix>3d</fix>
</trkpt>
<trkpt lat="33.8103133" lon="-118.3938697">
  <ele>-3.863</ele>
  <time>2026-09-02T22:07:41Z</time>
  <course>187.27</course>
  <speed>0.022360679774997897</speed>
  <fix>3d</fix>
</trkpt>
<trkpt lat="33.8103131" lon="-118.3938697">
  <ele>-3.76</ele>
  <time>2026-09-02T22:07:41Z</time>
  <course>275.61</course>
  <speed>0.0</speed>
  <fix>3d</fix>
</trkpt>
<trkpt lat="33.8103133" lon="-118.3938697">
  <ele>-3.865</ele>
  <time>2026-09-02T22:07:41Z</time>
  <course>187.27</course>
  <speed>0.022360679774997897</speed>
  <fix>3d</fix>
</trkpt>
<trkpt lat="33.8103131" lon="-118.3938697">
  <ele>-3.76</ele>
  <time>2026-09-02T22:07:41Z</time>
  <course>275.61</course>
  <speed>0.0</speed>
  <fix>3d</fix>
</trkpt>
<trkpt lat="33.8103133" lon="-118.3938697">
  <ele>-3.867</ele>
  <time>2026-09-02T22:07:41Z</time>
  <course>187.28</course>
  <speed>0.022360679774997897</speed>
  <fix>3d</fix>
</trkpt>
<trkpt lat="33.8103131" lon="-118.3938697">
  <ele>-3.76</ele>
  <time>2026-09-02T22:07:41Z</time>
  <course>275.61</course>
  <speed>0.0</speed>
  <fix>3d</fix>
</trkpt>
<trkpt lat="33.8103133" lon="-118.3938697">
  <ele>-3.869</ele>
  <time>2026-09-02T22:07:41Z</time>
  <course>187.28</course>
  <speed>0.022360679774997897</speed>
  <fix>3d</fix>
</trkpt>
<trkpt lat="33.8103131" lon="-118.3938697">
  <ele>-3.77</ele>
  <time>2026-09-02T22:07:41Z</time>
  <course>275.6</course>
  <speed>0.0</speed>
  <fix>3d</fix>
</trkpt>
<trkpt lat="33.8103133" lon="-118.3938697">
  <ele>-3.869</ele>
  <time>2026-09-02T22:07:41Z</time>
  <course>187.28</course>
  <speed>0.022360679774997897</speed>
  <fix>3d</fix>
</trkpt>
<trkpt lat="33.8103131" lon="-118.3938697">
  <ele>-3.77</ele>
  <time>2026-09-02T22:07:41Z</time>
  <course>275.6</course>
  <speed>0.0</speed>
  <fix>3d</fix>
</trkpt>
<trkpt lat="33.8103133" lon="-118.3938697">
  <ele>-3.868</ele>
  <time>2026-09-02T22:07:41Z</time>
  <course>187.28</course>
  <speed>0.022360679774997897</speed>
  <fix>3d</fix>
</trkpt>
<trkpt lat="33.8103131" lon="-118.3938697">
  <ele>-3.76</ele>
  <time>2026-09-02T22:07:41Z</time>
  <course>275.6</course>
  <speed>0.0</speed>
  <fix>3d</fix>
</trkpt>
<trkpt lat="33.8103133" lon="-118.3938697">
  <ele>-3.867</ele>
  <time>2026-09-02T22:07:41Z</time>
  <course>187.28</course>
  <speed>0.022360679774997897</speed>
  <fix>3d</fix>
</trkpt>
<trkpt lat="33.8103131" lon="-118.3938697">
  <ele>-3.76</ele>
  <time>2026-09-02T22:07:41Z</time>
  <course>275.6</course>
  <speed>0.0</speed>
  <fix>3d</fix>
</trkpt>
<trkpt lat="33.8103133" lon="-118.3938698">
  <ele>-3.865</ele>
  <time>2026-09-02T22:07:41Z</time>
  <course>187.29</course>
  <speed>0.022360679774997897</speed>
  <fix>3d</fix>
</trkpt>
<trkpt lat="33.8103131" lon="-118.3938697">
  <ele>-3.76</ele>
  <time>2026-09-02T22:07:41Z</time>
  <course>275.6</course>
  <speed>0.0</speed>
  <fix>3d</fix>
</trkpt>
<trkpt lat="33.8103133" lon="-118.3938698">
  <ele>-3.861</ele>
  <time>2026-09-02T22:07:41Z</time>
  <course>187.29</course>
  <speed>0.0282842712474619</speed>
  <fix>3d</fix>
</trkpt>
<trkpt lat="33.8103131" lon="-118.3938697">
  <ele>-3.76</ele>
  <time>2026-09-02T22:07:41Z</time>
  <course>275.6</course>
  <speed>0.0</speed>
  <fix>3d</fix>
</trkpt>
<trkpt lat="33.8103133" lon="-118.3938698">
  <ele>-3.855</ele>
  <time>2026-09-02T22:07:41Z</time>
  <course>187.29</course>
  <speed>0.0282842712474619</speed>
  <fix>3d</fix>
</trkpt>
<trkpt lat="33.8103131" lon="-118.3938697">
  <ele>-3.75</ele>
  <time>2026-09-02T22:07:41Z</time>
  <course>275.6</course>
  <speed>0.0</speed>
  <fix>3d</fix>
</trkpt>
<trkpt lat="33.8103133" lon="-118.3938698">
  <ele>-3.852</ele>
  <time>2026-09-02T22:07:41Z</time>
  <course>187.29</course>
  <speed>0.0282842712474619</speed>
  <fix>3d</fix>
</trkpt>
<trkpt lat="33.8103131" lon="-118.3938697">
  <ele>-3.75</ele>
  <time>2026-09-02T22:07:41Z</time>
  <course>275.6</course>
  <speed>0.0</speed>
  <fix>3d</fix>
</trkpt>
<trkpt lat="33.8103133" lon="-118.3938698">
  <ele>-3.852</ele>
  <time>2026-09-02T22:07:41Z</time>
  <course>187.29</course>
  <speed>0.0282842712474619</speed>
  <fix>3d</fix>
</trkpt>
<trkpt lat="33.8103131" lon="-118.3938697">
  <ele>-3.75</ele>
  <time>2026-09-02T22:07:41Z</time>
  <course>275.64</course>
  <speed>0.0</speed>
  <fix>3d</fix>
</trkpt>
<trkpt lat="33.8103133" lon="-118.3938698">
  <ele>-3.852</ele>
  <time>2026-09-02T22:07:41Z</time>
  <course>187.29</course>
  <speed>0.0282842712474619</speed>
  <fix>3d</fix>
</trkpt>
<trkpt lat="33.8103131" lon="-118.3938697">
  <ele>-3.75</ele>
  <time>2026-09-02T22:07:41Z</time>
  <course>275.64</course>
  <speed>0.0</speed>
  <fix>3d</fix>
</trkpt>
<trkpt lat="33.8103133" lon="-118.3938698">
  <ele>-3.853</ele>
  <time>2026-09-02T22:07:41Z</time>
  <course>187.3</course>
  <speed>0.0282842712474619</speed>
  <fix>3d</fix>
</trkpt>
<trkpt lat="33.8103131" lon="-118.3938697">
  <ele>-3.75</ele>
  <time>2026-09-02T22:07:41Z</time>
  <course>275.72</course>
  <speed>0.0</speed>
  <fix>3d</fix>
</trkpt>
<trkpt lat="33.8103133" lon="-118.3938698">
  <ele>-3.854</ele>
  <time>2026-09-02T22:07:41Z</time>
  <course>187.3</course>
  <speed>0.0282842712474619</speed>
  <fix>3d</fix>
</trkpt>
<trkpt lat="33.8103131" lon="-118.3938697">
  <ele>-3.75</ele>
  <time>2026-09-02T22:07:41Z</time>
  <course>275.72</course>
  <speed>0.0</speed>
  <fix>3d</fix>
</trkpt>
<trkpt lat="33.8103133" lon="-118.3938698">
  <ele>-3.855</ele>
  <time>2026-09-02T22:07:41Z</time>
  <course>187.3</course>
  <speed>0.0282842712474619</speed>
  <fix>3d</fix>
</trkpt>
<trkpt lat="33.8103131" lon="-118.3938698">
  <ele>-3.75</ele>
  <time>2026-09-02T22:07:41Z</time>
  <course>275.78</course>
  <speed>0.0</speed>
  <fix>3d</fix>
</trkpt>
<trkpt lat="33.8103133" lon="-118.3938698">
  <ele>-3.855</ele>
  <time>2026-09-02T22:07:41Z</time>
  <course>187.3</course>
  <speed>0.0282842712474619</speed>
  <fix>3d</fix>
</trkpt>
<trkpt lat="33.8103131" lon="-118.3938698">
  <ele>-3.75</ele>
  <time>2026-09-02T22:07:41Z</time>
  <course>275.78</course>
  <speed>0.0</speed>
  <fix>3d</fix>
</trkpt>
<trkpt lat="33.8103133" lon="-118.3938699">
  <ele>-3.856</ele>
  <time>2026-09-02T22:07:41Z</time>
  <course>187.3</course>
  <speed>0.0282842712474619</speed>
  <fix>3d</fix>
</trkpt>
<trkpt lat="33.8103131" lon="-118.3938698">
  <ele>-3.75</ele>
  <time>2026-09-02T22:07:41Z</time>
  <course>275.83</course>
  <speed>0.0</speed>
  <fix>3d</fix>
</trkpt>
<trkpt lat="33.8103133" lon="-118.3938699">
  <ele>-3.858</ele>
  <time>2026-09-02T22:07:41Z</time>
  <course>187.3</course>
  <speed>0.0282842712474619</speed>
  <fix>3d</fix>
</trkpt>
<trkpt lat="33.8103131" lon="-118.3938698">
  <ele>-3.75</ele>
  <time>2026-09-02T22:07:41Z</time>
  <course>275.83</course>
  <speed>0.0</speed>
  <fix>3d</fix>
</trkpt>
<trkpt lat="33.8103133" lon="-118.3938699">
  <ele>-3.859</ele>
  <time>2026-09-02T22:07:41Z</time>
  <course>187.31</course>
  <speed>0.0282842712474619</speed>
  <fix>3d</fix>
</trkpt>
<trkpt lat="33.8103131" lon="-118.3938698">
  <ele>-3.76</ele>
  <time>2026-09-02T22:07:41Z</time>
  <course>275.87</course>
  <speed>0.0</speed>
  <fix>3d</fix>
</trkpt>
<trkpt lat="33.8103133" lon="-118.3938699">
  <ele>-3.86</ele>
  <time>2026-09-02T22:07:41Z</time>
  <course>187.31</course>
  <speed>0.0282842712474619</speed>
  <fix>3d</fix>
</trkpt>
<trkpt lat="33.8103131" lon="-118.3938698">
  <ele>-3.76</ele>
  <time>2026-09-02T22:07:41Z</time>
  <course>275.87</course>
  <speed>0.0</speed>
  <fix>3d</fix>
</trkpt>
<trkpt lat="33.8103133" lon="-118.3938699">
  <ele>-3.859</ele>
  <time>2026-09-02T22:07:41Z</time>
  <course>187.31</course>
  <speed>0.0282842712474619</speed>
  <fix>3d</fix>
</trkpt>
<trkpt lat="33.8103131" lon="-118.3938698">
  <ele>-3.76</ele>
  <time>2026-09-02T22:07:41Z</time>
  <course>275.9</course>
  <speed>0.0</speed>
  <fix>3d</fix>
</trkpt>
<trkpt lat="33.8103133" lon="-118.3938699">
  <ele>-3.86</ele>
  <time>2026-09-02T22:07:41Z</time>
  <course>187.31</course>
  <speed>0.0282842712474619</speed>
  <fix>3d</fix>
</trkpt>
<trkpt lat="33.8103131" lon="-118.3938698">
  <ele>-3.76</ele>
  <time>2026-09-02T22:07:41Z</time>
  <course>275.9</course>
  <speed>0.0</speed>
  <fix>3d</fix>
</trkpt>
<trkpt lat="33.8103133" lon="-118.3938699">
  <ele>-3.861</ele>
  <time>2026-09-02T22:07:41Z</time>
  <course>187.31</course>
  <speed>0.0282842712474619</speed>
  <fix>3d</fix>
</trkpt>
<trkpt lat="33.8103131" lon="-118.3938698">
  <ele>-3.76</ele>
  <time>2026-09-02T22:07:41Z</time>
  <course>275.93</course>
  <speed>0.0</speed>
  <fix>3d</fix>
</trkpt>
<trkpt lat="33.8103133" lon="-118.3938699">
  <ele>-3.861</ele>
  <time>2026-09-02T22:07:41Z</time>
  <course>187.31</course>
  <speed>0.0282842712474619</speed>
  <fix>3d</fix>
</trkpt>
<trkpt lat="33.8103131" lon="-118.3938698">
  <ele>-3.76</ele>
  <time>2026-09-02T22:07:41Z</time>
  <course>275.93</course>
  <speed>0.0</speed>
  <fix>3d</fix>
</trkpt>
<trkpt lat="33.8103133" lon="-118.39387">
  <ele>-3.861</ele>
  <time>2026-09-02T22:07:41Z</time>
  <course>187.32</course>
  <speed>0.0282842712474619</speed>
  <fix>3d</fix>
</trkpt>
<trkpt lat="33.8103131" lon="-118.3938698">
  <ele>-3.76</ele>
  <time>2026-09-02T22:07:41Z</time>
  <course>275.95</course>
  <speed>0.01</speed>
  <fix>3d</fix>
</trkpt>
<trkpt lat="33.8103133" lon="-118.39387">
  <ele>-3.861</ele>
  <time>2026-09-02T22:07:41Z</time>
  <course>187.32</course>
  <speed>0.0282842712474619</speed>
  <fix>3d</fix>
</trkpt>
<trkpt lat="33.8103131" lon="-118.3938698">
  <ele>-3.76</ele>
  <time>2026-09-02T22:07:41Z</time>
  <course>275.95</course>
  <speed>0.01</speed>
  <fix>3d</fix>
</trkpt>
<trkpt lat="33.8103133" lon="-118.39387">
  <ele>-3.862</ele>
  <time>2026-09-02T22:07:41Z</time>
  <course>187.32</course>
  <speed>0.0282842712474619</speed>
  <fix>3d</fix>
</trkpt>
<trkpt lat="33.8103131" lon="-118.3938699">
  <ele>-3.76</ele>
  <time>2026-09-02T22:07:41Z</time>
  <course>275.96</course>
  <speed>0.01</speed>
  <fix>3d</fix>
</trkpt>
<trkpt lat="33.8103133" lon="-118.39387">
  <ele>-3.862</ele>
  <time>2026-09-02T22:07:41Z</time>
  <course>187.32</course>
  <speed>0.0282842712474619</speed>
  <fix>3d</fix>
</trkpt>
<trkpt lat="33.8103131" lon="-118.3938699">
  <ele>-3.76</ele>
  <time>2026-09-02T22:07:41Z</time>
  <course>275.96</course>
  <speed>0.01</speed>
  <fix>3d</fix>
</trkpt>
<trkpt lat="33.8103133" lon="-118.39387">
  <ele>-3.863</ele>
  <time>2026-09-02T22:07:41Z</time>
  <course>187.32</course>
  <speed>0.0282842712474619</speed>
  <fix>3d</fix>
</trkpt>
<trkpt lat="33.8103131" lon="-118.3938699">
  <ele>-3.76</ele>
  <time>2026-09-02T22:07:41Z</time>
  <course>275.98</course>
  <speed>0.01</speed>
  <fix>3d</fix>
</trkpt>
<trkpt lat="33.8103133" lon="-118.39387">
  <ele>-3.864</ele>
  <time>2026-09-02T22:07:41Z</time>
  <course>187.32</course>
  <speed>0.0282842712474619</speed>
  <fix>3d</fix>
</trkpt>
<trkpt lat="33.8103131" lon="-118.3938699">
  <ele>-3.76</ele>
  <time>2026-09-02T22:07:41Z</time>
  <course>275.98</course>
  <speed>0.01</speed>
  <fix>3d</fix>
</trkpt>
<trkpt lat="33.8103133" lon="-118.39387">
  <ele>-3.864</ele>
  <time>2026-09-02T22:07:41Z</time>
  <course>187.32</course>
  <speed>0.0282842712474619</speed>
  <fix>3d</fix>
</trkpt>
<trkpt lat="33.8103131" lon="-118.3938699">
  <ele>-3.76</ele>
  <time>2026-09-02T22:07:41Z</time>
  <course>275.99</course>
  <speed>0.01</speed>
  <fix>3d</fix>
</trkpt>
<trkpt lat="33.8103133" lon="-118.39387">
  <ele>-3.864</ele>
  <time>2026-09-02T22:07:41Z</time>
  <course>187.33</course>
  <speed>0.0282842712474619</speed>
  <fix>3d</fix>
</trkpt>
<trkpt lat="33.8103131" lon="-118.3938699">
  <ele>-3.76</ele>
  <time>2026-09-02T22:07:41Z</time>
  <course>275.99</course>
  <speed>0.01</speed>
  <fix>3d</fix>
</trkpt>
<trkpt lat="33.8103133" lon="-118.3938701">
  <ele>-3.864</ele>
  <time>2026-09-02T22:07:41Z</time>
  <course>187.33</course>
  <speed>0.0282842712474619</speed>
  <fix>3d</fix>
</trkpt>
<trkpt lat="33.8103131" lon="-118.3938699">
  <ele>-3.76</ele>
  <time>2026-09-02T22:07:41Z</time>
  <course>276.01</course>
  <speed>0.01</speed>
  <fix>3d</fix>
</trkpt>
<trkpt lat="33.8103133" lon="-118.3938701">
  <ele>-3.864</ele>
  <time>2026-09-02T22:07:41Z</time>
  <course>187.33</course>
  <speed>0.0282842712474619</speed>
  <fix>3d</fix>
</trkpt>
<trkpt lat="33.8103131" lon="-118.3938699">
  <ele>-3.76</ele>
  <time>2026-09-02T22:07:41Z</time>
  <course>276.01</course>
  <speed>0.01</speed>
  <fix>3d</fix>
</trkpt>
<trkpt lat="33.8103133" lon="-118.3938701">
  <ele>-3.864</ele>
  <time>2026-09-02T22:07:41Z</time>
  <course>187.33</course>
  <speed>0.0282842712474619</speed>
  <fix>3d</fix>
</trkpt>
<trkpt lat="33.8103131" lon="-118.39387">
  <ele>-3.76</ele>
  <time>2026-09-02T22:07:41Z</time>
  <course>276.02</course>
  <speed>0.01</speed>
  <fix>3d</fix>
</trkpt>
<trkpt lat="33.8103133" lon="-118.3938701">
  <ele>-3.864</ele>
  <time>2026-09-02T22:07:41Z</time>
  <course>187.33</course>
  <speed>0.0282842712474619</speed>
  <fix>3d</fix>
</trkpt>
<trkpt lat="33.8103131" lon="-118.39387">
  <ele>-3.76</ele>
  <time>2026-09-02T22:07:41Z</time>
  <course>276.02</course>
  <speed>0.01</speed>
  <fix>3d</fix>
</trkpt>
<trkpt lat="33.8103133" lon="-118.3938701">
  <ele>-3.863</ele>
  <time>2026-09-02T22:07:41Z</time>
  <course>187.33</course>
  <speed>0.0282842712474619</speed>
  <fix>3d</fix>
</trkpt>
<trkpt lat="33.8103131" lon="-118.39387">
  <ele>-3.76</ele>
  <time>2026-09-02T22:07:41Z</time>
  <course>276.04</course>
  <speed>0.01</speed>
  <fix>3d</fix>
</trkpt>
<trkpt lat="33.8103133" lon="-118.3938701">
  <ele>-3.861</ele>
  <time>2026-09-02T22:07:41Z</time>
  <course>187.33</course>
  <speed>0.0282842712474619</speed>
  <fix>3d</fix>
</trkpt>
<trkpt lat="33.8103131" lon="-118.39387">
  <ele>-3.76</ele>
  <time>2026-09-02T22:07:41Z</time>
  <course>276.04</course>
  <speed>0.01</speed>
  <fix>3d</fix>
</trkpt>
<trkpt lat="33.8103133" lon="-118.3938701">
  <ele>-3.86</ele>
  <time>2026-09-02T22:07:41Z</time>
  <course>187.33</course>
  <speed>0.0282842712474619</speed>
  <fix>3d</fix>
</trkpt>
<trkpt lat="33.8103131" lon="-118.39387">
  <ele>-3.76</ele>
  <time>2026-09-02T22:07:41Z</time>
  <course>276.04</course>
  <speed>0.01</speed>
  <fix>3d</fix>
</trkpt>
<trkpt lat="33.8103133" lon="-118.3938702">
  <ele>-3.86</ele>
  <time>2026-09-02T22:07:41Z</time>
  <course>187.34</course>
  <speed>0.0282842712474619</speed>
  <fix>3d</fix>
</trkpt>
<trkpt lat="33.8103131" lon="-118.39387">
  <ele>-3.76</ele>
  <time>2026-09-02T22:07:41Z</time>
  <course>276.04</course>
  <speed>0.01</speed>
  <fix>3d</fix>
</trkpt>
<trkpt lat="33.8103133" lon="-118.3938702">
  <ele>-3.86</ele>
  <time>2026-09-02T22:07:41Z</time>
  <course>187.34</course>
  <speed>0.0282842712474619</speed>
  <fix>3d</fix>
</trkpt>
<trkpt lat="33.8103131" lon="-118.39387">
  <ele>-3.76</ele>
  <time>2026-09-02T22:07:41Z</time>
  <course>276.05</course>
  <speed>0.01</speed>
  <fix>3d</fix>
</trkpt>
<trkpt lat="33.8103133" lon="-118.3938702">
  <ele>-3.862</ele>
  <time>2026-09-02T22:07:41Z</time>
  <course>187.34</course>
  <speed>0.0282842712474619</speed>
  <fix>3d</fix>
</trkpt>
<trkpt lat="33.8103131" lon="-118.39387">
  <ele>-3.76</ele>
  <time>2026-09-02T22:07:41Z</time>
  <course>276.05</course>
  <speed>0.01</speed>
  <fix>3d</fix>
</trkpt>
<trkpt lat="33.8103133" lon="-118.3938702">
  <ele>-3.864</ele>
  <time>2026-09-02T22:07:41Z</time>
  <course>187.34</course>
  <speed>0.0282842712474619</speed>
  <fix>3d</fix>
</trkpt>
<trkpt lat="33.8103131" lon="-118.3938701">
  <ele>-3.76</ele>
  <time>2026-09-02T22:07:41Z</time>
  <course>276.06</course>
  <speed>0.01</speed>
  <fix>3d</fix>
</trkpt>
<trkpt lat="33.8103133" lon="-118.3938702">
  <ele>-3.865</ele>
  <time>2026-09-02T22:07:41Z</time>
  <course>187.34</course>
  <speed>0.03605551275463989</speed>
  <fix>3d</fix>
</trkpt>
<trkpt lat="33.8103131" lon="-118.3938701">
  <ele>-3.76</ele>
  <time>2026-09-02T22:07:41Z</time>
  <course>276.06</course>
  <speed>0.01</speed>
  <fix>3d</fix>
</trkpt>
<trkpt lat="33.8103133" lon="-118.3938702">
  <ele>-3.865</ele>
  <time>2026-09-02T22:07:41Z</time>
  <course>187.34</course>
  <speed>0.03605551275463989</speed>
  <fix>3d</fix>
</trkpt>
<trkpt lat="33.8103131" lon="-118.3938701">
  <ele>-3.77</ele>
  <time>2026-09-02T22:07:41Z</time>
  <course>276.07</course>
  <speed>0.01</speed>
  <fix>3d</fix>
</trkpt>
<trkpt lat="33.8103133" lon="-118.3938702">
  <ele>-3.866</ele>
  <time>2026-09-02T22:07:41Z</time>
  <course>187.34</course>
  <speed>0.03605551275463989</speed>
  <fix>3d</fix>
</trkpt>
<trkpt lat="33.8103131" lon="-118.3938701">
  <ele>-3.77</ele>
  <time>2026-09-02T22:07:41Z</time>
  <course>276.07</course>
  <speed>0.01</speed>
  <fix>3d</fix>
</trkpt>
<trkpt lat="33.8103133" lon="-118.3938703">
  <ele>-3.866</ele>
  <time>2026-09-02T22:07:41Z</time>
  <course>187.34</course>
  <speed>0.03605551275463989</speed>
  <fix>3d</fix>
</trkpt>
<trkpt lat="33.8103131" lon="-118.3938701">
  <ele>-3.77</ele>
  <time>2026-09-02T22:07:41Z</time>
  <course>276.08</course>
  <speed>0.01</speed>
  <fix>3d</fix>
</trkpt>
<trkpt lat="33.8103133" lon="-118.3938703">
  <ele>-3.865</ele>
  <time>2026-09-02T22:07:41Z</time>
  <course>187.34</course>
  <speed>0.03605551275463989</speed>
  <fix>3d</fix>
</trkpt>
<trkpt lat="33.8103131" lon="-118.3938701">
  <ele>-3.77</ele>
  <time>2026-09-02T22:07:41Z</time>
  <course>276.08</course>
  <speed>0.01</speed>
  <fix>3d</fix>
</trkpt>
<trkpt lat="33.8103133" lon="-118.3938703">
  <ele>-3.864</ele>
  <time>2026-09-02T22:07:41Z</time>
  <course>187.35</course>
  <speed>0.03605551275463989</speed>
  <fix>3d</fix>
</trkpt>
<trkpt lat="33.8103131" lon="-118.3938702">
  <ele>-3.77</ele>
  <time>2026-09-02T22:07:41Z</time>
  <course>276.08</course>
  <speed>0.01</speed>
  <fix>3d</fix>
</trkpt>
<trkpt lat="33.8103133" lon="-118.3938703">
  <ele>-3.863</ele>
  <time>2026-09-02T22:07:41Z</time>
  <course>187.35</course>
  <speed>0.03605551275463989</speed>
  <fix>3d</fix>
</trkpt>
<trkpt lat="33.8103131" lon="-118.3938702">
  <ele>-3.77</ele>
  <time>2026-09-02T22:07:41Z</time>
  <course>276.08</course>
  <speed>0.01</speed>
  <fix>3d</fix>
</trkpt>
<trkpt lat="33.8103133" lon="-118.3938703">
  <ele>-3.862</ele>
  <time>2026-09-02T22:07:41Z</time>
  <course>187.35</course>
  <speed>0.03605551275463989</speed>
  <fix>3d</fix>
</trkpt>
<trkpt lat="33.8103131" lon="-118.3938702">
  <ele>-3.76</ele>
  <time>2026-09-02T22:07:41Z</time>
  <course>276.09</course>
  <speed>0.01</speed>
  <fix>3d</fix>
</trkpt>
<trkpt lat="33.8103133" lon="-118.3938703">
  <ele>-3.862</ele>
  <time>2026-09-02T22:07:41Z</time>
  <course>187.35</course>
  <speed>0.03605551275463989</speed>
  <fix>3d</fix>
</trkpt>
<trkpt lat="33.8103131" lon="-118.3938702">
  <ele>-3.76</ele>
  <time>2026-09-02T22:07:41Z</time>
  <course>276.09</course>
  <speed>0.01</speed>
  <fix>3d</fix>
</trkpt>
<trkpt lat="33.8103133" lon="-118.3938704">
  <ele>-3.863</ele>
  <time>2026-09-02T22:07:41Z</time>
  <course>187.35</course>
  <speed>0.03605551275463989</speed>
  <fix>3d</fix>
</trkpt>
<trkpt lat="33.8103131" lon="-118.3938702">
  <ele>-3.76</ele>
  <time>2026-09-02T22:07:41Z</time>
  <course>276.09</course>
  <speed>0.01</speed>
  <fix>3d</fix>
</trkpt>
<trkpt lat="33.8103133" lon="-118.3938704">
  <ele>-3.863</ele>
  <time>2026-09-02T22:07:41Z</time>
  <course>187.35</course>
  <speed>0.03605551275463989</speed>
  <fix>3d</fix>
</trkpt>
<trkpt lat="33.8103131" lon="-118.3938702">
  <ele>-3.76</ele>
  <time>2026-09-02T22:07:41Z</time>
  <course>276.09</course>
  <speed>0.01</speed>
  <fix>3d</fix>
</trkpt>
<trkpt lat="33.8103133" lon="-118.3938704">
  <ele>-3.862</ele>
  <time>2026-09-02T22:07:41Z</time>
  <course>187.35</course>
  <speed>0.03605551275463989</speed>
  <fix>3d</fix>
</trkpt>
<trkpt lat="33.8103131" lon="-118.3938703">
  <ele>-3.76</ele>
  <time>2026-09-02T22:07:41Z</time>
  <course>276.1</course>
  <speed>0.01</speed>
  <fix>3d</fix>
</trkpt>
<trkpt lat="33.8103133" lon="-118.3938704">
  <ele>-3.862</ele>
  <time>2026-09-02T22:07:41Z</time>
  <course>187.35</course>
  <speed>0.03605551275463989</speed>
  <fix>3d</fix>
</trkpt>
<trkpt lat="33.8103131" lon="-118.3938703">
  <ele>-3.76</ele>
  <time>2026-09-02T22:07:41Z</time>
  <course>276.1</course>
  <speed>0.01</speed>
  <fix>3d</fix>
</trkpt>
<trkpt lat="33.8103133" lon="-118.3938704">
  <ele>-3.863</ele>
  <time>2026-09-02T22:07:41Z</time>
  <course>187.35</course>
  <speed>0.03605551275463989</speed>
  <fix>3d</fix>
</trkpt>
<trkpt lat="33.8103131" lon="-118.3938703">
  <ele>-3.77</ele>
  <time>2026-09-02T22:07:41Z</time>
  <course>276.1</course>
  <speed>0.01</speed>
  <fix>3d</fix>
</trkpt>
<trkpt lat="33.8103133" lon="-118.3938704">
  <ele>-3.864</ele>
  <time>2026-09-02T22:07:41Z</time>
  <course>187.35</course>
  <speed>0.03605551275463989</speed>
  <fix>3d</fix>
</trkpt>
<trkpt lat="33.8103131" lon="-118.3938703">
  <ele>-3.77</ele>
  <time>2026-09-02T22:07:41Z</time>
  <course>276.1</course>
  <speed>0.01</speed>
  <fix>3d</fix>
</trkpt>
<trkpt lat="33.8103133" lon="-118.3938705">
  <ele>-3.864</ele>
  <time>2026-09-02T22:07:41Z</time>
  <course>187.36</course>
  <speed>0.03605551275463989</speed>
  <fix>3d</fix>
</trkpt>
<trkpt lat="33.8103131" lon="-118.3938703">
  <ele>-3.77</ele>
  <time>2026-09-02T22:07:41Z</time>
  <course>276.11</course>
  <speed>0.01</speed>
  <fix>3d</fix>
</trkpt>
<trkpt lat="33.8103133" lon="-118.3938705">
  <ele>-3.864</ele>
  <time>2026-09-02T22:07:41Z</time>
  <course>187.36</course>
  <speed>0.03605551275463989</speed>
  <fix>3d</fix>
</trkpt>
<trkpt lat="33.8103131" lon="-118.3938703">
  <ele>-3.77</ele>
  <time>2026-09-02T22:07:41Z</time>
  <course>276.11</course>
  <speed>0.01</speed>
  <fix>3d</fix>
</trkpt>
<trkpt lat="33.8103133" lon="-118.3938705">
  <ele>-3.867</ele>
  <time>2026-09-02T22:07:41Z</time>
  <course>187.36</course>
  <speed>0.03605551275463989</speed>
  <fix>3d</fix>
</trkpt>
<trkpt lat="33.8103131" lon="-118.3938704">
  <ele>-3.77</ele>
  <time>2026-09-02T22:07:41Z</time>
  <course>276.12</course>
  <speed>0.01</speed>
  <fix>3d</fix>
</trkpt>
<trkpt lat="33.8103133" lon="-118.3938705">
  <ele>-3.877</ele>
  <time>2026-09-02T22:07:41Z</time>
  <course>187.36</course>
  <speed>0.03605551275463989</speed>
  <fix>3d</fix>
</trkpt>
<trkpt lat="33.8103131" lon="-118.3938704">
  <ele>-3.77</ele>
  <time>2026-09-02T22:07:41Z</time>
  <course>276.12</course>
  <speed>0.01</speed>
  <fix>3d</fix>
</trkpt>
<trkpt lat="33.8103133" lon="-118.3938705">
  <ele>-3.884</ele>
  <time>2026-09-02T22:07:41Z</time>
  <course>187.36</course>
  <speed>0.03605551275463989</speed>
  <fix>3d</fix>
</trkpt>
<trkpt lat="33.8103131" lon="-118.3938704">
  <ele>-3.77</ele>
  <time>2026-09-02T22:07:41Z</time>
  <course>276.11</course>
  <speed>0.01</speed>
  <fix>3d</fix>
</trkpt>
<trkpt lat="33.8103133" lon="-118.3938705">
  <ele>-3.888</ele>
  <time>2026-09-02T22:07:41Z</time>
  <course>187.36</course>
  <speed>0.03605551275463989</speed>
  <fix>3d</fix>
</trkpt>
<trkpt lat="33.8103131" lon="-118.3938704">
  <ele>-3.77</ele>
  <time>2026-09-02T22:07:41Z</time>
  <course>276.11</course>
  <speed>0.01</speed>
  <fix>3d</fix>
</trkpt>
<trkpt lat="33.8103133" lon="-118.3938706">
  <ele>-3.888</ele>
  <time>2026-09-02T22:07:41Z</time>
  <course>187.36</course>
  <speed>0.0282842712474619</speed>
  <fix>3d</fix>
</trkpt>
<trkpt lat="33.8103131" lon="-118.3938704">
  <ele>-3.78</ele>
  <time>2026-09-02T22:07:41Z</time>
  <course>276.1</course>
  <speed>0.01</speed>
  <fix>3d</fix>
</trkpt>
<trkpt lat="33.8103133" lon="-118.3938706">
  <ele>-3.887</ele>
  <time>2026-09-02T22:07:41Z</time>
  <course>187.36</course>
  <speed>0.0282842712474619</speed>
  <fix>3d</fix>
</trkpt>
<trkpt lat="33.8103131" lon="-118.3938704">
  <ele>-3.78</ele>
  <time>2026-09-02T22:07:41Z</time>
  <course>276.1</course>
  <speed>0.01</speed>
  <fix>3d</fix>
</trkpt>
<trkpt lat="33.8103133" lon="-118.3938706">
  <ele>-3.884</ele>
  <time>2026-09-02T22:07:41Z</time>
  <course>187.36</course>
  <speed>0.0282842712474619</speed>
  <fix>3d</fix>
</trkpt>
<trkpt lat="33.8103131" lon="-118.3938705">
  <ele>-3.79</ele>
  <time>2026-09-02T22:07:41Z</time>
  <course>276.08</course>
  <speed>0.01</speed>
  <fix>3d</fix>
</trkpt>
<trkpt lat="33.8103133" lon="-118.3938706">
  <ele>-3.88</ele>
  <time>2026-09-02T22:07:41Z</time>
  <course>187.37</course>
  <speed>0.0282842712474619</speed>
  <fix>3d</fix>
</trkpt>
<trkpt lat="33.8103131" lon="-118.3938705">
  <ele>-3.79</ele>
  <time>2026-09-02T22:07:41Z</time>
  <course>276.08</course>
  <speed>0.01</speed>
  <fix>3d</fix>
</trkpt>
<trkpt lat="33.8103133" lon="-118.3938706">
  <ele>-3.877</ele>
  <time>2026-09-02T22:07:41Z</time>
  <course>187.37</course>
  <speed>0.0282842712474619</speed>
  <fix>3d</fix>
</trkpt>
<trkpt lat="33.8103131" lon="-118.3938705">
  <ele>-3.78</ele>
  <time>2026-09-02T22:07:41Z</time>
  <course>276.06</course>
  <speed>0.01</speed>
  <fix>3d</fix>
</trkpt>
<trkpt lat="33.8103133" lon="-118.3938706">
  <ele>-3.874</ele>
  <time>2026-09-02T22:07:41Z</time>
  <course>187.37</course>
  <speed>0.0282842712474619</speed>
  <fix>3d</fix>
</trkpt>
<trkpt lat="33.8103131" lon="-118.3938705">
  <ele>-3.78</ele>
  <time>2026-09-02T22:07:41Z</time>
  <course>276.06</course>
  <speed>0.01</speed>
  <fix>3d</fix>
</trkpt>
<trkpt lat="33.8103133" lon="-118.3938706">
  <ele>-3.873</ele>
  <time>2026-09-02T22:07:41Z</time>
  <course>187.37</course>
  <speed>0.0282842712474619</speed>
  <fix>3d</fix>
</trkpt>
<trkpt lat="33.8103131" lon="-118.3938705">
  <ele>-3.78</ele>
  <time>2026-09-02T22:07:41Z</time>
  <course>276.03</course>
  <speed>0.01</speed>
  <fix>3d</fix>
</trkpt>
<trkpt lat="33.8103133" lon="-118.3938707">
  <ele>-3.873</ele>
  <time>2026-09-02T22:07:41Z</time>
  <course>187.37</course>
  <speed>0.0282842712474619</speed>
  <fix>3d</fix>
</trkpt>
<trkpt lat="33.8103131" lon="-118.3938705">
  <ele>-3.78</ele>
  <time>2026-09-02T22:07:41Z</time>
  <course>276.03</course>
  <speed>0.01</speed>
  <fix>3d</fix>
</trkpt>
<trkpt lat="33.8103133" lon="-118.3938707">
  <ele>-3.873</ele>
  <time>2026-09-02T22:07:41Z</time>
  <course>187.37</course>
  <speed>0.0282842712474619</speed>
  <fix>3d</fix>
</trkpt>
<trkpt lat="33.8103131" lon="-118.3938706">
  <ele>-3.78</ele>
  <time>2026-09-02T22:07:41Z</time>
  <course>276.0</course>
  <speed>0.01</speed>
  <fix>3d</fix>
</trkpt>
<trkpt lat="33.8103133" lon="-118.3938707">
  <ele>-3.874</ele>
  <time>2026-09-02T22:07:41Z</time>
  <course>187.37</course>
  <speed>0.0282842712474619</speed>
  <fix>3d</fix>
</trkpt>
<trkpt lat="33.8103131" lon="-118.3938706">
  <ele>-3.78</ele>
  <time>2026-09-02T22:07:41Z</time>
  <course>276.0</course>
  <speed>0.01</speed>
  <fix>3d</fix>
</trkpt>
<trkpt lat="33.8103133" lon="-118.3938707">
  <ele>-3.874</ele>
  <time>2026-09-02T22:07:41Z</time>
  <course>187.37</course>
  <speed>0.0282842712474619</speed>
  <fix>3d</fix>
</trkpt>
<trkpt lat="33.8103131" lon="-118.3938706">
  <ele>-3.77</ele>
  <time>2026-09-02T22:07:41Z</time>
  <course>275.97</course>
  <speed>0.01</speed>
  <fix>3d</fix>
</trkpt>
<trkpt lat="33.8103133" lon="-118.3938707">
  <ele>-3.873</ele>
  <time>2026-09-02T22:07:41Z</time>
  <course>187.38</course>
  <speed>0.0282842712474619</speed>
  <fix>3d</fix>
</trkpt>
<trkpt lat="33.8103131" lon="-118.3938706">
  <ele>-3.77</ele>
  <time>2026-09-02T22:07:41Z</time>
  <course>275.97</course>
  <speed>0.01</speed>
  <fix>3d</fix>
</trkpt>
<trkpt lat="33.8103133" lon="-118.3938707">
  <ele>-3.87</ele>
  <time>2026-09-02T22:07:41Z</time>
  <course>187.38</course>
  <speed>0.0282842712474619</speed>
  <fix>3d</fix>
</trkpt>
<trkpt lat="33.8103131" lon="-118.3938706">
  <ele>-3.77</ele>
  <time>2026-09-02T22:07:41Z</time>
  <course>275.94</course>
  <speed>0.01</speed>
  <fix>3d</fix>
</trkpt>
<trkpt lat="33.8103133" lon="-118.3938707">
  <ele>-3.868</ele>
  <time>2026-09-02T22:07:41Z</time>
  <course>187.38</course>
  <speed>0.0282842712474619</speed>
  <fix>3d</fix>
</trkpt>
<trkpt lat="33.8103131" lon="-118.3938706">
  <ele>-3.77</ele>
  <time>2026-09-02T22:07:41Z</time>
  <course>275.94</course>
  <speed>0.01</speed>
  <fix>3d</fix>
</trkpt>
<trkpt lat="33.8103133" lon="-118.3938707">
  <ele>-3.867</ele>
  <time>2026-09-02T22:07:41Z</time>
  <course>187.38</course>
  <speed>0.0282842712474619</speed>
  <fix>3d</fix>
</trkpt>
<trkpt lat="33.8103131" lon="-118.3938706">
  <ele>-3.77</ele>
  <time>2026-09-02T22:07:41Z</time>
  <course>275.91</course>
  <speed>0.01</speed>
  <fix>3d</fix>
</trkpt>
<trkpt lat="33.8103133" lon="-118.3938707">
  <ele>-3.866</ele>
  <time>2026-09-02T22:07:41Z</time>
  <course>187.38</course>
  <speed>0.0282842712474619</speed>
  <fix>3d</fix>
</trkpt>
<trkpt lat="33.8103131" lon="-118.3938706">
  <ele>-3.77</ele>
  <time>2026-09-02T22:07:41Z</time>
  <course>275.91</course>
  <speed>0.01</speed>
  <fix>3d</fix>
</trkpt>
<trkpt lat="33.8103133" lon="-118.3938708">
  <ele>-3.866</ele>
  <time>2026-09-02T22:07:41Z</time>
  <course>187.38</course>
  <speed>0.0282842712474619</speed>
  <fix>3d</fix>
</trkpt>
<trkpt lat="33.8103131" lon="-118.3938707">
  <ele>-3.76</ele>
  <time>2026-09-02T22:07:41Z</time>
  <course>275.88</course>
  <speed>0.0</speed>
  <fix>3d</fix>
</trkpt>
<trkpt lat="33.8103133" lon="-118.3938708">
  <ele>-3.866</ele>
  <time>2026-09-02T22:07:41Z</time>
  <course>187.39</course>
  <speed>0.0282842712474619</speed>
  <fix>3d</fix>
</trkpt>
<trkpt lat="33.8103131" lon="-118.3938707">
  <ele>-3.76</ele>
  <time>2026-09-02T22:07:41Z</time>
  <course>275.88</course>
  <speed>0.0</speed>
  <fix>3d</fix>
</trkpt>
<trkpt lat="33.8103133" lon="-118.3938708">
  <ele>-3.866</ele>
  <time>2026-09-02T22:07:41Z</time>
  <course>187.39</course>
  <speed>0.0282842712474619</speed>
  <fix>3d</fix>
</trkpt>
<trkpt lat="33.8103131" lon="-118.3938707">
  <ele>-3.76</ele>
  <time>2026-09-02T22:07:41Z</time>
  <course>275.84</course>
  <speed>0.0</speed>
  <fix>3d</fix>
</trkpt>
<trkpt lat="33.8103133" lon="-118.3938708">
  <ele>-3.865</ele>
  <time>2026-09-02T22:07:41Z</time>
  <course>187.39</course>
  <speed>0.0282842712474619</speed>
  <fix>3d</fix>
</trkpt>
<trkpt lat="33.8103131" lon="-118.3938707">
  <ele>-3.76</ele>
  <time>2026-09-02T22:07:41Z</time>
  <course>275.84</course>
  <speed>0.0</speed>
  <fix>3d</fix>
</trkpt>
<trkpt lat="33.8103133" lon="-118.3938708">
  <ele>-3.864</ele>
  <time>2026-09-02T22:07:41Z</time>
  <course>187.39</course>
  <speed>0.0282842712474619</speed>
  <fix>3d</fix>
</trkpt>
<trkpt lat="33.8103131" lon="-118.3938707">
  <ele>-3.76</ele>
  <time>2026-09-02T22:07:41Z</time>
  <course>275.79</course>
  <speed>0.0</speed>
  <fix>3d</fix>
</trkpt>
<trkpt lat="33.8103133" lon="-118.3938708">
  <ele>-3.862</ele>
  <time>2026-09-02T22:07:41Z</time>
  <course>187.39</course>
  <speed>0.0282842712474619</speed>
  <fix>3d</fix>
</trkpt>
<trkpt lat="33.8103131" lon="-118.3938707">
  <ele>-3.76</ele>
  <time>2026-09-02T22:07:41Z</time>
  <course>275.79</course>
  <speed>0.0</speed>
  <fix>3d</fix>
</trkpt>
<trkpt lat="33.8103133" lon="-118.3938708">
  <ele>-3.859</ele>
  <time>2026-09-02T22:07:41Z</time>
  <course>187.39</course>
  <speed>0.0282842712474619</speed>
  <fix>3d</fix>
</trkpt>
<trkpt lat="33.8103131" lon="-118.3938707">
  <ele>-3.76</ele>
  <time>2026-09-02T22:07:41Z</time>
  <course>275.73</course>
  <speed>0.0</speed>
  <fix>3d</fix>
</trkpt>
<trkpt lat="33.8103133" lon="-118.3938708">
  <ele>-3.858</ele>
  <time>2026-09-02T22:07:41Z</time>
  <course>187.4</course>
  <speed>0.0282842712474619</speed>
  <fix>3d</fix>
</trkpt>
<trkpt lat="33.8103131" lon="-118.3938707">
  <ele>-3.76</ele>
  <time>2026-09-02T22:07:41Z</time>
  <course>275.73</course>
  <speed>0.0</speed>
  <fix>3d</fix>
</trkpt>
<trkpt lat="33.8103133" lon="-118.3938708">
  <ele>-3.858</ele>
  <time>2026-09-02T22:07:41Z</time>
  <course>187.4</course>
  <speed>0.0282842712474619</speed>
  <fix>3d</fix>
</trkpt>
<trkpt lat="33.8103131" lon="-118.3938707">
  <ele>-3.76</ele>
  <time>2026-09-02T22:07:41Z</time>
  <course>275.67</course>
  <speed>0.0</speed>
  <fix>3d</fix>
</trkpt>
<trkpt lat="33.8103133" lon="-118.3938708">
  <ele>-3.859</ele>
  <time>2026-09-02T22:07:41Z</time>
  <course>187.4</course>
  <speed>0.0282842712474619</speed>
  <fix>3d</fix>
</trkpt>
<trkpt lat="33.8103131" lon="-118.3938707">
  <ele>-3.76</ele>
  <time>2026-09-02T22:07:41Z</time>
  <course>275.67</course>
  <speed>0.0</speed>
  <fix>3d</fix>
</trkpt>
<trkpt lat="33.8103133" lon="-118.3938708">
  <ele>-3.861</ele>
  <time>2026-09-02T22:07:41Z</time>
  <course>187.4</course>
  <speed>0.0282842712474619</speed>
  <fix>3d</fix>
</trkpt>
<trkpt lat="33.8103131" lon="-118.3938707">
  <ele>-3.76</ele>
  <time>2026-09-02T22:07:41Z</time>
  <course>275.61</course>
  <speed>0.0</speed>
  <fix>3d</fix>
</trkpt>
<trkpt lat="33.8103133" lon="-118.3938709">
  <ele>-3.863</ele>
  <time>2026-09-02T22:07:41Z</time>
  <course>187.4</course>
  <speed>0.0282842712474619</speed>
  <fix>3d</fix>
</trkpt>
<trkpt lat="33.8103131" lon="-118.3938707">
  <ele>-3.76</ele>
  <time>2026-09-02T22:07:41Z</time>
  <course>275.61</course>
  <speed>0.0</speed>
  <fix>3d</fix>
</trkpt>
<trkpt lat="33.8103133" lon="-118.3938709">
  <ele>-3.864</ele>
  <time>2026-09-02T22:07:41Z</time>
  <course>187.4</course>
  <speed>0.0282842712474619</speed>
  <fix>3d</fix>
</trkpt>
<trkpt lat="33.8103131" lon="-118.3938707">
  <ele>-3.77</ele>
  <time>2026-09-02T22:07:41Z</time>
  <course>275.53</course>
  <speed>0.0</speed>
  <fix>3d</fix>
</trkpt>
<trkpt lat="33.8103133" lon="-118.3938709">
  <ele>-3.865</ele>
  <time>2026-09-02T22:07:41Z</time>
  <course>187.41</course>
  <speed>0.0282842712474619</speed>
  <fix>3d</fix>
</trkpt>
<trkpt lat="33.8103131" lon="-118.3938707">
  <ele>-3.77</ele>
  <time>2026-09-02T22:07:41Z</time>
  <course>275.53</course>
  <speed>0.0</speed>
  <fix>3d</fix>
</trkpt>
<trkpt lat="33.8103133" lon="-118.3938709">
  <ele>-3.864</ele>
  <time>2026-09-02T22:07:41Z</time>
  <course>187.41</course>
  <speed>0.0282842712474619</speed>
  <fix>3d</fix>
</trkpt>
<trkpt lat="33.8103131" lon="-118.3938707">
  <ele>-3.77</ele>
  <time>2026-09-02T22:07:41Z</time>
  <course>275.44</course>
  <speed>0.0</speed>
  <fix>3d</fix>
</trkpt>
<trkpt lat="33.8103133" lon="-118.3938709">
  <ele>-3.864</ele>
  <time>2026-09-02T22:07:41Z</time>
  <course>187.41</course>
  <speed>0.022360679774997897</speed>
  <fix>3d</fix>
</trkpt>
<trkpt lat="33.8103131" lon="-118.3938707">
  <ele>-3.77</ele>
  <time>2026-09-02T22:07:41Z</time>
  <course>275.44</course>
  <speed>0.0</speed>
  <fix>3d</fix>
</trkpt>
<trkpt lat="33.8103133" lon="-118.3938709">
  <ele>-3.864</ele>
  <time>2026-09-02T22:07:41Z</time>
  <course>187.41</course>
  <speed>0.022360679774997897</speed>
  <fix>3d</fix>
</trkpt>
<trkpt lat="33.8103131" lon="-118.3938707">
  <ele>-3.77</ele>
  <time>2026-09-02T22:07:41Z</time>
  <course>275.32</course>
  <speed>0.0</speed>
  <fix>3d</fix>
</trkpt>
<trkpt lat="33.8103133" lon="-118.3938709">
  <ele>-3.866</ele>
  <time>2026-09-02T22:07:41Z</time>
  <course>187.41</course>
  <speed>0.022360679774997897</speed>
  <fix>3d</fix>
</trkpt>
<trkpt lat="33.8103131" lon="-118.3938707">
  <ele>-3.77</ele>
  <time>2026-09-02T22:07:41Z</time>
  <course>275.32</course>
  <speed>0.0</speed>
  <fix>3d</fix>
</trkpt>
<trkpt lat="33.8103133" lon="-118.3938709">
  <ele>-3.868</ele>
  <time>2026-09-02T22:07:41Z</time>
  <course>187.42</course>
  <speed>0.022360679774997897</speed>
  <fix>3d</fix>
</trkpt>
<trkpt lat="33.8103131" lon="-118.3938707">
  <ele>-3.77</ele>
  <time>2026-09-02T22:07:41Z</time>
  <course>275.17</course>
  <speed>0.0</speed>
  <fix>3d</fix>
</trkpt>
<trkpt lat="33.8103133" lon="-118.3938709">
  <ele>-3.869</ele>
  <time>2026-09-02T22:07:41Z</time>
  <course>187.42</course>
  <speed>0.022360679774997897</speed>
  <fix>3d</fix>
</trkpt>
<trkpt lat="33.8103131" lon="-118.3938707">
  <ele>-3.77</ele>
  <time>2026-09-02T22:07:41Z</time>
  <course>275.17</course>
  <speed>0.0</speed>
  <fix>3d</fix>
</trkpt>
<trkpt lat="33.8103133" lon="-118.3938709">
  <ele>-3.87</ele>
  <time>2026-09-02T22:07:41Z</time>
  <course>187.42</course>
  <speed>0.022360679774997897</speed>
  <fix>3d</fix>
</trkpt>
<trkpt lat="33.8103131" lon="-118.3938707">
  <ele>-3.77</ele>
  <time>2026-09-02T22:07:41Z</time>
  <course>274.97</course>
  <speed>0.0</speed>
  <fix>3d</fix>
</trkpt>
<trkpt lat="33.8103133" lon="-118.3938709">
  <ele>-3.87</ele>
  <time>2026-09-02T22:07:41Z</time>
  <course>187.42</course>
  <speed>0.022360679774997897</speed>
  <fix>3d</fix>
</trkpt>
<trkpt lat="33.8103131" lon="-118.3938707">
  <ele>-3.77</ele>
  <time>2026-09-02T22:07:41Z</time>
  <course>274.97</course>
  <speed>0.0</speed>
  <fix>3d</fix>
</trkpt>
<trkpt lat="33.8103133" lon="-118.3938709">
  <ele>-3.869</ele>
  <time>2026-09-02T22:07:41Z</time>
  <course>187.42</course>
  <speed>0.022360679774997897</speed>
  <fix>3d</fix>
</trkpt>
<trkpt lat="33.8103131" lon="-118.3938707">
  <ele>-3.77</ele>
  <time>2026-09-02T22:07:41Z</time>
  <course>274.72</course>
  <speed>0.0</speed>
  <fix>3d</fix>
</trkpt>
<trkpt lat="33.8103133" lon="-118.3938709">
  <ele>-3.868</ele>
  <time>2026-09-02T22:07:41Z</time>
  <course>187.42</course>
  <speed>0.022360679774997897</speed>
  <fix>3d</fix>
</trkpt>
<trkpt lat="33.8103131" lon="-118.3938707">
  <ele>-3.77</ele>
  <time>2026-09-02T22:07:41Z</time>
  <course>274.72</course>
  <speed>0.0</speed>
  <fix>3d</fix>
</trkpt>
<trkpt lat="33.8103133" lon="-118.3938708">
  <ele>-3.866</ele>
  <time>2026-09-02T22:07:41Z</time>
  <course>187.43</course>
  <speed>0.022360679774997897</speed>
  <fix>3d</fix>
</trkpt>
<trkpt lat="33.8103131" lon="-118.3938707">
  <ele>-3.76</ele>
  <time>2026-09-02T22:07:41Z</time>
  <course>274.41</course>
  <speed>0.0</speed>
  <fix>3d</fix>
</trkpt>
<trkpt lat="33.8103133" lon="-118.3938708">
  <ele>-3.863</ele>
  <time>2026-09-02T22:07:41Z</time>
  <course>187.43</course>
  <speed>0.022360679774997897</speed>
  <fix>3d</fix>
</trkpt>
<trkpt lat="33.8103131" lon="-118.3938707">
  <ele>-3.76</ele>
  <time>2026-09-02T22:07:41Z</time>
  <course>274.41</course>
  <speed>0.0</speed>
  <fix>3d</fix>
</trkpt>
<trkpt lat="33.8103133" lon="-118.3938708">
  <ele>-3.86</ele>
  <time>2026-09-02T22:07:41Z</time>
  <course>187.43</course>
  <speed>0.022360679774997897</speed>
  <fix>3d</fix>
</trkpt>
<trkpt lat="33.8103131" lon="-118.3938707">
  <ele>-3.76</ele>
  <time>2026-09-02T22:07:41Z</time>
  <course>274.02</course>
  <speed>0.0</speed>
  <fix>3d</fix>
</trkpt>
<trkpt lat="33.8103133" lon="-118.3938708">
  <ele>-3.858</ele>
  <time>2026-09-02T22:07:41Z</time>
  <course>187.43</course>
  <speed>0.022360679774997897</speed>
  <fix>3d</fix>
</trkpt>
<trkpt lat="33.8103131" lon="-118.3938707">
  <ele>-3.76</ele>
  <time>2026-09-02T22:07:41Z</time>
  <course>274.02</course>
  <speed>0.0</speed>
  <fix>3d</fix>
</trkpt>
<trkpt lat="33.8103133" lon="-118.3938708">
  <ele>-3.857</ele>
  <time>2026-09-02T22:07:41Z</time>
  <course>187.43</course>
  <speed>0.022360679774997897</speed>
  <fix>3d</fix>
</trkpt>
<trkpt lat="33.8103131" lon="-118.3938707">
  <ele>-3.76</ele>
  <time>2026-09-02T22:07:41Z</time>
  <course>273.53</course>
  <speed>0.0</speed>
  <fix>3d</fix>
</trkpt>
<trkpt lat="33.8103133" lon="-118.3938708">
  <ele>-3.858</ele>
  <time>2026-09-02T22:07:41Z</time>
  <course>187.43</course>
  <speed>0.022360679774997897</speed>
  <fix>3d</fix>
</trkpt>
<trkpt lat="33.8103131" lon="-118.3938707">
  <ele>-3.76</ele>
  <time>2026-09-02T22:07:41Z</time>
  <course>273.53</course>
  <speed>0.0</speed>
  <fix>3d</fix>
</trkpt>
<trkpt lat="33.8103133" lon="-118.3938708">
  <ele>-3.859</ele>
  <time>2026-09-02T22:07:41Z</time>
  <course>187.44</course>
  <speed>0.022360679774997897</speed>
  <fix>3d</fix>
</trkpt>
<trkpt lat="33.8103131" lon="-118.3938707">
  <ele>-3.76</ele>
  <time>2026-09-02T22:07:41Z</time>
  <course>272.81</course>
  <speed>0.0</speed>
  <fix>3d</fix>
</trkpt>
<trkpt lat="33.8103133" lon="-118.3938708">
  <ele>-3.861</ele>
  <time>2026-09-02T22:07:41Z</time>
  <course>187.44</course>
  <speed>0.022360679774997897</speed>
  <fix>3d</fix>
</trkpt>
<trkpt lat="33.8103131" lon="-118.3938707">
  <ele>-3.76</ele>
  <time>2026-09-02T22:07:41Z</time>
  <course>272.81</course>
  <speed>0.0</speed>
  <fix>3d</fix>
</trkpt>
<trkpt lat="33.8103133" lon="-118.3938708">
  <ele>-3.863</ele>
  <time>2026-09-02T22:07:41Z</time>
  <course>187.44</course>
  <speed>0.022360679774997897</speed>
  <fix>3d</fix>
</trkpt>
<trkpt lat="33.8103131" lon="-118.3938707">
  <ele>-3.76</ele>
  <time>2026-09-02T22:07:41Z</time>
  <course>271.48</course>
  <speed>0.0</speed>
  <fix>3d</fix>
</trkpt>
<trkpt lat="33.8103133" lon="-118.3938708">
  <ele>-3.865</ele>
  <time>2026-09-02T22:07:41Z</time>
  <course>187.44</course>
  <speed>0.022360679774997897</speed>
  <fix>3d</fix>
</trkpt>
<trkpt lat="33.8103131" lon="-118.3938707">
  <ele>-3.76</ele>
  <time>2026-09-02T22:07:41Z</time>
  <course>271.48</course>
  <speed>0.0</speed>
  <fix>3d</fix>
</trkpt>
<trkpt lat="33.8103133" lon="-118.3938708">
  <ele>-3.862</ele>
  <time>2026-09-02T22:07:41Z</time>
  <course>187.44</course>
  <speed>0.022360679774997897</speed>
  <fix>3d</fix>
</trkpt>
<trkpt lat="33.8103131" lon="-118.3938707">
  <ele>-3.77</ele>
  <time>2026-09-02T22:07:41Z</time>
  <course>268.08</course>
  <speed>0.0</speed>
  <fix>3d</fix>
</trkpt>
<trkpt lat="33.8103133" lon="-118.3938708">
  <ele>-3.853</ele>
  <time>2026-09-02T22:07:41Z</time>
  <course>187.44</course>
  <speed>0.022360679774997897</speed>
  <fix>3d</fix>
</trkpt>
<trkpt lat="33.8103131" lon="-118.3938707">
  <ele>-3.77</ele>
  <time>2026-09-02T22:07:41Z</time>
  <course>268.08</course>
  <speed>0.0</speed>
  <fix>3d</fix>
</trkpt>
<trkpt lat="33.8103133" lon="-118.3938708">
  <ele>-3.849</ele>
  <time>2026-09-02T22:07:41Z</time>
  <course>187.44</course>
  <speed>0.022360679774997897</speed>
  <fix>3d</fix>
</trkpt>
<trkpt lat="33.8103131" lon="-118.3938707">
  <ele>-3.76</ele>
  <time>2026-09-02T22:07:41Z</time>
  <course>265.48</course>
  <speed>0.0</speed>
  <fix>3d</fix>
</trkpt>
<trkpt lat="33.8103133" lon="-118.3938708">
  <ele>-3.861</ele>
  <time>2026-09-02T22:07:41Z</time>
  <course>187.45</course>
  <speed>0.022360679774997897</speed>
  <fix>3d</fix>
</trkpt>
<trkpt lat="33.8103131" lon="-118.3938707">
  <ele>-3.76</ele>
  <time>2026-09-02T22:07:41Z</time>
  <course>265.48</course>
  <speed>0.0</speed>
  <fix>3d</fix>
</trkpt>
<trkpt lat="33.8103133" lon="-118.3938708">
  <ele>-3.891</ele>
  <time>2026-09-02T22:07:41Z</time>
  <course>187.45</course>
  <speed>0.022360679774997897</speed>
  <fix>3d</fix>
</trkpt>
<trkpt lat="33.8103131" lon="-118.3938708">
  <ele>-3.76</ele>
  <time>2026-09-02T22:07:41Z</time>
  <course>272.39</course>
  <speed>0.0</speed>
  <fix>3d</fix>
</trkpt>
<trkpt lat="33.8103133" lon="-118.3938708">
  <ele>-3.892</ele>
  <time>2026-09-02T22:07:41Z</time>
  <course>187.45</course>
  <speed>0.022360679774997897</speed>
  <fix>3d</fix>
</trkpt>
<trkpt lat="33.8103133" lon="-118.3938708">
  <ele>-3.935</ele>
  <time>2026-09-02T22:07:41Z</time>
  <course>187.45</course>
  <speed>0.022360679774997897</speed>
  <fix>3d</fix>
</trkpt>
<trkpt lat="33.8103131" lon="-118.3938708">
  <ele>-3.76</ele>
  <time>2026-09-02T22:07:41Z</time>
  <course>272.39</course>
  <speed>0.0</speed>
  <fix>3d</fix>
</trkpt>
<trkpt lat="33.8103133" lon="-118.3938708">
  <ele>-3.936</ele>
  <time>2026-09-02T22:07:41Z</time>
  <course>187.45</course>
  <speed>0.022360679774997897</speed>
  <fix>3d</fix>
</trkpt>
<trkpt lat="33.8103133" lon="-118.3938708">
  <ele>-3.987</ele>
  <time>2026-09-02T22:07:41Z</time>
  <course>187.45</course>
  <speed>0.022360679774997897</speed>
  <fix>3d</fix>
</trkpt>
<trkpt lat="33.8103131" lon="-118.3938709">
  <ele>-3.81</ele>
  <time>2026-09-02T22:07:41Z</time>
  <course>274.53</course>
  <speed>0.0</speed>
  <fix>3d</fix>
</trkpt>
<trkpt lat="33.8103133" lon="-118.3938708">
  <ele>-4.007</ele>
  <time>2026-09-02T22:07:41Z</time>
  <course>187.45</course>
  <speed>0.022360679774997897</speed>
  <fix>3d</fix>
</trkpt>
<trkpt lat="33.8103133" lon="-118.3938708">
  <ele>-4.046</ele>
  <time>2026-09-02T22:07:41Z</time>
  <course>187.45</course>
  <speed>0.022360679774997897</speed>
  <fix>3d</fix>
</trkpt>
<trkpt lat="33.8103131" lon="-118.3938709">
  <ele>-3.81</ele>
  <time>2026-09-02T22:07:41Z</time>
  <course>274.53</course>
  <speed>0.0</speed>
  <fix>3d</fix>
</trkpt>
<trkpt lat="33.8103133" lon="-118.3938708">
  <ele>-4.067</ele>
  <time>2026-09-02T22:07:41Z</time>
  <course>187.45</course>
  <speed>0.022360679774997897</speed>
  <fix>3d</fix>
</trkpt>
<trkpt lat="33.8103133" lon="-118.3938708">
  <ele>-4.109</ele>
  <time>2026-09-02T22:07:41Z</time>
  <course>187.45</course>
  <speed>0.022360679774997897</speed>
  <fix>3d</fix>
</trkpt>
<trkpt lat="33.8103131" lon="-118.3938709">
  <ele>-3.9</ele>
  <time>2026-09-02T22:07:41Z</time>
  <course>275.11</course>
  <speed>0.0</speed>
  <fix>3d</fix>
</trkpt>
<trkpt lat="33.8103133" lon="-118.3938708">
  <ele>-4.111</ele>
  <time>2026-09-02T22:07:41Z</time>
  <course>187.45</course>
  <speed>0.022360679774997897</speed>
  <fix>3d</fix>
</trkpt>
<trkpt lat="33.8103133" lon="-118.3938709">
  <ele>-4.174</ele>
  <time>2026-09-02T22:07:41Z</time>
  <course>187.45</course>
  <speed>0.022360679774997897</speed>
  <fix>3d</fix>
</trkpt>
<trkpt lat="33.8103131" lon="-118.3938709">
  <ele>-3.9</ele>
  <time>2026-09-02T22:07:41Z</time>
  <course>275.11</course>
  <speed>0.0</speed>
  <fix>3d</fix>
</trkpt>
<trkpt lat="33.8103133" lon="-118.3938709">
  <ele>-4.193</ele>
  <time>2026-09-02T22:07:41Z</time>
  <course>187.45</course>
  <speed>0.022360679774997897</speed>
  <fix>3d</fix>
</trkpt>
<trkpt lat="33.8103133" lon="-118.3938709">
  <ele>-4.24</ele>
  <time>2026-09-02T22:07:41Z</time>
  <course>187.45</course>
  <speed>0.022360679774997897</speed>
  <fix>3d</fix>
</trkpt>
<trkpt lat="33.8103131" lon="-118.3938709">
  <ele>-4.02</ele>
  <time>2026-09-02T22:07:41Z</time>
  <course>275.37</course>
  <speed>0.0</speed>
  <fix>3d</fix>
</trkpt>
<trkpt lat="33.8103133" lon="-118.3938709">
  <ele>-4.262</ele>
  <time>2026-09-02T22:07:41Z</time>
  <course>187.45</course>
  <speed>0.022360679774997897</speed>
  <fix>3d</fix>
</trkpt>
<trkpt lat="33.8103133" lon="-118.3938709">
  <ele>-4.307</ele>
  <time>2026-09-02T22:07:41Z</time>
  <course>187.45</course>
  <speed>0.022360679774997897</speed>
  <fix>3d</fix>
</trkpt>
<trkpt lat="33.8103131" lon="-118.3938709">
  <ele>-4.02</ele>
  <time>2026-09-02T22:07:41Z</time>
  <course>275.37</course>
  <speed>0.0</speed>
  <fix>3d</fix>
</trkpt>
<trkpt lat="33.8103133" lon="-118.3938709">
  <ele>-4.331</ele>
  <time>2026-09-02T22:07:41Z</time>
  <course>187.45</course>
  <speed>0.022360679774997897</speed>
  <fix>3d</fix>
</trkpt>
<trkpt lat="33.8103133" lon="-118.3938709">
  <ele>-4.374</ele>
  <time>2026-09-02T22:07:41Z</time>
  <course>187.45</course>
  <speed>0.022360679774997897</speed>
  <fix>3d</fix>
</trkpt>
<trkpt lat="33.8103131" lon="-118.3938709">
  <ele>-4.14</ele>
  <time>2026-09-02T22:07:41Z</time>
  <course>275.52</course>
  <speed>0.0</speed>
  <fix>3d</fix>
</trkpt>
<trkpt lat="33.8103133" lon="-118.3938709">
  <ele>-4.396</ele>
  <time>2026-09-02T22:07:41Z</time>
  <course>187.45</course>
  <speed>0.022360679774997897</speed>
  <fix>3d</fix>
</trkpt>
<trkpt lat="33.8103133" lon="-118.3938709">
  <ele>-4.442</ele>
  <time>2026-09-02T22:07:41Z</time>
  <course>187.45</course>
  <speed>0.0282842712474619</speed>
  <fix>3d</fix>
</trkpt>
<trkpt lat="33.8103131" lon="-118.3938709">
  <ele>-4.14</ele>
  <time>2026-09-02T22:07:41Z</time>
  <course>275.52</course>
  <speed>0.0</speed>
  <fix>3d</fix>
</trkpt>
<trkpt lat="33.8103133" lon="-118.3938709">
  <ele>-4.467</ele>
  <time>2026-09-02T22:07:41Z</time>
  <course>187.45</course>
  <speed>0.0282842712474619</speed>
  <fix>3d</fix>
</trkpt>
<trkpt lat="33.8103133" lon="-118.3938709">
  <ele>-4.51</ele>
  <time>2026-09-02T22:07:41Z</time>
  <course>187.45</course>
  <speed>0.0282842712474619</speed>
  <fix>3d</fix>
</trkpt>
<trkpt lat="33.8103131" lon="-118.3938709">
  <ele>-4.26</ele>
  <time>2026-09-02T22:07:41Z</time>
  <course>275.62</course>
  <speed>0.0</speed>
  <fix>3d</fix>
</trkpt>
<trkpt lat="33.8103133" lon="-118.3938709">
  <ele>-4.532</ele>
  <time>2026-09-02T22:07:41Z</time>
  <course>187.45</course>
  <speed>0.0282842712474619</speed>
  <fix>3d</fix>
</trkpt>
<trkpt lat="33.8103133" lon="-118.3938709">
  <ele>-4.579</ele>
  <time>2026-09-02T22:07:41Z</time>
  <course>187.45</course>
  <speed>0.0282842712474619</speed>
  <fix>3d</fix>
</trkpt>
<trkpt lat="33.8103131" lon="-118.3938709">
  <ele>-4.26</ele>
  <time>2026-09-02T22:07:41Z</time>
  <course>275.62</course>
  <speed>0.0</speed>
  <fix>3d</fix>
</trkpt>
<trkpt lat="33.8103133" lon="-118.3938709">
  <ele>-4.581</ele>
  <time>2026-09-02T22:07:41Z</time>
  <course>187.45</course>
  <speed>0.0282842712474619</speed>
  <fix>3d</fix>
</trkpt>
<trkpt lat="33.8103133" lon="-118.393871">
  <ele>-4.648</ele>
  <time>2026-09-02T22:07:41Z</time>
  <course>187.45</course>
  <speed>0.0282842712474619</speed>
  <fix>3d</fix>
</trkpt>
<trkpt lat="33.8103132" lon="-118.3938709">
  <ele>-4.39</ele>
  <time>2026-09-02T22:07:41Z</time>
  <course>275.7</course>
  <speed>0.0</speed>
  <fix>3d</fix>
</trkpt>
<trkpt lat="33.8103133" lon="-118.393871">
  <ele>-4.649</ele>
  <time>2026-09-02T22:07:41Z</time>
  <course>187.45</course>
  <speed>0.0282842712474619</speed>
  <fix>3d</fix>
</trkpt>
<trkpt lat="33.8103133" lon="-118.393871">
  <ele>-4.716</ele>
  <time>2026-09-02T22:07:41Z</time>
  <course>187.45</course>
  <speed>0.0282842712474619</speed>
  <fix>3d</fix>
</trkpt>
<trkpt lat="33.8103132" lon="-118.3938709">
  <ele>-4.39</ele>
  <time>2026-09-02T22:07:41Z</time>
  <course>275.7</course>
  <speed>0.0</speed>
  <fix>3d</fix>
</trkpt>
<trkpt lat="33.8103133" lon="-118.393871">
  <ele>-4.738</ele>
  <time>2026-09-02T22:07:41Z</time>
  <course>187.46</course>
  <speed>0.0282842712474619</speed>
  <fix>3d</fix>
</trkpt>
<trkpt lat="33.8103133" lon="-118.393871">
  <ele>-4.784</ele>
  <time>2026-09-02T22:07:41Z</time>
  <course>187.46</course>
  <speed>0.0282842712474619</speed>
  <fix>3d</fix>
</trkpt>
<trkpt lat="33.8103133" lon="-118.3938709">
  <ele>-4.52</ele>
  <time>2026-09-02T22:07:41Z</time>
  <course>275.76</course>
  <speed>0.0</speed>
  <fix>3d</fix>
</trkpt>
<trkpt lat="33.8103133" lon="-118.393871">
  <ele>-4.819</ele>
  <time>2026-09-02T22:07:41Z</time>
  <course>187.46</course>
  <speed>0.0282842712474619</speed>
  <fix>3d</fix>
</trkpt>
<trkpt lat="33.8103133" lon="-118.393871">
  <ele>-4.851</ele>
  <time>2026-09-02T22:07:41Z</time>
  <course>187.46</course>
  <speed>0.0282842712474619</speed>
  <fix>3d</fix>
</trkpt>
<trkpt lat="33.8103133" lon="-118.3938709">
  <ele>-4.52</ele>
  <time>2026-09-02T22:07:41Z</time>
  <course>275.76</course>
  <speed>0.0</speed>
  <fix>3d</fix>
</trkpt>
<trkpt lat="33.8103133" lon="-118.393871">
  <ele>-4.873</ele>
  <time>2026-09-02T22:07:41Z</time>
  <course>187.46</course>
  <speed>0.0282842712474619</speed>
  <fix>3d</fix>
</trkpt>
<trkpt lat="33.8103133" lon="-118.393871">
  <ele>-4.917</ele>
  <time>2026-09-02T22:07:41Z</time>
  <course>187.46</course>
  <speed>0.0282842712474619</speed>
  <fix>3d</fix>
</trkpt>
<trkpt lat="33.8103133" lon="-118.3938709">
  <ele>-4.64</ele>
  <time>2026-09-02T22:07:41Z</time>
  <course>275.81</course>
  <speed>0.0</speed>
  <fix>3d</fix>
</trkpt>
<trkpt lat="33.8103133" lon="-118.393871">
  <ele>-4.939</ele>
  <time>2026-09-02T22:07:41Z</time>
  <course>187.46</course>
  <speed>0.0282842712474619</speed>
  <fix>3d</fix>
</trkpt>
<trkpt lat="33.8103133" lon="-118.393871">
  <ele>-4.984</ele>
  <time>2026-09-02T22:07:41Z</time>
  <course>187.46</course>
  <speed>0.0282842712474619</speed>
  <fix>3d</fix>
</trkpt>
<trkpt lat="33.8103133" lon="-118.3938709">
  <ele>-4.64</ele>
  <time>2026-09-02T22:07:41Z</time>
  <course>275.81</course>
  <speed>0.0</speed>
  <fix>3d</fix>
</trkpt>
<trkpt lat="33.8103133" lon="-118.393871">
  <ele>-5.006</ele>
  <time>2026-09-02T22:07:41Z</time>
  <course>187.46</course>
  <speed>0.0282842712474619</speed>
  <fix>3d</fix>
</trkpt>
<trkpt lat="33.8103133" lon="-118.393871">
  <ele>-5.051</ele>
  <time>2026-09-02T22:07:41Z</time>
  <course>187.46</course>
  <speed>0.0282842712474619</speed>
  <fix>3d</fix>
</trkpt>
<trkpt lat="33.8103133" lon="-118.393871">
  <ele>-4.77</ele>
  <time>2026-09-02T22:07:41Z</time>
  <course>275.86</course>
  <speed>0.0</speed>
  <fix>3d</fix>
</trkpt>
<trkpt lat="33.8103133" lon="-118.393871">
  <ele>-5.073</ele>
  <time>2026-09-02T22:07:41Z</time>
  <course>187.46</course>
  <speed>0.0282842712474619</speed>
  <fix>3d</fix>
</trkpt>
<trkpt lat="33.8103133" lon="-118.393871">
  <ele>-5.119</ele>
  <time>2026-09-02T22:07:41Z</time>
  <course>187.46</course>
  <speed>0.0282842712474619</speed>
  <fix>3d</fix>
</trkpt>
<trkpt lat="33.8103133" lon="-118.393871">
  <ele>-4.77</ele>
  <time>2026-09-02T22:07:41Z</time>
  <course>275.86</course>
  <speed>0.0</speed>
  <fix>3d</fix>
</trkpt>
<trkpt lat="33.8103133" lon="-118.3938711">
  <ele>-5.141</ele>
  <time>2026-09-02T22:07:41Z</time>
  <course>187.46</course>
  <speed>0.0282842712474619</speed>
  <fix>3d</fix>
</trkpt>
<trkpt lat="33.8103133" lon="-118.3938711">
  <ele>-5.186</ele>
  <time>2026-09-02T22:07:41Z</time>
  <course>187.46</course>
  <speed>0.0282842712474619</speed>
  <fix>3d</fix>
</trkpt>
<trkpt lat="33.8103133" lon="-118.393871">
  <ele>-4.9</ele>
  <time>2026-09-02T22:07:41Z</time>
  <course>275.91</course>
  <speed>0.0</speed>
  <fix>3d</fix>
</trkpt>
<trkpt lat="33.8103133" lon="-118.3938711">
  <ele>-5.215</ele>
  <time>2026-09-02T22:07:41Z</time>
  <course>187.46</course>
  <speed>0.0282842712474619</speed>
  <fix>3d</fix>
</trkpt>
<trkpt lat="33.8103133" lon="-118.3938711">
  <ele>-5.254</ele>
  <time>2026-09-02T22:07:41Z</time>
  <course>187.46</course>
  <speed>0.0282842712474619</speed>
  <fix>3d</fix>
</trkpt>
<trkpt lat="33.8103133" lon="-118.393871">
  <ele>-4.9</ele>
  <time>2026-09-02T22:07:41Z</time>
  <course>275.91</course>
  <speed>0.0</speed>
  <fix>3d</fix>
</trkpt>
<trkpt lat="33.8103134" lon="-118.3938711">
  <ele>-5.277</ele>
  <time>2026-09-02T22:07:41Z</time>
  <course>187.46</course>
  <speed>0.0282842712474619</speed>
  <fix>3d</fix>
</trkpt>
<trkpt lat="33.8103134" lon="-118.3938711">
  <ele>-5.321</ele>
  <time>2026-09-02T22:07:41Z</time>
  <course>187.46</course>
  <speed>0.0282842712474619</speed>
  <fix>3d</fix>
</trkpt>
<trkpt lat="33.8103133" lon="-118.393871">
  <ele>-5.03</ele>
  <time>2026-09-02T22:07:41Z</time>
  <course>275.95</course>
  <speed>0.01</speed>
  <fix>3d</fix>
</trkpt>
<trkpt lat="33.8103134" lon="-118.3938711">
  <ele>-5.323</ele>
  <time>2026-09-02T22:07:41Z</time>
  <course>187.46</course>
  <speed>0.0282842712474619</speed>
  <fix>3d</fix>
</trkpt>
<trkpt lat="33.8103134" lon="-118.3938711">
  <ele>-5.389</ele>
  <time>2026-09-02T22:07:41Z</time>
  <course>187.46</course>
  <speed>0.0282842712474619</speed>
  <fix>3d</fix>
</trkpt>
<trkpt lat="33.8103133" lon="-118.393871">
  <ele>-5.03</ele>
  <time>2026-09-02T22:07:41Z</time>
  <course>275.95</course>
  <speed>0.01</speed>
  <fix>3d</fix>
</trkpt>
<trkpt lat="33.8103134" lon="-118.3938711">
  <ele>-5.418</ele>
  <time>2026-09-02T22:07:41Z</time>
  <course>187.46</course>
  <speed>0.0282842712474619</speed>
  <fix>3d</fix>
</trkpt>
<trkpt lat="33.8103134" lon="-118.3938711">
  <ele>-5.457</ele>
  <time>2026-09-02T22:07:41Z</time>
  <course>187.46</course>
  <speed>0.0282842712474619</speed>
  <fix>3d</fix>
</trkpt>
<trkpt lat="33.8103133" lon="-118.393871">
  <ele>-5.16</ele>
  <time>2026-09-02T22:07:41Z</time>
  <course>275.99</course>
  <speed>0.01</speed>
  <fix>3d</fix>
</trkpt>
<trkpt lat="33.8103134" lon="-118.3938711">
  <ele>-5.481</ele>
  <time>2026-09-02T22:07:41Z</time>
  <course>187.46</course>
  <speed>0.0282842712474619</speed>
  <fix>3d</fix>
</trkpt>
<trkpt lat="33.8103134" lon="-118.3938711">
  <ele>-5.524</ele>
  <time>2026-09-02T22:07:41Z</time>
  <course>187.46</course>
  <speed>0.0282842712474619</speed>
  <fix>3d</fix>
</trkpt>
<trkpt lat="33.8103133" lon="-118.393871">
  <ele>-5.16</ele>
  <time>2026-09-02T22:07:41Z</time>
  <course>275.99</course>
  <speed>0.01</speed>
  <fix>3d</fix>
</trkpt>
<trkpt lat="33.8103134" lon="-118.3938711">
  <ele>-5.546</ele>
  <time>2026-09-02T22:07:41Z</time>
  <course>187.46</course>
  <speed>0.0282842712474619</speed>
  <fix>3d</fix>
</trkpt>
<trkpt lat="33.8103134" lon="-118.3938712">
  <ele>-5.592</ele>
  <time>2026-09-02T22:07:41Z</time>
  <course>187.46</course>
  <speed>0.0282842712474619</speed>
  <fix>3d</fix>
</trkpt>
<trkpt lat="33.8103133" lon="-118.393871">
  <ele>-5.29</ele>
  <time>2026-09-02T22:07:41Z</time>
  <course>276.01</course>
  <speed>0.01</speed>
  <fix>3d</fix>
</trkpt>
<trkpt lat="33.8103134" lon="-118.3938712">
  <ele>-5.658</ele>
  <time>2026-09-02T22:07:41Z</time>
  <course>187.46</course>
  <speed>0.03605551275463989</speed>
  <fix>3d</fix>
</trkpt>
<trkpt lat="33.8103133" lon="-118.393871">
  <ele>-5.29</ele>
  <time>2026-09-02T22:07:41Z</time>
  <course>276.01</course>
  <speed>0.01</speed>
  <fix>3d</fix>
</trkpt>
<trkpt lat="33.8103134" lon="-118.3938712">
  <ele>-5.716</ele>
  <time>2026-09-02T22:07:41Z</time>
  <course>187.46</course>
  <speed>0.03605551275463989</speed>
  <fix>3d</fix>
</trkpt>
<trkpt lat="33.8103133" lon="-118.3938711">
  <ele>-5.42</ele>
  <time>2026-09-02T22:07:41Z</time>
  <course>276.03</course>
  <speed>0.01</speed>
  <fix>3d</fix>
</trkpt>
<trkpt lat="33.8103134" lon="-118.3938712">
  <ele>-5.76</ele>
  <time>2026-09-02T22:07:41Z</time>
  <course>187.46</course>
  <speed>0.03605551275463989</speed>
  <fix>3d</fix>
</trkpt>
<trkpt lat="33.8103133" lon="-118.3938711">
  <ele>-5.42</ele>
  <time>2026-09-02T22:07:41Z</time>
  <course>276.03</course>
  <speed>0.01</speed>
  <fix>3d</fix>
</trkpt>
<trkpt lat="33.8103134" lon="-118.3938712">
  <ele>-5.791</ele>
  <time>2026-09-02T22:07:41Z</time>
  <course>187.46</course>
  <speed>0.03605551275463989</speed>
  <fix>3d</fix>
</trkpt>
<trkpt lat="33.8103133" lon="-118.3938711">
  <ele>-5.52</ele>
  <time>2026-09-02T22:07:41Z</time>
  <course>276.01</course>
  <speed>0.01</speed>
  <fix>3d</fix>
</trkpt>
<trkpt lat="33.8103135" lon="-118.3938712">
  <ele>-5.812</ele>
  <time>2026-09-02T22:07:41Z</time>
  <course>187.46</course>
  <speed>0.03605551275463989</speed>
  <fix>3d</fix>
</trkpt>
<trkpt lat="33.8103133" lon="-118.3938711">
  <ele>-5.52</ele>
  <time>2026-09-02T22:07:41Z</time>
  <course>276.01</course>
  <speed>0.01</speed>
  <fix>3d</fix>
</trkpt>
<trkpt lat="33.8103135" lon="-118.3938712">
  <ele>-5.824</ele>
  <time>2026-09-02T22:07:41Z</time>
  <course>187.46</course>
  <speed>0.03605551275463989</speed>
  <fix>3d</fix>
</trkpt>
<trkpt lat="33.8103133" lon="-118.3938711">
  <ele>-5.59</ele>
  <time>2026-09-02T22:07:41Z</time>
  <course>275.97</course>
  <speed>0.01</speed>
  <fix>3d</fix>
</trkpt>
<trkpt lat="33.8103135" lon="-118.3938712">
  <ele>-5.829</ele>
  <time>2026-09-02T22:07:41Z</time>
  <course>187.46</course>
  <speed>0.03605551275463989</speed>
  <fix>3d</fix>
</trkpt>
<trkpt lat="33.8103133" lon="-118.3938711">
  <ele>-5.59</ele>
  <time>2026-09-02T22:07:41Z</time>
  <course>275.97</course>
  <speed>0.01</speed>
  <fix>3d</fix>
</trkpt>
<trkpt lat="33.8103135" lon="-118.3938713">
  <ele>-5.83</ele>
  <time>2026-09-02T22:07:41Z</time>
  <course>187.46</course>
  <speed>0.03605551275463989</speed>
  <fix>3d</fix>
</trkpt>
<trkpt lat="33.8103133" lon="-118.3938711">
  <ele>-5.63</ele>
  <time>2026-09-02T22:07:41Z</time>
  <course>275.96</course>
  <speed>0.01</speed>
  <fix>3d</fix>
</trkpt>
<trkpt lat="33.8103135" lon="-118.3938713">
  <ele>-5.829</ele>
  <time>2026-09-02T22:07:41Z</time>
  <course>187.46</course>
  <speed>0.03605551275463989</speed>
  <fix>3d</fix>
</trkpt>
<trkpt lat="33.8103133" lon="-118.3938711">
  <ele>-5.63</ele>
  <time>2026-09-02T22:07:41Z</time>
  <course>275.96</course>
  <speed>0.01</speed>
  <fix>3d</fix>
</trkpt>
<trkpt lat="33.8103135" lon="-118.3938713">
  <ele>-5.828</ele>
  <time>2026-09-02T22:07:41Z</time>
  <course>187.46</course>
  <speed>0.03605551275463989</speed>
  <fix>3d</fix>
</trkpt>
<trkpt lat="33.8103133" lon="-118.3938712">
  <ele>-5.64</ele>
  <time>2026-09-02T22:07:41Z</time>
  <course>275.96</course>
  <speed>0.01</speed>
  <fix>3d</fix>
</trkpt>
<trkpt lat="33.8103135" lon="-118.3938713">
  <ele>-5.827</ele>
  <time>2026-09-02T22:07:42Z</time>
  <course>187.46</course>
  <speed>0.03605551275463989</speed>
  <fix>3d</fix>
</trkpt>
<trkpt lat="33.8103133" lon="-118.3938712">
  <ele>-5.64</ele>
  <time>2026-09-02T22:07:42Z</time>
  <course>275.96</course>
  <speed>0.01</speed>
  <fix>3d</fix>
</trkpt>
<trkpt lat="33.8103135" lon="-118.3938713">
  <ele>-5.827</ele>
  <time>2026-09-02T22:07:42Z</time>
  <course>187.46</course>
  <speed>0.03605551275463989</speed>
  <fix>3d</fix>
</trkpt>
<trkpt lat="33.8103133" lon="-118.3938712">
  <ele>-5.64</ele>
  <time>2026-09-02T22:07:42Z</time>
  <course>275.98</course>
  <speed>0.01</speed>
  <fix>3d</fix>
</trkpt>
<trkpt lat="33.8103135" lon="-118.3938713">
  <ele>-5.826</ele>
  <time>2026-09-02T22:07:42Z</time>
  <course>187.46</course>
  <speed>0.03605551275463989</speed>
  <fix>3d</fix>
</trkpt>
<trkpt lat="33.8103133" lon="-118.3938712">
  <ele>-5.64</ele>
  <time>2026-09-02T22:07:42Z</time>
  <course>275.98</course>
  <speed>0.01</speed>
  <fix>3d</fix>
</trkpt>
<trkpt lat="33.8103135" lon="-118.3938713">
  <ele>-5.825</ele>
  <time>2026-09-02T22:07:42Z</time>
  <course>187.46</course>
  <speed>0.03605551275463989</speed>
  <fix>3d</fix>
</trkpt>
<trkpt lat="33.8103133" lon="-118.3938712">
  <ele>-5.65</ele>
  <time>2026-09-02T22:07:42Z</time>
  <course>276.0</course>
  <speed>0.01</speed>
  <fix>3d</fix>
</trkpt>
<trkpt lat="33.8103135" lon="-118.3938714">
  <ele>-5.825</ele>
  <time>2026-09-02T22:07:42Z</time>
  <course>187.46</course>
  <speed>0.03605551275463989</speed>
  <fix>3d</fix>
</trkpt>
<trkpt lat="33.8103133" lon="-118.3938712">
  <ele>-5.65</ele>
  <time>2026-09-02T22:07:42Z</time>
  <course>276.0</course>
  <speed>0.01</speed>
  <fix>3d</fix>
</trkpt>
<trkpt lat="33.8103135" lon="-118.3938714">
  <ele>-5.827</ele>
  <time>2026-09-02T22:07:42Z</time>
  <course>187.46</course>
  <speed>0.03605551275463989</speed>
  <fix>3d</fix>
</trkpt>
<trkpt lat="33.8103133" lon="-118.3938712">
  <ele>-5.66</ele>
  <time>2026-09-02T22:07:42Z</time>
  <course>276.02</course>
  <speed>0.01</speed>
  <fix>3d</fix>
</trkpt>
<trkpt lat="33.8103135" lon="-118.3938714">
  <ele>-5.83</ele>
  <time>2026-09-02T22:07:42Z</time>
  <course>187.46</course>
  <speed>0.03605551275463989</speed>
  <fix>3d</fix>
</trkpt>
<trkpt lat="33.8103133" lon="-118.3938712">
  <ele>-5.66</ele>
  <time>2026-09-02T22:07:42Z</time>
  <course>276.02</course>
  <speed>0.01</speed>
  <fix>3d</fix>
</trkpt>
<trkpt lat="33.8103135" lon="-118.3938714">
  <ele>-5.832</ele>
  <time>2026-09-02T22:07:42Z</time>
  <course>187.46</course>
  <speed>0.03605551275463989</speed>
  <fix>3d</fix>
</trkpt>
<trkpt lat="33.8103133" lon="-118.3938713">
  <ele>-5.67</ele>
  <time>2026-09-02T22:07:42Z</time>
  <course>276.04</course>
  <speed>0.01</speed>
  <fix>3d</fix>
</trkpt>
<trkpt lat="33.8103135" lon="-118.3938714">
  <ele>-5.832</ele>
  <time>2026-09-02T22:07:42Z</time>
  <course>187.46</course>
  <speed>0.03605551275463989</speed>
  <fix>3d</fix>
</trkpt>
<trkpt lat="33.8103133" lon="-118.3938713">
  <ele>-5.67</ele>
  <time>2026-09-02T22:07:42Z</time>
  <course>276.04</course>
  <speed>0.01</speed>
  <fix>3d</fix>
</trkpt>
<trkpt lat="33.8103135" lon="-118.3938714">
  <ele>-5.832</ele>
  <time>2026-09-02T22:07:42Z</time>
  <course>187.46</course>
  <speed>0.04242640687119285</speed>
  <fix>3d</fix>
</trkpt>
<trkpt lat="33.8103133" lon="-118.3938713">
  <ele>-5.68</ele>
  <time>2026-09-02T22:07:42Z</time>
  <course>276.06</course>
  <speed>0.01</speed>
  <fix>3d</fix>
</trkpt>
<trkpt lat="33.8103135" lon="-118.3938714">
  <ele>-5.833</ele>
  <time>2026-09-02T22:07:42Z</time>
  <course>187.46</course>
  <speed>0.04242640687119285</speed>
  <fix>3d</fix>
</trkpt>
<trkpt lat="33.8103133" lon="-118.3938713">
  <ele>-5.68</ele>
  <time>2026-09-02T22:07:42Z</time>
  <course>276.06</course>
  <speed>0.01</speed>
  <fix>3d</fix>
</trkpt>
<trkpt lat="33.8103135" lon="-118.3938714">
  <ele>-5.834</ele>
  <time>2026-09-02T22:07:42Z</time>
  <course>187.46</course>
  <speed>0.04242640687119285</speed>
  <fix>3d</fix>
</trkpt>
<trkpt lat="33.8103133" lon="-118.3938713">
  <ele>-5.68</ele>
  <time>2026-09-02T22:07:42Z</time>
  <course>276.08</course>
  <speed>0.01</speed>
  <fix>3d</fix>
</trkpt>
<trkpt lat="33.8103135" lon="-118.3938715">
  <ele>-5.836</ele>
  <time>2026-09-02T22:07:42Z</time>
  <course>187.46</course>
  <speed>0.03605551275463989</speed>
  <fix>3d</fix>
</trkpt>
<trkpt lat="33.8103133" lon="-118.3938713">
  <ele>-5.68</ele>
  <time>2026-09-02T22:07:42Z</time>
  <course>276.08</course>
  <speed>0.01</speed>
  <fix>3d</fix>
</trkpt>
<trkpt lat="33.8103135" lon="-118.3938715">
  <ele>-5.838</ele>
  <time>2026-09-02T22:07:42Z</time>
  <course>187.46</course>
  <speed>0.03605551275463989</speed>
  <fix>3d</fix>
</trkpt>
<trkpt lat="33.8103133" lon="-118.3938713">
  <ele>-5.69</ele>
  <time>2026-09-02T22:07:42Z</time>
  <course>276.1</course>
  <speed>0.01</speed>
  <fix>3d</fix>
</trkpt>
<trkpt lat="33.8103135" lon="-118.3938715">
  <ele>-5.84</ele>
  <time>2026-09-02T22:07:42Z</time>
  <course>187.46</course>
  <speed>0.03605551275463989</speed>
  <fix>3d</fix>
</trkpt>
<trkpt lat="33.8103133" lon="-118.3938713">
  <ele>-5.69</ele>
  <time>2026-09-02T22:07:42Z</time>
  <course>276.1</course>
  <speed>0.01</speed>
  <fix>3d</fix>
</trkpt>
<trkpt lat="33.8103135" lon="-118.3938715">
  <ele>-5.841</ele>
  <time>2026-09-02T22:07:42Z</time>
  <course>187.46</course>
  <speed>0.03605551275463989</speed>
  <fix>3d</fix>
</trkpt>
<trkpt lat="33.8103133" lon="-118.3938714">
  <ele>-5.7</ele>
  <time>2026-09-02T22:07:42Z</time>
  <course>276.11</course>
  <speed>0.01</speed>
  <fix>3d</fix>
</trkpt>
<trkpt lat="33.8103135" lon="-118.3938715">
  <ele>-5.842</ele>
  <time>2026-09-02T22:07:42Z</time>
  <course>187.46</course>
  <speed>0.03605551275463989</speed>
  <fix>3d</fix>
</trkpt>
<trkpt lat="33.8103133" lon="-118.3938714">
  <ele>-5.7</ele>
  <time>2026-09-02T22:07:42Z</time>
  <course>276.11</course>
  <speed>0.01</speed>
  <fix>3d</fix>
</trkpt>
<trkpt lat="33.8103135" lon="-118.3938715">
  <ele>-5.841</ele>
  <time>2026-09-02T22:07:42Z</time>
  <course>187.46</course>
  <speed>0.03605551275463989</speed>
  <fix>3d</fix>
</trkpt>
<trkpt lat="33.8103133" lon="-118.3938714">
  <ele>-5.7</ele>
  <time>2026-09-02T22:07:42Z</time>
  <course>276.12</course>
  <speed>0.01</speed>
  <fix>3d</fix>
</trkpt>
<trkpt lat="33.8103135" lon="-118.3938715">
  <ele>-5.841</ele>
  <time>2026-09-02T22:07:42Z</time>
  <course>187.46</course>
  <speed>0.03605551275463989</speed>
  <fix>3d</fix>
</trkpt>
<trkpt lat="33.8103133" lon="-118.3938714">
  <ele>-5.7</ele>
  <time>2026-09-02T22:07:42Z</time>
  <course>276.12</course>
  <speed>0.01</speed>
  <fix>3d</fix>
</trkpt>
<trkpt lat="33.8103135" lon="-118.3938716">
  <ele>-5.842</ele>
  <time>2026-09-02T22:07:42Z</time>
  <course>187.46</course>
  <speed>0.03605551275463989</speed>
  <fix>3d</fix>
</trkpt>
<trkpt lat="33.8103133" lon="-118.3938714">
  <ele>-5.7</ele>
  <time>2026-09-02T22:07:42Z</time>
  <course>276.13</course>
  <speed>0.01</speed>
  <fix>3d</fix>
</trkpt>
<trkpt lat="33.8103135" lon="-118.3938716">
  <ele>-5.842</ele>
  <time>2026-09-02T22:07:42Z</time>
  <course>187.46</course>
  <speed>0.03605551275463989</speed>
  <fix>3d</fix>
</trkpt>
<trkpt lat="33.8103133" lon="-118.3938714">
  <ele>-5.7</ele>
  <time>2026-09-02T22:07:42Z</time>
  <course>276.13</course>
  <speed>0.01</speed>
  <fix>3d</fix>
</trkpt>
<trkpt lat="33.8103135" lon="-118.3938716">
  <ele>-5.84</ele>
  <time>2026-09-02T22:07:42Z</time>
  <course>187.46</course>
  <speed>0.03605551275463989</speed>
  <fix>3d</fix>
</trkpt>
<trkpt lat="33.8103133" lon="-118.3938714">
  <ele>-5.7</ele>
  <time>2026-09-02T22:07:42Z</time>
  <course>276.14</course>
  <speed>0.01</speed>
  <fix>3d</fix>
</trkpt>
<trkpt lat="33.8103135" lon="-118.3938716">
  <ele>-5.839</ele>
  <time>2026-09-02T22:07:42Z</time>
  <course>187.46</course>
  <speed>0.03605551275463989</speed>
  <fix>3d</fix>
</trkpt>
<trkpt lat="33.8103133" lon="-118.3938714">
  <ele>-5.7</ele>
  <time>2026-09-02T22:07:42Z</time>
  <course>276.14</course>
  <speed>0.01</speed>
  <fix>3d</fix>
</trkpt>
<trkpt lat="33.8103135" lon="-118.3938716">
  <ele>-5.837</ele>
  <time>2026-09-02T22:07:42Z</time>
  <course>187.46</course>
  <speed>0.03605551275463989</speed>
  <fix>3d</fix>
</trkpt>
<trkpt lat="33.8103133" lon="-118.3938715">
  <ele>-5.7</ele>
  <time>2026-09-02T22:07:42Z</time>
  <course>276.15</course>
  <speed>0.01</speed>
  <fix>3d</fix>
</trkpt>
<trkpt lat="33.8103135" lon="-118.3938716">
  <ele>-5.836</ele>
  <time>2026-09-02T22:07:42Z</time>
  <course>187.46</course>
  <speed>0.03605551275463989</speed>
  <fix>3d</fix>
</trkpt>
<trkpt lat="33.8103133" lon="-118.3938715">
  <ele>-5.7</ele>
  <time>2026-09-02T22:07:42Z</time>
  <course>276.15</course>
  <speed>0.01</speed>
  <fix>3d</fix>
</trkpt>
<trkpt lat="33.8103135" lon="-118.3938716">
  <ele>-5.837</ele>
  <time>2026-09-02T22:07:42Z</time>
  <course>187.46</course>
  <speed>0.03605551275463989</speed>
  <fix>3d</fix>
</trkpt>
<trkpt lat="33.8103133" lon="-118.3938715">
  <ele>-5.7</ele>
  <time>2026-09-02T22:07:42Z</time>
  <course>276.17</course>
  <speed>0.01</speed>
  <fix>3d</fix>
</trkpt>
<trkpt lat="33.8103135" lon="-118.3938717">
  <ele>-5.839</ele>
  <time>2026-09-02T22:07:42Z</time>
  <course>187.46</course>
  <speed>0.03605551275463989</speed>
  <fix>3d</fix>
</trkpt>
<trkpt lat="33.8103133" lon="-118.3938715">
  <ele>-5.7</ele>
  <time>2026-09-02T22:07:42Z</time>
  <course>276.17</course>
  <speed>0.01</speed>
  <fix>3d</fix>
</trkpt>
<trkpt lat="33.8103135" lon="-118.3938717">
  <ele>-5.841</ele>
  <time>2026-09-02T22:07:42Z</time>
  <course>187.46</course>
  <speed>0.03605551275463989</speed>
  <fix>3d</fix>
</trkpt>
<trkpt lat="33.8103133" lon="-118.3938715">
  <ele>-5.71</ele>
  <time>2026-09-02T22:07:42Z</time>
  <course>276.18</course>
  <speed>0.01</speed>
  <fix>3d</fix>
</trkpt>
<trkpt lat="33.8103135" lon="-118.3938717">
  <ele>-5.843</ele>
  <time>2026-09-02T22:07:42Z</time>
  <course>187.46</course>
  <speed>0.03605551275463989</speed>
  <fix>3d</fix>
</trkpt>
<trkpt lat="33.8103133" lon="-118.3938715">
  <ele>-5.71</ele>
  <time>2026-09-02T22:07:42Z</time>
  <course>276.18</course>
  <speed>0.01</speed>
  <fix>3d</fix>
</trkpt>
<trkpt lat="33.8103135" lon="-118.3938717">
  <ele>-5.845</ele>
  <time>2026-09-02T22:07:42Z</time>
  <course>187.46</course>
  <speed>0.03605551275463989</speed>
  <fix>3d</fix>
</trkpt>
<trkpt lat="33.8103133" lon="-118.3938716">
  <ele>-5.71</ele>
  <time>2026-09-02T22:07:42Z</time>
  <course>276.19</course>
  <speed>0.01</speed>
  <fix>3d</fix>
</trkpt>
<trkpt lat="33.8103135" lon="-118.3938717">
  <ele>-5.846</ele>
  <time>2026-09-02T22:07:42Z</time>
  <course>187.46</course>
  <speed>0.03605551275463989</speed>
  <fix>3d</fix>
</trkpt>
<trkpt lat="33.8103133" lon="-118.3938716">
  <ele>-5.71</ele>
  <time>2026-09-02T22:07:42Z</time>
  <course>276.19</course>
  <speed>0.01</speed>
  <fix>3d</fix>
</trkpt>
<trkpt lat="33.8103135" lon="-118.3938717">
  <ele>-5.847</ele>
  <time>2026-09-02T22:07:42Z</time>
  <course>187.46</course>
  <speed>0.03605551275463989</speed>
  <fix>3d</fix>
</trkpt>
<trkpt lat="33.8103133" lon="-118.3938716">
  <ele>-5.71</ele>
  <time>2026-09-02T22:07:42Z</time>
  <course>276.19</course>
  <speed>0.01</speed>
  <fix>3d</fix>
</trkpt>
<trkpt lat="33.8103135" lon="-118.3938717">
  <ele>-5.847</ele>
  <time>2026-09-02T22:07:42Z</time>
  <course>187.46</course>
  <speed>0.03605551275463989</speed>
  <fix>3d</fix>
</trkpt>
<trkpt lat="33.8103133" lon="-118.3938716">
  <ele>-5.71</ele>
  <time>2026-09-02T22:07:42Z</time>
  <course>276.19</course>
  <speed>0.01</speed>
  <fix>3d</fix>
</trkpt>
<trkpt lat="33.8103135" lon="-118.3938718">
  <ele>-5.847</ele>
  <time>2026-09-02T22:07:42Z</time>
  <course>187.46</course>
  <speed>0.03605551275463989</speed>
  <fix>3d</fix>
</trkpt>
<trkpt lat="33.8103133" lon="-118.3938716">
  <ele>-5.71</ele>
  <time>2026-09-02T22:07:42Z</time>
  <course>276.2</course>
  <speed>0.01</speed>
  <fix>3d</fix>
</trkpt>
<trkpt lat="33.8103135" lon="-118.3938718">
  <ele>-5.847</ele>
  <time>2026-09-02T22:07:42Z</time>
  <course>187.46</course>
  <speed>0.03605551275463989</speed>
  <fix>3d</fix>
</trkpt>
<trkpt lat="33.8103133" lon="-118.3938716">
  <ele>-5.71</ele>
  <time>2026-09-02T22:07:42Z</time>
  <course>276.2</course>
  <speed>0.01</speed>
  <fix>3d</fix>
</trkpt>
<trkpt lat="33.8103135" lon="-118.3938718">
  <ele>-5.846</ele>
  <time>2026-09-02T22:07:42Z</time>
  <course>187.46</course>
  <speed>0.03605551275463989</speed>
  <fix>3d</fix>
</trkpt>
<trkpt lat="33.8103133" lon="-118.3938717">
  <ele>-5.7</ele>
  <time>2026-09-02T22:07:42Z</time>
  <course>276.21</course>
  <speed>0.01</speed>
  <fix>3d</fix>
</trkpt>
<trkpt lat="33.8103135" lon="-118.3938718">
  <ele>-5.845</ele>
  <time>2026-09-02T22:07:42Z</time>
  <course>187.46</course>
  <speed>0.03605551275463989</speed>
  <fix>3d</fix>
</trkpt>
<trkpt lat="33.8103133" lon="-118.3938717">
  <ele>-5.7</ele>
  <time>2026-09-02T22:07:42Z</time>
  <course>276.21</course>
  <speed>0.01</speed>
  <fix>3d</fix>
</trkpt>
<trkpt lat="33.8103135" lon="-118.3938718">
  <ele>-5.844</ele>
  <time>2026-09-02T22:07:42Z</time>
  <course>187.46</course>
  <speed>0.03605551275463989</speed>
  <fix>3d</fix>
</trkpt>
<trkpt lat="33.8103133" lon="-118.3938717">
  <ele>-5.7</ele>
  <time>2026-09-02T22:07:42Z</time>
  <course>276.22</course>
  <speed>0.01</speed>
  <fix>3d</fix>
</trkpt>
<trkpt lat="33.8103135" lon="-118.3938718">
  <ele>-5.842</ele>
  <time>2026-09-02T22:07:42Z</time>
  <course>187.46</course>
  <speed>0.03605551275463989</speed>
  <fix>3d</fix>
</trkpt>
<trkpt lat="33.8103133" lon="-118.3938717">
  <ele>-5.7</ele>
  <time>2026-09-02T22:07:42Z</time>
  <course>276.22</course>
  <speed>0.01</speed>
  <fix>3d</fix>
</trkpt>
<trkpt lat="33.8103135" lon="-118.3938718">
  <ele>-5.84</ele>
  <time>2026-09-02T22:07:42Z</time>
  <course>187.46</course>
  <speed>0.03605551275463989</speed>
  <fix>3d</fix>
</trkpt>
<trkpt lat="33.8103133" lon="-118.3938717">
  <ele>-5.69</ele>
  <time>2026-09-02T22:07:42Z</time>
  <course>276.23</course>
  <speed>0.01</speed>
  <fix>3d</fix>
</trkpt>
<trkpt lat="33.8103135" lon="-118.3938719">
  <ele>-5.838</ele>
  <time>2026-09-02T22:07:42Z</time>
  <course>187.46</course>
  <speed>0.03605551275463989</speed>
  <fix>3d</fix>
</trkpt>
<trkpt lat="33.8103133" lon="-118.3938717">
  <ele>-5.69</ele>
  <time>2026-09-02T22:07:42Z</time>
  <course>276.23</course>
  <speed>0.01</speed>
  <fix>3d</fix>
</trkpt>
<trkpt lat="33.8103135" lon="-118.3938719">
  <ele>-5.836</ele>
  <time>2026-09-02T22:07:42Z</time>
  <course>187.46</course>
  <speed>0.03605551275463989</speed>
  <fix>3d</fix>
</trkpt>
<trkpt lat="33.8103133" lon="-118.3938718">
  <ele>-5.69</ele>
  <time>2026-09-02T22:07:42Z</time>
  <course>276.24</course>
  <speed>0.01</speed>
  <fix>3d</fix>
</trkpt>
<trkpt lat="33.8103135" lon="-118.3938719">
  <ele>-5.835</ele>
  <time>2026-09-02T22:07:42Z</time>
  <course>187.46</course>
  <speed>0.03605551275463989</speed>
  <fix>3d</fix>
</trkpt>
<trkpt lat="33.8103133" lon="-118.3938718">
  <ele>-5.69</ele>
  <time>2026-09-02T22:07:42Z</time>
  <course>276.24</course>
  <speed>0.01</speed>
  <fix>3d</fix>
</trkpt>
<trkpt lat="33.8103135" lon="-118.3938719">
  <ele>-5.83</ele>
  <time>2026-09-02T22:07:42Z</time>
  <course>187.44</course>
  <speed>0.03605551275463989</speed>
  <fix>3d</fix>
</trkpt>
<trkpt lat="33.8103133" lon="-118.3938718">
  <ele>-5.69</ele>
  <time>2026-09-02T22:07:42Z</time>
  <course>276.24</course>
  <speed>0.01</speed>
  <fix>3d</fix>
</trkpt>
<trkpt lat="33.8103135" lon="-118.3938719">
  <ele>-5.82</ele>
  <time>2026-09-02T22:07:42Z</time>
  <course>187.39</course>
  <speed>0.03605551275463989</speed>
  <fix>3d</fix>
</trkpt>
<trkpt lat="33.8103133" lon="-118.3938718">
  <ele>-5.69</ele>
  <time>2026-09-02T22:07:42Z</time>
  <course>276.24</course>
  <speed>0.01</speed>
  <fix>3d</fix>
</trkpt>
<trkpt lat="33.8103135" lon="-118.393872">
  <ele>-5.806</ele>
  <time>2026-09-02T22:07:42Z</time>
  <course>187.32</course>
  <speed>0.03605551275463989</speed>
  <fix>3d</fix>
</trkpt>
<trkpt lat="33.8103133" lon="-118.3938718">
  <ele>-5.68</ele>
  <time>2026-09-02T22:07:42Z</time>
  <course>276.24</course>
  <speed>0.01</speed>
  <fix>3d</fix>
</trkpt>
<trkpt lat="33.8103135" lon="-118.393872">
  <ele>-5.788</ele>
  <time>2026-09-02T22:07:42Z</time>
  <course>187.25</course>
  <speed>0.03605551275463989</speed>
  <fix>3d</fix>
</trkpt>
<trkpt lat="33.8103133" lon="-118.3938718">
  <ele>-5.68</ele>
  <time>2026-09-02T22:07:42Z</time>
  <course>276.24</course>
  <speed>0.01</speed>
  <fix>3d</fix>
</trkpt>
<trkpt lat="33.8103135" lon="-118.393872">
  <ele>-5.766</ele>
  <time>2026-09-02T22:07:42Z</time>
  <course>187.2</course>
  <speed>0.03605551275463989</speed>
  <fix>3d</fix>
</trkpt>
<trkpt lat="33.8103133" lon="-118.3938719">
  <ele>-5.66</ele>
  <time>2026-09-02T22:07:42Z</time>
  <course>276.23</course>
  <speed>0.01</speed>
  <fix>3d</fix>
</trkpt>
<trkpt lat="33.8103135" lon="-118.393872">
  <ele>-5.741</ele>
  <time>2026-09-02T22:07:42Z</time>
  <course>187.16</course>
  <speed>0.03605551275463989</speed>
  <fix>3d</fix>
</trkpt>
<trkpt lat="33.8103133" lon="-118.3938719">
  <ele>-5.66</ele>
  <time>2026-09-02T22:07:42Z</time>
  <course>276.23</course>
  <speed>0.01</speed>
  <fix>3d</fix>
</trkpt>
<trkpt lat="33.8103135" lon="-118.393872">
  <ele>-5.713</ele>
  <time>2026-09-02T22:07:42Z</time>
  <course>187.12</course>
  <speed>0.03605551275463989</speed>
  <fix>3d</fix>
</trkpt>
<trkpt lat="33.8103133" lon="-118.3938719">
  <ele>-5.62</ele>
  <time>2026-09-02T22:07:42Z</time>
  <course>276.22</course>
  <speed>0.01</speed>
  <fix>3d</fix>
</trkpt>
<trkpt lat="33.8103135" lon="-118.393872">
  <ele>-5.684</ele>
  <time>2026-09-02T22:07:42Z</time>
  <course>187.09</course>
  <speed>0.03605551275463989</speed>
  <fix>3d</fix>
</trkpt>
<trkpt lat="33.8103133" lon="-118.3938719">
  <ele>-5.62</ele>
  <time>2026-09-02T22:07:42Z</time>
  <course>276.22</course>
  <speed>0.01</speed>
  <fix>3d</fix>
</trkpt>
<trkpt lat="33.8103135" lon="-118.3938721">
  <ele>-5.654</ele>
  <time>2026-09-02T22:07:42Z</time>
  <course>187.07</course>
  <speed>0.0282842712474619</speed>
  <fix>3d</fix>
</trkpt>
<trkpt lat="33.8103133" lon="-118.3938719">
  <ele>-5.56</ele>
  <time>2026-09-02T22:07:42Z</time>
  <course>276.2</course>
  <speed>0.01</speed>
  <fix>3d</fix>
</trkpt>
<trkpt lat="33.8103135" lon="-118.3938721">
  <ele>-5.623</ele>
  <time>2026-09-02T22:07:42Z</time>
  <course>187.04</course>
  <speed>0.0282842712474619</speed>
  <fix>3d</fix>
</trkpt>
<trkpt lat="33.8103133" lon="-118.3938719">
  <ele>-5.56</ele>
  <time>2026-09-02T22:07:42Z</time>
  <course>276.2</course>
  <speed>0.01</speed>
  <fix>3d</fix>
</trkpt>
<trkpt lat="33.8103135" lon="-118.3938721">
  <ele>-5.591</ele>
  <time>2026-09-02T22:07:42Z</time>
  <course>187.02</course>
  <speed>0.0282842712474619</speed>
  <fix>3d</fix>
</trkpt>
<trkpt lat="33.8103133" lon="-118.3938719">
  <ele>-5.51</ele>
  <time>2026-09-02T22:07:42Z</time>
  <course>276.18</course>
  <speed>0.01</speed>
  <fix>3d</fix>
</trkpt>
<trkpt lat="33.8103135" lon="-118.3938721">
  <ele>-5.56</ele>
  <time>2026-09-02T22:07:42Z</time>
  <course>187.0</course>
  <speed>0.0282842712474619</speed>
  <fix>3d</fix>
</trkpt>
<trkpt lat="33.8103133" lon="-118.3938719">
  <ele>-5.51</ele>
  <time>2026-09-02T22:07:42Z</time>
  <course>276.18</course>
  <speed>0.01</speed>
  <fix>3d</fix>
</trkpt>
<trkpt lat="33.8103135" lon="-118.3938721">
  <ele>-5.529</ele>
  <time>2026-09-02T22:07:42Z</time>
  <course>186.98</course>
  <speed>0.0282842712474619</speed>
  <fix>3d</fix>
</trkpt>
<trkpt lat="33.8103133" lon="-118.3938719">
  <ele>-5.46</ele>
  <time>2026-09-02T22:07:42Z</time>
  <course>276.17</course>
  <speed>0.01</speed>
  <fix>3d</fix>
</trkpt>
<trkpt lat="33.8103135" lon="-118.3938721">
  <ele>-5.498</ele>
  <time>2026-09-02T22:07:42Z</time>
  <course>186.97</course>
  <speed>0.0282842712474619</speed>
  <fix>3d</fix>
</trkpt>
<trkpt lat="33.8103133" lon="-118.3938719">
  <ele>-5.46</ele>
  <time>2026-09-02T22:07:42Z</time>
  <course>276.17</course>
  <speed>0.01</speed>
  <fix>3d</fix>
</trkpt>
<trkpt lat="33.8103135" lon="-118.3938721">
  <ele>-5.47</ele>
  <time>2026-09-02T22:07:42Z</time>
  <course>186.95</course>
  <speed>0.0282842712474619</speed>
  <fix>3d</fix>
</trkpt>
<trkpt lat="33.8103133" lon="-118.3938719">
  <ele>-5.39</ele>
  <time>2026-09-02T22:07:42Z</time>
  <course>276.16</course>
  <speed>0.01</speed>
  <fix>3d</fix>
</trkpt>
<trkpt lat="33.8103135" lon="-118.3938721">
  <ele>-5.445</ele>
  <time>2026-09-02T22:07:42Z</time>
  <course>186.94</course>
  <speed>0.0282842712474619</speed>
  <fix>3d</fix>
</trkpt>
<trkpt lat="33.8103133" lon="-118.3938719">
  <ele>-5.39</ele>
  <time>2026-09-02T22:07:42Z</time>
  <course>276.16</course>
  <speed>0.01</speed>
  <fix>3d</fix>
</trkpt>
<trkpt lat="33.8103135" lon="-118.3938721">
  <ele>-5.422</ele>
  <time>2026-09-02T22:07:42Z</time>
  <course>186.93</course>
  <speed>0.0282842712474619</speed>
  <fix>3d</fix>
</trkpt>
<trkpt lat="33.8103133" lon="-118.393872">
  <ele>-5.35</ele>
  <time>2026-09-02T22:07:42Z</time>
  <course>276.16</course>
  <speed>0.01</speed>
  <fix>3d</fix>
</trkpt>
<trkpt lat="33.8103135" lon="-118.3938722">
  <ele>-5.401</ele>
  <time>2026-09-02T22:07:42Z</time>
  <course>186.92</course>
  <speed>0.0282842712474619</speed>
  <fix>3d</fix>
</trkpt>
<trkpt lat="33.8103133" lon="-118.393872">
  <ele>-5.35</ele>
  <time>2026-09-02T22:07:42Z</time>
  <course>276.16</course>
  <speed>0.01</speed>
  <fix>3d</fix>
</trkpt>
<trkpt lat="33.8103135" lon="-118.3938722">
  <ele>-5.382</ele>
  <time>2026-09-02T22:07:42Z</time>
  <course>186.91</course>
  <speed>0.0282842712474619</speed>
  <fix>3d</fix>
</trkpt>
<trkpt lat="33.8103134" lon="-118.3938721">
  <ele>-5.31</ele>
  <time>2026-09-02T22:07:42Z</time>
  <course>276.15</course>
  <speed>0.01</speed>
  <fix>3d</fix>
</trkpt>
<trkpt lat="33.8103135" lon="-118.3938722">
  <ele>-5.365</ele>
  <time>2026-09-02T22:07:42Z</time>
  <course>186.91</course>
  <speed>0.0282842712474619</speed>
  <fix>3d</fix>
</trkpt>
<trkpt lat="33.8103134" lon="-118.3938721">
  <ele>-5.31</ele>
  <time>2026-09-02T22:07:42Z</time>
  <course>276.15</course>
  <speed>0.01</speed>
  <fix>3d</fix>
</trkpt>
<trkpt lat="33.8103135" lon="-118.3938722">
  <ele>-5.35</ele>
  <time>2026-09-02T22:07:42Z</time>
  <course>186.9</course>
  <speed>0.0282842712474619</speed>
  <fix>3d</fix>
</trkpt>
<trkpt lat="33.8103134" lon="-118.3938721">
  <ele>-5.27</ele>
  <time>2026-09-02T22:07:42Z</time>
  <course>276.14</course>
  <speed>0.01</speed>
  <fix>3d</fix>
</trkpt>
<trkpt lat="33.8103135" lon="-118.3938722">
  <ele>-5.336</ele>
  <time>2026-09-02T22:07:42Z</time>
  <course>186.89</course>
  <speed>0.0282842712474619</speed>
  <fix>3d</fix>
</trkpt>
<trkpt lat="33.8103134" lon="-118.3938721">
  <ele>-5.27</ele>
  <time>2026-09-02T22:07:42Z</time>
  <course>276.14</course>
  <speed>0.01</speed>
  <fix>3d</fix>
</trkpt>
<trkpt lat="33.8103135" lon="-118.3938723">
  <ele>-5.289</ele>
  <time>2026-09-02T22:07:42Z</time>
  <course>186.87</course>
  <speed>0.0282842712474619</speed>
  <fix>3d</fix>
</trkpt>
<trkpt lat="33.8103134" lon="-118.3938722">
  <ele>-5.21</ele>
  <time>2026-09-02T22:07:42Z</time>
  <course>276.11</course>
  <speed>0.01</speed>
  <fix>3d</fix>
</trkpt>
<trkpt lat="33.8103135" lon="-118.3938723">
  <ele>-5.26</ele>
  <time>2026-09-02T22:07:42Z</time>
  <course>186.86</course>
  <speed>0.0282842712474619</speed>
  <fix>3d</fix>
</trkpt>
<trkpt lat="33.8103134" lon="-118.3938722">
  <ele>-5.17</ele>
  <time>2026-09-02T22:07:42Z</time>
  <course>276.09</course>
  <speed>0.01</speed>
  <fix>3d</fix>
</trkpt>
<trkpt lat="33.8103135" lon="-118.3938723">
  <ele>-5.25</ele>
  <time>2026-09-02T22:07:42Z</time>
  <course>186.86</course>
  <speed>0.0282842712474619</speed>
  <fix>3d</fix>
</trkpt>
<trkpt lat="33.8103134" lon="-118.3938722">
  <ele>-5.17</ele>
  <time>2026-09-02T22:07:42Z</time>
  <course>276.09</course>
  <speed>0.01</speed>
  <fix>3d</fix>
</trkpt>
<trkpt lat="33.8103135" lon="-118.3938723">
  <ele>-5.231</ele>
  <time>2026-09-02T22:07:42Z</time>
  <course>186.86</course>
  <speed>0.0282842712474619</speed>
  <fix>3d</fix>
</trkpt>
<trkpt lat="33.8103134" lon="-118.3938722">
  <ele>-5.14</ele>
  <time>2026-09-02T22:07:42Z</time>
  <course>276.08</course>
  <speed>0.01</speed>
  <fix>3d</fix>
</trkpt>
<trkpt lat="33.8103135" lon="-118.3938724">
  <ele>-5.222</ele>
  <time>2026-09-02T22:07:42Z</time>
  <course>186.86</course>
  <speed>0.0282842712474619</speed>
  <fix>3d</fix>
</trkpt>
<trkpt lat="33.8103134" lon="-118.3938723">
  <ele>-5.12</ele>
  <time>2026-09-02T22:07:42Z</time>
  <course>276.06</course>
  <speed>0.01</speed>
  <fix>3d</fix>
</trkpt>
<trkpt lat="33.8103135" lon="-118.3938724">
  <ele>-5.213</ele>
  <time>2026-09-02T22:07:42Z</time>
  <course>186.85</course>
  <speed>0.0282842712474619</speed>
  <fix>3d</fix>
</trkpt>
<trkpt lat="33.8103134" lon="-118.3938723">
  <ele>-5.12</ele>
  <time>2026-09-02T22:07:42Z</time>
  <course>276.06</course>
  <speed>0.01</speed>
  <fix>3d</fix>
</trkpt>
<trkpt lat="33.8103135" lon="-118.3938724">
  <ele>-5.204</ele>
  <time>2026-09-02T22:07:42Z</time>
  <course>186.85</course>
  <speed>0.0282842712474619</speed>
  <fix>3d</fix>
</trkpt>
<trkpt lat="33.8103134" lon="-118.3938723">
  <ele>-5.1</ele>
  <time>2026-09-02T22:07:42Z</time>
  <course>276.05</course>
  <speed>0.01</speed>
  <fix>3d</fix>
</trkpt>
<trkpt lat="33.8103135" lon="-118.3938724">
  <ele>-5.194</ele>
  <time>2026-09-02T22:07:42Z</time>
  <course>186.85</course>
  <speed>0.0282842712474619</speed>
  <fix>3d</fix>
</trkpt>
<trkpt lat="33.8103134" lon="-118.3938723">
  <ele>-5.1</ele>
  <time>2026-09-02T22:07:42Z</time>
  <course>276.05</course>
  <speed>0.01</speed>
  <fix>3d</fix>
</trkpt>
<trkpt lat="33.8103135" lon="-118.3938724">
  <ele>-5.183</ele>
  <time>2026-09-02T22:07:42Z</time>
  <course>186.85</course>
  <speed>0.0282842712474619</speed>
  <fix>3d</fix>
</trkpt>
<trkpt lat="33.8103134" lon="-118.3938723">
  <ele>-5.08</ele>
  <time>2026-09-02T22:07:42Z</time>
  <course>276.04</course>
  <speed>0.01</speed>
  <fix>3d</fix>
</trkpt>
<trkpt lat="33.8103135" lon="-118.3938724">
  <ele>-5.173</ele>
  <time>2026-09-02T22:07:42Z</time>
  <course>186.85</course>
  <speed>0.0282842712474619</speed>
  <fix>3d</fix>
</trkpt>
<trkpt lat="33.8103134" lon="-118.3938723">
  <ele>-5.08</ele>
  <time>2026-09-02T22:07:42Z</time>
  <course>276.04</course>
  <speed>0.01</speed>
  <fix>3d</fix>
</trkpt>
<trkpt lat="33.8103135" lon="-118.3938724">
  <ele>-5.163</ele>
  <time>2026-09-02T22:07:42Z</time>
  <course>186.85</course>
  <speed>0.0282842712474619</speed>
  <fix>3d</fix>
</trkpt>
<trkpt lat="33.8103134" lon="-118.3938723">
  <ele>-5.06</ele>
  <time>2026-09-02T22:07:42Z</time>
  <course>276.03</course>
  <speed>0.01</speed>
  <fix>3d</fix>
</trkpt>
<trkpt lat="33.8103135" lon="-118.3938724">
  <ele>-5.153</ele>
  <time>2026-09-02T22:07:42Z</time>
  <course>186.85</course>
  <speed>0.0282842712474619</speed>
  <fix>3d</fix>
</trkpt>
<trkpt lat="33.8103134" lon="-118.3938723">
  <ele>-5.06</ele>
  <time>2026-09-02T22:07:42Z</time>
  <course>276.03</course>
  <speed>0.01</speed>
  <fix>3d</fix>
</trkpt>
<trkpt lat="33.8103135" lon="-118.3938725">
  <ele>-5.144</ele>
  <time>2026-09-02T22:07:42Z</time>
  <course>186.85</course>
  <speed>0.0282842712474619</speed>
  <fix>3d</fix>
</trkpt>
<trkpt lat="33.8103134" lon="-118.3938724">
  <ele>-5.04</ele>
  <time>2026-09-02T22:07:42Z</time>
  <course>276.01</course>
  <speed>0.01</speed>
  <fix>3d</fix>
</trkpt>
<trkpt lat="33.8103135" lon="-118.3938725">
  <ele>-5.135</ele>
  <time>2026-09-02T22:07:42Z</time>
  <course>186.85</course>
  <speed>0.0282842712474619</speed>
  <fix>3d</fix>
</trkpt>
<trkpt lat="33.8103134" lon="-118.3938724">
  <ele>-5.04</ele>
  <time>2026-09-02T22:07:42Z</time>
  <course>276.01</course>
  <speed>0.01</speed>
  <fix>3d</fix>
</trkpt>
<trkpt lat="33.8103135" lon="-118.3938725">
  <ele>-5.125</ele>
  <time>2026-09-02T22:07:42Z</time>
  <course>186.85</course>
  <speed>0.0282842712474619</speed>
  <fix>3d</fix>
</trkpt>
<trkpt lat="33.8103134" lon="-118.3938724">
  <ele>-5.02</ele>
  <time>2026-09-02T22:07:42Z</time>
  <course>276.0</course>
  <speed>0.01</speed>
  <fix>3d</fix>
</trkpt>
<trkpt lat="33.8103135" lon="-118.3938725">
  <ele>-5.116</ele>
  <time>2026-09-02T22:07:42Z</time>
  <course>186.85</course>
  <speed>0.0282842712474619</speed>
  <fix>3d</fix>
</trkpt>
<trkpt lat="33.8103134" lon="-118.3938724">
  <ele>-5.02</ele>
  <time>2026-09-02T22:07:42Z</time>
  <course>276.0</course>
  <speed>0.01</speed>
  <fix>3d</fix>
</trkpt>
<trkpt lat="33.8103135" lon="-118.3938725">
  <ele>-5.107</ele>
  <time>2026-09-02T22:07:42Z</time>
  <course>186.85</course>
  <speed>0.0282842712474619</speed>
  <fix>3d</fix>
</trkpt>
<trkpt lat="33.8103134" lon="-118.3938724">
  <ele>-5.0</ele>
  <time>2026-09-02T22:07:42Z</time>
  <course>275.99</course>
  <speed>0.01</speed>
  <fix>3d</fix>
</trkpt>
<trkpt lat="33.8103135" lon="-118.3938725">
  <ele>-5.098</ele>
  <time>2026-09-02T22:07:42Z</time>
  <course>186.85</course>
  <speed>0.0282842712474619</speed>
  <fix>3d</fix>
</trkpt>
<trkpt lat="33.8103134" lon="-118.3938724">
  <ele>-5.0</ele>
  <time>2026-09-02T22:07:42Z</time>
  <course>275.99</course>
  <speed>0.01</speed>
  <fix>3d</fix>
</trkpt>
<trkpt lat="33.8103135" lon="-118.3938725">
  <ele>-5.09</ele>
  <time>2026-09-02T22:07:42Z</time>
  <course>186.85</course>
  <speed>0.0282842712474619</speed>
  <fix>3d</fix>
</trkpt>
<trkpt lat="33.8103134" lon="-118.3938724">
  <ele>-4.97</ele>
  <time>2026-09-02T22:07:42Z</time>
  <course>275.98</course>
  <speed>0.01</speed>
  <fix>3d</fix>
</trkpt>
<trkpt lat="33.8103135" lon="-118.3938725">
  <ele>-5.081</ele>
  <time>2026-09-02T22:07:42Z</time>
  <course>186.86</course>
  <speed>0.0282842712474619</speed>
  <fix>3d</fix>
</trkpt>
<trkpt lat="33.8103134" lon="-118.3938724">
  <ele>-4.97</ele>
  <time>2026-09-02T22:07:42Z</time>
  <course>275.98</course>
  <speed>0.01</speed>
  <fix>3d</fix>
</trkpt>
<trkpt lat="33.8103135" lon="-118.3938726">
  <ele>-5.072</ele>
  <time>2026-09-02T22:07:42Z</time>
  <course>186.86</course>
  <speed>0.0282842712474619</speed>
  <fix>3d</fix>
</trkpt>
<trkpt lat="33.8103134" lon="-118.3938725">
  <ele>-4.96</ele>
  <time>2026-09-02T22:07:42Z</time>
  <course>275.96</course>
  <speed>0.01</speed>
  <fix>3d</fix>
</trkpt>
<trkpt lat="33.8103135" lon="-118.3938726">
  <ele>-5.064</ele>
  <time>2026-09-02T22:07:42Z</time>
  <course>186.86</course>
  <speed>0.0282842712474619</speed>
  <fix>3d</fix>
</trkpt>
<trkpt lat="33.8103134" lon="-118.3938725">
  <ele>-4.96</ele>
  <time>2026-09-02T22:07:42Z</time>
  <course>275.96</course>
  <speed>0.01</speed>
  <fix>3d</fix>
</trkpt>
<trkpt lat="33.8103135" lon="-118.3938726">
  <ele>-5.055</ele>
  <time>2026-09-02T22:07:42Z</time>
  <course>186.86</course>
  <speed>0.0282842712474619</speed>
  <fix>3d</fix>
</trkpt>
<trkpt lat="33.8103134" lon="-118.3938725">
  <ele>-4.93</ele>
  <time>2026-09-02T22:07:42Z</time>
  <course>275.95</course>
  <speed>0.01</speed>
  <fix>3d</fix>
</trkpt>
<trkpt lat="33.8103135" lon="-118.3938726">
  <ele>-5.047</ele>
  <time>2026-09-02T22:07:42Z</time>
  <course>186.86</course>
  <speed>0.0282842712474619</speed>
  <fix>3d</fix>
</trkpt>
<trkpt lat="33.8103134" lon="-118.3938725">
  <ele>-4.93</ele>
  <time>2026-09-02T22:07:42Z</time>
  <course>275.95</course>
  <speed>0.01</speed>
  <fix>3d</fix>
</trkpt>
<trkpt lat="33.8103135" lon="-118.3938726">
  <ele>-5.038</ele>
  <time>2026-09-02T22:07:42Z</time>
  <course>186.86</course>
  <speed>0.0282842712474619</speed>
  <fix>3d</fix>
</trkpt>
<trkpt lat="33.8103134" lon="-118.3938725">
  <ele>-4.92</ele>
  <time>2026-09-02T22:07:42Z</time>
  <course>275.94</course>
  <speed>0.01</speed>
  <fix>3d</fix>
</trkpt>
<trkpt lat="33.8103135" lon="-118.3938726">
  <ele>-5.029</ele>
  <time>2026-09-02T22:07:42Z</time>
  <course>186.86</course>
  <speed>0.0282842712474619</speed>
  <fix>3d</fix>
</trkpt>
<trkpt lat="33.8103134" lon="-118.3938725">
  <ele>-4.92</ele>
  <time>2026-09-02T22:07:42Z</time>
  <course>275.94</course>
  <speed>0.01</speed>
  <fix>3d</fix>
</trkpt>
<trkpt lat="33.8103135" lon="-118.3938726">
  <ele>-5.02</ele>
  <time>2026-09-02T22:07:42Z</time>
  <course>186.87</course>
  <speed>0.0282842712474619</speed>
  <fix>3d</fix>
</trkpt>
<trkpt lat="33.8103134" lon="-118.3938725">
  <ele>-4.91</ele>
  <time>2026-09-02T22:07:42Z</time>
  <course>275.92</course>
  <speed>0.01</speed>
  <fix>3d</fix>
</trkpt>
<trkpt lat="33.8103135" lon="-118.3938726">
  <ele>-5.01</ele>
  <time>2026-09-02T22:07:42Z</time>
  <course>186.87</course>
  <speed>0.0282842712474619</speed>
  <fix>3d</fix>
</trkpt>
<trkpt lat="33.8103134" lon="-118.3938725">
  <ele>-4.91</ele>
  <time>2026-09-02T22:07:42Z</time>
  <course>275.92</course>
  <speed>0.01</speed>
  <fix>3d</fix>
</trkpt>
<trkpt lat="33.8103135" lon="-118.3938727">
  <ele>-5.0</ele>
  <time>2026-09-02T22:07:42Z</time>
  <course>186.87</course>
  <speed>0.0282842712474619</speed>
  <fix>3d</fix>
</trkpt>
<trkpt lat="33.8103134" lon="-118.3938726">
  <ele>-4.89</ele>
  <time>2026-09-02T22:07:42Z</time>
  <course>275.91</course>
  <speed>0.01</speed>
  <fix>3d</fix>
</trkpt>
<trkpt lat="33.8103135" lon="-118.3938727">
  <ele>-4.99</ele>
  <time>2026-09-02T22:07:42Z</time>
  <course>186.87</course>
  <speed>0.0282842712474619</speed>
  <fix>3d</fix>
</trkpt>
<trkpt lat="33.8103134" lon="-118.3938726">
  <ele>-4.89</ele>
  <time>2026-09-02T22:07:42Z</time>
  <course>275.91</course>
  <speed>0.01</speed>
  <fix>3d</fix>
</trkpt>
<trkpt lat="33.8103135" lon="-118.3938727">
  <ele>-4.979</ele>
  <time>2026-09-02T22:07:42Z</time>
  <course>186.87</course>
  <speed>0.0282842712474619</speed>
  <fix>3d</fix>
</trkpt>
<trkpt lat="33.8103134" lon="-118.3938726">
  <ele>-4.87</ele>
  <time>2026-09-02T22:07:42Z</time>
  <course>275.9</course>
  <speed>0.01</speed>
  <fix>3d</fix>
</trkpt>
<trkpt lat="33.8103135" lon="-118.3938727">
  <ele>-4.969</ele>
  <time>2026-09-02T22:07:42Z</time>
  <course>186.87</course>
  <speed>0.0282842712474619</speed>
  <fix>3d</fix>
</trkpt>
<trkpt lat="33.8103134" lon="-118.3938726">
  <ele>-4.87</ele>
  <time>2026-09-02T22:07:42Z</time>
  <course>275.9</course>
  <speed>0.01</speed>
  <fix>3d</fix>
</trkpt>
<trkpt lat="33.8103135" lon="-118.3938727">
  <ele>-4.957</ele>
  <time>2026-09-02T22:07:42Z</time>
  <course>186.88</course>
  <speed>0.0282842712474619</speed>
  <fix>3d</fix>
</trkpt>
<trkpt lat="33.8103134" lon="-118.3938726">
  <ele>-4.85</ele>
  <time>2026-09-02T22:07:42Z</time>
  <course>275.89</course>
  <speed>0.01</speed>
  <fix>3d</fix>
</trkpt>
<trkpt lat="33.8103135" lon="-118.3938727">
  <ele>-4.946</ele>
  <time>2026-09-02T22:07:42Z</time>
  <course>186.88</course>
  <speed>0.0282842712474619</speed>
  <fix>3d</fix>
</trkpt>
<trkpt lat="33.8103134" lon="-118.3938726">
  <ele>-4.85</ele>
  <time>2026-09-02T22:07:42Z</time>
  <course>275.89</course>
  <speed>0.01</speed>
  <fix>3d</fix>
</trkpt>
<trkpt lat="33.8103135" lon="-118.3938727">
  <ele>-4.935</ele>
  <time>2026-09-02T22:07:42Z</time>
  <course>186.88</course>
  <speed>0.0282842712474619</speed>
  <fix>3d</fix>
</trkpt>
<trkpt lat="33.8103134" lon="-118.3938726">
  <ele>-4.83</ele>
  <time>2026-09-02T22:07:42Z</time>
  <course>275.87</course>
  <speed>0.01</speed>
  <fix>3d</fix>
</trkpt>
<trkpt lat="33.8103135" lon="-118.3938727">
  <ele>-4.923</ele>
  <time>2026-09-02T22:07:42Z</time>
  <course>186.88</course>
  <speed>0.0282842712474619</speed>
  <fix>3d</fix>
</trkpt>
<trkpt lat="33.8103134" lon="-118.3938726">
  <ele>-4.83</ele>
  <time>2026-09-02T22:07:42Z</time>
  <course>275.87</course>
  <speed>0.01</speed>
  <fix>3d</fix>
</trkpt>
<trkpt lat="33.8103135" lon="-118.3938728">
  <ele>-4.912</ele>
  <time>2026-09-02T22:07:42Z</time>
  <course>186.89</course>
  <speed>0.0282842712474619</speed>
  <fix>3d</fix>
</trkpt>
<trkpt lat="33.8103134" lon="-118.3938726">
  <ele>-4.81</ele>
  <time>2026-09-02T22:07:42Z</time>
  <course>275.86</course>
  <speed>0.0</speed>
  <fix>3d</fix>
</trkpt>
<trkpt lat="33.8103135" lon="-118.3938728">
  <ele>-4.901</ele>
  <time>2026-09-02T22:07:42Z</time>
  <course>186.89</course>
  <speed>0.0282842712474619</speed>
  <fix>3d</fix>
</trkpt>
<trkpt lat="33.8103134" lon="-118.3938726">
  <ele>-4.81</ele>
  <time>2026-09-02T22:07:42Z</time>
  <course>275.86</course>
  <speed>0.0</speed>
  <fix>3d</fix>
</trkpt>
<trkpt lat="33.8103135" lon="-118.3938728">
  <ele>-4.891</ele>
  <time>2026-09-02T22:07:42Z</time>
  <course>186.89</course>
  <speed>0.0282842712474619</speed>
  <fix>3d</fix>
</trkpt>
<trkpt lat="33.8103134" lon="-118.3938727">
  <ele>-4.79</ele>
  <time>2026-09-02T22:07:42Z</time>
  <course>275.85</course>
  <speed>0.0</speed>
  <fix>3d</fix>
</trkpt>
<trkpt lat="33.8103135" lon="-118.3938728">
  <ele>-4.88</ele>
  <time>2026-09-02T22:07:42Z</time>
  <course>186.89</course>
  <speed>0.0282842712474619</speed>
  <fix>3d</fix>
</trkpt>
<trkpt lat="33.8103134" lon="-118.3938727">
  <ele>-4.79</ele>
  <time>2026-09-02T22:07:42Z</time>
  <course>275.85</course>
  <speed>0.0</speed>
  <fix>3d</fix>
</trkpt>
<trkpt lat="33.8103135" lon="-118.3938728">
  <ele>-4.87</ele>
  <time>2026-09-02T22:07:42Z</time>
  <course>186.9</course>
  <speed>0.0282842712474619</speed>
  <fix>3d</fix>
</trkpt>
<trkpt lat="33.8103134" lon="-118.3938727">
  <ele>-4.77</ele>
  <time>2026-09-02T22:07:42Z</time>
  <course>275.83</course>
  <speed>0.0</speed>
  <fix>3d</fix>
</trkpt>
<trkpt lat="33.8103135" lon="-118.3938728">
  <ele>-4.86</ele>
  <time>2026-09-02T22:07:42Z</time>
  <course>186.9</course>
  <speed>0.0282842712474619</speed>
  <fix>3d</fix>
</trkpt>
<trkpt lat="33.8103134" lon="-118.3938727">
  <ele>-4.77</ele>
  <time>2026-09-02T22:07:42Z</time>
  <course>275.83</course>
  <speed>0.0</speed>
  <fix>3d</fix>
</trkpt>
<trkpt lat="33.8103135" lon="-118.3938728">
  <ele>-4.851</ele>
  <time>2026-09-02T22:07:42Z</time>
  <course>186.9</course>
  <speed>0.0282842712474619</speed>
  <fix>3d</fix>
</trkpt>
<trkpt lat="33.8103134" lon="-118.3938727">
  <ele>-4.75</ele>
  <time>2026-09-02T22:07:42Z</time>
  <course>275.82</course>
  <speed>0.0</speed>
  <fix>3d</fix>
</trkpt>
<trkpt lat="33.8103135" lon="-118.3938728">
  <ele>-4.842</ele>
  <time>2026-09-02T22:07:42Z</time>
  <course>186.9</course>
  <speed>0.0282842712474619</speed>
  <fix>3d</fix>
</trkpt>
<trkpt lat="33.8103134" lon="-118.3938727">
  <ele>-4.75</ele>
  <time>2026-09-02T22:07:42Z</time>
  <course>275.82</course>
  <speed>0.0</speed>
  <fix>3d</fix>
</trkpt>
<trkpt lat="33.8103135" lon="-118.3938729">
  <ele>-4.832</ele>
  <time>2026-09-02T22:07:42Z</time>
  <course>186.91</course>
  <speed>0.0282842712474619</speed>
  <fix>3d</fix>
</trkpt>
<trkpt lat="33.8103134" lon="-118.3938727">
  <ele>-4.72</ele>
  <time>2026-09-02T22:07:42Z</time>
  <course>275.81</course>
  <speed>0.0</speed>
  <fix>3d</fix>
</trkpt>
<trkpt lat="33.8103135" lon="-118.3938729">
  <ele>-4.832</ele>
  <time>2026-09-02T22:07:42Z</time>
  <course>186.91</course>
  <speed>0.0282842712474619</speed>
  <fix>3d</fix>
</trkpt>
<trkpt lat="33.8103135" lon="-118.3938729">
  <ele>-4.828</ele>
  <time>2026-09-02T22:07:42Z</time>
  <course>186.91</course>
  <speed>0.0282842712474619</speed>
  <fix>3d</fix>
</trkpt>
<trkpt lat="33.8103134" lon="-118.3938727">
  <ele>-4.72</ele>
  <time>2026-09-02T22:07:42Z</time>
  <course>275.81</course>
  <speed>0.0</speed>
  <fix>3d</fix>
</trkpt>
<trkpt lat="33.8103135" lon="-118.3938729">
  <ele>-4.846</ele>
  <time>2026-09-02T22:07:42Z</time>
  <course>186.91</course>
  <speed>0.0282842712474619</speed>
  <fix>3d</fix>
</trkpt>
<trkpt lat="33.8103134" lon="-118.3938728">
  <ele>-4.71</ele>
  <time>2026-09-02T22:07:42Z</time>
  <course>275.78</course>
  <speed>0.0</speed>
  <fix>3d</fix>
</trkpt>
<trkpt lat="33.8103135" lon="-118.3938729">
  <ele>-4.883</ele>
  <time>2026-09-02T22:07:42Z</time>
  <course>186.91</course>
  <speed>0.0282842712474619</speed>
  <fix>3d</fix>
</trkpt>
<trkpt lat="33.8103134" lon="-118.3938728">
  <ele>-4.71</ele>
  <time>2026-09-02T22:07:42Z</time>
  <course>275.78</course>
  <speed>0.0</speed>
  <fix>3d</fix>
</trkpt>
<trkpt lat="33.8103135" lon="-118.3938729">
  <ele>-4.933</ele>
  <time>2026-09-02T22:07:42Z</time>
  <course>186.92</course>
  <speed>0.0282842712474619</speed>
  <fix>3d</fix>
</trkpt>
<trkpt lat="33.8103134" lon="-118.3938728">
  <ele>-4.74</ele>
  <time>2026-09-02T22:07:42Z</time>
  <course>275.73</course>
  <speed>0.0</speed>
  <fix>3d</fix>
</trkpt>
<trkpt lat="33.8103135" lon="-118.3938729">
  <ele>-4.934</ele>
  <time>2026-09-02T22:07:42Z</time>
  <course>186.92</course>
  <speed>0.0282842712474619</speed>
  <fix>3d</fix>
</trkpt>
<trkpt lat="33.8103135" lon="-118.3938729">
  <ele>-4.991</ele>
  <time>2026-09-02T22:07:42Z</time>
  <course>186.92</course>
  <speed>0.0282842712474619</speed>
  <fix>3d</fix>
</trkpt>
<trkpt lat="33.8103134" lon="-118.3938728">
  <ele>-4.74</ele>
  <time>2026-09-02T22:07:42Z</time>
  <course>275.73</course>
  <speed>0.0</speed>
  <fix>3d</fix>
</trkpt>
<trkpt lat="33.8103135" lon="-118.3938729">
  <ele>-4.992</ele>
  <time>2026-09-02T22:07:42Z</time>
  <course>186.92</course>
  <speed>0.0282842712474619</speed>
  <fix>3d</fix>
</trkpt>
<trkpt lat="33.8103135" lon="-118.3938729">
  <ele>-5.052</ele>
  <time>2026-09-02T22:07:42Z</time>
  <course>186.92</course>
  <speed>0.0282842712474619</speed>
  <fix>3d</fix>
</trkpt>
<trkpt lat="33.8103134" lon="-118.3938728">
  <ele>-4.83</ele>
  <time>2026-09-02T22:07:42Z</time>
  <course>275.7</course>
  <speed>0.0</speed>
  <fix>3d</fix>
</trkpt>
<trkpt lat="33.8103135" lon="-118.3938729">
  <ele>-5.073</ele>
  <time>2026-09-02T22:07:42Z</time>
  <course>186.92</course>
  <speed>0.0282842712474619</speed>
  <fix>3d</fix>
</trkpt>
<trkpt lat="33.8103135" lon="-118.3938729">
  <ele>-5.116</ele>
  <time>2026-09-02T22:07:42Z</time>
  <course>186.92</course>
  <speed>0.0282842712474619</speed>
  <fix>3d</fix>
</trkpt>
<trkpt lat="33.8103134" lon="-118.3938728">
  <ele>-4.83</ele>
  <time>2026-09-02T22:07:42Z</time>
  <course>275.7</course>
  <speed>0.0</speed>
  <fix>3d</fix>
</trkpt>
<trkpt lat="33.8103135" lon="-118.3938729">
  <ele>-5.167</ele>
  <time>2026-09-02T22:07:42Z</time>
  <course>186.93</course>
  <speed>0.0282842712474619</speed>
  <fix>3d</fix>
</trkpt>
<trkpt lat="33.8103134" lon="-118.3938728">
  <ele>-4.93</ele>
  <time>2026-09-02T22:07:42Z</time>
  <course>275.68</course>
  <speed>0.0</speed>
  <fix>3d</fix>
</trkpt>
<trkpt lat="33.8103135" lon="-118.393873">
  <ele>-5.206</ele>
  <time>2026-09-02T22:07:42Z</time>
  <course>186.93</course>
  <speed>0.0282842712474619</speed>
  <fix>3d</fix>
</trkpt>
<trkpt lat="33.8103134" lon="-118.3938728">
  <ele>-4.93</ele>
  <time>2026-09-02T22:07:42Z</time>
  <course>275.68</course>
  <speed>0.0</speed>
  <fix>3d</fix>
</trkpt>
<trkpt lat="33.8103135" lon="-118.393873">
  <ele>-5.238</ele>
  <time>2026-09-02T22:07:42Z</time>
  <course>186.93</course>
  <speed>0.0282842712474619</speed>
  <fix>3d</fix>
</trkpt>
<trkpt lat="33.8103134" lon="-118.3938728">
  <ele>-5.02</ele>
  <time>2026-09-02T22:07:42Z</time>
  <course>275.65</course>
  <speed>0.0</speed>
  <fix>3d</fix>
</trkpt>
<trkpt lat="33.8103135" lon="-118.393873">
  <ele>-5.264</ele>
  <time>2026-09-02T22:07:42Z</time>
  <course>186.94</course>
  <speed>0.0282842712474619</speed>
  <fix>3d</fix>
</trkpt>
<trkpt lat="33.8103134" lon="-118.3938728">
  <ele>-5.02</ele>
  <time>2026-09-02T22:07:42Z</time>
  <course>275.65</course>
  <speed>0.0</speed>
  <fix>3d</fix>
</trkpt>
<trkpt lat="33.8103135" lon="-118.393873">
  <ele>-5.286</ele>
  <time>2026-09-02T22:07:42Z</time>
  <course>186.94</course>
  <speed>0.0282842712474619</speed>
  <fix>3d</fix>
</trkpt>
<trkpt lat="33.8103134" lon="-118.3938728">
  <ele>-5.09</ele>
  <time>2026-09-02T22:07:42Z</time>
  <course>275.63</course>
  <speed>0.0</speed>
  <fix>3d</fix>
</trkpt>
<trkpt lat="33.8103135" lon="-118.393873">
  <ele>-5.305</ele>
  <time>2026-09-02T22:07:42Z</time>
  <course>186.94</course>
  <speed>0.0282842712474619</speed>
  <fix>3d</fix>
</trkpt>
<trkpt lat="33.8103134" lon="-118.3938728">
  <ele>-5.09</ele>
  <time>2026-09-02T22:07:42Z</time>
  <course>275.63</course>
  <speed>0.0</speed>
  <fix>3d</fix>
</trkpt>
<trkpt lat="33.8103135" lon="-118.393873">
  <ele>-5.32</ele>
  <time>2026-09-02T22:07:42Z</time>
  <course>186.95</course>
  <speed>0.0282842712474619</speed>
  <fix>3d</fix>
</trkpt>
<trkpt lat="33.8103134" lon="-118.3938729">
  <ele>-5.13</ele>
  <time>2026-09-02T22:07:42Z</time>
  <course>275.61</course>
  <speed>0.0</speed>
  <fix>3d</fix>
</trkpt>
<trkpt lat="33.8103135" lon="-118.393873">
  <ele>-5.332</ele>
  <time>2026-09-02T22:07:42Z</time>
  <course>186.95</course>
  <speed>0.0282842712474619</speed>
  <fix>3d</fix>
</trkpt>
<trkpt lat="33.8103134" lon="-118.3938729">
  <ele>-5.13</ele>
  <time>2026-09-02T22:07:42Z</time>
  <course>275.61</course>
  <speed>0.0</speed>
  <fix>3d</fix>
</trkpt>
<trkpt lat="33.8103135" lon="-118.393873">
  <ele>-5.343</ele>
  <time>2026-09-02T22:07:42Z</time>
  <course>186.95</course>
  <speed>0.0282842712474619</speed>
  <fix>3d</fix>
</trkpt>
<trkpt lat="33.8103134" lon="-118.3938729">
  <ele>-5.16</ele>
  <time>2026-09-02T22:07:42Z</time>
  <course>275.61</course>
  <speed>0.0</speed>
  <fix>3d</fix>
</trkpt>
<trkpt lat="33.8103135" lon="-118.393873">
  <ele>-5.353</ele>
  <time>2026-09-02T22:07:42Z</time>
  <course>186.95</course>
  <speed>0.0282842712474619</speed>
  <fix>3d</fix>
</trkpt>
<trkpt lat="33.8103134" lon="-118.3938729">
  <ele>-5.16</ele>
  <time>2026-09-02T22:07:42Z</time>
  <course>275.61</course>
  <speed>0.0</speed>
  <fix>3d</fix>
</trkpt>
<trkpt lat="33.8103135" lon="-118.393873">
  <ele>-5.362</ele>
  <time>2026-09-02T22:07:42Z</time>
  <course>186.96</course>
  <speed>0.0282842712474619</speed>
  <fix>3d</fix>
</trkpt>
<trkpt lat="33.8103134" lon="-118.3938729">
  <ele>-5.18</ele>
  <time>2026-09-02T22:07:42Z</time>
  <course>275.59</course>
  <speed>0.0</speed>
  <fix>3d</fix>
</trkpt>
<trkpt lat="33.8103135" lon="-118.393873">
  <ele>-5.369</ele>
  <time>2026-09-02T22:07:42Z</time>
  <course>186.96</course>
  <speed>0.0282842712474619</speed>
  <fix>3d</fix>
</trkpt>
<trkpt lat="33.8103134" lon="-118.3938729">
  <ele>-5.18</ele>
  <time>2026-09-02T22:07:42Z</time>
  <course>275.59</course>
  <speed>0.0</speed>
  <fix>3d</fix>
</trkpt>
<trkpt lat="33.8103135" lon="-118.3938731">
  <ele>-5.376</ele>
  <time>2026-09-02T22:07:42Z</time>
  <course>186.96</course>
  <speed>0.0282842712474619</speed>
  <fix>3d</fix>
</trkpt>
<trkpt lat="33.8103134" lon="-118.3938729">
  <ele>-5.21</ele>
  <time>2026-09-02T22:07:42Z</time>
  <course>275.58</course>
  <speed>0.0</speed>
  <fix>3d</fix>
</trkpt>
<trkpt lat="33.8103135" lon="-118.3938731">
  <ele>-5.382</ele>
  <time>2026-09-02T22:07:42Z</time>
  <course>186.97</course>
  <speed>0.0282842712474619</speed>
  <fix>3d</fix>
</trkpt>
<trkpt lat="33.8103134" lon="-118.3938729">
  <ele>-5.21</ele>
  <time>2026-09-02T22:07:42Z</time>
  <course>275.58</course>
  <speed>0.0</speed>
  <fix>3d</fix>
</trkpt>
<trkpt lat="33.8103135" lon="-118.3938731">
  <ele>-5.386</ele>
  <time>2026-09-02T22:07:42Z</time>
  <course>186.97</course>
  <speed>0.0282842712474619</speed>
  <fix>3d</fix>
</trkpt>
<trkpt lat="33.8103134" lon="-118.3938729">
  <ele>-5.22</ele>
  <time>2026-09-02T22:07:42Z</time>
  <course>275.56</course>
  <speed>0.0</speed>
  <fix>3d</fix>
</trkpt>
<trkpt lat="33.8103135" lon="-118.3938731">
  <ele>-5.388</ele>
  <time>2026-09-02T22:07:42Z</time>
  <course>186.97</course>
  <speed>0.0282842712474619</speed>
  <fix>3d</fix>
</trkpt>
<trkpt lat="33.8103134" lon="-118.3938729">
  <ele>-5.22</ele>
  <time>2026-09-02T22:07:42Z</time>
  <course>275.56</course>
  <speed>0.0</speed>
  <fix>3d</fix>
</trkpt>
<trkpt lat="33.8103135" lon="-118.3938731">
  <ele>-5.389</ele>
  <time>2026-09-02T22:07:42Z</time>
  <course>186.98</course>
  <speed>0.0282842712474619</speed>
  <fix>3d</fix>
</trkpt>
<trkpt lat="33.8103134" lon="-118.3938729">
  <ele>-5.23</ele>
  <time>2026-09-02T22:07:42Z</time>
  <course>275.55</course>
  <speed>0.0</speed>
  <fix>3d</fix>
</trkpt>
<trkpt lat="33.8103135" lon="-118.3938731">
  <ele>-5.389</ele>
  <time>2026-09-02T22:07:42Z</time>
  <course>186.98</course>
  <speed>0.0282842712474619</speed>
  <fix>3d</fix>
</trkpt>
<trkpt lat="33.8103134" lon="-118.3938729">
  <ele>-5.23</ele>
  <time>2026-09-02T22:07:42Z</time>
  <course>275.55</course>
  <speed>0.0</speed>
  <fix>3d</fix>
</trkpt>
<trkpt lat="33.8103135" lon="-118.3938731">
  <ele>-5.388</ele>
  <time>2026-09-02T22:07:42Z</time>
  <course>186.98</course>
  <speed>0.0282842712474619</speed>
  <fix>3d</fix>
</trkpt>
<trkpt lat="33.8103134" lon="-118.393873">
  <ele>-5.24</ele>
  <time>2026-09-02T22:07:42Z</time>
  <course>275.53</course>
  <speed>0.0</speed>
  <fix>3d</fix>
</trkpt>
<trkpt lat="33.8103135" lon="-118.3938731">
  <ele>-5.386</ele>
  <time>2026-09-02T22:07:42Z</time>
  <course>186.99</course>
  <speed>0.0282842712474619</speed>
  <fix>3d</fix>
</trkpt>
<trkpt lat="33.8103134" lon="-118.393873">
  <ele>-5.24</ele>
  <time>2026-09-02T22:07:42Z</time>
  <course>275.53</course>
  <speed>0.0</speed>
  <fix>3d</fix>
</trkpt>
<trkpt lat="33.8103135" lon="-118.3938731">
  <ele>-5.383</ele>
  <time>2026-09-02T22:07:42Z</time>
  <course>186.99</course>
  <speed>0.0282842712474619</speed>
  <fix>3d</fix>
</trkpt>
<trkpt lat="33.8103134" lon="-118.393873">
  <ele>-5.24</ele>
  <time>2026-09-02T22:07:42Z</time>
  <course>275.52</course>
  <speed>0.0</speed>
  <fix>3d</fix>
</trkpt>
<trkpt lat="33.8103135" lon="-118.3938731">
  <ele>-5.381</ele>
  <time>2026-09-02T22:07:42Z</time>
  <course>186.99</course>
  <speed>0.0282842712474619</speed>
  <fix>3d</fix>
</trkpt>
<trkpt lat="33.8103134" lon="-118.393873">
  <ele>-5.24</ele>
  <time>2026-09-02T22:07:42Z</time>
  <course>275.52</course>
  <speed>0.0</speed>
  <fix>3d</fix>
</trkpt>
<trkpt lat="33.8103135" lon="-118.3938731">
  <ele>-5.38</ele>
  <time>2026-09-02T22:07:42Z</time>
  <course>187.0</course>
  <speed>0.0282842712474619</speed>
  <fix>3d</fix>
</trkpt>
<trkpt lat="33.8103134" lon="-118.393873">
  <ele>-5.24</ele>
  <time>2026-09-02T22:07:42Z</time>
  <course>275.51</course>
  <speed>0.0</speed>
  <fix>3d</fix>
</trkpt>
<trkpt lat="33.8103135" lon="-118.3938731">
  <ele>-5.38</ele>
  <time>2026-09-02T22:07:42Z</time>
  <course>187.0</course>
  <speed>0.0282842712474619</speed>
  <fix>3d</fix>
</trkpt>
<trkpt lat="33.8103134" lon="-118.393873">
  <ele>-5.24</ele>
  <time>2026-09-02T22:07:42Z</time>
  <course>275.51</course>
  <speed>0.0</speed>
  <fix>3d</fix>
</trkpt>
<trkpt lat="33.8103135" lon="-118.3938731">
  <ele>-5.382</ele>
  <time>2026-09-02T22:07:42Z</time>
  <course>187.0</course>
  <speed>0.0282842712474619</speed>
  <fix>3d</fix>
</trkpt>
<trkpt lat="33.8103134" lon="-118.393873">
  <ele>-5.24</ele>
  <time>2026-09-02T22:07:42Z</time>
  <course>275.5</course>
  <speed>0.0</speed>
  <fix>3d</fix>
</trkpt>
<trkpt lat="33.8103135" lon="-118.3938731">
  <ele>-5.385</ele>
  <time>2026-09-02T22:07:42Z</time>
  <course>187.01</course>
  <speed>0.0282842712474619</speed>
  <fix>3d</fix>
</trkpt>
<trkpt lat="33.8103134" lon="-118.393873">
  <ele>-5.24</ele>
  <time>2026-09-02T22:07:42Z</time>
  <course>275.5</course>
  <speed>0.0</speed>
  <fix>3d</fix>
</trkpt>
<trkpt lat="33.8103135" lon="-118.3938731">
  <ele>-5.388</ele>
  <time>2026-09-02T22:07:42Z</time>
  <course>187.01</course>
  <speed>0.0282842712474619</speed>
  <fix>3d</fix>
</trkpt>
<trkpt lat="33.8103134" lon="-118.393873">
  <ele>-5.25</ele>
  <time>2026-09-02T22:07:42Z</time>
  <course>275.5</course>
  <speed>0.0</speed>
  <fix>3d</fix>
</trkpt>
<trkpt lat="33.8103135" lon="-118.3938732">
  <ele>-5.39</ele>
  <time>2026-09-02T22:07:42Z</time>
  <course>187.01</course>
  <speed>0.0282842712474619</speed>
  <fix>3d</fix>
</trkpt>
<trkpt lat="33.8103134" lon="-118.393873">
  <ele>-5.25</ele>
  <time>2026-09-02T22:07:42Z</time>
  <course>275.5</course>
  <speed>0.0</speed>
  <fix>3d</fix>
</trkpt>
<trkpt lat="33.8103135" lon="-118.3938732">
  <ele>-5.392</ele>
  <time>2026-09-02T22:07:42Z</time>
  <course>187.02</course>
  <speed>0.0282842712474619</speed>
  <fix>3d</fix>
</trkpt>
<trkpt lat="33.8103134" lon="-118.393873">
  <ele>-5.25</ele>
  <time>2026-09-02T22:07:42Z</time>
  <course>275.49</course>
  <speed>0.0</speed>
  <fix>3d</fix>
</trkpt>
<trkpt lat="33.8103135" lon="-118.3938732">
  <ele>-5.393</ele>
  <time>2026-09-02T22:07:42Z</time>
  <course>187.02</course>
  <speed>0.0282842712474619</speed>
  <fix>3d</fix>
</trkpt>
<trkpt lat="33.8103134" lon="-118.393873">
  <ele>-5.25</ele>
  <time>2026-09-02T22:07:42Z</time>
  <course>275.49</course>
  <speed>0.0</speed>
  <fix>3d</fix>
</trkpt>
<trkpt lat="33.8103135" lon="-118.3938732">
  <ele>-5.395</ele>
  <time>2026-09-02T22:07:42Z</time>
  <course>187.02</course>
  <speed>0.0282842712474619</speed>
  <fix>3d</fix>
</trkpt>
<trkpt lat="33.8103134" lon="-118.3938731">
  <ele>-5.26</ele>
  <time>2026-09-02T22:07:42Z</time>
  <course>275.48</course>
  <speed>0.0</speed>
  <fix>3d</fix>
</trkpt>
<trkpt lat="33.8103135" lon="-118.3938732">
  <ele>-5.396</ele>
  <time>2026-09-02T22:07:42Z</time>
  <course>187.03</course>
  <speed>0.0282842712474619</speed>
  <fix>3d</fix>
</trkpt>
<trkpt lat="33.8103134" lon="-118.3938731">
  <ele>-5.26</ele>
  <time>2026-09-02T22:07:42Z</time>
  <course>275.48</course>
  <speed>0.0</speed>
  <fix>3d</fix>
</trkpt>
<trkpt lat="33.8103135" lon="-118.3938732">
  <ele>-5.397</ele>
  <time>2026-09-02T22:07:42Z</time>
  <course>187.03</course>
  <speed>0.0282842712474619</speed>
  <fix>3d</fix>
</trkpt>
<trkpt lat="33.8103134" lon="-118.3938731">
  <ele>-5.27</ele>
  <time>2026-09-02T22:07:42Z</time>
  <course>275.47</course>
  <speed>0.0</speed>
  <fix>3d</fix>
</trkpt>
<trkpt lat="33.8103135" lon="-118.3938732">
  <ele>-5.398</ele>
  <time>2026-09-02T22:07:42Z</time>
  <course>187.03</course>
  <speed>0.0282842712474619</speed>
  <fix>3d</fix>
</trkpt>
<trkpt lat="33.8103134" lon="-118.3938731">
  <ele>-5.27</ele>
  <time>2026-09-02T22:07:42Z</time>
  <course>275.47</course>
  <speed>0.0</speed>
  <fix>3d</fix>
</trkpt>
<trkpt lat="33.8103135" lon="-118.3938732">
  <ele>-5.398</ele>
  <time>2026-09-02T22:07:42Z</time>
  <course>187.03</course>
  <speed>0.0282842712474619</speed>
  <fix>3d</fix>
</trkpt>
<trkpt lat="33.8103134" lon="-118.3938731">
  <ele>-5.27</ele>
  <time>2026-09-02T22:07:42Z</time>
  <course>275.46</course>
  <speed>0.0</speed>
  <fix>3d</fix>
</trkpt>
<trkpt lat="33.8103135" lon="-118.3938732">
  <ele>-5.397</ele>
  <time>2026-09-02T22:07:42Z</time>
  <course>187.04</course>
  <speed>0.0282842712474619</speed>
  <fix>3d</fix>
</trkpt>
<trkpt lat="33.8103134" lon="-118.3938731">
  <ele>-5.27</ele>
  <time>2026-09-02T22:07:42Z</time>
  <course>275.46</course>
  <speed>0.0</speed>
  <fix>3d</fix>
</trkpt>
<trkpt lat="33.8103135" lon="-118.3938732">
  <ele>-5.397</ele>
  <time>2026-09-02T22:07:42Z</time>
  <course>187.04</course>
  <speed>0.0282842712474619</speed>
  <fix>3d</fix>
</trkpt>
<trkpt lat="33.8103134" lon="-118.3938731">
  <ele>-5.27</ele>
  <time>2026-09-02T22:07:42Z</time>
  <course>275.44</course>
  <speed>0.0</speed>
  <fix>3d</fix>
</trkpt>
<trkpt lat="33.8103135" lon="-118.3938732">
  <ele>-5.398</ele>
  <time>2026-09-02T22:07:42Z</time>
  <course>187.05</course>
  <speed>0.0282842712474619</speed>
  <fix>3d</fix>
</trkpt>
<trkpt lat="33.8103134" lon="-118.3938731">
  <ele>-5.27</ele>
  <time>2026-09-02T22:07:42Z</time>
  <course>275.44</course>
  <speed>0.0</speed>
  <fix>3d</fix>
</trkpt>
<trkpt lat="33.8103135" lon="-118.3938732">
  <ele>-5.398</ele>
  <time>2026-09-02T22:07:42Z</time>
  <course>187.05</course>
  <speed>0.0282842712474619</speed>
  <fix>3d</fix>
</trkpt>
<trkpt lat="33.8103134" lon="-118.3938731">
  <ele>-5.27</ele>
  <time>2026-09-02T22:07:42Z</time>
  <course>275.44</course>
  <speed>0.0</speed>
  <fix>3d</fix>
</trkpt>
<trkpt lat="33.8103135" lon="-118.3938733">
  <ele>-5.399</ele>
  <time>2026-09-02T22:07:42Z</time>
  <course>187.05</course>
  <speed>0.0282842712474619</speed>
  <fix>3d</fix>
</trkpt>
<trkpt lat="33.8103134" lon="-118.3938731">
  <ele>-5.27</ele>
  <time>2026-09-02T22:07:42Z</time>
  <course>275.44</course>
  <speed>0.0</speed>
  <fix>3d</fix>
</trkpt>
<trkpt lat="33.8103135" lon="-118.3938733">
  <ele>-5.4</ele>
  <time>2026-09-02T22:07:42Z</time>
  <course>187.06</course>
  <speed>0.0282842712474619</speed>
  <fix>3d</fix>
</trkpt>
<trkpt lat="33.8103134" lon="-118.3938731">
  <ele>-5.27</ele>
  <time>2026-09-02T22:07:42Z</time>
  <course>275.44</course>
  <speed>0.0</speed>
  <fix>3d</fix>
</trkpt>
<trkpt lat="33.8103135" lon="-118.3938733">
  <ele>-5.4</ele>
  <time>2026-09-02T22:07:42Z</time>
  <course>187.06</course>
  <speed>0.0282842712474619</speed>
  <fix>3d</fix>
</trkpt>
<trkpt lat="33.8103134" lon="-118.3938731">
  <ele>-5.27</ele>
  <time>2026-09-02T22:07:42Z</time>
  <course>275.44</course>
  <speed>0.0</speed>
  <fix>3d</fix>
</trkpt>
<trkpt lat="33.8103135" lon="-118.3938733">
  <ele>-5.4</ele>
  <time>2026-09-02T22:07:42Z</time>
  <course>187.06</course>
  <speed>0.0282842712474619</speed>
  <fix>3d</fix>
</trkpt>
<trkpt lat="33.8103134" lon="-118.3938732">
  <ele>-5.26</ele>
  <time>2026-09-02T22:07:42Z</time>
  <course>275.43</course>
  <speed>0.0</speed>
  <fix>3d</fix>
</trkpt>
<trkpt lat="33.8103135" lon="-118.3938733">
  <ele>-5.399</ele>
  <time>2026-09-02T22:07:42Z</time>
  <course>187.07</course>
  <speed>0.0282842712474619</speed>
  <fix>3d</fix>
</trkpt>
<trkpt lat="33.8103134" lon="-118.3938732">
  <ele>-5.26</ele>
  <time>2026-09-02T22:07:42Z</time>
  <course>275.43</course>
  <speed>0.0</speed>
  <fix>3d</fix>
</trkpt>
<trkpt lat="33.8103135" lon="-118.3938733">
  <ele>-5.397</ele>
  <time>2026-09-02T22:07:42Z</time>
  <course>187.07</course>
  <speed>0.0282842712474619</speed>
  <fix>3d</fix>
</trkpt>
<trkpt lat="33.8103134" lon="-118.3938732">
  <ele>-5.26</ele>
  <time>2026-09-02T22:07:42Z</time>
  <course>275.42</course>
  <speed>0.0</speed>
  <fix>3d</fix>
</trkpt>
<trkpt lat="33.8103135" lon="-118.3938733">
  <ele>-5.396</ele>
  <time>2026-09-02T22:07:42Z</time>
  <course>187.07</course>
  <speed>0.0282842712474619</speed>
  <fix>3d</fix>
</trkpt>
<trkpt lat="33.8103134" lon="-118.3938732">
  <ele>-5.26</ele>
  <time>2026-09-02T22:07:42Z</time>
  <course>275.42</course>
  <speed>0.0</speed>
  <fix>3d</fix>
</trkpt>
<trkpt lat="33.8103135" lon="-118.3938733">
  <ele>-5.394</ele>
  <time>2026-09-02T22:07:42Z</time>
  <course>187.08</course>
  <speed>0.0282842712474619</speed>
  <fix>3d</fix>
</trkpt>
<trkpt lat="33.8103134" lon="-118.3938732">
  <ele>-5.26</ele>
  <time>2026-09-02T22:07:42Z</time>
  <course>275.42</course>
  <speed>0.0</speed>
  <fix>3d</fix>
</trkpt>
<trkpt lat="33.8103135" lon="-118.3938733">
  <ele>-5.393</ele>
  <time>2026-09-02T22:07:42Z</time>
  <course>187.08</course>
  <speed>0.0282842712474619</speed>
  <fix>3d</fix>
</trkpt>
<trkpt lat="33.8103134" lon="-118.3938732">
  <ele>-5.26</ele>
  <time>2026-09-02T22:07:42Z</time>
  <course>275.42</course>
  <speed>0.0</speed>
  <fix>3d</fix>
</trkpt>
<trkpt lat="33.8103135" lon="-118.3938733">
  <ele>-5.392</ele>
  <time>2026-09-02T22:07:42Z</time>
  <course>187.08</course>
  <speed>0.0282842712474619</speed>
  <fix>3d</fix>
</trkpt>
<trkpt lat="33.8103134" lon="-118.3938732">
  <ele>-5.26</ele>
  <time>2026-09-02T22:07:42Z</time>
  <course>275.43</course>
  <speed>0.0</speed>
  <fix>3d</fix>
</trkpt>
<trkpt lat="33.8103135" lon="-118.3938733">
  <ele>-5.392</ele>
  <time>2026-09-02T22:07:42Z</time>
  <course>187.09</course>
  <speed>0.0282842712474619</speed>
  <fix>3d</fix>
</trkpt>
<trkpt lat="33.8103134" lon="-118.3938732">
  <ele>-5.26</ele>
  <time>2026-09-02T22:07:42Z</time>
  <course>275.43</course>
  <speed>0.0</speed>
  <fix>3d</fix>
</trkpt>
<trkpt lat="33.8103135" lon="-118.3938734">
  <ele>-5.393</ele>
  <time>2026-09-02T22:07:42Z</time>
  <course>187.09</course>
  <speed>0.0282842712474619</speed>
  <fix>3d</fix>
</trkpt>
<trkpt lat="33.8103134" lon="-118.3938732">
  <ele>-5.26</ele>
  <time>2026-09-02T22:07:42Z</time>
  <course>275.43</course>
  <speed>0.0</speed>
  <fix>3d</fix>
</trkpt>
<trkpt lat="33.8103135" lon="-118.3938734">
  <ele>-5.394</ele>
  <time>2026-09-02T22:07:42Z</time>
  <course>187.09</course>
  <speed>0.0282842712474619</speed>
  <fix>3d</fix>
</trkpt>
<trkpt lat="33.8103134" lon="-118.3938732">
  <ele>-5.26</ele>
  <time>2026-09-02T22:07:42Z</time>
  <course>275.43</course>
  <speed>0.0</speed>
  <fix>3d</fix>
</trkpt>
<trkpt lat="33.8103135" lon="-118.3938734">
  <ele>-5.394</ele>
  <time>2026-09-02T22:07:42Z</time>
  <course>187.1</course>
  <speed>0.0282842712474619</speed>
  <fix>3d</fix>
</trkpt>
<trkpt lat="33.8103135" lon="-118.3938732">
  <ele>-5.26</ele>
  <time>2026-09-02T22:07:42Z</time>
  <course>275.43</course>
  <speed>0.0</speed>
  <fix>3d</fix>
</trkpt>
<trkpt lat="33.8103136" lon="-118.3938734">
  <ele>-5.395</ele>
  <time>2026-09-02T22:07:43Z</time>
  <course>187.1</course>
  <speed>0.0282842712474619</speed>
  <fix>3d</fix>
</trkpt>
<trkpt lat="33.8103135" lon="-118.3938732">
  <ele>-5.26</ele>
  <time>2026-09-02T22:07:43Z</time>
  <course>275.43</course>
  <speed>0.0</speed>
  <fix>3d</fix>
</trkpt>
<trkpt lat="33.8103136" lon="-118.3938734">
  <ele>-5.395</ele>
  <time>2026-09-02T22:07:43Z</time>
  <course>187.1</course>
  <speed>0.0282842712474619</speed>
  <fix>3d</fix>
</trkpt>
<trkpt lat="33.8103135" lon="-118.3938732">
  <ele>-5.26</ele>
  <time>2026-09-02T22:07:43Z</time>
  <course>275.43</course>
  <speed>0.0</speed>
  <fix>3d</fix>
</trkpt>
<trkpt lat="33.8103136" lon="-118.3938734">
  <ele>-5.395</ele>
  <time>2026-09-02T22:07:43Z</time>
  <course>187.11</course>
  <speed>0.0282842712474619</speed>
  <fix>3d</fix>
</trkpt>
<trkpt lat="33.8103135" lon="-118.3938732">
  <ele>-5.26</ele>
  <time>2026-09-02T22:07:43Z</time>
  <course>275.43</course>
  <speed>0.0</speed>
  <fix>3d</fix>
</trkpt>
<trkpt lat="33.8103136" lon="-118.3938734">
  <ele>-5.395</ele>
  <time>2026-09-02T22:07:43Z</time>
  <course>187.11</course>
  <speed>0.0282842712474619</speed>
  <fix>3d</fix>
</trkpt>
<trkpt lat="33.8103135" lon="-118.3938733">
  <ele>-5.26</ele>
  <time>2026-09-02T22:07:43Z</time>
  <course>275.42</course>
  <speed>0.0</speed>
  <fix>3d</fix>
</trkpt>
<trkpt lat="33.8103136" lon="-118.3938734">
  <ele>-5.395</ele>
  <time>2026-09-02T22:07:43Z</time>
  <course>187.11</course>
  <speed>0.0282842712474619</speed>
  <fix>3d</fix>
</trkpt>
<trkpt lat="33.8103135" lon="-118.3938733">
  <ele>-5.26</ele>
  <time>2026-09-02T22:07:43Z</time>
  <course>275.42</course>
  <speed>0.0</speed>
  <fix>3d</fix>
</trkpt>
<trkpt lat="33.8103136" lon="-118.3938734">
  <ele>-5.395</ele>
  <time>2026-09-02T22:07:43Z</time>
  <course>187.12</course>
  <speed>0.0282842712474619</speed>
  <fix>3d</fix>
</trkpt>
<trkpt lat="33.8103135" lon="-118.3938733">
  <ele>-5.26</ele>
  <time>2026-09-02T22:07:43Z</time>
  <course>275.42</course>
  <speed>0.0</speed>
  <fix>3d</fix>
</trkpt>
<trkpt lat="33.8103136" lon="-118.3938734">
  <ele>-5.395</ele>
  <time>2026-09-02T22:07:43Z</time>
  <course>187.12</course>
  <speed>0.0282842712474619</speed>
  <fix>3d</fix>
</trkpt>
<trkpt lat="33.8103135" lon="-118.3938733">
  <ele>-5.26</ele>
  <time>2026-09-02T22:07:43Z</time>
  <course>275.42</course>
  <speed>0.0</speed>
  <fix>3d</fix>
</trkpt>
<trkpt lat="33.8103136" lon="-118.3938734">
  <ele>-5.396</ele>
  <time>2026-09-02T22:07:43Z</time>
  <course>187.12</course>
  <speed>0.0282842712474619</speed>
  <fix>3d</fix>
</trkpt>
<trkpt lat="33.8103135" lon="-118.3938733">
  <ele>-5.26</ele>
  <time>2026-09-02T22:07:43Z</time>
  <course>275.42</course>
  <speed>0.0</speed>
  <fix>3d</fix>
</trkpt>
<trkpt lat="33.8103136" lon="-118.3938735">
  <ele>-5.395</ele>
  <time>2026-09-02T22:07:43Z</time>
  <course>187.13</course>
  <speed>0.0282842712474619</speed>
  <fix>3d</fix>
</trkpt>
<trkpt lat="33.8103135" lon="-118.3938733">
  <ele>-5.26</ele>
  <time>2026-09-02T22:07:43Z</time>
  <course>275.42</course>
  <speed>0.0</speed>
  <fix>3d</fix>
</trkpt>
<trkpt lat="33.8103136" lon="-118.3938735">
  <ele>-5.395</ele>
  <time>2026-09-02T22:07:43Z</time>
  <course>187.13</course>
  <speed>0.0282842712474619</speed>
  <fix>3d</fix>
</trkpt>
<trkpt lat="33.8103135" lon="-118.3938733">
  <ele>-5.26</ele>
  <time>2026-09-02T22:07:43Z</time>
  <course>275.41</course>
  <speed>0.0</speed>
  <fix>3d</fix>
</trkpt>
<trkpt lat="33.8103136" lon="-118.3938735">
  <ele>-5.395</ele>
  <time>2026-09-02T22:07:43Z</time>
  <course>187.14</course>
  <speed>0.0282842712474619</speed>
  <fix>3d</fix>
</trkpt>
<trkpt lat="33.8103135" lon="-118.3938733">
  <ele>-5.26</ele>
  <time>2026-09-02T22:07:43Z</time>
  <course>275.41</course>
  <speed>0.0</speed>
  <fix>3d</fix>
</trkpt>
<trkpt lat="33.8103136" lon="-118.3938735">
  <ele>-5.394</ele>
  <time>2026-09-02T22:07:43Z</time>
  <course>187.14</course>
  <speed>0.03605551275463989</speed>
  <fix>3d</fix>
</trkpt>
<trkpt lat="33.8103135" lon="-118.3938733">
  <ele>-5.26</ele>
  <time>2026-09-02T22:07:43Z</time>
  <course>275.41</course>
  <speed>0.0</speed>
  <fix>3d</fix>
</trkpt>
<trkpt lat="33.8103136" lon="-118.3938735">
  <ele>-5.394</ele>
  <time>2026-09-02T22:07:43Z</time>
  <course>187.14</course>
  <speed>0.03605551275463989</speed>
  <fix>3d</fix>
</trkpt>
<trkpt lat="33.8103135" lon="-118.3938733">
  <ele>-5.26</ele>
  <time>2026-09-02T22:07:43Z</time>
  <course>275.41</course>
  <speed>0.0</speed>
  <fix>3d</fix>
</trkpt>
<trkpt lat="33.8103137" lon="-118.3938735">
  <ele>-5.395</ele>
  <time>2026-09-02T22:07:43Z</time>
  <course>187.15</course>
  <speed>0.03605551275463989</speed>
  <fix>3d</fix>
</trkpt>
<trkpt lat="33.8103135" lon="-118.3938733">
  <ele>-5.26</ele>
  <time>2026-09-02T22:07:43Z</time>
  <course>275.4</course>
  <speed>0.0</speed>
  <fix>3d</fix>
</trkpt>
<trkpt lat="33.8103137" lon="-118.3938735">
  <ele>-5.395</ele>
  <time>2026-09-02T22:07:43Z</time>
  <course>187.15</course>
  <speed>0.03605551275463989</speed>
  <fix>3d</fix>
</trkpt>
<trkpt lat="33.8103135" lon="-118.3938733">
  <ele>-5.26</ele>
  <time>2026-09-02T22:07:43Z</time>
  <course>275.4</course>
  <speed>0.0</speed>
  <fix>3d</fix>
</trkpt>
<trkpt lat="33.8103137" lon="-118.3938735">
  <ele>-5.395</ele>
  <time>2026-09-02T22:07:43Z</time>
  <course>187.15</course>
  <speed>0.03605551275463989</speed>
  <fix>3d</fix>
</trkpt>
<trkpt lat="33.8103135" lon="-118.3938734">
  <ele>-5.26</ele>
  <time>2026-09-02T22:07:43Z</time>
  <course>275.4</course>
  <speed>0.0</speed>
  <fix>3d</fix>
</trkpt>
<trkpt lat="33.8103137" lon="-118.3938735">
  <ele>-5.395</ele>
  <time>2026-09-02T22:07:43Z</time>
  <course>187.16</course>
  <speed>0.03605551275463989</speed>
  <fix>3d</fix>
</trkpt>
<trkpt lat="33.8103135" lon="-118.3938734">
  <ele>-5.26</ele>
  <time>2026-09-02T22:07:43Z</time>
  <course>275.4</course>
  <speed>0.0</speed>
  <fix>3d</fix>
</trkpt>
<trkpt lat="33.8103137" lon="-118.3938735">
  <ele>-5.394</ele>
  <time>2026-09-02T22:07:43Z</time>
  <course>187.16</course>
  <speed>0.03605551275463989</speed>
  <fix>3d</fix>
</trkpt>
<trkpt lat="33.8103135" lon="-118.3938734">
  <ele>-5.26</ele>
  <time>2026-09-02T22:07:43Z</time>
  <course>275.4</course>
  <speed>0.0</speed>
  <fix>3d</fix>
</trkpt>
<trkpt lat="33.8103137" lon="-118.3938735">
  <ele>-5.394</ele>
  <time>2026-09-02T22:07:43Z</time>
  <course>187.16</course>
  <speed>0.03605551275463989</speed>
  <fix>3d</fix>
</trkpt>
<trkpt lat="33.8103135" lon="-118.3938734">
  <ele>-5.26</ele>
  <time>2026-09-02T22:07:43Z</time>
  <course>275.4</course>
  <speed>0.0</speed>
  <fix>3d</fix>
</trkpt>
<trkpt lat="33.8103137" lon="-118.3938736">
  <ele>-5.394</ele>
  <time>2026-09-02T22:07:43Z</time>
  <course>187.17</course>
  <speed>0.03605551275463989</speed>
  <fix>3d</fix>
</trkpt>
<trkpt lat="33.8103135" lon="-118.3938734">
  <ele>-5.26</ele>
  <time>2026-09-02T22:07:43Z</time>
  <course>275.4</course>
  <speed>0.0</speed>
  <fix>3d</fix>
</trkpt>
<trkpt lat="33.8103137" lon="-118.3938736">
  <ele>-5.4</ele>
  <time>2026-09-02T22:07:43Z</time>
  <course>187.17</course>
  <speed>0.03605551275463989</speed>
  <fix>3d</fix>
</trkpt>
<trkpt lat="33.8103135" lon="-118.3938734">
  <ele>-5.26</ele>
  <time>2026-09-02T22:07:43Z</time>
  <course>275.4</course>
  <speed>0.0</speed>
  <fix>3d</fix>
</trkpt>
<trkpt lat="33.8103137" lon="-118.3938736">
  <ele>-5.422</ele>
  <time>2026-09-02T22:07:43Z</time>
  <course>187.18</course>
  <speed>0.03605551275463989</speed>
  <fix>3d</fix>
</trkpt>
<trkpt lat="33.8103135" lon="-118.3938734">
  <ele>-5.27</ele>
  <time>2026-09-02T22:07:43Z</time>
  <course>275.48</course>
  <speed>0.0</speed>
  <fix>3d</fix>
</trkpt>
<trkpt lat="33.8103137" lon="-118.3938736">
  <ele>-5.465</ele>
  <time>2026-09-02T22:07:43Z</time>
  <course>187.18</course>
  <speed>0.03605551275463989</speed>
  <fix>3d</fix>
</trkpt>
<trkpt lat="33.8103135" lon="-118.3938734">
  <ele>-5.27</ele>
  <time>2026-09-02T22:07:43Z</time>
  <course>275.48</course>
  <speed>0.0</speed>
  <fix>3d</fix>
</trkpt>
<trkpt lat="33.8103137" lon="-118.3938736">
  <ele>-5.466</ele>
  <time>2026-09-02T22:07:43Z</time>
  <course>187.18</course>
  <speed>0.03605551275463989</speed>
  <fix>3d</fix>
</trkpt>
<trkpt lat="33.8103137" lon="-118.3938736">
  <ele>-5.524</ele>
  <time>2026-09-02T22:07:43Z</time>
  <course>186.71</course>
  <speed>0.03605551275463989</speed>
  <fix>3d</fix>
</trkpt>
<trkpt lat="33.8103135" lon="-118.3938734">
  <ele>-5.3</ele>
  <time>2026-09-02T22:07:43Z</time>
  <course>275.81</course>
  <speed>0.0</speed>
  <fix>3d</fix>
</trkpt>
<trkpt lat="33.8103137" lon="-118.3938736">
  <ele>-5.525</ele>
  <time>2026-09-02T22:07:43Z</time>
  <course>186.71</course>
  <speed>0.03605551275463989</speed>
  <fix>3d</fix>
</trkpt>
<trkpt lat="33.8103137" lon="-118.3938736">
  <ele>-5.595</ele>
  <time>2026-09-02T22:07:43Z</time>
  <course>186.76</course>
  <speed>0.03605551275463989</speed>
  <fix>3d</fix>
</trkpt>
<trkpt lat="33.8103135" lon="-118.3938734">
  <ele>-5.3</ele>
  <time>2026-09-02T22:07:43Z</time>
  <course>275.81</course>
  <speed>0.0</speed>
  <fix>3d</fix>
</trkpt>
<trkpt lat="33.8103137" lon="-118.3938736">
  <ele>-5.619</ele>
  <time>2026-09-02T22:07:43Z</time>
  <course>186.79</course>
  <speed>0.03605551275463989</speed>
  <fix>3d</fix>
</trkpt>
<trkpt lat="33.8103137" lon="-118.3938736">
  <ele>-5.674</ele>
  <time>2026-09-02T22:07:43Z</time>
  <course>186.86</course>
  <speed>0.03605551275463989</speed>
  <fix>3d</fix>
</trkpt>
<trkpt lat="33.8103135" lon="-118.3938734">
  <ele>-5.4</ele>
  <time>2026-09-02T22:07:43Z</time>
  <course>276.08</course>
  <speed>0.01</speed>
  <fix>3d</fix>
</trkpt>
<trkpt lat="33.8103137" lon="-118.3938736">
  <ele>-5.7</ele>
  <time>2026-09-02T22:07:43Z</time>
  <course>186.88</course>
  <speed>0.03605551275463989</speed>
  <fix>3d</fix>
</trkpt>
<trkpt lat="33.8103137" lon="-118.3938736">
  <ele>-5.759</ele>
  <time>2026-09-02T22:07:43Z</time>
  <course>186.93</course>
  <speed>0.03605551275463989</speed>
  <fix>3d</fix>
</trkpt>
<trkpt lat="33.8103135" lon="-118.3938734">
  <ele>-5.4</ele>
  <time>2026-09-02T22:07:43Z</time>
  <course>276.08</course>
  <speed>0.01</speed>
  <fix>3d</fix>
</trkpt>
<trkpt lat="33.8103137" lon="-118.3938736">
  <ele>-5.787</ele>
  <time>2026-09-02T22:07:43Z</time>
  <course>186.94</course>
  <speed>0.03605551275463989</speed>
  <fix>3d</fix>
</trkpt>
<trkpt lat="33.8103137" lon="-118.3938736">
  <ele>-5.849</ele>
  <time>2026-09-02T22:07:43Z</time>
  <course>186.97</course>
  <speed>0.03605551275463989</speed>
  <fix>3d</fix>
</trkpt>
<trkpt lat="33.8103135" lon="-118.3938735">
  <ele>-5.55</ele>
  <time>2026-09-02T22:07:43Z</time>
  <course>276.2</course>
  <speed>0.01</speed>
  <fix>3d</fix>
</trkpt>
<trkpt lat="33.8103137" lon="-118.3938737">
  <ele>-5.879</ele>
  <time>2026-09-02T22:07:43Z</time>
  <course>186.97</course>
  <speed>0.03605551275463989</speed>
  <fix>3d</fix>
</trkpt>
<trkpt lat="33.8103137" lon="-118.3938737">
  <ele>-5.942</ele>
  <time>2026-09-02T22:07:43Z</time>
  <course>186.98</course>
  <speed>0.03605551275463989</speed>
  <fix>3d</fix>
</trkpt>
<trkpt lat="33.8103135" lon="-118.3938735">
  <ele>-5.55</ele>
  <time>2026-09-02T22:07:43Z</time>
  <course>276.2</course>
  <speed>0.01</speed>
  <fix>3d</fix>
</trkpt>
<trkpt lat="33.8103137" lon="-118.3938737">
  <ele>-5.945</ele>
  <time>2026-09-02T22:07:43Z</time>
  <course>186.98</course>
  <speed>0.03605551275463989</speed>
  <fix>3d</fix>
</trkpt>
<trkpt lat="33.8103137" lon="-118.3938737">
  <ele>-6.038</ele>
  <time>2026-09-02T22:07:43Z</time>
  <course>186.98</course>
  <speed>0.04242640687119285</speed>
  <fix>3d</fix>
</trkpt>
<trkpt lat="33.8103135" lon="-118.3938735">
  <ele>-5.72</ele>
  <time>2026-09-02T22:07:43Z</time>
  <course>276.25</course>
  <speed>0.01</speed>
  <fix>3d</fix>
</trkpt>
<trkpt lat="33.8103137" lon="-118.3938737">
  <ele>-6.067</ele>
  <time>2026-09-02T22:07:43Z</time>
  <course>186.98</course>
  <speed>0.04242640687119285</speed>
  <fix>3d</fix>
</trkpt>
<trkpt lat="33.8103137" lon="-118.3938737">
  <ele>-6.134</ele>
  <time>2026-09-02T22:07:43Z</time>
  <course>186.98</course>
  <speed>0.04242640687119285</speed>
  <fix>3d</fix>
</trkpt>
<trkpt lat="33.8103135" lon="-118.3938735">
  <ele>-5.72</ele>
  <time>2026-09-02T22:07:43Z</time>
  <course>276.25</course>
  <speed>0.01</speed>
  <fix>3d</fix>
</trkpt>
<trkpt lat="33.8103137" lon="-118.3938737">
  <ele>-6.165</ele>
  <time>2026-09-02T22:07:43Z</time>
  <course>186.99</course>
  <speed>0.04242640687119285</speed>
  <fix>3d</fix>
</trkpt>
<trkpt lat="33.8103137" lon="-118.3938737">
  <ele>-6.231</ele>
  <time>2026-09-02T22:07:43Z</time>
  <course>186.99</course>
  <speed>0.04242640687119285</speed>
  <fix>3d</fix>
</trkpt>
<trkpt lat="33.8103135" lon="-118.3938735">
  <ele>-5.89</ele>
  <time>2026-09-02T22:07:43Z</time>
  <course>276.27</course>
  <speed>0.01</speed>
  <fix>3d</fix>
</trkpt>
<trkpt lat="33.8103137" lon="-118.3938737">
  <ele>-6.262</ele>
  <time>2026-09-02T22:07:43Z</time>
  <course>186.99</course>
  <speed>0.04242640687119285</speed>
  <fix>3d</fix>
</trkpt>
<trkpt lat="33.8103137" lon="-118.3938737">
  <ele>-6.328</ele>
  <time>2026-09-02T22:07:43Z</time>
  <course>186.99</course>
  <speed>0.04242640687119285</speed>
  <fix>3d</fix>
</trkpt>
<trkpt lat="33.8103135" lon="-118.3938735">
  <ele>-5.89</ele>
  <time>2026-09-02T22:07:43Z</time>
  <course>276.27</course>
  <speed>0.01</speed>
  <fix>3d</fix>
</trkpt>
<trkpt lat="33.8103137" lon="-118.3938737">
  <ele>-6.36</ele>
  <time>2026-09-02T22:07:43Z</time>
  <course>186.99</course>
  <speed>0.04242640687119285</speed>
  <fix>3d</fix>
</trkpt>
<trkpt lat="33.8103137" lon="-118.3938737">
  <ele>-6.426</ele>
  <time>2026-09-02T22:07:43Z</time>
  <course>186.99</course>
  <speed>0.04242640687119285</speed>
  <fix>3d</fix>
</trkpt>
<trkpt lat="33.8103135" lon="-118.3938735">
  <ele>-6.07</ele>
  <time>2026-09-02T22:07:43Z</time>
  <course>276.28</course>
  <speed>0.01</speed>
  <fix>3d</fix>
</trkpt>
<trkpt lat="33.8103137" lon="-118.3938737">
  <ele>-6.456</ele>
  <time>2026-09-02T22:07:43Z</time>
  <course>186.99</course>
  <speed>0.04242640687119285</speed>
  <fix>3d</fix>
</trkpt>
<trkpt lat="33.8103137" lon="-118.3938738">
  <ele>-6.525</ele>
  <time>2026-09-02T22:07:43Z</time>
  <course>186.99</course>
  <speed>0.04242640687119285</speed>
  <fix>3d</fix>
</trkpt>
<trkpt lat="33.8103135" lon="-118.3938735">
  <ele>-6.07</ele>
  <time>2026-09-02T22:07:43Z</time>
  <course>276.28</course>
  <speed>0.01</speed>
  <fix>3d</fix>
</trkpt>
<trkpt lat="33.8103137" lon="-118.3938738">
  <ele>-6.527</ele>
  <time>2026-09-02T22:07:43Z</time>
  <course>186.99</course>
  <speed>0.04242640687119285</speed>
  <fix>3d</fix>
</trkpt>
<trkpt lat="33.8103137" lon="-118.3938738">
  <ele>-6.622</ele>
  <time>2026-09-02T22:07:43Z</time>
  <course>186.99</course>
  <speed>0.04242640687119285</speed>
  <fix>3d</fix>
</trkpt>
<trkpt lat="33.8103135" lon="-118.3938736">
  <ele>-6.26</ele>
  <time>2026-09-02T22:07:43Z</time>
  <course>276.29</course>
  <speed>0.01</speed>
  <fix>3d</fix>
</trkpt>
<trkpt lat="33.8103137" lon="-118.3938738">
  <ele>-6.655</ele>
  <time>2026-09-02T22:07:43Z</time>
  <course>186.99</course>
  <speed>0.04242640687119285</speed>
  <fix>3d</fix>
</trkpt>
<trkpt lat="33.8103137" lon="-118.3938738">
  <ele>-6.72</ele>
  <time>2026-09-02T22:07:43Z</time>
  <course>186.98</course>
  <speed>0.04242640687119285</speed>
  <fix>3d</fix>
</trkpt>
<trkpt lat="33.8103135" lon="-118.3938736">
  <ele>-6.26</ele>
  <time>2026-09-02T22:07:43Z</time>
  <course>276.29</course>
  <speed>0.01</speed>
  <fix>3d</fix>
</trkpt>
<trkpt lat="33.8103137" lon="-118.3938738">
  <ele>-6.752</ele>
  <time>2026-09-02T22:07:43Z</time>
  <course>186.98</course>
  <speed>0.04242640687119285</speed>
  <fix>3d</fix>
</trkpt>
<trkpt lat="33.8103137" lon="-118.3938738">
  <ele>-6.817</ele>
  <time>2026-09-02T22:07:43Z</time>
  <course>186.98</course>
  <speed>0.04242640687119285</speed>
  <fix>3d</fix>
</trkpt>
<trkpt lat="33.8103135" lon="-118.3938736">
  <ele>-6.44</ele>
  <time>2026-09-02T22:07:43Z</time>
  <course>276.29</course>
  <speed>0.01</speed>
  <fix>3d</fix>
</trkpt>
<trkpt lat="33.8103137" lon="-118.3938738">
  <ele>-6.846</ele>
  <time>2026-09-02T22:07:43Z</time>
  <course>186.98</course>
  <speed>0.04242640687119285</speed>
  <fix>3d</fix>
</trkpt>
<trkpt lat="33.8103137" lon="-118.3938738">
  <ele>-6.914</ele>
  <time>2026-09-02T22:07:43Z</time>
  <course>186.97</course>
  <speed>0.04242640687119285</speed>
  <fix>3d</fix>
</trkpt>
<trkpt lat="33.8103135" lon="-118.3938736">
  <ele>-6.44</ele>
  <time>2026-09-02T22:07:43Z</time>
  <course>276.29</course>
  <speed>0.01</speed>
  <fix>3d</fix>
</trkpt>
<trkpt lat="33.8103137" lon="-118.3938738">
  <ele>-6.946</ele>
  <time>2026-09-02T22:07:43Z</time>
  <course>186.97</course>
  <speed>0.04242640687119285</speed>
  <fix>3d</fix>
</trkpt>
<trkpt lat="33.8103137" lon="-118.3938738">
  <ele>-7.011</ele>
  <time>2026-09-02T22:07:43Z</time>
  <course>186.97</course>
  <speed>0.04242640687119285</speed>
  <fix>3d</fix>
</trkpt>
<trkpt lat="33.8103135" lon="-118.3938736">
  <ele>-6.63</ele>
  <time>2026-09-02T22:07:43Z</time>
  <course>276.3</course>
  <speed>0.01</speed>
  <fix>3d</fix>
</trkpt>
<trkpt lat="33.8103137" lon="-118.3938738">
  <ele>-7.043</ele>
  <time>2026-09-02T22:07:43Z</time>
  <course>186.97</course>
  <speed>0.04242640687119285</speed>
  <fix>3d</fix>
</trkpt>
<trkpt lat="33.8103137" lon="-118.3938739">
  <ele>-7.108</ele>
  <time>2026-09-02T22:07:43Z</time>
  <course>186.96</course>
  <speed>0.04242640687119285</speed>
  <fix>3d</fix>
</trkpt>
<trkpt lat="33.8103135" lon="-118.3938736">
  <ele>-6.63</ele>
  <time>2026-09-02T22:07:43Z</time>
  <course>276.3</course>
  <speed>0.01</speed>
  <fix>3d</fix>
</trkpt>
<trkpt lat="33.8103137" lon="-118.3938739">
  <ele>-7.111</ele>
  <time>2026-09-02T22:07:43Z</time>
  <course>186.96</course>
  <speed>0.04242640687119285</speed>
  <fix>3d</fix>
</trkpt>
<trkpt lat="33.8103137" lon="-118.3938739">
  <ele>-7.206</ele>
  <time>2026-09-02T22:07:43Z</time>
  <course>186.96</course>
  <speed>0.04242640687119285</speed>
  <fix>3d</fix>
</trkpt>
<trkpt lat="33.8103135" lon="-118.3938737">
  <ele>-6.81</ele>
  <time>2026-09-02T22:07:43Z</time>
  <course>276.3</course>
  <speed>0.01</speed>
  <fix>3d</fix>
</trkpt>
<trkpt lat="33.8103138" lon="-118.3938739">
  <ele>-7.235</ele>
  <time>2026-09-02T22:07:43Z</time>
  <course>186.96</course>
  <speed>0.04242640687119285</speed>
  <fix>3d</fix>
</trkpt>
<trkpt lat="33.8103138" lon="-118.3938739">
  <ele>-7.303</ele>
  <time>2026-09-02T22:07:43Z</time>
  <course>186.95</course>
  <speed>0.04242640687119285</speed>
  <fix>3d</fix>
</trkpt>
<trkpt lat="33.8103135" lon="-118.3938737">
  <ele>-6.81</ele>
  <time>2026-09-02T22:07:43Z</time>
  <course>276.3</course>
  <speed>0.01</speed>
  <fix>3d</fix>
</trkpt>
<trkpt lat="33.8103138" lon="-118.3938739">
  <ele>-7.32</ele>
  <time>2026-09-02T22:07:43Z</time>
  <course>186.95</course>
  <speed>0.04242640687119285</speed>
  <fix>3d</fix>
</trkpt>
<trkpt lat="33.8103138" lon="-118.3938739">
  <ele>-7.4</ele>
  <time>2026-09-02T22:07:43Z</time>
  <course>186.94</course>
  <speed>0.04242640687119285</speed>
  <fix>3d</fix>
</trkpt>
<trkpt lat="33.8103135" lon="-118.3938737">
  <ele>-7.0</ele>
  <time>2026-09-02T22:07:43Z</time>
  <course>276.3</course>
  <speed>0.01</speed>
  <fix>3d</fix>
</trkpt>
<trkpt lat="33.8103138" lon="-118.3938739">
  <ele>-7.429</ele>
  <time>2026-09-02T22:07:43Z</time>
  <course>186.94</course>
  <speed>0.04242640687119285</speed>
  <fix>3d</fix>
</trkpt>
<trkpt lat="33.8103138" lon="-118.3938739">
  <ele>-7.497</ele>
  <time>2026-09-02T22:07:43Z</time>
  <course>186.94</course>
  <speed>0.04242640687119285</speed>
  <fix>3d</fix>
</trkpt>
<trkpt lat="33.8103135" lon="-118.3938737">
  <ele>-7.0</ele>
  <time>2026-09-02T22:07:43Z</time>
  <course>276.3</course>
  <speed>0.01</speed>
  <fix>3d</fix>
</trkpt>
<trkpt lat="33.8103138" lon="-118.3938739">
  <ele>-7.526</ele>
  <time>2026-09-02T22:07:43Z</time>
  <course>186.93</course>
  <speed>0.04242640687119285</speed>
  <fix>3d</fix>
</trkpt>
<trkpt lat="33.8103138" lon="-118.3938739">
  <ele>-7.594</ele>
  <time>2026-09-02T22:07:43Z</time>
  <course>186.93</course>
  <speed>0.04242640687119285</speed>
  <fix>3d</fix>
</trkpt>
<trkpt lat="33.8103135" lon="-118.3938737">
  <ele>-7.19</ele>
  <time>2026-09-02T22:07:43Z</time>
  <course>276.31</course>
  <speed>0.01</speed>
  <fix>3d</fix>
</trkpt>
<trkpt lat="33.8103138" lon="-118.3938739">
  <ele>-7.596</ele>
  <time>2026-09-02T22:07:43Z</time>
  <course>186.93</course>
  <speed>0.04242640687119285</speed>
  <fix>3d</fix>
</trkpt>
<trkpt lat="33.8103138" lon="-118.393874">
  <ele>-7.691</ele>
  <time>2026-09-02T22:07:43Z</time>
  <course>186.92</course>
  <speed>0.04242640687119285</speed>
  <fix>3d</fix>
</trkpt>
<trkpt lat="33.8103135" lon="-118.3938737">
  <ele>-7.19</ele>
  <time>2026-09-02T22:07:43Z</time>
  <course>276.31</course>
  <speed>0.01</speed>
  <fix>3d</fix>
</trkpt>
<trkpt lat="33.8103138" lon="-118.393874">
  <ele>-7.721</ele>
  <time>2026-09-02T22:07:43Z</time>
  <course>186.92</course>
  <speed>0.04242640687119285</speed>
  <fix>3d</fix>
</trkpt>
<trkpt lat="33.8103138" lon="-118.393874">
  <ele>-7.789</ele>
  <time>2026-09-02T22:07:43Z</time>
  <course>186.91</course>
  <speed>0.04242640687119285</speed>
  <fix>3d</fix>
</trkpt>
<trkpt lat="33.8103135" lon="-118.3938738">
  <ele>-7.38</ele>
  <time>2026-09-02T22:07:43Z</time>
  <course>276.31</course>
  <speed>0.01</speed>
  <fix>3d</fix>
</trkpt>
<trkpt lat="33.8103138" lon="-118.393874">
  <ele>-7.819</ele>
  <time>2026-09-02T22:07:43Z</time>
  <course>186.91</course>
  <speed>0.04242640687119285</speed>
  <fix>3d</fix>
</trkpt>
<trkpt lat="33.8103138" lon="-118.393874">
  <ele>-7.887</ele>
  <time>2026-09-02T22:07:43Z</time>
  <course>186.9</course>
  <speed>0.04242640687119285</speed>
  <fix>3d</fix>
</trkpt>
<trkpt lat="33.8103135" lon="-118.3938738">
  <ele>-7.38</ele>
  <time>2026-09-02T22:07:43Z</time>
  <course>276.31</course>
  <speed>0.01</speed>
  <fix>3d</fix>
</trkpt>
<trkpt lat="33.8103138" lon="-118.393874">
  <ele>-7.919</ele>
  <time>2026-09-02T22:07:43Z</time>
  <course>186.9</course>
  <speed>0.04242640687119285</speed>
  <fix>3d</fix>
</trkpt>
<trkpt lat="33.8103138" lon="-118.393874">
  <ele>-7.986</ele>
  <time>2026-09-02T22:07:43Z</time>
  <course>186.9</course>
  <speed>0.04242640687119285</speed>
  <fix>3d</fix>
</trkpt>
<trkpt lat="33.8103135" lon="-118.3938738">
  <ele>-7.57</ele>
  <time>2026-09-02T22:07:43Z</time>
  <course>276.32</course>
  <speed>0.01</speed>
  <fix>3d</fix>
</trkpt>
<trkpt lat="33.8103138" lon="-118.393874">
  <ele>-8.015</ele>
  <time>2026-09-02T22:07:43Z</time>
  <course>186.9</course>
  <speed>0.04242640687119285</speed>
  <fix>3d</fix>
</trkpt>
<trkpt lat="33.8103137" lon="-118.393874">
  <ele>-8.085</ele>
  <time>2026-09-02T22:07:43Z</time>
  <course>186.89</course>
  <speed>0.04242640687119285</speed>
  <fix>3d</fix>
</trkpt>
<trkpt lat="33.8103135" lon="-118.3938738">
  <ele>-7.57</ele>
  <time>2026-09-02T22:07:43Z</time>
  <course>276.32</course>
  <speed>0.01</speed>
  <fix>3d</fix>
</trkpt>
<trkpt lat="33.8103138" lon="-118.393874">
  <ele>-8.114</ele>
  <time>2026-09-02T22:07:43Z</time>
  <course>186.89</course>
  <speed>0.04242640687119285</speed>
  <fix>3d</fix>
</trkpt>
<trkpt lat="33.8103137" lon="-118.393874">
  <ele>-8.183</ele>
  <time>2026-09-02T22:07:43Z</time>
  <course>186.88</course>
  <speed>0.04242640687119285</speed>
  <fix>3d</fix>
</trkpt>
<trkpt lat="33.8103135" lon="-118.3938738">
  <ele>-7.76</ele>
  <time>2026-09-02T22:07:43Z</time>
  <course>276.32</course>
  <speed>0.01</speed>
  <fix>3d</fix>
</trkpt>
<trkpt lat="33.8103137" lon="-118.393874">
  <ele>-8.213</ele>
  <time>2026-09-02T22:07:43Z</time>
  <course>186.88</course>
  <speed>0.04242640687119285</speed>
  <fix>3d</fix>
</trkpt>
<trkpt lat="33.8103137" lon="-118.393874">
  <ele>-8.281</ele>
  <time>2026-09-02T22:07:43Z</time>
  <course>186.88</course>
  <speed>0.04242640687119285</speed>
  <fix>3d</fix>
</trkpt>
<trkpt lat="33.8103135" lon="-118.3938738">
  <ele>-7.76</ele>
  <time>2026-09-02T22:07:43Z</time>
  <course>276.32</course>
  <speed>0.01</speed>
  <fix>3d</fix>
</trkpt>
<trkpt lat="33.8103137" lon="-118.3938741">
  <ele>-8.313</ele>
  <time>2026-09-02T22:07:43Z</time>
  <course>186.87</course>
  <speed>0.04242640687119285</speed>
  <fix>3d</fix>
</trkpt>
<trkpt lat="33.8103137" lon="-118.3938741">
  <ele>-8.379</ele>
  <time>2026-09-02T22:07:43Z</time>
  <course>186.87</course>
  <speed>0.03605551275463989</speed>
  <fix>3d</fix>
</trkpt>
<trkpt lat="33.8103135" lon="-118.3938738">
  <ele>-7.95</ele>
  <time>2026-09-02T22:07:43Z</time>
  <course>276.31</course>
  <speed>0.01</speed>
  <fix>3d</fix>
</trkpt>
<trkpt lat="33.8103137" lon="-118.3938741">
  <ele>-8.408</ele>
  <time>2026-09-02T22:07:43Z</time>
  <course>186.87</course>
  <speed>0.03605551275463989</speed>
  <fix>3d</fix>
</trkpt>
<trkpt lat="33.8103137" lon="-118.3938741">
  <ele>-8.477</ele>
  <time>2026-09-02T22:07:43Z</time>
  <course>186.86</course>
  <speed>0.03605551275463989</speed>
  <fix>3d</fix>
</trkpt>
<trkpt lat="33.8103135" lon="-118.3938738">
  <ele>-7.95</ele>
  <time>2026-09-02T22:07:43Z</time>
  <course>276.31</course>
  <speed>0.01</speed>
  <fix>3d</fix>
</trkpt>
<trkpt lat="33.8103137" lon="-118.3938741">
  <ele>-8.506</ele>
  <time>2026-09-02T22:07:43Z</time>
  <course>186.86</course>
  <speed>0.03605551275463989</speed>
  <fix>3d</fix>
</trkpt>
<trkpt lat="33.8103137" lon="-118.3938741">
  <ele>-8.574</ele>
  <time>2026-09-02T22:07:43Z</time>
  <course>186.86</course>
  <speed>0.03605551275463989</speed>
  <fix>3d</fix>
</trkpt>
<trkpt lat="33.8103135" lon="-118.3938739">
  <ele>-8.14</ele>
  <time>2026-09-02T22:07:43Z</time>
  <course>276.31</course>
  <speed>0.01</speed>
  <fix>3d</fix>
</trkpt>
<trkpt lat="33.8103137" lon="-118.3938741">
  <ele>-8.604</ele>
  <time>2026-09-02T22:07:43Z</time>
  <course>186.85</course>
  <speed>0.03605551275463989</speed>
  <fix>3d</fix>
</trkpt>
<trkpt lat="33.8103137" lon="-118.3938741">
  <ele>-8.672</ele>
  <time>2026-09-02T22:07:43Z</time>
  <course>186.85</course>
  <speed>0.03605551275463989</speed>
  <fix>3d</fix>
</trkpt>
<trkpt lat="33.8103135" lon="-118.3938739">
  <ele>-8.14</ele>
  <time>2026-09-02T22:07:43Z</time>
  <course>276.31</course>
  <speed>0.01</speed>
  <fix>3d</fix>
</trkpt>
<trkpt lat="33.8103137" lon="-118.3938741">
  <ele>-8.674</ele>
  <time>2026-09-02T22:07:43Z</time>
  <course>186.85</course>
  <speed>0.03605551275463989</speed>
  <fix>3d</fix>
</trkpt>
<trkpt lat="33.8103137" lon="-118.3938741">
  <ele>-8.769</ele>
  <time>2026-09-02T22:07:43Z</time>
  <course>186.85</course>
  <speed>0.03605551275463989</speed>
  <fix>3d</fix>
</trkpt>
<trkpt lat="33.8103135" lon="-118.3938739">
  <ele>-8.33</ele>
  <time>2026-09-02T22:07:43Z</time>
  <course>276.31</course>
  <speed>0.01</speed>
  <fix>3d</fix>
</trkpt>
<trkpt lat="33.8103137" lon="-118.3938741">
  <ele>-8.799</ele>
  <time>2026-09-02T22:07:43Z</time>
  <course>186.84</course>
  <speed>0.03605551275463989</speed>
  <fix>3d</fix>
</trkpt>
<trkpt lat="33.8103137" lon="-118.3938741">
  <ele>-8.867</ele>
  <time>2026-09-02T22:07:43Z</time>
  <course>186.84</course>
  <speed>0.03605551275463989</speed>
  <fix>3d</fix>
</trkpt>
<trkpt lat="33.8103135" lon="-118.3938739">
  <ele>-8.33</ele>
  <time>2026-09-02T22:07:43Z</time>
  <course>276.31</course>
  <speed>0.01</speed>
  <fix>3d</fix>
</trkpt>
<trkpt lat="33.8103137" lon="-118.3938741">
  <ele>-8.9</ele>
  <time>2026-09-02T22:07:43Z</time>
  <course>186.84</course>
  <speed>0.03605551275463989</speed>
  <fix>3d</fix>
</trkpt>
<trkpt lat="33.8103137" lon="-118.3938741">
  <ele>-8.963</ele>
  <time>2026-09-02T22:07:43Z</time>
  <course>186.84</course>
  <speed>0.03605551275463989</speed>
  <fix>3d</fix>
</trkpt>
<trkpt lat="33.8103135" lon="-118.3938739">
  <ele>-8.52</ele>
  <time>2026-09-02T22:07:43Z</time>
  <course>276.31</course>
  <speed>0.01</speed>
  <fix>3d</fix>
</trkpt>
<trkpt lat="33.8103137" lon="-118.3938741">
  <ele>-8.995</ele>
  <time>2026-09-02T22:07:43Z</time>
  <course>186.83</course>
  <speed>0.03605551275463989</speed>
  <fix>3d</fix>
</trkpt>
<trkpt lat="33.8103137" lon="-118.3938741">
  <ele>-9.061</ele>
  <time>2026-09-02T22:07:43Z</time>
  <course>186.83</course>
  <speed>0.03605551275463989</speed>
  <fix>3d</fix>
</trkpt>
<trkpt lat="33.8103135" lon="-118.3938739">
  <ele>-8.52</ele>
  <time>2026-09-02T22:07:43Z</time>
  <course>276.31</course>
  <speed>0.01</speed>
  <fix>3d</fix>
</trkpt>
<trkpt lat="33.8103137" lon="-118.3938741">
  <ele>-9.09</ele>
  <time>2026-09-02T22:07:43Z</time>
  <course>186.83</course>
  <speed>0.03605551275463989</speed>
  <fix>3d</fix>
</trkpt>
<trkpt lat="33.8103137" lon="-118.3938741">
  <ele>-9.159</ele>
  <time>2026-09-02T22:07:43Z</time>
  <course>186.83</course>
  <speed>0.03605551275463989</speed>
  <fix>3d</fix>
</trkpt>
<trkpt lat="33.8103135" lon="-118.393874">
  <ele>-8.71</ele>
  <time>2026-09-02T22:07:43Z</time>
  <course>276.31</course>
  <speed>0.01</speed>
  <fix>3d</fix>
</trkpt>
<trkpt lat="33.8103137" lon="-118.3938741">
  <ele>-9.191</ele>
  <time>2026-09-02T22:07:43Z</time>
  <course>186.83</course>
  <speed>0.03605551275463989</speed>
  <fix>3d</fix>
</trkpt>
<trkpt lat="33.8103137" lon="-118.3938741">
  <ele>-9.257</ele>
  <time>2026-09-02T22:07:43Z</time>
  <course>186.82</course>
  <speed>0.03605551275463989</speed>
  <fix>3d</fix>
</trkpt>
<trkpt lat="33.8103135" lon="-118.393874">
  <ele>-8.71</ele>
  <time>2026-09-02T22:07:43Z</time>
  <course>276.31</course>
  <speed>0.01</speed>
  <fix>3d</fix>
</trkpt>
<trkpt lat="33.8103137" lon="-118.3938741">
  <ele>-9.289</ele>
  <time>2026-09-02T22:07:43Z</time>
  <course>186.82</course>
  <speed>0.03605551275463989</speed>
  <fix>3d</fix>
</trkpt>
<trkpt lat="33.8103137" lon="-118.3938742">
  <ele>-9.355</ele>
  <time>2026-09-02T22:07:43Z</time>
  <course>186.82</course>
  <speed>0.03605551275463989</speed>
  <fix>3d</fix>
</trkpt>
<trkpt lat="33.8103135" lon="-118.393874">
  <ele>-8.91</ele>
  <time>2026-09-02T22:07:43Z</time>
  <course>276.31</course>
  <speed>0.01</speed>
  <fix>3d</fix>
</trkpt>
<trkpt lat="33.8103137" lon="-118.3938742">
  <ele>-9.387</ele>
  <time>2026-09-02T22:07:43Z</time>
  <course>186.82</course>
  <speed>0.03605551275463989</speed>
  <fix>3d</fix>
</trkpt>
<trkpt lat="33.8103137" lon="-118.3938742">
  <ele>-9.453</ele>
  <time>2026-09-02T22:07:43Z</time>
  <course>186.82</course>
  <speed>0.03605551275463989</speed>
  <fix>3d</fix>
</trkpt>
<trkpt lat="33.8103135" lon="-118.393874">
  <ele>-8.91</ele>
  <time>2026-09-02T22:07:43Z</time>
  <course>276.31</course>
  <speed>0.01</speed>
  <fix>3d</fix>
</trkpt>
<trkpt lat="33.8103137" lon="-118.3938742">
  <ele>-9.482</ele>
  <time>2026-09-02T22:07:43Z</time>
  <course>186.82</course>
  <speed>0.03605551275463989</speed>
  <fix>3d</fix>
</trkpt>
<trkpt lat="33.8103137" lon="-118.3938742">
  <ele>-9.55</ele>
  <time>2026-09-02T22:07:43Z</time>
  <course>186.82</course>
  <speed>0.03605551275463989</speed>
  <fix>3d</fix>
</trkpt>
<trkpt lat="33.8103135" lon="-118.393874">
  <ele>-9.1</ele>
  <time>2026-09-02T22:07:43Z</time>
  <course>276.31</course>
  <speed>0.01</speed>
  <fix>3d</fix>
</trkpt>
<trkpt lat="33.8103137" lon="-118.3938742">
  <ele>-9.581</ele>
  <time>2026-09-02T22:07:43Z</time>
  <course>186.82</course>
  <speed>0.03605551275463989</speed>
  <fix>3d</fix>
</trkpt>
<trkpt lat="33.8103137" lon="-118.3938742">
  <ele>-9.648</ele>
  <time>2026-09-02T22:07:43Z</time>
  <course>186.81</course>
  <speed>0.03605551275463989</speed>
  <fix>3d</fix>
</trkpt>
<trkpt lat="33.8103135" lon="-118.393874">
  <ele>-9.1</ele>
  <time>2026-09-02T22:07:43Z</time>
  <course>276.31</course>
  <speed>0.01</speed>
  <fix>3d</fix>
</trkpt>
<trkpt lat="33.8103137" lon="-118.3938742">
  <ele>-9.677</ele>
  <time>2026-09-02T22:07:43Z</time>
  <course>186.81</course>
  <speed>0.03605551275463989</speed>
  <fix>3d</fix>
</trkpt>
<trkpt lat="33.8103137" lon="-118.3938742">
  <ele>-9.746</ele>
  <time>2026-09-02T22:07:43Z</time>
  <course>186.81</course>
  <speed>0.03605551275463989</speed>
  <fix>3d</fix>
</trkpt>
<trkpt lat="33.8103135" lon="-118.3938741">
  <ele>-9.29</ele>
  <time>2026-09-02T22:07:43Z</time>
  <course>276.31</course>
  <speed>0.01</speed>
  <fix>3d</fix>
</trkpt>
<trkpt lat="33.8103137" lon="-118.3938742">
  <ele>-9.748</ele>
  <time>2026-09-02T22:07:43Z</time>
  <course>186.81</course>
  <speed>0.03605551275463989</speed>
  <fix>3d</fix>
</trkpt>
<trkpt lat="33.8103137" lon="-118.3938742">
  <ele>-9.845</ele>
  <time>2026-09-02T22:07:43Z</time>
  <course>186.81</course>
  <speed>0.03605551275463989</speed>
  <fix>3d</fix>
</trkpt>
<trkpt lat="33.8103135" lon="-118.3938741">
  <ele>-9.29</ele>
  <time>2026-09-02T22:07:43Z</time>
  <course>276.31</course>
  <speed>0.01</speed>
  <fix>3d</fix>
</trkpt>
<trkpt lat="33.8103137" lon="-118.3938742">
  <ele>-9.88</ele>
  <time>2026-09-02T22:07:43Z</time>
  <course>186.81</course>
  <speed>0.03605551275463989</speed>
  <fix>3d</fix>
</trkpt>
<trkpt lat="33.8103137" lon="-118.3938742">
  <ele>-9.944</ele>
  <time>2026-09-02T22:07:43Z</time>
  <course>186.81</course>
  <speed>0.03605551275463989</speed>
  <fix>3d</fix>
</trkpt>
<trkpt lat="33.8103135" lon="-118.3938741">
  <ele>-9.48</ele>
  <time>2026-09-02T22:07:43Z</time>
  <course>276.31</course>
  <speed>0.01</speed>
  <fix>3d</fix>
</trkpt>
<trkpt lat="33.8103137" lon="-118.3938742">
  <ele>-9.973</ele>
  <time>2026-09-02T22:07:43Z</time>
  <course>186.81</course>
  <speed>0.03605551275463989</speed>
  <fix>3d</fix>
</trkpt>
<trkpt lat="33.8103137" lon="-118.3938742">
  <ele>-10.042</ele>
  <time>2026-09-02T22:07:43Z</time>
  <course>186.81</course>
  <speed>0.03605551275463989</speed>
  <fix>3d</fix>
</trkpt>
<trkpt lat="33.8103135" lon="-118.3938741">
  <ele>-9.48</ele>
  <time>2026-09-02T22:07:43Z</time>
  <course>276.31</course>
  <speed>0.01</speed>
  <fix>3d</fix>
</trkpt>
<trkpt lat="33.8103137" lon="-118.3938742">
  <ele>-10.071</ele>
  <time>2026-09-02T22:07:43Z</time>
  <course>186.81</course>
  <speed>0.03605551275463989</speed>
  <fix>3d</fix>
</trkpt>
<trkpt lat="33.8103137" lon="-118.3938743">
  <ele>-10.14</ele>
  <time>2026-09-02T22:07:43Z</time>
  <course>186.81</course>
  <speed>0.03605551275463989</speed>
  <fix>3d</fix>
</trkpt>
<trkpt lat="33.8103135" lon="-118.3938741">
  <ele>-9.68</ele>
  <time>2026-09-02T22:07:43Z</time>
  <course>276.31</course>
  <speed>0.01</speed>
  <fix>3d</fix>
</trkpt>
<trkpt lat="33.8103137" lon="-118.3938743">
  <ele>-10.172</ele>
  <time>2026-09-02T22:07:43Z</time>
  <course>186.81</course>
  <speed>0.03605551275463989</speed>
  <fix>3d</fix>
</trkpt>
<trkpt lat="33.8103137" lon="-118.3938743">
  <ele>-10.238</ele>
  <time>2026-09-02T22:07:43Z</time>
  <course>186.81</course>
  <speed>0.03605551275463989</speed>
  <fix>3d</fix>
</trkpt>
<trkpt lat="33.8103135" lon="-118.3938741">
  <ele>-9.68</ele>
  <time>2026-09-02T22:07:43Z</time>
  <course>276.31</course>
  <speed>0.01</speed>
  <fix>3d</fix>
</trkpt>
<trkpt lat="33.8103137" lon="-118.3938743">
  <ele>-10.267</ele>
  <time>2026-09-02T22:07:43Z</time>
  <course>186.81</course>
  <speed>0.03605551275463989</speed>
  <fix>3d</fix>
</trkpt>
<trkpt lat="33.8103137" lon="-118.3938743">
  <ele>-10.336</ele>
  <time>2026-09-02T22:07:43Z</time>
  <course>186.81</course>
  <speed>0.03605551275463989</speed>
  <fix>3d</fix>
</trkpt>
<trkpt lat="33.8103135" lon="-118.3938742">
  <ele>-9.87</ele>
  <time>2026-09-02T22:07:43Z</time>
  <course>276.3</course>
  <speed>0.01</speed>
  <fix>3d</fix>
</trkpt>
<trkpt lat="33.8103137" lon="-118.3938743">
  <ele>-10.365</ele>
  <time>2026-09-02T22:07:43Z</time>
  <course>186.81</course>
  <speed>0.03605551275463989</speed>
  <fix>3d</fix>
</trkpt>
<trkpt lat="33.8103137" lon="-118.3938743">
  <ele>-10.434</ele>
  <time>2026-09-02T22:07:43Z</time>
  <course>186.81</course>
  <speed>0.03605551275463989</speed>
  <fix>3d</fix>
</trkpt>
<trkpt lat="33.8103135" lon="-118.3938742">
  <ele>-9.87</ele>
  <time>2026-09-02T22:07:43Z</time>
  <course>276.3</course>
  <speed>0.01</speed>
  <fix>3d</fix>
</trkpt>
<trkpt lat="33.8103137" lon="-118.3938743">
  <ele>-10.466</ele>
  <time>2026-09-02T22:07:43Z</time>
  <course>186.81</course>
  <speed>0.03605551275463989</speed>
  <fix>3d</fix>
</trkpt>
<trkpt lat="33.8103137" lon="-118.3938743">
  <ele>-10.533</ele>
  <time>2026-09-02T22:07:43Z</time>
  <course>186.81</course>
  <speed>0.03605551275463989</speed>
  <fix>3d</fix>
</trkpt>
<trkpt lat="33.8103135" lon="-118.3938742">
  <ele>-10.06</ele>
  <time>2026-09-02T22:07:43Z</time>
  <course>276.3</course>
  <speed>0.01</speed>
  <fix>3d</fix>
</trkpt>
<trkpt lat="33.8103137" lon="-118.3938743">
  <ele>-10.562</ele>
  <time>2026-09-02T22:07:43Z</time>
  <course>186.81</course>
  <speed>0.03605551275463989</speed>
  <fix>3d</fix>
</trkpt>
<trkpt lat="33.8103137" lon="-118.3938743">
  <ele>-10.631</ele>
  <time>2026-09-02T22:07:43Z</time>
  <course>186.81</course>
  <speed>0.03605551275463989</speed>
  <fix>3d</fix>
</trkpt>
<trkpt lat="33.8103135" lon="-118.3938742">
  <ele>-10.06</ele>
  <time>2026-09-02T22:07:43Z</time>
  <course>276.3</course>
  <speed>0.01</speed>
  <fix>3d</fix>
</trkpt>
<trkpt lat="33.8103137" lon="-118.3938743">
  <ele>-10.66</ele>
  <time>2026-09-02T22:07:43Z</time>
  <course>186.81</course>
  <speed>0.03605551275463989</speed>
  <fix>3d</fix>
</trkpt>
<trkpt lat="33.8103137" lon="-118.3938743">
  <ele>-10.73</ele>
  <time>2026-09-02T22:07:43Z</time>
  <course>186.81</course>
  <speed>0.03605551275463989</speed>
  <fix>3d</fix>
</trkpt>
<trkpt lat="33.8103135" lon="-118.3938742">
  <ele>-10.25</ele>
  <time>2026-09-02T22:07:43Z</time>
  <course>276.3</course>
  <speed>0.01</speed>
  <fix>3d</fix>
</trkpt>
<trkpt lat="33.8103137" lon="-118.3938743">
  <ele>-10.761</ele>
  <time>2026-09-02T22:07:43Z</time>
  <course>186.81</course>
  <speed>0.03605551275463989</speed>
  <fix>3d</fix>
</trkpt>
<trkpt lat="33.8103137" lon="-118.3938744">
  <ele>-10.828</ele>
  <time>2026-09-02T22:07:43Z</time>
  <course>186.81</course>
  <speed>0.03605551275463989</speed>
  <fix>3d</fix>
</trkpt>
<trkpt lat="33.8103135" lon="-118.3938742">
  <ele>-10.25</ele>
  <time>2026-09-02T22:07:43Z</time>
  <course>276.3</course>
  <speed>0.01</speed>
  <fix>3d</fix>
</trkpt>
<trkpt lat="33.8103137" lon="-118.3938744">
  <ele>-10.83</ele>
  <time>2026-09-02T22:07:43Z</time>
  <course>186.81</course>
  <speed>0.03605551275463989</speed>
  <fix>3d</fix>
</trkpt>
<trkpt lat="33.8103137" lon="-118.3938744">
  <ele>-10.926</ele>
  <time>2026-09-02T22:07:43Z</time>
  <course>186.81</course>
  <speed>0.03605551275463989</speed>
  <fix>3d</fix>
</trkpt>
<trkpt lat="33.8103135" lon="-118.3938742">
  <ele>-10.44</ele>
  <time>2026-09-02T22:07:43Z</time>
  <course>276.3</course>
  <speed>0.01</speed>
  <fix>3d</fix>
</trkpt>
<trkpt lat="33.8103137" lon="-118.3938744">
  <ele>-10.956</ele>
  <time>2026-09-02T22:07:43Z</time>
  <course>186.81</course>
  <speed>0.03605551275463989</speed>
  <fix>3d</fix>
</trkpt>
<trkpt lat="33.8103137" lon="-118.3938744">
  <ele>-11.025</ele>
  <time>2026-09-02T22:07:43Z</time>
  <course>186.82</course>
  <speed>0.03605551275463989</speed>
  <fix>3d</fix>
</trkpt>
<trkpt lat="33.8103135" lon="-118.3938742">
  <ele>-10.44</ele>
  <time>2026-09-02T22:07:43Z</time>
  <course>276.3</course>
  <speed>0.01</speed>
  <fix>3d</fix>
</trkpt>
<trkpt lat="33.8103137" lon="-118.3938744">
  <ele>-11.057</ele>
  <time>2026-09-02T22:07:43Z</time>
  <course>186.82</course>
  <speed>0.03605551275463989</speed>
  <fix>3d</fix>
</trkpt>
<trkpt lat="33.8103137" lon="-118.3938744">
  <ele>-11.123</ele>
  <time>2026-09-02T22:07:43Z</time>
  <course>186.82</course>
  <speed>0.03605551275463989</speed>
  <fix>3d</fix>
</trkpt>
<trkpt lat="33.8103135" lon="-118.3938743">
  <ele>-10.63</ele>
  <time>2026-09-02T22:07:43Z</time>
  <course>276.29</course>
  <speed>0.01</speed>
  <fix>3d</fix>
</trkpt>
<trkpt lat="33.8103137" lon="-118.3938744">
  <ele>-11.152</ele>
  <time>2026-09-02T22:07:43Z</time>
  <course>186.82</course>
  <speed>0.03605551275463989</speed>
  <fix>3d</fix>
</trkpt>
<trkpt lat="33.8103137" lon="-118.3938744">
  <ele>-11.221</ele>
  <time>2026-09-02T22:07:43Z</time>
  <course>186.82</course>
  <speed>0.03605551275463989</speed>
  <fix>3d</fix>
</trkpt>
<trkpt lat="33.8103135" lon="-118.3938743">
  <ele>-10.63</ele>
  <time>2026-09-02T22:07:43Z</time>
  <course>276.29</course>
  <speed>0.01</speed>
  <fix>3d</fix>
</trkpt>
<trkpt lat="33.8103137" lon="-118.3938744">
  <ele>-11.252</ele>
  <time>2026-09-02T22:07:43Z</time>
  <course>186.82</course>
  <speed>0.03605551275463989</speed>
  <fix>3d</fix>
</trkpt>
<trkpt lat="33.8103137" lon="-118.3938744">
  <ele>-11.318</ele>
  <time>2026-09-02T22:07:43Z</time>
  <course>186.82</course>
  <speed>0.03605551275463989</speed>
  <fix>3d</fix>
</trkpt>
<trkpt lat="33.8103135" lon="-118.3938743">
  <ele>-10.82</ele>
  <time>2026-09-02T22:07:43Z</time>
  <course>276.29</course>
  <speed>0.01</speed>
  <fix>3d</fix>
</trkpt>
<trkpt lat="33.8103137" lon="-118.3938744">
  <ele>-11.349</ele>
  <time>2026-09-02T22:07:43Z</time>
  <course>186.82</course>
  <speed>0.03605551275463989</speed>
  <fix>3d</fix>
</trkpt>
<trkpt lat="33.8103137" lon="-118.3938744">
  <ele>-11.414</ele>
  <time>2026-09-02T22:07:43Z</time>
  <course>186.82</course>
  <speed>0.03605551275463989</speed>
  <fix>3d</fix>
</trkpt>
<trkpt lat="33.8103135" lon="-118.3938743">
  <ele>-10.82</ele>
  <time>2026-09-02T22:07:43Z</time>
  <course>276.29</course>
  <speed>0.01</speed>
  <fix>3d</fix>
</trkpt>
<trkpt lat="33.8103137" lon="-118.3938744">
  <ele>-11.446</ele>
  <time>2026-09-02T22:07:43Z</time>
  <course>186.82</course>
  <speed>0.03605551275463989</speed>
  <fix>3d</fix>
</trkpt>
<trkpt lat="33.8103137" lon="-118.3938745">
  <ele>-11.511</ele>
  <time>2026-09-02T22:07:43Z</time>
  <course>186.82</course>
  <speed>0.03605551275463989</speed>
  <fix>3d</fix>
</trkpt>
<trkpt lat="33.8103135" lon="-118.3938743">
  <ele>-11.0</ele>
  <time>2026-09-02T22:07:43Z</time>
  <course>276.29</course>
  <speed>0.01</speed>
  <fix>3d</fix>
</trkpt>
<trkpt lat="33.8103137" lon="-118.3938745">
  <ele>-11.54</ele>
  <time>2026-09-02T22:07:43Z</time>
  <course>186.82</course>
  <speed>0.03605551275463989</speed>
  <fix>3d</fix>
</trkpt>
<trkpt lat="33.8103137" lon="-118.3938745">
  <ele>-11.608</ele>
  <time>2026-09-02T22:07:43Z</time>
  <course>186.83</course>
  <speed>0.03605551275463989</speed>
  <fix>3d</fix>
</trkpt>
<trkpt lat="33.8103135" lon="-118.3938743">
  <ele>-11.0</ele>
  <time>2026-09-02T22:07:43Z</time>
  <course>276.29</course>
  <speed>0.01</speed>
  <fix>3d</fix>
</trkpt>
<trkpt lat="33.8103137" lon="-118.3938745">
  <ele>-11.638</ele>
  <time>2026-09-02T22:07:43Z</time>
  <course>186.83</course>
  <speed>0.03605551275463989</speed>
  <fix>3d</fix>
</trkpt>
<trkpt lat="33.8103137" lon="-118.3938745">
  <ele>-11.704</ele>
  <time>2026-09-02T22:07:43Z</time>
  <course>186.83</course>
  <speed>0.03605551275463989</speed>
  <fix>3d</fix>
</trkpt>
<trkpt lat="33.8103136" lon="-118.3938744">
  <ele>-11.19</ele>
  <time>2026-09-02T22:07:43Z</time>
  <course>276.29</course>
  <speed>0.01</speed>
  <fix>3d</fix>
</trkpt>
<trkpt lat="33.8103137" lon="-118.3938745">
  <ele>-11.733</ele>
  <time>2026-09-02T22:07:43Z</time>
  <course>186.83</course>
  <speed>0.03605551275463989</speed>
  <fix>3d</fix>
</trkpt>
<trkpt lat="33.8103137" lon="-118.3938745">
  <ele>-11.802</ele>
  <time>2026-09-02T22:07:43Z</time>
  <course>186.83</course>
  <speed>0.03605551275463989</speed>
  <fix>3d</fix>
</trkpt>
<trkpt lat="33.8103136" lon="-118.3938744">
  <ele>-11.19</ele>
  <time>2026-09-02T22:07:43Z</time>
  <course>276.29</course>
  <speed>0.01</speed>
  <fix>3d</fix>
</trkpt>
<trkpt lat="33.8103137" lon="-118.3938745">
  <ele>-11.833</ele>
  <time>2026-09-02T22:07:43Z</time>
  <course>186.83</course>
  <speed>0.03605551275463989</speed>
  <fix>3d</fix>
</trkpt>
<trkpt lat="33.8103137" lon="-118.3938745">
  <ele>-11.899</ele>
  <time>2026-09-02T22:07:43Z</time>
  <course>186.83</course>
  <speed>0.03605551275463989</speed>
  <fix>3d</fix>
</trkpt>
<trkpt lat="33.8103136" lon="-118.3938744">
  <ele>-11.38</ele>
  <time>2026-09-02T22:07:43Z</time>
  <course>276.29</course>
  <speed>0.01</speed>
  <fix>3d</fix>
</trkpt>
<trkpt lat="33.8103137" lon="-118.3938745">
  <ele>-11.901</ele>
  <time>2026-09-02T22:07:43Z</time>
  <course>186.83</course>
  <speed>0.03605551275463989</speed>
  <fix>3d</fix>
</trkpt>
<trkpt lat="33.8103137" lon="-118.3938745">
  <ele>-11.996</ele>
  <time>2026-09-02T22:07:43Z</time>
  <course>186.84</course>
  <speed>0.03605551275463989</speed>
  <fix>3d</fix>
</trkpt>
<trkpt lat="33.8103136" lon="-118.3938744">
  <ele>-11.38</ele>
  <time>2026-09-02T22:07:43Z</time>
  <course>276.29</course>
  <speed>0.01</speed>
  <fix>3d</fix>
</trkpt>
<trkpt lat="33.8103137" lon="-118.3938745">
  <ele>-12.001</ele>
  <time>2026-09-02T22:07:43Z</time>
  <course>186.84</course>
  <speed>0.03605551275463989</speed>
  <fix>3d</fix>
</trkpt>
<trkpt lat="33.8103137" lon="-118.3938746">
  <ele>-12.094</ele>
  <time>2026-09-02T22:07:43Z</time>
  <course>186.84</course>
  <speed>0.03605551275463989</speed>
  <fix>3d</fix>
</trkpt>
<trkpt lat="33.8103136" lon="-118.3938744">
  <ele>-11.57</ele>
  <time>2026-09-02T22:07:43Z</time>
  <course>276.29</course>
  <speed>0.01</speed>
  <fix>3d</fix>
</trkpt>
<trkpt lat="33.8103137" lon="-118.3938746">
  <ele>-12.125</ele>
  <time>2026-09-02T22:07:43Z</time>
  <course>186.84</course>
  <speed>0.03605551275463989</speed>
  <fix>3d</fix>
</trkpt>
<trkpt lat="33.8103137" lon="-118.3938746">
  <ele>-12.191</ele>
  <time>2026-09-02T22:07:43Z</time>
  <course>186.85</course>
  <speed>0.03605551275463989</speed>
  <fix>3d</fix>
</trkpt>
<trkpt lat="33.8103136" lon="-118.3938744">
  <ele>-11.57</ele>
  <time>2026-09-02T22:07:43Z</time>
  <course>276.29</course>
  <speed>0.01</speed>
  <fix>3d</fix>
</trkpt>
<trkpt lat="33.8103137" lon="-118.3938746">
  <ele>-12.223</ele>
  <time>2026-09-02T22:07:43Z</time>
  <course>186.85</course>
  <speed>0.03605551275463989</speed>
  <fix>3d</fix>
</trkpt>
<trkpt lat="33.8103137" lon="-118.3938746">
  <ele>-12.288</ele>
  <time>2026-09-02T22:07:43Z</time>
  <course>186.85</course>
  <speed>0.03605551275463989</speed>
  <fix>3d</fix>
</trkpt>
<trkpt lat="33.8103136" lon="-118.3938745">
  <ele>-11.75</ele>
  <time>2026-09-02T22:07:43Z</time>
  <course>276.29</course>
  <speed>0.01</speed>
  <fix>3d</fix>
</trkpt>
<trkpt lat="33.8103137" lon="-118.3938746">
  <ele>-12.32</ele>
  <time>2026-09-02T22:07:43Z</time>
  <course>186.85</course>
  <speed>0.03605551275463989</speed>
  <fix>3d</fix>
</trkpt>
<trkpt lat="33.8103137" lon="-118.3938746">
  <ele>-12.386</ele>
  <time>2026-09-02T22:07:43Z</time>
  <course>186.85</course>
  <speed>0.03605551275463989</speed>
  <fix>3d</fix>
</trkpt>
<trkpt lat="33.8103136" lon="-118.3938745">
  <ele>-11.75</ele>
  <time>2026-09-02T22:07:43Z</time>
  <course>276.29</course>
  <speed>0.01</speed>
  <fix>3d</fix>
</trkpt>
<trkpt lat="33.8103137" lon="-118.3938746">
  <ele>-12.417</ele>
  <time>2026-09-02T22:07:43Z</time>
  <course>186.85</course>
  <speed>0.03605551275463989</speed>
  <fix>3d</fix>
</trkpt>
<trkpt lat="33.8103137" lon="-118.3938746">
  <ele>-12.483</ele>
  <time>2026-09-02T22:07:43Z</time>
  <course>186.86</course>
  <speed>0.03605551275463989</speed>
  <fix>3d</fix>
</trkpt>
<trkpt lat="33.8103136" lon="-118.3938745">
  <ele>-11.94</ele>
  <time>2026-09-02T22:07:43Z</time>
  <course>276.29</course>
  <speed>0.01</speed>
  <fix>3d</fix>
</trkpt>
<trkpt lat="33.8103137" lon="-118.3938746">
  <ele>-12.512</ele>
  <time>2026-09-02T22:07:43Z</time>
  <course>186.86</course>
  <speed>0.03605551275463989</speed>
  <fix>3d</fix>
</trkpt>
<trkpt lat="33.8103137" lon="-118.3938746">
  <ele>-12.58</ele>
  <time>2026-09-02T22:07:43Z</time>
  <course>186.86</course>
  <speed>0.03605551275463989</speed>
  <fix>3d</fix>
</trkpt>
<trkpt lat="33.8103136" lon="-118.3938745">
  <ele>-11.94</ele>
  <time>2026-09-02T22:07:43Z</time>
  <course>276.29</course>
  <speed>0.01</speed>
  <fix>3d</fix>
</trkpt>
<trkpt lat="33.8103137" lon="-118.3938747">
  <ele>-12.612</ele>
  <time>2026-09-02T22:07:43Z</time>
  <course>186.86</course>
  <speed>0.03605551275463989</speed>
  <fix>3d</fix>
</trkpt>
<trkpt lat="33.8103137" lon="-118.3938747">
  <ele>-12.678</ele>
  <time>2026-09-02T22:07:43Z</time>
  <course>186.86</course>
  <speed>0.03605551275463989</speed>
  <fix>3d</fix>
</trkpt>
<trkpt lat="33.8103136" lon="-118.3938745">
  <ele>-12.13</ele>
  <time>2026-09-02T22:07:43Z</time>
  <course>276.28</course>
  <speed>0.01</speed>
  <fix>3d</fix>
</trkpt>
<trkpt lat="33.8103137" lon="-118.3938747">
  <ele>-12.71</ele>
  <time>2026-09-02T22:07:43Z</time>
  <course>186.86</course>
  <speed>0.03605551275463989</speed>
  <fix>3d</fix>
</trkpt>
<trkpt lat="33.8103137" lon="-118.3938747">
  <ele>-12.776</ele>
  <time>2026-09-02T22:07:43Z</time>
  <course>186.87</course>
  <speed>0.03605551275463989</speed>
  <fix>3d</fix>
</trkpt>
<trkpt lat="33.8103136" lon="-118.3938745">
  <ele>-12.13</ele>
  <time>2026-09-02T22:07:43Z</time>
  <course>276.28</course>
  <speed>0.01</speed>
  <fix>3d</fix>
</trkpt>
<trkpt lat="33.8103137" lon="-118.3938747">
  <ele>-12.805</ele>
  <time>2026-09-02T22:07:43Z</time>
  <course>186.87</course>
  <speed>0.03605551275463989</speed>
  <fix>3d</fix>
</trkpt>
<trkpt lat="33.8103137" lon="-118.3938747">
  <ele>-12.874</ele>
  <time>2026-09-02T22:07:43Z</time>
  <course>186.87</course>
  <speed>0.04242640687119285</speed>
  <fix>3d</fix>
</trkpt>
<trkpt lat="33.8103136" lon="-118.3938745">
  <ele>-12.32</ele>
  <time>2026-09-02T22:07:43Z</time>
  <course>276.29</course>
  <speed>0.01</speed>
  <fix>3d</fix>
</trkpt>
<trkpt lat="33.8103137" lon="-118.3938747">
  <ele>-12.876</ele>
  <time>2026-09-02T22:07:43Z</time>
  <course>186.87</course>
  <speed>0.04242640687119285</speed>
  <fix>3d</fix>
</trkpt>
<trkpt lat="33.8103137" lon="-118.3938747">
  <ele>-12.971</ele>
  <time>2026-09-02T22:07:43Z</time>
  <course>186.87</course>
  <speed>0.04242640687119285</speed>
  <fix>3d</fix>
</trkpt>
<trkpt lat="33.8103136" lon="-118.3938745">
  <ele>-12.32</ele>
  <time>2026-09-02T22:07:43Z</time>
  <course>276.29</course>
  <speed>0.01</speed>
  <fix>3d</fix>
</trkpt>
<trkpt lat="33.8103137" lon="-118.3938747">
  <ele>-13.001</ele>
  <time>2026-09-02T22:07:43Z</time>
  <course>186.88</course>
  <speed>0.04242640687119285</speed>
  <fix>3d</fix>
</trkpt>
<trkpt lat="33.8103137" lon="-118.3938747">
  <ele>-13.069</ele>
  <time>2026-09-02T22:07:43Z</time>
  <course>186.88</course>
  <speed>0.04242640687119285</speed>
  <fix>3d</fix>
</trkpt>
<trkpt lat="33.8103136" lon="-118.3938746">
  <ele>-12.51</ele>
  <time>2026-09-02T22:07:43Z</time>
  <course>276.29</course>
  <speed>0.01</speed>
  <fix>3d</fix>
</trkpt>
<trkpt lat="33.8103137" lon="-118.3938747">
  <ele>-13.099</ele>
  <time>2026-09-02T22:07:43Z</time>
  <course>186.88</course>
  <speed>0.04242640687119285</speed>
  <fix>3d</fix>
</trkpt>
<trkpt lat="33.8103138" lon="-118.3938748">
  <ele>-13.168</ele>
  <time>2026-09-02T22:07:43Z</time>
  <course>186.88</course>
  <speed>0.04242640687119285</speed>
  <fix>3d</fix>
</trkpt>
<trkpt lat="33.8103136" lon="-118.3938746">
  <ele>-12.51</ele>
  <time>2026-09-02T22:07:43Z</time>
  <course>276.29</course>
  <speed>0.01</speed>
  <fix>3d</fix>
</trkpt>
<trkpt lat="33.8103138" lon="-118.3938748">
  <ele>-13.205</ele>
  <time>2026-09-02T22:07:43Z</time>
  <course>186.89</course>
  <speed>0.04242640687119285</speed>
  <fix>3d</fix>
</trkpt>
<trkpt lat="33.8103138" lon="-118.3938748">
  <ele>-13.265</ele>
  <time>2026-09-02T22:07:43Z</time>
  <course>186.89</course>
  <speed>0.04242640687119285</speed>
  <fix>3d</fix>
</trkpt>
<trkpt lat="33.8103136" lon="-118.3938746">
  <ele>-12.71</ele>
  <time>2026-09-02T22:07:43Z</time>
  <course>276.29</course>
  <speed>0.01</speed>
  <fix>3d</fix>
</trkpt>
<trkpt lat="33.8103138" lon="-118.3938748">
  <ele>-13.28</ele>
  <time>2026-09-02T22:07:43Z</time>
  <course>186.89</course>
  <speed>0.04242640687119285</speed>
  <fix>3d</fix>
</trkpt>
<trkpt lat="33.8103138" lon="-118.3938748">
  <ele>-13.363</ele>
  <time>2026-09-02T22:07:43Z</time>
  <course>186.89</course>
  <speed>0.04242640687119285</speed>
  <fix>3d</fix>
</trkpt>
<trkpt lat="33.8103136" lon="-118.3938746">
  <ele>-12.71</ele>
  <time>2026-09-02T22:07:43Z</time>
  <course>276.29</course>
  <speed>0.01</speed>
  <fix>3d</fix>
</trkpt>
<trkpt lat="33.8103138" lon="-118.3938748">
  <ele>-13.392</ele>
  <time>2026-09-02T22:07:43Z</time>
  <course>186.89</course>
  <speed>0.04242640687119285</speed>
  <fix>3d</fix>
</trkpt>
<trkpt lat="33.8103138" lon="-118.3938748">
  <ele>-13.459</ele>
  <time>2026-09-02T22:07:43Z</time>
  <course>186.9</course>
  <speed>0.04242640687119285</speed>
  <fix>3d</fix>
</trkpt>
<trkpt lat="33.8103136" lon="-118.3938746">
  <ele>-12.9</ele>
  <time>2026-09-02T22:07:43Z</time>
  <course>276.29</course>
  <speed>0.01</speed>
  <fix>3d</fix>
</trkpt>
<trkpt lat="33.8103138" lon="-118.3938748">
  <ele>-13.488</ele>
  <time>2026-09-02T22:07:43Z</time>
  <course>186.9</course>
  <speed>0.04242640687119285</speed>
  <fix>3d</fix>
</trkpt>
<trkpt lat="33.8103138" lon="-118.3938748">
  <ele>-13.556</ele>
  <time>2026-09-02T22:07:43Z</time>
  <course>186.9</course>
  <speed>0.04242640687119285</speed>
  <fix>3d</fix>
</trkpt>
<trkpt lat="33.8103136" lon="-118.3938746">
  <ele>-12.9</ele>
  <time>2026-09-02T22:07:43Z</time>
  <course>276.29</course>
  <speed>0.01</speed>
  <fix>3d</fix>
</trkpt>
<trkpt lat="33.8103138" lon="-118.3938748">
  <ele>-13.587</ele>
  <time>2026-09-02T22:07:43Z</time>
  <course>186.9</course>
  <speed>0.04242640687119285</speed>
  <fix>3d</fix>
</trkpt>
<trkpt lat="33.8103138" lon="-118.3938748">
  <ele>-13.653</ele>
  <time>2026-09-02T22:07:43Z</time>
  <course>186.91</course>
  <speed>0.04242640687119285</speed>
  <fix>3d</fix>
</trkpt>
<trkpt lat="33.8103136" lon="-118.3938747">
  <ele>-13.09</ele>
  <time>2026-09-02T22:07:43Z</time>
  <course>276.28</course>
  <speed>0.01</speed>
  <fix>3d</fix>
</trkpt>
<trkpt lat="33.8103138" lon="-118.3938748">
  <ele>-13.683</ele>
  <time>2026-09-02T22:07:43Z</time>
  <course>186.91</course>
  <speed>0.04242640687119285</speed>
  <fix>3d</fix>
</trkpt>
<trkpt lat="33.8103138" lon="-118.3938749">
  <ele>-13.751</ele>
  <time>2026-09-02T22:07:43Z</time>
  <course>186.91</course>
  <speed>0.04242640687119285</speed>
  <fix>3d</fix>
</trkpt>
<trkpt lat="33.8103136" lon="-118.3938747">
  <ele>-13.09</ele>
  <time>2026-09-02T22:07:43Z</time>
  <course>276.28</course>
  <speed>0.01</speed>
  <fix>3d</fix>
</trkpt>
<trkpt lat="33.8103138" lon="-118.3938749">
  <ele>-13.782</ele>
  <time>2026-09-02T22:07:43Z</time>
  <course>186.91</course>
  <speed>0.04242640687119285</speed>
  <fix>3d</fix>
</trkpt>
<trkpt lat="33.8103138" lon="-118.3938749">
  <ele>-13.849</ele>
  <time>2026-09-02T22:07:43Z</time>
  <course>186.92</course>
  <speed>0.04242640687119285</speed>
  <fix>3d</fix>
</trkpt>
<trkpt lat="33.8103136" lon="-118.3938747">
  <ele>-13.28</ele>
  <time>2026-09-02T22:07:43Z</time>
  <course>276.29</course>
  <speed>0.01</speed>
  <fix>3d</fix>
</trkpt>
<trkpt lat="33.8103138" lon="-118.3938749">
  <ele>-13.88</ele>
  <time>2026-09-02T22:07:43Z</time>
  <course>186.92</course>
  <speed>0.04242640687119285</speed>
  <fix>3d</fix>
</trkpt>
<trkpt lat="33.8103138" lon="-118.3938749">
  <ele>-13.947</ele>
  <time>2026-09-02T22:07:43Z</time>
  <course>186.92</course>
  <speed>0.04242640687119285</speed>
  <fix>3d</fix>
</trkpt>
<trkpt lat="33.8103136" lon="-118.3938747">
  <ele>-13.28</ele>
  <time>2026-09-02T22:07:43Z</time>
  <course>276.29</course>
  <speed>0.01</speed>
  <fix>3d</fix>
</trkpt>
<trkpt lat="33.8103138" lon="-118.3938749">
  <ele>-13.949</ele>
  <time>2026-09-02T22:07:43Z</time>
  <course>186.92</course>
  <speed>0.04242640687119285</speed>
  <fix>3d</fix>
</trkpt>
<trkpt lat="33.8103138" lon="-118.3938749">
  <ele>-14.046</ele>
  <time>2026-09-02T22:07:43Z</time>
  <course>186.93</course>
  <speed>0.04242640687119285</speed>
  <fix>3d</fix>
</trkpt>
<trkpt lat="33.8103136" lon="-118.3938747">
  <ele>-13.47</ele>
  <time>2026-09-02T22:07:43Z</time>
  <course>276.29</course>
  <speed>0.01</speed>
  <fix>3d</fix>
</trkpt>
<trkpt lat="33.8103138" lon="-118.3938749">
  <ele>-14.075</ele>
  <time>2026-09-02T22:07:43Z</time>
  <course>186.93</course>
  <speed>0.04242640687119285</speed>
  <fix>3d</fix>
</trkpt>
<trkpt lat="33.8103138" lon="-118.3938749">
  <ele>-14.144</ele>
  <time>2026-09-02T22:07:43Z</time>
  <course>186.93</course>
  <speed>0.04242640687119285</speed>
  <fix>3d</fix>
</trkpt>
<trkpt lat="33.8103136" lon="-118.3938747">
  <ele>-13.47</ele>
  <time>2026-09-02T22:07:43Z</time>
  <course>276.29</course>
  <speed>0.01</speed>
  <fix>3d</fix>
</trkpt>
<trkpt lat="33.8103138" lon="-118.3938749">
  <ele>-14.173</ele>
  <time>2026-09-02T22:07:43Z</time>
  <course>186.93</course>
  <speed>0.04242640687119285</speed>
  <fix>3d</fix>
</trkpt>
<trkpt lat="33.8103138" lon="-118.3938749">
  <ele>-14.242</ele>
  <time>2026-09-02T22:07:43Z</time>
  <course>186.94</course>
  <speed>0.04242640687119285</speed>
  <fix>3d</fix>
</trkpt>
<trkpt lat="33.8103136" lon="-118.3938747">
  <ele>-13.66</ele>
  <time>2026-09-02T22:07:43Z</time>
  <course>276.28</course>
  <speed>0.01</speed>
  <fix>3d</fix>
</trkpt>
<trkpt lat="33.8103138" lon="-118.3938749">
  <ele>-14.271</ele>
  <time>2026-09-02T22:07:43Z</time>
  <course>186.94</course>
  <speed>0.04242640687119285</speed>
  <fix>3d</fix>
</trkpt>
<trkpt lat="33.8103138" lon="-118.393875">
  <ele>-14.34</ele>
  <time>2026-09-02T22:07:43Z</time>
  <course>186.94</course>
  <speed>0.04242640687119285</speed>
  <fix>3d</fix>
</trkpt>
<trkpt lat="33.8103136" lon="-118.3938747">
  <ele>-13.66</ele>
  <time>2026-09-02T22:07:43Z</time>
  <course>276.28</course>
  <speed>0.01</speed>
  <fix>3d</fix>
</trkpt>
<trkpt lat="33.8103138" lon="-118.393875">
  <ele>-14.372</ele>
  <time>2026-09-02T22:07:43Z</time>
  <course>186.95</course>
  <speed>0.04242640687119285</speed>
  <fix>3d</fix>
</trkpt>
<trkpt lat="33.8103138" lon="-118.393875">
  <ele>-14.438</ele>
  <time>2026-09-02T22:07:43Z</time>
  <course>186.95</course>
  <speed>0.04242640687119285</speed>
  <fix>3d</fix>
</trkpt>
<trkpt lat="33.8103136" lon="-118.3938748">
  <ele>-13.85</ele>
  <time>2026-09-02T22:07:43Z</time>
  <course>276.28</course>
  <speed>0.01</speed>
  <fix>3d</fix>
</trkpt>
<trkpt lat="33.8103138" lon="-118.393875">
  <ele>-14.47</ele>
  <time>2026-09-02T22:07:43Z</time>
  <course>186.95</course>
  <speed>0.04242640687119285</speed>
  <fix>3d</fix>
</trkpt>
<trkpt lat="33.8103138" lon="-118.393875">
  <ele>-14.536</ele>
  <time>2026-09-02T22:07:43Z</time>
  <course>186.96</course>
  <speed>0.04242640687119285</speed>
  <fix>3d</fix>
</trkpt>
<trkpt lat="33.8103136" lon="-118.3938748">
  <ele>-13.85</ele>
  <time>2026-09-02T22:07:43Z</time>
  <course>276.28</course>
  <speed>0.01</speed>
  <fix>3d</fix>
</trkpt>
<trkpt lat="33.8103138" lon="-118.393875">
  <ele>-14.539</ele>
  <time>2026-09-02T22:07:43Z</time>
  <course>186.96</course>
  <speed>0.04242640687119285</speed>
  <fix>3d</fix>
</trkpt>
<trkpt lat="33.8103138" lon="-118.393875">
  <ele>-14.634</ele>
  <time>2026-09-02T22:07:43Z</time>
  <course>186.96</course>
  <speed>0.04242640687119285</speed>
  <fix>3d</fix>
</trkpt>
<trkpt lat="33.8103136" lon="-118.3938748">
  <ele>-14.04</ele>
  <time>2026-09-02T22:07:43Z</time>
  <course>276.28</course>
  <speed>0.01</speed>
  <fix>3d</fix>
</trkpt>
<trkpt lat="33.8103138" lon="-118.393875">
  <ele>-14.666</ele>
  <time>2026-09-02T22:07:43Z</time>
  <course>186.96</course>
  <speed>0.04242640687119285</speed>
  <fix>3d</fix>
</trkpt>
<trkpt lat="33.8103138" lon="-118.393875">
  <ele>-14.731</ele>
  <time>2026-09-02T22:07:43Z</time>
  <course>186.97</course>
  <speed>0.04242640687119285</speed>
  <fix>3d</fix>
</trkpt>
<trkpt lat="33.8103136" lon="-118.3938748">
  <ele>-14.04</ele>
  <time>2026-09-02T22:07:43Z</time>
  <course>276.28</course>
  <speed>0.01</speed>
  <fix>3d</fix>
</trkpt>
<trkpt lat="33.8103138" lon="-118.393875">
  <ele>-14.763</ele>
  <time>2026-09-02T22:07:43Z</time>
  <course>186.97</course>
  <speed>0.04242640687119285</speed>
  <fix>3d</fix>
</trkpt>
<trkpt lat="33.8103138" lon="-118.393875">
  <ele>-14.829</ele>
  <time>2026-09-02T22:07:43Z</time>
  <course>186.97</course>
  <speed>0.04242640687119285</speed>
  <fix>3d</fix>
</trkpt>
<trkpt lat="33.8103136" lon="-118.3938748">
  <ele>-14.24</ele>
  <time>2026-09-02T22:07:43Z</time>
  <course>276.28</course>
  <speed>0.01</speed>
  <fix>3d</fix>
</trkpt>
<trkpt lat="33.8103138" lon="-118.393875">
  <ele>-14.861</ele>
  <time>2026-09-02T22:07:43Z</time>
  <course>186.98</course>
  <speed>0.04242640687119285</speed>
  <fix>3d</fix>
</trkpt>
<trkpt lat="33.8103138" lon="-118.3938751">
  <ele>-14.926</ele>
  <time>2026-09-02T22:07:43Z</time>
  <course>186.98</course>
  <speed>0.04242640687119285</speed>
  <fix>3d</fix>
</trkpt>
<trkpt lat="33.8103136" lon="-118.3938748">
  <ele>-14.24</ele>
  <time>2026-09-02T22:07:43Z</time>
  <course>276.28</course>
  <speed>0.01</speed>
  <fix>3d</fix>
</trkpt>
<trkpt lat="33.8103138" lon="-118.3938751">
  <ele>-14.929</ele>
  <time>2026-09-02T22:07:43Z</time>
  <course>186.98</course>
  <speed>0.04242640687119285</speed>
  <fix>3d</fix>
</trkpt>
<trkpt lat="33.8103138" lon="-118.3938751">
  <ele>-15.024</ele>
  <time>2026-09-02T22:07:43Z</time>
  <course>186.99</course>
  <speed>0.04242640687119285</speed>
  <fix>3d</fix>
</trkpt>
<trkpt lat="33.8103136" lon="-118.3938749">
  <ele>-14.43</ele>
  <time>2026-09-02T22:07:43Z</time>
  <course>276.28</course>
  <speed>0.01</speed>
  <fix>3d</fix>
</trkpt>
<trkpt lat="33.8103138" lon="-118.3938751">
  <ele>-15.053</ele>
  <time>2026-09-02T22:07:43Z</time>
  <course>186.99</course>
  <speed>0.04242640687119285</speed>
  <fix>3d</fix>
</trkpt>
<trkpt lat="33.8103138" lon="-118.3938751">
  <ele>-15.122</ele>
  <time>2026-09-02T22:07:43Z</time>
  <course>186.99</course>
  <speed>0.04242640687119285</speed>
  <fix>3d</fix>
</trkpt>
<trkpt lat="33.8103136" lon="-118.3938749">
  <ele>-14.43</ele>
  <time>2026-09-02T22:07:43Z</time>
  <course>276.28</course>
  <speed>0.01</speed>
  <fix>3d</fix>
</trkpt>
<trkpt lat="33.8103138" lon="-118.3938751">
  <ele>-15.154</ele>
  <time>2026-09-02T22:07:43Z</time>
  <course>187.0</course>
  <speed>0.04242640687119285</speed>
  <fix>3d</fix>
</trkpt>
<trkpt lat="33.8103138" lon="-118.3938751">
  <ele>-15.22</ele>
  <time>2026-09-02T22:07:43Z</time>
  <course>187.0</course>
  <speed>0.04242640687119285</speed>
  <fix>3d</fix>
</trkpt>
<trkpt lat="33.8103136" lon="-118.3938749">
  <ele>-14.62</ele>
  <time>2026-09-02T22:07:43Z</time>
  <course>276.28</course>
  <speed>0.01</speed>
  <fix>3d</fix>
</trkpt>
<trkpt lat="33.8103138" lon="-118.3938751">
  <ele>-15.252</ele>
  <time>2026-09-02T22:07:43Z</time>
  <course>187.0</course>
  <speed>0.04242640687119285</speed>
  <fix>3d</fix>
</trkpt>
<trkpt lat="33.8103138" lon="-118.3938751">
  <ele>-15.318</ele>
  <time>2026-09-02T22:07:43Z</time>
  <course>187.01</course>
  <speed>0.04242640687119285</speed>
  <fix>3d</fix>
</trkpt>
<trkpt lat="33.8103136" lon="-118.3938749">
  <ele>-14.62</ele>
  <time>2026-09-02T22:07:43Z</time>
  <course>276.28</course>
  <speed>0.01</speed>
  <fix>3d</fix>
</trkpt>
<trkpt lat="33.8103138" lon="-118.3938751">
  <ele>-15.347</ele>
  <time>2026-09-02T22:07:43Z</time>
  <course>187.01</course>
  <speed>0.04242640687119285</speed>
  <fix>3d</fix>
</trkpt>
<trkpt lat="33.8103138" lon="-118.3938751">
  <ele>-15.416</ele>
  <time>2026-09-02T22:07:43Z</time>
  <course>187.01</course>
  <speed>0.04242640687119285</speed>
  <fix>3d</fix>
</trkpt>
<trkpt lat="33.8103136" lon="-118.3938749">
  <ele>-14.81</ele>
  <time>2026-09-02T22:07:43Z</time>
  <course>276.28</course>
  <speed>0.01</speed>
  <fix>3d</fix>
</trkpt>
<trkpt lat="33.8103138" lon="-118.3938751">
  <ele>-15.448</ele>
  <time>2026-09-02T22:07:43Z</time>
  <course>187.02</course>
  <speed>0.04242640687119285</speed>
  <fix>3d</fix>
</trkpt>
<trkpt lat="33.8103138" lon="-118.3938752">
  <ele>-15.514</ele>
  <time>2026-09-02T22:07:43Z</time>
  <course>187.02</course>
  <speed>0.04242640687119285</speed>
  <fix>3d</fix>
</trkpt>
<trkpt lat="33.8103136" lon="-118.3938749">
  <ele>-14.81</ele>
  <time>2026-09-02T22:07:43Z</time>
  <course>276.28</course>
  <speed>0.01</speed>
  <fix>3d</fix>
</trkpt>
<trkpt lat="33.8103138" lon="-118.3938752">
  <ele>-15.543</ele>
  <time>2026-09-02T22:07:43Z</time>
  <course>187.02</course>
  <speed>0.04242640687119285</speed>
  <fix>3d</fix>
</trkpt>
<trkpt lat="33.8103138" lon="-118.3938752">
  <ele>-15.612</ele>
  <time>2026-09-02T22:07:43Z</time>
  <course>187.03</course>
  <speed>0.04242640687119285</speed>
  <fix>3d</fix>
</trkpt>
<trkpt lat="33.8103136" lon="-118.393875">
  <ele>-15.0</ele>
  <time>2026-09-02T22:07:43Z</time>
  <course>276.28</course>
  <speed>0.01</speed>
  <fix>3d</fix>
</trkpt>
<trkpt lat="33.8103138" lon="-118.3938752">
  <ele>-15.613</ele>
  <time>2026-09-02T22:07:43Z</time>
  <course>187.03</course>
  <speed>0.04242640687119285</speed>
  <fix>3d</fix>
</trkpt>
<trkpt lat="33.8103138" lon="-118.3938752">
  <ele>-15.709</ele>
  <time>2026-09-02T22:07:43Z</time>
  <course>187.03</course>
  <speed>0.04242640687119285</speed>
  <fix>3d</fix>
</trkpt>
<trkpt lat="33.8103136" lon="-118.393875">
  <ele>-15.0</ele>
  <time>2026-09-02T22:07:43Z</time>
  <course>276.28</course>
  <speed>0.01</speed>
  <fix>3d</fix>
</trkpt>
<trkpt lat="33.8103138" lon="-118.3938752">
  <ele>-15.711</ele>
  <time>2026-09-02T22:07:43Z</time>
  <course>187.03</course>
  <speed>0.04242640687119285</speed>
  <fix>3d</fix>
</trkpt>
<trkpt lat="33.8103138" lon="-118.3938752">
  <ele>-15.807</ele>
  <time>2026-09-02T22:07:43Z</time>
  <course>187.04</course>
  <speed>0.04242640687119285</speed>
  <fix>3d</fix>
</trkpt>
<trkpt lat="33.8103136" lon="-118.393875">
  <ele>-15.19</ele>
  <time>2026-09-02T22:07:43Z</time>
  <course>276.27</course>
  <speed>0.01</speed>
  <fix>3d</fix>
</trkpt>
<trkpt lat="33.8103138" lon="-118.3938752">
  <ele>-15.838</ele>
  <time>2026-09-02T22:07:43Z</time>
  <course>187.04</course>
  <speed>0.04242640687119285</speed>
  <fix>3d</fix>
</trkpt>
<trkpt lat="33.8103138" lon="-118.3938752">
  <ele>-15.906</ele>
  <time>2026-09-02T22:07:43Z</time>
  <course>187.05</course>
  <speed>0.04242640687119285</speed>
  <fix>3d</fix>
</trkpt>
<trkpt lat="33.8103136" lon="-118.393875">
  <ele>-15.19</ele>
  <time>2026-09-02T22:07:43Z</time>
  <course>276.27</course>
  <speed>0.01</speed>
  <fix>3d</fix>
</trkpt>
<trkpt lat="33.8103139" lon="-118.3938752">
  <ele>-15.937</ele>
  <time>2026-09-02T22:07:43Z</time>
  <course>187.05</course>
  <speed>0.04242640687119285</speed>
  <fix>3d</fix>
</trkpt>
<trkpt lat="33.8103138" lon="-118.3938752">
  <ele>-16.003</ele>
  <time>2026-09-02T22:07:43Z</time>
  <course>187.05</course>
  <speed>0.04242640687119285</speed>
  <fix>3d</fix>
</trkpt>
<trkpt lat="33.8103136" lon="-118.393875">
  <ele>-15.38</ele>
  <time>2026-09-02T22:07:43Z</time>
  <course>276.27</course>
  <speed>0.01</speed>
  <fix>3d</fix>
</trkpt>
<trkpt lat="33.8103138" lon="-118.3938752">
  <ele>-16.005</ele>
  <time>2026-09-02T22:07:43Z</time>
  <course>187.05</course>
  <speed>0.04242640687119285</speed>
  <fix>3d</fix>
</trkpt>
<trkpt lat="33.8103138" lon="-118.3938753">
  <ele>-16.101</ele>
  <time>2026-09-02T22:07:43Z</time>
  <course>187.06</course>
  <speed>0.04242640687119285</speed>
  <fix>3d</fix>
</trkpt>
<trkpt lat="33.8103136" lon="-118.393875">
  <ele>-15.38</ele>
  <time>2026-09-02T22:07:43Z</time>
  <course>276.27</course>
  <speed>0.01</speed>
  <fix>3d</fix>
</trkpt>
<trkpt lat="33.8103139" lon="-118.3938753">
  <ele>-16.13</ele>
  <time>2026-09-02T22:07:43Z</time>
  <course>187.06</course>
  <speed>0.04242640687119285</speed>
  <fix>3d</fix>
</trkpt>
<trkpt lat="33.8103138" lon="-118.3938753">
  <ele>-16.197</ele>
  <time>2026-09-02T22:07:43Z</time>
  <course>187.07</course>
  <speed>0.04242640687119285</speed>
  <fix>3d</fix>
</trkpt>
<trkpt lat="33.8103136" lon="-118.393875">
  <ele>-15.57</ele>
  <time>2026-09-02T22:07:43Z</time>
  <course>276.27</course>
  <speed>0.01</speed>
  <fix>3d</fix>
</trkpt>
<trkpt lat="33.8103138" lon="-118.3938753">
  <ele>-16.226</ele>
  <time>2026-09-02T22:07:43Z</time>
  <course>187.07</course>
  <speed>0.04242640687119285</speed>
  <fix>3d</fix>
</trkpt>
<trkpt lat="33.8103138" lon="-118.3938753">
  <ele>-16.295</ele>
  <time>2026-09-02T22:07:43Z</time>
  <course>187.08</course>
  <speed>0.04242640687119285</speed>
  <fix>3d</fix>
</trkpt>
<trkpt lat="33.8103136" lon="-118.393875">
  <ele>-15.57</ele>
  <time>2026-09-02T22:07:43Z</time>
  <course>276.27</course>
  <speed>0.01</speed>
  <fix>3d</fix>
</trkpt>
<trkpt lat="33.8103139" lon="-118.3938753">
  <ele>-16.326</ele>
  <time>2026-09-02T22:07:43Z</time>
  <course>187.08</course>
  <speed>0.04242640687119285</speed>
  <fix>3d</fix>
</trkpt>
<trkpt lat="33.8103138" lon="-118.3938753">
  <ele>-16.392</ele>
  <time>2026-09-02T22:07:43Z</time>
  <course>187.08</course>
  <speed>0.04242640687119285</speed>
  <fix>3d</fix>
</trkpt>
<trkpt lat="33.8103136" lon="-118.3938751">
  <ele>-15.76</ele>
  <time>2026-09-02T22:07:43Z</time>
  <course>276.27</course>
  <speed>0.01</speed>
  <fix>3d</fix>
</trkpt>
<trkpt lat="33.8103138" lon="-118.3938753">
  <ele>-16.426</ele>
  <time>2026-09-02T22:07:43Z</time>
  <course>187.09</course>
  <speed>0.04242640687119285</speed>
  <fix>3d</fix>
</trkpt>
<trkpt lat="33.8103138" lon="-118.3938753">
  <ele>-16.489</ele>
  <time>2026-09-02T22:07:43Z</time>
  <course>187.09</course>
  <speed>0.04242640687119285</speed>
  <fix>3d</fix>
</trkpt>
<trkpt lat="33.8103136" lon="-118.3938751">
  <ele>-15.76</ele>
  <time>2026-09-02T22:07:43Z</time>
  <course>276.27</course>
  <speed>0.01</speed>
  <fix>3d</fix>
</trkpt>
<trkpt lat="33.8103139" lon="-118.3938753">
  <ele>-16.523</ele>
  <time>2026-09-02T22:07:43Z</time>
  <course>187.09</course>
  <speed>0.04242640687119285</speed>
  <fix>3d</fix>
</trkpt>
<trkpt lat="33.8103138" lon="-118.3938753">
  <ele>-16.586</ele>
  <time>2026-09-02T22:07:43Z</time>
  <course>187.1</course>
  <speed>0.04242640687119285</speed>
  <fix>3d</fix>
</trkpt>
<trkpt lat="33.8103136" lon="-118.3938751">
  <ele>-15.95</ele>
  <time>2026-09-02T22:07:43Z</time>
  <course>276.27</course>
  <speed>0.01</speed>
  <fix>3d</fix>
</trkpt>
<trkpt lat="33.8103138" lon="-118.3938753">
  <ele>-16.618</ele>
  <time>2026-09-02T22:07:43Z</time>
  <course>187.1</course>
  <speed>0.04242640687119285</speed>
  <fix>3d</fix>
</trkpt>
<trkpt lat="33.8103138" lon="-118.3938753">
  <ele>-16.684</ele>
  <time>2026-09-02T22:07:43Z</time>
  <course>187.1</course>
  <speed>0.04242640687119285</speed>
  <fix>3d</fix>
</trkpt>
<trkpt lat="33.8103136" lon="-118.3938751">
  <ele>-15.95</ele>
  <time>2026-09-02T22:07:43Z</time>
  <course>276.27</course>
  <speed>0.01</speed>
  <fix>3d</fix>
</trkpt>
<trkpt lat="33.8103138" lon="-118.3938753">
  <ele>-16.716</ele>
  <time>2026-09-02T22:07:43Z</time>
  <course>187.11</course>
  <speed>0.04242640687119285</speed>
  <fix>3d</fix>
</trkpt>
<trkpt lat="33.8103138" lon="-118.3938754">
  <ele>-16.781</ele>
  <time>2026-09-02T22:07:43Z</time>
  <course>187.11</course>
  <speed>0.04242640687119285</speed>
  <fix>3d</fix>
</trkpt>
<trkpt lat="33.8103136" lon="-118.3938751">
  <ele>-16.14</ele>
  <time>2026-09-02T22:07:43Z</time>
  <course>276.27</course>
  <speed>0.01</speed>
  <fix>3d</fix>
</trkpt>
<trkpt lat="33.8103138" lon="-118.3938754">
  <ele>-16.815</ele>
  <time>2026-09-02T22:07:43Z</time>
  <course>187.11</course>
  <speed>0.04242640687119285</speed>
  <fix>3d</fix>
</trkpt>
<trkpt lat="33.8103138" lon="-118.3938754">
  <ele>-16.879</ele>
  <time>2026-09-02T22:07:43Z</time>
  <course>187.12</course>
  <speed>0.04242640687119285</speed>
  <fix>3d</fix>
</trkpt>
<trkpt lat="33.8103136" lon="-118.3938751">
  <ele>-16.14</ele>
  <time>2026-09-02T22:07:43Z</time>
  <course>276.27</course>
  <speed>0.01</speed>
  <fix>3d</fix>
</trkpt>
<trkpt lat="33.8103138" lon="-118.3938754">
  <ele>-16.909</ele>
  <time>2026-09-02T22:07:43Z</time>
  <course>187.12</course>
  <speed>0.04242640687119285</speed>
  <fix>3d</fix>
</trkpt>
<trkpt lat="33.8103138" lon="-118.3938754">
  <ele>-16.977</ele>
  <time>2026-09-02T22:07:43Z</time>
  <course>187.13</course>
  <speed>0.04242640687119285</speed>
  <fix>3d</fix>
</trkpt>
<trkpt lat="33.8103136" lon="-118.3938752">
  <ele>-16.33</ele>
  <time>2026-09-02T22:07:43Z</time>
  <course>276.27</course>
  <speed>0.01</speed>
  <fix>3d</fix>
</trkpt>
<trkpt lat="33.8103138" lon="-118.3938754">
  <ele>-16.979</ele>
  <time>2026-09-02T22:07:43Z</time>
  <course>187.13</course>
  <speed>0.04242640687119285</speed>
  <fix>3d</fix>
</trkpt>
<trkpt lat="33.8103138" lon="-118.3938754">
  <ele>-17.073</ele>
  <time>2026-09-02T22:07:43Z</time>
  <course>187.13</course>
  <speed>0.04242640687119285</speed>
  <fix>3d</fix>
</trkpt>
<trkpt lat="33.8103136" lon="-118.3938752">
  <ele>-16.33</ele>
  <time>2026-09-02T22:07:43Z</time>
  <course>276.27</course>
  <speed>0.01</speed>
  <fix>3d</fix>
</trkpt>
<trkpt lat="33.8103138" lon="-118.3938754">
  <ele>-17.104</ele>
  <time>2026-09-02T22:07:43Z</time>
  <course>187.14</course>
  <speed>0.04242640687119285</speed>
  <fix>3d</fix>
</trkpt>
<trkpt lat="33.8103138" lon="-118.3938754">
  <ele>-17.169</ele>
  <time>2026-09-02T22:07:43Z</time>
  <course>187.14</course>
  <speed>0.04242640687119285</speed>
  <fix>3d</fix>
</trkpt>
<trkpt lat="33.8103136" lon="-118.3938752">
  <ele>-16.52</ele>
  <time>2026-09-02T22:07:43Z</time>
  <course>276.27</course>
  <speed>0.01</speed>
  <fix>3d</fix>
</trkpt>
<trkpt lat="33.8103138" lon="-118.3938754">
  <ele>-17.2</ele>
  <time>2026-09-02T22:07:43Z</time>
  <course>187.14</course>
  <speed>0.04242640687119285</speed>
  <fix>3d</fix>
</trkpt>
<trkpt lat="33.8103138" lon="-118.3938754">
  <ele>-17.265</ele>
  <time>2026-09-02T22:07:43Z</time>
  <course>187.15</course>
  <speed>0.04242640687119285</speed>
  <fix>3d</fix>
</trkpt>
<trkpt lat="33.8103136" lon="-118.3938752">
  <ele>-16.52</ele>
  <time>2026-09-02T22:07:43Z</time>
  <course>276.27</course>
  <speed>0.01</speed>
  <fix>3d</fix>
</trkpt>
<trkpt lat="33.8103138" lon="-118.3938754">
  <ele>-17.297</ele>
  <time>2026-09-02T22:07:43Z</time>
  <course>187.15</course>
  <speed>0.04242640687119285</speed>
  <fix>3d</fix>
</trkpt>
<trkpt lat="33.8103138" lon="-118.3938754">
  <ele>-17.362</ele>
  <time>2026-09-02T22:07:43Z</time>
  <course>187.16</course>
  <speed>0.04242640687119285</speed>
  <fix>3d</fix>
</trkpt>
<trkpt lat="33.8103136" lon="-118.3938752">
  <ele>-16.71</ele>
  <time>2026-09-02T22:07:43Z</time>
  <course>276.27</course>
  <speed>0.01</speed>
  <fix>3d</fix>
</trkpt>
<trkpt lat="33.8103138" lon="-118.3938754">
  <ele>-17.391</ele>
  <time>2026-09-02T22:07:43Z</time>
  <course>187.16</course>
  <speed>0.04242640687119285</speed>
  <fix>3d</fix>
</trkpt>
<trkpt lat="33.8103138" lon="-118.3938755">
  <ele>-17.458</ele>
  <time>2026-09-02T22:07:43Z</time>
  <course>187.16</course>
  <speed>0.04242640687119285</speed>
  <fix>3d</fix>
</trkpt>
<trkpt lat="33.8103136" lon="-118.3938752">
  <ele>-16.71</ele>
  <time>2026-09-02T22:07:43Z</time>
  <course>276.27</course>
  <speed>0.01</speed>
  <fix>3d</fix>
</trkpt>
<trkpt lat="33.8103138" lon="-118.3938755">
  <ele>-17.49</ele>
  <time>2026-09-02T22:07:43Z</time>
  <course>187.17</course>
  <speed>0.04242640687119285</speed>
  <fix>3d</fix>
</trkpt>
<trkpt lat="33.8103138" lon="-118.3938755">
  <ele>-17.556</ele>
  <time>2026-09-02T22:07:43Z</time>
  <course>187.17</course>
  <speed>0.04242640687119285</speed>
  <fix>3d</fix>
</trkpt>
<trkpt lat="33.8103136" lon="-118.3938752">
  <ele>-16.9</ele>
  <time>2026-09-02T22:07:43Z</time>
  <course>276.28</course>
  <speed>0.01</speed>
  <fix>3d</fix>
</trkpt>
<trkpt lat="33.8103138" lon="-118.3938755">
  <ele>-17.587</ele>
  <time>2026-09-02T22:07:43Z</time>
  <course>187.17</course>
  <speed>0.04242640687119285</speed>
  <fix>3d</fix>
</trkpt>
<trkpt lat="33.8103138" lon="-118.3938755">
  <ele>-17.654</ele>
  <time>2026-09-02T22:07:43Z</time>
  <course>187.18</course>
  <speed>0.04242640687119285</speed>
  <fix>3d</fix>
</trkpt>
<trkpt lat="33.8103136" lon="-118.3938752">
  <ele>-16.9</ele>
  <time>2026-09-02T22:07:43Z</time>
  <course>276.28</course>
  <speed>0.01</speed>
  <fix>3d</fix>
</trkpt>
<trkpt lat="33.8103138" lon="-118.3938755">
  <ele>-17.685</ele>
  <time>2026-09-02T22:07:43Z</time>
  <course>187.18</course>
  <speed>0.04242640687119285</speed>
  <fix>3d</fix>
</trkpt>
<trkpt lat="33.8103138" lon="-118.3938755">
  <ele>-17.752</ele>
  <time>2026-09-02T22:07:43Z</time>
  <course>187.19</course>
  <speed>0.04242640687119285</speed>
  <fix>3d</fix>
</trkpt>
<trkpt lat="33.8103136" lon="-118.3938753">
  <ele>-17.1</ele>
  <time>2026-09-02T22:07:43Z</time>
  <course>276.28</course>
  <speed>0.01</speed>
  <fix>3d</fix>
</trkpt>
<trkpt lat="33.8103138" lon="-118.3938755">
  <ele>-17.783</ele>
  <time>2026-09-02T22:07:43Z</time>
  <course>187.19</course>
  <speed>0.04242640687119285</speed>
  <fix>3d</fix>
</trkpt>
<trkpt lat="33.8103138" lon="-118.3938755">
  <ele>-17.851</ele>
  <time>2026-09-02T22:07:43Z</time>
  <course>187.19</course>
  <speed>0.04242640687119285</speed>
  <fix>3d</fix>
</trkpt>
<trkpt lat="33.8103136" lon="-118.3938753">
  <ele>-17.1</ele>
  <time>2026-09-02T22:07:43Z</time>
  <course>276.28</course>
  <speed>0.01</speed>
  <fix>3d</fix>
</trkpt>
<trkpt lat="33.8103138" lon="-118.3938755">
  <ele>-17.885</ele>
  <time>2026-09-02T22:07:43Z</time>
  <course>187.2</course>
  <speed>0.04242640687119285</speed>
  <fix>3d</fix>
</trkpt>
<trkpt lat="33.8103138" lon="-118.3938755">
  <ele>-17.95</ele>
  <time>2026-09-02T22:07:43Z</time>
  <course>187.2</course>
  <speed>0.04242640687119285</speed>
  <fix>3d</fix>
</trkpt>
<trkpt lat="33.8103136" lon="-118.3938753">
  <ele>-17.3</ele>
  <time>2026-09-02T22:07:43Z</time>
  <course>276.28</course>
  <speed>0.01</speed>
  <fix>3d</fix>
</trkpt>
<trkpt lat="33.8103138" lon="-118.3938755">
  <ele>-17.979</ele>
  <time>2026-09-02T22:07:43Z</time>
  <course>187.2</course>
  <speed>0.04242640687119285</speed>
  <fix>3d</fix>
</trkpt>
<trkpt lat="33.8103138" lon="-118.3938755">
  <ele>-18.048</ele>
  <time>2026-09-02T22:07:43Z</time>
  <course>187.21</course>
  <speed>0.04242640687119285</speed>
  <fix>3d</fix>
</trkpt>
<trkpt lat="33.8103136" lon="-118.3938753">
  <ele>-17.3</ele>
  <time>2026-09-02T22:07:43Z</time>
  <course>276.28</course>
  <speed>0.01</speed>
  <fix>3d</fix>
</trkpt>
<trkpt lat="33.8103138" lon="-118.3938755">
  <ele>-18.051</ele>
  <time>2026-09-02T22:07:43Z</time>
  <course>187.21</course>
  <speed>0.04242640687119285</speed>
  <fix>3d</fix>
</trkpt>
<trkpt lat="33.8103138" lon="-118.3938755">
  <ele>-18.146</ele>
  <time>2026-09-02T22:07:43Z</time>
  <course>187.22</course>
  <speed>0.04242640687119285</speed>
  <fix>3d</fix>
</trkpt>
<trkpt lat="33.8103136" lon="-118.3938753">
  <ele>-17.49</ele>
  <time>2026-09-02T22:07:43Z</time>
  <course>276.28</course>
  <speed>0.01</speed>
  <fix>3d</fix>
</trkpt>
<trkpt lat="33.8103138" lon="-118.3938755">
  <ele>-18.149</ele>
  <time>2026-09-02T22:07:43Z</time>
  <course>187.22</course>
  <speed>0.04242640687119285</speed>
  <fix>3d</fix>
</trkpt>
<trkpt lat="33.8103138" lon="-118.3938756">
  <ele>-18.245</ele>
  <time>2026-09-02T22:07:43Z</time>
  <course>187.22</course>
  <speed>0.04242640687119285</speed>
  <fix>3d</fix>
</trkpt>
<trkpt lat="33.8103136" lon="-118.3938753">
  <ele>-17.49</ele>
  <time>2026-09-02T22:07:43Z</time>
  <course>276.28</course>
  <speed>0.01</speed>
  <fix>3d</fix>
</trkpt>
<trkpt lat="33.8103138" lon="-118.3938756">
  <ele>-18.277</ele>
  <time>2026-09-02T22:07:43Z</time>
  <course>187.23</course>
  <speed>0.04242640687119285</speed>
  <fix>3d</fix>
</trkpt>
<trkpt lat="33.8103138" lon="-118.3938756">
  <ele>-18.343</ele>
  <time>2026-09-02T22:07:43Z</time>
  <course>187.23</course>
  <speed>0.04242640687119285</speed>
  <fix>3d</fix>
</trkpt>
<trkpt lat="33.8103136" lon="-118.3938754">
  <ele>-17.69</ele>
  <time>2026-09-02T22:07:43Z</time>
  <course>276.27</course>
  <speed>0.01</speed>
  <fix>3d</fix>
</trkpt>
<trkpt lat="33.8103138" lon="-118.3938756">
  <ele>-18.378</ele>
  <time>2026-09-02T22:07:43Z</time>
  <course>187.23</course>
  <speed>0.04242640687119285</speed>
  <fix>3d</fix>
</trkpt>
<trkpt lat="33.8103138" lon="-118.3938756">
  <ele>-18.442</ele>
  <time>2026-09-02T22:07:43Z</time>
  <course>187.24</course>
  <speed>0.04242640687119285</speed>
  <fix>3d</fix>
</trkpt>
<trkpt lat="33.8103136" lon="-118.3938754">
  <ele>-17.69</ele>
  <time>2026-09-02T22:07:43Z</time>
  <course>276.27</course>
  <speed>0.01</speed>
  <fix>3d</fix>
</trkpt>
<trkpt lat="33.8103138" lon="-118.3938756">
  <ele>-18.471</ele>
  <time>2026-09-02T22:07:43Z</time>
  <course>187.24</course>
  <speed>0.04242640687119285</speed>
  <fix>3d</fix>
</trkpt>
<trkpt lat="33.8103138" lon="-118.3938756">
  <ele>-18.54</ele>
  <time>2026-09-02T22:07:43Z</time>
  <course>187.24</course>
  <speed>0.04242640687119285</speed>
  <fix>3d</fix>
</trkpt>
<trkpt lat="33.8103136" lon="-118.3938754">
  <ele>-17.88</ele>
  <time>2026-09-02T22:07:43Z</time>
  <course>276.27</course>
  <speed>0.01</speed>
  <fix>3d</fix>
</trkpt>
<trkpt lat="33.8103138" lon="-118.3938756">
  <ele>-18.574</ele>
  <time>2026-09-02T22:07:43Z</time>
  <course>187.25</course>
  <speed>0.04242640687119285</speed>
  <fix>3d</fix>
</trkpt>
<trkpt lat="33.8103138" lon="-118.3938756">
  <ele>-18.638</ele>
  <time>2026-09-02T22:07:43Z</time>
  <course>187.25</course>
  <speed>0.04242640687119285</speed>
  <fix>3d</fix>
</trkpt>
<trkpt lat="33.8103136" lon="-118.3938754">
  <ele>-17.88</ele>
  <time>2026-09-02T22:07:43Z</time>
  <course>276.27</course>
  <speed>0.01</speed>
  <fix>3d</fix>
</trkpt>
<trkpt lat="33.8103138" lon="-118.3938756">
  <ele>-18.673</ele>
  <time>2026-09-02T22:07:43Z</time>
  <course>187.25</course>
  <speed>0.04242640687119285</speed>
  <fix>3d</fix>
</trkpt>
<trkpt lat="33.8103138" lon="-118.3938756">
  <ele>-18.737</ele>
  <time>2026-09-02T22:07:43Z</time>
  <course>187.26</course>
  <speed>0.04242640687119285</speed>
  <fix>3d</fix>
</trkpt>
<trkpt lat="33.8103136" lon="-118.3938754">
  <ele>-18.08</ele>
  <time>2026-09-02T22:07:43Z</time>
  <course>276.27</course>
  <speed>0.01</speed>
  <fix>3d</fix>
</trkpt>
<trkpt lat="33.8103138" lon="-118.3938756">
  <ele>-18.769</ele>
  <time>2026-09-02T22:07:43Z</time>
  <course>187.26</course>
  <speed>0.04242640687119285</speed>
  <fix>3d</fix>
</trkpt>
<trkpt lat="33.8103138" lon="-118.3938756">
  <ele>-18.836</ele>
  <time>2026-09-02T22:07:43Z</time>
  <course>187.27</course>
  <speed>0.04242640687119285</speed>
  <fix>3d</fix>
</trkpt>
<trkpt lat="33.8103136" lon="-118.3938754">
  <ele>-18.08</ele>
  <time>2026-09-02T22:07:43Z</time>
  <course>276.27</course>
  <speed>0.01</speed>
  <fix>3d</fix>
</trkpt>
<trkpt lat="33.8103138" lon="-118.3938756">
  <ele>-18.866</ele>
  <time>2026-09-02T22:07:43Z</time>
  <course>187.27</course>
  <speed>0.04242640687119285</speed>
  <fix>3d</fix>
</trkpt>
<trkpt lat="33.8103138" lon="-118.3938756">
  <ele>-18.934</ele>
  <time>2026-09-02T22:07:43Z</time>
  <course>187.27</course>
  <speed>0.04242640687119285</speed>
  <fix>3d</fix>
</trkpt>
<trkpt lat="33.8103137" lon="-118.3938754">
  <ele>-18.27</ele>
  <time>2026-09-02T22:07:43Z</time>
  <course>276.27</course>
  <speed>0.01</speed>
  <fix>3d</fix>
</trkpt>
<trkpt lat="33.8103138" lon="-118.3938757">
  <ele>-18.963</ele>
  <time>2026-09-02T22:07:43Z</time>
  <course>187.28</course>
  <speed>0.04242640687119285</speed>
  <fix>3d</fix>
</trkpt>
<trkpt lat="33.8103138" lon="-118.3938757">
  <ele>-19.032</ele>
  <time>2026-09-02T22:07:43Z</time>
  <course>187.28</course>
  <speed>0.04242640687119285</speed>
  <fix>3d</fix>
</trkpt>
<trkpt lat="33.8103137" lon="-118.3938754">
  <ele>-18.27</ele>
  <time>2026-09-02T22:07:43Z</time>
  <course>276.27</course>
  <speed>0.01</speed>
  <fix>3d</fix>
</trkpt>
<trkpt lat="33.8103138" lon="-118.3938757">
  <ele>-19.034</ele>
  <time>2026-09-02T22:07:43Z</time>
  <course>187.28</course>
  <speed>0.04242640687119285</speed>
  <fix>3d</fix>
</trkpt>
<trkpt lat="33.8103138" lon="-118.3938757">
  <ele>-19.129</ele>
  <time>2026-09-02T22:07:43Z</time>
  <course>187.29</course>
  <speed>0.04242640687119285</speed>
  <fix>3d</fix>
</trkpt>
<trkpt lat="33.8103137" lon="-118.3938755">
  <ele>-18.46</ele>
  <time>2026-09-02T22:07:43Z</time>
  <course>276.26</course>
  <speed>0.01</speed>
  <fix>3d</fix>
</trkpt>
<trkpt lat="33.8103138" lon="-118.3938757">
  <ele>-19.151</ele>
  <time>2026-09-02T22:07:43Z</time>
  <course>187.29</course>
  <speed>0.04242640687119285</speed>
  <fix>3d</fix>
</trkpt>
<trkpt lat="33.8103138" lon="-118.3938757">
  <ele>-19.228</ele>
  <time>2026-09-02T22:07:43Z</time>
  <course>187.3</course>
  <speed>0.04242640687119285</speed>
  <fix>3d</fix>
</trkpt>
<trkpt lat="33.8103137" lon="-118.3938755">
  <ele>-18.46</ele>
  <time>2026-09-02T22:07:43Z</time>
  <course>276.26</course>
  <speed>0.01</speed>
  <fix>3d</fix>
</trkpt>
<trkpt lat="33.8103138" lon="-118.3938757">
  <ele>-19.25</ele>
  <time>2026-09-02T22:07:43Z</time>
  <course>187.3</course>
  <speed>0.04242640687119285</speed>
  <fix>3d</fix>
</trkpt>
<trkpt lat="33.8103138" lon="-118.3938757">
  <ele>-19.326</ele>
  <time>2026-09-02T22:07:43Z</time>
  <course>187.3</course>
  <speed>0.04242640687119285</speed>
  <fix>3d</fix>
</trkpt>
<trkpt lat="33.8103137" lon="-118.3938755">
  <ele>-18.65</ele>
  <time>2026-09-02T22:07:43Z</time>
  <course>276.26</course>
  <speed>0.01</speed>
  <fix>3d</fix>
</trkpt>
<trkpt lat="33.8103138" lon="-118.3938757">
  <ele>-19.351</ele>
  <time>2026-09-02T22:07:43Z</time>
  <course>187.31</course>
  <speed>0.04242640687119285</speed>
  <fix>3d</fix>
</trkpt>
<trkpt lat="33.8103138" lon="-118.3938757">
  <ele>-19.425</ele>
  <time>2026-09-02T22:07:43Z</time>
  <course>187.31</course>
  <speed>0.04242640687119285</speed>
  <fix>3d</fix>
</trkpt>
<trkpt lat="33.8103137" lon="-118.3938755">
  <ele>-18.65</ele>
  <time>2026-09-02T22:07:43Z</time>
  <course>276.26</course>
  <speed>0.01</speed>
  <fix>3d</fix>
</trkpt>
<trkpt lat="33.8103138" lon="-118.3938757">
  <ele>-19.428</ele>
  <time>2026-09-02T22:07:43Z</time>
  <course>187.31</course>
  <speed>0.04242640687119285</speed>
  <fix>3d</fix>
</trkpt>
<trkpt lat="33.8103138" lon="-118.3938757">
  <ele>-19.524</ele>
  <time>2026-09-02T22:07:43Z</time>
  <course>187.32</course>
  <speed>0.04242640687119285</speed>
  <fix>3d</fix>
</trkpt>
<trkpt lat="33.8103137" lon="-118.3938755">
  <ele>-18.85</ele>
  <time>2026-09-02T22:07:43Z</time>
  <course>276.26</course>
  <speed>0.01</speed>
  <fix>3d</fix>
</trkpt>
<trkpt lat="33.8103138" lon="-118.3938757">
  <ele>-19.553</ele>
  <time>2026-09-02T22:07:43Z</time>
  <course>187.32</course>
  <speed>0.04242640687119285</speed>
  <fix>3d</fix>
</trkpt>
<trkpt lat="33.8103139" lon="-118.3938757">
  <ele>-19.622</ele>
  <time>2026-09-02T22:07:43Z</time>
  <course>187.33</course>
  <speed>0.04242640687119285</speed>
  <fix>3d</fix>
</trkpt>
<trkpt lat="33.8103137" lon="-118.3938755">
  <ele>-18.85</ele>
  <time>2026-09-02T22:07:43Z</time>
  <course>276.26</course>
  <speed>0.01</speed>
  <fix>3d</fix>
</trkpt>
<trkpt lat="33.8103139" lon="-118.3938757">
  <ele>-19.656</ele>
  <time>2026-09-02T22:07:43Z</time>
  <course>187.33</course>
  <speed>0.04242640687119285</speed>
  <fix>3d</fix>
</trkpt>
<trkpt lat="33.8103139" lon="-118.3938757">
  <ele>-19.72</ele>
  <time>2026-09-02T22:07:43Z</time>
  <course>187.33</course>
  <speed>0.04242640687119285</speed>
  <fix>3d</fix>
</trkpt>
<trkpt lat="33.8103137" lon="-118.3938756">
  <ele>-19.04</ele>
  <time>2026-09-02T22:07:43Z</time>
  <course>276.25</course>
  <speed>0.01</speed>
  <fix>3d</fix>
</trkpt>
<trkpt lat="33.8103139" lon="-118.3938757">
  <ele>-19.751</ele>
  <time>2026-09-02T22:07:43Z</time>
  <course>187.34</course>
  <speed>0.04242640687119285</speed>
  <fix>3d</fix>
</trkpt>
<trkpt lat="33.8103139" lon="-118.3938758">
  <ele>-19.818</ele>
  <time>2026-09-02T22:07:43Z</time>
  <course>187.34</course>
  <speed>0.04242640687119285</speed>
  <fix>3d</fix>
</trkpt>
<trkpt lat="33.8103137" lon="-118.3938756">
  <ele>-19.04</ele>
  <time>2026-09-02T22:07:43Z</time>
  <course>276.25</course>
  <speed>0.01</speed>
  <fix>3d</fix>
</trkpt>
<trkpt lat="33.8103139" lon="-118.3938758">
  <ele>-19.849</ele>
  <time>2026-09-02T22:07:43Z</time>
  <course>187.34</course>
  <speed>0.04242640687119285</speed>
  <fix>3d</fix>
</trkpt>
<trkpt lat="33.8103139" lon="-118.3938758">
  <ele>-19.915</ele>
  <time>2026-09-02T22:07:43Z</time>
  <course>187.35</course>
  <speed>0.04242640687119285</speed>
  <fix>3d</fix>
</trkpt>
<trkpt lat="33.8103137" lon="-118.3938756">
  <ele>-19.23</ele>
  <time>2026-09-02T22:07:43Z</time>
  <course>276.25</course>
  <speed>0.01</speed>
  <fix>3d</fix>
</trkpt>
<trkpt lat="33.8103139" lon="-118.3938758">
  <ele>-19.959</ele>
  <time>2026-09-02T22:07:43Z</time>
  <course>187.35</course>
  <speed>0.04242640687119285</speed>
  <fix>3d</fix>
</trkpt>
<trkpt lat="33.8103139" lon="-118.3938758">
  <ele>-20.012</ele>
  <time>2026-09-02T22:07:43Z</time>
  <course>187.35</course>
  <speed>0.04242640687119285</speed>
  <fix>3d</fix>
</trkpt>
<trkpt lat="33.8103137" lon="-118.3938756">
  <ele>-19.23</ele>
  <time>2026-09-02T22:07:43Z</time>
  <course>276.25</course>
  <speed>0.01</speed>
  <fix>3d</fix>
</trkpt>
<trkpt lat="33.8103139" lon="-118.3938758">
  <ele>-20.043</ele>
  <time>2026-09-02T22:07:43Z</time>
  <course>187.36</course>
  <speed>0.04242640687119285</speed>
  <fix>3d</fix>
</trkpt>
<trkpt lat="33.8103139" lon="-118.3938758">
  <ele>-20.11</ele>
  <time>2026-09-02T22:07:43Z</time>
  <course>187.36</course>
  <speed>0.04242640687119285</speed>
  <fix>3d</fix>
</trkpt>
<trkpt lat="33.8103137" lon="-118.3938756">
  <ele>-19.41</ele>
  <time>2026-09-02T22:07:43Z</time>
  <course>276.24</course>
  <speed>0.01</speed>
  <fix>3d</fix>
</trkpt>
<trkpt lat="33.8103139" lon="-118.3938758">
  <ele>-20.112</ele>
  <time>2026-09-02T22:07:43Z</time>
  <course>187.36</course>
  <speed>0.04242640687119285</speed>
  <fix>3d</fix>
</trkpt>
<trkpt lat="33.8103139" lon="-118.3938758">
  <ele>-20.207</ele>
  <time>2026-09-02T22:07:43Z</time>
  <course>187.37</course>
  <speed>0.04242640687119285</speed>
  <fix>3d</fix>
</trkpt>
<trkpt lat="33.8103137" lon="-118.3938756">
  <ele>-19.41</ele>
  <time>2026-09-02T22:07:43Z</time>
  <course>276.24</course>
  <speed>0.01</speed>
  <fix>3d</fix>
</trkpt>
<trkpt lat="33.8103139" lon="-118.3938758">
  <ele>-20.236</ele>
  <time>2026-09-02T22:07:43Z</time>
  <course>187.37</course>
  <speed>0.04242640687119285</speed>
  <fix>3d</fix>
</trkpt>
<trkpt lat="33.8103139" lon="-118.3938758">
  <ele>-20.304</ele>
  <time>2026-09-02T22:07:43Z</time>
  <course>187.38</course>
  <speed>0.04242640687119285</speed>
  <fix>3d</fix>
</trkpt>
<trkpt lat="33.8103137" lon="-118.3938756">
  <ele>-19.6</ele>
  <time>2026-09-02T22:07:43Z</time>
  <course>276.24</course>
  <speed>0.01</speed>
  <fix>3d</fix>
</trkpt>
<trkpt lat="33.8103139" lon="-118.3938758">
  <ele>-20.336</ele>
  <time>2026-09-02T22:07:43Z</time>
  <course>187.38</course>
  <speed>0.04242640687119285</speed>
  <fix>3d</fix>
</trkpt>
<trkpt lat="33.8103139" lon="-118.3938758">
  <ele>-20.401</ele>
  <time>2026-09-02T22:07:43Z</time>
  <course>187.38</course>
  <speed>0.04242640687119285</speed>
  <fix>3d</fix>
</trkpt>
<trkpt lat="33.8103137" lon="-118.3938756">
  <ele>-19.6</ele>
  <time>2026-09-02T22:07:43Z</time>
  <course>276.24</course>
  <speed>0.01</speed>
  <fix>3d</fix>
</trkpt>
<trkpt lat="33.8103139" lon="-118.3938758">
  <ele>-20.432</ele>
  <time>2026-09-02T22:07:43Z</time>
  <course>187.38</course>
  <speed>0.04242640687119285</speed>
  <fix>3d</fix>
</trkpt>
<trkpt lat="33.8103139" lon="-118.3938759">
  <ele>-20.498</ele>
  <time>2026-09-02T22:07:43Z</time>
  <course>187.39</course>
  <speed>0.04242640687119285</speed>
  <fix>3d</fix>
</trkpt>
<trkpt lat="33.8103137" lon="-118.3938757">
  <ele>-19.79</ele>
  <time>2026-09-02T22:07:43Z</time>
  <course>276.24</course>
  <speed>0.01</speed>
  <fix>3d</fix>
</trkpt>
<trkpt lat="33.8103139" lon="-118.3938759">
  <ele>-20.529</ele>
  <time>2026-09-02T22:07:43Z</time>
  <course>187.39</course>
  <speed>0.04242640687119285</speed>
  <fix>3d</fix>
</trkpt>
<trkpt lat="33.8103139" lon="-118.3938759">
  <ele>-20.595</ele>
  <time>2026-09-02T22:07:43Z</time>
  <course>187.4</course>
  <speed>0.04242640687119285</speed>
  <fix>3d</fix>
</trkpt>
<trkpt lat="33.8103137" lon="-118.3938757">
  <ele>-19.79</ele>
  <time>2026-09-02T22:07:43Z</time>
  <course>276.24</course>
  <speed>0.01</speed>
  <fix>3d</fix>
</trkpt>
<trkpt lat="33.8103139" lon="-118.3938759">
  <ele>-20.631</ele>
  <time>2026-09-02T22:07:43Z</time>
  <course>187.4</course>
  <speed>0.04242640687119285</speed>
  <fix>3d</fix>
</trkpt>
<trkpt lat="33.8103139" lon="-118.3938759">
  <ele>-20.691</ele>
  <time>2026-09-02T22:07:43Z</time>
  <course>187.4</course>
  <speed>0.04242640687119285</speed>
  <fix>3d</fix>
</trkpt>
<trkpt lat="33.8103137" lon="-118.3938757">
  <ele>-19.98</ele>
  <time>2026-09-02T22:07:43Z</time>
  <course>276.24</course>
  <speed>0.01</speed>
  <fix>3d</fix>
</trkpt>
<trkpt lat="33.8103139" lon="-118.3938759">
  <ele>-20.723</ele>
  <time>2026-09-02T22:07:43Z</time>
  <course>187.41</course>
  <speed>0.04242640687119285</speed>
  <fix>3d</fix>
</trkpt>
<trkpt lat="33.8103139" lon="-118.3938759">
  <ele>-20.788</ele>
  <time>2026-09-02T22:07:43Z</time>
  <course>187.41</course>
  <speed>0.04242640687119285</speed>
  <fix>3d</fix>
</trkpt>
<trkpt lat="33.8103137" lon="-118.3938757">
  <ele>-19.98</ele>
  <time>2026-09-02T22:07:43Z</time>
  <course>276.24</course>
  <speed>0.01</speed>
  <fix>3d</fix>
</trkpt>
<trkpt lat="33.8103139" lon="-118.3938759">
  <ele>-20.82</ele>
  <time>2026-09-02T22:07:43Z</time>
  <course>187.41</course>
  <speed>0.04242640687119285</speed>
  <fix>3d</fix>
</trkpt>
<trkpt lat="33.8103139" lon="-118.3938759">
  <ele>-20.886</ele>
  <time>2026-09-02T22:07:43Z</time>
  <course>187.42</course>
  <speed>0.04242640687119285</speed>
  <fix>3d</fix>
</trkpt>
<trkpt lat="33.8103137" lon="-118.3938757">
  <ele>-20.17</ele>
  <time>2026-09-02T22:07:43Z</time>
  <course>276.24</course>
  <speed>0.01</speed>
  <fix>3d</fix>
</trkpt>
<trkpt lat="33.8103139" lon="-118.3938759">
  <ele>-20.918</ele>
  <time>2026-09-02T22:07:43Z</time>
  <course>187.42</course>
  <speed>0.04242640687119285</speed>
  <fix>3d</fix>
</trkpt>
<trkpt lat="33.8103139" lon="-118.3938759">
  <ele>-20.984</ele>
  <time>2026-09-02T22:07:43Z</time>
  <course>187.42</course>
  <speed>0.04242640687119285</speed>
  <fix>3d</fix>
</trkpt>
<trkpt lat="33.8103137" lon="-118.3938757">
  <ele>-20.17</ele>
  <time>2026-09-02T22:07:43Z</time>
  <course>276.24</course>
  <speed>0.01</speed>
  <fix>3d</fix>
</trkpt>
<trkpt lat="33.8103139" lon="-118.3938759">
  <ele>-21.013</ele>
  <time>2026-09-02T22:07:43Z</time>
  <course>187.42</course>
  <speed>0.04242640687119285</speed>
  <fix>3d</fix>
</trkpt>
<trkpt lat="33.8103139" lon="-118.3938759">
  <ele>-21.082</ele>
  <time>2026-09-02T22:07:43Z</time>
  <course>187.43</course>
  <speed>0.04242640687119285</speed>
  <fix>3d</fix>
</trkpt>
<trkpt lat="33.8103137" lon="-118.3938758">
  <ele>-20.35</ele>
  <time>2026-09-02T22:07:43Z</time>
  <course>276.24</course>
  <speed>0.01</speed>
  <fix>3d</fix>
</trkpt>
<trkpt lat="33.8103139" lon="-118.3938759">
  <ele>-21.084</ele>
  <time>2026-09-02T22:07:43Z</time>
  <course>187.43</course>
  <speed>0.04242640687119285</speed>
  <fix>3d</fix>
</trkpt>
<trkpt lat="33.8103139" lon="-118.3938759">
  <ele>-21.179</ele>
  <time>2026-09-02T22:07:43Z</time>
  <course>187.44</course>
  <speed>0.04242640687119285</speed>
  <fix>3d</fix>
</trkpt>
<trkpt lat="33.8103137" lon="-118.3938758">
  <ele>-20.35</ele>
  <time>2026-09-02T22:07:43Z</time>
  <course>276.24</course>
  <speed>0.01</speed>
  <fix>3d</fix>
</trkpt>
<trkpt lat="33.8103139" lon="-118.3938759">
  <ele>-21.208</ele>
  <time>2026-09-02T22:07:43Z</time>
  <course>187.44</course>
  <speed>0.04242640687119285</speed>
  <fix>3d</fix>
</trkpt>
<trkpt lat="33.8103139" lon="-118.393876">
  <ele>-21.276</ele>
  <time>2026-09-02T22:07:43Z</time>
  <course>187.44</course>
  <speed>0.04242640687119285</speed>
  <fix>3d</fix>
</trkpt>
<trkpt lat="33.8103137" lon="-118.3938758">
  <ele>-20.54</ele>
  <time>2026-09-02T22:07:43Z</time>
  <course>276.24</course>
  <speed>0.01</speed>
  <fix>3d</fix>
</trkpt>
<trkpt lat="33.8103139" lon="-118.393876">
  <ele>-21.303</ele>
  <time>2026-09-02T22:07:43Z</time>
  <course>187.44</course>
  <speed>0.04242640687119285</speed>
  <fix>3d</fix>
</trkpt>
<trkpt lat="33.8103139" lon="-118.393876">
  <ele>-21.374</ele>
  <time>2026-09-02T22:07:43Z</time>
  <course>187.45</course>
  <speed>0.04242640687119285</speed>
  <fix>3d</fix>
</trkpt>
<trkpt lat="33.8103137" lon="-118.3938758">
  <ele>-20.54</ele>
  <time>2026-09-02T22:07:43Z</time>
  <course>276.24</course>
  <speed>0.01</speed>
  <fix>3d</fix>
</trkpt>
<trkpt lat="33.8103139" lon="-118.393876">
  <ele>-21.405</ele>
  <time>2026-09-02T22:07:43Z</time>
  <course>187.45</course>
  <speed>0.04242640687119285</speed>
  <fix>3d</fix>
</trkpt>
<trkpt lat="33.8103139" lon="-118.393876">
  <ele>-21.471</ele>
  <time>2026-09-02T22:07:43Z</time>
  <course>187.46</course>
  <speed>0.03605551275463989</speed>
  <fix>3d</fix>
</trkpt>
<trkpt lat="33.8103137" lon="-118.3938758">
  <ele>-20.73</ele>
  <time>2026-09-02T22:07:43Z</time>
  <course>276.24</course>
  <speed>0.01</speed>
  <fix>3d</fix>
</trkpt>
<trkpt lat="33.8103139" lon="-118.393876">
  <ele>-21.5</ele>
  <time>2026-09-02T22:07:43Z</time>
  <course>187.46</course>
  <speed>0.03605551275463989</speed>
  <fix>3d</fix>
</trkpt>
<trkpt lat="33.8103139" lon="-118.393876">
  <ele>-21.569</ele>
  <time>2026-09-02T22:07:43Z</time>
  <course>187.46</course>
  <speed>0.03605551275463989</speed>
  <fix>3d</fix>
</trkpt>
<trkpt lat="33.8103137" lon="-118.3938758">
  <ele>-20.73</ele>
  <time>2026-09-02T22:07:43Z</time>
  <course>276.24</course>
  <speed>0.01</speed>
  <fix>3d</fix>
</trkpt>
<trkpt lat="33.8103139" lon="-118.393876">
  <ele>-21.606</ele>
  <time>2026-09-02T22:07:43Z</time>
  <course>187.46</course>
  <speed>0.03605551275463989</speed>
  <fix>3d</fix>
</trkpt>
<trkpt lat="33.8103139" lon="-118.393876">
  <ele>-21.667</ele>
  <time>2026-09-02T22:07:43Z</time>
  <course>187.47</course>
  <speed>0.03605551275463989</speed>
  <fix>3d</fix>
</trkpt>
<trkpt lat="33.8103137" lon="-118.3938758">
  <ele>-20.92</ele>
  <time>2026-09-02T22:07:43Z</time>
  <course>276.24</course>
  <speed>0.01</speed>
  <fix>3d</fix>
</trkpt>
<trkpt lat="33.8103139" lon="-118.393876">
  <ele>-21.699</ele>
  <time>2026-09-02T22:07:43Z</time>
  <course>187.47</course>
  <speed>0.03605551275463989</speed>
  <fix>3d</fix>
</trkpt>
<trkpt lat="33.8103139" lon="-118.393876">
  <ele>-21.765</ele>
  <time>2026-09-02T22:07:43Z</time>
  <course>187.48</course>
  <speed>0.03605551275463989</speed>
  <fix>3d</fix>
</trkpt>
<trkpt lat="33.8103137" lon="-118.3938758">
  <ele>-20.92</ele>
  <time>2026-09-02T22:07:43Z</time>
  <course>276.24</course>
  <speed>0.01</speed>
  <fix>3d</fix>
</trkpt>
<trkpt lat="33.8103139" lon="-118.393876">
  <ele>-21.77</ele>
  <time>2026-09-02T22:07:43Z</time>
  <course>187.48</course>
  <speed>0.03605551275463989</speed>
  <fix>3d</fix>
</trkpt>
<trkpt lat="33.8103139" lon="-118.393876">
  <ele>-21.862</ele>
  <time>2026-09-02T22:07:43Z</time>
  <course>187.48</course>
  <speed>0.03605551275463989</speed>
  <fix>3d</fix>
</trkpt>
<trkpt lat="33.8103137" lon="-118.3938759">
  <ele>-21.11</ele>
  <time>2026-09-02T22:07:43Z</time>
  <course>276.23</course>
  <speed>0.01</speed>
  <fix>3d</fix>
</trkpt>
<trkpt lat="33.8103139" lon="-118.393876">
  <ele>-21.864</ele>
  <time>2026-09-02T22:07:43Z</time>
  <course>187.48</course>
  <speed>0.03605551275463989</speed>
  <fix>3d</fix>
</trkpt>
<trkpt lat="33.8103139" lon="-118.393876">
  <ele>-21.959</ele>
  <time>2026-09-02T22:07:43Z</time>
  <course>187.49</course>
  <speed>0.03605551275463989</speed>
  <fix>3d</fix>
</trkpt>
<trkpt lat="33.8103137" lon="-118.3938759">
  <ele>-21.11</ele>
  <time>2026-09-02T22:07:43Z</time>
  <course>276.23</course>
  <speed>0.01</speed>
  <fix>3d</fix>
</trkpt>
<trkpt lat="33.8103139" lon="-118.393876">
  <ele>-21.99</ele>
  <time>2026-09-02T22:07:43Z</time>
  <course>187.49</course>
  <speed>0.03605551275463989</speed>
  <fix>3d</fix>
</trkpt>
<trkpt lat="33.8103139" lon="-118.3938761">
  <ele>-22.057</ele>
  <time>2026-09-02T22:07:43Z</time>
  <course>187.5</course>
  <speed>0.03605551275463989</speed>
  <fix>3d</fix>
</trkpt>
<trkpt lat="33.8103137" lon="-118.3938759">
  <ele>-21.3</ele>
  <time>2026-09-02T22:07:43Z</time>
  <course>276.23</course>
  <speed>0.01</speed>
  <fix>3d</fix>
</trkpt>
<trkpt lat="33.8103139" lon="-118.3938761">
  <ele>-22.088</ele>
  <time>2026-09-02T22:07:43Z</time>
  <course>187.5</course>
  <speed>0.03605551275463989</speed>
  <fix>3d</fix>
</trkpt>
<trkpt lat="33.8103139" lon="-118.3938761">
  <ele>-22.154</ele>
  <time>2026-09-02T22:07:43Z</time>
  <course>187.5</course>
  <speed>0.03605551275463989</speed>
  <fix>3d</fix>
</trkpt>
<trkpt lat="33.8103137" lon="-118.3938759">
  <ele>-21.3</ele>
  <time>2026-09-02T22:07:43Z</time>
  <course>276.23</course>
  <speed>0.01</speed>
  <fix>3d</fix>
</trkpt>
<trkpt lat="33.8103139" lon="-118.3938761">
  <ele>-22.157</ele>
  <time>2026-09-02T22:07:43Z</time>
  <course>187.5</course>
  <speed>0.03605551275463989</speed>
  <fix>3d</fix>
</trkpt>
<trkpt lat="33.8103139" lon="-118.3938761">
  <ele>-22.252</ele>
  <time>2026-09-02T22:07:43Z</time>
  <course>187.51</course>
  <speed>0.03605551275463989</speed>
  <fix>3d</fix>
</trkpt>
<trkpt lat="33.8103137" lon="-118.3938759">
  <ele>-21.49</ele>
  <time>2026-09-02T22:07:43Z</time>
  <course>276.23</course>
  <speed>0.01</speed>
  <fix>3d</fix>
</trkpt>
<trkpt lat="33.8103139" lon="-118.3938761">
  <ele>-22.284</ele>
  <time>2026-09-02T22:07:43Z</time>
  <course>187.51</course>
  <speed>0.03605551275463989</speed>
  <fix>3d</fix>
</trkpt>
<trkpt lat="33.8103139" lon="-118.3938761">
  <ele>-22.349</ele>
  <time>2026-09-02T22:07:43Z</time>
  <course>187.51</course>
  <speed>0.03605551275463989</speed>
  <fix>3d</fix>
</trkpt>
<trkpt lat="33.8103137" lon="-118.3938759">
  <ele>-21.49</ele>
  <time>2026-09-02T22:07:43Z</time>
  <course>276.23</course>
  <speed>0.01</speed>
  <fix>3d</fix>
</trkpt>
<trkpt lat="33.8103139" lon="-118.3938761">
  <ele>-22.383</ele>
  <time>2026-09-02T22:07:43Z</time>
  <course>187.52</course>
  <speed>0.03605551275463989</speed>
  <fix>3d</fix>
</trkpt>
<trkpt lat="33.8103139" lon="-118.3938761">
  <ele>-22.446</ele>
  <time>2026-09-02T22:07:43Z</time>
  <course>187.52</course>
  <speed>0.03605551275463989</speed>
  <fix>3d</fix>
</trkpt>
<trkpt lat="33.8103137" lon="-118.393876">
  <ele>-21.68</ele>
  <time>2026-09-02T22:07:43Z</time>
  <course>276.23</course>
  <speed>0.01</speed>
  <fix>3d</fix>
</trkpt>
<trkpt lat="33.8103139" lon="-118.3938761">
  <ele>-22.478</ele>
  <time>2026-09-02T22:07:43Z</time>
  <course>187.52</course>
  <speed>0.03605551275463989</speed>
  <fix>3d</fix>
</trkpt>
<trkpt lat="33.8103139" lon="-118.3938761">
  <ele>-22.543</ele>
  <time>2026-09-02T22:07:43Z</time>
  <course>187.53</course>
  <speed>0.03605551275463989</speed>
  <fix>3d</fix>
</trkpt>
<trkpt lat="33.8103137" lon="-118.393876">
  <ele>-21.68</ele>
  <time>2026-09-02T22:07:43Z</time>
  <course>276.23</course>
  <speed>0.01</speed>
  <fix>3d</fix>
</trkpt>
<trkpt lat="33.8103139" lon="-118.3938761">
  <ele>-22.578</ele>
  <time>2026-09-02T22:07:43Z</time>
  <course>187.53</course>
  <speed>0.03605551275463989</speed>
  <fix>3d</fix>
</trkpt>
<trkpt lat="33.8103139" lon="-118.3938761">
  <ele>-22.641</ele>
  <time>2026-09-02T22:07:43Z</time>
  <course>187.53</course>
  <speed>0.03605551275463989</speed>
  <fix>3d</fix>
</trkpt>
<trkpt lat="33.8103137" lon="-118.393876">
  <ele>-21.87</ele>
  <time>2026-09-02T22:07:43Z</time>
  <course>276.23</course>
  <speed>0.01</speed>
  <fix>3d</fix>
</trkpt>
<trkpt lat="33.8103139" lon="-118.3938761">
  <ele>-22.675</ele>
  <time>2026-09-02T22:07:43Z</time>
  <course>187.54</course>
  <speed>0.03605551275463989</speed>
  <fix>3d</fix>
</trkpt>
<trkpt lat="33.8103139" lon="-118.3938761">
  <ele>-22.739</ele>
  <time>2026-09-02T22:07:43Z</time>
  <course>187.54</course>
  <speed>0.03605551275463989</speed>
  <fix>3d</fix>
</trkpt>
<trkpt lat="33.8103137" lon="-118.393876">
  <ele>-21.87</ele>
  <time>2026-09-02T22:07:43Z</time>
  <course>276.23</course>
  <speed>0.01</speed>
  <fix>3d</fix>
</trkpt>
<trkpt lat="33.8103139" lon="-118.3938762">
  <ele>-22.771</ele>
  <time>2026-09-02T22:07:43Z</time>
  <course>187.54</course>
  <speed>0.03605551275463989</speed>
  <fix>3d</fix>
</trkpt>
<trkpt lat="33.8103139" lon="-118.3938762">
  <ele>-22.837</ele>
  <time>2026-09-02T22:07:43Z</time>
  <course>187.55</course>
  <speed>0.03605551275463989</speed>
  <fix>3d</fix>
</trkpt>
<trkpt lat="33.8103137" lon="-118.393876">
  <ele>-22.07</ele>
  <time>2026-09-02T22:07:43Z</time>
  <course>276.23</course>
  <speed>0.01</speed>
  <fix>3d</fix>
</trkpt>
<trkpt lat="33.8103139" lon="-118.3938762">
  <ele>-22.879</ele>
  <time>2026-09-02T22:07:43Z</time>
  <course>187.55</course>
  <speed>0.03605551275463989</speed>
  <fix>3d</fix>
</trkpt>
<trkpt lat="33.8103139" lon="-118.3938762">
  <ele>-22.935</ele>
  <time>2026-09-02T22:07:43Z</time>
  <course>187.55</course>
  <speed>0.03605551275463989</speed>
  <fix>3d</fix>
</trkpt>
<trkpt lat="33.8103137" lon="-118.393876">
  <ele>-22.07</ele>
  <time>2026-09-02T22:07:43Z</time>
  <course>276.23</course>
  <speed>0.01</speed>
  <fix>3d</fix>
</trkpt>
<trkpt lat="33.8103139" lon="-118.3938762">
  <ele>-22.938</ele>
  <time>2026-09-02T22:07:43Z</time>
  <course>187.55</course>
  <speed>0.03605551275463989</speed>
  <fix>3d</fix>
</trkpt>
<trkpt lat="33.8103139" lon="-118.3938762">
  <ele>-23.032</ele>
  <time>2026-09-02T22:07:43Z</time>
  <course>187.56</course>
  <speed>0.03605551275463989</speed>
  <fix>3d</fix>
</trkpt>
<trkpt lat="33.8103137" lon="-118.393876">
  <ele>-22.26</ele>
  <time>2026-09-02T22:07:43Z</time>
  <course>276.22</course>
  <speed>0.01</speed>
  <fix>3d</fix>
</trkpt>
<trkpt lat="33.8103139" lon="-118.3938762">
  <ele>-23.035</ele>
  <time>2026-09-02T22:07:43Z</time>
  <course>187.56</course>
  <speed>0.03605551275463989</speed>
  <fix>3d</fix>
</trkpt>
<trkpt lat="33.8103139" lon="-118.3938762">
  <ele>-23.13</ele>
  <time>2026-09-02T22:07:43Z</time>
  <course>187.57</course>
  <speed>0.03605551275463989</speed>
  <fix>3d</fix>
</trkpt>
<trkpt lat="33.8103137" lon="-118.393876">
  <ele>-22.26</ele>
  <time>2026-09-02T22:07:43Z</time>
  <course>276.22</course>
  <speed>0.01</speed>
  <fix>3d</fix>
</trkpt>
<trkpt lat="33.8103139" lon="-118.3938762">
  <ele>-23.132</ele>
  <time>2026-09-02T22:07:43Z</time>
  <course>187.57</course>
  <speed>0.03605551275463989</speed>
  <fix>3d</fix>
</trkpt>
<trkpt lat="33.8103139" lon="-118.3938762">
  <ele>-23.227</ele>
  <time>2026-09-02T22:07:43Z</time>
  <course>187.57</course>
  <speed>0.03605551275463989</speed>
  <fix>3d</fix>
</trkpt>
<trkpt lat="33.8103137" lon="-118.3938761">
  <ele>-22.45</ele>
  <time>2026-09-02T22:07:43Z</time>
  <course>276.22</course>
  <speed>0.01</speed>
  <fix>3d</fix>
</trkpt>
<trkpt lat="33.8103139" lon="-118.3938762">
  <ele>-23.259</ele>
  <time>2026-09-02T22:07:43Z</time>
  <course>187.57</course>
  <speed>0.03605551275463989</speed>
  <fix>3d</fix>
</trkpt>
<trkpt lat="33.8103139" lon="-118.3938762">
  <ele>-23.325</ele>
  <time>2026-09-02T22:07:43Z</time>
  <course>187.58</course>
  <speed>0.03605551275463989</speed>
  <fix>3d</fix>
</trkpt>
<trkpt lat="33.8103137" lon="-118.3938761">
  <ele>-22.45</ele>
  <time>2026-09-02T22:07:43Z</time>
  <course>276.22</course>
  <speed>0.01</speed>
  <fix>3d</fix>
</trkpt>
<trkpt lat="33.8103139" lon="-118.3938762">
  <ele>-23.357</ele>
  <time>2026-09-02T22:07:43Z</time>
  <course>187.58</course>
  <speed>0.03605551275463989</speed>
  <fix>3d</fix>
</trkpt>
<trkpt lat="33.8103139" lon="-118.3938762">
  <ele>-23.424</ele>
  <time>2026-09-02T22:07:43Z</time>
  <course>187.58</course>
  <speed>0.03605551275463989</speed>
  <fix>3d</fix>
</trkpt>
<trkpt lat="33.8103137" lon="-118.3938761">
  <ele>-22.64</ele>
  <time>2026-09-02T22:07:43Z</time>
  <course>276.22</course>
  <speed>0.01</speed>
  <fix>3d</fix>
</trkpt>
<trkpt lat="33.8103139" lon="-118.3938762">
  <ele>-23.458</ele>
  <time>2026-09-02T22:07:43Z</time>
  <course>187.59</course>
  <speed>0.03605551275463989</speed>
  <fix>3d</fix>
</trkpt>
<trkpt lat="33.8103139" lon="-118.3938763">
  <ele>-23.522</ele>
  <time>2026-09-02T22:07:43Z</time>
  <course>187.59</course>
  <speed>0.03605551275463989</speed>
  <fix>3d</fix>
</trkpt>
<trkpt lat="33.8103137" lon="-118.3938761">
  <ele>-22.64</ele>
  <time>2026-09-02T22:07:43Z</time>
  <course>276.22</course>
  <speed>0.01</speed>
  <fix>3d</fix>
</trkpt>
<trkpt lat="33.8103139" lon="-118.3938763">
  <ele>-23.553</ele>
  <time>2026-09-02T22:07:43Z</time>
  <course>187.59</course>
  <speed>0.03605551275463989</speed>
  <fix>3d</fix>
</trkpt>
<trkpt lat="33.8103139" lon="-118.3938763">
  <ele>-23.619</ele>
  <time>2026-09-02T22:07:43Z</time>
  <course>187.6</course>
  <speed>0.03605551275463989</speed>
  <fix>3d</fix>
</trkpt>
<trkpt lat="33.8103137" lon="-118.3938761">
  <ele>-22.83</ele>
  <time>2026-09-02T22:07:43Z</time>
  <course>276.22</course>
  <speed>0.01</speed>
  <fix>3d</fix>
</trkpt>
<trkpt lat="33.8103139" lon="-118.3938763">
  <ele>-23.649</ele>
  <time>2026-09-02T22:07:43Z</time>
  <course>187.6</course>
  <speed>0.0282842712474619</speed>
  <fix>3d</fix>
</trkpt>
<trkpt lat="33.8103139" lon="-118.3938763">
  <ele>-23.717</ele>
  <time>2026-09-02T22:07:43Z</time>
  <course>187.6</course>
  <speed>0.0282842712474619</speed>
  <fix>3d</fix>
</trkpt>
<trkpt lat="33.8103137" lon="-118.3938761">
  <ele>-22.83</ele>
  <time>2026-09-02T22:07:43Z</time>
  <course>276.22</course>
  <speed>0.01</speed>
  <fix>3d</fix>
</trkpt>
<trkpt lat="33.8103139" lon="-118.3938763">
  <ele>-23.751</ele>
  <time>2026-09-02T22:07:43Z</time>
  <course>187.61</course>
  <speed>0.0282842712474619</speed>
  <fix>3d</fix>
</trkpt>
<trkpt lat="33.8103139" lon="-118.3938763">
  <ele>-23.815</ele>
  <time>2026-09-02T22:07:43Z</time>
  <course>187.61</course>
  <speed>0.0282842712474619</speed>
  <fix>3d</fix>
</trkpt>
<trkpt lat="33.8103137" lon="-118.3938761">
  <ele>-23.02</ele>
  <time>2026-09-02T22:07:43Z</time>
  <course>276.22</course>
  <speed>0.01</speed>
  <fix>3d</fix>
</trkpt>
<trkpt lat="33.8103139" lon="-118.3938763">
  <ele>-23.846</ele>
  <time>2026-09-02T22:07:43Z</time>
  <course>187.61</course>
  <speed>0.0282842712474619</speed>
  <fix>3d</fix>
</trkpt>
<trkpt lat="33.8103139" lon="-118.3938763">
  <ele>-23.913</ele>
  <time>2026-09-02T22:07:43Z</time>
  <course>187.62</course>
  <speed>0.0282842712474619</speed>
  <fix>3d</fix>
</trkpt>
<trkpt lat="33.8103137" lon="-118.3938761">
  <ele>-23.02</ele>
  <time>2026-09-02T22:07:43Z</time>
  <course>276.22</course>
  <speed>0.01</speed>
  <fix>3d</fix>
</trkpt>
<trkpt lat="33.8103139" lon="-118.3938763">
  <ele>-23.944</ele>
  <time>2026-09-02T22:07:43Z</time>
  <course>187.62</course>
  <speed>0.0282842712474619</speed>
  <fix>3d</fix>
</trkpt>
<trkpt lat="33.8103139" lon="-118.3938763">
  <ele>-24.011</ele>
  <time>2026-09-02T22:07:43Z</time>
  <course>187.62</course>
  <speed>0.0282842712474619</speed>
  <fix>3d</fix>
</trkpt>
<trkpt lat="33.8103137" lon="-118.3938762">
  <ele>-23.21</ele>
  <time>2026-09-02T22:07:43Z</time>
  <course>276.22</course>
  <speed>0.01</speed>
  <fix>3d</fix>
</trkpt>
<trkpt lat="33.8103139" lon="-118.3938763">
  <ele>-24.047</ele>
  <time>2026-09-02T22:07:43Z</time>
  <course>187.63</course>
  <speed>0.0282842712474619</speed>
  <fix>3d</fix>
</trkpt>
<trkpt lat="33.8103139" lon="-118.3938763">
  <ele>-24.108</ele>
  <time>2026-09-02T22:07:43Z</time>
  <course>187.63</course>
  <speed>0.0282842712474619</speed>
  <fix>3d</fix>
</trkpt>
<trkpt lat="33.8103137" lon="-118.3938762">
  <ele>-23.21</ele>
  <time>2026-09-02T22:07:43Z</time>
  <course>276.22</course>
  <speed>0.01</speed>
  <fix>3d</fix>
</trkpt>
<trkpt lat="33.8103139" lon="-118.3938763">
  <ele>-24.139</ele>
  <time>2026-09-02T22:07:43Z</time>
  <course>187.63</course>
  <speed>0.0282842712474619</speed>
  <fix>3d</fix>
</trkpt>
<trkpt lat="33.8103139" lon="-118.3938763">
  <ele>-24.206</ele>
  <time>2026-09-02T22:07:43Z</time>
  <course>187.63</course>
  <speed>0.0282842712474619</speed>
  <fix>3d</fix>
</trkpt>
<trkpt lat="33.8103137" lon="-118.3938762">
  <ele>-23.4</ele>
  <time>2026-09-02T22:07:43Z</time>
  <course>276.22</course>
  <speed>0.01</speed>
  <fix>3d</fix>
</trkpt>
<trkpt lat="33.8103139" lon="-118.3938763">
  <ele>-24.211</ele>
  <time>2026-09-02T22:07:43Z</time>
  <course>187.64</course>
  <speed>0.0282842712474619</speed>
  <fix>3d</fix>
</trkpt>
<trkpt lat="33.8103139" lon="-118.3938763">
  <ele>-24.303</ele>
  <time>2026-09-02T22:07:43Z</time>
  <course>187.64</course>
  <speed>0.0282842712474619</speed>
  <fix>3d</fix>
</trkpt>
<trkpt lat="33.8103137" lon="-118.3938762">
  <ele>-23.4</ele>
  <time>2026-09-02T22:07:43Z</time>
  <course>276.22</course>
  <speed>0.01</speed>
  <fix>3d</fix>
</trkpt>
<trkpt lat="33.8103139" lon="-118.3938763">
  <ele>-24.306</ele>
  <time>2026-09-02T22:07:43Z</time>
  <course>187.64</course>
  <speed>0.0282842712474619</speed>
  <fix>3d</fix>
</trkpt>
<trkpt lat="33.8103139" lon="-118.3938764">
  <ele>-24.401</ele>
  <time>2026-09-02T22:07:43Z</time>
  <course>187.65</course>
  <speed>0.0282842712474619</speed>
  <fix>3d</fix>
</trkpt>
<trkpt lat="33.8103137" lon="-118.3938762">
  <ele>-23.59</ele>
  <time>2026-09-02T22:07:43Z</time>
  <course>276.21</course>
  <speed>0.01</speed>
  <fix>3d</fix>
</trkpt>
<trkpt lat="33.8103139" lon="-118.3938764">
  <ele>-24.435</ele>
  <time>2026-09-02T22:07:43Z</time>
  <course>187.65</course>
  <speed>0.0282842712474619</speed>
  <fix>3d</fix>
</trkpt>
<trkpt lat="33.8103139" lon="-118.3938764">
  <ele>-24.499</ele>
  <time>2026-09-02T22:07:43Z</time>
  <course>187.65</course>
  <speed>0.0282842712474619</speed>
  <fix>3d</fix>
</trkpt>
<trkpt lat="33.8103137" lon="-118.3938762">
  <ele>-23.59</ele>
  <time>2026-09-02T22:07:43Z</time>
  <course>276.21</course>
  <speed>0.01</speed>
  <fix>3d</fix>
</trkpt>
<trkpt lat="33.8103139" lon="-118.3938764">
  <ele>-24.531</ele>
  <time>2026-09-02T22:07:43Z</time>
  <course>187.66</course>
  <speed>0.0282842712474619</speed>
  <fix>3d</fix>
</trkpt>
<trkpt lat="33.8103139" lon="-118.3938764">
  <ele>-24.597</ele>
  <time>2026-09-02T22:07:43Z</time>
  <course>187.66</course>
  <speed>0.0282842712474619</speed>
  <fix>3d</fix>
</trkpt>
<trkpt lat="33.8103137" lon="-118.3938762">
  <ele>-23.79</ele>
  <time>2026-09-02T22:07:43Z</time>
  <course>276.21</course>
  <speed>0.01</speed>
  <fix>3d</fix>
</trkpt>
<trkpt lat="33.8103139" lon="-118.3938764">
  <ele>-24.634</ele>
  <time>2026-09-02T22:07:43Z</time>
  <course>187.66</course>
  <speed>0.0282842712474619</speed>
  <fix>3d</fix>
</trkpt>
<trkpt lat="33.8103139" lon="-118.3938764">
  <ele>-24.695</ele>
  <time>2026-09-02T22:07:43Z</time>
  <course>187.67</course>
  <speed>0.0282842712474619</speed>
  <fix>3d</fix>
</trkpt>
<trkpt lat="33.8103137" lon="-118.3938762">
  <ele>-23.79</ele>
  <time>2026-09-02T22:07:43Z</time>
  <course>276.21</course>
  <speed>0.01</speed>
  <fix>3d</fix>
</trkpt>
<trkpt lat="33.8103139" lon="-118.3938764">
  <ele>-24.724</ele>
  <time>2026-09-02T22:07:43Z</time>
  <course>187.67</course>
  <speed>0.0282842712474619</speed>
  <fix>3d</fix>
</trkpt>
<trkpt lat="33.8103139" lon="-118.3938764">
  <ele>-24.793</ele>
  <time>2026-09-02T22:07:43Z</time>
  <course>187.67</course>
  <speed>0.0282842712474619</speed>
  <fix>3d</fix>
</trkpt>
<trkpt lat="33.8103137" lon="-118.3938762">
  <ele>-23.98</ele>
  <time>2026-09-02T22:07:43Z</time>
  <course>276.21</course>
  <speed>0.01</speed>
  <fix>3d</fix>
</trkpt>
<trkpt lat="33.8103139" lon="-118.3938764">
  <ele>-24.824</ele>
  <time>2026-09-02T22:07:43Z</time>
  <course>187.67</course>
  <speed>0.0282842712474619</speed>
  <fix>3d</fix>
</trkpt>
<trkpt lat="33.8103139" lon="-118.3938764">
  <ele>-24.89</ele>
  <time>2026-09-02T22:07:43Z</time>
  <course>187.68</course>
  <speed>0.0282842712474619</speed>
  <fix>3d</fix>
</trkpt>
<trkpt lat="33.8103137" lon="-118.3938762">
  <ele>-23.98</ele>
  <time>2026-09-02T22:07:43Z</time>
  <course>276.21</course>
  <speed>0.01</speed>
  <fix>3d</fix>
</trkpt>
<trkpt lat="33.8103139" lon="-118.3938764">
  <ele>-24.924</ele>
  <time>2026-09-02T22:07:43Z</time>
  <course>187.68</course>
  <speed>0.0282842712474619</speed>
  <fix>3d</fix>
</trkpt>
<trkpt lat="33.8103139" lon="-118.3938764">
  <ele>-24.988</ele>
  <time>2026-09-02T22:07:43Z</time>
  <course>187.68</course>
  <speed>0.0282842712474619</speed>
  <fix>3d</fix>
</trkpt>
<trkpt lat="33.8103137" lon="-118.3938762">
  <ele>-24.17</ele>
  <time>2026-09-02T22:07:43Z</time>
  <course>276.2</course>
  <speed>0.01</speed>
  <fix>3d</fix>
</trkpt>
<trkpt lat="33.8103139" lon="-118.3938764">
  <ele>-25.022</ele>
  <time>2026-09-02T22:07:43Z</time>
  <course>187.69</course>
  <speed>0.0282842712474619</speed>
  <fix>3d</fix>
</trkpt>
<trkpt lat="33.8103139" lon="-118.3938764">
  <ele>-25.087</ele>
  <time>2026-09-02T22:07:43Z</time>
  <course>187.69</course>
  <speed>0.0282842712474619</speed>
  <fix>3d</fix>
</trkpt>
<trkpt lat="33.8103137" lon="-118.3938762">
  <ele>-24.17</ele>
  <time>2026-09-02T22:07:43Z</time>
  <course>276.2</course>
  <speed>0.01</speed>
  <fix>3d</fix>
</trkpt>
<trkpt lat="33.8103139" lon="-118.3938764">
  <ele>-25.181</ele>
  <time>2026-09-02T22:07:43Z</time>
  <course>187.7</course>
  <speed>0.0282842712474619</speed>
  <fix>3d</fix>
</trkpt>
<trkpt lat="33.8103137" lon="-118.3938763">
  <ele>-24.36</ele>
  <time>2026-09-02T22:07:43Z</time>
  <course>276.2</course>
  <speed>0.01</speed>
  <fix>3d</fix>
</trkpt>
<trkpt lat="33.8103139" lon="-118.3938764">
  <ele>-25.266</ele>
  <time>2026-09-02T22:07:43Z</time>
  <course>187.7</course>
  <speed>0.0282842712474619</speed>
  <fix>3d</fix>
</trkpt>
<trkpt lat="33.8103137" lon="-118.3938763">
  <ele>-24.36</ele>
  <time>2026-09-02T22:07:43Z</time>
  <course>276.2</course>
  <speed>0.01</speed>
  <fix>3d</fix>
</trkpt>
<trkpt lat="33.8103139" lon="-118.3938765">
  <ele>-25.334</ele>
  <time>2026-09-02T22:07:43Z</time>
  <course>187.71</course>
  <speed>0.0282842712474619</speed>
  <fix>3d</fix>
</trkpt>
<trkpt lat="33.8103137" lon="-118.3938764">
  <ele>-24.54</ele>
  <time>2026-09-02T22:07:43Z</time>
  <course>276.14</course>
  <speed>0.01</speed>
  <fix>3d</fix>
</trkpt>
<trkpt lat="33.8103139" lon="-118.3938765">
  <ele>-25.385</ele>
  <time>2026-09-02T22:07:43Z</time>
  <course>187.71</course>
  <speed>0.0282842712474619</speed>
  <fix>3d</fix>
</trkpt>
<trkpt lat="33.8103137" lon="-118.3938764">
  <ele>-24.54</ele>
  <time>2026-09-02T22:07:43Z</time>
  <course>276.14</course>
  <speed>0.01</speed>
  <fix>3d</fix>
</trkpt>
<trkpt lat="33.8103139" lon="-118.3938765">
  <ele>-25.418</ele>
  <time>2026-09-02T22:07:43Z</time>
  <course>187.72</course>
  <speed>0.0282842712474619</speed>
  <fix>3d</fix>
</trkpt>
<trkpt lat="33.8103137" lon="-118.3938764">
  <ele>-24.67</ele>
  <time>2026-09-02T22:07:43Z</time>
  <course>275.97</course>
  <speed>0.01</speed>
  <fix>3d</fix>
</trkpt>
<trkpt lat="33.8103139" lon="-118.3938765">
  <ele>-25.432</ele>
  <time>2026-09-02T22:07:43Z</time>
  <course>187.73</course>
  <speed>0.0282842712474619</speed>
  <fix>3d</fix>
</trkpt>
<trkpt lat="33.8103137" lon="-118.3938764">
  <ele>-24.67</ele>
  <time>2026-09-02T22:07:43Z</time>
  <course>275.97</course>
  <speed>0.01</speed>
  <fix>3d</fix>
</trkpt>
<trkpt lat="33.8103139" lon="-118.3938765">
  <ele>-25.426</ele>
  <time>2026-09-02T22:07:43Z</time>
  <course>187.73</course>
  <speed>0.0282842712474619</speed>
  <fix>3d</fix>
</trkpt>
<trkpt lat="33.8103137" lon="-118.3938764">
  <ele>-24.75</ele>
  <time>2026-09-02T22:07:43Z</time>
  <course>275.73</course>
  <speed>0.0</speed>
  <fix>3d</fix>
</trkpt>
<trkpt lat="33.8103139" lon="-118.3938765">
  <ele>-25.403</ele>
  <time>2026-09-02T22:07:43Z</time>
  <course>187.74</course>
  <speed>0.03605551275463989</speed>
  <fix>3d</fix>
</trkpt>
<trkpt lat="33.8103137" lon="-118.3938764">
  <ele>-24.75</ele>
  <time>2026-09-02T22:07:43Z</time>
  <course>275.73</course>
  <speed>0.0</speed>
  <fix>3d</fix>
</trkpt>
<trkpt lat="33.8103139" lon="-118.3938765">
  <ele>-25.367</ele>
  <time>2026-09-02T22:07:43Z</time>
  <course>187.74</course>
  <speed>0.03605551275463989</speed>
  <fix>3d</fix>
</trkpt>
<trkpt lat="33.8103137" lon="-118.3938764">
  <ele>-24.75</ele>
  <time>2026-09-02T22:07:43Z</time>
  <course>275.43</course>
  <speed>0.0</speed>
  <fix>3d</fix>
</trkpt>
<trkpt lat="33.8103139" lon="-118.3938765">
  <ele>-25.321</ele>
  <time>2026-09-02T22:07:43Z</time>
  <course>187.75</course>
  <speed>0.03605551275463989</speed>
  <fix>3d</fix>
</trkpt>
<trkpt lat="33.8103137" lon="-118.3938764">
  <ele>-24.75</ele>
  <time>2026-09-02T22:07:43Z</time>
  <course>275.43</course>
  <speed>0.0</speed>
  <fix>3d</fix>
</trkpt>
<trkpt lat="33.8103139" lon="-118.3938766">
  <ele>-25.266</ele>
  <time>2026-09-02T22:07:43Z</time>
  <course>187.76</course>
  <speed>0.03605551275463989</speed>
  <fix>3d</fix>
</trkpt>
<trkpt lat="33.8103137" lon="-118.3938765">
  <ele>-24.69</ele>
  <time>2026-09-02T22:07:43Z</time>
  <course>275.1</course>
  <speed>0.0</speed>
  <fix>3d</fix>
</trkpt>
<trkpt lat="33.8103139" lon="-118.3938766">
  <ele>-25.206</ele>
  <time>2026-09-02T22:07:43Z</time>
  <course>187.76</course>
  <speed>0.03605551275463989</speed>
  <fix>3d</fix>
</trkpt>
<trkpt lat="33.8103137" lon="-118.3938765">
  <ele>-24.69</ele>
  <time>2026-09-02T22:07:43Z</time>
  <course>275.1</course>
  <speed>0.0</speed>
  <fix>3d</fix>
</trkpt>
<trkpt lat="33.8103139" lon="-118.3938766">
  <ele>-25.142</ele>
  <time>2026-09-02T22:07:43Z</time>
  <course>187.77</course>
  <speed>0.0282842712474619</speed>
  <fix>3d</fix>
</trkpt>
<trkpt lat="33.8103137" lon="-118.3938765">
  <ele>-24.61</ele>
  <time>2026-09-02T22:07:43Z</time>
  <course>274.87</course>
  <speed>0.0</speed>
  <fix>3d</fix>
</trkpt>
<trkpt lat="33.8103139" lon="-118.3938766">
  <ele>-25.076</ele>
  <time>2026-09-02T22:07:43Z</time>
  <course>187.78</course>
  <speed>0.0282842712474619</speed>
  <fix>3d</fix>
</trkpt>
<trkpt lat="33.8103137" lon="-118.3938765">
  <ele>-24.61</ele>
  <time>2026-09-02T22:07:43Z</time>
  <course>274.87</course>
  <speed>0.0</speed>
  <fix>3d</fix>
</trkpt>
<trkpt lat="33.8103139" lon="-118.3938766">
  <ele>-25.009</ele>
  <time>2026-09-02T22:07:43Z</time>
  <course>187.78</course>
  <speed>0.0282842712474619</speed>
  <fix>3d</fix>
</trkpt>
<trkpt lat="33.8103137" lon="-118.3938765">
  <ele>-24.5</ele>
  <time>2026-09-02T22:07:43Z</time>
  <course>274.75</course>
  <speed>0.0</speed>
  <fix>3d</fix>
</trkpt>
<trkpt lat="33.8103139" lon="-118.3938766">
  <ele>-24.943</ele>
  <time>2026-09-02T22:07:43Z</time>
  <course>187.79</course>
  <speed>0.0282842712474619</speed>
  <fix>3d</fix>
</trkpt>
<trkpt lat="33.8103137" lon="-118.3938765">
  <ele>-24.5</ele>
  <time>2026-09-02T22:07:43Z</time>
  <course>274.75</course>
  <speed>0.0</speed>
  <fix>3d</fix>
</trkpt>
<trkpt lat="33.8103139" lon="-118.3938766">
  <ele>-24.88</ele>
  <time>2026-09-02T22:07:43Z</time>
  <course>187.79</course>
  <speed>0.0282842712474619</speed>
  <fix>3d</fix>
</trkpt>
<trkpt lat="33.8103137" lon="-118.3938765">
  <ele>-24.38</ele>
  <time>2026-09-02T22:07:43Z</time>
  <course>274.72</course>
  <speed>0.0</speed>
  <fix>3d</fix>
</trkpt>
<trkpt lat="33.8103139" lon="-118.3938766">
  <ele>-24.819</ele>
  <time>2026-09-02T22:07:44Z</time>
  <course>187.8</course>
  <speed>0.0282842712474619</speed>
  <fix>3d</fix>
</trkpt>
<trkpt lat="33.8103137" lon="-118.3938765">
  <ele>-24.38</ele>
  <time>2026-09-02T22:07:44Z</time>
  <course>274.72</course>
  <speed>0.0</speed>
  <fix>3d</fix>
</trkpt>
<trkpt lat="33.8103139" lon="-118.3938766">
  <ele>-24.764</ele>
  <time>2026-09-02T22:07:44Z</time>
  <course>187.81</course>
  <speed>0.0282842712474619</speed>
  <fix>3d</fix>
</trkpt>
<trkpt lat="33.8103137" lon="-118.3938765">
  <ele>-24.27</ele>
  <time>2026-09-02T22:07:44Z</time>
  <course>274.79</course>
  <speed>0.0</speed>
  <fix>3d</fix>
</trkpt>
<trkpt lat="33.8103139" lon="-118.3938766">
  <ele>-24.713</ele>
  <time>2026-09-02T22:07:44Z</time>
  <course>187.81</course>
  <speed>0.0282842712474619</speed>
  <fix>3d</fix>
</trkpt>
<trkpt lat="33.8103137" lon="-118.3938765">
  <ele>-24.27</ele>
  <time>2026-09-02T22:07:44Z</time>
  <course>274.79</course>
  <speed>0.0</speed>
  <fix>3d</fix>
</trkpt>
<trkpt lat="33.8103139" lon="-118.3938766">
  <ele>-24.67</ele>
  <time>2026-09-02T22:07:44Z</time>
  <course>187.82</course>
  <speed>0.0282842712474619</speed>
  <fix>3d</fix>
</trkpt>
<trkpt lat="33.8103137" lon="-118.3938765">
  <ele>-24.18</ele>
  <time>2026-09-02T22:07:44Z</time>
  <course>274.92</course>
  <speed>0.0</speed>
  <fix>3d</fix>
</trkpt>
<trkpt lat="33.8103139" lon="-118.3938767">
  <ele>-24.633</ele>
  <time>2026-09-02T22:07:44Z</time>
  <course>187.83</course>
  <speed>0.0282842712474619</speed>
  <fix>3d</fix>
</trkpt>
<trkpt lat="33.8103137" lon="-118.3938765">
  <ele>-24.18</ele>
  <time>2026-09-02T22:07:44Z</time>
  <course>274.92</course>
  <speed>0.0</speed>
  <fix>3d</fix>
</trkpt>
<trkpt lat="33.8103139" lon="-118.3938767">
  <ele>-24.603</ele>
  <time>2026-09-02T22:07:44Z</time>
  <course>187.83</course>
  <speed>0.0282842712474619</speed>
  <fix>3d</fix>
</trkpt>
<trkpt lat="33.8103137" lon="-118.3938765">
  <ele>-24.1</ele>
  <time>2026-09-02T22:07:44Z</time>
  <course>275.08</course>
  <speed>0.0</speed>
  <fix>3d</fix>
</trkpt>
<trkpt lat="33.8103139" lon="-118.3938767">
  <ele>-24.579</ele>
  <time>2026-09-02T22:07:44Z</time>
  <course>187.84</course>
  <speed>0.0282842712474619</speed>
  <fix>3d</fix>
</trkpt>
<trkpt lat="33.8103137" lon="-118.3938765">
  <ele>-24.1</ele>
  <time>2026-09-02T22:07:44Z</time>
  <course>275.08</course>
  <speed>0.0</speed>
  <fix>3d</fix>
</trkpt>
<trkpt lat="33.8103139" lon="-118.3938767">
  <ele>-24.564</ele>
  <time>2026-09-02T22:07:44Z</time>
  <course>187.84</course>
  <speed>0.0282842712474619</speed>
  <fix>3d</fix>
</trkpt>
<trkpt lat="33.8103137" lon="-118.3938766">
  <ele>-24.04</ele>
  <time>2026-09-02T22:07:44Z</time>
  <course>275.2</course>
  <speed>0.0</speed>
  <fix>3d</fix>
</trkpt>
<trkpt lat="33.8103139" lon="-118.3938767">
  <ele>-24.557</ele>
  <time>2026-09-02T22:07:44Z</time>
  <course>187.85</course>
  <speed>0.0282842712474619</speed>
  <fix>3d</fix>
</trkpt>
<trkpt lat="33.8103137" lon="-118.3938766">
  <ele>-24.04</ele>
  <time>2026-09-02T22:07:44Z</time>
  <course>275.2</course>
  <speed>0.0</speed>
  <fix>3d</fix>
</trkpt>
<trkpt lat="33.8103139" lon="-118.3938767">
  <ele>-24.557</ele>
  <time>2026-09-02T22:07:44Z</time>
  <course>187.86</course>
  <speed>0.0282842712474619</speed>
  <fix>3d</fix>
</trkpt>
<trkpt lat="33.8103137" lon="-118.3938766">
  <ele>-24.01</ele>
  <time>2026-09-02T22:07:44Z</time>
  <course>275.29</course>
  <speed>0.0</speed>
  <fix>3d</fix>
</trkpt>
<trkpt lat="33.8103139" lon="-118.3938767">
  <ele>-24.562</ele>
  <time>2026-09-02T22:07:44Z</time>
  <course>187.86</course>
  <speed>0.0282842712474619</speed>
  <fix>3d</fix>
</trkpt>
<trkpt lat="33.8103137" lon="-118.3938766">
  <ele>-24.01</ele>
  <time>2026-09-02T22:07:44Z</time>
  <course>275.29</course>
  <speed>0.0</speed>
  <fix>3d</fix>
</trkpt>
<trkpt lat="33.8103139" lon="-118.3938767">
  <ele>-24.573</ele>
  <time>2026-09-02T22:07:44Z</time>
  <course>187.87</course>
  <speed>0.0282842712474619</speed>
  <fix>3d</fix>
</trkpt>
<trkpt lat="33.8103137" lon="-118.3938766">
  <ele>-24.01</ele>
  <time>2026-09-02T22:07:44Z</time>
  <course>275.39</course>
  <speed>0.0</speed>
  <fix>3d</fix>
</trkpt>
<trkpt lat="33.8103139" lon="-118.3938767">
  <ele>-24.589</ele>
  <time>2026-09-02T22:07:44Z</time>
  <course>187.87</course>
  <speed>0.0282842712474619</speed>
  <fix>3d</fix>
</trkpt>
<trkpt lat="33.8103137" lon="-118.3938766">
  <ele>-24.01</ele>
  <time>2026-09-02T22:07:44Z</time>
  <course>275.39</course>
  <speed>0.0</speed>
  <fix>3d</fix>
</trkpt>
<trkpt lat="33.8103139" lon="-118.3938767">
  <ele>-24.608</ele>
  <time>2026-09-02T22:07:44Z</time>
  <course>187.88</course>
  <speed>0.0282842712474619</speed>
  <fix>3d</fix>
</trkpt>
<trkpt lat="33.8103137" lon="-118.3938766">
  <ele>-24.02</ele>
  <time>2026-09-02T22:07:44Z</time>
  <course>275.47</course>
  <speed>0.0</speed>
  <fix>3d</fix>
</trkpt>
<trkpt lat="33.8103139" lon="-118.3938767">
  <ele>-24.629</ele>
  <time>2026-09-02T22:07:44Z</time>
  <course>187.88</course>
  <speed>0.0282842712474619</speed>
  <fix>3d</fix>
</trkpt>
<trkpt lat="33.8103137" lon="-118.3938766">
  <ele>-24.02</ele>
  <time>2026-09-02T22:07:44Z</time>
  <course>275.47</course>
  <speed>0.0</speed>
  <fix>3d</fix>
</trkpt>
<trkpt lat="33.8103139" lon="-118.3938767">
  <ele>-24.651</ele>
  <time>2026-09-02T22:07:44Z</time>
  <course>187.89</course>
  <speed>0.0282842712474619</speed>
  <fix>3d</fix>
</trkpt>
<trkpt lat="33.8103137" lon="-118.3938766">
  <ele>-24.04</ele>
  <time>2026-09-02T22:07:44Z</time>
  <course>275.52</course>
  <speed>0.0</speed>
  <fix>3d</fix>
</trkpt>
<trkpt lat="33.8103139" lon="-118.3938767">
  <ele>-24.675</ele>
  <time>2026-09-02T22:07:44Z</time>
  <course>187.9</course>
  <speed>0.0282842712474619</speed>
  <fix>3d</fix>
</trkpt>
<trkpt lat="33.8103137" lon="-118.3938766">
  <ele>-24.04</ele>
  <time>2026-09-02T22:07:44Z</time>
  <course>275.52</course>
  <speed>0.0</speed>
  <fix>3d</fix>
</trkpt>
<trkpt lat="33.8103139" lon="-118.3938767">
  <ele>-24.699</ele>
  <time>2026-09-02T22:07:44Z</time>
  <course>187.9</course>
  <speed>0.0282842712474619</speed>
  <fix>3d</fix>
</trkpt>
<trkpt lat="33.8103137" lon="-118.3938766">
  <ele>-24.08</ele>
  <time>2026-09-02T22:07:44Z</time>
  <course>275.54</course>
  <speed>0.0</speed>
  <fix>3d</fix>
</trkpt>
<trkpt lat="33.8103139" lon="-118.3938768">
  <ele>-24.722</ele>
  <time>2026-09-02T22:07:44Z</time>
  <course>187.91</course>
  <speed>0.0282842712474619</speed>
  <fix>3d</fix>
</trkpt>
<trkpt lat="33.8103137" lon="-118.3938766">
  <ele>-24.08</ele>
  <time>2026-09-02T22:07:44Z</time>
  <course>275.54</course>
  <speed>0.0</speed>
  <fix>3d</fix>
</trkpt>
<trkpt lat="33.8103139" lon="-118.3938768">
  <ele>-24.744</ele>
  <time>2026-09-02T22:07:44Z</time>
  <course>187.91</course>
  <speed>0.0282842712474619</speed>
  <fix>3d</fix>
</trkpt>
<trkpt lat="33.8103137" lon="-118.3938767">
  <ele>-24.11</ele>
  <time>2026-09-02T22:07:44Z</time>
  <course>275.53</course>
  <speed>0.0</speed>
  <fix>3d</fix>
</trkpt>
<trkpt lat="33.8103139" lon="-118.3938768">
  <ele>-24.765</ele>
  <time>2026-09-02T22:07:44Z</time>
  <course>187.92</course>
  <speed>0.0282842712474619</speed>
  <fix>3d</fix>
</trkpt>
<trkpt lat="33.8103137" lon="-118.3938767">
  <ele>-24.11</ele>
  <time>2026-09-02T22:07:44Z</time>
  <course>275.53</course>
  <speed>0.0</speed>
  <fix>3d</fix>
</trkpt>
<trkpt lat="33.8103139" lon="-118.3938768">
  <ele>-24.784</ele>
  <time>2026-09-02T22:07:44Z</time>
  <course>187.92</course>
  <speed>0.0282842712474619</speed>
  <fix>3d</fix>
</trkpt>
<trkpt lat="33.8103137" lon="-118.3938767">
  <ele>-24.15</ele>
  <time>2026-09-02T22:07:44Z</time>
  <course>275.52</course>
  <speed>0.0</speed>
  <fix>3d</fix>
</trkpt>
<trkpt lat="33.8103139" lon="-118.3938768">
  <ele>-24.803</ele>
  <time>2026-09-02T22:07:44Z</time>
  <course>187.93</course>
  <speed>0.0282842712474619</speed>
  <fix>3d</fix>
</trkpt>
<trkpt lat="33.8103137" lon="-118.3938767">
  <ele>-24.15</ele>
  <time>2026-09-02T22:07:44Z</time>
  <course>275.52</course>
  <speed>0.0</speed>
  <fix>3d</fix>
</trkpt>
<trkpt lat="33.8103139" lon="-118.3938768">
  <ele>-24.82</ele>
  <time>2026-09-02T22:07:44Z</time>
  <course>187.93</course>
  <speed>0.0282842712474619</speed>
  <fix>3d</fix>
</trkpt>
<trkpt lat="33.8103137" lon="-118.3938767">
  <ele>-24.18</ele>
  <time>2026-09-02T22:07:44Z</time>
  <course>275.49</course>
  <speed>0.0</speed>
  <fix>3d</fix>
</trkpt>
<trkpt lat="33.8103139" lon="-118.3938768">
  <ele>-24.835</ele>
  <time>2026-09-02T22:07:44Z</time>
  <course>187.94</course>
  <speed>0.0282842712474619</speed>
  <fix>3d</fix>
</trkpt>
<trkpt lat="33.8103137" lon="-118.3938767">
  <ele>-24.18</ele>
  <time>2026-09-02T22:07:44Z</time>
  <course>275.49</course>
  <speed>0.0</speed>
  <fix>3d</fix>
</trkpt>
<trkpt lat="33.8103139" lon="-118.3938768">
  <ele>-24.848</ele>
  <time>2026-09-02T22:07:44Z</time>
  <course>187.95</course>
  <speed>0.0282842712474619</speed>
  <fix>3d</fix>
</trkpt>
<trkpt lat="33.8103137" lon="-118.3938767">
  <ele>-24.21</ele>
  <time>2026-09-02T22:07:44Z</time>
  <course>275.47</course>
  <speed>0.0</speed>
  <fix>3d</fix>
</trkpt>
<trkpt lat="33.8103139" lon="-118.3938768">
  <ele>-24.858</ele>
  <time>2026-09-02T22:07:44Z</time>
  <course>187.95</course>
  <speed>0.0282842712474619</speed>
  <fix>3d</fix>
</trkpt>
<trkpt lat="33.8103137" lon="-118.3938767">
  <ele>-24.21</ele>
  <time>2026-09-02T22:07:44Z</time>
  <course>275.47</course>
  <speed>0.0</speed>
  <fix>3d</fix>
</trkpt>
<trkpt lat="33.8103139" lon="-118.3938768">
  <ele>-24.867</ele>
  <time>2026-09-02T22:07:44Z</time>
  <course>187.96</course>
  <speed>0.0282842712474619</speed>
  <fix>3d</fix>
</trkpt>
<trkpt lat="33.8103137" lon="-118.3938767">
  <ele>-24.23</ele>
  <time>2026-09-02T22:07:44Z</time>
  <course>275.44</course>
  <speed>0.0</speed>
  <fix>3d</fix>
</trkpt>
<trkpt lat="33.8103139" lon="-118.3938768">
  <ele>-24.872</ele>
  <time>2026-09-02T22:07:44Z</time>
  <course>187.96</course>
  <speed>0.0282842712474619</speed>
  <fix>3d</fix>
</trkpt>
<trkpt lat="33.8103137" lon="-118.3938767">
  <ele>-24.23</ele>
  <time>2026-09-02T22:07:44Z</time>
  <course>275.44</course>
  <speed>0.0</speed>
  <fix>3d</fix>
</trkpt>
<trkpt lat="33.8103139" lon="-118.3938768">
  <ele>-24.875</ele>
  <time>2026-09-02T22:07:44Z</time>
  <course>187.97</course>
  <speed>0.0282842712474619</speed>
  <fix>3d</fix>
</trkpt>
<trkpt lat="33.8103137" lon="-118.3938768">
  <ele>-24.24</ele>
  <time>2026-09-02T22:07:44Z</time>
  <course>275.41</course>
  <speed>0.0</speed>
  <fix>3d</fix>
</trkpt>
<trkpt lat="33.8103139" lon="-118.3938769">
  <ele>-24.875</ele>
  <time>2026-09-02T22:07:44Z</time>
  <course>187.97</course>
  <speed>0.0282842712474619</speed>
  <fix>3d</fix>
</trkpt>
<trkpt lat="33.8103137" lon="-118.3938768">
  <ele>-24.24</ele>
  <time>2026-09-02T22:07:44Z</time>
  <course>275.41</course>
  <speed>0.0</speed>
  <fix>3d</fix>
</trkpt>
<trkpt lat="33.8103139" lon="-118.3938769">
  <ele>-24.873</ele>
  <time>2026-09-02T22:07:44Z</time>
  <course>187.98</course>
  <speed>0.0282842712474619</speed>
  <fix>3d</fix>
</trkpt>
<trkpt lat="33.8103137" lon="-118.3938768">
  <ele>-24.25</ele>
  <time>2026-09-02T22:07:44Z</time>
  <course>275.37</course>
  <speed>0.0</speed>
  <fix>3d</fix>
</trkpt>
<trkpt lat="33.8103139" lon="-118.3938769">
  <ele>-24.869</ele>
  <time>2026-09-02T22:07:44Z</time>
  <course>187.98</course>
  <speed>0.0282842712474619</speed>
  <fix>3d</fix>
</trkpt>
<trkpt lat="33.8103137" lon="-118.3938768">
  <ele>-24.25</ele>
  <time>2026-09-02T22:07:44Z</time>
  <course>275.37</course>
  <speed>0.0</speed>
  <fix>3d</fix>
</trkpt>
<trkpt lat="33.8103139" lon="-118.3938769">
  <ele>-24.864</ele>
  <time>2026-09-02T22:07:44Z</time>
  <course>187.99</course>
  <speed>0.0282842712474619</speed>
  <fix>3d</fix>
</trkpt>
<trkpt lat="33.8103137" lon="-118.3938768">
  <ele>-24.25</ele>
  <time>2026-09-02T22:07:44Z</time>
  <course>275.32</course>
  <speed>0.0</speed>
  <fix>3d</fix>
</trkpt>
<trkpt lat="33.8103139" lon="-118.3938769">
  <ele>-24.858</ele>
  <time>2026-09-02T22:07:44Z</time>
  <course>187.99</course>
  <speed>0.0282842712474619</speed>
  <fix>3d</fix>
</trkpt>
<trkpt lat="33.8103137" lon="-118.3938768">
  <ele>-24.25</ele>
  <time>2026-09-02T22:07:44Z</time>
  <course>275.32</course>
  <speed>0.0</speed>
  <fix>3d</fix>
</trkpt>
<trkpt lat="33.8103139" lon="-118.3938769">
  <ele>-24.852</ele>
  <time>2026-09-02T22:07:44Z</time>
  <course>188.0</course>
  <speed>0.0282842712474619</speed>
  <fix>3d</fix>
</trkpt>
<trkpt lat="33.8103137" lon="-118.3938768">
  <ele>-24.24</ele>
  <time>2026-09-02T22:07:44Z</time>
  <course>275.29</course>
  <speed>0.0</speed>
  <fix>3d</fix>
</trkpt>
<trkpt lat="33.8103139" lon="-118.3938769">
  <ele>-24.846</ele>
  <time>2026-09-02T22:07:44Z</time>
  <course>188.0</course>
  <speed>0.0282842712474619</speed>
  <fix>3d</fix>
</trkpt>
<trkpt lat="33.8103137" lon="-118.3938768">
  <ele>-24.24</ele>
  <time>2026-09-02T22:07:44Z</time>
  <course>275.29</course>
  <speed>0.0</speed>
  <fix>3d</fix>
</trkpt>
<trkpt lat="33.8103139" lon="-118.3938769">
  <ele>-24.839</ele>
  <time>2026-09-02T22:07:44Z</time>
  <course>188.01</course>
  <speed>0.0282842712474619</speed>
  <fix>3d</fix>
</trkpt>
<trkpt lat="33.8103137" lon="-118.3938768">
  <ele>-24.23</ele>
  <time>2026-09-02T22:07:44Z</time>
  <course>275.27</course>
  <speed>0.0</speed>
  <fix>3d</fix>
</trkpt>
<trkpt lat="33.8103139" lon="-118.3938769">
  <ele>-24.831</ele>
  <time>2026-09-02T22:07:44Z</time>
  <course>188.01</course>
  <speed>0.0282842712474619</speed>
  <fix>3d</fix>
</trkpt>
<trkpt lat="33.8103137" lon="-118.3938768">
  <ele>-24.23</ele>
  <time>2026-09-02T22:07:44Z</time>
  <course>275.27</course>
  <speed>0.0</speed>
  <fix>3d</fix>
</trkpt>
<trkpt lat="33.8103139" lon="-118.3938769">
  <ele>-24.823</ele>
  <time>2026-09-02T22:07:44Z</time>
  <course>188.02</course>
  <speed>0.0282842712474619</speed>
  <fix>3d</fix>
</trkpt>
<trkpt lat="33.8103137" lon="-118.3938768">
  <ele>-24.22</ele>
  <time>2026-09-02T22:07:44Z</time>
  <course>275.26</course>
  <speed>0.0</speed>
  <fix>3d</fix>
</trkpt>
<trkpt lat="33.8103139" lon="-118.3938769">
  <ele>-24.815</ele>
  <time>2026-09-02T22:07:44Z</time>
  <course>188.03</course>
  <speed>0.0282842712474619</speed>
  <fix>3d</fix>
</trkpt>
<trkpt lat="33.8103137" lon="-118.3938768">
  <ele>-24.22</ele>
  <time>2026-09-02T22:07:44Z</time>
  <course>275.26</course>
  <speed>0.0</speed>
  <fix>3d</fix>
</trkpt>
<trkpt lat="33.8103139" lon="-118.3938769">
  <ele>-24.807</ele>
  <time>2026-09-02T22:07:44Z</time>
  <course>188.03</course>
  <speed>0.0282842712474619</speed>
  <fix>3d</fix>
</trkpt>
<trkpt lat="33.8103137" lon="-118.3938769">
  <ele>-24.21</ele>
  <time>2026-09-02T22:07:44Z</time>
  <course>275.24</course>
  <speed>0.0</speed>
  <fix>3d</fix>
</trkpt>
<trkpt lat="33.8103139" lon="-118.393877">
  <ele>-24.8</ele>
  <time>2026-09-02T22:07:44Z</time>
  <course>188.03</course>
  <speed>0.0282842712474619</speed>
  <fix>3d</fix>
</trkpt>
<trkpt lat="33.8103137" lon="-118.3938769">
  <ele>-24.21</ele>
  <time>2026-09-02T22:07:44Z</time>
  <course>275.24</course>
  <speed>0.0</speed>
  <fix>3d</fix>
</trkpt>
<trkpt lat="33.8103139" lon="-118.393877">
  <ele>-24.793</ele>
  <time>2026-09-02T22:07:44Z</time>
  <course>188.04</course>
  <speed>0.0282842712474619</speed>
  <fix>3d</fix>
</trkpt>
<trkpt lat="33.8103137" lon="-118.3938769">
  <ele>-24.2</ele>
  <time>2026-09-02T22:07:44Z</time>
  <course>275.21</course>
  <speed>0.0</speed>
  <fix>3d</fix>
</trkpt>
<trkpt lat="33.8103139" lon="-118.393877">
  <ele>-24.788</ele>
  <time>2026-09-02T22:07:44Z</time>
  <course>188.04</course>
  <speed>0.0282842712474619</speed>
  <fix>3d</fix>
</trkpt>
<trkpt lat="33.8103137" lon="-118.3938769">
  <ele>-24.2</ele>
  <time>2026-09-02T22:07:44Z</time>
  <course>275.21</course>
  <speed>0.0</speed>
  <fix>3d</fix>
</trkpt>
<trkpt lat="33.8103139" lon="-118.393877">
  <ele>-24.783</ele>
  <time>2026-09-02T22:07:44Z</time>
  <course>188.05</course>
  <speed>0.0282842712474619</speed>
  <fix>3d</fix>
</trkpt>
<trkpt lat="33.8103137" lon="-118.3938769">
  <ele>-24.19</ele>
  <time>2026-09-02T22:07:44Z</time>
  <course>275.2</course>
  <speed>0.0</speed>
  <fix>3d</fix>
</trkpt>
<trkpt lat="33.8103139" lon="-118.393877">
  <ele>-24.78</ele>
  <time>2026-09-02T22:07:44Z</time>
  <course>188.05</course>
  <speed>0.0282842712474619</speed>
  <fix>3d</fix>
</trkpt>
<trkpt lat="33.8103137" lon="-118.3938769">
  <ele>-24.19</ele>
  <time>2026-09-02T22:07:44Z</time>
  <course>275.2</course>
  <speed>0.0</speed>
  <fix>3d</fix>
</trkpt>
<trkpt lat="33.8103139" lon="-118.393877">
  <ele>-24.777</ele>
  <time>2026-09-02T22:07:44Z</time>
  <course>188.06</course>
  <speed>0.0282842712474619</speed>
  <fix>3d</fix>
</trkpt>
<trkpt lat="33.8103137" lon="-118.3938769">
  <ele>-24.18</ele>
  <time>2026-09-02T22:07:44Z</time>
  <course>275.23</course>
  <speed>0.0</speed>
  <fix>3d</fix>
</trkpt>
<trkpt lat="33.8103139" lon="-118.393877">
  <ele>-24.776</ele>
  <time>2026-09-02T22:07:44Z</time>
  <course>188.07</course>
  <speed>0.0282842712474619</speed>
  <fix>3d</fix>
</trkpt>
<trkpt lat="33.8103137" lon="-118.3938769">
  <ele>-24.18</ele>
  <time>2026-09-02T22:07:44Z</time>
  <course>275.23</course>
  <speed>0.0</speed>
  <fix>3d</fix>
</trkpt>
<trkpt lat="33.8103139" lon="-118.393877">
  <ele>-24.775</ele>
  <time>2026-09-02T22:07:44Z</time>
  <course>188.07</course>
  <speed>0.0282842712474619</speed>
  <fix>3d</fix>
</trkpt>
<trkpt lat="33.8103137" lon="-118.3938769">
  <ele>-24.18</ele>
  <time>2026-09-02T22:07:44Z</time>
  <course>275.28</course>
  <speed>0.0</speed>
  <fix>3d</fix>
</trkpt>
<trkpt lat="33.8103139" lon="-118.393877">
  <ele>-24.776</ele>
  <time>2026-09-02T22:07:44Z</time>
  <course>188.08</course>
  <speed>0.0282842712474619</speed>
  <fix>3d</fix>
</trkpt>
<trkpt lat="33.8103137" lon="-118.3938769">
  <ele>-24.18</ele>
  <time>2026-09-02T22:07:44Z</time>
  <course>275.28</course>
  <speed>0.0</speed>
  <fix>3d</fix>
</trkpt>
<trkpt lat="33.8103139" lon="-118.393877">
  <ele>-24.776</ele>
  <time>2026-09-02T22:07:44Z</time>
  <course>188.08</course>
  <speed>0.0282842712474619</speed>
  <fix>3d</fix>
</trkpt>
<trkpt lat="33.8103137" lon="-118.3938769">
  <ele>-24.18</ele>
  <time>2026-09-02T22:07:44Z</time>
  <course>275.3</course>
  <speed>0.0</speed>
  <fix>3d</fix>
</trkpt>
<trkpt lat="33.8103139" lon="-118.393877">
  <ele>-24.777</ele>
  <time>2026-09-02T22:07:44Z</time>
  <course>188.09</course>
  <speed>0.0282842712474619</speed>
  <fix>3d</fix>
</trkpt>
<trkpt lat="33.8103137" lon="-118.3938769">
  <ele>-24.18</ele>
  <time>2026-09-02T22:07:44Z</time>
  <course>275.3</course>
  <speed>0.0</speed>
  <fix>3d</fix>
</trkpt>
<trkpt lat="33.8103139" lon="-118.393877">
  <ele>-24.777</ele>
  <time>2026-09-02T22:07:44Z</time>
  <course>188.09</course>
  <speed>0.0282842712474619</speed>
  <fix>3d</fix>
</trkpt>
<trkpt lat="33.8103137" lon="-118.3938769">
  <ele>-24.18</ele>
  <time>2026-09-02T22:07:44Z</time>
  <course>275.3</course>
  <speed>0.0</speed>
  <fix>3d</fix>
</trkpt>
<trkpt lat="33.8103139" lon="-118.393877">
  <ele>-24.778</ele>
  <time>2026-09-02T22:07:44Z</time>
  <course>188.1</course>
  <speed>0.0282842712474619</speed>
  <fix>3d</fix>
</trkpt>
<trkpt lat="33.8103137" lon="-118.3938769">
  <ele>-24.18</ele>
  <time>2026-09-02T22:07:44Z</time>
  <course>275.3</course>
  <speed>0.0</speed>
  <fix>3d</fix>
</trkpt>
<trkpt lat="33.8103139" lon="-118.3938771">
  <ele>-24.78</ele>
  <time>2026-09-02T22:07:44Z</time>
  <course>188.1</course>
  <speed>0.0282842712474619</speed>
  <fix>3d</fix>
</trkpt>
<trkpt lat="33.8103137" lon="-118.393877">
  <ele>-24.18</ele>
  <time>2026-09-02T22:07:44Z</time>
  <course>275.29</course>
  <speed>0.0</speed>
  <fix>3d</fix>
</trkpt>
<trkpt lat="33.8103139" lon="-118.3938771">
  <ele>-24.782</ele>
  <time>2026-09-02T22:07:44Z</time>
  <course>188.11</course>
  <speed>0.0282842712474619</speed>
  <fix>3d</fix>
</trkpt>
<trkpt lat="33.8103137" lon="-118.393877">
  <ele>-24.18</ele>
  <time>2026-09-02T22:07:44Z</time>
  <course>275.29</course>
  <speed>0.0</speed>
  <fix>3d</fix>
</trkpt>
<trkpt lat="33.8103139" lon="-118.3938771">
  <ele>-24.785</ele>
  <time>2026-09-02T22:07:44Z</time>
  <course>188.11</course>
  <speed>0.0282842712474619</speed>
  <fix>3d</fix>
</trkpt>
<trkpt lat="33.8103137" lon="-118.393877">
  <ele>-24.19</ele>
  <time>2026-09-02T22:07:44Z</time>
  <course>275.3</course>
  <speed>0.0</speed>
  <fix>3d</fix>
</trkpt>
<trkpt lat="33.8103139" lon="-118.3938771">
  <ele>-24.788</ele>
  <time>2026-09-02T22:07:44Z</time>
  <course>188.12</course>
  <speed>0.0282842712474619</speed>
  <fix>3d</fix>
</trkpt>
<trkpt lat="33.8103137" lon="-118.393877">
  <ele>-24.19</ele>
  <time>2026-09-02T22:07:44Z</time>
  <course>275.3</course>
  <speed>0.0</speed>
  <fix>3d</fix>
</trkpt>
<trkpt lat="33.8103139" lon="-118.3938771">
  <ele>-24.791</ele>
  <time>2026-09-02T22:07:44Z</time>
  <course>188.12</course>
  <speed>0.0282842712474619</speed>
  <fix>3d</fix>
</trkpt>
<trkpt lat="33.8103137" lon="-118.393877">
  <ele>-24.19</ele>
  <time>2026-09-02T22:07:44Z</time>
  <course>275.3</course>
  <speed>0.0</speed>
  <fix>3d</fix>
</trkpt>
<trkpt lat="33.8103139" lon="-118.3938771">
  <ele>-24.793</ele>
  <time>2026-09-02T22:07:44Z</time>
  <course>188.13</course>
  <speed>0.0282842712474619</speed>
  <fix>3d</fix>
</trkpt>
<trkpt lat="33.8103137" lon="-118.393877">
  <ele>-24.19</ele>
  <time>2026-09-02T22:07:44Z</time>
  <course>275.3</course>
  <speed>0.0</speed>
  <fix>3d</fix>
</trkpt>
<trkpt lat="33.8103139" lon="-118.3938771">
  <ele>-24.796</ele>
  <time>2026-09-02T22:07:44Z</time>
  <course>188.13</course>
  <speed>0.0282842712474619</speed>
  <fix>3d</fix>
</trkpt>
<trkpt lat="33.8103137" lon="-118.393877">
  <ele>-24.19</ele>
  <time>2026-09-02T22:07:44Z</time>
  <course>275.29</course>
  <speed>0.0</speed>
  <fix>3d</fix>
</trkpt>
<trkpt lat="33.8103139" lon="-118.3938771">
  <ele>-24.799</ele>
  <time>2026-09-02T22:07:44Z</time>
  <course>188.14</course>
  <speed>0.0282842712474619</speed>
  <fix>3d</fix>
</trkpt>
<trkpt lat="33.8103137" lon="-118.393877">
  <ele>-24.19</ele>
  <time>2026-09-02T22:07:44Z</time>
  <course>275.29</course>
  <speed>0.0</speed>
  <fix>3d</fix>
</trkpt>
<trkpt lat="33.8103139" lon="-118.3938771">
  <ele>-24.801</ele>
  <time>2026-09-02T22:07:44Z</time>
  <course>188.14</course>
  <speed>0.0282842712474619</speed>
  <fix>3d</fix>
</trkpt>
<trkpt lat="33.8103137" lon="-118.393877">
  <ele>-24.2</ele>
  <time>2026-09-02T22:07:44Z</time>
  <course>275.28</course>
  <speed>0.0</speed>
  <fix>3d</fix>
</trkpt>
<trkpt lat="33.8103139" lon="-118.3938771">
  <ele>-24.803</ele>
  <time>2026-09-02T22:07:44Z</time>
  <course>188.15</course>
  <speed>0.0282842712474619</speed>
  <fix>3d</fix>
</trkpt>
<trkpt lat="33.8103137" lon="-118.393877">
  <ele>-24.2</ele>
  <time>2026-09-02T22:07:44Z</time>
  <course>275.28</course>
  <speed>0.0</speed>
  <fix>3d</fix>
</trkpt>
<trkpt lat="33.8103139" lon="-118.3938771">
  <ele>-24.804</ele>
  <time>2026-09-02T22:07:44Z</time>
  <course>188.15</course>
  <speed>0.0282842712474619</speed>
  <fix>3d</fix>
</trkpt>
<trkpt lat="33.8103137" lon="-118.393877">
  <ele>-24.2</ele>
  <time>2026-09-02T22:07:44Z</time>
  <course>275.27</course>
  <speed>0.0</speed>
  <fix>3d</fix>
</trkpt>
<trkpt lat="33.8103139" lon="-118.3938771">
  <ele>-24.805</ele>
  <time>2026-09-02T22:07:44Z</time>
  <course>188.16</course>
  <speed>0.0282842712474619</speed>
  <fix>3d</fix>
</trkpt>
<trkpt lat="33.8103137" lon="-118.393877">
  <ele>-24.2</ele>
  <time>2026-09-02T22:07:44Z</time>
  <course>275.27</course>
  <speed>0.0</speed>
  <fix>3d</fix>
</trkpt>
<trkpt lat="33.8103139" lon="-118.3938771">
  <ele>-24.806</ele>
  <time>2026-09-02T22:07:44Z</time>
  <course>188.16</course>
  <speed>0.0282842712474619</speed>
  <fix>3d</fix>
</trkpt>
<trkpt lat="33.8103137" lon="-118.3938771">
  <ele>-24.2</ele>
  <time>2026-09-02T22:07:44Z</time>
  <course>275.27</course>
  <speed>0.0</speed>
  <fix>3d</fix>
</trkpt>
<trkpt lat="33.8103139" lon="-118.3938771">
  <ele>-24.805</ele>
  <time>2026-09-02T22:07:44Z</time>
  <course>188.17</course>
  <speed>0.0282842712474619</speed>
  <fix>3d</fix>
</trkpt>
<trkpt lat="33.8103137" lon="-118.3938771">
  <ele>-24.2</ele>
  <time>2026-09-02T22:07:44Z</time>
  <course>275.27</course>
  <speed>0.0</speed>
  <fix>3d</fix>
</trkpt>
<trkpt lat="33.8103139" lon="-118.3938772">
  <ele>-24.805</ele>
  <time>2026-09-02T22:07:44Z</time>
  <course>188.17</course>
  <speed>0.0282842712474619</speed>
  <fix>3d</fix>
</trkpt>
<trkpt lat="33.8103137" lon="-118.3938771">
  <ele>-24.2</ele>
  <time>2026-09-02T22:07:44Z</time>
  <course>275.26</course>
  <speed>0.0</speed>
  <fix>3d</fix>
</trkpt>
<trkpt lat="33.8103139" lon="-118.3938772">
  <ele>-24.804</ele>
  <time>2026-09-02T22:07:44Z</time>
  <course>188.18</course>
  <speed>0.0282842712474619</speed>
  <fix>3d</fix>
</trkpt>
<trkpt lat="33.8103137" lon="-118.3938771">
  <ele>-24.2</ele>
  <time>2026-09-02T22:07:44Z</time>
  <course>275.26</course>
  <speed>0.0</speed>
  <fix>3d</fix>
</trkpt>
<trkpt lat="33.8103139" lon="-118.3938772">
  <ele>-24.804</ele>
  <time>2026-09-02T22:07:44Z</time>
  <course>188.18</course>
  <speed>0.0282842712474619</speed>
  <fix>3d</fix>
</trkpt>
<trkpt lat="33.8103137" lon="-118.3938771">
  <ele>-24.2</ele>
  <time>2026-09-02T22:07:44Z</time>
  <course>275.26</course>
  <speed>0.0</speed>
  <fix>3d</fix>
</trkpt>
<trkpt lat="33.8103139" lon="-118.3938772">
  <ele>-24.804</ele>
  <time>2026-09-02T22:07:44Z</time>
  <course>188.19</course>
  <speed>0.0282842712474619</speed>
  <fix>3d</fix>
</trkpt>
<trkpt lat="33.8103137" lon="-118.3938771">
  <ele>-24.2</ele>
  <time>2026-09-02T22:07:44Z</time>
  <course>275.26</course>
  <speed>0.0</speed>
  <fix>3d</fix>
</trkpt>
<trkpt lat="33.8103139" lon="-118.3938772">
  <ele>-24.803</ele>
  <time>2026-09-02T22:07:44Z</time>
  <course>188.19</course>
  <speed>0.0282842712474619</speed>
  <fix>3d</fix>
</trkpt>
<trkpt lat="33.8103137" lon="-118.3938771">
  <ele>-24.2</ele>
  <time>2026-09-02T22:07:44Z</time>
  <course>275.25</course>
  <speed>0.0</speed>
  <fix>3d</fix>
</trkpt>
<trkpt lat="33.8103139" lon="-118.3938772">
  <ele>-24.803</ele>
  <time>2026-09-02T22:07:44Z</time>
  <course>188.2</course>
  <speed>0.0282842712474619</speed>
  <fix>3d</fix>
</trkpt>
<trkpt lat="33.8103137" lon="-118.3938771">
  <ele>-24.2</ele>
  <time>2026-09-02T22:07:44Z</time>
  <course>275.25</course>
  <speed>0.0</speed>
  <fix>3d</fix>
</trkpt>
<trkpt lat="33.8103139" lon="-118.3938772">
  <ele>-24.802</ele>
  <time>2026-09-02T22:07:44Z</time>
  <course>188.2</course>
  <speed>0.0282842712474619</speed>
  <fix>3d</fix>
</trkpt>
<trkpt lat="33.8103137" lon="-118.3938771">
  <ele>-24.2</ele>
  <time>2026-09-02T22:07:44Z</time>
  <course>275.24</course>
  <speed>0.0</speed>
  <fix>3d</fix>
</trkpt>
<trkpt lat="33.8103139" lon="-118.3938772">
  <ele>-24.802</ele>
  <time>2026-09-02T22:07:44Z</time>
  <course>188.21</course>
  <speed>0.0282842712474619</speed>
  <fix>3d</fix>
</trkpt>
<trkpt lat="33.8103137" lon="-118.3938771">
  <ele>-24.2</ele>
  <time>2026-09-02T22:07:44Z</time>
  <course>275.24</course>
  <speed>0.0</speed>
  <fix>3d</fix>
</trkpt>
<trkpt lat="33.8103139" lon="-118.3938772">
  <ele>-24.802</ele>
  <time>2026-09-02T22:07:44Z</time>
  <course>188.21</course>
  <speed>0.0282842712474619</speed>
  <fix>3d</fix>
</trkpt>
<trkpt lat="33.8103137" lon="-118.3938771">
  <ele>-24.2</ele>
  <time>2026-09-02T22:07:44Z</time>
  <course>275.23</course>
  <speed>0.0</speed>
  <fix>3d</fix>
</trkpt>
<trkpt lat="33.8103139" lon="-118.3938772">
  <ele>-24.801</ele>
  <time>2026-09-02T22:07:44Z</time>
  <course>188.22</course>
  <speed>0.0282842712474619</speed>
  <fix>3d</fix>
</trkpt>
<trkpt lat="33.8103137" lon="-118.3938771">
  <ele>-24.2</ele>
  <time>2026-09-02T22:07:44Z</time>
  <course>275.23</course>
  <speed>0.0</speed>
  <fix>3d</fix>
</trkpt>
<trkpt lat="33.8103139" lon="-118.3938772">
  <ele>-24.802</ele>
  <time>2026-09-02T22:07:44Z</time>
  <course>188.22</course>
  <speed>0.0282842712474619</speed>
  <fix>3d</fix>
</trkpt>
<trkpt lat="33.8103137" lon="-118.3938772">
  <ele>-24.2</ele>
  <time>2026-09-02T22:07:44Z</time>
  <course>275.22</course>
  <speed>0.0</speed>
  <fix>3d</fix>
</trkpt>
<trkpt lat="33.8103139" lon="-118.3938772">
  <ele>-24.802</ele>
  <time>2026-09-02T22:07:44Z</time>
  <course>188.23</course>
  <speed>0.0282842712474619</speed>
  <fix>3d</fix>
</trkpt>
<trkpt lat="33.8103137" lon="-118.3938772">
  <ele>-24.2</ele>
  <time>2026-09-02T22:07:44Z</time>
  <course>275.22</course>
  <speed>0.0</speed>
  <fix>3d</fix>
</trkpt>
<trkpt lat="33.8103139" lon="-118.3938772">
  <ele>-24.803</ele>
  <time>2026-09-02T22:07:44Z</time>
  <course>188.23</course>
  <speed>0.0282842712474619</speed>
  <fix>3d</fix>
</trkpt>
<trkpt lat="33.8103137" lon="-118.3938772">
  <ele>-24.2</ele>
  <time>2026-09-02T22:07:44Z</time>
  <course>275.22</course>
  <speed>0.0</speed>
  <fix>3d</fix>
</trkpt>
<trkpt lat="33.8103139" lon="-118.3938773">
  <ele>-24.804</ele>
  <time>2026-09-02T22:07:44Z</time>
  <course>188.24</course>
  <speed>0.0282842712474619</speed>
  <fix>3d</fix>
</trkpt>
<trkpt lat="33.8103137" lon="-118.3938772">
  <ele>-24.2</ele>
  <time>2026-09-02T22:07:44Z</time>
  <course>275.22</course>
  <speed>0.0</speed>
  <fix>3d</fix>
</trkpt>
<trkpt lat="33.8103139" lon="-118.3938773">
  <ele>-24.805</ele>
  <time>2026-09-02T22:07:44Z</time>
  <course>188.24</course>
  <speed>0.0282842712474619</speed>
  <fix>3d</fix>
</trkpt>
<trkpt lat="33.8103137" lon="-118.3938772">
  <ele>-24.2</ele>
  <time>2026-09-02T22:07:44Z</time>
  <course>275.22</course>
  <speed>0.0</speed>
  <fix>3d</fix>
</trkpt>
<trkpt lat="33.8103139" lon="-118.3938773">
  <ele>-24.805</ele>
  <time>2026-09-02T22:07:44Z</time>
  <course>188.25</course>
  <speed>0.0282842712474619</speed>
  <fix>3d</fix>
</trkpt>
<trkpt lat="33.8103137" lon="-118.3938772">
  <ele>-24.2</ele>
  <time>2026-09-02T22:07:44Z</time>
  <course>275.22</course>
  <speed>0.0</speed>
  <fix>3d</fix>
</trkpt>
<trkpt lat="33.8103139" lon="-118.3938773">
  <ele>-24.805</ele>
  <time>2026-09-02T22:07:44Z</time>
  <course>188.25</course>
  <speed>0.0282842712474619</speed>
  <fix>3d</fix>
</trkpt>
<trkpt lat="33.8103137" lon="-118.3938772">
  <ele>-24.2</ele>
  <time>2026-09-02T22:07:44Z</time>
  <course>275.21</course>
  <speed>0.0</speed>
  <fix>3d</fix>
</trkpt>
<trkpt lat="33.8103139" lon="-118.3938773">
  <ele>-24.805</ele>
  <time>2026-09-02T22:07:44Z</time>
  <course>188.26</course>
  <speed>0.0282842712474619</speed>
  <fix>3d</fix>
</trkpt>
<trkpt lat="33.8103137" lon="-118.3938772">
  <ele>-24.2</ele>
  <time>2026-09-02T22:07:44Z</time>
  <course>275.21</course>
  <speed>0.0</speed>
  <fix>3d</fix>
</trkpt>
<trkpt lat="33.8103139" lon="-118.3938773">
  <ele>-24.804</ele>
  <time>2026-09-02T22:07:44Z</time>
  <course>188.26</course>
  <speed>0.0282842712474619</speed>
  <fix>3d</fix>
</trkpt>
<trkpt lat="33.8103137" lon="-118.3938772">
  <ele>-24.2</ele>
  <time>2026-09-02T22:07:44Z</time>
  <course>275.21</course>
  <speed>0.0</speed>
  <fix>3d</fix>
</trkpt>
<trkpt lat="33.8103139" lon="-118.3938773">
  <ele>-24.804</ele>
  <time>2026-09-02T22:07:44Z</time>
  <course>188.27</course>
  <speed>0.0282842712474619</speed>
  <fix>3d</fix>
</trkpt>
<trkpt lat="33.8103137" lon="-118.3938772">
  <ele>-24.2</ele>
  <time>2026-09-02T22:07:44Z</time>
  <course>275.21</course>
  <speed>0.0</speed>
  <fix>3d</fix>
</trkpt>
<trkpt lat="33.8103139" lon="-118.3938773">
  <ele>-24.803</ele>
  <time>2026-09-02T22:07:44Z</time>
  <course>188.27</course>
  <speed>0.0282842712474619</speed>
  <fix>3d</fix>
</trkpt>
<trkpt lat="33.8103137" lon="-118.3938772">
  <ele>-24.2</ele>
  <time>2026-09-02T22:07:44Z</time>
  <course>275.2</course>
  <speed>0.0</speed>
  <fix>3d</fix>
</trkpt>
<trkpt lat="33.8103139" lon="-118.3938773">
  <ele>-24.803</ele>
  <time>2026-09-02T22:07:44Z</time>
  <course>188.28</course>
  <speed>0.0282842712474619</speed>
  <fix>3d</fix>
</trkpt>
<trkpt lat="33.8103137" lon="-118.3938772">
  <ele>-24.2</ele>
  <time>2026-09-02T22:07:44Z</time>
  <course>275.2</course>
  <speed>0.0</speed>
  <fix>3d</fix>
</trkpt>
<trkpt lat="33.8103139" lon="-118.3938773">
  <ele>-24.804</ele>
  <time>2026-09-02T22:07:44Z</time>
  <course>188.28</course>
  <speed>0.0282842712474619</speed>
  <fix>3d</fix>
</trkpt>
<trkpt lat="33.8103137" lon="-118.3938773">
  <ele>-24.2</ele>
  <time>2026-09-02T22:07:44Z</time>
  <course>275.2</course>
  <speed>0.0</speed>
  <fix>3d</fix>
</trkpt>
<trkpt lat="33.8103139" lon="-118.3938773">
  <ele>-24.805</ele>
  <time>2026-09-02T22:07:44Z</time>
  <course>188.29</course>
  <speed>0.0282842712474619</speed>
  <fix>3d</fix>
</trkpt>
<trkpt lat="33.8103137" lon="-118.3938773">
  <ele>-24.2</ele>
  <time>2026-09-02T22:07:44Z</time>
  <course>275.2</course>
  <speed>0.0</speed>
  <fix>3d</fix>
</trkpt>
<trkpt lat="33.8103139" lon="-118.3938773">
  <ele>-24.806</ele>
  <time>2026-09-02T22:07:44Z</time>
  <course>188.29</course>
  <speed>0.0282842712474619</speed>
  <fix>3d</fix>
</trkpt>
<trkpt lat="33.8103137" lon="-118.3938773">
  <ele>-24.2</ele>
  <time>2026-09-02T22:07:44Z</time>
  <course>275.2</course>
  <speed>0.0</speed>
  <fix>3d</fix>
</trkpt>
<trkpt lat="33.8103139" lon="-118.3938774">
  <ele>-24.806</ele>
  <time>2026-09-02T22:07:44Z</time>
  <course>188.3</course>
  <speed>0.0282842712474619</speed>
  <fix>3d</fix>
</trkpt>
<trkpt lat="33.8103137" lon="-118.3938773">
  <ele>-24.2</ele>
  <time>2026-09-02T22:07:44Z</time>
  <course>275.2</course>
  <speed>0.0</speed>
  <fix>3d</fix>
</trkpt>
<trkpt lat="33.8103139" lon="-118.3938774">
  <ele>-24.806</ele>
  <time>2026-09-02T22:07:44Z</time>
  <course>188.3</course>
  <speed>0.0282842712474619</speed>
  <fix>3d</fix>
</trkpt>
<trkpt lat="33.8103137" lon="-118.3938773">
  <ele>-24.2</ele>
  <time>2026-09-02T22:07:44Z</time>
  <course>275.19</course>
  <speed>0.0</speed>
  <fix>3d</fix>
</trkpt>
<trkpt lat="33.8103139" lon="-118.3938774">
  <ele>-24.805</ele>
  <time>2026-09-02T22:07:44Z</time>
  <course>188.31</course>
  <speed>0.0282842712474619</speed>
  <fix>3d</fix>
</trkpt>
<trkpt lat="33.8103137" lon="-118.3938773">
  <ele>-24.2</ele>
  <time>2026-09-02T22:07:44Z</time>
  <course>275.19</course>
  <speed>0.0</speed>
  <fix>3d</fix>
</trkpt>
<trkpt lat="33.8103139" lon="-118.3938774">
  <ele>-24.804</ele>
  <time>2026-09-02T22:07:44Z</time>
  <course>188.31</course>
  <speed>0.0282842712474619</speed>
  <fix>3d</fix>
</trkpt>
<trkpt lat="33.8103137" lon="-118.3938773">
  <ele>-24.2</ele>
  <time>2026-09-02T22:07:44Z</time>
  <course>275.18</course>
  <speed>0.0</speed>
  <fix>3d</fix>
</trkpt>
<trkpt lat="33.8103139" lon="-118.3938774">
  <ele>-24.802</ele>
  <time>2026-09-02T22:07:44Z</time>
  <course>188.32</course>
  <speed>0.0282842712474619</speed>
  <fix>3d</fix>
</trkpt>
<trkpt lat="33.8103137" lon="-118.3938773">
  <ele>-24.2</ele>
  <time>2026-09-02T22:07:44Z</time>
  <course>275.18</course>
  <speed>0.0</speed>
  <fix>3d</fix>
</trkpt>
<trkpt lat="33.8103139" lon="-118.3938774">
  <ele>-24.801</ele>
  <time>2026-09-02T22:07:44Z</time>
  <course>188.32</course>
  <speed>0.0282842712474619</speed>
  <fix>3d</fix>
</trkpt>
<trkpt lat="33.8103137" lon="-118.3938773">
  <ele>-24.2</ele>
  <time>2026-09-02T22:07:44Z</time>
  <course>275.18</course>
  <speed>0.0</speed>
  <fix>3d</fix>
</trkpt>
<trkpt lat="33.8103139" lon="-118.3938774">
  <ele>-24.799</ele>
  <time>2026-09-02T22:07:44Z</time>
  <course>188.33</course>
  <speed>0.0282842712474619</speed>
  <fix>3d</fix>
</trkpt>
<trkpt lat="33.8103137" lon="-118.3938773">
  <ele>-24.2</ele>
  <time>2026-09-02T22:07:44Z</time>
  <course>275.18</course>
  <speed>0.0</speed>
  <fix>3d</fix>
</trkpt>
<trkpt lat="33.8103139" lon="-118.3938774">
  <ele>-24.797</ele>
  <time>2026-09-02T22:07:44Z</time>
  <course>188.33</course>
  <speed>0.0282842712474619</speed>
  <fix>3d</fix>
</trkpt>
<trkpt lat="33.8103137" lon="-118.3938773">
  <ele>-24.2</ele>
  <time>2026-09-02T22:07:44Z</time>
  <course>275.18</course>
  <speed>0.0</speed>
  <fix>3d</fix>
</trkpt>
<trkpt lat="33.8103139" lon="-118.3938774">
  <ele>-24.796</ele>
  <time>2026-09-02T22:07:44Z</time>
  <course>188.34</course>
  <speed>0.0282842712474619</speed>
  <fix>3d</fix>
</trkpt>
<trkpt lat="33.8103137" lon="-118.3938773">
  <ele>-24.2</ele>
  <time>2026-09-02T22:07:44Z</time>
  <course>275.18</course>
  <speed>0.0</speed>
  <fix>3d</fix>
</trkpt>
<trkpt lat="33.8103139" lon="-118.3938774">
  <ele>-24.795</ele>
  <time>2026-09-02T22:07:44Z</time>
  <course>188.34</course>
  <speed>0.0282842712474619</speed>
  <fix>3d</fix>
</trkpt>
<trkpt lat="33.8103137" lon="-118.3938774">
  <ele>-24.2</ele>
  <time>2026-09-02T22:07:44Z</time>
  <course>275.18</course>
  <speed>0.0</speed>
  <fix>3d</fix>
</trkpt>
<trkpt lat="33.8103139" lon="-118.3938774">
  <ele>-24.795</ele>
  <time>2026-09-02T22:07:44Z</time>
  <course>188.35</course>
  <speed>0.0282842712474619</speed>
  <fix>3d</fix>
</trkpt>
<trkpt lat="33.8103137" lon="-118.3938774">
  <ele>-24.2</ele>
  <time>2026-09-02T22:07:44Z</time>
  <course>275.18</course>
  <speed>0.0</speed>
  <fix>3d</fix>
</trkpt>
<trkpt lat="33.8103139" lon="-118.3938775">
  <ele>-24.795</ele>
  <time>2026-09-02T22:07:44Z</time>
  <course>188.35</course>
  <speed>0.0282842712474619</speed>
  <fix>3d</fix>
</trkpt>
<trkpt lat="33.8103137" lon="-118.3938774">
  <ele>-24.2</ele>
  <time>2026-09-02T22:07:44Z</time>
  <course>275.16</course>
  <speed>0.0</speed>
  <fix>3d</fix>
</trkpt>
<trkpt lat="33.8103139" lon="-118.3938775">
  <ele>-24.796</ele>
  <time>2026-09-02T22:07:44Z</time>
  <course>188.35</course>
  <speed>0.0282842712474619</speed>
  <fix>3d</fix>
</trkpt>
<trkpt lat="33.8103137" lon="-118.3938774">
  <ele>-24.2</ele>
  <time>2026-09-02T22:07:44Z</time>
  <course>275.16</course>
  <speed>0.0</speed>
  <fix>3d</fix>
</trkpt>
<trkpt lat="33.8103139" lon="-118.3938775">
  <ele>-24.797</ele>
  <time>2026-09-02T22:07:44Z</time>
  <course>188.36</course>
  <speed>0.0282842712474619</speed>
  <fix>3d</fix>
</trkpt>
<trkpt lat="33.8103137" lon="-118.3938774">
  <ele>-24.2</ele>
  <time>2026-09-02T22:07:44Z</time>
  <course>275.15</course>
  <speed>0.0</speed>
  <fix>3d</fix>
</trkpt>
<trkpt lat="33.8103139" lon="-118.3938775">
  <ele>-24.797</ele>
  <time>2026-09-02T22:07:44Z</time>
  <course>188.36</course>
  <speed>0.0282842712474619</speed>
  <fix>3d</fix>
</trkpt>
<trkpt lat="33.8103137" lon="-118.3938774">
  <ele>-24.2</ele>
  <time>2026-09-02T22:07:44Z</time>
  <course>275.15</course>
  <speed>0.0</speed>
  <fix>3d</fix>
</trkpt>
<trkpt lat="33.8103139" lon="-118.3938775">
  <ele>-24.798</ele>
  <time>2026-09-02T22:07:44Z</time>
  <course>188.37</course>
  <speed>0.0282842712474619</speed>
  <fix>3d</fix>
</trkpt>
<trkpt lat="33.8103137" lon="-118.3938774">
  <ele>-24.2</ele>
  <time>2026-09-02T22:07:44Z</time>
  <course>275.15</course>
  <speed>0.0</speed>
  <fix>3d</fix>
</trkpt>
<trkpt lat="33.8103139" lon="-118.3938775">
  <ele>-24.798</ele>
  <time>2026-09-02T22:07:44Z</time>
  <course>188.37</course>
  <speed>0.0282842712474619</speed>
  <fix>3d</fix>
</trkpt>
<trkpt lat="33.8103137" lon="-118.3938774">
  <ele>-24.2</ele>
  <time>2026-09-02T22:07:44Z</time>
  <course>275.15</course>
  <speed>0.0</speed>
  <fix>3d</fix>
</trkpt>
<trkpt lat="33.8103139" lon="-118.3938775">
  <ele>-24.797</ele>
  <time>2026-09-02T22:07:44Z</time>
  <course>188.38</course>
  <speed>0.0282842712474619</speed>
  <fix>3d</fix>
</trkpt>
<trkpt lat="33.8103137" lon="-118.3938774">
  <ele>-24.2</ele>
  <time>2026-09-02T22:07:44Z</time>
  <course>275.15</course>
  <speed>0.0</speed>
  <fix>3d</fix>
</trkpt>
<trkpt lat="33.8103139" lon="-118.3938775">
  <ele>-24.797</ele>
  <time>2026-09-02T22:07:44Z</time>
  <course>188.38</course>
  <speed>0.0282842712474619</speed>
  <fix>3d</fix>
</trkpt>
<trkpt lat="33.8103137" lon="-118.3938774">
  <ele>-24.2</ele>
  <time>2026-09-02T22:07:44Z</time>
  <course>275.15</course>
  <speed>0.0</speed>
  <fix>3d</fix>
</trkpt>
<trkpt lat="33.8103139" lon="-118.3938775">
  <ele>-24.797</ele>
  <time>2026-09-02T22:07:44Z</time>
  <course>188.39</course>
  <speed>0.0282842712474619</speed>
  <fix>3d</fix>
</trkpt>
<trkpt lat="33.8103137" lon="-118.3938774">
  <ele>-24.2</ele>
  <time>2026-09-02T22:07:44Z</time>
  <course>275.15</course>
  <speed>0.0</speed>
  <fix>3d</fix>
</trkpt>
<trkpt lat="33.8103139" lon="-118.3938775">
  <ele>-24.797</ele>
  <time>2026-09-02T22:07:44Z</time>
  <course>188.39</course>
  <speed>0.0282842712474619</speed>
  <fix>3d</fix>
</trkpt>
<trkpt lat="33.8103137" lon="-118.3938774">
  <ele>-24.2</ele>
  <time>2026-09-02T22:07:44Z</time>
  <course>275.15</course>
  <speed>0.0</speed>
  <fix>3d</fix>
</trkpt>
<trkpt lat="33.8103139" lon="-118.3938775">
  <ele>-24.798</ele>
  <time>2026-09-02T22:07:44Z</time>
  <course>188.39</course>
  <speed>0.0282842712474619</speed>
  <fix>3d</fix>
</trkpt>
<trkpt lat="33.8103137" lon="-118.3938774">
  <ele>-24.2</ele>
  <time>2026-09-02T22:07:44Z</time>
  <course>275.14</course>
  <speed>0.0</speed>
  <fix>3d</fix>
</trkpt>
<trkpt lat="33.8103139" lon="-118.3938775">
  <ele>-24.799</ele>
  <time>2026-09-02T22:07:44Z</time>
  <course>188.38</course>
  <speed>0.0282842712474619</speed>
  <fix>3d</fix>
</trkpt>
<trkpt lat="33.8103137" lon="-118.3938774">
  <ele>-24.2</ele>
  <time>2026-09-02T22:07:44Z</time>
  <course>275.14</course>
  <speed>0.0</speed>
  <fix>3d</fix>
</trkpt>
<trkpt lat="33.8103139" lon="-118.3938775">
  <ele>-24.8</ele>
  <time>2026-09-02T22:07:44Z</time>
  <course>188.36</course>
  <speed>0.0282842712474619</speed>
  <fix>3d</fix>
</trkpt>
<trkpt lat="33.8103137" lon="-118.3938774">
  <ele>-24.2</ele>
  <time>2026-09-02T22:07:44Z</time>
  <course>275.14</course>
  <speed>0.0</speed>
  <fix>3d</fix>
</trkpt>
<trkpt lat="33.8103139" lon="-118.3938775">
  <ele>-24.801</ele>
  <time>2026-09-02T22:07:44Z</time>
  <course>188.35</course>
  <speed>0.0282842712474619</speed>
  <fix>3d</fix>
</trkpt>
<trkpt lat="33.8103137" lon="-118.3938774">
  <ele>-24.2</ele>
  <time>2026-09-02T22:07:44Z</time>
  <course>275.14</course>
  <speed>0.0</speed>
  <fix>3d</fix>
</trkpt>
<trkpt lat="33.8103139" lon="-118.3938776">
  <ele>-24.802</ele>
  <time>2026-09-02T22:07:44Z</time>
  <course>188.34</course>
  <speed>0.0282842712474619</speed>
  <fix>3d</fix>
</trkpt>
<trkpt lat="33.8103137" lon="-118.3938774">
  <ele>-24.2</ele>
  <time>2026-09-02T22:07:44Z</time>
  <course>275.14</course>
  <speed>0.0</speed>
  <fix>3d</fix>
</trkpt>
<trkpt lat="33.8103139" lon="-118.3938776">
  <ele>-24.803</ele>
  <time>2026-09-02T22:07:44Z</time>
  <course>188.33</course>
  <speed>0.0282842712474619</speed>
  <fix>3d</fix>
</trkpt>
<trkpt lat="33.8103137" lon="-118.3938774">
  <ele>-24.2</ele>
  <time>2026-09-02T22:07:44Z</time>
  <course>275.14</course>
  <speed>0.0</speed>
  <fix>3d</fix>
</trkpt>
<trkpt lat="33.8103139" lon="-118.3938776">
  <ele>-24.804</ele>
  <time>2026-09-02T22:07:44Z</time>
  <course>188.32</course>
  <speed>0.0282842712474619</speed>
  <fix>3d</fix>
</trkpt>
<trkpt lat="33.8103137" lon="-118.3938774">
  <ele>-24.2</ele>
  <time>2026-09-02T22:07:44Z</time>
  <course>275.13</course>
  <speed>0.0</speed>
  <fix>3d</fix>
</trkpt>
<trkpt lat="33.8103139" lon="-118.3938776">
  <ele>-24.805</ele>
  <time>2026-09-02T22:07:44Z</time>
  <course>188.3</course>
  <speed>0.0282842712474619</speed>
  <fix>3d</fix>
</trkpt>
<trkpt lat="33.8103137" lon="-118.3938774">
  <ele>-24.2</ele>
  <time>2026-09-02T22:07:44Z</time>
  <course>275.13</course>
  <speed>0.0</speed>
  <fix>3d</fix>
</trkpt>
<trkpt lat="33.8103139" lon="-118.3938776">
  <ele>-24.805</ele>
  <time>2026-09-02T22:07:44Z</time>
  <course>188.29</course>
  <speed>0.022360679774997897</speed>
  <fix>3d</fix>
</trkpt>
<trkpt lat="33.8103137" lon="-118.3938774">
  <ele>-24.2</ele>
  <time>2026-09-02T22:07:44Z</time>
  <course>275.13</course>
  <speed>0.0</speed>
  <fix>3d</fix>
</trkpt>
<trkpt lat="33.8103139" lon="-118.3938776">
  <ele>-24.805</ele>
  <time>2026-09-02T22:07:44Z</time>
  <course>188.28</course>
  <speed>0.022360679774997897</speed>
  <fix>3d</fix>
</trkpt>
<trkpt lat="33.8103137" lon="-118.3938774">
  <ele>-24.2</ele>
  <time>2026-09-02T22:07:44Z</time>
  <course>275.13</course>
  <speed>0.0</speed>
  <fix>3d</fix>
</trkpt>
<trkpt lat="33.8103139" lon="-118.3938776">
  <ele>-24.805</ele>
  <time>2026-09-02T22:07:44Z</time>
  <course>188.27</course>
  <speed>0.022360679774997897</speed>
  <fix>3d</fix>
</trkpt>
<trkpt lat="33.8103137" lon="-118.3938774">
  <ele>-24.2</ele>
  <time>2026-09-02T22:07:44Z</time>
  <course>275.12</course>
  <speed>0.0</speed>
  <fix>3d</fix>
</trkpt>
<trkpt lat="33.8103139" lon="-118.3938776">
  <ele>-24.805</ele>
  <time>2026-09-02T22:07:44Z</time>
  <course>188.26</course>
  <speed>0.022360679774997897</speed>
  <fix>3d</fix>
</trkpt>
<trkpt lat="33.8103137" lon="-118.3938774">
  <ele>-24.2</ele>
  <time>2026-09-02T22:07:44Z</time>
  <course>275.12</course>
  <speed>0.0</speed>
  <fix>3d</fix>
</trkpt>
<trkpt lat="33.8103139" lon="-118.3938776">
  <ele>-24.805</ele>
  <time>2026-09-02T22:07:44Z</time>
  <course>188.24</course>
  <speed>0.022360679774997897</speed>
  <fix>3d</fix>
</trkpt>
<trkpt lat="33.8103137" lon="-118.3938775">
  <ele>-24.2</ele>
  <time>2026-09-02T22:07:44Z</time>
  <course>275.12</course>
  <speed>0.0</speed>
  <fix>3d</fix>
</trkpt>
<trkpt lat="33.8103139" lon="-118.3938776">
  <ele>-24.805</ele>
  <time>2026-09-02T22:07:44Z</time>
  <course>188.23</course>
  <speed>0.022360679774997897</speed>
  <fix>3d</fix>
</trkpt>
<trkpt lat="33.8103137" lon="-118.3938775">
  <ele>-24.2</ele>
  <time>2026-09-02T22:07:44Z</time>
  <course>275.12</course>
  <speed>0.0</speed>
  <fix>3d</fix>
</trkpt>
<trkpt lat="33.8103139" lon="-118.3938776">
  <ele>-24.806</ele>
  <time>2026-09-02T22:07:44Z</time>
  <course>188.22</course>
  <speed>0.022360679774997897</speed>
  <fix>3d</fix>
</trkpt>
<trkpt lat="33.8103137" lon="-118.3938776">
  <ele>-24.2</ele>
  <time>2026-09-02T22:07:44Z</time>
  <course>275.12</course>
  <speed>0.0</speed>
  <fix>3d</fix>
</trkpt>
<trkpt lat="33.8103139" lon="-118.3938776">
  <ele>-24.806</ele>
  <time>2026-09-02T22:07:44Z</time>
  <course>188.21</course>
  <speed>0.022360679774997897</speed>
  <fix>3d</fix>
</trkpt>
<trkpt lat="33.8103137" lon="-118.3938776">
  <ele>-24.2</ele>
  <time>2026-09-02T22:07:44Z</time>
  <course>275.12</course>
  <speed>0.0</speed>
  <fix>3d</fix>
</trkpt>
<trkpt lat="33.8103139" lon="-118.3938776">
  <ele>-24.806</ele>
  <time>2026-09-02T22:07:44Z</time>
  <course>188.19</course>
  <speed>0.022360679774997897</speed>
  <fix>3d</fix>
</trkpt>
<trkpt lat="33.8103137" lon="-118.3938776">
  <ele>-24.2</ele>
  <time>2026-09-02T22:07:44Z</time>
  <course>275.12</course>
  <speed>0.0</speed>
  <fix>3d</fix>
</trkpt>
<trkpt lat="33.8103139" lon="-118.3938776">
  <ele>-24.806</ele>
  <time>2026-09-02T22:07:44Z</time>
  <course>188.18</course>
  <speed>0.022360679774997897</speed>
  <fix>3d</fix>
</trkpt>
<trkpt lat="33.8103137" lon="-118.3938776">
  <ele>-24.2</ele>
  <time>2026-09-02T22:07:44Z</time>
  <course>275.12</course>
  <speed>0.0</speed>
  <fix>3d</fix>
</trkpt>
<trkpt lat="33.8103139" lon="-118.3938776">
  <ele>-24.805</ele>
  <time>2026-09-02T22:07:44Z</time>
  <course>188.17</course>
  <speed>0.022360679774997897</speed>
  <fix>3d</fix>
</trkpt>
<trkpt lat="33.8103137" lon="-118.3938776">
  <ele>-24.2</ele>
  <time>2026-09-02T22:07:44Z</time>
  <course>275.11</course>
  <speed>0.0</speed>
  <fix>3d</fix>
</trkpt>
<trkpt lat="33.8103139" lon="-118.3938776">
  <ele>-24.806</ele>
  <time>2026-09-02T22:07:44Z</time>
  <course>188.16</course>
  <speed>0.0282842712474619</speed>
  <fix>3d</fix>
</trkpt>
<trkpt lat="33.8103137" lon="-118.3938776">
  <ele>-24.2</ele>
  <time>2026-09-02T22:07:44Z</time>
  <course>275.11</course>
  <speed>0.0</speed>
  <fix>3d</fix>
</trkpt>
<trkpt lat="33.8103139" lon="-118.3938777">
  <ele>-24.821</ele>
  <time>2026-09-02T22:07:44Z</time>
  <course>188.15</course>
  <speed>0.0282842712474619</speed>
  <fix>3d</fix>
</trkpt>
<trkpt lat="33.8103137" lon="-118.3938776">
  <ele>-24.2</ele>
  <time>2026-09-02T22:07:44Z</time>
  <course>275.23</course>
  <speed>0.0</speed>
  <fix>3d</fix>
</trkpt>
<trkpt lat="33.8103139" lon="-118.3938777">
  <ele>-24.857</ele>
  <time>2026-09-02T22:07:44Z</time>
  <course>188.14</course>
  <speed>0.0282842712474619</speed>
  <fix>3d</fix>
</trkpt>
<trkpt lat="33.8103137" lon="-118.3938776">
  <ele>-24.2</ele>
  <time>2026-09-02T22:07:44Z</time>
  <course>275.23</course>
  <speed>0.0</speed>
  <fix>3d</fix>
</trkpt>
<trkpt lat="33.8103139" lon="-118.3938777">
  <ele>-24.858</ele>
  <time>2026-09-02T22:07:44Z</time>
  <course>188.14</course>
  <speed>0.0282842712474619</speed>
  <fix>3d</fix>
</trkpt>
<trkpt lat="33.8103139" lon="-118.3938777">
  <ele>-24.913</ele>
  <time>2026-09-02T22:07:44Z</time>
  <course>188.12</course>
  <speed>0.0282842712474619</speed>
  <fix>3d</fix>
</trkpt>
<trkpt lat="33.8103137" lon="-118.3938776">
  <ele>-24.24</ele>
  <time>2026-09-02T22:07:44Z</time>
  <course>275.7</course>
  <speed>0.0</speed>
  <fix>3d</fix>
</trkpt>
<trkpt lat="33.8103139" lon="-118.3938777">
  <ele>-24.915</ele>
  <time>2026-09-02T22:07:44Z</time>
  <course>188.12</course>
  <speed>0.0282842712474619</speed>
  <fix>3d</fix>
</trkpt>
<trkpt lat="33.8103139" lon="-118.3938777">
  <ele>-24.983</ele>
  <time>2026-09-02T22:07:44Z</time>
  <course>188.11</course>
  <speed>0.0282842712474619</speed>
  <fix>3d</fix>
</trkpt>
<trkpt lat="33.8103137" lon="-118.3938776">
  <ele>-24.24</ele>
  <time>2026-09-02T22:07:44Z</time>
  <course>275.7</course>
  <speed>0.0</speed>
  <fix>3d</fix>
</trkpt>
<trkpt lat="33.8103139" lon="-118.3938777">
  <ele>-25.01</ele>
  <time>2026-09-02T22:07:44Z</time>
  <course>188.11</course>
  <speed>0.0282842712474619</speed>
  <fix>3d</fix>
</trkpt>
<trkpt lat="33.8103139" lon="-118.3938777">
  <ele>-25.062</ele>
  <time>2026-09-02T22:07:44Z</time>
  <course>188.1</course>
  <speed>0.0282842712474619</speed>
  <fix>3d</fix>
</trkpt>
<trkpt lat="33.8103137" lon="-118.3938776">
  <ele>-24.33</ele>
  <time>2026-09-02T22:07:44Z</time>
  <course>276.09</course>
  <speed>0.01</speed>
  <fix>3d</fix>
</trkpt>
<trkpt lat="33.8103139" lon="-118.3938777">
  <ele>-25.089</ele>
  <time>2026-09-02T22:07:44Z</time>
  <course>188.1</course>
  <speed>0.0282842712474619</speed>
  <fix>3d</fix>
</trkpt>
<trkpt lat="33.8103139" lon="-118.3938777">
  <ele>-25.147</ele>
  <time>2026-09-02T22:07:44Z</time>
  <course>188.09</course>
  <speed>0.0282842712474619</speed>
  <fix>3d</fix>
</trkpt>
<trkpt lat="33.8103137" lon="-118.3938776">
  <ele>-24.33</ele>
  <time>2026-09-02T22:07:44Z</time>
  <course>276.09</course>
  <speed>0.01</speed>
  <fix>3d</fix>
</trkpt>
<trkpt lat="33.8103139" lon="-118.3938777">
  <ele>-25.176</ele>
  <time>2026-09-02T22:07:44Z</time>
  <course>188.09</course>
  <speed>0.0282842712474619</speed>
  <fix>3d</fix>
</trkpt>
<trkpt lat="33.8103139" lon="-118.3938777">
  <ele>-25.236</ele>
  <time>2026-09-02T22:07:44Z</time>
  <course>188.08</course>
  <speed>0.0282842712474619</speed>
  <fix>3d</fix>
</trkpt>
<trkpt lat="33.8103137" lon="-118.3938777">
  <ele>-24.47</ele>
  <time>2026-09-02T22:07:44Z</time>
  <course>276.24</course>
  <speed>0.01</speed>
  <fix>3d</fix>
</trkpt>
<trkpt lat="33.8103139" lon="-118.3938777">
  <ele>-25.269</ele>
  <time>2026-09-02T22:07:44Z</time>
  <course>188.08</course>
  <speed>0.0282842712474619</speed>
  <fix>3d</fix>
</trkpt>
<trkpt lat="33.8103139" lon="-118.3938777">
  <ele>-25.329</ele>
  <time>2026-09-02T22:07:44Z</time>
  <course>188.07</course>
  <speed>0.0282842712474619</speed>
  <fix>3d</fix>
</trkpt>
<trkpt lat="33.8103137" lon="-118.3938777">
  <ele>-24.47</ele>
  <time>2026-09-02T22:07:44Z</time>
  <course>276.24</course>
  <speed>0.01</speed>
  <fix>3d</fix>
</trkpt>
<trkpt lat="33.8103139" lon="-118.3938777">
  <ele>-25.365</ele>
  <time>2026-09-02T22:07:44Z</time>
  <course>188.06</course>
  <speed>0.0282842712474619</speed>
  <fix>3d</fix>
</trkpt>
<trkpt lat="33.8103139" lon="-118.3938778">
  <ele>-25.424</ele>
  <time>2026-09-02T22:07:44Z</time>
  <course>188.06</course>
  <speed>0.0282842712474619</speed>
  <fix>3d</fix>
</trkpt>
<trkpt lat="33.8103137" lon="-118.3938777">
  <ele>-24.63</ele>
  <time>2026-09-02T22:07:44Z</time>
  <course>276.29</course>
  <speed>0.01</speed>
  <fix>3d</fix>
</trkpt>
<trkpt lat="33.8103139" lon="-118.3938778">
  <ele>-25.429</ele>
  <time>2026-09-02T22:07:44Z</time>
  <course>188.06</course>
  <speed>0.0282842712474619</speed>
  <fix>3d</fix>
</trkpt>
<trkpt lat="33.8103139" lon="-118.3938778">
  <ele>-25.521</ele>
  <time>2026-09-02T22:07:44Z</time>
  <course>188.04</course>
  <speed>0.0282842712474619</speed>
  <fix>3d</fix>
</trkpt>
<trkpt lat="33.8103137" lon="-118.3938777">
  <ele>-24.63</ele>
  <time>2026-09-02T22:07:44Z</time>
  <course>276.29</course>
  <speed>0.01</speed>
  <fix>3d</fix>
</trkpt>
<trkpt lat="33.8103139" lon="-118.3938778">
  <ele>-25.552</ele>
  <time>2026-09-02T22:07:44Z</time>
  <course>188.04</course>
  <speed>0.0282842712474619</speed>
  <fix>3d</fix>
</trkpt>
<trkpt lat="33.8103139" lon="-118.3938778">
  <ele>-25.618</ele>
  <time>2026-09-02T22:07:44Z</time>
  <course>188.03</course>
  <speed>0.0282842712474619</speed>
  <fix>3d</fix>
</trkpt>
<trkpt lat="33.8103137" lon="-118.3938777">
  <ele>-24.81</ele>
  <time>2026-09-02T22:07:44Z</time>
  <course>276.31</course>
  <speed>0.01</speed>
  <fix>3d</fix>
</trkpt>
<trkpt lat="33.8103139" lon="-118.3938778">
  <ele>-25.658</ele>
  <time>2026-09-02T22:07:44Z</time>
  <course>188.03</course>
  <speed>0.0282842712474619</speed>
  <fix>3d</fix>
</trkpt>
<trkpt lat="33.8103139" lon="-118.3938778">
  <ele>-25.716</ele>
  <time>2026-09-02T22:07:44Z</time>
  <course>188.02</course>
  <speed>0.0282842712474619</speed>
  <fix>3d</fix>
</trkpt>
<trkpt lat="33.8103137" lon="-118.3938777">
  <ele>-24.81</ele>
  <time>2026-09-02T22:07:44Z</time>
  <course>276.31</course>
  <speed>0.01</speed>
  <fix>3d</fix>
</trkpt>
<trkpt lat="33.8103139" lon="-118.3938778">
  <ele>-25.753</ele>
  <time>2026-09-02T22:07:44Z</time>
  <course>188.02</course>
  <speed>0.0282842712474619</speed>
  <fix>3d</fix>
</trkpt>
<trkpt lat="33.8103139" lon="-118.3938778">
  <ele>-25.815</ele>
  <time>2026-09-02T22:07:44Z</time>
  <course>188.01</course>
  <speed>0.0282842712474619</speed>
  <fix>3d</fix>
</trkpt>
<trkpt lat="33.8103137" lon="-118.3938777">
  <ele>-24.99</ele>
  <time>2026-09-02T22:07:44Z</time>
  <course>276.32</course>
  <speed>0.01</speed>
  <fix>3d</fix>
</trkpt>
<trkpt lat="33.8103139" lon="-118.3938778">
  <ele>-25.847</ele>
  <time>2026-09-02T22:07:44Z</time>
  <course>188.01</course>
  <speed>0.0282842712474619</speed>
  <fix>3d</fix>
</trkpt>
<trkpt lat="33.8103139" lon="-118.3938778">
  <ele>-25.914</ele>
  <time>2026-09-02T22:07:44Z</time>
  <course>188.0</course>
  <speed>0.0282842712474619</speed>
  <fix>3d</fix>
</trkpt>
<trkpt lat="33.8103137" lon="-118.3938777">
  <ele>-24.99</ele>
  <time>2026-09-02T22:07:44Z</time>
  <course>276.32</course>
  <speed>0.01</speed>
  <fix>3d</fix>
</trkpt>
<trkpt lat="33.8103139" lon="-118.3938778">
  <ele>-25.916</ele>
  <time>2026-09-02T22:07:44Z</time>
  <course>188.0</course>
  <speed>0.0282842712474619</speed>
  <fix>3d</fix>
</trkpt>
<trkpt lat="33.8103139" lon="-118.3938778">
  <ele>-26.012</ele>
  <time>2026-09-02T22:07:44Z</time>
  <course>187.99</course>
  <speed>0.0282842712474619</speed>
  <fix>3d</fix>
</trkpt>
<trkpt lat="33.8103137" lon="-118.3938778">
  <ele>-25.17</ele>
  <time>2026-09-02T22:07:44Z</time>
  <course>276.32</course>
  <speed>0.01</speed>
  <fix>3d</fix>
</trkpt>
<trkpt lat="33.8103139" lon="-118.3938779">
  <ele>-26.046</ele>
  <time>2026-09-02T22:07:44Z</time>
  <course>187.98</course>
  <speed>0.0282842712474619</speed>
  <fix>3d</fix>
</trkpt>
<trkpt lat="33.8103139" lon="-118.3938779">
  <ele>-26.109</ele>
  <time>2026-09-02T22:07:44Z</time>
  <course>187.98</course>
  <speed>0.0282842712474619</speed>
  <fix>3d</fix>
</trkpt>
<trkpt lat="33.8103137" lon="-118.3938778">
  <ele>-25.17</ele>
  <time>2026-09-02T22:07:44Z</time>
  <course>276.32</course>
  <speed>0.01</speed>
  <fix>3d</fix>
</trkpt>
<trkpt lat="33.8103139" lon="-118.3938779">
  <ele>-26.143</ele>
  <time>2026-09-02T22:07:44Z</time>
  <course>187.97</course>
  <speed>0.0282842712474619</speed>
  <fix>3d</fix>
</trkpt>
<trkpt lat="33.8103139" lon="-118.3938779">
  <ele>-26.206</ele>
  <time>2026-09-02T22:07:44Z</time>
  <course>187.97</course>
  <speed>0.0282842712474619</speed>
  <fix>3d</fix>
</trkpt>
<trkpt lat="33.8103138" lon="-118.3938778">
  <ele>-25.35</ele>
  <time>2026-09-02T22:07:44Z</time>
  <course>276.33</course>
  <speed>0.01</speed>
  <fix>3d</fix>
</trkpt>
<trkpt lat="33.8103139" lon="-118.3938779">
  <ele>-26.245</ele>
  <time>2026-09-02T22:07:44Z</time>
  <course>187.96</course>
  <speed>0.0282842712474619</speed>
  <fix>3d</fix>
</trkpt>
<trkpt lat="33.8103139" lon="-118.3938779">
  <ele>-26.303</ele>
  <time>2026-09-02T22:07:44Z</time>
  <course>187.95</course>
  <speed>0.0282842712474619</speed>
  <fix>3d</fix>
</trkpt>
<trkpt lat="33.8103138" lon="-118.3938778">
  <ele>-25.35</ele>
  <time>2026-09-02T22:07:44Z</time>
  <course>276.33</course>
  <speed>0.01</speed>
  <fix>3d</fix>
</trkpt>
<trkpt lat="33.8103139" lon="-118.3938779">
  <ele>-26.339</ele>
  <time>2026-09-02T22:07:44Z</time>
  <course>187.95</course>
  <speed>0.0282842712474619</speed>
  <fix>3d</fix>
</trkpt>
<trkpt lat="33.8103139" lon="-118.3938779">
  <ele>-26.398</ele>
  <time>2026-09-02T22:07:44Z</time>
  <course>187.94</course>
  <speed>0.0282842712474619</speed>
  <fix>3d</fix>
</trkpt>
<trkpt lat="33.8103139" lon="-118.3938778">
  <ele>-25.53</ele>
  <time>2026-09-02T22:07:44Z</time>
  <course>276.33</course>
  <speed>0.01</speed>
  <fix>3d</fix>
</trkpt>
<trkpt lat="33.8103139" lon="-118.3938779">
  <ele>-26.439</ele>
  <time>2026-09-02T22:07:44Z</time>
  <course>187.94</course>
  <speed>0.0282842712474619</speed>
  <fix>3d</fix>
</trkpt>
<trkpt lat="33.8103139" lon="-118.3938779">
  <ele>-26.494</ele>
  <time>2026-09-02T22:07:44Z</time>
  <course>187.93</course>
  <speed>0.0282842712474619</speed>
  <fix>3d</fix>
</trkpt>
<trkpt lat="33.8103139" lon="-118.3938778">
  <ele>-25.53</ele>
  <time>2026-09-02T22:07:44Z</time>
  <course>276.33</course>
  <speed>0.01</speed>
  <fix>3d</fix>
</trkpt>
<trkpt lat="33.8103139" lon="-118.3938779">
  <ele>-26.527</ele>
  <time>2026-09-02T22:07:44Z</time>
  <course>187.93</course>
  <speed>0.0282842712474619</speed>
  <fix>3d</fix>
</trkpt>
<trkpt lat="33.8103139" lon="-118.3938779">
  <ele>-26.589</ele>
  <time>2026-09-02T22:07:44Z</time>
  <course>187.92</course>
  <speed>0.0282842712474619</speed>
  <fix>3d</fix>
</trkpt>
<trkpt lat="33.8103139" lon="-118.3938779">
  <ele>-25.71</ele>
  <time>2026-09-02T22:07:44Z</time>
  <course>276.33</course>
  <speed>0.01</speed>
  <fix>3d</fix>
</trkpt>
<trkpt lat="33.8103139" lon="-118.3938779">
  <ele>-26.625</ele>
  <time>2026-09-02T22:07:44Z</time>
  <course>187.92</course>
  <speed>0.0282842712474619</speed>
  <fix>3d</fix>
</trkpt>
<trkpt lat="33.8103139" lon="-118.393878">
  <ele>-26.685</ele>
  <time>2026-09-02T22:07:44Z</time>
  <course>187.91</course>
  <speed>0.0282842712474619</speed>
  <fix>3d</fix>
</trkpt>
<trkpt lat="33.8103139" lon="-118.3938779">
  <ele>-25.71</ele>
  <time>2026-09-02T22:07:44Z</time>
  <course>276.33</course>
  <speed>0.01</speed>
  <fix>3d</fix>
</trkpt>
<trkpt lat="33.8103139" lon="-118.393878">
  <ele>-26.69</ele>
  <time>2026-09-02T22:07:44Z</time>
  <course>187.91</course>
  <speed>0.0282842712474619</speed>
  <fix>3d</fix>
</trkpt>
<trkpt lat="33.8103139" lon="-118.393878">
  <ele>-26.782</ele>
  <time>2026-09-02T22:07:44Z</time>
  <course>187.9</course>
  <speed>0.0282842712474619</speed>
  <fix>3d</fix>
</trkpt>
<trkpt lat="33.8103139" lon="-118.3938779">
  <ele>-25.89</ele>
  <time>2026-09-02T22:07:44Z</time>
  <course>276.33</course>
  <speed>0.01</speed>
  <fix>3d</fix>
</trkpt>
<trkpt lat="33.8103139" lon="-118.393878">
  <ele>-26.783</ele>
  <time>2026-09-02T22:07:44Z</time>
  <course>187.9</course>
  <speed>0.0282842712474619</speed>
  <fix>3d</fix>
</trkpt>
<trkpt lat="33.8103139" lon="-118.393878">
  <ele>-26.879</ele>
  <time>2026-09-02T22:07:44Z</time>
  <course>187.89</course>
  <speed>0.0282842712474619</speed>
  <fix>3d</fix>
</trkpt>
<trkpt lat="33.8103139" lon="-118.3938779">
  <ele>-25.89</ele>
  <time>2026-09-02T22:07:44Z</time>
  <course>276.33</course>
  <speed>0.01</speed>
  <fix>3d</fix>
</trkpt>
<trkpt lat="33.8103139" lon="-118.393878">
  <ele>-26.914</ele>
  <time>2026-09-02T22:07:44Z</time>
  <course>187.88</course>
  <speed>0.0282842712474619</speed>
  <fix>3d</fix>
</trkpt>
<trkpt lat="33.8103139" lon="-118.393878">
  <ele>-26.976</ele>
  <time>2026-09-02T22:07:44Z</time>
  <course>187.88</course>
  <speed>0.0282842712474619</speed>
  <fix>3d</fix>
</trkpt>
<trkpt lat="33.8103139" lon="-118.3938779">
  <ele>-26.07</ele>
  <time>2026-09-02T22:07:44Z</time>
  <course>276.34</course>
  <speed>0.01</speed>
  <fix>3d</fix>
</trkpt>
<trkpt lat="33.8103139" lon="-118.393878">
  <ele>-26.978</ele>
  <time>2026-09-02T22:07:44Z</time>
  <course>187.88</course>
  <speed>0.0282842712474619</speed>
  <fix>3d</fix>
</trkpt>
<trkpt lat="33.810314" lon="-118.393878">
  <ele>-27.074</ele>
  <time>2026-09-02T22:07:44Z</time>
  <course>187.87</course>
  <speed>0.0282842712474619</speed>
  <fix>3d</fix>
</trkpt>
<trkpt lat="33.8103139" lon="-118.3938779">
  <ele>-26.07</ele>
  <time>2026-09-02T22:07:44Z</time>
  <course>276.34</course>
  <speed>0.01</speed>
  <fix>3d</fix>
</trkpt>
<trkpt lat="33.810314" lon="-118.393878">
  <ele>-27.106</ele>
  <time>2026-09-02T22:07:44Z</time>
  <course>187.86</course>
  <speed>0.0282842712474619</speed>
  <fix>3d</fix>
</trkpt>
<trkpt lat="33.810314" lon="-118.393878">
  <ele>-27.171</ele>
  <time>2026-09-02T22:07:44Z</time>
  <course>187.86</course>
  <speed>0.0282842712474619</speed>
  <fix>3d</fix>
</trkpt>
<trkpt lat="33.8103139" lon="-118.393878">
  <ele>-26.26</ele>
  <time>2026-09-02T22:07:44Z</time>
  <course>276.34</course>
  <speed>0.01</speed>
  <fix>3d</fix>
</trkpt>
<trkpt lat="33.810314" lon="-118.393878">
  <ele>-27.203</ele>
  <time>2026-09-02T22:07:44Z</time>
  <course>187.85</course>
  <speed>0.0282842712474619</speed>
  <fix>3d</fix>
</trkpt>
<trkpt lat="33.810314" lon="-118.3938781">
  <ele>-27.268</ele>
  <time>2026-09-02T22:07:44Z</time>
  <course>187.85</course>
  <speed>0.0282842712474619</speed>
  <fix>3d</fix>
</trkpt>
<trkpt lat="33.8103139" lon="-118.393878">
  <ele>-26.26</ele>
  <time>2026-09-02T22:07:44Z</time>
  <course>276.34</course>
  <speed>0.01</speed>
  <fix>3d</fix>
</trkpt>
<trkpt lat="33.810314" lon="-118.3938781">
  <ele>-27.302</ele>
  <time>2026-09-02T22:07:44Z</time>
  <course>187.84</course>
  <speed>0.0282842712474619</speed>
  <fix>3d</fix>
</trkpt>
<trkpt lat="33.810314" lon="-118.3938781">
  <ele>-27.365</ele>
  <time>2026-09-02T22:07:44Z</time>
  <course>187.83</course>
  <speed>0.0282842712474619</speed>
  <fix>3d</fix>
</trkpt>
<trkpt lat="33.8103139" lon="-118.393878">
  <ele>-26.45</ele>
  <time>2026-09-02T22:07:44Z</time>
  <course>276.34</course>
  <speed>0.01</speed>
  <fix>3d</fix>
</trkpt>
<trkpt lat="33.810314" lon="-118.3938781">
  <ele>-27.399</ele>
  <time>2026-09-02T22:07:44Z</time>
  <course>187.83</course>
  <speed>0.0282842712474619</speed>
  <fix>3d</fix>
</trkpt>
<trkpt lat="33.810314" lon="-118.3938781">
  <ele>-27.462</ele>
  <time>2026-09-02T22:07:44Z</time>
  <course>187.82</course>
  <speed>0.0282842712474619</speed>
  <fix>3d</fix>
</trkpt>
<trkpt lat="33.8103139" lon="-118.393878">
  <ele>-26.45</ele>
  <time>2026-09-02T22:07:44Z</time>
  <course>276.34</course>
  <speed>0.01</speed>
  <fix>3d</fix>
</trkpt>
<trkpt lat="33.810314" lon="-118.3938781">
  <ele>-27.494</ele>
  <time>2026-09-02T22:07:44Z</time>
  <course>187.82</course>
  <speed>0.03605551275463989</speed>
  <fix>3d</fix>
</trkpt>
<trkpt lat="33.810314" lon="-118.3938781">
  <ele>-27.56</ele>
  <time>2026-09-02T22:07:44Z</time>
  <course>187.81</course>
  <speed>0.03605551275463989</speed>
  <fix>3d</fix>
</trkpt>
<trkpt lat="33.8103139" lon="-118.393878">
  <ele>-26.64</ele>
  <time>2026-09-02T22:07:44Z</time>
  <course>276.34</course>
  <speed>0.01</speed>
  <fix>3d</fix>
</trkpt>
<trkpt lat="33.810314" lon="-118.3938781">
  <ele>-27.592</ele>
  <time>2026-09-02T22:07:44Z</time>
  <course>187.81</course>
  <speed>0.03605551275463989</speed>
  <fix>3d</fix>
</trkpt>
<trkpt lat="33.810314" lon="-118.3938781">
  <ele>-27.658</ele>
  <time>2026-09-02T22:07:44Z</time>
  <course>187.8</course>
  <speed>0.03605551275463989</speed>
  <fix>3d</fix>
</trkpt>
<trkpt lat="33.8103139" lon="-118.393878">
  <ele>-26.64</ele>
  <time>2026-09-02T22:07:44Z</time>
  <course>276.34</course>
  <speed>0.01</speed>
  <fix>3d</fix>
</trkpt>
<trkpt lat="33.810314" lon="-118.3938781">
  <ele>-27.692</ele>
  <time>2026-09-02T22:07:44Z</time>
  <course>187.8</course>
  <speed>0.03605551275463989</speed>
  <fix>3d</fix>
</trkpt>
<trkpt lat="33.810314" lon="-118.3938781">
  <ele>-27.756</ele>
  <time>2026-09-02T22:07:44Z</time>
  <course>187.79</course>
  <speed>0.03605551275463989</speed>
  <fix>3d</fix>
</trkpt>
<trkpt lat="33.8103139" lon="-118.3938781">
  <ele>-26.84</ele>
  <time>2026-09-02T22:07:44Z</time>
  <course>276.34</course>
  <speed>0.01</speed>
  <fix>3d</fix>
</trkpt>
<trkpt lat="33.810314" lon="-118.3938782">
  <ele>-27.79</ele>
  <time>2026-09-02T22:07:44Z</time>
  <course>187.79</course>
  <speed>0.03605551275463989</speed>
  <fix>3d</fix>
</trkpt>
<trkpt lat="33.810314" lon="-118.3938782">
  <ele>-27.854</ele>
  <time>2026-09-02T22:07:44Z</time>
  <course>187.78</course>
  <speed>0.03605551275463989</speed>
  <fix>3d</fix>
</trkpt>
<trkpt lat="33.8103139" lon="-118.3938781">
  <ele>-26.84</ele>
  <time>2026-09-02T22:07:44Z</time>
  <course>276.34</course>
  <speed>0.01</speed>
  <fix>3d</fix>
</trkpt>
<trkpt lat="33.810314" lon="-118.3938782">
  <ele>-27.859</ele>
  <time>2026-09-02T22:07:44Z</time>
  <course>187.78</course>
  <speed>0.03605551275463989</speed>
  <fix>3d</fix>
</trkpt>
<trkpt lat="33.810314" lon="-118.3938782">
  <ele>-27.953</ele>
  <time>2026-09-02T22:07:44Z</time>
  <course>187.77</course>
  <speed>0.03605551275463989</speed>
  <fix>3d</fix>
</trkpt>
<trkpt lat="33.8103139" lon="-118.3938781">
  <ele>-27.03</ele>
  <time>2026-09-02T22:07:44Z</time>
  <course>276.34</course>
  <speed>0.01</speed>
  <fix>3d</fix>
</trkpt>
<trkpt lat="33.810314" lon="-118.3938782">
  <ele>-27.989</ele>
  <time>2026-09-02T22:07:44Z</time>
  <course>187.77</course>
  <speed>0.03605551275463989</speed>
  <fix>3d</fix>
</trkpt>
<trkpt lat="33.8103141" lon="-118.3938782">
  <ele>-28.05</ele>
  <time>2026-09-02T22:07:44Z</time>
  <course>187.76</course>
  <speed>0.03605551275463989</speed>
  <fix>3d</fix>
</trkpt>
<trkpt lat="33.8103139" lon="-118.3938781">
  <ele>-27.03</ele>
  <time>2026-09-02T22:07:44Z</time>
  <course>276.34</course>
  <speed>0.01</speed>
  <fix>3d</fix>
</trkpt>
<trkpt lat="33.8103141" lon="-118.3938782">
  <ele>-28.053</ele>
  <time>2026-09-02T22:07:44Z</time>
  <course>187.76</course>
  <speed>0.03605551275463989</speed>
  <fix>3d</fix>
</trkpt>
<trkpt lat="33.8103141" lon="-118.3938782">
  <ele>-28.147</ele>
  <time>2026-09-02T22:07:44Z</time>
  <course>187.75</course>
  <speed>0.03605551275463989</speed>
  <fix>3d</fix>
</trkpt>
<trkpt lat="33.8103139" lon="-118.3938781">
  <ele>-27.22</ele>
  <time>2026-09-02T22:07:44Z</time>
  <course>276.34</course>
  <speed>0.01</speed>
  <fix>3d</fix>
</trkpt>
<trkpt lat="33.8103141" lon="-118.3938782">
  <ele>-28.19</ele>
  <time>2026-09-02T22:07:44Z</time>
  <course>187.74</course>
  <speed>0.03605551275463989</speed>
  <fix>3d</fix>
</trkpt>
<trkpt lat="33.8103141" lon="-118.3938782">
  <ele>-28.242</ele>
  <time>2026-09-02T22:07:44Z</time>
  <course>187.74</course>
  <speed>0.03605551275463989</speed>
  <fix>3d</fix>
</trkpt>
<trkpt lat="33.8103139" lon="-118.3938781">
  <ele>-27.22</ele>
  <time>2026-09-02T22:07:44Z</time>
  <course>276.34</course>
  <speed>0.01</speed>
  <fix>3d</fix>
</trkpt>
<trkpt lat="33.8103141" lon="-118.3938782">
  <ele>-28.281</ele>
  <time>2026-09-02T22:07:44Z</time>
  <course>187.73</course>
  <speed>0.03605551275463989</speed>
  <fix>3d</fix>
</trkpt>
<trkpt lat="33.8103141" lon="-118.3938782">
  <ele>-28.339</ele>
  <time>2026-09-02T22:07:44Z</time>
  <course>187.73</course>
  <speed>0.03605551275463989</speed>
  <fix>3d</fix>
</trkpt>
<trkpt lat="33.8103139" lon="-118.3938781">
  <ele>-27.42</ele>
  <time>2026-09-02T22:07:44Z</time>
  <course>276.34</course>
  <speed>0.01</speed>
  <fix>3d</fix>
</trkpt>
<trkpt lat="33.8103141" lon="-118.3938783">
  <ele>-28.375</ele>
  <time>2026-09-02T22:07:44Z</time>
  <course>187.72</course>
  <speed>0.03605551275463989</speed>
  <fix>3d</fix>
</trkpt>
<trkpt lat="33.8103141" lon="-118.3938783">
  <ele>-28.436</ele>
  <time>2026-09-02T22:07:44Z</time>
  <course>187.72</course>
  <speed>0.03605551275463989</speed>
  <fix>3d</fix>
</trkpt>
<trkpt lat="33.8103139" lon="-118.3938781">
  <ele>-27.42</ele>
  <time>2026-09-02T22:07:44Z</time>
  <course>276.34</course>
  <speed>0.01</speed>
  <fix>3d</fix>
</trkpt>
<trkpt lat="33.8103141" lon="-118.3938783">
  <ele>-28.472</ele>
  <time>2026-09-02T22:07:44Z</time>
  <course>187.71</course>
  <speed>0.03605551275463989</speed>
  <fix>3d</fix>
</trkpt>
<trkpt lat="33.8103141" lon="-118.3938783">
  <ele>-28.533</ele>
  <time>2026-09-02T22:07:44Z</time>
  <course>187.71</course>
  <speed>0.03605551275463989</speed>
  <fix>3d</fix>
</trkpt>
<trkpt lat="33.8103139" lon="-118.3938782">
  <ele>-27.61</ele>
  <time>2026-09-02T22:07:44Z</time>
  <course>276.34</course>
  <speed>0.01</speed>
  <fix>3d</fix>
</trkpt>
<trkpt lat="33.8103141" lon="-118.3938783">
  <ele>-28.562</ele>
  <time>2026-09-02T22:07:44Z</time>
  <course>187.7</course>
  <speed>0.03605551275463989</speed>
  <fix>3d</fix>
</trkpt>
<trkpt lat="33.8103141" lon="-118.3938783">
  <ele>-28.631</ele>
  <time>2026-09-02T22:07:44Z</time>
  <course>187.7</course>
  <speed>0.03605551275463989</speed>
  <fix>3d</fix>
</trkpt>
<trkpt lat="33.8103139" lon="-118.3938782">
  <ele>-27.61</ele>
  <time>2026-09-02T22:07:44Z</time>
  <course>276.34</course>
  <speed>0.01</speed>
  <fix>3d</fix>
</trkpt>
<trkpt lat="33.8103141" lon="-118.3938783">
  <ele>-28.665</ele>
  <time>2026-09-02T22:07:44Z</time>
  <course>187.69</course>
  <speed>0.03605551275463989</speed>
  <fix>3d</fix>
</trkpt>
<trkpt lat="33.8103141" lon="-118.3938783">
  <ele>-28.73</ele>
  <time>2026-09-02T22:07:44Z</time>
  <course>187.68</course>
  <speed>0.03605551275463989</speed>
  <fix>3d</fix>
</trkpt>
<trkpt lat="33.8103139" lon="-118.3938782">
  <ele>-27.81</ele>
  <time>2026-09-02T22:07:44Z</time>
  <course>276.34</course>
  <speed>0.01</speed>
  <fix>3d</fix>
</trkpt>
<trkpt lat="33.8103141" lon="-118.3938783">
  <ele>-28.761</ele>
  <time>2026-09-02T22:07:44Z</time>
  <course>187.68</course>
  <speed>0.03605551275463989</speed>
  <fix>3d</fix>
</trkpt>
<trkpt lat="33.8103141" lon="-118.3938783">
  <ele>-28.829</ele>
  <time>2026-09-02T22:07:44Z</time>
  <course>187.67</course>
  <speed>0.03605551275463989</speed>
  <fix>3d</fix>
</trkpt>
<trkpt lat="33.8103139" lon="-118.3938782">
  <ele>-27.81</ele>
  <time>2026-09-02T22:07:44Z</time>
  <course>276.34</course>
  <speed>0.01</speed>
  <fix>3d</fix>
</trkpt>
<trkpt lat="33.8103141" lon="-118.3938783">
  <ele>-28.861</ele>
  <time>2026-09-02T22:07:44Z</time>
  <course>187.67</course>
  <speed>0.03605551275463989</speed>
  <fix>3d</fix>
</trkpt>
<trkpt lat="33.8103141" lon="-118.3938783">
  <ele>-28.929</ele>
  <time>2026-09-02T22:07:45Z</time>
  <course>187.66</course>
  <speed>0.03605551275463989</speed>
  <fix>3d</fix>
</trkpt>
<trkpt lat="33.8103139" lon="-118.3938782">
  <ele>-28.01</ele>
  <time>2026-09-02T22:07:45Z</time>
  <course>276.34</course>
  <speed>0.01</speed>
  <fix>3d</fix>
</trkpt>
<trkpt lat="33.8103141" lon="-118.3938783">
  <ele>-28.963</ele>
  <time>2026-09-02T22:07:45Z</time>
  <course>187.66</course>
  <speed>0.03605551275463989</speed>
  <fix>3d</fix>
</trkpt>
<trkpt lat="33.8103141" lon="-118.3938784">
  <ele>-29.028</ele>
  <time>2026-09-02T22:07:45Z</time>
  <course>187.65</course>
  <speed>0.03605551275463989</speed>
  <fix>3d</fix>
</trkpt>
<trkpt lat="33.8103139" lon="-118.3938782">
  <ele>-28.01</ele>
  <time>2026-09-02T22:07:45Z</time>
  <course>276.34</course>
  <speed>0.01</speed>
  <fix>3d</fix>
</trkpt>
<trkpt lat="33.8103141" lon="-118.3938784">
  <ele>-29.06</ele>
  <time>2026-09-02T22:07:45Z</time>
  <course>187.65</course>
  <speed>0.03605551275463989</speed>
  <fix>3d</fix>
</trkpt>
<trkpt lat="33.8103141" lon="-118.3938784">
  <ele>-29.128</ele>
  <time>2026-09-02T22:07:45Z</time>
  <course>187.64</course>
  <speed>0.03605551275463989</speed>
  <fix>3d</fix>
</trkpt>
<trkpt lat="33.8103139" lon="-118.3938783">
  <ele>-28.21</ele>
  <time>2026-09-02T22:07:45Z</time>
  <course>276.34</course>
  <speed>0.01</speed>
  <fix>3d</fix>
</trkpt>
<trkpt lat="33.8103141" lon="-118.3938784">
  <ele>-29.133</ele>
  <time>2026-09-02T22:07:45Z</time>
  <course>187.64</course>
  <speed>0.03605551275463989</speed>
  <fix>3d</fix>
</trkpt>
<trkpt lat="33.8103141" lon="-118.3938784">
  <ele>-29.227</ele>
  <time>2026-09-02T22:07:45Z</time>
  <course>187.63</course>
  <speed>0.03605551275463989</speed>
  <fix>3d</fix>
</trkpt>
<trkpt lat="33.8103139" lon="-118.3938783">
  <ele>-28.21</ele>
  <time>2026-09-02T22:07:45Z</time>
  <course>276.34</course>
  <speed>0.01</speed>
  <fix>3d</fix>
</trkpt>
<trkpt lat="33.8103141" lon="-118.3938784">
  <ele>-29.23</ele>
  <time>2026-09-02T22:07:45Z</time>
  <course>187.63</course>
  <speed>0.03605551275463989</speed>
  <fix>3d</fix>
</trkpt>
<trkpt lat="33.8103141" lon="-118.3938784">
  <ele>-29.327</ele>
  <time>2026-09-02T22:07:45Z</time>
  <course>187.62</course>
  <speed>0.03605551275463989</speed>
  <fix>3d</fix>
</trkpt>
<trkpt lat="33.8103139" lon="-118.3938783">
  <ele>-28.41</ele>
  <time>2026-09-02T22:07:45Z</time>
  <course>276.33</course>
  <speed>0.01</speed>
  <fix>3d</fix>
</trkpt>
<trkpt lat="33.8103141" lon="-118.3938784">
  <ele>-29.384</ele>
  <time>2026-09-02T22:07:45Z</time>
  <course>187.62</course>
  <speed>0.03605551275463989</speed>
  <fix>3d</fix>
</trkpt>
<trkpt lat="33.8103141" lon="-118.3938784">
  <ele>-29.426</ele>
  <time>2026-09-02T22:07:45Z</time>
  <course>187.61</course>
  <speed>0.03605551275463989</speed>
  <fix>3d</fix>
</trkpt>
<trkpt lat="33.8103139" lon="-118.3938783">
  <ele>-28.41</ele>
  <time>2026-09-02T22:07:45Z</time>
  <course>276.33</course>
  <speed>0.01</speed>
  <fix>3d</fix>
</trkpt>
<trkpt lat="33.8103141" lon="-118.3938784">
  <ele>-29.525</ele>
  <time>2026-09-02T22:07:45Z</time>
  <course>187.6</course>
  <speed>0.03605551275463989</speed>
  <fix>3d</fix>
</trkpt>
<trkpt lat="33.8103139" lon="-118.3938783">
  <ele>-28.61</ele>
  <time>2026-09-02T22:07:45Z</time>
  <course>276.33</course>
  <speed>0.01</speed>
  <fix>3d</fix>
</trkpt>
<trkpt lat="33.8103141" lon="-118.3938784">
  <ele>-29.528</ele>
  <time>2026-09-02T22:07:45Z</time>
  <course>187.6</course>
  <speed>0.03605551275463989</speed>
  <fix>3d</fix>
</trkpt>
<trkpt lat="33.8103141" lon="-118.3938784">
  <ele>-29.624</ele>
  <time>2026-09-02T22:07:45Z</time>
  <course>187.59</course>
  <speed>0.03605551275463989</speed>
  <fix>3d</fix>
</trkpt>
<trkpt lat="33.8103139" lon="-118.3938783">
  <ele>-28.61</ele>
  <time>2026-09-02T22:07:45Z</time>
  <course>276.33</course>
  <speed>0.01</speed>
  <fix>3d</fix>
</trkpt>
<trkpt lat="33.8103141" lon="-118.3938785">
  <ele>-29.693</ele>
  <time>2026-09-02T22:07:45Z</time>
  <course>187.58</course>
  <speed>0.03605551275463989</speed>
  <fix>3d</fix>
</trkpt>
<trkpt lat="33.8103141" lon="-118.3938785">
  <ele>-29.723</ele>
  <time>2026-09-02T22:07:45Z</time>
  <course>187.58</course>
  <speed>0.0282842712474619</speed>
  <fix>3d</fix>
</trkpt>
<trkpt lat="33.8103139" lon="-118.3938784">
  <ele>-28.8</ele>
  <time>2026-09-02T22:07:45Z</time>
  <course>276.32</course>
  <speed>0.01</speed>
  <fix>3d</fix>
</trkpt>
<trkpt lat="33.8103141" lon="-118.3938785">
  <ele>-29.821</ele>
  <time>2026-09-02T22:07:45Z</time>
  <course>187.57</course>
  <speed>0.0282842712474619</speed>
  <fix>3d</fix>
</trkpt>
<trkpt lat="33.8103139" lon="-118.3938784">
  <ele>-28.8</ele>
  <time>2026-09-02T22:07:45Z</time>
  <course>276.32</course>
  <speed>0.01</speed>
  <fix>3d</fix>
</trkpt>
<trkpt lat="33.8103141" lon="-118.3938785">
  <ele>-29.824</ele>
  <time>2026-09-02T22:07:45Z</time>
  <course>187.57</course>
  <speed>0.0282842712474619</speed>
  <fix>3d</fix>
</trkpt>
<trkpt lat="33.8103141" lon="-118.3938785">
  <ele>-29.92</ele>
  <time>2026-09-02T22:07:45Z</time>
  <course>187.56</course>
  <speed>0.0282842712474619</speed>
  <fix>3d</fix>
</trkpt>
<trkpt lat="33.8103139" lon="-118.3938784">
  <ele>-28.99</ele>
  <time>2026-09-02T22:07:45Z</time>
  <course>276.32</course>
  <speed>0.01</speed>
  <fix>3d</fix>
</trkpt>
<trkpt lat="33.8103141" lon="-118.3938785">
  <ele>-29.961</ele>
  <time>2026-09-02T22:07:45Z</time>
  <course>187.55</course>
  <speed>0.0282842712474619</speed>
  <fix>3d</fix>
</trkpt>
<trkpt lat="33.8103141" lon="-118.3938785">
  <ele>-30.018</ele>
  <time>2026-09-02T22:07:45Z</time>
  <course>187.55</course>
  <speed>0.0282842712474619</speed>
  <fix>3d</fix>
</trkpt>
<trkpt lat="33.8103139" lon="-118.3938784">
  <ele>-28.99</ele>
  <time>2026-09-02T22:07:45Z</time>
  <course>276.32</course>
  <speed>0.01</speed>
  <fix>3d</fix>
</trkpt>
<trkpt lat="33.8103141" lon="-118.3938785">
  <ele>-30.049</ele>
  <time>2026-09-02T22:07:45Z</time>
  <course>187.55</course>
  <speed>0.0282842712474619</speed>
  <fix>3d</fix>
</trkpt>
<trkpt lat="33.8103141" lon="-118.3938785">
  <ele>-30.115</ele>
  <time>2026-09-02T22:07:45Z</time>
  <course>187.54</course>
  <speed>0.0282842712474619</speed>
  <fix>3d</fix>
</trkpt>
<trkpt lat="33.8103139" lon="-118.3938784">
  <ele>-29.18</ele>
  <time>2026-09-02T22:07:45Z</time>
  <course>276.32</course>
  <speed>0.01</speed>
  <fix>3d</fix>
</trkpt>
<trkpt lat="33.8103141" lon="-118.3938785">
  <ele>-30.213</ele>
  <time>2026-09-02T22:07:45Z</time>
  <course>187.53</course>
  <speed>0.0282842712474619</speed>
  <fix>3d</fix>
</trkpt>
<trkpt lat="33.8103139" lon="-118.3938784">
  <ele>-29.18</ele>
  <time>2026-09-02T22:07:45Z</time>
  <course>276.32</course>
  <speed>0.01</speed>
  <fix>3d</fix>
</trkpt>
<trkpt lat="33.8103141" lon="-118.3938786">
  <ele>-30.311</ele>
  <time>2026-09-02T22:07:45Z</time>
  <course>187.52</course>
  <speed>0.0282842712474619</speed>
  <fix>3d</fix>
</trkpt>
<trkpt lat="33.8103139" lon="-118.3938785">
  <ele>-29.37</ele>
  <time>2026-09-02T22:07:45Z</time>
  <course>276.32</course>
  <speed>0.01</speed>
  <fix>3d</fix>
</trkpt>
<trkpt lat="33.8103141" lon="-118.3938786">
  <ele>-30.409</ele>
  <time>2026-09-02T22:07:45Z</time>
  <course>187.51</course>
  <speed>0.0282842712474619</speed>
  <fix>3d</fix>
</trkpt>
<trkpt lat="33.8103139" lon="-118.3938785">
  <ele>-29.37</ele>
  <time>2026-09-02T22:07:45Z</time>
  <course>276.32</course>
  <speed>0.01</speed>
  <fix>3d</fix>
</trkpt>
<trkpt lat="33.8103141" lon="-118.3938786">
  <ele>-30.504</ele>
  <time>2026-09-02T22:07:45Z</time>
  <course>187.5</course>
  <speed>0.0282842712474619</speed>
  <fix>3d</fix>
</trkpt>
<trkpt lat="33.8103139" lon="-118.3938785">
  <ele>-29.56</ele>
  <time>2026-09-02T22:07:45Z</time>
  <course>276.31</course>
  <speed>0.01</speed>
  <fix>3d</fix>
</trkpt>
<trkpt lat="33.8103141" lon="-118.3938786">
  <ele>-30.593</ele>
  <time>2026-09-02T22:07:45Z</time>
  <course>187.49</course>
  <speed>0.0282842712474619</speed>
  <fix>3d</fix>
</trkpt>
<trkpt lat="33.8103139" lon="-118.3938785">
  <ele>-29.56</ele>
  <time>2026-09-02T22:07:45Z</time>
  <course>276.31</course>
  <speed>0.01</speed>
  <fix>3d</fix>
</trkpt>
<trkpt lat="33.8103141" lon="-118.3938786">
  <ele>-30.675</ele>
  <time>2026-09-02T22:07:45Z</time>
  <course>187.48</course>
  <speed>0.0282842712474619</speed>
  <fix>3d</fix>
</trkpt>
<trkpt lat="33.8103139" lon="-118.3938785">
  <ele>-29.75</ele>
  <time>2026-09-02T22:07:45Z</time>
  <course>276.3</course>
  <speed>0.01</speed>
  <fix>3d</fix>
</trkpt>
<trkpt lat="33.8103141" lon="-118.3938786">
  <ele>-30.744</ele>
  <time>2026-09-02T22:07:45Z</time>
  <course>187.47</course>
  <speed>0.0282842712474619</speed>
  <fix>3d</fix>
</trkpt>
<trkpt lat="33.8103139" lon="-118.3938785">
  <ele>-29.75</ele>
  <time>2026-09-02T22:07:45Z</time>
  <course>276.3</course>
  <speed>0.01</speed>
  <fix>3d</fix>
</trkpt>
<trkpt lat="33.8103141" lon="-118.3938786">
  <ele>-30.798</ele>
  <time>2026-09-02T22:07:45Z</time>
  <course>187.46</course>
  <speed>0.0282842712474619</speed>
  <fix>3d</fix>
</trkpt>
<trkpt lat="33.8103139" lon="-118.3938785">
  <ele>-29.91</ele>
  <time>2026-09-02T22:07:45Z</time>
  <course>276.27</course>
  <speed>0.01</speed>
  <fix>3d</fix>
</trkpt>
<trkpt lat="33.8103141" lon="-118.3938787">
  <ele>-30.835</ele>
  <time>2026-09-02T22:07:45Z</time>
  <course>187.45</course>
  <speed>0.03605551275463989</speed>
  <fix>3d</fix>
</trkpt>
<trkpt lat="33.8103139" lon="-118.3938785">
  <ele>-29.91</ele>
  <time>2026-09-02T22:07:45Z</time>
  <course>276.27</course>
  <speed>0.01</speed>
  <fix>3d</fix>
</trkpt>
<trkpt lat="33.8103141" lon="-118.3938787">
  <ele>-30.853</ele>
  <time>2026-09-02T22:07:45Z</time>
  <course>187.44</course>
  <speed>0.03605551275463989</speed>
  <fix>3d</fix>
</trkpt>
<trkpt lat="33.8103139" lon="-118.3938786">
  <ele>-30.02</ele>
  <time>2026-09-02T22:07:45Z</time>
  <course>276.21</course>
  <speed>0.01</speed>
  <fix>3d</fix>
</trkpt>
<trkpt lat="33.8103141" lon="-118.3938787">
  <ele>-30.848</ele>
  <time>2026-09-02T22:07:45Z</time>
  <course>187.43</course>
  <speed>0.03605551275463989</speed>
  <fix>3d</fix>
</trkpt>
<trkpt lat="33.8103139" lon="-118.3938786">
  <ele>-30.02</ele>
  <time>2026-09-02T22:07:45Z</time>
  <course>276.21</course>
  <speed>0.01</speed>
  <fix>3d</fix>
</trkpt>
<trkpt lat="33.8103141" lon="-118.3938787">
  <ele>-30.824</ele>
  <time>2026-09-02T22:07:45Z</time>
  <course>187.42</course>
  <speed>0.03605551275463989</speed>
  <fix>3d</fix>
</trkpt>
<trkpt lat="33.8103139" lon="-118.3938786">
  <ele>-30.06</ele>
  <time>2026-09-02T22:07:45Z</time>
  <course>276.11</course>
  <speed>0.0</speed>
  <fix>3d</fix>
</trkpt>
<trkpt lat="33.8103141" lon="-118.3938787">
  <ele>-30.787</ele>
  <time>2026-09-02T22:07:45Z</time>
  <course>187.41</course>
  <speed>0.03605551275463989</speed>
  <fix>3d</fix>
</trkpt>
<trkpt lat="33.8103139" lon="-118.3938786">
  <ele>-30.06</ele>
  <time>2026-09-02T22:07:45Z</time>
  <course>276.11</course>
  <speed>0.0</speed>
  <fix>3d</fix>
</trkpt>
<trkpt lat="33.8103141" lon="-118.3938787">
  <ele>-30.739</ele>
  <time>2026-09-02T22:07:45Z</time>
  <course>187.4</course>
  <speed>0.03605551275463989</speed>
  <fix>3d</fix>
</trkpt>
<trkpt lat="33.8103139" lon="-118.3938786">
  <ele>-30.02</ele>
  <time>2026-09-02T22:07:45Z</time>
  <course>276.0</course>
  <speed>0.0</speed>
  <fix>3d</fix>
</trkpt>
<trkpt lat="33.8103141" lon="-118.3938787">
  <ele>-30.684</ele>
  <time>2026-09-02T22:07:45Z</time>
  <course>187.39</course>
  <speed>0.03605551275463989</speed>
  <fix>3d</fix>
</trkpt>
<trkpt lat="33.8103139" lon="-118.3938786">
  <ele>-30.02</ele>
  <time>2026-09-02T22:07:45Z</time>
  <course>276.0</course>
  <speed>0.0</speed>
  <fix>3d</fix>
</trkpt>
<trkpt lat="33.8103141" lon="-118.3938787">
  <ele>-30.623</ele>
  <time>2026-09-02T22:07:45Z</time>
  <course>187.38</course>
  <speed>0.03605551275463989</speed>
  <fix>3d</fix>
</trkpt>
<trkpt lat="33.8103139" lon="-118.3938786">
  <ele>-29.95</ele>
  <time>2026-09-02T22:07:45Z</time>
  <course>275.92</course>
  <speed>0.0</speed>
  <fix>3d</fix>
</trkpt>
<trkpt lat="33.8103141" lon="-118.3938788">
  <ele>-30.558</ele>
  <time>2026-09-02T22:07:45Z</time>
  <course>187.37</course>
  <speed>0.03605551275463989</speed>
  <fix>3d</fix>
</trkpt>
<trkpt lat="33.8103139" lon="-118.3938786">
  <ele>-29.95</ele>
  <time>2026-09-02T22:07:45Z</time>
  <course>275.92</course>
  <speed>0.0</speed>
  <fix>3d</fix>
</trkpt>
<trkpt lat="33.8103141" lon="-118.3938788">
  <ele>-30.491</ele>
  <time>2026-09-02T22:07:45Z</time>
  <course>187.36</course>
  <speed>0.03605551275463989</speed>
  <fix>3d</fix>
</trkpt>
<trkpt lat="33.8103139" lon="-118.3938786">
  <ele>-29.85</ele>
  <time>2026-09-02T22:07:45Z</time>
  <course>275.88</course>
  <speed>0.0</speed>
  <fix>3d</fix>
</trkpt>
<trkpt lat="33.8103141" lon="-118.3938788">
  <ele>-30.421</ele>
  <time>2026-09-02T22:07:45Z</time>
  <course>187.35</course>
  <speed>0.03605551275463989</speed>
  <fix>3d</fix>
</trkpt>
<trkpt lat="33.8103139" lon="-118.3938786">
  <ele>-29.85</ele>
  <time>2026-09-02T22:07:45Z</time>
  <course>275.88</course>
  <speed>0.0</speed>
  <fix>3d</fix>
</trkpt>
<trkpt lat="33.8103141" lon="-118.3938788">
  <ele>-30.353</ele>
  <time>2026-09-02T22:07:45Z</time>
  <course>187.34</course>
  <speed>0.0282842712474619</speed>
  <fix>3d</fix>
</trkpt>
<trkpt lat="33.8103139" lon="-118.3938786">
  <ele>-29.73</ele>
  <time>2026-09-02T22:07:45Z</time>
  <course>275.86</course>
  <speed>0.0</speed>
  <fix>3d</fix>
</trkpt>
<trkpt lat="33.8103141" lon="-118.3938788">
  <ele>-30.288</ele>
  <time>2026-09-02T22:07:45Z</time>
  <course>187.33</course>
  <speed>0.0282842712474619</speed>
  <fix>3d</fix>
</trkpt>
<trkpt lat="33.8103139" lon="-118.3938786">
  <ele>-29.73</ele>
  <time>2026-09-02T22:07:45Z</time>
  <course>275.86</course>
  <speed>0.0</speed>
  <fix>3d</fix>
</trkpt>
<trkpt lat="33.8103141" lon="-118.3938788">
  <ele>-30.226</ele>
  <time>2026-09-02T22:07:45Z</time>
  <course>187.32</course>
  <speed>0.0282842712474619</speed>
  <fix>3d</fix>
</trkpt>
<trkpt lat="33.8103139" lon="-118.3938786">
  <ele>-29.61</ele>
  <time>2026-09-02T22:07:45Z</time>
  <course>275.86</course>
  <speed>0.0</speed>
  <fix>3d</fix>
</trkpt>
<trkpt lat="33.8103141" lon="-118.3938788">
  <ele>-30.17</ele>
  <time>2026-09-02T22:07:45Z</time>
  <course>187.31</course>
  <speed>0.0282842712474619</speed>
  <fix>3d</fix>
</trkpt>
<trkpt lat="33.8103139" lon="-118.3938786">
  <ele>-29.61</ele>
  <time>2026-09-02T22:07:45Z</time>
  <course>275.86</course>
  <speed>0.0</speed>
  <fix>3d</fix>
</trkpt>
<trkpt lat="33.8103141" lon="-118.3938788">
  <ele>-30.118</ele>
  <time>2026-09-02T22:07:45Z</time>
  <course>187.3</course>
  <speed>0.0282842712474619</speed>
  <fix>3d</fix>
</trkpt>
<trkpt lat="33.8103139" lon="-118.3938786">
  <ele>-29.5</ele>
  <time>2026-09-02T22:07:45Z</time>
  <course>275.89</course>
  <speed>0.0</speed>
  <fix>3d</fix>
</trkpt>
<trkpt lat="33.8103141" lon="-118.3938788">
  <ele>-30.073</ele>
  <time>2026-09-02T22:07:45Z</time>
  <course>187.29</course>
  <speed>0.0282842712474619</speed>
  <fix>3d</fix>
</trkpt>
<trkpt lat="33.8103139" lon="-118.3938786">
  <ele>-29.5</ele>
  <time>2026-09-02T22:07:45Z</time>
  <course>275.89</course>
  <speed>0.0</speed>
  <fix>3d</fix>
</trkpt>
<trkpt lat="33.8103141" lon="-118.3938788">
  <ele>-30.036</ele>
  <time>2026-09-02T22:07:45Z</time>
  <course>187.28</course>
  <speed>0.0282842712474619</speed>
  <fix>3d</fix>
</trkpt>
<trkpt lat="33.8103139" lon="-118.3938786">
  <ele>-29.41</ele>
  <time>2026-09-02T22:07:45Z</time>
  <course>275.93</course>
  <speed>0.0</speed>
  <fix>3d</fix>
</trkpt>
<trkpt lat="33.8103141" lon="-118.3938788">
  <ele>-30.005</ele>
  <time>2026-09-02T22:07:45Z</time>
  <course>187.27</course>
  <speed>0.0282842712474619</speed>
  <fix>3d</fix>
</trkpt>
<trkpt lat="33.8103139" lon="-118.3938786">
  <ele>-29.41</ele>
  <time>2026-09-02T22:07:45Z</time>
  <course>275.93</course>
  <speed>0.0</speed>
  <fix>3d</fix>
</trkpt>
<trkpt lat="33.8103141" lon="-118.3938788">
  <ele>-29.981</ele>
  <time>2026-09-02T22:07:45Z</time>
  <course>187.26</course>
  <speed>0.0282842712474619</speed>
  <fix>3d</fix>
</trkpt>
<trkpt lat="33.8103139" lon="-118.3938786">
  <ele>-29.34</ele>
  <time>2026-09-02T22:07:45Z</time>
  <course>275.96</course>
  <speed>0.0</speed>
  <fix>3d</fix>
</trkpt>
<trkpt lat="33.8103141" lon="-118.3938788">
  <ele>-29.967</ele>
  <time>2026-09-02T22:07:45Z</time>
  <course>187.25</course>
  <speed>0.0282842712474619</speed>
  <fix>3d</fix>
</trkpt>
<trkpt lat="33.8103139" lon="-118.3938786">
  <ele>-29.34</ele>
  <time>2026-09-02T22:07:45Z</time>
  <course>275.96</course>
  <speed>0.0</speed>
  <fix>3d</fix>
</trkpt>
<trkpt lat="33.8103141" lon="-118.3938788">
  <ele>-29.96</ele>
  <time>2026-09-02T22:07:45Z</time>
  <course>187.24</course>
  <speed>0.022360679774997897</speed>
  <fix>3d</fix>
</trkpt>
<trkpt lat="33.8103139" lon="-118.3938787">
  <ele>-29.29</ele>
  <time>2026-09-02T22:07:45Z</time>
  <course>275.98</course>
  <speed>0.0</speed>
  <fix>3d</fix>
</trkpt>
<trkpt lat="33.8103141" lon="-118.3938788">
  <ele>-29.959</ele>
  <time>2026-09-02T22:07:45Z</time>
  <course>187.23</course>
  <speed>0.022360679774997897</speed>
  <fix>3d</fix>
</trkpt>
<trkpt lat="33.8103139" lon="-118.3938787">
  <ele>-29.29</ele>
  <time>2026-09-02T22:07:45Z</time>
  <course>275.98</course>
  <speed>0.0</speed>
  <fix>3d</fix>
</trkpt>
<trkpt lat="33.8103141" lon="-118.3938788">
  <ele>-29.965</ele>
  <time>2026-09-02T22:07:45Z</time>
  <course>187.22</course>
  <speed>0.022360679774997897</speed>
  <fix>3d</fix>
</trkpt>
<trkpt lat="33.8103139" lon="-118.3938788">
  <ele>-29.27</ele>
  <time>2026-09-02T22:07:45Z</time>
  <course>275.99</course>
  <speed>0.0</speed>
  <fix>3d</fix>
</trkpt>
<trkpt lat="33.8103141" lon="-118.3938788">
  <ele>-29.976</ele>
  <time>2026-09-02T22:07:45Z</time>
  <course>187.21</course>
  <speed>0.022360679774997897</speed>
  <fix>3d</fix>
</trkpt>
<trkpt lat="33.8103139" lon="-118.3938788">
  <ele>-29.27</ele>
  <time>2026-09-02T22:07:45Z</time>
  <course>275.99</course>
  <speed>0.0</speed>
  <fix>3d</fix>
</trkpt>
<trkpt lat="33.8103141" lon="-118.3938788">
  <ele>-29.992</ele>
  <time>2026-09-02T22:07:45Z</time>
  <course>187.2</course>
  <speed>0.022360679774997897</speed>
  <fix>3d</fix>
</trkpt>
<trkpt lat="33.8103139" lon="-118.3938788">
  <ele>-29.28</ele>
  <time>2026-09-02T22:07:45Z</time>
  <course>276.0</course>
  <speed>0.0</speed>
  <fix>3d</fix>
</trkpt>
<trkpt lat="33.8103141" lon="-118.3938788">
  <ele>-30.011</ele>
  <time>2026-09-02T22:07:45Z</time>
  <course>187.19</course>
  <speed>0.022360679774997897</speed>
  <fix>3d</fix>
</trkpt>
<trkpt lat="33.8103139" lon="-118.3938788">
  <ele>-29.28</ele>
  <time>2026-09-02T22:07:45Z</time>
  <course>276.0</course>
  <speed>0.0</speed>
  <fix>3d</fix>
</trkpt>
<trkpt lat="33.8103141" lon="-118.3938788">
  <ele>-30.032</ele>
  <time>2026-09-02T22:07:45Z</time>
  <course>187.18</course>
  <speed>0.022360679774997897</speed>
  <fix>3d</fix>
</trkpt>
<trkpt lat="33.8103139" lon="-118.3938788">
  <ele>-29.3</ele>
  <time>2026-09-02T22:07:45Z</time>
  <course>276.02</course>
  <speed>0.0</speed>
  <fix>3d</fix>
</trkpt>
<trkpt lat="33.8103141" lon="-118.3938789">
  <ele>-30.055</ele>
  <time>2026-09-02T22:07:45Z</time>
  <course>187.17</course>
  <speed>0.0282842712474619</speed>
  <fix>3d</fix>
</trkpt>
<trkpt lat="33.8103139" lon="-118.3938788">
  <ele>-29.3</ele>
  <time>2026-09-02T22:07:45Z</time>
  <course>276.02</course>
  <speed>0.0</speed>
  <fix>3d</fix>
</trkpt>
<trkpt lat="33.8103141" lon="-118.3938789">
  <ele>-30.079</ele>
  <time>2026-09-02T22:07:45Z</time>
  <course>187.16</course>
  <speed>0.0282842712474619</speed>
  <fix>3d</fix>
</trkpt>
<trkpt lat="33.8103139" lon="-118.3938788">
  <ele>-29.34</ele>
  <time>2026-09-02T22:07:45Z</time>
  <course>276.03</course>
  <speed>0.0</speed>
  <fix>3d</fix>
</trkpt>
<trkpt lat="33.8103141" lon="-118.3938789">
  <ele>-30.104</ele>
  <time>2026-09-02T22:07:45Z</time>
  <course>187.15</course>
  <speed>0.0282842712474619</speed>
  <fix>3d</fix>
</trkpt>
<trkpt lat="33.8103139" lon="-118.3938788">
  <ele>-29.34</ele>
  <time>2026-09-02T22:07:45Z</time>
  <course>276.03</course>
  <speed>0.0</speed>
  <fix>3d</fix>
</trkpt>
<trkpt lat="33.8103141" lon="-118.3938789">
  <ele>-30.128</ele>
  <time>2026-09-02T22:07:45Z</time>
  <course>187.14</course>
  <speed>0.0282842712474619</speed>
  <fix>3d</fix>
</trkpt>
<trkpt lat="33.8103139" lon="-118.3938788">
  <ele>-29.38</ele>
  <time>2026-09-02T22:07:45Z</time>
  <course>276.03</course>
  <speed>0.0</speed>
  <fix>3d</fix>
</trkpt>
<trkpt lat="33.8103141" lon="-118.3938789">
  <ele>-30.151</ele>
  <time>2026-09-02T22:07:45Z</time>
  <course>187.13</course>
  <speed>0.0282842712474619</speed>
  <fix>3d</fix>
</trkpt>
<trkpt lat="33.8103139" lon="-118.3938788">
  <ele>-29.38</ele>
  <time>2026-09-02T22:07:45Z</time>
  <course>276.03</course>
  <speed>0.0</speed>
  <fix>3d</fix>
</trkpt>
<trkpt lat="33.8103141" lon="-118.3938789">
  <ele>-30.173</ele>
  <time>2026-09-02T22:07:45Z</time>
  <course>187.12</course>
  <speed>0.0282842712474619</speed>
  <fix>3d</fix>
</trkpt>
<trkpt lat="33.8103139" lon="-118.3938789">
  <ele>-29.42</ele>
  <time>2026-09-02T22:07:45Z</time>
  <course>276.03</course>
  <speed>0.0</speed>
  <fix>3d</fix>
</trkpt>
<trkpt lat="33.8103141" lon="-118.3938789">
  <ele>-30.193</ele>
  <time>2026-09-02T22:07:45Z</time>
  <course>187.11</course>
  <speed>0.0282842712474619</speed>
  <fix>3d</fix>
</trkpt>
<trkpt lat="33.8103139" lon="-118.3938789">
  <ele>-29.42</ele>
  <time>2026-09-02T22:07:45Z</time>
  <course>276.03</course>
  <speed>0.0</speed>
  <fix>3d</fix>
</trkpt>
<trkpt lat="33.8103141" lon="-118.3938789">
  <ele>-30.212</ele>
  <time>2026-09-02T22:07:45Z</time>
  <course>187.1</course>
  <speed>0.0282842712474619</speed>
  <fix>3d</fix>
</trkpt>
<trkpt lat="33.8103139" lon="-118.3938789">
  <ele>-29.46</ele>
  <time>2026-09-02T22:07:45Z</time>
  <course>276.02</course>
  <speed>0.0</speed>
  <fix>3d</fix>
</trkpt>
<trkpt lat="33.8103141" lon="-118.3938789">
  <ele>-30.229</ele>
  <time>2026-09-02T22:07:45Z</time>
  <course>187.09</course>
  <speed>0.0282842712474619</speed>
  <fix>3d</fix>
</trkpt>
<trkpt lat="33.8103139" lon="-118.3938789">
  <ele>-29.46</ele>
  <time>2026-09-02T22:07:45Z</time>
  <course>276.02</course>
  <speed>0.0</speed>
  <fix>3d</fix>
</trkpt>
<trkpt lat="33.8103141" lon="-118.393879">
  <ele>-30.245</ele>
  <time>2026-09-02T22:07:45Z</time>
  <course>187.08</course>
  <speed>0.0282842712474619</speed>
  <fix>3d</fix>
</trkpt>
<trkpt lat="33.8103139" lon="-118.3938789">
  <ele>-29.49</ele>
  <time>2026-09-02T22:07:45Z</time>
  <course>276.02</course>
  <speed>0.0</speed>
  <fix>3d</fix>
</trkpt>
<trkpt lat="33.8103141" lon="-118.393879">
  <ele>-30.258</ele>
  <time>2026-09-02T22:07:45Z</time>
  <course>187.07</course>
  <speed>0.0282842712474619</speed>
  <fix>3d</fix>
</trkpt>
<trkpt lat="33.8103139" lon="-118.3938789">
  <ele>-29.49</ele>
  <time>2026-09-02T22:07:45Z</time>
  <course>276.02</course>
  <speed>0.0</speed>
  <fix>3d</fix>
</trkpt>
<trkpt lat="33.8103141" lon="-118.393879">
  <ele>-30.269</ele>
  <time>2026-09-02T22:07:45Z</time>
  <course>187.06</course>
  <speed>0.0282842712474619</speed>
  <fix>3d</fix>
</trkpt>
<trkpt lat="33.8103139" lon="-118.3938789">
  <ele>-29.52</ele>
  <time>2026-09-02T22:07:45Z</time>
  <course>276.01</course>
  <speed>0.0</speed>
  <fix>3d</fix>
</trkpt>
<trkpt lat="33.8103141" lon="-118.393879">
  <ele>-30.278</ele>
  <time>2026-09-02T22:07:45Z</time>
  <course>187.05</course>
  <speed>0.0282842712474619</speed>
  <fix>3d</fix>
</trkpt>
<trkpt lat="33.8103139" lon="-118.3938789">
  <ele>-29.52</ele>
  <time>2026-09-02T22:07:45Z</time>
  <course>276.01</course>
  <speed>0.0</speed>
  <fix>3d</fix>
</trkpt>
<trkpt lat="33.8103141" lon="-118.393879">
  <ele>-30.283</ele>
  <time>2026-09-02T22:07:45Z</time>
  <course>187.04</course>
  <speed>0.0282842712474619</speed>
  <fix>3d</fix>
</trkpt>
<trkpt lat="33.810314" lon="-118.3938789">
  <ele>-29.53</ele>
  <time>2026-09-02T22:07:45Z</time>
  <course>276.01</course>
  <speed>0.0</speed>
  <fix>3d</fix>
</trkpt>
<trkpt lat="33.8103141" lon="-118.393879">
  <ele>-30.287</ele>
  <time>2026-09-02T22:07:45Z</time>
  <course>187.03</course>
  <speed>0.0282842712474619</speed>
  <fix>3d</fix>
</trkpt>
<trkpt lat="33.810314" lon="-118.3938789">
  <ele>-29.53</ele>
  <time>2026-09-02T22:07:45Z</time>
  <course>276.01</course>
  <speed>0.0</speed>
  <fix>3d</fix>
</trkpt>
<trkpt lat="33.8103141" lon="-118.393879">
  <ele>-30.288</ele>
  <time>2026-09-02T22:07:45Z</time>
  <course>187.01</course>
  <speed>0.0282842712474619</speed>
  <fix>3d</fix>
</trkpt>
<trkpt lat="33.810314" lon="-118.393879">
  <ele>-29.54</ele>
  <time>2026-09-02T22:07:45Z</time>
  <course>275.99</course>
  <speed>0.0</speed>
  <fix>3d</fix>
</trkpt>
<trkpt lat="33.8103141" lon="-118.393879">
  <ele>-30.287</ele>
  <time>2026-09-02T22:07:45Z</time>
  <course>187.0</course>
  <speed>0.0282842712474619</speed>
  <fix>3d</fix>
</trkpt>
<trkpt lat="33.810314" lon="-118.393879">
  <ele>-29.54</ele>
  <time>2026-09-02T22:07:45Z</time>
  <course>275.99</course>
  <speed>0.0</speed>
  <fix>3d</fix>
</trkpt>
<trkpt lat="33.8103141" lon="-118.393879">
  <ele>-30.284</ele>
  <time>2026-09-02T22:07:45Z</time>
  <course>186.99</course>
  <speed>0.0282842712474619</speed>
  <fix>3d</fix>
</trkpt>
<trkpt lat="33.810314" lon="-118.393879">
  <ele>-29.54</ele>
  <time>2026-09-02T22:07:45Z</time>
  <course>275.98</course>
  <speed>0.0</speed>
  <fix>3d</fix>
</trkpt>
<trkpt lat="33.8103141" lon="-118.3938791">
  <ele>-30.278</ele>
  <time>2026-09-02T22:07:45Z</time>
  <course>186.98</course>
  <speed>0.0282842712474619</speed>
  <fix>3d</fix>
</trkpt>
<trkpt lat="33.810314" lon="-118.393879">
  <ele>-29.54</ele>
  <time>2026-09-02T22:07:45Z</time>
  <course>275.98</course>
  <speed>0.0</speed>
  <fix>3d</fix>
</trkpt>
<trkpt lat="33.8103141" lon="-118.3938791">
  <ele>-30.271</ele>
  <time>2026-09-02T22:07:45Z</time>
  <course>186.97</course>
  <speed>0.0282842712474619</speed>
  <fix>3d</fix>
</trkpt>
<trkpt lat="33.810314" lon="-118.393879">
  <ele>-29.53</ele>
  <time>2026-09-02T22:07:45Z</time>
  <course>275.97</course>
  <speed>0.0</speed>
  <fix>3d</fix>
</trkpt>
<trkpt lat="33.8103141" lon="-118.3938791">
  <ele>-30.263</ele>
  <time>2026-09-02T22:07:45Z</time>
  <course>186.96</course>
  <speed>0.0282842712474619</speed>
  <fix>3d</fix>
</trkpt>
<trkpt lat="33.810314" lon="-118.393879">
  <ele>-29.53</ele>
  <time>2026-09-02T22:07:45Z</time>
  <course>275.97</course>
  <speed>0.0</speed>
  <fix>3d</fix>
</trkpt>
<trkpt lat="33.8103141" lon="-118.3938791">
  <ele>-30.255</ele>
  <time>2026-09-02T22:07:45Z</time>
  <course>186.95</course>
  <speed>0.0282842712474619</speed>
  <fix>3d</fix>
</trkpt>
<trkpt lat="33.810314" lon="-118.393879">
  <ele>-29.52</ele>
  <time>2026-09-02T22:07:45Z</time>
  <course>275.97</course>
  <speed>0.0</speed>
  <fix>3d</fix>
</trkpt>
<trkpt lat="33.8103141" lon="-118.3938791">
  <ele>-30.246</ele>
  <time>2026-09-02T22:07:45Z</time>
  <course>186.94</course>
  <speed>0.0282842712474619</speed>
  <fix>3d</fix>
</trkpt>
<trkpt lat="33.810314" lon="-118.393879">
  <ele>-29.52</ele>
  <time>2026-09-02T22:07:45Z</time>
  <course>275.97</course>
  <speed>0.0</speed>
  <fix>3d</fix>
</trkpt>
<trkpt lat="33.8103141" lon="-118.3938791">
  <ele>-30.236</ele>
  <time>2026-09-02T22:07:45Z</time>
  <course>186.93</course>
  <speed>0.0282842712474619</speed>
  <fix>3d</fix>
</trkpt>
<trkpt lat="33.810314" lon="-118.393879">
  <ele>-29.51</ele>
  <time>2026-09-02T22:07:45Z</time>
  <course>275.97</course>
  <speed>0.0</speed>
  <fix>3d</fix>
</trkpt>
<trkpt lat="33.8103141" lon="-118.3938791">
  <ele>-30.226</ele>
  <time>2026-09-02T22:07:45Z</time>
  <course>186.92</course>
  <speed>0.0282842712474619</speed>
  <fix>3d</fix>
</trkpt>
<trkpt lat="33.810314" lon="-118.393879">
  <ele>-29.51</ele>
  <time>2026-09-02T22:07:45Z</time>
  <course>275.97</course>
  <speed>0.0</speed>
  <fix>3d</fix>
</trkpt>
<trkpt lat="33.8103141" lon="-118.3938791">
  <ele>-30.216</ele>
  <time>2026-09-02T22:07:45Z</time>
  <course>186.91</course>
  <speed>0.0282842712474619</speed>
  <fix>3d</fix>
</trkpt>
<trkpt lat="33.810314" lon="-118.3938791">
  <ele>-29.49</ele>
  <time>2026-09-02T22:07:45Z</time>
  <course>275.96</course>
  <speed>0.0</speed>
  <fix>3d</fix>
</trkpt>
<trkpt lat="33.8103141" lon="-118.3938791">
  <ele>-30.207</ele>
  <time>2026-09-02T22:07:45Z</time>
  <course>186.9</course>
  <speed>0.0282842712474619</speed>
  <fix>3d</fix>
</trkpt>
<trkpt lat="33.810314" lon="-118.3938791">
  <ele>-29.49</ele>
  <time>2026-09-02T22:07:45Z</time>
  <course>275.96</course>
  <speed>0.0</speed>
  <fix>3d</fix>
</trkpt>
<trkpt lat="33.8103141" lon="-118.3938791">
  <ele>-30.199</ele>
  <time>2026-09-02T22:07:45Z</time>
  <course>186.88</course>
  <speed>0.0282842712474619</speed>
  <fix>3d</fix>
</trkpt>
<trkpt lat="33.810314" lon="-118.3938791">
  <ele>-29.47</ele>
  <time>2026-09-02T22:07:45Z</time>
  <course>275.96</course>
  <speed>0.0</speed>
  <fix>3d</fix>
</trkpt>
<trkpt lat="33.8103141" lon="-118.3938792">
  <ele>-30.193</ele>
  <time>2026-09-02T22:07:45Z</time>
  <course>186.87</course>
  <speed>0.0282842712474619</speed>
  <fix>3d</fix>
</trkpt>
<trkpt lat="33.810314" lon="-118.3938791">
  <ele>-29.47</ele>
  <time>2026-09-02T22:07:45Z</time>
  <course>275.96</course>
  <speed>0.0</speed>
  <fix>3d</fix>
</trkpt>
<trkpt lat="33.8103141" lon="-118.3938792">
  <ele>-30.188</ele>
  <time>2026-09-02T22:07:45Z</time>
  <course>186.86</course>
  <speed>0.0282842712474619</speed>
  <fix>3d</fix>
</trkpt>
<trkpt lat="33.810314" lon="-118.3938791">
  <ele>-29.46</ele>
  <time>2026-09-02T22:07:45Z</time>
  <course>275.96</course>
  <speed>0.0</speed>
  <fix>3d</fix>
</trkpt>
<trkpt lat="33.8103141" lon="-118.3938792">
  <ele>-30.184</ele>
  <time>2026-09-02T22:07:45Z</time>
  <course>186.85</course>
  <speed>0.0282842712474619</speed>
  <fix>3d</fix>
</trkpt>
<trkpt lat="33.810314" lon="-118.3938791">
  <ele>-29.46</ele>
  <time>2026-09-02T22:07:45Z</time>
  <course>275.96</course>
  <speed>0.0</speed>
  <fix>3d</fix>
</trkpt>
<trkpt lat="33.8103141" lon="-118.3938792">
  <ele>-30.182</ele>
  <time>2026-09-02T22:07:45Z</time>
  <course>186.84</course>
  <speed>0.0282842712474619</speed>
  <fix>3d</fix>
</trkpt>
<trkpt lat="33.810314" lon="-118.3938791">
  <ele>-29.45</ele>
  <time>2026-09-02T22:07:45Z</time>
  <course>275.97</course>
  <speed>0.0</speed>
  <fix>3d</fix>
</trkpt>
<trkpt lat="33.8103141" lon="-118.3938792">
  <ele>-30.181</ele>
  <time>2026-09-02T22:07:45Z</time>
  <course>186.83</course>
  <speed>0.0282842712474619</speed>
  <fix>3d</fix>
</trkpt>
<trkpt lat="33.810314" lon="-118.3938791">
  <ele>-29.45</ele>
  <time>2026-09-02T22:07:45Z</time>
  <course>275.97</course>
  <speed>0.0</speed>
  <fix>3d</fix>
</trkpt>
<trkpt lat="33.8103141" lon="-118.3938792">
  <ele>-30.182</ele>
  <time>2026-09-02T22:07:45Z</time>
  <course>186.82</course>
  <speed>0.0282842712474619</speed>
  <fix>3d</fix>
</trkpt>
<trkpt lat="33.810314" lon="-118.3938791">
  <ele>-29.45</ele>
  <time>2026-09-02T22:07:45Z</time>
  <course>275.97</course>
  <speed>0.0</speed>
  <fix>3d</fix>
</trkpt>
<trkpt lat="33.8103141" lon="-118.3938792">
  <ele>-30.182</ele>
  <time>2026-09-02T22:07:45Z</time>
  <course>186.81</course>
  <speed>0.0282842712474619</speed>
  <fix>3d</fix>
</trkpt>
<trkpt lat="33.810314" lon="-118.3938791">
  <ele>-29.45</ele>
  <time>2026-09-02T22:07:45Z</time>
  <course>275.97</course>
  <speed>0.0</speed>
  <fix>3d</fix>
</trkpt>
<trkpt lat="33.8103141" lon="-118.3938792">
  <ele>-30.183</ele>
  <time>2026-09-02T22:07:45Z</time>
  <course>186.8</course>
  <speed>0.0282842712474619</speed>
  <fix>3d</fix>
</trkpt>
<trkpt lat="33.810314" lon="-118.3938791">
  <ele>-29.45</ele>
  <time>2026-09-02T22:07:45Z</time>
  <course>275.97</course>
  <speed>0.0</speed>
  <fix>3d</fix>
</trkpt>
<trkpt lat="33.8103141" lon="-118.3938792">
  <ele>-30.185</ele>
  <time>2026-09-02T22:07:45Z</time>
  <course>186.79</course>
  <speed>0.0282842712474619</speed>
  <fix>3d</fix>
</trkpt>
<trkpt lat="33.810314" lon="-118.3938791">
  <ele>-29.45</ele>
  <time>2026-09-02T22:07:45Z</time>
  <course>275.97</course>
  <speed>0.0</speed>
  <fix>3d</fix>
</trkpt>
<trkpt lat="33.8103141" lon="-118.3938792">
  <ele>-30.187</ele>
  <time>2026-09-02T22:07:45Z</time>
  <course>186.78</course>
  <speed>0.0282842712474619</speed>
  <fix>3d</fix>
</trkpt>
<trkpt lat="33.810314" lon="-118.3938792">
  <ele>-29.45</ele>
  <time>2026-09-02T22:07:45Z</time>
  <course>275.97</course>
  <speed>0.0</speed>
  <fix>3d</fix>
</trkpt>
<trkpt lat="33.8103141" lon="-118.3938793">
  <ele>-30.19</ele>
  <time>2026-09-02T22:07:45Z</time>
  <course>186.77</course>
  <speed>0.0282842712474619</speed>
  <fix>3d</fix>
</trkpt>
<trkpt lat="33.810314" lon="-118.3938792">
  <ele>-29.45</ele>
  <time>2026-09-02T22:07:45Z</time>
  <course>275.97</course>
  <speed>0.0</speed>
  <fix>3d</fix>
</trkpt>
<trkpt lat="33.8103141" lon="-118.3938793">
  <ele>-30.193</ele>
  <time>2026-09-02T22:07:45Z</time>
  <course>186.76</course>
  <speed>0.0282842712474619</speed>
  <fix>3d</fix>
</trkpt>
<trkpt lat="33.810314" lon="-118.3938792">
  <ele>-29.45</ele>
  <time>2026-09-02T22:07:45Z</time>
  <course>275.97</course>
  <speed>0.0</speed>
  <fix>3d</fix>
</trkpt>
<trkpt lat="33.8103141" lon="-118.3938793">
  <ele>-30.196</ele>
  <time>2026-09-02T22:07:45Z</time>
  <course>186.74</course>
  <speed>0.0282842712474619</speed>
  <fix>3d</fix>
</trkpt>
<trkpt lat="33.810314" lon="-118.3938792">
  <ele>-29.45</ele>
  <time>2026-09-02T22:07:45Z</time>
  <course>275.97</course>
  <speed>0.0</speed>
  <fix>3d</fix>
</trkpt>
<trkpt lat="33.8103141" lon="-118.3938793">
  <ele>-30.2</ele>
  <time>2026-09-02T22:07:45Z</time>
  <course>186.73</course>
  <speed>0.0282842712474619</speed>
  <fix>3d</fix>
</trkpt>
<trkpt lat="33.810314" lon="-118.3938792">
  <ele>-29.46</ele>
  <time>2026-09-02T22:07:45Z</time>
  <course>275.97</course>
  <speed>0.0</speed>
  <fix>3d</fix>
</trkpt>
<trkpt lat="33.8103141" lon="-118.3938793">
  <ele>-30.203</ele>
  <time>2026-09-02T22:07:45Z</time>
  <course>186.72</course>
  <speed>0.0282842712474619</speed>
  <fix>3d</fix>
</trkpt>
<trkpt lat="33.810314" lon="-118.3938792">
  <ele>-29.46</ele>
  <time>2026-09-02T22:07:45Z</time>
  <course>275.97</course>
  <speed>0.0</speed>
  <fix>3d</fix>
</trkpt>
<trkpt lat="33.8103142" lon="-118.3938793">
  <ele>-30.207</ele>
  <time>2026-09-02T22:07:45Z</time>
  <course>186.71</course>
  <speed>0.0282842712474619</speed>
  <fix>3d</fix>
</trkpt>
<trkpt lat="33.810314" lon="-118.3938792">
  <ele>-29.47</ele>
  <time>2026-09-02T22:07:45Z</time>
  <course>275.97</course>
  <speed>0.0</speed>
  <fix>3d</fix>
</trkpt>
<trkpt lat="33.8103142" lon="-118.3938793">
  <ele>-30.21</ele>
  <time>2026-09-02T22:07:45Z</time>
  <course>186.7</course>
  <speed>0.0282842712474619</speed>
  <fix>3d</fix>
</trkpt>
<trkpt lat="33.810314" lon="-118.3938792">
  <ele>-29.47</ele>
  <time>2026-09-02T22:07:45Z</time>
  <course>275.97</course>
  <speed>0.0</speed>
  <fix>3d</fix>
</trkpt>
<trkpt lat="33.8103142" lon="-118.3938793">
  <ele>-30.213</ele>
  <time>2026-09-02T22:07:45Z</time>
  <course>186.69</course>
  <speed>0.0282842712474619</speed>
  <fix>3d</fix>
</trkpt>
<trkpt lat="33.810314" lon="-118.3938792">
  <ele>-29.47</ele>
  <time>2026-09-02T22:07:45Z</time>
  <course>275.97</course>
  <speed>0.0</speed>
  <fix>3d</fix>
</trkpt>
<trkpt lat="33.8103142" lon="-118.3938793">
  <ele>-30.215</ele>
  <time>2026-09-02T22:07:45Z</time>
  <course>186.68</course>
  <speed>0.0282842712474619</speed>
  <fix>3d</fix>
</trkpt>
<trkpt lat="33.810314" lon="-118.3938792">
  <ele>-29.47</ele>
  <time>2026-09-02T22:07:45Z</time>
  <course>275.97</course>
  <speed>0.0</speed>
  <fix>3d</fix>
</trkpt>
<trkpt lat="33.8103142" lon="-118.3938793">
  <ele>-30.217</ele>
  <time>2026-09-02T22:07:45Z</time>
  <course>186.67</course>
  <speed>0.0282842712474619</speed>
  <fix>3d</fix>
</trkpt>
<trkpt lat="33.810314" lon="-118.3938792">
  <ele>-29.48</ele>
  <time>2026-09-02T22:07:45Z</time>
  <course>275.97</course>
  <speed>0.0</speed>
  <fix>3d</fix>
</trkpt>
<trkpt lat="33.8103142" lon="-118.3938793">
  <ele>-30.219</ele>
  <time>2026-09-02T22:07:45Z</time>
  <course>186.66</course>
  <speed>0.0282842712474619</speed>
  <fix>3d</fix>
</trkpt>
<trkpt lat="33.810314" lon="-118.3938792">
  <ele>-29.48</ele>
  <time>2026-09-02T22:07:45Z</time>
  <course>275.97</course>
  <speed>0.0</speed>
  <fix>3d</fix>
</trkpt>
<trkpt lat="33.8103142" lon="-118.3938793">
  <ele>-30.219</ele>
  <time>2026-09-02T22:07:45Z</time>
  <course>186.65</course>
  <speed>0.0282842712474619</speed>
  <fix>3d</fix>
</trkpt>
<trkpt lat="33.810314" lon="-118.3938793">
  <ele>-29.48</ele>
  <time>2026-09-02T22:07:45Z</time>
  <course>275.97</course>
  <speed>0.0</speed>
  <fix>3d</fix>
</trkpt>
<trkpt lat="33.8103142" lon="-118.3938794">
  <ele>-30.22</ele>
  <time>2026-09-02T22:07:45Z</time>
  <course>186.64</course>
  <speed>0.0282842712474619</speed>
  <fix>3d</fix>
</trkpt>
<trkpt lat="33.810314" lon="-118.3938793">
  <ele>-29.48</ele>
  <time>2026-09-02T22:07:45Z</time>
  <course>275.97</course>
  <speed>0.0</speed>
  <fix>3d</fix>
</trkpt>
<trkpt lat="33.8103142" lon="-118.3938794">
  <ele>-30.221</ele>
  <time>2026-09-02T22:07:45Z</time>
  <course>186.62</course>
  <speed>0.0282842712474619</speed>
  <fix>3d</fix>
</trkpt>
<trkpt lat="33.810314" lon="-118.3938793">
  <ele>-29.48</ele>
  <time>2026-09-02T22:07:45Z</time>
  <course>275.97</course>
  <speed>0.0</speed>
  <fix>3d</fix>
</trkpt>
<trkpt lat="33.8103142" lon="-118.3938794">
  <ele>-30.222</ele>
  <time>2026-09-02T22:07:45Z</time>
  <course>186.61</course>
  <speed>0.0282842712474619</speed>
  <fix>3d</fix>
</trkpt>
<trkpt lat="33.810314" lon="-118.3938793">
  <ele>-29.48</ele>
  <time>2026-09-02T22:07:45Z</time>
  <course>275.97</course>
  <speed>0.0</speed>
  <fix>3d</fix>
</trkpt>
<trkpt lat="33.8103142" lon="-118.3938794">
  <ele>-30.222</ele>
  <time>2026-09-02T22:07:45Z</time>
  <course>186.6</course>
  <speed>0.0282842712474619</speed>
  <fix>3d</fix>
</trkpt>
<trkpt lat="33.810314" lon="-118.3938793">
  <ele>-29.49</ele>
  <time>2026-09-02T22:07:45Z</time>
  <course>275.96</course>
  <speed>0.0</speed>
  <fix>3d</fix>
</trkpt>
<trkpt lat="33.8103142" lon="-118.3938794">
  <ele>-30.223</ele>
  <time>2026-09-02T22:07:45Z</time>
  <course>186.59</course>
  <speed>0.0282842712474619</speed>
  <fix>3d</fix>
</trkpt>
<trkpt lat="33.810314" lon="-118.3938793">
  <ele>-29.49</ele>
  <time>2026-09-02T22:07:45Z</time>
  <course>275.96</course>
  <speed>0.0</speed>
  <fix>3d</fix>
</trkpt>
<trkpt lat="33.8103142" lon="-118.3938794">
  <ele>-30.222</ele>
  <time>2026-09-02T22:07:45Z</time>
  <course>186.58</course>
  <speed>0.0282842712474619</speed>
  <fix>3d</fix>
</trkpt>
<trkpt lat="33.810314" lon="-118.3938793">
  <ele>-29.49</ele>
  <time>2026-09-02T22:07:45Z</time>
  <course>275.96</course>
  <speed>0.0</speed>
  <fix>3d</fix>
</trkpt>
<trkpt lat="33.8103142" lon="-118.3938794">
  <ele>-30.221</ele>
  <time>2026-09-02T22:07:45Z</time>
  <course>186.57</course>
  <speed>0.0282842712474619</speed>
  <fix>3d</fix>
</trkpt>
<trkpt lat="33.810314" lon="-118.3938793">
  <ele>-29.49</ele>
  <time>2026-09-02T22:07:45Z</time>
  <course>275.96</course>
  <speed>0.0</speed>
  <fix>3d</fix>
</trkpt>
<trkpt lat="33.8103142" lon="-118.3938794">
  <ele>-30.22</ele>
  <time>2026-09-02T22:07:45Z</time>
  <course>186.56</course>
  <speed>0.0282842712474619</speed>
  <fix>3d</fix>
</trkpt>
<trkpt lat="33.810314" lon="-118.3938793">
  <ele>-29.49</ele>
  <time>2026-09-02T22:07:45Z</time>
  <course>275.96</course>
  <speed>0.0</speed>
  <fix>3d</fix>
</trkpt>
<trkpt lat="33.8103142" lon="-118.3938794">
  <ele>-30.218</ele>
  <time>2026-09-02T22:07:45Z</time>
  <course>186.55</course>
  <speed>0.0282842712474619</speed>
  <fix>3d</fix>
</trkpt>
<trkpt lat="33.810314" lon="-118.3938793">
  <ele>-29.49</ele>
  <time>2026-09-02T22:07:45Z</time>
  <course>275.96</course>
  <speed>0.0</speed>
  <fix>3d</fix>
</trkpt>
<trkpt lat="33.8103142" lon="-118.3938794">
  <ele>-30.216</ele>
  <time>2026-09-02T22:07:45Z</time>
  <course>186.54</course>
  <speed>0.0282842712474619</speed>
  <fix>3d</fix>
</trkpt>
<trkpt lat="33.810314" lon="-118.3938793">
  <ele>-29.48</ele>
  <time>2026-09-02T22:07:45Z</time>
  <course>275.96</course>
  <speed>0.0</speed>
  <fix>3d</fix>
</trkpt>
<trkpt lat="33.8103142" lon="-118.3938794">
  <ele>-30.214</ele>
  <time>2026-09-02T22:07:45Z</time>
  <course>186.53</course>
  <speed>0.0282842712474619</speed>
  <fix>3d</fix>
</trkpt>
<trkpt lat="33.810314" lon="-118.3938793">
  <ele>-29.48</ele>
  <time>2026-09-02T22:07:45Z</time>
  <course>275.96</course>
  <speed>0.0</speed>
  <fix>3d</fix>
</trkpt>
<trkpt lat="33.8103142" lon="-118.3938794">
  <ele>-30.213</ele>
  <time>2026-09-02T22:07:45Z</time>
  <course>186.52</course>
  <speed>0.0282842712474619</speed>
  <fix>3d</fix>
</trkpt>
<trkpt lat="33.810314" lon="-118.3938794">
  <ele>-29.48</ele>
  <time>2026-09-02T22:07:45Z</time>
  <course>275.96</course>
  <speed>0.0</speed>
  <fix>3d</fix>
</trkpt>
<trkpt lat="33.8103142" lon="-118.3938795">
  <ele>-30.211</ele>
  <time>2026-09-02T22:07:45Z</time>
  <course>186.51</course>
  <speed>0.0282842712474619</speed>
  <fix>3d</fix>
</trkpt>
<trkpt lat="33.810314" lon="-118.3938794">
  <ele>-29.48</ele>
  <time>2026-09-02T22:07:45Z</time>
  <course>275.96</course>
  <speed>0.0</speed>
  <fix>3d</fix>
</trkpt>
<trkpt lat="33.8103142" lon="-118.3938795">
  <ele>-30.21</ele>
  <time>2026-09-02T22:07:45Z</time>
  <course>186.49</course>
  <speed>0.0282842712474619</speed>
  <fix>3d</fix>
</trkpt>
<trkpt lat="33.810314" lon="-118.3938794">
  <ele>-29.48</ele>
  <time>2026-09-02T22:07:45Z</time>
  <course>275.96</course>
  <speed>0.0</speed>
  <fix>3d</fix>
</trkpt>
<trkpt lat="33.8103142" lon="-118.3938795">
  <ele>-30.21</ele>
  <time>2026-09-02T22:07:45Z</time>
  <course>186.48</course>
  <speed>0.0282842712474619</speed>
  <fix>3d</fix>
</trkpt>
<trkpt lat="33.810314" lon="-118.3938794">
  <ele>-29.48</ele>
  <time>2026-09-02T22:07:45Z</time>
  <course>275.96</course>
  <speed>0.0</speed>
  <fix>3d</fix>
</trkpt>
<trkpt lat="33.8103142" lon="-118.3938795">
  <ele>-30.209</ele>
  <time>2026-09-02T22:07:45Z</time>
  <course>186.47</course>
  <speed>0.0282842712474619</speed>
  <fix>3d</fix>
</trkpt>
<trkpt lat="33.810314" lon="-118.3938794">
  <ele>-29.48</ele>
  <time>2026-09-02T22:07:45Z</time>
  <course>275.96</course>
  <speed>0.0</speed>
  <fix>3d</fix>
</trkpt>
<trkpt lat="33.8103142" lon="-118.3938795">
  <ele>-30.209</ele>
  <time>2026-09-02T22:07:45Z</time>
  <course>186.46</course>
  <speed>0.0282842712474619</speed>
  <fix>3d</fix>
</trkpt>
<trkpt lat="33.810314" lon="-118.3938794">
  <ele>-29.48</ele>
  <time>2026-09-02T22:07:45Z</time>
  <course>275.96</course>
  <speed>0.0</speed>
  <fix>3d</fix>
</trkpt>
<trkpt lat="33.8103142" lon="-118.3938795">
  <ele>-30.209</ele>
  <time>2026-09-02T22:07:45Z</time>
  <course>186.45</course>
  <speed>0.0282842712474619</speed>
  <fix>3d</fix>
</trkpt>
<trkpt lat="33.810314" lon="-118.3938794">
  <ele>-29.48</ele>
  <time>2026-09-02T22:07:45Z</time>
  <course>275.96</course>
  <speed>0.0</speed>
  <fix>3d</fix>
</trkpt>
<trkpt lat="33.8103142" lon="-118.3938795">
  <ele>-30.209</ele>
  <time>2026-09-02T22:07:45Z</time>
  <course>186.44</course>
  <speed>0.0282842712474619</speed>
  <fix>3d</fix>
</trkpt>
<trkpt lat="33.810314" lon="-118.3938794">
  <ele>-29.48</ele>
  <time>2026-09-02T22:07:45Z</time>
  <course>275.96</course>
  <speed>0.0</speed>
  <fix>3d</fix>
</trkpt>
<trkpt lat="33.8103142" lon="-118.3938795">
  <ele>-30.209</ele>
  <time>2026-09-02T22:07:45Z</time>
  <course>186.43</course>
  <speed>0.0282842712474619</speed>
  <fix>3d</fix>
</trkpt>
<trkpt lat="33.810314" lon="-118.3938794">
  <ele>-29.48</ele>
  <time>2026-09-02T22:07:45Z</time>
  <course>275.96</course>
  <speed>0.0</speed>
  <fix>3d</fix>
</trkpt>
<trkpt lat="33.8103142" lon="-118.3938795">
  <ele>-30.209</ele>
  <time>2026-09-02T22:07:45Z</time>
  <course>186.42</course>
  <speed>0.0282842712474619</speed>
  <fix>3d</fix>
</trkpt>
<trkpt lat="33.810314" lon="-118.3938794">
  <ele>-29.48</ele>
  <time>2026-09-02T22:07:45Z</time>
  <course>275.96</course>
  <speed>0.0</speed>
  <fix>3d</fix>
</trkpt>
<trkpt lat="33.8103142" lon="-118.3938795">
  <ele>-30.209</ele>
  <time>2026-09-02T22:07:45Z</time>
  <course>186.41</course>
  <speed>0.0282842712474619</speed>
  <fix>3d</fix>
</trkpt>
<trkpt lat="33.810314" lon="-118.3938794">
  <ele>-29.48</ele>
  <time>2026-09-02T22:07:45Z</time>
  <course>275.96</course>
  <speed>0.0</speed>
  <fix>3d</fix>
</trkpt>
<trkpt lat="33.8103142" lon="-118.3938795">
  <ele>-30.21</ele>
  <time>2026-09-02T22:07:45Z</time>
  <course>186.4</course>
  <speed>0.0282842712474619</speed>
  <fix>3d</fix>
</trkpt>
<trkpt lat="33.810314" lon="-118.3938794">
  <ele>-29.48</ele>
  <time>2026-09-02T22:07:45Z</time>
  <course>275.96</course>
  <speed>0.0</speed>
  <fix>3d</fix>
</trkpt>
<trkpt lat="33.8103141" lon="-118.3938795">
  <ele>-30.21</ele>
  <time>2026-09-02T22:07:45Z</time>
  <course>186.39</course>
  <speed>0.0282842712474619</speed>
  <fix>3d</fix>
</trkpt>
<trkpt lat="33.810314" lon="-118.3938795">
  <ele>-29.48</ele>
  <time>2026-09-02T22:07:45Z</time>
  <course>275.96</course>
  <speed>0.0</speed>
  <fix>3d</fix>
</trkpt>
<trkpt lat="33.8103141" lon="-118.3938795">
  <ele>-30.21</ele>
  <time>2026-09-02T22:07:45Z</time>
  <course>186.37</course>
  <speed>0.0282842712474619</speed>
  <fix>3d</fix>
</trkpt>
<trkpt lat="33.810314" lon="-118.3938795">
  <ele>-29.48</ele>
  <time>2026-09-02T22:07:45Z</time>
  <course>275.96</course>
  <speed>0.0</speed>
  <fix>3d</fix>
</trkpt>
<trkpt lat="33.8103141" lon="-118.3938796">
  <ele>-30.21</ele>
  <time>2026-09-02T22:07:45Z</time>
  <course>186.36</course>
  <speed>0.0282842712474619</speed>
  <fix>3d</fix>
</trkpt>
<trkpt lat="33.810314" lon="-118.3938795">
  <ele>-29.48</ele>
  <time>2026-09-02T22:07:45Z</time>
  <course>275.96</course>
  <speed>0.0</speed>
  <fix>3d</fix>
</trkpt>
<trkpt lat="33.8103141" lon="-118.3938796">
  <ele>-30.209</ele>
  <time>2026-09-02T22:07:45Z</time>
  <course>186.35</course>
  <speed>0.0282842712474619</speed>
  <fix>3d</fix>
</trkpt>
<trkpt lat="33.810314" lon="-118.3938795">
  <ele>-29.48</ele>
  <time>2026-09-02T22:07:45Z</time>
  <course>275.96</course>
  <speed>0.0</speed>
  <fix>3d</fix>
</trkpt>
<trkpt lat="33.8103141" lon="-118.3938796">
  <ele>-30.209</ele>
  <time>2026-09-02T22:07:45Z</time>
  <course>186.34</course>
  <speed>0.0282842712474619</speed>
  <fix>3d</fix>
</trkpt>
<trkpt lat="33.810314" lon="-118.3938795">
  <ele>-29.47</ele>
  <time>2026-09-02T22:07:45Z</time>
  <course>275.96</course>
  <speed>0.0</speed>
  <fix>3d</fix>
</trkpt>
<trkpt lat="33.8103141" lon="-118.3938796">
  <ele>-30.207</ele>
  <time>2026-09-02T22:07:45Z</time>
  <course>186.33</course>
  <speed>0.0282842712474619</speed>
  <fix>3d</fix>
</trkpt>
<trkpt lat="33.810314" lon="-118.3938795">
  <ele>-29.47</ele>
  <time>2026-09-02T22:07:45Z</time>
  <course>275.96</course>
  <speed>0.0</speed>
  <fix>3d</fix>
</trkpt>
<trkpt lat="33.8103141" lon="-118.3938796">
  <ele>-30.206</ele>
  <time>2026-09-02T22:07:45Z</time>
  <course>186.32</course>
  <speed>0.0282842712474619</speed>
  <fix>3d</fix>
</trkpt>
<trkpt lat="33.810314" lon="-118.3938795">
  <ele>-29.47</ele>
  <time>2026-09-02T22:07:45Z</time>
  <course>275.96</course>
  <speed>0.0</speed>
  <fix>3d</fix>
</trkpt>
<trkpt lat="33.8103141" lon="-118.3938796">
  <ele>-30.204</ele>
  <time>2026-09-02T22:07:45Z</time>
  <course>186.31</course>
  <speed>0.0282842712474619</speed>
  <fix>3d</fix>
</trkpt>
<trkpt lat="33.810314" lon="-118.3938795">
  <ele>-29.47</ele>
  <time>2026-09-02T22:07:45Z</time>
  <course>275.96</course>
  <speed>0.0</speed>
  <fix>3d</fix>
</trkpt>
<trkpt lat="33.8103141" lon="-118.3938796">
  <ele>-30.203</ele>
  <time>2026-09-02T22:07:45Z</time>
  <course>186.3</course>
  <speed>0.0282842712474619</speed>
  <fix>3d</fix>
</trkpt>
<trkpt lat="33.810314" lon="-118.3938795">
  <ele>-29.47</ele>
  <time>2026-09-02T22:07:45Z</time>
  <course>275.96</course>
  <speed>0.0</speed>
  <fix>3d</fix>
</trkpt>
<trkpt lat="33.8103141" lon="-118.3938796">
  <ele>-30.203</ele>
  <time>2026-09-02T22:07:45Z</time>
  <course>186.29</course>
  <speed>0.0282842712474619</speed>
  <fix>3d</fix>
</trkpt>
<trkpt lat="33.810314" lon="-118.3938795">
  <ele>-29.47</ele>
  <time>2026-09-02T22:07:45Z</time>
  <course>275.96</course>
  <speed>0.0</speed>
  <fix>3d</fix>
</trkpt>
<trkpt lat="33.8103141" lon="-118.3938796">
  <ele>-30.204</ele>
  <time>2026-09-02T22:07:45Z</time>
  <course>186.28</course>
  <speed>0.0282842712474619</speed>
  <fix>3d</fix>
</trkpt>
<trkpt lat="33.810314" lon="-118.3938795">
  <ele>-29.47</ele>
  <time>2026-09-02T22:07:45Z</time>
  <course>275.96</course>
  <speed>0.0</speed>
  <fix>3d</fix>
</trkpt>
<trkpt lat="33.8103141" lon="-118.3938796">
  <ele>-30.206</ele>
  <time>2026-09-02T22:07:45Z</time>
  <course>186.27</course>
  <speed>0.0282842712474619</speed>
  <fix>3d</fix>
</trkpt>
<trkpt lat="33.810314" lon="-118.3938795">
  <ele>-29.47</ele>
  <time>2026-09-02T22:07:45Z</time>
  <course>275.96</course>
  <speed>0.0</speed>
  <fix>3d</fix>
</trkpt>
<trkpt lat="33.8103141" lon="-118.3938796">
  <ele>-30.207</ele>
  <time>2026-09-02T22:07:45Z</time>
  <course>186.26</course>
  <speed>0.0282842712474619</speed>
  <fix>3d</fix>
</trkpt>
<trkpt lat="33.810314" lon="-118.3938796">
  <ele>-29.47</ele>
  <time>2026-09-02T22:07:45Z</time>
  <course>275.96</course>
  <speed>0.0</speed>
  <fix>3d</fix>
</trkpt>
<trkpt lat="33.8103141" lon="-118.3938797">
  <ele>-30.209</ele>
  <time>2026-09-02T22:07:45Z</time>
  <course>186.25</course>
  <speed>0.0282842712474619</speed>
  <fix>3d</fix>
</trkpt>
<trkpt lat="33.810314" lon="-118.3938796">
  <ele>-29.47</ele>
  <time>2026-09-02T22:07:45Z</time>
  <course>275.96</course>
  <speed>0.0</speed>
  <fix>3d</fix>
</trkpt>
<trkpt lat="33.8103141" lon="-118.3938797">
  <ele>-30.211</ele>
  <time>2026-09-02T22:07:45Z</time>
  <course>186.23</course>
  <speed>0.0282842712474619</speed>
  <fix>3d</fix>
</trkpt>
<trkpt lat="33.810314" lon="-118.3938796">
  <ele>-29.48</ele>
  <time>2026-09-02T22:07:45Z</time>
  <course>275.96</course>
  <speed>0.0</speed>
  <fix>3d</fix>
</trkpt>
<trkpt lat="33.8103141" lon="-118.3938797">
  <ele>-30.212</ele>
  <time>2026-09-02T22:07:45Z</time>
  <course>186.22</course>
  <speed>0.0282842712474619</speed>
  <fix>3d</fix>
</trkpt>
<trkpt lat="33.810314" lon="-118.3938796">
  <ele>-29.48</ele>
  <time>2026-09-02T22:07:45Z</time>
  <course>275.96</course>
  <speed>0.0</speed>
  <fix>3d</fix>
</trkpt>
<trkpt lat="33.8103141" lon="-118.3938797">
  <ele>-30.212</ele>
  <time>2026-09-02T22:07:45Z</time>
  <course>186.21</course>
  <speed>0.0282842712474619</speed>
  <fix>3d</fix>
</trkpt>
<trkpt lat="33.810314" lon="-118.3938796">
  <ele>-29.48</ele>
  <time>2026-09-02T22:07:45Z</time>
  <course>275.96</course>
  <speed>0.0</speed>
  <fix>3d</fix>
</trkpt>
<trkpt lat="33.8103141" lon="-118.3938797">
  <ele>-30.212</ele>
  <time>2026-09-02T22:07:45Z</time>
  <course>186.2</course>
  <speed>0.0282842712474619</speed>
  <fix>3d</fix>
</trkpt>
<trkpt lat="33.810314" lon="-118.3938796">
  <ele>-29.48</ele>
  <time>2026-09-02T22:07:45Z</time>
  <course>275.96</course>
  <speed>0.0</speed>
  <fix>3d</fix>
</trkpt>
<trkpt lat="33.8103141" lon="-118.3938797">
  <ele>-30.211</ele>
  <time>2026-09-02T22:07:45Z</time>
  <course>186.19</course>
  <speed>0.0282842712474619</speed>
  <fix>3d</fix>
</trkpt>
<trkpt lat="33.810314" lon="-118.3938796">
  <ele>-29.48</ele>
  <time>2026-09-02T22:07:45Z</time>
  <course>275.96</course>
  <speed>0.0</speed>
  <fix>3d</fix>
</trkpt>
<trkpt lat="33.8103141" lon="-118.3938797">
  <ele>-30.211</ele>
  <time>2026-09-02T22:07:45Z</time>
  <course>186.18</course>
  <speed>0.0282842712474619</speed>
  <fix>3d</fix>
</trkpt>
<trkpt lat="33.810314" lon="-118.3938796">
  <ele>-29.48</ele>
  <time>2026-09-02T22:07:45Z</time>
  <course>275.96</course>
  <speed>0.0</speed>
  <fix>3d</fix>
</trkpt>
<trkpt lat="33.8103141" lon="-118.3938797">
  <ele>-30.211</ele>
  <time>2026-09-02T22:07:45Z</time>
  <course>186.17</course>
  <speed>0.0282842712474619</speed>
  <fix>3d</fix>
</trkpt>
<trkpt lat="33.810314" lon="-118.3938796">
  <ele>-29.48</ele>
  <time>2026-09-02T22:07:45Z</time>
  <course>275.96</course>
  <speed>0.0</speed>
  <fix>3d</fix>
</trkpt>
<trkpt lat="33.8103141" lon="-118.3938797">
  <ele>-30.211</ele>
  <time>2026-09-02T22:07:45Z</time>
  <course>186.16</course>
  <speed>0.0282842712474619</speed>
  <fix>3d</fix>
</trkpt>
<trkpt lat="33.810314" lon="-118.3938796">
  <ele>-29.48</ele>
  <time>2026-09-02T22:07:45Z</time>
  <course>275.96</course>
  <speed>0.0</speed>
  <fix>3d</fix>
</trkpt>
<trkpt lat="33.8103141" lon="-118.3938797">
  <ele>-30.211</ele>
  <time>2026-09-02T22:07:45Z</time>
  <course>186.15</course>
  <speed>0.0282842712474619</speed>
  <fix>3d</fix>
</trkpt>
<trkpt lat="33.810314" lon="-118.3938796">
  <ele>-29.48</ele>
  <time>2026-09-02T22:07:45Z</time>
  <course>275.96</course>
  <speed>0.0</speed>
  <fix>3d</fix>
</trkpt>
<trkpt lat="33.8103141" lon="-118.3938797">
  <ele>-30.211</ele>
  <time>2026-09-02T22:07:45Z</time>
  <course>186.14</course>
  <speed>0.0282842712474619</speed>
  <fix>3d</fix>
</trkpt>
<trkpt lat="33.810314" lon="-118.3938796">
  <ele>-29.48</ele>
  <time>2026-09-02T22:07:45Z</time>
  <course>275.96</course>
  <speed>0.0</speed>
  <fix>3d</fix>
</trkpt>
<trkpt lat="33.8103141" lon="-118.3938797">
  <ele>-30.211</ele>
  <time>2026-09-02T22:07:45Z</time>
  <course>186.13</course>
  <speed>0.0282842712474619</speed>
  <fix>3d</fix>
</trkpt>
<trkpt lat="33.810314" lon="-118.3938797">
  <ele>-29.48</ele>
  <time>2026-09-02T22:07:45Z</time>
  <course>275.97</course>
  <speed>0.0</speed>
  <fix>3d</fix>
</trkpt>
<trkpt lat="33.8103141" lon="-118.3938798">
  <ele>-30.211</ele>
  <time>2026-09-02T22:07:45Z</time>
  <course>186.12</course>
  <speed>0.0282842712474619</speed>
  <fix>3d</fix>
</trkpt>
<trkpt lat="33.810314" lon="-118.3938797">
  <ele>-29.48</ele>
  <time>2026-09-02T22:07:45Z</time>
  <course>275.97</course>
  <speed>0.0</speed>
  <fix>3d</fix>
</trkpt>
<trkpt lat="33.8103141" lon="-118.3938798">
  <ele>-30.211</ele>
  <time>2026-09-02T22:07:45Z</time>
  <course>186.11</course>
  <speed>0.0282842712474619</speed>
  <fix>3d</fix>
</trkpt>
<trkpt lat="33.810314" lon="-118.3938797">
  <ele>-29.48</ele>
  <time>2026-09-02T22:07:45Z</time>
  <course>275.97</course>
  <speed>0.0</speed>
  <fix>3d</fix>
</trkpt>
<trkpt lat="33.8103141" lon="-118.3938798">
  <ele>-30.21</ele>
  <time>2026-09-02T22:07:45Z</time>
  <course>186.09</course>
  <speed>0.0282842712474619</speed>
  <fix>3d</fix>
</trkpt>
<trkpt lat="33.810314" lon="-118.3938797">
  <ele>-29.48</ele>
  <time>2026-09-02T22:07:45Z</time>
  <course>275.97</course>
  <speed>0.0</speed>
  <fix>3d</fix>
</trkpt>
<trkpt lat="33.8103141" lon="-118.3938798">
  <ele>-30.209</ele>
  <time>2026-09-02T22:07:45Z</time>
  <course>186.08</course>
  <speed>0.0282842712474619</speed>
  <fix>3d</fix>
</trkpt>
<trkpt lat="33.810314" lon="-118.3938797">
  <ele>-29.48</ele>
  <time>2026-09-02T22:07:45Z</time>
  <course>275.97</course>
  <speed>0.0</speed>
  <fix>3d</fix>
</trkpt>
<trkpt lat="33.8103141" lon="-118.3938798">
  <ele>-30.209</ele>
  <time>2026-09-02T22:07:45Z</time>
  <course>186.07</course>
  <speed>0.0282842712474619</speed>
  <fix>3d</fix>
</trkpt>
<trkpt lat="33.810314" lon="-118.3938797">
  <ele>-29.48</ele>
  <time>2026-09-02T22:07:45Z</time>
  <course>275.97</course>
  <speed>0.0</speed>
  <fix>3d</fix>
</trkpt>
<trkpt lat="33.8103141" lon="-118.3938798">
  <ele>-30.208</ele>
  <time>2026-09-02T22:07:45Z</time>
  <course>186.06</course>
  <speed>0.0282842712474619</speed>
  <fix>3d</fix>
</trkpt>
<trkpt lat="33.810314" lon="-118.3938797">
  <ele>-29.48</ele>
  <time>2026-09-02T22:07:45Z</time>
  <course>275.97</course>
  <speed>0.0</speed>
  <fix>3d</fix>
</trkpt>
<trkpt lat="33.8103141" lon="-118.3938798">
  <ele>-30.208</ele>
  <time>2026-09-02T22:07:45Z</time>
  <course>186.05</course>
  <speed>0.0282842712474619</speed>
  <fix>3d</fix>
</trkpt>
<trkpt lat="33.810314" lon="-118.3938797">
  <ele>-29.48</ele>
  <time>2026-09-02T22:07:45Z</time>
  <course>275.97</course>
  <speed>0.0</speed>
  <fix>3d</fix>
</trkpt>
<trkpt lat="33.8103141" lon="-118.3938798">
  <ele>-30.208</ele>
  <time>2026-09-02T22:07:45Z</time>
  <course>186.04</course>
  <speed>0.0282842712474619</speed>
  <fix>3d</fix>
</trkpt>
<trkpt lat="33.810314" lon="-118.3938797">
  <ele>-29.48</ele>
  <time>2026-09-02T22:07:45Z</time>
  <course>275.97</course>
  <speed>0.0</speed>
  <fix>3d</fix>
</trkpt>
<trkpt lat="33.8103141" lon="-118.3938798">
  <ele>-30.208</ele>
  <time>2026-09-02T22:07:45Z</time>
  <course>186.03</course>
  <speed>0.0282842712474619</speed>
  <fix>3d</fix>
</trkpt>
<trkpt lat="33.810314" lon="-118.3938797">
  <ele>-29.48</ele>
  <time>2026-09-02T22:07:45Z</time>
  <course>275.97</course>
  <speed>0.0</speed>
  <fix>3d</fix>
</trkpt>
<trkpt lat="33.8103141" lon="-118.3938798">
  <ele>-30.208</ele>
  <time>2026-09-02T22:07:45Z</time>
  <course>186.02</course>
  <speed>0.0282842712474619</speed>
  <fix>3d</fix>
</trkpt>
<trkpt lat="33.810314" lon="-118.3938797">
  <ele>-29.48</ele>
  <time>2026-09-02T22:07:45Z</time>
  <course>275.97</course>
  <speed>0.0</speed>
  <fix>3d</fix>
</trkpt>
<trkpt lat="33.8103141" lon="-118.3938798">
  <ele>-30.209</ele>
  <time>2026-09-02T22:07:45Z</time>
  <course>186.01</course>
  <speed>0.0282842712474619</speed>
  <fix>3d</fix>
</trkpt>
<trkpt lat="33.810314" lon="-118.3938797">
  <ele>-29.48</ele>
  <time>2026-09-02T22:07:45Z</time>
  <course>275.97</course>
  <speed>0.0</speed>
  <fix>3d</fix>
</trkpt>
<trkpt lat="33.8103141" lon="-118.3938798">
  <ele>-30.21</ele>
  <time>2026-09-02T22:07:45Z</time>
  <course>186.0</course>
  <speed>0.0282842712474619</speed>
  <fix>3d</fix>
</trkpt>
<trkpt lat="33.810314" lon="-118.3938797">
  <ele>-29.48</ele>
  <time>2026-09-02T22:07:45Z</time>
  <course>275.97</course>
  <speed>0.0</speed>
  <fix>3d</fix>
</trkpt>
<trkpt lat="33.8103141" lon="-118.3938799">
  <ele>-30.21</ele>
  <time>2026-09-02T22:07:45Z</time>
  <course>185.99</course>
  <speed>0.0282842712474619</speed>
  <fix>3d</fix>
</trkpt>
<trkpt lat="33.810314" lon="-118.3938797">
  <ele>-29.48</ele>
  <time>2026-09-02T22:07:45Z</time>
  <course>275.97</course>
  <speed>0.0</speed>
  <fix>3d</fix>
</trkpt>
<trkpt lat="33.8103141" lon="-118.3938799">
  <ele>-30.21</ele>
  <time>2026-09-02T22:07:45Z</time>
  <course>185.98</course>
  <speed>0.0282842712474619</speed>
  <fix>3d</fix>
</trkpt>
<trkpt lat="33.810314" lon="-118.3938798">
  <ele>-29.48</ele>
  <time>2026-09-02T22:07:45Z</time>
  <course>275.97</course>
  <speed>0.0</speed>
  <fix>3d</fix>
</trkpt>
<trkpt lat="33.8103141" lon="-118.3938799">
  <ele>-30.21</ele>
  <time>2026-09-02T22:07:45Z</time>
  <course>185.97</course>
  <speed>0.0282842712474619</speed>
  <fix>3d</fix>
</trkpt>
<trkpt lat="33.810314" lon="-118.3938798">
  <ele>-29.48</ele>
  <time>2026-09-02T22:07:45Z</time>
  <course>275.97</course>
  <speed>0.0</speed>
  <fix>3d</fix>
</trkpt>
<trkpt lat="33.8103141" lon="-118.3938799">
  <ele>-30.21</ele>
  <time>2026-09-02T22:07:45Z</time>
  <course>185.96</course>
  <speed>0.0282842712474619</speed>
  <fix>3d</fix>
</trkpt>
<trkpt lat="33.810314" lon="-118.3938798">
  <ele>-29.48</ele>
  <time>2026-09-02T22:07:45Z</time>
  <course>275.97</course>
  <speed>0.0</speed>
  <fix>3d</fix>
</trkpt>
<trkpt lat="33.8103141" lon="-118.3938799">
  <ele>-30.209</ele>
  <time>2026-09-02T22:07:45Z</time>
  <course>185.95</course>
  <speed>0.0282842712474619</speed>
  <fix>3d</fix>
</trkpt>
<trkpt lat="33.810314" lon="-118.3938798">
  <ele>-29.48</ele>
  <time>2026-09-02T22:07:45Z</time>
  <course>275.97</course>
  <speed>0.0</speed>
  <fix>3d</fix>
</trkpt>
<trkpt lat="33.8103141" lon="-118.3938799">
  <ele>-30.209</ele>
  <time>2026-09-02T22:07:45Z</time>
  <course>185.93</course>
  <speed>0.0282842712474619</speed>
  <fix>3d</fix>
</trkpt>
<trkpt lat="33.810314" lon="-118.3938798">
  <ele>-29.47</ele>
  <time>2026-09-02T22:07:45Z</time>
  <course>275.97</course>
  <speed>0.0</speed>
  <fix>3d</fix>
</trkpt>
<trkpt lat="33.8103141" lon="-118.3938799">
  <ele>-30.208</ele>
  <time>2026-09-02T22:07:45Z</time>
  <course>185.92</course>
  <speed>0.0282842712474619</speed>
  <fix>3d</fix>
</trkpt>
<trkpt lat="33.810314" lon="-118.3938798">
  <ele>-29.47</ele>
  <time>2026-09-02T22:07:45Z</time>
  <course>275.97</course>
  <speed>0.0</speed>
  <fix>3d</fix>
</trkpt>
<trkpt lat="33.8103141" lon="-118.3938799">
  <ele>-30.206</ele>
  <time>2026-09-02T22:07:45Z</time>
  <course>185.91</course>
  <speed>0.0282842712474619</speed>
  <fix>3d</fix>
</trkpt>
<trkpt lat="33.810314" lon="-118.3938798">
  <ele>-29.47</ele>
  <time>2026-09-02T22:07:45Z</time>
  <course>275.97</course>
  <speed>0.0</speed>
  <fix>3d</fix>
</trkpt>
<trkpt lat="33.8103141" lon="-118.3938799">
  <ele>-30.205</ele>
  <time>2026-09-02T22:07:45Z</time>
  <course>185.9</course>
  <speed>0.0282842712474619</speed>
  <fix>3d</fix>
</trkpt>
<trkpt lat="33.810314" lon="-118.3938798">
  <ele>-29.47</ele>
  <time>2026-09-02T22:07:45Z</time>
  <course>275.97</course>
  <speed>0.0</speed>
  <fix>3d</fix>
</trkpt>
<trkpt lat="33.8103141" lon="-118.3938799">
  <ele>-30.205</ele>
  <time>2026-09-02T22:07:45Z</time>
  <course>185.89</course>
  <speed>0.0282842712474619</speed>
  <fix>3d</fix>
</trkpt>
<trkpt lat="33.810314" lon="-118.3938798">
  <ele>-29.47</ele>
  <time>2026-09-02T22:07:45Z</time>
  <course>275.97</course>
  <speed>0.0</speed>
  <fix>3d</fix>
</trkpt>
<trkpt lat="33.8103141" lon="-118.3938799">
  <ele>-30.205</ele>
  <time>2026-09-02T22:07:45Z</time>
  <course>185.88</course>
  <speed>0.0282842712474619</speed>
  <fix>3d</fix>
</trkpt>
<trkpt lat="33.810314" lon="-118.3938798">
  <ele>-29.47</ele>
  <time>2026-09-02T22:07:45Z</time>
  <course>275.97</course>
  <speed>0.0</speed>
  <fix>3d</fix>
</trkpt>
<trkpt lat="33.8103141" lon="-118.3938799">
  <ele>-30.206</ele>
  <time>2026-09-02T22:07:45Z</time>
  <course>185.87</course>
  <speed>0.0282842712474619</speed>
  <fix>3d</fix>
</trkpt>
<trkpt lat="33.810314" lon="-118.3938798">
  <ele>-29.47</ele>
  <time>2026-09-02T22:07:45Z</time>
  <course>275.97</course>
  <speed>0.0</speed>
  <fix>3d</fix>
</trkpt>
<trkpt lat="33.8103141" lon="-118.3938799">
  <ele>-30.207</ele>
  <time>2026-09-02T22:07:45Z</time>
  <course>185.86</course>
  <speed>0.0282842712474619</speed>
  <fix>3d</fix>
</trkpt>
<trkpt lat="33.810314" lon="-118.3938798">
  <ele>-29.47</ele>
  <time>2026-09-02T22:07:45Z</time>
  <course>275.97</course>
  <speed>0.0</speed>
  <fix>3d</fix>
</trkpt>
<trkpt lat="33.8103141" lon="-118.39388">
  <ele>-30.209</ele>
  <time>2026-09-02T22:07:45Z</time>
  <course>185.85</course>
  <speed>0.0282842712474619</speed>
  <fix>3d</fix>
</trkpt>
<trkpt lat="33.810314" lon="-118.3938799">
  <ele>-29.47</ele>
  <time>2026-09-02T22:07:45Z</time>
  <course>275.97</course>
  <speed>0.0</speed>
  <fix>3d</fix>
</trkpt>
<trkpt lat="33.8103141" lon="-118.39388">
  <ele>-30.211</ele>
  <time>2026-09-02T22:07:45Z</time>
  <course>185.84</course>
  <speed>0.0282842712474619</speed>
  <fix>3d</fix>
</trkpt>
<trkpt lat="33.810314" lon="-118.3938799">
  <ele>-29.47</ele>
  <time>2026-09-02T22:07:45Z</time>
  <course>275.97</course>
  <speed>0.0</speed>
  <fix>3d</fix>
</trkpt>
<trkpt lat="33.8103141" lon="-118.39388">
  <ele>-30.212</ele>
  <time>2026-09-02T22:07:45Z</time>
  <course>185.83</course>
  <speed>0.0282842712474619</speed>
  <fix>3d</fix>
</trkpt>
<trkpt lat="33.810314" lon="-118.3938799">
  <ele>-29.47</ele>
  <time>2026-09-02T22:07:45Z</time>
  <course>275.97</course>
  <speed>0.0</speed>
  <fix>3d</fix>
</trkpt>
<trkpt lat="33.8103141" lon="-118.39388">
  <ele>-30.213</ele>
  <time>2026-09-02T22:07:45Z</time>
  <course>185.82</course>
  <speed>0.0282842712474619</speed>
  <fix>3d</fix>
</trkpt>
<trkpt lat="33.810314" lon="-118.3938799">
  <ele>-29.47</ele>
  <time>2026-09-02T22:07:45Z</time>
  <course>275.97</course>
  <speed>0.0</speed>
  <fix>3d</fix>
</trkpt>
<trkpt lat="33.8103141" lon="-118.39388">
  <ele>-30.214</ele>
  <time>2026-09-02T22:07:45Z</time>
  <course>185.81</course>
  <speed>0.0282842712474619</speed>
  <fix>3d</fix>
</trkpt>
<trkpt lat="33.810314" lon="-118.3938799">
  <ele>-29.48</ele>
  <time>2026-09-02T22:07:45Z</time>
  <course>275.97</course>
  <speed>0.0</speed>
  <fix>3d</fix>
</trkpt>
<trkpt lat="33.8103141" lon="-118.39388">
  <ele>-30.215</ele>
  <time>2026-09-02T22:07:45Z</time>
  <course>185.8</course>
  <speed>0.0282842712474619</speed>
  <fix>3d</fix>
</trkpt>
<trkpt lat="33.810314" lon="-118.3938799">
  <ele>-29.48</ele>
  <time>2026-09-02T22:07:45Z</time>
  <course>275.97</course>
  <speed>0.0</speed>
  <fix>3d</fix>
</trkpt>
<trkpt lat="33.8103141" lon="-118.39388">
  <ele>-30.216</ele>
  <time>2026-09-02T22:07:45Z</time>
  <course>185.79</course>
  <speed>0.0282842712474619</speed>
  <fix>3d</fix>
</trkpt>
<trkpt lat="33.810314" lon="-118.3938799">
  <ele>-29.48</ele>
  <time>2026-09-02T22:07:45Z</time>
  <course>275.98</course>
  <speed>0.0</speed>
  <fix>3d</fix>
</trkpt>
<trkpt lat="33.8103141" lon="-118.39388">
  <ele>-30.216</ele>
  <time>2026-09-02T22:07:45Z</time>
  <course>185.76</course>
  <speed>0.0282842712474619</speed>
  <fix>3d</fix>
</trkpt>
<trkpt lat="33.810314" lon="-118.3938799">
  <ele>-29.48</ele>
  <time>2026-09-02T22:07:45Z</time>
  <course>275.98</course>
  <speed>0.0</speed>
  <fix>3d</fix>
</trkpt>
<trkpt lat="33.8103141" lon="-118.39388">
  <ele>-30.214</ele>
  <time>2026-09-02T22:07:45Z</time>
  <course>185.72</course>
  <speed>0.0282842712474619</speed>
  <fix>3d</fix>
</trkpt>
<trkpt lat="33.810314" lon="-118.3938799">
  <ele>-29.48</ele>
  <time>2026-09-02T22:07:45Z</time>
  <course>275.98</course>
  <speed>0.0</speed>
  <fix>3d</fix>
</trkpt>
<trkpt lat="33.8103141" lon="-118.39388">
  <ele>-30.213</ele>
  <time>2026-09-02T22:07:45Z</time>
  <course>185.67</course>
  <speed>0.0282842712474619</speed>
  <fix>3d</fix>
</trkpt>
<trkpt lat="33.810314" lon="-118.3938799">
  <ele>-29.48</ele>
  <time>2026-09-02T22:07:45Z</time>
  <course>275.98</course>
  <speed>0.0</speed>
  <fix>3d</fix>
</trkpt>
<trkpt lat="33.8103141" lon="-118.39388">
  <ele>-30.211</ele>
  <time>2026-09-02T22:07:45Z</time>
  <course>185.62</course>
  <speed>0.0282842712474619</speed>
  <fix>3d</fix>
</trkpt>
<trkpt lat="33.810314" lon="-118.3938799">
  <ele>-29.47</ele>
  <time>2026-09-02T22:07:45Z</time>
  <course>275.98</course>
  <speed>0.0</speed>
  <fix>3d</fix>
</trkpt>
<trkpt lat="33.8103141" lon="-118.39388">
  <ele>-30.208</ele>
  <time>2026-09-02T22:07:45Z</time>
  <course>185.58</course>
  <speed>0.0282842712474619</speed>
  <fix>3d</fix>
</trkpt>
<trkpt lat="33.810314" lon="-118.3938799">
  <ele>-29.47</ele>
  <time>2026-09-02T22:07:45Z</time>
  <course>275.98</course>
  <speed>0.0</speed>
  <fix>3d</fix>
</trkpt>
<trkpt lat="33.8103141" lon="-118.3938801">
  <ele>-30.204</ele>
  <time>2026-09-02T22:07:45Z</time>
  <course>185.55</course>
  <speed>0.0282842712474619</speed>
  <fix>3d</fix>
</trkpt>
<trkpt lat="33.810314" lon="-118.3938799">
  <ele>-29.47</ele>
  <time>2026-09-02T22:07:45Z</time>
  <course>275.98</course>
  <speed>0.0</speed>
  <fix>3d</fix>
</trkpt>
<trkpt lat="33.8103141" lon="-118.3938801">
  <ele>-30.199</ele>
  <time>2026-09-02T22:07:45Z</time>
  <course>185.52</course>
  <speed>0.0282842712474619</speed>
  <fix>3d</fix>
</trkpt>
<trkpt lat="33.810314" lon="-118.3938799">
  <ele>-29.47</ele>
  <time>2026-09-02T22:07:45Z</time>
  <course>275.98</course>
  <speed>0.0</speed>
  <fix>3d</fix>
</trkpt>
<trkpt lat="33.8103141" lon="-118.3938801">
  <ele>-30.194</ele>
  <time>2026-09-02T22:07:45Z</time>
  <course>185.5</course>
  <speed>0.0282842712474619</speed>
  <fix>3d</fix>
</trkpt>
<trkpt lat="33.810314" lon="-118.39388">
  <ele>-29.46</ele>
  <time>2026-09-02T22:07:45Z</time>
  <course>275.98</course>
  <speed>0.0</speed>
  <fix>3d</fix>
</trkpt>
<trkpt lat="33.8103142" lon="-118.3938801">
  <ele>-30.188</ele>
  <time>2026-09-02T22:07:45Z</time>
  <course>185.47</course>
  <speed>0.0282842712474619</speed>
  <fix>3d</fix>
</trkpt>
<trkpt lat="33.810314" lon="-118.39388">
  <ele>-29.46</ele>
  <time>2026-09-02T22:07:45Z</time>
  <course>275.98</course>
  <speed>0.0</speed>
  <fix>3d</fix>
</trkpt>
<trkpt lat="33.8103141" lon="-118.3938801">
  <ele>-30.182</ele>
  <time>2026-09-02T22:07:45Z</time>
  <course>185.45</course>
  <speed>0.0282842712474619</speed>
  <fix>3d</fix>
</trkpt>
<trkpt lat="33.810314" lon="-118.39388">
  <ele>-29.45</ele>
  <time>2026-09-02T22:07:45Z</time>
  <course>275.99</course>
  <speed>0.0</speed>
  <fix>3d</fix>
</trkpt>
<trkpt lat="33.8103142" lon="-118.3938801">
  <ele>-30.175</ele>
  <time>2026-09-02T22:07:45Z</time>
  <course>185.43</course>
  <speed>0.0282842712474619</speed>
  <fix>3d</fix>
</trkpt>
<trkpt lat="33.810314" lon="-118.39388">
  <ele>-29.45</ele>
  <time>2026-09-02T22:07:45Z</time>
  <course>275.99</course>
  <speed>0.0</speed>
  <fix>3d</fix>
</trkpt>
<trkpt lat="33.8103142" lon="-118.3938801">
  <ele>-30.168</ele>
  <time>2026-09-02T22:07:45Z</time>
  <course>185.41</course>
  <speed>0.0282842712474619</speed>
  <fix>3d</fix>
</trkpt>
<trkpt lat="33.810314" lon="-118.39388">
  <ele>-29.44</ele>
  <time>2026-09-02T22:07:45Z</time>
  <course>275.99</course>
  <speed>0.0</speed>
  <fix>3d</fix>
</trkpt>
<trkpt lat="33.8103142" lon="-118.3938801">
  <ele>-30.161</ele>
  <time>2026-09-02T22:07:45Z</time>
  <course>185.4</course>
  <speed>0.0282842712474619</speed>
  <fix>3d</fix>
</trkpt>
<trkpt lat="33.810314" lon="-118.39388">
  <ele>-29.44</ele>
  <time>2026-09-02T22:07:45Z</time>
  <course>275.99</course>
  <speed>0.0</speed>
  <fix>3d</fix>
</trkpt>
<trkpt lat="33.8103142" lon="-118.3938801">
  <ele>-30.154</ele>
  <time>2026-09-02T22:07:45Z</time>
  <course>185.38</course>
  <speed>0.0282842712474619</speed>
  <fix>3d</fix>
</trkpt>
<trkpt lat="33.810314" lon="-118.39388">
  <ele>-29.43</ele>
  <time>2026-09-02T22:07:45Z</time>
  <course>275.99</course>
  <speed>0.0</speed>
  <fix>3d</fix>
</trkpt>
<trkpt lat="33.8103142" lon="-118.3938801">
  <ele>-30.146</ele>
  <time>2026-09-02T22:07:45Z</time>
  <course>185.37</course>
  <speed>0.0282842712474619</speed>
  <fix>3d</fix>
</trkpt>
<trkpt lat="33.810314" lon="-118.39388">
  <ele>-29.43</ele>
  <time>2026-09-02T22:07:45Z</time>
  <course>275.99</course>
  <speed>0.0</speed>
  <fix>3d</fix>
</trkpt>
<trkpt lat="33.8103142" lon="-118.3938801">
  <ele>-30.138</ele>
  <time>2026-09-02T22:07:45Z</time>
  <course>185.35</course>
  <speed>0.0282842712474619</speed>
  <fix>3d</fix>
</trkpt>
<trkpt lat="33.810314" lon="-118.39388">
  <ele>-29.42</ele>
  <time>2026-09-02T22:07:45Z</time>
  <course>276.0</course>
  <speed>0.0</speed>
  <fix>3d</fix>
</trkpt>
<trkpt lat="33.8103142" lon="-118.3938801">
  <ele>-30.13</ele>
  <time>2026-09-02T22:07:45Z</time>
  <course>185.34</course>
  <speed>0.0282842712474619</speed>
  <fix>3d</fix>
</trkpt>
<trkpt lat="33.810314" lon="-118.39388">
  <ele>-29.42</ele>
  <time>2026-09-02T22:07:45Z</time>
  <course>276.0</course>
  <speed>0.0</speed>
  <fix>3d</fix>
</trkpt>
<trkpt lat="33.8103142" lon="-118.3938802">
  <ele>-30.122</ele>
  <time>2026-09-02T22:07:46Z</time>
  <course>185.33</course>
  <speed>0.0282842712474619</speed>
  <fix>3d</fix>
</trkpt>
<trkpt lat="33.810314" lon="-118.39388">
  <ele>-29.41</ele>
  <time>2026-09-02T22:07:46Z</time>
  <course>276.0</course>
  <speed>0.0</speed>
  <fix>3d</fix>
</trkpt>
<trkpt lat="33.8103142" lon="-118.3938802">
  <ele>-30.113</ele>
  <time>2026-09-02T22:07:46Z</time>
  <course>185.32</course>
  <speed>0.0282842712474619</speed>
  <fix>3d</fix>
</trkpt>
<trkpt lat="33.810314" lon="-118.39388">
  <ele>-29.41</ele>
  <time>2026-09-02T22:07:46Z</time>
  <course>276.0</course>
  <speed>0.0</speed>
  <fix>3d</fix>
</trkpt>
<trkpt lat="33.8103142" lon="-118.3938802">
  <ele>-30.104</ele>
  <time>2026-09-02T22:07:46Z</time>
  <course>185.31</course>
  <speed>0.0282842712474619</speed>
  <fix>3d</fix>
</trkpt>
<trkpt lat="33.810314" lon="-118.39388">
  <ele>-29.39</ele>
  <time>2026-09-02T22:07:46Z</time>
  <course>276.0</course>
  <speed>0.0</speed>
  <fix>3d</fix>
</trkpt>
<trkpt lat="33.8103142" lon="-118.3938802">
  <ele>-30.095</ele>
  <time>2026-09-02T22:07:46Z</time>
  <course>185.3</course>
  <speed>0.0282842712474619</speed>
  <fix>3d</fix>
</trkpt>
<trkpt lat="33.810314" lon="-118.39388">
  <ele>-29.39</ele>
  <time>2026-09-02T22:07:46Z</time>
  <course>276.0</course>
  <speed>0.0</speed>
  <fix>3d</fix>
</trkpt>
<trkpt lat="33.8103142" lon="-118.3938802">
  <ele>-30.087</ele>
  <time>2026-09-02T22:07:46Z</time>
  <course>185.29</course>
  <speed>0.0282842712474619</speed>
  <fix>3d</fix>
</trkpt>
<trkpt lat="33.810314" lon="-118.3938801">
  <ele>-29.38</ele>
  <time>2026-09-02T22:07:46Z</time>
  <course>276.01</course>
  <speed>0.0</speed>
  <fix>3d</fix>
</trkpt>
<trkpt lat="33.8103142" lon="-118.3938802">
  <ele>-30.078</ele>
  <time>2026-09-02T22:07:46Z</time>
  <course>185.28</course>
  <speed>0.0282842712474619</speed>
  <fix>3d</fix>
</trkpt>
<trkpt lat="33.810314" lon="-118.3938801">
  <ele>-29.38</ele>
  <time>2026-09-02T22:07:46Z</time>
  <course>276.01</course>
  <speed>0.0</speed>
  <fix>3d</fix>
</trkpt>
<trkpt lat="33.8103141" lon="-118.3938802">
  <ele>-30.069</ele>
  <time>2026-09-02T22:07:46Z</time>
  <course>185.27</course>
  <speed>0.0282842712474619</speed>
  <fix>3d</fix>
</trkpt>
<trkpt lat="33.810314" lon="-118.3938801">
  <ele>-29.36</ele>
  <time>2026-09-02T22:07:46Z</time>
  <course>276.01</course>
  <speed>0.0</speed>
  <fix>3d</fix>
</trkpt>
<trkpt lat="33.8103141" lon="-118.3938802">
  <ele>-30.06</ele>
  <time>2026-09-02T22:07:46Z</time>
  <course>185.26</course>
  <speed>0.0282842712474619</speed>
  <fix>3d</fix>
</trkpt>
<trkpt lat="33.810314" lon="-118.3938801">
  <ele>-29.36</ele>
  <time>2026-09-02T22:07:46Z</time>
  <course>276.01</course>
  <speed>0.0</speed>
  <fix>3d</fix>
</trkpt>
<trkpt lat="33.8103141" lon="-118.3938802">
  <ele>-30.05</ele>
  <time>2026-09-02T22:07:46Z</time>
  <course>185.26</course>
  <speed>0.0282842712474619</speed>
  <fix>3d</fix>
</trkpt>
<trkpt lat="33.8103141" lon="-118.3938801">
  <ele>-29.34</ele>
  <time>2026-09-02T22:07:46Z</time>
  <course>276.02</course>
  <speed>0.0</speed>
  <fix>3d</fix>
</trkpt>
<trkpt lat="33.8103142" lon="-118.3938802">
  <ele>-30.041</ele>
  <time>2026-09-02T22:07:46Z</time>
  <course>185.25</course>
  <speed>0.0282842712474619</speed>
  <fix>3d</fix>
</trkpt>
<trkpt lat="33.8103141" lon="-118.3938801">
  <ele>-29.34</ele>
  <time>2026-09-02T22:07:46Z</time>
  <course>276.02</course>
  <speed>0.0</speed>
  <fix>3d</fix>
</trkpt>
<trkpt lat="33.8103142" lon="-118.3938802">
  <ele>-30.032</ele>
  <time>2026-09-02T22:07:46Z</time>
  <course>185.24</course>
  <speed>0.0282842712474619</speed>
  <fix>3d</fix>
</trkpt>
<trkpt lat="33.8103141" lon="-118.3938801">
  <ele>-29.32</ele>
  <time>2026-09-02T22:07:46Z</time>
  <course>276.02</course>
  <speed>0.0</speed>
  <fix>3d</fix>
</trkpt>
<trkpt lat="33.8103142" lon="-118.3938802">
  <ele>-30.022</ele>
  <time>2026-09-02T22:07:46Z</time>
  <course>185.23</course>
  <speed>0.0282842712474619</speed>
  <fix>3d</fix>
</trkpt>
<trkpt lat="33.8103141" lon="-118.3938801">
  <ele>-29.32</ele>
  <time>2026-09-02T22:07:46Z</time>
  <course>276.02</course>
  <speed>0.0</speed>
  <fix>3d</fix>
</trkpt>
<trkpt lat="33.8103142" lon="-118.3938802">
  <ele>-30.012</ele>
  <time>2026-09-02T22:07:46Z</time>
  <course>185.23</course>
  <speed>0.0282842712474619</speed>
  <fix>3d</fix>
</trkpt>
<trkpt lat="33.8103141" lon="-118.3938801">
  <ele>-29.31</ele>
  <time>2026-09-02T22:07:46Z</time>
  <course>276.02</course>
  <speed>0.0</speed>
  <fix>3d</fix>
</trkpt>
<trkpt lat="33.8103142" lon="-118.3938802">
  <ele>-30.003</ele>
  <time>2026-09-02T22:07:46Z</time>
  <course>185.22</course>
  <speed>0.0282842712474619</speed>
  <fix>3d</fix>
</trkpt>
<trkpt lat="33.8103141" lon="-118.3938801">
  <ele>-29.31</ele>
  <time>2026-09-02T22:07:46Z</time>
  <course>276.02</course>
  <speed>0.0</speed>
  <fix>3d</fix>
</trkpt>
<trkpt lat="33.8103142" lon="-118.3938802">
  <ele>-29.993</ele>
  <time>2026-09-02T22:07:46Z</time>
  <course>185.21</course>
  <speed>0.0282842712474619</speed>
  <fix>3d</fix>
</trkpt>
<trkpt lat="33.8103141" lon="-118.3938801">
  <ele>-29.29</ele>
  <time>2026-09-02T22:07:46Z</time>
  <course>276.03</course>
  <speed>0.0</speed>
  <fix>3d</fix>
</trkpt>
<trkpt lat="33.8103142" lon="-118.3938802">
  <ele>-29.983</ele>
  <time>2026-09-02T22:07:46Z</time>
  <course>185.21</course>
  <speed>0.0282842712474619</speed>
  <fix>3d</fix>
</trkpt>
<trkpt lat="33.8103141" lon="-118.3938801">
  <ele>-29.29</ele>
  <time>2026-09-02T22:07:46Z</time>
  <course>276.03</course>
  <speed>0.0</speed>
  <fix>3d</fix>
</trkpt>
<trkpt lat="33.8103142" lon="-118.3938803">
  <ele>-29.972</ele>
  <time>2026-09-02T22:07:46Z</time>
  <course>185.2</course>
  <speed>0.0282842712474619</speed>
  <fix>3d</fix>
</trkpt>
<trkpt lat="33.8103141" lon="-118.3938801">
  <ele>-29.27</ele>
  <time>2026-09-02T22:07:46Z</time>
  <course>276.03</course>
  <speed>0.0</speed>
  <fix>3d</fix>
</trkpt>
<trkpt lat="33.8103142" lon="-118.3938803">
  <ele>-29.962</ele>
  <time>2026-09-02T22:07:46Z</time>
  <course>185.2</course>
  <speed>0.0282842712474619</speed>
  <fix>3d</fix>
</trkpt>
<trkpt lat="33.8103141" lon="-118.3938801">
  <ele>-29.27</ele>
  <time>2026-09-02T22:07:46Z</time>
  <course>276.03</course>
  <speed>0.0</speed>
  <fix>3d</fix>
</trkpt>
<trkpt lat="33.8103142" lon="-118.3938803">
  <ele>-29.952</ele>
  <time>2026-09-02T22:07:46Z</time>
  <course>185.19</course>
  <speed>0.0282842712474619</speed>
  <fix>3d</fix>
</trkpt>
<trkpt lat="33.8103141" lon="-118.3938802">
  <ele>-29.25</ele>
  <time>2026-09-02T22:07:46Z</time>
  <course>276.04</course>
  <speed>0.0</speed>
  <fix>3d</fix>
</trkpt>
<trkpt lat="33.8103142" lon="-118.3938803">
  <ele>-29.942</ele>
  <time>2026-09-02T22:07:46Z</time>
  <course>185.18</course>
  <speed>0.0282842712474619</speed>
  <fix>3d</fix>
</trkpt>
<trkpt lat="33.8103141" lon="-118.3938802">
  <ele>-29.25</ele>
  <time>2026-09-02T22:07:46Z</time>
  <course>276.04</course>
  <speed>0.0</speed>
  <fix>3d</fix>
</trkpt>
<trkpt lat="33.8103142" lon="-118.3938803">
  <ele>-29.932</ele>
  <time>2026-09-02T22:07:46Z</time>
  <course>185.18</course>
  <speed>0.0282842712474619</speed>
  <fix>3d</fix>
</trkpt>
<trkpt lat="33.8103141" lon="-118.3938802">
  <ele>-29.23</ele>
  <time>2026-09-02T22:07:46Z</time>
  <course>276.05</course>
  <speed>0.0</speed>
  <fix>3d</fix>
</trkpt>
<trkpt lat="33.8103142" lon="-118.3938803">
  <ele>-29.923</ele>
  <time>2026-09-02T22:07:46Z</time>
  <course>185.17</course>
  <speed>0.0282842712474619</speed>
  <fix>3d</fix>
</trkpt>
<trkpt lat="33.8103141" lon="-118.3938802">
  <ele>-29.23</ele>
  <time>2026-09-02T22:07:46Z</time>
  <course>276.05</course>
  <speed>0.0</speed>
  <fix>3d</fix>
</trkpt>
<trkpt lat="33.8103142" lon="-118.3938803">
  <ele>-29.914</ele>
  <time>2026-09-02T22:07:46Z</time>
  <course>185.17</course>
  <speed>0.0282842712474619</speed>
  <fix>3d</fix>
</trkpt>
<trkpt lat="33.8103141" lon="-118.3938802">
  <ele>-29.22</ele>
  <time>2026-09-02T22:07:46Z</time>
  <course>276.05</course>
  <speed>0.0</speed>
  <fix>3d</fix>
</trkpt>
<trkpt lat="33.8103142" lon="-118.3938803">
  <ele>-29.905</ele>
  <time>2026-09-02T22:07:46Z</time>
  <course>185.16</course>
  <speed>0.0282842712474619</speed>
  <fix>3d</fix>
</trkpt>
<trkpt lat="33.8103141" lon="-118.3938802">
  <ele>-29.22</ele>
  <time>2026-09-02T22:07:46Z</time>
  <course>276.05</course>
  <speed>0.0</speed>
  <fix>3d</fix>
</trkpt>
<trkpt lat="33.8103142" lon="-118.3938803">
  <ele>-29.896</ele>
  <time>2026-09-02T22:07:46Z</time>
  <course>185.15</course>
  <speed>0.0282842712474619</speed>
  <fix>3d</fix>
</trkpt>
<trkpt lat="33.8103141" lon="-118.3938802">
  <ele>-29.2</ele>
  <time>2026-09-02T22:07:46Z</time>
  <course>276.05</course>
  <speed>0.0</speed>
  <fix>3d</fix>
</trkpt>
<trkpt lat="33.8103142" lon="-118.3938803">
  <ele>-29.888</ele>
  <time>2026-09-02T22:07:46Z</time>
  <course>185.15</course>
  <speed>0.0282842712474619</speed>
  <fix>3d</fix>
</trkpt>
<trkpt lat="33.8103141" lon="-118.3938802">
  <ele>-29.2</ele>
  <time>2026-09-02T22:07:46Z</time>
  <course>276.05</course>
  <speed>0.0</speed>
  <fix>3d</fix>
</trkpt>
<trkpt lat="33.8103142" lon="-118.3938803">
  <ele>-29.878</ele>
  <time>2026-09-02T22:07:46Z</time>
  <course>185.14</course>
  <speed>0.0282842712474619</speed>
  <fix>3d</fix>
</trkpt>
<trkpt lat="33.8103141" lon="-118.3938802">
  <ele>-29.18</ele>
  <time>2026-09-02T22:07:46Z</time>
  <course>276.05</course>
  <speed>0.0</speed>
  <fix>3d</fix>
</trkpt>
<trkpt lat="33.8103142" lon="-118.3938803">
  <ele>-29.868</ele>
  <time>2026-09-02T22:07:46Z</time>
  <course>185.14</course>
  <speed>0.0282842712474619</speed>
  <fix>3d</fix>
</trkpt>
<trkpt lat="33.8103141" lon="-118.3938802">
  <ele>-29.18</ele>
  <time>2026-09-02T22:07:46Z</time>
  <course>276.05</course>
  <speed>0.0</speed>
  <fix>3d</fix>
</trkpt>
<trkpt lat="33.8103142" lon="-118.3938803">
  <ele>-29.858</ele>
  <time>2026-09-02T22:07:46Z</time>
  <course>185.13</course>
  <speed>0.0282842712474619</speed>
  <fix>3d</fix>
</trkpt>
<trkpt lat="33.8103141" lon="-118.3938802">
  <ele>-29.16</ele>
  <time>2026-09-02T22:07:46Z</time>
  <course>276.06</course>
  <speed>0.0</speed>
  <fix>3d</fix>
</trkpt>
<trkpt lat="33.8103142" lon="-118.3938803">
  <ele>-29.848</ele>
  <time>2026-09-02T22:07:46Z</time>
  <course>185.13</course>
  <speed>0.0282842712474619</speed>
  <fix>3d</fix>
</trkpt>
<trkpt lat="33.8103141" lon="-118.3938802">
  <ele>-29.16</ele>
  <time>2026-09-02T22:07:46Z</time>
  <course>276.06</course>
  <speed>0.0</speed>
  <fix>3d</fix>
</trkpt>
<trkpt lat="33.8103142" lon="-118.3938803">
  <ele>-29.837</ele>
  <time>2026-09-02T22:07:46Z</time>
  <course>185.12</course>
  <speed>0.0282842712474619</speed>
  <fix>3d</fix>
</trkpt>
<trkpt lat="33.8103141" lon="-118.3938802">
  <ele>-29.14</ele>
  <time>2026-09-02T22:07:46Z</time>
  <course>276.07</course>
  <speed>0.0</speed>
  <fix>3d</fix>
</trkpt>
<trkpt lat="33.8103142" lon="-118.3938803">
  <ele>-29.827</ele>
  <time>2026-09-02T22:07:46Z</time>
  <course>185.12</course>
  <speed>0.0282842712474619</speed>
  <fix>3d</fix>
</trkpt>
<trkpt lat="33.8103141" lon="-118.3938802">
  <ele>-29.14</ele>
  <time>2026-09-02T22:07:46Z</time>
  <course>276.07</course>
  <speed>0.0</speed>
  <fix>3d</fix>
</trkpt>
<trkpt lat="33.8103142" lon="-118.3938804">
  <ele>-29.816</ele>
  <time>2026-09-02T22:07:46Z</time>
  <course>185.12</course>
  <speed>0.0282842712474619</speed>
  <fix>3d</fix>
</trkpt>
<trkpt lat="33.8103141" lon="-118.3938803">
  <ele>-29.11</ele>
  <time>2026-09-02T22:07:46Z</time>
  <course>276.07</course>
  <speed>0.0</speed>
  <fix>3d</fix>
</trkpt>
<trkpt lat="33.8103142" lon="-118.3938804">
  <ele>-29.806</ele>
  <time>2026-09-02T22:07:46Z</time>
  <course>185.11</course>
  <speed>0.0282842712474619</speed>
  <fix>3d</fix>
</trkpt>
<trkpt lat="33.8103141" lon="-118.3938803">
  <ele>-29.11</ele>
  <time>2026-09-02T22:07:46Z</time>
  <course>276.07</course>
  <speed>0.0</speed>
  <fix>3d</fix>
</trkpt>
<trkpt lat="33.8103142" lon="-118.3938804">
  <ele>-29.796</ele>
  <time>2026-09-02T22:07:46Z</time>
  <course>185.11</course>
  <speed>0.0282842712474619</speed>
  <fix>3d</fix>
</trkpt>
<trkpt lat="33.8103141" lon="-118.3938803">
  <ele>-29.1</ele>
  <time>2026-09-02T22:07:46Z</time>
  <course>276.08</course>
  <speed>0.0</speed>
  <fix>3d</fix>
</trkpt>
<trkpt lat="33.8103142" lon="-118.3938804">
  <ele>-29.786</ele>
  <time>2026-09-02T22:07:46Z</time>
  <course>185.1</course>
  <speed>0.0282842712474619</speed>
  <fix>3d</fix>
</trkpt>
<trkpt lat="33.8103141" lon="-118.3938803">
  <ele>-29.1</ele>
  <time>2026-09-02T22:07:46Z</time>
  <course>276.08</course>
  <speed>0.0</speed>
  <fix>3d</fix>
</trkpt>
<trkpt lat="33.8103142" lon="-118.3938804">
  <ele>-29.777</ele>
  <time>2026-09-02T22:07:46Z</time>
  <course>185.1</course>
  <speed>0.0282842712474619</speed>
  <fix>3d</fix>
</trkpt>
<trkpt lat="33.8103141" lon="-118.3938803">
  <ele>-29.08</ele>
  <time>2026-09-02T22:07:46Z</time>
  <course>276.08</course>
  <speed>0.0</speed>
  <fix>3d</fix>
</trkpt>
<trkpt lat="33.8103142" lon="-118.3938804">
  <ele>-29.768</ele>
  <time>2026-09-02T22:07:46Z</time>
  <course>185.09</course>
  <speed>0.0282842712474619</speed>
  <fix>3d</fix>
</trkpt>
<trkpt lat="33.8103141" lon="-118.3938803">
  <ele>-29.08</ele>
  <time>2026-09-02T22:07:46Z</time>
  <course>276.08</course>
  <speed>0.0</speed>
  <fix>3d</fix>
</trkpt>
<trkpt lat="33.8103142" lon="-118.3938804">
  <ele>-29.759</ele>
  <time>2026-09-02T22:07:46Z</time>
  <course>185.09</course>
  <speed>0.0282842712474619</speed>
  <fix>3d</fix>
</trkpt>
<trkpt lat="33.8103141" lon="-118.3938803">
  <ele>-29.06</ele>
  <time>2026-09-02T22:07:46Z</time>
  <course>276.09</course>
  <speed>0.0</speed>
  <fix>3d</fix>
</trkpt>
<trkpt lat="33.8103142" lon="-118.3938804">
  <ele>-29.75</ele>
  <time>2026-09-02T22:07:46Z</time>
  <course>185.08</course>
  <speed>0.0282842712474619</speed>
  <fix>3d</fix>
</trkpt>
<trkpt lat="33.8103141" lon="-118.3938803">
  <ele>-29.06</ele>
  <time>2026-09-02T22:07:46Z</time>
  <course>276.09</course>
  <speed>0.0</speed>
  <fix>3d</fix>
</trkpt>
<trkpt lat="33.8103142" lon="-118.3938804">
  <ele>-29.74</ele>
  <time>2026-09-02T22:07:46Z</time>
  <course>185.08</course>
  <speed>0.0282842712474619</speed>
  <fix>3d</fix>
</trkpt>
<trkpt lat="33.8103141" lon="-118.3938803">
  <ele>-29.04</ele>
  <time>2026-09-02T22:07:46Z</time>
  <course>276.09</course>
  <speed>0.0</speed>
  <fix>3d</fix>
</trkpt>
<trkpt lat="33.8103142" lon="-118.3938804">
  <ele>-29.731</ele>
  <time>2026-09-02T22:07:46Z</time>
  <course>185.08</course>
  <speed>0.0282842712474619</speed>
  <fix>3d</fix>
</trkpt>
<trkpt lat="33.8103141" lon="-118.3938803">
  <ele>-29.04</ele>
  <time>2026-09-02T22:07:46Z</time>
  <course>276.09</course>
  <speed>0.0</speed>
  <fix>3d</fix>
</trkpt>
<trkpt lat="33.8103142" lon="-118.3938804">
  <ele>-29.722</ele>
  <time>2026-09-02T22:07:46Z</time>
  <course>185.07</course>
  <speed>0.0282842712474619</speed>
  <fix>3d</fix>
</trkpt>
<trkpt lat="33.8103141" lon="-118.3938803">
  <ele>-29.03</ele>
  <time>2026-09-02T22:07:46Z</time>
  <course>276.1</course>
  <speed>0.0</speed>
  <fix>3d</fix>
</trkpt>
<trkpt lat="33.8103142" lon="-118.3938804">
  <ele>-29.713</ele>
  <time>2026-09-02T22:07:46Z</time>
  <course>185.07</course>
  <speed>0.0282842712474619</speed>
  <fix>3d</fix>
</trkpt>
<trkpt lat="33.8103141" lon="-118.3938803">
  <ele>-29.03</ele>
  <time>2026-09-02T22:07:46Z</time>
  <course>276.1</course>
  <speed>0.0</speed>
  <fix>3d</fix>
</trkpt>
<trkpt lat="33.8103142" lon="-118.3938804">
  <ele>-29.704</ele>
  <time>2026-09-02T22:07:46Z</time>
  <course>185.06</course>
  <speed>0.0282842712474619</speed>
  <fix>3d</fix>
</trkpt>
<trkpt lat="33.8103141" lon="-118.3938803">
  <ele>-29.01</ele>
  <time>2026-09-02T22:07:46Z</time>
  <course>276.1</course>
  <speed>0.0</speed>
  <fix>3d</fix>
</trkpt>
<trkpt lat="33.8103142" lon="-118.3938805">
  <ele>-29.695</ele>
  <time>2026-09-02T22:07:46Z</time>
  <course>185.06</course>
  <speed>0.0282842712474619</speed>
  <fix>3d</fix>
</trkpt>
<trkpt lat="33.8103141" lon="-118.3938803">
  <ele>-29.01</ele>
  <time>2026-09-02T22:07:46Z</time>
  <course>276.1</course>
  <speed>0.0</speed>
  <fix>3d</fix>
</trkpt>
<trkpt lat="33.8103142" lon="-118.3938805">
  <ele>-29.685</ele>
  <time>2026-09-02T22:07:46Z</time>
  <course>185.06</course>
  <speed>0.0282842712474619</speed>
  <fix>3d</fix>
</trkpt>
<trkpt lat="33.8103141" lon="-118.3938803">
  <ele>-28.99</ele>
  <time>2026-09-02T22:07:46Z</time>
  <course>276.11</course>
  <speed>0.0</speed>
  <fix>3d</fix>
</trkpt>
<trkpt lat="33.8103142" lon="-118.3938805">
  <ele>-29.676</ele>
  <time>2026-09-02T22:07:46Z</time>
  <course>185.05</course>
  <speed>0.0282842712474619</speed>
  <fix>3d</fix>
</trkpt>
<trkpt lat="33.8103141" lon="-118.3938803">
  <ele>-28.99</ele>
  <time>2026-09-02T22:07:46Z</time>
  <course>276.11</course>
  <speed>0.0</speed>
  <fix>3d</fix>
</trkpt>
<trkpt lat="33.8103142" lon="-118.3938805">
  <ele>-29.666</ele>
  <time>2026-09-02T22:07:46Z</time>
  <course>185.05</course>
  <speed>0.0282842712474619</speed>
  <fix>3d</fix>
</trkpt>
<trkpt lat="33.8103141" lon="-118.3938804">
  <ele>-28.97</ele>
  <time>2026-09-02T22:07:46Z</time>
  <course>276.12</course>
  <speed>0.0</speed>
  <fix>3d</fix>
</trkpt>
<trkpt lat="33.8103142" lon="-118.3938805">
  <ele>-29.657</ele>
  <time>2026-09-02T22:07:46Z</time>
  <course>185.04</course>
  <speed>0.0282842712474619</speed>
  <fix>3d</fix>
</trkpt>
<trkpt lat="33.8103141" lon="-118.3938804">
  <ele>-28.97</ele>
  <time>2026-09-02T22:07:46Z</time>
  <course>276.12</course>
  <speed>0.0</speed>
  <fix>3d</fix>
</trkpt>
<trkpt lat="33.8103142" lon="-118.3938805">
  <ele>-29.66</ele>
  <time>2026-09-02T22:07:46Z</time>
  <course>185.04</course>
  <speed>0.0282842712474619</speed>
  <fix>3d</fix>
</trkpt>
<trkpt lat="33.8103141" lon="-118.3938804">
  <ele>-28.95</ele>
  <time>2026-09-02T22:07:46Z</time>
  <course>276.11</course>
  <speed>0.0</speed>
  <fix>3d</fix>
</trkpt>
<trkpt lat="33.8103142" lon="-118.3938805">
  <ele>-29.668</ele>
  <time>2026-09-02T22:07:46Z</time>
  <course>185.04</course>
  <speed>0.0282842712474619</speed>
  <fix>3d</fix>
</trkpt>
<trkpt lat="33.8103141" lon="-118.3938804">
  <ele>-28.95</ele>
  <time>2026-09-02T22:07:46Z</time>
  <course>276.11</course>
  <speed>0.0</speed>
  <fix>3d</fix>
</trkpt>
<trkpt lat="33.8103142" lon="-118.3938805">
  <ele>-29.675</ele>
  <time>2026-09-02T22:07:46Z</time>
  <course>185.03</course>
  <speed>0.0282842712474619</speed>
  <fix>3d</fix>
</trkpt>
<trkpt lat="33.8103141" lon="-118.3938804">
  <ele>-28.94</ele>
  <time>2026-09-02T22:07:46Z</time>
  <course>276.1</course>
  <speed>0.0</speed>
  <fix>3d</fix>
</trkpt>
<trkpt lat="33.8103142" lon="-118.3938805">
  <ele>-29.684</ele>
  <time>2026-09-02T22:07:46Z</time>
  <course>185.03</course>
  <speed>0.0282842712474619</speed>
  <fix>3d</fix>
</trkpt>
<trkpt lat="33.8103141" lon="-118.3938804">
  <ele>-28.94</ele>
  <time>2026-09-02T22:07:46Z</time>
  <course>276.1</course>
  <speed>0.0</speed>
  <fix>3d</fix>
</trkpt>
<trkpt lat="33.8103142" lon="-118.3938805">
  <ele>-29.693</ele>
  <time>2026-09-02T22:07:46Z</time>
  <course>185.03</course>
  <speed>0.0282842712474619</speed>
  <fix>3d</fix>
</trkpt>
<trkpt lat="33.8103141" lon="-118.3938804">
  <ele>-28.96</ele>
  <time>2026-09-02T22:07:46Z</time>
  <course>276.09</course>
  <speed>0.0</speed>
  <fix>3d</fix>
</trkpt>
<trkpt lat="33.8103142" lon="-118.3938805">
  <ele>-29.703</ele>
  <time>2026-09-02T22:07:46Z</time>
  <course>185.02</course>
  <speed>0.0282842712474619</speed>
  <fix>3d</fix>
</trkpt>
<trkpt lat="33.8103141" lon="-118.3938804">
  <ele>-28.96</ele>
  <time>2026-09-02T22:07:46Z</time>
  <course>276.09</course>
  <speed>0.0</speed>
  <fix>3d</fix>
</trkpt>
<trkpt lat="33.8103142" lon="-118.3938805">
  <ele>-29.714</ele>
  <time>2026-09-02T22:07:46Z</time>
  <course>185.02</course>
  <speed>0.0282842712474619</speed>
  <fix>3d</fix>
</trkpt>
<trkpt lat="33.8103141" lon="-118.3938804">
  <ele>-28.98</ele>
  <time>2026-09-02T22:07:46Z</time>
  <course>276.09</course>
  <speed>0.0</speed>
  <fix>3d</fix>
</trkpt>
<trkpt lat="33.8103142" lon="-118.3938805">
  <ele>-29.725</ele>
  <time>2026-09-02T22:07:46Z</time>
  <course>185.02</course>
  <speed>0.0282842712474619</speed>
  <fix>3d</fix>
</trkpt>
<trkpt lat="33.8103141" lon="-118.3938804">
  <ele>-28.98</ele>
  <time>2026-09-02T22:07:46Z</time>
  <course>276.09</course>
  <speed>0.0</speed>
  <fix>3d</fix>
</trkpt>
<trkpt lat="33.8103142" lon="-118.3938806">
  <ele>-29.736</ele>
  <time>2026-09-02T22:07:46Z</time>
  <course>185.01</course>
  <speed>0.0282842712474619</speed>
  <fix>3d</fix>
</trkpt>
<trkpt lat="33.8103141" lon="-118.3938804">
  <ele>-28.99</ele>
  <time>2026-09-02T22:07:46Z</time>
  <course>276.09</course>
  <speed>0.0</speed>
  <fix>3d</fix>
</trkpt>
<trkpt lat="33.8103142" lon="-118.3938806">
  <ele>-29.746</ele>
  <time>2026-09-02T22:07:46Z</time>
  <course>185.01</course>
  <speed>0.0282842712474619</speed>
  <fix>3d</fix>
</trkpt>
<trkpt lat="33.8103141" lon="-118.3938804">
  <ele>-28.99</ele>
  <time>2026-09-02T22:07:46Z</time>
  <course>276.09</course>
  <speed>0.0</speed>
  <fix>3d</fix>
</trkpt>
<trkpt lat="33.8103142" lon="-118.3938806">
  <ele>-29.755</ele>
  <time>2026-09-02T22:07:46Z</time>
  <course>185.01</course>
  <speed>0.0282842712474619</speed>
  <fix>3d</fix>
</trkpt>
<trkpt lat="33.8103141" lon="-118.3938804">
  <ele>-29.01</ele>
  <time>2026-09-02T22:07:46Z</time>
  <course>276.09</course>
  <speed>0.0</speed>
  <fix>3d</fix>
</trkpt>
<trkpt lat="33.8103142" lon="-118.3938806">
  <ele>-29.763</ele>
  <time>2026-09-02T22:07:46Z</time>
  <course>185.0</course>
  <speed>0.0282842712474619</speed>
  <fix>3d</fix>
</trkpt>
<trkpt lat="33.8103141" lon="-118.3938804">
  <ele>-29.01</ele>
  <time>2026-09-02T22:07:46Z</time>
  <course>276.09</course>
  <speed>0.0</speed>
  <fix>3d</fix>
</trkpt>
<trkpt lat="33.8103142" lon="-118.3938806">
  <ele>-29.769</ele>
  <time>2026-09-02T22:07:46Z</time>
  <course>185.0</course>
  <speed>0.0282842712474619</speed>
  <fix>3d</fix>
</trkpt>
<trkpt lat="33.8103141" lon="-118.3938804">
  <ele>-29.02</ele>
  <time>2026-09-02T22:07:46Z</time>
  <course>276.1</course>
  <speed>0.0</speed>
  <fix>3d</fix>
</trkpt>
<trkpt lat="33.8103142" lon="-118.3938806">
  <ele>-29.774</ele>
  <time>2026-09-02T22:07:46Z</time>
  <course>185.0</course>
  <speed>0.0282842712474619</speed>
  <fix>3d</fix>
</trkpt>
<trkpt lat="33.8103141" lon="-118.3938804">
  <ele>-29.02</ele>
  <time>2026-09-02T22:07:46Z</time>
  <course>276.1</course>
  <speed>0.0</speed>
  <fix>3d</fix>
</trkpt>
<trkpt lat="33.8103142" lon="-118.3938806">
  <ele>-29.778</ele>
  <time>2026-09-02T22:07:46Z</time>
  <course>184.99</course>
  <speed>0.0282842712474619</speed>
  <fix>3d</fix>
</trkpt>
<trkpt lat="33.8103141" lon="-118.3938805">
  <ele>-29.03</ele>
  <time>2026-09-02T22:07:46Z</time>
  <course>276.11</course>
  <speed>0.0</speed>
  <fix>3d</fix>
</trkpt>
<trkpt lat="33.8103142" lon="-118.3938806">
  <ele>-29.782</ele>
  <time>2026-09-02T22:07:46Z</time>
  <course>184.99</course>
  <speed>0.0282842712474619</speed>
  <fix>3d</fix>
</trkpt>
<trkpt lat="33.8103141" lon="-118.3938805">
  <ele>-29.03</ele>
  <time>2026-09-02T22:07:46Z</time>
  <course>276.11</course>
  <speed>0.0</speed>
  <fix>3d</fix>
</trkpt>
<trkpt lat="33.8103142" lon="-118.3938806">
  <ele>-29.785</ele>
  <time>2026-09-02T22:07:46Z</time>
  <course>184.99</course>
  <speed>0.0282842712474619</speed>
  <fix>3d</fix>
</trkpt>
<trkpt lat="33.8103141" lon="-118.3938805">
  <ele>-29.04</ele>
  <time>2026-09-02T22:07:46Z</time>
  <course>276.11</course>
  <speed>0.0</speed>
  <fix>3d</fix>
</trkpt>
<trkpt lat="33.8103142" lon="-118.3938806">
  <ele>-29.787</ele>
  <time>2026-09-02T22:07:46Z</time>
  <course>184.98</course>
  <speed>0.0282842712474619</speed>
  <fix>3d</fix>
</trkpt>
<trkpt lat="33.8103141" lon="-118.3938805">
  <ele>-29.04</ele>
  <time>2026-09-02T22:07:46Z</time>
  <course>276.11</course>
  <speed>0.0</speed>
  <fix>3d</fix>
</trkpt>
<trkpt lat="33.8103142" lon="-118.3938806">
  <ele>-29.789</ele>
  <time>2026-09-02T22:07:46Z</time>
  <course>184.98</course>
  <speed>0.0282842712474619</speed>
  <fix>3d</fix>
</trkpt>
<trkpt lat="33.8103141" lon="-118.3938805">
  <ele>-29.05</ele>
  <time>2026-09-02T22:07:46Z</time>
  <course>276.11</course>
  <speed>0.0</speed>
  <fix>3d</fix>
</trkpt>
<trkpt lat="33.8103142" lon="-118.3938806">
  <ele>-29.789</ele>
  <time>2026-09-02T22:07:46Z</time>
  <course>184.98</course>
  <speed>0.0282842712474619</speed>
  <fix>3d</fix>
</trkpt>
<trkpt lat="33.8103141" lon="-118.3938805">
  <ele>-29.05</ele>
  <time>2026-09-02T22:07:46Z</time>
  <course>276.11</course>
  <speed>0.0</speed>
  <fix>3d</fix>
</trkpt>
<trkpt lat="33.8103142" lon="-118.3938806">
  <ele>-29.789</ele>
  <time>2026-09-02T22:07:46Z</time>
  <course>184.97</course>
  <speed>0.0282842712474619</speed>
  <fix>3d</fix>
</trkpt>
<trkpt lat="33.8103141" lon="-118.3938805">
  <ele>-29.06</ele>
  <time>2026-09-02T22:07:46Z</time>
  <course>276.12</course>
  <speed>0.0</speed>
  <fix>3d</fix>
</trkpt>
<trkpt lat="33.8103142" lon="-118.3938806">
  <ele>-29.788</ele>
  <time>2026-09-02T22:07:46Z</time>
  <course>184.97</course>
  <speed>0.0282842712474619</speed>
  <fix>3d</fix>
</trkpt>
<trkpt lat="33.8103141" lon="-118.3938805">
  <ele>-29.06</ele>
  <time>2026-09-02T22:07:46Z</time>
  <course>276.12</course>
  <speed>0.0</speed>
  <fix>3d</fix>
</trkpt>
<trkpt lat="33.8103142" lon="-118.3938806">
  <ele>-29.786</ele>
  <time>2026-09-02T22:07:46Z</time>
  <course>184.97</course>
  <speed>0.0282842712474619</speed>
  <fix>3d</fix>
</trkpt>
<trkpt lat="33.8103141" lon="-118.3938805">
  <ele>-29.06</ele>
  <time>2026-09-02T22:07:46Z</time>
  <course>276.13</course>
  <speed>0.0</speed>
  <fix>3d</fix>
</trkpt>
<trkpt lat="33.8103142" lon="-118.3938807">
  <ele>-29.784</ele>
  <time>2026-09-02T22:07:46Z</time>
  <course>184.96</course>
  <speed>0.0282842712474619</speed>
  <fix>3d</fix>
</trkpt>
<trkpt lat="33.8103141" lon="-118.3938805">
  <ele>-29.06</ele>
  <time>2026-09-02T22:07:46Z</time>
  <course>276.13</course>
  <speed>0.0</speed>
  <fix>3d</fix>
</trkpt>
<trkpt lat="33.8103142" lon="-118.3938807">
  <ele>-29.781</ele>
  <time>2026-09-02T22:07:46Z</time>
  <course>184.96</course>
  <speed>0.0282842712474619</speed>
  <fix>3d</fix>
</trkpt>
<trkpt lat="33.8103141" lon="-118.3938805">
  <ele>-29.06</ele>
  <time>2026-09-02T22:07:46Z</time>
  <course>276.14</course>
  <speed>0.0</speed>
  <fix>3d</fix>
</trkpt>
<trkpt lat="33.8103142" lon="-118.3938807">
  <ele>-29.776</ele>
  <time>2026-09-02T22:07:46Z</time>
  <course>184.96</course>
  <speed>0.0282842712474619</speed>
  <fix>3d</fix>
</trkpt>
<trkpt lat="33.8103141" lon="-118.3938805">
  <ele>-29.06</ele>
  <time>2026-09-02T22:07:46Z</time>
  <course>276.14</course>
  <speed>0.0</speed>
  <fix>3d</fix>
</trkpt>
<trkpt lat="33.8103142" lon="-118.3938807">
  <ele>-29.773</ele>
  <time>2026-09-02T22:07:46Z</time>
  <course>184.95</course>
  <speed>0.0282842712474619</speed>
  <fix>3d</fix>
</trkpt>
<trkpt lat="33.8103141" lon="-118.3938805">
  <ele>-29.05</ele>
  <time>2026-09-02T22:07:46Z</time>
  <course>276.14</course>
  <speed>0.0</speed>
  <fix>3d</fix>
</trkpt>
<trkpt lat="33.8103142" lon="-118.3938807">
  <ele>-29.77</ele>
  <time>2026-09-02T22:07:46Z</time>
  <course>184.95</course>
  <speed>0.0282842712474619</speed>
  <fix>3d</fix>
</trkpt>
<trkpt lat="33.8103141" lon="-118.3938805">
  <ele>-29.05</ele>
  <time>2026-09-02T22:07:46Z</time>
  <course>276.14</course>
  <speed>0.0</speed>
  <fix>3d</fix>
</trkpt>
<trkpt lat="33.8103142" lon="-118.3938807">
  <ele>-29.767</ele>
  <time>2026-09-02T22:07:46Z</time>
  <course>184.95</course>
  <speed>0.0282842712474619</speed>
  <fix>3d</fix>
</trkpt>
<trkpt lat="33.8103141" lon="-118.3938805">
  <ele>-29.05</ele>
  <time>2026-09-02T22:07:46Z</time>
  <course>276.15</course>
  <speed>0.0</speed>
  <fix>3d</fix>
</trkpt>
<trkpt lat="33.8103142" lon="-118.3938807">
  <ele>-29.765</ele>
  <time>2026-09-02T22:07:46Z</time>
  <course>184.95</course>
  <speed>0.0282842712474619</speed>
  <fix>3d</fix>
</trkpt>
<trkpt lat="33.8103141" lon="-118.3938805">
  <ele>-29.05</ele>
  <time>2026-09-02T22:07:46Z</time>
  <course>276.15</course>
  <speed>0.0</speed>
  <fix>3d</fix>
</trkpt>
<trkpt lat="33.8103142" lon="-118.3938807">
  <ele>-29.763</ele>
  <time>2026-09-02T22:07:46Z</time>
  <course>184.94</course>
  <speed>0.0282842712474619</speed>
  <fix>3d</fix>
</trkpt>
<trkpt lat="33.8103141" lon="-118.3938806">
  <ele>-29.04</ele>
  <time>2026-09-02T22:07:46Z</time>
  <course>276.14</course>
  <speed>0.0</speed>
  <fix>3d</fix>
</trkpt>
<trkpt lat="33.8103142" lon="-118.3938807">
  <ele>-29.761</ele>
  <time>2026-09-02T22:07:46Z</time>
  <course>184.94</course>
  <speed>0.0282842712474619</speed>
  <fix>3d</fix>
</trkpt>
<trkpt lat="33.8103141" lon="-118.3938806">
  <ele>-29.04</ele>
  <time>2026-09-02T22:07:46Z</time>
  <course>276.14</course>
  <speed>0.0</speed>
  <fix>3d</fix>
</trkpt>
<trkpt lat="33.8103142" lon="-118.3938807">
  <ele>-29.759</ele>
  <time>2026-09-02T22:07:46Z</time>
  <course>184.94</course>
  <speed>0.0282842712474619</speed>
  <fix>3d</fix>
</trkpt>
<trkpt lat="33.8103141" lon="-118.3938806">
  <ele>-29.04</ele>
  <time>2026-09-02T22:07:46Z</time>
  <course>276.14</course>
  <speed>0.0</speed>
  <fix>3d</fix>
</trkpt>
<trkpt lat="33.8103142" lon="-118.3938807">
  <ele>-29.757</ele>
  <time>2026-09-02T22:07:46Z</time>
  <course>184.93</course>
  <speed>0.0282842712474619</speed>
  <fix>3d</fix>
</trkpt>
<trkpt lat="33.8103141" lon="-118.3938806">
  <ele>-29.04</ele>
  <time>2026-09-02T22:07:46Z</time>
  <course>276.14</course>
  <speed>0.0</speed>
  <fix>3d</fix>
</trkpt>
<trkpt lat="33.8103142" lon="-118.3938807">
  <ele>-29.754</ele>
  <time>2026-09-02T22:07:46Z</time>
  <course>184.93</course>
  <speed>0.0282842712474619</speed>
  <fix>3d</fix>
</trkpt>
<trkpt lat="33.8103141" lon="-118.3938806">
  <ele>-29.03</ele>
  <time>2026-09-02T22:07:46Z</time>
  <course>276.14</course>
  <speed>0.0</speed>
  <fix>3d</fix>
</trkpt>
<trkpt lat="33.8103142" lon="-118.3938807">
  <ele>-29.752</ele>
  <time>2026-09-02T22:07:46Z</time>
  <course>184.93</course>
  <speed>0.0282842712474619</speed>
  <fix>3d</fix>
</trkpt>
<trkpt lat="33.8103141" lon="-118.3938806">
  <ele>-29.03</ele>
  <time>2026-09-02T22:07:46Z</time>
  <course>276.14</course>
  <speed>0.0</speed>
  <fix>3d</fix>
</trkpt>
<trkpt lat="33.8103142" lon="-118.3938807">
  <ele>-29.75</ele>
  <time>2026-09-02T22:07:46Z</time>
  <course>184.93</course>
  <speed>0.0282842712474619</speed>
  <fix>3d</fix>
</trkpt>
<trkpt lat="33.8103141" lon="-118.3938806">
  <ele>-29.03</ele>
  <time>2026-09-02T22:07:46Z</time>
  <course>276.13</course>
  <speed>0.0</speed>
  <fix>3d</fix>
</trkpt>
<trkpt lat="33.8103142" lon="-118.3938807">
  <ele>-29.748</ele>
  <time>2026-09-02T22:07:46Z</time>
  <course>184.92</course>
  <speed>0.0282842712474619</speed>
  <fix>3d</fix>
</trkpt>
<trkpt lat="33.8103141" lon="-118.3938806">
  <ele>-29.03</ele>
  <time>2026-09-02T22:07:46Z</time>
  <course>276.13</course>
  <speed>0.0</speed>
  <fix>3d</fix>
</trkpt>
<trkpt lat="33.8103142" lon="-118.3938807">
  <ele>-29.747</ele>
  <time>2026-09-02T22:07:46Z</time>
  <course>184.92</course>
  <speed>0.0282842712474619</speed>
  <fix>3d</fix>
</trkpt>
<trkpt lat="33.8103141" lon="-118.3938806">
  <ele>-29.03</ele>
  <time>2026-09-02T22:07:46Z</time>
  <course>276.13</course>
  <speed>0.0</speed>
  <fix>3d</fix>
</trkpt>
<trkpt lat="33.8103142" lon="-118.3938807">
  <ele>-29.746</ele>
  <time>2026-09-02T22:07:46Z</time>
  <course>184.92</course>
  <speed>0.0282842712474619</speed>
  <fix>3d</fix>
</trkpt>
<trkpt lat="33.8103141" lon="-118.3938806">
  <ele>-29.03</ele>
  <time>2026-09-02T22:07:46Z</time>
  <course>276.13</course>
  <speed>0.0</speed>
  <fix>3d</fix>
</trkpt>
<trkpt lat="33.8103142" lon="-118.3938807">
  <ele>-29.746</ele>
  <time>2026-09-02T22:07:46Z</time>
  <course>184.91</course>
  <speed>0.0282842712474619</speed>
  <fix>3d</fix>
</trkpt>
<trkpt lat="33.8103141" lon="-118.3938806">
  <ele>-29.03</ele>
  <time>2026-09-02T22:07:46Z</time>
  <course>276.12</course>
  <speed>0.0</speed>
  <fix>3d</fix>
</trkpt>
<trkpt lat="33.8103142" lon="-118.3938808">
  <ele>-29.747</ele>
  <time>2026-09-02T22:07:46Z</time>
  <course>184.91</course>
  <speed>0.0282842712474619</speed>
  <fix>3d</fix>
</trkpt>
<trkpt lat="33.8103141" lon="-118.3938806">
  <ele>-29.03</ele>
  <time>2026-09-02T22:07:46Z</time>
  <course>276.12</course>
  <speed>0.0</speed>
  <fix>3d</fix>
</trkpt>
<trkpt lat="33.8103142" lon="-118.3938808">
  <ele>-29.748</ele>
  <time>2026-09-02T22:07:46Z</time>
  <course>184.91</course>
  <speed>0.0282842712474619</speed>
  <fix>3d</fix>
</trkpt>
<trkpt lat="33.8103141" lon="-118.3938806">
  <ele>-29.03</ele>
  <time>2026-09-02T22:07:46Z</time>
  <course>276.11</course>
  <speed>0.0</speed>
  <fix>3d</fix>
</trkpt>
<trkpt lat="33.8103142" lon="-118.3938808">
  <ele>-29.75</ele>
  <time>2026-09-02T22:07:46Z</time>
  <course>184.91</course>
  <speed>0.0282842712474619</speed>
  <fix>3d</fix>
</trkpt>
<trkpt lat="33.8103141" lon="-118.3938806">
  <ele>-29.03</ele>
  <time>2026-09-02T22:07:46Z</time>
  <course>276.11</course>
  <speed>0.0</speed>
  <fix>3d</fix>
</trkpt>
<trkpt lat="33.8103142" lon="-118.3938808">
  <ele>-29.751</ele>
  <time>2026-09-02T22:07:46Z</time>
  <course>184.9</course>
  <speed>0.0282842712474619</speed>
  <fix>3d</fix>
</trkpt>
<trkpt lat="33.8103141" lon="-118.3938806">
  <ele>-29.03</ele>
  <time>2026-09-02T22:07:46Z</time>
  <course>276.11</course>
  <speed>0.0</speed>
  <fix>3d</fix>
</trkpt>
<trkpt lat="33.8103142" lon="-118.3938808">
  <ele>-29.752</ele>
  <time>2026-09-02T22:07:46Z</time>
  <course>184.9</course>
  <speed>0.0282842712474619</speed>
  <fix>3d</fix>
</trkpt>
<trkpt lat="33.8103141" lon="-118.3938806">
  <ele>-29.03</ele>
  <time>2026-09-02T22:07:46Z</time>
  <course>276.11</course>
  <speed>0.0</speed>
  <fix>3d</fix>
</trkpt>
<trkpt lat="33.8103142" lon="-118.3938808">
  <ele>-29.752</ele>
  <time>2026-09-02T22:07:46Z</time>
  <course>184.9</course>
  <speed>0.0282842712474619</speed>
  <fix>3d</fix>
</trkpt>
<trkpt lat="33.8103141" lon="-118.3938806">
  <ele>-29.03</ele>
  <time>2026-09-02T22:07:46Z</time>
  <course>276.11</course>
  <speed>0.0</speed>
  <fix>3d</fix>
</trkpt>
<trkpt lat="33.8103142" lon="-118.3938808">
  <ele>-29.752</ele>
  <time>2026-09-02T22:07:46Z</time>
  <course>184.9</course>
  <speed>0.0282842712474619</speed>
  <fix>3d</fix>
</trkpt>
<trkpt lat="33.8103141" lon="-118.3938806">
  <ele>-29.03</ele>
  <time>2026-09-02T22:07:46Z</time>
  <course>276.11</course>
  <speed>0.0</speed>
  <fix>3d</fix>
</trkpt>
<trkpt lat="33.8103142" lon="-118.3938808">
  <ele>-29.752</ele>
  <time>2026-09-02T22:07:46Z</time>
  <course>184.89</course>
  <speed>0.0282842712474619</speed>
  <fix>3d</fix>
</trkpt>
<trkpt lat="33.8103141" lon="-118.3938807">
  <ele>-29.02</ele>
  <time>2026-09-02T22:07:46Z</time>
  <course>276.11</course>
  <speed>0.0</speed>
  <fix>3d</fix>
</trkpt>
<trkpt lat="33.8103142" lon="-118.3938808">
  <ele>-29.751</ele>
  <time>2026-09-02T22:07:46Z</time>
  <course>184.89</course>
  <speed>0.0282842712474619</speed>
  <fix>3d</fix>
</trkpt>
<trkpt lat="33.8103141" lon="-118.3938807">
  <ele>-29.02</ele>
  <time>2026-09-02T22:07:46Z</time>
  <course>276.11</course>
  <speed>0.0</speed>
  <fix>3d</fix>
</trkpt>
<trkpt lat="33.8103142" lon="-118.3938808">
  <ele>-29.751</ele>
  <time>2026-09-02T22:07:46Z</time>
  <course>184.89</course>
  <speed>0.0282842712474619</speed>
  <fix>3d</fix>
</trkpt>
<trkpt lat="33.8103141" lon="-118.3938807">
  <ele>-29.02</ele>
  <time>2026-09-02T22:07:46Z</time>
  <course>276.1</course>
  <speed>0.0</speed>
  <fix>3d</fix>
</trkpt>
<trkpt lat="33.8103142" lon="-118.3938808">
  <ele>-29.752</ele>
  <time>2026-09-02T22:07:46Z</time>
  <course>184.88</course>
  <speed>0.0282842712474619</speed>
  <fix>3d</fix>
</trkpt>
<trkpt lat="33.8103141" lon="-118.3938807">
  <ele>-29.02</ele>
  <time>2026-09-02T22:07:46Z</time>
  <course>276.1</course>
  <speed>0.0</speed>
  <fix>3d</fix>
</trkpt>
<trkpt lat="33.8103142" lon="-118.3938808">
  <ele>-29.754</ele>
  <time>2026-09-02T22:07:46Z</time>
  <course>184.88</course>
  <speed>0.0282842712474619</speed>
  <fix>3d</fix>
</trkpt>
<trkpt lat="33.8103141" lon="-118.3938807">
  <ele>-29.03</ele>
  <time>2026-09-02T22:07:46Z</time>
  <course>276.09</course>
  <speed>0.0</speed>
  <fix>3d</fix>
</trkpt>
<trkpt lat="33.8103142" lon="-118.3938808">
  <ele>-29.756</ele>
  <time>2026-09-02T22:07:46Z</time>
  <course>184.88</course>
  <speed>0.0282842712474619</speed>
  <fix>3d</fix>
</trkpt>
<trkpt lat="33.8103141" lon="-118.3938807">
  <ele>-29.03</ele>
  <time>2026-09-02T22:07:46Z</time>
  <course>276.09</course>
  <speed>0.0</speed>
  <fix>3d</fix>
</trkpt>
<trkpt lat="33.8103142" lon="-118.3938808">
  <ele>-29.758</ele>
  <time>2026-09-02T22:07:46Z</time>
  <course>184.88</course>
  <speed>0.0282842712474619</speed>
  <fix>3d</fix>
</trkpt>
<trkpt lat="33.8103141" lon="-118.3938807">
  <ele>-29.03</ele>
  <time>2026-09-02T22:07:46Z</time>
  <course>276.08</course>
  <speed>0.0</speed>
  <fix>3d</fix>
</trkpt>
<trkpt lat="33.8103142" lon="-118.3938808">
  <ele>-29.759</ele>
  <time>2026-09-02T22:07:46Z</time>
  <course>184.87</course>
  <speed>0.0282842712474619</speed>
  <fix>3d</fix>
</trkpt>
<trkpt lat="33.8103141" lon="-118.3938807">
  <ele>-29.03</ele>
  <time>2026-09-02T22:07:46Z</time>
  <course>276.08</course>
  <speed>0.0</speed>
  <fix>3d</fix>
</trkpt>
<trkpt lat="33.8103142" lon="-118.3938808">
  <ele>-29.759</ele>
  <time>2026-09-02T22:07:46Z</time>
  <course>184.87</course>
  <speed>0.0282842712474619</speed>
  <fix>3d</fix>
</trkpt>
<trkpt lat="33.8103141" lon="-118.3938807">
  <ele>-29.03</ele>
  <time>2026-09-02T22:07:46Z</time>
  <course>276.08</course>
  <speed>0.0</speed>
  <fix>3d</fix>
</trkpt>
<trkpt lat="33.8103142" lon="-118.3938809">
  <ele>-29.76</ele>
  <time>2026-09-02T22:07:46Z</time>
  <course>184.87</course>
  <speed>0.0282842712474619</speed>
  <fix>3d</fix>
</trkpt>
<trkpt lat="33.8103141" lon="-118.3938807">
  <ele>-29.03</ele>
  <time>2026-09-02T22:07:46Z</time>
  <course>276.08</course>
  <speed>0.0</speed>
  <fix>3d</fix>
</trkpt>
<trkpt lat="33.8103142" lon="-118.3938809">
  <ele>-29.761</ele>
  <time>2026-09-02T22:07:46Z</time>
  <course>184.87</course>
  <speed>0.0282842712474619</speed>
  <fix>3d</fix>
</trkpt>
<trkpt lat="33.8103141" lon="-118.3938807">
  <ele>-29.03</ele>
  <time>2026-09-02T22:07:46Z</time>
  <course>276.08</course>
  <speed>0.0</speed>
  <fix>3d</fix>
</trkpt>
<trkpt lat="33.8103142" lon="-118.3938809">
  <ele>-29.762</ele>
  <time>2026-09-02T22:07:46Z</time>
  <course>184.86</course>
  <speed>0.0282842712474619</speed>
  <fix>3d</fix>
</trkpt>
<trkpt lat="33.8103141" lon="-118.3938807">
  <ele>-29.03</ele>
  <time>2026-09-02T22:07:46Z</time>
  <course>276.08</course>
  <speed>0.0</speed>
  <fix>3d</fix>
</trkpt>
<trkpt lat="33.8103142" lon="-118.3938809">
  <ele>-29.763</ele>
  <time>2026-09-02T22:07:46Z</time>
  <course>184.86</course>
  <speed>0.0282842712474619</speed>
  <fix>3d</fix>
</trkpt>
<trkpt lat="33.8103141" lon="-118.3938807">
  <ele>-29.04</ele>
  <time>2026-09-02T22:07:46Z</time>
  <course>276.08</course>
  <speed>0.0</speed>
  <fix>3d</fix>
</trkpt>
<trkpt lat="33.8103142" lon="-118.3938809">
  <ele>-29.763</ele>
  <time>2026-09-02T22:07:46Z</time>
  <course>184.86</course>
  <speed>0.0282842712474619</speed>
  <fix>3d</fix>
</trkpt>
<trkpt lat="33.8103141" lon="-118.3938807">
  <ele>-29.04</ele>
  <time>2026-09-02T22:07:46Z</time>
  <course>276.08</course>
  <speed>0.0</speed>
  <fix>3d</fix>
</trkpt>
<trkpt lat="33.8103142" lon="-118.3938809">
  <ele>-29.763</ele>
  <time>2026-09-02T22:07:46Z</time>
  <course>184.86</course>
  <speed>0.0282842712474619</speed>
  <fix>3d</fix>
</trkpt>
<trkpt lat="33.8103141" lon="-118.3938808">
  <ele>-29.04</ele>
  <time>2026-09-02T22:07:46Z</time>
  <course>276.08</course>
  <speed>0.0</speed>
  <fix>3d</fix>
</trkpt>
<trkpt lat="33.8103142" lon="-118.3938809">
  <ele>-29.763</ele>
  <time>2026-09-02T22:07:46Z</time>
  <course>184.85</course>
  <speed>0.0282842712474619</speed>
  <fix>3d</fix>
</trkpt>
<trkpt lat="33.8103141" lon="-118.3938808">
  <ele>-29.04</ele>
  <time>2026-09-02T22:07:46Z</time>
  <course>276.08</course>
  <speed>0.0</speed>
  <fix>3d</fix>
</trkpt>
<trkpt lat="33.8103142" lon="-118.3938809">
  <ele>-29.763</ele>
  <time>2026-09-02T22:07:46Z</time>
  <course>184.85</course>
  <speed>0.0282842712474619</speed>
  <fix>3d</fix>
</trkpt>
<trkpt lat="33.8103141" lon="-118.3938808">
  <ele>-29.04</ele>
  <time>2026-09-02T22:07:46Z</time>
  <course>276.08</course>
  <speed>0.0</speed>
  <fix>3d</fix>
</trkpt>
<trkpt lat="33.8103142" lon="-118.3938809">
  <ele>-29.763</ele>
  <time>2026-09-02T22:07:46Z</time>
  <course>184.85</course>
  <speed>0.0282842712474619</speed>
  <fix>3d</fix>
</trkpt>
<trkpt lat="33.8103141" lon="-118.3938808">
  <ele>-29.04</ele>
  <time>2026-09-02T22:07:46Z</time>
  <course>276.08</course>
  <speed>0.0</speed>
  <fix>3d</fix>
</trkpt>
<trkpt lat="33.8103142" lon="-118.3938809">
  <ele>-29.762</ele>
  <time>2026-09-02T22:07:46Z</time>
  <course>184.85</course>
  <speed>0.0282842712474619</speed>
  <fix>3d</fix>
</trkpt>
<trkpt lat="33.8103141" lon="-118.3938808">
  <ele>-29.04</ele>
  <time>2026-09-02T22:07:46Z</time>
  <course>276.08</course>
  <speed>0.0</speed>
  <fix>3d</fix>
</trkpt>
<trkpt lat="33.8103142" lon="-118.3938809">
  <ele>-29.761</ele>
  <time>2026-09-02T22:07:46Z</time>
  <course>184.84</course>
  <speed>0.0282842712474619</speed>
  <fix>3d</fix>
</trkpt>
<trkpt lat="33.8103141" lon="-118.3938808">
  <ele>-29.04</ele>
  <time>2026-09-02T22:07:46Z</time>
  <course>276.08</course>
  <speed>0.0</speed>
  <fix>3d</fix>
</trkpt>
<trkpt lat="33.8103142" lon="-118.3938809">
  <ele>-29.759</ele>
  <time>2026-09-02T22:07:46Z</time>
  <course>184.84</course>
  <speed>0.0282842712474619</speed>
  <fix>3d</fix>
</trkpt>
<trkpt lat="33.8103141" lon="-118.3938808">
  <ele>-29.04</ele>
  <time>2026-09-02T22:07:46Z</time>
  <course>276.07</course>
  <speed>0.0</speed>
  <fix>3d</fix>
</trkpt>
<trkpt lat="33.8103143" lon="-118.393881">
  <ele>-29.757</ele>
  <time>2026-09-02T22:07:46Z</time>
  <course>184.84</course>
  <speed>0.0282842712474619</speed>
  <fix>3d</fix>
</trkpt>
<trkpt lat="33.8103141" lon="-118.3938808">
  <ele>-29.04</ele>
  <time>2026-09-02T22:07:46Z</time>
  <course>276.07</course>
  <speed>0.0</speed>
  <fix>3d</fix>
</trkpt>
<trkpt lat="33.8103143" lon="-118.393881">
  <ele>-29.755</ele>
  <time>2026-09-02T22:07:46Z</time>
  <course>184.84</course>
  <speed>0.0282842712474619</speed>
  <fix>3d</fix>
</trkpt>
<trkpt lat="33.8103141" lon="-118.3938808">
  <ele>-29.04</ele>
  <time>2026-09-02T22:07:46Z</time>
  <course>276.07</course>
  <speed>0.0</speed>
  <fix>3d</fix>
</trkpt>
<trkpt lat="33.8103143" lon="-118.393881">
  <ele>-29.754</ele>
  <time>2026-09-02T22:07:46Z</time>
  <course>184.83</course>
  <speed>0.0282842712474619</speed>
  <fix>3d</fix>
</trkpt>
<trkpt lat="33.8103141" lon="-118.3938808">
  <ele>-29.04</ele>
  <time>2026-09-02T22:07:46Z</time>
  <course>276.07</course>
  <speed>0.0</speed>
  <fix>3d</fix>
</trkpt>
<trkpt lat="33.8103143" lon="-118.393881">
  <ele>-29.753</ele>
  <time>2026-09-02T22:07:46Z</time>
  <course>184.83</course>
  <speed>0.0282842712474619</speed>
  <fix>3d</fix>
</trkpt>
<trkpt lat="33.8103141" lon="-118.3938808">
  <ele>-29.03</ele>
  <time>2026-09-02T22:07:46Z</time>
  <course>276.07</course>
  <speed>0.0</speed>
  <fix>3d</fix>
</trkpt>
<trkpt lat="33.8103143" lon="-118.393881">
  <ele>-29.753</ele>
  <time>2026-09-02T22:07:46Z</time>
  <course>184.83</course>
  <speed>0.0282842712474619</speed>
  <fix>3d</fix>
</trkpt>
<trkpt lat="33.8103141" lon="-118.3938808">
  <ele>-29.03</ele>
  <time>2026-09-02T22:07:46Z</time>
  <course>276.07</course>
  <speed>0.0</speed>
  <fix>3d</fix>
</trkpt>
<trkpt lat="33.8103143" lon="-118.393881">
  <ele>-29.754</ele>
  <time>2026-09-02T22:07:46Z</time>
  <course>184.83</course>
  <speed>0.0282842712474619</speed>
  <fix>3d</fix>
</trkpt>
<trkpt lat="33.8103141" lon="-118.3938808">
  <ele>-29.03</ele>
  <time>2026-09-02T22:07:46Z</time>
  <course>276.07</course>
  <speed>0.0</speed>
  <fix>3d</fix>
</trkpt>
<trkpt lat="33.8103143" lon="-118.393881">
  <ele>-29.753</ele>
  <time>2026-09-02T22:07:46Z</time>
  <course>184.83</course>
  <speed>0.0282842712474619</speed>
  <fix>3d</fix>
</trkpt>
<trkpt lat="33.8103141" lon="-118.3938808">
  <ele>-29.03</ele>
  <time>2026-09-02T22:07:46Z</time>
  <course>276.07</course>
  <speed>0.0</speed>
  <fix>3d</fix>
</trkpt>
<trkpt lat="33.8103143" lon="-118.393881">
  <ele>-29.753</ele>
  <time>2026-09-02T22:07:46Z</time>
  <course>184.82</course>
  <speed>0.0282842712474619</speed>
  <fix>3d</fix>
</trkpt>
<trkpt lat="33.8103141" lon="-118.3938808">
  <ele>-29.03</ele>
  <time>2026-09-02T22:07:46Z</time>
  <course>276.07</course>
  <speed>0.0</speed>
  <fix>3d</fix>
</trkpt>
<trkpt lat="33.8103143" lon="-118.393881">
  <ele>-29.753</ele>
  <time>2026-09-02T22:07:46Z</time>
  <course>184.82</course>
  <speed>0.0282842712474619</speed>
  <fix>3d</fix>
</trkpt>
<trkpt lat="33.8103141" lon="-118.3938808">
  <ele>-29.03</ele>
  <time>2026-09-02T22:07:46Z</time>
  <course>276.07</course>
  <speed>0.0</speed>
  <fix>3d</fix>
</trkpt>
<trkpt lat="33.8103143" lon="-118.393881">
  <ele>-29.753</ele>
  <time>2026-09-02T22:07:46Z</time>
  <course>184.82</course>
  <speed>0.0282842712474619</speed>
  <fix>3d</fix>
</trkpt>
<trkpt lat="33.8103141" lon="-118.3938809">
  <ele>-29.03</ele>
  <time>2026-09-02T22:07:46Z</time>
  <course>276.06</course>
  <speed>0.0</speed>
  <fix>3d</fix>
</trkpt>
<trkpt lat="33.8103143" lon="-118.393881">
  <ele>-29.753</ele>
  <time>2026-09-02T22:07:46Z</time>
  <course>184.82</course>
  <speed>0.0282842712474619</speed>
  <fix>3d</fix>
</trkpt>
<trkpt lat="33.8103141" lon="-118.3938809">
  <ele>-29.03</ele>
  <time>2026-09-02T22:07:46Z</time>
  <course>276.06</course>
  <speed>0.0</speed>
  <fix>3d</fix>
</trkpt>
<trkpt lat="33.8103143" lon="-118.393881">
  <ele>-29.753</ele>
  <time>2026-09-02T22:07:46Z</time>
  <course>184.81</course>
  <speed>0.0282842712474619</speed>
  <fix>3d</fix>
</trkpt>
<trkpt lat="33.8103141" lon="-118.3938809">
  <ele>-29.03</ele>
  <time>2026-09-02T22:07:46Z</time>
  <course>276.05</course>
  <speed>0.0</speed>
  <fix>3d</fix>
</trkpt>
<trkpt lat="33.8103143" lon="-118.393881">
  <ele>-29.754</ele>
  <time>2026-09-02T22:07:46Z</time>
  <course>184.81</course>
  <speed>0.0282842712474619</speed>
  <fix>3d</fix>
</trkpt>
<trkpt lat="33.8103141" lon="-118.3938809">
  <ele>-29.03</ele>
  <time>2026-09-02T22:07:46Z</time>
  <course>276.05</course>
  <speed>0.0</speed>
  <fix>3d</fix>
</trkpt>
<trkpt lat="33.8103143" lon="-118.3938811">
  <ele>-29.754</ele>
  <time>2026-09-02T22:07:46Z</time>
  <course>184.81</course>
  <speed>0.0282842712474619</speed>
  <fix>3d</fix>
</trkpt>
<trkpt lat="33.8103141" lon="-118.3938809">
  <ele>-29.03</ele>
  <time>2026-09-02T22:07:46Z</time>
  <course>276.05</course>
  <speed>0.0</speed>
  <fix>3d</fix>
</trkpt>
<trkpt lat="33.8103143" lon="-118.3938811">
  <ele>-29.755</ele>
  <time>2026-09-02T22:07:46Z</time>
  <course>184.81</course>
  <speed>0.0282842712474619</speed>
  <fix>3d</fix>
</trkpt>
<trkpt lat="33.8103141" lon="-118.3938809">
  <ele>-29.03</ele>
  <time>2026-09-02T22:07:46Z</time>
  <course>276.05</course>
  <speed>0.0</speed>
  <fix>3d</fix>
</trkpt>
<trkpt lat="33.8103143" lon="-118.3938811">
  <ele>-29.755</ele>
  <time>2026-09-02T22:07:46Z</time>
  <course>184.81</course>
  <speed>0.0282842712474619</speed>
  <fix>3d</fix>
</trkpt>
<trkpt lat="33.8103141" lon="-118.3938809">
  <ele>-29.03</ele>
  <time>2026-09-02T22:07:46Z</time>
  <course>276.05</course>
  <speed>0.0</speed>
  <fix>3d</fix>
</trkpt>
<trkpt lat="33.8103143" lon="-118.3938811">
  <ele>-29.756</ele>
  <time>2026-09-02T22:07:46Z</time>
  <course>184.8</course>
  <speed>0.0282842712474619</speed>
  <fix>3d</fix>
</trkpt>
<trkpt lat="33.8103141" lon="-118.3938809">
  <ele>-29.03</ele>
  <time>2026-09-02T22:07:46Z</time>
  <course>276.05</course>
  <speed>0.0</speed>
  <fix>3d</fix>
</trkpt>
<trkpt lat="33.8103143" lon="-118.3938811">
  <ele>-29.756</ele>
  <time>2026-09-02T22:07:46Z</time>
  <course>184.8</course>
  <speed>0.0282842712474619</speed>
  <fix>3d</fix>
</trkpt>
<trkpt lat="33.8103141" lon="-118.3938809">
  <ele>-29.04</ele>
  <time>2026-09-02T22:07:46Z</time>
  <course>276.05</course>
  <speed>0.0</speed>
  <fix>3d</fix>
</trkpt>
<trkpt lat="33.8103143" lon="-118.3938811">
  <ele>-29.757</ele>
  <time>2026-09-02T22:07:46Z</time>
  <course>184.8</course>
  <speed>0.0282842712474619</speed>
  <fix>3d</fix>
</trkpt>
<trkpt lat="33.8103141" lon="-118.3938809">
  <ele>-29.04</ele>
  <time>2026-09-02T22:07:46Z</time>
  <course>276.05</course>
  <speed>0.0</speed>
  <fix>3d</fix>
</trkpt>
<trkpt lat="33.8103143" lon="-118.3938811">
  <ele>-29.758</ele>
  <time>2026-09-02T22:07:46Z</time>
  <course>184.8</course>
  <speed>0.0282842712474619</speed>
  <fix>3d</fix>
</trkpt>
<trkpt lat="33.8103141" lon="-118.3938809">
  <ele>-29.04</ele>
  <time>2026-09-02T22:07:46Z</time>
  <course>276.05</course>
  <speed>0.0</speed>
  <fix>3d</fix>
</trkpt>
<trkpt lat="33.8103143" lon="-118.3938811">
  <ele>-29.759</ele>
  <time>2026-09-02T22:07:46Z</time>
  <course>184.8</course>
  <speed>0.0282842712474619</speed>
  <fix>3d</fix>
</trkpt>
<trkpt lat="33.8103141" lon="-118.3938809">
  <ele>-29.04</ele>
  <time>2026-09-02T22:07:46Z</time>
  <course>276.05</course>
  <speed>0.0</speed>
  <fix>3d</fix>
</trkpt>
<trkpt lat="33.8103143" lon="-118.3938811">
  <ele>-29.76</ele>
  <time>2026-09-02T22:07:46Z</time>
  <course>184.79</course>
  <speed>0.0282842712474619</speed>
  <fix>3d</fix>
</trkpt>
<trkpt lat="33.8103141" lon="-118.3938809">
  <ele>-29.04</ele>
  <time>2026-09-02T22:07:46Z</time>
  <course>276.05</course>
  <speed>0.0</speed>
  <fix>3d</fix>
</trkpt>
<trkpt lat="33.8103143" lon="-118.3938811">
  <ele>-29.76</ele>
  <time>2026-09-02T22:07:46Z</time>
  <course>184.79</course>
  <speed>0.0282842712474619</speed>
  <fix>3d</fix>
</trkpt>
<trkpt lat="33.8103141" lon="-118.3938809">
  <ele>-29.04</ele>
  <time>2026-09-02T22:07:46Z</time>
  <course>276.05</course>
  <speed>0.0</speed>
  <fix>3d</fix>
</trkpt>
<trkpt lat="33.8103143" lon="-118.3938811">
  <ele>-29.76</ele>
  <time>2026-09-02T22:07:46Z</time>
  <course>184.79</course>
  <speed>0.0282842712474619</speed>
  <fix>3d</fix>
</trkpt>
<trkpt lat="33.8103141" lon="-118.3938809">
  <ele>-29.04</ele>
  <time>2026-09-02T22:07:46Z</time>
  <course>276.05</course>
  <speed>0.0</speed>
  <fix>3d</fix>
</trkpt>
<trkpt lat="33.8103143" lon="-118.3938811">
  <ele>-29.76</ele>
  <time>2026-09-02T22:07:46Z</time>
  <course>184.79</course>
  <speed>0.0282842712474619</speed>
  <fix>3d</fix>
</trkpt>
<trkpt lat="33.8103141" lon="-118.3938809">
  <ele>-29.04</ele>
  <time>2026-09-02T22:07:46Z</time>
  <course>276.05</course>
  <speed>0.0</speed>
  <fix>3d</fix>
</trkpt>
<trkpt lat="33.8103143" lon="-118.3938811">
  <ele>-29.761</ele>
  <time>2026-09-02T22:07:46Z</time>
  <course>184.79</course>
  <speed>0.0282842712474619</speed>
  <fix>3d</fix>
</trkpt>
<trkpt lat="33.8103141" lon="-118.393881">
  <ele>-29.04</ele>
  <time>2026-09-02T22:07:46Z</time>
  <course>276.05</course>
  <speed>0.0</speed>
  <fix>3d</fix>
</trkpt>
<trkpt lat="33.8103143" lon="-118.3938811">
  <ele>-29.76</ele>
  <time>2026-09-02T22:07:46Z</time>
  <course>184.78</course>
  <speed>0.0282842712474619</speed>
  <fix>3d</fix>
</trkpt>
<trkpt lat="33.8103141" lon="-118.393881">
  <ele>-29.04</ele>
  <time>2026-09-02T22:07:46Z</time>
  <course>276.05</course>
  <speed>0.0</speed>
  <fix>3d</fix>
</trkpt>
<trkpt lat="33.8103143" lon="-118.3938812">
  <ele>-29.759</ele>
  <time>2026-09-02T22:07:46Z</time>
  <course>184.78</course>
  <speed>0.0282842712474619</speed>
  <fix>3d</fix>
</trkpt>
<trkpt lat="33.8103141" lon="-118.393881">
  <ele>-29.04</ele>
  <time>2026-09-02T22:07:46Z</time>
  <course>276.05</course>
  <speed>0.0</speed>
  <fix>3d</fix>
</trkpt>
<trkpt lat="33.8103143" lon="-118.3938812">
  <ele>-29.759</ele>
  <time>2026-09-02T22:07:46Z</time>
  <course>184.78</course>
  <speed>0.0282842712474619</speed>
  <fix>3d</fix>
</trkpt>
<trkpt lat="33.8103141" lon="-118.393881">
  <ele>-29.04</ele>
  <time>2026-09-02T22:07:46Z</time>
  <course>276.05</course>
  <speed>0.0</speed>
  <fix>3d</fix>
</trkpt>
<trkpt lat="33.8103143" lon="-118.3938812">
  <ele>-29.758</ele>
  <time>2026-09-02T22:07:46Z</time>
  <course>184.78</course>
  <speed>0.0282842712474619</speed>
  <fix>3d</fix>
</trkpt>
<trkpt lat="33.8103141" lon="-118.393881">
  <ele>-29.04</ele>
  <time>2026-09-02T22:07:46Z</time>
  <course>276.04</course>
  <speed>0.0</speed>
  <fix>3d</fix>
</trkpt>
<trkpt lat="33.8103143" lon="-118.3938812">
  <ele>-29.758</ele>
  <time>2026-09-02T22:07:46Z</time>
  <course>184.78</course>
  <speed>0.0282842712474619</speed>
  <fix>3d</fix>
</trkpt>
<trkpt lat="33.8103141" lon="-118.393881">
  <ele>-29.04</ele>
  <time>2026-09-02T22:07:46Z</time>
  <course>276.04</course>
  <speed>0.0</speed>
  <fix>3d</fix>
</trkpt>
<trkpt lat="33.8103143" lon="-118.3938812">
  <ele>-29.758</ele>
  <time>2026-09-02T22:07:46Z</time>
  <course>184.77</course>
  <speed>0.0282842712474619</speed>
  <fix>3d</fix>
</trkpt>
<trkpt lat="33.8103141" lon="-118.393881">
  <ele>-29.04</ele>
  <time>2026-09-02T22:07:46Z</time>
  <course>276.04</course>
  <speed>0.0</speed>
  <fix>3d</fix>
</trkpt>
<trkpt lat="33.8103143" lon="-118.3938812">
  <ele>-29.759</ele>
  <time>2026-09-02T22:07:46Z</time>
  <course>184.77</course>
  <speed>0.0282842712474619</speed>
  <fix>3d</fix>
</trkpt>
<trkpt lat="33.8103141" lon="-118.393881">
  <ele>-29.04</ele>
  <time>2026-09-02T22:07:46Z</time>
  <course>276.04</course>
  <speed>0.0</speed>
  <fix>3d</fix>
</trkpt>
<trkpt lat="33.8103143" lon="-118.3938812">
  <ele>-29.76</ele>
  <time>2026-09-02T22:07:46Z</time>
  <course>184.77</course>
  <speed>0.0282842712474619</speed>
  <fix>3d</fix>
</trkpt>
<trkpt lat="33.8103141" lon="-118.393881">
  <ele>-29.04</ele>
  <time>2026-09-02T22:07:46Z</time>
  <course>276.03</course>
  <speed>0.0</speed>
  <fix>3d</fix>
</trkpt>
<trkpt lat="33.8103143" lon="-118.3938812">
  <ele>-29.761</ele>
  <time>2026-09-02T22:07:46Z</time>
  <course>184.77</course>
  <speed>0.0282842712474619</speed>
  <fix>3d</fix>
</trkpt>
<trkpt lat="33.8103141" lon="-118.393881">
  <ele>-29.04</ele>
  <time>2026-09-02T22:07:46Z</time>
  <course>276.03</course>
  <speed>0.0</speed>
  <fix>3d</fix>
</trkpt>
<trkpt lat="33.8103143" lon="-118.3938812">
  <ele>-29.762</ele>
  <time>2026-09-02T22:07:46Z</time>
  <course>184.77</course>
  <speed>0.0282842712474619</speed>
  <fix>3d</fix>
</trkpt>
<trkpt lat="33.8103141" lon="-118.393881">
  <ele>-29.04</ele>
  <time>2026-09-02T22:07:46Z</time>
  <course>276.03</course>
  <speed>0.0</speed>
  <fix>3d</fix>
</trkpt>
<trkpt lat="33.8103143" lon="-118.3938812">
  <ele>-29.762</ele>
  <time>2026-09-02T22:07:46Z</time>
  <course>184.76</course>
  <speed>0.0282842712474619</speed>
  <fix>3d</fix>
</trkpt>
<trkpt lat="33.8103141" lon="-118.393881">
  <ele>-29.04</ele>
  <time>2026-09-02T22:07:46Z</time>
  <course>276.03</course>
  <speed>0.0</speed>
  <fix>3d</fix>
</trkpt>
<trkpt lat="33.8103143" lon="-118.3938812">
  <ele>-29.763</ele>
  <time>2026-09-02T22:07:46Z</time>
  <course>184.76</course>
  <speed>0.0282842712474619</speed>
  <fix>3d</fix>
</trkpt>
<trkpt lat="33.8103141" lon="-118.393881">
  <ele>-29.04</ele>
  <time>2026-09-02T22:07:46Z</time>
  <course>276.03</course>
  <speed>0.0</speed>
  <fix>3d</fix>
</trkpt>
<trkpt lat="33.8103143" lon="-118.3938812">
  <ele>-29.763</ele>
  <time>2026-09-02T22:07:46Z</time>
  <course>184.76</course>
  <speed>0.0282842712474619</speed>
  <fix>3d</fix>
</trkpt>
<trkpt lat="33.8103141" lon="-118.393881">
  <ele>-29.04</ele>
  <time>2026-09-02T22:07:46Z</time>
  <course>276.03</course>
  <speed>0.0</speed>
  <fix>3d</fix>
</trkpt>
<trkpt lat="33.8103143" lon="-118.3938812">
  <ele>-29.764</ele>
  <time>2026-09-02T22:07:46Z</time>
  <course>184.76</course>
  <speed>0.0282842712474619</speed>
  <fix>3d</fix>
</trkpt>
<trkpt lat="33.8103141" lon="-118.393881">
  <ele>-29.04</ele>
  <time>2026-09-02T22:07:46Z</time>
  <course>276.03</course>
  <speed>0.0</speed>
  <fix>3d</fix>
</trkpt>
<trkpt lat="33.8103143" lon="-118.3938812">
  <ele>-29.765</ele>
  <time>2026-09-02T22:07:46Z</time>
  <course>184.76</course>
  <speed>0.0282842712474619</speed>
  <fix>3d</fix>
</trkpt>
<trkpt lat="33.8103141" lon="-118.393881">
  <ele>-29.04</ele>
  <time>2026-09-02T22:07:46Z</time>
  <course>276.03</course>
  <speed>0.0</speed>
  <fix>3d</fix>
</trkpt>
<trkpt lat="33.8103143" lon="-118.3938813">
  <ele>-29.764</ele>
  <time>2026-09-02T22:07:46Z</time>
  <course>184.76</course>
  <speed>0.0282842712474619</speed>
  <fix>3d</fix>
</trkpt>
<trkpt lat="33.8103141" lon="-118.3938811">
  <ele>-29.03</ele>
  <time>2026-09-02T22:07:46Z</time>
  <course>276.03</course>
  <speed>0.0</speed>
  <fix>3d</fix>
</trkpt>
<trkpt lat="33.8103143" lon="-118.3938813">
  <ele>-29.763</ele>
  <time>2026-09-02T22:07:46Z</time>
  <course>184.75</course>
  <speed>0.0282842712474619</speed>
  <fix>3d</fix>
</trkpt>
<trkpt lat="33.8103141" lon="-118.3938811">
  <ele>-29.03</ele>
  <time>2026-09-02T22:07:46Z</time>
  <course>276.03</course>
  <speed>0.0</speed>
  <fix>3d</fix>
</trkpt>
<trkpt lat="33.8103143" lon="-118.3938813">
  <ele>-29.762</ele>
  <time>2026-09-02T22:07:46Z</time>
  <course>184.75</course>
  <speed>0.0282842712474619</speed>
  <fix>3d</fix>
</trkpt>
<trkpt lat="33.8103141" lon="-118.3938811">
  <ele>-29.03</ele>
  <time>2026-09-02T22:07:46Z</time>
  <course>276.03</course>
  <speed>0.0</speed>
  <fix>3d</fix>
</trkpt>
<trkpt lat="33.8103143" lon="-118.3938813">
  <ele>-29.76</ele>
  <time>2026-09-02T22:07:46Z</time>
  <course>184.75</course>
  <speed>0.0282842712474619</speed>
  <fix>3d</fix>
</trkpt>
<trkpt lat="33.8103141" lon="-118.3938811">
  <ele>-29.03</ele>
  <time>2026-09-02T22:07:46Z</time>
  <course>276.03</course>
  <speed>0.0</speed>
  <fix>3d</fix>
</trkpt>
<trkpt lat="33.8103143" lon="-118.3938813">
  <ele>-29.76</ele>
  <time>2026-09-02T22:07:46Z</time>
  <course>184.75</course>
  <speed>0.0282842712474619</speed>
  <fix>3d</fix>
</trkpt>
<trkpt lat="33.8103141" lon="-118.3938811">
  <ele>-29.03</ele>
  <time>2026-09-02T22:07:46Z</time>
  <course>276.02</course>
  <speed>0.0</speed>
  <fix>3d</fix>
</trkpt>
<trkpt lat="33.8103143" lon="-118.3938813">
  <ele>-29.76</ele>
  <time>2026-09-02T22:07:46Z</time>
  <course>184.75</course>
  <speed>0.0282842712474619</speed>
  <fix>3d</fix>
</trkpt>
<trkpt lat="33.8103141" lon="-118.3938811">
  <ele>-29.03</ele>
  <time>2026-09-02T22:07:46Z</time>
  <course>276.02</course>
  <speed>0.0</speed>
  <fix>3d</fix>
</trkpt>
<trkpt lat="33.8103143" lon="-118.3938813">
  <ele>-29.76</ele>
  <time>2026-09-02T22:07:46Z</time>
  <course>184.75</course>
  <speed>0.0282842712474619</speed>
  <fix>3d</fix>
</trkpt>
<trkpt lat="33.8103141" lon="-118.3938811">
  <ele>-29.03</ele>
  <time>2026-09-02T22:07:46Z</time>
  <course>276.01</course>
  <speed>0.0</speed>
  <fix>3d</fix>
</trkpt>
<trkpt lat="33.8103143" lon="-118.3938813">
  <ele>-29.76</ele>
  <time>2026-09-02T22:07:46Z</time>
  <course>184.74</course>
  <speed>0.0282842712474619</speed>
  <fix>3d</fix>
</trkpt>
<trkpt lat="33.8103141" lon="-118.3938811">
  <ele>-29.03</ele>
  <time>2026-09-02T22:07:46Z</time>
  <course>276.01</course>
  <speed>0.0</speed>
  <fix>3d</fix>
</trkpt>
<trkpt lat="33.8103143" lon="-118.3938813">
  <ele>-29.76</ele>
  <time>2026-09-02T22:07:46Z</time>
  <course>184.74</course>
  <speed>0.0282842712474619</speed>
  <fix>3d</fix>
</trkpt>
<trkpt lat="33.8103141" lon="-118.3938811">
  <ele>-29.04</ele>
  <time>2026-09-02T22:07:46Z</time>
  <course>276.0</course>
  <speed>0.0</speed>
  <fix>3d</fix>
</trkpt>
<trkpt lat="33.8103143" lon="-118.3938813">
  <ele>-29.76</ele>
  <time>2026-09-02T22:07:46Z</time>
  <course>184.74</course>
  <speed>0.0282842712474619</speed>
  <fix>3d</fix>
</trkpt>
<trkpt lat="33.8103141" lon="-118.3938811">
  <ele>-29.04</ele>
  <time>2026-09-02T22:07:46Z</time>
  <course>276.0</course>
  <speed>0.0</speed>
  <fix>3d</fix>
</trkpt>
<trkpt lat="33.8103143" lon="-118.3938813">
  <ele>-29.76</ele>
  <time>2026-09-02T22:07:46Z</time>
  <course>184.74</course>
  <speed>0.0282842712474619</speed>
  <fix>3d</fix>
</trkpt>
<trkpt lat="33.8103141" lon="-118.3938811">
  <ele>-29.04</ele>
  <time>2026-09-02T22:07:46Z</time>
  <course>276.0</course>
  <speed>0.0</speed>
  <fix>3d</fix>
</trkpt>
<trkpt lat="33.8103143" lon="-118.3938813">
  <ele>-29.76</ele>
  <time>2026-09-02T22:07:46Z</time>
  <course>184.74</course>
  <speed>0.0282842712474619</speed>
  <fix>3d</fix>
</trkpt>
<trkpt lat="33.8103141" lon="-118.3938811">
  <ele>-29.04</ele>
  <time>2026-09-02T22:07:46Z</time>
  <course>276.0</course>
  <speed>0.0</speed>
  <fix>3d</fix>
</trkpt>
<trkpt lat="33.8103143" lon="-118.3938813">
  <ele>-29.76</ele>
  <time>2026-09-02T22:07:46Z</time>
  <course>184.74</course>
  <speed>0.0282842712474619</speed>
  <fix>3d</fix>
</trkpt>
<trkpt lat="33.8103141" lon="-118.3938811">
  <ele>-29.04</ele>
  <time>2026-09-02T22:07:46Z</time>
  <course>276.0</course>
  <speed>0.0</speed>
  <fix>3d</fix>
</trkpt>
<trkpt lat="33.8103143" lon="-118.3938813">
  <ele>-29.759</ele>
  <time>2026-09-02T22:07:46Z</time>
  <course>184.74</course>
  <speed>0.0282842712474619</speed>
  <fix>3d</fix>
</trkpt>
<trkpt lat="33.8103141" lon="-118.3938811">
  <ele>-29.04</ele>
  <time>2026-09-02T22:07:46Z</time>
  <course>276.0</course>
  <speed>0.0</speed>
  <fix>3d</fix>
</trkpt>
<trkpt lat="33.8103143" lon="-118.3938813">
  <ele>-29.758</ele>
  <time>2026-09-02T22:07:46Z</time>
  <course>184.73</course>
  <speed>0.0282842712474619</speed>
  <fix>3d</fix>
</trkpt>
<trkpt lat="33.8103141" lon="-118.3938812">
  <ele>-29.04</ele>
  <time>2026-09-02T22:07:46Z</time>
  <course>276.01</course>
  <speed>0.0</speed>
  <fix>3d</fix>
</trkpt>
<trkpt lat="33.8103143" lon="-118.3938814">
  <ele>-29.757</ele>
  <time>2026-09-02T22:07:46Z</time>
  <course>184.73</course>
  <speed>0.0282842712474619</speed>
  <fix>3d</fix>
</trkpt>
<trkpt lat="33.8103141" lon="-118.3938812">
  <ele>-29.04</ele>
  <time>2026-09-02T22:07:46Z</time>
  <course>276.01</course>
  <speed>0.0</speed>
  <fix>3d</fix>
</trkpt>
<trkpt lat="33.8103143" lon="-118.3938814">
  <ele>-29.757</ele>
  <time>2026-09-02T22:07:46Z</time>
  <course>184.73</course>
  <speed>0.0282842712474619</speed>
  <fix>3d</fix>
</trkpt>
<trkpt lat="33.8103141" lon="-118.3938812">
  <ele>-29.04</ele>
  <time>2026-09-02T22:07:46Z</time>
  <course>276.0</course>
  <speed>0.0</speed>
  <fix>3d</fix>
</trkpt>
<trkpt lat="33.8103143" lon="-118.3938814">
  <ele>-29.756</ele>
  <time>2026-09-02T22:07:46Z</time>
  <course>184.73</course>
  <speed>0.0282842712474619</speed>
  <fix>3d</fix>
</trkpt>
<trkpt lat="33.8103141" lon="-118.3938812">
  <ele>-29.04</ele>
  <time>2026-09-02T22:07:46Z</time>
  <course>276.0</course>
  <speed>0.0</speed>
  <fix>3d</fix>
</trkpt>
<trkpt lat="33.8103143" lon="-118.3938814">
  <ele>-29.754</ele>
  <time>2026-09-02T22:07:46Z</time>
  <course>184.73</course>
  <speed>0.0282842712474619</speed>
  <fix>3d</fix>
</trkpt>
<trkpt lat="33.8103141" lon="-118.3938812">
  <ele>-29.04</ele>
  <time>2026-09-02T22:07:46Z</time>
  <course>276.0</course>
  <speed>0.0</speed>
  <fix>3d</fix>
</trkpt>
<trkpt lat="33.8103143" lon="-118.3938814">
  <ele>-29.752</ele>
  <time>2026-09-02T22:07:46Z</time>
  <course>184.73</course>
  <speed>0.0282842712474619</speed>
  <fix>3d</fix>
</trkpt>
<trkpt lat="33.8103141" lon="-118.3938812">
  <ele>-29.04</ele>
  <time>2026-09-02T22:07:46Z</time>
  <course>276.0</course>
  <speed>0.0</speed>
  <fix>3d</fix>
</trkpt>
<trkpt lat="33.8103143" lon="-118.3938814">
  <ele>-29.749</ele>
  <time>2026-09-02T22:07:46Z</time>
  <course>184.73</course>
  <speed>0.0282842712474619</speed>
  <fix>3d</fix>
</trkpt>
<trkpt lat="33.8103141" lon="-118.3938812">
  <ele>-29.03</ele>
  <time>2026-09-02T22:07:46Z</time>
  <course>276.0</course>
  <speed>0.0</speed>
  <fix>3d</fix>
</trkpt>
<trkpt lat="33.8103143" lon="-118.3938814">
  <ele>-29.745</ele>
  <time>2026-09-02T22:07:46Z</time>
  <course>184.72</course>
  <speed>0.0282842712474619</speed>
  <fix>3d</fix>
</trkpt>
<trkpt lat="33.8103141" lon="-118.3938812">
  <ele>-29.03</ele>
  <time>2026-09-02T22:07:46Z</time>
  <course>276.0</course>
  <speed>0.0</speed>
  <fix>3d</fix>
</trkpt>
<trkpt lat="33.8103143" lon="-118.3938814">
  <ele>-29.741</ele>
  <time>2026-09-02T22:07:46Z</time>
  <course>184.72</course>
  <speed>0.0282842712474619</speed>
  <fix>3d</fix>
</trkpt>
<trkpt lat="33.8103141" lon="-118.3938812">
  <ele>-29.03</ele>
  <time>2026-09-02T22:07:46Z</time>
  <course>276.0</course>
  <speed>0.0</speed>
  <fix>3d</fix>
</trkpt>
<trkpt lat="33.8103143" lon="-118.3938814">
  <ele>-29.736</ele>
  <time>2026-09-02T22:07:46Z</time>
  <course>184.72</course>
  <speed>0.0282842712474619</speed>
  <fix>3d</fix>
</trkpt>
<trkpt lat="33.8103141" lon="-118.3938812">
  <ele>-29.03</ele>
  <time>2026-09-02T22:07:46Z</time>
  <course>276.0</course>
  <speed>0.0</speed>
  <fix>3d</fix>
</trkpt>
<trkpt lat="33.8103143" lon="-118.3938814">
  <ele>-29.73</ele>
  <time>2026-09-02T22:07:46Z</time>
  <course>184.72</course>
  <speed>0.0282842712474619</speed>
  <fix>3d</fix>
</trkpt>
<trkpt lat="33.8103142" lon="-118.3938812">
  <ele>-29.02</ele>
  <time>2026-09-02T22:07:46Z</time>
  <course>276.02</course>
  <speed>0.0</speed>
  <fix>3d</fix>
</trkpt>
<trkpt lat="33.8103143" lon="-118.3938814">
  <ele>-29.723</ele>
  <time>2026-09-02T22:07:46Z</time>
  <course>184.72</course>
  <speed>0.0282842712474619</speed>
  <fix>3d</fix>
</trkpt>
<trkpt lat="33.8103142" lon="-118.3938812">
  <ele>-29.02</ele>
  <time>2026-09-02T22:07:46Z</time>
  <course>276.02</course>
  <speed>0.0</speed>
  <fix>3d</fix>
</trkpt>
<trkpt lat="33.8103143" lon="-118.3938814">
  <ele>-29.717</ele>
  <time>2026-09-02T22:07:46Z</time>
  <course>184.72</course>
  <speed>0.0282842712474619</speed>
  <fix>3d</fix>
</trkpt>
<trkpt lat="33.8103142" lon="-118.3938812">
  <ele>-29.01</ele>
  <time>2026-09-02T22:07:46Z</time>
  <course>276.03</course>
  <speed>0.0</speed>
  <fix>3d</fix>
</trkpt>
<trkpt lat="33.8103143" lon="-118.3938814">
  <ele>-29.71</ele>
  <time>2026-09-02T22:07:46Z</time>
  <course>184.72</course>
  <speed>0.0282842712474619</speed>
  <fix>3d</fix>
</trkpt>
<trkpt lat="33.8103142" lon="-118.3938812">
  <ele>-29.01</ele>
  <time>2026-09-02T22:07:46Z</time>
  <course>276.03</course>
  <speed>0.0</speed>
  <fix>3d</fix>
</trkpt>
<trkpt lat="33.8103143" lon="-118.3938814">
  <ele>-29.704</ele>
  <time>2026-09-02T22:07:46Z</time>
  <course>184.71</course>
  <speed>0.0282842712474619</speed>
  <fix>3d</fix>
</trkpt>
<trkpt lat="33.8103142" lon="-118.3938813">
  <ele>-29.0</ele>
  <time>2026-09-02T22:07:46Z</time>
  <course>276.05</course>
  <speed>0.0</speed>
  <fix>3d</fix>
</trkpt>
<trkpt lat="33.8103143" lon="-118.3938814">
  <ele>-29.697</ele>
  <time>2026-09-02T22:07:46Z</time>
  <course>184.71</course>
  <speed>0.0282842712474619</speed>
  <fix>3d</fix>
</trkpt>
<trkpt lat="33.8103142" lon="-118.3938813">
  <ele>-29.0</ele>
  <time>2026-09-02T22:07:46Z</time>
  <course>276.05</course>
  <speed>0.0</speed>
  <fix>3d</fix>
</trkpt>
<trkpt lat="33.8103143" lon="-118.3938814">
  <ele>-29.689</ele>
  <time>2026-09-02T22:07:46Z</time>
  <course>184.71</course>
  <speed>0.0282842712474619</speed>
  <fix>3d</fix>
</trkpt>
<trkpt lat="33.8103142" lon="-118.3938813">
  <ele>-28.98</ele>
  <time>2026-09-02T22:07:46Z</time>
  <course>276.05</course>
  <speed>0.0</speed>
  <fix>3d</fix>
</trkpt>
<trkpt lat="33.8103143" lon="-118.3938815">
  <ele>-29.682</ele>
  <time>2026-09-02T22:07:46Z</time>
  <course>184.71</course>
  <speed>0.0282842712474619</speed>
  <fix>3d</fix>
</trkpt>
<trkpt lat="33.8103142" lon="-118.3938813">
  <ele>-28.98</ele>
  <time>2026-09-02T22:07:46Z</time>
  <course>276.05</course>
  <speed>0.0</speed>
  <fix>3d</fix>
</trkpt>
<trkpt lat="33.8103143" lon="-118.3938815">
  <ele>-29.675</ele>
  <time>2026-09-02T22:07:46Z</time>
  <course>184.71</course>
  <speed>0.0282842712474619</speed>
  <fix>3d</fix>
</trkpt>
<trkpt lat="33.8103142" lon="-118.3938813">
  <ele>-28.97</ele>
  <time>2026-09-02T22:07:46Z</time>
  <course>276.06</course>
  <speed>0.0</speed>
  <fix>3d</fix>
</trkpt>
<trkpt lat="33.8103143" lon="-118.3938815">
  <ele>-29.668</ele>
  <time>2026-09-02T22:07:46Z</time>
  <course>184.71</course>
  <speed>0.0282842712474619</speed>
  <fix>3d</fix>
</trkpt>
<trkpt lat="33.8103142" lon="-118.3938813">
  <ele>-28.97</ele>
  <time>2026-09-02T22:07:46Z</time>
  <course>276.06</course>
  <speed>0.0</speed>
  <fix>3d</fix>
</trkpt>
<trkpt lat="33.8103143" lon="-118.3938815">
  <ele>-29.66</ele>
  <time>2026-09-02T22:07:46Z</time>
  <course>184.71</course>
  <speed>0.0282842712474619</speed>
  <fix>3d</fix>
</trkpt>
<trkpt lat="33.8103142" lon="-118.3938813">
  <ele>-28.96</ele>
  <time>2026-09-02T22:07:46Z</time>
  <course>276.06</course>
  <speed>0.0</speed>
  <fix>3d</fix>
</trkpt>
<trkpt lat="33.8103143" lon="-118.3938815">
  <ele>-29.652</ele>
  <time>2026-09-02T22:07:46Z</time>
  <course>184.71</course>
  <speed>0.0282842712474619</speed>
  <fix>3d</fix>
</trkpt>
<trkpt lat="33.8103142" lon="-118.3938813">
  <ele>-28.96</ele>
  <time>2026-09-02T22:07:46Z</time>
  <course>276.06</course>
  <speed>0.0</speed>
  <fix>3d</fix>
</trkpt>
<trkpt lat="33.8103143" lon="-118.3938815">
  <ele>-29.644</ele>
  <time>2026-09-02T22:07:46Z</time>
  <course>184.7</course>
  <speed>0.0282842712474619</speed>
  <fix>3d</fix>
</trkpt>
<trkpt lat="33.8103142" lon="-118.3938813">
  <ele>-28.94</ele>
  <time>2026-09-02T22:07:46Z</time>
  <course>276.07</course>
  <speed>0.0</speed>
  <fix>3d</fix>
</trkpt>
<trkpt lat="33.8103143" lon="-118.3938815">
  <ele>-29.637</ele>
  <time>2026-09-02T22:07:46Z</time>
  <course>184.7</course>
  <speed>0.0282842712474619</speed>
  <fix>3d</fix>
</trkpt>
<trkpt lat="33.8103142" lon="-118.3938813">
  <ele>-28.94</ele>
  <time>2026-09-02T22:07:46Z</time>
  <course>276.07</course>
  <speed>0.0</speed>
  <fix>3d</fix>
</trkpt>
<trkpt lat="33.8103143" lon="-118.3938815">
  <ele>-29.629</ele>
  <time>2026-09-02T22:07:46Z</time>
  <course>184.7</course>
  <speed>0.0282842712474619</speed>
  <fix>3d</fix>
</trkpt>
<trkpt lat="33.8103142" lon="-118.3938813">
  <ele>-28.92</ele>
  <time>2026-09-02T22:07:46Z</time>
  <course>276.09</course>
  <speed>0.0</speed>
  <fix>3d</fix>
</trkpt>
<trkpt lat="33.8103143" lon="-118.3938815">
  <ele>-29.622</ele>
  <time>2026-09-02T22:07:47Z</time>
  <course>184.7</course>
  <speed>0.0282842712474619</speed>
  <fix>3d</fix>
</trkpt>
<trkpt lat="33.8103142" lon="-118.3938813">
  <ele>-28.92</ele>
  <time>2026-09-02T22:07:47Z</time>
  <course>276.09</course>
  <speed>0.0</speed>
  <fix>3d</fix>
</trkpt>
<trkpt lat="33.8103143" lon="-118.3938815">
  <ele>-29.614</ele>
  <time>2026-09-02T22:07:47Z</time>
  <course>184.7</course>
  <speed>0.0282842712474619</speed>
  <fix>3d</fix>
</trkpt>
<trkpt lat="33.8103142" lon="-118.3938813">
  <ele>-28.91</ele>
  <time>2026-09-02T22:07:47Z</time>
  <course>276.11</course>
  <speed>0.0</speed>
  <fix>3d</fix>
</trkpt>
<trkpt lat="33.8103143" lon="-118.3938815">
  <ele>-29.606</ele>
  <time>2026-09-02T22:07:47Z</time>
  <course>184.7</course>
  <speed>0.0282842712474619</speed>
  <fix>3d</fix>
</trkpt>
<trkpt lat="33.8103142" lon="-118.3938813">
  <ele>-28.91</ele>
  <time>2026-09-02T22:07:47Z</time>
  <course>276.11</course>
  <speed>0.0</speed>
  <fix>3d</fix>
</trkpt>
<trkpt lat="33.8103143" lon="-118.3938815">
  <ele>-29.565</ele>
  <time>2026-09-02T22:07:47Z</time>
  <course>184.69</course>
  <speed>0.0282842712474619</speed>
  <fix>3d</fix>
</trkpt>
<trkpt lat="33.8103142" lon="-118.3938814">
  <ele>-28.86</ele>
  <time>2026-09-02T22:07:47Z</time>
  <course>276.12</course>
  <speed>0.0</speed>
  <fix>3d</fix>
</trkpt>
<trkpt lat="33.8103143" lon="-118.3938815">
  <ele>-29.531</ele>
  <time>2026-09-02T22:07:47Z</time>
  <course>184.69</course>
  <speed>0.0282842712474619</speed>
  <fix>3d</fix>
</trkpt>
<trkpt lat="33.8103142" lon="-118.3938814">
  <ele>-28.84</ele>
  <time>2026-09-02T22:07:47Z</time>
  <course>276.13</course>
  <speed>0.0</speed>
  <fix>3d</fix>
</trkpt>
<trkpt lat="33.8103143" lon="-118.3938815">
  <ele>-29.519</ele>
  <time>2026-09-02T22:07:47Z</time>
  <course>184.69</course>
  <speed>0.0282842712474619</speed>
  <fix>3d</fix>
</trkpt>
<trkpt lat="33.8103142" lon="-118.3938814">
  <ele>-28.84</ele>
  <time>2026-09-02T22:07:47Z</time>
  <course>276.13</course>
  <speed>0.0</speed>
  <fix>3d</fix>
</trkpt>
<trkpt lat="33.8103143" lon="-118.3938815">
  <ele>-29.507</ele>
  <time>2026-09-02T22:07:47Z</time>
  <course>184.69</course>
  <speed>0.0282842712474619</speed>
  <fix>3d</fix>
</trkpt>
<trkpt lat="33.8103142" lon="-118.3938814">
  <ele>-28.82</ele>
  <time>2026-09-02T22:07:47Z</time>
  <course>276.15</course>
  <speed>0.0</speed>
  <fix>3d</fix>
</trkpt>
<trkpt lat="33.8103143" lon="-118.3938815">
  <ele>-29.483</ele>
  <time>2026-09-02T22:07:47Z</time>
  <course>184.69</course>
  <speed>0.0282842712474619</speed>
  <fix>3d</fix>
</trkpt>
<trkpt lat="33.8103142" lon="-118.3938814">
  <ele>-28.8</ele>
  <time>2026-09-02T22:07:47Z</time>
  <course>276.17</course>
  <speed>0.0</speed>
  <fix>3d</fix>
</trkpt>
<trkpt lat="33.8103143" lon="-118.3938815">
  <ele>-29.473</ele>
  <time>2026-09-02T22:07:47Z</time>
  <course>184.69</course>
  <speed>0.0282842712474619</speed>
  <fix>3d</fix>
</trkpt>
<trkpt lat="33.8103142" lon="-118.3938814">
  <ele>-28.8</ele>
  <time>2026-09-02T22:07:47Z</time>
  <course>276.17</course>
  <speed>0.0</speed>
  <fix>3d</fix>
</trkpt>
<trkpt lat="33.8103143" lon="-118.3938816">
  <ele>-29.464</ele>
  <time>2026-09-02T22:07:47Z</time>
  <course>184.68</course>
  <speed>0.0282842712474619</speed>
  <fix>3d</fix>
</trkpt>
<trkpt lat="33.8103142" lon="-118.3938814">
  <ele>-28.78</ele>
  <time>2026-09-02T22:07:47Z</time>
  <course>276.18</course>
  <speed>0.0</speed>
  <fix>3d</fix>
</trkpt>
<trkpt lat="33.8103143" lon="-118.3938816">
  <ele>-29.455</ele>
  <time>2026-09-02T22:07:47Z</time>
  <course>184.68</course>
  <speed>0.0282842712474619</speed>
  <fix>3d</fix>
</trkpt>
<trkpt lat="33.8103142" lon="-118.3938814">
  <ele>-28.78</ele>
  <time>2026-09-02T22:07:47Z</time>
  <course>276.18</course>
  <speed>0.0</speed>
  <fix>3d</fix>
</trkpt>
<trkpt lat="33.8103143" lon="-118.3938816">
  <ele>-29.444</ele>
  <time>2026-09-02T22:07:47Z</time>
  <course>184.68</course>
  <speed>0.0282842712474619</speed>
  <fix>3d</fix>
</trkpt>
<trkpt lat="33.8103142" lon="-118.3938814">
  <ele>-28.76</ele>
  <time>2026-09-02T22:07:47Z</time>
  <course>276.19</course>
  <speed>0.0</speed>
  <fix>3d</fix>
</trkpt>
<trkpt lat="33.8103143" lon="-118.3938816">
  <ele>-29.433</ele>
  <time>2026-09-02T22:07:47Z</time>
  <course>184.68</course>
  <speed>0.0282842712474619</speed>
  <fix>3d</fix>
</trkpt>
<trkpt lat="33.8103142" lon="-118.3938814">
  <ele>-28.76</ele>
  <time>2026-09-02T22:07:47Z</time>
  <course>276.19</course>
  <speed>0.0</speed>
  <fix>3d</fix>
</trkpt>
<trkpt lat="33.8103143" lon="-118.3938816">
  <ele>-29.424</ele>
  <time>2026-09-02T22:07:47Z</time>
  <course>184.68</course>
  <speed>0.0282842712474619</speed>
  <fix>3d</fix>
</trkpt>
<trkpt lat="33.8103142" lon="-118.3938814">
  <ele>-28.74</ele>
  <time>2026-09-02T22:07:47Z</time>
  <course>276.19</course>
  <speed>0.0</speed>
  <fix>3d</fix>
</trkpt>
<trkpt lat="33.8103143" lon="-118.3938816">
  <ele>-29.414</ele>
  <time>2026-09-02T22:07:47Z</time>
  <course>184.68</course>
  <speed>0.0282842712474619</speed>
  <fix>3d</fix>
</trkpt>
<trkpt lat="33.8103142" lon="-118.3938814">
  <ele>-28.74</ele>
  <time>2026-09-02T22:07:47Z</time>
  <course>276.19</course>
  <speed>0.0</speed>
  <fix>3d</fix>
</trkpt>
<trkpt lat="33.8103143" lon="-118.3938816">
  <ele>-29.405</ele>
  <time>2026-09-02T22:07:47Z</time>
  <course>184.68</course>
  <speed>0.0282842712474619</speed>
  <fix>3d</fix>
</trkpt>
<trkpt lat="33.8103142" lon="-118.3938814">
  <ele>-28.72</ele>
  <time>2026-09-02T22:07:47Z</time>
  <course>276.19</course>
  <speed>0.0</speed>
  <fix>3d</fix>
</trkpt>
<trkpt lat="33.8103143" lon="-118.3938816">
  <ele>-29.395</ele>
  <time>2026-09-02T22:07:47Z</time>
  <course>184.68</course>
  <speed>0.0282842712474619</speed>
  <fix>3d</fix>
</trkpt>
<trkpt lat="33.8103142" lon="-118.3938814">
  <ele>-28.72</ele>
  <time>2026-09-02T22:07:47Z</time>
  <course>276.19</course>
  <speed>0.0</speed>
  <fix>3d</fix>
</trkpt>
<trkpt lat="33.8103143" lon="-118.3938816">
  <ele>-29.386</ele>
  <time>2026-09-02T22:07:47Z</time>
  <course>184.68</course>
  <speed>0.0282842712474619</speed>
  <fix>3d</fix>
</trkpt>
<trkpt lat="33.8103142" lon="-118.3938815">
  <ele>-28.7</ele>
  <time>2026-09-02T22:07:47Z</time>
  <course>276.2</course>
  <speed>0.0</speed>
  <fix>3d</fix>
</trkpt>
<trkpt lat="33.8103143" lon="-118.3938816">
  <ele>-29.377</ele>
  <time>2026-09-02T22:07:47Z</time>
  <course>184.68</course>
  <speed>0.0282842712474619</speed>
  <fix>3d</fix>
</trkpt>
<trkpt lat="33.8103142" lon="-118.3938815">
  <ele>-28.7</ele>
  <time>2026-09-02T22:07:47Z</time>
  <course>276.2</course>
  <speed>0.0</speed>
  <fix>3d</fix>
</trkpt>
<trkpt lat="33.8103143" lon="-118.3938816">
  <ele>-29.369</ele>
  <time>2026-09-02T22:07:47Z</time>
  <course>184.68</course>
  <speed>0.0282842712474619</speed>
  <fix>3d</fix>
</trkpt>
<trkpt lat="33.8103142" lon="-118.3938815">
  <ele>-28.69</ele>
  <time>2026-09-02T22:07:47Z</time>
  <course>276.22</course>
  <speed>0.0</speed>
  <fix>3d</fix>
</trkpt>
<trkpt lat="33.8103143" lon="-118.3938816">
  <ele>-29.361</ele>
  <time>2026-09-02T22:07:47Z</time>
  <course>184.67</course>
  <speed>0.0282842712474619</speed>
  <fix>3d</fix>
</trkpt>
<trkpt lat="33.8103142" lon="-118.3938815">
  <ele>-28.69</ele>
  <time>2026-09-02T22:07:47Z</time>
  <course>276.22</course>
  <speed>0.0</speed>
  <fix>3d</fix>
</trkpt>
<trkpt lat="33.8103143" lon="-118.3938816">
  <ele>-29.353</ele>
  <time>2026-09-02T22:07:47Z</time>
  <course>184.67</course>
  <speed>0.0282842712474619</speed>
  <fix>3d</fix>
</trkpt>
<trkpt lat="33.8103142" lon="-118.3938815">
  <ele>-28.67</ele>
  <time>2026-09-02T22:07:47Z</time>
  <course>276.24</course>
  <speed>0.0</speed>
  <fix>3d</fix>
</trkpt>
<trkpt lat="33.8103143" lon="-118.3938816">
  <ele>-29.345</ele>
  <time>2026-09-02T22:07:47Z</time>
  <course>184.67</course>
  <speed>0.0282842712474619</speed>
  <fix>3d</fix>
</trkpt>
<trkpt lat="33.8103142" lon="-118.3938815">
  <ele>-28.67</ele>
  <time>2026-09-02T22:07:47Z</time>
  <course>276.24</course>
  <speed>0.0</speed>
  <fix>3d</fix>
</trkpt>
<trkpt lat="33.8103143" lon="-118.3938816">
  <ele>-29.336</ele>
  <time>2026-09-02T22:07:47Z</time>
  <course>184.67</course>
  <speed>0.0282842712474619</speed>
  <fix>3d</fix>
</trkpt>
<trkpt lat="33.8103142" lon="-118.3938815">
  <ele>-28.65</ele>
  <time>2026-09-02T22:07:47Z</time>
  <course>276.25</course>
  <speed>0.0</speed>
  <fix>3d</fix>
</trkpt>
<trkpt lat="33.8103143" lon="-118.3938816">
  <ele>-29.328</ele>
  <time>2026-09-02T22:07:47Z</time>
  <course>184.67</course>
  <speed>0.0282842712474619</speed>
  <fix>3d</fix>
</trkpt>
<trkpt lat="33.8103142" lon="-118.3938815">
  <ele>-28.65</ele>
  <time>2026-09-02T22:07:47Z</time>
  <course>276.25</course>
  <speed>0.0</speed>
  <fix>3d</fix>
</trkpt>
<trkpt lat="33.8103143" lon="-118.3938816">
  <ele>-29.32</ele>
  <time>2026-09-02T22:07:47Z</time>
  <course>184.67</course>
  <speed>0.0282842712474619</speed>
  <fix>3d</fix>
</trkpt>
<trkpt lat="33.8103142" lon="-118.3938815">
  <ele>-28.63</ele>
  <time>2026-09-02T22:07:47Z</time>
  <course>276.26</course>
  <speed>0.0</speed>
  <fix>3d</fix>
</trkpt>
<trkpt lat="33.8103143" lon="-118.3938816">
  <ele>-29.312</ele>
  <time>2026-09-02T22:07:47Z</time>
  <course>184.67</course>
  <speed>0.0282842712474619</speed>
  <fix>3d</fix>
</trkpt>
<trkpt lat="33.8103142" lon="-118.3938815">
  <ele>-28.63</ele>
  <time>2026-09-02T22:07:47Z</time>
  <course>276.26</course>
  <speed>0.0</speed>
  <fix>3d</fix>
</trkpt>
<trkpt lat="33.8103143" lon="-118.3938816">
  <ele>-29.303</ele>
  <time>2026-09-02T22:07:47Z</time>
  <course>184.67</course>
  <speed>0.0282842712474619</speed>
  <fix>3d</fix>
</trkpt>
<trkpt lat="33.8103142" lon="-118.3938815">
  <ele>-28.61</ele>
  <time>2026-09-02T22:07:47Z</time>
  <course>276.26</course>
  <speed>0.0</speed>
  <fix>3d</fix>
</trkpt>
<trkpt lat="33.8103143" lon="-118.3938816">
  <ele>-29.294</ele>
  <time>2026-09-02T22:07:47Z</time>
  <course>184.67</course>
  <speed>0.0282842712474619</speed>
  <fix>3d</fix>
</trkpt>
<trkpt lat="33.8103142" lon="-118.3938815">
  <ele>-28.61</ele>
  <time>2026-09-02T22:07:47Z</time>
  <course>276.26</course>
  <speed>0.0</speed>
  <fix>3d</fix>
</trkpt>
<trkpt lat="33.8103143" lon="-118.3938816">
  <ele>-29.284</ele>
  <time>2026-09-02T22:07:47Z</time>
  <course>184.67</course>
  <speed>0.0282842712474619</speed>
  <fix>3d</fix>
</trkpt>
<trkpt lat="33.8103142" lon="-118.3938815">
  <ele>-28.59</ele>
  <time>2026-09-02T22:07:47Z</time>
  <course>276.26</course>
  <speed>0.0</speed>
  <fix>3d</fix>
</trkpt>
<trkpt lat="33.4368002" lon="-117.0859339">
  <ele>-0.11</ele>
  <time>2026-09-02T22:07:47Z</time>
  <course>0.0</course>
  <speed>0.0</speed>
  <fix>3d</fix>
</trkpt>
<trkpt lat="33.4368002" lon="-117.0859339">
  <ele>-0.11</ele>
  <time>2026-09-02T22:07:47Z</time>
  <course>0.0</course>
  <speed>0.0</speed>
  <fix>3d</fix>
</trkpt>
<trkpt lat="33.810313" lon="-118.393867">
  <ele>0.0</ele>
  <time>2026-09-02T22:07:47Z</time>
  <course>173.5</course>
  <speed>0.0</speed>
  <fix>3d</fix>
</trkpt>
<trkpt lat="33.810313" lon="-118.393867">
  <ele>-0.11</ele>
  <time>2026-09-02T22:07:47Z</time>
  <course>0.0</course>
  <speed>0.0</speed>
  <fix>3d</fix>
</trkpt>
<trkpt lat="33.810313" lon="-118.393867">
  <ele>0.0</ele>
  <time>2026-09-02T22:07:47Z</time>
  <course>173.61</course>
  <speed>0.0</speed>
  <fix>3d</fix>
</trkpt>
<trkpt lat="33.810313" lon="-118.393867">
  <ele>-0.11</ele>
  <time>2026-09-02T22:07:47Z</time>
  <course>0.0</course>
  <speed>0.0</speed>
  <fix>3d</fix>
</trkpt>
<trkpt lat="33.810313" lon="-118.393867">
  <ele>0.0</ele>
  <time>2026-09-02T22:07:47Z</time>
  <course>173.98</course>
  <speed>0.0</speed>
  <fix>3d</fix>
</trkpt>
<trkpt lat="33.810313" lon="-118.393867">
  <ele>-0.11</ele>
  <time>2026-09-02T22:07:47Z</time>
  <course>0.0</course>
  <speed>0.0</speed>
  <fix>3d</fix>
</trkpt>
<trkpt lat="33.810313" lon="-118.393867">
  <ele>0.0</ele>
  <time>2026-09-02T22:07:47Z</time>
  <course>174.51</course>
  <speed>0.0</speed>
  <fix>3d</fix>
</trkpt>
<trkpt lat="33.810313" lon="-118.393867">
  <ele>-0.11</ele>
  <time>2026-09-02T22:07:47Z</time>
  <course>0.0</course>
  <speed>0.0</speed>
  <fix>3d</fix>
</trkpt>
<trkpt lat="33.810313" lon="-118.393867">
  <ele>0.0</ele>
  <time>2026-09-02T22:07:47Z</time>
  <course>175.07</course>
  <speed>0.0</speed>
  <fix>3d</fix>
</trkpt>
<trkpt lat="33.810313" lon="-118.393867">
  <ele>-0.12</ele>
  <time>2026-09-02T22:07:47Z</time>
  <course>0.0</course>
  <speed>0.0</speed>
  <fix>3d</fix>
</trkpt>
<trkpt lat="33.810313" lon="-118.393867">
  <ele>0.0</ele>
  <time>2026-09-02T22:07:47Z</time>
  <course>175.61</course>
  <speed>0.0</speed>
  <fix>3d</fix>
</trkpt>
<trkpt lat="33.810313" lon="-118.393867">
  <ele>-0.12</ele>
  <time>2026-09-02T22:07:47Z</time>
  <course>0.0</course>
  <speed>0.0</speed>
  <fix>3d</fix>
</trkpt>
<trkpt lat="33.810313" lon="-118.393867">
  <ele>0.0</ele>
  <time>2026-09-02T22:07:47Z</time>
  <course>176.12</course>
  <speed>0.0</speed>
  <fix>3d</fix>
</trkpt>
<trkpt lat="33.810313" lon="-118.393867">
  <ele>-0.13</ele>
  <time>2026-09-02T22:07:47Z</time>
  <course>0.0</course>
  <speed>0.0</speed>
  <fix>3d</fix>
</trkpt>
<trkpt lat="33.810313" lon="-118.393867">
  <ele>0.0</ele>
  <time>2026-09-02T22:07:47Z</time>
  <course>176.6</course>
  <speed>0.0</speed>
  <fix>3d</fix>
</trkpt>
<trkpt lat="33.810313" lon="-118.393867">
  <ele>-0.13</ele>
  <time>2026-09-02T22:07:47Z</time>
  <course>0.0</course>
  <speed>0.0</speed>
  <fix>3d</fix>
</trkpt>
<trkpt lat="33.810313" lon="-118.393867">
  <ele>0.0</ele>
  <time>2026-09-02T22:07:47Z</time>
  <course>177.07</course>
  <speed>0.0</speed>
  <fix>3d</fix>
</trkpt>
<trkpt lat="33.810313" lon="-118.393867">
  <ele>-0.13</ele>
  <time>2026-09-02T22:07:47Z</time>
  <course>0.0</course>
  <speed>0.0</speed>
  <fix>3d</fix>
</trkpt>
<trkpt lat="33.810313" lon="-118.393867">
  <ele>0.0</ele>
  <time>2026-09-02T22:07:47Z</time>
  <course>177.53</course>
  <speed>0.0</speed>
  <fix>3d</fix>
</trkpt>
<trkpt lat="33.810313" lon="-118.393867">
  <ele>-0.13</ele>
  <time>2026-09-02T22:07:47Z</time>
  <course>0.0</course>
  <speed>0.0</speed>
  <fix>3d</fix>
</trkpt>
<trkpt lat="33.810313" lon="-118.393867">
  <ele>0.0</ele>
  <time>2026-09-02T22:07:47Z</time>
  <course>177.97</course>
  <speed>0.0</speed>
  <fix>3d</fix>
</trkpt>
<trkpt lat="33.810313" lon="-118.393867">
  <ele>-0.14</ele>
  <time>2026-09-02T22:07:47Z</time>
  <course>0.0</course>
  <speed>0.0</speed>
  <fix>3d</fix>
</trkpt>
<trkpt lat="33.810313" lon="-118.393867">
  <ele>0.0</ele>
  <time>2026-09-02T22:07:47Z</time>
  <course>178.4</course>
  <speed>0.0</speed>
  <fix>3d</fix>
</trkpt>
<trkpt lat="33.810313" lon="-118.393867">
  <ele>-0.14</ele>
  <time>2026-09-02T22:07:47Z</time>
  <course>0.0</course>
  <speed>0.0</speed>
  <fix>3d</fix>
</trkpt>
<trkpt lat="33.810313" lon="-118.393867">
  <ele>0.0</ele>
  <time>2026-09-02T22:07:47Z</time>
  <course>178.82</course>
  <speed>0.0</speed>
  <fix>3d</fix>
</trkpt>
<trkpt lat="33.810313" lon="-118.393867">
  <ele>-0.14</ele>
  <time>2026-09-02T22:07:47Z</time>
  <course>0.0</course>
  <speed>0.0</speed>
  <fix>3d</fix>
</trkpt>
<trkpt lat="33.810313" lon="-118.393867">
  <ele>0.0</ele>
  <time>2026-09-02T22:07:47Z</time>
  <course>179.23</course>
  <speed>0.0</speed>
  <fix>3d</fix>
</trkpt>
<trkpt lat="33.810313" lon="-118.393867">
  <ele>-0.14</ele>
  <time>2026-09-02T22:07:47Z</time>
  <course>0.0</course>
  <speed>0.0</speed>
  <fix>3d</fix>
</trkpt>
<trkpt lat="33.810313" lon="-118.393867">
  <ele>0.0</ele>
  <time>2026-09-02T22:07:47Z</time>
  <course>179.62</course>
  <speed>0.0</speed>
  <fix>3d</fix>
</trkpt>
<trkpt lat="33.810313" lon="-118.393867">
  <ele>-0.14</ele>
  <time>2026-09-02T22:07:47Z</time>
  <course>0.0</course>
  <speed>0.0</speed>
  <fix>3d</fix>
</trkpt>
<trkpt lat="33.810313" lon="-118.393867">
  <ele>0.0</ele>
  <time>2026-09-02T22:07:47Z</time>
  <course>180.01</course>
  <speed>0.0</speed>
  <fix>3d</fix>
</trkpt>
<trkpt lat="33.810313" lon="-118.393867">
  <ele>-0.14</ele>
  <time>2026-09-02T22:07:47Z</time>
  <course>0.0</course>
  <speed>0.0</speed>
  <fix>3d</fix>
</trkpt>
<trkpt lat="33.810313" lon="-118.393867">
  <ele>0.0</ele>
  <time>2026-09-02T22:07:47Z</time>
  <course>180.37</course>
  <speed>0.0</speed>
  <fix>3d</fix>
</trkpt>
<trkpt lat="33.810313" lon="-118.393867">
  <ele>-0.14</ele>
  <time>2026-09-02T22:07:47Z</time>
  <course>0.0</course>
  <speed>0.0</speed>
  <fix>3d</fix>
</trkpt>
<trkpt lat="33.810313" lon="-118.393867">
  <ele>0.0</ele>
  <time>2026-09-02T22:07:47Z</time>
  <course>180.73</course>
  <speed>0.0</speed>
  <fix>3d</fix>
</trkpt>
<trkpt lat="33.810313" lon="-118.393867">
  <ele>-0.14</ele>
  <time>2026-09-02T22:07:47Z</time>
  <course>0.0</course>
  <speed>0.0</speed>
  <fix>3d</fix>
</trkpt>
<trkpt lat="33.810313" lon="-118.393867">
  <ele>0.0</ele>
  <time>2026-09-02T22:07:47Z</time>
  <course>181.07</course>
  <speed>0.0</speed>
  <fix>3d</fix>
</trkpt>
<trkpt lat="33.810313" lon="-118.393867">
  <ele>-0.13</ele>
  <time>2026-09-02T22:07:47Z</time>
  <course>0.0</course>
  <speed>0.0</speed>
  <fix>3d</fix>
</trkpt>
<trkpt lat="33.810313" lon="-118.393867">
  <ele>0.0</ele>
  <time>2026-09-02T22:07:47Z</time>
  <course>181.4</course>
  <speed>0.0</speed>
  <fix>3d</fix>
</trkpt>
<trkpt lat="33.810313" lon="-118.393867">
  <ele>-0.13</ele>
  <time>2026-09-02T22:07:47Z</time>
  <course>0.0</course>
  <speed>0.0</speed>
  <fix>3d</fix>
</trkpt>
<trkpt lat="33.810313" lon="-118.393867">
  <ele>0.0</ele>
  <time>2026-09-02T22:07:47Z</time>
  <course>181.72</course>
  <speed>0.0</speed>
  <fix>3d</fix>
</trkpt>
<trkpt lat="33.810313" lon="-118.393867">
  <ele>-0.12</ele>
  <time>2026-09-02T22:07:47Z</time>
  <course>0.0</course>
  <speed>0.0</speed>
  <fix>3d</fix>
</trkpt>
<trkpt lat="33.810313" lon="-118.393867">
  <ele>0.0</ele>
  <time>2026-09-02T22:07:47Z</time>
  <course>182.02</course>
  <speed>0.0</speed>
  <fix>3d</fix>
</trkpt>
<trkpt lat="33.810313" lon="-118.393867">
  <ele>-0.12</ele>
  <time>2026-09-02T22:07:47Z</time>
  <course>0.0</course>
  <speed>0.0</speed>
  <fix>3d</fix>
</trkpt>
<trkpt lat="33.810313" lon="-118.393867">
  <ele>0.0</ele>
  <time>2026-09-02T22:07:47Z</time>
  <course>182.32</course>
  <speed>0.0</speed>
  <fix>3d</fix>
</trkpt>
<trkpt lat="33.810313" lon="-118.393867">
  <ele>-0.12</ele>
  <time>2026-09-02T22:07:47Z</time>
  <course>0.0</course>
  <speed>0.0</speed>
  <fix>3d</fix>
</trkpt>
<trkpt lat="33.810313" lon="-118.393867">
  <ele>0.0</ele>
  <time>2026-09-02T22:07:47Z</time>
  <course>182.6</course>
  <speed>0.0</speed>
  <fix>3d</fix>
</trkpt>
<trkpt lat="33.810313" lon="-118.393867">
  <ele>-0.12</ele>
  <time>2026-09-02T22:07:47Z</time>
  <course>0.0</course>
  <speed>0.0</speed>
  <fix>3d</fix>
</trkpt>
<trkpt lat="33.810313" lon="-118.393867">
  <ele>0.0</ele>
  <time>2026-09-02T22:07:47Z</time>
  <course>182.87</course>
  <speed>0.0</speed>
  <fix>3d</fix>
</trkpt>
<trkpt lat="33.810313" lon="-118.393867">
  <ele>-0.11</ele>
  <time>2026-09-02T22:07:47Z</time>
  <course>0.0</course>
  <speed>0.0</speed>
  <fix>3d</fix>
</trkpt>
<trkpt lat="33.810313" lon="-118.393867">
  <ele>0.0</ele>
  <time>2026-09-02T22:07:47Z</time>
  <course>183.14</course>
  <speed>0.0</speed>
  <fix>3d</fix>
</trkpt>
<trkpt lat="33.810313" lon="-118.393867">
  <ele>-0.11</ele>
  <time>2026-09-02T22:07:47Z</time>
  <course>0.0</course>
  <speed>0.0</speed>
  <fix>3d</fix>
</trkpt>
<trkpt lat="33.810313" lon="-118.393867">
  <ele>0.0</ele>
  <time>2026-09-02T22:07:47Z</time>
  <course>183.39</course>
  <speed>0.0</speed>
  <fix>3d</fix>
</trkpt>
<trkpt lat="33.810313" lon="-118.393867">
  <ele>-0.11</ele>
  <time>2026-09-02T22:07:47Z</time>
  <course>0.0</course>
  <speed>0.0</speed>
  <fix>3d</fix>
</trkpt>
<trkpt lat="33.810313" lon="-118.393867">
  <ele>0.0</ele>
  <time>2026-09-02T22:07:47Z</time>
  <course>183.63</course>
  <speed>0.0</speed>
  <fix>3d</fix>
</trkpt>
<trkpt lat="33.810313" lon="-118.393867">
  <ele>-0.11</ele>
  <time>2026-09-02T22:07:47Z</time>
  <course>0.0</course>
  <speed>0.0</speed>
  <fix>3d</fix>
</trkpt>
<trkpt lat="33.810313" lon="-118.393867">
  <ele>0.0</ele>
  <time>2026-09-02T22:07:47Z</time>
  <course>183.86</course>
  <speed>0.0</speed>
  <fix>3d</fix>
</trkpt>
<trkpt lat="33.810313" lon="-118.393867">
  <ele>-0.12</ele>
  <time>2026-09-02T22:07:47Z</time>
  <course>0.0</course>
  <speed>0.0</speed>
  <fix>3d</fix>
</trkpt>
<trkpt lat="33.810313" lon="-118.393867">
  <ele>0.0</ele>
  <time>2026-09-02T22:07:47Z</time>
  <course>184.08</course>
  <speed>0.0</speed>
  <fix>3d</fix>
</trkpt>
<trkpt lat="33.810313" lon="-118.393867">
  <ele>-0.12</ele>
  <time>2026-09-02T22:07:47Z</time>
  <course>0.0</course>
  <speed>0.0</speed>
  <fix>3d</fix>
</trkpt>
<trkpt lat="33.810313" lon="-118.393867">
  <ele>0.0</ele>
  <time>2026-09-02T22:07:47Z</time>
  <course>184.3</course>
  <speed>0.0</speed>
  <fix>3d</fix>
</trkpt>
<trkpt lat="33.810313" lon="-118.393867">
  <ele>-0.13</ele>
  <time>2026-09-02T22:07:47Z</time>
  <course>0.0</course>
  <speed>0.0</speed>
  <fix>3d</fix>
</trkpt>
<trkpt lat="33.810313" lon="-118.393867">
  <ele>0.0</ele>
  <time>2026-09-02T22:07:47Z</time>
  <course>184.51</course>
  <speed>0.0</speed>
  <fix>3d</fix>
</trkpt>
<trkpt lat="33.810313" lon="-118.393867">
  <ele>-0.13</ele>
  <time>2026-09-02T22:07:47Z</time>
  <course>0.0</course>
  <speed>0.0</speed>
  <fix>3d</fix>
</trkpt>
<trkpt lat="33.810313" lon="-118.393867">
  <ele>0.0</ele>
  <time>2026-09-02T22:07:47Z</time>
  <course>184.7</course>
  <speed>0.0</speed>
  <fix>3d</fix>
</trkpt>
<trkpt lat="33.810313" lon="-118.393867">
  <ele>-0.13</ele>
  <time>2026-09-02T22:07:47Z</time>
  <course>0.0</course>
  <speed>0.0</speed>
  <fix>3d</fix>
</trkpt>
<trkpt lat="33.810313" lon="-118.393867">
  <ele>0.0</ele>
  <time>2026-09-02T22:07:47Z</time>
  <course>184.89</course>
  <speed>0.0</speed>
  <fix>3d</fix>
</trkpt>
<trkpt lat="33.810313" lon="-118.393867">
  <ele>-0.13</ele>
  <time>2026-09-02T22:07:47Z</time>
  <course>0.0</course>
  <speed>0.0</speed>
  <fix>3d</fix>
</trkpt>
<trkpt lat="33.810313" lon="-118.393867">
  <ele>0.0</ele>
  <time>2026-09-02T22:07:47Z</time>
  <course>185.07</course>
  <speed>0.0</speed>
  <fix>3d</fix>
</trkpt>
<trkpt lat="33.810313" lon="-118.393867">
  <ele>-0.14</ele>
  <time>2026-09-02T22:07:47Z</time>
  <course>0.0</course>
  <speed>0.0</speed>
  <fix>3d</fix>
</trkpt>
<trkpt lat="33.810313" lon="-118.393867">
  <ele>0.0</ele>
  <time>2026-09-02T22:07:47Z</time>
  <course>185.24</course>
  <speed>0.0</speed>
  <fix>3d</fix>
</trkpt>
<trkpt lat="33.810313" lon="-118.393867">
  <ele>-0.14</ele>
  <time>2026-09-02T22:07:47Z</time>
  <course>0.0</course>
  <speed>0.0</speed>
  <fix>3d</fix>
</trkpt>
<trkpt lat="33.810313" lon="-118.393867">
  <ele>0.0</ele>
  <time>2026-09-02T22:07:47Z</time>
  <course>185.41</course>
  <speed>0.0</speed>
  <fix>3d</fix>
</trkpt>
<trkpt lat="33.810313" lon="-118.393867">
  <ele>-0.13</ele>
  <time>2026-09-02T22:07:47Z</time>
  <course>0.0</course>
  <speed>0.0</speed>
  <fix>3d</fix>
</trkpt>
<trkpt lat="33.810313" lon="-118.393867">
  <ele>0.0</ele>
  <time>2026-09-02T22:07:47Z</time>
  <course>185.57</course>
  <speed>0.0</speed>
  <fix>3d</fix>
</trkpt>
<trkpt lat="33.810313" lon="-118.393867">
  <ele>-0.13</ele>
  <time>2026-09-02T22:07:47Z</time>
  <course>0.0</course>
  <speed>0.0</speed>
  <fix>3d</fix>
</trkpt>
<trkpt lat="33.810313" lon="-118.393867">
  <ele>0.0</ele>
  <time>2026-09-02T22:07:47Z</time>
  <course>185.72</course>
  <speed>0.0</speed>
  <fix>3d</fix>
</trkpt>
<trkpt lat="33.810313" lon="-118.393867">
  <ele>-0.13</ele>
  <time>2026-09-02T22:07:47Z</time>
  <course>0.0</course>
  <speed>0.0</speed>
  <fix>3d</fix>
</trkpt>
<trkpt lat="33.810313" lon="-118.393867">
  <ele>0.0</ele>
  <time>2026-09-02T22:07:47Z</time>
  <course>185.86</course>
  <speed>0.0</speed>
  <fix>3d</fix>
</trkpt>
<trkpt lat="33.810313" lon="-118.393867">
  <ele>-0.13</ele>
  <time>2026-09-02T22:07:47Z</time>
  <course>0.0</course>
  <speed>0.0</speed>
  <fix>3d</fix>
</trkpt>
<trkpt lat="33.810313" lon="-118.393867">
  <ele>0.0</ele>
  <time>2026-09-02T22:07:47Z</time>
  <course>186.0</course>
  <speed>0.0</speed>
  <fix>3d</fix>
</trkpt>
<trkpt lat="33.810313" lon="-118.393867">
  <ele>-0.12</ele>
  <time>2026-09-02T22:07:47Z</time>
  <course>0.0</course>
  <speed>0.0</speed>
  <fix>3d</fix>
</trkpt>
<trkpt lat="33.810313" lon="-118.393867">
  <ele>0.0</ele>
  <time>2026-09-02T22:07:47Z</time>
  <course>186.13</course>
  <speed>0.0</speed>
  <fix>3d</fix>
</trkpt>
<trkpt lat="33.810313" lon="-118.393867">
  <ele>-0.12</ele>
  <time>2026-09-02T22:07:47Z</time>
  <course>0.0</course>
  <speed>0.0</speed>
  <fix>3d</fix>
</trkpt>
<trkpt lat="33.810313" lon="-118.393867">
  <ele>0.0</ele>
  <time>2026-09-02T22:07:47Z</time>
  <course>186.26</course>
  <speed>0.0</speed>
  <fix>3d</fix>
</trkpt>
<trkpt lat="33.810313" lon="-118.393867">
  <ele>-0.12</ele>
  <time>2026-09-02T22:07:47Z</time>
  <course>0.0</course>
  <speed>0.0</speed>
  <fix>3d</fix>
</trkpt>
<trkpt lat="33.810313" lon="-118.393867">
  <ele>0.0</ele>
  <time>2026-09-02T22:07:47Z</time>
  <course>186.38</course>
  <speed>0.0</speed>
  <fix>3d</fix>
</trkpt>
<trkpt lat="33.810313" lon="-118.393867">
  <ele>-0.12</ele>
  <time>2026-09-02T22:07:47Z</time>
  <course>0.0</course>
  <speed>0.0</speed>
  <fix>3d</fix>
</trkpt>
<trkpt lat="33.810313" lon="-118.393867">
  <ele>0.0</ele>
  <time>2026-09-02T22:07:47Z</time>
  <course>186.49</course>
  <speed>0.0</speed>
  <fix>3d</fix>
</trkpt>
<trkpt lat="33.810313" lon="-118.393867">
  <ele>-0.12</ele>
  <time>2026-09-02T22:07:47Z</time>
  <course>0.0</course>
  <speed>0.0</speed>
  <fix>3d</fix>
</trkpt>
<trkpt lat="33.810313" lon="-118.393867">
  <ele>0.0</ele>
  <time>2026-09-02T22:07:47Z</time>
  <course>186.6</course>
  <speed>0.0</speed>
  <fix>3d</fix>
</trkpt>
<trkpt lat="33.810313" lon="-118.393867">
  <ele>-0.12</ele>
  <time>2026-09-02T22:07:47Z</time>
  <course>0.0</course>
  <speed>0.0</speed>
  <fix>3d</fix>
</trkpt>
<trkpt lat="33.810313" lon="-118.393867">
  <ele>0.0</ele>
  <time>2026-09-02T22:07:47Z</time>
  <course>186.71</course>
  <speed>0.0</speed>
  <fix>3d</fix>
</trkpt>
<trkpt lat="33.810313" lon="-118.393867">
  <ele>-0.12</ele>
  <time>2026-09-02T22:07:47Z</time>
  <course>0.0</course>
  <speed>0.0</speed>
  <fix>3d</fix>
</trkpt>
<trkpt lat="33.810313" lon="-118.393867">
  <ele>0.0</ele>
  <time>2026-09-02T22:07:48Z</time>
  <course>186.81</course>
  <speed>0.0</speed>
  <fix>3d</fix>
</trkpt>
<trkpt lat="33.810313" lon="-118.393867">
  <ele>-0.12</ele>
  <time>2026-09-02T22:07:48Z</time>
  <course>0.0</course>
  <speed>0.0</speed>
  <fix>3d</fix>
</trkpt>
<trkpt lat="33.810313" lon="-118.393867">
  <ele>0.0</ele>
  <time>2026-09-02T22:07:48Z</time>
  <course>186.91</course>
  <speed>0.0</speed>
  <fix>3d</fix>
</trkpt>
<trkpt lat="33.810313" lon="-118.393867">
  <ele>-0.12</ele>
  <time>2026-09-02T22:07:48Z</time>
  <course>0.0</course>
  <speed>0.0</speed>
  <fix>3d</fix>
</trkpt>
<trkpt lat="33.810313" lon="-118.393867">
  <ele>0.0</ele>
  <time>2026-09-02T22:07:48Z</time>
  <course>187.0</course>
  <speed>0.0</speed>
  <fix>3d</fix>
</trkpt>
<trkpt lat="33.810313" lon="-118.393867">
  <ele>-0.12</ele>
  <time>2026-09-02T22:07:48Z</time>
  <course>0.0</course>
  <speed>0.0</speed>
  <fix>3d</fix>
</trkpt>
<trkpt lat="33.810313" lon="-118.393867">
  <ele>0.0</ele>
  <time>2026-09-02T22:07:48Z</time>
  <course>187.09</course>
  <speed>0.0</speed>
  <fix>3d</fix>
</trkpt>
<trkpt lat="33.810313" lon="-118.393867">
  <ele>-0.13</ele>
  <time>2026-09-02T22:07:48Z</time>
  <course>0.0</course>
  <speed>0.0</speed>
  <fix>3d</fix>
</trkpt>
<trkpt lat="33.810313" lon="-118.393867">
  <ele>0.0</ele>
  <time>2026-09-02T22:07:48Z</time>
  <course>187.17</course>
  <speed>0.0</speed>
  <fix>3d</fix>
</trkpt>
<trkpt lat="33.810313" lon="-118.393867">
  <ele>-0.13</ele>
  <time>2026-09-02T22:07:48Z</time>
  <course>0.0</course>
  <speed>0.0</speed>
  <fix>3d</fix>
</trkpt>
<trkpt lat="33.810313" lon="-118.393867">
  <ele>0.0</ele>
  <time>2026-09-02T22:07:48Z</time>
  <course>187.25</course>
  <speed>0.0</speed>
  <fix>3d</fix>
</trkpt>
<trkpt lat="33.810313" lon="-118.393867">
  <ele>-0.13</ele>
  <time>2026-09-02T22:07:48Z</time>
  <course>0.0</course>
  <speed>0.0</speed>
  <fix>3d</fix>
</trkpt>
<trkpt lat="33.810313" lon="-118.393867">
  <ele>0.0</ele>
  <time>2026-09-02T22:07:48Z</time>
  <course>187.32</course>
  <speed>0.0</speed>
  <fix>3d</fix>
</trkpt>
<trkpt lat="33.810313" lon="-118.393867">
  <ele>-0.13</ele>
  <time>2026-09-02T22:07:48Z</time>
  <course>0.0</course>
  <speed>0.0</speed>
  <fix>3d</fix>
</trkpt>
<trkpt lat="33.810313" lon="-118.393867">
  <ele>0.0</ele>
  <time>2026-09-02T22:07:48Z</time>
  <course>187.39</course>
  <speed>0.0</speed>
  <fix>3d</fix>
</trkpt>
<trkpt lat="33.810313" lon="-118.393867">
  <ele>-0.13</ele>
  <time>2026-09-02T22:07:48Z</time>
  <course>0.0</course>
  <speed>0.0</speed>
  <fix>3d</fix>
</trkpt>
<trkpt lat="33.810313" lon="-118.393867">
  <ele>0.0</ele>
  <time>2026-09-02T22:07:48Z</time>
  <course>187.46</course>
  <speed>0.0</speed>
  <fix>3d</fix>
</trkpt>
<trkpt lat="33.810313" lon="-118.393867">
  <ele>-0.13</ele>
  <time>2026-09-02T22:07:48Z</time>
  <course>0.0</course>
  <speed>0.0</speed>
  <fix>3d</fix>
</trkpt>
<trkpt lat="33.810313" lon="-118.393867">
  <ele>0.0</ele>
  <time>2026-09-02T22:07:48Z</time>
  <course>187.53</course>
  <speed>0.0</speed>
  <fix>3d</fix>
</trkpt>
<trkpt lat="33.810313" lon="-118.393867">
  <ele>-0.13</ele>
  <time>2026-09-02T22:07:48Z</time>
  <course>0.0</course>
  <speed>0.0</speed>
  <fix>3d</fix>
</trkpt>
<trkpt lat="33.810313" lon="-118.393867">
  <ele>0.0</ele>
  <time>2026-09-02T22:07:48Z</time>
  <course>187.59</course>
  <speed>0.0</speed>
  <fix>3d</fix>
</trkpt>
<trkpt lat="33.810313" lon="-118.393867">
  <ele>-0.13</ele>
  <time>2026-09-02T22:07:48Z</time>
  <course>0.0</course>
  <speed>0.0</speed>
  <fix>3d</fix>
</trkpt>
<trkpt lat="33.810313" lon="-118.393867">
  <ele>0.0</ele>
  <time>2026-09-02T22:07:48Z</time>
  <course>187.65</course>
  <speed>0.0</speed>
  <fix>3d</fix>
</trkpt>
<trkpt lat="33.810313" lon="-118.393867">
  <ele>-0.12</ele>
  <time>2026-09-02T22:07:48Z</time>
  <course>0.0</course>
  <speed>0.0</speed>
  <fix>3d</fix>
</trkpt>
<trkpt lat="33.810313" lon="-118.393867">
  <ele>0.0</ele>
  <time>2026-09-02T22:07:48Z</time>
  <course>187.71</course>
  <speed>0.0</speed>
  <fix>3d</fix>
</trkpt>
<trkpt lat="33.810313" lon="-118.393867">
  <ele>-0.12</ele>
  <time>2026-09-02T22:07:48Z</time>
  <course>0.0</course>
  <speed>0.0</speed>
  <fix>3d</fix>
</trkpt>
<trkpt lat="33.810313" lon="-118.393867">
  <ele>0.0</ele>
  <time>2026-09-02T22:07:48Z</time>
  <course>187.76</course>
  <speed>0.0</speed>
  <fix>3d</fix>
</trkpt>
<trkpt lat="33.810313" lon="-118.393867">
  <ele>-0.12</ele>
  <time>2026-09-02T22:07:48Z</time>
  <course>0.0</course>
  <speed>0.0</speed>
  <fix>3d</fix>
</trkpt>
<trkpt lat="33.810313" lon="-118.393867">
  <ele>0.0</ele>
  <time>2026-09-02T22:07:48Z</time>
  <course>187.81</course>
  <speed>0.0</speed>
  <fix>3d</fix>
</trkpt>
<trkpt lat="33.810313" lon="-118.393867">
  <ele>-0.12</ele>
  <time>2026-09-02T22:07:48Z</time>
  <course>0.0</course>
  <speed>0.0</speed>
  <fix>3d</fix>
</trkpt>
<trkpt lat="33.810313" lon="-118.393867">
  <ele>0.0</ele>
  <time>2026-09-02T22:07:48Z</time>
  <course>187.86</course>
  <speed>0.0</speed>
  <fix>3d</fix>
</trkpt>
<trkpt lat="33.810313" lon="-118.393867">
  <ele>-0.12</ele>
  <time>2026-09-02T22:07:48Z</time>
  <course>0.0</course>
  <speed>0.0</speed>
  <fix>3d</fix>
</trkpt>
<trkpt lat="33.810313" lon="-118.393867">
  <ele>0.0</ele>
  <time>2026-09-02T22:07:48Z</time>
  <course>187.9</course>
  <speed>0.0</speed>
  <fix>3d</fix>
</trkpt>
<trkpt lat="33.810313" lon="-118.393867">
  <ele>-0.12</ele>
  <time>2026-09-02T22:07:48Z</time>
  <course>0.0</course>
  <speed>0.0</speed>
  <fix>3d</fix>
</trkpt>
<trkpt lat="33.810313" lon="-118.393867">
  <ele>0.0</ele>
  <time>2026-09-02T22:07:48Z</time>
  <course>187.95</course>
  <speed>0.0</speed>
  <fix>3d</fix>
</trkpt>
<trkpt lat="33.810313" lon="-118.393867">
  <ele>-0.12</ele>
  <time>2026-09-02T22:07:48Z</time>
  <course>0.0</course>
  <speed>0.0</speed>
  <fix>3d</fix>
</trkpt>
<trkpt lat="33.810313" lon="-118.393867">
  <ele>0.0</ele>
  <time>2026-09-02T22:07:48Z</time>
  <course>187.99</course>
  <speed>0.0</speed>
  <fix>3d</fix>
</trkpt>
<trkpt lat="33.810313" lon="-118.393867">
  <ele>-0.12</ele>
  <time>2026-09-02T22:07:48Z</time>
  <course>0.0</course>
  <speed>0.0</speed>
  <fix>3d</fix>
</trkpt>
<trkpt lat="33.810313" lon="-118.393867">
  <ele>0.0</ele>
  <time>2026-09-02T22:07:48Z</time>
  <course>188.03</course>
  <speed>0.0</speed>
  <fix>3d</fix>
</trkpt>
<trkpt lat="33.810313" lon="-118.393867">
  <ele>-0.12</ele>
  <time>2026-09-02T22:07:48Z</time>
  <course>0.0</course>
  <speed>0.0</speed>
  <fix>3d</fix>
</trkpt>
<trkpt lat="33.810313" lon="-118.393867">
  <ele>0.0</ele>
  <time>2026-09-02T22:07:48Z</time>
  <course>188.06</course>
  <speed>0.0</speed>
  <fix>3d</fix>
</trkpt>
<trkpt lat="33.810313" lon="-118.393867">
  <ele>-0.12</ele>
  <time>2026-09-02T22:07:48Z</time>
  <course>0.0</course>
  <speed>0.0</speed>
  <fix>3d</fix>
</trkpt>
<trkpt lat="33.810313" lon="-118.393867">
  <ele>0.0</ele>
  <time>2026-09-02T22:07:48Z</time>
  <course>188.1</course>
  <speed>0.0</speed>
  <fix>3d</fix>
</trkpt>
<trkpt lat="33.810313" lon="-118.393867">
  <ele>-0.13</ele>
  <time>2026-09-02T22:07:48Z</time>
  <course>0.0</course>
  <speed>0.0</speed>
  <fix>3d</fix>
</trkpt>
<trkpt lat="33.810313" lon="-118.393867">
  <ele>0.0</ele>
  <time>2026-09-02T22:07:48Z</time>
  <course>188.13</course>
  <speed>0.0</speed>
  <fix>3d</fix>
</trkpt>
<trkpt lat="33.810313" lon="-118.393867">
  <ele>-0.13</ele>
  <time>2026-09-02T22:07:48Z</time>
  <course>0.0</course>
  <speed>0.0</speed>
  <fix>3d</fix>
</trkpt>
<trkpt lat="33.810313" lon="-118.393867">
  <ele>0.0</ele>
  <time>2026-09-02T22:07:48Z</time>
  <course>188.17</course>
  <speed>0.0</speed>
  <fix>3d</fix>
</trkpt>
<trkpt lat="33.810313" lon="-118.393867">
  <ele>-0.13</ele>
  <time>2026-09-02T22:07:48Z</time>
  <course>0.0</course>
  <speed>0.0</speed>
  <fix>3d</fix>
</trkpt>
<trkpt lat="33.810313" lon="-118.393867">
  <ele>0.0</ele>
  <time>2026-09-02T22:07:48Z</time>
  <course>188.19</course>
  <speed>0.0</speed>
  <fix>3d</fix>
</trkpt>
<trkpt lat="33.810313" lon="-118.393867">
  <ele>-0.13</ele>
  <time>2026-09-02T22:07:48Z</time>
  <course>0.0</course>
  <speed>0.0</speed>
  <fix>3d</fix>
</trkpt>
<trkpt lat="33.810313" lon="-118.393867">
  <ele>0.0</ele>
  <time>2026-09-02T22:07:48Z</time>
  <course>188.22</course>
  <speed>0.0</speed>
  <fix>3d</fix>
</trkpt>
<trkpt lat="33.810313" lon="-118.393867">
  <ele>-0.13</ele>
  <time>2026-09-02T22:07:48Z</time>
  <course>0.0</course>
  <speed>0.0</speed>
  <fix>3d</fix>
</trkpt>
<trkpt lat="33.810313" lon="-118.393867">
  <ele>0.0</ele>
  <time>2026-09-02T22:07:48Z</time>
  <course>188.25</course>
  <speed>0.0</speed>
  <fix>3d</fix>
</trkpt>
<trkpt lat="33.810313" lon="-118.393867">
  <ele>-0.13</ele>
  <time>2026-09-02T22:07:48Z</time>
  <course>0.0</course>
  <speed>0.0</speed>
  <fix>3d</fix>
</trkpt>
<trkpt lat="33.810313" lon="-118.393867">
  <ele>0.0</ele>
  <time>2026-09-02T22:07:48Z</time>
  <course>188.27</course>
  <speed>0.0</speed>
  <fix>3d</fix>
</trkpt>
<trkpt lat="33.810313" lon="-118.393867">
  <ele>-0.12</ele>
  <time>2026-09-02T22:07:48Z</time>
  <course>0.0</course>
  <speed>0.0</speed>
  <fix>3d</fix>
</trkpt>
<trkpt lat="33.810313" lon="-118.393867">
  <ele>0.0</ele>
  <time>2026-09-02T22:07:48Z</time>
  <course>188.3</course>
  <speed>0.0</speed>
  <fix>3d</fix>
</trkpt>
<trkpt lat="33.810313" lon="-118.393867">
  <ele>-0.12</ele>
  <time>2026-09-02T22:07:48Z</time>
  <course>0.0</course>
  <speed>0.0</speed>
  <fix>3d</fix>
</trkpt>
<trkpt lat="33.810313" lon="-118.393867">
  <ele>0.0</ele>
  <time>2026-09-02T22:07:48Z</time>
  <course>188.32</course>
  <speed>0.0</speed>
  <fix>3d</fix>
</trkpt>
<trkpt lat="33.810313" lon="-118.393867">
  <ele>-0.12</ele>
  <time>2026-09-02T22:07:48Z</time>
  <course>0.0</course>
  <speed>0.0</speed>
  <fix>3d</fix>
</trkpt>
<trkpt lat="33.810313" lon="-118.393867">
  <ele>0.0</ele>
  <time>2026-09-02T22:07:48Z</time>
  <course>188.34</course>
  <speed>0.0</speed>
  <fix>3d</fix>
</trkpt>
<trkpt lat="33.810313" lon="-118.393867">
  <ele>-0.12</ele>
  <time>2026-09-02T22:07:48Z</time>
  <course>0.0</course>
  <speed>0.0</speed>
  <fix>3d</fix>
</trkpt>
<trkpt lat="33.810313" lon="-118.393867">
  <ele>0.0</ele>
  <time>2026-09-02T22:07:48Z</time>
  <course>188.36</course>
  <speed>0.0</speed>
  <fix>3d</fix>
</trkpt>
<trkpt lat="33.810313" lon="-118.393867">
  <ele>-0.12</ele>
  <time>2026-09-02T22:07:48Z</time>
  <course>0.0</course>
  <speed>0.0</speed>
  <fix>3d</fix>
</trkpt>
<trkpt lat="33.810313" lon="-118.393867">
  <ele>0.0</ele>
  <time>2026-09-02T22:07:48Z</time>
  <course>188.38</course>
  <speed>0.0</speed>
  <fix>3d</fix>
</trkpt>
<trkpt lat="33.810313" lon="-118.393867">
  <ele>-0.12</ele>
  <time>2026-09-02T22:07:48Z</time>
  <course>0.0</course>
  <speed>0.0</speed>
  <fix>3d</fix>
</trkpt>
<trkpt lat="33.810313" lon="-118.393867">
  <ele>0.0</ele>
  <time>2026-09-02T22:07:48Z</time>
  <course>188.39</course>
  <speed>0.0</speed>
  <fix>3d</fix>
</trkpt>
<trkpt lat="33.810313" lon="-118.393867">
  <ele>-0.12</ele>
  <time>2026-09-02T22:07:48Z</time>
  <course>0.0</course>
  <speed>0.0</speed>
  <fix>3d</fix>
</trkpt>
<trkpt lat="33.810313" lon="-118.393867">
  <ele>0.0</ele>
  <time>2026-09-02T22:07:48Z</time>
  <course>188.41</course>
  <speed>0.0</speed>
  <fix>3d</fix>
</trkpt>
<trkpt lat="33.810313" lon="-118.393867">
  <ele>-0.12</ele>
  <time>2026-09-02T22:07:48Z</time>
  <course>0.0</course>
  <speed>0.0</speed>
  <fix>3d</fix>
</trkpt>
<trkpt lat="33.810313" lon="-118.393867">
  <ele>0.0</ele>
  <time>2026-09-02T22:07:48Z</time>
  <course>188.43</course>
  <speed>0.0</speed>
  <fix>3d</fix>
</trkpt>
<trkpt lat="33.810313" lon="-118.393867">
  <ele>-0.12</ele>
  <time>2026-09-02T22:07:48Z</time>
  <course>0.0</course>
  <speed>0.0</speed>
  <fix>3d</fix>
</trkpt>
<trkpt lat="33.810313" lon="-118.393867">
  <ele>0.0</ele>
  <time>2026-09-02T22:07:48Z</time>
  <course>188.44</course>
  <speed>0.0</speed>
  <fix>3d</fix>
</trkpt>
<trkpt lat="33.810313" lon="-118.393867">
  <ele>-0.12</ele>
  <time>2026-09-02T22:07:48Z</time>
  <course>0.0</course>
  <speed>0.0</speed>
  <fix>3d</fix>
</trkpt>
<trkpt lat="33.810313" lon="-118.393867">
  <ele>0.0</ele>
  <time>2026-09-02T22:07:48Z</time>
  <course>188.45</course>
  <speed>0.0</speed>
  <fix>3d</fix>
</trkpt>
<trkpt lat="33.810313" lon="-118.393867">
  <ele>-0.13</ele>
  <time>2026-09-02T22:07:48Z</time>
  <course>0.0</course>
  <speed>0.0</speed>
  <fix>3d</fix>
</trkpt>
<trkpt lat="33.810313" lon="-118.393867">
  <ele>0.0</ele>
  <time>2026-09-02T22:07:48Z</time>
  <course>188.46</course>
  <speed>0.0</speed>
  <fix>3d</fix>
</trkpt>
<trkpt lat="33.810313" lon="-118.393867">
  <ele>-0.13</ele>
  <time>2026-09-02T22:07:48Z</time>
  <course>0.0</course>
  <speed>0.0</speed>
  <fix>3d</fix>
</trkpt>
<trkpt lat="33.810313" lon="-118.393867">
  <ele>0.0</ele>
  <time>2026-09-02T22:07:48Z</time>
  <course>188.48</course>
  <speed>0.0</speed>
  <fix>3d</fix>
</trkpt>
<trkpt lat="33.810313" lon="-118.393867">
  <ele>-0.13</ele>
  <time>2026-09-02T22:07:48Z</time>
  <course>0.0</course>
  <speed>0.0</speed>
  <fix>3d</fix>
</trkpt>
<trkpt lat="33.810313" lon="-118.393867">
  <ele>0.0</ele>
  <time>2026-09-02T22:07:48Z</time>
  <course>188.49</course>
  <speed>0.0</speed>
  <fix>3d</fix>
</trkpt>
<trkpt lat="33.810313" lon="-118.393867">
  <ele>-0.13</ele>
  <time>2026-09-02T22:07:48Z</time>
  <course>0.0</course>
  <speed>0.0</speed>
  <fix>3d</fix>
</trkpt>
<trkpt lat="33.810313" lon="-118.393867">
  <ele>0.0</ele>
  <time>2026-09-02T22:07:48Z</time>
  <course>188.49</course>
  <speed>0.0</speed>
  <fix>3d</fix>
</trkpt>
<trkpt lat="33.810313" lon="-118.393867">
  <ele>-0.13</ele>
  <time>2026-09-02T22:07:48Z</time>
  <course>0.0</course>
  <speed>0.0</speed>
  <fix>3d</fix>
</trkpt>
<trkpt lat="33.810313" lon="-118.393867">
  <ele>0.0</ele>
  <time>2026-09-02T22:07:48Z</time>
  <course>188.5</course>
  <speed>0.0</speed>
  <fix>3d</fix>
</trkpt>
<trkpt lat="33.810313" lon="-118.393867">
  <ele>-0.13</ele>
  <time>2026-09-02T22:07:48Z</time>
  <course>0.0</course>
  <speed>0.0</speed>
  <fix>3d</fix>
</trkpt>
<trkpt lat="33.810313" lon="-118.393867">
  <ele>0.0</ele>
  <time>2026-09-02T22:07:48Z</time>
  <course>188.51</course>
  <speed>0.0</speed>
  <fix>3d</fix>
</trkpt>
<trkpt lat="33.810313" lon="-118.393867">
  <ele>-0.12</ele>
  <time>2026-09-02T22:07:48Z</time>
  <course>0.0</course>
  <speed>0.0</speed>
  <fix>3d</fix>
</trkpt>
<trkpt lat="33.810313" lon="-118.393867">
  <ele>0.0</ele>
  <time>2026-09-02T22:07:48Z</time>
  <course>188.52</course>
  <speed>0.0</speed>
  <fix>3d</fix>
</trkpt>
<trkpt lat="33.810313" lon="-118.393867">
  <ele>-0.12</ele>
  <time>2026-09-02T22:07:48Z</time>
  <course>0.0</course>
  <speed>0.0</speed>
  <fix>3d</fix>
</trkpt>
<trkpt lat="33.810313" lon="-118.393867">
  <ele>0.0</ele>
  <time>2026-09-02T22:07:48Z</time>
  <course>188.53</course>
  <speed>0.0</speed>
  <fix>3d</fix>
</trkpt>
<trkpt lat="33.810313" lon="-118.393867">
  <ele>-0.12</ele>
  <time>2026-09-02T22:07:48Z</time>
  <course>0.0</course>
  <speed>0.0</speed>
  <fix>3d</fix>
</trkpt>
<trkpt lat="33.810313" lon="-118.393867">
  <ele>0.0</ele>
  <time>2026-09-02T22:07:48Z</time>
  <course>188.53</course>
  <speed>0.0</speed>
  <fix>3d</fix>
</trkpt>
<trkpt lat="33.810313" lon="-118.393867">
  <ele>-0.12</ele>
  <time>2026-09-02T22:07:48Z</time>
  <course>0.0</course>
  <speed>0.0</speed>
  <fix>3d</fix>
</trkpt>
<trkpt lat="33.810313" lon="-118.393867">
  <ele>0.0</ele>
  <time>2026-09-02T22:07:48Z</time>
  <course>188.54</course>
  <speed>0.0</speed>
  <fix>3d</fix>
</trkpt>
<trkpt lat="33.810313" lon="-118.393867">
  <ele>-0.12</ele>
  <time>2026-09-02T22:07:48Z</time>
  <course>0.0</course>
  <speed>0.0</speed>
  <fix>3d</fix>
</trkpt>
<trkpt lat="33.810313" lon="-118.393867">
  <ele>0.0</ele>
  <time>2026-09-02T22:07:48Z</time>
  <course>188.54</course>
  <speed>0.0</speed>
  <fix>3d</fix>
</trkpt>
<trkpt lat="33.810313" lon="-118.393867">
  <ele>-0.12</ele>
  <time>2026-09-02T22:07:48Z</time>
  <course>0.0</course>
  <speed>0.0</speed>
  <fix>3d</fix>
</trkpt>
<trkpt lat="33.810313" lon="-118.393867">
  <ele>0.0</ele>
  <time>2026-09-02T22:07:48Z</time>
  <course>188.54</course>
  <speed>0.0</speed>
  <fix>3d</fix>
</trkpt>
<trkpt lat="33.810313" lon="-118.393867">
  <ele>-0.12</ele>
  <time>2026-09-02T22:07:48Z</time>
  <course>0.0</course>
  <speed>0.0</speed>
  <fix>3d</fix>
</trkpt>
<trkpt lat="33.810313" lon="-118.393867">
  <ele>0.0</ele>
  <time>2026-09-02T22:07:48Z</time>
  <course>188.55</course>
  <speed>0.0</speed>
  <fix>3d</fix>
</trkpt>
<trkpt lat="33.810313" lon="-118.393867">
  <ele>-0.12</ele>
  <time>2026-09-02T22:07:48Z</time>
  <course>0.0</course>
  <speed>0.0</speed>
  <fix>3d</fix>
</trkpt>
<trkpt lat="33.810313" lon="-118.393867">
  <ele>0.0</ele>
  <time>2026-09-02T22:07:48Z</time>
  <course>188.55</course>
  <speed>0.0</speed>
  <fix>3d</fix>
</trkpt>
<trkpt lat="33.810313" lon="-118.393867">
  <ele>-0.12</ele>
  <time>2026-09-02T22:07:48Z</time>
  <course>0.0</course>
  <speed>0.0</speed>
  <fix>3d</fix>
</trkpt>
<trkpt lat="33.810313" lon="-118.393867">
  <ele>0.0</ele>
  <time>2026-09-02T22:07:48Z</time>
  <course>188.55</course>
  <speed>0.0</speed>
  <fix>3d</fix>
</trkpt>
<trkpt lat="33.810313" lon="-118.393867">
  <ele>-0.12</ele>
  <time>2026-09-02T22:07:48Z</time>
  <course>0.0</course>
  <speed>0.0</speed>
  <fix>3d</fix>
</trkpt>
<trkpt lat="33.810313" lon="-118.393867">
  <ele>-0.124</ele>
  <time>2026-09-02T22:07:48Z</time>
  <course>188.55</course>
  <speed>0.0</speed>
  <fix>3d</fix>
</trkpt>
<trkpt lat="33.810313" lon="-118.393867">
  <ele>-0.13</ele>
  <time>2026-09-02T22:07:48Z</time>
  <course>0.0</course>
  <speed>0.0</speed>
  <fix>3d</fix>
</trkpt>
<trkpt lat="33.810313" lon="-118.393867">
  <ele>-0.124</ele>
  <time>2026-09-02T22:07:48Z</time>
  <course>188.56</course>
  <speed>0.0</speed>
  <fix>3d</fix>
</trkpt>
<trkpt lat="33.810313" lon="-118.393867">
  <ele>-0.13</ele>
  <time>2026-09-02T22:07:48Z</time>
  <course>0.0</course>
  <speed>0.0</speed>
  <fix>3d</fix>
</trkpt>
<trkpt lat="33.810313" lon="-118.393867">
  <ele>-0.124</ele>
  <time>2026-09-02T22:07:48Z</time>
  <course>188.56</course>
  <speed>0.0</speed>
  <fix>3d</fix>
</trkpt>
<trkpt lat="33.810313" lon="-118.393867">
  <ele>-0.13</ele>
  <time>2026-09-02T22:07:48Z</time>
  <course>0.0</course>
  <speed>0.0</speed>
  <fix>3d</fix>
</trkpt>
<trkpt lat="33.810313" lon="-118.393867">
  <ele>-0.123</ele>
  <time>2026-09-02T22:07:48Z</time>
  <course>188.56</course>
  <speed>0.0</speed>
  <fix>3d</fix>
</trkpt>
<trkpt lat="33.810313" lon="-118.393867">
  <ele>-0.13</ele>
  <time>2026-09-02T22:07:48Z</time>
  <course>0.0</course>
  <speed>0.0</speed>
  <fix>3d</fix>
</trkpt>
<trkpt lat="33.810313" lon="-118.393867">
  <ele>-0.123</ele>
  <time>2026-09-02T22:07:48Z</time>
  <course>188.56</course>
  <speed>0.0</speed>
  <fix>3d</fix>
</trkpt>
<trkpt lat="33.810313" lon="-118.393867">
  <ele>-0.12</ele>
  <time>2026-09-02T22:07:48Z</time>
  <course>0.0</course>
  <speed>0.0</speed>
  <fix>3d</fix>
</trkpt>
<trkpt lat="33.810313" lon="-118.393867">
  <ele>-0.121</ele>
  <time>2026-09-02T22:07:48Z</time>
  <course>188.56</course>
  <speed>0.0</speed>
  <fix>3d</fix>
</trkpt>
<trkpt lat="33.810313" lon="-118.393867">
  <ele>-0.12</ele>
  <time>2026-09-02T22:07:48Z</time>
  <course>0.0</course>
  <speed>0.0</speed>
  <fix>3d</fix>
</trkpt>
<trkpt lat="33.810313" lon="-118.393867">
  <ele>-0.12</ele>
  <time>2026-09-02T22:07:48Z</time>
  <course>188.56</course>
  <speed>0.0</speed>
  <fix>3d</fix>
</trkpt>
<trkpt lat="33.810313" lon="-118.393867">
  <ele>-0.12</ele>
  <time>2026-09-02T22:07:48Z</time>
  <course>0.0</course>
  <speed>0.0</speed>
  <fix>3d</fix>
</trkpt>
<trkpt lat="33.810313" lon="-118.393867">
  <ele>-0.12</ele>
  <time>2026-09-02T22:07:48Z</time>
  <course>188.56</course>
  <speed>0.0</speed>
  <fix>3d</fix>
</trkpt>
<trkpt lat="33.810313" lon="-118.393867">
  <ele>-0.12</ele>
  <time>2026-09-02T22:07:48Z</time>
  <course>0.0</course>
  <speed>0.0</speed>
  <fix>3d</fix>
</trkpt>
<trkpt lat="33.810313" lon="-118.393867">
  <ele>-0.121</ele>
  <time>2026-09-02T22:07:48Z</time>
  <course>188.55</course>
  <speed>0.0</speed>
  <fix>3d</fix>
</trkpt>
<trkpt lat="33.810313" lon="-118.393867">
  <ele>-0.12</ele>
  <time>2026-09-02T22:07:48Z</time>
  <course>0.0</course>
  <speed>0.0</speed>
  <fix>3d</fix>
</trkpt>
<trkpt lat="33.810313" lon="-118.393867">
  <ele>-0.123</ele>
  <time>2026-09-02T22:07:48Z</time>
  <course>188.55</course>
  <speed>0.0</speed>
  <fix>3d</fix>
</trkpt>
<trkpt lat="33.810313" lon="-118.393867">
  <ele>-0.12</ele>
  <time>2026-09-02T22:07:48Z</time>
  <course>0.0</course>
  <speed>0.0</speed>
  <fix>3d</fix>
</trkpt>
<trkpt lat="33.810313" lon="-118.393867">
  <ele>-0.124</ele>
  <time>2026-09-02T22:07:48Z</time>
  <course>188.55</course>
  <speed>0.0</speed>
  <fix>3d</fix>
</trkpt>
<trkpt lat="33.810313" lon="-118.393867">
  <ele>-0.12</ele>
  <time>2026-09-02T22:07:48Z</time>
  <course>0.0</course>
  <speed>0.0</speed>
  <fix>3d</fix>
</trkpt>
<trkpt lat="33.810313" lon="-118.393867">
  <ele>-0.127</ele>
  <time>2026-09-02T22:07:48Z</time>
  <course>188.55</course>
  <speed>0.0</speed>
  <fix>3d</fix>
</trkpt>
<trkpt lat="33.810313" lon="-118.393867">
  <ele>-0.12</ele>
  <time>2026-09-02T22:07:48Z</time>
  <course>0.0</course>
  <speed>0.0</speed>
  <fix>3d</fix>
</trkpt>
<trkpt lat="33.810313" lon="-118.393867">
  <ele>-0.128</ele>
  <time>2026-09-02T22:07:48Z</time>
  <course>188.55</course>
  <speed>0.0</speed>
  <fix>3d</fix>
</trkpt>
<trkpt lat="33.810313" lon="-118.393867">
  <ele>-0.12</ele>
  <time>2026-09-02T22:07:48Z</time>
  <course>0.0</course>
  <speed>0.0</speed>
  <fix>3d</fix>
</trkpt>
<trkpt lat="33.810313" lon="-118.393867">
  <ele>-0.128</ele>
  <time>2026-09-02T22:07:48Z</time>
  <course>188.55</course>
  <speed>0.0</speed>
  <fix>3d</fix>
</trkpt>
<trkpt lat="33.810313" lon="-118.393867">
  <ele>-0.12</ele>
  <time>2026-09-02T22:07:48Z</time>
  <course>0.0</course>
  <speed>0.0</speed>
  <fix>3d</fix>
</trkpt>
<trkpt lat="33.810313" lon="-118.393867">
  <ele>-0.127</ele>
  <time>2026-09-02T22:07:48Z</time>
  <course>188.55</course>
  <speed>0.0</speed>
  <fix>3d</fix>
</trkpt>
<trkpt lat="33.810313" lon="-118.393867">
  <ele>-0.12</ele>
  <time>2026-09-02T22:07:48Z</time>
  <course>0.0</course>
  <speed>0.0</speed>
  <fix>3d</fix>
</trkpt>
<trkpt lat="33.810313" lon="-118.393867">
  <ele>-0.126</ele>
  <time>2026-09-02T22:07:48Z</time>
  <course>188.55</course>
  <speed>0.0</speed>
  <fix>3d</fix>
</trkpt>
<trkpt lat="33.810313" lon="-118.393867">
  <ele>-0.12</ele>
  <time>2026-09-02T22:07:48Z</time>
  <course>0.0</course>
  <speed>0.0</speed>
  <fix>3d</fix>
</trkpt>
<trkpt lat="33.810313" lon="-118.393867">
  <ele>-0.124</ele>
  <time>2026-09-02T22:07:48Z</time>
  <course>188.54</course>
  <speed>0.0</speed>
  <fix>3d</fix>
</trkpt>
<trkpt lat="33.810313" lon="-118.393867">
  <ele>-0.13</ele>
  <time>2026-09-02T22:07:48Z</time>
  <course>0.0</course>
  <speed>0.0</speed>
  <fix>3d</fix>
</trkpt>
<trkpt lat="33.810313" lon="-118.393867">
  <ele>-0.122</ele>
  <time>2026-09-02T22:07:48Z</time>
  <course>188.54</course>
  <speed>0.0</speed>
  <fix>3d</fix>
</trkpt>
<trkpt lat="33.810313" lon="-118.393867">
  <ele>-0.13</ele>
  <time>2026-09-02T22:07:48Z</time>
  <course>0.0</course>
  <speed>0.0</speed>
  <fix>3d</fix>
</trkpt>
<trkpt lat="33.810313" lon="-118.393867">
  <ele>-0.119</ele>
  <time>2026-09-02T22:07:48Z</time>
  <course>188.53</course>
  <speed>0.0</speed>
  <fix>3d</fix>
</trkpt>
<trkpt lat="33.810313" lon="-118.393867">
  <ele>-0.12</ele>
  <time>2026-09-02T22:07:48Z</time>
  <course>0.0</course>
  <speed>0.0</speed>
  <fix>3d</fix>
</trkpt>
<trkpt lat="33.810313" lon="-118.393867">
  <ele>-0.115</ele>
  <time>2026-09-02T22:07:48Z</time>
  <course>188.53</course>
  <speed>0.0</speed>
  <fix>3d</fix>
</trkpt>
<trkpt lat="33.810313" lon="-118.393867">
  <ele>-0.12</ele>
  <time>2026-09-02T22:07:48Z</time>
  <course>0.0</course>
  <speed>0.0</speed>
  <fix>3d</fix>
</trkpt>
<trkpt lat="33.810313" lon="-118.393867">
  <ele>-0.112</ele>
  <time>2026-09-02T22:07:48Z</time>
  <course>188.52</course>
  <speed>0.0</speed>
  <fix>3d</fix>
</trkpt>
<trkpt lat="33.810313" lon="-118.393867">
  <ele>-0.12</ele>
  <time>2026-09-02T22:07:48Z</time>
  <course>0.0</course>
  <speed>0.0</speed>
  <fix>3d</fix>
</trkpt>
<trkpt lat="33.810313" lon="-118.393867">
  <ele>-0.111</ele>
  <time>2026-09-02T22:07:48Z</time>
  <course>188.52</course>
  <speed>0.0</speed>
  <fix>3d</fix>
</trkpt>
<trkpt lat="33.810313" lon="-118.393867">
  <ele>-0.12</ele>
  <time>2026-09-02T22:07:48Z</time>
  <course>0.0</course>
  <speed>0.0</speed>
  <fix>3d</fix>
</trkpt>
<trkpt lat="33.810313" lon="-118.393867">
  <ele>-0.113</ele>
  <time>2026-09-02T22:07:48Z</time>
  <course>188.51</course>
  <speed>0.0</speed>
  <fix>3d</fix>
</trkpt>
<trkpt lat="33.810313" lon="-118.393867">
  <ele>-0.12</ele>
  <time>2026-09-02T22:07:48Z</time>
  <course>0.0</course>
  <speed>0.0</speed>
  <fix>3d</fix>
</trkpt>
<trkpt lat="33.810313" lon="-118.393867">
  <ele>-0.115</ele>
  <time>2026-09-02T22:07:48Z</time>
  <course>188.51</course>
  <speed>0.0</speed>
  <fix>3d</fix>
</trkpt>
<trkpt lat="33.810313" lon="-118.393867">
  <ele>-0.12</ele>
  <time>2026-09-02T22:07:48Z</time>
  <course>0.0</course>
  <speed>0.0</speed>
  <fix>3d</fix>
</trkpt>
<trkpt lat="33.810313" lon="-118.393867">
  <ele>-0.117</ele>
  <time>2026-09-02T22:07:48Z</time>
  <course>188.5</course>
  <speed>0.0</speed>
  <fix>3d</fix>
</trkpt>
<trkpt lat="33.810313" lon="-118.393867">
  <ele>-0.12</ele>
  <time>2026-09-02T22:07:48Z</time>
  <course>0.0</course>
  <speed>0.0</speed>
  <fix>3d</fix>
</trkpt>
<trkpt lat="33.810313" lon="-118.393867">
  <ele>-0.118</ele>
  <time>2026-09-02T22:07:48Z</time>
  <course>188.5</course>
  <speed>0.01</speed>
  <fix>3d</fix>
</trkpt>
<trkpt lat="33.810313" lon="-118.393867">
  <ele>-0.12</ele>
  <time>2026-09-02T22:07:48Z</time>
  <course>0.0</course>
  <speed>0.0</speed>
  <fix>3d</fix>
</trkpt>
<trkpt lat="33.810313" lon="-118.393867">
  <ele>-0.12</ele>
  <time>2026-09-02T22:07:48Z</time>
  <course>188.49</course>
  <speed>0.01</speed>
  <fix>3d</fix>
</trkpt>
<trkpt lat="33.810313" lon="-118.393867">
  <ele>-0.12</ele>
  <time>2026-09-02T22:07:48Z</time>
  <course>0.0</course>
  <speed>0.0</speed>
  <fix>3d</fix>
</trkpt>
<trkpt lat="33.810313" lon="-118.393867">
  <ele>-0.121</ele>
  <time>2026-09-02T22:07:48Z</time>
  <course>188.49</course>
  <speed>0.01</speed>
  <fix>3d</fix>
</trkpt>
<trkpt lat="33.810313" lon="-118.393867">
  <ele>-0.12</ele>
  <time>2026-09-02T22:07:48Z</time>
  <course>0.0</course>
  <speed>0.0</speed>
  <fix>3d</fix>
</trkpt>
<trkpt lat="33.810313" lon="-118.393867">
  <ele>-0.121</ele>
  <time>2026-09-02T22:07:48Z</time>
  <course>188.48</course>
  <speed>0.01</speed>
  <fix>3d</fix>
</trkpt>
<trkpt lat="33.810313" lon="-118.393867">
  <ele>-0.12</ele>
  <time>2026-09-02T22:07:48Z</time>
  <course>0.0</course>
  <speed>0.0</speed>
  <fix>3d</fix>
</trkpt>
<trkpt lat="33.810313" lon="-118.393867">
  <ele>-0.121</ele>
  <time>2026-09-02T22:07:48Z</time>
  <course>188.47</course>
  <speed>0.01</speed>
  <fix>3d</fix>
</trkpt>
<trkpt lat="33.810313" lon="-118.393867">
  <ele>-0.12</ele>
  <time>2026-09-02T22:07:48Z</time>
  <course>0.0</course>
  <speed>0.0</speed>
  <fix>3d</fix>
</trkpt>
<trkpt lat="33.810313" lon="-118.393867">
  <ele>-0.121</ele>
  <time>2026-09-02T22:07:48Z</time>
  <course>188.47</course>
  <speed>0.01</speed>
  <fix>3d</fix>
</trkpt>
<trkpt lat="33.810313" lon="-118.393867">
  <ele>-0.12</ele>
  <time>2026-09-02T22:07:48Z</time>
  <course>0.0</course>
  <speed>0.0</speed>
  <fix>3d</fix>
</trkpt>
<trkpt lat="33.810313" lon="-118.393867">
  <ele>-0.121</ele>
  <time>2026-09-02T22:07:48Z</time>
  <course>188.46</course>
  <speed>0.01</speed>
  <fix>3d</fix>
</trkpt>
<trkpt lat="33.810313" lon="-118.393867">
  <ele>-0.12</ele>
  <time>2026-09-02T22:07:48Z</time>
  <course>0.0</course>
  <speed>0.0</speed>
  <fix>3d</fix>
</trkpt>
<trkpt lat="33.810313" lon="-118.393867">
  <ele>-0.12</ele>
  <time>2026-09-02T22:07:48Z</time>
  <course>188.45</course>
  <speed>0.01</speed>
  <fix>3d</fix>
</trkpt>
<trkpt lat="33.810313" lon="-118.393867">
  <ele>-0.12</ele>
  <time>2026-09-02T22:07:48Z</time>
  <course>0.0</course>
  <speed>0.0</speed>
  <fix>3d</fix>
</trkpt>
<trkpt lat="33.810313" lon="-118.393867">
  <ele>-0.119</ele>
  <time>2026-09-02T22:07:48Z</time>
  <course>188.45</course>
  <speed>0.01</speed>
  <fix>3d</fix>
</trkpt>
<trkpt lat="33.810313" lon="-118.393867">
  <ele>-0.12</ele>
  <time>2026-09-02T22:07:48Z</time>
  <course>0.0</course>
  <speed>0.0</speed>
  <fix>3d</fix>
</trkpt>
<trkpt lat="33.810313" lon="-118.393867">
  <ele>-0.119</ele>
  <time>2026-09-02T22:07:48Z</time>
  <course>188.44</course>
  <speed>0.01</speed>
  <fix>3d</fix>
</trkpt>
<trkpt lat="33.810313" lon="-118.393867">
  <ele>-0.12</ele>
  <time>2026-09-02T22:07:48Z</time>
  <course>0.0</course>
  <speed>0.0</speed>
  <fix>3d</fix>
</trkpt>
<trkpt lat="33.810313" lon="-118.393867">
  <ele>-0.12</ele>
  <time>2026-09-02T22:07:48Z</time>
  <course>188.43</course>
  <speed>0.01</speed>
  <fix>3d</fix>
</trkpt>
<trkpt lat="33.810313" lon="-118.393867">
  <ele>-0.12</ele>
  <time>2026-09-02T22:07:48Z</time>
  <course>0.0</course>
  <speed>0.0</speed>
  <fix>3d</fix>
</trkpt>
<trkpt lat="33.810313" lon="-118.393867">
  <ele>-0.123</ele>
  <time>2026-09-02T22:07:48Z</time>
  <course>188.43</course>
  <speed>0.01</speed>
  <fix>3d</fix>
</trkpt>
<trkpt lat="33.810313" lon="-118.393867">
  <ele>-0.12</ele>
  <time>2026-09-02T22:07:48Z</time>
  <course>0.0</course>
  <speed>0.0</speed>
  <fix>3d</fix>
</trkpt>
<trkpt lat="33.810313" lon="-118.393867">
  <ele>-0.126</ele>
  <time>2026-09-02T22:07:48Z</time>
  <course>188.42</course>
  <speed>0.01</speed>
  <fix>3d</fix>
</trkpt>
<trkpt lat="33.810313" lon="-118.393867">
  <ele>-0.12</ele>
  <time>2026-09-02T22:07:48Z</time>
  <course>0.0</course>
  <speed>0.0</speed>
  <fix>3d</fix>
</trkpt>
<trkpt lat="33.810313" lon="-118.393867">
  <ele>-0.129</ele>
  <time>2026-09-02T22:07:48Z</time>
  <course>188.41</course>
  <speed>0.01</speed>
  <fix>3d</fix>
</trkpt>
<trkpt lat="33.810313" lon="-118.393867">
  <ele>-0.12</ele>
  <time>2026-09-02T22:07:48Z</time>
  <course>0.0</course>
  <speed>0.0</speed>
  <fix>3d</fix>
</trkpt>
<trkpt lat="33.810313" lon="-118.393867">
  <ele>-0.131</ele>
  <time>2026-09-02T22:07:48Z</time>
  <course>188.4</course>
  <speed>0.01414213562373095</speed>
  <fix>3d</fix>
</trkpt>
<trkpt lat="33.810313" lon="-118.393867">
  <ele>-0.12</ele>
  <time>2026-09-02T22:07:48Z</time>
  <course>0.0</course>
  <speed>0.0</speed>
  <fix>3d</fix>
</trkpt>
<trkpt lat="33.810313" lon="-118.393867">
  <ele>-0.131</ele>
  <time>2026-09-02T22:07:48Z</time>
  <course>188.4</course>
  <speed>0.01414213562373095</speed>
  <fix>3d</fix>
</trkpt>
<trkpt lat="33.810313" lon="-118.393867">
  <ele>-0.12</ele>
  <time>2026-09-02T22:07:48Z</time>
  <course>0.0</course>
  <speed>0.0</speed>
  <fix>3d</fix>
</trkpt>
<trkpt lat="33.810313" lon="-118.393867">
  <ele>-0.13</ele>
  <time>2026-09-02T22:07:48Z</time>
  <course>188.39</course>
  <speed>0.01414213562373095</speed>
  <fix>3d</fix>
</trkpt>
<trkpt lat="33.810313" lon="-118.393867">
  <ele>-0.12</ele>
  <time>2026-09-02T22:07:48Z</time>
  <course>0.0</course>
  <speed>0.0</speed>
  <fix>3d</fix>
</trkpt>
<trkpt lat="33.810313" lon="-118.393867">
  <ele>-0.127</ele>
  <time>2026-09-02T22:07:48Z</time>
  <course>188.38</course>
  <speed>0.01414213562373095</speed>
  <fix>3d</fix>
</trkpt>
<trkpt lat="33.810313" lon="-118.393867">
  <ele>-0.12</ele>
  <time>2026-09-02T22:07:48Z</time>
  <course>0.0</course>
  <speed>0.0</speed>
  <fix>3d</fix>
</trkpt>
<trkpt lat="33.810313" lon="-118.393867">
  <ele>-0.123</ele>
  <time>2026-09-02T22:07:48Z</time>
  <course>188.37</course>
  <speed>0.01414213562373095</speed>
  <fix>3d</fix>
</trkpt>
<trkpt lat="33.810313" lon="-118.393867">
  <ele>-0.12</ele>
  <time>2026-09-02T22:07:48Z</time>
  <course>0.0</course>
  <speed>0.0</speed>
  <fix>3d</fix>
</trkpt>
<trkpt lat="33.810313" lon="-118.393867">
  <ele>-0.12</ele>
  <time>2026-09-02T22:07:48Z</time>
  <course>188.37</course>
  <speed>0.01414213562373095</speed>
  <fix>3d</fix>
</trkpt>
<trkpt lat="33.810313" lon="-118.393867">
  <ele>-0.12</ele>
  <time>2026-09-02T22:07:48Z</time>
  <course>0.0</course>
  <speed>0.0</speed>
  <fix>3d</fix>
</trkpt>
<trkpt lat="33.810313" lon="-118.393867">
  <ele>-0.117</ele>
  <time>2026-09-02T22:07:48Z</time>
  <course>188.36</course>
  <speed>0.01414213562373095</speed>
  <fix>3d</fix>
</trkpt>
<trkpt lat="33.810313" lon="-118.393867">
  <ele>-0.12</ele>
  <time>2026-09-02T22:07:48Z</time>
  <course>0.0</course>
  <speed>0.0</speed>
  <fix>3d</fix>
</trkpt>
<trkpt lat="33.810313" lon="-118.393867">
  <ele>-0.114</ele>
  <time>2026-09-02T22:07:48Z</time>
  <course>188.35</course>
  <speed>0.01414213562373095</speed>
  <fix>3d</fix>
</trkpt>
<trkpt lat="33.810313" lon="-118.393867">
  <ele>-0.12</ele>
  <time>2026-09-02T22:07:48Z</time>
  <course>0.0</course>
  <speed>0.0</speed>
  <fix>3d</fix>
</trkpt>
<trkpt lat="33.810313" lon="-118.393867">
  <ele>-0.113</ele>
  <time>2026-09-02T22:07:48Z</time>
  <course>188.34</course>
  <speed>0.01414213562373095</speed>
  <fix>3d</fix>
</trkpt>
<trkpt lat="33.810313" lon="-118.393867">
  <ele>-0.12</ele>
  <time>2026-09-02T22:07:48Z</time>
  <course>0.0</course>
  <speed>0.0</speed>
  <fix>3d</fix>
</trkpt>
<trkpt lat="33.810313" lon="-118.393867">
  <ele>-0.113</ele>
  <time>2026-09-02T22:07:48Z</time>
  <course>188.34</course>
  <speed>0.01414213562373095</speed>
  <fix>3d</fix>
</trkpt>
<trkpt lat="33.810313" lon="-118.393867">
  <ele>-0.12</ele>
  <time>2026-09-02T22:07:48Z</time>
  <course>0.0</course>
  <speed>0.0</speed>
  <fix>3d</fix>
</trkpt>
<trkpt lat="33.810313" lon="-118.393867">
  <ele>-0.115</ele>
  <time>2026-09-02T22:07:48Z</time>
  <course>188.33</course>
  <speed>0.01414213562373095</speed>
  <fix>3d</fix>
</trkpt>
<trkpt lat="33.810313" lon="-118.393867">
  <ele>-0.12</ele>
  <time>2026-09-02T22:07:48Z</time>
  <course>0.0</course>
  <speed>0.0</speed>
  <fix>3d</fix>
</trkpt>
<trkpt lat="33.810313" lon="-118.393867">
  <ele>-0.116</ele>
  <time>2026-09-02T22:07:48Z</time>
  <course>188.32</course>
  <speed>0.01414213562373095</speed>
  <fix>3d</fix>
</trkpt>
<trkpt lat="33.810313" lon="-118.393867">
  <ele>-0.12</ele>
  <time>2026-09-02T22:07:48Z</time>
  <course>0.0</course>
  <speed>0.0</speed>
  <fix>3d</fix>
</trkpt>
<trkpt lat="33.810313" lon="-118.393867">
  <ele>-0.118</ele>
  <time>2026-09-02T22:07:48Z</time>
  <course>188.31</course>
  <speed>0.01414213562373095</speed>
  <fix>3d</fix>
</trkpt>
<trkpt lat="33.810313" lon="-118.393867">
  <ele>-0.12</ele>
  <time>2026-09-02T22:07:48Z</time>
  <course>0.0</course>
  <speed>0.0</speed>
  <fix>3d</fix>
</trkpt>
<trkpt lat="33.810313" lon="-118.393867">
  <ele>-0.118</ele>
  <time>2026-09-02T22:07:48Z</time>
  <course>188.3</course>
  <speed>0.01414213562373095</speed>
  <fix>3d</fix>
</trkpt>
<trkpt lat="33.810313" lon="-118.393867">
  <ele>-0.12</ele>
  <time>2026-09-02T22:07:48Z</time>
  <course>0.0</course>
  <speed>0.0</speed>
  <fix>3d</fix>
</trkpt>
<trkpt lat="33.810313" lon="-118.393867">
  <ele>-0.117</ele>
  <time>2026-09-02T22:07:48Z</time>
  <course>188.3</course>
  <speed>0.01414213562373095</speed>
  <fix>3d</fix>
</trkpt>
<trkpt lat="33.810313" lon="-118.393867">
  <ele>-0.12</ele>
  <time>2026-09-02T22:07:48Z</time>
  <course>0.0</course>
  <speed>0.0</speed>
  <fix>3d</fix>
</trkpt>
<trkpt lat="33.810313" lon="-118.393867">
  <ele>-0.115</ele>
  <time>2026-09-02T22:07:48Z</time>
  <course>188.29</course>
  <speed>0.01414213562373095</speed>
  <fix>3d</fix>
</trkpt>
<trkpt lat="33.810313" lon="-118.393867">
  <ele>-0.12</ele>
  <time>2026-09-02T22:07:48Z</time>
  <course>0.0</course>
  <speed>0.0</speed>
  <fix>3d</fix>
</trkpt>
<trkpt lat="33.810313" lon="-118.393867">
  <ele>-0.114</ele>
  <time>2026-09-02T22:07:48Z</time>
  <course>188.28</course>
  <speed>0.01414213562373095</speed>
  <fix>3d</fix>
</trkpt>
<trkpt lat="33.810313" lon="-118.393867">
  <ele>-0.12</ele>
  <time>2026-09-02T22:07:48Z</time>
  <course>0.0</course>
  <speed>0.0</speed>
  <fix>3d</fix>
</trkpt>
<trkpt lat="33.810313" lon="-118.393867">
  <ele>-0.112</ele>
  <time>2026-09-02T22:07:48Z</time>
  <course>188.27</course>
  <speed>0.01414213562373095</speed>
  <fix>3d</fix>
</trkpt>
<trkpt lat="33.810313" lon="-118.393867">
  <ele>-0.12</ele>
  <time>2026-09-02T22:07:48Z</time>
  <course>0.0</course>
  <speed>0.0</speed>
  <fix>3d</fix>
</trkpt>
<trkpt lat="33.810313" lon="-118.393867">
  <ele>-0.109</ele>
  <time>2026-09-02T22:07:48Z</time>
  <course>188.26</course>
  <speed>0.01414213562373095</speed>
  <fix>3d</fix>
</trkpt>
<trkpt lat="33.810313" lon="-118.393867">
  <ele>-0.12</ele>
  <time>2026-09-02T22:07:48Z</time>
  <course>0.0</course>
  <speed>0.0</speed>
  <fix>3d</fix>
</trkpt>
<trkpt lat="33.810313" lon="-118.393867">
  <ele>-0.107</ele>
  <time>2026-09-02T22:07:48Z</time>
  <course>188.25</course>
  <speed>0.01414213562373095</speed>
  <fix>3d</fix>
</trkpt>
<trkpt lat="33.810313" lon="-118.393867">
  <ele>-0.12</ele>
  <time>2026-09-02T22:07:48Z</time>
  <course>0.0</course>
  <speed>0.0</speed>
  <fix>3d</fix>
</trkpt>
<trkpt lat="33.810313" lon="-118.393867">
  <ele>-0.106</ele>
  <time>2026-09-02T22:07:48Z</time>
  <course>188.25</course>
  <speed>0.01414213562373095</speed>
  <fix>3d</fix>
</trkpt>
<trkpt lat="33.810313" lon="-118.393867">
  <ele>-0.12</ele>
  <time>2026-09-02T22:07:48Z</time>
  <course>0.0</course>
  <speed>0.0</speed>
  <fix>3d</fix>
</trkpt>
<trkpt lat="33.810313" lon="-118.393867">
  <ele>-0.105</ele>
  <time>2026-09-02T22:07:48Z</time>
  <course>188.24</course>
  <speed>0.01414213562373095</speed>
  <fix>3d</fix>
</trkpt>
<trkpt lat="33.810313" lon="-118.393867">
  <ele>-0.12</ele>
  <time>2026-09-02T22:07:48Z</time>
  <course>0.0</course>
  <speed>0.0</speed>
  <fix>3d</fix>
</trkpt>
<trkpt lat="33.810313" lon="-118.393867">
  <ele>-0.106</ele>
  <time>2026-09-02T22:07:48Z</time>
  <course>188.23</course>
  <speed>0.01414213562373095</speed>
  <fix>3d</fix>
</trkpt>
<trkpt lat="33.810313" lon="-118.393867">
  <ele>-0.12</ele>
  <time>2026-09-02T22:07:48Z</time>
  <course>0.0</course>
  <speed>0.0</speed>
  <fix>3d</fix>
</trkpt>
<trkpt lat="33.810313" lon="-118.393867">
  <ele>-0.108</ele>
  <time>2026-09-02T22:07:48Z</time>
  <course>188.22</course>
  <speed>0.01414213562373095</speed>
  <fix>3d</fix>
</trkpt>
<trkpt lat="33.810313" lon="-118.393867">
  <ele>-0.12</ele>
  <time>2026-09-02T22:07:48Z</time>
  <course>0.0</course>
  <speed>0.0</speed>
  <fix>3d</fix>
</trkpt>
<trkpt lat="33.810313" lon="-118.393867">
  <ele>-0.11</ele>
  <time>2026-09-02T22:07:48Z</time>
  <course>188.21</course>
  <speed>0.01414213562373095</speed>
  <fix>3d</fix>
</trkpt>
<trkpt lat="33.810313" lon="-118.393867">
  <ele>-0.12</ele>
  <time>2026-09-02T22:07:48Z</time>
  <course>0.0</course>
  <speed>0.0</speed>
  <fix>3d</fix>
</trkpt>
<trkpt lat="33.810313" lon="-118.393867">
  <ele>-0.111</ele>
  <time>2026-09-02T22:07:48Z</time>
  <course>188.21</course>
  <speed>0.01414213562373095</speed>
  <fix>3d</fix>
</trkpt>
<trkpt lat="33.810313" lon="-118.393867">
  <ele>-0.12</ele>
  <time>2026-09-02T22:07:48Z</time>
  <course>0.0</course>
  <speed>0.0</speed>
  <fix>3d</fix>
</trkpt>
<trkpt lat="33.810313" lon="-118.393867">
  <ele>-0.112</ele>
  <time>2026-09-02T22:07:48Z</time>
  <course>188.2</course>
  <speed>0.01414213562373095</speed>
  <fix>3d</fix>
</trkpt>
<trkpt lat="33.810313" lon="-118.393867">
  <ele>-0.12</ele>
  <time>2026-09-02T22:07:48Z</time>
  <course>0.0</course>
  <speed>0.0</speed>
  <fix>3d</fix>
</trkpt>
<trkpt lat="33.810313" lon="-118.393867">
  <ele>-0.112</ele>
  <time>2026-09-02T22:07:48Z</time>
  <course>188.19</course>
  <speed>0.01414213562373095</speed>
  <fix>3d</fix>
</trkpt>
<trkpt lat="33.810313" lon="-118.393867">
  <ele>-0.12</ele>
  <time>2026-09-02T22:07:48Z</time>
  <course>0.0</course>
  <speed>0.0</speed>
  <fix>3d</fix>
</trkpt>
<trkpt lat="33.810313" lon="-118.393867">
  <ele>-0.112</ele>
  <time>2026-09-02T22:07:48Z</time>
  <course>188.18</course>
  <speed>0.01414213562373095</speed>
  <fix>3d</fix>
</trkpt>
<trkpt lat="33.810313" lon="-118.393867">
  <ele>-0.12</ele>
  <time>2026-09-02T22:07:48Z</time>
  <course>0.0</course>
  <speed>0.0</speed>
  <fix>3d</fix>
</trkpt>
<trkpt lat="33.810313" lon="-118.393867">
  <ele>-0.111</ele>
  <time>2026-09-02T22:07:48Z</time>
  <course>188.17</course>
  <speed>0.01414213562373095</speed>
  <fix>3d</fix>
</trkpt>
<trkpt lat="33.810313" lon="-118.393867">
  <ele>-0.12</ele>
  <time>2026-09-02T22:07:48Z</time>
  <course>0.0</course>
  <speed>0.0</speed>
  <fix>3d</fix>
</trkpt>
<trkpt lat="33.810313" lon="-118.393867">
  <ele>-0.109</ele>
  <time>2026-09-02T22:07:48Z</time>
  <course>188.17</course>
  <speed>0.01414213562373095</speed>
  <fix>3d</fix>
</trkpt>
<trkpt lat="33.810313" lon="-118.393867">
  <ele>-0.12</ele>
  <time>2026-09-02T22:07:48Z</time>
  <course>0.0</course>
  <speed>0.0</speed>
  <fix>3d</fix>
</trkpt>
<trkpt lat="33.810313" lon="-118.393867">
  <ele>-0.107</ele>
  <time>2026-09-02T22:07:48Z</time>
  <course>188.16</course>
  <speed>0.01414213562373095</speed>
  <fix>3d</fix>
</trkpt>
<trkpt lat="33.810313" lon="-118.393867">
  <ele>-0.12</ele>
  <time>2026-09-02T22:07:48Z</time>
  <course>0.0</course>
  <speed>0.0</speed>
  <fix>3d</fix>
</trkpt>
<trkpt lat="33.810313" lon="-118.393867">
  <ele>-0.107</ele>
  <time>2026-09-02T22:07:48Z</time>
  <course>188.15</course>
  <speed>0.01414213562373095</speed>
  <fix>3d</fix>
</trkpt>
<trkpt lat="33.810313" lon="-118.393867">
  <ele>-0.12</ele>
  <time>2026-09-02T22:07:48Z</time>
  <course>0.0</course>
  <speed>0.0</speed>
  <fix>3d</fix>
</trkpt>
<trkpt lat="33.810313" lon="-118.393867">
  <ele>-0.109</ele>
  <time>2026-09-02T22:07:48Z</time>
  <course>188.14</course>
  <speed>0.01414213562373095</speed>
  <fix>3d</fix>
</trkpt>
<trkpt lat="33.810313" lon="-118.393867">
  <ele>-0.12</ele>
  <time>2026-09-02T22:07:48Z</time>
  <course>0.0</course>
  <speed>0.0</speed>
  <fix>3d</fix>
</trkpt>
<trkpt lat="33.810313" lon="-118.393867">
  <ele>-0.112</ele>
  <time>2026-09-02T22:07:48Z</time>
  <course>188.13</course>
  <speed>0.01414213562373095</speed>
  <fix>3d</fix>
</trkpt>
<trkpt lat="33.810313" lon="-118.393867">
  <ele>-0.12</ele>
  <time>2026-09-02T22:07:48Z</time>
  <course>0.0</course>
  <speed>0.0</speed>
  <fix>3d</fix>
</trkpt>
<trkpt lat="33.810313" lon="-118.393867">
  <ele>-0.115</ele>
  <time>2026-09-02T22:07:48Z</time>
  <course>188.12</course>
  <speed>0.01414213562373095</speed>
  <fix>3d</fix>
</trkpt>
<trkpt lat="33.810313" lon="-118.393867">
  <ele>-0.12</ele>
  <time>2026-09-02T22:07:48Z</time>
  <course>0.0</course>
  <speed>0.0</speed>
  <fix>3d</fix>
</trkpt>
<trkpt lat="33.810313" lon="-118.393867">
  <ele>-0.118</ele>
  <time>2026-09-02T22:07:48Z</time>
  <course>188.12</course>
  <speed>0.01414213562373095</speed>
  <fix>3d</fix>
</trkpt>
<trkpt lat="33.810313" lon="-118.393867">
  <ele>-0.12</ele>
  <time>2026-09-02T22:07:48Z</time>
  <course>0.0</course>
  <speed>0.0</speed>
  <fix>3d</fix>
</trkpt>
<trkpt lat="33.810313" lon="-118.393867">
  <ele>-0.121</ele>
  <time>2026-09-02T22:07:48Z</time>
  <course>188.11</course>
  <speed>0.01414213562373095</speed>
  <fix>3d</fix>
</trkpt>
<trkpt lat="33.810313" lon="-118.393867">
  <ele>-0.12</ele>
  <time>2026-09-02T22:07:48Z</time>
  <course>0.0</course>
  <speed>0.0</speed>
  <fix>3d</fix>
</trkpt>
<trkpt lat="33.810313" lon="-118.393867">
  <ele>-0.122</ele>
  <time>2026-09-02T22:07:48Z</time>
  <course>188.1</course>
  <speed>0.01414213562373095</speed>
  <fix>3d</fix>
</trkpt>
<trkpt lat="33.810313" lon="-118.393867">
  <ele>-0.12</ele>
  <time>2026-09-02T22:07:48Z</time>
  <course>0.0</course>
  <speed>0.0</speed>
  <fix>3d</fix>
</trkpt>
<trkpt lat="33.810313" lon="-118.393867">
  <ele>-0.122</ele>
  <time>2026-09-02T22:07:48Z</time>
  <course>188.09</course>
  <speed>0.01414213562373095</speed>
  <fix>3d</fix>
</trkpt>
<trkpt lat="33.810313" lon="-118.393867">
  <ele>-0.12</ele>
  <time>2026-09-02T22:07:48Z</time>
  <course>0.0</course>
  <speed>0.0</speed>
  <fix>3d</fix>
</trkpt>
<trkpt lat="33.810313" lon="-118.393867">
  <ele>-0.121</ele>
  <time>2026-09-02T22:07:48Z</time>
  <course>188.08</course>
  <speed>0.01414213562373095</speed>
  <fix>3d</fix>
</trkpt>
<trkpt lat="33.810313" lon="-118.393867">
  <ele>-0.12</ele>
  <time>2026-09-02T22:07:48Z</time>
  <course>0.0</course>
  <speed>0.0</speed>
  <fix>3d</fix>
</trkpt>
<trkpt lat="33.810313" lon="-118.393867">
  <ele>-0.118</ele>
  <time>2026-09-02T22:07:48Z</time>
  <course>188.07</course>
  <speed>0.022360679774997897</speed>
  <fix>3d</fix>
</trkpt>
<trkpt lat="33.810313" lon="-118.393867">
  <ele>-0.12</ele>
  <time>2026-09-02T22:07:48Z</time>
  <course>0.0</course>
  <speed>0.0</speed>
  <fix>3d</fix>
</trkpt>
<trkpt lat="33.810313" lon="-118.393867">
  <ele>-0.116</ele>
  <time>2026-09-02T22:07:48Z</time>
  <course>188.07</course>
  <speed>0.022360679774997897</speed>
  <fix>3d</fix>
</trkpt>
<trkpt lat="33.810313" lon="-118.393867">
  <ele>-0.12</ele>
  <time>2026-09-02T22:07:48Z</time>
  <course>0.0</course>
  <speed>0.0</speed>
  <fix>3d</fix>
</trkpt>
<trkpt lat="33.810313" lon="-118.393867">
  <ele>-0.114</ele>
  <time>2026-09-02T22:07:48Z</time>
  <course>188.06</course>
  <speed>0.022360679774997897</speed>
  <fix>3d</fix>
</trkpt>
<trkpt lat="33.810313" lon="-118.393867">
  <ele>-0.12</ele>
  <time>2026-09-02T22:07:48Z</time>
  <course>0.0</course>
  <speed>0.0</speed>
  <fix>3d</fix>
</trkpt>
<trkpt lat="33.810313" lon="-118.393867">
  <ele>-0.114</ele>
  <time>2026-09-02T22:07:48Z</time>
  <course>188.05</course>
  <speed>0.022360679774997897</speed>
  <fix>3d</fix>
</trkpt>
<trkpt lat="33.810313" lon="-118.393867">
  <ele>-0.12</ele>
  <time>2026-09-02T22:07:48Z</time>
  <course>0.0</course>
  <speed>0.0</speed>
  <fix>3d</fix>
</trkpt>
<trkpt lat="33.810313" lon="-118.393867">
  <ele>-0.114</ele>
  <time>2026-09-02T22:07:48Z</time>
  <course>188.04</course>
  <speed>0.022360679774997897</speed>
  <fix>3d</fix>
</trkpt>
<trkpt lat="33.810313" lon="-118.393867">
  <ele>-0.12</ele>
  <time>2026-09-02T22:07:48Z</time>
  <course>0.0</course>
  <speed>0.0</speed>
  <fix>3d</fix>
</trkpt>
<trkpt lat="33.810313" lon="-118.393867">
  <ele>-0.115</ele>
  <time>2026-09-02T22:07:48Z</time>
  <course>188.03</course>
  <speed>0.022360679774997897</speed>
  <fix>3d</fix>
</trkpt>
<trkpt lat="33.810313" lon="-118.393867">
  <ele>-0.12</ele>
  <time>2026-09-02T22:07:48Z</time>
  <course>0.0</course>
  <speed>0.0</speed>
  <fix>3d</fix>
</trkpt>
<trkpt lat="33.810313" lon="-118.393867">
  <ele>-0.116</ele>
  <time>2026-09-02T22:07:48Z</time>
  <course>188.03</course>
  <speed>0.022360679774997897</speed>
  <fix>3d</fix>
</trkpt>
<trkpt lat="33.810313" lon="-118.393867">
  <ele>-0.12</ele>
  <time>2026-09-02T22:07:48Z</time>
  <course>0.0</course>
  <speed>0.0</speed>
  <fix>3d</fix>
</trkpt>
<trkpt lat="33.810313" lon="-118.393867">
  <ele>-0.117</ele>
  <time>2026-09-02T22:07:48Z</time>
  <course>188.02</course>
  <speed>0.022360679774997897</speed>
  <fix>3d</fix>
</trkpt>
<trkpt lat="33.810313" lon="-118.393867">
  <ele>-0.12</ele>
  <time>2026-09-02T22:07:48Z</time>
  <course>0.0</course>
  <speed>0.0</speed>
  <fix>3d</fix>
</trkpt>
<trkpt lat="33.810313" lon="-118.393867">
  <ele>-0.117</ele>
  <time>2026-09-02T22:07:48Z</time>
  <course>188.01</course>
  <speed>0.022360679774997897</speed>
  <fix>3d</fix>
</trkpt>
<trkpt lat="33.810313" lon="-118.393867">
  <ele>-0.12</ele>
  <time>2026-09-02T22:07:48Z</time>
  <course>0.0</course>
  <speed>0.0</speed>
  <fix>3d</fix>
</trkpt>
<trkpt lat="33.810313" lon="-118.393867">
  <ele>-0.116</ele>
  <time>2026-09-02T22:07:48Z</time>
  <course>188.0</course>
  <speed>0.022360679774997897</speed>
  <fix>3d</fix>
</trkpt>
<trkpt lat="33.810313" lon="-118.393867">
  <ele>-0.12</ele>
  <time>2026-09-02T22:07:48Z</time>
  <course>0.0</course>
  <speed>0.0</speed>
  <fix>3d</fix>
</trkpt>
<trkpt lat="33.810313" lon="-118.393867">
  <ele>-0.115</ele>
  <time>2026-09-02T22:07:48Z</time>
  <course>187.99</course>
  <speed>0.022360679774997897</speed>
  <fix>3d</fix>
</trkpt>
<trkpt lat="33.810313" lon="-118.393867">
  <ele>-0.12</ele>
  <time>2026-09-02T22:07:48Z</time>
  <course>0.0</course>
  <speed>0.0</speed>
  <fix>3d</fix>
</trkpt>
<trkpt lat="33.810313" lon="-118.393867">
  <ele>-0.113</ele>
  <time>2026-09-02T22:07:48Z</time>
  <course>187.99</course>
  <speed>0.022360679774997897</speed>
  <fix>3d</fix>
</trkpt>
<trkpt lat="33.810313" lon="-118.393867">
  <ele>-0.12</ele>
  <time>2026-09-02T22:07:48Z</time>
  <course>0.0</course>
  <speed>0.0</speed>
  <fix>3d</fix>
</trkpt>
<trkpt lat="33.810313" lon="-118.393867">
  <ele>-0.11</ele>
  <time>2026-09-02T22:07:48Z</time>
  <course>187.98</course>
  <speed>0.022360679774997897</speed>
  <fix>3d</fix>
</trkpt>
<trkpt lat="33.810313" lon="-118.393867">
  <ele>-0.12</ele>
  <time>2026-09-02T22:07:48Z</time>
  <course>0.0</course>
  <speed>0.0</speed>
  <fix>3d</fix>
</trkpt>
<trkpt lat="33.810313" lon="-118.393867">
  <ele>-0.108</ele>
  <time>2026-09-02T22:07:48Z</time>
  <course>187.97</course>
  <speed>0.022360679774997897</speed>
  <fix>3d</fix>
</trkpt>
<trkpt lat="33.810313" lon="-118.393867">
  <ele>-0.12</ele>
  <time>2026-09-02T22:07:48Z</time>
  <course>0.0</course>
  <speed>0.0</speed>
  <fix>3d</fix>
</trkpt>
<trkpt lat="33.810313" lon="-118.393867">
  <ele>-0.108</ele>
  <time>2026-09-02T22:07:48Z</time>
  <course>187.96</course>
  <speed>0.022360679774997897</speed>
  <fix>3d</fix>
</trkpt>
<trkpt lat="33.810313" lon="-118.393867">
  <ele>-0.12</ele>
  <time>2026-09-02T22:07:48Z</time>
  <course>0.0</course>
  <speed>0.0</speed>
  <fix>3d</fix>
</trkpt>
<trkpt lat="33.810313" lon="-118.393867">
  <ele>-0.107</ele>
  <time>2026-09-02T22:07:48Z</time>
  <course>187.95</course>
  <speed>0.022360679774997897</speed>
  <fix>3d</fix>
</trkpt>
<trkpt lat="33.810313" lon="-118.393867">
  <ele>-0.12</ele>
  <time>2026-09-02T22:07:48Z</time>
  <course>0.0</course>
  <speed>0.0</speed>
  <fix>3d</fix>
</trkpt>
<trkpt lat="33.810313" lon="-118.393867">
  <ele>-0.109</ele>
  <time>2026-09-02T22:07:48Z</time>
  <course>187.95</course>
  <speed>0.022360679774997897</speed>
  <fix>3d</fix>
</trkpt>
<trkpt lat="33.810313" lon="-118.393867">
  <ele>-0.12</ele>
  <time>2026-09-02T22:07:48Z</time>
  <course>0.0</course>
  <speed>0.0</speed>
  <fix>3d</fix>
</trkpt>
<trkpt lat="33.810313" lon="-118.393867">
  <ele>-0.111</ele>
  <time>2026-09-02T22:07:48Z</time>
  <course>187.94</course>
  <speed>0.022360679774997897</speed>
  <fix>3d</fix>
</trkpt>
<trkpt lat="33.810313" lon="-118.393867">
  <ele>-0.12</ele>
  <time>2026-09-02T22:07:48Z</time>
  <course>0.0</course>
  <speed>0.0</speed>
  <fix>3d</fix>
</trkpt>
<trkpt lat="33.810313" lon="-118.393867">
  <ele>-0.114</ele>
  <time>2026-09-02T22:07:48Z</time>
  <course>187.93</course>
  <speed>0.022360679774997897</speed>
  <fix>3d</fix>
</trkpt>
<trkpt lat="33.810313" lon="-118.393867">
  <ele>-0.12</ele>
  <time>2026-09-02T22:07:48Z</time>
  <course>0.0</course>
  <speed>0.0</speed>
  <fix>3d</fix>
</trkpt>
<trkpt lat="33.810313" lon="-118.393867">
  <ele>-0.117</ele>
  <time>2026-09-02T22:07:48Z</time>
  <course>187.92</course>
  <speed>0.022360679774997897</speed>
  <fix>3d</fix>
</trkpt>
<trkpt lat="33.810313" lon="-118.393867">
  <ele>-0.12</ele>
  <time>2026-09-02T22:07:48Z</time>
  <course>0.0</course>
  <speed>0.0</speed>
  <fix>3d</fix>
</trkpt>
<trkpt lat="33.810313" lon="-118.393867">
  <ele>-0.119</ele>
  <time>2026-09-02T22:07:48Z</time>
  <course>187.91</course>
  <speed>0.022360679774997897</speed>
  <fix>3d</fix>
</trkpt>
<trkpt lat="33.810313" lon="-118.393867">
  <ele>-0.12</ele>
  <time>2026-09-02T22:07:48Z</time>
  <course>0.0</course>
  <speed>0.0</speed>
  <fix>3d</fix>
</trkpt>
<trkpt lat="33.810313" lon="-118.393867">
  <ele>-0.119</ele>
  <time>2026-09-02T22:07:48Z</time>
  <course>187.91</course>
  <speed>0.022360679774997897</speed>
  <fix>3d</fix>
</trkpt>
<trkpt lat="33.810313" lon="-118.393867">
  <ele>-0.12</ele>
  <time>2026-09-02T22:07:48Z</time>
  <course>0.0</course>
  <speed>0.0</speed>
  <fix>3d</fix>
</trkpt>
<trkpt lat="33.810313" lon="-118.393867">
  <ele>-0.118</ele>
  <time>2026-09-02T22:07:48Z</time>
  <course>187.9</course>
  <speed>0.022360679774997897</speed>
  <fix>3d</fix>
</trkpt>
<trkpt lat="33.810313" lon="-118.393867">
  <ele>-0.12</ele>
  <time>2026-09-02T22:07:48Z</time>
  <course>0.0</course>
  <speed>0.0</speed>
  <fix>3d</fix>
</trkpt>
<trkpt lat="33.810313" lon="-118.393867">
  <ele>-0.118</ele>
  <time>2026-09-02T22:07:48Z</time>
  <course>187.89</course>
  <speed>0.022360679774997897</speed>
  <fix>3d</fix>
</trkpt>
<trkpt lat="33.810313" lon="-118.393867">
  <ele>-0.12</ele>
  <time>2026-09-02T22:07:48Z</time>
  <course>0.0</course>
  <speed>0.0</speed>
  <fix>3d</fix>
</trkpt>
<trkpt lat="33.810313" lon="-118.393867">
  <ele>-0.117</ele>
  <time>2026-09-02T22:07:48Z</time>
  <course>187.88</course>
  <speed>0.022360679774997897</speed>
  <fix>3d</fix>
</trkpt>
<trkpt lat="33.810313" lon="-118.393867">
  <ele>-0.12</ele>
  <time>2026-09-02T22:07:48Z</time>
  <course>0.0</course>
  <speed>0.0</speed>
  <fix>3d</fix>
</trkpt>
<trkpt lat="33.810313" lon="-118.393867">
  <ele>-0.115</ele>
  <time>2026-09-02T22:07:48Z</time>
  <course>187.87</course>
  <speed>0.022360679774997897</speed>
  <fix>3d</fix>
</trkpt>
<trkpt lat="33.810313" lon="-118.393867">
  <ele>-0.12</ele>
  <time>2026-09-02T22:07:48Z</time>
  <course>0.0</course>
  <speed>0.0</speed>
  <fix>3d</fix>
</trkpt>
<trkpt lat="33.810313" lon="-118.393867">
  <ele>-0.114</ele>
  <time>2026-09-02T22:07:48Z</time>
  <course>187.87</course>
  <speed>0.022360679774997897</speed>
  <fix>3d</fix>
</trkpt>
<trkpt lat="33.810313" lon="-118.393867">
  <ele>-0.12</ele>
  <time>2026-09-02T22:07:48Z</time>
  <course>0.0</course>
  <speed>0.0</speed>
  <fix>3d</fix>
</trkpt>
<trkpt lat="33.810313" lon="-118.393867">
  <ele>-0.114</ele>
  <time>2026-09-02T22:07:48Z</time>
  <course>187.86</course>
  <speed>0.022360679774997897</speed>
  <fix>3d</fix>
</trkpt>
<trkpt lat="33.810313" lon="-118.393867">
  <ele>-0.12</ele>
  <time>2026-09-02T22:07:48Z</time>
  <course>0.0</course>
  <speed>0.0</speed>
  <fix>3d</fix>
</trkpt>
<trkpt lat="33.810313" lon="-118.393867">
  <ele>-0.115</ele>
  <time>2026-09-02T22:07:48Z</time>
  <course>187.85</course>
  <speed>0.022360679774997897</speed>
  <fix>3d</fix>
</trkpt>
<trkpt lat="33.810313" lon="-118.393867">
  <ele>-0.12</ele>
  <time>2026-09-02T22:07:48Z</time>
  <course>0.0</course>
  <speed>0.0</speed>
  <fix>3d</fix>
</trkpt>
<trkpt lat="33.810313" lon="-118.393867">
  <ele>-0.116</ele>
  <time>2026-09-02T22:07:48Z</time>
  <course>187.84</course>
  <speed>0.022360679774997897</speed>
  <fix>3d</fix>
</trkpt>
<trkpt lat="33.810313" lon="-118.393867">
  <ele>-0.12</ele>
  <time>2026-09-02T22:07:48Z</time>
  <course>0.0</course>
  <speed>0.0</speed>
  <fix>3d</fix>
</trkpt>
<trkpt lat="33.810313" lon="-118.393867">
  <ele>-0.117</ele>
  <time>2026-09-02T22:07:48Z</time>
  <course>187.84</course>
  <speed>0.022360679774997897</speed>
  <fix>3d</fix>
</trkpt>
<trkpt lat="33.810313" lon="-118.393867">
  <ele>-0.12</ele>
  <time>2026-09-02T22:07:48Z</time>
  <course>0.0</course>
  <speed>0.0</speed>
  <fix>3d</fix>
</trkpt>
<trkpt lat="33.810313" lon="-118.393867">
  <ele>-0.118</ele>
  <time>2026-09-02T22:07:48Z</time>
  <course>187.83</course>
  <speed>0.022360679774997897</speed>
  <fix>3d</fix>
</trkpt>
<trkpt lat="33.810313" lon="-118.393867">
  <ele>-0.12</ele>
  <time>2026-09-02T22:07:48Z</time>
  <course>0.0</course>
  <speed>0.0</speed>
  <fix>3d</fix>
</trkpt>
<trkpt lat="33.810313" lon="-118.393867">
  <ele>-0.118</ele>
  <time>2026-09-02T22:07:48Z</time>
  <course>187.82</course>
  <speed>0.022360679774997897</speed>
  <fix>3d</fix>
</trkpt>
<trkpt lat="33.810313" lon="-118.393867">
  <ele>-0.12</ele>
  <time>2026-09-02T22:07:48Z</time>
  <course>0.0</course>
  <speed>0.0</speed>
  <fix>3d</fix>
</trkpt>
<trkpt lat="33.810313" lon="-118.393867">
  <ele>-0.118</ele>
  <time>2026-09-02T22:07:48Z</time>
  <course>187.81</course>
  <speed>0.022360679774997897</speed>
  <fix>3d</fix>
</trkpt>
<trkpt lat="33.810313" lon="-118.393867">
  <ele>-0.12</ele>
  <time>2026-09-02T22:07:48Z</time>
  <course>0.0</course>
  <speed>0.0</speed>
  <fix>3d</fix>
</trkpt>
<trkpt lat="33.810313" lon="-118.393867">
  <ele>-0.116</ele>
  <time>2026-09-02T22:07:48Z</time>
  <course>187.8</course>
  <speed>0.022360679774997897</speed>
  <fix>3d</fix>
</trkpt>
<trkpt lat="33.810313" lon="-118.393867">
  <ele>-0.12</ele>
  <time>2026-09-02T22:07:48Z</time>
  <course>0.0</course>
  <speed>0.0</speed>
  <fix>3d</fix>
</trkpt>
<trkpt lat="33.810313" lon="-118.393867">
  <ele>-0.113</ele>
  <time>2026-09-02T22:07:48Z</time>
  <course>187.8</course>
  <speed>0.022360679774997897</speed>
  <fix>3d</fix>
</trkpt>
<trkpt lat="33.810313" lon="-118.393867">
  <ele>-0.12</ele>
  <time>2026-09-02T22:07:48Z</time>
  <course>0.0</course>
  <speed>0.0</speed>
  <fix>3d</fix>
</trkpt>
<trkpt lat="33.810313" lon="-118.393867">
  <ele>-0.111</ele>
  <time>2026-09-02T22:07:48Z</time>
  <course>187.79</course>
  <speed>0.022360679774997897</speed>
  <fix>3d</fix>
</trkpt>
<trkpt lat="33.810313" lon="-118.393867">
  <ele>-0.12</ele>
  <time>2026-09-02T22:07:48Z</time>
  <course>0.0</course>
  <speed>0.0</speed>
  <fix>3d</fix>
</trkpt>
<trkpt lat="33.810313" lon="-118.393867">
  <ele>-0.109</ele>
  <time>2026-09-02T22:07:48Z</time>
  <course>187.78</course>
  <speed>0.022360679774997897</speed>
  <fix>3d</fix>
</trkpt>
<trkpt lat="33.810313" lon="-118.393867">
  <ele>-0.12</ele>
  <time>2026-09-02T22:07:48Z</time>
  <course>0.0</course>
  <speed>0.0</speed>
  <fix>3d</fix>
</trkpt>
<trkpt lat="33.810313" lon="-118.393867">
  <ele>-0.108</ele>
  <time>2026-09-02T22:07:48Z</time>
  <course>187.77</course>
  <speed>0.022360679774997897</speed>
  <fix>3d</fix>
</trkpt>
<trkpt lat="33.810313" lon="-118.393867">
  <ele>-0.12</ele>
  <time>2026-09-02T22:07:48Z</time>
  <course>0.0</course>
  <speed>0.0</speed>
  <fix>3d</fix>
</trkpt>
<trkpt lat="33.810313" lon="-118.393867">
  <ele>-0.109</ele>
  <time>2026-09-02T22:07:48Z</time>
  <course>187.77</course>
  <speed>0.022360679774997897</speed>
  <fix>3d</fix>
</trkpt>
<trkpt lat="33.810313" lon="-118.393867">
  <ele>-0.12</ele>
  <time>2026-09-02T22:07:48Z</time>
  <course>0.0</course>
  <speed>0.0</speed>
  <fix>3d</fix>
</trkpt>
<trkpt lat="33.810313" lon="-118.393867">
  <ele>-0.111</ele>
  <time>2026-09-02T22:07:48Z</time>
  <course>187.76</course>
  <speed>0.022360679774997897</speed>
  <fix>3d</fix>
</trkpt>
<trkpt lat="33.810313" lon="-118.393867">
  <ele>-0.12</ele>
  <time>2026-09-02T22:07:48Z</time>
  <course>0.0</course>
  <speed>0.0</speed>
  <fix>3d</fix>
</trkpt>
<trkpt lat="33.810313" lon="-118.393867">
  <ele>-0.114</ele>
  <time>2026-09-02T22:07:48Z</time>
  <course>187.75</course>
  <speed>0.022360679774997897</speed>
  <fix>3d</fix>
</trkpt>
<trkpt lat="33.810313" lon="-118.393867">
  <ele>-0.12</ele>
  <time>2026-09-02T22:07:48Z</time>
  <course>0.0</course>
  <speed>0.0</speed>
  <fix>3d</fix>
</trkpt>
<trkpt lat="33.810313" lon="-118.393867">
  <ele>-0.117</ele>
  <time>2026-09-02T22:07:48Z</time>
  <course>187.74</course>
  <speed>0.022360679774997897</speed>
  <fix>3d</fix>
</trkpt>
<trkpt lat="33.810313" lon="-118.393867">
  <ele>-0.12</ele>
  <time>2026-09-02T22:07:48Z</time>
  <course>0.0</course>
  <speed>0.0</speed>
  <fix>3d</fix>
</trkpt>
<trkpt lat="33.810313" lon="-118.393867">
  <ele>-0.12</ele>
  <time>2026-09-02T22:07:48Z</time>
  <course>187.74</course>
  <speed>0.022360679774997897</speed>
  <fix>3d</fix>
</trkpt>
<trkpt lat="33.810313" lon="-118.393867">
  <ele>-0.12</ele>
  <time>2026-09-02T22:07:48Z</time>
  <course>0.0</course>
  <speed>0.0</speed>
  <fix>3d</fix>
</trkpt>
<trkpt lat="33.810313" lon="-118.393867">
  <ele>-0.121</ele>
  <time>2026-09-02T22:07:48Z</time>
  <course>187.73</course>
  <speed>0.022360679774997897</speed>
  <fix>3d</fix>
</trkpt>
<trkpt lat="33.810313" lon="-118.393867">
  <ele>-0.12</ele>
  <time>2026-09-02T22:07:48Z</time>
  <course>0.0</course>
  <speed>0.0</speed>
  <fix>3d</fix>
</trkpt>
<trkpt lat="33.810313" lon="-118.393867">
  <ele>-0.121</ele>
  <time>2026-09-02T22:07:48Z</time>
  <course>187.72</course>
  <speed>0.0282842712474619</speed>
  <fix>3d</fix>
</trkpt>
<trkpt lat="33.810313" lon="-118.393867">
  <ele>-0.12</ele>
  <time>2026-09-02T22:07:48Z</time>
  <course>0.0</course>
  <speed>0.0</speed>
  <fix>3d</fix>
</trkpt>
<trkpt lat="33.810313" lon="-118.393867">
  <ele>-0.119</ele>
  <time>2026-09-02T22:07:48Z</time>
  <course>187.72</course>
  <speed>0.0282842712474619</speed>
  <fix>3d</fix>
</trkpt>
<trkpt lat="33.810313" lon="-118.393867">
  <ele>-0.12</ele>
  <time>2026-09-02T22:07:48Z</time>
  <course>0.0</course>
  <speed>0.0</speed>
  <fix>3d</fix>
</trkpt>
<trkpt lat="33.810313" lon="-118.393867">
  <ele>-0.118</ele>
  <time>2026-09-02T22:07:48Z</time>
  <course>187.71</course>
  <speed>0.0282842712474619</speed>
  <fix>3d</fix>
</trkpt>
<trkpt lat="33.810313" lon="-118.393867">
  <ele>-0.12</ele>
  <time>2026-09-02T22:07:48Z</time>
  <course>0.0</course>
  <speed>0.0</speed>
  <fix>3d</fix>
</trkpt>
<trkpt lat="33.810313" lon="-118.393867">
  <ele>-0.117</ele>
  <time>2026-09-02T22:07:48Z</time>
  <course>187.7</course>
  <speed>0.0282842712474619</speed>
  <fix>3d</fix>
</trkpt>
<trkpt lat="33.810313" lon="-118.393867">
  <ele>-0.12</ele>
  <time>2026-09-02T22:07:48Z</time>
  <course>0.0</course>
  <speed>0.0</speed>
  <fix>3d</fix>
</trkpt>
<trkpt lat="33.810313" lon="-118.393867">
  <ele>-0.116</ele>
  <time>2026-09-02T22:07:48Z</time>
  <course>187.69</course>
  <speed>0.0282842712474619</speed>
  <fix>3d</fix>
</trkpt>
<trkpt lat="33.810313" lon="-118.393867">
  <ele>-0.12</ele>
  <time>2026-09-02T22:07:48Z</time>
  <course>0.0</course>
  <speed>0.0</speed>
  <fix>3d</fix>
</trkpt>
<trkpt lat="33.810313" lon="-118.393867">
  <ele>-0.116</ele>
  <time>2026-09-02T22:07:48Z</time>
  <course>187.69</course>
  <speed>0.0282842712474619</speed>
  <fix>3d</fix>
</trkpt>
<trkpt lat="33.810313" lon="-118.393867">
  <ele>-0.12</ele>
  <time>2026-09-02T22:07:48Z</time>
  <course>0.0</course>
  <speed>0.0</speed>
  <fix>3d</fix>
</trkpt>
<trkpt lat="33.810313" lon="-118.393867">
  <ele>-0.117</ele>
  <time>2026-09-02T22:07:48Z</time>
  <course>187.68</course>
  <speed>0.0282842712474619</speed>
  <fix>3d</fix>
</trkpt>
<trkpt lat="33.810313" lon="-118.393867">
  <ele>-0.12</ele>
  <time>2026-09-02T22:07:48Z</time>
  <course>0.0</course>
  <speed>0.0</speed>
  <fix>3d</fix>
</trkpt>
<trkpt lat="33.810313" lon="-118.393867">
  <ele>-0.118</ele>
  <time>2026-09-02T22:07:48Z</time>
  <course>187.67</course>
  <speed>0.0282842712474619</speed>
  <fix>3d</fix>
</trkpt>
<trkpt lat="33.810313" lon="-118.393867">
  <ele>-0.12</ele>
  <time>2026-09-02T22:07:48Z</time>
  <course>0.0</course>
  <speed>0.0</speed>
  <fix>3d</fix>
</trkpt>
<trkpt lat="33.810313" lon="-118.393867">
  <ele>-0.12</ele>
  <time>2026-09-02T22:07:48Z</time>
  <course>187.67</course>
  <speed>0.0282842712474619</speed>
  <fix>3d</fix>
</trkpt>
<trkpt lat="33.810313" lon="-118.393867">
  <ele>-0.12</ele>
  <time>2026-09-02T22:07:48Z</time>
  <course>0.0</course>
  <speed>0.0</speed>
  <fix>3d</fix>
</trkpt>
<trkpt lat="33.810313" lon="-118.393867">
  <ele>-0.121</ele>
  <time>2026-09-02T22:07:48Z</time>
  <course>187.66</course>
  <speed>0.0282842712474619</speed>
  <fix>3d</fix>
</trkpt>
<trkpt lat="33.810313" lon="-118.393867">
  <ele>-0.12</ele>
  <time>2026-09-02T22:07:48Z</time>
  <course>0.0</course>
  <speed>0.0</speed>
  <fix>3d</fix>
</trkpt>
<trkpt lat="33.810313" lon="-118.393867">
  <ele>-0.121</ele>
  <time>2026-09-02T22:07:48Z</time>
  <course>187.65</course>
  <speed>0.0282842712474619</speed>
  <fix>3d</fix>
</trkpt>
<trkpt lat="33.810313" lon="-118.393867">
  <ele>-0.12</ele>
  <time>2026-09-02T22:07:48Z</time>
  <course>0.0</course>
  <speed>0.0</speed>
  <fix>3d</fix>
</trkpt>
<trkpt lat="33.810313" lon="-118.393867">
  <ele>-0.119</ele>
  <time>2026-09-02T22:07:48Z</time>
  <course>187.64</course>
  <speed>0.0282842712474619</speed>
  <fix>3d</fix>
</trkpt>
<trkpt lat="33.810313" lon="-118.393867">
  <ele>-0.12</ele>
  <time>2026-09-02T22:07:48Z</time>
  <course>0.0</course>
  <speed>0.0</speed>
  <fix>3d</fix>
</trkpt>
<trkpt lat="33.810313" lon="-118.393867">
  <ele>-0.116</ele>
  <time>2026-09-02T22:07:48Z</time>
  <course>187.64</course>
  <speed>0.0282842712474619</speed>
  <fix>3d</fix>
</trkpt>
<trkpt lat="33.810313" lon="-118.393867">
  <ele>-0.12</ele>
  <time>2026-09-02T22:07:48Z</time>
  <course>0.0</course>
  <speed>0.0</speed>
  <fix>3d</fix>
</trkpt>
<trkpt lat="33.810313" lon="-118.393867">
  <ele>-0.113</ele>
  <time>2026-09-02T22:07:48Z</time>
  <course>187.63</course>
  <speed>0.0282842712474619</speed>
  <fix>3d</fix>
</trkpt>
<trkpt lat="33.810313" lon="-118.393867">
  <ele>-0.12</ele>
  <time>2026-09-02T22:07:48Z</time>
  <course>0.0</course>
  <speed>0.0</speed>
  <fix>3d</fix>
</trkpt>
<trkpt lat="33.810313" lon="-118.393867">
  <ele>-0.111</ele>
  <time>2026-09-02T22:07:48Z</time>
  <course>187.63</course>
  <speed>0.0282842712474619</speed>
  <fix>3d</fix>
</trkpt>
<trkpt lat="33.810313" lon="-118.393867">
  <ele>-0.12</ele>
  <time>2026-09-02T22:07:48Z</time>
  <course>0.0</course>
  <speed>0.0</speed>
  <fix>3d</fix>
</trkpt>
<trkpt lat="33.810313" lon="-118.393867">
  <ele>-0.11</ele>
  <time>2026-09-02T22:07:48Z</time>
  <course>187.62</course>
  <speed>0.0282842712474619</speed>
  <fix>3d</fix>
</trkpt>
<trkpt lat="33.810313" lon="-118.393867">
  <ele>-0.12</ele>
  <time>2026-09-02T22:07:48Z</time>
  <course>0.0</course>
  <speed>0.0</speed>
  <fix>3d</fix>
</trkpt>
<trkpt lat="33.810313" lon="-118.393867">
  <ele>-0.109</ele>
  <time>2026-09-02T22:07:48Z</time>
  <course>187.61</course>
  <speed>0.0282842712474619</speed>
  <fix>3d</fix>
</trkpt>
<trkpt lat="33.810313" lon="-118.393867">
  <ele>-0.12</ele>
  <time>2026-09-02T22:07:48Z</time>
  <course>0.0</course>
  <speed>0.0</speed>
  <fix>3d</fix>
</trkpt>
<trkpt lat="33.810313" lon="-118.393867">
  <ele>-0.109</ele>
  <time>2026-09-02T22:07:48Z</time>
  <course>187.61</course>
  <speed>0.0282842712474619</speed>
  <fix>3d</fix>
</trkpt>
<trkpt lat="33.810313" lon="-118.393867">
  <ele>-0.12</ele>
  <time>2026-09-02T22:07:48Z</time>
  <course>0.0</course>
  <speed>0.0</speed>
  <fix>3d</fix>
</trkpt>
<trkpt lat="33.810313" lon="-118.393867">
  <ele>-0.109</ele>
  <time>2026-09-02T22:07:48Z</time>
  <course>187.6</course>
  <speed>0.03605551275463989</speed>
  <fix>3d</fix>
</trkpt>
<trkpt lat="33.810313" lon="-118.393867">
  <ele>-0.12</ele>
  <time>2026-09-02T22:07:48Z</time>
  <course>0.0</course>
  <speed>0.0</speed>
  <fix>3d</fix>
</trkpt>
<trkpt lat="33.810313" lon="-118.393867">
  <ele>-0.108</ele>
  <time>2026-09-02T22:07:48Z</time>
  <course>187.59</course>
  <speed>0.03605551275463989</speed>
  <fix>3d</fix>
</trkpt>
<trkpt lat="33.810313" lon="-118.393867">
  <ele>-0.12</ele>
  <time>2026-09-02T22:07:48Z</time>
  <course>0.0</course>
  <speed>0.0</speed>
  <fix>3d</fix>
</trkpt>
<trkpt lat="33.810313" lon="-118.393867">
  <ele>-0.108</ele>
  <time>2026-09-02T22:07:48Z</time>
  <course>187.59</course>
  <speed>0.03605551275463989</speed>
  <fix>3d</fix>
</trkpt>
<trkpt lat="33.810313" lon="-118.393867">
  <ele>-0.12</ele>
  <time>2026-09-02T22:07:48Z</time>
  <course>0.0</course>
  <speed>0.0</speed>
  <fix>3d</fix>
</trkpt>
<trkpt lat="33.810313" lon="-118.393867">
  <ele>-0.107</ele>
  <time>2026-09-02T22:07:49Z</time>
  <course>187.58</course>
  <speed>0.03605551275463989</speed>
  <fix>3d</fix>
</trkpt>
<trkpt lat="33.810313" lon="-118.393867">
  <ele>-0.12</ele>
  <time>2026-09-02T22:07:49Z</time>
  <course>0.0</course>
  <speed>0.0</speed>
  <fix>3d</fix>
</trkpt>
<trkpt lat="33.810313" lon="-118.393867">
  <ele>-0.105</ele>
  <time>2026-09-02T22:07:49Z</time>
  <course>187.57</course>
  <speed>0.03605551275463989</speed>
  <fix>3d</fix>
</trkpt>
<trkpt lat="33.810313" lon="-118.393867">
  <ele>-0.12</ele>
  <time>2026-09-02T22:07:49Z</time>
  <course>0.0</course>
  <speed>0.0</speed>
  <fix>3d</fix>
</trkpt>
<trkpt lat="33.810313" lon="-118.393867">
  <ele>-0.104</ele>
  <time>2026-09-02T22:07:49Z</time>
  <course>187.57</course>
  <speed>0.03605551275463989</speed>
  <fix>3d</fix>
</trkpt>
<trkpt lat="33.810313" lon="-118.393867">
  <ele>-0.12</ele>
  <time>2026-09-02T22:07:49Z</time>
  <course>0.0</course>
  <speed>0.0</speed>
  <fix>3d</fix>
</trkpt>
<trkpt lat="33.810313" lon="-118.393867">
  <ele>-0.103</ele>
  <time>2026-09-02T22:07:49Z</time>
  <course>187.56</course>
  <speed>0.03605551275463989</speed>
  <fix>3d</fix>
</trkpt>
<trkpt lat="33.810313" lon="-118.393867">
  <ele>-0.12</ele>
  <time>2026-09-02T22:07:49Z</time>
  <course>0.0</course>
  <speed>0.0</speed>
  <fix>3d</fix>
</trkpt>
<trkpt lat="33.810313" lon="-118.393867">
  <ele>-0.102</ele>
  <time>2026-09-02T22:07:49Z</time>
  <course>187.55</course>
  <speed>0.03605551275463989</speed>
  <fix>3d</fix>
</trkpt>
<trkpt lat="33.810313" lon="-118.393867">
  <ele>-0.12</ele>
  <time>2026-09-02T22:07:49Z</time>
  <course>0.0</course>
  <speed>0.0</speed>
  <fix>3d</fix>
</trkpt>
<trkpt lat="33.810313" lon="-118.393867">
  <ele>-0.103</ele>
  <time>2026-09-02T22:07:49Z</time>
  <course>187.55</course>
  <speed>0.03605551275463989</speed>
  <fix>3d</fix>
</trkpt>
<trkpt lat="33.810313" lon="-118.393867">
  <ele>-0.12</ele>
  <time>2026-09-02T22:07:49Z</time>
  <course>0.0</course>
  <speed>0.0</speed>
  <fix>3d</fix>
</trkpt>
<trkpt lat="33.810313" lon="-118.393867">
  <ele>-0.105</ele>
  <time>2026-09-02T22:07:49Z</time>
  <course>187.54</course>
  <speed>0.03605551275463989</speed>
  <fix>3d</fix>
</trkpt>
<trkpt lat="33.810313" lon="-118.393867">
  <ele>-0.12</ele>
  <time>2026-09-02T22:07:49Z</time>
  <course>0.0</course>
  <speed>0.0</speed>
  <fix>3d</fix>
</trkpt>
<trkpt lat="33.810313" lon="-118.393867">
  <ele>-0.107</ele>
  <time>2026-09-02T22:07:49Z</time>
  <course>187.53</course>
  <speed>0.03605551275463989</speed>
  <fix>3d</fix>
</trkpt>
<trkpt lat="33.810313" lon="-118.393867">
  <ele>-0.12</ele>
  <time>2026-09-02T22:07:49Z</time>
  <course>0.0</course>
  <speed>0.0</speed>
  <fix>3d</fix>
</trkpt>
<trkpt lat="33.810313" lon="-118.393867">
  <ele>-0.11</ele>
  <time>2026-09-02T22:07:49Z</time>
  <course>187.53</course>
  <speed>0.03605551275463989</speed>
  <fix>3d</fix>
</trkpt>
<trkpt lat="33.810313" lon="-118.393867">
  <ele>-0.12</ele>
  <time>2026-09-02T22:07:49Z</time>
  <course>0.0</course>
  <speed>0.0</speed>
  <fix>3d</fix>
</trkpt>
<trkpt lat="33.810313" lon="-118.393867">
  <ele>-0.113</ele>
  <time>2026-09-02T22:07:49Z</time>
  <course>187.52</course>
  <speed>0.03605551275463989</speed>
  <fix>3d</fix>
</trkpt>
<trkpt lat="33.810313" lon="-118.393867">
  <ele>-0.12</ele>
  <time>2026-09-02T22:07:49Z</time>
  <course>0.0</course>
  <speed>0.0</speed>
  <fix>3d</fix>
</trkpt>
<trkpt lat="33.810313" lon="-118.393867">
  <ele>-0.115</ele>
  <time>2026-09-02T22:07:49Z</time>
  <course>187.51</course>
  <speed>0.03605551275463989</speed>
  <fix>3d</fix>
</trkpt>
<trkpt lat="33.810313" lon="-118.393867">
  <ele>-0.12</ele>
  <time>2026-09-02T22:07:49Z</time>
  <course>0.0</course>
  <speed>0.0</speed>
  <fix>3d</fix>
</trkpt>
<trkpt lat="33.810313" lon="-118.393867">
  <ele>-0.115</ele>
  <time>2026-09-02T22:07:49Z</time>
  <course>187.51</course>
  <speed>0.03605551275463989</speed>
  <fix>3d</fix>
</trkpt>
<trkpt lat="33.810313" lon="-118.393867">
  <ele>-0.12</ele>
  <time>2026-09-02T22:07:49Z</time>
  <course>0.0</course>
  <speed>0.0</speed>
  <fix>3d</fix>
</trkpt>
<trkpt lat="33.810313" lon="-118.393867">
  <ele>-0.116</ele>
  <time>2026-09-02T22:07:49Z</time>
  <course>187.5</course>
  <speed>0.03605551275463989</speed>
  <fix>3d</fix>
</trkpt>
<trkpt lat="33.810313" lon="-118.393867">
  <ele>-0.12</ele>
  <time>2026-09-02T22:07:49Z</time>
  <course>0.0</course>
  <speed>0.0</speed>
  <fix>3d</fix>
</trkpt>
<trkpt lat="33.810313" lon="-118.393867">
  <ele>-0.114</ele>
  <time>2026-09-02T22:07:49Z</time>
  <course>187.49</course>
  <speed>0.03605551275463989</speed>
  <fix>3d</fix>
</trkpt>
<trkpt lat="33.810313" lon="-118.393867">
  <ele>-0.12</ele>
  <time>2026-09-02T22:07:49Z</time>
  <course>0.0</course>
  <speed>0.0</speed>
  <fix>3d</fix>
</trkpt>
<trkpt lat="33.810313" lon="-118.393867">
  <ele>-0.112</ele>
  <time>2026-09-02T22:07:49Z</time>
  <course>187.49</course>
  <speed>0.03605551275463989</speed>
  <fix>3d</fix>
</trkpt>
<trkpt lat="33.810313" lon="-118.393867">
  <ele>-0.12</ele>
  <time>2026-09-02T22:07:49Z</time>
  <course>0.0</course>
  <speed>0.0</speed>
  <fix>3d</fix>
</trkpt>
<trkpt lat="33.810313" lon="-118.393867">
  <ele>-0.112</ele>
  <time>2026-09-02T22:07:49Z</time>
  <course>187.48</course>
  <speed>0.03605551275463989</speed>
  <fix>3d</fix>
</trkpt>
<trkpt lat="33.810313" lon="-118.393867">
  <ele>-0.12</ele>
  <time>2026-09-02T22:07:49Z</time>
  <course>0.0</course>
  <speed>0.0</speed>
  <fix>3d</fix>
</trkpt>
<trkpt lat="33.810313" lon="-118.393867">
  <ele>-0.112</ele>
  <time>2026-09-02T22:07:49Z</time>
  <course>187.47</course>
  <speed>0.03605551275463989</speed>
  <fix>3d</fix>
</trkpt>
<trkpt lat="33.810313" lon="-118.393867">
  <ele>-0.12</ele>
  <time>2026-09-02T22:07:49Z</time>
  <course>0.0</course>
  <speed>0.0</speed>
  <fix>3d</fix>
</trkpt>
<trkpt lat="33.810313" lon="-118.393867">
  <ele>-0.113</ele>
  <time>2026-09-02T22:07:49Z</time>
  <course>187.47</course>
  <speed>0.03605551275463989</speed>
  <fix>3d</fix>
</trkpt>
<trkpt lat="33.810313" lon="-118.393867">
  <ele>-0.12</ele>
  <time>2026-09-02T22:07:49Z</time>
  <course>0.0</course>
  <speed>0.0</speed>
  <fix>3d</fix>
</trkpt>
<trkpt lat="33.810313" lon="-118.393867">
  <ele>-0.114</ele>
  <time>2026-09-02T22:07:49Z</time>
  <course>187.46</course>
  <speed>0.03605551275463989</speed>
  <fix>3d</fix>
</trkpt>
<trkpt lat="33.810313" lon="-118.393867">
  <ele>-0.12</ele>
  <time>2026-09-02T22:07:49Z</time>
  <course>0.0</course>
  <speed>0.0</speed>
  <fix>3d</fix>
</trkpt>
<trkpt lat="33.810313" lon="-118.393867">
  <ele>-0.115</ele>
  <time>2026-09-02T22:07:49Z</time>
  <course>187.46</course>
  <speed>0.03605551275463989</speed>
  <fix>3d</fix>
</trkpt>
<trkpt lat="33.810313" lon="-118.393867">
  <ele>-0.12</ele>
  <time>2026-09-02T22:07:49Z</time>
  <course>0.0</course>
  <speed>0.0</speed>
  <fix>3d</fix>
</trkpt>
<trkpt lat="33.810313" lon="-118.393867">
  <ele>-0.114</ele>
  <time>2026-09-02T22:07:49Z</time>
  <course>187.45</course>
  <speed>0.03605551275463989</speed>
  <fix>3d</fix>
</trkpt>
<trkpt lat="33.810313" lon="-118.393867">
  <ele>-0.12</ele>
  <time>2026-09-02T22:07:49Z</time>
  <course>0.0</course>
  <speed>0.0</speed>
  <fix>3d</fix>
</trkpt>
<trkpt lat="33.810313" lon="-118.393867">
  <ele>-0.114</ele>
  <time>2026-09-02T22:07:49Z</time>
  <course>187.44</course>
  <speed>0.03605551275463989</speed>
  <fix>3d</fix>
</trkpt>
<trkpt lat="33.810313" lon="-118.393867">
  <ele>-0.12</ele>
  <time>2026-09-02T22:07:49Z</time>
  <course>0.0</course>
  <speed>0.0</speed>
  <fix>3d</fix>
</trkpt>
<trkpt lat="33.810313" lon="-118.393867">
  <ele>-0.114</ele>
  <time>2026-09-02T22:07:49Z</time>
  <course>187.44</course>
  <speed>0.03605551275463989</speed>
  <fix>3d</fix>
</trkpt>
<trkpt lat="33.810313" lon="-118.393867">
  <ele>-0.12</ele>
  <time>2026-09-02T22:07:49Z</time>
  <course>0.0</course>
  <speed>0.0</speed>
  <fix>3d</fix>
</trkpt>
<trkpt lat="33.810313" lon="-118.393867">
  <ele>-0.115</ele>
  <time>2026-09-02T22:07:49Z</time>
  <course>187.43</course>
  <speed>0.03605551275463989</speed>
  <fix>3d</fix>
</trkpt>
<trkpt lat="33.810313" lon="-118.393867">
  <ele>-0.12</ele>
  <time>2026-09-02T22:07:49Z</time>
  <course>0.0</course>
  <speed>0.0</speed>
  <fix>3d</fix>
</trkpt>
<trkpt lat="33.810313" lon="-118.393867">
  <ele>-0.114</ele>
  <time>2026-09-02T22:07:49Z</time>
  <course>187.43</course>
  <speed>0.03605551275463989</speed>
  <fix>3d</fix>
</trkpt>
<trkpt lat="33.810313" lon="-118.393867">
  <ele>-0.12</ele>
  <time>2026-09-02T22:07:49Z</time>
  <course>0.0</course>
  <speed>0.0</speed>
  <fix>3d</fix>
</trkpt>
<trkpt lat="33.810313" lon="-118.393867">
  <ele>-0.115</ele>
  <time>2026-09-02T22:07:49Z</time>
  <course>187.42</course>
  <speed>0.03605551275463989</speed>
  <fix>3d</fix>
</trkpt>
<trkpt lat="33.810313" lon="-118.393867">
  <ele>-0.12</ele>
  <time>2026-09-02T22:07:49Z</time>
  <course>0.0</course>
  <speed>0.0</speed>
  <fix>3d</fix>
</trkpt>
<trkpt lat="33.810313" lon="-118.393867">
  <ele>-0.115</ele>
  <time>2026-09-02T22:07:49Z</time>
  <course>187.41</course>
  <speed>0.03605551275463989</speed>
  <fix>3d</fix>
</trkpt>
<trkpt lat="33.810313" lon="-118.393867">
  <ele>-0.12</ele>
  <time>2026-09-02T22:07:49Z</time>
  <course>0.0</course>
  <speed>0.0</speed>
  <fix>3d</fix>
</trkpt>
<trkpt lat="33.810313" lon="-118.393867">
  <ele>-0.117</ele>
  <time>2026-09-02T22:07:49Z</time>
  <course>187.41</course>
  <speed>0.03605551275463989</speed>
  <fix>3d</fix>
</trkpt>
<trkpt lat="33.810313" lon="-118.393867">
  <ele>-0.12</ele>
  <time>2026-09-02T22:07:49Z</time>
  <course>0.0</course>
  <speed>0.0</speed>
  <fix>3d</fix>
</trkpt>
<trkpt lat="33.810313" lon="-118.393867">
  <ele>-0.12</ele>
  <time>2026-09-02T22:07:49Z</time>
  <course>187.4</course>
  <speed>0.03605551275463989</speed>
  <fix>3d</fix>
</trkpt>
<trkpt lat="33.810313" lon="-118.393867">
  <ele>-0.12</ele>
  <time>2026-09-02T22:07:49Z</time>
  <course>0.0</course>
  <speed>0.0</speed>
  <fix>3d</fix>
</trkpt>
<trkpt lat="33.810313" lon="-118.393867">
  <ele>-0.123</ele>
  <time>2026-09-02T22:07:49Z</time>
  <course>187.39</course>
  <speed>0.03605551275463989</speed>
  <fix>3d</fix>
</trkpt>
<trkpt lat="33.810313" lon="-118.393867">
  <ele>-0.12</ele>
  <time>2026-09-02T22:07:49Z</time>
  <course>0.0</course>
  <speed>0.0</speed>
  <fix>3d</fix>
</trkpt>
<trkpt lat="33.810313" lon="-118.393867">
  <ele>-0.126</ele>
  <time>2026-09-02T22:07:49Z</time>
  <course>187.39</course>
  <speed>0.03605551275463989</speed>
  <fix>3d</fix>
</trkpt>
<trkpt lat="33.810313" lon="-118.393867">
  <ele>-0.12</ele>
  <time>2026-09-02T22:07:49Z</time>
  <course>0.0</course>
  <speed>0.0</speed>
  <fix>3d</fix>
</trkpt>
<trkpt lat="33.810313" lon="-118.393867">
  <ele>-0.127</ele>
  <time>2026-09-02T22:07:49Z</time>
  <course>187.38</course>
  <speed>0.03605551275463989</speed>
  <fix>3d</fix>
</trkpt>
<trkpt lat="33.810313" lon="-118.393867">
  <ele>-0.12</ele>
  <time>2026-09-02T22:07:49Z</time>
  <course>0.0</course>
  <speed>0.0</speed>
  <fix>3d</fix>
</trkpt>
<trkpt lat="33.810313" lon="-118.393867">
  <ele>-0.128</ele>
  <time>2026-09-02T22:07:49Z</time>
  <course>187.38</course>
  <speed>0.03605551275463989</speed>
  <fix>3d</fix>
</trkpt>
<trkpt lat="33.810313" lon="-118.393867">
  <ele>-0.12</ele>
  <time>2026-09-02T22:07:49Z</time>
  <course>0.0</course>
  <speed>0.0</speed>
  <fix>3d</fix>
</trkpt>
<trkpt lat="33.810313" lon="-118.393867">
  <ele>-0.128</ele>
  <time>2026-09-02T22:07:49Z</time>
  <course>187.37</course>
  <speed>0.03605551275463989</speed>
  <fix>3d</fix>
</trkpt>
<trkpt lat="33.810313" lon="-118.393867">
  <ele>-0.12</ele>
  <time>2026-09-02T22:07:49Z</time>
  <course>0.0</course>
  <speed>0.0</speed>
  <fix>3d</fix>
</trkpt>
<trkpt lat="33.810313" lon="-118.393867">
  <ele>-0.126</ele>
  <time>2026-09-02T22:07:49Z</time>
  <course>187.36</course>
  <speed>0.03605551275463989</speed>
  <fix>3d</fix>
</trkpt>
<trkpt lat="33.810313" lon="-118.393867">
  <ele>-0.12</ele>
  <time>2026-09-02T22:07:49Z</time>
  <course>0.0</course>
  <speed>0.0</speed>
  <fix>3d</fix>
</trkpt>
<trkpt lat="33.810313" lon="-118.393867">
  <ele>-0.124</ele>
  <time>2026-09-02T22:07:49Z</time>
  <course>187.36</course>
  <speed>0.03605551275463989</speed>
  <fix>3d</fix>
</trkpt>
<trkpt lat="33.810313" lon="-118.393867">
  <ele>-0.12</ele>
  <time>2026-09-02T22:07:49Z</time>
  <course>0.0</course>
  <speed>0.0</speed>
  <fix>3d</fix>
</trkpt>
<trkpt lat="33.810313" lon="-118.393867">
  <ele>-0.123</ele>
  <time>2026-09-02T22:07:49Z</time>
  <course>187.35</course>
  <speed>0.03605551275463989</speed>
  <fix>3d</fix>
</trkpt>
<trkpt lat="33.810313" lon="-118.393867">
  <ele>-0.12</ele>
  <time>2026-09-02T22:07:49Z</time>
  <course>0.0</course>
  <speed>0.0</speed>
  <fix>3d</fix>
</trkpt>
<trkpt lat="33.810313" lon="-118.393867">
  <ele>-0.122</ele>
  <time>2026-09-02T22:07:49Z</time>
  <course>187.35</course>
  <speed>0.03605551275463989</speed>
  <fix>3d</fix>
</trkpt>
<trkpt lat="33.810313" lon="-118.393867">
  <ele>-0.12</ele>
  <time>2026-09-02T22:07:49Z</time>
  <course>0.0</course>
  <speed>0.0</speed>
  <fix>3d</fix>
</trkpt>
<trkpt lat="33.810313" lon="-118.393867">
  <ele>-0.122</ele>
  <time>2026-09-02T22:07:49Z</time>
  <course>187.34</course>
  <speed>0.03605551275463989</speed>
  <fix>3d</fix>
</trkpt>
<trkpt lat="33.810313" lon="-118.393867">
  <ele>-0.12</ele>
  <time>2026-09-02T22:07:49Z</time>
  <course>0.0</course>
  <speed>0.0</speed>
  <fix>3d</fix>
</trkpt>
<trkpt lat="33.810313" lon="-118.393867">
  <ele>-0.121</ele>
  <time>2026-09-02T22:07:49Z</time>
  <course>187.33</course>
  <speed>0.03605551275463989</speed>
  <fix>3d</fix>
</trkpt>
<trkpt lat="33.810313" lon="-118.393867">
  <ele>-0.12</ele>
  <time>2026-09-02T22:07:49Z</time>
  <course>0.0</course>
  <speed>0.0</speed>
  <fix>3d</fix>
</trkpt>
<trkpt lat="33.810313" lon="-118.393867">
  <ele>-0.12</ele>
  <time>2026-09-02T22:07:49Z</time>
  <course>187.33</course>
  <speed>0.03605551275463989</speed>
  <fix>3d</fix>
</trkpt>
<trkpt lat="33.810313" lon="-118.393867">
  <ele>-0.12</ele>
  <time>2026-09-02T22:07:49Z</time>
  <course>0.0</course>
  <speed>0.0</speed>
  <fix>3d</fix>
</trkpt>
<trkpt lat="33.810313" lon="-118.393867">
  <ele>-0.119</ele>
  <time>2026-09-02T22:07:49Z</time>
  <course>187.32</course>
  <speed>0.03605551275463989</speed>
  <fix>3d</fix>
</trkpt>
<trkpt lat="33.810313" lon="-118.393867">
  <ele>-0.12</ele>
  <time>2026-09-02T22:07:49Z</time>
  <course>0.0</course>
  <speed>0.0</speed>
  <fix>3d</fix>
</trkpt>
<trkpt lat="33.810313" lon="-118.393867">
  <ele>-0.116</ele>
  <time>2026-09-02T22:07:49Z</time>
  <course>187.32</course>
  <speed>0.03605551275463989</speed>
  <fix>3d</fix>
</trkpt>
<trkpt lat="33.810313" lon="-118.393867">
  <ele>-0.12</ele>
  <time>2026-09-02T22:07:49Z</time>
  <course>0.0</course>
  <speed>0.0</speed>
  <fix>3d</fix>
</trkpt>
<trkpt lat="33.810313" lon="-118.393867">
  <ele>-0.113</ele>
  <time>2026-09-02T22:07:49Z</time>
  <course>187.31</course>
  <speed>0.03605551275463989</speed>
  <fix>3d</fix>
</trkpt>
<trkpt lat="33.810313" lon="-118.393867">
  <ele>-0.12</ele>
  <time>2026-09-02T22:07:49Z</time>
  <course>0.0</course>
  <speed>0.0</speed>
  <fix>3d</fix>
</trkpt>
<trkpt lat="33.810313" lon="-118.393867">
  <ele>-0.11</ele>
  <time>2026-09-02T22:07:49Z</time>
  <course>187.31</course>
  <speed>0.03605551275463989</speed>
  <fix>3d</fix>
</trkpt>
<trkpt lat="33.810313" lon="-118.393867">
  <ele>-0.12</ele>
  <time>2026-09-02T22:07:49Z</time>
  <course>0.0</course>
  <speed>0.0</speed>
  <fix>3d</fix>
</trkpt>
<trkpt lat="33.810313" lon="-118.393867">
  <ele>-0.108</ele>
  <time>2026-09-02T22:07:49Z</time>
  <course>187.3</course>
  <speed>0.03605551275463989</speed>
  <fix>3d</fix>
</trkpt>
<trkpt lat="33.810313" lon="-118.393867">
  <ele>-0.12</ele>
  <time>2026-09-02T22:07:49Z</time>
  <course>0.0</course>
  <speed>0.0</speed>
  <fix>3d</fix>
</trkpt>
<trkpt lat="33.810313" lon="-118.393867">
  <ele>-0.107</ele>
  <time>2026-09-02T22:07:49Z</time>
  <course>187.3</course>
  <speed>0.03605551275463989</speed>
  <fix>3d</fix>
</trkpt>
<trkpt lat="33.810313" lon="-118.393867">
  <ele>-0.12</ele>
  <time>2026-09-02T22:07:49Z</time>
  <course>0.0</course>
  <speed>0.0</speed>
  <fix>3d</fix>
</trkpt>
<trkpt lat="33.810313" lon="-118.393867">
  <ele>-0.109</ele>
  <time>2026-09-02T22:07:49Z</time>
  <course>187.29</course>
  <speed>0.03605551275463989</speed>
  <fix>3d</fix>
</trkpt>
<trkpt lat="33.810313" lon="-118.393867">
  <ele>-0.12</ele>
  <time>2026-09-02T22:07:49Z</time>
  <course>0.0</course>
  <speed>0.0</speed>
  <fix>3d</fix>
</trkpt>
<trkpt lat="33.810313" lon="-118.393867">
  <ele>-0.11</ele>
  <time>2026-09-02T22:07:49Z</time>
  <course>187.28</course>
  <speed>0.03605551275463989</speed>
  <fix>3d</fix>
</trkpt>
<trkpt lat="33.810313" lon="-118.393867">
  <ele>-0.12</ele>
  <time>2026-09-02T22:07:49Z</time>
  <course>0.0</course>
  <speed>0.0</speed>
  <fix>3d</fix>
</trkpt>
<trkpt lat="33.810313" lon="-118.393867">
  <ele>-0.112</ele>
  <time>2026-09-02T22:07:49Z</time>
  <course>187.28</course>
  <speed>0.03605551275463989</speed>
  <fix>3d</fix>
</trkpt>
<trkpt lat="33.810313" lon="-118.393867">
  <ele>-0.12</ele>
  <time>2026-09-02T22:07:49Z</time>
  <course>0.0</course>
  <speed>0.0</speed>
  <fix>3d</fix>
</trkpt>
<trkpt lat="33.810313" lon="-118.393867">
  <ele>-0.115</ele>
  <time>2026-09-02T22:07:49Z</time>
  <course>187.27</course>
  <speed>0.03605551275463989</speed>
  <fix>3d</fix>
</trkpt>
<trkpt lat="33.810313" lon="-118.393867">
  <ele>-0.12</ele>
  <time>2026-09-02T22:07:49Z</time>
  <course>0.0</course>
  <speed>0.0</speed>
  <fix>3d</fix>
</trkpt>
<trkpt lat="33.810313" lon="-118.393867">
  <ele>-0.118</ele>
  <time>2026-09-02T22:07:49Z</time>
  <course>187.27</course>
  <speed>0.03605551275463989</speed>
  <fix>3d</fix>
</trkpt>
<trkpt lat="33.810313" lon="-118.393867">
  <ele>-0.12</ele>
  <time>2026-09-02T22:07:49Z</time>
  <course>0.0</course>
  <speed>0.0</speed>
  <fix>3d</fix>
</trkpt>
<trkpt lat="33.810313" lon="-118.393867">
  <ele>-0.12</ele>
  <time>2026-09-02T22:07:49Z</time>
  <course>187.26</course>
  <speed>0.03605551275463989</speed>
  <fix>3d</fix>
</trkpt>
<trkpt lat="33.810313" lon="-118.393867">
  <ele>-0.12</ele>
  <time>2026-09-02T22:07:49Z</time>
  <course>0.0</course>
  <speed>0.0</speed>
  <fix>3d</fix>
</trkpt>
<trkpt lat="33.810313" lon="-118.393867">
  <ele>-0.121</ele>
  <time>2026-09-02T22:07:49Z</time>
  <course>187.26</course>
  <speed>0.03605551275463989</speed>
  <fix>3d</fix>
</trkpt>
<trkpt lat="33.810313" lon="-118.393867">
  <ele>-0.12</ele>
  <time>2026-09-02T22:07:49Z</time>
  <course>0.0</course>
  <speed>0.0</speed>
  <fix>3d</fix>
</trkpt>
<trkpt lat="33.810313" lon="-118.393867">
  <ele>-0.12</ele>
  <time>2026-09-02T22:07:49Z</time>
  <course>187.25</course>
  <speed>0.03605551275463989</speed>
  <fix>3d</fix>
</trkpt>
<trkpt lat="33.810313" lon="-118.393867">
  <ele>-0.12</ele>
  <time>2026-09-02T22:07:49Z</time>
  <course>0.0</course>
  <speed>0.0</speed>
  <fix>3d</fix>
</trkpt>
<trkpt lat="33.810313" lon="-118.393867">
  <ele>-0.119</ele>
  <time>2026-09-02T22:07:49Z</time>
  <course>187.25</course>
  <speed>0.03605551275463989</speed>
  <fix>3d</fix>
</trkpt>
<trkpt lat="33.810313" lon="-118.393867">
  <ele>-0.12</ele>
  <time>2026-09-02T22:07:49Z</time>
  <course>0.0</course>
  <speed>0.0</speed>
  <fix>3d</fix>
</trkpt>
<trkpt lat="33.810313" lon="-118.393867">
  <ele>-0.119</ele>
  <time>2026-09-02T22:07:49Z</time>
  <course>187.24</course>
  <speed>0.03605551275463989</speed>
  <fix>3d</fix>
</trkpt>
<trkpt lat="33.810313" lon="-118.393867">
  <ele>-0.12</ele>
  <time>2026-09-02T22:07:49Z</time>
  <course>0.0</course>
  <speed>0.0</speed>
  <fix>3d</fix>
</trkpt>
<trkpt lat="33.810313" lon="-118.393867">
  <ele>-0.12</ele>
  <time>2026-09-02T22:07:49Z</time>
  <course>187.23</course>
  <speed>0.03605551275463989</speed>
  <fix>3d</fix>
</trkpt>
<trkpt lat="33.810313" lon="-118.393867">
  <ele>-0.12</ele>
  <time>2026-09-02T22:07:49Z</time>
  <course>0.0</course>
  <speed>0.0</speed>
  <fix>3d</fix>
</trkpt>
<trkpt lat="33.810313" lon="-118.393867">
  <ele>-0.121</ele>
  <time>2026-09-02T22:07:49Z</time>
  <course>187.23</course>
  <speed>0.03605551275463989</speed>
  <fix>3d</fix>
</trkpt>
<trkpt lat="33.810313" lon="-118.393867">
  <ele>-0.12</ele>
  <time>2026-09-02T22:07:49Z</time>
  <course>0.0</course>
  <speed>0.0</speed>
  <fix>3d</fix>
</trkpt>
<trkpt lat="33.810313" lon="-118.393867">
  <ele>-0.123</ele>
  <time>2026-09-02T22:07:49Z</time>
  <course>187.22</course>
  <speed>0.03605551275463989</speed>
  <fix>3d</fix>
</trkpt>
<trkpt lat="33.810313" lon="-118.393867">
  <ele>-0.12</ele>
  <time>2026-09-02T22:07:49Z</time>
  <course>0.0</course>
  <speed>0.0</speed>
  <fix>3d</fix>
</trkpt>
<trkpt lat="33.810313" lon="-118.393867">
  <ele>-0.125</ele>
  <time>2026-09-02T22:07:49Z</time>
  <course>187.22</course>
  <speed>0.03605551275463989</speed>
  <fix>3d</fix>
</trkpt>
<trkpt lat="33.810313" lon="-118.393867">
  <ele>-0.12</ele>
  <time>2026-09-02T22:07:49Z</time>
  <course>0.0</course>
  <speed>0.0</speed>
  <fix>3d</fix>
</trkpt>
<trkpt lat="33.810313" lon="-118.393867">
  <ele>-0.125</ele>
  <time>2026-09-02T22:07:49Z</time>
  <course>187.21</course>
  <speed>0.03605551275463989</speed>
  <fix>3d</fix>
</trkpt>
<trkpt lat="33.810313" lon="-118.393867">
  <ele>-0.12</ele>
  <time>2026-09-02T22:07:49Z</time>
  <course>0.0</course>
  <speed>0.0</speed>
  <fix>3d</fix>
</trkpt>
<trkpt lat="33.810313" lon="-118.393867">
  <ele>-0.125</ele>
  <time>2026-09-02T22:07:49Z</time>
  <course>187.21</course>
  <speed>0.03605551275463989</speed>
  <fix>3d</fix>
</trkpt>
<trkpt lat="33.810313" lon="-118.393867">
  <ele>-0.12</ele>
  <time>2026-09-02T22:07:49Z</time>
  <course>0.0</course>
  <speed>0.0</speed>
  <fix>3d</fix>
</trkpt>
<trkpt lat="33.810313" lon="-118.393867">
  <ele>-0.124</ele>
  <time>2026-09-02T22:07:49Z</time>
  <course>187.2</course>
  <speed>0.03605551275463989</speed>
  <fix>3d</fix>
</trkpt>
<trkpt lat="33.810313" lon="-118.393867">
  <ele>-0.12</ele>
  <time>2026-09-02T22:07:49Z</time>
  <course>0.0</course>
  <speed>0.0</speed>
  <fix>3d</fix>
</trkpt>
<trkpt lat="33.810313" lon="-118.393867">
  <ele>-0.122</ele>
  <time>2026-09-02T22:07:49Z</time>
  <course>187.2</course>
  <speed>0.03605551275463989</speed>
  <fix>3d</fix>
</trkpt>
<trkpt lat="33.810313" lon="-118.393867">
  <ele>-0.12</ele>
  <time>2026-09-02T22:07:49Z</time>
  <course>0.0</course>
  <speed>0.0</speed>
  <fix>3d</fix>
</trkpt>
<trkpt lat="33.810313" lon="-118.393867">
  <ele>-0.121</ele>
  <time>2026-09-02T22:07:49Z</time>
  <course>187.19</course>
  <speed>0.03605551275463989</speed>
  <fix>3d</fix>
</trkpt>
<trkpt lat="33.810313" lon="-118.393867">
  <ele>-0.12</ele>
  <time>2026-09-02T22:07:49Z</time>
  <course>0.0</course>
  <speed>0.0</speed>
  <fix>3d</fix>
</trkpt>
<trkpt lat="33.810313" lon="-118.393867">
  <ele>-0.119</ele>
  <time>2026-09-02T22:07:49Z</time>
  <course>187.19</course>
  <speed>0.03605551275463989</speed>
  <fix>3d</fix>
</trkpt>
<trkpt lat="33.810313" lon="-118.393867">
  <ele>-0.12</ele>
  <time>2026-09-02T22:07:49Z</time>
  <course>0.0</course>
  <speed>0.0</speed>
  <fix>3d</fix>
</trkpt>
<trkpt lat="33.810313" lon="-118.393867">
  <ele>-0.117</ele>
  <time>2026-09-02T22:07:49Z</time>
  <course>187.18</course>
  <speed>0.03605551275463989</speed>
  <fix>3d</fix>
</trkpt>
<trkpt lat="33.810313" lon="-118.393867">
  <ele>-0.12</ele>
  <time>2026-09-02T22:07:49Z</time>
  <course>0.0</course>
  <speed>0.0</speed>
  <fix>3d</fix>
</trkpt>
<trkpt lat="33.810313" lon="-118.393867">
  <ele>-0.116</ele>
  <time>2026-09-02T22:07:49Z</time>
  <course>187.18</course>
  <speed>0.03605551275463989</speed>
  <fix>3d</fix>
</trkpt>
<trkpt lat="33.810313" lon="-118.393867">
  <ele>-0.12</ele>
  <time>2026-09-02T22:07:49Z</time>
  <course>0.0</course>
  <speed>0.0</speed>
  <fix>3d</fix>
</trkpt>
<trkpt lat="33.810313" lon="-118.393867">
  <ele>-0.116</ele>
  <time>2026-09-02T22:07:49Z</time>
  <course>187.17</course>
  <speed>0.03605551275463989</speed>
  <fix>3d</fix>
</trkpt>
<trkpt lat="33.810313" lon="-118.393867">
  <ele>-0.12</ele>
  <time>2026-09-02T22:07:49Z</time>
  <course>0.0</course>
  <speed>0.0</speed>
  <fix>3d</fix>
</trkpt>
<trkpt lat="33.810313" lon="-118.393867">
  <ele>-0.116</ele>
  <time>2026-09-02T22:07:49Z</time>
  <course>187.17</course>
  <speed>0.0</speed>
  <fix>3d</fix>
</trkpt>
<trkpt lat="33.810313" lon="-118.393867">
  <ele>-0.12</ele>
  <time>2026-09-02T22:07:49Z</time>
  <course>0.0</course>
  <speed>0.0</speed>
  <fix>3d</fix>
</trkpt>
<trkpt lat="33.810313" lon="-118.393867">
  <ele>-0.117</ele>
  <time>2026-09-02T22:07:49Z</time>
  <course>187.16</course>
  <speed>0.0</speed>
  <fix>3d</fix>
</trkpt>
<trkpt lat="33.810313" lon="-118.393867">
  <ele>-0.12</ele>
  <time>2026-09-02T22:07:49Z</time>
  <course>0.0</course>
  <speed>0.0</speed>
  <fix>3d</fix>
</trkpt>
<trkpt lat="33.810313" lon="-118.393867">
  <ele>-0.117</ele>
  <time>2026-09-02T22:07:49Z</time>
  <course>187.16</course>
  <speed>0.0</speed>
  <fix>3d</fix>
</trkpt>
<trkpt lat="33.810313" lon="-118.393867">
  <ele>-0.12</ele>
  <time>2026-09-02T22:07:49Z</time>
  <course>0.0</course>
  <speed>0.0</speed>
  <fix>3d</fix>
</trkpt>
<trkpt lat="33.810313" lon="-118.393867">
  <ele>-0.117</ele>
  <time>2026-09-02T22:07:49Z</time>
  <course>187.15</course>
  <speed>0.0</speed>
  <fix>3d</fix>
</trkpt>
<trkpt lat="33.810313" lon="-118.393867">
  <ele>-0.12</ele>
  <time>2026-09-02T22:07:49Z</time>
  <course>0.0</course>
  <speed>0.0</speed>
  <fix>3d</fix>
</trkpt>
<trkpt lat="33.810313" lon="-118.393867">
  <ele>-0.115</ele>
  <time>2026-09-02T22:07:49Z</time>
  <course>187.15</course>
  <speed>0.0</speed>
  <fix>3d</fix>
</trkpt>
<trkpt lat="33.810313" lon="-118.393867">
  <ele>-0.12</ele>
  <time>2026-09-02T22:07:49Z</time>
  <course>0.0</course>
  <speed>0.0</speed>
  <fix>3d</fix>
</trkpt>
<trkpt lat="33.810313" lon="-118.393867">
  <ele>-0.113</ele>
  <time>2026-09-02T22:07:49Z</time>
  <course>187.14</course>
  <speed>0.0</speed>
  <fix>3d</fix>
</trkpt>
<trkpt lat="33.810313" lon="-118.393867">
  <ele>-0.12</ele>
  <time>2026-09-02T22:07:49Z</time>
  <course>0.0</course>
  <speed>0.0</speed>
  <fix>3d</fix>
</trkpt>
<trkpt lat="33.810313" lon="-118.393867">
  <ele>-0.11</ele>
  <time>2026-09-02T22:07:49Z</time>
  <course>187.14</course>
  <speed>0.0</speed>
  <fix>3d</fix>
</trkpt>
<trkpt lat="33.810313" lon="-118.393867">
  <ele>-0.12</ele>
  <time>2026-09-02T22:07:49Z</time>
  <course>0.0</course>
  <speed>0.0</speed>
  <fix>3d</fix>
</trkpt>
<trkpt lat="33.810313" lon="-118.393867">
  <ele>-0.109</ele>
  <time>2026-09-02T22:07:49Z</time>
  <course>187.13</course>
  <speed>0.0</speed>
  <fix>3d</fix>
</trkpt>
<trkpt lat="33.810313" lon="-118.393867">
  <ele>-0.12</ele>
  <time>2026-09-02T22:07:49Z</time>
  <course>0.0</course>
  <speed>0.0</speed>
  <fix>3d</fix>
</trkpt>
<trkpt lat="33.810313" lon="-118.393867">
  <ele>-0.108</ele>
  <time>2026-09-02T22:07:49Z</time>
  <course>187.13</course>
  <speed>0.0</speed>
  <fix>3d</fix>
</trkpt>
<trkpt lat="33.810313" lon="-118.393867">
  <ele>-0.12</ele>
  <time>2026-09-02T22:07:49Z</time>
  <course>0.0</course>
  <speed>0.0</speed>
  <fix>3d</fix>
</trkpt>
<trkpt lat="33.810313" lon="-118.393867">
  <ele>-0.108</ele>
  <time>2026-09-02T22:07:49Z</time>
  <course>187.12</course>
  <speed>0.0</speed>
  <fix>3d</fix>
</trkpt>
<trkpt lat="33.810313" lon="-118.393867">
  <ele>-0.12</ele>
  <time>2026-09-02T22:07:49Z</time>
  <course>0.0</course>
  <speed>0.0</speed>
  <fix>3d</fix>
</trkpt>
<trkpt lat="33.810313" lon="-118.393867">
  <ele>-0.109</ele>
  <time>2026-09-02T22:07:49Z</time>
  <course>187.12</course>
  <speed>0.0</speed>
  <fix>3d</fix>
</trkpt>
<trkpt lat="33.810313" lon="-118.393867">
  <ele>-0.12</ele>
  <time>2026-09-02T22:07:49Z</time>
  <course>0.0</course>
  <speed>0.0</speed>
  <fix>3d</fix>
</trkpt>
<trkpt lat="33.810313" lon="-118.393867">
  <ele>-0.112</ele>
  <time>2026-09-02T22:07:49Z</time>
  <course>187.11</course>
  <speed>0.01</speed>
  <fix>3d</fix>
</trkpt>
<trkpt lat="33.810313" lon="-118.393867">
  <ele>-0.12</ele>
  <time>2026-09-02T22:07:49Z</time>
  <course>0.0</course>
  <speed>0.0</speed>
  <fix>3d</fix>
</trkpt>
<trkpt lat="33.810313" lon="-118.393867">
  <ele>-0.114</ele>
  <time>2026-09-02T22:07:49Z</time>
  <course>187.11</course>
  <speed>0.01</speed>
  <fix>3d</fix>
</trkpt>
<trkpt lat="33.810313" lon="-118.393867">
  <ele>-0.12</ele>
  <time>2026-09-02T22:07:49Z</time>
  <course>0.0</course>
  <speed>0.0</speed>
  <fix>3d</fix>
</trkpt>
<trkpt lat="33.810313" lon="-118.393867">
  <ele>-0.116</ele>
  <time>2026-09-02T22:07:49Z</time>
  <course>187.1</course>
  <speed>0.01</speed>
  <fix>3d</fix>
</trkpt>
<trkpt lat="33.810313" lon="-118.393867">
  <ele>-0.12</ele>
  <time>2026-09-02T22:07:49Z</time>
  <course>0.0</course>
  <speed>0.0</speed>
  <fix>3d</fix>
</trkpt>
<trkpt lat="33.810313" lon="-118.393867">
  <ele>-0.117</ele>
  <time>2026-09-02T22:07:49Z</time>
  <course>187.1</course>
  <speed>0.01414213562373095</speed>
  <fix>3d</fix>
</trkpt>
<trkpt lat="33.810313" lon="-118.393867">
  <ele>-0.12</ele>
  <time>2026-09-02T22:07:49Z</time>
  <course>0.0</course>
  <speed>0.0</speed>
  <fix>3d</fix>
</trkpt>
<trkpt lat="33.810313" lon="-118.393867">
  <ele>-0.116</ele>
  <time>2026-09-02T22:07:49Z</time>
  <course>187.09</course>
  <speed>0.01414213562373095</speed>
  <fix>3d</fix>
</trkpt>
<trkpt lat="33.810313" lon="-118.393867">
  <ele>-0.12</ele>
  <time>2026-09-02T22:07:49Z</time>
  <course>0.0</course>
  <speed>0.0</speed>
  <fix>3d</fix>
</trkpt>
<trkpt lat="33.810313" lon="-118.393867">
  <ele>-0.115</ele>
  <time>2026-09-02T22:07:49Z</time>
  <course>187.09</course>
  <speed>0.01414213562373095</speed>
  <fix>3d</fix>
</trkpt>
<trkpt lat="33.810313" lon="-118.393867">
  <ele>-0.12</ele>
  <time>2026-09-02T22:07:49Z</time>
  <course>0.0</course>
  <speed>0.0</speed>
  <fix>3d</fix>
</trkpt>
<trkpt lat="33.810313" lon="-118.393867">
  <ele>-0.114</ele>
  <time>2026-09-02T22:07:49Z</time>
  <course>187.08</course>
  <speed>0.01414213562373095</speed>
  <fix>3d</fix>
</trkpt>
<trkpt lat="33.810313" lon="-118.393867">
  <ele>-0.12</ele>
  <time>2026-09-02T22:07:49Z</time>
  <course>0.0</course>
  <speed>0.0</speed>
  <fix>3d</fix>
</trkpt>
<trkpt lat="33.810313" lon="-118.393867">
  <ele>-0.113</ele>
  <time>2026-09-02T22:07:49Z</time>
  <course>187.08</course>
  <speed>0.01414213562373095</speed>
  <fix>3d</fix>
</trkpt>
<trkpt lat="33.810313" lon="-118.393867">
  <ele>-0.12</ele>
  <time>2026-09-02T22:07:49Z</time>
  <course>0.0</course>
  <speed>0.0</speed>
  <fix>3d</fix>
</trkpt>
<trkpt lat="33.810313" lon="-118.393867">
  <ele>-0.114</ele>
  <time>2026-09-02T22:07:49Z</time>
  <course>187.07</course>
  <speed>0.01414213562373095</speed>
  <fix>3d</fix>
</trkpt>
<trkpt lat="33.810313" lon="-118.393867">
  <ele>-0.12</ele>
  <time>2026-09-02T22:07:49Z</time>
  <course>0.0</course>
  <speed>0.0</speed>
  <fix>3d</fix>
</trkpt>
<trkpt lat="33.810313" lon="-118.393867">
  <ele>-0.115</ele>
  <time>2026-09-02T22:07:49Z</time>
  <course>187.07</course>
  <speed>0.01414213562373095</speed>
  <fix>3d</fix>
</trkpt>
<trkpt lat="33.810313" lon="-118.393867">
  <ele>-0.12</ele>
  <time>2026-09-02T22:07:49Z</time>
  <course>0.0</course>
  <speed>0.0</speed>
  <fix>3d</fix>
</trkpt>
<trkpt lat="33.810313" lon="-118.393867">
  <ele>-0.117</ele>
  <time>2026-09-02T22:07:49Z</time>
  <course>187.06</course>
  <speed>0.022360679774997897</speed>
  <fix>3d</fix>
</trkpt>
<trkpt lat="33.810313" lon="-118.393867">
  <ele>-0.12</ele>
  <time>2026-09-02T22:07:49Z</time>
  <course>0.0</course>
  <speed>0.0</speed>
  <fix>3d</fix>
</trkpt>
<trkpt lat="33.810313" lon="-118.393867">
  <ele>-0.118</ele>
  <time>2026-09-02T22:07:49Z</time>
  <course>187.06</course>
  <speed>0.022360679774997897</speed>
  <fix>3d</fix>
</trkpt>
<trkpt lat="33.810313" lon="-118.393867">
  <ele>-0.12</ele>
  <time>2026-09-02T22:07:49Z</time>
  <course>0.0</course>
  <speed>0.0</speed>
  <fix>3d</fix>
</trkpt>
<trkpt lat="33.810313" lon="-118.393867">
  <ele>-0.119</ele>
  <time>2026-09-02T22:07:49Z</time>
  <course>187.05</course>
  <speed>0.022360679774997897</speed>
  <fix>3d</fix>
</trkpt>
<trkpt lat="33.810313" lon="-118.393867">
  <ele>-0.12</ele>
  <time>2026-09-02T22:07:49Z</time>
  <course>0.0</course>
  <speed>0.0</speed>
  <fix>3d</fix>
</trkpt>
<trkpt lat="33.810313" lon="-118.393867">
  <ele>-0.119</ele>
  <time>2026-09-02T22:07:49Z</time>
  <course>187.05</course>
  <speed>0.022360679774997897</speed>
  <fix>3d</fix>
</trkpt>
<trkpt lat="33.810313" lon="-118.393867">
  <ele>-0.12</ele>
  <time>2026-09-02T22:07:49Z</time>
  <course>0.0</course>
  <speed>0.0</speed>
  <fix>3d</fix>
</trkpt>
<trkpt lat="33.810313" lon="-118.393867">
  <ele>-0.119</ele>
  <time>2026-09-02T22:07:49Z</time>
  <course>187.04</course>
  <speed>0.022360679774997897</speed>
  <fix>3d</fix>
</trkpt>
<trkpt lat="33.810313" lon="-118.393867">
  <ele>-0.12</ele>
  <time>2026-09-02T22:07:49Z</time>
  <course>0.0</course>
  <speed>0.0</speed>
  <fix>3d</fix>
</trkpt>
<trkpt lat="33.8103131" lon="-118.393867">
  <ele>-0.118</ele>
  <time>2026-09-02T22:07:49Z</time>
  <course>187.04</course>
  <speed>0.022360679774997897</speed>
  <fix>3d</fix>
</trkpt>
<trkpt lat="33.810313" lon="-118.393867">
  <ele>-0.12</ele>
  <time>2026-09-02T22:07:49Z</time>
  <course>0.0</course>
  <speed>0.0</speed>
  <fix>3d</fix>
</trkpt>
<trkpt lat="33.8103131" lon="-118.3938671">
  <ele>-0.118</ele>
  <time>2026-09-02T22:07:49Z</time>
  <course>187.03</course>
  <speed>0.022360679774997897</speed>
  <fix>3d</fix>
</trkpt>
<trkpt lat="33.810313" lon="-118.393867">
  <ele>-0.12</ele>
  <time>2026-09-02T22:07:49Z</time>
  <course>0.0</course>
  <speed>0.0</speed>
  <fix>3d</fix>
</trkpt>
<trkpt lat="33.8103131" lon="-118.3938671">
  <ele>-0.117</ele>
  <time>2026-09-02T22:07:49Z</time>
  <course>187.03</course>
  <speed>0.0282842712474619</speed>
  <fix>3d</fix>
</trkpt>
<trkpt lat="33.810313" lon="-118.393867">
  <ele>-0.12</ele>
  <time>2026-09-02T22:07:49Z</time>
  <course>0.0</course>
  <speed>0.0</speed>
  <fix>3d</fix>
</trkpt>
<trkpt lat="33.8103131" lon="-118.3938671">
  <ele>-0.117</ele>
  <time>2026-09-02T22:07:49Z</time>
  <course>187.02</course>
  <speed>0.0282842712474619</speed>
  <fix>3d</fix>
</trkpt>
<trkpt lat="33.810313" lon="-118.393867">
  <ele>-0.12</ele>
  <time>2026-09-02T22:07:49Z</time>
  <course>0.0</course>
  <speed>0.0</speed>
  <fix>3d</fix>
</trkpt>
<trkpt lat="33.8103131" lon="-118.3938671">
  <ele>-0.118</ele>
  <time>2026-09-02T22:07:49Z</time>
  <course>187.02</course>
  <speed>0.0282842712474619</speed>
  <fix>3d</fix>
</trkpt>
<trkpt lat="33.810313" lon="-118.393867">
  <ele>-0.12</ele>
  <time>2026-09-02T22:07:49Z</time>
  <course>0.0</course>
  <speed>0.0</speed>
  <fix>3d</fix>
</trkpt>
<trkpt lat="33.8103131" lon="-118.3938671">
  <ele>-0.119</ele>
  <time>2026-09-02T22:07:49Z</time>
  <course>187.02</course>
  <speed>0.0282842712474619</speed>
  <fix>3d</fix>
</trkpt>
<trkpt lat="33.810313" lon="-118.393867">
  <ele>-0.12</ele>
  <time>2026-09-02T22:07:49Z</time>
  <course>0.0</course>
  <speed>0.0</speed>
  <fix>3d</fix>
</trkpt>
<trkpt lat="33.8103131" lon="-118.3938671">
  <ele>-0.122</ele>
  <time>2026-09-02T22:07:49Z</time>
  <course>187.01</course>
  <speed>0.0282842712474619</speed>
  <fix>3d</fix>
</trkpt>
<trkpt lat="33.810313" lon="-118.393867">
  <ele>-0.12</ele>
  <time>2026-09-02T22:07:49Z</time>
  <course>0.0</course>
  <speed>0.0</speed>
  <fix>3d</fix>
</trkpt>
<trkpt lat="33.8103131" lon="-118.3938671">
  <ele>-0.123</ele>
  <time>2026-09-02T22:07:49Z</time>
  <course>187.01</course>
  <speed>0.0282842712474619</speed>
  <fix>3d</fix>
</trkpt>
<trkpt lat="33.810313" lon="-118.393867">
  <ele>-0.12</ele>
  <time>2026-09-02T22:07:49Z</time>
  <course>0.0</course>
  <speed>0.0</speed>
  <fix>3d</fix>
</trkpt>
<trkpt lat="33.8103131" lon="-118.3938671">
  <ele>-0.124</ele>
  <time>2026-09-02T22:07:49Z</time>
  <course>187.0</course>
  <speed>0.0282842712474619</speed>
  <fix>3d</fix>
</trkpt>
<trkpt lat="33.810313" lon="-118.393867">
  <ele>-0.12</ele>
  <time>2026-09-02T22:07:49Z</time>
  <course>0.0</course>
  <speed>0.0</speed>
  <fix>3d</fix>
</trkpt>
<trkpt lat="33.8103131" lon="-118.3938671">
  <ele>-0.124</ele>
  <time>2026-09-02T22:07:49Z</time>
  <course>187.0</course>
  <speed>0.03605551275463989</speed>
  <fix>3d</fix>
</trkpt>
<trkpt lat="33.810313" lon="-118.393867">
  <ele>-0.12</ele>
  <time>2026-09-02T22:07:49Z</time>
  <course>0.0</course>
  <speed>0.0</speed>
  <fix>3d</fix>
</trkpt>
<trkpt lat="33.8103131" lon="-118.3938671">
  <ele>-0.123</ele>
  <time>2026-09-02T22:07:49Z</time>
  <course>186.99</course>
  <speed>0.03605551275463989</speed>
  <fix>3d</fix>
</trkpt>
<trkpt lat="33.810313" lon="-118.393867">
  <ele>-0.12</ele>
  <time>2026-09-02T22:07:49Z</time>
  <course>0.0</course>
  <speed>0.0</speed>
  <fix>3d</fix>
</trkpt>
<trkpt lat="33.8103131" lon="-118.3938671">
  <ele>-0.122</ele>
  <time>2026-09-02T22:07:49Z</time>
  <course>186.99</course>
  <speed>0.03605551275463989</speed>
  <fix>3d</fix>
</trkpt>
<trkpt lat="33.810313" lon="-118.393867">
  <ele>-0.12</ele>
  <time>2026-09-02T22:07:49Z</time>
  <course>0.0</course>
  <speed>0.0</speed>
  <fix>3d</fix>
</trkpt>
<trkpt lat="33.8103131" lon="-118.3938671">
  <ele>-0.123</ele>
  <time>2026-09-02T22:07:49Z</time>
  <course>186.98</course>
  <speed>0.03605551275463989</speed>
  <fix>3d</fix>
</trkpt>
<trkpt lat="33.810313" lon="-118.393867">
  <ele>-0.12</ele>
  <time>2026-09-02T22:07:49Z</time>
  <course>0.0</course>
  <speed>0.0</speed>
  <fix>3d</fix>
</trkpt>
<trkpt lat="33.8103131" lon="-118.3938671">
  <ele>-0.122</ele>
  <time>2026-09-02T22:07:49Z</time>
  <course>186.98</course>
  <speed>0.0282842712474619</speed>
  <fix>3d</fix>
</trkpt>
<trkpt lat="33.810313" lon="-118.393867">
  <ele>-0.12</ele>
  <time>2026-09-02T22:07:49Z</time>
  <course>0.0</course>
  <speed>0.0</speed>
  <fix>3d</fix>
</trkpt>
<trkpt lat="33.8103131" lon="-118.3938671">
  <ele>-0.123</ele>
  <time>2026-09-02T22:07:49Z</time>
  <course>186.97</course>
  <speed>0.0282842712474619</speed>
  <fix>3d</fix>
</trkpt>
<trkpt lat="33.810313" lon="-118.393867">
  <ele>-0.12</ele>
  <time>2026-09-02T22:07:49Z</time>
  <course>0.0</course>
  <speed>0.0</speed>
  <fix>3d</fix>
</trkpt>
<trkpt lat="33.8103131" lon="-118.3938671">
  <ele>-0.125</ele>
  <time>2026-09-02T22:07:49Z</time>
  <course>186.97</course>
  <speed>0.0282842712474619</speed>
  <fix>3d</fix>
</trkpt>
<trkpt lat="33.810313" lon="-118.393867">
  <ele>-0.12</ele>
  <time>2026-09-02T22:07:49Z</time>
  <course>0.0</course>
  <speed>0.0</speed>
  <fix>3d</fix>
</trkpt>
<trkpt lat="33.8103131" lon="-118.3938671">
  <ele>-0.126</ele>
  <time>2026-09-02T22:07:49Z</time>
  <course>186.97</course>
  <speed>0.0282842712474619</speed>
  <fix>3d</fix>
</trkpt>
<trkpt lat="33.810313" lon="-118.393867">
  <ele>-0.12</ele>
  <time>2026-09-02T22:07:49Z</time>
  <course>0.0</course>
  <speed>0.0</speed>
  <fix>3d</fix>
</trkpt>
<trkpt lat="33.8103131" lon="-118.3938671">
  <ele>-0.126</ele>
  <time>2026-09-02T22:07:49Z</time>
  <course>186.97</course>
  <speed>0.0282842712474619</speed>
  <fix>3d</fix>
</trkpt>
<trkpt lat="33.8103131" lon="-118.3938671">
  <ele>-0.13</ele>
  <time>2026-09-02T22:07:49Z</time>
  <course>186.96</course>
  <speed>0.022360679774997897</speed>
  <fix>3d</fix>
</trkpt>
<trkpt lat="33.810313" lon="-118.393867">
  <ele>-0.12</ele>
  <time>2026-09-02T22:07:49Z</time>
  <course>0.0</course>
  <speed>0.0</speed>
  <fix>3d</fix>
</trkpt>
<trkpt lat="33.8103131" lon="-118.3938671">
  <ele>-0.154</ele>
  <time>2026-09-02T22:07:49Z</time>
  <course>186.96</course>
  <speed>0.022360679774997897</speed>
  <fix>3d</fix>
</trkpt>
<trkpt lat="33.810313" lon="-118.393867">
  <ele>-0.12</ele>
  <time>2026-09-02T22:07:49Z</time>
  <course>0.0</course>
  <speed>0.0</speed>
  <fix>3d</fix>
</trkpt>
<trkpt lat="33.8103131" lon="-118.3938671">
  <ele>-0.195</ele>
  <time>2026-09-02T22:07:49Z</time>
  <course>186.95</course>
  <speed>0.022360679774997897</speed>
  <fix>3d</fix>
</trkpt>
<trkpt lat="33.810313" lon="-118.393867">
  <ele>-0.12</ele>
  <time>2026-09-02T22:07:49Z</time>
  <course>0.0</course>
  <speed>0.0</speed>
  <fix>3d</fix>
</trkpt>
<trkpt lat="33.8103131" lon="-118.3938671">
  <ele>-0.247</ele>
  <time>2026-09-02T22:07:49Z</time>
  <course>186.95</course>
  <speed>0.01414213562373095</speed>
  <fix>3d</fix>
</trkpt>
<trkpt lat="33.810313" lon="-118.393867">
  <ele>-0.16</ele>
  <time>2026-09-02T22:07:49Z</time>
  <course>0.0</course>
  <speed>0.0</speed>
  <fix>3d</fix>
</trkpt>
<trkpt lat="33.8103131" lon="-118.3938671">
  <ele>-0.248</ele>
  <time>2026-09-02T22:07:49Z</time>
  <course>186.95</course>
  <speed>0.01414213562373095</speed>
  <fix>3d</fix>
</trkpt>
<trkpt lat="33.8103131" lon="-118.3938671">
  <ele>-0.305</ele>
  <time>2026-09-02T22:07:49Z</time>
  <course>186.94</course>
  <speed>0.01414213562373095</speed>
  <fix>3d</fix>
</trkpt>
<trkpt lat="33.810313" lon="-118.393867">
  <ele>-0.16</ele>
  <time>2026-09-02T22:07:49Z</time>
  <course>0.0</course>
  <speed>0.0</speed>
  <fix>3d</fix>
</trkpt>
<trkpt lat="33.8103131" lon="-118.3938671">
  <ele>-0.306</ele>
  <time>2026-09-02T22:07:49Z</time>
  <course>186.94</course>
  <speed>0.01414213562373095</speed>
  <fix>3d</fix>
</trkpt>
<trkpt lat="33.8103131" lon="-118.3938671">
  <ele>-0.367</ele>
  <time>2026-09-02T22:07:49Z</time>
  <course>186.94</course>
  <speed>0.01414213562373095</speed>
  <fix>3d</fix>
</trkpt>
<trkpt lat="33.810313" lon="-118.393867">
  <ele>-0.26</ele>
  <time>2026-09-02T22:07:49Z</time>
  <course>0.0</course>
  <speed>0.0</speed>
  <fix>3d</fix>
</trkpt>
<trkpt lat="33.8103131" lon="-118.3938671">
  <ele>-0.387</ele>
  <time>2026-09-02T22:07:49Z</time>
  <course>186.94</course>
  <speed>0.01414213562373095</speed>
  <fix>3d</fix>
</trkpt>
<trkpt lat="33.8103131" lon="-118.3938671">
  <ele>-0.431</ele>
  <time>2026-09-02T22:07:49Z</time>
  <course>186.94</course>
  <speed>0.01</speed>
  <fix>3d</fix>
</trkpt>
<trkpt lat="33.810313" lon="-118.393867">
  <ele>-0.26</ele>
  <time>2026-09-02T22:07:49Z</time>
  <course>0.0</course>
  <speed>0.0</speed>
  <fix>3d</fix>
</trkpt>
<trkpt lat="33.8103131" lon="-118.3938671">
  <ele>-0.452</ele>
  <time>2026-09-02T22:07:49Z</time>
  <course>186.94</course>
  <speed>0.01</speed>
  <fix>3d</fix>
</trkpt>
<trkpt lat="33.8103131" lon="-118.3938671">
  <ele>-0.496</ele>
  <time>2026-09-02T22:07:49Z</time>
  <course>186.93</course>
  <speed>0.01</speed>
  <fix>3d</fix>
</trkpt>
<trkpt lat="33.810313" lon="-118.393867">
  <ele>-0.37</ele>
  <time>2026-09-02T22:07:49Z</time>
  <course>0.0</course>
  <speed>0.0</speed>
  <fix>3d</fix>
</trkpt>
<trkpt lat="33.8103131" lon="-118.3938671">
  <ele>-0.498</ele>
  <time>2026-09-02T22:07:49Z</time>
  <course>186.93</course>
  <speed>0.01</speed>
  <fix>3d</fix>
</trkpt>
<trkpt lat="33.8103131" lon="-118.3938671">
  <ele>-0.561</ele>
  <time>2026-09-02T22:07:49Z</time>
  <course>186.93</course>
  <speed>0.0</speed>
  <fix>3d</fix>
</trkpt>
<trkpt lat="33.810313" lon="-118.393867">
  <ele>-0.37</ele>
  <time>2026-09-02T22:07:49Z</time>
  <course>0.0</course>
  <speed>0.0</speed>
  <fix>3d</fix>
</trkpt>
<trkpt lat="33.8103131" lon="-118.3938671">
  <ele>-0.582</ele>
  <time>2026-09-02T22:07:49Z</time>
  <course>186.93</course>
  <speed>0.0</speed>
  <fix>3d</fix>
</trkpt>
<trkpt lat="33.8103131" lon="-118.3938671">
  <ele>-0.626</ele>
  <time>2026-09-02T22:07:49Z</time>
  <course>186.92</course>
  <speed>0.0</speed>
  <fix>3d</fix>
</trkpt>
<trkpt lat="33.810313" lon="-118.393867">
  <ele>-0.49</ele>
  <time>2026-09-02T22:07:49Z</time>
  <course>0.0</course>
  <speed>0.0</speed>
  <fix>3d</fix>
</trkpt>
<trkpt lat="33.8103131" lon="-118.3938671">
  <ele>-0.646</ele>
  <time>2026-09-02T22:07:49Z</time>
  <course>186.92</course>
  <speed>0.0</speed>
  <fix>3d</fix>
</trkpt>
<trkpt lat="33.8103131" lon="-118.3938671">
  <ele>-0.689</ele>
  <time>2026-09-02T22:07:49Z</time>
  <course>186.92</course>
  <speed>0.0</speed>
  <fix>3d</fix>
</trkpt>
<trkpt lat="33.810313" lon="-118.393867">
  <ele>-0.49</ele>
  <time>2026-09-02T22:07:49Z</time>
  <course>0.0</course>
  <speed>0.0</speed>
  <fix>3d</fix>
</trkpt>
<trkpt lat="33.8103131" lon="-118.3938671">
  <ele>-0.712</ele>
  <time>2026-09-02T22:07:49Z</time>
  <course>186.92</course>
  <speed>0.0</speed>
  <fix>3d</fix>
</trkpt>
<trkpt lat="33.8103131" lon="-118.3938671">
  <ele>-0.753</ele>
  <time>2026-09-02T22:07:49Z</time>
  <course>184.84</course>
  <speed>0.0</speed>
  <fix>3d</fix>
</trkpt>
<trkpt lat="33.810313" lon="-118.393867">
  <ele>-0.61</ele>
  <time>2026-09-02T22:07:49Z</time>
  <course>0.0</course>
  <speed>0.0</speed>
  <fix>3d</fix>
</trkpt>
<trkpt lat="33.8103131" lon="-118.3938671">
  <ele>-0.754</ele>
  <time>2026-09-02T22:07:49Z</time>
  <course>184.84</course>
  <speed>0.0</speed>
  <fix>3d</fix>
</trkpt>
<trkpt lat="33.8103131" lon="-118.3938671">
  <ele>-0.815</ele>
  <time>2026-09-02T22:07:49Z</time>
  <course>184.84</course>
  <speed>0.0</speed>
  <fix>3d</fix>
</trkpt>
<trkpt lat="33.810313" lon="-118.393867">
  <ele>-0.61</ele>
  <time>2026-09-02T22:07:49Z</time>
  <course>0.0</course>
  <speed>0.0</speed>
  <fix>3d</fix>
</trkpt>
<trkpt lat="33.8103131" lon="-118.3938671">
  <ele>-0.816</ele>
  <time>2026-09-02T22:07:49Z</time>
  <course>184.84</course>
  <speed>0.0</speed>
  <fix>3d</fix>
</trkpt>
<trkpt lat="33.8103131" lon="-118.3938671">
  <ele>-0.878</ele>
  <time>2026-09-02T22:07:49Z</time>
  <course>184.83</course>
  <speed>0.0</speed>
  <fix>3d</fix>
</trkpt>
<trkpt lat="33.810313" lon="-118.393867">
  <ele>-0.73</ele>
  <time>2026-09-02T22:07:49Z</time>
  <course>0.0</course>
  <speed>0.0</speed>
  <fix>3d</fix>
</trkpt>
<trkpt lat="33.8103131" lon="-118.3938671">
  <ele>-0.898</ele>
  <time>2026-09-02T22:07:49Z</time>
  <course>184.84</course>
  <speed>0.0</speed>
  <fix>3d</fix>
</trkpt>
<trkpt lat="33.8103131" lon="-118.3938671">
  <ele>-0.942</ele>
  <time>2026-09-02T22:07:49Z</time>
  <course>184.83</course>
  <speed>0.0</speed>
  <fix>3d</fix>
</trkpt>
<trkpt lat="33.810313" lon="-118.393867">
  <ele>-0.73</ele>
  <time>2026-09-02T22:07:49Z</time>
  <course>0.0</course>
  <speed>0.0</speed>
  <fix>3d</fix>
</trkpt>
<trkpt lat="33.8103131" lon="-118.3938671">
  <ele>-0.943</ele>
  <time>2026-09-02T22:07:49Z</time>
  <course>184.83</course>
  <speed>0.0</speed>
  <fix>3d</fix>
</trkpt>
<trkpt lat="33.8103131" lon="-118.3938671">
  <ele>-1.005</ele>
  <time>2026-09-02T22:07:49Z</time>
  <course>184.84</course>
  <speed>0.0</speed>
  <fix>3d</fix>
</trkpt>
<trkpt lat="33.810313" lon="-118.393867">
  <ele>-0.86</ele>
  <time>2026-09-02T22:07:49Z</time>
  <course>0.0</course>
  <speed>0.0</speed>
  <fix>3d</fix>
</trkpt>
<trkpt lat="33.8103131" lon="-118.3938671">
  <ele>-1.007</ele>
  <time>2026-09-02T22:07:49Z</time>
  <course>184.84</course>
  <speed>0.0</speed>
  <fix>3d</fix>
</trkpt>
<trkpt lat="33.8103131" lon="-118.3938671">
  <ele>-1.068</ele>
  <time>2026-09-02T22:07:49Z</time>
  <course>184.85</course>
  <speed>0.0</speed>
  <fix>3d</fix>
</trkpt>
<trkpt lat="33.810313" lon="-118.393867">
  <ele>-0.86</ele>
  <time>2026-09-02T22:07:49Z</time>
  <course>0.0</course>
  <speed>0.0</speed>
  <fix>3d</fix>
</trkpt>
<trkpt lat="33.8103131" lon="-118.3938671">
  <ele>-1.089</ele>
  <time>2026-09-02T22:07:49Z</time>
  <course>184.86</course>
  <speed>0.0</speed>
  <fix>3d</fix>
</trkpt>
<trkpt lat="33.8103131" lon="-118.3938671">
  <ele>-1.131</ele>
  <time>2026-09-02T22:07:49Z</time>
  <course>184.86</course>
  <speed>0.0</speed>
  <fix>3d</fix>
</trkpt>
<trkpt lat="33.810313" lon="-118.393867">
  <ele>-0.98</ele>
  <time>2026-09-02T22:07:49Z</time>
  <course>0.0</course>
  <speed>0.0</speed>
  <fix>3d</fix>
</trkpt>
<trkpt lat="33.8103131" lon="-118.3938671">
  <ele>-1.133</ele>
  <time>2026-09-02T22:07:49Z</time>
  <course>184.86</course>
  <speed>0.0</speed>
  <fix>3d</fix>
</trkpt>
<trkpt lat="33.8103131" lon="-118.3938671">
  <ele>-1.193</ele>
  <time>2026-09-02T22:07:49Z</time>
  <course>184.87</course>
  <speed>0.0</speed>
  <fix>3d</fix>
</trkpt>
<trkpt lat="33.810313" lon="-118.393867">
  <ele>-0.98</ele>
  <time>2026-09-02T22:07:49Z</time>
  <course>0.0</course>
  <speed>0.0</speed>
  <fix>3d</fix>
</trkpt>
<trkpt lat="33.8103131" lon="-118.3938671">
  <ele>-1.213</ele>
  <time>2026-09-02T22:07:49Z</time>
  <course>184.87</course>
  <speed>0.0</speed>
  <fix>3d</fix>
</trkpt>
<trkpt lat="33.8103131" lon="-118.3938671">
  <ele>-1.254</ele>
  <time>2026-09-02T22:07:49Z</time>
  <course>184.88</course>
  <speed>0.0</speed>
  <fix>3d</fix>
</trkpt>
<trkpt lat="33.810313" lon="-118.393867">
  <ele>-1.09</ele>
  <time>2026-09-02T22:07:49Z</time>
  <course>0.0</course>
  <speed>0.0</speed>
  <fix>3d</fix>
</trkpt>
<trkpt lat="33.8103131" lon="-118.3938671">
  <ele>-1.274</ele>
  <time>2026-09-02T22:07:49Z</time>
  <course>184.88</course>
  <speed>0.0</speed>
  <fix>3d</fix>
</trkpt>
<trkpt lat="33.8103131" lon="-118.3938671">
  <ele>-1.314</ele>
  <time>2026-09-02T22:07:49Z</time>
  <course>184.89</course>
  <speed>0.0</speed>
  <fix>3d</fix>
</trkpt>
<trkpt lat="33.810313" lon="-118.393867">
  <ele>-1.09</ele>
  <time>2026-09-02T22:07:49Z</time>
  <course>0.0</course>
  <speed>0.0</speed>
  <fix>3d</fix>
</trkpt>
<trkpt lat="33.8103131" lon="-118.3938671">
  <ele>-1.334</ele>
  <time>2026-09-02T22:07:49Z</time>
  <course>184.89</course>
  <speed>0.0</speed>
  <fix>3d</fix>
</trkpt>
<trkpt lat="33.8103131" lon="-118.3938671">
  <ele>-1.374</ele>
  <time>2026-09-02T22:07:49Z</time>
  <course>184.9</course>
  <speed>0.0</speed>
  <fix>3d</fix>
</trkpt>
<trkpt lat="33.810313" lon="-118.393867">
  <ele>-1.22</ele>
  <time>2026-09-02T22:07:49Z</time>
  <course>0.0</course>
  <speed>0.0</speed>
  <fix>3d</fix>
</trkpt>
<trkpt lat="33.8103131" lon="-118.3938671">
  <ele>-1.394</ele>
  <time>2026-09-02T22:07:49Z</time>
  <course>184.9</course>
  <speed>0.0</speed>
  <fix>3d</fix>
</trkpt>
<trkpt lat="33.8103131" lon="-118.393867">
  <ele>-1.435</ele>
  <time>2026-09-02T22:07:49Z</time>
  <course>184.91</course>
  <speed>0.0</speed>
  <fix>3d</fix>
</trkpt>
<trkpt lat="33.810313" lon="-118.393867">
  <ele>-1.22</ele>
  <time>2026-09-02T22:07:49Z</time>
  <course>0.0</course>
  <speed>0.0</speed>
  <fix>3d</fix>
</trkpt>
<trkpt lat="33.8103131" lon="-118.393867">
  <ele>-1.436</ele>
  <time>2026-09-02T22:07:49Z</time>
  <course>184.91</course>
  <speed>0.0</speed>
  <fix>3d</fix>
</trkpt>
<trkpt lat="33.810313" lon="-118.393867">
  <ele>-1.496</ele>
  <time>2026-09-02T22:07:49Z</time>
  <course>184.92</course>
  <speed>0.0</speed>
  <fix>3d</fix>
</trkpt>
<trkpt lat="33.810313" lon="-118.393867">
  <ele>-1.33</ele>
  <time>2026-09-02T22:07:49Z</time>
  <course>0.0</course>
  <speed>0.0</speed>
  <fix>3d</fix>
</trkpt>
<trkpt lat="33.810313" lon="-118.393867">
  <ele>-1.516</ele>
  <time>2026-09-02T22:07:49Z</time>
  <course>184.92</course>
  <speed>0.0</speed>
  <fix>3d</fix>
</trkpt>
<trkpt lat="33.810313" lon="-118.393867">
  <ele>-1.558</ele>
  <time>2026-09-02T22:07:49Z</time>
  <course>184.93</course>
  <speed>0.0</speed>
  <fix>3d</fix>
</trkpt>
<trkpt lat="33.810313" lon="-118.393867">
  <ele>-1.33</ele>
  <time>2026-09-02T22:07:49Z</time>
  <course>0.0</course>
  <speed>0.0</speed>
  <fix>3d</fix>
</trkpt>
<trkpt lat="33.810313" lon="-118.393867">
  <ele>-1.579</ele>
  <time>2026-09-02T22:07:49Z</time>
  <course>184.93</course>
  <speed>0.0</speed>
  <fix>3d</fix>
</trkpt>
<trkpt lat="33.810313" lon="-118.393867">
  <ele>-1.621</ele>
  <time>2026-09-02T22:07:49Z</time>
  <course>184.94</course>
  <speed>0.0</speed>
  <fix>3d</fix>
</trkpt>
<trkpt lat="33.810313" lon="-118.393867">
  <ele>-1.46</ele>
  <time>2026-09-02T22:07:49Z</time>
  <course>0.0</course>
  <speed>0.0</speed>
  <fix>3d</fix>
</trkpt>
<trkpt lat="33.810313" lon="-118.393867">
  <ele>-1.623</ele>
  <time>2026-09-02T22:07:49Z</time>
  <course>184.94</course>
  <speed>0.0</speed>
  <fix>3d</fix>
</trkpt>
<trkpt lat="33.810313" lon="-118.393867">
  <ele>-1.683</ele>
  <time>2026-09-02T22:07:49Z</time>
  <course>184.95</course>
  <speed>0.0</speed>
  <fix>3d</fix>
</trkpt>
<trkpt lat="33.810313" lon="-118.393867">
  <ele>-1.46</ele>
  <time>2026-09-02T22:07:49Z</time>
  <course>0.0</course>
  <speed>0.0</speed>
  <fix>3d</fix>
</trkpt>
<trkpt lat="33.810313" lon="-118.393867">
  <ele>-1.685</ele>
  <time>2026-09-02T22:07:49Z</time>
  <course>184.95</course>
  <speed>0.0</speed>
  <fix>3d</fix>
</trkpt>
<trkpt lat="33.810313" lon="-118.393867">
  <ele>-1.747</ele>
  <time>2026-09-02T22:07:49Z</time>
  <course>184.96</course>
  <speed>0.0</speed>
  <fix>3d</fix>
</trkpt>
<trkpt lat="33.810313" lon="-118.393867">
  <ele>-1.57</ele>
  <time>2026-09-02T22:07:49Z</time>
  <course>0.0</course>
  <speed>0.0</speed>
  <fix>3d</fix>
</trkpt>
<trkpt lat="33.810313" lon="-118.393867">
  <ele>-1.749</ele>
  <time>2026-09-02T22:07:49Z</time>
  <course>184.96</course>
  <speed>0.0</speed>
  <fix>3d</fix>
</trkpt>
<trkpt lat="33.810313" lon="-118.393867">
  <ele>-1.812</ele>
  <time>2026-09-02T22:07:49Z</time>
  <course>184.97</course>
  <speed>0.0</speed>
  <fix>3d</fix>
</trkpt>
<trkpt lat="33.810313" lon="-118.393867">
  <ele>-1.57</ele>
  <time>2026-09-02T22:07:49Z</time>
  <course>0.0</course>
  <speed>0.0</speed>
  <fix>3d</fix>
</trkpt>
<trkpt lat="33.810313" lon="-118.393867">
  <ele>-1.832</ele>
  <time>2026-09-02T22:07:49Z</time>
  <course>184.97</course>
  <speed>0.0</speed>
  <fix>3d</fix>
</trkpt>
<trkpt lat="33.810313" lon="-118.393867">
  <ele>-1.877</ele>
  <time>2026-09-02T22:07:49Z</time>
  <course>184.98</course>
  <speed>0.0</speed>
  <fix>3d</fix>
</trkpt>
<trkpt lat="33.810313" lon="-118.393867">
  <ele>-1.7</ele>
  <time>2026-09-02T22:07:49Z</time>
  <course>0.0</course>
  <speed>0.0</speed>
  <fix>3d</fix>
</trkpt>
<trkpt lat="33.810313" lon="-118.393867">
  <ele>-1.899</ele>
  <time>2026-09-02T22:07:49Z</time>
  <course>184.98</course>
  <speed>0.0</speed>
  <fix>3d</fix>
</trkpt>
<trkpt lat="33.810313" lon="-118.393867">
  <ele>-1.941</ele>
  <time>2026-09-02T22:07:49Z</time>
  <course>184.99</course>
  <speed>0.0</speed>
  <fix>3d</fix>
</trkpt>
<trkpt lat="33.810313" lon="-118.393867">
  <ele>-1.7</ele>
  <time>2026-09-02T22:07:49Z</time>
  <course>0.0</course>
  <speed>0.0</speed>
  <fix>3d</fix>
</trkpt>
<trkpt lat="33.810313" lon="-118.393867">
  <ele>-1.963</ele>
  <time>2026-09-02T22:07:49Z</time>
  <course>184.99</course>
  <speed>0.0</speed>
  <fix>3d</fix>
</trkpt>
<trkpt lat="33.810313" lon="-118.393867">
  <ele>-2.005</ele>
  <time>2026-09-02T22:07:49Z</time>
  <course>185.0</course>
  <speed>0.0</speed>
  <fix>3d</fix>
</trkpt>
<trkpt lat="33.810313" lon="-118.393867">
  <ele>-1.81</ele>
  <time>2026-09-02T22:07:49Z</time>
  <course>0.0</course>
  <speed>0.0</speed>
  <fix>3d</fix>
</trkpt>
<trkpt lat="33.810313" lon="-118.393867">
  <ele>-2.025</ele>
  <time>2026-09-02T22:07:49Z</time>
  <course>185.0</course>
  <speed>0.0</speed>
  <fix>3d</fix>
</trkpt>
<trkpt lat="33.810313" lon="-118.393867">
  <ele>-2.067</ele>
  <time>2026-09-02T22:07:49Z</time>
  <course>185.01</course>
  <speed>0.0</speed>
  <fix>3d</fix>
</trkpt>
<trkpt lat="33.810313" lon="-118.393867">
  <ele>-1.81</ele>
  <time>2026-09-02T22:07:49Z</time>
  <course>0.0</course>
  <speed>0.0</speed>
  <fix>3d</fix>
</trkpt>
<trkpt lat="33.810313" lon="-118.393867">
  <ele>-2.087</ele>
  <time>2026-09-02T22:07:49Z</time>
  <course>185.01</course>
  <speed>0.0</speed>
  <fix>3d</fix>
</trkpt>
<trkpt lat="33.810313" lon="-118.393867">
  <ele>-2.129</ele>
  <time>2026-09-02T22:07:49Z</time>
  <course>185.02</course>
  <speed>0.0</speed>
  <fix>3d</fix>
</trkpt>
<trkpt lat="33.810313" lon="-118.393867">
  <ele>-1.94</ele>
  <time>2026-09-02T22:07:49Z</time>
  <course>0.0</course>
  <speed>0.0</speed>
  <fix>3d</fix>
</trkpt>
<trkpt lat="33.810313" lon="-118.393867">
  <ele>-2.149</ele>
  <time>2026-09-02T22:07:49Z</time>
  <course>185.02</course>
  <speed>0.0</speed>
  <fix>3d</fix>
</trkpt>
<trkpt lat="33.810313" lon="-118.393867">
  <ele>-2.19</ele>
  <time>2026-09-02T22:07:49Z</time>
  <course>185.02</course>
  <speed>0.0</speed>
  <fix>3d</fix>
</trkpt>
<trkpt lat="33.810313" lon="-118.393867">
  <ele>-1.94</ele>
  <time>2026-09-02T22:07:49Z</time>
  <course>0.0</course>
  <speed>0.0</speed>
  <fix>3d</fix>
</trkpt>
<trkpt lat="33.810313" lon="-118.393867">
  <ele>-2.211</ele>
  <time>2026-09-02T22:07:49Z</time>
  <course>185.03</course>
  <speed>0.0</speed>
  <fix>3d</fix>
</trkpt>
<trkpt lat="33.810313" lon="-118.393867">
  <ele>-2.25</ele>
  <time>2026-09-02T22:07:49Z</time>
  <course>185.03</course>
  <speed>0.0</speed>
  <fix>3d</fix>
</trkpt>
<trkpt lat="33.810313" lon="-118.393867">
  <ele>-2.06</ele>
  <time>2026-09-02T22:07:49Z</time>
  <course>0.0</course>
  <speed>0.0</speed>
  <fix>3d</fix>
</trkpt>
<trkpt lat="33.810313" lon="-118.393867">
  <ele>-2.269</ele>
  <time>2026-09-02T22:07:49Z</time>
  <course>185.04</course>
  <speed>0.0</speed>
  <fix>3d</fix>
</trkpt>
<trkpt lat="33.810313" lon="-118.393867">
  <ele>-2.311</ele>
  <time>2026-09-02T22:07:49Z</time>
  <course>185.04</course>
  <speed>0.0</speed>
  <fix>3d</fix>
</trkpt>
<trkpt lat="33.810313" lon="-118.393867">
  <ele>-2.06</ele>
  <time>2026-09-02T22:07:49Z</time>
  <course>0.0</course>
  <speed>0.0</speed>
  <fix>3d</fix>
</trkpt>
<trkpt lat="33.810313" lon="-118.393867">
  <ele>-2.313</ele>
  <time>2026-09-02T22:07:49Z</time>
  <course>185.04</course>
  <speed>0.0</speed>
  <fix>3d</fix>
</trkpt>
<trkpt lat="33.810313" lon="-118.393867">
  <ele>-2.373</ele>
  <time>2026-09-02T22:07:49Z</time>
  <course>185.05</course>
  <speed>0.0</speed>
  <fix>3d</fix>
</trkpt>
<trkpt lat="33.810313" lon="-118.393867">
  <ele>-2.17</ele>
  <time>2026-09-02T22:07:49Z</time>
  <course>0.0</course>
  <speed>0.0</speed>
  <fix>3d</fix>
</trkpt>
<trkpt lat="33.810313" lon="-118.393867">
  <ele>-2.393</ele>
  <time>2026-09-02T22:07:49Z</time>
  <course>185.06</course>
  <speed>0.0</speed>
  <fix>3d</fix>
</trkpt>
<trkpt lat="33.810313" lon="-118.3938671">
  <ele>-2.436</ele>
  <time>2026-09-02T22:07:49Z</time>
  <course>185.06</course>
  <speed>0.0</speed>
  <fix>3d</fix>
</trkpt>
<trkpt lat="33.810313" lon="-118.393867">
  <ele>-2.17</ele>
  <time>2026-09-02T22:07:49Z</time>
  <course>0.0</course>
  <speed>0.0</speed>
  <fix>3d</fix>
</trkpt>
<trkpt lat="33.8103131" lon="-118.3938671">
  <ele>-2.456</ele>
  <time>2026-09-02T22:07:49Z</time>
  <course>185.07</course>
  <speed>0.0</speed>
  <fix>3d</fix>
</trkpt>
<trkpt lat="33.8103131" lon="-118.3938671">
  <ele>-2.498</ele>
  <time>2026-09-02T22:07:49Z</time>
  <course>185.07</course>
  <speed>0.0</speed>
  <fix>3d</fix>
</trkpt>
<trkpt lat="33.810313" lon="-118.393867">
  <ele>-2.3</ele>
  <time>2026-09-02T22:07:49Z</time>
  <course>0.0</course>
  <speed>0.0</speed>
  <fix>3d</fix>
</trkpt>
<trkpt lat="33.8103131" lon="-118.3938671">
  <ele>-2.518</ele>
  <time>2026-09-02T22:07:49Z</time>
  <course>185.08</course>
  <speed>0.0</speed>
  <fix>3d</fix>
</trkpt>
<trkpt lat="33.8103131" lon="-118.3938671">
  <ele>-2.561</ele>
  <time>2026-09-02T22:07:49Z</time>
  <course>185.08</course>
  <speed>0.0</speed>
  <fix>3d</fix>
</trkpt>
<trkpt lat="33.810313" lon="-118.393867">
  <ele>-2.3</ele>
  <time>2026-09-02T22:07:49Z</time>
  <course>0.0</course>
  <speed>0.0</speed>
  <fix>3d</fix>
</trkpt>
<trkpt lat="33.8103131" lon="-118.3938671">
  <ele>-2.581</ele>
  <time>2026-09-02T22:07:49Z</time>
  <course>185.08</course>
  <speed>0.0</speed>
  <fix>3d</fix>
</trkpt>
<trkpt lat="33.8103131" lon="-118.3938671">
  <ele>-2.624</ele>
  <time>2026-09-02T22:07:49Z</time>
  <course>185.09</course>
  <speed>0.0</speed>
  <fix>3d</fix>
</trkpt>
<trkpt lat="33.810313" lon="-118.393867">
  <ele>-2.42</ele>
  <time>2026-09-02T22:07:49Z</time>
  <course>0.0</course>
  <speed>0.0</speed>
  <fix>3d</fix>
</trkpt>
<trkpt lat="33.8103131" lon="-118.3938671">
  <ele>-2.643</ele>
  <time>2026-09-02T22:07:49Z</time>
  <course>185.09</course>
  <speed>0.0</speed>
  <fix>3d</fix>
</trkpt>
<trkpt lat="33.8103131" lon="-118.3938671">
  <ele>-2.687</ele>
  <time>2026-09-02T22:07:49Z</time>
  <course>185.1</course>
  <speed>0.0</speed>
  <fix>3d</fix>
</trkpt>
<trkpt lat="33.810313" lon="-118.393867">
  <ele>-2.42</ele>
  <time>2026-09-02T22:07:49Z</time>
  <course>0.0</course>
  <speed>0.0</speed>
  <fix>3d</fix>
</trkpt>
<trkpt lat="33.8103131" lon="-118.3938671">
  <ele>-2.708</ele>
  <time>2026-09-02T22:07:49Z</time>
  <course>185.1</course>
  <speed>0.0</speed>
  <fix>3d</fix>
</trkpt>
<trkpt lat="33.8103131" lon="-118.3938671">
  <ele>-2.75</ele>
  <time>2026-09-02T22:07:49Z</time>
  <course>185.11</course>
  <speed>0.0</speed>
  <fix>3d</fix>
</trkpt>
<trkpt lat="33.810313" lon="-118.393867">
  <ele>-2.54</ele>
  <time>2026-09-02T22:07:49Z</time>
  <course>0.0</course>
  <speed>0.0</speed>
  <fix>3d</fix>
</trkpt>
<trkpt lat="33.8103131" lon="-118.3938671">
  <ele>-2.77</ele>
  <time>2026-09-02T22:07:49Z</time>
  <course>185.11</course>
  <speed>0.0</speed>
  <fix>3d</fix>
</trkpt>
<trkpt lat="33.8103131" lon="-118.3938671">
  <ele>-2.812</ele>
  <time>2026-09-02T22:07:49Z</time>
  <course>185.12</course>
  <speed>0.0</speed>
  <fix>3d</fix>
</trkpt>
<trkpt lat="33.810313" lon="-118.393867">
  <ele>-2.54</ele>
  <time>2026-09-02T22:07:49Z</time>
  <course>0.0</course>
  <speed>0.0</speed>
  <fix>3d</fix>
</trkpt>
<trkpt lat="33.8103131" lon="-118.3938671">
  <ele>-2.833</ele>
  <time>2026-09-02T22:07:49Z</time>
  <course>185.12</course>
  <speed>0.0</speed>
  <fix>3d</fix>
</trkpt>
<trkpt lat="33.8103131" lon="-118.3938671">
  <ele>-2.874</ele>
  <time>2026-09-02T22:07:49Z</time>
  <course>185.13</course>
  <speed>0.0</speed>
  <fix>3d</fix>
</trkpt>
<trkpt lat="33.810313" lon="-118.393867">
  <ele>-2.67</ele>
  <time>2026-09-02T22:07:49Z</time>
  <course>0.0</course>
  <speed>0.0</speed>
  <fix>3d</fix>
</trkpt>
<trkpt lat="33.8103131" lon="-118.3938671">
  <ele>-2.894</ele>
  <time>2026-09-02T22:07:49Z</time>
  <course>185.13</course>
  <speed>0.0</speed>
  <fix>3d</fix>
</trkpt>
<trkpt lat="33.8103131" lon="-118.3938671">
  <ele>-2.935</ele>
  <time>2026-09-02T22:07:49Z</time>
  <course>185.14</course>
  <speed>0.0</speed>
  <fix>3d</fix>
</trkpt>
<trkpt lat="33.810313" lon="-118.393867">
  <ele>-2.67</ele>
  <time>2026-09-02T22:07:49Z</time>
  <course>0.0</course>
  <speed>0.0</speed>
  <fix>3d</fix>
</trkpt>
<trkpt lat="33.8103131" lon="-118.3938671">
  <ele>-2.937</ele>
  <time>2026-09-02T22:07:49Z</time>
  <course>185.14</course>
  <speed>0.0</speed>
  <fix>3d</fix>
</trkpt>
<trkpt lat="33.8103131" lon="-118.3938671">
  <ele>-2.995</ele>
  <time>2026-09-02T22:07:49Z</time>
  <course>185.15</course>
  <speed>0.0</speed>
  <fix>3d</fix>
</trkpt>
<trkpt lat="33.810313" lon="-118.393867">
  <ele>-2.79</ele>
  <time>2026-09-02T22:07:49Z</time>
  <course>0.0</course>
  <speed>0.0</speed>
  <fix>3d</fix>
</trkpt>
<trkpt lat="33.8103131" lon="-118.3938671">
  <ele>-3.015</ele>
  <time>2026-09-02T22:07:49Z</time>
  <course>185.15</course>
  <speed>0.0</speed>
  <fix>3d</fix>
</trkpt>
<trkpt lat="33.8103131" lon="-118.3938671">
  <ele>-3.055</ele>
  <time>2026-09-02T22:07:49Z</time>
  <course>185.16</course>
  <speed>0.0</speed>
  <fix>3d</fix>
</trkpt>
<trkpt lat="33.810313" lon="-118.393867">
  <ele>-2.79</ele>
  <time>2026-09-02T22:07:49Z</time>
  <course>0.0</course>
  <speed>0.0</speed>
  <fix>3d</fix>
</trkpt>
<trkpt lat="33.8103131" lon="-118.3938671">
  <ele>-3.056</ele>
  <time>2026-09-02T22:07:49Z</time>
  <course>185.16</course>
  <speed>0.0</speed>
  <fix>3d</fix>
</trkpt>
<trkpt lat="33.8103131" lon="-118.3938671">
  <ele>-3.114</ele>
  <time>2026-09-02T22:07:49Z</time>
  <course>185.17</course>
  <speed>0.0</speed>
  <fix>3d</fix>
</trkpt>
<trkpt lat="33.810313" lon="-118.393867">
  <ele>-2.9</ele>
  <time>2026-09-02T22:07:49Z</time>
  <course>0.0</course>
  <speed>0.0</speed>
  <fix>3d</fix>
</trkpt>
<trkpt lat="33.8103131" lon="-118.3938671">
  <ele>-3.115</ele>
  <time>2026-09-02T22:07:49Z</time>
  <course>185.17</course>
  <speed>0.0</speed>
  <fix>3d</fix>
</trkpt>
<trkpt lat="33.8103131" lon="-118.3938671">
  <ele>-3.174</ele>
  <time>2026-09-02T22:07:49Z</time>
  <course>185.18</course>
  <speed>0.0</speed>
  <fix>3d</fix>
</trkpt>
<trkpt lat="33.810313" lon="-118.393867">
  <ele>-2.9</ele>
  <time>2026-09-02T22:07:49Z</time>
  <course>0.0</course>
  <speed>0.0</speed>
  <fix>3d</fix>
</trkpt>
<trkpt lat="33.8103131" lon="-118.3938671">
  <ele>-3.195</ele>
  <time>2026-09-02T22:07:49Z</time>
  <course>185.18</course>
  <speed>0.0</speed>
  <fix>3d</fix>
</trkpt>
<trkpt lat="33.8103131" lon="-118.3938671">
  <ele>-3.235</ele>
  <time>2026-09-02T22:07:49Z</time>
  <course>185.19</course>
  <speed>0.0</speed>
  <fix>3d</fix>
</trkpt>
<trkpt lat="33.810313" lon="-118.393867">
  <ele>-3.03</ele>
  <time>2026-09-02T22:07:49Z</time>
  <course>0.0</course>
  <speed>0.0</speed>
  <fix>3d</fix>
</trkpt>
<trkpt lat="33.8103131" lon="-118.3938671">
  <ele>-3.236</ele>
  <time>2026-09-02T22:07:49Z</time>
  <course>185.19</course>
  <speed>0.0</speed>
  <fix>3d</fix>
</trkpt>
<trkpt lat="33.8103131" lon="-118.3938671">
  <ele>-3.296</ele>
  <time>2026-09-02T22:07:49Z</time>
  <course>185.2</course>
  <speed>0.0</speed>
  <fix>3d</fix>
</trkpt>
<trkpt lat="33.810313" lon="-118.393867">
  <ele>-3.03</ele>
  <time>2026-09-02T22:07:49Z</time>
  <course>0.0</course>
  <speed>0.0</speed>
  <fix>3d</fix>
</trkpt>
<trkpt lat="33.8103131" lon="-118.3938671">
  <ele>-3.316</ele>
  <time>2026-09-02T22:07:49Z</time>
  <course>185.2</course>
  <speed>0.0</speed>
  <fix>3d</fix>
</trkpt>
<trkpt lat="33.8103131" lon="-118.3938671">
  <ele>-3.358</ele>
  <time>2026-09-02T22:07:49Z</time>
  <course>185.21</course>
  <speed>0.0</speed>
  <fix>3d</fix>
</trkpt>
<trkpt lat="33.810313" lon="-118.393867">
  <ele>-3.15</ele>
  <time>2026-09-02T22:07:49Z</time>
  <course>0.0</course>
  <speed>0.0</speed>
  <fix>3d</fix>
</trkpt>
<trkpt lat="33.8103131" lon="-118.3938671">
  <ele>-3.378</ele>
  <time>2026-09-02T22:07:49Z</time>
  <course>185.21</course>
  <speed>0.01</speed>
  <fix>3d</fix>
</trkpt>
<trkpt lat="33.8103131" lon="-118.3938671">
  <ele>-3.421</ele>
  <time>2026-09-02T22:07:49Z</time>
  <course>185.22</course>
  <speed>0.01</speed>
  <fix>3d</fix>
</trkpt>
<trkpt lat="33.810313" lon="-118.393867">
  <ele>-3.15</ele>
  <time>2026-09-02T22:07:49Z</time>
  <course>0.0</course>
  <speed>0.0</speed>
  <fix>3d</fix>
</trkpt>
<trkpt lat="33.8103131" lon="-118.3938671">
  <ele>-3.441</ele>
  <time>2026-09-02T22:07:49Z</time>
  <course>185.22</course>
  <speed>0.01</speed>
  <fix>3d</fix>
</trkpt>
<trkpt lat="33.8103131" lon="-118.3938671">
  <ele>-3.485</ele>
  <time>2026-09-02T22:07:49Z</time>
  <course>185.23</course>
  <speed>0.01</speed>
  <fix>3d</fix>
</trkpt>
<trkpt lat="33.810313" lon="-118.393867">
  <ele>-3.27</ele>
  <time>2026-09-02T22:07:49Z</time>
  <course>0.0</course>
  <speed>0.0</speed>
  <fix>3d</fix>
</trkpt>
<trkpt lat="33.8103131" lon="-118.3938671">
  <ele>-3.505</ele>
  <time>2026-09-02T22:07:49Z</time>
  <course>185.23</course>
  <speed>0.01</speed>
  <fix>3d</fix>
</trkpt>
<trkpt lat="33.8103131" lon="-118.3938671">
  <ele>-3.548</ele>
  <time>2026-09-02T22:07:49Z</time>
  <course>185.24</course>
  <speed>0.01</speed>
  <fix>3d</fix>
</trkpt>
<trkpt lat="33.810313" lon="-118.393867">
  <ele>-3.27</ele>
  <time>2026-09-02T22:07:49Z</time>
  <course>0.0</course>
  <speed>0.0</speed>
  <fix>3d</fix>
</trkpt>
<trkpt lat="33.8103131" lon="-118.3938671">
  <ele>-3.568</ele>
  <time>2026-09-02T22:07:49Z</time>
  <course>185.24</course>
  <speed>0.01</speed>
  <fix>3d</fix>
</trkpt>
<trkpt lat="33.8103131" lon="-118.3938671">
  <ele>-3.611</ele>
  <time>2026-09-02T22:07:49Z</time>
  <course>185.25</course>
  <speed>0.01414213562373095</speed>
  <fix>3d</fix>
</trkpt>
<trkpt lat="33.810313" lon="-118.393867">
  <ele>-3.38</ele>
  <time>2026-09-02T22:07:49Z</time>
  <course>0.0</course>
  <speed>0.0</speed>
  <fix>3d</fix>
</trkpt>
<trkpt lat="33.8103131" lon="-118.3938671">
  <ele>-3.613</ele>
  <time>2026-09-02T22:07:49Z</time>
  <course>185.25</course>
  <speed>0.01414213562373095</speed>
  <fix>3d</fix>
</trkpt>
<trkpt lat="33.8103131" lon="-118.3938671">
  <ele>-3.674</ele>
  <time>2026-09-02T22:07:49Z</time>
  <course>185.26</course>
  <speed>0.01414213562373095</speed>
  <fix>3d</fix>
</trkpt>
<trkpt lat="33.810313" lon="-118.393867">
  <ele>-3.38</ele>
  <time>2026-09-02T22:07:49Z</time>
  <course>0.0</course>
  <speed>0.0</speed>
  <fix>3d</fix>
</trkpt>
<trkpt lat="33.8103131" lon="-118.3938671">
  <ele>-3.675</ele>
  <time>2026-09-02T22:07:49Z</time>
  <course>185.26</course>
  <speed>0.01414213562373095</speed>
  <fix>3d</fix>
</trkpt>
<trkpt lat="33.8103131" lon="-118.3938671">
  <ele>-3.736</ele>
  <time>2026-09-02T22:07:49Z</time>
  <course>185.27</course>
  <speed>0.01414213562373095</speed>
  <fix>3d</fix>
</trkpt>
<trkpt lat="33.810313" lon="-118.393867">
  <ele>-3.51</ele>
  <time>2026-09-02T22:07:49Z</time>
  <course>0.0</course>
  <speed>0.0</speed>
  <fix>3d</fix>
</trkpt>
<trkpt lat="33.8103131" lon="-118.3938671">
  <ele>-3.738</ele>
  <time>2026-09-02T22:07:49Z</time>
  <course>185.27</course>
  <speed>0.01414213562373095</speed>
  <fix>3d</fix>
</trkpt>
<trkpt lat="33.8103131" lon="-118.3938671">
  <ele>-3.799</ele>
  <time>2026-09-02T22:07:49Z</time>
  <course>185.28</course>
  <speed>0.01414213562373095</speed>
  <fix>3d</fix>
</trkpt>
<trkpt lat="33.810313" lon="-118.393867">
  <ele>-3.51</ele>
  <time>2026-09-02T22:07:49Z</time>
  <course>0.0</course>
  <speed>0.0</speed>
  <fix>3d</fix>
</trkpt>
<trkpt lat="33.8103131" lon="-118.3938671">
  <ele>-3.819</ele>
  <time>2026-09-02T22:07:49Z</time>
  <course>185.28</course>
  <speed>0.01414213562373095</speed>
  <fix>3d</fix>
</trkpt>
<trkpt lat="33.8103131" lon="-118.3938671">
  <ele>-3.861</ele>
  <time>2026-09-02T22:07:49Z</time>
  <course>185.29</course>
  <speed>0.01414213562373095</speed>
  <fix>3d</fix>
</trkpt>
<trkpt lat="33.810313" lon="-118.393867">
  <ele>-3.63</ele>
  <time>2026-09-02T22:07:49Z</time>
  <course>0.0</course>
  <speed>0.0</speed>
  <fix>3d</fix>
</trkpt>
<trkpt lat="33.8103131" lon="-118.3938671">
  <ele>-3.881</ele>
  <time>2026-09-02T22:07:49Z</time>
  <course>185.29</course>
  <speed>0.01414213562373095</speed>
  <fix>3d</fix>
</trkpt>
<trkpt lat="33.8103131" lon="-118.3938671">
  <ele>-3.923</ele>
  <time>2026-09-02T22:07:49Z</time>
  <course>185.3</course>
  <speed>0.01414213562373095</speed>
  <fix>3d</fix>
</trkpt>
<trkpt lat="33.810313" lon="-118.393867">
  <ele>-3.63</ele>
  <time>2026-09-02T22:07:49Z</time>
  <course>0.0</course>
  <speed>0.0</speed>
  <fix>3d</fix>
</trkpt>
<trkpt lat="33.8103131" lon="-118.3938671">
  <ele>-3.943</ele>
  <time>2026-09-02T22:07:49Z</time>
  <course>185.3</course>
  <speed>0.01414213562373095</speed>
  <fix>3d</fix>
</trkpt>
<trkpt lat="33.8103131" lon="-118.3938671">
  <ele>-3.986</ele>
  <time>2026-09-02T22:07:49Z</time>
  <course>185.31</course>
  <speed>0.01414213562373095</speed>
  <fix>3d</fix>
</trkpt>
<trkpt lat="33.810313" lon="-118.393867">
  <ele>-3.75</ele>
  <time>2026-09-02T22:07:49Z</time>
  <course>0.0</course>
  <speed>0.0</speed>
  <fix>3d</fix>
</trkpt>
<trkpt lat="33.8103131" lon="-118.3938671">
  <ele>-3.987</ele>
  <time>2026-09-02T22:07:49Z</time>
  <course>185.31</course>
  <speed>0.01414213562373095</speed>
  <fix>3d</fix>
</trkpt>
<trkpt lat="33.8103131" lon="-118.3938671">
  <ele>-4.049</ele>
  <time>2026-09-02T22:07:49Z</time>
  <course>185.32</course>
  <speed>0.01414213562373095</speed>
  <fix>3d</fix>
</trkpt>
<trkpt lat="33.810313" lon="-118.393867">
  <ele>-3.75</ele>
  <time>2026-09-02T22:07:49Z</time>
  <course>0.0</course>
  <speed>0.0</speed>
  <fix>3d</fix>
</trkpt>
<trkpt lat="33.8103131" lon="-118.3938671">
  <ele>-4.069</ele>
  <time>2026-09-02T22:07:49Z</time>
  <course>185.32</course>
  <speed>0.01414213562373095</speed>
  <fix>3d</fix>
</trkpt>
<trkpt lat="33.8103131" lon="-118.3938671">
  <ele>-4.112</ele>
  <time>2026-09-02T22:07:49Z</time>
  <course>185.33</course>
  <speed>0.01414213562373095</speed>
  <fix>3d</fix>
</trkpt>
<trkpt lat="33.810313" lon="-118.393867">
  <ele>-3.87</ele>
  <time>2026-09-02T22:07:49Z</time>
  <course>0.0</course>
  <speed>0.0</speed>
  <fix>3d</fix>
</trkpt>
<trkpt lat="33.8103131" lon="-118.3938671">
  <ele>-4.135</ele>
  <time>2026-09-02T22:07:49Z</time>
  <course>185.33</course>
  <speed>0.01414213562373095</speed>
  <fix>3d</fix>
</trkpt>
<trkpt lat="33.8103131" lon="-118.3938671">
  <ele>-4.176</ele>
  <time>2026-09-02T22:07:49Z</time>
  <course>185.34</course>
  <speed>0.01414213562373095</speed>
  <fix>3d</fix>
</trkpt>
<trkpt lat="33.810313" lon="-118.393867">
  <ele>-3.87</ele>
  <time>2026-09-02T22:07:49Z</time>
  <course>0.0</course>
  <speed>0.0</speed>
  <fix>3d</fix>
</trkpt>
<trkpt lat="33.8103131" lon="-118.3938671">
  <ele>-4.196</ele>
  <time>2026-09-02T22:07:49Z</time>
  <course>185.34</course>
  <speed>0.01414213562373095</speed>
  <fix>3d</fix>
</trkpt>
<trkpt lat="33.8103131" lon="-118.3938671">
  <ele>-4.239</ele>
  <time>2026-09-02T22:07:49Z</time>
  <course>185.35</course>
  <speed>0.01414213562373095</speed>
  <fix>3d</fix>
</trkpt>
<trkpt lat="33.810313" lon="-118.393867">
  <ele>-3.99</ele>
  <time>2026-09-02T22:07:49Z</time>
  <course>0.0</course>
  <speed>0.0</speed>
  <fix>3d</fix>
</trkpt>
<trkpt lat="33.8103131" lon="-118.3938671">
  <ele>-4.241</ele>
  <time>2026-09-02T22:07:49Z</time>
  <course>185.35</course>
  <speed>0.01414213562373095</speed>
  <fix>3d</fix>
</trkpt>
<trkpt lat="33.8103131" lon="-118.3938671">
  <ele>-4.302</ele>
  <time>2026-09-02T22:07:49Z</time>
  <course>185.36</course>
  <speed>0.01414213562373095</speed>
  <fix>3d</fix>
</trkpt>
<trkpt lat="33.810313" lon="-118.393867">
  <ele>-3.99</ele>
  <time>2026-09-02T22:07:49Z</time>
  <course>0.0</course>
  <speed>0.0</speed>
  <fix>3d</fix>
</trkpt>
<trkpt lat="33.8103131" lon="-118.3938671">
  <ele>-4.303</ele>
  <time>2026-09-02T22:07:49Z</time>
  <course>185.36</course>
  <speed>0.01414213562373095</speed>
  <fix>3d</fix>
</trkpt>
<trkpt lat="33.8103131" lon="-118.3938671">
  <ele>-4.364</ele>
  <time>2026-09-02T22:07:49Z</time>
  <course>185.37</course>
  <speed>0.01414213562373095</speed>
  <fix>3d</fix>
</trkpt>
<trkpt lat="33.810313" lon="-118.393867">
  <ele>-4.11</ele>
  <time>2026-09-02T22:07:49Z</time>
  <course>0.0</course>
  <speed>0.0</speed>
  <fix>3d</fix>
</trkpt>
<trkpt lat="33.8103131" lon="-118.3938671">
  <ele>-4.365</ele>
  <time>2026-09-02T22:07:49Z</time>
  <course>185.37</course>
  <speed>0.01414213562373095</speed>
  <fix>3d</fix>
</trkpt>
<trkpt lat="33.8103131" lon="-118.3938671">
  <ele>-4.426</ele>
  <time>2026-09-02T22:07:49Z</time>
  <course>185.38</course>
  <speed>0.01414213562373095</speed>
  <fix>3d</fix>
</trkpt>
<trkpt lat="33.810313" lon="-118.393867">
  <ele>-4.11</ele>
  <time>2026-09-02T22:07:49Z</time>
  <course>0.0</course>
  <speed>0.0</speed>
  <fix>3d</fix>
</trkpt>
<trkpt lat="33.8103131" lon="-118.3938671">
  <ele>-4.446</ele>
  <time>2026-09-02T22:07:49Z</time>
  <course>185.38</course>
  <speed>0.01414213562373095</speed>
  <fix>3d</fix>
</trkpt>
<trkpt lat="33.8103131" lon="-118.3938671">
  <ele>-4.488</ele>
  <time>2026-09-02T22:07:49Z</time>
  <course>185.39</course>
  <speed>0.01414213562373095</speed>
  <fix>3d</fix>
</trkpt>
<trkpt lat="33.810313" lon="-118.393867">
  <ele>-4.23</ele>
  <time>2026-09-02T22:07:49Z</time>
  <course>0.0</course>
  <speed>0.0</speed>
  <fix>3d</fix>
</trkpt>
<trkpt lat="33.8103131" lon="-118.3938671">
  <ele>-4.512</ele>
  <time>2026-09-02T22:07:49Z</time>
  <course>185.4</course>
  <speed>0.01414213562373095</speed>
  <fix>3d</fix>
</trkpt>
<trkpt lat="33.8103131" lon="-118.3938671">
  <ele>-4.548</ele>
  <time>2026-09-02T22:07:49Z</time>
  <course>185.4</course>
  <speed>0.01414213562373095</speed>
  <fix>3d</fix>
</trkpt>
<trkpt lat="33.810313" lon="-118.393867">
  <ele>-4.23</ele>
  <time>2026-09-02T22:07:49Z</time>
  <course>0.0</course>
  <speed>0.0</speed>
  <fix>3d</fix>
</trkpt>
<trkpt lat="33.8103131" lon="-118.3938671">
  <ele>-4.569</ele>
  <time>2026-09-02T22:07:49Z</time>
  <course>185.4</course>
  <speed>0.01414213562373095</speed>
  <fix>3d</fix>
</trkpt>
<trkpt lat="33.8103131" lon="-118.3938671">
  <ele>-4.608</ele>
  <time>2026-09-02T22:07:49Z</time>
  <course>185.41</course>
  <speed>0.01414213562373095</speed>
  <fix>3d</fix>
</trkpt>
<trkpt lat="33.810313" lon="-118.393867">
  <ele>-4.35</ele>
  <time>2026-09-02T22:07:49Z</time>
  <course>0.0</course>
  <speed>0.0</speed>
  <fix>3d</fix>
</trkpt>
<trkpt lat="33.8103131" lon="-118.3938671">
  <ele>-4.61</ele>
  <time>2026-09-02T22:07:49Z</time>
  <course>185.41</course>
  <speed>0.01414213562373095</speed>
  <fix>3d</fix>
</trkpt>
<trkpt lat="33.8103131" lon="-118.3938671">
  <ele>-4.669</ele>
  <time>2026-09-02T22:07:49Z</time>
  <course>185.42</course>
  <speed>0.022360679774997897</speed>
  <fix>3d</fix>
</trkpt>
<trkpt lat="33.810313" lon="-118.393867">
  <ele>-4.35</ele>
  <time>2026-09-02T22:07:49Z</time>
  <course>0.0</course>
  <speed>0.0</speed>
  <fix>3d</fix>
</trkpt>
<trkpt lat="33.8103131" lon="-118.3938671">
  <ele>-4.67</ele>
  <time>2026-09-02T22:07:49Z</time>
  <course>185.42</course>
  <speed>0.022360679774997897</speed>
  <fix>3d</fix>
</trkpt>
<trkpt lat="33.8103131" lon="-118.3938671">
  <ele>-4.731</ele>
  <time>2026-09-02T22:07:49Z</time>
  <course>185.43</course>
  <speed>0.022360679774997897</speed>
  <fix>3d</fix>
</trkpt>
<trkpt lat="33.810313" lon="-118.393867">
  <ele>-4.48</ele>
  <time>2026-09-02T22:07:49Z</time>
  <course>0.0</course>
  <speed>0.0</speed>
  <fix>3d</fix>
</trkpt>
<trkpt lat="33.8103131" lon="-118.3938671">
  <ele>-4.732</ele>
  <time>2026-09-02T22:07:49Z</time>
  <course>185.43</course>
  <speed>0.022360679774997897</speed>
  <fix>3d</fix>
</trkpt>
<trkpt lat="33.8103131" lon="-118.3938671">
  <ele>-4.792</ele>
  <time>2026-09-02T22:07:49Z</time>
  <course>185.44</course>
  <speed>0.022360679774997897</speed>
  <fix>3d</fix>
</trkpt>
<trkpt lat="33.810313" lon="-118.393867">
  <ele>-4.48</ele>
  <time>2026-09-02T22:07:49Z</time>
  <course>0.0</course>
  <speed>0.0</speed>
  <fix>3d</fix>
</trkpt>
<trkpt lat="33.8103131" lon="-118.3938671">
  <ele>-4.807</ele>
  <time>2026-09-02T22:07:49Z</time>
  <course>185.45</course>
  <speed>0.022360679774997897</speed>
  <fix>3d</fix>
</trkpt>
<trkpt lat="33.8103131" lon="-118.3938671">
  <ele>-4.854</ele>
  <time>2026-09-02T22:07:49Z</time>
  <course>185.45</course>
  <speed>0.022360679774997897</speed>
  <fix>3d</fix>
</trkpt>
<trkpt lat="33.810313" lon="-118.393867">
  <ele>-4.6</ele>
  <time>2026-09-02T22:07:49Z</time>
  <course>0.0</course>
  <speed>0.0</speed>
  <fix>3d</fix>
</trkpt>
<trkpt lat="33.8103131" lon="-118.3938671">
  <ele>-4.875</ele>
  <time>2026-09-02T22:07:49Z</time>
  <course>185.46</course>
  <speed>0.022360679774997897</speed>
  <fix>3d</fix>
</trkpt>
<trkpt lat="33.8103131" lon="-118.3938671">
  <ele>-4.915</ele>
  <time>2026-09-02T22:07:49Z</time>
  <course>185.46</course>
  <speed>0.022360679774997897</speed>
  <fix>3d</fix>
</trkpt>
<trkpt lat="33.810313" lon="-118.393867">
  <ele>-4.6</ele>
  <time>2026-09-02T22:07:49Z</time>
  <course>0.0</course>
  <speed>0.0</speed>
  <fix>3d</fix>
</trkpt>
<trkpt lat="33.8103131" lon="-118.3938671">
  <ele>-4.917</ele>
  <time>2026-09-02T22:07:49Z</time>
  <course>185.46</course>
  <speed>0.022360679774997897</speed>
  <fix>3d</fix>
</trkpt>
<trkpt lat="33.8103131" lon="-118.3938671">
  <ele>-4.975</ele>
  <time>2026-09-02T22:07:49Z</time>
  <course>185.47</course>
  <speed>0.022360679774997897</speed>
  <fix>3d</fix>
</trkpt>
<trkpt lat="33.810313" lon="-118.393867">
  <ele>-4.72</ele>
  <time>2026-09-02T22:07:49Z</time>
  <course>0.0</course>
  <speed>0.0</speed>
  <fix>3d</fix>
</trkpt>
<trkpt lat="33.8103131" lon="-118.3938671">
  <ele>-4.977</ele>
  <time>2026-09-02T22:07:49Z</time>
  <course>185.47</course>
  <speed>0.022360679774997897</speed>
  <fix>3d</fix>
</trkpt>
<trkpt lat="33.8103131" lon="-118.3938671">
  <ele>-5.035</ele>
  <time>2026-09-02T22:07:49Z</time>
  <course>185.49</course>
  <speed>0.022360679774997897</speed>
  <fix>3d</fix>
</trkpt>
<trkpt lat="33.810313" lon="-118.393867">
  <ele>-4.72</ele>
  <time>2026-09-02T22:07:49Z</time>
  <course>0.0</course>
  <speed>0.0</speed>
  <fix>3d</fix>
</trkpt>
<trkpt lat="33.8103131" lon="-118.3938671">
  <ele>-5.055</ele>
  <time>2026-09-02T22:07:49Z</time>
  <course>185.49</course>
  <speed>0.022360679774997897</speed>
  <fix>3d</fix>
</trkpt>
<trkpt lat="33.8103131" lon="-118.3938671">
  <ele>-5.094</ele>
  <time>2026-09-02T22:07:49Z</time>
  <course>185.5</course>
  <speed>0.022360679774997897</speed>
  <fix>3d</fix>
</trkpt>
<trkpt lat="33.810313" lon="-118.393867">
  <ele>-4.84</ele>
  <time>2026-09-02T22:07:49Z</time>
  <course>0.0</course>
  <speed>0.0</speed>
  <fix>3d</fix>
</trkpt>
<trkpt lat="33.8103131" lon="-118.3938671">
  <ele>-5.107</ele>
  <time>2026-09-02T22:07:49Z</time>
  <course>185.5</course>
  <speed>0.022360679774997897</speed>
  <fix>3d</fix>
</trkpt>
<trkpt lat="33.8103131" lon="-118.3938671">
  <ele>-5.154</ele>
  <time>2026-09-02T22:07:49Z</time>
  <course>185.51</course>
  <speed>0.022360679774997897</speed>
  <fix>3d</fix>
</trkpt>
<trkpt lat="33.810313" lon="-118.393867">
  <ele>-4.84</ele>
  <time>2026-09-02T22:07:49Z</time>
  <course>0.0</course>
  <speed>0.0</speed>
  <fix>3d</fix>
</trkpt>
<trkpt lat="33.8103131" lon="-118.3938671">
  <ele>-5.175</ele>
  <time>2026-09-02T22:07:49Z</time>
  <course>185.51</course>
  <speed>0.022360679774997897</speed>
  <fix>3d</fix>
</trkpt>
<trkpt lat="33.8103131" lon="-118.3938671">
  <ele>-5.214</ele>
  <time>2026-09-02T22:07:49Z</time>
  <course>185.52</course>
  <speed>0.022360679774997897</speed>
  <fix>3d</fix>
</trkpt>
<trkpt lat="33.810313" lon="-118.393867">
  <ele>-4.96</ele>
  <time>2026-09-02T22:07:49Z</time>
  <course>0.0</course>
  <speed>0.0</speed>
  <fix>3d</fix>
</trkpt>
<trkpt lat="33.8103131" lon="-118.3938671">
  <ele>-5.216</ele>
  <time>2026-09-02T22:07:49Z</time>
  <course>185.52</course>
  <speed>0.0282842712474619</speed>
  <fix>3d</fix>
</trkpt>
<trkpt lat="33.8103131" lon="-118.3938671">
  <ele>-5.276</ele>
  <time>2026-09-02T22:07:49Z</time>
  <course>185.53</course>
  <speed>0.0282842712474619</speed>
  <fix>3d</fix>
</trkpt>
<trkpt lat="33.810313" lon="-118.393867">
  <ele>-4.96</ele>
  <time>2026-09-02T22:07:49Z</time>
  <course>0.0</course>
  <speed>0.0</speed>
  <fix>3d</fix>
</trkpt>
<trkpt lat="33.8103131" lon="-118.3938671">
  <ele>-5.288</ele>
  <time>2026-09-02T22:07:49Z</time>
  <course>185.53</course>
  <speed>0.0282842712474619</speed>
  <fix>3d</fix>
</trkpt>
<trkpt lat="33.8103131" lon="-118.3938671">
  <ele>-5.337</ele>
  <time>2026-09-02T22:07:49Z</time>
  <course>185.54</course>
  <speed>0.0282842712474619</speed>
  <fix>3d</fix>
</trkpt>
<trkpt lat="33.810313" lon="-118.393867">
  <ele>-5.08</ele>
  <time>2026-09-02T22:07:49Z</time>
  <course>0.0</course>
  <speed>0.0</speed>
  <fix>3d</fix>
</trkpt>
<trkpt lat="33.8103131" lon="-118.3938671">
  <ele>-5.357</ele>
  <time>2026-09-02T22:07:49Z</time>
  <course>185.54</course>
  <speed>0.0282842712474619</speed>
  <fix>3d</fix>
</trkpt>
<trkpt lat="33.8103131" lon="-118.3938671">
  <ele>-5.399</ele>
  <time>2026-09-02T22:07:49Z</time>
  <course>185.55</course>
  <speed>0.0282842712474619</speed>
  <fix>3d</fix>
</trkpt>
<trkpt lat="33.810313" lon="-118.393867">
  <ele>-5.08</ele>
  <time>2026-09-02T22:07:49Z</time>
  <course>0.0</course>
  <speed>0.0</speed>
  <fix>3d</fix>
</trkpt>
<trkpt lat="33.8103131" lon="-118.3938671">
  <ele>-5.417</ele>
  <time>2026-09-02T22:07:49Z</time>
  <course>185.55</course>
  <speed>0.0282842712474619</speed>
  <fix>3d</fix>
</trkpt>
<trkpt lat="33.8103131" lon="-118.3938671">
  <ele>-5.46</ele>
  <time>2026-09-02T22:07:49Z</time>
  <course>185.56</course>
  <speed>0.0282842712474619</speed>
  <fix>3d</fix>
</trkpt>
<trkpt lat="33.810313" lon="-118.393867">
  <ele>-5.2</ele>
  <time>2026-09-02T22:07:49Z</time>
  <course>0.0</course>
  <speed>0.0</speed>
  <fix>3d</fix>
</trkpt>
<trkpt lat="33.8103131" lon="-118.3938671">
  <ele>-5.473</ele>
  <time>2026-09-02T22:07:49Z</time>
  <course>185.56</course>
  <speed>0.0282842712474619</speed>
  <fix>3d</fix>
</trkpt>
<trkpt lat="33.8103131" lon="-118.3938671">
  <ele>-5.521</ele>
  <time>2026-09-02T22:07:49Z</time>
  <course>185.57</course>
  <speed>0.0282842712474619</speed>
  <fix>3d</fix>
</trkpt>
<trkpt lat="33.810313" lon="-118.393867">
  <ele>-5.2</ele>
  <time>2026-09-02T22:07:49Z</time>
  <course>0.0</course>
  <speed>0.0</speed>
  <fix>3d</fix>
</trkpt>
<trkpt lat="33.8103131" lon="-118.3938671">
  <ele>-5.523</ele>
  <time>2026-09-02T22:07:49Z</time>
  <course>185.57</course>
  <speed>0.0282842712474619</speed>
  <fix>3d</fix>
</trkpt>
<trkpt lat="33.8103131" lon="-118.3938671">
  <ele>-5.582</ele>
  <time>2026-09-02T22:07:49Z</time>
  <course>185.58</course>
  <speed>0.0282842712474619</speed>
  <fix>3d</fix>
</trkpt>
<trkpt lat="33.810313" lon="-118.393867">
  <ele>-5.32</ele>
  <time>2026-09-02T22:07:49Z</time>
  <course>0.0</course>
  <speed>0.0</speed>
  <fix>3d</fix>
</trkpt>
<trkpt lat="33.8103131" lon="-118.3938671">
  <ele>-5.583</ele>
  <time>2026-09-02T22:07:49Z</time>
  <course>185.58</course>
  <speed>0.0282842712474619</speed>
  <fix>3d</fix>
</trkpt>
<trkpt lat="33.8103131" lon="-118.3938671">
  <ele>-5.642</ele>
  <time>2026-09-02T22:07:49Z</time>
  <course>185.59</course>
  <speed>0.0282842712474619</speed>
  <fix>3d</fix>
</trkpt>
<trkpt lat="33.810313" lon="-118.393867">
  <ele>-5.32</ele>
  <time>2026-09-02T22:07:49Z</time>
  <course>0.0</course>
  <speed>0.0</speed>
  <fix>3d</fix>
</trkpt>
<trkpt lat="33.8103131" lon="-118.3938671">
  <ele>-5.662</ele>
  <time>2026-09-02T22:07:49Z</time>
  <course>185.59</course>
  <speed>0.0282842712474619</speed>
  <fix>3d</fix>
</trkpt>
<trkpt lat="33.8103131" lon="-118.3938671">
  <ele>-5.702</ele>
  <time>2026-09-02T22:07:49Z</time>
  <course>185.6</course>
  <speed>0.0282842712474619</speed>
  <fix>3d</fix>
</trkpt>
<trkpt lat="33.810313" lon="-118.393867">
  <ele>-5.44</ele>
  <time>2026-09-02T22:07:49Z</time>
  <course>0.0</course>
  <speed>0.0</speed>
  <fix>3d</fix>
</trkpt>
<trkpt lat="33.8103131" lon="-118.3938671">
  <ele>-5.716</ele>
  <time>2026-09-02T22:07:49Z</time>
  <course>185.6</course>
  <speed>0.0282842712474619</speed>
  <fix>3d</fix>
</trkpt>
<trkpt lat="33.8103131" lon="-118.3938671">
  <ele>-5.762</ele>
  <time>2026-09-02T22:07:49Z</time>
  <course>185.61</course>
  <speed>0.0282842712474619</speed>
  <fix>3d</fix>
</trkpt>
<trkpt lat="33.810313" lon="-118.393867">
  <ele>-5.44</ele>
  <time>2026-09-02T22:07:49Z</time>
  <course>0.0</course>
  <speed>0.0</speed>
  <fix>3d</fix>
</trkpt>
<trkpt lat="33.8103132" lon="-118.3938671">
  <ele>-5.786</ele>
  <time>2026-09-02T22:07:49Z</time>
  <course>185.62</course>
  <speed>0.0282842712474619</speed>
  <fix>3d</fix>
</trkpt>
<trkpt lat="33.8103132" lon="-118.3938671">
  <ele>-5.822</ele>
  <time>2026-09-02T22:07:49Z</time>
  <course>185.62</course>
  <speed>0.0282842712474619</speed>
  <fix>3d</fix>
</trkpt>
<trkpt lat="33.810313" lon="-118.393867">
  <ele>-5.56</ele>
  <time>2026-09-02T22:07:49Z</time>
  <course>0.0</course>
  <speed>0.0</speed>
  <fix>3d</fix>
</trkpt>
<trkpt lat="33.8103132" lon="-118.3938671">
  <ele>-5.824</ele>
  <time>2026-09-02T22:07:49Z</time>
  <course>185.62</course>
  <speed>0.0282842712474619</speed>
  <fix>3d</fix>
</trkpt>
<trkpt lat="33.8103132" lon="-118.3938671">
  <ele>-5.882</ele>
  <time>2026-09-02T22:07:49Z</time>
  <course>185.63</course>
  <speed>0.0282842712474619</speed>
  <fix>3d</fix>
</trkpt>
<trkpt lat="33.810313" lon="-118.393867">
  <ele>-5.56</ele>
  <time>2026-09-02T22:07:49Z</time>
  <course>0.0</course>
  <speed>0.0</speed>
  <fix>3d</fix>
</trkpt>
<trkpt lat="33.8103132" lon="-118.3938671">
  <ele>-5.906</ele>
  <time>2026-09-02T22:07:49Z</time>
  <course>185.64</course>
  <speed>0.0282842712474619</speed>
  <fix>3d</fix>
</trkpt>
<trkpt lat="33.8103132" lon="-118.3938671">
  <ele>-5.943</ele>
  <time>2026-09-02T22:07:49Z</time>
  <course>185.64</course>
  <speed>0.0282842712474619</speed>
  <fix>3d</fix>
</trkpt>
<trkpt lat="33.810313" lon="-118.393867">
  <ele>-5.68</ele>
  <time>2026-09-02T22:07:49Z</time>
  <course>0.0</course>
  <speed>0.0</speed>
  <fix>3d</fix>
</trkpt>
<trkpt lat="33.8103132" lon="-118.3938671">
  <ele>-5.963</ele>
  <time>2026-09-02T22:07:49Z</time>
  <course>185.65</course>
  <speed>0.0282842712474619</speed>
  <fix>3d</fix>
</trkpt>
<trkpt lat="33.8103132" lon="-118.3938672">
  <ele>-6.005</ele>
  <time>2026-09-02T22:07:49Z</time>
  <course>185.65</course>
  <speed>0.0282842712474619</speed>
  <fix>3d</fix>
</trkpt>
<trkpt lat="33.810313" lon="-118.393867">
  <ele>-5.68</ele>
  <time>2026-09-02T22:07:49Z</time>
  <course>0.0</course>
  <speed>0.0</speed>
  <fix>3d</fix>
</trkpt>
<trkpt lat="33.8103132" lon="-118.3938672">
  <ele>-6.024</ele>
  <time>2026-09-02T22:07:49Z</time>
  <course>185.66</course>
  <speed>0.0282842712474619</speed>
  <fix>3d</fix>
</trkpt>
<trkpt lat="33.8103132" lon="-118.3938672">
  <ele>-6.066</ele>
  <time>2026-09-02T22:07:49Z</time>
  <course>185.66</course>
  <speed>0.0282842712474619</speed>
  <fix>3d</fix>
</trkpt>
<trkpt lat="33.810313" lon="-118.393867">
  <ele>-5.8</ele>
  <time>2026-09-02T22:07:49Z</time>
  <course>0.0</course>
  <speed>0.0</speed>
  <fix>3d</fix>
</trkpt>
<trkpt lat="33.8103132" lon="-118.3938672">
  <ele>-6.089</ele>
  <time>2026-09-02T22:07:49Z</time>
  <course>185.67</course>
  <speed>0.0282842712474619</speed>
  <fix>3d</fix>
</trkpt>
<trkpt lat="33.8103132" lon="-118.3938672">
  <ele>-6.127</ele>
  <time>2026-09-02T22:07:49Z</time>
  <course>185.68</course>
  <speed>0.0282842712474619</speed>
  <fix>3d</fix>
</trkpt>
<trkpt lat="33.810313" lon="-118.393867">
  <ele>-5.8</ele>
  <time>2026-09-02T22:07:49Z</time>
  <course>0.0</course>
  <speed>0.0</speed>
  <fix>3d</fix>
</trkpt>
<trkpt lat="33.8103132" lon="-118.3938672">
  <ele>-6.128</ele>
  <time>2026-09-02T22:07:49Z</time>
  <course>185.68</course>
  <speed>0.0282842712474619</speed>
  <fix>3d</fix>
</trkpt>
<trkpt lat="33.8103132" lon="-118.3938672">
  <ele>-6.188</ele>
  <time>2026-09-02T22:07:49Z</time>
  <course>185.69</course>
  <speed>0.0282842712474619</speed>
  <fix>3d</fix>
</trkpt>
<trkpt lat="33.810313" lon="-118.393867">
  <ele>-5.92</ele>
  <time>2026-09-02T22:07:49Z</time>
  <course>0.0</course>
  <speed>0.0</speed>
  <fix>3d</fix>
</trkpt>
<trkpt lat="33.8103132" lon="-118.3938672">
  <ele>-6.191</ele>
  <time>2026-09-02T22:07:49Z</time>
  <course>185.69</course>
  <speed>0.0282842712474619</speed>
  <fix>3d</fix>
</trkpt>
<trkpt lat="33.8103132" lon="-118.3938672">
  <ele>-6.25</ele>
  <time>2026-09-02T22:07:49Z</time>
  <course>185.7</course>
  <speed>0.0282842712474619</speed>
  <fix>3d</fix>
</trkpt>
<trkpt lat="33.810313" lon="-118.393867">
  <ele>-5.92</ele>
  <time>2026-09-02T22:07:49Z</time>
  <course>0.0</course>
  <speed>0.0</speed>
  <fix>3d</fix>
</trkpt>
<trkpt lat="33.8103132" lon="-118.3938672">
  <ele>-6.253</ele>
  <time>2026-09-02T22:07:49Z</time>
  <course>185.7</course>
  <speed>0.0282842712474619</speed>
  <fix>3d</fix>
</trkpt>
<trkpt lat="33.8103132" lon="-118.3938672">
  <ele>-6.31</ele>
  <time>2026-09-02T22:07:49Z</time>
  <course>185.71</course>
  <speed>0.0282842712474619</speed>
  <fix>3d</fix>
</trkpt>
<trkpt lat="33.810313" lon="-118.393867">
  <ele>-6.04</ele>
  <time>2026-09-02T22:07:49Z</time>
  <course>0.0</course>
  <speed>0.0</speed>
  <fix>3d</fix>
</trkpt>
<trkpt lat="33.8103132" lon="-118.3938672">
  <ele>-6.33</ele>
  <time>2026-09-02T22:07:49Z</time>
  <course>185.71</course>
  <speed>0.0282842712474619</speed>
  <fix>3d</fix>
</trkpt>
<trkpt lat="33.8103132" lon="-118.3938672">
  <ele>-6.371</ele>
  <time>2026-09-02T22:07:49Z</time>
  <course>185.72</course>
  <speed>0.0282842712474619</speed>
  <fix>3d</fix>
</trkpt>
<trkpt lat="33.810313" lon="-118.393867">
  <ele>-6.04</ele>
  <time>2026-09-02T22:07:49Z</time>
  <course>0.0</course>
  <speed>0.0</speed>
  <fix>3d</fix>
</trkpt>
<trkpt lat="33.8103132" lon="-118.3938672">
  <ele>-6.383</ele>
  <time>2026-09-02T22:07:49Z</time>
  <course>185.72</course>
  <speed>0.03605551275463989</speed>
  <fix>3d</fix>
</trkpt>
<trkpt lat="33.8103132" lon="-118.3938672">
  <ele>-6.433</ele>
  <time>2026-09-02T22:07:49Z</time>
  <course>185.73</course>
  <speed>0.03605551275463989</speed>
  <fix>3d</fix>
</trkpt>
<trkpt lat="33.810313" lon="-118.393867">
  <ele>-6.16</ele>
  <time>2026-09-02T22:07:49Z</time>
  <course>0.0</course>
  <speed>0.0</speed>
  <fix>3d</fix>
</trkpt>
<trkpt lat="33.8103132" lon="-118.3938672">
  <ele>-6.453</ele>
  <time>2026-09-02T22:07:49Z</time>
  <course>185.73</course>
  <speed>0.03605551275463989</speed>
  <fix>3d</fix>
</trkpt>
<trkpt lat="33.8103132" lon="-118.3938672">
  <ele>-6.495</ele>
  <time>2026-09-02T22:07:49Z</time>
  <course>185.74</course>
  <speed>0.03605551275463989</speed>
  <fix>3d</fix>
</trkpt>
<trkpt lat="33.810313" lon="-118.393867">
  <ele>-6.16</ele>
  <time>2026-09-02T22:07:49Z</time>
  <course>0.0</course>
  <speed>0.0</speed>
  <fix>3d</fix>
</trkpt>
<trkpt lat="33.8103132" lon="-118.3938672">
  <ele>-6.512</ele>
  <time>2026-09-02T22:07:49Z</time>
  <course>185.74</course>
  <speed>0.03605551275463989</speed>
  <fix>3d</fix>
</trkpt>
<trkpt lat="33.8103132" lon="-118.3938672">
  <ele>-6.556</ele>
  <time>2026-09-02T22:07:49Z</time>
  <course>185.75</course>
  <speed>0.03605551275463989</speed>
  <fix>3d</fix>
</trkpt>
<trkpt lat="33.810313" lon="-118.393867">
  <ele>-6.29</ele>
  <time>2026-09-02T22:07:49Z</time>
  <course>0.0</course>
  <speed>0.0</speed>
  <fix>3d</fix>
</trkpt>
<trkpt lat="33.8103132" lon="-118.3938672">
  <ele>-6.577</ele>
  <time>2026-09-02T22:07:49Z</time>
  <course>185.75</course>
  <speed>0.03605551275463989</speed>
  <fix>3d</fix>
</trkpt>
<trkpt lat="33.8103132" lon="-118.3938672">
  <ele>-6.619</ele>
  <time>2026-09-02T22:07:49Z</time>
  <course>185.76</course>
  <speed>0.03605551275463989</speed>
  <fix>3d</fix>
</trkpt>
<trkpt lat="33.810313" lon="-118.393867">
  <ele>-6.29</ele>
  <time>2026-09-02T22:07:49Z</time>
  <course>0.0</course>
  <speed>0.0</speed>
  <fix>3d</fix>
</trkpt>
<trkpt lat="33.8103132" lon="-118.3938672">
  <ele>-6.641</ele>
  <time>2026-09-02T22:07:49Z</time>
  <course>185.76</course>
  <speed>0.03605551275463989</speed>
  <fix>3d</fix>
</trkpt>
<trkpt lat="33.8103132" lon="-118.3938672">
  <ele>-6.681</ele>
  <time>2026-09-02T22:07:49Z</time>
  <course>185.77</course>
  <speed>0.03605551275463989</speed>
  <fix>3d</fix>
</trkpt>
<trkpt lat="33.810313" lon="-118.393867">
  <ele>-6.41</ele>
  <time>2026-09-02T22:07:49Z</time>
  <course>0.0</course>
  <speed>0.0</speed>
  <fix>3d</fix>
</trkpt>
<trkpt lat="33.8103132" lon="-118.3938672">
  <ele>-6.701</ele>
  <time>2026-09-02T22:07:49Z</time>
  <course>185.77</course>
  <speed>0.03605551275463989</speed>
  <fix>3d</fix>
</trkpt>
<trkpt lat="33.8103132" lon="-118.3938672">
  <ele>-6.742</ele>
  <time>2026-09-02T22:07:49Z</time>
  <course>185.78</course>
  <speed>0.03605551275463989</speed>
  <fix>3d</fix>
</trkpt>
<trkpt lat="33.810313" lon="-118.393867">
  <ele>-6.41</ele>
  <time>2026-09-02T22:07:49Z</time>
  <course>0.0</course>
  <speed>0.0</speed>
  <fix>3d</fix>
</trkpt>
<trkpt lat="33.8103132" lon="-118.3938672">
  <ele>-6.763</ele>
  <time>2026-09-02T22:07:49Z</time>
  <course>185.78</course>
  <speed>0.03605551275463989</speed>
  <fix>3d</fix>
</trkpt>
<trkpt lat="33.8103132" lon="-118.3938672">
  <ele>-6.803</ele>
  <time>2026-09-02T22:07:49Z</time>
  <course>185.79</course>
  <speed>0.03605551275463989</speed>
  <fix>3d</fix>
</trkpt>
<trkpt lat="33.810313" lon="-118.393867">
  <ele>-6.52</ele>
  <time>2026-09-02T22:07:49Z</time>
  <course>0.0</course>
  <speed>0.0</speed>
  <fix>3d</fix>
</trkpt>
<trkpt lat="33.8103132" lon="-118.3938672">
  <ele>-6.804</ele>
  <time>2026-09-02T22:07:49Z</time>
  <course>185.79</course>
  <speed>0.03605551275463989</speed>
  <fix>3d</fix>
</trkpt>
<trkpt lat="33.8103132" lon="-118.3938672">
  <ele>-6.863</ele>
  <time>2026-09-02T22:07:49Z</time>
  <course>185.8</course>
  <speed>0.03605551275463989</speed>
  <fix>3d</fix>
</trkpt>
<trkpt lat="33.810313" lon="-118.393867">
  <ele>-6.52</ele>
  <time>2026-09-02T22:07:49Z</time>
  <course>0.0</course>
  <speed>0.0</speed>
  <fix>3d</fix>
</trkpt>
<trkpt lat="33.8103132" lon="-118.3938672">
  <ele>-6.881</ele>
  <time>2026-09-02T22:07:49Z</time>
  <course>185.8</course>
  <speed>0.03605551275463989</speed>
  <fix>3d</fix>
</trkpt>
<trkpt lat="33.8103132" lon="-118.3938672">
  <ele>-6.924</ele>
  <time>2026-09-02T22:07:49Z</time>
  <course>185.81</course>
  <speed>0.03605551275463989</speed>
  <fix>3d</fix>
</trkpt>
<trkpt lat="33.810313" lon="-118.393867">
  <ele>-6.65</ele>
  <time>2026-09-02T22:07:49Z</time>
  <course>0.0</course>
  <speed>0.0</speed>
  <fix>3d</fix>
</trkpt>
<trkpt lat="33.8103132" lon="-118.3938672">
  <ele>-6.945</ele>
  <time>2026-09-02T22:07:49Z</time>
  <course>185.81</course>
  <speed>0.03605551275463989</speed>
  <fix>3d</fix>
</trkpt>
<trkpt lat="33.8103132" lon="-118.3938672">
  <ele>-6.986</ele>
  <time>2026-09-02T22:07:49Z</time>
  <course>185.82</course>
  <speed>0.03605551275463989</speed>
  <fix>3d</fix>
</trkpt>
<trkpt lat="33.810313" lon="-118.393867">
  <ele>-6.65</ele>
  <time>2026-09-02T22:07:49Z</time>
  <course>0.0</course>
  <speed>0.0</speed>
  <fix>3d</fix>
</trkpt>
<trkpt lat="33.8103132" lon="-118.3938672">
  <ele>-7.016</ele>
  <time>2026-09-02T22:07:49Z</time>
  <course>185.82</course>
  <speed>0.03605551275463989</speed>
  <fix>3d</fix>
</trkpt>
<trkpt lat="33.8103132" lon="-118.3938672">
  <ele>-7.049</ele>
  <time>2026-09-02T22:07:49Z</time>
  <course>185.83</course>
  <speed>0.03605551275463989</speed>
  <fix>3d</fix>
</trkpt>
<trkpt lat="33.810313" lon="-118.393867">
  <ele>-6.77</ele>
  <time>2026-09-02T22:07:49Z</time>
  <course>0.0</course>
  <speed>0.0</speed>
  <fix>3d</fix>
</trkpt>
<trkpt lat="33.8103132" lon="-118.3938672">
  <ele>-7.069</ele>
  <time>2026-09-02T22:07:49Z</time>
  <course>185.83</course>
  <speed>0.03605551275463989</speed>
  <fix>3d</fix>
</trkpt>
<trkpt lat="33.8103132" lon="-118.3938672">
  <ele>-7.111</ele>
  <time>2026-09-02T22:07:49Z</time>
  <course>185.84</course>
  <speed>0.03605551275463989</speed>
  <fix>3d</fix>
</trkpt>
<trkpt lat="33.810313" lon="-118.393867">
  <ele>-6.77</ele>
  <time>2026-09-02T22:07:49Z</time>
  <course>0.0</course>
  <speed>0.0</speed>
  <fix>3d</fix>
</trkpt>
<trkpt lat="33.8103132" lon="-118.3938672">
  <ele>-7.113</ele>
  <time>2026-09-02T22:07:49Z</time>
  <course>185.84</course>
  <speed>0.03605551275463989</speed>
  <fix>3d</fix>
</trkpt>
<trkpt lat="33.8103132" lon="-118.3938672">
  <ele>-7.175</ele>
  <time>2026-09-02T22:07:49Z</time>
  <course>185.85</course>
  <speed>0.03605551275463989</speed>
  <fix>3d</fix>
</trkpt>
<trkpt lat="33.810313" lon="-118.393867">
  <ele>-6.89</ele>
  <time>2026-09-02T22:07:49Z</time>
  <course>0.0</course>
  <speed>0.0</speed>
  <fix>3d</fix>
</trkpt>
<trkpt lat="33.8103132" lon="-118.3938672">
  <ele>-7.197</ele>
  <time>2026-09-02T22:07:49Z</time>
  <course>185.85</course>
  <speed>0.03605551275463989</speed>
  <fix>3d</fix>
</trkpt>
<trkpt lat="33.8103132" lon="-118.3938672">
  <ele>-7.238</ele>
  <time>2026-09-02T22:07:49Z</time>
  <course>185.86</course>
  <speed>0.03605551275463989</speed>
  <fix>3d</fix>
</trkpt>
<trkpt lat="33.810313" lon="-118.393867">
  <ele>-6.89</ele>
  <time>2026-09-02T22:07:49Z</time>
  <course>0.0</course>
  <speed>0.0</speed>
  <fix>3d</fix>
</trkpt>
<trkpt lat="33.8103132" lon="-118.3938672">
  <ele>-7.257</ele>
  <time>2026-09-02T22:07:49Z</time>
  <course>185.86</course>
  <speed>0.03605551275463989</speed>
  <fix>3d</fix>
</trkpt>
<trkpt lat="33.8103132" lon="-118.3938672">
  <ele>-7.302</ele>
  <time>2026-09-02T22:07:49Z</time>
  <course>185.87</course>
  <speed>0.03605551275463989</speed>
  <fix>3d</fix>
</trkpt>
<trkpt lat="33.810313" lon="-118.393867">
  <ele>-7.01</ele>
  <time>2026-09-02T22:07:49Z</time>
  <course>0.0</course>
  <speed>0.0</speed>
  <fix>3d</fix>
</trkpt>
<trkpt lat="33.8103132" lon="-118.3938672">
  <ele>-7.322</ele>
  <time>2026-09-02T22:07:49Z</time>
  <course>185.87</course>
  <speed>0.03605551275463989</speed>
  <fix>3d</fix>
</trkpt>
<trkpt lat="33.8103132" lon="-118.3938672">
  <ele>-7.366</ele>
  <time>2026-09-02T22:07:49Z</time>
  <course>185.88</course>
  <speed>0.03605551275463989</speed>
  <fix>3d</fix>
</trkpt>
<trkpt lat="33.810313" lon="-118.393867">
  <ele>-7.01</ele>
  <time>2026-09-02T22:07:49Z</time>
  <course>0.0</course>
  <speed>0.0</speed>
  <fix>3d</fix>
</trkpt>
<trkpt lat="33.8103132" lon="-118.3938672">
  <ele>-7.388</ele>
  <time>2026-09-02T22:07:49Z</time>
  <course>185.88</course>
  <speed>0.03605551275463989</speed>
  <fix>3d</fix>
</trkpt>
<trkpt lat="33.8103132" lon="-118.3938672">
  <ele>-7.43</ele>
  <time>2026-09-02T22:07:49Z</time>
  <course>185.89</course>
  <speed>0.03605551275463989</speed>
  <fix>3d</fix>
</trkpt>
<trkpt lat="33.810313" lon="-118.393867">
  <ele>-7.13</ele>
  <time>2026-09-02T22:07:49Z</time>
  <course>0.0</course>
  <speed>0.0</speed>
  <fix>3d</fix>
</trkpt>
<trkpt lat="33.8103132" lon="-118.3938672">
  <ele>-7.431</ele>
  <time>2026-09-02T22:07:49Z</time>
  <course>185.89</course>
  <speed>0.03605551275463989</speed>
  <fix>3d</fix>
</trkpt>
<trkpt lat="33.8103132" lon="-118.3938672">
  <ele>-7.494</ele>
  <time>2026-09-02T22:07:49Z</time>
  <course>185.9</course>
  <speed>0.03605551275463989</speed>
  <fix>3d</fix>
</trkpt>
<trkpt lat="33.810313" lon="-118.393867">
  <ele>-7.13</ele>
  <time>2026-09-02T22:07:49Z</time>
  <course>0.0</course>
  <speed>0.0</speed>
  <fix>3d</fix>
</trkpt>
<trkpt lat="33.8103132" lon="-118.3938672">
  <ele>-7.495</ele>
  <time>2026-09-02T22:07:49Z</time>
  <course>185.9</course>
  <speed>0.03605551275463989</speed>
  <fix>3d</fix>
</trkpt>
<trkpt lat="33.8103132" lon="-118.3938672">
  <ele>-7.558</ele>
  <time>2026-09-02T22:07:49Z</time>
  <course>185.91</course>
  <speed>0.03605551275463989</speed>
  <fix>3d</fix>
</trkpt>
<trkpt lat="33.810313" lon="-118.393867">
  <ele>-7.25</ele>
  <time>2026-09-02T22:07:49Z</time>
  <course>0.0</course>
  <speed>0.0</speed>
  <fix>3d</fix>
</trkpt>
<trkpt lat="33.8103132" lon="-118.3938672">
  <ele>-7.59</ele>
  <time>2026-09-02T22:07:49Z</time>
  <course>185.91</course>
  <speed>0.03605551275463989</speed>
  <fix>3d</fix>
</trkpt>
<trkpt lat="33.8103132" lon="-118.3938672">
  <ele>-7.622</ele>
  <time>2026-09-02T22:07:49Z</time>
  <course>185.92</course>
  <speed>0.03605551275463989</speed>
  <fix>3d</fix>
</trkpt>
<trkpt lat="33.810313" lon="-118.393867">
  <ele>-7.25</ele>
  <time>2026-09-02T22:07:49Z</time>
  <course>0.0</course>
  <speed>0.0</speed>
  <fix>3d</fix>
</trkpt>
<trkpt lat="33.8103132" lon="-118.3938672">
  <ele>-7.651</ele>
  <time>2026-09-02T22:07:49Z</time>
  <course>185.92</course>
  <speed>0.03605551275463989</speed>
  <fix>3d</fix>
</trkpt>
<trkpt lat="33.8103132" lon="-118.3938672">
  <ele>-7.686</ele>
  <time>2026-09-02T22:07:49Z</time>
  <course>185.93</course>
  <speed>0.03605551275463989</speed>
  <fix>3d</fix>
</trkpt>
<trkpt lat="33.810313" lon="-118.393867">
  <ele>-7.37</ele>
  <time>2026-09-02T22:07:49Z</time>
  <course>0.0</course>
  <speed>0.0</speed>
  <fix>3d</fix>
</trkpt>
<trkpt lat="33.8103132" lon="-118.3938672">
  <ele>-7.688</ele>
  <time>2026-09-02T22:07:49Z</time>
  <course>185.93</course>
  <speed>0.03605551275463989</speed>
  <fix>3d</fix>
</trkpt>
<trkpt lat="33.8103132" lon="-118.3938672">
  <ele>-7.749</ele>
  <time>2026-09-02T22:07:49Z</time>
  <course>185.94</course>
  <speed>0.03605551275463989</speed>
  <fix>3d</fix>
</trkpt>
<trkpt lat="33.810313" lon="-118.393867">
  <ele>-7.37</ele>
  <time>2026-09-02T22:07:49Z</time>
  <course>0.0</course>
  <speed>0.0</speed>
  <fix>3d</fix>
</trkpt>
<trkpt lat="33.8103132" lon="-118.3938672">
  <ele>-7.751</ele>
  <time>2026-09-02T22:07:50Z</time>
  <course>185.94</course>
  <speed>0.03605551275463989</speed>
  <fix>3d</fix>
</trkpt>
<trkpt lat="33.8103132" lon="-118.3938672">
  <ele>-7.811</ele>
  <time>2026-09-02T22:07:50Z</time>
  <course>185.95</course>
  <speed>0.03605551275463989</speed>
  <fix>3d</fix>
</trkpt>
<trkpt lat="33.810313" lon="-118.393867">
  <ele>-7.49</ele>
  <time>2026-09-02T22:07:50Z</time>
  <course>0.0</course>
  <speed>0.0</speed>
  <fix>3d</fix>
</trkpt>
<trkpt lat="33.8103132" lon="-118.3938672">
  <ele>-7.833</ele>
  <time>2026-09-02T22:07:50Z</time>
  <course>185.95</course>
  <speed>0.03605551275463989</speed>
  <fix>3d</fix>
</trkpt>
<trkpt lat="33.8103132" lon="-118.3938672">
  <ele>-7.871</ele>
  <time>2026-09-02T22:07:50Z</time>
  <course>185.95</course>
  <speed>0.03605551275463989</speed>
  <fix>3d</fix>
</trkpt>
<trkpt lat="33.810313" lon="-118.393867">
  <ele>-7.49</ele>
  <time>2026-09-02T22:07:50Z</time>
  <course>0.0</course>
  <speed>0.0</speed>
  <fix>3d</fix>
</trkpt>
<trkpt lat="33.8103132" lon="-118.3938672">
  <ele>-7.895</ele>
  <time>2026-09-02T22:07:50Z</time>
  <course>185.96</course>
  <speed>0.03605551275463989</speed>
  <fix>3d</fix>
</trkpt>
<trkpt lat="33.8103132" lon="-118.3938672">
  <ele>-7.932</ele>
  <time>2026-09-02T22:07:50Z</time>
  <course>185.96</course>
  <speed>0.03605551275463989</speed>
  <fix>3d</fix>
</trkpt>
<trkpt lat="33.810313" lon="-118.393867">
  <ele>-7.61</ele>
  <time>2026-09-02T22:07:50Z</time>
  <course>0.0</course>
  <speed>0.0</speed>
  <fix>3d</fix>
</trkpt>
<trkpt lat="33.8103132" lon="-118.3938672">
  <ele>-7.953</ele>
  <time>2026-09-02T22:07:50Z</time>
  <course>185.97</course>
  <speed>0.0282842712474619</speed>
  <fix>3d</fix>
</trkpt>
<trkpt lat="33.8103132" lon="-118.3938672">
  <ele>-7.993</ele>
  <time>2026-09-02T22:07:50Z</time>
  <course>185.97</course>
  <speed>0.0282842712474619</speed>
  <fix>3d</fix>
</trkpt>
<trkpt lat="33.810313" lon="-118.393867">
  <ele>-7.61</ele>
  <time>2026-09-02T22:07:50Z</time>
  <course>0.0</course>
  <speed>0.0</speed>
  <fix>3d</fix>
</trkpt>
<trkpt lat="33.8103132" lon="-118.3938672">
  <ele>-8.016</ele>
  <time>2026-09-02T22:07:50Z</time>
  <course>185.98</course>
  <speed>0.0282842712474619</speed>
  <fix>3d</fix>
</trkpt>
<trkpt lat="33.8103132" lon="-118.3938672">
  <ele>-8.055</ele>
  <time>2026-09-02T22:07:50Z</time>
  <course>185.98</course>
  <speed>0.0282842712474619</speed>
  <fix>3d</fix>
</trkpt>
<trkpt lat="33.810313" lon="-118.393867">
  <ele>-7.73</ele>
  <time>2026-09-02T22:07:50Z</time>
  <course>0.0</course>
  <speed>0.0</speed>
  <fix>3d</fix>
</trkpt>
<trkpt lat="33.8103132" lon="-118.3938672">
  <ele>-8.057</ele>
  <time>2026-09-02T22:07:50Z</time>
  <course>185.98</course>
  <speed>0.0282842712474619</speed>
  <fix>3d</fix>
</trkpt>
<trkpt lat="33.8103132" lon="-118.3938672">
  <ele>-8.118</ele>
  <time>2026-09-02T22:07:50Z</time>
  <course>185.99</course>
  <speed>0.0282842712474619</speed>
  <fix>3d</fix>
</trkpt>
<trkpt lat="33.810313" lon="-118.393867">
  <ele>-7.73</ele>
  <time>2026-09-02T22:07:50Z</time>
  <course>0.0</course>
  <speed>0.0</speed>
  <fix>3d</fix>
</trkpt>
<trkpt lat="33.8103132" lon="-118.3938672">
  <ele>-8.119</ele>
  <time>2026-09-02T22:07:50Z</time>
  <course>185.99</course>
  <speed>0.0282842712474619</speed>
  <fix>3d</fix>
</trkpt>
<trkpt lat="33.8103132" lon="-118.3938672">
  <ele>-8.18</ele>
  <time>2026-09-02T22:07:50Z</time>
  <course>186.0</course>
  <speed>0.0282842712474619</speed>
  <fix>3d</fix>
</trkpt>
<trkpt lat="33.810313" lon="-118.393867">
  <ele>-7.85</ele>
  <time>2026-09-02T22:07:50Z</time>
  <course>0.0</course>
  <speed>0.0</speed>
  <fix>3d</fix>
</trkpt>
<trkpt lat="33.8103132" lon="-118.3938672">
  <ele>-8.209</ele>
  <time>2026-09-02T22:07:50Z</time>
  <course>186.0</course>
  <speed>0.022360679774997897</speed>
  <fix>3d</fix>
</trkpt>
<trkpt lat="33.8103132" lon="-118.3938672">
  <ele>-8.241</ele>
  <time>2026-09-02T22:07:50Z</time>
  <course>186.01</course>
  <speed>0.022360679774997897</speed>
  <fix>3d</fix>
</trkpt>
<trkpt lat="33.810313" lon="-118.393867">
  <ele>-7.85</ele>
  <time>2026-09-02T22:07:50Z</time>
  <course>0.0</course>
  <speed>0.0</speed>
  <fix>3d</fix>
</trkpt>
<trkpt lat="33.8103132" lon="-118.3938672">
  <ele>-8.27</ele>
  <time>2026-09-02T22:07:50Z</time>
  <course>186.01</course>
  <speed>0.022360679774997897</speed>
  <fix>3d</fix>
</trkpt>
<trkpt lat="33.8103132" lon="-118.3938672">
  <ele>-8.303</ele>
  <time>2026-09-02T22:07:50Z</time>
  <course>186.02</course>
  <speed>0.022360679774997897</speed>
  <fix>3d</fix>
</trkpt>
<trkpt lat="33.810313" lon="-118.393867">
  <ele>-7.98</ele>
  <time>2026-09-02T22:07:50Z</time>
  <course>0.0</course>
  <speed>0.0</speed>
  <fix>3d</fix>
</trkpt>
<trkpt lat="33.8103132" lon="-118.3938671">
  <ele>-8.329</ele>
  <time>2026-09-02T22:07:50Z</time>
  <course>186.02</course>
  <speed>0.022360679774997897</speed>
  <fix>3d</fix>
</trkpt>
<trkpt lat="33.8103132" lon="-118.3938671">
  <ele>-8.364</ele>
  <time>2026-09-02T22:07:50Z</time>
  <course>186.02</course>
  <speed>0.022360679774997897</speed>
  <fix>3d</fix>
</trkpt>
<trkpt lat="33.810313" lon="-118.393867">
  <ele>-7.98</ele>
  <time>2026-09-02T22:07:50Z</time>
  <course>0.0</course>
  <speed>0.0</speed>
  <fix>3d</fix>
</trkpt>
<trkpt lat="33.8103132" lon="-118.3938671">
  <ele>-8.365</ele>
  <time>2026-09-02T22:07:50Z</time>
  <course>186.02</course>
  <speed>0.022360679774997897</speed>
  <fix>3d</fix>
</trkpt>
<trkpt lat="33.8103132" lon="-118.3938671">
  <ele>-8.424</ele>
  <time>2026-09-02T22:07:50Z</time>
  <course>186.03</course>
  <speed>0.022360679774997897</speed>
  <fix>3d</fix>
</trkpt>
<trkpt lat="33.810313" lon="-118.393867">
  <ele>-8.1</ele>
  <time>2026-09-02T22:07:50Z</time>
  <course>0.0</course>
  <speed>0.0</speed>
  <fix>3d</fix>
</trkpt>
<trkpt lat="33.8103132" lon="-118.3938671">
  <ele>-8.453</ele>
  <time>2026-09-02T22:07:50Z</time>
  <course>186.04</course>
  <speed>0.022360679774997897</speed>
  <fix>3d</fix>
</trkpt>
<trkpt lat="33.8103132" lon="-118.3938671">
  <ele>-8.484</ele>
  <time>2026-09-02T22:07:50Z</time>
  <course>186.04</course>
  <speed>0.022360679774997897</speed>
  <fix>3d</fix>
</trkpt>
<trkpt lat="33.810313" lon="-118.393867">
  <ele>-8.1</ele>
  <time>2026-09-02T22:07:50Z</time>
  <course>0.0</course>
  <speed>0.0</speed>
  <fix>3d</fix>
</trkpt>
<trkpt lat="33.8103132" lon="-118.3938671">
  <ele>-8.493</ele>
  <time>2026-09-02T22:07:50Z</time>
  <course>186.04</course>
  <speed>0.022360679774997897</speed>
  <fix>3d</fix>
</trkpt>
<trkpt lat="33.8103132" lon="-118.3938671">
  <ele>-8.545</ele>
  <time>2026-09-02T22:07:50Z</time>
  <course>186.05</course>
  <speed>0.022360679774997897</speed>
  <fix>3d</fix>
</trkpt>
<trkpt lat="33.810313" lon="-118.393867">
  <ele>-8.21</ele>
  <time>2026-09-02T22:07:50Z</time>
  <course>0.0</course>
  <speed>0.0</speed>
  <fix>3d</fix>
</trkpt>
<trkpt lat="33.8103132" lon="-118.3938671">
  <ele>-8.573</ele>
  <time>2026-09-02T22:07:50Z</time>
  <course>186.05</course>
  <speed>0.022360679774997897</speed>
  <fix>3d</fix>
</trkpt>
<trkpt lat="33.8103132" lon="-118.3938671">
  <ele>-8.605</ele>
  <time>2026-09-02T22:07:50Z</time>
  <course>186.06</course>
  <speed>0.022360679774997897</speed>
  <fix>3d</fix>
</trkpt>
<trkpt lat="33.810313" lon="-118.393867">
  <ele>-8.21</ele>
  <time>2026-09-02T22:07:50Z</time>
  <course>0.0</course>
  <speed>0.0</speed>
  <fix>3d</fix>
</trkpt>
<trkpt lat="33.8103132" lon="-118.3938671">
  <ele>-8.63</ele>
  <time>2026-09-02T22:07:50Z</time>
  <course>186.06</course>
  <speed>0.022360679774997897</speed>
  <fix>3d</fix>
</trkpt>
<trkpt lat="33.8103132" lon="-118.3938671">
  <ele>-8.666</ele>
  <time>2026-09-02T22:07:50Z</time>
  <course>186.07</course>
  <speed>0.022360679774997897</speed>
  <fix>3d</fix>
</trkpt>
<trkpt lat="33.810313" lon="-118.393867">
  <ele>-8.34</ele>
  <time>2026-09-02T22:07:50Z</time>
  <course>0.0</course>
  <speed>0.0</speed>
  <fix>3d</fix>
</trkpt>
<trkpt lat="33.8103132" lon="-118.3938671">
  <ele>-8.666</ele>
  <time>2026-09-02T22:07:50Z</time>
  <course>186.07</course>
  <speed>0.022360679774997897</speed>
  <fix>3d</fix>
</trkpt>
<trkpt lat="33.8103132" lon="-118.3938671">
  <ele>-8.726</ele>
  <time>2026-09-02T22:07:50Z</time>
  <course>186.07</course>
  <speed>0.022360679774997897</speed>
  <fix>3d</fix>
</trkpt>
<trkpt lat="33.810313" lon="-118.393867">
  <ele>-8.34</ele>
  <time>2026-09-02T22:07:50Z</time>
  <course>0.0</course>
  <speed>0.0</speed>
  <fix>3d</fix>
</trkpt>
<trkpt lat="33.8103132" lon="-118.3938671">
  <ele>-8.746</ele>
  <time>2026-09-02T22:07:50Z</time>
  <course>186.08</course>
  <speed>0.022360679774997897</speed>
  <fix>3d</fix>
</trkpt>
<trkpt lat="33.8103132" lon="-118.3938671">
  <ele>-8.788</ele>
  <time>2026-09-02T22:07:50Z</time>
  <course>186.08</course>
  <speed>0.022360679774997897</speed>
  <fix>3d</fix>
</trkpt>
<trkpt lat="33.810313" lon="-118.393867">
  <ele>-8.46</ele>
  <time>2026-09-02T22:07:50Z</time>
  <course>0.0</course>
  <speed>0.0</speed>
  <fix>3d</fix>
</trkpt>
<trkpt lat="33.8103132" lon="-118.3938671">
  <ele>-8.789</ele>
  <time>2026-09-02T22:07:50Z</time>
  <course>186.08</course>
  <speed>0.022360679774997897</speed>
  <fix>3d</fix>
</trkpt>
<trkpt lat="33.8103132" lon="-118.3938671">
  <ele>-8.849</ele>
  <time>2026-09-02T22:07:50Z</time>
  <course>186.09</course>
  <speed>0.022360679774997897</speed>
  <fix>3d</fix>
</trkpt>
<trkpt lat="33.810313" lon="-118.393867">
  <ele>-8.46</ele>
  <time>2026-09-02T22:07:50Z</time>
  <course>0.0</course>
  <speed>0.0</speed>
  <fix>3d</fix>
</trkpt>
<trkpt lat="33.8103132" lon="-118.3938671">
  <ele>-8.869</ele>
  <time>2026-09-02T22:07:50Z</time>
  <course>186.09</course>
  <speed>0.022360679774997897</speed>
  <fix>3d</fix>
</trkpt>
<trkpt lat="33.8103132" lon="-118.3938671">
  <ele>-8.911</ele>
  <time>2026-09-02T22:07:50Z</time>
  <course>186.1</course>
  <speed>0.022360679774997897</speed>
  <fix>3d</fix>
</trkpt>
<trkpt lat="33.810313" lon="-118.393867">
  <ele>-8.58</ele>
  <time>2026-09-02T22:07:50Z</time>
  <course>0.0</course>
  <speed>0.0</speed>
  <fix>3d</fix>
</trkpt>
<trkpt lat="33.8103132" lon="-118.3938671">
  <ele>-8.931</ele>
  <time>2026-09-02T22:07:50Z</time>
  <course>186.1</course>
  <speed>0.022360679774997897</speed>
  <fix>3d</fix>
</trkpt>
<trkpt lat="33.8103132" lon="-118.3938671">
  <ele>-8.972</ele>
  <time>2026-09-02T22:07:50Z</time>
  <course>186.1</course>
  <speed>0.022360679774997897</speed>
  <fix>3d</fix>
</trkpt>
<trkpt lat="33.810313" lon="-118.393867">
  <ele>-8.58</ele>
  <time>2026-09-02T22:07:50Z</time>
  <course>0.0</course>
  <speed>0.0</speed>
  <fix>3d</fix>
</trkpt>
<trkpt lat="33.8103132" lon="-118.3938671">
  <ele>-8.973</ele>
  <time>2026-09-02T22:07:50Z</time>
  <course>186.1</course>
  <speed>0.022360679774997897</speed>
  <fix>3d</fix>
</trkpt>
<trkpt lat="33.8103132" lon="-118.3938671">
  <ele>-9.034</ele>
  <time>2026-09-02T22:07:50Z</time>
  <course>186.11</course>
  <speed>0.022360679774997897</speed>
  <fix>3d</fix>
</trkpt>
<trkpt lat="33.810313" lon="-118.393867">
  <ele>-8.7</ele>
  <time>2026-09-02T22:07:50Z</time>
  <course>0.0</course>
  <speed>0.0</speed>
  <fix>3d</fix>
</trkpt>
<trkpt lat="33.8103132" lon="-118.3938671">
  <ele>-9.054</ele>
  <time>2026-09-02T22:07:50Z</time>
  <course>186.11</course>
  <speed>0.022360679774997897</speed>
  <fix>3d</fix>
</trkpt>
<trkpt lat="33.8103132" lon="-118.3938671">
  <ele>-9.097</ele>
  <time>2026-09-02T22:07:50Z</time>
  <course>186.12</course>
  <speed>0.022360679774997897</speed>
  <fix>3d</fix>
</trkpt>
<trkpt lat="33.810313" lon="-118.393867">
  <ele>-8.7</ele>
  <time>2026-09-02T22:07:50Z</time>
  <course>0.0</course>
  <speed>0.0</speed>
  <fix>3d</fix>
</trkpt>
<trkpt lat="33.8103132" lon="-118.3938671">
  <ele>-9.116</ele>
  <time>2026-09-02T22:07:50Z</time>
  <course>186.12</course>
  <speed>0.022360679774997897</speed>
  <fix>3d</fix>
</trkpt>
<trkpt lat="33.8103132" lon="-118.3938671">
  <ele>-9.161</ele>
  <time>2026-09-02T22:07:50Z</time>
  <course>186.13</course>
  <speed>0.022360679774997897</speed>
  <fix>3d</fix>
</trkpt>
<trkpt lat="33.810313" lon="-118.393867">
  <ele>-8.82</ele>
  <time>2026-09-02T22:07:50Z</time>
  <course>0.0</course>
  <speed>0.0</speed>
  <fix>3d</fix>
</trkpt>
<trkpt lat="33.8103132" lon="-118.3938671">
  <ele>-9.175</ele>
  <time>2026-09-02T22:07:50Z</time>
  <course>186.13</course>
  <speed>0.022360679774997897</speed>
  <fix>3d</fix>
</trkpt>
<trkpt lat="33.8103132" lon="-118.3938671">
  <ele>-9.224</ele>
  <time>2026-09-02T22:07:50Z</time>
  <course>186.13</course>
  <speed>0.022360679774997897</speed>
  <fix>3d</fix>
</trkpt>
<trkpt lat="33.810313" lon="-118.393867">
  <ele>-8.82</ele>
  <time>2026-09-02T22:07:50Z</time>
  <course>0.0</course>
  <speed>0.0</speed>
  <fix>3d</fix>
</trkpt>
<trkpt lat="33.8103132" lon="-118.3938671">
  <ele>-9.227</ele>
  <time>2026-09-02T22:07:50Z</time>
  <course>186.13</course>
  <speed>0.022360679774997897</speed>
  <fix>3d</fix>
</trkpt>
<trkpt lat="33.8103132" lon="-118.3938671">
  <ele>-9.288</ele>
  <time>2026-09-02T22:07:50Z</time>
  <course>186.14</course>
  <speed>0.022360679774997897</speed>
  <fix>3d</fix>
</trkpt>
<trkpt lat="33.810313" lon="-118.393867">
  <ele>-8.94</ele>
  <time>2026-09-02T22:07:50Z</time>
  <course>0.0</course>
  <speed>0.0</speed>
  <fix>3d</fix>
</trkpt>
<trkpt lat="33.8103132" lon="-118.3938671">
  <ele>-9.289</ele>
  <time>2026-09-02T22:07:50Z</time>
  <course>186.14</course>
  <speed>0.022360679774997897</speed>
  <fix>3d</fix>
</trkpt>
<trkpt lat="33.8103132" lon="-118.3938671">
  <ele>-9.351</ele>
  <time>2026-09-02T22:07:50Z</time>
  <course>186.15</course>
  <speed>0.022360679774997897</speed>
  <fix>3d</fix>
</trkpt>
<trkpt lat="33.810313" lon="-118.393867">
  <ele>-8.94</ele>
  <time>2026-09-02T22:07:50Z</time>
  <course>0.0</course>
  <speed>0.0</speed>
  <fix>3d</fix>
</trkpt>
<trkpt lat="33.8103132" lon="-118.3938671">
  <ele>-9.37</ele>
  <time>2026-09-02T22:07:50Z</time>
  <course>186.15</course>
  <speed>0.022360679774997897</speed>
  <fix>3d</fix>
</trkpt>
<trkpt lat="33.8103132" lon="-118.3938671">
  <ele>-9.413</ele>
  <time>2026-09-02T22:07:50Z</time>
  <course>186.15</course>
  <speed>0.022360679774997897</speed>
  <fix>3d</fix>
</trkpt>
<trkpt lat="33.810313" lon="-118.393867">
  <ele>-9.05</ele>
  <time>2026-09-02T22:07:50Z</time>
  <course>0.0</course>
  <speed>0.0</speed>
  <fix>3d</fix>
</trkpt>
<trkpt lat="33.8103132" lon="-118.3938671">
  <ele>-9.415</ele>
  <time>2026-09-02T22:07:50Z</time>
  <course>186.15</course>
  <speed>0.022360679774997897</speed>
  <fix>3d</fix>
</trkpt>
<trkpt lat="33.8103132" lon="-118.3938671">
  <ele>-9.475</ele>
  <time>2026-09-02T22:07:50Z</time>
  <course>186.16</course>
  <speed>0.022360679774997897</speed>
  <fix>3d</fix>
</trkpt>
<trkpt lat="33.810313" lon="-118.393867">
  <ele>-9.05</ele>
  <time>2026-09-02T22:07:50Z</time>
  <course>0.0</course>
  <speed>0.0</speed>
  <fix>3d</fix>
</trkpt>
<trkpt lat="33.8103132" lon="-118.3938671">
  <ele>-9.495</ele>
  <time>2026-09-02T22:07:50Z</time>
  <course>186.16</course>
  <speed>0.022360679774997897</speed>
  <fix>3d</fix>
</trkpt>
<trkpt lat="33.8103132" lon="-118.3938671">
  <ele>-9.536</ele>
  <time>2026-09-02T22:07:50Z</time>
  <course>186.17</course>
  <speed>0.022360679774997897</speed>
  <fix>3d</fix>
</trkpt>
<trkpt lat="33.810313" lon="-118.393867">
  <ele>-9.18</ele>
  <time>2026-09-02T22:07:50Z</time>
  <course>0.0</course>
  <speed>0.0</speed>
  <fix>3d</fix>
</trkpt>
<trkpt lat="33.8103132" lon="-118.3938671">
  <ele>-9.555</ele>
  <time>2026-09-02T22:07:50Z</time>
  <course>186.17</course>
  <speed>0.022360679774997897</speed>
  <fix>3d</fix>
</trkpt>
<trkpt lat="33.8103132" lon="-118.3938671">
  <ele>-9.596</ele>
  <time>2026-09-02T22:07:50Z</time>
  <course>186.18</course>
  <speed>0.022360679774997897</speed>
  <fix>3d</fix>
</trkpt>
<trkpt lat="33.810313" lon="-118.393867">
  <ele>-9.18</ele>
  <time>2026-09-02T22:07:50Z</time>
  <course>0.0</course>
  <speed>0.0</speed>
  <fix>3d</fix>
</trkpt>
<trkpt lat="33.8103132" lon="-118.3938671">
  <ele>-9.597</ele>
  <time>2026-09-02T22:07:50Z</time>
  <course>186.18</course>
  <speed>0.022360679774997897</speed>
  <fix>3d</fix>
</trkpt>
<trkpt lat="33.8103132" lon="-118.3938671">
  <ele>-9.656</ele>
  <time>2026-09-02T22:07:50Z</time>
  <course>186.18</course>
  <speed>0.022360679774997897</speed>
  <fix>3d</fix>
</trkpt>
<trkpt lat="33.810313" lon="-118.393867">
  <ele>-9.29</ele>
  <time>2026-09-02T22:07:50Z</time>
  <course>0.0</course>
  <speed>0.0</speed>
  <fix>3d</fix>
</trkpt>
<trkpt lat="33.8103132" lon="-118.3938671">
  <ele>-9.671</ele>
  <time>2026-09-02T22:07:50Z</time>
  <course>186.18</course>
  <speed>0.022360679774997897</speed>
  <fix>3d</fix>
</trkpt>
<trkpt lat="33.8103132" lon="-118.3938671">
  <ele>-9.717</ele>
  <time>2026-09-02T22:07:50Z</time>
  <course>186.19</course>
  <speed>0.022360679774997897</speed>
  <fix>3d</fix>
</trkpt>
<trkpt lat="33.810313" lon="-118.393867">
  <ele>-9.29</ele>
  <time>2026-09-02T22:07:50Z</time>
  <course>0.0</course>
  <speed>0.0</speed>
  <fix>3d</fix>
</trkpt>
<trkpt lat="33.8103132" lon="-118.3938671">
  <ele>-9.736</ele>
  <time>2026-09-02T22:07:50Z</time>
  <course>186.19</course>
  <speed>0.022360679774997897</speed>
  <fix>3d</fix>
</trkpt>
<trkpt lat="33.8103132" lon="-118.3938671">
  <ele>-9.778</ele>
  <time>2026-09-02T22:07:50Z</time>
  <course>186.19</course>
  <speed>0.022360679774997897</speed>
  <fix>3d</fix>
</trkpt>
<trkpt lat="33.810313" lon="-118.393867">
  <ele>-9.42</ele>
  <time>2026-09-02T22:07:50Z</time>
  <course>0.0</course>
  <speed>0.0</speed>
  <fix>3d</fix>
</trkpt>
<trkpt lat="33.8103132" lon="-118.3938671">
  <ele>-9.798</ele>
  <time>2026-09-02T22:07:50Z</time>
  <course>186.2</course>
  <speed>0.022360679774997897</speed>
  <fix>3d</fix>
</trkpt>
<trkpt lat="33.8103132" lon="-118.3938671">
  <ele>-9.841</ele>
  <time>2026-09-02T22:07:50Z</time>
  <course>186.2</course>
  <speed>0.022360679774997897</speed>
  <fix>3d</fix>
</trkpt>
<trkpt lat="33.810313" lon="-118.393867">
  <ele>-9.42</ele>
  <time>2026-09-02T22:07:50Z</time>
  <course>0.0</course>
  <speed>0.0</speed>
  <fix>3d</fix>
</trkpt>
<trkpt lat="33.8103132" lon="-118.3938671">
  <ele>-9.861</ele>
  <time>2026-09-02T22:07:50Z</time>
  <course>186.2</course>
  <speed>0.022360679774997897</speed>
  <fix>3d</fix>
</trkpt>
<trkpt lat="33.8103132" lon="-118.3938671">
  <ele>-9.903</ele>
  <time>2026-09-02T22:07:50Z</time>
  <course>186.21</course>
  <speed>0.022360679774997897</speed>
  <fix>3d</fix>
</trkpt>
<trkpt lat="33.810313" lon="-118.393867">
  <ele>-9.54</ele>
  <time>2026-09-02T22:07:50Z</time>
  <course>0.0</course>
  <speed>0.0</speed>
  <fix>3d</fix>
</trkpt>
<trkpt lat="33.8103132" lon="-118.3938671">
  <ele>-9.905</ele>
  <time>2026-09-02T22:07:50Z</time>
  <course>186.21</course>
  <speed>0.022360679774997897</speed>
  <fix>3d</fix>
</trkpt>
<trkpt lat="33.8103132" lon="-118.3938671">
  <ele>-9.966</ele>
  <time>2026-09-02T22:07:50Z</time>
  <course>186.21</course>
  <speed>0.022360679774997897</speed>
  <fix>3d</fix>
</trkpt>
<trkpt lat="33.810313" lon="-118.393867">
  <ele>-9.54</ele>
  <time>2026-09-02T22:07:50Z</time>
  <course>0.0</course>
  <speed>0.0</speed>
  <fix>3d</fix>
</trkpt>
<trkpt lat="33.8103132" lon="-118.3938671">
  <ele>-9.979</ele>
  <time>2026-09-02T22:07:50Z</time>
  <course>186.22</course>
  <speed>0.022360679774997897</speed>
  <fix>3d</fix>
</trkpt>
<trkpt lat="33.8103132" lon="-118.3938671">
  <ele>-10.029</ele>
  <time>2026-09-02T22:07:50Z</time>
  <course>186.22</course>
  <speed>0.022360679774997897</speed>
  <fix>3d</fix>
</trkpt>
<trkpt lat="33.810313" lon="-118.393867">
  <ele>-9.66</ele>
  <time>2026-09-02T22:07:50Z</time>
  <course>0.0</course>
  <speed>0.0</speed>
  <fix>3d</fix>
</trkpt>
<trkpt lat="33.8103132" lon="-118.3938671">
  <ele>-10.031</ele>
  <time>2026-09-02T22:07:50Z</time>
  <course>186.22</course>
  <speed>0.022360679774997897</speed>
  <fix>3d</fix>
</trkpt>
<trkpt lat="33.8103132" lon="-118.3938671">
  <ele>-10.091</ele>
  <time>2026-09-02T22:07:50Z</time>
  <course>186.23</course>
  <speed>0.022360679774997897</speed>
  <fix>3d</fix>
</trkpt>
<trkpt lat="33.810313" lon="-118.393867">
  <ele>-9.66</ele>
  <time>2026-09-02T22:07:50Z</time>
  <course>0.0</course>
  <speed>0.0</speed>
  <fix>3d</fix>
</trkpt>
<trkpt lat="33.8103132" lon="-118.3938671">
  <ele>-10.093</ele>
  <time>2026-09-02T22:07:50Z</time>
  <course>186.23</course>
  <speed>0.022360679774997897</speed>
  <fix>3d</fix>
</trkpt>
<trkpt lat="33.8103132" lon="-118.3938671">
  <ele>-10.153</ele>
  <time>2026-09-02T22:07:50Z</time>
  <course>186.23</course>
  <speed>0.022360679774997897</speed>
  <fix>3d</fix>
</trkpt>
<trkpt lat="33.810313" lon="-118.393867">
  <ele>-9.79</ele>
  <time>2026-09-02T22:07:50Z</time>
  <course>0.0</course>
  <speed>0.0</speed>
  <fix>3d</fix>
</trkpt>
<trkpt lat="33.8103132" lon="-118.3938671">
  <ele>-10.171</ele>
  <time>2026-09-02T22:07:50Z</time>
  <course>186.23</course>
  <speed>0.022360679774997897</speed>
  <fix>3d</fix>
</trkpt>
<trkpt lat="33.8103132" lon="-118.3938671">
  <ele>-10.214</ele>
  <time>2026-09-02T22:07:50Z</time>
  <course>186.24</course>
  <speed>0.022360679774997897</speed>
  <fix>3d</fix>
</trkpt>
<trkpt lat="33.810313" lon="-118.393867">
  <ele>-9.79</ele>
  <time>2026-09-02T22:07:50Z</time>
  <course>0.0</course>
  <speed>0.0</speed>
  <fix>3d</fix>
</trkpt>
<trkpt lat="33.8103132" lon="-118.3938671">
  <ele>-10.216</ele>
  <time>2026-09-02T22:07:50Z</time>
  <course>186.24</course>
  <speed>0.022360679774997897</speed>
  <fix>3d</fix>
</trkpt>
<trkpt lat="33.8103132" lon="-118.3938671">
  <ele>-10.276</ele>
  <time>2026-09-02T22:07:50Z</time>
  <course>186.24</course>
  <speed>0.022360679774997897</speed>
  <fix>3d</fix>
</trkpt>
<trkpt lat="33.810313" lon="-118.393867">
  <ele>-9.91</ele>
  <time>2026-09-02T22:07:50Z</time>
  <course>0.0</course>
  <speed>0.0</speed>
  <fix>3d</fix>
</trkpt>
<trkpt lat="33.8103132" lon="-118.3938671">
  <ele>-10.295</ele>
  <time>2026-09-02T22:07:50Z</time>
  <course>186.25</course>
  <speed>0.022360679774997897</speed>
  <fix>3d</fix>
</trkpt>
<trkpt lat="33.8103132" lon="-118.3938671">
  <ele>-10.339</ele>
  <time>2026-09-02T22:07:50Z</time>
  <course>186.25</course>
  <speed>0.022360679774997897</speed>
  <fix>3d</fix>
</trkpt>
<trkpt lat="33.810313" lon="-118.393867">
  <ele>-9.91</ele>
  <time>2026-09-02T22:07:50Z</time>
  <course>0.0</course>
  <speed>0.0</speed>
  <fix>3d</fix>
</trkpt>
<trkpt lat="33.8103132" lon="-118.3938671">
  <ele>-10.356</ele>
  <time>2026-09-02T22:07:50Z</time>
  <course>186.25</course>
  <speed>0.022360679774997897</speed>
  <fix>3d</fix>
</trkpt>
<trkpt lat="33.8103132" lon="-118.3938671">
  <ele>-10.401</ele>
  <time>2026-09-02T22:07:50Z</time>
  <course>186.25</course>
  <speed>0.022360679774997897</speed>
  <fix>3d</fix>
</trkpt>
<trkpt lat="33.810313" lon="-118.393867">
  <ele>-10.03</ele>
  <time>2026-09-02T22:07:50Z</time>
  <course>0.0</course>
  <speed>0.0</speed>
  <fix>3d</fix>
</trkpt>
<trkpt lat="33.8103132" lon="-118.3938671">
  <ele>-10.426</ele>
  <time>2026-09-02T22:07:50Z</time>
  <course>186.26</course>
  <speed>0.022360679774997897</speed>
  <fix>3d</fix>
</trkpt>
<trkpt lat="33.8103132" lon="-118.3938671">
  <ele>-10.463</ele>
  <time>2026-09-02T22:07:50Z</time>
  <course>186.26</course>
  <speed>0.022360679774997897</speed>
  <fix>3d</fix>
</trkpt>
<trkpt lat="33.810313" lon="-118.393867">
  <ele>-10.03</ele>
  <time>2026-09-02T22:07:50Z</time>
  <course>0.0</course>
  <speed>0.0</speed>
  <fix>3d</fix>
</trkpt>
<trkpt lat="33.8103132" lon="-118.3938671">
  <ele>-10.486</ele>
  <time>2026-09-02T22:07:50Z</time>
  <course>186.26</course>
  <speed>0.022360679774997897</speed>
  <fix>3d</fix>
</trkpt>
<trkpt lat="33.8103132" lon="-118.3938671">
  <ele>-10.525</ele>
  <time>2026-09-02T22:07:50Z</time>
  <course>186.27</course>
  <speed>0.022360679774997897</speed>
  <fix>3d</fix>
</trkpt>
<trkpt lat="33.810313" lon="-118.393867">
  <ele>-10.15</ele>
  <time>2026-09-02T22:07:50Z</time>
  <course>0.0</course>
  <speed>0.0</speed>
  <fix>3d</fix>
</trkpt>
<trkpt lat="33.8103132" lon="-118.3938671">
  <ele>-10.526</ele>
  <time>2026-09-02T22:07:50Z</time>
  <course>186.27</course>
  <speed>0.022360679774997897</speed>
  <fix>3d</fix>
</trkpt>
<trkpt lat="33.8103132" lon="-118.3938671">
  <ele>-10.588</ele>
  <time>2026-09-02T22:07:50Z</time>
  <course>186.27</course>
  <speed>0.022360679774997897</speed>
  <fix>3d</fix>
</trkpt>
<trkpt lat="33.810313" lon="-118.393867">
  <ele>-10.15</ele>
  <time>2026-09-02T22:07:50Z</time>
  <course>0.0</course>
  <speed>0.0</speed>
  <fix>3d</fix>
</trkpt>
<trkpt lat="33.8103132" lon="-118.3938671">
  <ele>-10.614</ele>
  <time>2026-09-02T22:07:50Z</time>
  <course>186.27</course>
  <speed>0.022360679774997897</speed>
  <fix>3d</fix>
</trkpt>
<trkpt lat="33.8103132" lon="-118.3938671">
  <ele>-10.65</ele>
  <time>2026-09-02T22:07:50Z</time>
  <course>186.28</course>
  <speed>0.022360679774997897</speed>
  <fix>3d</fix>
</trkpt>
<trkpt lat="33.810313" lon="-118.393867">
  <ele>-10.27</ele>
  <time>2026-09-02T22:07:50Z</time>
  <course>0.0</course>
  <speed>0.0</speed>
  <fix>3d</fix>
</trkpt>
<trkpt lat="33.8103132" lon="-118.3938671">
  <ele>-10.684</ele>
  <time>2026-09-02T22:07:50Z</time>
  <course>186.28</course>
  <speed>0.022360679774997897</speed>
  <fix>3d</fix>
</trkpt>
<trkpt lat="33.8103132" lon="-118.3938671">
  <ele>-10.713</ele>
  <time>2026-09-02T22:07:50Z</time>
  <course>186.28</course>
  <speed>0.022360679774997897</speed>
  <fix>3d</fix>
</trkpt>
<trkpt lat="33.810313" lon="-118.393867">
  <ele>-10.27</ele>
  <time>2026-09-02T22:07:50Z</time>
  <course>0.0</course>
  <speed>0.0</speed>
  <fix>3d</fix>
</trkpt>
<trkpt lat="33.8103132" lon="-118.3938671">
  <ele>-10.716</ele>
  <time>2026-09-02T22:07:50Z</time>
  <course>186.28</course>
  <speed>0.022360679774997897</speed>
  <fix>3d</fix>
</trkpt>
<trkpt lat="33.8103132" lon="-118.3938671">
  <ele>-10.776</ele>
  <time>2026-09-02T22:07:50Z</time>
  <course>186.29</course>
  <speed>0.022360679774997897</speed>
  <fix>3d</fix>
</trkpt>
<trkpt lat="33.810313" lon="-118.393867">
  <ele>-10.38</ele>
  <time>2026-09-02T22:07:50Z</time>
  <course>0.0</course>
  <speed>0.0</speed>
  <fix>3d</fix>
</trkpt>
<trkpt lat="33.8103132" lon="-118.3938671">
  <ele>-10.809</ele>
  <time>2026-09-02T22:07:50Z</time>
  <course>186.29</course>
  <speed>0.022360679774997897</speed>
  <fix>3d</fix>
</trkpt>
<trkpt lat="33.8103132" lon="-118.3938671">
  <ele>-10.84</ele>
  <time>2026-09-02T22:07:50Z</time>
  <course>186.29</course>
  <speed>0.022360679774997897</speed>
  <fix>3d</fix>
</trkpt>
<trkpt lat="33.810313" lon="-118.393867">
  <ele>-10.38</ele>
  <time>2026-09-02T22:07:50Z</time>
  <course>0.0</course>
  <speed>0.0</speed>
  <fix>3d</fix>
</trkpt>
<trkpt lat="33.8103132" lon="-118.3938671">
  <ele>-10.841</ele>
  <time>2026-09-02T22:07:50Z</time>
  <course>186.29</course>
  <speed>0.022360679774997897</speed>
  <fix>3d</fix>
</trkpt>
<trkpt lat="33.8103132" lon="-118.3938671">
  <ele>-10.904</ele>
  <time>2026-09-02T22:07:50Z</time>
  <course>186.3</course>
  <speed>0.022360679774997897</speed>
  <fix>3d</fix>
</trkpt>
<trkpt lat="33.810313" lon="-118.393867">
  <ele>-10.51</ele>
  <time>2026-09-02T22:07:50Z</time>
  <course>0.0</course>
  <speed>0.0</speed>
  <fix>3d</fix>
</trkpt>
<trkpt lat="33.8103132" lon="-118.3938671">
  <ele>-10.927</ele>
  <time>2026-09-02T22:07:50Z</time>
  <course>186.3</course>
  <speed>0.022360679774997897</speed>
  <fix>3d</fix>
</trkpt>
<trkpt lat="33.8103132" lon="-118.3938671">
  <ele>-10.969</ele>
  <time>2026-09-02T22:07:50Z</time>
  <course>186.3</course>
  <speed>0.022360679774997897</speed>
  <fix>3d</fix>
</trkpt>
<trkpt lat="33.810313" lon="-118.393867">
  <ele>-10.51</ele>
  <time>2026-09-02T22:07:50Z</time>
  <course>0.0</course>
  <speed>0.0</speed>
  <fix>3d</fix>
</trkpt>
<trkpt lat="33.8103132" lon="-118.3938671">
  <ele>-10.992</ele>
  <time>2026-09-02T22:07:50Z</time>
  <course>186.3</course>
  <speed>0.022360679774997897</speed>
  <fix>3d</fix>
</trkpt>
<trkpt lat="33.8103132" lon="-118.3938671">
  <ele>-11.033</ele>
  <time>2026-09-02T22:07:50Z</time>
  <course>186.31</course>
  <speed>0.022360679774997897</speed>
  <fix>3d</fix>
</trkpt>
<trkpt lat="33.810313" lon="-118.393867">
  <ele>-10.62</ele>
  <time>2026-09-02T22:07:50Z</time>
  <course>0.0</course>
  <speed>0.0</speed>
  <fix>3d</fix>
</trkpt>
<trkpt lat="33.8103132" lon="-118.3938671">
  <ele>-11.054</ele>
  <time>2026-09-02T22:07:50Z</time>
  <course>186.31</course>
  <speed>0.022360679774997897</speed>
  <fix>3d</fix>
</trkpt>
<trkpt lat="33.8103132" lon="-118.3938671">
  <ele>-11.096</ele>
  <time>2026-09-02T22:07:50Z</time>
  <course>186.31</course>
  <speed>0.022360679774997897</speed>
  <fix>3d</fix>
</trkpt>
<trkpt lat="33.810313" lon="-118.393867">
  <ele>-10.62</ele>
  <time>2026-09-02T22:07:50Z</time>
  <course>0.0</course>
  <speed>0.0</speed>
  <fix>3d</fix>
</trkpt>
<trkpt lat="33.8103132" lon="-118.3938671">
  <ele>-11.113</ele>
  <time>2026-09-02T22:07:50Z</time>
  <course>186.31</course>
  <speed>0.022360679774997897</speed>
  <fix>3d</fix>
</trkpt>
<trkpt lat="33.8103132" lon="-118.3938671">
  <ele>-11.159</ele>
  <time>2026-09-02T22:07:50Z</time>
  <course>186.32</course>
  <speed>0.022360679774997897</speed>
  <fix>3d</fix>
</trkpt>
<trkpt lat="33.810313" lon="-118.393867">
  <ele>-10.75</ele>
  <time>2026-09-02T22:07:50Z</time>
  <course>0.0</course>
  <speed>0.0</speed>
  <fix>3d</fix>
</trkpt>
<trkpt lat="33.8103132" lon="-118.3938671">
  <ele>-11.16</ele>
  <time>2026-09-02T22:07:50Z</time>
  <course>186.32</course>
  <speed>0.022360679774997897</speed>
  <fix>3d</fix>
</trkpt>
<trkpt lat="33.8103132" lon="-118.3938671">
  <ele>-11.221</ele>
  <time>2026-09-02T22:07:50Z</time>
  <course>186.32</course>
  <speed>0.022360679774997897</speed>
  <fix>3d</fix>
</trkpt>
<trkpt lat="33.810313" lon="-118.393867">
  <ele>-10.75</ele>
  <time>2026-09-02T22:07:50Z</time>
  <course>0.0</course>
  <speed>0.0</speed>
  <fix>3d</fix>
</trkpt>
<trkpt lat="33.8103132" lon="-118.3938671">
  <ele>-11.243</ele>
  <time>2026-09-02T22:07:50Z</time>
  <course>186.32</course>
  <speed>0.022360679774997897</speed>
  <fix>3d</fix>
</trkpt>
<trkpt lat="33.8103132" lon="-118.3938671">
  <ele>-11.283</ele>
  <time>2026-09-02T22:07:50Z</time>
  <course>186.32</course>
  <speed>0.022360679774997897</speed>
  <fix>3d</fix>
</trkpt>
<trkpt lat="33.810313" lon="-118.393867">
  <ele>-10.87</ele>
  <time>2026-09-02T22:07:50Z</time>
  <course>0.0</course>
  <speed>0.0</speed>
  <fix>3d</fix>
</trkpt>
<trkpt lat="33.8103132" lon="-118.3938671">
  <ele>-11.3</ele>
  <time>2026-09-02T22:07:50Z</time>
  <course>186.33</course>
  <speed>0.022360679774997897</speed>
  <fix>3d</fix>
</trkpt>
<trkpt lat="33.8103132" lon="-118.3938671">
  <ele>-11.346</ele>
  <time>2026-09-02T22:07:50Z</time>
  <course>186.33</course>
  <speed>0.022360679774997897</speed>
  <fix>3d</fix>
</trkpt>
<trkpt lat="33.810313" lon="-118.393867">
  <ele>-10.87</ele>
  <time>2026-09-02T22:07:50Z</time>
  <course>0.0</course>
  <speed>0.0</speed>
  <fix>3d</fix>
</trkpt>
<trkpt lat="33.8103132" lon="-118.3938671">
  <ele>-11.367</ele>
  <time>2026-09-02T22:07:50Z</time>
  <course>186.33</course>
  <speed>0.022360679774997897</speed>
  <fix>3d</fix>
</trkpt>
<trkpt lat="33.8103132" lon="-118.3938671">
  <ele>-11.408</ele>
  <time>2026-09-02T22:07:50Z</time>
  <course>186.33</course>
  <speed>0.022360679774997897</speed>
  <fix>3d</fix>
</trkpt>
<trkpt lat="33.810313" lon="-118.393867">
  <ele>-10.99</ele>
  <time>2026-09-02T22:07:50Z</time>
  <course>0.0</course>
  <speed>0.0</speed>
  <fix>3d</fix>
</trkpt>
<trkpt lat="33.8103132" lon="-118.3938671">
  <ele>-11.41</ele>
  <time>2026-09-02T22:07:50Z</time>
  <course>186.33</course>
  <speed>0.022360679774997897</speed>
  <fix>3d</fix>
</trkpt>
<trkpt lat="33.8103132" lon="-118.3938671">
  <ele>-11.471</ele>
  <time>2026-09-02T22:07:50Z</time>
  <course>186.34</course>
  <speed>0.022360679774997897</speed>
  <fix>3d</fix>
</trkpt>
<trkpt lat="33.810313" lon="-118.393867">
  <ele>-10.99</ele>
  <time>2026-09-02T22:07:50Z</time>
  <course>0.0</course>
  <speed>0.0</speed>
  <fix>3d</fix>
</trkpt>
<trkpt lat="33.8103132" lon="-118.3938671">
  <ele>-11.472</ele>
  <time>2026-09-02T22:07:50Z</time>
  <course>186.34</course>
  <speed>0.022360679774997897</speed>
  <fix>3d</fix>
</trkpt>
<trkpt lat="33.8103132" lon="-118.3938671">
  <ele>-11.533</ele>
  <time>2026-09-02T22:07:50Z</time>
  <course>186.34</course>
  <speed>0.022360679774997897</speed>
  <fix>3d</fix>
</trkpt>
<trkpt lat="33.810313" lon="-118.393867">
  <ele>-11.11</ele>
  <time>2026-09-02T22:07:50Z</time>
  <course>0.0</course>
  <speed>0.0</speed>
  <fix>3d</fix>
</trkpt>
<trkpt lat="33.8103132" lon="-118.3938671">
  <ele>-11.554</ele>
  <time>2026-09-02T22:07:50Z</time>
  <course>186.34</course>
  <speed>0.022360679774997897</speed>
  <fix>3d</fix>
</trkpt>
<trkpt lat="33.8103132" lon="-118.3938671">
  <ele>-11.596</ele>
  <time>2026-09-02T22:07:50Z</time>
  <course>186.35</course>
  <speed>0.022360679774997897</speed>
  <fix>3d</fix>
</trkpt>
<trkpt lat="33.810313" lon="-118.393867">
  <ele>-11.11</ele>
  <time>2026-09-02T22:07:50Z</time>
  <course>0.0</course>
  <speed>0.0</speed>
  <fix>3d</fix>
</trkpt>
<trkpt lat="33.8103132" lon="-118.3938671">
  <ele>-11.618</ele>
  <time>2026-09-02T22:07:50Z</time>
  <course>186.35</course>
  <speed>0.022360679774997897</speed>
  <fix>3d</fix>
</trkpt>
<trkpt lat="33.8103132" lon="-118.3938671">
  <ele>-11.658</ele>
  <time>2026-09-02T22:07:50Z</time>
  <course>186.35</course>
  <speed>0.022360679774997897</speed>
  <fix>3d</fix>
</trkpt>
<trkpt lat="33.810313" lon="-118.393867">
  <ele>-11.23</ele>
  <time>2026-09-02T22:07:50Z</time>
  <course>0.0</course>
  <speed>0.0</speed>
  <fix>3d</fix>
</trkpt>
<trkpt lat="33.8103132" lon="-118.3938671">
  <ele>-11.678</ele>
  <time>2026-09-02T22:07:50Z</time>
  <course>186.35</course>
  <speed>0.022360679774997897</speed>
  <fix>3d</fix>
</trkpt>
<trkpt lat="33.8103132" lon="-118.3938671">
  <ele>-11.72</ele>
  <time>2026-09-02T22:07:50Z</time>
  <course>186.35</course>
  <speed>0.022360679774997897</speed>
  <fix>3d</fix>
</trkpt>
<trkpt lat="33.810313" lon="-118.393867">
  <ele>-11.23</ele>
  <time>2026-09-02T22:07:50Z</time>
  <course>0.0</course>
  <speed>0.0</speed>
  <fix>3d</fix>
</trkpt>
<trkpt lat="33.8103132" lon="-118.3938671">
  <ele>-11.748</ele>
  <time>2026-09-02T22:07:50Z</time>
  <course>186.36</course>
  <speed>0.022360679774997897</speed>
  <fix>3d</fix>
</trkpt>
<trkpt lat="33.8103132" lon="-118.3938671">
  <ele>-11.781</ele>
  <time>2026-09-02T22:07:50Z</time>
  <course>186.36</course>
  <speed>0.022360679774997897</speed>
  <fix>3d</fix>
</trkpt>
<trkpt lat="33.810313" lon="-118.393867">
  <ele>-11.35</ele>
  <time>2026-09-02T22:07:50Z</time>
  <course>0.0</course>
  <speed>0.0</speed>
  <fix>3d</fix>
</trkpt>
<trkpt lat="33.8103132" lon="-118.3938671">
  <ele>-11.801</ele>
  <time>2026-09-02T22:07:50Z</time>
  <course>186.36</course>
  <speed>0.022360679774997897</speed>
  <fix>3d</fix>
</trkpt>
<trkpt lat="33.8103132" lon="-118.3938671">
  <ele>-11.842</ele>
  <time>2026-09-02T22:07:50Z</time>
  <course>186.36</course>
  <speed>0.022360679774997897</speed>
  <fix>3d</fix>
</trkpt>
<trkpt lat="33.810313" lon="-118.393867">
  <ele>-11.35</ele>
  <time>2026-09-02T22:07:50Z</time>
  <course>0.0</course>
  <speed>0.0</speed>
  <fix>3d</fix>
</trkpt>
<trkpt lat="33.8103132" lon="-118.3938671">
  <ele>-11.863</ele>
  <time>2026-09-02T22:07:50Z</time>
  <course>186.36</course>
  <speed>0.022360679774997897</speed>
  <fix>3d</fix>
</trkpt>
<trkpt lat="33.8103132" lon="-118.3938671">
  <ele>-11.902</ele>
  <time>2026-09-02T22:07:50Z</time>
  <course>186.37</course>
  <speed>0.022360679774997897</speed>
  <fix>3d</fix>
</trkpt>
<trkpt lat="33.810313" lon="-118.393867">
  <ele>-11.47</ele>
  <time>2026-09-02T22:07:50Z</time>
  <course>0.0</course>
  <speed>0.0</speed>
  <fix>3d</fix>
</trkpt>
<trkpt lat="33.8103132" lon="-118.3938671">
  <ele>-11.917</ele>
  <time>2026-09-02T22:07:50Z</time>
  <course>186.37</course>
  <speed>0.022360679774997897</speed>
  <fix>3d</fix>
</trkpt>
<trkpt lat="33.8103132" lon="-118.3938671">
  <ele>-11.963</ele>
  <time>2026-09-02T22:07:50Z</time>
  <course>186.37</course>
  <speed>0.022360679774997897</speed>
  <fix>3d</fix>
</trkpt>
<trkpt lat="33.810313" lon="-118.393867">
  <ele>-11.47</ele>
  <time>2026-09-02T22:07:50Z</time>
  <course>0.0</course>
  <speed>0.0</speed>
  <fix>3d</fix>
</trkpt>
<trkpt lat="33.8103132" lon="-118.3938671">
  <ele>-11.983</ele>
  <time>2026-09-02T22:07:50Z</time>
  <course>186.37</course>
  <speed>0.022360679774997897</speed>
  <fix>3d</fix>
</trkpt>
<trkpt lat="33.8103132" lon="-118.3938671">
  <ele>-12.024</ele>
  <time>2026-09-02T22:07:50Z</time>
  <course>186.37</course>
  <speed>0.022360679774997897</speed>
  <fix>3d</fix>
</trkpt>
<trkpt lat="33.810313" lon="-118.393867">
  <ele>-11.6</ele>
  <time>2026-09-02T22:07:50Z</time>
  <course>0.0</course>
  <speed>0.0</speed>
  <fix>3d</fix>
</trkpt>
<trkpt lat="33.8103132" lon="-118.3938671">
  <ele>-12.025</ele>
  <time>2026-09-02T22:07:50Z</time>
  <course>186.37</course>
  <speed>0.022360679774997897</speed>
  <fix>3d</fix>
</trkpt>
<trkpt lat="33.8103132" lon="-118.3938671">
  <ele>-12.085</ele>
  <time>2026-09-02T22:07:50Z</time>
  <course>186.38</course>
  <speed>0.022360679774997897</speed>
  <fix>3d</fix>
</trkpt>
<trkpt lat="33.810313" lon="-118.393867">
  <ele>-11.6</ele>
  <time>2026-09-02T22:07:50Z</time>
  <course>0.0</course>
  <speed>0.0</speed>
  <fix>3d</fix>
</trkpt>
<trkpt lat="33.8103132" lon="-118.3938671">
  <ele>-12.105</ele>
  <time>2026-09-02T22:07:50Z</time>
  <course>186.38</course>
  <speed>0.022360679774997897</speed>
  <fix>3d</fix>
</trkpt>
<trkpt lat="33.8103132" lon="-118.3938671">
  <ele>-12.146</ele>
  <time>2026-09-02T22:07:50Z</time>
  <course>186.38</course>
  <speed>0.022360679774997897</speed>
  <fix>3d</fix>
</trkpt>
<trkpt lat="33.810313" lon="-118.393867">
  <ele>-11.71</ele>
  <time>2026-09-02T22:07:50Z</time>
  <course>0.0</course>
  <speed>0.0</speed>
  <fix>3d</fix>
</trkpt>
<trkpt lat="33.8103132" lon="-118.3938671">
  <ele>-12.17</ele>
  <time>2026-09-02T22:07:50Z</time>
  <course>186.38</course>
  <speed>0.022360679774997897</speed>
  <fix>3d</fix>
</trkpt>
<trkpt lat="33.8103132" lon="-118.3938671">
  <ele>-12.208</ele>
  <time>2026-09-02T22:07:50Z</time>
  <course>186.38</course>
  <speed>0.022360679774997897</speed>
  <fix>3d</fix>
</trkpt>
<trkpt lat="33.810313" lon="-118.393867">
  <ele>-11.71</ele>
  <time>2026-09-02T22:07:50Z</time>
  <course>0.0</course>
  <speed>0.0</speed>
  <fix>3d</fix>
</trkpt>
<trkpt lat="33.8103132" lon="-118.3938671">
  <ele>-12.229</ele>
  <time>2026-09-02T22:07:50Z</time>
  <course>186.38</course>
  <speed>0.022360679774997897</speed>
  <fix>3d</fix>
</trkpt>
<trkpt lat="33.8103132" lon="-118.3938671">
  <ele>-12.27</ele>
  <time>2026-09-02T22:07:50Z</time>
  <course>186.39</course>
  <speed>0.022360679774997897</speed>
  <fix>3d</fix>
</trkpt>
<trkpt lat="33.810313" lon="-118.393867">
  <ele>-11.84</ele>
  <time>2026-09-02T22:07:50Z</time>
  <course>0.0</course>
  <speed>0.0</speed>
  <fix>3d</fix>
</trkpt>
<trkpt lat="33.8103132" lon="-118.3938671">
  <ele>-12.273</ele>
  <time>2026-09-02T22:07:50Z</time>
  <course>186.39</course>
  <speed>0.022360679774997897</speed>
  <fix>3d</fix>
</trkpt>
<trkpt lat="33.8103132" lon="-118.3938671">
  <ele>-12.331</ele>
  <time>2026-09-02T22:07:50Z</time>
  <course>186.39</course>
  <speed>0.022360679774997897</speed>
  <fix>3d</fix>
</trkpt>
<trkpt lat="33.810313" lon="-118.393867">
  <ele>-11.84</ele>
  <time>2026-09-02T22:07:50Z</time>
  <course>0.0</course>
  <speed>0.0</speed>
  <fix>3d</fix>
</trkpt>
<trkpt lat="33.8103132" lon="-118.3938671">
  <ele>-12.347</ele>
  <time>2026-09-02T22:07:50Z</time>
  <course>186.39</course>
  <speed>0.022360679774997897</speed>
  <fix>3d</fix>
</trkpt>
<trkpt lat="33.8103132" lon="-118.3938671">
  <ele>-12.391</ele>
  <time>2026-09-02T22:07:50Z</time>
  <course>186.39</course>
  <speed>0.022360679774997897</speed>
  <fix>3d</fix>
</trkpt>
<trkpt lat="33.810313" lon="-118.393867">
  <ele>-11.96</ele>
  <time>2026-09-02T22:07:50Z</time>
  <course>0.0</course>
  <speed>0.0</speed>
  <fix>3d</fix>
</trkpt>
<trkpt lat="33.8103132" lon="-118.3938671">
  <ele>-12.411</ele>
  <time>2026-09-02T22:07:50Z</time>
  <course>186.39</course>
  <speed>0.022360679774997897</speed>
  <fix>3d</fix>
</trkpt>
<trkpt lat="33.8103132" lon="-118.3938671">
  <ele>-12.453</ele>
  <time>2026-09-02T22:07:50Z</time>
  <course>186.39</course>
  <speed>0.022360679774997897</speed>
  <fix>3d</fix>
</trkpt>
<trkpt lat="33.810313" lon="-118.393867">
  <ele>-11.96</ele>
  <time>2026-09-02T22:07:50Z</time>
  <course>0.0</course>
  <speed>0.0</speed>
  <fix>3d</fix>
</trkpt>
<trkpt lat="33.8103132" lon="-118.3938671">
  <ele>-12.472</ele>
  <time>2026-09-02T22:07:50Z</time>
  <course>186.39</course>
  <speed>0.022360679774997897</speed>
  <fix>3d</fix>
</trkpt>
<trkpt lat="33.8103132" lon="-118.3938671">
  <ele>-12.515</ele>
  <time>2026-09-02T22:07:50Z</time>
  <course>186.4</course>
  <speed>0.022360679774997897</speed>
  <fix>3d</fix>
</trkpt>
<trkpt lat="33.810313" lon="-118.393867">
  <ele>-12.08</ele>
  <time>2026-09-02T22:07:50Z</time>
  <course>0.0</course>
  <speed>0.0</speed>
  <fix>3d</fix>
</trkpt>
<trkpt lat="33.8103132" lon="-118.3938671">
  <ele>-12.529</ele>
  <time>2026-09-02T22:07:50Z</time>
  <course>186.4</course>
  <speed>0.022360679774997897</speed>
  <fix>3d</fix>
</trkpt>
<trkpt lat="33.8103132" lon="-118.3938671">
  <ele>-12.578</ele>
  <time>2026-09-02T22:07:50Z</time>
  <course>186.4</course>
  <speed>0.022360679774997897</speed>
  <fix>3d</fix>
</trkpt>
<trkpt lat="33.810313" lon="-118.393867">
  <ele>-12.08</ele>
  <time>2026-09-02T22:07:50Z</time>
  <course>0.0</course>
  <speed>0.0</speed>
  <fix>3d</fix>
</trkpt>
<trkpt lat="33.8103132" lon="-118.3938671">
  <ele>-12.608</ele>
  <time>2026-09-02T22:07:50Z</time>
  <course>186.4</course>
  <speed>0.022360679774997897</speed>
  <fix>3d</fix>
</trkpt>
<trkpt lat="33.8103132" lon="-118.3938671">
  <ele>-12.64</ele>
  <time>2026-09-02T22:07:50Z</time>
  <course>186.4</course>
  <speed>0.022360679774997897</speed>
  <fix>3d</fix>
</trkpt>
<trkpt lat="33.810313" lon="-118.393867">
  <ele>-12.2</ele>
  <time>2026-09-02T22:07:50Z</time>
  <course>0.0</course>
  <speed>0.0</speed>
  <fix>3d</fix>
</trkpt>
<trkpt lat="33.8103132" lon="-118.3938671">
  <ele>-12.662</ele>
  <time>2026-09-02T22:07:50Z</time>
  <course>186.4</course>
  <speed>0.022360679774997897</speed>
  <fix>3d</fix>
</trkpt>
<trkpt lat="33.8103132" lon="-118.3938671">
  <ele>-12.701</ele>
  <time>2026-09-02T22:07:50Z</time>
  <course>186.4</course>
  <speed>0.022360679774997897</speed>
  <fix>3d</fix>
</trkpt>
<trkpt lat="33.810313" lon="-118.393867">
  <ele>-12.2</ele>
  <time>2026-09-02T22:07:50Z</time>
  <course>0.0</course>
  <speed>0.0</speed>
  <fix>3d</fix>
</trkpt>
<trkpt lat="33.8103132" lon="-118.3938671">
  <ele>-12.703</ele>
  <time>2026-09-02T22:07:50Z</time>
  <course>186.4</course>
  <speed>0.022360679774997897</speed>
  <fix>3d</fix>
</trkpt>
<trkpt lat="33.8103132" lon="-118.3938671">
  <ele>-12.762</ele>
  <time>2026-09-02T22:07:50Z</time>
  <course>186.41</course>
  <speed>0.022360679774997897</speed>
  <fix>3d</fix>
</trkpt>
<trkpt lat="33.810313" lon="-118.393867">
  <ele>-12.32</ele>
  <time>2026-09-02T22:07:50Z</time>
  <course>0.0</course>
  <speed>0.0</speed>
  <fix>3d</fix>
</trkpt>
<trkpt lat="33.8103132" lon="-118.3938671">
  <ele>-12.764</ele>
  <time>2026-09-02T22:07:50Z</time>
  <course>186.41</course>
  <speed>0.022360679774997897</speed>
  <fix>3d</fix>
</trkpt>
<trkpt lat="33.8103132" lon="-118.3938671">
  <ele>-12.824</ele>
  <time>2026-09-02T22:07:50Z</time>
  <course>186.41</course>
  <speed>0.022360679774997897</speed>
  <fix>3d</fix>
</trkpt>
<trkpt lat="33.810313" lon="-118.393867">
  <ele>-12.32</ele>
  <time>2026-09-02T22:07:50Z</time>
  <course>0.0</course>
  <speed>0.0</speed>
  <fix>3d</fix>
</trkpt>
<trkpt lat="33.8103132" lon="-118.3938671">
  <ele>-12.843</ele>
  <time>2026-09-02T22:07:50Z</time>
  <course>186.41</course>
  <speed>0.022360679774997897</speed>
  <fix>3d</fix>
</trkpt>
<trkpt lat="33.8103132" lon="-118.3938671">
  <ele>-12.886</ele>
  <time>2026-09-02T22:07:50Z</time>
  <course>186.41</course>
  <speed>0.022360679774997897</speed>
  <fix>3d</fix>
</trkpt>
<trkpt lat="33.810313" lon="-118.393867">
  <ele>-12.44</ele>
  <time>2026-09-02T22:07:50Z</time>
  <course>0.0</course>
  <speed>0.0</speed>
  <fix>3d</fix>
</trkpt>
<trkpt lat="33.8103132" lon="-118.3938671">
  <ele>-12.908</ele>
  <time>2026-09-02T22:07:50Z</time>
  <course>186.41</course>
  <speed>0.022360679774997897</speed>
  <fix>3d</fix>
</trkpt>
<trkpt lat="33.8103132" lon="-118.3938671">
  <ele>-12.949</ele>
  <time>2026-09-02T22:07:50Z</time>
  <course>186.41</course>
  <speed>0.022360679774997897</speed>
  <fix>3d</fix>
</trkpt>
<trkpt lat="33.810313" lon="-118.393867">
  <ele>-12.44</ele>
  <time>2026-09-02T22:07:50Z</time>
  <course>0.0</course>
  <speed>0.0</speed>
  <fix>3d</fix>
</trkpt>
<trkpt lat="33.8103132" lon="-118.3938671">
  <ele>-12.969</ele>
  <time>2026-09-02T22:07:50Z</time>
  <course>186.42</course>
  <speed>0.022360679774997897</speed>
  <fix>3d</fix>
</trkpt>
<trkpt lat="33.8103132" lon="-118.3938671">
  <ele>-13.011</ele>
  <time>2026-09-02T22:07:50Z</time>
  <course>186.42</course>
  <speed>0.022360679774997897</speed>
  <fix>3d</fix>
</trkpt>
<trkpt lat="33.810313" lon="-118.393867">
  <ele>-12.55</ele>
  <time>2026-09-02T22:07:50Z</time>
  <course>0.0</course>
  <speed>0.0</speed>
  <fix>3d</fix>
</trkpt>
<trkpt lat="33.8103132" lon="-118.3938671">
  <ele>-13.027</ele>
  <time>2026-09-02T22:07:50Z</time>
  <course>186.42</course>
  <speed>0.022360679774997897</speed>
  <fix>3d</fix>
</trkpt>
<trkpt lat="33.8103132" lon="-118.3938671">
  <ele>-13.074</ele>
  <time>2026-09-02T22:07:50Z</time>
  <course>186.42</course>
  <speed>0.022360679774997897</speed>
  <fix>3d</fix>
</trkpt>
<trkpt lat="33.810313" lon="-118.393867">
  <ele>-12.55</ele>
  <time>2026-09-02T22:07:50Z</time>
  <course>0.0</course>
  <speed>0.0</speed>
  <fix>3d</fix>
</trkpt>
<trkpt lat="33.8103132" lon="-118.3938671">
  <ele>-13.075</ele>
  <time>2026-09-02T22:07:50Z</time>
  <course>186.42</course>
  <speed>0.022360679774997897</speed>
  <fix>3d</fix>
</trkpt>
<trkpt lat="33.8103132" lon="-118.3938671">
  <ele>-13.136</ele>
  <time>2026-09-02T22:07:50Z</time>
  <course>186.42</course>
  <speed>0.022360679774997897</speed>
  <fix>3d</fix>
</trkpt>
<trkpt lat="33.810313" lon="-118.393867">
  <ele>-12.68</ele>
  <time>2026-09-02T22:07:50Z</time>
  <course>0.0</course>
  <speed>0.0</speed>
  <fix>3d</fix>
</trkpt>
<trkpt lat="33.8103132" lon="-118.3938671">
  <ele>-13.156</ele>
  <time>2026-09-02T22:07:50Z</time>
  <course>186.42</course>
  <speed>0.022360679774997897</speed>
  <fix>3d</fix>
</trkpt>
<trkpt lat="33.8103132" lon="-118.3938671">
  <ele>-13.197</ele>
  <time>2026-09-02T22:07:50Z</time>
  <course>186.42</course>
  <speed>0.022360679774997897</speed>
  <fix>3d</fix>
</trkpt>
<trkpt lat="33.810313" lon="-118.393867">
  <ele>-12.68</ele>
  <time>2026-09-02T22:07:50Z</time>
  <course>0.0</course>
  <speed>0.0</speed>
  <fix>3d</fix>
</trkpt>
<trkpt lat="33.8103132" lon="-118.3938671">
  <ele>-13.216</ele>
  <time>2026-09-02T22:07:50Z</time>
  <course>186.42</course>
  <speed>0.022360679774997897</speed>
  <fix>3d</fix>
</trkpt>
<trkpt lat="33.8103132" lon="-118.3938671">
  <ele>-13.258</ele>
  <time>2026-09-02T22:07:50Z</time>
  <course>186.42</course>
  <speed>0.022360679774997897</speed>
  <fix>3d</fix>
</trkpt>
<trkpt lat="33.810313" lon="-118.393867">
  <ele>-12.79</ele>
  <time>2026-09-02T22:07:50Z</time>
  <course>0.0</course>
  <speed>0.0</speed>
  <fix>3d</fix>
</trkpt>
<trkpt lat="33.8103132" lon="-118.3938671">
  <ele>-13.277</ele>
  <time>2026-09-02T22:07:50Z</time>
  <course>186.42</course>
  <speed>0.022360679774997897</speed>
  <fix>3d</fix>
</trkpt>
<trkpt lat="33.8103132" lon="-118.3938671">
  <ele>-13.318</ele>
  <time>2026-09-02T22:07:50Z</time>
  <course>186.43</course>
  <speed>0.022360679774997897</speed>
  <fix>3d</fix>
</trkpt>
<trkpt lat="33.810313" lon="-118.393867">
  <ele>-12.79</ele>
  <time>2026-09-02T22:07:50Z</time>
  <course>0.0</course>
  <speed>0.0</speed>
  <fix>3d</fix>
</trkpt>
<trkpt lat="33.8103132" lon="-118.3938671">
  <ele>-13.319</ele>
  <time>2026-09-02T22:07:50Z</time>
  <course>186.43</course>
  <speed>0.022360679774997897</speed>
  <fix>3d</fix>
</trkpt>
<trkpt lat="33.8103132" lon="-118.3938671">
  <ele>-13.377</ele>
  <time>2026-09-02T22:07:50Z</time>
  <course>186.43</course>
  <speed>0.022360679774997897</speed>
  <fix>3d</fix>
</trkpt>
<trkpt lat="33.810313" lon="-118.393867">
  <ele>-12.92</ele>
  <time>2026-09-02T22:07:50Z</time>
  <course>0.0</course>
  <speed>0.0</speed>
  <fix>3d</fix>
</trkpt>
<trkpt lat="33.8103132" lon="-118.3938671">
  <ele>-13.378</ele>
  <time>2026-09-02T22:07:50Z</time>
  <course>186.43</course>
  <speed>0.022360679774997897</speed>
  <fix>3d</fix>
</trkpt>
<trkpt lat="33.8103132" lon="-118.3938671">
  <ele>-13.435</ele>
  <time>2026-09-02T22:07:50Z</time>
  <course>186.43</course>
  <speed>0.022360679774997897</speed>
  <fix>3d</fix>
</trkpt>
<trkpt lat="33.810313" lon="-118.393867">
  <ele>-12.92</ele>
  <time>2026-09-02T22:07:50Z</time>
  <course>0.0</course>
  <speed>0.0</speed>
  <fix>3d</fix>
</trkpt>
<trkpt lat="33.8103132" lon="-118.3938671">
  <ele>-13.459</ele>
  <time>2026-09-02T22:07:50Z</time>
  <course>186.43</course>
  <speed>0.022360679774997897</speed>
  <fix>3d</fix>
</trkpt>
<trkpt lat="33.8103132" lon="-118.3938671">
  <ele>-13.494</ele>
  <time>2026-09-02T22:07:50Z</time>
  <course>186.43</course>
  <speed>0.022360679774997897</speed>
  <fix>3d</fix>
</trkpt>
<trkpt lat="33.810313" lon="-118.393867">
  <ele>-13.04</ele>
  <time>2026-09-02T22:07:50Z</time>
  <course>0.0</course>
  <speed>0.0</speed>
  <fix>3d</fix>
</trkpt>
<trkpt lat="33.8103132" lon="-118.3938671">
  <ele>-13.524</ele>
  <time>2026-09-02T22:07:50Z</time>
  <course>186.43</course>
  <speed>0.022360679774997897</speed>
  <fix>3d</fix>
</trkpt>
<trkpt lat="33.8103132" lon="-118.3938671">
  <ele>-13.552</ele>
  <time>2026-09-02T22:07:50Z</time>
  <course>186.43</course>
  <speed>0.022360679774997897</speed>
  <fix>3d</fix>
</trkpt>
<trkpt lat="33.810313" lon="-118.393867">
  <ele>-13.04</ele>
  <time>2026-09-02T22:07:50Z</time>
  <course>0.0</course>
  <speed>0.0</speed>
  <fix>3d</fix>
</trkpt>
<trkpt lat="33.8103132" lon="-118.3938671">
  <ele>-13.571</ele>
  <time>2026-09-02T22:07:50Z</time>
  <course>186.43</course>
  <speed>0.022360679774997897</speed>
  <fix>3d</fix>
</trkpt>
<trkpt lat="33.8103132" lon="-118.3938671">
  <ele>-13.61</ele>
  <time>2026-09-02T22:07:50Z</time>
  <course>186.43</course>
  <speed>0.022360679774997897</speed>
  <fix>3d</fix>
</trkpt>
<trkpt lat="33.810313" lon="-118.393867">
  <ele>-13.16</ele>
  <time>2026-09-02T22:07:50Z</time>
  <course>0.0</course>
  <speed>0.0</speed>
  <fix>3d</fix>
</trkpt>
<trkpt lat="33.8103132" lon="-118.3938671">
  <ele>-13.63</ele>
  <time>2026-09-02T22:07:50Z</time>
  <course>186.43</course>
  <speed>0.022360679774997897</speed>
  <fix>3d</fix>
</trkpt>
<trkpt lat="33.8103132" lon="-118.3938671">
  <ele>-13.668</ele>
  <time>2026-09-02T22:07:50Z</time>
  <course>186.44</course>
  <speed>0.022360679774997897</speed>
  <fix>3d</fix>
</trkpt>
<trkpt lat="33.810313" lon="-118.393867">
  <ele>-13.16</ele>
  <time>2026-09-02T22:07:50Z</time>
  <course>0.0</course>
  <speed>0.0</speed>
  <fix>3d</fix>
</trkpt>
<trkpt lat="33.8103132" lon="-118.3938671">
  <ele>-13.669</ele>
  <time>2026-09-02T22:07:50Z</time>
  <course>186.44</course>
  <speed>0.022360679774997897</speed>
  <fix>3d</fix>
</trkpt>
<trkpt lat="33.8103132" lon="-118.3938671">
  <ele>-13.726</ele>
  <time>2026-09-02T22:07:50Z</time>
  <course>186.44</course>
  <speed>0.022360679774997897</speed>
  <fix>3d</fix>
</trkpt>
<trkpt lat="33.810313" lon="-118.393867">
  <ele>-13.28</ele>
  <time>2026-09-02T22:07:50Z</time>
  <course>0.0</course>
  <speed>0.0</speed>
  <fix>3d</fix>
</trkpt>
<trkpt lat="33.8103132" lon="-118.3938671">
  <ele>-13.747</ele>
  <time>2026-09-02T22:07:50Z</time>
  <course>186.44</course>
  <speed>0.022360679774997897</speed>
  <fix>3d</fix>
</trkpt>
<trkpt lat="33.8103132" lon="-118.3938671">
  <ele>-13.784</ele>
  <time>2026-09-02T22:07:50Z</time>
  <course>186.44</course>
  <speed>0.022360679774997897</speed>
  <fix>3d</fix>
</trkpt>
<trkpt lat="33.810313" lon="-118.393867">
  <ele>-13.28</ele>
  <time>2026-09-02T22:07:50Z</time>
  <course>0.0</course>
  <speed>0.0</speed>
  <fix>3d</fix>
</trkpt>
<trkpt lat="33.8103132" lon="-118.3938671">
  <ele>-13.802</ele>
  <time>2026-09-02T22:07:50Z</time>
  <course>186.44</course>
  <speed>0.022360679774997897</speed>
  <fix>3d</fix>
</trkpt>
<trkpt lat="33.8103132" lon="-118.3938671">
  <ele>-13.843</ele>
  <time>2026-09-02T22:07:50Z</time>
  <course>186.44</course>
  <speed>0.022360679774997897</speed>
  <fix>3d</fix>
</trkpt>
<trkpt lat="33.810313" lon="-118.393867">
  <ele>-13.41</ele>
  <time>2026-09-02T22:07:50Z</time>
  <course>0.0</course>
  <speed>0.0</speed>
  <fix>3d</fix>
</trkpt>
<trkpt lat="33.8103132" lon="-118.3938671">
  <ele>-13.864</ele>
  <time>2026-09-02T22:07:50Z</time>
  <course>186.44</course>
  <speed>0.022360679774997897</speed>
  <fix>3d</fix>
</trkpt>
<trkpt lat="33.8103132" lon="-118.3938671">
  <ele>-13.903</ele>
  <time>2026-09-02T22:07:50Z</time>
  <course>186.44</course>
  <speed>0.022360679774997897</speed>
  <fix>3d</fix>
</trkpt>
<trkpt lat="33.810313" lon="-118.393867">
  <ele>-13.41</ele>
  <time>2026-09-02T22:07:50Z</time>
  <course>0.0</course>
  <speed>0.0</speed>
  <fix>3d</fix>
</trkpt>
<trkpt lat="33.8103132" lon="-118.3938671">
  <ele>-13.923</ele>
  <time>2026-09-02T22:07:50Z</time>
  <course>186.44</course>
  <speed>0.022360679774997897</speed>
  <fix>3d</fix>
</trkpt>
<trkpt lat="33.8103132" lon="-118.3938671">
  <ele>-13.964</ele>
  <time>2026-09-02T22:07:50Z</time>
  <course>186.44</course>
  <speed>0.022360679774997897</speed>
  <fix>3d</fix>
</trkpt>
<trkpt lat="33.810313" lon="-118.393867">
  <ele>-13.53</ele>
  <time>2026-09-02T22:07:50Z</time>
  <course>0.0</course>
  <speed>0.0</speed>
  <fix>3d</fix>
</trkpt>
<trkpt lat="33.8103132" lon="-118.3938671">
  <ele>-13.966</ele>
  <time>2026-09-02T22:07:50Z</time>
  <course>186.44</course>
  <speed>0.022360679774997897</speed>
  <fix>3d</fix>
</trkpt>
<trkpt lat="33.8103132" lon="-118.3938671">
  <ele>-14.025</ele>
  <time>2026-09-02T22:07:50Z</time>
  <course>186.44</course>
  <speed>0.022360679774997897</speed>
  <fix>3d</fix>
</trkpt>
<trkpt lat="33.810313" lon="-118.393867">
  <ele>-13.53</ele>
  <time>2026-09-02T22:07:50Z</time>
  <course>0.0</course>
  <speed>0.0</speed>
  <fix>3d</fix>
</trkpt>
<trkpt lat="33.8103132" lon="-118.3938671">
  <ele>-14.048</ele>
  <time>2026-09-02T22:07:50Z</time>
  <course>186.44</course>
  <speed>0.022360679774997897</speed>
  <fix>3d</fix>
</trkpt>
<trkpt lat="33.8103132" lon="-118.3938671">
  <ele>-14.086</ele>
  <time>2026-09-02T22:07:50Z</time>
  <course>186.44</course>
  <speed>0.022360679774997897</speed>
  <fix>3d</fix>
</trkpt>
<trkpt lat="33.810313" lon="-118.393867">
  <ele>-13.65</ele>
  <time>2026-09-02T22:07:50Z</time>
  <course>0.0</course>
  <speed>0.0</speed>
  <fix>3d</fix>
</trkpt>
<trkpt lat="33.8103132" lon="-118.3938671">
  <ele>-14.107</ele>
  <time>2026-09-02T22:07:50Z</time>
  <course>186.44</course>
  <speed>0.022360679774997897</speed>
  <fix>3d</fix>
</trkpt>
<trkpt lat="33.8103132" lon="-118.3938671">
  <ele>-14.147</ele>
  <time>2026-09-02T22:07:50Z</time>
  <course>186.44</course>
  <speed>0.022360679774997897</speed>
  <fix>3d</fix>
</trkpt>
<trkpt lat="33.810313" lon="-118.393867">
  <ele>-13.65</ele>
  <time>2026-09-02T22:07:50Z</time>
  <course>0.0</course>
  <speed>0.0</speed>
  <fix>3d</fix>
</trkpt>
<trkpt lat="33.8103132" lon="-118.3938671">
  <ele>-14.167</ele>
  <time>2026-09-02T22:07:50Z</time>
  <course>186.44</course>
  <speed>0.022360679774997897</speed>
  <fix>3d</fix>
</trkpt>
<trkpt lat="33.8103132" lon="-118.3938671">
  <ele>-14.209</ele>
  <time>2026-09-02T22:07:50Z</time>
  <course>186.44</course>
  <speed>0.022360679774997897</speed>
  <fix>3d</fix>
</trkpt>
<trkpt lat="33.810313" lon="-118.393867">
  <ele>-13.77</ele>
  <time>2026-09-02T22:07:50Z</time>
  <course>0.0</course>
  <speed>0.0</speed>
  <fix>3d</fix>
</trkpt>
<trkpt lat="33.8103132" lon="-118.3938671">
  <ele>-14.231</ele>
  <time>2026-09-02T22:07:50Z</time>
  <course>186.44</course>
  <speed>0.022360679774997897</speed>
  <fix>3d</fix>
</trkpt>
<trkpt lat="33.8103132" lon="-118.3938671">
  <ele>-14.272</ele>
  <time>2026-09-02T22:07:50Z</time>
  <course>186.44</course>
  <speed>0.022360679774997897</speed>
  <fix>3d</fix>
</trkpt>
<trkpt lat="33.810313" lon="-118.393867">
  <ele>-13.77</ele>
  <time>2026-09-02T22:07:50Z</time>
  <course>0.0</course>
  <speed>0.0</speed>
  <fix>3d</fix>
</trkpt>
<trkpt lat="33.8103132" lon="-118.3938671">
  <ele>-14.274</ele>
  <time>2026-09-02T22:07:50Z</time>
  <course>186.44</course>
  <speed>0.022360679774997897</speed>
  <fix>3d</fix>
</trkpt>
<trkpt lat="33.8103132" lon="-118.3938671">
  <ele>-14.335</ele>
  <time>2026-09-02T22:07:50Z</time>
  <course>186.45</course>
  <speed>0.022360679774997897</speed>
  <fix>3d</fix>
</trkpt>
<trkpt lat="33.810313" lon="-118.393867">
  <ele>-13.88</ele>
  <time>2026-09-02T22:07:50Z</time>
  <course>0.0</course>
  <speed>0.0</speed>
  <fix>3d</fix>
</trkpt>
<trkpt lat="33.8103132" lon="-118.3938671">
  <ele>-14.357</ele>
  <time>2026-09-02T22:07:50Z</time>
  <course>186.45</course>
  <speed>0.022360679774997897</speed>
  <fix>3d</fix>
</trkpt>
<trkpt lat="33.8103132" lon="-118.3938671">
  <ele>-14.399</ele>
  <time>2026-09-02T22:07:50Z</time>
  <course>186.45</course>
  <speed>0.022360679774997897</speed>
  <fix>3d</fix>
</trkpt>
<trkpt lat="33.810313" lon="-118.393867">
  <ele>-13.88</ele>
  <time>2026-09-02T22:07:50Z</time>
  <course>0.0</course>
  <speed>0.0</speed>
  <fix>3d</fix>
</trkpt>
<trkpt lat="33.8103132" lon="-118.3938671">
  <ele>-14.418</ele>
  <time>2026-09-02T22:07:50Z</time>
  <course>186.45</course>
  <speed>0.022360679774997897</speed>
  <fix>3d</fix>
</trkpt>
<trkpt lat="33.8103132" lon="-118.3938671">
  <ele>-14.463</ele>
  <time>2026-09-02T22:07:50Z</time>
  <course>186.45</course>
  <speed>0.022360679774997897</speed>
  <fix>3d</fix>
</trkpt>
<trkpt lat="33.810313" lon="-118.393867">
  <ele>-14.01</ele>
  <time>2026-09-02T22:07:50Z</time>
  <course>0.0</course>
  <speed>0.0</speed>
  <fix>3d</fix>
</trkpt>
<trkpt lat="33.8103132" lon="-118.3938671">
  <ele>-14.465</ele>
  <time>2026-09-02T22:07:50Z</time>
  <course>186.45</course>
  <speed>0.022360679774997897</speed>
  <fix>3d</fix>
</trkpt>
<trkpt lat="33.8103132" lon="-118.3938671">
  <ele>-14.527</ele>
  <time>2026-09-02T22:07:50Z</time>
  <course>186.45</course>
  <speed>0.022360679774997897</speed>
  <fix>3d</fix>
</trkpt>
<trkpt lat="33.810313" lon="-118.393867">
  <ele>-14.01</ele>
  <time>2026-09-02T22:07:50Z</time>
  <course>0.0</course>
  <speed>0.0</speed>
  <fix>3d</fix>
</trkpt>
<trkpt lat="33.8103132" lon="-118.3938671">
  <ele>-14.529</ele>
  <time>2026-09-02T22:07:50Z</time>
  <course>186.45</course>
  <speed>0.022360679774997897</speed>
  <fix>3d</fix>
</trkpt>
<trkpt lat="33.8103132" lon="-118.3938671">
  <ele>-14.591</ele>
  <time>2026-09-02T22:07:50Z</time>
  <course>186.45</course>
  <speed>0.022360679774997897</speed>
  <fix>3d</fix>
</trkpt>
<trkpt lat="33.810313" lon="-118.393867">
  <ele>-14.12</ele>
  <time>2026-09-02T22:07:50Z</time>
  <course>0.0</course>
  <speed>0.0</speed>
  <fix>3d</fix>
</trkpt>
<trkpt lat="33.8103132" lon="-118.3938671">
  <ele>-14.594</ele>
  <time>2026-09-02T22:07:50Z</time>
  <course>186.45</course>
  <speed>0.022360679774997897</speed>
  <fix>3d</fix>
</trkpt>
<trkpt lat="33.8103132" lon="-118.3938671">
  <ele>-14.655</ele>
  <time>2026-09-02T22:07:50Z</time>
  <course>186.45</course>
  <speed>0.022360679774997897</speed>
  <fix>3d</fix>
</trkpt>
<trkpt lat="33.810313" lon="-118.393867">
  <ele>-14.12</ele>
  <time>2026-09-02T22:07:50Z</time>
  <course>0.0</course>
  <speed>0.0</speed>
  <fix>3d</fix>
</trkpt>
<trkpt lat="33.8103132" lon="-118.3938671">
  <ele>-14.676</ele>
  <time>2026-09-02T22:07:50Z</time>
  <course>186.45</course>
  <speed>0.022360679774997897</speed>
  <fix>3d</fix>
</trkpt>
<trkpt lat="33.8103132" lon="-118.3938671">
  <ele>-14.719</ele>
  <time>2026-09-02T22:07:50Z</time>
  <course>186.45</course>
  <speed>0.022360679774997897</speed>
  <fix>3d</fix>
</trkpt>
<trkpt lat="33.810313" lon="-118.393867">
  <ele>-14.25</ele>
  <time>2026-09-02T22:07:50Z</time>
  <course>0.0</course>
  <speed>0.0</speed>
  <fix>3d</fix>
</trkpt>
<trkpt lat="33.8103132" lon="-118.3938671">
  <ele>-14.741</ele>
  <time>2026-09-02T22:07:50Z</time>
  <course>186.45</course>
  <speed>0.022360679774997897</speed>
  <fix>3d</fix>
</trkpt>
<trkpt lat="33.8103132" lon="-118.3938671">
  <ele>-14.783</ele>
  <time>2026-09-02T22:07:50Z</time>
  <course>186.45</course>
  <speed>0.022360679774997897</speed>
  <fix>3d</fix>
</trkpt>
<trkpt lat="33.810313" lon="-118.393867">
  <ele>-14.25</ele>
  <time>2026-09-02T22:07:50Z</time>
  <course>0.0</course>
  <speed>0.0</speed>
  <fix>3d</fix>
</trkpt>
<trkpt lat="33.8103132" lon="-118.3938671">
  <ele>-14.805</ele>
  <time>2026-09-02T22:07:50Z</time>
  <course>186.45</course>
  <speed>0.022360679774997897</speed>
  <fix>3d</fix>
</trkpt>
<trkpt lat="33.8103132" lon="-118.3938671">
  <ele>-14.848</ele>
  <time>2026-09-02T22:07:50Z</time>
  <course>186.45</course>
  <speed>0.022360679774997897</speed>
  <fix>3d</fix>
</trkpt>
<trkpt lat="33.810313" lon="-118.393867">
  <ele>-14.37</ele>
  <time>2026-09-02T22:07:50Z</time>
  <course>0.0</course>
  <speed>0.0</speed>
  <fix>3d</fix>
</trkpt>
<trkpt lat="33.8103132" lon="-118.3938671">
  <ele>-14.871</ele>
  <time>2026-09-02T22:07:50Z</time>
  <course>186.45</course>
  <speed>0.022360679774997897</speed>
  <fix>3d</fix>
</trkpt>
<trkpt lat="33.8103132" lon="-118.3938671">
  <ele>-14.912</ele>
  <time>2026-09-02T22:07:50Z</time>
  <course>186.45</course>
  <speed>0.022360679774997897</speed>
  <fix>3d</fix>
</trkpt>
<trkpt lat="33.810313" lon="-118.393867">
  <ele>-14.37</ele>
  <time>2026-09-02T22:07:50Z</time>
  <course>0.0</course>
  <speed>0.0</speed>
  <fix>3d</fix>
</trkpt>
<trkpt lat="33.8103132" lon="-118.3938671">
  <ele>-14.913</ele>
  <time>2026-09-02T22:07:50Z</time>
  <course>186.45</course>
  <speed>0.022360679774997897</speed>
  <fix>3d</fix>
</trkpt>
<trkpt lat="33.8103132" lon="-118.3938671">
  <ele>-14.975</ele>
  <time>2026-09-02T22:07:50Z</time>
  <course>186.45</course>
  <speed>0.022360679774997897</speed>
  <fix>3d</fix>
</trkpt>
<trkpt lat="33.810313" lon="-118.393867">
  <ele>-14.49</ele>
  <time>2026-09-02T22:07:50Z</time>
  <course>0.0</course>
  <speed>0.0</speed>
  <fix>3d</fix>
</trkpt>
<trkpt lat="33.8103132" lon="-118.3938671">
  <ele>-14.995</ele>
  <time>2026-09-02T22:07:50Z</time>
  <course>186.45</course>
  <speed>0.022360679774997897</speed>
  <fix>3d</fix>
</trkpt>
<trkpt lat="33.8103132" lon="-118.3938671">
  <ele>-15.038</ele>
  <time>2026-09-02T22:07:50Z</time>
  <course>186.45</course>
  <speed>0.022360679774997897</speed>
  <fix>3d</fix>
</trkpt>
<trkpt lat="33.810313" lon="-118.393867">
  <ele>-14.49</ele>
  <time>2026-09-02T22:07:50Z</time>
  <course>0.0</course>
  <speed>0.0</speed>
  <fix>3d</fix>
</trkpt>
<trkpt lat="33.8103132" lon="-118.3938671">
  <ele>-15.06</ele>
  <time>2026-09-02T22:07:50Z</time>
  <course>186.45</course>
  <speed>0.022360679774997897</speed>
  <fix>3d</fix>
</trkpt>
<trkpt lat="33.8103132" lon="-118.3938671">
  <ele>-15.101</ele>
  <time>2026-09-02T22:07:50Z</time>
  <course>186.45</course>
  <speed>0.022360679774997897</speed>
  <fix>3d</fix>
</trkpt>
<trkpt lat="33.810313" lon="-118.393867">
  <ele>-14.61</ele>
  <time>2026-09-02T22:07:50Z</time>
  <course>0.0</course>
  <speed>0.0</speed>
  <fix>3d</fix>
</trkpt>
<trkpt lat="33.8103132" lon="-118.3938671">
  <ele>-15.123</ele>
  <time>2026-09-02T22:07:50Z</time>
  <course>186.45</course>
  <speed>0.022360679774997897</speed>
  <fix>3d</fix>
</trkpt>
<trkpt lat="33.8103132" lon="-118.3938671">
  <ele>-15.164</ele>
  <time>2026-09-02T22:07:50Z</time>
  <course>186.44</course>
  <speed>0.022360679774997897</speed>
  <fix>3d</fix>
</trkpt>
<trkpt lat="33.810313" lon="-118.393867">
  <ele>-14.61</ele>
  <time>2026-09-02T22:07:50Z</time>
  <course>0.0</course>
  <speed>0.0</speed>
  <fix>3d</fix>
</trkpt>
<trkpt lat="33.8103132" lon="-118.3938671">
  <ele>-15.185</ele>
  <time>2026-09-02T22:07:50Z</time>
  <course>186.45</course>
  <speed>0.022360679774997897</speed>
  <fix>3d</fix>
</trkpt>
<trkpt lat="33.8103132" lon="-118.3938671">
  <ele>-15.228</ele>
  <time>2026-09-02T22:07:50Z</time>
  <course>186.44</course>
  <speed>0.022360679774997897</speed>
  <fix>3d</fix>
</trkpt>
<trkpt lat="33.810313" lon="-118.393867">
  <ele>-14.73</ele>
  <time>2026-09-02T22:07:50Z</time>
  <course>0.0</course>
  <speed>0.0</speed>
  <fix>3d</fix>
</trkpt>
<trkpt lat="33.8103132" lon="-118.3938671">
  <ele>-15.249</ele>
  <time>2026-09-02T22:07:50Z</time>
  <course>186.44</course>
  <speed>0.022360679774997897</speed>
  <fix>3d</fix>
</trkpt>
<trkpt lat="33.8103132" lon="-118.3938671">
  <ele>-15.291</ele>
  <time>2026-09-02T22:07:50Z</time>
  <course>186.44</course>
  <speed>0.022360679774997897</speed>
  <fix>3d</fix>
</trkpt>
<trkpt lat="33.810313" lon="-118.393867">
  <ele>-14.73</ele>
  <time>2026-09-02T22:07:50Z</time>
  <course>0.0</course>
  <speed>0.0</speed>
  <fix>3d</fix>
</trkpt>
<trkpt lat="33.8103132" lon="-118.3938671">
  <ele>-15.295</ele>
  <time>2026-09-02T22:07:50Z</time>
  <course>186.44</course>
  <speed>0.022360679774997897</speed>
  <fix>3d</fix>
</trkpt>
<trkpt lat="33.8103132" lon="-118.3938671">
  <ele>-15.354</ele>
  <time>2026-09-02T22:07:50Z</time>
  <course>186.44</course>
  <speed>0.022360679774997897</speed>
  <fix>3d</fix>
</trkpt>
<trkpt lat="33.810313" lon="-118.393867">
  <ele>-14.85</ele>
  <time>2026-09-02T22:07:50Z</time>
  <course>0.0</course>
  <speed>0.0</speed>
  <fix>3d</fix>
</trkpt>
<trkpt lat="33.8103132" lon="-118.3938671">
  <ele>-15.374</ele>
  <time>2026-09-02T22:07:50Z</time>
  <course>186.44</course>
  <speed>0.022360679774997897</speed>
  <fix>3d</fix>
</trkpt>
<trkpt lat="33.8103132" lon="-118.3938671">
  <ele>-15.415</ele>
  <time>2026-09-02T22:07:50Z</time>
  <course>186.44</course>
  <speed>0.022360679774997897</speed>
  <fix>3d</fix>
</trkpt>
<trkpt lat="33.810313" lon="-118.393867">
  <ele>-14.85</ele>
  <time>2026-09-02T22:07:50Z</time>
  <course>0.0</course>
  <speed>0.0</speed>
  <fix>3d</fix>
</trkpt>
<trkpt lat="33.8103132" lon="-118.3938671">
  <ele>-15.417</ele>
  <time>2026-09-02T22:07:50Z</time>
  <course>186.44</course>
  <speed>0.022360679774997897</speed>
  <fix>3d</fix>
</trkpt>
<trkpt lat="33.8103132" lon="-118.3938671">
  <ele>-15.476</ele>
  <time>2026-09-02T22:07:50Z</time>
  <course>186.44</course>
  <speed>0.022360679774997897</speed>
  <fix>3d</fix>
</trkpt>
<trkpt lat="33.810313" lon="-118.393867">
  <ele>-14.97</ele>
  <time>2026-09-02T22:07:50Z</time>
  <course>0.0</course>
  <speed>0.0</speed>
  <fix>3d</fix>
</trkpt>
<trkpt lat="33.8103132" lon="-118.3938671">
  <ele>-15.477</ele>
  <time>2026-09-02T22:07:50Z</time>
  <course>186.44</course>
  <speed>0.022360679774997897</speed>
  <fix>3d</fix>
</trkpt>
<trkpt lat="33.8103132" lon="-118.3938671">
  <ele>-15.536</ele>
  <time>2026-09-02T22:07:50Z</time>
  <course>186.44</course>
  <speed>0.022360679774997897</speed>
  <fix>3d</fix>
</trkpt>
<trkpt lat="33.810313" lon="-118.393867">
  <ele>-14.97</ele>
  <time>2026-09-02T22:07:50Z</time>
  <course>0.0</course>
  <speed>0.0</speed>
  <fix>3d</fix>
</trkpt>
<trkpt lat="33.8103132" lon="-118.3938671">
  <ele>-15.555</ele>
  <time>2026-09-02T22:07:50Z</time>
  <course>186.44</course>
  <speed>0.022360679774997897</speed>
  <fix>3d</fix>
</trkpt>
<trkpt lat="33.8103132" lon="-118.3938671">
  <ele>-15.595</ele>
  <time>2026-09-02T22:07:50Z</time>
  <course>186.44</course>
  <speed>0.022360679774997897</speed>
  <fix>3d</fix>
</trkpt>
<trkpt lat="33.810313" lon="-118.393867">
  <ele>-15.1</ele>
  <time>2026-09-02T22:07:50Z</time>
  <course>0.0</course>
  <speed>0.0</speed>
  <fix>3d</fix>
</trkpt>
<trkpt lat="33.8103132" lon="-118.3938671">
  <ele>-15.616</ele>
  <time>2026-09-02T22:07:50Z</time>
  <course>186.44</course>
  <speed>0.022360679774997897</speed>
  <fix>3d</fix>
</trkpt>
<trkpt lat="33.8103132" lon="-118.3938671">
  <ele>-15.656</ele>
  <time>2026-09-02T22:07:50Z</time>
  <course>186.44</course>
  <speed>0.022360679774997897</speed>
  <fix>3d</fix>
</trkpt>
<trkpt lat="33.810313" lon="-118.393867">
  <ele>-15.1</ele>
  <time>2026-09-02T22:07:50Z</time>
  <course>0.0</course>
  <speed>0.0</speed>
  <fix>3d</fix>
</trkpt>
<trkpt lat="33.8103132" lon="-118.3938671">
  <ele>-15.676</ele>
  <time>2026-09-02T22:07:50Z</time>
  <course>186.44</course>
  <speed>0.022360679774997897</speed>
  <fix>3d</fix>
</trkpt>
<trkpt lat="33.8103132" lon="-118.3938671">
  <ele>-15.717</ele>
  <time>2026-09-02T22:07:50Z</time>
  <course>186.44</course>
  <speed>0.022360679774997897</speed>
  <fix>3d</fix>
</trkpt>
<trkpt lat="33.810313" lon="-118.393867">
  <ele>-15.21</ele>
  <time>2026-09-02T22:07:50Z</time>
  <course>0.0</course>
  <speed>0.0</speed>
  <fix>3d</fix>
</trkpt>
<trkpt lat="33.8103132" lon="-118.3938671">
  <ele>-15.738</ele>
  <time>2026-09-02T22:07:50Z</time>
  <course>186.44</course>
  <speed>0.022360679774997897</speed>
  <fix>3d</fix>
</trkpt>
<trkpt lat="33.8103132" lon="-118.3938671">
  <ele>-15.778</ele>
  <time>2026-09-02T22:07:50Z</time>
  <course>186.44</course>
  <speed>0.022360679774997897</speed>
  <fix>3d</fix>
</trkpt>
<trkpt lat="33.810313" lon="-118.393867">
  <ele>-15.21</ele>
  <time>2026-09-02T22:07:50Z</time>
  <course>0.0</course>
  <speed>0.0</speed>
  <fix>3d</fix>
</trkpt>
<trkpt lat="33.8103132" lon="-118.3938671">
  <ele>-15.797</ele>
  <time>2026-09-02T22:07:50Z</time>
  <course>186.44</course>
  <speed>0.022360679774997897</speed>
  <fix>3d</fix>
</trkpt>
<trkpt lat="33.8103132" lon="-118.3938671">
  <ele>-15.839</ele>
  <time>2026-09-02T22:07:50Z</time>
  <course>186.44</course>
  <speed>0.022360679774997897</speed>
  <fix>3d</fix>
</trkpt>
<trkpt lat="33.810313" lon="-118.393867">
  <ele>-15.34</ele>
  <time>2026-09-02T22:07:50Z</time>
  <course>0.0</course>
  <speed>0.0</speed>
  <fix>3d</fix>
</trkpt>
<trkpt lat="33.8103132" lon="-118.3938671">
  <ele>-15.86</ele>
  <time>2026-09-02T22:07:50Z</time>
  <course>186.44</course>
  <speed>0.022360679774997897</speed>
  <fix>3d</fix>
</trkpt>
<trkpt lat="33.8103132" lon="-118.3938671">
  <ele>-15.9</ele>
  <time>2026-09-02T22:07:50Z</time>
  <course>186.43</course>
  <speed>0.022360679774997897</speed>
  <fix>3d</fix>
</trkpt>
<trkpt lat="33.810313" lon="-118.393867">
  <ele>-15.34</ele>
  <time>2026-09-02T22:07:50Z</time>
  <course>0.0</course>
  <speed>0.0</speed>
  <fix>3d</fix>
</trkpt>
<trkpt lat="33.8103132" lon="-118.3938671">
  <ele>-15.901</ele>
  <time>2026-09-02T22:07:50Z</time>
  <course>186.43</course>
  <speed>0.022360679774997897</speed>
  <fix>3d</fix>
</trkpt>
<trkpt lat="33.8103132" lon="-118.3938671">
  <ele>-15.961</ele>
  <time>2026-09-02T22:07:50Z</time>
  <course>186.43</course>
  <speed>0.022360679774997897</speed>
  <fix>3d</fix>
</trkpt>
<trkpt lat="33.810313" lon="-118.393867">
  <ele>-15.46</ele>
  <time>2026-09-02T22:07:50Z</time>
  <course>0.0</course>
  <speed>0.0</speed>
  <fix>3d</fix>
</trkpt>
<trkpt lat="33.8103132" lon="-118.3938671">
  <ele>-15.981</ele>
  <time>2026-09-02T22:07:50Z</time>
  <course>186.43</course>
  <speed>0.022360679774997897</speed>
  <fix>3d</fix>
</trkpt>
<trkpt lat="33.8103132" lon="-118.3938671">
  <ele>-16.023</ele>
  <time>2026-09-02T22:07:50Z</time>
  <course>186.43</course>
  <speed>0.022360679774997897</speed>
  <fix>3d</fix>
</trkpt>
<trkpt lat="33.810313" lon="-118.393867">
  <ele>-15.46</ele>
  <time>2026-09-02T22:07:50Z</time>
  <course>0.0</course>
  <speed>0.0</speed>
  <fix>3d</fix>
</trkpt>
<trkpt lat="33.8103132" lon="-118.3938671">
  <ele>-16.044</ele>
  <time>2026-09-02T22:07:50Z</time>
  <course>186.43</course>
  <speed>0.022360679774997897</speed>
  <fix>3d</fix>
</trkpt>
<trkpt lat="33.8103132" lon="-118.3938671">
  <ele>-16.083</ele>
  <time>2026-09-02T22:07:50Z</time>
  <course>186.43</course>
  <speed>0.022360679774997897</speed>
  <fix>3d</fix>
</trkpt>
<trkpt lat="33.810313" lon="-118.393867">
  <ele>-15.58</ele>
  <time>2026-09-02T22:07:50Z</time>
  <course>0.0</course>
  <speed>0.0</speed>
  <fix>3d</fix>
</trkpt>
<trkpt lat="33.8103132" lon="-118.3938671">
  <ele>-16.085</ele>
  <time>2026-09-02T22:07:50Z</time>
  <course>186.43</course>
  <speed>0.022360679774997897</speed>
  <fix>3d</fix>
</trkpt>
<trkpt lat="33.8103132" lon="-118.3938671">
  <ele>-16.144</ele>
  <time>2026-09-02T22:07:50Z</time>
  <course>186.43</course>
  <speed>0.022360679774997897</speed>
  <fix>3d</fix>
</trkpt>
<trkpt lat="33.810313" lon="-118.393867">
  <ele>-15.58</ele>
  <time>2026-09-02T22:07:50Z</time>
  <course>0.0</course>
  <speed>0.0</speed>
  <fix>3d</fix>
</trkpt>
<trkpt lat="33.8103132" lon="-118.3938671">
  <ele>-16.163</ele>
  <time>2026-09-02T22:07:50Z</time>
  <course>186.43</course>
  <speed>0.022360679774997897</speed>
  <fix>3d</fix>
</trkpt>
<trkpt lat="33.8103132" lon="-118.3938671">
  <ele>-16.205</ele>
  <time>2026-09-02T22:07:50Z</time>
  <course>186.43</course>
  <speed>0.022360679774997897</speed>
  <fix>3d</fix>
</trkpt>
<trkpt lat="33.810313" lon="-118.393867">
  <ele>-15.7</ele>
  <time>2026-09-02T22:07:50Z</time>
  <course>0.0</course>
  <speed>0.0</speed>
  <fix>3d</fix>
</trkpt>
<trkpt lat="33.8103132" lon="-118.3938671">
  <ele>-16.227</ele>
  <time>2026-09-02T22:07:50Z</time>
  <course>186.43</course>
  <speed>0.022360679774997897</speed>
  <fix>3d</fix>
</trkpt>
<trkpt lat="33.8103132" lon="-118.3938671">
  <ele>-16.267</ele>
  <time>2026-09-02T22:07:50Z</time>
  <course>186.43</course>
  <speed>0.022360679774997897</speed>
  <fix>3d</fix>
</trkpt>
<trkpt lat="33.810313" lon="-118.393867">
  <ele>-15.7</ele>
  <time>2026-09-02T22:07:50Z</time>
  <course>0.0</course>
  <speed>0.0</speed>
  <fix>3d</fix>
</trkpt>
<trkpt lat="33.8103132" lon="-118.3938671">
  <ele>-16.289</ele>
  <time>2026-09-02T22:07:50Z</time>
  <course>186.43</course>
  <speed>0.022360679774997897</speed>
  <fix>3d</fix>
</trkpt>
<trkpt lat="33.8103132" lon="-118.3938671">
  <ele>-16.329</ele>
  <time>2026-09-02T22:07:50Z</time>
  <course>186.43</course>
  <speed>0.022360679774997897</speed>
  <fix>3d</fix>
</trkpt>
<trkpt lat="33.810313" lon="-118.393867">
  <ele>-15.82</ele>
  <time>2026-09-02T22:07:50Z</time>
  <course>0.0</course>
  <speed>0.0</speed>
  <fix>3d</fix>
</trkpt>
<trkpt lat="33.8103132" lon="-118.3938671">
  <ele>-16.348</ele>
  <time>2026-09-02T22:07:50Z</time>
  <course>186.42</course>
  <speed>0.022360679774997897</speed>
  <fix>3d</fix>
</trkpt>
<trkpt lat="33.8103132" lon="-118.3938671">
  <ele>-16.392</ele>
  <time>2026-09-02T22:07:50Z</time>
  <course>186.42</course>
  <speed>0.022360679774997897</speed>
  <fix>3d</fix>
</trkpt>
<trkpt lat="33.810313" lon="-118.393867">
  <ele>-15.82</ele>
  <time>2026-09-02T22:07:50Z</time>
  <course>0.0</course>
  <speed>0.0</speed>
  <fix>3d</fix>
</trkpt>
<trkpt lat="33.8103132" lon="-118.3938671">
  <ele>-16.415</ele>
  <time>2026-09-02T22:07:50Z</time>
  <course>186.42</course>
  <speed>0.022360679774997897</speed>
  <fix>3d</fix>
</trkpt>
<trkpt lat="33.8103132" lon="-118.3938671">
  <ele>-16.456</ele>
  <time>2026-09-02T22:07:50Z</time>
  <course>186.42</course>
  <speed>0.022360679774997897</speed>
  <fix>3d</fix>
</trkpt>
<trkpt lat="33.810313" lon="-118.393867">
  <ele>-15.94</ele>
  <time>2026-09-02T22:07:50Z</time>
  <course>0.0</course>
  <speed>0.0</speed>
  <fix>3d</fix>
</trkpt>
<trkpt lat="33.8103132" lon="-118.3938671">
  <ele>-16.477</ele>
  <time>2026-09-02T22:07:50Z</time>
  <course>186.42</course>
  <speed>0.022360679774997897</speed>
  <fix>3d</fix>
</trkpt>
<trkpt lat="33.8103132" lon="-118.3938671">
  <ele>-16.519</ele>
  <time>2026-09-02T22:07:50Z</time>
  <course>186.42</course>
  <speed>0.022360679774997897</speed>
  <fix>3d</fix>
</trkpt>
<trkpt lat="33.810313" lon="-118.393867">
  <ele>-15.94</ele>
  <time>2026-09-02T22:07:50Z</time>
  <course>0.0</course>
  <speed>0.0</speed>
  <fix>3d</fix>
</trkpt>
<trkpt lat="33.8103132" lon="-118.3938671">
  <ele>-16.538</ele>
  <time>2026-09-02T22:07:50Z</time>
  <course>186.42</course>
  <speed>0.022360679774997897</speed>
  <fix>3d</fix>
</trkpt>
<trkpt lat="33.8103132" lon="-118.3938671">
  <ele>-16.581</ele>
  <time>2026-09-02T22:07:50Z</time>
  <course>186.42</course>
  <speed>0.022360679774997897</speed>
  <fix>3d</fix>
</trkpt>
<trkpt lat="33.810313" lon="-118.393867">
  <ele>-16.06</ele>
  <time>2026-09-02T22:07:50Z</time>
  <course>0.0</course>
  <speed>0.0</speed>
  <fix>3d</fix>
</trkpt>
<trkpt lat="33.8103132" lon="-118.3938671">
  <ele>-16.582</ele>
  <time>2026-09-02T22:07:50Z</time>
  <course>186.42</course>
  <speed>0.022360679774997897</speed>
  <fix>3d</fix>
</trkpt>
<trkpt lat="33.8103132" lon="-118.3938671">
  <ele>-16.643</ele>
  <time>2026-09-02T22:07:50Z</time>
  <course>186.42</course>
  <speed>0.022360679774997897</speed>
  <fix>3d</fix>
</trkpt>
<trkpt lat="33.810313" lon="-118.393867">
  <ele>-16.06</ele>
  <time>2026-09-02T22:07:50Z</time>
  <course>0.0</course>
  <speed>0.0</speed>
  <fix>3d</fix>
</trkpt>
<trkpt lat="33.8103132" lon="-118.3938671">
  <ele>-16.663</ele>
  <time>2026-09-02T22:07:50Z</time>
  <course>186.42</course>
  <speed>0.022360679774997897</speed>
  <fix>3d</fix>
</trkpt>
<trkpt lat="33.8103132" lon="-118.3938671">
  <ele>-16.704</ele>
  <time>2026-09-02T22:07:50Z</time>
  <course>186.41</course>
  <speed>0.022360679774997897</speed>
  <fix>3d</fix>
</trkpt>
<trkpt lat="33.810313" lon="-118.393867">
  <ele>-16.18</ele>
  <time>2026-09-02T22:07:50Z</time>
  <course>0.0</course>
  <speed>0.0</speed>
  <fix>3d</fix>
</trkpt>
<trkpt lat="33.8103132" lon="-118.3938671">
  <ele>-16.725</ele>
  <time>2026-09-02T22:07:50Z</time>
  <course>186.41</course>
  <speed>0.022360679774997897</speed>
  <fix>3d</fix>
</trkpt>
<trkpt lat="33.8103132" lon="-118.3938671">
  <ele>-16.766</ele>
  <time>2026-09-02T22:07:50Z</time>
  <course>186.41</course>
  <speed>0.022360679774997897</speed>
  <fix>3d</fix>
</trkpt>
<trkpt lat="33.810313" lon="-118.393867">
  <ele>-16.18</ele>
  <time>2026-09-02T22:07:50Z</time>
  <course>0.0</course>
  <speed>0.0</speed>
  <fix>3d</fix>
</trkpt>
<trkpt lat="33.8103132" lon="-118.3938671">
  <ele>-16.788</ele>
  <time>2026-09-02T22:07:50Z</time>
  <course>186.41</course>
  <speed>0.022360679774997897</speed>
  <fix>3d</fix>
</trkpt>
<trkpt lat="33.8103132" lon="-118.3938671">
  <ele>-16.828</ele>
  <time>2026-09-02T22:07:50Z</time>
  <course>186.41</course>
  <speed>0.022360679774997897</speed>
  <fix>3d</fix>
</trkpt>
<trkpt lat="33.810313" lon="-118.393867">
  <ele>-16.29</ele>
  <time>2026-09-02T22:07:50Z</time>
  <course>0.0</course>
  <speed>0.0</speed>
  <fix>3d</fix>
</trkpt>
<trkpt lat="33.8103132" lon="-118.3938671">
  <ele>-16.83</ele>
  <time>2026-09-02T22:07:50Z</time>
  <course>186.41</course>
  <speed>0.022360679774997897</speed>
  <fix>3d</fix>
</trkpt>
<trkpt lat="33.8103132" lon="-118.3938671">
  <ele>-16.89</ele>
  <time>2026-09-02T22:07:50Z</time>
  <course>186.41</course>
  <speed>0.022360679774997897</speed>
  <fix>3d</fix>
</trkpt>
<trkpt lat="33.810313" lon="-118.393867">
  <ele>-16.29</ele>
  <time>2026-09-02T22:07:50Z</time>
  <course>0.0</course>
  <speed>0.0</speed>
  <fix>3d</fix>
</trkpt>
<trkpt lat="33.8103132" lon="-118.3938671">
  <ele>-16.912</ele>
  <time>2026-09-02T22:07:50Z</time>
  <course>186.41</course>
  <speed>0.022360679774997897</speed>
  <fix>3d</fix>
</trkpt>
<trkpt lat="33.8103132" lon="-118.3938671">
  <ele>-16.953</ele>
  <time>2026-09-02T22:07:50Z</time>
  <course>186.41</course>
  <speed>0.022360679774997897</speed>
  <fix>3d</fix>
</trkpt>
<trkpt lat="33.810313" lon="-118.393867">
  <ele>-16.42</ele>
  <time>2026-09-02T22:07:50Z</time>
  <course>0.0</course>
  <speed>0.0</speed>
  <fix>3d</fix>
</trkpt>
<trkpt lat="33.8103132" lon="-118.3938671">
  <ele>-16.974</ele>
  <time>2026-09-02T22:07:50Z</time>
  <course>186.41</course>
  <speed>0.022360679774997897</speed>
  <fix>3d</fix>
</trkpt>
<trkpt lat="33.8103132" lon="-118.3938671">
  <ele>-17.016</ele>
  <time>2026-09-02T22:07:50Z</time>
  <course>186.4</course>
  <speed>0.022360679774997897</speed>
  <fix>3d</fix>
</trkpt>
<trkpt lat="33.810313" lon="-118.393867">
  <ele>-16.42</ele>
  <time>2026-09-02T22:07:50Z</time>
  <course>0.0</course>
  <speed>0.0</speed>
  <fix>3d</fix>
</trkpt>
<trkpt lat="33.8103132" lon="-118.3938671">
  <ele>-17.036</ele>
  <time>2026-09-02T22:07:50Z</time>
  <course>186.4</course>
  <speed>0.022360679774997897</speed>
  <fix>3d</fix>
</trkpt>
<trkpt lat="33.8103132" lon="-118.3938671">
  <ele>-17.077</ele>
  <time>2026-09-02T22:07:50Z</time>
  <course>186.4</course>
  <speed>0.022360679774997897</speed>
  <fix>3d</fix>
</trkpt>
<trkpt lat="33.810313" lon="-118.393867">
  <ele>-16.54</ele>
  <time>2026-09-02T22:07:50Z</time>
  <course>0.0</course>
  <speed>0.0</speed>
  <fix>3d</fix>
</trkpt>
<trkpt lat="33.8103132" lon="-118.3938671">
  <ele>-17.094</ele>
  <time>2026-09-02T22:07:50Z</time>
  <course>186.4</course>
  <speed>0.022360679774997897</speed>
  <fix>3d</fix>
</trkpt>
<trkpt lat="33.8103132" lon="-118.3938671">
  <ele>-17.139</ele>
  <time>2026-09-02T22:07:50Z</time>
  <course>186.4</course>
  <speed>0.022360679774997897</speed>
  <fix>3d</fix>
</trkpt>
<trkpt lat="33.810313" lon="-118.393867">
  <ele>-16.54</ele>
  <time>2026-09-02T22:07:50Z</time>
  <course>0.0</course>
  <speed>0.0</speed>
  <fix>3d</fix>
</trkpt>
<trkpt lat="33.8103132" lon="-118.3938671">
  <ele>-17.14</ele>
  <time>2026-09-02T22:07:50Z</time>
  <course>186.4</course>
  <speed>0.022360679774997897</speed>
  <fix>3d</fix>
</trkpt>
<trkpt lat="33.8103132" lon="-118.3938671">
  <ele>-17.201</ele>
  <time>2026-09-02T22:07:50Z</time>
  <course>186.4</course>
  <speed>0.022360679774997897</speed>
  <fix>3d</fix>
</trkpt>
<trkpt lat="33.810313" lon="-118.393867">
  <ele>-16.66</ele>
  <time>2026-09-02T22:07:50Z</time>
  <course>0.0</course>
  <speed>0.0</speed>
  <fix>3d</fix>
</trkpt>
<trkpt lat="33.8103132" lon="-118.3938671">
  <ele>-17.202</ele>
  <time>2026-09-02T22:07:50Z</time>
  <course>186.4</course>
  <speed>0.022360679774997897</speed>
  <fix>3d</fix>
</trkpt>
<trkpt lat="33.8103132" lon="-118.3938671">
  <ele>-17.262</ele>
  <time>2026-09-02T22:07:50Z</time>
  <course>186.4</course>
  <speed>0.022360679774997897</speed>
  <fix>3d</fix>
</trkpt>
<trkpt lat="33.810313" lon="-118.393867">
  <ele>-16.66</ele>
  <time>2026-09-02T22:07:50Z</time>
  <course>0.0</course>
  <speed>0.0</speed>
  <fix>3d</fix>
</trkpt>
<trkpt lat="33.8103132" lon="-118.3938671">
  <ele>-17.284</ele>
  <time>2026-09-02T22:07:50Z</time>
  <course>186.39</course>
  <speed>0.022360679774997897</speed>
  <fix>3d</fix>
</trkpt>
<trkpt lat="33.8103132" lon="-118.3938671">
  <ele>-17.324</ele>
  <time>2026-09-02T22:07:50Z</time>
  <course>186.39</course>
  <speed>0.022360679774997897</speed>
  <fix>3d</fix>
</trkpt>
<trkpt lat="33.810313" lon="-118.393867">
  <ele>-16.78</ele>
  <time>2026-09-02T22:07:50Z</time>
  <course>0.0</course>
  <speed>0.0</speed>
  <fix>3d</fix>
</trkpt>
<trkpt lat="33.8103132" lon="-118.3938671">
  <ele>-17.344</ele>
  <time>2026-09-02T22:07:50Z</time>
  <course>186.39</course>
  <speed>0.022360679774997897</speed>
  <fix>3d</fix>
</trkpt>
<trkpt lat="33.8103132" lon="-118.3938671">
  <ele>-17.386</ele>
  <time>2026-09-02T22:07:50Z</time>
  <course>186.39</course>
  <speed>0.022360679774997897</speed>
  <fix>3d</fix>
</trkpt>
<trkpt lat="33.810313" lon="-118.393867">
  <ele>-16.78</ele>
  <time>2026-09-02T22:07:50Z</time>
  <course>0.0</course>
  <speed>0.0</speed>
  <fix>3d</fix>
</trkpt>
<trkpt lat="33.8103132" lon="-118.3938671">
  <ele>-17.408</ele>
  <time>2026-09-02T22:07:50Z</time>
  <course>186.39</course>
  <speed>0.022360679774997897</speed>
  <fix>3d</fix>
</trkpt>
<trkpt lat="33.8103132" lon="-118.3938671">
  <ele>-17.449</ele>
  <time>2026-09-02T22:07:50Z</time>
  <course>186.39</course>
  <speed>0.022360679774997897</speed>
  <fix>3d</fix>
</trkpt>
<trkpt lat="33.810313" lon="-118.393867">
  <ele>-16.91</ele>
  <time>2026-09-02T22:07:50Z</time>
  <course>0.0</course>
  <speed>0.0</speed>
  <fix>3d</fix>
</trkpt>
<trkpt lat="33.8103132" lon="-118.3938671">
  <ele>-17.45</ele>
  <time>2026-09-02T22:07:50Z</time>
  <course>186.39</course>
  <speed>0.022360679774997897</speed>
  <fix>3d</fix>
</trkpt>
<trkpt lat="33.8103132" lon="-118.3938671">
  <ele>-17.511</ele>
  <time>2026-09-02T22:07:50Z</time>
  <course>186.39</course>
  <speed>0.022360679774997897</speed>
  <fix>3d</fix>
</trkpt>
<trkpt lat="33.810313" lon="-118.393867">
  <ele>-16.91</ele>
  <time>2026-09-02T22:07:50Z</time>
  <course>0.0</course>
  <speed>0.0</speed>
  <fix>3d</fix>
</trkpt>
<trkpt lat="33.8103132" lon="-118.3938671">
  <ele>-17.512</ele>
  <time>2026-09-02T22:07:50Z</time>
  <course>186.39</course>
  <speed>0.022360679774997897</speed>
  <fix>3d</fix>
</trkpt>
<trkpt lat="33.8103132" lon="-118.3938671">
  <ele>-17.573</ele>
  <time>2026-09-02T22:07:50Z</time>
  <course>186.38</course>
  <speed>0.022360679774997897</speed>
  <fix>3d</fix>
</trkpt>
<trkpt lat="33.810313" lon="-118.393867">
  <ele>-17.02</ele>
  <time>2026-09-02T22:07:50Z</time>
  <course>0.0</course>
  <speed>0.0</speed>
  <fix>3d</fix>
</trkpt>
<trkpt lat="33.8103132" lon="-118.3938671">
  <ele>-17.592</ele>
  <time>2026-09-02T22:07:50Z</time>
  <course>186.38</course>
  <speed>0.022360679774997897</speed>
  <fix>3d</fix>
</trkpt>
<trkpt lat="33.8103132" lon="-118.3938671">
  <ele>-17.634</ele>
  <time>2026-09-02T22:07:50Z</time>
  <course>186.38</course>
  <speed>0.022360679774997897</speed>
  <fix>3d</fix>
</trkpt>
<trkpt lat="33.810313" lon="-118.393867">
  <ele>-17.02</ele>
  <time>2026-09-02T22:07:50Z</time>
  <course>0.0</course>
  <speed>0.0</speed>
  <fix>3d</fix>
</trkpt>
<trkpt lat="33.8103132" lon="-118.3938671">
  <ele>-17.656</ele>
  <time>2026-09-02T22:07:50Z</time>
  <course>186.38</course>
  <speed>0.022360679774997897</speed>
  <fix>3d</fix>
</trkpt>
<trkpt lat="33.8103132" lon="-118.3938671">
  <ele>-17.696</ele>
  <time>2026-09-02T22:07:50Z</time>
  <course>186.38</course>
  <speed>0.022360679774997897</speed>
  <fix>3d</fix>
</trkpt>
<trkpt lat="33.810313" lon="-118.393867">
  <ele>-17.15</ele>
  <time>2026-09-02T22:07:50Z</time>
  <course>0.0</course>
  <speed>0.0</speed>
  <fix>3d</fix>
</trkpt>
<trkpt lat="33.8103132" lon="-118.3938671">
  <ele>-17.716</ele>
  <time>2026-09-02T22:07:50Z</time>
  <course>186.38</course>
  <speed>0.022360679774997897</speed>
  <fix>3d</fix>
</trkpt>
<trkpt lat="33.8103132" lon="-118.3938671">
  <ele>-17.758</ele>
  <time>2026-09-02T22:07:50Z</time>
  <course>186.38</course>
  <speed>0.022360679774997897</speed>
  <fix>3d</fix>
</trkpt>
<trkpt lat="33.810313" lon="-118.393867">
  <ele>-17.15</ele>
  <time>2026-09-02T22:07:50Z</time>
  <course>0.0</course>
  <speed>0.0</speed>
  <fix>3d</fix>
</trkpt>
<trkpt lat="33.8103132" lon="-118.3938671">
  <ele>-17.76</ele>
  <time>2026-09-02T22:07:50Z</time>
  <course>186.38</course>
  <speed>0.022360679774997897</speed>
  <fix>3d</fix>
</trkpt>
<trkpt lat="33.8103132" lon="-118.3938671">
  <ele>-17.82</ele>
  <time>2026-09-02T22:07:50Z</time>
  <course>186.37</course>
  <speed>0.022360679774997897</speed>
  <fix>3d</fix>
</trkpt>
<trkpt lat="33.810313" lon="-118.393867">
  <ele>-17.27</ele>
  <time>2026-09-02T22:07:50Z</time>
  <course>0.0</course>
  <speed>0.0</speed>
  <fix>3d</fix>
</trkpt>
<trkpt lat="33.8103132" lon="-118.3938671">
  <ele>-17.84</ele>
  <time>2026-09-02T22:07:50Z</time>
  <course>186.37</course>
  <speed>0.022360679774997897</speed>
  <fix>3d</fix>
</trkpt>
<trkpt lat="33.8103132" lon="-118.3938671">
  <ele>-17.881</ele>
  <time>2026-09-02T22:07:50Z</time>
  <course>186.37</course>
  <speed>0.022360679774997897</speed>
  <fix>3d</fix>
</trkpt>
<trkpt lat="33.810313" lon="-118.393867">
  <ele>-17.27</ele>
  <time>2026-09-02T22:07:50Z</time>
  <course>0.0</course>
  <speed>0.0</speed>
  <fix>3d</fix>
</trkpt>
<trkpt lat="33.8103132" lon="-118.3938671">
  <ele>-17.883</ele>
  <time>2026-09-02T22:07:50Z</time>
  <course>186.37</course>
  <speed>0.022360679774997897</speed>
  <fix>3d</fix>
</trkpt>
<trkpt lat="33.8103132" lon="-118.3938671">
  <ele>-17.942</ele>
  <time>2026-09-02T22:07:50Z</time>
  <course>186.37</course>
  <speed>0.022360679774997897</speed>
  <fix>3d</fix>
</trkpt>
<trkpt lat="33.810313" lon="-118.393867">
  <ele>-17.39</ele>
  <time>2026-09-02T22:07:50Z</time>
  <course>0.0</course>
  <speed>0.0</speed>
  <fix>3d</fix>
</trkpt>
<trkpt lat="33.8103132" lon="-118.3938671">
  <ele>-17.944</ele>
  <time>2026-09-02T22:07:50Z</time>
  <course>186.37</course>
  <speed>0.022360679774997897</speed>
  <fix>3d</fix>
</trkpt>
<trkpt lat="33.8103132" lon="-118.3938671">
  <ele>-18.004</ele>
  <time>2026-09-02T22:07:50Z</time>
  <course>186.36</course>
  <speed>0.022360679774997897</speed>
  <fix>3d</fix>
</trkpt>
<trkpt lat="33.810313" lon="-118.393867">
  <ele>-17.39</ele>
  <time>2026-09-02T22:07:50Z</time>
  <course>0.0</course>
  <speed>0.0</speed>
  <fix>3d</fix>
</trkpt>
<trkpt lat="33.8103132" lon="-118.3938671">
  <ele>-18.026</ele>
  <time>2026-09-02T22:07:50Z</time>
  <course>186.36</course>
  <speed>0.022360679774997897</speed>
  <fix>3d</fix>
</trkpt>
<trkpt lat="33.8103132" lon="-118.3938671">
  <ele>-18.067</ele>
  <time>2026-09-02T22:07:50Z</time>
  <course>186.36</course>
  <speed>0.022360679774997897</speed>
  <fix>3d</fix>
</trkpt>
<trkpt lat="33.810313" lon="-118.393867">
  <ele>-17.51</ele>
  <time>2026-09-02T22:07:50Z</time>
  <course>0.0</course>
  <speed>0.0</speed>
  <fix>3d</fix>
</trkpt>
<trkpt lat="33.8103132" lon="-118.3938671">
  <ele>-18.069</ele>
  <time>2026-09-02T22:07:50Z</time>
  <course>186.36</course>
  <speed>0.022360679774997897</speed>
  <fix>3d</fix>
</trkpt>
<trkpt lat="33.8103132" lon="-118.3938671">
  <ele>-18.13</ele>
  <time>2026-09-02T22:07:50Z</time>
  <course>186.36</course>
  <speed>0.022360679774997897</speed>
  <fix>3d</fix>
</trkpt>
<trkpt lat="33.810313" lon="-118.393867">
  <ele>-17.51</ele>
  <time>2026-09-02T22:07:50Z</time>
  <course>0.0</course>
  <speed>0.0</speed>
  <fix>3d</fix>
</trkpt>
<trkpt lat="33.8103132" lon="-118.3938671">
  <ele>-18.151</ele>
  <time>2026-09-02T22:07:50Z</time>
  <course>186.36</course>
  <speed>0.022360679774997897</speed>
  <fix>3d</fix>
</trkpt>
<trkpt lat="33.8103132" lon="-118.3938671">
  <ele>-18.193</ele>
  <time>2026-09-02T22:07:50Z</time>
  <course>186.36</course>
  <speed>0.022360679774997897</speed>
  <fix>3d</fix>
</trkpt>
<trkpt lat="33.810313" lon="-118.393867">
  <ele>-17.63</ele>
  <time>2026-09-02T22:07:50Z</time>
  <course>0.0</course>
  <speed>0.0</speed>
  <fix>3d</fix>
</trkpt>
<trkpt lat="33.8103132" lon="-118.3938671">
  <ele>-18.214</ele>
  <time>2026-09-02T22:07:50Z</time>
  <course>186.35</course>
  <speed>0.022360679774997897</speed>
  <fix>3d</fix>
</trkpt>
<trkpt lat="33.8103132" lon="-118.3938671">
  <ele>-18.256</ele>
  <time>2026-09-02T22:07:50Z</time>
  <course>186.35</course>
  <speed>0.022360679774997897</speed>
  <fix>3d</fix>
</trkpt>
<trkpt lat="33.810313" lon="-118.393867">
  <ele>-17.63</ele>
  <time>2026-09-02T22:07:50Z</time>
  <course>0.0</course>
  <speed>0.0</speed>
  <fix>3d</fix>
</trkpt>
<trkpt lat="33.8103132" lon="-118.3938671">
  <ele>-18.278</ele>
  <time>2026-09-02T22:07:50Z</time>
  <course>186.35</course>
  <speed>0.022360679774997897</speed>
  <fix>3d</fix>
</trkpt>
<trkpt lat="33.8103132" lon="-118.3938671">
  <ele>-18.322</ele>
  <time>2026-09-02T22:07:50Z</time>
  <course>186.35</course>
  <speed>0.022360679774997897</speed>
  <fix>3d</fix>
</trkpt>
<trkpt lat="33.810313" lon="-118.393867">
  <ele>-17.75</ele>
  <time>2026-09-02T22:07:50Z</time>
  <course>0.0</course>
  <speed>0.0</speed>
  <fix>3d</fix>
</trkpt>
<trkpt lat="33.8103132" lon="-118.3938671">
  <ele>-18.343</ele>
  <time>2026-09-02T22:07:50Z</time>
  <course>186.35</course>
  <speed>0.022360679774997897</speed>
  <fix>3d</fix>
</trkpt>
<trkpt lat="33.8103132" lon="-118.3938671">
  <ele>-18.386</ele>
  <time>2026-09-02T22:07:50Z</time>
  <course>186.35</course>
  <speed>0.022360679774997897</speed>
  <fix>3d</fix>
</trkpt>
<trkpt lat="33.810313" lon="-118.393867">
  <ele>-17.75</ele>
  <time>2026-09-02T22:07:50Z</time>
  <course>0.0</course>
  <speed>0.0</speed>
  <fix>3d</fix>
</trkpt>
<trkpt lat="33.8103132" lon="-118.3938671">
  <ele>-18.388</ele>
  <time>2026-09-02T22:07:50Z</time>
  <course>186.35</course>
  <speed>0.022360679774997897</speed>
  <fix>3d</fix>
</trkpt>
<trkpt lat="33.8103132" lon="-118.3938671">
  <ele>-18.45</ele>
  <time>2026-09-02T22:07:50Z</time>
  <course>186.35</course>
  <speed>0.022360679774997897</speed>
  <fix>3d</fix>
</trkpt>
<trkpt lat="33.810313" lon="-118.393867">
  <ele>-17.86</ele>
  <time>2026-09-02T22:07:50Z</time>
  <course>0.0</course>
  <speed>0.0</speed>
  <fix>3d</fix>
</trkpt>
<trkpt lat="33.8103132" lon="-118.3938671">
  <ele>-18.474</ele>
  <time>2026-09-02T22:07:50Z</time>
  <course>186.34</course>
  <speed>0.022360679774997897</speed>
  <fix>3d</fix>
</trkpt>
<trkpt lat="33.8103132" lon="-118.3938671">
  <ele>-18.514</ele>
  <time>2026-09-02T22:07:50Z</time>
  <course>186.34</course>
  <speed>0.022360679774997897</speed>
  <fix>3d</fix>
</trkpt>
<trkpt lat="33.810313" lon="-118.393867">
  <ele>-17.86</ele>
  <time>2026-09-02T22:07:50Z</time>
  <course>0.0</course>
  <speed>0.0</speed>
  <fix>3d</fix>
</trkpt>
<trkpt lat="33.8103132" lon="-118.3938671">
  <ele>-18.516</ele>
  <time>2026-09-02T22:07:50Z</time>
  <course>186.34</course>
  <speed>0.022360679774997897</speed>
  <fix>3d</fix>
</trkpt>
<trkpt lat="33.8103132" lon="-118.3938671">
  <ele>-18.579</ele>
  <time>2026-09-02T22:07:50Z</time>
  <course>186.34</course>
  <speed>0.022360679774997897</speed>
  <fix>3d</fix>
</trkpt>
<trkpt lat="33.810313" lon="-118.393867">
  <ele>-17.99</ele>
  <time>2026-09-02T22:07:50Z</time>
  <course>0.0</course>
  <speed>0.0</speed>
  <fix>3d</fix>
</trkpt>
<trkpt lat="33.8103132" lon="-118.3938671">
  <ele>-18.58</ele>
  <time>2026-09-02T22:07:50Z</time>
  <course>186.34</course>
  <speed>0.022360679774997897</speed>
  <fix>3d</fix>
</trkpt>
<trkpt lat="33.8103132" lon="-118.3938671">
  <ele>-18.643</ele>
  <time>2026-09-02T22:07:50Z</time>
  <course>186.34</course>
  <speed>0.022360679774997897</speed>
  <fix>3d</fix>
</trkpt>
<trkpt lat="33.810313" lon="-118.393867">
  <ele>-17.99</ele>
  <time>2026-09-02T22:07:50Z</time>
  <course>0.0</course>
  <speed>0.0</speed>
  <fix>3d</fix>
</trkpt>
<trkpt lat="33.8103132" lon="-118.3938671">
  <ele>-18.663</ele>
  <time>2026-09-02T22:07:50Z</time>
  <course>186.33</course>
  <speed>0.022360679774997897</speed>
  <fix>3d</fix>
</trkpt>
<trkpt lat="33.8103132" lon="-118.3938671">
  <ele>-18.705</ele>
  <time>2026-09-02T22:07:50Z</time>
  <course>186.33</course>
  <speed>0.022360679774997897</speed>
  <fix>3d</fix>
</trkpt>
<trkpt lat="33.810313" lon="-118.393867">
  <ele>-18.11</ele>
  <time>2026-09-02T22:07:50Z</time>
  <course>0.0</course>
  <speed>0.0</speed>
  <fix>3d</fix>
</trkpt>
<trkpt lat="33.8103132" lon="-118.3938671">
  <ele>-18.707</ele>
  <time>2026-09-02T22:07:50Z</time>
  <course>186.33</course>
  <speed>0.022360679774997897</speed>
  <fix>3d</fix>
</trkpt>
<trkpt lat="33.8103132" lon="-118.3938671">
  <ele>-18.767</ele>
  <time>2026-09-02T22:07:50Z</time>
  <course>186.33</course>
  <speed>0.022360679774997897</speed>
  <fix>3d</fix>
</trkpt>
<trkpt lat="33.810313" lon="-118.393867">
  <ele>-18.11</ele>
  <time>2026-09-02T22:07:50Z</time>
  <course>0.0</course>
  <speed>0.0</speed>
  <fix>3d</fix>
</trkpt>
<trkpt lat="33.8103132" lon="-118.3938671">
  <ele>-18.789</ele>
  <time>2026-09-02T22:07:50Z</time>
  <course>186.33</course>
  <speed>0.022360679774997897</speed>
  <fix>3d</fix>
</trkpt>
<trkpt lat="33.8103132" lon="-118.3938671">
  <ele>-18.829</ele>
  <time>2026-09-02T22:07:50Z</time>
  <course>186.33</course>
  <speed>0.022360679774997897</speed>
  <fix>3d</fix>
</trkpt>
<trkpt lat="33.810313" lon="-118.393867">
  <ele>-18.23</ele>
  <time>2026-09-02T22:07:50Z</time>
  <course>0.0</course>
  <speed>0.0</speed>
  <fix>3d</fix>
</trkpt>
<trkpt lat="33.8103132" lon="-118.3938671">
  <ele>-18.85</ele>
  <time>2026-09-02T22:07:50Z</time>
  <course>186.33</course>
  <speed>0.022360679774997897</speed>
  <fix>3d</fix>
</trkpt>
<trkpt lat="33.8103132" lon="-118.3938671">
  <ele>-18.889</ele>
  <time>2026-09-02T22:07:50Z</time>
  <course>186.32</course>
  <speed>0.022360679774997897</speed>
  <fix>3d</fix>
</trkpt>
<trkpt lat="33.810313" lon="-118.393867">
  <ele>-18.23</ele>
  <time>2026-09-02T22:07:50Z</time>
  <course>0.0</course>
  <speed>0.0</speed>
  <fix>3d</fix>
</trkpt>
<trkpt lat="33.8103132" lon="-118.3938671">
  <ele>-18.909</ele>
  <time>2026-09-02T22:07:50Z</time>
  <course>186.32</course>
  <speed>0.022360679774997897</speed>
  <fix>3d</fix>
</trkpt>
<trkpt lat="33.8103132" lon="-118.3938671">
  <ele>-18.95</ele>
  <time>2026-09-02T22:07:50Z</time>
  <course>186.32</course>
  <speed>0.022360679774997897</speed>
  <fix>3d</fix>
</trkpt>
<trkpt lat="33.810313" lon="-118.393867">
  <ele>-18.35</ele>
  <time>2026-09-02T22:07:50Z</time>
  <course>0.0</course>
  <speed>0.0</speed>
  <fix>3d</fix>
</trkpt>
<trkpt lat="33.8103132" lon="-118.3938671">
  <ele>-18.971</ele>
  <time>2026-09-02T22:07:50Z</time>
  <course>186.32</course>
  <speed>0.022360679774997897</speed>
  <fix>3d</fix>
</trkpt>
<trkpt lat="33.8103132" lon="-118.3938671">
  <ele>-19.011</ele>
  <time>2026-09-02T22:07:50Z</time>
  <course>186.32</course>
  <speed>0.022360679774997897</speed>
  <fix>3d</fix>
</trkpt>
<trkpt lat="33.810313" lon="-118.393867">
  <ele>-18.35</ele>
  <time>2026-09-02T22:07:50Z</time>
  <course>0.0</course>
  <speed>0.0</speed>
  <fix>3d</fix>
</trkpt>
<trkpt lat="33.8103132" lon="-118.3938671">
  <ele>-19.012</ele>
  <time>2026-09-02T22:07:50Z</time>
  <course>186.32</course>
  <speed>0.022360679774997897</speed>
  <fix>3d</fix>
</trkpt>
<trkpt lat="33.8103132" lon="-118.3938671">
  <ele>-19.073</ele>
  <time>2026-09-02T22:07:50Z</time>
  <course>186.31</course>
  <speed>0.022360679774997897</speed>
  <fix>3d</fix>
</trkpt>
<trkpt lat="33.810313" lon="-118.393867">
  <ele>-18.47</ele>
  <time>2026-09-02T22:07:50Z</time>
  <course>0.0</course>
  <speed>0.0</speed>
  <fix>3d</fix>
</trkpt>
<trkpt lat="33.8103132" lon="-118.3938671">
  <ele>-19.095</ele>
  <time>2026-09-02T22:07:50Z</time>
  <course>186.31</course>
  <speed>0.022360679774997897</speed>
  <fix>3d</fix>
</trkpt>
<trkpt lat="33.8103132" lon="-118.3938671">
  <ele>-19.134</ele>
  <time>2026-09-02T22:07:50Z</time>
  <course>186.31</course>
  <speed>0.022360679774997897</speed>
  <fix>3d</fix>
</trkpt>
<trkpt lat="33.810313" lon="-118.393867">
  <ele>-18.47</ele>
  <time>2026-09-02T22:07:50Z</time>
  <course>0.0</course>
  <speed>0.0</speed>
  <fix>3d</fix>
</trkpt>
<trkpt lat="33.8103132" lon="-118.3938671">
  <ele>-19.136</ele>
  <time>2026-09-02T22:07:50Z</time>
  <course>186.31</course>
  <speed>0.022360679774997897</speed>
  <fix>3d</fix>
</trkpt>
<trkpt lat="33.8103132" lon="-118.3938671">
  <ele>-19.196</ele>
  <time>2026-09-02T22:07:50Z</time>
  <course>186.31</course>
  <speed>0.022360679774997897</speed>
  <fix>3d</fix>
</trkpt>
<trkpt lat="33.810313" lon="-118.393867">
  <ele>-18.59</ele>
  <time>2026-09-02T22:07:50Z</time>
  <course>0.0</course>
  <speed>0.0</speed>
  <fix>3d</fix>
</trkpt>
<trkpt lat="33.8103132" lon="-118.3938671">
  <ele>-19.198</ele>
  <time>2026-09-02T22:07:50Z</time>
  <course>186.31</course>
  <speed>0.022360679774997897</speed>
  <fix>3d</fix>
</trkpt>
<trkpt lat="33.8103132" lon="-118.3938671">
  <ele>-19.257</ele>
  <time>2026-09-02T22:07:50Z</time>
  <course>186.3</course>
  <speed>0.022360679774997897</speed>
  <fix>3d</fix>
</trkpt>
<trkpt lat="33.810313" lon="-118.393867">
  <ele>-18.59</ele>
  <time>2026-09-02T22:07:50Z</time>
  <course>0.0</course>
  <speed>0.0</speed>
  <fix>3d</fix>
</trkpt>
<trkpt lat="33.8103132" lon="-118.3938671">
  <ele>-19.274</ele>
  <time>2026-09-02T22:07:50Z</time>
  <course>186.3</course>
  <speed>0.022360679774997897</speed>
  <fix>3d</fix>
</trkpt>
<trkpt lat="33.8103132" lon="-118.3938671">
  <ele>-19.319</ele>
  <time>2026-09-02T22:07:50Z</time>
  <course>186.3</course>
  <speed>0.022360679774997897</speed>
  <fix>3d</fix>
</trkpt>
<trkpt lat="33.810313" lon="-118.393867">
  <ele>-18.72</ele>
  <time>2026-09-02T22:07:50Z</time>
  <course>0.0</course>
  <speed>0.0</speed>
  <fix>3d</fix>
</trkpt>
<trkpt lat="33.8103132" lon="-118.3938671">
  <ele>-19.342</ele>
  <time>2026-09-02T22:07:50Z</time>
  <course>186.3</course>
  <speed>0.022360679774997897</speed>
  <fix>3d</fix>
</trkpt>
<trkpt lat="33.8103132" lon="-118.3938671">
  <ele>-19.38</ele>
  <time>2026-09-02T22:07:50Z</time>
  <course>186.3</course>
  <speed>0.022360679774997897</speed>
  <fix>3d</fix>
</trkpt>
<trkpt lat="33.810313" lon="-118.393867">
  <ele>-18.72</ele>
  <time>2026-09-02T22:07:50Z</time>
  <course>0.0</course>
  <speed>0.0</speed>
  <fix>3d</fix>
</trkpt>
<trkpt lat="33.8103132" lon="-118.3938671">
  <ele>-19.4</ele>
  <time>2026-09-02T22:07:50Z</time>
  <course>186.29</course>
  <speed>0.022360679774997897</speed>
  <fix>3d</fix>
</trkpt>
<trkpt lat="33.8103132" lon="-118.3938671">
  <ele>-19.441</ele>
  <time>2026-09-02T22:07:50Z</time>
  <course>186.29</course>
  <speed>0.022360679774997897</speed>
  <fix>3d</fix>
</trkpt>
<trkpt lat="33.810313" lon="-118.393867">
  <ele>-18.84</ele>
  <time>2026-09-02T22:07:50Z</time>
  <course>0.0</course>
  <speed>0.0</speed>
  <fix>3d</fix>
</trkpt>
<trkpt lat="33.8103132" lon="-118.3938671">
  <ele>-19.463</ele>
  <time>2026-09-02T22:07:50Z</time>
  <course>186.29</course>
  <speed>0.022360679774997897</speed>
  <fix>3d</fix>
</trkpt>
<trkpt lat="33.8103132" lon="-118.3938671">
  <ele>-19.503</ele>
  <time>2026-09-02T22:07:50Z</time>
  <course>186.29</course>
  <speed>0.022360679774997897</speed>
  <fix>3d</fix>
</trkpt>
<trkpt lat="33.810313" lon="-118.393867">
  <ele>-18.84</ele>
  <time>2026-09-02T22:07:50Z</time>
  <course>0.0</course>
  <speed>0.0</speed>
  <fix>3d</fix>
</trkpt>
<trkpt lat="33.8103132" lon="-118.3938671">
  <ele>-19.524</ele>
  <time>2026-09-02T22:07:50Z</time>
  <course>186.29</course>
  <speed>0.022360679774997897</speed>
  <fix>3d</fix>
</trkpt>
<trkpt lat="33.8103132" lon="-118.3938671">
  <ele>-19.565</ele>
  <time>2026-09-02T22:07:50Z</time>
  <course>186.29</course>
  <speed>0.022360679774997897</speed>
  <fix>3d</fix>
</trkpt>
<trkpt lat="33.810313" lon="-118.393867">
  <ele>-18.96</ele>
  <time>2026-09-02T22:07:50Z</time>
  <course>0.0</course>
  <speed>0.0</speed>
  <fix>3d</fix>
</trkpt>
<trkpt lat="33.8103132" lon="-118.3938671">
  <ele>-19.584</ele>
  <time>2026-09-02T22:07:50Z</time>
  <course>186.28</course>
  <speed>0.022360679774997897</speed>
  <fix>3d</fix>
</trkpt>
<trkpt lat="33.8103132" lon="-118.3938671">
  <ele>-19.625</ele>
  <time>2026-09-02T22:07:50Z</time>
  <course>186.28</course>
  <speed>0.022360679774997897</speed>
  <fix>3d</fix>
</trkpt>
<trkpt lat="33.810313" lon="-118.393867">
  <ele>-18.96</ele>
  <time>2026-09-02T22:07:50Z</time>
  <course>0.0</course>
  <speed>0.0</speed>
  <fix>3d</fix>
</trkpt>
<trkpt lat="33.8103132" lon="-118.3938671">
  <ele>-19.647</ele>
  <time>2026-09-02T22:07:50Z</time>
  <course>186.28</course>
  <speed>0.022360679774997897</speed>
  <fix>3d</fix>
</trkpt>
<trkpt lat="33.8103132" lon="-118.3938671">
  <ele>-19.685</ele>
  <time>2026-09-02T22:07:50Z</time>
  <course>186.28</course>
  <speed>0.022360679774997897</speed>
  <fix>3d</fix>
</trkpt>
<trkpt lat="33.810313" lon="-118.393867">
  <ele>-19.08</ele>
  <time>2026-09-02T22:07:50Z</time>
  <course>0.0</course>
  <speed>0.0</speed>
  <fix>3d</fix>
</trkpt>
<trkpt lat="33.8103132" lon="-118.3938671">
  <ele>-19.687</ele>
  <time>2026-09-02T22:07:50Z</time>
  <course>186.28</course>
  <speed>0.022360679774997897</speed>
  <fix>3d</fix>
</trkpt>
<trkpt lat="33.8103132" lon="-118.3938671">
  <ele>-19.745</ele>
  <time>2026-09-02T22:07:50Z</time>
  <course>186.27</course>
  <speed>0.022360679774997897</speed>
  <fix>3d</fix>
</trkpt>
<trkpt lat="33.810313" lon="-118.393867">
  <ele>-19.08</ele>
  <time>2026-09-02T22:07:50Z</time>
  <course>0.0</course>
  <speed>0.0</speed>
  <fix>3d</fix>
</trkpt>
<trkpt lat="33.8103132" lon="-118.3938671">
  <ele>-19.764</ele>
  <time>2026-09-02T22:07:50Z</time>
  <course>186.27</course>
  <speed>0.022360679774997897</speed>
  <fix>3d</fix>
</trkpt>
<trkpt lat="33.8103132" lon="-118.3938671">
  <ele>-19.803</ele>
  <time>2026-09-02T22:07:50Z</time>
  <course>186.27</course>
  <speed>0.022360679774997897</speed>
  <fix>3d</fix>
</trkpt>
<trkpt lat="33.810313" lon="-118.393867">
  <ele>-19.2</ele>
  <time>2026-09-02T22:07:50Z</time>
  <course>0.0</course>
  <speed>0.0</speed>
  <fix>3d</fix>
</trkpt>
<trkpt lat="33.8103132" lon="-118.3938671">
  <ele>-19.806</ele>
  <time>2026-09-02T22:07:50Z</time>
  <course>186.27</course>
  <speed>0.022360679774997897</speed>
  <fix>3d</fix>
</trkpt>
<trkpt lat="33.8103132" lon="-118.3938671">
  <ele>-19.863</ele>
  <time>2026-09-02T22:07:50Z</time>
  <course>186.27</course>
  <speed>0.022360679774997897</speed>
  <fix>3d</fix>
</trkpt>
<trkpt lat="33.810313" lon="-118.393867">
  <ele>-19.2</ele>
  <time>2026-09-02T22:07:50Z</time>
  <course>0.0</course>
  <speed>0.0</speed>
  <fix>3d</fix>
</trkpt>
<trkpt lat="33.8103132" lon="-118.3938671">
  <ele>-19.865</ele>
  <time>2026-09-02T22:07:50Z</time>
  <course>186.27</course>
  <speed>0.022360679774997897</speed>
  <fix>3d</fix>
</trkpt>
<trkpt lat="33.8103132" lon="-118.3938671">
  <ele>-19.924</ele>
  <time>2026-09-02T22:07:50Z</time>
  <course>186.26</course>
  <speed>0.022360679774997897</speed>
  <fix>3d</fix>
</trkpt>
<trkpt lat="33.810313" lon="-118.393867">
  <ele>-19.32</ele>
  <time>2026-09-02T22:07:50Z</time>
  <course>0.0</course>
  <speed>0.0</speed>
  <fix>3d</fix>
</trkpt>
<trkpt lat="33.8103132" lon="-118.3938671">
  <ele>-19.944</ele>
  <time>2026-09-02T22:07:50Z</time>
  <course>186.26</course>
  <speed>0.022360679774997897</speed>
  <fix>3d</fix>
</trkpt>
<trkpt lat="33.8103132" lon="-118.3938671">
  <ele>-19.985</ele>
  <time>2026-09-02T22:07:50Z</time>
  <course>186.26</course>
  <speed>0.022360679774997897</speed>
  <fix>3d</fix>
</trkpt>
<trkpt lat="33.810313" lon="-118.393867">
  <ele>-19.32</ele>
  <time>2026-09-02T22:07:50Z</time>
  <course>0.0</course>
  <speed>0.0</speed>
  <fix>3d</fix>
</trkpt>
<trkpt lat="33.8103132" lon="-118.3938671">
  <ele>-19.987</ele>
  <time>2026-09-02T22:07:50Z</time>
  <course>186.26</course>
  <speed>0.022360679774997897</speed>
  <fix>3d</fix>
</trkpt>
<trkpt lat="33.8103132" lon="-118.3938671">
  <ele>-20.047</ele>
  <time>2026-09-02T22:07:50Z</time>
  <course>186.26</course>
  <speed>0.022360679774997897</speed>
  <fix>3d</fix>
</trkpt>
<trkpt lat="33.810313" lon="-118.393867">
  <ele>-19.43</ele>
  <time>2026-09-02T22:07:50Z</time>
  <course>0.0</course>
  <speed>0.0</speed>
  <fix>3d</fix>
</trkpt>
<trkpt lat="33.8103132" lon="-118.3938671">
  <ele>-20.069</ele>
  <time>2026-09-02T22:07:50Z</time>
  <course>186.25</course>
  <speed>0.022360679774997897</speed>
  <fix>3d</fix>
</trkpt>
<trkpt lat="33.8103132" lon="-118.3938671">
  <ele>-20.111</ele>
  <time>2026-09-02T22:07:50Z</time>
  <course>186.25</course>
  <speed>0.022360679774997897</speed>
  <fix>3d</fix>
</trkpt>
<trkpt lat="33.810313" lon="-118.393867">
  <ele>-19.43</ele>
  <time>2026-09-02T22:07:50Z</time>
  <course>0.0</course>
  <speed>0.0</speed>
  <fix>3d</fix>
</trkpt>
<trkpt lat="33.8103132" lon="-118.3938671">
  <ele>-20.131</ele>
  <time>2026-09-02T22:07:50Z</time>
  <course>186.25</course>
  <speed>0.022360679774997897</speed>
  <fix>3d</fix>
</trkpt>
<trkpt lat="33.8103132" lon="-118.3938671">
  <ele>-20.174</ele>
  <time>2026-09-02T22:07:50Z</time>
  <course>186.25</course>
  <speed>0.022360679774997897</speed>
  <fix>3d</fix>
</trkpt>
<trkpt lat="33.810313" lon="-118.393867">
  <ele>-19.56</ele>
  <time>2026-09-02T22:07:50Z</time>
  <course>0.0</course>
  <speed>0.0</speed>
  <fix>3d</fix>
</trkpt>
<trkpt lat="33.8103132" lon="-118.3938671">
  <ele>-20.194</ele>
  <time>2026-09-02T22:07:50Z</time>
  <course>186.25</course>
  <speed>0.022360679774997897</speed>
  <fix>3d</fix>
</trkpt>
<trkpt lat="33.8103132" lon="-118.3938671">
  <ele>-20.237</ele>
  <time>2026-09-02T22:07:50Z</time>
  <course>186.24</course>
  <speed>0.022360679774997897</speed>
  <fix>3d</fix>
</trkpt>
<trkpt lat="33.810313" lon="-118.393867">
  <ele>-19.56</ele>
  <time>2026-09-02T22:07:50Z</time>
  <course>0.0</course>
  <speed>0.0</speed>
  <fix>3d</fix>
</trkpt>
<trkpt lat="33.8103132" lon="-118.3938671">
  <ele>-20.259</ele>
  <time>2026-09-02T22:07:50Z</time>
  <course>186.24</course>
  <speed>0.022360679774997897</speed>
  <fix>3d</fix>
</trkpt>
<trkpt lat="33.8103132" lon="-118.3938671">
  <ele>-20.3</ele>
  <time>2026-09-02T22:07:50Z</time>
  <course>186.24</course>
  <speed>0.022360679774997897</speed>
  <fix>3d</fix>
</trkpt>
<trkpt lat="33.810313" lon="-118.393867">
  <ele>-19.68</ele>
  <time>2026-09-02T22:07:50Z</time>
  <course>0.0</course>
  <speed>0.0</speed>
  <fix>3d</fix>
</trkpt>
<trkpt lat="33.8103132" lon="-118.3938671">
  <ele>-20.301</ele>
  <time>2026-09-02T22:07:50Z</time>
  <course>186.24</course>
  <speed>0.022360679774997897</speed>
  <fix>3d</fix>
</trkpt>
<trkpt lat="33.8103132" lon="-118.3938671">
  <ele>-20.362</ele>
  <time>2026-09-02T22:07:50Z</time>
  <course>186.24</course>
  <speed>0.022360679774997897</speed>
  <fix>3d</fix>
</trkpt>
<trkpt lat="33.810313" lon="-118.393867">
  <ele>-19.68</ele>
  <time>2026-09-02T22:07:50Z</time>
  <course>0.0</course>
  <speed>0.0</speed>
  <fix>3d</fix>
</trkpt>
<trkpt lat="33.8103132" lon="-118.3938671">
  <ele>-20.38</ele>
  <time>2026-09-02T22:07:50Z</time>
  <course>186.24</course>
  <speed>0.022360679774997897</speed>
  <fix>3d</fix>
</trkpt>
<trkpt lat="33.8103132" lon="-118.3938671">
  <ele>-20.424</ele>
  <time>2026-09-02T22:07:50Z</time>
  <course>186.23</course>
  <speed>0.022360679774997897</speed>
  <fix>3d</fix>
</trkpt>
<trkpt lat="33.810313" lon="-118.393867">
  <ele>-19.8</ele>
  <time>2026-09-02T22:07:50Z</time>
  <course>0.0</course>
  <speed>0.0</speed>
  <fix>3d</fix>
</trkpt>
<trkpt lat="33.8103132" lon="-118.3938671">
  <ele>-20.444</ele>
  <time>2026-09-02T22:07:50Z</time>
  <course>186.23</course>
  <speed>0.022360679774997897</speed>
  <fix>3d</fix>
</trkpt>
<trkpt lat="33.8103132" lon="-118.3938671">
  <ele>-20.486</ele>
  <time>2026-09-02T22:07:50Z</time>
  <course>186.23</course>
  <speed>0.022360679774997897</speed>
  <fix>3d</fix>
</trkpt>
<trkpt lat="33.810313" lon="-118.393867">
  <ele>-19.8</ele>
  <time>2026-09-02T22:07:50Z</time>
  <course>0.0</course>
  <speed>0.0</speed>
  <fix>3d</fix>
</trkpt>
<trkpt lat="33.8103132" lon="-118.3938671">
  <ele>-20.487</ele>
  <time>2026-09-02T22:07:50Z</time>
  <course>186.23</course>
  <speed>0.022360679774997897</speed>
  <fix>3d</fix>
</trkpt>
<trkpt lat="33.8103132" lon="-118.3938671">
  <ele>-20.547</ele>
  <time>2026-09-02T22:07:50Z</time>
  <course>186.22</course>
  <speed>0.022360679774997897</speed>
  <fix>3d</fix>
</trkpt>
<trkpt lat="33.810313" lon="-118.393867">
  <ele>-19.92</ele>
  <time>2026-09-02T22:07:50Z</time>
  <course>0.0</course>
  <speed>0.0</speed>
  <fix>3d</fix>
</trkpt>
<trkpt lat="33.8103132" lon="-118.3938671">
  <ele>-20.569</ele>
  <time>2026-09-02T22:07:50Z</time>
  <course>186.22</course>
  <speed>0.022360679774997897</speed>
  <fix>3d</fix>
</trkpt>
<trkpt lat="33.8103132" lon="-118.3938671">
  <ele>-20.61</ele>
  <time>2026-09-02T22:07:50Z</time>
  <course>186.22</course>
  <speed>0.022360679774997897</speed>
  <fix>3d</fix>
</trkpt>
<trkpt lat="33.810313" lon="-118.393867">
  <ele>-19.92</ele>
  <time>2026-09-02T22:07:50Z</time>
  <course>0.0</course>
  <speed>0.0</speed>
  <fix>3d</fix>
</trkpt>
<trkpt lat="33.8103132" lon="-118.3938671">
  <ele>-20.612</ele>
  <time>2026-09-02T22:07:50Z</time>
  <course>186.22</course>
  <speed>0.022360679774997897</speed>
  <fix>3d</fix>
</trkpt>
<trkpt lat="33.8103132" lon="-118.3938671">
  <ele>-20.673</ele>
  <time>2026-09-02T22:07:50Z</time>
  <course>186.22</course>
  <speed>0.022360679774997897</speed>
  <fix>3d</fix>
</trkpt>
<trkpt lat="33.810313" lon="-118.393867">
  <ele>-20.04</ele>
  <time>2026-09-02T22:07:50Z</time>
  <course>0.0</course>
  <speed>0.0</speed>
  <fix>3d</fix>
</trkpt>
<trkpt lat="33.8103132" lon="-118.3938671">
  <ele>-20.697</ele>
  <time>2026-09-02T22:07:50Z</time>
  <course>186.22</course>
  <speed>0.022360679774997897</speed>
  <fix>3d</fix>
</trkpt>
<trkpt lat="33.8103132" lon="-118.3938671">
  <ele>-20.735</ele>
  <time>2026-09-02T22:07:50Z</time>
  <course>186.21</course>
  <speed>0.022360679774997897</speed>
  <fix>3d</fix>
</trkpt>
<trkpt lat="33.810313" lon="-118.393867">
  <ele>-20.04</ele>
  <time>2026-09-02T22:07:50Z</time>
  <course>0.0</course>
  <speed>0.0</speed>
  <fix>3d</fix>
</trkpt>
<trkpt lat="33.8103132" lon="-118.3938671">
  <ele>-20.755</ele>
  <time>2026-09-02T22:07:50Z</time>
  <course>186.21</course>
  <speed>0.022360679774997897</speed>
  <fix>3d</fix>
</trkpt>
<trkpt lat="33.8103132" lon="-118.3938671">
  <ele>-20.798</ele>
  <time>2026-09-02T22:07:50Z</time>
  <course>186.21</course>
  <speed>0.022360679774997897</speed>
  <fix>3d</fix>
</trkpt>
<trkpt lat="33.810313" lon="-118.393867">
  <ele>-20.16</ele>
  <time>2026-09-02T22:07:50Z</time>
  <course>0.0</course>
  <speed>0.0</speed>
  <fix>3d</fix>
</trkpt>
<trkpt lat="33.8103132" lon="-118.3938671">
  <ele>-20.819</ele>
  <time>2026-09-02T22:07:50Z</time>
  <course>186.21</course>
  <speed>0.022360679774997897</speed>
  <fix>3d</fix>
</trkpt>
<trkpt lat="33.8103132" lon="-118.3938671">
  <ele>-20.861</ele>
  <time>2026-09-02T22:07:50Z</time>
  <course>186.21</course>
  <speed>0.022360679774997897</speed>
  <fix>3d</fix>
</trkpt>
<trkpt lat="33.810313" lon="-118.393867">
  <ele>-20.16</ele>
  <time>2026-09-02T22:07:50Z</time>
  <course>0.0</course>
  <speed>0.0</speed>
  <fix>3d</fix>
</trkpt>
<trkpt lat="33.8103132" lon="-118.3938671">
  <ele>-20.881</ele>
  <time>2026-09-02T22:07:50Z</time>
  <course>186.2</course>
  <speed>0.022360679774997897</speed>
  <fix>3d</fix>
</trkpt>
<trkpt lat="33.8103132" lon="-118.3938671">
  <ele>-20.923</ele>
  <time>2026-09-02T22:07:50Z</time>
  <course>186.2</course>
  <speed>0.022360679774997897</speed>
  <fix>3d</fix>
</trkpt>
<trkpt lat="33.810313" lon="-118.393867">
  <ele>-20.27</ele>
  <time>2026-09-02T22:07:50Z</time>
  <course>0.0</course>
  <speed>0.0</speed>
  <fix>3d</fix>
</trkpt>
<trkpt lat="33.8103132" lon="-118.3938671">
  <ele>-20.925</ele>
  <time>2026-09-02T22:07:50Z</time>
  <course>186.2</course>
  <speed>0.022360679774997897</speed>
  <fix>3d</fix>
</trkpt>
<trkpt lat="33.8103132" lon="-118.3938671">
  <ele>-20.985</ele>
  <time>2026-09-02T22:07:50Z</time>
  <course>186.2</course>
  <speed>0.022360679774997897</speed>
  <fix>3d</fix>
</trkpt>
<trkpt lat="33.810313" lon="-118.393867">
  <ele>-20.27</ele>
  <time>2026-09-02T22:07:50Z</time>
  <course>0.0</course>
  <speed>0.0</speed>
  <fix>3d</fix>
</trkpt>
<trkpt lat="33.8103132" lon="-118.3938671">
  <ele>-21.006</ele>
  <time>2026-09-02T22:07:50Z</time>
  <course>186.2</course>
  <speed>0.022360679774997897</speed>
  <fix>3d</fix>
</trkpt>
<trkpt lat="33.8103132" lon="-118.3938671">
  <ele>-21.048</ele>
  <time>2026-09-02T22:07:50Z</time>
  <course>186.19</course>
  <speed>0.022360679774997897</speed>
  <fix>3d</fix>
</trkpt>
<trkpt lat="33.810313" lon="-118.393867">
  <ele>-20.4</ele>
  <time>2026-09-02T22:07:50Z</time>
  <course>0.0</course>
  <speed>0.0</speed>
  <fix>3d</fix>
</trkpt>
<trkpt lat="33.8103132" lon="-118.3938671">
  <ele>-21.069</ele>
  <time>2026-09-02T22:07:50Z</time>
  <course>186.19</course>
  <speed>0.022360679774997897</speed>
  <fix>3d</fix>
</trkpt>
<trkpt lat="33.8103132" lon="-118.3938671">
  <ele>-21.11</ele>
  <time>2026-09-02T22:07:50Z</time>
  <course>186.19</course>
  <speed>0.022360679774997897</speed>
  <fix>3d</fix>
</trkpt>
<trkpt lat="33.810313" lon="-118.393867">
  <ele>-20.4</ele>
  <time>2026-09-02T22:07:50Z</time>
  <course>0.0</course>
  <speed>0.0</speed>
  <fix>3d</fix>
</trkpt>
<trkpt lat="33.8103132" lon="-118.3938671">
  <ele>-21.111</ele>
  <time>2026-09-02T22:07:50Z</time>
  <course>186.19</course>
  <speed>0.022360679774997897</speed>
  <fix>3d</fix>
</trkpt>
<trkpt lat="33.8103132" lon="-118.3938671">
  <ele>-21.171</ele>
  <time>2026-09-02T22:07:50Z</time>
  <course>186.18</course>
  <speed>0.022360679774997897</speed>
  <fix>3d</fix>
</trkpt>
<trkpt lat="33.810313" lon="-118.393867">
  <ele>-20.52</ele>
  <time>2026-09-02T22:07:50Z</time>
  <course>0.0</course>
  <speed>0.0</speed>
  <fix>3d</fix>
</trkpt>
<trkpt lat="33.8103132" lon="-118.3938671">
  <ele>-21.191</ele>
  <time>2026-09-02T22:07:50Z</time>
  <course>186.18</course>
  <speed>0.022360679774997897</speed>
  <fix>3d</fix>
</trkpt>
<trkpt lat="33.8103132" lon="-118.3938671">
  <ele>-21.233</ele>
  <time>2026-09-02T22:07:50Z</time>
  <course>186.18</course>
  <speed>0.022360679774997897</speed>
  <fix>3d</fix>
</trkpt>
<trkpt lat="33.810313" lon="-118.393867">
  <ele>-20.52</ele>
  <time>2026-09-02T22:07:50Z</time>
  <course>0.0</course>
  <speed>0.0</speed>
  <fix>3d</fix>
</trkpt>
<trkpt lat="33.8103132" lon="-118.3938671">
  <ele>-21.234</ele>
  <time>2026-09-02T22:07:50Z</time>
  <course>186.18</course>
  <speed>0.022360679774997897</speed>
  <fix>3d</fix>
</trkpt>
<trkpt lat="33.8103132" lon="-118.3938671">
  <ele>-21.294</ele>
  <time>2026-09-02T22:07:50Z</time>
  <course>186.18</course>
  <speed>0.022360679774997897</speed>
  <fix>3d</fix>
</trkpt>
<trkpt lat="33.810313" lon="-118.393867">
  <ele>-20.65</ele>
  <time>2026-09-02T22:07:50Z</time>
  <course>0.0</course>
  <speed>0.0</speed>
  <fix>3d</fix>
</trkpt>
<trkpt lat="33.8103132" lon="-118.3938671">
  <ele>-21.295</ele>
  <time>2026-09-02T22:07:50Z</time>
  <course>186.18</course>
  <speed>0.022360679774997897</speed>
  <fix>3d</fix>
</trkpt>
<trkpt lat="33.8103132" lon="-118.3938671">
  <ele>-21.355</ele>
  <time>2026-09-02T22:07:50Z</time>
  <course>186.17</course>
  <speed>0.022360679774997897</speed>
  <fix>3d</fix>
</trkpt>
<trkpt lat="33.810313" lon="-118.393867">
  <ele>-20.65</ele>
  <time>2026-09-02T22:07:50Z</time>
  <course>0.0</course>
  <speed>0.0</speed>
  <fix>3d</fix>
</trkpt>
<trkpt lat="33.8103132" lon="-118.3938671">
  <ele>-21.356</ele>
  <time>2026-09-02T22:07:50Z</time>
  <course>186.17</course>
  <speed>0.022360679774997897</speed>
  <fix>3d</fix>
</trkpt>
<trkpt lat="33.8103132" lon="-118.3938671">
  <ele>-21.417</ele>
  <time>2026-09-02T22:07:50Z</time>
  <course>186.17</course>
  <speed>0.022360679774997897</speed>
  <fix>3d</fix>
</trkpt>
<trkpt lat="33.810313" lon="-118.393867">
  <ele>-20.77</ele>
  <time>2026-09-02T22:07:50Z</time>
  <course>0.0</course>
  <speed>0.0</speed>
  <fix>3d</fix>
</trkpt>
<trkpt lat="33.8103132" lon="-118.3938671">
  <ele>-21.436</ele>
  <time>2026-09-02T22:07:50Z</time>
  <course>186.17</course>
  <speed>0.022360679774997897</speed>
  <fix>3d</fix>
</trkpt>
<trkpt lat="33.8103132" lon="-118.3938671">
  <ele>-21.478</ele>
  <time>2026-09-02T22:07:50Z</time>
  <course>186.16</course>
  <speed>0.022360679774997897</speed>
  <fix>3d</fix>
</trkpt>
<trkpt lat="33.810313" lon="-118.393867">
  <ele>-20.77</ele>
  <time>2026-09-02T22:07:50Z</time>
  <course>0.0</course>
  <speed>0.0</speed>
  <fix>3d</fix>
</trkpt>
<trkpt lat="33.8103132" lon="-118.3938671">
  <ele>-21.498</ele>
  <time>2026-09-02T22:07:50Z</time>
  <course>186.16</course>
  <speed>0.022360679774997897</speed>
  <fix>3d</fix>
</trkpt>
<trkpt lat="33.8103132" lon="-118.3938671">
  <ele>-21.54</ele>
  <time>2026-09-02T22:07:50Z</time>
  <course>186.16</course>
  <speed>0.022360679774997897</speed>
  <fix>3d</fix>
</trkpt>
<trkpt lat="33.810313" lon="-118.393867">
  <ele>-20.89</ele>
  <time>2026-09-02T22:07:50Z</time>
  <course>0.0</course>
  <speed>0.0</speed>
  <fix>3d</fix>
</trkpt>
<trkpt lat="33.8103132" lon="-118.3938671">
  <ele>-21.541</ele>
  <time>2026-09-02T22:07:50Z</time>
  <course>186.16</course>
  <speed>0.022360679774997897</speed>
  <fix>3d</fix>
</trkpt>
<trkpt lat="33.8103132" lon="-118.3938671">
  <ele>-21.602</ele>
  <time>2026-09-02T22:07:50Z</time>
  <course>186.16</course>
  <speed>0.022360679774997897</speed>
  <fix>3d</fix>
</trkpt>
<trkpt lat="33.810313" lon="-118.393867">
  <ele>-20.89</ele>
  <time>2026-09-02T22:07:50Z</time>
  <course>0.0</course>
  <speed>0.0</speed>
  <fix>3d</fix>
</trkpt>
<trkpt lat="33.8103132" lon="-118.3938671">
  <ele>-21.603</ele>
  <time>2026-09-02T22:07:50Z</time>
  <course>186.16</course>
  <speed>0.022360679774997897</speed>
  <fix>3d</fix>
</trkpt>
<trkpt lat="33.8103132" lon="-118.3938671">
  <ele>-21.664</ele>
  <time>2026-09-02T22:07:50Z</time>
  <course>186.15</course>
  <speed>0.022360679774997897</speed>
  <fix>3d</fix>
</trkpt>
<trkpt lat="33.810313" lon="-118.393867">
  <ele>-21.01</ele>
  <time>2026-09-02T22:07:50Z</time>
  <course>0.0</course>
  <speed>0.0</speed>
  <fix>3d</fix>
</trkpt>
<trkpt lat="33.8103132" lon="-118.3938671">
  <ele>-21.665</ele>
  <time>2026-09-02T22:07:50Z</time>
  <course>186.15</course>
  <speed>0.022360679774997897</speed>
  <fix>3d</fix>
</trkpt>
<trkpt lat="33.8103132" lon="-118.3938671">
  <ele>-21.725</ele>
  <time>2026-09-02T22:07:50Z</time>
  <course>186.15</course>
  <speed>0.022360679774997897</speed>
  <fix>3d</fix>
</trkpt>
<trkpt lat="33.810313" lon="-118.393867">
  <ele>-21.01</ele>
  <time>2026-09-02T22:07:50Z</time>
  <course>0.0</course>
  <speed>0.0</speed>
  <fix>3d</fix>
</trkpt>
<trkpt lat="33.8103132" lon="-118.3938671">
  <ele>-21.745</ele>
  <time>2026-09-02T22:07:50Z</time>
  <course>186.15</course>
  <speed>0.022360679774997897</speed>
  <fix>3d</fix>
</trkpt>
<trkpt lat="33.8103132" lon="-118.3938671">
  <ele>-21.786</ele>
  <time>2026-09-02T22:07:50Z</time>
  <course>186.14</course>
  <speed>0.022360679774997897</speed>
  <fix>3d</fix>
</trkpt>
<trkpt lat="33.810313" lon="-118.393867">
  <ele>-21.13</ele>
  <time>2026-09-02T22:07:50Z</time>
  <course>0.0</course>
  <speed>0.0</speed>
  <fix>3d</fix>
</trkpt>
<trkpt lat="33.8103132" lon="-118.3938671">
  <ele>-21.788</ele>
  <time>2026-09-02T22:07:50Z</time>
  <course>186.14</course>
  <speed>0.022360679774997897</speed>
  <fix>3d</fix>
</trkpt>
<trkpt lat="33.8103132" lon="-118.3938671">
  <ele>-21.848</ele>
  <time>2026-09-02T22:07:50Z</time>
  <course>186.14</course>
  <speed>0.022360679774997897</speed>
  <fix>3d</fix>
</trkpt>
<trkpt lat="33.810313" lon="-118.393867">
  <ele>-21.13</ele>
  <time>2026-09-02T22:07:50Z</time>
  <course>0.0</course>
  <speed>0.0</speed>
  <fix>3d</fix>
</trkpt>
<trkpt lat="33.8103132" lon="-118.3938671">
  <ele>-21.849</ele>
  <time>2026-09-02T22:07:50Z</time>
  <course>186.14</course>
  <speed>0.022360679774997897</speed>
  <fix>3d</fix>
</trkpt>
<trkpt lat="33.8103132" lon="-118.3938671">
  <ele>-21.91</ele>
  <time>2026-09-02T22:07:50Z</time>
  <course>186.14</course>
  <speed>0.022360679774997897</speed>
  <fix>3d</fix>
</trkpt>
<trkpt lat="33.810313" lon="-118.393867">
  <ele>-21.25</ele>
  <time>2026-09-02T22:07:50Z</time>
  <course>0.0</course>
  <speed>0.0</speed>
  <fix>3d</fix>
</trkpt>
<trkpt lat="33.8103132" lon="-118.3938671">
  <ele>-21.93</ele>
  <time>2026-09-02T22:07:50Z</time>
  <course>186.13</course>
  <speed>0.022360679774997897</speed>
  <fix>3d</fix>
</trkpt>
<trkpt lat="33.8103132" lon="-118.3938671">
  <ele>-21.972</ele>
  <time>2026-09-02T22:07:50Z</time>
  <course>186.13</course>
  <speed>0.022360679774997897</speed>
  <fix>3d</fix>
</trkpt>
<trkpt lat="33.810313" lon="-118.393867">
  <ele>-21.25</ele>
  <time>2026-09-02T22:07:50Z</time>
  <course>0.0</course>
  <speed>0.0</speed>
  <fix>3d</fix>
</trkpt>
<trkpt lat="33.8103132" lon="-118.3938671">
  <ele>-21.994</ele>
  <time>2026-09-02T22:07:50Z</time>
  <course>186.13</course>
  <speed>0.022360679774997897</speed>
  <fix>3d</fix>
</trkpt>
<trkpt lat="33.8103132" lon="-118.3938671">
  <ele>-22.034</ele>
  <time>2026-09-02T22:07:50Z</time>
  <course>186.13</course>
  <speed>0.022360679774997897</speed>
  <fix>3d</fix>
</trkpt>
<trkpt lat="33.810313" lon="-118.393867">
  <ele>-21.36</ele>
  <time>2026-09-02T22:07:50Z</time>
  <course>0.0</course>
  <speed>0.0</speed>
  <fix>3d</fix>
</trkpt>
<trkpt lat="33.8103132" lon="-118.3938671">
  <ele>-22.052</ele>
  <time>2026-09-02T22:07:50Z</time>
  <course>186.13</course>
  <speed>0.022360679774997897</speed>
  <fix>3d</fix>
</trkpt>
<trkpt lat="33.8103132" lon="-118.3938671">
  <ele>-22.096</ele>
  <time>2026-09-02T22:07:50Z</time>
  <course>186.12</course>
  <speed>0.022360679774997897</speed>
  <fix>3d</fix>
</trkpt>
<trkpt lat="33.810313" lon="-118.393867">
  <ele>-21.36</ele>
  <time>2026-09-02T22:07:50Z</time>
  <course>0.0</course>
  <speed>0.0</speed>
  <fix>3d</fix>
</trkpt>
<trkpt lat="33.8103132" lon="-118.3938671">
  <ele>-22.119</ele>
  <time>2026-09-02T22:07:50Z</time>
  <course>186.12</course>
  <speed>0.022360679774997897</speed>
  <fix>3d</fix>
</trkpt>
<trkpt lat="33.8103132" lon="-118.3938671">
  <ele>-22.158</ele>
  <time>2026-09-02T22:07:50Z</time>
  <course>186.12</course>
  <speed>0.022360679774997897</speed>
  <fix>3d</fix>
</trkpt>
<trkpt lat="33.810313" lon="-118.393867">
  <ele>-21.49</ele>
  <time>2026-09-02T22:07:50Z</time>
  <course>0.0</course>
  <speed>0.0</speed>
  <fix>3d</fix>
</trkpt>
<trkpt lat="33.8103132" lon="-118.3938671">
  <ele>-22.16</ele>
  <time>2026-09-02T22:07:50Z</time>
  <course>186.12</course>
  <speed>0.022360679774997897</speed>
  <fix>3d</fix>
</trkpt>
<trkpt lat="33.8103132" lon="-118.3938671">
  <ele>-22.221</ele>
  <time>2026-09-02T22:07:50Z</time>
  <course>186.11</course>
  <speed>0.022360679774997897</speed>
  <fix>3d</fix>
</trkpt>
<trkpt lat="33.810313" lon="-118.393867">
  <ele>-21.49</ele>
  <time>2026-09-02T22:07:50Z</time>
  <course>0.0</course>
  <speed>0.0</speed>
  <fix>3d</fix>
</trkpt>
<trkpt lat="33.8103132" lon="-118.3938671">
  <ele>-22.239</ele>
  <time>2026-09-02T22:07:50Z</time>
  <course>186.11</course>
  <speed>0.022360679774997897</speed>
  <fix>3d</fix>
</trkpt>
<trkpt lat="33.8103132" lon="-118.3938671">
  <ele>-22.283</ele>
  <time>2026-09-02T22:07:50Z</time>
  <course>186.11</course>
  <speed>0.022360679774997897</speed>
  <fix>3d</fix>
</trkpt>
<trkpt lat="33.810313" lon="-118.393867">
  <ele>-21.61</ele>
  <time>2026-09-02T22:07:50Z</time>
  <course>0.0</course>
  <speed>0.0</speed>
  <fix>3d</fix>
</trkpt>
<trkpt lat="33.8103132" lon="-118.3938671">
  <ele>-22.304</ele>
  <time>2026-09-02T22:07:50Z</time>
  <course>186.11</course>
  <speed>0.022360679774997897</speed>
  <fix>3d</fix>
</trkpt>
<trkpt lat="33.8103132" lon="-118.3938671">
  <ele>-22.343</ele>
  <time>2026-09-02T22:07:50Z</time>
  <course>186.11</course>
  <speed>0.022360679774997897</speed>
  <fix>3d</fix>
</trkpt>
<trkpt lat="33.810313" lon="-118.393867">
  <ele>-21.61</ele>
  <time>2026-09-02T22:07:50Z</time>
  <course>0.0</course>
  <speed>0.0</speed>
  <fix>3d</fix>
</trkpt>
<trkpt lat="33.8103132" lon="-118.3938671">
  <ele>-22.362</ele>
  <time>2026-09-02T22:07:50Z</time>
  <course>186.1</course>
  <speed>0.022360679774997897</speed>
  <fix>3d</fix>
</trkpt>
<trkpt lat="33.8103132" lon="-118.3938671">
  <ele>-22.402</ele>
  <time>2026-09-02T22:07:50Z</time>
  <course>186.1</course>
  <speed>0.022360679774997897</speed>
  <fix>3d</fix>
</trkpt>
<trkpt lat="33.810313" lon="-118.393867">
  <ele>-21.73</ele>
  <time>2026-09-02T22:07:50Z</time>
  <course>0.0</course>
  <speed>0.0</speed>
  <fix>3d</fix>
</trkpt>
<trkpt lat="33.8103132" lon="-118.3938671">
  <ele>-22.421</ele>
  <time>2026-09-02T22:07:50Z</time>
  <course>186.1</course>
  <speed>0.022360679774997897</speed>
  <fix>3d</fix>
</trkpt>
<trkpt lat="33.8103132" lon="-118.3938671">
  <ele>-22.461</ele>
  <time>2026-09-02T22:07:50Z</time>
  <course>186.1</course>
  <speed>0.022360679774997897</speed>
  <fix>3d</fix>
</trkpt>
<trkpt lat="33.810313" lon="-118.393867">
  <ele>-21.73</ele>
  <time>2026-09-02T22:07:50Z</time>
  <course>0.0</course>
  <speed>0.0</speed>
  <fix>3d</fix>
</trkpt>
<trkpt lat="33.8103132" lon="-118.3938671">
  <ele>-22.462</ele>
  <time>2026-09-02T22:07:50Z</time>
  <course>186.1</course>
  <speed>0.022360679774997897</speed>
  <fix>3d</fix>
</trkpt>
<trkpt lat="33.8103132" lon="-118.3938671">
  <ele>-22.519</ele>
  <time>2026-09-02T22:07:50Z</time>
  <course>186.09</course>
  <speed>0.022360679774997897</speed>
  <fix>3d</fix>
</trkpt>
<trkpt lat="33.810313" lon="-118.393867">
  <ele>-21.85</ele>
  <time>2026-09-02T22:07:50Z</time>
  <course>0.0</course>
  <speed>0.0</speed>
  <fix>3d</fix>
</trkpt>
<trkpt lat="33.8103132" lon="-118.3938671">
  <ele>-22.539</ele>
  <time>2026-09-02T22:07:50Z</time>
  <course>186.09</course>
  <speed>0.022360679774997897</speed>
  <fix>3d</fix>
</trkpt>
<trkpt lat="33.8103132" lon="-118.3938671">
  <ele>-22.578</ele>
  <time>2026-09-02T22:07:50Z</time>
  <course>186.09</course>
  <speed>0.022360679774997897</speed>
  <fix>3d</fix>
</trkpt>
<trkpt lat="33.810313" lon="-118.393867">
  <ele>-21.85</ele>
  <time>2026-09-02T22:07:50Z</time>
  <course>0.0</course>
  <speed>0.0</speed>
  <fix>3d</fix>
</trkpt>
<trkpt lat="33.8103132" lon="-118.3938671">
  <ele>-22.599</ele>
  <time>2026-09-02T22:07:50Z</time>
  <course>186.09</course>
  <speed>0.022360679774997897</speed>
  <fix>3d</fix>
</trkpt>
<trkpt lat="33.8103132" lon="-118.3938671">
  <ele>-22.638</ele>
  <time>2026-09-02T22:07:50Z</time>
  <course>186.08</course>
  <speed>0.022360679774997897</speed>
  <fix>3d</fix>
</trkpt>
<trkpt lat="33.810313" lon="-118.393867">
  <ele>-21.97</ele>
  <time>2026-09-02T22:07:50Z</time>
  <course>0.0</course>
  <speed>0.0</speed>
  <fix>3d</fix>
</trkpt>
<trkpt lat="33.8103132" lon="-118.3938671">
  <ele>-22.657</ele>
  <time>2026-09-02T22:07:50Z</time>
  <course>186.08</course>
  <speed>0.022360679774997897</speed>
  <fix>3d</fix>
</trkpt>
<trkpt lat="33.8103132" lon="-118.3938671">
  <ele>-22.699</ele>
  <time>2026-09-02T22:07:50Z</time>
  <course>186.08</course>
  <speed>0.022360679774997897</speed>
  <fix>3d</fix>
</trkpt>
<trkpt lat="33.810313" lon="-118.393867">
  <ele>-21.97</ele>
  <time>2026-09-02T22:07:50Z</time>
  <course>0.0</course>
  <speed>0.0</speed>
  <fix>3d</fix>
</trkpt>
<trkpt lat="33.8103132" lon="-118.3938671">
  <ele>-22.72</ele>
  <time>2026-09-02T22:07:50Z</time>
  <course>186.08</course>
  <speed>0.022360679774997897</speed>
  <fix>3d</fix>
</trkpt>
<trkpt lat="33.8103132" lon="-118.3938671">
  <ele>-22.761</ele>
  <time>2026-09-02T22:07:50Z</time>
  <course>186.08</course>
  <speed>0.022360679774997897</speed>
  <fix>3d</fix>
</trkpt>
<trkpt lat="33.810313" lon="-118.393867">
  <ele>-22.09</ele>
  <time>2026-09-02T22:07:50Z</time>
  <course>0.0</course>
  <speed>0.0</speed>
  <fix>3d</fix>
</trkpt>
<trkpt lat="33.8103132" lon="-118.3938671">
  <ele>-22.762</ele>
  <time>2026-09-02T22:07:50Z</time>
  <course>186.08</course>
  <speed>0.022360679774997897</speed>
  <fix>3d</fix>
</trkpt>
<trkpt lat="33.8103132" lon="-118.3938671">
  <ele>-22.822</ele>
  <time>2026-09-02T22:07:50Z</time>
  <course>186.07</course>
  <speed>0.022360679774997897</speed>
  <fix>3d</fix>
</trkpt>
<trkpt lat="33.810313" lon="-118.393867">
  <ele>-22.09</ele>
  <time>2026-09-02T22:07:50Z</time>
  <course>0.0</course>
  <speed>0.0</speed>
  <fix>3d</fix>
</trkpt>
<trkpt lat="33.8103132" lon="-118.3938671">
  <ele>-22.845</ele>
  <time>2026-09-02T22:07:50Z</time>
  <course>186.07</course>
  <speed>0.022360679774997897</speed>
  <fix>3d</fix>
</trkpt>
<trkpt lat="33.8103132" lon="-118.3938671">
  <ele>-22.883</ele>
  <time>2026-09-02T22:07:50Z</time>
  <course>186.07</course>
  <speed>0.022360679774997897</speed>
  <fix>3d</fix>
</trkpt>
<trkpt lat="33.810313" lon="-118.393867">
  <ele>-22.21</ele>
  <time>2026-09-02T22:07:50Z</time>
  <course>0.0</course>
  <speed>0.0</speed>
  <fix>3d</fix>
</trkpt>
<trkpt lat="33.8103132" lon="-118.3938671">
  <ele>-22.884</ele>
  <time>2026-09-02T22:07:50Z</time>
  <course>186.07</course>
  <speed>0.022360679774997897</speed>
  <fix>3d</fix>
</trkpt>
<trkpt lat="33.8103132" lon="-118.3938671">
  <ele>-22.943</ele>
  <time>2026-09-02T22:07:50Z</time>
  <course>186.06</course>
  <speed>0.022360679774997897</speed>
  <fix>3d</fix>
</trkpt>
<trkpt lat="33.810313" lon="-118.393867">
  <ele>-22.21</ele>
  <time>2026-09-02T22:07:50Z</time>
  <course>0.0</course>
  <speed>0.0</speed>
  <fix>3d</fix>
</trkpt>
<trkpt lat="33.8103132" lon="-118.3938671">
  <ele>-22.964</ele>
  <time>2026-09-02T22:07:50Z</time>
  <course>186.06</course>
  <speed>0.022360679774997897</speed>
  <fix>3d</fix>
</trkpt>
<trkpt lat="33.8103132" lon="-118.3938671">
  <ele>-23.004</ele>
  <time>2026-09-02T22:07:50Z</time>
  <course>186.06</course>
  <speed>0.022360679774997897</speed>
  <fix>3d</fix>
</trkpt>
<trkpt lat="33.810313" lon="-118.393867">
  <ele>-22.34</ele>
  <time>2026-09-02T22:07:50Z</time>
  <course>0.0</course>
  <speed>0.0</speed>
  <fix>3d</fix>
</trkpt>
<trkpt lat="33.8103132" lon="-118.3938671">
  <ele>-23.025</ele>
  <time>2026-09-02T22:07:50Z</time>
  <course>186.06</course>
  <speed>0.022360679774997897</speed>
  <fix>3d</fix>
</trkpt>
<trkpt lat="33.8103132" lon="-118.3938671">
  <ele>-23.064</ele>
  <time>2026-09-02T22:07:50Z</time>
  <course>186.06</course>
  <speed>0.022360679774997897</speed>
  <fix>3d</fix>
</trkpt>
<trkpt lat="33.810313" lon="-118.393867">
  <ele>-22.34</ele>
  <time>2026-09-02T22:07:50Z</time>
  <course>0.0</course>
  <speed>0.0</speed>
  <fix>3d</fix>
</trkpt>
<trkpt lat="33.8103132" lon="-118.3938671">
  <ele>-23.066</ele>
  <time>2026-09-02T22:07:50Z</time>
  <course>186.06</course>
  <speed>0.022360679774997897</speed>
  <fix>3d</fix>
</trkpt>
<trkpt lat="33.8103132" lon="-118.3938671">
  <ele>-23.124</ele>
  <time>2026-09-02T22:07:50Z</time>
  <course>186.05</course>
  <speed>0.022360679774997897</speed>
  <fix>3d</fix>
</trkpt>
<trkpt lat="33.810313" lon="-118.393867">
  <ele>-22.46</ele>
  <time>2026-09-02T22:07:50Z</time>
  <course>0.0</course>
  <speed>0.0</speed>
  <fix>3d</fix>
</trkpt>
<trkpt lat="33.8103132" lon="-118.3938671">
  <ele>-23.126</ele>
  <time>2026-09-02T22:07:50Z</time>
  <course>186.05</course>
  <speed>0.022360679774997897</speed>
  <fix>3d</fix>
</trkpt>
<trkpt lat="33.8103132" lon="-118.3938671">
  <ele>-23.185</ele>
  <time>2026-09-02T22:07:51Z</time>
  <course>186.05</course>
  <speed>0.022360679774997897</speed>
  <fix>3d</fix>
</trkpt>
<trkpt lat="33.810313" lon="-118.393867">
  <ele>-22.46</ele>
  <time>2026-09-02T22:07:51Z</time>
  <course>0.0</course>
  <speed>0.0</speed>
  <fix>3d</fix>
</trkpt>
<trkpt lat="33.8103132" lon="-118.3938671">
  <ele>-23.206</ele>
  <time>2026-09-02T22:07:51Z</time>
  <course>186.05</course>
  <speed>0.022360679774997897</speed>
  <fix>3d</fix>
</trkpt>
<trkpt lat="33.8103132" lon="-118.3938671">
  <ele>-23.246</ele>
  <time>2026-09-02T22:07:51Z</time>
  <course>186.04</course>
  <speed>0.022360679774997897</speed>
  <fix>3d</fix>
</trkpt>
<trkpt lat="33.810313" lon="-118.393867">
  <ele>-22.58</ele>
  <time>2026-09-02T22:07:51Z</time>
  <course>0.0</course>
  <speed>0.0</speed>
  <fix>3d</fix>
</trkpt>
<trkpt lat="33.8103132" lon="-118.3938671">
  <ele>-23.269</ele>
  <time>2026-09-02T22:07:51Z</time>
  <course>186.04</course>
  <speed>0.022360679774997897</speed>
  <fix>3d</fix>
</trkpt>
<trkpt lat="33.8103132" lon="-118.3938671">
  <ele>-23.306</ele>
  <time>2026-09-02T22:07:51Z</time>
  <course>186.04</course>
  <speed>0.022360679774997897</speed>
  <fix>3d</fix>
</trkpt>
<trkpt lat="33.810313" lon="-118.393867">
  <ele>-22.58</ele>
  <time>2026-09-02T22:07:51Z</time>
  <course>0.0</course>
  <speed>0.0</speed>
  <fix>3d</fix>
</trkpt>
<trkpt lat="33.8103132" lon="-118.3938671">
  <ele>-23.328</ele>
  <time>2026-09-02T22:07:51Z</time>
  <course>186.04</course>
  <speed>0.022360679774997897</speed>
  <fix>3d</fix>
</trkpt>
<trkpt lat="33.8103132" lon="-118.3938671">
  <ele>-23.367</ele>
  <time>2026-09-02T22:07:51Z</time>
  <course>186.03</course>
  <speed>0.022360679774997897</speed>
  <fix>3d</fix>
</trkpt>
<trkpt lat="33.810313" lon="-118.393867">
  <ele>-22.7</ele>
  <time>2026-09-02T22:07:51Z</time>
  <course>0.0</course>
  <speed>0.0</speed>
  <fix>3d</fix>
</trkpt>
<trkpt lat="33.8103132" lon="-118.3938671">
  <ele>-23.368</ele>
  <time>2026-09-02T22:07:51Z</time>
  <course>186.03</course>
  <speed>0.022360679774997897</speed>
  <fix>3d</fix>
</trkpt>
<trkpt lat="33.8103132" lon="-118.3938671">
  <ele>-23.427</ele>
  <time>2026-09-02T22:07:51Z</time>
  <course>186.03</course>
  <speed>0.022360679774997897</speed>
  <fix>3d</fix>
</trkpt>
<trkpt lat="33.810313" lon="-118.393867">
  <ele>-22.7</ele>
  <time>2026-09-02T22:07:51Z</time>
  <course>0.0</course>
  <speed>0.0</speed>
  <fix>3d</fix>
</trkpt>
<trkpt lat="33.8103132" lon="-118.3938671">
  <ele>-23.447</ele>
  <time>2026-09-02T22:07:51Z</time>
  <course>186.03</course>
  <speed>0.022360679774997897</speed>
  <fix>3d</fix>
</trkpt>
<trkpt lat="33.8103132" lon="-118.3938671">
  <ele>-23.488</ele>
  <time>2026-09-02T22:07:51Z</time>
  <course>186.03</course>
  <speed>0.022360679774997897</speed>
  <fix>3d</fix>
</trkpt>
<trkpt lat="33.810313" lon="-118.393867">
  <ele>-22.82</ele>
  <time>2026-09-02T22:07:51Z</time>
  <course>0.0</course>
  <speed>0.0</speed>
  <fix>3d</fix>
</trkpt>
<trkpt lat="33.8103132" lon="-118.3938671">
  <ele>-23.51</ele>
  <time>2026-09-02T22:07:51Z</time>
  <course>186.02</course>
  <speed>0.022360679774997897</speed>
  <fix>3d</fix>
</trkpt>
<trkpt lat="33.8103132" lon="-118.3938671">
  <ele>-23.55</ele>
  <time>2026-09-02T22:07:51Z</time>
  <course>186.02</course>
  <speed>0.022360679774997897</speed>
  <fix>3d</fix>
</trkpt>
<trkpt lat="33.810313" lon="-118.393867">
  <ele>-22.82</ele>
  <time>2026-09-02T22:07:51Z</time>
  <course>0.0</course>
  <speed>0.0</speed>
  <fix>3d</fix>
</trkpt>
<trkpt lat="33.8103132" lon="-118.3938671">
  <ele>-23.552</ele>
  <time>2026-09-02T22:07:51Z</time>
  <course>186.02</course>
  <speed>0.022360679774997897</speed>
  <fix>3d</fix>
</trkpt>
<trkpt lat="33.8103132" lon="-118.3938671">
  <ele>-23.614</ele>
  <time>2026-09-02T22:07:51Z</time>
  <course>186.02</course>
  <speed>0.022360679774997897</speed>
  <fix>3d</fix>
</trkpt>
<trkpt lat="33.810313" lon="-118.393867">
  <ele>-22.93</ele>
  <time>2026-09-02T22:07:51Z</time>
  <course>0.0</course>
  <speed>0.0</speed>
  <fix>3d</fix>
</trkpt>
<trkpt lat="33.8103132" lon="-118.3938671">
  <ele>-23.635</ele>
  <time>2026-09-02T22:07:51Z</time>
  <course>186.02</course>
  <speed>0.022360679774997897</speed>
  <fix>3d</fix>
</trkpt>
<trkpt lat="33.8103132" lon="-118.3938671">
  <ele>-23.678</ele>
  <time>2026-09-02T22:07:51Z</time>
  <course>186.01</course>
  <speed>0.022360679774997897</speed>
  <fix>3d</fix>
</trkpt>
<trkpt lat="33.810313" lon="-118.393867">
  <ele>-22.93</ele>
  <time>2026-09-02T22:07:51Z</time>
  <course>0.0</course>
  <speed>0.0</speed>
  <fix>3d</fix>
</trkpt>
<trkpt lat="33.8103132" lon="-118.3938671">
  <ele>-23.701</ele>
  <time>2026-09-02T22:07:51Z</time>
  <course>186.01</course>
  <speed>0.022360679774997897</speed>
  <fix>3d</fix>
</trkpt>
<trkpt lat="33.8103132" lon="-118.3938671">
  <ele>-23.742</ele>
  <time>2026-09-02T22:07:51Z</time>
  <course>186.01</course>
  <speed>0.022360679774997897</speed>
  <fix>3d</fix>
</trkpt>
<trkpt lat="33.810313" lon="-118.393867">
  <ele>-23.06</ele>
  <time>2026-09-02T22:07:51Z</time>
  <course>0.0</course>
  <speed>0.0</speed>
  <fix>3d</fix>
</trkpt>
<trkpt lat="33.8103132" lon="-118.3938671">
  <ele>-23.763</ele>
  <time>2026-09-02T22:07:51Z</time>
  <course>186.01</course>
  <speed>0.022360679774997897</speed>
  <fix>3d</fix>
</trkpt>
<trkpt lat="33.8103132" lon="-118.3938671">
  <ele>-23.805</ele>
  <time>2026-09-02T22:07:51Z</time>
  <course>186.0</course>
  <speed>0.022360679774997897</speed>
  <fix>3d</fix>
</trkpt>
<trkpt lat="33.810313" lon="-118.393867">
  <ele>-23.06</ele>
  <time>2026-09-02T22:07:51Z</time>
  <course>0.0</course>
  <speed>0.0</speed>
  <fix>3d</fix>
</trkpt>
<trkpt lat="33.8103132" lon="-118.3938671">
  <ele>-23.807</ele>
  <time>2026-09-02T22:07:51Z</time>
  <course>186.0</course>
  <speed>0.022360679774997897</speed>
  <fix>3d</fix>
</trkpt>
<trkpt lat="33.8103132" lon="-118.3938671">
  <ele>-23.868</ele>
  <time>2026-09-02T22:07:51Z</time>
  <course>186.0</course>
  <speed>0.022360679774997897</speed>
  <fix>3d</fix>
</trkpt>
<trkpt lat="33.810313" lon="-118.393867">
  <ele>-23.18</ele>
  <time>2026-09-02T22:07:51Z</time>
  <course>0.0</course>
  <speed>0.0</speed>
  <fix>3d</fix>
</trkpt>
<trkpt lat="33.8103132" lon="-118.3938671">
  <ele>-23.889</ele>
  <time>2026-09-02T22:07:51Z</time>
  <course>186.0</course>
  <speed>0.022360679774997897</speed>
  <fix>3d</fix>
</trkpt>
<trkpt lat="33.8103132" lon="-118.3938671">
  <ele>-23.931</ele>
  <time>2026-09-02T22:07:51Z</time>
  <course>186.0</course>
  <speed>0.022360679774997897</speed>
  <fix>3d</fix>
</trkpt>
<trkpt lat="33.810313" lon="-118.393867">
  <ele>-23.18</ele>
  <time>2026-09-02T22:07:51Z</time>
  <course>0.0</course>
  <speed>0.0</speed>
  <fix>3d</fix>
</trkpt>
<trkpt lat="33.8103132" lon="-118.3938671">
  <ele>-23.952</ele>
  <time>2026-09-02T22:07:51Z</time>
  <course>185.99</course>
  <speed>0.022360679774997897</speed>
  <fix>3d</fix>
</trkpt>
<trkpt lat="33.8103132" lon="-118.3938671">
  <ele>-23.992</ele>
  <time>2026-09-02T22:07:51Z</time>
  <course>185.99</course>
  <speed>0.022360679774997897</speed>
  <fix>3d</fix>
</trkpt>
<trkpt lat="33.810313" lon="-118.393867">
  <ele>-23.3</ele>
  <time>2026-09-02T22:07:51Z</time>
  <course>0.0</course>
  <speed>0.0</speed>
  <fix>3d</fix>
</trkpt>
<trkpt lat="33.8103132" lon="-118.3938671">
  <ele>-24.011</ele>
  <time>2026-09-02T22:07:51Z</time>
  <course>185.99</course>
  <speed>0.022360679774997897</speed>
  <fix>3d</fix>
</trkpt>
<trkpt lat="33.8103132" lon="-118.3938671">
  <ele>-24.054</ele>
  <time>2026-09-02T22:07:51Z</time>
  <course>185.99</course>
  <speed>0.022360679774997897</speed>
  <fix>3d</fix>
</trkpt>
<trkpt lat="33.810313" lon="-118.393867">
  <ele>-23.3</ele>
  <time>2026-09-02T22:07:51Z</time>
  <course>0.0</course>
  <speed>0.0</speed>
  <fix>3d</fix>
</trkpt>
<trkpt lat="33.8103132" lon="-118.3938671">
  <ele>-24.08</ele>
  <time>2026-09-02T22:07:51Z</time>
  <course>185.99</course>
  <speed>0.022360679774997897</speed>
  <fix>3d</fix>
</trkpt>
<trkpt lat="33.8103132" lon="-118.3938671">
  <ele>-24.117</ele>
  <time>2026-09-02T22:07:51Z</time>
  <course>185.98</course>
  <speed>0.022360679774997897</speed>
  <fix>3d</fix>
</trkpt>
<trkpt lat="33.810313" lon="-118.393867">
  <ele>-23.42</ele>
  <time>2026-09-02T22:07:51Z</time>
  <course>0.0</course>
  <speed>0.0</speed>
  <fix>3d</fix>
</trkpt>
<trkpt lat="33.8103132" lon="-118.3938671">
  <ele>-24.136</ele>
  <time>2026-09-02T22:07:51Z</time>
  <course>185.98</course>
  <speed>0.022360679774997897</speed>
  <fix>3d</fix>
</trkpt>
<trkpt lat="33.8103132" lon="-118.3938671">
  <ele>-24.18</ele>
  <time>2026-09-02T22:07:51Z</time>
  <course>185.98</course>
  <speed>0.022360679774997897</speed>
  <fix>3d</fix>
</trkpt>
<trkpt lat="33.810313" lon="-118.393867">
  <ele>-23.42</ele>
  <time>2026-09-02T22:07:51Z</time>
  <course>0.0</course>
  <speed>0.0</speed>
  <fix>3d</fix>
</trkpt>
<trkpt lat="33.8103132" lon="-118.3938671">
  <ele>-24.203</ele>
  <time>2026-09-02T22:07:51Z</time>
  <course>185.98</course>
  <speed>0.022360679774997897</speed>
  <fix>3d</fix>
</trkpt>
<trkpt lat="33.8103132" lon="-118.3938671">
  <ele>-24.244</ele>
  <time>2026-09-02T22:07:51Z</time>
  <course>185.97</course>
  <speed>0.022360679774997897</speed>
  <fix>3d</fix>
</trkpt>
<trkpt lat="33.810313" lon="-118.393867">
  <ele>-23.54</ele>
  <time>2026-09-02T22:07:51Z</time>
  <course>0.0</course>
  <speed>0.0</speed>
  <fix>3d</fix>
</trkpt>
<trkpt lat="33.8103132" lon="-118.3938671">
  <ele>-24.266</ele>
  <time>2026-09-02T22:07:51Z</time>
  <course>185.97</course>
  <speed>0.022360679774997897</speed>
  <fix>3d</fix>
</trkpt>
<trkpt lat="33.8103132" lon="-118.3938671">
  <ele>-24.307</ele>
  <time>2026-09-02T22:07:51Z</time>
  <course>185.97</course>
  <speed>0.022360679774997897</speed>
  <fix>3d</fix>
</trkpt>
<trkpt lat="33.810313" lon="-118.393867">
  <ele>-23.54</ele>
  <time>2026-09-02T22:07:51Z</time>
  <course>0.0</course>
  <speed>0.0</speed>
  <fix>3d</fix>
</trkpt>
<trkpt lat="33.8103132" lon="-118.3938671">
  <ele>-24.308</ele>
  <time>2026-09-02T22:07:51Z</time>
  <course>185.97</course>
  <speed>0.022360679774997897</speed>
  <fix>3d</fix>
</trkpt>
<trkpt lat="33.8103132" lon="-118.3938671">
  <ele>-24.369</ele>
  <time>2026-09-02T22:07:51Z</time>
  <course>185.97</course>
  <speed>0.022360679774997897</speed>
  <fix>3d</fix>
</trkpt>
<trkpt lat="33.810313" lon="-118.393867">
  <ele>-23.66</ele>
  <time>2026-09-02T22:07:51Z</time>
  <course>0.0</course>
  <speed>0.0</speed>
  <fix>3d</fix>
</trkpt>
<trkpt lat="33.8103132" lon="-118.3938671">
  <ele>-24.371</ele>
  <time>2026-09-02T22:07:51Z</time>
  <course>185.97</course>
  <speed>0.022360679774997897</speed>
  <fix>3d</fix>
</trkpt>
<trkpt lat="33.8103132" lon="-118.3938671">
  <ele>-24.432</ele>
  <time>2026-09-02T22:07:51Z</time>
  <course>185.96</course>
  <speed>0.022360679774997897</speed>
  <fix>3d</fix>
</trkpt>
<trkpt lat="33.810313" lon="-118.393867">
  <ele>-23.66</ele>
  <time>2026-09-02T22:07:51Z</time>
  <course>0.0</course>
  <speed>0.0</speed>
  <fix>3d</fix>
</trkpt>
<trkpt lat="33.8103132" lon="-118.3938671">
  <ele>-24.452</ele>
  <time>2026-09-02T22:07:51Z</time>
  <course>185.96</course>
  <speed>0.022360679774997897</speed>
  <fix>3d</fix>
</trkpt>
<trkpt lat="33.8103132" lon="-118.3938671">
  <ele>-24.494</ele>
  <time>2026-09-02T22:07:51Z</time>
  <course>185.96</course>
  <speed>0.022360679774997897</speed>
  <fix>3d</fix>
</trkpt>
<trkpt lat="33.810313" lon="-118.393867">
  <ele>-23.77</ele>
  <time>2026-09-02T22:07:51Z</time>
  <course>0.0</course>
  <speed>0.0</speed>
  <fix>3d</fix>
</trkpt>
<trkpt lat="33.8103132" lon="-118.3938671">
  <ele>-24.496</ele>
  <time>2026-09-02T22:07:51Z</time>
  <course>185.96</course>
  <speed>0.022360679774997897</speed>
  <fix>3d</fix>
</trkpt>
<trkpt lat="33.8103132" lon="-118.3938671">
  <ele>-24.557</ele>
  <time>2026-09-02T22:07:51Z</time>
  <course>185.95</course>
  <speed>0.022360679774997897</speed>
  <fix>3d</fix>
</trkpt>
<trkpt lat="33.810313" lon="-118.393867">
  <ele>-23.77</ele>
  <time>2026-09-02T22:07:51Z</time>
  <course>0.0</course>
  <speed>0.0</speed>
  <fix>3d</fix>
</trkpt>
<trkpt lat="33.8103132" lon="-118.3938671">
  <ele>-24.576</ele>
  <time>2026-09-02T22:07:51Z</time>
  <course>185.95</course>
  <speed>0.022360679774997897</speed>
  <fix>3d</fix>
</trkpt>
<trkpt lat="33.8103132" lon="-118.3938671">
  <ele>-24.619</ele>
  <time>2026-09-02T22:07:51Z</time>
  <course>185.95</course>
  <speed>0.022360679774997897</speed>
  <fix>3d</fix>
</trkpt>
<trkpt lat="33.810313" lon="-118.393867">
  <ele>-23.9</ele>
  <time>2026-09-02T22:07:51Z</time>
  <course>0.0</course>
  <speed>0.0</speed>
  <fix>3d</fix>
</trkpt>
<trkpt lat="33.8103132" lon="-118.3938671">
  <ele>-24.639</ele>
  <time>2026-09-02T22:07:51Z</time>
  <course>185.95</course>
  <speed>0.022360679774997897</speed>
  <fix>3d</fix>
</trkpt>
<trkpt lat="33.8103132" lon="-118.3938671">
  <ele>-24.681</ele>
  <time>2026-09-02T22:07:51Z</time>
  <course>185.95</course>
  <speed>0.022360679774997897</speed>
  <fix>3d</fix>
</trkpt>
<trkpt lat="33.810313" lon="-118.393867">
  <ele>-23.9</ele>
  <time>2026-09-02T22:07:51Z</time>
  <course>0.0</course>
  <speed>0.0</speed>
  <fix>3d</fix>
</trkpt>
<trkpt lat="33.8103132" lon="-118.3938671">
  <ele>-24.703</ele>
  <time>2026-09-02T22:07:51Z</time>
  <course>185.94</course>
  <speed>0.022360679774997897</speed>
  <fix>3d</fix>
</trkpt>
<trkpt lat="33.8103132" lon="-118.3938671">
  <ele>-24.743</ele>
  <time>2026-09-02T22:07:51Z</time>
  <course>185.94</course>
  <speed>0.022360679774997897</speed>
  <fix>3d</fix>
</trkpt>
<trkpt lat="33.810313" lon="-118.393867">
  <ele>-24.02</ele>
  <time>2026-09-02T22:07:51Z</time>
  <course>0.0</course>
  <speed>0.0</speed>
  <fix>3d</fix>
</trkpt>
<trkpt lat="33.8103132" lon="-118.3938671">
  <ele>-24.763</ele>
  <time>2026-09-02T22:07:51Z</time>
  <course>185.94</course>
  <speed>0.022360679774997897</speed>
  <fix>3d</fix>
</trkpt>
<trkpt lat="33.8103132" lon="-118.3938671">
  <ele>-24.805</ele>
  <time>2026-09-02T22:07:51Z</time>
  <course>185.94</course>
  <speed>0.022360679774997897</speed>
  <fix>3d</fix>
</trkpt>
<trkpt lat="33.810313" lon="-118.393867">
  <ele>-24.02</ele>
  <time>2026-09-02T22:07:51Z</time>
  <course>0.0</course>
  <speed>0.0</speed>
  <fix>3d</fix>
</trkpt>
<trkpt lat="33.8103132" lon="-118.3938671">
  <ele>-24.827</ele>
  <time>2026-09-02T22:07:51Z</time>
  <course>185.94</course>
  <speed>0.022360679774997897</speed>
  <fix>3d</fix>
</trkpt>
<trkpt lat="33.8103132" lon="-118.3938671">
  <ele>-24.867</ele>
  <time>2026-09-02T22:07:51Z</time>
  <course>185.93</course>
  <speed>0.022360679774997897</speed>
  <fix>3d</fix>
</trkpt>
<trkpt lat="33.810313" lon="-118.393867">
  <ele>-24.15</ele>
  <time>2026-09-02T22:07:51Z</time>
  <course>0.0</course>
  <speed>0.0</speed>
  <fix>3d</fix>
</trkpt>
<trkpt lat="33.8103132" lon="-118.3938671">
  <ele>-24.888</ele>
  <time>2026-09-02T22:07:51Z</time>
  <course>185.93</course>
  <speed>0.022360679774997897</speed>
  <fix>3d</fix>
</trkpt>
<trkpt lat="33.8103132" lon="-118.3938671">
  <ele>-24.93</ele>
  <time>2026-09-02T22:07:51Z</time>
  <course>185.93</course>
  <speed>0.022360679774997897</speed>
  <fix>3d</fix>
</trkpt>
<trkpt lat="33.810313" lon="-118.393867">
  <ele>-24.15</ele>
  <time>2026-09-02T22:07:51Z</time>
  <course>0.0</course>
  <speed>0.0</speed>
  <fix>3d</fix>
</trkpt>
<trkpt lat="33.8103132" lon="-118.3938671">
  <ele>-24.947</ele>
  <time>2026-09-02T22:07:51Z</time>
  <course>185.93</course>
  <speed>0.022360679774997897</speed>
  <fix>3d</fix>
</trkpt>
<trkpt lat="33.8103132" lon="-118.3938671">
  <ele>-24.992</ele>
  <time>2026-09-02T22:07:51Z</time>
  <course>185.92</course>
  <speed>0.022360679774997897</speed>
  <fix>3d</fix>
</trkpt>
<trkpt lat="33.810313" lon="-118.393867">
  <ele>-24.27</ele>
  <time>2026-09-02T22:07:51Z</time>
  <course>0.0</course>
  <speed>0.0</speed>
  <fix>3d</fix>
</trkpt>
<trkpt lat="33.8103132" lon="-118.3938671">
  <ele>-25.013</ele>
  <time>2026-09-02T22:07:51Z</time>
  <course>185.92</course>
  <speed>0.022360679774997897</speed>
  <fix>3d</fix>
</trkpt>
<trkpt lat="33.8103132" lon="-118.3938671">
  <ele>-25.053</ele>
  <time>2026-09-02T22:07:51Z</time>
  <course>185.92</course>
  <speed>0.022360679774997897</speed>
  <fix>3d</fix>
</trkpt>
<trkpt lat="33.810313" lon="-118.393867">
  <ele>-24.27</ele>
  <time>2026-09-02T22:07:51Z</time>
  <course>0.0</course>
  <speed>0.0</speed>
  <fix>3d</fix>
</trkpt>
<trkpt lat="33.8103132" lon="-118.3938671">
  <ele>-25.072</ele>
  <time>2026-09-02T22:07:51Z</time>
  <course>185.92</course>
  <speed>0.022360679774997897</speed>
  <fix>3d</fix>
</trkpt>
<trkpt lat="33.8103132" lon="-118.3938671">
  <ele>-25.115</ele>
  <time>2026-09-02T22:07:51Z</time>
  <course>185.92</course>
  <speed>0.022360679774997897</speed>
  <fix>3d</fix>
</trkpt>
<trkpt lat="33.810313" lon="-118.393867">
  <ele>-24.39</ele>
  <time>2026-09-02T22:07:51Z</time>
  <course>0.0</course>
  <speed>0.0</speed>
  <fix>3d</fix>
</trkpt>
<trkpt lat="33.8103132" lon="-118.3938671">
  <ele>-25.135</ele>
  <time>2026-09-02T22:07:51Z</time>
  <course>185.91</course>
  <speed>0.022360679774997897</speed>
  <fix>3d</fix>
</trkpt>
<trkpt lat="33.8103132" lon="-118.3938671">
  <ele>-25.177</ele>
  <time>2026-09-02T22:07:51Z</time>
  <course>185.91</course>
  <speed>0.022360679774997897</speed>
  <fix>3d</fix>
</trkpt>
<trkpt lat="33.810313" lon="-118.393867">
  <ele>-24.39</ele>
  <time>2026-09-02T22:07:51Z</time>
  <course>0.0</course>
  <speed>0.0</speed>
  <fix>3d</fix>
</trkpt>
<trkpt lat="33.8103132" lon="-118.3938671">
  <ele>-25.178</ele>
  <time>2026-09-02T22:07:51Z</time>
  <course>185.91</course>
  <speed>0.022360679774997897</speed>
  <fix>3d</fix>
</trkpt>
<trkpt lat="33.8103132" lon="-118.3938671">
  <ele>-25.238</ele>
  <time>2026-09-02T22:07:51Z</time>
  <course>185.91</course>
  <speed>0.022360679774997897</speed>
  <fix>3d</fix>
</trkpt>
<trkpt lat="33.810313" lon="-118.393867">
  <ele>-24.51</ele>
  <time>2026-09-02T22:07:51Z</time>
  <course>0.0</course>
  <speed>0.0</speed>
  <fix>3d</fix>
</trkpt>
<trkpt lat="33.8103132" lon="-118.3938671">
  <ele>-25.257</ele>
  <time>2026-09-02T22:07:51Z</time>
  <course>185.91</course>
  <speed>0.022360679774997897</speed>
  <fix>3d</fix>
</trkpt>
<trkpt lat="33.8103132" lon="-118.3938671">
  <ele>-25.3</ele>
  <time>2026-09-02T22:07:51Z</time>
  <course>185.9</course>
  <speed>0.022360679774997897</speed>
  <fix>3d</fix>
</trkpt>
<trkpt lat="33.810313" lon="-118.393867">
  <ele>-24.51</ele>
  <time>2026-09-02T22:07:51Z</time>
  <course>0.0</course>
  <speed>0.0</speed>
  <fix>3d</fix>
</trkpt>
<trkpt lat="33.8103132" lon="-118.3938671">
  <ele>-25.319</ele>
  <time>2026-09-02T22:07:51Z</time>
  <course>185.9</course>
  <speed>0.022360679774997897</speed>
  <fix>3d</fix>
</trkpt>
<trkpt lat="33.8103132" lon="-118.3938671">
  <ele>-25.363</ele>
  <time>2026-09-02T22:07:51Z</time>
  <course>185.9</course>
  <speed>0.022360679774997897</speed>
  <fix>3d</fix>
</trkpt>
<trkpt lat="33.810313" lon="-118.393867">
  <ele>-24.63</ele>
  <time>2026-09-02T22:07:51Z</time>
  <course>0.0</course>
  <speed>0.0</speed>
  <fix>3d</fix>
</trkpt>
<trkpt lat="33.8103132" lon="-118.3938671">
  <ele>-25.385</ele>
  <time>2026-09-02T22:07:51Z</time>
  <course>185.9</course>
  <speed>0.022360679774997897</speed>
  <fix>3d</fix>
</trkpt>
<trkpt lat="33.8103132" lon="-118.3938671">
  <ele>-25.426</ele>
  <time>2026-09-02T22:07:51Z</time>
  <course>185.9</course>
  <speed>0.022360679774997897</speed>
  <fix>3d</fix>
</trkpt>
<trkpt lat="33.810313" lon="-118.393867">
  <ele>-24.63</ele>
  <time>2026-09-02T22:07:51Z</time>
  <course>0.0</course>
  <speed>0.0</speed>
  <fix>3d</fix>
</trkpt>
<trkpt lat="33.8103132" lon="-118.3938671">
  <ele>-25.446</ele>
  <time>2026-09-02T22:07:51Z</time>
  <course>185.89</course>
  <speed>0.022360679774997897</speed>
  <fix>3d</fix>
</trkpt>
<trkpt lat="33.8103132" lon="-118.3938671">
  <ele>-25.489</ele>
  <time>2026-09-02T22:07:51Z</time>
  <course>185.89</course>
  <speed>0.022360679774997897</speed>
  <fix>3d</fix>
</trkpt>
<trkpt lat="33.810313" lon="-118.393867">
  <ele>-24.75</ele>
  <time>2026-09-02T22:07:51Z</time>
  <course>0.0</course>
  <speed>0.0</speed>
  <fix>3d</fix>
</trkpt>
<trkpt lat="33.8103132" lon="-118.3938671">
  <ele>-25.51</ele>
  <time>2026-09-02T22:07:51Z</time>
  <course>185.89</course>
  <speed>0.022360679774997897</speed>
  <fix>3d</fix>
</trkpt>
<trkpt lat="33.8103132" lon="-118.3938671">
  <ele>-25.552</ele>
  <time>2026-09-02T22:07:51Z</time>
  <course>185.89</course>
  <speed>0.022360679774997897</speed>
  <fix>3d</fix>
</trkpt>
<trkpt lat="33.810313" lon="-118.393867">
  <ele>-24.75</ele>
  <time>2026-09-02T22:07:51Z</time>
  <course>0.0</course>
  <speed>0.0</speed>
  <fix>3d</fix>
</trkpt>
<trkpt lat="33.8103132" lon="-118.3938671">
  <ele>-25.572</ele>
  <time>2026-09-02T22:07:51Z</time>
  <course>185.89</course>
  <speed>0.022360679774997897</speed>
  <fix>3d</fix>
</trkpt>
<trkpt lat="33.8103132" lon="-118.3938671">
  <ele>-25.614</ele>
  <time>2026-09-02T22:07:51Z</time>
  <course>185.88</course>
  <speed>0.022360679774997897</speed>
  <fix>3d</fix>
</trkpt>
<trkpt lat="33.810313" lon="-118.393867">
  <ele>-24.86</ele>
  <time>2026-09-02T22:07:51Z</time>
  <course>0.0</course>
  <speed>0.0</speed>
  <fix>3d</fix>
</trkpt>
<trkpt lat="33.8103132" lon="-118.3938671">
  <ele>-25.634</ele>
  <time>2026-09-02T22:07:51Z</time>
  <course>185.88</course>
  <speed>0.022360679774997897</speed>
  <fix>3d</fix>
</trkpt>
<trkpt lat="33.8103132" lon="-118.3938671">
  <ele>-25.675</ele>
  <time>2026-09-02T22:07:51Z</time>
  <course>185.88</course>
  <speed>0.022360679774997897</speed>
  <fix>3d</fix>
</trkpt>
<trkpt lat="33.810313" lon="-118.393867">
  <ele>-24.86</ele>
  <time>2026-09-02T22:07:51Z</time>
  <course>0.0</course>
  <speed>0.0</speed>
  <fix>3d</fix>
</trkpt>
<trkpt lat="33.8103132" lon="-118.3938671">
  <ele>-25.696</ele>
  <time>2026-09-02T22:07:51Z</time>
  <course>185.88</course>
  <speed>0.022360679774997897</speed>
  <fix>3d</fix>
</trkpt>
<trkpt lat="33.8103132" lon="-118.3938671">
  <ele>-25.736</ele>
  <time>2026-09-02T22:07:51Z</time>
  <course>185.87</course>
  <speed>0.022360679774997897</speed>
  <fix>3d</fix>
</trkpt>
<trkpt lat="33.810313" lon="-118.393867">
  <ele>-24.99</ele>
  <time>2026-09-02T22:07:51Z</time>
  <course>0.0</course>
  <speed>0.0</speed>
  <fix>3d</fix>
</trkpt>
<trkpt lat="33.8103132" lon="-118.3938671">
  <ele>-25.756</ele>
  <time>2026-09-02T22:07:51Z</time>
  <course>185.87</course>
  <speed>0.022360679774997897</speed>
  <fix>3d</fix>
</trkpt>
<trkpt lat="33.8103132" lon="-118.3938671">
  <ele>-25.798</ele>
  <time>2026-09-02T22:07:51Z</time>
  <course>185.87</course>
  <speed>0.022360679774997897</speed>
  <fix>3d</fix>
</trkpt>
<trkpt lat="33.810313" lon="-118.393867">
  <ele>-24.99</ele>
  <time>2026-09-02T22:07:51Z</time>
  <course>0.0</course>
  <speed>0.0</speed>
  <fix>3d</fix>
</trkpt>
<trkpt lat="33.8103132" lon="-118.3938671">
  <ele>-25.82</ele>
  <time>2026-09-02T22:07:51Z</time>
  <course>185.87</course>
  <speed>0.022360679774997897</speed>
  <fix>3d</fix>
</trkpt>
<trkpt lat="33.8103132" lon="-118.3938671">
  <ele>-25.861</ele>
  <time>2026-09-02T22:07:51Z</time>
  <course>185.87</course>
  <speed>0.022360679774997897</speed>
  <fix>3d</fix>
</trkpt>
<trkpt lat="33.810313" lon="-118.393867">
  <ele>-25.11</ele>
  <time>2026-09-02T22:07:51Z</time>
  <course>0.0</course>
  <speed>0.0</speed>
  <fix>3d</fix>
</trkpt>
<trkpt lat="33.8103132" lon="-118.3938671">
  <ele>-25.864</ele>
  <time>2026-09-02T22:07:51Z</time>
  <course>185.87</course>
  <speed>0.022360679774997897</speed>
  <fix>3d</fix>
</trkpt>
<trkpt lat="33.8103132" lon="-118.3938671">
  <ele>-25.923</ele>
  <time>2026-09-02T22:07:51Z</time>
  <course>185.86</course>
  <speed>0.022360679774997897</speed>
  <fix>3d</fix>
</trkpt>
<trkpt lat="33.810313" lon="-118.393867">
  <ele>-25.11</ele>
  <time>2026-09-02T22:07:51Z</time>
  <course>0.0</course>
  <speed>0.0</speed>
  <fix>3d</fix>
</trkpt>
<trkpt lat="33.8103132" lon="-118.3938671">
  <ele>-25.924</ele>
  <time>2026-09-02T22:07:51Z</time>
  <course>185.86</course>
  <speed>0.022360679774997897</speed>
  <fix>3d</fix>
</trkpt>
<trkpt lat="33.8103132" lon="-118.3938671">
  <ele>-25.986</ele>
  <time>2026-09-02T22:07:51Z</time>
  <course>185.86</course>
  <speed>0.022360679774997897</speed>
  <fix>3d</fix>
</trkpt>
<trkpt lat="33.810313" lon="-118.393867">
  <ele>-25.23</ele>
  <time>2026-09-02T22:07:51Z</time>
  <course>0.0</course>
  <speed>0.0</speed>
  <fix>3d</fix>
</trkpt>
<trkpt lat="33.8103132" lon="-118.3938671">
  <ele>-25.987</ele>
  <time>2026-09-02T22:07:51Z</time>
  <course>185.86</course>
  <speed>0.022360679774997897</speed>
  <fix>3d</fix>
</trkpt>
<trkpt lat="33.8103132" lon="-118.3938671">
  <ele>-26.048</ele>
  <time>2026-09-02T22:07:51Z</time>
  <course>185.85</course>
  <speed>0.022360679774997897</speed>
  <fix>3d</fix>
</trkpt>
<trkpt lat="33.810313" lon="-118.393867">
  <ele>-25.23</ele>
  <time>2026-09-02T22:07:51Z</time>
  <course>0.0</course>
  <speed>0.0</speed>
  <fix>3d</fix>
</trkpt>
<trkpt lat="33.8103132" lon="-118.3938671">
  <ele>-26.067</ele>
  <time>2026-09-02T22:07:51Z</time>
  <course>185.85</course>
  <speed>0.022360679774997897</speed>
  <fix>3d</fix>
</trkpt>
<trkpt lat="33.8103132" lon="-118.3938671">
  <ele>-26.109</ele>
  <time>2026-09-02T22:07:51Z</time>
  <course>185.85</course>
  <speed>0.022360679774997897</speed>
  <fix>3d</fix>
</trkpt>
<trkpt lat="33.810313" lon="-118.393867">
  <ele>-25.35</ele>
  <time>2026-09-02T22:07:51Z</time>
  <course>0.0</course>
  <speed>0.0</speed>
  <fix>3d</fix>
</trkpt>
<trkpt lat="33.8103132" lon="-118.3938671">
  <ele>-26.128</ele>
  <time>2026-09-02T22:07:51Z</time>
  <course>185.85</course>
  <speed>0.022360679774997897</speed>
  <fix>3d</fix>
</trkpt>
<trkpt lat="33.8103132" lon="-118.3938671">
  <ele>-26.171</ele>
  <time>2026-09-02T22:07:51Z</time>
  <course>185.85</course>
  <speed>0.022360679774997897</speed>
  <fix>3d</fix>
</trkpt>
<trkpt lat="33.810313" lon="-118.393867">
  <ele>-25.35</ele>
  <time>2026-09-02T22:07:51Z</time>
  <course>0.0</course>
  <speed>0.0</speed>
  <fix>3d</fix>
</trkpt>
<trkpt lat="33.8103132" lon="-118.3938671">
  <ele>-26.192</ele>
  <time>2026-09-02T22:07:51Z</time>
  <course>185.84</course>
  <speed>0.022360679774997897</speed>
  <fix>3d</fix>
</trkpt>
<trkpt lat="33.8103132" lon="-118.3938671">
  <ele>-26.234</ele>
  <time>2026-09-02T22:07:51Z</time>
  <course>185.84</course>
  <speed>0.022360679774997897</speed>
  <fix>3d</fix>
</trkpt>
<trkpt lat="33.810313" lon="-118.393867">
  <ele>-25.47</ele>
  <time>2026-09-02T22:07:51Z</time>
  <course>0.0</course>
  <speed>0.0</speed>
  <fix>3d</fix>
</trkpt>
<trkpt lat="33.8103132" lon="-118.3938671">
  <ele>-26.235</ele>
  <time>2026-09-02T22:07:51Z</time>
  <course>185.84</course>
  <speed>0.022360679774997897</speed>
  <fix>3d</fix>
</trkpt>
<trkpt lat="33.8103132" lon="-118.3938671">
  <ele>-26.295</ele>
  <time>2026-09-02T22:07:51Z</time>
  <course>185.84</course>
  <speed>0.022360679774997897</speed>
  <fix>3d</fix>
</trkpt>
<trkpt lat="33.810313" lon="-118.393867">
  <ele>-25.47</ele>
  <time>2026-09-02T22:07:51Z</time>
  <course>0.0</course>
  <speed>0.0</speed>
  <fix>3d</fix>
</trkpt>
<trkpt lat="33.8103132" lon="-118.3938671">
  <ele>-26.317</ele>
  <time>2026-09-02T22:07:51Z</time>
  <course>185.84</course>
  <speed>0.022360679774997897</speed>
  <fix>3d</fix>
</trkpt>
<trkpt lat="33.8103132" lon="-118.3938671">
  <ele>-26.356</ele>
  <time>2026-09-02T22:07:51Z</time>
  <course>185.83</course>
  <speed>0.022360679774997897</speed>
  <fix>3d</fix>
</trkpt>
<trkpt lat="33.810313" lon="-118.393867">
  <ele>-25.59</ele>
  <time>2026-09-02T22:07:51Z</time>
  <course>0.0</course>
  <speed>0.0</speed>
  <fix>3d</fix>
</trkpt>
<trkpt lat="33.8103132" lon="-118.3938671">
  <ele>-26.376</ele>
  <time>2026-09-02T22:07:51Z</time>
  <course>185.83</course>
  <speed>0.022360679774997897</speed>
  <fix>3d</fix>
</trkpt>
<trkpt lat="33.8103132" lon="-118.3938671">
  <ele>-26.417</ele>
  <time>2026-09-02T22:07:51Z</time>
  <course>185.83</course>
  <speed>0.022360679774997897</speed>
  <fix>3d</fix>
</trkpt>
<trkpt lat="33.810313" lon="-118.393867">
  <ele>-25.59</ele>
  <time>2026-09-02T22:07:51Z</time>
  <course>0.0</course>
  <speed>0.0</speed>
  <fix>3d</fix>
</trkpt>
<trkpt lat="33.8103132" lon="-118.3938671">
  <ele>-26.438</ele>
  <time>2026-09-02T22:07:51Z</time>
  <course>185.83</course>
  <speed>0.022360679774997897</speed>
  <fix>3d</fix>
</trkpt>
<trkpt lat="33.8103132" lon="-118.3938671">
  <ele>-26.478</ele>
  <time>2026-09-02T22:07:51Z</time>
  <course>185.83</course>
  <speed>0.022360679774997897</speed>
  <fix>3d</fix>
</trkpt>
<trkpt lat="33.810313" lon="-118.393867">
  <ele>-25.71</ele>
  <time>2026-09-02T22:07:51Z</time>
  <course>0.0</course>
  <speed>0.0</speed>
  <fix>3d</fix>
</trkpt>
<trkpt lat="33.8103132" lon="-118.3938671">
  <ele>-26.497</ele>
  <time>2026-09-02T22:07:51Z</time>
  <course>185.82</course>
  <speed>0.022360679774997897</speed>
  <fix>3d</fix>
</trkpt>
<trkpt lat="33.8103132" lon="-118.3938671">
  <ele>-26.539</ele>
  <time>2026-09-02T22:07:51Z</time>
  <course>185.82</course>
  <speed>0.022360679774997897</speed>
  <fix>3d</fix>
</trkpt>
<trkpt lat="33.810313" lon="-118.393867">
  <ele>-25.71</ele>
  <time>2026-09-02T22:07:51Z</time>
  <course>0.0</course>
  <speed>0.0</speed>
  <fix>3d</fix>
</trkpt>
<trkpt lat="33.8103132" lon="-118.3938671">
  <ele>-26.54</ele>
  <time>2026-09-02T22:07:51Z</time>
  <course>185.82</course>
  <speed>0.022360679774997897</speed>
  <fix>3d</fix>
</trkpt>
<trkpt lat="33.8103132" lon="-118.3938671">
  <ele>-26.6</ele>
  <time>2026-09-02T22:07:51Z</time>
  <course>185.82</course>
  <speed>0.022360679774997897</speed>
  <fix>3d</fix>
</trkpt>
<trkpt lat="33.810313" lon="-118.393867">
  <ele>-25.84</ele>
  <time>2026-09-02T22:07:51Z</time>
  <course>0.0</course>
  <speed>0.0</speed>
  <fix>3d</fix>
</trkpt>
<trkpt lat="33.8103132" lon="-118.3938671">
  <ele>-26.603</ele>
  <time>2026-09-02T22:07:51Z</time>
  <course>185.82</course>
  <speed>0.022360679774997897</speed>
  <fix>3d</fix>
</trkpt>
<trkpt lat="33.8103132" lon="-118.3938671">
  <ele>-26.661</ele>
  <time>2026-09-02T22:07:51Z</time>
  <course>185.81</course>
  <speed>0.022360679774997897</speed>
  <fix>3d</fix>
</trkpt>
<trkpt lat="33.810313" lon="-118.393867">
  <ele>-25.84</ele>
  <time>2026-09-02T22:07:51Z</time>
  <course>0.0</course>
  <speed>0.0</speed>
  <fix>3d</fix>
</trkpt>
<trkpt lat="33.8103132" lon="-118.3938671">
  <ele>-26.68</ele>
  <time>2026-09-02T22:07:51Z</time>
  <course>185.81</course>
  <speed>0.022360679774997897</speed>
  <fix>3d</fix>
</trkpt>
<trkpt lat="33.8103132" lon="-118.3938671">
  <ele>-26.723</ele>
  <time>2026-09-02T22:07:51Z</time>
  <course>185.81</course>
  <speed>0.022360679774997897</speed>
  <fix>3d</fix>
</trkpt>
<trkpt lat="33.810313" lon="-118.393867">
  <ele>-25.96</ele>
  <time>2026-09-02T22:07:51Z</time>
  <course>0.0</course>
  <speed>0.0</speed>
  <fix>3d</fix>
</trkpt>
<trkpt lat="33.8103132" lon="-118.3938671">
  <ele>-26.741</ele>
  <time>2026-09-02T22:07:51Z</time>
  <course>185.81</course>
  <speed>0.022360679774997897</speed>
  <fix>3d</fix>
</trkpt>
<trkpt lat="33.8103132" lon="-118.3938671">
  <ele>-26.785</ele>
  <time>2026-09-02T22:07:51Z</time>
  <course>185.81</course>
  <speed>0.022360679774997897</speed>
  <fix>3d</fix>
</trkpt>
<trkpt lat="33.810313" lon="-118.393867">
  <ele>-25.96</ele>
  <time>2026-09-02T22:07:51Z</time>
  <course>0.0</course>
  <speed>0.0</speed>
  <fix>3d</fix>
</trkpt>
<trkpt lat="33.8103132" lon="-118.3938671">
  <ele>-26.805</ele>
  <time>2026-09-02T22:07:51Z</time>
  <course>185.8</course>
  <speed>0.022360679774997897</speed>
  <fix>3d</fix>
</trkpt>
<trkpt lat="33.8103132" lon="-118.3938671">
  <ele>-26.846</ele>
  <time>2026-09-02T22:07:51Z</time>
  <course>185.8</course>
  <speed>0.022360679774997897</speed>
  <fix>3d</fix>
</trkpt>
<trkpt lat="33.810313" lon="-118.393867">
  <ele>-26.08</ele>
  <time>2026-09-02T22:07:51Z</time>
  <course>0.0</course>
  <speed>0.0</speed>
  <fix>3d</fix>
</trkpt>
<trkpt lat="33.8103132" lon="-118.3938671">
  <ele>-26.848</ele>
  <time>2026-09-02T22:07:51Z</time>
  <course>185.8</course>
  <speed>0.022360679774997897</speed>
  <fix>3d</fix>
</trkpt>
<trkpt lat="33.8103132" lon="-118.3938671">
  <ele>-26.908</ele>
  <time>2026-09-02T22:07:51Z</time>
  <course>185.8</course>
  <speed>0.022360679774997897</speed>
  <fix>3d</fix>
</trkpt>
<trkpt lat="33.810313" lon="-118.393867">
  <ele>-26.08</ele>
  <time>2026-09-02T22:07:51Z</time>
  <course>0.0</course>
  <speed>0.0</speed>
  <fix>3d</fix>
</trkpt>
<trkpt lat="33.8103132" lon="-118.3938671">
  <ele>-26.928</ele>
  <time>2026-09-02T22:07:51Z</time>
  <course>185.8</course>
  <speed>0.022360679774997897</speed>
  <fix>3d</fix>
</trkpt>
<trkpt lat="33.8103132" lon="-118.3938671">
  <ele>-26.97</ele>
  <time>2026-09-02T22:07:51Z</time>
  <course>185.79</course>
  <speed>0.022360679774997897</speed>
  <fix>3d</fix>
</trkpt>
<trkpt lat="33.810313" lon="-118.393867">
  <ele>-26.2</ele>
  <time>2026-09-02T22:07:51Z</time>
  <course>0.0</course>
  <speed>0.0</speed>
  <fix>3d</fix>
</trkpt>
<trkpt lat="33.8103132" lon="-118.3938671">
  <ele>-26.99</ele>
  <time>2026-09-02T22:07:51Z</time>
  <course>185.79</course>
  <speed>0.022360679774997897</speed>
  <fix>3d</fix>
</trkpt>
<trkpt lat="33.8103132" lon="-118.3938671">
  <ele>-27.032</ele>
  <time>2026-09-02T22:07:51Z</time>
  <course>185.79</course>
  <speed>0.022360679774997897</speed>
  <fix>3d</fix>
</trkpt>
<trkpt lat="33.810313" lon="-118.393867">
  <ele>-26.2</ele>
  <time>2026-09-02T22:07:51Z</time>
  <course>0.0</course>
  <speed>0.0</speed>
  <fix>3d</fix>
</trkpt>
<trkpt lat="33.8103132" lon="-118.3938671">
  <ele>-27.054</ele>
  <time>2026-09-02T22:07:51Z</time>
  <course>185.79</course>
  <speed>0.022360679774997897</speed>
  <fix>3d</fix>
</trkpt>
<trkpt lat="33.8103132" lon="-118.3938671">
  <ele>-27.094</ele>
  <time>2026-09-02T22:07:51Z</time>
  <course>185.79</course>
  <speed>0.022360679774997897</speed>
  <fix>3d</fix>
</trkpt>
<trkpt lat="33.810313" lon="-118.393867">
  <ele>-26.32</ele>
  <time>2026-09-02T22:07:51Z</time>
  <course>0.0</course>
  <speed>0.0</speed>
  <fix>3d</fix>
</trkpt>
<trkpt lat="33.8103132" lon="-118.3938671">
  <ele>-27.113</ele>
  <time>2026-09-02T22:07:51Z</time>
  <course>185.78</course>
  <speed>0.022360679774997897</speed>
  <fix>3d</fix>
</trkpt>
<trkpt lat="33.8103132" lon="-118.3938671">
  <ele>-27.155</ele>
  <time>2026-09-02T22:07:51Z</time>
  <course>185.78</course>
  <speed>0.022360679774997897</speed>
  <fix>3d</fix>
</trkpt>
<trkpt lat="33.810313" lon="-118.393867">
  <ele>-26.32</ele>
  <time>2026-09-02T22:07:51Z</time>
  <course>0.0</course>
  <speed>0.0</speed>
  <fix>3d</fix>
</trkpt>
<trkpt lat="33.8103132" lon="-118.3938671">
  <ele>-27.157</ele>
  <time>2026-09-02T22:07:51Z</time>
  <course>185.78</course>
  <speed>0.022360679774997897</speed>
  <fix>3d</fix>
</trkpt>
<trkpt lat="33.8103132" lon="-118.3938671">
  <ele>-27.217</ele>
  <time>2026-09-02T22:07:51Z</time>
  <course>185.78</course>
  <speed>0.022360679774997897</speed>
  <fix>3d</fix>
</trkpt>
<trkpt lat="33.810313" lon="-118.393867">
  <ele>-26.43</ele>
  <time>2026-09-02T22:07:51Z</time>
  <course>0.0</course>
  <speed>0.0</speed>
  <fix>3d</fix>
</trkpt>
<trkpt lat="33.8103132" lon="-118.3938671">
  <ele>-27.219</ele>
  <time>2026-09-02T22:07:51Z</time>
  <course>185.78</course>
  <speed>0.022360679774997897</speed>
  <fix>3d</fix>
</trkpt>
<trkpt lat="33.8103132" lon="-118.3938671">
  <ele>-27.28</ele>
  <time>2026-09-02T22:07:51Z</time>
  <course>185.77</course>
  <speed>0.022360679774997897</speed>
  <fix>3d</fix>
</trkpt>
<trkpt lat="33.810313" lon="-118.393867">
  <ele>-26.43</ele>
  <time>2026-09-02T22:07:51Z</time>
  <course>0.0</course>
  <speed>0.0</speed>
  <fix>3d</fix>
</trkpt>
<trkpt lat="33.8103132" lon="-118.3938671">
  <ele>-27.3</ele>
  <time>2026-09-02T22:07:51Z</time>
  <course>185.77</course>
  <speed>0.022360679774997897</speed>
  <fix>3d</fix>
</trkpt>
<trkpt lat="33.8103132" lon="-118.3938671">
  <ele>-27.343</ele>
  <time>2026-09-02T22:07:51Z</time>
  <course>185.77</course>
  <speed>0.022360679774997897</speed>
  <fix>3d</fix>
</trkpt>
<trkpt lat="33.810313" lon="-118.393867">
  <ele>-26.56</ele>
  <time>2026-09-02T22:07:51Z</time>
  <course>0.0</course>
  <speed>0.0</speed>
  <fix>3d</fix>
</trkpt>
<trkpt lat="33.8103132" lon="-118.3938671">
  <ele>-27.344</ele>
  <time>2026-09-02T22:07:51Z</time>
  <course>185.77</course>
  <speed>0.022360679774997897</speed>
  <fix>3d</fix>
</trkpt>
<trkpt lat="33.8103132" lon="-118.3938671">
  <ele>-27.405</ele>
  <time>2026-09-02T22:07:51Z</time>
  <course>185.77</course>
  <speed>0.022360679774997897</speed>
  <fix>3d</fix>
</trkpt>
<trkpt lat="33.810313" lon="-118.393867">
  <ele>-26.56</ele>
  <time>2026-09-02T22:07:51Z</time>
  <course>0.0</course>
  <speed>0.0</speed>
  <fix>3d</fix>
</trkpt>
<trkpt lat="33.8103132" lon="-118.3938671">
  <ele>-27.406</ele>
  <time>2026-09-02T22:07:51Z</time>
  <course>185.77</course>
  <speed>0.022360679774997897</speed>
  <fix>3d</fix>
</trkpt>
<trkpt lat="33.8103132" lon="-118.3938671">
  <ele>-27.467</ele>
  <time>2026-09-02T22:07:51Z</time>
  <course>185.76</course>
  <speed>0.022360679774997897</speed>
  <fix>3d</fix>
</trkpt>
<trkpt lat="33.810313" lon="-118.393867">
  <ele>-26.68</ele>
  <time>2026-09-02T22:07:51Z</time>
  <course>0.0</course>
  <speed>0.0</speed>
  <fix>3d</fix>
</trkpt>
<trkpt lat="33.8103132" lon="-118.3938671">
  <ele>-27.469</ele>
  <time>2026-09-02T22:07:51Z</time>
  <course>185.76</course>
  <speed>0.022360679774997897</speed>
  <fix>3d</fix>
</trkpt>
<trkpt lat="33.8103132" lon="-118.3938671">
  <ele>-27.531</ele>
  <time>2026-09-02T22:07:51Z</time>
  <course>185.76</course>
  <speed>0.022360679774997897</speed>
  <fix>3d</fix>
</trkpt>
<trkpt lat="33.810313" lon="-118.393867">
  <ele>-26.68</ele>
  <time>2026-09-02T22:07:51Z</time>
  <course>0.0</course>
  <speed>0.0</speed>
  <fix>3d</fix>
</trkpt>
<trkpt lat="33.8103132" lon="-118.3938671">
  <ele>-27.55</ele>
  <time>2026-09-02T22:07:51Z</time>
  <course>185.76</course>
  <speed>0.022360679774997897</speed>
  <fix>3d</fix>
</trkpt>
<trkpt lat="33.8103132" lon="-118.3938671">
  <ele>-27.595</ele>
  <time>2026-09-02T22:07:51Z</time>
  <course>185.76</course>
  <speed>0.022360679774997897</speed>
  <fix>3d</fix>
</trkpt>
<trkpt lat="33.810313" lon="-118.393867">
  <ele>-26.8</ele>
  <time>2026-09-02T22:07:51Z</time>
  <course>0.0</course>
  <speed>0.0</speed>
  <fix>3d</fix>
</trkpt>
<trkpt lat="33.8103132" lon="-118.3938671">
  <ele>-27.617</ele>
  <time>2026-09-02T22:07:51Z</time>
  <course>185.76</course>
  <speed>0.022360679774997897</speed>
  <fix>3d</fix>
</trkpt>
<trkpt lat="33.8103132" lon="-118.3938671">
  <ele>-27.659</ele>
  <time>2026-09-02T22:07:51Z</time>
  <course>185.75</course>
  <speed>0.022360679774997897</speed>
  <fix>3d</fix>
</trkpt>
<trkpt lat="33.810313" lon="-118.393867">
  <ele>-26.8</ele>
  <time>2026-09-02T22:07:51Z</time>
  <course>0.0</course>
  <speed>0.0</speed>
  <fix>3d</fix>
</trkpt>
<trkpt lat="33.8103132" lon="-118.3938671">
  <ele>-27.679</ele>
  <time>2026-09-02T22:07:51Z</time>
  <course>185.75</course>
  <speed>0.022360679774997897</speed>
  <fix>3d</fix>
</trkpt>
<trkpt lat="33.8103132" lon="-118.3938671">
  <ele>-27.722</ele>
  <time>2026-09-02T22:07:51Z</time>
  <course>185.75</course>
  <speed>0.022360679774997897</speed>
  <fix>3d</fix>
</trkpt>
<trkpt lat="33.810313" lon="-118.393867">
  <ele>-26.92</ele>
  <time>2026-09-02T22:07:51Z</time>
  <course>0.0</course>
  <speed>0.0</speed>
  <fix>3d</fix>
</trkpt>
<trkpt lat="33.8103132" lon="-118.3938671">
  <ele>-27.744</ele>
  <time>2026-09-02T22:07:51Z</time>
  <course>185.75</course>
  <speed>0.022360679774997897</speed>
  <fix>3d</fix>
</trkpt>
<trkpt lat="33.8103132" lon="-118.3938671">
  <ele>-27.785</ele>
  <time>2026-09-02T22:07:51Z</time>
  <course>185.75</course>
  <speed>0.022360679774997897</speed>
  <fix>3d</fix>
</trkpt>
<trkpt lat="33.810313" lon="-118.393867">
  <ele>-26.92</ele>
  <time>2026-09-02T22:07:51Z</time>
  <course>0.0</course>
  <speed>0.0</speed>
  <fix>3d</fix>
</trkpt>
<trkpt lat="33.8103132" lon="-118.3938671">
  <ele>-27.787</ele>
  <time>2026-09-02T22:07:51Z</time>
  <course>185.75</course>
  <speed>0.022360679774997897</speed>
  <fix>3d</fix>
</trkpt>
<trkpt lat="33.8103132" lon="-118.3938671">
  <ele>-27.849</ele>
  <time>2026-09-02T22:07:51Z</time>
  <course>185.74</course>
  <speed>0.022360679774997897</speed>
  <fix>3d</fix>
</trkpt>
<trkpt lat="33.810313" lon="-118.393867">
  <ele>-27.04</ele>
  <time>2026-09-02T22:07:51Z</time>
  <course>0.0</course>
  <speed>0.0</speed>
  <fix>3d</fix>
</trkpt>
<trkpt lat="33.8103132" lon="-118.3938671">
  <ele>-27.85</ele>
  <time>2026-09-02T22:07:51Z</time>
  <course>185.74</course>
  <speed>0.022360679774997897</speed>
  <fix>3d</fix>
</trkpt>
<trkpt lat="33.8103132" lon="-118.3938671">
  <ele>-27.913</ele>
  <time>2026-09-02T22:07:51Z</time>
  <course>185.74</course>
  <speed>0.022360679774997897</speed>
  <fix>3d</fix>
</trkpt>
<trkpt lat="33.810313" lon="-118.393867">
  <ele>-27.04</ele>
  <time>2026-09-02T22:07:51Z</time>
  <course>0.0</course>
  <speed>0.0</speed>
  <fix>3d</fix>
</trkpt>
<trkpt lat="33.8103132" lon="-118.3938671">
  <ele>-27.914</ele>
  <time>2026-09-02T22:07:51Z</time>
  <course>185.74</course>
  <speed>0.022360679774997897</speed>
  <fix>3d</fix>
</trkpt>
<trkpt lat="33.8103132" lon="-118.3938671">
  <ele>-27.976</ele>
  <time>2026-09-02T22:07:51Z</time>
  <course>185.73</course>
  <speed>0.022360679774997897</speed>
  <fix>3d</fix>
</trkpt>
<trkpt lat="33.810313" lon="-118.393867">
  <ele>-27.16</ele>
  <time>2026-09-02T22:07:51Z</time>
  <course>0.0</course>
  <speed>0.0</speed>
  <fix>3d</fix>
</trkpt>
<trkpt lat="33.8103132" lon="-118.3938671">
  <ele>-27.996</ele>
  <time>2026-09-02T22:07:51Z</time>
  <course>185.73</course>
  <speed>0.022360679774997897</speed>
  <fix>3d</fix>
</trkpt>
<trkpt lat="33.8103132" lon="-118.3938671">
  <ele>-28.039</ele>
  <time>2026-09-02T22:07:51Z</time>
  <course>185.73</course>
  <speed>0.022360679774997897</speed>
  <fix>3d</fix>
</trkpt>
<trkpt lat="33.810313" lon="-118.393867">
  <ele>-27.16</ele>
  <time>2026-09-02T22:07:51Z</time>
  <course>0.0</course>
  <speed>0.0</speed>
  <fix>3d</fix>
</trkpt>
<trkpt lat="33.8103132" lon="-118.3938671">
  <ele>-28.059</ele>
  <time>2026-09-02T22:07:51Z</time>
  <course>185.73</course>
  <speed>0.022360679774997897</speed>
  <fix>3d</fix>
</trkpt>
<trkpt lat="33.8103132" lon="-118.3938671">
  <ele>-28.1</ele>
  <time>2026-09-02T22:07:51Z</time>
  <course>185.73</course>
  <speed>0.022360679774997897</speed>
  <fix>3d</fix>
</trkpt>
<trkpt lat="33.810313" lon="-118.393867">
  <ele>-27.27</ele>
  <time>2026-09-02T22:07:51Z</time>
  <course>0.0</course>
  <speed>0.0</speed>
  <fix>3d</fix>
</trkpt>
<trkpt lat="33.8103132" lon="-118.3938671">
  <ele>-28.101</ele>
  <time>2026-09-02T22:07:51Z</time>
  <course>185.73</course>
  <speed>0.022360679774997897</speed>
  <fix>3d</fix>
</trkpt>
<trkpt lat="33.8103132" lon="-118.3938671">
  <ele>-28.16</ele>
  <time>2026-09-02T22:07:51Z</time>
  <course>185.72</course>
  <speed>0.022360679774997897</speed>
  <fix>3d</fix>
</trkpt>
<trkpt lat="33.810313" lon="-118.393867">
  <ele>-27.27</ele>
  <time>2026-09-02T22:07:51Z</time>
  <course>0.0</course>
  <speed>0.0</speed>
  <fix>3d</fix>
</trkpt>
<trkpt lat="33.8103132" lon="-118.3938671">
  <ele>-28.162</ele>
  <time>2026-09-02T22:07:51Z</time>
  <course>185.72</course>
  <speed>0.022360679774997897</speed>
  <fix>3d</fix>
</trkpt>
<trkpt lat="33.8103132" lon="-118.3938671">
  <ele>-28.22</ele>
  <time>2026-09-02T22:07:51Z</time>
  <course>185.72</course>
  <speed>0.022360679774997897</speed>
  <fix>3d</fix>
</trkpt>
<trkpt lat="33.810313" lon="-118.393867">
  <ele>-27.4</ele>
  <time>2026-09-02T22:07:51Z</time>
  <course>0.0</course>
  <speed>0.0</speed>
  <fix>3d</fix>
</trkpt>
<trkpt lat="33.8103132" lon="-118.3938671">
  <ele>-28.241</ele>
  <time>2026-09-02T22:07:51Z</time>
  <course>185.72</course>
  <speed>0.022360679774997897</speed>
  <fix>3d</fix>
</trkpt>
<trkpt lat="33.8103132" lon="-118.3938671">
  <ele>-28.28</ele>
  <time>2026-09-02T22:07:51Z</time>
  <course>185.72</course>
  <speed>0.022360679774997897</speed>
  <fix>3d</fix>
</trkpt>
<trkpt lat="33.810313" lon="-118.393867">
  <ele>-27.4</ele>
  <time>2026-09-02T22:07:51Z</time>
  <course>0.0</course>
  <speed>0.0</speed>
  <fix>3d</fix>
</trkpt>
<trkpt lat="33.8103132" lon="-118.3938671">
  <ele>-28.299</ele>
  <time>2026-09-02T22:07:51Z</time>
  <course>185.71</course>
  <speed>0.022360679774997897</speed>
  <fix>3d</fix>
</trkpt>
<trkpt lat="33.8103132" lon="-118.3938671">
  <ele>-28.34</ele>
  <time>2026-09-02T22:07:51Z</time>
  <course>185.71</course>
  <speed>0.022360679774997897</speed>
  <fix>3d</fix>
</trkpt>
<trkpt lat="33.810313" lon="-118.393867">
  <ele>-27.52</ele>
  <time>2026-09-02T22:07:51Z</time>
  <course>0.0</course>
  <speed>0.0</speed>
  <fix>3d</fix>
</trkpt>
<trkpt lat="33.8103132" lon="-118.3938671">
  <ele>-28.359</ele>
  <time>2026-09-02T22:07:51Z</time>
  <course>185.71</course>
  <speed>0.022360679774997897</speed>
  <fix>3d</fix>
</trkpt>
<trkpt lat="33.8103132" lon="-118.3938671">
  <ele>-28.4</ele>
  <time>2026-09-02T22:07:51Z</time>
  <course>185.71</course>
  <speed>0.022360679774997897</speed>
  <fix>3d</fix>
</trkpt>
<trkpt lat="33.810313" lon="-118.393867">
  <ele>-27.52</ele>
  <time>2026-09-02T22:07:51Z</time>
  <course>0.0</course>
  <speed>0.0</speed>
  <fix>3d</fix>
</trkpt>
<trkpt lat="33.8103132" lon="-118.3938671">
  <ele>-28.402</ele>
  <time>2026-09-02T22:07:51Z</time>
  <course>185.71</course>
  <speed>0.022360679774997897</speed>
  <fix>3d</fix>
</trkpt>
<trkpt lat="33.8103132" lon="-118.3938671">
  <ele>-28.461</ele>
  <time>2026-09-02T22:07:51Z</time>
  <course>185.7</course>
  <speed>0.022360679774997897</speed>
  <fix>3d</fix>
</trkpt>
<trkpt lat="33.810313" lon="-118.393867">
  <ele>-27.65</ele>
  <time>2026-09-02T22:07:51Z</time>
  <course>0.0</course>
  <speed>0.0</speed>
  <fix>3d</fix>
</trkpt>
<trkpt lat="33.8103132" lon="-118.3938671">
  <ele>-28.463</ele>
  <time>2026-09-02T22:07:51Z</time>
  <course>185.7</course>
  <speed>0.022360679774997897</speed>
  <fix>3d</fix>
</trkpt>
<trkpt lat="33.8103132" lon="-118.3938671">
  <ele>-28.523</ele>
  <time>2026-09-02T22:07:51Z</time>
  <course>185.7</course>
  <speed>0.022360679774997897</speed>
  <fix>3d</fix>
</trkpt>
<trkpt lat="33.810313" lon="-118.393867">
  <ele>-27.65</ele>
  <time>2026-09-02T22:07:51Z</time>
  <course>0.0</course>
  <speed>0.0</speed>
  <fix>3d</fix>
</trkpt>
<trkpt lat="33.8103132" lon="-118.3938671">
  <ele>-28.543</ele>
  <time>2026-09-02T22:07:51Z</time>
  <course>185.7</course>
  <speed>0.022360679774997897</speed>
  <fix>3d</fix>
</trkpt>
<trkpt lat="33.8103132" lon="-118.3938671">
  <ele>-28.586</ele>
  <time>2026-09-02T22:07:51Z</time>
  <course>185.7</course>
  <speed>0.022360679774997897</speed>
  <fix>3d</fix>
</trkpt>
<trkpt lat="33.810313" lon="-118.393867">
  <ele>-27.77</ele>
  <time>2026-09-02T22:07:51Z</time>
  <course>0.0</course>
  <speed>0.0</speed>
  <fix>3d</fix>
</trkpt>
<trkpt lat="33.8103132" lon="-118.3938671">
  <ele>-28.587</ele>
  <time>2026-09-02T22:07:51Z</time>
  <course>185.7</course>
  <speed>0.022360679774997897</speed>
  <fix>3d</fix>
</trkpt>
<trkpt lat="33.8103132" lon="-118.3938671">
  <ele>-28.649</ele>
  <time>2026-09-02T22:07:51Z</time>
  <course>185.69</course>
  <speed>0.022360679774997897</speed>
  <fix>3d</fix>
</trkpt>
<trkpt lat="33.810313" lon="-118.393867">
  <ele>-27.77</ele>
  <time>2026-09-02T22:07:51Z</time>
  <course>0.0</course>
  <speed>0.0</speed>
  <fix>3d</fix>
</trkpt>
<trkpt lat="33.8103132" lon="-118.3938671">
  <ele>-28.671</ele>
  <time>2026-09-02T22:07:51Z</time>
  <course>185.69</course>
  <speed>0.022360679774997897</speed>
  <fix>3d</fix>
</trkpt>
<trkpt lat="33.8103132" lon="-118.3938671">
  <ele>-28.712</ele>
  <time>2026-09-02T22:07:51Z</time>
  <course>185.69</course>
  <speed>0.022360679774997897</speed>
  <fix>3d</fix>
</trkpt>
<trkpt lat="33.810313" lon="-118.393867">
  <ele>-27.89</ele>
  <time>2026-09-02T22:07:51Z</time>
  <course>0.0</course>
  <speed>0.0</speed>
  <fix>3d</fix>
</trkpt>
<trkpt lat="33.8103132" lon="-118.3938671">
  <ele>-28.713</ele>
  <time>2026-09-02T22:07:51Z</time>
  <course>185.69</course>
  <speed>0.022360679774997897</speed>
  <fix>3d</fix>
</trkpt>
<trkpt lat="33.8103132" lon="-118.3938671">
  <ele>-28.774</ele>
  <time>2026-09-02T22:07:51Z</time>
  <course>185.69</course>
  <speed>0.022360679774997897</speed>
  <fix>3d</fix>
</trkpt>
<trkpt lat="33.810313" lon="-118.393867">
  <ele>-27.89</ele>
  <time>2026-09-02T22:07:51Z</time>
  <course>0.0</course>
  <speed>0.0</speed>
  <fix>3d</fix>
</trkpt>
<trkpt lat="33.8103132" lon="-118.3938671">
  <ele>-28.796</ele>
  <time>2026-09-02T22:07:51Z</time>
  <course>185.69</course>
  <speed>0.022360679774997897</speed>
  <fix>3d</fix>
</trkpt>
<trkpt lat="33.8103132" lon="-118.3938671">
  <ele>-28.837</ele>
  <time>2026-09-02T22:07:51Z</time>
  <course>185.68</course>
  <speed>0.022360679774997897</speed>
  <fix>3d</fix>
</trkpt>
<trkpt lat="33.810313" lon="-118.393867">
  <ele>-28.01</ele>
  <time>2026-09-02T22:07:51Z</time>
  <course>0.0</course>
  <speed>0.0</speed>
  <fix>3d</fix>
</trkpt>
<trkpt lat="33.8103132" lon="-118.3938671">
  <ele>-28.857</ele>
  <time>2026-09-02T22:07:51Z</time>
  <course>185.68</course>
  <speed>0.022360679774997897</speed>
  <fix>3d</fix>
</trkpt>
<trkpt lat="33.8103132" lon="-118.3938671">
  <ele>-28.9</ele>
  <time>2026-09-02T22:07:51Z</time>
  <course>185.68</course>
  <speed>0.022360679774997897</speed>
  <fix>3d</fix>
</trkpt>
<trkpt lat="33.810313" lon="-118.393867">
  <ele>-28.01</ele>
  <time>2026-09-02T22:07:51Z</time>
  <course>0.0</course>
  <speed>0.0</speed>
  <fix>3d</fix>
</trkpt>
<trkpt lat="33.8103132" lon="-118.3938671">
  <ele>-28.922</ele>
  <time>2026-09-02T22:07:51Z</time>
  <course>185.68</course>
  <speed>0.022360679774997897</speed>
  <fix>3d</fix>
</trkpt>
<trkpt lat="33.8103132" lon="-118.3938671">
  <ele>-28.963</ele>
  <time>2026-09-02T22:07:51Z</time>
  <course>185.68</course>
  <speed>0.022360679774997897</speed>
  <fix>3d</fix>
</trkpt>
<trkpt lat="33.810313" lon="-118.393867">
  <ele>-28.13</ele>
  <time>2026-09-02T22:07:51Z</time>
  <course>0.0</course>
  <speed>0.0</speed>
  <fix>3d</fix>
</trkpt>
<trkpt lat="33.8103132" lon="-118.3938671">
  <ele>-28.984</ele>
  <time>2026-09-02T22:07:51Z</time>
  <course>185.67</course>
  <speed>0.022360679774997897</speed>
  <fix>3d</fix>
</trkpt>
<trkpt lat="33.8103132" lon="-118.3938671">
  <ele>-29.027</ele>
  <time>2026-09-02T22:07:51Z</time>
  <course>185.67</course>
  <speed>0.022360679774997897</speed>
  <fix>3d</fix>
</trkpt>
<trkpt lat="33.810313" lon="-118.393867">
  <ele>-28.13</ele>
  <time>2026-09-02T22:07:51Z</time>
  <course>0.0</course>
  <speed>0.0</speed>
  <fix>3d</fix>
</trkpt>
<trkpt lat="33.8103132" lon="-118.3938671">
  <ele>-29.028</ele>
  <time>2026-09-02T22:07:51Z</time>
  <course>185.67</course>
  <speed>0.022360679774997897</speed>
  <fix>3d</fix>
</trkpt>
<trkpt lat="33.8103132" lon="-118.3938671">
  <ele>-29.09</ele>
  <time>2026-09-02T22:07:51Z</time>
  <course>185.67</course>
  <speed>0.022360679774997897</speed>
  <fix>3d</fix>
</trkpt>
<trkpt lat="33.810313" lon="-118.393867">
  <ele>-28.25</ele>
  <time>2026-09-02T22:07:51Z</time>
  <course>0.0</course>
  <speed>0.0</speed>
  <fix>3d</fix>
</trkpt>
<trkpt lat="33.8103132" lon="-118.3938671">
  <ele>-29.091</ele>
  <time>2026-09-02T22:07:51Z</time>
  <course>185.67</course>
  <speed>0.022360679774997897</speed>
  <fix>3d</fix>
</trkpt>
<trkpt lat="33.8103132" lon="-118.3938671">
  <ele>-29.153</ele>
  <time>2026-09-02T22:07:51Z</time>
  <course>185.67</course>
  <speed>0.022360679774997897</speed>
  <fix>3d</fix>
</trkpt>
<trkpt lat="33.810313" lon="-118.393867">
  <ele>-28.25</ele>
  <time>2026-09-02T22:07:51Z</time>
  <course>0.0</course>
  <speed>0.0</speed>
  <fix>3d</fix>
</trkpt>
<trkpt lat="33.8103132" lon="-118.3938671">
  <ele>-29.173</ele>
  <time>2026-09-02T22:07:51Z</time>
  <course>185.66</course>
  <speed>0.022360679774997897</speed>
  <fix>3d</fix>
</trkpt>
<trkpt lat="33.8103132" lon="-118.3938671">
  <ele>-29.216</ele>
  <time>2026-09-02T22:07:51Z</time>
  <course>185.66</course>
  <speed>0.022360679774997897</speed>
  <fix>3d</fix>
</trkpt>
<trkpt lat="33.810313" lon="-118.393867">
  <ele>-28.36</ele>
  <time>2026-09-02T22:07:51Z</time>
  <course>0.0</course>
  <speed>0.0</speed>
  <fix>3d</fix>
</trkpt>
<trkpt lat="33.8103132" lon="-118.3938671">
  <ele>-29.238</ele>
  <time>2026-09-02T22:07:51Z</time>
  <course>185.66</course>
  <speed>0.022360679774997897</speed>
  <fix>3d</fix>
</trkpt>
<trkpt lat="33.8103132" lon="-118.3938671">
  <ele>-29.279</ele>
  <time>2026-09-02T22:07:51Z</time>
  <course>185.66</course>
  <speed>0.022360679774997897</speed>
  <fix>3d</fix>
</trkpt>
<trkpt lat="33.810313" lon="-118.393867">
  <ele>-28.36</ele>
  <time>2026-09-02T22:07:51Z</time>
  <course>0.0</course>
  <speed>0.0</speed>
  <fix>3d</fix>
</trkpt>
<trkpt lat="33.8103132" lon="-118.3938671">
  <ele>-29.28</ele>
  <time>2026-09-02T22:07:51Z</time>
  <course>185.66</course>
  <speed>0.022360679774997897</speed>
  <fix>3d</fix>
</trkpt>
<trkpt lat="33.8103132" lon="-118.3938671">
  <ele>-29.342</ele>
  <time>2026-09-02T22:07:51Z</time>
  <course>185.65</course>
  <speed>0.022360679774997897</speed>
  <fix>3d</fix>
</trkpt>
<trkpt lat="33.810313" lon="-118.393867">
  <ele>-28.49</ele>
  <time>2026-09-02T22:07:51Z</time>
  <course>0.0</course>
  <speed>0.0</speed>
  <fix>3d</fix>
</trkpt>
<trkpt lat="33.8103132" lon="-118.3938671">
  <ele>-29.343</ele>
  <time>2026-09-02T22:07:51Z</time>
  <course>185.65</course>
  <speed>0.022360679774997897</speed>
  <fix>3d</fix>
</trkpt>
<trkpt lat="33.8103132" lon="-118.3938671">
  <ele>-29.404</ele>
  <time>2026-09-02T22:07:51Z</time>
  <course>185.65</course>
  <speed>0.022360679774997897</speed>
  <fix>3d</fix>
</trkpt>
<trkpt lat="33.810313" lon="-118.393867">
  <ele>-28.49</ele>
  <time>2026-09-02T22:07:51Z</time>
  <course>0.0</course>
  <speed>0.0</speed>
  <fix>3d</fix>
</trkpt>
<trkpt lat="33.8103132" lon="-118.3938671">
  <ele>-29.424</ele>
  <time>2026-09-02T22:07:51Z</time>
  <course>185.65</course>
  <speed>0.022360679774997897</speed>
  <fix>3d</fix>
</trkpt>
<trkpt lat="33.8103132" lon="-118.3938671">
  <ele>-29.466</ele>
  <time>2026-09-02T22:07:51Z</time>
  <course>185.65</course>
  <speed>0.022360679774997897</speed>
  <fix>3d</fix>
</trkpt>
<trkpt lat="33.810313" lon="-118.393867">
  <ele>-28.61</ele>
  <time>2026-09-02T22:07:51Z</time>
  <course>0.0</course>
  <speed>0.0</speed>
  <fix>3d</fix>
</trkpt>
<trkpt lat="33.8103132" lon="-118.3938671">
  <ele>-29.486</ele>
  <time>2026-09-02T22:07:51Z</time>
  <course>185.65</course>
  <speed>0.022360679774997897</speed>
  <fix>3d</fix>
</trkpt>
<trkpt lat="33.8103132" lon="-118.3938671">
  <ele>-29.528</ele>
  <time>2026-09-02T22:07:51Z</time>
  <course>185.64</course>
  <speed>0.022360679774997897</speed>
  <fix>3d</fix>
</trkpt>
<trkpt lat="33.810313" lon="-118.393867">
  <ele>-28.61</ele>
  <time>2026-09-02T22:07:51Z</time>
  <course>0.0</course>
  <speed>0.0</speed>
  <fix>3d</fix>
</trkpt>
<trkpt lat="33.8103132" lon="-118.3938671">
  <ele>-29.548</ele>
  <time>2026-09-02T22:07:51Z</time>
  <course>185.64</course>
  <speed>0.022360679774997897</speed>
  <fix>3d</fix>
</trkpt>
<trkpt lat="33.8103132" lon="-118.3938671">
  <ele>-29.591</ele>
  <time>2026-09-02T22:07:51Z</time>
  <course>185.64</course>
  <speed>0.022360679774997897</speed>
  <fix>3d</fix>
</trkpt>
<trkpt lat="33.810313" lon="-118.393867">
  <ele>-28.73</ele>
  <time>2026-09-02T22:07:51Z</time>
  <course>0.0</course>
  <speed>0.0</speed>
  <fix>3d</fix>
</trkpt>
<trkpt lat="33.8103132" lon="-118.3938671">
  <ele>-29.614</ele>
  <time>2026-09-02T22:07:51Z</time>
  <course>185.64</course>
  <speed>0.022360679774997897</speed>
  <fix>3d</fix>
</trkpt>
<trkpt lat="33.8103132" lon="-118.3938671">
  <ele>-29.653</ele>
  <time>2026-09-02T22:07:51Z</time>
  <course>185.64</course>
  <speed>0.022360679774997897</speed>
  <fix>3d</fix>
</trkpt>
<trkpt lat="33.810313" lon="-118.393867">
  <ele>-28.73</ele>
  <time>2026-09-02T22:07:51Z</time>
  <course>0.0</course>
  <speed>0.0</speed>
  <fix>3d</fix>
</trkpt>
<trkpt lat="33.8103132" lon="-118.3938671">
  <ele>-29.656</ele>
  <time>2026-09-02T22:07:51Z</time>
  <course>185.64</course>
  <speed>0.022360679774997897</speed>
  <fix>3d</fix>
</trkpt>
<trkpt lat="33.8103132" lon="-118.3938671">
  <ele>-29.715</ele>
  <time>2026-09-02T22:07:51Z</time>
  <course>185.63</course>
  <speed>0.022360679774997897</speed>
  <fix>3d</fix>
</trkpt>
<trkpt lat="33.810313" lon="-118.393867">
  <ele>-28.85</ele>
  <time>2026-09-02T22:07:51Z</time>
  <course>0.0</course>
  <speed>0.0</speed>
  <fix>3d</fix>
</trkpt>
<trkpt lat="33.8103132" lon="-118.3938671">
  <ele>-29.717</ele>
  <time>2026-09-02T22:07:51Z</time>
  <course>185.63</course>
  <speed>0.022360679774997897</speed>
  <fix>3d</fix>
</trkpt>
<trkpt lat="33.8103132" lon="-118.3938671">
  <ele>-29.778</ele>
  <time>2026-09-02T22:07:51Z</time>
  <course>185.63</course>
  <speed>0.022360679774997897</speed>
  <fix>3d</fix>
</trkpt>
<trkpt lat="33.810313" lon="-118.393867">
  <ele>-28.85</ele>
  <time>2026-09-02T22:07:51Z</time>
  <course>0.0</course>
  <speed>0.0</speed>
  <fix>3d</fix>
</trkpt>
<trkpt lat="33.8103132" lon="-118.3938671">
  <ele>-29.798</ele>
  <time>2026-09-02T22:07:51Z</time>
  <course>185.63</course>
  <speed>0.022360679774997897</speed>
  <fix>3d</fix>
</trkpt>
<trkpt lat="33.8103132" lon="-118.3938671">
  <ele>-29.839</ele>
  <time>2026-09-02T22:07:51Z</time>
  <course>185.63</course>
  <speed>0.022360679774997897</speed>
  <fix>3d</fix>
</trkpt>
<trkpt lat="33.810313" lon="-118.393867">
  <ele>-28.97</ele>
  <time>2026-09-02T22:07:51Z</time>
  <course>0.0</course>
  <speed>0.0</speed>
  <fix>3d</fix>
</trkpt>
<trkpt lat="33.8103132" lon="-118.3938671">
  <ele>-29.859</ele>
  <time>2026-09-02T22:07:51Z</time>
  <course>185.63</course>
  <speed>0.022360679774997897</speed>
  <fix>3d</fix>
</trkpt>
<trkpt lat="33.8103132" lon="-118.3938671">
  <ele>-29.901</ele>
  <time>2026-09-02T22:07:51Z</time>
  <course>185.62</course>
  <speed>0.022360679774997897</speed>
  <fix>3d</fix>
</trkpt>
<trkpt lat="33.810313" lon="-118.393867">
  <ele>-28.97</ele>
  <time>2026-09-02T22:07:51Z</time>
  <course>0.0</course>
  <speed>0.0</speed>
  <fix>3d</fix>
</trkpt>
<trkpt lat="33.8103132" lon="-118.3938671">
  <ele>-29.922</ele>
  <time>2026-09-02T22:07:51Z</time>
  <course>185.62</course>
  <speed>0.022360679774997897</speed>
  <fix>3d</fix>
</trkpt>
<trkpt lat="33.8103132" lon="-118.3938671">
  <ele>-29.96</ele>
  <time>2026-09-02T22:07:51Z</time>
  <course>185.62</course>
  <speed>0.022360679774997897</speed>
  <fix>3d</fix>
</trkpt>
<trkpt lat="33.810313" lon="-118.393867">
  <ele>-29.09</ele>
  <time>2026-09-02T22:07:51Z</time>
  <course>0.0</course>
  <speed>0.0</speed>
  <fix>3d</fix>
</trkpt>
<trkpt lat="33.8103132" lon="-118.3938671">
  <ele>-29.962</ele>
  <time>2026-09-02T22:07:51Z</time>
  <course>185.62</course>
  <speed>0.022360679774997897</speed>
  <fix>3d</fix>
</trkpt>
<trkpt lat="33.8103132" lon="-118.3938671">
  <ele>-30.02</ele>
  <time>2026-09-02T22:07:51Z</time>
  <course>185.62</course>
  <speed>0.022360679774997897</speed>
  <fix>3d</fix>
</trkpt>
<trkpt lat="33.810313" lon="-118.393867">
  <ele>-29.09</ele>
  <time>2026-09-02T22:07:51Z</time>
  <course>0.0</course>
  <speed>0.0</speed>
  <fix>3d</fix>
</trkpt>
<trkpt lat="33.8103132" lon="-118.3938671">
  <ele>-30.04</ele>
  <time>2026-09-02T22:07:51Z</time>
  <course>185.62</course>
  <speed>0.022360679774997897</speed>
  <fix>3d</fix>
</trkpt>
<trkpt lat="33.8103132" lon="-118.3938671">
  <ele>-30.08</ele>
  <time>2026-09-02T22:07:51Z</time>
  <course>185.61</course>
  <speed>0.022360679774997897</speed>
  <fix>3d</fix>
</trkpt>
<trkpt lat="33.810313" lon="-118.393867">
  <ele>-29.21</ele>
  <time>2026-09-02T22:07:51Z</time>
  <course>0.0</course>
  <speed>0.0</speed>
  <fix>3d</fix>
</trkpt>
<trkpt lat="33.8103132" lon="-118.3938671">
  <ele>-30.1</ele>
  <time>2026-09-02T22:07:51Z</time>
  <course>185.61</course>
  <speed>0.022360679774997897</speed>
  <fix>3d</fix>
</trkpt>
<trkpt lat="33.8103132" lon="-118.3938671">
  <ele>-30.141</ele>
  <time>2026-09-02T22:07:51Z</time>
  <course>185.61</course>
  <speed>0.022360679774997897</speed>
  <fix>3d</fix>
</trkpt>
<trkpt lat="33.810313" lon="-118.393867">
  <ele>-29.21</ele>
  <time>2026-09-02T22:07:51Z</time>
  <course>0.0</course>
  <speed>0.0</speed>
  <fix>3d</fix>
</trkpt>
<trkpt lat="33.8103132" lon="-118.3938671">
  <ele>-30.16</ele>
  <time>2026-09-02T22:07:51Z</time>
  <course>185.61</course>
  <speed>0.022360679774997897</speed>
  <fix>3d</fix>
</trkpt>
<trkpt lat="33.8103132" lon="-118.3938671">
  <ele>-30.2</ele>
  <time>2026-09-02T22:07:51Z</time>
  <course>185.61</course>
  <speed>0.022360679774997897</speed>
  <fix>3d</fix>
</trkpt>
<trkpt lat="33.810313" lon="-118.393867">
  <ele>-29.33</ele>
  <time>2026-09-02T22:07:51Z</time>
  <course>0.0</course>
  <speed>0.0</speed>
  <fix>3d</fix>
</trkpt>
<trkpt lat="33.8103132" lon="-118.3938671">
  <ele>-30.22</ele>
  <time>2026-09-02T22:07:51Z</time>
  <course>185.61</course>
  <speed>0.022360679774997897</speed>
  <fix>3d</fix>
</trkpt>
<trkpt lat="33.8103132" lon="-118.3938671">
  <ele>-30.26</ele>
  <time>2026-09-02T22:07:51Z</time>
  <course>185.6</course>
  <speed>0.022360679774997897</speed>
  <fix>3d</fix>
</trkpt>
<trkpt lat="33.810313" lon="-118.393867">
  <ele>-29.33</ele>
  <time>2026-09-02T22:07:51Z</time>
  <course>0.0</course>
  <speed>0.0</speed>
  <fix>3d</fix>
</trkpt>
<trkpt lat="33.8103132" lon="-118.3938671">
  <ele>-30.262</ele>
  <time>2026-09-02T22:07:51Z</time>
  <course>185.6</course>
  <speed>0.022360679774997897</speed>
  <fix>3d</fix>
</trkpt>
<trkpt lat="33.8103132" lon="-118.3938671">
  <ele>-30.321</ele>
  <time>2026-09-02T22:07:51Z</time>
  <course>185.6</course>
  <speed>0.022360679774997897</speed>
  <fix>3d</fix>
</trkpt>
<trkpt lat="33.810313" lon="-118.393867">
  <ele>-29.46</ele>
  <time>2026-09-02T22:07:51Z</time>
  <course>0.0</course>
  <speed>0.0</speed>
  <fix>3d</fix>
</trkpt>
<trkpt lat="33.8103132" lon="-118.3938671">
  <ele>-30.322</ele>
  <time>2026-09-02T22:07:51Z</time>
  <course>185.6</course>
  <speed>0.022360679774997897</speed>
  <fix>3d</fix>
</trkpt>
<trkpt lat="33.8103132" lon="-118.3938671">
  <ele>-30.382</ele>
  <time>2026-09-02T22:07:51Z</time>
  <course>185.6</course>
  <speed>0.022360679774997897</speed>
  <fix>3d</fix>
</trkpt>
<trkpt lat="33.810313" lon="-118.393867">
  <ele>-29.46</ele>
  <time>2026-09-02T22:07:51Z</time>
  <course>0.0</course>
  <speed>0.0</speed>
  <fix>3d</fix>
</trkpt>
<trkpt lat="33.8103132" lon="-118.3938671">
  <ele>-30.404</ele>
  <time>2026-09-02T22:07:51Z</time>
  <course>185.6</course>
  <speed>0.022360679774997897</speed>
  <fix>3d</fix>
</trkpt>
<trkpt lat="33.8103132" lon="-118.3938671">
  <ele>-30.443</ele>
  <time>2026-09-02T22:07:51Z</time>
  <course>185.59</course>
  <speed>0.022360679774997897</speed>
  <fix>3d</fix>
</trkpt>
<trkpt lat="33.810313" lon="-118.393867">
  <ele>-29.58</ele>
  <time>2026-09-02T22:07:51Z</time>
  <course>0.0</course>
  <speed>0.0</speed>
  <fix>3d</fix>
</trkpt>
<trkpt lat="33.8103132" lon="-118.3938671">
  <ele>-30.462</ele>
  <time>2026-09-02T22:07:51Z</time>
  <course>185.59</course>
  <speed>0.022360679774997897</speed>
  <fix>3d</fix>
</trkpt>
<trkpt lat="33.8103132" lon="-118.3938671">
  <ele>-30.504</ele>
  <time>2026-09-02T22:07:51Z</time>
  <course>185.59</course>
  <speed>0.022360679774997897</speed>
  <fix>3d</fix>
</trkpt>
<trkpt lat="33.810313" lon="-118.393867">
  <ele>-29.58</ele>
  <time>2026-09-02T22:07:51Z</time>
  <course>0.0</course>
  <speed>0.0</speed>
  <fix>3d</fix>
</trkpt>
<trkpt lat="33.8103132" lon="-118.3938671">
  <ele>-30.525</ele>
  <time>2026-09-02T22:07:51Z</time>
  <course>185.59</course>
  <speed>0.022360679774997897</speed>
  <fix>3d</fix>
</trkpt>
<trkpt lat="33.8103132" lon="-118.3938671">
  <ele>-30.563</ele>
  <time>2026-09-02T22:07:51Z</time>
  <course>185.59</course>
  <speed>0.022360679774997897</speed>
  <fix>3d</fix>
</trkpt>
<trkpt lat="33.810313" lon="-118.393867">
  <ele>-29.7</ele>
  <time>2026-09-02T22:07:51Z</time>
  <course>0.0</course>
  <speed>0.0</speed>
  <fix>3d</fix>
</trkpt>
<trkpt lat="33.8103132" lon="-118.3938671">
  <ele>-30.564</ele>
  <time>2026-09-02T22:07:51Z</time>
  <course>185.59</course>
  <speed>0.022360679774997897</speed>
  <fix>3d</fix>
</trkpt>
<trkpt lat="33.8103132" lon="-118.3938671">
  <ele>-30.623</ele>
  <time>2026-09-02T22:07:51Z</time>
  <course>185.58</course>
  <speed>0.022360679774997897</speed>
  <fix>3d</fix>
</trkpt>
<trkpt lat="33.810313" lon="-118.393867">
  <ele>-29.7</ele>
  <time>2026-09-02T22:07:51Z</time>
  <course>0.0</course>
  <speed>0.0</speed>
  <fix>3d</fix>
</trkpt>
<trkpt lat="33.8103132" lon="-118.3938671">
  <ele>-30.624</ele>
  <time>2026-09-02T22:07:51Z</time>
  <course>185.58</course>
  <speed>0.022360679774997897</speed>
  <fix>3d</fix>
</trkpt>
<trkpt lat="33.8103132" lon="-118.3938671">
  <ele>-30.683</ele>
  <time>2026-09-02T22:07:51Z</time>
  <course>185.58</course>
  <speed>0.022360679774997897</speed>
  <fix>3d</fix>
</trkpt>
<trkpt lat="33.810313" lon="-118.393867">
  <ele>-29.82</ele>
  <time>2026-09-02T22:07:51Z</time>
  <course>0.0</course>
  <speed>0.0</speed>
  <fix>3d</fix>
</trkpt>
<trkpt lat="33.8103132" lon="-118.3938671">
  <ele>-30.704</ele>
  <time>2026-09-02T22:07:51Z</time>
  <course>185.58</course>
  <speed>0.022360679774997897</speed>
  <fix>3d</fix>
</trkpt>
<trkpt lat="33.8103132" lon="-118.3938671">
  <ele>-30.744</ele>
  <time>2026-09-02T22:07:51Z</time>
  <course>185.58</course>
  <speed>0.022360679774997897</speed>
  <fix>3d</fix>
</trkpt>
<trkpt lat="33.810313" lon="-118.393867">
  <ele>-29.82</ele>
  <time>2026-09-02T22:07:51Z</time>
  <course>0.0</course>
  <speed>0.0</speed>
  <fix>3d</fix>
</trkpt>
<trkpt lat="33.8103132" lon="-118.3938671">
  <ele>-30.764</ele>
  <time>2026-09-02T22:07:51Z</time>
  <course>185.58</course>
  <speed>0.022360679774997897</speed>
  <fix>3d</fix>
</trkpt>
<trkpt lat="33.8103132" lon="-118.3938671">
  <ele>-30.807</ele>
  <time>2026-09-02T22:07:51Z</time>
  <course>185.57</course>
  <speed>0.022360679774997897</speed>
  <fix>3d</fix>
</trkpt>
<trkpt lat="33.810313" lon="-118.393867">
  <ele>-29.93</ele>
  <time>2026-09-02T22:07:51Z</time>
  <course>0.0</course>
  <speed>0.0</speed>
  <fix>3d</fix>
</trkpt>
<trkpt lat="33.8103132" lon="-118.3938671">
  <ele>-30.829</ele>
  <time>2026-09-02T22:07:51Z</time>
  <course>185.57</course>
  <speed>0.022360679774997897</speed>
  <fix>3d</fix>
</trkpt>
<trkpt lat="33.8103132" lon="-118.3938671">
  <ele>-30.869</ele>
  <time>2026-09-02T22:07:51Z</time>
  <course>185.57</course>
  <speed>0.022360679774997897</speed>
  <fix>3d</fix>
</trkpt>
<trkpt lat="33.810313" lon="-118.393867">
  <ele>-29.93</ele>
  <time>2026-09-02T22:07:51Z</time>
  <course>0.0</course>
  <speed>0.0</speed>
  <fix>3d</fix>
</trkpt>
<trkpt lat="33.8103132" lon="-118.3938671">
  <ele>-30.871</ele>
  <time>2026-09-02T22:07:51Z</time>
  <course>185.57</course>
  <speed>0.022360679774997897</speed>
  <fix>3d</fix>
</trkpt>
<trkpt lat="33.8103132" lon="-118.3938671">
  <ele>-30.932</ele>
  <time>2026-09-02T22:07:51Z</time>
  <course>185.57</course>
  <speed>0.022360679774997897</speed>
  <fix>3d</fix>
</trkpt>
<trkpt lat="33.810313" lon="-118.393867">
  <ele>-30.06</ele>
  <time>2026-09-02T22:07:51Z</time>
  <course>0.0</course>
  <speed>0.0</speed>
  <fix>3d</fix>
</trkpt>
<trkpt lat="33.8103132" lon="-118.3938671">
  <ele>-30.934</ele>
  <time>2026-09-02T22:07:51Z</time>
  <course>185.57</course>
  <speed>0.022360679774997897</speed>
  <fix>3d</fix>
</trkpt>
<trkpt lat="33.8103132" lon="-118.3938671">
  <ele>-30.996</ele>
  <time>2026-09-02T22:07:51Z</time>
  <course>185.56</course>
  <speed>0.022360679774997897</speed>
  <fix>3d</fix>
</trkpt>
<trkpt lat="33.810313" lon="-118.393867">
  <ele>-30.06</ele>
  <time>2026-09-02T22:07:51Z</time>
  <course>0.0</course>
  <speed>0.0</speed>
  <fix>3d</fix>
</trkpt>
<trkpt lat="33.8103132" lon="-118.3938671">
  <ele>-31.018</ele>
  <time>2026-09-02T22:07:51Z</time>
  <course>185.56</course>
  <speed>0.022360679774997897</speed>
  <fix>3d</fix>
</trkpt>
<trkpt lat="33.8103132" lon="-118.3938671">
  <ele>-31.06</ele>
  <time>2026-09-02T22:07:51Z</time>
  <course>185.56</course>
  <speed>0.022360679774997897</speed>
  <fix>3d</fix>
</trkpt>
<trkpt lat="33.810313" lon="-118.393867">
  <ele>-30.18</ele>
  <time>2026-09-02T22:07:51Z</time>
  <course>0.0</course>
  <speed>0.0</speed>
  <fix>3d</fix>
</trkpt>
<trkpt lat="33.8103132" lon="-118.3938671">
  <ele>-31.079</ele>
  <time>2026-09-02T22:07:51Z</time>
  <course>185.56</course>
  <speed>0.022360679774997897</speed>
  <fix>3d</fix>
</trkpt>
<trkpt lat="33.8103132" lon="-118.3938671">
  <ele>-31.124</ele>
  <time>2026-09-02T22:07:51Z</time>
  <course>185.56</course>
  <speed>0.022360679774997897</speed>
  <fix>3d</fix>
</trkpt>
<trkpt lat="33.810313" lon="-118.393867">
  <ele>-30.18</ele>
  <time>2026-09-02T22:07:51Z</time>
  <course>0.0</course>
  <speed>0.0</speed>
  <fix>3d</fix>
</trkpt>
<trkpt lat="33.8103132" lon="-118.3938671">
  <ele>-31.125</ele>
  <time>2026-09-02T22:07:51Z</time>
  <course>185.56</course>
  <speed>0.022360679774997897</speed>
  <fix>3d</fix>
</trkpt>
<trkpt lat="33.8103132" lon="-118.3938671">
  <ele>-31.186</ele>
  <time>2026-09-02T22:07:51Z</time>
  <course>185.55</course>
  <speed>0.022360679774997897</speed>
  <fix>3d</fix>
</trkpt>
<trkpt lat="33.810313" lon="-118.393867">
  <ele>-30.3</ele>
  <time>2026-09-02T22:07:51Z</time>
  <course>0.0</course>
  <speed>0.0</speed>
  <fix>3d</fix>
</trkpt>
<trkpt lat="33.8103132" lon="-118.3938671">
  <ele>-31.188</ele>
  <time>2026-09-02T22:07:51Z</time>
  <course>185.55</course>
  <speed>0.022360679774997897</speed>
  <fix>3d</fix>
</trkpt>
<trkpt lat="33.8103132" lon="-118.3938671">
  <ele>-31.247</ele>
  <time>2026-09-02T22:07:51Z</time>
  <course>185.55</course>
  <speed>0.022360679774997897</speed>
  <fix>3d</fix>
</trkpt>
<trkpt lat="33.810313" lon="-118.393867">
  <ele>-30.3</ele>
  <time>2026-09-02T22:07:51Z</time>
  <course>0.0</course>
  <speed>0.0</speed>
  <fix>3d</fix>
</trkpt>
<trkpt lat="33.8103132" lon="-118.3938671">
  <ele>-31.249</ele>
  <time>2026-09-02T22:07:51Z</time>
  <course>185.55</course>
  <speed>0.022360679774997897</speed>
  <fix>3d</fix>
</trkpt>
<trkpt lat="33.8103132" lon="-118.3938671">
  <ele>-31.307</ele>
  <time>2026-09-02T22:07:51Z</time>
  <course>185.55</course>
  <speed>0.022360679774997897</speed>
  <fix>3d</fix>
</trkpt>
<trkpt lat="33.810313" lon="-118.393867">
  <ele>-30.42</ele>
  <time>2026-09-02T22:07:51Z</time>
  <course>0.0</course>
  <speed>0.0</speed>
  <fix>3d</fix>
</trkpt>
<trkpt lat="33.8103132" lon="-118.3938671">
  <ele>-31.326</ele>
  <time>2026-09-02T22:07:51Z</time>
  <course>185.55</course>
  <speed>0.022360679774997897</speed>
  <fix>3d</fix>
</trkpt>
<trkpt lat="33.8103132" lon="-118.3938671">
  <ele>-31.366</ele>
  <time>2026-09-02T22:07:51Z</time>
  <course>185.55</course>
  <speed>0.022360679774997897</speed>
  <fix>3d</fix>
</trkpt>
<trkpt lat="33.810313" lon="-118.393867">
  <ele>-30.42</ele>
  <time>2026-09-02T22:07:51Z</time>
  <course>0.0</course>
  <speed>0.0</speed>
  <fix>3d</fix>
</trkpt>
<trkpt lat="33.8103132" lon="-118.3938671">
  <ele>-31.386</ele>
  <time>2026-09-02T22:07:51Z</time>
  <course>185.54</course>
  <speed>0.022360679774997897</speed>
  <fix>3d</fix>
</trkpt>
<trkpt lat="33.8103132" lon="-118.3938671">
  <ele>-31.427</ele>
  <time>2026-09-02T22:07:51Z</time>
  <course>185.54</course>
  <speed>0.022360679774997897</speed>
  <fix>3d</fix>
</trkpt>
<trkpt lat="33.810313" lon="-118.393867">
  <ele>-30.54</ele>
  <time>2026-09-02T22:07:51Z</time>
  <course>0.0</course>
  <speed>0.0</speed>
  <fix>3d</fix>
</trkpt>
<trkpt lat="33.8103132" lon="-118.3938671">
  <ele>-31.448</ele>
  <time>2026-09-02T22:07:51Z</time>
  <course>185.54</course>
  <speed>0.022360679774997897</speed>
  <fix>3d</fix>
</trkpt>
<trkpt lat="33.8103132" lon="-118.3938671">
  <ele>-31.488</ele>
  <time>2026-09-02T22:07:51Z</time>
  <course>185.54</course>
  <speed>0.022360679774997897</speed>
  <fix>3d</fix>
</trkpt>
<trkpt lat="33.810313" lon="-118.393867">
  <ele>-30.54</ele>
  <time>2026-09-02T22:07:51Z</time>
  <course>0.0</course>
  <speed>0.0</speed>
  <fix>3d</fix>
</trkpt>
<trkpt lat="33.8103132" lon="-118.3938671">
  <ele>-31.489</ele>
  <time>2026-09-02T22:07:51Z</time>
  <course>185.54</course>
  <speed>0.022360679774997897</speed>
  <fix>3d</fix>
</trkpt>
<trkpt lat="33.8103132" lon="-118.3938671">
  <ele>-31.547</ele>
  <time>2026-09-02T22:07:51Z</time>
  <course>185.54</course>
  <speed>0.022360679774997897</speed>
  <fix>3d</fix>
</trkpt>
<trkpt lat="33.810313" lon="-118.393867">
  <ele>-30.66</ele>
  <time>2026-09-02T22:07:51Z</time>
  <course>0.0</course>
  <speed>0.0</speed>
  <fix>3d</fix>
</trkpt>
<trkpt lat="33.8103132" lon="-118.3938671">
  <ele>-31.549</ele>
  <time>2026-09-02T22:07:51Z</time>
  <course>185.54</course>
  <speed>0.022360679774997897</speed>
  <fix>3d</fix>
</trkpt>
<trkpt lat="33.8103132" lon="-118.3938671">
  <ele>-31.607</ele>
  <time>2026-09-02T22:07:51Z</time>
  <course>185.53</course>
  <speed>0.022360679774997897</speed>
  <fix>3d</fix>
</trkpt>
<trkpt lat="33.810313" lon="-118.393867">
  <ele>-30.66</ele>
  <time>2026-09-02T22:07:51Z</time>
  <course>0.0</course>
  <speed>0.0</speed>
  <fix>3d</fix>
</trkpt>
<trkpt lat="33.8103132" lon="-118.3938671">
  <ele>-31.628</ele>
  <time>2026-09-02T22:07:51Z</time>
  <course>185.53</course>
  <speed>0.022360679774997897</speed>
  <fix>3d</fix>
</trkpt>
<trkpt lat="33.8103132" lon="-118.3938671">
  <ele>-31.667</ele>
  <time>2026-09-02T22:07:51Z</time>
  <course>185.53</course>
  <speed>0.022360679774997897</speed>
  <fix>3d</fix>
</trkpt>
<trkpt lat="33.810313" lon="-118.393867">
  <ele>-30.77</ele>
  <time>2026-09-02T22:07:51Z</time>
  <course>0.0</course>
  <speed>0.0</speed>
  <fix>3d</fix>
</trkpt>
<trkpt lat="33.8103132" lon="-118.3938671">
  <ele>-31.689</ele>
  <time>2026-09-02T22:07:51Z</time>
  <course>185.53</course>
  <speed>0.022360679774997897</speed>
  <fix>3d</fix>
</trkpt>
<trkpt lat="33.8103132" lon="-118.3938671">
  <ele>-31.728</ele>
  <time>2026-09-02T22:07:51Z</time>
  <course>185.53</course>
  <speed>0.022360679774997897</speed>
  <fix>3d</fix>
</trkpt>
<trkpt lat="33.810313" lon="-118.393867">
  <ele>-30.77</ele>
  <time>2026-09-02T22:07:51Z</time>
  <course>0.0</course>
  <speed>0.0</speed>
  <fix>3d</fix>
</trkpt>
<trkpt lat="33.8103132" lon="-118.3938671">
  <ele>-31.75</ele>
  <time>2026-09-02T22:07:51Z</time>
  <course>185.53</course>
  <speed>0.022360679774997897</speed>
  <fix>3d</fix>
</trkpt>
<trkpt lat="33.8103132" lon="-118.3938671">
  <ele>-31.789</ele>
  <time>2026-09-02T22:07:51Z</time>
  <course>185.52</course>
  <speed>0.022360679774997897</speed>
  <fix>3d</fix>
</trkpt>
<trkpt lat="33.810313" lon="-118.393867">
  <ele>-30.9</ele>
  <time>2026-09-02T22:07:51Z</time>
  <course>0.0</course>
  <speed>0.0</speed>
  <fix>3d</fix>
</trkpt>
<trkpt lat="33.8103132" lon="-118.3938671">
  <ele>-31.809</ele>
  <time>2026-09-02T22:07:51Z</time>
  <course>185.52</course>
  <speed>0.022360679774997897</speed>
  <fix>3d</fix>
</trkpt>
<trkpt lat="33.8103132" lon="-118.3938671">
  <ele>-31.851</ele>
  <time>2026-09-02T22:07:51Z</time>
  <course>185.52</course>
  <speed>0.022360679774997897</speed>
  <fix>3d</fix>
</trkpt>
<trkpt lat="33.810313" lon="-118.393867">
  <ele>-30.9</ele>
  <time>2026-09-02T22:07:51Z</time>
  <course>0.0</course>
  <speed>0.0</speed>
  <fix>3d</fix>
</trkpt>
<trkpt lat="33.8103132" lon="-118.3938671">
  <ele>-31.869</ele>
  <time>2026-09-02T22:07:51Z</time>
  <course>185.52</course>
  <speed>0.022360679774997897</speed>
  <fix>3d</fix>
</trkpt>
<trkpt lat="33.8103132" lon="-118.3938671">
  <ele>-31.913</ele>
  <time>2026-09-02T22:07:51Z</time>
  <course>185.52</course>
  <speed>0.022360679774997897</speed>
  <fix>3d</fix>
</trkpt>
<trkpt lat="33.810313" lon="-118.393867">
  <ele>-31.02</ele>
  <time>2026-09-02T22:07:51Z</time>
  <course>0.0</course>
  <speed>0.0</speed>
  <fix>3d</fix>
</trkpt>
<trkpt lat="33.8103132" lon="-118.3938671">
  <ele>-31.916</ele>
  <time>2026-09-02T22:07:51Z</time>
  <course>185.52</course>
  <speed>0.022360679774997897</speed>
  <fix>3d</fix>
</trkpt>
<trkpt lat="33.8103132" lon="-118.3938671">
  <ele>-31.975</ele>
  <time>2026-09-02T22:07:51Z</time>
  <course>185.52</course>
  <speed>0.022360679774997897</speed>
  <fix>3d</fix>
</trkpt>
<trkpt lat="33.810313" lon="-118.393867">
  <ele>-31.02</ele>
  <time>2026-09-02T22:07:51Z</time>
  <course>0.0</course>
  <speed>0.0</speed>
  <fix>3d</fix>
</trkpt>
<trkpt lat="33.8103132" lon="-118.3938671">
  <ele>-31.997</ele>
  <time>2026-09-02T22:07:51Z</time>
  <course>185.52</course>
  <speed>0.022360679774997897</speed>
  <fix>3d</fix>
</trkpt>
<trkpt lat="33.8103132" lon="-118.3938671">
  <ele>-32.036</ele>
  <time>2026-09-02T22:07:51Z</time>
  <course>185.51</course>
  <speed>0.022360679774997897</speed>
  <fix>3d</fix>
</trkpt>
<trkpt lat="33.810313" lon="-118.393867">
  <ele>-31.14</ele>
  <time>2026-09-02T22:07:51Z</time>
  <course>0.0</course>
  <speed>0.0</speed>
  <fix>3d</fix>
</trkpt>
<trkpt lat="33.8103132" lon="-118.3938671">
  <ele>-32.056</ele>
  <time>2026-09-02T22:07:51Z</time>
  <course>185.51</course>
  <speed>0.022360679774997897</speed>
  <fix>3d</fix>
</trkpt>
<trkpt lat="33.8103132" lon="-118.3938671">
  <ele>-32.097</ele>
  <time>2026-09-02T22:07:51Z</time>
  <course>185.51</course>
  <speed>0.022360679774997897</speed>
  <fix>3d</fix>
</trkpt>
<trkpt lat="33.810313" lon="-118.393867">
  <ele>-31.14</ele>
  <time>2026-09-02T22:07:51Z</time>
  <course>0.0</course>
  <speed>0.0</speed>
  <fix>3d</fix>
</trkpt>
<trkpt lat="33.8103132" lon="-118.3938671">
  <ele>-32.118</ele>
  <time>2026-09-02T22:07:51Z</time>
  <course>185.51</course>
  <speed>0.022360679774997897</speed>
  <fix>3d</fix>
</trkpt>
<trkpt lat="33.8103132" lon="-118.3938671">
  <ele>-32.157</ele>
  <time>2026-09-02T22:07:51Z</time>
  <course>185.51</course>
  <speed>0.022360679774997897</speed>
  <fix>3d</fix>
</trkpt>
<trkpt lat="33.810313" lon="-118.393867">
  <ele>-31.27</ele>
  <time>2026-09-02T22:07:51Z</time>
  <course>0.0</course>
  <speed>0.0</speed>
  <fix>3d</fix>
</trkpt>
<trkpt lat="33.8103132" lon="-118.3938671">
  <ele>-32.178</ele>
  <time>2026-09-02T22:07:51Z</time>
  <course>185.51</course>
  <speed>0.022360679774997897</speed>
  <fix>3d</fix>
</trkpt>
<trkpt lat="33.8103132" lon="-118.3938671">
  <ele>-32.218</ele>
  <time>2026-09-02T22:07:51Z</time>
  <course>185.51</course>
  <speed>0.022360679774997897</speed>
  <fix>3d</fix>
</trkpt>
<trkpt lat="33.810313" lon="-118.393867">
  <ele>-31.27</ele>
  <time>2026-09-02T22:07:51Z</time>
  <course>0.0</course>
  <speed>0.0</speed>
  <fix>3d</fix>
</trkpt>
<trkpt lat="33.8103132" lon="-118.3938671">
  <ele>-32.239</ele>
  <time>2026-09-02T22:07:51Z</time>
  <course>185.5</course>
  <speed>0.022360679774997897</speed>
  <fix>3d</fix>
</trkpt>
<trkpt lat="33.8103132" lon="-118.3938671">
  <ele>-32.28</ele>
  <time>2026-09-02T22:07:51Z</time>
  <course>185.5</course>
  <speed>0.022360679774997897</speed>
  <fix>3d</fix>
</trkpt>
<trkpt lat="33.810313" lon="-118.393867">
  <ele>-31.39</ele>
  <time>2026-09-02T22:07:51Z</time>
  <course>0.0</course>
  <speed>0.0</speed>
  <fix>3d</fix>
</trkpt>
<trkpt lat="33.8103132" lon="-118.3938671">
  <ele>-32.304</ele>
  <time>2026-09-02T22:07:51Z</time>
  <course>185.5</course>
  <speed>0.022360679774997897</speed>
  <fix>3d</fix>
</trkpt>
<trkpt lat="33.8103132" lon="-118.3938671">
  <ele>-32.342</ele>
  <time>2026-09-02T22:07:51Z</time>
  <course>185.5</course>
  <speed>0.022360679774997897</speed>
  <fix>3d</fix>
</trkpt>
<trkpt lat="33.810313" lon="-118.393867">
  <ele>-31.39</ele>
  <time>2026-09-02T22:07:51Z</time>
  <course>0.0</course>
  <speed>0.0</speed>
  <fix>3d</fix>
</trkpt>
<trkpt lat="33.8103132" lon="-118.3938671">
  <ele>-32.362</ele>
  <time>2026-09-02T22:07:51Z</time>
  <course>185.5</course>
  <speed>0.022360679774997897</speed>
  <fix>3d</fix>
</trkpt>
<trkpt lat="33.8103132" lon="-118.3938671">
  <ele>-32.403</ele>
  <time>2026-09-02T22:07:51Z</time>
  <course>185.5</course>
  <speed>0.022360679774997897</speed>
  <fix>3d</fix>
</trkpt>
<trkpt lat="33.810313" lon="-118.393867">
  <ele>-31.51</ele>
  <time>2026-09-02T22:07:51Z</time>
  <course>0.0</course>
  <speed>0.0</speed>
  <fix>3d</fix>
</trkpt>
<trkpt lat="33.8103132" lon="-118.3938671">
  <ele>-32.424</ele>
  <time>2026-09-02T22:07:51Z</time>
  <course>185.5</course>
  <speed>0.022360679774997897</speed>
  <fix>3d</fix>
</trkpt>
<trkpt lat="33.8103132" lon="-118.3938671">
  <ele>-32.465</ele>
  <time>2026-09-02T22:07:51Z</time>
  <course>185.49</course>
  <speed>0.022360679774997897</speed>
  <fix>3d</fix>
</trkpt>
<trkpt lat="33.810313" lon="-118.393867">
  <ele>-31.51</ele>
  <time>2026-09-02T22:07:51Z</time>
  <course>0.0</course>
  <speed>0.0</speed>
  <fix>3d</fix>
</trkpt>
<trkpt lat="33.8103132" lon="-118.3938671">
  <ele>-32.486</ele>
  <time>2026-09-02T22:07:51Z</time>
  <course>185.49</course>
  <speed>0.022360679774997897</speed>
  <fix>3d</fix>
</trkpt>
<trkpt lat="33.8103132" lon="-118.3938671">
  <ele>-32.526</ele>
  <time>2026-09-02T22:07:51Z</time>
  <course>185.49</course>
  <speed>0.022360679774997897</speed>
  <fix>3d</fix>
</trkpt>
<trkpt lat="33.810313" lon="-118.393867">
  <ele>-31.63</ele>
  <time>2026-09-02T22:07:51Z</time>
  <course>0.0</course>
  <speed>0.0</speed>
  <fix>3d</fix>
</trkpt>
<trkpt lat="33.8103132" lon="-118.3938671">
  <ele>-32.527</ele>
  <time>2026-09-02T22:07:51Z</time>
  <course>185.49</course>
  <speed>0.022360679774997897</speed>
  <fix>3d</fix>
</trkpt>
<trkpt lat="33.8103132" lon="-118.3938671">
  <ele>-32.587</ele>
  <time>2026-09-02T22:07:51Z</time>
  <course>185.49</course>
  <speed>0.022360679774997897</speed>
  <fix>3d</fix>
</trkpt>
<trkpt lat="33.810313" lon="-118.393867">
  <ele>-31.63</ele>
  <time>2026-09-02T22:07:51Z</time>
  <course>0.0</course>
  <speed>0.0</speed>
  <fix>3d</fix>
</trkpt>
<trkpt lat="33.8103132" lon="-118.3938671">
  <ele>-32.608</ele>
  <time>2026-09-02T22:07:51Z</time>
  <course>185.49</course>
  <speed>0.022360679774997897</speed>
  <fix>3d</fix>
</trkpt>
<trkpt lat="33.8103132" lon="-118.3938671">
  <ele>-32.648</ele>
  <time>2026-09-02T22:07:51Z</time>
  <course>185.49</course>
  <speed>0.022360679774997897</speed>
  <fix>3d</fix>
</trkpt>
<trkpt lat="33.810313" lon="-118.393867">
  <ele>-31.75</ele>
  <time>2026-09-02T22:07:51Z</time>
  <course>0.0</course>
  <speed>0.0</speed>
  <fix>3d</fix>
</trkpt>
<trkpt lat="33.8103132" lon="-118.3938671">
  <ele>-32.668</ele>
  <time>2026-09-02T22:07:51Z</time>
  <course>185.48</course>
  <speed>0.022360679774997897</speed>
  <fix>3d</fix>
</trkpt>
<trkpt lat="33.8103132" lon="-118.3938671">
  <ele>-32.71</ele>
  <time>2026-09-02T22:07:51Z</time>
  <course>185.48</course>
  <speed>0.022360679774997897</speed>
  <fix>3d</fix>
</trkpt>
<trkpt lat="33.810313" lon="-118.393867">
  <ele>-31.75</ele>
  <time>2026-09-02T22:07:51Z</time>
  <course>0.0</course>
  <speed>0.0</speed>
  <fix>3d</fix>
</trkpt>
<trkpt lat="33.8103132" lon="-118.3938671">
  <ele>-32.711</ele>
  <time>2026-09-02T22:07:51Z</time>
  <course>185.48</course>
  <speed>0.022360679774997897</speed>
  <fix>3d</fix>
</trkpt>
<trkpt lat="33.8103132" lon="-118.3938671">
  <ele>-32.772</ele>
  <time>2026-09-02T22:07:51Z</time>
  <course>185.48</course>
  <speed>0.022360679774997897</speed>
  <fix>3d</fix>
</trkpt>
<trkpt lat="33.810313" lon="-118.393867">
  <ele>-31.86</ele>
  <time>2026-09-02T22:07:51Z</time>
  <course>0.0</course>
  <speed>0.0</speed>
  <fix>3d</fix>
</trkpt>
<trkpt lat="33.8103132" lon="-118.3938671">
  <ele>-32.773</ele>
  <time>2026-09-02T22:07:51Z</time>
  <course>185.48</course>
  <speed>0.022360679774997897</speed>
  <fix>3d</fix>
</trkpt>
<trkpt lat="33.8103132" lon="-118.3938671">
  <ele>-32.834</ele>
  <time>2026-09-02T22:07:51Z</time>
  <course>185.48</course>
  <speed>0.022360679774997897</speed>
  <fix>3d</fix>
</trkpt>
<trkpt lat="33.810313" lon="-118.393867">
  <ele>-31.86</ele>
  <time>2026-09-02T22:07:51Z</time>
  <course>0.0</course>
  <speed>0.0</speed>
  <fix>3d</fix>
</trkpt>
<trkpt lat="33.8103132" lon="-118.3938671">
  <ele>-32.856</ele>
  <time>2026-09-02T22:07:51Z</time>
  <course>185.48</course>
  <speed>0.022360679774997897</speed>
  <fix>3d</fix>
</trkpt>
<trkpt lat="33.8103132" lon="-118.3938671">
  <ele>-32.897</ele>
  <time>2026-09-02T22:07:51Z</time>
  <course>185.47</course>
  <speed>0.022360679774997897</speed>
  <fix>3d</fix>
</trkpt>
<trkpt lat="33.810313" lon="-118.393867">
  <ele>-31.99</ele>
  <time>2026-09-02T22:07:51Z</time>
  <course>0.0</course>
  <speed>0.0</speed>
  <fix>3d</fix>
</trkpt>
<trkpt lat="33.8103132" lon="-118.3938671">
  <ele>-32.92</ele>
  <time>2026-09-02T22:07:51Z</time>
  <course>185.47</course>
  <speed>0.022360679774997897</speed>
  <fix>3d</fix>
</trkpt>
<trkpt lat="33.8103132" lon="-118.3938671">
  <ele>-32.96</ele>
  <time>2026-09-02T22:07:51Z</time>
  <course>185.47</course>
  <speed>0.022360679774997897</speed>
  <fix>3d</fix>
</trkpt>
<trkpt lat="33.810313" lon="-118.393867">
  <ele>-31.99</ele>
  <time>2026-09-02T22:07:51Z</time>
  <course>0.0</course>
  <speed>0.0</speed>
  <fix>3d</fix>
</trkpt>
<trkpt lat="33.8103132" lon="-118.3938671">
  <ele>-32.982</ele>
  <time>2026-09-02T22:07:51Z</time>
  <course>185.47</course>
  <speed>0.022360679774997897</speed>
  <fix>3d</fix>
</trkpt>
<trkpt lat="33.8103132" lon="-118.3938671">
  <ele>-33.024</ele>
  <time>2026-09-02T22:07:51Z</time>
  <course>185.47</course>
  <speed>0.022360679774997897</speed>
  <fix>3d</fix>
</trkpt>
<trkpt lat="33.810313" lon="-118.393867">
  <ele>-32.11</ele>
  <time>2026-09-02T22:07:51Z</time>
  <course>0.0</course>
  <speed>0.0</speed>
  <fix>3d</fix>
</trkpt>
<trkpt lat="33.8103132" lon="-118.3938671">
  <ele>-33.046</ele>
  <time>2026-09-02T22:07:51Z</time>
  <course>185.47</course>
  <speed>0.022360679774997897</speed>
  <fix>3d</fix>
</trkpt>
<trkpt lat="33.8103132" lon="-118.3938671">
  <ele>-33.087</ele>
  <time>2026-09-02T22:07:51Z</time>
  <course>185.47</course>
  <speed>0.022360679774997897</speed>
  <fix>3d</fix>
</trkpt>
<trkpt lat="33.810313" lon="-118.393867">
  <ele>-32.11</ele>
  <time>2026-09-02T22:07:51Z</time>
  <course>0.0</course>
  <speed>0.0</speed>
  <fix>3d</fix>
</trkpt>
<trkpt lat="33.8103132" lon="-118.3938671">
  <ele>-33.088</ele>
  <time>2026-09-02T22:07:51Z</time>
  <course>185.47</course>
  <speed>0.022360679774997897</speed>
  <fix>3d</fix>
</trkpt>
<trkpt lat="33.8103132" lon="-118.3938671">
  <ele>-33.15</ele>
  <time>2026-09-02T22:07:51Z</time>
  <course>185.47</course>
  <speed>0.022360679774997897</speed>
  <fix>3d</fix>
</trkpt>
<trkpt lat="33.810313" lon="-118.393867">
  <ele>-32.23</ele>
  <time>2026-09-02T22:07:51Z</time>
  <course>0.0</course>
  <speed>0.0</speed>
  <fix>3d</fix>
</trkpt>
<trkpt lat="33.8103132" lon="-118.3938671">
  <ele>-33.172</ele>
  <time>2026-09-02T22:07:51Z</time>
  <course>185.46</course>
  <speed>0.022360679774997897</speed>
  <fix>3d</fix>
</trkpt>
<trkpt lat="33.8103132" lon="-118.3938671">
  <ele>-33.213</ele>
  <time>2026-09-02T22:07:51Z</time>
  <course>185.46</course>
  <speed>0.022360679774997897</speed>
  <fix>3d</fix>
</trkpt>
<trkpt lat="33.810313" lon="-118.393867">
  <ele>-32.23</ele>
  <time>2026-09-02T22:07:51Z</time>
  <course>0.0</course>
  <speed>0.0</speed>
  <fix>3d</fix>
</trkpt>
<trkpt lat="33.8103132" lon="-118.3938671">
  <ele>-33.215</ele>
  <time>2026-09-02T22:07:51Z</time>
  <course>185.46</course>
  <speed>0.022360679774997897</speed>
  <fix>3d</fix>
</trkpt>
<trkpt lat="33.8103132" lon="-118.3938671">
  <ele>-33.276</ele>
  <time>2026-09-02T22:07:51Z</time>
  <course>185.46</course>
  <speed>0.022360679774997897</speed>
  <fix>3d</fix>
</trkpt>
<trkpt lat="33.810313" lon="-118.393867">
  <ele>-32.34</ele>
  <time>2026-09-02T22:07:51Z</time>
  <course>0.0</course>
  <speed>0.0</speed>
  <fix>3d</fix>
</trkpt>
<trkpt lat="33.8103132" lon="-118.3938671">
  <ele>-33.298</ele>
  <time>2026-09-02T22:07:51Z</time>
  <course>185.46</course>
  <speed>0.022360679774997897</speed>
  <fix>3d</fix>
</trkpt>
<trkpt lat="33.8103132" lon="-118.3938671">
  <ele>-33.339</ele>
  <time>2026-09-02T22:07:51Z</time>
  <course>185.46</course>
  <speed>0.022360679774997897</speed>
  <fix>3d</fix>
</trkpt>
<trkpt lat="33.810313" lon="-118.393867">
  <ele>-32.34</ele>
  <time>2026-09-02T22:07:51Z</time>
  <course>0.0</course>
  <speed>0.0</speed>
  <fix>3d</fix>
</trkpt>
<trkpt lat="33.8103132" lon="-118.3938671">
  <ele>-33.358</ele>
  <time>2026-09-02T22:07:51Z</time>
  <course>185.46</course>
  <speed>0.022360679774997897</speed>
  <fix>3d</fix>
</trkpt>
<trkpt lat="33.8103132" lon="-118.3938671">
  <ele>-33.402</ele>
  <time>2026-09-02T22:07:51Z</time>
  <course>185.46</course>
  <speed>0.022360679774997897</speed>
  <fix>3d</fix>
</trkpt>
<trkpt lat="33.810313" lon="-118.393867">
  <ele>-32.47</ele>
  <time>2026-09-02T22:07:51Z</time>
  <course>0.0</course>
  <speed>0.0</speed>
  <fix>3d</fix>
</trkpt>
<trkpt lat="33.8103132" lon="-118.3938671">
  <ele>-33.405</ele>
  <time>2026-09-02T22:07:51Z</time>
  <course>185.46</course>
  <speed>0.022360679774997897</speed>
  <fix>3d</fix>
</trkpt>
<trkpt lat="33.8103132" lon="-118.3938671">
  <ele>-33.464</ele>
  <time>2026-09-02T22:07:51Z</time>
  <course>185.45</course>
  <speed>0.022360679774997897</speed>
  <fix>3d</fix>
</trkpt>
<trkpt lat="33.810313" lon="-118.393867">
  <ele>-32.47</ele>
  <time>2026-09-02T22:07:51Z</time>
  <course>0.0</course>
  <speed>0.0</speed>
  <fix>3d</fix>
</trkpt>
<trkpt lat="33.8103132" lon="-118.3938671">
  <ele>-33.486</ele>
  <time>2026-09-02T22:07:51Z</time>
  <course>185.45</course>
  <speed>0.022360679774997897</speed>
  <fix>3d</fix>
</trkpt>
<trkpt lat="33.8103132" lon="-118.3938671">
  <ele>-33.527</ele>
  <time>2026-09-02T22:07:51Z</time>
  <course>185.45</course>
  <speed>0.022360679774997897</speed>
  <fix>3d</fix>
</trkpt>
<trkpt lat="33.810313" lon="-118.393867">
  <ele>-32.59</ele>
  <time>2026-09-02T22:07:51Z</time>
  <course>0.0</course>
  <speed>0.0</speed>
  <fix>3d</fix>
</trkpt>
<trkpt lat="33.8103132" lon="-118.3938671">
  <ele>-33.547</ele>
  <time>2026-09-02T22:07:51Z</time>
  <course>185.45</course>
  <speed>0.022360679774997897</speed>
  <fix>3d</fix>
</trkpt>
<trkpt lat="33.8103132" lon="-118.3938671">
  <ele>-33.59</ele>
  <time>2026-09-02T22:07:51Z</time>
  <course>185.45</course>
  <speed>0.022360679774997897</speed>
  <fix>3d</fix>
</trkpt>
<trkpt lat="33.810313" lon="-118.393867">
  <ele>-32.59</ele>
  <time>2026-09-02T22:07:51Z</time>
  <course>0.0</course>
  <speed>0.0</speed>
  <fix>3d</fix>
</trkpt>
<trkpt lat="33.8103132" lon="-118.3938671">
  <ele>-33.612</ele>
  <time>2026-09-02T22:07:51Z</time>
  <course>185.45</course>
  <speed>0.022360679774997897</speed>
  <fix>3d</fix>
</trkpt>
<trkpt lat="33.8103132" lon="-118.3938671">
  <ele>-33.652</ele>
  <time>2026-09-02T22:07:51Z</time>
  <course>185.45</course>
  <speed>0.022360679774997897</speed>
  <fix>3d</fix>
</trkpt>
<trkpt lat="33.810313" lon="-118.393867">
  <ele>-32.71</ele>
  <time>2026-09-02T22:07:51Z</time>
  <course>0.0</course>
  <speed>0.0</speed>
  <fix>3d</fix>
</trkpt>
<trkpt lat="33.8103132" lon="-118.3938671">
  <ele>-33.682</ele>
  <time>2026-09-02T22:07:51Z</time>
  <course>185.44</course>
  <speed>0.022360679774997897</speed>
  <fix>3d</fix>
</trkpt>
<trkpt lat="33.8103132" lon="-118.3938671">
  <ele>-33.716</ele>
  <time>2026-09-02T22:07:51Z</time>
  <course>185.44</course>
  <speed>0.022360679774997897</speed>
  <fix>3d</fix>
</trkpt>
<trkpt lat="33.810313" lon="-118.393867">
  <ele>-32.71</ele>
  <time>2026-09-02T22:07:51Z</time>
  <course>0.0</course>
  <speed>0.0</speed>
  <fix>3d</fix>
</trkpt>
<trkpt lat="33.8103132" lon="-118.3938671">
  <ele>-33.717</ele>
  <time>2026-09-02T22:07:51Z</time>
  <course>185.44</course>
  <speed>0.022360679774997897</speed>
  <fix>3d</fix>
</trkpt>
<trkpt lat="33.8103132" lon="-118.3938671">
  <ele>-33.779</ele>
  <time>2026-09-02T22:07:51Z</time>
  <course>185.44</course>
  <speed>0.022360679774997897</speed>
  <fix>3d</fix>
</trkpt>
<trkpt lat="33.810313" lon="-118.393867">
  <ele>-32.83</ele>
  <time>2026-09-02T22:07:51Z</time>
  <course>0.0</course>
  <speed>0.0</speed>
  <fix>3d</fix>
</trkpt>
<trkpt lat="33.8103132" lon="-118.3938671">
  <ele>-33.804</ele>
  <time>2026-09-02T22:07:51Z</time>
  <course>185.44</course>
  <speed>0.022360679774997897</speed>
  <fix>3d</fix>
</trkpt>
<trkpt lat="33.8103132" lon="-118.3938671">
  <ele>-33.841</ele>
  <time>2026-09-02T22:07:51Z</time>
  <course>185.44</course>
  <speed>0.022360679774997897</speed>
  <fix>3d</fix>
</trkpt>
<trkpt lat="33.810313" lon="-118.393867">
  <ele>-32.83</ele>
  <time>2026-09-02T22:07:51Z</time>
  <course>0.0</course>
  <speed>0.0</speed>
  <fix>3d</fix>
</trkpt>
<trkpt lat="33.8103132" lon="-118.3938671">
  <ele>-33.842</ele>
  <time>2026-09-02T22:07:51Z</time>
  <course>185.44</course>
  <speed>0.022360679774997897</speed>
  <fix>3d</fix>
</trkpt>
<trkpt lat="33.8103132" lon="-118.3938671">
  <ele>-33.902</ele>
  <time>2026-09-02T22:07:51Z</time>
  <course>185.44</course>
  <speed>0.022360679774997897</speed>
  <fix>3d</fix>
</trkpt>
<trkpt lat="33.810313" lon="-118.393867">
  <ele>-32.96</ele>
  <time>2026-09-02T22:07:51Z</time>
  <course>0.0</course>
  <speed>0.0</speed>
  <fix>3d</fix>
</trkpt>
<trkpt lat="33.8103132" lon="-118.3938671">
  <ele>-33.922</ele>
  <time>2026-09-02T22:07:51Z</time>
  <course>185.43</course>
  <speed>0.022360679774997897</speed>
  <fix>3d</fix>
</trkpt>
<trkpt lat="33.8103132" lon="-118.3938671">
  <ele>-33.963</ele>
  <time>2026-09-02T22:07:51Z</time>
  <course>185.43</course>
  <speed>0.022360679774997897</speed>
  <fix>3d</fix>
</trkpt>
<trkpt lat="33.810313" lon="-118.393867">
  <ele>-32.96</ele>
  <time>2026-09-02T22:07:51Z</time>
  <course>0.0</course>
  <speed>0.0</speed>
  <fix>3d</fix>
</trkpt>
<trkpt lat="33.8103132" lon="-118.3938671">
  <ele>-33.982</ele>
  <time>2026-09-02T22:07:51Z</time>
  <course>185.43</course>
  <speed>0.022360679774997897</speed>
  <fix>3d</fix>
</trkpt>
<trkpt lat="33.8103132" lon="-118.3938671">
  <ele>-34.023</ele>
  <time>2026-09-02T22:07:51Z</time>
  <course>185.43</course>
  <speed>0.022360679774997897</speed>
  <fix>3d</fix>
</trkpt>
<trkpt lat="33.810313" lon="-118.393867">
  <ele>-33.08</ele>
  <time>2026-09-02T22:07:51Z</time>
  <course>0.0</course>
  <speed>0.0</speed>
  <fix>3d</fix>
</trkpt>
<trkpt lat="33.8103132" lon="-118.3938671">
  <ele>-34.024</ele>
  <time>2026-09-02T22:07:51Z</time>
  <course>185.43</course>
  <speed>0.022360679774997897</speed>
  <fix>3d</fix>
</trkpt>
<trkpt lat="33.8103132" lon="-118.3938671">
  <ele>-34.083</ele>
  <time>2026-09-02T22:07:51Z</time>
  <course>185.43</course>
  <speed>0.022360679774997897</speed>
  <fix>3d</fix>
</trkpt>
<trkpt lat="33.810313" lon="-118.393867">
  <ele>-33.08</ele>
  <time>2026-09-02T22:07:51Z</time>
  <course>0.0</course>
  <speed>0.0</speed>
  <fix>3d</fix>
</trkpt>
<trkpt lat="33.8103132" lon="-118.3938671">
  <ele>-34.103</ele>
  <time>2026-09-02T22:07:51Z</time>
  <course>185.43</course>
  <speed>0.022360679774997897</speed>
  <fix>3d</fix>
</trkpt>
<trkpt lat="33.8103132" lon="-118.3938671">
  <ele>-34.142</ele>
  <time>2026-09-02T22:07:51Z</time>
  <course>185.43</course>
  <speed>0.022360679774997897</speed>
  <fix>3d</fix>
</trkpt>
<trkpt lat="33.810313" lon="-118.393867">
  <ele>-33.19</ele>
  <time>2026-09-02T22:07:51Z</time>
  <course>0.0</course>
  <speed>0.0</speed>
  <fix>3d</fix>
</trkpt>
<trkpt lat="33.8103132" lon="-118.3938671">
  <ele>-34.143</ele>
  <time>2026-09-02T22:07:51Z</time>
  <course>185.43</course>
  <speed>0.022360679774997897</speed>
  <fix>3d</fix>
</trkpt>
<trkpt lat="33.8103132" lon="-118.3938671">
  <ele>-34.202</ele>
  <time>2026-09-02T22:07:51Z</time>
  <course>185.42</course>
  <speed>0.022360679774997897</speed>
  <fix>3d</fix>
</trkpt>
<trkpt lat="33.810313" lon="-118.393867">
  <ele>-33.19</ele>
  <time>2026-09-02T22:07:51Z</time>
  <course>0.0</course>
  <speed>0.0</speed>
  <fix>3d</fix>
</trkpt>
<trkpt lat="33.8103132" lon="-118.3938671">
  <ele>-34.204</ele>
  <time>2026-09-02T22:07:51Z</time>
  <course>185.42</course>
  <speed>0.022360679774997897</speed>
  <fix>3d</fix>
</trkpt>
<trkpt lat="33.8103132" lon="-118.3938671">
  <ele>-34.263</ele>
  <time>2026-09-02T22:07:51Z</time>
  <course>185.42</course>
  <speed>0.022360679774997897</speed>
  <fix>3d</fix>
</trkpt>
<trkpt lat="33.810313" lon="-118.393867">
  <ele>-33.32</ele>
  <time>2026-09-02T22:07:51Z</time>
  <course>0.0</course>
  <speed>0.0</speed>
  <fix>3d</fix>
</trkpt>
<trkpt lat="33.8103132" lon="-118.3938671">
  <ele>-34.283</ele>
  <time>2026-09-02T22:07:51Z</time>
  <course>185.42</course>
  <speed>0.022360679774997897</speed>
  <fix>3d</fix>
</trkpt>
<trkpt lat="33.8103132" lon="-118.3938671">
  <ele>-34.325</ele>
  <time>2026-09-02T22:07:51Z</time>
  <course>185.42</course>
  <speed>0.022360679774997897</speed>
  <fix>3d</fix>
</trkpt>
<trkpt lat="33.810313" lon="-118.393867">
  <ele>-33.32</ele>
  <time>2026-09-02T22:07:51Z</time>
  <course>0.0</course>
  <speed>0.0</speed>
  <fix>3d</fix>
</trkpt>
<trkpt lat="33.8103132" lon="-118.3938671">
  <ele>-34.326</ele>
  <time>2026-09-02T22:07:51Z</time>
  <course>185.42</course>
  <speed>0.022360679774997897</speed>
  <fix>3d</fix>
</trkpt>
<trkpt lat="33.8103132" lon="-118.3938671">
  <ele>-34.387</ele>
  <time>2026-09-02T22:07:51Z</time>
  <course>185.42</course>
  <speed>0.022360679774997897</speed>
  <fix>3d</fix>
</trkpt>
<trkpt lat="33.810313" lon="-118.393867">
  <ele>-33.44</ele>
  <time>2026-09-02T22:07:51Z</time>
  <course>0.0</course>
  <speed>0.0</speed>
  <fix>3d</fix>
</trkpt>
<trkpt lat="33.8103132" lon="-118.3938671">
  <ele>-34.405</ele>
  <time>2026-09-02T22:07:51Z</time>
  <course>185.42</course>
  <speed>0.022360679774997897</speed>
  <fix>3d</fix>
</trkpt>
<trkpt lat="33.8103132" lon="-118.3938671">
  <ele>-34.448</ele>
  <time>2026-09-02T22:07:51Z</time>
  <course>185.41</course>
  <speed>0.022360679774997897</speed>
  <fix>3d</fix>
</trkpt>
<trkpt lat="33.810313" lon="-118.393867">
  <ele>-33.44</ele>
  <time>2026-09-02T22:07:51Z</time>
  <course>0.0</course>
  <speed>0.0</speed>
  <fix>3d</fix>
</trkpt>
<trkpt lat="33.8103132" lon="-118.3938671">
  <ele>-34.467</ele>
  <time>2026-09-02T22:07:51Z</time>
  <course>185.41</course>
  <speed>0.022360679774997897</speed>
  <fix>3d</fix>
</trkpt>
<trkpt lat="33.8103132" lon="-118.3938671">
  <ele>-34.509</ele>
  <time>2026-09-02T22:07:51Z</time>
  <course>185.41</course>
  <speed>0.022360679774997897</speed>
  <fix>3d</fix>
</trkpt>
<trkpt lat="33.810313" lon="-118.393867">
  <ele>-33.55</ele>
  <time>2026-09-02T22:07:51Z</time>
  <course>0.0</course>
  <speed>0.0</speed>
  <fix>3d</fix>
</trkpt>
<trkpt lat="33.8103132" lon="-118.3938671">
  <ele>-34.511</ele>
  <time>2026-09-02T22:07:51Z</time>
  <course>185.41</course>
  <speed>0.022360679774997897</speed>
  <fix>3d</fix>
</trkpt>
<trkpt lat="33.8103132" lon="-118.3938671">
  <ele>-34.571</ele>
  <time>2026-09-02T22:07:51Z</time>
  <course>185.41</course>
  <speed>0.022360679774997897</speed>
  <fix>3d</fix>
</trkpt>
<trkpt lat="33.810313" lon="-118.393867">
  <ele>-33.55</ele>
  <time>2026-09-02T22:07:51Z</time>
  <course>0.0</course>
  <speed>0.0</speed>
  <fix>3d</fix>
</trkpt>
<trkpt lat="33.8103132" lon="-118.3938671">
  <ele>-34.59</ele>
  <time>2026-09-02T22:07:51Z</time>
  <course>185.41</course>
  <speed>0.022360679774997897</speed>
  <fix>3d</fix>
</trkpt>
<trkpt lat="33.8103132" lon="-118.3938671">
  <ele>-34.633</ele>
  <time>2026-09-02T22:07:51Z</time>
  <course>185.41</course>
  <speed>0.022360679774997897</speed>
  <fix>3d</fix>
</trkpt>
<trkpt lat="33.810313" lon="-118.393867">
  <ele>-33.68</ele>
  <time>2026-09-02T22:07:51Z</time>
  <course>0.0</course>
  <speed>0.0</speed>
  <fix>3d</fix>
</trkpt>
<trkpt lat="33.8103132" lon="-118.3938671">
  <ele>-34.635</ele>
  <time>2026-09-02T22:07:51Z</time>
  <course>185.41</course>
  <speed>0.022360679774997897</speed>
  <fix>3d</fix>
</trkpt>
<trkpt lat="33.8103132" lon="-118.3938671">
  <ele>-34.695</ele>
  <time>2026-09-02T22:07:51Z</time>
  <course>185.41</course>
  <speed>0.022360679774997897</speed>
  <fix>3d</fix>
</trkpt>
<trkpt lat="33.810313" lon="-118.393867">
  <ele>-33.68</ele>
  <time>2026-09-02T22:07:51Z</time>
  <course>0.0</course>
  <speed>0.0</speed>
  <fix>3d</fix>
</trkpt>
<trkpt lat="33.8103132" lon="-118.3938671">
  <ele>-34.715</ele>
  <time>2026-09-02T22:07:51Z</time>
  <course>185.41</course>
  <speed>0.022360679774997897</speed>
  <fix>3d</fix>
</trkpt>
<trkpt lat="33.8103132" lon="-118.3938671">
  <ele>-34.757</ele>
  <time>2026-09-02T22:07:51Z</time>
  <course>185.4</course>
  <speed>0.022360679774997897</speed>
  <fix>3d</fix>
</trkpt>
<trkpt lat="33.810313" lon="-118.393867">
  <ele>-33.8</ele>
  <time>2026-09-02T22:07:51Z</time>
  <course>0.0</course>
  <speed>0.0</speed>
  <fix>3d</fix>
</trkpt>
<trkpt lat="33.8103132" lon="-118.3938671">
  <ele>-34.779</ele>
  <time>2026-09-02T22:07:51Z</time>
  <course>185.4</course>
  <speed>0.022360679774997897</speed>
  <fix>3d</fix>
</trkpt>
<trkpt lat="33.8103132" lon="-118.3938671">
  <ele>-34.82</ele>
  <time>2026-09-02T22:07:51Z</time>
  <course>185.4</course>
  <speed>0.022360679774997897</speed>
  <fix>3d</fix>
</trkpt>
<trkpt lat="33.810313" lon="-118.393867">
  <ele>-33.8</ele>
  <time>2026-09-02T22:07:51Z</time>
  <course>0.0</course>
  <speed>0.0</speed>
  <fix>3d</fix>
</trkpt>
<trkpt lat="33.8103132" lon="-118.3938671">
  <ele>-34.84</ele>
  <time>2026-09-02T22:07:51Z</time>
  <course>185.4</course>
  <speed>0.022360679774997897</speed>
  <fix>3d</fix>
</trkpt>
<trkpt lat="33.8103132" lon="-118.3938671">
  <ele>-34.883</ele>
  <time>2026-09-02T22:07:51Z</time>
  <course>185.4</course>
  <speed>0.022360679774997897</speed>
  <fix>3d</fix>
</trkpt>
<trkpt lat="33.810313" lon="-118.393867">
  <ele>-33.92</ele>
  <time>2026-09-02T22:07:51Z</time>
  <course>0.0</course>
  <speed>0.0</speed>
  <fix>3d</fix>
</trkpt>
<trkpt lat="33.8103132" lon="-118.3938671">
  <ele>-34.903</ele>
  <time>2026-09-02T22:07:51Z</time>
  <course>185.4</course>
  <speed>0.022360679774997897</speed>
  <fix>3d</fix>
</trkpt>
<trkpt lat="33.8103132" lon="-118.3938671">
  <ele>-34.946</ele>
  <time>2026-09-02T22:07:51Z</time>
  <course>185.4</course>
  <speed>0.022360679774997897</speed>
  <fix>3d</fix>
</trkpt>
<trkpt lat="33.810313" lon="-118.393867">
  <ele>-33.92</ele>
  <time>2026-09-02T22:07:51Z</time>
  <course>0.0</course>
  <speed>0.0</speed>
  <fix>3d</fix>
</trkpt>
<trkpt lat="33.8103132" lon="-118.3938671">
  <ele>-34.947</ele>
  <time>2026-09-02T22:07:51Z</time>
  <course>185.4</course>
  <speed>0.022360679774997897</speed>
  <fix>3d</fix>
</trkpt>
<trkpt lat="33.8103132" lon="-118.3938671">
  <ele>-35.008</ele>
  <time>2026-09-02T22:07:51Z</time>
  <course>185.4</course>
  <speed>0.022360679774997897</speed>
  <fix>3d</fix>
</trkpt>
<trkpt lat="33.810313" lon="-118.393867">
  <ele>-34.04</ele>
  <time>2026-09-02T22:07:51Z</time>
  <course>0.0</course>
  <speed>0.0</speed>
  <fix>3d</fix>
</trkpt>
<trkpt lat="33.8103132" lon="-118.3938671">
  <ele>-35.028</ele>
  <time>2026-09-02T22:07:51Z</time>
  <course>185.39</course>
  <speed>0.022360679774997897</speed>
  <fix>3d</fix>
</trkpt>
<trkpt lat="33.8103132" lon="-118.3938671">
  <ele>-35.07</ele>
  <time>2026-09-02T22:07:51Z</time>
  <course>185.39</course>
  <speed>0.022360679774997897</speed>
  <fix>3d</fix>
</trkpt>
<trkpt lat="33.810313" lon="-118.393867">
  <ele>-34.04</ele>
  <time>2026-09-02T22:07:51Z</time>
  <course>0.0</course>
  <speed>0.0</speed>
  <fix>3d</fix>
</trkpt>
<trkpt lat="33.8103132" lon="-118.3938671">
  <ele>-35.119</ele>
  <time>2026-09-02T22:07:51Z</time>
  <course>185.39</course>
  <speed>0.022360679774997897</speed>
  <fix>3d</fix>
</trkpt>
<trkpt lat="33.810313" lon="-118.393867">
  <ele>-34.16</ele>
  <time>2026-09-02T22:07:51Z</time>
  <course>0.0</course>
  <speed>0.0</speed>
  <fix>3d</fix>
</trkpt>
<trkpt lat="33.8103132" lon="-118.3938671">
  <ele>-35.156</ele>
  <time>2026-09-02T22:07:51Z</time>
  <course>185.39</course>
  <speed>0.022360679774997897</speed>
  <fix>3d</fix>
</trkpt>
<trkpt lat="33.810313" lon="-118.393867">
  <ele>-34.16</ele>
  <time>2026-09-02T22:07:51Z</time>
  <course>0.0</course>
  <speed>0.0</speed>
  <fix>3d</fix>
</trkpt>
<trkpt lat="33.8103132" lon="-118.3938671">
  <ele>-35.185</ele>
  <time>2026-09-02T22:07:51Z</time>
  <course>185.39</course>
  <speed>0.022360679774997897</speed>
  <fix>3d</fix>
</trkpt>
<trkpt lat="33.810313" lon="-118.393867">
  <ele>-34.25</ele>
  <time>2026-09-02T22:07:51Z</time>
  <course>0.0</course>
  <speed>0.0</speed>
  <fix>3d</fix>
</trkpt>
<trkpt lat="33.8103132" lon="-118.3938671">
  <ele>-35.208</ele>
  <time>2026-09-02T22:07:51Z</time>
  <course>185.38</course>
  <speed>0.022360679774997897</speed>
  <fix>3d</fix>
</trkpt>
<trkpt lat="33.810313" lon="-118.393867">
  <ele>-34.25</ele>
  <time>2026-09-02T22:07:51Z</time>
  <course>0.0</course>
  <speed>0.0</speed>
  <fix>3d</fix>
</trkpt>
<trkpt lat="33.8103132" lon="-118.3938671">
  <ele>-35.227</ele>
  <time>2026-09-02T22:07:51Z</time>
  <course>185.38</course>
  <speed>0.022360679774997897</speed>
  <fix>3d</fix>
</trkpt>
<trkpt lat="33.810313" lon="-118.393867">
  <ele>-34.31</ele>
  <time>2026-09-02T22:07:51Z</time>
  <course>0.0</course>
  <speed>0.0</speed>
  <fix>3d</fix>
</trkpt>
<trkpt lat="33.8103132" lon="-118.3938671">
  <ele>-35.242</ele>
  <time>2026-09-02T22:07:51Z</time>
  <course>185.38</course>
  <speed>0.022360679774997897</speed>
  <fix>3d</fix>
</trkpt>
<trkpt lat="33.810313" lon="-118.393867">
  <ele>-34.31</ele>
  <time>2026-09-02T22:07:51Z</time>
  <course>0.0</course>
  <speed>0.0</speed>
  <fix>3d</fix>
</trkpt>
<trkpt lat="33.8103132" lon="-118.3938671">
  <ele>-35.254</ele>
  <time>2026-09-02T22:07:51Z</time>
  <course>185.38</course>
  <speed>0.022360679774997897</speed>
  <fix>3d</fix>
</trkpt>
<trkpt lat="33.810313" lon="-118.393867">
  <ele>-34.36</ele>
  <time>2026-09-02T22:07:51Z</time>
  <course>0.0</course>
  <speed>0.0</speed>
  <fix>3d</fix>
</trkpt>
<trkpt lat="33.8103132" lon="-118.3938671">
  <ele>-35.264</ele>
  <time>2026-09-02T22:07:51Z</time>
  <course>185.38</course>
  <speed>0.022360679774997897</speed>
  <fix>3d</fix>
</trkpt>
<trkpt lat="33.810313" lon="-118.393867">
  <ele>-34.36</ele>
  <time>2026-09-02T22:07:51Z</time>
  <course>0.0</course>
  <speed>0.0</speed>
  <fix>3d</fix>
</trkpt>
<trkpt lat="33.8103132" lon="-118.3938671">
  <ele>-35.273</ele>
  <time>2026-09-02T22:07:51Z</time>
  <course>185.37</course>
  <speed>0.022360679774997897</speed>
  <fix>3d</fix>
</trkpt>
<trkpt lat="33.810313" lon="-118.393867">
  <ele>-34.39</ele>
  <time>2026-09-02T22:07:51Z</time>
  <course>0.0</course>
  <speed>0.0</speed>
  <fix>3d</fix>
</trkpt>
<trkpt lat="33.8103132" lon="-118.3938671">
  <ele>-35.281</ele>
  <time>2026-09-02T22:07:51Z</time>
  <course>185.37</course>
  <speed>0.022360679774997897</speed>
  <fix>3d</fix>
</trkpt>
<trkpt lat="33.810313" lon="-118.393867">
  <ele>-34.39</ele>
  <time>2026-09-02T22:07:51Z</time>
  <course>0.0</course>
  <speed>0.0</speed>
  <fix>3d</fix>
</trkpt>
<trkpt lat="33.8103132" lon="-118.3938671">
  <ele>-35.289</ele>
  <time>2026-09-02T22:07:51Z</time>
  <course>185.37</course>
  <speed>0.022360679774997897</speed>
  <fix>3d</fix>
</trkpt>
<trkpt lat="33.810313" lon="-118.393867">
  <ele>-34.41</ele>
  <time>2026-09-02T22:07:51Z</time>
  <course>0.0</course>
  <speed>0.0</speed>
  <fix>3d</fix>
</trkpt>
<trkpt lat="33.8103132" lon="-118.3938671">
  <ele>-35.295</ele>
  <time>2026-09-02T22:07:51Z</time>
  <course>185.37</course>
  <speed>0.022360679774997897</speed>
  <fix>3d</fix>
</trkpt>
<trkpt lat="33.810313" lon="-118.393867">
  <ele>-34.41</ele>
  <time>2026-09-02T22:07:51Z</time>
  <course>0.0</course>
  <speed>0.0</speed>
  <fix>3d</fix>
</trkpt>
<trkpt lat="33.8103132" lon="-118.3938671">
  <ele>-35.301</ele>
  <time>2026-09-02T22:07:51Z</time>
  <course>185.37</course>
  <speed>0.022360679774997897</speed>
  <fix>3d</fix>
</trkpt>
<trkpt lat="33.810313" lon="-118.393867">
  <ele>-34.43</ele>
  <time>2026-09-02T22:07:51Z</time>
  <course>0.0</course>
  <speed>0.0</speed>
  <fix>3d</fix>
</trkpt>
<trkpt lat="33.8103132" lon="-118.3938671">
  <ele>-35.307</ele>
  <time>2026-09-02T22:07:51Z</time>
  <course>185.37</course>
  <speed>0.022360679774997897</speed>
  <fix>3d</fix>
</trkpt>
<trkpt lat="33.810313" lon="-118.393867">
  <ele>-34.43</ele>
  <time>2026-09-02T22:07:51Z</time>
  <course>0.0</course>
  <speed>0.0</speed>
  <fix>3d</fix>
</trkpt>
<trkpt lat="33.8103132" lon="-118.3938671">
  <ele>-35.312</ele>
  <time>2026-09-02T22:07:51Z</time>
  <course>185.36</course>
  <speed>0.022360679774997897</speed>
  <fix>3d</fix>
</trkpt>
<trkpt lat="33.810313" lon="-118.393867">
  <ele>-34.44</ele>
  <time>2026-09-02T22:07:51Z</time>
  <course>0.0</course>
  <speed>0.0</speed>
  <fix>3d</fix>
</trkpt>
<trkpt lat="33.8103132" lon="-118.3938671">
  <ele>-35.313</ele>
  <time>2026-09-02T22:07:51Z</time>
  <course>185.36</course>
  <speed>0.022360679774997897</speed>
  <fix>3d</fix>
</trkpt>
<trkpt lat="33.810313" lon="-118.393867">
  <ele>-34.44</ele>
  <time>2026-09-02T22:07:51Z</time>
  <course>0.0</course>
  <speed>0.0</speed>
  <fix>3d</fix>
</trkpt>
<trkpt lat="33.8103132" lon="-118.3938671">
  <ele>-35.301</ele>
  <time>2026-09-02T22:07:51Z</time>
  <course>185.36</course>
  <speed>0.022360679774997897</speed>
  <fix>3d</fix>
</trkpt>
<trkpt lat="33.810313" lon="-118.393867">
  <ele>-34.45</ele>
  <time>2026-09-02T22:07:51Z</time>
  <course>95.0</course>
  <speed>0.0</speed>
  <fix>3d</fix>
</trkpt>
<trkpt lat="33.8103132" lon="-118.3938671">
  <ele>-35.271</ele>
  <time>2026-09-02T22:07:51Z</time>
  <course>185.36</course>
  <speed>0.022360679774997897</speed>
  <fix>3d</fix>
</trkpt>
<trkpt lat="33.810313" lon="-118.393867">
  <ele>-34.45</ele>
  <time>2026-09-02T22:07:51Z</time>
  <course>95.0</course>
  <speed>0.0</speed>
  <fix>3d</fix>
</trkpt>
<trkpt lat="33.8103132" lon="-118.3938671">
  <ele>-35.229</ele>
  <time>2026-09-02T22:07:51Z</time>
  <course>185.36</course>
  <speed>0.022360679774997897</speed>
  <fix>3d</fix>
</trkpt>
<trkpt lat="33.810313" lon="-118.393867">
  <ele>-34.43</ele>
  <time>2026-09-02T22:07:51Z</time>
  <course>95.0</course>
  <speed>0.0</speed>
  <fix>3d</fix>
</trkpt>
<trkpt lat="33.8103132" lon="-118.3938671">
  <ele>-35.18</ele>
  <time>2026-09-02T22:07:51Z</time>
  <course>185.35</course>
  <speed>0.022360679774997897</speed>
  <fix>3d</fix>
</trkpt>
<trkpt lat="33.810313" lon="-118.393867">
  <ele>-34.43</ele>
  <time>2026-09-02T22:07:51Z</time>
  <course>95.0</course>
  <speed>0.0</speed>
  <fix>3d</fix>
</trkpt>
<trkpt lat="33.8103132" lon="-118.3938671">
  <ele>-35.13</ele>
  <time>2026-09-02T22:07:51Z</time>
  <course>185.35</course>
  <speed>0.022360679774997897</speed>
  <fix>3d</fix>
</trkpt>
<trkpt lat="33.810313" lon="-118.393867">
  <ele>-34.35</ele>
  <time>2026-09-02T22:07:51Z</time>
  <course>95.0</course>
  <speed>0.0</speed>
  <fix>3d</fix>
</trkpt>
<trkpt lat="33.8103132" lon="-118.3938671">
  <ele>-35.08</ele>
  <time>2026-09-02T22:07:51Z</time>
  <course>185.35</course>
  <speed>0.022360679774997897</speed>
  <fix>3d</fix>
</trkpt>
<trkpt lat="33.810313" lon="-118.393867">
  <ele>-34.35</ele>
  <time>2026-09-02T22:07:51Z</time>
  <course>95.0</course>
  <speed>0.0</speed>
  <fix>3d</fix>
</trkpt>
<trkpt lat="33.8103132" lon="-118.3938671">
  <ele>-35.032</ele>
  <time>2026-09-02T22:07:51Z</time>
  <course>185.35</course>
  <speed>0.022360679774997897</speed>
  <fix>3d</fix>
</trkpt>
<trkpt lat="33.810313" lon="-118.393867">
  <ele>-34.27</ele>
  <time>2026-09-02T22:07:51Z</time>
  <course>95.0</course>
  <speed>0.0</speed>
  <fix>3d</fix>
</trkpt>
<trkpt lat="33.8103132" lon="-118.3938671">
  <ele>-34.988</ele>
  <time>2026-09-02T22:07:51Z</time>
  <course>185.57</course>
  <speed>0.022360679774997897</speed>
  <fix>3d</fix>
</trkpt>
<trkpt lat="33.810313" lon="-118.393867">
  <ele>-34.27</ele>
  <time>2026-09-02T22:07:51Z</time>
  <course>95.0</course>
  <speed>0.0</speed>
  <fix>3d</fix>
</trkpt>
<trkpt lat="33.8103132" lon="-118.3938671">
  <ele>-34.948</ele>
  <time>2026-09-02T22:07:51Z</time>
  <course>186.56</course>
  <speed>0.022360679774997897</speed>
  <fix>3d</fix>
</trkpt>
<trkpt lat="33.810313" lon="-118.393867">
  <ele>-34.19</ele>
  <time>2026-09-02T22:07:51Z</time>
  <course>94.99</course>
  <speed>0.0</speed>
  <fix>3d</fix>
</trkpt>
<trkpt lat="33.8103132" lon="-118.3938671">
  <ele>-34.913</ele>
  <time>2026-09-02T22:07:51Z</time>
  <course>188.06</course>
  <speed>0.022360679774997897</speed>
  <fix>3d</fix>
</trkpt>
<trkpt lat="33.810313" lon="-118.393867">
  <ele>-34.19</ele>
  <time>2026-09-02T22:07:51Z</time>
  <course>94.99</course>
  <speed>0.0</speed>
  <fix>3d</fix>
</trkpt>
<trkpt lat="33.8103132" lon="-118.3938671">
  <ele>-34.882</ele>
  <time>2026-09-02T22:07:51Z</time>
  <course>189.78</course>
  <speed>0.022360679774997897</speed>
  <fix>3d</fix>
</trkpt>
<trkpt lat="33.810313" lon="-118.393867">
  <ele>-34.12</ele>
  <time>2026-09-02T22:07:51Z</time>
  <course>94.83</course>
  <speed>0.0</speed>
  <fix>3d</fix>
</trkpt>
<trkpt lat="33.8103132" lon="-118.3938671">
  <ele>-34.857</ele>
  <time>2026-09-02T22:07:51Z</time>
  <course>191.61</course>
  <speed>0.022360679774997897</speed>
  <fix>3d</fix>
</trkpt>
<trkpt lat="33.810313" lon="-118.393867">
  <ele>-34.12</ele>
  <time>2026-09-02T22:07:51Z</time>
  <course>94.83</course>
  <speed>0.0</speed>
  <fix>3d</fix>
</trkpt>
<trkpt lat="33.8103132" lon="-118.3938671">
  <ele>-34.835</ele>
  <time>2026-09-02T22:07:51Z</time>
  <course>193.54</course>
  <speed>0.022360679774997897</speed>
  <fix>3d</fix>
</trkpt>
<trkpt lat="33.810313" lon="-118.393867">
  <ele>-34.06</ele>
  <time>2026-09-02T22:07:51Z</time>
  <course>93.7</course>
  <speed>0.0</speed>
  <fix>3d</fix>
</trkpt>
<trkpt lat="33.8103132" lon="-118.3938671">
  <ele>-34.82</ele>
  <time>2026-09-02T22:07:51Z</time>
  <course>195.53</course>
  <speed>0.022360679774997897</speed>
  <fix>3d</fix>
</trkpt>
<trkpt lat="33.810313" lon="-118.393867">
  <ele>-34.06</ele>
  <time>2026-09-02T22:07:51Z</time>
  <course>93.7</course>
  <speed>0.0</speed>
  <fix>3d</fix>
</trkpt>
<trkpt lat="33.8103132" lon="-118.3938671">
  <ele>-34.813</ele>
  <time>2026-09-02T22:07:51Z</time>
  <course>197.59</course>
  <speed>0.022360679774997897</speed>
  <fix>3d</fix>
</trkpt>
<trkpt lat="33.810313" lon="-118.393867">
  <ele>-34.02</ele>
  <time>2026-09-02T22:07:51Z</time>
  <course>298.12</course>
  <speed>0.0</speed>
  <fix>3d</fix>
</trkpt>
<trkpt lat="33.8103132" lon="-118.3938671">
  <ele>-34.813</ele>
  <time>2026-09-02T22:07:51Z</time>
  <course>199.7</course>
  <speed>0.022360679774997897</speed>
  <fix>3d</fix>
</trkpt>
<trkpt lat="33.810313" lon="-118.393867">
  <ele>-34.02</ele>
  <time>2026-09-02T22:07:51Z</time>
  <course>298.12</course>
  <speed>0.0</speed>
  <fix>3d</fix>
</trkpt>
<trkpt lat="33.8103132" lon="-118.3938671">
  <ele>-34.819</ele>
  <time>2026-09-02T22:07:51Z</time>
  <course>201.85</course>
  <speed>0.022360679774997897</speed>
  <fix>3d</fix>
</trkpt>
<trkpt lat="33.810313" lon="-118.393867">
  <ele>-34.01</ele>
  <time>2026-09-02T22:07:51Z</time>
  <course>288.19</course>
  <speed>0.0</speed>
  <fix>3d</fix>
</trkpt>
<trkpt lat="33.8103132" lon="-118.3938671">
  <ele>-34.833</ele>
  <time>2026-09-02T22:07:51Z</time>
  <course>204.04</course>
  <speed>0.022360679774997897</speed>
  <fix>3d</fix>
</trkpt>
<trkpt lat="33.810313" lon="-118.393867">
  <ele>-34.01</ele>
  <time>2026-09-02T22:07:51Z</time>
  <course>288.19</course>
  <speed>0.0</speed>
  <fix>3d</fix>
</trkpt>
<trkpt lat="33.8103132" lon="-118.3938671">
  <ele>-34.853</ele>
  <time>2026-09-02T22:07:51Z</time>
  <course>206.27</course>
  <speed>0.022360679774997897</speed>
  <fix>3d</fix>
</trkpt>
<trkpt lat="33.810313" lon="-118.393867">
  <ele>-34.01</ele>
  <time>2026-09-02T22:07:51Z</time>
  <course>289.44</course>
  <speed>0.0</speed>
  <fix>3d</fix>
</trkpt>
<trkpt lat="33.8103132" lon="-118.3938671">
  <ele>-34.876</ele>
  <time>2026-09-02T22:07:51Z</time>
  <course>208.52</course>
  <speed>0.022360679774997897</speed>
  <fix>3d</fix>
</trkpt>
<trkpt lat="33.810313" lon="-118.393867">
  <ele>-34.01</ele>
  <time>2026-09-02T22:07:51Z</time>
  <course>289.44</course>
  <speed>0.0</speed>
  <fix>3d</fix>
</trkpt>
<trkpt lat="33.8103132" lon="-118.3938671">
  <ele>-34.901</ele>
  <time>2026-09-02T22:07:51Z</time>
  <course>210.81</course>
  <speed>0.022360679774997897</speed>
  <fix>3d</fix>
</trkpt>
<trkpt lat="33.810313" lon="-118.393867">
  <ele>-34.05</ele>
  <time>2026-09-02T22:07:51Z</time>
  <course>290.43</course>
  <speed>0.0</speed>
  <fix>3d</fix>
</trkpt>
<trkpt lat="33.8103132" lon="-118.3938671">
  <ele>-34.927</ele>
  <time>2026-09-02T22:07:51Z</time>
  <course>213.11</course>
  <speed>0.022360679774997897</speed>
  <fix>3d</fix>
</trkpt>
<trkpt lat="33.810313" lon="-118.393867">
  <ele>-34.05</ele>
  <time>2026-09-02T22:07:51Z</time>
  <course>290.43</course>
  <speed>0.0</speed>
  <fix>3d</fix>
</trkpt>
<trkpt lat="33.8103132" lon="-118.3938671">
  <ele>-34.951</ele>
  <time>2026-09-02T22:07:51Z</time>
  <course>215.44</course>
  <speed>0.022360679774997897</speed>
  <fix>3d</fix>
</trkpt>
<trkpt lat="33.810313" lon="-118.393867">
  <ele>-34.09</ele>
  <time>2026-09-02T22:07:51Z</time>
  <course>290.89</course>
  <speed>0.0</speed>
  <fix>3d</fix>
</trkpt>
<trkpt lat="33.8103132" lon="-118.3938671">
  <ele>-34.973</ele>
  <time>2026-09-02T22:07:51Z</time>
  <course>217.79</course>
  <speed>0.022360679774997897</speed>
  <fix>3d</fix>
</trkpt>
<trkpt lat="33.810313" lon="-118.393867">
  <ele>-34.09</ele>
  <time>2026-09-02T22:07:51Z</time>
  <course>290.89</course>
  <speed>0.0</speed>
  <fix>3d</fix>
</trkpt>
<trkpt lat="33.8103132" lon="-118.3938671">
  <ele>-34.992</ele>
  <time>2026-09-02T22:07:51Z</time>
  <course>220.17</course>
  <speed>0.01414213562373095</speed>
  <fix>3d</fix>
</trkpt>
<trkpt lat="33.810313" lon="-118.393867">
  <ele>-34.13</ele>
  <time>2026-09-02T22:07:51Z</time>
  <course>290.21</course>
  <speed>0.0</speed>
  <fix>3d</fix>
</trkpt>
<trkpt lat="33.8103132" lon="-118.3938671">
  <ele>-35.01</ele>
  <time>2026-09-02T22:07:51Z</time>
  <course>222.55</course>
  <speed>0.022360679774997897</speed>
  <fix>3d</fix>
</trkpt>
<trkpt lat="33.810313" lon="-118.393867">
  <ele>-34.13</ele>
  <time>2026-09-02T22:07:51Z</time>
  <course>290.21</course>
  <speed>0.0</speed>
  <fix>3d</fix>
</trkpt>
<trkpt lat="33.8103132" lon="-118.3938671">
  <ele>-35.025</ele>
  <time>2026-09-02T22:07:51Z</time>
  <course>224.95</course>
  <speed>0.022360679774997897</speed>
  <fix>3d</fix>
</trkpt>
<trkpt lat="33.810313" lon="-118.393867">
  <ele>-34.16</ele>
  <time>2026-09-02T22:07:51Z</time>
  <course>288.99</course>
  <speed>0.0</speed>
  <fix>3d</fix>
</trkpt>
<trkpt lat="33.8103132" lon="-118.3938671">
  <ele>-35.039</ele>
  <time>2026-09-02T22:07:51Z</time>
  <course>227.36</course>
  <speed>0.022360679774997897</speed>
  <fix>3d</fix>
</trkpt>
<trkpt lat="33.810313" lon="-118.393867">
  <ele>-34.16</ele>
  <time>2026-09-02T22:07:51Z</time>
  <course>288.99</course>
  <speed>0.0</speed>
  <fix>3d</fix>
</trkpt>
<trkpt lat="33.8103132" lon="-118.3938671">
  <ele>-35.052</ele>
  <time>2026-09-02T22:07:51Z</time>
  <course>229.78</course>
  <speed>0.022360679774997897</speed>
  <fix>3d</fix>
</trkpt>
<trkpt lat="33.810313" lon="-118.393867">
  <ele>-34.19</ele>
  <time>2026-09-02T22:07:51Z</time>
  <course>288.79</course>
  <speed>0.0</speed>
  <fix>3d</fix>
</trkpt>
<trkpt lat="33.8103132" lon="-118.3938671">
  <ele>-35.064</ele>
  <time>2026-09-02T22:07:51Z</time>
  <course>232.22</course>
  <speed>0.022360679774997897</speed>
  <fix>3d</fix>
</trkpt>
<trkpt lat="33.810313" lon="-118.393867">
  <ele>-34.19</ele>
  <time>2026-09-02T22:07:51Z</time>
  <course>288.79</course>
  <speed>0.0</speed>
  <fix>3d</fix>
</trkpt>
<trkpt lat="33.8103132" lon="-118.3938671">
  <ele>-35.073</ele>
  <time>2026-09-02T22:07:51Z</time>
  <course>234.67</course>
  <speed>0.022360679774997897</speed>
  <fix>3d</fix>
</trkpt>
<trkpt lat="33.810313" lon="-118.393867">
  <ele>-34.21</ele>
  <time>2026-09-02T22:07:51Z</time>
  <course>289.31</course>
  <speed>0.0</speed>
  <fix>3d</fix>
</trkpt>
<trkpt lat="33.8103132" lon="-118.3938672">
  <ele>-35.081</ele>
  <time>2026-09-02T22:07:51Z</time>
  <course>237.12</course>
  <speed>0.022360679774997897</speed>
  <fix>3d</fix>
</trkpt>
<trkpt lat="33.810313" lon="-118.393867">
  <ele>-34.21</ele>
  <time>2026-09-02T22:07:51Z</time>
  <course>289.31</course>
  <speed>0.0</speed>
  <fix>3d</fix>
</trkpt>
<trkpt lat="33.8103132" lon="-118.3938672">
  <ele>-35.088</ele>
  <time>2026-09-02T22:07:51Z</time>
  <course>239.57</course>
  <speed>0.022360679774997897</speed>
  <fix>3d</fix>
</trkpt>
<trkpt lat="33.810313" lon="-118.393867">
  <ele>-34.23</ele>
  <time>2026-09-02T22:07:51Z</time>
  <course>289.36</course>
  <speed>0.0</speed>
  <fix>3d</fix>
</trkpt>
<trkpt lat="33.8103132" lon="-118.3938672">
  <ele>-35.093</ele>
  <time>2026-09-02T22:07:51Z</time>
  <course>242.04</course>
  <speed>0.022360679774997897</speed>
  <fix>3d</fix>
</trkpt>
<trkpt lat="33.810313" lon="-118.393867">
  <ele>-34.23</ele>
  <time>2026-09-02T22:07:51Z</time>
  <course>289.36</course>
  <speed>0.0</speed>
  <fix>3d</fix>
</trkpt>
<trkpt lat="33.8103132" lon="-118.3938672">
  <ele>-35.098</ele>
  <time>2026-09-02T22:07:51Z</time>
  <course>244.53</course>
  <speed>0.022360679774997897</speed>
  <fix>3d</fix>
</trkpt>
<trkpt lat="33.810313" lon="-118.393867">
  <ele>-34.24</ele>
  <time>2026-09-02T22:07:51Z</time>
  <course>288.39</course>
  <speed>0.0</speed>
  <fix>3d</fix>
</trkpt>
<trkpt lat="33.8103132" lon="-118.3938672">
  <ele>-35.101</ele>
  <time>2026-09-02T22:07:51Z</time>
  <course>247.01</course>
  <speed>0.022360679774997897</speed>
  <fix>3d</fix>
</trkpt>
<trkpt lat="33.810313" lon="-118.393867">
  <ele>-34.24</ele>
  <time>2026-09-02T22:07:51Z</time>
  <course>288.39</course>
  <speed>0.0</speed>
  <fix>3d</fix>
</trkpt>
<trkpt lat="33.8103132" lon="-118.3938672">
  <ele>-35.101</ele>
  <time>2026-09-02T22:07:51Z</time>
  <course>249.5</course>
  <speed>0.022360679774997897</speed>
  <fix>3d</fix>
</trkpt>
<trkpt lat="33.810313" lon="-118.393867">
  <ele>-34.25</ele>
  <time>2026-09-02T22:07:51Z</time>
  <course>284.62</course>
  <speed>0.0</speed>
  <fix>3d</fix>
</trkpt>
<trkpt lat="33.8103132" lon="-118.3938672">
  <ele>-35.097</ele>
  <time>2026-09-02T22:07:51Z</time>
  <course>251.99</course>
  <speed>0.022360679774997897</speed>
  <fix>3d</fix>
</trkpt>
<trkpt lat="33.810313" lon="-118.393867">
  <ele>-34.25</ele>
  <time>2026-09-02T22:07:51Z</time>
  <course>284.62</course>
  <speed>0.0</speed>
  <fix>3d</fix>
</trkpt>
<trkpt lat="33.8103132" lon="-118.3938672">
  <ele>-35.089</ele>
  <time>2026-09-02T22:07:51Z</time>
  <course>254.48</course>
  <speed>0.022360679774997897</speed>
  <fix>3d</fix>
</trkpt>
<trkpt lat="33.810313" lon="-118.393867">
  <ele>-34.25</ele>
  <time>2026-09-02T22:07:51Z</time>
  <course>273.21</course>
  <speed>0.0</speed>
  <fix>3d</fix>
</trkpt>
<trkpt lat="33.8103132" lon="-118.3938672">
  <ele>-35.077</ele>
  <time>2026-09-02T22:07:51Z</time>
  <course>256.97</course>
  <speed>0.022360679774997897</speed>
  <fix>3d</fix>
</trkpt>
<trkpt lat="33.810313" lon="-118.393867">
  <ele>-34.25</ele>
  <time>2026-09-02T22:07:51Z</time>
  <course>273.21</course>
  <speed>0.0</speed>
  <fix>3d</fix>
</trkpt>
<trkpt lat="33.8103132" lon="-118.3938672">
  <ele>-35.062</ele>
  <time>2026-09-02T22:07:51Z</time>
  <course>259.46</course>
  <speed>0.022360679774997897</speed>
  <fix>3d</fix>
</trkpt>
<trkpt lat="33.810313" lon="-118.393867">
  <ele>-34.23</ele>
  <time>2026-09-02T22:07:51Z</time>
  <course>255.7</course>
  <speed>0.0</speed>
  <fix>3d</fix>
</trkpt>
<trkpt lat="33.8103132" lon="-118.3938672">
  <ele>-35.046</ele>
  <time>2026-09-02T22:07:52Z</time>
  <course>261.96</course>
  <speed>0.022360679774997897</speed>
  <fix>3d</fix>
</trkpt>
<trkpt lat="33.810313" lon="-118.393867">
  <ele>-34.23</ele>
  <time>2026-09-02T22:07:52Z</time>
  <course>255.7</course>
  <speed>0.0</speed>
  <fix>3d</fix>
</trkpt>
<trkpt lat="33.8103132" lon="-118.3938672">
  <ele>-35.031</ele>
  <time>2026-09-02T22:07:52Z</time>
  <course>264.45</course>
  <speed>0.022360679774997897</speed>
  <fix>3d</fix>
</trkpt>
<trkpt lat="33.810313" lon="-118.393867">
  <ele>-34.21</ele>
  <time>2026-09-02T22:07:52Z</time>
  <course>246.79</course>
  <speed>0.0</speed>
  <fix>3d</fix>
</trkpt>
<trkpt lat="33.8103132" lon="-118.3938672">
  <ele>-35.016</ele>
  <time>2026-09-02T22:07:52Z</time>
  <course>266.95</course>
  <speed>0.022360679774997897</speed>
  <fix>3d</fix>
</trkpt>
<trkpt lat="33.810313" lon="-118.393867">
  <ele>-34.21</ele>
  <time>2026-09-02T22:07:52Z</time>
  <course>246.79</course>
  <speed>0.0</speed>
  <fix>3d</fix>
</trkpt>
<trkpt lat="33.8103132" lon="-118.3938672">
  <ele>-35.001</ele>
  <time>2026-09-02T22:07:52Z</time>
  <course>269.46</course>
  <speed>0.022360679774997897</speed>
  <fix>3d</fix>
</trkpt>
<trkpt lat="33.810313" lon="-118.393867">
  <ele>-34.18</ele>
  <time>2026-09-02T22:07:52Z</time>
  <course>249.13</course>
  <speed>0.0</speed>
  <fix>3d</fix>
</trkpt>
<trkpt lat="33.8103132" lon="-118.3938672">
  <ele>-34.988</ele>
  <time>2026-09-02T22:07:52Z</time>
  <course>271.99</course>
  <speed>0.022360679774997897</speed>
  <fix>3d</fix>
</trkpt>
<trkpt lat="33.810313" lon="-118.393867">
  <ele>-34.18</ele>
  <time>2026-09-02T22:07:52Z</time>
  <course>249.13</course>
  <speed>0.0</speed>
  <fix>3d</fix>
</trkpt>
<trkpt lat="33.8103132" lon="-118.3938672">
  <ele>-34.978</ele>
  <time>2026-09-02T22:07:52Z</time>
  <course>274.49</course>
  <speed>0.022360679774997897</speed>
  <fix>3d</fix>
</trkpt>
<trkpt lat="33.810313" lon="-118.393867">
  <ele>-34.15</ele>
  <time>2026-09-02T22:07:52Z</time>
  <course>256.88</course>
  <speed>0.0</speed>
  <fix>3d</fix>
</trkpt>
<trkpt lat="33.8103132" lon="-118.3938672">
  <ele>-34.971</ele>
  <time>2026-09-02T22:07:52Z</time>
  <course>277.0</course>
  <speed>0.022360679774997897</speed>
  <fix>3d</fix>
</trkpt>
<trkpt lat="33.810313" lon="-118.393867">
  <ele>-34.15</ele>
  <time>2026-09-02T22:07:52Z</time>
  <course>256.88</course>
  <speed>0.0</speed>
  <fix>3d</fix>
</trkpt>
<trkpt lat="33.8103132" lon="-118.3938672">
  <ele>-34.969</ele>
  <time>2026-09-02T22:07:52Z</time>
  <course>279.51</course>
  <speed>0.022360679774997897</speed>
  <fix>3d</fix>
</trkpt>
<trkpt lat="33.810313" lon="-118.393867">
  <ele>-34.13</ele>
  <time>2026-09-02T22:07:52Z</time>
  <course>273.89</course>
  <speed>0.0</speed>
  <fix>3d</fix>
</trkpt>
<trkpt lat="33.8103132" lon="-118.3938672">
  <ele>-34.971</ele>
  <time>2026-09-02T22:07:52Z</time>
  <course>282.02</course>
  <speed>0.022360679774997897</speed>
  <fix>3d</fix>
</trkpt>
<trkpt lat="33.810313" lon="-118.393867">
  <ele>-34.13</ele>
  <time>2026-09-02T22:07:52Z</time>
  <course>273.89</course>
  <speed>0.0</speed>
  <fix>3d</fix>
</trkpt>
<trkpt lat="33.8103132" lon="-118.3938672">
  <ele>-34.977</ele>
  <time>2026-09-02T22:07:52Z</time>
  <course>284.52</course>
  <speed>0.022360679774997897</speed>
  <fix>3d</fix>
</trkpt>
<trkpt lat="33.810313" lon="-118.393867">
  <ele>-34.13</ele>
  <time>2026-09-02T22:07:52Z</time>
  <course>298.76</course>
  <speed>0.0</speed>
  <fix>3d</fix>
</trkpt>
<trkpt lat="33.8103132" lon="-118.3938672">
  <ele>-34.986</ele>
  <time>2026-09-02T22:07:52Z</time>
  <course>287.02</course>
  <speed>0.022360679774997897</speed>
  <fix>3d</fix>
</trkpt>
<trkpt lat="33.810313" lon="-118.393867">
  <ele>-34.13</ele>
  <time>2026-09-02T22:07:52Z</time>
  <course>298.76</course>
  <speed>0.0</speed>
  <fix>3d</fix>
</trkpt>
<trkpt lat="33.8103132" lon="-118.3938672">
  <ele>-34.996</ele>
  <time>2026-09-02T22:07:52Z</time>
  <course>289.52</course>
  <speed>0.022360679774997897</speed>
  <fix>3d</fix>
</trkpt>
<trkpt lat="33.810313" lon="-118.393867">
  <ele>-34.15</ele>
  <time>2026-09-02T22:07:52Z</time>
  <course>313.66</course>
  <speed>0.0</speed>
  <fix>3d</fix>
</trkpt>
<trkpt lat="33.8103132" lon="-118.3938672">
  <ele>-35.006</ele>
  <time>2026-09-02T22:07:52Z</time>
  <course>292.02</course>
  <speed>0.022360679774997897</speed>
  <fix>3d</fix>
</trkpt>
<trkpt lat="33.810313" lon="-118.393867">
  <ele>-34.15</ele>
  <time>2026-09-02T22:07:52Z</time>
  <course>313.66</course>
  <speed>0.0</speed>
  <fix>3d</fix>
</trkpt>
<trkpt lat="33.8103132" lon="-118.3938672">
  <ele>-35.016</ele>
  <time>2026-09-02T22:07:52Z</time>
  <course>294.52</course>
  <speed>0.022360679774997897</speed>
  <fix>3d</fix>
</trkpt>
<trkpt lat="33.810313" lon="-118.393867">
  <ele>-34.17</ele>
  <time>2026-09-02T22:07:52Z</time>
  <course>318.22</course>
  <speed>0.0</speed>
  <fix>3d</fix>
</trkpt>
<trkpt lat="33.8103132" lon="-118.3938672">
  <ele>-35.025</ele>
  <time>2026-09-02T22:07:52Z</time>
  <course>297.02</course>
  <speed>0.022360679774997897</speed>
  <fix>3d</fix>
</trkpt>
<trkpt lat="33.810313" lon="-118.393867">
  <ele>-34.17</ele>
  <time>2026-09-02T22:07:52Z</time>
  <course>318.22</course>
  <speed>0.0</speed>
  <fix>3d</fix>
</trkpt>
<trkpt lat="33.8103132" lon="-118.3938672">
  <ele>-35.034</ele>
  <time>2026-09-02T22:07:52Z</time>
  <course>299.51</course>
  <speed>0.022360679774997897</speed>
  <fix>3d</fix>
</trkpt>
<trkpt lat="33.810313" lon="-118.393867">
  <ele>-34.19</ele>
  <time>2026-09-02T22:07:52Z</time>
  <course>318.32</course>
  <speed>0.0</speed>
  <fix>3d</fix>
</trkpt>
<trkpt lat="33.8103132" lon="-118.3938672">
  <ele>-35.042</ele>
  <time>2026-09-02T22:07:52Z</time>
  <course>302.01</course>
  <speed>0.022360679774997897</speed>
  <fix>3d</fix>
</trkpt>
<trkpt lat="33.810313" lon="-118.393867">
  <ele>-34.19</ele>
  <time>2026-09-02T22:07:52Z</time>
  <course>318.32</course>
  <speed>0.0</speed>
  <fix>3d</fix>
</trkpt>
<trkpt lat="33.8103132" lon="-118.3938672">
  <ele>-35.048</ele>
  <time>2026-09-02T22:07:52Z</time>
  <course>304.5</course>
  <speed>0.022360679774997897</speed>
  <fix>3d</fix>
</trkpt>
<trkpt lat="33.810313" lon="-118.393867">
  <ele>-34.2</ele>
  <time>2026-09-02T22:07:52Z</time>
  <course>318.63</course>
  <speed>0.0</speed>
  <fix>3d</fix>
</trkpt>
<trkpt lat="33.8103132" lon="-118.3938672">
  <ele>-35.05</ele>
  <time>2026-09-02T22:07:52Z</time>
  <course>307.0</course>
  <speed>0.01414213562373095</speed>
  <fix>3d</fix>
</trkpt>
<trkpt lat="33.810313" lon="-118.393867">
  <ele>-34.2</ele>
  <time>2026-09-02T22:07:52Z</time>
  <course>318.63</course>
  <speed>0.0</speed>
  <fix>3d</fix>
</trkpt>
<trkpt lat="33.8103132" lon="-118.3938672">
  <ele>-35.051</ele>
  <time>2026-09-02T22:07:52Z</time>
  <course>309.49</course>
  <speed>0.01414213562373095</speed>
  <fix>3d</fix>
</trkpt>
<trkpt lat="33.810313" lon="-118.393867">
  <ele>-34.21</ele>
  <time>2026-09-02T22:07:52Z</time>
  <course>319.18</course>
  <speed>0.0</speed>
  <fix>3d</fix>
</trkpt>
<trkpt lat="33.8103131" lon="-118.3938672">
  <ele>-35.052</ele>
  <time>2026-09-02T22:07:52Z</time>
  <course>311.99</course>
  <speed>0.01</speed>
  <fix>3d</fix>
</trkpt>
<trkpt lat="33.810313" lon="-118.393867">
  <ele>-34.21</ele>
  <time>2026-09-02T22:07:52Z</time>
  <course>319.18</course>
  <speed>0.0</speed>
  <fix>3d</fix>
</trkpt>
<trkpt lat="33.8103131" lon="-118.3938672">
  <ele>-35.051</ele>
  <time>2026-09-02T22:07:52Z</time>
  <course>314.48</course>
  <speed>0.01</speed>
  <fix>3d</fix>
</trkpt>
<trkpt lat="33.810313" lon="-118.393867">
  <ele>-34.22</ele>
  <time>2026-09-02T22:07:52Z</time>
  <course>317.6</course>
  <speed>0.0</speed>
  <fix>3d</fix>
</trkpt>
<trkpt lat="33.8103131" lon="-118.3938672">
  <ele>-35.049</ele>
  <time>2026-09-02T22:07:52Z</time>
  <course>316.97</course>
  <speed>0.01</speed>
  <fix>3d</fix>
</trkpt>
<trkpt lat="33.810313" lon="-118.393867">
  <ele>-34.22</ele>
  <time>2026-09-02T22:07:52Z</time>
  <course>317.6</course>
  <speed>0.0</speed>
  <fix>3d</fix>
</trkpt>
<trkpt lat="33.8103131" lon="-118.3938672">
  <ele>-35.044</ele>
  <time>2026-09-02T22:07:52Z</time>
  <course>319.47</course>
  <speed>0.01</speed>
  <fix>3d</fix>
</trkpt>
<trkpt lat="33.810313" lon="-118.393867">
  <ele>-34.21</ele>
  <time>2026-09-02T22:07:52Z</time>
  <course>314.31</course>
  <speed>0.0</speed>
  <fix>3d</fix>
</trkpt>
<trkpt lat="33.8103131" lon="-118.3938672">
  <ele>-35.036</ele>
  <time>2026-09-02T22:07:52Z</time>
  <course>321.96</course>
  <speed>0.01</speed>
  <fix>3d</fix>
</trkpt>
<trkpt lat="33.810313" lon="-118.393867">
  <ele>-34.21</ele>
  <time>2026-09-02T22:07:52Z</time>
  <course>314.31</course>
  <speed>0.0</speed>
  <fix>3d</fix>
</trkpt>
<trkpt lat="33.8103131" lon="-118.3938672">
  <ele>-35.026</ele>
  <time>2026-09-02T22:07:52Z</time>
  <course>324.48</course>
  <speed>0.01</speed>
  <fix>3d</fix>
</trkpt>
<trkpt lat="33.810313" lon="-118.393867">
  <ele>-34.19</ele>
  <time>2026-09-02T22:07:52Z</time>
  <course>310.95</course>
  <speed>0.0</speed>
  <fix>3d</fix>
</trkpt>
<trkpt lat="33.8103131" lon="-118.3938672">
  <ele>-35.016</ele>
  <time>2026-09-02T22:07:52Z</time>
  <course>326.97</course>
  <speed>0.01</speed>
  <fix>3d</fix>
</trkpt>
<trkpt lat="33.810313" lon="-118.393867">
  <ele>-34.19</ele>
  <time>2026-09-02T22:07:52Z</time>
  <course>310.95</course>
  <speed>0.0</speed>
  <fix>3d</fix>
</trkpt>
<trkpt lat="33.8103131" lon="-118.3938672">
  <ele>-35.007</ele>
  <time>2026-09-02T22:07:52Z</time>
  <course>329.45</course>
  <speed>0.01</speed>
  <fix>3d</fix>
</trkpt>
<trkpt lat="33.810313" lon="-118.393867">
  <ele>-34.18</ele>
  <time>2026-09-02T22:07:52Z</time>
  <course>309.94</course>
  <speed>0.0</speed>
  <fix>3d</fix>
</trkpt>
<trkpt lat="33.8103131" lon="-118.3938672">
  <ele>-34.998</ele>
  <time>2026-09-02T22:07:52Z</time>
  <course>331.92</course>
  <speed>0.01</speed>
  <fix>3d</fix>
</trkpt>
<trkpt lat="33.810313" lon="-118.393867">
  <ele>-34.18</ele>
  <time>2026-09-02T22:07:52Z</time>
  <course>309.94</course>
  <speed>0.0</speed>
  <fix>3d</fix>
</trkpt>
<trkpt lat="33.8103131" lon="-118.3938672">
  <ele>-34.989</ele>
  <time>2026-09-02T22:07:52Z</time>
  <course>334.39</course>
  <speed>0.01</speed>
  <fix>3d</fix>
</trkpt>
<trkpt lat="33.810313" lon="-118.393867">
  <ele>-34.16</ele>
  <time>2026-09-02T22:07:52Z</time>
  <course>310.32</course>
  <speed>0.0</speed>
  <fix>3d</fix>
</trkpt>
<trkpt lat="33.8103131" lon="-118.3938672">
  <ele>-34.982</ele>
  <time>2026-09-02T22:07:52Z</time>
  <course>336.86</course>
  <speed>0.01</speed>
  <fix>3d</fix>
</trkpt>
<trkpt lat="33.810313" lon="-118.393867">
  <ele>-34.16</ele>
  <time>2026-09-02T22:07:52Z</time>
  <course>310.32</course>
  <speed>0.0</speed>
  <fix>3d</fix>
</trkpt>
<trkpt lat="33.8103131" lon="-118.3938672">
  <ele>-34.977</ele>
  <time>2026-09-02T22:07:52Z</time>
  <course>339.32</course>
  <speed>0.01</speed>
  <fix>3d</fix>
</trkpt>
<trkpt lat="33.810313" lon="-118.393867">
  <ele>-34.15</ele>
  <time>2026-09-02T22:07:52Z</time>
  <course>308.8</course>
  <speed>0.0</speed>
  <fix>3d</fix>
</trkpt>
<trkpt lat="33.8103131" lon="-118.3938672">
  <ele>-34.973</ele>
  <time>2026-09-02T22:07:52Z</time>
  <course>341.78</course>
  <speed>0.01</speed>
  <fix>3d</fix>
</trkpt>
<trkpt lat="33.810313" lon="-118.393867">
  <ele>-34.15</ele>
  <time>2026-09-02T22:07:52Z</time>
  <course>308.8</course>
  <speed>0.0</speed>
  <fix>3d</fix>
</trkpt>
<trkpt lat="33.8103131" lon="-118.3938672">
  <ele>-34.969</ele>
  <time>2026-09-02T22:07:52Z</time>
  <course>344.24</course>
  <speed>0.01</speed>
  <fix>3d</fix>
</trkpt>
<trkpt lat="33.810313" lon="-118.393867">
  <ele>-34.13</ele>
  <time>2026-09-02T22:07:52Z</time>
  <course>308.55</course>
  <speed>0.0</speed>
  <fix>3d</fix>
</trkpt>
<trkpt lat="33.8103131" lon="-118.3938672">
  <ele>-34.967</ele>
  <time>2026-09-02T22:07:52Z</time>
  <course>346.7</course>
  <speed>0.0</speed>
  <fix>3d</fix>
</trkpt>
<trkpt lat="33.810313" lon="-118.393867">
  <ele>-34.13</ele>
  <time>2026-09-02T22:07:52Z</time>
  <course>308.55</course>
  <speed>0.0</speed>
  <fix>3d</fix>
</trkpt>
<trkpt lat="33.8103131" lon="-118.3938672">
  <ele>-34.966</ele>
  <time>2026-09-02T22:07:52Z</time>
  <course>349.16</course>
  <speed>0.0</speed>
  <fix>3d</fix>
</trkpt>
<trkpt lat="33.810313" lon="-118.393867">
  <ele>-34.13</ele>
  <time>2026-09-02T22:07:52Z</time>
  <course>313.02</course>
  <speed>0.0</speed>
  <fix>3d</fix>
</trkpt>
<trkpt lat="33.8103131" lon="-118.3938672">
  <ele>-34.966</ele>
  <time>2026-09-02T22:07:52Z</time>
  <course>351.62</course>
  <speed>0.0</speed>
  <fix>3d</fix>
</trkpt>
<trkpt lat="33.810313" lon="-118.393867">
  <ele>-34.13</ele>
  <time>2026-09-02T22:07:52Z</time>
  <course>313.02</course>
  <speed>0.0</speed>
  <fix>3d</fix>
</trkpt>
<trkpt lat="33.8103131" lon="-118.3938671">
  <ele>-34.967</ele>
  <time>2026-09-02T22:07:52Z</time>
  <course>354.07</course>
  <speed>0.0</speed>
  <fix>3d</fix>
</trkpt>
<trkpt lat="33.810313" lon="-118.393867">
  <ele>-34.13</ele>
  <time>2026-09-02T22:07:52Z</time>
  <course>319.88</course>
  <speed>0.0</speed>
  <fix>3d</fix>
</trkpt>
<trkpt lat="33.8103131" lon="-118.3938671">
  <ele>-34.969</ele>
  <time>2026-09-02T22:07:52Z</time>
  <course>356.53</course>
  <speed>0.0</speed>
  <fix>3d</fix>
</trkpt>
<trkpt lat="33.810313" lon="-118.393867">
  <ele>-34.13</ele>
  <time>2026-09-02T22:07:52Z</time>
  <course>319.88</course>
  <speed>0.0</speed>
  <fix>3d</fix>
</trkpt>
<trkpt lat="33.8103131" lon="-118.3938671">
  <ele>-34.97</ele>
  <time>2026-09-02T22:07:52Z</time>
  <course>358.98</course>
  <speed>0.0</speed>
  <fix>3d</fix>
</trkpt>
<trkpt lat="33.810313" lon="-118.393867">
  <ele>-34.13</ele>
  <time>2026-09-02T22:07:52Z</time>
  <course>324.51</course>
  <speed>0.0</speed>
  <fix>3d</fix>
</trkpt>
<trkpt lat="33.8103131" lon="-118.3938671">
  <ele>-34.972</ele>
  <time>2026-09-02T22:07:52Z</time>
  <course>1.43</course>
  <speed>0.0</speed>
  <fix>3d</fix>
</trkpt>
<trkpt lat="33.810313" lon="-118.393867">
  <ele>-34.13</ele>
  <time>2026-09-02T22:07:52Z</time>
  <course>324.51</course>
  <speed>0.0</speed>
  <fix>3d</fix>
</trkpt>
<trkpt lat="33.8103131" lon="-118.3938671">
  <ele>-34.977</ele>
  <time>2026-09-02T22:07:52Z</time>
  <course>3.88</course>
  <speed>0.0</speed>
  <fix>3d</fix>
</trkpt>
<trkpt lat="33.810313" lon="-118.393867">
  <ele>-34.13</ele>
  <time>2026-09-02T22:07:52Z</time>
  <course>326.32</course>
  <speed>0.0</speed>
  <fix>3d</fix>
</trkpt>
<trkpt lat="33.8103131" lon="-118.3938671">
  <ele>-34.982</ele>
  <time>2026-09-02T22:07:52Z</time>
  <course>6.34</course>
  <speed>0.0</speed>
  <fix>3d</fix>
</trkpt>
<trkpt lat="33.810313" lon="-118.393867">
  <ele>-34.13</ele>
  <time>2026-09-02T22:07:52Z</time>
  <course>326.32</course>
  <speed>0.0</speed>
  <fix>3d</fix>
</trkpt>
<trkpt lat="33.8103131" lon="-118.3938671">
  <ele>-34.988</ele>
  <time>2026-09-02T22:07:52Z</time>
  <course>8.8</course>
  <speed>0.0</speed>
  <fix>3d</fix>
</trkpt>
<trkpt lat="33.810313" lon="-118.393867">
  <ele>-34.14</ele>
  <time>2026-09-02T22:07:52Z</time>
  <course>326.83</course>
  <speed>0.0</speed>
  <fix>3d</fix>
</trkpt>
<trkpt lat="33.8103131" lon="-118.3938671">
  <ele>-34.991</ele>
  <time>2026-09-02T22:07:52Z</time>
  <course>11.25</course>
  <speed>0.0</speed>
  <fix>3d</fix>
</trkpt>
<trkpt lat="33.810313" lon="-118.393867">
  <ele>-34.14</ele>
  <time>2026-09-02T22:07:52Z</time>
  <course>326.83</course>
  <speed>0.0</speed>
  <fix>3d</fix>
</trkpt>
<trkpt lat="33.8103131" lon="-118.3938671">
  <ele>-34.994</ele>
  <time>2026-09-02T22:07:52Z</time>
  <course>13.73</course>
  <speed>0.0</speed>
  <fix>3d</fix>
</trkpt>
<trkpt lat="33.810313" lon="-118.393867">
  <ele>-34.15</ele>
  <time>2026-09-02T22:07:52Z</time>
  <course>326.64</course>
  <speed>0.0</speed>
  <fix>3d</fix>
</trkpt>
<trkpt lat="33.8103131" lon="-118.3938671">
  <ele>-34.995</ele>
  <time>2026-09-02T22:07:52Z</time>
  <course>16.18</course>
  <speed>0.0</speed>
  <fix>3d</fix>
</trkpt>
<trkpt lat="33.810313" lon="-118.393867">
  <ele>-34.15</ele>
  <time>2026-09-02T22:07:52Z</time>
  <course>326.64</course>
  <speed>0.0</speed>
  <fix>3d</fix>
</trkpt>
<trkpt lat="33.8103131" lon="-118.3938671">
  <ele>-34.995</ele>
  <time>2026-09-02T22:07:52Z</time>
  <course>18.64</course>
  <speed>0.0</speed>
  <fix>3d</fix>
</trkpt>
<trkpt lat="33.810313" lon="-118.393867">
  <ele>-34.16</ele>
  <time>2026-09-02T22:07:52Z</time>
  <course>325.79</course>
  <speed>0.0</speed>
  <fix>3d</fix>
</trkpt>
<trkpt lat="33.8103131" lon="-118.3938671">
  <ele>-34.996</ele>
  <time>2026-09-02T22:07:52Z</time>
  <course>21.09</course>
  <speed>0.0</speed>
  <fix>3d</fix>
</trkpt>
<trkpt lat="33.810313" lon="-118.393867">
  <ele>-34.16</ele>
  <time>2026-09-02T22:07:52Z</time>
  <course>325.79</course>
  <speed>0.0</speed>
  <fix>3d</fix>
</trkpt>
<trkpt lat="33.8103131" lon="-118.3938671">
  <ele>-34.997</ele>
  <time>2026-09-02T22:07:52Z</time>
  <course>23.55</course>
  <speed>0.0</speed>
  <fix>3d</fix>
</trkpt>
<trkpt lat="33.810313" lon="-118.393867">
  <ele>-34.16</ele>
  <time>2026-09-02T22:07:52Z</time>
  <course>326.2</course>
  <speed>0.0</speed>
  <fix>3d</fix>
</trkpt>
<trkpt lat="33.8103131" lon="-118.3938671">
  <ele>-35.0</ele>
  <time>2026-09-02T22:07:52Z</time>
  <course>25.99</course>
  <speed>0.0</speed>
  <fix>3d</fix>
</trkpt>
<trkpt lat="33.810313" lon="-118.393867">
  <ele>-34.16</ele>
  <time>2026-09-02T22:07:52Z</time>
  <course>326.2</course>
  <speed>0.0</speed>
  <fix>3d</fix>
</trkpt>
<trkpt lat="33.8103131" lon="-118.3938671">
  <ele>-35.005</ele>
  <time>2026-09-02T22:07:52Z</time>
  <course>28.43</course>
  <speed>0.0</speed>
  <fix>3d</fix>
</trkpt>
<trkpt lat="33.810313" lon="-118.393867">
  <ele>-34.16</ele>
  <time>2026-09-02T22:07:52Z</time>
  <course>330.68</course>
  <speed>0.0</speed>
  <fix>3d</fix>
</trkpt>
<trkpt lat="33.8103131" lon="-118.3938671">
  <ele>-35.011</ele>
  <time>2026-09-02T22:07:52Z</time>
  <course>30.87</course>
  <speed>0.0</speed>
  <fix>3d</fix>
</trkpt>
<trkpt lat="33.810313" lon="-118.393867">
  <ele>-34.16</ele>
  <time>2026-09-02T22:07:52Z</time>
  <course>330.68</course>
  <speed>0.0</speed>
  <fix>3d</fix>
</trkpt>
<trkpt lat="33.8103131" lon="-118.3938671">
  <ele>-35.016</ele>
  <time>2026-09-02T22:07:52Z</time>
  <course>33.31</course>
  <speed>0.0</speed>
  <fix>3d</fix>
</trkpt>
<trkpt lat="33.810313" lon="-118.393867">
  <ele>-34.17</ele>
  <time>2026-09-02T22:07:52Z</time>
  <course>335.7</course>
  <speed>0.0</speed>
  <fix>3d</fix>
</trkpt>
<trkpt lat="33.8103131" lon="-118.3938671">
  <ele>-35.023</ele>
  <time>2026-09-02T22:07:52Z</time>
  <course>35.75</course>
  <speed>0.0</speed>
  <fix>3d</fix>
</trkpt>
<trkpt lat="33.810313" lon="-118.393867">
  <ele>-34.17</ele>
  <time>2026-09-02T22:07:52Z</time>
  <course>335.7</course>
  <speed>0.0</speed>
  <fix>3d</fix>
</trkpt>
<trkpt lat="33.8103131" lon="-118.3938671">
  <ele>-35.031</ele>
  <time>2026-09-02T22:07:52Z</time>
  <course>38.18</course>
  <speed>0.0</speed>
  <fix>3d</fix>
</trkpt>
<trkpt lat="33.810313" lon="-118.393867">
  <ele>-34.18</ele>
  <time>2026-09-02T22:07:52Z</time>
  <course>337.5</course>
  <speed>0.0</speed>
  <fix>3d</fix>
</trkpt>
<trkpt lat="33.8103131" lon="-118.3938671">
  <ele>-35.039</ele>
  <time>2026-09-02T22:07:52Z</time>
  <course>40.62</course>
  <speed>0.0</speed>
  <fix>3d</fix>
</trkpt>
<trkpt lat="33.810313" lon="-118.393867">
  <ele>-34.18</ele>
  <time>2026-09-02T22:07:52Z</time>
  <course>337.5</course>
  <speed>0.0</speed>
  <fix>3d</fix>
</trkpt>
<trkpt lat="33.8103131" lon="-118.3938671">
  <ele>-35.046</ele>
  <time>2026-09-02T22:07:52Z</time>
  <course>43.05</course>
  <speed>0.0</speed>
  <fix>3d</fix>
</trkpt>
<trkpt lat="33.810313" lon="-118.393867">
  <ele>-34.19</ele>
  <time>2026-09-02T22:07:52Z</time>
  <course>337.39</course>
  <speed>0.0</speed>
  <fix>3d</fix>
</trkpt>
<trkpt lat="33.8103131" lon="-118.3938671">
  <ele>-35.053</ele>
  <time>2026-09-02T22:07:52Z</time>
  <course>45.48</course>
  <speed>0.0</speed>
  <fix>3d</fix>
</trkpt>
<trkpt lat="33.810313" lon="-118.393867">
  <ele>-34.19</ele>
  <time>2026-09-02T22:07:52Z</time>
  <course>337.39</course>
  <speed>0.0</speed>
  <fix>3d</fix>
</trkpt>
<trkpt lat="33.810313" lon="-118.3938671">
  <ele>-35.059</ele>
  <time>2026-09-02T22:07:52Z</time>
  <course>47.91</course>
  <speed>0.0</speed>
  <fix>3d</fix>
</trkpt>
<trkpt lat="33.810313" lon="-118.393867">
  <ele>-34.21</ele>
  <time>2026-09-02T22:07:52Z</time>
  <course>336.83</course>
  <speed>0.0</speed>
  <fix>3d</fix>
</trkpt>
<trkpt lat="33.810313" lon="-118.3938671">
  <ele>-35.065</ele>
  <time>2026-09-02T22:07:52Z</time>
  <course>50.33</course>
  <speed>0.0</speed>
  <fix>3d</fix>
</trkpt>
<trkpt lat="33.810313" lon="-118.393867">
  <ele>-34.21</ele>
  <time>2026-09-02T22:07:52Z</time>
  <course>336.83</course>
  <speed>0.0</speed>
  <fix>3d</fix>
</trkpt>
<trkpt lat="33.810313" lon="-118.3938671">
  <ele>-35.067</ele>
  <time>2026-09-02T22:07:52Z</time>
  <course>52.76</course>
  <speed>0.0</speed>
  <fix>3d</fix>
</trkpt>
<trkpt lat="33.810313" lon="-118.393867">
  <ele>-34.22</ele>
  <time>2026-09-02T22:07:52Z</time>
  <course>335.22</course>
  <speed>0.0</speed>
  <fix>3d</fix>
</trkpt>
<trkpt lat="33.810313" lon="-118.3938671">
  <ele>-35.067</ele>
  <time>2026-09-02T22:07:52Z</time>
  <course>55.19</course>
  <speed>0.0</speed>
  <fix>3d</fix>
</trkpt>
<trkpt lat="33.810313" lon="-118.393867">
  <ele>-34.22</ele>
  <time>2026-09-02T22:07:52Z</time>
  <course>335.22</course>
  <speed>0.0</speed>
  <fix>3d</fix>
</trkpt>
<trkpt lat="33.810313" lon="-118.3938671">
  <ele>-35.067</ele>
  <time>2026-09-02T22:07:52Z</time>
  <course>57.61</course>
  <speed>0.0</speed>
  <fix>3d</fix>
</trkpt>
<trkpt lat="33.810313" lon="-118.393867">
  <ele>-34.22</ele>
  <time>2026-09-02T22:07:52Z</time>
  <course>332.73</course>
  <speed>0.0</speed>
  <fix>3d</fix>
</trkpt>
<trkpt lat="33.810313" lon="-118.3938671">
  <ele>-35.068</ele>
  <time>2026-09-02T22:07:52Z</time>
  <course>60.04</course>
  <speed>0.0</speed>
  <fix>3d</fix>
</trkpt>
<trkpt lat="33.810313" lon="-118.393867">
  <ele>-34.22</ele>
  <time>2026-09-02T22:07:52Z</time>
  <course>332.73</course>
  <speed>0.0</speed>
  <fix>3d</fix>
</trkpt>
<trkpt lat="33.810313" lon="-118.3938671">
  <ele>-35.069</ele>
  <time>2026-09-02T22:07:52Z</time>
  <course>62.47</course>
  <speed>0.0</speed>
  <fix>3d</fix>
</trkpt>
<trkpt lat="33.810313" lon="-118.393867">
  <ele>-34.22</ele>
  <time>2026-09-02T22:07:52Z</time>
  <course>333.66</course>
  <speed>0.0</speed>
  <fix>3d</fix>
</trkpt>
<trkpt lat="33.810313" lon="-118.3938671">
  <ele>-35.07</ele>
  <time>2026-09-02T22:07:52Z</time>
  <course>64.92</course>
  <speed>0.0</speed>
  <fix>3d</fix>
</trkpt>
<trkpt lat="33.810313" lon="-118.393867">
  <ele>-34.22</ele>
  <time>2026-09-02T22:07:52Z</time>
  <course>333.66</course>
  <speed>0.0</speed>
  <fix>3d</fix>
</trkpt>
<trkpt lat="33.810313" lon="-118.3938671">
  <ele>-35.069</ele>
  <time>2026-09-02T22:07:52Z</time>
  <course>67.34</course>
  <speed>0.0</speed>
  <fix>3d</fix>
</trkpt>
<trkpt lat="33.810313" lon="-118.393867">
  <ele>-34.22</ele>
  <time>2026-09-02T22:07:52Z</time>
  <course>336.6</course>
  <speed>0.0</speed>
  <fix>3d</fix>
</trkpt>
<trkpt lat="33.810313" lon="-118.3938671">
  <ele>-35.066</ele>
  <time>2026-09-02T22:07:52Z</time>
  <course>69.77</course>
  <speed>0.0</speed>
  <fix>3d</fix>
</trkpt>
<trkpt lat="33.810313" lon="-118.393867">
  <ele>-34.22</ele>
  <time>2026-09-02T22:07:52Z</time>
  <course>336.6</course>
  <speed>0.0</speed>
  <fix>3d</fix>
</trkpt>
<trkpt lat="33.810313" lon="-118.3938671">
  <ele>-35.059</ele>
  <time>2026-09-02T22:07:52Z</time>
  <course>72.19</course>
  <speed>0.0</speed>
  <fix>3d</fix>
</trkpt>
<trkpt lat="33.810313" lon="-118.393867">
  <ele>-34.22</ele>
  <time>2026-09-02T22:07:52Z</time>
  <course>339.6</course>
  <speed>0.0</speed>
  <fix>3d</fix>
</trkpt>
<trkpt lat="33.810313" lon="-118.3938671">
  <ele>-35.051</ele>
  <time>2026-09-02T22:07:52Z</time>
  <course>74.62</course>
  <speed>0.0</speed>
  <fix>3d</fix>
</trkpt>
<trkpt lat="33.810313" lon="-118.393867">
  <ele>-34.22</ele>
  <time>2026-09-02T22:07:52Z</time>
  <course>339.6</course>
  <speed>0.0</speed>
  <fix>3d</fix>
</trkpt>
<trkpt lat="33.810313" lon="-118.3938671">
  <ele>-35.041</ele>
  <time>2026-09-02T22:07:52Z</time>
  <course>77.04</course>
  <speed>0.0</speed>
  <fix>3d</fix>
</trkpt>
<trkpt lat="33.810313" lon="-118.393867">
  <ele>-34.21</ele>
  <time>2026-09-02T22:07:52Z</time>
  <course>342.2</course>
  <speed>0.0</speed>
  <fix>3d</fix>
</trkpt>
<trkpt lat="33.810313" lon="-118.3938671">
  <ele>-35.03</ele>
  <time>2026-09-02T22:07:52Z</time>
  <course>79.47</course>
  <speed>0.0</speed>
  <fix>3d</fix>
</trkpt>
<trkpt lat="33.810313" lon="-118.393867">
  <ele>-34.21</ele>
  <time>2026-09-02T22:07:52Z</time>
  <course>342.2</course>
  <speed>0.0</speed>
  <fix>3d</fix>
</trkpt>
<trkpt lat="33.810313" lon="-118.3938671">
  <ele>-35.018</ele>
  <time>2026-09-02T22:07:52Z</time>
  <course>81.89</course>
  <speed>0.0</speed>
  <fix>3d</fix>
</trkpt>
<trkpt lat="33.810313" lon="-118.393867">
  <ele>-34.19</ele>
  <time>2026-09-02T22:07:52Z</time>
  <course>342.41</course>
  <speed>0.0</speed>
  <fix>3d</fix>
</trkpt>
<trkpt lat="33.810313" lon="-118.3938671">
  <ele>-35.007</ele>
  <time>2026-09-02T22:07:52Z</time>
  <course>84.32</course>
  <speed>0.0</speed>
  <fix>3d</fix>
</trkpt>
<trkpt lat="33.810313" lon="-118.393867">
  <ele>-34.19</ele>
  <time>2026-09-02T22:07:52Z</time>
  <course>342.41</course>
  <speed>0.0</speed>
  <fix>3d</fix>
</trkpt>
<trkpt lat="33.810313" lon="-118.3938671">
  <ele>-34.996</ele>
  <time>2026-09-02T22:07:52Z</time>
  <course>86.74</course>
  <speed>0.0</speed>
  <fix>3d</fix>
</trkpt>
<trkpt lat="33.810313" lon="-118.393867">
  <ele>-34.18</ele>
  <time>2026-09-02T22:07:52Z</time>
  <course>342.61</course>
  <speed>0.0</speed>
  <fix>3d</fix>
</trkpt>
<trkpt lat="33.810313" lon="-118.3938671">
  <ele>-34.988</ele>
  <time>2026-09-02T22:07:52Z</time>
  <course>89.17</course>
  <speed>0.0</speed>
  <fix>3d</fix>
</trkpt>
<trkpt lat="33.810313" lon="-118.393867">
  <ele>-34.18</ele>
  <time>2026-09-02T22:07:52Z</time>
  <course>342.61</course>
  <speed>0.0</speed>
  <fix>3d</fix>
</trkpt>
<trkpt lat="33.810313" lon="-118.3938671">
  <ele>-34.982</ele>
  <time>2026-09-02T22:07:52Z</time>
  <course>91.6</course>
  <speed>0.0</speed>
  <fix>3d</fix>
</trkpt>
<trkpt lat="33.810313" lon="-118.393867">
  <ele>-34.16</ele>
  <time>2026-09-02T22:07:52Z</time>
  <course>345.38</course>
  <speed>0.0</speed>
  <fix>3d</fix>
</trkpt>
<trkpt lat="33.810313" lon="-118.3938671">
  <ele>-34.976</ele>
  <time>2026-09-02T22:07:52Z</time>
  <course>94.02</course>
  <speed>0.0</speed>
  <fix>3d</fix>
</trkpt>
<trkpt lat="33.810313" lon="-118.393867">
  <ele>-34.16</ele>
  <time>2026-09-02T22:07:52Z</time>
  <course>345.38</course>
  <speed>0.0</speed>
  <fix>3d</fix>
</trkpt>
<trkpt lat="33.810313" lon="-118.3938671">
  <ele>-34.971</ele>
  <time>2026-09-02T22:07:52Z</time>
  <course>96.44</course>
  <speed>0.0</speed>
  <fix>3d</fix>
</trkpt>
<trkpt lat="33.810313" lon="-118.393867">
  <ele>-34.15</ele>
  <time>2026-09-02T22:07:52Z</time>
  <course>348.58</course>
  <speed>0.0</speed>
  <fix>3d</fix>
</trkpt>
<trkpt lat="33.810313" lon="-118.3938671">
  <ele>-34.967</ele>
  <time>2026-09-02T22:07:52Z</time>
  <course>98.86</course>
  <speed>0.0</speed>
  <fix>3d</fix>
</trkpt>
<trkpt lat="33.810313" lon="-118.393867">
  <ele>-34.15</ele>
  <time>2026-09-02T22:07:52Z</time>
  <course>348.58</course>
  <speed>0.0</speed>
  <fix>3d</fix>
</trkpt>
<trkpt lat="33.810313" lon="-118.3938671">
  <ele>-34.963</ele>
  <time>2026-09-02T22:07:52Z</time>
  <course>101.28</course>
  <speed>0.0</speed>
  <fix>3d</fix>
</trkpt>
<trkpt lat="33.810313" lon="-118.393867">
  <ele>-34.14</ele>
  <time>2026-09-02T22:07:52Z</time>
  <course>349.44</course>
  <speed>0.0</speed>
  <fix>3d</fix>
</trkpt>
<trkpt lat="33.810313" lon="-118.3938671">
  <ele>-34.957</ele>
  <time>2026-09-02T22:07:52Z</time>
  <course>103.7</course>
  <speed>0.0</speed>
  <fix>3d</fix>
</trkpt>
<trkpt lat="33.810313" lon="-118.393867">
  <ele>-34.14</ele>
  <time>2026-09-02T22:07:52Z</time>
  <course>349.44</course>
  <speed>0.0</speed>
  <fix>3d</fix>
</trkpt>
<trkpt lat="33.810313" lon="-118.3938671">
  <ele>-34.952</ele>
  <time>2026-09-02T22:07:52Z</time>
  <course>106.12</course>
  <speed>0.0</speed>
  <fix>3d</fix>
</trkpt>
<trkpt lat="33.810313" lon="-118.393867">
  <ele>-34.13</ele>
  <time>2026-09-02T22:07:52Z</time>
  <course>349.88</course>
  <speed>0.0</speed>
  <fix>3d</fix>
</trkpt>
<trkpt lat="33.810313" lon="-118.3938671">
  <ele>-34.946</ele>
  <time>2026-09-02T22:07:52Z</time>
  <course>108.54</course>
  <speed>0.0</speed>
  <fix>3d</fix>
</trkpt>
<trkpt lat="33.810313" lon="-118.393867">
  <ele>-34.13</ele>
  <time>2026-09-02T22:07:52Z</time>
  <course>349.88</course>
  <speed>0.0</speed>
  <fix>3d</fix>
</trkpt>
<trkpt lat="33.810313" lon="-118.3938671">
  <ele>-34.942</ele>
  <time>2026-09-02T22:07:52Z</time>
  <course>110.96</course>
  <speed>0.0</speed>
  <fix>3d</fix>
</trkpt>
<trkpt lat="33.810313" lon="-118.393867">
  <ele>-34.12</ele>
  <time>2026-09-02T22:07:52Z</time>
  <course>349.07</course>
  <speed>0.0</speed>
  <fix>3d</fix>
</trkpt>
<trkpt lat="33.810313" lon="-118.3938671">
  <ele>-34.94</ele>
  <time>2026-09-02T22:07:52Z</time>
  <course>113.38</course>
  <speed>0.0</speed>
  <fix>3d</fix>
</trkpt>
<trkpt lat="33.810313" lon="-118.393867">
  <ele>-34.12</ele>
  <time>2026-09-02T22:07:52Z</time>
  <course>349.07</course>
  <speed>0.0</speed>
  <fix>3d</fix>
</trkpt>
<trkpt lat="33.810313" lon="-118.3938671">
  <ele>-34.943</ele>
  <time>2026-09-02T22:07:52Z</time>
  <course>115.82</course>
  <speed>0.0</speed>
  <fix>3d</fix>
</trkpt>
<trkpt lat="33.810313" lon="-118.393867">
  <ele>-34.11</ele>
  <time>2026-09-02T22:07:52Z</time>
  <course>344.73</course>
  <speed>0.0</speed>
  <fix>3d</fix>
</trkpt>
<trkpt lat="33.810313" lon="-118.3938671">
  <ele>-34.951</ele>
  <time>2026-09-02T22:07:52Z</time>
  <course>118.24</course>
  <speed>0.0</speed>
  <fix>3d</fix>
</trkpt>
<trkpt lat="33.810313" lon="-118.393867">
  <ele>-34.11</ele>
  <time>2026-09-02T22:07:52Z</time>
  <course>344.73</course>
  <speed>0.0</speed>
  <fix>3d</fix>
</trkpt>
<trkpt lat="33.810313" lon="-118.3938671">
  <ele>-34.96</ele>
  <time>2026-09-02T22:07:52Z</time>
  <course>120.66</course>
  <speed>0.0</speed>
  <fix>3d</fix>
</trkpt>
<trkpt lat="33.810313" lon="-118.393867">
  <ele>-34.12</ele>
  <time>2026-09-02T22:07:52Z</time>
  <course>336.53</course>
  <speed>0.0</speed>
  <fix>3d</fix>
</trkpt>
<trkpt lat="33.810313" lon="-118.3938671">
  <ele>-34.968</ele>
  <time>2026-09-02T22:07:52Z</time>
  <course>123.08</course>
  <speed>0.0</speed>
  <fix>3d</fix>
</trkpt>
<trkpt lat="33.810313" lon="-118.393867">
  <ele>-34.12</ele>
  <time>2026-09-02T22:07:52Z</time>
  <course>336.53</course>
  <speed>0.0</speed>
  <fix>3d</fix>
</trkpt>
<trkpt lat="33.810313" lon="-118.3938671">
  <ele>-34.976</ele>
  <time>2026-09-02T22:07:52Z</time>
  <course>125.5</course>
  <speed>0.0</speed>
  <fix>3d</fix>
</trkpt>
<trkpt lat="33.810313" lon="-118.393867">
  <ele>-34.13</ele>
  <time>2026-09-02T22:07:52Z</time>
  <course>328.26</course>
  <speed>0.0</speed>
  <fix>3d</fix>
</trkpt>
<trkpt lat="33.810313" lon="-118.3938671">
  <ele>-34.984</ele>
  <time>2026-09-02T22:07:52Z</time>
  <course>127.92</course>
  <speed>0.0</speed>
  <fix>3d</fix>
</trkpt>
<trkpt lat="33.810313" lon="-118.393867">
  <ele>-34.13</ele>
  <time>2026-09-02T22:07:52Z</time>
  <course>328.26</course>
  <speed>0.0</speed>
  <fix>3d</fix>
</trkpt>
<trkpt lat="33.810313" lon="-118.3938671">
  <ele>-34.994</ele>
  <time>2026-09-02T22:07:52Z</time>
  <course>130.34</course>
  <speed>0.0</speed>
  <fix>3d</fix>
</trkpt>
<trkpt lat="33.810313" lon="-118.393867">
  <ele>-34.15</ele>
  <time>2026-09-02T22:07:52Z</time>
  <course>323.65</course>
  <speed>0.0</speed>
  <fix>3d</fix>
</trkpt>
<trkpt lat="33.810313" lon="-118.3938671">
  <ele>-35.003</ele>
  <time>2026-09-02T22:07:52Z</time>
  <course>132.76</course>
  <speed>0.0</speed>
  <fix>3d</fix>
</trkpt>
<trkpt lat="33.810313" lon="-118.393867">
  <ele>-34.15</ele>
  <time>2026-09-02T22:07:52Z</time>
  <course>323.65</course>
  <speed>0.0</speed>
  <fix>3d</fix>
</trkpt>
<trkpt lat="33.810313" lon="-118.3938671">
  <ele>-35.013</ele>
  <time>2026-09-02T22:07:52Z</time>
  <course>135.18</course>
  <speed>0.0</speed>
  <fix>3d</fix>
</trkpt>
<trkpt lat="33.810313" lon="-118.393867">
  <ele>-34.16</ele>
  <time>2026-09-02T22:07:52Z</time>
  <course>318.03</course>
  <speed>0.0</speed>
  <fix>3d</fix>
</trkpt>
<trkpt lat="33.810313" lon="-118.3938671">
  <ele>-35.026</ele>
  <time>2026-09-02T22:07:52Z</time>
  <course>137.6</course>
  <speed>0.0</speed>
  <fix>3d</fix>
</trkpt>
<trkpt lat="33.810313" lon="-118.393867">
  <ele>-34.16</ele>
  <time>2026-09-02T22:07:52Z</time>
  <course>318.03</course>
  <speed>0.0</speed>
  <fix>3d</fix>
</trkpt>
<trkpt lat="33.810313" lon="-118.3938671">
  <ele>-35.039</ele>
  <time>2026-09-02T22:07:52Z</time>
  <course>140.02</course>
  <speed>0.0</speed>
  <fix>3d</fix>
</trkpt>
<trkpt lat="33.810313" lon="-118.393867">
  <ele>-34.18</ele>
  <time>2026-09-02T22:07:52Z</time>
  <course>311.62</course>
  <speed>0.0</speed>
  <fix>3d</fix>
</trkpt>
<trkpt lat="33.810313" lon="-118.3938671">
  <ele>-35.051</ele>
  <time>2026-09-02T22:07:52Z</time>
  <course>142.44</course>
  <speed>0.0</speed>
  <fix>3d</fix>
</trkpt>
<trkpt lat="33.810313" lon="-118.393867">
  <ele>-34.18</ele>
  <time>2026-09-02T22:07:52Z</time>
  <course>311.62</course>
  <speed>0.0</speed>
  <fix>3d</fix>
</trkpt>
<trkpt lat="33.810313" lon="-118.3938671">
  <ele>-35.063</ele>
  <time>2026-09-02T22:07:52Z</time>
  <course>144.86</course>
  <speed>0.0</speed>
  <fix>3d</fix>
</trkpt>
<trkpt lat="33.810313" lon="-118.393867">
  <ele>-34.19</ele>
  <time>2026-09-02T22:07:52Z</time>
  <course>308.42</course>
  <speed>0.0</speed>
  <fix>3d</fix>
</trkpt>
<trkpt lat="33.810313" lon="-118.3938671">
  <ele>-35.073</ele>
  <time>2026-09-02T22:07:52Z</time>
  <course>147.27</course>
  <speed>0.0</speed>
  <fix>3d</fix>
</trkpt>
<trkpt lat="33.810313" lon="-118.393867">
  <ele>-34.19</ele>
  <time>2026-09-02T22:07:52Z</time>
  <course>308.42</course>
  <speed>0.0</speed>
  <fix>3d</fix>
</trkpt>
<trkpt lat="33.810313" lon="-118.3938671">
  <ele>-35.08</ele>
  <time>2026-09-02T22:07:52Z</time>
  <course>149.69</course>
  <speed>0.0</speed>
  <fix>3d</fix>
</trkpt>
<trkpt lat="33.810313" lon="-118.393867">
  <ele>-34.22</ele>
  <time>2026-09-02T22:07:52Z</time>
  <course>313.37</course>
  <speed>0.0</speed>
  <fix>3d</fix>
</trkpt>
<trkpt lat="33.810313" lon="-118.3938671">
  <ele>-35.084</ele>
  <time>2026-09-02T22:07:52Z</time>
  <course>152.1</course>
  <speed>0.0</speed>
  <fix>3d</fix>
</trkpt>
<trkpt lat="33.810313" lon="-118.393867">
  <ele>-34.22</ele>
  <time>2026-09-02T22:07:52Z</time>
  <course>313.37</course>
  <speed>0.0</speed>
  <fix>3d</fix>
</trkpt>
<trkpt lat="33.810313" lon="-118.3938671">
  <ele>-35.084</ele>
  <time>2026-09-02T22:07:52Z</time>
  <course>154.52</course>
  <speed>0.0</speed>
  <fix>3d</fix>
</trkpt>
<trkpt lat="33.810313" lon="-118.393867">
  <ele>-34.23</ele>
  <time>2026-09-02T22:07:52Z</time>
  <course>322.39</course>
  <speed>0.0</speed>
  <fix>3d</fix>
</trkpt>
<trkpt lat="33.810313" lon="-118.3938671">
  <ele>-35.081</ele>
  <time>2026-09-02T22:07:52Z</time>
  <course>156.93</course>
  <speed>0.0</speed>
  <fix>3d</fix>
</trkpt>
<trkpt lat="33.810313" lon="-118.393867">
  <ele>-34.23</ele>
  <time>2026-09-02T22:07:52Z</time>
  <course>322.39</course>
  <speed>0.0</speed>
  <fix>3d</fix>
</trkpt>
<trkpt lat="33.810313" lon="-118.3938671">
  <ele>-35.075</ele>
  <time>2026-09-02T22:07:52Z</time>
  <course>159.35</course>
  <speed>0.0</speed>
  <fix>3d</fix>
</trkpt>
<trkpt lat="33.810313" lon="-118.393867">
  <ele>-34.23</ele>
  <time>2026-09-02T22:07:52Z</time>
  <course>330.21</course>
  <speed>0.0</speed>
  <fix>3d</fix>
</trkpt>
<trkpt lat="33.810313" lon="-118.3938671">
  <ele>-35.069</ele>
  <time>2026-09-02T22:07:52Z</time>
  <course>161.77</course>
  <speed>0.0</speed>
  <fix>3d</fix>
</trkpt>
<trkpt lat="33.810313" lon="-118.393867">
  <ele>-34.23</ele>
  <time>2026-09-02T22:07:52Z</time>
  <course>330.21</course>
  <speed>0.0</speed>
  <fix>3d</fix>
</trkpt>
<trkpt lat="33.810313" lon="-118.3938671">
  <ele>-35.061</ele>
  <time>2026-09-02T22:07:52Z</time>
  <course>164.18</course>
  <speed>0.0</speed>
  <fix>3d</fix>
</trkpt>
<trkpt lat="33.810313" lon="-118.393867">
  <ele>-34.22</ele>
  <time>2026-09-02T22:07:52Z</time>
  <course>335.88</course>
  <speed>0.0</speed>
  <fix>3d</fix>
</trkpt>
<trkpt lat="33.810313" lon="-118.3938671">
  <ele>-35.052</ele>
  <time>2026-09-02T22:07:52Z</time>
  <course>166.62</course>
  <speed>0.0</speed>
  <fix>3d</fix>
</trkpt>
<trkpt lat="33.810313" lon="-118.393867">
  <ele>-34.22</ele>
  <time>2026-09-02T22:07:52Z</time>
  <course>335.88</course>
  <speed>0.0</speed>
  <fix>3d</fix>
</trkpt>
<trkpt lat="33.810313" lon="-118.3938671">
  <ele>-35.043</ele>
  <time>2026-09-02T22:07:52Z</time>
  <course>169.04</course>
  <speed>0.0</speed>
  <fix>3d</fix>
</trkpt>
<trkpt lat="33.810313" lon="-118.393867">
  <ele>-34.21</ele>
  <time>2026-09-02T22:07:52Z</time>
  <course>337.34</course>
  <speed>0.0</speed>
  <fix>3d</fix>
</trkpt>
<trkpt lat="33.810313" lon="-118.3938671">
  <ele>-35.035</ele>
  <time>2026-09-02T22:07:52Z</time>
  <course>171.45</course>
  <speed>0.0</speed>
  <fix>3d</fix>
</trkpt>
<trkpt lat="33.810313" lon="-118.393867">
  <ele>-34.21</ele>
  <time>2026-09-02T22:07:52Z</time>
  <course>337.34</course>
  <speed>0.0</speed>
  <fix>3d</fix>
</trkpt>
<trkpt lat="33.810313" lon="-118.3938671">
  <ele>-35.027</ele>
  <time>2026-09-02T22:07:52Z</time>
  <course>173.87</course>
  <speed>0.0</speed>
  <fix>3d</fix>
</trkpt>
<trkpt lat="33.810313" lon="-118.393867">
  <ele>-34.2</ele>
  <time>2026-09-02T22:07:52Z</time>
  <course>335.76</course>
  <speed>0.0</speed>
  <fix>3d</fix>
</trkpt>
<trkpt lat="33.810313" lon="-118.3938671">
  <ele>-35.019</ele>
  <time>2026-09-02T22:07:52Z</time>
  <course>176.28</course>
  <speed>0.0</speed>
  <fix>3d</fix>
</trkpt>
<trkpt lat="33.810313" lon="-118.393867">
  <ele>-34.2</ele>
  <time>2026-09-02T22:07:52Z</time>
  <course>335.76</course>
  <speed>0.0</speed>
  <fix>3d</fix>
</trkpt>
<trkpt lat="33.810313" lon="-118.3938671">
  <ele>-35.011</ele>
  <time>2026-09-02T22:07:52Z</time>
  <course>178.66</course>
  <speed>0.0</speed>
  <fix>3d</fix>
</trkpt>
<trkpt lat="33.810313" lon="-118.393867">
  <ele>-34.19</ele>
  <time>2026-09-02T22:07:52Z</time>
  <course>334.86</course>
  <speed>0.0</speed>
  <fix>3d</fix>
</trkpt>
<trkpt lat="33.810313" lon="-118.3938671">
  <ele>-35.004</ele>
  <time>2026-09-02T22:07:52Z</time>
  <course>180.5</course>
  <speed>0.0</speed>
  <fix>3d</fix>
</trkpt>
<trkpt lat="33.810313" lon="-118.393867">
  <ele>-34.19</ele>
  <time>2026-09-02T22:07:52Z</time>
  <course>334.86</course>
  <speed>0.0</speed>
  <fix>3d</fix>
</trkpt>
<trkpt lat="33.8103129" lon="-118.3938671">
  <ele>-34.999</ele>
  <time>2026-09-02T22:07:52Z</time>
  <course>182.51</course>
  <speed>0.2102379604162864</speed>
  <fix>3d</fix>
</trkpt>
<trkpt lat="33.810313" lon="-118.393867">
  <ele>-34.17</ele>
  <time>2026-09-02T22:07:52Z</time>
  <course>180.9</course>
  <speed>0.01</speed>
  <fix>3d</fix>
</trkpt>
<trkpt lat="33.8103126" lon="-118.3938671">
  <ele>-34.994</ele>
  <time>2026-09-02T22:07:52Z</time>
  <course>184.46</course>
  <speed>0.44045431091090476</speed>
  <fix>3d</fix>
</trkpt>
<trkpt lat="33.810313" lon="-118.393867">
  <ele>-34.17</ele>
  <time>2026-09-02T22:07:52Z</time>
  <course>180.9</course>
  <speed>0.01</speed>
  <fix>3d</fix>
</trkpt>
<trkpt lat="33.8103122" lon="-118.3938671">
  <ele>-34.993</ele>
  <time>2026-09-02T22:07:52Z</time>
  <course>186.18</course>
  <speed>0.5913543776789008</speed>
  <fix>3d</fix>
</trkpt>
<trkpt lat="33.8103128" lon="-118.393867">
  <ele>-34.16</ele>
  <time>2026-09-02T22:07:52Z</time>
  <course>182.27</course>
  <speed>0.26</speed>
  <fix>3d</fix>
</trkpt>
<trkpt lat="33.8103116" lon="-118.3938671">
  <ele>-34.993</ele>
  <time>2026-09-02T22:07:52Z</time>
  <course>187.46</course>
  <speed>0.6818357573492314</speed>
  <fix>3d</fix>
</trkpt>
<trkpt lat="33.8103128" lon="-118.393867">
  <ele>-34.16</ele>
  <time>2026-09-02T22:07:52Z</time>
  <course>182.27</course>
  <speed>0.26</speed>
  <fix>3d</fix>
</trkpt>
<trkpt lat="33.810311" lon="-118.3938671">
  <ele>-34.993</ele>
  <time>2026-09-02T22:07:52Z</time>
  <course>188.29</course>
  <speed>0.7224956747275377</speed>
  <fix>3d</fix>
</trkpt>
<trkpt lat="33.810312" lon="-118.393867">
  <ele>-34.16</ele>
  <time>2026-09-02T22:07:52Z</time>
  <course>183.02</course>
  <speed>0.59</speed>
  <fix>3d</fix>
</trkpt>
<trkpt lat="33.8103104" lon="-118.3938672">
  <ele>-34.994</ele>
  <time>2026-09-02T22:07:52Z</time>
  <course>188.78</course>
  <speed>0.7424284477308234</speed>
  <fix>3d</fix>
</trkpt>
<trkpt lat="33.810312" lon="-118.393867">
  <ele>-34.16</ele>
  <time>2026-09-02T22:07:52Z</time>
  <course>183.02</course>
  <speed>0.59</speed>
  <fix>3d</fix>
</trkpt>
<trkpt lat="33.8103097" lon="-118.3938673">
  <ele>-34.997</ele>
  <time>2026-09-02T22:07:52Z</time>
  <course>189.04</course>
  <speed>0.7532595834106592</speed>
  <fix>3d</fix>
</trkpt>
<trkpt lat="33.8103108" lon="-118.3938671">
  <ele>-34.16</ele>
  <time>2026-09-02T22:07:52Z</time>
  <course>183.8</course>
  <speed>0.72</speed>
  <fix>3d</fix>
</trkpt>
<trkpt lat="33.8103091" lon="-118.3938673">
  <ele>-35.003</ele>
  <time>2026-09-02T22:07:52Z</time>
  <course>189.17</course>
  <speed>0.7632168761236874</speed>
  <fix>3d</fix>
</trkpt>
<trkpt lat="33.8103108" lon="-118.3938671">
  <ele>-34.16</ele>
  <time>2026-09-02T22:07:52Z</time>
  <course>183.8</course>
  <speed>0.72</speed>
  <fix>3d</fix>
</trkpt>
<trkpt lat="33.8103084" lon="-118.3938674">
  <ele>-35.01</ele>
  <time>2026-09-02T22:07:52Z</time>
  <course>189.18</course>
  <speed>0.7632168761236874</speed>
  <fix>3d</fix>
</trkpt>
<trkpt lat="33.8103095" lon="-118.3938672">
  <ele>-34.16</ele>
  <time>2026-09-02T22:07:52Z</time>
  <course>184.27</course>
  <speed>0.76</speed>
  <fix>3d</fix>
</trkpt>
<trkpt lat="33.8103078" lon="-118.3938675">
  <ele>-35.016</ele>
  <time>2026-09-02T22:07:52Z</time>
  <course>189.13</course>
  <speed>0.7632168761236874</speed>
  <fix>3d</fix>
</trkpt>
<trkpt lat="33.8103095" lon="-118.3938672">
  <ele>-34.16</ele>
  <time>2026-09-02T22:07:52Z</time>
  <course>184.27</course>
  <speed>0.76</speed>
  <fix>3d</fix>
</trkpt>
<trkpt lat="33.8103071" lon="-118.3938675">
  <ele>-35.023</ele>
  <time>2026-09-02T22:07:52Z</time>
  <course>189.05</course>
  <speed>0.7632168761236874</speed>
  <fix>3d</fix>
</trkpt>
<trkpt lat="33.8103081" lon="-118.3938674">
  <ele>-34.17</ele>
  <time>2026-09-02T22:07:52Z</time>
  <course>184.6</course>
  <speed>0.77</speed>
  <fix>3d</fix>
</trkpt>
<trkpt lat="33.8103065" lon="-118.3938676">
  <ele>-35.03</ele>
  <time>2026-09-02T22:07:52Z</time>
  <course>188.97</course>
  <speed>0.7632168761236874</speed>
  <fix>3d</fix>
</trkpt>
<trkpt lat="33.8103081" lon="-118.3938674">
  <ele>-34.17</ele>
  <time>2026-09-02T22:07:52Z</time>
  <course>184.6</course>
  <speed>0.77</speed>
  <fix>3d</fix>
</trkpt>
<trkpt lat="33.8103058" lon="-118.3938677">
  <ele>-35.037</ele>
  <time>2026-09-02T22:07:52Z</time>
  <course>188.88</course>
  <speed>0.754254598925323</speed>
  <fix>3d</fix>
</trkpt>
<trkpt lat="33.8103067" lon="-118.3938675">
  <ele>-34.19</ele>
  <time>2026-09-02T22:07:52Z</time>
  <course>184.84</course>
  <speed>0.77</speed>
  <fix>3d</fix>
</trkpt>
<trkpt lat="33.8103051" lon="-118.3938677">
  <ele>-35.043</ele>
  <time>2026-09-02T22:07:52Z</time>
  <course>188.79</course>
  <speed>0.754254598925323</speed>
  <fix>3d</fix>
</trkpt>
<trkpt lat="33.8103067" lon="-118.3938675">
  <ele>-34.19</ele>
  <time>2026-09-02T22:07:52Z</time>
  <course>184.84</course>
  <speed>0.77</speed>
  <fix>3d</fix>
</trkpt>
<trkpt lat="33.8103044" lon="-118.3938678">
  <ele>-35.049</ele>
  <time>2026-09-02T22:07:52Z</time>
  <course>188.69</course>
  <speed>0.754254598925323</speed>
  <fix>3d</fix>
</trkpt>
<trkpt lat="33.8103052" lon="-118.3938676">
  <ele>-34.2</ele>
  <time>2026-09-02T22:07:52Z</time>
  <course>185.04</course>
  <speed>0.77</speed>
  <fix>3d</fix>
</trkpt>
<trkpt lat="33.8103038" lon="-118.3938679">
  <ele>-35.054</ele>
  <time>2026-09-02T22:07:52Z</time>
  <course>188.6</course>
  <speed>0.754254598925323</speed>
  <fix>3d</fix>
</trkpt>
<trkpt lat="33.8103052" lon="-118.3938676">
  <ele>-34.2</ele>
  <time>2026-09-02T22:07:52Z</time>
  <course>185.04</course>
  <speed>0.77</speed>
  <fix>3d</fix>
</trkpt>
<trkpt lat="33.8103031" lon="-118.393868">
  <ele>-35.058</ele>
  <time>2026-09-02T22:07:52Z</time>
  <course>188.51</course>
  <speed>0.754254598925323</speed>
  <fix>3d</fix>
</trkpt>
<trkpt lat="33.8103038" lon="-118.3938678">
  <ele>-34.21</ele>
  <time>2026-09-02T22:07:52Z</time>
  <course>185.2</course>
  <speed>0.77</speed>
  <fix>3d</fix>
</trkpt>
<trkpt lat="33.8103024" lon="-118.393868">
  <ele>-35.061</ele>
  <time>2026-09-02T22:07:52Z</time>
  <course>188.41</course>
  <speed>0.754254598925323</speed>
  <fix>3d</fix>
</trkpt>
<trkpt lat="33.8103038" lon="-118.3938678">
  <ele>-34.21</ele>
  <time>2026-09-02T22:07:52Z</time>
  <course>185.2</course>
  <speed>0.77</speed>
  <fix>3d</fix>
</trkpt>
<trkpt lat="33.8103017" lon="-118.3938681">
  <ele>-35.064</ele>
  <time>2026-09-02T22:07:52Z</time>
  <course>188.32</course>
  <speed>0.754254598925323</speed>
  <fix>3d</fix>
</trkpt>
<trkpt lat="33.8103025" lon="-118.393868">
  <ele>-34.22</ele>
  <time>2026-09-02T22:07:52Z</time>
  <course>185.32</course>
  <speed>0.77</speed>
  <fix>3d</fix>
</trkpt>
<trkpt lat="33.810301" lon="-118.3938682">
  <ele>-35.067</ele>
  <time>2026-09-02T22:07:52Z</time>
  <course>188.23</course>
  <speed>0.754254598925323</speed>
  <fix>3d</fix>
</trkpt>
<trkpt lat="33.8103025" lon="-118.393868">
  <ele>-34.22</ele>
  <time>2026-09-02T22:07:52Z</time>
  <course>185.32</course>
  <speed>0.77</speed>
  <fix>3d</fix>
</trkpt>
<trkpt lat="33.8103003" lon="-118.3938683">
  <ele>-35.069</ele>
  <time>2026-09-02T22:07:52Z</time>
  <course>188.14</course>
  <speed>0.754254598925323</speed>
  <fix>3d</fix>
</trkpt>
<trkpt lat="33.8103012" lon="-118.3938681">
  <ele>-34.22</ele>
  <time>2026-09-02T22:07:52Z</time>
  <course>185.42</course>
  <speed>0.77</speed>
  <fix>3d</fix>
</trkpt>
<trkpt lat="33.8102997" lon="-118.3938684">
  <ele>-35.072</ele>
  <time>2026-09-02T22:07:52Z</time>
  <course>188.05</course>
  <speed>0.754254598925323</speed>
  <fix>3d</fix>
</trkpt>
<trkpt lat="33.8103012" lon="-118.3938681">
  <ele>-34.22</ele>
  <time>2026-09-02T22:07:52Z</time>
  <course>185.42</course>
  <speed>0.77</speed>
  <fix>3d</fix>
</trkpt>
<trkpt lat="33.810299" lon="-118.3938684">
  <ele>-35.073</ele>
  <time>2026-09-02T22:07:52Z</time>
  <course>187.97</course>
  <speed>0.754254598925323</speed>
  <fix>3d</fix>
</trkpt>
<trkpt lat="33.8102997" lon="-118.3938683">
  <ele>-34.23</ele>
  <time>2026-09-02T22:07:52Z</time>
  <course>185.49</course>
  <speed>0.77</speed>
  <fix>3d</fix>
</trkpt>
<trkpt lat="33.8102983" lon="-118.3938685">
  <ele>-35.071</ele>
  <time>2026-09-02T22:07:52Z</time>
  <course>187.88</course>
  <speed>0.754254598925323</speed>
  <fix>3d</fix>
</trkpt>
<trkpt lat="33.8102997" lon="-118.3938683">
  <ele>-34.23</ele>
  <time>2026-09-02T22:07:52Z</time>
  <course>185.49</course>
  <speed>0.77</speed>
  <fix>3d</fix>
</trkpt>
<trkpt lat="33.8102976" lon="-118.3938686">
  <ele>-35.068</ele>
  <time>2026-09-02T22:07:52Z</time>
  <course>187.8</course>
  <speed>0.754254598925323</speed>
  <fix>3d</fix>
</trkpt>
<trkpt lat="33.8102984" lon="-118.3938684">
  <ele>-34.22</ele>
  <time>2026-09-02T22:07:52Z</time>
  <course>185.56</course>
  <speed>0.77</speed>
  <fix>3d</fix>
</trkpt>
<trkpt lat="33.8102969" lon="-118.3938687">
  <ele>-35.063</ele>
  <time>2026-09-02T22:07:52Z</time>
  <course>187.72</course>
  <speed>0.754254598925323</speed>
  <fix>3d</fix>
</trkpt>
<trkpt lat="33.8102984" lon="-118.3938684">
  <ele>-34.22</ele>
  <time>2026-09-02T22:07:52Z</time>
  <course>185.56</course>
  <speed>0.77</speed>
  <fix>3d</fix>
</trkpt>
<trkpt lat="33.8102962" lon="-118.3938688">
  <ele>-35.057</ele>
  <time>2026-09-02T22:07:52Z</time>
  <course>187.64</course>
  <speed>0.7443117626371358</speed>
  <fix>3d</fix>
</trkpt>
<trkpt lat="33.810297" lon="-118.3938686">
  <ele>-34.21</ele>
  <time>2026-09-02T22:07:52Z</time>
  <course>185.61</course>
  <speed>0.77</speed>
  <fix>3d</fix>
</trkpt>
<trkpt lat="33.8102956" lon="-118.3938688">
  <ele>-35.05</ele>
  <time>2026-09-02T22:07:52Z</time>
  <course>187.57</course>
  <speed>0.7443117626371358</speed>
  <fix>3d</fix>
</trkpt>
<trkpt lat="33.810297" lon="-118.3938686">
  <ele>-34.21</ele>
  <time>2026-09-02T22:07:52Z</time>
  <course>185.61</course>
  <speed>0.77</speed>
  <fix>3d</fix>
</trkpt>
<trkpt lat="33.8102949" lon="-118.3938689">
  <ele>-35.042</ele>
  <time>2026-09-02T22:07:52Z</time>
  <course>187.49</course>
  <speed>0.7443117626371358</speed>
  <fix>3d</fix>
</trkpt>
<trkpt lat="33.8102955" lon="-118.3938688">
  <ele>-34.2</ele>
  <time>2026-09-02T22:07:52Z</time>
  <course>185.64</course>
  <speed>0.77</speed>
  <fix>3d</fix>
</trkpt>
<trkpt lat="33.8102942" lon="-118.393869">
  <ele>-35.032</ele>
  <time>2026-09-02T22:07:52Z</time>
  <course>187.42</course>
  <speed>0.7454528824815153</speed>
  <fix>3d</fix>
</trkpt>
<trkpt lat="33.8102955" lon="-118.3938688">
  <ele>-34.2</ele>
  <time>2026-09-02T22:07:52Z</time>
  <course>185.64</course>
  <speed>0.77</speed>
  <fix>3d</fix>
</trkpt>
<trkpt lat="33.8102935" lon="-118.3938691">
  <ele>-35.022</ele>
  <time>2026-09-02T22:07:52Z</time>
  <course>187.34</course>
  <speed>0.7454528824815153</speed>
  <fix>3d</fix>
</trkpt>
<trkpt lat="33.8102942" lon="-118.3938689">
  <ele>-34.19</ele>
  <time>2026-09-02T22:07:52Z</time>
  <course>185.67</course>
  <speed>0.77</speed>
  <fix>3d</fix>
</trkpt>
<trkpt lat="33.8102928" lon="-118.3938692">
  <ele>-35.013</ele>
  <time>2026-09-02T22:07:52Z</time>
  <course>187.27</course>
  <speed>0.7454528824815153</speed>
  <fix>3d</fix>
</trkpt>
<trkpt lat="33.8102942" lon="-118.3938689">
  <ele>-34.19</ele>
  <time>2026-09-02T22:07:52Z</time>
  <course>185.67</course>
  <speed>0.77</speed>
  <fix>3d</fix>
</trkpt>
<trkpt lat="33.8102921" lon="-118.3938693">
  <ele>-35.005</ele>
  <time>2026-09-02T22:07:52Z</time>
  <course>187.2</course>
  <speed>0.7454528824815153</speed>
  <fix>3d</fix>
</trkpt>
<trkpt lat="33.8102928" lon="-118.3938691">
  <ele>-34.18</ele>
  <time>2026-09-02T22:07:52Z</time>
  <course>185.7</course>
  <speed>0.77</speed>
  <fix>3d</fix>
</trkpt>
<trkpt lat="33.8102914" lon="-118.3938694">
  <ele>-34.999</ele>
  <time>2026-09-02T22:07:52Z</time>
  <course>187.14</course>
  <speed>0.7454528824815153</speed>
  <fix>3d</fix>
</trkpt>
<trkpt lat="33.8102928" lon="-118.3938691">
  <ele>-34.18</ele>
  <time>2026-09-02T22:07:52Z</time>
  <course>185.7</course>
  <speed>0.77</speed>
  <fix>3d</fix>
</trkpt>
<trkpt lat="33.8102908" lon="-118.3938694">
  <ele>-34.995</ele>
  <time>2026-09-02T22:07:52Z</time>
  <course>187.07</course>
  <speed>0.7454528824815153</speed>
  <fix>3d</fix>
</trkpt>
<trkpt lat="33.8102915" lon="-118.3938693">
  <ele>-34.16</ele>
  <time>2026-09-02T22:07:52Z</time>
  <course>185.72</course>
  <speed>0.77</speed>
  <fix>3d</fix>
</trkpt>
<trkpt lat="33.8102901" lon="-118.3938695">
  <ele>-34.992</ele>
  <time>2026-09-02T22:07:52Z</time>
  <course>187.0</course>
  <speed>0.7454528824815153</speed>
  <fix>3d</fix>
</trkpt>
<trkpt lat="33.8102915" lon="-118.3938693">
  <ele>-34.16</ele>
  <time>2026-09-02T22:07:52Z</time>
  <course>185.72</course>
  <speed>0.77</speed>
  <fix>3d</fix>
</trkpt>
<trkpt lat="33.8102894" lon="-118.3938696">
  <ele>-34.992</ele>
  <time>2026-09-02T22:07:52Z</time>
  <course>186.94</course>
  <speed>0.7454528824815153</speed>
  <fix>3d</fix>
</trkpt>
<trkpt lat="33.81029" lon="-118.3938694">
  <ele>-34.16</ele>
  <time>2026-09-02T22:07:52Z</time>
  <course>185.73</course>
  <speed>0.77</speed>
  <fix>3d</fix>
</trkpt>
<trkpt lat="33.8102887" lon="-118.3938697">
  <ele>-34.994</ele>
  <time>2026-09-02T22:07:52Z</time>
  <course>186.88</course>
  <speed>0.7454528824815153</speed>
  <fix>3d</fix>
</trkpt>
<trkpt lat="33.81029" lon="-118.3938694">
  <ele>-34.16</ele>
  <time>2026-09-02T22:07:52Z</time>
  <course>185.73</course>
  <speed>0.77</speed>
  <fix>3d</fix>
</trkpt>
<trkpt lat="33.810288" lon="-118.3938698">
  <ele>-34.995</ele>
  <time>2026-09-02T22:07:52Z</time>
  <course>186.82</course>
  <speed>0.7454528824815153</speed>
  <fix>3d</fix>
</trkpt>
<trkpt lat="33.8102887" lon="-118.3938695">
  <ele>-34.16</ele>
  <time>2026-09-02T22:07:52Z</time>
  <course>185.75</course>
  <speed>0.77</speed>
  <fix>3d</fix>
</trkpt>
<trkpt lat="33.8102873" lon="-118.3938699">
  <ele>-34.994</ele>
  <time>2026-09-02T22:07:52Z</time>
  <course>186.75</course>
  <speed>0.7454528824815153</speed>
  <fix>3d</fix>
</trkpt>
<trkpt lat="33.8102887" lon="-118.3938695">
  <ele>-34.16</ele>
  <time>2026-09-02T22:07:52Z</time>
  <course>185.75</course>
  <speed>0.77</speed>
  <fix>3d</fix>
</trkpt>
<trkpt lat="33.8102866" lon="-118.3938699">
  <ele>-34.993</ele>
  <time>2026-09-02T22:07:52Z</time>
  <course>186.69</course>
  <speed>0.7454528824815153</speed>
  <fix>3d</fix>
</trkpt>
<trkpt lat="33.8102873" lon="-118.3938698">
  <ele>-34.16</ele>
  <time>2026-09-02T22:07:52Z</time>
  <course>185.76</course>
  <speed>0.77</speed>
  <fix>3d</fix>
</trkpt>
<trkpt lat="33.8102859" lon="-118.39387">
  <ele>-34.991</ele>
  <time>2026-09-02T22:07:52Z</time>
  <course>186.64</course>
  <speed>0.7454528824815153</speed>
  <fix>3d</fix>
</trkpt>
<trkpt lat="33.8102873" lon="-118.3938698">
  <ele>-34.16</ele>
  <time>2026-09-02T22:07:52Z</time>
  <course>185.76</course>
  <speed>0.77</speed>
  <fix>3d</fix>
</trkpt>
<trkpt lat="33.8102853" lon="-118.3938701">
  <ele>-34.99</ele>
  <time>2026-09-02T22:07:52Z</time>
  <course>186.58</course>
  <speed>0.7454528824815153</speed>
  <fix>3d</fix>
</trkpt>
<trkpt lat="33.8102858" lon="-118.3938699">
  <ele>-34.15</ele>
  <time>2026-09-02T22:07:52Z</time>
  <course>185.76</course>
  <speed>0.77</speed>
  <fix>3d</fix>
</trkpt>
<trkpt lat="33.8102846" lon="-118.3938702">
  <ele>-34.991</ele>
  <time>2026-09-02T22:07:52Z</time>
  <course>186.53</course>
  <speed>0.7454528824815153</speed>
  <fix>3d</fix>
</trkpt>
<trkpt lat="33.8102858" lon="-118.3938699">
  <ele>-34.15</ele>
  <time>2026-09-02T22:07:52Z</time>
  <course>185.76</course>
  <speed>0.77</speed>
  <fix>3d</fix>
</trkpt>
<trkpt lat="33.8102839" lon="-118.3938703">
  <ele>-34.994</ele>
  <time>2026-09-02T22:07:52Z</time>
  <course>186.47</course>
  <speed>0.7454528824815153</speed>
  <fix>3d</fix>
</trkpt>
<trkpt lat="33.8102845" lon="-118.39387">
  <ele>-34.15</ele>
  <time>2026-09-02T22:07:52Z</time>
  <course>185.76</course>
  <speed>0.77</speed>
  <fix>3d</fix>
</trkpt>
<trkpt lat="33.8102832" lon="-118.3938704">
  <ele>-34.997</ele>
  <time>2026-09-02T22:07:52Z</time>
  <course>186.42</course>
  <speed>0.7454528824815153</speed>
  <fix>3d</fix>
</trkpt>
<trkpt lat="33.8102845" lon="-118.39387">
  <ele>-34.15</ele>
  <time>2026-09-02T22:07:52Z</time>
  <course>185.76</course>
  <speed>0.77</speed>
  <fix>3d</fix>
</trkpt>
<trkpt lat="33.8102825" lon="-118.3938705">
  <ele>-35.001</ele>
  <time>2026-09-02T22:07:52Z</time>
  <course>186.37</course>
  <speed>0.7454528824815153</speed>
  <fix>3d</fix>
</trkpt>
<trkpt lat="33.8102832" lon="-118.3938703">
  <ele>-34.16</ele>
  <time>2026-09-02T22:07:52Z</time>
  <course>185.77</course>
  <speed>0.77</speed>
  <fix>3d</fix>
</trkpt>
<trkpt lat="33.8102818" lon="-118.3938705">
  <ele>-35.006</ele>
  <time>2026-09-02T22:07:52Z</time>
  <course>186.32</course>
  <speed>0.7454528824815153</speed>
  <fix>3d</fix>
</trkpt>
<trkpt lat="33.8102832" lon="-118.3938703">
  <ele>-34.16</ele>
  <time>2026-09-02T22:07:52Z</time>
  <course>185.77</course>
  <speed>0.77</speed>
  <fix>3d</fix>
</trkpt>
<trkpt lat="33.8102811" lon="-118.3938706">
  <ele>-35.014</ele>
  <time>2026-09-02T22:07:52Z</time>
  <course>186.27</course>
  <speed>0.7355270219373317</speed>
  <fix>3d</fix>
</trkpt>
<trkpt lat="33.8102818" lon="-118.3938704">
  <ele>-34.17</ele>
  <time>2026-09-02T22:07:52Z</time>
  <course>185.77</course>
  <speed>0.77</speed>
  <fix>3d</fix>
</trkpt>
<trkpt lat="33.8102804" lon="-118.3938707">
  <ele>-35.021</ele>
  <time>2026-09-02T22:07:52Z</time>
  <course>186.22</course>
  <speed>0.7355270219373317</speed>
  <fix>3d</fix>
</trkpt>
<trkpt lat="33.8102818" lon="-118.3938704">
  <ele>-34.17</ele>
  <time>2026-09-02T22:07:52Z</time>
  <course>185.77</course>
  <speed>0.77</speed>
  <fix>3d</fix>
</trkpt>
<trkpt lat="33.8102798" lon="-118.3938708">
  <ele>-35.027</ele>
  <time>2026-09-02T22:07:52Z</time>
  <course>186.17</course>
  <speed>0.7355270219373317</speed>
  <fix>3d</fix>
</trkpt>
<trkpt lat="33.8102803" lon="-118.3938705">
  <ele>-34.18</ele>
  <time>2026-09-02T22:07:52Z</time>
  <course>185.78</course>
  <speed>0.77</speed>
  <fix>3d</fix>
</trkpt>
<trkpt lat="33.8102791" lon="-118.3938709">
  <ele>-35.032</ele>
  <time>2026-09-02T22:07:52Z</time>
  <course>186.12</course>
  <speed>0.7355270219373317</speed>
  <fix>3d</fix>
</trkpt>
<trkpt lat="33.8102803" lon="-118.3938705">
  <ele>-34.18</ele>
  <time>2026-09-02T22:07:52Z</time>
  <course>185.78</course>
  <speed>0.77</speed>
  <fix>3d</fix>
</trkpt>
<trkpt lat="33.8102784" lon="-118.393871">
  <ele>-35.037</ele>
  <time>2026-09-02T22:07:52Z</time>
  <course>186.08</course>
  <speed>0.7355270219373317</speed>
  <fix>3d</fix>
</trkpt>
<trkpt lat="33.8102789" lon="-118.3938708">
  <ele>-34.19</ele>
  <time>2026-09-02T22:07:52Z</time>
  <course>185.78</course>
  <speed>0.77</speed>
  <fix>3d</fix>
</trkpt>
<trkpt lat="33.8102777" lon="-118.3938711">
  <ele>-35.041</ele>
  <time>2026-09-02T22:07:52Z</time>
  <course>186.03</course>
  <speed>0.7355270219373317</speed>
  <fix>3d</fix>
</trkpt>
<trkpt lat="33.8102789" lon="-118.3938708">
  <ele>-34.19</ele>
  <time>2026-09-02T22:07:52Z</time>
  <course>185.78</course>
  <speed>0.77</speed>
  <fix>3d</fix>
</trkpt>
<trkpt lat="33.810277" lon="-118.3938711">
  <ele>-35.044</ele>
  <time>2026-09-02T22:07:52Z</time>
  <course>185.99</course>
  <speed>0.7355270219373317</speed>
  <fix>3d</fix>
</trkpt>
<trkpt lat="33.8102776" lon="-118.3938709">
  <ele>-34.2</ele>
  <time>2026-09-02T22:07:52Z</time>
  <course>185.78</course>
  <speed>0.77</speed>
  <fix>3d</fix>
</trkpt>
<trkpt lat="33.8102763" lon="-118.3938712">
  <ele>-35.047</ele>
  <time>2026-09-02T22:07:52Z</time>
  <course>185.94</course>
  <speed>0.7355270219373317</speed>
  <fix>3d</fix>
</trkpt>
<trkpt lat="33.8102776" lon="-118.3938709">
  <ele>-34.2</ele>
  <time>2026-09-02T22:07:52Z</time>
  <course>185.78</course>
  <speed>0.77</speed>
  <fix>3d</fix>
</trkpt>
<trkpt lat="33.8102756" lon="-118.3938713">
  <ele>-35.05</ele>
  <time>2026-09-02T22:07:52Z</time>
  <course>185.9</course>
  <speed>0.7355270219373317</speed>
  <fix>3d</fix>
</trkpt>
<trkpt lat="33.8102761" lon="-118.393871">
  <ele>-34.21</ele>
  <time>2026-09-02T22:07:52Z</time>
  <course>185.78</course>
  <speed>0.77</speed>
  <fix>3d</fix>
</trkpt>
<trkpt lat="33.8102749" lon="-118.3938714">
  <ele>-35.052</ele>
  <time>2026-09-02T22:07:52Z</time>
  <course>185.86</course>
  <speed>0.7355270219373317</speed>
  <fix>3d</fix>
</trkpt>
<trkpt lat="33.8102761" lon="-118.393871">
  <ele>-34.21</ele>
  <time>2026-09-02T22:07:52Z</time>
  <course>185.78</course>
  <speed>0.77</speed>
  <fix>3d</fix>
</trkpt>
<trkpt lat="33.8102742" lon="-118.3938715">
  <ele>-35.053</ele>
  <time>2026-09-02T22:07:52Z</time>
  <course>185.82</course>
  <speed>0.7355270219373317</speed>
  <fix>3d</fix>
</trkpt>
<trkpt lat="33.8102748" lon="-118.3938713">
  <ele>-34.21</ele>
  <time>2026-09-02T22:07:52Z</time>
  <course>185.78</course>
  <speed>0.77</speed>
  <fix>3d</fix>
</trkpt>
<trkpt lat="33.8102735" lon="-118.3938716">
  <ele>-35.051</ele>
  <time>2026-09-02T22:07:52Z</time>
  <course>185.78</course>
  <speed>0.7355270219373317</speed>
  <fix>3d</fix>
</trkpt>
<trkpt lat="33.8102748" lon="-118.3938713">
  <ele>-34.21</ele>
  <time>2026-09-02T22:07:52Z</time>
  <course>185.78</course>
  <speed>0.77</speed>
  <fix>3d</fix>
</trkpt>
<trkpt lat="33.8102728" lon="-118.3938717">
  <ele>-35.046</ele>
  <time>2026-09-02T22:07:52Z</time>
  <course>185.74</course>
  <speed>0.7355270219373317</speed>
  <fix>3d</fix>
</trkpt>
<trkpt lat="33.8102734" lon="-118.3938714">
  <ele>-34.21</ele>
  <time>2026-09-02T22:07:52Z</time>
  <course>185.77</course>
  <speed>0.77</speed>
  <fix>3d</fix>
</trkpt>
<trkpt lat="33.8102721" lon="-118.3938717">
  <ele>-35.039</ele>
  <time>2026-09-02T22:07:52Z</time>
  <course>185.7</course>
  <speed>0.7355270219373317</speed>
  <fix>3d</fix>
</trkpt>
<trkpt lat="33.8102734" lon="-118.3938714">
  <ele>-34.21</ele>
  <time>2026-09-02T22:07:52Z</time>
  <course>185.77</course>
  <speed>0.77</speed>
  <fix>3d</fix>
</trkpt>
<trkpt lat="33.8102714" lon="-118.3938718">
  <ele>-35.031</ele>
  <time>2026-09-02T22:07:52Z</time>
  <course>185.67</course>
  <speed>0.7368174807915459</speed>
  <fix>3d</fix>
</trkpt>
<trkpt lat="33.8102721" lon="-118.3938715">
  <ele>-34.19</ele>
  <time>2026-09-02T22:07:52Z</time>
  <course>185.76</course>
  <speed>0.77</speed>
  <fix>3d</fix>
</trkpt>
<trkpt lat="33.8102708" lon="-118.3938719">
  <ele>-35.023</ele>
  <time>2026-09-02T22:07:52Z</time>
  <course>185.63</course>
  <speed>0.7368174807915459</speed>
  <fix>3d</fix>
</trkpt>
<trkpt lat="33.8102721" lon="-118.3938715">
  <ele>-34.19</ele>
  <time>2026-09-02T22:07:52Z</time>
  <course>185.76</course>
  <speed>0.77</speed>
  <fix>3d</fix>
</trkpt>
<trkpt lat="33.8102701" lon="-118.393872">
  <ele>-35.015</ele>
  <time>2026-09-02T22:07:52Z</time>
  <course>185.59</course>
  <speed>0.7368174807915459</speed>
  <fix>3d</fix>
</trkpt>
<trkpt lat="33.8102706" lon="-118.3938718">
  <ele>-34.18</ele>
  <time>2026-09-02T22:07:52Z</time>
  <course>185.75</course>
  <speed>0.77</speed>
  <fix>3d</fix>
</trkpt>
<trkpt lat="33.8102694" lon="-118.3938721">
  <ele>-35.006</ele>
  <time>2026-09-02T22:07:52Z</time>
  <course>185.56</course>
  <speed>0.7368174807915459</speed>
  <fix>3d</fix>
</trkpt>
<trkpt lat="33.8102706" lon="-118.3938718">
  <ele>-34.18</ele>
  <time>2026-09-02T22:07:52Z</time>
  <course>185.75</course>
  <speed>0.77</speed>
  <fix>3d</fix>
</trkpt>
<trkpt lat="33.8102687" lon="-118.3938722">
  <ele>-34.999</ele>
  <time>2026-09-02T22:07:52Z</time>
  <course>185.52</course>
  <speed>0.7368174807915459</speed>
  <fix>3d</fix>
</trkpt>
<trkpt lat="33.8102693" lon="-118.3938719">
  <ele>-34.17</ele>
  <time>2026-09-02T22:07:52Z</time>
  <course>185.75</course>
  <speed>0.77</speed>
  <fix>3d</fix>
</trkpt>
<trkpt lat="33.810268" lon="-118.3938723">
  <ele>-34.992</ele>
  <time>2026-09-02T22:07:52Z</time>
  <course>185.49</course>
  <speed>0.7368174807915459</speed>
  <fix>3d</fix>
</trkpt>
<trkpt lat="33.8102693" lon="-118.3938719">
  <ele>-34.17</ele>
  <time>2026-09-02T22:07:52Z</time>
  <course>185.75</course>
  <speed>0.77</speed>
  <fix>3d</fix>
</trkpt>
<trkpt lat="33.8102673" lon="-118.3938723">
  <ele>-34.987</ele>
  <time>2026-09-02T22:07:52Z</time>
  <course>185.46</course>
  <speed>0.7368174807915459</speed>
  <fix>3d</fix>
</trkpt>
<trkpt lat="33.8102679" lon="-118.3938721">
  <ele>-34.15</ele>
  <time>2026-09-02T22:07:52Z</time>
  <course>185.74</course>
  <speed>0.77</speed>
  <fix>3d</fix>
</trkpt>
<trkpt lat="33.8102666" lon="-118.3938724">
  <ele>-34.982</ele>
  <time>2026-09-02T22:07:52Z</time>
  <course>185.43</course>
  <speed>0.7368174807915459</speed>
  <fix>3d</fix>
</trkpt>
<trkpt lat="33.8102679" lon="-118.3938721">
  <ele>-34.15</ele>
  <time>2026-09-02T22:07:52Z</time>
  <course>185.74</course>
  <speed>0.77</speed>
  <fix>3d</fix>
</trkpt>
<trkpt lat="33.8102659" lon="-118.3938725">
  <ele>-34.978</ele>
  <time>2026-09-02T22:07:52Z</time>
  <course>185.39</course>
  <speed>0.7368174807915459</speed>
  <fix>3d</fix>
</trkpt>
<trkpt lat="33.8102665" lon="-118.3938723">
  <ele>-34.14</ele>
  <time>2026-09-02T22:07:52Z</time>
  <course>185.73</course>
  <speed>0.77</speed>
  <fix>3d</fix>
</trkpt>
<trkpt lat="33.8102652" lon="-118.3938726">
  <ele>-34.974</ele>
  <time>2026-09-02T22:07:52Z</time>
  <course>185.36</course>
  <speed>0.7368174807915459</speed>
  <fix>3d</fix>
</trkpt>
<trkpt lat="33.8102665" lon="-118.3938723">
  <ele>-34.14</ele>
  <time>2026-09-02T22:07:52Z</time>
  <course>185.73</course>
  <speed>0.77</speed>
  <fix>3d</fix>
</trkpt>
<trkpt lat="33.8102645" lon="-118.3938727">
  <ele>-34.969</ele>
  <time>2026-09-02T22:07:52Z</time>
  <course>185.33</course>
  <speed>0.7368174807915459</speed>
  <fix>3d</fix>
</trkpt>
<trkpt lat="33.8102651" lon="-118.3938724">
  <ele>-34.13</ele>
  <time>2026-09-02T22:07:52Z</time>
  <course>185.73</course>
  <speed>0.77</speed>
  <fix>3d</fix>
</trkpt>
<trkpt lat="33.8102638" lon="-118.3938728">
  <ele>-34.963</ele>
  <time>2026-09-02T22:07:52Z</time>
  <course>185.3</course>
  <speed>0.7368174807915459</speed>
  <fix>3d</fix>
</trkpt>
<trkpt lat="33.8102651" lon="-118.3938724">
  <ele>-34.13</ele>
  <time>2026-09-02T22:07:52Z</time>
  <course>185.73</course>
  <speed>0.77</speed>
  <fix>3d</fix>
</trkpt>
<trkpt lat="33.8102632" lon="-118.3938729">
  <ele>-34.956</ele>
  <time>2026-09-02T22:07:52Z</time>
  <course>185.26</course>
  <speed>0.7368174807915459</speed>
  <fix>3d</fix>
</trkpt>
<trkpt lat="33.8102638" lon="-118.3938726">
  <ele>-34.12</ele>
  <time>2026-09-02T22:07:52Z</time>
  <course>185.72</course>
  <speed>0.77</speed>
  <fix>3d</fix>
</trkpt>
<trkpt lat="33.8102625" lon="-118.393873">
  <ele>-34.948</ele>
  <time>2026-09-02T22:07:52Z</time>
  <course>185.23</course>
  <speed>0.7368174807915459</speed>
  <fix>3d</fix>
</trkpt>
<trkpt lat="33.8102638" lon="-118.3938726">
  <ele>-34.12</ele>
  <time>2026-09-02T22:07:52Z</time>
  <course>185.72</course>
  <speed>0.77</speed>
  <fix>3d</fix>
</trkpt>
<trkpt lat="33.8102618" lon="-118.393873">
  <ele>-34.937</ele>
  <time>2026-09-02T22:07:52Z</time>
  <course>185.2</course>
  <speed>0.7368174807915459</speed>
  <fix>3d</fix>
</trkpt>
<trkpt lat="33.8102624" lon="-118.3938728">
  <ele>-34.11</ele>
  <time>2026-09-02T22:07:52Z</time>
  <course>185.7</course>
  <speed>0.77</speed>
  <fix>3d</fix>
</trkpt>
<trkpt lat="33.8102611" lon="-118.3938731">
  <ele>-34.924</ele>
  <time>2026-09-02T22:07:52Z</time>
  <course>185.18</course>
  <speed>0.7368174807915459</speed>
  <fix>3d</fix>
</trkpt>
<trkpt lat="33.8102624" lon="-118.3938728">
  <ele>-34.11</ele>
  <time>2026-09-02T22:07:52Z</time>
  <course>185.7</course>
  <speed>0.77</speed>
  <fix>3d</fix>
</trkpt>
<trkpt lat="33.8102604" lon="-118.3938732">
  <ele>-34.907</ele>
  <time>2026-09-02T22:07:52Z</time>
  <course>185.14</course>
  <speed>0.7368174807915459</speed>
  <fix>3d</fix>
</trkpt>
<trkpt lat="33.8102609" lon="-118.3938729">
  <ele>-34.1</ele>
  <time>2026-09-02T22:07:52Z</time>
  <course>185.67</course>
  <speed>0.77</speed>
  <fix>3d</fix>
</trkpt>
<trkpt lat="33.8102597" lon="-118.3938733">
  <ele>-34.883</ele>
  <time>2026-09-02T22:07:52Z</time>
  <course>185.11</course>
  <speed>0.7368174807915459</speed>
  <fix>3d</fix>
</trkpt>
<trkpt lat="33.8102609" lon="-118.3938729">
  <ele>-34.1</ele>
  <time>2026-09-02T22:07:52Z</time>
  <course>185.67</course>
  <speed>0.77</speed>
  <fix>3d</fix>
</trkpt>
<trkpt lat="33.810259" lon="-118.3938734">
  <ele>-34.857</ele>
  <time>2026-09-02T22:07:52Z</time>
  <course>185.09</course>
  <speed>0.7368174807915459</speed>
  <fix>3d</fix>
</trkpt>
<trkpt lat="33.8102595" lon="-118.3938731">
  <ele>-34.06</ele>
  <time>2026-09-02T22:07:52Z</time>
  <course>185.63</course>
  <speed>0.77</speed>
  <fix>3d</fix>
</trkpt>
<trkpt lat="33.8102583" lon="-118.3938735">
  <ele>-34.829</ele>
  <time>2026-09-02T22:07:52Z</time>
  <course>185.06</course>
  <speed>0.7368174807915459</speed>
  <fix>3d</fix>
</trkpt>
<trkpt lat="33.8102595" lon="-118.3938731">
  <ele>-34.06</ele>
  <time>2026-09-02T22:07:52Z</time>
  <course>185.63</course>
  <speed>0.77</speed>
  <fix>3d</fix>
</trkpt>
<trkpt lat="33.8102576" lon="-118.3938735">
  <ele>-34.801</ele>
  <time>2026-09-02T22:07:52Z</time>
  <course>185.03</course>
  <speed>0.7368174807915459</speed>
  <fix>3d</fix>
</trkpt>
<trkpt lat="33.8102582" lon="-118.3938733">
  <ele>-34.01</ele>
  <time>2026-09-02T22:07:52Z</time>
  <course>185.6</course>
  <speed>0.77</speed>
  <fix>3d</fix>
</trkpt>
<trkpt lat="33.8102569" lon="-118.3938736">
  <ele>-34.77</ele>
  <time>2026-09-02T22:07:52Z</time>
  <course>185.0</course>
  <speed>0.7368174807915459</speed>
  <fix>3d</fix>
</trkpt>
<trkpt lat="33.8102582" lon="-118.3938733">
  <ele>-34.01</ele>
  <time>2026-09-02T22:07:53Z</time>
  <course>185.6</course>
  <speed>0.77</speed>
  <fix>3d</fix>
</trkpt>
<trkpt lat="33.8102562" lon="-118.3938737">
  <ele>-34.736</ele>
  <time>2026-09-02T22:07:53Z</time>
  <course>184.97</course>
  <speed>0.7368174807915459</speed>
  <fix>3d</fix>
</trkpt>
<trkpt lat="33.8102568" lon="-118.3938734">
  <ele>-33.96</ele>
  <time>2026-09-02T22:07:53Z</time>
  <course>185.57</course>
  <speed>0.77</speed>
  <fix>3d</fix>
</trkpt>
<trkpt lat="33.8102555" lon="-118.3938738">
  <ele>-34.698</ele>
  <time>2026-09-02T22:07:53Z</time>
  <course>184.94</course>
  <speed>0.7368174807915459</speed>
  <fix>3d</fix>
</trkpt>
<trkpt lat="33.8102568" lon="-118.3938734">
  <ele>-33.96</ele>
  <time>2026-09-02T22:07:53Z</time>
  <course>185.57</course>
  <speed>0.77</speed>
  <fix>3d</fix>
</trkpt>
<trkpt lat="33.8102549" lon="-118.3938739">
  <ele>-34.657</ele>
  <time>2026-09-02T22:07:53Z</time>
  <course>184.92</course>
  <speed>0.7368174807915459</speed>
  <fix>3d</fix>
</trkpt>
<trkpt lat="33.8102554" lon="-118.3938736">
  <ele>-33.89</ele>
  <time>2026-09-02T22:07:53Z</time>
  <course>185.54</course>
  <speed>0.77</speed>
  <fix>3d</fix>
</trkpt>
<trkpt lat="33.8102542" lon="-118.393874">
  <ele>-34.613</ele>
  <time>2026-09-02T22:07:53Z</time>
  <course>184.89</course>
  <speed>0.7368174807915459</speed>
  <fix>3d</fix>
</trkpt>
<trkpt lat="33.8102554" lon="-118.3938736">
  <ele>-33.89</ele>
  <time>2026-09-02T22:07:53Z</time>
  <course>185.54</course>
  <speed>0.77</speed>
  <fix>3d</fix>
</trkpt>
<trkpt lat="33.8102535" lon="-118.393874">
  <ele>-34.568</ele>
  <time>2026-09-02T22:07:53Z</time>
  <course>184.86</course>
  <speed>0.7355270219373317</speed>
  <fix>3d</fix>
</trkpt>
<trkpt lat="33.810254" lon="-118.3938738">
  <ele>-33.82</ele>
  <time>2026-09-02T22:07:53Z</time>
  <course>185.5</course>
  <speed>0.77</speed>
  <fix>3d</fix>
</trkpt>
<trkpt lat="33.8102528" lon="-118.3938741">
  <ele>-34.523</ele>
  <time>2026-09-02T22:07:53Z</time>
  <course>184.84</course>
  <speed>0.7355270219373317</speed>
  <fix>3d</fix>
</trkpt>
<trkpt lat="33.810254" lon="-118.3938738">
  <ele>-33.82</ele>
  <time>2026-09-02T22:07:53Z</time>
  <course>185.5</course>
  <speed>0.77</speed>
  <fix>3d</fix>
</trkpt>
<trkpt lat="33.8102521" lon="-118.3938742">
  <ele>-34.478</ele>
  <time>2026-09-02T22:07:53Z</time>
  <course>184.81</course>
  <speed>0.7355270219373317</speed>
  <fix>3d</fix>
</trkpt>
<trkpt lat="33.8102527" lon="-118.3938739">
  <ele>-33.73</ele>
  <time>2026-09-02T22:07:53Z</time>
  <course>185.47</course>
  <speed>0.77</speed>
  <fix>3d</fix>
</trkpt>
<trkpt lat="33.8102514" lon="-118.3938743">
  <ele>-34.434</ele>
  <time>2026-09-02T22:07:53Z</time>
  <course>184.78</course>
  <speed>0.7355270219373317</speed>
  <fix>3d</fix>
</trkpt>
<trkpt lat="33.8102527" lon="-118.3938739">
  <ele>-33.73</ele>
  <time>2026-09-02T22:07:53Z</time>
  <course>185.47</course>
  <speed>0.77</speed>
  <fix>3d</fix>
</trkpt>
<trkpt lat="33.8102507" lon="-118.3938744">
  <ele>-34.391</ele>
  <time>2026-09-02T22:07:53Z</time>
  <course>184.76</course>
  <speed>0.7355270219373317</speed>
  <fix>3d</fix>
</trkpt>
<trkpt lat="33.8102513" lon="-118.3938741">
  <ele>-33.65</ele>
  <time>2026-09-02T22:07:53Z</time>
  <course>185.45</course>
  <speed>0.77</speed>
  <fix>3d</fix>
</trkpt>
<trkpt lat="33.81025" lon="-118.3938744">
  <ele>-34.347</ele>
  <time>2026-09-02T22:07:53Z</time>
  <course>184.73</course>
  <speed>0.7355270219373317</speed>
  <fix>3d</fix>
</trkpt>
<trkpt lat="33.8102513" lon="-118.3938741">
  <ele>-33.65</ele>
  <time>2026-09-02T22:07:53Z</time>
  <course>185.45</course>
  <speed>0.77</speed>
  <fix>3d</fix>
</trkpt>
<trkpt lat="33.8102493" lon="-118.3938745">
  <ele>-34.303</ele>
  <time>2026-09-02T22:07:53Z</time>
  <course>184.71</course>
  <speed>0.7355270219373317</speed>
  <fix>3d</fix>
</trkpt>
<trkpt lat="33.8102499" lon="-118.3938742">
  <ele>-33.57</ele>
  <time>2026-09-02T22:07:53Z</time>
  <course>185.43</course>
  <speed>0.77</speed>
  <fix>3d</fix>
</trkpt>
<trkpt lat="33.8102486" lon="-118.3938746">
  <ele>-34.257</ele>
  <time>2026-09-02T22:07:53Z</time>
  <course>184.68</course>
  <speed>0.7355270219373317</speed>
  <fix>3d</fix>
</trkpt>
<trkpt lat="33.8102499" lon="-118.3938742">
  <ele>-33.57</ele>
  <time>2026-09-02T22:07:53Z</time>
  <course>185.43</course>
  <speed>0.77</speed>
  <fix>3d</fix>
</trkpt>
<trkpt lat="33.8102479" lon="-118.3938747">
  <ele>-34.213</ele>
  <time>2026-09-02T22:07:53Z</time>
  <course>184.66</course>
  <speed>0.7355270219373317</speed>
  <fix>3d</fix>
</trkpt>
<trkpt lat="33.8102485" lon="-118.3938743">
  <ele>-33.48</ele>
  <time>2026-09-02T22:07:53Z</time>
  <course>185.4</course>
  <speed>0.77</speed>
  <fix>3d</fix>
</trkpt>
<trkpt lat="33.8102472" lon="-118.3938748">
  <ele>-34.167</ele>
  <time>2026-09-02T22:07:53Z</time>
  <course>184.63</course>
  <speed>0.7355270219373317</speed>
  <fix>3d</fix>
</trkpt>
<trkpt lat="33.8102485" lon="-118.3938743">
  <ele>-33.48</ele>
  <time>2026-09-02T22:07:53Z</time>
  <course>185.4</course>
  <speed>0.77</speed>
  <fix>3d</fix>
</trkpt>
<trkpt lat="33.8102465" lon="-118.3938748">
  <ele>-34.123</ele>
  <time>2026-09-02T22:07:53Z</time>
  <course>184.61</course>
  <speed>0.7355270219373317</speed>
  <fix>3d</fix>
</trkpt>
<trkpt lat="33.8102471" lon="-118.3938746">
  <ele>-33.4</ele>
  <time>2026-09-02T22:07:53Z</time>
  <course>185.37</course>
  <speed>0.77</speed>
  <fix>3d</fix>
</trkpt>
<trkpt lat="33.8102458" lon="-118.3938749">
  <ele>-34.082</ele>
  <time>2026-09-02T22:07:53Z</time>
  <course>184.58</course>
  <speed>0.7355270219373317</speed>
  <fix>3d</fix>
</trkpt>
<trkpt lat="33.8102471" lon="-118.3938746">
  <ele>-33.4</ele>
  <time>2026-09-02T22:07:53Z</time>
  <course>185.37</course>
  <speed>0.77</speed>
  <fix>3d</fix>
</trkpt>
<trkpt lat="33.8102452" lon="-118.393875">
  <ele>-34.045</ele>
  <time>2026-09-02T22:07:53Z</time>
  <course>184.56</course>
  <speed>0.7355270219373317</speed>
  <fix>3d</fix>
</trkpt>
<trkpt lat="33.8102457" lon="-118.3938747">
  <ele>-33.32</ele>
  <time>2026-09-02T22:07:53Z</time>
  <course>185.35</course>
  <speed>0.77</speed>
  <fix>3d</fix>
</trkpt>
<trkpt lat="33.8102445" lon="-118.3938751">
  <ele>-34.012</ele>
  <time>2026-09-02T22:07:53Z</time>
  <course>184.54</course>
  <speed>0.7355270219373317</speed>
  <fix>3d</fix>
</trkpt>
<trkpt lat="33.8102457" lon="-118.3938747">
  <ele>-33.32</ele>
  <time>2026-09-02T22:07:53Z</time>
  <course>185.35</course>
  <speed>0.77</speed>
  <fix>3d</fix>
</trkpt>
<trkpt lat="33.8102438" lon="-118.3938751">
  <ele>-33.982</ele>
  <time>2026-09-02T22:07:53Z</time>
  <course>184.51</course>
  <speed>0.7355270219373317</speed>
  <fix>3d</fix>
</trkpt>
<trkpt lat="33.8102444" lon="-118.3938748">
  <ele>-33.25</ele>
  <time>2026-09-02T22:07:53Z</time>
  <course>185.34</course>
  <speed>0.77</speed>
  <fix>3d</fix>
</trkpt>
<trkpt lat="33.8102431" lon="-118.3938752">
  <ele>-33.953</ele>
  <time>2026-09-02T22:07:53Z</time>
  <course>184.49</course>
  <speed>0.7355270219373317</speed>
  <fix>3d</fix>
</trkpt>
<trkpt lat="33.8102444" lon="-118.3938748">
  <ele>-33.25</ele>
  <time>2026-09-02T22:07:53Z</time>
  <course>185.34</course>
  <speed>0.77</speed>
  <fix>3d</fix>
</trkpt>
<trkpt lat="33.8102424" lon="-118.3938753">
  <ele>-33.927</ele>
  <time>2026-09-02T22:07:53Z</time>
  <course>184.46</course>
  <speed>0.7355270219373317</speed>
  <fix>3d</fix>
</trkpt>
<trkpt lat="33.810243" lon="-118.393875">
  <ele>-33.19</ele>
  <time>2026-09-02T22:07:53Z</time>
  <course>185.32</course>
  <speed>0.77</speed>
  <fix>3d</fix>
</trkpt>
<trkpt lat="33.8102417" lon="-118.3938754">
  <ele>-33.903</ele>
  <time>2026-09-02T22:07:53Z</time>
  <course>184.44</course>
  <speed>0.7355270219373317</speed>
  <fix>3d</fix>
</trkpt>
<trkpt lat="33.810243" lon="-118.393875">
  <ele>-33.19</ele>
  <time>2026-09-02T22:07:53Z</time>
  <course>185.32</course>
  <speed>0.77</speed>
  <fix>3d</fix>
</trkpt>
<trkpt lat="33.810241" lon="-118.3938754">
  <ele>-33.881</ele>
  <time>2026-09-02T22:07:53Z</time>
  <course>184.42</course>
  <speed>0.7355270219373317</speed>
  <fix>3d</fix>
</trkpt>
<trkpt lat="33.8102416" lon="-118.3938752">
  <ele>-33.14</ele>
  <time>2026-09-02T22:07:53Z</time>
  <course>185.29</course>
  <speed>0.77</speed>
  <fix>3d</fix>
</trkpt>
<trkpt lat="33.8102403" lon="-118.3938755">
  <ele>-33.861</ele>
  <time>2026-09-02T22:07:53Z</time>
  <course>184.4</course>
  <speed>0.7355270219373317</speed>
  <fix>3d</fix>
</trkpt>
<trkpt lat="33.8102416" lon="-118.3938752">
  <ele>-33.14</ele>
  <time>2026-09-02T22:07:53Z</time>
  <course>185.29</course>
  <speed>0.77</speed>
  <fix>3d</fix>
</trkpt>
<trkpt lat="33.8102396" lon="-118.3938756">
  <ele>-33.841</ele>
  <time>2026-09-02T22:07:53Z</time>
  <course>184.37</course>
  <speed>0.7355270219373317</speed>
  <fix>3d</fix>
</trkpt>
<trkpt lat="33.8102401" lon="-118.3938753">
  <ele>-33.09</ele>
  <time>2026-09-02T22:07:53Z</time>
  <course>185.27</course>
  <speed>0.77</speed>
  <fix>3d</fix>
</trkpt>
<trkpt lat="33.8102389" lon="-118.3938757">
  <ele>-33.821</ele>
  <time>2026-09-02T22:07:53Z</time>
  <course>184.35</course>
  <speed>0.7355270219373317</speed>
  <fix>3d</fix>
</trkpt>
<trkpt lat="33.8102401" lon="-118.3938753">
  <ele>-33.09</ele>
  <time>2026-09-02T22:07:53Z</time>
  <course>185.27</course>
  <speed>0.77</speed>
  <fix>3d</fix>
</trkpt>
<trkpt lat="33.8102382" lon="-118.3938757">
  <ele>-33.801</ele>
  <time>2026-09-02T22:07:53Z</time>
  <course>184.33</course>
  <speed>0.7355270219373317</speed>
  <fix>3d</fix>
</trkpt>
<trkpt lat="33.8102388" lon="-118.3938755">
  <ele>-33.05</ele>
  <time>2026-09-02T22:07:53Z</time>
  <course>185.24</course>
  <speed>0.77</speed>
  <fix>3d</fix>
</trkpt>
<trkpt lat="33.8102375" lon="-118.3938758">
  <ele>-33.782</ele>
  <time>2026-09-02T22:07:53Z</time>
  <course>184.31</course>
  <speed>0.7355270219373317</speed>
  <fix>3d</fix>
</trkpt>
<trkpt lat="33.8102388" lon="-118.3938755">
  <ele>-33.05</ele>
  <time>2026-09-02T22:07:53Z</time>
  <course>185.24</course>
  <speed>0.77</speed>
  <fix>3d</fix>
</trkpt>
<trkpt lat="33.8102368" lon="-118.3938759">
  <ele>-33.761</ele>
  <time>2026-09-02T22:07:53Z</time>
  <course>184.29</course>
  <speed>0.7355270219373317</speed>
  <fix>3d</fix>
</trkpt>
<trkpt lat="33.8102375" lon="-118.3938756">
  <ele>-33.01</ele>
  <time>2026-09-02T22:07:53Z</time>
  <course>185.21</course>
  <speed>0.77</speed>
  <fix>3d</fix>
</trkpt>
<trkpt lat="33.8102361" lon="-118.393876">
  <ele>-33.74</ele>
  <time>2026-09-02T22:07:53Z</time>
  <course>184.27</course>
  <speed>0.7355270219373317</speed>
  <fix>3d</fix>
</trkpt>
<trkpt lat="33.8102375" lon="-118.3938756">
  <ele>-33.01</ele>
  <time>2026-09-02T22:07:53Z</time>
  <course>185.21</course>
  <speed>0.77</speed>
  <fix>3d</fix>
</trkpt>
<trkpt lat="33.8102354" lon="-118.393876">
  <ele>-33.719</ele>
  <time>2026-09-02T22:07:53Z</time>
  <course>184.25</course>
  <speed>0.7355270219373317</speed>
  <fix>3d</fix>
</trkpt>
<trkpt lat="33.8102361" lon="-118.3938758">
  <ele>-32.97</ele>
  <time>2026-09-02T22:07:53Z</time>
  <course>185.17</course>
  <speed>0.77</speed>
  <fix>3d</fix>
</trkpt>
<trkpt lat="33.8102347" lon="-118.3938761">
  <ele>-33.698</ele>
  <time>2026-09-02T22:07:53Z</time>
  <course>184.23</course>
  <speed>0.7355270219373317</speed>
  <fix>3d</fix>
</trkpt>
<trkpt lat="33.8102361" lon="-118.3938758">
  <ele>-32.97</ele>
  <time>2026-09-02T22:07:53Z</time>
  <course>185.17</course>
  <speed>0.77</speed>
  <fix>3d</fix>
</trkpt>
<trkpt lat="33.8102341" lon="-118.3938762">
  <ele>-33.677</ele>
  <time>2026-09-02T22:07:53Z</time>
  <course>184.21</course>
  <speed>0.7355270219373317</speed>
  <fix>3d</fix>
</trkpt>
<trkpt lat="33.8102346" lon="-118.3938759">
  <ele>-32.92</ele>
  <time>2026-09-02T22:07:53Z</time>
  <course>185.14</course>
  <speed>0.77</speed>
  <fix>3d</fix>
</trkpt>
<trkpt lat="33.8102334" lon="-118.3938763">
  <ele>-33.656</ele>
  <time>2026-09-02T22:07:53Z</time>
  <course>184.18</course>
  <speed>0.7355270219373317</speed>
  <fix>3d</fix>
</trkpt>
<trkpt lat="33.8102346" lon="-118.3938759">
  <ele>-32.92</ele>
  <time>2026-09-02T22:07:53Z</time>
  <course>185.14</course>
  <speed>0.77</speed>
  <fix>3d</fix>
</trkpt>
<trkpt lat="33.8102327" lon="-118.3938763">
  <ele>-33.636</ele>
  <time>2026-09-02T22:07:53Z</time>
  <course>184.17</course>
  <speed>0.7355270219373317</speed>
  <fix>3d</fix>
</trkpt>
<trkpt lat="33.8102333" lon="-118.3938761">
  <ele>-32.88</ele>
  <time>2026-09-02T22:07:53Z</time>
  <course>185.1</course>
  <speed>0.77</speed>
  <fix>3d</fix>
</trkpt>
<trkpt lat="33.810232" lon="-118.3938764">
  <ele>-33.614</ele>
  <time>2026-09-02T22:07:53Z</time>
  <course>184.15</course>
  <speed>0.7343704787094864</speed>
  <fix>3d</fix>
</trkpt>
<trkpt lat="33.8102333" lon="-118.3938761">
  <ele>-32.88</ele>
  <time>2026-09-02T22:07:53Z</time>
  <course>185.1</course>
  <speed>0.77</speed>
  <fix>3d</fix>
</trkpt>
<trkpt lat="33.8102313" lon="-118.3938765">
  <ele>-33.591</ele>
  <time>2026-09-02T22:07:53Z</time>
  <course>184.13</course>
  <speed>0.7343704787094864</speed>
  <fix>3d</fix>
</trkpt>
<trkpt lat="33.8102319" lon="-118.3938762">
  <ele>-32.83</ele>
  <time>2026-09-02T22:07:53Z</time>
  <course>185.07</course>
  <speed>0.77</speed>
  <fix>3d</fix>
</trkpt>
<trkpt lat="33.8102306" lon="-118.3938766">
  <ele>-33.566</ele>
  <time>2026-09-02T22:07:53Z</time>
  <course>184.11</course>
  <speed>0.7343704787094864</speed>
  <fix>3d</fix>
</trkpt>
<trkpt lat="33.8102319" lon="-118.3938762">
  <ele>-32.83</ele>
  <time>2026-09-02T22:07:53Z</time>
  <course>185.07</course>
  <speed>0.77</speed>
  <fix>3d</fix>
</trkpt>
<trkpt lat="33.8102299" lon="-118.3938766">
  <ele>-33.54</ele>
  <time>2026-09-02T22:07:53Z</time>
  <course>184.09</course>
  <speed>0.7343704787094864</speed>
  <fix>3d</fix>
</trkpt>
<trkpt lat="33.8102305" lon="-118.3938763">
  <ele>-32.78</ele>
  <time>2026-09-02T22:07:53Z</time>
  <course>185.03</course>
  <speed>0.77</speed>
  <fix>3d</fix>
</trkpt>
<trkpt lat="33.8102292" lon="-118.3938767">
  <ele>-33.51</ele>
  <time>2026-09-02T22:07:53Z</time>
  <course>184.07</course>
  <speed>0.7343704787094864</speed>
  <fix>3d</fix>
</trkpt>
<trkpt lat="33.8102305" lon="-118.3938763">
  <ele>-32.78</ele>
  <time>2026-09-02T22:07:53Z</time>
  <course>185.03</course>
  <speed>0.77</speed>
  <fix>3d</fix>
</trkpt>
<trkpt lat="33.8102285" lon="-118.3938768">
  <ele>-33.478</ele>
  <time>2026-09-02T22:07:53Z</time>
  <course>184.05</course>
  <speed>0.7343704787094864</speed>
  <fix>3d</fix>
</trkpt>
<trkpt lat="33.8102291" lon="-118.3938765">
  <ele>-32.73</ele>
  <time>2026-09-02T22:07:53Z</time>
  <course>184.99</course>
  <speed>0.77</speed>
  <fix>3d</fix>
</trkpt>
<trkpt lat="33.8102278" lon="-118.3938768">
  <ele>-33.443</ele>
  <time>2026-09-02T22:07:53Z</time>
  <course>184.03</course>
  <speed>0.7343704787094864</speed>
  <fix>3d</fix>
</trkpt>
<trkpt lat="33.8102291" lon="-118.3938765">
  <ele>-32.73</ele>
  <time>2026-09-02T22:07:53Z</time>
  <course>184.99</course>
  <speed>0.77</speed>
  <fix>3d</fix>
</trkpt>
<trkpt lat="33.8102271" lon="-118.3938769">
  <ele>-33.409</ele>
  <time>2026-09-02T22:07:53Z</time>
  <course>184.01</course>
  <speed>0.7343704787094864</speed>
  <fix>3d</fix>
</trkpt>
<trkpt lat="33.8102277" lon="-118.3938767">
  <ele>-32.66</ele>
  <time>2026-09-02T22:07:53Z</time>
  <course>184.95</course>
  <speed>0.77</speed>
  <fix>3d</fix>
</trkpt>
<trkpt lat="33.8102265" lon="-118.393877">
  <ele>-33.374</ele>
  <time>2026-09-02T22:07:53Z</time>
  <course>183.99</course>
  <speed>0.7343704787094864</speed>
  <fix>3d</fix>
</trkpt>
<trkpt lat="33.8102277" lon="-118.3938767">
  <ele>-32.66</ele>
  <time>2026-09-02T22:07:53Z</time>
  <course>184.95</course>
  <speed>0.77</speed>
  <fix>3d</fix>
</trkpt>
<trkpt lat="33.8102258" lon="-118.393877">
  <ele>-33.338</ele>
  <time>2026-09-02T22:07:53Z</time>
  <course>183.98</course>
  <speed>0.7343704787094864</speed>
  <fix>3d</fix>
</trkpt>
<trkpt lat="33.8102264" lon="-118.3938768">
  <ele>-32.6</ele>
  <time>2026-09-02T22:07:53Z</time>
  <course>184.91</course>
  <speed>0.77</speed>
  <fix>3d</fix>
</trkpt>
<trkpt lat="33.8102251" lon="-118.3938771">
  <ele>-33.301</ele>
  <time>2026-09-02T22:07:53Z</time>
  <course>183.96</course>
  <speed>0.7343704787094864</speed>
  <fix>3d</fix>
</trkpt>
<trkpt lat="33.8102264" lon="-118.3938768">
  <ele>-32.6</ele>
  <time>2026-09-02T22:07:53Z</time>
  <course>184.91</course>
  <speed>0.77</speed>
  <fix>3d</fix>
</trkpt>
<trkpt lat="33.8102244" lon="-118.3938772">
  <ele>-33.263</ele>
  <time>2026-09-02T22:07:53Z</time>
  <course>183.94</course>
  <speed>0.7343704787094864</speed>
  <fix>3d</fix>
</trkpt>
<trkpt lat="33.810225" lon="-118.393877">
  <ele>-32.53</ele>
  <time>2026-09-02T22:07:53Z</time>
  <course>184.87</course>
  <speed>0.77</speed>
  <fix>3d</fix>
</trkpt>
<trkpt lat="33.8102237" lon="-118.3938773">
  <ele>-33.225</ele>
  <time>2026-09-02T22:07:53Z</time>
  <course>183.92</course>
  <speed>0.7343704787094864</speed>
  <fix>3d</fix>
</trkpt>
<trkpt lat="33.810225" lon="-118.393877">
  <ele>-32.53</ele>
  <time>2026-09-02T22:07:53Z</time>
  <course>184.87</course>
  <speed>0.77</speed>
  <fix>3d</fix>
</trkpt>
<trkpt lat="33.810223" lon="-118.3938773">
  <ele>-33.186</ele>
  <time>2026-09-02T22:07:53Z</time>
  <course>183.91</course>
  <speed>0.7343704787094864</speed>
  <fix>3d</fix>
</trkpt>
<trkpt lat="33.8102236" lon="-118.3938771">
  <ele>-32.46</ele>
  <time>2026-09-02T22:07:53Z</time>
  <course>184.83</course>
  <speed>0.77</speed>
  <fix>3d</fix>
</trkpt>
<trkpt lat="33.8102223" lon="-118.3938774">
  <ele>-33.149</ele>
  <time>2026-09-02T22:07:53Z</time>
  <course>183.89</course>
  <speed>0.7343704787094864</speed>
  <fix>3d</fix>
</trkpt>
<trkpt lat="33.8102236" lon="-118.3938771">
  <ele>-32.46</ele>
  <time>2026-09-02T22:07:53Z</time>
  <course>184.83</course>
  <speed>0.77</speed>
  <fix>3d</fix>
</trkpt>
<trkpt lat="33.8102216" lon="-118.3938775">
  <ele>-33.112</ele>
  <time>2026-09-02T22:07:53Z</time>
  <course>183.87</course>
  <speed>0.7343704787094864</speed>
  <fix>3d</fix>
</trkpt>
<trkpt lat="33.8102222" lon="-118.3938772">
  <ele>-32.39</ele>
  <time>2026-09-02T22:07:53Z</time>
  <course>184.8</course>
  <speed>0.77</speed>
  <fix>3d</fix>
</trkpt>
<trkpt lat="33.8102209" lon="-118.3938775">
  <ele>-33.078</ele>
  <time>2026-09-02T22:07:53Z</time>
  <course>183.85</course>
  <speed>0.7343704787094864</speed>
  <fix>3d</fix>
</trkpt>
<trkpt lat="33.8102222" lon="-118.3938772">
  <ele>-32.39</ele>
  <time>2026-09-02T22:07:53Z</time>
  <course>184.8</course>
  <speed>0.77</speed>
  <fix>3d</fix>
</trkpt>
<trkpt lat="33.8102203" lon="-118.3938776">
  <ele>-33.043</ele>
  <time>2026-09-02T22:07:53Z</time>
  <course>183.84</course>
  <speed>0.7343704787094864</speed>
  <fix>3d</fix>
</trkpt>
<trkpt lat="33.8102207" lon="-118.3938774">
  <ele>-32.33</ele>
  <time>2026-09-02T22:07:53Z</time>
  <course>184.77</course>
  <speed>0.77</speed>
  <fix>3d</fix>
</trkpt>
<trkpt lat="33.8102196" lon="-118.3938777">
  <ele>-33.007</ele>
  <time>2026-09-02T22:07:53Z</time>
  <course>183.82</course>
  <speed>0.7343704787094864</speed>
  <fix>3d</fix>
</trkpt>
<trkpt lat="33.8102207" lon="-118.3938774">
  <ele>-32.33</ele>
  <time>2026-09-02T22:07:53Z</time>
  <course>184.77</course>
  <speed>0.77</speed>
  <fix>3d</fix>
</trkpt>
<trkpt lat="33.8102189" lon="-118.3938777">
  <ele>-32.971</ele>
  <time>2026-09-02T22:07:53Z</time>
  <course>183.81</course>
  <speed>0.7343704787094864</speed>
  <fix>3d</fix>
</trkpt>
<trkpt lat="33.8102193" lon="-118.3938775">
  <ele>-32.26</ele>
  <time>2026-09-02T22:07:53Z</time>
  <course>184.73</course>
  <speed>0.77</speed>
  <fix>3d</fix>
</trkpt>
<trkpt lat="33.8102182" lon="-118.3938778">
  <ele>-32.935</ele>
  <time>2026-09-02T22:07:53Z</time>
  <course>183.79</course>
  <speed>0.7343704787094864</speed>
  <fix>3d</fix>
</trkpt>
<trkpt lat="33.8102193" lon="-118.3938775">
  <ele>-32.26</ele>
  <time>2026-09-02T22:07:53Z</time>
  <course>184.73</course>
  <speed>0.77</speed>
  <fix>3d</fix>
</trkpt>
<trkpt lat="33.8102175" lon="-118.3938779">
  <ele>-32.9</ele>
  <time>2026-09-02T22:07:53Z</time>
  <course>183.77</course>
  <speed>0.7343704787094864</speed>
  <fix>3d</fix>
</trkpt>
<trkpt lat="33.810218" lon="-118.3938777">
  <ele>-32.19</ele>
  <time>2026-09-02T22:07:53Z</time>
  <course>184.7</course>
  <speed>0.77</speed>
  <fix>3d</fix>
</trkpt>
<trkpt lat="33.8102168" lon="-118.3938779">
  <ele>-32.863</ele>
  <time>2026-09-02T22:07:53Z</time>
  <course>183.76</course>
  <speed>0.7443117626371358</speed>
  <fix>3d</fix>
</trkpt>
<trkpt lat="33.810218" lon="-118.3938777">
  <ele>-32.19</ele>
  <time>2026-09-02T22:07:53Z</time>
  <course>184.7</course>
  <speed>0.77</speed>
  <fix>3d</fix>
</trkpt>
<trkpt lat="33.8102161" lon="-118.393878">
  <ele>-32.825</ele>
  <time>2026-09-02T22:07:53Z</time>
  <course>183.74</course>
  <speed>0.7443117626371358</speed>
  <fix>3d</fix>
</trkpt>
<trkpt lat="33.8102166" lon="-118.3938778">
  <ele>-32.12</ele>
  <time>2026-09-02T22:07:53Z</time>
  <course>184.66</course>
  <speed>0.77</speed>
  <fix>3d</fix>
</trkpt>
<trkpt lat="33.8102154" lon="-118.3938781">
  <ele>-32.788</ele>
  <time>2026-09-02T22:07:53Z</time>
  <course>183.73</course>
  <speed>0.7443117626371358</speed>
  <fix>3d</fix>
</trkpt>
<trkpt lat="33.8102166" lon="-118.3938778">
  <ele>-32.12</ele>
  <time>2026-09-02T22:07:53Z</time>
  <course>184.66</course>
  <speed>0.77</speed>
  <fix>3d</fix>
</trkpt>
<trkpt lat="33.8102147" lon="-118.3938782">
  <ele>-32.755</ele>
  <time>2026-09-02T22:07:53Z</time>
  <course>183.71</course>
  <speed>0.7443117626371358</speed>
  <fix>3d</fix>
</trkpt>
<trkpt lat="33.8102152" lon="-118.3938779">
  <ele>-32.05</ele>
  <time>2026-09-02T22:07:53Z</time>
  <course>184.63</course>
  <speed>0.77</speed>
  <fix>3d</fix>
</trkpt>
<trkpt lat="33.810214" lon="-118.3938782">
  <ele>-32.722</ele>
  <time>2026-09-02T22:07:53Z</time>
  <course>183.7</course>
  <speed>0.7443117626371358</speed>
  <fix>3d</fix>
</trkpt>
<trkpt lat="33.8102152" lon="-118.3938779">
  <ele>-32.05</ele>
  <time>2026-09-02T22:07:53Z</time>
  <course>184.63</course>
  <speed>0.77</speed>
  <fix>3d</fix>
</trkpt>
<trkpt lat="33.8102133" lon="-118.3938783">
  <ele>-32.691</ele>
  <time>2026-09-02T22:07:53Z</time>
  <course>183.68</course>
  <speed>0.7443117626371358</speed>
  <fix>3d</fix>
</trkpt>
<trkpt lat="33.8102139" lon="-118.3938781">
  <ele>-31.98</ele>
  <time>2026-09-02T22:07:53Z</time>
  <course>184.6</course>
  <speed>0.77</speed>
  <fix>3d</fix>
</trkpt>
<trkpt lat="33.8102126" lon="-118.3938784">
  <ele>-32.664</ele>
  <time>2026-09-02T22:07:53Z</time>
  <course>183.67</course>
  <speed>0.7443117626371358</speed>
  <fix>3d</fix>
</trkpt>
<trkpt lat="33.8102139" lon="-118.3938781">
  <ele>-31.98</ele>
  <time>2026-09-02T22:07:53Z</time>
  <course>184.6</course>
  <speed>0.77</speed>
  <fix>3d</fix>
</trkpt>
<trkpt lat="33.8102119" lon="-118.3938784">
  <ele>-32.638</ele>
  <time>2026-09-02T22:07:53Z</time>
  <course>183.65</course>
  <speed>0.7443117626371358</speed>
  <fix>3d</fix>
</trkpt>
<trkpt lat="33.8102125" lon="-118.3938782">
  <ele>-31.92</ele>
  <time>2026-09-02T22:07:53Z</time>
  <course>184.57</course>
  <speed>0.77</speed>
  <fix>3d</fix>
</trkpt>
<trkpt lat="33.8102112" lon="-118.3938785">
  <ele>-32.612</ele>
  <time>2026-09-02T22:07:53Z</time>
  <course>183.64</course>
  <speed>0.7443117626371358</speed>
  <fix>3d</fix>
</trkpt>
<trkpt lat="33.8102125" lon="-118.3938782">
  <ele>-31.92</ele>
  <time>2026-09-02T22:07:53Z</time>
  <course>184.57</course>
  <speed>0.77</speed>
  <fix>3d</fix>
</trkpt>
<trkpt lat="33.8102105" lon="-118.3938786">
  <ele>-32.586</ele>
  <time>2026-09-02T22:07:53Z</time>
  <course>183.62</course>
  <speed>0.7443117626371358</speed>
  <fix>3d</fix>
</trkpt>
<trkpt lat="33.810211" lon="-118.3938783">
  <ele>-31.87</ele>
  <time>2026-09-02T22:07:53Z</time>
  <course>184.54</course>
  <speed>0.77</speed>
  <fix>3d</fix>
</trkpt>
<trkpt lat="33.8102098" lon="-118.3938786">
  <ele>-32.56</ele>
  <time>2026-09-02T22:07:53Z</time>
  <course>183.61</course>
  <speed>0.7443117626371358</speed>
  <fix>3d</fix>
</trkpt>
<trkpt lat="33.810211" lon="-118.3938783">
  <ele>-31.87</ele>
  <time>2026-09-02T22:07:53Z</time>
  <course>184.54</course>
  <speed>0.77</speed>
  <fix>3d</fix>
</trkpt>
<trkpt lat="33.8102091" lon="-118.3938787">
  <ele>-32.535</ele>
  <time>2026-09-02T22:07:53Z</time>
  <course>183.59</course>
  <speed>0.7443117626371358</speed>
  <fix>3d</fix>
</trkpt>
<trkpt lat="33.8102097" lon="-118.3938785">
  <ele>-31.82</ele>
  <time>2026-09-02T22:07:53Z</time>
  <course>184.51</course>
  <speed>0.77</speed>
  <fix>3d</fix>
</trkpt>
<trkpt lat="33.8102084" lon="-118.3938788">
  <ele>-32.511</ele>
  <time>2026-09-02T22:07:53Z</time>
  <course>183.58</course>
  <speed>0.7443117626371358</speed>
  <fix>3d</fix>
</trkpt>
<trkpt lat="33.8102097" lon="-118.3938785">
  <ele>-31.82</ele>
  <time>2026-09-02T22:07:53Z</time>
  <course>184.51</course>
  <speed>0.77</speed>
  <fix>3d</fix>
</trkpt>
<trkpt lat="33.8102077" lon="-118.3938788">
  <ele>-32.487</ele>
  <time>2026-09-02T22:07:53Z</time>
  <course>183.56</course>
  <speed>0.7433034373659253</speed>
  <fix>3d</fix>
</trkpt>
<trkpt lat="33.8102083" lon="-118.3938786">
  <ele>-31.77</ele>
  <time>2026-09-02T22:07:53Z</time>
  <course>184.47</course>
  <speed>0.77</speed>
  <fix>3d</fix>
</trkpt>
<trkpt lat="33.810207" lon="-118.3938789">
  <ele>-32.462</ele>
  <time>2026-09-02T22:07:53Z</time>
  <course>183.55</course>
  <speed>0.7433034373659253</speed>
  <fix>3d</fix>
</trkpt>
<trkpt lat="33.8102083" lon="-118.3938786">
  <ele>-31.77</ele>
  <time>2026-09-02T22:07:53Z</time>
  <course>184.47</course>
  <speed>0.77</speed>
  <fix>3d</fix>
</trkpt>
<trkpt lat="33.8102063" lon="-118.3938789">
  <ele>-32.439</ele>
  <time>2026-09-02T22:07:53Z</time>
  <course>183.54</course>
  <speed>0.7433034373659253</speed>
  <fix>3d</fix>
</trkpt>
<trkpt lat="33.8102069" lon="-118.3938787">
  <ele>-31.72</ele>
  <time>2026-09-02T22:07:53Z</time>
  <course>184.44</course>
  <speed>0.77</speed>
  <fix>3d</fix>
</trkpt>
<trkpt lat="33.8102056" lon="-118.393879">
  <ele>-32.414</ele>
  <time>2026-09-02T22:07:53Z</time>
  <course>183.53</course>
  <speed>0.7433034373659253</speed>
  <fix>3d</fix>
</trkpt>
<trkpt lat="33.8102069" lon="-118.3938787">
  <ele>-31.72</ele>
  <time>2026-09-02T22:07:53Z</time>
  <course>184.44</course>
  <speed>0.77</speed>
  <fix>3d</fix>
</trkpt>
<trkpt lat="33.8102049" lon="-118.3938791">
  <ele>-32.388</ele>
  <time>2026-09-02T22:07:53Z</time>
  <course>183.51</course>
  <speed>0.7433034373659253</speed>
  <fix>3d</fix>
</trkpt>
<trkpt lat="33.8102055" lon="-118.3938789">
  <ele>-31.67</ele>
  <time>2026-09-02T22:07:53Z</time>
  <course>184.41</course>
  <speed>0.77</speed>
  <fix>3d</fix>
</trkpt>
<trkpt lat="33.8102042" lon="-118.3938791">
  <ele>-32.36</ele>
  <time>2026-09-02T22:07:53Z</time>
  <course>183.5</course>
  <speed>0.7433034373659253</speed>
  <fix>3d</fix>
</trkpt>
<trkpt lat="33.8102055" lon="-118.3938789">
  <ele>-31.67</ele>
  <time>2026-09-02T22:07:53Z</time>
  <course>184.41</course>
  <speed>0.77</speed>
  <fix>3d</fix>
</trkpt>
<trkpt lat="33.8102035" lon="-118.3938792">
  <ele>-32.33</ele>
  <time>2026-09-02T22:07:53Z</time>
  <course>183.48</course>
  <speed>0.7433034373659253</speed>
  <fix>3d</fix>
</trkpt>
<trkpt lat="33.8102042" lon="-118.393879">
  <ele>-31.62</ele>
  <time>2026-09-02T22:07:53Z</time>
  <course>184.37</course>
  <speed>0.77</speed>
  <fix>3d</fix>
</trkpt>
<trkpt lat="33.8102028" lon="-118.3938793">
  <ele>-32.3</ele>
  <time>2026-09-02T22:07:53Z</time>
  <course>183.47</course>
  <speed>0.7433034373659253</speed>
  <fix>3d</fix>
</trkpt>
<trkpt lat="33.8102042" lon="-118.393879">
  <ele>-31.62</ele>
  <time>2026-09-02T22:07:53Z</time>
  <course>184.37</course>
  <speed>0.77</speed>
  <fix>3d</fix>
</trkpt>
<trkpt lat="33.8102022" lon="-118.3938793">
  <ele>-32.27</ele>
  <time>2026-09-02T22:07:53Z</time>
  <course>183.46</course>
  <speed>0.7433034373659253</speed>
  <fix>3d</fix>
</trkpt>
<trkpt lat="33.8102028" lon="-118.3938791">
  <ele>-31.57</ele>
  <time>2026-09-02T22:07:53Z</time>
  <course>184.33</course>
  <speed>0.77</speed>
  <fix>3d</fix>
</trkpt>
<trkpt lat="33.8102015" lon="-118.3938794">
  <ele>-32.238</ele>
  <time>2026-09-02T22:07:53Z</time>
  <course>183.44</course>
  <speed>0.7433034373659253</speed>
  <fix>3d</fix>
</trkpt>
<trkpt lat="33.8102028" lon="-118.3938791">
  <ele>-31.57</ele>
  <time>2026-09-02T22:07:53Z</time>
  <course>184.33</course>
  <speed>0.77</speed>
  <fix>3d</fix>
</trkpt>
<trkpt lat="33.8102008" lon="-118.3938795">
  <ele>-32.204</ele>
  <time>2026-09-02T22:07:53Z</time>
  <course>183.43</course>
  <speed>0.7433034373659253</speed>
  <fix>3d</fix>
</trkpt>
<trkpt lat="33.8102013" lon="-118.3938792">
  <ele>-31.51</ele>
  <time>2026-09-02T22:07:53Z</time>
  <course>184.3</course>
  <speed>0.77</speed>
  <fix>3d</fix>
</trkpt>
<trkpt lat="33.8102001" lon="-118.3938795">
  <ele>-32.169</ele>
  <time>2026-09-02T22:07:53Z</time>
  <course>183.42</course>
  <speed>0.7433034373659253</speed>
  <fix>3d</fix>
</trkpt>
<trkpt lat="33.8102013" lon="-118.3938792">
  <ele>-31.51</ele>
  <time>2026-09-02T22:07:53Z</time>
  <course>184.3</course>
  <speed>0.77</speed>
  <fix>3d</fix>
</trkpt>
<trkpt lat="33.8101994" lon="-118.3938796">
  <ele>-32.133</ele>
  <time>2026-09-02T22:07:53Z</time>
  <course>183.41</course>
  <speed>0.7433034373659253</speed>
  <fix>3d</fix>
</trkpt>
<trkpt lat="33.8101999" lon="-118.3938794">
  <ele>-31.44</ele>
  <time>2026-09-02T22:07:53Z</time>
  <course>184.26</course>
  <speed>0.77</speed>
  <fix>3d</fix>
</trkpt>
<trkpt lat="33.8101987" lon="-118.3938796">
  <ele>-32.097</ele>
  <time>2026-09-02T22:07:53Z</time>
  <course>183.39</course>
  <speed>0.7433034373659253</speed>
  <fix>3d</fix>
</trkpt>
<trkpt lat="33.8101999" lon="-118.3938794">
  <ele>-31.44</ele>
  <time>2026-09-02T22:07:53Z</time>
  <course>184.26</course>
  <speed>0.77</speed>
  <fix>3d</fix>
</trkpt>
<trkpt lat="33.810198" lon="-118.3938797">
  <ele>-32.059</ele>
  <time>2026-09-02T22:07:53Z</time>
  <course>183.38</course>
  <speed>0.7433034373659253</speed>
  <fix>3d</fix>
</trkpt>
<trkpt lat="33.8101986" lon="-118.3938795">
  <ele>-31.37</ele>
  <time>2026-09-02T22:07:53Z</time>
  <course>184.23</course>
  <speed>0.77</speed>
  <fix>3d</fix>
</trkpt>
<trkpt lat="33.8101973" lon="-118.3938798">
  <ele>-32.019</ele>
  <time>2026-09-02T22:07:53Z</time>
  <course>183.37</course>
  <speed>0.7433034373659253</speed>
  <fix>3d</fix>
</trkpt>
<trkpt lat="33.8101986" lon="-118.3938795">
  <ele>-31.37</ele>
  <time>2026-09-02T22:07:53Z</time>
  <course>184.23</course>
  <speed>0.77</speed>
  <fix>3d</fix>
</trkpt>
<trkpt lat="33.8101966" lon="-118.3938798">
  <ele>-31.979</ele>
  <time>2026-09-02T22:07:53Z</time>
  <course>183.36</course>
  <speed>0.7433034373659253</speed>
  <fix>3d</fix>
</trkpt>
<trkpt lat="33.8101972" lon="-118.3938796">
  <ele>-31.3</ele>
  <time>2026-09-02T22:07:53Z</time>
  <course>184.19</course>
  <speed>0.77</speed>
  <fix>3d</fix>
</trkpt>
<trkpt lat="33.8101959" lon="-118.3938799">
  <ele>-31.941</ele>
  <time>2026-09-02T22:07:53Z</time>
  <course>183.35</course>
  <speed>0.7433034373659253</speed>
  <fix>3d</fix>
</trkpt>
<trkpt lat="33.8101972" lon="-118.3938796">
  <ele>-31.3</ele>
  <time>2026-09-02T22:07:53Z</time>
  <course>184.19</course>
  <speed>0.77</speed>
  <fix>3d</fix>
</trkpt>
<trkpt lat="33.8101952" lon="-118.3938799">
  <ele>-31.902</ele>
  <time>2026-09-02T22:07:53Z</time>
  <course>183.34</course>
  <speed>0.7433034373659253</speed>
  <fix>3d</fix>
</trkpt>
<trkpt lat="33.8101958" lon="-118.3938797">
  <ele>-31.22</ele>
  <time>2026-09-02T22:07:53Z</time>
  <course>184.16</course>
  <speed>0.77</speed>
  <fix>3d</fix>
</trkpt>
<trkpt lat="33.8101945" lon="-118.39388">
  <ele>-31.865</ele>
  <time>2026-09-02T22:07:53Z</time>
  <course>183.32</course>
  <speed>0.7433034373659253</speed>
  <fix>3d</fix>
</trkpt>
<trkpt lat="33.8101958" lon="-118.3938797">
  <ele>-31.22</ele>
  <time>2026-09-02T22:07:53Z</time>
  <course>184.16</course>
  <speed>0.77</speed>
  <fix>3d</fix>
</trkpt>
<trkpt lat="33.8101938" lon="-118.3938801">
  <ele>-31.83</ele>
  <time>2026-09-02T22:07:53Z</time>
  <course>183.31</course>
  <speed>0.7433034373659253</speed>
  <fix>3d</fix>
</trkpt>
<trkpt lat="33.8101944" lon="-118.3938798">
  <ele>-31.15</ele>
  <time>2026-09-02T22:07:53Z</time>
  <course>184.13</course>
  <speed>0.77</speed>
  <fix>3d</fix>
</trkpt>
<trkpt lat="33.8101931" lon="-118.3938801">
  <ele>-31.795</ele>
  <time>2026-09-02T22:07:53Z</time>
  <course>183.3</course>
  <speed>0.7433034373659253</speed>
  <fix>3d</fix>
</trkpt>
<trkpt lat="33.8101944" lon="-118.3938798">
  <ele>-31.15</ele>
  <time>2026-09-02T22:07:53Z</time>
  <course>184.13</course>
  <speed>0.77</speed>
  <fix>3d</fix>
</trkpt>
<trkpt lat="33.8101924" lon="-118.3938802">
  <ele>-31.759</ele>
  <time>2026-09-02T22:07:53Z</time>
  <course>183.29</course>
  <speed>0.7433034373659253</speed>
  <fix>3d</fix>
</trkpt>
<trkpt lat="33.8101931" lon="-118.39388">
  <ele>-31.08</ele>
  <time>2026-09-02T22:07:53Z</time>
  <course>184.1</course>
  <speed>0.77</speed>
  <fix>3d</fix>
</trkpt>
<trkpt lat="33.8101917" lon="-118.3938802">
  <ele>-31.722</ele>
  <time>2026-09-02T22:07:53Z</time>
  <course>183.28</course>
  <speed>0.7433034373659253</speed>
  <fix>3d</fix>
</trkpt>
<trkpt lat="33.8101931" lon="-118.39388">
  <ele>-31.08</ele>
  <time>2026-09-02T22:07:53Z</time>
  <course>184.1</course>
  <speed>0.77</speed>
  <fix>3d</fix>
</trkpt>
<trkpt lat="33.810191" lon="-118.3938803">
  <ele>-31.687</ele>
  <time>2026-09-02T22:07:53Z</time>
  <course>183.27</course>
  <speed>0.7433034373659253</speed>
  <fix>3d</fix>
</trkpt>
<trkpt lat="33.8101917" lon="-118.3938801">
  <ele>-31.01</ele>
  <time>2026-09-02T22:07:53Z</time>
  <course>184.07</course>
  <speed>0.77</speed>
  <fix>3d</fix>
</trkpt>
<trkpt lat="33.8101903" lon="-118.3938804">
  <ele>-31.656</ele>
  <time>2026-09-02T22:07:53Z</time>
  <course>183.26</course>
  <speed>0.7433034373659253</speed>
  <fix>3d</fix>
</trkpt>
<trkpt lat="33.8101917" lon="-118.3938801">
  <ele>-31.01</ele>
  <time>2026-09-02T22:07:53Z</time>
  <course>184.07</course>
  <speed>0.77</speed>
  <fix>3d</fix>
</trkpt>
<trkpt lat="33.8101897" lon="-118.3938804">
  <ele>-31.627</ele>
  <time>2026-09-02T22:07:53Z</time>
  <course>183.25</course>
  <speed>0.7433034373659253</speed>
  <fix>3d</fix>
</trkpt>
<trkpt lat="33.8101903" lon="-118.3938802">
  <ele>-30.94</ele>
  <time>2026-09-02T22:07:53Z</time>
  <course>184.05</course>
  <speed>0.77</speed>
  <fix>3d</fix>
</trkpt>
<trkpt lat="33.810189" lon="-118.3938805">
  <ele>-31.598</ele>
  <time>2026-09-02T22:07:53Z</time>
  <course>183.24</course>
  <speed>0.7433034373659253</speed>
  <fix>3d</fix>
</trkpt>
<trkpt lat="33.8101903" lon="-118.3938802">
  <ele>-30.94</ele>
  <time>2026-09-02T22:07:53Z</time>
  <course>184.05</course>
  <speed>0.77</speed>
  <fix>3d</fix>
</trkpt>
<trkpt lat="33.8101883" lon="-118.3938805">
  <ele>-31.57</ele>
  <time>2026-09-02T22:07:53Z</time>
  <course>183.22</course>
  <speed>0.7433034373659253</speed>
  <fix>3d</fix>
</trkpt>
<trkpt lat="33.8101889" lon="-118.3938803">
  <ele>-30.88</ele>
  <time>2026-09-02T22:07:53Z</time>
  <course>184.02</course>
  <speed>0.77</speed>
  <fix>3d</fix>
</trkpt>
<trkpt lat="33.8101876" lon="-118.3938806">
  <ele>-31.543</ele>
  <time>2026-09-02T22:07:53Z</time>
  <course>183.21</course>
  <speed>0.7433034373659253</speed>
  <fix>3d</fix>
</trkpt>
<trkpt lat="33.8101889" lon="-118.3938803">
  <ele>-30.88</ele>
  <time>2026-09-02T22:07:53Z</time>
  <course>184.02</course>
  <speed>0.77</speed>
  <fix>3d</fix>
</trkpt>
<trkpt lat="33.8101869" lon="-118.3938806">
  <ele>-31.517</ele>
  <time>2026-09-02T22:07:53Z</time>
  <course>183.21</course>
  <speed>0.7433034373659253</speed>
  <fix>3d</fix>
</trkpt>
<trkpt lat="33.8101875" lon="-118.3938804">
  <ele>-30.83</ele>
  <time>2026-09-02T22:07:53Z</time>
  <course>184.0</course>
  <speed>0.77</speed>
  <fix>3d</fix>
</trkpt>
<trkpt lat="33.8101862" lon="-118.3938807">
  <ele>-31.49</ele>
  <time>2026-09-02T22:07:53Z</time>
  <course>183.2</course>
  <speed>0.7433034373659253</speed>
  <fix>3d</fix>
</trkpt>
<trkpt lat="33.8101875" lon="-118.3938804">
  <ele>-30.83</ele>
  <time>2026-09-02T22:07:53Z</time>
  <course>184.0</course>
  <speed>0.77</speed>
  <fix>3d</fix>
</trkpt>
<trkpt lat="33.8101855" lon="-118.3938808">
  <ele>-31.463</ele>
  <time>2026-09-02T22:07:53Z</time>
  <course>183.18</course>
  <speed>0.7433034373659253</speed>
  <fix>3d</fix>
</trkpt>
<trkpt lat="33.810186" lon="-118.3938806">
  <ele>-30.77</ele>
  <time>2026-09-02T22:07:53Z</time>
  <course>183.97</course>
  <speed>0.77</speed>
  <fix>3d</fix>
</trkpt>
<trkpt lat="33.8101848" lon="-118.3938808">
  <ele>-31.434</ele>
  <time>2026-09-02T22:07:53Z</time>
  <course>183.17</course>
  <speed>0.7433034373659253</speed>
  <fix>3d</fix>
</trkpt>
<trkpt lat="33.810186" lon="-118.3938806">
  <ele>-30.77</ele>
  <time>2026-09-02T22:07:53Z</time>
  <course>183.97</course>
  <speed>0.77</speed>
  <fix>3d</fix>
</trkpt>
<trkpt lat="33.8101841" lon="-118.3938809">
  <ele>-31.403</ele>
  <time>2026-09-02T22:07:53Z</time>
  <course>183.16</course>
  <speed>0.7433034373659253</speed>
  <fix>3d</fix>
</trkpt>
<trkpt lat="33.8101847" lon="-118.3938807">
  <ele>-30.72</ele>
  <time>2026-09-02T22:07:53Z</time>
  <course>183.93</course>
  <speed>0.77</speed>
  <fix>3d</fix>
</trkpt>
<trkpt lat="33.8101834" lon="-118.3938809">
  <ele>-31.372</ele>
  <time>2026-09-02T22:07:53Z</time>
  <course>183.16</course>
  <speed>0.7433034373659253</speed>
  <fix>3d</fix>
</trkpt>
<trkpt lat="33.8101847" lon="-118.3938807">
  <ele>-30.72</ele>
  <time>2026-09-02T22:07:53Z</time>
  <course>183.93</course>
  <speed>0.77</speed>
  <fix>3d</fix>
</trkpt>
<trkpt lat="33.8101827" lon="-118.393881">
  <ele>-31.343</ele>
  <time>2026-09-02T22:07:53Z</time>
  <course>183.14</course>
  <speed>0.7433034373659253</speed>
  <fix>3d</fix>
</trkpt>
<trkpt lat="33.8101833" lon="-118.3938808">
  <ele>-30.66</ele>
  <time>2026-09-02T22:07:53Z</time>
  <course>183.9</course>
  <speed>0.77</speed>
  <fix>3d</fix>
</trkpt>
<trkpt lat="33.810182" lon="-118.393881">
  <ele>-31.316</ele>
  <time>2026-09-02T22:07:53Z</time>
  <course>183.14</course>
  <speed>0.7433034373659253</speed>
  <fix>3d</fix>
</trkpt>
<trkpt lat="33.8101833" lon="-118.3938808">
  <ele>-30.66</ele>
  <time>2026-09-02T22:07:53Z</time>
  <course>183.9</course>
  <speed>0.77</speed>
  <fix>3d</fix>
</trkpt>
<trkpt lat="33.8101813" lon="-118.3938811">
  <ele>-31.29</ele>
  <time>2026-09-02T22:07:53Z</time>
  <course>183.13</course>
  <speed>0.7433034373659253</speed>
  <fix>3d</fix>
</trkpt>
<trkpt lat="33.810182" lon="-118.3938809">
  <ele>-30.59</ele>
  <time>2026-09-02T22:07:53Z</time>
  <course>183.88</course>
  <speed>0.77</speed>
  <fix>3d</fix>
</trkpt>
<trkpt lat="33.8101806" lon="-118.3938812">
  <ele>-31.266</ele>
  <time>2026-09-02T22:07:53Z</time>
  <course>183.12</course>
  <speed>0.7433034373659253</speed>
  <fix>3d</fix>
</trkpt>
<trkpt lat="33.810182" lon="-118.3938809">
  <ele>-30.59</ele>
  <time>2026-09-02T22:07:53Z</time>
  <course>183.88</course>
  <speed>0.77</speed>
  <fix>3d</fix>
</trkpt>
<trkpt lat="33.8101799" lon="-118.3938812">
  <ele>-31.242</ele>
  <time>2026-09-02T22:07:53Z</time>
  <course>183.11</course>
  <speed>0.7433034373659253</speed>
  <fix>3d</fix>
</trkpt>
<trkpt lat="33.8101805" lon="-118.393881">
  <ele>-30.54</ele>
  <time>2026-09-02T22:07:53Z</time>
  <course>183.86</course>
  <speed>0.77</speed>
  <fix>3d</fix>
</trkpt>
<trkpt lat="33.8101792" lon="-118.3938813">
  <ele>-31.218</ele>
  <time>2026-09-02T22:07:53Z</time>
  <course>183.1</course>
  <speed>0.7433034373659253</speed>
  <fix>3d</fix>
</trkpt>
<trkpt lat="33.8101805" lon="-118.393881">
  <ele>-30.54</ele>
  <time>2026-09-02T22:07:53Z</time>
  <course>183.86</course>
  <speed>0.77</speed>
  <fix>3d</fix>
</trkpt>
<trkpt lat="33.8101785" lon="-118.3938813">
  <ele>-31.192</ele>
  <time>2026-09-02T22:07:53Z</time>
  <course>183.09</course>
  <speed>0.7424284477308234</speed>
  <fix>3d</fix>
</trkpt>
<trkpt lat="33.8101792" lon="-118.3938811">
  <ele>-30.49</ele>
  <time>2026-09-02T22:07:53Z</time>
  <course>183.83</course>
  <speed>0.77</speed>
  <fix>3d</fix>
</trkpt>
<trkpt lat="33.8101778" lon="-118.3938814">
  <ele>-31.165</ele>
  <time>2026-09-02T22:07:53Z</time>
  <course>183.08</course>
  <speed>0.7424284477308234</speed>
  <fix>3d</fix>
</trkpt>
<trkpt lat="33.8101792" lon="-118.3938811">
  <ele>-30.49</ele>
  <time>2026-09-02T22:07:53Z</time>
  <course>183.83</course>
  <speed>0.77</speed>
  <fix>3d</fix>
</trkpt>
<trkpt lat="33.8101771" lon="-118.3938814">
  <ele>-31.139</ele>
  <time>2026-09-02T22:07:53Z</time>
  <course>183.07</course>
  <speed>0.7424284477308234</speed>
  <fix>3d</fix>
</trkpt>
<trkpt lat="33.8101778" lon="-118.3938812">
  <ele>-30.44</ele>
  <time>2026-09-02T22:07:53Z</time>
  <course>183.8</course>
  <speed>0.77</speed>
  <fix>3d</fix>
</trkpt>
<trkpt lat="33.8101764" lon="-118.3938815">
  <ele>-31.114</ele>
  <time>2026-09-02T22:07:53Z</time>
  <course>183.06</course>
  <speed>0.7424284477308234</speed>
  <fix>3d</fix>
</trkpt>
<trkpt lat="33.8101778" lon="-118.3938812">
  <ele>-30.44</ele>
  <time>2026-09-02T22:07:53Z</time>
  <course>183.8</course>
  <speed>0.77</speed>
  <fix>3d</fix>
</trkpt>
<trkpt lat="33.8101758" lon="-118.3938815">
  <ele>-31.087</ele>
  <time>2026-09-02T22:07:53Z</time>
  <course>183.05</course>
  <speed>0.7424284477308234</speed>
  <fix>3d</fix>
</trkpt>
<trkpt lat="33.8101763" lon="-118.3938813">
  <ele>-30.39</ele>
  <time>2026-09-02T22:07:53Z</time>
  <course>183.78</course>
  <speed>0.77</speed>
  <fix>3d</fix>
</trkpt>
<trkpt lat="33.8101751" lon="-118.3938816">
  <ele>-31.059</ele>
  <time>2026-09-02T22:07:53Z</time>
  <course>183.05</course>
  <speed>0.7424284477308234</speed>
  <fix>3d</fix>
</trkpt>
<trkpt lat="33.8101763" lon="-118.3938813">
  <ele>-30.39</ele>
  <time>2026-09-02T22:07:53Z</time>
  <course>183.78</course>
  <speed>0.77</speed>
  <fix>3d</fix>
</trkpt>
<trkpt lat="33.8101744" lon="-118.3938816">
  <ele>-31.03</ele>
  <time>2026-09-02T22:07:53Z</time>
  <course>183.04</course>
  <speed>0.7424284477308234</speed>
  <fix>3d</fix>
</trkpt>
<trkpt lat="33.810175" lon="-118.3938815">
  <ele>-30.34</ele>
  <time>2026-09-02T22:07:53Z</time>
  <course>183.75</course>
  <speed>0.77</speed>
  <fix>3d</fix>
</trkpt>
<trkpt lat="33.8101737" lon="-118.3938817">
  <ele>-31.002</ele>
  <time>2026-09-02T22:07:53Z</time>
  <course>183.03</course>
  <speed>0.7424284477308234</speed>
  <fix>3d</fix>
</trkpt>
<trkpt lat="33.810175" lon="-118.3938815">
  <ele>-30.34</ele>
  <time>2026-09-02T22:07:53Z</time>
  <course>183.75</course>
  <speed>0.77</speed>
  <fix>3d</fix>
</trkpt>
<trkpt lat="33.810173" lon="-118.3938818">
  <ele>-30.972</ele>
  <time>2026-09-02T22:07:53Z</time>
  <course>183.02</course>
  <speed>0.7424284477308234</speed>
  <fix>3d</fix>
</trkpt>
<trkpt lat="33.8101736" lon="-118.3938816">
  <ele>-30.27</ele>
  <time>2026-09-02T22:07:53Z</time>
  <course>183.72</course>
  <speed>0.77</speed>
  <fix>3d</fix>
</trkpt>
<trkpt lat="33.8101723" lon="-118.3938818">
  <ele>-30.94</ele>
  <time>2026-09-02T22:07:53Z</time>
  <course>183.01</course>
  <speed>0.7424284477308234</speed>
  <fix>3d</fix>
</trkpt>
<trkpt lat="33.8101736" lon="-118.3938816">
  <ele>-30.27</ele>
  <time>2026-09-02T22:07:53Z</time>
  <course>183.72</course>
  <speed>0.77</speed>
  <fix>3d</fix>
</trkpt>
<trkpt lat="33.8101716" lon="-118.3938819">
  <ele>-30.907</ele>
  <time>2026-09-02T22:07:53Z</time>
  <course>183.0</course>
  <speed>0.7424284477308234</speed>
  <fix>3d</fix>
</trkpt>
<trkpt lat="33.8101721" lon="-118.3938817">
  <ele>-30.22</ele>
  <time>2026-09-02T22:07:53Z</time>
  <course>183.69</course>
  <speed>0.77</speed>
  <fix>3d</fix>
</trkpt>
<trkpt lat="33.8101709" lon="-118.3938819">
  <ele>-30.871</ele>
  <time>2026-09-02T22:07:53Z</time>
  <course>183.0</course>
  <speed>0.7424284477308234</speed>
  <fix>3d</fix>
</trkpt>
<trkpt lat="33.8101721" lon="-118.3938817">
  <ele>-30.22</ele>
  <time>2026-09-02T22:07:53Z</time>
  <course>183.69</course>
  <speed>0.77</speed>
  <fix>3d</fix>
</trkpt>
<trkpt lat="33.8101702" lon="-118.393882">
  <ele>-30.834</ele>
  <time>2026-09-02T22:07:53Z</time>
  <course>182.99</course>
  <speed>0.7424284477308234</speed>
  <fix>3d</fix>
</trkpt>
<trkpt lat="33.8101708" lon="-118.3938818">
  <ele>-30.15</ele>
  <time>2026-09-02T22:07:53Z</time>
  <course>183.66</course>
  <speed>0.77</speed>
  <fix>3d</fix>
</trkpt>
<trkpt lat="33.8101695" lon="-118.393882">
  <ele>-30.797</ele>
  <time>2026-09-02T22:07:53Z</time>
  <course>182.98</course>
  <speed>0.7424284477308234</speed>
  <fix>3d</fix>
</trkpt>
<trkpt lat="33.8101708" lon="-118.3938818">
  <ele>-30.15</ele>
  <time>2026-09-02T22:07:53Z</time>
  <course>183.66</course>
  <speed>0.77</speed>
  <fix>3d</fix>
</trkpt>
<trkpt lat="33.8101688" lon="-118.3938821">
  <ele>-30.764</ele>
  <time>2026-09-02T22:07:53Z</time>
  <course>182.97</course>
  <speed>0.7424284477308234</speed>
  <fix>3d</fix>
</trkpt>
<trkpt lat="33.8101695" lon="-118.3938819">
  <ele>-30.08</ele>
  <time>2026-09-02T22:07:53Z</time>
  <course>183.64</course>
  <speed>0.77</speed>
  <fix>3d</fix>
</trkpt>
<trkpt lat="33.8101681" lon="-118.3938821">
  <ele>-30.733</ele>
  <time>2026-09-02T22:07:53Z</time>
  <course>182.96</course>
  <speed>0.7424284477308234</speed>
  <fix>3d</fix>
</trkpt>
<trkpt lat="33.8101695" lon="-118.3938819">
  <ele>-30.08</ele>
  <time>2026-09-02T22:07:53Z</time>
  <course>183.64</course>
  <speed>0.77</speed>
  <fix>3d</fix>
</trkpt>
<trkpt lat="33.8101674" lon="-118.3938822">
  <ele>-30.702</ele>
  <time>2026-09-02T22:07:53Z</time>
  <course>182.95</course>
  <speed>0.7424284477308234</speed>
  <fix>3d</fix>
</trkpt>
<trkpt lat="33.8101681" lon="-118.393882">
  <ele>-30.02</ele>
  <time>2026-09-02T22:07:53Z</time>
  <course>183.62</course>
  <speed>0.77</speed>
  <fix>3d</fix>
</trkpt>
<trkpt lat="33.8101667" lon="-118.3938822">
  <ele>-30.67</ele>
  <time>2026-09-02T22:07:53Z</time>
  <course>182.95</course>
  <speed>0.7424284477308234</speed>
  <fix>3d</fix>
</trkpt>
<trkpt lat="33.8101681" lon="-118.393882">
  <ele>-30.02</ele>
  <time>2026-09-02T22:07:53Z</time>
  <course>183.62</course>
  <speed>0.77</speed>
  <fix>3d</fix>
</trkpt>
<trkpt lat="33.810166" lon="-118.3938823">
  <ele>-30.635</ele>
  <time>2026-09-02T22:07:53Z</time>
  <course>182.94</course>
  <speed>0.7424284477308234</speed>
  <fix>3d</fix>
</trkpt>
<trkpt lat="33.8101666" lon="-118.3938821">
  <ele>-29.96</ele>
  <time>2026-09-02T22:07:53Z</time>
  <course>183.59</course>
  <speed>0.77</speed>
  <fix>3d</fix>
</trkpt>
<trkpt lat="33.8101653" lon="-118.3938824">
  <ele>-30.6</ele>
  <time>2026-09-02T22:07:53Z</time>
  <course>182.93</course>
  <speed>0.7424284477308234</speed>
  <fix>3d</fix>
</trkpt>
<trkpt lat="33.8101666" lon="-118.3938821">
  <ele>-29.96</ele>
  <time>2026-09-02T22:07:53Z</time>
  <course>183.59</course>
  <speed>0.77</speed>
  <fix>3d</fix>
</trkpt>
<trkpt lat="33.8101646" lon="-118.3938824">
  <ele>-30.567</ele>
  <time>2026-09-02T22:07:53Z</time>
  <course>182.93</course>
  <speed>0.7424284477308234</speed>
  <fix>3d</fix>
</trkpt>
<trkpt lat="33.8101652" lon="-118.3938822">
  <ele>-29.89</ele>
  <time>2026-09-02T22:07:53Z</time>
  <course>183.57</course>
  <speed>0.77</speed>
  <fix>3d</fix>
</trkpt>
<trkpt lat="33.8101639" lon="-118.3938825">
  <ele>-30.538</ele>
  <time>2026-09-02T22:07:53Z</time>
  <course>182.92</course>
  <speed>0.7424284477308234</speed>
  <fix>3d</fix>
</trkpt>
<trkpt lat="33.8101652" lon="-118.3938822">
  <ele>-29.89</ele>
  <time>2026-09-02T22:07:53Z</time>
  <course>183.57</course>
  <speed>0.77</speed>
  <fix>3d</fix>
</trkpt>
<trkpt lat="33.8101632" lon="-118.3938825">
  <ele>-30.512</ele>
  <time>2026-09-02T22:07:53Z</time>
  <course>182.91</course>
  <speed>0.7523961722390672</speed>
  <fix>3d</fix>
</trkpt>
<trkpt lat="33.8101639" lon="-118.3938823">
  <ele>-29.83</ele>
  <time>2026-09-02T22:07:53Z</time>
  <course>183.55</course>
  <speed>0.77</speed>
  <fix>3d</fix>
</trkpt>
<trkpt lat="33.8101625" lon="-118.3938826">
  <ele>-30.489</ele>
  <time>2026-09-02T22:07:53Z</time>
  <course>182.9</course>
  <speed>0.7523961722390672</speed>
  <fix>3d</fix>
</trkpt>
<trkpt lat="33.8101639" lon="-118.3938823">
  <ele>-29.83</ele>
  <time>2026-09-02T22:07:53Z</time>
  <course>183.55</course>
  <speed>0.77</speed>
  <fix>3d</fix>
</trkpt>
<trkpt lat="33.8101618" lon="-118.3938826">
  <ele>-30.465</ele>
  <time>2026-09-02T22:07:53Z</time>
  <course>182.9</course>
  <speed>0.7523961722390672</speed>
  <fix>3d</fix>
</trkpt>
<trkpt lat="33.8101624" lon="-118.3938824">
  <ele>-29.78</ele>
  <time>2026-09-02T22:07:53Z</time>
  <course>183.53</course>
  <speed>0.77</speed>
  <fix>3d</fix>
</trkpt>
<trkpt lat="33.8101611" lon="-118.3938827">
  <ele>-30.442</ele>
  <time>2026-09-02T22:07:53Z</time>
  <course>182.89</course>
  <speed>0.7523961722390672</speed>
  <fix>3d</fix>
</trkpt>
<trkpt lat="33.8101624" lon="-118.3938824">
  <ele>-29.78</ele>
  <time>2026-09-02T22:07:53Z</time>
  <course>183.53</course>
  <speed>0.77</speed>
  <fix>3d</fix>
</trkpt>
<trkpt lat="33.8101604" lon="-118.3938827">
  <ele>-30.419</ele>
  <time>2026-09-02T22:07:53Z</time>
  <course>182.88</course>
  <speed>0.7523961722390672</speed>
  <fix>3d</fix>
</trkpt>
<trkpt lat="33.8101611" lon="-118.3938825">
  <ele>-29.74</ele>
  <time>2026-09-02T22:07:53Z</time>
  <course>183.51</course>
  <speed>0.77</speed>
  <fix>3d</fix>
</trkpt>
<trkpt lat="33.8101597" lon="-118.3938828">
  <ele>-30.394</ele>
  <time>2026-09-02T22:07:53Z</time>
  <course>182.88</course>
  <speed>0.7523961722390672</speed>
  <fix>3d</fix>
</trkpt>
<trkpt lat="33.8101611" lon="-118.3938825">
  <ele>-29.74</ele>
  <time>2026-09-02T22:07:53Z</time>
  <course>183.51</course>
  <speed>0.77</speed>
  <fix>3d</fix>
</trkpt>
<trkpt lat="33.810159" lon="-118.3938828">
  <ele>-30.365</ele>
  <time>2026-09-02T22:07:53Z</time>
  <course>182.87</course>
  <speed>0.7523961722390672</speed>
  <fix>3d</fix>
</trkpt>
<trkpt lat="33.8101597" lon="-118.3938826">
  <ele>-29.69</ele>
  <time>2026-09-02T22:07:53Z</time>
  <course>183.48</course>
  <speed>0.77</speed>
  <fix>3d</fix>
</trkpt>
<trkpt lat="33.8101583" lon="-118.3938829">
  <ele>-30.334</ele>
  <time>2026-09-02T22:07:53Z</time>
  <course>182.86</course>
  <speed>0.7523961722390672</speed>
  <fix>3d</fix>
</trkpt>
<trkpt lat="33.8101597" lon="-118.3938826">
  <ele>-29.69</ele>
  <time>2026-09-02T22:07:53Z</time>
  <course>183.48</course>
  <speed>0.77</speed>
  <fix>3d</fix>
</trkpt>
<trkpt lat="33.8101576" lon="-118.3938829">
  <ele>-30.3</ele>
  <time>2026-09-02T22:07:53Z</time>
  <course>182.85</course>
  <speed>0.7523961722390672</speed>
  <fix>3d</fix>
</trkpt>
<trkpt lat="33.8101583" lon="-118.3938827">
  <ele>-29.64</ele>
  <time>2026-09-02T22:07:53Z</time>
  <course>183.45</course>
  <speed>0.77</speed>
  <fix>3d</fix>
</trkpt>
<trkpt lat="33.8101569" lon="-118.393883">
  <ele>-30.265</ele>
  <time>2026-09-02T22:07:53Z</time>
  <course>182.85</course>
  <speed>0.7523961722390672</speed>
  <fix>3d</fix>
</trkpt>
<trkpt lat="33.8101583" lon="-118.3938827">
  <ele>-29.64</ele>
  <time>2026-09-02T22:07:53Z</time>
  <course>183.45</course>
  <speed>0.77</speed>
  <fix>3d</fix>
</trkpt>
<trkpt lat="33.8101562" lon="-118.393883">
  <ele>-30.229</ele>
  <time>2026-09-02T22:07:53Z</time>
  <course>182.84</course>
  <speed>0.7523961722390672</speed>
  <fix>3d</fix>
</trkpt>
<trkpt lat="33.8101569" lon="-118.3938828">
  <ele>-29.57</ele>
  <time>2026-09-02T22:07:53Z</time>
  <course>183.43</course>
  <speed>0.77</speed>
  <fix>3d</fix>
</trkpt>
<trkpt lat="33.8101555" lon="-118.3938831">
  <ele>-30.192</ele>
  <time>2026-09-02T22:07:53Z</time>
  <course>182.83</course>
  <speed>0.7523961722390672</speed>
  <fix>3d</fix>
</trkpt>
<trkpt lat="33.8101569" lon="-118.3938828">
  <ele>-29.57</ele>
  <time>2026-09-02T22:07:53Z</time>
  <course>183.43</course>
  <speed>0.77</speed>
  <fix>3d</fix>
</trkpt>
<trkpt lat="33.8101548" lon="-118.3938831">
  <ele>-30.154</ele>
  <time>2026-09-02T22:07:53Z</time>
  <course>182.83</course>
  <speed>0.7523961722390672</speed>
  <fix>3d</fix>
</trkpt>
<trkpt lat="33.8101556" lon="-118.3938829">
  <ele>-29.5</ele>
  <time>2026-09-02T22:07:53Z</time>
  <course>183.4</course>
  <speed>0.77</speed>
  <fix>3d</fix>
</trkpt>
<trkpt lat="33.8101542" lon="-118.3938831">
  <ele>-30.115</ele>
  <time>2026-09-02T22:07:53Z</time>
  <course>182.82</course>
  <speed>0.7523961722390672</speed>
  <fix>3d</fix>
</trkpt>
<trkpt lat="33.8101556" lon="-118.3938829">
  <ele>-29.5</ele>
  <time>2026-09-02T22:07:53Z</time>
  <course>183.4</course>
  <speed>0.77</speed>
  <fix>3d</fix>
</trkpt>
<trkpt lat="33.8101535" lon="-118.3938832">
  <ele>-30.073</ele>
  <time>2026-09-02T22:07:53Z</time>
  <course>182.81</course>
  <speed>0.7523961722390672</speed>
  <fix>3d</fix>
</trkpt>
<trkpt lat="33.8101542" lon="-118.393883">
  <ele>-29.43</ele>
  <time>2026-09-02T22:07:53Z</time>
  <course>183.38</course>
  <speed>0.77</speed>
  <fix>3d</fix>
</trkpt>
<trkpt lat="33.8101528" lon="-118.3938832">
  <ele>-30.031</ele>
  <time>2026-09-02T22:07:53Z</time>
  <course>182.81</course>
  <speed>0.7523961722390672</speed>
  <fix>3d</fix>
</trkpt>
<trkpt lat="33.8101542" lon="-118.393883">
  <ele>-29.43</ele>
  <time>2026-09-02T22:07:53Z</time>
  <course>183.38</course>
  <speed>0.77</speed>
  <fix>3d</fix>
</trkpt>
<trkpt lat="33.8101521" lon="-118.3938833">
  <ele>-29.988</ele>
  <time>2026-09-02T22:07:53Z</time>
  <course>182.8</course>
  <speed>0.7523961722390672</speed>
  <fix>3d</fix>
</trkpt>
<trkpt lat="33.8101528" lon="-118.3938831">
  <ele>-29.36</ele>
  <time>2026-09-02T22:07:53Z</time>
  <course>183.35</course>
  <speed>0.77</speed>
  <fix>3d</fix>
</trkpt>
<trkpt lat="33.8101514" lon="-118.3938833">
  <ele>-29.944</ele>
  <time>2026-09-02T22:07:53Z</time>
  <course>182.79</course>
  <speed>0.7523961722390672</speed>
  <fix>3d</fix>
</trkpt>
<trkpt lat="33.8101528" lon="-118.3938831">
  <ele>-29.36</ele>
  <time>2026-09-02T22:07:53Z</time>
  <course>183.35</course>
  <speed>0.77</speed>
  <fix>3d</fix>
</trkpt>
<trkpt lat="33.8101507" lon="-118.3938834">
  <ele>-29.899</ele>
  <time>2026-09-02T22:07:53Z</time>
  <course>182.79</course>
  <speed>0.7424284477308234</speed>
  <fix>3d</fix>
</trkpt>
<trkpt lat="33.8101513" lon="-118.3938832">
  <ele>-29.27</ele>
  <time>2026-09-02T22:07:53Z</time>
  <course>183.33</course>
  <speed>0.77</speed>
  <fix>3d</fix>
</trkpt>
<trkpt lat="33.81015" lon="-118.3938834">
  <ele>-29.856</ele>
  <time>2026-09-02T22:07:53Z</time>
  <course>182.78</course>
  <speed>0.7523961722390672</speed>
  <fix>3d</fix>
</trkpt>
<trkpt lat="33.8101513" lon="-118.3938832">
  <ele>-29.27</ele>
  <time>2026-09-02T22:07:53Z</time>
  <course>183.33</course>
  <speed>0.77</speed>
  <fix>3d</fix>
</trkpt>
<trkpt lat="33.8101493" lon="-118.3938835">
  <ele>-29.812</ele>
  <time>2026-09-02T22:07:53Z</time>
  <course>182.78</course>
  <speed>0.7424284477308234</speed>
  <fix>3d</fix>
</trkpt>
<trkpt lat="33.81015" lon="-118.3938833">
  <ele>-29.18</ele>
  <time>2026-09-02T22:07:53Z</time>
  <course>183.31</course>
  <speed>0.77</speed>
  <fix>3d</fix>
</trkpt>
<trkpt lat="33.8101486" lon="-118.3938835">
  <ele>-29.773</ele>
  <time>2026-09-02T22:07:53Z</time>
  <course>182.77</course>
  <speed>0.7424284477308234</speed>
  <fix>3d</fix>
</trkpt>
<trkpt lat="33.81015" lon="-118.3938833">
  <ele>-29.18</ele>
  <time>2026-09-02T22:07:53Z</time>
  <course>183.31</course>
  <speed>0.77</speed>
  <fix>3d</fix>
</trkpt>
<trkpt lat="33.8101479" lon="-118.3938836">
  <ele>-29.739</ele>
  <time>2026-09-02T22:07:53Z</time>
  <course>182.77</course>
  <speed>0.7424284477308234</speed>
  <fix>3d</fix>
</trkpt>
<trkpt lat="33.8101486" lon="-118.3938834">
  <ele>-29.11</ele>
  <time>2026-09-02T22:07:53Z</time>
  <course>183.29</course>
  <speed>0.77</speed>
  <fix>3d</fix>
</trkpt>
<trkpt lat="33.8101472" lon="-118.3938836">
  <ele>-29.708</ele>
  <time>2026-09-02T22:07:53Z</time>
  <course>182.76</course>
  <speed>0.7424284477308234</speed>
  <fix>3d</fix>
</trkpt>
<trkpt lat="33.8101486" lon="-118.3938834">
  <ele>-29.11</ele>
  <time>2026-09-02T22:07:53Z</time>
  <course>183.29</course>
  <speed>0.77</speed>
  <fix>3d</fix>
</trkpt>
<trkpt lat="33.8101465" lon="-118.3938837">
  <ele>-29.681</ele>
  <time>2026-09-02T22:07:53Z</time>
  <course>182.75</course>
  <speed>0.7424284477308234</speed>
  <fix>3d</fix>
</trkpt>
<trkpt lat="33.8101472" lon="-118.3938835">
  <ele>-29.04</ele>
  <time>2026-09-02T22:07:53Z</time>
  <course>183.28</course>
  <speed>0.77</speed>
  <fix>3d</fix>
</trkpt>
<trkpt lat="33.8101458" lon="-118.3938837">
  <ele>-29.658</ele>
  <time>2026-09-02T22:07:53Z</time>
  <course>182.75</course>
  <speed>0.7523961722390672</speed>
  <fix>3d</fix>
</trkpt>
<trkpt lat="33.8101472" lon="-118.3938835">
  <ele>-29.04</ele>
  <time>2026-09-02T22:07:53Z</time>
  <course>183.28</course>
  <speed>0.77</speed>
  <fix>3d</fix>
</trkpt>
<trkpt lat="33.8101451" lon="-118.3938838">
  <ele>-29.638</ele>
  <time>2026-09-02T22:07:53Z</time>
  <course>182.74</course>
  <speed>0.7523961722390672</speed>
  <fix>3d</fix>
</trkpt>
<trkpt lat="33.8101458" lon="-118.3938836">
  <ele>-28.99</ele>
  <time>2026-09-02T22:07:53Z</time>
  <course>183.27</course>
  <speed>0.77</speed>
  <fix>3d</fix>
</trkpt>
<trkpt lat="33.8101444" lon="-118.3938838">
  <ele>-29.62</ele>
  <time>2026-09-02T22:07:53Z</time>
  <course>182.74</course>
  <speed>0.7523961722390672</speed>
  <fix>3d</fix>
</trkpt>
<trkpt lat="33.8101458" lon="-118.3938836">
  <ele>-28.99</ele>
  <time>2026-09-02T22:07:53Z</time>
  <course>183.27</course>
  <speed>0.77</speed>
  <fix>3d</fix>
</trkpt>
<trkpt lat="33.8101437" lon="-118.3938839">
  <ele>-29.604</ele>
  <time>2026-09-02T22:07:53Z</time>
  <course>182.73</course>
  <speed>0.7523961722390672</speed>
  <fix>3d</fix>
</trkpt>
<trkpt lat="33.8101444" lon="-118.3938837">
  <ele>-28.95</ele>
  <time>2026-09-02T22:07:53Z</time>
  <course>183.25</course>
  <speed>0.77</speed>
  <fix>3d</fix>
</trkpt>
<trkpt lat="33.810143" lon="-118.3938839">
  <ele>-29.588</ele>
  <time>2026-09-02T22:07:53Z</time>
  <course>182.73</course>
  <speed>0.7523961722390672</speed>
  <fix>3d</fix>
</trkpt>
<trkpt lat="33.8101444" lon="-118.3938837">
  <ele>-28.95</ele>
  <time>2026-09-02T22:07:53Z</time>
  <course>183.25</course>
  <speed>0.77</speed>
  <fix>3d</fix>
</trkpt>
<trkpt lat="33.8101423" lon="-118.393884">
  <ele>-29.571</ele>
  <time>2026-09-02T22:07:53Z</time>
  <course>182.72</course>
  <speed>0.7523961722390672</speed>
  <fix>3d</fix>
</trkpt>
<trkpt lat="33.8101431" lon="-118.3938838">
  <ele>-28.91</ele>
  <time>2026-09-02T22:07:53Z</time>
  <course>183.23</course>
  <speed>0.77</speed>
  <fix>3d</fix>
</trkpt>
<trkpt lat="33.8101417" lon="-118.393884">
  <ele>-29.553</ele>
  <time>2026-09-02T22:07:53Z</time>
  <course>182.71</course>
  <speed>0.7523961722390672</speed>
  <fix>3d</fix>
</trkpt>
<trkpt lat="33.8101431" lon="-118.3938838">
  <ele>-28.91</ele>
  <time>2026-09-02T22:07:53Z</time>
  <course>183.23</course>
  <speed>0.77</speed>
  <fix>3d</fix>
</trkpt>
<trkpt lat="33.810141" lon="-118.3938841">
  <ele>-29.535</ele>
  <time>2026-09-02T22:07:53Z</time>
  <course>182.71</course>
  <speed>0.7424284477308234</speed>
  <fix>3d</fix>
</trkpt>
<trkpt lat="33.8101417" lon="-118.3938839">
  <ele>-28.88</ele>
  <time>2026-09-02T22:07:53Z</time>
  <course>183.21</course>
  <speed>0.77</speed>
  <fix>3d</fix>
</trkpt>
<trkpt lat="33.8101403" lon="-118.3938841">
  <ele>-29.517</ele>
  <time>2026-09-02T22:07:53Z</time>
  <course>182.7</course>
  <speed>0.7424284477308234</speed>
  <fix>3d</fix>
</trkpt>
<trkpt lat="33.8101417" lon="-118.3938839">
  <ele>-28.88</ele>
  <time>2026-09-02T22:07:53Z</time>
  <course>183.21</course>
  <speed>0.77</speed>
  <fix>3d</fix>
</trkpt>
<trkpt lat="33.8101396" lon="-118.3938842">
  <ele>-29.498</ele>
  <time>2026-09-02T22:07:53Z</time>
  <course>182.7</course>
  <speed>0.7424284477308234</speed>
  <fix>3d</fix>
</trkpt>
<trkpt lat="33.8101403" lon="-118.393884">
  <ele>-28.84</ele>
  <time>2026-09-02T22:07:53Z</time>
  <course>183.19</course>
  <speed>0.77</speed>
  <fix>3d</fix>
</trkpt>
<trkpt lat="33.8101389" lon="-118.3938842">
  <ele>-29.479</ele>
  <time>2026-09-02T22:07:53Z</time>
  <course>182.69</course>
  <speed>0.7424284477308234</speed>
  <fix>3d</fix>
</trkpt>
<trkpt lat="33.8101403" lon="-118.393884">
  <ele>-28.84</ele>
  <time>2026-09-02T22:07:53Z</time>
  <course>183.19</course>
  <speed>0.77</speed>
  <fix>3d</fix>
</trkpt>
<trkpt lat="33.8101382" lon="-118.3938843">
  <ele>-29.46</ele>
  <time>2026-09-02T22:07:53Z</time>
  <course>182.69</course>
  <speed>0.7424284477308234</speed>
  <fix>3d</fix>
</trkpt>
<trkpt lat="33.8101389" lon="-118.3938841">
  <ele>-28.8</ele>
  <time>2026-09-02T22:07:53Z</time>
  <course>183.17</course>
  <speed>0.77</speed>
  <fix>3d</fix>
</trkpt>
<trkpt lat="33.8101375" lon="-118.3938843">
  <ele>-29.44</ele>
  <time>2026-09-02T22:07:54Z</time>
  <course>182.68</course>
  <speed>0.7424284477308234</speed>
  <fix>3d</fix>
</trkpt>
<trkpt lat="33.8101389" lon="-118.3938841">
  <ele>-28.8</ele>
  <time>2026-09-02T22:07:54Z</time>
  <course>183.17</course>
  <speed>0.77</speed>
  <fix>3d</fix>
</trkpt>
<trkpt lat="33.8101368" lon="-118.3938843">
  <ele>-29.418</ele>
  <time>2026-09-02T22:07:54Z</time>
  <course>182.68</course>
  <speed>0.7424284477308234</speed>
  <fix>3d</fix>
</trkpt>
<trkpt lat="33.8101374" lon="-118.3938842">
  <ele>-28.76</ele>
  <time>2026-09-02T22:07:54Z</time>
  <course>183.16</course>
  <speed>0.77</speed>
  <fix>3d</fix>
</trkpt>
<trkpt lat="33.8101361" lon="-118.3938844">
  <ele>-29.393</ele>
  <time>2026-09-02T22:07:54Z</time>
  <course>182.67</course>
  <speed>0.7424284477308234</speed>
  <fix>3d</fix>
</trkpt>
<trkpt lat="33.8101374" lon="-118.3938842">
  <ele>-28.76</ele>
  <time>2026-09-02T22:07:54Z</time>
  <course>183.16</course>
  <speed>0.77</speed>
  <fix>3d</fix>
</trkpt>
<trkpt lat="33.8101354" lon="-118.3938844">
  <ele>-29.366</ele>
  <time>2026-09-02T22:07:54Z</time>
  <course>182.67</course>
  <speed>0.7424284477308234</speed>
  <fix>3d</fix>
</trkpt>
<trkpt lat="33.810136" lon="-118.3938843">
  <ele>-28.71</ele>
  <time>2026-09-02T22:07:54Z</time>
  <course>183.13</course>
  <speed>0.77</speed>
  <fix>3d</fix>
</trkpt>
<trkpt lat="33.8101347" lon="-118.3938845">
  <ele>-29.333</ele>
  <time>2026-09-02T22:07:54Z</time>
  <course>182.66</course>
  <speed>0.7424284477308234</speed>
  <fix>3d</fix>
</trkpt>
<trkpt lat="33.810136" lon="-118.3938843">
  <ele>-28.71</ele>
  <time>2026-09-02T22:07:54Z</time>
  <course>183.13</course>
  <speed>0.77</speed>
  <fix>3d</fix>
</trkpt>
<trkpt lat="33.810134" lon="-118.3938845">
  <ele>-29.296</ele>
  <time>2026-09-02T22:07:54Z</time>
  <course>182.66</course>
  <speed>0.7424284477308234</speed>
  <fix>3d</fix>
</trkpt>
<trkpt lat="33.8101347" lon="-118.3938843">
  <ele>-28.65</ele>
  <time>2026-09-02T22:07:54Z</time>
  <course>183.11</course>
  <speed>0.77</speed>
  <fix>3d</fix>
</trkpt>
<trkpt lat="33.8101333" lon="-118.3938846">
  <ele>-29.257</ele>
  <time>2026-09-02T22:07:54Z</time>
  <course>182.65</course>
  <speed>0.7416872656315463</speed>
  <fix>3d</fix>
</trkpt>
<trkpt lat="33.8101347" lon="-118.3938843">
  <ele>-28.65</ele>
  <time>2026-09-02T22:07:54Z</time>
  <course>183.11</course>
  <speed>0.77</speed>
  <fix>3d</fix>
</trkpt>
<trkpt lat="33.8101326" lon="-118.3938846">
  <ele>-29.216</ele>
  <time>2026-09-02T22:07:54Z</time>
  <course>182.65</course>
  <speed>0.7416872656315463</speed>
  <fix>3d</fix>
</trkpt>
<trkpt lat="33.8101332" lon="-118.3938844">
  <ele>-28.58</ele>
  <time>2026-09-02T22:07:54Z</time>
  <course>183.08</course>
  <speed>0.77</speed>
  <fix>3d</fix>
</trkpt>
<trkpt lat="33.8101319" lon="-118.3938847">
  <ele>-29.175</ele>
  <time>2026-09-02T22:07:54Z</time>
  <course>182.64</course>
  <speed>0.7416872656315463</speed>
  <fix>3d</fix>
</trkpt>
<trkpt lat="33.8101332" lon="-118.3938844">
  <ele>-28.58</ele>
  <time>2026-09-02T22:07:54Z</time>
  <course>183.08</course>
  <speed>0.77</speed>
  <fix>3d</fix>
</trkpt>
<trkpt lat="33.8101312" lon="-118.3938847">
  <ele>-29.132</ele>
  <time>2026-09-02T22:07:54Z</time>
  <course>182.64</course>
  <speed>0.7416872656315463</speed>
  <fix>3d</fix>
</trkpt>
<trkpt lat="33.8101319" lon="-118.3938845">
  <ele>-28.51</ele>
  <time>2026-09-02T22:07:54Z</time>
  <course>183.06</course>
  <speed>0.77</speed>
  <fix>3d</fix>
</trkpt>
<trkpt lat="33.8101305" lon="-118.3938848">
  <ele>-29.089</ele>
  <time>2026-09-02T22:07:54Z</time>
  <course>182.63</course>
  <speed>0.7416872656315463</speed>
  <fix>3d</fix>
</trkpt>
<trkpt lat="33.8101319" lon="-118.3938845">
  <ele>-28.51</ele>
  <time>2026-09-02T22:07:54Z</time>
  <course>183.06</course>
  <speed>0.77</speed>
  <fix>3d</fix>
</trkpt>
<trkpt lat="33.8101298" lon="-118.3938848">
  <ele>-29.046</ele>
  <time>2026-09-02T22:07:54Z</time>
  <course>182.63</course>
  <speed>0.7416872656315463</speed>
  <fix>3d</fix>
</trkpt>
<trkpt lat="33.8101306" lon="-118.3938846">
  <ele>-28.43</ele>
  <time>2026-09-02T22:07:54Z</time>
  <course>183.04</course>
  <speed>0.77</speed>
  <fix>3d</fix>
</trkpt>
<trkpt lat="33.8101291" lon="-118.3938848">
  <ele>-29.004</ele>
  <time>2026-09-02T22:07:54Z</time>
  <course>182.62</course>
  <speed>0.7416872656315463</speed>
  <fix>3d</fix>
</trkpt>
<trkpt lat="33.8101306" lon="-118.3938846">
  <ele>-28.43</ele>
  <time>2026-09-02T22:07:54Z</time>
  <course>183.04</course>
  <speed>0.77</speed>
  <fix>3d</fix>
</trkpt>
<trkpt lat="33.8101285" lon="-118.3938849">
  <ele>-28.963</ele>
  <time>2026-09-02T22:07:54Z</time>
  <course>182.62</course>
  <speed>0.7416872656315463</speed>
  <fix>3d</fix>
</trkpt>
<trkpt lat="33.8101292" lon="-118.3938847">
  <ele>-28.35</ele>
  <time>2026-09-02T22:07:54Z</time>
  <course>183.03</course>
  <speed>0.77</speed>
  <fix>3d</fix>
</trkpt>
<trkpt lat="33.8101278" lon="-118.3938849">
  <ele>-28.923</ele>
  <time>2026-09-02T22:07:54Z</time>
  <course>182.62</course>
  <speed>0.7416872656315463</speed>
  <fix>3d</fix>
</trkpt>
<trkpt lat="33.8101292" lon="-118.3938847">
  <ele>-28.35</ele>
  <time>2026-09-02T22:07:54Z</time>
  <course>183.03</course>
  <speed>0.77</speed>
  <fix>3d</fix>
</trkpt>
<trkpt lat="33.8101271" lon="-118.393885">
  <ele>-28.884</ele>
  <time>2026-09-02T22:07:54Z</time>
  <course>182.61</course>
  <speed>0.7416872656315463</speed>
  <fix>3d</fix>
</trkpt>
<trkpt lat="33.8101277" lon="-118.3938848">
  <ele>-28.27</ele>
  <time>2026-09-02T22:07:54Z</time>
  <course>183.02</course>
  <speed>0.77</speed>
  <fix>3d</fix>
</trkpt>
<trkpt lat="33.8101264" lon="-118.393885">
  <ele>-28.847</ele>
  <time>2026-09-02T22:07:54Z</time>
  <course>182.61</course>
  <speed>0.7416872656315463</speed>
  <fix>3d</fix>
</trkpt>
<trkpt lat="33.8101277" lon="-118.3938848">
  <ele>-28.27</ele>
  <time>2026-09-02T22:07:54Z</time>
  <course>183.02</course>
  <speed>0.77</speed>
  <fix>3d</fix>
</trkpt>
<trkpt lat="33.8101257" lon="-118.3938851">
  <ele>-28.812</ele>
  <time>2026-09-02T22:07:54Z</time>
  <course>182.6</course>
  <speed>0.7416872656315463</speed>
  <fix>3d</fix>
</trkpt>
<trkpt lat="33.8101264" lon="-118.3938849">
  <ele>-28.2</ele>
  <time>2026-09-02T22:07:54Z</time>
  <course>183.0</course>
  <speed>0.77</speed>
  <fix>3d</fix>
</trkpt>
<trkpt lat="33.810125" lon="-118.3938851">
  <ele>-28.778</ele>
  <time>2026-09-02T22:07:54Z</time>
  <course>182.6</course>
  <speed>0.7416872656315463</speed>
  <fix>3d</fix>
</trkpt>
<trkpt lat="33.8101264" lon="-118.3938849">
  <ele>-28.2</ele>
  <time>2026-09-02T22:07:54Z</time>
  <course>183.0</course>
  <speed>0.77</speed>
  <fix>3d</fix>
</trkpt>
<trkpt lat="33.8101243" lon="-118.3938851">
  <ele>-28.744</ele>
  <time>2026-09-02T22:07:54Z</time>
  <course>182.59</course>
  <speed>0.7416872656315463</speed>
  <fix>3d</fix>
</trkpt>
<trkpt lat="33.810125" lon="-118.393885">
  <ele>-28.14</ele>
  <time>2026-09-02T22:07:54Z</time>
  <course>182.99</course>
  <speed>0.77</speed>
  <fix>3d</fix>
</trkpt>
<trkpt lat="33.8101236" lon="-118.3938852">
  <ele>-28.712</ele>
  <time>2026-09-02T22:07:54Z</time>
  <course>182.59</course>
  <speed>0.7416872656315463</speed>
  <fix>3d</fix>
</trkpt>
<trkpt lat="33.810125" lon="-118.393885">
  <ele>-28.14</ele>
  <time>2026-09-02T22:07:54Z</time>
  <course>182.99</course>
  <speed>0.77</speed>
  <fix>3d</fix>
</trkpt>
<trkpt lat="33.810123" lon="-118.3938852">
  <ele>-28.68</ele>
  <time>2026-09-02T22:07:54Z</time>
  <course>182.59</course>
  <speed>0.7416872656315463</speed>
  <fix>3d</fix>
</trkpt>
<trkpt lat="33.8101236" lon="-118.3938851">
  <ele>-28.08</ele>
  <time>2026-09-02T22:07:54Z</time>
  <course>182.98</course>
  <speed>0.77</speed>
  <fix>3d</fix>
</trkpt>
<trkpt lat="33.8101223" lon="-118.3938853">
  <ele>-28.65</ele>
  <time>2026-09-02T22:07:54Z</time>
  <course>182.58</course>
  <speed>0.7416872656315463</speed>
  <fix>3d</fix>
</trkpt>
<trkpt lat="33.8101236" lon="-118.3938851">
  <ele>-28.08</ele>
  <time>2026-09-02T22:07:54Z</time>
  <course>182.98</course>
  <speed>0.77</speed>
  <fix>3d</fix>
</trkpt>
<trkpt lat="33.8101216" lon="-118.3938853">
  <ele>-28.625</ele>
  <time>2026-09-02T22:07:54Z</time>
  <course>182.58</course>
  <speed>0.7416872656315463</speed>
  <fix>3d</fix>
</trkpt>
<trkpt lat="33.8101221" lon="-118.3938851">
  <ele>-28.02</ele>
  <time>2026-09-02T22:07:54Z</time>
  <course>182.96</course>
  <speed>0.77</speed>
  <fix>3d</fix>
</trkpt>
<trkpt lat="33.8101209" lon="-118.3938854">
  <ele>-28.602</ele>
  <time>2026-09-02T22:07:54Z</time>
  <course>182.58</course>
  <speed>0.7416872656315463</speed>
  <fix>3d</fix>
</trkpt>
<trkpt lat="33.8101221" lon="-118.3938851">
  <ele>-28.02</ele>
  <time>2026-09-02T22:07:54Z</time>
  <course>182.96</course>
  <speed>0.77</speed>
  <fix>3d</fix>
</trkpt>
<trkpt lat="33.8101202" lon="-118.3938854">
  <ele>-28.579</ele>
  <time>2026-09-02T22:07:54Z</time>
  <course>182.57</course>
  <speed>0.7416872656315463</speed>
  <fix>3d</fix>
</trkpt>
<trkpt lat="33.8101208" lon="-118.3938852">
  <ele>-27.96</ele>
  <time>2026-09-02T22:07:54Z</time>
  <course>182.95</course>
  <speed>0.77</speed>
  <fix>3d</fix>
</trkpt>
<trkpt lat="33.8101195" lon="-118.3938854">
  <ele>-28.556</ele>
  <time>2026-09-02T22:07:54Z</time>
  <course>182.57</course>
  <speed>0.7416872656315463</speed>
  <fix>3d</fix>
</trkpt>
<trkpt lat="33.8101208" lon="-118.3938852">
  <ele>-27.96</ele>
  <time>2026-09-02T22:07:54Z</time>
  <course>182.95</course>
  <speed>0.77</speed>
  <fix>3d</fix>
</trkpt>
<trkpt lat="33.8101188" lon="-118.3938855">
  <ele>-28.533</ele>
  <time>2026-09-02T22:07:54Z</time>
  <course>182.56</course>
  <speed>0.7416872656315463</speed>
  <fix>3d</fix>
</trkpt>
<trkpt lat="33.8101194" lon="-118.3938853">
  <ele>-27.92</ele>
  <time>2026-09-02T22:07:54Z</time>
  <course>182.94</course>
  <speed>0.77</speed>
  <fix>3d</fix>
</trkpt>
<trkpt lat="33.8101181" lon="-118.3938855">
  <ele>-28.508</ele>
  <time>2026-09-02T22:07:54Z</time>
  <course>182.56</course>
  <speed>0.7416872656315463</speed>
  <fix>3d</fix>
</trkpt>
<trkpt lat="33.8101194" lon="-118.3938853">
  <ele>-27.92</ele>
  <time>2026-09-02T22:07:54Z</time>
  <course>182.94</course>
  <speed>0.77</speed>
  <fix>3d</fix>
</trkpt>
<trkpt lat="33.8101174" lon="-118.3938856">
  <ele>-28.481</ele>
  <time>2026-09-02T22:07:54Z</time>
  <course>182.56</course>
  <speed>0.7416872656315463</speed>
  <fix>3d</fix>
</trkpt>
<trkpt lat="33.810118" lon="-118.3938854">
  <ele>-27.86</ele>
  <time>2026-09-02T22:07:54Z</time>
  <course>182.92</course>
  <speed>0.77</speed>
  <fix>3d</fix>
</trkpt>
<trkpt lat="33.8101167" lon="-118.3938856">
  <ele>-28.45</ele>
  <time>2026-09-02T22:07:54Z</time>
  <course>182.55</course>
  <speed>0.7416872656315463</speed>
  <fix>3d</fix>
</trkpt>
<trkpt lat="33.810118" lon="-118.3938854">
  <ele>-27.86</ele>
  <time>2026-09-02T22:07:54Z</time>
  <course>182.92</course>
  <speed>0.77</speed>
  <fix>3d</fix>
</trkpt>
<trkpt lat="33.810116" lon="-118.3938857">
  <ele>-28.417</ele>
  <time>2026-09-02T22:07:54Z</time>
  <course>182.55</course>
  <speed>0.7416872656315463</speed>
  <fix>3d</fix>
</trkpt>
<trkpt lat="33.8101166" lon="-118.3938855">
  <ele>-27.81</ele>
  <time>2026-09-02T22:07:54Z</time>
  <course>182.9</course>
  <speed>0.77</speed>
  <fix>3d</fix>
</trkpt>
<trkpt lat="33.8101153" lon="-118.3938857">
  <ele>-28.383</ele>
  <time>2026-09-02T22:07:54Z</time>
  <course>182.54</course>
  <speed>0.7416872656315463</speed>
  <fix>3d</fix>
</trkpt>
<trkpt lat="33.8101166" lon="-118.3938855">
  <ele>-27.81</ele>
  <time>2026-09-02T22:07:54Z</time>
  <course>182.9</course>
  <speed>0.77</speed>
  <fix>3d</fix>
</trkpt>
<trkpt lat="33.8101146" lon="-118.3938857">
  <ele>-28.348</ele>
  <time>2026-09-02T22:07:54Z</time>
  <course>182.54</course>
  <speed>0.7416872656315463</speed>
  <fix>3d</fix>
</trkpt>
<trkpt lat="33.8101153" lon="-118.3938856">
  <ele>-27.74</ele>
  <time>2026-09-02T22:07:54Z</time>
  <course>182.88</course>
  <speed>0.77</speed>
  <fix>3d</fix>
</trkpt>
<trkpt lat="33.8101139" lon="-118.3938858">
  <ele>-28.311</ele>
  <time>2026-09-02T22:07:54Z</time>
  <course>182.54</course>
  <speed>0.7416872656315463</speed>
  <fix>3d</fix>
</trkpt>
<trkpt lat="33.8101153" lon="-118.3938856">
  <ele>-27.74</ele>
  <time>2026-09-02T22:07:54Z</time>
  <course>182.88</course>
  <speed>0.77</speed>
  <fix>3d</fix>
</trkpt>
<trkpt lat="33.8101132" lon="-118.3938858">
  <ele>-28.273</ele>
  <time>2026-09-02T22:07:54Z</time>
  <course>182.53</course>
  <speed>0.7416872656315463</speed>
  <fix>3d</fix>
</trkpt>
<trkpt lat="33.8101139" lon="-118.3938857">
  <ele>-27.67</ele>
  <time>2026-09-02T22:07:54Z</time>
  <course>182.87</course>
  <speed>0.77</speed>
  <fix>3d</fix>
</trkpt>
<trkpt lat="33.8101125" lon="-118.3938859">
  <ele>-28.235</ele>
  <time>2026-09-02T22:07:54Z</time>
  <course>182.53</course>
  <speed>0.7416872656315463</speed>
  <fix>3d</fix>
</trkpt>
<trkpt lat="33.8101139" lon="-118.3938857">
  <ele>-27.67</ele>
  <time>2026-09-02T22:07:54Z</time>
  <course>182.87</course>
  <speed>0.77</speed>
  <fix>3d</fix>
</trkpt>
<trkpt lat="33.8101119" lon="-118.3938859">
  <ele>-28.196</ele>
  <time>2026-09-02T22:07:54Z</time>
  <course>182.53</course>
  <speed>0.7416872656315463</speed>
  <fix>3d</fix>
</trkpt>
<trkpt lat="33.8101125" lon="-118.3938857">
  <ele>-27.6</ele>
  <time>2026-09-02T22:07:54Z</time>
  <course>182.85</course>
  <speed>0.77</speed>
  <fix>3d</fix>
</trkpt>
<trkpt lat="33.8101112" lon="-118.393886">
  <ele>-28.156</ele>
  <time>2026-09-02T22:07:54Z</time>
  <course>182.52</course>
  <speed>0.7416872656315463</speed>
  <fix>3d</fix>
</trkpt>
<trkpt lat="33.8101125" lon="-118.3938857">
  <ele>-27.6</ele>
  <time>2026-09-02T22:07:54Z</time>
  <course>182.85</course>
  <speed>0.77</speed>
  <fix>3d</fix>
</trkpt>
<trkpt lat="33.8101105" lon="-118.393886">
  <ele>-28.118</ele>
  <time>2026-09-02T22:07:54Z</time>
  <course>182.52</course>
  <speed>0.7416872656315463</speed>
  <fix>3d</fix>
</trkpt>
<trkpt lat="33.8101111" lon="-118.3938858">
  <ele>-27.53</ele>
  <time>2026-09-02T22:07:54Z</time>
  <course>182.84</course>
  <speed>0.77</speed>
  <fix>3d</fix>
</trkpt>
<trkpt lat="33.8101098" lon="-118.393886">
  <ele>-28.084</ele>
  <time>2026-09-02T22:07:54Z</time>
  <course>182.52</course>
  <speed>0.7416872656315463</speed>
  <fix>3d</fix>
</trkpt>
<trkpt lat="33.8101111" lon="-118.3938858">
  <ele>-27.53</ele>
  <time>2026-09-02T22:07:54Z</time>
  <course>182.84</course>
  <speed>0.77</speed>
  <fix>3d</fix>
</trkpt>
<trkpt lat="33.8101091" lon="-118.3938861">
  <ele>-28.052</ele>
  <time>2026-09-02T22:07:54Z</time>
  <course>182.51</course>
  <speed>0.7416872656315463</speed>
  <fix>3d</fix>
</trkpt>
<trkpt lat="33.8101097" lon="-118.3938859">
  <ele>-27.46</ele>
  <time>2026-09-02T22:07:54Z</time>
  <course>182.83</course>
  <speed>0.77</speed>
  <fix>3d</fix>
</trkpt>
<trkpt lat="33.8101084" lon="-118.3938861">
  <ele>-28.022</ele>
  <time>2026-09-02T22:07:54Z</time>
  <course>182.51</course>
  <speed>0.7416872656315463</speed>
  <fix>3d</fix>
</trkpt>
<trkpt lat="33.8101097" lon="-118.3938859">
  <ele>-27.46</ele>
  <time>2026-09-02T22:07:54Z</time>
  <course>182.83</course>
  <speed>0.77</speed>
  <fix>3d</fix>
</trkpt>
<trkpt lat="33.8101077" lon="-118.3938862">
  <ele>-27.995</ele>
  <time>2026-09-02T22:07:54Z</time>
  <course>182.51</course>
  <speed>0.7416872656315463</speed>
  <fix>3d</fix>
</trkpt>
<trkpt lat="33.8101082" lon="-118.393886">
  <ele>-27.39</ele>
  <time>2026-09-02T22:07:54Z</time>
  <course>182.82</course>
  <speed>0.77</speed>
  <fix>3d</fix>
</trkpt>
<trkpt lat="33.810107" lon="-118.3938862">
  <ele>-27.968</ele>
  <time>2026-09-02T22:07:54Z</time>
  <course>182.5</course>
  <speed>0.7416872656315463</speed>
  <fix>3d</fix>
</trkpt>
<trkpt lat="33.8101082" lon="-118.393886">
  <ele>-27.39</ele>
  <time>2026-09-02T22:07:54Z</time>
  <course>182.82</course>
  <speed>0.77</speed>
  <fix>3d</fix>
</trkpt>
<trkpt lat="33.8101063" lon="-118.3938862">
  <ele>-27.941</ele>
  <time>2026-09-02T22:07:54Z</time>
  <course>182.5</course>
  <speed>0.7416872656315463</speed>
  <fix>3d</fix>
</trkpt>
<trkpt lat="33.8101068" lon="-118.3938861">
  <ele>-27.33</ele>
  <time>2026-09-02T22:07:54Z</time>
  <course>182.81</course>
  <speed>0.77</speed>
  <fix>3d</fix>
</trkpt>
<trkpt lat="33.8101056" lon="-118.3938863">
  <ele>-27.914</ele>
  <time>2026-09-02T22:07:54Z</time>
  <course>182.5</course>
  <speed>0.7416872656315463</speed>
  <fix>3d</fix>
</trkpt>
<trkpt lat="33.8101068" lon="-118.3938861">
  <ele>-27.33</ele>
  <time>2026-09-02T22:07:54Z</time>
  <course>182.81</course>
  <speed>0.77</speed>
  <fix>3d</fix>
</trkpt>
<trkpt lat="33.8101049" lon="-118.3938863">
  <ele>-27.886</ele>
  <time>2026-09-02T22:07:54Z</time>
  <course>182.49</course>
  <speed>0.7416872656315463</speed>
  <fix>3d</fix>
</trkpt>
<trkpt lat="33.8101055" lon="-118.3938862">
  <ele>-27.28</ele>
  <time>2026-09-02T22:07:54Z</time>
  <course>182.8</course>
  <speed>0.77</speed>
  <fix>3d</fix>
</trkpt>
<trkpt lat="33.8101042" lon="-118.3938864">
  <ele>-27.855</ele>
  <time>2026-09-02T22:07:54Z</time>
  <course>182.49</course>
  <speed>0.7416872656315463</speed>
  <fix>3d</fix>
</trkpt>
<trkpt lat="33.8101055" lon="-118.3938862">
  <ele>-27.28</ele>
  <time>2026-09-02T22:07:54Z</time>
  <course>182.8</course>
  <speed>0.77</speed>
  <fix>3d</fix>
</trkpt>
<trkpt lat="33.8101035" lon="-118.3938864">
  <ele>-27.822</ele>
  <time>2026-09-02T22:07:54Z</time>
  <course>182.49</course>
  <speed>0.7416872656315463</speed>
  <fix>3d</fix>
</trkpt>
<trkpt lat="33.8101041" lon="-118.3938862">
  <ele>-27.23</ele>
  <time>2026-09-02T22:07:54Z</time>
  <course>182.78</course>
  <speed>0.77</speed>
  <fix>3d</fix>
</trkpt>
<trkpt lat="33.8101028" lon="-118.3938864">
  <ele>-27.789</ele>
  <time>2026-09-02T22:07:54Z</time>
  <course>182.48</course>
  <speed>0.7516648189186453</speed>
  <fix>3d</fix>
</trkpt>
<trkpt lat="33.8101041" lon="-118.3938862">
  <ele>-27.23</ele>
  <time>2026-09-02T22:07:54Z</time>
  <course>182.78</course>
  <speed>0.77</speed>
  <fix>3d</fix>
</trkpt>
<trkpt lat="33.8101021" lon="-118.3938865">
  <ele>-27.756</ele>
  <time>2026-09-02T22:07:54Z</time>
  <course>182.48</course>
  <speed>0.7516648189186453</speed>
  <fix>3d</fix>
</trkpt>
<trkpt lat="33.8101027" lon="-118.3938863">
  <ele>-27.16</ele>
  <time>2026-09-02T22:07:54Z</time>
  <course>182.76</course>
  <speed>0.77</speed>
  <fix>3d</fix>
</trkpt>
<trkpt lat="33.8101014" lon="-118.3938865">
  <ele>-27.721</ele>
  <time>2026-09-02T22:07:54Z</time>
  <course>182.48</course>
  <speed>0.7516648189186453</speed>
  <fix>3d</fix>
</trkpt>
<trkpt lat="33.8101027" lon="-118.3938863">
  <ele>-27.16</ele>
  <time>2026-09-02T22:07:54Z</time>
  <course>182.76</course>
  <speed>0.77</speed>
  <fix>3d</fix>
</trkpt>
<trkpt lat="33.8101007" lon="-118.3938866">
  <ele>-27.686</ele>
  <time>2026-09-02T22:07:54Z</time>
  <course>182.47</course>
  <speed>0.7516648189186453</speed>
  <fix>3d</fix>
</trkpt>
<trkpt lat="33.8101014" lon="-118.3938864">
  <ele>-27.09</ele>
  <time>2026-09-02T22:07:54Z</time>
  <course>182.75</course>
  <speed>0.77</speed>
  <fix>3d</fix>
</trkpt>
<trkpt lat="33.8101" lon="-118.3938866">
  <ele>-27.652</ele>
  <time>2026-09-02T22:07:54Z</time>
  <course>182.47</course>
  <speed>0.7516648189186453</speed>
  <fix>3d</fix>
</trkpt>
<trkpt lat="33.8101014" lon="-118.3938864">
  <ele>-27.09</ele>
  <time>2026-09-02T22:07:54Z</time>
  <course>182.75</course>
  <speed>0.77</speed>
  <fix>3d</fix>
</trkpt>
<trkpt lat="33.8100993" lon="-118.3938866">
  <ele>-27.618</ele>
  <time>2026-09-02T22:07:54Z</time>
  <course>182.47</course>
  <speed>0.7516648189186453</speed>
  <fix>3d</fix>
</trkpt>
<trkpt lat="33.8101" lon="-118.3938865">
  <ele>-27.03</ele>
  <time>2026-09-02T22:07:54Z</time>
  <course>182.74</course>
  <speed>0.77</speed>
  <fix>3d</fix>
</trkpt>
<trkpt lat="33.8100986" lon="-118.3938867">
  <ele>-27.585</ele>
  <time>2026-09-02T22:07:54Z</time>
  <course>182.47</course>
  <speed>0.7516648189186453</speed>
  <fix>3d</fix>
</trkpt>
<trkpt lat="33.8101" lon="-118.3938865">
  <ele>-27.03</ele>
  <time>2026-09-02T22:07:54Z</time>
  <course>182.74</course>
  <speed>0.77</speed>
  <fix>3d</fix>
</trkpt>
<trkpt lat="33.8100979" lon="-118.3938867">
  <ele>-27.551</ele>
  <time>2026-09-02T22:07:54Z</time>
  <course>182.46</course>
  <speed>0.7516648189186453</speed>
  <fix>3d</fix>
</trkpt>
<trkpt lat="33.8100985" lon="-118.3938865">
  <ele>-26.96</ele>
  <time>2026-09-02T22:07:54Z</time>
  <course>182.73</course>
  <speed>0.77</speed>
  <fix>3d</fix>
</trkpt>
<trkpt lat="33.8100972" lon="-118.3938868">
  <ele>-27.519</ele>
  <time>2026-09-02T22:07:54Z</time>
  <course>182.46</course>
  <speed>0.7516648189186453</speed>
  <fix>3d</fix>
</trkpt>
<trkpt lat="33.8100985" lon="-118.3938865">
  <ele>-26.96</ele>
  <time>2026-09-02T22:07:54Z</time>
  <course>182.73</course>
  <speed>0.77</speed>
  <fix>3d</fix>
</trkpt>
<trkpt lat="33.8100965" lon="-118.3938868">
  <ele>-27.487</ele>
  <time>2026-09-02T22:07:54Z</time>
  <course>182.46</course>
  <speed>0.7516648189186453</speed>
  <fix>3d</fix>
</trkpt>
<trkpt lat="33.8100972" lon="-118.3938866">
  <ele>-26.9</ele>
  <time>2026-09-02T22:07:54Z</time>
  <course>182.71</course>
  <speed>0.77</speed>
  <fix>3d</fix>
</trkpt>
<trkpt lat="33.8100958" lon="-118.3938868">
  <ele>-27.457</ele>
  <time>2026-09-02T22:07:54Z</time>
  <course>182.46</course>
  <speed>0.7516648189186453</speed>
  <fix>3d</fix>
</trkpt>
<trkpt lat="33.8100972" lon="-118.3938866">
  <ele>-26.9</ele>
  <time>2026-09-02T22:07:54Z</time>
  <course>182.71</course>
  <speed>0.77</speed>
  <fix>3d</fix>
</trkpt>
<trkpt lat="33.8100951" lon="-118.3938869">
  <ele>-27.429</ele>
  <time>2026-09-02T22:07:54Z</time>
  <course>182.45</course>
  <speed>0.7516648189186453</speed>
  <fix>3d</fix>
</trkpt>
<trkpt lat="33.8100958" lon="-118.3938867">
  <ele>-26.83</ele>
  <time>2026-09-02T22:07:54Z</time>
  <course>182.7</course>
  <speed>0.77</speed>
  <fix>3d</fix>
</trkpt>
<trkpt lat="33.8100944" lon="-118.3938869">
  <ele>-27.402</ele>
  <time>2026-09-02T22:07:54Z</time>
  <course>182.45</course>
  <speed>0.7516648189186453</speed>
  <fix>3d</fix>
</trkpt>
<trkpt lat="33.8100958" lon="-118.3938867">
  <ele>-26.83</ele>
  <time>2026-09-02T22:07:54Z</time>
  <course>182.7</course>
  <speed>0.77</speed>
  <fix>3d</fix>
</trkpt>
<trkpt lat="33.8100937" lon="-118.393887">
  <ele>-27.375</ele>
  <time>2026-09-02T22:07:54Z</time>
  <course>182.45</course>
  <speed>0.7516648189186453</speed>
  <fix>3d</fix>
</trkpt>
<trkpt lat="33.8100943" lon="-118.3938868">
  <ele>-26.77</ele>
  <time>2026-09-02T22:07:54Z</time>
  <course>182.7</course>
  <speed>0.77</speed>
  <fix>3d</fix>
</trkpt>
<trkpt lat="33.810093" lon="-118.393887">
  <ele>-27.346</ele>
  <time>2026-09-02T22:07:54Z</time>
  <course>182.44</course>
  <speed>0.7516648189186453</speed>
  <fix>3d</fix>
</trkpt>
<trkpt lat="33.8100943" lon="-118.3938868">
  <ele>-26.77</ele>
  <time>2026-09-02T22:07:54Z</time>
  <course>182.7</course>
  <speed>0.77</speed>
  <fix>3d</fix>
</trkpt>
<trkpt lat="33.8100923" lon="-118.393887">
  <ele>-27.318</ele>
  <time>2026-09-02T22:07:54Z</time>
  <course>182.44</course>
  <speed>0.7516648189186453</speed>
  <fix>3d</fix>
</trkpt>
<trkpt lat="33.8100929" lon="-118.3938869">
  <ele>-26.72</ele>
  <time>2026-09-02T22:07:54Z</time>
  <course>182.69</course>
  <speed>0.77</speed>
  <fix>3d</fix>
</trkpt>
<trkpt lat="33.8100916" lon="-118.3938871">
  <ele>-27.29</ele>
  <time>2026-09-02T22:07:54Z</time>
  <course>182.44</course>
  <speed>0.7516648189186453</speed>
  <fix>3d</fix>
</trkpt>
<trkpt lat="33.8100929" lon="-118.3938869">
  <ele>-26.72</ele>
  <time>2026-09-02T22:07:54Z</time>
  <course>182.69</course>
  <speed>0.77</speed>
  <fix>3d</fix>
</trkpt>
<trkpt lat="33.8100909" lon="-118.3938871">
  <ele>-27.261</ele>
  <time>2026-09-02T22:07:54Z</time>
  <course>182.44</course>
  <speed>0.7516648189186453</speed>
  <fix>3d</fix>
</trkpt>
<trkpt lat="33.8100916" lon="-118.393887">
  <ele>-26.66</ele>
  <time>2026-09-02T22:07:54Z</time>
  <course>182.67</course>
  <speed>0.77</speed>
  <fix>3d</fix>
</trkpt>
<trkpt lat="33.8100902" lon="-118.3938872">
  <ele>-27.233</ele>
  <time>2026-09-02T22:07:54Z</time>
  <course>182.43</course>
  <speed>0.7516648189186453</speed>
  <fix>3d</fix>
</trkpt>
<trkpt lat="33.8100916" lon="-118.393887">
  <ele>-26.66</ele>
  <time>2026-09-02T22:07:54Z</time>
  <course>182.67</course>
  <speed>0.77</speed>
  <fix>3d</fix>
</trkpt>
<trkpt lat="33.8100895" lon="-118.3938872">
  <ele>-27.207</ele>
  <time>2026-09-02T22:07:54Z</time>
  <course>182.43</course>
  <speed>0.7516648189186453</speed>
  <fix>3d</fix>
</trkpt>
<trkpt lat="33.8100902" lon="-118.393887">
  <ele>-26.61</ele>
  <time>2026-09-02T22:07:54Z</time>
  <course>182.66</course>
  <speed>0.77</speed>
  <fix>3d</fix>
</trkpt>
<trkpt lat="33.8100889" lon="-118.3938872">
  <ele>-27.183</ele>
  <time>2026-09-02T22:07:54Z</time>
  <course>182.43</course>
  <speed>0.7516648189186453</speed>
  <fix>3d</fix>
</trkpt>
<trkpt lat="33.8100902" lon="-118.393887">
  <ele>-26.61</ele>
  <time>2026-09-02T22:07:54Z</time>
  <course>182.66</course>
  <speed>0.77</speed>
  <fix>3d</fix>
</trkpt>
<trkpt lat="33.8100881" lon="-118.3938873">
  <ele>-27.158</ele>
  <time>2026-09-02T22:07:54Z</time>
  <course>182.43</course>
  <speed>0.7516648189186453</speed>
  <fix>3d</fix>
</trkpt>
<trkpt lat="33.8100888" lon="-118.3938871">
  <ele>-26.56</ele>
  <time>2026-09-02T22:07:54Z</time>
  <course>182.66</course>
  <speed>0.77</speed>
  <fix>3d</fix>
</trkpt>
<trkpt lat="33.8100874" lon="-118.3938873">
  <ele>-27.133</ele>
  <time>2026-09-02T22:07:54Z</time>
  <course>182.42</course>
  <speed>0.7516648189186453</speed>
  <fix>3d</fix>
</trkpt>
<trkpt lat="33.8100888" lon="-118.3938871">
  <ele>-26.56</ele>
  <time>2026-09-02T22:07:54Z</time>
  <course>182.66</course>
  <speed>0.77</speed>
  <fix>3d</fix>
</trkpt>
<trkpt lat="33.8100868" lon="-118.3938874">
  <ele>-27.109</ele>
  <time>2026-09-02T22:07:54Z</time>
  <course>182.42</course>
  <speed>0.7516648189186453</speed>
  <fix>3d</fix>
</trkpt>
<trkpt lat="33.8100874" lon="-118.3938872">
  <ele>-26.51</ele>
  <time>2026-09-02T22:07:54Z</time>
  <course>182.65</course>
  <speed>0.77</speed>
  <fix>3d</fix>
</trkpt>
<trkpt lat="33.8100861" lon="-118.3938874">
  <ele>-27.084</ele>
  <time>2026-09-02T22:07:54Z</time>
  <course>182.42</course>
  <speed>0.7516648189186453</speed>
  <fix>3d</fix>
</trkpt>
<trkpt lat="33.8100874" lon="-118.3938872">
  <ele>-26.51</ele>
  <time>2026-09-02T22:07:54Z</time>
  <course>182.65</course>
  <speed>0.77</speed>
  <fix>3d</fix>
</trkpt>
<trkpt lat="33.8100854" lon="-118.3938874">
  <ele>-27.059</ele>
  <time>2026-09-02T22:07:54Z</time>
  <course>182.42</course>
  <speed>0.7516648189186453</speed>
  <fix>3d</fix>
</trkpt>
<trkpt lat="33.8100861" lon="-118.3938873">
  <ele>-26.46</ele>
  <time>2026-09-02T22:07:54Z</time>
  <course>182.63</course>
  <speed>0.77</speed>
  <fix>3d</fix>
</trkpt>
<trkpt lat="33.8100847" lon="-118.3938875">
  <ele>-27.033</ele>
  <time>2026-09-02T22:07:54Z</time>
  <course>182.41</course>
  <speed>0.7516648189186453</speed>
  <fix>3d</fix>
</trkpt>
<trkpt lat="33.8100861" lon="-118.3938873">
  <ele>-26.46</ele>
  <time>2026-09-02T22:07:54Z</time>
  <course>182.63</course>
  <speed>0.77</speed>
  <fix>3d</fix>
</trkpt>
<trkpt lat="33.810084" lon="-118.3938875">
  <ele>-27.006</ele>
  <time>2026-09-02T22:07:54Z</time>
  <course>182.41</course>
  <speed>0.7516648189186453</speed>
  <fix>3d</fix>
</trkpt>
<trkpt lat="33.8100847" lon="-118.3938873">
  <ele>-26.41</ele>
  <time>2026-09-02T22:07:54Z</time>
  <course>182.62</course>
  <speed>0.77</speed>
  <fix>3d</fix>
</trkpt>
<trkpt lat="33.8100833" lon="-118.3938875">
  <ele>-26.978</ele>
  <time>2026-09-02T22:07:54Z</time>
  <course>182.41</course>
  <speed>0.7516648189186453</speed>
  <fix>3d</fix>
</trkpt>
<trkpt lat="33.8100847" lon="-118.3938873">
  <ele>-26.41</ele>
  <time>2026-09-02T22:07:54Z</time>
  <course>182.62</course>
  <speed>0.77</speed>
  <fix>3d</fix>
</trkpt>
<trkpt lat="33.8100826" lon="-118.3938876">
  <ele>-26.946</ele>
  <time>2026-09-02T22:07:54Z</time>
  <course>182.41</course>
  <speed>0.7516648189186453</speed>
  <fix>3d</fix>
</trkpt>
<trkpt lat="33.8100833" lon="-118.3938874">
  <ele>-26.36</ele>
  <time>2026-09-02T22:07:54Z</time>
  <course>182.61</course>
  <speed>0.77</speed>
  <fix>3d</fix>
</trkpt>
<trkpt lat="33.8100819" lon="-118.3938876">
  <ele>-26.912</ele>
  <time>2026-09-02T22:07:54Z</time>
  <course>182.4</course>
  <speed>0.7516648189186453</speed>
  <fix>3d</fix>
</trkpt>
<trkpt lat="33.8100833" lon="-118.3938874">
  <ele>-26.36</ele>
  <time>2026-09-02T22:07:54Z</time>
  <course>182.61</course>
  <speed>0.77</speed>
  <fix>3d</fix>
</trkpt>
<trkpt lat="33.8100812" lon="-118.3938877">
  <ele>-26.879</ele>
  <time>2026-09-02T22:07:54Z</time>
  <course>182.4</course>
  <speed>0.7516648189186453</speed>
  <fix>3d</fix>
</trkpt>
<trkpt lat="33.8100819" lon="-118.3938875">
  <ele>-26.3</ele>
  <time>2026-09-02T22:07:54Z</time>
  <course>182.6</course>
  <speed>0.77</speed>
  <fix>3d</fix>
</trkpt>
<trkpt lat="33.8100805" lon="-118.3938877">
  <ele>-26.846</ele>
  <time>2026-09-02T22:07:54Z</time>
  <course>182.4</course>
  <speed>0.7516648189186453</speed>
  <fix>3d</fix>
</trkpt>
<trkpt lat="33.8100819" lon="-118.3938875">
  <ele>-26.3</ele>
  <time>2026-09-02T22:07:54Z</time>
  <course>182.6</course>
  <speed>0.77</speed>
  <fix>3d</fix>
</trkpt>
<trkpt lat="33.8100798" lon="-118.3938877">
  <ele>-26.816</ele>
  <time>2026-09-02T22:07:54Z</time>
  <course>182.4</course>
  <speed>0.7516648189186453</speed>
  <fix>3d</fix>
</trkpt>
<trkpt lat="33.8100805" lon="-118.3938876">
  <ele>-26.24</ele>
  <time>2026-09-02T22:07:54Z</time>
  <course>182.59</course>
  <speed>0.77</speed>
  <fix>3d</fix>
</trkpt>
<trkpt lat="33.8100791" lon="-118.3938878">
  <ele>-26.789</ele>
  <time>2026-09-02T22:07:54Z</time>
  <course>182.4</course>
  <speed>0.7516648189186453</speed>
  <fix>3d</fix>
</trkpt>
<trkpt lat="33.8100805" lon="-118.3938876">
  <ele>-26.24</ele>
  <time>2026-09-02T22:07:54Z</time>
  <course>182.59</course>
  <speed>0.77</speed>
  <fix>3d</fix>
</trkpt>
<trkpt lat="33.8100784" lon="-118.3938878">
  <ele>-26.759</ele>
  <time>2026-09-02T22:07:54Z</time>
  <course>182.39</course>
  <speed>0.7516648189186453</speed>
  <fix>3d</fix>
</trkpt>
<trkpt lat="33.810079" lon="-118.3938876">
  <ele>-26.18</ele>
  <time>2026-09-02T22:07:54Z</time>
  <course>182.58</course>
  <speed>0.77</speed>
  <fix>3d</fix>
</trkpt>
<trkpt lat="33.8100777" lon="-118.3938878">
  <ele>-26.727</ele>
  <time>2026-09-02T22:07:54Z</time>
  <course>182.39</course>
  <speed>0.7516648189186453</speed>
  <fix>3d</fix>
</trkpt>
<trkpt lat="33.810079" lon="-118.3938876">
  <ele>-26.18</ele>
  <time>2026-09-02T22:07:54Z</time>
  <course>182.58</course>
  <speed>0.77</speed>
  <fix>3d</fix>
</trkpt>
<trkpt lat="33.810077" lon="-118.3938879">
  <ele>-26.692</ele>
  <time>2026-09-02T22:07:54Z</time>
  <course>182.39</course>
  <speed>0.7516648189186453</speed>
  <fix>3d</fix>
</trkpt>
<trkpt lat="33.8100777" lon="-118.3938877">
  <ele>-26.11</ele>
  <time>2026-09-02T22:07:54Z</time>
  <course>182.56</course>
  <speed>0.77</speed>
  <fix>3d</fix>
</trkpt>
<trkpt lat="33.8100763" lon="-118.3938879">
  <ele>-26.657</ele>
  <time>2026-09-02T22:07:54Z</time>
  <course>182.39</course>
  <speed>0.7516648189186453</speed>
  <fix>3d</fix>
</trkpt>
<trkpt lat="33.8100777" lon="-118.3938877">
  <ele>-26.11</ele>
  <time>2026-09-02T22:07:54Z</time>
  <course>182.56</course>
  <speed>0.77</speed>
  <fix>3d</fix>
</trkpt>
<trkpt lat="33.8100757" lon="-118.393888">
  <ele>-26.621</ele>
  <time>2026-09-02T22:07:54Z</time>
  <course>182.39</course>
  <speed>0.7516648189186453</speed>
  <fix>3d</fix>
</trkpt>
<trkpt lat="33.8100764" lon="-118.3938878">
  <ele>-26.04</ele>
  <time>2026-09-02T22:07:54Z</time>
  <course>182.55</course>
  <speed>0.77</speed>
  <fix>3d</fix>
</trkpt>
<trkpt lat="33.810075" lon="-118.393888">
  <ele>-26.585</ele>
  <time>2026-09-02T22:07:54Z</time>
  <course>182.38</course>
  <speed>0.7516648189186453</speed>
  <fix>3d</fix>
</trkpt>
<trkpt lat="33.8100764" lon="-118.3938878">
  <ele>-26.04</ele>
  <time>2026-09-02T22:07:54Z</time>
  <course>182.55</course>
  <speed>0.77</speed>
  <fix>3d</fix>
</trkpt>
<trkpt lat="33.8100743" lon="-118.393888">
  <ele>-26.551</ele>
  <time>2026-09-02T22:07:54Z</time>
  <course>182.38</course>
  <speed>0.7516648189186453</speed>
  <fix>3d</fix>
</trkpt>
<trkpt lat="33.810075" lon="-118.3938879">
  <ele>-25.97</ele>
  <time>2026-09-02T22:07:54Z</time>
  <course>182.54</course>
  <speed>0.77</speed>
  <fix>3d</fix>
</trkpt>
<trkpt lat="33.8100736" lon="-118.3938881">
  <ele>-26.516</ele>
  <time>2026-09-02T22:07:54Z</time>
  <course>182.38</course>
  <speed>0.7516648189186453</speed>
  <fix>3d</fix>
</trkpt>
<trkpt lat="33.810075" lon="-118.3938879">
  <ele>-25.97</ele>
  <time>2026-09-02T22:07:54Z</time>
  <course>182.54</course>
  <speed>0.77</speed>
  <fix>3d</fix>
</trkpt>
<trkpt lat="33.8100729" lon="-118.3938881">
  <ele>-26.481</ele>
  <time>2026-09-02T22:07:54Z</time>
  <course>182.38</course>
  <speed>0.7516648189186453</speed>
  <fix>3d</fix>
</trkpt>
<trkpt lat="33.8100735" lon="-118.3938879">
  <ele>-25.91</ele>
  <time>2026-09-02T22:07:54Z</time>
  <course>182.53</course>
  <speed>0.77</speed>
  <fix>3d</fix>
</trkpt>
<trkpt lat="33.8100722" lon="-118.3938881">
  <ele>-26.444</ele>
  <time>2026-09-02T22:07:54Z</time>
  <course>182.37</course>
  <speed>0.7516648189186453</speed>
  <fix>3d</fix>
</trkpt>
<trkpt lat="33.8100735" lon="-118.3938879">
  <ele>-25.91</ele>
  <time>2026-09-02T22:07:54Z</time>
  <course>182.53</course>
  <speed>0.77</speed>
  <fix>3d</fix>
</trkpt>
<trkpt lat="33.8100715" lon="-118.3938882">
  <ele>-26.406</ele>
  <time>2026-09-02T22:07:54Z</time>
  <course>182.37</course>
  <speed>0.7516648189186453</speed>
  <fix>3d</fix>
</trkpt>
<trkpt lat="33.8100722" lon="-118.393888">
  <ele>-25.84</ele>
  <time>2026-09-02T22:07:54Z</time>
  <course>182.52</course>
  <speed>0.77</speed>
  <fix>3d</fix>
</trkpt>
<trkpt lat="33.8100708" lon="-118.3938882">
  <ele>-26.368</ele>
  <time>2026-09-02T22:07:54Z</time>
  <course>182.37</course>
  <speed>0.7516648189186453</speed>
  <fix>3d</fix>
</trkpt>
<trkpt lat="33.8100722" lon="-118.393888">
  <ele>-25.84</ele>
  <time>2026-09-02T22:07:54Z</time>
  <course>182.52</course>
  <speed>0.77</speed>
  <fix>3d</fix>
</trkpt>
<trkpt lat="33.8100701" lon="-118.3938883">
  <ele>-26.33</ele>
  <time>2026-09-02T22:07:54Z</time>
  <course>182.37</course>
  <speed>0.7516648189186453</speed>
  <fix>3d</fix>
</trkpt>
<trkpt lat="33.8100708" lon="-118.3938881">
  <ele>-25.77</ele>
  <time>2026-09-02T22:07:54Z</time>
  <course>182.51</course>
  <speed>0.77</speed>
  <fix>3d</fix>
</trkpt>
<trkpt lat="33.8100694" lon="-118.3938883">
  <ele>-26.293</ele>
  <time>2026-09-02T22:07:54Z</time>
  <course>182.37</course>
  <speed>0.7516648189186453</speed>
  <fix>3d</fix>
</trkpt>
<trkpt lat="33.8100708" lon="-118.3938881">
  <ele>-25.77</ele>
  <time>2026-09-02T22:07:54Z</time>
  <course>182.51</course>
  <speed>0.77</speed>
  <fix>3d</fix>
</trkpt>
<trkpt lat="33.8100687" lon="-118.3938883">
  <ele>-26.255</ele>
  <time>2026-09-02T22:07:54Z</time>
  <course>182.37</course>
  <speed>0.7516648189186453</speed>
  <fix>3d</fix>
</trkpt>
<trkpt lat="33.8100693" lon="-118.3938882">
  <ele>-25.7</ele>
  <time>2026-09-02T22:07:54Z</time>
  <course>182.51</course>
  <speed>0.77</speed>
  <fix>3d</fix>
</trkpt>
<trkpt lat="33.810068" lon="-118.3938884">
  <ele>-26.219</ele>
  <time>2026-09-02T22:07:54Z</time>
  <course>182.36</course>
  <speed>0.7516648189186453</speed>
  <fix>3d</fix>
</trkpt>
<trkpt lat="33.8100693" lon="-118.3938882">
  <ele>-25.7</ele>
  <time>2026-09-02T22:07:54Z</time>
  <course>182.51</course>
  <speed>0.77</speed>
  <fix>3d</fix>
</trkpt>
<trkpt lat="33.8100673" lon="-118.3938884">
  <ele>-26.187</ele>
  <time>2026-09-02T22:07:54Z</time>
  <course>182.36</course>
  <speed>0.7516648189186453</speed>
  <fix>3d</fix>
</trkpt>
<trkpt lat="33.810068" lon="-118.3938882">
  <ele>-25.63</ele>
  <time>2026-09-02T22:07:54Z</time>
  <course>182.5</course>
  <speed>0.77</speed>
  <fix>3d</fix>
</trkpt>
<trkpt lat="33.8100666" lon="-118.3938884">
  <ele>-26.16</ele>
  <time>2026-09-02T22:07:54Z</time>
  <course>182.36</course>
  <speed>0.7516648189186453</speed>
  <fix>3d</fix>
</trkpt>
<trkpt lat="33.810068" lon="-118.3938882">
  <ele>-25.63</ele>
  <time>2026-09-02T22:07:54Z</time>
  <course>182.5</course>
  <speed>0.77</speed>
  <fix>3d</fix>
</trkpt>
<trkpt lat="33.8100659" lon="-118.3938885">
  <ele>-26.136</ele>
  <time>2026-09-02T22:07:54Z</time>
  <course>182.36</course>
  <speed>0.7516648189186453</speed>
  <fix>3d</fix>
</trkpt>
<trkpt lat="33.8100666" lon="-118.3938883">
  <ele>-25.57</ele>
  <time>2026-09-02T22:07:54Z</time>
  <course>182.5</course>
  <speed>0.77</speed>
  <fix>3d</fix>
</trkpt>
<trkpt lat="33.8100652" lon="-118.3938885">
  <ele>-26.114</ele>
  <time>2026-09-02T22:07:54Z</time>
  <course>182.36</course>
  <speed>0.7516648189186453</speed>
  <fix>3d</fix>
</trkpt>
<trkpt lat="33.8100666" lon="-118.3938883">
  <ele>-25.57</ele>
  <time>2026-09-02T22:07:54Z</time>
  <course>182.5</course>
  <speed>0.77</speed>
  <fix>3d</fix>
</trkpt>
<trkpt lat="33.8100645" lon="-118.3938885">
  <ele>-26.092</ele>
  <time>2026-09-02T22:07:54Z</time>
  <course>182.36</course>
  <speed>0.7516648189186453</speed>
  <fix>3d</fix>
</trkpt>
<trkpt lat="33.8100651" lon="-118.3938884">
  <ele>-25.52</ele>
  <time>2026-09-02T22:07:54Z</time>
  <course>182.49</course>
  <speed>0.77</speed>
  <fix>3d</fix>
</trkpt>
<trkpt lat="33.8100638" lon="-118.3938886">
  <ele>-26.069</ele>
  <time>2026-09-02T22:07:54Z</time>
  <course>182.35</course>
  <speed>0.7516648189186453</speed>
  <fix>3d</fix>
</trkpt>
<trkpt lat="33.8100651" lon="-118.3938884">
  <ele>-25.52</ele>
  <time>2026-09-02T22:07:54Z</time>
  <course>182.49</course>
  <speed>0.77</speed>
  <fix>3d</fix>
</trkpt>
<trkpt lat="33.8100631" lon="-118.3938886">
  <ele>-26.046</ele>
  <time>2026-09-02T22:07:54Z</time>
  <course>182.35</course>
  <speed>0.7516648189186453</speed>
  <fix>3d</fix>
</trkpt>
<trkpt lat="33.8100638" lon="-118.3938885">
  <ele>-25.48</ele>
  <time>2026-09-02T22:07:54Z</time>
  <course>182.48</course>
  <speed>0.77</speed>
  <fix>3d</fix>
</trkpt>
<trkpt lat="33.8100624" lon="-118.3938887">
  <ele>-26.024</ele>
  <time>2026-09-02T22:07:54Z</time>
  <course>182.35</course>
  <speed>0.7516648189186453</speed>
  <fix>3d</fix>
</trkpt>
<trkpt lat="33.8100638" lon="-118.3938885">
  <ele>-25.48</ele>
  <time>2026-09-02T22:07:54Z</time>
  <course>182.48</course>
  <speed>0.77</speed>
  <fix>3d</fix>
</trkpt>
<trkpt lat="33.8100617" lon="-118.3938887">
  <ele>-26.001</ele>
  <time>2026-09-02T22:07:54Z</time>
  <course>182.35</course>
  <speed>0.7516648189186453</speed>
  <fix>3d</fix>
</trkpt>
<trkpt lat="33.8100625" lon="-118.3938885">
  <ele>-25.43</ele>
  <time>2026-09-02T22:07:54Z</time>
  <course>182.47</course>
  <speed>0.77</speed>
  <fix>3d</fix>
</trkpt>
<trkpt lat="33.810061" lon="-118.3938887">
  <ele>-25.976</ele>
  <time>2026-09-02T22:07:54Z</time>
  <course>182.34</course>
  <speed>0.7516648189186453</speed>
  <fix>3d</fix>
</trkpt>
<trkpt lat="33.8100625" lon="-118.3938885">
  <ele>-25.43</ele>
  <time>2026-09-02T22:07:54Z</time>
  <course>182.47</course>
  <speed>0.77</speed>
  <fix>3d</fix>
</trkpt>
<trkpt lat="33.8100604" lon="-118.3938888">
  <ele>-25.95</ele>
  <time>2026-09-02T22:07:54Z</time>
  <course>182.34</course>
  <speed>0.7516648189186453</speed>
  <fix>3d</fix>
</trkpt>
<trkpt lat="33.8100611" lon="-118.3938886">
  <ele>-25.39</ele>
  <time>2026-09-02T22:07:54Z</time>
  <course>182.46</course>
  <speed>0.77</speed>
  <fix>3d</fix>
</trkpt>
<trkpt lat="33.8100597" lon="-118.3938888">
  <ele>-25.922</ele>
  <time>2026-09-02T22:07:54Z</time>
  <course>182.34</course>
  <speed>0.7516648189186453</speed>
  <fix>3d</fix>
</trkpt>
<trkpt lat="33.8100611" lon="-118.3938886">
  <ele>-25.39</ele>
  <time>2026-09-02T22:07:54Z</time>
  <course>182.46</course>
  <speed>0.77</speed>
  <fix>3d</fix>
</trkpt>
<trkpt lat="33.810059" lon="-118.3938888">
  <ele>-25.892</ele>
  <time>2026-09-02T22:07:54Z</time>
  <course>182.34</course>
  <speed>0.7516648189186453</speed>
  <fix>3d</fix>
</trkpt>
<trkpt lat="33.8100596" lon="-118.3938887">
  <ele>-25.34</ele>
  <time>2026-09-02T22:07:54Z</time>
  <course>182.45</course>
  <speed>0.77</speed>
  <fix>3d</fix>
</trkpt>
<trkpt lat="33.8100583" lon="-118.3938889">
  <ele>-25.861</ele>
  <time>2026-09-02T22:07:54Z</time>
  <course>182.34</course>
  <speed>0.7516648189186453</speed>
  <fix>3d</fix>
</trkpt>
<trkpt lat="33.8100596" lon="-118.3938887">
  <ele>-25.34</ele>
  <time>2026-09-02T22:07:54Z</time>
  <course>182.45</course>
  <speed>0.77</speed>
  <fix>3d</fix>
</trkpt>
<trkpt lat="33.8100576" lon="-118.3938889">
  <ele>-25.831</ele>
  <time>2026-09-02T22:07:54Z</time>
  <course>182.34</course>
  <speed>0.7516648189186453</speed>
  <fix>3d</fix>
</trkpt>
<trkpt lat="33.8100582" lon="-118.3938888">
  <ele>-25.27</ele>
  <time>2026-09-02T22:07:54Z</time>
  <course>182.44</course>
  <speed>0.77</speed>
  <fix>3d</fix>
</trkpt>
<trkpt lat="33.8100569" lon="-118.393889">
  <ele>-25.8</ele>
  <time>2026-09-02T22:07:54Z</time>
  <course>182.34</course>
  <speed>0.7516648189186453</speed>
  <fix>3d</fix>
</trkpt>
<trkpt lat="33.8100582" lon="-118.3938888">
  <ele>-25.27</ele>
  <time>2026-09-02T22:07:54Z</time>
  <course>182.44</course>
  <speed>0.77</speed>
  <fix>3d</fix>
</trkpt>
<trkpt lat="33.8100562" lon="-118.393889">
  <ele>-25.769</ele>
  <time>2026-09-02T22:07:54Z</time>
  <course>182.34</course>
  <speed>0.7516648189186453</speed>
  <fix>3d</fix>
</trkpt>
<trkpt lat="33.8100569" lon="-118.3938888">
  <ele>-25.22</ele>
  <time>2026-09-02T22:07:54Z</time>
  <course>182.43</course>
  <speed>0.77</speed>
  <fix>3d</fix>
</trkpt>
<trkpt lat="33.8100555" lon="-118.393889">
  <ele>-25.734</ele>
  <time>2026-09-02T22:07:54Z</time>
  <course>182.33</course>
  <speed>0.7516648189186453</speed>
  <fix>3d</fix>
</trkpt>
<trkpt lat="33.8100569" lon="-118.3938888">
  <ele>-25.22</ele>
  <time>2026-09-02T22:07:54Z</time>
  <course>182.43</course>
  <speed>0.77</speed>
  <fix>3d</fix>
</trkpt>
<trkpt lat="33.8100548" lon="-118.3938891">
  <ele>-25.697</ele>
  <time>2026-09-02T22:07:54Z</time>
  <course>182.33</course>
  <speed>0.7516648189186453</speed>
  <fix>3d</fix>
</trkpt>
<trkpt lat="33.8100555" lon="-118.3938889">
  <ele>-25.15</ele>
  <time>2026-09-02T22:07:54Z</time>
  <course>182.42</course>
  <speed>0.77</speed>
  <fix>3d</fix>
</trkpt>
<trkpt lat="33.8100541" lon="-118.3938891">
  <ele>-25.658</ele>
  <time>2026-09-02T22:07:54Z</time>
  <course>182.33</course>
  <speed>0.7516648189186453</speed>
  <fix>3d</fix>
</trkpt>
<trkpt lat="33.8100555" lon="-118.3938889">
  <ele>-25.15</ele>
  <time>2026-09-02T22:07:54Z</time>
  <course>182.42</course>
  <speed>0.77</speed>
  <fix>3d</fix>
</trkpt>
<trkpt lat="33.8100534" lon="-118.3938891">
  <ele>-25.618</ele>
  <time>2026-09-02T22:07:54Z</time>
  <course>182.33</course>
  <speed>0.7516648189186453</speed>
  <fix>3d</fix>
</trkpt>
<trkpt lat="33.8100541" lon="-118.393889">
  <ele>-25.08</ele>
  <time>2026-09-02T22:07:54Z</time>
  <course>182.41</course>
  <speed>0.77</speed>
  <fix>3d</fix>
</trkpt>
<trkpt lat="33.8100527" lon="-118.3938892">
  <ele>-25.579</ele>
  <time>2026-09-02T22:07:54Z</time>
  <course>182.33</course>
  <speed>0.7516648189186453</speed>
  <fix>3d</fix>
</trkpt>
<trkpt lat="33.8100541" lon="-118.393889">
  <ele>-25.08</ele>
  <time>2026-09-02T22:07:54Z</time>
  <course>182.41</course>
  <speed>0.77</speed>
  <fix>3d</fix>
</trkpt>
<trkpt lat="33.810052" lon="-118.3938892">
  <ele>-25.541</ele>
  <time>2026-09-02T22:07:54Z</time>
  <course>182.33</course>
  <speed>0.7516648189186453</speed>
  <fix>3d</fix>
</trkpt>
<trkpt lat="33.8100527" lon="-118.393889">
  <ele>-25.0</ele>
  <time>2026-09-02T22:07:54Z</time>
  <course>182.4</course>
  <speed>0.77</speed>
  <fix>3d</fix>
</trkpt>
<trkpt lat="33.8100513" lon="-118.3938892">
  <ele>-25.502</ele>
  <time>2026-09-02T22:07:54Z</time>
  <course>182.32</course>
  <speed>0.7516648189186453</speed>
  <fix>3d</fix>
</trkpt>
<trkpt lat="33.8100527" lon="-118.393889">
  <ele>-25.0</ele>
  <time>2026-09-02T22:07:54Z</time>
  <course>182.4</course>
  <speed>0.77</speed>
  <fix>3d</fix>
</trkpt>
<trkpt lat="33.8100506" lon="-118.3938893">
  <ele>-25.463</ele>
  <time>2026-09-02T22:07:54Z</time>
  <course>182.32</course>
  <speed>0.7516648189186453</speed>
  <fix>3d</fix>
</trkpt>
<trkpt lat="33.8100513" lon="-118.3938891">
  <ele>-24.93</ele>
  <time>2026-09-02T22:07:54Z</time>
  <course>182.39</course>
  <speed>0.77</speed>
  <fix>3d</fix>
</trkpt>
<trkpt lat="33.8100499" lon="-118.3938893">
  <ele>-25.426</ele>
  <time>2026-09-02T22:07:54Z</time>
  <course>182.32</course>
  <speed>0.7516648189186453</speed>
  <fix>3d</fix>
</trkpt>
<trkpt lat="33.8100513" lon="-118.3938891">
  <ele>-24.93</ele>
  <time>2026-09-02T22:07:54Z</time>
  <course>182.39</course>
  <speed>0.77</speed>
  <fix>3d</fix>
</trkpt>
<trkpt lat="33.8100492" lon="-118.3938893">
  <ele>-25.389</ele>
  <time>2026-09-02T22:07:54Z</time>
  <course>182.32</course>
  <speed>0.7516648189186453</speed>
  <fix>3d</fix>
</trkpt>
<trkpt lat="33.8100498" lon="-118.3938892">
  <ele>-24.86</ele>
  <time>2026-09-02T22:07:54Z</time>
  <course>182.39</course>
  <speed>0.77</speed>
  <fix>3d</fix>
</trkpt>
<trkpt lat="33.8100485" lon="-118.3938894">
  <ele>-25.354</ele>
  <time>2026-09-02T22:07:54Z</time>
  <course>182.32</course>
  <speed>0.7516648189186453</speed>
  <fix>3d</fix>
</trkpt>
<trkpt lat="33.8100498" lon="-118.3938892">
  <ele>-24.86</ele>
  <time>2026-09-02T22:07:54Z</time>
  <course>182.39</course>
  <speed>0.77</speed>
  <fix>3d</fix>
</trkpt>
<trkpt lat="33.8100478" lon="-118.3938894">
  <ele>-25.317</ele>
  <time>2026-09-02T22:07:54Z</time>
  <course>182.32</course>
  <speed>0.7516648189186453</speed>
  <fix>3d</fix>
</trkpt>
<trkpt lat="33.8100485" lon="-118.3938892">
  <ele>-24.78</ele>
  <time>2026-09-02T22:07:54Z</time>
  <course>182.38</course>
  <speed>0.77</speed>
  <fix>3d</fix>
</trkpt>
<trkpt lat="33.8100471" lon="-118.3938894">
  <ele>-25.282</ele>
  <time>2026-09-02T22:07:54Z</time>
  <course>182.31</course>
  <speed>0.7516648189186453</speed>
  <fix>3d</fix>
</trkpt>
<trkpt lat="33.8100485" lon="-118.3938892">
  <ele>-24.78</ele>
  <time>2026-09-02T22:07:54Z</time>
  <course>182.38</course>
  <speed>0.77</speed>
  <fix>3d</fix>
</trkpt>
<trkpt lat="33.8100464" lon="-118.3938895">
  <ele>-25.247</ele>
  <time>2026-09-02T22:07:54Z</time>
  <course>182.31</course>
  <speed>0.7510659092250159</speed>
  <fix>3d</fix>
</trkpt>
<trkpt lat="33.8100472" lon="-118.3938893">
  <ele>-24.72</ele>
  <time>2026-09-02T22:07:54Z</time>
  <course>182.37</course>
  <speed>0.77</speed>
  <fix>3d</fix>
</trkpt>
<trkpt lat="33.8100457" lon="-118.3938895">
  <ele>-25.214</ele>
  <time>2026-09-02T22:07:54Z</time>
  <course>182.31</course>
  <speed>0.7510659092250159</speed>
  <fix>3d</fix>
</trkpt>
<trkpt lat="33.8100472" lon="-118.3938893">
  <ele>-24.72</ele>
  <time>2026-09-02T22:07:54Z</time>
  <course>182.37</course>
  <speed>0.77</speed>
  <fix>3d</fix>
</trkpt>
<trkpt lat="33.8100451" lon="-118.3938895">
  <ele>-25.183</ele>
  <time>2026-09-02T22:07:54Z</time>
  <course>182.31</course>
  <speed>0.7510659092250159</speed>
  <fix>3d</fix>
</trkpt>
<trkpt lat="33.8100458" lon="-118.3938894">
  <ele>-24.65</ele>
  <time>2026-09-02T22:07:54Z</time>
  <course>182.37</course>
  <speed>0.77</speed>
  <fix>3d</fix>
</trkpt>
<trkpt lat="33.8100443" lon="-118.3938896">
  <ele>-25.154</ele>
  <time>2026-09-02T22:07:54Z</time>
  <course>182.31</course>
  <speed>0.7510659092250159</speed>
  <fix>3d</fix>
</trkpt>
<trkpt lat="33.8100458" lon="-118.3938894">
  <ele>-24.65</ele>
  <time>2026-09-02T22:07:54Z</time>
  <course>182.37</course>
  <speed>0.77</speed>
  <fix>3d</fix>
</trkpt>
<trkpt lat="33.8100437" lon="-118.3938896">
  <ele>-25.125</ele>
  <time>2026-09-02T22:07:54Z</time>
  <course>182.31</course>
  <speed>0.7510659092250159</speed>
  <fix>3d</fix>
</trkpt>
<trkpt lat="33.8100443" lon="-118.3938895">
  <ele>-24.59</ele>
  <time>2026-09-02T22:07:54Z</time>
  <course>182.36</course>
  <speed>0.77</speed>
  <fix>3d</fix>
</trkpt>
<trkpt lat="33.810043" lon="-118.3938897">
  <ele>-25.095</ele>
  <time>2026-09-02T22:07:54Z</time>
  <course>182.31</course>
  <speed>0.7510659092250159</speed>
  <fix>3d</fix>
</trkpt>
<trkpt lat="33.8100443" lon="-118.3938895">
  <ele>-24.59</ele>
  <time>2026-09-02T22:07:54Z</time>
  <course>182.36</course>
  <speed>0.77</speed>
  <fix>3d</fix>
</trkpt>
<trkpt lat="33.8100423" lon="-118.3938897">
  <ele>-25.066</ele>
  <time>2026-09-02T22:07:54Z</time>
  <course>182.31</course>
  <speed>0.7510659092250159</speed>
  <fix>3d</fix>
</trkpt>
<trkpt lat="33.810043" lon="-118.3938895">
  <ele>-24.52</ele>
  <time>2026-09-02T22:07:54Z</time>
  <course>182.36</course>
  <speed>0.77</speed>
  <fix>3d</fix>
</trkpt>
<trkpt lat="33.8100416" lon="-118.3938897">
  <ele>-25.038</ele>
  <time>2026-09-02T22:07:54Z</time>
  <course>182.3</course>
  <speed>0.7510659092250159</speed>
  <fix>3d</fix>
</trkpt>
<trkpt lat="33.810043" lon="-118.3938895">
  <ele>-24.52</ele>
  <time>2026-09-02T22:07:54Z</time>
  <course>182.36</course>
  <speed>0.77</speed>
  <fix>3d</fix>
</trkpt>
<trkpt lat="33.8100409" lon="-118.3938898">
  <ele>-25.012</ele>
  <time>2026-09-02T22:07:54Z</time>
  <course>182.3</course>
  <speed>0.7510659092250159</speed>
  <fix>3d</fix>
</trkpt>
<trkpt lat="33.8100416" lon="-118.3938896">
  <ele>-24.47</ele>
  <time>2026-09-02T22:07:54Z</time>
  <course>182.35</course>
  <speed>0.77</speed>
  <fix>3d</fix>
</trkpt>
<trkpt lat="33.8100402" lon="-118.3938898">
  <ele>-24.988</ele>
  <time>2026-09-02T22:07:54Z</time>
  <course>182.3</course>
  <speed>0.7510659092250159</speed>
  <fix>3d</fix>
</trkpt>
<trkpt lat="33.8100416" lon="-118.3938896">
  <ele>-24.47</ele>
  <time>2026-09-02T22:07:54Z</time>
  <course>182.35</course>
  <speed>0.77</speed>
  <fix>3d</fix>
</trkpt>
<trkpt lat="33.8100395" lon="-118.3938898">
  <ele>-24.967</ele>
  <time>2026-09-02T22:07:54Z</time>
  <course>182.3</course>
  <speed>0.7510659092250159</speed>
  <fix>3d</fix>
</trkpt>
<trkpt lat="33.8100402" lon="-118.3938897">
  <ele>-24.42</ele>
  <time>2026-09-02T22:07:54Z</time>
  <course>182.35</course>
  <speed>0.77</speed>
  <fix>3d</fix>
</trkpt>
<trkpt lat="33.8100388" lon="-118.3938899">
  <ele>-24.947</ele>
  <time>2026-09-02T22:07:54Z</time>
  <course>182.3</course>
  <speed>0.7510659092250159</speed>
  <fix>3d</fix>
</trkpt>
<trkpt lat="33.8100402" lon="-118.3938897">
  <ele>-24.42</ele>
  <time>2026-09-02T22:07:54Z</time>
  <course>182.35</course>
  <speed>0.77</speed>
  <fix>3d</fix>
</trkpt>
<trkpt lat="33.8100381" lon="-118.3938899">
  <ele>-24.929</ele>
  <time>2026-09-02T22:07:54Z</time>
  <course>182.3</course>
  <speed>0.7510659092250159</speed>
  <fix>3d</fix>
</trkpt>
<trkpt lat="33.8100388" lon="-118.3938897">
  <ele>-24.38</ele>
  <time>2026-09-02T22:07:54Z</time>
  <course>182.34</course>
  <speed>0.77</speed>
  <fix>3d</fix>
</trkpt>
<trkpt lat="33.8100374" lon="-118.3938899">
  <ele>-24.913</ele>
  <time>2026-09-02T22:07:54Z</time>
  <course>182.3</course>
  <speed>0.7410802925459562</speed>
  <fix>3d</fix>
</trkpt>
<trkpt lat="33.8100388" lon="-118.3938897">
  <ele>-24.38</ele>
  <time>2026-09-02T22:07:54Z</time>
  <course>182.34</course>
  <speed>0.77</speed>
  <fix>3d</fix>
</trkpt>
<trkpt lat="33.8100368" lon="-118.39389">
  <ele>-24.899</ele>
  <time>2026-09-02T22:07:54Z</time>
  <course>182.3</course>
  <speed>0.7410802925459562</speed>
  <fix>3d</fix>
</trkpt>
<trkpt lat="33.8100374" lon="-118.3938898">
  <ele>-24.34</ele>
  <time>2026-09-02T22:07:54Z</time>
  <course>182.34</course>
  <speed>0.77</speed>
  <fix>3d</fix>
</trkpt>
<trkpt lat="33.8100361" lon="-118.39389">
  <ele>-24.887</ele>
  <time>2026-09-02T22:07:54Z</time>
  <course>182.3</course>
  <speed>0.7410802925459562</speed>
  <fix>3d</fix>
</trkpt>
<trkpt lat="33.8100374" lon="-118.3938898">
  <ele>-24.34</ele>
  <time>2026-09-02T22:07:54Z</time>
  <course>182.34</course>
  <speed>0.77</speed>
  <fix>3d</fix>
</trkpt>
<trkpt lat="33.8100354" lon="-118.39389">
  <ele>-24.879</ele>
  <time>2026-09-02T22:07:54Z</time>
  <course>182.29</course>
  <speed>0.7410802925459562</speed>
  <fix>3d</fix>
</trkpt>
<trkpt lat="33.8100359" lon="-118.3938899">
  <ele>-24.31</ele>
  <time>2026-09-02T22:07:54Z</time>
  <course>182.33</course>
  <speed>0.77</speed>
  <fix>3d</fix>
</trkpt>
<trkpt lat="33.8100347" lon="-118.3938901">
  <ele>-24.875</ele>
  <time>2026-09-02T22:07:54Z</time>
  <course>182.29</course>
  <speed>0.7510659092250159</speed>
  <fix>3d</fix>
</trkpt>
<trkpt lat="33.8100359" lon="-118.3938899">
  <ele>-24.31</ele>
  <time>2026-09-02T22:07:54Z</time>
  <course>182.33</course>
  <speed>0.77</speed>
  <fix>3d</fix>
</trkpt>
<trkpt lat="33.810034" lon="-118.3938901">
  <ele>-24.873</ele>
  <time>2026-09-02T22:07:54Z</time>
  <course>182.29</course>
  <speed>0.7510659092250159</speed>
  <fix>3d</fix>
</trkpt>
<trkpt lat="33.8100346" lon="-118.3938899">
  <ele>-24.29</ele>
  <time>2026-09-02T22:07:54Z</time>
  <course>182.33</course>
  <speed>0.77</speed>
  <fix>3d</fix>
</trkpt>
<trkpt lat="33.8100333" lon="-118.3938901">
  <ele>-24.874</ele>
  <time>2026-09-02T22:07:54Z</time>
  <course>182.29</course>
  <speed>0.7510659092250159</speed>
  <fix>3d</fix>
</trkpt>
<trkpt lat="33.8100346" lon="-118.3938899">
  <ele>-24.29</ele>
  <time>2026-09-02T22:07:54Z</time>
  <course>182.33</course>
  <speed>0.77</speed>
  <fix>3d</fix>
</trkpt>
<trkpt lat="33.8100326" lon="-118.3938902">
  <ele>-24.88</ele>
  <time>2026-09-02T22:07:54Z</time>
  <course>182.29</course>
  <speed>0.7510659092250159</speed>
  <fix>3d</fix>
</trkpt>
<trkpt lat="33.8100333" lon="-118.39389">
  <ele>-24.29</ele>
  <time>2026-09-02T22:07:54Z</time>
  <course>182.33</course>
  <speed>0.77</speed>
  <fix>3d</fix>
</trkpt>
<trkpt lat="33.8100319" lon="-118.3938902">
  <ele>-24.889</ele>
  <time>2026-09-02T22:07:54Z</time>
  <course>182.29</course>
  <speed>0.7510659092250159</speed>
  <fix>3d</fix>
</trkpt>
<trkpt lat="33.8100333" lon="-118.39389">
  <ele>-24.29</ele>
  <time>2026-09-02T22:07:54Z</time>
  <course>182.33</course>
  <speed>0.77</speed>
  <fix>3d</fix>
</trkpt>
<trkpt lat="33.8100312" lon="-118.3938902">
  <ele>-24.901</ele>
  <time>2026-09-02T22:07:54Z</time>
  <course>182.29</course>
  <speed>0.7510659092250159</speed>
  <fix>3d</fix>
</trkpt>
<trkpt lat="33.8100319" lon="-118.3938901">
  <ele>-24.3</ele>
  <time>2026-09-02T22:07:54Z</time>
  <course>182.33</course>
  <speed>0.77</speed>
  <fix>3d</fix>
</trkpt>
<trkpt lat="33.8100305" lon="-118.3938903">
  <ele>-24.916</ele>
  <time>2026-09-02T22:07:54Z</time>
  <course>182.28</course>
  <speed>0.7510659092250159</speed>
  <fix>3d</fix>
</trkpt>
<trkpt lat="33.8100319" lon="-118.3938901">
  <ele>-24.3</ele>
  <time>2026-09-02T22:07:54Z</time>
  <course>182.33</course>
  <speed>0.77</speed>
  <fix>3d</fix>
</trkpt>
<trkpt lat="33.8100298" lon="-118.3938903">
  <ele>-24.934</ele>
  <time>2026-09-02T22:07:54Z</time>
  <course>182.28</course>
  <speed>0.7410802925459562</speed>
  <fix>3d</fix>
</trkpt>
<trkpt lat="33.8100304" lon="-118.3938901">
  <ele>-24.32</ele>
  <time>2026-09-02T22:07:54Z</time>
  <course>182.33</course>
  <speed>0.77</speed>
  <fix>3d</fix>
</trkpt>
<trkpt lat="33.8100291" lon="-118.3938903">
  <ele>-24.953</ele>
  <time>2026-09-02T22:07:54Z</time>
  <course>182.28</course>
  <speed>0.7410802925459562</speed>
  <fix>3d</fix>
</trkpt>
<trkpt lat="33.8100304" lon="-118.3938901">
  <ele>-24.32</ele>
  <time>2026-09-02T22:07:54Z</time>
  <course>182.33</course>
  <speed>0.77</speed>
  <fix>3d</fix>
</trkpt>
<trkpt lat="33.8100284" lon="-118.3938904">
  <ele>-24.972</ele>
  <time>2026-09-02T22:07:54Z</time>
  <course>182.28</course>
  <speed>0.7510659092250159</speed>
  <fix>3d</fix>
</trkpt>
<trkpt lat="33.810029" lon="-118.3938902">
  <ele>-24.34</ele>
  <time>2026-09-02T22:07:54Z</time>
  <course>182.33</course>
  <speed>0.77</speed>
  <fix>3d</fix>
</trkpt>
<trkpt lat="33.8100277" lon="-118.3938904">
  <ele>-24.989</ele>
  <time>2026-09-02T22:07:54Z</time>
  <course>182.28</course>
  <speed>0.7510659092250159</speed>
  <fix>3d</fix>
</trkpt>
<trkpt lat="33.810029" lon="-118.3938902">
  <ele>-24.34</ele>
  <time>2026-09-02T22:07:54Z</time>
  <course>182.33</course>
  <speed>0.77</speed>
  <fix>3d</fix>
</trkpt>
<trkpt lat="33.810027" lon="-118.3938904">
  <ele>-25.004</ele>
  <time>2026-09-02T22:07:54Z</time>
  <course>182.28</course>
  <speed>0.7510659092250159</speed>
  <fix>3d</fix>
</trkpt>
<trkpt lat="33.8100277" lon="-118.3938903">
  <ele>-24.37</ele>
  <time>2026-09-02T22:07:54Z</time>
  <course>182.32</course>
  <speed>0.77</speed>
  <fix>3d</fix>
</trkpt>
<trkpt lat="33.8100263" lon="-118.3938905">
  <ele>-25.019</ele>
  <time>2026-09-02T22:07:54Z</time>
  <course>182.28</course>
  <speed>0.7510659092250159</speed>
  <fix>3d</fix>
</trkpt>
<trkpt lat="33.8100277" lon="-118.3938903">
  <ele>-24.37</ele>
  <time>2026-09-02T22:07:54Z</time>
  <course>182.32</course>
  <speed>0.77</speed>
  <fix>3d</fix>
</trkpt>
<trkpt lat="33.8100257" lon="-118.3938905">
  <ele>-25.032</ele>
  <time>2026-09-02T22:07:54Z</time>
  <course>182.28</course>
  <speed>0.7510659092250159</speed>
  <fix>3d</fix>
</trkpt>
<trkpt lat="33.8100262" lon="-118.3938903">
  <ele>-24.4</ele>
  <time>2026-09-02T22:07:54Z</time>
  <course>182.31</course>
  <speed>0.77</speed>
  <fix>3d</fix>
</trkpt>
<trkpt lat="33.810025" lon="-118.3938905">
  <ele>-25.045</ele>
  <time>2026-09-02T22:07:54Z</time>
  <course>182.28</course>
  <speed>0.7510659092250159</speed>
  <fix>3d</fix>
</trkpt>
<trkpt lat="33.8100262" lon="-118.3938903">
  <ele>-24.4</ele>
  <time>2026-09-02T22:07:54Z</time>
  <course>182.31</course>
  <speed>0.77</speed>
  <fix>3d</fix>
</trkpt>
<trkpt lat="33.8100243" lon="-118.3938906">
  <ele>-25.054</ele>
  <time>2026-09-02T22:07:54Z</time>
  <course>182.28</course>
  <speed>0.7510659092250159</speed>
  <fix>3d</fix>
</trkpt>
<trkpt lat="33.8100249" lon="-118.3938904">
  <ele>-24.42</ele>
  <time>2026-09-02T22:07:54Z</time>
  <course>182.31</course>
  <speed>0.77</speed>
  <fix>3d</fix>
</trkpt>
<trkpt lat="33.8100236" lon="-118.3938906">
  <ele>-25.062</ele>
  <time>2026-09-02T22:07:54Z</time>
  <course>182.28</course>
  <speed>0.7510659092250159</speed>
  <fix>3d</fix>
</trkpt>
<trkpt lat="33.8100249" lon="-118.3938904">
  <ele>-24.42</ele>
  <time>2026-09-02T22:07:54Z</time>
  <course>182.31</course>
  <speed>0.77</speed>
  <fix>3d</fix>
</trkpt>
<trkpt lat="33.8100229" lon="-118.3938906">
  <ele>-25.066</ele>
  <time>2026-09-02T22:07:54Z</time>
  <course>182.27</course>
  <speed>0.7510659092250159</speed>
  <fix>3d</fix>
</trkpt>
<trkpt lat="33.8100235" lon="-118.3938905">
  <ele>-24.43</ele>
  <time>2026-09-02T22:07:54Z</time>
  <course>182.3</course>
  <speed>0.77</speed>
  <fix>3d</fix>
</trkpt>
<trkpt lat="33.8100222" lon="-118.3938907">
  <ele>-25.069</ele>
  <time>2026-09-02T22:07:54Z</time>
  <course>182.27</course>
  <speed>0.7510659092250159</speed>
  <fix>3d</fix>
</trkpt>
<trkpt lat="33.8100235" lon="-118.3938905">
  <ele>-24.43</ele>
  <time>2026-09-02T22:07:54Z</time>
  <course>182.3</course>
  <speed>0.77</speed>
  <fix>3d</fix>
</trkpt>
<trkpt lat="33.8100215" lon="-118.3938907">
  <ele>-25.071</ele>
  <time>2026-09-02T22:07:54Z</time>
  <course>182.27</course>
  <speed>0.7510659092250159</speed>
  <fix>3d</fix>
</trkpt>
<trkpt lat="33.8100221" lon="-118.3938905">
  <ele>-24.44</ele>
  <time>2026-09-02T22:07:54Z</time>
  <course>182.29</course>
  <speed>0.77</speed>
  <fix>3d</fix>
</trkpt>
<trkpt lat="33.8100208" lon="-118.3938907">
  <ele>-25.068</ele>
  <time>2026-09-02T22:07:54Z</time>
  <course>182.27</course>
  <speed>0.7510659092250159</speed>
  <fix>3d</fix>
</trkpt>
<trkpt lat="33.8100221" lon="-118.3938905">
  <ele>-24.44</ele>
  <time>2026-09-02T22:07:54Z</time>
  <course>182.29</course>
  <speed>0.77</speed>
  <fix>3d</fix>
</trkpt>
<trkpt lat="33.8100201" lon="-118.3938908">
  <ele>-25.064</ele>
  <time>2026-09-02T22:07:54Z</time>
  <course>182.27</course>
  <speed>0.7510659092250159</speed>
  <fix>3d</fix>
</trkpt>
<trkpt lat="33.8100207" lon="-118.3938906">
  <ele>-24.45</ele>
  <time>2026-09-02T22:07:54Z</time>
  <course>182.28</course>
  <speed>0.77</speed>
  <fix>3d</fix>
</trkpt>
<trkpt lat="33.8100194" lon="-118.3938908">
  <ele>-25.056</ele>
  <time>2026-09-02T22:07:54Z</time>
  <course>182.27</course>
  <speed>0.7510659092250159</speed>
  <fix>3d</fix>
</trkpt>
<trkpt lat="33.8100207" lon="-118.3938906">
  <ele>-24.45</ele>
  <time>2026-09-02T22:07:54Z</time>
  <course>182.28</course>
  <speed>0.77</speed>
  <fix>3d</fix>
</trkpt>
<trkpt lat="33.8100187" lon="-118.3938908">
  <ele>-25.045</ele>
  <time>2026-09-02T22:07:54Z</time>
  <course>182.27</course>
  <speed>0.7510659092250159</speed>
  <fix>3d</fix>
</trkpt>
<trkpt lat="33.8100194" lon="-118.3938907">
  <ele>-24.44</ele>
  <time>2026-09-02T22:07:54Z</time>
  <course>182.27</course>
  <speed>0.77</speed>
  <fix>3d</fix>
</trkpt>
<trkpt lat="33.810018" lon="-118.3938909">
  <ele>-25.031</ele>
  <time>2026-09-02T22:07:54Z</time>
  <course>182.27</course>
  <speed>0.7410802925459562</speed>
  <fix>3d</fix>
</trkpt>
<trkpt lat="33.8100194" lon="-118.3938907">
  <ele>-24.44</ele>
  <time>2026-09-02T22:07:54Z</time>
  <course>182.27</course>
  <speed>0.77</speed>
  <fix>3d</fix>
</trkpt>
<trkpt lat="33.8100173" lon="-118.3938909">
  <ele>-25.015</ele>
  <time>2026-09-02T22:07:54Z</time>
  <course>182.27</course>
  <speed>0.7410802925459562</speed>
  <fix>3d</fix>
</trkpt>
<trkpt lat="33.810018" lon="-118.3938907">
  <ele>-24.42</ele>
  <time>2026-09-02T22:07:54Z</time>
  <course>182.26</course>
  <speed>0.77</speed>
  <fix>3d</fix>
</trkpt>
<trkpt lat="33.8100166" lon="-118.3938909">
  <ele>-24.999</ele>
  <time>2026-09-02T22:07:54Z</time>
  <course>182.26</course>
  <speed>0.7410802925459562</speed>
  <fix>3d</fix>
</trkpt>
<trkpt lat="33.810018" lon="-118.3938907">
  <ele>-24.42</ele>
  <time>2026-09-02T22:07:54Z</time>
  <course>182.26</course>
  <speed>0.77</speed>
  <fix>3d</fix>
</trkpt>
<trkpt lat="33.8100159" lon="-118.393891">
  <ele>-24.983</ele>
  <time>2026-09-02T22:07:54Z</time>
  <course>182.26</course>
  <speed>0.7410802925459562</speed>
  <fix>3d</fix>
</trkpt>
<trkpt lat="33.8100166" lon="-118.3938908">
  <ele>-24.4</ele>
  <time>2026-09-02T22:07:54Z</time>
  <course>182.25</course>
  <speed>0.77</speed>
  <fix>3d</fix>
</trkpt>
<trkpt lat="33.8100152" lon="-118.393891">
  <ele>-24.968</ele>
  <time>2026-09-02T22:07:54Z</time>
  <course>182.26</course>
  <speed>0.7410802925459562</speed>
  <fix>3d</fix>
</trkpt>
<trkpt lat="33.8100166" lon="-118.3938908">
  <ele>-24.4</ele>
  <time>2026-09-02T22:07:54Z</time>
  <course>182.25</course>
  <speed>0.77</speed>
  <fix>3d</fix>
</trkpt>
<trkpt lat="33.8100146" lon="-118.393891">
  <ele>-24.956</ele>
  <time>2026-09-02T22:07:54Z</time>
  <course>182.26</course>
  <speed>0.7410802925459562</speed>
  <fix>3d</fix>
</trkpt>
<trkpt lat="33.8100151" lon="-118.3938909">
  <ele>-24.37</ele>
  <time>2026-09-02T22:07:54Z</time>
  <course>182.25</course>
  <speed>0.77</speed>
  <fix>3d</fix>
</trkpt>
<trkpt lat="33.8100139" lon="-118.3938911">
  <ele>-24.946</ele>
  <time>2026-09-02T22:07:54Z</time>
  <course>182.26</course>
  <speed>0.7410802925459562</speed>
  <fix>3d</fix>
</trkpt>
<trkpt lat="33.8100151" lon="-118.3938909">
  <ele>-24.37</ele>
  <time>2026-09-02T22:07:54Z</time>
  <course>182.25</course>
  <speed>0.77</speed>
  <fix>3d</fix>
</trkpt>
<trkpt lat="33.8100132" lon="-118.3938911">
  <ele>-24.938</ele>
  <time>2026-09-02T22:07:54Z</time>
  <course>182.26</course>
  <speed>0.7410802925459562</speed>
  <fix>3d</fix>
</trkpt>
<trkpt lat="33.8100138" lon="-118.3938909">
  <ele>-24.35</ele>
  <time>2026-09-02T22:07:54Z</time>
  <course>182.24</course>
  <speed>0.77</speed>
  <fix>3d</fix>
</trkpt>
<trkpt lat="33.8100125" lon="-118.3938911">
  <ele>-24.931</ele>
  <time>2026-09-02T22:07:54Z</time>
  <course>182.26</course>
  <speed>0.7510659092250159</speed>
  <fix>3d</fix>
</trkpt>
<trkpt lat="33.8100138" lon="-118.3938909">
  <ele>-24.35</ele>
  <time>2026-09-02T22:07:54Z</time>
  <course>182.24</course>
  <speed>0.77</speed>
  <fix>3d</fix>
</trkpt>
<trkpt lat="33.8100118" lon="-118.3938911">
  <ele>-24.927</ele>
  <time>2026-09-02T22:07:54Z</time>
  <course>182.26</course>
  <speed>0.7510659092250159</speed>
  <fix>3d</fix>
</trkpt>
<trkpt lat="33.8100124" lon="-118.393891">
  <ele>-24.34</ele>
  <time>2026-09-02T22:07:54Z</time>
  <course>182.24</course>
  <speed>0.77</speed>
  <fix>3d</fix>
</trkpt>
<trkpt lat="33.8100111" lon="-118.3938912">
  <ele>-24.926</ele>
  <time>2026-09-02T22:07:54Z</time>
  <course>182.26</course>
  <speed>0.7510659092250159</speed>
  <fix>3d</fix>
</trkpt>
<trkpt lat="33.8100124" lon="-118.393891">
  <ele>-24.34</ele>
  <time>2026-09-02T22:07:54Z</time>
  <course>182.24</course>
  <speed>0.77</speed>
  <fix>3d</fix>
</trkpt>
<trkpt lat="33.8100104" lon="-118.3938912">
  <ele>-24.926</ele>
  <time>2026-09-02T22:07:54Z</time>
  <course>182.26</course>
  <speed>0.7510659092250159</speed>
  <fix>3d</fix>
</trkpt>
<trkpt lat="33.810011" lon="-118.3938911">
  <ele>-24.33</ele>
  <time>2026-09-02T22:07:54Z</time>
  <course>182.24</course>
  <speed>0.77</speed>
  <fix>3d</fix>
</trkpt>
<trkpt lat="33.8100097" lon="-118.3938912">
  <ele>-24.927</ele>
  <time>2026-09-02T22:07:54Z</time>
  <course>182.26</course>
  <speed>0.7510659092250159</speed>
  <fix>3d</fix>
</trkpt>
<trkpt lat="33.810011" lon="-118.3938911">
  <ele>-24.33</ele>
  <time>2026-09-02T22:07:54Z</time>
  <course>182.24</course>
  <speed>0.77</speed>
  <fix>3d</fix>
</trkpt>
<trkpt lat="33.810009" lon="-118.3938913">
  <ele>-24.927</ele>
  <time>2026-09-02T22:07:54Z</time>
  <course>182.26</course>
  <speed>0.7510659092250159</speed>
  <fix>3d</fix>
</trkpt>
<trkpt lat="33.8100096" lon="-118.3938911">
  <ele>-24.33</ele>
  <time>2026-09-02T22:07:54Z</time>
  <course>182.24</course>
  <speed>0.77</speed>
  <fix>3d</fix>
</trkpt>
<trkpt lat="33.8100083" lon="-118.3938913">
  <ele>-24.928</ele>
  <time>2026-09-02T22:07:54Z</time>
  <course>182.26</course>
  <speed>0.7510659092250159</speed>
  <fix>3d</fix>
</trkpt>
<trkpt lat="33.8100096" lon="-118.3938911">
  <ele>-24.33</ele>
  <time>2026-09-02T22:07:54Z</time>
  <course>182.24</course>
  <speed>0.77</speed>
  <fix>3d</fix>
</trkpt>
<trkpt lat="33.8100076" lon="-118.3938913">
  <ele>-24.93</ele>
  <time>2026-09-02T22:07:54Z</time>
  <course>182.26</course>
  <speed>0.7510659092250159</speed>
  <fix>3d</fix>
</trkpt>
<trkpt lat="33.8100082" lon="-118.3938912">
  <ele>-24.33</ele>
  <time>2026-09-02T22:07:54Z</time>
  <course>182.23</course>
  <speed>0.77</speed>
  <fix>3d</fix>
</trkpt>
<trkpt lat="33.8100069" lon="-118.3938914">
  <ele>-24.934</ele>
  <time>2026-09-02T22:07:54Z</time>
  <course>182.25</course>
  <speed>0.7510659092250159</speed>
  <fix>3d</fix>
</trkpt>
<trkpt lat="33.8100082" lon="-118.3938912">
  <ele>-24.33</ele>
  <time>2026-09-02T22:07:54Z</time>
  <course>182.23</course>
  <speed>0.77</speed>
  <fix>3d</fix>
</trkpt>
<trkpt lat="33.8100062" lon="-118.3938914">
  <ele>-24.94</ele>
  <time>2026-09-02T22:07:54Z</time>
  <course>182.25</course>
  <speed>0.7510659092250159</speed>
  <fix>3d</fix>
</trkpt>
<trkpt lat="33.8100067" lon="-118.3938913">
  <ele>-24.34</ele>
  <time>2026-09-02T22:07:54Z</time>
  <course>182.23</course>
  <speed>0.77</speed>
  <fix>3d</fix>
</trkpt>
<trkpt lat="33.8100055" lon="-118.3938914">
  <ele>-24.949</ele>
  <time>2026-09-02T22:07:54Z</time>
  <course>182.25</course>
  <speed>0.7510659092250159</speed>
  <fix>3d</fix>
</trkpt>
<trkpt lat="33.8100067" lon="-118.3938913">
  <ele>-24.34</ele>
  <time>2026-09-02T22:07:54Z</time>
  <course>182.23</course>
  <speed>0.77</speed>
  <fix>3d</fix>
</trkpt>
<trkpt lat="33.8100048" lon="-118.3938915">
  <ele>-24.958</ele>
  <time>2026-09-02T22:07:54Z</time>
  <course>182.25</course>
  <speed>0.7510659092250159</speed>
  <fix>3d</fix>
</trkpt>
<trkpt lat="33.8100054" lon="-118.3938913">
  <ele>-24.35</ele>
  <time>2026-09-02T22:07:54Z</time>
  <course>182.23</course>
  <speed>0.77</speed>
  <fix>3d</fix>
</trkpt>
<trkpt lat="33.8100041" lon="-118.3938915">
  <ele>-24.97</ele>
  <time>2026-09-02T22:07:55Z</time>
  <course>182.25</course>
  <speed>0.7510659092250159</speed>
  <fix>3d</fix>
</trkpt>
<trkpt lat="33.8100054" lon="-118.3938913">
  <ele>-24.35</ele>
  <time>2026-09-02T22:07:55Z</time>
  <course>182.23</course>
  <speed>0.77</speed>
  <fix>3d</fix>
</trkpt>
<trkpt lat="33.8100034" lon="-118.3938915">
  <ele>-24.984</ele>
  <time>2026-09-02T22:07:55Z</time>
  <course>182.25</course>
  <speed>0.7510659092250159</speed>
  <fix>3d</fix>
</trkpt>
<trkpt lat="33.8100041" lon="-118.3938914">
  <ele>-24.37</ele>
  <time>2026-09-02T22:07:55Z</time>
  <course>182.23</course>
  <speed>0.77</speed>
  <fix>3d</fix>
</trkpt>
<trkpt lat="33.8100027" lon="-118.3938916">
  <ele>-25.0</ele>
  <time>2026-09-02T22:07:55Z</time>
  <course>182.25</course>
  <speed>0.7510659092250159</speed>
  <fix>3d</fix>
</trkpt>
<trkpt lat="33.8100041" lon="-118.3938914">
  <ele>-24.37</ele>
  <time>2026-09-02T22:07:55Z</time>
  <course>182.23</course>
  <speed>0.77</speed>
  <fix>3d</fix>
</trkpt>
<trkpt lat="33.810002" lon="-118.3938916">
  <ele>-25.014</ele>
  <time>2026-09-02T22:07:55Z</time>
  <course>182.25</course>
  <speed>0.7510659092250159</speed>
  <fix>3d</fix>
</trkpt>
<trkpt lat="33.8100027" lon="-118.3938915">
  <ele>-24.4</ele>
  <time>2026-09-02T22:07:55Z</time>
  <course>182.22</course>
  <speed>0.77</speed>
  <fix>3d</fix>
</trkpt>
<trkpt lat="33.8100013" lon="-118.3938916">
  <ele>-25.027</ele>
  <time>2026-09-02T22:07:55Z</time>
  <course>182.25</course>
  <speed>0.7510659092250159</speed>
  <fix>3d</fix>
</trkpt>
<trkpt lat="33.8100027" lon="-118.3938915">
  <ele>-24.4</ele>
  <time>2026-09-02T22:07:55Z</time>
  <course>182.22</course>
  <speed>0.77</speed>
  <fix>3d</fix>
</trkpt>
<trkpt lat="33.8100006" lon="-118.3938917">
  <ele>-25.039</ele>
  <time>2026-09-02T22:07:55Z</time>
  <course>182.25</course>
  <speed>0.7510659092250159</speed>
  <fix>3d</fix>
</trkpt>
<trkpt lat="33.8100012" lon="-118.3938915">
  <ele>-24.43</ele>
  <time>2026-09-02T22:07:55Z</time>
  <course>182.22</course>
  <speed>0.77</speed>
  <fix>3d</fix>
</trkpt>
<trkpt lat="33.8099999" lon="-118.3938917">
  <ele>-25.049</ele>
  <time>2026-09-02T22:07:55Z</time>
  <course>182.25</course>
  <speed>0.7510659092250159</speed>
  <fix>3d</fix>
</trkpt>
<trkpt lat="33.8100012" lon="-118.3938915">
  <ele>-24.43</ele>
  <time>2026-09-02T22:07:55Z</time>
  <course>182.22</course>
  <speed>0.77</speed>
  <fix>3d</fix>
</trkpt>
<trkpt lat="33.8099992" lon="-118.3938917">
  <ele>-25.057</ele>
  <time>2026-09-02T22:07:55Z</time>
  <course>182.24</course>
  <speed>0.7510659092250159</speed>
  <fix>3d</fix>
</trkpt>
<trkpt lat="33.8099998" lon="-118.3938916">
  <ele>-24.45</ele>
  <time>2026-09-02T22:07:55Z</time>
  <course>182.21</course>
  <speed>0.77</speed>
  <fix>3d</fix>
</trkpt>
<trkpt lat="33.8099985" lon="-118.3938918">
  <ele>-25.064</ele>
  <time>2026-09-02T22:07:55Z</time>
  <course>182.24</course>
  <speed>0.7510659092250159</speed>
  <fix>3d</fix>
</trkpt>
<trkpt lat="33.8099998" lon="-118.3938916">
  <ele>-24.45</ele>
  <time>2026-09-02T22:07:55Z</time>
  <course>182.21</course>
  <speed>0.77</speed>
  <fix>3d</fix>
</trkpt>
<trkpt lat="33.8099978" lon="-118.3938918">
  <ele>-25.069</ele>
  <time>2026-09-02T22:07:55Z</time>
  <course>182.24</course>
  <speed>0.7510659092250159</speed>
  <fix>3d</fix>
</trkpt>
<trkpt lat="33.8099985" lon="-118.3938917">
  <ele>-24.46</ele>
  <time>2026-09-02T22:07:55Z</time>
  <course>182.21</course>
  <speed>0.77</speed>
  <fix>3d</fix>
</trkpt>
<trkpt lat="33.8099971" lon="-118.3938918">
  <ele>-25.071</ele>
  <time>2026-09-02T22:07:55Z</time>
  <course>182.24</course>
  <speed>0.7510659092250159</speed>
  <fix>3d</fix>
</trkpt>
<trkpt lat="33.8099985" lon="-118.3938917">
  <ele>-24.46</ele>
  <time>2026-09-02T22:07:55Z</time>
  <course>182.21</course>
  <speed>0.77</speed>
  <fix>3d</fix>
</trkpt>
<trkpt lat="33.8099964" lon="-118.3938919">
  <ele>-25.071</ele>
  <time>2026-09-02T22:07:55Z</time>
  <course>182.24</course>
  <speed>0.7510659092250159</speed>
  <fix>3d</fix>
</trkpt>
<trkpt lat="33.809997" lon="-118.3938917">
  <ele>-24.47</ele>
  <time>2026-09-02T22:07:55Z</time>
  <course>182.2</course>
  <speed>0.77</speed>
  <fix>3d</fix>
</trkpt>
<trkpt lat="33.8099957" lon="-118.3938919">
  <ele>-25.067</ele>
  <time>2026-09-02T22:07:55Z</time>
  <course>182.24</course>
  <speed>0.7510659092250159</speed>
  <fix>3d</fix>
</trkpt>
<trkpt lat="33.809997" lon="-118.3938917">
  <ele>-24.47</ele>
  <time>2026-09-02T22:07:55Z</time>
  <course>182.2</course>
  <speed>0.77</speed>
  <fix>3d</fix>
</trkpt>
<trkpt lat="33.809995" lon="-118.3938919">
  <ele>-25.062</ele>
  <time>2026-09-02T22:07:55Z</time>
  <course>182.24</course>
  <speed>0.7510659092250159</speed>
  <fix>3d</fix>
</trkpt>
<trkpt lat="33.8099957" lon="-118.3938918">
  <ele>-24.46</ele>
  <time>2026-09-02T22:07:55Z</time>
  <course>182.19</course>
  <speed>0.77</speed>
  <fix>3d</fix>
</trkpt>
<trkpt lat="33.8099943" lon="-118.393892">
  <ele>-25.058</ele>
  <time>2026-09-02T22:07:55Z</time>
  <course>182.24</course>
  <speed>0.7510659092250159</speed>
  <fix>3d</fix>
</trkpt>
<trkpt lat="33.8099957" lon="-118.3938918">
  <ele>-24.46</ele>
  <time>2026-09-02T22:07:55Z</time>
  <course>182.19</course>
  <speed>0.77</speed>
  <fix>3d</fix>
</trkpt>
<trkpt lat="33.8099936" lon="-118.393892">
  <ele>-25.053</ele>
  <time>2026-09-02T22:07:55Z</time>
  <course>182.24</course>
  <speed>0.7510659092250159</speed>
  <fix>3d</fix>
</trkpt>
<trkpt lat="33.8099943" lon="-118.3938919">
  <ele>-24.45</ele>
  <time>2026-09-02T22:07:55Z</time>
  <course>182.18</course>
  <speed>0.77</speed>
  <fix>3d</fix>
</trkpt>
<trkpt lat="33.8099929" lon="-118.393892">
  <ele>-25.048</ele>
  <time>2026-09-02T22:07:55Z</time>
  <course>182.24</course>
  <speed>0.7510659092250159</speed>
  <fix>3d</fix>
</trkpt>
<trkpt lat="33.8099943" lon="-118.3938919">
  <ele>-24.45</ele>
  <time>2026-09-02T22:07:55Z</time>
  <course>182.18</course>
  <speed>0.77</speed>
  <fix>3d</fix>
</trkpt>
<trkpt lat="33.8099922" lon="-118.3938921">
  <ele>-25.042</ele>
  <time>2026-09-02T22:07:55Z</time>
  <course>182.24</course>
  <speed>0.7510659092250159</speed>
  <fix>3d</fix>
</trkpt>
<trkpt lat="33.8099929" lon="-118.3938919">
  <ele>-24.44</ele>
  <time>2026-09-02T22:07:55Z</time>
  <course>182.18</course>
  <speed>0.77</speed>
  <fix>3d</fix>
</trkpt>
<trkpt lat="33.8099915" lon="-118.3938921">
  <ele>-25.036</ele>
  <time>2026-09-02T22:07:55Z</time>
  <course>182.24</course>
  <speed>0.7510659092250159</speed>
  <fix>3d</fix>
</trkpt>
<trkpt lat="33.8099929" lon="-118.3938919">
  <ele>-24.44</ele>
  <time>2026-09-02T22:07:55Z</time>
  <course>182.18</course>
  <speed>0.77</speed>
  <fix>3d</fix>
</trkpt>
<trkpt lat="33.8099908" lon="-118.3938921">
  <ele>-25.028</ele>
  <time>2026-09-02T22:07:55Z</time>
  <course>182.24</course>
  <speed>0.7510659092250159</speed>
  <fix>3d</fix>
</trkpt>
<trkpt lat="33.8099915" lon="-118.393892">
  <ele>-24.43</ele>
  <time>2026-09-02T22:07:55Z</time>
  <course>182.17</course>
  <speed>0.77</speed>
  <fix>3d</fix>
</trkpt>
<trkpt lat="33.8099901" lon="-118.3938922">
  <ele>-25.021</ele>
  <time>2026-09-02T22:07:55Z</time>
  <course>182.24</course>
  <speed>0.7510659092250159</speed>
  <fix>3d</fix>
</trkpt>
<trkpt lat="33.8099915" lon="-118.393892">
  <ele>-24.43</ele>
  <time>2026-09-02T22:07:55Z</time>
  <course>182.17</course>
  <speed>0.77</speed>
  <fix>3d</fix>
</trkpt>
<trkpt lat="33.8099895" lon="-118.3938922">
  <ele>-25.013</ele>
  <time>2026-09-02T22:07:55Z</time>
  <course>182.24</course>
  <speed>0.7510659092250159</speed>
  <fix>3d</fix>
</trkpt>
<trkpt lat="33.8099902" lon="-118.393892">
  <ele>-24.42</ele>
  <time>2026-09-02T22:07:55Z</time>
  <course>182.17</course>
  <speed>0.77</speed>
  <fix>3d</fix>
</trkpt>
<trkpt lat="33.8099888" lon="-118.3938922">
  <ele>-25.006</ele>
  <time>2026-09-02T22:07:55Z</time>
  <course>182.24</course>
  <speed>0.7510659092250159</speed>
  <fix>3d</fix>
</trkpt>
<trkpt lat="33.8099902" lon="-118.393892">
  <ele>-24.42</ele>
  <time>2026-09-02T22:07:55Z</time>
  <course>182.17</course>
  <speed>0.77</speed>
  <fix>3d</fix>
</trkpt>
<trkpt lat="33.8099881" lon="-118.3938923">
  <ele>-24.999</ele>
  <time>2026-09-02T22:07:55Z</time>
  <course>182.24</course>
  <speed>0.7510659092250159</speed>
  <fix>3d</fix>
</trkpt>
<trkpt lat="33.8099888" lon="-118.3938921">
  <ele>-24.4</ele>
  <time>2026-09-02T22:07:55Z</time>
  <course>182.16</course>
  <speed>0.77</speed>
  <fix>3d</fix>
</trkpt>
<trkpt lat="33.8099874" lon="-118.3938923">
  <ele>-24.995</ele>
  <time>2026-09-02T22:07:55Z</time>
  <course>182.24</course>
  <speed>0.7510659092250159</speed>
  <fix>3d</fix>
</trkpt>
<trkpt lat="33.8099888" lon="-118.3938921">
  <ele>-24.4</ele>
  <time>2026-09-02T22:07:55Z</time>
  <course>182.16</course>
  <speed>0.77</speed>
  <fix>3d</fix>
</trkpt>
<trkpt lat="33.8099867" lon="-118.3938923">
  <ele>-24.992</ele>
  <time>2026-09-02T22:07:55Z</time>
  <course>182.23</course>
  <speed>0.7510659092250159</speed>
  <fix>3d</fix>
</trkpt>
<trkpt lat="33.8099874" lon="-118.3938922">
  <ele>-24.39</ele>
  <time>2026-09-02T22:07:55Z</time>
  <course>182.16</course>
  <speed>0.77</speed>
  <fix>3d</fix>
</trkpt>
<trkpt lat="33.809986" lon="-118.3938924">
  <ele>-24.992</ele>
  <time>2026-09-02T22:07:55Z</time>
  <course>182.24</course>
  <speed>0.7510659092250159</speed>
  <fix>3d</fix>
</trkpt>
<trkpt lat="33.8099874" lon="-118.3938922">
  <ele>-24.39</ele>
  <time>2026-09-02T22:07:55Z</time>
  <course>182.16</course>
  <speed>0.77</speed>
  <fix>3d</fix>
</trkpt>
<trkpt lat="33.8099853" lon="-118.3938924">
  <ele>-24.992</ele>
  <time>2026-09-02T22:07:55Z</time>
  <course>182.23</course>
  <speed>0.7510659092250159</speed>
  <fix>3d</fix>
</trkpt>
<trkpt lat="33.8099859" lon="-118.3938922">
  <ele>-24.39</ele>
  <time>2026-09-02T22:07:55Z</time>
  <course>182.16</course>
  <speed>0.77</speed>
  <fix>3d</fix>
</trkpt>
<trkpt lat="33.8099846" lon="-118.3938924">
  <ele>-24.994</ele>
  <time>2026-09-02T22:07:55Z</time>
  <course>182.23</course>
  <speed>0.7510659092250159</speed>
  <fix>3d</fix>
</trkpt>
<trkpt lat="33.8099859" lon="-118.3938922">
  <ele>-24.39</ele>
  <time>2026-09-02T22:07:55Z</time>
  <course>182.16</course>
  <speed>0.77</speed>
  <fix>3d</fix>
</trkpt>
<trkpt lat="33.8099839" lon="-118.3938925">
  <ele>-24.996</ele>
  <time>2026-09-02T22:07:55Z</time>
  <course>182.23</course>
  <speed>0.7510659092250159</speed>
  <fix>3d</fix>
</trkpt>
<trkpt lat="33.8099846" lon="-118.3938923">
  <ele>-24.39</ele>
  <time>2026-09-02T22:07:55Z</time>
  <course>182.16</course>
  <speed>0.77</speed>
  <fix>3d</fix>
</trkpt>
<trkpt lat="33.8099832" lon="-118.3938925">
  <ele>-24.998</ele>
  <time>2026-09-02T22:07:55Z</time>
  <course>182.23</course>
  <speed>0.7510659092250159</speed>
  <fix>3d</fix>
</trkpt>
<trkpt lat="33.8099846" lon="-118.3938923">
  <ele>-24.39</ele>
  <time>2026-09-02T22:07:55Z</time>
  <course>182.16</course>
  <speed>0.77</speed>
  <fix>3d</fix>
</trkpt>
<trkpt lat="33.8099825" lon="-118.3938925">
  <ele>-25.0</ele>
  <time>2026-09-02T22:07:55Z</time>
  <course>182.23</course>
  <speed>0.7510659092250159</speed>
  <fix>3d</fix>
</trkpt>
<trkpt lat="33.8099832" lon="-118.3938924">
  <ele>-24.39</ele>
  <time>2026-09-02T22:07:55Z</time>
  <course>182.15</course>
  <speed>0.77</speed>
  <fix>3d</fix>
</trkpt>
<trkpt lat="33.8099818" lon="-118.3938925">
  <ele>-25.001</ele>
  <time>2026-09-02T22:07:55Z</time>
  <course>182.23</course>
  <speed>0.7510659092250159</speed>
  <fix>3d</fix>
</trkpt>
<trkpt lat="33.8099832" lon="-118.3938924">
  <ele>-24.39</ele>
  <time>2026-09-02T22:07:55Z</time>
  <course>182.15</course>
  <speed>0.77</speed>
  <fix>3d</fix>
</trkpt>
<trkpt lat="33.8099811" lon="-118.3938926">
  <ele>-25.0</ele>
  <time>2026-09-02T22:07:55Z</time>
  <course>182.23</course>
  <speed>0.7510659092250159</speed>
  <fix>3d</fix>
</trkpt>
<trkpt lat="33.8099818" lon="-118.3938924">
  <ele>-24.39</ele>
  <time>2026-09-02T22:07:55Z</time>
  <course>182.15</course>
  <speed>0.77</speed>
  <fix>3d</fix>
</trkpt>
<trkpt lat="33.8099804" lon="-118.3938926">
  <ele>-25.0</ele>
  <time>2026-09-02T22:07:55Z</time>
  <course>182.23</course>
  <speed>0.7510659092250159</speed>
  <fix>3d</fix>
</trkpt>
<trkpt lat="33.8099818" lon="-118.3938924">
  <ele>-24.39</ele>
  <time>2026-09-02T22:07:55Z</time>
  <course>182.15</course>
  <speed>0.77</speed>
  <fix>3d</fix>
</trkpt>
<trkpt lat="33.8099797" lon="-118.3938926">
  <ele>-24.999</ele>
  <time>2026-09-02T22:07:55Z</time>
  <course>182.23</course>
  <speed>0.7510659092250159</speed>
  <fix>3d</fix>
</trkpt>
<trkpt lat="33.8099804" lon="-118.3938925">
  <ele>-24.39</ele>
  <time>2026-09-02T22:07:55Z</time>
  <course>182.15</course>
  <speed>0.77</speed>
  <fix>3d</fix>
</trkpt>
<trkpt lat="33.809979" lon="-118.3938927">
  <ele>-24.998</ele>
  <time>2026-09-02T22:07:55Z</time>
  <course>182.23</course>
  <speed>0.7510659092250159</speed>
  <fix>3d</fix>
</trkpt>
<trkpt lat="33.8099804" lon="-118.3938925">
  <ele>-24.39</ele>
  <time>2026-09-02T22:07:55Z</time>
  <course>182.15</course>
  <speed>0.77</speed>
  <fix>3d</fix>
</trkpt>
<trkpt lat="33.8099783" lon="-118.3938927">
  <ele>-24.998</ele>
  <time>2026-09-02T22:07:55Z</time>
  <course>182.23</course>
  <speed>0.7510659092250159</speed>
  <fix>3d</fix>
</trkpt>
<trkpt lat="33.809979" lon="-118.3938926">
  <ele>-24.39</ele>
  <time>2026-09-02T22:07:55Z</time>
  <course>182.14</course>
  <speed>0.77</speed>
  <fix>3d</fix>
</trkpt>
<trkpt lat="33.8099776" lon="-118.3938927">
  <ele>-24.999</ele>
  <time>2026-09-02T22:07:55Z</time>
  <course>182.23</course>
  <speed>0.7510659092250159</speed>
  <fix>3d</fix>
</trkpt>
<trkpt lat="33.809979" lon="-118.3938926">
  <ele>-24.39</ele>
  <time>2026-09-02T22:07:55Z</time>
  <course>182.14</course>
  <speed>0.77</speed>
  <fix>3d</fix>
</trkpt>
<trkpt lat="33.8099769" lon="-118.3938928">
  <ele>-25.001</ele>
  <time>2026-09-02T22:07:55Z</time>
  <course>182.23</course>
  <speed>0.7510659092250159</speed>
  <fix>3d</fix>
</trkpt>
<trkpt lat="33.8099775" lon="-118.3938926">
  <ele>-24.39</ele>
  <time>2026-09-02T22:07:55Z</time>
  <course>182.14</course>
  <speed>0.77</speed>
  <fix>3d</fix>
</trkpt>
<trkpt lat="33.8099762" lon="-118.3938928">
  <ele>-25.008</ele>
  <time>2026-09-02T22:07:55Z</time>
  <course>182.23</course>
  <speed>0.7510659092250159</speed>
  <fix>3d</fix>
</trkpt>
<trkpt lat="33.8099775" lon="-118.3938926">
  <ele>-24.39</ele>
  <time>2026-09-02T22:07:55Z</time>
  <course>182.14</course>
  <speed>0.77</speed>
  <fix>3d</fix>
</trkpt>
<trkpt lat="33.8099755" lon="-118.3938928">
  <ele>-25.016</ele>
  <time>2026-09-02T22:07:55Z</time>
  <course>182.23</course>
  <speed>0.7510659092250159</speed>
  <fix>3d</fix>
</trkpt>
<trkpt lat="33.8099762" lon="-118.3938927">
  <ele>-24.4</ele>
  <time>2026-09-02T22:07:55Z</time>
  <course>182.14</course>
  <speed>0.77</speed>
  <fix>3d</fix>
</trkpt>
<trkpt lat="33.8099748" lon="-118.3938929">
  <ele>-25.025</ele>
  <time>2026-09-02T22:07:55Z</time>
  <course>182.23</course>
  <speed>0.7510659092250159</speed>
  <fix>3d</fix>
</trkpt>
<trkpt lat="33.8099762" lon="-118.3938927">
  <ele>-24.4</ele>
  <time>2026-09-02T22:07:55Z</time>
  <course>182.14</course>
  <speed>0.77</speed>
  <fix>3d</fix>
</trkpt>
<trkpt lat="33.8099741" lon="-118.3938929">
  <ele>-25.032</ele>
  <time>2026-09-02T22:07:55Z</time>
  <course>182.22</course>
  <speed>0.7510659092250159</speed>
  <fix>3d</fix>
</trkpt>
<trkpt lat="33.8099749" lon="-118.3938927">
  <ele>-24.42</ele>
  <time>2026-09-02T22:07:55Z</time>
  <course>182.14</course>
  <speed>0.77</speed>
  <fix>3d</fix>
</trkpt>
<trkpt lat="33.8099734" lon="-118.3938929">
  <ele>-25.039</ele>
  <time>2026-09-02T22:07:55Z</time>
  <course>182.22</course>
  <speed>0.7510659092250159</speed>
  <fix>3d</fix>
</trkpt>
<trkpt lat="33.8099749" lon="-118.3938927">
  <ele>-24.42</ele>
  <time>2026-09-02T22:07:55Z</time>
  <course>182.14</course>
  <speed>0.77</speed>
  <fix>3d</fix>
</trkpt>
<trkpt lat="33.8099728" lon="-118.393893">
  <ele>-25.045</ele>
  <time>2026-09-02T22:07:55Z</time>
  <course>182.23</course>
  <speed>0.7510659092250159</speed>
  <fix>3d</fix>
</trkpt>
<trkpt lat="33.8099735" lon="-118.3938928">
  <ele>-24.43</ele>
  <time>2026-09-02T22:07:55Z</time>
  <course>182.14</course>
  <speed>0.77</speed>
  <fix>3d</fix>
</trkpt>
<trkpt lat="33.8099721" lon="-118.393893">
  <ele>-25.051</ele>
  <time>2026-09-02T22:07:55Z</time>
  <course>182.22</course>
  <speed>0.7510659092250159</speed>
  <fix>3d</fix>
</trkpt>
<trkpt lat="33.8099735" lon="-118.3938928">
  <ele>-24.43</ele>
  <time>2026-09-02T22:07:55Z</time>
  <course>182.14</course>
  <speed>0.77</speed>
  <fix>3d</fix>
</trkpt>
<trkpt lat="33.8099714" lon="-118.393893">
  <ele>-25.056</ele>
  <time>2026-09-02T22:07:55Z</time>
  <course>182.22</course>
  <speed>0.7510659092250159</speed>
  <fix>3d</fix>
</trkpt>
<trkpt lat="33.809972" lon="-118.3938929">
  <ele>-24.44</ele>
  <time>2026-09-02T22:07:55Z</time>
  <course>182.13</course>
  <speed>0.77</speed>
  <fix>3d</fix>
</trkpt>
<trkpt lat="33.8099707" lon="-118.3938931">
  <ele>-25.06</ele>
  <time>2026-09-02T22:07:55Z</time>
  <course>182.22</course>
  <speed>0.7510659092250159</speed>
  <fix>3d</fix>
</trkpt>
<trkpt lat="33.809972" lon="-118.3938929">
  <ele>-24.44</ele>
  <time>2026-09-02T22:07:55Z</time>
  <course>182.13</course>
  <speed>0.77</speed>
  <fix>3d</fix>
</trkpt>
<trkpt lat="33.80997" lon="-118.3938931">
  <ele>-25.065</ele>
  <time>2026-09-02T22:07:55Z</time>
  <course>182.22</course>
  <speed>0.7510659092250159</speed>
  <fix>3d</fix>
</trkpt>
<trkpt lat="33.8099707" lon="-118.3938929">
  <ele>-24.45</ele>
  <time>2026-09-02T22:07:55Z</time>
  <course>182.13</course>
  <speed>0.77</speed>
  <fix>3d</fix>
</trkpt>
<trkpt lat="33.8099693" lon="-118.3938931">
  <ele>-25.07</ele>
  <time>2026-09-02T22:07:55Z</time>
  <course>182.22</course>
  <speed>0.7510659092250159</speed>
  <fix>3d</fix>
</trkpt>
<trkpt lat="33.8099707" lon="-118.3938929">
  <ele>-24.45</ele>
  <time>2026-09-02T22:07:55Z</time>
  <course>182.13</course>
  <speed>0.77</speed>
  <fix>3d</fix>
</trkpt>
<trkpt lat="33.8099686" lon="-118.3938931">
  <ele>-25.075</ele>
  <time>2026-09-02T22:07:55Z</time>
  <course>182.22</course>
  <speed>0.7510659092250159</speed>
  <fix>3d</fix>
</trkpt>
<trkpt lat="33.8099693" lon="-118.393893">
  <ele>-24.46</ele>
  <time>2026-09-02T22:07:55Z</time>
  <course>182.12</course>
  <speed>0.77</speed>
  <fix>3d</fix>
</trkpt>
<trkpt lat="33.8099679" lon="-118.3938932">
  <ele>-25.078</ele>
  <time>2026-09-02T22:07:55Z</time>
  <course>182.22</course>
  <speed>0.7510659092250159</speed>
  <fix>3d</fix>
</trkpt>
<trkpt lat="33.8099693" lon="-118.393893">
  <ele>-24.46</ele>
  <time>2026-09-02T22:07:55Z</time>
  <course>182.12</course>
  <speed>0.77</speed>
  <fix>3d</fix>
</trkpt>
<trkpt lat="33.8099672" lon="-118.3938932">
  <ele>-25.08</ele>
  <time>2026-09-02T22:07:55Z</time>
  <course>182.22</course>
  <speed>0.7510659092250159</speed>
  <fix>3d</fix>
</trkpt>
<trkpt lat="33.8099678" lon="-118.3938931">
  <ele>-24.47</ele>
  <time>2026-09-02T22:07:55Z</time>
  <course>182.11</course>
  <speed>0.77</speed>
  <fix>3d</fix>
</trkpt>
<trkpt lat="33.8099665" lon="-118.3938932">
  <ele>-25.082</ele>
  <time>2026-09-02T22:07:55Z</time>
  <course>182.22</course>
  <speed>0.7510659092250159</speed>
  <fix>3d</fix>
</trkpt>
<trkpt lat="33.8099678" lon="-118.3938931">
  <ele>-24.47</ele>
  <time>2026-09-02T22:07:55Z</time>
  <course>182.11</course>
  <speed>0.77</speed>
  <fix>3d</fix>
</trkpt>
<trkpt lat="33.8099658" lon="-118.3938933">
  <ele>-25.082</ele>
  <time>2026-09-02T22:07:55Z</time>
  <course>182.22</course>
  <speed>0.7510659092250159</speed>
  <fix>3d</fix>
</trkpt>
<trkpt lat="33.8099665" lon="-118.3938931">
  <ele>-24.48</ele>
  <time>2026-09-02T22:07:55Z</time>
  <course>182.11</course>
  <speed>0.77</speed>
  <fix>3d</fix>
</trkpt>
<trkpt lat="33.8099651" lon="-118.3938933">
  <ele>-25.079</ele>
  <time>2026-09-02T22:07:55Z</time>
  <course>182.22</course>
  <speed>0.7510659092250159</speed>
  <fix>3d</fix>
</trkpt>
<trkpt lat="33.8099665" lon="-118.3938931">
  <ele>-24.48</ele>
  <time>2026-09-02T22:07:55Z</time>
  <course>182.11</course>
  <speed>0.77</speed>
  <fix>3d</fix>
</trkpt>
<trkpt lat="33.8099644" lon="-118.3938933">
  <ele>-25.074</ele>
  <time>2026-09-02T22:07:55Z</time>
  <course>182.22</course>
  <speed>0.7510659092250159</speed>
  <fix>3d</fix>
</trkpt>
<trkpt lat="33.8099651" lon="-118.3938932">
  <ele>-24.48</ele>
  <time>2026-09-02T22:07:55Z</time>
  <course>182.1</course>
  <speed>0.77</speed>
  <fix>3d</fix>
</trkpt>
<trkpt lat="33.8099637" lon="-118.3938934">
  <ele>-25.069</ele>
  <time>2026-09-02T22:07:55Z</time>
  <course>182.22</course>
  <speed>0.7510659092250159</speed>
  <fix>3d</fix>
</trkpt>
<trkpt lat="33.8099651" lon="-118.3938932">
  <ele>-24.48</ele>
  <time>2026-09-02T22:07:55Z</time>
  <course>182.1</course>
  <speed>0.77</speed>
  <fix>3d</fix>
</trkpt>
<trkpt lat="33.809963" lon="-118.3938934">
  <ele>-25.064</ele>
  <time>2026-09-02T22:07:55Z</time>
  <course>182.22</course>
  <speed>0.7510659092250159</speed>
  <fix>3d</fix>
</trkpt>
<trkpt lat="33.8099637" lon="-118.3938932">
  <ele>-24.47</ele>
  <time>2026-09-02T22:07:55Z</time>
  <course>182.1</course>
  <speed>0.77</speed>
  <fix>3d</fix>
</trkpt>
<trkpt lat="33.8099623" lon="-118.3938934">
  <ele>-25.058</ele>
  <time>2026-09-02T22:07:55Z</time>
  <course>182.22</course>
  <speed>0.7510659092250159</speed>
  <fix>3d</fix>
</trkpt>
<trkpt lat="33.8099637" lon="-118.3938932">
  <ele>-24.47</ele>
  <time>2026-09-02T22:07:55Z</time>
  <course>182.1</course>
  <speed>0.77</speed>
  <fix>3d</fix>
</trkpt>
<trkpt lat="33.8099616" lon="-118.3938935">
  <ele>-25.051</ele>
  <time>2026-09-02T22:07:55Z</time>
  <course>182.22</course>
  <speed>0.7510659092250159</speed>
  <fix>3d</fix>
</trkpt>
<trkpt lat="33.8099623" lon="-118.3938933">
  <ele>-24.46</ele>
  <time>2026-09-02T22:07:55Z</time>
  <course>182.09</course>
  <speed>0.77</speed>
  <fix>3d</fix>
</trkpt>
<trkpt lat="33.8099609" lon="-118.3938935">
  <ele>-25.043</ele>
  <time>2026-09-02T22:07:55Z</time>
  <course>182.22</course>
  <speed>0.7510659092250159</speed>
  <fix>3d</fix>
</trkpt>
<trkpt lat="33.8099623" lon="-118.3938933">
  <ele>-24.46</ele>
  <time>2026-09-02T22:07:55Z</time>
  <course>182.09</course>
  <speed>0.77</speed>
  <fix>3d</fix>
</trkpt>
<trkpt lat="33.8099602" lon="-118.3938935">
  <ele>-25.035</ele>
  <time>2026-09-02T22:07:55Z</time>
  <course>182.22</course>
  <speed>0.7510659092250159</speed>
  <fix>3d</fix>
</trkpt>
<trkpt lat="33.809961" lon="-118.3938934">
  <ele>-24.45</ele>
  <time>2026-09-02T22:07:55Z</time>
  <course>182.09</course>
  <speed>0.77</speed>
  <fix>3d</fix>
</trkpt>
<trkpt lat="33.8099595" lon="-118.3938936">
  <ele>-25.029</ele>
  <time>2026-09-02T22:07:55Z</time>
  <course>182.21</course>
  <speed>0.7510659092250159</speed>
  <fix>3d</fix>
</trkpt>
<trkpt lat="33.809961" lon="-118.3938934">
  <ele>-24.45</ele>
  <time>2026-09-02T22:07:55Z</time>
  <course>182.09</course>
  <speed>0.77</speed>
  <fix>3d</fix>
</trkpt>
<trkpt lat="33.8099589" lon="-118.3938936">
  <ele>-25.022</ele>
  <time>2026-09-02T22:07:55Z</time>
  <course>182.22</course>
  <speed>0.7510659092250159</speed>
  <fix>3d</fix>
</trkpt>
<trkpt lat="33.8099596" lon="-118.3938934">
  <ele>-24.44</ele>
  <time>2026-09-02T22:07:55Z</time>
  <course>182.08</course>
  <speed>0.77</speed>
  <fix>3d</fix>
</trkpt>
<trkpt lat="33.8099582" lon="-118.3938936">
  <ele>-25.016</ele>
  <time>2026-09-02T22:07:55Z</time>
  <course>182.22</course>
  <speed>0.7510659092250159</speed>
  <fix>3d</fix>
</trkpt>
<trkpt lat="33.8099596" lon="-118.3938934">
  <ele>-24.44</ele>
  <time>2026-09-02T22:07:55Z</time>
  <course>182.08</course>
  <speed>0.77</speed>
  <fix>3d</fix>
</trkpt>
<trkpt lat="33.8099575" lon="-118.3938936">
  <ele>-25.01</ele>
  <time>2026-09-02T22:07:55Z</time>
  <course>182.22</course>
  <speed>0.7510659092250159</speed>
  <fix>3d</fix>
</trkpt>
<trkpt lat="33.8099581" lon="-118.3938935">
  <ele>-24.42</ele>
  <time>2026-09-02T22:07:55Z</time>
  <course>182.08</course>
  <speed>0.77</speed>
  <fix>3d</fix>
</trkpt>
<trkpt lat="33.8099568" lon="-118.3938937">
  <ele>-25.005</ele>
  <time>2026-09-02T22:07:55Z</time>
  <course>182.21</course>
  <speed>0.7510659092250159</speed>
  <fix>3d</fix>
</trkpt>
<trkpt lat="33.8099581" lon="-118.3938935">
  <ele>-24.42</ele>
  <time>2026-09-02T22:07:55Z</time>
  <course>182.08</course>
  <speed>0.77</speed>
  <fix>3d</fix>
</trkpt>
<trkpt lat="33.8099561" lon="-118.3938937">
  <ele>-25.001</ele>
  <time>2026-09-02T22:07:55Z</time>
  <course>182.21</course>
  <speed>0.7510659092250159</speed>
  <fix>3d</fix>
</trkpt>
<trkpt lat="33.8099567" lon="-118.3938935">
  <ele>-24.41</ele>
  <time>2026-09-02T22:07:55Z</time>
  <course>182.08</course>
  <speed>0.77</speed>
  <fix>3d</fix>
</trkpt>
<trkpt lat="33.8099554" lon="-118.3938937">
  <ele>-24.997</ele>
  <time>2026-09-02T22:07:55Z</time>
  <course>182.21</course>
  <speed>0.7510659092250159</speed>
  <fix>3d</fix>
</trkpt>
<trkpt lat="33.8099567" lon="-118.3938935">
  <ele>-24.41</ele>
  <time>2026-09-02T22:07:55Z</time>
  <course>182.08</course>
  <speed>0.77</speed>
  <fix>3d</fix>
</trkpt>
<trkpt lat="33.8099547" lon="-118.3938938">
  <ele>-24.994</ele>
  <time>2026-09-02T22:07:55Z</time>
  <course>182.21</course>
  <speed>0.7510659092250159</speed>
  <fix>3d</fix>
</trkpt>
<trkpt lat="33.8099554" lon="-118.3938936">
  <ele>-24.4</ele>
  <time>2026-09-02T22:07:55Z</time>
  <course>182.07</course>
  <speed>0.77</speed>
  <fix>3d</fix>
</trkpt>
<trkpt lat="33.809954" lon="-118.3938938">
  <ele>-24.992</ele>
  <time>2026-09-02T22:07:55Z</time>
  <course>182.21</course>
  <speed>0.7510659092250159</speed>
  <fix>3d</fix>
</trkpt>
<trkpt lat="33.8099554" lon="-118.3938936">
  <ele>-24.4</ele>
  <time>2026-09-02T22:07:55Z</time>
  <course>182.07</course>
  <speed>0.77</speed>
  <fix>3d</fix>
</trkpt>
<trkpt lat="33.8099533" lon="-118.3938938">
  <ele>-24.992</ele>
  <time>2026-09-02T22:07:55Z</time>
  <course>182.21</course>
  <speed>0.7510659092250159</speed>
  <fix>3d</fix>
</trkpt>
<trkpt lat="33.809954" lon="-118.3938937">
  <ele>-24.4</ele>
  <time>2026-09-02T22:07:55Z</time>
  <course>182.07</course>
  <speed>0.77</speed>
  <fix>3d</fix>
</trkpt>
<trkpt lat="33.8099526" lon="-118.3938939">
  <ele>-24.993</ele>
  <time>2026-09-02T22:07:55Z</time>
  <course>182.21</course>
  <speed>0.7510659092250159</speed>
  <fix>3d</fix>
</trkpt>
<trkpt lat="33.809954" lon="-118.3938937">
  <ele>-24.4</ele>
  <time>2026-09-02T22:07:55Z</time>
  <course>182.07</course>
  <speed>0.77</speed>
  <fix>3d</fix>
</trkpt>
<trkpt lat="33.8099519" lon="-118.3938939">
  <ele>-24.994</ele>
  <time>2026-09-02T22:07:55Z</time>
  <course>182.21</course>
  <speed>0.7510659092250159</speed>
  <fix>3d</fix>
</trkpt>
<trkpt lat="33.8099526" lon="-118.3938937">
  <ele>-24.4</ele>
  <time>2026-09-02T22:07:55Z</time>
  <course>182.07</course>
  <speed>0.77</speed>
  <fix>3d</fix>
</trkpt>
<trkpt lat="33.8099512" lon="-118.3938939">
  <ele>-24.997</ele>
  <time>2026-09-02T22:07:55Z</time>
  <course>182.21</course>
  <speed>0.7510659092250159</speed>
  <fix>3d</fix>
</trkpt>
<trkpt lat="33.8099526" lon="-118.3938937">
  <ele>-24.4</ele>
  <time>2026-09-02T22:07:55Z</time>
  <course>182.07</course>
  <speed>0.77</speed>
  <fix>3d</fix>
</trkpt>
<trkpt lat="33.8099505" lon="-118.3938939">
  <ele>-25.003</ele>
  <time>2026-09-02T22:07:55Z</time>
  <course>182.21</course>
  <speed>0.7510659092250159</speed>
  <fix>3d</fix>
</trkpt>
<trkpt lat="33.8099512" lon="-118.3938938">
  <ele>-24.4</ele>
  <time>2026-09-02T22:07:55Z</time>
  <course>182.08</course>
  <speed>0.77</speed>
  <fix>3d</fix>
</trkpt>
<trkpt lat="33.8099498" lon="-118.393894">
  <ele>-25.014</ele>
  <time>2026-09-02T22:07:55Z</time>
  <course>182.21</course>
  <speed>0.7510659092250159</speed>
  <fix>3d</fix>
</trkpt>
<trkpt lat="33.8099512" lon="-118.3938938">
  <ele>-24.4</ele>
  <time>2026-09-02T22:07:55Z</time>
  <course>182.08</course>
  <speed>0.77</speed>
  <fix>3d</fix>
</trkpt>
<trkpt lat="33.8099491" lon="-118.393894">
  <ele>-25.034</ele>
  <time>2026-09-02T22:07:55Z</time>
  <course>182.21</course>
  <speed>0.7510659092250159</speed>
  <fix>3d</fix>
</trkpt>
<trkpt lat="33.8099498" lon="-118.3938938">
  <ele>-24.41</ele>
  <time>2026-09-02T22:07:55Z</time>
  <course>182.08</course>
  <speed>0.77</speed>
  <fix>3d</fix>
</trkpt>
<trkpt lat="33.8099484" lon="-118.393894">
  <ele>-25.063</ele>
  <time>2026-09-02T22:07:55Z</time>
  <course>182.21</course>
  <speed>0.7510659092250159</speed>
  <fix>3d</fix>
</trkpt>
<trkpt lat="33.8099498" lon="-118.3938938">
  <ele>-24.41</ele>
  <time>2026-09-02T22:07:55Z</time>
  <course>182.08</course>
  <speed>0.77</speed>
  <fix>3d</fix>
</trkpt>
<trkpt lat="33.8099477" lon="-118.3938941">
  <ele>-25.101</ele>
  <time>2026-09-02T22:07:55Z</time>
  <course>182.21</course>
  <speed>0.7510659092250159</speed>
  <fix>3d</fix>
</trkpt>
<trkpt lat="33.8099484" lon="-118.3938939">
  <ele>-24.45</ele>
  <time>2026-09-02T22:07:55Z</time>
  <course>182.1</course>
  <speed>0.77</speed>
  <fix>3d</fix>
</trkpt>
<trkpt lat="33.809947" lon="-118.3938941">
  <ele>-25.149</ele>
  <time>2026-09-02T22:07:55Z</time>
  <course>182.21</course>
  <speed>0.7510659092250159</speed>
  <fix>3d</fix>
</trkpt>
<trkpt lat="33.8099484" lon="-118.3938939">
  <ele>-24.45</ele>
  <time>2026-09-02T22:07:55Z</time>
  <course>182.1</course>
  <speed>0.77</speed>
  <fix>3d</fix>
</trkpt>
<trkpt lat="33.8099463" lon="-118.3938941">
  <ele>-25.205</ele>
  <time>2026-09-02T22:07:55Z</time>
  <course>182.21</course>
  <speed>0.7510659092250159</speed>
  <fix>3d</fix>
</trkpt>
<trkpt lat="33.8099471" lon="-118.393894">
  <ele>-24.52</ele>
  <time>2026-09-02T22:07:55Z</time>
  <course>182.14</course>
  <speed>0.77</speed>
  <fix>3d</fix>
</trkpt>
<trkpt lat="33.8099456" lon="-118.3938942">
  <ele>-25.268</ele>
  <time>2026-09-02T22:07:55Z</time>
  <course>182.21</course>
  <speed>0.7510659092250159</speed>
  <fix>3d</fix>
</trkpt>
<trkpt lat="33.8099471" lon="-118.393894">
  <ele>-24.52</ele>
  <time>2026-09-02T22:07:55Z</time>
  <course>182.14</course>
  <speed>0.77</speed>
  <fix>3d</fix>
</trkpt>
<trkpt lat="33.8099449" lon="-118.3938942">
  <ele>-25.339</ele>
  <time>2026-09-02T22:07:55Z</time>
  <course>182.21</course>
  <speed>0.7510659092250159</speed>
  <fix>3d</fix>
</trkpt>
<trkpt lat="33.8099457" lon="-118.393894">
  <ele>-24.62</ele>
  <time>2026-09-02T22:07:55Z</time>
  <course>182.16</course>
  <speed>0.77</speed>
  <fix>3d</fix>
</trkpt>
<trkpt lat="33.8099443" lon="-118.3938942">
  <ele>-25.415</ele>
  <time>2026-09-02T22:07:55Z</time>
  <course>182.21</course>
  <speed>0.7410802925459562</speed>
  <fix>3d</fix>
</trkpt>
<trkpt lat="33.8099457" lon="-118.393894">
  <ele>-24.62</ele>
  <time>2026-09-02T22:07:55Z</time>
  <course>182.16</course>
  <speed>0.77</speed>
  <fix>3d</fix>
</trkpt>
<trkpt lat="33.8099436" lon="-118.3938942">
  <ele>-25.499</ele>
  <time>2026-09-02T22:07:55Z</time>
  <course>182.21</course>
  <speed>0.711125867902441</speed>
  <fix>3d</fix>
</trkpt>
<trkpt lat="33.8099443" lon="-118.3938941">
  <ele>-24.75</ele>
  <time>2026-09-02T22:07:55Z</time>
  <course>182.19</course>
  <speed>0.76</speed>
  <fix>3d</fix>
</trkpt>
<trkpt lat="33.8099429" lon="-118.3938943">
  <ele>-25.587</ele>
  <time>2026-09-02T22:07:55Z</time>
  <course>182.21</course>
  <speed>0.6911584478250989</speed>
  <fix>3d</fix>
</trkpt>
<trkpt lat="33.8099443" lon="-118.3938941">
  <ele>-24.75</ele>
  <time>2026-09-02T22:07:55Z</time>
  <course>182.19</course>
  <speed>0.76</speed>
  <fix>3d</fix>
</trkpt>
<trkpt lat="33.8099423" lon="-118.3938943">
  <ele>-25.678</ele>
  <time>2026-09-02T22:07:55Z</time>
  <course>182.21</course>
  <speed>0.6811754546370561</speed>
  <fix>3d</fix>
</trkpt>
<trkpt lat="33.8099429" lon="-118.3938942">
  <ele>-24.9</ele>
  <time>2026-09-02T22:07:55Z</time>
  <course>182.23</course>
  <speed>0.73</speed>
  <fix>3d</fix>
</trkpt>
<trkpt lat="33.8099417" lon="-118.3938943">
  <ele>-25.772</ele>
  <time>2026-09-02T22:07:55Z</time>
  <course>182.21</course>
  <speed>0.6711929677819934</speed>
  <fix>3d</fix>
</trkpt>
<trkpt lat="33.8099429" lon="-118.3938942">
  <ele>-24.9</ele>
  <time>2026-09-02T22:07:55Z</time>
  <course>182.23</course>
  <speed>0.73</speed>
  <fix>3d</fix>
</trkpt>
<trkpt lat="33.809941" lon="-118.3938944">
  <ele>-25.868</ele>
  <time>2026-09-02T22:07:55Z</time>
  <course>182.21</course>
  <speed>0.6512296062065974</speed>
  <fix>3d</fix>
</trkpt>
<trkpt lat="33.8099416" lon="-118.3938942">
  <ele>-25.07</ele>
  <time>2026-09-02T22:07:55Z</time>
  <course>182.27</course>
  <speed>0.7</speed>
  <fix>3d</fix>
</trkpt>
<trkpt lat="33.8099404" lon="-118.3938944">
  <ele>-25.966</ele>
  <time>2026-09-02T22:07:55Z</time>
  <course>182.21</course>
  <speed>0.6512296062065974</speed>
  <fix>3d</fix>
</trkpt>
<trkpt lat="33.8099416" lon="-118.3938942">
  <ele>-25.07</ele>
  <time>2026-09-02T22:07:55Z</time>
  <course>182.27</course>
  <speed>0.7</speed>
  <fix>3d</fix>
</trkpt>
<trkpt lat="33.8099398" lon="-118.3938944">
  <ele>-26.064</ele>
  <time>2026-09-02T22:07:55Z</time>
  <course>182.21</course>
  <speed>0.6412487816752559</speed>
  <fix>3d</fix>
</trkpt>
<trkpt lat="33.8099404" lon="-118.3938943">
  <ele>-25.25</ele>
  <time>2026-09-02T22:07:55Z</time>
  <course>182.29</course>
  <speed>0.68</speed>
  <fix>3d</fix>
</trkpt>
<trkpt lat="33.8099392" lon="-118.3938945">
  <ele>-26.162</ele>
  <time>2026-09-02T22:07:55Z</time>
  <course>182.21</course>
  <speed>0.6412487816752559</speed>
  <fix>3d</fix>
</trkpt>
<trkpt lat="33.8099404" lon="-118.3938943">
  <ele>-25.25</ele>
  <time>2026-09-02T22:07:55Z</time>
  <course>182.29</course>
  <speed>0.68</speed>
  <fix>3d</fix>
</trkpt>
<trkpt lat="33.8099386" lon="-118.3938945">
  <ele>-26.26</ele>
  <time>2026-09-02T22:07:55Z</time>
  <course>182.21</course>
  <speed>0.6412487816752559</speed>
  <fix>3d</fix>
</trkpt>
<trkpt lat="33.8099391" lon="-118.3938943">
  <ele>-25.43</ele>
  <time>2026-09-02T22:07:55Z</time>
  <course>182.31</course>
  <speed>0.66</speed>
  <fix>3d</fix>
</trkpt>
<trkpt lat="33.809938" lon="-118.3938945">
  <ele>-26.357</ele>
  <time>2026-09-02T22:07:55Z</time>
  <course>182.2</course>
  <speed>0.6412487816752559</speed>
  <fix>3d</fix>
</trkpt>
<trkpt lat="33.8099391" lon="-118.3938943">
  <ele>-25.43</ele>
  <time>2026-09-02T22:07:55Z</time>
  <course>182.31</course>
  <speed>0.66</speed>
  <fix>3d</fix>
</trkpt>
<trkpt lat="33.8099374" lon="-118.3938945">
  <ele>-26.454</ele>
  <time>2026-09-02T22:07:55Z</time>
  <course>182.21</course>
  <speed>0.6412487816752559</speed>
  <fix>3d</fix>
</trkpt>
<trkpt lat="33.8099379" lon="-118.3938944">
  <ele>-25.61</ele>
  <time>2026-09-02T22:07:55Z</time>
  <course>182.3</course>
  <speed>0.66</speed>
  <fix>3d</fix>
</trkpt>
<trkpt lat="33.8099368" lon="-118.3938946">
  <ele>-26.549</ele>
  <time>2026-09-02T22:07:55Z</time>
  <course>182.21</course>
  <speed>0.6512296062065974</speed>
  <fix>3d</fix>
</trkpt>
<trkpt lat="33.8099379" lon="-118.3938944">
  <ele>-25.61</ele>
  <time>2026-09-02T22:07:55Z</time>
  <course>182.3</course>
  <speed>0.66</speed>
  <fix>3d</fix>
</trkpt>
<trkpt lat="33.8099362" lon="-118.3938946">
  <ele>-26.638</ele>
  <time>2026-09-02T22:07:55Z</time>
  <course>182.2</course>
  <speed>0.6711929677819934</speed>
  <fix>3d</fix>
</trkpt>
<trkpt lat="33.8099367" lon="-118.3938944">
  <ele>-25.78</ele>
  <time>2026-09-02T22:07:55Z</time>
  <course>182.29</course>
  <speed>0.67</speed>
  <fix>3d</fix>
</trkpt>
<trkpt lat="33.8099356" lon="-118.3938946">
  <ele>-26.724</ele>
  <time>2026-09-02T22:07:55Z</time>
  <course>182.2</course>
  <speed>0.6811754546370561</speed>
  <fix>3d</fix>
</trkpt>
<trkpt lat="33.8099367" lon="-118.3938944">
  <ele>-25.78</ele>
  <time>2026-09-02T22:07:55Z</time>
  <course>182.29</course>
  <speed>0.67</speed>
  <fix>3d</fix>
</trkpt>
<trkpt lat="33.8099349" lon="-118.3938947">
  <ele>-26.807</ele>
  <time>2026-09-02T22:07:55Z</time>
  <course>182.21</course>
  <speed>0.6911584478250989</speed>
  <fix>3d</fix>
</trkpt>
<trkpt lat="33.8099355" lon="-118.3938945">
  <ele>-25.95</ele>
  <time>2026-09-02T22:07:55Z</time>
  <course>182.25</course>
  <speed>0.69</speed>
  <fix>3d</fix>
</trkpt>
<trkpt lat="33.8099343" lon="-118.3938947">
  <ele>-26.889</ele>
  <time>2026-09-02T22:07:55Z</time>
  <course>182.2</course>
  <speed>0.711125867902441</speed>
  <fix>3d</fix>
</trkpt>
<trkpt lat="33.8099355" lon="-118.3938945">
  <ele>-25.95</ele>
  <time>2026-09-02T22:07:55Z</time>
  <course>182.25</course>
  <speed>0.69</speed>
  <fix>3d</fix>
</trkpt>
<trkpt lat="33.8099336" lon="-118.3938947">
  <ele>-26.967</ele>
  <time>2026-09-02T22:07:55Z</time>
  <course>182.2</course>
  <speed>0.7310950690573697</speed>
  <fix>3d</fix>
</trkpt>
<trkpt lat="33.8099342" lon="-118.3938946">
  <ele>-26.12</ele>
  <time>2026-09-02T22:07:55Z</time>
  <course>182.2</course>
  <speed>0.73</speed>
  <fix>3d</fix>
</trkpt>
<trkpt lat="33.8099329" lon="-118.3938947">
  <ele>-27.042</ele>
  <time>2026-09-02T22:07:55Z</time>
  <course>182.2</course>
  <speed>0.7410802925459562</speed>
  <fix>3d</fix>
</trkpt>
<trkpt lat="33.8099342" lon="-118.3938946">
  <ele>-26.12</ele>
  <time>2026-09-02T22:07:55Z</time>
  <course>182.2</course>
  <speed>0.73</speed>
  <fix>3d</fix>
</trkpt>
<trkpt lat="33.8099322" lon="-118.3938948">
  <ele>-27.116</ele>
  <time>2026-09-02T22:07:55Z</time>
  <course>182.2</course>
  <speed>0.7410802925459562</speed>
  <fix>3d</fix>
</trkpt>
<trkpt lat="33.8099329" lon="-118.3938946">
  <ele>-26.27</ele>
  <time>2026-09-02T22:07:55Z</time>
  <course>182.17</course>
  <speed>0.75</speed>
  <fix>3d</fix>
</trkpt>
<trkpt lat="33.8099315" lon="-118.3938948">
  <ele>-27.189</ele>
  <time>2026-09-02T22:07:55Z</time>
  <course>182.2</course>
  <speed>0.7410802925459562</speed>
  <fix>3d</fix>
</trkpt>
<trkpt lat="33.8099329" lon="-118.3938946">
  <ele>-26.27</ele>
  <time>2026-09-02T22:07:55Z</time>
  <course>182.17</course>
  <speed>0.75</speed>
  <fix>3d</fix>
</trkpt>
<trkpt lat="33.8099309" lon="-118.3938948">
  <ele>-27.26</ele>
  <time>2026-09-02T22:07:55Z</time>
  <course>182.2</course>
  <speed>0.7510659092250159</speed>
  <fix>3d</fix>
</trkpt>
<trkpt lat="33.8099315" lon="-118.3938947">
  <ele>-26.42</ele>
  <time>2026-09-02T22:07:55Z</time>
  <course>182.15</course>
  <speed>0.77</speed>
  <fix>3d</fix>
</trkpt>
<trkpt lat="33.8099302" lon="-118.3938949">
  <ele>-27.33</ele>
  <time>2026-09-02T22:07:55Z</time>
  <course>182.2</course>
  <speed>0.7510659092250159</speed>
  <fix>3d</fix>
</trkpt>
<trkpt lat="33.8099315" lon="-118.3938947">
  <ele>-26.42</ele>
  <time>2026-09-02T22:07:55Z</time>
  <course>182.15</course>
  <speed>0.77</speed>
  <fix>3d</fix>
</trkpt>
<trkpt lat="33.8099295" lon="-118.3938949">
  <ele>-27.398</ele>
  <time>2026-09-02T22:07:55Z</time>
  <course>182.2</course>
  <speed>0.7510659092250159</speed>
  <fix>3d</fix>
</trkpt>
<trkpt lat="33.8099301" lon="-118.3938948">
  <ele>-26.57</ele>
  <time>2026-09-02T22:07:55Z</time>
  <course>182.14</course>
  <speed>0.77</speed>
  <fix>3d</fix>
</trkpt>
<trkpt lat="33.8099288" lon="-118.3938949">
  <ele>-27.464</ele>
  <time>2026-09-02T22:07:55Z</time>
  <course>182.2</course>
  <speed>0.7510659092250159</speed>
  <fix>3d</fix>
</trkpt>
<trkpt lat="33.8099301" lon="-118.3938948">
  <ele>-26.57</ele>
  <time>2026-09-02T22:07:55Z</time>
  <course>182.14</course>
  <speed>0.77</speed>
  <fix>3d</fix>
</trkpt>
<trkpt lat="33.8099281" lon="-118.393895">
  <ele>-27.53</ele>
  <time>2026-09-02T22:07:55Z</time>
  <course>182.2</course>
  <speed>0.7510659092250159</speed>
  <fix>3d</fix>
</trkpt>
<trkpt lat="33.8099287" lon="-118.3938948">
  <ele>-26.7</ele>
  <time>2026-09-02T22:07:55Z</time>
  <course>182.14</course>
  <speed>0.77</speed>
  <fix>3d</fix>
</trkpt>
<trkpt lat="33.8099274" lon="-118.393895">
  <ele>-27.598</ele>
  <time>2026-09-02T22:07:55Z</time>
  <course>182.2</course>
  <speed>0.7510659092250159</speed>
  <fix>3d</fix>
</trkpt>
<trkpt lat="33.8099287" lon="-118.3938948">
  <ele>-26.7</ele>
  <time>2026-09-02T22:07:55Z</time>
  <course>182.14</course>
  <speed>0.77</speed>
  <fix>3d</fix>
</trkpt>
<trkpt lat="33.8099267" lon="-118.393895">
  <ele>-27.666</ele>
  <time>2026-09-02T22:07:55Z</time>
  <course>182.2</course>
  <speed>0.7510659092250159</speed>
  <fix>3d</fix>
</trkpt>
<trkpt lat="33.8099274" lon="-118.3938949">
  <ele>-26.84</ele>
  <time>2026-09-02T22:07:55Z</time>
  <course>182.13</course>
  <speed>0.77</speed>
  <fix>3d</fix>
</trkpt>
<trkpt lat="33.809926" lon="-118.3938951">
  <ele>-27.735</ele>
  <time>2026-09-02T22:07:55Z</time>
  <course>182.2</course>
  <speed>0.7510659092250159</speed>
  <fix>3d</fix>
</trkpt>
<trkpt lat="33.8099274" lon="-118.3938949">
  <ele>-26.84</ele>
  <time>2026-09-02T22:07:55Z</time>
  <course>182.13</course>
  <speed>0.77</speed>
  <fix>3d</fix>
</trkpt>
<trkpt lat="33.8099253" lon="-118.3938951">
  <ele>-27.804</ele>
  <time>2026-09-02T22:07:55Z</time>
  <course>182.2</course>
  <speed>0.7510659092250159</speed>
  <fix>3d</fix>
</trkpt>
<trkpt lat="33.809926" lon="-118.393895">
  <ele>-26.98</ele>
  <time>2026-09-02T22:07:55Z</time>
  <course>182.13</course>
  <speed>0.77</speed>
  <fix>3d</fix>
</trkpt>
<trkpt lat="33.8099246" lon="-118.3938951">
  <ele>-27.873</ele>
  <time>2026-09-02T22:07:55Z</time>
  <course>182.2</course>
  <speed>0.7510659092250159</speed>
  <fix>3d</fix>
</trkpt>
<trkpt lat="33.809926" lon="-118.393895">
  <ele>-26.98</ele>
  <time>2026-09-02T22:07:55Z</time>
  <course>182.13</course>
  <speed>0.77</speed>
  <fix>3d</fix>
</trkpt>
<trkpt lat="33.8099239" lon="-118.3938952">
  <ele>-27.943</ele>
  <time>2026-09-02T22:07:55Z</time>
  <course>182.2</course>
  <speed>0.7510659092250159</speed>
  <fix>3d</fix>
</trkpt>
<trkpt lat="33.8099246" lon="-118.393895">
  <ele>-27.11</ele>
  <time>2026-09-02T22:07:55Z</time>
  <course>182.13</course>
  <speed>0.77</speed>
  <fix>3d</fix>
</trkpt>
<trkpt lat="33.8099232" lon="-118.3938952">
  <ele>-28.014</ele>
  <time>2026-09-02T22:07:55Z</time>
  <course>182.2</course>
  <speed>0.7410802925459562</speed>
  <fix>3d</fix>
</trkpt>
<trkpt lat="33.8099246" lon="-118.393895">
  <ele>-27.11</ele>
  <time>2026-09-02T22:07:55Z</time>
  <course>182.13</course>
  <speed>0.77</speed>
  <fix>3d</fix>
</trkpt>
<trkpt lat="33.8099225" lon="-118.3938952">
  <ele>-28.087</ele>
  <time>2026-09-02T22:07:55Z</time>
  <course>182.2</course>
  <speed>0.7410802925459562</speed>
  <fix>3d</fix>
</trkpt>
<trkpt lat="33.8099232" lon="-118.3938951">
  <ele>-27.26</ele>
  <time>2026-09-02T22:07:55Z</time>
  <course>182.13</course>
  <speed>0.77</speed>
  <fix>3d</fix>
</trkpt>
<trkpt lat="33.8099219" lon="-118.3938953">
  <ele>-28.162</ele>
  <time>2026-09-02T22:07:55Z</time>
  <course>182.2</course>
  <speed>0.7410802925459562</speed>
  <fix>3d</fix>
</trkpt>
<trkpt lat="33.8099232" lon="-118.3938951">
  <ele>-27.26</ele>
  <time>2026-09-02T22:07:55Z</time>
  <course>182.13</course>
  <speed>0.77</speed>
  <fix>3d</fix>
</trkpt>
<trkpt lat="33.8099212" lon="-118.3938953">
  <ele>-28.237</ele>
  <time>2026-09-02T22:07:55Z</time>
  <course>182.2</course>
  <speed>0.7410802925459562</speed>
  <fix>3d</fix>
</trkpt>
<trkpt lat="33.8099218" lon="-118.3938951">
  <ele>-27.4</ele>
  <time>2026-09-02T22:07:55Z</time>
  <course>182.13</course>
  <speed>0.77</speed>
  <fix>3d</fix>
</trkpt>
<trkpt lat="33.8099205" lon="-118.3938953">
  <ele>-28.313</ele>
  <time>2026-09-02T22:07:55Z</time>
  <course>182.2</course>
  <speed>0.7410802925459562</speed>
  <fix>3d</fix>
</trkpt>
<trkpt lat="33.8099218" lon="-118.3938951">
  <ele>-27.4</ele>
  <time>2026-09-02T22:07:55Z</time>
  <course>182.13</course>
  <speed>0.77</speed>
  <fix>3d</fix>
</trkpt>
<trkpt lat="33.8099198" lon="-118.3938954">
  <ele>-28.388</ele>
  <time>2026-09-02T22:07:55Z</time>
  <course>182.2</course>
  <speed>0.7410802925459562</speed>
  <fix>3d</fix>
</trkpt>
<trkpt lat="33.8099203" lon="-118.3938952">
  <ele>-27.55</ele>
  <time>2026-09-02T22:07:55Z</time>
  <course>182.12</course>
  <speed>0.77</speed>
  <fix>3d</fix>
</trkpt>
<trkpt lat="33.8099191" lon="-118.3938954">
  <ele>-28.464</ele>
  <time>2026-09-02T22:07:55Z</time>
  <course>182.2</course>
  <speed>0.7510659092250159</speed>
  <fix>3d</fix>
</trkpt>
<trkpt lat="33.8099203" lon="-118.3938952">
  <ele>-27.55</ele>
  <time>2026-09-02T22:07:55Z</time>
  <course>182.12</course>
  <speed>0.77</speed>
  <fix>3d</fix>
</trkpt>
<trkpt lat="33.8099184" lon="-118.3938954">
  <ele>-28.54</ele>
  <time>2026-09-02T22:07:55Z</time>
  <course>182.2</course>
  <speed>0.7510659092250159</speed>
  <fix>3d</fix>
</trkpt>
<trkpt lat="33.809919" lon="-118.3938953">
  <ele>-27.69</ele>
  <time>2026-09-02T22:07:55Z</time>
  <course>182.12</course>
  <speed>0.77</speed>
  <fix>3d</fix>
</trkpt>
<trkpt lat="33.8099177" lon="-118.3938955">
  <ele>-28.617</ele>
  <time>2026-09-02T22:07:55Z</time>
  <course>182.2</course>
  <speed>0.7510659092250159</speed>
  <fix>3d</fix>
</trkpt>
<trkpt lat="33.809919" lon="-118.3938953">
  <ele>-27.69</ele>
  <time>2026-09-02T22:07:55Z</time>
  <course>182.12</course>
  <speed>0.77</speed>
  <fix>3d</fix>
</trkpt>
<trkpt lat="33.809917" lon="-118.3938955">
  <ele>-28.693</ele>
  <time>2026-09-02T22:07:55Z</time>
  <course>182.2</course>
  <speed>0.7510659092250159</speed>
  <fix>3d</fix>
</trkpt>
<trkpt lat="33.8099176" lon="-118.3938953">
  <ele>-27.84</ele>
  <time>2026-09-02T22:07:55Z</time>
  <course>182.12</course>
  <speed>0.77</speed>
  <fix>3d</fix>
</trkpt>
<trkpt lat="33.8099163" lon="-118.3938955">
  <ele>-28.766</ele>
  <time>2026-09-02T22:07:55Z</time>
  <course>182.2</course>
  <speed>0.7510659092250159</speed>
  <fix>3d</fix>
</trkpt>
<trkpt lat="33.8099176" lon="-118.3938953">
  <ele>-27.84</ele>
  <time>2026-09-02T22:07:55Z</time>
  <course>182.12</course>
  <speed>0.77</speed>
  <fix>3d</fix>
</trkpt>
<trkpt lat="33.8099156" lon="-118.3938955">
  <ele>-28.835</ele>
  <time>2026-09-02T22:07:55Z</time>
  <course>182.2</course>
  <speed>0.7510659092250159</speed>
  <fix>3d</fix>
</trkpt>
<trkpt lat="33.8099163" lon="-118.3938954">
  <ele>-27.98</ele>
  <time>2026-09-02T22:07:55Z</time>
  <course>182.11</course>
  <speed>0.77</speed>
  <fix>3d</fix>
</trkpt>
<trkpt lat="33.8099149" lon="-118.3938956">
  <ele>-28.904</ele>
  <time>2026-09-02T22:07:55Z</time>
  <course>182.2</course>
  <speed>0.7510659092250159</speed>
  <fix>3d</fix>
</trkpt>
<trkpt lat="33.8099163" lon="-118.3938954">
  <ele>-27.98</ele>
  <time>2026-09-02T22:07:55Z</time>
  <course>182.11</course>
  <speed>0.77</speed>
  <fix>3d</fix>
</trkpt>
<trkpt lat="33.8099142" lon="-118.3938956">
  <ele>-28.973</ele>
  <time>2026-09-02T22:07:55Z</time>
  <course>182.2</course>
  <speed>0.7510659092250159</speed>
  <fix>3d</fix>
</trkpt>
<trkpt lat="33.8099148" lon="-118.3938954">
  <ele>-28.11</ele>
  <time>2026-09-02T22:07:55Z</time>
  <course>182.11</course>
  <speed>0.77</speed>
  <fix>3d</fix>
</trkpt>
<trkpt lat="33.8099135" lon="-118.3938956">
  <ele>-29.044</ele>
  <time>2026-09-02T22:07:55Z</time>
  <course>182.2</course>
  <speed>0.7510659092250159</speed>
  <fix>3d</fix>
</trkpt>
<trkpt lat="33.8099148" lon="-118.3938954">
  <ele>-28.11</ele>
  <time>2026-09-02T22:07:55Z</time>
  <course>182.11</course>
  <speed>0.77</speed>
  <fix>3d</fix>
</trkpt>
<trkpt lat="33.8099128" lon="-118.3938957">
  <ele>-29.118</ele>
  <time>2026-09-02T22:07:55Z</time>
  <course>182.2</course>
  <speed>0.7510659092250159</speed>
  <fix>3d</fix>
</trkpt>
<trkpt lat="33.8099135" lon="-118.3938955">
  <ele>-28.25</ele>
  <time>2026-09-02T22:07:55Z</time>
  <course>182.11</course>
  <speed>0.77</speed>
  <fix>3d</fix>
</trkpt>
<trkpt lat="33.8099121" lon="-118.3938957">
  <ele>-29.193</ele>
  <time>2026-09-02T22:07:55Z</time>
  <course>182.2</course>
  <speed>0.7510659092250159</speed>
  <fix>3d</fix>
</trkpt>
<trkpt lat="33.8099135" lon="-118.3938955">
  <ele>-28.25</ele>
  <time>2026-09-02T22:07:55Z</time>
  <course>182.11</course>
  <speed>0.77</speed>
  <fix>3d</fix>
</trkpt>
<trkpt lat="33.8099114" lon="-118.3938957">
  <ele>-29.269</ele>
  <time>2026-09-02T22:07:55Z</time>
  <course>182.2</course>
  <speed>0.7510659092250159</speed>
  <fix>3d</fix>
</trkpt>
<trkpt lat="33.8099121" lon="-118.3938956">
  <ele>-28.39</ele>
  <time>2026-09-02T22:07:55Z</time>
  <course>182.11</course>
  <speed>0.77</speed>
  <fix>3d</fix>
</trkpt>
<trkpt lat="33.8099107" lon="-118.3938958">
  <ele>-29.345</ele>
  <time>2026-09-02T22:07:55Z</time>
  <course>182.2</course>
  <speed>0.7410802925459562</speed>
  <fix>3d</fix>
</trkpt>
<trkpt lat="33.8099121" lon="-118.3938956">
  <ele>-28.39</ele>
  <time>2026-09-02T22:07:55Z</time>
  <course>182.11</course>
  <speed>0.77</speed>
  <fix>3d</fix>
</trkpt>
<trkpt lat="33.80991" lon="-118.3938958">
  <ele>-29.423</ele>
  <time>2026-09-02T22:07:55Z</time>
  <course>182.2</course>
  <speed>0.7410802925459562</speed>
  <fix>3d</fix>
</trkpt>
<trkpt lat="33.8099106" lon="-118.3938956">
  <ele>-28.54</ele>
  <time>2026-09-02T22:07:55Z</time>
  <course>182.1</course>
  <speed>0.77</speed>
  <fix>3d</fix>
</trkpt>
<trkpt lat="33.8099094" lon="-118.3938958">
  <ele>-29.502</ele>
  <time>2026-09-02T22:07:55Z</time>
  <course>182.2</course>
  <speed>0.7310950690573697</speed>
  <fix>3d</fix>
</trkpt>
<trkpt lat="33.8099106" lon="-118.3938956">
  <ele>-28.54</ele>
  <time>2026-09-02T22:07:55Z</time>
  <course>182.1</course>
  <speed>0.77</speed>
  <fix>3d</fix>
</trkpt>
<trkpt lat="33.8099087" lon="-118.3938958">
  <ele>-29.581</ele>
  <time>2026-09-02T22:07:55Z</time>
  <course>182.2</course>
  <speed>0.7211102550927978</speed>
  <fix>3d</fix>
</trkpt>
<trkpt lat="33.8099093" lon="-118.3938957">
  <ele>-28.69</ele>
  <time>2026-09-02T22:07:55Z</time>
  <course>182.11</course>
  <speed>0.76</speed>
  <fix>3d</fix>
</trkpt>
<trkpt lat="33.809908" lon="-118.3938959">
  <ele>-29.662</ele>
  <time>2026-09-02T22:07:55Z</time>
  <course>182.19</course>
  <speed>0.711125867902441</speed>
  <fix>3d</fix>
</trkpt>
<trkpt lat="33.8099093" lon="-118.3938957">
  <ele>-28.69</ele>
  <time>2026-09-02T22:07:55Z</time>
  <course>182.11</course>
  <speed>0.76</speed>
  <fix>3d</fix>
</trkpt>
<trkpt lat="33.8099073" lon="-118.3938959">
  <ele>-29.743</ele>
  <time>2026-09-02T22:07:55Z</time>
  <course>182.19</course>
  <speed>0.711125867902441</speed>
  <fix>3d</fix>
</trkpt>
<trkpt lat="33.8099079" lon="-118.3938958">
  <ele>-28.85</ele>
  <time>2026-09-02T22:07:55Z</time>
  <course>182.11</course>
  <speed>0.74</speed>
  <fix>3d</fix>
</trkpt>
<trkpt lat="33.8099067" lon="-118.3938959">
  <ele>-29.826</ele>
  <time>2026-09-02T22:07:55Z</time>
  <course>182.19</course>
  <speed>0.711125867902441</speed>
  <fix>3d</fix>
</trkpt>
<trkpt lat="33.8099079" lon="-118.3938958">
  <ele>-28.85</ele>
  <time>2026-09-02T22:07:55Z</time>
  <course>182.11</course>
  <speed>0.74</speed>
  <fix>3d</fix>
</trkpt>
<trkpt lat="33.809906" lon="-118.393896">
  <ele>-29.908</ele>
  <time>2026-09-02T22:07:55Z</time>
  <course>182.19</course>
  <speed>0.711125867902441</speed>
  <fix>3d</fix>
</trkpt>
<trkpt lat="33.8099066" lon="-118.3938958">
  <ele>-29.01</ele>
  <time>2026-09-02T22:07:55Z</time>
  <course>182.12</course>
  <speed>0.73</speed>
  <fix>3d</fix>
</trkpt>
<trkpt lat="33.8099054" lon="-118.393896">
  <ele>-29.991</ele>
  <time>2026-09-02T22:07:55Z</time>
  <course>182.19</course>
  <speed>0.7011419257183242</speed>
  <fix>3d</fix>
</trkpt>
<trkpt lat="33.8099066" lon="-118.3938958">
  <ele>-29.01</ele>
  <time>2026-09-02T22:07:55Z</time>
  <course>182.12</course>
  <speed>0.73</speed>
  <fix>3d</fix>
</trkpt>
<trkpt lat="33.8099047" lon="-118.393896">
  <ele>-30.074</ele>
  <time>2026-09-02T22:07:55Z</time>
  <course>182.19</course>
  <speed>0.7011419257183242</speed>
  <fix>3d</fix>
</trkpt>
<trkpt lat="33.8099053" lon="-118.3938959">
  <ele>-29.17</ele>
  <time>2026-09-02T22:07:55Z</time>
  <course>182.12</course>
  <speed>0.73</speed>
  <fix>3d</fix>
</trkpt>
<trkpt lat="33.8099041" lon="-118.3938961">
  <ele>-30.159</ele>
  <time>2026-09-02T22:07:55Z</time>
  <course>182.19</course>
  <speed>0.7011419257183242</speed>
  <fix>3d</fix>
</trkpt>
<trkpt lat="33.8099053" lon="-118.3938959">
  <ele>-29.17</ele>
  <time>2026-09-02T22:07:55Z</time>
  <course>182.12</course>
  <speed>0.73</speed>
  <fix>3d</fix>
</trkpt>
<trkpt lat="33.8099034" lon="-118.3938961">
  <ele>-30.244</ele>
  <time>2026-09-02T22:07:55Z</time>
  <course>182.19</course>
  <speed>0.7011419257183242</speed>
  <fix>3d</fix>
</trkpt>
<trkpt lat="33.809904" lon="-118.3938959">
  <ele>-29.33</ele>
  <time>2026-09-02T22:07:55Z</time>
  <course>182.12</course>
  <speed>0.72</speed>
  <fix>3d</fix>
</trkpt>
<trkpt lat="33.8099028" lon="-118.3938961">
  <ele>-30.329</ele>
  <time>2026-09-02T22:07:55Z</time>
  <course>182.19</course>
  <speed>0.7011419257183242</speed>
  <fix>3d</fix>
</trkpt>
<trkpt lat="33.809904" lon="-118.3938959">
  <ele>-29.33</ele>
  <time>2026-09-02T22:07:55Z</time>
  <course>182.12</course>
  <speed>0.72</speed>
  <fix>3d</fix>
</trkpt>
<trkpt lat="33.8099021" lon="-118.3938961">
  <ele>-30.413</ele>
  <time>2026-09-02T22:07:55Z</time>
  <course>182.19</course>
  <speed>0.711125867902441</speed>
  <fix>3d</fix>
</trkpt>
<trkpt lat="33.8099027" lon="-118.393896">
  <ele>-29.5</ele>
  <time>2026-09-02T22:07:55Z</time>
  <course>182.12</course>
  <speed>0.72</speed>
  <fix>3d</fix>
</trkpt>
<trkpt lat="33.8099014" lon="-118.3938962">
  <ele>-30.496</ele>
  <time>2026-09-02T22:07:55Z</time>
  <course>182.19</course>
  <speed>0.7211102550927978</speed>
  <fix>3d</fix>
</trkpt>
<trkpt lat="33.8099027" lon="-118.393896">
  <ele>-29.5</ele>
  <time>2026-09-02T22:07:55Z</time>
  <course>182.12</course>
  <speed>0.72</speed>
  <fix>3d</fix>
</trkpt>
<trkpt lat="33.8099007" lon="-118.3938962">
  <ele>-30.577</ele>
  <time>2026-09-02T22:07:55Z</time>
  <course>182.19</course>
  <speed>0.7310950690573697</speed>
  <fix>3d</fix>
</trkpt>
<trkpt lat="33.8099014" lon="-118.393896">
  <ele>-29.66</ele>
  <time>2026-09-02T22:07:55Z</time>
  <course>182.11</course>
  <speed>0.74</speed>
  <fix>3d</fix>
</trkpt>
<trkpt lat="33.8099001" lon="-118.3938962">
  <ele>-30.655</ele>
  <time>2026-09-02T22:07:55Z</time>
  <course>182.19</course>
  <speed>0.7410802925459562</speed>
  <fix>3d</fix>
</trkpt>
<trkpt lat="33.8099014" lon="-118.393896">
  <ele>-29.66</ele>
  <time>2026-09-02T22:07:55Z</time>
  <course>182.11</course>
  <speed>0.74</speed>
  <fix>3d</fix>
</trkpt>
<trkpt lat="33.8098994" lon="-118.3938963">
  <ele>-30.731</ele>
  <time>2026-09-02T22:07:55Z</time>
  <course>182.19</course>
  <speed>0.7410802925459562</speed>
  <fix>3d</fix>
</trkpt>
<trkpt lat="33.8099" lon="-118.3938961">
  <ele>-29.81</ele>
  <time>2026-09-02T22:07:55Z</time>
  <course>182.08</course>
  <speed>0.76</speed>
  <fix>3d</fix>
</trkpt>
<trkpt lat="33.8098987" lon="-118.3938963">
  <ele>-30.804</ele>
  <time>2026-09-02T22:07:55Z</time>
  <course>182.19</course>
  <speed>0.7410802925459562</speed>
  <fix>3d</fix>
</trkpt>
<trkpt lat="33.8099" lon="-118.3938961">
  <ele>-29.81</ele>
  <time>2026-09-02T22:07:55Z</time>
  <course>182.08</course>
  <speed>0.76</speed>
  <fix>3d</fix>
</trkpt>
<trkpt lat="33.809898" lon="-118.3938963">
  <ele>-30.877</ele>
  <time>2026-09-02T22:07:55Z</time>
  <course>182.19</course>
  <speed>0.7510659092250159</speed>
  <fix>3d</fix>
</trkpt>
<trkpt lat="33.8098986" lon="-118.3938962">
  <ele>-29.96</ele>
  <time>2026-09-02T22:07:55Z</time>
  <course>182.07</course>
  <speed>0.77</speed>
  <fix>3d</fix>
</trkpt>
<trkpt lat="33.8098973" lon="-118.3938963">
  <ele>-30.95</ele>
  <time>2026-09-02T22:07:55Z</time>
  <course>182.19</course>
  <speed>0.7510659092250159</speed>
  <fix>3d</fix>
</trkpt>
<trkpt lat="33.8098986" lon="-118.3938962">
  <ele>-29.96</ele>
  <time>2026-09-02T22:07:55Z</time>
  <course>182.07</course>
  <speed>0.77</speed>
  <fix>3d</fix>
</trkpt>
<trkpt lat="33.8098966" lon="-118.3938964">
  <ele>-31.023</ele>
  <time>2026-09-02T22:07:55Z</time>
  <course>182.19</course>
  <speed>0.7510659092250159</speed>
  <fix>3d</fix>
</trkpt>
<trkpt lat="33.8098973" lon="-118.3938962">
  <ele>-30.11</ele>
  <time>2026-09-02T22:07:55Z</time>
  <course>182.06</course>
  <speed>0.77</speed>
  <fix>3d</fix>
</trkpt>
<trkpt lat="33.8098959" lon="-118.3938964">
  <ele>-31.096</ele>
  <time>2026-09-02T22:07:55Z</time>
  <course>182.19</course>
  <speed>0.7510659092250159</speed>
  <fix>3d</fix>
</trkpt>
<trkpt lat="33.8098973" lon="-118.3938962">
  <ele>-30.11</ele>
  <time>2026-09-02T22:07:55Z</time>
  <course>182.06</course>
  <speed>0.77</speed>
  <fix>3d</fix>
</trkpt>
<trkpt lat="33.8098952" lon="-118.3938964">
  <ele>-31.167</ele>
  <time>2026-09-02T22:07:55Z</time>
  <course>182.2</course>
  <speed>0.6212889826803627</speed>
  <fix>3d</fix>
</trkpt>
<trkpt lat="33.8098959" lon="-118.3938963">
  <ele>-30.26</ele>
  <time>2026-09-02T22:07:55Z</time>
  <course>182.06</course>
  <speed>0.77</speed>
  <fix>3d</fix>
</trkpt>
<trkpt lat="33.8098947" lon="-118.3938965">
  <ele>-31.238</ele>
  <time>2026-09-02T22:07:55Z</time>
  <course>182.2</course>
  <speed>0.4709564735726646</speed>
  <fix>3d</fix>
</trkpt>
<trkpt lat="33.8098959" lon="-118.3938963">
  <ele>-30.26</ele>
  <time>2026-09-02T22:07:55Z</time>
  <course>182.06</course>
  <speed>0.77</speed>
  <fix>3d</fix>
</trkpt>
<trkpt lat="33.8098943" lon="-118.3938965">
  <ele>-31.309</ele>
  <time>2026-09-02T22:07:55Z</time>
  <course>182.21</course>
  <speed>0.38118237105091834</speed>
  <fix>3d</fix>
</trkpt>
<trkpt lat="33.8098946" lon="-118.3938964">
  <ele>-30.4</ele>
  <time>2026-09-02T22:07:55Z</time>
  <course>182.18</course>
  <speed>0.61</speed>
  <fix>3d</fix>
</trkpt>
<trkpt lat="33.809894" lon="-118.3938965">
  <ele>-31.377</ele>
  <time>2026-09-02T22:07:55Z</time>
  <course>182.71</course>
  <speed>0.31064449134018135</speed>
  <fix>3d</fix>
</trkpt>
<trkpt lat="33.8098946" lon="-118.3938964">
  <ele>-30.4</ele>
  <time>2026-09-02T22:07:55Z</time>
  <course>182.18</course>
  <speed>0.61</speed>
  <fix>3d</fix>
</trkpt>
<trkpt lat="33.8098937" lon="-118.3938965">
  <ele>-31.443</ele>
  <time>2026-09-02T22:07:55Z</time>
  <course>183.94</course>
  <speed>0.2707397274136177</speed>
  <fix>3d</fix>
</trkpt>
<trkpt lat="33.8098937" lon="-118.3938964">
  <ele>-30.54</ele>
  <time>2026-09-02T22:07:55Z</time>
  <course>182.5</course>
  <speed>0.39</speed>
  <fix>3d</fix>
</trkpt>
<trkpt lat="33.8098934" lon="-118.3938965">
  <ele>-31.51</ele>
  <time>2026-09-02T22:07:55Z</time>
  <course>185.54</course>
  <speed>0.2308679276123039</speed>
  <fix>3d</fix>
</trkpt>
<trkpt lat="33.8098937" lon="-118.3938964">
  <ele>-30.54</ele>
  <time>2026-09-02T22:07:55Z</time>
  <course>182.5</course>
  <speed>0.39</speed>
  <fix>3d</fix>
</trkpt>
<trkpt lat="33.8098932" lon="-118.3938965">
  <ele>-31.576</ele>
  <time>2026-09-02T22:07:55Z</time>
  <course>187.31</course>
  <speed>0.2109502310972899</speed>
  <fix>3d</fix>
</trkpt>
<trkpt lat="33.8098931" lon="-118.3938964">
  <ele>-30.68</ele>
  <time>2026-09-02T22:07:55Z</time>
  <course>182.54</course>
  <speed>0.28</speed>
  <fix>3d</fix>
</trkpt>
<trkpt lat="33.8098929" lon="-118.3938965">
  <ele>-31.641</ele>
  <time>2026-09-02T22:07:55Z</time>
  <course>189.18</course>
  <speed>0.19026297590440447</speed>
  <fix>3d</fix>
</trkpt>
<trkpt lat="33.8098931" lon="-118.3938964">
  <ele>-30.68</ele>
  <time>2026-09-02T22:07:55Z</time>
  <course>182.54</course>
  <speed>0.28</speed>
  <fix>3d</fix>
</trkpt>
<trkpt lat="33.8098927" lon="-118.3938965">
  <ele>-31.704</ele>
  <time>2026-09-02T22:07:55Z</time>
  <course>191.13</course>
  <speed>0.17029386365926402</speed>
  <fix>3d</fix>
</trkpt>
<trkpt lat="33.8098927" lon="-118.3938965">
  <ele>-30.81</ele>
  <time>2026-09-02T22:07:55Z</time>
  <course>181.94</course>
  <speed>0.22</speed>
  <fix>3d</fix>
</trkpt>
<trkpt lat="33.8098926" lon="-118.3938965">
  <ele>-31.763</ele>
  <time>2026-09-02T22:07:55Z</time>
  <course>193.15</course>
  <speed>0.16031219541881397</speed>
  <fix>3d</fix>
</trkpt>
<trkpt lat="33.8098927" lon="-118.3938965">
  <ele>-30.81</ele>
  <time>2026-09-02T22:07:55Z</time>
  <course>181.94</course>
  <speed>0.22</speed>
  <fix>3d</fix>
</trkpt>
<trkpt lat="33.8098924" lon="-118.3938965">
  <ele>-31.814</ele>
  <time>2026-09-02T22:07:55Z</time>
  <course>195.22</course>
  <speed>0.140356688476182</speed>
  <fix>3d</fix>
</trkpt>
<trkpt lat="33.8098923" lon="-118.3938965">
  <ele>-30.93</ele>
  <time>2026-09-02T22:07:55Z</time>
  <course>180.81</course>
  <speed>0.18</speed>
  <fix>3d</fix>
</trkpt>
<trkpt lat="33.8098922" lon="-118.3938965">
  <ele>-31.861</ele>
  <time>2026-09-02T22:07:55Z</time>
  <course>197.34</course>
  <speed>0.130384048104053</speed>
  <fix>3d</fix>
</trkpt>
<trkpt lat="33.8098923" lon="-118.3938965">
  <ele>-30.93</ele>
  <time>2026-09-02T22:07:55Z</time>
  <course>180.81</course>
  <speed>0.18</speed>
  <fix>3d</fix>
</trkpt>
<trkpt lat="33.8098921" lon="-118.3938965">
  <ele>-31.901</ele>
  <time>2026-09-02T22:07:55Z</time>
  <course>199.53</course>
  <speed>0.13</speed>
  <fix>3d</fix>
</trkpt>
<trkpt lat="33.809892" lon="-118.3938965">
  <ele>-31.04</ele>
  <time>2026-09-02T22:07:55Z</time>
  <course>179.46</course>
  <speed>0.16</speed>
  <fix>3d</fix>
</trkpt>
<trkpt lat="33.809892" lon="-118.3938965">
  <ele>-31.937</ele>
  <time>2026-09-02T22:07:55Z</time>
  <course>201.73</course>
  <speed>0.12</speed>
  <fix>3d</fix>
</trkpt>
<trkpt lat="33.809892" lon="-118.3938965">
  <ele>-31.04</ele>
  <time>2026-09-02T22:07:55Z</time>
  <course>179.46</course>
  <speed>0.16</speed>
  <fix>3d</fix>
</trkpt>
<trkpt lat="33.8098918" lon="-118.3938965">
  <ele>-31.968</ele>
  <time>2026-09-02T22:07:55Z</time>
  <course>203.97</course>
  <speed>0.11</speed>
  <fix>3d</fix>
</trkpt>
<trkpt lat="33.8098917" lon="-118.3938965">
  <ele>-31.12</ele>
  <time>2026-09-02T22:07:55Z</time>
  <course>178.16</course>
  <speed>0.14</speed>
  <fix>3d</fix>
</trkpt>
<trkpt lat="33.8098917" lon="-118.3938965">
  <ele>-31.993</ele>
  <time>2026-09-02T22:07:55Z</time>
  <course>206.23</course>
  <speed>0.11</speed>
  <fix>3d</fix>
</trkpt>
<trkpt lat="33.8098917" lon="-118.3938965">
  <ele>-31.12</ele>
  <time>2026-09-02T22:07:55Z</time>
  <course>178.16</course>
  <speed>0.14</speed>
  <fix>3d</fix>
</trkpt>
<trkpt lat="33.8098916" lon="-118.3938965">
  <ele>-32.015</ele>
  <time>2026-09-02T22:07:55Z</time>
  <course>208.53</course>
  <speed>0.1</speed>
  <fix>3d</fix>
</trkpt>
<trkpt lat="33.8098915" lon="-118.3938965">
  <ele>-31.18</ele>
  <time>2026-09-02T22:07:55Z</time>
  <course>177.12</course>
  <speed>0.12</speed>
  <fix>3d</fix>
</trkpt>
<trkpt lat="33.8098915" lon="-118.3938965">
  <ele>-32.033</ele>
  <time>2026-09-02T22:07:55Z</time>
  <course>210.85</course>
  <speed>0.1</speed>
  <fix>3d</fix>
</trkpt>
<trkpt lat="33.8098915" lon="-118.3938965">
  <ele>-31.18</ele>
  <time>2026-09-02T22:07:55Z</time>
  <course>177.12</course>
  <speed>0.12</speed>
  <fix>3d</fix>
</trkpt>
<trkpt lat="33.8098914" lon="-118.3938965">
  <ele>-32.047</ele>
  <time>2026-09-02T22:07:55Z</time>
  <course>213.18</course>
  <speed>0.09</speed>
  <fix>3d</fix>
</trkpt>
<trkpt lat="33.8098912" lon="-118.3938965">
  <ele>-31.24</ele>
  <time>2026-09-02T22:07:55Z</time>
  <course>176.45</course>
  <speed>0.11</speed>
  <fix>3d</fix>
</trkpt>
<trkpt lat="33.8098912" lon="-118.3938965">
  <ele>-32.055</ele>
  <time>2026-09-02T22:07:55Z</time>
  <course>215.55</course>
  <speed>0.09</speed>
  <fix>3d</fix>
</trkpt>
<trkpt lat="33.8098912" lon="-118.3938965">
  <ele>-31.24</ele>
  <time>2026-09-02T22:07:55Z</time>
  <course>176.45</course>
  <speed>0.11</speed>
  <fix>3d</fix>
</trkpt>
<trkpt lat="33.8098911" lon="-118.3938965">
  <ele>-32.059</ele>
  <time>2026-09-02T22:07:55Z</time>
  <course>217.92</course>
  <speed>0.08062257748298549</speed>
  <fix>3d</fix>
</trkpt>
<trkpt lat="33.8098911" lon="-118.3938965">
  <ele>-31.27</ele>
  <time>2026-09-02T22:07:55Z</time>
  <course>176.18</course>
  <speed>0.1</speed>
  <fix>3d</fix>
</trkpt>
<trkpt lat="33.8098911" lon="-118.3938965">
  <ele>-32.061</ele>
  <time>2026-09-02T22:07:55Z</time>
  <course>220.31</course>
  <speed>0.08062257748298549</speed>
  <fix>3d</fix>
</trkpt>
<trkpt lat="33.8098911" lon="-118.3938965">
  <ele>-31.27</ele>
  <time>2026-09-02T22:07:55Z</time>
  <course>176.18</course>
  <speed>0.1</speed>
  <fix>3d</fix>
</trkpt>
<trkpt lat="33.809891" lon="-118.3938965">
  <ele>-32.06</ele>
  <time>2026-09-02T22:07:55Z</time>
  <course>222.73</course>
  <speed>0.08062257748298549</speed>
  <fix>3d</fix>
</trkpt>
<trkpt lat="33.8098909" lon="-118.3938965">
  <ele>-31.28</ele>
  <time>2026-09-02T22:07:55Z</time>
  <course>176.27</course>
  <speed>0.1</speed>
  <fix>3d</fix>
</trkpt>
<trkpt lat="33.8098909" lon="-118.3938965">
  <ele>-32.058</ele>
  <time>2026-09-02T22:07:55Z</time>
  <course>225.14</course>
  <speed>0.07071067811865475</speed>
  <fix>3d</fix>
</trkpt>
<trkpt lat="33.8098909" lon="-118.3938965">
  <ele>-31.28</ele>
  <time>2026-09-02T22:07:55Z</time>
  <course>176.27</course>
  <speed>0.1</speed>
  <fix>3d</fix>
</trkpt>
<trkpt lat="33.8098908" lon="-118.3938965">
  <ele>-32.054</ele>
  <time>2026-09-02T22:07:55Z</time>
  <course>227.57</course>
  <speed>0.07071067811865475</speed>
  <fix>3d</fix>
</trkpt>
<trkpt lat="33.8098906" lon="-118.3938965">
  <ele>-31.29</ele>
  <time>2026-09-02T22:07:55Z</time>
  <course>176.67</course>
  <speed>0.09</speed>
  <fix>3d</fix>
</trkpt>
<trkpt lat="33.8098907" lon="-118.3938965">
  <ele>-32.049</ele>
  <time>2026-09-02T22:07:55Z</time>
  <course>230.01</course>
  <speed>0.07071067811865475</speed>
  <fix>3d</fix>
</trkpt>
<trkpt lat="33.8098906" lon="-118.3938965">
  <ele>-31.29</ele>
  <time>2026-09-02T22:07:55Z</time>
  <course>176.67</course>
  <speed>0.09</speed>
  <fix>3d</fix>
</trkpt>
<trkpt lat="33.8098906" lon="-118.3938965">
  <ele>-32.045</ele>
  <time>2026-09-02T22:07:55Z</time>
  <course>232.47</course>
  <speed>0.06082762530298219</speed>
  <fix>3d</fix>
</trkpt>
<trkpt lat="33.8098905" lon="-118.3938965">
  <ele>-31.28</ele>
  <time>2026-09-02T22:07:55Z</time>
  <course>177.33</course>
  <speed>0.08</speed>
  <fix>3d</fix>
</trkpt>
<trkpt lat="33.8098905" lon="-118.3938965">
  <ele>-32.045</ele>
  <time>2026-09-02T22:07:55Z</time>
  <course>234.92</course>
  <speed>0.06082762530298219</speed>
  <fix>3d</fix>
</trkpt>
<trkpt lat="33.8098905" lon="-118.3938965">
  <ele>-31.28</ele>
  <time>2026-09-02T22:07:55Z</time>
  <course>177.33</course>
  <speed>0.08</speed>
  <fix>3d</fix>
</trkpt>
<trkpt lat="33.8098905" lon="-118.3938965">
  <ele>-32.049</ele>
  <time>2026-09-02T22:07:55Z</time>
  <course>237.37</course>
  <speed>0.06082762530298219</speed>
  <fix>3d</fix>
</trkpt>
<trkpt lat="33.8098904" lon="-118.3938965">
  <ele>-31.28</ele>
  <time>2026-09-02T22:07:55Z</time>
  <course>178.21</course>
  <speed>0.08</speed>
  <fix>3d</fix>
</trkpt>
<trkpt lat="33.8098904" lon="-118.3938966">
  <ele>-32.056</ele>
  <time>2026-09-02T22:07:55Z</time>
  <course>239.84</course>
  <speed>0.06082762530298219</speed>
  <fix>3d</fix>
</trkpt>
<trkpt lat="33.8098904" lon="-118.3938965">
  <ele>-31.28</ele>
  <time>2026-09-02T22:07:55Z</time>
  <course>178.21</course>
  <speed>0.08</speed>
  <fix>3d</fix>
</trkpt>
<trkpt lat="33.8098903" lon="-118.3938966">
  <ele>-32.065</ele>
  <time>2026-09-02T22:07:55Z</time>
  <course>242.33</course>
  <speed>0.05099019513592785</speed>
  <fix>3d</fix>
</trkpt>
<trkpt lat="33.8098902" lon="-118.3938965">
  <ele>-31.29</ele>
  <time>2026-09-02T22:07:55Z</time>
  <course>179.21</course>
  <speed>0.07</speed>
  <fix>3d</fix>
</trkpt>
<trkpt lat="33.8098903" lon="-118.3938966">
  <ele>-32.073</ele>
  <time>2026-09-02T22:07:55Z</time>
  <course>244.82</course>
  <speed>0.053851648071345036</speed>
  <fix>3d</fix>
</trkpt>
<trkpt lat="33.8098902" lon="-118.3938965">
  <ele>-31.29</ele>
  <time>2026-09-02T22:07:55Z</time>
  <course>179.21</course>
  <speed>0.07</speed>
  <fix>3d</fix>
</trkpt>
<trkpt lat="33.8098902" lon="-118.3938966">
  <ele>-32.08</ele>
  <time>2026-09-02T22:07:55Z</time>
  <course>247.33</course>
  <speed>0.053851648071345036</speed>
  <fix>3d</fix>
</trkpt>
<trkpt lat="33.8098901" lon="-118.3938965">
  <ele>-31.3</ele>
  <time>2026-09-02T22:07:55Z</time>
  <course>180.25</course>
  <speed>0.07</speed>
  <fix>3d</fix>
</trkpt>
<trkpt lat="33.8098901" lon="-118.3938966">
  <ele>-32.087</ele>
  <time>2026-09-02T22:07:55Z</time>
  <course>249.82</course>
  <speed>0.053851648071345036</speed>
  <fix>3d</fix>
</trkpt>
<trkpt lat="33.8098901" lon="-118.3938965">
  <ele>-31.3</ele>
  <time>2026-09-02T22:07:55Z</time>
  <course>180.25</course>
  <speed>0.07</speed>
  <fix>3d</fix>
</trkpt>
<trkpt lat="33.8098901" lon="-118.3938966">
  <ele>-32.094</ele>
  <time>2026-09-02T22:07:56Z</time>
  <course>252.31</course>
  <speed>0.044721359549995794</speed>
  <fix>3d</fix>
</trkpt>
<trkpt lat="33.8098899" lon="-118.3938965">
  <ele>-31.31</ele>
  <time>2026-09-02T22:07:56Z</time>
  <course>181.27</course>
  <speed>0.06</speed>
  <fix>3d</fix>
</trkpt>
<trkpt lat="33.80989" lon="-118.3938966">
  <ele>-32.099</ele>
  <time>2026-09-02T22:07:56Z</time>
  <course>254.81</course>
  <speed>0.044721359549995794</speed>
  <fix>3d</fix>
</trkpt>
<trkpt lat="33.8098899" lon="-118.3938965">
  <ele>-31.31</ele>
  <time>2026-09-02T22:07:56Z</time>
  <course>181.27</course>
  <speed>0.06</speed>
  <fix>3d</fix>
</trkpt>
<trkpt lat="33.80989" lon="-118.3938966">
  <ele>-32.103</ele>
  <time>2026-09-02T22:07:56Z</time>
  <course>257.3</course>
  <speed>0.044721359549995794</speed>
  <fix>3d</fix>
</trkpt>
<trkpt lat="33.8098898" lon="-118.3938965">
  <ele>-31.32</ele>
  <time>2026-09-02T22:07:56Z</time>
  <course>182.23</course>
  <speed>0.06</speed>
  <fix>3d</fix>
</trkpt>
<trkpt lat="33.8098899" lon="-118.3938966">
  <ele>-32.104</ele>
  <time>2026-09-02T22:07:56Z</time>
  <course>259.79</course>
  <speed>0.044721359549995794</speed>
  <fix>3d</fix>
</trkpt>
<trkpt lat="33.8098898" lon="-118.3938965">
  <ele>-31.32</ele>
  <time>2026-09-02T22:07:56Z</time>
  <course>182.23</course>
  <speed>0.06</speed>
  <fix>3d</fix>
</trkpt>
<trkpt lat="33.8098898" lon="-118.3938966">
  <ele>-32.104</ele>
  <time>2026-09-02T22:07:56Z</time>
  <course>262.28</course>
  <speed>0.044721359549995794</speed>
  <fix>3d</fix>
</trkpt>
<trkpt lat="33.8098897" lon="-118.3938965">
  <ele>-31.33</ele>
  <time>2026-09-02T22:07:56Z</time>
  <course>183.07</course>
  <speed>0.05</speed>
  <fix>3d</fix>
</trkpt>
<trkpt lat="33.8098898" lon="-118.3938966">
  <ele>-32.104</ele>
  <time>2026-09-02T22:07:56Z</time>
  <course>264.77</course>
  <speed>0.03605551275463989</speed>
  <fix>3d</fix>
</trkpt>
<trkpt lat="33.8098897" lon="-118.3938965">
  <ele>-31.33</ele>
  <time>2026-09-02T22:07:56Z</time>
  <course>183.07</course>
  <speed>0.05</speed>
  <fix>3d</fix>
</trkpt>
<trkpt lat="33.8098897" lon="-118.3938966">
  <ele>-32.105</ele>
  <time>2026-09-02T22:07:56Z</time>
  <course>267.27</course>
  <speed>0.03605551275463989</speed>
  <fix>3d</fix>
</trkpt>
<trkpt lat="33.8098896" lon="-118.3938965">
  <ele>-31.34</ele>
  <time>2026-09-02T22:07:56Z</time>
  <course>183.76</course>
  <speed>0.05</speed>
  <fix>3d</fix>
</trkpt>
<trkpt lat="33.8098897" lon="-118.3938966">
  <ele>-32.105</ele>
  <time>2026-09-02T22:07:56Z</time>
  <course>269.72</course>
  <speed>0.03605551275463989</speed>
  <fix>3d</fix>
</trkpt>
<trkpt lat="33.8098896" lon="-118.3938965">
  <ele>-31.34</ele>
  <time>2026-09-02T22:07:56Z</time>
  <course>183.76</course>
  <speed>0.05</speed>
  <fix>3d</fix>
</trkpt>
<trkpt lat="33.8098896" lon="-118.3938966">
  <ele>-32.104</ele>
  <time>2026-09-02T22:07:56Z</time>
  <course>271.64</course>
  <speed>0.03605551275463989</speed>
  <fix>3d</fix>
</trkpt>
<trkpt lat="33.8098895" lon="-118.3938965">
  <ele>-31.33</ele>
  <time>2026-09-02T22:07:56Z</time>
  <course>184.25</course>
  <speed>0.05</speed>
  <fix>3d</fix>
</trkpt>
<trkpt lat="33.8098896" lon="-118.3938968">
  <ele>-32.104</ele>
  <time>2026-09-02T22:07:56Z</time>
  <course>274.04</course>
  <speed>0.24020824298928628</speed>
  <fix>3d</fix>
</trkpt>
<trkpt lat="33.8098895" lon="-118.3938965">
  <ele>-31.33</ele>
  <time>2026-09-02T22:07:56Z</time>
  <course>184.25</course>
  <speed>0.05</speed>
  <fix>3d</fix>
</trkpt>
<trkpt lat="33.8098896" lon="-118.3938971">
  <ele>-32.106</ele>
  <time>2026-09-02T22:07:56Z</time>
  <course>275.91</course>
  <speed>0.46</speed>
  <fix>3d</fix>
</trkpt>
<trkpt lat="33.8098894" lon="-118.3938965">
  <ele>-31.33</ele>
  <time>2026-09-02T22:07:56Z</time>
  <course>255.21</course>
  <speed>0.16</speed>
  <fix>3d</fix>
</trkpt>
<trkpt lat="33.8098896" lon="-118.3938977">
  <ele>-32.109</ele>
  <time>2026-09-02T22:07:56Z</time>
  <course>276.39</course>
  <speed>0.6103277807866851</speed>
  <fix>3d</fix>
</trkpt>
<trkpt lat="33.8098894" lon="-118.3938965">
  <ele>-31.33</ele>
  <time>2026-09-02T22:07:56Z</time>
  <course>255.21</course>
  <speed>0.16</speed>
  <fix>3d</fix>
</trkpt>
<trkpt lat="33.8098896" lon="-118.3938984">
  <ele>-32.113</ele>
  <time>2026-09-02T22:07:56Z</time>
  <course>276.23</course>
  <speed>0.7006425622241343</speed>
  <fix>3d</fix>
</trkpt>
<trkpt lat="33.8098893" lon="-118.3938971">
  <ele>-31.34</ele>
  <time>2026-09-02T22:07:56Z</time>
  <course>268.07</course>
  <speed>0.47</speed>
  <fix>3d</fix>
</trkpt>
<trkpt lat="33.8098896" lon="-118.3938991">
  <ele>-32.118</ele>
  <time>2026-09-02T22:07:56Z</time>
  <course>276.05</course>
  <speed>0.740607858451421</speed>
  <fix>3d</fix>
</trkpt>
<trkpt lat="33.8098893" lon="-118.3938971">
  <ele>-31.34</ele>
  <time>2026-09-02T22:07:56Z</time>
  <course>268.07</course>
  <speed>0.47</speed>
  <fix>3d</fix>
</trkpt>
<trkpt lat="33.8098896" lon="-118.3938999">
  <ele>-32.123</ele>
  <time>2026-09-02T22:07:56Z</time>
  <course>275.98</course>
  <speed>0.7610519036176179</speed>
  <fix>3d</fix>
</trkpt>
<trkpt lat="33.8098893" lon="-118.3938984">
  <ele>-31.34</ele>
  <time>2026-09-02T22:07:56Z</time>
  <course>270.68</course>
  <speed>0.68</speed>
  <fix>3d</fix>
</trkpt>
<trkpt lat="33.8098896" lon="-118.3939007">
  <ele>-32.128</ele>
  <time>2026-09-02T22:07:56Z</time>
  <course>275.96</course>
  <speed>0.7710382610480494</speed>
  <fix>3d</fix>
</trkpt>
<trkpt lat="33.8098893" lon="-118.3938984">
  <ele>-31.34</ele>
  <time>2026-09-02T22:07:56Z</time>
  <course>270.68</course>
  <speed>0.68</speed>
  <fix>3d</fix>
</trkpt>
<trkpt lat="33.8098896" lon="-118.3939015">
  <ele>-32.135</ele>
  <time>2026-09-02T22:07:56Z</time>
  <course>275.95</course>
  <speed>0.7710382610480494</speed>
  <fix>3d</fix>
</trkpt>
<trkpt lat="33.8098894" lon="-118.3939">
  <ele>-31.36</ele>
  <time>2026-09-02T22:07:56Z</time>
  <course>271.39</course>
  <speed>0.75</speed>
  <fix>3d</fix>
</trkpt>
<trkpt lat="33.8098896" lon="-118.3939023">
  <ele>-32.143</ele>
  <time>2026-09-02T22:07:56Z</time>
  <course>275.93</course>
  <speed>0.7710382610480494</speed>
  <fix>3d</fix>
</trkpt>
<trkpt lat="33.8098894" lon="-118.3939">
  <ele>-31.36</ele>
  <time>2026-09-02T22:07:56Z</time>
  <course>271.39</course>
  <speed>0.75</speed>
  <fix>3d</fix>
</trkpt>
<trkpt lat="33.8098896" lon="-118.393903">
  <ele>-32.151</ele>
  <time>2026-09-02T22:07:56Z</time>
  <course>275.92</course>
  <speed>0.7710382610480494</speed>
  <fix>3d</fix>
</trkpt>
<trkpt lat="33.8098895" lon="-118.3939016">
  <ele>-31.37</ele>
  <time>2026-09-02T22:07:56Z</time>
  <course>271.7</course>
  <speed>0.77</speed>
  <fix>3d</fix>
</trkpt>
<trkpt lat="33.8098896" lon="-118.3939039">
  <ele>-32.161</ele>
  <time>2026-09-02T22:07:56Z</time>
  <course>275.9</course>
  <speed>0.7710382610480494</speed>
  <fix>3d</fix>
</trkpt>
<trkpt lat="33.8098895" lon="-118.3939016">
  <ele>-31.37</ele>
  <time>2026-09-02T22:07:56Z</time>
  <course>271.7</course>
  <speed>0.77</speed>
  <fix>3d</fix>
</trkpt>
<trkpt lat="33.8098896" lon="-118.3939047">
  <ele>-32.17</ele>
  <time>2026-09-02T22:07:56Z</time>
  <course>275.87</course>
  <speed>0.771621668954417</speed>
  <fix>3d</fix>
</trkpt>
<trkpt lat="33.8098895" lon="-118.3939033">
  <ele>-31.39</ele>
  <time>2026-09-02T22:07:56Z</time>
  <course>271.91</course>
  <speed>0.77</speed>
  <fix>3d</fix>
</trkpt>
<trkpt lat="33.8098897" lon="-118.3939055">
  <ele>-32.179</ele>
  <time>2026-09-02T22:07:56Z</time>
  <course>275.85</course>
  <speed>0.771621668954417</speed>
  <fix>3d</fix>
</trkpt>
<trkpt lat="33.8098895" lon="-118.3939033">
  <ele>-31.39</ele>
  <time>2026-09-02T22:07:56Z</time>
  <course>271.91</course>
  <speed>0.77</speed>
  <fix>3d</fix>
</trkpt>
<trkpt lat="33.8098897" lon="-118.3939063">
  <ele>-32.188</ele>
  <time>2026-09-02T22:07:56Z</time>
  <course>275.83</course>
  <speed>0.771621668954417</speed>
  <fix>3d</fix>
</trkpt>
<trkpt lat="33.8098895" lon="-118.393905">
  <ele>-31.41</ele>
  <time>2026-09-02T22:07:56Z</time>
  <course>272.08</course>
  <speed>0.77</speed>
  <fix>3d</fix>
</trkpt>
<trkpt lat="33.8098897" lon="-118.3939071">
  <ele>-32.195</ele>
  <time>2026-09-02T22:07:56Z</time>
  <course>275.81</course>
  <speed>0.7616429609731845</speed>
  <fix>3d</fix>
</trkpt>
<trkpt lat="33.8098895" lon="-118.393905">
  <ele>-31.41</ele>
  <time>2026-09-02T22:07:56Z</time>
  <course>272.08</course>
  <speed>0.77</speed>
  <fix>3d</fix>
</trkpt>
<trkpt lat="33.8098897" lon="-118.3939079">
  <ele>-32.201</ele>
  <time>2026-09-02T22:07:56Z</time>
  <course>275.78</course>
  <speed>0.7616429609731845</speed>
  <fix>3d</fix>
</trkpt>
<trkpt lat="33.8098895" lon="-118.3939067">
  <ele>-31.42</ele>
  <time>2026-09-02T22:07:56Z</time>
  <course>272.23</course>
  <speed>0.77</speed>
  <fix>3d</fix>
</trkpt>
<trkpt lat="33.8098898" lon="-118.3939087">
  <ele>-32.205</ele>
  <time>2026-09-02T22:07:56Z</time>
  <course>275.76</course>
  <speed>0.7616429609731845</speed>
  <fix>3d</fix>
</trkpt>
<trkpt lat="33.8098895" lon="-118.3939067">
  <ele>-31.42</ele>
  <time>2026-09-02T22:07:56Z</time>
  <course>272.23</course>
  <speed>0.77</speed>
  <fix>3d</fix>
</trkpt>
<trkpt lat="33.8098898" lon="-118.3939095">
  <ele>-32.205</ele>
  <time>2026-09-02T22:07:56Z</time>
  <course>275.74</course>
  <speed>0.7616429609731845</speed>
  <fix>3d</fix>
</trkpt>
<trkpt lat="33.8098896" lon="-118.3939083">
  <ele>-31.43</ele>
  <time>2026-09-02T22:07:56Z</time>
  <course>272.36</course>
  <speed>0.77</speed>
  <fix>3d</fix>
</trkpt>
<trkpt lat="33.8098898" lon="-118.3939103">
  <ele>-32.199</ele>
  <time>2026-09-02T22:07:56Z</time>
  <course>275.72</course>
  <speed>0.7616429609731845</speed>
  <fix>3d</fix>
</trkpt>
<trkpt lat="33.8098896" lon="-118.3939083">
  <ele>-31.43</ele>
  <time>2026-09-02T22:07:56Z</time>
  <course>272.36</course>
  <speed>0.77</speed>
  <fix>3d</fix>
</trkpt>
<trkpt lat="33.8098898" lon="-118.3939112">
  <ele>-32.191</ele>
  <time>2026-09-02T22:07:56Z</time>
  <course>275.7</course>
  <speed>0.7616429609731845</speed>
  <fix>3d</fix>
</trkpt>
<trkpt lat="33.8098896" lon="-118.39391">
  <ele>-31.43</ele>
  <time>2026-09-02T22:07:56Z</time>
  <course>272.47</course>
  <speed>0.77</speed>
  <fix>3d</fix>
</trkpt>
<trkpt lat="33.8098899" lon="-118.393912">
  <ele>-32.182</ele>
  <time>2026-09-02T22:07:56Z</time>
  <course>275.67</course>
  <speed>0.7616429609731845</speed>
  <fix>3d</fix>
</trkpt>
<trkpt lat="33.8098896" lon="-118.39391">
  <ele>-31.43</ele>
  <time>2026-09-02T22:07:56Z</time>
  <course>272.47</course>
  <speed>0.77</speed>
  <fix>3d</fix>
</trkpt>
<trkpt lat="33.8098899" lon="-118.3939128">
  <ele>-32.17</ele>
  <time>2026-09-02T22:07:56Z</time>
  <course>275.65</course>
  <speed>0.7616429609731845</speed>
  <fix>3d</fix>
</trkpt>
<trkpt lat="33.8098897" lon="-118.3939117">
  <ele>-31.42</ele>
  <time>2026-09-02T22:07:56Z</time>
  <course>272.57</course>
  <speed>0.77</speed>
  <fix>3d</fix>
</trkpt>
<trkpt lat="33.8098899" lon="-118.3939136">
  <ele>-32.158</ele>
  <time>2026-09-02T22:07:56Z</time>
  <course>275.63</course>
  <speed>0.7616429609731845</speed>
  <fix>3d</fix>
</trkpt>
<trkpt lat="33.8098897" lon="-118.3939117">
  <ele>-31.42</ele>
  <time>2026-09-02T22:07:56Z</time>
  <course>272.57</course>
  <speed>0.77</speed>
  <fix>3d</fix>
</trkpt>
<trkpt lat="33.8098899" lon="-118.3939144">
  <ele>-32.146</ele>
  <time>2026-09-02T22:07:56Z</time>
  <course>275.61</course>
  <speed>0.7616429609731845</speed>
  <fix>3d</fix>
</trkpt>
<trkpt lat="33.8098897" lon="-118.3939134">
  <ele>-31.4</ele>
  <time>2026-09-02T22:07:56Z</time>
  <course>272.67</course>
  <speed>0.77</speed>
  <fix>3d</fix>
</trkpt>
<trkpt lat="33.80989" lon="-118.3939153">
  <ele>-32.136</ele>
  <time>2026-09-02T22:07:56Z</time>
  <course>275.59</course>
  <speed>0.7516648189186453</speed>
  <fix>3d</fix>
</trkpt>
<trkpt lat="33.8098897" lon="-118.3939134">
  <ele>-31.4</ele>
  <time>2026-09-02T22:07:56Z</time>
  <course>272.67</course>
  <speed>0.77</speed>
  <fix>3d</fix>
</trkpt>
<trkpt lat="33.80989" lon="-118.3939161">
  <ele>-32.129</ele>
  <time>2026-09-02T22:07:56Z</time>
  <course>275.57</course>
  <speed>0.7516648189186453</speed>
  <fix>3d</fix>
</trkpt>
<trkpt lat="33.8098898" lon="-118.393915">
  <ele>-31.38</ele>
  <time>2026-09-02T22:07:56Z</time>
  <course>272.75</course>
  <speed>0.77</speed>
  <fix>3d</fix>
</trkpt>
<trkpt lat="33.80989" lon="-118.3939169">
  <ele>-32.124</ele>
  <time>2026-09-02T22:07:56Z</time>
  <course>275.55</course>
  <speed>0.7516648189186453</speed>
  <fix>3d</fix>
</trkpt>
<trkpt lat="33.8098898" lon="-118.393915">
  <ele>-31.38</ele>
  <time>2026-09-02T22:07:56Z</time>
  <course>272.75</course>
  <speed>0.77</speed>
  <fix>3d</fix>
</trkpt>
<trkpt lat="33.80989" lon="-118.3939177">
  <ele>-32.122</ele>
  <time>2026-09-02T22:07:56Z</time>
  <course>275.53</course>
  <speed>0.7516648189186453</speed>
  <fix>3d</fix>
</trkpt>
<trkpt lat="33.8098899" lon="-118.3939167">
  <ele>-31.37</ele>
  <time>2026-09-02T22:07:56Z</time>
  <course>272.83</course>
  <speed>0.77</speed>
  <fix>3d</fix>
</trkpt>
<trkpt lat="33.8098901" lon="-118.3939185">
  <ele>-32.12</ele>
  <time>2026-09-02T22:07:56Z</time>
  <course>275.51</course>
  <speed>0.7516648189186453</speed>
  <fix>3d</fix>
</trkpt>
<trkpt lat="33.8098899" lon="-118.3939167">
  <ele>-31.37</ele>
  <time>2026-09-02T22:07:56Z</time>
  <course>272.83</course>
  <speed>0.77</speed>
  <fix>3d</fix>
</trkpt>
<trkpt lat="33.8098901" lon="-118.3939194">
  <ele>-32.118</ele>
  <time>2026-09-02T22:07:56Z</time>
  <course>275.49</course>
  <speed>0.7516648189186453</speed>
  <fix>3d</fix>
</trkpt>
<trkpt lat="33.8098899" lon="-118.3939184">
  <ele>-31.37</ele>
  <time>2026-09-02T22:07:56Z</time>
  <course>272.9</course>
  <speed>0.77</speed>
  <fix>3d</fix>
</trkpt>
<trkpt lat="33.8098901" lon="-118.3939202">
  <ele>-32.117</ele>
  <time>2026-09-02T22:07:56Z</time>
  <course>275.47</course>
  <speed>0.7516648189186453</speed>
  <fix>3d</fix>
</trkpt>
<trkpt lat="33.8098899" lon="-118.3939184">
  <ele>-31.37</ele>
  <time>2026-09-02T22:07:56Z</time>
  <course>272.9</course>
  <speed>0.77</speed>
  <fix>3d</fix>
</trkpt>
<trkpt lat="33.8098902" lon="-118.393921">
  <ele>-32.115</ele>
  <time>2026-09-02T22:07:56Z</time>
  <course>275.45</course>
  <speed>0.7516648189186453</speed>
  <fix>3d</fix>
</trkpt>
<trkpt lat="33.80989" lon="-118.3939201">
  <ele>-31.36</ele>
  <time>2026-09-02T22:07:56Z</time>
  <course>272.96</course>
  <speed>0.77</speed>
  <fix>3d</fix>
</trkpt>
<trkpt lat="33.8098902" lon="-118.3939219">
  <ele>-32.113</ele>
  <time>2026-09-02T22:07:56Z</time>
  <course>275.43</course>
  <speed>0.7516648189186453</speed>
  <fix>3d</fix>
</trkpt>
<trkpt lat="33.80989" lon="-118.3939201">
  <ele>-31.36</ele>
  <time>2026-09-02T22:07:56Z</time>
  <course>272.96</course>
  <speed>0.77</speed>
  <fix>3d</fix>
</trkpt>
<trkpt lat="33.8098902" lon="-118.3939227">
  <ele>-32.112</ele>
  <time>2026-09-02T22:07:56Z</time>
  <course>275.41</course>
  <speed>0.7516648189186453</speed>
  <fix>3d</fix>
</trkpt>
<trkpt lat="33.8098901" lon="-118.3939217">
  <ele>-31.36</ele>
  <time>2026-09-02T22:07:56Z</time>
  <course>273.02</course>
  <speed>0.77</speed>
  <fix>3d</fix>
</trkpt>
<trkpt lat="33.8098903" lon="-118.3939235">
  <ele>-32.112</ele>
  <time>2026-09-02T22:07:56Z</time>
  <course>275.39</course>
  <speed>0.7516648189186453</speed>
  <fix>3d</fix>
</trkpt>
<trkpt lat="33.8098901" lon="-118.3939217">
  <ele>-31.36</ele>
  <time>2026-09-02T22:07:56Z</time>
  <course>273.02</course>
  <speed>0.77</speed>
  <fix>3d</fix>
</trkpt>
<trkpt lat="33.8098903" lon="-118.3939243">
  <ele>-32.111</ele>
  <time>2026-09-02T22:07:56Z</time>
  <course>275.38</course>
  <speed>0.7516648189186453</speed>
  <fix>3d</fix>
</trkpt>
<trkpt lat="33.8098902" lon="-118.3939234">
  <ele>-31.35</ele>
  <time>2026-09-02T22:07:56Z</time>
  <course>273.07</course>
  <speed>0.77</speed>
  <fix>3d</fix>
</trkpt>
<trkpt lat="33.8098903" lon="-118.3939252">
  <ele>-32.109</ele>
  <time>2026-09-02T22:07:56Z</time>
  <course>275.36</course>
  <speed>0.7516648189186453</speed>
  <fix>3d</fix>
</trkpt>
<trkpt lat="33.8098902" lon="-118.3939234">
  <ele>-31.35</ele>
  <time>2026-09-02T22:07:56Z</time>
  <course>273.07</course>
  <speed>0.77</speed>
  <fix>3d</fix>
</trkpt>
<trkpt lat="33.8098904" lon="-118.393926">
  <ele>-32.106</ele>
  <time>2026-09-02T22:07:56Z</time>
  <course>275.34</course>
  <speed>0.7516648189186453</speed>
  <fix>3d</fix>
</trkpt>
<trkpt lat="33.8098902" lon="-118.3939251">
  <ele>-31.35</ele>
  <time>2026-09-02T22:07:56Z</time>
  <course>273.11</course>
  <speed>0.77</speed>
  <fix>3d</fix>
</trkpt>
<trkpt lat="33.8098904" lon="-118.3939268">
  <ele>-32.103</ele>
  <time>2026-09-02T22:07:56Z</time>
  <course>275.32</course>
  <speed>0.7516648189186453</speed>
  <fix>3d</fix>
</trkpt>
<trkpt lat="33.8098902" lon="-118.3939251">
  <ele>-31.35</ele>
  <time>2026-09-02T22:07:56Z</time>
  <course>273.11</course>
  <speed>0.77</speed>
  <fix>3d</fix>
</trkpt>
<trkpt lat="33.8098904" lon="-118.3939276">
  <ele>-32.099</ele>
  <time>2026-09-02T22:07:56Z</time>
  <course>275.3</course>
  <speed>0.7516648189186453</speed>
  <fix>3d</fix>
</trkpt>
<trkpt lat="33.8098903" lon="-118.3939267">
  <ele>-31.34</ele>
  <time>2026-09-02T22:07:56Z</time>
  <course>273.16</course>
  <speed>0.77</speed>
  <fix>3d</fix>
</trkpt>
<trkpt lat="33.8098905" lon="-118.3939285">
  <ele>-32.095</ele>
  <time>2026-09-02T22:07:56Z</time>
  <course>275.29</course>
  <speed>0.7516648189186453</speed>
  <fix>3d</fix>
</trkpt>
<trkpt lat="33.8098903" lon="-118.3939267">
  <ele>-31.34</ele>
  <time>2026-09-02T22:07:56Z</time>
  <course>273.16</course>
  <speed>0.77</speed>
  <fix>3d</fix>
</trkpt>
<trkpt lat="33.8098905" lon="-118.3939293">
  <ele>-32.09</ele>
  <time>2026-09-02T22:07:56Z</time>
  <course>275.27</course>
  <speed>0.7516648189186453</speed>
  <fix>3d</fix>
</trkpt>
<trkpt lat="33.8098904" lon="-118.3939284">
  <ele>-31.33</ele>
  <time>2026-09-02T22:07:56Z</time>
  <course>273.19</course>
  <speed>0.77</speed>
  <fix>3d</fix>
</trkpt>
<trkpt lat="33.8098905" lon="-118.3939301">
  <ele>-32.084</ele>
  <time>2026-09-02T22:07:56Z</time>
  <course>275.25</course>
  <speed>0.7416872656315463</speed>
  <fix>3d</fix>
</trkpt>
<trkpt lat="33.8098904" lon="-118.3939284">
  <ele>-31.33</ele>
  <time>2026-09-02T22:07:56Z</time>
  <course>273.19</course>
  <speed>0.77</speed>
  <fix>3d</fix>
</trkpt>
<trkpt lat="33.8098906" lon="-118.3939309">
  <ele>-32.077</ele>
  <time>2026-09-02T22:07:56Z</time>
  <course>275.23</course>
  <speed>0.7416872656315463</speed>
  <fix>3d</fix>
</trkpt>
<trkpt lat="33.8098905" lon="-118.3939301">
  <ele>-31.32</ele>
  <time>2026-09-02T22:07:56Z</time>
  <course>273.23</course>
  <speed>0.77</speed>
  <fix>3d</fix>
</trkpt>
<trkpt lat="33.8098906" lon="-118.3939317">
  <ele>-32.07</ele>
  <time>2026-09-02T22:07:56Z</time>
  <course>275.22</course>
  <speed>0.7416872656315463</speed>
  <fix>3d</fix>
</trkpt>
<trkpt lat="33.8098905" lon="-118.3939301">
  <ele>-31.32</ele>
  <time>2026-09-02T22:07:56Z</time>
  <course>273.23</course>
  <speed>0.77</speed>
  <fix>3d</fix>
</trkpt>
<trkpt lat="33.8098907" lon="-118.3939326">
  <ele>-32.063</ele>
  <time>2026-09-02T22:07:56Z</time>
  <course>275.2</course>
  <speed>0.7416872656315463</speed>
  <fix>3d</fix>
</trkpt>
<trkpt lat="33.8098905" lon="-118.3939318">
  <ele>-31.31</ele>
  <time>2026-09-02T22:07:56Z</time>
  <course>273.26</course>
  <speed>0.77</speed>
  <fix>3d</fix>
</trkpt>
<trkpt lat="33.8098907" lon="-118.3939334">
  <ele>-32.056</ele>
  <time>2026-09-02T22:07:56Z</time>
  <course>275.18</course>
  <speed>0.7416872656315463</speed>
  <fix>3d</fix>
</trkpt>
<trkpt lat="33.8098905" lon="-118.3939318">
  <ele>-31.31</ele>
  <time>2026-09-02T22:07:56Z</time>
  <course>273.26</course>
  <speed>0.77</speed>
  <fix>3d</fix>
</trkpt>
<trkpt lat="33.8098907" lon="-118.3939342">
  <ele>-32.05</ele>
  <time>2026-09-02T22:07:56Z</time>
  <course>275.17</course>
  <speed>0.7416872656315463</speed>
  <fix>3d</fix>
</trkpt>
<trkpt lat="33.8098906" lon="-118.3939334">
  <ele>-31.29</ele>
  <time>2026-09-02T22:07:56Z</time>
  <course>273.29</course>
  <speed>0.77</speed>
  <fix>3d</fix>
</trkpt>
<trkpt lat="33.8098908" lon="-118.3939351">
  <ele>-32.045</ele>
  <time>2026-09-02T22:07:56Z</time>
  <course>275.15</course>
  <speed>0.7416872656315463</speed>
  <fix>3d</fix>
</trkpt>
<trkpt lat="33.8098906" lon="-118.3939334">
  <ele>-31.29</ele>
  <time>2026-09-02T22:07:56Z</time>
  <course>273.29</course>
  <speed>0.77</speed>
  <fix>3d</fix>
</trkpt>
<trkpt lat="33.8098908" lon="-118.3939359">
  <ele>-32.043</ele>
  <time>2026-09-02T22:07:56Z</time>
  <course>275.13</course>
  <speed>0.7416872656315463</speed>
  <fix>3d</fix>
</trkpt>
<trkpt lat="33.8098907" lon="-118.3939351">
  <ele>-31.28</ele>
  <time>2026-09-02T22:07:56Z</time>
  <course>273.32</course>
  <speed>0.77</speed>
  <fix>3d</fix>
</trkpt>
<trkpt lat="33.8098908" lon="-118.3939367">
  <ele>-32.042</ele>
  <time>2026-09-02T22:07:56Z</time>
  <course>275.12</course>
  <speed>0.7416872656315463</speed>
  <fix>3d</fix>
</trkpt>
<trkpt lat="33.8098907" lon="-118.3939351">
  <ele>-31.28</ele>
  <time>2026-09-02T22:07:56Z</time>
  <course>273.32</course>
  <speed>0.77</speed>
  <fix>3d</fix>
</trkpt>
<trkpt lat="33.8098909" lon="-118.3939375">
  <ele>-32.04</ele>
  <time>2026-09-02T22:07:56Z</time>
  <course>275.1</course>
  <speed>0.7416872656315463</speed>
  <fix>3d</fix>
</trkpt>
<trkpt lat="33.8098908" lon="-118.3939368">
  <ele>-31.27</ele>
  <time>2026-09-02T22:07:56Z</time>
  <course>273.34</course>
  <speed>0.77</speed>
  <fix>3d</fix>
</trkpt>
<trkpt lat="33.8098909" lon="-118.3939384">
  <ele>-32.036</ele>
  <time>2026-09-02T22:07:56Z</time>
  <course>275.09</course>
  <speed>0.7416872656315463</speed>
  <fix>3d</fix>
</trkpt>
<trkpt lat="33.8098908" lon="-118.3939368">
  <ele>-31.27</ele>
  <time>2026-09-02T22:07:56Z</time>
  <course>273.34</course>
  <speed>0.77</speed>
  <fix>3d</fix>
</trkpt>
<trkpt lat="33.809891" lon="-118.3939392">
  <ele>-32.03</ele>
  <time>2026-09-02T22:07:56Z</time>
  <course>275.07</course>
  <speed>0.6312685640834652</speed>
  <fix>3d</fix>
</trkpt>
<trkpt lat="33.8098909" lon="-118.3939385">
  <ele>-31.27</ele>
  <time>2026-09-02T22:07:56Z</time>
  <course>273.36</course>
  <speed>0.77</speed>
  <fix>3d</fix>
</trkpt>
<trkpt lat="33.809891" lon="-118.3939398">
  <ele>-32.025</ele>
  <time>2026-09-02T22:07:56Z</time>
  <course>275.05</course>
  <speed>0.4709564735726646</speed>
  <fix>3d</fix>
</trkpt>
<trkpt lat="33.8098909" lon="-118.3939385">
  <ele>-31.27</ele>
  <time>2026-09-02T22:07:56Z</time>
  <course>273.36</course>
  <speed>0.77</speed>
  <fix>3d</fix>
</trkpt>
<trkpt lat="33.809891" lon="-118.3939403">
  <ele>-32.019</ele>
  <time>2026-09-02T22:07:56Z</time>
  <course>275.04</course>
  <speed>0.38052595180880894</speed>
  <fix>3d</fix>
</trkpt>
<trkpt lat="33.8098909" lon="-118.3939399">
  <ele>-31.26</ele>
  <time>2026-09-02T22:07:56Z</time>
  <course>273.12</course>
  <speed>0.62</speed>
  <fix>3d</fix>
</trkpt>
<trkpt lat="33.809891" lon="-118.3939407">
  <ele>-32.013</ele>
  <time>2026-09-02T22:07:56Z</time>
  <course>275.5</course>
  <speed>0.32062439083762795</speed>
  <fix>3d</fix>
</trkpt>
<trkpt lat="33.8098909" lon="-118.3939399">
  <ele>-31.26</ele>
  <time>2026-09-02T22:07:56Z</time>
  <course>273.12</course>
  <speed>0.62</speed>
  <fix>3d</fix>
</trkpt>
<trkpt lat="33.809891" lon="-118.3939411">
  <ele>-32.009</ele>
  <time>2026-09-02T22:07:56Z</time>
  <course>276.71</course>
  <speed>0.27018512172212594</speed>
  <fix>3d</fix>
</trkpt>
<trkpt lat="33.809891" lon="-118.393941">
  <ele>-31.25</ele>
  <time>2026-09-02T22:07:56Z</time>
  <course>272.38</course>
  <speed>0.39</speed>
  <fix>3d</fix>
</trkpt>
<trkpt lat="33.809891" lon="-118.3939414">
  <ele>-32.007</ele>
  <time>2026-09-02T22:07:56Z</time>
  <course>278.33</course>
  <speed>0.24020824298928628</speed>
  <fix>3d</fix>
</trkpt>
<trkpt lat="33.809891" lon="-118.393941">
  <ele>-31.25</ele>
  <time>2026-09-02T22:07:56Z</time>
  <course>272.38</course>
  <speed>0.39</speed>
  <fix>3d</fix>
</trkpt>
<trkpt lat="33.809891" lon="-118.3939417">
  <ele>-32.008</ele>
  <time>2026-09-02T22:07:56Z</time>
  <course>280.15</course>
  <speed>0.21</speed>
  <fix>3d</fix>
</trkpt>
<trkpt lat="33.809891" lon="-118.3939418">
  <ele>-31.25</ele>
  <time>2026-09-02T22:07:56Z</time>
  <course>271.42</course>
  <speed>0.28</speed>
  <fix>3d</fix>
</trkpt>
<trkpt lat="33.809891" lon="-118.393942">
  <ele>-32.01</ele>
  <time>2026-09-02T22:07:56Z</time>
  <course>282.08</course>
  <speed>0.19</speed>
  <fix>3d</fix>
</trkpt>
<trkpt lat="33.809891" lon="-118.3939418">
  <ele>-31.25</ele>
  <time>2026-09-02T22:07:56Z</time>
  <course>271.42</course>
  <speed>0.28</speed>
  <fix>3d</fix>
</trkpt>
<trkpt lat="33.809891" lon="-118.3939422">
  <ele>-32.013</ele>
  <time>2026-09-02T22:07:56Z</time>
  <course>284.11</course>
  <speed>0.17</speed>
  <fix>3d</fix>
</trkpt>
<trkpt lat="33.809891" lon="-118.3939423">
  <ele>-31.25</ele>
  <time>2026-09-02T22:07:56Z</time>
  <course>270.06</course>
  <speed>0.22</speed>
  <fix>3d</fix>
</trkpt>
<trkpt lat="33.809891" lon="-118.3939424">
  <ele>-32.016</ele>
  <time>2026-09-02T22:07:56Z</time>
  <course>286.2</course>
  <speed>0.16</speed>
  <fix>3d</fix>
</trkpt>
<trkpt lat="33.809891" lon="-118.3939423">
  <ele>-31.25</ele>
  <time>2026-09-02T22:07:56Z</time>
  <course>270.06</course>
  <speed>0.22</speed>
  <fix>3d</fix>
</trkpt>
<trkpt lat="33.809891" lon="-118.3939426">
  <ele>-32.018</ele>
  <time>2026-09-02T22:07:56Z</time>
  <course>288.34</course>
  <speed>0.15</speed>
  <fix>3d</fix>
</trkpt>
<trkpt lat="33.809891" lon="-118.3939428">
  <ele>-31.25</ele>
  <time>2026-09-02T22:07:56Z</time>
  <course>268.48</course>
  <speed>0.19</speed>
  <fix>3d</fix>
</trkpt>
<trkpt lat="33.809891" lon="-118.3939428">
  <ele>-32.019</ele>
  <time>2026-09-02T22:07:56Z</time>
  <course>290.53</course>
  <speed>0.14</speed>
  <fix>3d</fix>
</trkpt>
<trkpt lat="33.809891" lon="-118.3939428">
  <ele>-31.25</ele>
  <time>2026-09-02T22:07:56Z</time>
  <course>268.48</course>
  <speed>0.19</speed>
  <fix>3d</fix>
</trkpt>
<trkpt lat="33.809891" lon="-118.393943">
  <ele>-32.019</ele>
  <time>2026-09-02T22:07:56Z</time>
  <course>292.75</course>
  <speed>0.13</speed>
  <fix>3d</fix>
</trkpt>
<trkpt lat="33.809891" lon="-118.3939432">
  <ele>-31.25</ele>
  <time>2026-09-02T22:07:56Z</time>
  <course>266.99</course>
  <speed>0.16</speed>
  <fix>3d</fix>
</trkpt>
<trkpt lat="33.809891" lon="-118.3939432">
  <ele>-32.018</ele>
  <time>2026-09-02T22:07:56Z</time>
  <course>295.01</course>
  <speed>0.12</speed>
  <fix>3d</fix>
</trkpt>
<trkpt lat="33.809891" lon="-118.3939432">
  <ele>-31.25</ele>
  <time>2026-09-02T22:07:56Z</time>
  <course>266.99</course>
  <speed>0.16</speed>
  <fix>3d</fix>
</trkpt>
<trkpt lat="33.809891" lon="-118.3939433">
  <ele>-32.016</ele>
  <time>2026-09-02T22:07:56Z</time>
  <course>297.3</course>
  <speed>0.11</speed>
  <fix>3d</fix>
</trkpt>
<trkpt lat="33.809891" lon="-118.3939435">
  <ele>-31.25</ele>
  <time>2026-09-02T22:07:56Z</time>
  <course>265.83</course>
  <speed>0.14</speed>
  <fix>3d</fix>
</trkpt>
<trkpt lat="33.809891" lon="-118.3939435">
  <ele>-32.013</ele>
  <time>2026-09-02T22:07:56Z</time>
  <course>299.61</course>
  <speed>0.11</speed>
  <fix>3d</fix>
</trkpt>
<trkpt lat="33.809891" lon="-118.3939435">
  <ele>-31.25</ele>
  <time>2026-09-02T22:07:56Z</time>
  <course>265.83</course>
  <speed>0.14</speed>
  <fix>3d</fix>
</trkpt>
<trkpt lat="33.809891" lon="-118.3939436">
  <ele>-32.01</ele>
  <time>2026-09-02T22:07:56Z</time>
  <course>301.94</course>
  <speed>0.1</speed>
  <fix>3d</fix>
</trkpt>
<trkpt lat="33.809891" lon="-118.3939438">
  <ele>-31.25</ele>
  <time>2026-09-02T22:07:56Z</time>
  <course>265.11</course>
  <speed>0.13</speed>
  <fix>3d</fix>
</trkpt>
<trkpt lat="33.809891" lon="-118.3939438">
  <ele>-32.008</ele>
  <time>2026-09-02T22:07:56Z</time>
  <course>304.29</course>
  <speed>0.1</speed>
  <fix>3d</fix>
</trkpt>
<trkpt lat="33.809891" lon="-118.3939438">
  <ele>-31.25</ele>
  <time>2026-09-02T22:07:56Z</time>
  <course>265.11</course>
  <speed>0.13</speed>
  <fix>3d</fix>
</trkpt>
<trkpt lat="33.809891" lon="-118.3939439">
  <ele>-32.004</ele>
  <time>2026-09-02T22:07:56Z</time>
  <course>306.67</course>
  <speed>0.09</speed>
  <fix>3d</fix>
</trkpt>
<trkpt lat="33.809891" lon="-118.3939441">
  <ele>-31.24</ele>
  <time>2026-09-02T22:07:56Z</time>
  <course>264.82</course>
  <speed>0.11</speed>
  <fix>3d</fix>
</trkpt>
<trkpt lat="33.809891" lon="-118.3939441">
  <ele>-32.001</ele>
  <time>2026-09-02T22:07:56Z</time>
  <course>309.04</course>
  <speed>0.09</speed>
  <fix>3d</fix>
</trkpt>
<trkpt lat="33.809891" lon="-118.3939441">
  <ele>-31.24</ele>
  <time>2026-09-02T22:07:56Z</time>
  <course>264.82</course>
  <speed>0.11</speed>
  <fix>3d</fix>
</trkpt>
<trkpt lat="33.809891" lon="-118.3939442">
  <ele>-31.997</ele>
  <time>2026-09-02T22:07:56Z</time>
  <course>311.46</course>
  <speed>0.08</speed>
  <fix>3d</fix>
</trkpt>
<trkpt lat="33.809891" lon="-118.3939442">
  <ele>-31.24</ele>
  <time>2026-09-02T22:07:56Z</time>
  <course>264.95</course>
  <speed>0.11</speed>
  <fix>3d</fix>
</trkpt>
<trkpt lat="33.809891" lon="-118.3939443">
  <ele>-31.994</ele>
  <time>2026-09-02T22:07:56Z</time>
  <course>313.87</course>
  <speed>0.08</speed>
  <fix>3d</fix>
</trkpt>
<trkpt lat="33.809891" lon="-118.3939442">
  <ele>-31.24</ele>
  <time>2026-09-02T22:07:56Z</time>
  <course>264.95</course>
  <speed>0.11</speed>
  <fix>3d</fix>
</trkpt>
<trkpt lat="33.809891" lon="-118.3939444">
  <ele>-31.99</ele>
  <time>2026-09-02T22:07:56Z</time>
  <course>316.29</course>
  <speed>0.08</speed>
  <fix>3d</fix>
</trkpt>
<trkpt lat="33.809891" lon="-118.3939445">
  <ele>-31.23</ele>
  <time>2026-09-02T22:07:56Z</time>
  <course>265.43</course>
  <speed>0.1</speed>
  <fix>3d</fix>
</trkpt>
<trkpt lat="33.809891" lon="-118.3939445">
  <ele>-31.985</ele>
  <time>2026-09-02T22:07:56Z</time>
  <course>318.71</course>
  <speed>0.07</speed>
  <fix>3d</fix>
</trkpt>
<trkpt lat="33.809891" lon="-118.3939445">
  <ele>-31.23</ele>
  <time>2026-09-02T22:07:56Z</time>
  <course>265.43</course>
  <speed>0.1</speed>
  <fix>3d</fix>
</trkpt>
<trkpt lat="33.809891" lon="-118.3939446">
  <ele>-31.979</ele>
  <time>2026-09-02T22:07:56Z</time>
  <course>321.14</course>
  <speed>0.07071067811865475</speed>
  <fix>3d</fix>
</trkpt>
<trkpt lat="33.809891" lon="-118.3939447">
  <ele>-31.22</ele>
  <time>2026-09-02T22:07:56Z</time>
  <course>266.16</course>
  <speed>0.09</speed>
  <fix>3d</fix>
</trkpt>
<trkpt lat="33.809891" lon="-118.3939447">
  <ele>-31.971</ele>
  <time>2026-09-02T22:07:56Z</time>
  <course>323.59</course>
  <speed>0.07071067811865475</speed>
  <fix>3d</fix>
</trkpt>
<trkpt lat="33.809891" lon="-118.3939447">
  <ele>-31.22</ele>
  <time>2026-09-02T22:07:56Z</time>
  <course>266.16</course>
  <speed>0.09</speed>
  <fix>3d</fix>
</trkpt>
<trkpt lat="33.809891" lon="-118.3939448">
  <ele>-31.964</ele>
  <time>2026-09-02T22:07:56Z</time>
  <course>326.04</course>
  <speed>0.06082762530298219</speed>
  <fix>3d</fix>
</trkpt>
<trkpt lat="33.809891" lon="-118.393945">
  <ele>-31.21</ele>
  <time>2026-09-02T22:07:56Z</time>
  <course>267.06</course>
  <speed>0.08</speed>
  <fix>3d</fix>
</trkpt>
<trkpt lat="33.809891" lon="-118.3939449">
  <ele>-31.956</ele>
  <time>2026-09-02T22:07:56Z</time>
  <course>328.5</course>
  <speed>0.06082762530298219</speed>
  <fix>3d</fix>
</trkpt>
<trkpt lat="33.809891" lon="-118.393945">
  <ele>-31.21</ele>
  <time>2026-09-02T22:07:56Z</time>
  <course>267.06</course>
  <speed>0.08</speed>
  <fix>3d</fix>
</trkpt>
<trkpt lat="33.809891" lon="-118.393945">
  <ele>-31.95</ele>
  <time>2026-09-02T22:07:56Z</time>
  <course>330.95</course>
  <speed>0.06082762530298219</speed>
  <fix>3d</fix>
</trkpt>
<trkpt lat="33.809891" lon="-118.3939451">
  <ele>-31.2</ele>
  <time>2026-09-02T22:07:56Z</time>
  <course>268.1</course>
  <speed>0.08</speed>
  <fix>3d</fix>
</trkpt>
<trkpt lat="33.809891" lon="-118.3939451">
  <ele>-31.944</ele>
  <time>2026-09-02T22:07:56Z</time>
  <course>333.4</course>
  <speed>0.06082762530298219</speed>
  <fix>3d</fix>
</trkpt>
<trkpt lat="33.809891" lon="-118.3939451">
  <ele>-31.2</ele>
  <time>2026-09-02T22:07:56Z</time>
  <course>268.1</course>
  <speed>0.08</speed>
  <fix>3d</fix>
</trkpt>
<trkpt lat="33.809891" lon="-118.3939451">
  <ele>-31.94</ele>
  <time>2026-09-02T22:07:56Z</time>
  <course>335.86</course>
  <speed>0.05099019513592785</speed>
  <fix>3d</fix>
</trkpt>
<trkpt lat="33.809891" lon="-118.3939452">
  <ele>-31.18</ele>
  <time>2026-09-02T22:07:56Z</time>
  <course>269.19</course>
  <speed>0.07</speed>
  <fix>3d</fix>
</trkpt>
<trkpt lat="33.809891" lon="-118.3939452">
  <ele>-31.938</ele>
  <time>2026-09-02T22:07:56Z</time>
  <course>338.31</course>
  <speed>0.05099019513592785</speed>
  <fix>3d</fix>
</trkpt>
<trkpt lat="33.809891" lon="-118.3939452">
  <ele>-31.18</ele>
  <time>2026-09-02T22:07:56Z</time>
  <course>269.19</course>
  <speed>0.07</speed>
  <fix>3d</fix>
</trkpt>
<trkpt lat="33.809891" lon="-118.3939453">
  <ele>-31.937</ele>
  <time>2026-09-02T22:07:56Z</time>
  <course>340.78</course>
  <speed>0.05099019513592785</speed>
  <fix>3d</fix>
</trkpt>
<trkpt lat="33.809891" lon="-118.3939455">
  <ele>-31.17</ele>
  <time>2026-09-02T22:07:56Z</time>
  <course>270.3</course>
  <speed>0.07</speed>
  <fix>3d</fix>
</trkpt>
<trkpt lat="33.809891" lon="-118.3939454">
  <ele>-31.938</ele>
  <time>2026-09-02T22:07:56Z</time>
  <course>343.25</course>
  <speed>0.053851648071345036</speed>
  <fix>3d</fix>
</trkpt>
<trkpt lat="33.809891" lon="-118.3939455">
  <ele>-31.17</ele>
  <time>2026-09-02T22:07:56Z</time>
  <course>270.3</course>
  <speed>0.07</speed>
  <fix>3d</fix>
</trkpt>
<trkpt lat="33.8098911" lon="-118.3939454">
  <ele>-31.941</ele>
  <time>2026-09-02T22:07:56Z</time>
  <course>345.72</course>
  <speed>0.044721359549995794</speed>
  <fix>3d</fix>
</trkpt>
<trkpt lat="33.809891" lon="-118.3939456">
  <ele>-31.17</ele>
  <time>2026-09-02T22:07:56Z</time>
  <course>271.38</course>
  <speed>0.06</speed>
  <fix>3d</fix>
</trkpt>
<trkpt lat="33.8098911" lon="-118.3939455">
  <ele>-31.944</ele>
  <time>2026-09-02T22:07:56Z</time>
  <course>348.19</course>
  <speed>0.044721359549995794</speed>
  <fix>3d</fix>
</trkpt>
<trkpt lat="33.809891" lon="-118.3939456">
  <ele>-31.17</ele>
  <time>2026-09-02T22:07:56Z</time>
  <course>271.38</course>
  <speed>0.06</speed>
  <fix>3d</fix>
</trkpt>
<trkpt lat="33.8098911" lon="-118.3939456">
  <ele>-31.946</ele>
  <time>2026-09-02T22:07:56Z</time>
  <course>350.66</course>
  <speed>0.044721359549995794</speed>
  <fix>3d</fix>
</trkpt>
<trkpt lat="33.809891" lon="-118.3939457">
  <ele>-31.17</ele>
  <time>2026-09-02T22:07:56Z</time>
  <course>272.36</course>
  <speed>0.06</speed>
  <fix>3d</fix>
</trkpt>
<trkpt lat="33.8098911" lon="-118.3939456">
  <ele>-31.949</ele>
  <time>2026-09-02T22:07:56Z</time>
  <course>353.14</course>
  <speed>0.044721359549995794</speed>
  <fix>3d</fix>
</trkpt>
<trkpt lat="33.809891" lon="-118.3939457">
  <ele>-31.17</ele>
  <time>2026-09-02T22:07:56Z</time>
  <course>272.36</course>
  <speed>0.06</speed>
  <fix>3d</fix>
</trkpt>
<trkpt lat="33.8098911" lon="-118.3939457">
  <ele>-31.951</ele>
  <time>2026-09-02T22:07:56Z</time>
  <course>355.61</course>
  <speed>0.03605551275463989</speed>
  <fix>3d</fix>
</trkpt>
<trkpt lat="33.809891" lon="-118.3939459">
  <ele>-31.18</ele>
  <time>2026-09-02T22:07:56Z</time>
  <course>273.14</course>
  <speed>0.05</speed>
  <fix>3d</fix>
</trkpt>
<trkpt lat="33.8098911" lon="-118.3939458">
  <ele>-31.953</ele>
  <time>2026-09-02T22:07:56Z</time>
  <course>358.09</course>
  <speed>0.03605551275463989</speed>
  <fix>3d</fix>
</trkpt>
<trkpt lat="33.809891" lon="-118.3939459">
  <ele>-31.18</ele>
  <time>2026-09-02T22:07:56Z</time>
  <course>273.14</course>
  <speed>0.05</speed>
  <fix>3d</fix>
</trkpt>
<trkpt lat="33.8098911" lon="-118.3939458">
  <ele>-31.956</ele>
  <time>2026-09-02T22:07:56Z</time>
  <course>0.55</course>
  <speed>0.03605551275463989</speed>
  <fix>3d</fix>
</trkpt>
<trkpt lat="33.809891" lon="-118.393946">
  <ele>-31.19</ele>
  <time>2026-09-02T22:07:56Z</time>
  <course>273.69</course>
  <speed>0.05</speed>
  <fix>3d</fix>
</trkpt>
<trkpt lat="33.8098911" lon="-118.3939459">
  <ele>-31.962</ele>
  <time>2026-09-02T22:07:56Z</time>
  <course>3.05</course>
  <speed>0.03605551275463989</speed>
  <fix>3d</fix>
</trkpt>
<trkpt lat="33.809891" lon="-118.393946">
  <ele>-31.19</ele>
  <time>2026-09-02T22:07:56Z</time>
  <course>273.69</course>
  <speed>0.05</speed>
  <fix>3d</fix>
</trkpt>
<trkpt lat="33.8098911" lon="-118.3939459">
  <ele>-31.97</ele>
  <time>2026-09-02T22:07:56Z</time>
  <course>5.52</course>
  <speed>0.03605551275463989</speed>
  <fix>3d</fix>
</trkpt>
<trkpt lat="33.809891" lon="-118.3939461">
  <ele>-31.19</ele>
  <time>2026-09-02T22:07:56Z</time>
  <course>273.97</course>
  <speed>0.05</speed>
  <fix>3d</fix>
</trkpt>
<trkpt lat="33.8098911" lon="-118.393946">
  <ele>-31.979</ele>
  <time>2026-09-02T22:07:56Z</time>
  <course>7.99</course>
  <speed>0.03605551275463989</speed>
  <fix>3d</fix>
</trkpt>
<trkpt lat="33.809891" lon="-118.3939461">
  <ele>-31.19</ele>
  <time>2026-09-02T22:07:56Z</time>
  <course>273.97</course>
  <speed>0.05</speed>
  <fix>3d</fix>
</trkpt>
<trkpt lat="33.8098911" lon="-118.393946">
  <ele>-31.986</ele>
  <time>2026-09-02T22:07:56Z</time>
  <course>10.45</course>
  <speed>0.0316227766016838</speed>
  <fix>3d</fix>
</trkpt>
<trkpt lat="33.809891" lon="-118.3939462">
  <ele>-31.21</ele>
  <time>2026-09-02T22:07:56Z</time>
  <course>273.97</course>
  <speed>0.04</speed>
  <fix>3d</fix>
</trkpt>
<trkpt lat="33.8098911" lon="-118.3939461">
  <ele>-31.992</ele>
  <time>2026-09-02T22:07:56Z</time>
  <course>12.92</course>
  <speed>0.022360679774997897</speed>
  <fix>3d</fix>
</trkpt>
<trkpt lat="33.809891" lon="-118.3939462">
  <ele>-31.21</ele>
  <time>2026-09-02T22:07:56Z</time>
  <course>273.97</course>
  <speed>0.04</speed>
  <fix>3d</fix>
</trkpt>
<trkpt lat="33.8098911" lon="-118.3939461">
  <ele>-31.996</ele>
  <time>2026-09-02T22:07:56Z</time>
  <course>15.39</course>
  <speed>0.022360679774997897</speed>
  <fix>3d</fix>
</trkpt>
<trkpt lat="33.809891" lon="-118.3939463">
  <ele>-31.22</ele>
  <time>2026-09-02T22:07:56Z</time>
  <course>273.75</course>
  <speed>0.04</speed>
  <fix>3d</fix>
</trkpt>
<trkpt lat="33.8098911" lon="-118.3939462">
  <ele>-32.0</ele>
  <time>2026-09-02T22:07:56Z</time>
  <course>17.85</course>
  <speed>0.022360679774997897</speed>
  <fix>3d</fix>
</trkpt>
<trkpt lat="33.809891" lon="-118.3939463">
  <ele>-31.22</ele>
  <time>2026-09-02T22:07:56Z</time>
  <course>273.75</course>
  <speed>0.04</speed>
  <fix>3d</fix>
</trkpt>
<trkpt lat="33.8098911" lon="-118.3939462">
  <ele>-32.002</ele>
  <time>2026-09-02T22:07:56Z</time>
  <course>20.31</course>
  <speed>0.022360679774997897</speed>
  <fix>3d</fix>
</trkpt>
<trkpt lat="33.809891" lon="-118.3939464">
  <ele>-31.23</ele>
  <time>2026-09-02T22:07:56Z</time>
  <course>273.32</course>
  <speed>0.04</speed>
  <fix>3d</fix>
</trkpt>
<trkpt lat="33.8098911" lon="-118.3939463">
  <ele>-32.004</ele>
  <time>2026-09-02T22:07:56Z</time>
  <course>22.78</course>
  <speed>0.022360679774997897</speed>
  <fix>3d</fix>
</trkpt>
<trkpt lat="33.809891" lon="-118.3939464">
  <ele>-31.23</ele>
  <time>2026-09-02T22:07:56Z</time>
  <course>273.32</course>
  <speed>0.04</speed>
  <fix>3d</fix>
</trkpt>
<trkpt lat="33.8098911" lon="-118.3939463">
  <ele>-32.005</ele>
  <time>2026-09-02T22:07:56Z</time>
  <course>25.24</course>
  <speed>0.022360679774997897</speed>
  <fix>3d</fix>
</trkpt>
<trkpt lat="33.809891" lon="-118.3939465">
  <ele>-31.23</ele>
  <time>2026-09-02T22:07:56Z</time>
  <course>272.78</course>
  <speed>0.04</speed>
  <fix>3d</fix>
</trkpt>
<trkpt lat="33.8098911" lon="-118.3939464">
  <ele>-32.006</ele>
  <time>2026-09-02T22:07:56Z</time>
  <course>27.7</course>
  <speed>0.022360679774997897</speed>
  <fix>3d</fix>
</trkpt>
<trkpt lat="33.809891" lon="-118.3939465">
  <ele>-31.23</ele>
  <time>2026-09-02T22:07:56Z</time>
  <course>272.78</course>
  <speed>0.04</speed>
  <fix>3d</fix>
</trkpt>
<trkpt lat="33.8098911" lon="-118.3939464">
  <ele>-32.007</ele>
  <time>2026-09-02T22:07:56Z</time>
  <course>30.16</course>
  <speed>0.022360679774997897</speed>
  <fix>3d</fix>
</trkpt>
<trkpt lat="33.809891" lon="-118.3939466">
  <ele>-31.24</ele>
  <time>2026-09-02T22:07:56Z</time>
  <course>272.2</course>
  <speed>0.03</speed>
  <fix>3d</fix>
</trkpt>
<trkpt lat="33.8098911" lon="-118.3939465">
  <ele>-32.009</ele>
  <time>2026-09-02T22:07:56Z</time>
  <course>32.61</course>
  <speed>0.022360679774997897</speed>
  <fix>3d</fix>
</trkpt>
<trkpt lat="33.809891" lon="-118.3939466">
  <ele>-31.24</ele>
  <time>2026-09-02T22:07:56Z</time>
  <course>272.2</course>
  <speed>0.03</speed>
  <fix>3d</fix>
</trkpt>
<trkpt lat="33.8098911" lon="-118.3939465">
  <ele>-32.01</ele>
  <time>2026-09-02T22:07:56Z</time>
  <course>35.07</course>
  <speed>0.022360679774997897</speed>
  <fix>3d</fix>
</trkpt>
<trkpt lat="33.809891" lon="-118.3939467">
  <ele>-31.24</ele>
  <time>2026-09-02T22:07:56Z</time>
  <course>271.62</course>
  <speed>0.03</speed>
  <fix>3d</fix>
</trkpt>
<trkpt lat="33.8098911" lon="-118.3939465">
  <ele>-32.012</ele>
  <time>2026-09-02T22:07:56Z</time>
  <course>37.52</course>
  <speed>0.02</speed>
  <fix>3d</fix>
</trkpt>
<trkpt lat="33.809891" lon="-118.3939467">
  <ele>-31.24</ele>
  <time>2026-09-02T22:07:56Z</time>
  <course>271.62</course>
  <speed>0.03</speed>
  <fix>3d</fix>
</trkpt>
<trkpt lat="33.8098911" lon="-118.3939466">
  <ele>-32.015</ele>
  <time>2026-09-02T22:07:56Z</time>
  <course>39.97</course>
  <speed>0.02</speed>
  <fix>3d</fix>
</trkpt>
<trkpt lat="33.809891" lon="-118.3939467">
  <ele>-31.25</ele>
  <time>2026-09-02T22:07:56Z</time>
  <course>271.08</course>
  <speed>0.03</speed>
  <fix>3d</fix>
</trkpt>
<trkpt lat="33.8098911" lon="-118.3939466">
  <ele>-32.018</ele>
  <time>2026-09-02T22:07:56Z</time>
  <course>42.43</course>
  <speed>0.01</speed>
  <fix>3d</fix>
</trkpt>
<trkpt lat="33.809891" lon="-118.3939467">
  <ele>-31.25</ele>
  <time>2026-09-02T22:07:56Z</time>
  <course>271.08</course>
  <speed>0.03</speed>
  <fix>3d</fix>
</trkpt>
<trkpt lat="33.8098911" lon="-118.3939467">
  <ele>-32.018</ele>
  <time>2026-09-02T22:07:56Z</time>
  <course>44.88</course>
  <speed>0.01</speed>
  <fix>3d</fix>
</trkpt>
<trkpt lat="33.809891" lon="-118.3939468">
  <ele>-31.25</ele>
  <time>2026-09-02T22:07:56Z</time>
  <course>270.64</course>
  <speed>0.03</speed>
  <fix>3d</fix>
</trkpt>
<trkpt lat="33.8098911" lon="-118.3939467">
  <ele>-32.018</ele>
  <time>2026-09-02T22:07:56Z</time>
  <course>47.33</course>
  <speed>0.01</speed>
  <fix>3d</fix>
</trkpt>
<trkpt lat="33.809891" lon="-118.3939468">
  <ele>-31.25</ele>
  <time>2026-09-02T22:07:56Z</time>
  <course>270.64</course>
  <speed>0.03</speed>
  <fix>3d</fix>
</trkpt>
<trkpt lat="33.8098911" lon="-118.3939467">
  <ele>-32.017</ele>
  <time>2026-09-02T22:07:56Z</time>
  <course>49.78</course>
  <speed>0.01</speed>
  <fix>3d</fix>
</trkpt>
<trkpt lat="33.809891" lon="-118.3939469">
  <ele>-31.25</ele>
  <time>2026-09-02T22:07:56Z</time>
  <course>270.35</course>
  <speed>0.03</speed>
  <fix>3d</fix>
</trkpt>
<trkpt lat="33.8098911" lon="-118.3939468">
  <ele>-32.016</ele>
  <time>2026-09-02T22:07:56Z</time>
  <course>52.26</course>
  <speed>0.01</speed>
  <fix>3d</fix>
</trkpt>
<trkpt lat="33.809891" lon="-118.3939469">
  <ele>-31.25</ele>
  <time>2026-09-02T22:07:56Z</time>
  <course>270.35</course>
  <speed>0.03</speed>
  <fix>3d</fix>
</trkpt>
<trkpt lat="33.8098911" lon="-118.3939468">
  <ele>-32.014</ele>
  <time>2026-09-02T22:07:56Z</time>
  <course>54.71</course>
  <speed>0.01</speed>
  <fix>3d</fix>
</trkpt>
<trkpt lat="33.809891" lon="-118.393947">
  <ele>-31.25</ele>
  <time>2026-09-02T22:07:56Z</time>
  <course>270.21</course>
  <speed>0.03</speed>
  <fix>3d</fix>
</trkpt>
<trkpt lat="33.8098911" lon="-118.3939468">
  <ele>-32.01</ele>
  <time>2026-09-02T22:07:56Z</time>
  <course>57.16</course>
  <speed>0.01</speed>
  <fix>3d</fix>
</trkpt>
<trkpt lat="33.809891" lon="-118.393947">
  <ele>-31.25</ele>
  <time>2026-09-02T22:07:56Z</time>
  <course>270.21</course>
  <speed>0.03</speed>
  <fix>3d</fix>
</trkpt>
<trkpt lat="33.8098911" lon="-118.3939469">
  <ele>-32.005</ele>
  <time>2026-09-02T22:07:56Z</time>
  <course>59.61</course>
  <speed>0.01</speed>
  <fix>3d</fix>
</trkpt>
<trkpt lat="33.809891" lon="-118.3939471">
  <ele>-31.24</ele>
  <time>2026-09-02T22:07:56Z</time>
  <course>270.25</course>
  <speed>0.03</speed>
  <fix>3d</fix>
</trkpt>
<trkpt lat="33.8098911" lon="-118.3939469">
  <ele>-32.0</ele>
  <time>2026-09-02T22:07:56Z</time>
  <course>62.07</course>
  <speed>0.01</speed>
  <fix>3d</fix>
</trkpt>
<trkpt lat="33.809891" lon="-118.3939471">
  <ele>-31.24</ele>
  <time>2026-09-02T22:07:56Z</time>
  <course>270.25</course>
  <speed>0.03</speed>
  <fix>3d</fix>
</trkpt>
<trkpt lat="33.8098911" lon="-118.393947">
  <ele>-31.994</ele>
  <time>2026-09-02T22:07:56Z</time>
  <course>64.52</course>
  <speed>0.01</speed>
  <fix>3d</fix>
</trkpt>
<trkpt lat="33.809891" lon="-118.3939471">
  <ele>-31.23</ele>
  <time>2026-09-02T22:07:56Z</time>
  <course>270.4</course>
  <speed>0.03</speed>
  <fix>3d</fix>
</trkpt>
<trkpt lat="33.8098911" lon="-118.393947">
  <ele>-31.987</ele>
  <time>2026-09-02T22:07:56Z</time>
  <course>66.97</course>
  <speed>0.01</speed>
  <fix>3d</fix>
</trkpt>
<trkpt lat="33.809891" lon="-118.3939471">
  <ele>-31.23</ele>
  <time>2026-09-02T22:07:56Z</time>
  <course>270.4</course>
  <speed>0.03</speed>
  <fix>3d</fix>
</trkpt>
<trkpt lat="33.8098911" lon="-118.393947">
  <ele>-31.98</ele>
  <time>2026-09-02T22:07:56Z</time>
  <course>69.42</course>
  <speed>0.01</speed>
  <fix>3d</fix>
</trkpt>
<trkpt lat="33.809891" lon="-118.3939472">
  <ele>-31.22</ele>
  <time>2026-09-02T22:07:56Z</time>
  <course>270.57</course>
  <speed>0.03</speed>
  <fix>3d</fix>
</trkpt>
<trkpt lat="33.8098911" lon="-118.3939471">
  <ele>-31.973</ele>
  <time>2026-09-02T22:07:56Z</time>
  <course>71.88</course>
  <speed>0.01</speed>
  <fix>3d</fix>
</trkpt>
<trkpt lat="33.809891" lon="-118.3939472">
  <ele>-31.22</ele>
  <time>2026-09-02T22:07:56Z</time>
  <course>270.57</course>
  <speed>0.03</speed>
  <fix>3d</fix>
</trkpt>
<trkpt lat="33.8098911" lon="-118.3939471">
  <ele>-31.968</ele>
  <time>2026-09-02T22:07:56Z</time>
  <course>74.33</course>
  <speed>0.01</speed>
  <fix>3d</fix>
</trkpt>
<trkpt lat="33.809891" lon="-118.3939473">
  <ele>-31.2</ele>
  <time>2026-09-02T22:07:56Z</time>
  <course>270.77</course>
  <speed>0.03</speed>
  <fix>3d</fix>
</trkpt>
<trkpt lat="33.8098911" lon="-118.3939471">
  <ele>-31.963</ele>
  <time>2026-09-02T22:07:56Z</time>
  <course>76.77</course>
  <speed>0.01</speed>
  <fix>3d</fix>
</trkpt>
<trkpt lat="33.809891" lon="-118.3939473">
  <ele>-31.2</ele>
  <time>2026-09-02T22:07:56Z</time>
  <course>270.77</course>
  <speed>0.03</speed>
  <fix>3d</fix>
</trkpt>
<trkpt lat="33.8098911" lon="-118.3939472">
  <ele>-31.957</ele>
  <time>2026-09-02T22:07:56Z</time>
  <course>79.21</course>
  <speed>0.01</speed>
  <fix>3d</fix>
</trkpt>
<trkpt lat="33.809891" lon="-118.3939473">
  <ele>-31.19</ele>
  <time>2026-09-02T22:07:56Z</time>
  <course>271.01</course>
  <speed>0.03</speed>
  <fix>3d</fix>
</trkpt>
<trkpt lat="33.8098911" lon="-118.3939472">
  <ele>-31.95</ele>
  <time>2026-09-02T22:07:56Z</time>
  <course>81.65</course>
  <speed>0.01</speed>
  <fix>3d</fix>
</trkpt>
<trkpt lat="33.809891" lon="-118.3939473">
  <ele>-31.19</ele>
  <time>2026-09-02T22:07:56Z</time>
  <course>271.01</course>
  <speed>0.03</speed>
  <fix>3d</fix>
</trkpt>
<trkpt lat="33.8098911" lon="-118.3939472">
  <ele>-31.943</ele>
  <time>2026-09-02T22:07:56Z</time>
  <course>84.08</course>
  <speed>0.01</speed>
  <fix>3d</fix>
</trkpt>
<trkpt lat="33.809891" lon="-118.3939474">
  <ele>-31.18</ele>
  <time>2026-09-02T22:07:56Z</time>
  <course>271.24</course>
  <speed>0.02</speed>
  <fix>3d</fix>
</trkpt>
<trkpt lat="33.8098911" lon="-118.3939473">
  <ele>-31.938</ele>
  <time>2026-09-02T22:07:56Z</time>
  <course>86.51</course>
  <speed>0.01</speed>
  <fix>3d</fix>
</trkpt>
<trkpt lat="33.809891" lon="-118.3939474">
  <ele>-31.18</ele>
  <time>2026-09-02T22:07:56Z</time>
  <course>271.24</course>
  <speed>0.02</speed>
  <fix>3d</fix>
</trkpt>
<trkpt lat="33.809891" lon="-118.3939473">
  <ele>-31.935</ele>
  <time>2026-09-02T22:07:56Z</time>
  <course>88.94</course>
  <speed>0.01</speed>
  <fix>3d</fix>
</trkpt>
<trkpt lat="33.809891" lon="-118.3939475">
  <ele>-31.18</ele>
  <time>2026-09-02T22:07:56Z</time>
  <course>271.33</course>
  <speed>0.02</speed>
  <fix>3d</fix>
</trkpt>
<trkpt lat="33.809891" lon="-118.3939473">
  <ele>-31.933</ele>
  <time>2026-09-02T22:07:56Z</time>
  <course>91.37</course>
  <speed>0.01</speed>
  <fix>3d</fix>
</trkpt>
<trkpt lat="33.809891" lon="-118.3939475">
  <ele>-31.18</ele>
  <time>2026-09-02T22:07:56Z</time>
  <course>271.33</course>
  <speed>0.02</speed>
  <fix>3d</fix>
</trkpt>
<trkpt lat="33.809891" lon="-118.3939474">
  <ele>-31.933</ele>
  <time>2026-09-02T22:07:56Z</time>
  <course>93.79</course>
  <speed>0.01</speed>
  <fix>3d</fix>
</trkpt>
<trkpt lat="33.809891" lon="-118.3939475">
  <ele>-31.18</ele>
  <time>2026-09-02T22:07:56Z</time>
  <course>271.28</course>
  <speed>0.02</speed>
  <fix>3d</fix>
</trkpt>
<trkpt lat="33.809891" lon="-118.3939474">
  <ele>-31.934</ele>
  <time>2026-09-02T22:07:56Z</time>
  <course>96.22</course>
  <speed>0.01</speed>
  <fix>3d</fix>
</trkpt>
<trkpt lat="33.809891" lon="-118.3939475">
  <ele>-31.18</ele>
  <time>2026-09-02T22:07:56Z</time>
  <course>271.28</course>
  <speed>0.02</speed>
  <fix>3d</fix>
</trkpt>
<trkpt lat="33.809891" lon="-118.3939474">
  <ele>-31.937</ele>
  <time>2026-09-02T22:07:56Z</time>
  <course>98.65</course>
  <speed>0.01</speed>
  <fix>3d</fix>
</trkpt>
<trkpt lat="33.809891" lon="-118.3939476">
  <ele>-31.18</ele>
  <time>2026-09-02T22:07:56Z</time>
  <course>271.14</course>
  <speed>0.02</speed>
  <fix>3d</fix>
</trkpt>
<trkpt lat="33.809891" lon="-118.3939475">
  <ele>-31.94</ele>
  <time>2026-09-02T22:07:56Z</time>
  <course>101.08</course>
  <speed>0.01</speed>
  <fix>3d</fix>
</trkpt>
<trkpt lat="33.809891" lon="-118.3939476">
  <ele>-31.18</ele>
  <time>2026-09-02T22:07:56Z</time>
  <course>271.14</course>
  <speed>0.02</speed>
  <fix>3d</fix>
</trkpt>
<trkpt lat="33.809891" lon="-118.3939475">
  <ele>-31.944</ele>
  <time>2026-09-02T22:07:56Z</time>
  <course>103.52</course>
  <speed>0.01414213562373095</speed>
  <fix>3d</fix>
</trkpt>
<trkpt lat="33.809891" lon="-118.3939476">
  <ele>-31.18</ele>
  <time>2026-09-02T22:07:56Z</time>
  <course>270.94</course>
  <speed>0.02</speed>
  <fix>3d</fix>
</trkpt>
<trkpt lat="33.809891" lon="-118.3939475">
  <ele>-31.946</ele>
  <time>2026-09-02T22:07:56Z</time>
  <course>105.95</course>
  <speed>0.01414213562373095</speed>
  <fix>3d</fix>
</trkpt>
<trkpt lat="33.809891" lon="-118.3939476">
  <ele>-31.18</ele>
  <time>2026-09-02T22:07:56Z</time>
  <course>270.94</course>
  <speed>0.02</speed>
  <fix>3d</fix>
</trkpt>
<trkpt lat="33.809891" lon="-118.3939476">
  <ele>-31.947</ele>
  <time>2026-09-02T22:07:56Z</time>
  <course>108.38</course>
  <speed>0.01414213562373095</speed>
  <fix>3d</fix>
</trkpt>
<trkpt lat="33.809891" lon="-118.3939477">
  <ele>-31.18</ele>
  <time>2026-09-02T22:07:56Z</time>
  <course>270.72</course>
  <speed>0.02</speed>
  <fix>3d</fix>
</trkpt>
<trkpt lat="33.809891" lon="-118.3939476">
  <ele>-31.948</ele>
  <time>2026-09-02T22:07:56Z</time>
  <course>110.8</course>
  <speed>0.022360679774997897</speed>
  <fix>3d</fix>
</trkpt>
<trkpt lat="33.809891" lon="-118.3939477">
  <ele>-31.18</ele>
  <time>2026-09-02T22:07:56Z</time>
  <course>270.72</course>
  <speed>0.02</speed>
  <fix>3d</fix>
</trkpt>
<trkpt lat="33.809891" lon="-118.3939476">
  <ele>-31.949</ele>
  <time>2026-09-02T22:07:56Z</time>
  <course>113.23</course>
  <speed>0.022360679774997897</speed>
  <fix>3d</fix>
</trkpt>
<trkpt lat="33.809891" lon="-118.3939478">
  <ele>-31.19</ele>
  <time>2026-09-02T22:07:56Z</time>
  <course>270.49</course>
  <speed>0.02</speed>
  <fix>3d</fix>
</trkpt>
<trkpt lat="33.809891" lon="-118.3939477">
  <ele>-31.952</ele>
  <time>2026-09-02T22:07:56Z</time>
  <course>115.66</course>
  <speed>0.022360679774997897</speed>
  <fix>3d</fix>
</trkpt>
<trkpt lat="33.809891" lon="-118.3939478">
  <ele>-31.19</ele>
  <time>2026-09-02T22:07:56Z</time>
  <course>270.49</course>
  <speed>0.02</speed>
  <fix>3d</fix>
</trkpt>
<trkpt lat="33.809891" lon="-118.3939477">
  <ele>-31.957</ele>
  <time>2026-09-02T22:07:56Z</time>
  <course>118.08</course>
  <speed>0.022360679774997897</speed>
  <fix>3d</fix>
</trkpt>
<trkpt lat="33.809891" lon="-118.3939478">
  <ele>-31.19</ele>
  <time>2026-09-02T22:07:56Z</time>
  <course>270.22</course>
  <speed>0.02</speed>
  <fix>3d</fix>
</trkpt>
<trkpt lat="33.809891" lon="-118.3939477">
  <ele>-31.963</ele>
  <time>2026-09-02T22:07:56Z</time>
  <course>120.51</course>
  <speed>0.022360679774997897</speed>
  <fix>3d</fix>
</trkpt>
<trkpt lat="33.809891" lon="-118.3939478">
  <ele>-31.19</ele>
  <time>2026-09-02T22:07:56Z</time>
  <course>270.22</course>
  <speed>0.02</speed>
  <fix>3d</fix>
</trkpt>
<trkpt lat="33.809891" lon="-118.3939478">
  <ele>-31.969</ele>
  <time>2026-09-02T22:07:56Z</time>
  <course>122.93</course>
  <speed>0.022360679774997897</speed>
  <fix>3d</fix>
</trkpt>
<trkpt lat="33.809891" lon="-118.3939479">
  <ele>-31.2</ele>
  <time>2026-09-02T22:07:56Z</time>
  <course>269.96</course>
  <speed>0.02</speed>
  <fix>3d</fix>
</trkpt>
<trkpt lat="33.809891" lon="-118.3939478">
  <ele>-31.976</ele>
  <time>2026-09-02T22:07:56Z</time>
  <course>125.36</course>
  <speed>0.022360679774997897</speed>
  <fix>3d</fix>
</trkpt>
<trkpt lat="33.809891" lon="-118.3939479">
  <ele>-31.2</ele>
  <time>2026-09-02T22:07:56Z</time>
  <course>269.96</course>
  <speed>0.02</speed>
  <fix>3d</fix>
</trkpt>
<trkpt lat="33.809891" lon="-118.3939478">
  <ele>-31.983</ele>
  <time>2026-09-02T22:07:56Z</time>
  <course>127.79</course>
  <speed>0.022360679774997897</speed>
  <fix>3d</fix>
</trkpt>
<trkpt lat="33.809891" lon="-118.3939479">
  <ele>-31.21</ele>
  <time>2026-09-02T22:07:56Z</time>
  <course>269.78</course>
  <speed>0.02</speed>
  <fix>3d</fix>
</trkpt>
<trkpt lat="33.809891" lon="-118.3939479">
  <ele>-31.99</ele>
  <time>2026-09-02T22:07:56Z</time>
  <course>130.21</course>
  <speed>0.022360679774997897</speed>
  <fix>3d</fix>
</trkpt>
<trkpt lat="33.809891" lon="-118.3939479">
  <ele>-31.21</ele>
  <time>2026-09-02T22:07:56Z</time>
  <course>269.78</course>
  <speed>0.02</speed>
  <fix>3d</fix>
</trkpt>
<trkpt lat="33.809891" lon="-118.3939479">
  <ele>-31.998</ele>
  <time>2026-09-02T22:07:56Z</time>
  <course>132.64</course>
  <speed>0.022360679774997897</speed>
  <fix>3d</fix>
</trkpt>
<trkpt lat="33.809891" lon="-118.393948">
  <ele>-31.22</ele>
  <time>2026-09-02T22:07:56Z</time>
  <course>269.66</course>
  <speed>0.02</speed>
  <fix>3d</fix>
</trkpt>
<trkpt lat="33.809891" lon="-118.3939479">
  <ele>-32.007</ele>
  <time>2026-09-02T22:07:56Z</time>
  <course>135.06</course>
  <speed>0.022360679774997897</speed>
  <fix>3d</fix>
</trkpt>
<trkpt lat="33.809891" lon="-118.393948">
  <ele>-31.22</ele>
  <time>2026-09-02T22:07:56Z</time>
  <course>269.66</course>
  <speed>0.02</speed>
  <fix>3d</fix>
</trkpt>
<trkpt lat="33.809891" lon="-118.393948">
  <ele>-32.014</ele>
  <time>2026-09-02T22:07:56Z</time>
  <course>137.48</course>
  <speed>0.022360679774997897</speed>
  <fix>3d</fix>
</trkpt>
<trkpt lat="33.809891" lon="-118.393948">
  <ele>-31.24</ele>
  <time>2026-09-02T22:07:56Z</time>
  <course>269.66</course>
  <speed>0.02</speed>
  <fix>3d</fix>
</trkpt>
<trkpt lat="33.809891" lon="-118.393948">
  <ele>-32.021</ele>
  <time>2026-09-02T22:07:56Z</time>
  <course>139.9</course>
  <speed>0.022360679774997897</speed>
  <fix>3d</fix>
</trkpt>
<trkpt lat="33.809891" lon="-118.393948">
  <ele>-31.24</ele>
  <time>2026-09-02T22:07:56Z</time>
  <course>269.66</course>
  <speed>0.02</speed>
  <fix>3d</fix>
</trkpt>
<trkpt lat="33.8098909" lon="-118.393948">
  <ele>-32.027</ele>
  <time>2026-09-02T22:07:56Z</time>
  <course>142.32</course>
  <speed>0.022360679774997897</speed>
  <fix>3d</fix>
</trkpt>
<trkpt lat="33.809891" lon="-118.3939481">
  <ele>-31.25</ele>
  <time>2026-09-02T22:07:56Z</time>
  <course>269.79</course>
  <speed>0.02</speed>
  <fix>3d</fix>
</trkpt>
<trkpt lat="33.8098909" lon="-118.3939481">
  <ele>-32.031</ele>
  <time>2026-09-02T22:07:56Z</time>
  <course>144.74</course>
  <speed>0.022360679774997897</speed>
  <fix>3d</fix>
</trkpt>
<trkpt lat="33.809891" lon="-118.3939481">
  <ele>-31.25</ele>
  <time>2026-09-02T22:07:56Z</time>
  <course>269.79</course>
  <speed>0.02</speed>
  <fix>3d</fix>
</trkpt>
<trkpt lat="33.8098909" lon="-118.3939481">
  <ele>-32.034</ele>
  <time>2026-09-02T22:07:56Z</time>
  <course>147.16</course>
  <speed>0.022360679774997897</speed>
  <fix>3d</fix>
</trkpt>
<trkpt lat="33.809891" lon="-118.3939481">
  <ele>-31.26</ele>
  <time>2026-09-02T22:07:56Z</time>
  <course>270.01</course>
  <speed>0.02</speed>
  <fix>3d</fix>
</trkpt>
<trkpt lat="33.8098909" lon="-118.3939481">
  <ele>-32.036</ele>
  <time>2026-09-02T22:07:56Z</time>
  <course>149.58</course>
  <speed>0.022360679774997897</speed>
  <fix>3d</fix>
</trkpt>
<trkpt lat="33.809891" lon="-118.3939481">
  <ele>-31.26</ele>
  <time>2026-09-02T22:07:56Z</time>
  <course>270.01</course>
  <speed>0.02</speed>
  <fix>3d</fix>
</trkpt>
<trkpt lat="33.8098909" lon="-118.3939481">
  <ele>-32.035</ele>
  <time>2026-09-02T22:07:56Z</time>
  <course>152.01</course>
  <speed>0.022360679774997897</speed>
  <fix>3d</fix>
</trkpt>
<trkpt lat="33.809891" lon="-118.3939482">
  <ele>-31.27</ele>
  <time>2026-09-02T22:07:56Z</time>
  <course>270.34</course>
  <speed>0.02</speed>
  <fix>3d</fix>
</trkpt>
<trkpt lat="33.8098909" lon="-118.3939482">
  <ele>-32.035</ele>
  <time>2026-09-02T22:07:56Z</time>
  <course>154.45</course>
  <speed>0.022360679774997897</speed>
  <fix>3d</fix>
</trkpt>
<trkpt lat="33.809891" lon="-118.3939482">
  <ele>-31.27</ele>
  <time>2026-09-02T22:07:56Z</time>
  <course>270.34</course>
  <speed>0.02</speed>
  <fix>3d</fix>
</trkpt>
<trkpt lat="33.8098909" lon="-118.3939482">
  <ele>-32.032</ele>
  <time>2026-09-02T22:07:56Z</time>
  <course>156.87</course>
  <speed>0.022360679774997897</speed>
  <fix>3d</fix>
</trkpt>
<trkpt lat="33.809891" lon="-118.3939482">
  <ele>-31.27</ele>
  <time>2026-09-02T22:07:56Z</time>
  <course>270.68</course>
  <speed>0.02</speed>
  <fix>3d</fix>
</trkpt>
<trkpt lat="33.8098909" lon="-118.3939482">
  <ele>-32.029</ele>
  <time>2026-09-02T22:07:56Z</time>
  <course>159.29</course>
  <speed>0.022360679774997897</speed>
  <fix>3d</fix>
</trkpt>
<trkpt lat="33.809891" lon="-118.3939482">
  <ele>-31.27</ele>
  <time>2026-09-02T22:07:56Z</time>
  <course>270.68</course>
  <speed>0.02</speed>
  <fix>3d</fix>
</trkpt>
<trkpt lat="33.8098909" lon="-118.3939483">
  <ele>-32.027</ele>
  <time>2026-09-02T22:07:56Z</time>
  <course>161.71</course>
  <speed>0.022360679774997897</speed>
  <fix>3d</fix>
</trkpt>
<trkpt lat="33.809891" lon="-118.3939483">
  <ele>-31.26</ele>
  <time>2026-09-02T22:07:56Z</time>
  <course>270.99</course>
  <speed>0.02</speed>
  <fix>3d</fix>
</trkpt>
<trkpt lat="33.8098909" lon="-118.3939483">
  <ele>-32.022</ele>
  <time>2026-09-02T22:07:56Z</time>
  <course>164.13</course>
  <speed>0.022360679774997897</speed>
  <fix>3d</fix>
</trkpt>
<trkpt lat="33.809891" lon="-118.3939483">
  <ele>-31.26</ele>
  <time>2026-09-02T22:07:56Z</time>
  <course>270.99</course>
  <speed>0.02</speed>
  <fix>3d</fix>
</trkpt>
<trkpt lat="33.8098909" lon="-118.3939483">
  <ele>-32.016</ele>
  <time>2026-09-02T22:07:56Z</time>
  <course>166.54</course>
  <speed>0.022360679774997897</speed>
  <fix>3d</fix>
</trkpt>
<trkpt lat="33.809891" lon="-118.3939483">
  <ele>-31.25</ele>
  <time>2026-09-02T22:07:56Z</time>
  <course>271.27</course>
  <speed>0.02</speed>
  <fix>3d</fix>
</trkpt>
<trkpt lat="33.8098909" lon="-118.3939484">
  <ele>-32.01</ele>
  <time>2026-09-02T22:07:56Z</time>
  <course>168.96</course>
  <speed>0.0316227766016838</speed>
  <fix>3d</fix>
</trkpt>
<trkpt lat="33.809891" lon="-118.3939483">
  <ele>-31.25</ele>
  <time>2026-09-02T22:07:56Z</time>
  <course>271.27</course>
  <speed>0.02</speed>
  <fix>3d</fix>
</trkpt>
<trkpt lat="33.8098909" lon="-118.3939484">
  <ele>-32.003</ele>
  <time>2026-09-02T22:07:56Z</time>
  <course>171.38</course>
  <speed>0.0316227766016838</speed>
  <fix>3d</fix>
</trkpt>
<trkpt lat="33.809891" lon="-118.3939484">
  <ele>-31.24</ele>
  <time>2026-09-02T22:07:56Z</time>
  <course>271.55</course>
  <speed>0.02</speed>
  <fix>3d</fix>
</trkpt>
<trkpt lat="33.8098909" lon="-118.3939484">
  <ele>-31.997</ele>
  <time>2026-09-02T22:07:56Z</time>
  <course>173.8</course>
  <speed>0.0316227766016838</speed>
  <fix>3d</fix>
</trkpt>
<trkpt lat="33.809891" lon="-118.3939484">
  <ele>-31.24</ele>
  <time>2026-09-02T22:07:56Z</time>
  <course>271.55</course>
  <speed>0.02</speed>
  <fix>3d</fix>
</trkpt>
<trkpt lat="33.8098909" lon="-118.3939484">
  <ele>-31.991</ele>
  <time>2026-09-02T22:07:56Z</time>
  <course>176.23</course>
  <speed>0.0316227766016838</speed>
  <fix>3d</fix>
</trkpt>
<trkpt lat="33.809891" lon="-118.3939484">
  <ele>-31.23</ele>
  <time>2026-09-02T22:07:56Z</time>
  <course>271.77</course>
  <speed>0.01</speed>
  <fix>3d</fix>
</trkpt>
<trkpt lat="33.8098909" lon="-118.3939485">
  <ele>-31.985</ele>
  <time>2026-09-02T22:07:56Z</time>
  <course>178.53</course>
  <speed>0.0316227766016838</speed>
  <fix>3d</fix>
</trkpt>
<trkpt lat="33.809891" lon="-118.3939484">
  <ele>-31.23</ele>
  <time>2026-09-02T22:07:56Z</time>
  <course>271.77</course>
  <speed>0.01</speed>
  <fix>3d</fix>
</trkpt>
<trkpt lat="33.8098909" lon="-118.3939485">
  <ele>-31.979</ele>
  <time>2026-09-02T22:07:56Z</time>
  <course>180.22</course>
  <speed>0.0316227766016838</speed>
  <fix>3d</fix>
</trkpt>
<trkpt lat="33.809891" lon="-118.3939484">
  <ele>-31.22</ele>
  <time>2026-09-02T22:07:56Z</time>
  <course>271.9</course>
  <speed>0.01</speed>
  <fix>3d</fix>
</trkpt>
<trkpt lat="33.8098909" lon="-118.3939485">
  <ele>-31.972</ele>
  <time>2026-09-02T22:07:56Z</time>
  <course>182.17</course>
  <speed>0.23194827009486402</speed>
  <fix>3d</fix>
</trkpt>
<trkpt lat="33.809891" lon="-118.3939484">
  <ele>-31.22</ele>
  <time>2026-09-02T22:07:56Z</time>
  <course>271.9</course>
  <speed>0.01</speed>
  <fix>3d</fix>
</trkpt>
<trkpt lat="33.8098906" lon="-118.3939486">
  <ele>-31.966</ele>
  <time>2026-09-02T22:07:56Z</time>
  <course>184.07</course>
  <speed>0.45177427992306074</speed>
  <fix>3d</fix>
</trkpt>
<trkpt lat="33.8098909" lon="-118.3939485">
  <ele>-31.21</ele>
  <time>2026-09-02T22:07:56Z</time>
  <course>188.16</course>
  <speed>0.15</speed>
  <fix>3d</fix>
</trkpt>
<trkpt lat="33.8098901" lon="-118.3939486">
  <ele>-31.961</ele>
  <time>2026-09-02T22:07:56Z</time>
  <course>185.56</course>
  <speed>0.6029925372672534</speed>
  <fix>3d</fix>
</trkpt>
<trkpt lat="33.8098909" lon="-118.3939485">
  <ele>-31.21</ele>
  <time>2026-09-02T22:07:56Z</time>
  <course>188.16</course>
  <speed>0.15</speed>
  <fix>3d</fix>
</trkpt>
<trkpt lat="33.8098895" lon="-118.3939487">
  <ele>-31.959</ele>
  <time>2026-09-02T22:07:56Z</time>
  <course>186.56</course>
  <speed>0.6935416353759881</speed>
  <fix>3d</fix>
</trkpt>
<trkpt lat="33.8098904" lon="-118.3939485">
  <ele>-31.2</ele>
  <time>2026-09-02T22:07:56Z</time>
  <course>184.26</course>
  <speed>0.46</speed>
  <fix>3d</fix>
</trkpt>
<trkpt lat="33.8098889" lon="-118.3939487">
  <ele>-31.959</ele>
  <time>2026-09-02T22:07:56Z</time>
  <course>187.18</course>
  <speed>0.7333484846919641</speed>
  <fix>3d</fix>
</trkpt>
<trkpt lat="33.8098904" lon="-118.3939485">
  <ele>-31.2</ele>
  <time>2026-09-02T22:07:56Z</time>
  <course>184.26</course>
  <speed>0.46</speed>
  <fix>3d</fix>
</trkpt>
<trkpt lat="33.8098883" lon="-118.3939488">
  <ele>-31.965</ele>
  <time>2026-09-02T22:07:56Z</time>
  <course>187.52</course>
  <speed>0.754254598925323</speed>
  <fix>3d</fix>
</trkpt>
<trkpt lat="33.8098893" lon="-118.3939486">
  <ele>-31.2</ele>
  <time>2026-09-02T22:07:56Z</time>
  <course>184.29</course>
  <speed>0.68</speed>
  <fix>3d</fix>
</trkpt>
<trkpt lat="33.8098876" lon="-118.3939489">
  <ele>-31.978</ele>
  <time>2026-09-02T22:07:56Z</time>
  <course>187.7</course>
  <speed>0.764198926981712</speed>
  <fix>3d</fix>
</trkpt>
<trkpt lat="33.8098893" lon="-118.3939486">
  <ele>-31.2</ele>
  <time>2026-09-02T22:07:56Z</time>
  <course>184.29</course>
  <speed>0.68</speed>
  <fix>3d</fix>
</trkpt>
<trkpt lat="33.809887" lon="-118.3939489">
  <ele>-32.0</ele>
  <time>2026-09-02T22:07:56Z</time>
  <course>187.76</course>
  <speed>0.764198926981712</speed>
  <fix>3d</fix>
</trkpt>
<trkpt lat="33.809888" lon="-118.3939487">
  <ele>-31.22</ele>
  <time>2026-09-02T22:07:56Z</time>
  <course>184.55</course>
  <speed>0.75</speed>
  <fix>3d</fix>
</trkpt>
<trkpt lat="33.8098863" lon="-118.393949">
  <ele>-32.029</ele>
  <time>2026-09-02T22:07:56Z</time>
  <course>187.73</course>
  <speed>0.7741446893184762</speed>
  <fix>3d</fix>
</trkpt>
<trkpt lat="33.809888" lon="-118.3939487">
  <ele>-31.22</ele>
  <time>2026-09-02T22:07:56Z</time>
  <course>184.55</course>
  <speed>0.75</speed>
  <fix>3d</fix>
</trkpt>
<trkpt lat="33.8098856" lon="-118.3939491">
  <ele>-32.066</ele>
  <time>2026-09-02T22:07:56Z</time>
  <course>187.66</course>
  <speed>0.7741446893184762</speed>
  <fix>3d</fix>
</trkpt>
<trkpt lat="33.8098867" lon="-118.3939489">
  <ele>-31.25</ele>
  <time>2026-09-02T22:07:56Z</time>
  <course>184.73</course>
  <speed>0.76</speed>
  <fix>3d</fix>
</trkpt>
<trkpt lat="33.809885" lon="-118.3939492">
  <ele>-32.11</ele>
  <time>2026-09-02T22:07:56Z</time>
  <course>187.58</course>
  <speed>0.764198926981712</speed>
  <fix>3d</fix>
</trkpt>
<trkpt lat="33.8098867" lon="-118.3939489">
  <ele>-31.25</ele>
  <time>2026-09-02T22:07:56Z</time>
  <course>184.73</course>
  <speed>0.76</speed>
  <fix>3d</fix>
</trkpt>
<trkpt lat="33.8098843" lon="-118.3939492">
  <ele>-32.161</ele>
  <time>2026-09-02T22:07:56Z</time>
  <course>187.5</course>
  <speed>0.764198926981712</speed>
  <fix>3d</fix>
</trkpt>
<trkpt lat="33.8098854" lon="-118.393949">
  <ele>-31.32</ele>
  <time>2026-09-02T22:07:56Z</time>
  <course>184.86</course>
  <speed>0.77</speed>
  <fix>3d</fix>
</trkpt>
<trkpt lat="33.8098836" lon="-118.3939493">
  <ele>-32.219</ele>
  <time>2026-09-02T22:07:56Z</time>
  <course>187.41</course>
  <speed>0.764198926981712</speed>
  <fix>3d</fix>
</trkpt>
<trkpt lat="33.8098854" lon="-118.393949">
  <ele>-31.32</ele>
  <time>2026-09-02T22:07:56Z</time>
  <course>184.86</course>
  <speed>0.77</speed>
  <fix>3d</fix>
</trkpt>
<trkpt lat="33.809883" lon="-118.3939494">
  <ele>-32.284</ele>
  <time>2026-09-02T22:07:56Z</time>
  <course>187.32</course>
  <speed>0.764198926981712</speed>
  <fix>3d</fix>
</trkpt>
<trkpt lat="33.8098839" lon="-118.3939492">
  <ele>-31.41</ele>
  <time>2026-09-02T22:07:56Z</time>
  <course>184.96</course>
  <speed>0.77</speed>
  <fix>3d</fix>
</trkpt>
<trkpt lat="33.8098823" lon="-118.3939495">
  <ele>-32.353</ele>
  <time>2026-09-02T22:07:56Z</time>
  <course>187.24</course>
  <speed>0.764198926981712</speed>
  <fix>3d</fix>
</trkpt>
<trkpt lat="33.8098839" lon="-118.3939492">
  <ele>-31.41</ele>
  <time>2026-09-02T22:07:56Z</time>
  <course>184.96</course>
  <speed>0.77</speed>
  <fix>3d</fix>
</trkpt>
<trkpt lat="33.8098816" lon="-118.3939495">
  <ele>-32.427</ele>
  <time>2026-09-02T22:07:56Z</time>
  <course>187.15</course>
  <speed>0.764198926981712</speed>
  <fix>3d</fix>
</trkpt>
<trkpt lat="33.8098825" lon="-118.3939493">
  <ele>-31.52</ele>
  <time>2026-09-02T22:07:56Z</time>
  <course>185.05</course>
  <speed>0.77</speed>
  <fix>3d</fix>
</trkpt>
<trkpt lat="33.8098809" lon="-118.3939496">
  <ele>-32.507</ele>
  <time>2026-09-02T22:07:56Z</time>
  <course>187.07</course>
  <speed>0.7443117626371358</speed>
  <fix>3d</fix>
</trkpt>
<trkpt lat="33.8098825" lon="-118.3939493">
  <ele>-31.52</ele>
  <time>2026-09-02T22:07:56Z</time>
  <course>185.05</course>
  <speed>0.77</speed>
  <fix>3d</fix>
</trkpt>
<trkpt lat="33.8098803" lon="-118.3939497">
  <ele>-32.592</ele>
  <time>2026-09-02T22:07:56Z</time>
  <course>186.99</course>
  <speed>0.7144928271158499</speed>
  <fix>3d</fix>
</trkpt>
<trkpt lat="33.8098812" lon="-118.3939495">
  <ele>-31.66</ele>
  <time>2026-09-02T22:07:56Z</time>
  <course>185.08</course>
  <speed>0.76</speed>
  <fix>3d</fix>
</trkpt>
<trkpt lat="33.8098797" lon="-118.3939497">
  <ele>-32.681</ele>
  <time>2026-09-02T22:07:56Z</time>
  <course>186.91</course>
  <speed>0.6946221994724903</speed>
  <fix>3d</fix>
</trkpt>
<trkpt lat="33.8098812" lon="-118.3939495">
  <ele>-31.66</ele>
  <time>2026-09-02T22:07:56Z</time>
  <course>185.08</course>
  <speed>0.76</speed>
  <fix>3d</fix>
</trkpt>
<trkpt lat="33.809879" lon="-118.3939498">
  <ele>-32.773</ele>
  <time>2026-09-02T22:07:56Z</time>
  <course>186.83</course>
  <speed>0.6835934464285041</speed>
  <fix>3d</fix>
</trkpt>
<trkpt lat="33.8098798" lon="-118.3939496">
  <ele>-31.82</ele>
  <time>2026-09-02T22:07:56Z</time>
  <course>185.08</course>
  <speed>0.72</speed>
  <fix>3d</fix>
</trkpt>
<trkpt lat="33.8098784" lon="-118.3939499">
  <ele>-32.867</ele>
  <time>2026-09-02T22:07:56Z</time>
  <course>186.75</course>
  <speed>0.6736467917239716</speed>
  <fix>3d</fix>
</trkpt>
<trkpt lat="33.8098798" lon="-118.3939496">
  <ele>-31.82</ele>
  <time>2026-09-02T22:07:56Z</time>
  <course>185.08</course>
  <speed>0.72</speed>
  <fix>3d</fix>
</trkpt>
<trkpt lat="33.8098778" lon="-118.3939499">
  <ele>-32.961</ele>
  <time>2026-09-02T22:07:56Z</time>
  <course>186.67</course>
  <speed>0.6846897107449476</speed>
  <fix>3d</fix>
</trkpt>
<trkpt lat="33.8098786" lon="-118.3939497">
  <ele>-31.99</ele>
  <time>2026-09-02T22:07:56Z</time>
  <course>185.06</course>
  <speed>0.7</speed>
  <fix>3d</fix>
</trkpt>
<trkpt lat="33.8098772" lon="-118.39395">
  <ele>-33.053</ele>
  <time>2026-09-02T22:07:57Z</time>
  <course>186.59</course>
  <speed>0.6846897107449476</speed>
  <fix>3d</fix>
</trkpt>
<trkpt lat="33.8098786" lon="-118.3939497">
  <ele>-31.99</ele>
  <time>2026-09-02T22:07:57Z</time>
  <course>185.06</course>
  <speed>0.7</speed>
  <fix>3d</fix>
</trkpt>
<trkpt lat="33.8098766" lon="-118.3939501">
  <ele>-33.145</ele>
  <time>2026-09-02T22:07:57Z</time>
  <course>186.52</course>
  <speed>0.6747592163134936</speed>
  <fix>3d</fix>
</trkpt>
<trkpt lat="33.8098773" lon="-118.3939499">
  <ele>-32.16</ele>
  <time>2026-09-02T22:07:57Z</time>
  <course>185.08</course>
  <speed>0.69</speed>
  <fix>3d</fix>
</trkpt>
<trkpt lat="33.809876" lon="-118.3939501">
  <ele>-33.237</ele>
  <time>2026-09-02T22:07:57Z</time>
  <course>186.45</course>
  <speed>0.6747592163134936</speed>
  <fix>3d</fix>
</trkpt>
<trkpt lat="33.8098773" lon="-118.3939499">
  <ele>-32.16</ele>
  <time>2026-09-02T22:07:57Z</time>
  <course>185.08</course>
  <speed>0.69</speed>
  <fix>3d</fix>
</trkpt>
<trkpt lat="33.8098754" lon="-118.3939502">
  <ele>-33.329</ele>
  <time>2026-09-02T22:07:57Z</time>
  <course>186.38</course>
  <speed>0.6747592163134936</speed>
  <fix>3d</fix>
</trkpt>
<trkpt lat="33.809876" lon="-118.39395">
  <ele>-32.33</ele>
  <time>2026-09-02T22:07:57Z</time>
  <course>185.1</course>
  <speed>0.69</speed>
  <fix>3d</fix>
</trkpt>
<trkpt lat="33.8098748" lon="-118.3939503">
  <ele>-33.42</ele>
  <time>2026-09-02T22:07:57Z</time>
  <course>186.31</course>
  <speed>0.6846897107449476</speed>
  <fix>3d</fix>
</trkpt>
<trkpt lat="33.809876" lon="-118.39395">
  <ele>-32.33</ele>
  <time>2026-09-02T22:07:57Z</time>
  <course>185.1</course>
  <speed>0.69</speed>
  <fix>3d</fix>
</trkpt>
<trkpt lat="33.8098741" lon="-118.3939503">
  <ele>-33.51</ele>
  <time>2026-09-02T22:07:57Z</time>
  <course>186.24</course>
  <speed>0.6946221994724903</speed>
  <fix>3d</fix>
</trkpt>
<trkpt lat="33.8098748" lon="-118.3939501">
  <ele>-32.5</ele>
  <time>2026-09-02T22:07:57Z</time>
  <course>185.11</course>
  <speed>0.69</speed>
  <fix>3d</fix>
</trkpt>
<trkpt lat="33.8098735" lon="-118.3939504">
  <ele>-33.596</ele>
  <time>2026-09-02T22:07:57Z</time>
  <course>186.18</course>
  <speed>0.6946221994724903</speed>
  <fix>3d</fix>
</trkpt>
<trkpt lat="33.8098748" lon="-118.3939501">
  <ele>-32.5</ele>
  <time>2026-09-02T22:07:57Z</time>
  <course>185.11</course>
  <speed>0.69</speed>
  <fix>3d</fix>
</trkpt>
<trkpt lat="33.8098729" lon="-118.3939505">
  <ele>-33.681</ele>
  <time>2026-09-02T22:07:57Z</time>
  <course>186.11</course>
  <speed>0.7045565981523414</speed>
  <fix>3d</fix>
</trkpt>
<trkpt lat="33.8098735" lon="-118.3939503">
  <ele>-32.67</ele>
  <time>2026-09-02T22:07:57Z</time>
  <course>185.13</course>
  <speed>0.71</speed>
  <fix>3d</fix>
</trkpt>
<trkpt lat="33.8098722" lon="-118.3939506">
  <ele>-33.764</ele>
  <time>2026-09-02T22:07:57Z</time>
  <course>186.05</course>
  <speed>0.7144928271158499</speed>
  <fix>3d</fix>
</trkpt>
<trkpt lat="33.8098735" lon="-118.3939503">
  <ele>-32.67</ele>
  <time>2026-09-02T22:07:57Z</time>
  <course>185.13</course>
  <speed>0.71</speed>
  <fix>3d</fix>
</trkpt>
<trkpt lat="33.8098715" lon="-118.3939506">
  <ele>-33.845</ele>
  <time>2026-09-02T22:07:57Z</time>
  <course>185.98</course>
  <speed>0.7343704787094864</speed>
  <fix>3d</fix>
</trkpt>
<trkpt lat="33.8098722" lon="-118.3939504">
  <ele>-32.83</ele>
  <time>2026-09-02T22:07:57Z</time>
  <course>185.14</course>
  <speed>0.73</speed>
  <fix>3d</fix>
</trkpt>
<trkpt lat="33.8098709" lon="-118.3939507">
  <ele>-33.922</ele>
  <time>2026-09-02T22:07:57Z</time>
  <course>185.92</course>
  <speed>0.7343704787094864</speed>
  <fix>3d</fix>
</trkpt>
<trkpt lat="33.8098722" lon="-118.3939504">
  <ele>-32.83</ele>
  <time>2026-09-02T22:07:57Z</time>
  <course>185.14</course>
  <speed>0.73</speed>
  <fix>3d</fix>
</trkpt>
<trkpt lat="33.8098702" lon="-118.3939508">
  <ele>-33.997</ele>
  <time>2026-09-02T22:07:57Z</time>
  <course>185.86</course>
  <speed>0.7443117626371358</speed>
  <fix>3d</fix>
</trkpt>
<trkpt lat="33.8098709" lon="-118.3939505">
  <ele>-32.99</ele>
  <time>2026-09-02T22:07:57Z</time>
  <course>185.16</course>
  <speed>0.75</speed>
  <fix>3d</fix>
</trkpt>
<trkpt lat="33.8098695" lon="-118.3939509">
  <ele>-34.07</ele>
  <time>2026-09-02T22:07:57Z</time>
  <course>185.8</course>
  <speed>0.7443117626371358</speed>
  <fix>3d</fix>
</trkpt>
<trkpt lat="33.8098709" lon="-118.3939505">
  <ele>-32.99</ele>
  <time>2026-09-02T22:07:57Z</time>
  <course>185.16</course>
  <speed>0.75</speed>
  <fix>3d</fix>
</trkpt>
<trkpt lat="33.8098688" lon="-118.3939509">
  <ele>-34.143</ele>
  <time>2026-09-02T22:07:57Z</time>
  <course>185.75</course>
  <speed>0.7454528824815153</speed>
  <fix>3d</fix>
</trkpt>
<trkpt lat="33.8098696" lon="-118.3939507">
  <ele>-33.14</ele>
  <time>2026-09-02T22:07:57Z</time>
  <course>185.15</course>
  <speed>0.76</speed>
  <fix>3d</fix>
</trkpt>
<trkpt lat="33.8098682" lon="-118.393951">
  <ele>-34.216</ele>
  <time>2026-09-02T22:07:57Z</time>
  <course>185.69</course>
  <speed>0.7454528824815153</speed>
  <fix>3d</fix>
</trkpt>
<trkpt lat="33.8098696" lon="-118.3939507">
  <ele>-33.14</ele>
  <time>2026-09-02T22:07:57Z</time>
  <course>185.15</course>
  <speed>0.76</speed>
  <fix>3d</fix>
</trkpt>
<trkpt lat="33.8098675" lon="-118.3939511">
  <ele>-34.287</ele>
  <time>2026-09-02T22:07:57Z</time>
  <course>185.64</course>
  <speed>0.7454528824815153</speed>
  <fix>3d</fix>
</trkpt>
<trkpt lat="33.8098681" lon="-118.3939509">
  <ele>-33.29</ele>
  <time>2026-09-02T22:07:57Z</time>
  <course>185.15</course>
  <speed>0.77</speed>
  <fix>3d</fix>
</trkpt>
<trkpt lat="33.8098668" lon="-118.3939512">
  <ele>-34.356</ele>
  <time>2026-09-02T22:07:57Z</time>
  <course>185.58</course>
  <speed>0.7454528824815153</speed>
  <fix>3d</fix>
</trkpt>
<trkpt lat="33.8098681" lon="-118.3939509">
  <ele>-33.29</ele>
  <time>2026-09-02T22:07:57Z</time>
  <course>185.15</course>
  <speed>0.77</speed>
  <fix>3d</fix>
</trkpt>
<trkpt lat="33.8098661" lon="-118.3939512">
  <ele>-34.423</ele>
  <time>2026-09-02T22:07:57Z</time>
  <course>185.53</course>
  <speed>0.7454528824815153</speed>
  <fix>3d</fix>
</trkpt>
<trkpt lat="33.8098667" lon="-118.393951">
  <ele>-33.42</ele>
  <time>2026-09-02T22:07:57Z</time>
  <course>185.15</course>
  <speed>0.77</speed>
  <fix>3d</fix>
</trkpt>
<trkpt lat="33.8098654" lon="-118.3939513">
  <ele>-34.489</ele>
  <time>2026-09-02T22:07:57Z</time>
  <course>185.48</course>
  <speed>0.7454528824815153</speed>
  <fix>3d</fix>
</trkpt>
<trkpt lat="33.8098667" lon="-118.393951">
  <ele>-33.42</ele>
  <time>2026-09-02T22:07:57Z</time>
  <course>185.15</course>
  <speed>0.77</speed>
  <fix>3d</fix>
</trkpt>
<trkpt lat="33.8098647" lon="-118.3939514">
  <ele>-34.553</ele>
  <time>2026-09-02T22:07:57Z</time>
  <course>185.43</course>
  <speed>0.7454528824815153</speed>
  <fix>3d</fix>
</trkpt>
<trkpt lat="33.8098654" lon="-118.3939512">
  <ele>-33.55</ele>
  <time>2026-09-02T22:07:57Z</time>
  <course>185.15</course>
  <speed>0.77</speed>
  <fix>3d</fix>
</trkpt>
<trkpt lat="33.809864" lon="-118.3939515">
  <ele>-34.618</ele>
  <time>2026-09-02T22:07:57Z</time>
  <course>185.38</course>
  <speed>0.7454528824815153</speed>
  <fix>3d</fix>
</trkpt>
<trkpt lat="33.8098654" lon="-118.3939512">
  <ele>-33.55</ele>
  <time>2026-09-02T22:07:57Z</time>
  <course>185.15</course>
  <speed>0.77</speed>
  <fix>3d</fix>
</trkpt>
<trkpt lat="33.8098633" lon="-118.3939516">
  <ele>-34.682</ele>
  <time>2026-09-02T22:07:57Z</time>
  <course>185.33</course>
  <speed>0.7454528824815153</speed>
  <fix>3d</fix>
</trkpt>
<trkpt lat="33.809864" lon="-118.3939513">
  <ele>-33.68</ele>
  <time>2026-09-02T22:07:57Z</time>
  <course>185.15</course>
  <speed>0.77</speed>
  <fix>3d</fix>
</trkpt>
<trkpt lat="33.8098627" lon="-118.3939516">
  <ele>-34.747</ele>
  <time>2026-09-02T22:07:57Z</time>
  <course>185.28</course>
  <speed>0.7454528824815153</speed>
  <fix>3d</fix>
</trkpt>
<trkpt lat="33.809864" lon="-118.3939513">
  <ele>-33.68</ele>
  <time>2026-09-02T22:07:57Z</time>
  <course>185.15</course>
  <speed>0.77</speed>
  <fix>3d</fix>
</trkpt>
<trkpt lat="33.809862" lon="-118.3939517">
  <ele>-34.81</ele>
  <time>2026-09-02T22:07:57Z</time>
  <course>185.23</course>
  <speed>0.7454528824815153</speed>
  <fix>3d</fix>
</trkpt>
<trkpt lat="33.8098626" lon="-118.3939514">
  <ele>-33.81</ele>
  <time>2026-09-02T22:07:57Z</time>
  <course>185.15</course>
  <speed>0.77</speed>
  <fix>3d</fix>
</trkpt>
<trkpt lat="33.8098613" lon="-118.3939518">
  <ele>-34.872</ele>
  <time>2026-09-02T22:07:57Z</time>
  <course>185.19</course>
  <speed>0.7454528824815153</speed>
  <fix>3d</fix>
</trkpt>
<trkpt lat="33.8098626" lon="-118.3939514">
  <ele>-33.81</ele>
  <time>2026-09-02T22:07:57Z</time>
  <course>185.15</course>
  <speed>0.77</speed>
  <fix>3d</fix>
</trkpt>
<trkpt lat="33.8098606" lon="-118.3939519">
  <ele>-34.933</ele>
  <time>2026-09-02T22:07:57Z</time>
  <course>185.14</course>
  <speed>0.7454528824815153</speed>
  <fix>3d</fix>
</trkpt>
<trkpt lat="33.8098612" lon="-118.3939516">
  <ele>-33.94</ele>
  <time>2026-09-02T22:07:57Z</time>
  <course>185.14</course>
  <speed>0.77</speed>
  <fix>3d</fix>
</trkpt>
<trkpt lat="33.8098599" lon="-118.3939519">
  <ele>-34.992</ele>
  <time>2026-09-02T22:07:57Z</time>
  <course>185.1</course>
  <speed>0.7454528824815153</speed>
  <fix>3d</fix>
</trkpt>
<trkpt lat="33.8098612" lon="-118.3939516">
  <ele>-33.94</ele>
  <time>2026-09-02T22:07:57Z</time>
  <course>185.14</course>
  <speed>0.77</speed>
  <fix>3d</fix>
</trkpt>
<trkpt lat="33.8098592" lon="-118.393952">
  <ele>-35.046</ele>
  <time>2026-09-02T22:07:57Z</time>
  <course>185.06</course>
  <speed>0.7454528824815153</speed>
  <fix>3d</fix>
</trkpt>
<trkpt lat="33.8098599" lon="-118.3939518">
  <ele>-34.06</ele>
  <time>2026-09-02T22:07:57Z</time>
  <course>185.13</course>
  <speed>0.77</speed>
  <fix>3d</fix>
</trkpt>
<trkpt lat="33.8098585" lon="-118.3939521">
  <ele>-35.094</ele>
  <time>2026-09-02T22:07:57Z</time>
  <course>185.02</course>
  <speed>0.7355270219373317</speed>
  <fix>3d</fix>
</trkpt>
<trkpt lat="33.8098599" lon="-118.3939518">
  <ele>-34.06</ele>
  <time>2026-09-02T22:07:57Z</time>
  <course>185.13</course>
  <speed>0.77</speed>
  <fix>3d</fix>
</trkpt>
<trkpt lat="33.8098578" lon="-118.3939522">
  <ele>-35.138</ele>
  <time>2026-09-02T22:07:57Z</time>
  <course>184.97</course>
  <speed>0.7355270219373317</speed>
  <fix>3d</fix>
</trkpt>
<trkpt lat="33.8098585" lon="-118.3939519">
  <ele>-34.17</ele>
  <time>2026-09-02T22:07:57Z</time>
  <course>185.12</course>
  <speed>0.77</speed>
  <fix>3d</fix>
</trkpt>
<trkpt lat="33.8098572" lon="-118.3939522">
  <ele>-35.173</ele>
  <time>2026-09-02T22:07:57Z</time>
  <course>184.93</course>
  <speed>0.7355270219373317</speed>
  <fix>3d</fix>
</trkpt>
<trkpt lat="33.8098585" lon="-118.3939519">
  <ele>-34.17</ele>
  <time>2026-09-02T22:07:57Z</time>
  <course>185.12</course>
  <speed>0.77</speed>
  <fix>3d</fix>
</trkpt>
<trkpt lat="33.8098565" lon="-118.3939523">
  <ele>-35.2</ele>
  <time>2026-09-02T22:07:57Z</time>
  <course>184.89</course>
  <speed>0.7355270219373317</speed>
  <fix>3d</fix>
</trkpt>
<trkpt lat="33.8098571" lon="-118.3939521">
  <ele>-34.26</ele>
  <time>2026-09-02T22:07:57Z</time>
  <course>185.09</course>
  <speed>0.77</speed>
  <fix>3d</fix>
</trkpt>
<trkpt lat="33.8098558" lon="-118.3939524">
  <ele>-35.22</ele>
  <time>2026-09-02T22:07:57Z</time>
  <course>184.86</course>
  <speed>0.7355270219373317</speed>
  <fix>3d</fix>
</trkpt>
<trkpt lat="33.8098571" lon="-118.3939521">
  <ele>-34.26</ele>
  <time>2026-09-02T22:07:57Z</time>
  <course>185.09</course>
  <speed>0.77</speed>
  <fix>3d</fix>
</trkpt>
<trkpt lat="33.8098551" lon="-118.3939525">
  <ele>-35.231</ele>
  <time>2026-09-02T22:07:57Z</time>
  <course>184.82</course>
  <speed>0.7355270219373317</speed>
  <fix>3d</fix>
</trkpt>
<trkpt lat="33.8098557" lon="-118.3939522">
  <ele>-34.32</ele>
  <time>2026-09-02T22:07:57Z</time>
  <course>185.07</course>
  <speed>0.77</speed>
  <fix>3d</fix>
</trkpt>
<trkpt lat="33.8098544" lon="-118.3939526">
  <ele>-35.235</ele>
  <time>2026-09-02T22:07:57Z</time>
  <course>184.78</course>
  <speed>0.7355270219373317</speed>
  <fix>3d</fix>
</trkpt>
<trkpt lat="33.8098557" lon="-118.3939522">
  <ele>-34.32</ele>
  <time>2026-09-02T22:07:57Z</time>
  <course>185.07</course>
  <speed>0.77</speed>
  <fix>3d</fix>
</trkpt>
<trkpt lat="33.8098537" lon="-118.3939526">
  <ele>-35.23</ele>
  <time>2026-09-02T22:07:57Z</time>
  <course>184.74</course>
  <speed>0.7355270219373317</speed>
  <fix>3d</fix>
</trkpt>
<trkpt lat="33.8098543" lon="-118.3939524">
  <ele>-34.35</ele>
  <time>2026-09-02T22:07:57Z</time>
  <course>185.04</course>
  <speed>0.77</speed>
  <fix>3d</fix>
</trkpt>
<trkpt lat="33.809853" lon="-118.3939527">
  <ele>-35.22</ele>
  <time>2026-09-02T22:07:57Z</time>
  <course>184.71</course>
  <speed>0.7355270219373317</speed>
  <fix>3d</fix>
</trkpt>
<trkpt lat="33.8098543" lon="-118.3939524">
  <ele>-34.35</ele>
  <time>2026-09-02T22:07:57Z</time>
  <course>185.04</course>
  <speed>0.77</speed>
  <fix>3d</fix>
</trkpt>
<trkpt lat="33.8098523" lon="-118.3939528">
  <ele>-35.207</ele>
  <time>2026-09-02T22:07:57Z</time>
  <course>184.67</course>
  <speed>0.7355270219373317</speed>
  <fix>3d</fix>
</trkpt>
<trkpt lat="33.8098529" lon="-118.3939525">
  <ele>-34.35</ele>
  <time>2026-09-02T22:07:57Z</time>
  <course>185.01</course>
  <speed>0.77</speed>
  <fix>3d</fix>
</trkpt>
<trkpt lat="33.8098517" lon="-118.3939529">
  <ele>-35.192</ele>
  <time>2026-09-02T22:07:57Z</time>
  <course>184.64</course>
  <speed>0.7355270219373317</speed>
  <fix>3d</fix>
</trkpt>
<trkpt lat="33.8098529" lon="-118.3939525">
  <ele>-34.35</ele>
  <time>2026-09-02T22:07:57Z</time>
  <course>185.01</course>
  <speed>0.77</speed>
  <fix>3d</fix>
</trkpt>
<trkpt lat="33.809851" lon="-118.3939529">
  <ele>-35.174</ele>
  <time>2026-09-02T22:07:57Z</time>
  <course>184.6</course>
  <speed>0.7355270219373317</speed>
  <fix>3d</fix>
</trkpt>
<trkpt lat="33.8098516" lon="-118.3939527">
  <ele>-34.34</ele>
  <time>2026-09-02T22:07:57Z</time>
  <course>184.99</course>
  <speed>0.77</speed>
  <fix>3d</fix>
</trkpt>
<trkpt lat="33.8098503" lon="-118.393953">
  <ele>-35.154</ele>
  <time>2026-09-02T22:07:57Z</time>
  <course>184.57</course>
  <speed>0.7355270219373317</speed>
  <fix>3d</fix>
</trkpt>
<trkpt lat="33.8098516" lon="-118.3939527">
  <ele>-34.34</ele>
  <time>2026-09-02T22:07:57Z</time>
  <course>184.99</course>
  <speed>0.77</speed>
  <fix>3d</fix>
</trkpt>
<trkpt lat="33.8098496" lon="-118.3939531">
  <ele>-35.134</ele>
  <time>2026-09-02T22:07:57Z</time>
  <course>184.54</course>
  <speed>0.7355270219373317</speed>
  <fix>3d</fix>
</trkpt>
<trkpt lat="33.8098502" lon="-118.3939528">
  <ele>-34.31</ele>
  <time>2026-09-02T22:07:57Z</time>
  <course>184.97</course>
  <speed>0.77</speed>
  <fix>3d</fix>
</trkpt>
<trkpt lat="33.8098489" lon="-118.3939532">
  <ele>-35.114</ele>
  <time>2026-09-02T22:07:57Z</time>
  <course>184.51</course>
  <speed>0.7355270219373317</speed>
  <fix>3d</fix>
</trkpt>
<trkpt lat="33.8098502" lon="-118.3939528">
  <ele>-34.31</ele>
  <time>2026-09-02T22:07:57Z</time>
  <course>184.97</course>
  <speed>0.77</speed>
  <fix>3d</fix>
</trkpt>
<trkpt lat="33.8098482" lon="-118.3939532">
  <ele>-35.095</ele>
  <time>2026-09-02T22:07:57Z</time>
  <course>184.48</course>
  <speed>0.7355270219373317</speed>
  <fix>3d</fix>
</trkpt>
<trkpt lat="33.8098488" lon="-118.3939529">
  <ele>-34.28</ele>
  <time>2026-09-02T22:07:57Z</time>
  <course>184.96</course>
  <speed>0.77</speed>
  <fix>3d</fix>
</trkpt>
<trkpt lat="33.8098475" lon="-118.3939533">
  <ele>-35.076</ele>
  <time>2026-09-02T22:07:57Z</time>
  <course>184.44</course>
  <speed>0.7355270219373317</speed>
  <fix>3d</fix>
</trkpt>
<trkpt lat="33.8098488" lon="-118.3939529">
  <ele>-34.28</ele>
  <time>2026-09-02T22:07:57Z</time>
  <course>184.96</course>
  <speed>0.77</speed>
  <fix>3d</fix>
</trkpt>
<trkpt lat="33.8098468" lon="-118.3939534">
  <ele>-35.058</ele>
  <time>2026-09-02T22:07:57Z</time>
  <course>184.41</course>
  <speed>0.7355270219373317</speed>
  <fix>3d</fix>
</trkpt>
<trkpt lat="33.8098473" lon="-118.3939531">
  <ele>-34.25</ele>
  <time>2026-09-02T22:07:57Z</time>
  <course>184.94</course>
  <speed>0.77</speed>
  <fix>3d</fix>
</trkpt>
<trkpt lat="33.8098461" lon="-118.3939534">
  <ele>-35.041</ele>
  <time>2026-09-02T22:07:57Z</time>
  <course>184.38</course>
  <speed>0.7355270219373317</speed>
  <fix>3d</fix>
</trkpt>
<trkpt lat="33.8098473" lon="-118.3939531">
  <ele>-34.25</ele>
  <time>2026-09-02T22:07:57Z</time>
  <course>184.94</course>
  <speed>0.77</speed>
  <fix>3d</fix>
</trkpt>
<trkpt lat="33.8098454" lon="-118.3939535">
  <ele>-35.025</ele>
  <time>2026-09-02T22:07:57Z</time>
  <course>184.35</course>
  <speed>0.7355270219373317</speed>
  <fix>3d</fix>
</trkpt>
<trkpt lat="33.809846" lon="-118.3939532">
  <ele>-34.22</ele>
  <time>2026-09-02T22:07:57Z</time>
  <course>184.92</course>
  <speed>0.77</speed>
  <fix>3d</fix>
</trkpt>
<trkpt lat="33.8098448" lon="-118.3939536">
  <ele>-35.01</ele>
  <time>2026-09-02T22:07:57Z</time>
  <course>184.32</course>
  <speed>0.7355270219373317</speed>
  <fix>3d</fix>
</trkpt>
<trkpt lat="33.809846" lon="-118.3939532">
  <ele>-34.22</ele>
  <time>2026-09-02T22:07:57Z</time>
  <course>184.92</course>
  <speed>0.77</speed>
  <fix>3d</fix>
</trkpt>
<trkpt lat="33.8098441" lon="-118.3939537">
  <ele>-35.0</ele>
  <time>2026-09-02T22:07:57Z</time>
  <course>184.29</course>
  <speed>0.7355270219373317</speed>
  <fix>3d</fix>
</trkpt>
<trkpt lat="33.8098446" lon="-118.3939533">
  <ele>-34.19</ele>
  <time>2026-09-02T22:07:57Z</time>
  <course>184.9</course>
  <speed>0.77</speed>
  <fix>3d</fix>
</trkpt>
<trkpt lat="33.8098434" lon="-118.3939537">
  <ele>-34.992</ele>
  <time>2026-09-02T22:07:57Z</time>
  <course>184.26</course>
  <speed>0.7355270219373317</speed>
  <fix>3d</fix>
</trkpt>
<trkpt lat="33.8098446" lon="-118.3939533">
  <ele>-34.19</ele>
  <time>2026-09-02T22:07:57Z</time>
  <course>184.9</course>
  <speed>0.77</speed>
  <fix>3d</fix>
</trkpt>
<trkpt lat="33.8098427" lon="-118.3939538">
  <ele>-34.987</ele>
  <time>2026-09-02T22:07:57Z</time>
  <course>184.23</course>
  <speed>0.7355270219373317</speed>
  <fix>3d</fix>
</trkpt>
<trkpt lat="33.8098433" lon="-118.3939535">
  <ele>-34.17</ele>
  <time>2026-09-02T22:07:57Z</time>
  <course>184.88</course>
  <speed>0.77</speed>
  <fix>3d</fix>
</trkpt>
<trkpt lat="33.809842" lon="-118.3939539">
  <ele>-34.984</ele>
  <time>2026-09-02T22:07:57Z</time>
  <course>184.2</course>
  <speed>0.7355270219373317</speed>
  <fix>3d</fix>
</trkpt>
<trkpt lat="33.8098433" lon="-118.3939535">
  <ele>-34.17</ele>
  <time>2026-09-02T22:07:57Z</time>
  <course>184.88</course>
  <speed>0.77</speed>
  <fix>3d</fix>
</trkpt>
<trkpt lat="33.8098413" lon="-118.3939539">
  <ele>-34.981</ele>
  <time>2026-09-02T22:07:57Z</time>
  <course>184.17</course>
  <speed>0.7355270219373317</speed>
  <fix>3d</fix>
</trkpt>
<trkpt lat="33.8098418" lon="-118.3939537">
  <ele>-34.16</ele>
  <time>2026-09-02T22:07:57Z</time>
  <course>184.86</course>
  <speed>0.77</speed>
  <fix>3d</fix>
</trkpt>
<trkpt lat="33.8098406" lon="-118.393954">
  <ele>-34.978</ele>
  <time>2026-09-02T22:07:57Z</time>
  <course>184.14</course>
  <speed>0.7343704787094864</speed>
  <fix>3d</fix>
</trkpt>
<trkpt lat="33.8098418" lon="-118.3939537">
  <ele>-34.16</ele>
  <time>2026-09-02T22:07:57Z</time>
  <course>184.86</course>
  <speed>0.77</speed>
  <fix>3d</fix>
</trkpt>
<trkpt lat="33.8098399" lon="-118.3939541">
  <ele>-34.976</ele>
  <time>2026-09-02T22:07:57Z</time>
  <course>184.12</course>
  <speed>0.7343704787094864</speed>
  <fix>3d</fix>
</trkpt>
<trkpt lat="33.8098405" lon="-118.3939538">
  <ele>-34.16</ele>
  <time>2026-09-02T22:07:57Z</time>
  <course>184.84</course>
  <speed>0.77</speed>
  <fix>3d</fix>
</trkpt>
<trkpt lat="33.8098392" lon="-118.3939541">
  <ele>-34.975</ele>
  <time>2026-09-02T22:07:57Z</time>
  <course>184.09</course>
  <speed>0.7343704787094864</speed>
  <fix>3d</fix>
</trkpt>
<trkpt lat="33.8098405" lon="-118.3939538">
  <ele>-34.16</ele>
  <time>2026-09-02T22:07:57Z</time>
  <course>184.84</course>
  <speed>0.77</speed>
  <fix>3d</fix>
</trkpt>
<trkpt lat="33.8098385" lon="-118.3939542">
  <ele>-34.975</ele>
  <time>2026-09-02T22:07:57Z</time>
  <course>184.06</course>
  <speed>0.7343704787094864</speed>
  <fix>3d</fix>
</trkpt>
<trkpt lat="33.8098391" lon="-118.3939539">
  <ele>-34.15</ele>
  <time>2026-09-02T22:07:57Z</time>
  <course>184.81</course>
  <speed>0.77</speed>
  <fix>3d</fix>
</trkpt>
<trkpt lat="33.8098378" lon="-118.3939543">
  <ele>-34.974</ele>
  <time>2026-09-02T22:07:57Z</time>
  <course>184.03</course>
  <speed>0.7343704787094864</speed>
  <fix>3d</fix>
</trkpt>
<trkpt lat="33.8098391" lon="-118.3939539">
  <ele>-34.15</ele>
  <time>2026-09-02T22:07:57Z</time>
  <course>184.81</course>
  <speed>0.77</speed>
  <fix>3d</fix>
</trkpt>
<trkpt lat="33.8098371" lon="-118.3939544">
  <ele>-34.973</ele>
  <time>2026-09-02T22:07:57Z</time>
  <course>184.01</course>
  <speed>0.7343704787094864</speed>
  <fix>3d</fix>
</trkpt>
<trkpt lat="33.8098377" lon="-118.3939541">
  <ele>-34.15</ele>
  <time>2026-09-02T22:07:57Z</time>
  <course>184.79</course>
  <speed>0.77</speed>
  <fix>3d</fix>
</trkpt>
<trkpt lat="33.8098364" lon="-118.3939544">
  <ele>-34.974</ele>
  <time>2026-09-02T22:07:57Z</time>
  <course>183.98</course>
  <speed>0.7343704787094864</speed>
  <fix>3d</fix>
</trkpt>
<trkpt lat="33.8098377" lon="-118.3939541">
  <ele>-34.15</ele>
  <time>2026-09-02T22:07:57Z</time>
  <course>184.79</course>
  <speed>0.77</speed>
  <fix>3d</fix>
</trkpt>
<trkpt lat="33.8098357" lon="-118.3939545">
  <ele>-34.975</ele>
  <time>2026-09-02T22:07:57Z</time>
  <course>183.95</course>
  <speed>0.7343704787094864</speed>
  <fix>3d</fix>
</trkpt>
<trkpt lat="33.8098363" lon="-118.3939542">
  <ele>-34.15</ele>
  <time>2026-09-02T22:07:57Z</time>
  <course>184.76</course>
  <speed>0.77</speed>
  <fix>3d</fix>
</trkpt>
<trkpt lat="33.809835" lon="-118.3939546">
  <ele>-34.978</ele>
  <time>2026-09-02T22:07:57Z</time>
  <course>183.93</course>
  <speed>0.7343704787094864</speed>
  <fix>3d</fix>
</trkpt>
<trkpt lat="33.8098363" lon="-118.3939542">
  <ele>-34.15</ele>
  <time>2026-09-02T22:07:57Z</time>
  <course>184.76</course>
  <speed>0.77</speed>
  <fix>3d</fix>
</trkpt>
<trkpt lat="33.8098344" lon="-118.3939546">
  <ele>-34.982</ele>
  <time>2026-09-02T22:07:57Z</time>
  <course>183.9</course>
  <speed>0.7343704787094864</speed>
  <fix>3d</fix>
</trkpt>
<trkpt lat="33.8098349" lon="-118.3939543">
  <ele>-34.15</ele>
  <time>2026-09-02T22:07:57Z</time>
  <course>184.73</course>
  <speed>0.77</speed>
  <fix>3d</fix>
</trkpt>
<trkpt lat="33.8098337" lon="-118.3939547">
  <ele>-34.986</ele>
  <time>2026-09-02T22:07:57Z</time>
  <course>183.88</course>
  <speed>0.7343704787094864</speed>
  <fix>3d</fix>
</trkpt>
<trkpt lat="33.8098349" lon="-118.3939543">
  <ele>-34.15</ele>
  <time>2026-09-02T22:07:57Z</time>
  <course>184.73</course>
  <speed>0.77</speed>
  <fix>3d</fix>
</trkpt>
<trkpt lat="33.809833" lon="-118.3939548">
  <ele>-34.99</ele>
  <time>2026-09-02T22:07:57Z</time>
  <course>183.85</course>
  <speed>0.7343704787094864</speed>
  <fix>3d</fix>
</trkpt>
<trkpt lat="33.8098336" lon="-118.3939545">
  <ele>-34.15</ele>
  <time>2026-09-02T22:07:57Z</time>
  <course>184.71</course>
  <speed>0.77</speed>
  <fix>3d</fix>
</trkpt>
<trkpt lat="33.8098323" lon="-118.3939548">
  <ele>-34.994</ele>
  <time>2026-09-02T22:07:57Z</time>
  <course>183.82</course>
  <speed>0.7343704787094864</speed>
  <fix>3d</fix>
</trkpt>
<trkpt lat="33.8098336" lon="-118.3939545">
  <ele>-34.15</ele>
  <time>2026-09-02T22:07:57Z</time>
  <course>184.71</course>
  <speed>0.77</speed>
  <fix>3d</fix>
</trkpt>
<trkpt lat="33.8098316" lon="-118.3939549">
  <ele>-34.996</ele>
  <time>2026-09-02T22:07:57Z</time>
  <course>183.8</course>
  <speed>0.7343704787094864</speed>
  <fix>3d</fix>
</trkpt>
<trkpt lat="33.8098322" lon="-118.3939546">
  <ele>-34.16</ele>
  <time>2026-09-02T22:07:57Z</time>
  <course>184.67</course>
  <speed>0.77</speed>
  <fix>3d</fix>
</trkpt>
<trkpt lat="33.8098309" lon="-118.393955">
  <ele>-34.996</ele>
  <time>2026-09-02T22:07:57Z</time>
  <course>183.77</course>
  <speed>0.7343704787094864</speed>
  <fix>3d</fix>
</trkpt>
<trkpt lat="33.8098322" lon="-118.3939546">
  <ele>-34.16</ele>
  <time>2026-09-02T22:07:57Z</time>
  <course>184.67</course>
  <speed>0.77</speed>
  <fix>3d</fix>
</trkpt>
<trkpt lat="33.8098302" lon="-118.393955">
  <ele>-34.995</ele>
  <time>2026-09-02T22:07:57Z</time>
  <course>183.75</course>
  <speed>0.7343704787094864</speed>
  <fix>3d</fix>
</trkpt>
<trkpt lat="33.8098308" lon="-118.3939548">
  <ele>-34.16</ele>
  <time>2026-09-02T22:07:57Z</time>
  <course>184.64</course>
  <speed>0.77</speed>
  <fix>3d</fix>
</trkpt>
<trkpt lat="33.8098295" lon="-118.3939551">
  <ele>-34.995</ele>
  <time>2026-09-02T22:07:57Z</time>
  <course>183.73</course>
  <speed>0.7343704787094864</speed>
  <fix>3d</fix>
</trkpt>
<trkpt lat="33.8098308" lon="-118.3939548">
  <ele>-34.16</ele>
  <time>2026-09-02T22:07:57Z</time>
  <course>184.64</course>
  <speed>0.77</speed>
  <fix>3d</fix>
</trkpt>
<trkpt lat="33.8098288" lon="-118.3939552">
  <ele>-34.994</ele>
  <time>2026-09-02T22:07:57Z</time>
  <course>183.7</course>
  <speed>0.7343704787094864</speed>
  <fix>3d</fix>
</trkpt>
<trkpt lat="33.8098294" lon="-118.3939549">
  <ele>-34.16</ele>
  <time>2026-09-02T22:07:57Z</time>
  <course>184.61</course>
  <speed>0.77</speed>
  <fix>3d</fix>
</trkpt>
<trkpt lat="33.8098281" lon="-118.3939552">
  <ele>-34.992</ele>
  <time>2026-09-02T22:07:57Z</time>
  <course>183.68</course>
  <speed>0.7343704787094864</speed>
  <fix>3d</fix>
</trkpt>
<trkpt lat="33.8098294" lon="-118.3939549">
  <ele>-34.16</ele>
  <time>2026-09-02T22:07:57Z</time>
  <course>184.61</course>
  <speed>0.77</speed>
  <fix>3d</fix>
</trkpt>
<trkpt lat="33.8098274" lon="-118.3939553">
  <ele>-34.992</ele>
  <time>2026-09-02T22:07:57Z</time>
  <course>183.65</course>
  <speed>0.7343704787094864</speed>
  <fix>3d</fix>
</trkpt>
<trkpt lat="33.8098279" lon="-118.393955">
  <ele>-34.16</ele>
  <time>2026-09-02T22:07:57Z</time>
  <course>184.57</course>
  <speed>0.77</speed>
  <fix>3d</fix>
</trkpt>
<trkpt lat="33.8098267" lon="-118.3939554">
  <ele>-34.994</ele>
  <time>2026-09-02T22:07:57Z</time>
  <course>183.63</course>
  <speed>0.7343704787094864</speed>
  <fix>3d</fix>
</trkpt>
<trkpt lat="33.8098279" lon="-118.393955">
  <ele>-34.16</ele>
  <time>2026-09-02T22:07:57Z</time>
  <course>184.57</course>
  <speed>0.77</speed>
  <fix>3d</fix>
</trkpt>
<trkpt lat="33.809826" lon="-118.3939554">
  <ele>-34.997</ele>
  <time>2026-09-02T22:07:57Z</time>
  <course>183.61</course>
  <speed>0.7343704787094864</speed>
  <fix>3d</fix>
</trkpt>
<trkpt lat="33.8098265" lon="-118.3939552">
  <ele>-34.16</ele>
  <time>2026-09-02T22:07:57Z</time>
  <course>184.54</course>
  <speed>0.77</speed>
  <fix>3d</fix>
</trkpt>
<trkpt lat="33.8098253" lon="-118.3939555">
  <ele>-35.0</ele>
  <time>2026-09-02T22:07:57Z</time>
  <course>183.58</course>
  <speed>0.7343704787094864</speed>
  <fix>3d</fix>
</trkpt>
<trkpt lat="33.8098265" lon="-118.3939552">
  <ele>-34.16</ele>
  <time>2026-09-02T22:07:57Z</time>
  <course>184.54</course>
  <speed>0.77</speed>
  <fix>3d</fix>
</trkpt>
<trkpt lat="33.8098246" lon="-118.3939556">
  <ele>-35.001</ele>
  <time>2026-09-02T22:07:57Z</time>
  <course>183.56</course>
  <speed>0.7343704787094864</speed>
  <fix>3d</fix>
</trkpt>
<trkpt lat="33.8098252" lon="-118.3939553">
  <ele>-34.16</ele>
  <time>2026-09-02T22:07:57Z</time>
  <course>184.51</course>
  <speed>0.77</speed>
  <fix>3d</fix>
</trkpt>
<trkpt lat="33.8098239" lon="-118.3939556">
  <ele>-35.002</ele>
  <time>2026-09-02T22:07:57Z</time>
  <course>183.54</course>
  <speed>0.7343704787094864</speed>
  <fix>3d</fix>
</trkpt>
<trkpt lat="33.8098252" lon="-118.3939553">
  <ele>-34.16</ele>
  <time>2026-09-02T22:07:57Z</time>
  <course>184.51</course>
  <speed>0.77</speed>
  <fix>3d</fix>
</trkpt>
<trkpt lat="33.8098232" lon="-118.3939557">
  <ele>-35.002</ele>
  <time>2026-09-02T22:07:57Z</time>
  <course>183.52</course>
  <speed>0.7343704787094864</speed>
  <fix>3d</fix>
</trkpt>
<trkpt lat="33.8098238" lon="-118.3939554">
  <ele>-34.17</ele>
  <time>2026-09-02T22:07:57Z</time>
  <course>184.47</course>
  <speed>0.77</speed>
  <fix>3d</fix>
</trkpt>
<trkpt lat="33.8098225" lon="-118.3939557">
  <ele>-35.002</ele>
  <time>2026-09-02T22:07:57Z</time>
  <course>183.5</course>
  <speed>0.7343704787094864</speed>
  <fix>3d</fix>
</trkpt>
<trkpt lat="33.8098238" lon="-118.3939554">
  <ele>-34.17</ele>
  <time>2026-09-02T22:07:57Z</time>
  <course>184.47</course>
  <speed>0.77</speed>
  <fix>3d</fix>
</trkpt>
<trkpt lat="33.8098218" lon="-118.3939558">
  <ele>-35.003</ele>
  <time>2026-09-02T22:07:57Z</time>
  <course>183.47</course>
  <speed>0.7343704787094864</speed>
  <fix>3d</fix>
</trkpt>
<trkpt lat="33.8098224" lon="-118.3939556">
  <ele>-34.17</ele>
  <time>2026-09-02T22:07:57Z</time>
  <course>184.44</course>
  <speed>0.77</speed>
  <fix>3d</fix>
</trkpt>
<trkpt lat="33.8098211" lon="-118.3939559">
  <ele>-35.003</ele>
  <time>2026-09-02T22:07:57Z</time>
  <course>183.45</course>
  <speed>0.7443117626371358</speed>
  <fix>3d</fix>
</trkpt>
<trkpt lat="33.8098224" lon="-118.3939556">
  <ele>-34.17</ele>
  <time>2026-09-02T22:07:57Z</time>
  <course>184.44</course>
  <speed>0.77</speed>
  <fix>3d</fix>
</trkpt>
<trkpt lat="33.8098204" lon="-118.3939559">
  <ele>-35.005</ele>
  <time>2026-09-02T22:07:57Z</time>
  <course>183.43</course>
  <speed>0.7443117626371358</speed>
  <fix>3d</fix>
</trkpt>
<trkpt lat="33.8098211" lon="-118.3939557">
  <ele>-34.17</ele>
  <time>2026-09-02T22:07:57Z</time>
  <course>184.4</course>
  <speed>0.77</speed>
  <fix>3d</fix>
</trkpt>
<trkpt lat="33.8098198" lon="-118.393956">
  <ele>-35.006</ele>
  <time>2026-09-02T22:07:57Z</time>
  <course>183.41</course>
  <speed>0.7443117626371358</speed>
  <fix>3d</fix>
</trkpt>
<trkpt lat="33.8098211" lon="-118.3939557">
  <ele>-34.17</ele>
  <time>2026-09-02T22:07:57Z</time>
  <course>184.4</course>
  <speed>0.77</speed>
  <fix>3d</fix>
</trkpt>
<trkpt lat="33.8098191" lon="-118.3939561">
  <ele>-35.008</ele>
  <time>2026-09-02T22:07:57Z</time>
  <course>183.39</course>
  <speed>0.7443117626371358</speed>
  <fix>3d</fix>
</trkpt>
<trkpt lat="33.8098197" lon="-118.3939558">
  <ele>-34.17</ele>
  <time>2026-09-02T22:07:57Z</time>
  <course>184.36</course>
  <speed>0.77</speed>
  <fix>3d</fix>
</trkpt>
<trkpt lat="33.8098184" lon="-118.3939561">
  <ele>-35.01</ele>
  <time>2026-09-02T22:07:57Z</time>
  <course>183.37</course>
  <speed>0.7443117626371358</speed>
  <fix>3d</fix>
</trkpt>
<trkpt lat="33.8098197" lon="-118.3939558">
  <ele>-34.17</ele>
  <time>2026-09-02T22:07:57Z</time>
  <course>184.36</course>
  <speed>0.77</speed>
  <fix>3d</fix>
</trkpt>
<trkpt lat="33.8098177" lon="-118.3939562">
  <ele>-35.012</ele>
  <time>2026-09-02T22:07:57Z</time>
  <course>183.35</course>
  <speed>0.7443117626371358</speed>
  <fix>3d</fix>
</trkpt>
<trkpt lat="33.8098182" lon="-118.3939559">
  <ele>-34.17</ele>
  <time>2026-09-02T22:07:57Z</time>
  <course>184.32</course>
  <speed>0.77</speed>
  <fix>3d</fix>
</trkpt>
<trkpt lat="33.809817" lon="-118.3939563">
  <ele>-35.014</ele>
  <time>2026-09-02T22:07:57Z</time>
  <course>183.33</course>
  <speed>0.7443117626371358</speed>
  <fix>3d</fix>
</trkpt>
<trkpt lat="33.8098182" lon="-118.3939559">
  <ele>-34.17</ele>
  <time>2026-09-02T22:07:57Z</time>
  <course>184.32</course>
  <speed>0.77</speed>
  <fix>3d</fix>
</trkpt>
<trkpt lat="33.8098163" lon="-118.3939563">
  <ele>-35.014</ele>
  <time>2026-09-02T22:07:57Z</time>
  <course>183.31</course>
  <speed>0.7443117626371358</speed>
  <fix>3d</fix>
</trkpt>
<trkpt lat="33.8098169" lon="-118.3939561">
  <ele>-34.18</ele>
  <time>2026-09-02T22:07:57Z</time>
  <course>184.28</course>
  <speed>0.77</speed>
  <fix>3d</fix>
</trkpt>
<trkpt lat="33.8098156" lon="-118.3939564">
  <ele>-35.014</ele>
  <time>2026-09-02T22:07:57Z</time>
  <course>183.28</course>
  <speed>0.7433034373659253</speed>
  <fix>3d</fix>
</trkpt>
<trkpt lat="33.8098169" lon="-118.3939561">
  <ele>-34.18</ele>
  <time>2026-09-02T22:07:57Z</time>
  <course>184.28</course>
  <speed>0.77</speed>
  <fix>3d</fix>
</trkpt>
<trkpt lat="33.8098149" lon="-118.3939564">
  <ele>-35.012</ele>
  <time>2026-09-02T22:07:57Z</time>
  <course>183.26</course>
  <speed>0.7433034373659253</speed>
  <fix>3d</fix>
</trkpt>
<trkpt lat="33.8098155" lon="-118.3939562">
  <ele>-34.17</ele>
  <time>2026-09-02T22:07:57Z</time>
  <course>184.25</course>
  <speed>0.77</speed>
  <fix>3d</fix>
</trkpt>
<trkpt lat="33.8098142" lon="-118.3939565">
  <ele>-35.01</ele>
  <time>2026-09-02T22:07:57Z</time>
  <course>183.24</course>
  <speed>0.7433034373659253</speed>
  <fix>3d</fix>
</trkpt>
<trkpt lat="33.8098155" lon="-118.3939562">
  <ele>-34.17</ele>
  <time>2026-09-02T22:07:57Z</time>
  <course>184.25</course>
  <speed>0.77</speed>
  <fix>3d</fix>
</trkpt>
<trkpt lat="33.8098135" lon="-118.3939566">
  <ele>-35.007</ele>
  <time>2026-09-02T22:07:57Z</time>
  <course>183.23</course>
  <speed>0.7433034373659253</speed>
  <fix>3d</fix>
</trkpt>
<trkpt lat="33.809814" lon="-118.3939563">
  <ele>-34.17</ele>
  <time>2026-09-02T22:07:57Z</time>
  <course>184.21</course>
  <speed>0.77</speed>
  <fix>3d</fix>
</trkpt>
<trkpt lat="33.8098128" lon="-118.3939566">
  <ele>-35.005</ele>
  <time>2026-09-02T22:07:57Z</time>
  <course>183.21</course>
  <speed>0.7433034373659253</speed>
  <fix>3d</fix>
</trkpt>
<trkpt lat="33.809814" lon="-118.3939563">
  <ele>-34.17</ele>
  <time>2026-09-02T22:07:57Z</time>
  <course>184.21</course>
  <speed>0.77</speed>
  <fix>3d</fix>
</trkpt>
<trkpt lat="33.8098121" lon="-118.3939567">
  <ele>-35.003</ele>
  <time>2026-09-02T22:07:57Z</time>
  <course>183.19</course>
  <speed>0.7433034373659253</speed>
  <fix>3d</fix>
</trkpt>
<trkpt lat="33.8098126" lon="-118.3939564">
  <ele>-34.16</ele>
  <time>2026-09-02T22:07:57Z</time>
  <course>184.17</course>
  <speed>0.77</speed>
  <fix>3d</fix>
</trkpt>
<trkpt lat="33.8098114" lon="-118.3939567">
  <ele>-35.001</ele>
  <time>2026-09-02T22:07:57Z</time>
  <course>183.17</course>
  <speed>0.7433034373659253</speed>
  <fix>3d</fix>
</trkpt>
<trkpt lat="33.8098126" lon="-118.3939564">
  <ele>-34.16</ele>
  <time>2026-09-02T22:07:57Z</time>
  <course>184.17</course>
  <speed>0.77</speed>
  <fix>3d</fix>
</trkpt>
<trkpt lat="33.8098107" lon="-118.3939568">
  <ele>-34.998</ele>
  <time>2026-09-02T22:07:57Z</time>
  <course>183.15</course>
  <speed>0.7433034373659253</speed>
  <fix>3d</fix>
</trkpt>
<trkpt lat="33.8098113" lon="-118.3939566">
  <ele>-34.15</ele>
  <time>2026-09-02T22:07:57Z</time>
  <course>184.13</course>
  <speed>0.77</speed>
  <fix>3d</fix>
</trkpt>
<trkpt lat="33.80981" lon="-118.3939569">
  <ele>-34.998</ele>
  <time>2026-09-02T22:07:57Z</time>
  <course>183.13</course>
  <speed>0.7433034373659253</speed>
  <fix>3d</fix>
</trkpt>
<trkpt lat="33.8098113" lon="-118.3939566">
  <ele>-34.15</ele>
  <time>2026-09-02T22:07:57Z</time>
  <course>184.13</course>
  <speed>0.77</speed>
  <fix>3d</fix>
</trkpt>
<trkpt lat="33.8098093" lon="-118.3939569">
  <ele>-35.002</ele>
  <time>2026-09-02T22:07:57Z</time>
  <course>183.11</course>
  <speed>0.7433034373659253</speed>
  <fix>3d</fix>
</trkpt>
<trkpt lat="33.80981" lon="-118.3939567">
  <ele>-34.15</ele>
  <time>2026-09-02T22:07:57Z</time>
  <course>184.1</course>
  <speed>0.77</speed>
  <fix>3d</fix>
</trkpt>
<trkpt lat="33.8098086" lon="-118.393957">
  <ele>-35.008</ele>
  <time>2026-09-02T22:07:57Z</time>
  <course>183.1</course>
  <speed>0.7433034373659253</speed>
  <fix>3d</fix>
</trkpt>
<trkpt lat="33.80981" lon="-118.3939567">
  <ele>-34.15</ele>
  <time>2026-09-02T22:07:57Z</time>
  <course>184.1</course>
  <speed>0.77</speed>
  <fix>3d</fix>
</trkpt>
<trkpt lat="33.8098079" lon="-118.393957">
  <ele>-35.015</ele>
  <time>2026-09-02T22:07:57Z</time>
  <course>183.08</course>
  <speed>0.7433034373659253</speed>
  <fix>3d</fix>
</trkpt>
<trkpt lat="33.8098085" lon="-118.3939568">
  <ele>-34.16</ele>
  <time>2026-09-02T22:07:57Z</time>
  <course>184.08</course>
  <speed>0.77</speed>
  <fix>3d</fix>
</trkpt>
<trkpt lat="33.8098072" lon="-118.3939571">
  <ele>-35.02</ele>
  <time>2026-09-02T22:07:57Z</time>
  <course>183.06</course>
  <speed>0.7433034373659253</speed>
  <fix>3d</fix>
</trkpt>
<trkpt lat="33.8098085" lon="-118.3939568">
  <ele>-34.16</ele>
  <time>2026-09-02T22:07:57Z</time>
  <course>184.08</course>
  <speed>0.77</speed>
  <fix>3d</fix>
</trkpt>
<trkpt lat="33.8098065" lon="-118.3939572">
  <ele>-35.024</ele>
  <time>2026-09-02T22:07:57Z</time>
  <course>183.04</course>
  <speed>0.7433034373659253</speed>
  <fix>3d</fix>
</trkpt>
<trkpt lat="33.8098071" lon="-118.3939569">
  <ele>-34.17</ele>
  <time>2026-09-02T22:07:57Z</time>
  <course>184.05</course>
  <speed>0.77</speed>
  <fix>3d</fix>
</trkpt>
<trkpt lat="33.8098058" lon="-118.3939572">
  <ele>-35.028</ele>
  <time>2026-09-02T22:07:57Z</time>
  <course>183.03</course>
  <speed>0.7433034373659253</speed>
  <fix>3d</fix>
</trkpt>
<trkpt lat="33.8098071" lon="-118.3939569">
  <ele>-34.17</ele>
  <time>2026-09-02T22:07:57Z</time>
  <course>184.05</course>
  <speed>0.77</speed>
  <fix>3d</fix>
</trkpt>
<trkpt lat="33.8098051" lon="-118.3939573">
  <ele>-35.031</ele>
  <time>2026-09-02T22:07:57Z</time>
  <course>183.01</course>
  <speed>0.7433034373659253</speed>
  <fix>3d</fix>
</trkpt>
<trkpt lat="33.8098058" lon="-118.393957">
  <ele>-34.18</ele>
  <time>2026-09-02T22:07:57Z</time>
  <course>184.01</course>
  <speed>0.77</speed>
  <fix>3d</fix>
</trkpt>
<trkpt lat="33.8098044" lon="-118.3939573">
  <ele>-35.031</ele>
  <time>2026-09-02T22:07:57Z</time>
  <course>182.99</course>
  <speed>0.7433034373659253</speed>
  <fix>3d</fix>
</trkpt>
<trkpt lat="33.8098058" lon="-118.393957">
  <ele>-34.18</ele>
  <time>2026-09-02T22:07:57Z</time>
  <course>184.01</course>
  <speed>0.77</speed>
  <fix>3d</fix>
</trkpt>
<trkpt lat="33.8098037" lon="-118.3939574">
  <ele>-35.03</ele>
  <time>2026-09-02T22:07:57Z</time>
  <course>182.98</course>
  <speed>0.7433034373659253</speed>
  <fix>3d</fix>
</trkpt>
<trkpt lat="33.8098044" lon="-118.3939572">
  <ele>-34.19</ele>
  <time>2026-09-02T22:07:57Z</time>
  <course>183.96</course>
  <speed>0.77</speed>
  <fix>3d</fix>
</trkpt>
<trkpt lat="33.809803" lon="-118.3939574">
  <ele>-35.027</ele>
  <time>2026-09-02T22:07:57Z</time>
  <course>182.96</course>
  <speed>0.7433034373659253</speed>
  <fix>3d</fix>
</trkpt>
<trkpt lat="33.8098044" lon="-118.3939572">
  <ele>-34.19</ele>
  <time>2026-09-02T22:07:57Z</time>
  <course>183.96</course>
  <speed>0.77</speed>
  <fix>3d</fix>
</trkpt>
<trkpt lat="33.8098023" lon="-118.3939575">
  <ele>-35.024</ele>
  <time>2026-09-02T22:07:57Z</time>
  <course>182.94</course>
  <speed>0.7433034373659253</speed>
  <fix>3d</fix>
</trkpt>
<trkpt lat="33.809803" lon="-118.3939573">
  <ele>-34.18</ele>
  <time>2026-09-02T22:07:57Z</time>
  <course>183.92</course>
  <speed>0.77</speed>
  <fix>3d</fix>
</trkpt>
<trkpt lat="33.8098016" lon="-118.3939576">
  <ele>-35.021</ele>
  <time>2026-09-02T22:07:57Z</time>
  <course>182.93</course>
  <speed>0.7433034373659253</speed>
  <fix>3d</fix>
</trkpt>
<trkpt lat="33.809803" lon="-118.3939573">
  <ele>-34.18</ele>
  <time>2026-09-02T22:07:57Z</time>
  <course>183.92</course>
  <speed>0.77</speed>
  <fix>3d</fix>
</trkpt>
<trkpt lat="33.809801" lon="-118.3939576">
  <ele>-35.018</ele>
  <time>2026-09-02T22:07:57Z</time>
  <course>182.91</course>
  <speed>0.7433034373659253</speed>
  <fix>3d</fix>
</trkpt>
<trkpt lat="33.8098016" lon="-118.3939574">
  <ele>-34.18</ele>
  <time>2026-09-02T22:07:57Z</time>
  <course>183.89</course>
  <speed>0.77</speed>
  <fix>3d</fix>
</trkpt>
<trkpt lat="33.8098003" lon="-118.3939577">
  <ele>-35.016</ele>
  <time>2026-09-02T22:07:57Z</time>
  <course>182.89</course>
  <speed>0.7433034373659253</speed>
  <fix>3d</fix>
</trkpt>
<trkpt lat="33.8098016" lon="-118.3939574">
  <ele>-34.18</ele>
  <time>2026-09-02T22:07:57Z</time>
  <course>183.89</course>
  <speed>0.77</speed>
  <fix>3d</fix>
</trkpt>
<trkpt lat="33.8097996" lon="-118.3939577">
  <ele>-35.016</ele>
  <time>2026-09-02T22:07:57Z</time>
  <course>182.88</course>
  <speed>0.7433034373659253</speed>
  <fix>3d</fix>
</trkpt>
<trkpt lat="33.8098002" lon="-118.3939575">
  <ele>-34.17</ele>
  <time>2026-09-02T22:07:57Z</time>
  <course>183.85</course>
  <speed>0.77</speed>
  <fix>3d</fix>
</trkpt>
<trkpt lat="33.8097989" lon="-118.3939578">
  <ele>-35.016</ele>
  <time>2026-09-02T22:07:57Z</time>
  <course>182.86</course>
  <speed>0.7433034373659253</speed>
  <fix>3d</fix>
</trkpt>
<trkpt lat="33.8098002" lon="-118.3939575">
  <ele>-34.17</ele>
  <time>2026-09-02T22:07:57Z</time>
  <course>183.85</course>
  <speed>0.77</speed>
  <fix>3d</fix>
</trkpt>
<trkpt lat="33.8097982" lon="-118.3939578">
  <ele>-35.016</ele>
  <time>2026-09-02T22:07:57Z</time>
  <course>182.85</course>
  <speed>0.7433034373659253</speed>
  <fix>3d</fix>
</trkpt>
<trkpt lat="33.8097988" lon="-118.3939576">
  <ele>-34.17</ele>
  <time>2026-09-02T22:07:57Z</time>
  <course>183.82</course>
  <speed>0.77</speed>
  <fix>3d</fix>
</trkpt>
<trkpt lat="33.8097975" lon="-118.3939579">
  <ele>-35.017</ele>
  <time>2026-09-02T22:07:57Z</time>
  <course>182.83</course>
  <speed>0.7433034373659253</speed>
  <fix>3d</fix>
</trkpt>
<trkpt lat="33.8097988" lon="-118.3939576">
  <ele>-34.17</ele>
  <time>2026-09-02T22:07:57Z</time>
  <course>183.82</course>
  <speed>0.77</speed>
  <fix>3d</fix>
</trkpt>
<trkpt lat="33.8097968" lon="-118.3939579">
  <ele>-35.019</ele>
  <time>2026-09-02T22:07:57Z</time>
  <course>182.82</course>
  <speed>0.7433034373659253</speed>
  <fix>3d</fix>
</trkpt>
<trkpt lat="33.8097975" lon="-118.3939577">
  <ele>-34.17</ele>
  <time>2026-09-02T22:07:57Z</time>
  <course>183.78</course>
  <speed>0.77</speed>
  <fix>3d</fix>
</trkpt>
<trkpt lat="33.8097961" lon="-118.393958">
  <ele>-35.022</ele>
  <time>2026-09-02T22:07:57Z</time>
  <course>182.8</course>
  <speed>0.7433034373659253</speed>
  <fix>3d</fix>
</trkpt>
<trkpt lat="33.8097975" lon="-118.3939577">
  <ele>-34.17</ele>
  <time>2026-09-02T22:07:57Z</time>
  <course>183.78</course>
  <speed>0.77</speed>
  <fix>3d</fix>
</trkpt>
<trkpt lat="33.8097954" lon="-118.3939581">
  <ele>-35.025</ele>
  <time>2026-09-02T22:07:57Z</time>
  <course>182.78</course>
  <speed>0.7433034373659253</speed>
  <fix>3d</fix>
</trkpt>
<trkpt lat="33.8097961" lon="-118.3939578">
  <ele>-34.18</ele>
  <time>2026-09-02T22:07:57Z</time>
  <course>183.75</course>
  <speed>0.77</speed>
  <fix>3d</fix>
</trkpt>
<trkpt lat="33.8097947" lon="-118.3939581">
  <ele>-35.029</ele>
  <time>2026-09-02T22:07:57Z</time>
  <course>182.77</course>
  <speed>0.7433034373659253</speed>
  <fix>3d</fix>
</trkpt>
<trkpt lat="33.8097961" lon="-118.3939578">
  <ele>-34.18</ele>
  <time>2026-09-02T22:07:57Z</time>
  <course>183.75</course>
  <speed>0.77</speed>
  <fix>3d</fix>
</trkpt>
<trkpt lat="33.8097941" lon="-118.3939582">
  <ele>-35.032</ele>
  <time>2026-09-02T22:07:57Z</time>
  <course>182.76</course>
  <speed>0.7433034373659253</speed>
  <fix>3d</fix>
</trkpt>
<trkpt lat="33.8097947" lon="-118.3939579">
  <ele>-34.18</ele>
  <time>2026-09-02T22:07:57Z</time>
  <course>183.71</course>
  <speed>0.77</speed>
  <fix>3d</fix>
</trkpt>
<trkpt lat="33.8097934" lon="-118.3939582">
  <ele>-35.035</ele>
  <time>2026-09-02T22:07:57Z</time>
  <course>182.74</course>
  <speed>0.7424284477308234</speed>
  <fix>3d</fix>
</trkpt>
<trkpt lat="33.8097947" lon="-118.3939579">
  <ele>-34.18</ele>
  <time>2026-09-02T22:07:57Z</time>
  <course>183.71</course>
  <speed>0.77</speed>
  <fix>3d</fix>
</trkpt>
<trkpt lat="33.8097927" lon="-118.3939583">
  <ele>-35.037</ele>
  <time>2026-09-02T22:07:57Z</time>
  <course>182.73</course>
  <speed>0.7424284477308234</speed>
  <fix>3d</fix>
</trkpt>
<trkpt lat="33.8097932" lon="-118.393958">
  <ele>-34.19</ele>
  <time>2026-09-02T22:07:57Z</time>
  <course>183.68</course>
  <speed>0.77</speed>
  <fix>3d</fix>
</trkpt>
<trkpt lat="33.809792" lon="-118.3939583">
  <ele>-35.038</ele>
  <time>2026-09-02T22:07:57Z</time>
  <course>182.72</course>
  <speed>0.7424284477308234</speed>
  <fix>3d</fix>
</trkpt>
<trkpt lat="33.8097932" lon="-118.393958">
  <ele>-34.19</ele>
  <time>2026-09-02T22:07:57Z</time>
  <course>183.68</course>
  <speed>0.77</speed>
  <fix>3d</fix>
</trkpt>
<trkpt lat="33.8097913" lon="-118.3939584">
  <ele>-35.038</ele>
  <time>2026-09-02T22:07:57Z</time>
  <course>182.7</course>
  <speed>0.7424284477308234</speed>
  <fix>3d</fix>
</trkpt>
<trkpt lat="33.8097919" lon="-118.3939581">
  <ele>-34.2</ele>
  <time>2026-09-02T22:07:57Z</time>
  <course>183.64</course>
  <speed>0.77</speed>
  <fix>3d</fix>
</trkpt>
<trkpt lat="33.8097906" lon="-118.3939584">
  <ele>-35.037</ele>
  <time>2026-09-02T22:07:57Z</time>
  <course>182.69</course>
  <speed>0.7424284477308234</speed>
  <fix>3d</fix>
</trkpt>
<trkpt lat="33.8097919" lon="-118.3939581">
  <ele>-34.2</ele>
  <time>2026-09-02T22:07:57Z</time>
  <course>183.64</course>
  <speed>0.77</speed>
  <fix>3d</fix>
</trkpt>
<trkpt lat="33.8097899" lon="-118.3939585">
  <ele>-35.034</ele>
  <time>2026-09-02T22:07:57Z</time>
  <course>182.67</course>
  <speed>0.7424284477308234</speed>
  <fix>3d</fix>
</trkpt>
<trkpt lat="33.8097905" lon="-118.3939583">
  <ele>-34.2</ele>
  <time>2026-09-02T22:07:57Z</time>
  <course>183.6</course>
  <speed>0.77</speed>
  <fix>3d</fix>
</trkpt>
<trkpt lat="33.8097892" lon="-118.3939585">
  <ele>-35.029</ele>
  <time>2026-09-02T22:07:57Z</time>
  <course>182.66</course>
  <speed>0.7424284477308234</speed>
  <fix>3d</fix>
</trkpt>
<trkpt lat="33.8097905" lon="-118.3939583">
  <ele>-34.2</ele>
  <time>2026-09-02T22:07:57Z</time>
  <course>183.6</course>
  <speed>0.77</speed>
  <fix>3d</fix>
</trkpt>
<trkpt lat="33.8097885" lon="-118.3939586">
  <ele>-35.022</ele>
  <time>2026-09-02T22:07:57Z</time>
  <course>182.64</course>
  <speed>0.7424284477308234</speed>
  <fix>3d</fix>
</trkpt>
<trkpt lat="33.809789" lon="-118.3939584">
  <ele>-34.19</ele>
  <time>2026-09-02T22:07:57Z</time>
  <course>183.56</course>
  <speed>0.77</speed>
  <fix>3d</fix>
</trkpt>
<trkpt lat="33.8097878" lon="-118.3939586">
  <ele>-35.014</ele>
  <time>2026-09-02T22:07:57Z</time>
  <course>182.63</course>
  <speed>0.7424284477308234</speed>
  <fix>3d</fix>
</trkpt>
<trkpt lat="33.809789" lon="-118.3939584">
  <ele>-34.19</ele>
  <time>2026-09-02T22:07:57Z</time>
  <course>183.56</course>
  <speed>0.77</speed>
  <fix>3d</fix>
</trkpt>
<trkpt lat="33.8097871" lon="-118.3939587">
  <ele>-35.007</ele>
  <time>2026-09-02T22:07:57Z</time>
  <course>182.62</course>
  <speed>0.7424284477308234</speed>
  <fix>3d</fix>
</trkpt>
<trkpt lat="33.8097877" lon="-118.3939585">
  <ele>-34.18</ele>
  <time>2026-09-02T22:07:57Z</time>
  <course>183.52</course>
  <speed>0.77</speed>
  <fix>3d</fix>
</trkpt>
<trkpt lat="33.8097864" lon="-118.3939587">
  <ele>-35.0</ele>
  <time>2026-09-02T22:07:57Z</time>
  <course>182.61</course>
  <speed>0.7424284477308234</speed>
  <fix>3d</fix>
</trkpt>
<trkpt lat="33.8097877" lon="-118.3939585">
  <ele>-34.18</ele>
  <time>2026-09-02T22:07:57Z</time>
  <course>183.52</course>
  <speed>0.77</speed>
  <fix>3d</fix>
</trkpt>
<trkpt lat="33.8097857" lon="-118.3939588">
  <ele>-34.994</ele>
  <time>2026-09-02T22:07:57Z</time>
  <course>182.59</course>
  <speed>0.7424284477308234</speed>
  <fix>3d</fix>
</trkpt>
<trkpt lat="33.8097863" lon="-118.3939586">
  <ele>-34.16</ele>
  <time>2026-09-02T22:07:57Z</time>
  <course>183.49</course>
  <speed>0.77</speed>
  <fix>3d</fix>
</trkpt>
<trkpt lat="33.809785" lon="-118.3939588">
  <ele>-34.988</ele>
  <time>2026-09-02T22:07:57Z</time>
  <course>182.58</course>
  <speed>0.7424284477308234</speed>
  <fix>3d</fix>
</trkpt>
<trkpt lat="33.8097863" lon="-118.3939586">
  <ele>-34.16</ele>
  <time>2026-09-02T22:07:57Z</time>
  <course>183.49</course>
  <speed>0.77</speed>
  <fix>3d</fix>
</trkpt>
<trkpt lat="33.8097843" lon="-118.3939589">
  <ele>-34.985</ele>
  <time>2026-09-02T22:07:57Z</time>
  <course>182.57</course>
  <speed>0.7424284477308234</speed>
  <fix>3d</fix>
</trkpt>
<trkpt lat="33.809785" lon="-118.3939587">
  <ele>-34.15</ele>
  <time>2026-09-02T22:07:57Z</time>
  <course>183.46</course>
  <speed>0.77</speed>
  <fix>3d</fix>
</trkpt>
<trkpt lat="33.8097836" lon="-118.3939589">
  <ele>-34.983</ele>
  <time>2026-09-02T22:07:57Z</time>
  <course>182.56</course>
  <speed>0.7424284477308234</speed>
  <fix>3d</fix>
</trkpt>
<trkpt lat="33.809785" lon="-118.3939587">
  <ele>-34.15</ele>
  <time>2026-09-02T22:07:57Z</time>
  <course>183.46</course>
  <speed>0.77</speed>
  <fix>3d</fix>
</trkpt>
<trkpt lat="33.809783" lon="-118.393959">
  <ele>-34.981</ele>
  <time>2026-09-02T22:07:57Z</time>
  <course>182.54</course>
  <speed>0.7424284477308234</speed>
  <fix>3d</fix>
</trkpt>
<trkpt lat="33.8097836" lon="-118.3939588">
  <ele>-34.15</ele>
  <time>2026-09-02T22:07:57Z</time>
  <course>183.43</course>
  <speed>0.77</speed>
  <fix>3d</fix>
</trkpt>
<trkpt lat="33.8097823" lon="-118.393959">
  <ele>-34.981</ele>
  <time>2026-09-02T22:07:57Z</time>
  <course>182.53</course>
  <speed>0.7424284477308234</speed>
  <fix>3d</fix>
</trkpt>
<trkpt lat="33.8097836" lon="-118.3939588">
  <ele>-34.15</ele>
  <time>2026-09-02T22:07:57Z</time>
  <course>183.43</course>
  <speed>0.77</speed>
  <fix>3d</fix>
</trkpt>
<trkpt lat="33.8097816" lon="-118.3939591">
  <ele>-34.981</ele>
  <time>2026-09-02T22:07:57Z</time>
  <course>182.52</course>
  <speed>0.7424284477308234</speed>
  <fix>3d</fix>
</trkpt>
<trkpt lat="33.8097822" lon="-118.3939589">
  <ele>-34.15</ele>
  <time>2026-09-02T22:07:57Z</time>
  <course>183.4</course>
  <speed>0.77</speed>
  <fix>3d</fix>
</trkpt>
<trkpt lat="33.8097809" lon="-118.3939591">
  <ele>-34.983</ele>
  <time>2026-09-02T22:07:57Z</time>
  <course>182.51</course>
  <speed>0.7424284477308234</speed>
  <fix>3d</fix>
</trkpt>
<trkpt lat="33.8097822" lon="-118.3939589">
  <ele>-34.15</ele>
  <time>2026-09-02T22:07:57Z</time>
  <course>183.4</course>
  <speed>0.77</speed>
  <fix>3d</fix>
</trkpt>
<trkpt lat="33.8097802" lon="-118.3939592">
  <ele>-34.985</ele>
  <time>2026-09-02T22:07:57Z</time>
  <course>182.49</course>
  <speed>0.7424284477308234</speed>
  <fix>3d</fix>
</trkpt>
<trkpt lat="33.8097808" lon="-118.393959">
  <ele>-34.15</ele>
  <time>2026-09-02T22:07:57Z</time>
  <course>183.37</course>
  <speed>0.77</speed>
  <fix>3d</fix>
</trkpt>
<trkpt lat="33.8097795" lon="-118.3939592">
  <ele>-34.987</ele>
  <time>2026-09-02T22:07:57Z</time>
  <course>182.48</course>
  <speed>0.7424284477308234</speed>
  <fix>3d</fix>
</trkpt>
<trkpt lat="33.8097808" lon="-118.393959">
  <ele>-34.15</ele>
  <time>2026-09-02T22:07:57Z</time>
  <course>183.37</course>
  <speed>0.77</speed>
  <fix>3d</fix>
</trkpt>
<trkpt lat="33.8097788" lon="-118.3939593">
  <ele>-34.989</ele>
  <time>2026-09-02T22:07:57Z</time>
  <course>182.47</course>
  <speed>0.7424284477308234</speed>
  <fix>3d</fix>
</trkpt>
<trkpt lat="33.8097793" lon="-118.3939591">
  <ele>-34.15</ele>
  <time>2026-09-02T22:07:57Z</time>
  <course>183.34</course>
  <speed>0.77</speed>
  <fix>3d</fix>
</trkpt>
<trkpt lat="33.8097781" lon="-118.3939593">
  <ele>-34.989</ele>
  <time>2026-09-02T22:07:57Z</time>
  <course>182.46</course>
  <speed>0.7424284477308234</speed>
  <fix>3d</fix>
</trkpt>
<trkpt lat="33.8097793" lon="-118.3939591">
  <ele>-34.15</ele>
  <time>2026-09-02T22:07:57Z</time>
  <course>183.34</course>
  <speed>0.77</speed>
  <fix>3d</fix>
</trkpt>
<trkpt lat="33.8097774" lon="-118.3939594">
  <ele>-34.987</ele>
  <time>2026-09-02T22:07:57Z</time>
  <course>182.44</course>
  <speed>0.7424284477308234</speed>
  <fix>3d</fix>
</trkpt>
<trkpt lat="33.8097779" lon="-118.3939592">
  <ele>-34.15</ele>
  <time>2026-09-02T22:07:57Z</time>
  <course>183.3</course>
  <speed>0.77</speed>
  <fix>3d</fix>
</trkpt>
<trkpt lat="33.8097767" lon="-118.3939594">
  <ele>-34.984</ele>
  <time>2026-09-02T22:07:57Z</time>
  <course>182.43</course>
  <speed>0.7424284477308234</speed>
  <fix>3d</fix>
</trkpt>
<trkpt lat="33.8097779" lon="-118.3939592">
  <ele>-34.15</ele>
  <time>2026-09-02T22:07:57Z</time>
  <course>183.3</course>
  <speed>0.77</speed>
  <fix>3d</fix>
</trkpt>
<trkpt lat="33.809776" lon="-118.3939595">
  <ele>-34.981</ele>
  <time>2026-09-02T22:07:57Z</time>
  <course>182.42</course>
  <speed>0.7424284477308234</speed>
  <fix>3d</fix>
</trkpt>
<trkpt lat="33.8097766" lon="-118.3939593">
  <ele>-34.14</ele>
  <time>2026-09-02T22:07:57Z</time>
  <course>183.27</course>
  <speed>0.77</speed>
  <fix>3d</fix>
</trkpt>
<trkpt lat="33.8097753" lon="-118.3939595">
  <ele>-34.979</ele>
  <time>2026-09-02T22:07:57Z</time>
  <course>182.41</course>
  <speed>0.7424284477308234</speed>
  <fix>3d</fix>
</trkpt>
<trkpt lat="33.8097766" lon="-118.3939593">
  <ele>-34.14</ele>
  <time>2026-09-02T22:07:57Z</time>
  <course>183.27</course>
  <speed>0.77</speed>
  <fix>3d</fix>
</trkpt>
<trkpt lat="33.8097746" lon="-118.3939596">
  <ele>-34.978</ele>
  <time>2026-09-02T22:07:57Z</time>
  <course>182.4</course>
  <speed>0.7424284477308234</speed>
  <fix>3d</fix>
</trkpt>
<trkpt lat="33.8097752" lon="-118.3939594">
  <ele>-34.14</ele>
  <time>2026-09-02T22:07:57Z</time>
  <course>183.24</course>
  <speed>0.77</speed>
  <fix>3d</fix>
</trkpt>
<trkpt lat="33.8097739" lon="-118.3939596">
  <ele>-34.981</ele>
  <time>2026-09-02T22:07:57Z</time>
  <course>182.39</course>
  <speed>0.7424284477308234</speed>
  <fix>3d</fix>
</trkpt>
<trkpt lat="33.8097752" lon="-118.3939594">
  <ele>-34.14</ele>
  <time>2026-09-02T22:07:57Z</time>
  <course>183.24</course>
  <speed>0.77</speed>
  <fix>3d</fix>
</trkpt>
<trkpt lat="33.8097732" lon="-118.3939597">
  <ele>-34.988</ele>
  <time>2026-09-02T22:07:57Z</time>
  <course>182.38</course>
  <speed>0.7424284477308234</speed>
  <fix>3d</fix>
</trkpt>
<trkpt lat="33.8097738" lon="-118.3939594">
  <ele>-34.14</ele>
  <time>2026-09-02T22:07:57Z</time>
  <course>183.22</course>
  <speed>0.77</speed>
  <fix>3d</fix>
</trkpt>
<trkpt lat="33.8097725" lon="-118.3939597">
  <ele>-34.997</ele>
  <time>2026-09-02T22:07:57Z</time>
  <course>182.37</course>
  <speed>0.7424284477308234</speed>
  <fix>3d</fix>
</trkpt>
<trkpt lat="33.8097738" lon="-118.3939594">
  <ele>-34.14</ele>
  <time>2026-09-02T22:07:57Z</time>
  <course>183.22</course>
  <speed>0.77</speed>
  <fix>3d</fix>
</trkpt>
<trkpt lat="33.8097718" lon="-118.3939598">
  <ele>-35.006</ele>
  <time>2026-09-02T22:07:57Z</time>
  <course>182.36</course>
  <speed>0.7424284477308234</speed>
  <fix>3d</fix>
</trkpt>
<trkpt lat="33.8097724" lon="-118.3939595">
  <ele>-34.15</ele>
  <time>2026-09-02T22:07:57Z</time>
  <course>183.2</course>
  <speed>0.77</speed>
  <fix>3d</fix>
</trkpt>
<trkpt lat="33.8097711" lon="-118.3939598">
  <ele>-35.015</ele>
  <time>2026-09-02T22:07:57Z</time>
  <course>182.35</course>
  <speed>0.7424284477308234</speed>
  <fix>3d</fix>
</trkpt>
<trkpt lat="33.8097724" lon="-118.3939595">
  <ele>-34.15</ele>
  <time>2026-09-02T22:07:57Z</time>
  <course>183.2</course>
  <speed>0.77</speed>
  <fix>3d</fix>
</trkpt>
<trkpt lat="33.8097704" lon="-118.3939598">
  <ele>-35.024</ele>
  <time>2026-09-02T22:07:57Z</time>
  <course>182.34</course>
  <speed>0.7424284477308234</speed>
  <fix>3d</fix>
</trkpt>
<trkpt lat="33.8097711" lon="-118.3939596">
  <ele>-34.16</ele>
  <time>2026-09-02T22:07:57Z</time>
  <course>183.17</course>
  <speed>0.77</speed>
  <fix>3d</fix>
</trkpt>
<trkpt lat="33.8097697" lon="-118.3939599">
  <ele>-35.032</ele>
  <time>2026-09-02T22:07:57Z</time>
  <course>182.33</course>
  <speed>0.7424284477308234</speed>
  <fix>3d</fix>
</trkpt>
<trkpt lat="33.8097711" lon="-118.3939596">
  <ele>-34.16</ele>
  <time>2026-09-02T22:07:57Z</time>
  <course>183.17</course>
  <speed>0.77</speed>
  <fix>3d</fix>
</trkpt>
<trkpt lat="33.809769" lon="-118.3939599">
  <ele>-35.039</ele>
  <time>2026-09-02T22:07:57Z</time>
  <course>182.32</course>
  <speed>0.7424284477308234</speed>
  <fix>3d</fix>
</trkpt>
<trkpt lat="33.8097696" lon="-118.3939597">
  <ele>-34.18</ele>
  <time>2026-09-02T22:07:57Z</time>
  <course>183.14</course>
  <speed>0.77</speed>
  <fix>3d</fix>
</trkpt>
<trkpt lat="33.8097683" lon="-118.39396">
  <ele>-35.046</ele>
  <time>2026-09-02T22:07:57Z</time>
  <course>182.31</course>
  <speed>0.7424284477308234</speed>
  <fix>3d</fix>
</trkpt>
<trkpt lat="33.8097696" lon="-118.3939597">
  <ele>-34.18</ele>
  <time>2026-09-02T22:07:57Z</time>
  <course>183.14</course>
  <speed>0.77</speed>
  <fix>3d</fix>
</trkpt>
<trkpt lat="33.8097676" lon="-118.39396">
  <ele>-35.052</ele>
  <time>2026-09-02T22:07:57Z</time>
  <course>182.3</course>
  <speed>0.7424284477308234</speed>
  <fix>3d</fix>
</trkpt>
<trkpt lat="33.8097683" lon="-118.3939598">
  <ele>-34.19</ele>
  <time>2026-09-02T22:07:57Z</time>
  <course>183.11</course>
  <speed>0.77</speed>
  <fix>3d</fix>
</trkpt>
<trkpt lat="33.8097669" lon="-118.3939601">
  <ele>-35.057</ele>
  <time>2026-09-02T22:07:57Z</time>
  <course>182.29</course>
  <speed>0.7424284477308234</speed>
  <fix>3d</fix>
</trkpt>
<trkpt lat="33.8097683" lon="-118.3939598">
  <ele>-34.19</ele>
  <time>2026-09-02T22:07:57Z</time>
  <course>183.11</course>
  <speed>0.77</speed>
  <fix>3d</fix>
</trkpt>
<trkpt lat="33.8097663" lon="-118.3939601">
  <ele>-35.06</ele>
  <time>2026-09-02T22:07:57Z</time>
  <course>182.27</course>
  <speed>0.7416872656315463</speed>
  <fix>3d</fix>
</trkpt>
<trkpt lat="33.8097669" lon="-118.3939599">
  <ele>-34.2</ele>
  <time>2026-09-02T22:07:57Z</time>
  <course>183.08</course>
  <speed>0.77</speed>
  <fix>3d</fix>
</trkpt>
<trkpt lat="33.8097656" lon="-118.3939601">
  <ele>-35.06</ele>
  <time>2026-09-02T22:07:57Z</time>
  <course>182.27</course>
  <speed>0.7416872656315463</speed>
  <fix>3d</fix>
</trkpt>
<trkpt lat="33.8097669" lon="-118.3939599">
  <ele>-34.2</ele>
  <time>2026-09-02T22:07:57Z</time>
  <course>183.08</course>
  <speed>0.77</speed>
  <fix>3d</fix>
</trkpt>
<trkpt lat="33.8097649" lon="-118.3939602">
  <ele>-35.059</ele>
  <time>2026-09-02T22:07:57Z</time>
  <course>182.26</course>
  <speed>0.7416872656315463</speed>
  <fix>3d</fix>
</trkpt>
<trkpt lat="33.8097655" lon="-118.39396">
  <ele>-34.21</ele>
  <time>2026-09-02T22:07:57Z</time>
  <course>183.04</course>
  <speed>0.77</speed>
  <fix>3d</fix>
</trkpt>
<trkpt lat="33.8097642" lon="-118.3939602">
  <ele>-35.057</ele>
  <time>2026-09-02T22:07:57Z</time>
  <course>182.25</course>
  <speed>0.7416872656315463</speed>
  <fix>3d</fix>
</trkpt>
<trkpt lat="33.8097655" lon="-118.39396">
  <ele>-34.21</ele>
  <time>2026-09-02T22:07:57Z</time>
  <course>183.04</course>
  <speed>0.77</speed>
  <fix>3d</fix>
</trkpt>
<trkpt lat="33.8097635" lon="-118.3939603">
  <ele>-35.054</ele>
  <time>2026-09-02T22:07:57Z</time>
  <course>182.24</course>
  <speed>0.7416872656315463</speed>
  <fix>3d</fix>
</trkpt>
<trkpt lat="33.809764" lon="-118.3939601">
  <ele>-34.21</ele>
  <time>2026-09-02T22:07:57Z</time>
  <course>183.01</course>
  <speed>0.77</speed>
  <fix>3d</fix>
</trkpt>
<trkpt lat="33.8097628" lon="-118.3939603">
  <ele>-35.049</ele>
  <time>2026-09-02T22:07:57Z</time>
  <course>182.23</course>
  <speed>0.7416872656315463</speed>
  <fix>3d</fix>
</trkpt>
<trkpt lat="33.809764" lon="-118.3939601">
  <ele>-34.21</ele>
  <time>2026-09-02T22:07:57Z</time>
  <course>183.01</course>
  <speed>0.77</speed>
  <fix>3d</fix>
</trkpt>
<trkpt lat="33.8097621" lon="-118.3939604">
  <ele>-35.043</ele>
  <time>2026-09-02T22:07:57Z</time>
  <course>182.22</course>
  <speed>0.7416872656315463</speed>
  <fix>3d</fix>
</trkpt>
<trkpt lat="33.8097627" lon="-118.3939602">
  <ele>-34.21</ele>
  <time>2026-09-02T22:07:57Z</time>
  <course>182.98</course>
  <speed>0.77</speed>
  <fix>3d</fix>
</trkpt>
<trkpt lat="33.8097614" lon="-118.3939604">
  <ele>-35.037</ele>
  <time>2026-09-02T22:07:57Z</time>
  <course>182.21</course>
  <speed>0.7416872656315463</speed>
  <fix>3d</fix>
</trkpt>
<trkpt lat="33.8097627" lon="-118.3939602">
  <ele>-34.21</ele>
  <time>2026-09-02T22:07:57Z</time>
  <course>182.98</course>
  <speed>0.77</speed>
  <fix>3d</fix>
</trkpt>
<trkpt lat="33.8097607" lon="-118.3939604">
  <ele>-35.033</ele>
  <time>2026-09-02T22:07:57Z</time>
  <course>182.2</course>
  <speed>0.7416872656315463</speed>
  <fix>3d</fix>
</trkpt>
<trkpt lat="33.8097613" lon="-118.3939603">
  <ele>-34.2</ele>
  <time>2026-09-02T22:07:57Z</time>
  <course>182.95</course>
  <speed>0.77</speed>
  <fix>3d</fix>
</trkpt>
<trkpt lat="33.80976" lon="-118.3939605">
  <ele>-35.032</ele>
  <time>2026-09-02T22:07:57Z</time>
  <course>182.19</course>
  <speed>0.7416872656315463</speed>
  <fix>3d</fix>
</trkpt>
<trkpt lat="33.8097613" lon="-118.3939603">
  <ele>-34.2</ele>
  <time>2026-09-02T22:07:57Z</time>
  <course>182.95</course>
  <speed>0.77</speed>
  <fix>3d</fix>
</trkpt>
<trkpt lat="33.8097593" lon="-118.3939605">
  <ele>-35.032</ele>
  <time>2026-09-02T22:07:57Z</time>
  <course>182.18</course>
  <speed>0.7416872656315463</speed>
  <fix>3d</fix>
</trkpt>
<trkpt lat="33.80976" lon="-118.3939604">
  <ele>-34.2</ele>
  <time>2026-09-02T22:07:57Z</time>
  <course>182.93</course>
  <speed>0.77</speed>
  <fix>3d</fix>
</trkpt>
<trkpt lat="33.8097586" lon="-118.3939606">
  <ele>-35.033</ele>
  <time>2026-09-02T22:07:57Z</time>
  <course>182.17</course>
  <speed>0.7416872656315463</speed>
  <fix>3d</fix>
</trkpt>
<trkpt lat="33.80976" lon="-118.3939604">
  <ele>-34.2</ele>
  <time>2026-09-02T22:07:57Z</time>
  <course>182.93</course>
  <speed>0.77</speed>
  <fix>3d</fix>
</trkpt>
<trkpt lat="33.8097579" lon="-118.3939606">
  <ele>-35.033</ele>
  <time>2026-09-02T22:07:57Z</time>
  <course>182.17</course>
  <speed>0.7416872656315463</speed>
  <fix>3d</fix>
</trkpt>
<trkpt lat="33.8097585" lon="-118.3939604">
  <ele>-34.2</ele>
  <time>2026-09-02T22:07:57Z</time>
  <course>182.9</course>
  <speed>0.77</speed>
  <fix>3d</fix>
</trkpt>
<trkpt lat="33.8097572" lon="-118.3939607">
  <ele>-35.033</ele>
  <time>2026-09-02T22:07:57Z</time>
  <course>182.16</course>
  <speed>0.7416872656315463</speed>
  <fix>3d</fix>
</trkpt>
<trkpt lat="33.8097585" lon="-118.3939604">
  <ele>-34.2</ele>
  <time>2026-09-02T22:07:57Z</time>
  <course>182.9</course>
  <speed>0.77</speed>
  <fix>3d</fix>
</trkpt>
<trkpt lat="33.8097565" lon="-118.3939607">
  <ele>-35.033</ele>
  <time>2026-09-02T22:07:57Z</time>
  <course>182.15</course>
  <speed>0.7416872656315463</speed>
  <fix>3d</fix>
</trkpt>
<trkpt lat="33.8097572" lon="-118.3939605">
  <ele>-34.19</ele>
  <time>2026-09-02T22:07:57Z</time>
  <course>182.87</course>
  <speed>0.77</speed>
  <fix>3d</fix>
</trkpt>
<trkpt lat="33.8097558" lon="-118.3939607">
  <ele>-35.031</ele>
  <time>2026-09-02T22:07:57Z</time>
  <course>182.14</course>
  <speed>0.7416872656315463</speed>
  <fix>3d</fix>
</trkpt>
<trkpt lat="33.8097572" lon="-118.3939605">
  <ele>-34.19</ele>
  <time>2026-09-02T22:07:57Z</time>
  <course>182.87</course>
  <speed>0.77</speed>
  <fix>3d</fix>
</trkpt>
<trkpt lat="33.8097551" lon="-118.3939608">
  <ele>-35.028</ele>
  <time>2026-09-02T22:07:57Z</time>
  <course>182.13</course>
  <speed>0.7416872656315463</speed>
  <fix>3d</fix>
</trkpt>
<trkpt lat="33.8097558" lon="-118.3939606">
  <ele>-34.19</ele>
  <time>2026-09-02T22:07:57Z</time>
  <course>182.85</course>
  <speed>0.77</speed>
  <fix>3d</fix>
</trkpt>
<trkpt lat="33.8097544" lon="-118.3939608">
  <ele>-35.024</ele>
  <time>2026-09-02T22:07:57Z</time>
  <course>182.12</course>
  <speed>0.7416872656315463</speed>
  <fix>3d</fix>
</trkpt>
<trkpt lat="33.8097558" lon="-118.3939606">
  <ele>-34.19</ele>
  <time>2026-09-02T22:07:57Z</time>
  <course>182.85</course>
  <speed>0.77</speed>
  <fix>3d</fix>
</trkpt>
<trkpt lat="33.8097537" lon="-118.3939609">
  <ele>-35.02</ele>
  <time>2026-09-02T22:07:57Z</time>
  <course>182.12</course>
  <speed>0.7416872656315463</speed>
  <fix>3d</fix>
</trkpt>
<trkpt lat="33.8097544" lon="-118.3939607">
  <ele>-34.18</ele>
  <time>2026-09-02T22:07:57Z</time>
  <course>182.82</course>
  <speed>0.77</speed>
  <fix>3d</fix>
</trkpt>
<trkpt lat="33.8097531" lon="-118.3939609">
  <ele>-35.017</ele>
  <time>2026-09-02T22:07:57Z</time>
  <course>182.11</course>
  <speed>0.7416872656315463</speed>
  <fix>3d</fix>
</trkpt>
<trkpt lat="33.8097544" lon="-118.3939607">
  <ele>-34.18</ele>
  <time>2026-09-02T22:07:57Z</time>
  <course>182.82</course>
  <speed>0.77</speed>
  <fix>3d</fix>
</trkpt>
<trkpt lat="33.8097524" lon="-118.3939609">
  <ele>-35.016</ele>
  <time>2026-09-02T22:07:57Z</time>
  <course>182.1</course>
  <speed>0.7416872656315463</speed>
  <fix>3d</fix>
</trkpt>
<trkpt lat="33.809753" lon="-118.3939608">
  <ele>-34.18</ele>
  <time>2026-09-02T22:07:57Z</time>
  <course>182.8</course>
  <speed>0.77</speed>
  <fix>3d</fix>
</trkpt>
<trkpt lat="33.8097517" lon="-118.393961">
  <ele>-35.016</ele>
  <time>2026-09-02T22:07:57Z</time>
  <course>182.09</course>
  <speed>0.7416872656315463</speed>
  <fix>3d</fix>
</trkpt>
<trkpt lat="33.809753" lon="-118.3939608">
  <ele>-34.18</ele>
  <time>2026-09-02T22:07:57Z</time>
  <course>182.8</course>
  <speed>0.77</speed>
  <fix>3d</fix>
</trkpt>
<trkpt lat="33.809751" lon="-118.393961">
  <ele>-35.015</ele>
  <time>2026-09-02T22:07:57Z</time>
  <course>182.08</course>
  <speed>0.7416872656315463</speed>
  <fix>3d</fix>
</trkpt>
<trkpt lat="33.8097516" lon="-118.3939609">
  <ele>-34.17</ele>
  <time>2026-09-02T22:07:57Z</time>
  <course>182.77</course>
  <speed>0.77</speed>
  <fix>3d</fix>
</trkpt>
<trkpt lat="33.8097503" lon="-118.3939611">
  <ele>-35.014</ele>
  <time>2026-09-02T22:07:57Z</time>
  <course>182.08</course>
  <speed>0.7416872656315463</speed>
  <fix>3d</fix>
</trkpt>
<trkpt lat="33.8097516" lon="-118.3939609">
  <ele>-34.17</ele>
  <time>2026-09-02T22:07:57Z</time>
  <course>182.77</course>
  <speed>0.77</speed>
  <fix>3d</fix>
</trkpt>
<trkpt lat="33.8097496" lon="-118.3939611">
  <ele>-35.013</ele>
  <time>2026-09-02T22:07:57Z</time>
  <course>182.07</course>
  <speed>0.7416872656315463</speed>
  <fix>3d</fix>
</trkpt>
<trkpt lat="33.8097501" lon="-118.3939609">
  <ele>-34.17</ele>
  <time>2026-09-02T22:07:57Z</time>
  <course>182.75</course>
  <speed>0.77</speed>
  <fix>3d</fix>
</trkpt>
<trkpt lat="33.8097489" lon="-118.3939612">
  <ele>-35.012</ele>
  <time>2026-09-02T22:07:57Z</time>
  <course>182.06</course>
  <speed>0.7416872656315463</speed>
  <fix>3d</fix>
</trkpt>
<trkpt lat="33.8097501" lon="-118.3939609">
  <ele>-34.17</ele>
  <time>2026-09-02T22:07:57Z</time>
  <course>182.75</course>
  <speed>0.77</speed>
  <fix>3d</fix>
</trkpt>
<trkpt lat="33.8097482" lon="-118.3939612">
  <ele>-35.011</ele>
  <time>2026-09-02T22:07:57Z</time>
  <course>182.05</course>
  <speed>0.7416872656315463</speed>
  <fix>3d</fix>
</trkpt>
<trkpt lat="33.8097487" lon="-118.393961">
  <ele>-34.17</ele>
  <time>2026-09-02T22:07:57Z</time>
  <course>182.72</course>
  <speed>0.77</speed>
  <fix>3d</fix>
</trkpt>
<trkpt lat="33.8097475" lon="-118.3939612">
  <ele>-35.01</ele>
  <time>2026-09-02T22:07:57Z</time>
  <course>182.05</course>
  <speed>0.7416872656315463</speed>
  <fix>3d</fix>
</trkpt>
<trkpt lat="33.8097487" lon="-118.393961">
  <ele>-34.17</ele>
  <time>2026-09-02T22:07:57Z</time>
  <course>182.72</course>
  <speed>0.77</speed>
  <fix>3d</fix>
</trkpt>
<trkpt lat="33.8097468" lon="-118.3939613">
  <ele>-35.011</ele>
  <time>2026-09-02T22:07:57Z</time>
  <course>182.04</course>
  <speed>0.7516648189186453</speed>
  <fix>3d</fix>
</trkpt>
<trkpt lat="33.8097474" lon="-118.3939611">
  <ele>-34.17</ele>
  <time>2026-09-02T22:07:57Z</time>
  <course>182.7</course>
  <speed>0.77</speed>
  <fix>3d</fix>
</trkpt>
<trkpt lat="33.8097461" lon="-118.3939613">
  <ele>-35.014</ele>
  <time>2026-09-02T22:07:57Z</time>
  <course>182.03</course>
  <speed>0.7516648189186453</speed>
  <fix>3d</fix>
</trkpt>
<trkpt lat="33.8097474" lon="-118.3939611">
  <ele>-34.17</ele>
  <time>2026-09-02T22:07:57Z</time>
  <course>182.7</course>
  <speed>0.77</speed>
  <fix>3d</fix>
</trkpt>
<trkpt lat="33.8097454" lon="-118.3939613">
  <ele>-35.019</ele>
  <time>2026-09-02T22:07:57Z</time>
  <course>182.02</course>
  <speed>0.7516648189186453</speed>
  <fix>3d</fix>
</trkpt>
<trkpt lat="33.8097461" lon="-118.3939612">
  <ele>-34.17</ele>
  <time>2026-09-02T22:07:57Z</time>
  <course>182.68</course>
  <speed>0.77</speed>
  <fix>3d</fix>
</trkpt>
<trkpt lat="33.8097447" lon="-118.3939614">
  <ele>-35.025</ele>
  <time>2026-09-02T22:07:57Z</time>
  <course>182.02</course>
  <speed>0.7516648189186453</speed>
  <fix>3d</fix>
</trkpt>
<trkpt lat="33.8097461" lon="-118.3939612">
  <ele>-34.17</ele>
  <time>2026-09-02T22:07:57Z</time>
  <course>182.68</course>
  <speed>0.77</speed>
  <fix>3d</fix>
</trkpt>
<trkpt lat="33.809744" lon="-118.3939614">
  <ele>-35.031</ele>
  <time>2026-09-02T22:07:57Z</time>
  <course>182.01</course>
  <speed>0.7516648189186453</speed>
  <fix>3d</fix>
</trkpt>
<trkpt lat="33.8097446" lon="-118.3939613">
  <ele>-34.18</ele>
  <time>2026-09-02T22:07:57Z</time>
  <course>182.66</course>
  <speed>0.77</speed>
  <fix>3d</fix>
</trkpt>
<trkpt lat="33.8097433" lon="-118.3939615">
  <ele>-35.038</ele>
  <time>2026-09-02T22:07:57Z</time>
  <course>182.0</course>
  <speed>0.7516648189186453</speed>
  <fix>3d</fix>
</trkpt>
<trkpt lat="33.8097446" lon="-118.3939613">
  <ele>-34.18</ele>
  <time>2026-09-02T22:07:57Z</time>
  <course>182.66</course>
  <speed>0.77</speed>
  <fix>3d</fix>
</trkpt>
<trkpt lat="33.8097426" lon="-118.3939615">
  <ele>-35.044</ele>
  <time>2026-09-02T22:07:57Z</time>
  <course>182.0</course>
  <speed>0.7516648189186453</speed>
  <fix>3d</fix>
</trkpt>
<trkpt lat="33.8097433" lon="-118.3939613">
  <ele>-34.19</ele>
  <time>2026-09-02T22:07:57Z</time>
  <course>182.64</course>
  <speed>0.77</speed>
  <fix>3d</fix>
</trkpt>
<trkpt lat="33.8097419" lon="-118.3939615">
  <ele>-35.049</ele>
  <time>2026-09-02T22:07:57Z</time>
  <course>181.99</course>
  <speed>0.7516648189186453</speed>
  <fix>3d</fix>
</trkpt>
<trkpt lat="33.8097433" lon="-118.3939613">
  <ele>-34.19</ele>
  <time>2026-09-02T22:07:57Z</time>
  <course>182.64</course>
  <speed>0.77</speed>
  <fix>3d</fix>
</trkpt>
<trkpt lat="33.8097412" lon="-118.3939616">
  <ele>-35.054</ele>
  <time>2026-09-02T22:07:57Z</time>
  <course>181.98</course>
  <speed>0.7516648189186453</speed>
  <fix>3d</fix>
</trkpt>
<trkpt lat="33.8097419" lon="-118.3939614">
  <ele>-34.21</ele>
  <time>2026-09-02T22:07:57Z</time>
  <course>182.61</course>
  <speed>0.77</speed>
  <fix>3d</fix>
</trkpt>
<trkpt lat="33.8097405" lon="-118.3939616">
  <ele>-35.057</ele>
  <time>2026-09-02T22:07:57Z</time>
  <course>181.98</course>
  <speed>0.7516648189186453</speed>
  <fix>3d</fix>
</trkpt>
<trkpt lat="33.8097419" lon="-118.3939614">
  <ele>-34.21</ele>
  <time>2026-09-02T22:07:57Z</time>
  <course>182.61</course>
  <speed>0.77</speed>
  <fix>3d</fix>
</trkpt>
<trkpt lat="33.8097398" lon="-118.3939617">
  <ele>-35.056</ele>
  <time>2026-09-02T22:07:57Z</time>
  <course>181.97</course>
  <speed>0.7516648189186453</speed>
  <fix>3d</fix>
</trkpt>
<trkpt lat="33.8097404" lon="-118.3939615">
  <ele>-34.22</ele>
  <time>2026-09-02T22:07:57Z</time>
  <course>182.59</course>
  <speed>0.77</speed>
  <fix>3d</fix>
</trkpt>
<trkpt lat="33.8097391" lon="-118.3939617">
  <ele>-35.053</ele>
  <time>2026-09-02T22:07:57Z</time>
  <course>181.96</course>
  <speed>0.7516648189186453</speed>
  <fix>3d</fix>
</trkpt>
<trkpt lat="33.8097404" lon="-118.3939615">
  <ele>-34.22</ele>
  <time>2026-09-02T22:07:57Z</time>
  <course>182.59</course>
  <speed>0.77</speed>
  <fix>3d</fix>
</trkpt>
<trkpt lat="33.8097384" lon="-118.3939617">
  <ele>-35.048</ele>
  <time>2026-09-02T22:07:58Z</time>
  <course>181.96</course>
  <speed>0.7516648189186453</speed>
  <fix>3d</fix>
</trkpt>
<trkpt lat="33.8097391" lon="-118.3939616">
  <ele>-34.21</ele>
  <time>2026-09-02T22:07:58Z</time>
  <course>182.56</course>
  <speed>0.77</speed>
  <fix>3d</fix>
</trkpt>
<trkpt lat="33.8097377" lon="-118.3939618">
  <ele>-35.043</ele>
  <time>2026-09-02T22:07:58Z</time>
  <course>181.95</course>
  <speed>0.7516648189186453</speed>
  <fix>3d</fix>
</trkpt>
<trkpt lat="33.8097391" lon="-118.3939616">
  <ele>-34.21</ele>
  <time>2026-09-02T22:07:58Z</time>
  <course>182.56</course>
  <speed>0.77</speed>
  <fix>3d</fix>
</trkpt>
<trkpt lat="33.809737" lon="-118.3939618">
  <ele>-35.036</ele>
  <time>2026-09-02T22:07:58Z</time>
  <course>181.94</course>
  <speed>0.7516648189186453</speed>
  <fix>3d</fix>
</trkpt>
<trkpt lat="33.8097377" lon="-118.3939616">
  <ele>-34.2</ele>
  <time>2026-09-02T22:07:58Z</time>
  <course>182.54</course>
  <speed>0.77</speed>
  <fix>3d</fix>
</trkpt>
<trkpt lat="33.8097363" lon="-118.3939618">
  <ele>-35.027</ele>
  <time>2026-09-02T22:07:58Z</time>
  <course>181.94</course>
  <speed>0.7516648189186453</speed>
  <fix>3d</fix>
</trkpt>
<trkpt lat="33.8097377" lon="-118.3939616">
  <ele>-34.2</ele>
  <time>2026-09-02T22:07:58Z</time>
  <course>182.54</course>
  <speed>0.77</speed>
  <fix>3d</fix>
</trkpt>
<trkpt lat="33.8097356" lon="-118.3939619">
  <ele>-35.018</ele>
  <time>2026-09-02T22:07:58Z</time>
  <course>181.93</course>
  <speed>0.7516648189186453</speed>
  <fix>3d</fix>
</trkpt>
<trkpt lat="33.8097363" lon="-118.3939617">
  <ele>-34.19</ele>
  <time>2026-09-02T22:07:58Z</time>
  <course>182.52</course>
  <speed>0.77</speed>
  <fix>3d</fix>
</trkpt>
<trkpt lat="33.8097349" lon="-118.3939619">
  <ele>-35.008</ele>
  <time>2026-09-02T22:07:58Z</time>
  <course>181.92</course>
  <speed>0.7516648189186453</speed>
  <fix>3d</fix>
</trkpt>
<trkpt lat="33.8097363" lon="-118.3939617">
  <ele>-34.19</ele>
  <time>2026-09-02T22:07:58Z</time>
  <course>182.52</course>
  <speed>0.77</speed>
  <fix>3d</fix>
</trkpt>
<trkpt lat="33.8097342" lon="-118.393962">
  <ele>-34.998</ele>
  <time>2026-09-02T22:07:58Z</time>
  <course>181.92</course>
  <speed>0.7516648189186453</speed>
  <fix>3d</fix>
</trkpt>
<trkpt lat="33.8097348" lon="-118.3939618">
  <ele>-34.18</ele>
  <time>2026-09-02T22:07:58Z</time>
  <course>182.49</course>
  <speed>0.77</speed>
  <fix>3d</fix>
</trkpt>
<trkpt lat="33.8097335" lon="-118.393962">
  <ele>-34.991</ele>
  <time>2026-09-02T22:07:58Z</time>
  <course>181.91</course>
  <speed>0.7516648189186453</speed>
  <fix>3d</fix>
</trkpt>
<trkpt lat="33.8097348" lon="-118.3939618">
  <ele>-34.18</ele>
  <time>2026-09-02T22:07:58Z</time>
  <course>182.49</course>
  <speed>0.77</speed>
  <fix>3d</fix>
</trkpt>
<trkpt lat="33.8097328" lon="-118.393962">
  <ele>-34.989</ele>
  <time>2026-09-02T22:07:58Z</time>
  <course>181.9</course>
  <speed>0.7516648189186453</speed>
  <fix>3d</fix>
</trkpt>
<trkpt lat="33.8097335" lon="-118.3939619">
  <ele>-34.16</ele>
  <time>2026-09-02T22:07:58Z</time>
  <course>182.47</course>
  <speed>0.77</speed>
  <fix>3d</fix>
</trkpt>
<trkpt lat="33.8097321" lon="-118.3939621">
  <ele>-34.988</ele>
  <time>2026-09-02T22:07:58Z</time>
  <course>181.9</course>
  <speed>0.7516648189186453</speed>
  <fix>3d</fix>
</trkpt>
<trkpt lat="33.8097335" lon="-118.3939619">
  <ele>-34.16</ele>
  <time>2026-09-02T22:07:58Z</time>
  <course>182.47</course>
  <speed>0.77</speed>
  <fix>3d</fix>
</trkpt>
<trkpt lat="33.8097314" lon="-118.3939621">
  <ele>-34.987</ele>
  <time>2026-09-02T22:07:58Z</time>
  <course>181.89</course>
  <speed>0.7516648189186453</speed>
  <fix>3d</fix>
</trkpt>
<trkpt lat="33.8097321" lon="-118.3939619">
  <ele>-34.15</ele>
  <time>2026-09-02T22:07:58Z</time>
  <course>182.46</course>
  <speed>0.77</speed>
  <fix>3d</fix>
</trkpt>
<trkpt lat="33.8097308" lon="-118.3939621">
  <ele>-34.987</ele>
  <time>2026-09-02T22:07:58Z</time>
  <course>181.89</course>
  <speed>0.7516648189186453</speed>
  <fix>3d</fix>
</trkpt>
<trkpt lat="33.8097321" lon="-118.3939619">
  <ele>-34.15</ele>
  <time>2026-09-02T22:07:58Z</time>
  <course>182.46</course>
  <speed>0.77</speed>
  <fix>3d</fix>
</trkpt>
<trkpt lat="33.8097301" lon="-118.3939622">
  <ele>-34.987</ele>
  <time>2026-09-02T22:07:58Z</time>
  <course>181.88</course>
  <speed>0.7516648189186453</speed>
  <fix>3d</fix>
</trkpt>
<trkpt lat="33.8097307" lon="-118.393962">
  <ele>-34.15</ele>
  <time>2026-09-02T22:07:58Z</time>
  <course>182.44</course>
  <speed>0.77</speed>
  <fix>3d</fix>
</trkpt>
<trkpt lat="33.8097294" lon="-118.3939622">
  <ele>-34.988</ele>
  <time>2026-09-02T22:07:58Z</time>
  <course>181.88</course>
  <speed>0.7516648189186453</speed>
  <fix>3d</fix>
</trkpt>
<trkpt lat="33.8097307" lon="-118.393962">
  <ele>-34.15</ele>
  <time>2026-09-02T22:07:58Z</time>
  <course>182.44</course>
  <speed>0.77</speed>
  <fix>3d</fix>
</trkpt>
<trkpt lat="33.8097287" lon="-118.3939622">
  <ele>-34.989</ele>
  <time>2026-09-02T22:07:58Z</time>
  <course>181.87</course>
  <speed>0.7516648189186453</speed>
  <fix>3d</fix>
</trkpt>
<trkpt lat="33.8097293" lon="-118.3939621">
  <ele>-34.15</ele>
  <time>2026-09-02T22:07:58Z</time>
  <course>182.42</course>
  <speed>0.77</speed>
  <fix>3d</fix>
</trkpt>
<trkpt lat="33.809728" lon="-118.3939623">
  <ele>-34.991</ele>
  <time>2026-09-02T22:07:58Z</time>
  <course>181.86</course>
  <speed>0.7516648189186453</speed>
  <fix>3d</fix>
</trkpt>
<trkpt lat="33.8097293" lon="-118.3939621">
  <ele>-34.15</ele>
  <time>2026-09-02T22:07:58Z</time>
  <course>182.42</course>
  <speed>0.77</speed>
  <fix>3d</fix>
</trkpt>
<trkpt lat="33.8097273" lon="-118.3939623">
  <ele>-34.995</ele>
  <time>2026-09-02T22:07:58Z</time>
  <course>181.86</course>
  <speed>0.7516648189186453</speed>
  <fix>3d</fix>
</trkpt>
<trkpt lat="33.809728" lon="-118.3939621">
  <ele>-34.15</ele>
  <time>2026-09-02T22:07:58Z</time>
  <course>182.41</course>
  <speed>0.77</speed>
  <fix>3d</fix>
</trkpt>
<trkpt lat="33.8097266" lon="-118.3939623">
  <ele>-34.999</ele>
  <time>2026-09-02T22:07:58Z</time>
  <course>181.85</course>
  <speed>0.7510659092250159</speed>
  <fix>3d</fix>
</trkpt>
<trkpt lat="33.809728" lon="-118.3939621">
  <ele>-34.15</ele>
  <time>2026-09-02T22:07:58Z</time>
  <course>182.41</course>
  <speed>0.77</speed>
  <fix>3d</fix>
</trkpt>
<trkpt lat="33.8097259" lon="-118.3939624">
  <ele>-35.006</ele>
  <time>2026-09-02T22:07:58Z</time>
  <course>181.85</course>
  <speed>0.7510659092250159</speed>
  <fix>3d</fix>
</trkpt>
<trkpt lat="33.8097266" lon="-118.3939622">
  <ele>-34.16</ele>
  <time>2026-09-02T22:07:58Z</time>
  <course>182.39</course>
  <speed>0.77</speed>
  <fix>3d</fix>
</trkpt>
<trkpt lat="33.8097252" lon="-118.3939624">
  <ele>-35.014</ele>
  <time>2026-09-02T22:07:58Z</time>
  <course>181.84</course>
  <speed>0.7510659092250159</speed>
  <fix>3d</fix>
</trkpt>
<trkpt lat="33.8097266" lon="-118.3939622">
  <ele>-34.16</ele>
  <time>2026-09-02T22:07:58Z</time>
  <course>182.39</course>
  <speed>0.77</speed>
  <fix>3d</fix>
</trkpt>
<trkpt lat="33.8097245" lon="-118.3939624">
  <ele>-35.023</ele>
  <time>2026-09-02T22:07:58Z</time>
  <course>181.84</course>
  <speed>0.7510659092250159</speed>
  <fix>3d</fix>
</trkpt>
<trkpt lat="33.8097252" lon="-118.3939623">
  <ele>-34.17</ele>
  <time>2026-09-02T22:07:58Z</time>
  <course>182.37</course>
  <speed>0.77</speed>
  <fix>3d</fix>
</trkpt>
<trkpt lat="33.8097238" lon="-118.3939625">
  <ele>-35.033</ele>
  <time>2026-09-02T22:07:58Z</time>
  <course>181.83</course>
  <speed>0.7510659092250159</speed>
  <fix>3d</fix>
</trkpt>
<trkpt lat="33.8097252" lon="-118.3939623">
  <ele>-34.17</ele>
  <time>2026-09-02T22:07:58Z</time>
  <course>182.37</course>
  <speed>0.77</speed>
  <fix>3d</fix>
</trkpt>
<trkpt lat="33.8097231" lon="-118.3939625">
  <ele>-35.044</ele>
  <time>2026-09-02T22:07:58Z</time>
  <course>181.83</course>
  <speed>0.7510659092250159</speed>
  <fix>3d</fix>
</trkpt>
<trkpt lat="33.8097238" lon="-118.3939624">
  <ele>-34.19</ele>
  <time>2026-09-02T22:07:58Z</time>
  <course>182.36</course>
  <speed>0.77</speed>
  <fix>3d</fix>
</trkpt>
<trkpt lat="33.8097224" lon="-118.3939626">
  <ele>-35.054</ele>
  <time>2026-09-02T22:07:58Z</time>
  <course>181.82</course>
  <speed>0.7510659092250159</speed>
  <fix>3d</fix>
</trkpt>
<trkpt lat="33.8097238" lon="-118.3939624">
  <ele>-34.19</ele>
  <time>2026-09-02T22:07:58Z</time>
  <course>182.36</course>
  <speed>0.77</speed>
  <fix>3d</fix>
</trkpt>
<trkpt lat="33.8097217" lon="-118.3939626">
  <ele>-35.063</ele>
  <time>2026-09-02T22:07:58Z</time>
  <course>181.82</course>
  <speed>0.7510659092250159</speed>
  <fix>3d</fix>
</trkpt>
<trkpt lat="33.8097224" lon="-118.3939624">
  <ele>-34.21</ele>
  <time>2026-09-02T22:07:58Z</time>
  <course>182.34</course>
  <speed>0.77</speed>
  <fix>3d</fix>
</trkpt>
<trkpt lat="33.809721" lon="-118.3939626">
  <ele>-35.07</ele>
  <time>2026-09-02T22:07:58Z</time>
  <course>181.81</course>
  <speed>0.7510659092250159</speed>
  <fix>3d</fix>
</trkpt>
<trkpt lat="33.8097224" lon="-118.3939624">
  <ele>-34.21</ele>
  <time>2026-09-02T22:07:58Z</time>
  <course>182.34</course>
  <speed>0.77</speed>
  <fix>3d</fix>
</trkpt>
<trkpt lat="33.8097203" lon="-118.3939627">
  <ele>-35.077</ele>
  <time>2026-09-02T22:07:58Z</time>
  <course>181.81</course>
  <speed>0.7510659092250159</speed>
  <fix>3d</fix>
</trkpt>
<trkpt lat="33.8097209" lon="-118.3939625">
  <ele>-34.23</ele>
  <time>2026-09-02T22:07:58Z</time>
  <course>182.32</course>
  <speed>0.77</speed>
  <fix>3d</fix>
</trkpt>
<trkpt lat="33.8097196" lon="-118.3939627">
  <ele>-35.081</ele>
  <time>2026-09-02T22:07:58Z</time>
  <course>181.8</course>
  <speed>0.7510659092250159</speed>
  <fix>3d</fix>
</trkpt>
<trkpt lat="33.8097209" lon="-118.3939625">
  <ele>-34.23</ele>
  <time>2026-09-02T22:07:58Z</time>
  <course>182.32</course>
  <speed>0.77</speed>
  <fix>3d</fix>
</trkpt>
<trkpt lat="33.8097189" lon="-118.3939627">
  <ele>-35.083</ele>
  <time>2026-09-02T22:07:58Z</time>
  <course>181.8</course>
  <speed>0.7510659092250159</speed>
  <fix>3d</fix>
</trkpt>
<trkpt lat="33.8097195" lon="-118.3939626">
  <ele>-34.24</ele>
  <time>2026-09-02T22:07:58Z</time>
  <course>182.3</course>
  <speed>0.77</speed>
  <fix>3d</fix>
</trkpt>
<trkpt lat="33.8097182" lon="-118.3939628">
  <ele>-35.081</ele>
  <time>2026-09-02T22:07:58Z</time>
  <course>181.79</course>
  <speed>0.7510659092250159</speed>
  <fix>3d</fix>
</trkpt>
<trkpt lat="33.8097195" lon="-118.3939626">
  <ele>-34.24</ele>
  <time>2026-09-02T22:07:58Z</time>
  <course>182.3</course>
  <speed>0.77</speed>
  <fix>3d</fix>
</trkpt>
<trkpt lat="33.8097175" lon="-118.3939628">
  <ele>-35.077</ele>
  <time>2026-09-02T22:07:58Z</time>
  <course>181.79</course>
  <speed>0.7510659092250159</speed>
  <fix>3d</fix>
</trkpt>
<trkpt lat="33.8097182" lon="-118.3939626">
  <ele>-34.24</ele>
  <time>2026-09-02T22:07:58Z</time>
  <course>182.28</course>
  <speed>0.77</speed>
  <fix>3d</fix>
</trkpt>
<trkpt lat="33.8097168" lon="-118.3939628">
  <ele>-35.072</ele>
  <time>2026-09-02T22:07:58Z</time>
  <course>181.78</course>
  <speed>0.7510659092250159</speed>
  <fix>3d</fix>
</trkpt>
<trkpt lat="33.8097182" lon="-118.3939626">
  <ele>-34.24</ele>
  <time>2026-09-02T22:07:58Z</time>
  <course>182.28</course>
  <speed>0.77</speed>
  <fix>3d</fix>
</trkpt>
<trkpt lat="33.8097161" lon="-118.3939629">
  <ele>-35.067</ele>
  <time>2026-09-02T22:07:58Z</time>
  <course>181.78</course>
  <speed>0.7510659092250159</speed>
  <fix>3d</fix>
</trkpt>
<trkpt lat="33.8097169" lon="-118.3939627">
  <ele>-34.23</ele>
  <time>2026-09-02T22:07:58Z</time>
  <course>182.26</course>
  <speed>0.77</speed>
  <fix>3d</fix>
</trkpt>
<trkpt lat="33.8097154" lon="-118.3939629">
  <ele>-35.061</ele>
  <time>2026-09-02T22:07:58Z</time>
  <course>181.77</course>
  <speed>0.7510659092250159</speed>
  <fix>3d</fix>
</trkpt>
<trkpt lat="33.8097169" lon="-118.3939627">
  <ele>-34.23</ele>
  <time>2026-09-02T22:07:58Z</time>
  <course>182.26</course>
  <speed>0.77</speed>
  <fix>3d</fix>
</trkpt>
<trkpt lat="33.8097147" lon="-118.3939629">
  <ele>-35.055</ele>
  <time>2026-09-02T22:07:58Z</time>
  <course>181.77</course>
  <speed>0.7510659092250159</speed>
  <fix>3d</fix>
</trkpt>
<trkpt lat="33.8097154" lon="-118.3939628">
  <ele>-34.22</ele>
  <time>2026-09-02T22:07:58Z</time>
  <course>182.24</course>
  <speed>0.77</speed>
  <fix>3d</fix>
</trkpt>
<trkpt lat="33.809714" lon="-118.393963">
  <ele>-35.047</ele>
  <time>2026-09-02T22:07:58Z</time>
  <course>181.76</course>
  <speed>0.7510659092250159</speed>
  <fix>3d</fix>
</trkpt>
<trkpt lat="33.8097154" lon="-118.3939628">
  <ele>-34.22</ele>
  <time>2026-09-02T22:07:58Z</time>
  <course>182.24</course>
  <speed>0.77</speed>
  <fix>3d</fix>
</trkpt>
<trkpt lat="33.8097133" lon="-118.393963">
  <ele>-35.039</ele>
  <time>2026-09-02T22:07:58Z</time>
  <course>181.76</course>
  <speed>0.7510659092250159</speed>
  <fix>3d</fix>
</trkpt>
<trkpt lat="33.8097141" lon="-118.3939628">
  <ele>-34.21</ele>
  <time>2026-09-02T22:07:58Z</time>
  <course>182.22</course>
  <speed>0.77</speed>
  <fix>3d</fix>
</trkpt>
<trkpt lat="33.8097126" lon="-118.393963">
  <ele>-35.03</ele>
  <time>2026-09-02T22:07:58Z</time>
  <course>181.75</course>
  <speed>0.7510659092250159</speed>
  <fix>3d</fix>
</trkpt>
<trkpt lat="33.8097141" lon="-118.3939628">
  <ele>-34.21</ele>
  <time>2026-09-02T22:07:58Z</time>
  <course>182.22</course>
  <speed>0.77</speed>
  <fix>3d</fix>
</trkpt>
<trkpt lat="33.809712" lon="-118.3939631">
  <ele>-35.021</ele>
  <time>2026-09-02T22:07:58Z</time>
  <course>181.75</course>
  <speed>0.7510659092250159</speed>
  <fix>3d</fix>
</trkpt>
<trkpt lat="33.8097127" lon="-118.3939629">
  <ele>-34.19</ele>
  <time>2026-09-02T22:07:58Z</time>
  <course>182.2</course>
  <speed>0.77</speed>
  <fix>3d</fix>
</trkpt>
<trkpt lat="33.8097113" lon="-118.3939631">
  <ele>-35.013</ele>
  <time>2026-09-02T22:07:58Z</time>
  <course>181.75</course>
  <speed>0.7510659092250159</speed>
  <fix>3d</fix>
</trkpt>
<trkpt lat="33.8097127" lon="-118.3939629">
  <ele>-34.19</ele>
  <time>2026-09-02T22:07:58Z</time>
  <course>182.2</course>
  <speed>0.77</speed>
  <fix>3d</fix>
</trkpt>
<trkpt lat="33.8097106" lon="-118.3939631">
  <ele>-35.009</ele>
  <time>2026-09-02T22:07:58Z</time>
  <course>181.74</course>
  <speed>0.7510659092250159</speed>
  <fix>3d</fix>
</trkpt>
<trkpt lat="33.8097112" lon="-118.393963">
  <ele>-34.18</ele>
  <time>2026-09-02T22:07:58Z</time>
  <course>182.19</course>
  <speed>0.77</speed>
  <fix>3d</fix>
</trkpt>
<trkpt lat="33.8097099" lon="-118.3939632">
  <ele>-35.01</ele>
  <time>2026-09-02T22:07:58Z</time>
  <course>181.74</course>
  <speed>0.7510659092250159</speed>
  <fix>3d</fix>
</trkpt>
<trkpt lat="33.8097112" lon="-118.393963">
  <ele>-34.18</ele>
  <time>2026-09-02T22:07:58Z</time>
  <course>182.19</course>
  <speed>0.77</speed>
  <fix>3d</fix>
</trkpt>
<trkpt lat="33.8097092" lon="-118.3939632">
  <ele>-35.014</ele>
  <time>2026-09-02T22:07:58Z</time>
  <course>181.73</course>
  <speed>0.7510659092250159</speed>
  <fix>3d</fix>
</trkpt>
<trkpt lat="33.8097099" lon="-118.393963">
  <ele>-34.18</ele>
  <time>2026-09-02T22:07:58Z</time>
  <course>182.17</course>
  <speed>0.77</speed>
  <fix>3d</fix>
</trkpt>
<trkpt lat="33.8097085" lon="-118.3939632">
  <ele>-35.019</ele>
  <time>2026-09-02T22:07:58Z</time>
  <course>181.73</course>
  <speed>0.7510659092250159</speed>
  <fix>3d</fix>
</trkpt>
<trkpt lat="33.8097099" lon="-118.393963">
  <ele>-34.18</ele>
  <time>2026-09-02T22:07:58Z</time>
  <course>182.17</course>
  <speed>0.77</speed>
  <fix>3d</fix>
</trkpt>
<trkpt lat="33.8097078" lon="-118.3939633">
  <ele>-35.025</ele>
  <time>2026-09-02T22:07:58Z</time>
  <course>181.73</course>
  <speed>0.7510659092250159</speed>
  <fix>3d</fix>
</trkpt>
<trkpt lat="33.8097085" lon="-118.3939631">
  <ele>-34.18</ele>
  <time>2026-09-02T22:07:58Z</time>
  <course>182.16</course>
  <speed>0.77</speed>
  <fix>3d</fix>
</trkpt>
<trkpt lat="33.8097071" lon="-118.3939633">
  <ele>-35.031</ele>
  <time>2026-09-02T22:07:58Z</time>
  <course>181.72</course>
  <speed>0.7510659092250159</speed>
  <fix>3d</fix>
</trkpt>
<trkpt lat="33.8097085" lon="-118.3939631">
  <ele>-34.18</ele>
  <time>2026-09-02T22:07:58Z</time>
  <course>182.16</course>
  <speed>0.77</speed>
  <fix>3d</fix>
</trkpt>
<trkpt lat="33.8097064" lon="-118.3939633">
  <ele>-35.038</ele>
  <time>2026-09-02T22:07:58Z</time>
  <course>181.71</course>
  <speed>0.7510659092250159</speed>
  <fix>3d</fix>
</trkpt>
<trkpt lat="33.8097071" lon="-118.3939631">
  <ele>-34.18</ele>
  <time>2026-09-02T22:07:58Z</time>
  <course>182.15</course>
  <speed>0.77</speed>
  <fix>3d</fix>
</trkpt>
<trkpt lat="33.8097057" lon="-118.3939633">
  <ele>-35.044</ele>
  <time>2026-09-02T22:07:58Z</time>
  <course>181.71</course>
  <speed>0.7510659092250159</speed>
  <fix>3d</fix>
</trkpt>
<trkpt lat="33.8097071" lon="-118.3939631">
  <ele>-34.18</ele>
  <time>2026-09-02T22:07:58Z</time>
  <course>182.15</course>
  <speed>0.77</speed>
  <fix>3d</fix>
</trkpt>
<trkpt lat="33.809705" lon="-118.3939634">
  <ele>-35.049</ele>
  <time>2026-09-02T22:07:58Z</time>
  <course>181.71</course>
  <speed>0.7510659092250159</speed>
  <fix>3d</fix>
</trkpt>
<trkpt lat="33.8097056" lon="-118.3939632">
  <ele>-34.19</ele>
  <time>2026-09-02T22:07:58Z</time>
  <course>182.14</course>
  <speed>0.77</speed>
  <fix>3d</fix>
</trkpt>
<trkpt lat="33.8097043" lon="-118.3939634">
  <ele>-35.053</ele>
  <time>2026-09-02T22:07:58Z</time>
  <course>181.7</course>
  <speed>0.7510659092250159</speed>
  <fix>3d</fix>
</trkpt>
<trkpt lat="33.8097056" lon="-118.3939632">
  <ele>-34.19</ele>
  <time>2026-09-02T22:07:58Z</time>
  <course>182.14</course>
  <speed>0.77</speed>
  <fix>3d</fix>
</trkpt>
<trkpt lat="33.8097036" lon="-118.3939634">
  <ele>-35.054</ele>
  <time>2026-09-02T22:07:58Z</time>
  <course>181.7</course>
  <speed>0.7510659092250159</speed>
  <fix>3d</fix>
</trkpt>
<trkpt lat="33.8097043" lon="-118.3939633">
  <ele>-34.2</ele>
  <time>2026-09-02T22:07:58Z</time>
  <course>182.12</course>
  <speed>0.77</speed>
  <fix>3d</fix>
</trkpt>
<trkpt lat="33.8097029" lon="-118.3939635">
  <ele>-35.051</ele>
  <time>2026-09-02T22:07:58Z</time>
  <course>181.7</course>
  <speed>0.7510659092250159</speed>
  <fix>3d</fix>
</trkpt>
<trkpt lat="33.8097043" lon="-118.3939633">
  <ele>-34.2</ele>
  <time>2026-09-02T22:07:58Z</time>
  <course>182.12</course>
  <speed>0.77</speed>
  <fix>3d</fix>
</trkpt>
<trkpt lat="33.8097022" lon="-118.3939635">
  <ele>-35.045</ele>
  <time>2026-09-02T22:07:58Z</time>
  <course>181.69</course>
  <speed>0.7510659092250159</speed>
  <fix>3d</fix>
</trkpt>
<trkpt lat="33.8097029" lon="-118.3939633">
  <ele>-34.21</ele>
  <time>2026-09-02T22:07:58Z</time>
  <course>182.1</course>
  <speed>0.77</speed>
  <fix>3d</fix>
</trkpt>
<trkpt lat="33.8097015" lon="-118.3939635">
  <ele>-35.036</ele>
  <time>2026-09-02T22:07:58Z</time>
  <course>181.69</course>
  <speed>0.7510659092250159</speed>
  <fix>3d</fix>
</trkpt>
<trkpt lat="33.8097029" lon="-118.3939633">
  <ele>-34.21</ele>
  <time>2026-09-02T22:07:58Z</time>
  <course>182.1</course>
  <speed>0.77</speed>
  <fix>3d</fix>
</trkpt>
<trkpt lat="33.8097008" lon="-118.3939636">
  <ele>-35.027</ele>
  <time>2026-09-02T22:07:58Z</time>
  <course>181.68</course>
  <speed>0.7510659092250159</speed>
  <fix>3d</fix>
</trkpt>
<trkpt lat="33.8097015" lon="-118.3939634">
  <ele>-34.19</ele>
  <time>2026-09-02T22:07:58Z</time>
  <course>182.08</course>
  <speed>0.77</speed>
  <fix>3d</fix>
</trkpt>
<trkpt lat="33.8097001" lon="-118.3939636">
  <ele>-35.017</ele>
  <time>2026-09-02T22:07:58Z</time>
  <course>181.68</course>
  <speed>0.7510659092250159</speed>
  <fix>3d</fix>
</trkpt>
<trkpt lat="33.8097015" lon="-118.3939634">
  <ele>-34.19</ele>
  <time>2026-09-02T22:07:58Z</time>
  <course>182.08</course>
  <speed>0.77</speed>
  <fix>3d</fix>
</trkpt>
<trkpt lat="33.8096994" lon="-118.3939636">
  <ele>-35.008</ele>
  <time>2026-09-02T22:07:58Z</time>
  <course>181.68</course>
  <speed>0.7510659092250159</speed>
  <fix>3d</fix>
</trkpt>
<trkpt lat="33.8097001" lon="-118.3939635">
  <ele>-34.18</ele>
  <time>2026-09-02T22:07:58Z</time>
  <course>182.06</course>
  <speed>0.77</speed>
  <fix>3d</fix>
</trkpt>
<trkpt lat="33.8096987" lon="-118.3939636">
  <ele>-35.0</ele>
  <time>2026-09-02T22:07:58Z</time>
  <course>181.67</course>
  <speed>0.7510659092250159</speed>
  <fix>3d</fix>
</trkpt>
<trkpt lat="33.8097001" lon="-118.3939635">
  <ele>-34.18</ele>
  <time>2026-09-02T22:07:58Z</time>
  <course>182.06</course>
  <speed>0.77</speed>
  <fix>3d</fix>
</trkpt>
<trkpt lat="33.809698" lon="-118.3939637">
  <ele>-34.994</ele>
  <time>2026-09-02T22:07:58Z</time>
  <course>181.67</course>
  <speed>0.7510659092250159</speed>
  <fix>3d</fix>
</trkpt>
<trkpt lat="33.8096988" lon="-118.3939635">
  <ele>-34.17</ele>
  <time>2026-09-02T22:07:58Z</time>
  <course>182.05</course>
  <speed>0.77</speed>
  <fix>3d</fix>
</trkpt>
<trkpt lat="33.8096973" lon="-118.3939637">
  <ele>-34.989</ele>
  <time>2026-09-02T22:07:58Z</time>
  <course>181.66</course>
  <speed>0.7510659092250159</speed>
  <fix>3d</fix>
</trkpt>
<trkpt lat="33.8096988" lon="-118.3939635">
  <ele>-34.17</ele>
  <time>2026-09-02T22:07:58Z</time>
  <course>182.05</course>
  <speed>0.77</speed>
  <fix>3d</fix>
</trkpt>
<trkpt lat="33.8096967" lon="-118.3939637">
  <ele>-34.985</ele>
  <time>2026-09-02T22:07:58Z</time>
  <course>181.66</course>
  <speed>0.7510659092250159</speed>
  <fix>3d</fix>
</trkpt>
<trkpt lat="33.8096974" lon="-118.3939636">
  <ele>-34.15</ele>
  <time>2026-09-02T22:07:58Z</time>
  <course>182.04</course>
  <speed>0.77</speed>
  <fix>3d</fix>
</trkpt>
<trkpt lat="33.809696" lon="-118.3939638">
  <ele>-34.982</ele>
  <time>2026-09-02T22:07:58Z</time>
  <course>181.66</course>
  <speed>0.7510659092250159</speed>
  <fix>3d</fix>
</trkpt>
<trkpt lat="33.8096974" lon="-118.3939636">
  <ele>-34.15</ele>
  <time>2026-09-02T22:07:58Z</time>
  <course>182.04</course>
  <speed>0.77</speed>
  <fix>3d</fix>
</trkpt>
<trkpt lat="33.8096953" lon="-118.3939638">
  <ele>-34.981</ele>
  <time>2026-09-02T22:07:58Z</time>
  <course>181.65</course>
  <speed>0.7410802925459562</speed>
  <fix>3d</fix>
</trkpt>
<trkpt lat="33.809696" lon="-118.3939636">
  <ele>-34.14</ele>
  <time>2026-09-02T22:07:58Z</time>
  <course>182.03</course>
  <speed>0.77</speed>
  <fix>3d</fix>
</trkpt>
<trkpt lat="33.8096946" lon="-118.3939638">
  <ele>-34.981</ele>
  <time>2026-09-02T22:07:58Z</time>
  <course>181.65</course>
  <speed>0.7410802925459562</speed>
  <fix>3d</fix>
</trkpt>
<trkpt lat="33.809696" lon="-118.3939636">
  <ele>-34.14</ele>
  <time>2026-09-02T22:07:58Z</time>
  <course>182.03</course>
  <speed>0.77</speed>
  <fix>3d</fix>
</trkpt>
<trkpt lat="33.8096939" lon="-118.3939639">
  <ele>-34.981</ele>
  <time>2026-09-02T22:07:58Z</time>
  <course>181.65</course>
  <speed>0.7410802925459562</speed>
  <fix>3d</fix>
</trkpt>
<trkpt lat="33.8096946" lon="-118.3939637">
  <ele>-34.14</ele>
  <time>2026-09-02T22:07:58Z</time>
  <course>182.02</course>
  <speed>0.77</speed>
  <fix>3d</fix>
</trkpt>
<trkpt lat="33.8096932" lon="-118.3939639">
  <ele>-34.982</ele>
  <time>2026-09-02T22:07:58Z</time>
  <course>181.64</course>
  <speed>0.7410802925459562</speed>
  <fix>3d</fix>
</trkpt>
<trkpt lat="33.8096946" lon="-118.3939637">
  <ele>-34.14</ele>
  <time>2026-09-02T22:07:58Z</time>
  <course>182.02</course>
  <speed>0.77</speed>
  <fix>3d</fix>
</trkpt>
<trkpt lat="33.8096925" lon="-118.3939639">
  <ele>-34.984</ele>
  <time>2026-09-02T22:07:58Z</time>
  <course>181.64</course>
  <speed>0.7410802925459562</speed>
  <fix>3d</fix>
</trkpt>
<trkpt lat="33.8096932" lon="-118.3939638">
  <ele>-34.15</ele>
  <time>2026-09-02T22:07:58Z</time>
  <course>182.0</course>
  <speed>0.77</speed>
  <fix>3d</fix>
</trkpt>
<trkpt lat="33.8096918" lon="-118.3939639">
  <ele>-34.986</ele>
  <time>2026-09-02T22:07:58Z</time>
  <course>181.64</course>
  <speed>0.7410802925459562</speed>
  <fix>3d</fix>
</trkpt>
<trkpt lat="33.8096932" lon="-118.3939638">
  <ele>-34.15</ele>
  <time>2026-09-02T22:07:58Z</time>
  <course>182.0</course>
  <speed>0.77</speed>
  <fix>3d</fix>
</trkpt>
<trkpt lat="33.8096912" lon="-118.393964">
  <ele>-34.991</ele>
  <time>2026-09-02T22:07:58Z</time>
  <course>181.63</course>
  <speed>0.7410802925459562</speed>
  <fix>3d</fix>
</trkpt>
<trkpt lat="33.8096917" lon="-118.3939638">
  <ele>-34.15</ele>
  <time>2026-09-02T22:07:58Z</time>
  <course>181.99</course>
  <speed>0.77</speed>
  <fix>3d</fix>
</trkpt>
<trkpt lat="33.8096905" lon="-118.393964">
  <ele>-34.997</ele>
  <time>2026-09-02T22:07:58Z</time>
  <course>181.63</course>
  <speed>0.7410802925459562</speed>
  <fix>3d</fix>
</trkpt>
<trkpt lat="33.8096917" lon="-118.3939638">
  <ele>-34.15</ele>
  <time>2026-09-02T22:07:58Z</time>
  <course>181.99</course>
  <speed>0.77</speed>
  <fix>3d</fix>
</trkpt>
<trkpt lat="33.8096898" lon="-118.393964">
  <ele>-35.004</ele>
  <time>2026-09-02T22:07:58Z</time>
  <course>181.63</course>
  <speed>0.7410802925459562</speed>
  <fix>3d</fix>
</trkpt>
<trkpt lat="33.8096904" lon="-118.3939639">
  <ele>-34.16</ele>
  <time>2026-09-02T22:07:58Z</time>
  <course>181.98</course>
  <speed>0.77</speed>
  <fix>3d</fix>
</trkpt>
<trkpt lat="33.8096891" lon="-118.3939641">
  <ele>-35.011</ele>
  <time>2026-09-02T22:07:58Z</time>
  <course>181.62</course>
  <speed>0.7410802925459562</speed>
  <fix>3d</fix>
</trkpt>
<trkpt lat="33.8096904" lon="-118.3939639">
  <ele>-34.16</ele>
  <time>2026-09-02T22:07:58Z</time>
  <course>181.98</course>
  <speed>0.77</speed>
  <fix>3d</fix>
</trkpt>
<trkpt lat="33.8096884" lon="-118.3939641">
  <ele>-35.018</ele>
  <time>2026-09-02T22:07:58Z</time>
  <course>181.62</course>
  <speed>0.7410802925459562</speed>
  <fix>3d</fix>
</trkpt>
<trkpt lat="33.809689" lon="-118.3939639">
  <ele>-34.17</ele>
  <time>2026-09-02T22:07:58Z</time>
  <course>181.97</course>
  <speed>0.77</speed>
  <fix>3d</fix>
</trkpt>
<trkpt lat="33.8096877" lon="-118.3939641">
  <ele>-35.022</ele>
  <time>2026-09-02T22:07:58Z</time>
  <course>181.62</course>
  <speed>0.7410802925459562</speed>
  <fix>3d</fix>
</trkpt>
<trkpt lat="33.809689" lon="-118.3939639">
  <ele>-34.17</ele>
  <time>2026-09-02T22:07:58Z</time>
  <course>181.97</course>
  <speed>0.77</speed>
  <fix>3d</fix>
</trkpt>
<trkpt lat="33.809687" lon="-118.3939641">
  <ele>-35.026</ele>
  <time>2026-09-02T22:07:58Z</time>
  <course>181.61</course>
  <speed>0.7410802925459562</speed>
  <fix>3d</fix>
</trkpt>
<trkpt lat="33.8096876" lon="-118.393964">
  <ele>-34.18</ele>
  <time>2026-09-02T22:07:58Z</time>
  <course>181.96</course>
  <speed>0.77</speed>
  <fix>3d</fix>
</trkpt>
<trkpt lat="33.8096863" lon="-118.3939642">
  <ele>-35.029</ele>
  <time>2026-09-02T22:07:58Z</time>
  <course>181.61</course>
  <speed>0.7410802925459562</speed>
  <fix>3d</fix>
</trkpt>
<trkpt lat="33.8096876" lon="-118.393964">
  <ele>-34.18</ele>
  <time>2026-09-02T22:07:58Z</time>
  <course>181.96</course>
  <speed>0.77</speed>
  <fix>3d</fix>
</trkpt>
<trkpt lat="33.8096856" lon="-118.3939642">
  <ele>-35.03</ele>
  <time>2026-09-02T22:07:58Z</time>
  <course>181.61</course>
  <speed>0.7410802925459562</speed>
  <fix>3d</fix>
</trkpt>
<trkpt lat="33.8096862" lon="-118.393964">
  <ele>-34.19</ele>
  <time>2026-09-02T22:07:58Z</time>
  <course>181.94</course>
  <speed>0.77</speed>
  <fix>3d</fix>
</trkpt>
<trkpt lat="33.8096849" lon="-118.3939642">
  <ele>-35.032</ele>
  <time>2026-09-02T22:07:58Z</time>
  <course>181.6</course>
  <speed>0.7410802925459562</speed>
  <fix>3d</fix>
</trkpt>
<trkpt lat="33.8096862" lon="-118.393964">
  <ele>-34.19</ele>
  <time>2026-09-02T22:07:58Z</time>
  <course>181.94</course>
  <speed>0.77</speed>
  <fix>3d</fix>
</trkpt>
<trkpt lat="33.8096842" lon="-118.3939643">
  <ele>-35.034</ele>
  <time>2026-09-02T22:07:58Z</time>
  <course>181.6</course>
  <speed>0.7410802925459562</speed>
  <fix>3d</fix>
</trkpt>
<trkpt lat="33.8096849" lon="-118.3939641">
  <ele>-34.2</ele>
  <time>2026-09-02T22:07:58Z</time>
  <course>181.93</course>
  <speed>0.77</speed>
  <fix>3d</fix>
</trkpt>
<trkpt lat="33.8096835" lon="-118.3939643">
  <ele>-35.035</ele>
  <time>2026-09-02T22:07:58Z</time>
  <course>181.6</course>
  <speed>0.7410802925459562</speed>
  <fix>3d</fix>
</trkpt>
<trkpt lat="33.8096849" lon="-118.3939641">
  <ele>-34.2</ele>
  <time>2026-09-02T22:07:58Z</time>
  <course>181.93</course>
  <speed>0.77</speed>
  <fix>3d</fix>
</trkpt>
<trkpt lat="33.8096828" lon="-118.3939643">
  <ele>-35.035</ele>
  <time>2026-09-02T22:07:58Z</time>
  <course>181.59</course>
  <speed>0.7410802925459562</speed>
  <fix>3d</fix>
</trkpt>
<trkpt lat="33.8096835" lon="-118.3939642">
  <ele>-34.2</ele>
  <time>2026-09-02T22:07:58Z</time>
  <course>181.91</course>
  <speed>0.77</speed>
  <fix>3d</fix>
</trkpt>
<trkpt lat="33.8096821" lon="-118.3939643">
  <ele>-35.035</ele>
  <time>2026-09-02T22:07:58Z</time>
  <course>181.59</course>
  <speed>0.7410802925459562</speed>
  <fix>3d</fix>
</trkpt>
<trkpt lat="33.8096835" lon="-118.3939642">
  <ele>-34.2</ele>
  <time>2026-09-02T22:07:58Z</time>
  <course>181.91</course>
  <speed>0.77</speed>
  <fix>3d</fix>
</trkpt>
<trkpt lat="33.8096814" lon="-118.3939644">
  <ele>-35.036</ele>
  <time>2026-09-02T22:07:58Z</time>
  <course>181.59</course>
  <speed>0.7410802925459562</speed>
  <fix>3d</fix>
</trkpt>
<trkpt lat="33.809682" lon="-118.3939642">
  <ele>-34.2</ele>
  <time>2026-09-02T22:07:58Z</time>
  <course>181.9</course>
  <speed>0.77</speed>
  <fix>3d</fix>
</trkpt>
<trkpt lat="33.8096807" lon="-118.3939644">
  <ele>-35.039</ele>
  <time>2026-09-02T22:07:58Z</time>
  <course>181.59</course>
  <speed>0.7410802925459562</speed>
  <fix>3d</fix>
</trkpt>
<trkpt lat="33.809682" lon="-118.3939642">
  <ele>-34.2</ele>
  <time>2026-09-02T22:07:58Z</time>
  <course>181.9</course>
  <speed>0.77</speed>
  <fix>3d</fix>
</trkpt>
<trkpt lat="33.80968" lon="-118.3939644">
  <ele>-35.046</ele>
  <time>2026-09-02T22:07:58Z</time>
  <course>181.58</course>
  <speed>0.7410802925459562</speed>
  <fix>3d</fix>
</trkpt>
<trkpt lat="33.8096807" lon="-118.3939643">
  <ele>-34.2</ele>
  <time>2026-09-02T22:07:58Z</time>
  <course>181.89</course>
  <speed>0.77</speed>
  <fix>3d</fix>
</trkpt>
<trkpt lat="33.8096794" lon="-118.3939645">
  <ele>-35.055</ele>
  <time>2026-09-02T22:07:58Z</time>
  <course>181.58</course>
  <speed>0.7410802925459562</speed>
  <fix>3d</fix>
</trkpt>
<trkpt lat="33.8096807" lon="-118.3939643">
  <ele>-34.2</ele>
  <time>2026-09-02T22:07:58Z</time>
  <course>181.89</course>
  <speed>0.77</speed>
  <fix>3d</fix>
</trkpt>
<trkpt lat="33.8096787" lon="-118.3939645">
  <ele>-35.069</ele>
  <time>2026-09-02T22:07:58Z</time>
  <course>181.58</course>
  <speed>0.7410802925459562</speed>
  <fix>3d</fix>
</trkpt>
<trkpt lat="33.8096793" lon="-118.3939643">
  <ele>-34.22</ele>
  <time>2026-09-02T22:07:58Z</time>
  <course>181.89</course>
  <speed>0.77</speed>
  <fix>3d</fix>
</trkpt>
<trkpt lat="33.809678" lon="-118.3939645">
  <ele>-35.088</ele>
  <time>2026-09-02T22:07:58Z</time>
  <course>181.58</course>
  <speed>0.7410802925459562</speed>
  <fix>3d</fix>
</trkpt>
<trkpt lat="33.8096793" lon="-118.3939643">
  <ele>-34.22</ele>
  <time>2026-09-02T22:07:58Z</time>
  <course>181.89</course>
  <speed>0.77</speed>
  <fix>3d</fix>
</trkpt>
<trkpt lat="33.8096773" lon="-118.3939645">
  <ele>-35.113</ele>
  <time>2026-09-02T22:07:58Z</time>
  <course>181.57</course>
  <speed>0.7410802925459562</speed>
  <fix>3d</fix>
</trkpt>
<trkpt lat="33.8096778" lon="-118.3939644">
  <ele>-34.24</ele>
  <time>2026-09-02T22:07:58Z</time>
  <course>181.89</course>
  <speed>0.77</speed>
  <fix>3d</fix>
</trkpt>
<trkpt lat="33.8096766" lon="-118.3939646">
  <ele>-35.141</ele>
  <time>2026-09-02T22:07:58Z</time>
  <course>181.57</course>
  <speed>0.7410802925459562</speed>
  <fix>3d</fix>
</trkpt>
<trkpt lat="33.8096778" lon="-118.3939644">
  <ele>-34.24</ele>
  <time>2026-09-02T22:07:58Z</time>
  <course>181.89</course>
  <speed>0.77</speed>
  <fix>3d</fix>
</trkpt>
<trkpt lat="33.8096759" lon="-118.3939646">
  <ele>-35.173</ele>
  <time>2026-09-02T22:07:58Z</time>
  <course>181.57</course>
  <speed>0.7510659092250159</speed>
  <fix>3d</fix>
</trkpt>
<trkpt lat="33.8096764" lon="-118.3939644">
  <ele>-34.28</ele>
  <time>2026-09-02T22:07:58Z</time>
  <course>181.89</course>
  <speed>0.77</speed>
  <fix>3d</fix>
</trkpt>
<trkpt lat="33.8096752" lon="-118.3939646">
  <ele>-35.207</ele>
  <time>2026-09-02T22:07:58Z</time>
  <course>181.57</course>
  <speed>0.7510659092250159</speed>
  <fix>3d</fix>
</trkpt>
<trkpt lat="33.8096764" lon="-118.3939644">
  <ele>-34.28</ele>
  <time>2026-09-02T22:07:58Z</time>
  <course>181.89</course>
  <speed>0.77</speed>
  <fix>3d</fix>
</trkpt>
<trkpt lat="33.8096745" lon="-118.3939646">
  <ele>-35.245</ele>
  <time>2026-09-02T22:07:58Z</time>
  <course>181.56</course>
  <speed>0.7510659092250159</speed>
  <fix>3d</fix>
</trkpt>
<trkpt lat="33.8096751" lon="-118.3939645">
  <ele>-34.34</ele>
  <time>2026-09-02T22:07:58Z</time>
  <course>181.89</course>
  <speed>0.77</speed>
  <fix>3d</fix>
</trkpt>
<trkpt lat="33.8096738" lon="-118.3939647">
  <ele>-35.286</ele>
  <time>2026-09-02T22:07:58Z</time>
  <course>181.56</course>
  <speed>0.7510659092250159</speed>
  <fix>3d</fix>
</trkpt>
<trkpt lat="33.8096751" lon="-118.3939645">
  <ele>-34.34</ele>
  <time>2026-09-02T22:07:58Z</time>
  <course>181.89</course>
  <speed>0.77</speed>
  <fix>3d</fix>
</trkpt>
<trkpt lat="33.8096731" lon="-118.3939647">
  <ele>-35.327</ele>
  <time>2026-09-02T22:07:58Z</time>
  <course>181.56</course>
  <speed>0.7510659092250159</speed>
  <fix>3d</fix>
</trkpt>
<trkpt lat="33.8096737" lon="-118.3939645">
  <ele>-34.41</ele>
  <time>2026-09-02T22:07:58Z</time>
  <course>181.89</course>
  <speed>0.77</speed>
  <fix>3d</fix>
</trkpt>
<trkpt lat="33.8096724" lon="-118.3939647">
  <ele>-35.371</ele>
  <time>2026-09-02T22:07:58Z</time>
  <course>181.56</course>
  <speed>0.7510659092250159</speed>
  <fix>3d</fix>
</trkpt>
<trkpt lat="33.8096737" lon="-118.3939645">
  <ele>-34.41</ele>
  <time>2026-09-02T22:07:58Z</time>
  <course>181.89</course>
  <speed>0.77</speed>
  <fix>3d</fix>
</trkpt>
<trkpt lat="33.8096717" lon="-118.3939647">
  <ele>-35.417</ele>
  <time>2026-09-02T22:07:58Z</time>
  <course>181.55</course>
  <speed>0.7510659092250159</speed>
  <fix>3d</fix>
</trkpt>
<trkpt lat="33.8096723" lon="-118.3939646">
  <ele>-34.48</ele>
  <time>2026-09-02T22:07:58Z</time>
  <course>181.88</course>
  <speed>0.77</speed>
  <fix>3d</fix>
</trkpt>
<trkpt lat="33.809671" lon="-118.3939648">
  <ele>-35.465</ele>
  <time>2026-09-02T22:07:58Z</time>
  <course>181.55</course>
  <speed>0.7510659092250159</speed>
  <fix>3d</fix>
</trkpt>
<trkpt lat="33.8096723" lon="-118.3939646">
  <ele>-34.48</ele>
  <time>2026-09-02T22:07:58Z</time>
  <course>181.88</course>
  <speed>0.77</speed>
  <fix>3d</fix>
</trkpt>
<trkpt lat="33.8096703" lon="-118.3939648">
  <ele>-35.514</ele>
  <time>2026-09-02T22:07:58Z</time>
  <course>181.55</course>
  <speed>0.7510659092250159</speed>
  <fix>3d</fix>
</trkpt>
<trkpt lat="33.8096709" lon="-118.3939647">
  <ele>-34.57</ele>
  <time>2026-09-02T22:07:58Z</time>
  <course>181.88</course>
  <speed>0.77</speed>
  <fix>3d</fix>
</trkpt>
<trkpt lat="33.8096696" lon="-118.3939648">
  <ele>-35.563</ele>
  <time>2026-09-02T22:07:58Z</time>
  <course>181.54</course>
  <speed>0.7510659092250159</speed>
  <fix>3d</fix>
</trkpt>
<trkpt lat="33.8096709" lon="-118.3939647">
  <ele>-34.57</ele>
  <time>2026-09-02T22:07:58Z</time>
  <course>181.88</course>
  <speed>0.77</speed>
  <fix>3d</fix>
</trkpt>
<trkpt lat="33.8096689" lon="-118.3939649">
  <ele>-35.612</ele>
  <time>2026-09-02T22:07:58Z</time>
  <course>181.54</course>
  <speed>0.7510659092250159</speed>
  <fix>3d</fix>
</trkpt>
<trkpt lat="33.8096696" lon="-118.3939647">
  <ele>-34.66</ele>
  <time>2026-09-02T22:07:58Z</time>
  <course>181.87</course>
  <speed>0.77</speed>
  <fix>3d</fix>
</trkpt>
<trkpt lat="33.8096682" lon="-118.3939649">
  <ele>-35.661</ele>
  <time>2026-09-02T22:07:58Z</time>
  <course>181.54</course>
  <speed>0.7510659092250159</speed>
  <fix>3d</fix>
</trkpt>
<trkpt lat="33.8096696" lon="-118.3939647">
  <ele>-34.66</ele>
  <time>2026-09-02T22:07:58Z</time>
  <course>181.87</course>
  <speed>0.77</speed>
  <fix>3d</fix>
</trkpt>
<trkpt lat="33.8096675" lon="-118.3939649">
  <ele>-35.711</ele>
  <time>2026-09-02T22:07:58Z</time>
  <course>181.54</course>
  <speed>0.7510659092250159</speed>
  <fix>3d</fix>
</trkpt>
<trkpt lat="33.8096682" lon="-118.3939648">
  <ele>-34.75</ele>
  <time>2026-09-02T22:07:58Z</time>
  <course>181.86</course>
  <speed>0.77</speed>
  <fix>3d</fix>
</trkpt>
<trkpt lat="33.8096668" lon="-118.3939649">
  <ele>-35.759</ele>
  <time>2026-09-02T22:07:58Z</time>
  <course>181.53</course>
  <speed>0.7510659092250159</speed>
  <fix>3d</fix>
</trkpt>
<trkpt lat="33.8096682" lon="-118.3939648">
  <ele>-34.75</ele>
  <time>2026-09-02T22:07:58Z</time>
  <course>181.86</course>
  <speed>0.77</speed>
  <fix>3d</fix>
</trkpt>
<trkpt lat="33.8096661" lon="-118.393965">
  <ele>-35.804</ele>
  <time>2026-09-02T22:07:58Z</time>
  <course>181.53</course>
  <speed>0.7510659092250159</speed>
  <fix>3d</fix>
</trkpt>
<trkpt lat="33.8096668" lon="-118.3939648">
  <ele>-34.84</ele>
  <time>2026-09-02T22:07:58Z</time>
  <course>181.85</course>
  <speed>0.77</speed>
  <fix>3d</fix>
</trkpt>
<trkpt lat="33.8096654" lon="-118.393965">
  <ele>-35.849</ele>
  <time>2026-09-02T22:07:58Z</time>
  <course>181.53</course>
  <speed>0.7510659092250159</speed>
  <fix>3d</fix>
</trkpt>
<trkpt lat="33.8096668" lon="-118.3939648">
  <ele>-34.84</ele>
  <time>2026-09-02T22:07:58Z</time>
  <course>181.85</course>
  <speed>0.77</speed>
  <fix>3d</fix>
</trkpt>
<trkpt lat="33.8096647" lon="-118.393965">
  <ele>-35.893</ele>
  <time>2026-09-02T22:07:58Z</time>
  <course>181.53</course>
  <speed>0.7510659092250159</speed>
  <fix>3d</fix>
</trkpt>
<trkpt lat="33.8096654" lon="-118.3939649">
  <ele>-34.93</ele>
  <time>2026-09-02T22:07:58Z</time>
  <course>181.84</course>
  <speed>0.77</speed>
  <fix>3d</fix>
</trkpt>
<trkpt lat="33.809664" lon="-118.3939651">
  <ele>-35.938</ele>
  <time>2026-09-02T22:07:58Z</time>
  <course>181.53</course>
  <speed>0.7510659092250159</speed>
  <fix>3d</fix>
</trkpt>
<trkpt lat="33.8096654" lon="-118.3939649">
  <ele>-34.93</ele>
  <time>2026-09-02T22:07:58Z</time>
  <course>181.84</course>
  <speed>0.77</speed>
  <fix>3d</fix>
</trkpt>
<trkpt lat="33.8096633" lon="-118.3939651">
  <ele>-35.983</ele>
  <time>2026-09-02T22:07:58Z</time>
  <course>181.52</course>
  <speed>0.7510659092250159</speed>
  <fix>3d</fix>
</trkpt>
<trkpt lat="33.809664" lon="-118.3939649">
  <ele>-35.02</ele>
  <time>2026-09-02T22:07:58Z</time>
  <course>181.83</course>
  <speed>0.77</speed>
  <fix>3d</fix>
</trkpt>
<trkpt lat="33.8096626" lon="-118.3939651">
  <ele>-36.028</ele>
  <time>2026-09-02T22:07:58Z</time>
  <course>181.52</course>
  <speed>0.7510659092250159</speed>
  <fix>3d</fix>
</trkpt>
<trkpt lat="33.809664" lon="-118.3939649">
  <ele>-35.02</ele>
  <time>2026-09-02T22:07:58Z</time>
  <course>181.83</course>
  <speed>0.77</speed>
  <fix>3d</fix>
</trkpt>
<trkpt lat="33.8096619" lon="-118.3939651">
  <ele>-36.071</ele>
  <time>2026-09-02T22:07:58Z</time>
  <course>181.52</course>
  <speed>0.7510659092250159</speed>
  <fix>3d</fix>
</trkpt>
<trkpt lat="33.8096625" lon="-118.393965">
  <ele>-35.11</ele>
  <time>2026-09-02T22:07:58Z</time>
  <course>181.82</course>
  <speed>0.77</speed>
  <fix>3d</fix>
</trkpt>
<trkpt lat="33.8096612" lon="-118.3939652">
  <ele>-36.116</ele>
  <time>2026-09-02T22:07:58Z</time>
  <course>181.52</course>
  <speed>0.7510659092250159</speed>
  <fix>3d</fix>
</trkpt>
<trkpt lat="33.8096625" lon="-118.393965">
  <ele>-35.11</ele>
  <time>2026-09-02T22:07:58Z</time>
  <course>181.82</course>
  <speed>0.77</speed>
  <fix>3d</fix>
</trkpt>
<trkpt lat="33.8096606" lon="-118.3939652">
  <ele>-36.161</ele>
  <time>2026-09-02T22:07:58Z</time>
  <course>181.52</course>
  <speed>0.7510659092250159</speed>
  <fix>3d</fix>
</trkpt>
<trkpt lat="33.8096612" lon="-118.393965">
  <ele>-35.19</ele>
  <time>2026-09-02T22:07:58Z</time>
  <course>181.81</course>
  <speed>0.77</speed>
  <fix>3d</fix>
</trkpt>
<trkpt lat="33.8096599" lon="-118.3939652">
  <ele>-36.206</ele>
  <time>2026-09-02T22:07:58Z</time>
  <course>181.51</course>
  <speed>0.7510659092250159</speed>
  <fix>3d</fix>
</trkpt>
<trkpt lat="33.8096612" lon="-118.393965">
  <ele>-35.19</ele>
  <time>2026-09-02T22:07:58Z</time>
  <course>181.81</course>
  <speed>0.77</speed>
  <fix>3d</fix>
</trkpt>
<trkpt lat="33.8096592" lon="-118.3939652">
  <ele>-36.249</ele>
  <time>2026-09-02T22:07:58Z</time>
  <course>181.51</course>
  <speed>0.7510659092250159</speed>
  <fix>3d</fix>
</trkpt>
<trkpt lat="33.8096598" lon="-118.3939651">
  <ele>-35.28</ele>
  <time>2026-09-02T22:07:58Z</time>
  <course>181.8</course>
  <speed>0.77</speed>
  <fix>3d</fix>
</trkpt>
<trkpt lat="33.8096585" lon="-118.3939653">
  <ele>-36.291</ele>
  <time>2026-09-02T22:07:58Z</time>
  <course>181.51</course>
  <speed>0.7510659092250159</speed>
  <fix>3d</fix>
</trkpt>
<trkpt lat="33.8096598" lon="-118.3939651">
  <ele>-35.28</ele>
  <time>2026-09-02T22:07:58Z</time>
  <course>181.8</course>
  <speed>0.77</speed>
  <fix>3d</fix>
</trkpt>
<trkpt lat="33.8096578" lon="-118.3939653">
  <ele>-36.334</ele>
  <time>2026-09-02T22:07:58Z</time>
  <course>181.51</course>
  <speed>0.7510659092250159</speed>
  <fix>3d</fix>
</trkpt>
<trkpt lat="33.8096583" lon="-118.3939651">
  <ele>-35.37</ele>
  <time>2026-09-02T22:07:58Z</time>
  <course>181.79</course>
  <speed>0.77</speed>
  <fix>3d</fix>
</trkpt>
<trkpt lat="33.8096571" lon="-118.3939653">
  <ele>-36.376</ele>
  <time>2026-09-02T22:07:58Z</time>
  <course>181.51</course>
  <speed>0.7510659092250159</speed>
  <fix>3d</fix>
</trkpt>
<trkpt lat="33.8096583" lon="-118.3939651">
  <ele>-35.37</ele>
  <time>2026-09-02T22:07:58Z</time>
  <course>181.79</course>
  <speed>0.77</speed>
  <fix>3d</fix>
</trkpt>
<trkpt lat="33.8096564" lon="-118.3939653">
  <ele>-36.415</ele>
  <time>2026-09-02T22:07:58Z</time>
  <course>181.5</course>
  <speed>0.7510659092250159</speed>
  <fix>3d</fix>
</trkpt>
<trkpt lat="33.809657" lon="-118.3939652">
  <ele>-35.46</ele>
  <time>2026-09-02T22:07:58Z</time>
  <course>181.77</course>
  <speed>0.77</speed>
  <fix>3d</fix>
</trkpt>
<trkpt lat="33.8096557" lon="-118.3939654">
  <ele>-36.452</ele>
  <time>2026-09-02T22:07:58Z</time>
  <course>181.5</course>
  <speed>0.7510659092250159</speed>
  <fix>3d</fix>
</trkpt>
<trkpt lat="33.809657" lon="-118.3939652">
  <ele>-35.46</ele>
  <time>2026-09-02T22:07:58Z</time>
  <course>181.77</course>
  <speed>0.77</speed>
  <fix>3d</fix>
</trkpt>
<trkpt lat="33.809655" lon="-118.3939654">
  <ele>-36.485</ele>
  <time>2026-09-02T22:07:58Z</time>
  <course>181.5</course>
  <speed>0.7510659092250159</speed>
  <fix>3d</fix>
</trkpt>
<trkpt lat="33.8096557" lon="-118.3939652">
  <ele>-35.53</ele>
  <time>2026-09-02T22:07:58Z</time>
  <course>181.76</course>
  <speed>0.77</speed>
  <fix>3d</fix>
</trkpt>
<trkpt lat="33.8096543" lon="-118.3939654">
  <ele>-36.516</ele>
  <time>2026-09-02T22:07:58Z</time>
  <course>181.5</course>
  <speed>0.7510659092250159</speed>
  <fix>3d</fix>
</trkpt>
<trkpt lat="33.8096557" lon="-118.3939652">
  <ele>-35.53</ele>
  <time>2026-09-02T22:07:58Z</time>
  <course>181.76</course>
  <speed>0.77</speed>
  <fix>3d</fix>
</trkpt>
<trkpt lat="33.8096536" lon="-118.3939654">
  <ele>-36.545</ele>
  <time>2026-09-02T22:07:58Z</time>
  <course>181.49</course>
  <speed>0.7510659092250159</speed>
  <fix>3d</fix>
</trkpt>
<trkpt lat="33.8096543" lon="-118.3939653">
  <ele>-35.6</ele>
  <time>2026-09-02T22:07:58Z</time>
  <course>181.74</course>
  <speed>0.77</speed>
  <fix>3d</fix>
</trkpt>
<trkpt lat="33.8096529" lon="-118.3939655">
  <ele>-36.571</ele>
  <time>2026-09-02T22:07:58Z</time>
  <course>181.49</course>
  <speed>0.7510659092250159</speed>
  <fix>3d</fix>
</trkpt>
<trkpt lat="33.8096543" lon="-118.3939653">
  <ele>-35.6</ele>
  <time>2026-09-02T22:07:58Z</time>
  <course>181.74</course>
  <speed>0.77</speed>
  <fix>3d</fix>
</trkpt>
<trkpt lat="33.8096522" lon="-118.3939655">
  <ele>-36.596</ele>
  <time>2026-09-02T22:07:58Z</time>
  <course>181.49</course>
  <speed>0.7510659092250159</speed>
  <fix>3d</fix>
</trkpt>
<trkpt lat="33.8096528" lon="-118.3939653">
  <ele>-35.65</ele>
  <time>2026-09-02T22:07:58Z</time>
  <course>181.73</course>
  <speed>0.77</speed>
  <fix>3d</fix>
</trkpt>
<trkpt lat="33.8096515" lon="-118.3939655">
  <ele>-36.623</ele>
  <time>2026-09-02T22:07:58Z</time>
  <course>181.49</course>
  <speed>0.7510659092250159</speed>
  <fix>3d</fix>
</trkpt>
<trkpt lat="33.8096528" lon="-118.3939653">
  <ele>-35.65</ele>
  <time>2026-09-02T22:07:58Z</time>
  <course>181.73</course>
  <speed>0.77</speed>
  <fix>3d</fix>
</trkpt>
<trkpt lat="33.8096508" lon="-118.3939655">
  <ele>-36.651</ele>
  <time>2026-09-02T22:07:58Z</time>
  <course>181.49</course>
  <speed>0.7510659092250159</speed>
  <fix>3d</fix>
</trkpt>
<trkpt lat="33.8096515" lon="-118.3939654">
  <ele>-35.71</ele>
  <time>2026-09-02T22:07:58Z</time>
  <course>181.72</course>
  <speed>0.77</speed>
  <fix>3d</fix>
</trkpt>
<trkpt lat="33.8096501" lon="-118.3939656">
  <ele>-36.682</ele>
  <time>2026-09-02T22:07:58Z</time>
  <course>181.49</course>
  <speed>0.7510659092250159</speed>
  <fix>3d</fix>
</trkpt>
<trkpt lat="33.8096515" lon="-118.3939654">
  <ele>-35.71</ele>
  <time>2026-09-02T22:07:58Z</time>
  <course>181.72</course>
  <speed>0.77</speed>
  <fix>3d</fix>
</trkpt>
<trkpt lat="33.8096494" lon="-118.3939656">
  <ele>-36.719</ele>
  <time>2026-09-02T22:07:58Z</time>
  <course>181.48</course>
  <speed>0.7510659092250159</speed>
  <fix>3d</fix>
</trkpt>
<trkpt lat="33.8096501" lon="-118.3939654">
  <ele>-35.77</ele>
  <time>2026-09-02T22:07:58Z</time>
  <course>181.72</course>
  <speed>0.77</speed>
  <fix>3d</fix>
</trkpt>
<trkpt lat="33.8096487" lon="-118.3939656">
  <ele>-36.759</ele>
  <time>2026-09-02T22:07:58Z</time>
  <course>181.48</course>
  <speed>0.7510659092250159</speed>
  <fix>3d</fix>
</trkpt>
<trkpt lat="33.8096501" lon="-118.3939654">
  <ele>-35.77</ele>
  <time>2026-09-02T22:07:58Z</time>
  <course>181.72</course>
  <speed>0.77</speed>
  <fix>3d</fix>
</trkpt>
<trkpt lat="33.809648" lon="-118.3939656">
  <ele>-36.802</ele>
  <time>2026-09-02T22:07:58Z</time>
  <course>181.48</course>
  <speed>0.7510659092250159</speed>
  <fix>3d</fix>
</trkpt>
<trkpt lat="33.8096486" lon="-118.3939655">
  <ele>-35.84</ele>
  <time>2026-09-02T22:07:58Z</time>
  <course>181.71</course>
  <speed>0.77</speed>
  <fix>3d</fix>
</trkpt>
<trkpt lat="33.8096473" lon="-118.3939657">
  <ele>-36.847</ele>
  <time>2026-09-02T22:07:58Z</time>
  <course>181.48</course>
  <speed>0.7510659092250159</speed>
  <fix>3d</fix>
</trkpt>
<trkpt lat="33.8096486" lon="-118.3939655">
  <ele>-35.84</ele>
  <time>2026-09-02T22:07:58Z</time>
  <course>181.71</course>
  <speed>0.77</speed>
  <fix>3d</fix>
</trkpt>
<trkpt lat="33.8096466" lon="-118.3939657">
  <ele>-36.891</ele>
  <time>2026-09-02T22:07:58Z</time>
  <course>181.48</course>
  <speed>0.7510659092250159</speed>
  <fix>3d</fix>
</trkpt>
<trkpt lat="33.8096472" lon="-118.3939656">
  <ele>-35.93</ele>
  <time>2026-09-02T22:07:58Z</time>
  <course>181.71</course>
  <speed>0.77</speed>
  <fix>3d</fix>
</trkpt>
<trkpt lat="33.8096459" lon="-118.3939657">
  <ele>-36.935</ele>
  <time>2026-09-02T22:07:58Z</time>
  <course>181.47</course>
  <speed>0.7510659092250159</speed>
  <fix>3d</fix>
</trkpt>
<trkpt lat="33.8096472" lon="-118.3939656">
  <ele>-35.93</ele>
  <time>2026-09-02T22:07:58Z</time>
  <course>181.71</course>
  <speed>0.77</speed>
  <fix>3d</fix>
</trkpt>
<trkpt lat="33.8096452" lon="-118.3939657">
  <ele>-36.978</ele>
  <time>2026-09-02T22:07:58Z</time>
  <course>181.47</course>
  <speed>0.7510659092250159</speed>
  <fix>3d</fix>
</trkpt>
<trkpt lat="33.8096459" lon="-118.3939656">
  <ele>-36.01</ele>
  <time>2026-09-02T22:07:58Z</time>
  <course>181.7</course>
  <speed>0.77</speed>
  <fix>3d</fix>
</trkpt>
<trkpt lat="33.8096445" lon="-118.3939658">
  <ele>-37.021</ele>
  <time>2026-09-02T22:07:58Z</time>
  <course>181.47</course>
  <speed>0.7510659092250159</speed>
  <fix>3d</fix>
</trkpt>
<trkpt lat="33.8096459" lon="-118.3939656">
  <ele>-36.01</ele>
  <time>2026-09-02T22:07:58Z</time>
  <course>181.7</course>
  <speed>0.77</speed>
  <fix>3d</fix>
</trkpt>
<trkpt lat="33.8096438" lon="-118.3939658">
  <ele>-37.064</ele>
  <time>2026-09-02T22:07:58Z</time>
  <course>181.47</course>
  <speed>0.7510659092250159</speed>
  <fix>3d</fix>
</trkpt>
<trkpt lat="33.8096445" lon="-118.3939657">
  <ele>-36.09</ele>
  <time>2026-09-02T22:07:58Z</time>
  <course>181.69</course>
  <speed>0.77</speed>
  <fix>3d</fix>
</trkpt>
<trkpt lat="33.8096431" lon="-118.3939658">
  <ele>-37.108</ele>
  <time>2026-09-02T22:07:58Z</time>
  <course>181.47</course>
  <speed>0.7510659092250159</speed>
  <fix>3d</fix>
</trkpt>
<trkpt lat="33.8096445" lon="-118.3939657">
  <ele>-36.09</ele>
  <time>2026-09-02T22:07:58Z</time>
  <course>181.69</course>
  <speed>0.77</speed>
  <fix>3d</fix>
</trkpt>
<trkpt lat="33.8096424" lon="-118.3939658">
  <ele>-37.152</ele>
  <time>2026-09-02T22:07:58Z</time>
  <course>181.47</course>
  <speed>0.7510659092250159</speed>
  <fix>3d</fix>
</trkpt>
<trkpt lat="33.8096431" lon="-118.3939657">
  <ele>-36.17</ele>
  <time>2026-09-02T22:07:58Z</time>
  <course>181.68</course>
  <speed>0.77</speed>
  <fix>3d</fix>
</trkpt>
<trkpt lat="33.8096417" lon="-118.3939659">
  <ele>-37.197</ele>
  <time>2026-09-02T22:07:58Z</time>
  <course>181.46</course>
  <speed>0.7510659092250159</speed>
  <fix>3d</fix>
</trkpt>
<trkpt lat="33.8096431" lon="-118.3939657">
  <ele>-36.17</ele>
  <time>2026-09-02T22:07:58Z</time>
  <course>181.68</course>
  <speed>0.77</speed>
  <fix>3d</fix>
</trkpt>
<trkpt lat="33.809641" lon="-118.3939659">
  <ele>-37.241</ele>
  <time>2026-09-02T22:07:58Z</time>
  <course>181.46</course>
  <speed>0.7510659092250159</speed>
  <fix>3d</fix>
</trkpt>
<trkpt lat="33.8096417" lon="-118.3939657">
  <ele>-36.26</ele>
  <time>2026-09-02T22:07:58Z</time>
  <course>181.67</course>
  <speed>0.77</speed>
  <fix>3d</fix>
</trkpt>
<trkpt lat="33.8096403" lon="-118.3939659">
  <ele>-37.284</ele>
  <time>2026-09-02T22:07:58Z</time>
  <course>181.46</course>
  <speed>0.7510659092250159</speed>
  <fix>3d</fix>
</trkpt>
<trkpt lat="33.8096417" lon="-118.3939657">
  <ele>-36.26</ele>
  <time>2026-09-02T22:07:58Z</time>
  <course>181.67</course>
  <speed>0.77</speed>
  <fix>3d</fix>
</trkpt>
<trkpt lat="33.8096396" lon="-118.3939659">
  <ele>-37.326</ele>
  <time>2026-09-02T22:07:58Z</time>
  <course>181.46</course>
  <speed>0.7510659092250159</speed>
  <fix>3d</fix>
</trkpt>
<trkpt lat="33.8096404" lon="-118.3939658">
  <ele>-36.34</ele>
  <time>2026-09-02T22:07:58Z</time>
  <course>181.67</course>
  <speed>0.77</speed>
  <fix>3d</fix>
</trkpt>
<trkpt lat="33.8096389" lon="-118.393966">
  <ele>-37.371</ele>
  <time>2026-09-02T22:07:58Z</time>
  <course>181.46</course>
  <speed>0.7510659092250159</speed>
  <fix>3d</fix>
</trkpt>
<trkpt lat="33.8096404" lon="-118.3939658">
  <ele>-36.34</ele>
  <time>2026-09-02T22:07:58Z</time>
  <course>181.67</course>
  <speed>0.77</speed>
  <fix>3d</fix>
</trkpt>
<trkpt lat="33.8096383" lon="-118.393966">
  <ele>-37.417</ele>
  <time>2026-09-02T22:07:58Z</time>
  <course>181.45</course>
  <speed>0.7510659092250159</speed>
  <fix>3d</fix>
</trkpt>
<trkpt lat="33.809639" lon="-118.3939658">
  <ele>-36.43</ele>
  <time>2026-09-02T22:07:58Z</time>
  <course>181.66</course>
  <speed>0.77</speed>
  <fix>3d</fix>
</trkpt>
<trkpt lat="33.8096376" lon="-118.393966">
  <ele>-37.462</ele>
  <time>2026-09-02T22:07:58Z</time>
  <course>181.46</course>
  <speed>0.7510659092250159</speed>
  <fix>3d</fix>
</trkpt>
<trkpt lat="33.809639" lon="-118.3939658">
  <ele>-36.43</ele>
  <time>2026-09-02T22:07:58Z</time>
  <course>181.66</course>
  <speed>0.77</speed>
  <fix>3d</fix>
</trkpt>
<trkpt lat="33.8096369" lon="-118.393966">
  <ele>-37.506</ele>
  <time>2026-09-02T22:07:58Z</time>
  <course>181.45</course>
  <speed>0.7510659092250159</speed>
  <fix>3d</fix>
</trkpt>
<trkpt lat="33.8096376" lon="-118.3939659">
  <ele>-36.51</ele>
  <time>2026-09-02T22:07:58Z</time>
  <course>181.65</course>
  <speed>0.77</speed>
  <fix>3d</fix>
</trkpt>
<trkpt lat="33.8096362" lon="-118.3939661">
  <ele>-37.546</ele>
  <time>2026-09-02T22:07:58Z</time>
  <course>181.45</course>
  <speed>0.7510659092250159</speed>
  <fix>3d</fix>
</trkpt>
<trkpt lat="33.8096376" lon="-118.3939659">
  <ele>-36.51</ele>
  <time>2026-09-02T22:07:58Z</time>
  <course>181.65</course>
  <speed>0.77</speed>
  <fix>3d</fix>
</trkpt>
<trkpt lat="33.8096355" lon="-118.3939661">
  <ele>-37.583</ele>
  <time>2026-09-02T22:07:58Z</time>
  <course>181.45</course>
  <speed>0.7510659092250159</speed>
  <fix>3d</fix>
</trkpt>
<trkpt lat="33.8096362" lon="-118.3939659">
  <ele>-36.6</ele>
  <time>2026-09-02T22:07:58Z</time>
  <course>181.64</course>
  <speed>0.77</speed>
  <fix>3d</fix>
</trkpt>
<trkpt lat="33.8096348" lon="-118.3939661">
  <ele>-37.618</ele>
  <time>2026-09-02T22:07:58Z</time>
  <course>181.45</course>
  <speed>0.7510659092250159</speed>
  <fix>3d</fix>
</trkpt>
<trkpt lat="33.8096362" lon="-118.3939659">
  <ele>-36.6</ele>
  <time>2026-09-02T22:07:58Z</time>
  <course>181.64</course>
  <speed>0.77</speed>
  <fix>3d</fix>
</trkpt>
<trkpt lat="33.8096341" lon="-118.3939661">
  <ele>-37.651</ele>
  <time>2026-09-02T22:07:58Z</time>
  <course>181.45</course>
  <speed>0.7505997601918082</speed>
  <fix>3d</fix>
</trkpt>
<trkpt lat="33.8096348" lon="-118.393966">
  <ele>-36.67</ele>
  <time>2026-09-02T22:07:58Z</time>
  <course>181.63</course>
  <speed>0.77</speed>
  <fix>3d</fix>
</trkpt>
<trkpt lat="33.8096334" lon="-118.3939662">
  <ele>-37.682</ele>
  <time>2026-09-02T22:07:58Z</time>
  <course>181.45</course>
  <speed>0.7505997601918082</speed>
  <fix>3d</fix>
</trkpt>
<trkpt lat="33.8096348" lon="-118.393966">
  <ele>-36.67</ele>
  <time>2026-09-02T22:07:58Z</time>
  <course>181.63</course>
  <speed>0.77</speed>
  <fix>3d</fix>
</trkpt>
<trkpt lat="33.8096327" lon="-118.3939662">
  <ele>-37.715</ele>
  <time>2026-09-02T22:07:58Z</time>
  <course>181.44</course>
  <speed>0.7505997601918082</speed>
  <fix>3d</fix>
</trkpt>
<trkpt lat="33.8096333" lon="-118.393966">
  <ele>-36.73</ele>
  <time>2026-09-02T22:07:58Z</time>
  <course>181.62</course>
  <speed>0.77</speed>
  <fix>3d</fix>
</trkpt>
<trkpt lat="33.809632" lon="-118.3939662">
  <ele>-37.749</ele>
  <time>2026-09-02T22:07:58Z</time>
  <course>181.44</course>
  <speed>0.7505997601918082</speed>
  <fix>3d</fix>
</trkpt>
<trkpt lat="33.8096333" lon="-118.393966">
  <ele>-36.73</ele>
  <time>2026-09-02T22:07:58Z</time>
  <course>181.62</course>
  <speed>0.77</speed>
  <fix>3d</fix>
</trkpt>
<trkpt lat="33.8096313" lon="-118.3939662">
  <ele>-37.782</ele>
  <time>2026-09-02T22:07:58Z</time>
  <course>181.44</course>
  <speed>0.7505997601918082</speed>
  <fix>3d</fix>
</trkpt>
<trkpt lat="33.809632" lon="-118.3939661">
  <ele>-36.8</ele>
  <time>2026-09-02T22:07:58Z</time>
  <course>181.61</course>
  <speed>0.77</speed>
  <fix>3d</fix>
</trkpt>
<trkpt lat="33.8096306" lon="-118.3939662">
  <ele>-37.817</ele>
  <time>2026-09-02T22:07:58Z</time>
  <course>181.44</course>
  <speed>0.7505997601918082</speed>
  <fix>3d</fix>
</trkpt>
<trkpt lat="33.809632" lon="-118.3939661">
  <ele>-36.8</ele>
  <time>2026-09-02T22:07:58Z</time>
  <course>181.61</course>
  <speed>0.77</speed>
  <fix>3d</fix>
</trkpt>
<trkpt lat="33.8096299" lon="-118.3939663">
  <ele>-37.851</ele>
  <time>2026-09-02T22:07:58Z</time>
  <course>181.44</course>
  <speed>0.7505997601918082</speed>
  <fix>3d</fix>
</trkpt>
<trkpt lat="33.8096306" lon="-118.3939661">
  <ele>-36.87</ele>
  <time>2026-09-02T22:07:58Z</time>
  <course>181.6</course>
  <speed>0.77</speed>
  <fix>3d</fix>
</trkpt>
<trkpt lat="33.8096292" lon="-118.3939663">
  <ele>-37.885</ele>
  <time>2026-09-02T22:07:58Z</time>
  <course>181.44</course>
  <speed>0.7505997601918082</speed>
  <fix>3d</fix>
</trkpt>
<trkpt lat="33.8096306" lon="-118.3939661">
  <ele>-36.87</ele>
  <time>2026-09-02T22:07:58Z</time>
  <course>181.6</course>
  <speed>0.77</speed>
  <fix>3d</fix>
</trkpt>
<trkpt lat="33.8096285" lon="-118.3939663">
  <ele>-37.917</ele>
  <time>2026-09-02T22:07:58Z</time>
  <course>181.44</course>
  <speed>0.7505997601918082</speed>
  <fix>3d</fix>
</trkpt>
<trkpt lat="33.8096291" lon="-118.3939662">
  <ele>-36.93</ele>
  <time>2026-09-02T22:07:58Z</time>
  <course>181.59</course>
  <speed>0.77</speed>
  <fix>3d</fix>
</trkpt>
<trkpt lat="33.8096278" lon="-118.3939663">
  <ele>-37.949</ele>
  <time>2026-09-02T22:07:58Z</time>
  <course>181.44</course>
  <speed>0.7505997601918082</speed>
  <fix>3d</fix>
</trkpt>
<trkpt lat="33.8096291" lon="-118.3939662">
  <ele>-36.93</ele>
  <time>2026-09-02T22:07:58Z</time>
  <course>181.59</course>
  <speed>0.77</speed>
  <fix>3d</fix>
</trkpt>
<trkpt lat="33.8096271" lon="-118.3939664">
  <ele>-37.978</ele>
  <time>2026-09-02T22:07:58Z</time>
  <course>181.43</course>
  <speed>0.7505997601918082</speed>
  <fix>3d</fix>
</trkpt>
<trkpt lat="33.8096278" lon="-118.3939662">
  <ele>-37.0</ele>
  <time>2026-09-02T22:07:58Z</time>
  <course>181.58</course>
  <speed>0.77</speed>
  <fix>3d</fix>
</trkpt>
<trkpt lat="33.8096264" lon="-118.3939664">
  <ele>-38.004</ele>
  <time>2026-09-02T22:07:58Z</time>
  <course>181.43</course>
  <speed>0.7505997601918082</speed>
  <fix>3d</fix>
</trkpt>
<trkpt lat="33.8096278" lon="-118.3939662">
  <ele>-37.0</ele>
  <time>2026-09-02T22:07:58Z</time>
  <course>181.58</course>
  <speed>0.77</speed>
  <fix>3d</fix>
</trkpt>
<trkpt lat="33.8096257" lon="-118.3939664">
  <ele>-38.029</ele>
  <time>2026-09-02T22:07:58Z</time>
  <course>181.43</course>
  <speed>0.7505997601918082</speed>
  <fix>3d</fix>
</trkpt>
<trkpt lat="33.8096264" lon="-118.3939663">
  <ele>-37.05</ele>
  <time>2026-09-02T22:07:58Z</time>
  <course>181.57</course>
  <speed>0.77</speed>
  <fix>3d</fix>
</trkpt>
<trkpt lat="33.809625" lon="-118.3939664">
  <ele>-38.054</ele>
  <time>2026-09-02T22:07:58Z</time>
  <course>181.43</course>
  <speed>0.7505997601918082</speed>
  <fix>3d</fix>
</trkpt>
<trkpt lat="33.8096264" lon="-118.3939663">
  <ele>-37.05</ele>
  <time>2026-09-02T22:07:58Z</time>
  <course>181.57</course>
  <speed>0.77</speed>
  <fix>3d</fix>
</trkpt>
<trkpt lat="33.8096243" lon="-118.3939665">
  <ele>-38.082</ele>
  <time>2026-09-02T22:07:58Z</time>
  <course>181.43</course>
  <speed>0.7505997601918082</speed>
  <fix>3d</fix>
</trkpt>
<trkpt lat="33.8096251" lon="-118.3939663">
  <ele>-37.1</ele>
  <time>2026-09-02T22:07:58Z</time>
  <course>181.57</course>
  <speed>0.77</speed>
  <fix>3d</fix>
</trkpt>
<trkpt lat="33.8096236" lon="-118.3939665">
  <ele>-38.114</ele>
  <time>2026-09-02T22:07:58Z</time>
  <course>181.43</course>
  <speed>0.7505997601918082</speed>
  <fix>3d</fix>
</trkpt>
<trkpt lat="33.8096251" lon="-118.3939663">
  <ele>-37.1</ele>
  <time>2026-09-02T22:07:58Z</time>
  <course>181.57</course>
  <speed>0.77</speed>
  <fix>3d</fix>
</trkpt>
<trkpt lat="33.8096229" lon="-118.3939665">
  <ele>-38.151</ele>
  <time>2026-09-02T22:07:58Z</time>
  <course>181.43</course>
  <speed>0.7505997601918082</speed>
  <fix>3d</fix>
</trkpt>
<trkpt lat="33.8096237" lon="-118.3939664">
  <ele>-37.16</ele>
  <time>2026-09-02T22:07:58Z</time>
  <course>181.56</course>
  <speed>0.77</speed>
  <fix>3d</fix>
</trkpt>
<trkpt lat="33.8096222" lon="-118.3939665">
  <ele>-38.192</ele>
  <time>2026-09-02T22:07:58Z</time>
  <course>181.42</course>
  <speed>0.7505997601918082</speed>
  <fix>3d</fix>
</trkpt>
<trkpt lat="33.8096237" lon="-118.3939664">
  <ele>-37.16</ele>
  <time>2026-09-02T22:07:58Z</time>
  <course>181.56</course>
  <speed>0.77</speed>
  <fix>3d</fix>
</trkpt>
<trkpt lat="33.8096216" lon="-118.3939666">
  <ele>-38.235</ele>
  <time>2026-09-02T22:07:58Z</time>
  <course>181.42</course>
  <speed>0.7505997601918082</speed>
  <fix>3d</fix>
</trkpt>
<trkpt lat="33.8096223" lon="-118.3939664">
  <ele>-37.23</ele>
  <time>2026-09-02T22:07:58Z</time>
  <course>181.56</course>
  <speed>0.77</speed>
  <fix>3d</fix>
</trkpt>
<trkpt lat="33.8096209" lon="-118.3939666">
  <ele>-38.281</ele>
  <time>2026-09-02T22:07:58Z</time>
  <course>181.42</course>
  <speed>0.7505997601918082</speed>
  <fix>3d</fix>
</trkpt>
<trkpt lat="33.8096223" lon="-118.3939664">
  <ele>-37.23</ele>
  <time>2026-09-02T22:07:58Z</time>
  <course>181.56</course>
  <speed>0.77</speed>
  <fix>3d</fix>
</trkpt>
<trkpt lat="33.8096202" lon="-118.3939666">
  <ele>-38.328</ele>
  <time>2026-09-02T22:07:58Z</time>
  <course>181.42</course>
  <speed>0.7505997601918082</speed>
  <fix>3d</fix>
</trkpt>
<trkpt lat="33.8096209" lon="-118.3939665">
  <ele>-37.32</ele>
  <time>2026-09-02T22:07:58Z</time>
  <course>181.56</course>
  <speed>0.77</speed>
  <fix>3d</fix>
</trkpt>
<trkpt lat="33.8096195" lon="-118.3939666">
  <ele>-38.375</ele>
  <time>2026-09-02T22:07:58Z</time>
  <course>181.42</course>
  <speed>0.7505997601918082</speed>
  <fix>3d</fix>
</trkpt>
<trkpt lat="33.8096209" lon="-118.3939665">
  <ele>-37.32</ele>
  <time>2026-09-02T22:07:58Z</time>
  <course>181.56</course>
  <speed>0.77</speed>
  <fix>3d</fix>
</trkpt>
<trkpt lat="33.8096188" lon="-118.3939667">
  <ele>-38.422</ele>
  <time>2026-09-02T22:07:58Z</time>
  <course>181.42</course>
  <speed>0.7505997601918082</speed>
  <fix>3d</fix>
</trkpt>
<trkpt lat="33.8096194" lon="-118.3939665">
  <ele>-37.41</ele>
  <time>2026-09-02T22:07:58Z</time>
  <course>181.56</course>
  <speed>0.77</speed>
  <fix>3d</fix>
</trkpt>
<trkpt lat="33.8096181" lon="-118.3939667">
  <ele>-38.47</ele>
  <time>2026-09-02T22:07:58Z</time>
  <course>181.42</course>
  <speed>0.7505997601918082</speed>
  <fix>3d</fix>
</trkpt>
<trkpt lat="33.8096194" lon="-118.3939665">
  <ele>-37.41</ele>
  <time>2026-09-02T22:07:58Z</time>
  <course>181.56</course>
  <speed>0.77</speed>
  <fix>3d</fix>
</trkpt>
<trkpt lat="33.8096174" lon="-118.3939667">
  <ele>-38.519</ele>
  <time>2026-09-02T22:07:58Z</time>
  <course>181.42</course>
  <speed>0.7505997601918082</speed>
  <fix>3d</fix>
</trkpt>
<trkpt lat="33.809618" lon="-118.3939665">
  <ele>-37.5</ele>
  <time>2026-09-02T22:07:58Z</time>
  <course>181.55</course>
  <speed>0.77</speed>
  <fix>3d</fix>
</trkpt>
<trkpt lat="33.8096167" lon="-118.3939667">
  <ele>-38.569</ele>
  <time>2026-09-02T22:07:58Z</time>
  <course>181.42</course>
  <speed>0.7505997601918082</speed>
  <fix>3d</fix>
</trkpt>
<trkpt lat="33.809618" lon="-118.3939665">
  <ele>-37.5</ele>
  <time>2026-09-02T22:07:58Z</time>
  <course>181.55</course>
  <speed>0.77</speed>
  <fix>3d</fix>
</trkpt>
<trkpt lat="33.809616" lon="-118.3939667">
  <ele>-38.62</ele>
  <time>2026-09-02T22:07:58Z</time>
  <course>181.41</course>
  <speed>0.7505997601918082</speed>
  <fix>3d</fix>
</trkpt>
<trkpt lat="33.8096167" lon="-118.3939666">
  <ele>-37.6</ele>
  <time>2026-09-02T22:07:58Z</time>
  <course>181.55</course>
  <speed>0.77</speed>
  <fix>3d</fix>
</trkpt>
<trkpt lat="33.8096153" lon="-118.3939668">
  <ele>-38.672</ele>
  <time>2026-09-02T22:07:58Z</time>
  <course>181.41</course>
  <speed>0.7505997601918082</speed>
  <fix>3d</fix>
</trkpt>
<trkpt lat="33.8096167" lon="-118.3939666">
  <ele>-37.6</ele>
  <time>2026-09-02T22:07:58Z</time>
  <course>181.55</course>
  <speed>0.77</speed>
  <fix>3d</fix>
</trkpt>
<trkpt lat="33.8096146" lon="-118.3939668">
  <ele>-38.724</ele>
  <time>2026-09-02T22:07:58Z</time>
  <course>181.41</course>
  <speed>0.7505997601918082</speed>
  <fix>3d</fix>
</trkpt>
<trkpt lat="33.8096153" lon="-118.3939666">
  <ele>-37.7</ele>
  <time>2026-09-02T22:07:58Z</time>
  <course>181.54</course>
  <speed>0.77</speed>
  <fix>3d</fix>
</trkpt>
<trkpt lat="33.8096139" lon="-118.3939668">
  <ele>-38.776</ele>
  <time>2026-09-02T22:07:58Z</time>
  <course>181.41</course>
  <speed>0.7505997601918082</speed>
  <fix>3d</fix>
</trkpt>
<trkpt lat="33.8096153" lon="-118.3939666">
  <ele>-37.7</ele>
  <time>2026-09-02T22:07:58Z</time>
  <course>181.54</course>
  <speed>0.77</speed>
  <fix>3d</fix>
</trkpt>
<trkpt lat="33.8096132" lon="-118.3939668">
  <ele>-38.826</ele>
  <time>2026-09-02T22:07:58Z</time>
  <course>181.41</course>
  <speed>0.7505997601918082</speed>
  <fix>3d</fix>
</trkpt>
<trkpt lat="33.8096139" lon="-118.3939667">
  <ele>-37.8</ele>
  <time>2026-09-02T22:07:58Z</time>
  <course>181.53</course>
  <speed>0.77</speed>
  <fix>3d</fix>
</trkpt>
<trkpt lat="33.8096125" lon="-118.3939669">
  <ele>-38.873</ele>
  <time>2026-09-02T22:07:58Z</time>
  <course>181.41</course>
  <speed>0.7505997601918082</speed>
  <fix>3d</fix>
</trkpt>
<trkpt lat="33.8096139" lon="-118.3939667">
  <ele>-37.8</ele>
  <time>2026-09-02T22:07:58Z</time>
  <course>181.53</course>
  <speed>0.77</speed>
  <fix>3d</fix>
</trkpt>
<trkpt lat="33.8096118" lon="-118.3939669">
  <ele>-38.919</ele>
  <time>2026-09-02T22:07:58Z</time>
  <course>181.41</course>
  <speed>0.7505997601918082</speed>
  <fix>3d</fix>
</trkpt>
<trkpt lat="33.8096125" lon="-118.3939667">
  <ele>-37.89</ele>
  <time>2026-09-02T22:07:58Z</time>
  <course>181.52</course>
  <speed>0.77</speed>
  <fix>3d</fix>
</trkpt>
<trkpt lat="33.8096111" lon="-118.3939669">
  <ele>-38.962</ele>
  <time>2026-09-02T22:07:58Z</time>
  <course>181.41</course>
  <speed>0.7505997601918082</speed>
  <fix>3d</fix>
</trkpt>
<trkpt lat="33.8096125" lon="-118.3939667">
  <ele>-37.89</ele>
  <time>2026-09-02T22:07:58Z</time>
  <course>181.52</course>
  <speed>0.77</speed>
  <fix>3d</fix>
</trkpt>
<trkpt lat="33.8096104" lon="-118.3939669">
  <ele>-39.005</ele>
  <time>2026-09-02T22:07:58Z</time>
  <course>181.41</course>
  <speed>0.7505997601918082</speed>
  <fix>3d</fix>
</trkpt>
<trkpt lat="33.8096111" lon="-118.3939668">
  <ele>-37.98</ele>
  <time>2026-09-02T22:07:58Z</time>
  <course>181.51</course>
  <speed>0.77</speed>
  <fix>3d</fix>
</trkpt>
<trkpt lat="33.8096097" lon="-118.3939669">
  <ele>-39.043</ele>
  <time>2026-09-02T22:07:58Z</time>
  <course>181.41</course>
  <speed>0.7505997601918082</speed>
  <fix>3d</fix>
</trkpt>
<trkpt lat="33.8096111" lon="-118.3939668">
  <ele>-37.98</ele>
  <time>2026-09-02T22:07:58Z</time>
  <course>181.51</course>
  <speed>0.77</speed>
  <fix>3d</fix>
</trkpt>
<trkpt lat="33.809609" lon="-118.393967">
  <ele>-39.078</ele>
  <time>2026-09-02T22:07:58Z</time>
  <course>181.4</course>
  <speed>0.7505997601918082</speed>
  <fix>3d</fix>
</trkpt>
<trkpt lat="33.8096097" lon="-118.3939668">
  <ele>-38.05</ele>
  <time>2026-09-02T22:07:58Z</time>
  <course>181.5</course>
  <speed>0.77</speed>
  <fix>3d</fix>
</trkpt>
<trkpt lat="33.8096083" lon="-118.393967">
  <ele>-39.11</ele>
  <time>2026-09-02T22:07:58Z</time>
  <course>181.4</course>
  <speed>0.7505997601918082</speed>
  <fix>3d</fix>
</trkpt>
<trkpt lat="33.8096097" lon="-118.3939668">
  <ele>-38.05</ele>
  <time>2026-09-02T22:07:58Z</time>
  <course>181.5</course>
  <speed>0.77</speed>
  <fix>3d</fix>
</trkpt>
<trkpt lat="33.8096076" lon="-118.393967">
  <ele>-39.141</ele>
  <time>2026-09-02T22:07:58Z</time>
  <course>181.4</course>
  <speed>0.7505997601918082</speed>
  <fix>3d</fix>
</trkpt>
<trkpt lat="33.8096084" lon="-118.3939669">
  <ele>-38.12</ele>
  <time>2026-09-02T22:07:58Z</time>
  <course>181.49</course>
  <speed>0.77</speed>
  <fix>3d</fix>
</trkpt>
<trkpt lat="33.809607" lon="-118.393967">
  <ele>-39.171</ele>
  <time>2026-09-02T22:07:58Z</time>
  <course>181.4</course>
  <speed>0.7505997601918082</speed>
  <fix>3d</fix>
</trkpt>
<trkpt lat="33.8096084" lon="-118.3939669">
  <ele>-38.12</ele>
  <time>2026-09-02T22:07:58Z</time>
  <course>181.49</course>
  <speed>0.77</speed>
  <fix>3d</fix>
</trkpt>
<trkpt lat="33.8096063" lon="-118.3939671">
  <ele>-39.202</ele>
  <time>2026-09-02T22:07:58Z</time>
  <course>181.4</course>
  <speed>0.7505997601918082</speed>
  <fix>3d</fix>
</trkpt>
<trkpt lat="33.809607" lon="-118.3939669">
  <ele>-38.19</ele>
  <time>2026-09-02T22:07:58Z</time>
  <course>181.49</course>
  <speed>0.77</speed>
  <fix>3d</fix>
</trkpt>
<trkpt lat="33.8096056" lon="-118.3939671">
  <ele>-39.233</ele>
  <time>2026-09-02T22:07:58Z</time>
  <course>181.4</course>
  <speed>0.7505997601918082</speed>
  <fix>3d</fix>
</trkpt>
<trkpt lat="33.809607" lon="-118.3939669">
  <ele>-38.19</ele>
  <time>2026-09-02T22:07:58Z</time>
  <course>181.49</course>
  <speed>0.77</speed>
  <fix>3d</fix>
</trkpt>
<trkpt lat="33.8096049" lon="-118.3939671">
  <ele>-39.263</ele>
  <time>2026-09-02T22:07:58Z</time>
  <course>181.4</course>
  <speed>0.7505997601918082</speed>
  <fix>3d</fix>
</trkpt>
<trkpt lat="33.8096056" lon="-118.393967">
  <ele>-38.25</ele>
  <time>2026-09-02T22:07:58Z</time>
  <course>181.48</course>
  <speed>0.77</speed>
  <fix>3d</fix>
</trkpt>
<trkpt lat="33.8096042" lon="-118.3939671">
  <ele>-39.292</ele>
  <time>2026-09-02T22:07:58Z</time>
  <course>181.4</course>
  <speed>0.7505997601918082</speed>
  <fix>3d</fix>
</trkpt>
<trkpt lat="33.8096056" lon="-118.393967">
  <ele>-38.25</ele>
  <time>2026-09-02T22:07:58Z</time>
  <course>181.48</course>
  <speed>0.77</speed>
  <fix>3d</fix>
</trkpt>
<trkpt lat="33.8096035" lon="-118.3939671">
  <ele>-39.32</ele>
  <time>2026-09-02T22:07:58Z</time>
  <course>181.4</course>
  <speed>0.7505997601918082</speed>
  <fix>3d</fix>
</trkpt>
<trkpt lat="33.8096041" lon="-118.393967">
  <ele>-38.3</ele>
  <time>2026-09-02T22:07:58Z</time>
  <course>181.47</course>
  <speed>0.77</speed>
  <fix>3d</fix>
</trkpt>
<trkpt lat="33.8096028" lon="-118.3939672">
  <ele>-39.349</ele>
  <time>2026-09-02T22:07:58Z</time>
  <course>181.39</course>
  <speed>0.7505997601918082</speed>
  <fix>3d</fix>
</trkpt>
<trkpt lat="33.8096041" lon="-118.393967">
  <ele>-38.3</ele>
  <time>2026-09-02T22:07:58Z</time>
  <course>181.47</course>
  <speed>0.77</speed>
  <fix>3d</fix>
</trkpt>
<trkpt lat="33.8096021" lon="-118.3939672">
  <ele>-39.378</ele>
  <time>2026-09-02T22:07:58Z</time>
  <course>181.39</course>
  <speed>0.7505997601918082</speed>
  <fix>3d</fix>
</trkpt>
<trkpt lat="33.8096028" lon="-118.393967">
  <ele>-38.37</ele>
  <time>2026-09-02T22:07:58Z</time>
  <course>181.47</course>
  <speed>0.77</speed>
  <fix>3d</fix>
</trkpt>
<trkpt lat="33.8096014" lon="-118.3939672">
  <ele>-39.406</ele>
  <time>2026-09-02T22:07:58Z</time>
  <course>181.39</course>
  <speed>0.7505997601918082</speed>
  <fix>3d</fix>
</trkpt>
<trkpt lat="33.8096028" lon="-118.393967">
  <ele>-38.37</ele>
  <time>2026-09-02T22:07:58Z</time>
  <course>181.47</course>
  <speed>0.77</speed>
  <fix>3d</fix>
</trkpt>
<trkpt lat="33.8096007" lon="-118.3939672">
  <ele>-39.433</ele>
  <time>2026-09-02T22:07:58Z</time>
  <course>181.39</course>
  <speed>0.7505997601918082</speed>
  <fix>3d</fix>
</trkpt>
<trkpt lat="33.8096014" lon="-118.3939671">
  <ele>-38.42</ele>
  <time>2026-09-02T22:07:58Z</time>
  <course>181.46</course>
  <speed>0.77</speed>
  <fix>3d</fix>
</trkpt>
<trkpt lat="33.8096001" lon="-118.3939673">
  <ele>-39.461</ele>
  <time>2026-09-02T22:07:59Z</time>
  <course>181.39</course>
  <speed>0.7505997601918082</speed>
  <fix>3d</fix>
</trkpt>
<trkpt lat="33.8096014" lon="-118.3939671">
  <ele>-38.42</ele>
  <time>2026-09-02T22:07:59Z</time>
  <course>181.46</course>
  <speed>0.77</speed>
  <fix>3d</fix>
</trkpt>
<trkpt lat="33.8095994" lon="-118.3939673">
  <ele>-39.49</ele>
  <time>2026-09-02T22:07:59Z</time>
  <course>181.39</course>
  <speed>0.7505997601918082</speed>
  <fix>3d</fix>
</trkpt>
<trkpt lat="33.8095999" lon="-118.3939671">
  <ele>-38.48</ele>
  <time>2026-09-02T22:07:59Z</time>
  <course>181.45</course>
  <speed>0.77</speed>
  <fix>3d</fix>
</trkpt>
<trkpt lat="33.8095987" lon="-118.3939673">
  <ele>-39.522</ele>
  <time>2026-09-02T22:07:59Z</time>
  <course>181.39</course>
  <speed>0.7505997601918082</speed>
  <fix>3d</fix>
</trkpt>
<trkpt lat="33.8095999" lon="-118.3939671">
  <ele>-38.48</ele>
  <time>2026-09-02T22:07:59Z</time>
  <course>181.45</course>
  <speed>0.77</speed>
  <fix>3d</fix>
</trkpt>
<trkpt lat="33.809598" lon="-118.3939673">
  <ele>-39.555</ele>
  <time>2026-09-02T22:07:59Z</time>
  <course>181.39</course>
  <speed>0.7505997601918082</speed>
  <fix>3d</fix>
</trkpt>
<trkpt lat="33.8095986" lon="-118.3939672">
  <ele>-38.54</ele>
  <time>2026-09-02T22:07:59Z</time>
  <course>181.45</course>
  <speed>0.77</speed>
  <fix>3d</fix>
</trkpt>
<trkpt lat="33.8095973" lon="-118.3939673">
  <ele>-39.589</ele>
  <time>2026-09-02T22:07:59Z</time>
  <course>181.39</course>
  <speed>0.7505997601918082</speed>
  <fix>3d</fix>
</trkpt>
<trkpt lat="33.8095986" lon="-118.3939672">
  <ele>-38.54</ele>
  <time>2026-09-02T22:07:59Z</time>
  <course>181.45</course>
  <speed>0.77</speed>
  <fix>3d</fix>
</trkpt>
<trkpt lat="33.8095966" lon="-118.3939674">
  <ele>-39.626</ele>
  <time>2026-09-02T22:07:59Z</time>
  <course>181.39</course>
  <speed>0.7505997601918082</speed>
  <fix>3d</fix>
</trkpt>
<trkpt lat="33.8095972" lon="-118.3939672">
  <ele>-38.6</ele>
  <time>2026-09-02T22:07:59Z</time>
  <course>181.45</course>
  <speed>0.77</speed>
  <fix>3d</fix>
</trkpt>
<trkpt lat="33.8095959" lon="-118.3939674">
  <ele>-39.666</ele>
  <time>2026-09-02T22:07:59Z</time>
  <course>181.39</course>
  <speed>0.7505997601918082</speed>
  <fix>3d</fix>
</trkpt>
<trkpt lat="33.8095972" lon="-118.3939672">
  <ele>-38.6</ele>
  <time>2026-09-02T22:07:59Z</time>
  <course>181.45</course>
  <speed>0.77</speed>
  <fix>3d</fix>
</trkpt>
<trkpt lat="33.8095952" lon="-118.3939674">
  <ele>-39.709</ele>
  <time>2026-09-02T22:07:59Z</time>
  <course>181.39</course>
  <speed>0.7505997601918082</speed>
  <fix>3d</fix>
</trkpt>
<trkpt lat="33.8095958" lon="-118.3939673">
  <ele>-38.67</ele>
  <time>2026-09-02T22:07:59Z</time>
  <course>181.45</course>
  <speed>0.77</speed>
  <fix>3d</fix>
</trkpt>
<trkpt lat="33.8095945" lon="-118.3939674">
  <ele>-39.755</ele>
  <time>2026-09-02T22:07:59Z</time>
  <course>181.38</course>
  <speed>0.7505997601918082</speed>
  <fix>3d</fix>
</trkpt>
<trkpt lat="33.8095958" lon="-118.3939673">
  <ele>-38.67</ele>
  <time>2026-09-02T22:07:59Z</time>
  <course>181.45</course>
  <speed>0.77</speed>
  <fix>3d</fix>
</trkpt>
<trkpt lat="33.8095938" lon="-118.3939674">
  <ele>-39.803</ele>
  <time>2026-09-02T22:07:59Z</time>
  <course>181.38</course>
  <speed>0.7505997601918082</speed>
  <fix>3d</fix>
</trkpt>
<trkpt lat="33.8095945" lon="-118.3939673">
  <ele>-38.75</ele>
  <time>2026-09-02T22:07:59Z</time>
  <course>181.45</course>
  <speed>0.77</speed>
  <fix>3d</fix>
</trkpt>
<trkpt lat="33.8095931" lon="-118.3939675">
  <ele>-39.852</ele>
  <time>2026-09-02T22:07:59Z</time>
  <course>181.38</course>
  <speed>0.7505997601918082</speed>
  <fix>3d</fix>
</trkpt>
<trkpt lat="33.8095945" lon="-118.3939673">
  <ele>-38.75</ele>
  <time>2026-09-02T22:07:59Z</time>
  <course>181.45</course>
  <speed>0.77</speed>
  <fix>3d</fix>
</trkpt>
<trkpt lat="33.8095924" lon="-118.3939675">
  <ele>-39.901</ele>
  <time>2026-09-02T22:07:59Z</time>
  <course>181.38</course>
  <speed>0.7505997601918082</speed>
  <fix>3d</fix>
</trkpt>
<trkpt lat="33.8095931" lon="-118.3939673">
  <ele>-38.85</ele>
  <time>2026-09-02T22:07:59Z</time>
  <course>181.44</course>
  <speed>0.77</speed>
  <fix>3d</fix>
</trkpt>
<trkpt lat="33.8095917" lon="-118.3939675">
  <ele>-39.95</ele>
  <time>2026-09-02T22:07:59Z</time>
  <course>181.38</course>
  <speed>0.7505997601918082</speed>
  <fix>3d</fix>
</trkpt>
<trkpt lat="33.8095931" lon="-118.3939673">
  <ele>-38.85</ele>
  <time>2026-09-02T22:07:59Z</time>
  <course>181.44</course>
  <speed>0.77</speed>
  <fix>3d</fix>
</trkpt>
<trkpt lat="33.809591" lon="-118.3939675">
  <ele>-39.998</ele>
  <time>2026-09-02T22:07:59Z</time>
  <course>181.38</course>
  <speed>0.7505997601918082</speed>
  <fix>3d</fix>
</trkpt>
<trkpt lat="33.8095917" lon="-118.3939674">
  <ele>-38.94</ele>
  <time>2026-09-02T22:07:59Z</time>
  <course>181.44</course>
  <speed>0.77</speed>
  <fix>3d</fix>
</trkpt>
<trkpt lat="33.8095903" lon="-118.3939676">
  <ele>-40.048</ele>
  <time>2026-09-02T22:07:59Z</time>
  <course>181.38</course>
  <speed>0.7505997601918082</speed>
  <fix>3d</fix>
</trkpt>
<trkpt lat="33.8095917" lon="-118.3939674">
  <ele>-38.94</ele>
  <time>2026-09-02T22:07:59Z</time>
  <course>181.44</course>
  <speed>0.77</speed>
  <fix>3d</fix>
</trkpt>
<trkpt lat="33.8095896" lon="-118.3939676">
  <ele>-40.097</ele>
  <time>2026-09-02T22:07:59Z</time>
  <course>181.38</course>
  <speed>0.7505997601918082</speed>
  <fix>3d</fix>
</trkpt>
<trkpt lat="33.8095902" lon="-118.3939674">
  <ele>-39.03</ele>
  <time>2026-09-02T22:07:59Z</time>
  <course>181.43</course>
  <speed>0.77</speed>
  <fix>3d</fix>
</trkpt>
<trkpt lat="33.8095889" lon="-118.3939676">
  <ele>-40.146</ele>
  <time>2026-09-02T22:07:59Z</time>
  <course>181.38</course>
  <speed>0.7505997601918082</speed>
  <fix>3d</fix>
</trkpt>
<trkpt lat="33.8095902" lon="-118.3939674">
  <ele>-39.03</ele>
  <time>2026-09-02T22:07:59Z</time>
  <course>181.43</course>
  <speed>0.77</speed>
  <fix>3d</fix>
</trkpt>
<trkpt lat="33.8095883" lon="-118.3939676">
  <ele>-40.194</ele>
  <time>2026-09-02T22:07:59Z</time>
  <course>181.38</course>
  <speed>0.7505997601918082</speed>
  <fix>3d</fix>
</trkpt>
<trkpt lat="33.8095888" lon="-118.3939674">
  <ele>-39.13</ele>
  <time>2026-09-02T22:07:59Z</time>
  <course>181.43</course>
  <speed>0.77</speed>
  <fix>3d</fix>
</trkpt>
<trkpt lat="33.8095876" lon="-118.3939676">
  <ele>-40.24</ele>
  <time>2026-09-02T22:07:59Z</time>
  <course>181.38</course>
  <speed>0.7505997601918082</speed>
  <fix>3d</fix>
</trkpt>
<trkpt lat="33.8095888" lon="-118.3939674">
  <ele>-39.13</ele>
  <time>2026-09-02T22:07:59Z</time>
  <course>181.43</course>
  <speed>0.77</speed>
  <fix>3d</fix>
</trkpt>
<trkpt lat="33.8095869" lon="-118.3939676">
  <ele>-40.284</ele>
  <time>2026-09-02T22:07:59Z</time>
  <course>181.38</course>
  <speed>0.7505997601918082</speed>
  <fix>3d</fix>
</trkpt>
<trkpt lat="33.8095875" lon="-118.3939674">
  <ele>-39.22</ele>
  <time>2026-09-02T22:07:59Z</time>
  <course>181.42</course>
  <speed>0.77</speed>
  <fix>3d</fix>
</trkpt>
<trkpt lat="33.8095862" lon="-118.3939677">
  <ele>-40.327</ele>
  <time>2026-09-02T22:07:59Z</time>
  <course>181.37</course>
  <speed>0.7505997601918082</speed>
  <fix>3d</fix>
</trkpt>
<trkpt lat="33.8095875" lon="-118.3939674">
  <ele>-39.22</ele>
  <time>2026-09-02T22:07:59Z</time>
  <course>181.42</course>
  <speed>0.77</speed>
  <fix>3d</fix>
</trkpt>
<trkpt lat="33.8095855" lon="-118.3939677">
  <ele>-40.366</ele>
  <time>2026-09-02T22:07:59Z</time>
  <course>181.37</course>
  <speed>0.7505997601918082</speed>
  <fix>3d</fix>
</trkpt>
<trkpt lat="33.8095861" lon="-118.3939675">
  <ele>-39.3</ele>
  <time>2026-09-02T22:07:59Z</time>
  <course>181.41</course>
  <speed>0.77</speed>
  <fix>3d</fix>
</trkpt>
<trkpt lat="33.8095848" lon="-118.3939677">
  <ele>-40.405</ele>
  <time>2026-09-02T22:07:59Z</time>
  <course>181.37</course>
  <speed>0.7505997601918082</speed>
  <fix>3d</fix>
</trkpt>
<trkpt lat="33.8095861" lon="-118.3939675">
  <ele>-39.3</ele>
  <time>2026-09-02T22:07:59Z</time>
  <course>181.41</course>
  <speed>0.77</speed>
  <fix>3d</fix>
</trkpt>
<trkpt lat="33.8095841" lon="-118.3939677">
  <ele>-40.444</ele>
  <time>2026-09-02T22:07:59Z</time>
  <course>181.37</course>
  <speed>0.7505997601918082</speed>
  <fix>3d</fix>
</trkpt>
<trkpt lat="33.8095847" lon="-118.3939676">
  <ele>-39.39</ele>
  <time>2026-09-02T22:07:59Z</time>
  <course>181.41</course>
  <speed>0.77</speed>
  <fix>3d</fix>
</trkpt>
<trkpt lat="33.8095834" lon="-118.3939677">
  <ele>-40.482</ele>
  <time>2026-09-02T22:07:59Z</time>
  <course>181.37</course>
  <speed>0.7505997601918082</speed>
  <fix>3d</fix>
</trkpt>
<trkpt lat="33.8095847" lon="-118.3939676">
  <ele>-39.39</ele>
  <time>2026-09-02T22:07:59Z</time>
  <course>181.41</course>
  <speed>0.77</speed>
  <fix>3d</fix>
</trkpt>
<trkpt lat="33.8095827" lon="-118.3939677">
  <ele>-40.518</ele>
  <time>2026-09-02T22:07:59Z</time>
  <course>181.37</course>
  <speed>0.7505997601918082</speed>
  <fix>3d</fix>
</trkpt>
<trkpt lat="33.8095833" lon="-118.3939676">
  <ele>-39.46</ele>
  <time>2026-09-02T22:07:59Z</time>
  <course>181.4</course>
  <speed>0.77</speed>
  <fix>3d</fix>
</trkpt>
<trkpt lat="33.809582" lon="-118.3939678">
  <ele>-40.553</ele>
  <time>2026-09-02T22:07:59Z</time>
  <course>181.37</course>
  <speed>0.7505997601918082</speed>
  <fix>3d</fix>
</trkpt>
<trkpt lat="33.8095833" lon="-118.3939676">
  <ele>-39.46</ele>
  <time>2026-09-02T22:07:59Z</time>
  <course>181.4</course>
  <speed>0.77</speed>
  <fix>3d</fix>
</trkpt>
<trkpt lat="33.8095813" lon="-118.3939678">
  <ele>-40.587</ele>
  <time>2026-09-02T22:07:59Z</time>
  <course>181.37</course>
  <speed>0.7505997601918082</speed>
  <fix>3d</fix>
</trkpt>
<trkpt lat="33.8095819" lon="-118.3939677">
  <ele>-39.53</ele>
  <time>2026-09-02T22:07:59Z</time>
  <course>181.39</course>
  <speed>0.77</speed>
  <fix>3d</fix>
</trkpt>
<trkpt lat="33.8095806" lon="-118.3939678">
  <ele>-40.622</ele>
  <time>2026-09-02T22:07:59Z</time>
  <course>181.37</course>
  <speed>0.7505997601918082</speed>
  <fix>3d</fix>
</trkpt>
<trkpt lat="33.8095819" lon="-118.3939677">
  <ele>-39.53</ele>
  <time>2026-09-02T22:07:59Z</time>
  <course>181.39</course>
  <speed>0.77</speed>
  <fix>3d</fix>
</trkpt>
<trkpt lat="33.8095799" lon="-118.3939678">
  <ele>-40.657</ele>
  <time>2026-09-02T22:07:59Z</time>
  <course>181.37</course>
  <speed>0.7505997601918082</speed>
  <fix>3d</fix>
</trkpt>
<trkpt lat="33.8095805" lon="-118.3939677">
  <ele>-39.6</ele>
  <time>2026-09-02T22:07:59Z</time>
  <course>181.39</course>
  <speed>0.77</speed>
  <fix>3d</fix>
</trkpt>
<trkpt lat="33.8095792" lon="-118.3939679">
  <ele>-40.69</ele>
  <time>2026-09-02T22:07:59Z</time>
  <course>181.37</course>
  <speed>0.7505997601918082</speed>
  <fix>3d</fix>
</trkpt>
<trkpt lat="33.8095805" lon="-118.3939677">
  <ele>-39.6</ele>
  <time>2026-09-02T22:07:59Z</time>
  <course>181.39</course>
  <speed>0.77</speed>
  <fix>3d</fix>
</trkpt>
<trkpt lat="33.8095785" lon="-118.3939679">
  <ele>-40.724</ele>
  <time>2026-09-02T22:07:59Z</time>
  <course>181.37</course>
  <speed>0.7505997601918082</speed>
  <fix>3d</fix>
</trkpt>
<trkpt lat="33.8095792" lon="-118.3939678">
  <ele>-39.67</ele>
  <time>2026-09-02T22:07:59Z</time>
  <course>181.38</course>
  <speed>0.77</speed>
  <fix>3d</fix>
</trkpt>
<trkpt lat="33.8095778" lon="-118.3939679">
  <ele>-40.758</ele>
  <time>2026-09-02T22:07:59Z</time>
  <course>181.37</course>
  <speed>0.7505997601918082</speed>
  <fix>3d</fix>
</trkpt>
<trkpt lat="33.8095792" lon="-118.3939678">
  <ele>-39.67</ele>
  <time>2026-09-02T22:07:59Z</time>
  <course>181.38</course>
  <speed>0.77</speed>
  <fix>3d</fix>
</trkpt>
<trkpt lat="33.8095771" lon="-118.3939679">
  <ele>-40.791</ele>
  <time>2026-09-02T22:07:59Z</time>
  <course>181.36</course>
  <speed>0.7505997601918082</speed>
  <fix>3d</fix>
</trkpt>
<trkpt lat="33.8095778" lon="-118.3939678">
  <ele>-39.73</ele>
  <time>2026-09-02T22:07:59Z</time>
  <course>181.38</course>
  <speed>0.77</speed>
  <fix>3d</fix>
</trkpt>
<trkpt lat="33.8095764" lon="-118.3939679">
  <ele>-40.824</ele>
  <time>2026-09-02T22:07:59Z</time>
  <course>181.37</course>
  <speed>0.7505997601918082</speed>
  <fix>3d</fix>
</trkpt>
<trkpt lat="33.8095778" lon="-118.3939678">
  <ele>-39.73</ele>
  <time>2026-09-02T22:07:59Z</time>
  <course>181.38</course>
  <speed>0.77</speed>
  <fix>3d</fix>
</trkpt>
<trkpt lat="33.8095757" lon="-118.393968">
  <ele>-40.857</ele>
  <time>2026-09-02T22:07:59Z</time>
  <course>181.37</course>
  <speed>0.7505997601918082</speed>
  <fix>3d</fix>
</trkpt>
<trkpt lat="33.8095764" lon="-118.3939678">
  <ele>-39.8</ele>
  <time>2026-09-02T22:07:59Z</time>
  <course>181.37</course>
  <speed>0.77</speed>
  <fix>3d</fix>
</trkpt>
<trkpt lat="33.809575" lon="-118.393968">
  <ele>-40.889</ele>
  <time>2026-09-02T22:07:59Z</time>
  <course>181.36</course>
  <speed>0.7505997601918082</speed>
  <fix>3d</fix>
</trkpt>
<trkpt lat="33.8095764" lon="-118.3939678">
  <ele>-39.8</ele>
  <time>2026-09-02T22:07:59Z</time>
  <course>181.37</course>
  <speed>0.77</speed>
  <fix>3d</fix>
</trkpt>
<trkpt lat="33.8095743" lon="-118.393968">
  <ele>-40.921</ele>
  <time>2026-09-02T22:07:59Z</time>
  <course>181.36</course>
  <speed>0.7505997601918082</speed>
  <fix>3d</fix>
</trkpt>
<trkpt lat="33.8095749" lon="-118.3939679">
  <ele>-39.86</ele>
  <time>2026-09-02T22:07:59Z</time>
  <course>181.37</course>
  <speed>0.77</speed>
  <fix>3d</fix>
</trkpt>
<trkpt lat="33.8095736" lon="-118.393968">
  <ele>-40.951</ele>
  <time>2026-09-02T22:07:59Z</time>
  <course>181.36</course>
  <speed>0.7505997601918082</speed>
  <fix>3d</fix>
</trkpt>
<trkpt lat="33.8095749" lon="-118.3939679">
  <ele>-39.86</ele>
  <time>2026-09-02T22:07:59Z</time>
  <course>181.37</course>
  <speed>0.77</speed>
  <fix>3d</fix>
</trkpt>
<trkpt lat="33.8095729" lon="-118.393968">
  <ele>-40.98</ele>
  <time>2026-09-02T22:07:59Z</time>
  <course>181.36</course>
  <speed>0.7505997601918082</speed>
  <fix>3d</fix>
</trkpt>
<trkpt lat="33.8095736" lon="-118.3939679">
  <ele>-39.93</ele>
  <time>2026-09-02T22:07:59Z</time>
  <course>181.36</course>
  <speed>0.77</speed>
  <fix>3d</fix>
</trkpt>
<trkpt lat="33.8095722" lon="-118.3939681">
  <ele>-41.013</ele>
  <time>2026-09-02T22:07:59Z</time>
  <course>181.36</course>
  <speed>0.7505997601918082</speed>
  <fix>3d</fix>
</trkpt>
<trkpt lat="33.8095736" lon="-118.3939679">
  <ele>-39.93</ele>
  <time>2026-09-02T22:07:59Z</time>
  <course>181.36</course>
  <speed>0.77</speed>
  <fix>3d</fix>
</trkpt>
<trkpt lat="33.8095716" lon="-118.3939681">
  <ele>-41.048</ele>
  <time>2026-09-02T22:07:59Z</time>
  <course>181.36</course>
  <speed>0.7505997601918082</speed>
  <fix>3d</fix>
</trkpt>
<trkpt lat="33.8095722" lon="-118.393968">
  <ele>-39.98</ele>
  <time>2026-09-02T22:07:59Z</time>
  <course>181.36</course>
  <speed>0.77</speed>
  <fix>3d</fix>
</trkpt>
<trkpt lat="33.8095709" lon="-118.3939681">
  <ele>-41.085</ele>
  <time>2026-09-02T22:07:59Z</time>
  <course>181.36</course>
  <speed>0.7505997601918082</speed>
  <fix>3d</fix>
</trkpt>
<trkpt lat="33.8095722" lon="-118.393968">
  <ele>-39.98</ele>
  <time>2026-09-02T22:07:59Z</time>
  <course>181.36</course>
  <speed>0.77</speed>
  <fix>3d</fix>
</trkpt>
<trkpt lat="33.8095702" lon="-118.3939681">
  <ele>-41.123</ele>
  <time>2026-09-02T22:07:59Z</time>
  <course>181.36</course>
  <speed>0.7505997601918082</speed>
  <fix>3d</fix>
</trkpt>
<trkpt lat="33.8095708" lon="-118.393968">
  <ele>-40.05</ele>
  <time>2026-09-02T22:07:59Z</time>
  <course>181.36</course>
  <speed>0.77</speed>
  <fix>3d</fix>
</trkpt>
<trkpt lat="33.8095695" lon="-118.3939682">
  <ele>-41.163</ele>
  <time>2026-09-02T22:07:59Z</time>
  <course>181.36</course>
  <speed>0.7505997601918082</speed>
  <fix>3d</fix>
</trkpt>
<trkpt lat="33.8095708" lon="-118.393968">
  <ele>-40.05</ele>
  <time>2026-09-02T22:07:59Z</time>
  <course>181.36</course>
  <speed>0.77</speed>
  <fix>3d</fix>
</trkpt>
<trkpt lat="33.8095688" lon="-118.3939682">
  <ele>-41.202</ele>
  <time>2026-09-02T22:07:59Z</time>
  <course>181.36</course>
  <speed>0.7505997601918082</speed>
  <fix>3d</fix>
</trkpt>
<trkpt lat="33.8095694" lon="-118.393968">
  <ele>-40.12</ele>
  <time>2026-09-02T22:07:59Z</time>
  <course>181.36</course>
  <speed>0.77</speed>
  <fix>3d</fix>
</trkpt>
<trkpt lat="33.8095681" lon="-118.3939682">
  <ele>-41.241</ele>
  <time>2026-09-02T22:07:59Z</time>
  <course>181.36</course>
  <speed>0.7505997601918082</speed>
  <fix>3d</fix>
</trkpt>
<trkpt lat="33.8095694" lon="-118.393968">
  <ele>-40.12</ele>
  <time>2026-09-02T22:07:59Z</time>
  <course>181.36</course>
  <speed>0.77</speed>
  <fix>3d</fix>
</trkpt>
<trkpt lat="33.8095674" lon="-118.3939682">
  <ele>-41.277</ele>
  <time>2026-09-02T22:07:59Z</time>
  <course>181.36</course>
  <speed>0.7505997601918082</speed>
  <fix>3d</fix>
</trkpt>
<trkpt lat="33.809568" lon="-118.3939681">
  <ele>-40.2</ele>
  <time>2026-09-02T22:07:59Z</time>
  <course>181.35</course>
  <speed>0.77</speed>
  <fix>3d</fix>
</trkpt>
<trkpt lat="33.8095667" lon="-118.3939682">
  <ele>-41.313</ele>
  <time>2026-09-02T22:07:59Z</time>
  <course>181.36</course>
  <speed>0.7505997601918082</speed>
  <fix>3d</fix>
</trkpt>
<trkpt lat="33.809568" lon="-118.3939681">
  <ele>-40.2</ele>
  <time>2026-09-02T22:07:59Z</time>
  <course>181.35</course>
  <speed>0.77</speed>
  <fix>3d</fix>
</trkpt>
<trkpt lat="33.809566" lon="-118.3939683">
  <ele>-41.35</ele>
  <time>2026-09-02T22:07:59Z</time>
  <course>181.36</course>
  <speed>0.7505997601918082</speed>
  <fix>3d</fix>
</trkpt>
<trkpt lat="33.8095665" lon="-118.3939681">
  <ele>-40.28</ele>
  <time>2026-09-02T22:07:59Z</time>
  <course>181.35</course>
  <speed>0.77</speed>
  <fix>3d</fix>
</trkpt>
<trkpt lat="33.8095653" lon="-118.3939683">
  <ele>-41.389</ele>
  <time>2026-09-02T22:07:59Z</time>
  <course>181.36</course>
  <speed>0.7505997601918082</speed>
  <fix>3d</fix>
</trkpt>
<trkpt lat="33.8095665" lon="-118.3939681">
  <ele>-40.28</ele>
  <time>2026-09-02T22:07:59Z</time>
  <course>181.35</course>
  <speed>0.77</speed>
  <fix>3d</fix>
</trkpt>
<trkpt lat="33.8095646" lon="-118.3939683">
  <ele>-41.427</ele>
  <time>2026-09-02T22:07:59Z</time>
  <course>181.36</course>
  <speed>0.7505997601918082</speed>
  <fix>3d</fix>
</trkpt>
<trkpt lat="33.8095652" lon="-118.3939682">
  <ele>-40.35</ele>
  <time>2026-09-02T22:07:59Z</time>
  <course>181.35</course>
  <speed>0.77</speed>
  <fix>3d</fix>
</trkpt>
<trkpt lat="33.8095639" lon="-118.3939683">
  <ele>-41.465</ele>
  <time>2026-09-02T22:07:59Z</time>
  <course>181.36</course>
  <speed>0.7505997601918082</speed>
  <fix>3d</fix>
</trkpt>
<trkpt lat="33.8095652" lon="-118.3939682">
  <ele>-40.35</ele>
  <time>2026-09-02T22:07:59Z</time>
  <course>181.35</course>
  <speed>0.77</speed>
  <fix>3d</fix>
</trkpt>
<trkpt lat="33.8095632" lon="-118.3939683">
  <ele>-41.504</ele>
  <time>2026-09-02T22:07:59Z</time>
  <course>181.35</course>
  <speed>0.7505997601918082</speed>
  <fix>3d</fix>
</trkpt>
<trkpt lat="33.8095639" lon="-118.3939682">
  <ele>-40.43</ele>
  <time>2026-09-02T22:07:59Z</time>
  <course>181.34</course>
  <speed>0.77</speed>
  <fix>3d</fix>
</trkpt>
<trkpt lat="33.8095625" lon="-118.3939684">
  <ele>-41.545</ele>
  <time>2026-09-02T22:07:59Z</time>
  <course>181.35</course>
  <speed>0.7505997601918082</speed>
  <fix>3d</fix>
</trkpt>
<trkpt lat="33.8095639" lon="-118.3939682">
  <ele>-40.43</ele>
  <time>2026-09-02T22:07:59Z</time>
  <course>181.34</course>
  <speed>0.77</speed>
  <fix>3d</fix>
</trkpt>
<trkpt lat="33.8095618" lon="-118.3939684">
  <ele>-41.588</ele>
  <time>2026-09-02T22:07:59Z</time>
  <course>181.35</course>
  <speed>0.7505997601918082</speed>
  <fix>3d</fix>
</trkpt>
<trkpt lat="33.8095625" lon="-118.3939682">
  <ele>-40.51</ele>
  <time>2026-09-02T22:07:59Z</time>
  <course>181.34</course>
  <speed>0.77</speed>
  <fix>3d</fix>
</trkpt>
<trkpt lat="33.8095611" lon="-118.3939684">
  <ele>-41.634</ele>
  <time>2026-09-02T22:07:59Z</time>
  <course>181.35</course>
  <speed>0.7505997601918082</speed>
  <fix>3d</fix>
</trkpt>
<trkpt lat="33.8095625" lon="-118.3939682">
  <ele>-40.51</ele>
  <time>2026-09-02T22:07:59Z</time>
  <course>181.34</course>
  <speed>0.77</speed>
  <fix>3d</fix>
</trkpt>
<trkpt lat="33.8095604" lon="-118.3939684">
  <ele>-41.682</ele>
  <time>2026-09-02T22:07:59Z</time>
  <course>181.35</course>
  <speed>0.7505997601918082</speed>
  <fix>3d</fix>
</trkpt>
<trkpt lat="33.809561" lon="-118.3939683">
  <ele>-40.59</ele>
  <time>2026-09-02T22:07:59Z</time>
  <course>181.34</course>
  <speed>0.77</speed>
  <fix>3d</fix>
</trkpt>
<trkpt lat="33.8095597" lon="-118.3939684">
  <ele>-41.733</ele>
  <time>2026-09-02T22:07:59Z</time>
  <course>181.35</course>
  <speed>0.7505997601918082</speed>
  <fix>3d</fix>
</trkpt>
<trkpt lat="33.809561" lon="-118.3939683">
  <ele>-40.59</ele>
  <time>2026-09-02T22:07:59Z</time>
  <course>181.34</course>
  <speed>0.77</speed>
  <fix>3d</fix>
</trkpt>
<trkpt lat="33.809559" lon="-118.3939685">
  <ele>-41.784</ele>
  <time>2026-09-02T22:07:59Z</time>
  <course>181.35</course>
  <speed>0.7505997601918082</speed>
  <fix>3d</fix>
</trkpt>
<trkpt lat="33.8095596" lon="-118.3939683">
  <ele>-40.69</ele>
  <time>2026-09-02T22:07:59Z</time>
  <course>181.34</course>
  <speed>0.77</speed>
  <fix>3d</fix>
</trkpt>
<trkpt lat="33.8095583" lon="-118.3939685">
  <ele>-41.835</ele>
  <time>2026-09-02T22:07:59Z</time>
  <course>181.35</course>
  <speed>0.7505997601918082</speed>
  <fix>3d</fix>
</trkpt>
<trkpt lat="33.8095596" lon="-118.3939683">
  <ele>-40.69</ele>
  <time>2026-09-02T22:07:59Z</time>
  <course>181.34</course>
  <speed>0.77</speed>
  <fix>3d</fix>
</trkpt>
<trkpt lat="33.8095576" lon="-118.3939685">
  <ele>-41.886</ele>
  <time>2026-09-02T22:07:59Z</time>
  <course>181.35</course>
  <speed>0.7505997601918082</speed>
  <fix>3d</fix>
</trkpt>
<trkpt lat="33.8095583" lon="-118.3939683">
  <ele>-40.78</ele>
  <time>2026-09-02T22:07:59Z</time>
  <course>181.34</course>
  <speed>0.77</speed>
  <fix>3d</fix>
</trkpt>
<trkpt lat="33.8095569" lon="-118.3939685">
  <ele>-41.936</ele>
  <time>2026-09-02T22:07:59Z</time>
  <course>181.35</course>
  <speed>0.7505997601918082</speed>
  <fix>3d</fix>
</trkpt>
<trkpt lat="33.8095583" lon="-118.3939683">
  <ele>-40.78</ele>
  <time>2026-09-02T22:07:59Z</time>
  <course>181.34</course>
  <speed>0.77</speed>
  <fix>3d</fix>
</trkpt>
<trkpt lat="33.8095562" lon="-118.3939685">
  <ele>-41.985</ele>
  <time>2026-09-02T22:07:59Z</time>
  <course>181.35</course>
  <speed>0.7505997601918082</speed>
  <fix>3d</fix>
</trkpt>
<trkpt lat="33.8095568" lon="-118.3939684">
  <ele>-40.88</ele>
  <time>2026-09-02T22:07:59Z</time>
  <course>181.33</course>
  <speed>0.77</speed>
  <fix>3d</fix>
</trkpt>
<trkpt lat="33.8095555" lon="-118.3939686">
  <ele>-42.033</ele>
  <time>2026-09-02T22:07:59Z</time>
  <course>181.35</course>
  <speed>0.7505997601918082</speed>
  <fix>3d</fix>
</trkpt>
<trkpt lat="33.8095568" lon="-118.3939684">
  <ele>-40.88</ele>
  <time>2026-09-02T22:07:59Z</time>
  <course>181.33</course>
  <speed>0.77</speed>
  <fix>3d</fix>
</trkpt>
<trkpt lat="33.8095548" lon="-118.3939686">
  <ele>-42.08</ele>
  <time>2026-09-02T22:07:59Z</time>
  <course>181.35</course>
  <speed>0.7505997601918082</speed>
  <fix>3d</fix>
</trkpt>
<trkpt lat="33.8095555" lon="-118.3939684">
  <ele>-40.97</ele>
  <time>2026-09-02T22:07:59Z</time>
  <course>181.33</course>
  <speed>0.77</speed>
  <fix>3d</fix>
</trkpt>
<trkpt lat="33.8095541" lon="-118.3939686">
  <ele>-42.127</ele>
  <time>2026-09-02T22:07:59Z</time>
  <course>181.35</course>
  <speed>0.7505997601918082</speed>
  <fix>3d</fix>
</trkpt>
<trkpt lat="33.8095555" lon="-118.3939684">
  <ele>-40.97</ele>
  <time>2026-09-02T22:07:59Z</time>
  <course>181.33</course>
  <speed>0.77</speed>
  <fix>3d</fix>
</trkpt>
<trkpt lat="33.8095534" lon="-118.3939686">
  <ele>-42.171</ele>
  <time>2026-09-02T22:07:59Z</time>
  <course>181.35</course>
  <speed>0.7505997601918082</speed>
  <fix>3d</fix>
</trkpt>
<trkpt lat="33.8095541" lon="-118.3939685">
  <ele>-41.06</ele>
  <time>2026-09-02T22:07:59Z</time>
  <course>181.32</course>
  <speed>0.77</speed>
  <fix>3d</fix>
</trkpt>
<trkpt lat="33.8095527" lon="-118.3939686">
  <ele>-42.213</ele>
  <time>2026-09-02T22:07:59Z</time>
  <course>181.35</course>
  <speed>0.7505997601918082</speed>
  <fix>3d</fix>
</trkpt>
<trkpt lat="33.8095541" lon="-118.3939685">
  <ele>-41.06</ele>
  <time>2026-09-02T22:07:59Z</time>
  <course>181.32</course>
  <speed>0.77</speed>
  <fix>3d</fix>
</trkpt>
<trkpt lat="33.809552" lon="-118.3939686">
  <ele>-42.252</ele>
  <time>2026-09-02T22:07:59Z</time>
  <course>181.35</course>
  <speed>0.7505997601918082</speed>
  <fix>3d</fix>
</trkpt>
<trkpt lat="33.8095527" lon="-118.3939685">
  <ele>-41.15</ele>
  <time>2026-09-02T22:07:59Z</time>
  <course>181.31</course>
  <speed>0.77</speed>
  <fix>3d</fix>
</trkpt>
<trkpt lat="33.8095513" lon="-118.3939687">
  <ele>-42.288</ele>
  <time>2026-09-02T22:07:59Z</time>
  <course>181.35</course>
  <speed>0.7505997601918082</speed>
  <fix>3d</fix>
</trkpt>
<trkpt lat="33.8095527" lon="-118.3939685">
  <ele>-41.15</ele>
  <time>2026-09-02T22:07:59Z</time>
  <course>181.31</course>
  <speed>0.77</speed>
  <fix>3d</fix>
</trkpt>
<trkpt lat="33.8095506" lon="-118.3939687">
  <ele>-42.322</ele>
  <time>2026-09-02T22:07:59Z</time>
  <course>181.35</course>
  <speed>0.7505997601918082</speed>
  <fix>3d</fix>
</trkpt>
<trkpt lat="33.8095512" lon="-118.3939685">
  <ele>-41.22</ele>
  <time>2026-09-02T22:07:59Z</time>
  <course>181.31</course>
  <speed>0.77</speed>
  <fix>3d</fix>
</trkpt>
<trkpt lat="33.8095499" lon="-118.3939687">
  <ele>-42.355</ele>
  <time>2026-09-02T22:07:59Z</time>
  <course>181.34</course>
  <speed>0.7505997601918082</speed>
  <fix>3d</fix>
</trkpt>
<trkpt lat="33.8095512" lon="-118.3939685">
  <ele>-41.22</ele>
  <time>2026-09-02T22:07:59Z</time>
  <course>181.31</course>
  <speed>0.77</speed>
  <fix>3d</fix>
</trkpt>
<trkpt lat="33.8095492" lon="-118.3939687">
  <ele>-42.386</ele>
  <time>2026-09-02T22:07:59Z</time>
  <course>181.35</course>
  <speed>0.7505997601918082</speed>
  <fix>3d</fix>
</trkpt>
<trkpt lat="33.8095499" lon="-118.3939686">
  <ele>-41.29</ele>
  <time>2026-09-02T22:07:59Z</time>
  <course>181.3</course>
  <speed>0.77</speed>
  <fix>3d</fix>
</trkpt>
<trkpt lat="33.8095485" lon="-118.3939687">
  <ele>-42.415</ele>
  <time>2026-09-02T22:07:59Z</time>
  <course>181.35</course>
  <speed>0.7505997601918082</speed>
  <fix>3d</fix>
</trkpt>
<trkpt lat="33.8095499" lon="-118.3939686">
  <ele>-41.29</ele>
  <time>2026-09-02T22:07:59Z</time>
  <course>181.3</course>
  <speed>0.77</speed>
  <fix>3d</fix>
</trkpt>
<trkpt lat="33.8095478" lon="-118.3939688">
  <ele>-42.443</ele>
  <time>2026-09-02T22:07:59Z</time>
  <course>181.35</course>
  <speed>0.7505997601918082</speed>
  <fix>3d</fix>
</trkpt>
<trkpt lat="33.8095486" lon="-118.3939686">
  <ele>-41.36</ele>
  <time>2026-09-02T22:07:59Z</time>
  <course>181.3</course>
  <speed>0.77</speed>
  <fix>3d</fix>
</trkpt>
<trkpt lat="33.8095471" lon="-118.3939688">
  <ele>-42.47</ele>
  <time>2026-09-02T22:07:59Z</time>
  <course>181.34</course>
  <speed>0.7505997601918082</speed>
  <fix>3d</fix>
</trkpt>
<trkpt lat="33.8095486" lon="-118.3939686">
  <ele>-41.36</ele>
  <time>2026-09-02T22:07:59Z</time>
  <course>181.3</course>
  <speed>0.77</speed>
  <fix>3d</fix>
</trkpt>
<trkpt lat="33.8095464" lon="-118.3939688">
  <ele>-42.5</ele>
  <time>2026-09-02T22:07:59Z</time>
  <course>181.34</course>
  <speed>0.7505997601918082</speed>
  <fix>3d</fix>
</trkpt>
<trkpt lat="33.8095472" lon="-118.3939686">
  <ele>-41.42</ele>
  <time>2026-09-02T22:07:59Z</time>
  <course>181.29</course>
  <speed>0.77</speed>
  <fix>3d</fix>
</trkpt>
<trkpt lat="33.8095457" lon="-118.3939688">
  <ele>-42.53</ele>
  <time>2026-09-02T22:07:59Z</time>
  <course>181.34</course>
  <speed>0.7505997601918082</speed>
  <fix>3d</fix>
</trkpt>
<trkpt lat="33.8095472" lon="-118.3939686">
  <ele>-41.42</ele>
  <time>2026-09-02T22:07:59Z</time>
  <course>181.29</course>
  <speed>0.77</speed>
  <fix>3d</fix>
</trkpt>
<trkpt lat="33.809545" lon="-118.3939688">
  <ele>-42.562</ele>
  <time>2026-09-02T22:07:59Z</time>
  <course>181.34</course>
  <speed>0.7505997601918082</speed>
  <fix>3d</fix>
</trkpt>
<trkpt lat="33.8095457" lon="-118.3939686">
  <ele>-41.48</ele>
  <time>2026-09-02T22:07:59Z</time>
  <course>181.29</course>
  <speed>0.77</speed>
  <fix>3d</fix>
</trkpt>
<trkpt lat="33.8095444" lon="-118.3939688">
  <ele>-42.592</ele>
  <time>2026-09-02T22:07:59Z</time>
  <course>181.34</course>
  <speed>0.7505997601918082</speed>
  <fix>3d</fix>
</trkpt>
<trkpt lat="33.8095457" lon="-118.3939686">
  <ele>-41.48</ele>
  <time>2026-09-02T22:07:59Z</time>
  <course>181.29</course>
  <speed>0.77</speed>
  <fix>3d</fix>
</trkpt>
<trkpt lat="33.8095437" lon="-118.3939689">
  <ele>-42.625</ele>
  <time>2026-09-02T22:07:59Z</time>
  <course>181.34</course>
  <speed>0.7505997601918082</speed>
  <fix>3d</fix>
</trkpt>
<trkpt lat="33.8095444" lon="-118.3939687">
  <ele>-41.54</ele>
  <time>2026-09-02T22:07:59Z</time>
  <course>181.29</course>
  <speed>0.77</speed>
  <fix>3d</fix>
</trkpt>
<trkpt lat="33.809543" lon="-118.3939689">
  <ele>-42.658</ele>
  <time>2026-09-02T22:07:59Z</time>
  <course>181.34</course>
  <speed>0.7505997601918082</speed>
  <fix>3d</fix>
</trkpt>
<trkpt lat="33.8095444" lon="-118.3939687">
  <ele>-41.54</ele>
  <time>2026-09-02T22:07:59Z</time>
  <course>181.29</course>
  <speed>0.77</speed>
  <fix>3d</fix>
</trkpt>
<trkpt lat="33.8095423" lon="-118.3939689">
  <ele>-42.691</ele>
  <time>2026-09-02T22:07:59Z</time>
  <course>181.34</course>
  <speed>0.7505997601918082</speed>
  <fix>3d</fix>
</trkpt>
<trkpt lat="33.809543" lon="-118.3939688">
  <ele>-41.6</ele>
  <time>2026-09-02T22:07:59Z</time>
  <course>181.28</course>
  <speed>0.77</speed>
  <fix>3d</fix>
</trkpt>
<trkpt lat="33.8095416" lon="-118.3939689">
  <ele>-42.724</ele>
  <time>2026-09-02T22:07:59Z</time>
  <course>181.34</course>
  <speed>0.7505997601918082</speed>
  <fix>3d</fix>
</trkpt>
<trkpt lat="33.809543" lon="-118.3939688">
  <ele>-41.6</ele>
  <time>2026-09-02T22:07:59Z</time>
  <course>181.28</course>
  <speed>0.77</speed>
  <fix>3d</fix>
</trkpt>
<trkpt lat="33.8095409" lon="-118.3939689">
  <ele>-42.757</ele>
  <time>2026-09-02T22:07:59Z</time>
  <course>181.34</course>
  <speed>0.7505997601918082</speed>
  <fix>3d</fix>
</trkpt>
<trkpt lat="33.8095416" lon="-118.3939688">
  <ele>-41.66</ele>
  <time>2026-09-02T22:07:59Z</time>
  <course>181.28</course>
  <speed>0.77</speed>
  <fix>3d</fix>
</trkpt>
<trkpt lat="33.8095402" lon="-118.3939689">
  <ele>-42.792</ele>
  <time>2026-09-02T22:07:59Z</time>
  <course>181.34</course>
  <speed>0.7505997601918082</speed>
  <fix>3d</fix>
</trkpt>
<trkpt lat="33.8095416" lon="-118.3939688">
  <ele>-41.66</ele>
  <time>2026-09-02T22:07:59Z</time>
  <course>181.28</course>
  <speed>0.77</speed>
  <fix>3d</fix>
</trkpt>
<trkpt lat="33.8095395" lon="-118.393969">
  <ele>-42.828</ele>
  <time>2026-09-02T22:07:59Z</time>
  <course>181.34</course>
  <speed>0.7505997601918082</speed>
  <fix>3d</fix>
</trkpt>
<trkpt lat="33.8095402" lon="-118.3939688">
  <ele>-41.73</ele>
  <time>2026-09-02T22:07:59Z</time>
  <course>181.28</course>
  <speed>0.77</speed>
  <fix>3d</fix>
</trkpt>
<trkpt lat="33.8095388" lon="-118.393969">
  <ele>-42.866</ele>
  <time>2026-09-02T22:07:59Z</time>
  <course>181.34</course>
  <speed>0.7505997601918082</speed>
  <fix>3d</fix>
</trkpt>
<trkpt lat="33.8095402" lon="-118.3939688">
  <ele>-41.73</ele>
  <time>2026-09-02T22:07:59Z</time>
  <course>181.28</course>
  <speed>0.77</speed>
  <fix>3d</fix>
</trkpt>
<trkpt lat="33.8095381" lon="-118.393969">
  <ele>-42.906</ele>
  <time>2026-09-02T22:07:59Z</time>
  <course>181.34</course>
  <speed>0.7505997601918082</speed>
  <fix>3d</fix>
</trkpt>
<trkpt lat="33.8095388" lon="-118.3939689">
  <ele>-41.8</ele>
  <time>2026-09-02T22:07:59Z</time>
  <course>181.28</course>
  <speed>0.77</speed>
  <fix>3d</fix>
</trkpt>
<trkpt lat="33.8095374" lon="-118.393969">
  <ele>-42.949</ele>
  <time>2026-09-02T22:07:59Z</time>
  <course>181.34</course>
  <speed>0.7505997601918082</speed>
  <fix>3d</fix>
</trkpt>
<trkpt lat="33.8095388" lon="-118.3939689">
  <ele>-41.8</ele>
  <time>2026-09-02T22:07:59Z</time>
  <course>181.28</course>
  <speed>0.77</speed>
  <fix>3d</fix>
</trkpt>
<trkpt lat="33.8095367" lon="-118.393969">
  <ele>-42.992</ele>
  <time>2026-09-02T22:07:59Z</time>
  <course>181.34</course>
  <speed>0.7505997601918082</speed>
  <fix>3d</fix>
</trkpt>
<trkpt lat="33.8095373" lon="-118.3939689">
  <ele>-41.87</ele>
  <time>2026-09-02T22:07:59Z</time>
  <course>181.28</course>
  <speed>0.77</speed>
  <fix>3d</fix>
</trkpt>
<trkpt lat="33.809536" lon="-118.3939691">
  <ele>-43.036</ele>
  <time>2026-09-02T22:07:59Z</time>
  <course>181.34</course>
  <speed>0.7505997601918082</speed>
  <fix>3d</fix>
</trkpt>
<trkpt lat="33.8095373" lon="-118.3939689">
  <ele>-41.87</ele>
  <time>2026-09-02T22:07:59Z</time>
  <course>181.28</course>
  <speed>0.77</speed>
  <fix>3d</fix>
</trkpt>
<trkpt lat="33.8095353" lon="-118.3939691">
  <ele>-43.08</ele>
  <time>2026-09-02T22:07:59Z</time>
  <course>181.34</course>
  <speed>0.7505997601918082</speed>
  <fix>3d</fix>
</trkpt>
<trkpt lat="33.8095359" lon="-118.393969">
  <ele>-41.96</ele>
  <time>2026-09-02T22:07:59Z</time>
  <course>181.28</course>
  <speed>0.77</speed>
  <fix>3d</fix>
</trkpt>
<trkpt lat="33.8095346" lon="-118.3939691">
  <ele>-43.125</ele>
  <time>2026-09-02T22:07:59Z</time>
  <course>181.34</course>
  <speed>0.7505997601918082</speed>
  <fix>3d</fix>
</trkpt>
<trkpt lat="33.8095359" lon="-118.393969">
  <ele>-41.96</ele>
  <time>2026-09-02T22:07:59Z</time>
  <course>181.28</course>
  <speed>0.77</speed>
  <fix>3d</fix>
</trkpt>
<trkpt lat="33.8095339" lon="-118.3939691">
  <ele>-43.168</ele>
  <time>2026-09-02T22:07:59Z</time>
  <course>181.34</course>
  <speed>0.7505997601918082</speed>
  <fix>3d</fix>
</trkpt>
<trkpt lat="33.8095346" lon="-118.393969">
  <ele>-42.05</ele>
  <time>2026-09-02T22:07:59Z</time>
  <course>181.27</course>
  <speed>0.77</speed>
  <fix>3d</fix>
</trkpt>
<trkpt lat="33.8095332" lon="-118.3939691">
  <ele>-43.209</ele>
  <time>2026-09-02T22:07:59Z</time>
  <course>181.33</course>
  <speed>0.7505997601918082</speed>
  <fix>3d</fix>
</trkpt>
<trkpt lat="33.8095346" lon="-118.393969">
  <ele>-42.05</ele>
  <time>2026-09-02T22:07:59Z</time>
  <course>181.27</course>
  <speed>0.77</speed>
  <fix>3d</fix>
</trkpt>
<trkpt lat="33.8095325" lon="-118.3939692">
  <ele>-43.25</ele>
  <time>2026-09-02T22:07:59Z</time>
  <course>181.34</course>
  <speed>0.7505997601918082</speed>
  <fix>3d</fix>
</trkpt>
<trkpt lat="33.8095333" lon="-118.393969">
  <ele>-42.12</ele>
  <time>2026-09-02T22:07:59Z</time>
  <course>181.27</course>
  <speed>0.77</speed>
  <fix>3d</fix>
</trkpt>
<trkpt lat="33.8095318" lon="-118.3939692">
  <ele>-43.291</ele>
  <time>2026-09-02T22:07:59Z</time>
  <course>181.34</course>
  <speed>0.7505997601918082</speed>
  <fix>3d</fix>
</trkpt>
<trkpt lat="33.8095333" lon="-118.393969">
  <ele>-42.12</ele>
  <time>2026-09-02T22:07:59Z</time>
  <course>181.27</course>
  <speed>0.77</speed>
  <fix>3d</fix>
</trkpt>
<trkpt lat="33.8095311" lon="-118.3939692">
  <ele>-43.335</ele>
  <time>2026-09-02T22:07:59Z</time>
  <course>181.33</course>
  <speed>0.7505997601918082</speed>
  <fix>3d</fix>
</trkpt>
<trkpt lat="33.8095318" lon="-118.3939691">
  <ele>-42.21</ele>
  <time>2026-09-02T22:07:59Z</time>
  <course>181.27</course>
  <speed>0.77</speed>
  <fix>3d</fix>
</trkpt>
<trkpt lat="33.8095304" lon="-118.3939692">
  <ele>-43.379</ele>
  <time>2026-09-02T22:07:59Z</time>
  <course>181.34</course>
  <speed>0.7505997601918082</speed>
  <fix>3d</fix>
</trkpt>
<trkpt lat="33.8095318" lon="-118.3939691">
  <ele>-42.21</ele>
  <time>2026-09-02T22:07:59Z</time>
  <course>181.27</course>
  <speed>0.77</speed>
  <fix>3d</fix>
</trkpt>
<trkpt lat="33.8095297" lon="-118.3939692">
  <ele>-43.422</ele>
  <time>2026-09-02T22:07:59Z</time>
  <course>181.34</course>
  <speed>0.7505997601918082</speed>
  <fix>3d</fix>
</trkpt>
<trkpt lat="33.8095304" lon="-118.3939691">
  <ele>-42.29</ele>
  <time>2026-09-02T22:07:59Z</time>
  <course>181.26</course>
  <speed>0.77</speed>
  <fix>3d</fix>
</trkpt>
<trkpt lat="33.809529" lon="-118.3939693">
  <ele>-43.464</ele>
  <time>2026-09-02T22:07:59Z</time>
  <course>181.33</course>
  <speed>0.7505997601918082</speed>
  <fix>3d</fix>
</trkpt>
<trkpt lat="33.8095304" lon="-118.3939691">
  <ele>-42.29</ele>
  <time>2026-09-02T22:07:59Z</time>
  <course>181.26</course>
  <speed>0.77</speed>
  <fix>3d</fix>
</trkpt>
<trkpt lat="33.8095283" lon="-118.3939693">
  <ele>-43.505</ele>
  <time>2026-09-02T22:07:59Z</time>
  <course>181.33</course>
  <speed>0.7505997601918082</speed>
  <fix>3d</fix>
</trkpt>
<trkpt lat="33.8095291" lon="-118.3939691">
  <ele>-42.37</ele>
  <time>2026-09-02T22:07:59Z</time>
  <course>181.26</course>
  <speed>0.77</speed>
  <fix>3d</fix>
</trkpt>
<trkpt lat="33.8095276" lon="-118.3939693">
  <ele>-43.546</ele>
  <time>2026-09-02T22:07:59Z</time>
  <course>181.33</course>
  <speed>0.7505997601918082</speed>
  <fix>3d</fix>
</trkpt>
<trkpt lat="33.8095291" lon="-118.3939691">
  <ele>-42.37</ele>
  <time>2026-09-02T22:07:59Z</time>
  <course>181.26</course>
  <speed>0.77</speed>
  <fix>3d</fix>
</trkpt>
<trkpt lat="33.809527" lon="-118.3939693">
  <ele>-43.584</ele>
  <time>2026-09-02T22:07:59Z</time>
  <course>181.33</course>
  <speed>0.7505997601918082</speed>
  <fix>3d</fix>
</trkpt>
<trkpt lat="33.8095276" lon="-118.3939692">
  <ele>-42.46</ele>
  <time>2026-09-02T22:07:59Z</time>
  <course>181.25</course>
  <speed>0.77</speed>
  <fix>3d</fix>
</trkpt>
<trkpt lat="33.8095263" lon="-118.3939693">
  <ele>-43.623</ele>
  <time>2026-09-02T22:07:59Z</time>
  <course>181.33</course>
  <speed>0.7505997601918082</speed>
  <fix>3d</fix>
</trkpt>
<trkpt lat="33.8095276" lon="-118.3939692">
  <ele>-42.46</ele>
  <time>2026-09-02T22:07:59Z</time>
  <course>181.25</course>
  <speed>0.77</speed>
  <fix>3d</fix>
</trkpt>
<trkpt lat="33.8095256" lon="-118.3939694">
  <ele>-43.663</ele>
  <time>2026-09-02T22:07:59Z</time>
  <course>181.33</course>
  <speed>0.7505997601918082</speed>
  <fix>3d</fix>
</trkpt>
<trkpt lat="33.8095263" lon="-118.3939692">
  <ele>-42.53</ele>
  <time>2026-09-02T22:07:59Z</time>
  <course>181.25</course>
  <speed>0.77</speed>
  <fix>3d</fix>
</trkpt>
<trkpt lat="33.8095249" lon="-118.3939694">
  <ele>-43.703</ele>
  <time>2026-09-02T22:07:59Z</time>
  <course>181.33</course>
  <speed>0.7505997601918082</speed>
  <fix>3d</fix>
</trkpt>
<trkpt lat="33.8095263" lon="-118.3939692">
  <ele>-42.53</ele>
  <time>2026-09-02T22:07:59Z</time>
  <course>181.25</course>
  <speed>0.77</speed>
  <fix>3d</fix>
</trkpt>
<trkpt lat="33.8095242" lon="-118.3939694">
  <ele>-43.744</ele>
  <time>2026-09-02T22:07:59Z</time>
  <course>181.33</course>
  <speed>0.7505997601918082</speed>
  <fix>3d</fix>
</trkpt>
<trkpt lat="33.8095249" lon="-118.3939693">
  <ele>-42.61</ele>
  <time>2026-09-02T22:07:59Z</time>
  <course>181.25</course>
  <speed>0.77</speed>
  <fix>3d</fix>
</trkpt>
<trkpt lat="33.8095235" lon="-118.3939694">
  <ele>-43.785</ele>
  <time>2026-09-02T22:07:59Z</time>
  <course>181.33</course>
  <speed>0.7505997601918082</speed>
  <fix>3d</fix>
</trkpt>
<trkpt lat="33.8095249" lon="-118.3939693">
  <ele>-42.61</ele>
  <time>2026-09-02T22:07:59Z</time>
  <course>181.25</course>
  <speed>0.77</speed>
  <fix>3d</fix>
</trkpt>
<trkpt lat="33.8095228" lon="-118.3939694">
  <ele>-43.826</ele>
  <time>2026-09-02T22:07:59Z</time>
  <course>181.33</course>
  <speed>0.7505997601918082</speed>
  <fix>3d</fix>
</trkpt>
<trkpt lat="33.8095235" lon="-118.3939693">
  <ele>-42.69</ele>
  <time>2026-09-02T22:07:59Z</time>
  <course>181.25</course>
  <speed>0.77</speed>
  <fix>3d</fix>
</trkpt>
<trkpt lat="33.8095221" lon="-118.3939695">
  <ele>-43.865</ele>
  <time>2026-09-02T22:07:59Z</time>
  <course>181.33</course>
  <speed>0.7505997601918082</speed>
  <fix>3d</fix>
</trkpt>
<trkpt lat="33.8095235" lon="-118.3939693">
  <ele>-42.69</ele>
  <time>2026-09-02T22:07:59Z</time>
  <course>181.25</course>
  <speed>0.77</speed>
  <fix>3d</fix>
</trkpt>
<trkpt lat="33.8095214" lon="-118.3939695">
  <ele>-43.904</ele>
  <time>2026-09-02T22:07:59Z</time>
  <course>181.33</course>
  <speed>0.7505997601918082</speed>
  <fix>3d</fix>
</trkpt>
<trkpt lat="33.809522" lon="-118.3939693">
  <ele>-42.76</ele>
  <time>2026-09-02T22:07:59Z</time>
  <course>181.24</course>
  <speed>0.77</speed>
  <fix>3d</fix>
</trkpt>
<trkpt lat="33.8095207" lon="-118.3939695">
  <ele>-43.943</ele>
  <time>2026-09-02T22:07:59Z</time>
  <course>181.33</course>
  <speed>0.7505997601918082</speed>
  <fix>3d</fix>
</trkpt>
<trkpt lat="33.809522" lon="-118.3939693">
  <ele>-42.76</ele>
  <time>2026-09-02T22:07:59Z</time>
  <course>181.24</course>
  <speed>0.77</speed>
  <fix>3d</fix>
</trkpt>
<trkpt lat="33.80952" lon="-118.3939695">
  <ele>-43.982</ele>
  <time>2026-09-02T22:07:59Z</time>
  <course>181.33</course>
  <speed>0.7505997601918082</speed>
  <fix>3d</fix>
</trkpt>
<trkpt lat="33.8095207" lon="-118.3939694">
  <ele>-42.84</ele>
  <time>2026-09-02T22:07:59Z</time>
  <course>181.24</course>
  <speed>0.77</speed>
  <fix>3d</fix>
</trkpt>
<trkpt lat="33.8095193" lon="-118.3939695">
  <ele>-44.021</ele>
  <time>2026-09-02T22:07:59Z</time>
  <course>181.33</course>
  <speed>0.7505997601918082</speed>
  <fix>3d</fix>
</trkpt>
<trkpt lat="33.8095207" lon="-118.3939694">
  <ele>-42.84</ele>
  <time>2026-09-02T22:07:59Z</time>
  <course>181.24</course>
  <speed>0.77</speed>
  <fix>3d</fix>
</trkpt>
<trkpt lat="33.8095186" lon="-118.3939696">
  <ele>-44.058</ele>
  <time>2026-09-02T22:07:59Z</time>
  <course>181.33</course>
  <speed>0.7505997601918082</speed>
  <fix>3d</fix>
</trkpt>
<trkpt lat="33.8095193" lon="-118.3939694">
  <ele>-42.91</ele>
  <time>2026-09-02T22:07:59Z</time>
  <course>181.24</course>
  <speed>0.77</speed>
  <fix>3d</fix>
</trkpt>
<trkpt lat="33.8095179" lon="-118.3939696">
  <ele>-44.094</ele>
  <time>2026-09-02T22:07:59Z</time>
  <course>181.33</course>
  <speed>0.7505997601918082</speed>
  <fix>3d</fix>
</trkpt>
<trkpt lat="33.8095193" lon="-118.3939694">
  <ele>-42.91</ele>
  <time>2026-09-02T22:07:59Z</time>
  <course>181.24</course>
  <speed>0.77</speed>
  <fix>3d</fix>
</trkpt>
<trkpt lat="33.8095172" lon="-118.3939696">
  <ele>-44.131</ele>
  <time>2026-09-02T22:07:59Z</time>
  <course>181.33</course>
  <speed>0.7505997601918082</speed>
  <fix>3d</fix>
</trkpt>
<trkpt lat="33.809518" lon="-118.3939694">
  <ele>-42.98</ele>
  <time>2026-09-02T22:07:59Z</time>
  <course>181.24</course>
  <speed>0.77</speed>
  <fix>3d</fix>
</trkpt>
<trkpt lat="33.8095165" lon="-118.3939696">
  <ele>-44.167</ele>
  <time>2026-09-02T22:07:59Z</time>
  <course>181.33</course>
  <speed>0.7505997601918082</speed>
  <fix>3d</fix>
</trkpt>
<trkpt lat="33.809518" lon="-118.3939694">
  <ele>-42.98</ele>
  <time>2026-09-02T22:07:59Z</time>
  <course>181.24</course>
  <speed>0.77</speed>
  <fix>3d</fix>
</trkpt>
<trkpt lat="33.8095158" lon="-118.3939696">
  <ele>-44.202</ele>
  <time>2026-09-02T22:07:59Z</time>
  <course>181.33</course>
  <speed>0.7505997601918082</speed>
  <fix>3d</fix>
</trkpt>
<trkpt lat="33.8095165" lon="-118.3939695">
  <ele>-43.06</ele>
  <time>2026-09-02T22:07:59Z</time>
  <course>181.23</course>
  <speed>0.77</speed>
  <fix>3d</fix>
</trkpt>
<trkpt lat="33.8095151" lon="-118.3939696">
  <ele>-44.238</ele>
  <time>2026-09-02T22:07:59Z</time>
  <course>181.33</course>
  <speed>0.7505997601918082</speed>
  <fix>3d</fix>
</trkpt>
<trkpt lat="33.8095165" lon="-118.3939695">
  <ele>-43.06</ele>
  <time>2026-09-02T22:07:59Z</time>
  <course>181.23</course>
  <speed>0.77</speed>
  <fix>3d</fix>
</trkpt>
<trkpt lat="33.8095144" lon="-118.3939697">
  <ele>-44.275</ele>
  <time>2026-09-02T22:07:59Z</time>
  <course>181.33</course>
  <speed>0.7505997601918082</speed>
  <fix>3d</fix>
</trkpt>
<trkpt lat="33.8095152" lon="-118.3939695">
  <ele>-43.13</ele>
  <time>2026-09-02T22:07:59Z</time>
  <course>181.23</course>
  <speed>0.77</speed>
  <fix>3d</fix>
</trkpt>
<trkpt lat="33.8095137" lon="-118.3939697">
  <ele>-44.313</ele>
  <time>2026-09-02T22:07:59Z</time>
  <course>181.33</course>
  <speed>0.7505997601918082</speed>
  <fix>3d</fix>
</trkpt>
<trkpt lat="33.8095152" lon="-118.3939695">
  <ele>-43.13</ele>
  <time>2026-09-02T22:07:59Z</time>
  <course>181.23</course>
  <speed>0.77</speed>
  <fix>3d</fix>
</trkpt>
<trkpt lat="33.809513" lon="-118.3939697">
  <ele>-44.351</ele>
  <time>2026-09-02T22:07:59Z</time>
  <course>181.33</course>
  <speed>0.7505997601918082</speed>
  <fix>3d</fix>
</trkpt>
<trkpt lat="33.8095138" lon="-118.3939695">
  <ele>-43.21</ele>
  <time>2026-09-02T22:07:59Z</time>
  <course>181.23</course>
  <speed>0.77</speed>
  <fix>3d</fix>
</trkpt>
<trkpt lat="33.8095124" lon="-118.3939697">
  <ele>-44.388</ele>
  <time>2026-09-02T22:07:59Z</time>
  <course>181.33</course>
  <speed>0.7505997601918082</speed>
  <fix>3d</fix>
</trkpt>
<trkpt lat="33.8095138" lon="-118.3939695">
  <ele>-43.21</ele>
  <time>2026-09-02T22:07:59Z</time>
  <course>181.23</course>
  <speed>0.77</speed>
  <fix>3d</fix>
</trkpt>
<trkpt lat="33.8095117" lon="-118.3939697">
  <ele>-44.425</ele>
  <time>2026-09-02T22:07:59Z</time>
  <course>181.33</course>
  <speed>0.7505997601918082</speed>
  <fix>3d</fix>
</trkpt>
<trkpt lat="33.8095124" lon="-118.3939696">
  <ele>-43.28</ele>
  <time>2026-09-02T22:07:59Z</time>
  <course>181.22</course>
  <speed>0.77</speed>
  <fix>3d</fix>
</trkpt>
<trkpt lat="33.809511" lon="-118.3939697">
  <ele>-44.462</ele>
  <time>2026-09-02T22:07:59Z</time>
  <course>181.33</course>
  <speed>0.7505997601918082</speed>
  <fix>3d</fix>
</trkpt>
<trkpt lat="33.8095124" lon="-118.3939696">
  <ele>-43.28</ele>
  <time>2026-09-02T22:07:59Z</time>
  <course>181.22</course>
  <speed>0.77</speed>
  <fix>3d</fix>
</trkpt>
<trkpt lat="33.8095103" lon="-118.3939698">
  <ele>-44.5</ele>
  <time>2026-09-02T22:07:59Z</time>
  <course>181.33</course>
  <speed>0.7505997601918082</speed>
  <fix>3d</fix>
</trkpt>
<trkpt lat="33.809511" lon="-118.3939696">
  <ele>-43.36</ele>
  <time>2026-09-02T22:07:59Z</time>
  <course>181.22</course>
  <speed>0.77</speed>
  <fix>3d</fix>
</trkpt>
<trkpt lat="33.8095096" lon="-118.3939698">
  <ele>-44.54</ele>
  <time>2026-09-02T22:07:59Z</time>
  <course>181.33</course>
  <speed>0.7505997601918082</speed>
  <fix>3d</fix>
</trkpt>
<trkpt lat="33.809511" lon="-118.3939696">
  <ele>-43.36</ele>
  <time>2026-09-02T22:07:59Z</time>
  <course>181.22</course>
  <speed>0.77</speed>
  <fix>3d</fix>
</trkpt>
<trkpt lat="33.8095089" lon="-118.3939698">
  <ele>-44.581</ele>
  <time>2026-09-02T22:07:59Z</time>
  <course>181.33</course>
  <speed>0.7505997601918082</speed>
  <fix>3d</fix>
</trkpt>
<trkpt lat="33.8095096" lon="-118.3939697">
  <ele>-43.43</ele>
  <time>2026-09-02T22:07:59Z</time>
  <course>181.22</course>
  <speed>0.77</speed>
  <fix>3d</fix>
</trkpt>
<trkpt lat="33.8095082" lon="-118.3939698">
  <ele>-44.624</ele>
  <time>2026-09-02T22:07:59Z</time>
  <course>181.32</course>
  <speed>0.7505997601918082</speed>
  <fix>3d</fix>
</trkpt>
<trkpt lat="33.8095096" lon="-118.3939697">
  <ele>-43.43</ele>
  <time>2026-09-02T22:07:59Z</time>
  <course>181.22</course>
  <speed>0.77</speed>
  <fix>3d</fix>
</trkpt>
<trkpt lat="33.8095075" lon="-118.3939698">
  <ele>-44.668</ele>
  <time>2026-09-02T22:07:59Z</time>
  <course>181.32</course>
  <speed>0.7505997601918082</speed>
  <fix>3d</fix>
</trkpt>
<trkpt lat="33.8095081" lon="-118.3939697">
  <ele>-43.51</ele>
  <time>2026-09-02T22:07:59Z</time>
  <course>181.22</course>
  <speed>0.77</speed>
  <fix>3d</fix>
</trkpt>
<trkpt lat="33.8095068" lon="-118.3939699">
  <ele>-44.712</ele>
  <time>2026-09-02T22:07:59Z</time>
  <course>181.33</course>
  <speed>0.7505997601918082</speed>
  <fix>3d</fix>
</trkpt>
<trkpt lat="33.8095081" lon="-118.3939697">
  <ele>-43.51</ele>
  <time>2026-09-02T22:07:59Z</time>
  <course>181.22</course>
  <speed>0.77</speed>
  <fix>3d</fix>
</trkpt>
<trkpt lat="33.8095061" lon="-118.3939699">
  <ele>-44.755</ele>
  <time>2026-09-02T22:07:59Z</time>
  <course>181.32</course>
  <speed>0.7505997601918082</speed>
  <fix>3d</fix>
</trkpt>
<trkpt lat="33.8095067" lon="-118.3939697">
  <ele>-43.6</ele>
  <time>2026-09-02T22:07:59Z</time>
  <course>181.22</course>
  <speed>0.77</speed>
  <fix>3d</fix>
</trkpt>
<trkpt lat="33.8095054" lon="-118.3939699">
  <ele>-44.798</ele>
  <time>2026-09-02T22:07:59Z</time>
  <course>181.32</course>
  <speed>0.7505997601918082</speed>
  <fix>3d</fix>
</trkpt>
<trkpt lat="33.8095067" lon="-118.3939697">
  <ele>-43.6</ele>
  <time>2026-09-02T22:07:59Z</time>
  <course>181.22</course>
  <speed>0.77</speed>
  <fix>3d</fix>
</trkpt>
<trkpt lat="33.8095047" lon="-118.3939699">
  <ele>-44.841</ele>
  <time>2026-09-02T22:07:59Z</time>
  <course>181.32</course>
  <speed>0.7505997601918082</speed>
  <fix>3d</fix>
</trkpt>
<trkpt lat="33.8095054" lon="-118.3939698">
  <ele>-43.68</ele>
  <time>2026-09-02T22:07:59Z</time>
  <course>181.22</course>
  <speed>0.77</speed>
  <fix>3d</fix>
</trkpt>
<trkpt lat="33.809504" lon="-118.3939699">
  <ele>-44.884</ele>
  <time>2026-09-02T22:07:59Z</time>
  <course>181.33</course>
  <speed>0.7505997601918082</speed>
  <fix>3d</fix>
</trkpt>
<trkpt lat="33.8095054" lon="-118.3939698">
  <ele>-43.68</ele>
  <time>2026-09-02T22:07:59Z</time>
  <course>181.22</course>
  <speed>0.77</speed>
  <fix>3d</fix>
</trkpt>
<trkpt lat="33.8095033" lon="-118.3939699">
  <ele>-44.926</ele>
  <time>2026-09-02T22:07:59Z</time>
  <course>181.32</course>
  <speed>0.7505997601918082</speed>
  <fix>3d</fix>
</trkpt>
<trkpt lat="33.8095039" lon="-118.3939698">
  <ele>-43.76</ele>
  <time>2026-09-02T22:07:59Z</time>
  <course>181.21</course>
  <speed>0.77</speed>
  <fix>3d</fix>
</trkpt>
<trkpt lat="33.8095026" lon="-118.39397">
  <ele>-44.966</ele>
  <time>2026-09-02T22:07:59Z</time>
  <course>181.32</course>
  <speed>0.7505997601918082</speed>
  <fix>3d</fix>
</trkpt>
<trkpt lat="33.8095039" lon="-118.3939698">
  <ele>-43.76</ele>
  <time>2026-09-02T22:07:59Z</time>
  <course>181.21</course>
  <speed>0.77</speed>
  <fix>3d</fix>
</trkpt>
<trkpt lat="33.809502" lon="-118.39397">
  <ele>-45.001</ele>
  <time>2026-09-02T22:07:59Z</time>
  <course>181.32</course>
  <speed>0.7505997601918082</speed>
  <fix>3d</fix>
</trkpt>
<trkpt lat="33.8095026" lon="-118.3939698">
  <ele>-43.84</ele>
  <time>2026-09-02T22:07:59Z</time>
  <course>181.21</course>
  <speed>0.77</speed>
  <fix>3d</fix>
</trkpt>
<trkpt lat="33.8095013" lon="-118.39397">
  <ele>-45.034</ele>
  <time>2026-09-02T22:07:59Z</time>
  <course>181.32</course>
  <speed>0.7505997601918082</speed>
  <fix>3d</fix>
</trkpt>
<trkpt lat="33.8095026" lon="-118.3939698">
  <ele>-43.84</ele>
  <time>2026-09-02T22:07:59Z</time>
  <course>181.21</course>
  <speed>0.77</speed>
  <fix>3d</fix>
</trkpt>
<trkpt lat="33.8095006" lon="-118.39397">
  <ele>-45.063</ele>
  <time>2026-09-02T22:07:59Z</time>
  <course>181.32</course>
  <speed>0.7505997601918082</speed>
  <fix>3d</fix>
</trkpt>
<trkpt lat="33.8095013" lon="-118.3939698">
  <ele>-43.91</ele>
  <time>2026-09-02T22:07:59Z</time>
  <course>181.2</course>
  <speed>0.77</speed>
  <fix>3d</fix>
</trkpt>
<trkpt lat="33.8094999" lon="-118.39397">
  <ele>-45.088</ele>
  <time>2026-09-02T22:07:59Z</time>
  <course>181.32</course>
  <speed>0.7505997601918082</speed>
  <fix>3d</fix>
</trkpt>
<trkpt lat="33.8095013" lon="-118.3939698">
  <ele>-43.91</ele>
  <time>2026-09-02T22:07:59Z</time>
  <course>181.2</course>
  <speed>0.77</speed>
  <fix>3d</fix>
</trkpt>
<trkpt lat="33.8094992" lon="-118.39397">
  <ele>-45.109</ele>
  <time>2026-09-02T22:07:59Z</time>
  <course>181.32</course>
  <speed>0.7505997601918082</speed>
  <fix>3d</fix>
</trkpt>
<trkpt lat="33.8094999" lon="-118.3939698">
  <ele>-43.96</ele>
  <time>2026-09-02T22:07:59Z</time>
  <course>181.19</course>
  <speed>0.77</speed>
  <fix>3d</fix>
</trkpt>
<trkpt lat="33.8094985" lon="-118.39397">
  <ele>-45.126</ele>
  <time>2026-09-02T22:07:59Z</time>
  <course>181.32</course>
  <speed>0.7505997601918082</speed>
  <fix>3d</fix>
</trkpt>
<trkpt lat="33.8094999" lon="-118.3939698">
  <ele>-43.96</ele>
  <time>2026-09-02T22:07:59Z</time>
  <course>181.19</course>
  <speed>0.77</speed>
  <fix>3d</fix>
</trkpt>
<trkpt lat="33.8094978" lon="-118.3939701">
  <ele>-45.141</ele>
  <time>2026-09-02T22:07:59Z</time>
  <course>181.32</course>
  <speed>0.7505997601918082</speed>
  <fix>3d</fix>
</trkpt>
<trkpt lat="33.8094984" lon="-118.3939699">
  <ele>-44.01</ele>
  <time>2026-09-02T22:07:59Z</time>
  <course>181.19</course>
  <speed>0.77</speed>
  <fix>3d</fix>
</trkpt>
<trkpt lat="33.8094971" lon="-118.3939701">
  <ele>-45.154</ele>
  <time>2026-09-02T22:07:59Z</time>
  <course>181.32</course>
  <speed>0.7505997601918082</speed>
  <fix>3d</fix>
</trkpt>
<trkpt lat="33.8094984" lon="-118.3939699">
  <ele>-44.01</ele>
  <time>2026-09-02T22:07:59Z</time>
  <course>181.19</course>
  <speed>0.77</speed>
  <fix>3d</fix>
</trkpt>
<trkpt lat="33.8094964" lon="-118.3939701">
  <ele>-45.165</ele>
  <time>2026-09-02T22:07:59Z</time>
  <course>181.32</course>
  <speed>0.7505997601918082</speed>
  <fix>3d</fix>
</trkpt>
<trkpt lat="33.8094971" lon="-118.39397">
  <ele>-44.04</ele>
  <time>2026-09-02T22:07:59Z</time>
  <course>181.18</course>
  <speed>0.77</speed>
  <fix>3d</fix>
</trkpt>
<trkpt lat="33.8094957" lon="-118.3939701">
  <ele>-45.173</ele>
  <time>2026-09-02T22:07:59Z</time>
  <course>181.32</course>
  <speed>0.7505997601918082</speed>
  <fix>3d</fix>
</trkpt>
<trkpt lat="33.8094971" lon="-118.39397">
  <ele>-44.04</ele>
  <time>2026-09-02T22:07:59Z</time>
  <course>181.18</course>
  <speed>0.77</speed>
  <fix>3d</fix>
</trkpt>
<trkpt lat="33.809495" lon="-118.3939701">
  <ele>-45.177</ele>
  <time>2026-09-02T22:07:59Z</time>
  <course>181.32</course>
  <speed>0.740607858451421</speed>
  <fix>3d</fix>
</trkpt>
<trkpt lat="33.8094957" lon="-118.39397">
  <ele>-44.07</ele>
  <time>2026-09-02T22:07:59Z</time>
  <course>181.18</course>
  <speed>0.77</speed>
  <fix>3d</fix>
</trkpt>
<trkpt lat="33.8094943" lon="-118.3939701">
  <ele>-45.176</ele>
  <time>2026-09-02T22:07:59Z</time>
  <course>181.32</course>
  <speed>0.740607858451421</speed>
  <fix>3d</fix>
</trkpt>
<trkpt lat="33.8094957" lon="-118.39397">
  <ele>-44.07</ele>
  <time>2026-09-02T22:07:59Z</time>
  <course>181.18</course>
  <speed>0.77</speed>
  <fix>3d</fix>
</trkpt>
<trkpt lat="33.8094936" lon="-118.3939702">
  <ele>-45.167</ele>
  <time>2026-09-02T22:07:59Z</time>
  <course>181.32</course>
  <speed>0.740607858451421</speed>
  <fix>3d</fix>
</trkpt>
<trkpt lat="33.8094943" lon="-118.39397">
  <ele>-44.08</ele>
  <time>2026-09-02T22:07:59Z</time>
  <course>181.17</course>
  <speed>0.77</speed>
  <fix>3d</fix>
</trkpt>
<trkpt lat="33.809493" lon="-118.3939702">
  <ele>-45.155</ele>
  <time>2026-09-02T22:07:59Z</time>
  <course>181.32</course>
  <speed>0.740607858451421</speed>
  <fix>3d</fix>
</trkpt>
<trkpt lat="33.8094943" lon="-118.39397">
  <ele>-44.08</ele>
  <time>2026-09-02T22:07:59Z</time>
  <course>181.17</course>
  <speed>0.77</speed>
  <fix>3d</fix>
</trkpt>
<trkpt lat="33.8094923" lon="-118.3939702">
  <ele>-45.14</ele>
  <time>2026-09-02T22:07:59Z</time>
  <course>181.32</course>
  <speed>0.740607858451421</speed>
  <fix>3d</fix>
</trkpt>
<trkpt lat="33.8094928" lon="-118.3939701">
  <ele>-44.07</ele>
  <time>2026-09-02T22:07:59Z</time>
  <course>181.16</course>
  <speed>0.77</speed>
  <fix>3d</fix>
</trkpt>
<trkpt lat="33.8094916" lon="-118.3939702">
  <ele>-45.124</ele>
  <time>2026-09-02T22:07:59Z</time>
  <course>181.32</course>
  <speed>0.7505997601918082</speed>
  <fix>3d</fix>
</trkpt>
<trkpt lat="33.8094928" lon="-118.3939701">
  <ele>-44.07</ele>
  <time>2026-09-02T22:07:59Z</time>
  <course>181.16</course>
  <speed>0.77</speed>
  <fix>3d</fix>
</trkpt>
<trkpt lat="33.8094909" lon="-118.3939702">
  <ele>-45.107</ele>
  <time>2026-09-02T22:07:59Z</time>
  <course>181.32</course>
  <speed>0.7505997601918082</speed>
  <fix>3d</fix>
</trkpt>
<trkpt lat="33.8094915" lon="-118.3939701">
  <ele>-44.04</ele>
  <time>2026-09-02T22:07:59Z</time>
  <course>181.16</course>
  <speed>0.77</speed>
  <fix>3d</fix>
</trkpt>
<trkpt lat="33.8094902" lon="-118.3939702">
  <ele>-45.089</ele>
  <time>2026-09-02T22:07:59Z</time>
  <course>181.32</course>
  <speed>0.7505997601918082</speed>
  <fix>3d</fix>
</trkpt>
<trkpt lat="33.8094915" lon="-118.3939701">
  <ele>-44.04</ele>
  <time>2026-09-02T22:07:59Z</time>
  <course>181.16</course>
  <speed>0.77</speed>
  <fix>3d</fix>
</trkpt>
<trkpt lat="33.8094895" lon="-118.3939703">
  <ele>-45.074</ele>
  <time>2026-09-02T22:07:59Z</time>
  <course>181.32</course>
  <speed>0.7505997601918082</speed>
  <fix>3d</fix>
</trkpt>
<trkpt lat="33.8094901" lon="-118.3939701">
  <ele>-44.01</ele>
  <time>2026-09-02T22:07:59Z</time>
  <course>181.15</course>
  <speed>0.77</speed>
  <fix>3d</fix>
</trkpt>
<trkpt lat="33.8094888" lon="-118.3939703">
  <ele>-45.06</ele>
  <time>2026-09-02T22:07:59Z</time>
  <course>181.32</course>
  <speed>0.7505997601918082</speed>
  <fix>3d</fix>
</trkpt>
<trkpt lat="33.8094901" lon="-118.3939701">
  <ele>-44.01</ele>
  <time>2026-09-02T22:07:59Z</time>
  <course>181.15</course>
  <speed>0.77</speed>
  <fix>3d</fix>
</trkpt>
<trkpt lat="33.8094881" lon="-118.3939703">
  <ele>-45.048</ele>
  <time>2026-09-02T22:07:59Z</time>
  <course>181.32</course>
  <speed>0.7505997601918082</speed>
  <fix>3d</fix>
</trkpt>
<trkpt lat="33.8094887" lon="-118.3939702">
  <ele>-43.98</ele>
  <time>2026-09-02T22:07:59Z</time>
  <course>181.15</course>
  <speed>0.77</speed>
  <fix>3d</fix>
</trkpt>
<trkpt lat="33.8094874" lon="-118.3939703">
  <ele>-45.036</ele>
  <time>2026-09-02T22:07:59Z</time>
  <course>181.32</course>
  <speed>0.7505997601918082</speed>
  <fix>3d</fix>
</trkpt>
<trkpt lat="33.8094887" lon="-118.3939702">
  <ele>-43.98</ele>
  <time>2026-09-02T22:07:59Z</time>
  <course>181.15</course>
  <speed>0.77</speed>
  <fix>3d</fix>
</trkpt>
<trkpt lat="33.8094867" lon="-118.3939703">
  <ele>-45.026</ele>
  <time>2026-09-02T22:07:59Z</time>
  <course>181.32</course>
  <speed>0.7505997601918082</speed>
  <fix>3d</fix>
</trkpt>
<trkpt lat="33.8094873" lon="-118.3939702">
  <ele>-43.97</ele>
  <time>2026-09-02T22:07:59Z</time>
  <course>181.15</course>
  <speed>0.77</speed>
  <fix>3d</fix>
</trkpt>
<trkpt lat="33.809486" lon="-118.3939704">
  <ele>-45.015</ele>
  <time>2026-09-02T22:07:59Z</time>
  <course>181.32</course>
  <speed>0.7505997601918082</speed>
  <fix>3d</fix>
</trkpt>
<trkpt lat="33.8094873" lon="-118.3939702">
  <ele>-43.97</ele>
  <time>2026-09-02T22:07:59Z</time>
  <course>181.15</course>
  <speed>0.77</speed>
  <fix>3d</fix>
</trkpt>
<trkpt lat="33.8094853" lon="-118.3939704">
  <ele>-45.003</ele>
  <time>2026-09-02T22:07:59Z</time>
  <course>181.32</course>
  <speed>0.7505997601918082</speed>
  <fix>3d</fix>
</trkpt>
<trkpt lat="33.809486" lon="-118.3939702">
  <ele>-43.94</ele>
  <time>2026-09-02T22:07:59Z</time>
  <course>181.15</course>
  <speed>0.77</speed>
  <fix>3d</fix>
</trkpt>
<trkpt lat="33.8094846" lon="-118.3939704">
  <ele>-44.991</ele>
  <time>2026-09-02T22:07:59Z</time>
  <course>181.32</course>
  <speed>0.7505997601918082</speed>
  <fix>3d</fix>
</trkpt>
<trkpt lat="33.809486" lon="-118.3939702">
  <ele>-43.94</ele>
  <time>2026-09-02T22:07:59Z</time>
  <course>181.15</course>
  <speed>0.77</speed>
  <fix>3d</fix>
</trkpt>
<trkpt lat="33.8094839" lon="-118.3939704">
  <ele>-44.979</ele>
  <time>2026-09-02T22:07:59Z</time>
  <course>181.32</course>
  <speed>0.7505997601918082</speed>
  <fix>3d</fix>
</trkpt>
<trkpt lat="33.8094846" lon="-118.3939703">
  <ele>-43.93</ele>
  <time>2026-09-02T22:07:59Z</time>
  <course>181.15</course>
  <speed>0.77</speed>
  <fix>3d</fix>
</trkpt>
<trkpt lat="33.8094832" lon="-118.3939704">
  <ele>-44.968</ele>
  <time>2026-09-02T22:07:59Z</time>
  <course>181.32</course>
  <speed>0.7505997601918082</speed>
  <fix>3d</fix>
</trkpt>
<trkpt lat="33.8094846" lon="-118.3939703">
  <ele>-43.93</ele>
  <time>2026-09-02T22:07:59Z</time>
  <course>181.15</course>
  <speed>0.77</speed>
  <fix>3d</fix>
</trkpt>
<trkpt lat="33.8094825" lon="-118.3939704">
  <ele>-44.958</ele>
  <time>2026-09-02T22:07:59Z</time>
  <course>181.32</course>
  <speed>0.7505997601918082</speed>
  <fix>3d</fix>
</trkpt>
<trkpt lat="33.8094832" lon="-118.3939703">
  <ele>-43.91</ele>
  <time>2026-09-02T22:07:59Z</time>
  <course>181.14</course>
  <speed>0.77</speed>
  <fix>3d</fix>
</trkpt>
<trkpt lat="33.8094818" lon="-118.3939705">
  <ele>-44.95</ele>
  <time>2026-09-02T22:07:59Z</time>
  <course>181.32</course>
  <speed>0.7505997601918082</speed>
  <fix>3d</fix>
</trkpt>
<trkpt lat="33.8094832" lon="-118.3939703">
  <ele>-43.91</ele>
  <time>2026-09-02T22:07:59Z</time>
  <course>181.14</course>
  <speed>0.77</speed>
  <fix>3d</fix>
</trkpt>
<trkpt lat="33.8094811" lon="-118.3939705">
  <ele>-44.943</ele>
  <time>2026-09-02T22:07:59Z</time>
  <course>181.32</course>
  <speed>0.7505997601918082</speed>
  <fix>3d</fix>
</trkpt>
<trkpt lat="33.8094818" lon="-118.3939703">
  <ele>-43.89</ele>
  <time>2026-09-02T22:07:59Z</time>
  <course>181.14</course>
  <speed>0.77</speed>
  <fix>3d</fix>
</trkpt>
<trkpt lat="33.8094804" lon="-118.3939705">
  <ele>-44.938</ele>
  <time>2026-09-02T22:07:59Z</time>
  <course>181.32</course>
  <speed>0.7505997601918082</speed>
  <fix>3d</fix>
</trkpt>
<trkpt lat="33.8094818" lon="-118.3939703">
  <ele>-43.89</ele>
  <time>2026-09-02T22:07:59Z</time>
  <course>181.14</course>
  <speed>0.77</speed>
  <fix>3d</fix>
</trkpt>
<trkpt lat="33.8094797" lon="-118.3939705">
  <ele>-44.936</ele>
  <time>2026-09-02T22:07:59Z</time>
  <course>181.32</course>
  <speed>0.7505997601918082</speed>
  <fix>3d</fix>
</trkpt>
<trkpt lat="33.8094804" lon="-118.3939704">
  <ele>-43.87</ele>
  <time>2026-09-02T22:07:59Z</time>
  <course>181.14</course>
  <speed>0.77</speed>
  <fix>3d</fix>
</trkpt>
<trkpt lat="33.8094791" lon="-118.3939705">
  <ele>-44.935</ele>
  <time>2026-09-02T22:07:59Z</time>
  <course>181.32</course>
  <speed>0.7505997601918082</speed>
  <fix>3d</fix>
</trkpt>
<trkpt lat="33.8094804" lon="-118.3939704">
  <ele>-43.87</ele>
  <time>2026-09-02T22:07:59Z</time>
  <course>181.14</course>
  <speed>0.77</speed>
  <fix>3d</fix>
</trkpt>
<trkpt lat="33.8094784" lon="-118.3939705">
  <ele>-44.938</ele>
  <time>2026-09-02T22:07:59Z</time>
  <course>181.32</course>
  <speed>0.7505997601918082</speed>
  <fix>3d</fix>
</trkpt>
<trkpt lat="33.8094789" lon="-118.3939704">
  <ele>-43.87</ele>
  <time>2026-09-02T22:07:59Z</time>
  <course>181.14</course>
  <speed>0.77</speed>
  <fix>3d</fix>
</trkpt>
<trkpt lat="33.8094777" lon="-118.3939706">
  <ele>-44.944</ele>
  <time>2026-09-02T22:07:59Z</time>
  <course>181.32</course>
  <speed>0.7505997601918082</speed>
  <fix>3d</fix>
</trkpt>
<trkpt lat="33.8094789" lon="-118.3939704">
  <ele>-43.87</ele>
  <time>2026-09-02T22:07:59Z</time>
  <course>181.14</course>
  <speed>0.77</speed>
  <fix>3d</fix>
</trkpt>
<trkpt lat="33.809477" lon="-118.3939706">
  <ele>-44.956</ele>
  <time>2026-09-02T22:07:59Z</time>
  <course>181.32</course>
  <speed>0.7505997601918082</speed>
  <fix>3d</fix>
</trkpt>
<trkpt lat="33.8094775" lon="-118.3939704">
  <ele>-43.87</ele>
  <time>2026-09-02T22:07:59Z</time>
  <course>181.15</course>
  <speed>0.77</speed>
  <fix>3d</fix>
</trkpt>
<trkpt lat="33.8094763" lon="-118.3939706">
  <ele>-44.972</ele>
  <time>2026-09-02T22:07:59Z</time>
  <course>181.32</course>
  <speed>0.7505997601918082</speed>
  <fix>3d</fix>
</trkpt>
<trkpt lat="33.8094775" lon="-118.3939704">
  <ele>-43.87</ele>
  <time>2026-09-02T22:07:59Z</time>
  <course>181.15</course>
  <speed>0.77</speed>
  <fix>3d</fix>
</trkpt>
<trkpt lat="33.8094756" lon="-118.3939706">
  <ele>-44.99</ele>
  <time>2026-09-02T22:07:59Z</time>
  <course>181.32</course>
  <speed>0.7505997601918082</speed>
  <fix>3d</fix>
</trkpt>
<trkpt lat="33.8094762" lon="-118.3939705">
  <ele>-43.89</ele>
  <time>2026-09-02T22:07:59Z</time>
  <course>181.15</course>
  <speed>0.77</speed>
  <fix>3d</fix>
</trkpt>
<trkpt lat="33.8094749" lon="-118.3939706">
  <ele>-45.007</ele>
  <time>2026-09-02T22:07:59Z</time>
  <course>181.32</course>
  <speed>0.7505997601918082</speed>
  <fix>3d</fix>
</trkpt>
<trkpt lat="33.8094762" lon="-118.3939705">
  <ele>-43.89</ele>
  <time>2026-09-02T22:07:59Z</time>
  <course>181.15</course>
  <speed>0.77</speed>
  <fix>3d</fix>
</trkpt>
<trkpt lat="33.8094742" lon="-118.3939706">
  <ele>-45.023</ele>
  <time>2026-09-02T22:07:59Z</time>
  <course>181.32</course>
  <speed>0.7505997601918082</speed>
  <fix>3d</fix>
</trkpt>
<trkpt lat="33.8094747" lon="-118.3939705">
  <ele>-43.92</ele>
  <time>2026-09-02T22:07:59Z</time>
  <course>181.16</course>
  <speed>0.77</speed>
  <fix>3d</fix>
</trkpt>
<trkpt lat="33.8094735" lon="-118.3939707">
  <ele>-45.037</ele>
  <time>2026-09-02T22:07:59Z</time>
  <course>181.31</course>
  <speed>0.7505997601918082</speed>
  <fix>3d</fix>
</trkpt>
<trkpt lat="33.8094747" lon="-118.3939705">
  <ele>-43.92</ele>
  <time>2026-09-02T22:07:59Z</time>
  <course>181.16</course>
  <speed>0.77</speed>
  <fix>3d</fix>
</trkpt>
<trkpt lat="33.8094728" lon="-118.3939707">
  <ele>-45.05</ele>
  <time>2026-09-02T22:07:59Z</time>
  <course>181.31</course>
  <speed>0.7505997601918082</speed>
  <fix>3d</fix>
</trkpt>
<trkpt lat="33.8094734" lon="-118.3939705">
  <ele>-43.94</ele>
  <time>2026-09-02T22:07:59Z</time>
  <course>181.15</course>
  <speed>0.77</speed>
  <fix>3d</fix>
</trkpt>
<trkpt lat="33.8094721" lon="-118.3939707">
  <ele>-45.062</ele>
  <time>2026-09-02T22:07:59Z</time>
  <course>181.32</course>
  <speed>0.7505997601918082</speed>
  <fix>3d</fix>
</trkpt>
<trkpt lat="33.8094734" lon="-118.3939705">
  <ele>-43.94</ele>
  <time>2026-09-02T22:07:59Z</time>
  <course>181.15</course>
  <speed>0.77</speed>
  <fix>3d</fix>
</trkpt>
<trkpt lat="33.8094714" lon="-118.3939707">
  <ele>-45.074</ele>
  <time>2026-09-02T22:07:59Z</time>
  <course>181.32</course>
  <speed>0.7505997601918082</speed>
  <fix>3d</fix>
</trkpt>
<trkpt lat="33.809472" lon="-118.3939706">
  <ele>-43.97</ele>
  <time>2026-09-02T22:07:59Z</time>
  <course>181.15</course>
  <speed>0.77</speed>
  <fix>3d</fix>
</trkpt>
<trkpt lat="33.8094713" lon="-118.3939707">
  <ele>-45.074</ele>
  <time>2026-09-02T22:07:59Z</time>
  <course>181.32</course>
  <speed>0.7505997601918082</speed>
  <fix>3d</fix>
</trkpt>
<trkpt lat="33.8094707" lon="-118.3939707">
  <ele>-45.083</ele>
  <time>2026-09-02T22:07:59Z</time>
  <course>181.31</course>
  <speed>0.6207253821135398</speed>
  <fix>3d</fix>
</trkpt>
<trkpt lat="33.809472" lon="-118.3939706">
  <ele>-43.97</ele>
  <time>2026-09-02T22:07:59Z</time>
  <course>181.15</course>
  <speed>0.77</speed>
  <fix>3d</fix>
</trkpt>
<trkpt lat="33.8094702" lon="-118.3939707">
  <ele>-45.092</ele>
  <time>2026-09-02T22:07:59Z</time>
  <course>181.32</course>
  <speed>0.470425339453563</speed>
  <fix>3d</fix>
</trkpt>
<trkpt lat="33.8094707" lon="-118.3939706">
  <ele>-43.98</ele>
  <time>2026-09-02T22:07:59Z</time>
  <course>181.21</course>
  <speed>0.67</speed>
  <fix>3d</fix>
</trkpt>
<trkpt lat="33.8094698" lon="-118.3939707">
  <ele>-45.1</ele>
  <time>2026-09-02T22:08:00Z</time>
  <course>181.32</course>
  <speed>0.38052595180880894</speed>
  <fix>3d</fix>
</trkpt>
<trkpt lat="33.8094707" lon="-118.3939706">
  <ele>-43.98</ele>
  <time>2026-09-02T22:08:00Z</time>
  <course>181.21</course>
  <speed>0.67</speed>
  <fix>3d</fix>
</trkpt>
<trkpt lat="33.8094695" lon="-118.3939708">
  <ele>-45.106</ele>
  <time>2026-09-02T22:08:00Z</time>
  <course>181.32</course>
  <speed>0.31064449134018135</speed>
  <fix>3d</fix>
</trkpt>
<trkpt lat="33.8094696" lon="-118.3939706">
  <ele>-44.0</ele>
  <time>2026-09-02T22:08:00Z</time>
  <course>181.4</course>
  <speed>0.48</speed>
  <fix>3d</fix>
</trkpt>
<trkpt lat="33.8094692" lon="-118.3939708">
  <ele>-45.11</ele>
  <time>2026-09-02T22:08:00Z</time>
  <course>181.33</course>
  <speed>0.2707397274136177</speed>
  <fix>3d</fix>
</trkpt>
<trkpt lat="33.8094696" lon="-118.3939706">
  <ele>-44.0</ele>
  <time>2026-09-02T22:08:00Z</time>
  <course>181.4</course>
  <speed>0.48</speed>
  <fix>3d</fix>
</trkpt>
<trkpt lat="33.8094689" lon="-118.3939708">
  <ele>-45.113</ele>
  <time>2026-09-02T22:08:00Z</time>
  <course>181.33</course>
  <speed>0.2308679276123039</speed>
  <fix>3d</fix>
</trkpt>
<trkpt lat="33.8094689" lon="-118.3939707">
  <ele>-44.01</ele>
  <time>2026-09-02T22:08:00Z</time>
  <course>181.71</course>
  <speed>0.33</speed>
  <fix>3d</fix>
</trkpt>
<trkpt lat="33.8094687" lon="-118.3939708">
  <ele>-45.116</ele>
  <time>2026-09-02T22:08:00Z</time>
  <course>181.34</course>
  <speed>0.2109502310972899</speed>
  <fix>3d</fix>
</trkpt>
<trkpt lat="33.8094689" lon="-118.3939707">
  <ele>-44.01</ele>
  <time>2026-09-02T22:08:00Z</time>
  <course>181.71</course>
  <speed>0.33</speed>
  <fix>3d</fix>
</trkpt>
<trkpt lat="33.8094685" lon="-118.3939708">
  <ele>-45.117</ele>
  <time>2026-09-02T22:08:00Z</time>
  <course>181.34</course>
  <speed>0.191049731745428</speed>
  <fix>3d</fix>
</trkpt>
<trkpt lat="33.8094684" lon="-118.3939707">
  <ele>-44.02</ele>
  <time>2026-09-02T22:08:00Z</time>
  <course>182.0</course>
  <speed>0.25</speed>
  <fix>3d</fix>
</trkpt>
<trkpt lat="33.8094683" lon="-118.3939708">
  <ele>-45.118</ele>
  <time>2026-09-02T22:08:00Z</time>
  <course>181.35</course>
  <speed>0.1711724276862369</speed>
  <fix>3d</fix>
</trkpt>
<trkpt lat="33.8094684" lon="-118.3939707">
  <ele>-44.02</ele>
  <time>2026-09-02T22:08:00Z</time>
  <course>182.0</course>
  <speed>0.25</speed>
  <fix>3d</fix>
</trkpt>
<trkpt lat="33.8094681" lon="-118.3939708">
  <ele>-45.118</ele>
  <time>2026-09-02T22:08:00Z</time>
  <course>181.35</course>
  <speed>0.15132745950421556</speed>
  <fix>3d</fix>
</trkpt>
<trkpt lat="33.8094679" lon="-118.3939707">
  <ele>-44.03</ele>
  <time>2026-09-02T22:08:00Z</time>
  <course>182.29</course>
  <speed>0.2</speed>
  <fix>3d</fix>
</trkpt>
<trkpt lat="33.8094679" lon="-118.3939708">
  <ele>-45.117</ele>
  <time>2026-09-02T22:08:00Z</time>
  <course>181.36</course>
  <speed>0.1414213562373095</speed>
  <fix>3d</fix>
</trkpt>
<trkpt lat="33.8094679" lon="-118.3939707">
  <ele>-44.03</ele>
  <time>2026-09-02T22:08:00Z</time>
  <course>182.29</course>
  <speed>0.2</speed>
  <fix>3d</fix>
</trkpt>
<trkpt lat="33.8094678" lon="-118.3939708">
  <ele>-45.117</ele>
  <time>2026-09-02T22:08:00Z</time>
  <course>181.36</course>
  <speed>0.13152946437965907</speed>
  <fix>3d</fix>
</trkpt>
<trkpt lat="33.8094676" lon="-118.3939707">
  <ele>-44.03</ele>
  <time>2026-09-02T22:08:00Z</time>
  <course>182.57</course>
  <speed>0.17</speed>
  <fix>3d</fix>
</trkpt>
<trkpt lat="33.8094676" lon="-118.3939708">
  <ele>-45.117</ele>
  <time>2026-09-02T22:08:00Z</time>
  <course>181.37</course>
  <speed>0.12165525060596438</speed>
  <fix>3d</fix>
</trkpt>
<trkpt lat="33.8094676" lon="-118.3939707">
  <ele>-44.03</ele>
  <time>2026-09-02T22:08:00Z</time>
  <course>182.57</course>
  <speed>0.17</speed>
  <fix>3d</fix>
</trkpt>
<trkpt lat="33.8094675" lon="-118.3939708">
  <ele>-45.116</ele>
  <time>2026-09-02T22:08:00Z</time>
  <course>181.37</course>
  <speed>0.1118033988749895</speed>
  <fix>3d</fix>
</trkpt>
<trkpt lat="33.8094673" lon="-118.3939707">
  <ele>-44.04</ele>
  <time>2026-09-02T22:08:00Z</time>
  <course>182.85</course>
  <speed>0.14</speed>
  <fix>3d</fix>
</trkpt>
<trkpt lat="33.8094673" lon="-118.3939708">
  <ele>-45.115</ele>
  <time>2026-09-02T22:08:00Z</time>
  <course>181.38</course>
  <speed>0.1118033988749895</speed>
  <fix>3d</fix>
</trkpt>
<trkpt lat="33.8094673" lon="-118.3939707">
  <ele>-44.04</ele>
  <time>2026-09-02T22:08:00Z</time>
  <course>182.85</course>
  <speed>0.14</speed>
  <fix>3d</fix>
</trkpt>
<trkpt lat="33.8094672" lon="-118.3939708">
  <ele>-45.111</ele>
  <time>2026-09-02T22:08:00Z</time>
  <course>181.38</course>
  <speed>0.1019803902718557</speed>
  <fix>3d</fix>
</trkpt>
<trkpt lat="33.8094671" lon="-118.3939708">
  <ele>-44.03</ele>
  <time>2026-09-02T22:08:00Z</time>
  <course>183.12</course>
  <speed>0.13</speed>
  <fix>3d</fix>
</trkpt>
<trkpt lat="33.8094671" lon="-118.3939709">
  <ele>-45.107</ele>
  <time>2026-09-02T22:08:00Z</time>
  <course>181.39</course>
  <speed>0.09219544457292887</speed>
  <fix>3d</fix>
</trkpt>
<trkpt lat="33.8094671" lon="-118.3939708">
  <ele>-44.03</ele>
  <time>2026-09-02T22:08:00Z</time>
  <course>183.12</course>
  <speed>0.13</speed>
  <fix>3d</fix>
</trkpt>
<trkpt lat="33.809467" lon="-118.3939709">
  <ele>-45.103</ele>
  <time>2026-09-02T22:08:00Z</time>
  <course>181.39</course>
  <speed>0.09219544457292887</speed>
  <fix>3d</fix>
</trkpt>
<trkpt lat="33.8094668" lon="-118.3939708">
  <ele>-44.03</ele>
  <time>2026-09-02T22:08:00Z</time>
  <course>183.39</course>
  <speed>0.11</speed>
  <fix>3d</fix>
</trkpt>
<trkpt lat="33.8094669" lon="-118.3939709">
  <ele>-45.098</ele>
  <time>2026-09-02T22:08:00Z</time>
  <course>181.4</course>
  <speed>0.0824621125123532</speed>
  <fix>3d</fix>
</trkpt>
<trkpt lat="33.8094668" lon="-118.3939708">
  <ele>-44.03</ele>
  <time>2026-09-02T22:08:00Z</time>
  <course>183.39</course>
  <speed>0.11</speed>
  <fix>3d</fix>
</trkpt>
<trkpt lat="33.8094668" lon="-118.3939709">
  <ele>-45.093</ele>
  <time>2026-09-02T22:08:00Z</time>
  <course>181.4</course>
  <speed>0.0824621125123532</speed>
  <fix>3d</fix>
</trkpt>
<trkpt lat="33.8094667" lon="-118.3939708">
  <ele>-44.02</ele>
  <time>2026-09-02T22:08:00Z</time>
  <course>183.66</course>
  <speed>0.1</speed>
  <fix>3d</fix>
</trkpt>
<trkpt lat="33.8094667" lon="-118.3939709">
  <ele>-45.087</ele>
  <time>2026-09-02T22:08:00Z</time>
  <course>181.4</course>
  <speed>0.0824621125123532</speed>
  <fix>3d</fix>
</trkpt>
<trkpt lat="33.8094667" lon="-118.3939708">
  <ele>-44.02</ele>
  <time>2026-09-02T22:08:00Z</time>
  <course>183.66</course>
  <speed>0.1</speed>
  <fix>3d</fix>
</trkpt>
<trkpt lat="33.8094666" lon="-118.3939709">
  <ele>-45.082</ele>
  <time>2026-09-02T22:08:00Z</time>
  <course>181.41</course>
  <speed>0.07280109889280519</speed>
  <fix>3d</fix>
</trkpt>
<trkpt lat="33.8094665" lon="-118.3939708">
  <ele>-44.01</ele>
  <time>2026-09-02T22:08:00Z</time>
  <course>183.92</course>
  <speed>0.09</speed>
  <fix>3d</fix>
</trkpt>
<trkpt lat="33.8094665" lon="-118.3939709">
  <ele>-45.076</ele>
  <time>2026-09-02T22:08:00Z</time>
  <course>181.41</course>
  <speed>0.07280109889280519</speed>
  <fix>3d</fix>
</trkpt>
<trkpt lat="33.8094665" lon="-118.3939708">
  <ele>-44.01</ele>
  <time>2026-09-02T22:08:00Z</time>
  <course>183.92</course>
  <speed>0.09</speed>
  <fix>3d</fix>
</trkpt>
<trkpt lat="33.8094664" lon="-118.3939709">
  <ele>-45.07</ele>
  <time>2026-09-02T22:08:00Z</time>
  <course>181.42</course>
  <speed>0.07280109889280519</speed>
  <fix>3d</fix>
</trkpt>
<trkpt lat="33.8094663" lon="-118.3939708">
  <ele>-44.0</ele>
  <time>2026-09-02T22:08:00Z</time>
  <course>184.18</course>
  <speed>0.08</speed>
  <fix>3d</fix>
</trkpt>
<trkpt lat="33.8094663" lon="-118.3939709">
  <ele>-45.063</ele>
  <time>2026-09-02T22:08:00Z</time>
  <course>181.42</course>
  <speed>0.0632455532033676</speed>
  <fix>3d</fix>
</trkpt>
<trkpt lat="33.8094663" lon="-118.3939708">
  <ele>-44.0</ele>
  <time>2026-09-02T22:08:00Z</time>
  <course>184.18</course>
  <speed>0.08</speed>
  <fix>3d</fix>
</trkpt>
<trkpt lat="33.8094663" lon="-118.3939709">
  <ele>-45.056</ele>
  <time>2026-09-02T22:08:00Z</time>
  <course>181.43</course>
  <speed>0.0632455532033676</speed>
  <fix>3d</fix>
</trkpt>
<trkpt lat="33.8094662" lon="-118.3939708">
  <ele>-43.99</ele>
  <time>2026-09-02T22:08:00Z</time>
  <course>184.43</course>
  <speed>0.08</speed>
  <fix>3d</fix>
</trkpt>
<trkpt lat="33.8094662" lon="-118.393971">
  <ele>-45.048</ele>
  <time>2026-09-02T22:08:00Z</time>
  <course>181.43</course>
  <speed>0.0632455532033676</speed>
  <fix>3d</fix>
</trkpt>
<trkpt lat="33.8094662" lon="-118.3939708">
  <ele>-43.99</ele>
  <time>2026-09-02T22:08:00Z</time>
  <course>184.43</course>
  <speed>0.08</speed>
  <fix>3d</fix>
</trkpt>
<trkpt lat="33.4368002" lon="-117.0859339">
  <ele>-0.11</ele>
  <time>2026-09-02T22:08:00Z</time>
  <course>0.0</course>
  <speed>0.0</speed>
  <fix>3d</fix>
</trkpt>
<trkpt lat="33.4368002" lon="-117.0859339">
  <ele>-0.11</ele>
  <time>2026-09-02T22:08:00Z</time>
  <course>0.0</course>
  <speed>0.0</speed>
  <fix>3d</fix>
</trkpt>
<trkpt lat="33.810313" lon="-118.393867">
  <ele>0.0</ele>
  <time>2026-09-02T22:08:00Z</time>
  <course>173.5</course>
  <speed>0.0</speed>
  <fix>3d</fix>
</trkpt>
<trkpt lat="33.810313" lon="-118.393867">
  <ele>-0.11</ele>
  <time>2026-09-02T22:08:00Z</time>
  <course>0.0</course>
  <speed>0.0</speed>
  <fix>3d</fix>
</trkpt>
<trkpt lat="33.4368002" lon="-117.0859339">
  <ele>-0.11</ele>
  <time>2026-09-02T22:08:01Z</time>
  <course>0.0</course>
  <speed>0.0</speed>
  <fix>3d</fix>
</trkpt>
<trkpt lat="33.4368002" lon="-117.0859339">
  <ele>-0.11</ele>
  <time>2026-09-02T22:08:01Z</time>
  <course>0.0</course>
  <speed>0.0</speed>
  <fix>3d</fix>
</trkpt>
<trkpt lat="33.810313" lon="-118.393867">
  <ele>0.0</ele>
  <time>2026-09-02T22:08:01Z</time>
  <course>173.5</course>
  <speed>0.0</speed>
  <fix>3d</fix>
</trkpt>
<trkpt lat="33.810313" lon="-118.393867">
  <ele>-0.11</ele>
  <time>2026-09-02T22:08:01Z</time>
  <course>0.0</course>
  <speed>0.0</speed>
  <fix>3d</fix>
</trkpt>
<trkpt lat="33.810313" lon="-118.393867">
  <ele>0.0</ele>
  <time>2026-09-02T22:08:01Z</time>
  <course>173.61</course>
  <speed>0.0</speed>
  <fix>3d</fix>
</trkpt>
<trkpt lat="33.810313" lon="-118.393867">
  <ele>-0.11</ele>
  <time>2026-09-02T22:08:01Z</time>
  <course>0.0</course>
  <speed>0.0</speed>
  <fix>3d</fix>
</trkpt>
<trkpt lat="33.810313" lon="-118.393867">
  <ele>0.0</ele>
  <time>2026-09-02T22:08:01Z</time>
  <course>173.98</course>
  <speed>0.0</speed>
  <fix>3d</fix>
</trkpt>
<trkpt lat="33.810313" lon="-118.393867">
  <ele>-0.11</ele>
  <time>2026-09-02T22:08:01Z</time>
  <course>0.0</course>
  <speed>0.0</speed>
  <fix>3d</fix>
</trkpt>
<trkpt lat="33.810313" lon="-118.393867">
  <ele>0.0</ele>
  <time>2026-09-02T22:08:01Z</time>
  <course>174.51</course>
  <speed>0.0</speed>
  <fix>3d</fix>
</trkpt>
<trkpt lat="33.810313" lon="-118.393867">
  <ele>-0.11</ele>
  <time>2026-09-02T22:08:01Z</time>
  <course>0.0</course>
  <speed>0.0</speed>
  <fix>3d</fix>
</trkpt>
<trkpt lat="33.810313" lon="-118.393867">
  <ele>0.0</ele>
  <time>2026-09-02T22:08:01Z</time>
  <course>175.07</course>
  <speed>0.0</speed>
  <fix>3d</fix>
</trkpt>
<trkpt lat="33.810313" lon="-118.393867">
  <ele>-0.12</ele>
  <time>2026-09-02T22:08:01Z</time>
  <course>0.0</course>
  <speed>0.0</speed>
  <fix>3d</fix>
</trkpt>
<trkpt lat="33.810313" lon="-118.393867">
  <ele>0.0</ele>
  <time>2026-09-02T22:08:01Z</time>
  <course>175.61</course>
  <speed>0.0</speed>
  <fix>3d</fix>
</trkpt>
<trkpt lat="33.810313" lon="-118.393867">
  <ele>-0.12</ele>
  <time>2026-09-02T22:08:01Z</time>
  <course>0.0</course>
  <speed>0.0</speed>
  <fix>3d</fix>
</trkpt>
<trkpt lat="33.810313" lon="-118.393867">
  <ele>0.0</ele>
  <time>2026-09-02T22:08:01Z</time>
  <course>176.12</course>
  <speed>0.0</speed>
  <fix>3d</fix>
</trkpt>
<trkpt lat="33.810313" lon="-118.393867">
  <ele>-0.13</ele>
  <time>2026-09-02T22:08:01Z</time>
  <course>0.0</course>
  <speed>0.0</speed>
  <fix>3d</fix>
</trkpt>
<trkpt lat="33.810313" lon="-118.393867">
  <ele>0.0</ele>
  <time>2026-09-02T22:08:01Z</time>
  <course>176.6</course>
  <speed>0.0</speed>
  <fix>3d</fix>
</trkpt>
<trkpt lat="33.810313" lon="-118.393867">
  <ele>-0.13</ele>
  <time>2026-09-02T22:08:01Z</time>
  <course>0.0</course>
  <speed>0.0</speed>
  <fix>3d</fix>
</trkpt>
<trkpt lat="33.810313" lon="-118.393867">
  <ele>0.0</ele>
  <time>2026-09-02T22:08:01Z</time>
  <course>177.07</course>
  <speed>0.0</speed>
  <fix>3d</fix>
</trkpt>
<trkpt lat="33.810313" lon="-118.393867">
  <ele>-0.13</ele>
  <time>2026-09-02T22:08:01Z</time>
  <course>0.0</course>
  <speed>0.0</speed>
  <fix>3d</fix>
</trkpt>
<trkpt lat="33.810313" lon="-118.393867">
  <ele>0.0</ele>
  <time>2026-09-02T22:08:01Z</time>
  <course>177.53</course>
  <speed>0.0</speed>
  <fix>3d</fix>
</trkpt>
<trkpt lat="33.810313" lon="-118.393867">
  <ele>-0.13</ele>
  <time>2026-09-02T22:08:01Z</time>
  <course>0.0</course>
  <speed>0.0</speed>
  <fix>3d</fix>
</trkpt>
<trkpt lat="33.810313" lon="-118.393867">
  <ele>0.0</ele>
  <time>2026-09-02T22:08:01Z</time>
  <course>177.97</course>
  <speed>0.0</speed>
  <fix>3d</fix>
</trkpt>
<trkpt lat="33.810313" lon="-118.393867">
  <ele>-0.14</ele>
  <time>2026-09-02T22:08:01Z</time>
  <course>0.0</course>
  <speed>0.0</speed>
  <fix>3d</fix>
</trkpt>
<trkpt lat="33.810313" lon="-118.393867">
  <ele>0.0</ele>
  <time>2026-09-02T22:08:01Z</time>
  <course>178.4</course>
  <speed>0.0</speed>
  <fix>3d</fix>
</trkpt>
<trkpt lat="33.810313" lon="-118.393867">
  <ele>-0.14</ele>
  <time>2026-09-02T22:08:01Z</time>
  <course>0.0</course>
  <speed>0.0</speed>
  <fix>3d</fix>
</trkpt>
<trkpt lat="33.810313" lon="-118.393867">
  <ele>0.0</ele>
  <time>2026-09-02T22:08:01Z</time>
  <course>178.82</course>
  <speed>0.0</speed>
  <fix>3d</fix>
</trkpt>
<trkpt lat="33.810313" lon="-118.393867">
  <ele>-0.14</ele>
  <time>2026-09-02T22:08:01Z</time>
  <course>0.0</course>
  <speed>0.0</speed>
  <fix>3d</fix>
</trkpt>
<trkpt lat="33.810313" lon="-118.393867">
  <ele>0.0</ele>
  <time>2026-09-02T22:08:01Z</time>
  <course>179.23</course>
  <speed>0.0</speed>
  <fix>3d</fix>
</trkpt>
<trkpt lat="33.810313" lon="-118.393867">
  <ele>-0.14</ele>
  <time>2026-09-02T22:08:01Z</time>
  <course>0.0</course>
  <speed>0.0</speed>
  <fix>3d</fix>
</trkpt>
<trkpt lat="33.810313" lon="-118.393867">
  <ele>0.0</ele>
  <time>2026-09-02T22:08:01Z</time>
  <course>179.62</course>
  <speed>0.0</speed>
  <fix>3d</fix>
</trkpt>
<trkpt lat="33.810313" lon="-118.393867">
  <ele>-0.14</ele>
  <time>2026-09-02T22:08:01Z</time>
  <course>0.0</course>
  <speed>0.0</speed>
  <fix>3d</fix>
</trkpt>
<trkpt lat="33.810313" lon="-118.393867">
  <ele>0.0</ele>
  <time>2026-09-02T22:08:01Z</time>
  <course>180.01</course>
  <speed>0.0</speed>
  <fix>3d</fix>
</trkpt>
<trkpt lat="33.810313" lon="-118.393867">
  <ele>-0.14</ele>
  <time>2026-09-02T22:08:01Z</time>
  <course>0.0</course>
  <speed>0.0</speed>
  <fix>3d</fix>
</trkpt>
<trkpt lat="33.810313" lon="-118.393867">
  <ele>0.0</ele>
  <time>2026-09-02T22:08:01Z</time>
  <course>180.37</course>
  <speed>0.0</speed>
  <fix>3d</fix>
</trkpt>
<trkpt lat="33.810313" lon="-118.393867">
  <ele>-0.14</ele>
  <time>2026-09-02T22:08:01Z</time>
  <course>0.0</course>
  <speed>0.0</speed>
  <fix>3d</fix>
</trkpt>
<trkpt lat="33.810313" lon="-118.393867">
  <ele>0.0</ele>
  <time>2026-09-02T22:08:01Z</time>
  <course>180.73</course>
  <speed>0.0</speed>
  <fix>3d</fix>
</trkpt>
<trkpt lat="33.810313" lon="-118.393867">
  <ele>-0.14</ele>
  <time>2026-09-02T22:08:01Z</time>
  <course>0.0</course>
  <speed>0.0</speed>
  <fix>3d</fix>
</trkpt>
<trkpt lat="33.810313" lon="-118.393867">
  <ele>0.0</ele>
  <time>2026-09-02T22:08:01Z</time>
  <course>181.07</course>
  <speed>0.0</speed>
  <fix>3d</fix>
</trkpt>
<trkpt lat="33.810313" lon="-118.393867">
  <ele>-0.13</ele>
  <time>2026-09-02T22:08:01Z</time>
  <course>0.0</course>
  <speed>0.0</speed>
  <fix>3d</fix>
</trkpt>
<trkpt lat="33.810313" lon="-118.393867">
  <ele>0.0</ele>
  <time>2026-09-02T22:08:01Z</time>
  <course>181.4</course>
  <speed>0.0</speed>
  <fix>3d</fix>
</trkpt>
<trkpt lat="33.810313" lon="-118.393867">
  <ele>-0.13</ele>
  <time>2026-09-02T22:08:01Z</time>
  <course>0.0</course>
  <speed>0.0</speed>
  <fix>3d</fix>
</trkpt>
<trkpt lat="33.810313" lon="-118.393867">
  <ele>0.0</ele>
  <time>2026-09-02T22:08:01Z</time>
  <course>181.72</course>
  <speed>0.0</speed>
  <fix>3d</fix>
</trkpt>
<trkpt lat="33.810313" lon="-118.393867">
  <ele>-0.12</ele>
  <time>2026-09-02T22:08:01Z</time>
  <course>0.0</course>
  <speed>0.0</speed>
  <fix>3d</fix>
</trkpt>
<trkpt lat="33.810313" lon="-118.393867">
  <ele>0.0</ele>
  <time>2026-09-02T22:08:01Z</time>
  <course>182.02</course>
  <speed>0.0</speed>
  <fix>3d</fix>
</trkpt>
<trkpt lat="33.810313" lon="-118.393867">
  <ele>-0.12</ele>
  <time>2026-09-02T22:08:01Z</time>
  <course>0.0</course>
  <speed>0.0</speed>
  <fix>3d</fix>
</trkpt>
<trkpt lat="33.810313" lon="-118.393867">
  <ele>0.0</ele>
  <time>2026-09-02T22:08:01Z</time>
  <course>182.32</course>
  <speed>0.0</speed>
  <fix>3d</fix>
</trkpt>
<trkpt lat="33.810313" lon="-118.393867">
  <ele>-0.12</ele>
  <time>2026-09-02T22:08:01Z</time>
  <course>0.0</course>
  <speed>0.0</speed>
  <fix>3d</fix>
</trkpt>
<trkpt lat="33.810313" lon="-118.393867">
  <ele>0.0</ele>
  <time>2026-09-02T22:08:01Z</time>
  <course>182.6</course>
  <speed>0.0</speed>
  <fix>3d</fix>
</trkpt>
<trkpt lat="33.810313" lon="-118.393867">
  <ele>-0.12</ele>
  <time>2026-09-02T22:08:01Z</time>
  <course>0.0</course>
  <speed>0.0</speed>
  <fix>3d</fix>
</trkpt>
<trkpt lat="33.810313" lon="-118.393867">
  <ele>0.0</ele>
  <time>2026-09-02T22:08:01Z</time>
  <course>182.87</course>
  <speed>0.0</speed>
  <fix>3d</fix>
</trkpt>
<trkpt lat="33.810313" lon="-118.393867">
  <ele>-0.11</ele>
  <time>2026-09-02T22:08:01Z</time>
  <course>0.0</course>
  <speed>0.0</speed>
  <fix>3d</fix>
</trkpt>
<trkpt lat="33.810313" lon="-118.393867">
  <ele>0.0</ele>
  <time>2026-09-02T22:08:01Z</time>
  <course>183.13</course>
  <speed>0.0</speed>
  <fix>3d</fix>
</trkpt>
<trkpt lat="33.810313" lon="-118.393867">
  <ele>-0.11</ele>
  <time>2026-09-02T22:08:01Z</time>
  <course>0.0</course>
  <speed>0.0</speed>
  <fix>3d</fix>
</trkpt>
<trkpt lat="33.810313" lon="-118.393867">
  <ele>0.0</ele>
  <time>2026-09-02T22:08:01Z</time>
  <course>183.39</course>
  <speed>0.0</speed>
  <fix>3d</fix>
</trkpt>
<trkpt lat="33.810313" lon="-118.393867">
  <ele>-0.11</ele>
  <time>2026-09-02T22:08:01Z</time>
  <course>0.0</course>
  <speed>0.0</speed>
  <fix>3d</fix>
</trkpt>
<trkpt lat="33.810313" lon="-118.393867">
  <ele>0.0</ele>
  <time>2026-09-02T22:08:01Z</time>
  <course>183.63</course>
  <speed>0.0</speed>
  <fix>3d</fix>
</trkpt>
<trkpt lat="33.810313" lon="-118.393867">
  <ele>-0.11</ele>
  <time>2026-09-02T22:08:01Z</time>
  <course>0.0</course>
  <speed>0.0</speed>
  <fix>3d</fix>
</trkpt>
<trkpt lat="33.810313" lon="-118.393867">
  <ele>0.0</ele>
  <time>2026-09-02T22:08:01Z</time>
  <course>183.86</course>
  <speed>0.0</speed>
  <fix>3d</fix>
</trkpt>
<trkpt lat="33.810313" lon="-118.393867">
  <ele>-0.12</ele>
  <time>2026-09-02T22:08:01Z</time>
  <course>0.0</course>
  <speed>0.0</speed>
  <fix>3d</fix>
</trkpt>
<trkpt lat="33.810313" lon="-118.393867">
  <ele>0.0</ele>
  <time>2026-09-02T22:08:01Z</time>
  <course>184.08</course>
  <speed>0.0</speed>
  <fix>3d</fix>
</trkpt>
<trkpt lat="33.810313" lon="-118.393867">
  <ele>-0.12</ele>
  <time>2026-09-02T22:08:01Z</time>
  <course>0.0</course>
  <speed>0.0</speed>
  <fix>3d</fix>
</trkpt>
<trkpt lat="33.810313" lon="-118.393867">
  <ele>0.0</ele>
  <time>2026-09-02T22:08:01Z</time>
  <course>184.3</course>
  <speed>0.0</speed>
  <fix>3d</fix>
</trkpt>
<trkpt lat="33.810313" lon="-118.393867">
  <ele>-0.13</ele>
  <time>2026-09-02T22:08:01Z</time>
  <course>0.0</course>
  <speed>0.0</speed>
  <fix>3d</fix>
</trkpt>
<trkpt lat="33.810313" lon="-118.393867">
  <ele>0.0</ele>
  <time>2026-09-02T22:08:01Z</time>
  <course>184.5</course>
  <speed>0.0</speed>
  <fix>3d</fix>
</trkpt>
<trkpt lat="33.810313" lon="-118.393867">
  <ele>-0.13</ele>
  <time>2026-09-02T22:08:01Z</time>
  <course>0.0</course>
  <speed>0.0</speed>
  <fix>3d</fix>
</trkpt>
<trkpt lat="33.810313" lon="-118.393867">
  <ele>0.0</ele>
  <time>2026-09-02T22:08:01Z</time>
  <course>184.7</course>
  <speed>0.0</speed>
  <fix>3d</fix>
</trkpt>
<trkpt lat="33.810313" lon="-118.393867">
  <ele>-0.13</ele>
  <time>2026-09-02T22:08:01Z</time>
  <course>0.0</course>
  <speed>0.0</speed>
  <fix>3d</fix>
</trkpt>
<trkpt lat="33.810313" lon="-118.393867">
  <ele>0.0</ele>
  <time>2026-09-02T22:08:01Z</time>
  <course>184.89</course>
  <speed>0.0</speed>
  <fix>3d</fix>
</trkpt>
<trkpt lat="33.810313" lon="-118.393867">
  <ele>-0.13</ele>
  <time>2026-09-02T22:08:01Z</time>
  <course>0.0</course>
  <speed>0.0</speed>
  <fix>3d</fix>
</trkpt>
<trkpt lat="33.810313" lon="-118.393867">
  <ele>0.0</ele>
  <time>2026-09-02T22:08:01Z</time>
  <course>185.07</course>
  <speed>0.0</speed>
  <fix>3d</fix>
</trkpt>
<trkpt lat="33.810313" lon="-118.393867">
  <ele>-0.14</ele>
  <time>2026-09-02T22:08:01Z</time>
  <course>0.0</course>
  <speed>0.0</speed>
  <fix>3d</fix>
</trkpt>
<trkpt lat="33.810313" lon="-118.393867">
  <ele>0.0</ele>
  <time>2026-09-02T22:08:01Z</time>
  <course>185.24</course>
  <speed>0.0</speed>
  <fix>3d</fix>
</trkpt>
<trkpt lat="33.810313" lon="-118.393867">
  <ele>-0.14</ele>
  <time>2026-09-02T22:08:01Z</time>
  <course>0.0</course>
  <speed>0.0</speed>
  <fix>3d</fix>
</trkpt>
<trkpt lat="33.810313" lon="-118.393867">
  <ele>0.0</ele>
  <time>2026-09-02T22:08:01Z</time>
  <course>185.41</course>
  <speed>0.0</speed>
  <fix>3d</fix>
</trkpt>
<trkpt lat="33.810313" lon="-118.393867">
  <ele>-0.13</ele>
  <time>2026-09-02T22:08:01Z</time>
  <course>0.0</course>
  <speed>0.0</speed>
  <fix>3d</fix>
</trkpt>
<trkpt lat="33.810313" lon="-118.393867">
  <ele>0.0</ele>
  <time>2026-09-02T22:08:01Z</time>
  <course>185.57</course>
  <speed>0.0</speed>
  <fix>3d</fix>
</trkpt>
<trkpt lat="33.810313" lon="-118.393867">
  <ele>-0.13</ele>
  <time>2026-09-02T22:08:01Z</time>
  <course>0.0</course>
  <speed>0.0</speed>
  <fix>3d</fix>
</trkpt>
<trkpt lat="33.810313" lon="-118.393867">
  <ele>0.0</ele>
  <time>2026-09-02T22:08:01Z</time>
  <course>185.72</course>
  <speed>0.0</speed>
  <fix>3d</fix>
</trkpt>
<trkpt lat="33.810313" lon="-118.393867">
  <ele>-0.13</ele>
  <time>2026-09-02T22:08:01Z</time>
  <course>0.0</course>
  <speed>0.0</speed>
  <fix>3d</fix>
</trkpt>
<trkpt lat="33.810313" lon="-118.393867">
  <ele>0.0</ele>
  <time>2026-09-02T22:08:01Z</time>
  <course>185.86</course>
  <speed>0.0</speed>
  <fix>3d</fix>
</trkpt>
<trkpt lat="33.810313" lon="-118.393867">
  <ele>-0.13</ele>
  <time>2026-09-02T22:08:01Z</time>
  <course>0.0</course>
  <speed>0.0</speed>
  <fix>3d</fix>
</trkpt>
<trkpt lat="33.810313" lon="-118.393867">
  <ele>0.0</ele>
  <time>2026-09-02T22:08:01Z</time>
  <course>186.0</course>
  <speed>0.0</speed>
  <fix>3d</fix>
</trkpt>
<trkpt lat="33.810313" lon="-118.393867">
  <ele>-0.12</ele>
  <time>2026-09-02T22:08:01Z</time>
  <course>0.0</course>
  <speed>0.0</speed>
  <fix>3d</fix>
</trkpt>
<trkpt lat="33.810313" lon="-118.393867">
  <ele>0.0</ele>
  <time>2026-09-02T22:08:01Z</time>
  <course>186.13</course>
  <speed>0.0</speed>
  <fix>3d</fix>
</trkpt>
<trkpt lat="33.810313" lon="-118.393867">
  <ele>-0.12</ele>
  <time>2026-09-02T22:08:01Z</time>
  <course>0.0</course>
  <speed>0.0</speed>
  <fix>3d</fix>
</trkpt>
<trkpt lat="33.810313" lon="-118.393867">
  <ele>0.0</ele>
  <time>2026-09-02T22:08:01Z</time>
  <course>186.26</course>
  <speed>0.0</speed>
  <fix>3d</fix>
</trkpt>
<trkpt lat="33.810313" lon="-118.393867">
  <ele>-0.12</ele>
  <time>2026-09-02T22:08:01Z</time>
  <course>0.0</course>
  <speed>0.0</speed>
  <fix>3d</fix>
</trkpt>
<trkpt lat="33.810313" lon="-118.393867">
  <ele>0.0</ele>
  <time>2026-09-02T22:08:01Z</time>
  <course>186.38</course>
  <speed>0.0</speed>
  <fix>3d</fix>
</trkpt>
<trkpt lat="33.810313" lon="-118.393867">
  <ele>-0.12</ele>
  <time>2026-09-02T22:08:01Z</time>
  <course>0.0</course>
  <speed>0.0</speed>
  <fix>3d</fix>
</trkpt>
<trkpt lat="33.810313" lon="-118.393867">
  <ele>0.0</ele>
  <time>2026-09-02T22:08:01Z</time>
  <course>186.49</course>
  <speed>0.0</speed>
  <fix>3d</fix>
</trkpt>
<trkpt lat="33.810313" lon="-118.393867">
  <ele>-0.12</ele>
  <time>2026-09-02T22:08:01Z</time>
  <course>0.0</course>
  <speed>0.0</speed>
  <fix>3d</fix>
</trkpt>
<trkpt lat="33.810313" lon="-118.393867">
  <ele>0.0</ele>
  <time>2026-09-02T22:08:01Z</time>
  <course>186.6</course>
  <speed>0.0</speed>
  <fix>3d</fix>
</trkpt>
<trkpt lat="33.810313" lon="-118.393867">
  <ele>-0.12</ele>
  <time>2026-09-02T22:08:01Z</time>
  <course>0.0</course>
  <speed>0.0</speed>
  <fix>3d</fix>
</trkpt>
<trkpt lat="33.810313" lon="-118.393867">
  <ele>0.0</ele>
  <time>2026-09-02T22:08:01Z</time>
  <course>186.71</course>
  <speed>0.0</speed>
  <fix>3d</fix>
</trkpt>
<trkpt lat="33.810313" lon="-118.393867">
  <ele>-0.12</ele>
  <time>2026-09-02T22:08:01Z</time>
  <course>0.0</course>
  <speed>0.0</speed>
  <fix>3d</fix>
</trkpt>
<trkpt lat="33.810313" lon="-118.393867">
  <ele>0.0</ele>
  <time>2026-09-02T22:08:01Z</time>
  <course>186.81</course>
  <speed>0.0</speed>
  <fix>3d</fix>
</trkpt>
<trkpt lat="33.810313" lon="-118.393867">
  <ele>-0.12</ele>
  <time>2026-09-02T22:08:01Z</time>
  <course>0.0</course>
  <speed>0.0</speed>
  <fix>3d</fix>
</trkpt>
<trkpt lat="33.810313" lon="-118.393867">
  <ele>0.0</ele>
  <time>2026-09-02T22:08:01Z</time>
  <course>186.91</course>
  <speed>0.0</speed>
  <fix>3d</fix>
</trkpt>
<trkpt lat="33.810313" lon="-118.393867">
  <ele>-0.12</ele>
  <time>2026-09-02T22:08:01Z</time>
  <course>0.0</course>
  <speed>0.0</speed>
  <fix>3d</fix>
</trkpt>
<trkpt lat="33.810313" lon="-118.393867">
  <ele>0.0</ele>
  <time>2026-09-02T22:08:01Z</time>
  <course>187.0</course>
  <speed>0.0</speed>
  <fix>3d</fix>
</trkpt>
<trkpt lat="33.810313" lon="-118.393867">
  <ele>-0.12</ele>
  <time>2026-09-02T22:08:01Z</time>
  <course>0.0</course>
  <speed>0.0</speed>
  <fix>3d</fix>
</trkpt>
<trkpt lat="33.810313" lon="-118.393867">
  <ele>0.0</ele>
  <time>2026-09-02T22:08:01Z</time>
  <course>187.08</course>
  <speed>0.0</speed>
  <fix>3d</fix>
</trkpt>
<trkpt lat="33.810313" lon="-118.393867">
  <ele>-0.13</ele>
  <time>2026-09-02T22:08:01Z</time>
  <course>0.0</course>
  <speed>0.0</speed>
  <fix>3d</fix>
</trkpt>
<trkpt lat="33.810313" lon="-118.393867">
  <ele>0.0</ele>
  <time>2026-09-02T22:08:01Z</time>
  <course>187.17</course>
  <speed>0.0</speed>
  <fix>3d</fix>
</trkpt>
<trkpt lat="33.810313" lon="-118.393867">
  <ele>-0.13</ele>
  <time>2026-09-02T22:08:01Z</time>
  <course>0.0</course>
  <speed>0.0</speed>
  <fix>3d</fix>
</trkpt>
<trkpt lat="33.810313" lon="-118.393867">
  <ele>0.0</ele>
  <time>2026-09-02T22:08:01Z</time>
  <course>187.25</course>
  <speed>0.0</speed>
  <fix>3d</fix>
</trkpt>
<trkpt lat="33.810313" lon="-118.393867">
  <ele>-0.13</ele>
  <time>2026-09-02T22:08:01Z</time>
  <course>0.0</course>
  <speed>0.0</speed>
  <fix>3d</fix>
</trkpt>
<trkpt lat="33.810313" lon="-118.393867">
  <ele>0.0</ele>
  <time>2026-09-02T22:08:01Z</time>
  <course>187.32</course>
  <speed>0.0</speed>
  <fix>3d</fix>
</trkpt>
<trkpt lat="33.810313" lon="-118.393867">
  <ele>-0.13</ele>
  <time>2026-09-02T22:08:01Z</time>
  <course>0.0</course>
  <speed>0.0</speed>
  <fix>3d</fix>
</trkpt>
<trkpt lat="33.810313" lon="-118.393867">
  <ele>0.0</ele>
  <time>2026-09-02T22:08:01Z</time>
  <course>187.39</course>
  <speed>0.0</speed>
  <fix>3d</fix>
</trkpt>
<trkpt lat="33.810313" lon="-118.393867">
  <ele>-0.13</ele>
  <time>2026-09-02T22:08:01Z</time>
  <course>0.0</course>
  <speed>0.0</speed>
  <fix>3d</fix>
</trkpt>
<trkpt lat="33.810313" lon="-118.393867">
  <ele>0.0</ele>
  <time>2026-09-02T22:08:01Z</time>
  <course>187.46</course>
  <speed>0.0</speed>
  <fix>3d</fix>
</trkpt>
<trkpt lat="33.810313" lon="-118.393867">
  <ele>-0.13</ele>
  <time>2026-09-02T22:08:01Z</time>
  <course>0.0</course>
  <speed>0.0</speed>
  <fix>3d</fix>
</trkpt>
<trkpt lat="33.810313" lon="-118.393867">
  <ele>0.0</ele>
  <time>2026-09-02T22:08:01Z</time>
  <course>187.53</course>
  <speed>0.0</speed>
  <fix>3d</fix>
</trkpt>
<trkpt lat="33.810313" lon="-118.393867">
  <ele>-0.13</ele>
  <time>2026-09-02T22:08:01Z</time>
  <course>0.0</course>
  <speed>0.0</speed>
  <fix>3d</fix>
</trkpt>
<trkpt lat="33.810313" lon="-118.393867">
  <ele>0.0</ele>
  <time>2026-09-02T22:08:01Z</time>
  <course>187.59</course>
  <speed>0.0</speed>
  <fix>3d</fix>
</trkpt>
<trkpt lat="33.810313" lon="-118.393867">
  <ele>-0.13</ele>
  <time>2026-09-02T22:08:01Z</time>
  <course>0.0</course>
  <speed>0.0</speed>
  <fix>3d</fix>
</trkpt>
<trkpt lat="33.810313" lon="-118.393867">
  <ele>0.0</ele>
  <time>2026-09-02T22:08:01Z</time>
  <course>187.65</course>
  <speed>0.0</speed>
  <fix>3d</fix>
</trkpt>
<trkpt lat="33.810313" lon="-118.393867">
  <ele>-0.12</ele>
  <time>2026-09-02T22:08:01Z</time>
  <course>0.0</course>
  <speed>0.0</speed>
  <fix>3d</fix>
</trkpt>
<trkpt lat="33.810313" lon="-118.393867">
  <ele>0.0</ele>
  <time>2026-09-02T22:08:01Z</time>
  <course>187.7</course>
  <speed>0.0</speed>
  <fix>3d</fix>
</trkpt>
<trkpt lat="33.810313" lon="-118.393867">
  <ele>-0.12</ele>
  <time>2026-09-02T22:08:01Z</time>
  <course>0.0</course>
  <speed>0.0</speed>
  <fix>3d</fix>
</trkpt>
<trkpt lat="33.810313" lon="-118.393867">
  <ele>0.0</ele>
  <time>2026-09-02T22:08:01Z</time>
  <course>187.76</course>
  <speed>0.0</speed>
  <fix>3d</fix>
</trkpt>
<trkpt lat="33.810313" lon="-118.393867">
  <ele>-0.12</ele>
  <time>2026-09-02T22:08:01Z</time>
  <course>0.0</course>
  <speed>0.0</speed>
  <fix>3d</fix>
</trkpt>
<trkpt lat="33.810313" lon="-118.393867">
  <ele>0.0</ele>
  <time>2026-09-02T22:08:01Z</time>
  <course>187.81</course>
  <speed>0.0</speed>
  <fix>3d</fix>
</trkpt>
<trkpt lat="33.810313" lon="-118.393867">
  <ele>-0.12</ele>
  <time>2026-09-02T22:08:01Z</time>
  <course>0.0</course>
  <speed>0.0</speed>
  <fix>3d</fix>
</trkpt>
<trkpt lat="33.810313" lon="-118.393867">
  <ele>0.0</ele>
  <time>2026-09-02T22:08:01Z</time>
  <course>187.86</course>
  <speed>0.0</speed>
  <fix>3d</fix>
</trkpt>
<trkpt lat="33.810313" lon="-118.393867">
  <ele>-0.12</ele>
  <time>2026-09-02T22:08:01Z</time>
  <course>0.0</course>
  <speed>0.0</speed>
  <fix>3d</fix>
</trkpt>
<trkpt lat="33.810313" lon="-118.393867">
  <ele>0.0</ele>
  <time>2026-09-02T22:08:01Z</time>
  <course>187.9</course>
  <speed>0.0</speed>
  <fix>3d</fix>
</trkpt>
<trkpt lat="33.810313" lon="-118.393867">
  <ele>-0.12</ele>
  <time>2026-09-02T22:08:01Z</time>
  <course>0.0</course>
  <speed>0.0</speed>
  <fix>3d</fix>
</trkpt>
<trkpt lat="33.810313" lon="-118.393867">
  <ele>0.0</ele>
  <time>2026-09-02T22:08:01Z</time>
  <course>187.95</course>
  <speed>0.0</speed>
  <fix>3d</fix>
</trkpt>
<trkpt lat="33.810313" lon="-118.393867">
  <ele>-0.12</ele>
  <time>2026-09-02T22:08:01Z</time>
  <course>0.0</course>
  <speed>0.0</speed>
  <fix>3d</fix>
</trkpt>
<trkpt lat="33.810313" lon="-118.393867">
  <ele>0.0</ele>
  <time>2026-09-02T22:08:01Z</time>
  <course>187.99</course>
  <speed>0.0</speed>
  <fix>3d</fix>
</trkpt>
<trkpt lat="33.810313" lon="-118.393867">
  <ele>-0.12</ele>
  <time>2026-09-02T22:08:01Z</time>
  <course>0.0</course>
  <speed>0.0</speed>
  <fix>3d</fix>
</trkpt>
<trkpt lat="33.810313" lon="-118.393867">
  <ele>0.0</ele>
  <time>2026-09-02T22:08:01Z</time>
  <course>188.03</course>
  <speed>0.0</speed>
  <fix>3d</fix>
</trkpt>
<trkpt lat="33.810313" lon="-118.393867">
  <ele>-0.12</ele>
  <time>2026-09-02T22:08:01Z</time>
  <course>0.0</course>
  <speed>0.0</speed>
  <fix>3d</fix>
</trkpt>
<trkpt lat="33.810313" lon="-118.393867">
  <ele>0.0</ele>
  <time>2026-09-02T22:08:01Z</time>
  <course>188.06</course>
  <speed>0.0</speed>
  <fix>3d</fix>
</trkpt>
<trkpt lat="33.810313" lon="-118.393867">
  <ele>-0.12</ele>
  <time>2026-09-02T22:08:01Z</time>
  <course>0.0</course>
  <speed>0.0</speed>
  <fix>3d</fix>
</trkpt>
<trkpt lat="33.810313" lon="-118.393867">
  <ele>0.0</ele>
  <time>2026-09-02T22:08:01Z</time>
  <course>188.1</course>
  <speed>0.0</speed>
  <fix>3d</fix>
</trkpt>
<trkpt lat="33.810313" lon="-118.393867">
  <ele>-0.13</ele>
  <time>2026-09-02T22:08:01Z</time>
  <course>0.0</course>
  <speed>0.0</speed>
  <fix>3d</fix>
</trkpt>
<trkpt lat="33.810313" lon="-118.393867">
  <ele>0.0</ele>
  <time>2026-09-02T22:08:01Z</time>
  <course>188.13</course>
  <speed>0.0</speed>
  <fix>3d</fix>
</trkpt>
<trkpt lat="33.810313" lon="-118.393867">
  <ele>-0.13</ele>
  <time>2026-09-02T22:08:01Z</time>
  <course>0.0</course>
  <speed>0.0</speed>
  <fix>3d</fix>
</trkpt>
<trkpt lat="33.810313" lon="-118.393867">
  <ele>0.0</ele>
  <time>2026-09-02T22:08:01Z</time>
  <course>188.16</course>
  <speed>0.0</speed>
  <fix>3d</fix>
</trkpt>
<trkpt lat="33.810313" lon="-118.393867">
  <ele>-0.13</ele>
  <time>2026-09-02T22:08:01Z</time>
  <course>0.0</course>
  <speed>0.0</speed>
  <fix>3d</fix>
</trkpt>
<trkpt lat="33.810313" lon="-118.393867">
  <ele>0.0</ele>
  <time>2026-09-02T22:08:01Z</time>
  <course>188.19</course>
  <speed>0.0</speed>
  <fix>3d</fix>
</trkpt>
<trkpt lat="33.810313" lon="-118.393867">
  <ele>-0.13</ele>
  <time>2026-09-02T22:08:01Z</time>
  <course>0.0</course>
  <speed>0.0</speed>
  <fix>3d</fix>
</trkpt>
<trkpt lat="33.810313" lon="-118.393867">
  <ele>0.0</ele>
  <time>2026-09-02T22:08:01Z</time>
  <course>188.22</course>
  <speed>0.0</speed>
  <fix>3d</fix>
</trkpt>
<trkpt lat="33.810313" lon="-118.393867">
  <ele>-0.13</ele>
  <time>2026-09-02T22:08:01Z</time>
  <course>0.0</course>
  <speed>0.0</speed>
  <fix>3d</fix>
</trkpt>
<trkpt lat="33.810313" lon="-118.393867">
  <ele>0.0</ele>
  <time>2026-09-02T22:08:01Z</time>
  <course>188.25</course>
  <speed>0.0</speed>
  <fix>3d</fix>
</trkpt>
<trkpt lat="33.810313" lon="-118.393867">
  <ele>-0.13</ele>
  <time>2026-09-02T22:08:01Z</time>
  <course>0.0</course>
  <speed>0.0</speed>
  <fix>3d</fix>
</trkpt>
<trkpt lat="33.810313" lon="-118.393867">
  <ele>0.0</ele>
  <time>2026-09-02T22:08:01Z</time>
  <course>188.27</course>
  <speed>0.0</speed>
  <fix>3d</fix>
</trkpt>
<trkpt lat="33.810313" lon="-118.393867">
  <ele>-0.12</ele>
  <time>2026-09-02T22:08:01Z</time>
  <course>0.0</course>
  <speed>0.0</speed>
  <fix>3d</fix>
</trkpt>
<trkpt lat="33.810313" lon="-118.393867">
  <ele>0.0</ele>
  <time>2026-09-02T22:08:01Z</time>
  <course>188.3</course>
  <speed>0.0</speed>
  <fix>3d</fix>
</trkpt>
<trkpt lat="33.810313" lon="-118.393867">
  <ele>-0.12</ele>
  <time>2026-09-02T22:08:01Z</time>
  <course>0.0</course>
  <speed>0.0</speed>
  <fix>3d</fix>
</trkpt>
<trkpt lat="33.810313" lon="-118.393867">
  <ele>0.0</ele>
  <time>2026-09-02T22:08:01Z</time>
  <course>188.32</course>
  <speed>0.0</speed>
  <fix>3d</fix>
</trkpt>
<trkpt lat="33.810313" lon="-118.393867">
  <ele>-0.12</ele>
  <time>2026-09-02T22:08:01Z</time>
  <course>0.0</course>
  <speed>0.0</speed>
  <fix>3d</fix>
</trkpt>
<trkpt lat="33.810313" lon="-118.393867">
  <ele>0.0</ele>
  <time>2026-09-02T22:08:01Z</time>
  <course>188.34</course>
  <speed>0.0</speed>
  <fix>3d</fix>
</trkpt>
<trkpt lat="33.810313" lon="-118.393867">
  <ele>-0.12</ele>
  <time>2026-09-02T22:08:01Z</time>
  <course>0.0</course>
  <speed>0.0</speed>
  <fix>3d</fix>
</trkpt>
<trkpt lat="33.810313" lon="-118.393867">
  <ele>0.0</ele>
  <time>2026-09-02T22:08:01Z</time>
  <course>188.36</course>
  <speed>0.0</speed>
  <fix>3d</fix>
</trkpt>
<trkpt lat="33.810313" lon="-118.393867">
  <ele>-0.12</ele>
  <time>2026-09-02T22:08:01Z</time>
  <course>0.0</course>
  <speed>0.0</speed>
  <fix>3d</fix>
</trkpt>
<trkpt lat="33.810313" lon="-118.393867">
  <ele>0.0</ele>
  <time>2026-09-02T22:08:01Z</time>
  <course>188.38</course>
  <speed>0.0</speed>
  <fix>3d</fix>
</trkpt>
<trkpt lat="33.810313" lon="-118.393867">
  <ele>-0.12</ele>
  <time>2026-09-02T22:08:01Z</time>
  <course>0.0</course>
  <speed>0.0</speed>
  <fix>3d</fix>
</trkpt>
<trkpt lat="33.810313" lon="-118.393867">
  <ele>0.0</ele>
  <time>2026-09-02T22:08:01Z</time>
  <course>188.39</course>
  <speed>0.0</speed>
  <fix>3d</fix>
</trkpt>
<trkpt lat="33.810313" lon="-118.393867">
  <ele>-0.12</ele>
  <time>2026-09-02T22:08:01Z</time>
  <course>0.0</course>
  <speed>0.0</speed>
  <fix>3d</fix>
</trkpt>
<trkpt lat="33.810313" lon="-118.393867">
  <ele>0.0</ele>
  <time>2026-09-02T22:08:01Z</time>
  <course>188.41</course>
  <speed>0.0</speed>
  <fix>3d</fix>
</trkpt>
<trkpt lat="33.810313" lon="-118.393867">
  <ele>-0.12</ele>
  <time>2026-09-02T22:08:01Z</time>
  <course>0.0</course>
  <speed>0.0</speed>
  <fix>3d</fix>
</trkpt>
<trkpt lat="33.810313" lon="-118.393867">
  <ele>0.0</ele>
  <time>2026-09-02T22:08:01Z</time>
  <course>188.43</course>
  <speed>0.0</speed>
  <fix>3d</fix>
</trkpt>
<trkpt lat="33.810313" lon="-118.393867">
  <ele>-0.12</ele>
  <time>2026-09-02T22:08:01Z</time>
  <course>0.0</course>
  <speed>0.0</speed>
  <fix>3d</fix>
</trkpt>
<trkpt lat="33.810313" lon="-118.393867">
  <ele>0.0</ele>
  <time>2026-09-02T22:08:01Z</time>
  <course>188.44</course>
  <speed>0.0</speed>
  <fix>3d</fix>
</trkpt>
<trkpt lat="33.810313" lon="-118.393867">
  <ele>-0.12</ele>
  <time>2026-09-02T22:08:01Z</time>
  <course>0.0</course>
  <speed>0.0</speed>
  <fix>3d</fix>
</trkpt>
<trkpt lat="33.810313" lon="-118.393867">
  <ele>0.0</ele>
  <time>2026-09-02T22:08:01Z</time>
  <course>188.45</course>
  <speed>0.0</speed>
  <fix>3d</fix>
</trkpt>
<trkpt lat="33.810313" lon="-118.393867">
  <ele>-0.13</ele>
  <time>2026-09-02T22:08:01Z</time>
  <course>0.0</course>
  <speed>0.0</speed>
  <fix>3d</fix>
</trkpt>
<trkpt lat="33.810313" lon="-118.393867">
  <ele>0.0</ele>
  <time>2026-09-02T22:08:01Z</time>
  <course>188.46</course>
  <speed>0.0</speed>
  <fix>3d</fix>
</trkpt>
<trkpt lat="33.810313" lon="-118.393867">
  <ele>-0.13</ele>
  <time>2026-09-02T22:08:01Z</time>
  <course>0.0</course>
  <speed>0.0</speed>
  <fix>3d</fix>
</trkpt>
<trkpt lat="33.810313" lon="-118.393867">
  <ele>0.0</ele>
  <time>2026-09-02T22:08:01Z</time>
  <course>188.47</course>
  <speed>0.0</speed>
  <fix>3d</fix>
</trkpt>
<trkpt lat="33.810313" lon="-118.393867">
  <ele>-0.13</ele>
  <time>2026-09-02T22:08:01Z</time>
  <course>0.0</course>
  <speed>0.0</speed>
  <fix>3d</fix>
</trkpt>
<trkpt lat="33.810313" lon="-118.393867">
  <ele>0.0</ele>
  <time>2026-09-02T22:08:01Z</time>
  <course>188.48</course>
  <speed>0.0</speed>
  <fix>3d</fix>
</trkpt>
<trkpt lat="33.810313" lon="-118.393867">
  <ele>-0.13</ele>
  <time>2026-09-02T22:08:01Z</time>
  <course>0.0</course>
  <speed>0.0</speed>
  <fix>3d</fix>
</trkpt>
<trkpt lat="33.810313" lon="-118.393867">
  <ele>0.0</ele>
  <time>2026-09-02T22:08:01Z</time>
  <course>188.49</course>
  <speed>0.0</speed>
  <fix>3d</fix>
</trkpt>
<trkpt lat="33.810313" lon="-118.393867">
  <ele>-0.13</ele>
  <time>2026-09-02T22:08:01Z</time>
  <course>0.0</course>
  <speed>0.0</speed>
  <fix>3d</fix>
</trkpt>
<trkpt lat="33.810313" lon="-118.393867">
  <ele>0.0</ele>
  <time>2026-09-02T22:08:01Z</time>
  <course>188.5</course>
  <speed>0.0</speed>
  <fix>3d</fix>
</trkpt>
<trkpt lat="33.810313" lon="-118.393867">
  <ele>-0.13</ele>
  <time>2026-09-02T22:08:01Z</time>
  <course>0.0</course>
  <speed>0.0</speed>
  <fix>3d</fix>
</trkpt>
<trkpt lat="33.810313" lon="-118.393867">
  <ele>0.0</ele>
  <time>2026-09-02T22:08:01Z</time>
  <course>188.51</course>
  <speed>0.0</speed>
  <fix>3d</fix>
</trkpt>
<trkpt lat="33.810313" lon="-118.393867">
  <ele>-0.12</ele>
  <time>2026-09-02T22:08:01Z</time>
  <course>0.0</course>
  <speed>0.0</speed>
  <fix>3d</fix>
</trkpt>
<trkpt lat="33.810313" lon="-118.393867">
  <ele>0.0</ele>
  <time>2026-09-02T22:08:01Z</time>
  <course>188.52</course>
  <speed>0.0</speed>
  <fix>3d</fix>
</trkpt>
<trkpt lat="33.810313" lon="-118.393867">
  <ele>-0.12</ele>
  <time>2026-09-02T22:08:01Z</time>
  <course>0.0</course>
  <speed>0.0</speed>
  <fix>3d</fix>
</trkpt>
<trkpt lat="33.810313" lon="-118.393867">
  <ele>0.0</ele>
  <time>2026-09-02T22:08:01Z</time>
  <course>188.53</course>
  <speed>0.0</speed>
  <fix>3d</fix>
</trkpt>
<trkpt lat="33.810313" lon="-118.393867">
  <ele>-0.12</ele>
  <time>2026-09-02T22:08:01Z</time>
  <course>0.0</course>
  <speed>0.0</speed>
  <fix>3d</fix>
</trkpt>
<trkpt lat="33.810313" lon="-118.393867">
  <ele>0.0</ele>
  <time>2026-09-02T22:08:01Z</time>
  <course>188.53</course>
  <speed>0.0</speed>
  <fix>3d</fix>
</trkpt>
<trkpt lat="33.810313" lon="-118.393867">
  <ele>-0.12</ele>
  <time>2026-09-02T22:08:01Z</time>
  <course>0.0</course>
  <speed>0.0</speed>
  <fix>3d</fix>
</trkpt>
<trkpt lat="33.810313" lon="-118.393867">
  <ele>0.0</ele>
  <time>2026-09-02T22:08:01Z</time>
  <course>188.54</course>
  <speed>0.0</speed>
  <fix>3d</fix>
</trkpt>
<trkpt lat="33.810313" lon="-118.393867">
  <ele>-0.12</ele>
  <time>2026-09-02T22:08:01Z</time>
  <course>0.0</course>
  <speed>0.0</speed>
  <fix>3d</fix>
</trkpt>
<trkpt lat="33.810313" lon="-118.393867">
  <ele>0.0</ele>
  <time>2026-09-02T22:08:01Z</time>
  <course>188.54</course>
  <speed>0.0</speed>
  <fix>3d</fix>
</trkpt>
<trkpt lat="33.810313" lon="-118.393867">
  <ele>-0.12</ele>
  <time>2026-09-02T22:08:01Z</time>
  <course>0.0</course>
  <speed>0.0</speed>
  <fix>3d</fix>
</trkpt>
<trkpt lat="33.810313" lon="-118.393867">
  <ele>0.0</ele>
  <time>2026-09-02T22:08:01Z</time>
  <course>188.54</course>
  <speed>0.0</speed>
  <fix>3d</fix>
</trkpt>
<trkpt lat="33.810313" lon="-118.393867">
  <ele>-0.12</ele>
  <time>2026-09-02T22:08:01Z</time>
  <course>0.0</course>
  <speed>0.0</speed>
  <fix>3d</fix>
</trkpt>
<trkpt lat="33.810313" lon="-118.393867">
  <ele>0.0</ele>
  <time>2026-09-02T22:08:01Z</time>
  <course>188.55</course>
  <speed>0.0</speed>
  <fix>3d</fix>
</trkpt>
<trkpt lat="33.810313" lon="-118.393867">
  <ele>-0.12</ele>
  <time>2026-09-02T22:08:01Z</time>
  <course>0.0</course>
  <speed>0.0</speed>
  <fix>3d</fix>
</trkpt>
<trkpt lat="33.810313" lon="-118.393867">
  <ele>0.0</ele>
  <time>2026-09-02T22:08:01Z</time>
  <course>188.55</course>
  <speed>0.0</speed>
  <fix>3d</fix>
</trkpt>
<trkpt lat="33.810313" lon="-118.393867">
  <ele>-0.12</ele>
  <time>2026-09-02T22:08:01Z</time>
  <course>0.0</course>
  <speed>0.0</speed>
  <fix>3d</fix>
</trkpt>
<trkpt lat="33.810313" lon="-118.393867">
  <ele>0.0</ele>
  <time>2026-09-02T22:08:01Z</time>
  <course>188.55</course>
  <speed>0.0</speed>
  <fix>3d</fix>
</trkpt>
<trkpt lat="33.810313" lon="-118.393867">
  <ele>-0.12</ele>
  <time>2026-09-02T22:08:01Z</time>
  <course>0.0</course>
  <speed>0.0</speed>
  <fix>3d</fix>
</trkpt>
<trkpt lat="33.810313" lon="-118.393867">
  <ele>-0.125</ele>
  <time>2026-09-02T22:08:01Z</time>
  <course>188.56</course>
  <speed>0.0</speed>
  <fix>3d</fix>
</trkpt>
<trkpt lat="33.810313" lon="-118.393867">
  <ele>-0.13</ele>
  <time>2026-09-02T22:08:01Z</time>
  <course>0.0</course>
  <speed>0.0</speed>
  <fix>3d</fix>
</trkpt>
<trkpt lat="33.810313" lon="-118.393867">
  <ele>-0.125</ele>
  <time>2026-09-02T22:08:01Z</time>
  <course>188.56</course>
  <speed>0.0</speed>
  <fix>3d</fix>
</trkpt>
<trkpt lat="33.810313" lon="-118.393867">
  <ele>-0.13</ele>
  <time>2026-09-02T22:08:01Z</time>
  <course>0.0</course>
  <speed>0.0</speed>
  <fix>3d</fix>
</trkpt>
<trkpt lat="33.810313" lon="-118.393867">
  <ele>-0.126</ele>
  <time>2026-09-02T22:08:01Z</time>
  <course>188.56</course>
  <speed>0.0</speed>
  <fix>3d</fix>
</trkpt>
<trkpt lat="33.810313" lon="-118.393867">
  <ele>-0.13</ele>
  <time>2026-09-02T22:08:01Z</time>
  <course>0.0</course>
  <speed>0.0</speed>
  <fix>3d</fix>
</trkpt>
<trkpt lat="33.810313" lon="-118.393867">
  <ele>-0.125</ele>
  <time>2026-09-02T22:08:01Z</time>
  <course>188.56</course>
  <speed>0.0</speed>
  <fix>3d</fix>
</trkpt>
<trkpt lat="33.810313" lon="-118.393867">
  <ele>-0.13</ele>
  <time>2026-09-02T22:08:01Z</time>
  <course>0.0</course>
  <speed>0.0</speed>
  <fix>3d</fix>
</trkpt>
<trkpt lat="33.810313" lon="-118.393867">
  <ele>-0.123</ele>
  <time>2026-09-02T22:08:01Z</time>
  <course>188.56</course>
  <speed>0.0</speed>
  <fix>3d</fix>
</trkpt>
<trkpt lat="33.810313" lon="-118.393867">
  <ele>-0.12</ele>
  <time>2026-09-02T22:08:01Z</time>
  <course>0.0</course>
  <speed>0.0</speed>
  <fix>3d</fix>
</trkpt>
<trkpt lat="33.810313" lon="-118.393867">
  <ele>-0.12</ele>
  <time>2026-09-02T22:08:01Z</time>
  <course>188.56</course>
  <speed>0.0</speed>
  <fix>3d</fix>
</trkpt>
<trkpt lat="33.810313" lon="-118.393867">
  <ele>-0.12</ele>
  <time>2026-09-02T22:08:01Z</time>
  <course>0.0</course>
  <speed>0.0</speed>
  <fix>3d</fix>
</trkpt>
<trkpt lat="33.810313" lon="-118.393867">
  <ele>-0.118</ele>
  <time>2026-09-02T22:08:01Z</time>
  <course>188.56</course>
  <speed>0.0</speed>
  <fix>3d</fix>
</trkpt>
<trkpt lat="33.810313" lon="-118.393867">
  <ele>-0.12</ele>
  <time>2026-09-02T22:08:01Z</time>
  <course>0.0</course>
  <speed>0.0</speed>
  <fix>3d</fix>
</trkpt>
<trkpt lat="33.810313" lon="-118.393867">
  <ele>-0.117</ele>
  <time>2026-09-02T22:08:01Z</time>
  <course>188.56</course>
  <speed>0.0</speed>
  <fix>3d</fix>
</trkpt>
<trkpt lat="33.810313" lon="-118.393867">
  <ele>-0.12</ele>
  <time>2026-09-02T22:08:01Z</time>
  <course>0.0</course>
  <speed>0.0</speed>
  <fix>3d</fix>
</trkpt>
<trkpt lat="33.810313" lon="-118.393867">
  <ele>-0.118</ele>
  <time>2026-09-02T22:08:01Z</time>
  <course>188.55</course>
  <speed>0.0</speed>
  <fix>3d</fix>
</trkpt>
<trkpt lat="33.810313" lon="-118.393867">
  <ele>-0.12</ele>
  <time>2026-09-02T22:08:01Z</time>
  <course>0.0</course>
  <speed>0.0</speed>
  <fix>3d</fix>
</trkpt>
<trkpt lat="33.810313" lon="-118.393867">
  <ele>-0.121</ele>
  <time>2026-09-02T22:08:01Z</time>
  <course>188.55</course>
  <speed>0.0</speed>
  <fix>3d</fix>
</trkpt>
<trkpt lat="33.810313" lon="-118.393867">
  <ele>-0.12</ele>
  <time>2026-09-02T22:08:01Z</time>
  <course>0.0</course>
  <speed>0.0</speed>
  <fix>3d</fix>
</trkpt>
<trkpt lat="33.810313" lon="-118.393867">
  <ele>-0.123</ele>
  <time>2026-09-02T22:08:01Z</time>
  <course>188.55</course>
  <speed>0.0</speed>
  <fix>3d</fix>
</trkpt>
<trkpt lat="33.810313" lon="-118.393867">
  <ele>-0.12</ele>
  <time>2026-09-02T22:08:01Z</time>
  <course>0.0</course>
  <speed>0.0</speed>
  <fix>3d</fix>
</trkpt>
<trkpt lat="33.810313" lon="-118.393867">
  <ele>-0.124</ele>
  <time>2026-09-02T22:08:01Z</time>
  <course>188.55</course>
  <speed>0.0</speed>
  <fix>3d</fix>
</trkpt>
<trkpt lat="33.810313" lon="-118.393867">
  <ele>-0.12</ele>
  <time>2026-09-02T22:08:01Z</time>
  <course>0.0</course>
  <speed>0.0</speed>
  <fix>3d</fix>
</trkpt>
<trkpt lat="33.810313" lon="-118.393867">
  <ele>-0.125</ele>
  <time>2026-09-02T22:08:01Z</time>
  <course>188.55</course>
  <speed>0.0</speed>
  <fix>3d</fix>
</trkpt>
<trkpt lat="33.810313" lon="-118.393867">
  <ele>-0.12</ele>
  <time>2026-09-02T22:08:01Z</time>
  <course>0.0</course>
  <speed>0.0</speed>
  <fix>3d</fix>
</trkpt>
<trkpt lat="33.810313" lon="-118.393867">
  <ele>-0.125</ele>
  <time>2026-09-02T22:08:01Z</time>
  <course>188.55</course>
  <speed>0.0</speed>
  <fix>3d</fix>
</trkpt>
<trkpt lat="33.810313" lon="-118.393867">
  <ele>-0.12</ele>
  <time>2026-09-02T22:08:01Z</time>
  <course>0.0</course>
  <speed>0.0</speed>
  <fix>3d</fix>
</trkpt>
<trkpt lat="33.810313" lon="-118.393867">
  <ele>-0.126</ele>
  <time>2026-09-02T22:08:01Z</time>
  <course>188.55</course>
  <speed>0.0</speed>
  <fix>3d</fix>
</trkpt>
<trkpt lat="33.810313" lon="-118.393867">
  <ele>-0.12</ele>
  <time>2026-09-02T22:08:01Z</time>
  <course>0.0</course>
  <speed>0.0</speed>
  <fix>3d</fix>
</trkpt>
<trkpt lat="33.810313" lon="-118.393867">
  <ele>-0.125</ele>
  <time>2026-09-02T22:08:01Z</time>
  <course>188.55</course>
  <speed>0.0</speed>
  <fix>3d</fix>
</trkpt>
<trkpt lat="33.810313" lon="-118.393867">
  <ele>-0.12</ele>
  <time>2026-09-02T22:08:01Z</time>
  <course>0.0</course>
  <speed>0.0</speed>
  <fix>3d</fix>
</trkpt>
<trkpt lat="33.810313" lon="-118.393867">
  <ele>-0.124</ele>
  <time>2026-09-02T22:08:01Z</time>
  <course>188.54</course>
  <speed>0.0</speed>
  <fix>3d</fix>
</trkpt>
<trkpt lat="33.810313" lon="-118.393867">
  <ele>-0.13</ele>
  <time>2026-09-02T22:08:01Z</time>
  <course>0.0</course>
  <speed>0.0</speed>
  <fix>3d</fix>
</trkpt>
<trkpt lat="33.810313" lon="-118.393867">
  <ele>-0.122</ele>
  <time>2026-09-02T22:08:01Z</time>
  <course>188.54</course>
  <speed>0.0</speed>
  <fix>3d</fix>
</trkpt>
<trkpt lat="33.810313" lon="-118.393867">
  <ele>-0.13</ele>
  <time>2026-09-02T22:08:01Z</time>
  <course>0.0</course>
  <speed>0.0</speed>
  <fix>3d</fix>
</trkpt>
<trkpt lat="33.810313" lon="-118.393867">
  <ele>-0.119</ele>
  <time>2026-09-02T22:08:01Z</time>
  <course>188.54</course>
  <speed>0.0</speed>
  <fix>3d</fix>
</trkpt>
<trkpt lat="33.810313" lon="-118.393867">
  <ele>-0.12</ele>
  <time>2026-09-02T22:08:01Z</time>
  <course>0.0</course>
  <speed>0.0</speed>
  <fix>3d</fix>
</trkpt>
<trkpt lat="33.810313" lon="-118.393867">
  <ele>-0.115</ele>
  <time>2026-09-02T22:08:01Z</time>
  <course>188.53</course>
  <speed>0.0</speed>
  <fix>3d</fix>
</trkpt>
<trkpt lat="33.810313" lon="-118.393867">
  <ele>-0.12</ele>
  <time>2026-09-02T22:08:01Z</time>
  <course>0.0</course>
  <speed>0.0</speed>
  <fix>3d</fix>
</trkpt>
<trkpt lat="33.810313" lon="-118.393867">
  <ele>-0.112</ele>
  <time>2026-09-02T22:08:01Z</time>
  <course>188.53</course>
  <speed>0.0</speed>
  <fix>3d</fix>
</trkpt>
<trkpt lat="33.810313" lon="-118.393867">
  <ele>-0.12</ele>
  <time>2026-09-02T22:08:01Z</time>
  <course>0.0</course>
  <speed>0.0</speed>
  <fix>3d</fix>
</trkpt>
<trkpt lat="33.810313" lon="-118.393867">
  <ele>-0.111</ele>
  <time>2026-09-02T22:08:01Z</time>
  <course>188.52</course>
  <speed>0.0</speed>
  <fix>3d</fix>
</trkpt>
<trkpt lat="33.810313" lon="-118.393867">
  <ele>-0.12</ele>
  <time>2026-09-02T22:08:01Z</time>
  <course>0.0</course>
  <speed>0.0</speed>
  <fix>3d</fix>
</trkpt>
<trkpt lat="33.810313" lon="-118.393867">
  <ele>-0.112</ele>
  <time>2026-09-02T22:08:01Z</time>
  <course>188.52</course>
  <speed>0.0</speed>
  <fix>3d</fix>
</trkpt>
<trkpt lat="33.810313" lon="-118.393867">
  <ele>-0.12</ele>
  <time>2026-09-02T22:08:01Z</time>
  <course>0.0</course>
  <speed>0.0</speed>
  <fix>3d</fix>
</trkpt>
<trkpt lat="33.810313" lon="-118.393867">
  <ele>-0.113</ele>
  <time>2026-09-02T22:08:01Z</time>
  <course>188.51</course>
  <speed>0.0</speed>
  <fix>3d</fix>
</trkpt>
<trkpt lat="33.810313" lon="-118.393867">
  <ele>-0.12</ele>
  <time>2026-09-02T22:08:01Z</time>
  <course>0.0</course>
  <speed>0.0</speed>
  <fix>3d</fix>
</trkpt>
<trkpt lat="33.810313" lon="-118.393867">
  <ele>-0.113</ele>
  <time>2026-09-02T22:08:01Z</time>
  <course>188.51</course>
  <speed>0.0</speed>
  <fix>3d</fix>
</trkpt>
<trkpt lat="33.810313" lon="-118.393867">
  <ele>-0.12</ele>
  <time>2026-09-02T22:08:01Z</time>
  <course>0.0</course>
  <speed>0.0</speed>
  <fix>3d</fix>
</trkpt>
<trkpt lat="33.810313" lon="-118.393867">
  <ele>-0.113</ele>
  <time>2026-09-02T22:08:01Z</time>
  <course>188.5</course>
  <speed>0.0</speed>
  <fix>3d</fix>
</trkpt>
<trkpt lat="33.810313" lon="-118.393867">
  <ele>-0.12</ele>
  <time>2026-09-02T22:08:01Z</time>
  <course>0.0</course>
  <speed>0.0</speed>
  <fix>3d</fix>
</trkpt>
<trkpt lat="33.810313" lon="-118.393867">
  <ele>-0.112</ele>
  <time>2026-09-02T22:08:01Z</time>
  <course>188.49</course>
  <speed>0.0</speed>
  <fix>3d</fix>
</trkpt>
<trkpt lat="33.810313" lon="-118.393867">
  <ele>-0.12</ele>
  <time>2026-09-02T22:08:01Z</time>
  <course>0.0</course>
  <speed>0.0</speed>
  <fix>3d</fix>
</trkpt>
<trkpt lat="33.810313" lon="-118.393867">
  <ele>-0.111</ele>
  <time>2026-09-02T22:08:01Z</time>
  <course>188.49</course>
  <speed>0.01</speed>
  <fix>3d</fix>
</trkpt>
<trkpt lat="33.810313" lon="-118.393867">
  <ele>-0.12</ele>
  <time>2026-09-02T22:08:01Z</time>
  <course>0.0</course>
  <speed>0.0</speed>
  <fix>3d</fix>
</trkpt>
<trkpt lat="33.810313" lon="-118.393867">
  <ele>-0.11</ele>
  <time>2026-09-02T22:08:01Z</time>
  <course>188.48</course>
  <speed>0.01</speed>
  <fix>3d</fix>
</trkpt>
<trkpt lat="33.810313" lon="-118.393867">
  <ele>-0.12</ele>
  <time>2026-09-02T22:08:01Z</time>
  <course>0.0</course>
  <speed>0.0</speed>
  <fix>3d</fix>
</trkpt>
<trkpt lat="33.810313" lon="-118.393867">
  <ele>-0.109</ele>
  <time>2026-09-02T22:08:01Z</time>
  <course>188.47</course>
  <speed>0.01</speed>
  <fix>3d</fix>
</trkpt>
<trkpt lat="33.810313" lon="-118.393867">
  <ele>-0.12</ele>
  <time>2026-09-02T22:08:01Z</time>
  <course>0.0</course>
  <speed>0.0</speed>
  <fix>3d</fix>
</trkpt>
<trkpt lat="33.810313" lon="-118.393867">
  <ele>-0.107</ele>
  <time>2026-09-02T22:08:01Z</time>
  <course>188.47</course>
  <speed>0.01</speed>
  <fix>3d</fix>
</trkpt>
<trkpt lat="33.810313" lon="-118.393867">
  <ele>-0.12</ele>
  <time>2026-09-02T22:08:01Z</time>
  <course>0.0</course>
  <speed>0.0</speed>
  <fix>3d</fix>
</trkpt>
<trkpt lat="33.810313" lon="-118.393867">
  <ele>-0.105</ele>
  <time>2026-09-02T22:08:01Z</time>
  <course>188.46</course>
  <speed>0.01</speed>
  <fix>3d</fix>
</trkpt>
<trkpt lat="33.810313" lon="-118.393867">
  <ele>-0.12</ele>
  <time>2026-09-02T22:08:01Z</time>
  <course>0.0</course>
  <speed>0.0</speed>
  <fix>3d</fix>
</trkpt>
<trkpt lat="33.810313" lon="-118.393867">
  <ele>-0.102</ele>
  <time>2026-09-02T22:08:01Z</time>
  <course>188.46</course>
  <speed>0.01</speed>
  <fix>3d</fix>
</trkpt>
<trkpt lat="33.810313" lon="-118.393867">
  <ele>-0.12</ele>
  <time>2026-09-02T22:08:01Z</time>
  <course>0.0</course>
  <speed>0.0</speed>
  <fix>3d</fix>
</trkpt>
<trkpt lat="33.810313" lon="-118.393867">
  <ele>-0.101</ele>
  <time>2026-09-02T22:08:01Z</time>
  <course>188.45</course>
  <speed>0.01</speed>
  <fix>3d</fix>
</trkpt>
<trkpt lat="33.810313" lon="-118.393867">
  <ele>-0.12</ele>
  <time>2026-09-02T22:08:01Z</time>
  <course>0.0</course>
  <speed>0.0</speed>
  <fix>3d</fix>
</trkpt>
<trkpt lat="33.810313" lon="-118.393867">
  <ele>-0.102</ele>
  <time>2026-09-02T22:08:01Z</time>
  <course>188.44</course>
  <speed>0.01</speed>
  <fix>3d</fix>
</trkpt>
<trkpt lat="33.810313" lon="-118.393867">
  <ele>-0.12</ele>
  <time>2026-09-02T22:08:01Z</time>
  <course>0.0</course>
  <speed>0.0</speed>
  <fix>3d</fix>
</trkpt>
<trkpt lat="33.810313" lon="-118.393867">
  <ele>-0.103</ele>
  <time>2026-09-02T22:08:01Z</time>
  <course>188.43</course>
  <speed>0.01</speed>
  <fix>3d</fix>
</trkpt>
<trkpt lat="33.810313" lon="-118.393867">
  <ele>-0.12</ele>
  <time>2026-09-02T22:08:01Z</time>
  <course>0.0</course>
  <speed>0.0</speed>
  <fix>3d</fix>
</trkpt>
<trkpt lat="33.810313" lon="-118.393867">
  <ele>-0.105</ele>
  <time>2026-09-02T22:08:01Z</time>
  <course>188.43</course>
  <speed>0.01</speed>
  <fix>3d</fix>
</trkpt>
<trkpt lat="33.810313" lon="-118.393867">
  <ele>-0.12</ele>
  <time>2026-09-02T22:08:01Z</time>
  <course>0.0</course>
  <speed>0.0</speed>
  <fix>3d</fix>
</trkpt>
<trkpt lat="33.810313" lon="-118.393867">
  <ele>-0.106</ele>
  <time>2026-09-02T22:08:01Z</time>
  <course>188.42</course>
  <speed>0.01</speed>
  <fix>3d</fix>
</trkpt>
<trkpt lat="33.810313" lon="-118.393867">
  <ele>-0.12</ele>
  <time>2026-09-02T22:08:01Z</time>
  <course>0.0</course>
  <speed>0.0</speed>
  <fix>3d</fix>
</trkpt>
<trkpt lat="33.810313" lon="-118.393867">
  <ele>-0.107</ele>
  <time>2026-09-02T22:08:01Z</time>
  <course>188.41</course>
  <speed>0.01</speed>
  <fix>3d</fix>
</trkpt>
<trkpt lat="33.810313" lon="-118.393867">
  <ele>-0.12</ele>
  <time>2026-09-02T22:08:01Z</time>
  <course>0.0</course>
  <speed>0.0</speed>
  <fix>3d</fix>
</trkpt>
<trkpt lat="33.810313" lon="-118.393867">
  <ele>-0.108</ele>
  <time>2026-09-02T22:08:01Z</time>
  <course>188.41</course>
  <speed>0.01</speed>
  <fix>3d</fix>
</trkpt>
<trkpt lat="33.810313" lon="-118.393867">
  <ele>-0.12</ele>
  <time>2026-09-02T22:08:01Z</time>
  <course>0.0</course>
  <speed>0.0</speed>
  <fix>3d</fix>
</trkpt>
<trkpt lat="33.810313" lon="-118.393867">
  <ele>-0.108</ele>
  <time>2026-09-02T22:08:01Z</time>
  <course>188.4</course>
  <speed>0.01</speed>
  <fix>3d</fix>
</trkpt>
<trkpt lat="33.810313" lon="-118.393867">
  <ele>-0.12</ele>
  <time>2026-09-02T22:08:01Z</time>
  <course>0.0</course>
  <speed>0.0</speed>
  <fix>3d</fix>
</trkpt>
<trkpt lat="33.810313" lon="-118.393867">
  <ele>-0.109</ele>
  <time>2026-09-02T22:08:01Z</time>
  <course>188.39</course>
  <speed>0.01414213562373095</speed>
  <fix>3d</fix>
</trkpt>
<trkpt lat="33.810313" lon="-118.393867">
  <ele>-0.12</ele>
  <time>2026-09-02T22:08:01Z</time>
  <course>0.0</course>
  <speed>0.0</speed>
  <fix>3d</fix>
</trkpt>
<trkpt lat="33.810313" lon="-118.393867">
  <ele>-0.11</ele>
  <time>2026-09-02T22:08:01Z</time>
  <course>188.38</course>
  <speed>0.01414213562373095</speed>
  <fix>3d</fix>
</trkpt>
<trkpt lat="33.810313" lon="-118.393867">
  <ele>-0.12</ele>
  <time>2026-09-02T22:08:01Z</time>
  <course>0.0</course>
  <speed>0.0</speed>
  <fix>3d</fix>
</trkpt>
<trkpt lat="33.810313" lon="-118.393867">
  <ele>-0.109</ele>
  <time>2026-09-02T22:08:01Z</time>
  <course>188.38</course>
  <speed>0.01414213562373095</speed>
  <fix>3d</fix>
</trkpt>
<trkpt lat="33.810313" lon="-118.393867">
  <ele>-0.12</ele>
  <time>2026-09-02T22:08:01Z</time>
  <course>0.0</course>
  <speed>0.0</speed>
  <fix>3d</fix>
</trkpt>
<trkpt lat="33.810313" lon="-118.393867">
  <ele>-0.108</ele>
  <time>2026-09-02T22:08:01Z</time>
  <course>188.37</course>
  <speed>0.01414213562373095</speed>
  <fix>3d</fix>
</trkpt>
<trkpt lat="33.810313" lon="-118.393867">
  <ele>-0.12</ele>
  <time>2026-09-02T22:08:01Z</time>
  <course>0.0</course>
  <speed>0.0</speed>
  <fix>3d</fix>
</trkpt>
<trkpt lat="33.810313" lon="-118.393867">
  <ele>-0.106</ele>
  <time>2026-09-02T22:08:01Z</time>
  <course>188.36</course>
  <speed>0.01414213562373095</speed>
  <fix>3d</fix>
</trkpt>
<trkpt lat="33.810313" lon="-118.393867">
  <ele>-0.12</ele>
  <time>2026-09-02T22:08:01Z</time>
  <course>0.0</course>
  <speed>0.0</speed>
  <fix>3d</fix>
</trkpt>
<trkpt lat="33.810313" lon="-118.393867">
  <ele>-0.105</ele>
  <time>2026-09-02T22:08:01Z</time>
  <course>188.35</course>
  <speed>0.01414213562373095</speed>
  <fix>3d</fix>
</trkpt>
<trkpt lat="33.810313" lon="-118.393867">
  <ele>-0.12</ele>
  <time>2026-09-02T22:08:01Z</time>
  <course>0.0</course>
  <speed>0.0</speed>
  <fix>3d</fix>
</trkpt>
<trkpt lat="33.810313" lon="-118.393867">
  <ele>-0.105</ele>
  <time>2026-09-02T22:08:01Z</time>
  <course>188.35</course>
  <speed>0.01414213562373095</speed>
  <fix>3d</fix>
</trkpt>
<trkpt lat="33.810313" lon="-118.393867">
  <ele>-0.12</ele>
  <time>2026-09-02T22:08:01Z</time>
  <course>0.0</course>
  <speed>0.0</speed>
  <fix>3d</fix>
</trkpt>
<trkpt lat="33.810313" lon="-118.393867">
  <ele>-0.107</ele>
  <time>2026-09-02T22:08:01Z</time>
  <course>188.34</course>
  <speed>0.01414213562373095</speed>
  <fix>3d</fix>
</trkpt>
<trkpt lat="33.810313" lon="-118.393867">
  <ele>-0.12</ele>
  <time>2026-09-02T22:08:01Z</time>
  <course>0.0</course>
  <speed>0.0</speed>
  <fix>3d</fix>
</trkpt>
<trkpt lat="33.810313" lon="-118.393867">
  <ele>-0.11</ele>
  <time>2026-09-02T22:08:01Z</time>
  <course>188.33</course>
  <speed>0.01414213562373095</speed>
  <fix>3d</fix>
</trkpt>
<trkpt lat="33.810313" lon="-118.393867">
  <ele>-0.12</ele>
  <time>2026-09-02T22:08:01Z</time>
  <course>0.0</course>
  <speed>0.0</speed>
  <fix>3d</fix>
</trkpt>
<trkpt lat="33.810313" lon="-118.393867">
  <ele>-0.114</ele>
  <time>2026-09-02T22:08:01Z</time>
  <course>188.32</course>
  <speed>0.01414213562373095</speed>
  <fix>3d</fix>
</trkpt>
<trkpt lat="33.810313" lon="-118.393867">
  <ele>-0.12</ele>
  <time>2026-09-02T22:08:01Z</time>
  <course>0.0</course>
  <speed>0.0</speed>
  <fix>3d</fix>
</trkpt>
<trkpt lat="33.810313" lon="-118.393867">
  <ele>-0.118</ele>
  <time>2026-09-02T22:08:01Z</time>
  <course>188.31</course>
  <speed>0.01414213562373095</speed>
  <fix>3d</fix>
</trkpt>
<trkpt lat="33.810313" lon="-118.393867">
  <ele>-0.12</ele>
  <time>2026-09-02T22:08:01Z</time>
  <course>0.0</course>
  <speed>0.0</speed>
  <fix>3d</fix>
</trkpt>
<trkpt lat="33.810313" lon="-118.393867">
  <ele>-0.121</ele>
  <time>2026-09-02T22:08:01Z</time>
  <course>188.31</course>
  <speed>0.01414213562373095</speed>
  <fix>3d</fix>
</trkpt>
<trkpt lat="33.810313" lon="-118.393867">
  <ele>-0.12</ele>
  <time>2026-09-02T22:08:01Z</time>
  <course>0.0</course>
  <speed>0.0</speed>
  <fix>3d</fix>
</trkpt>
<trkpt lat="33.810313" lon="-118.393867">
  <ele>-0.123</ele>
  <time>2026-09-02T22:08:01Z</time>
  <course>188.3</course>
  <speed>0.01414213562373095</speed>
  <fix>3d</fix>
</trkpt>
<trkpt lat="33.810313" lon="-118.393867">
  <ele>-0.12</ele>
  <time>2026-09-02T22:08:01Z</time>
  <course>0.0</course>
  <speed>0.0</speed>
  <fix>3d</fix>
</trkpt>
<trkpt lat="33.810313" lon="-118.393867">
  <ele>-0.122</ele>
  <time>2026-09-02T22:08:01Z</time>
  <course>188.29</course>
  <speed>0.01414213562373095</speed>
  <fix>3d</fix>
</trkpt>
<trkpt lat="33.810313" lon="-118.393867">
  <ele>-0.12</ele>
  <time>2026-09-02T22:08:01Z</time>
  <course>0.0</course>
  <speed>0.0</speed>
  <fix>3d</fix>
</trkpt>
<trkpt lat="33.810313" lon="-118.393867">
  <ele>-0.121</ele>
  <time>2026-09-02T22:08:01Z</time>
  <course>188.28</course>
  <speed>0.01414213562373095</speed>
  <fix>3d</fix>
</trkpt>
<trkpt lat="33.810313" lon="-118.393867">
  <ele>-0.12</ele>
  <time>2026-09-02T22:08:01Z</time>
  <course>0.0</course>
  <speed>0.0</speed>
  <fix>3d</fix>
</trkpt>
<trkpt lat="33.810313" lon="-118.393867">
  <ele>-0.119</ele>
  <time>2026-09-02T22:08:01Z</time>
  <course>188.27</course>
  <speed>0.01414213562373095</speed>
  <fix>3d</fix>
</trkpt>
<trkpt lat="33.810313" lon="-118.393867">
  <ele>-0.12</ele>
  <time>2026-09-02T22:08:01Z</time>
  <course>0.0</course>
  <speed>0.0</speed>
  <fix>3d</fix>
</trkpt>
<trkpt lat="33.810313" lon="-118.393867">
  <ele>-0.116</ele>
  <time>2026-09-02T22:08:01Z</time>
  <course>188.26</course>
  <speed>0.01414213562373095</speed>
  <fix>3d</fix>
</trkpt>
<trkpt lat="33.810313" lon="-118.393867">
  <ele>-0.12</ele>
  <time>2026-09-02T22:08:01Z</time>
  <course>0.0</course>
  <speed>0.0</speed>
  <fix>3d</fix>
</trkpt>
<trkpt lat="33.810313" lon="-118.393867">
  <ele>-0.113</ele>
  <time>2026-09-02T22:08:01Z</time>
  <course>188.26</course>
  <speed>0.01414213562373095</speed>
  <fix>3d</fix>
</trkpt>
<trkpt lat="33.810313" lon="-118.393867">
  <ele>-0.12</ele>
  <time>2026-09-02T22:08:01Z</time>
  <course>0.0</course>
  <speed>0.0</speed>
  <fix>3d</fix>
</trkpt>
<trkpt lat="33.810313" lon="-118.393867">
  <ele>-0.112</ele>
  <time>2026-09-02T22:08:01Z</time>
  <course>188.25</course>
  <speed>0.01414213562373095</speed>
  <fix>3d</fix>
</trkpt>
<trkpt lat="33.810313" lon="-118.393867">
  <ele>-0.12</ele>
  <time>2026-09-02T22:08:01Z</time>
  <course>0.0</course>
  <speed>0.0</speed>
  <fix>3d</fix>
</trkpt>
<trkpt lat="33.810313" lon="-118.393867">
  <ele>-0.112</ele>
  <time>2026-09-02T22:08:01Z</time>
  <course>188.24</course>
  <speed>0.01414213562373095</speed>
  <fix>3d</fix>
</trkpt>
<trkpt lat="33.810313" lon="-118.393867">
  <ele>-0.12</ele>
  <time>2026-09-02T22:08:01Z</time>
  <course>0.0</course>
  <speed>0.0</speed>
  <fix>3d</fix>
</trkpt>
<trkpt lat="33.810313" lon="-118.393867">
  <ele>-0.113</ele>
  <time>2026-09-02T22:08:01Z</time>
  <course>188.23</course>
  <speed>0.01414213562373095</speed>
  <fix>3d</fix>
</trkpt>
<trkpt lat="33.810313" lon="-118.393867">
  <ele>-0.12</ele>
  <time>2026-09-02T22:08:01Z</time>
  <course>0.0</course>
  <speed>0.0</speed>
  <fix>3d</fix>
</trkpt>
<trkpt lat="33.810313" lon="-118.393867">
  <ele>-0.116</ele>
  <time>2026-09-02T22:08:01Z</time>
  <course>188.22</course>
  <speed>0.01414213562373095</speed>
  <fix>3d</fix>
</trkpt>
<trkpt lat="33.810313" lon="-118.393867">
  <ele>-0.12</ele>
  <time>2026-09-02T22:08:01Z</time>
  <course>0.0</course>
  <speed>0.0</speed>
  <fix>3d</fix>
</trkpt>
<trkpt lat="33.810313" lon="-118.393867">
  <ele>-0.117</ele>
  <time>2026-09-02T22:08:01Z</time>
  <course>188.22</course>
  <speed>0.01414213562373095</speed>
  <fix>3d</fix>
</trkpt>
<trkpt lat="33.810313" lon="-118.393867">
  <ele>-0.12</ele>
  <time>2026-09-02T22:08:01Z</time>
  <course>0.0</course>
  <speed>0.0</speed>
  <fix>3d</fix>
</trkpt>
<trkpt lat="33.810313" lon="-118.393867">
  <ele>-0.118</ele>
  <time>2026-09-02T22:08:01Z</time>
  <course>188.21</course>
  <speed>0.01414213562373095</speed>
  <fix>3d</fix>
</trkpt>
<trkpt lat="33.810313" lon="-118.393867">
  <ele>-0.12</ele>
  <time>2026-09-02T22:08:01Z</time>
  <course>0.0</course>
  <speed>0.0</speed>
  <fix>3d</fix>
</trkpt>
<trkpt lat="33.810313" lon="-118.393867">
  <ele>-0.117</ele>
  <time>2026-09-02T22:08:01Z</time>
  <course>188.2</course>
  <speed>0.01414213562373095</speed>
  <fix>3d</fix>
</trkpt>
<trkpt lat="33.810313" lon="-118.393867">
  <ele>-0.12</ele>
  <time>2026-09-02T22:08:01Z</time>
  <course>0.0</course>
  <speed>0.0</speed>
  <fix>3d</fix>
</trkpt>
<trkpt lat="33.810313" lon="-118.393867">
  <ele>-0.116</ele>
  <time>2026-09-02T22:08:01Z</time>
  <course>188.19</course>
  <speed>0.01414213562373095</speed>
  <fix>3d</fix>
</trkpt>
<trkpt lat="33.810313" lon="-118.393867">
  <ele>-0.12</ele>
  <time>2026-09-02T22:08:01Z</time>
  <course>0.0</course>
  <speed>0.0</speed>
  <fix>3d</fix>
</trkpt>
<trkpt lat="33.810313" lon="-118.393867">
  <ele>-0.116</ele>
  <time>2026-09-02T22:08:01Z</time>
  <course>188.18</course>
  <speed>0.01414213562373095</speed>
  <fix>3d</fix>
</trkpt>
<trkpt lat="33.810313" lon="-118.393867">
  <ele>-0.12</ele>
  <time>2026-09-02T22:08:01Z</time>
  <course>0.0</course>
  <speed>0.0</speed>
  <fix>3d</fix>
</trkpt>
<trkpt lat="33.810313" lon="-118.393867">
  <ele>-0.115</ele>
  <time>2026-09-02T22:08:01Z</time>
  <course>188.17</course>
  <speed>0.01414213562373095</speed>
  <fix>3d</fix>
</trkpt>
<trkpt lat="33.810313" lon="-118.393867">
  <ele>-0.12</ele>
  <time>2026-09-02T22:08:01Z</time>
  <course>0.0</course>
  <speed>0.0</speed>
  <fix>3d</fix>
</trkpt>
<trkpt lat="33.810313" lon="-118.393867">
  <ele>-0.113</ele>
  <time>2026-09-02T22:08:01Z</time>
  <course>188.17</course>
  <speed>0.01414213562373095</speed>
  <fix>3d</fix>
</trkpt>
<trkpt lat="33.810313" lon="-118.393867">
  <ele>-0.12</ele>
  <time>2026-09-02T22:08:01Z</time>
  <course>0.0</course>
  <speed>0.0</speed>
  <fix>3d</fix>
</trkpt>
<trkpt lat="33.810313" lon="-118.393867">
  <ele>-0.111</ele>
  <time>2026-09-02T22:08:01Z</time>
  <course>188.16</course>
  <speed>0.01414213562373095</speed>
  <fix>3d</fix>
</trkpt>
<trkpt lat="33.810313" lon="-118.393867">
  <ele>-0.12</ele>
  <time>2026-09-02T22:08:01Z</time>
  <course>0.0</course>
  <speed>0.0</speed>
  <fix>3d</fix>
</trkpt>
<trkpt lat="33.810313" lon="-118.393867">
  <ele>-0.111</ele>
  <time>2026-09-02T22:08:01Z</time>
  <course>188.15</course>
  <speed>0.01414213562373095</speed>
  <fix>3d</fix>
</trkpt>
<trkpt lat="33.810313" lon="-118.393867">
  <ele>-0.12</ele>
  <time>2026-09-02T22:08:01Z</time>
  <course>0.0</course>
  <speed>0.0</speed>
  <fix>3d</fix>
</trkpt>
<trkpt lat="33.810313" lon="-118.393867">
  <ele>-0.111</ele>
  <time>2026-09-02T22:08:01Z</time>
  <course>188.14</course>
  <speed>0.01414213562373095</speed>
  <fix>3d</fix>
</trkpt>
<trkpt lat="33.810313" lon="-118.393867">
  <ele>-0.12</ele>
  <time>2026-09-02T22:08:01Z</time>
  <course>0.0</course>
  <speed>0.0</speed>
  <fix>3d</fix>
</trkpt>
<trkpt lat="33.810313" lon="-118.393867">
  <ele>-0.113</ele>
  <time>2026-09-02T22:08:01Z</time>
  <course>188.13</course>
  <speed>0.01414213562373095</speed>
  <fix>3d</fix>
</trkpt>
<trkpt lat="33.810313" lon="-118.393867">
  <ele>-0.12</ele>
  <time>2026-09-02T22:08:01Z</time>
  <course>0.0</course>
  <speed>0.0</speed>
  <fix>3d</fix>
</trkpt>
<trkpt lat="33.810313" lon="-118.393867">
  <ele>-0.116</ele>
  <time>2026-09-02T22:08:01Z</time>
  <course>188.12</course>
  <speed>0.01414213562373095</speed>
  <fix>3d</fix>
</trkpt>
<trkpt lat="33.810313" lon="-118.393867">
  <ele>-0.12</ele>
  <time>2026-09-02T22:08:01Z</time>
  <course>0.0</course>
  <speed>0.0</speed>
  <fix>3d</fix>
</trkpt>
<trkpt lat="33.810313" lon="-118.393867">
  <ele>-0.118</ele>
  <time>2026-09-02T22:08:01Z</time>
  <course>188.12</course>
  <speed>0.01414213562373095</speed>
  <fix>3d</fix>
</trkpt>
<trkpt lat="33.810313" lon="-118.393867">
  <ele>-0.12</ele>
  <time>2026-09-02T22:08:01Z</time>
  <course>0.0</course>
  <speed>0.0</speed>
  <fix>3d</fix>
</trkpt>
<trkpt lat="33.810313" lon="-118.393867">
  <ele>-0.118</ele>
  <time>2026-09-02T22:08:01Z</time>
  <course>188.11</course>
  <speed>0.01414213562373095</speed>
  <fix>3d</fix>
</trkpt>
<trkpt lat="33.810313" lon="-118.393867">
  <ele>-0.12</ele>
  <time>2026-09-02T22:08:01Z</time>
  <course>0.0</course>
  <speed>0.0</speed>
  <fix>3d</fix>
</trkpt>
<trkpt lat="33.810313" lon="-118.393867">
  <ele>-0.118</ele>
  <time>2026-09-02T22:08:01Z</time>
  <course>188.1</course>
  <speed>0.01414213562373095</speed>
  <fix>3d</fix>
</trkpt>
<trkpt lat="33.810313" lon="-118.393867">
  <ele>-0.12</ele>
  <time>2026-09-02T22:08:01Z</time>
  <course>0.0</course>
  <speed>0.0</speed>
  <fix>3d</fix>
</trkpt>
<trkpt lat="33.810313" lon="-118.393867">
  <ele>-0.118</ele>
  <time>2026-09-02T22:08:01Z</time>
  <course>188.09</course>
  <speed>0.01414213562373095</speed>
  <fix>3d</fix>
</trkpt>
<trkpt lat="33.810313" lon="-118.393867">
  <ele>-0.12</ele>
  <time>2026-09-02T22:08:01Z</time>
  <course>0.0</course>
  <speed>0.0</speed>
  <fix>3d</fix>
</trkpt>
<trkpt lat="33.810313" lon="-118.393867">
  <ele>-0.118</ele>
  <time>2026-09-02T22:08:01Z</time>
  <course>188.08</course>
  <speed>0.01414213562373095</speed>
  <fix>3d</fix>
</trkpt>
<trkpt lat="33.810313" lon="-118.393867">
  <ele>-0.12</ele>
  <time>2026-09-02T22:08:01Z</time>
  <course>0.0</course>
  <speed>0.0</speed>
  <fix>3d</fix>
</trkpt>
<trkpt lat="33.810313" lon="-118.393867">
  <ele>-0.117</ele>
  <time>2026-09-02T22:08:01Z</time>
  <course>188.07</course>
  <speed>0.01414213562373095</speed>
  <fix>3d</fix>
</trkpt>
<trkpt lat="33.810313" lon="-118.393867">
  <ele>-0.12</ele>
  <time>2026-09-02T22:08:01Z</time>
  <course>0.0</course>
  <speed>0.0</speed>
  <fix>3d</fix>
</trkpt>
<trkpt lat="33.810313" lon="-118.393867">
  <ele>-0.116</ele>
  <time>2026-09-02T22:08:01Z</time>
  <course>188.07</course>
  <speed>0.01414213562373095</speed>
  <fix>3d</fix>
</trkpt>
<trkpt lat="33.810313" lon="-118.393867">
  <ele>-0.12</ele>
  <time>2026-09-02T22:08:01Z</time>
  <course>0.0</course>
  <speed>0.0</speed>
  <fix>3d</fix>
</trkpt>
<trkpt lat="33.810313" lon="-118.393867">
  <ele>-0.114</ele>
  <time>2026-09-02T22:08:01Z</time>
  <course>188.06</course>
  <speed>0.01414213562373095</speed>
  <fix>3d</fix>
</trkpt>
<trkpt lat="33.810313" lon="-118.393867">
  <ele>-0.12</ele>
  <time>2026-09-02T22:08:01Z</time>
  <course>0.0</course>
  <speed>0.0</speed>
  <fix>3d</fix>
</trkpt>
<trkpt lat="33.810313" lon="-118.393867">
  <ele>-0.112</ele>
  <time>2026-09-02T22:08:01Z</time>
  <course>188.05</course>
  <speed>0.01414213562373095</speed>
  <fix>3d</fix>
</trkpt>
<trkpt lat="33.810313" lon="-118.393867">
  <ele>-0.12</ele>
  <time>2026-09-02T22:08:01Z</time>
  <course>0.0</course>
  <speed>0.0</speed>
  <fix>3d</fix>
</trkpt>
<trkpt lat="33.810313" lon="-118.393867">
  <ele>-0.111</ele>
  <time>2026-09-02T22:08:01Z</time>
  <course>188.04</course>
  <speed>0.01414213562373095</speed>
  <fix>3d</fix>
</trkpt>
<trkpt lat="33.810313" lon="-118.393867">
  <ele>-0.12</ele>
  <time>2026-09-02T22:08:01Z</time>
  <course>0.0</course>
  <speed>0.0</speed>
  <fix>3d</fix>
</trkpt>
<trkpt lat="33.810313" lon="-118.393867">
  <ele>-0.111</ele>
  <time>2026-09-02T22:08:01Z</time>
  <course>188.03</course>
  <speed>0.01414213562373095</speed>
  <fix>3d</fix>
</trkpt>
<trkpt lat="33.810313" lon="-118.393867">
  <ele>-0.12</ele>
  <time>2026-09-02T22:08:01Z</time>
  <course>0.0</course>
  <speed>0.0</speed>
  <fix>3d</fix>
</trkpt>
<trkpt lat="33.810313" lon="-118.393867">
  <ele>-0.113</ele>
  <time>2026-09-02T22:08:01Z</time>
  <course>188.03</course>
  <speed>0.022360679774997897</speed>
  <fix>3d</fix>
</trkpt>
<trkpt lat="33.810313" lon="-118.393867">
  <ele>-0.12</ele>
  <time>2026-09-02T22:08:01Z</time>
  <course>0.0</course>
  <speed>0.0</speed>
  <fix>3d</fix>
</trkpt>
<trkpt lat="33.810313" lon="-118.393867">
  <ele>-0.116</ele>
  <time>2026-09-02T22:08:01Z</time>
  <course>188.02</course>
  <speed>0.022360679774997897</speed>
  <fix>3d</fix>
</trkpt>
<trkpt lat="33.810313" lon="-118.393867">
  <ele>-0.12</ele>
  <time>2026-09-02T22:08:01Z</time>
  <course>0.0</course>
  <speed>0.0</speed>
  <fix>3d</fix>
</trkpt>
<trkpt lat="33.810313" lon="-118.393867">
  <ele>-0.119</ele>
  <time>2026-09-02T22:08:01Z</time>
  <course>188.01</course>
  <speed>0.022360679774997897</speed>
  <fix>3d</fix>
</trkpt>
<trkpt lat="33.810313" lon="-118.393867">
  <ele>-0.12</ele>
  <time>2026-09-02T22:08:01Z</time>
  <course>0.0</course>
  <speed>0.0</speed>
  <fix>3d</fix>
</trkpt>
<trkpt lat="33.810313" lon="-118.393867">
  <ele>-0.121</ele>
  <time>2026-09-02T22:08:01Z</time>
  <course>188.0</course>
  <speed>0.022360679774997897</speed>
  <fix>3d</fix>
</trkpt>
<trkpt lat="33.810313" lon="-118.393867">
  <ele>-0.12</ele>
  <time>2026-09-02T22:08:01Z</time>
  <course>0.0</course>
  <speed>0.0</speed>
  <fix>3d</fix>
</trkpt>
<trkpt lat="33.810313" lon="-118.393867">
  <ele>-0.123</ele>
  <time>2026-09-02T22:08:01Z</time>
  <course>187.99</course>
  <speed>0.022360679774997897</speed>
  <fix>3d</fix>
</trkpt>
<trkpt lat="33.810313" lon="-118.393867">
  <ele>-0.12</ele>
  <time>2026-09-02T22:08:01Z</time>
  <course>0.0</course>
  <speed>0.0</speed>
  <fix>3d</fix>
</trkpt>
<trkpt lat="33.810313" lon="-118.393867">
  <ele>-0.125</ele>
  <time>2026-09-02T22:08:01Z</time>
  <course>187.99</course>
  <speed>0.022360679774997897</speed>
  <fix>3d</fix>
</trkpt>
<trkpt lat="33.810313" lon="-118.393867">
  <ele>-0.12</ele>
  <time>2026-09-02T22:08:01Z</time>
  <course>0.0</course>
  <speed>0.0</speed>
  <fix>3d</fix>
</trkpt>
<trkpt lat="33.810313" lon="-118.393867">
  <ele>-0.124</ele>
  <time>2026-09-02T22:08:01Z</time>
  <course>187.98</course>
  <speed>0.022360679774997897</speed>
  <fix>3d</fix>
</trkpt>
<trkpt lat="33.810313" lon="-118.393867">
  <ele>-0.12</ele>
  <time>2026-09-02T22:08:01Z</time>
  <course>0.0</course>
  <speed>0.0</speed>
  <fix>3d</fix>
</trkpt>
<trkpt lat="33.810313" lon="-118.393867">
  <ele>-0.122</ele>
  <time>2026-09-02T22:08:01Z</time>
  <course>187.97</course>
  <speed>0.022360679774997897</speed>
  <fix>3d</fix>
</trkpt>
<trkpt lat="33.810313" lon="-118.393867">
  <ele>-0.12</ele>
  <time>2026-09-02T22:08:01Z</time>
  <course>0.0</course>
  <speed>0.0</speed>
  <fix>3d</fix>
</trkpt>
<trkpt lat="33.810313" lon="-118.393867">
  <ele>-0.12</ele>
  <time>2026-09-02T22:08:01Z</time>
  <course>187.96</course>
  <speed>0.022360679774997897</speed>
  <fix>3d</fix>
</trkpt>
<trkpt lat="33.810313" lon="-118.393867">
  <ele>-0.12</ele>
  <time>2026-09-02T22:08:01Z</time>
  <course>0.0</course>
  <speed>0.0</speed>
  <fix>3d</fix>
</trkpt>
<trkpt lat="33.810313" lon="-118.393867">
  <ele>-0.119</ele>
  <time>2026-09-02T22:08:01Z</time>
  <course>187.95</course>
  <speed>0.022360679774997897</speed>
  <fix>3d</fix>
</trkpt>
<trkpt lat="33.810313" lon="-118.393867">
  <ele>-0.12</ele>
  <time>2026-09-02T22:08:01Z</time>
  <course>0.0</course>
  <speed>0.0</speed>
  <fix>3d</fix>
</trkpt>
<trkpt lat="33.810313" lon="-118.393867">
  <ele>-0.12</ele>
  <time>2026-09-02T22:08:01Z</time>
  <course>187.94</course>
  <speed>0.022360679774997897</speed>
  <fix>3d</fix>
</trkpt>
<trkpt lat="33.810313" lon="-118.393867">
  <ele>-0.12</ele>
  <time>2026-09-02T22:08:01Z</time>
  <course>0.0</course>
  <speed>0.0</speed>
  <fix>3d</fix>
</trkpt>
<trkpt lat="33.810313" lon="-118.393867">
  <ele>-0.122</ele>
  <time>2026-09-02T22:08:01Z</time>
  <course>187.94</course>
  <speed>0.022360679774997897</speed>
  <fix>3d</fix>
</trkpt>
<trkpt lat="33.810313" lon="-118.393867">
  <ele>-0.12</ele>
  <time>2026-09-02T22:08:01Z</time>
  <course>0.0</course>
  <speed>0.0</speed>
  <fix>3d</fix>
</trkpt>
<trkpt lat="33.810313" lon="-118.393867">
  <ele>-0.125</ele>
  <time>2026-09-02T22:08:01Z</time>
  <course>187.93</course>
  <speed>0.022360679774997897</speed>
  <fix>3d</fix>
</trkpt>
<trkpt lat="33.810313" lon="-118.393867">
  <ele>-0.12</ele>
  <time>2026-09-02T22:08:01Z</time>
  <course>0.0</course>
  <speed>0.0</speed>
  <fix>3d</fix>
</trkpt>
<trkpt lat="33.810313" lon="-118.393867">
  <ele>-0.127</ele>
  <time>2026-09-02T22:08:01Z</time>
  <course>187.92</course>
  <speed>0.022360679774997897</speed>
  <fix>3d</fix>
</trkpt>
<trkpt lat="33.810313" lon="-118.393867">
  <ele>-0.12</ele>
  <time>2026-09-02T22:08:01Z</time>
  <course>0.0</course>
  <speed>0.0</speed>
  <fix>3d</fix>
</trkpt>
<trkpt lat="33.810313" lon="-118.393867">
  <ele>-0.128</ele>
  <time>2026-09-02T22:08:01Z</time>
  <course>187.91</course>
  <speed>0.022360679774997897</speed>
  <fix>3d</fix>
</trkpt>
<trkpt lat="33.810313" lon="-118.393867">
  <ele>-0.12</ele>
  <time>2026-09-02T22:08:01Z</time>
  <course>0.0</course>
  <speed>0.0</speed>
  <fix>3d</fix>
</trkpt>
<trkpt lat="33.810313" lon="-118.393867">
  <ele>-0.127</ele>
  <time>2026-09-02T22:08:01Z</time>
  <course>187.9</course>
  <speed>0.022360679774997897</speed>
  <fix>3d</fix>
</trkpt>
<trkpt lat="33.810313" lon="-118.393867">
  <ele>-0.12</ele>
  <time>2026-09-02T22:08:01Z</time>
  <course>0.0</course>
  <speed>0.0</speed>
  <fix>3d</fix>
</trkpt>
<trkpt lat="33.810313" lon="-118.393867">
  <ele>-0.124</ele>
  <time>2026-09-02T22:08:01Z</time>
  <course>187.9</course>
  <speed>0.022360679774997897</speed>
  <fix>3d</fix>
</trkpt>
<trkpt lat="33.810313" lon="-118.393867">
  <ele>-0.12</ele>
  <time>2026-09-02T22:08:01Z</time>
  <course>0.0</course>
  <speed>0.0</speed>
  <fix>3d</fix>
</trkpt>
<trkpt lat="33.810313" lon="-118.393867">
  <ele>-0.121</ele>
  <time>2026-09-02T22:08:01Z</time>
  <course>187.89</course>
  <speed>0.022360679774997897</speed>
  <fix>3d</fix>
</trkpt>
<trkpt lat="33.810313" lon="-118.393867">
  <ele>-0.12</ele>
  <time>2026-09-02T22:08:01Z</time>
  <course>0.0</course>
  <speed>0.0</speed>
  <fix>3d</fix>
</trkpt>
<trkpt lat="33.810313" lon="-118.393867">
  <ele>-0.119</ele>
  <time>2026-09-02T22:08:01Z</time>
  <course>187.88</course>
  <speed>0.022360679774997897</speed>
  <fix>3d</fix>
</trkpt>
<trkpt lat="33.810313" lon="-118.393867">
  <ele>-0.12</ele>
  <time>2026-09-02T22:08:01Z</time>
  <course>0.0</course>
  <speed>0.0</speed>
  <fix>3d</fix>
</trkpt>
<trkpt lat="33.810313" lon="-118.393867">
  <ele>-0.117</ele>
  <time>2026-09-02T22:08:01Z</time>
  <course>187.87</course>
  <speed>0.022360679774997897</speed>
  <fix>3d</fix>
</trkpt>
<trkpt lat="33.810313" lon="-118.393867">
  <ele>-0.12</ele>
  <time>2026-09-02T22:08:01Z</time>
  <course>0.0</course>
  <speed>0.0</speed>
  <fix>3d</fix>
</trkpt>
<trkpt lat="33.810313" lon="-118.393867">
  <ele>-0.116</ele>
  <time>2026-09-02T22:08:01Z</time>
  <course>187.87</course>
  <speed>0.022360679774997897</speed>
  <fix>3d</fix>
</trkpt>
<trkpt lat="33.810313" lon="-118.393867">
  <ele>-0.12</ele>
  <time>2026-09-02T22:08:01Z</time>
  <course>0.0</course>
  <speed>0.0</speed>
  <fix>3d</fix>
</trkpt>
<trkpt lat="33.810313" lon="-118.393867">
  <ele>-0.116</ele>
  <time>2026-09-02T22:08:01Z</time>
  <course>187.86</course>
  <speed>0.022360679774997897</speed>
  <fix>3d</fix>
</trkpt>
<trkpt lat="33.810313" lon="-118.393867">
  <ele>-0.12</ele>
  <time>2026-09-02T22:08:01Z</time>
  <course>0.0</course>
  <speed>0.0</speed>
  <fix>3d</fix>
</trkpt>
<trkpt lat="33.810313" lon="-118.393867">
  <ele>-0.116</ele>
  <time>2026-09-02T22:08:01Z</time>
  <course>187.85</course>
  <speed>0.022360679774997897</speed>
  <fix>3d</fix>
</trkpt>
<trkpt lat="33.810313" lon="-118.393867">
  <ele>-0.12</ele>
  <time>2026-09-02T22:08:01Z</time>
  <course>0.0</course>
  <speed>0.0</speed>
  <fix>3d</fix>
</trkpt>
<trkpt lat="33.810313" lon="-118.393867">
  <ele>-0.117</ele>
  <time>2026-09-02T22:08:01Z</time>
  <course>187.84</course>
  <speed>0.022360679774997897</speed>
  <fix>3d</fix>
</trkpt>
<trkpt lat="33.810313" lon="-118.393867">
  <ele>-0.12</ele>
  <time>2026-09-02T22:08:01Z</time>
  <course>0.0</course>
  <speed>0.0</speed>
  <fix>3d</fix>
</trkpt>
<trkpt lat="33.810313" lon="-118.393867">
  <ele>-0.117</ele>
  <time>2026-09-02T22:08:01Z</time>
  <course>187.83</course>
  <speed>0.022360679774997897</speed>
  <fix>3d</fix>
</trkpt>
<trkpt lat="33.810313" lon="-118.393867">
  <ele>-0.12</ele>
  <time>2026-09-02T22:08:01Z</time>
  <course>0.0</course>
  <speed>0.0</speed>
  <fix>3d</fix>
</trkpt>
<trkpt lat="33.810313" lon="-118.393867">
  <ele>-0.117</ele>
  <time>2026-09-02T22:08:01Z</time>
  <course>187.83</course>
  <speed>0.022360679774997897</speed>
  <fix>3d</fix>
</trkpt>
<trkpt lat="33.810313" lon="-118.393867">
  <ele>-0.12</ele>
  <time>2026-09-02T22:08:01Z</time>
  <course>0.0</course>
  <speed>0.0</speed>
  <fix>3d</fix>
</trkpt>
<trkpt lat="33.810313" lon="-118.393867">
  <ele>-0.116</ele>
  <time>2026-09-02T22:08:01Z</time>
  <course>187.82</course>
  <speed>0.022360679774997897</speed>
  <fix>3d</fix>
</trkpt>
<trkpt lat="33.810313" lon="-118.393867">
  <ele>-0.12</ele>
  <time>2026-09-02T22:08:01Z</time>
  <course>0.0</course>
  <speed>0.0</speed>
  <fix>3d</fix>
</trkpt>
<trkpt lat="33.810313" lon="-118.393867">
  <ele>-0.114</ele>
  <time>2026-09-02T22:08:01Z</time>
  <course>187.81</course>
  <speed>0.022360679774997897</speed>
  <fix>3d</fix>
</trkpt>
<trkpt lat="33.810313" lon="-118.393867">
  <ele>-0.12</ele>
  <time>2026-09-02T22:08:01Z</time>
  <course>0.0</course>
  <speed>0.0</speed>
  <fix>3d</fix>
</trkpt>
<trkpt lat="33.810313" lon="-118.393867">
  <ele>-0.112</ele>
  <time>2026-09-02T22:08:01Z</time>
  <course>187.8</course>
  <speed>0.022360679774997897</speed>
  <fix>3d</fix>
</trkpt>
<trkpt lat="33.810313" lon="-118.393867">
  <ele>-0.12</ele>
  <time>2026-09-02T22:08:01Z</time>
  <course>0.0</course>
  <speed>0.0</speed>
  <fix>3d</fix>
</trkpt>
<trkpt lat="33.810313" lon="-118.393867">
  <ele>-0.111</ele>
  <time>2026-09-02T22:08:01Z</time>
  <course>187.8</course>
  <speed>0.022360679774997897</speed>
  <fix>3d</fix>
</trkpt>
<trkpt lat="33.810313" lon="-118.393867">
  <ele>-0.12</ele>
  <time>2026-09-02T22:08:01Z</time>
  <course>0.0</course>
  <speed>0.0</speed>
  <fix>3d</fix>
</trkpt>
<trkpt lat="33.810313" lon="-118.393867">
  <ele>-0.11</ele>
  <time>2026-09-02T22:08:01Z</time>
  <course>187.79</course>
  <speed>0.022360679774997897</speed>
  <fix>3d</fix>
</trkpt>
<trkpt lat="33.810313" lon="-118.393867">
  <ele>-0.12</ele>
  <time>2026-09-02T22:08:01Z</time>
  <course>0.0</course>
  <speed>0.0</speed>
  <fix>3d</fix>
</trkpt>
<trkpt lat="33.810313" lon="-118.393867">
  <ele>-0.11</ele>
  <time>2026-09-02T22:08:01Z</time>
  <course>187.78</course>
  <speed>0.022360679774997897</speed>
  <fix>3d</fix>
</trkpt>
<trkpt lat="33.810313" lon="-118.393867">
  <ele>-0.12</ele>
  <time>2026-09-02T22:08:01Z</time>
  <course>0.0</course>
  <speed>0.0</speed>
  <fix>3d</fix>
</trkpt>
<trkpt lat="33.810313" lon="-118.393867">
  <ele>-0.11</ele>
  <time>2026-09-02T22:08:02Z</time>
  <course>187.77</course>
  <speed>0.022360679774997897</speed>
  <fix>3d</fix>
</trkpt>
<trkpt lat="33.810313" lon="-118.393867">
  <ele>-0.12</ele>
  <time>2026-09-02T22:08:02Z</time>
  <course>0.0</course>
  <speed>0.0</speed>
  <fix>3d</fix>
</trkpt>
<trkpt lat="33.810313" lon="-118.393867">
  <ele>-0.111</ele>
  <time>2026-09-02T22:08:02Z</time>
  <course>187.76</course>
  <speed>0.0282842712474619</speed>
  <fix>3d</fix>
</trkpt>
<trkpt lat="33.810313" lon="-118.393867">
  <ele>-0.12</ele>
  <time>2026-09-02T22:08:02Z</time>
  <course>0.0</course>
  <speed>0.0</speed>
  <fix>3d</fix>
</trkpt>
<trkpt lat="33.810313" lon="-118.393867">
  <ele>-0.112</ele>
  <time>2026-09-02T22:08:02Z</time>
  <course>187.76</course>
  <speed>0.0282842712474619</speed>
  <fix>3d</fix>
</trkpt>
<trkpt lat="33.810313" lon="-118.393867">
  <ele>-0.12</ele>
  <time>2026-09-02T22:08:02Z</time>
  <course>0.0</course>
  <speed>0.0</speed>
  <fix>3d</fix>
</trkpt>
<trkpt lat="33.810313" lon="-118.393867">
  <ele>-0.115</ele>
  <time>2026-09-02T22:08:02Z</time>
  <course>187.75</course>
  <speed>0.0282842712474619</speed>
  <fix>3d</fix>
</trkpt>
<trkpt lat="33.810313" lon="-118.393867">
  <ele>-0.12</ele>
  <time>2026-09-02T22:08:02Z</time>
  <course>0.0</course>
  <speed>0.0</speed>
  <fix>3d</fix>
</trkpt>
<trkpt lat="33.810313" lon="-118.393867">
  <ele>-0.117</ele>
  <time>2026-09-02T22:08:02Z</time>
  <course>187.74</course>
  <speed>0.0282842712474619</speed>
  <fix>3d</fix>
</trkpt>
<trkpt lat="33.810313" lon="-118.393867">
  <ele>-0.12</ele>
  <time>2026-09-02T22:08:02Z</time>
  <course>0.0</course>
  <speed>0.0</speed>
  <fix>3d</fix>
</trkpt>
<trkpt lat="33.810313" lon="-118.393867">
  <ele>-0.118</ele>
  <time>2026-09-02T22:08:02Z</time>
  <course>187.74</course>
  <speed>0.0282842712474619</speed>
  <fix>3d</fix>
</trkpt>
<trkpt lat="33.810313" lon="-118.393867">
  <ele>-0.12</ele>
  <time>2026-09-02T22:08:02Z</time>
  <course>0.0</course>
  <speed>0.0</speed>
  <fix>3d</fix>
</trkpt>
<trkpt lat="33.810313" lon="-118.393867">
  <ele>-0.117</ele>
  <time>2026-09-02T22:08:02Z</time>
  <course>187.73</course>
  <speed>0.0282842712474619</speed>
  <fix>3d</fix>
</trkpt>
<trkpt lat="33.810313" lon="-118.393867">
  <ele>-0.12</ele>
  <time>2026-09-02T22:08:02Z</time>
  <course>0.0</course>
  <speed>0.0</speed>
  <fix>3d</fix>
</trkpt>
<trkpt lat="33.810313" lon="-118.393867">
  <ele>-0.116</ele>
  <time>2026-09-02T22:08:02Z</time>
  <course>187.72</course>
  <speed>0.0282842712474619</speed>
  <fix>3d</fix>
</trkpt>
<trkpt lat="33.810313" lon="-118.393867">
  <ele>-0.12</ele>
  <time>2026-09-02T22:08:02Z</time>
  <course>0.0</course>
  <speed>0.0</speed>
  <fix>3d</fix>
</trkpt>
<trkpt lat="33.810313" lon="-118.393867">
  <ele>-0.114</ele>
  <time>2026-09-02T22:08:02Z</time>
  <course>187.71</course>
  <speed>0.0282842712474619</speed>
  <fix>3d</fix>
</trkpt>
<trkpt lat="33.810313" lon="-118.393867">
  <ele>-0.12</ele>
  <time>2026-09-02T22:08:02Z</time>
  <course>0.0</course>
  <speed>0.0</speed>
  <fix>3d</fix>
</trkpt>
<trkpt lat="33.810313" lon="-118.393867">
  <ele>-0.111</ele>
  <time>2026-09-02T22:08:02Z</time>
  <course>187.71</course>
  <speed>0.0282842712474619</speed>
  <fix>3d</fix>
</trkpt>
<trkpt lat="33.810313" lon="-118.393867">
  <ele>-0.12</ele>
  <time>2026-09-02T22:08:02Z</time>
  <course>0.0</course>
  <speed>0.0</speed>
  <fix>3d</fix>
</trkpt>
<trkpt lat="33.810313" lon="-118.393867">
  <ele>-0.109</ele>
  <time>2026-09-02T22:08:02Z</time>
  <course>187.7</course>
  <speed>0.0282842712474619</speed>
  <fix>3d</fix>
</trkpt>
<trkpt lat="33.810313" lon="-118.393867">
  <ele>-0.12</ele>
  <time>2026-09-02T22:08:02Z</time>
  <course>0.0</course>
  <speed>0.0</speed>
  <fix>3d</fix>
</trkpt>
<trkpt lat="33.810313" lon="-118.393867">
  <ele>-0.107</ele>
  <time>2026-09-02T22:08:02Z</time>
  <course>187.69</course>
  <speed>0.0282842712474619</speed>
  <fix>3d</fix>
</trkpt>
<trkpt lat="33.810313" lon="-118.393867">
  <ele>-0.12</ele>
  <time>2026-09-02T22:08:02Z</time>
  <course>0.0</course>
  <speed>0.0</speed>
  <fix>3d</fix>
</trkpt>
<trkpt lat="33.810313" lon="-118.393867">
  <ele>-0.107</ele>
  <time>2026-09-02T22:08:02Z</time>
  <course>187.68</course>
  <speed>0.0282842712474619</speed>
  <fix>3d</fix>
</trkpt>
<trkpt lat="33.810313" lon="-118.393867">
  <ele>-0.12</ele>
  <time>2026-09-02T22:08:02Z</time>
  <course>0.0</course>
  <speed>0.0</speed>
  <fix>3d</fix>
</trkpt>
<trkpt lat="33.810313" lon="-118.393867">
  <ele>-0.109</ele>
  <time>2026-09-02T22:08:02Z</time>
  <course>187.68</course>
  <speed>0.0282842712474619</speed>
  <fix>3d</fix>
</trkpt>
<trkpt lat="33.810313" lon="-118.393867">
  <ele>-0.12</ele>
  <time>2026-09-02T22:08:02Z</time>
  <course>0.0</course>
  <speed>0.0</speed>
  <fix>3d</fix>
</trkpt>
<trkpt lat="33.810313" lon="-118.393867">
  <ele>-0.11</ele>
  <time>2026-09-02T22:08:02Z</time>
  <course>187.67</course>
  <speed>0.0282842712474619</speed>
  <fix>3d</fix>
</trkpt>
<trkpt lat="33.810313" lon="-118.393867">
  <ele>-0.12</ele>
  <time>2026-09-02T22:08:02Z</time>
  <course>0.0</course>
  <speed>0.0</speed>
  <fix>3d</fix>
</trkpt>
<trkpt lat="33.810313" lon="-118.393867">
  <ele>-0.111</ele>
  <time>2026-09-02T22:08:02Z</time>
  <course>187.66</course>
  <speed>0.0282842712474619</speed>
  <fix>3d</fix>
</trkpt>
<trkpt lat="33.810313" lon="-118.393867">
  <ele>-0.12</ele>
  <time>2026-09-02T22:08:02Z</time>
  <course>0.0</course>
  <speed>0.0</speed>
  <fix>3d</fix>
</trkpt>
<trkpt lat="33.810313" lon="-118.393867">
  <ele>-0.112</ele>
  <time>2026-09-02T22:08:02Z</time>
  <course>187.66</course>
  <speed>0.0282842712474619</speed>
  <fix>3d</fix>
</trkpt>
<trkpt lat="33.810313" lon="-118.393867">
  <ele>-0.12</ele>
  <time>2026-09-02T22:08:02Z</time>
  <course>0.0</course>
  <speed>0.0</speed>
  <fix>3d</fix>
</trkpt>
<trkpt lat="33.810313" lon="-118.393867">
  <ele>-0.113</ele>
  <time>2026-09-02T22:08:02Z</time>
  <course>187.65</course>
  <speed>0.0282842712474619</speed>
  <fix>3d</fix>
</trkpt>
<trkpt lat="33.810313" lon="-118.393867">
  <ele>-0.12</ele>
  <time>2026-09-02T22:08:02Z</time>
  <course>0.0</course>
  <speed>0.0</speed>
  <fix>3d</fix>
</trkpt>
<trkpt lat="33.810313" lon="-118.393867">
  <ele>-0.112</ele>
  <time>2026-09-02T22:08:02Z</time>
  <course>187.64</course>
  <speed>0.0282842712474619</speed>
  <fix>3d</fix>
</trkpt>
<trkpt lat="33.810313" lon="-118.393867">
  <ele>-0.12</ele>
  <time>2026-09-02T22:08:02Z</time>
  <course>0.0</course>
  <speed>0.0</speed>
  <fix>3d</fix>
</trkpt>
<trkpt lat="33.810313" lon="-118.393867">
  <ele>-0.112</ele>
  <time>2026-09-02T22:08:02Z</time>
  <course>187.63</course>
  <speed>0.0282842712474619</speed>
  <fix>3d</fix>
</trkpt>
<trkpt lat="33.810313" lon="-118.393867">
  <ele>-0.12</ele>
  <time>2026-09-02T22:08:02Z</time>
  <course>0.0</course>
  <speed>0.0</speed>
  <fix>3d</fix>
</trkpt>
<trkpt lat="33.810313" lon="-118.393867">
  <ele>-0.111</ele>
  <time>2026-09-02T22:08:02Z</time>
  <course>187.63</course>
  <speed>0.0282842712474619</speed>
  <fix>3d</fix>
</trkpt>
<trkpt lat="33.810313" lon="-118.393867">
  <ele>-0.12</ele>
  <time>2026-09-02T22:08:02Z</time>
  <course>0.0</course>
  <speed>0.0</speed>
  <fix>3d</fix>
</trkpt>
<trkpt lat="33.810313" lon="-118.393867">
  <ele>-0.111</ele>
  <time>2026-09-02T22:08:02Z</time>
  <course>187.62</course>
  <speed>0.0282842712474619</speed>
  <fix>3d</fix>
</trkpt>
<trkpt lat="33.810313" lon="-118.393867">
  <ele>-0.12</ele>
  <time>2026-09-02T22:08:02Z</time>
  <course>0.0</course>
  <speed>0.0</speed>
  <fix>3d</fix>
</trkpt>
<trkpt lat="33.810313" lon="-118.393867">
  <ele>-0.111</ele>
  <time>2026-09-02T22:08:02Z</time>
  <course>187.62</course>
  <speed>0.0282842712474619</speed>
  <fix>3d</fix>
</trkpt>
<trkpt lat="33.810313" lon="-118.393867">
  <ele>-0.12</ele>
  <time>2026-09-02T22:08:02Z</time>
  <course>0.0</course>
  <speed>0.0</speed>
  <fix>3d</fix>
</trkpt>
<trkpt lat="33.810313" lon="-118.393867">
  <ele>-0.112</ele>
  <time>2026-09-02T22:08:02Z</time>
  <course>187.61</course>
  <speed>0.03605551275463989</speed>
  <fix>3d</fix>
</trkpt>
<trkpt lat="33.810313" lon="-118.393867">
  <ele>-0.12</ele>
  <time>2026-09-02T22:08:02Z</time>
  <course>0.0</course>
  <speed>0.0</speed>
  <fix>3d</fix>
</trkpt>
<trkpt lat="33.810313" lon="-118.393867">
  <ele>-0.114</ele>
  <time>2026-09-02T22:08:02Z</time>
  <course>187.6</course>
  <speed>0.03605551275463989</speed>
  <fix>3d</fix>
</trkpt>
<trkpt lat="33.810313" lon="-118.393867">
  <ele>-0.12</ele>
  <time>2026-09-02T22:08:02Z</time>
  <course>0.0</course>
  <speed>0.0</speed>
  <fix>3d</fix>
</trkpt>
<trkpt lat="33.810313" lon="-118.393867">
  <ele>-0.116</ele>
  <time>2026-09-02T22:08:02Z</time>
  <course>187.6</course>
  <speed>0.03605551275463989</speed>
  <fix>3d</fix>
</trkpt>
<trkpt lat="33.810313" lon="-118.393867">
  <ele>-0.12</ele>
  <time>2026-09-02T22:08:02Z</time>
  <course>0.0</course>
  <speed>0.0</speed>
  <fix>3d</fix>
</trkpt>
<trkpt lat="33.810313" lon="-118.393867">
  <ele>-0.117</ele>
  <time>2026-09-02T22:08:02Z</time>
  <course>187.59</course>
  <speed>0.03605551275463989</speed>
  <fix>3d</fix>
</trkpt>
<trkpt lat="33.810313" lon="-118.393867">
  <ele>-0.12</ele>
  <time>2026-09-02T22:08:02Z</time>
  <course>0.0</course>
  <speed>0.0</speed>
  <fix>3d</fix>
</trkpt>
<trkpt lat="33.810313" lon="-118.393867">
  <ele>-0.119</ele>
  <time>2026-09-02T22:08:02Z</time>
  <course>187.58</course>
  <speed>0.03605551275463989</speed>
  <fix>3d</fix>
</trkpt>
<trkpt lat="33.810313" lon="-118.393867">
  <ele>-0.12</ele>
  <time>2026-09-02T22:08:02Z</time>
  <course>0.0</course>
  <speed>0.0</speed>
  <fix>3d</fix>
</trkpt>
<trkpt lat="33.810313" lon="-118.393867">
  <ele>-0.12</ele>
  <time>2026-09-02T22:08:02Z</time>
  <course>187.58</course>
  <speed>0.03605551275463989</speed>
  <fix>3d</fix>
</trkpt>
<trkpt lat="33.810313" lon="-118.393867">
  <ele>-0.12</ele>
  <time>2026-09-02T22:08:02Z</time>
  <course>0.0</course>
  <speed>0.0</speed>
  <fix>3d</fix>
</trkpt>
<trkpt lat="33.810313" lon="-118.393867">
  <ele>-0.121</ele>
  <time>2026-09-02T22:08:02Z</time>
  <course>187.57</course>
  <speed>0.03605551275463989</speed>
  <fix>3d</fix>
</trkpt>
<trkpt lat="33.810313" lon="-118.393867">
  <ele>-0.12</ele>
  <time>2026-09-02T22:08:02Z</time>
  <course>0.0</course>
  <speed>0.0</speed>
  <fix>3d</fix>
</trkpt>
<trkpt lat="33.810313" lon="-118.393867">
  <ele>-0.121</ele>
  <time>2026-09-02T22:08:02Z</time>
  <course>187.56</course>
  <speed>0.03605551275463989</speed>
  <fix>3d</fix>
</trkpt>
<trkpt lat="33.810313" lon="-118.393867">
  <ele>-0.12</ele>
  <time>2026-09-02T22:08:02Z</time>
  <course>0.0</course>
  <speed>0.0</speed>
  <fix>3d</fix>
</trkpt>
<trkpt lat="33.810313" lon="-118.393867">
  <ele>-0.121</ele>
  <time>2026-09-02T22:08:02Z</time>
  <course>187.56</course>
  <speed>0.03605551275463989</speed>
  <fix>3d</fix>
</trkpt>
<trkpt lat="33.810313" lon="-118.393867">
  <ele>-0.12</ele>
  <time>2026-09-02T22:08:02Z</time>
  <course>0.0</course>
  <speed>0.0</speed>
  <fix>3d</fix>
</trkpt>
<trkpt lat="33.810313" lon="-118.393867">
  <ele>-0.121</ele>
  <time>2026-09-02T22:08:02Z</time>
  <course>187.55</course>
  <speed>0.03605551275463989</speed>
  <fix>3d</fix>
</trkpt>
<trkpt lat="33.810313" lon="-118.393867">
  <ele>-0.12</ele>
  <time>2026-09-02T22:08:02Z</time>
  <course>0.0</course>
  <speed>0.0</speed>
  <fix>3d</fix>
</trkpt>
<trkpt lat="33.810313" lon="-118.393867">
  <ele>-0.123</ele>
  <time>2026-09-02T22:08:02Z</time>
  <course>187.54</course>
  <speed>0.03605551275463989</speed>
  <fix>3d</fix>
</trkpt>
<trkpt lat="33.810313" lon="-118.393867">
  <ele>-0.12</ele>
  <time>2026-09-02T22:08:02Z</time>
  <course>0.0</course>
  <speed>0.0</speed>
  <fix>3d</fix>
</trkpt>
<trkpt lat="33.810313" lon="-118.393867">
  <ele>-0.125</ele>
  <time>2026-09-02T22:08:02Z</time>
  <course>187.54</course>
  <speed>0.03605551275463989</speed>
  <fix>3d</fix>
</trkpt>
<trkpt lat="33.810313" lon="-118.393867">
  <ele>-0.12</ele>
  <time>2026-09-02T22:08:02Z</time>
  <course>0.0</course>
  <speed>0.0</speed>
  <fix>3d</fix>
</trkpt>
<trkpt lat="33.810313" lon="-118.393867">
  <ele>-0.126</ele>
  <time>2026-09-02T22:08:02Z</time>
  <course>187.53</course>
  <speed>0.03605551275463989</speed>
  <fix>3d</fix>
</trkpt>
<trkpt lat="33.810313" lon="-118.393867">
  <ele>-0.12</ele>
  <time>2026-09-02T22:08:02Z</time>
  <course>0.0</course>
  <speed>0.0</speed>
  <fix>3d</fix>
</trkpt>
<trkpt lat="33.810313" lon="-118.393867">
  <ele>-0.128</ele>
  <time>2026-09-02T22:08:02Z</time>
  <course>187.52</course>
  <speed>0.03605551275463989</speed>
  <fix>3d</fix>
</trkpt>
<trkpt lat="33.810313" lon="-118.393867">
  <ele>-0.12</ele>
  <time>2026-09-02T22:08:02Z</time>
  <course>0.0</course>
  <speed>0.0</speed>
  <fix>3d</fix>
</trkpt>
<trkpt lat="33.810313" lon="-118.393867">
  <ele>-0.129</ele>
  <time>2026-09-02T22:08:02Z</time>
  <course>187.52</course>
  <speed>0.03605551275463989</speed>
  <fix>3d</fix>
</trkpt>
<trkpt lat="33.810313" lon="-118.393867">
  <ele>-0.12</ele>
  <time>2026-09-02T22:08:02Z</time>
  <course>0.0</course>
  <speed>0.0</speed>
  <fix>3d</fix>
</trkpt>
<trkpt lat="33.810313" lon="-118.393867">
  <ele>-0.128</ele>
  <time>2026-09-02T22:08:02Z</time>
  <course>187.51</course>
  <speed>0.03605551275463989</speed>
  <fix>3d</fix>
</trkpt>
<trkpt lat="33.810313" lon="-118.393867">
  <ele>-0.12</ele>
  <time>2026-09-02T22:08:02Z</time>
  <course>0.0</course>
  <speed>0.0</speed>
  <fix>3d</fix>
</trkpt>
<trkpt lat="33.810313" lon="-118.393867">
  <ele>-0.127</ele>
  <time>2026-09-02T22:08:02Z</time>
  <course>187.5</course>
  <speed>0.03605551275463989</speed>
  <fix>3d</fix>
</trkpt>
<trkpt lat="33.810313" lon="-118.393867">
  <ele>-0.12</ele>
  <time>2026-09-02T22:08:02Z</time>
  <course>0.0</course>
  <speed>0.0</speed>
  <fix>3d</fix>
</trkpt>
<trkpt lat="33.810313" lon="-118.393867">
  <ele>-0.125</ele>
  <time>2026-09-02T22:08:02Z</time>
  <course>187.5</course>
  <speed>0.03605551275463989</speed>
  <fix>3d</fix>
</trkpt>
<trkpt lat="33.810313" lon="-118.393867">
  <ele>-0.12</ele>
  <time>2026-09-02T22:08:02Z</time>
  <course>0.0</course>
  <speed>0.0</speed>
  <fix>3d</fix>
</trkpt>
<trkpt lat="33.810313" lon="-118.393867">
  <ele>-0.123</ele>
  <time>2026-09-02T22:08:02Z</time>
  <course>187.49</course>
  <speed>0.03605551275463989</speed>
  <fix>3d</fix>
</trkpt>
<trkpt lat="33.810313" lon="-118.393867">
  <ele>-0.12</ele>
  <time>2026-09-02T22:08:02Z</time>
  <course>0.0</course>
  <speed>0.0</speed>
  <fix>3d</fix>
</trkpt>
<trkpt lat="33.810313" lon="-118.393867">
  <ele>-0.122</ele>
  <time>2026-09-02T22:08:02Z</time>
  <course>187.48</course>
  <speed>0.03605551275463989</speed>
  <fix>3d</fix>
</trkpt>
<trkpt lat="33.810313" lon="-118.393867">
  <ele>-0.12</ele>
  <time>2026-09-02T22:08:02Z</time>
  <course>0.0</course>
  <speed>0.0</speed>
  <fix>3d</fix>
</trkpt>
<trkpt lat="33.810313" lon="-118.393867">
  <ele>-0.12</ele>
  <time>2026-09-02T22:08:02Z</time>
  <course>187.48</course>
  <speed>0.03605551275463989</speed>
  <fix>3d</fix>
</trkpt>
<trkpt lat="33.810313" lon="-118.393867">
  <ele>-0.12</ele>
  <time>2026-09-02T22:08:02Z</time>
  <course>0.0</course>
  <speed>0.0</speed>
  <fix>3d</fix>
</trkpt>
<trkpt lat="33.810313" lon="-118.393867">
  <ele>-0.12</ele>
  <time>2026-09-02T22:08:02Z</time>
  <course>187.47</course>
  <speed>0.03605551275463989</speed>
  <fix>3d</fix>
</trkpt>
<trkpt lat="33.810313" lon="-118.393867">
  <ele>-0.12</ele>
  <time>2026-09-02T22:08:02Z</time>
  <course>0.0</course>
  <speed>0.0</speed>
  <fix>3d</fix>
</trkpt>
<trkpt lat="33.810313" lon="-118.393867">
  <ele>-0.121</ele>
  <time>2026-09-02T22:08:02Z</time>
  <course>187.47</course>
  <speed>0.03605551275463989</speed>
  <fix>3d</fix>
</trkpt>
<trkpt lat="33.810313" lon="-118.393867">
  <ele>-0.12</ele>
  <time>2026-09-02T22:08:02Z</time>
  <course>0.0</course>
  <speed>0.0</speed>
  <fix>3d</fix>
</trkpt>
<trkpt lat="33.810313" lon="-118.393867">
  <ele>-0.123</ele>
  <time>2026-09-02T22:08:02Z</time>
  <course>187.46</course>
  <speed>0.03605551275463989</speed>
  <fix>3d</fix>
</trkpt>
<trkpt lat="33.810313" lon="-118.393867">
  <ele>-0.12</ele>
  <time>2026-09-02T22:08:02Z</time>
  <course>0.0</course>
  <speed>0.0</speed>
  <fix>3d</fix>
</trkpt>
<trkpt lat="33.810313" lon="-118.393867">
  <ele>-0.125</ele>
  <time>2026-09-02T22:08:02Z</time>
  <course>187.45</course>
  <speed>0.03605551275463989</speed>
  <fix>3d</fix>
</trkpt>
<trkpt lat="33.810313" lon="-118.393867">
  <ele>-0.12</ele>
  <time>2026-09-02T22:08:02Z</time>
  <course>0.0</course>
  <speed>0.0</speed>
  <fix>3d</fix>
</trkpt>
<trkpt lat="33.810313" lon="-118.393867">
  <ele>-0.127</ele>
  <time>2026-09-02T22:08:02Z</time>
  <course>187.45</course>
  <speed>0.03605551275463989</speed>
  <fix>3d</fix>
</trkpt>
<trkpt lat="33.810313" lon="-118.393867">
  <ele>-0.12</ele>
  <time>2026-09-02T22:08:02Z</time>
  <course>0.0</course>
  <speed>0.0</speed>
  <fix>3d</fix>
</trkpt>
<trkpt lat="33.810313" lon="-118.393867">
  <ele>-0.127</ele>
  <time>2026-09-02T22:08:02Z</time>
  <course>187.44</course>
  <speed>0.03605551275463989</speed>
  <fix>3d</fix>
</trkpt>
<trkpt lat="33.810313" lon="-118.393867">
  <ele>-0.12</ele>
  <time>2026-09-02T22:08:02Z</time>
  <course>0.0</course>
  <speed>0.0</speed>
  <fix>3d</fix>
</trkpt>
<trkpt lat="33.810313" lon="-118.393867">
  <ele>-0.126</ele>
  <time>2026-09-02T22:08:02Z</time>
  <course>187.43</course>
  <speed>0.03605551275463989</speed>
  <fix>3d</fix>
</trkpt>
<trkpt lat="33.810313" lon="-118.393867">
  <ele>-0.12</ele>
  <time>2026-09-02T22:08:02Z</time>
  <course>0.0</course>
  <speed>0.0</speed>
  <fix>3d</fix>
</trkpt>
<trkpt lat="33.810313" lon="-118.393867">
  <ele>-0.123</ele>
  <time>2026-09-02T22:08:02Z</time>
  <course>187.43</course>
  <speed>0.03605551275463989</speed>
  <fix>3d</fix>
</trkpt>
<trkpt lat="33.810313" lon="-118.393867">
  <ele>-0.12</ele>
  <time>2026-09-02T22:08:02Z</time>
  <course>0.0</course>
  <speed>0.0</speed>
  <fix>3d</fix>
</trkpt>
<trkpt lat="33.810313" lon="-118.393867">
  <ele>-0.121</ele>
  <time>2026-09-02T22:08:02Z</time>
  <course>187.42</course>
  <speed>0.03605551275463989</speed>
  <fix>3d</fix>
</trkpt>
<trkpt lat="33.810313" lon="-118.393867">
  <ele>-0.12</ele>
  <time>2026-09-02T22:08:02Z</time>
  <course>0.0</course>
  <speed>0.0</speed>
  <fix>3d</fix>
</trkpt>
<trkpt lat="33.810313" lon="-118.393867">
  <ele>-0.118</ele>
  <time>2026-09-02T22:08:02Z</time>
  <course>187.42</course>
  <speed>0.03605551275463989</speed>
  <fix>3d</fix>
</trkpt>
<trkpt lat="33.810313" lon="-118.393867">
  <ele>-0.12</ele>
  <time>2026-09-02T22:08:02Z</time>
  <course>0.0</course>
  <speed>0.0</speed>
  <fix>3d</fix>
</trkpt>
<trkpt lat="33.810313" lon="-118.393867">
  <ele>-0.117</ele>
  <time>2026-09-02T22:08:02Z</time>
  <course>187.41</course>
  <speed>0.03605551275463989</speed>
  <fix>3d</fix>
</trkpt>
<trkpt lat="33.810313" lon="-118.393867">
  <ele>-0.12</ele>
  <time>2026-09-02T22:08:02Z</time>
  <course>0.0</course>
  <speed>0.0</speed>
  <fix>3d</fix>
</trkpt>
<trkpt lat="33.810313" lon="-118.393867">
  <ele>-0.117</ele>
  <time>2026-09-02T22:08:02Z</time>
  <course>187.4</course>
  <speed>0.03605551275463989</speed>
  <fix>3d</fix>
</trkpt>
<trkpt lat="33.810313" lon="-118.393867">
  <ele>-0.12</ele>
  <time>2026-09-02T22:08:02Z</time>
  <course>0.0</course>
  <speed>0.0</speed>
  <fix>3d</fix>
</trkpt>
<trkpt lat="33.810313" lon="-118.393867">
  <ele>-0.118</ele>
  <time>2026-09-02T22:08:02Z</time>
  <course>187.4</course>
  <speed>0.03605551275463989</speed>
  <fix>3d</fix>
</trkpt>
<trkpt lat="33.810313" lon="-118.393867">
  <ele>-0.12</ele>
  <time>2026-09-02T22:08:02Z</time>
  <course>0.0</course>
  <speed>0.0</speed>
  <fix>3d</fix>
</trkpt>
<trkpt lat="33.810313" lon="-118.393867">
  <ele>-0.12</ele>
  <time>2026-09-02T22:08:02Z</time>
  <course>187.39</course>
  <speed>0.03605551275463989</speed>
  <fix>3d</fix>
</trkpt>
<trkpt lat="33.810313" lon="-118.393867">
  <ele>-0.12</ele>
  <time>2026-09-02T22:08:02Z</time>
  <course>0.0</course>
  <speed>0.0</speed>
  <fix>3d</fix>
</trkpt>
<trkpt lat="33.810313" lon="-118.393867">
  <ele>-0.12</ele>
  <time>2026-09-02T22:08:02Z</time>
  <course>187.39</course>
  <speed>0.03605551275463989</speed>
  <fix>3d</fix>
</trkpt>
<trkpt lat="33.810313" lon="-118.393867">
  <ele>-0.12</ele>
  <time>2026-09-02T22:08:02Z</time>
  <course>0.0</course>
  <speed>0.0</speed>
  <fix>3d</fix>
</trkpt>
<trkpt lat="33.810313" lon="-118.393867">
  <ele>-0.119</ele>
  <time>2026-09-02T22:08:02Z</time>
  <course>187.38</course>
  <speed>0.03605551275463989</speed>
  <fix>3d</fix>
</trkpt>
<trkpt lat="33.810313" lon="-118.393867">
  <ele>-0.12</ele>
  <time>2026-09-02T22:08:02Z</time>
  <course>0.0</course>
  <speed>0.0</speed>
  <fix>3d</fix>
</trkpt>
<trkpt lat="33.810313" lon="-118.393867">
  <ele>-0.117</ele>
  <time>2026-09-02T22:08:02Z</time>
  <course>187.37</course>
  <speed>0.03605551275463989</speed>
  <fix>3d</fix>
</trkpt>
<trkpt lat="33.810313" lon="-118.393867">
  <ele>-0.12</ele>
  <time>2026-09-02T22:08:02Z</time>
  <course>0.0</course>
  <speed>0.0</speed>
  <fix>3d</fix>
</trkpt>
<trkpt lat="33.810313" lon="-118.393867">
  <ele>-0.115</ele>
  <time>2026-09-02T22:08:02Z</time>
  <course>187.37</course>
  <speed>0.03605551275463989</speed>
  <fix>3d</fix>
</trkpt>
<trkpt lat="33.810313" lon="-118.393867">
  <ele>-0.12</ele>
  <time>2026-09-02T22:08:02Z</time>
  <course>0.0</course>
  <speed>0.0</speed>
  <fix>3d</fix>
</trkpt>
<trkpt lat="33.810313" lon="-118.393867">
  <ele>-0.114</ele>
  <time>2026-09-02T22:08:02Z</time>
  <course>187.36</course>
  <speed>0.03605551275463989</speed>
  <fix>3d</fix>
</trkpt>
<trkpt lat="33.810313" lon="-118.393867">
  <ele>-0.12</ele>
  <time>2026-09-02T22:08:02Z</time>
  <course>0.0</course>
  <speed>0.0</speed>
  <fix>3d</fix>
</trkpt>
<trkpt lat="33.810313" lon="-118.393867">
  <ele>-0.113</ele>
  <time>2026-09-02T22:08:02Z</time>
  <course>187.36</course>
  <speed>0.03605551275463989</speed>
  <fix>3d</fix>
</trkpt>
<trkpt lat="33.810313" lon="-118.393867">
  <ele>-0.12</ele>
  <time>2026-09-02T22:08:02Z</time>
  <course>0.0</course>
  <speed>0.0</speed>
  <fix>3d</fix>
</trkpt>
<trkpt lat="33.810313" lon="-118.393867">
  <ele>-0.112</ele>
  <time>2026-09-02T22:08:02Z</time>
  <course>187.35</course>
  <speed>0.03605551275463989</speed>
  <fix>3d</fix>
</trkpt>
<trkpt lat="33.810313" lon="-118.393867">
  <ele>-0.12</ele>
  <time>2026-09-02T22:08:02Z</time>
  <course>0.0</course>
  <speed>0.0</speed>
  <fix>3d</fix>
</trkpt>
<trkpt lat="33.810313" lon="-118.393867">
  <ele>-0.111</ele>
  <time>2026-09-02T22:08:02Z</time>
  <course>187.34</course>
  <speed>0.03605551275463989</speed>
  <fix>3d</fix>
</trkpt>
<trkpt lat="33.810313" lon="-118.393867">
  <ele>-0.12</ele>
  <time>2026-09-02T22:08:02Z</time>
  <course>0.0</course>
  <speed>0.0</speed>
  <fix>3d</fix>
</trkpt>
<trkpt lat="33.810313" lon="-118.393867">
  <ele>-0.11</ele>
  <time>2026-09-02T22:08:02Z</time>
  <course>187.34</course>
  <speed>0.03605551275463989</speed>
  <fix>3d</fix>
</trkpt>
<trkpt lat="33.810313" lon="-118.393867">
  <ele>-0.12</ele>
  <time>2026-09-02T22:08:02Z</time>
  <course>0.0</course>
  <speed>0.0</speed>
  <fix>3d</fix>
</trkpt>
<trkpt lat="33.810313" lon="-118.393867">
  <ele>-0.11</ele>
  <time>2026-09-02T22:08:02Z</time>
  <course>187.33</course>
  <speed>0.03605551275463989</speed>
  <fix>3d</fix>
</trkpt>
<trkpt lat="33.810313" lon="-118.393867">
  <ele>-0.12</ele>
  <time>2026-09-02T22:08:02Z</time>
  <course>0.0</course>
  <speed>0.0</speed>
  <fix>3d</fix>
</trkpt>
<trkpt lat="33.810313" lon="-118.393867">
  <ele>-0.11</ele>
  <time>2026-09-02T22:08:02Z</time>
  <course>187.33</course>
  <speed>0.03605551275463989</speed>
  <fix>3d</fix>
</trkpt>
<trkpt lat="33.810313" lon="-118.393867">
  <ele>-0.12</ele>
  <time>2026-09-02T22:08:02Z</time>
  <course>0.0</course>
  <speed>0.0</speed>
  <fix>3d</fix>
</trkpt>
<trkpt lat="33.810313" lon="-118.393867">
  <ele>-0.109</ele>
  <time>2026-09-02T22:08:02Z</time>
  <course>187.32</course>
  <speed>0.03605551275463989</speed>
  <fix>3d</fix>
</trkpt>
<trkpt lat="33.810313" lon="-118.393867">
  <ele>-0.12</ele>
  <time>2026-09-02T22:08:02Z</time>
  <course>0.0</course>
  <speed>0.0</speed>
  <fix>3d</fix>
</trkpt>
<trkpt lat="33.810313" lon="-118.393867">
  <ele>-0.109</ele>
  <time>2026-09-02T22:08:02Z</time>
  <course>187.32</course>
  <speed>0.03605551275463989</speed>
  <fix>3d</fix>
</trkpt>
<trkpt lat="33.810313" lon="-118.393867">
  <ele>-0.12</ele>
  <time>2026-09-02T22:08:02Z</time>
  <course>0.0</course>
  <speed>0.0</speed>
  <fix>3d</fix>
</trkpt>
<trkpt lat="33.810313" lon="-118.393867">
  <ele>-0.108</ele>
  <time>2026-09-02T22:08:02Z</time>
  <course>187.31</course>
  <speed>0.03605551275463989</speed>
  <fix>3d</fix>
</trkpt>
<trkpt lat="33.810313" lon="-118.393867">
  <ele>-0.12</ele>
  <time>2026-09-02T22:08:02Z</time>
  <course>0.0</course>
  <speed>0.0</speed>
  <fix>3d</fix>
</trkpt>
<trkpt lat="33.810313" lon="-118.393867">
  <ele>-0.106</ele>
  <time>2026-09-02T22:08:02Z</time>
  <course>187.31</course>
  <speed>0.03605551275463989</speed>
  <fix>3d</fix>
</trkpt>
<trkpt lat="33.810313" lon="-118.393867">
  <ele>-0.12</ele>
  <time>2026-09-02T22:08:02Z</time>
  <course>0.0</course>
  <speed>0.0</speed>
  <fix>3d</fix>
</trkpt>
<trkpt lat="33.810313" lon="-118.393867">
  <ele>-0.103</ele>
  <time>2026-09-02T22:08:02Z</time>
  <course>187.3</course>
  <speed>0.03605551275463989</speed>
  <fix>3d</fix>
</trkpt>
<trkpt lat="33.810313" lon="-118.393867">
  <ele>-0.12</ele>
  <time>2026-09-02T22:08:02Z</time>
  <course>0.0</course>
  <speed>0.0</speed>
  <fix>3d</fix>
</trkpt>
<trkpt lat="33.810313" lon="-118.393867">
  <ele>-0.102</ele>
  <time>2026-09-02T22:08:02Z</time>
  <course>187.29</course>
  <speed>0.03605551275463989</speed>
  <fix>3d</fix>
</trkpt>
<trkpt lat="33.810313" lon="-118.393867">
  <ele>-0.12</ele>
  <time>2026-09-02T22:08:02Z</time>
  <course>0.0</course>
  <speed>0.0</speed>
  <fix>3d</fix>
</trkpt>
<trkpt lat="33.810313" lon="-118.393867">
  <ele>-0.102</ele>
  <time>2026-09-02T22:08:02Z</time>
  <course>187.29</course>
  <speed>0.03605551275463989</speed>
  <fix>3d</fix>
</trkpt>
<trkpt lat="33.810313" lon="-118.393867">
  <ele>-0.12</ele>
  <time>2026-09-02T22:08:02Z</time>
  <course>0.0</course>
  <speed>0.0</speed>
  <fix>3d</fix>
</trkpt>
<trkpt lat="33.810313" lon="-118.393867">
  <ele>-0.103</ele>
  <time>2026-09-02T22:08:02Z</time>
  <course>187.28</course>
  <speed>0.03605551275463989</speed>
  <fix>3d</fix>
</trkpt>
<trkpt lat="33.810313" lon="-118.393867">
  <ele>-0.12</ele>
  <time>2026-09-02T22:08:02Z</time>
  <course>0.0</course>
  <speed>0.0</speed>
  <fix>3d</fix>
</trkpt>
<trkpt lat="33.810313" lon="-118.393867">
  <ele>-0.105</ele>
  <time>2026-09-02T22:08:02Z</time>
  <course>187.28</course>
  <speed>0.03605551275463989</speed>
  <fix>3d</fix>
</trkpt>
<trkpt lat="33.810313" lon="-118.393867">
  <ele>-0.12</ele>
  <time>2026-09-02T22:08:02Z</time>
  <course>0.0</course>
  <speed>0.0</speed>
  <fix>3d</fix>
</trkpt>
<trkpt lat="33.810313" lon="-118.393867">
  <ele>-0.106</ele>
  <time>2026-09-02T22:08:02Z</time>
  <course>187.27</course>
  <speed>0.03605551275463989</speed>
  <fix>3d</fix>
</trkpt>
<trkpt lat="33.810313" lon="-118.393867">
  <ele>-0.12</ele>
  <time>2026-09-02T22:08:02Z</time>
  <course>0.0</course>
  <speed>0.0</speed>
  <fix>3d</fix>
</trkpt>
<trkpt lat="33.810313" lon="-118.393867">
  <ele>-0.107</ele>
  <time>2026-09-02T22:08:02Z</time>
  <course>187.27</course>
  <speed>0.03605551275463989</speed>
  <fix>3d</fix>
</trkpt>
<trkpt lat="33.810313" lon="-118.393867">
  <ele>-0.12</ele>
  <time>2026-09-02T22:08:02Z</time>
  <course>0.0</course>
  <speed>0.0</speed>
  <fix>3d</fix>
</trkpt>
<trkpt lat="33.810313" lon="-118.393867">
  <ele>-0.11</ele>
  <time>2026-09-02T22:08:02Z</time>
  <course>187.26</course>
  <speed>0.03605551275463989</speed>
  <fix>3d</fix>
</trkpt>
<trkpt lat="33.810313" lon="-118.393867">
  <ele>-0.12</ele>
  <time>2026-09-02T22:08:02Z</time>
  <course>0.0</course>
  <speed>0.0</speed>
  <fix>3d</fix>
</trkpt>
<trkpt lat="33.810313" lon="-118.393867">
  <ele>-0.111</ele>
  <time>2026-09-02T22:08:02Z</time>
  <course>187.26</course>
  <speed>0.03605551275463989</speed>
  <fix>3d</fix>
</trkpt>
<trkpt lat="33.810313" lon="-118.393867">
  <ele>-0.12</ele>
  <time>2026-09-02T22:08:02Z</time>
  <course>0.0</course>
  <speed>0.0</speed>
  <fix>3d</fix>
</trkpt>
<trkpt lat="33.810313" lon="-118.393867">
  <ele>-0.112</ele>
  <time>2026-09-02T22:08:02Z</time>
  <course>187.25</course>
  <speed>0.03605551275463989</speed>
  <fix>3d</fix>
</trkpt>
<trkpt lat="33.810313" lon="-118.393867">
  <ele>-0.12</ele>
  <time>2026-09-02T22:08:02Z</time>
  <course>0.0</course>
  <speed>0.0</speed>
  <fix>3d</fix>
</trkpt>
<trkpt lat="33.810313" lon="-118.393867">
  <ele>-0.114</ele>
  <time>2026-09-02T22:08:02Z</time>
  <course>187.24</course>
  <speed>0.03605551275463989</speed>
  <fix>3d</fix>
</trkpt>
<trkpt lat="33.810313" lon="-118.393867">
  <ele>-0.12</ele>
  <time>2026-09-02T22:08:02Z</time>
  <course>0.0</course>
  <speed>0.0</speed>
  <fix>3d</fix>
</trkpt>
<trkpt lat="33.810313" lon="-118.393867">
  <ele>-0.115</ele>
  <time>2026-09-02T22:08:02Z</time>
  <course>187.24</course>
  <speed>0.03605551275463989</speed>
  <fix>3d</fix>
</trkpt>
<trkpt lat="33.810313" lon="-118.393867">
  <ele>-0.12</ele>
  <time>2026-09-02T22:08:02Z</time>
  <course>0.0</course>
  <speed>0.0</speed>
  <fix>3d</fix>
</trkpt>
<trkpt lat="33.810313" lon="-118.393867">
  <ele>-0.116</ele>
  <time>2026-09-02T22:08:02Z</time>
  <course>187.23</course>
  <speed>0.03605551275463989</speed>
  <fix>3d</fix>
</trkpt>
<trkpt lat="33.810313" lon="-118.393867">
  <ele>-0.12</ele>
  <time>2026-09-02T22:08:02Z</time>
  <course>0.0</course>
  <speed>0.0</speed>
  <fix>3d</fix>
</trkpt>
<trkpt lat="33.810313" lon="-118.393867">
  <ele>-0.117</ele>
  <time>2026-09-02T22:08:02Z</time>
  <course>187.23</course>
  <speed>0.03605551275463989</speed>
  <fix>3d</fix>
</trkpt>
<trkpt lat="33.810313" lon="-118.393867">
  <ele>-0.12</ele>
  <time>2026-09-02T22:08:02Z</time>
  <course>0.0</course>
  <speed>0.0</speed>
  <fix>3d</fix>
</trkpt>
<trkpt lat="33.810313" lon="-118.393867">
  <ele>-0.118</ele>
  <time>2026-09-02T22:08:02Z</time>
  <course>187.22</course>
  <speed>0.03605551275463989</speed>
  <fix>3d</fix>
</trkpt>
<trkpt lat="33.810313" lon="-118.393867">
  <ele>-0.12</ele>
  <time>2026-09-02T22:08:02Z</time>
  <course>0.0</course>
  <speed>0.0</speed>
  <fix>3d</fix>
</trkpt>
<trkpt lat="33.810313" lon="-118.393867">
  <ele>-0.118</ele>
  <time>2026-09-02T22:08:02Z</time>
  <course>187.22</course>
  <speed>0.03605551275463989</speed>
  <fix>3d</fix>
</trkpt>
<trkpt lat="33.810313" lon="-118.393867">
  <ele>-0.12</ele>
  <time>2026-09-02T22:08:02Z</time>
  <course>0.0</course>
  <speed>0.0</speed>
  <fix>3d</fix>
</trkpt>
<trkpt lat="33.810313" lon="-118.393867">
  <ele>-0.118</ele>
  <time>2026-09-02T22:08:02Z</time>
  <course>187.21</course>
  <speed>0.03605551275463989</speed>
  <fix>3d</fix>
</trkpt>
<trkpt lat="33.810313" lon="-118.393867">
  <ele>-0.12</ele>
  <time>2026-09-02T22:08:02Z</time>
  <course>0.0</course>
  <speed>0.0</speed>
  <fix>3d</fix>
</trkpt>
<trkpt lat="33.810313" lon="-118.393867">
  <ele>-0.119</ele>
  <time>2026-09-02T22:08:02Z</time>
  <course>187.21</course>
  <speed>0.03605551275463989</speed>
  <fix>3d</fix>
</trkpt>
<trkpt lat="33.810313" lon="-118.393867">
  <ele>-0.12</ele>
  <time>2026-09-02T22:08:02Z</time>
  <course>0.0</course>
  <speed>0.0</speed>
  <fix>3d</fix>
</trkpt>
<trkpt lat="33.810313" lon="-118.393867">
  <ele>-0.119</ele>
  <time>2026-09-02T22:08:02Z</time>
  <course>187.2</course>
  <speed>0.03605551275463989</speed>
  <fix>3d</fix>
</trkpt>
<trkpt lat="33.810313" lon="-118.393867">
  <ele>-0.12</ele>
  <time>2026-09-02T22:08:02Z</time>
  <course>0.0</course>
  <speed>0.0</speed>
  <fix>3d</fix>
</trkpt>
<trkpt lat="33.810313" lon="-118.393867">
  <ele>-0.119</ele>
  <time>2026-09-02T22:08:02Z</time>
  <course>187.2</course>
  <speed>0.03605551275463989</speed>
  <fix>3d</fix>
</trkpt>
<trkpt lat="33.810313" lon="-118.393867">
  <ele>-0.12</ele>
  <time>2026-09-02T22:08:02Z</time>
  <course>0.0</course>
  <speed>0.0</speed>
  <fix>3d</fix>
</trkpt>
<trkpt lat="33.810313" lon="-118.393867">
  <ele>-0.117</ele>
  <time>2026-09-02T22:08:02Z</time>
  <course>187.19</course>
  <speed>0.03605551275463989</speed>
  <fix>3d</fix>
</trkpt>
<trkpt lat="33.810313" lon="-118.393867">
  <ele>-0.12</ele>
  <time>2026-09-02T22:08:02Z</time>
  <course>0.0</course>
  <speed>0.0</speed>
  <fix>3d</fix>
</trkpt>
<trkpt lat="33.810313" lon="-118.393867">
  <ele>-0.116</ele>
  <time>2026-09-02T22:08:02Z</time>
  <course>187.19</course>
  <speed>0.03605551275463989</speed>
  <fix>3d</fix>
</trkpt>
<trkpt lat="33.810313" lon="-118.393867">
  <ele>-0.12</ele>
  <time>2026-09-02T22:08:02Z</time>
  <course>0.0</course>
  <speed>0.0</speed>
  <fix>3d</fix>
</trkpt>
<trkpt lat="33.810313" lon="-118.393867">
  <ele>-0.115</ele>
  <time>2026-09-02T22:08:02Z</time>
  <course>187.18</course>
  <speed>0.03605551275463989</speed>
  <fix>3d</fix>
</trkpt>
<trkpt lat="33.810313" lon="-118.393867">
  <ele>-0.12</ele>
  <time>2026-09-02T22:08:02Z</time>
  <course>0.0</course>
  <speed>0.0</speed>
  <fix>3d</fix>
</trkpt>
<trkpt lat="33.810313" lon="-118.393867">
  <ele>-0.116</ele>
  <time>2026-09-02T22:08:02Z</time>
  <course>187.18</course>
  <speed>0.03605551275463989</speed>
  <fix>3d</fix>
</trkpt>
<trkpt lat="33.810313" lon="-118.393867">
  <ele>-0.12</ele>
  <time>2026-09-02T22:08:02Z</time>
  <course>0.0</course>
  <speed>0.0</speed>
  <fix>3d</fix>
</trkpt>
<trkpt lat="33.810313" lon="-118.393867">
  <ele>-0.117</ele>
  <time>2026-09-02T22:08:02Z</time>
  <course>187.17</course>
  <speed>0.03605551275463989</speed>
  <fix>3d</fix>
</trkpt>
<trkpt lat="33.810313" lon="-118.393867">
  <ele>-0.12</ele>
  <time>2026-09-02T22:08:02Z</time>
  <course>0.0</course>
  <speed>0.0</speed>
  <fix>3d</fix>
</trkpt>
<trkpt lat="33.810313" lon="-118.393867">
  <ele>-0.119</ele>
  <time>2026-09-02T22:08:02Z</time>
  <course>187.17</course>
  <speed>0.0</speed>
  <fix>3d</fix>
</trkpt>
<trkpt lat="33.810313" lon="-118.393867">
  <ele>-0.12</ele>
  <time>2026-09-02T22:08:02Z</time>
  <course>0.0</course>
  <speed>0.0</speed>
  <fix>3d</fix>
</trkpt>
<trkpt lat="33.810313" lon="-118.393867">
  <ele>-0.12</ele>
  <time>2026-09-02T22:08:02Z</time>
  <course>187.16</course>
  <speed>0.0</speed>
  <fix>3d</fix>
</trkpt>
<trkpt lat="33.810313" lon="-118.393867">
  <ele>-0.12</ele>
  <time>2026-09-02T22:08:02Z</time>
  <course>0.0</course>
  <speed>0.0</speed>
  <fix>3d</fix>
</trkpt>
<trkpt lat="33.810313" lon="-118.393867">
  <ele>-0.121</ele>
  <time>2026-09-02T22:08:02Z</time>
  <course>187.16</course>
  <speed>0.0</speed>
  <fix>3d</fix>
</trkpt>
<trkpt lat="33.810313" lon="-118.393867">
  <ele>-0.12</ele>
  <time>2026-09-02T22:08:02Z</time>
  <course>0.0</course>
  <speed>0.0</speed>
  <fix>3d</fix>
</trkpt>
<trkpt lat="33.810313" lon="-118.393867">
  <ele>-0.12</ele>
  <time>2026-09-02T22:08:02Z</time>
  <course>187.15</course>
  <speed>0.0</speed>
  <fix>3d</fix>
</trkpt>
<trkpt lat="33.810313" lon="-118.393867">
  <ele>-0.12</ele>
  <time>2026-09-02T22:08:02Z</time>
  <course>0.0</course>
  <speed>0.0</speed>
  <fix>3d</fix>
</trkpt>
<trkpt lat="33.810313" lon="-118.393867">
  <ele>-0.118</ele>
  <time>2026-09-02T22:08:02Z</time>
  <course>187.15</course>
  <speed>0.0</speed>
  <fix>3d</fix>
</trkpt>
<trkpt lat="33.810313" lon="-118.393867">
  <ele>-0.12</ele>
  <time>2026-09-02T22:08:02Z</time>
  <course>0.0</course>
  <speed>0.0</speed>
  <fix>3d</fix>
</trkpt>
<trkpt lat="33.810313" lon="-118.393867">
  <ele>-0.115</ele>
  <time>2026-09-02T22:08:02Z</time>
  <course>187.14</course>
  <speed>0.0</speed>
  <fix>3d</fix>
</trkpt>
<trkpt lat="33.810313" lon="-118.393867">
  <ele>-0.12</ele>
  <time>2026-09-02T22:08:02Z</time>
  <course>0.0</course>
  <speed>0.0</speed>
  <fix>3d</fix>
</trkpt>
<trkpt lat="33.810313" lon="-118.393867">
  <ele>-0.113</ele>
  <time>2026-09-02T22:08:02Z</time>
  <course>187.14</course>
  <speed>0.0</speed>
  <fix>3d</fix>
</trkpt>
<trkpt lat="33.810313" lon="-118.393867">
  <ele>-0.12</ele>
  <time>2026-09-02T22:08:02Z</time>
  <course>0.0</course>
  <speed>0.0</speed>
  <fix>3d</fix>
</trkpt>
<trkpt lat="33.810313" lon="-118.393867">
  <ele>-0.112</ele>
  <time>2026-09-02T22:08:02Z</time>
  <course>187.13</course>
  <speed>0.0</speed>
  <fix>3d</fix>
</trkpt>
<trkpt lat="33.810313" lon="-118.393867">
  <ele>-0.12</ele>
  <time>2026-09-02T22:08:02Z</time>
  <course>0.0</course>
  <speed>0.0</speed>
  <fix>3d</fix>
</trkpt>
<trkpt lat="33.810313" lon="-118.393867">
  <ele>-0.111</ele>
  <time>2026-09-02T22:08:02Z</time>
  <course>187.13</course>
  <speed>0.0</speed>
  <fix>3d</fix>
</trkpt>
<trkpt lat="33.810313" lon="-118.393867">
  <ele>-0.12</ele>
  <time>2026-09-02T22:08:02Z</time>
  <course>0.0</course>
  <speed>0.0</speed>
  <fix>3d</fix>
</trkpt>
<trkpt lat="33.810313" lon="-118.393867">
  <ele>-0.112</ele>
  <time>2026-09-02T22:08:02Z</time>
  <course>187.12</course>
  <speed>0.0</speed>
  <fix>3d</fix>
</trkpt>
<trkpt lat="33.810313" lon="-118.393867">
  <ele>-0.12</ele>
  <time>2026-09-02T22:08:02Z</time>
  <course>0.0</course>
  <speed>0.0</speed>
  <fix>3d</fix>
</trkpt>
<trkpt lat="33.810313" lon="-118.393867">
  <ele>-0.114</ele>
  <time>2026-09-02T22:08:02Z</time>
  <course>187.12</course>
  <speed>0.0</speed>
  <fix>3d</fix>
</trkpt>
<trkpt lat="33.810313" lon="-118.393867">
  <ele>-0.12</ele>
  <time>2026-09-02T22:08:02Z</time>
  <course>0.0</course>
  <speed>0.0</speed>
  <fix>3d</fix>
</trkpt>
<trkpt lat="33.810313" lon="-118.393867">
  <ele>-0.116</ele>
  <time>2026-09-02T22:08:02Z</time>
  <course>187.11</course>
  <speed>0.01</speed>
  <fix>3d</fix>
</trkpt>
<trkpt lat="33.810313" lon="-118.393867">
  <ele>-0.12</ele>
  <time>2026-09-02T22:08:02Z</time>
  <course>0.0</course>
  <speed>0.0</speed>
  <fix>3d</fix>
</trkpt>
<trkpt lat="33.810313" lon="-118.393867">
  <ele>-0.117</ele>
  <time>2026-09-02T22:08:02Z</time>
  <course>187.11</course>
  <speed>0.01</speed>
  <fix>3d</fix>
</trkpt>
<trkpt lat="33.810313" lon="-118.393867">
  <ele>-0.12</ele>
  <time>2026-09-02T22:08:02Z</time>
  <course>0.0</course>
  <speed>0.0</speed>
  <fix>3d</fix>
</trkpt>
<trkpt lat="33.810313" lon="-118.393867">
  <ele>-0.116</ele>
  <time>2026-09-02T22:08:02Z</time>
  <course>187.1</course>
  <speed>0.01</speed>
  <fix>3d</fix>
</trkpt>
<trkpt lat="33.810313" lon="-118.393867">
  <ele>-0.12</ele>
  <time>2026-09-02T22:08:02Z</time>
  <course>0.0</course>
  <speed>0.0</speed>
  <fix>3d</fix>
</trkpt>
<trkpt lat="33.810313" lon="-118.393867">
  <ele>-0.115</ele>
  <time>2026-09-02T22:08:02Z</time>
  <course>187.1</course>
  <speed>0.01414213562373095</speed>
  <fix>3d</fix>
</trkpt>
<trkpt lat="33.810313" lon="-118.393867">
  <ele>-0.12</ele>
  <time>2026-09-02T22:08:02Z</time>
  <course>0.0</course>
  <speed>0.0</speed>
  <fix>3d</fix>
</trkpt>
<trkpt lat="33.810313" lon="-118.393867">
  <ele>-0.113</ele>
  <time>2026-09-02T22:08:02Z</time>
  <course>187.09</course>
  <speed>0.01414213562373095</speed>
  <fix>3d</fix>
</trkpt>
<trkpt lat="33.810313" lon="-118.393867">
  <ele>-0.12</ele>
  <time>2026-09-02T22:08:02Z</time>
  <course>0.0</course>
  <speed>0.0</speed>
  <fix>3d</fix>
</trkpt>
<trkpt lat="33.810313" lon="-118.393867">
  <ele>-0.111</ele>
  <time>2026-09-02T22:08:02Z</time>
  <course>187.09</course>
  <speed>0.01414213562373095</speed>
  <fix>3d</fix>
</trkpt>
<trkpt lat="33.810313" lon="-118.393867">
  <ele>-0.12</ele>
  <time>2026-09-02T22:08:02Z</time>
  <course>0.0</course>
  <speed>0.0</speed>
  <fix>3d</fix>
</trkpt>
<trkpt lat="33.810313" lon="-118.393867">
  <ele>-0.109</ele>
  <time>2026-09-02T22:08:02Z</time>
  <course>187.08</course>
  <speed>0.01414213562373095</speed>
  <fix>3d</fix>
</trkpt>
<trkpt lat="33.810313" lon="-118.393867">
  <ele>-0.12</ele>
  <time>2026-09-02T22:08:02Z</time>
  <course>0.0</course>
  <speed>0.0</speed>
  <fix>3d</fix>
</trkpt>
<trkpt lat="33.810313" lon="-118.393867">
  <ele>-0.108</ele>
  <time>2026-09-02T22:08:02Z</time>
  <course>187.08</course>
  <speed>0.01414213562373095</speed>
  <fix>3d</fix>
</trkpt>
<trkpt lat="33.810313" lon="-118.393867">
  <ele>-0.12</ele>
  <time>2026-09-02T22:08:02Z</time>
  <course>0.0</course>
  <speed>0.0</speed>
  <fix>3d</fix>
</trkpt>
<trkpt lat="33.810313" lon="-118.393867">
  <ele>-0.108</ele>
  <time>2026-09-02T22:08:02Z</time>
  <course>187.07</course>
  <speed>0.01414213562373095</speed>
  <fix>3d</fix>
</trkpt>
<trkpt lat="33.810313" lon="-118.393867">
  <ele>-0.12</ele>
  <time>2026-09-02T22:08:02Z</time>
  <course>0.0</course>
  <speed>0.0</speed>
  <fix>3d</fix>
</trkpt>
<trkpt lat="33.810313" lon="-118.393867">
  <ele>-0.109</ele>
  <time>2026-09-02T22:08:02Z</time>
  <course>187.07</course>
  <speed>0.01414213562373095</speed>
  <fix>3d</fix>
</trkpt>
<trkpt lat="33.810313" lon="-118.393867">
  <ele>-0.12</ele>
  <time>2026-09-02T22:08:02Z</time>
  <course>0.0</course>
  <speed>0.0</speed>
  <fix>3d</fix>
</trkpt>
<trkpt lat="33.810313" lon="-118.393867">
  <ele>-0.11</ele>
  <time>2026-09-02T22:08:02Z</time>
  <course>187.06</course>
  <speed>0.022360679774997897</speed>
  <fix>3d</fix>
</trkpt>
<trkpt lat="33.810313" lon="-118.393867">
  <ele>-0.12</ele>
  <time>2026-09-02T22:08:02Z</time>
  <course>0.0</course>
  <speed>0.0</speed>
  <fix>3d</fix>
</trkpt>
<trkpt lat="33.810313" lon="-118.393867">
  <ele>-0.111</ele>
  <time>2026-09-02T22:08:02Z</time>
  <course>187.06</course>
  <speed>0.022360679774997897</speed>
  <fix>3d</fix>
</trkpt>
<trkpt lat="33.810313" lon="-118.393867">
  <ele>-0.12</ele>
  <time>2026-09-02T22:08:02Z</time>
  <course>0.0</course>
  <speed>0.0</speed>
  <fix>3d</fix>
</trkpt>
<trkpt lat="33.810313" lon="-118.393867">
  <ele>-0.111</ele>
  <time>2026-09-02T22:08:02Z</time>
  <course>187.05</course>
  <speed>0.022360679774997897</speed>
  <fix>3d</fix>
</trkpt>
<trkpt lat="33.810313" lon="-118.393867">
  <ele>-0.12</ele>
  <time>2026-09-02T22:08:02Z</time>
  <course>0.0</course>
  <speed>0.0</speed>
  <fix>3d</fix>
</trkpt>
<trkpt lat="33.810313" lon="-118.393867">
  <ele>-0.11</ele>
  <time>2026-09-02T22:08:02Z</time>
  <course>187.05</course>
  <speed>0.022360679774997897</speed>
  <fix>3d</fix>
</trkpt>
<trkpt lat="33.810313" lon="-118.393867">
  <ele>-0.12</ele>
  <time>2026-09-02T22:08:02Z</time>
  <course>0.0</course>
  <speed>0.0</speed>
  <fix>3d</fix>
</trkpt>
<trkpt lat="33.810313" lon="-118.393867">
  <ele>-0.109</ele>
  <time>2026-09-02T22:08:02Z</time>
  <course>187.04</course>
  <speed>0.022360679774997897</speed>
  <fix>3d</fix>
</trkpt>
<trkpt lat="33.810313" lon="-118.393867">
  <ele>-0.12</ele>
  <time>2026-09-02T22:08:02Z</time>
  <course>0.0</course>
  <speed>0.0</speed>
  <fix>3d</fix>
</trkpt>
<trkpt lat="33.8103131" lon="-118.393867">
  <ele>-0.108</ele>
  <time>2026-09-02T22:08:02Z</time>
  <course>187.04</course>
  <speed>0.022360679774997897</speed>
  <fix>3d</fix>
</trkpt>
<trkpt lat="33.810313" lon="-118.393867">
  <ele>-0.12</ele>
  <time>2026-09-02T22:08:02Z</time>
  <course>0.0</course>
  <speed>0.0</speed>
  <fix>3d</fix>
</trkpt>
<trkpt lat="33.8103131" lon="-118.393867">
  <ele>-0.109</ele>
  <time>2026-09-02T22:08:02Z</time>
  <course>187.03</course>
  <speed>0.022360679774997897</speed>
  <fix>3d</fix>
</trkpt>
<trkpt lat="33.810313" lon="-118.393867">
  <ele>-0.12</ele>
  <time>2026-09-02T22:08:02Z</time>
  <course>0.0</course>
  <speed>0.0</speed>
  <fix>3d</fix>
</trkpt>
<trkpt lat="33.8103131" lon="-118.3938671">
  <ele>-0.111</ele>
  <time>2026-09-02T22:08:02Z</time>
  <course>187.03</course>
  <speed>0.022360679774997897</speed>
  <fix>3d</fix>
</trkpt>
<trkpt lat="33.810313" lon="-118.393867">
  <ele>-0.12</ele>
  <time>2026-09-02T22:08:02Z</time>
  <course>0.0</course>
  <speed>0.0</speed>
  <fix>3d</fix>
</trkpt>
<trkpt lat="33.8103131" lon="-118.3938671">
  <ele>-0.113</ele>
  <time>2026-09-02T22:08:02Z</time>
  <course>187.02</course>
  <speed>0.0282842712474619</speed>
  <fix>3d</fix>
</trkpt>
<trkpt lat="33.810313" lon="-118.393867">
  <ele>-0.12</ele>
  <time>2026-09-02T22:08:02Z</time>
  <course>0.0</course>
  <speed>0.0</speed>
  <fix>3d</fix>
</trkpt>
<trkpt lat="33.8103131" lon="-118.3938671">
  <ele>-0.115</ele>
  <time>2026-09-02T22:08:02Z</time>
  <course>187.02</course>
  <speed>0.0282842712474619</speed>
  <fix>3d</fix>
</trkpt>
<trkpt lat="33.810313" lon="-118.393867">
  <ele>-0.12</ele>
  <time>2026-09-02T22:08:02Z</time>
  <course>0.0</course>
  <speed>0.0</speed>
  <fix>3d</fix>
</trkpt>
<trkpt lat="33.8103131" lon="-118.3938671">
  <ele>-0.118</ele>
  <time>2026-09-02T22:08:02Z</time>
  <course>187.01</course>
  <speed>0.0282842712474619</speed>
  <fix>3d</fix>
</trkpt>
<trkpt lat="33.810313" lon="-118.393867">
  <ele>-0.12</ele>
  <time>2026-09-02T22:08:02Z</time>
  <course>0.0</course>
  <speed>0.0</speed>
  <fix>3d</fix>
</trkpt>
<trkpt lat="33.8103131" lon="-118.3938671">
  <ele>-0.12</ele>
  <time>2026-09-02T22:08:02Z</time>
  <course>187.01</course>
  <speed>0.0282842712474619</speed>
  <fix>3d</fix>
</trkpt>
<trkpt lat="33.810313" lon="-118.393867">
  <ele>-0.12</ele>
  <time>2026-09-02T22:08:02Z</time>
  <course>0.0</course>
  <speed>0.0</speed>
  <fix>3d</fix>
</trkpt>
<trkpt lat="33.8103131" lon="-118.3938671">
  <ele>-0.12</ele>
  <time>2026-09-02T22:08:02Z</time>
  <course>187.01</course>
  <speed>0.0282842712474619</speed>
  <fix>3d</fix>
</trkpt>
<trkpt lat="33.810313" lon="-118.393867">
  <ele>-0.12</ele>
  <time>2026-09-02T22:08:02Z</time>
  <course>0.0</course>
  <speed>0.0</speed>
  <fix>3d</fix>
</trkpt>
<trkpt lat="33.8103131" lon="-118.3938671">
  <ele>-0.119</ele>
  <time>2026-09-02T22:08:02Z</time>
  <course>187.0</course>
  <speed>0.0282842712474619</speed>
  <fix>3d</fix>
</trkpt>
<trkpt lat="33.810313" lon="-118.393867">
  <ele>-0.12</ele>
  <time>2026-09-02T22:08:02Z</time>
  <course>0.0</course>
  <speed>0.0</speed>
  <fix>3d</fix>
</trkpt>
<trkpt lat="33.8103131" lon="-118.3938671">
  <ele>-0.117</ele>
  <time>2026-09-02T22:08:02Z</time>
  <course>187.0</course>
  <speed>0.03605551275463989</speed>
  <fix>3d</fix>
</trkpt>
<trkpt lat="33.810313" lon="-118.393867">
  <ele>-0.12</ele>
  <time>2026-09-02T22:08:02Z</time>
  <course>0.0</course>
  <speed>0.0</speed>
  <fix>3d</fix>
</trkpt>
<trkpt lat="33.8103131" lon="-118.3938671">
  <ele>-0.115</ele>
  <time>2026-09-02T22:08:02Z</time>
  <course>186.99</course>
  <speed>0.03605551275463989</speed>
  <fix>3d</fix>
</trkpt>
<trkpt lat="33.810313" lon="-118.393867">
  <ele>-0.12</ele>
  <time>2026-09-02T22:08:02Z</time>
  <course>0.0</course>
  <speed>0.0</speed>
  <fix>3d</fix>
</trkpt>
<trkpt lat="33.8103131" lon="-118.3938671">
  <ele>-0.114</ele>
  <time>2026-09-02T22:08:02Z</time>
  <course>186.99</course>
  <speed>0.03605551275463989</speed>
  <fix>3d</fix>
</trkpt>
<trkpt lat="33.810313" lon="-118.393867">
  <ele>-0.12</ele>
  <time>2026-09-02T22:08:02Z</time>
  <course>0.0</course>
  <speed>0.0</speed>
  <fix>3d</fix>
</trkpt>
<trkpt lat="33.8103131" lon="-118.3938671">
  <ele>-0.115</ele>
  <time>2026-09-02T22:08:02Z</time>
  <course>186.98</course>
  <speed>0.03605551275463989</speed>
  <fix>3d</fix>
</trkpt>
<trkpt lat="33.810313" lon="-118.393867">
  <ele>-0.12</ele>
  <time>2026-09-02T22:08:02Z</time>
  <course>0.0</course>
  <speed>0.0</speed>
  <fix>3d</fix>
</trkpt>
<trkpt lat="33.8103131" lon="-118.3938671">
  <ele>-0.117</ele>
  <time>2026-09-02T22:08:02Z</time>
  <course>186.98</course>
  <speed>0.03605551275463989</speed>
  <fix>3d</fix>
</trkpt>
<trkpt lat="33.810313" lon="-118.393867">
  <ele>-0.12</ele>
  <time>2026-09-02T22:08:02Z</time>
  <course>0.0</course>
  <speed>0.0</speed>
  <fix>3d</fix>
</trkpt>
<trkpt lat="33.8103131" lon="-118.3938671">
  <ele>-0.118</ele>
  <time>2026-09-02T22:08:02Z</time>
  <course>186.97</course>
  <speed>0.03605551275463989</speed>
  <fix>3d</fix>
</trkpt>
<trkpt lat="33.810313" lon="-118.393867">
  <ele>-0.12</ele>
  <time>2026-09-02T22:08:02Z</time>
  <course>0.0</course>
  <speed>0.0</speed>
  <fix>3d</fix>
</trkpt>
<trkpt lat="33.8103132" lon="-118.3938671">
  <ele>-0.12</ele>
  <time>2026-09-02T22:08:02Z</time>
  <course>186.97</course>
  <speed>0.03605551275463989</speed>
  <fix>3d</fix>
</trkpt>
<trkpt lat="33.810313" lon="-118.393867">
  <ele>-0.12</ele>
  <time>2026-09-02T22:08:02Z</time>
  <course>0.0</course>
  <speed>0.0</speed>
  <fix>3d</fix>
</trkpt>
<trkpt lat="33.8103132" lon="-118.3938671">
  <ele>-0.122</ele>
  <time>2026-09-02T22:08:02Z</time>
  <course>186.96</course>
  <speed>0.03605551275463989</speed>
  <fix>3d</fix>
</trkpt>
<trkpt lat="33.810313" lon="-118.393867">
  <ele>-0.12</ele>
  <time>2026-09-02T22:08:02Z</time>
  <course>0.0</course>
  <speed>0.0</speed>
  <fix>3d</fix>
</trkpt>
<trkpt lat="33.8103132" lon="-118.3938671">
  <ele>-0.124</ele>
  <time>2026-09-02T22:08:02Z</time>
  <course>186.96</course>
  <speed>0.03605551275463989</speed>
  <fix>3d</fix>
</trkpt>
<trkpt lat="33.810313" lon="-118.393867">
  <ele>-0.12</ele>
  <time>2026-09-02T22:08:02Z</time>
  <course>0.0</course>
  <speed>0.0</speed>
  <fix>3d</fix>
</trkpt>
<trkpt lat="33.8103132" lon="-118.3938671">
  <ele>-0.124</ele>
  <time>2026-09-02T22:08:02Z</time>
  <course>186.96</course>
  <speed>0.03605551275463989</speed>
  <fix>3d</fix>
</trkpt>
<trkpt lat="33.810313" lon="-118.393867">
  <ele>-0.12</ele>
  <time>2026-09-02T22:08:02Z</time>
  <course>0.0</course>
  <speed>0.0</speed>
  <fix>3d</fix>
</trkpt>
<trkpt lat="33.8103132" lon="-118.3938671">
  <ele>-0.123</ele>
  <time>2026-09-02T22:08:02Z</time>
  <course>186.95</course>
  <speed>0.03605551275463989</speed>
  <fix>3d</fix>
</trkpt>
<trkpt lat="33.810313" lon="-118.393867">
  <ele>-0.12</ele>
  <time>2026-09-02T22:08:02Z</time>
  <course>0.0</course>
  <speed>0.0</speed>
  <fix>3d</fix>
</trkpt>
<trkpt lat="33.8103132" lon="-118.3938671">
  <ele>-0.122</ele>
  <time>2026-09-02T22:08:02Z</time>
  <course>186.95</course>
  <speed>0.03605551275463989</speed>
  <fix>3d</fix>
</trkpt>
<trkpt lat="33.810313" lon="-118.393867">
  <ele>-0.12</ele>
  <time>2026-09-02T22:08:02Z</time>
  <course>0.0</course>
  <speed>0.0</speed>
  <fix>3d</fix>
</trkpt>
<trkpt lat="33.8103132" lon="-118.3938671">
  <ele>-0.119</ele>
  <time>2026-09-02T22:08:02Z</time>
  <course>186.94</course>
  <speed>0.03605551275463989</speed>
  <fix>3d</fix>
</trkpt>
<trkpt lat="33.810313" lon="-118.393867">
  <ele>-0.12</ele>
  <time>2026-09-02T22:08:02Z</time>
  <course>0.0</course>
  <speed>0.0</speed>
  <fix>3d</fix>
</trkpt>
<trkpt lat="33.8103132" lon="-118.3938672">
  <ele>-0.117</ele>
  <time>2026-09-02T22:08:02Z</time>
  <course>186.94</course>
  <speed>0.03605551275463989</speed>
  <fix>3d</fix>
</trkpt>
<trkpt lat="33.810313" lon="-118.393867">
  <ele>-0.12</ele>
  <time>2026-09-02T22:08:02Z</time>
  <course>0.0</course>
  <speed>0.0</speed>
  <fix>3d</fix>
</trkpt>
<trkpt lat="33.8103132" lon="-118.3938671">
  <ele>-0.117</ele>
  <time>2026-09-02T22:08:02Z</time>
  <course>186.94</course>
  <speed>0.0282842712474619</speed>
  <fix>3d</fix>
</trkpt>
<trkpt lat="33.810313" lon="-118.393867">
  <ele>-0.12</ele>
  <time>2026-09-02T22:08:02Z</time>
  <course>0.0</course>
  <speed>0.0</speed>
  <fix>3d</fix>
</trkpt>
<trkpt lat="33.8103132" lon="-118.3938671">
  <ele>-0.117</ele>
  <time>2026-09-02T22:08:02Z</time>
  <course>186.93</course>
  <speed>0.0282842712474619</speed>
  <fix>3d</fix>
</trkpt>
<trkpt lat="33.810313" lon="-118.393867">
  <ele>-0.12</ele>
  <time>2026-09-02T22:08:02Z</time>
  <course>0.0</course>
  <speed>0.0</speed>
  <fix>3d</fix>
</trkpt>
<trkpt lat="33.8103132" lon="-118.3938671">
  <ele>-0.118</ele>
  <time>2026-09-02T22:08:02Z</time>
  <course>186.93</course>
  <speed>0.0282842712474619</speed>
  <fix>3d</fix>
</trkpt>
<trkpt lat="33.810313" lon="-118.393867">
  <ele>-0.12</ele>
  <time>2026-09-02T22:08:02Z</time>
  <course>0.0</course>
  <speed>0.0</speed>
  <fix>3d</fix>
</trkpt>
<trkpt lat="33.8103132" lon="-118.3938671">
  <ele>-0.118</ele>
  <time>2026-09-02T22:08:02Z</time>
  <course>186.92</course>
  <speed>0.022360679774997897</speed>
  <fix>3d</fix>
</trkpt>
<trkpt lat="33.810313" lon="-118.393867">
  <ele>-0.12</ele>
  <time>2026-09-02T22:08:02Z</time>
  <course>0.0</course>
  <speed>0.0</speed>
  <fix>3d</fix>
</trkpt>
<trkpt lat="33.8103132" lon="-118.3938671">
  <ele>-0.118</ele>
  <time>2026-09-02T22:08:02Z</time>
  <course>186.92</course>
  <speed>0.022360679774997897</speed>
  <fix>3d</fix>
</trkpt>
<trkpt lat="33.8103132" lon="-118.3938671">
  <ele>-0.125</ele>
  <time>2026-09-02T22:08:02Z</time>
  <course>186.92</course>
  <speed>0.022360679774997897</speed>
  <fix>3d</fix>
</trkpt>
<trkpt lat="33.810313" lon="-118.393867">
  <ele>-0.12</ele>
  <time>2026-09-02T22:08:02Z</time>
  <course>0.0</course>
  <speed>0.0</speed>
  <fix>3d</fix>
</trkpt>
<trkpt lat="33.8103132" lon="-118.3938671">
  <ele>-0.153</ele>
  <time>2026-09-02T22:08:02Z</time>
  <course>186.92</course>
  <speed>0.022360679774997897</speed>
  <fix>3d</fix>
</trkpt>
<trkpt lat="33.810313" lon="-118.393867">
  <ele>-0.13</ele>
  <time>2026-09-02T22:08:02Z</time>
  <course>0.0</course>
  <speed>0.0</speed>
  <fix>3d</fix>
</trkpt>
<trkpt lat="33.8103131" lon="-118.3938671">
  <ele>-0.199</ele>
  <time>2026-09-02T22:08:02Z</time>
  <course>186.91</course>
  <speed>0.022360679774997897</speed>
  <fix>3d</fix>
</trkpt>
<trkpt lat="33.810313" lon="-118.393867">
  <ele>-0.13</ele>
  <time>2026-09-02T22:08:02Z</time>
  <course>0.0</course>
  <speed>0.0</speed>
  <fix>3d</fix>
</trkpt>
<trkpt lat="33.8103131" lon="-118.3938671">
  <ele>-0.254</ele>
  <time>2026-09-02T22:08:02Z</time>
  <course>186.91</course>
  <speed>0.01414213562373095</speed>
  <fix>3d</fix>
</trkpt>
<trkpt lat="33.810313" lon="-118.393867">
  <ele>-0.17</ele>
  <time>2026-09-02T22:08:02Z</time>
  <course>0.0</course>
  <speed>0.0</speed>
  <fix>3d</fix>
</trkpt>
<trkpt lat="33.8103131" lon="-118.3938671">
  <ele>-0.256</ele>
  <time>2026-09-02T22:08:02Z</time>
  <course>186.91</course>
  <speed>0.01414213562373095</speed>
  <fix>3d</fix>
</trkpt>
<trkpt lat="33.8103131" lon="-118.3938671">
  <ele>-0.316</ele>
  <time>2026-09-02T22:08:02Z</time>
  <course>186.91</course>
  <speed>0.01414213562373095</speed>
  <fix>3d</fix>
</trkpt>
<trkpt lat="33.810313" lon="-118.393867">
  <ele>-0.17</ele>
  <time>2026-09-02T22:08:02Z</time>
  <course>0.0</course>
  <speed>0.0</speed>
  <fix>3d</fix>
</trkpt>
<trkpt lat="33.8103131" lon="-118.3938671">
  <ele>-0.319</ele>
  <time>2026-09-02T22:08:02Z</time>
  <course>186.91</course>
  <speed>0.01414213562373095</speed>
  <fix>3d</fix>
</trkpt>
<trkpt lat="33.8103131" lon="-118.3938671">
  <ele>-0.38</ele>
  <time>2026-09-02T22:08:02Z</time>
  <course>186.9</course>
  <speed>0.01414213562373095</speed>
  <fix>3d</fix>
</trkpt>
<trkpt lat="33.810313" lon="-118.393867">
  <ele>-0.27</ele>
  <time>2026-09-02T22:08:02Z</time>
  <course>0.0</course>
  <speed>0.0</speed>
  <fix>3d</fix>
</trkpt>
<trkpt lat="33.8103131" lon="-118.3938671">
  <ele>-0.402</ele>
  <time>2026-09-02T22:08:02Z</time>
  <course>186.9</course>
  <speed>0.01</speed>
  <fix>3d</fix>
</trkpt>
<trkpt lat="33.8103131" lon="-118.3938671">
  <ele>-0.445</ele>
  <time>2026-09-02T22:08:02Z</time>
  <course>186.9</course>
  <speed>0.01</speed>
  <fix>3d</fix>
</trkpt>
<trkpt lat="33.810313" lon="-118.393867">
  <ele>-0.27</ele>
  <time>2026-09-02T22:08:02Z</time>
  <course>0.0</course>
  <speed>0.0</speed>
  <fix>3d</fix>
</trkpt>
<trkpt lat="33.8103131" lon="-118.3938671">
  <ele>-0.469</ele>
  <time>2026-09-02T22:08:02Z</time>
  <course>186.9</course>
  <speed>0.01</speed>
  <fix>3d</fix>
</trkpt>
<trkpt lat="33.8103131" lon="-118.3938671">
  <ele>-0.511</ele>
  <time>2026-09-02T22:08:02Z</time>
  <course>186.89</course>
  <speed>0.0</speed>
  <fix>3d</fix>
</trkpt>
<trkpt lat="33.810313" lon="-118.393867">
  <ele>-0.38</ele>
  <time>2026-09-02T22:08:02Z</time>
  <course>0.0</course>
  <speed>0.0</speed>
  <fix>3d</fix>
</trkpt>
<trkpt lat="33.8103131" lon="-118.3938671">
  <ele>-0.536</ele>
  <time>2026-09-02T22:08:02Z</time>
  <course>186.89</course>
  <speed>0.0</speed>
  <fix>3d</fix>
</trkpt>
<trkpt lat="33.8103131" lon="-118.3938671">
  <ele>-0.578</ele>
  <time>2026-09-02T22:08:02Z</time>
  <course>186.89</course>
  <speed>0.0</speed>
  <fix>3d</fix>
</trkpt>
<trkpt lat="33.810313" lon="-118.393867">
  <ele>-0.38</ele>
  <time>2026-09-02T22:08:02Z</time>
  <course>0.0</course>
  <speed>0.0</speed>
  <fix>3d</fix>
</trkpt>
<trkpt lat="33.8103131" lon="-118.3938671">
  <ele>-0.6</ele>
  <time>2026-09-02T22:08:02Z</time>
  <course>186.89</course>
  <speed>0.0</speed>
  <fix>3d</fix>
</trkpt>
<trkpt lat="33.8103131" lon="-118.3938671">
  <ele>-0.645</ele>
  <time>2026-09-02T22:08:02Z</time>
  <course>186.89</course>
  <speed>0.0</speed>
  <fix>3d</fix>
</trkpt>
<trkpt lat="33.810313" lon="-118.393867">
  <ele>-0.5</ele>
  <time>2026-09-02T22:08:02Z</time>
  <course>0.0</course>
  <speed>0.0</speed>
  <fix>3d</fix>
</trkpt>
<trkpt lat="33.8103131" lon="-118.3938671">
  <ele>-0.668</ele>
  <time>2026-09-02T22:08:02Z</time>
  <course>186.89</course>
  <speed>0.0</speed>
  <fix>3d</fix>
</trkpt>
<trkpt lat="33.8103131" lon="-118.3938671">
  <ele>-0.71</ele>
  <time>2026-09-02T22:08:02Z</time>
  <course>186.88</course>
  <speed>0.0</speed>
  <fix>3d</fix>
</trkpt>
<trkpt lat="33.810313" lon="-118.393867">
  <ele>-0.5</ele>
  <time>2026-09-02T22:08:02Z</time>
  <course>0.0</course>
  <speed>0.0</speed>
  <fix>3d</fix>
</trkpt>
<trkpt lat="33.8103131" lon="-118.3938671">
  <ele>-0.712</ele>
  <time>2026-09-02T22:08:02Z</time>
  <course>186.88</course>
  <speed>0.0</speed>
  <fix>3d</fix>
</trkpt>
<trkpt lat="33.8103131" lon="-118.3938671">
  <ele>-0.776</ele>
  <time>2026-09-02T22:08:02Z</time>
  <course>184.87</course>
  <speed>0.0</speed>
  <fix>3d</fix>
</trkpt>
<trkpt lat="33.810313" lon="-118.393867">
  <ele>-0.62</ele>
  <time>2026-09-02T22:08:02Z</time>
  <course>0.0</course>
  <speed>0.0</speed>
  <fix>3d</fix>
</trkpt>
<trkpt lat="33.8103131" lon="-118.3938671">
  <ele>-0.778</ele>
  <time>2026-09-02T22:08:02Z</time>
  <course>184.87</course>
  <speed>0.0</speed>
  <fix>3d</fix>
</trkpt>
<trkpt lat="33.8103131" lon="-118.3938671">
  <ele>-0.84</ele>
  <time>2026-09-02T22:08:02Z</time>
  <course>184.87</course>
  <speed>0.0</speed>
  <fix>3d</fix>
</trkpt>
<trkpt lat="33.810313" lon="-118.393867">
  <ele>-0.62</ele>
  <time>2026-09-02T22:08:02Z</time>
  <course>0.0</course>
  <speed>0.0</speed>
  <fix>3d</fix>
</trkpt>
<trkpt lat="33.8103131" lon="-118.3938671">
  <ele>-0.861</ele>
  <time>2026-09-02T22:08:02Z</time>
  <course>184.88</course>
  <speed>0.0</speed>
  <fix>3d</fix>
</trkpt>
<trkpt lat="33.8103131" lon="-118.3938671">
  <ele>-0.903</ele>
  <time>2026-09-02T22:08:02Z</time>
  <course>184.88</course>
  <speed>0.0</speed>
  <fix>3d</fix>
</trkpt>
<trkpt lat="33.810313" lon="-118.393867">
  <ele>-0.75</ele>
  <time>2026-09-02T22:08:02Z</time>
  <course>0.0</course>
  <speed>0.0</speed>
  <fix>3d</fix>
</trkpt>
<trkpt lat="33.8103131" lon="-118.3938671">
  <ele>-0.927</ele>
  <time>2026-09-02T22:08:02Z</time>
  <course>184.89</course>
  <speed>0.0</speed>
  <fix>3d</fix>
</trkpt>
<trkpt lat="33.8103131" lon="-118.3938671">
  <ele>-0.967</ele>
  <time>2026-09-02T22:08:02Z</time>
  <course>184.89</course>
  <speed>0.0</speed>
  <fix>3d</fix>
</trkpt>
<trkpt lat="33.810313" lon="-118.393867">
  <ele>-0.75</ele>
  <time>2026-09-02T22:08:02Z</time>
  <course>0.0</course>
  <speed>0.0</speed>
  <fix>3d</fix>
</trkpt>
<trkpt lat="33.8103131" lon="-118.3938671">
  <ele>-0.994</ele>
  <time>2026-09-02T22:08:02Z</time>
  <course>184.9</course>
  <speed>0.0</speed>
  <fix>3d</fix>
</trkpt>
<trkpt lat="33.8103131" lon="-118.3938671">
  <ele>-1.029</ele>
  <time>2026-09-02T22:08:02Z</time>
  <course>184.9</course>
  <speed>0.0</speed>
  <fix>3d</fix>
</trkpt>
<trkpt lat="33.810313" lon="-118.393867">
  <ele>-0.87</ele>
  <time>2026-09-02T22:08:02Z</time>
  <course>0.0</course>
  <speed>0.0</speed>
  <fix>3d</fix>
</trkpt>
<trkpt lat="33.8103131" lon="-118.3938671">
  <ele>-1.031</ele>
  <time>2026-09-02T22:08:02Z</time>
  <course>184.9</course>
  <speed>0.0</speed>
  <fix>3d</fix>
</trkpt>
<trkpt lat="33.8103131" lon="-118.3938671">
  <ele>-1.09</ele>
  <time>2026-09-02T22:08:02Z</time>
  <course>184.91</course>
  <speed>0.0</speed>
  <fix>3d</fix>
</trkpt>
<trkpt lat="33.810313" lon="-118.393867">
  <ele>-0.87</ele>
  <time>2026-09-02T22:08:02Z</time>
  <course>0.0</course>
  <speed>0.0</speed>
  <fix>3d</fix>
</trkpt>
<trkpt lat="33.8103131" lon="-118.3938671">
  <ele>-1.092</ele>
  <time>2026-09-02T22:08:02Z</time>
  <course>184.91</course>
  <speed>0.0</speed>
  <fix>3d</fix>
</trkpt>
<trkpt lat="33.8103131" lon="-118.3938671">
  <ele>-1.151</ele>
  <time>2026-09-02T22:08:02Z</time>
  <course>184.92</course>
  <speed>0.0</speed>
  <fix>3d</fix>
</trkpt>
<trkpt lat="33.810313" lon="-118.393867">
  <ele>-0.99</ele>
  <time>2026-09-02T22:08:02Z</time>
  <course>0.0</course>
  <speed>0.0</speed>
  <fix>3d</fix>
</trkpt>
<trkpt lat="33.8103131" lon="-118.3938671">
  <ele>-1.174</ele>
  <time>2026-09-02T22:08:02Z</time>
  <course>184.92</course>
  <speed>0.0</speed>
  <fix>3d</fix>
</trkpt>
<trkpt lat="33.8103131" lon="-118.3938671">
  <ele>-1.211</ele>
  <time>2026-09-02T22:08:02Z</time>
  <course>184.93</course>
  <speed>0.0</speed>
  <fix>3d</fix>
</trkpt>
<trkpt lat="33.810313" lon="-118.393867">
  <ele>-0.99</ele>
  <time>2026-09-02T22:08:02Z</time>
  <course>0.0</course>
  <speed>0.0</speed>
  <fix>3d</fix>
</trkpt>
<trkpt lat="33.8103131" lon="-118.3938671">
  <ele>-1.233</ele>
  <time>2026-09-02T22:08:02Z</time>
  <course>184.93</course>
  <speed>0.0</speed>
  <fix>3d</fix>
</trkpt>
<trkpt lat="33.8103131" lon="-118.3938671">
  <ele>-1.272</ele>
  <time>2026-09-02T22:08:02Z</time>
  <course>184.94</course>
  <speed>0.0</speed>
  <fix>3d</fix>
</trkpt>
<trkpt lat="33.810313" lon="-118.393867">
  <ele>-1.1</ele>
  <time>2026-09-02T22:08:02Z</time>
  <course>0.0</course>
  <speed>0.0</speed>
  <fix>3d</fix>
</trkpt>
<trkpt lat="33.8103131" lon="-118.3938671">
  <ele>-1.294</ele>
  <time>2026-09-02T22:08:02Z</time>
  <course>184.94</course>
  <speed>0.0</speed>
  <fix>3d</fix>
</trkpt>
<trkpt lat="33.8103131" lon="-118.3938671">
  <ele>-1.333</ele>
  <time>2026-09-02T22:08:02Z</time>
  <course>184.95</course>
  <speed>0.0</speed>
  <fix>3d</fix>
</trkpt>
<trkpt lat="33.810313" lon="-118.393867">
  <ele>-1.1</ele>
  <time>2026-09-02T22:08:02Z</time>
  <course>0.0</course>
  <speed>0.0</speed>
  <fix>3d</fix>
</trkpt>
<trkpt lat="33.8103131" lon="-118.3938671">
  <ele>-1.354</ele>
  <time>2026-09-02T22:08:02Z</time>
  <course>184.95</course>
  <speed>0.0</speed>
  <fix>3d</fix>
</trkpt>
<trkpt lat="33.810313" lon="-118.393867">
  <ele>-1.394</ele>
  <time>2026-09-02T22:08:02Z</time>
  <course>184.96</course>
  <speed>0.0</speed>
  <fix>3d</fix>
</trkpt>
<trkpt lat="33.810313" lon="-118.393867">
  <ele>-1.23</ele>
  <time>2026-09-02T22:08:02Z</time>
  <course>0.0</course>
  <speed>0.0</speed>
  <fix>3d</fix>
</trkpt>
<trkpt lat="33.810313" lon="-118.393867">
  <ele>-1.395</ele>
  <time>2026-09-02T22:08:02Z</time>
  <course>184.96</course>
  <speed>0.0</speed>
  <fix>3d</fix>
</trkpt>
<trkpt lat="33.810313" lon="-118.393867">
  <ele>-1.455</ele>
  <time>2026-09-02T22:08:02Z</time>
  <course>184.97</course>
  <speed>0.0</speed>
  <fix>3d</fix>
</trkpt>
<trkpt lat="33.810313" lon="-118.393867">
  <ele>-1.23</ele>
  <time>2026-09-02T22:08:02Z</time>
  <course>0.0</course>
  <speed>0.0</speed>
  <fix>3d</fix>
</trkpt>
<trkpt lat="33.810313" lon="-118.393867">
  <ele>-1.474</ele>
  <time>2026-09-02T22:08:02Z</time>
  <course>184.97</course>
  <speed>0.0</speed>
  <fix>3d</fix>
</trkpt>
<trkpt lat="33.810313" lon="-118.393867">
  <ele>-1.517</ele>
  <time>2026-09-02T22:08:02Z</time>
  <course>184.98</course>
  <speed>0.0</speed>
  <fix>3d</fix>
</trkpt>
<trkpt lat="33.810313" lon="-118.393867">
  <ele>-1.34</ele>
  <time>2026-09-02T22:08:02Z</time>
  <course>0.0</course>
  <speed>0.0</speed>
  <fix>3d</fix>
</trkpt>
<trkpt lat="33.810313" lon="-118.393867">
  <ele>-1.536</ele>
  <time>2026-09-02T22:08:02Z</time>
  <course>184.98</course>
  <speed>0.0</speed>
  <fix>3d</fix>
</trkpt>
<trkpt lat="33.810313" lon="-118.393867">
  <ele>-1.578</ele>
  <time>2026-09-02T22:08:02Z</time>
  <course>184.98</course>
  <speed>0.0</speed>
  <fix>3d</fix>
</trkpt>
<trkpt lat="33.810313" lon="-118.393867">
  <ele>-1.34</ele>
  <time>2026-09-02T22:08:02Z</time>
  <course>0.0</course>
  <speed>0.0</speed>
  <fix>3d</fix>
</trkpt>
<trkpt lat="33.810313" lon="-118.393867">
  <ele>-1.601</ele>
  <time>2026-09-02T22:08:02Z</time>
  <course>184.99</course>
  <speed>0.0</speed>
  <fix>3d</fix>
</trkpt>
<trkpt lat="33.810313" lon="-118.393867">
  <ele>-1.641</ele>
  <time>2026-09-02T22:08:02Z</time>
  <course>184.99</course>
  <speed>0.0</speed>
  <fix>3d</fix>
</trkpt>
<trkpt lat="33.810313" lon="-118.393867">
  <ele>-1.47</ele>
  <time>2026-09-02T22:08:02Z</time>
  <course>0.0</course>
  <speed>0.0</speed>
  <fix>3d</fix>
</trkpt>
<trkpt lat="33.810313" lon="-118.393867">
  <ele>-1.663</ele>
  <time>2026-09-02T22:08:02Z</time>
  <course>185.0</course>
  <speed>0.0</speed>
  <fix>3d</fix>
</trkpt>
<trkpt lat="33.810313" lon="-118.393867">
  <ele>-1.704</ele>
  <time>2026-09-02T22:08:02Z</time>
  <course>185.0</course>
  <speed>0.0</speed>
  <fix>3d</fix>
</trkpt>
<trkpt lat="33.810313" lon="-118.393867">
  <ele>-1.47</ele>
  <time>2026-09-02T22:08:02Z</time>
  <course>0.0</course>
  <speed>0.0</speed>
  <fix>3d</fix>
</trkpt>
<trkpt lat="33.810313" lon="-118.393867">
  <ele>-1.705</ele>
  <time>2026-09-02T22:08:02Z</time>
  <course>185.0</course>
  <speed>0.0</speed>
  <fix>3d</fix>
</trkpt>
<trkpt lat="33.810313" lon="-118.393867">
  <ele>-1.766</ele>
  <time>2026-09-02T22:08:02Z</time>
  <course>185.01</course>
  <speed>0.0</speed>
  <fix>3d</fix>
</trkpt>
<trkpt lat="33.810313" lon="-118.393867">
  <ele>-1.58</ele>
  <time>2026-09-02T22:08:02Z</time>
  <course>0.0</course>
  <speed>0.0</speed>
  <fix>3d</fix>
</trkpt>
<trkpt lat="33.810313" lon="-118.393867">
  <ele>-1.786</ele>
  <time>2026-09-02T22:08:02Z</time>
  <course>185.01</course>
  <speed>0.0</speed>
  <fix>3d</fix>
</trkpt>
<trkpt lat="33.810313" lon="-118.393867">
  <ele>-1.829</ele>
  <time>2026-09-02T22:08:02Z</time>
  <course>185.02</course>
  <speed>0.0</speed>
  <fix>3d</fix>
</trkpt>
<trkpt lat="33.810313" lon="-118.393867">
  <ele>-1.58</ele>
  <time>2026-09-02T22:08:02Z</time>
  <course>0.0</course>
  <speed>0.0</speed>
  <fix>3d</fix>
</trkpt>
<trkpt lat="33.810313" lon="-118.393867">
  <ele>-1.832</ele>
  <time>2026-09-02T22:08:02Z</time>
  <course>185.02</course>
  <speed>0.0</speed>
  <fix>3d</fix>
</trkpt>
<trkpt lat="33.810313" lon="-118.393867">
  <ele>-1.892</ele>
  <time>2026-09-02T22:08:02Z</time>
  <course>185.03</course>
  <speed>0.0</speed>
  <fix>3d</fix>
</trkpt>
<trkpt lat="33.810313" lon="-118.393867">
  <ele>-1.71</ele>
  <time>2026-09-02T22:08:02Z</time>
  <course>0.0</course>
  <speed>0.0</speed>
  <fix>3d</fix>
</trkpt>
<trkpt lat="33.810313" lon="-118.393867">
  <ele>-1.894</ele>
  <time>2026-09-02T22:08:02Z</time>
  <course>185.03</course>
  <speed>0.0</speed>
  <fix>3d</fix>
</trkpt>
<trkpt lat="33.810313" lon="-118.393867">
  <ele>-1.955</ele>
  <time>2026-09-02T22:08:02Z</time>
  <course>185.04</course>
  <speed>0.0</speed>
  <fix>3d</fix>
</trkpt>
<trkpt lat="33.810313" lon="-118.393867">
  <ele>-1.71</ele>
  <time>2026-09-02T22:08:02Z</time>
  <course>0.0</course>
  <speed>0.0</speed>
  <fix>3d</fix>
</trkpt>
<trkpt lat="33.810313" lon="-118.393867">
  <ele>-1.975</ele>
  <time>2026-09-02T22:08:02Z</time>
  <course>185.04</course>
  <speed>0.0</speed>
  <fix>3d</fix>
</trkpt>
<trkpt lat="33.810313" lon="-118.393867">
  <ele>-2.017</ele>
  <time>2026-09-02T22:08:02Z</time>
  <course>185.05</course>
  <speed>0.0</speed>
  <fix>3d</fix>
</trkpt>
<trkpt lat="33.810313" lon="-118.393867">
  <ele>-1.82</ele>
  <time>2026-09-02T22:08:02Z</time>
  <course>0.0</course>
  <speed>0.0</speed>
  <fix>3d</fix>
</trkpt>
<trkpt lat="33.810313" lon="-118.393867">
  <ele>-2.019</ele>
  <time>2026-09-02T22:08:02Z</time>
  <course>185.05</course>
  <speed>0.0</speed>
  <fix>3d</fix>
</trkpt>
<trkpt lat="33.810313" lon="-118.393867">
  <ele>-2.079</ele>
  <time>2026-09-02T22:08:02Z</time>
  <course>185.06</course>
  <speed>0.0</speed>
  <fix>3d</fix>
</trkpt>
<trkpt lat="33.810313" lon="-118.393867">
  <ele>-1.82</ele>
  <time>2026-09-02T22:08:02Z</time>
  <course>0.0</course>
  <speed>0.0</speed>
  <fix>3d</fix>
</trkpt>
<trkpt lat="33.810313" lon="-118.393867">
  <ele>-2.101</ele>
  <time>2026-09-02T22:08:02Z</time>
  <course>185.06</course>
  <speed>0.0</speed>
  <fix>3d</fix>
</trkpt>
<trkpt lat="33.810313" lon="-118.393867">
  <ele>-2.141</ele>
  <time>2026-09-02T22:08:02Z</time>
  <course>185.07</course>
  <speed>0.0</speed>
  <fix>3d</fix>
</trkpt>
<trkpt lat="33.810313" lon="-118.393867">
  <ele>-1.95</ele>
  <time>2026-09-02T22:08:02Z</time>
  <course>0.0</course>
  <speed>0.0</speed>
  <fix>3d</fix>
</trkpt>
<trkpt lat="33.810313" lon="-118.393867">
  <ele>-2.165</ele>
  <time>2026-09-02T22:08:02Z</time>
  <course>185.07</course>
  <speed>0.0</speed>
  <fix>3d</fix>
</trkpt>
<trkpt lat="33.810313" lon="-118.393867">
  <ele>-2.203</ele>
  <time>2026-09-02T22:08:02Z</time>
  <course>185.07</course>
  <speed>0.0</speed>
  <fix>3d</fix>
</trkpt>
<trkpt lat="33.810313" lon="-118.393867">
  <ele>-1.95</ele>
  <time>2026-09-02T22:08:02Z</time>
  <course>0.0</course>
  <speed>0.0</speed>
  <fix>3d</fix>
</trkpt>
<trkpt lat="33.810313" lon="-118.393867">
  <ele>-2.225</ele>
  <time>2026-09-02T22:08:02Z</time>
  <course>185.08</course>
  <speed>0.0</speed>
  <fix>3d</fix>
</trkpt>
<trkpt lat="33.810313" lon="-118.393867">
  <ele>-2.266</ele>
  <time>2026-09-02T22:08:02Z</time>
  <course>185.08</course>
  <speed>0.0</speed>
  <fix>3d</fix>
</trkpt>
<trkpt lat="33.810313" lon="-118.393867">
  <ele>-2.07</ele>
  <time>2026-09-02T22:08:02Z</time>
  <course>0.0</course>
  <speed>0.0</speed>
  <fix>3d</fix>
</trkpt>
<trkpt lat="33.810313" lon="-118.393867">
  <ele>-2.29</ele>
  <time>2026-09-02T22:08:02Z</time>
  <course>185.09</course>
  <speed>0.0</speed>
  <fix>3d</fix>
</trkpt>
<trkpt lat="33.810313" lon="-118.393867">
  <ele>-2.329</ele>
  <time>2026-09-02T22:08:02Z</time>
  <course>185.09</course>
  <speed>0.0</speed>
  <fix>3d</fix>
</trkpt>
<trkpt lat="33.810313" lon="-118.393867">
  <ele>-2.07</ele>
  <time>2026-09-02T22:08:02Z</time>
  <course>0.0</course>
  <speed>0.0</speed>
  <fix>3d</fix>
</trkpt>
<trkpt lat="33.810313" lon="-118.393867">
  <ele>-2.33</ele>
  <time>2026-09-02T22:08:02Z</time>
  <course>185.09</course>
  <speed>0.0</speed>
  <fix>3d</fix>
</trkpt>
<trkpt lat="33.810313" lon="-118.393867">
  <ele>-2.391</ele>
  <time>2026-09-02T22:08:02Z</time>
  <course>185.1</course>
  <speed>0.0</speed>
  <fix>3d</fix>
</trkpt>
<trkpt lat="33.810313" lon="-118.393867">
  <ele>-2.19</ele>
  <time>2026-09-02T22:08:02Z</time>
  <course>0.0</course>
  <speed>0.0</speed>
  <fix>3d</fix>
</trkpt>
<trkpt lat="33.810313" lon="-118.393867">
  <ele>-2.415</ele>
  <time>2026-09-02T22:08:02Z</time>
  <course>185.11</course>
  <speed>0.0</speed>
  <fix>3d</fix>
</trkpt>
<trkpt lat="33.810313" lon="-118.393867">
  <ele>-2.453</ele>
  <time>2026-09-02T22:08:02Z</time>
  <course>185.11</course>
  <speed>0.0</speed>
  <fix>3d</fix>
</trkpt>
<trkpt lat="33.810313" lon="-118.393867">
  <ele>-2.19</ele>
  <time>2026-09-02T22:08:02Z</time>
  <course>0.0</course>
  <speed>0.0</speed>
  <fix>3d</fix>
</trkpt>
<trkpt lat="33.810313" lon="-118.393867">
  <ele>-2.455</ele>
  <time>2026-09-02T22:08:02Z</time>
  <course>185.11</course>
  <speed>0.0</speed>
  <fix>3d</fix>
</trkpt>
<trkpt lat="33.810313" lon="-118.393867">
  <ele>-2.514</ele>
  <time>2026-09-02T22:08:02Z</time>
  <course>185.12</course>
  <speed>0.0</speed>
  <fix>3d</fix>
</trkpt>
<trkpt lat="33.810313" lon="-118.393867">
  <ele>-2.31</ele>
  <time>2026-09-02T22:08:02Z</time>
  <course>0.0</course>
  <speed>0.0</speed>
  <fix>3d</fix>
</trkpt>
<trkpt lat="33.810313" lon="-118.393867">
  <ele>-2.516</ele>
  <time>2026-09-02T22:08:02Z</time>
  <course>185.12</course>
  <speed>0.0</speed>
  <fix>3d</fix>
</trkpt>
<trkpt lat="33.810313" lon="-118.393867">
  <ele>-2.576</ele>
  <time>2026-09-02T22:08:02Z</time>
  <course>185.13</course>
  <speed>0.0</speed>
  <fix>3d</fix>
</trkpt>
<trkpt lat="33.810313" lon="-118.393867">
  <ele>-2.31</ele>
  <time>2026-09-02T22:08:02Z</time>
  <course>0.0</course>
  <speed>0.0</speed>
  <fix>3d</fix>
</trkpt>
<trkpt lat="33.810313" lon="-118.393867">
  <ele>-2.581</ele>
  <time>2026-09-02T22:08:02Z</time>
  <course>185.13</course>
  <speed>0.0</speed>
  <fix>3d</fix>
</trkpt>
<trkpt lat="33.810313" lon="-118.3938671">
  <ele>-2.638</ele>
  <time>2026-09-02T22:08:02Z</time>
  <course>185.14</course>
  <speed>0.0</speed>
  <fix>3d</fix>
</trkpt>
<trkpt lat="33.810313" lon="-118.393867">
  <ele>-2.43</ele>
  <time>2026-09-02T22:08:02Z</time>
  <course>0.0</course>
  <speed>0.0</speed>
  <fix>3d</fix>
</trkpt>
<trkpt lat="33.810313" lon="-118.3938671">
  <ele>-2.64</ele>
  <time>2026-09-02T22:08:02Z</time>
  <course>185.14</course>
  <speed>0.0</speed>
  <fix>3d</fix>
</trkpt>
<trkpt lat="33.8103131" lon="-118.3938671">
  <ele>-2.701</ele>
  <time>2026-09-02T22:08:02Z</time>
  <course>185.15</course>
  <speed>0.0</speed>
  <fix>3d</fix>
</trkpt>
<trkpt lat="33.810313" lon="-118.393867">
  <ele>-2.43</ele>
  <time>2026-09-02T22:08:02Z</time>
  <course>0.0</course>
  <speed>0.0</speed>
  <fix>3d</fix>
</trkpt>
<trkpt lat="33.8103131" lon="-118.3938671">
  <ele>-2.724</ele>
  <time>2026-09-02T22:08:02Z</time>
  <course>185.15</course>
  <speed>0.0</speed>
  <fix>3d</fix>
</trkpt>
<trkpt lat="33.8103131" lon="-118.3938671">
  <ele>-2.763</ele>
  <time>2026-09-02T22:08:02Z</time>
  <course>185.16</course>
  <speed>0.0</speed>
  <fix>3d</fix>
</trkpt>
<trkpt lat="33.810313" lon="-118.393867">
  <ele>-2.56</ele>
  <time>2026-09-02T22:08:02Z</time>
  <course>0.0</course>
  <speed>0.0</speed>
  <fix>3d</fix>
</trkpt>
<trkpt lat="33.8103131" lon="-118.3938671">
  <ele>-2.788</ele>
  <time>2026-09-02T22:08:02Z</time>
  <course>185.16</course>
  <speed>0.0</speed>
  <fix>3d</fix>
</trkpt>
<trkpt lat="33.8103131" lon="-118.3938671">
  <ele>-2.824</ele>
  <time>2026-09-02T22:08:02Z</time>
  <course>185.17</course>
  <speed>0.0</speed>
  <fix>3d</fix>
</trkpt>
<trkpt lat="33.810313" lon="-118.393867">
  <ele>-2.56</ele>
  <time>2026-09-02T22:08:02Z</time>
  <course>0.0</course>
  <speed>0.0</speed>
  <fix>3d</fix>
</trkpt>
<trkpt lat="33.8103131" lon="-118.3938671">
  <ele>-2.849</ele>
  <time>2026-09-02T22:08:02Z</time>
  <course>185.17</course>
  <speed>0.0</speed>
  <fix>3d</fix>
</trkpt>
<trkpt lat="33.8103131" lon="-118.3938671">
  <ele>-2.885</ele>
  <time>2026-09-02T22:08:02Z</time>
  <course>185.18</course>
  <speed>0.0</speed>
  <fix>3d</fix>
</trkpt>
<trkpt lat="33.810313" lon="-118.393867">
  <ele>-2.67</ele>
  <time>2026-09-02T22:08:02Z</time>
  <course>0.0</course>
  <speed>0.0</speed>
  <fix>3d</fix>
</trkpt>
<trkpt lat="33.8103131" lon="-118.3938671">
  <ele>-2.91</ele>
  <time>2026-09-02T22:08:02Z</time>
  <course>185.18</course>
  <speed>0.0</speed>
  <fix>3d</fix>
</trkpt>
<trkpt lat="33.8103131" lon="-118.3938671">
  <ele>-2.946</ele>
  <time>2026-09-02T22:08:03Z</time>
  <course>185.18</course>
  <speed>0.0</speed>
  <fix>3d</fix>
</trkpt>
<trkpt lat="33.810313" lon="-118.393867">
  <ele>-2.67</ele>
  <time>2026-09-02T22:08:03Z</time>
  <course>0.0</course>
  <speed>0.0</speed>
  <fix>3d</fix>
</trkpt>
<trkpt lat="33.8103131" lon="-118.3938671">
  <ele>-2.947</ele>
  <time>2026-09-02T22:08:03Z</time>
  <course>185.18</course>
  <speed>0.0</speed>
  <fix>3d</fix>
</trkpt>
<trkpt lat="33.8103131" lon="-118.3938671">
  <ele>-3.006</ele>
  <time>2026-09-02T22:08:03Z</time>
  <course>185.19</course>
  <speed>0.0</speed>
  <fix>3d</fix>
</trkpt>
<trkpt lat="33.810313" lon="-118.393867">
  <ele>-2.8</ele>
  <time>2026-09-02T22:08:03Z</time>
  <course>0.0</course>
  <speed>0.0</speed>
  <fix>3d</fix>
</trkpt>
<trkpt lat="33.8103131" lon="-118.3938671">
  <ele>-3.007</ele>
  <time>2026-09-02T22:08:03Z</time>
  <course>185.19</course>
  <speed>0.0</speed>
  <fix>3d</fix>
</trkpt>
<trkpt lat="33.8103131" lon="-118.3938671">
  <ele>-3.065</ele>
  <time>2026-09-02T22:08:03Z</time>
  <course>185.2</course>
  <speed>0.0</speed>
  <fix>3d</fix>
</trkpt>
<trkpt lat="33.810313" lon="-118.393867">
  <ele>-2.8</ele>
  <time>2026-09-02T22:08:03Z</time>
  <course>0.0</course>
  <speed>0.0</speed>
  <fix>3d</fix>
</trkpt>
<trkpt lat="33.8103131" lon="-118.3938671">
  <ele>-3.086</ele>
  <time>2026-09-02T22:08:03Z</time>
  <course>185.21</course>
  <speed>0.0</speed>
  <fix>3d</fix>
</trkpt>
<trkpt lat="33.8103131" lon="-118.3938671">
  <ele>-3.125</ele>
  <time>2026-09-02T22:08:03Z</time>
  <course>185.21</course>
  <speed>0.0</speed>
  <fix>3d</fix>
</trkpt>
<trkpt lat="33.810313" lon="-118.393867">
  <ele>-2.92</ele>
  <time>2026-09-02T22:08:03Z</time>
  <course>0.0</course>
  <speed>0.0</speed>
  <fix>3d</fix>
</trkpt>
<trkpt lat="33.8103131" lon="-118.3938671">
  <ele>-3.147</ele>
  <time>2026-09-02T22:08:03Z</time>
  <course>185.22</course>
  <speed>0.0</speed>
  <fix>3d</fix>
</trkpt>
<trkpt lat="33.8103131" lon="-118.3938671">
  <ele>-3.185</ele>
  <time>2026-09-02T22:08:03Z</time>
  <course>185.22</course>
  <speed>0.0</speed>
  <fix>3d</fix>
</trkpt>
<trkpt lat="33.810313" lon="-118.393867">
  <ele>-2.92</ele>
  <time>2026-09-02T22:08:03Z</time>
  <course>0.0</course>
  <speed>0.0</speed>
  <fix>3d</fix>
</trkpt>
<trkpt lat="33.8103131" lon="-118.3938671">
  <ele>-3.213</ele>
  <time>2026-09-02T22:08:03Z</time>
  <course>185.23</course>
  <speed>0.0</speed>
  <fix>3d</fix>
</trkpt>
<trkpt lat="33.8103131" lon="-118.3938671">
  <ele>-3.247</ele>
  <time>2026-09-02T22:08:03Z</time>
  <course>185.23</course>
  <speed>0.0</speed>
  <fix>3d</fix>
</trkpt>
<trkpt lat="33.810313" lon="-118.393867">
  <ele>-3.04</ele>
  <time>2026-09-02T22:08:03Z</time>
  <course>0.0</course>
  <speed>0.0</speed>
  <fix>3d</fix>
</trkpt>
<trkpt lat="33.8103131" lon="-118.3938671">
  <ele>-3.248</ele>
  <time>2026-09-02T22:08:03Z</time>
  <course>185.23</course>
  <speed>0.0</speed>
  <fix>3d</fix>
</trkpt>
<trkpt lat="33.8103131" lon="-118.3938671">
  <ele>-3.308</ele>
  <time>2026-09-02T22:08:03Z</time>
  <course>185.24</course>
  <speed>0.0</speed>
  <fix>3d</fix>
</trkpt>
<trkpt lat="33.810313" lon="-118.393867">
  <ele>-3.04</ele>
  <time>2026-09-02T22:08:03Z</time>
  <course>0.0</course>
  <speed>0.0</speed>
  <fix>3d</fix>
</trkpt>
<trkpt lat="33.8103131" lon="-118.3938671">
  <ele>-3.31</ele>
  <time>2026-09-02T22:08:03Z</time>
  <course>185.24</course>
  <speed>0.0</speed>
  <fix>3d</fix>
</trkpt>
<trkpt lat="33.8103131" lon="-118.3938671">
  <ele>-3.37</ele>
  <time>2026-09-02T22:08:03Z</time>
  <course>185.25</course>
  <speed>0.0</speed>
  <fix>3d</fix>
</trkpt>
<trkpt lat="33.810313" lon="-118.393867">
  <ele>-3.15</ele>
  <time>2026-09-02T22:08:03Z</time>
  <course>0.0</course>
  <speed>0.0</speed>
  <fix>3d</fix>
</trkpt>
<trkpt lat="33.8103131" lon="-118.3938671">
  <ele>-3.372</ele>
  <time>2026-09-02T22:08:03Z</time>
  <course>185.25</course>
  <speed>0.0</speed>
  <fix>3d</fix>
</trkpt>
<trkpt lat="33.8103131" lon="-118.3938671">
  <ele>-3.432</ele>
  <time>2026-09-02T22:08:03Z</time>
  <course>185.26</course>
  <speed>0.01</speed>
  <fix>3d</fix>
</trkpt>
<trkpt lat="33.810313" lon="-118.393867">
  <ele>-3.15</ele>
  <time>2026-09-02T22:08:03Z</time>
  <course>0.0</course>
  <speed>0.0</speed>
  <fix>3d</fix>
</trkpt>
<trkpt lat="33.8103131" lon="-118.3938671">
  <ele>-3.456</ele>
  <time>2026-09-02T22:08:03Z</time>
  <course>185.26</course>
  <speed>0.01</speed>
  <fix>3d</fix>
</trkpt>
<trkpt lat="33.8103131" lon="-118.3938671">
  <ele>-3.495</ele>
  <time>2026-09-02T22:08:03Z</time>
  <course>185.27</course>
  <speed>0.01</speed>
  <fix>3d</fix>
</trkpt>
<trkpt lat="33.810313" lon="-118.393867">
  <ele>-3.28</ele>
  <time>2026-09-02T22:08:03Z</time>
  <course>0.0</course>
  <speed>0.0</speed>
  <fix>3d</fix>
</trkpt>
<trkpt lat="33.8103131" lon="-118.3938671">
  <ele>-3.517</ele>
  <time>2026-09-02T22:08:03Z</time>
  <course>185.27</course>
  <speed>0.01</speed>
  <fix>3d</fix>
</trkpt>
<trkpt lat="33.8103131" lon="-118.3938671">
  <ele>-3.558</ele>
  <time>2026-09-02T22:08:03Z</time>
  <course>185.28</course>
  <speed>0.01</speed>
  <fix>3d</fix>
</trkpt>
<trkpt lat="33.810313" lon="-118.393867">
  <ele>-3.28</ele>
  <time>2026-09-02T22:08:03Z</time>
  <course>0.0</course>
  <speed>0.0</speed>
  <fix>3d</fix>
</trkpt>
<trkpt lat="33.8103131" lon="-118.3938671">
  <ele>-3.559</ele>
  <time>2026-09-02T22:08:03Z</time>
  <course>185.28</course>
  <speed>0.01</speed>
  <fix>3d</fix>
</trkpt>
<trkpt lat="33.8103131" lon="-118.3938671">
  <ele>-3.62</ele>
  <time>2026-09-02T22:08:03Z</time>
  <course>185.29</course>
  <speed>0.01</speed>
  <fix>3d</fix>
</trkpt>
<trkpt lat="33.810313" lon="-118.393867">
  <ele>-3.4</ele>
  <time>2026-09-02T22:08:03Z</time>
  <course>0.0</course>
  <speed>0.0</speed>
  <fix>3d</fix>
</trkpt>
<trkpt lat="33.8103131" lon="-118.3938671">
  <ele>-3.621</ele>
  <time>2026-09-02T22:08:03Z</time>
  <course>185.29</course>
  <speed>0.01</speed>
  <fix>3d</fix>
</trkpt>
<trkpt lat="33.8103131" lon="-118.3938671">
  <ele>-3.681</ele>
  <time>2026-09-02T22:08:03Z</time>
  <course>185.3</course>
  <speed>0.01414213562373095</speed>
  <fix>3d</fix>
</trkpt>
<trkpt lat="33.810313" lon="-118.393867">
  <ele>-3.4</ele>
  <time>2026-09-02T22:08:03Z</time>
  <course>0.0</course>
  <speed>0.0</speed>
  <fix>3d</fix>
</trkpt>
<trkpt lat="33.8103131" lon="-118.3938671">
  <ele>-3.702</ele>
  <time>2026-09-02T22:08:03Z</time>
  <course>185.3</course>
  <speed>0.01414213562373095</speed>
  <fix>3d</fix>
</trkpt>
<trkpt lat="33.8103131" lon="-118.3938671">
  <ele>-3.743</ele>
  <time>2026-09-02T22:08:03Z</time>
  <course>185.31</course>
  <speed>0.01414213562373095</speed>
  <fix>3d</fix>
</trkpt>
<trkpt lat="33.810313" lon="-118.393867">
  <ele>-3.52</ele>
  <time>2026-09-02T22:08:03Z</time>
  <course>0.0</course>
  <speed>0.0</speed>
  <fix>3d</fix>
</trkpt>
<trkpt lat="33.8103131" lon="-118.3938671">
  <ele>-3.767</ele>
  <time>2026-09-02T22:08:03Z</time>
  <course>185.31</course>
  <speed>0.01414213562373095</speed>
  <fix>3d</fix>
</trkpt>
<trkpt lat="33.8103131" lon="-118.3938671">
  <ele>-3.806</ele>
  <time>2026-09-02T22:08:03Z</time>
  <course>185.32</course>
  <speed>0.01414213562373095</speed>
  <fix>3d</fix>
</trkpt>
<trkpt lat="33.810313" lon="-118.393867">
  <ele>-3.52</ele>
  <time>2026-09-02T22:08:03Z</time>
  <course>0.0</course>
  <speed>0.0</speed>
  <fix>3d</fix>
</trkpt>
<trkpt lat="33.8103131" lon="-118.3938671">
  <ele>-3.831</ele>
  <time>2026-09-02T22:08:03Z</time>
  <course>185.32</course>
  <speed>0.01414213562373095</speed>
  <fix>3d</fix>
</trkpt>
<trkpt lat="33.8103131" lon="-118.3938671">
  <ele>-3.869</ele>
  <time>2026-09-02T22:08:03Z</time>
  <course>185.33</course>
  <speed>0.01414213562373095</speed>
  <fix>3d</fix>
</trkpt>
<trkpt lat="33.810313" lon="-118.393867">
  <ele>-3.63</ele>
  <time>2026-09-02T22:08:03Z</time>
  <course>0.0</course>
  <speed>0.0</speed>
  <fix>3d</fix>
</trkpt>
<trkpt lat="33.8103131" lon="-118.3938671">
  <ele>-3.87</ele>
  <time>2026-09-02T22:08:03Z</time>
  <course>185.33</course>
  <speed>0.01414213562373095</speed>
  <fix>3d</fix>
</trkpt>
<trkpt lat="33.8103131" lon="-118.3938671">
  <ele>-3.932</ele>
  <time>2026-09-02T22:08:03Z</time>
  <course>185.34</course>
  <speed>0.01414213562373095</speed>
  <fix>3d</fix>
</trkpt>
<trkpt lat="33.810313" lon="-118.393867">
  <ele>-3.63</ele>
  <time>2026-09-02T22:08:03Z</time>
  <course>0.0</course>
  <speed>0.0</speed>
  <fix>3d</fix>
</trkpt>
<trkpt lat="33.8103131" lon="-118.3938671">
  <ele>-3.956</ele>
  <time>2026-09-02T22:08:03Z</time>
  <course>185.34</course>
  <speed>0.01414213562373095</speed>
  <fix>3d</fix>
</trkpt>
<trkpt lat="33.8103131" lon="-118.3938671">
  <ele>-3.994</ele>
  <time>2026-09-02T22:08:03Z</time>
  <course>185.34</course>
  <speed>0.01414213562373095</speed>
  <fix>3d</fix>
</trkpt>
<trkpt lat="33.810313" lon="-118.393867">
  <ele>-3.76</ele>
  <time>2026-09-02T22:08:03Z</time>
  <course>0.0</course>
  <speed>0.0</speed>
  <fix>3d</fix>
</trkpt>
<trkpt lat="33.8103131" lon="-118.3938671">
  <ele>-4.016</ele>
  <time>2026-09-02T22:08:03Z</time>
  <course>185.35</course>
  <speed>0.01414213562373095</speed>
  <fix>3d</fix>
</trkpt>
<trkpt lat="33.8103131" lon="-118.3938671">
  <ele>-4.055</ele>
  <time>2026-09-02T22:08:03Z</time>
  <course>185.35</course>
  <speed>0.01414213562373095</speed>
  <fix>3d</fix>
</trkpt>
<trkpt lat="33.810313" lon="-118.393867">
  <ele>-3.76</ele>
  <time>2026-09-02T22:08:03Z</time>
  <course>0.0</course>
  <speed>0.0</speed>
  <fix>3d</fix>
</trkpt>
<trkpt lat="33.8103131" lon="-118.3938671">
  <ele>-4.077</ele>
  <time>2026-09-02T22:08:03Z</time>
  <course>185.36</course>
  <speed>0.01414213562373095</speed>
  <fix>3d</fix>
</trkpt>
<trkpt lat="33.8103131" lon="-118.3938671">
  <ele>-4.117</ele>
  <time>2026-09-02T22:08:03Z</time>
  <course>185.36</course>
  <speed>0.01414213562373095</speed>
  <fix>3d</fix>
</trkpt>
<trkpt lat="33.810313" lon="-118.393867">
  <ele>-3.88</ele>
  <time>2026-09-02T22:08:03Z</time>
  <course>0.0</course>
  <speed>0.0</speed>
  <fix>3d</fix>
</trkpt>
<trkpt lat="33.8103131" lon="-118.3938671">
  <ele>-4.14</ele>
  <time>2026-09-02T22:08:03Z</time>
  <course>185.37</course>
  <speed>0.01414213562373095</speed>
  <fix>3d</fix>
</trkpt>
<trkpt lat="33.8103131" lon="-118.3938671">
  <ele>-4.179</ele>
  <time>2026-09-02T22:08:03Z</time>
  <course>185.37</course>
  <speed>0.01414213562373095</speed>
  <fix>3d</fix>
</trkpt>
<trkpt lat="33.810313" lon="-118.393867">
  <ele>-3.88</ele>
  <time>2026-09-02T22:08:03Z</time>
  <course>0.0</course>
  <speed>0.0</speed>
  <fix>3d</fix>
</trkpt>
<trkpt lat="33.8103131" lon="-118.3938671">
  <ele>-4.181</ele>
  <time>2026-09-02T22:08:03Z</time>
  <course>185.37</course>
  <speed>0.01414213562373095</speed>
  <fix>3d</fix>
</trkpt>
<trkpt lat="33.8103131" lon="-118.3938671">
  <ele>-4.242</ele>
  <time>2026-09-02T22:08:03Z</time>
  <course>185.38</course>
  <speed>0.01414213562373095</speed>
  <fix>3d</fix>
</trkpt>
<trkpt lat="33.810313" lon="-118.393867">
  <ele>-4.0</ele>
  <time>2026-09-02T22:08:03Z</time>
  <course>0.0</course>
  <speed>0.0</speed>
  <fix>3d</fix>
</trkpt>
<trkpt lat="33.8103131" lon="-118.3938671">
  <ele>-4.261</ele>
  <time>2026-09-02T22:08:03Z</time>
  <course>185.39</course>
  <speed>0.01414213562373095</speed>
  <fix>3d</fix>
</trkpt>
<trkpt lat="33.8103131" lon="-118.3938671">
  <ele>-4.303</ele>
  <time>2026-09-02T22:08:03Z</time>
  <course>185.39</course>
  <speed>0.01414213562373095</speed>
  <fix>3d</fix>
</trkpt>
<trkpt lat="33.810313" lon="-118.393867">
  <ele>-4.0</ele>
  <time>2026-09-02T22:08:03Z</time>
  <course>0.0</course>
  <speed>0.0</speed>
  <fix>3d</fix>
</trkpt>
<trkpt lat="33.8103131" lon="-118.3938671">
  <ele>-4.306</ele>
  <time>2026-09-02T22:08:03Z</time>
  <course>185.39</course>
  <speed>0.01414213562373095</speed>
  <fix>3d</fix>
</trkpt>
<trkpt lat="33.8103131" lon="-118.3938671">
  <ele>-4.364</ele>
  <time>2026-09-02T22:08:03Z</time>
  <course>185.4</course>
  <speed>0.01414213562373095</speed>
  <fix>3d</fix>
</trkpt>
<trkpt lat="33.810313" lon="-118.393867">
  <ele>-4.12</ele>
  <time>2026-09-02T22:08:03Z</time>
  <course>0.0</course>
  <speed>0.0</speed>
  <fix>3d</fix>
</trkpt>
<trkpt lat="33.8103131" lon="-118.3938671">
  <ele>-4.366</ele>
  <time>2026-09-02T22:08:03Z</time>
  <course>185.4</course>
  <speed>0.01414213562373095</speed>
  <fix>3d</fix>
</trkpt>
<trkpt lat="33.8103131" lon="-118.3938671">
  <ele>-4.425</ele>
  <time>2026-09-02T22:08:03Z</time>
  <course>185.41</course>
  <speed>0.01414213562373095</speed>
  <fix>3d</fix>
</trkpt>
<trkpt lat="33.810313" lon="-118.393867">
  <ele>-4.12</ele>
  <time>2026-09-02T22:08:03Z</time>
  <course>0.0</course>
  <speed>0.0</speed>
  <fix>3d</fix>
</trkpt>
<trkpt lat="33.8103131" lon="-118.3938671">
  <ele>-4.444</ele>
  <time>2026-09-02T22:08:03Z</time>
  <course>185.42</course>
  <speed>0.01414213562373095</speed>
  <fix>3d</fix>
</trkpt>
<trkpt lat="33.8103131" lon="-118.3938671">
  <ele>-4.485</ele>
  <time>2026-09-02T22:08:03Z</time>
  <course>185.42</course>
  <speed>0.01414213562373095</speed>
  <fix>3d</fix>
</trkpt>
<trkpt lat="33.810313" lon="-118.393867">
  <ele>-4.24</ele>
  <time>2026-09-02T22:08:03Z</time>
  <course>0.0</course>
  <speed>0.0</speed>
  <fix>3d</fix>
</trkpt>
<trkpt lat="33.8103131" lon="-118.3938671">
  <ele>-4.487</ele>
  <time>2026-09-02T22:08:03Z</time>
  <course>185.42</course>
  <speed>0.01414213562373095</speed>
  <fix>3d</fix>
</trkpt>
<trkpt lat="33.8103131" lon="-118.3938671">
  <ele>-4.546</ele>
  <time>2026-09-02T22:08:03Z</time>
  <course>185.43</course>
  <speed>0.01414213562373095</speed>
  <fix>3d</fix>
</trkpt>
<trkpt lat="33.810313" lon="-118.393867">
  <ele>-4.24</ele>
  <time>2026-09-02T22:08:03Z</time>
  <course>0.0</course>
  <speed>0.0</speed>
  <fix>3d</fix>
</trkpt>
<trkpt lat="33.8103131" lon="-118.3938671">
  <ele>-4.57</ele>
  <time>2026-09-02T22:08:03Z</time>
  <course>185.44</course>
  <speed>0.022360679774997897</speed>
  <fix>3d</fix>
</trkpt>
<trkpt lat="33.8103131" lon="-118.3938671">
  <ele>-4.608</ele>
  <time>2026-09-02T22:08:03Z</time>
  <course>185.44</course>
  <speed>0.022360679774997897</speed>
  <fix>3d</fix>
</trkpt>
<trkpt lat="33.810313" lon="-118.393867">
  <ele>-4.37</ele>
  <time>2026-09-02T22:08:03Z</time>
  <course>0.0</course>
  <speed>0.0</speed>
  <fix>3d</fix>
</trkpt>
<trkpt lat="33.8103131" lon="-118.3938671">
  <ele>-4.629</ele>
  <time>2026-09-02T22:08:03Z</time>
  <course>185.45</course>
  <speed>0.022360679774997897</speed>
  <fix>3d</fix>
</trkpt>
<trkpt lat="33.8103131" lon="-118.3938671">
  <ele>-4.669</ele>
  <time>2026-09-02T22:08:03Z</time>
  <course>185.45</course>
  <speed>0.022360679774997897</speed>
  <fix>3d</fix>
</trkpt>
<trkpt lat="33.810313" lon="-118.393867">
  <ele>-4.37</ele>
  <time>2026-09-02T22:08:03Z</time>
  <course>0.0</course>
  <speed>0.0</speed>
  <fix>3d</fix>
</trkpt>
<trkpt lat="33.8103131" lon="-118.3938671">
  <ele>-4.69</ele>
  <time>2026-09-02T22:08:03Z</time>
  <course>185.46</course>
  <speed>0.022360679774997897</speed>
  <fix>3d</fix>
</trkpt>
<trkpt lat="33.8103131" lon="-118.3938671">
  <ele>-4.73</ele>
  <time>2026-09-02T22:08:03Z</time>
  <course>185.46</course>
  <speed>0.022360679774997897</speed>
  <fix>3d</fix>
</trkpt>
<trkpt lat="33.810313" lon="-118.393867">
  <ele>-4.49</ele>
  <time>2026-09-02T22:08:03Z</time>
  <course>0.0</course>
  <speed>0.0</speed>
  <fix>3d</fix>
</trkpt>
<trkpt lat="33.8103131" lon="-118.3938671">
  <ele>-4.751</ele>
  <time>2026-09-02T22:08:03Z</time>
  <course>185.47</course>
  <speed>0.022360679774997897</speed>
  <fix>3d</fix>
</trkpt>
<trkpt lat="33.8103131" lon="-118.3938671">
  <ele>-4.791</ele>
  <time>2026-09-02T22:08:03Z</time>
  <course>185.47</course>
  <speed>0.022360679774997897</speed>
  <fix>3d</fix>
</trkpt>
<trkpt lat="33.810313" lon="-118.393867">
  <ele>-4.49</ele>
  <time>2026-09-02T22:08:03Z</time>
  <course>0.0</course>
  <speed>0.0</speed>
  <fix>3d</fix>
</trkpt>
<trkpt lat="33.8103131" lon="-118.3938671">
  <ele>-4.793</ele>
  <time>2026-09-02T22:08:03Z</time>
  <course>185.47</course>
  <speed>0.022360679774997897</speed>
  <fix>3d</fix>
</trkpt>
<trkpt lat="33.8103131" lon="-118.3938671">
  <ele>-4.853</ele>
  <time>2026-09-02T22:08:03Z</time>
  <course>185.48</course>
  <speed>0.022360679774997897</speed>
  <fix>3d</fix>
</trkpt>
<trkpt lat="33.810313" lon="-118.393867">
  <ele>-4.61</ele>
  <time>2026-09-02T22:08:03Z</time>
  <course>0.0</course>
  <speed>0.0</speed>
  <fix>3d</fix>
</trkpt>
<trkpt lat="33.8103131" lon="-118.3938671">
  <ele>-4.873</ele>
  <time>2026-09-02T22:08:03Z</time>
  <course>185.48</course>
  <speed>0.022360679774997897</speed>
  <fix>3d</fix>
</trkpt>
<trkpt lat="33.8103131" lon="-118.3938671">
  <ele>-4.914</ele>
  <time>2026-09-02T22:08:03Z</time>
  <course>185.49</course>
  <speed>0.022360679774997897</speed>
  <fix>3d</fix>
</trkpt>
<trkpt lat="33.810313" lon="-118.393867">
  <ele>-4.61</ele>
  <time>2026-09-02T22:08:03Z</time>
  <course>0.0</course>
  <speed>0.0</speed>
  <fix>3d</fix>
</trkpt>
<trkpt lat="33.8103131" lon="-118.3938671">
  <ele>-4.916</ele>
  <time>2026-09-02T22:08:03Z</time>
  <course>185.49</course>
  <speed>0.022360679774997897</speed>
  <fix>3d</fix>
</trkpt>
<trkpt lat="33.8103131" lon="-118.3938671">
  <ele>-4.975</ele>
  <time>2026-09-02T22:08:03Z</time>
  <course>185.5</course>
  <speed>0.022360679774997897</speed>
  <fix>3d</fix>
</trkpt>
<trkpt lat="33.810313" lon="-118.393867">
  <ele>-4.73</ele>
  <time>2026-09-02T22:08:03Z</time>
  <course>0.0</course>
  <speed>0.0</speed>
  <fix>3d</fix>
</trkpt>
<trkpt lat="33.8103131" lon="-118.3938671">
  <ele>-4.976</ele>
  <time>2026-09-02T22:08:03Z</time>
  <course>185.5</course>
  <speed>0.022360679774997897</speed>
  <fix>3d</fix>
</trkpt>
<trkpt lat="33.8103131" lon="-118.3938671">
  <ele>-5.034</ele>
  <time>2026-09-02T22:08:03Z</time>
  <course>185.51</course>
  <speed>0.022360679774997897</speed>
  <fix>3d</fix>
</trkpt>
<trkpt lat="33.810313" lon="-118.393867">
  <ele>-4.73</ele>
  <time>2026-09-02T22:08:03Z</time>
  <course>0.0</course>
  <speed>0.0</speed>
  <fix>3d</fix>
</trkpt>
<trkpt lat="33.8103131" lon="-118.3938671">
  <ele>-5.06</ele>
  <time>2026-09-02T22:08:03Z</time>
  <course>185.52</course>
  <speed>0.022360679774997897</speed>
  <fix>3d</fix>
</trkpt>
<trkpt lat="33.8103131" lon="-118.3938671">
  <ele>-5.094</ele>
  <time>2026-09-02T22:08:03Z</time>
  <course>185.52</course>
  <speed>0.022360679774997897</speed>
  <fix>3d</fix>
</trkpt>
<trkpt lat="33.810313" lon="-118.393867">
  <ele>-4.85</ele>
  <time>2026-09-02T22:08:03Z</time>
  <course>0.0</course>
  <speed>0.0</speed>
  <fix>3d</fix>
</trkpt>
<trkpt lat="33.8103131" lon="-118.3938671">
  <ele>-5.095</ele>
  <time>2026-09-02T22:08:03Z</time>
  <course>185.52</course>
  <speed>0.022360679774997897</speed>
  <fix>3d</fix>
</trkpt>
<trkpt lat="33.8103131" lon="-118.3938671">
  <ele>-5.154</ele>
  <time>2026-09-02T22:08:03Z</time>
  <course>185.53</course>
  <speed>0.022360679774997897</speed>
  <fix>3d</fix>
</trkpt>
<trkpt lat="33.810313" lon="-118.393867">
  <ele>-4.85</ele>
  <time>2026-09-02T22:08:03Z</time>
  <course>0.0</course>
  <speed>0.0</speed>
  <fix>3d</fix>
</trkpt>
<trkpt lat="33.8103131" lon="-118.3938671">
  <ele>-5.175</ele>
  <time>2026-09-02T22:08:03Z</time>
  <course>185.54</course>
  <speed>0.022360679774997897</speed>
  <fix>3d</fix>
</trkpt>
<trkpt lat="33.8103131" lon="-118.3938671">
  <ele>-5.215</ele>
  <time>2026-09-02T22:08:03Z</time>
  <course>185.54</course>
  <speed>0.022360679774997897</speed>
  <fix>3d</fix>
</trkpt>
<trkpt lat="33.810313" lon="-118.393867">
  <ele>-4.97</ele>
  <time>2026-09-02T22:08:03Z</time>
  <course>0.0</course>
  <speed>0.0</speed>
  <fix>3d</fix>
</trkpt>
<trkpt lat="33.8103131" lon="-118.3938671">
  <ele>-5.236</ele>
  <time>2026-09-02T22:08:03Z</time>
  <course>185.55</course>
  <speed>0.022360679774997897</speed>
  <fix>3d</fix>
</trkpt>
<trkpt lat="33.8103131" lon="-118.3938671">
  <ele>-5.277</ele>
  <time>2026-09-02T22:08:03Z</time>
  <course>185.55</course>
  <speed>0.022360679774997897</speed>
  <fix>3d</fix>
</trkpt>
<trkpt lat="33.810313" lon="-118.393867">
  <ele>-4.97</ele>
  <time>2026-09-02T22:08:03Z</time>
  <course>0.0</course>
  <speed>0.0</speed>
  <fix>3d</fix>
</trkpt>
<trkpt lat="33.8103131" lon="-118.3938671">
  <ele>-5.296</ele>
  <time>2026-09-02T22:08:03Z</time>
  <course>185.55</course>
  <speed>0.0282842712474619</speed>
  <fix>3d</fix>
</trkpt>
<trkpt lat="33.8103131" lon="-118.3938671">
  <ele>-5.339</ele>
  <time>2026-09-02T22:08:03Z</time>
  <course>185.56</course>
  <speed>0.0282842712474619</speed>
  <fix>3d</fix>
</trkpt>
<trkpt lat="33.810313" lon="-118.393867">
  <ele>-5.09</ele>
  <time>2026-09-02T22:08:03Z</time>
  <course>0.0</course>
  <speed>0.0</speed>
  <fix>3d</fix>
</trkpt>
<trkpt lat="33.8103131" lon="-118.3938671">
  <ele>-5.358</ele>
  <time>2026-09-02T22:08:03Z</time>
  <course>185.56</course>
  <speed>0.0282842712474619</speed>
  <fix>3d</fix>
</trkpt>
<trkpt lat="33.8103131" lon="-118.3938671">
  <ele>-5.401</ele>
  <time>2026-09-02T22:08:03Z</time>
  <course>185.57</course>
  <speed>0.0282842712474619</speed>
  <fix>3d</fix>
</trkpt>
<trkpt lat="33.810313" lon="-118.393867">
  <ele>-5.09</ele>
  <time>2026-09-02T22:08:03Z</time>
  <course>0.0</course>
  <speed>0.0</speed>
  <fix>3d</fix>
</trkpt>
<trkpt lat="33.8103131" lon="-118.3938671">
  <ele>-5.402</ele>
  <time>2026-09-02T22:08:03Z</time>
  <course>185.57</course>
  <speed>0.0282842712474619</speed>
  <fix>3d</fix>
</trkpt>
<trkpt lat="33.8103131" lon="-118.3938671">
  <ele>-5.462</ele>
  <time>2026-09-02T22:08:03Z</time>
  <course>185.58</course>
  <speed>0.0282842712474619</speed>
  <fix>3d</fix>
</trkpt>
<trkpt lat="33.810313" lon="-118.393867">
  <ele>-5.21</ele>
  <time>2026-09-02T22:08:03Z</time>
  <course>0.0</course>
  <speed>0.0</speed>
  <fix>3d</fix>
</trkpt>
<trkpt lat="33.8103131" lon="-118.3938671">
  <ele>-5.483</ele>
  <time>2026-09-02T22:08:03Z</time>
  <course>185.59</course>
  <speed>0.0282842712474619</speed>
  <fix>3d</fix>
</trkpt>
<trkpt lat="33.8103131" lon="-118.3938671">
  <ele>-5.523</ele>
  <time>2026-09-02T22:08:03Z</time>
  <course>185.59</course>
  <speed>0.0282842712474619</speed>
  <fix>3d</fix>
</trkpt>
<trkpt lat="33.810313" lon="-118.393867">
  <ele>-5.21</ele>
  <time>2026-09-02T22:08:03Z</time>
  <course>0.0</course>
  <speed>0.0</speed>
  <fix>3d</fix>
</trkpt>
<trkpt lat="33.8103131" lon="-118.3938671">
  <ele>-5.542</ele>
  <time>2026-09-02T22:08:03Z</time>
  <course>185.59</course>
  <speed>0.0282842712474619</speed>
  <fix>3d</fix>
</trkpt>
<trkpt lat="33.8103131" lon="-118.3938671">
  <ele>-5.583</ele>
  <time>2026-09-02T22:08:03Z</time>
  <course>185.6</course>
  <speed>0.0282842712474619</speed>
  <fix>3d</fix>
</trkpt>
<trkpt lat="33.810313" lon="-118.393867">
  <ele>-5.33</ele>
  <time>2026-09-02T22:08:03Z</time>
  <course>0.0</course>
  <speed>0.0</speed>
  <fix>3d</fix>
</trkpt>
<trkpt lat="33.8103131" lon="-118.3938671">
  <ele>-5.586</ele>
  <time>2026-09-02T22:08:03Z</time>
  <course>185.6</course>
  <speed>0.0282842712474619</speed>
  <fix>3d</fix>
</trkpt>
<trkpt lat="33.8103131" lon="-118.3938671">
  <ele>-5.643</ele>
  <time>2026-09-02T22:08:03Z</time>
  <course>185.61</course>
  <speed>0.0282842712474619</speed>
  <fix>3d</fix>
</trkpt>
<trkpt lat="33.810313" lon="-118.393867">
  <ele>-5.33</ele>
  <time>2026-09-02T22:08:03Z</time>
  <course>0.0</course>
  <speed>0.0</speed>
  <fix>3d</fix>
</trkpt>
<trkpt lat="33.8103131" lon="-118.3938671">
  <ele>-5.662</ele>
  <time>2026-09-02T22:08:03Z</time>
  <course>185.62</course>
  <speed>0.0282842712474619</speed>
  <fix>3d</fix>
</trkpt>
<trkpt lat="33.8103131" lon="-118.3938671">
  <ele>-5.704</ele>
  <time>2026-09-02T22:08:03Z</time>
  <course>185.62</course>
  <speed>0.0282842712474619</speed>
  <fix>3d</fix>
</trkpt>
<trkpt lat="33.810313" lon="-118.393867">
  <ele>-5.45</ele>
  <time>2026-09-02T22:08:03Z</time>
  <course>0.0</course>
  <speed>0.0</speed>
  <fix>3d</fix>
</trkpt>
<trkpt lat="33.8103132" lon="-118.3938671">
  <ele>-5.705</ele>
  <time>2026-09-02T22:08:03Z</time>
  <course>185.62</course>
  <speed>0.0282842712474619</speed>
  <fix>3d</fix>
</trkpt>
<trkpt lat="33.8103132" lon="-118.3938671">
  <ele>-5.765</ele>
  <time>2026-09-02T22:08:03Z</time>
  <course>185.63</course>
  <speed>0.0282842712474619</speed>
  <fix>3d</fix>
</trkpt>
<trkpt lat="33.810313" lon="-118.393867">
  <ele>-5.45</ele>
  <time>2026-09-02T22:08:03Z</time>
  <course>0.0</course>
  <speed>0.0</speed>
  <fix>3d</fix>
</trkpt>
<trkpt lat="33.8103132" lon="-118.3938671">
  <ele>-5.787</ele>
  <time>2026-09-02T22:08:03Z</time>
  <course>185.64</course>
  <speed>0.0282842712474619</speed>
  <fix>3d</fix>
</trkpt>
<trkpt lat="33.8103132" lon="-118.3938671">
  <ele>-5.827</ele>
  <time>2026-09-02T22:08:03Z</time>
  <course>185.64</course>
  <speed>0.0282842712474619</speed>
  <fix>3d</fix>
</trkpt>
<trkpt lat="33.810313" lon="-118.393867">
  <ele>-5.57</ele>
  <time>2026-09-02T22:08:03Z</time>
  <course>0.0</course>
  <speed>0.0</speed>
  <fix>3d</fix>
</trkpt>
<trkpt lat="33.8103132" lon="-118.3938671">
  <ele>-5.847</ele>
  <time>2026-09-02T22:08:03Z</time>
  <course>185.65</course>
  <speed>0.0282842712474619</speed>
  <fix>3d</fix>
</trkpt>
<trkpt lat="33.8103132" lon="-118.3938671">
  <ele>-5.888</ele>
  <time>2026-09-02T22:08:03Z</time>
  <course>185.65</course>
  <speed>0.0282842712474619</speed>
  <fix>3d</fix>
</trkpt>
<trkpt lat="33.810313" lon="-118.393867">
  <ele>-5.57</ele>
  <time>2026-09-02T22:08:03Z</time>
  <course>0.0</course>
  <speed>0.0</speed>
  <fix>3d</fix>
</trkpt>
<trkpt lat="33.8103132" lon="-118.3938671">
  <ele>-5.909</ele>
  <time>2026-09-02T22:08:03Z</time>
  <course>185.66</course>
  <speed>0.0282842712474619</speed>
  <fix>3d</fix>
</trkpt>
<trkpt lat="33.8103132" lon="-118.3938671">
  <ele>-5.95</ele>
  <time>2026-09-02T22:08:03Z</time>
  <course>185.66</course>
  <speed>0.0282842712474619</speed>
  <fix>3d</fix>
</trkpt>
<trkpt lat="33.810313" lon="-118.393867">
  <ele>-5.69</ele>
  <time>2026-09-02T22:08:03Z</time>
  <course>0.0</course>
  <speed>0.0</speed>
  <fix>3d</fix>
</trkpt>
<trkpt lat="33.8103132" lon="-118.3938671">
  <ele>-5.97</ele>
  <time>2026-09-02T22:08:03Z</time>
  <course>185.67</course>
  <speed>0.0282842712474619</speed>
  <fix>3d</fix>
</trkpt>
<trkpt lat="33.8103132" lon="-118.3938671">
  <ele>-6.012</ele>
  <time>2026-09-02T22:08:03Z</time>
  <course>185.67</course>
  <speed>0.0282842712474619</speed>
  <fix>3d</fix>
</trkpt>
<trkpt lat="33.810313" lon="-118.393867">
  <ele>-5.69</ele>
  <time>2026-09-02T22:08:03Z</time>
  <course>0.0</course>
  <speed>0.0</speed>
  <fix>3d</fix>
</trkpt>
<trkpt lat="33.8103132" lon="-118.3938672">
  <ele>-6.031</ele>
  <time>2026-09-02T22:08:03Z</time>
  <course>185.68</course>
  <speed>0.0282842712474619</speed>
  <fix>3d</fix>
</trkpt>
<trkpt lat="33.8103132" lon="-118.3938672">
  <ele>-6.074</ele>
  <time>2026-09-02T22:08:03Z</time>
  <course>185.68</course>
  <speed>0.0282842712474619</speed>
  <fix>3d</fix>
</trkpt>
<trkpt lat="33.810313" lon="-118.393867">
  <ele>-5.81</ele>
  <time>2026-09-02T22:08:03Z</time>
  <course>0.0</course>
  <speed>0.0</speed>
  <fix>3d</fix>
</trkpt>
<trkpt lat="33.8103132" lon="-118.3938672">
  <ele>-6.094</ele>
  <time>2026-09-02T22:08:03Z</time>
  <course>185.69</course>
  <speed>0.0282842712474619</speed>
  <fix>3d</fix>
</trkpt>
<trkpt lat="33.8103132" lon="-118.3938672">
  <ele>-6.135</ele>
  <time>2026-09-02T22:08:03Z</time>
  <course>185.69</course>
  <speed>0.0282842712474619</speed>
  <fix>3d</fix>
</trkpt>
<trkpt lat="33.810313" lon="-118.393867">
  <ele>-5.81</ele>
  <time>2026-09-02T22:08:03Z</time>
  <course>0.0</course>
  <speed>0.0</speed>
  <fix>3d</fix>
</trkpt>
<trkpt lat="33.8103132" lon="-118.3938672">
  <ele>-6.155</ele>
  <time>2026-09-02T22:08:03Z</time>
  <course>185.7</course>
  <speed>0.0282842712474619</speed>
  <fix>3d</fix>
</trkpt>
<trkpt lat="33.8103132" lon="-118.3938672">
  <ele>-6.197</ele>
  <time>2026-09-02T22:08:03Z</time>
  <course>185.7</course>
  <speed>0.0282842712474619</speed>
  <fix>3d</fix>
</trkpt>
<trkpt lat="33.810313" lon="-118.393867">
  <ele>-5.93</ele>
  <time>2026-09-02T22:08:03Z</time>
  <course>0.0</course>
  <speed>0.0</speed>
  <fix>3d</fix>
</trkpt>
<trkpt lat="33.8103132" lon="-118.3938672">
  <ele>-6.199</ele>
  <time>2026-09-02T22:08:03Z</time>
  <course>185.7</course>
  <speed>0.0282842712474619</speed>
  <fix>3d</fix>
</trkpt>
<trkpt lat="33.8103132" lon="-118.3938672">
  <ele>-6.259</ele>
  <time>2026-09-02T22:08:03Z</time>
  <course>185.71</course>
  <speed>0.0282842712474619</speed>
  <fix>3d</fix>
</trkpt>
<trkpt lat="33.810313" lon="-118.393867">
  <ele>-5.93</ele>
  <time>2026-09-02T22:08:03Z</time>
  <course>0.0</course>
  <speed>0.0</speed>
  <fix>3d</fix>
</trkpt>
<trkpt lat="33.8103132" lon="-118.3938672">
  <ele>-6.279</ele>
  <time>2026-09-02T22:08:03Z</time>
  <course>185.72</course>
  <speed>0.0282842712474619</speed>
  <fix>3d</fix>
</trkpt>
<trkpt lat="33.8103132" lon="-118.3938672">
  <ele>-6.321</ele>
  <time>2026-09-02T22:08:03Z</time>
  <course>185.72</course>
  <speed>0.0282842712474619</speed>
  <fix>3d</fix>
</trkpt>
<trkpt lat="33.810313" lon="-118.393867">
  <ele>-6.05</ele>
  <time>2026-09-02T22:08:03Z</time>
  <course>0.0</course>
  <speed>0.0</speed>
  <fix>3d</fix>
</trkpt>
<trkpt lat="33.8103132" lon="-118.3938672">
  <ele>-6.323</ele>
  <time>2026-09-02T22:08:03Z</time>
  <course>185.72</course>
  <speed>0.0282842712474619</speed>
  <fix>3d</fix>
</trkpt>
<trkpt lat="33.8103132" lon="-118.3938672">
  <ele>-6.383</ele>
  <time>2026-09-02T22:08:03Z</time>
  <course>185.73</course>
  <speed>0.03605551275463989</speed>
  <fix>3d</fix>
</trkpt>
<trkpt lat="33.810313" lon="-118.393867">
  <ele>-6.05</ele>
  <time>2026-09-02T22:08:03Z</time>
  <course>0.0</course>
  <speed>0.0</speed>
  <fix>3d</fix>
</trkpt>
<trkpt lat="33.8103132" lon="-118.3938672">
  <ele>-6.384</ele>
  <time>2026-09-02T22:08:03Z</time>
  <course>185.73</course>
  <speed>0.03605551275463989</speed>
  <fix>3d</fix>
</trkpt>
<trkpt lat="33.8103132" lon="-118.3938672">
  <ele>-6.445</ele>
  <time>2026-09-02T22:08:03Z</time>
  <course>185.74</course>
  <speed>0.03605551275463989</speed>
  <fix>3d</fix>
</trkpt>
<trkpt lat="33.810313" lon="-118.393867">
  <ele>-6.18</ele>
  <time>2026-09-02T22:08:03Z</time>
  <course>0.0</course>
  <speed>0.0</speed>
  <fix>3d</fix>
</trkpt>
<trkpt lat="33.8103132" lon="-118.3938672">
  <ele>-6.467</ele>
  <time>2026-09-02T22:08:03Z</time>
  <course>185.75</course>
  <speed>0.03605551275463989</speed>
  <fix>3d</fix>
</trkpt>
<trkpt lat="33.8103132" lon="-118.3938672">
  <ele>-6.507</ele>
  <time>2026-09-02T22:08:03Z</time>
  <course>185.75</course>
  <speed>0.03605551275463989</speed>
  <fix>3d</fix>
</trkpt>
<trkpt lat="33.810313" lon="-118.393867">
  <ele>-6.18</ele>
  <time>2026-09-02T22:08:03Z</time>
  <course>0.0</course>
  <speed>0.0</speed>
  <fix>3d</fix>
</trkpt>
<trkpt lat="33.8103132" lon="-118.3938672">
  <ele>-6.529</ele>
  <time>2026-09-02T22:08:03Z</time>
  <course>185.76</course>
  <speed>0.03605551275463989</speed>
  <fix>3d</fix>
</trkpt>
<trkpt lat="33.8103132" lon="-118.3938672">
  <ele>-6.569</ele>
  <time>2026-09-02T22:08:03Z</time>
  <course>185.76</course>
  <speed>0.03605551275463989</speed>
  <fix>3d</fix>
</trkpt>
<trkpt lat="33.810313" lon="-118.393867">
  <ele>-6.3</ele>
  <time>2026-09-02T22:08:03Z</time>
  <course>0.0</course>
  <speed>0.0</speed>
  <fix>3d</fix>
</trkpt>
<trkpt lat="33.8103132" lon="-118.3938672">
  <ele>-6.589</ele>
  <time>2026-09-02T22:08:03Z</time>
  <course>185.76</course>
  <speed>0.03605551275463989</speed>
  <fix>3d</fix>
</trkpt>
<trkpt lat="33.8103132" lon="-118.3938672">
  <ele>-6.631</ele>
  <time>2026-09-02T22:08:03Z</time>
  <course>185.77</course>
  <speed>0.03605551275463989</speed>
  <fix>3d</fix>
</trkpt>
<trkpt lat="33.810313" lon="-118.393867">
  <ele>-6.3</ele>
  <time>2026-09-02T22:08:03Z</time>
  <course>0.0</course>
  <speed>0.0</speed>
  <fix>3d</fix>
</trkpt>
<trkpt lat="33.8103132" lon="-118.3938672">
  <ele>-6.653</ele>
  <time>2026-09-02T22:08:03Z</time>
  <course>185.77</course>
  <speed>0.03605551275463989</speed>
  <fix>3d</fix>
</trkpt>
<trkpt lat="33.8103132" lon="-118.3938672">
  <ele>-6.694</ele>
  <time>2026-09-02T22:08:03Z</time>
  <course>185.78</course>
  <speed>0.03605551275463989</speed>
  <fix>3d</fix>
</trkpt>
<trkpt lat="33.810313" lon="-118.393867">
  <ele>-6.42</ele>
  <time>2026-09-02T22:08:03Z</time>
  <course>0.0</course>
  <speed>0.0</speed>
  <fix>3d</fix>
</trkpt>
<trkpt lat="33.8103132" lon="-118.3938672">
  <ele>-6.717</ele>
  <time>2026-09-02T22:08:03Z</time>
  <course>185.78</course>
  <speed>0.03605551275463989</speed>
  <fix>3d</fix>
</trkpt>
<trkpt lat="33.8103132" lon="-118.3938672">
  <ele>-6.757</ele>
  <time>2026-09-02T22:08:03Z</time>
  <course>185.79</course>
  <speed>0.03605551275463989</speed>
  <fix>3d</fix>
</trkpt>
<trkpt lat="33.810313" lon="-118.393867">
  <ele>-6.42</ele>
  <time>2026-09-02T22:08:03Z</time>
  <course>0.0</course>
  <speed>0.0</speed>
  <fix>3d</fix>
</trkpt>
<trkpt lat="33.8103132" lon="-118.3938672">
  <ele>-6.783</ele>
  <time>2026-09-02T22:08:03Z</time>
  <course>185.79</course>
  <speed>0.03605551275463989</speed>
  <fix>3d</fix>
</trkpt>
<trkpt lat="33.8103132" lon="-118.3938672">
  <ele>-6.82</ele>
  <time>2026-09-02T22:08:03Z</time>
  <course>185.8</course>
  <speed>0.03605551275463989</speed>
  <fix>3d</fix>
</trkpt>
<trkpt lat="33.810313" lon="-118.393867">
  <ele>-6.54</ele>
  <time>2026-09-02T22:08:03Z</time>
  <course>0.0</course>
  <speed>0.0</speed>
  <fix>3d</fix>
</trkpt>
<trkpt lat="33.8103132" lon="-118.3938672">
  <ele>-6.843</ele>
  <time>2026-09-02T22:08:03Z</time>
  <course>185.8</course>
  <speed>0.03605551275463989</speed>
  <fix>3d</fix>
</trkpt>
<trkpt lat="33.8103132" lon="-118.3938672">
  <ele>-6.881</ele>
  <time>2026-09-02T22:08:03Z</time>
  <course>185.81</course>
  <speed>0.03605551275463989</speed>
  <fix>3d</fix>
</trkpt>
<trkpt lat="33.810313" lon="-118.393867">
  <ele>-6.54</ele>
  <time>2026-09-02T22:08:03Z</time>
  <course>0.0</course>
  <speed>0.0</speed>
  <fix>3d</fix>
</trkpt>
<trkpt lat="33.8103132" lon="-118.3938672">
  <ele>-6.882</ele>
  <time>2026-09-02T22:08:03Z</time>
  <course>185.81</course>
  <speed>0.03605551275463989</speed>
  <fix>3d</fix>
</trkpt>
<trkpt lat="33.8103132" lon="-118.3938672">
  <ele>-6.943</ele>
  <time>2026-09-02T22:08:03Z</time>
  <course>185.82</course>
  <speed>0.03605551275463989</speed>
  <fix>3d</fix>
</trkpt>
<trkpt lat="33.810313" lon="-118.393867">
  <ele>-6.66</ele>
  <time>2026-09-02T22:08:03Z</time>
  <course>0.0</course>
  <speed>0.0</speed>
  <fix>3d</fix>
</trkpt>
<trkpt lat="33.8103132" lon="-118.3938672">
  <ele>-6.96</ele>
  <time>2026-09-02T22:08:03Z</time>
  <course>185.82</course>
  <speed>0.03605551275463989</speed>
  <fix>3d</fix>
</trkpt>
<trkpt lat="33.8103132" lon="-118.3938672">
  <ele>-7.006</ele>
  <time>2026-09-02T22:08:03Z</time>
  <course>185.83</course>
  <speed>0.03605551275463989</speed>
  <fix>3d</fix>
</trkpt>
<trkpt lat="33.810313" lon="-118.393867">
  <ele>-6.66</ele>
  <time>2026-09-02T22:08:03Z</time>
  <course>0.0</course>
  <speed>0.0</speed>
  <fix>3d</fix>
</trkpt>
<trkpt lat="33.8103132" lon="-118.3938672">
  <ele>-7.029</ele>
  <time>2026-09-02T22:08:03Z</time>
  <course>185.83</course>
  <speed>0.03605551275463989</speed>
  <fix>3d</fix>
</trkpt>
<trkpt lat="33.8103132" lon="-118.3938672">
  <ele>-7.069</ele>
  <time>2026-09-02T22:08:03Z</time>
  <course>185.84</course>
  <speed>0.03605551275463989</speed>
  <fix>3d</fix>
</trkpt>
<trkpt lat="33.810313" lon="-118.393867">
  <ele>-6.77</ele>
  <time>2026-09-02T22:08:03Z</time>
  <course>0.0</course>
  <speed>0.0</speed>
  <fix>3d</fix>
</trkpt>
<trkpt lat="33.8103132" lon="-118.3938672">
  <ele>-7.089</ele>
  <time>2026-09-02T22:08:03Z</time>
  <course>185.84</course>
  <speed>0.03605551275463989</speed>
  <fix>3d</fix>
</trkpt>
<trkpt lat="33.8103132" lon="-118.3938672">
  <ele>-7.132</ele>
  <time>2026-09-02T22:08:03Z</time>
  <course>185.85</course>
  <speed>0.03605551275463989</speed>
  <fix>3d</fix>
</trkpt>
<trkpt lat="33.810313" lon="-118.393867">
  <ele>-6.77</ele>
  <time>2026-09-02T22:08:03Z</time>
  <course>0.0</course>
  <speed>0.0</speed>
  <fix>3d</fix>
</trkpt>
<trkpt lat="33.8103132" lon="-118.3938672">
  <ele>-7.154</ele>
  <time>2026-09-02T22:08:03Z</time>
  <course>185.85</course>
  <speed>0.03605551275463989</speed>
  <fix>3d</fix>
</trkpt>
<trkpt lat="33.8103132" lon="-118.3938672">
  <ele>-7.195</ele>
  <time>2026-09-02T22:08:03Z</time>
  <course>185.86</course>
  <speed>0.03605551275463989</speed>
  <fix>3d</fix>
</trkpt>
<trkpt lat="33.810313" lon="-118.393867">
  <ele>-6.9</ele>
  <time>2026-09-02T22:08:03Z</time>
  <course>0.0</course>
  <speed>0.0</speed>
  <fix>3d</fix>
</trkpt>
<trkpt lat="33.8103132" lon="-118.3938672">
  <ele>-7.217</ele>
  <time>2026-09-02T22:08:03Z</time>
  <course>185.86</course>
  <speed>0.03605551275463989</speed>
  <fix>3d</fix>
</trkpt>
<trkpt lat="33.8103132" lon="-118.3938672">
  <ele>-7.259</ele>
  <time>2026-09-02T22:08:03Z</time>
  <course>185.87</course>
  <speed>0.03605551275463989</speed>
  <fix>3d</fix>
</trkpt>
<trkpt lat="33.810313" lon="-118.393867">
  <ele>-6.9</ele>
  <time>2026-09-02T22:08:03Z</time>
  <course>0.0</course>
  <speed>0.0</speed>
  <fix>3d</fix>
</trkpt>
<trkpt lat="33.8103132" lon="-118.3938672">
  <ele>-7.289</ele>
  <time>2026-09-02T22:08:03Z</time>
  <course>185.87</course>
  <speed>0.03605551275463989</speed>
  <fix>3d</fix>
</trkpt>
<trkpt lat="33.8103132" lon="-118.3938672">
  <ele>-7.322</ele>
  <time>2026-09-02T22:08:03Z</time>
  <course>185.88</course>
  <speed>0.03605551275463989</speed>
  <fix>3d</fix>
</trkpt>
<trkpt lat="33.810313" lon="-118.393867">
  <ele>-7.02</ele>
  <time>2026-09-02T22:08:03Z</time>
  <course>0.0</course>
  <speed>0.0</speed>
  <fix>3d</fix>
</trkpt>
<trkpt lat="33.8103132" lon="-118.3938672">
  <ele>-7.349</ele>
  <time>2026-09-02T22:08:03Z</time>
  <course>185.88</course>
  <speed>0.03605551275463989</speed>
  <fix>3d</fix>
</trkpt>
<trkpt lat="33.8103132" lon="-118.3938672">
  <ele>-7.386</ele>
  <time>2026-09-02T22:08:03Z</time>
  <course>185.89</course>
  <speed>0.03605551275463989</speed>
  <fix>3d</fix>
</trkpt>
<trkpt lat="33.810313" lon="-118.393867">
  <ele>-7.02</ele>
  <time>2026-09-02T22:08:03Z</time>
  <course>0.0</course>
  <speed>0.0</speed>
  <fix>3d</fix>
</trkpt>
<trkpt lat="33.8103132" lon="-118.3938672">
  <ele>-7.407</ele>
  <time>2026-09-02T22:08:03Z</time>
  <course>185.89</course>
  <speed>0.03605551275463989</speed>
  <fix>3d</fix>
</trkpt>
<trkpt lat="33.8103132" lon="-118.3938672">
  <ele>-7.45</ele>
  <time>2026-09-02T22:08:03Z</time>
  <course>185.89</course>
  <speed>0.03605551275463989</speed>
  <fix>3d</fix>
</trkpt>
<trkpt lat="33.810313" lon="-118.393867">
  <ele>-7.14</ele>
  <time>2026-09-02T22:08:03Z</time>
  <course>0.0</course>
  <speed>0.0</speed>
  <fix>3d</fix>
</trkpt>
<trkpt lat="33.8103132" lon="-118.3938672">
  <ele>-7.475</ele>
  <time>2026-09-02T22:08:03Z</time>
  <course>185.9</course>
  <speed>0.03605551275463989</speed>
  <fix>3d</fix>
</trkpt>
<trkpt lat="33.8103132" lon="-118.3938672">
  <ele>-7.513</ele>
  <time>2026-09-02T22:08:03Z</time>
  <course>185.9</course>
  <speed>0.03605551275463989</speed>
  <fix>3d</fix>
</trkpt>
<trkpt lat="33.810313" lon="-118.393867">
  <ele>-7.14</ele>
  <time>2026-09-02T22:08:03Z</time>
  <course>0.0</course>
  <speed>0.0</speed>
  <fix>3d</fix>
</trkpt>
<trkpt lat="33.8103132" lon="-118.3938672">
  <ele>-7.514</ele>
  <time>2026-09-02T22:08:03Z</time>
  <course>185.9</course>
  <speed>0.03605551275463989</speed>
  <fix>3d</fix>
</trkpt>
<trkpt lat="33.8103132" lon="-118.3938672">
  <ele>-7.574</ele>
  <time>2026-09-02T22:08:03Z</time>
  <course>185.91</course>
  <speed>0.03605551275463989</speed>
  <fix>3d</fix>
</trkpt>
<trkpt lat="33.810313" lon="-118.393867">
  <ele>-7.26</ele>
  <time>2026-09-02T22:08:03Z</time>
  <course>0.0</course>
  <speed>0.0</speed>
  <fix>3d</fix>
</trkpt>
<trkpt lat="33.8103132" lon="-118.3938672">
  <ele>-7.599</ele>
  <time>2026-09-02T22:08:03Z</time>
  <course>185.92</course>
  <speed>0.0282842712474619</speed>
  <fix>3d</fix>
</trkpt>
<trkpt lat="33.8103132" lon="-118.3938672">
  <ele>-7.636</ele>
  <time>2026-09-02T22:08:03Z</time>
  <course>185.92</course>
  <speed>0.0282842712474619</speed>
  <fix>3d</fix>
</trkpt>
<trkpt lat="33.810313" lon="-118.393867">
  <ele>-7.26</ele>
  <time>2026-09-02T22:08:03Z</time>
  <course>0.0</course>
  <speed>0.0</speed>
  <fix>3d</fix>
</trkpt>
<trkpt lat="33.8103132" lon="-118.3938672">
  <ele>-7.658</ele>
  <time>2026-09-02T22:08:03Z</time>
  <course>185.92</course>
  <speed>0.03605551275463989</speed>
  <fix>3d</fix>
</trkpt>
<trkpt lat="33.8103132" lon="-118.3938672">
  <ele>-7.698</ele>
  <time>2026-09-02T22:08:03Z</time>
  <course>185.93</course>
  <speed>0.0282842712474619</speed>
  <fix>3d</fix>
</trkpt>
<trkpt lat="33.810313" lon="-118.393867">
  <ele>-7.38</ele>
  <time>2026-09-02T22:08:03Z</time>
  <course>0.0</course>
  <speed>0.0</speed>
  <fix>3d</fix>
</trkpt>
<trkpt lat="33.8103132" lon="-118.3938672">
  <ele>-7.721</ele>
  <time>2026-09-02T22:08:03Z</time>
  <course>185.93</course>
  <speed>0.0282842712474619</speed>
  <fix>3d</fix>
</trkpt>
<trkpt lat="33.8103132" lon="-118.3938672">
  <ele>-7.76</ele>
  <time>2026-09-02T22:08:03Z</time>
  <course>185.94</course>
  <speed>0.0282842712474619</speed>
  <fix>3d</fix>
</trkpt>
<trkpt lat="33.810313" lon="-118.393867">
  <ele>-7.38</ele>
  <time>2026-09-02T22:08:03Z</time>
  <course>0.0</course>
  <speed>0.0</speed>
  <fix>3d</fix>
</trkpt>
<trkpt lat="33.8103132" lon="-118.3938672">
  <ele>-7.782</ele>
  <time>2026-09-02T22:08:03Z</time>
  <course>185.94</course>
  <speed>0.0282842712474619</speed>
  <fix>3d</fix>
</trkpt>
<trkpt lat="33.8103132" lon="-118.3938672">
  <ele>-7.822</ele>
  <time>2026-09-02T22:08:03Z</time>
  <course>185.95</course>
  <speed>0.0282842712474619</speed>
  <fix>3d</fix>
</trkpt>
<trkpt lat="33.810313" lon="-118.393867">
  <ele>-7.5</ele>
  <time>2026-09-02T22:08:03Z</time>
  <course>0.0</course>
  <speed>0.0</speed>
  <fix>3d</fix>
</trkpt>
<trkpt lat="33.8103132" lon="-118.3938672">
  <ele>-7.843</ele>
  <time>2026-09-02T22:08:03Z</time>
  <course>185.95</course>
  <speed>0.0282842712474619</speed>
  <fix>3d</fix>
</trkpt>
<trkpt lat="33.8103132" lon="-118.3938672">
  <ele>-7.884</ele>
  <time>2026-09-02T22:08:03Z</time>
  <course>185.96</course>
  <speed>0.0282842712474619</speed>
  <fix>3d</fix>
</trkpt>
<trkpt lat="33.810313" lon="-118.393867">
  <ele>-7.5</ele>
  <time>2026-09-02T22:08:03Z</time>
  <course>0.0</course>
  <speed>0.0</speed>
  <fix>3d</fix>
</trkpt>
<trkpt lat="33.8103132" lon="-118.3938672">
  <ele>-7.903</ele>
  <time>2026-09-02T22:08:03Z</time>
  <course>185.96</course>
  <speed>0.0282842712474619</speed>
  <fix>3d</fix>
</trkpt>
<trkpt lat="33.8103132" lon="-118.3938672">
  <ele>-7.945</ele>
  <time>2026-09-02T22:08:03Z</time>
  <course>185.97</course>
  <speed>0.0282842712474619</speed>
  <fix>3d</fix>
</trkpt>
<trkpt lat="33.810313" lon="-118.393867">
  <ele>-7.62</ele>
  <time>2026-09-02T22:08:03Z</time>
  <course>0.0</course>
  <speed>0.0</speed>
  <fix>3d</fix>
</trkpt>
<trkpt lat="33.8103132" lon="-118.3938672">
  <ele>-7.946</ele>
  <time>2026-09-02T22:08:03Z</time>
  <course>185.97</course>
  <speed>0.0282842712474619</speed>
  <fix>3d</fix>
</trkpt>
<trkpt lat="33.8103132" lon="-118.3938672">
  <ele>-8.007</ele>
  <time>2026-09-02T22:08:03Z</time>
  <course>185.97</course>
  <speed>0.0282842712474619</speed>
  <fix>3d</fix>
</trkpt>
<trkpt lat="33.810313" lon="-118.393867">
  <ele>-7.62</ele>
  <time>2026-09-02T22:08:03Z</time>
  <course>0.0</course>
  <speed>0.0</speed>
  <fix>3d</fix>
</trkpt>
<trkpt lat="33.8103132" lon="-118.3938672">
  <ele>-8.03</ele>
  <time>2026-09-02T22:08:03Z</time>
  <course>185.98</course>
  <speed>0.0282842712474619</speed>
  <fix>3d</fix>
</trkpt>
<trkpt lat="33.8103132" lon="-118.3938672">
  <ele>-8.068</ele>
  <time>2026-09-02T22:08:03Z</time>
  <course>185.98</course>
  <speed>0.022360679774997897</speed>
  <fix>3d</fix>
</trkpt>
<trkpt lat="33.810313" lon="-118.393867">
  <ele>-7.74</ele>
  <time>2026-09-02T22:08:03Z</time>
  <course>0.0</course>
  <speed>0.0</speed>
  <fix>3d</fix>
</trkpt>
<trkpt lat="33.8103132" lon="-118.3938671">
  <ele>-8.09</ele>
  <time>2026-09-02T22:08:03Z</time>
  <course>185.99</course>
  <speed>0.022360679774997897</speed>
  <fix>3d</fix>
</trkpt>
<trkpt lat="33.8103132" lon="-118.3938671">
  <ele>-8.129</ele>
  <time>2026-09-02T22:08:03Z</time>
  <course>185.99</course>
  <speed>0.022360679774997897</speed>
  <fix>3d</fix>
</trkpt>
<trkpt lat="33.810313" lon="-118.393867">
  <ele>-7.74</ele>
  <time>2026-09-02T22:08:03Z</time>
  <course>0.0</course>
  <speed>0.0</speed>
  <fix>3d</fix>
</trkpt>
<trkpt lat="33.8103132" lon="-118.3938671">
  <ele>-8.148</ele>
  <time>2026-09-02T22:08:03Z</time>
  <course>185.99</course>
  <speed>0.022360679774997897</speed>
  <fix>3d</fix>
</trkpt>
<trkpt lat="33.8103132" lon="-118.3938671">
  <ele>-8.19</ele>
  <time>2026-09-02T22:08:03Z</time>
  <course>186.0</course>
  <speed>0.022360679774997897</speed>
  <fix>3d</fix>
</trkpt>
<trkpt lat="33.810313" lon="-118.393867">
  <ele>-7.86</ele>
  <time>2026-09-02T22:08:03Z</time>
  <course>0.0</course>
  <speed>0.0</speed>
  <fix>3d</fix>
</trkpt>
<trkpt lat="33.8103132" lon="-118.3938671">
  <ele>-8.191</ele>
  <time>2026-09-02T22:08:03Z</time>
  <course>186.0</course>
  <speed>0.022360679774997897</speed>
  <fix>3d</fix>
</trkpt>
<trkpt lat="33.8103132" lon="-118.3938671">
  <ele>-8.251</ele>
  <time>2026-09-02T22:08:03Z</time>
  <course>186.01</course>
  <speed>0.022360679774997897</speed>
  <fix>3d</fix>
</trkpt>
<trkpt lat="33.810313" lon="-118.393867">
  <ele>-7.86</ele>
  <time>2026-09-02T22:08:03Z</time>
  <course>0.0</course>
  <speed>0.0</speed>
  <fix>3d</fix>
</trkpt>
<trkpt lat="33.8103132" lon="-118.3938671">
  <ele>-8.252</ele>
  <time>2026-09-02T22:08:03Z</time>
  <course>186.01</course>
  <speed>0.022360679774997897</speed>
  <fix>3d</fix>
</trkpt>
<trkpt lat="33.8103132" lon="-118.3938671">
  <ele>-8.313</ele>
  <time>2026-09-02T22:08:03Z</time>
  <course>186.01</course>
  <speed>0.022360679774997897</speed>
  <fix>3d</fix>
</trkpt>
<trkpt lat="33.810313" lon="-118.393867">
  <ele>-7.99</ele>
  <time>2026-09-02T22:08:03Z</time>
  <course>0.0</course>
  <speed>0.0</speed>
  <fix>3d</fix>
</trkpt>
<trkpt lat="33.8103132" lon="-118.3938671">
  <ele>-8.339</ele>
  <time>2026-09-02T22:08:03Z</time>
  <course>186.02</course>
  <speed>0.022360679774997897</speed>
  <fix>3d</fix>
</trkpt>
<trkpt lat="33.8103132" lon="-118.3938671">
  <ele>-8.374</ele>
  <time>2026-09-02T22:08:03Z</time>
  <course>186.02</course>
  <speed>0.022360679774997897</speed>
  <fix>3d</fix>
</trkpt>
<trkpt lat="33.810313" lon="-118.393867">
  <ele>-7.99</ele>
  <time>2026-09-02T22:08:03Z</time>
  <course>0.0</course>
  <speed>0.0</speed>
  <fix>3d</fix>
</trkpt>
<trkpt lat="33.8103132" lon="-118.3938671">
  <ele>-8.4</ele>
  <time>2026-09-02T22:08:03Z</time>
  <course>186.03</course>
  <speed>0.022360679774997897</speed>
  <fix>3d</fix>
</trkpt>
<trkpt lat="33.8103132" lon="-118.3938671">
  <ele>-8.435</ele>
  <time>2026-09-02T22:08:03Z</time>
  <course>186.03</course>
  <speed>0.022360679774997897</speed>
  <fix>3d</fix>
</trkpt>
<trkpt lat="33.810313" lon="-118.393867">
  <ele>-8.11</ele>
  <time>2026-09-02T22:08:03Z</time>
  <course>0.0</course>
  <speed>0.0</speed>
  <fix>3d</fix>
</trkpt>
<trkpt lat="33.8103132" lon="-118.3938671">
  <ele>-8.455</ele>
  <time>2026-09-02T22:08:03Z</time>
  <course>186.03</course>
  <speed>0.022360679774997897</speed>
  <fix>3d</fix>
</trkpt>
<trkpt lat="33.8103132" lon="-118.3938671">
  <ele>-8.496</ele>
  <time>2026-09-02T22:08:03Z</time>
  <course>186.04</course>
  <speed>0.022360679774997897</speed>
  <fix>3d</fix>
</trkpt>
<trkpt lat="33.810313" lon="-118.393867">
  <ele>-8.11</ele>
  <time>2026-09-02T22:08:03Z</time>
  <course>0.0</course>
  <speed>0.0</speed>
  <fix>3d</fix>
</trkpt>
<trkpt lat="33.8103132" lon="-118.3938671">
  <ele>-8.52</ele>
  <time>2026-09-02T22:08:03Z</time>
  <course>186.04</course>
  <speed>0.022360679774997897</speed>
  <fix>3d</fix>
</trkpt>
<trkpt lat="33.8103132" lon="-118.3938671">
  <ele>-8.556</ele>
  <time>2026-09-02T22:08:03Z</time>
  <course>186.05</course>
  <speed>0.022360679774997897</speed>
  <fix>3d</fix>
</trkpt>
<trkpt lat="33.810313" lon="-118.393867">
  <ele>-8.23</ele>
  <time>2026-09-02T22:08:03Z</time>
  <course>0.0</course>
  <speed>0.0</speed>
  <fix>3d</fix>
</trkpt>
<trkpt lat="33.8103132" lon="-118.3938671">
  <ele>-8.557</ele>
  <time>2026-09-02T22:08:03Z</time>
  <course>186.05</course>
  <speed>0.022360679774997897</speed>
  <fix>3d</fix>
</trkpt>
<trkpt lat="33.8103132" lon="-118.3938671">
  <ele>-8.615</ele>
  <time>2026-09-02T22:08:03Z</time>
  <course>186.05</course>
  <speed>0.022360679774997897</speed>
  <fix>3d</fix>
</trkpt>
<trkpt lat="33.810313" lon="-118.393867">
  <ele>-8.23</ele>
  <time>2026-09-02T22:08:03Z</time>
  <course>0.0</course>
  <speed>0.0</speed>
  <fix>3d</fix>
</trkpt>
<trkpt lat="33.8103132" lon="-118.3938671">
  <ele>-8.618</ele>
  <time>2026-09-02T22:08:03Z</time>
  <course>186.05</course>
  <speed>0.022360679774997897</speed>
  <fix>3d</fix>
</trkpt>
<trkpt lat="33.8103132" lon="-118.3938671">
  <ele>-8.676</ele>
  <time>2026-09-02T22:08:03Z</time>
  <course>186.06</course>
  <speed>0.022360679774997897</speed>
  <fix>3d</fix>
</trkpt>
<trkpt lat="33.810313" lon="-118.393867">
  <ele>-8.35</ele>
  <time>2026-09-02T22:08:03Z</time>
  <course>0.0</course>
  <speed>0.0</speed>
  <fix>3d</fix>
</trkpt>
<trkpt lat="33.8103132" lon="-118.3938671">
  <ele>-8.677</ele>
  <time>2026-09-02T22:08:03Z</time>
  <course>186.06</course>
  <speed>0.022360679774997897</speed>
  <fix>3d</fix>
</trkpt>
<trkpt lat="33.8103132" lon="-118.3938671">
  <ele>-8.737</ele>
  <time>2026-09-02T22:08:03Z</time>
  <course>186.07</course>
  <speed>0.022360679774997897</speed>
  <fix>3d</fix>
</trkpt>
<trkpt lat="33.810313" lon="-118.393867">
  <ele>-8.35</ele>
  <time>2026-09-02T22:08:03Z</time>
  <course>0.0</course>
  <speed>0.0</speed>
  <fix>3d</fix>
</trkpt>
<trkpt lat="33.8103132" lon="-118.3938671">
  <ele>-8.759</ele>
  <time>2026-09-02T22:08:03Z</time>
  <course>186.07</course>
  <speed>0.022360679774997897</speed>
  <fix>3d</fix>
</trkpt>
<trkpt lat="33.8103132" lon="-118.3938671">
  <ele>-8.799</ele>
  <time>2026-09-02T22:08:03Z</time>
  <course>186.08</course>
  <speed>0.022360679774997897</speed>
  <fix>3d</fix>
</trkpt>
<trkpt lat="33.810313" lon="-118.393867">
  <ele>-8.46</ele>
  <time>2026-09-02T22:08:03Z</time>
  <course>0.0</course>
  <speed>0.0</speed>
  <fix>3d</fix>
</trkpt>
<trkpt lat="33.8103132" lon="-118.3938671">
  <ele>-8.801</ele>
  <time>2026-09-02T22:08:03Z</time>
  <course>186.08</course>
  <speed>0.022360679774997897</speed>
  <fix>3d</fix>
</trkpt>
<trkpt lat="33.8103132" lon="-118.3938671">
  <ele>-8.861</ele>
  <time>2026-09-02T22:08:03Z</time>
  <course>186.08</course>
  <speed>0.022360679774997897</speed>
  <fix>3d</fix>
</trkpt>
<trkpt lat="33.810313" lon="-118.393867">
  <ele>-8.46</ele>
  <time>2026-09-02T22:08:03Z</time>
  <course>0.0</course>
  <speed>0.0</speed>
  <fix>3d</fix>
</trkpt>
<trkpt lat="33.8103132" lon="-118.3938671">
  <ele>-8.862</ele>
  <time>2026-09-02T22:08:03Z</time>
  <course>186.08</course>
  <speed>0.022360679774997897</speed>
  <fix>3d</fix>
</trkpt>
<trkpt lat="33.8103132" lon="-118.3938671">
  <ele>-8.924</ele>
  <time>2026-09-02T22:08:03Z</time>
  <course>186.09</course>
  <speed>0.022360679774997897</speed>
  <fix>3d</fix>
</trkpt>
<trkpt lat="33.810313" lon="-118.393867">
  <ele>-8.59</ele>
  <time>2026-09-02T22:08:03Z</time>
  <course>0.0</course>
  <speed>0.0</speed>
  <fix>3d</fix>
</trkpt>
<trkpt lat="33.8103132" lon="-118.3938671">
  <ele>-8.944</ele>
  <time>2026-09-02T22:08:03Z</time>
  <course>186.09</course>
  <speed>0.022360679774997897</speed>
  <fix>3d</fix>
</trkpt>
<trkpt lat="33.8103132" lon="-118.3938671">
  <ele>-8.987</ele>
  <time>2026-09-02T22:08:03Z</time>
  <course>186.1</course>
  <speed>0.022360679774997897</speed>
  <fix>3d</fix>
</trkpt>
<trkpt lat="33.810313" lon="-118.393867">
  <ele>-8.59</ele>
  <time>2026-09-02T22:08:03Z</time>
  <course>0.0</course>
  <speed>0.0</speed>
  <fix>3d</fix>
</trkpt>
<trkpt lat="33.8103132" lon="-118.3938671">
  <ele>-9.009</ele>
  <time>2026-09-02T22:08:03Z</time>
  <course>186.1</course>
  <speed>0.022360679774997897</speed>
  <fix>3d</fix>
</trkpt>
<trkpt lat="33.8103132" lon="-118.3938671">
  <ele>-9.049</ele>
  <time>2026-09-02T22:08:03Z</time>
  <course>186.11</course>
  <speed>0.022360679774997897</speed>
  <fix>3d</fix>
</trkpt>
<trkpt lat="33.810313" lon="-118.393867">
  <ele>-8.71</ele>
  <time>2026-09-02T22:08:03Z</time>
  <course>0.0</course>
  <speed>0.0</speed>
  <fix>3d</fix>
</trkpt>
<trkpt lat="33.8103132" lon="-118.3938671">
  <ele>-9.068</ele>
  <time>2026-09-02T22:08:03Z</time>
  <course>186.11</course>
  <speed>0.022360679774997897</speed>
  <fix>3d</fix>
</trkpt>
<trkpt lat="33.8103132" lon="-118.3938671">
  <ele>-9.111</ele>
  <time>2026-09-02T22:08:03Z</time>
  <course>186.11</course>
  <speed>0.022360679774997897</speed>
  <fix>3d</fix>
</trkpt>
<trkpt lat="33.810313" lon="-118.393867">
  <ele>-8.71</ele>
  <time>2026-09-02T22:08:03Z</time>
  <course>0.0</course>
  <speed>0.0</speed>
  <fix>3d</fix>
</trkpt>
<trkpt lat="33.8103132" lon="-118.3938671">
  <ele>-9.131</ele>
  <time>2026-09-02T22:08:03Z</time>
  <course>186.12</course>
  <speed>0.022360679774997897</speed>
  <fix>3d</fix>
</trkpt>
<trkpt lat="33.8103132" lon="-118.3938671">
  <ele>-9.173</ele>
  <time>2026-09-02T22:08:03Z</time>
  <course>186.12</course>
  <speed>0.022360679774997897</speed>
  <fix>3d</fix>
</trkpt>
<trkpt lat="33.810313" lon="-118.393867">
  <ele>-8.83</ele>
  <time>2026-09-02T22:08:03Z</time>
  <course>0.0</course>
  <speed>0.0</speed>
  <fix>3d</fix>
</trkpt>
<trkpt lat="33.8103132" lon="-118.3938671">
  <ele>-9.174</ele>
  <time>2026-09-02T22:08:03Z</time>
  <course>186.12</course>
  <speed>0.022360679774997897</speed>
  <fix>3d</fix>
</trkpt>
<trkpt lat="33.8103132" lon="-118.3938671">
  <ele>-9.235</ele>
  <time>2026-09-02T22:08:03Z</time>
  <course>186.13</course>
  <speed>0.022360679774997897</speed>
  <fix>3d</fix>
</trkpt>
<trkpt lat="33.810313" lon="-118.393867">
  <ele>-8.83</ele>
  <time>2026-09-02T22:08:03Z</time>
  <course>0.0</course>
  <speed>0.0</speed>
  <fix>3d</fix>
</trkpt>
<trkpt lat="33.8103132" lon="-118.3938671">
  <ele>-9.255</ele>
  <time>2026-09-02T22:08:03Z</time>
  <course>186.13</course>
  <speed>0.022360679774997897</speed>
  <fix>3d</fix>
</trkpt>
<trkpt lat="33.8103132" lon="-118.3938671">
  <ele>-9.298</ele>
  <time>2026-09-02T22:08:03Z</time>
  <course>186.13</course>
  <speed>0.022360679774997897</speed>
  <fix>3d</fix>
</trkpt>
<trkpt lat="33.810313" lon="-118.393867">
  <ele>-8.95</ele>
  <time>2026-09-02T22:08:03Z</time>
  <course>0.0</course>
  <speed>0.0</speed>
  <fix>3d</fix>
</trkpt>
<trkpt lat="33.8103132" lon="-118.3938671">
  <ele>-9.319</ele>
  <time>2026-09-02T22:08:03Z</time>
  <course>186.14</course>
  <speed>0.022360679774997897</speed>
  <fix>3d</fix>
</trkpt>
<trkpt lat="33.8103132" lon="-118.3938671">
  <ele>-9.36</ele>
  <time>2026-09-02T22:08:03Z</time>
  <course>186.14</course>
  <speed>0.022360679774997897</speed>
  <fix>3d</fix>
</trkpt>
<trkpt lat="33.810313" lon="-118.393867">
  <ele>-8.95</ele>
  <time>2026-09-02T22:08:03Z</time>
  <course>0.0</course>
  <speed>0.0</speed>
  <fix>3d</fix>
</trkpt>
<trkpt lat="33.8103132" lon="-118.3938671">
  <ele>-9.379</ele>
  <time>2026-09-02T22:08:03Z</time>
  <course>186.14</course>
  <speed>0.022360679774997897</speed>
  <fix>3d</fix>
</trkpt>
<trkpt lat="33.8103132" lon="-118.3938671">
  <ele>-9.421</ele>
  <time>2026-09-02T22:08:03Z</time>
  <course>186.15</course>
  <speed>0.022360679774997897</speed>
  <fix>3d</fix>
</trkpt>
<trkpt lat="33.810313" lon="-118.393867">
  <ele>-9.07</ele>
  <time>2026-09-02T22:08:03Z</time>
  <course>0.0</course>
  <speed>0.0</speed>
  <fix>3d</fix>
</trkpt>
<trkpt lat="33.8103132" lon="-118.3938671">
  <ele>-9.442</ele>
  <time>2026-09-02T22:08:03Z</time>
  <course>186.15</course>
  <speed>0.022360679774997897</speed>
  <fix>3d</fix>
</trkpt>
<trkpt lat="33.8103132" lon="-118.3938671">
  <ele>-9.482</ele>
  <time>2026-09-02T22:08:03Z</time>
  <course>186.15</course>
  <speed>0.022360679774997897</speed>
  <fix>3d</fix>
</trkpt>
<trkpt lat="33.810313" lon="-118.393867">
  <ele>-9.07</ele>
  <time>2026-09-02T22:08:03Z</time>
  <course>0.0</course>
  <speed>0.0</speed>
  <fix>3d</fix>
</trkpt>
<trkpt lat="33.8103132" lon="-118.3938671">
  <ele>-9.484</ele>
  <time>2026-09-02T22:08:03Z</time>
  <course>186.15</course>
  <speed>0.022360679774997897</speed>
  <fix>3d</fix>
</trkpt>
<trkpt lat="33.8103132" lon="-118.3938671">
  <ele>-9.544</ele>
  <time>2026-09-02T22:08:03Z</time>
  <course>186.16</course>
  <speed>0.022360679774997897</speed>
  <fix>3d</fix>
</trkpt>
<trkpt lat="33.810313" lon="-118.393867">
  <ele>-9.19</ele>
  <time>2026-09-02T22:08:03Z</time>
  <course>0.0</course>
  <speed>0.0</speed>
  <fix>3d</fix>
</trkpt>
<trkpt lat="33.8103132" lon="-118.3938671">
  <ele>-9.569</ele>
  <time>2026-09-02T22:08:03Z</time>
  <course>186.16</course>
  <speed>0.022360679774997897</speed>
  <fix>3d</fix>
</trkpt>
<trkpt lat="33.8103132" lon="-118.3938671">
  <ele>-9.606</ele>
  <time>2026-09-02T22:08:03Z</time>
  <course>186.17</course>
  <speed>0.022360679774997897</speed>
  <fix>3d</fix>
</trkpt>
<trkpt lat="33.810313" lon="-118.393867">
  <ele>-9.19</ele>
  <time>2026-09-02T22:08:03Z</time>
  <course>0.0</course>
  <speed>0.0</speed>
  <fix>3d</fix>
</trkpt>
<trkpt lat="33.8103132" lon="-118.3938671">
  <ele>-9.627</ele>
  <time>2026-09-02T22:08:03Z</time>
  <course>186.17</course>
  <speed>0.022360679774997897</speed>
  <fix>3d</fix>
</trkpt>
<trkpt lat="33.8103132" lon="-118.3938671">
  <ele>-9.668</ele>
  <time>2026-09-02T22:08:03Z</time>
  <course>186.17</course>
  <speed>0.022360679774997897</speed>
  <fix>3d</fix>
</trkpt>
<trkpt lat="33.810313" lon="-118.393867">
  <ele>-9.3</ele>
  <time>2026-09-02T22:08:03Z</time>
  <course>0.0</course>
  <speed>0.0</speed>
  <fix>3d</fix>
</trkpt>
<trkpt lat="33.8103132" lon="-118.3938671">
  <ele>-9.689</ele>
  <time>2026-09-02T22:08:03Z</time>
  <course>186.18</course>
  <speed>0.022360679774997897</speed>
  <fix>3d</fix>
</trkpt>
<trkpt lat="33.8103132" lon="-118.3938671">
  <ele>-9.729</ele>
  <time>2026-09-02T22:08:03Z</time>
  <course>186.18</course>
  <speed>0.022360679774997897</speed>
  <fix>3d</fix>
</trkpt>
<trkpt lat="33.810313" lon="-118.393867">
  <ele>-9.3</ele>
  <time>2026-09-02T22:08:03Z</time>
  <course>0.0</course>
  <speed>0.0</speed>
  <fix>3d</fix>
</trkpt>
<trkpt lat="33.8103132" lon="-118.3938671">
  <ele>-9.751</ele>
  <time>2026-09-02T22:08:03Z</time>
  <course>186.18</course>
  <speed>0.022360679774997897</speed>
  <fix>3d</fix>
</trkpt>
<trkpt lat="33.8103132" lon="-118.3938671">
  <ele>-9.791</ele>
  <time>2026-09-02T22:08:03Z</time>
  <course>186.18</course>
  <speed>0.022360679774997897</speed>
  <fix>3d</fix>
</trkpt>
<trkpt lat="33.810313" lon="-118.393867">
  <ele>-9.43</ele>
  <time>2026-09-02T22:08:03Z</time>
  <course>0.0</course>
  <speed>0.0</speed>
  <fix>3d</fix>
</trkpt>
<trkpt lat="33.8103132" lon="-118.3938671">
  <ele>-9.792</ele>
  <time>2026-09-02T22:08:03Z</time>
  <course>186.18</course>
  <speed>0.022360679774997897</speed>
  <fix>3d</fix>
</trkpt>
<trkpt lat="33.8103132" lon="-118.3938671">
  <ele>-9.852</ele>
  <time>2026-09-02T22:08:03Z</time>
  <course>186.19</course>
  <speed>0.022360679774997897</speed>
  <fix>3d</fix>
</trkpt>
<trkpt lat="33.810313" lon="-118.393867">
  <ele>-9.43</ele>
  <time>2026-09-02T22:08:03Z</time>
  <course>0.0</course>
  <speed>0.0</speed>
  <fix>3d</fix>
</trkpt>
<trkpt lat="33.8103132" lon="-118.3938671">
  <ele>-9.873</ele>
  <time>2026-09-02T22:08:03Z</time>
  <course>186.19</course>
  <speed>0.022360679774997897</speed>
  <fix>3d</fix>
</trkpt>
<trkpt lat="33.8103132" lon="-118.3938671">
  <ele>-9.913</ele>
  <time>2026-09-02T22:08:03Z</time>
  <course>186.2</course>
  <speed>0.022360679774997897</speed>
  <fix>3d</fix>
</trkpt>
<trkpt lat="33.810313" lon="-118.393867">
  <ele>-9.55</ele>
  <time>2026-09-02T22:08:03Z</time>
  <course>0.0</course>
  <speed>0.0</speed>
  <fix>3d</fix>
</trkpt>
<trkpt lat="33.8103132" lon="-118.3938671">
  <ele>-9.937</ele>
  <time>2026-09-02T22:08:03Z</time>
  <course>186.2</course>
  <speed>0.022360679774997897</speed>
  <fix>3d</fix>
</trkpt>
<trkpt lat="33.8103132" lon="-118.3938671">
  <ele>-9.976</ele>
  <time>2026-09-02T22:08:03Z</time>
  <course>186.2</course>
  <speed>0.022360679774997897</speed>
  <fix>3d</fix>
</trkpt>
<trkpt lat="33.810313" lon="-118.393867">
  <ele>-9.55</ele>
  <time>2026-09-02T22:08:03Z</time>
  <course>0.0</course>
  <speed>0.0</speed>
  <fix>3d</fix>
</trkpt>
<trkpt lat="33.8103132" lon="-118.3938671">
  <ele>-9.996</ele>
  <time>2026-09-02T22:08:03Z</time>
  <course>186.21</course>
  <speed>0.022360679774997897</speed>
  <fix>3d</fix>
</trkpt>
<trkpt lat="33.8103132" lon="-118.3938671">
  <ele>-10.038</ele>
  <time>2026-09-02T22:08:03Z</time>
  <course>186.21</course>
  <speed>0.022360679774997897</speed>
  <fix>3d</fix>
</trkpt>
<trkpt lat="33.810313" lon="-118.393867">
  <ele>-9.68</ele>
  <time>2026-09-02T22:08:03Z</time>
  <course>0.0</course>
  <speed>0.0</speed>
  <fix>3d</fix>
</trkpt>
<trkpt lat="33.8103132" lon="-118.3938671">
  <ele>-10.058</ele>
  <time>2026-09-02T22:08:03Z</time>
  <course>186.21</course>
  <speed>0.022360679774997897</speed>
  <fix>3d</fix>
</trkpt>
<trkpt lat="33.8103132" lon="-118.3938671">
  <ele>-10.1</ele>
  <time>2026-09-02T22:08:03Z</time>
  <course>186.22</course>
  <speed>0.022360679774997897</speed>
  <fix>3d</fix>
</trkpt>
<trkpt lat="33.810313" lon="-118.393867">
  <ele>-9.68</ele>
  <time>2026-09-02T22:08:03Z</time>
  <course>0.0</course>
  <speed>0.0</speed>
  <fix>3d</fix>
</trkpt>
<trkpt lat="33.8103132" lon="-118.3938671">
  <ele>-10.102</ele>
  <time>2026-09-02T22:08:03Z</time>
  <course>186.22</course>
  <speed>0.022360679774997897</speed>
  <fix>3d</fix>
</trkpt>
<trkpt lat="33.8103132" lon="-118.3938671">
  <ele>-10.164</ele>
  <time>2026-09-02T22:08:03Z</time>
  <course>186.22</course>
  <speed>0.022360679774997897</speed>
  <fix>3d</fix>
</trkpt>
<trkpt lat="33.810313" lon="-118.393867">
  <ele>-9.79</ele>
  <time>2026-09-02T22:08:03Z</time>
  <course>0.0</course>
  <speed>0.0</speed>
  <fix>3d</fix>
</trkpt>
<trkpt lat="33.8103132" lon="-118.3938671">
  <ele>-10.165</ele>
  <time>2026-09-02T22:08:03Z</time>
  <course>186.22</course>
  <speed>0.022360679774997897</speed>
  <fix>3d</fix>
</trkpt>
<trkpt lat="33.8103132" lon="-118.3938671">
  <ele>-10.228</ele>
  <time>2026-09-02T22:08:03Z</time>
  <course>186.23</course>
  <speed>0.022360679774997897</speed>
  <fix>3d</fix>
</trkpt>
<trkpt lat="33.810313" lon="-118.393867">
  <ele>-9.79</ele>
  <time>2026-09-02T22:08:03Z</time>
  <course>0.0</course>
  <speed>0.0</speed>
  <fix>3d</fix>
</trkpt>
<trkpt lat="33.8103132" lon="-118.3938671">
  <ele>-10.249</ele>
  <time>2026-09-02T22:08:03Z</time>
  <course>186.23</course>
  <speed>0.022360679774997897</speed>
  <fix>3d</fix>
</trkpt>
<trkpt lat="33.8103132" lon="-118.3938671">
  <ele>-10.292</ele>
  <time>2026-09-02T22:08:03Z</time>
  <course>186.23</course>
  <speed>0.022360679774997897</speed>
  <fix>3d</fix>
</trkpt>
<trkpt lat="33.810313" lon="-118.393867">
  <ele>-9.92</ele>
  <time>2026-09-02T22:08:03Z</time>
  <course>0.0</course>
  <speed>0.0</speed>
  <fix>3d</fix>
</trkpt>
<trkpt lat="33.8103132" lon="-118.3938671">
  <ele>-10.312</ele>
  <time>2026-09-02T22:08:03Z</time>
  <course>186.23</course>
  <speed>0.022360679774997897</speed>
  <fix>3d</fix>
</trkpt>
<trkpt lat="33.8103132" lon="-118.3938671">
  <ele>-10.354</ele>
  <time>2026-09-02T22:08:03Z</time>
  <course>186.24</course>
  <speed>0.022360679774997897</speed>
  <fix>3d</fix>
</trkpt>
<trkpt lat="33.810313" lon="-118.393867">
  <ele>-9.92</ele>
  <time>2026-09-02T22:08:03Z</time>
  <course>0.0</course>
  <speed>0.0</speed>
  <fix>3d</fix>
</trkpt>
<trkpt lat="33.8103132" lon="-118.3938671">
  <ele>-10.376</ele>
  <time>2026-09-02T22:08:03Z</time>
  <course>186.24</course>
  <speed>0.022360679774997897</speed>
  <fix>3d</fix>
</trkpt>
<trkpt lat="33.8103132" lon="-118.3938671">
  <ele>-10.416</ele>
  <time>2026-09-02T22:08:03Z</time>
  <course>186.24</course>
  <speed>0.022360679774997897</speed>
  <fix>3d</fix>
</trkpt>
<trkpt lat="33.810313" lon="-118.393867">
  <ele>-10.04</ele>
  <time>2026-09-02T22:08:03Z</time>
  <course>0.0</course>
  <speed>0.0</speed>
  <fix>3d</fix>
</trkpt>
<trkpt lat="33.8103132" lon="-118.3938671">
  <ele>-10.418</ele>
  <time>2026-09-02T22:08:03Z</time>
  <course>186.24</course>
  <speed>0.022360679774997897</speed>
  <fix>3d</fix>
</trkpt>
<trkpt lat="33.8103132" lon="-118.3938671">
  <ele>-10.478</ele>
  <time>2026-09-02T22:08:03Z</time>
  <course>186.25</course>
  <speed>0.022360679774997897</speed>
  <fix>3d</fix>
</trkpt>
<trkpt lat="33.810313" lon="-118.393867">
  <ele>-10.04</ele>
  <time>2026-09-02T22:08:03Z</time>
  <course>0.0</course>
  <speed>0.0</speed>
  <fix>3d</fix>
</trkpt>
<trkpt lat="33.8103132" lon="-118.3938671">
  <ele>-10.499</ele>
  <time>2026-09-02T22:08:03Z</time>
  <course>186.25</course>
  <speed>0.022360679774997897</speed>
  <fix>3d</fix>
</trkpt>
<trkpt lat="33.8103132" lon="-118.3938671">
  <ele>-10.538</ele>
  <time>2026-09-02T22:08:03Z</time>
  <course>186.25</course>
  <speed>0.022360679774997897</speed>
  <fix>3d</fix>
</trkpt>
<trkpt lat="33.810313" lon="-118.393867">
  <ele>-10.16</ele>
  <time>2026-09-02T22:08:03Z</time>
  <course>0.0</course>
  <speed>0.0</speed>
  <fix>3d</fix>
</trkpt>
<trkpt lat="33.8103132" lon="-118.3938671">
  <ele>-10.559</ele>
  <time>2026-09-02T22:08:03Z</time>
  <course>186.26</course>
  <speed>0.022360679774997897</speed>
  <fix>3d</fix>
</trkpt>
<trkpt lat="33.8103132" lon="-118.3938671">
  <ele>-10.599</ele>
  <time>2026-09-02T22:08:03Z</time>
  <course>186.26</course>
  <speed>0.022360679774997897</speed>
  <fix>3d</fix>
</trkpt>
<trkpt lat="33.810313" lon="-118.393867">
  <ele>-10.16</ele>
  <time>2026-09-02T22:08:03Z</time>
  <course>0.0</course>
  <speed>0.0</speed>
  <fix>3d</fix>
</trkpt>
<trkpt lat="33.8103132" lon="-118.3938671">
  <ele>-10.62</ele>
  <time>2026-09-02T22:08:03Z</time>
  <course>186.26</course>
  <speed>0.022360679774997897</speed>
  <fix>3d</fix>
</trkpt>
<trkpt lat="33.8103132" lon="-118.3938671">
  <ele>-10.661</ele>
  <time>2026-09-02T22:08:03Z</time>
  <course>186.26</course>
  <speed>0.022360679774997897</speed>
  <fix>3d</fix>
</trkpt>
<trkpt lat="33.810313" lon="-118.393867">
  <ele>-10.28</ele>
  <time>2026-09-02T22:08:03Z</time>
  <course>0.0</course>
  <speed>0.0</speed>
  <fix>3d</fix>
</trkpt>
<trkpt lat="33.8103132" lon="-118.3938671">
  <ele>-10.683</ele>
  <time>2026-09-02T22:08:03Z</time>
  <course>186.27</course>
  <speed>0.022360679774997897</speed>
  <fix>3d</fix>
</trkpt>
<trkpt lat="33.8103132" lon="-118.3938671">
  <ele>-10.723</ele>
  <time>2026-09-02T22:08:03Z</time>
  <course>186.27</course>
  <speed>0.022360679774997897</speed>
  <fix>3d</fix>
</trkpt>
<trkpt lat="33.810313" lon="-118.393867">
  <ele>-10.28</ele>
  <time>2026-09-02T22:08:03Z</time>
  <course>0.0</course>
  <speed>0.0</speed>
  <fix>3d</fix>
</trkpt>
<trkpt lat="33.8103132" lon="-118.3938671">
  <ele>-10.724</ele>
  <time>2026-09-02T22:08:03Z</time>
  <course>186.27</course>
  <speed>0.022360679774997897</speed>
  <fix>3d</fix>
</trkpt>
<trkpt lat="33.8103132" lon="-118.3938671">
  <ele>-10.786</ele>
  <time>2026-09-02T22:08:03Z</time>
  <course>186.27</course>
  <speed>0.022360679774997897</speed>
  <fix>3d</fix>
</trkpt>
<trkpt lat="33.810313" lon="-118.393867">
  <ele>-10.4</ele>
  <time>2026-09-02T22:08:03Z</time>
  <course>0.0</course>
  <speed>0.0</speed>
  <fix>3d</fix>
</trkpt>
<trkpt lat="33.8103132" lon="-118.3938671">
  <ele>-10.788</ele>
  <time>2026-09-02T22:08:03Z</time>
  <course>186.27</course>
  <speed>0.022360679774997897</speed>
  <fix>3d</fix>
</trkpt>
<trkpt lat="33.8103132" lon="-118.3938671">
  <ele>-10.849</ele>
  <time>2026-09-02T22:08:03Z</time>
  <course>186.28</course>
  <speed>0.022360679774997897</speed>
  <fix>3d</fix>
</trkpt>
<trkpt lat="33.810313" lon="-118.393867">
  <ele>-10.4</ele>
  <time>2026-09-02T22:08:03Z</time>
  <course>0.0</course>
  <speed>0.0</speed>
  <fix>3d</fix>
</trkpt>
<trkpt lat="33.8103132" lon="-118.3938671">
  <ele>-10.871</ele>
  <time>2026-09-02T22:08:03Z</time>
  <course>186.28</course>
  <speed>0.022360679774997897</speed>
  <fix>3d</fix>
</trkpt>
<trkpt lat="33.8103132" lon="-118.3938671">
  <ele>-10.911</ele>
  <time>2026-09-02T22:08:03Z</time>
  <course>186.28</course>
  <speed>0.022360679774997897</speed>
  <fix>3d</fix>
</trkpt>
<trkpt lat="33.810313" lon="-118.393867">
  <ele>-10.52</ele>
  <time>2026-09-02T22:08:03Z</time>
  <course>0.0</course>
  <speed>0.0</speed>
  <fix>3d</fix>
</trkpt>
<trkpt lat="33.8103132" lon="-118.3938671">
  <ele>-10.933</ele>
  <time>2026-09-02T22:08:03Z</time>
  <course>186.29</course>
  <speed>0.022360679774997897</speed>
  <fix>3d</fix>
</trkpt>
<trkpt lat="33.8103132" lon="-118.3938671">
  <ele>-10.974</ele>
  <time>2026-09-02T22:08:03Z</time>
  <course>186.29</course>
  <speed>0.022360679774997897</speed>
  <fix>3d</fix>
</trkpt>
<trkpt lat="33.810313" lon="-118.393867">
  <ele>-10.52</ele>
  <time>2026-09-02T22:08:03Z</time>
  <course>0.0</course>
  <speed>0.0</speed>
  <fix>3d</fix>
</trkpt>
<trkpt lat="33.8103132" lon="-118.3938671">
  <ele>-10.994</ele>
  <time>2026-09-02T22:08:03Z</time>
  <course>186.29</course>
  <speed>0.022360679774997897</speed>
  <fix>3d</fix>
</trkpt>
<trkpt lat="33.8103132" lon="-118.3938671">
  <ele>-11.036</ele>
  <time>2026-09-02T22:08:03Z</time>
  <course>186.29</course>
  <speed>0.022360679774997897</speed>
  <fix>3d</fix>
</trkpt>
<trkpt lat="33.810313" lon="-118.393867">
  <ele>-10.63</ele>
  <time>2026-09-02T22:08:03Z</time>
  <course>0.0</course>
  <speed>0.0</speed>
  <fix>3d</fix>
</trkpt>
<trkpt lat="33.8103132" lon="-118.3938671">
  <ele>-11.038</ele>
  <time>2026-09-02T22:08:03Z</time>
  <course>186.29</course>
  <speed>0.022360679774997897</speed>
  <fix>3d</fix>
</trkpt>
<trkpt lat="33.8103132" lon="-118.3938671">
  <ele>-11.099</ele>
  <time>2026-09-02T22:08:03Z</time>
  <course>186.3</course>
  <speed>0.022360679774997897</speed>
  <fix>3d</fix>
</trkpt>
<trkpt lat="33.810313" lon="-118.393867">
  <ele>-10.63</ele>
  <time>2026-09-02T22:08:03Z</time>
  <course>0.0</course>
  <speed>0.0</speed>
  <fix>3d</fix>
</trkpt>
<trkpt lat="33.8103132" lon="-118.3938671">
  <ele>-11.121</ele>
  <time>2026-09-02T22:08:03Z</time>
  <course>186.3</course>
  <speed>0.022360679774997897</speed>
  <fix>3d</fix>
</trkpt>
<trkpt lat="33.8103132" lon="-118.3938671">
  <ele>-11.162</ele>
  <time>2026-09-02T22:08:03Z</time>
  <course>186.3</course>
  <speed>0.022360679774997897</speed>
  <fix>3d</fix>
</trkpt>
<trkpt lat="33.810313" lon="-118.393867">
  <ele>-10.76</ele>
  <time>2026-09-02T22:08:03Z</time>
  <course>0.0</course>
  <speed>0.0</speed>
  <fix>3d</fix>
</trkpt>
<trkpt lat="33.8103132" lon="-118.3938671">
  <ele>-11.182</ele>
  <time>2026-09-02T22:08:03Z</time>
  <course>186.3</course>
  <speed>0.022360679774997897</speed>
  <fix>3d</fix>
</trkpt>
<trkpt lat="33.8103132" lon="-118.3938671">
  <ele>-11.225</ele>
  <time>2026-09-02T22:08:03Z</time>
  <course>186.31</course>
  <speed>0.022360679774997897</speed>
  <fix>3d</fix>
</trkpt>
<trkpt lat="33.810313" lon="-118.393867">
  <ele>-10.76</ele>
  <time>2026-09-02T22:08:03Z</time>
  <course>0.0</course>
  <speed>0.0</speed>
  <fix>3d</fix>
</trkpt>
<trkpt lat="33.8103132" lon="-118.3938671">
  <ele>-11.249</ele>
  <time>2026-09-02T22:08:03Z</time>
  <course>186.31</course>
  <speed>0.022360679774997897</speed>
  <fix>3d</fix>
</trkpt>
<trkpt lat="33.8103132" lon="-118.3938671">
  <ele>-11.288</ele>
  <time>2026-09-02T22:08:03Z</time>
  <course>186.31</course>
  <speed>0.022360679774997897</speed>
  <fix>3d</fix>
</trkpt>
<trkpt lat="33.810313" lon="-118.393867">
  <ele>-10.87</ele>
  <time>2026-09-02T22:08:03Z</time>
  <course>0.0</course>
  <speed>0.0</speed>
  <fix>3d</fix>
</trkpt>
<trkpt lat="33.8103132" lon="-118.3938671">
  <ele>-11.309</ele>
  <time>2026-09-02T22:08:03Z</time>
  <course>186.31</course>
  <speed>0.022360679774997897</speed>
  <fix>3d</fix>
</trkpt>
<trkpt lat="33.8103132" lon="-118.3938671">
  <ele>-11.351</ele>
  <time>2026-09-02T22:08:03Z</time>
  <course>186.32</course>
  <speed>0.022360679774997897</speed>
  <fix>3d</fix>
</trkpt>
<trkpt lat="33.810313" lon="-118.393867">
  <ele>-10.87</ele>
  <time>2026-09-02T22:08:03Z</time>
  <course>0.0</course>
  <speed>0.0</speed>
  <fix>3d</fix>
</trkpt>
<trkpt lat="33.8103132" lon="-118.3938671">
  <ele>-11.352</ele>
  <time>2026-09-02T22:08:03Z</time>
  <course>186.32</course>
  <speed>0.022360679774997897</speed>
  <fix>3d</fix>
</trkpt>
<trkpt lat="33.8103132" lon="-118.3938671">
  <ele>-11.413</ele>
  <time>2026-09-02T22:08:03Z</time>
  <course>186.32</course>
  <speed>0.022360679774997897</speed>
  <fix>3d</fix>
</trkpt>
<trkpt lat="33.810313" lon="-118.393867">
  <ele>-11.0</ele>
  <time>2026-09-02T22:08:03Z</time>
  <course>0.0</course>
  <speed>0.0</speed>
  <fix>3d</fix>
</trkpt>
<trkpt lat="33.8103132" lon="-118.3938671">
  <ele>-11.416</ele>
  <time>2026-09-02T22:08:03Z</time>
  <course>186.32</course>
  <speed>0.022360679774997897</speed>
  <fix>3d</fix>
</trkpt>
<trkpt lat="33.8103132" lon="-118.3938671">
  <ele>-11.476</ele>
  <time>2026-09-02T22:08:03Z</time>
  <course>186.32</course>
  <speed>0.022360679774997897</speed>
  <fix>3d</fix>
</trkpt>
<trkpt lat="33.810313" lon="-118.393867">
  <ele>-11.0</ele>
  <time>2026-09-02T22:08:03Z</time>
  <course>0.0</course>
  <speed>0.0</speed>
  <fix>3d</fix>
</trkpt>
<trkpt lat="33.8103132" lon="-118.3938671">
  <ele>-11.498</ele>
  <time>2026-09-02T22:08:03Z</time>
  <course>186.33</course>
  <speed>0.022360679774997897</speed>
  <fix>3d</fix>
</trkpt>
<trkpt lat="33.8103132" lon="-118.3938671">
  <ele>-11.537</ele>
  <time>2026-09-02T22:08:03Z</time>
  <course>186.33</course>
  <speed>0.022360679774997897</speed>
  <fix>3d</fix>
</trkpt>
<trkpt lat="33.810313" lon="-118.393867">
  <ele>-11.12</ele>
  <time>2026-09-02T22:08:03Z</time>
  <course>0.0</course>
  <speed>0.0</speed>
  <fix>3d</fix>
</trkpt>
<trkpt lat="33.8103132" lon="-118.3938671">
  <ele>-11.557</ele>
  <time>2026-09-02T22:08:03Z</time>
  <course>186.33</course>
  <speed>0.022360679774997897</speed>
  <fix>3d</fix>
</trkpt>
<trkpt lat="33.8103132" lon="-118.3938671">
  <ele>-11.599</ele>
  <time>2026-09-02T22:08:03Z</time>
  <course>186.33</course>
  <speed>0.022360679774997897</speed>
  <fix>3d</fix>
</trkpt>
<trkpt lat="33.810313" lon="-118.393867">
  <ele>-11.12</ele>
  <time>2026-09-02T22:08:03Z</time>
  <course>0.0</course>
  <speed>0.0</speed>
  <fix>3d</fix>
</trkpt>
<trkpt lat="33.8103132" lon="-118.3938671">
  <ele>-11.624</ele>
  <time>2026-09-02T22:08:03Z</time>
  <course>186.33</course>
  <speed>0.022360679774997897</speed>
  <fix>3d</fix>
</trkpt>
<trkpt lat="33.8103132" lon="-118.3938671">
  <ele>-11.661</ele>
  <time>2026-09-02T22:08:03Z</time>
  <course>186.34</course>
  <speed>0.022360679774997897</speed>
  <fix>3d</fix>
</trkpt>
<trkpt lat="33.810313" lon="-118.393867">
  <ele>-11.24</ele>
  <time>2026-09-02T22:08:03Z</time>
  <course>0.0</course>
  <speed>0.0</speed>
  <fix>3d</fix>
</trkpt>
<trkpt lat="33.8103132" lon="-118.3938671">
  <ele>-11.664</ele>
  <time>2026-09-02T22:08:03Z</time>
  <course>186.34</course>
  <speed>0.022360679774997897</speed>
  <fix>3d</fix>
</trkpt>
<trkpt lat="33.8103132" lon="-118.3938671">
  <ele>-11.722</ele>
  <time>2026-09-02T22:08:03Z</time>
  <course>186.34</course>
  <speed>0.022360679774997897</speed>
  <fix>3d</fix>
</trkpt>
<trkpt lat="33.810313" lon="-118.393867">
  <ele>-11.24</ele>
  <time>2026-09-02T22:08:03Z</time>
  <course>0.0</course>
  <speed>0.0</speed>
  <fix>3d</fix>
</trkpt>
<trkpt lat="33.8103132" lon="-118.3938671">
  <ele>-11.724</ele>
  <time>2026-09-02T22:08:03Z</time>
  <course>186.34</course>
  <speed>0.022360679774997897</speed>
  <fix>3d</fix>
</trkpt>
<trkpt lat="33.8103132" lon="-118.3938671">
  <ele>-11.783</ele>
  <time>2026-09-02T22:08:03Z</time>
  <course>186.34</course>
  <speed>0.022360679774997897</speed>
  <fix>3d</fix>
</trkpt>
<trkpt lat="33.810313" lon="-118.393867">
  <ele>-11.36</ele>
  <time>2026-09-02T22:08:03Z</time>
  <course>0.0</course>
  <speed>0.0</speed>
  <fix>3d</fix>
</trkpt>
<trkpt lat="33.8103132" lon="-118.3938671">
  <ele>-11.784</ele>
  <time>2026-09-02T22:08:03Z</time>
  <course>186.34</course>
  <speed>0.022360679774997897</speed>
  <fix>3d</fix>
</trkpt>
<trkpt lat="33.8103132" lon="-118.3938671">
  <ele>-11.843</ele>
  <time>2026-09-02T22:08:03Z</time>
  <course>186.35</course>
  <speed>0.022360679774997897</speed>
  <fix>3d</fix>
</trkpt>
<trkpt lat="33.810313" lon="-118.393867">
  <ele>-11.36</ele>
  <time>2026-09-02T22:08:03Z</time>
  <course>0.0</course>
  <speed>0.0</speed>
  <fix>3d</fix>
</trkpt>
<trkpt lat="33.8103132" lon="-118.3938671">
  <ele>-11.863</ele>
  <time>2026-09-02T22:08:03Z</time>
  <course>186.35</course>
  <speed>0.022360679774997897</speed>
  <fix>3d</fix>
</trkpt>
<trkpt lat="33.8103132" lon="-118.3938671">
  <ele>-11.904</ele>
  <time>2026-09-02T22:08:03Z</time>
  <course>186.35</course>
  <speed>0.022360679774997897</speed>
  <fix>3d</fix>
</trkpt>
<trkpt lat="33.810313" lon="-118.393867">
  <ele>-11.49</ele>
  <time>2026-09-02T22:08:03Z</time>
  <course>0.0</course>
  <speed>0.0</speed>
  <fix>3d</fix>
</trkpt>
<trkpt lat="33.8103132" lon="-118.3938671">
  <ele>-11.923</ele>
  <time>2026-09-02T22:08:03Z</time>
  <course>186.35</course>
  <speed>0.022360679774997897</speed>
  <fix>3d</fix>
</trkpt>
<trkpt lat="33.8103132" lon="-118.3938671">
  <ele>-11.965</ele>
  <time>2026-09-02T22:08:03Z</time>
  <course>186.35</course>
  <speed>0.022360679774997897</speed>
  <fix>3d</fix>
</trkpt>
<trkpt lat="33.810313" lon="-118.393867">
  <ele>-11.49</ele>
  <time>2026-09-02T22:08:03Z</time>
  <course>0.0</course>
  <speed>0.0</speed>
  <fix>3d</fix>
</trkpt>
<trkpt lat="33.8103132" lon="-118.3938671">
  <ele>-11.966</ele>
  <time>2026-09-02T22:08:03Z</time>
  <course>186.35</course>
  <speed>0.022360679774997897</speed>
  <fix>3d</fix>
</trkpt>
<trkpt lat="33.8103132" lon="-118.3938671">
  <ele>-12.026</ele>
  <time>2026-09-02T22:08:03Z</time>
  <course>186.36</course>
  <speed>0.022360679774997897</speed>
  <fix>3d</fix>
</trkpt>
<trkpt lat="33.810313" lon="-118.393867">
  <ele>-11.61</ele>
  <time>2026-09-02T22:08:03Z</time>
  <course>0.0</course>
  <speed>0.0</speed>
  <fix>3d</fix>
</trkpt>
<trkpt lat="33.8103132" lon="-118.3938671">
  <ele>-12.046</ele>
  <time>2026-09-02T22:08:03Z</time>
  <course>186.36</course>
  <speed>0.022360679774997897</speed>
  <fix>3d</fix>
</trkpt>
<trkpt lat="33.8103132" lon="-118.3938671">
  <ele>-12.087</ele>
  <time>2026-09-02T22:08:03Z</time>
  <course>186.36</course>
  <speed>0.022360679774997897</speed>
  <fix>3d</fix>
</trkpt>
<trkpt lat="33.810313" lon="-118.393867">
  <ele>-11.61</ele>
  <time>2026-09-02T22:08:03Z</time>
  <course>0.0</course>
  <speed>0.0</speed>
  <fix>3d</fix>
</trkpt>
<trkpt lat="33.8103132" lon="-118.3938671">
  <ele>-12.089</ele>
  <time>2026-09-02T22:08:03Z</time>
  <course>186.36</course>
  <speed>0.022360679774997897</speed>
  <fix>3d</fix>
</trkpt>
<trkpt lat="33.8103132" lon="-118.3938671">
  <ele>-12.149</ele>
  <time>2026-09-02T22:08:03Z</time>
  <course>186.37</course>
  <speed>0.022360679774997897</speed>
  <fix>3d</fix>
</trkpt>
<trkpt lat="33.810313" lon="-118.393867">
  <ele>-11.73</ele>
  <time>2026-09-02T22:08:03Z</time>
  <course>0.0</course>
  <speed>0.0</speed>
  <fix>3d</fix>
</trkpt>
<trkpt lat="33.8103132" lon="-118.3938671">
  <ele>-12.171</ele>
  <time>2026-09-02T22:08:03Z</time>
  <course>186.37</course>
  <speed>0.022360679774997897</speed>
  <fix>3d</fix>
</trkpt>
<trkpt lat="33.8103132" lon="-118.3938671">
  <ele>-12.211</ele>
  <time>2026-09-02T22:08:03Z</time>
  <course>186.37</course>
  <speed>0.022360679774997897</speed>
  <fix>3d</fix>
</trkpt>
<trkpt lat="33.810313" lon="-118.393867">
  <ele>-11.73</ele>
  <time>2026-09-02T22:08:03Z</time>
  <course>0.0</course>
  <speed>0.0</speed>
  <fix>3d</fix>
</trkpt>
<trkpt lat="33.8103132" lon="-118.3938671">
  <ele>-12.233</ele>
  <time>2026-09-02T22:08:03Z</time>
  <course>186.37</course>
  <speed>0.022360679774997897</speed>
  <fix>3d</fix>
</trkpt>
<trkpt lat="33.8103132" lon="-118.3938671">
  <ele>-12.273</ele>
  <time>2026-09-02T22:08:03Z</time>
  <course>186.37</course>
  <speed>0.022360679774997897</speed>
  <fix>3d</fix>
</trkpt>
<trkpt lat="33.810313" lon="-118.393867">
  <ele>-11.85</ele>
  <time>2026-09-02T22:08:03Z</time>
  <course>0.0</course>
  <speed>0.0</speed>
  <fix>3d</fix>
</trkpt>
<trkpt lat="33.8103132" lon="-118.3938671">
  <ele>-12.295</ele>
  <time>2026-09-02T22:08:03Z</time>
  <course>186.37</course>
  <speed>0.022360679774997897</speed>
  <fix>3d</fix>
</trkpt>
<trkpt lat="33.8103132" lon="-118.3938671">
  <ele>-12.335</ele>
  <time>2026-09-02T22:08:03Z</time>
  <course>186.37</course>
  <speed>0.022360679774997897</speed>
  <fix>3d</fix>
</trkpt>
<trkpt lat="33.810313" lon="-118.393867">
  <ele>-11.85</ele>
  <time>2026-09-02T22:08:03Z</time>
  <course>0.0</course>
  <speed>0.0</speed>
  <fix>3d</fix>
</trkpt>
<trkpt lat="33.8103132" lon="-118.3938671">
  <ele>-12.337</ele>
  <time>2026-09-02T22:08:03Z</time>
  <course>186.37</course>
  <speed>0.022360679774997897</speed>
  <fix>3d</fix>
</trkpt>
<trkpt lat="33.8103132" lon="-118.3938671">
  <ele>-12.397</ele>
  <time>2026-09-02T22:08:03Z</time>
  <course>186.38</course>
  <speed>0.022360679774997897</speed>
  <fix>3d</fix>
</trkpt>
<trkpt lat="33.810313" lon="-118.393867">
  <ele>-11.96</ele>
  <time>2026-09-02T22:08:03Z</time>
  <course>0.0</course>
  <speed>0.0</speed>
  <fix>3d</fix>
</trkpt>
<trkpt lat="33.8103132" lon="-118.3938671">
  <ele>-12.401</ele>
  <time>2026-09-02T22:08:03Z</time>
  <course>186.38</course>
  <speed>0.022360679774997897</speed>
  <fix>3d</fix>
</trkpt>
<trkpt lat="33.8103132" lon="-118.3938671">
  <ele>-12.461</ele>
  <time>2026-09-02T22:08:03Z</time>
  <course>186.38</course>
  <speed>0.022360679774997897</speed>
  <fix>3d</fix>
</trkpt>
<trkpt lat="33.810313" lon="-118.393867">
  <ele>-11.96</ele>
  <time>2026-09-02T22:08:03Z</time>
  <course>0.0</course>
  <speed>0.0</speed>
  <fix>3d</fix>
</trkpt>
<trkpt lat="33.8103132" lon="-118.3938671">
  <ele>-12.481</ele>
  <time>2026-09-02T22:08:03Z</time>
  <course>186.38</course>
  <speed>0.022360679774997897</speed>
  <fix>3d</fix>
</trkpt>
<trkpt lat="33.8103132" lon="-118.3938671">
  <ele>-12.524</ele>
  <time>2026-09-02T22:08:03Z</time>
  <course>186.38</course>
  <speed>0.022360679774997897</speed>
  <fix>3d</fix>
</trkpt>
<trkpt lat="33.810313" lon="-118.393867">
  <ele>-12.09</ele>
  <time>2026-09-02T22:08:03Z</time>
  <course>0.0</course>
  <speed>0.0</speed>
  <fix>3d</fix>
</trkpt>
<trkpt lat="33.8103132" lon="-118.3938671">
  <ele>-12.549</ele>
  <time>2026-09-02T22:08:03Z</time>
  <course>186.38</course>
  <speed>0.022360679774997897</speed>
  <fix>3d</fix>
</trkpt>
<trkpt lat="33.8103132" lon="-118.3938671">
  <ele>-12.588</ele>
  <time>2026-09-02T22:08:03Z</time>
  <course>186.39</course>
  <speed>0.022360679774997897</speed>
  <fix>3d</fix>
</trkpt>
<trkpt lat="33.810313" lon="-118.393867">
  <ele>-12.09</ele>
  <time>2026-09-02T22:08:03Z</time>
  <course>0.0</course>
  <speed>0.0</speed>
  <fix>3d</fix>
</trkpt>
<trkpt lat="33.8103132" lon="-118.3938671">
  <ele>-12.611</ele>
  <time>2026-09-02T22:08:03Z</time>
  <course>186.39</course>
  <speed>0.022360679774997897</speed>
  <fix>3d</fix>
</trkpt>
<trkpt lat="33.8103132" lon="-118.3938671">
  <ele>-12.65</ele>
  <time>2026-09-02T22:08:03Z</time>
  <course>186.39</course>
  <speed>0.022360679774997897</speed>
  <fix>3d</fix>
</trkpt>
<trkpt lat="33.810313" lon="-118.393867">
  <ele>-12.21</ele>
  <time>2026-09-02T22:08:03Z</time>
  <course>0.0</course>
  <speed>0.0</speed>
  <fix>3d</fix>
</trkpt>
<trkpt lat="33.8103132" lon="-118.3938671">
  <ele>-12.652</ele>
  <time>2026-09-02T22:08:03Z</time>
  <course>186.39</course>
  <speed>0.022360679774997897</speed>
  <fix>3d</fix>
</trkpt>
<trkpt lat="33.8103132" lon="-118.3938671">
  <ele>-12.711</ele>
  <time>2026-09-02T22:08:03Z</time>
  <course>186.39</course>
  <speed>0.022360679774997897</speed>
  <fix>3d</fix>
</trkpt>
<trkpt lat="33.810313" lon="-118.393867">
  <ele>-12.21</ele>
  <time>2026-09-02T22:08:03Z</time>
  <course>0.0</course>
  <speed>0.0</speed>
  <fix>3d</fix>
</trkpt>
<trkpt lat="33.8103132" lon="-118.3938671">
  <ele>-12.713</ele>
  <time>2026-09-02T22:08:03Z</time>
  <course>186.39</course>
  <speed>0.022360679774997897</speed>
  <fix>3d</fix>
</trkpt>
<trkpt lat="33.8103132" lon="-118.3938671">
  <ele>-12.772</ele>
  <time>2026-09-02T22:08:03Z</time>
  <course>186.39</course>
  <speed>0.022360679774997897</speed>
  <fix>3d</fix>
</trkpt>
<trkpt lat="33.810313" lon="-118.393867">
  <ele>-12.33</ele>
  <time>2026-09-02T22:08:03Z</time>
  <course>0.0</course>
  <speed>0.0</speed>
  <fix>3d</fix>
</trkpt>
<trkpt lat="33.8103132" lon="-118.3938671">
  <ele>-12.793</ele>
  <time>2026-09-02T22:08:03Z</time>
  <course>186.39</course>
  <speed>0.022360679774997897</speed>
  <fix>3d</fix>
</trkpt>
<trkpt lat="33.8103132" lon="-118.3938671">
  <ele>-12.831</ele>
  <time>2026-09-02T22:08:03Z</time>
  <course>186.4</course>
  <speed>0.022360679774997897</speed>
  <fix>3d</fix>
</trkpt>
<trkpt lat="33.810313" lon="-118.393867">
  <ele>-12.33</ele>
  <time>2026-09-02T22:08:03Z</time>
  <course>0.0</course>
  <speed>0.0</speed>
  <fix>3d</fix>
</trkpt>
<trkpt lat="33.8103132" lon="-118.3938671">
  <ele>-12.85</ele>
  <time>2026-09-02T22:08:03Z</time>
  <course>186.4</course>
  <speed>0.022360679774997897</speed>
  <fix>3d</fix>
</trkpt>
<trkpt lat="33.8103132" lon="-118.3938671">
  <ele>-12.891</ele>
  <time>2026-09-02T22:08:03Z</time>
  <course>186.4</course>
  <speed>0.022360679774997897</speed>
  <fix>3d</fix>
</trkpt>
<trkpt lat="33.810313" lon="-118.393867">
  <ele>-12.45</ele>
  <time>2026-09-02T22:08:03Z</time>
  <course>0.0</course>
  <speed>0.0</speed>
  <fix>3d</fix>
</trkpt>
<trkpt lat="33.8103132" lon="-118.3938671">
  <ele>-12.911</ele>
  <time>2026-09-02T22:08:03Z</time>
  <course>186.4</course>
  <speed>0.022360679774997897</speed>
  <fix>3d</fix>
</trkpt>
<trkpt lat="33.8103132" lon="-118.3938671">
  <ele>-12.95</ele>
  <time>2026-09-02T22:08:03Z</time>
  <course>186.4</course>
  <speed>0.022360679774997897</speed>
  <fix>3d</fix>
</trkpt>
<trkpt lat="33.810313" lon="-118.393867">
  <ele>-12.45</ele>
  <time>2026-09-02T22:08:03Z</time>
  <course>0.0</course>
  <speed>0.0</speed>
  <fix>3d</fix>
</trkpt>
<trkpt lat="33.8103132" lon="-118.3938671">
  <ele>-12.951</ele>
  <time>2026-09-02T22:08:03Z</time>
  <course>186.4</course>
  <speed>0.022360679774997897</speed>
  <fix>3d</fix>
</trkpt>
<trkpt lat="33.8103132" lon="-118.3938671">
  <ele>-13.01</ele>
  <time>2026-09-02T22:08:03Z</time>
  <course>186.4</course>
  <speed>0.022360679774997897</speed>
  <fix>3d</fix>
</trkpt>
<trkpt lat="33.810313" lon="-118.393867">
  <ele>-12.57</ele>
  <time>2026-09-02T22:08:03Z</time>
  <course>0.0</course>
  <speed>0.0</speed>
  <fix>3d</fix>
</trkpt>
<trkpt lat="33.8103132" lon="-118.3938671">
  <ele>-13.011</ele>
  <time>2026-09-02T22:08:03Z</time>
  <course>186.4</course>
  <speed>0.022360679774997897</speed>
  <fix>3d</fix>
</trkpt>
<trkpt lat="33.8103132" lon="-118.3938671">
  <ele>-13.07</ele>
  <time>2026-09-02T22:08:03Z</time>
  <course>186.4</course>
  <speed>0.022360679774997897</speed>
  <fix>3d</fix>
</trkpt>
<trkpt lat="33.810313" lon="-118.393867">
  <ele>-12.57</ele>
  <time>2026-09-02T22:08:03Z</time>
  <course>0.0</course>
  <speed>0.0</speed>
  <fix>3d</fix>
</trkpt>
<trkpt lat="33.8103132" lon="-118.3938671">
  <ele>-13.092</ele>
  <time>2026-09-02T22:08:03Z</time>
  <course>186.41</course>
  <speed>0.022360679774997897</speed>
  <fix>3d</fix>
</trkpt>
<trkpt lat="33.8103132" lon="-118.3938671">
  <ele>-13.132</ele>
  <time>2026-09-02T22:08:03Z</time>
  <course>186.41</course>
  <speed>0.022360679774997897</speed>
  <fix>3d</fix>
</trkpt>
<trkpt lat="33.810313" lon="-118.393867">
  <ele>-12.69</ele>
  <time>2026-09-02T22:08:03Z</time>
  <course>0.0</course>
  <speed>0.0</speed>
  <fix>3d</fix>
</trkpt>
<trkpt lat="33.8103132" lon="-118.3938671">
  <ele>-13.133</ele>
  <time>2026-09-02T22:08:03Z</time>
  <course>186.41</course>
  <speed>0.022360679774997897</speed>
  <fix>3d</fix>
</trkpt>
<trkpt lat="33.8103132" lon="-118.3938671">
  <ele>-13.194</ele>
  <time>2026-09-02T22:08:03Z</time>
  <course>186.41</course>
  <speed>0.022360679774997897</speed>
  <fix>3d</fix>
</trkpt>
<trkpt lat="33.810313" lon="-118.393867">
  <ele>-12.69</ele>
  <time>2026-09-02T22:08:03Z</time>
  <course>0.0</course>
  <speed>0.0</speed>
  <fix>3d</fix>
</trkpt>
<trkpt lat="33.8103132" lon="-118.3938671">
  <ele>-13.195</ele>
  <time>2026-09-02T22:08:03Z</time>
  <course>186.41</course>
  <speed>0.022360679774997897</speed>
  <fix>3d</fix>
</trkpt>
<trkpt lat="33.8103132" lon="-118.3938671">
  <ele>-13.256</ele>
  <time>2026-09-02T22:08:03Z</time>
  <course>186.41</course>
  <speed>0.022360679774997897</speed>
  <fix>3d</fix>
</trkpt>
<trkpt lat="33.810313" lon="-118.393867">
  <ele>-12.8</ele>
  <time>2026-09-02T22:08:03Z</time>
  <course>0.0</course>
  <speed>0.0</speed>
  <fix>3d</fix>
</trkpt>
<trkpt lat="33.8103132" lon="-118.3938671">
  <ele>-13.257</ele>
  <time>2026-09-02T22:08:03Z</time>
  <course>186.41</course>
  <speed>0.022360679774997897</speed>
  <fix>3d</fix>
</trkpt>
<trkpt lat="33.8103132" lon="-118.3938671">
  <ele>-13.318</ele>
  <time>2026-09-02T22:08:03Z</time>
  <course>186.41</course>
  <speed>0.022360679774997897</speed>
  <fix>3d</fix>
</trkpt>
<trkpt lat="33.810313" lon="-118.393867">
  <ele>-12.8</ele>
  <time>2026-09-02T22:08:03Z</time>
  <course>0.0</course>
  <speed>0.0</speed>
  <fix>3d</fix>
</trkpt>
<trkpt lat="33.8103132" lon="-118.3938671">
  <ele>-13.342</ele>
  <time>2026-09-02T22:08:03Z</time>
  <course>186.41</course>
  <speed>0.022360679774997897</speed>
  <fix>3d</fix>
</trkpt>
<trkpt lat="33.8103132" lon="-118.3938671">
  <ele>-13.381</ele>
  <time>2026-09-02T22:08:03Z</time>
  <course>186.41</course>
  <speed>0.022360679774997897</speed>
  <fix>3d</fix>
</trkpt>
<trkpt lat="33.810313" lon="-118.393867">
  <ele>-12.93</ele>
  <time>2026-09-02T22:08:03Z</time>
  <course>0.0</course>
  <speed>0.0</speed>
  <fix>3d</fix>
</trkpt>
<trkpt lat="33.8103132" lon="-118.3938671">
  <ele>-13.382</ele>
  <time>2026-09-02T22:08:03Z</time>
  <course>186.41</course>
  <speed>0.022360679774997897</speed>
  <fix>3d</fix>
</trkpt>
<trkpt lat="33.8103132" lon="-118.3938671">
  <ele>-13.442</ele>
  <time>2026-09-02T22:08:03Z</time>
  <course>186.42</course>
  <speed>0.022360679774997897</speed>
  <fix>3d</fix>
</trkpt>
<trkpt lat="33.810313" lon="-118.393867">
  <ele>-12.93</ele>
  <time>2026-09-02T22:08:03Z</time>
  <course>0.0</course>
  <speed>0.0</speed>
  <fix>3d</fix>
</trkpt>
<trkpt lat="33.8103132" lon="-118.3938671">
  <ele>-13.463</ele>
  <time>2026-09-02T22:08:03Z</time>
  <course>186.42</course>
  <speed>0.022360679774997897</speed>
  <fix>3d</fix>
</trkpt>
<trkpt lat="33.8103132" lon="-118.3938671">
  <ele>-13.502</ele>
  <time>2026-09-02T22:08:03Z</time>
  <course>186.42</course>
  <speed>0.022360679774997897</speed>
  <fix>3d</fix>
</trkpt>
<trkpt lat="33.810313" lon="-118.393867">
  <ele>-13.04</ele>
  <time>2026-09-02T22:08:03Z</time>
  <course>0.0</course>
  <speed>0.0</speed>
  <fix>3d</fix>
</trkpt>
<trkpt lat="33.8103132" lon="-118.3938671">
  <ele>-13.525</ele>
  <time>2026-09-02T22:08:03Z</time>
  <course>186.42</course>
  <speed>0.022360679774997897</speed>
  <fix>3d</fix>
</trkpt>
<trkpt lat="33.8103132" lon="-118.3938671">
  <ele>-13.562</ele>
  <time>2026-09-02T22:08:03Z</time>
  <course>186.42</course>
  <speed>0.022360679774997897</speed>
  <fix>3d</fix>
</trkpt>
<trkpt lat="33.810313" lon="-118.393867">
  <ele>-13.04</ele>
  <time>2026-09-02T22:08:03Z</time>
  <course>0.0</course>
  <speed>0.0</speed>
  <fix>3d</fix>
</trkpt>
<trkpt lat="33.8103132" lon="-118.3938671">
  <ele>-13.564</ele>
  <time>2026-09-02T22:08:03Z</time>
  <course>186.42</course>
  <speed>0.022360679774997897</speed>
  <fix>3d</fix>
</trkpt>
<trkpt lat="33.8103132" lon="-118.3938671">
  <ele>-13.622</ele>
  <time>2026-09-02T22:08:03Z</time>
  <course>186.42</course>
  <speed>0.022360679774997897</speed>
  <fix>3d</fix>
</trkpt>
<trkpt lat="33.810313" lon="-118.393867">
  <ele>-13.17</ele>
  <time>2026-09-02T22:08:03Z</time>
  <course>0.0</course>
  <speed>0.0</speed>
  <fix>3d</fix>
</trkpt>
<trkpt lat="33.8103132" lon="-118.3938671">
  <ele>-13.624</ele>
  <time>2026-09-02T22:08:03Z</time>
  <course>186.42</course>
  <speed>0.022360679774997897</speed>
  <fix>3d</fix>
</trkpt>
<trkpt lat="33.8103132" lon="-118.3938671">
  <ele>-13.683</ele>
  <time>2026-09-02T22:08:03Z</time>
  <course>186.42</course>
  <speed>0.022360679774997897</speed>
  <fix>3d</fix>
</trkpt>
<trkpt lat="33.810313" lon="-118.393867">
  <ele>-13.17</ele>
  <time>2026-09-02T22:08:03Z</time>
  <course>0.0</course>
  <speed>0.0</speed>
  <fix>3d</fix>
</trkpt>
<trkpt lat="33.8103132" lon="-118.3938671">
  <ele>-13.706</ele>
  <time>2026-09-02T22:08:03Z</time>
  <course>186.42</course>
  <speed>0.022360679774997897</speed>
  <fix>3d</fix>
</trkpt>
<trkpt lat="33.8103132" lon="-118.3938671">
  <ele>-13.744</ele>
  <time>2026-09-02T22:08:03Z</time>
  <course>186.42</course>
  <speed>0.022360679774997897</speed>
  <fix>3d</fix>
</trkpt>
<trkpt lat="33.810313" lon="-118.393867">
  <ele>-13.29</ele>
  <time>2026-09-02T22:08:03Z</time>
  <course>0.0</course>
  <speed>0.0</speed>
  <fix>3d</fix>
</trkpt>
<trkpt lat="33.8103132" lon="-118.3938671">
  <ele>-13.766</ele>
  <time>2026-09-02T22:08:03Z</time>
  <course>186.42</course>
  <speed>0.022360679774997897</speed>
  <fix>3d</fix>
</trkpt>
<trkpt lat="33.8103132" lon="-118.3938671">
  <ele>-13.806</ele>
  <time>2026-09-02T22:08:03Z</time>
  <course>186.43</course>
  <speed>0.022360679774997897</speed>
  <fix>3d</fix>
</trkpt>
<trkpt lat="33.810313" lon="-118.393867">
  <ele>-13.29</ele>
  <time>2026-09-02T22:08:03Z</time>
  <course>0.0</course>
  <speed>0.0</speed>
  <fix>3d</fix>
</trkpt>
<trkpt lat="33.8103132" lon="-118.3938671">
  <ele>-13.829</ele>
  <time>2026-09-02T22:08:03Z</time>
  <course>186.43</course>
  <speed>0.022360679774997897</speed>
  <fix>3d</fix>
</trkpt>
<trkpt lat="33.8103132" lon="-118.3938671">
  <ele>-13.868</ele>
  <time>2026-09-02T22:08:03Z</time>
  <course>186.43</course>
  <speed>0.022360679774997897</speed>
  <fix>3d</fix>
</trkpt>
<trkpt lat="33.810313" lon="-118.393867">
  <ele>-13.42</ele>
  <time>2026-09-02T22:08:03Z</time>
  <course>0.0</course>
  <speed>0.0</speed>
  <fix>3d</fix>
</trkpt>
<trkpt lat="33.8103132" lon="-118.3938671">
  <ele>-13.869</ele>
  <time>2026-09-02T22:08:03Z</time>
  <course>186.43</course>
  <speed>0.022360679774997897</speed>
  <fix>3d</fix>
</trkpt>
<trkpt lat="33.8103132" lon="-118.3938671">
  <ele>-13.929</ele>
  <time>2026-09-02T22:08:03Z</time>
  <course>186.43</course>
  <speed>0.022360679774997897</speed>
  <fix>3d</fix>
</trkpt>
<trkpt lat="33.810313" lon="-118.393867">
  <ele>-13.42</ele>
  <time>2026-09-02T22:08:03Z</time>
  <course>0.0</course>
  <speed>0.0</speed>
  <fix>3d</fix>
</trkpt>
<trkpt lat="33.8103132" lon="-118.3938671">
  <ele>-13.948</ele>
  <time>2026-09-02T22:08:03Z</time>
  <course>186.43</course>
  <speed>0.022360679774997897</speed>
  <fix>3d</fix>
</trkpt>
<trkpt lat="33.8103132" lon="-118.3938671">
  <ele>-13.989</ele>
  <time>2026-09-02T22:08:03Z</time>
  <course>186.43</course>
  <speed>0.022360679774997897</speed>
  <fix>3d</fix>
</trkpt>
<trkpt lat="33.810313" lon="-118.393867">
  <ele>-13.54</ele>
  <time>2026-09-02T22:08:03Z</time>
  <course>0.0</course>
  <speed>0.0</speed>
  <fix>3d</fix>
</trkpt>
<trkpt lat="33.8103132" lon="-118.3938671">
  <ele>-13.991</ele>
  <time>2026-09-02T22:08:03Z</time>
  <course>186.43</course>
  <speed>0.022360679774997897</speed>
  <fix>3d</fix>
</trkpt>
<trkpt lat="33.8103132" lon="-118.3938671">
  <ele>-14.05</ele>
  <time>2026-09-02T22:08:03Z</time>
  <course>186.43</course>
  <speed>0.022360679774997897</speed>
  <fix>3d</fix>
</trkpt>
<trkpt lat="33.810313" lon="-118.393867">
  <ele>-13.54</ele>
  <time>2026-09-02T22:08:03Z</time>
  <course>0.0</course>
  <speed>0.0</speed>
  <fix>3d</fix>
</trkpt>
<trkpt lat="33.8103132" lon="-118.3938671">
  <ele>-14.071</ele>
  <time>2026-09-02T22:08:03Z</time>
  <course>186.43</course>
  <speed>0.022360679774997897</speed>
  <fix>3d</fix>
</trkpt>
<trkpt lat="33.8103132" lon="-118.3938671">
  <ele>-14.111</ele>
  <time>2026-09-02T22:08:03Z</time>
  <course>186.43</course>
  <speed>0.022360679774997897</speed>
  <fix>3d</fix>
</trkpt>
<trkpt lat="33.810313" lon="-118.393867">
  <ele>-13.66</ele>
  <time>2026-09-02T22:08:03Z</time>
  <course>0.0</course>
  <speed>0.0</speed>
  <fix>3d</fix>
</trkpt>
<trkpt lat="33.8103132" lon="-118.3938671">
  <ele>-14.136</ele>
  <time>2026-09-02T22:08:03Z</time>
  <course>186.43</course>
  <speed>0.022360679774997897</speed>
  <fix>3d</fix>
</trkpt>
<trkpt lat="33.8103132" lon="-118.3938671">
  <ele>-14.173</ele>
  <time>2026-09-02T22:08:03Z</time>
  <course>186.43</course>
  <speed>0.022360679774997897</speed>
  <fix>3d</fix>
</trkpt>
<trkpt lat="33.810313" lon="-118.393867">
  <ele>-13.66</ele>
  <time>2026-09-02T22:08:03Z</time>
  <course>0.0</course>
  <speed>0.0</speed>
  <fix>3d</fix>
</trkpt>
<trkpt lat="33.8103132" lon="-118.3938671">
  <ele>-14.174</ele>
  <time>2026-09-02T22:08:03Z</time>
  <course>186.43</course>
  <speed>0.022360679774997897</speed>
  <fix>3d</fix>
</trkpt>
<trkpt lat="33.8103132" lon="-118.3938671">
  <ele>-14.235</ele>
  <time>2026-09-02T22:08:03Z</time>
  <course>186.43</course>
  <speed>0.022360679774997897</speed>
  <fix>3d</fix>
</trkpt>
<trkpt lat="33.810313" lon="-118.393867">
  <ele>-13.78</ele>
  <time>2026-09-02T22:08:03Z</time>
  <course>0.0</course>
  <speed>0.0</speed>
  <fix>3d</fix>
</trkpt>
<trkpt lat="33.8103132" lon="-118.3938671">
  <ele>-14.237</ele>
  <time>2026-09-02T22:08:03Z</time>
  <course>186.43</course>
  <speed>0.022360679774997897</speed>
  <fix>3d</fix>
</trkpt>
<trkpt lat="33.8103132" lon="-118.3938671">
  <ele>-14.297</ele>
  <time>2026-09-02T22:08:03Z</time>
  <course>186.43</course>
  <speed>0.022360679774997897</speed>
  <fix>3d</fix>
</trkpt>
<trkpt lat="33.810313" lon="-118.393867">
  <ele>-13.78</ele>
  <time>2026-09-02T22:08:03Z</time>
  <course>0.0</course>
  <speed>0.0</speed>
  <fix>3d</fix>
</trkpt>
<trkpt lat="33.8103132" lon="-118.3938671">
  <ele>-14.319</ele>
  <time>2026-09-02T22:08:03Z</time>
  <course>186.43</course>
  <speed>0.022360679774997897</speed>
  <fix>3d</fix>
</trkpt>
<trkpt lat="33.8103132" lon="-118.3938671">
  <ele>-14.36</ele>
  <time>2026-09-02T22:08:03Z</time>
  <course>186.43</course>
  <speed>0.022360679774997897</speed>
  <fix>3d</fix>
</trkpt>
<trkpt lat="33.810313" lon="-118.393867">
  <ele>-13.9</ele>
  <time>2026-09-02T22:08:03Z</time>
  <course>0.0</course>
  <speed>0.0</speed>
  <fix>3d</fix>
</trkpt>
<trkpt lat="33.8103132" lon="-118.3938671">
  <ele>-14.383</ele>
  <time>2026-09-02T22:08:03Z</time>
  <course>186.43</course>
  <speed>0.022360679774997897</speed>
  <fix>3d</fix>
</trkpt>
<trkpt lat="33.8103132" lon="-118.3938671">
  <ele>-14.423</ele>
  <time>2026-09-02T22:08:03Z</time>
  <course>186.43</course>
  <speed>0.022360679774997897</speed>
  <fix>3d</fix>
</trkpt>
<trkpt lat="33.810313" lon="-118.393867">
  <ele>-13.9</ele>
  <time>2026-09-02T22:08:03Z</time>
  <course>0.0</course>
  <speed>0.0</speed>
  <fix>3d</fix>
</trkpt>
<trkpt lat="33.8103132" lon="-118.3938671">
  <ele>-14.446</ele>
  <time>2026-09-02T22:08:03Z</time>
  <course>186.44</course>
  <speed>0.022360679774997897</speed>
  <fix>3d</fix>
</trkpt>
<trkpt lat="33.8103132" lon="-118.3938671">
  <ele>-14.487</ele>
  <time>2026-09-02T22:08:03Z</time>
  <course>186.44</course>
  <speed>0.022360679774997897</speed>
  <fix>3d</fix>
</trkpt>
<trkpt lat="33.810313" lon="-118.393867">
  <ele>-14.02</ele>
  <time>2026-09-02T22:08:03Z</time>
  <course>0.0</course>
  <speed>0.0</speed>
  <fix>3d</fix>
</trkpt>
<trkpt lat="33.8103132" lon="-118.3938671">
  <ele>-14.488</ele>
  <time>2026-09-02T22:08:03Z</time>
  <course>186.44</course>
  <speed>0.022360679774997897</speed>
  <fix>3d</fix>
</trkpt>
<trkpt lat="33.8103132" lon="-118.3938671">
  <ele>-14.549</ele>
  <time>2026-09-02T22:08:03Z</time>
  <course>186.44</course>
  <speed>0.022360679774997897</speed>
  <fix>3d</fix>
</trkpt>
<trkpt lat="33.810313" lon="-118.393867">
  <ele>-14.02</ele>
  <time>2026-09-02T22:08:03Z</time>
  <course>0.0</course>
  <speed>0.0</speed>
  <fix>3d</fix>
</trkpt>
<trkpt lat="33.8103132" lon="-118.3938671">
  <ele>-14.571</ele>
  <time>2026-09-02T22:08:03Z</time>
  <course>186.44</course>
  <speed>0.022360679774997897</speed>
  <fix>3d</fix>
</trkpt>
<trkpt lat="33.8103132" lon="-118.3938671">
  <ele>-14.612</ele>
  <time>2026-09-02T22:08:03Z</time>
  <course>186.44</course>
  <speed>0.022360679774997897</speed>
  <fix>3d</fix>
</trkpt>
<trkpt lat="33.810313" lon="-118.393867">
  <ele>-14.13</ele>
  <time>2026-09-02T22:08:03Z</time>
  <course>0.0</course>
  <speed>0.0</speed>
  <fix>3d</fix>
</trkpt>
<trkpt lat="33.8103132" lon="-118.3938671">
  <ele>-14.633</ele>
  <time>2026-09-02T22:08:03Z</time>
  <course>186.44</course>
  <speed>0.022360679774997897</speed>
  <fix>3d</fix>
</trkpt>
<trkpt lat="33.8103132" lon="-118.3938671">
  <ele>-14.673</ele>
  <time>2026-09-02T22:08:03Z</time>
  <course>186.44</course>
  <speed>0.022360679774997897</speed>
  <fix>3d</fix>
</trkpt>
<trkpt lat="33.810313" lon="-118.393867">
  <ele>-14.13</ele>
  <time>2026-09-02T22:08:03Z</time>
  <course>0.0</course>
  <speed>0.0</speed>
  <fix>3d</fix>
</trkpt>
<trkpt lat="33.8103132" lon="-118.3938671">
  <ele>-14.677</ele>
  <time>2026-09-02T22:08:03Z</time>
  <course>186.44</course>
  <speed>0.022360679774997897</speed>
  <fix>3d</fix>
</trkpt>
<trkpt lat="33.8103132" lon="-118.3938671">
  <ele>-14.735</ele>
  <time>2026-09-02T22:08:03Z</time>
  <course>186.44</course>
  <speed>0.022360679774997897</speed>
  <fix>3d</fix>
</trkpt>
<trkpt lat="33.810313" lon="-118.393867">
  <ele>-14.26</ele>
  <time>2026-09-02T22:08:03Z</time>
  <course>0.0</course>
  <speed>0.0</speed>
  <fix>3d</fix>
</trkpt>
<trkpt lat="33.8103132" lon="-118.3938671">
  <ele>-14.738</ele>
  <time>2026-09-02T22:08:03Z</time>
  <course>186.44</course>
  <speed>0.022360679774997897</speed>
  <fix>3d</fix>
</trkpt>
<trkpt lat="33.8103132" lon="-118.3938671">
  <ele>-14.796</ele>
  <time>2026-09-02T22:08:03Z</time>
  <course>186.44</course>
  <speed>0.022360679774997897</speed>
  <fix>3d</fix>
</trkpt>
<trkpt lat="33.810313" lon="-118.393867">
  <ele>-14.26</ele>
  <time>2026-09-02T22:08:03Z</time>
  <course>0.0</course>
  <speed>0.0</speed>
  <fix>3d</fix>
</trkpt>
<trkpt lat="33.8103132" lon="-118.3938671">
  <ele>-14.798</ele>
  <time>2026-09-02T22:08:03Z</time>
  <course>186.44</course>
  <speed>0.022360679774997897</speed>
  <fix>3d</fix>
</trkpt>
<trkpt lat="33.8103132" lon="-118.3938671">
  <ele>-14.858</ele>
  <time>2026-09-02T22:08:03Z</time>
  <course>186.44</course>
  <speed>0.022360679774997897</speed>
  <fix>3d</fix>
</trkpt>
<trkpt lat="33.810313" lon="-118.393867">
  <ele>-14.37</ele>
  <time>2026-09-02T22:08:03Z</time>
  <course>0.0</course>
  <speed>0.0</speed>
  <fix>3d</fix>
</trkpt>
<trkpt lat="33.8103132" lon="-118.3938671">
  <ele>-14.859</ele>
  <time>2026-09-02T22:08:03Z</time>
  <course>186.44</course>
  <speed>0.022360679774997897</speed>
  <fix>3d</fix>
</trkpt>
<trkpt lat="33.8103132" lon="-118.3938671">
  <ele>-14.919</ele>
  <time>2026-09-02T22:08:03Z</time>
  <course>186.44</course>
  <speed>0.022360679774997897</speed>
  <fix>3d</fix>
</trkpt>
<trkpt lat="33.810313" lon="-118.393867">
  <ele>-14.37</ele>
  <time>2026-09-02T22:08:03Z</time>
  <course>0.0</course>
  <speed>0.0</speed>
  <fix>3d</fix>
</trkpt>
<trkpt lat="33.8103132" lon="-118.3938671">
  <ele>-14.94</ele>
  <time>2026-09-02T22:08:03Z</time>
  <course>186.44</course>
  <speed>0.022360679774997897</speed>
  <fix>3d</fix>
</trkpt>
<trkpt lat="33.8103132" lon="-118.3938671">
  <ele>-14.979</ele>
  <time>2026-09-02T22:08:03Z</time>
  <course>186.44</course>
  <speed>0.022360679774997897</speed>
  <fix>3d</fix>
</trkpt>
<trkpt lat="33.810313" lon="-118.393867">
  <ele>-14.5</ele>
  <time>2026-09-02T22:08:03Z</time>
  <course>0.0</course>
  <speed>0.0</speed>
  <fix>3d</fix>
</trkpt>
<trkpt lat="33.8103132" lon="-118.3938671">
  <ele>-15.0</ele>
  <time>2026-09-02T22:08:03Z</time>
  <course>186.44</course>
  <speed>0.022360679774997897</speed>
  <fix>3d</fix>
</trkpt>
<trkpt lat="33.8103132" lon="-118.3938671">
  <ele>-15.04</ele>
  <time>2026-09-02T22:08:03Z</time>
  <course>186.44</course>
  <speed>0.022360679774997897</speed>
  <fix>3d</fix>
</trkpt>
<trkpt lat="33.810313" lon="-118.393867">
  <ele>-14.5</ele>
  <time>2026-09-02T22:08:03Z</time>
  <course>0.0</course>
  <speed>0.0</speed>
  <fix>3d</fix>
</trkpt>
<trkpt lat="33.8103132" lon="-118.3938671">
  <ele>-15.06</ele>
  <time>2026-09-02T22:08:03Z</time>
  <course>186.44</course>
  <speed>0.022360679774997897</speed>
  <fix>3d</fix>
</trkpt>
<trkpt lat="33.8103132" lon="-118.3938671">
  <ele>-15.1</ele>
  <time>2026-09-02T22:08:03Z</time>
  <course>186.44</course>
  <speed>0.022360679774997897</speed>
  <fix>3d</fix>
</trkpt>
<trkpt lat="33.810313" lon="-118.393867">
  <ele>-14.62</ele>
  <time>2026-09-02T22:08:03Z</time>
  <course>0.0</course>
  <speed>0.0</speed>
  <fix>3d</fix>
</trkpt>
<trkpt lat="33.8103132" lon="-118.3938671">
  <ele>-15.102</ele>
  <time>2026-09-02T22:08:03Z</time>
  <course>186.44</course>
  <speed>0.022360679774997897</speed>
  <fix>3d</fix>
</trkpt>
<trkpt lat="33.8103132" lon="-118.3938671">
  <ele>-15.162</ele>
  <time>2026-09-02T22:08:03Z</time>
  <course>186.44</course>
  <speed>0.022360679774997897</speed>
  <fix>3d</fix>
</trkpt>
<trkpt lat="33.810313" lon="-118.393867">
  <ele>-14.62</ele>
  <time>2026-09-02T22:08:03Z</time>
  <course>0.0</course>
  <speed>0.0</speed>
  <fix>3d</fix>
</trkpt>
<trkpt lat="33.8103132" lon="-118.3938671">
  <ele>-15.193</ele>
  <time>2026-09-02T22:08:03Z</time>
  <course>186.44</course>
  <speed>0.022360679774997897</speed>
  <fix>3d</fix>
</trkpt>
<trkpt lat="33.8103132" lon="-118.3938671">
  <ele>-15.224</ele>
  <time>2026-09-02T22:08:03Z</time>
  <course>186.44</course>
  <speed>0.022360679774997897</speed>
  <fix>3d</fix>
</trkpt>
<trkpt lat="33.810313" lon="-118.393867">
  <ele>-14.74</ele>
  <time>2026-09-02T22:08:03Z</time>
  <course>0.0</course>
  <speed>0.0</speed>
  <fix>3d</fix>
</trkpt>
<trkpt lat="33.8103132" lon="-118.3938671">
  <ele>-15.253</ele>
  <time>2026-09-02T22:08:03Z</time>
  <course>186.44</course>
  <speed>0.022360679774997897</speed>
  <fix>3d</fix>
</trkpt>
<trkpt lat="33.8103132" lon="-118.3938671">
  <ele>-15.286</ele>
  <time>2026-09-02T22:08:03Z</time>
  <course>186.44</course>
  <speed>0.022360679774997897</speed>
  <fix>3d</fix>
</trkpt>
<trkpt lat="33.810313" lon="-118.393867">
  <ele>-14.74</ele>
  <time>2026-09-02T22:08:03Z</time>
  <course>0.0</course>
  <speed>0.0</speed>
  <fix>3d</fix>
</trkpt>
<trkpt lat="33.8103132" lon="-118.3938671">
  <ele>-15.287</ele>
  <time>2026-09-02T22:08:03Z</time>
  <course>186.44</course>
  <speed>0.022360679774997897</speed>
  <fix>3d</fix>
</trkpt>
<trkpt lat="33.8103132" lon="-118.3938671">
  <ele>-15.348</ele>
  <time>2026-09-02T22:08:03Z</time>
  <course>186.44</course>
  <speed>0.022360679774997897</speed>
  <fix>3d</fix>
</trkpt>
<trkpt lat="33.810313" lon="-118.393867">
  <ele>-14.86</ele>
  <time>2026-09-02T22:08:03Z</time>
  <course>0.0</course>
  <speed>0.0</speed>
  <fix>3d</fix>
</trkpt>
<trkpt lat="33.8103132" lon="-118.3938671">
  <ele>-15.369</ele>
  <time>2026-09-02T22:08:03Z</time>
  <course>186.44</course>
  <speed>0.022360679774997897</speed>
  <fix>3d</fix>
</trkpt>
<trkpt lat="33.8103132" lon="-118.3938671">
  <ele>-15.409</ele>
  <time>2026-09-02T22:08:03Z</time>
  <course>186.44</course>
  <speed>0.022360679774997897</speed>
  <fix>3d</fix>
</trkpt>
<trkpt lat="33.810313" lon="-118.393867">
  <ele>-14.86</ele>
  <time>2026-09-02T22:08:03Z</time>
  <course>0.0</course>
  <speed>0.0</speed>
  <fix>3d</fix>
</trkpt>
<trkpt lat="33.8103132" lon="-118.3938671">
  <ele>-15.412</ele>
  <time>2026-09-02T22:08:03Z</time>
  <course>186.44</course>
  <speed>0.022360679774997897</speed>
  <fix>3d</fix>
</trkpt>
<trkpt lat="33.8103132" lon="-118.3938671">
  <ele>-15.47</ele>
  <time>2026-09-02T22:08:03Z</time>
  <course>186.44</course>
  <speed>0.022360679774997897</speed>
  <fix>3d</fix>
</trkpt>
<trkpt lat="33.810313" lon="-118.393867">
  <ele>-14.98</ele>
  <time>2026-09-02T22:08:03Z</time>
  <course>0.0</course>
  <speed>0.0</speed>
  <fix>3d</fix>
</trkpt>
<trkpt lat="33.8103132" lon="-118.3938671">
  <ele>-15.472</ele>
  <time>2026-09-02T22:08:03Z</time>
  <course>186.44</course>
  <speed>0.022360679774997897</speed>
  <fix>3d</fix>
</trkpt>
<trkpt lat="33.8103132" lon="-118.3938671">
  <ele>-15.532</ele>
  <time>2026-09-02T22:08:03Z</time>
  <course>186.44</course>
  <speed>0.022360679774997897</speed>
  <fix>3d</fix>
</trkpt>
<trkpt lat="33.810313" lon="-118.393867">
  <ele>-14.98</ele>
  <time>2026-09-02T22:08:03Z</time>
  <course>0.0</course>
  <speed>0.0</speed>
  <fix>3d</fix>
</trkpt>
<trkpt lat="33.8103132" lon="-118.3938671">
  <ele>-15.554</ele>
  <time>2026-09-02T22:08:03Z</time>
  <course>186.44</course>
  <speed>0.022360679774997897</speed>
  <fix>3d</fix>
</trkpt>
<trkpt lat="33.8103132" lon="-118.3938671">
  <ele>-15.595</ele>
  <time>2026-09-02T22:08:03Z</time>
  <course>186.43</course>
  <speed>0.022360679774997897</speed>
  <fix>3d</fix>
</trkpt>
<trkpt lat="33.810313" lon="-118.393867">
  <ele>-15.11</ele>
  <time>2026-09-02T22:08:03Z</time>
  <course>0.0</course>
  <speed>0.0</speed>
  <fix>3d</fix>
</trkpt>
<trkpt lat="33.8103132" lon="-118.3938671">
  <ele>-15.617</ele>
  <time>2026-09-02T22:08:03Z</time>
  <course>186.43</course>
  <speed>0.022360679774997897</speed>
  <fix>3d</fix>
</trkpt>
<trkpt lat="33.8103132" lon="-118.3938671">
  <ele>-15.657</ele>
  <time>2026-09-02T22:08:03Z</time>
  <course>186.43</course>
  <speed>0.022360679774997897</speed>
  <fix>3d</fix>
</trkpt>
<trkpt lat="33.810313" lon="-118.393867">
  <ele>-15.11</ele>
  <time>2026-09-02T22:08:03Z</time>
  <course>0.0</course>
  <speed>0.0</speed>
  <fix>3d</fix>
</trkpt>
<trkpt lat="33.8103132" lon="-118.3938671">
  <ele>-15.679</ele>
  <time>2026-09-02T22:08:03Z</time>
  <course>186.43</course>
  <speed>0.022360679774997897</speed>
  <fix>3d</fix>
</trkpt>
<trkpt lat="33.8103132" lon="-118.3938671">
  <ele>-15.719</ele>
  <time>2026-09-02T22:08:03Z</time>
  <course>186.43</course>
  <speed>0.022360679774997897</speed>
  <fix>3d</fix>
</trkpt>
<trkpt lat="33.810313" lon="-118.393867">
  <ele>-15.23</ele>
  <time>2026-09-02T22:08:03Z</time>
  <course>0.0</course>
  <speed>0.0</speed>
  <fix>3d</fix>
</trkpt>
<trkpt lat="33.8103132" lon="-118.3938671">
  <ele>-15.72</ele>
  <time>2026-09-02T22:08:03Z</time>
  <course>186.43</course>
  <speed>0.022360679774997897</speed>
  <fix>3d</fix>
</trkpt>
<trkpt lat="33.8103132" lon="-118.3938671">
  <ele>-15.781</ele>
  <time>2026-09-02T22:08:03Z</time>
  <course>186.43</course>
  <speed>0.022360679774997897</speed>
  <fix>3d</fix>
</trkpt>
<trkpt lat="33.810313" lon="-118.393867">
  <ele>-15.23</ele>
  <time>2026-09-02T22:08:03Z</time>
  <course>0.0</course>
  <speed>0.0</speed>
  <fix>3d</fix>
</trkpt>
<trkpt lat="33.8103132" lon="-118.3938671">
  <ele>-15.801</ele>
  <time>2026-09-02T22:08:03Z</time>
  <course>186.43</course>
  <speed>0.022360679774997897</speed>
  <fix>3d</fix>
</trkpt>
<trkpt lat="33.8103132" lon="-118.3938671">
  <ele>-15.843</ele>
  <time>2026-09-02T22:08:03Z</time>
  <course>186.43</course>
  <speed>0.022360679774997897</speed>
  <fix>3d</fix>
</trkpt>
<trkpt lat="33.810313" lon="-118.393867">
  <ele>-15.35</ele>
  <time>2026-09-02T22:08:03Z</time>
  <course>0.0</course>
  <speed>0.0</speed>
  <fix>3d</fix>
</trkpt>
<trkpt lat="33.8103132" lon="-118.3938671">
  <ele>-15.865</ele>
  <time>2026-09-02T22:08:03Z</time>
  <course>186.43</course>
  <speed>0.022360679774997897</speed>
  <fix>3d</fix>
</trkpt>
<trkpt lat="33.8103132" lon="-118.3938671">
  <ele>-15.905</ele>
  <time>2026-09-02T22:08:03Z</time>
  <course>186.43</course>
  <speed>0.022360679774997897</speed>
  <fix>3d</fix>
</trkpt>
<trkpt lat="33.810313" lon="-118.393867">
  <ele>-15.35</ele>
  <time>2026-09-02T22:08:03Z</time>
  <course>0.0</course>
  <speed>0.0</speed>
  <fix>3d</fix>
</trkpt>
<trkpt lat="33.8103132" lon="-118.3938671">
  <ele>-15.927</ele>
  <time>2026-09-02T22:08:03Z</time>
  <course>186.43</course>
  <speed>0.022360679774997897</speed>
  <fix>3d</fix>
</trkpt>
<trkpt lat="33.8103132" lon="-118.3938671">
  <ele>-15.966</ele>
  <time>2026-09-02T22:08:03Z</time>
  <course>186.43</course>
  <speed>0.022360679774997897</speed>
  <fix>3d</fix>
</trkpt>
<trkpt lat="33.810313" lon="-118.393867">
  <ele>-15.46</ele>
  <time>2026-09-02T22:08:03Z</time>
  <course>0.0</course>
  <speed>0.0</speed>
  <fix>3d</fix>
</trkpt>
<trkpt lat="33.8103132" lon="-118.3938671">
  <ele>-15.968</ele>
  <time>2026-09-02T22:08:03Z</time>
  <course>186.43</course>
  <speed>0.022360679774997897</speed>
  <fix>3d</fix>
</trkpt>
<trkpt lat="33.8103132" lon="-118.3938671">
  <ele>-16.027</ele>
  <time>2026-09-02T22:08:03Z</time>
  <course>186.43</course>
  <speed>0.022360679774997897</speed>
  <fix>3d</fix>
</trkpt>
<trkpt lat="33.810313" lon="-118.393867">
  <ele>-15.46</ele>
  <time>2026-09-02T22:08:03Z</time>
  <course>0.0</course>
  <speed>0.0</speed>
  <fix>3d</fix>
</trkpt>
<trkpt lat="33.8103132" lon="-118.3938671">
  <ele>-16.029</ele>
  <time>2026-09-02T22:08:03Z</time>
  <course>186.43</course>
  <speed>0.022360679774997897</speed>
  <fix>3d</fix>
</trkpt>
<trkpt lat="33.8103132" lon="-118.3938671">
  <ele>-16.089</ele>
  <time>2026-09-02T22:08:03Z</time>
  <course>186.43</course>
  <speed>0.022360679774997897</speed>
  <fix>3d</fix>
</trkpt>
<trkpt lat="33.810313" lon="-118.393867">
  <ele>-15.59</ele>
  <time>2026-09-02T22:08:03Z</time>
  <course>0.0</course>
  <speed>0.0</speed>
  <fix>3d</fix>
</trkpt>
<trkpt lat="33.8103132" lon="-118.3938671">
  <ele>-16.09</ele>
  <time>2026-09-02T22:08:03Z</time>
  <course>186.43</course>
  <speed>0.022360679774997897</speed>
  <fix>3d</fix>
</trkpt>
<trkpt lat="33.8103132" lon="-118.3938671">
  <ele>-16.151</ele>
  <time>2026-09-02T22:08:03Z</time>
  <course>186.43</course>
  <speed>0.022360679774997897</speed>
  <fix>3d</fix>
</trkpt>
<trkpt lat="33.810313" lon="-118.393867">
  <ele>-15.59</ele>
  <time>2026-09-02T22:08:03Z</time>
  <course>0.0</course>
  <speed>0.0</speed>
  <fix>3d</fix>
</trkpt>
<trkpt lat="33.8103132" lon="-118.3938671">
  <ele>-16.153</ele>
  <time>2026-09-02T22:08:03Z</time>
  <course>186.43</course>
  <speed>0.022360679774997897</speed>
  <fix>3d</fix>
</trkpt>
<trkpt lat="33.8103132" lon="-118.3938671">
  <ele>-16.213</ele>
  <time>2026-09-02T22:08:03Z</time>
  <course>186.43</course>
  <speed>0.022360679774997897</speed>
  <fix>3d</fix>
</trkpt>
<trkpt lat="33.810313" lon="-118.393867">
  <ele>-15.71</ele>
  <time>2026-09-02T22:08:03Z</time>
  <course>0.0</course>
  <speed>0.0</speed>
  <fix>3d</fix>
</trkpt>
<trkpt lat="33.8103132" lon="-118.3938671">
  <ele>-16.215</ele>
  <time>2026-09-02T22:08:03Z</time>
  <course>186.43</course>
  <speed>0.022360679774997897</speed>
  <fix>3d</fix>
</trkpt>
<trkpt lat="33.8103132" lon="-118.3938671">
  <ele>-16.276</ele>
  <time>2026-09-02T22:08:03Z</time>
  <course>186.43</course>
  <speed>0.022360679774997897</speed>
  <fix>3d</fix>
</trkpt>
<trkpt lat="33.810313" lon="-118.393867">
  <ele>-15.71</ele>
  <time>2026-09-02T22:08:03Z</time>
  <course>0.0</course>
  <speed>0.0</speed>
  <fix>3d</fix>
</trkpt>
<trkpt lat="33.8103132" lon="-118.3938671">
  <ele>-16.305</ele>
  <time>2026-09-02T22:08:03Z</time>
  <course>186.42</course>
  <speed>0.022360679774997897</speed>
  <fix>3d</fix>
</trkpt>
<trkpt lat="33.8103132" lon="-118.3938671">
  <ele>-16.339</ele>
  <time>2026-09-02T22:08:03Z</time>
  <course>186.42</course>
  <speed>0.022360679774997897</speed>
  <fix>3d</fix>
</trkpt>
<trkpt lat="33.810313" lon="-118.393867">
  <ele>-15.83</ele>
  <time>2026-09-02T22:08:03Z</time>
  <course>0.0</course>
  <speed>0.0</speed>
  <fix>3d</fix>
</trkpt>
<trkpt lat="33.8103132" lon="-118.3938671">
  <ele>-16.341</ele>
  <time>2026-09-02T22:08:03Z</time>
  <course>186.42</course>
  <speed>0.022360679774997897</speed>
  <fix>3d</fix>
</trkpt>
<trkpt lat="33.8103132" lon="-118.3938671">
  <ele>-16.402</ele>
  <time>2026-09-02T22:08:03Z</time>
  <course>186.42</course>
  <speed>0.022360679774997897</speed>
  <fix>3d</fix>
</trkpt>
<trkpt lat="33.810313" lon="-118.393867">
  <ele>-15.83</ele>
  <time>2026-09-02T22:08:03Z</time>
  <course>0.0</course>
  <speed>0.0</speed>
  <fix>3d</fix>
</trkpt>
<trkpt lat="33.8103132" lon="-118.3938671">
  <ele>-16.424</ele>
  <time>2026-09-02T22:08:03Z</time>
  <course>186.42</course>
  <speed>0.022360679774997897</speed>
  <fix>3d</fix>
</trkpt>
<trkpt lat="33.8103132" lon="-118.3938671">
  <ele>-16.464</ele>
  <time>2026-09-02T22:08:03Z</time>
  <course>186.42</course>
  <speed>0.022360679774997897</speed>
  <fix>3d</fix>
</trkpt>
<trkpt lat="33.810313" lon="-118.393867">
  <ele>-15.95</ele>
  <time>2026-09-02T22:08:03Z</time>
  <course>0.0</course>
  <speed>0.0</speed>
  <fix>3d</fix>
</trkpt>
<trkpt lat="33.8103132" lon="-118.3938671">
  <ele>-16.485</ele>
  <time>2026-09-02T22:08:03Z</time>
  <course>186.42</course>
  <speed>0.022360679774997897</speed>
  <fix>3d</fix>
</trkpt>
<trkpt lat="33.8103132" lon="-118.3938671">
  <ele>-16.527</ele>
  <time>2026-09-02T22:08:03Z</time>
  <course>186.42</course>
  <speed>0.022360679774997897</speed>
  <fix>3d</fix>
</trkpt>
<trkpt lat="33.810313" lon="-118.393867">
  <ele>-15.95</ele>
  <time>2026-09-02T22:08:03Z</time>
  <course>0.0</course>
  <speed>0.0</speed>
  <fix>3d</fix>
</trkpt>
<trkpt lat="33.8103132" lon="-118.3938671">
  <ele>-16.552</ele>
  <time>2026-09-02T22:08:03Z</time>
  <course>186.42</course>
  <speed>0.022360679774997897</speed>
  <fix>3d</fix>
</trkpt>
<trkpt lat="33.8103132" lon="-118.3938671">
  <ele>-16.59</ele>
  <time>2026-09-02T22:08:03Z</time>
  <course>186.42</course>
  <speed>0.022360679774997897</speed>
  <fix>3d</fix>
</trkpt>
<trkpt lat="33.810313" lon="-118.393867">
  <ele>-16.07</ele>
  <time>2026-09-02T22:08:03Z</time>
  <course>0.0</course>
  <speed>0.0</speed>
  <fix>3d</fix>
</trkpt>
<trkpt lat="33.8103132" lon="-118.3938671">
  <ele>-16.592</ele>
  <time>2026-09-02T22:08:03Z</time>
  <course>186.42</course>
  <speed>0.022360679774997897</speed>
  <fix>3d</fix>
</trkpt>
<trkpt lat="33.8103132" lon="-118.3938671">
  <ele>-16.653</ele>
  <time>2026-09-02T22:08:03Z</time>
  <course>186.42</course>
  <speed>0.022360679774997897</speed>
  <fix>3d</fix>
</trkpt>
<trkpt lat="33.810313" lon="-118.393867">
  <ele>-16.07</ele>
  <time>2026-09-02T22:08:03Z</time>
  <course>0.0</course>
  <speed>0.0</speed>
  <fix>3d</fix>
</trkpt>
<trkpt lat="33.8103132" lon="-118.3938671">
  <ele>-16.657</ele>
  <time>2026-09-02T22:08:03Z</time>
  <course>186.42</course>
  <speed>0.022360679774997897</speed>
  <fix>3d</fix>
</trkpt>
<trkpt lat="33.8103132" lon="-118.3938671">
  <ele>-16.717</ele>
  <time>2026-09-02T22:08:03Z</time>
  <course>186.42</course>
  <speed>0.022360679774997897</speed>
  <fix>3d</fix>
</trkpt>
<trkpt lat="33.810313" lon="-118.393867">
  <ele>-16.18</ele>
  <time>2026-09-02T22:08:03Z</time>
  <course>0.0</course>
  <speed>0.0</speed>
  <fix>3d</fix>
</trkpt>
<trkpt lat="33.8103132" lon="-118.3938671">
  <ele>-16.718</ele>
  <time>2026-09-02T22:08:03Z</time>
  <course>186.42</course>
  <speed>0.022360679774997897</speed>
  <fix>3d</fix>
</trkpt>
<trkpt lat="33.8103132" lon="-118.3938671">
  <ele>-16.78</ele>
  <time>2026-09-02T22:08:03Z</time>
  <course>186.41</course>
  <speed>0.022360679774997897</speed>
  <fix>3d</fix>
</trkpt>
<trkpt lat="33.810313" lon="-118.393867">
  <ele>-16.18</ele>
  <time>2026-09-02T22:08:03Z</time>
  <course>0.0</course>
  <speed>0.0</speed>
  <fix>3d</fix>
</trkpt>
<trkpt lat="33.8103132" lon="-118.3938671">
  <ele>-16.795</ele>
  <time>2026-09-02T22:08:03Z</time>
  <course>186.41</course>
  <speed>0.022360679774997897</speed>
  <fix>3d</fix>
</trkpt>
<trkpt lat="33.8103132" lon="-118.3938671">
  <ele>-16.843</ele>
  <time>2026-09-02T22:08:03Z</time>
  <course>186.41</course>
  <speed>0.022360679774997897</speed>
  <fix>3d</fix>
</trkpt>
<trkpt lat="33.810313" lon="-118.393867">
  <ele>-16.31</ele>
  <time>2026-09-02T22:08:03Z</time>
  <course>0.0</course>
  <speed>0.0</speed>
  <fix>3d</fix>
</trkpt>
<trkpt lat="33.8103132" lon="-118.3938671">
  <ele>-16.866</ele>
  <time>2026-09-02T22:08:03Z</time>
  <course>186.41</course>
  <speed>0.022360679774997897</speed>
  <fix>3d</fix>
</trkpt>
<trkpt lat="33.8103132" lon="-118.3938671">
  <ele>-16.907</ele>
  <time>2026-09-02T22:08:03Z</time>
  <course>186.41</course>
  <speed>0.022360679774997897</speed>
  <fix>3d</fix>
</trkpt>
<trkpt lat="33.810313" lon="-118.393867">
  <ele>-16.31</ele>
  <time>2026-09-02T22:08:03Z</time>
  <course>0.0</course>
  <speed>0.0</speed>
  <fix>3d</fix>
</trkpt>
<trkpt lat="33.8103132" lon="-118.3938671">
  <ele>-16.93</ele>
  <time>2026-09-02T22:08:03Z</time>
  <course>186.41</course>
  <speed>0.022360679774997897</speed>
  <fix>3d</fix>
</trkpt>
<trkpt lat="33.8103132" lon="-118.3938671">
  <ele>-16.972</ele>
  <time>2026-09-02T22:08:03Z</time>
  <course>186.41</course>
  <speed>0.022360679774997897</speed>
  <fix>3d</fix>
</trkpt>
<trkpt lat="33.810313" lon="-118.393867">
  <ele>-16.43</ele>
  <time>2026-09-02T22:08:03Z</time>
  <course>0.0</course>
  <speed>0.0</speed>
  <fix>3d</fix>
</trkpt>
<trkpt lat="33.8103132" lon="-118.3938671">
  <ele>-16.995</ele>
  <time>2026-09-02T22:08:03Z</time>
  <course>186.41</course>
  <speed>0.022360679774997897</speed>
  <fix>3d</fix>
</trkpt>
<trkpt lat="33.8103132" lon="-118.3938671">
  <ele>-17.035</ele>
  <time>2026-09-02T22:08:03Z</time>
  <course>186.41</course>
  <speed>0.022360679774997897</speed>
  <fix>3d</fix>
</trkpt>
<trkpt lat="33.810313" lon="-118.393867">
  <ele>-16.43</ele>
  <time>2026-09-02T22:08:03Z</time>
  <course>0.0</course>
  <speed>0.0</speed>
  <fix>3d</fix>
</trkpt>
<trkpt lat="33.8103132" lon="-118.3938671">
  <ele>-17.055</ele>
  <time>2026-09-02T22:08:03Z</time>
  <course>186.41</course>
  <speed>0.022360679774997897</speed>
  <fix>3d</fix>
</trkpt>
<trkpt lat="33.8103132" lon="-118.3938671">
  <ele>-17.098</ele>
  <time>2026-09-02T22:08:03Z</time>
  <course>186.4</course>
  <speed>0.022360679774997897</speed>
  <fix>3d</fix>
</trkpt>
<trkpt lat="33.810313" lon="-118.393867">
  <ele>-16.55</ele>
  <time>2026-09-02T22:08:03Z</time>
  <course>0.0</course>
  <speed>0.0</speed>
  <fix>3d</fix>
</trkpt>
<trkpt lat="33.8103132" lon="-118.3938671">
  <ele>-17.12</ele>
  <time>2026-09-02T22:08:03Z</time>
  <course>186.4</course>
  <speed>0.022360679774997897</speed>
  <fix>3d</fix>
</trkpt>
<trkpt lat="33.8103132" lon="-118.3938671">
  <ele>-17.16</ele>
  <time>2026-09-02T22:08:03Z</time>
  <course>186.4</course>
  <speed>0.022360679774997897</speed>
  <fix>3d</fix>
</trkpt>
<trkpt lat="33.810313" lon="-118.393867">
  <ele>-16.55</ele>
  <time>2026-09-02T22:08:03Z</time>
  <course>0.0</course>
  <speed>0.0</speed>
  <fix>3d</fix>
</trkpt>
<trkpt lat="33.8103132" lon="-118.3938671">
  <ele>-17.179</ele>
  <time>2026-09-02T22:08:03Z</time>
  <course>186.4</course>
  <speed>0.022360679774997897</speed>
  <fix>3d</fix>
</trkpt>
<trkpt lat="33.8103132" lon="-118.3938671">
  <ele>-17.221</ele>
  <time>2026-09-02T22:08:03Z</time>
  <course>186.4</course>
  <speed>0.022360679774997897</speed>
  <fix>3d</fix>
</trkpt>
<trkpt lat="33.810313" lon="-118.393867">
  <ele>-16.67</ele>
  <time>2026-09-02T22:08:03Z</time>
  <course>0.0</course>
  <speed>0.0</speed>
  <fix>3d</fix>
</trkpt>
<trkpt lat="33.8103132" lon="-118.3938671">
  <ele>-17.242</ele>
  <time>2026-09-02T22:08:03Z</time>
  <course>186.4</course>
  <speed>0.022360679774997897</speed>
  <fix>3d</fix>
</trkpt>
<trkpt lat="33.8103132" lon="-118.3938671">
  <ele>-17.282</ele>
  <time>2026-09-02T22:08:03Z</time>
  <course>186.4</course>
  <speed>0.022360679774997897</speed>
  <fix>3d</fix>
</trkpt>
<trkpt lat="33.810313" lon="-118.393867">
  <ele>-16.67</ele>
  <time>2026-09-02T22:08:03Z</time>
  <course>0.0</course>
  <speed>0.0</speed>
  <fix>3d</fix>
</trkpt>
<trkpt lat="33.8103132" lon="-118.3938671">
  <ele>-17.283</ele>
  <time>2026-09-02T22:08:03Z</time>
  <course>186.4</course>
  <speed>0.022360679774997897</speed>
  <fix>3d</fix>
</trkpt>
<trkpt lat="33.8103132" lon="-118.3938671">
  <ele>-17.342</ele>
  <time>2026-09-02T22:08:03Z</time>
  <course>186.4</course>
  <speed>0.022360679774997897</speed>
  <fix>3d</fix>
</trkpt>
<trkpt lat="33.810313" lon="-118.393867">
  <ele>-16.79</ele>
  <time>2026-09-02T22:08:03Z</time>
  <course>0.0</course>
  <speed>0.0</speed>
  <fix>3d</fix>
</trkpt>
<trkpt lat="33.8103132" lon="-118.3938671">
  <ele>-17.343</ele>
  <time>2026-09-02T22:08:03Z</time>
  <course>186.4</course>
  <speed>0.022360679774997897</speed>
  <fix>3d</fix>
</trkpt>
<trkpt lat="33.8103132" lon="-118.3938671">
  <ele>-17.402</ele>
  <time>2026-09-02T22:08:03Z</time>
  <course>186.4</course>
  <speed>0.022360679774997897</speed>
  <fix>3d</fix>
</trkpt>
<trkpt lat="33.810313" lon="-118.393867">
  <ele>-16.79</ele>
  <time>2026-09-02T22:08:03Z</time>
  <course>0.0</course>
  <speed>0.0</speed>
  <fix>3d</fix>
</trkpt>
<trkpt lat="33.8103132" lon="-118.3938671">
  <ele>-17.424</ele>
  <time>2026-09-02T22:08:03Z</time>
  <course>186.39</course>
  <speed>0.022360679774997897</speed>
  <fix>3d</fix>
</trkpt>
<trkpt lat="33.8103132" lon="-118.3938671">
  <ele>-17.461</ele>
  <time>2026-09-02T22:08:03Z</time>
  <course>186.39</course>
  <speed>0.022360679774997897</speed>
  <fix>3d</fix>
</trkpt>
<trkpt lat="33.810313" lon="-118.393867">
  <ele>-16.92</ele>
  <time>2026-09-02T22:08:03Z</time>
  <course>0.0</course>
  <speed>0.0</speed>
  <fix>3d</fix>
</trkpt>
<trkpt lat="33.8103132" lon="-118.3938671">
  <ele>-17.481</ele>
  <time>2026-09-02T22:08:03Z</time>
  <course>186.39</course>
  <speed>0.022360679774997897</speed>
  <fix>3d</fix>
</trkpt>
<trkpt lat="33.8103132" lon="-118.3938671">
  <ele>-17.522</ele>
  <time>2026-09-02T22:08:03Z</time>
  <course>186.39</course>
  <speed>0.022360679774997897</speed>
  <fix>3d</fix>
</trkpt>
<trkpt lat="33.810313" lon="-118.393867">
  <ele>-16.92</ele>
  <time>2026-09-02T22:08:03Z</time>
  <course>0.0</course>
  <speed>0.0</speed>
  <fix>3d</fix>
</trkpt>
<trkpt lat="33.8103132" lon="-118.3938671">
  <ele>-17.543</ele>
  <time>2026-09-02T22:08:03Z</time>
  <course>186.39</course>
  <speed>0.022360679774997897</speed>
  <fix>3d</fix>
</trkpt>
<trkpt lat="33.8103132" lon="-118.3938671">
  <ele>-17.582</ele>
  <time>2026-09-02T22:08:03Z</time>
  <course>186.39</course>
  <speed>0.022360679774997897</speed>
  <fix>3d</fix>
</trkpt>
<trkpt lat="33.810313" lon="-118.393867">
  <ele>-17.04</ele>
  <time>2026-09-02T22:08:03Z</time>
  <course>0.0</course>
  <speed>0.0</speed>
  <fix>3d</fix>
</trkpt>
<trkpt lat="33.8103132" lon="-118.3938671">
  <ele>-17.605</ele>
  <time>2026-09-02T22:08:03Z</time>
  <course>186.39</course>
  <speed>0.022360679774997897</speed>
  <fix>3d</fix>
</trkpt>
<trkpt lat="33.8103132" lon="-118.3938671">
  <ele>-17.643</ele>
  <time>2026-09-02T22:08:03Z</time>
  <course>186.39</course>
  <speed>0.022360679774997897</speed>
  <fix>3d</fix>
</trkpt>
<trkpt lat="33.810313" lon="-118.393867">
  <ele>-17.04</ele>
  <time>2026-09-02T22:08:03Z</time>
  <course>0.0</course>
  <speed>0.0</speed>
  <fix>3d</fix>
</trkpt>
<trkpt lat="33.8103132" lon="-118.3938671">
  <ele>-17.645</ele>
  <time>2026-09-02T22:08:03Z</time>
  <course>186.39</course>
  <speed>0.022360679774997897</speed>
  <fix>3d</fix>
</trkpt>
<trkpt lat="33.8103132" lon="-118.3938671">
  <ele>-17.706</ele>
  <time>2026-09-02T22:08:03Z</time>
  <course>186.39</course>
  <speed>0.022360679774997897</speed>
  <fix>3d</fix>
</trkpt>
<trkpt lat="33.810313" lon="-118.393867">
  <ele>-17.16</ele>
  <time>2026-09-02T22:08:03Z</time>
  <course>0.0</course>
  <speed>0.0</speed>
  <fix>3d</fix>
</trkpt>
<trkpt lat="33.8103132" lon="-118.3938671">
  <ele>-17.731</ele>
  <time>2026-09-02T22:08:03Z</time>
  <course>186.38</course>
  <speed>0.022360679774997897</speed>
  <fix>3d</fix>
</trkpt>
<trkpt lat="33.8103132" lon="-118.3938671">
  <ele>-17.768</ele>
  <time>2026-09-02T22:08:03Z</time>
  <course>186.38</course>
  <speed>0.022360679774997897</speed>
  <fix>3d</fix>
</trkpt>
<trkpt lat="33.810313" lon="-118.393867">
  <ele>-17.16</ele>
  <time>2026-09-02T22:08:03Z</time>
  <course>0.0</course>
  <speed>0.0</speed>
  <fix>3d</fix>
</trkpt>
<trkpt lat="33.8103132" lon="-118.3938671">
  <ele>-17.77</ele>
  <time>2026-09-02T22:08:03Z</time>
  <course>186.38</course>
  <speed>0.022360679774997897</speed>
  <fix>3d</fix>
</trkpt>
<trkpt lat="33.8103132" lon="-118.3938671">
  <ele>-17.831</ele>
  <time>2026-09-02T22:08:03Z</time>
  <course>186.38</course>
  <speed>0.022360679774997897</speed>
  <fix>3d</fix>
</trkpt>
<trkpt lat="33.810313" lon="-118.393867">
  <ele>-17.27</ele>
  <time>2026-09-02T22:08:03Z</time>
  <course>0.0</course>
  <speed>0.0</speed>
  <fix>3d</fix>
</trkpt>
<trkpt lat="33.8103132" lon="-118.3938671">
  <ele>-17.854</ele>
  <time>2026-09-02T22:08:03Z</time>
  <course>186.38</course>
  <speed>0.022360679774997897</speed>
  <fix>3d</fix>
</trkpt>
<trkpt lat="33.8103132" lon="-118.3938671">
  <ele>-17.893</ele>
  <time>2026-09-02T22:08:03Z</time>
  <course>186.38</course>
  <speed>0.022360679774997897</speed>
  <fix>3d</fix>
</trkpt>
<trkpt lat="33.810313" lon="-118.393867">
  <ele>-17.27</ele>
  <time>2026-09-02T22:08:03Z</time>
  <course>0.0</course>
  <speed>0.0</speed>
  <fix>3d</fix>
</trkpt>
<trkpt lat="33.8103132" lon="-118.3938671">
  <ele>-17.895</ele>
  <time>2026-09-02T22:08:03Z</time>
  <course>186.38</course>
  <speed>0.022360679774997897</speed>
  <fix>3d</fix>
</trkpt>
<trkpt lat="33.8103132" lon="-118.3938671">
  <ele>-17.955</ele>
  <time>2026-09-02T22:08:03Z</time>
  <course>186.38</course>
  <speed>0.022360679774997897</speed>
  <fix>3d</fix>
</trkpt>
<trkpt lat="33.810313" lon="-118.393867">
  <ele>-17.4</ele>
  <time>2026-09-02T22:08:03Z</time>
  <course>0.0</course>
  <speed>0.0</speed>
  <fix>3d</fix>
</trkpt>
<trkpt lat="33.8103132" lon="-118.3938671">
  <ele>-17.956</ele>
  <time>2026-09-02T22:08:03Z</time>
  <course>186.38</course>
  <speed>0.022360679774997897</speed>
  <fix>3d</fix>
</trkpt>
<trkpt lat="33.8103132" lon="-118.3938671">
  <ele>-18.016</ele>
  <time>2026-09-02T22:08:03Z</time>
  <course>186.37</course>
  <speed>0.022360679774997897</speed>
  <fix>3d</fix>
</trkpt>
<trkpt lat="33.810313" lon="-118.393867">
  <ele>-17.4</ele>
  <time>2026-09-02T22:08:03Z</time>
  <course>0.0</course>
  <speed>0.0</speed>
  <fix>3d</fix>
</trkpt>
<trkpt lat="33.8103132" lon="-118.3938671">
  <ele>-18.038</ele>
  <time>2026-09-02T22:08:03Z</time>
  <course>186.37</course>
  <speed>0.022360679774997897</speed>
  <fix>3d</fix>
</trkpt>
<trkpt lat="33.8103132" lon="-118.3938671">
  <ele>-18.078</ele>
  <time>2026-09-02T22:08:04Z</time>
  <course>186.37</course>
  <speed>0.022360679774997897</speed>
  <fix>3d</fix>
</trkpt>
<trkpt lat="33.810313" lon="-118.393867">
  <ele>-17.52</ele>
  <time>2026-09-02T22:08:04Z</time>
  <course>0.0</course>
  <speed>0.0</speed>
  <fix>3d</fix>
</trkpt>
<trkpt lat="33.8103132" lon="-118.3938671">
  <ele>-18.1</ele>
  <time>2026-09-02T22:08:04Z</time>
  <course>186.37</course>
  <speed>0.022360679774997897</speed>
  <fix>3d</fix>
</trkpt>
<trkpt lat="33.8103132" lon="-118.3938671">
  <ele>-18.14</ele>
  <time>2026-09-02T22:08:04Z</time>
  <course>186.37</course>
  <speed>0.022360679774997897</speed>
  <fix>3d</fix>
</trkpt>
<trkpt lat="33.810313" lon="-118.393867">
  <ele>-17.52</ele>
  <time>2026-09-02T22:08:04Z</time>
  <course>0.0</course>
  <speed>0.0</speed>
  <fix>3d</fix>
</trkpt>
<trkpt lat="33.8103132" lon="-118.3938671">
  <ele>-18.163</ele>
  <time>2026-09-02T22:08:04Z</time>
  <course>186.37</course>
  <speed>0.022360679774997897</speed>
  <fix>3d</fix>
</trkpt>
<trkpt lat="33.8103132" lon="-118.3938671">
  <ele>-18.203</ele>
  <time>2026-09-02T22:08:04Z</time>
  <course>186.37</course>
  <speed>0.022360679774997897</speed>
  <fix>3d</fix>
</trkpt>
<trkpt lat="33.810313" lon="-118.393867">
  <ele>-17.64</ele>
  <time>2026-09-02T22:08:04Z</time>
  <course>0.0</course>
  <speed>0.0</speed>
  <fix>3d</fix>
</trkpt>
<trkpt lat="33.8103132" lon="-118.3938671">
  <ele>-18.225</ele>
  <time>2026-09-02T22:08:04Z</time>
  <course>186.36</course>
  <speed>0.022360679774997897</speed>
  <fix>3d</fix>
</trkpt>
<trkpt lat="33.8103132" lon="-118.3938671">
  <ele>-18.266</ele>
  <time>2026-09-02T22:08:04Z</time>
  <course>186.36</course>
  <speed>0.022360679774997897</speed>
  <fix>3d</fix>
</trkpt>
<trkpt lat="33.810313" lon="-118.393867">
  <ele>-17.64</ele>
  <time>2026-09-02T22:08:04Z</time>
  <course>0.0</course>
  <speed>0.0</speed>
  <fix>3d</fix>
</trkpt>
<trkpt lat="33.8103132" lon="-118.3938671">
  <ele>-18.267</ele>
  <time>2026-09-02T22:08:04Z</time>
  <course>186.36</course>
  <speed>0.022360679774997897</speed>
  <fix>3d</fix>
</trkpt>
<trkpt lat="33.8103132" lon="-118.3938671">
  <ele>-18.329</ele>
  <time>2026-09-02T22:08:04Z</time>
  <course>186.36</course>
  <speed>0.022360679774997897</speed>
  <fix>3d</fix>
</trkpt>
<trkpt lat="33.810313" lon="-118.393867">
  <ele>-17.76</ele>
  <time>2026-09-02T22:08:04Z</time>
  <course>0.0</course>
  <speed>0.0</speed>
  <fix>3d</fix>
</trkpt>
<trkpt lat="33.8103132" lon="-118.3938671">
  <ele>-18.355</ele>
  <time>2026-09-02T22:08:04Z</time>
  <course>186.36</course>
  <speed>0.022360679774997897</speed>
  <fix>3d</fix>
</trkpt>
<trkpt lat="33.8103132" lon="-118.3938671">
  <ele>-18.392</ele>
  <time>2026-09-02T22:08:04Z</time>
  <course>186.36</course>
  <speed>0.022360679774997897</speed>
  <fix>3d</fix>
</trkpt>
<trkpt lat="33.810313" lon="-118.393867">
  <ele>-17.76</ele>
  <time>2026-09-02T22:08:04Z</time>
  <course>0.0</course>
  <speed>0.0</speed>
  <fix>3d</fix>
</trkpt>
<trkpt lat="33.8103132" lon="-118.3938671">
  <ele>-18.414</ele>
  <time>2026-09-02T22:08:04Z</time>
  <course>186.36</course>
  <speed>0.022360679774997897</speed>
  <fix>3d</fix>
</trkpt>
<trkpt lat="33.8103132" lon="-118.3938671">
  <ele>-18.456</ele>
  <time>2026-09-02T22:08:04Z</time>
  <course>186.35</course>
  <speed>0.022360679774997897</speed>
  <fix>3d</fix>
</trkpt>
<trkpt lat="33.810313" lon="-118.393867">
  <ele>-17.88</ele>
  <time>2026-09-02T22:08:04Z</time>
  <course>0.0</course>
  <speed>0.0</speed>
  <fix>3d</fix>
</trkpt>
<trkpt lat="33.8103132" lon="-118.3938671">
  <ele>-18.484</ele>
  <time>2026-09-02T22:08:04Z</time>
  <course>186.35</course>
  <speed>0.022360679774997897</speed>
  <fix>3d</fix>
</trkpt>
<trkpt lat="33.8103132" lon="-118.3938671">
  <ele>-18.519</ele>
  <time>2026-09-02T22:08:04Z</time>
  <course>186.35</course>
  <speed>0.022360679774997897</speed>
  <fix>3d</fix>
</trkpt>
<trkpt lat="33.810313" lon="-118.393867">
  <ele>-17.88</ele>
  <time>2026-09-02T22:08:04Z</time>
  <course>0.0</course>
  <speed>0.0</speed>
  <fix>3d</fix>
</trkpt>
<trkpt lat="33.8103132" lon="-118.3938671">
  <ele>-18.52</ele>
  <time>2026-09-02T22:08:04Z</time>
  <course>186.35</course>
  <speed>0.022360679774997897</speed>
  <fix>3d</fix>
</trkpt>
<trkpt lat="33.8103132" lon="-118.3938671">
  <ele>-18.582</ele>
  <time>2026-09-02T22:08:04Z</time>
  <course>186.35</course>
  <speed>0.022360679774997897</speed>
  <fix>3d</fix>
</trkpt>
<trkpt lat="33.810313" lon="-118.393867">
  <ele>-18.0</ele>
  <time>2026-09-02T22:08:04Z</time>
  <course>0.0</course>
  <speed>0.0</speed>
  <fix>3d</fix>
</trkpt>
<trkpt lat="33.8103132" lon="-118.3938671">
  <ele>-18.583</ele>
  <time>2026-09-02T22:08:04Z</time>
  <course>186.35</course>
  <speed>0.022360679774997897</speed>
  <fix>3d</fix>
</trkpt>
<trkpt lat="33.8103132" lon="-118.3938671">
  <ele>-18.645</ele>
  <time>2026-09-02T22:08:04Z</time>
  <course>186.35</course>
  <speed>0.022360679774997897</speed>
  <fix>3d</fix>
</trkpt>
<trkpt lat="33.810313" lon="-118.393867">
  <ele>-18.0</ele>
  <time>2026-09-02T22:08:04Z</time>
  <course>0.0</course>
  <speed>0.0</speed>
  <fix>3d</fix>
</trkpt>
<trkpt lat="33.8103132" lon="-118.3938671">
  <ele>-18.671</ele>
  <time>2026-09-02T22:08:04Z</time>
  <course>186.35</course>
  <speed>0.022360679774997897</speed>
  <fix>3d</fix>
</trkpt>
<trkpt lat="33.8103132" lon="-118.3938671">
  <ele>-18.708</ele>
  <time>2026-09-02T22:08:04Z</time>
  <course>186.34</course>
  <speed>0.022360679774997897</speed>
  <fix>3d</fix>
</trkpt>
<trkpt lat="33.810313" lon="-118.393867">
  <ele>-18.11</ele>
  <time>2026-09-02T22:08:04Z</time>
  <course>0.0</course>
  <speed>0.0</speed>
  <fix>3d</fix>
</trkpt>
<trkpt lat="33.8103132" lon="-118.3938671">
  <ele>-18.731</ele>
  <time>2026-09-02T22:08:04Z</time>
  <course>186.34</course>
  <speed>0.022360679774997897</speed>
  <fix>3d</fix>
</trkpt>
<trkpt lat="33.8103132" lon="-118.3938671">
  <ele>-18.769</ele>
  <time>2026-09-02T22:08:04Z</time>
  <course>186.34</course>
  <speed>0.022360679774997897</speed>
  <fix>3d</fix>
</trkpt>
<trkpt lat="33.810313" lon="-118.393867">
  <ele>-18.11</ele>
  <time>2026-09-02T22:08:04Z</time>
  <course>0.0</course>
  <speed>0.0</speed>
  <fix>3d</fix>
</trkpt>
<trkpt lat="33.8103132" lon="-118.3938671">
  <ele>-18.792</ele>
  <time>2026-09-02T22:08:04Z</time>
  <course>186.34</course>
  <speed>0.022360679774997897</speed>
  <fix>3d</fix>
</trkpt>
<trkpt lat="33.8103132" lon="-118.3938671">
  <ele>-18.83</ele>
  <time>2026-09-02T22:08:04Z</time>
  <course>186.34</course>
  <speed>0.022360679774997897</speed>
  <fix>3d</fix>
</trkpt>
<trkpt lat="33.810313" lon="-118.393867">
  <ele>-18.24</ele>
  <time>2026-09-02T22:08:04Z</time>
  <course>0.0</course>
  <speed>0.0</speed>
  <fix>3d</fix>
</trkpt>
<trkpt lat="33.8103132" lon="-118.3938671">
  <ele>-18.853</ele>
  <time>2026-09-02T22:08:04Z</time>
  <course>186.34</course>
  <speed>0.022360679774997897</speed>
  <fix>3d</fix>
</trkpt>
<trkpt lat="33.8103132" lon="-118.3938671">
  <ele>-18.89</ele>
  <time>2026-09-02T22:08:04Z</time>
  <course>186.33</course>
  <speed>0.022360679774997897</speed>
  <fix>3d</fix>
</trkpt>
<trkpt lat="33.810313" lon="-118.393867">
  <ele>-18.24</ele>
  <time>2026-09-02T22:08:04Z</time>
  <course>0.0</course>
  <speed>0.0</speed>
  <fix>3d</fix>
</trkpt>
<trkpt lat="33.8103132" lon="-118.3938671">
  <ele>-18.892</ele>
  <time>2026-09-02T22:08:04Z</time>
  <course>186.33</course>
  <speed>0.022360679774997897</speed>
  <fix>3d</fix>
</trkpt>
<trkpt lat="33.8103132" lon="-118.3938671">
  <ele>-18.952</ele>
  <time>2026-09-02T22:08:04Z</time>
  <course>186.33</course>
  <speed>0.022360679774997897</speed>
  <fix>3d</fix>
</trkpt>
<trkpt lat="33.810313" lon="-118.393867">
  <ele>-18.36</ele>
  <time>2026-09-02T22:08:04Z</time>
  <course>0.0</course>
  <speed>0.0</speed>
  <fix>3d</fix>
</trkpt>
<trkpt lat="33.8103132" lon="-118.3938671">
  <ele>-18.974</ele>
  <time>2026-09-02T22:08:04Z</time>
  <course>186.33</course>
  <speed>0.022360679774997897</speed>
  <fix>3d</fix>
</trkpt>
<trkpt lat="33.8103132" lon="-118.3938671">
  <ele>-19.014</ele>
  <time>2026-09-02T22:08:04Z</time>
  <course>186.33</course>
  <speed>0.022360679774997897</speed>
  <fix>3d</fix>
</trkpt>
<trkpt lat="33.810313" lon="-118.393867">
  <ele>-18.36</ele>
  <time>2026-09-02T22:08:04Z</time>
  <course>0.0</course>
  <speed>0.0</speed>
  <fix>3d</fix>
</trkpt>
<trkpt lat="33.8103132" lon="-118.3938671">
  <ele>-19.037</ele>
  <time>2026-09-02T22:08:04Z</time>
  <course>186.33</course>
  <speed>0.022360679774997897</speed>
  <fix>3d</fix>
</trkpt>
<trkpt lat="33.8103132" lon="-118.3938671">
  <ele>-19.075</ele>
  <time>2026-09-02T22:08:04Z</time>
  <course>186.33</course>
  <speed>0.022360679774997897</speed>
  <fix>3d</fix>
</trkpt>
<trkpt lat="33.810313" lon="-118.393867">
  <ele>-18.48</ele>
  <time>2026-09-02T22:08:04Z</time>
  <course>0.0</course>
  <speed>0.0</speed>
  <fix>3d</fix>
</trkpt>
<trkpt lat="33.8103132" lon="-118.3938671">
  <ele>-19.097</ele>
  <time>2026-09-02T22:08:04Z</time>
  <course>186.32</course>
  <speed>0.022360679774997897</speed>
  <fix>3d</fix>
</trkpt>
<trkpt lat="33.8103132" lon="-118.3938671">
  <ele>-19.137</ele>
  <time>2026-09-02T22:08:04Z</time>
  <course>186.32</course>
  <speed>0.022360679774997897</speed>
  <fix>3d</fix>
</trkpt>
<trkpt lat="33.810313" lon="-118.393867">
  <ele>-18.48</ele>
  <time>2026-09-02T22:08:04Z</time>
  <course>0.0</course>
  <speed>0.0</speed>
  <fix>3d</fix>
</trkpt>
<trkpt lat="33.8103132" lon="-118.3938671">
  <ele>-19.161</ele>
  <time>2026-09-02T22:08:04Z</time>
  <course>186.32</course>
  <speed>0.022360679774997897</speed>
  <fix>3d</fix>
</trkpt>
<trkpt lat="33.8103132" lon="-118.3938671">
  <ele>-19.2</ele>
  <time>2026-09-02T22:08:04Z</time>
  <course>186.32</course>
  <speed>0.022360679774997897</speed>
  <fix>3d</fix>
</trkpt>
<trkpt lat="33.810313" lon="-118.393867">
  <ele>-18.61</ele>
  <time>2026-09-02T22:08:04Z</time>
  <course>0.0</course>
  <speed>0.0</speed>
  <fix>3d</fix>
</trkpt>
<trkpt lat="33.8103132" lon="-118.3938671">
  <ele>-19.203</ele>
  <time>2026-09-02T22:08:04Z</time>
  <course>186.32</course>
  <speed>0.022360679774997897</speed>
  <fix>3d</fix>
</trkpt>
<trkpt lat="33.8103132" lon="-118.3938671">
  <ele>-19.261</ele>
  <time>2026-09-02T22:08:04Z</time>
  <course>186.32</course>
  <speed>0.022360679774997897</speed>
  <fix>3d</fix>
</trkpt>
<trkpt lat="33.810313" lon="-118.393867">
  <ele>-18.61</ele>
  <time>2026-09-02T22:08:04Z</time>
  <course>0.0</course>
  <speed>0.0</speed>
  <fix>3d</fix>
</trkpt>
<trkpt lat="33.8103132" lon="-118.3938671">
  <ele>-19.283</ele>
  <time>2026-09-02T22:08:04Z</time>
  <course>186.32</course>
  <speed>0.022360679774997897</speed>
  <fix>3d</fix>
</trkpt>
<trkpt lat="33.8103132" lon="-118.3938671">
  <ele>-19.322</ele>
  <time>2026-09-02T22:08:04Z</time>
  <course>186.31</course>
  <speed>0.022360679774997897</speed>
  <fix>3d</fix>
</trkpt>
<trkpt lat="33.810313" lon="-118.393867">
  <ele>-18.73</ele>
  <time>2026-09-02T22:08:04Z</time>
  <course>0.0</course>
  <speed>0.0</speed>
  <fix>3d</fix>
</trkpt>
<trkpt lat="33.8103132" lon="-118.3938671">
  <ele>-19.343</ele>
  <time>2026-09-02T22:08:04Z</time>
  <course>186.31</course>
  <speed>0.022360679774997897</speed>
  <fix>3d</fix>
</trkpt>
<trkpt lat="33.8103132" lon="-118.3938671">
  <ele>-19.383</ele>
  <time>2026-09-02T22:08:04Z</time>
  <course>186.31</course>
  <speed>0.022360679774997897</speed>
  <fix>3d</fix>
</trkpt>
<trkpt lat="33.810313" lon="-118.393867">
  <ele>-18.73</ele>
  <time>2026-09-02T22:08:04Z</time>
  <course>0.0</course>
  <speed>0.0</speed>
  <fix>3d</fix>
</trkpt>
<trkpt lat="33.8103132" lon="-118.3938671">
  <ele>-19.405</ele>
  <time>2026-09-02T22:08:04Z</time>
  <course>186.31</course>
  <speed>0.022360679774997897</speed>
  <fix>3d</fix>
</trkpt>
<trkpt lat="33.8103132" lon="-118.3938671">
  <ele>-19.445</ele>
  <time>2026-09-02T22:08:04Z</time>
  <course>186.31</course>
  <speed>0.022360679774997897</speed>
  <fix>3d</fix>
</trkpt>
<trkpt lat="33.810313" lon="-118.393867">
  <ele>-18.85</ele>
  <time>2026-09-02T22:08:04Z</time>
  <course>0.0</course>
  <speed>0.0</speed>
  <fix>3d</fix>
</trkpt>
<trkpt lat="33.8103132" lon="-118.3938671">
  <ele>-19.467</ele>
  <time>2026-09-02T22:08:04Z</time>
  <course>186.31</course>
  <speed>0.022360679774997897</speed>
  <fix>3d</fix>
</trkpt>
<trkpt lat="33.8103132" lon="-118.3938671">
  <ele>-19.506</ele>
  <time>2026-09-02T22:08:04Z</time>
  <course>186.3</course>
  <speed>0.022360679774997897</speed>
  <fix>3d</fix>
</trkpt>
<trkpt lat="33.810313" lon="-118.393867">
  <ele>-18.85</ele>
  <time>2026-09-02T22:08:04Z</time>
  <course>0.0</course>
  <speed>0.0</speed>
  <fix>3d</fix>
</trkpt>
<trkpt lat="33.8103132" lon="-118.3938671">
  <ele>-19.508</ele>
  <time>2026-09-02T22:08:04Z</time>
  <course>186.3</course>
  <speed>0.022360679774997897</speed>
  <fix>3d</fix>
</trkpt>
<trkpt lat="33.8103132" lon="-118.3938671">
  <ele>-19.568</ele>
  <time>2026-09-02T22:08:04Z</time>
  <course>186.3</course>
  <speed>0.022360679774997897</speed>
  <fix>3d</fix>
</trkpt>
<trkpt lat="33.810313" lon="-118.393867">
  <ele>-18.97</ele>
  <time>2026-09-02T22:08:04Z</time>
  <course>0.0</course>
  <speed>0.0</speed>
  <fix>3d</fix>
</trkpt>
<trkpt lat="33.8103132" lon="-118.3938671">
  <ele>-19.59</ele>
  <time>2026-09-02T22:08:04Z</time>
  <course>186.3</course>
  <speed>0.022360679774997897</speed>
  <fix>3d</fix>
</trkpt>
<trkpt lat="33.8103132" lon="-118.3938671">
  <ele>-19.63</ele>
  <time>2026-09-02T22:08:04Z</time>
  <course>186.3</course>
  <speed>0.022360679774997897</speed>
  <fix>3d</fix>
</trkpt>
<trkpt lat="33.810313" lon="-118.393867">
  <ele>-18.97</ele>
  <time>2026-09-02T22:08:04Z</time>
  <course>0.0</course>
  <speed>0.0</speed>
  <fix>3d</fix>
</trkpt>
<trkpt lat="33.8103132" lon="-118.3938671">
  <ele>-19.656</ele>
  <time>2026-09-02T22:08:04Z</time>
  <course>186.3</course>
  <speed>0.022360679774997897</speed>
  <fix>3d</fix>
</trkpt>
<trkpt lat="33.8103132" lon="-118.3938671">
  <ele>-19.691</ele>
  <time>2026-09-02T22:08:04Z</time>
  <course>186.29</course>
  <speed>0.022360679774997897</speed>
  <fix>3d</fix>
</trkpt>
<trkpt lat="33.810313" lon="-118.393867">
  <ele>-19.09</ele>
  <time>2026-09-02T22:08:04Z</time>
  <course>0.0</course>
  <speed>0.0</speed>
  <fix>3d</fix>
</trkpt>
<trkpt lat="33.8103132" lon="-118.3938671">
  <ele>-19.713</ele>
  <time>2026-09-02T22:08:04Z</time>
  <course>186.29</course>
  <speed>0.022360679774997897</speed>
  <fix>3d</fix>
</trkpt>
<trkpt lat="33.8103132" lon="-118.3938671">
  <ele>-19.752</ele>
  <time>2026-09-02T22:08:04Z</time>
  <course>186.29</course>
  <speed>0.022360679774997897</speed>
  <fix>3d</fix>
</trkpt>
<trkpt lat="33.810313" lon="-118.393867">
  <ele>-19.09</ele>
  <time>2026-09-02T22:08:04Z</time>
  <course>0.0</course>
  <speed>0.0</speed>
  <fix>3d</fix>
</trkpt>
<trkpt lat="33.8103132" lon="-118.3938671">
  <ele>-19.773</ele>
  <time>2026-09-02T22:08:04Z</time>
  <course>186.29</course>
  <speed>0.022360679774997897</speed>
  <fix>3d</fix>
</trkpt>
<trkpt lat="33.8103132" lon="-118.3938671">
  <ele>-19.813</ele>
  <time>2026-09-02T22:08:04Z</time>
  <course>186.29</course>
  <speed>0.022360679774997897</speed>
  <fix>3d</fix>
</trkpt>
<trkpt lat="33.810313" lon="-118.393867">
  <ele>-19.21</ele>
  <time>2026-09-02T22:08:04Z</time>
  <course>0.0</course>
  <speed>0.0</speed>
  <fix>3d</fix>
</trkpt>
<trkpt lat="33.8103132" lon="-118.3938671">
  <ele>-19.815</ele>
  <time>2026-09-02T22:08:04Z</time>
  <course>186.29</course>
  <speed>0.022360679774997897</speed>
  <fix>3d</fix>
</trkpt>
<trkpt lat="33.8103132" lon="-118.3938671">
  <ele>-19.875</ele>
  <time>2026-09-02T22:08:04Z</time>
  <course>186.28</course>
  <speed>0.022360679774997897</speed>
  <fix>3d</fix>
</trkpt>
<trkpt lat="33.810313" lon="-118.393867">
  <ele>-19.21</ele>
  <time>2026-09-02T22:08:04Z</time>
  <course>0.0</course>
  <speed>0.0</speed>
  <fix>3d</fix>
</trkpt>
<trkpt lat="33.8103132" lon="-118.3938671">
  <ele>-19.877</ele>
  <time>2026-09-02T22:08:04Z</time>
  <course>186.28</course>
  <speed>0.022360679774997897</speed>
  <fix>3d</fix>
</trkpt>
<trkpt lat="33.8103132" lon="-118.3938671">
  <ele>-19.937</ele>
  <time>2026-09-02T22:08:04Z</time>
  <course>186.28</course>
  <speed>0.022360679774997897</speed>
  <fix>3d</fix>
</trkpt>
<trkpt lat="33.810313" lon="-118.393867">
  <ele>-19.33</ele>
  <time>2026-09-02T22:08:04Z</time>
  <course>0.0</course>
  <speed>0.0</speed>
  <fix>3d</fix>
</trkpt>
<trkpt lat="33.8103132" lon="-118.3938671">
  <ele>-19.959</ele>
  <time>2026-09-02T22:08:04Z</time>
  <course>186.28</course>
  <speed>0.022360679774997897</speed>
  <fix>3d</fix>
</trkpt>
<trkpt lat="33.8103132" lon="-118.3938671">
  <ele>-19.999</ele>
  <time>2026-09-02T22:08:04Z</time>
  <course>186.28</course>
  <speed>0.022360679774997897</speed>
  <fix>3d</fix>
</trkpt>
<trkpt lat="33.810313" lon="-118.393867">
  <ele>-19.33</ele>
  <time>2026-09-02T22:08:04Z</time>
  <course>0.0</course>
  <speed>0.0</speed>
  <fix>3d</fix>
</trkpt>
<trkpt lat="33.8103132" lon="-118.3938671">
  <ele>-20.001</ele>
  <time>2026-09-02T22:08:04Z</time>
  <course>186.28</course>
  <speed>0.022360679774997897</speed>
  <fix>3d</fix>
</trkpt>
<trkpt lat="33.8103132" lon="-118.3938671">
  <ele>-20.061</ele>
  <time>2026-09-02T22:08:04Z</time>
  <course>186.27</course>
  <speed>0.022360679774997897</speed>
  <fix>3d</fix>
</trkpt>
<trkpt lat="33.810313" lon="-118.393867">
  <ele>-19.45</ele>
  <time>2026-09-02T22:08:04Z</time>
  <course>0.0</course>
  <speed>0.0</speed>
  <fix>3d</fix>
</trkpt>
<trkpt lat="33.8103132" lon="-118.3938671">
  <ele>-20.085</ele>
  <time>2026-09-02T22:08:04Z</time>
  <course>186.27</course>
  <speed>0.022360679774997897</speed>
  <fix>3d</fix>
</trkpt>
<trkpt lat="33.8103132" lon="-118.3938671">
  <ele>-20.123</ele>
  <time>2026-09-02T22:08:04Z</time>
  <course>186.27</course>
  <speed>0.022360679774997897</speed>
  <fix>3d</fix>
</trkpt>
<trkpt lat="33.810313" lon="-118.393867">
  <ele>-19.45</ele>
  <time>2026-09-02T22:08:04Z</time>
  <course>0.0</course>
  <speed>0.0</speed>
  <fix>3d</fix>
</trkpt>
<trkpt lat="33.8103132" lon="-118.3938671">
  <ele>-20.124</ele>
  <time>2026-09-02T22:08:04Z</time>
  <course>186.27</course>
  <speed>0.022360679774997897</speed>
  <fix>3d</fix>
</trkpt>
<trkpt lat="33.8103132" lon="-118.3938671">
  <ele>-20.185</ele>
  <time>2026-09-02T22:08:04Z</time>
  <course>186.27</course>
  <speed>0.022360679774997897</speed>
  <fix>3d</fix>
</trkpt>
<trkpt lat="33.810313" lon="-118.393867">
  <ele>-19.57</ele>
  <time>2026-09-02T22:08:04Z</time>
  <course>0.0</course>
  <speed>0.0</speed>
  <fix>3d</fix>
</trkpt>
<trkpt lat="33.8103132" lon="-118.3938671">
  <ele>-20.213</ele>
  <time>2026-09-02T22:08:04Z</time>
  <course>186.26</course>
  <speed>0.022360679774997897</speed>
  <fix>3d</fix>
</trkpt>
<trkpt lat="33.8103132" lon="-118.3938671">
  <ele>-20.247</ele>
  <time>2026-09-02T22:08:04Z</time>
  <course>186.26</course>
  <speed>0.022360679774997897</speed>
  <fix>3d</fix>
</trkpt>
<trkpt lat="33.810313" lon="-118.393867">
  <ele>-19.57</ele>
  <time>2026-09-02T22:08:04Z</time>
  <course>0.0</course>
  <speed>0.0</speed>
  <fix>3d</fix>
</trkpt>
<trkpt lat="33.8103132" lon="-118.3938671">
  <ele>-20.269</ele>
  <time>2026-09-02T22:08:04Z</time>
  <course>186.26</course>
  <speed>0.022360679774997897</speed>
  <fix>3d</fix>
</trkpt>
<trkpt lat="33.8103132" lon="-118.3938671">
  <ele>-20.31</ele>
  <time>2026-09-02T22:08:04Z</time>
  <course>186.26</course>
  <speed>0.022360679774997897</speed>
  <fix>3d</fix>
</trkpt>
<trkpt lat="33.810313" lon="-118.393867">
  <ele>-19.68</ele>
  <time>2026-09-02T22:08:04Z</time>
  <course>0.0</course>
  <speed>0.0</speed>
  <fix>3d</fix>
</trkpt>
<trkpt lat="33.8103132" lon="-118.3938671">
  <ele>-20.331</ele>
  <time>2026-09-02T22:08:04Z</time>
  <course>186.26</course>
  <speed>0.022360679774997897</speed>
  <fix>3d</fix>
</trkpt>
<trkpt lat="33.8103132" lon="-118.3938671">
  <ele>-20.372</ele>
  <time>2026-09-02T22:08:04Z</time>
  <course>186.26</course>
  <speed>0.022360679774997897</speed>
  <fix>3d</fix>
</trkpt>
<trkpt lat="33.810313" lon="-118.393867">
  <ele>-19.68</ele>
  <time>2026-09-02T22:08:04Z</time>
  <course>0.0</course>
  <speed>0.0</speed>
  <fix>3d</fix>
</trkpt>
<trkpt lat="33.8103132" lon="-118.3938671">
  <ele>-20.393</ele>
  <time>2026-09-02T22:08:04Z</time>
  <course>186.25</course>
  <speed>0.022360679774997897</speed>
  <fix>3d</fix>
</trkpt>
<trkpt lat="33.8103132" lon="-118.3938671">
  <ele>-20.434</ele>
  <time>2026-09-02T22:08:04Z</time>
  <course>186.25</course>
  <speed>0.022360679774997897</speed>
  <fix>3d</fix>
</trkpt>
<trkpt lat="33.810313" lon="-118.393867">
  <ele>-19.81</ele>
  <time>2026-09-02T22:08:04Z</time>
  <course>0.0</course>
  <speed>0.0</speed>
  <fix>3d</fix>
</trkpt>
<trkpt lat="33.8103132" lon="-118.3938671">
  <ele>-20.436</ele>
  <time>2026-09-02T22:08:04Z</time>
  <course>186.25</course>
  <speed>0.022360679774997897</speed>
  <fix>3d</fix>
</trkpt>
<trkpt lat="33.8103132" lon="-118.3938671">
  <ele>-20.497</ele>
  <time>2026-09-02T22:08:04Z</time>
  <course>186.25</course>
  <speed>0.022360679774997897</speed>
  <fix>3d</fix>
</trkpt>
<trkpt lat="33.810313" lon="-118.393867">
  <ele>-19.81</ele>
  <time>2026-09-02T22:08:04Z</time>
  <course>0.0</course>
  <speed>0.0</speed>
  <fix>3d</fix>
</trkpt>
<trkpt lat="33.8103132" lon="-118.3938671">
  <ele>-20.498</ele>
  <time>2026-09-02T22:08:04Z</time>
  <course>186.25</course>
  <speed>0.022360679774997897</speed>
  <fix>3d</fix>
</trkpt>
<trkpt lat="33.8103132" lon="-118.3938671">
  <ele>-20.56</ele>
  <time>2026-09-02T22:08:04Z</time>
  <course>186.24</course>
  <speed>0.022360679774997897</speed>
  <fix>3d</fix>
</trkpt>
<trkpt lat="33.810313" lon="-118.393867">
  <ele>-19.93</ele>
  <time>2026-09-02T22:08:04Z</time>
  <course>0.0</course>
  <speed>0.0</speed>
  <fix>3d</fix>
</trkpt>
<trkpt lat="33.8103132" lon="-118.3938671">
  <ele>-20.58</ele>
  <time>2026-09-02T22:08:04Z</time>
  <course>186.24</course>
  <speed>0.022360679774997897</speed>
  <fix>3d</fix>
</trkpt>
<trkpt lat="33.8103132" lon="-118.3938671">
  <ele>-20.622</ele>
  <time>2026-09-02T22:08:04Z</time>
  <course>186.24</course>
  <speed>0.022360679774997897</speed>
  <fix>3d</fix>
</trkpt>
<trkpt lat="33.810313" lon="-118.393867">
  <ele>-19.93</ele>
  <time>2026-09-02T22:08:04Z</time>
  <course>0.0</course>
  <speed>0.0</speed>
  <fix>3d</fix>
</trkpt>
<trkpt lat="33.8103132" lon="-118.3938671">
  <ele>-20.644</ele>
  <time>2026-09-02T22:08:04Z</time>
  <course>186.24</course>
  <speed>0.022360679774997897</speed>
  <fix>3d</fix>
</trkpt>
<trkpt lat="33.8103132" lon="-118.3938671">
  <ele>-20.685</ele>
  <time>2026-09-02T22:08:04Z</time>
  <course>186.24</course>
  <speed>0.022360679774997897</speed>
  <fix>3d</fix>
</trkpt>
<trkpt lat="33.810313" lon="-118.393867">
  <ele>-20.05</ele>
  <time>2026-09-02T22:08:04Z</time>
  <course>0.0</course>
  <speed>0.0</speed>
  <fix>3d</fix>
</trkpt>
<trkpt lat="33.8103132" lon="-118.3938671">
  <ele>-20.707</ele>
  <time>2026-09-02T22:08:04Z</time>
  <course>186.24</course>
  <speed>0.022360679774997897</speed>
  <fix>3d</fix>
</trkpt>
<trkpt lat="33.8103132" lon="-118.3938671">
  <ele>-20.748</ele>
  <time>2026-09-02T22:08:04Z</time>
  <course>186.23</course>
  <speed>0.022360679774997897</speed>
  <fix>3d</fix>
</trkpt>
<trkpt lat="33.810313" lon="-118.393867">
  <ele>-20.05</ele>
  <time>2026-09-02T22:08:04Z</time>
  <course>0.0</course>
  <speed>0.0</speed>
  <fix>3d</fix>
</trkpt>
<trkpt lat="33.8103132" lon="-118.3938671">
  <ele>-20.771</ele>
  <time>2026-09-02T22:08:04Z</time>
  <course>186.23</course>
  <speed>0.022360679774997897</speed>
  <fix>3d</fix>
</trkpt>
<trkpt lat="33.8103132" lon="-118.3938671">
  <ele>-20.811</ele>
  <time>2026-09-02T22:08:04Z</time>
  <course>186.23</course>
  <speed>0.022360679774997897</speed>
  <fix>3d</fix>
</trkpt>
<trkpt lat="33.810313" lon="-118.393867">
  <ele>-20.17</ele>
  <time>2026-09-02T22:08:04Z</time>
  <course>0.0</course>
  <speed>0.0</speed>
  <fix>3d</fix>
</trkpt>
<trkpt lat="33.8103132" lon="-118.3938671">
  <ele>-20.83</ele>
  <time>2026-09-02T22:08:04Z</time>
  <course>186.23</course>
  <speed>0.022360679774997897</speed>
  <fix>3d</fix>
</trkpt>
<trkpt lat="33.8103132" lon="-118.3938671">
  <ele>-20.872</ele>
  <time>2026-09-02T22:08:04Z</time>
  <course>186.23</course>
  <speed>0.022360679774997897</speed>
  <fix>3d</fix>
</trkpt>
<trkpt lat="33.810313" lon="-118.393867">
  <ele>-20.17</ele>
  <time>2026-09-02T22:08:04Z</time>
  <course>0.0</course>
  <speed>0.0</speed>
  <fix>3d</fix>
</trkpt>
<trkpt lat="33.8103132" lon="-118.3938671">
  <ele>-20.894</ele>
  <time>2026-09-02T22:08:04Z</time>
  <course>186.22</course>
  <speed>0.022360679774997897</speed>
  <fix>3d</fix>
</trkpt>
<trkpt lat="33.8103132" lon="-118.3938671">
  <ele>-20.934</ele>
  <time>2026-09-02T22:08:04Z</time>
  <course>186.22</course>
  <speed>0.022360679774997897</speed>
  <fix>3d</fix>
</trkpt>
<trkpt lat="33.810313" lon="-118.393867">
  <ele>-20.29</ele>
  <time>2026-09-02T22:08:04Z</time>
  <course>0.0</course>
  <speed>0.0</speed>
  <fix>3d</fix>
</trkpt>
<trkpt lat="33.8103132" lon="-118.3938671">
  <ele>-20.953</ele>
  <time>2026-09-02T22:08:04Z</time>
  <course>186.22</course>
  <speed>0.022360679774997897</speed>
  <fix>3d</fix>
</trkpt>
<trkpt lat="33.8103132" lon="-118.3938671">
  <ele>-20.995</ele>
  <time>2026-09-02T22:08:04Z</time>
  <course>186.22</course>
  <speed>0.022360679774997897</speed>
  <fix>3d</fix>
</trkpt>
<trkpt lat="33.810313" lon="-118.393867">
  <ele>-20.29</ele>
  <time>2026-09-02T22:08:04Z</time>
  <course>0.0</course>
  <speed>0.0</speed>
  <fix>3d</fix>
</trkpt>
<trkpt lat="33.8103132" lon="-118.3938671">
  <ele>-20.996</ele>
  <time>2026-09-02T22:08:04Z</time>
  <course>186.22</course>
  <speed>0.022360679774997897</speed>
  <fix>3d</fix>
</trkpt>
<trkpt lat="33.8103132" lon="-118.3938671">
  <ele>-21.057</ele>
  <time>2026-09-02T22:08:04Z</time>
  <course>186.21</course>
  <speed>0.022360679774997897</speed>
  <fix>3d</fix>
</trkpt>
<trkpt lat="33.810313" lon="-118.393867">
  <ele>-20.42</ele>
  <time>2026-09-02T22:08:04Z</time>
  <course>0.0</course>
  <speed>0.0</speed>
  <fix>3d</fix>
</trkpt>
<trkpt lat="33.8103132" lon="-118.3938671">
  <ele>-21.058</ele>
  <time>2026-09-02T22:08:04Z</time>
  <course>186.21</course>
  <speed>0.022360679774997897</speed>
  <fix>3d</fix>
</trkpt>
<trkpt lat="33.8103132" lon="-118.3938671">
  <ele>-21.118</ele>
  <time>2026-09-02T22:08:04Z</time>
  <course>186.21</course>
  <speed>0.022360679774997897</speed>
  <fix>3d</fix>
</trkpt>
<trkpt lat="33.810313" lon="-118.393867">
  <ele>-20.42</ele>
  <time>2026-09-02T22:08:04Z</time>
  <course>0.0</course>
  <speed>0.0</speed>
  <fix>3d</fix>
</trkpt>
<trkpt lat="33.8103132" lon="-118.3938671">
  <ele>-21.119</ele>
  <time>2026-09-02T22:08:04Z</time>
  <course>186.21</course>
  <speed>0.022360679774997897</speed>
  <fix>3d</fix>
</trkpt>
<trkpt lat="33.8103132" lon="-118.3938671">
  <ele>-21.178</ele>
  <time>2026-09-02T22:08:04Z</time>
  <course>186.21</course>
  <speed>0.022360679774997897</speed>
  <fix>3d</fix>
</trkpt>
<trkpt lat="33.810313" lon="-118.393867">
  <ele>-20.54</ele>
  <time>2026-09-02T22:08:04Z</time>
  <course>0.0</course>
  <speed>0.0</speed>
  <fix>3d</fix>
</trkpt>
<trkpt lat="33.8103132" lon="-118.3938671">
  <ele>-21.18</ele>
  <time>2026-09-02T22:08:04Z</time>
  <course>186.21</course>
  <speed>0.022360679774997897</speed>
  <fix>3d</fix>
</trkpt>
<trkpt lat="33.8103132" lon="-118.3938671">
  <ele>-21.239</ele>
  <time>2026-09-02T22:08:04Z</time>
  <course>186.2</course>
  <speed>0.022360679774997897</speed>
  <fix>3d</fix>
</trkpt>
<trkpt lat="33.810313" lon="-118.393867">
  <ele>-20.54</ele>
  <time>2026-09-02T22:08:04Z</time>
  <course>0.0</course>
  <speed>0.0</speed>
  <fix>3d</fix>
</trkpt>
<trkpt lat="33.8103132" lon="-118.3938671">
  <ele>-21.26</ele>
  <time>2026-09-02T22:08:04Z</time>
  <course>186.2</course>
  <speed>0.022360679774997897</speed>
  <fix>3d</fix>
</trkpt>
<trkpt lat="33.8103132" lon="-118.3938671">
  <ele>-21.299</ele>
  <time>2026-09-02T22:08:04Z</time>
  <course>186.2</course>
  <speed>0.022360679774997897</speed>
  <fix>3d</fix>
</trkpt>
<trkpt lat="33.810313" lon="-118.393867">
  <ele>-20.66</ele>
  <time>2026-09-02T22:08:04Z</time>
  <course>0.0</course>
  <speed>0.0</speed>
  <fix>3d</fix>
</trkpt>
<trkpt lat="33.8103132" lon="-118.3938671">
  <ele>-21.32</ele>
  <time>2026-09-02T22:08:04Z</time>
  <course>186.2</course>
  <speed>0.022360679774997897</speed>
  <fix>3d</fix>
</trkpt>
<trkpt lat="33.8103132" lon="-118.3938671">
  <ele>-21.36</ele>
  <time>2026-09-02T22:08:04Z</time>
  <course>186.19</course>
  <speed>0.022360679774997897</speed>
  <fix>3d</fix>
</trkpt>
<trkpt lat="33.810313" lon="-118.393867">
  <ele>-20.66</ele>
  <time>2026-09-02T22:08:04Z</time>
  <course>0.0</course>
  <speed>0.0</speed>
  <fix>3d</fix>
</trkpt>
<trkpt lat="33.8103132" lon="-118.3938671">
  <ele>-21.38</ele>
  <time>2026-09-02T22:08:04Z</time>
  <course>186.19</course>
  <speed>0.022360679774997897</speed>
  <fix>3d</fix>
</trkpt>
<trkpt lat="33.8103132" lon="-118.3938671">
  <ele>-21.422</ele>
  <time>2026-09-02T22:08:04Z</time>
  <course>186.19</course>
  <speed>0.022360679774997897</speed>
  <fix>3d</fix>
</trkpt>
<trkpt lat="33.810313" lon="-118.393867">
  <ele>-20.77</ele>
  <time>2026-09-02T22:08:04Z</time>
  <course>0.0</course>
  <speed>0.0</speed>
  <fix>3d</fix>
</trkpt>
<trkpt lat="33.8103132" lon="-118.3938671">
  <ele>-21.443</ele>
  <time>2026-09-02T22:08:04Z</time>
  <course>186.19</course>
  <speed>0.022360679774997897</speed>
  <fix>3d</fix>
</trkpt>
<trkpt lat="33.8103132" lon="-118.3938671">
  <ele>-21.484</ele>
  <time>2026-09-02T22:08:04Z</time>
  <course>186.19</course>
  <speed>0.022360679774997897</speed>
  <fix>3d</fix>
</trkpt>
<trkpt lat="33.810313" lon="-118.393867">
  <ele>-20.77</ele>
  <time>2026-09-02T22:08:04Z</time>
  <course>0.0</course>
  <speed>0.0</speed>
  <fix>3d</fix>
</trkpt>
<trkpt lat="33.8103132" lon="-118.3938671">
  <ele>-21.506</ele>
  <time>2026-09-02T22:08:04Z</time>
  <course>186.18</course>
  <speed>0.022360679774997897</speed>
  <fix>3d</fix>
</trkpt>
<trkpt lat="33.8103132" lon="-118.3938671">
  <ele>-21.547</ele>
  <time>2026-09-02T22:08:04Z</time>
  <course>186.18</course>
  <speed>0.022360679774997897</speed>
  <fix>3d</fix>
</trkpt>
<trkpt lat="33.810313" lon="-118.393867">
  <ele>-20.9</ele>
  <time>2026-09-02T22:08:04Z</time>
  <course>0.0</course>
  <speed>0.0</speed>
  <fix>3d</fix>
</trkpt>
<trkpt lat="33.8103132" lon="-118.3938671">
  <ele>-21.548</ele>
  <time>2026-09-02T22:08:04Z</time>
  <course>186.18</course>
  <speed>0.022360679774997897</speed>
  <fix>3d</fix>
</trkpt>
<trkpt lat="33.8103132" lon="-118.3938671">
  <ele>-21.609</ele>
  <time>2026-09-02T22:08:04Z</time>
  <course>186.18</course>
  <speed>0.022360679774997897</speed>
  <fix>3d</fix>
</trkpt>
<trkpt lat="33.810313" lon="-118.393867">
  <ele>-20.9</ele>
  <time>2026-09-02T22:08:04Z</time>
  <course>0.0</course>
  <speed>0.0</speed>
  <fix>3d</fix>
</trkpt>
<trkpt lat="33.8103132" lon="-118.3938671">
  <ele>-21.629</ele>
  <time>2026-09-02T22:08:04Z</time>
  <course>186.18</course>
  <speed>0.022360679774997897</speed>
  <fix>3d</fix>
</trkpt>
<trkpt lat="33.8103132" lon="-118.3938671">
  <ele>-21.671</ele>
  <time>2026-09-02T22:08:04Z</time>
  <course>186.17</course>
  <speed>0.022360679774997897</speed>
  <fix>3d</fix>
</trkpt>
<trkpt lat="33.810313" lon="-118.393867">
  <ele>-21.02</ele>
  <time>2026-09-02T22:08:04Z</time>
  <course>0.0</course>
  <speed>0.0</speed>
  <fix>3d</fix>
</trkpt>
<trkpt lat="33.8103132" lon="-118.3938671">
  <ele>-21.691</ele>
  <time>2026-09-02T22:08:04Z</time>
  <course>186.17</course>
  <speed>0.022360679774997897</speed>
  <fix>3d</fix>
</trkpt>
<trkpt lat="33.8103132" lon="-118.3938671">
  <ele>-21.733</ele>
  <time>2026-09-02T22:08:04Z</time>
  <course>186.17</course>
  <speed>0.022360679774997897</speed>
  <fix>3d</fix>
</trkpt>
<trkpt lat="33.810313" lon="-118.393867">
  <ele>-21.02</ele>
  <time>2026-09-02T22:08:04Z</time>
  <course>0.0</course>
  <speed>0.0</speed>
  <fix>3d</fix>
</trkpt>
<trkpt lat="33.8103132" lon="-118.3938671">
  <ele>-21.754</ele>
  <time>2026-09-02T22:08:04Z</time>
  <course>186.17</course>
  <speed>0.022360679774997897</speed>
  <fix>3d</fix>
</trkpt>
<trkpt lat="33.8103132" lon="-118.3938671">
  <ele>-21.794</ele>
  <time>2026-09-02T22:08:04Z</time>
  <course>186.17</course>
  <speed>0.022360679774997897</speed>
  <fix>3d</fix>
</trkpt>
<trkpt lat="33.810313" lon="-118.393867">
  <ele>-21.14</ele>
  <time>2026-09-02T22:08:04Z</time>
  <course>0.0</course>
  <speed>0.0</speed>
  <fix>3d</fix>
</trkpt>
<trkpt lat="33.8103132" lon="-118.3938671">
  <ele>-21.814</ele>
  <time>2026-09-02T22:08:04Z</time>
  <course>186.16</course>
  <speed>0.022360679774997897</speed>
  <fix>3d</fix>
</trkpt>
<trkpt lat="33.8103132" lon="-118.3938671">
  <ele>-21.855</ele>
  <time>2026-09-02T22:08:04Z</time>
  <course>186.16</course>
  <speed>0.022360679774997897</speed>
  <fix>3d</fix>
</trkpt>
<trkpt lat="33.810313" lon="-118.393867">
  <ele>-21.14</ele>
  <time>2026-09-02T22:08:04Z</time>
  <course>0.0</course>
  <speed>0.0</speed>
  <fix>3d</fix>
</trkpt>
<trkpt lat="33.8103132" lon="-118.3938671">
  <ele>-21.856</ele>
  <time>2026-09-02T22:08:04Z</time>
  <course>186.16</course>
  <speed>0.022360679774997897</speed>
  <fix>3d</fix>
</trkpt>
<trkpt lat="33.8103132" lon="-118.3938671">
  <ele>-21.916</ele>
  <time>2026-09-02T22:08:04Z</time>
  <course>186.16</course>
  <speed>0.022360679774997897</speed>
  <fix>3d</fix>
</trkpt>
<trkpt lat="33.810313" lon="-118.393867">
  <ele>-21.26</ele>
  <time>2026-09-02T22:08:04Z</time>
  <course>0.0</course>
  <speed>0.0</speed>
  <fix>3d</fix>
</trkpt>
<trkpt lat="33.8103132" lon="-118.3938671">
  <ele>-21.937</ele>
  <time>2026-09-02T22:08:04Z</time>
  <course>186.16</course>
  <speed>0.022360679774997897</speed>
  <fix>3d</fix>
</trkpt>
<trkpt lat="33.8103132" lon="-118.3938671">
  <ele>-21.977</ele>
  <time>2026-09-02T22:08:04Z</time>
  <course>186.15</course>
  <speed>0.022360679774997897</speed>
  <fix>3d</fix>
</trkpt>
<trkpt lat="33.810313" lon="-118.393867">
  <ele>-21.26</ele>
  <time>2026-09-02T22:08:04Z</time>
  <course>0.0</course>
  <speed>0.0</speed>
  <fix>3d</fix>
</trkpt>
<trkpt lat="33.8103132" lon="-118.3938671">
  <ele>-21.996</ele>
  <time>2026-09-02T22:08:04Z</time>
  <course>186.15</course>
  <speed>0.022360679774997897</speed>
  <fix>3d</fix>
</trkpt>
<trkpt lat="33.8103132" lon="-118.3938671">
  <ele>-22.037</ele>
  <time>2026-09-02T22:08:04Z</time>
  <course>186.15</course>
  <speed>0.022360679774997897</speed>
  <fix>3d</fix>
</trkpt>
<trkpt lat="33.810313" lon="-118.393867">
  <ele>-21.38</ele>
  <time>2026-09-02T22:08:04Z</time>
  <course>0.0</course>
  <speed>0.0</speed>
  <fix>3d</fix>
</trkpt>
<trkpt lat="33.8103132" lon="-118.3938671">
  <ele>-22.058</ele>
  <time>2026-09-02T22:08:04Z</time>
  <course>186.15</course>
  <speed>0.022360679774997897</speed>
  <fix>3d</fix>
</trkpt>
<trkpt lat="33.8103132" lon="-118.3938671">
  <ele>-22.097</ele>
  <time>2026-09-02T22:08:04Z</time>
  <course>186.15</course>
  <speed>0.022360679774997897</speed>
  <fix>3d</fix>
</trkpt>
<trkpt lat="33.810313" lon="-118.393867">
  <ele>-21.38</ele>
  <time>2026-09-02T22:08:04Z</time>
  <course>0.0</course>
  <speed>0.0</speed>
  <fix>3d</fix>
</trkpt>
<trkpt lat="33.8103132" lon="-118.3938671">
  <ele>-22.118</ele>
  <time>2026-09-02T22:08:04Z</time>
  <course>186.14</course>
  <speed>0.022360679774997897</speed>
  <fix>3d</fix>
</trkpt>
<trkpt lat="33.8103132" lon="-118.3938671">
  <ele>-22.158</ele>
  <time>2026-09-02T22:08:04Z</time>
  <course>186.14</course>
  <speed>0.022360679774997897</speed>
  <fix>3d</fix>
</trkpt>
<trkpt lat="33.810313" lon="-118.393867">
  <ele>-21.5</ele>
  <time>2026-09-02T22:08:04Z</time>
  <course>0.0</course>
  <speed>0.0</speed>
  <fix>3d</fix>
</trkpt>
<trkpt lat="33.8103132" lon="-118.3938671">
  <ele>-22.18</ele>
  <time>2026-09-02T22:08:04Z</time>
  <course>186.14</course>
  <speed>0.022360679774997897</speed>
  <fix>3d</fix>
</trkpt>
<trkpt lat="33.8103132" lon="-118.3938671">
  <ele>-22.22</ele>
  <time>2026-09-02T22:08:04Z</time>
  <course>186.14</course>
  <speed>0.022360679774997897</speed>
  <fix>3d</fix>
</trkpt>
<trkpt lat="33.810313" lon="-118.393867">
  <ele>-21.5</ele>
  <time>2026-09-02T22:08:04Z</time>
  <course>0.0</course>
  <speed>0.0</speed>
  <fix>3d</fix>
</trkpt>
<trkpt lat="33.8103132" lon="-118.3938671">
  <ele>-22.239</ele>
  <time>2026-09-02T22:08:04Z</time>
  <course>186.14</course>
  <speed>0.022360679774997897</speed>
  <fix>3d</fix>
</trkpt>
<trkpt lat="33.8103132" lon="-118.3938671">
  <ele>-22.281</ele>
  <time>2026-09-02T22:08:04Z</time>
  <course>186.13</course>
  <speed>0.022360679774997897</speed>
  <fix>3d</fix>
</trkpt>
<trkpt lat="33.810313" lon="-118.393867">
  <ele>-21.61</ele>
  <time>2026-09-02T22:08:04Z</time>
  <course>0.0</course>
  <speed>0.0</speed>
  <fix>3d</fix>
</trkpt>
<trkpt lat="33.8103132" lon="-118.3938671">
  <ele>-22.302</ele>
  <time>2026-09-02T22:08:04Z</time>
  <course>186.13</course>
  <speed>0.022360679774997897</speed>
  <fix>3d</fix>
</trkpt>
<trkpt lat="33.8103132" lon="-118.3938671">
  <ele>-22.342</ele>
  <time>2026-09-02T22:08:04Z</time>
  <course>186.13</course>
  <speed>0.022360679774997897</speed>
  <fix>3d</fix>
</trkpt>
<trkpt lat="33.810313" lon="-118.393867">
  <ele>-21.61</ele>
  <time>2026-09-02T22:08:04Z</time>
  <course>0.0</course>
  <speed>0.0</speed>
  <fix>3d</fix>
</trkpt>
<trkpt lat="33.8103132" lon="-118.3938671">
  <ele>-22.362</ele>
  <time>2026-09-02T22:08:04Z</time>
  <course>186.13</course>
  <speed>0.022360679774997897</speed>
  <fix>3d</fix>
</trkpt>
<trkpt lat="33.8103132" lon="-118.3938671">
  <ele>-22.403</ele>
  <time>2026-09-02T22:08:04Z</time>
  <course>186.13</course>
  <speed>0.022360679774997897</speed>
  <fix>3d</fix>
</trkpt>
<trkpt lat="33.810313" lon="-118.393867">
  <ele>-21.74</ele>
  <time>2026-09-02T22:08:04Z</time>
  <course>0.0</course>
  <speed>0.0</speed>
  <fix>3d</fix>
</trkpt>
<trkpt lat="33.8103132" lon="-118.3938671">
  <ele>-22.424</ele>
  <time>2026-09-02T22:08:04Z</time>
  <course>186.12</course>
  <speed>0.022360679774997897</speed>
  <fix>3d</fix>
</trkpt>
<trkpt lat="33.8103132" lon="-118.3938671">
  <ele>-22.464</ele>
  <time>2026-09-02T22:08:04Z</time>
  <course>186.12</course>
  <speed>0.022360679774997897</speed>
  <fix>3d</fix>
</trkpt>
<trkpt lat="33.810313" lon="-118.393867">
  <ele>-21.74</ele>
  <time>2026-09-02T22:08:04Z</time>
  <course>0.0</course>
  <speed>0.0</speed>
  <fix>3d</fix>
</trkpt>
<trkpt lat="33.8103132" lon="-118.3938671">
  <ele>-22.484</ele>
  <time>2026-09-02T22:08:04Z</time>
  <course>186.12</course>
  <speed>0.022360679774997897</speed>
  <fix>3d</fix>
</trkpt>
<trkpt lat="33.8103132" lon="-118.3938671">
  <ele>-22.526</ele>
  <time>2026-09-02T22:08:04Z</time>
  <course>186.12</course>
  <speed>0.022360679774997897</speed>
  <fix>3d</fix>
</trkpt>
<trkpt lat="33.810313" lon="-118.393867">
  <ele>-21.86</ele>
  <time>2026-09-02T22:08:04Z</time>
  <course>0.0</course>
  <speed>0.0</speed>
  <fix>3d</fix>
</trkpt>
<trkpt lat="33.8103132" lon="-118.3938671">
  <ele>-22.528</ele>
  <time>2026-09-02T22:08:04Z</time>
  <course>186.12</course>
  <speed>0.022360679774997897</speed>
  <fix>3d</fix>
</trkpt>
<trkpt lat="33.8103132" lon="-118.3938671">
  <ele>-22.589</ele>
  <time>2026-09-02T22:08:04Z</time>
  <course>186.11</course>
  <speed>0.022360679774997897</speed>
  <fix>3d</fix>
</trkpt>
<trkpt lat="33.810313" lon="-118.393867">
  <ele>-21.86</ele>
  <time>2026-09-02T22:08:04Z</time>
  <course>0.0</course>
  <speed>0.0</speed>
  <fix>3d</fix>
</trkpt>
<trkpt lat="33.8103132" lon="-118.3938671">
  <ele>-22.61</ele>
  <time>2026-09-02T22:08:04Z</time>
  <course>186.11</course>
  <speed>0.022360679774997897</speed>
  <fix>3d</fix>
</trkpt>
<trkpt lat="33.8103132" lon="-118.3938671">
  <ele>-22.65</ele>
  <time>2026-09-02T22:08:04Z</time>
  <course>186.11</course>
  <speed>0.022360679774997897</speed>
  <fix>3d</fix>
</trkpt>
<trkpt lat="33.810313" lon="-118.393867">
  <ele>-21.98</ele>
  <time>2026-09-02T22:08:04Z</time>
  <course>0.0</course>
  <speed>0.0</speed>
  <fix>3d</fix>
</trkpt>
<trkpt lat="33.8103132" lon="-118.3938671">
  <ele>-22.668</ele>
  <time>2026-09-02T22:08:04Z</time>
  <course>186.11</course>
  <speed>0.022360679774997897</speed>
  <fix>3d</fix>
</trkpt>
<trkpt lat="33.8103132" lon="-118.3938671">
  <ele>-22.71</ele>
  <time>2026-09-02T22:08:04Z</time>
  <course>186.1</course>
  <speed>0.022360679774997897</speed>
  <fix>3d</fix>
</trkpt>
<trkpt lat="33.810313" lon="-118.393867">
  <ele>-21.98</ele>
  <time>2026-09-02T22:08:04Z</time>
  <course>0.0</course>
  <speed>0.0</speed>
  <fix>3d</fix>
</trkpt>
<trkpt lat="33.8103132" lon="-118.3938671">
  <ele>-22.73</ele>
  <time>2026-09-02T22:08:04Z</time>
  <course>186.1</course>
  <speed>0.022360679774997897</speed>
  <fix>3d</fix>
</trkpt>
<trkpt lat="33.8103132" lon="-118.3938671">
  <ele>-22.771</ele>
  <time>2026-09-02T22:08:04Z</time>
  <course>186.1</course>
  <speed>0.022360679774997897</speed>
  <fix>3d</fix>
</trkpt>
<trkpt lat="33.810313" lon="-118.393867">
  <ele>-22.11</ele>
  <time>2026-09-02T22:08:04Z</time>
  <course>0.0</course>
  <speed>0.0</speed>
  <fix>3d</fix>
</trkpt>
<trkpt lat="33.8103132" lon="-118.3938671">
  <ele>-22.79</ele>
  <time>2026-09-02T22:08:04Z</time>
  <course>186.1</course>
  <speed>0.022360679774997897</speed>
  <fix>3d</fix>
</trkpt>
<trkpt lat="33.8103132" lon="-118.3938671">
  <ele>-22.832</ele>
  <time>2026-09-02T22:08:04Z</time>
  <course>186.1</course>
  <speed>0.022360679774997897</speed>
  <fix>3d</fix>
</trkpt>
<trkpt lat="33.810313" lon="-118.393867">
  <ele>-22.11</ele>
  <time>2026-09-02T22:08:04Z</time>
  <course>0.0</course>
  <speed>0.0</speed>
  <fix>3d</fix>
</trkpt>
<trkpt lat="33.8103132" lon="-118.3938671">
  <ele>-22.85</ele>
  <time>2026-09-02T22:08:04Z</time>
  <course>186.1</course>
  <speed>0.022360679774997897</speed>
  <fix>3d</fix>
</trkpt>
<trkpt lat="33.8103132" lon="-118.3938671">
  <ele>-22.893</ele>
  <time>2026-09-02T22:08:04Z</time>
  <course>186.09</course>
  <speed>0.022360679774997897</speed>
  <fix>3d</fix>
</trkpt>
<trkpt lat="33.810313" lon="-118.393867">
  <ele>-22.23</ele>
  <time>2026-09-02T22:08:04Z</time>
  <course>0.0</course>
  <speed>0.0</speed>
  <fix>3d</fix>
</trkpt>
<trkpt lat="33.8103132" lon="-118.3938671">
  <ele>-22.912</ele>
  <time>2026-09-02T22:08:04Z</time>
  <course>186.09</course>
  <speed>0.022360679774997897</speed>
  <fix>3d</fix>
</trkpt>
<trkpt lat="33.8103132" lon="-118.3938671">
  <ele>-22.954</ele>
  <time>2026-09-02T22:08:04Z</time>
  <course>186.09</course>
  <speed>0.022360679774997897</speed>
  <fix>3d</fix>
</trkpt>
<trkpt lat="33.810313" lon="-118.393867">
  <ele>-22.23</ele>
  <time>2026-09-02T22:08:04Z</time>
  <course>0.0</course>
  <speed>0.0</speed>
  <fix>3d</fix>
</trkpt>
<trkpt lat="33.8103132" lon="-118.3938671">
  <ele>-22.955</ele>
  <time>2026-09-02T22:08:04Z</time>
  <course>186.09</course>
  <speed>0.022360679774997897</speed>
  <fix>3d</fix>
</trkpt>
<trkpt lat="33.8103132" lon="-118.3938671">
  <ele>-23.015</ele>
  <time>2026-09-02T22:08:04Z</time>
  <course>186.08</course>
  <speed>0.022360679774997897</speed>
  <fix>3d</fix>
</trkpt>
<trkpt lat="33.810313" lon="-118.393867">
  <ele>-22.35</ele>
  <time>2026-09-02T22:08:04Z</time>
  <course>0.0</course>
  <speed>0.0</speed>
  <fix>3d</fix>
</trkpt>
<trkpt lat="33.8103132" lon="-118.3938671">
  <ele>-23.036</ele>
  <time>2026-09-02T22:08:04Z</time>
  <course>186.08</course>
  <speed>0.022360679774997897</speed>
  <fix>3d</fix>
</trkpt>
<trkpt lat="33.8103132" lon="-118.3938671">
  <ele>-23.075</ele>
  <time>2026-09-02T22:08:04Z</time>
  <course>186.08</course>
  <speed>0.022360679774997897</speed>
  <fix>3d</fix>
</trkpt>
<trkpt lat="33.810313" lon="-118.393867">
  <ele>-22.35</ele>
  <time>2026-09-02T22:08:04Z</time>
  <course>0.0</course>
  <speed>0.0</speed>
  <fix>3d</fix>
</trkpt>
<trkpt lat="33.8103132" lon="-118.3938671">
  <ele>-23.095</ele>
  <time>2026-09-02T22:08:04Z</time>
  <course>186.08</course>
  <speed>0.022360679774997897</speed>
  <fix>3d</fix>
</trkpt>
<trkpt lat="33.8103132" lon="-118.3938671">
  <ele>-23.136</ele>
  <time>2026-09-02T22:08:04Z</time>
  <course>186.08</course>
  <speed>0.022360679774997897</speed>
  <fix>3d</fix>
</trkpt>
<trkpt lat="33.810313" lon="-118.393867">
  <ele>-22.47</ele>
  <time>2026-09-02T22:08:04Z</time>
  <course>0.0</course>
  <speed>0.0</speed>
  <fix>3d</fix>
</trkpt>
<trkpt lat="33.8103132" lon="-118.3938671">
  <ele>-23.157</ele>
  <time>2026-09-02T22:08:04Z</time>
  <course>186.07</course>
  <speed>0.022360679774997897</speed>
  <fix>3d</fix>
</trkpt>
<trkpt lat="33.8103132" lon="-118.3938671">
  <ele>-23.196</ele>
  <time>2026-09-02T22:08:04Z</time>
  <course>186.07</course>
  <speed>0.022360679774997897</speed>
  <fix>3d</fix>
</trkpt>
<trkpt lat="33.810313" lon="-118.393867">
  <ele>-22.47</ele>
  <time>2026-09-02T22:08:04Z</time>
  <course>0.0</course>
  <speed>0.0</speed>
  <fix>3d</fix>
</trkpt>
<trkpt lat="33.8103132" lon="-118.3938671">
  <ele>-23.197</ele>
  <time>2026-09-02T22:08:04Z</time>
  <course>186.07</course>
  <speed>0.022360679774997897</speed>
  <fix>3d</fix>
</trkpt>
<trkpt lat="33.8103132" lon="-118.3938671">
  <ele>-23.256</ele>
  <time>2026-09-02T22:08:04Z</time>
  <course>186.07</course>
  <speed>0.022360679774997897</speed>
  <fix>3d</fix>
</trkpt>
<trkpt lat="33.810313" lon="-118.393867">
  <ele>-22.59</ele>
  <time>2026-09-02T22:08:04Z</time>
  <course>0.0</course>
  <speed>0.0</speed>
  <fix>3d</fix>
</trkpt>
<trkpt lat="33.8103132" lon="-118.3938671">
  <ele>-23.258</ele>
  <time>2026-09-02T22:08:04Z</time>
  <course>186.07</course>
  <speed>0.022360679774997897</speed>
  <fix>3d</fix>
</trkpt>
<trkpt lat="33.8103132" lon="-118.3938671">
  <ele>-23.318</ele>
  <time>2026-09-02T22:08:04Z</time>
  <course>186.06</course>
  <speed>0.022360679774997897</speed>
  <fix>3d</fix>
</trkpt>
<trkpt lat="33.810313" lon="-118.393867">
  <ele>-22.59</ele>
  <time>2026-09-02T22:08:04Z</time>
  <course>0.0</course>
  <speed>0.0</speed>
  <fix>3d</fix>
</trkpt>
<trkpt lat="33.8103132" lon="-118.3938671">
  <ele>-23.34</ele>
  <time>2026-09-02T22:08:04Z</time>
  <course>186.06</course>
  <speed>0.022360679774997897</speed>
  <fix>3d</fix>
</trkpt>
<trkpt lat="33.8103132" lon="-118.3938671">
  <ele>-23.381</ele>
  <time>2026-09-02T22:08:04Z</time>
  <course>186.06</course>
  <speed>0.022360679774997897</speed>
  <fix>3d</fix>
</trkpt>
<trkpt lat="33.810313" lon="-118.393867">
  <ele>-22.71</ele>
  <time>2026-09-02T22:08:04Z</time>
  <course>0.0</course>
  <speed>0.0</speed>
  <fix>3d</fix>
</trkpt>
<trkpt lat="33.8103132" lon="-118.3938671">
  <ele>-23.401</ele>
  <time>2026-09-02T22:08:04Z</time>
  <course>186.06</course>
  <speed>0.022360679774997897</speed>
  <fix>3d</fix>
</trkpt>
<trkpt lat="33.8103132" lon="-118.3938671">
  <ele>-23.445</ele>
  <time>2026-09-02T22:08:04Z</time>
  <course>186.05</course>
  <speed>0.022360679774997897</speed>
  <fix>3d</fix>
</trkpt>
<trkpt lat="33.810313" lon="-118.393867">
  <ele>-22.71</ele>
  <time>2026-09-02T22:08:04Z</time>
  <course>0.0</course>
  <speed>0.0</speed>
  <fix>3d</fix>
</trkpt>
<trkpt lat="33.8103132" lon="-118.3938671">
  <ele>-23.468</ele>
  <time>2026-09-02T22:08:04Z</time>
  <course>186.05</course>
  <speed>0.022360679774997897</speed>
  <fix>3d</fix>
</trkpt>
<trkpt lat="33.8103132" lon="-118.3938671">
  <ele>-23.509</ele>
  <time>2026-09-02T22:08:04Z</time>
  <course>186.05</course>
  <speed>0.022360679774997897</speed>
  <fix>3d</fix>
</trkpt>
<trkpt lat="33.810313" lon="-118.393867">
  <ele>-22.83</ele>
  <time>2026-09-02T22:08:04Z</time>
  <course>0.0</course>
  <speed>0.0</speed>
  <fix>3d</fix>
</trkpt>
<trkpt lat="33.8103132" lon="-118.3938671">
  <ele>-23.531</ele>
  <time>2026-09-02T22:08:04Z</time>
  <course>186.05</course>
  <speed>0.022360679774997897</speed>
  <fix>3d</fix>
</trkpt>
<trkpt lat="33.8103132" lon="-118.3938671">
  <ele>-23.573</ele>
  <time>2026-09-02T22:08:04Z</time>
  <course>186.05</course>
  <speed>0.022360679774997897</speed>
  <fix>3d</fix>
</trkpt>
<trkpt lat="33.810313" lon="-118.393867">
  <ele>-22.83</ele>
  <time>2026-09-02T22:08:04Z</time>
  <course>0.0</course>
  <speed>0.0</speed>
  <fix>3d</fix>
</trkpt>
<trkpt lat="33.8103132" lon="-118.3938671">
  <ele>-23.574</ele>
  <time>2026-09-02T22:08:04Z</time>
  <course>186.05</course>
  <speed>0.022360679774997897</speed>
  <fix>3d</fix>
</trkpt>
<trkpt lat="33.8103132" lon="-118.3938671">
  <ele>-23.636</ele>
  <time>2026-09-02T22:08:04Z</time>
  <course>186.04</course>
  <speed>0.022360679774997897</speed>
  <fix>3d</fix>
</trkpt>
<trkpt lat="33.810313" lon="-118.393867">
  <ele>-22.95</ele>
  <time>2026-09-02T22:08:04Z</time>
  <course>0.0</course>
  <speed>0.0</speed>
  <fix>3d</fix>
</trkpt>
<trkpt lat="33.8103132" lon="-118.3938671">
  <ele>-23.659</ele>
  <time>2026-09-02T22:08:04Z</time>
  <course>186.04</course>
  <speed>0.022360679774997897</speed>
  <fix>3d</fix>
</trkpt>
<trkpt lat="33.8103132" lon="-118.3938671">
  <ele>-23.699</ele>
  <time>2026-09-02T22:08:04Z</time>
  <course>186.04</course>
  <speed>0.022360679774997897</speed>
  <fix>3d</fix>
</trkpt>
<trkpt lat="33.810313" lon="-118.393867">
  <ele>-22.95</ele>
  <time>2026-09-02T22:08:04Z</time>
  <course>0.0</course>
  <speed>0.0</speed>
  <fix>3d</fix>
</trkpt>
<trkpt lat="33.8103132" lon="-118.3938671">
  <ele>-23.719</ele>
  <time>2026-09-02T22:08:04Z</time>
  <course>186.04</course>
  <speed>0.022360679774997897</speed>
  <fix>3d</fix>
</trkpt>
<trkpt lat="33.8103132" lon="-118.3938671">
  <ele>-23.762</ele>
  <time>2026-09-02T22:08:04Z</time>
  <course>186.03</course>
  <speed>0.022360679774997897</speed>
  <fix>3d</fix>
</trkpt>
<trkpt lat="33.810313" lon="-118.393867">
  <ele>-23.07</ele>
  <time>2026-09-02T22:08:04Z</time>
  <course>0.0</course>
  <speed>0.0</speed>
  <fix>3d</fix>
</trkpt>
<trkpt lat="33.8103132" lon="-118.3938671">
  <ele>-23.763</ele>
  <time>2026-09-02T22:08:04Z</time>
  <course>186.03</course>
  <speed>0.022360679774997897</speed>
  <fix>3d</fix>
</trkpt>
<trkpt lat="33.8103132" lon="-118.3938671">
  <ele>-23.825</ele>
  <time>2026-09-02T22:08:04Z</time>
  <course>186.03</course>
  <speed>0.022360679774997897</speed>
  <fix>3d</fix>
</trkpt>
<trkpt lat="33.810313" lon="-118.393867">
  <ele>-23.07</ele>
  <time>2026-09-02T22:08:04Z</time>
  <course>0.0</course>
  <speed>0.0</speed>
  <fix>3d</fix>
</trkpt>
<trkpt lat="33.8103132" lon="-118.3938671">
  <ele>-23.847</ele>
  <time>2026-09-02T22:08:04Z</time>
  <course>186.03</course>
  <speed>0.022360679774997897</speed>
  <fix>3d</fix>
</trkpt>
<trkpt lat="33.8103132" lon="-118.3938671">
  <ele>-23.888</ele>
  <time>2026-09-02T22:08:04Z</time>
  <course>186.03</course>
  <speed>0.022360679774997897</speed>
  <fix>3d</fix>
</trkpt>
<trkpt lat="33.810313" lon="-118.393867">
  <ele>-23.18</ele>
  <time>2026-09-02T22:08:04Z</time>
  <course>0.0</course>
  <speed>0.0</speed>
  <fix>3d</fix>
</trkpt>
<trkpt lat="33.8103132" lon="-118.3938671">
  <ele>-23.89</ele>
  <time>2026-09-02T22:08:04Z</time>
  <course>186.03</course>
  <speed>0.022360679774997897</speed>
  <fix>3d</fix>
</trkpt>
<trkpt lat="33.8103132" lon="-118.3938671">
  <ele>-23.95</ele>
  <time>2026-09-02T22:08:04Z</time>
  <course>186.02</course>
  <speed>0.022360679774997897</speed>
  <fix>3d</fix>
</trkpt>
<trkpt lat="33.810313" lon="-118.393867">
  <ele>-23.18</ele>
  <time>2026-09-02T22:08:04Z</time>
  <course>0.0</course>
  <speed>0.0</speed>
  <fix>3d</fix>
</trkpt>
<trkpt lat="33.8103132" lon="-118.3938671">
  <ele>-23.972</ele>
  <time>2026-09-02T22:08:04Z</time>
  <course>186.02</course>
  <speed>0.022360679774997897</speed>
  <fix>3d</fix>
</trkpt>
<trkpt lat="33.8103132" lon="-118.3938671">
  <ele>-24.012</ele>
  <time>2026-09-02T22:08:04Z</time>
  <course>186.02</course>
  <speed>0.022360679774997897</speed>
  <fix>3d</fix>
</trkpt>
<trkpt lat="33.810313" lon="-118.393867">
  <ele>-23.31</ele>
  <time>2026-09-02T22:08:04Z</time>
  <course>0.0</course>
  <speed>0.0</speed>
  <fix>3d</fix>
</trkpt>
<trkpt lat="33.8103132" lon="-118.3938671">
  <ele>-24.032</ele>
  <time>2026-09-02T22:08:04Z</time>
  <course>186.02</course>
  <speed>0.022360679774997897</speed>
  <fix>3d</fix>
</trkpt>
<trkpt lat="33.8103132" lon="-118.3938671">
  <ele>-24.074</ele>
  <time>2026-09-02T22:08:04Z</time>
  <course>186.01</course>
  <speed>0.022360679774997897</speed>
  <fix>3d</fix>
</trkpt>
<trkpt lat="33.810313" lon="-118.393867">
  <ele>-23.31</ele>
  <time>2026-09-02T22:08:04Z</time>
  <course>0.0</course>
  <speed>0.0</speed>
  <fix>3d</fix>
</trkpt>
<trkpt lat="33.8103132" lon="-118.3938671">
  <ele>-24.094</ele>
  <time>2026-09-02T22:08:04Z</time>
  <course>186.01</course>
  <speed>0.022360679774997897</speed>
  <fix>3d</fix>
</trkpt>
<trkpt lat="33.8103132" lon="-118.3938671">
  <ele>-24.135</ele>
  <time>2026-09-02T22:08:04Z</time>
  <course>186.01</course>
  <speed>0.022360679774997897</speed>
  <fix>3d</fix>
</trkpt>
<trkpt lat="33.810313" lon="-118.393867">
  <ele>-23.43</ele>
  <time>2026-09-02T22:08:04Z</time>
  <course>0.0</course>
  <speed>0.0</speed>
  <fix>3d</fix>
</trkpt>
<trkpt lat="33.8103132" lon="-118.3938671">
  <ele>-24.159</ele>
  <time>2026-09-02T22:08:04Z</time>
  <course>186.01</course>
  <speed>0.022360679774997897</speed>
  <fix>3d</fix>
</trkpt>
<trkpt lat="33.8103132" lon="-118.3938671">
  <ele>-24.197</ele>
  <time>2026-09-02T22:08:04Z</time>
  <course>186.01</course>
  <speed>0.022360679774997897</speed>
  <fix>3d</fix>
</trkpt>
<trkpt lat="33.810313" lon="-118.393867">
  <ele>-23.43</ele>
  <time>2026-09-02T22:08:04Z</time>
  <course>0.0</course>
  <speed>0.0</speed>
  <fix>3d</fix>
</trkpt>
<trkpt lat="33.8103132" lon="-118.3938671">
  <ele>-24.199</ele>
  <time>2026-09-02T22:08:04Z</time>
  <course>186.01</course>
  <speed>0.022360679774997897</speed>
  <fix>3d</fix>
</trkpt>
<trkpt lat="33.8103132" lon="-118.3938671">
  <ele>-24.258</ele>
  <time>2026-09-02T22:08:04Z</time>
  <course>186.0</course>
  <speed>0.022360679774997897</speed>
  <fix>3d</fix>
</trkpt>
<trkpt lat="33.810313" lon="-118.393867">
  <ele>-23.55</ele>
  <time>2026-09-02T22:08:04Z</time>
  <course>0.0</course>
  <speed>0.0</speed>
  <fix>3d</fix>
</trkpt>
<trkpt lat="33.8103132" lon="-118.3938671">
  <ele>-24.278</ele>
  <time>2026-09-02T22:08:04Z</time>
  <course>186.0</course>
  <speed>0.022360679774997897</speed>
  <fix>3d</fix>
</trkpt>
<trkpt lat="33.8103132" lon="-118.3938671">
  <ele>-24.319</ele>
  <time>2026-09-02T22:08:04Z</time>
  <course>186.0</course>
  <speed>0.022360679774997897</speed>
  <fix>3d</fix>
</trkpt>
<trkpt lat="33.810313" lon="-118.393867">
  <ele>-23.55</ele>
  <time>2026-09-02T22:08:04Z</time>
  <course>0.0</course>
  <speed>0.0</speed>
  <fix>3d</fix>
</trkpt>
<trkpt lat="33.8103132" lon="-118.3938671">
  <ele>-24.342</ele>
  <time>2026-09-02T22:08:04Z</time>
  <course>186.0</course>
  <speed>0.022360679774997897</speed>
  <fix>3d</fix>
</trkpt>
<trkpt lat="33.8103132" lon="-118.3938671">
  <ele>-24.38</ele>
  <time>2026-09-02T22:08:04Z</time>
  <course>185.99</course>
  <speed>0.022360679774997897</speed>
  <fix>3d</fix>
</trkpt>
<trkpt lat="33.810313" lon="-118.393867">
  <ele>-23.67</ele>
  <time>2026-09-02T22:08:04Z</time>
  <course>0.0</course>
  <speed>0.0</speed>
  <fix>3d</fix>
</trkpt>
<trkpt lat="33.8103132" lon="-118.3938671">
  <ele>-24.399</ele>
  <time>2026-09-02T22:08:04Z</time>
  <course>185.99</course>
  <speed>0.022360679774997897</speed>
  <fix>3d</fix>
</trkpt>
<trkpt lat="33.8103132" lon="-118.3938671">
  <ele>-24.44</ele>
  <time>2026-09-02T22:08:04Z</time>
  <course>185.99</course>
  <speed>0.022360679774997897</speed>
  <fix>3d</fix>
</trkpt>
<trkpt lat="33.810313" lon="-118.393867">
  <ele>-23.67</ele>
  <time>2026-09-02T22:08:04Z</time>
  <course>0.0</course>
  <speed>0.0</speed>
  <fix>3d</fix>
</trkpt>
<trkpt lat="33.8103132" lon="-118.3938671">
  <ele>-24.46</ele>
  <time>2026-09-02T22:08:04Z</time>
  <course>185.99</course>
  <speed>0.022360679774997897</speed>
  <fix>3d</fix>
</trkpt>
<trkpt lat="33.8103132" lon="-118.3938671">
  <ele>-24.5</ele>
  <time>2026-09-02T22:08:04Z</time>
  <course>185.99</course>
  <speed>0.022360679774997897</speed>
  <fix>3d</fix>
</trkpt>
<trkpt lat="33.810313" lon="-118.393867">
  <ele>-23.79</ele>
  <time>2026-09-02T22:08:04Z</time>
  <course>0.0</course>
  <speed>0.0</speed>
  <fix>3d</fix>
</trkpt>
<trkpt lat="33.8103132" lon="-118.3938671">
  <ele>-24.503</ele>
  <time>2026-09-02T22:08:04Z</time>
  <course>185.98</course>
  <speed>0.022360679774997897</speed>
  <fix>3d</fix>
</trkpt>
<trkpt lat="33.8103132" lon="-118.3938671">
  <ele>-24.561</ele>
  <time>2026-09-02T22:08:04Z</time>
  <course>185.98</course>
  <speed>0.022360679774997897</speed>
  <fix>3d</fix>
</trkpt>
<trkpt lat="33.810313" lon="-118.393867">
  <ele>-23.79</ele>
  <time>2026-09-02T22:08:04Z</time>
  <course>0.0</course>
  <speed>0.0</speed>
  <fix>3d</fix>
</trkpt>
<trkpt lat="33.8103132" lon="-118.3938671">
  <ele>-24.562</ele>
  <time>2026-09-02T22:08:04Z</time>
  <course>185.98</course>
  <speed>0.022360679774997897</speed>
  <fix>3d</fix>
</trkpt>
<trkpt lat="33.8103132" lon="-118.3938671">
  <ele>-24.622</ele>
  <time>2026-09-02T22:08:04Z</time>
  <course>185.98</course>
  <speed>0.022360679774997897</speed>
  <fix>3d</fix>
</trkpt>
<trkpt lat="33.810313" lon="-118.393867">
  <ele>-23.91</ele>
  <time>2026-09-02T22:08:04Z</time>
  <course>0.0</course>
  <speed>0.0</speed>
  <fix>3d</fix>
</trkpt>
<trkpt lat="33.8103132" lon="-118.3938671">
  <ele>-24.641</ele>
  <time>2026-09-02T22:08:04Z</time>
  <course>185.98</course>
  <speed>0.022360679774997897</speed>
  <fix>3d</fix>
</trkpt>
<trkpt lat="33.8103132" lon="-118.3938671">
  <ele>-24.683</ele>
  <time>2026-09-02T22:08:04Z</time>
  <course>185.97</course>
  <speed>0.022360679774997897</speed>
  <fix>3d</fix>
</trkpt>
<trkpt lat="33.810313" lon="-118.393867">
  <ele>-23.91</ele>
  <time>2026-09-02T22:08:04Z</time>
  <course>0.0</course>
  <speed>0.0</speed>
  <fix>3d</fix>
</trkpt>
<trkpt lat="33.8103132" lon="-118.3938671">
  <ele>-24.702</ele>
  <time>2026-09-02T22:08:04Z</time>
  <course>185.97</course>
  <speed>0.022360679774997897</speed>
  <fix>3d</fix>
</trkpt>
<trkpt lat="33.8103132" lon="-118.3938671">
  <ele>-24.744</ele>
  <time>2026-09-02T22:08:04Z</time>
  <course>185.97</course>
  <speed>0.022360679774997897</speed>
  <fix>3d</fix>
</trkpt>
<trkpt lat="33.810313" lon="-118.393867">
  <ele>-24.04</ele>
  <time>2026-09-02T22:08:04Z</time>
  <course>0.0</course>
  <speed>0.0</speed>
  <fix>3d</fix>
</trkpt>
<trkpt lat="33.8103132" lon="-118.3938671">
  <ele>-24.764</ele>
  <time>2026-09-02T22:08:04Z</time>
  <course>185.97</course>
  <speed>0.022360679774997897</speed>
  <fix>3d</fix>
</trkpt>
<trkpt lat="33.8103132" lon="-118.3938671">
  <ele>-24.806</ele>
  <time>2026-09-02T22:08:04Z</time>
  <course>185.96</course>
  <speed>0.022360679774997897</speed>
  <fix>3d</fix>
</trkpt>
<trkpt lat="33.810313" lon="-118.393867">
  <ele>-24.04</ele>
  <time>2026-09-02T22:08:04Z</time>
  <course>0.0</course>
  <speed>0.0</speed>
  <fix>3d</fix>
</trkpt>
<trkpt lat="33.8103132" lon="-118.3938671">
  <ele>-24.808</ele>
  <time>2026-09-02T22:08:04Z</time>
  <course>185.96</course>
  <speed>0.022360679774997897</speed>
  <fix>3d</fix>
</trkpt>
<trkpt lat="33.8103132" lon="-118.3938671">
  <ele>-24.869</ele>
  <time>2026-09-02T22:08:04Z</time>
  <course>185.96</course>
  <speed>0.022360679774997897</speed>
  <fix>3d</fix>
</trkpt>
<trkpt lat="33.810313" lon="-118.393867">
  <ele>-24.16</ele>
  <time>2026-09-02T22:08:04Z</time>
  <course>0.0</course>
  <speed>0.0</speed>
  <fix>3d</fix>
</trkpt>
<trkpt lat="33.8103132" lon="-118.3938671">
  <ele>-24.898</ele>
  <time>2026-09-02T22:08:04Z</time>
  <course>185.96</course>
  <speed>0.022360679774997897</speed>
  <fix>3d</fix>
</trkpt>
<trkpt lat="33.8103132" lon="-118.3938671">
  <ele>-24.931</ele>
  <time>2026-09-02T22:08:04Z</time>
  <course>185.96</course>
  <speed>0.022360679774997897</speed>
  <fix>3d</fix>
</trkpt>
<trkpt lat="33.810313" lon="-118.393867">
  <ele>-24.16</ele>
  <time>2026-09-02T22:08:04Z</time>
  <course>0.0</course>
  <speed>0.0</speed>
  <fix>3d</fix>
</trkpt>
<trkpt lat="33.8103132" lon="-118.3938671">
  <ele>-24.952</ele>
  <time>2026-09-02T22:08:04Z</time>
  <course>185.96</course>
  <speed>0.022360679774997897</speed>
  <fix>3d</fix>
</trkpt>
<trkpt lat="33.8103132" lon="-118.3938671">
  <ele>-24.992</ele>
  <time>2026-09-02T22:08:04Z</time>
  <course>185.95</course>
  <speed>0.022360679774997897</speed>
  <fix>3d</fix>
</trkpt>
<trkpt lat="33.810313" lon="-118.393867">
  <ele>-24.27</ele>
  <time>2026-09-02T22:08:04Z</time>
  <course>0.0</course>
  <speed>0.0</speed>
  <fix>3d</fix>
</trkpt>
<trkpt lat="33.8103132" lon="-118.3938671">
  <ele>-25.013</ele>
  <time>2026-09-02T22:08:04Z</time>
  <course>185.95</course>
  <speed>0.022360679774997897</speed>
  <fix>3d</fix>
</trkpt>
<trkpt lat="33.8103132" lon="-118.3938671">
  <ele>-25.053</ele>
  <time>2026-09-02T22:08:04Z</time>
  <course>185.95</course>
  <speed>0.022360679774997897</speed>
  <fix>3d</fix>
</trkpt>
<trkpt lat="33.810313" lon="-118.393867">
  <ele>-24.27</ele>
  <time>2026-09-02T22:08:04Z</time>
  <course>0.0</course>
  <speed>0.0</speed>
  <fix>3d</fix>
</trkpt>
<trkpt lat="33.8103132" lon="-118.3938671">
  <ele>-25.077</ele>
  <time>2026-09-02T22:08:04Z</time>
  <course>185.95</course>
  <speed>0.022360679774997897</speed>
  <fix>3d</fix>
</trkpt>
<trkpt lat="33.8103132" lon="-118.3938671">
  <ele>-25.114</ele>
  <time>2026-09-02T22:08:04Z</time>
  <course>185.94</course>
  <speed>0.022360679774997897</speed>
  <fix>3d</fix>
</trkpt>
<trkpt lat="33.810313" lon="-118.393867">
  <ele>-24.4</ele>
  <time>2026-09-02T22:08:04Z</time>
  <course>0.0</course>
  <speed>0.0</speed>
  <fix>3d</fix>
</trkpt>
<trkpt lat="33.8103132" lon="-118.3938671">
  <ele>-25.116</ele>
  <time>2026-09-02T22:08:04Z</time>
  <course>185.94</course>
  <speed>0.022360679774997897</speed>
  <fix>3d</fix>
</trkpt>
<trkpt lat="33.8103132" lon="-118.3938671">
  <ele>-25.175</ele>
  <time>2026-09-02T22:08:04Z</time>
  <course>185.94</course>
  <speed>0.022360679774997897</speed>
  <fix>3d</fix>
</trkpt>
<trkpt lat="33.810313" lon="-118.393867">
  <ele>-24.4</ele>
  <time>2026-09-02T22:08:04Z</time>
  <course>0.0</course>
  <speed>0.0</speed>
  <fix>3d</fix>
</trkpt>
<trkpt lat="33.8103132" lon="-118.3938671">
  <ele>-25.194</ele>
  <time>2026-09-02T22:08:04Z</time>
  <course>185.94</course>
  <speed>0.022360679774997897</speed>
  <fix>3d</fix>
</trkpt>
<trkpt lat="33.8103132" lon="-118.3938671">
  <ele>-25.236</ele>
  <time>2026-09-02T22:08:04Z</time>
  <course>185.94</course>
  <speed>0.022360679774997897</speed>
  <fix>3d</fix>
</trkpt>
<trkpt lat="33.810313" lon="-118.393867">
  <ele>-24.52</ele>
  <time>2026-09-02T22:08:04Z</time>
  <course>0.0</course>
  <speed>0.0</speed>
  <fix>3d</fix>
</trkpt>
<trkpt lat="33.8103132" lon="-118.3938671">
  <ele>-25.239</ele>
  <time>2026-09-02T22:08:04Z</time>
  <course>185.94</course>
  <speed>0.022360679774997897</speed>
  <fix>3d</fix>
</trkpt>
<trkpt lat="33.8103132" lon="-118.3938671">
  <ele>-25.299</ele>
  <time>2026-09-02T22:08:04Z</time>
  <course>185.93</course>
  <speed>0.022360679774997897</speed>
  <fix>3d</fix>
</trkpt>
<trkpt lat="33.810313" lon="-118.393867">
  <ele>-24.52</ele>
  <time>2026-09-02T22:08:04Z</time>
  <course>0.0</course>
  <speed>0.0</speed>
  <fix>3d</fix>
</trkpt>
<trkpt lat="33.8103132" lon="-118.3938671">
  <ele>-25.319</ele>
  <time>2026-09-02T22:08:04Z</time>
  <course>185.93</course>
  <speed>0.022360679774997897</speed>
  <fix>3d</fix>
</trkpt>
<trkpt lat="33.8103132" lon="-118.3938671">
  <ele>-25.362</ele>
  <time>2026-09-02T22:08:04Z</time>
  <course>185.93</course>
  <speed>0.022360679774997897</speed>
  <fix>3d</fix>
</trkpt>
<trkpt lat="33.810313" lon="-118.393867">
  <ele>-24.64</ele>
  <time>2026-09-02T22:08:04Z</time>
  <course>0.0</course>
  <speed>0.0</speed>
  <fix>3d</fix>
</trkpt>
<trkpt lat="33.8103132" lon="-118.3938671">
  <ele>-25.384</ele>
  <time>2026-09-02T22:08:04Z</time>
  <course>185.93</course>
  <speed>0.022360679774997897</speed>
  <fix>3d</fix>
</trkpt>
<trkpt lat="33.8103132" lon="-118.3938671">
  <ele>-25.424</ele>
  <time>2026-09-02T22:08:04Z</time>
  <course>185.92</course>
  <speed>0.022360679774997897</speed>
  <fix>3d</fix>
</trkpt>
<trkpt lat="33.810313" lon="-118.393867">
  <ele>-24.64</ele>
  <time>2026-09-02T22:08:04Z</time>
  <course>0.0</course>
  <speed>0.0</speed>
  <fix>3d</fix>
</trkpt>
<trkpt lat="33.8103132" lon="-118.3938671">
  <ele>-25.426</ele>
  <time>2026-09-02T22:08:04Z</time>
  <course>185.92</course>
  <speed>0.022360679774997897</speed>
  <fix>3d</fix>
</trkpt>
<trkpt lat="33.8103132" lon="-118.3938671">
  <ele>-25.487</ele>
  <time>2026-09-02T22:08:04Z</time>
  <course>185.92</course>
  <speed>0.022360679774997897</speed>
  <fix>3d</fix>
</trkpt>
<trkpt lat="33.810313" lon="-118.393867">
  <ele>-24.76</ele>
  <time>2026-09-02T22:08:04Z</time>
  <course>0.0</course>
  <speed>0.0</speed>
  <fix>3d</fix>
</trkpt>
<trkpt lat="33.8103132" lon="-118.3938671">
  <ele>-25.509</ele>
  <time>2026-09-02T22:08:04Z</time>
  <course>185.92</course>
  <speed>0.022360679774997897</speed>
  <fix>3d</fix>
</trkpt>
<trkpt lat="33.8103132" lon="-118.3938671">
  <ele>-25.55</ele>
  <time>2026-09-02T22:08:04Z</time>
  <course>185.92</course>
  <speed>0.022360679774997897</speed>
  <fix>3d</fix>
</trkpt>
<trkpt lat="33.810313" lon="-118.393867">
  <ele>-24.76</ele>
  <time>2026-09-02T22:08:04Z</time>
  <course>0.0</course>
  <speed>0.0</speed>
  <fix>3d</fix>
</trkpt>
<trkpt lat="33.8103132" lon="-118.3938671">
  <ele>-25.572</ele>
  <time>2026-09-02T22:08:04Z</time>
  <course>185.92</course>
  <speed>0.022360679774997897</speed>
  <fix>3d</fix>
</trkpt>
<trkpt lat="33.8103132" lon="-118.3938671">
  <ele>-25.613</ele>
  <time>2026-09-02T22:08:04Z</time>
  <course>185.91</course>
  <speed>0.022360679774997897</speed>
  <fix>3d</fix>
</trkpt>
<trkpt lat="33.810313" lon="-118.393867">
  <ele>-24.88</ele>
  <time>2026-09-02T22:08:04Z</time>
  <course>0.0</course>
  <speed>0.0</speed>
  <fix>3d</fix>
</trkpt>
<trkpt lat="33.8103132" lon="-118.3938671">
  <ele>-25.634</ele>
  <time>2026-09-02T22:08:04Z</time>
  <course>185.91</course>
  <speed>0.022360679774997897</speed>
  <fix>3d</fix>
</trkpt>
<trkpt lat="33.8103132" lon="-118.3938671">
  <ele>-25.675</ele>
  <time>2026-09-02T22:08:04Z</time>
  <course>185.91</course>
  <speed>0.022360679774997897</speed>
  <fix>3d</fix>
</trkpt>
<trkpt lat="33.810313" lon="-118.393867">
  <ele>-24.88</ele>
  <time>2026-09-02T22:08:04Z</time>
  <course>0.0</course>
  <speed>0.0</speed>
  <fix>3d</fix>
</trkpt>
<trkpt lat="33.8103132" lon="-118.3938671">
  <ele>-25.699</ele>
  <time>2026-09-02T22:08:04Z</time>
  <course>185.91</course>
  <speed>0.022360679774997897</speed>
  <fix>3d</fix>
</trkpt>
<trkpt lat="33.8103132" lon="-118.3938671">
  <ele>-25.738</ele>
  <time>2026-09-02T22:08:04Z</time>
  <course>185.9</course>
  <speed>0.022360679774997897</speed>
  <fix>3d</fix>
</trkpt>
<trkpt lat="33.810313" lon="-118.393867">
  <ele>-25.0</ele>
  <time>2026-09-02T22:08:04Z</time>
  <course>0.0</course>
  <speed>0.0</speed>
  <fix>3d</fix>
</trkpt>
<trkpt lat="33.8103132" lon="-118.3938671">
  <ele>-25.74</ele>
  <time>2026-09-02T22:08:04Z</time>
  <course>185.9</course>
  <speed>0.022360679774997897</speed>
  <fix>3d</fix>
</trkpt>
<trkpt lat="33.8103132" lon="-118.3938671">
  <ele>-25.801</ele>
  <time>2026-09-02T22:08:04Z</time>
  <course>185.9</course>
  <speed>0.022360679774997897</speed>
  <fix>3d</fix>
</trkpt>
<trkpt lat="33.810313" lon="-118.393867">
  <ele>-25.0</ele>
  <time>2026-09-02T22:08:04Z</time>
  <course>0.0</course>
  <speed>0.0</speed>
  <fix>3d</fix>
</trkpt>
<trkpt lat="33.8103132" lon="-118.3938671">
  <ele>-25.823</ele>
  <time>2026-09-02T22:08:04Z</time>
  <course>185.9</course>
  <speed>0.022360679774997897</speed>
  <fix>3d</fix>
</trkpt>
<trkpt lat="33.8103132" lon="-118.3938671">
  <ele>-25.864</ele>
  <time>2026-09-02T22:08:04Z</time>
  <course>185.9</course>
  <speed>0.022360679774997897</speed>
  <fix>3d</fix>
</trkpt>
<trkpt lat="33.810313" lon="-118.393867">
  <ele>-25.11</ele>
  <time>2026-09-02T22:08:04Z</time>
  <course>0.0</course>
  <speed>0.0</speed>
  <fix>3d</fix>
</trkpt>
<trkpt lat="33.8103132" lon="-118.3938671">
  <ele>-25.884</ele>
  <time>2026-09-02T22:08:04Z</time>
  <course>185.9</course>
  <speed>0.022360679774997897</speed>
  <fix>3d</fix>
</trkpt>
<trkpt lat="33.8103132" lon="-118.3938671">
  <ele>-25.927</ele>
  <time>2026-09-02T22:08:04Z</time>
  <course>185.89</course>
  <speed>0.022360679774997897</speed>
  <fix>3d</fix>
</trkpt>
<trkpt lat="33.810313" lon="-118.393867">
  <ele>-25.11</ele>
  <time>2026-09-02T22:08:04Z</time>
  <course>0.0</course>
  <speed>0.0</speed>
  <fix>3d</fix>
</trkpt>
<trkpt lat="33.8103132" lon="-118.3938671">
  <ele>-25.928</ele>
  <time>2026-09-02T22:08:04Z</time>
  <course>185.89</course>
  <speed>0.022360679774997897</speed>
  <fix>3d</fix>
</trkpt>
<trkpt lat="33.8103132" lon="-118.3938671">
  <ele>-25.989</ele>
  <time>2026-09-02T22:08:04Z</time>
  <course>185.89</course>
  <speed>0.022360679774997897</speed>
  <fix>3d</fix>
</trkpt>
<trkpt lat="33.810313" lon="-118.393867">
  <ele>-25.24</ele>
  <time>2026-09-02T22:08:04Z</time>
  <course>0.0</course>
  <speed>0.0</speed>
  <fix>3d</fix>
</trkpt>
<trkpt lat="33.8103132" lon="-118.3938671">
  <ele>-25.99</ele>
  <time>2026-09-02T22:08:04Z</time>
  <course>185.89</course>
  <speed>0.022360679774997897</speed>
  <fix>3d</fix>
</trkpt>
<trkpt lat="33.8103132" lon="-118.3938671">
  <ele>-26.052</ele>
  <time>2026-09-02T22:08:04Z</time>
  <course>185.89</course>
  <speed>0.022360679774997897</speed>
  <fix>3d</fix>
</trkpt>
<trkpt lat="33.810313" lon="-118.393867">
  <ele>-25.24</ele>
  <time>2026-09-02T22:08:04Z</time>
  <course>0.0</course>
  <speed>0.0</speed>
  <fix>3d</fix>
</trkpt>
<trkpt lat="33.8103132" lon="-118.3938671">
  <ele>-26.054</ele>
  <time>2026-09-02T22:08:04Z</time>
  <course>185.88</course>
  <speed>0.022360679774997897</speed>
  <fix>3d</fix>
</trkpt>
<trkpt lat="33.8103132" lon="-118.3938671">
  <ele>-26.116</ele>
  <time>2026-09-02T22:08:04Z</time>
  <course>185.88</course>
  <speed>0.022360679774997897</speed>
  <fix>3d</fix>
</trkpt>
<trkpt lat="33.810313" lon="-118.393867">
  <ele>-25.36</ele>
  <time>2026-09-02T22:08:04Z</time>
  <course>0.0</course>
  <speed>0.0</speed>
  <fix>3d</fix>
</trkpt>
<trkpt lat="33.8103132" lon="-118.3938671">
  <ele>-26.136</ele>
  <time>2026-09-02T22:08:04Z</time>
  <course>185.88</course>
  <speed>0.022360679774997897</speed>
  <fix>3d</fix>
</trkpt>
<trkpt lat="33.8103132" lon="-118.3938671">
  <ele>-26.178</ele>
  <time>2026-09-02T22:08:04Z</time>
  <course>185.88</course>
  <speed>0.022360679774997897</speed>
  <fix>3d</fix>
</trkpt>
<trkpt lat="33.810313" lon="-118.393867">
  <ele>-25.36</ele>
  <time>2026-09-02T22:08:04Z</time>
  <course>0.0</course>
  <speed>0.0</speed>
  <fix>3d</fix>
</trkpt>
<trkpt lat="33.8103132" lon="-118.3938671">
  <ele>-26.2</ele>
  <time>2026-09-02T22:08:04Z</time>
  <course>185.88</course>
  <speed>0.022360679774997897</speed>
  <fix>3d</fix>
</trkpt>
<trkpt lat="33.8103132" lon="-118.3938671">
  <ele>-26.24</ele>
  <time>2026-09-02T22:08:04Z</time>
  <course>185.87</course>
  <speed>0.022360679774997897</speed>
  <fix>3d</fix>
</trkpt>
<trkpt lat="33.810313" lon="-118.393867">
  <ele>-25.48</ele>
  <time>2026-09-02T22:08:04Z</time>
  <course>0.0</course>
  <speed>0.0</speed>
  <fix>3d</fix>
</trkpt>
<trkpt lat="33.8103132" lon="-118.3938671">
  <ele>-26.26</ele>
  <time>2026-09-02T22:08:04Z</time>
  <course>185.87</course>
  <speed>0.022360679774997897</speed>
  <fix>3d</fix>
</trkpt>
<trkpt lat="33.8103132" lon="-118.3938671">
  <ele>-26.302</ele>
  <time>2026-09-02T22:08:04Z</time>
  <course>185.87</course>
  <speed>0.022360679774997897</speed>
  <fix>3d</fix>
</trkpt>
<trkpt lat="33.810313" lon="-118.393867">
  <ele>-25.48</ele>
  <time>2026-09-02T22:08:04Z</time>
  <course>0.0</course>
  <speed>0.0</speed>
  <fix>3d</fix>
</trkpt>
<trkpt lat="33.8103132" lon="-118.3938671">
  <ele>-26.328</ele>
  <time>2026-09-02T22:08:04Z</time>
  <course>185.87</course>
  <speed>0.022360679774997897</speed>
  <fix>3d</fix>
</trkpt>
<trkpt lat="33.8103132" lon="-118.3938671">
  <ele>-26.365</ele>
  <time>2026-09-02T22:08:04Z</time>
  <course>185.87</course>
  <speed>0.022360679774997897</speed>
  <fix>3d</fix>
</trkpt>
<trkpt lat="33.810313" lon="-118.393867">
  <ele>-25.6</ele>
  <time>2026-09-02T22:08:04Z</time>
  <course>0.0</course>
  <speed>0.0</speed>
  <fix>3d</fix>
</trkpt>
<trkpt lat="33.8103132" lon="-118.3938671">
  <ele>-26.366</ele>
  <time>2026-09-02T22:08:04Z</time>
  <course>185.87</course>
  <speed>0.022360679774997897</speed>
  <fix>3d</fix>
</trkpt>
<trkpt lat="33.8103132" lon="-118.3938671">
  <ele>-26.427</ele>
  <time>2026-09-02T22:08:04Z</time>
  <course>185.86</course>
  <speed>0.022360679774997897</speed>
  <fix>3d</fix>
</trkpt>
<trkpt lat="33.810313" lon="-118.393867">
  <ele>-25.6</ele>
  <time>2026-09-02T22:08:04Z</time>
  <course>0.0</course>
  <speed>0.0</speed>
  <fix>3d</fix>
</trkpt>
<trkpt lat="33.8103132" lon="-118.3938671">
  <ele>-26.447</ele>
  <time>2026-09-02T22:08:04Z</time>
  <course>185.86</course>
  <speed>0.022360679774997897</speed>
  <fix>3d</fix>
</trkpt>
<trkpt lat="33.8103132" lon="-118.3938671">
  <ele>-26.488</ele>
  <time>2026-09-02T22:08:04Z</time>
  <course>185.86</course>
  <speed>0.022360679774997897</speed>
  <fix>3d</fix>
</trkpt>
<trkpt lat="33.810313" lon="-118.393867">
  <ele>-25.72</ele>
  <time>2026-09-02T22:08:04Z</time>
  <course>0.0</course>
  <speed>0.0</speed>
  <fix>3d</fix>
</trkpt>
<trkpt lat="33.8103132" lon="-118.3938671">
  <ele>-26.514</ele>
  <time>2026-09-02T22:08:04Z</time>
  <course>185.86</course>
  <speed>0.022360679774997897</speed>
  <fix>3d</fix>
</trkpt>
<trkpt lat="33.8103132" lon="-118.3938671">
  <ele>-26.55</ele>
  <time>2026-09-02T22:08:04Z</time>
  <course>185.85</course>
  <speed>0.022360679774997897</speed>
  <fix>3d</fix>
</trkpt>
<trkpt lat="33.810313" lon="-118.393867">
  <ele>-25.72</ele>
  <time>2026-09-02T22:08:04Z</time>
  <course>0.0</course>
  <speed>0.0</speed>
  <fix>3d</fix>
</trkpt>
<trkpt lat="33.8103132" lon="-118.3938671">
  <ele>-26.57</ele>
  <time>2026-09-02T22:08:04Z</time>
  <course>185.85</course>
  <speed>0.022360679774997897</speed>
  <fix>3d</fix>
</trkpt>
<trkpt lat="33.8103132" lon="-118.3938671">
  <ele>-26.612</ele>
  <time>2026-09-02T22:08:04Z</time>
  <course>185.85</course>
  <speed>0.022360679774997897</speed>
  <fix>3d</fix>
</trkpt>
<trkpt lat="33.810313" lon="-118.393867">
  <ele>-25.85</ele>
  <time>2026-09-02T22:08:04Z</time>
  <course>0.0</course>
  <speed>0.0</speed>
  <fix>3d</fix>
</trkpt>
<trkpt lat="33.8103132" lon="-118.3938671">
  <ele>-26.614</ele>
  <time>2026-09-02T22:08:04Z</time>
  <course>185.85</course>
  <speed>0.022360679774997897</speed>
  <fix>3d</fix>
</trkpt>
<trkpt lat="33.8103132" lon="-118.3938671">
  <ele>-26.674</ele>
  <time>2026-09-02T22:08:04Z</time>
  <course>185.85</course>
  <speed>0.022360679774997897</speed>
  <fix>3d</fix>
</trkpt>
<trkpt lat="33.810313" lon="-118.393867">
  <ele>-25.85</ele>
  <time>2026-09-02T22:08:04Z</time>
  <course>0.0</course>
  <speed>0.0</speed>
  <fix>3d</fix>
</trkpt>
<trkpt lat="33.8103132" lon="-118.3938671">
  <ele>-26.676</ele>
  <time>2026-09-02T22:08:04Z</time>
  <course>185.85</course>
  <speed>0.022360679774997897</speed>
  <fix>3d</fix>
</trkpt>
<trkpt lat="33.8103132" lon="-118.3938671">
  <ele>-26.736</ele>
  <time>2026-09-02T22:08:04Z</time>
  <course>185.84</course>
  <speed>0.022360679774997897</speed>
  <fix>3d</fix>
</trkpt>
<trkpt lat="33.810313" lon="-118.393867">
  <ele>-25.97</ele>
  <time>2026-09-02T22:08:04Z</time>
  <course>0.0</course>
  <speed>0.0</speed>
  <fix>3d</fix>
</trkpt>
<trkpt lat="33.8103132" lon="-118.3938671">
  <ele>-26.758</ele>
  <time>2026-09-02T22:08:04Z</time>
  <course>185.84</course>
  <speed>0.022360679774997897</speed>
  <fix>3d</fix>
</trkpt>
<trkpt lat="33.8103132" lon="-118.3938671">
  <ele>-26.799</ele>
  <time>2026-09-02T22:08:04Z</time>
  <course>185.84</course>
  <speed>0.022360679774997897</speed>
  <fix>3d</fix>
</trkpt>
<trkpt lat="33.810313" lon="-118.393867">
  <ele>-25.97</ele>
  <time>2026-09-02T22:08:04Z</time>
  <course>0.0</course>
  <speed>0.0</speed>
  <fix>3d</fix>
</trkpt>
<trkpt lat="33.8103132" lon="-118.3938671">
  <ele>-26.821</ele>
  <time>2026-09-02T22:08:04Z</time>
  <course>185.84</course>
  <speed>0.022360679774997897</speed>
  <fix>3d</fix>
</trkpt>
<trkpt lat="33.8103132" lon="-118.3938671">
  <ele>-26.861</ele>
  <time>2026-09-02T22:08:04Z</time>
  <course>185.84</course>
  <speed>0.022360679774997897</speed>
  <fix>3d</fix>
</trkpt>
<trkpt lat="33.810313" lon="-118.393867">
  <ele>-26.09</ele>
  <time>2026-09-02T22:08:04Z</time>
  <course>0.0</course>
  <speed>0.0</speed>
  <fix>3d</fix>
</trkpt>
<trkpt lat="33.8103132" lon="-118.3938671">
  <ele>-26.883</ele>
  <time>2026-09-02T22:08:04Z</time>
  <course>185.84</course>
  <speed>0.022360679774997897</speed>
  <fix>3d</fix>
</trkpt>
<trkpt lat="33.8103132" lon="-118.3938671">
  <ele>-26.925</ele>
  <time>2026-09-02T22:08:04Z</time>
  <course>185.83</course>
  <speed>0.022360679774997897</speed>
  <fix>3d</fix>
</trkpt>
<trkpt lat="33.810313" lon="-118.393867">
  <ele>-26.09</ele>
  <time>2026-09-02T22:08:04Z</time>
  <course>0.0</course>
  <speed>0.0</speed>
  <fix>3d</fix>
</trkpt>
<trkpt lat="33.8103132" lon="-118.3938671">
  <ele>-26.947</ele>
  <time>2026-09-02T22:08:04Z</time>
  <course>185.83</course>
  <speed>0.022360679774997897</speed>
  <fix>3d</fix>
</trkpt>
<trkpt lat="33.8103132" lon="-118.3938671">
  <ele>-26.987</ele>
  <time>2026-09-02T22:08:04Z</time>
  <course>185.83</course>
  <speed>0.022360679774997897</speed>
  <fix>3d</fix>
</trkpt>
<trkpt lat="33.810313" lon="-118.393867">
  <ele>-26.21</ele>
  <time>2026-09-02T22:08:04Z</time>
  <course>0.0</course>
  <speed>0.0</speed>
  <fix>3d</fix>
</trkpt>
<trkpt lat="33.8103132" lon="-118.3938671">
  <ele>-26.989</ele>
  <time>2026-09-02T22:08:04Z</time>
  <course>185.83</course>
  <speed>0.022360679774997897</speed>
  <fix>3d</fix>
</trkpt>
<trkpt lat="33.8103132" lon="-118.3938671">
  <ele>-27.05</ele>
  <time>2026-09-02T22:08:04Z</time>
  <course>185.83</course>
  <speed>0.022360679774997897</speed>
  <fix>3d</fix>
</trkpt>
<trkpt lat="33.810313" lon="-118.393867">
  <ele>-26.21</ele>
  <time>2026-09-02T22:08:04Z</time>
  <course>0.0</course>
  <speed>0.0</speed>
  <fix>3d</fix>
</trkpt>
<trkpt lat="33.8103132" lon="-118.3938671">
  <ele>-27.07</ele>
  <time>2026-09-02T22:08:04Z</time>
  <course>185.82</course>
  <speed>0.022360679774997897</speed>
  <fix>3d</fix>
</trkpt>
<trkpt lat="33.8103132" lon="-118.3938671">
  <ele>-27.112</ele>
  <time>2026-09-02T22:08:04Z</time>
  <course>185.82</course>
  <speed>0.022360679774997897</speed>
  <fix>3d</fix>
</trkpt>
<trkpt lat="33.810313" lon="-118.393867">
  <ele>-26.33</ele>
  <time>2026-09-02T22:08:04Z</time>
  <course>0.0</course>
  <speed>0.0</speed>
  <fix>3d</fix>
</trkpt>
<trkpt lat="33.8103132" lon="-118.3938671">
  <ele>-27.134</ele>
  <time>2026-09-02T22:08:04Z</time>
  <course>185.82</course>
  <speed>0.022360679774997897</speed>
  <fix>3d</fix>
</trkpt>
<trkpt lat="33.8103132" lon="-118.3938671">
  <ele>-27.175</ele>
  <time>2026-09-02T22:08:04Z</time>
  <course>185.82</course>
  <speed>0.022360679774997897</speed>
  <fix>3d</fix>
</trkpt>
<trkpt lat="33.810313" lon="-118.393867">
  <ele>-26.33</ele>
  <time>2026-09-02T22:08:04Z</time>
  <course>0.0</course>
  <speed>0.0</speed>
  <fix>3d</fix>
</trkpt>
<trkpt lat="33.8103132" lon="-118.3938671">
  <ele>-27.177</ele>
  <time>2026-09-02T22:08:04Z</time>
  <course>185.82</course>
  <speed>0.022360679774997897</speed>
  <fix>3d</fix>
</trkpt>
<trkpt lat="33.8103132" lon="-118.3938671">
  <ele>-27.238</ele>
  <time>2026-09-02T22:08:04Z</time>
  <course>185.81</course>
  <speed>0.022360679774997897</speed>
  <fix>3d</fix>
</trkpt>
<trkpt lat="33.810313" lon="-118.393867">
  <ele>-26.45</ele>
  <time>2026-09-02T22:08:04Z</time>
  <course>0.0</course>
  <speed>0.0</speed>
  <fix>3d</fix>
</trkpt>
<trkpt lat="33.8103132" lon="-118.3938671">
  <ele>-27.239</ele>
  <time>2026-09-02T22:08:04Z</time>
  <course>185.81</course>
  <speed>0.022360679774997897</speed>
  <fix>3d</fix>
</trkpt>
<trkpt lat="33.8103132" lon="-118.3938671">
  <ele>-27.301</ele>
  <time>2026-09-02T22:08:04Z</time>
  <course>185.81</course>
  <speed>0.022360679774997897</speed>
  <fix>3d</fix>
</trkpt>
<trkpt lat="33.810313" lon="-118.393867">
  <ele>-26.45</ele>
  <time>2026-09-02T22:08:04Z</time>
  <course>0.0</course>
  <speed>0.0</speed>
  <fix>3d</fix>
</trkpt>
<trkpt lat="33.8103132" lon="-118.3938671">
  <ele>-27.302</ele>
  <time>2026-09-02T22:08:04Z</time>
  <course>185.81</course>
  <speed>0.022360679774997897</speed>
  <fix>3d</fix>
</trkpt>
<trkpt lat="33.8103132" lon="-118.3938671">
  <ele>-27.364</ele>
  <time>2026-09-02T22:08:04Z</time>
  <course>185.81</course>
  <speed>0.022360679774997897</speed>
  <fix>3d</fix>
</trkpt>
<trkpt lat="33.810313" lon="-118.393867">
  <ele>-26.57</ele>
  <time>2026-09-02T22:08:04Z</time>
  <course>0.0</course>
  <speed>0.0</speed>
  <fix>3d</fix>
</trkpt>
<trkpt lat="33.8103132" lon="-118.3938671">
  <ele>-27.386</ele>
  <time>2026-09-02T22:08:04Z</time>
  <course>185.81</course>
  <speed>0.022360679774997897</speed>
  <fix>3d</fix>
</trkpt>
<trkpt lat="33.8103132" lon="-118.3938671">
  <ele>-27.427</ele>
  <time>2026-09-02T22:08:04Z</time>
  <course>185.8</course>
  <speed>0.022360679774997897</speed>
  <fix>3d</fix>
</trkpt>
<trkpt lat="33.810313" lon="-118.393867">
  <ele>-26.57</ele>
  <time>2026-09-02T22:08:04Z</time>
  <course>0.0</course>
  <speed>0.0</speed>
  <fix>3d</fix>
</trkpt>
<trkpt lat="33.8103132" lon="-118.3938671">
  <ele>-27.449</ele>
  <time>2026-09-02T22:08:04Z</time>
  <course>185.8</course>
  <speed>0.022360679774997897</speed>
  <fix>3d</fix>
</trkpt>
<trkpt lat="33.8103132" lon="-118.3938671">
  <ele>-27.49</ele>
  <time>2026-09-02T22:08:04Z</time>
  <course>185.8</course>
  <speed>0.022360679774997897</speed>
  <fix>3d</fix>
</trkpt>
<trkpt lat="33.810313" lon="-118.393867">
  <ele>-26.68</ele>
  <time>2026-09-02T22:08:04Z</time>
  <course>0.0</course>
  <speed>0.0</speed>
  <fix>3d</fix>
</trkpt>
<trkpt lat="33.8103132" lon="-118.3938671">
  <ele>-27.512</ele>
  <time>2026-09-02T22:08:04Z</time>
  <course>185.8</course>
  <speed>0.022360679774997897</speed>
  <fix>3d</fix>
</trkpt>
<trkpt lat="33.8103132" lon="-118.3938671">
  <ele>-27.553</ele>
  <time>2026-09-02T22:08:04Z</time>
  <course>185.8</course>
  <speed>0.022360679774997897</speed>
  <fix>3d</fix>
</trkpt>
<trkpt lat="33.810313" lon="-118.393867">
  <ele>-26.68</ele>
  <time>2026-09-02T22:08:04Z</time>
  <course>0.0</course>
  <speed>0.0</speed>
  <fix>3d</fix>
</trkpt>
<trkpt lat="33.8103132" lon="-118.3938671">
  <ele>-27.575</ele>
  <time>2026-09-02T22:08:04Z</time>
  <course>185.79</course>
  <speed>0.022360679774997897</speed>
  <fix>3d</fix>
</trkpt>
<trkpt lat="33.8103132" lon="-118.3938671">
  <ele>-27.617</ele>
  <time>2026-09-02T22:08:04Z</time>
  <course>185.79</course>
  <speed>0.022360679774997897</speed>
  <fix>3d</fix>
</trkpt>
<trkpt lat="33.810313" lon="-118.393867">
  <ele>-26.81</ele>
  <time>2026-09-02T22:08:04Z</time>
  <course>0.0</course>
  <speed>0.0</speed>
  <fix>3d</fix>
</trkpt>
<trkpt lat="33.8103132" lon="-118.3938671">
  <ele>-27.618</ele>
  <time>2026-09-02T22:08:04Z</time>
  <course>185.79</course>
  <speed>0.022360679774997897</speed>
  <fix>3d</fix>
</trkpt>
<trkpt lat="33.8103132" lon="-118.3938671">
  <ele>-27.68</ele>
  <time>2026-09-02T22:08:04Z</time>
  <course>185.79</course>
  <speed>0.022360679774997897</speed>
  <fix>3d</fix>
</trkpt>
<trkpt lat="33.810313" lon="-118.393867">
  <ele>-26.81</ele>
  <time>2026-09-02T22:08:04Z</time>
  <course>0.0</course>
  <speed>0.0</speed>
  <fix>3d</fix>
</trkpt>
<trkpt lat="33.8103132" lon="-118.3938671">
  <ele>-27.701</ele>
  <time>2026-09-02T22:08:04Z</time>
  <course>185.79</course>
  <speed>0.022360679774997897</speed>
  <fix>3d</fix>
</trkpt>
<trkpt lat="33.8103132" lon="-118.3938671">
  <ele>-27.744</ele>
  <time>2026-09-02T22:08:04Z</time>
  <course>185.78</course>
  <speed>0.022360679774997897</speed>
  <fix>3d</fix>
</trkpt>
<trkpt lat="33.810313" lon="-118.393867">
  <ele>-26.93</ele>
  <time>2026-09-02T22:08:04Z</time>
  <course>0.0</course>
  <speed>0.0</speed>
  <fix>3d</fix>
</trkpt>
<trkpt lat="33.8103132" lon="-118.3938671">
  <ele>-27.764</ele>
  <time>2026-09-02T22:08:04Z</time>
  <course>185.78</course>
  <speed>0.022360679774997897</speed>
  <fix>3d</fix>
</trkpt>
<trkpt lat="33.8103132" lon="-118.3938671">
  <ele>-27.807</ele>
  <time>2026-09-02T22:08:04Z</time>
  <course>185.78</course>
  <speed>0.022360679774997897</speed>
  <fix>3d</fix>
</trkpt>
<trkpt lat="33.810313" lon="-118.393867">
  <ele>-26.93</ele>
  <time>2026-09-02T22:08:04Z</time>
  <course>0.0</course>
  <speed>0.0</speed>
  <fix>3d</fix>
</trkpt>
<trkpt lat="33.8103132" lon="-118.3938671">
  <ele>-27.831</ele>
  <time>2026-09-02T22:08:04Z</time>
  <course>185.78</course>
  <speed>0.022360679774997897</speed>
  <fix>3d</fix>
</trkpt>
<trkpt lat="33.8103132" lon="-118.3938671">
  <ele>-27.87</ele>
  <time>2026-09-02T22:08:04Z</time>
  <course>185.78</course>
  <speed>0.022360679774997897</speed>
  <fix>3d</fix>
</trkpt>
<trkpt lat="33.810313" lon="-118.393867">
  <ele>-27.05</ele>
  <time>2026-09-02T22:08:04Z</time>
  <course>0.0</course>
  <speed>0.0</speed>
  <fix>3d</fix>
</trkpt>
<trkpt lat="33.8103132" lon="-118.3938671">
  <ele>-27.89</ele>
  <time>2026-09-02T22:08:04Z</time>
  <course>185.78</course>
  <speed>0.022360679774997897</speed>
  <fix>3d</fix>
</trkpt>
<trkpt lat="33.8103132" lon="-118.3938671">
  <ele>-27.932</ele>
  <time>2026-09-02T22:08:04Z</time>
  <course>185.77</course>
  <speed>0.022360679774997897</speed>
  <fix>3d</fix>
</trkpt>
<trkpt lat="33.810313" lon="-118.393867">
  <ele>-27.05</ele>
  <time>2026-09-02T22:08:04Z</time>
  <course>0.0</course>
  <speed>0.0</speed>
  <fix>3d</fix>
</trkpt>
<trkpt lat="33.8103132" lon="-118.3938671">
  <ele>-27.954</ele>
  <time>2026-09-02T22:08:04Z</time>
  <course>185.77</course>
  <speed>0.022360679774997897</speed>
  <fix>3d</fix>
</trkpt>
<trkpt lat="33.8103132" lon="-118.3938671">
  <ele>-27.995</ele>
  <time>2026-09-02T22:08:04Z</time>
  <course>185.77</course>
  <speed>0.022360679774997897</speed>
  <fix>3d</fix>
</trkpt>
<trkpt lat="33.810313" lon="-118.393867">
  <ele>-27.17</ele>
  <time>2026-09-02T22:08:04Z</time>
  <course>0.0</course>
  <speed>0.0</speed>
  <fix>3d</fix>
</trkpt>
<trkpt lat="33.8103132" lon="-118.3938671">
  <ele>-27.996</ele>
  <time>2026-09-02T22:08:04Z</time>
  <course>185.77</course>
  <speed>0.022360679774997897</speed>
  <fix>3d</fix>
</trkpt>
<trkpt lat="33.8103132" lon="-118.3938671">
  <ele>-28.056</ele>
  <time>2026-09-02T22:08:04Z</time>
  <course>185.77</course>
  <speed>0.022360679774997897</speed>
  <fix>3d</fix>
</trkpt>
<trkpt lat="33.810313" lon="-118.393867">
  <ele>-27.17</ele>
  <time>2026-09-02T22:08:04Z</time>
  <course>0.0</course>
  <speed>0.0</speed>
  <fix>3d</fix>
</trkpt>
<trkpt lat="33.8103132" lon="-118.3938671">
  <ele>-28.076</ele>
  <time>2026-09-02T22:08:04Z</time>
  <course>185.77</course>
  <speed>0.022360679774997897</speed>
  <fix>3d</fix>
</trkpt>
<trkpt lat="33.8103132" lon="-118.3938671">
  <ele>-28.118</ele>
  <time>2026-09-02T22:08:04Z</time>
  <course>185.76</course>
  <speed>0.022360679774997897</speed>
  <fix>3d</fix>
</trkpt>
<trkpt lat="33.810313" lon="-118.393867">
  <ele>-27.29</ele>
  <time>2026-09-02T22:08:04Z</time>
  <course>0.0</course>
  <speed>0.0</speed>
  <fix>3d</fix>
</trkpt>
<trkpt lat="33.8103132" lon="-118.3938671">
  <ele>-28.14</ele>
  <time>2026-09-02T22:08:04Z</time>
  <course>185.76</course>
  <speed>0.022360679774997897</speed>
  <fix>3d</fix>
</trkpt>
<trkpt lat="33.8103132" lon="-118.3938671">
  <ele>-28.179</ele>
  <time>2026-09-02T22:08:04Z</time>
  <course>185.76</course>
  <speed>0.022360679774997897</speed>
  <fix>3d</fix>
</trkpt>
<trkpt lat="33.810313" lon="-118.393867">
  <ele>-27.29</ele>
  <time>2026-09-02T22:08:04Z</time>
  <course>0.0</course>
  <speed>0.0</speed>
  <fix>3d</fix>
</trkpt>
<trkpt lat="33.8103132" lon="-118.3938671">
  <ele>-28.2</ele>
  <time>2026-09-02T22:08:04Z</time>
  <course>185.76</course>
  <speed>0.022360679774997897</speed>
  <fix>3d</fix>
</trkpt>
<trkpt lat="33.8103132" lon="-118.3938671">
  <ele>-28.239</ele>
  <time>2026-09-02T22:08:04Z</time>
  <course>185.76</course>
  <speed>0.022360679774997897</speed>
  <fix>3d</fix>
</trkpt>
<trkpt lat="33.810313" lon="-118.393867">
  <ele>-27.41</ele>
  <time>2026-09-02T22:08:04Z</time>
  <course>0.0</course>
  <speed>0.0</speed>
  <fix>3d</fix>
</trkpt>
<trkpt lat="33.8103132" lon="-118.3938671">
  <ele>-28.255</ele>
  <time>2026-09-02T22:08:04Z</time>
  <course>185.75</course>
  <speed>0.022360679774997897</speed>
  <fix>3d</fix>
</trkpt>
<trkpt lat="33.8103132" lon="-118.3938671">
  <ele>-28.298</ele>
  <time>2026-09-02T22:08:04Z</time>
  <course>185.75</course>
  <speed>0.022360679774997897</speed>
  <fix>3d</fix>
</trkpt>
<trkpt lat="33.810313" lon="-118.393867">
  <ele>-27.41</ele>
  <time>2026-09-02T22:08:04Z</time>
  <course>0.0</course>
  <speed>0.0</speed>
  <fix>3d</fix>
</trkpt>
<trkpt lat="33.8103132" lon="-118.3938671">
  <ele>-28.32</ele>
  <time>2026-09-02T22:08:04Z</time>
  <course>185.75</course>
  <speed>0.022360679774997897</speed>
  <fix>3d</fix>
</trkpt>
<trkpt lat="33.8103132" lon="-118.3938671">
  <ele>-28.358</ele>
  <time>2026-09-02T22:08:04Z</time>
  <course>185.75</course>
  <speed>0.022360679774997897</speed>
  <fix>3d</fix>
</trkpt>
<trkpt lat="33.810313" lon="-118.393867">
  <ele>-27.54</ele>
  <time>2026-09-02T22:08:04Z</time>
  <course>0.0</course>
  <speed>0.0</speed>
  <fix>3d</fix>
</trkpt>
<trkpt lat="33.8103132" lon="-118.3938671">
  <ele>-28.359</ele>
  <time>2026-09-02T22:08:04Z</time>
  <course>185.75</course>
  <speed>0.022360679774997897</speed>
  <fix>3d</fix>
</trkpt>
<trkpt lat="33.8103132" lon="-118.3938671">
  <ele>-28.417</ele>
  <time>2026-09-02T22:08:04Z</time>
  <course>185.75</course>
  <speed>0.022360679774997897</speed>
  <fix>3d</fix>
</trkpt>
<trkpt lat="33.810313" lon="-118.393867">
  <ele>-27.54</ele>
  <time>2026-09-02T22:08:04Z</time>
  <course>0.0</course>
  <speed>0.0</speed>
  <fix>3d</fix>
</trkpt>
<trkpt lat="33.8103132" lon="-118.3938671">
  <ele>-28.437</ele>
  <time>2026-09-02T22:08:04Z</time>
  <course>185.74</course>
  <speed>0.022360679774997897</speed>
  <fix>3d</fix>
</trkpt>
<trkpt lat="33.8103132" lon="-118.3938671">
  <ele>-28.478</ele>
  <time>2026-09-02T22:08:04Z</time>
  <course>185.74</course>
  <speed>0.022360679774997897</speed>
  <fix>3d</fix>
</trkpt>
<trkpt lat="33.810313" lon="-118.393867">
  <ele>-27.66</ele>
  <time>2026-09-02T22:08:04Z</time>
  <course>0.0</course>
  <speed>0.0</speed>
  <fix>3d</fix>
</trkpt>
<trkpt lat="33.8103132" lon="-118.3938671">
  <ele>-28.499</ele>
  <time>2026-09-02T22:08:04Z</time>
  <course>185.74</course>
  <speed>0.022360679774997897</speed>
  <fix>3d</fix>
</trkpt>
<trkpt lat="33.8103132" lon="-118.3938671">
  <ele>-28.538</ele>
  <time>2026-09-02T22:08:04Z</time>
  <course>185.74</course>
  <speed>0.022360679774997897</speed>
  <fix>3d</fix>
</trkpt>
<trkpt lat="33.810313" lon="-118.393867">
  <ele>-27.66</ele>
  <time>2026-09-02T22:08:04Z</time>
  <course>0.0</course>
  <speed>0.0</speed>
  <fix>3d</fix>
</trkpt>
<trkpt lat="33.8103132" lon="-118.3938671">
  <ele>-28.557</ele>
  <time>2026-09-02T22:08:04Z</time>
  <course>185.74</course>
  <speed>0.022360679774997897</speed>
  <fix>3d</fix>
</trkpt>
<trkpt lat="33.8103132" lon="-118.3938671">
  <ele>-28.598</ele>
  <time>2026-09-02T22:08:04Z</time>
  <course>185.73</course>
  <speed>0.022360679774997897</speed>
  <fix>3d</fix>
</trkpt>
<trkpt lat="33.810313" lon="-118.393867">
  <ele>-27.77</ele>
  <time>2026-09-02T22:08:04Z</time>
  <course>0.0</course>
  <speed>0.0</speed>
  <fix>3d</fix>
</trkpt>
<trkpt lat="33.8103132" lon="-118.3938671">
  <ele>-28.619</ele>
  <time>2026-09-02T22:08:04Z</time>
  <course>185.73</course>
  <speed>0.022360679774997897</speed>
  <fix>3d</fix>
</trkpt>
<trkpt lat="33.8103132" lon="-118.3938671">
  <ele>-28.659</ele>
  <time>2026-09-02T22:08:04Z</time>
  <course>185.73</course>
  <speed>0.022360679774997897</speed>
  <fix>3d</fix>
</trkpt>
<trkpt lat="33.810313" lon="-118.393867">
  <ele>-27.77</ele>
  <time>2026-09-02T22:08:04Z</time>
  <course>0.0</course>
  <speed>0.0</speed>
  <fix>3d</fix>
</trkpt>
<trkpt lat="33.8103132" lon="-118.3938671">
  <ele>-28.66</ele>
  <time>2026-09-02T22:08:04Z</time>
  <course>185.73</course>
  <speed>0.022360679774997897</speed>
  <fix>3d</fix>
</trkpt>
<trkpt lat="33.8103132" lon="-118.3938671">
  <ele>-28.719</ele>
  <time>2026-09-02T22:08:04Z</time>
  <course>185.73</course>
  <speed>0.022360679774997897</speed>
  <fix>3d</fix>
</trkpt>
<trkpt lat="33.810313" lon="-118.393867">
  <ele>-27.9</ele>
  <time>2026-09-02T22:08:04Z</time>
  <course>0.0</course>
  <speed>0.0</speed>
  <fix>3d</fix>
</trkpt>
<trkpt lat="33.8103132" lon="-118.3938671">
  <ele>-28.742</ele>
  <time>2026-09-02T22:08:04Z</time>
  <course>185.73</course>
  <speed>0.022360679774997897</speed>
  <fix>3d</fix>
</trkpt>
<trkpt lat="33.8103132" lon="-118.3938671">
  <ele>-28.779</ele>
  <time>2026-09-02T22:08:04Z</time>
  <course>185.72</course>
  <speed>0.022360679774997897</speed>
  <fix>3d</fix>
</trkpt>
<trkpt lat="33.810313" lon="-118.393867">
  <ele>-27.9</ele>
  <time>2026-09-02T22:08:04Z</time>
  <course>0.0</course>
  <speed>0.0</speed>
  <fix>3d</fix>
</trkpt>
<trkpt lat="33.8103132" lon="-118.3938671">
  <ele>-28.8</ele>
  <time>2026-09-02T22:08:04Z</time>
  <course>185.72</course>
  <speed>0.022360679774997897</speed>
  <fix>3d</fix>
</trkpt>
<trkpt lat="33.8103132" lon="-118.3938671">
  <ele>-28.838</ele>
  <time>2026-09-02T22:08:04Z</time>
  <course>185.72</course>
  <speed>0.022360679774997897</speed>
  <fix>3d</fix>
</trkpt>
<trkpt lat="33.810313" lon="-118.393867">
  <ele>-28.02</ele>
  <time>2026-09-02T22:08:04Z</time>
  <course>0.0</course>
  <speed>0.0</speed>
  <fix>3d</fix>
</trkpt>
<trkpt lat="33.8103132" lon="-118.3938671">
  <ele>-28.858</ele>
  <time>2026-09-02T22:08:04Z</time>
  <course>185.72</course>
  <speed>0.022360679774997897</speed>
  <fix>3d</fix>
</trkpt>
<trkpt lat="33.8103132" lon="-118.3938671">
  <ele>-28.898</ele>
  <time>2026-09-02T22:08:04Z</time>
  <course>185.72</course>
  <speed>0.022360679774997897</speed>
  <fix>3d</fix>
</trkpt>
<trkpt lat="33.810313" lon="-118.393867">
  <ele>-28.02</ele>
  <time>2026-09-02T22:08:04Z</time>
  <course>0.0</course>
  <speed>0.0</speed>
  <fix>3d</fix>
</trkpt>
<trkpt lat="33.8103132" lon="-118.3938671">
  <ele>-28.917</ele>
  <time>2026-09-02T22:08:04Z</time>
  <course>185.72</course>
  <speed>0.022360679774997897</speed>
  <fix>3d</fix>
</trkpt>
<trkpt lat="33.8103132" lon="-118.3938671">
  <ele>-28.958</ele>
  <time>2026-09-02T22:08:04Z</time>
  <course>185.71</course>
  <speed>0.022360679774997897</speed>
  <fix>3d</fix>
</trkpt>
<trkpt lat="33.810313" lon="-118.393867">
  <ele>-28.14</ele>
  <time>2026-09-02T22:08:04Z</time>
  <course>0.0</course>
  <speed>0.0</speed>
  <fix>3d</fix>
</trkpt>
<trkpt lat="33.8103132" lon="-118.3938671">
  <ele>-28.978</ele>
  <time>2026-09-02T22:08:04Z</time>
  <course>185.71</course>
  <speed>0.022360679774997897</speed>
  <fix>3d</fix>
</trkpt>
<trkpt lat="33.8103132" lon="-118.3938671">
  <ele>-29.02</ele>
  <time>2026-09-02T22:08:04Z</time>
  <course>185.71</course>
  <speed>0.022360679774997897</speed>
  <fix>3d</fix>
</trkpt>
<trkpt lat="33.810313" lon="-118.393867">
  <ele>-28.14</ele>
  <time>2026-09-02T22:08:04Z</time>
  <course>0.0</course>
  <speed>0.0</speed>
  <fix>3d</fix>
</trkpt>
<trkpt lat="33.8103132" lon="-118.3938671">
  <ele>-29.04</ele>
  <time>2026-09-02T22:08:04Z</time>
  <course>185.71</course>
  <speed>0.022360679774997897</speed>
  <fix>3d</fix>
</trkpt>
<trkpt lat="33.8103132" lon="-118.3938671">
  <ele>-29.082</ele>
  <time>2026-09-02T22:08:04Z</time>
  <course>185.71</course>
  <speed>0.022360679774997897</speed>
  <fix>3d</fix>
</trkpt>
<trkpt lat="33.810313" lon="-118.393867">
  <ele>-28.26</ele>
  <time>2026-09-02T22:08:04Z</time>
  <course>0.0</course>
  <speed>0.0</speed>
  <fix>3d</fix>
</trkpt>
<trkpt lat="33.8103132" lon="-118.3938671">
  <ele>-29.103</ele>
  <time>2026-09-02T22:08:04Z</time>
  <course>185.71</course>
  <speed>0.022360679774997897</speed>
  <fix>3d</fix>
</trkpt>
<trkpt lat="33.8103132" lon="-118.3938671">
  <ele>-29.144</ele>
  <time>2026-09-02T22:08:04Z</time>
  <course>185.7</course>
  <speed>0.022360679774997897</speed>
  <fix>3d</fix>
</trkpt>
<trkpt lat="33.810313" lon="-118.393867">
  <ele>-28.26</ele>
  <time>2026-09-02T22:08:04Z</time>
  <course>0.0</course>
  <speed>0.0</speed>
  <fix>3d</fix>
</trkpt>
<trkpt lat="33.8103132" lon="-118.3938671">
  <ele>-29.164</ele>
  <time>2026-09-02T22:08:04Z</time>
  <course>185.7</course>
  <speed>0.022360679774997897</speed>
  <fix>3d</fix>
</trkpt>
<trkpt lat="33.8103132" lon="-118.3938671">
  <ele>-29.206</ele>
  <time>2026-09-02T22:08:04Z</time>
  <course>185.7</course>
  <speed>0.022360679774997897</speed>
  <fix>3d</fix>
</trkpt>
<trkpt lat="33.810313" lon="-118.393867">
  <ele>-28.38</ele>
  <time>2026-09-02T22:08:04Z</time>
  <course>0.0</course>
  <speed>0.0</speed>
  <fix>3d</fix>
</trkpt>
<trkpt lat="33.8103132" lon="-118.3938671">
  <ele>-29.228</ele>
  <time>2026-09-02T22:08:04Z</time>
  <course>185.7</course>
  <speed>0.022360679774997897</speed>
  <fix>3d</fix>
</trkpt>
<trkpt lat="33.8103132" lon="-118.3938671">
  <ele>-29.269</ele>
  <time>2026-09-02T22:08:04Z</time>
  <course>185.7</course>
  <speed>0.022360679774997897</speed>
  <fix>3d</fix>
</trkpt>
<trkpt lat="33.810313" lon="-118.393867">
  <ele>-28.38</ele>
  <time>2026-09-02T22:08:04Z</time>
  <course>0.0</course>
  <speed>0.0</speed>
  <fix>3d</fix>
</trkpt>
<trkpt lat="33.8103132" lon="-118.3938671">
  <ele>-29.29</ele>
  <time>2026-09-02T22:08:04Z</time>
  <course>185.7</course>
  <speed>0.022360679774997897</speed>
  <fix>3d</fix>
</trkpt>
<trkpt lat="33.8103132" lon="-118.3938671">
  <ele>-29.332</ele>
  <time>2026-09-02T22:08:04Z</time>
  <course>185.69</course>
  <speed>0.022360679774997897</speed>
  <fix>3d</fix>
</trkpt>
<trkpt lat="33.810313" lon="-118.393867">
  <ele>-28.5</ele>
  <time>2026-09-02T22:08:04Z</time>
  <course>0.0</course>
  <speed>0.0</speed>
  <fix>3d</fix>
</trkpt>
<trkpt lat="33.8103132" lon="-118.3938671">
  <ele>-29.333</ele>
  <time>2026-09-02T22:08:04Z</time>
  <course>185.69</course>
  <speed>0.022360679774997897</speed>
  <fix>3d</fix>
</trkpt>
<trkpt lat="33.8103132" lon="-118.3938671">
  <ele>-29.395</ele>
  <time>2026-09-02T22:08:04Z</time>
  <course>185.69</course>
  <speed>0.022360679774997897</speed>
  <fix>3d</fix>
</trkpt>
<trkpt lat="33.810313" lon="-118.393867">
  <ele>-28.5</ele>
  <time>2026-09-02T22:08:04Z</time>
  <course>0.0</course>
  <speed>0.0</speed>
  <fix>3d</fix>
</trkpt>
<trkpt lat="33.8103132" lon="-118.3938671">
  <ele>-29.415</ele>
  <time>2026-09-02T22:08:04Z</time>
  <course>185.69</course>
  <speed>0.022360679774997897</speed>
  <fix>3d</fix>
</trkpt>
<trkpt lat="33.8103132" lon="-118.3938671">
  <ele>-29.459</ele>
  <time>2026-09-02T22:08:04Z</time>
  <course>185.69</course>
  <speed>0.022360679774997897</speed>
  <fix>3d</fix>
</trkpt>
<trkpt lat="33.810313" lon="-118.393867">
  <ele>-28.61</ele>
  <time>2026-09-02T22:08:04Z</time>
  <course>0.0</course>
  <speed>0.0</speed>
  <fix>3d</fix>
</trkpt>
<trkpt lat="33.8103132" lon="-118.3938671">
  <ele>-29.48</ele>
  <time>2026-09-02T22:08:04Z</time>
  <course>185.69</course>
  <speed>0.022360679774997897</speed>
  <fix>3d</fix>
</trkpt>
<trkpt lat="33.8103132" lon="-118.3938671">
  <ele>-29.524</ele>
  <time>2026-09-02T22:08:04Z</time>
  <course>185.68</course>
  <speed>0.022360679774997897</speed>
  <fix>3d</fix>
</trkpt>
<trkpt lat="33.810313" lon="-118.393867">
  <ele>-28.61</ele>
  <time>2026-09-02T22:08:04Z</time>
  <course>0.0</course>
  <speed>0.0</speed>
  <fix>3d</fix>
</trkpt>
<trkpt lat="33.8103132" lon="-118.3938671">
  <ele>-29.544</ele>
  <time>2026-09-02T22:08:04Z</time>
  <course>185.68</course>
  <speed>0.022360679774997897</speed>
  <fix>3d</fix>
</trkpt>
<trkpt lat="33.8103132" lon="-118.3938671">
  <ele>-29.588</ele>
  <time>2026-09-02T22:08:04Z</time>
  <course>185.68</course>
  <speed>0.022360679774997897</speed>
  <fix>3d</fix>
</trkpt>
<trkpt lat="33.810313" lon="-118.393867">
  <ele>-28.74</ele>
  <time>2026-09-02T22:08:04Z</time>
  <course>0.0</course>
  <speed>0.0</speed>
  <fix>3d</fix>
</trkpt>
<trkpt lat="33.8103132" lon="-118.3938671">
  <ele>-29.611</ele>
  <time>2026-09-02T22:08:04Z</time>
  <course>185.68</course>
  <speed>0.022360679774997897</speed>
  <fix>3d</fix>
</trkpt>
<trkpt lat="33.8103132" lon="-118.3938671">
  <ele>-29.653</ele>
  <time>2026-09-02T22:08:04Z</time>
  <course>185.68</course>
  <speed>0.022360679774997897</speed>
  <fix>3d</fix>
</trkpt>
<trkpt lat="33.810313" lon="-118.393867">
  <ele>-28.74</ele>
  <time>2026-09-02T22:08:04Z</time>
  <course>0.0</course>
  <speed>0.0</speed>
  <fix>3d</fix>
</trkpt>
<trkpt lat="33.8103132" lon="-118.3938671">
  <ele>-29.674</ele>
  <time>2026-09-02T22:08:04Z</time>
  <course>185.68</course>
  <speed>0.022360679774997897</speed>
  <fix>3d</fix>
</trkpt>
<trkpt lat="33.8103132" lon="-118.3938671">
  <ele>-29.718</ele>
  <time>2026-09-02T22:08:04Z</time>
  <course>185.67</course>
  <speed>0.022360679774997897</speed>
  <fix>3d</fix>
</trkpt>
<trkpt lat="33.810313" lon="-118.393867">
  <ele>-28.86</ele>
  <time>2026-09-02T22:08:04Z</time>
  <course>0.0</course>
  <speed>0.0</speed>
  <fix>3d</fix>
</trkpt>
<trkpt lat="33.8103132" lon="-118.3938671">
  <ele>-29.743</ele>
  <time>2026-09-02T22:08:04Z</time>
  <course>185.67</course>
  <speed>0.022360679774997897</speed>
  <fix>3d</fix>
</trkpt>
<trkpt lat="33.8103132" lon="-118.3938671">
  <ele>-29.782</ele>
  <time>2026-09-02T22:08:04Z</time>
  <course>185.67</course>
  <speed>0.022360679774997897</speed>
  <fix>3d</fix>
</trkpt>
<trkpt lat="33.810313" lon="-118.393867">
  <ele>-28.86</ele>
  <time>2026-09-02T22:08:04Z</time>
  <course>0.0</course>
  <speed>0.0</speed>
  <fix>3d</fix>
</trkpt>
<trkpt lat="33.8103132" lon="-118.3938671">
  <ele>-29.783</ele>
  <time>2026-09-02T22:08:04Z</time>
  <course>185.67</course>
  <speed>0.022360679774997897</speed>
  <fix>3d</fix>
</trkpt>
<trkpt lat="33.8103132" lon="-118.3938671">
  <ele>-29.845</ele>
  <time>2026-09-02T22:08:04Z</time>
  <course>185.67</course>
  <speed>0.022360679774997897</speed>
  <fix>3d</fix>
</trkpt>
<trkpt lat="33.810313" lon="-118.393867">
  <ele>-28.98</ele>
  <time>2026-09-02T22:08:04Z</time>
  <course>0.0</course>
  <speed>0.0</speed>
  <fix>3d</fix>
</trkpt>
<trkpt lat="33.8103132" lon="-118.3938671">
  <ele>-29.846</ele>
  <time>2026-09-02T22:08:04Z</time>
  <course>185.67</course>
  <speed>0.022360679774997897</speed>
  <fix>3d</fix>
</trkpt>
<trkpt lat="33.8103132" lon="-118.3938671">
  <ele>-29.907</ele>
  <time>2026-09-02T22:08:04Z</time>
  <course>185.66</course>
  <speed>0.022360679774997897</speed>
  <fix>3d</fix>
</trkpt>
<trkpt lat="33.810313" lon="-118.393867">
  <ele>-28.98</ele>
  <time>2026-09-02T22:08:04Z</time>
  <course>0.0</course>
  <speed>0.0</speed>
  <fix>3d</fix>
</trkpt>
<trkpt lat="33.8103132" lon="-118.3938671">
  <ele>-29.926</ele>
  <time>2026-09-02T22:08:04Z</time>
  <course>185.66</course>
  <speed>0.022360679774997897</speed>
  <fix>3d</fix>
</trkpt>
<trkpt lat="33.8103132" lon="-118.3938671">
  <ele>-29.969</ele>
  <time>2026-09-02T22:08:04Z</time>
  <course>185.66</course>
  <speed>0.022360679774997897</speed>
  <fix>3d</fix>
</trkpt>
<trkpt lat="33.810313" lon="-118.393867">
  <ele>-29.1</ele>
  <time>2026-09-02T22:08:04Z</time>
  <course>0.0</course>
  <speed>0.0</speed>
  <fix>3d</fix>
</trkpt>
<trkpt lat="33.8103132" lon="-118.3938671">
  <ele>-29.991</ele>
  <time>2026-09-02T22:08:04Z</time>
  <course>185.66</course>
  <speed>0.022360679774997897</speed>
  <fix>3d</fix>
</trkpt>
<trkpt lat="33.8103132" lon="-118.3938671">
  <ele>-30.03</ele>
  <time>2026-09-02T22:08:04Z</time>
  <course>185.66</course>
  <speed>0.022360679774997897</speed>
  <fix>3d</fix>
</trkpt>
<trkpt lat="33.810313" lon="-118.393867">
  <ele>-29.1</ele>
  <time>2026-09-02T22:08:04Z</time>
  <course>0.0</course>
  <speed>0.0</speed>
  <fix>3d</fix>
</trkpt>
<trkpt lat="33.8103132" lon="-118.3938671">
  <ele>-30.032</ele>
  <time>2026-09-02T22:08:04Z</time>
  <course>185.66</course>
  <speed>0.022360679774997897</speed>
  <fix>3d</fix>
</trkpt>
<trkpt lat="33.8103132" lon="-118.3938671">
  <ele>-30.091</ele>
  <time>2026-09-02T22:08:04Z</time>
  <course>185.65</course>
  <speed>0.022360679774997897</speed>
  <fix>3d</fix>
</trkpt>
<trkpt lat="33.810313" lon="-118.393867">
  <ele>-29.22</ele>
  <time>2026-09-02T22:08:04Z</time>
  <course>0.0</course>
  <speed>0.0</speed>
  <fix>3d</fix>
</trkpt>
<trkpt lat="33.8103132" lon="-118.3938671">
  <ele>-30.111</ele>
  <time>2026-09-02T22:08:04Z</time>
  <course>185.65</course>
  <speed>0.022360679774997897</speed>
  <fix>3d</fix>
</trkpt>
<trkpt lat="33.8103132" lon="-118.3938671">
  <ele>-30.152</ele>
  <time>2026-09-02T22:08:04Z</time>
  <course>185.65</course>
  <speed>0.022360679774997897</speed>
  <fix>3d</fix>
</trkpt>
<trkpt lat="33.810313" lon="-118.393867">
  <ele>-29.22</ele>
  <time>2026-09-02T22:08:04Z</time>
  <course>0.0</course>
  <speed>0.0</speed>
  <fix>3d</fix>
</trkpt>
<trkpt lat="33.8103132" lon="-118.3938671">
  <ele>-30.172</ele>
  <time>2026-09-02T22:08:04Z</time>
  <course>185.65</course>
  <speed>0.022360679774997897</speed>
  <fix>3d</fix>
</trkpt>
<trkpt lat="33.8103132" lon="-118.3938671">
  <ele>-30.214</ele>
  <time>2026-09-02T22:08:04Z</time>
  <course>185.65</course>
  <speed>0.022360679774997897</speed>
  <fix>3d</fix>
</trkpt>
<trkpt lat="33.810313" lon="-118.393867">
  <ele>-29.35</ele>
  <time>2026-09-02T22:08:04Z</time>
  <course>0.0</course>
  <speed>0.0</speed>
  <fix>3d</fix>
</trkpt>
<trkpt lat="33.8103132" lon="-118.3938671">
  <ele>-30.235</ele>
  <time>2026-09-02T22:08:04Z</time>
  <course>185.65</course>
  <speed>0.022360679774997897</speed>
  <fix>3d</fix>
</trkpt>
<trkpt lat="33.8103132" lon="-118.3938671">
  <ele>-30.276</ele>
  <time>2026-09-02T22:08:04Z</time>
  <course>185.64</course>
  <speed>0.022360679774997897</speed>
  <fix>3d</fix>
</trkpt>
<trkpt lat="33.810313" lon="-118.393867">
  <ele>-29.35</ele>
  <time>2026-09-02T22:08:04Z</time>
  <course>0.0</course>
  <speed>0.0</speed>
  <fix>3d</fix>
</trkpt>
<trkpt lat="33.8103132" lon="-118.3938671">
  <ele>-30.296</ele>
  <time>2026-09-02T22:08:04Z</time>
  <course>185.64</course>
  <speed>0.022360679774997897</speed>
  <fix>3d</fix>
</trkpt>
<trkpt lat="33.8103132" lon="-118.3938671">
  <ele>-30.337</ele>
  <time>2026-09-02T22:08:04Z</time>
  <course>185.64</course>
  <speed>0.022360679774997897</speed>
  <fix>3d</fix>
</trkpt>
<trkpt lat="33.810313" lon="-118.393867">
  <ele>-29.47</ele>
  <time>2026-09-02T22:08:04Z</time>
  <course>0.0</course>
  <speed>0.0</speed>
  <fix>3d</fix>
</trkpt>
<trkpt lat="33.8103132" lon="-118.3938671">
  <ele>-30.358</ele>
  <time>2026-09-02T22:08:04Z</time>
  <course>185.64</course>
  <speed>0.022360679774997897</speed>
  <fix>3d</fix>
</trkpt>
<trkpt lat="33.8103132" lon="-118.3938671">
  <ele>-30.397</ele>
  <time>2026-09-02T22:08:04Z</time>
  <course>185.64</course>
  <speed>0.022360679774997897</speed>
  <fix>3d</fix>
</trkpt>
<trkpt lat="33.810313" lon="-118.393867">
  <ele>-29.47</ele>
  <time>2026-09-02T22:08:04Z</time>
  <course>0.0</course>
  <speed>0.0</speed>
  <fix>3d</fix>
</trkpt>
<trkpt lat="33.8103132" lon="-118.3938671">
  <ele>-30.418</ele>
  <time>2026-09-02T22:08:04Z</time>
  <course>185.64</course>
  <speed>0.022360679774997897</speed>
  <fix>3d</fix>
</trkpt>
<trkpt lat="33.8103132" lon="-118.3938671">
  <ele>-30.457</ele>
  <time>2026-09-02T22:08:04Z</time>
  <course>185.63</course>
  <speed>0.022360679774997897</speed>
  <fix>3d</fix>
</trkpt>
<trkpt lat="33.810313" lon="-118.393867">
  <ele>-29.59</ele>
  <time>2026-09-02T22:08:04Z</time>
  <course>0.0</course>
  <speed>0.0</speed>
  <fix>3d</fix>
</trkpt>
<trkpt lat="33.8103132" lon="-118.3938671">
  <ele>-30.478</ele>
  <time>2026-09-02T22:08:04Z</time>
  <course>185.63</course>
  <speed>0.022360679774997897</speed>
  <fix>3d</fix>
</trkpt>
<trkpt lat="33.8103132" lon="-118.3938671">
  <ele>-30.517</ele>
  <time>2026-09-02T22:08:04Z</time>
  <course>185.63</course>
  <speed>0.022360679774997897</speed>
  <fix>3d</fix>
</trkpt>
<trkpt lat="33.810313" lon="-118.393867">
  <ele>-29.59</ele>
  <time>2026-09-02T22:08:04Z</time>
  <course>0.0</course>
  <speed>0.0</speed>
  <fix>3d</fix>
</trkpt>
<trkpt lat="33.8103132" lon="-118.3938671">
  <ele>-30.537</ele>
  <time>2026-09-02T22:08:04Z</time>
  <course>185.63</course>
  <speed>0.022360679774997897</speed>
  <fix>3d</fix>
</trkpt>
<trkpt lat="33.8103132" lon="-118.3938671">
  <ele>-30.577</ele>
  <time>2026-09-02T22:08:04Z</time>
  <course>185.63</course>
  <speed>0.022360679774997897</speed>
  <fix>3d</fix>
</trkpt>
<trkpt lat="33.810313" lon="-118.393867">
  <ele>-29.71</ele>
  <time>2026-09-02T22:08:04Z</time>
  <course>0.0</course>
  <speed>0.0</speed>
  <fix>3d</fix>
</trkpt>
<trkpt lat="33.8103132" lon="-118.3938671">
  <ele>-30.601</ele>
  <time>2026-09-02T22:08:04Z</time>
  <course>185.63</course>
  <speed>0.022360679774997897</speed>
  <fix>3d</fix>
</trkpt>
<trkpt lat="33.8103132" lon="-118.3938671">
  <ele>-30.637</ele>
  <time>2026-09-02T22:08:04Z</time>
  <course>185.62</course>
  <speed>0.022360679774997897</speed>
  <fix>3d</fix>
</trkpt>
<trkpt lat="33.810313" lon="-118.393867">
  <ele>-29.71</ele>
  <time>2026-09-02T22:08:04Z</time>
  <course>0.0</course>
  <speed>0.0</speed>
  <fix>3d</fix>
</trkpt>
<trkpt lat="33.8103132" lon="-118.3938671">
  <ele>-30.638</ele>
  <time>2026-09-02T22:08:04Z</time>
  <course>185.62</course>
  <speed>0.022360679774997897</speed>
  <fix>3d</fix>
</trkpt>
<trkpt lat="33.8103132" lon="-118.3938671">
  <ele>-30.695</ele>
  <time>2026-09-02T22:08:04Z</time>
  <course>185.62</course>
  <speed>0.022360679774997897</speed>
  <fix>3d</fix>
</trkpt>
<trkpt lat="33.810313" lon="-118.393867">
  <ele>-29.83</ele>
  <time>2026-09-02T22:08:04Z</time>
  <course>0.0</course>
  <speed>0.0</speed>
  <fix>3d</fix>
</trkpt>
<trkpt lat="33.8103132" lon="-118.3938671">
  <ele>-30.713</ele>
  <time>2026-09-02T22:08:04Z</time>
  <course>185.62</course>
  <speed>0.022360679774997897</speed>
  <fix>3d</fix>
</trkpt>
<trkpt lat="33.8103132" lon="-118.3938671">
  <ele>-30.753</ele>
  <time>2026-09-02T22:08:04Z</time>
  <course>185.62</course>
  <speed>0.022360679774997897</speed>
  <fix>3d</fix>
</trkpt>
<trkpt lat="33.810313" lon="-118.393867">
  <ele>-29.83</ele>
  <time>2026-09-02T22:08:04Z</time>
  <course>0.0</course>
  <speed>0.0</speed>
  <fix>3d</fix>
</trkpt>
<trkpt lat="33.8103132" lon="-118.3938671">
  <ele>-30.754</ele>
  <time>2026-09-02T22:08:04Z</time>
  <course>185.62</course>
  <speed>0.022360679774997897</speed>
  <fix>3d</fix>
</trkpt>
<trkpt lat="33.8103132" lon="-118.3938671">
  <ele>-30.812</ele>
  <time>2026-09-02T22:08:04Z</time>
  <course>185.61</course>
  <speed>0.022360679774997897</speed>
  <fix>3d</fix>
</trkpt>
<trkpt lat="33.810313" lon="-118.393867">
  <ele>-29.95</ele>
  <time>2026-09-02T22:08:04Z</time>
  <course>0.0</course>
  <speed>0.0</speed>
  <fix>3d</fix>
</trkpt>
<trkpt lat="33.8103132" lon="-118.3938671">
  <ele>-30.831</ele>
  <time>2026-09-02T22:08:04Z</time>
  <course>185.61</course>
  <speed>0.022360679774997897</speed>
  <fix>3d</fix>
</trkpt>
<trkpt lat="33.8103132" lon="-118.3938671">
  <ele>-30.871</ele>
  <time>2026-09-02T22:08:04Z</time>
  <course>185.61</course>
  <speed>0.022360679774997897</speed>
  <fix>3d</fix>
</trkpt>
<trkpt lat="33.810313" lon="-118.393867">
  <ele>-29.95</ele>
  <time>2026-09-02T22:08:04Z</time>
  <course>0.0</course>
  <speed>0.0</speed>
  <fix>3d</fix>
</trkpt>
<trkpt lat="33.8103132" lon="-118.3938671">
  <ele>-30.891</ele>
  <time>2026-09-02T22:08:04Z</time>
  <course>185.61</course>
  <speed>0.022360679774997897</speed>
  <fix>3d</fix>
</trkpt>
<trkpt lat="33.8103132" lon="-118.3938671">
  <ele>-30.931</ele>
  <time>2026-09-02T22:08:04Z</time>
  <course>185.61</course>
  <speed>0.022360679774997897</speed>
  <fix>3d</fix>
</trkpt>
<trkpt lat="33.810313" lon="-118.393867">
  <ele>-30.07</ele>
  <time>2026-09-02T22:08:04Z</time>
  <course>0.0</course>
  <speed>0.0</speed>
  <fix>3d</fix>
</trkpt>
<trkpt lat="33.8103132" lon="-118.3938671">
  <ele>-30.953</ele>
  <time>2026-09-02T22:08:04Z</time>
  <course>185.61</course>
  <speed>0.022360679774997897</speed>
  <fix>3d</fix>
</trkpt>
<trkpt lat="33.8103132" lon="-118.3938671">
  <ele>-30.992</ele>
  <time>2026-09-02T22:08:04Z</time>
  <course>185.61</course>
  <speed>0.022360679774997897</speed>
  <fix>3d</fix>
</trkpt>
<trkpt lat="33.810313" lon="-118.393867">
  <ele>-30.07</ele>
  <time>2026-09-02T22:08:04Z</time>
  <course>0.0</course>
  <speed>0.0</speed>
  <fix>3d</fix>
</trkpt>
<trkpt lat="33.8103132" lon="-118.3938671">
  <ele>-31.012</ele>
  <time>2026-09-02T22:08:04Z</time>
  <course>185.6</course>
  <speed>0.022360679774997897</speed>
  <fix>3d</fix>
</trkpt>
<trkpt lat="33.8103132" lon="-118.3938671">
  <ele>-31.053</ele>
  <time>2026-09-02T22:08:04Z</time>
  <course>185.6</course>
  <speed>0.022360679774997897</speed>
  <fix>3d</fix>
</trkpt>
<trkpt lat="33.810313" lon="-118.393867">
  <ele>-30.18</ele>
  <time>2026-09-02T22:08:04Z</time>
  <course>0.0</course>
  <speed>0.0</speed>
  <fix>3d</fix>
</trkpt>
<trkpt lat="33.8103132" lon="-118.3938671">
  <ele>-31.054</ele>
  <time>2026-09-02T22:08:04Z</time>
  <course>185.6</course>
  <speed>0.022360679774997897</speed>
  <fix>3d</fix>
</trkpt>
<trkpt lat="33.8103132" lon="-118.3938671">
  <ele>-31.114</ele>
  <time>2026-09-02T22:08:04Z</time>
  <course>185.6</course>
  <speed>0.022360679774997897</speed>
  <fix>3d</fix>
</trkpt>
<trkpt lat="33.810313" lon="-118.393867">
  <ele>-30.18</ele>
  <time>2026-09-02T22:08:04Z</time>
  <course>0.0</course>
  <speed>0.0</speed>
  <fix>3d</fix>
</trkpt>
<trkpt lat="33.8103132" lon="-118.3938671">
  <ele>-31.138</ele>
  <time>2026-09-02T22:08:04Z</time>
  <course>185.6</course>
  <speed>0.022360679774997897</speed>
  <fix>3d</fix>
</trkpt>
<trkpt lat="33.8103132" lon="-118.3938671">
  <ele>-31.175</ele>
  <time>2026-09-02T22:08:04Z</time>
  <course>185.6</course>
  <speed>0.022360679774997897</speed>
  <fix>3d</fix>
</trkpt>
<trkpt lat="33.810313" lon="-118.393867">
  <ele>-30.31</ele>
  <time>2026-09-02T22:08:04Z</time>
  <course>0.0</course>
  <speed>0.0</speed>
  <fix>3d</fix>
</trkpt>
<trkpt lat="33.8103132" lon="-118.3938671">
  <ele>-31.194</ele>
  <time>2026-09-02T22:08:04Z</time>
  <course>185.6</course>
  <speed>0.022360679774997897</speed>
  <fix>3d</fix>
</trkpt>
<trkpt lat="33.8103132" lon="-118.3938671">
  <ele>-31.236</ele>
  <time>2026-09-02T22:08:04Z</time>
  <course>185.59</course>
  <speed>0.022360679774997897</speed>
  <fix>3d</fix>
</trkpt>
<trkpt lat="33.810313" lon="-118.393867">
  <ele>-30.31</ele>
  <time>2026-09-02T22:08:04Z</time>
  <course>0.0</course>
  <speed>0.0</speed>
  <fix>3d</fix>
</trkpt>
<trkpt lat="33.8103132" lon="-118.3938671">
  <ele>-31.257</ele>
  <time>2026-09-02T22:08:04Z</time>
  <course>185.59</course>
  <speed>0.022360679774997897</speed>
  <fix>3d</fix>
</trkpt>
<trkpt lat="33.8103132" lon="-118.3938671">
  <ele>-31.297</ele>
  <time>2026-09-02T22:08:04Z</time>
  <course>185.59</course>
  <speed>0.022360679774997897</speed>
  <fix>3d</fix>
</trkpt>
<trkpt lat="33.810313" lon="-118.393867">
  <ele>-30.43</ele>
  <time>2026-09-02T22:08:04Z</time>
  <course>0.0</course>
  <speed>0.0</speed>
  <fix>3d</fix>
</trkpt>
<trkpt lat="33.8103132" lon="-118.3938671">
  <ele>-31.3</ele>
  <time>2026-09-02T22:08:04Z</time>
  <course>185.59</course>
  <speed>0.022360679774997897</speed>
  <fix>3d</fix>
</trkpt>
<trkpt lat="33.8103132" lon="-118.3938671">
  <ele>-31.358</ele>
  <time>2026-09-02T22:08:04Z</time>
  <course>185.59</course>
  <speed>0.022360679774997897</speed>
  <fix>3d</fix>
</trkpt>
<trkpt lat="33.810313" lon="-118.393867">
  <ele>-30.43</ele>
  <time>2026-09-02T22:08:04Z</time>
  <course>0.0</course>
  <speed>0.0</speed>
  <fix>3d</fix>
</trkpt>
<trkpt lat="33.8103132" lon="-118.3938671">
  <ele>-31.36</ele>
  <time>2026-09-02T22:08:04Z</time>
  <course>185.59</course>
  <speed>0.022360679774997897</speed>
  <fix>3d</fix>
</trkpt>
<trkpt lat="33.8103132" lon="-118.3938671">
  <ele>-31.42</ele>
  <time>2026-09-02T22:08:04Z</time>
  <course>185.58</course>
  <speed>0.022360679774997897</speed>
  <fix>3d</fix>
</trkpt>
<trkpt lat="33.810313" lon="-118.393867">
  <ele>-30.55</ele>
  <time>2026-09-02T22:08:04Z</time>
  <course>0.0</course>
  <speed>0.0</speed>
  <fix>3d</fix>
</trkpt>
<trkpt lat="33.8103132" lon="-118.3938671">
  <ele>-31.44</ele>
  <time>2026-09-02T22:08:04Z</time>
  <course>185.58</course>
  <speed>0.022360679774997897</speed>
  <fix>3d</fix>
</trkpt>
<trkpt lat="33.8103132" lon="-118.3938671">
  <ele>-31.482</ele>
  <time>2026-09-02T22:08:04Z</time>
  <course>185.58</course>
  <speed>0.022360679774997897</speed>
  <fix>3d</fix>
</trkpt>
<trkpt lat="33.810313" lon="-118.393867">
  <ele>-30.55</ele>
  <time>2026-09-02T22:08:04Z</time>
  <course>0.0</course>
  <speed>0.0</speed>
  <fix>3d</fix>
</trkpt>
<trkpt lat="33.8103132" lon="-118.3938671">
  <ele>-31.502</ele>
  <time>2026-09-02T22:08:04Z</time>
  <course>185.58</course>
  <speed>0.022360679774997897</speed>
  <fix>3d</fix>
</trkpt>
<trkpt lat="33.8103132" lon="-118.3938671">
  <ele>-31.544</ele>
  <time>2026-09-02T22:08:04Z</time>
  <course>185.58</course>
  <speed>0.022360679774997897</speed>
  <fix>3d</fix>
</trkpt>
<trkpt lat="33.810313" lon="-118.393867">
  <ele>-30.67</ele>
  <time>2026-09-02T22:08:04Z</time>
  <course>0.0</course>
  <speed>0.0</speed>
  <fix>3d</fix>
</trkpt>
<trkpt lat="33.8103132" lon="-118.3938671">
  <ele>-31.565</ele>
  <time>2026-09-02T22:08:04Z</time>
  <course>185.58</course>
  <speed>0.022360679774997897</speed>
  <fix>3d</fix>
</trkpt>
<trkpt lat="33.8103132" lon="-118.3938671">
  <ele>-31.607</ele>
  <time>2026-09-02T22:08:04Z</time>
  <course>185.58</course>
  <speed>0.022360679774997897</speed>
  <fix>3d</fix>
</trkpt>
<trkpt lat="33.810313" lon="-118.393867">
  <ele>-30.67</ele>
  <time>2026-09-02T22:08:04Z</time>
  <course>0.0</course>
  <speed>0.0</speed>
  <fix>3d</fix>
</trkpt>
<trkpt lat="33.8103132" lon="-118.3938671">
  <ele>-31.629</ele>
  <time>2026-09-02T22:08:04Z</time>
  <course>185.58</course>
  <speed>0.022360679774997897</speed>
  <fix>3d</fix>
</trkpt>
<trkpt lat="33.8103132" lon="-118.3938671">
  <ele>-31.67</ele>
  <time>2026-09-02T22:08:04Z</time>
  <course>185.57</course>
  <speed>0.022360679774997897</speed>
  <fix>3d</fix>
</trkpt>
<trkpt lat="33.810313" lon="-118.393867">
  <ele>-30.79</ele>
  <time>2026-09-02T22:08:04Z</time>
  <course>0.0</course>
  <speed>0.0</speed>
  <fix>3d</fix>
</trkpt>
<trkpt lat="33.8103132" lon="-118.3938671">
  <ele>-31.671</ele>
  <time>2026-09-02T22:08:04Z</time>
  <course>185.57</course>
  <speed>0.022360679774997897</speed>
  <fix>3d</fix>
</trkpt>
<trkpt lat="33.8103132" lon="-118.3938671">
  <ele>-31.732</ele>
  <time>2026-09-02T22:08:04Z</time>
  <course>185.57</course>
  <speed>0.022360679774997897</speed>
  <fix>3d</fix>
</trkpt>
<trkpt lat="33.810313" lon="-118.393867">
  <ele>-30.79</ele>
  <time>2026-09-02T22:08:04Z</time>
  <course>0.0</course>
  <speed>0.0</speed>
  <fix>3d</fix>
</trkpt>
<trkpt lat="33.8103132" lon="-118.3938671">
  <ele>-31.753</ele>
  <time>2026-09-02T22:08:04Z</time>
  <course>185.57</course>
  <speed>0.022360679774997897</speed>
  <fix>3d</fix>
</trkpt>
<trkpt lat="33.8103132" lon="-118.3938671">
  <ele>-31.795</ele>
  <time>2026-09-02T22:08:04Z</time>
  <course>185.57</course>
  <speed>0.022360679774997897</speed>
  <fix>3d</fix>
</trkpt>
<trkpt lat="33.810313" lon="-118.393867">
  <ele>-30.91</ele>
  <time>2026-09-02T22:08:04Z</time>
  <course>0.0</course>
  <speed>0.0</speed>
  <fix>3d</fix>
</trkpt>
<trkpt lat="33.8103132" lon="-118.3938671">
  <ele>-31.819</ele>
  <time>2026-09-02T22:08:04Z</time>
  <course>185.57</course>
  <speed>0.022360679774997897</speed>
  <fix>3d</fix>
</trkpt>
<trkpt lat="33.8103132" lon="-118.3938671">
  <ele>-31.858</ele>
  <time>2026-09-02T22:08:04Z</time>
  <course>185.56</course>
  <speed>0.022360679774997897</speed>
  <fix>3d</fix>
</trkpt>
<trkpt lat="33.810313" lon="-118.393867">
  <ele>-30.91</ele>
  <time>2026-09-02T22:08:04Z</time>
  <course>0.0</course>
  <speed>0.0</speed>
  <fix>3d</fix>
</trkpt>
<trkpt lat="33.8103132" lon="-118.3938671">
  <ele>-31.878</ele>
  <time>2026-09-02T22:08:04Z</time>
  <course>185.56</course>
  <speed>0.022360679774997897</speed>
  <fix>3d</fix>
</trkpt>
<trkpt lat="33.8103132" lon="-118.3938671">
  <ele>-31.92</ele>
  <time>2026-09-02T22:08:04Z</time>
  <course>185.56</course>
  <speed>0.022360679774997897</speed>
  <fix>3d</fix>
</trkpt>
<trkpt lat="33.810313" lon="-118.393867">
  <ele>-31.04</ele>
  <time>2026-09-02T22:08:04Z</time>
  <course>0.0</course>
  <speed>0.0</speed>
  <fix>3d</fix>
</trkpt>
<trkpt lat="33.8103132" lon="-118.3938671">
  <ele>-31.921</ele>
  <time>2026-09-02T22:08:04Z</time>
  <course>185.56</course>
  <speed>0.022360679774997897</speed>
  <fix>3d</fix>
</trkpt>
<trkpt lat="33.8103132" lon="-118.3938671">
  <ele>-31.981</ele>
  <time>2026-09-02T22:08:04Z</time>
  <course>185.56</course>
  <speed>0.022360679774997897</speed>
  <fix>3d</fix>
</trkpt>
<trkpt lat="33.810313" lon="-118.393867">
  <ele>-31.04</ele>
  <time>2026-09-02T22:08:04Z</time>
  <course>0.0</course>
  <speed>0.0</speed>
  <fix>3d</fix>
</trkpt>
<trkpt lat="33.8103132" lon="-118.3938671">
  <ele>-31.983</ele>
  <time>2026-09-02T22:08:04Z</time>
  <course>185.56</course>
  <speed>0.022360679774997897</speed>
  <fix>3d</fix>
</trkpt>
<trkpt lat="33.8103132" lon="-118.3938671">
  <ele>-32.043</ele>
  <time>2026-09-02T22:08:04Z</time>
  <course>185.56</course>
  <speed>0.022360679774997897</speed>
  <fix>3d</fix>
</trkpt>
<trkpt lat="33.810313" lon="-118.393867">
  <ele>-31.16</ele>
  <time>2026-09-02T22:08:04Z</time>
  <course>0.0</course>
  <speed>0.0</speed>
  <fix>3d</fix>
</trkpt>
<trkpt lat="33.8103132" lon="-118.3938671">
  <ele>-32.065</ele>
  <time>2026-09-02T22:08:04Z</time>
  <course>185.55</course>
  <speed>0.022360679774997897</speed>
  <fix>3d</fix>
</trkpt>
<trkpt lat="33.8103132" lon="-118.3938671">
  <ele>-32.105</ele>
  <time>2026-09-02T22:08:04Z</time>
  <course>185.55</course>
  <speed>0.022360679774997897</speed>
  <fix>3d</fix>
</trkpt>
<trkpt lat="33.810313" lon="-118.393867">
  <ele>-31.16</ele>
  <time>2026-09-02T22:08:04Z</time>
  <course>0.0</course>
  <speed>0.0</speed>
  <fix>3d</fix>
</trkpt>
<trkpt lat="33.8103132" lon="-118.3938671">
  <ele>-32.124</ele>
  <time>2026-09-02T22:08:04Z</time>
  <course>185.55</course>
  <speed>0.022360679774997897</speed>
  <fix>3d</fix>
</trkpt>
<trkpt lat="33.8103132" lon="-118.3938671">
  <ele>-32.165</ele>
  <time>2026-09-02T22:08:04Z</time>
  <course>185.55</course>
  <speed>0.022360679774997897</speed>
  <fix>3d</fix>
</trkpt>
<trkpt lat="33.810313" lon="-118.393867">
  <ele>-31.27</ele>
  <time>2026-09-02T22:08:04Z</time>
  <course>0.0</course>
  <speed>0.0</speed>
  <fix>3d</fix>
</trkpt>
<trkpt lat="33.8103132" lon="-118.3938671">
  <ele>-32.186</ele>
  <time>2026-09-02T22:08:04Z</time>
  <course>185.55</course>
  <speed>0.022360679774997897</speed>
  <fix>3d</fix>
</trkpt>
<trkpt lat="33.8103132" lon="-118.3938671">
  <ele>-32.225</ele>
  <time>2026-09-02T22:08:04Z</time>
  <course>185.55</course>
  <speed>0.022360679774997897</speed>
  <fix>3d</fix>
</trkpt>
<trkpt lat="33.810313" lon="-118.393867">
  <ele>-31.27</ele>
  <time>2026-09-02T22:08:04Z</time>
  <course>0.0</course>
  <speed>0.0</speed>
  <fix>3d</fix>
</trkpt>
<trkpt lat="33.8103132" lon="-118.3938671">
  <ele>-32.245</ele>
  <time>2026-09-02T22:08:04Z</time>
  <course>185.55</course>
  <speed>0.022360679774997897</speed>
  <fix>3d</fix>
</trkpt>
<trkpt lat="33.8103132" lon="-118.3938671">
  <ele>-32.286</ele>
  <time>2026-09-02T22:08:04Z</time>
  <course>185.54</course>
  <speed>0.022360679774997897</speed>
  <fix>3d</fix>
</trkpt>
<trkpt lat="33.810313" lon="-118.393867">
  <ele>-31.4</ele>
  <time>2026-09-02T22:08:04Z</time>
  <course>0.0</course>
  <speed>0.0</speed>
  <fix>3d</fix>
</trkpt>
<trkpt lat="33.8103132" lon="-118.3938671">
  <ele>-32.288</ele>
  <time>2026-09-02T22:08:04Z</time>
  <course>185.54</course>
  <speed>0.022360679774997897</speed>
  <fix>3d</fix>
</trkpt>
<trkpt lat="33.8103132" lon="-118.3938671">
  <ele>-32.348</ele>
  <time>2026-09-02T22:08:04Z</time>
  <course>185.54</course>
  <speed>0.022360679774997897</speed>
  <fix>3d</fix>
</trkpt>
<trkpt lat="33.810313" lon="-118.393867">
  <ele>-31.4</ele>
  <time>2026-09-02T22:08:04Z</time>
  <course>0.0</course>
  <speed>0.0</speed>
  <fix>3d</fix>
</trkpt>
<trkpt lat="33.8103132" lon="-118.3938671">
  <ele>-32.37</ele>
  <time>2026-09-02T22:08:04Z</time>
  <course>185.54</course>
  <speed>0.022360679774997897</speed>
  <fix>3d</fix>
</trkpt>
<trkpt lat="33.8103132" lon="-118.3938671">
  <ele>-32.411</ele>
  <time>2026-09-02T22:08:04Z</time>
  <course>185.54</course>
  <speed>0.022360679774997897</speed>
  <fix>3d</fix>
</trkpt>
<trkpt lat="33.810313" lon="-118.393867">
  <ele>-31.52</ele>
  <time>2026-09-02T22:08:04Z</time>
  <course>0.0</course>
  <speed>0.0</speed>
  <fix>3d</fix>
</trkpt>
<trkpt lat="33.8103132" lon="-118.3938671">
  <ele>-32.436</ele>
  <time>2026-09-02T22:08:04Z</time>
  <course>185.54</course>
  <speed>0.022360679774997897</speed>
  <fix>3d</fix>
</trkpt>
<trkpt lat="33.8103132" lon="-118.3938671">
  <ele>-32.474</ele>
  <time>2026-09-02T22:08:04Z</time>
  <course>185.54</course>
  <speed>0.022360679774997897</speed>
  <fix>3d</fix>
</trkpt>
<trkpt lat="33.810313" lon="-118.393867">
  <ele>-31.52</ele>
  <time>2026-09-02T22:08:04Z</time>
  <course>0.0</course>
  <speed>0.0</speed>
  <fix>3d</fix>
</trkpt>
<trkpt lat="33.8103132" lon="-118.3938671">
  <ele>-32.495</ele>
  <time>2026-09-02T22:08:04Z</time>
  <course>185.54</course>
  <speed>0.022360679774997897</speed>
  <fix>3d</fix>
</trkpt>
<trkpt lat="33.8103132" lon="-118.3938671">
  <ele>-32.539</ele>
  <time>2026-09-02T22:08:04Z</time>
  <course>185.53</course>
  <speed>0.022360679774997897</speed>
  <fix>3d</fix>
</trkpt>
<trkpt lat="33.810313" lon="-118.393867">
  <ele>-31.64</ele>
  <time>2026-09-02T22:08:04Z</time>
  <course>0.0</course>
  <speed>0.0</speed>
  <fix>3d</fix>
</trkpt>
<trkpt lat="33.8103132" lon="-118.3938671">
  <ele>-32.562</ele>
  <time>2026-09-02T22:08:04Z</time>
  <course>185.53</course>
  <speed>0.022360679774997897</speed>
  <fix>3d</fix>
</trkpt>
<trkpt lat="33.8103132" lon="-118.3938671">
  <ele>-32.603</ele>
  <time>2026-09-02T22:08:04Z</time>
  <course>185.53</course>
  <speed>0.022360679774997897</speed>
  <fix>3d</fix>
</trkpt>
<trkpt lat="33.810313" lon="-118.393867">
  <ele>-31.64</ele>
  <time>2026-09-02T22:08:04Z</time>
  <course>0.0</course>
  <speed>0.0</speed>
  <fix>3d</fix>
</trkpt>
<trkpt lat="33.8103132" lon="-118.3938671">
  <ele>-32.604</ele>
  <time>2026-09-02T22:08:04Z</time>
  <course>185.53</course>
  <speed>0.022360679774997897</speed>
  <fix>3d</fix>
</trkpt>
<trkpt lat="33.8103132" lon="-118.3938671">
  <ele>-32.667</ele>
  <time>2026-09-02T22:08:04Z</time>
  <course>185.53</course>
  <speed>0.022360679774997897</speed>
  <fix>3d</fix>
</trkpt>
<trkpt lat="33.810313" lon="-118.393867">
  <ele>-31.76</ele>
  <time>2026-09-02T22:08:04Z</time>
  <course>0.0</course>
  <speed>0.0</speed>
  <fix>3d</fix>
</trkpt>
<trkpt lat="33.8103132" lon="-118.3938671">
  <ele>-32.669</ele>
  <time>2026-09-02T22:08:04Z</time>
  <course>185.53</course>
  <speed>0.022360679774997897</speed>
  <fix>3d</fix>
</trkpt>
<trkpt lat="33.8103132" lon="-118.3938671">
  <ele>-32.731</ele>
  <time>2026-09-02T22:08:04Z</time>
  <course>185.53</course>
  <speed>0.022360679774997897</speed>
  <fix>3d</fix>
</trkpt>
<trkpt lat="33.810313" lon="-118.393867">
  <ele>-31.76</ele>
  <time>2026-09-02T22:08:04Z</time>
  <course>0.0</course>
  <speed>0.0</speed>
  <fix>3d</fix>
</trkpt>
<trkpt lat="33.8103132" lon="-118.3938671">
  <ele>-32.752</ele>
  <time>2026-09-02T22:08:04Z</time>
  <course>185.52</course>
  <speed>0.022360679774997897</speed>
  <fix>3d</fix>
</trkpt>
<trkpt lat="33.8103132" lon="-118.3938671">
  <ele>-32.794</ele>
  <time>2026-09-02T22:08:04Z</time>
  <course>185.52</course>
  <speed>0.022360679774997897</speed>
  <fix>3d</fix>
</trkpt>
<trkpt lat="33.810313" lon="-118.393867">
  <ele>-31.88</ele>
  <time>2026-09-02T22:08:04Z</time>
  <course>0.0</course>
  <speed>0.0</speed>
  <fix>3d</fix>
</trkpt>
<trkpt lat="33.8103132" lon="-118.3938671">
  <ele>-32.796</ele>
  <time>2026-09-02T22:08:04Z</time>
  <course>185.52</course>
  <speed>0.022360679774997897</speed>
  <fix>3d</fix>
</trkpt>
<trkpt lat="33.8103132" lon="-118.3938671">
  <ele>-32.856</ele>
  <time>2026-09-02T22:08:04Z</time>
  <course>185.52</course>
  <speed>0.022360679774997897</speed>
  <fix>3d</fix>
</trkpt>
<trkpt lat="33.810313" lon="-118.393867">
  <ele>-31.88</ele>
  <time>2026-09-02T22:08:04Z</time>
  <course>0.0</course>
  <speed>0.0</speed>
  <fix>3d</fix>
</trkpt>
<trkpt lat="33.8103132" lon="-118.3938671">
  <ele>-32.857</ele>
  <time>2026-09-02T22:08:04Z</time>
  <course>185.52</course>
  <speed>0.022360679774997897</speed>
  <fix>3d</fix>
</trkpt>
<trkpt lat="33.8103132" lon="-118.3938671">
  <ele>-32.917</ele>
  <time>2026-09-02T22:08:04Z</time>
  <course>185.52</course>
  <speed>0.022360679774997897</speed>
  <fix>3d</fix>
</trkpt>
<trkpt lat="33.810313" lon="-118.393867">
  <ele>-32.0</ele>
  <time>2026-09-02T22:08:04Z</time>
  <course>0.0</course>
  <speed>0.0</speed>
  <fix>3d</fix>
</trkpt>
<trkpt lat="33.8103132" lon="-118.3938671">
  <ele>-32.937</ele>
  <time>2026-09-02T22:08:04Z</time>
  <course>185.52</course>
  <speed>0.022360679774997897</speed>
  <fix>3d</fix>
</trkpt>
<trkpt lat="33.8103132" lon="-118.3938671">
  <ele>-32.978</ele>
  <time>2026-09-02T22:08:04Z</time>
  <course>185.51</course>
  <speed>0.022360679774997897</speed>
  <fix>3d</fix>
</trkpt>
<trkpt lat="33.810313" lon="-118.393867">
  <ele>-32.0</ele>
  <time>2026-09-02T22:08:04Z</time>
  <course>0.0</course>
  <speed>0.0</speed>
  <fix>3d</fix>
</trkpt>
<trkpt lat="33.8103132" lon="-118.3938671">
  <ele>-32.999</ele>
  <time>2026-09-02T22:08:04Z</time>
  <course>185.51</course>
  <speed>0.022360679774997897</speed>
  <fix>3d</fix>
</trkpt>
<trkpt lat="33.8103132" lon="-118.3938671">
  <ele>-33.039</ele>
  <time>2026-09-02T22:08:04Z</time>
  <course>185.51</course>
  <speed>0.022360679774997897</speed>
  <fix>3d</fix>
</trkpt>
<trkpt lat="33.810313" lon="-118.393867">
  <ele>-32.12</ele>
  <time>2026-09-02T22:08:04Z</time>
  <course>0.0</course>
  <speed>0.0</speed>
  <fix>3d</fix>
</trkpt>
<trkpt lat="33.8103132" lon="-118.3938671">
  <ele>-33.061</ele>
  <time>2026-09-02T22:08:04Z</time>
  <course>185.51</course>
  <speed>0.022360679774997897</speed>
  <fix>3d</fix>
</trkpt>
<trkpt lat="33.8103132" lon="-118.3938671">
  <ele>-33.102</ele>
  <time>2026-09-02T22:08:04Z</time>
  <course>185.51</course>
  <speed>0.022360679774997897</speed>
  <fix>3d</fix>
</trkpt>
<trkpt lat="33.810313" lon="-118.393867">
  <ele>-32.12</ele>
  <time>2026-09-02T22:08:04Z</time>
  <course>0.0</course>
  <speed>0.0</speed>
  <fix>3d</fix>
</trkpt>
<trkpt lat="33.8103132" lon="-118.3938671">
  <ele>-33.125</ele>
  <time>2026-09-02T22:08:04Z</time>
  <course>185.51</course>
  <speed>0.022360679774997897</speed>
  <fix>3d</fix>
</trkpt>
<trkpt lat="33.8103132" lon="-118.3938671">
  <ele>-33.164</ele>
  <time>2026-09-02T22:08:04Z</time>
  <course>185.51</course>
  <speed>0.022360679774997897</speed>
  <fix>3d</fix>
</trkpt>
<trkpt lat="33.810313" lon="-118.393867">
  <ele>-32.23</ele>
  <time>2026-09-02T22:08:04Z</time>
  <course>0.0</course>
  <speed>0.0</speed>
  <fix>3d</fix>
</trkpt>
<trkpt lat="33.8103132" lon="-118.3938671">
  <ele>-33.184</ele>
  <time>2026-09-02T22:08:04Z</time>
  <course>185.51</course>
  <speed>0.022360679774997897</speed>
  <fix>3d</fix>
</trkpt>
<trkpt lat="33.8103132" lon="-118.3938671">
  <ele>-33.226</ele>
  <time>2026-09-02T22:08:04Z</time>
  <course>185.5</course>
  <speed>0.022360679774997897</speed>
  <fix>3d</fix>
</trkpt>
<trkpt lat="33.810313" lon="-118.393867">
  <ele>-32.23</ele>
  <time>2026-09-02T22:08:04Z</time>
  <course>0.0</course>
  <speed>0.0</speed>
  <fix>3d</fix>
</trkpt>
<trkpt lat="33.8103132" lon="-118.3938671">
  <ele>-33.227</ele>
  <time>2026-09-02T22:08:04Z</time>
  <course>185.5</course>
  <speed>0.022360679774997897</speed>
  <fix>3d</fix>
</trkpt>
<trkpt lat="33.8103132" lon="-118.3938671">
  <ele>-33.287</ele>
  <time>2026-09-02T22:08:04Z</time>
  <course>185.5</course>
  <speed>0.022360679774997897</speed>
  <fix>3d</fix>
</trkpt>
<trkpt lat="33.810313" lon="-118.393867">
  <ele>-32.36</ele>
  <time>2026-09-02T22:08:04Z</time>
  <course>0.0</course>
  <speed>0.0</speed>
  <fix>3d</fix>
</trkpt>
<trkpt lat="33.8103132" lon="-118.3938671">
  <ele>-33.289</ele>
  <time>2026-09-02T22:08:04Z</time>
  <course>185.5</course>
  <speed>0.022360679774997897</speed>
  <fix>3d</fix>
</trkpt>
<trkpt lat="33.8103132" lon="-118.3938671">
  <ele>-33.349</ele>
  <time>2026-09-02T22:08:04Z</time>
  <course>185.5</course>
  <speed>0.022360679774997897</speed>
  <fix>3d</fix>
</trkpt>
<trkpt lat="33.810313" lon="-118.393867">
  <ele>-32.36</ele>
  <time>2026-09-02T22:08:04Z</time>
  <course>0.0</course>
  <speed>0.0</speed>
  <fix>3d</fix>
</trkpt>
<trkpt lat="33.8103132" lon="-118.3938671">
  <ele>-33.378</ele>
  <time>2026-09-02T22:08:04Z</time>
  <course>185.5</course>
  <speed>0.022360679774997897</speed>
  <fix>3d</fix>
</trkpt>
<trkpt lat="33.8103132" lon="-118.3938671">
  <ele>-33.412</ele>
  <time>2026-09-02T22:08:04Z</time>
  <course>185.5</course>
  <speed>0.022360679774997897</speed>
  <fix>3d</fix>
</trkpt>
<trkpt lat="33.810313" lon="-118.393867">
  <ele>-32.48</ele>
  <time>2026-09-02T22:08:04Z</time>
  <course>0.0</course>
  <speed>0.0</speed>
  <fix>3d</fix>
</trkpt>
<trkpt lat="33.8103132" lon="-118.3938671">
  <ele>-33.436</ele>
  <time>2026-09-02T22:08:04Z</time>
  <course>185.5</course>
  <speed>0.022360679774997897</speed>
  <fix>3d</fix>
</trkpt>
<trkpt lat="33.8103132" lon="-118.3938671">
  <ele>-33.474</ele>
  <time>2026-09-02T22:08:04Z</time>
  <course>185.49</course>
  <speed>0.022360679774997897</speed>
  <fix>3d</fix>
</trkpt>
<trkpt lat="33.810313" lon="-118.393867">
  <ele>-32.48</ele>
  <time>2026-09-02T22:08:04Z</time>
  <course>0.0</course>
  <speed>0.0</speed>
  <fix>3d</fix>
</trkpt>
<trkpt lat="33.8103132" lon="-118.3938671">
  <ele>-33.494</ele>
  <time>2026-09-02T22:08:04Z</time>
  <course>185.49</course>
  <speed>0.022360679774997897</speed>
  <fix>3d</fix>
</trkpt>
<trkpt lat="33.8103132" lon="-118.3938671">
  <ele>-33.537</ele>
  <time>2026-09-02T22:08:04Z</time>
  <course>185.49</course>
  <speed>0.022360679774997897</speed>
  <fix>3d</fix>
</trkpt>
<trkpt lat="33.810313" lon="-118.393867">
  <ele>-32.59</ele>
  <time>2026-09-02T22:08:04Z</time>
  <course>0.0</course>
  <speed>0.0</speed>
  <fix>3d</fix>
</trkpt>
<trkpt lat="33.8103132" lon="-118.3938671">
  <ele>-33.564</ele>
  <time>2026-09-02T22:08:04Z</time>
  <course>185.49</course>
  <speed>0.022360679774997897</speed>
  <fix>3d</fix>
</trkpt>
<trkpt lat="33.8103132" lon="-118.3938671">
  <ele>-33.6</ele>
  <time>2026-09-02T22:08:04Z</time>
  <course>185.49</course>
  <speed>0.022360679774997897</speed>
  <fix>3d</fix>
</trkpt>
<trkpt lat="33.810313" lon="-118.393867">
  <ele>-32.59</ele>
  <time>2026-09-02T22:08:04Z</time>
  <course>0.0</course>
  <speed>0.0</speed>
  <fix>3d</fix>
</trkpt>
<trkpt lat="33.8103132" lon="-118.3938671">
  <ele>-33.627</ele>
  <time>2026-09-02T22:08:04Z</time>
  <course>185.49</course>
  <speed>0.022360679774997897</speed>
  <fix>3d</fix>
</trkpt>
<trkpt lat="33.8103132" lon="-118.3938671">
  <ele>-33.664</ele>
  <time>2026-09-02T22:08:04Z</time>
  <course>185.49</course>
  <speed>0.022360679774997897</speed>
  <fix>3d</fix>
</trkpt>
<trkpt lat="33.810313" lon="-118.393867">
  <ele>-32.72</ele>
  <time>2026-09-02T22:08:04Z</time>
  <course>0.0</course>
  <speed>0.0</speed>
  <fix>3d</fix>
</trkpt>
<trkpt lat="33.8103132" lon="-118.3938671">
  <ele>-33.69</ele>
  <time>2026-09-02T22:08:04Z</time>
  <course>185.49</course>
  <speed>0.022360679774997897</speed>
  <fix>3d</fix>
</trkpt>
<trkpt lat="33.8103132" lon="-118.3938671">
  <ele>-33.726</ele>
  <time>2026-09-02T22:08:04Z</time>
  <course>185.48</course>
  <speed>0.022360679774997897</speed>
  <fix>3d</fix>
</trkpt>
<trkpt lat="33.810313" lon="-118.393867">
  <ele>-32.72</ele>
  <time>2026-09-02T22:08:04Z</time>
  <course>0.0</course>
  <speed>0.0</speed>
  <fix>3d</fix>
</trkpt>
<trkpt lat="33.8103132" lon="-118.3938671">
  <ele>-33.746</ele>
  <time>2026-09-02T22:08:04Z</time>
  <course>185.48</course>
  <speed>0.022360679774997897</speed>
  <fix>3d</fix>
</trkpt>
<trkpt lat="33.8103132" lon="-118.3938671">
  <ele>-33.788</ele>
  <time>2026-09-02T22:08:04Z</time>
  <course>185.48</course>
  <speed>0.022360679774997897</speed>
  <fix>3d</fix>
</trkpt>
<trkpt lat="33.810313" lon="-118.393867">
  <ele>-32.84</ele>
  <time>2026-09-02T22:08:04Z</time>
  <course>0.0</course>
  <speed>0.0</speed>
  <fix>3d</fix>
</trkpt>
<trkpt lat="33.8103132" lon="-118.3938671">
  <ele>-33.807</ele>
  <time>2026-09-02T22:08:04Z</time>
  <course>185.48</course>
  <speed>0.022360679774997897</speed>
  <fix>3d</fix>
</trkpt>
<trkpt lat="33.8103132" lon="-118.3938671">
  <ele>-33.848</ele>
  <time>2026-09-02T22:08:04Z</time>
  <course>185.48</course>
  <speed>0.022360679774997897</speed>
  <fix>3d</fix>
</trkpt>
<trkpt lat="33.810313" lon="-118.393867">
  <ele>-32.84</ele>
  <time>2026-09-02T22:08:04Z</time>
  <course>0.0</course>
  <speed>0.0</speed>
  <fix>3d</fix>
</trkpt>
<trkpt lat="33.8103132" lon="-118.3938671">
  <ele>-33.867</ele>
  <time>2026-09-02T22:08:04Z</time>
  <course>185.48</course>
  <speed>0.022360679774997897</speed>
  <fix>3d</fix>
</trkpt>
<trkpt lat="33.8103132" lon="-118.3938671">
  <ele>-33.907</ele>
  <time>2026-09-02T22:08:04Z</time>
  <course>185.48</course>
  <speed>0.022360679774997897</speed>
  <fix>3d</fix>
</trkpt>
<trkpt lat="33.810313" lon="-118.393867">
  <ele>-32.97</ele>
  <time>2026-09-02T22:08:04Z</time>
  <course>0.0</course>
  <speed>0.0</speed>
  <fix>3d</fix>
</trkpt>
<trkpt lat="33.8103132" lon="-118.3938671">
  <ele>-33.909</ele>
  <time>2026-09-02T22:08:04Z</time>
  <course>185.48</course>
  <speed>0.022360679774997897</speed>
  <fix>3d</fix>
</trkpt>
<trkpt lat="33.8103132" lon="-118.3938671">
  <ele>-33.967</ele>
  <time>2026-09-02T22:08:04Z</time>
  <course>185.47</course>
  <speed>0.022360679774997897</speed>
  <fix>3d</fix>
</trkpt>
<trkpt lat="33.810313" lon="-118.393867">
  <ele>-32.97</ele>
  <time>2026-09-02T22:08:04Z</time>
  <course>0.0</course>
  <speed>0.0</speed>
  <fix>3d</fix>
</trkpt>
<trkpt lat="33.8103132" lon="-118.3938671">
  <ele>-33.995</ele>
  <time>2026-09-02T22:08:04Z</time>
  <course>185.47</course>
  <speed>0.022360679774997897</speed>
  <fix>3d</fix>
</trkpt>
<trkpt lat="33.8103132" lon="-118.3938671">
  <ele>-34.026</ele>
  <time>2026-09-02T22:08:04Z</time>
  <course>185.47</course>
  <speed>0.022360679774997897</speed>
  <fix>3d</fix>
</trkpt>
<trkpt lat="33.810313" lon="-118.393867">
  <ele>-33.09</ele>
  <time>2026-09-02T22:08:04Z</time>
  <course>0.0</course>
  <speed>0.0</speed>
  <fix>3d</fix>
</trkpt>
<trkpt lat="33.8103132" lon="-118.3938671">
  <ele>-34.048</ele>
  <time>2026-09-02T22:08:04Z</time>
  <course>185.47</course>
  <speed>0.022360679774997897</speed>
  <fix>3d</fix>
</trkpt>
<trkpt lat="33.8103132" lon="-118.3938671">
  <ele>-34.086</ele>
  <time>2026-09-02T22:08:04Z</time>
  <course>185.47</course>
  <speed>0.022360679774997897</speed>
  <fix>3d</fix>
</trkpt>
<trkpt lat="33.810313" lon="-118.393867">
  <ele>-33.09</ele>
  <time>2026-09-02T22:08:04Z</time>
  <course>0.0</course>
  <speed>0.0</speed>
  <fix>3d</fix>
</trkpt>
<trkpt lat="33.8103132" lon="-118.3938671">
  <ele>-34.109</ele>
  <time>2026-09-02T22:08:04Z</time>
  <course>185.47</course>
  <speed>0.022360679774997897</speed>
  <fix>3d</fix>
</trkpt>
<trkpt lat="33.8103132" lon="-118.3938671">
  <ele>-34.145</ele>
  <time>2026-09-02T22:08:04Z</time>
  <course>185.47</course>
  <speed>0.022360679774997897</speed>
  <fix>3d</fix>
</trkpt>
<trkpt lat="33.810313" lon="-118.393867">
  <ele>-33.21</ele>
  <time>2026-09-02T22:08:04Z</time>
  <course>0.0</course>
  <speed>0.0</speed>
  <fix>3d</fix>
</trkpt>
<trkpt lat="33.8103132" lon="-118.3938671">
  <ele>-34.167</ele>
  <time>2026-09-02T22:08:04Z</time>
  <course>185.47</course>
  <speed>0.022360679774997897</speed>
  <fix>3d</fix>
</trkpt>
<trkpt lat="33.8103132" lon="-118.3938671">
  <ele>-34.205</ele>
  <time>2026-09-02T22:08:04Z</time>
  <course>185.46</course>
  <speed>0.022360679774997897</speed>
  <fix>3d</fix>
</trkpt>
<trkpt lat="33.810313" lon="-118.393867">
  <ele>-33.21</ele>
  <time>2026-09-02T22:08:04Z</time>
  <course>0.0</course>
  <speed>0.0</speed>
  <fix>3d</fix>
</trkpt>
<trkpt lat="33.8103132" lon="-118.3938671">
  <ele>-34.225</ele>
  <time>2026-09-02T22:08:04Z</time>
  <course>185.46</course>
  <speed>0.022360679774997897</speed>
  <fix>3d</fix>
</trkpt>
<trkpt lat="33.8103132" lon="-118.3938671">
  <ele>-34.264</ele>
  <time>2026-09-02T22:08:04Z</time>
  <course>185.46</course>
  <speed>0.022360679774997897</speed>
  <fix>3d</fix>
</trkpt>
<trkpt lat="33.810313" lon="-118.393867">
  <ele>-33.33</ele>
  <time>2026-09-02T22:08:04Z</time>
  <course>0.0</course>
  <speed>0.0</speed>
  <fix>3d</fix>
</trkpt>
<trkpt lat="33.8103132" lon="-118.3938671">
  <ele>-34.287</ele>
  <time>2026-09-02T22:08:04Z</time>
  <course>185.46</course>
  <speed>0.022360679774997897</speed>
  <fix>3d</fix>
</trkpt>
<trkpt lat="33.8103132" lon="-118.3938671">
  <ele>-34.325</ele>
  <time>2026-09-02T22:08:04Z</time>
  <course>185.46</course>
  <speed>0.022360679774997897</speed>
  <fix>3d</fix>
</trkpt>
<trkpt lat="33.810313" lon="-118.393867">
  <ele>-33.33</ele>
  <time>2026-09-02T22:08:04Z</time>
  <course>0.0</course>
  <speed>0.0</speed>
  <fix>3d</fix>
</trkpt>
<trkpt lat="33.8103132" lon="-118.3938671">
  <ele>-34.348</ele>
  <time>2026-09-02T22:08:04Z</time>
  <course>185.46</course>
  <speed>0.022360679774997897</speed>
  <fix>3d</fix>
</trkpt>
<trkpt lat="33.8103132" lon="-118.3938671">
  <ele>-34.387</ele>
  <time>2026-09-02T22:08:04Z</time>
  <course>185.46</course>
  <speed>0.022360679774997897</speed>
  <fix>3d</fix>
</trkpt>
<trkpt lat="33.810313" lon="-118.393867">
  <ele>-33.44</ele>
  <time>2026-09-02T22:08:04Z</time>
  <course>0.0</course>
  <speed>0.0</speed>
  <fix>3d</fix>
</trkpt>
<trkpt lat="33.8103132" lon="-118.3938671">
  <ele>-34.389</ele>
  <time>2026-09-02T22:08:04Z</time>
  <course>185.46</course>
  <speed>0.022360679774997897</speed>
  <fix>3d</fix>
</trkpt>
<trkpt lat="33.8103132" lon="-118.3938671">
  <ele>-34.449</ele>
  <time>2026-09-02T22:08:04Z</time>
  <course>185.45</course>
  <speed>0.022360679774997897</speed>
  <fix>3d</fix>
</trkpt>
<trkpt lat="33.810313" lon="-118.393867">
  <ele>-33.44</ele>
  <time>2026-09-02T22:08:04Z</time>
  <course>0.0</course>
  <speed>0.0</speed>
  <fix>3d</fix>
</trkpt>
<trkpt lat="33.8103132" lon="-118.3938671">
  <ele>-34.471</ele>
  <time>2026-09-02T22:08:04Z</time>
  <course>185.45</course>
  <speed>0.022360679774997897</speed>
  <fix>3d</fix>
</trkpt>
<trkpt lat="33.8103132" lon="-118.3938671">
  <ele>-34.512</ele>
  <time>2026-09-02T22:08:04Z</time>
  <course>185.45</course>
  <speed>0.022360679774997897</speed>
  <fix>3d</fix>
</trkpt>
<trkpt lat="33.810313" lon="-118.393867">
  <ele>-33.57</ele>
  <time>2026-09-02T22:08:04Z</time>
  <course>0.0</course>
  <speed>0.0</speed>
  <fix>3d</fix>
</trkpt>
<trkpt lat="33.8103132" lon="-118.3938671">
  <ele>-34.513</ele>
  <time>2026-09-02T22:08:04Z</time>
  <course>185.45</course>
  <speed>0.022360679774997897</speed>
  <fix>3d</fix>
</trkpt>
<trkpt lat="33.8103132" lon="-118.3938671">
  <ele>-34.574</ele>
  <time>2026-09-02T22:08:04Z</time>
  <course>185.45</course>
  <speed>0.022360679774997897</speed>
  <fix>3d</fix>
</trkpt>
<trkpt lat="33.810313" lon="-118.393867">
  <ele>-33.57</ele>
  <time>2026-09-02T22:08:04Z</time>
  <course>0.0</course>
  <speed>0.0</speed>
  <fix>3d</fix>
</trkpt>
<trkpt lat="33.8103132" lon="-118.3938671">
  <ele>-34.596</ele>
  <time>2026-09-02T22:08:04Z</time>
  <course>185.45</course>
  <speed>0.022360679774997897</speed>
  <fix>3d</fix>
</trkpt>
<trkpt lat="33.8103132" lon="-118.3938671">
  <ele>-34.638</ele>
  <time>2026-09-02T22:08:05Z</time>
  <course>185.45</course>
  <speed>0.022360679774997897</speed>
  <fix>3d</fix>
</trkpt>
<trkpt lat="33.810313" lon="-118.393867">
  <ele>-33.69</ele>
  <time>2026-09-02T22:08:05Z</time>
  <course>0.0</course>
  <speed>0.0</speed>
  <fix>3d</fix>
</trkpt>
<trkpt lat="33.8103132" lon="-118.3938671">
  <ele>-34.665</ele>
  <time>2026-09-02T22:08:05Z</time>
  <course>185.45</course>
  <speed>0.022360679774997897</speed>
  <fix>3d</fix>
</trkpt>
<trkpt lat="33.8103132" lon="-118.3938671">
  <ele>-34.702</ele>
  <time>2026-09-02T22:08:05Z</time>
  <course>185.45</course>
  <speed>0.022360679774997897</speed>
  <fix>3d</fix>
</trkpt>
<trkpt lat="33.810313" lon="-118.393867">
  <ele>-33.69</ele>
  <time>2026-09-02T22:08:05Z</time>
  <course>0.0</course>
  <speed>0.0</speed>
  <fix>3d</fix>
</trkpt>
<trkpt lat="33.8103132" lon="-118.3938671">
  <ele>-34.729</ele>
  <time>2026-09-02T22:08:05Z</time>
  <course>185.44</course>
  <speed>0.022360679774997897</speed>
  <fix>3d</fix>
</trkpt>
<trkpt lat="33.8103132" lon="-118.3938671">
  <ele>-34.764</ele>
  <time>2026-09-02T22:08:05Z</time>
  <course>185.44</course>
  <speed>0.022360679774997897</speed>
  <fix>3d</fix>
</trkpt>
<trkpt lat="33.810313" lon="-118.393867">
  <ele>-33.8</ele>
  <time>2026-09-02T22:08:05Z</time>
  <course>0.0</course>
  <speed>0.0</speed>
  <fix>3d</fix>
</trkpt>
<trkpt lat="33.8103132" lon="-118.3938671">
  <ele>-34.786</ele>
  <time>2026-09-02T22:08:05Z</time>
  <course>185.44</course>
  <speed>0.022360679774997897</speed>
  <fix>3d</fix>
</trkpt>
<trkpt lat="33.8103132" lon="-118.3938671">
  <ele>-34.827</ele>
  <time>2026-09-02T22:08:05Z</time>
  <course>185.44</course>
  <speed>0.022360679774997897</speed>
  <fix>3d</fix>
</trkpt>
<trkpt lat="33.810313" lon="-118.393867">
  <ele>-33.8</ele>
  <time>2026-09-02T22:08:05Z</time>
  <course>0.0</course>
  <speed>0.0</speed>
  <fix>3d</fix>
</trkpt>
<trkpt lat="33.8103132" lon="-118.3938671">
  <ele>-34.849</ele>
  <time>2026-09-02T22:08:05Z</time>
  <course>185.44</course>
  <speed>0.022360679774997897</speed>
  <fix>3d</fix>
</trkpt>
<trkpt lat="33.8103132" lon="-118.3938671">
  <ele>-34.889</ele>
  <time>2026-09-02T22:08:05Z</time>
  <course>185.44</course>
  <speed>0.022360679774997897</speed>
  <fix>3d</fix>
</trkpt>
<trkpt lat="33.810313" lon="-118.393867">
  <ele>-33.93</ele>
  <time>2026-09-02T22:08:05Z</time>
  <course>0.0</course>
  <speed>0.0</speed>
  <fix>3d</fix>
</trkpt>
<trkpt lat="33.8103132" lon="-118.3938671">
  <ele>-34.914</ele>
  <time>2026-09-02T22:08:05Z</time>
  <course>185.44</course>
  <speed>0.022360679774997897</speed>
  <fix>3d</fix>
</trkpt>
<trkpt lat="33.8103132" lon="-118.3938671">
  <ele>-34.951</ele>
  <time>2026-09-02T22:08:05Z</time>
  <course>185.44</course>
  <speed>0.022360679774997897</speed>
  <fix>3d</fix>
</trkpt>
<trkpt lat="33.810313" lon="-118.393867">
  <ele>-33.93</ele>
  <time>2026-09-02T22:08:05Z</time>
  <course>0.0</course>
  <speed>0.0</speed>
  <fix>3d</fix>
</trkpt>
<trkpt lat="33.8103132" lon="-118.3938671">
  <ele>-34.97</ele>
  <time>2026-09-02T22:08:05Z</time>
  <course>185.43</course>
  <speed>0.022360679774997897</speed>
  <fix>3d</fix>
</trkpt>
<trkpt lat="33.8103132" lon="-118.3938671">
  <ele>-35.012</ele>
  <time>2026-09-02T22:08:05Z</time>
  <course>185.43</course>
  <speed>0.022360679774997897</speed>
  <fix>3d</fix>
</trkpt>
<trkpt lat="33.810313" lon="-118.393867">
  <ele>-34.05</ele>
  <time>2026-09-02T22:08:05Z</time>
  <course>0.0</course>
  <speed>0.0</speed>
  <fix>3d</fix>
</trkpt>
<trkpt lat="33.8103132" lon="-118.3938671">
  <ele>-35.034</ele>
  <time>2026-09-02T22:08:05Z</time>
  <course>185.43</course>
  <speed>0.022360679774997897</speed>
  <fix>3d</fix>
</trkpt>
<trkpt lat="33.8103132" lon="-118.3938671">
  <ele>-35.075</ele>
  <time>2026-09-02T22:08:05Z</time>
  <course>185.43</course>
  <speed>0.022360679774997897</speed>
  <fix>3d</fix>
</trkpt>
<trkpt lat="33.810313" lon="-118.393867">
  <ele>-34.05</ele>
  <time>2026-09-02T22:08:05Z</time>
  <course>0.0</course>
  <speed>0.0</speed>
  <fix>3d</fix>
</trkpt>
<trkpt lat="33.8103132" lon="-118.3938671">
  <ele>-35.125</ele>
  <time>2026-09-02T22:08:05Z</time>
  <course>185.43</course>
  <speed>0.022360679774997897</speed>
  <fix>3d</fix>
</trkpt>
<trkpt lat="33.810313" lon="-118.393867">
  <ele>-34.17</ele>
  <time>2026-09-02T22:08:05Z</time>
  <course>0.0</course>
  <speed>0.0</speed>
  <fix>3d</fix>
</trkpt>
<trkpt lat="33.8103132" lon="-118.3938671">
  <ele>-35.163</ele>
  <time>2026-09-02T22:08:05Z</time>
  <course>185.43</course>
  <speed>0.022360679774997897</speed>
  <fix>3d</fix>
</trkpt>
<trkpt lat="33.810313" lon="-118.393867">
  <ele>-34.17</ele>
  <time>2026-09-02T22:08:05Z</time>
  <course>0.0</course>
  <speed>0.0</speed>
  <fix>3d</fix>
</trkpt>
<trkpt lat="33.8103132" lon="-118.3938671">
  <ele>-35.194</ele>
  <time>2026-09-02T22:08:05Z</time>
  <course>185.42</course>
  <speed>0.022360679774997897</speed>
  <fix>3d</fix>
</trkpt>
<trkpt lat="33.810313" lon="-118.393867">
  <ele>-34.27</ele>
  <time>2026-09-02T22:08:05Z</time>
  <course>0.0</course>
  <speed>0.0</speed>
  <fix>3d</fix>
</trkpt>
<trkpt lat="33.8103132" lon="-118.3938671">
  <ele>-35.219</ele>
  <time>2026-09-02T22:08:05Z</time>
  <course>185.42</course>
  <speed>0.022360679774997897</speed>
  <fix>3d</fix>
</trkpt>
<trkpt lat="33.810313" lon="-118.393867">
  <ele>-34.27</ele>
  <time>2026-09-02T22:08:05Z</time>
  <course>0.0</course>
  <speed>0.0</speed>
  <fix>3d</fix>
</trkpt>
<trkpt lat="33.8103132" lon="-118.3938671">
  <ele>-35.24</ele>
  <time>2026-09-02T22:08:05Z</time>
  <course>185.42</course>
  <speed>0.022360679774997897</speed>
  <fix>3d</fix>
</trkpt>
<trkpt lat="33.810313" lon="-118.393867">
  <ele>-34.33</ele>
  <time>2026-09-02T22:08:05Z</time>
  <course>0.0</course>
  <speed>0.0</speed>
  <fix>3d</fix>
</trkpt>
<trkpt lat="33.8103132" lon="-118.3938671">
  <ele>-35.258</ele>
  <time>2026-09-02T22:08:05Z</time>
  <course>185.42</course>
  <speed>0.022360679774997897</speed>
  <fix>3d</fix>
</trkpt>
<trkpt lat="33.810313" lon="-118.393867">
  <ele>-34.33</ele>
  <time>2026-09-02T22:08:05Z</time>
  <course>0.0</course>
  <speed>0.0</speed>
  <fix>3d</fix>
</trkpt>
<trkpt lat="33.8103132" lon="-118.3938671">
  <ele>-35.273</ele>
  <time>2026-09-02T22:08:05Z</time>
  <course>185.42</course>
  <speed>0.022360679774997897</speed>
  <fix>3d</fix>
</trkpt>
<trkpt lat="33.810313" lon="-118.393867">
  <ele>-34.37</ele>
  <time>2026-09-02T22:08:05Z</time>
  <course>0.0</course>
  <speed>0.0</speed>
  <fix>3d</fix>
</trkpt>
<trkpt lat="33.8103132" lon="-118.3938671">
  <ele>-35.285</ele>
  <time>2026-09-02T22:08:05Z</time>
  <course>185.41</course>
  <speed>0.022360679774997897</speed>
  <fix>3d</fix>
</trkpt>
<trkpt lat="33.810313" lon="-118.393867">
  <ele>-34.37</ele>
  <time>2026-09-02T22:08:05Z</time>
  <course>0.0</course>
  <speed>0.0</speed>
  <fix>3d</fix>
</trkpt>
<trkpt lat="33.8103132" lon="-118.3938671">
  <ele>-35.296</ele>
  <time>2026-09-02T22:08:05Z</time>
  <course>185.41</course>
  <speed>0.022360679774997897</speed>
  <fix>3d</fix>
</trkpt>
<trkpt lat="33.810313" lon="-118.393867">
  <ele>-34.4</ele>
  <time>2026-09-02T22:08:05Z</time>
  <course>0.0</course>
  <speed>0.0</speed>
  <fix>3d</fix>
</trkpt>
<trkpt lat="33.8103132" lon="-118.3938671">
  <ele>-35.305</ele>
  <time>2026-09-02T22:08:05Z</time>
  <course>185.41</course>
  <speed>0.022360679774997897</speed>
  <fix>3d</fix>
</trkpt>
<trkpt lat="33.810313" lon="-118.393867">
  <ele>-34.4</ele>
  <time>2026-09-02T22:08:05Z</time>
  <course>0.0</course>
  <speed>0.0</speed>
  <fix>3d</fix>
</trkpt>
<trkpt lat="33.8103132" lon="-118.3938671">
  <ele>-35.312</ele>
  <time>2026-09-02T22:08:05Z</time>
  <course>185.41</course>
  <speed>0.022360679774997897</speed>
  <fix>3d</fix>
</trkpt>
<trkpt lat="33.810313" lon="-118.393867">
  <ele>-34.43</ele>
  <time>2026-09-02T22:08:05Z</time>
  <course>0.0</course>
  <speed>0.0</speed>
  <fix>3d</fix>
</trkpt>
<trkpt lat="33.8103132" lon="-118.3938671">
  <ele>-35.318</ele>
  <time>2026-09-02T22:08:05Z</time>
  <course>185.41</course>
  <speed>0.022360679774997897</speed>
  <fix>3d</fix>
</trkpt>
<trkpt lat="33.810313" lon="-118.393867">
  <ele>-34.43</ele>
  <time>2026-09-02T22:08:05Z</time>
  <course>0.0</course>
  <speed>0.0</speed>
  <fix>3d</fix>
</trkpt>
<trkpt lat="33.8103132" lon="-118.3938671">
  <ele>-35.322</ele>
  <time>2026-09-02T22:08:05Z</time>
  <course>185.4</course>
  <speed>0.022360679774997897</speed>
  <fix>3d</fix>
</trkpt>
<trkpt lat="33.810313" lon="-118.393867">
  <ele>-34.44</ele>
  <time>2026-09-02T22:08:05Z</time>
  <course>0.0</course>
  <speed>0.0</speed>
  <fix>3d</fix>
</trkpt>
<trkpt lat="33.8103132" lon="-118.3938671">
  <ele>-35.325</ele>
  <time>2026-09-02T22:08:05Z</time>
  <course>185.4</course>
  <speed>0.022360679774997897</speed>
  <fix>3d</fix>
</trkpt>
<trkpt lat="33.810313" lon="-118.393867">
  <ele>-34.44</ele>
  <time>2026-09-02T22:08:05Z</time>
  <course>0.0</course>
  <speed>0.0</speed>
  <fix>3d</fix>
</trkpt>
<trkpt lat="33.8103132" lon="-118.3938671">
  <ele>-35.325</ele>
  <time>2026-09-02T22:08:05Z</time>
  <course>185.89</course>
  <speed>0.022360679774997897</speed>
  <fix>3d</fix>
</trkpt>
<trkpt lat="33.810313" lon="-118.393867">
  <ele>-34.45</ele>
  <time>2026-09-02T22:08:05Z</time>
  <course>263.36</course>
  <speed>0.0</speed>
  <fix>3d</fix>
</trkpt>
<trkpt lat="33.8103132" lon="-118.3938671">
  <ele>-35.315</ele>
  <time>2026-09-02T22:08:05Z</time>
  <course>188.0</course>
  <speed>0.02</speed>
  <fix>3d</fix>
</trkpt>
<trkpt lat="33.810313" lon="-118.393867">
  <ele>-34.45</ele>
  <time>2026-09-02T22:08:05Z</time>
  <course>263.36</course>
  <speed>0.0</speed>
  <fix>3d</fix>
</trkpt>
<trkpt lat="33.8103132" lon="-118.3938671">
  <ele>-35.3</ele>
  <time>2026-09-02T22:08:05Z</time>
  <course>191.02</course>
  <speed>0.0412310562561766</speed>
  <fix>3d</fix>
</trkpt>
<trkpt lat="33.810313" lon="-118.393867">
  <ele>-34.46</ele>
  <time>2026-09-02T22:08:05Z</time>
  <course>214.53</course>
  <speed>0.01</speed>
  <fix>3d</fix>
</trkpt>
<trkpt lat="33.8103132" lon="-118.3938672">
  <ele>-35.277</ele>
  <time>2026-09-02T22:08:05Z</time>
  <course>194.2</course>
  <speed>0.07211102550927978</speed>
  <fix>3d</fix>
</trkpt>
<trkpt lat="33.810313" lon="-118.393867">
  <ele>-34.46</ele>
  <time>2026-09-02T22:08:05Z</time>
  <course>214.53</course>
  <speed>0.01</speed>
  <fix>3d</fix>
</trkpt>
<trkpt lat="33.8103131" lon="-118.3938672">
  <ele>-35.249</ele>
  <time>2026-09-02T22:08:05Z</time>
  <course>197.02</course>
  <speed>0.1063014581273465</speed>
  <fix>3d</fix>
</trkpt>
<trkpt lat="33.8103129" lon="-118.393867">
  <ele>-34.44</ele>
  <time>2026-09-02T22:08:05Z</time>
  <course>211.32</course>
  <speed>0.06</speed>
  <fix>3d</fix>
</trkpt>
<trkpt lat="33.810313" lon="-118.3938673">
  <ele>-35.222</ele>
  <time>2026-09-02T22:08:05Z</time>
  <course>199.64</course>
  <speed>0.15620499351813308</speed>
  <fix>3d</fix>
</trkpt>
<trkpt lat="33.8103129" lon="-118.393867">
  <ele>-34.44</ele>
  <time>2026-09-02T22:08:05Z</time>
  <course>211.32</course>
  <speed>0.06</speed>
  <fix>3d</fix>
</trkpt>
<trkpt lat="33.8103128" lon="-118.3938674">
  <ele>-35.196</ele>
  <time>2026-09-02T22:08:05Z</time>
  <course>202.72</course>
  <speed>0.21400934559032694</speed>
  <fix>3d</fix>
</trkpt>
<trkpt lat="33.8103128" lon="-118.3938671">
  <ele>-34.39</ele>
  <time>2026-09-02T22:08:05Z</time>
  <course>210.54</course>
  <speed>0.14</speed>
  <fix>3d</fix>
</trkpt>
<trkpt lat="33.8103126" lon="-118.3938676">
  <ele>-35.173</ele>
  <time>2026-09-02T22:08:05Z</time>
  <course>205.79</course>
  <speed>0.2640075756488817</speed>
  <fix>3d</fix>
</trkpt>
<trkpt lat="33.8103128" lon="-118.3938671">
  <ele>-34.39</ele>
  <time>2026-09-02T22:08:05Z</time>
  <course>210.54</course>
  <speed>0.14</speed>
  <fix>3d</fix>
</trkpt>
<trkpt lat="33.8103124" lon="-118.3938677">
  <ele>-35.152</ele>
  <time>2026-09-02T22:08:05Z</time>
  <course>208.57</course>
  <speed>0.3301514803843835</speed>
  <fix>3d</fix>
</trkpt>
<trkpt lat="33.8103124" lon="-118.3938673">
  <ele>-34.35</ele>
  <time>2026-09-02T22:08:05Z</time>
  <course>210.48</course>
  <speed>0.24</speed>
  <fix>3d</fix>
</trkpt>
<trkpt lat="33.8103121" lon="-118.3938679">
  <ele>-35.138</ele>
  <time>2026-09-02T22:08:05Z</time>
  <course>210.67</course>
  <speed>0.4049691346263317</speed>
  <fix>3d</fix>
</trkpt>
<trkpt lat="33.8103124" lon="-118.3938673">
  <ele>-34.35</ele>
  <time>2026-09-02T22:08:05Z</time>
  <course>210.48</course>
  <speed>0.24</speed>
  <fix>3d</fix>
</trkpt>
<trkpt lat="33.8103117" lon="-118.3938682">
  <ele>-35.126</ele>
  <time>2026-09-02T22:08:05Z</time>
  <course>212.0</course>
  <speed>0.47707441767506253</speed>
  <fix>3d</fix>
</trkpt>
<trkpt lat="33.810312" lon="-118.3938676">
  <ele>-34.31</ele>
  <time>2026-09-02T22:08:05Z</time>
  <course>209.95</course>
  <speed>0.37</speed>
  <fix>3d</fix>
</trkpt>
<trkpt lat="33.8103113" lon="-118.3938684">
  <ele>-35.116</ele>
  <time>2026-09-02T22:08:05Z</time>
  <course>212.54</course>
  <speed>0.552268050859363</speed>
  <fix>3d</fix>
</trkpt>
<trkpt lat="33.810312" lon="-118.3938676">
  <ele>-34.31</ele>
  <time>2026-09-02T22:08:05Z</time>
  <course>209.95</course>
  <speed>0.37</speed>
  <fix>3d</fix>
</trkpt>
<trkpt lat="33.8103109" lon="-118.3938687">
  <ele>-35.109</ele>
  <time>2026-09-02T22:08:05Z</time>
  <course>212.59</course>
  <speed>0.6105735008989499</speed>
  <fix>3d</fix>
</trkpt>
<trkpt lat="33.8103113" lon="-118.3938681">
  <ele>-34.29</ele>
  <time>2026-09-02T22:08:05Z</time>
  <course>209.27</course>
  <speed>0.52</speed>
  <fix>3d</fix>
</trkpt>
<trkpt lat="33.8103104" lon="-118.3938691">
  <ele>-35.112</ele>
  <time>2026-09-02T22:08:05Z</time>
  <course>212.45</course>
  <speed>0.6688796603276258</speed>
  <fix>3d</fix>
</trkpt>
<trkpt lat="33.8103113" lon="-118.3938681">
  <ele>-34.29</ele>
  <time>2026-09-02T22:08:05Z</time>
  <course>209.27</course>
  <speed>0.52</speed>
  <fix>3d</fix>
</trkpt>
<trkpt lat="33.8103098" lon="-118.3938694">
  <ele>-35.122</ele>
  <time>2026-09-02T22:08:05Z</time>
  <course>212.34</course>
  <speed>0.7134423592694787</speed>
  <fix>3d</fix>
</trkpt>
<trkpt lat="33.8103104" lon="-118.3938687">
  <ele>-34.29</ele>
  <time>2026-09-02T22:08:05Z</time>
  <course>209.07</course>
  <speed>0.65</speed>
  <fix>3d</fix>
</trkpt>
<trkpt lat="33.8103092" lon="-118.3938698">
  <ele>-35.135</ele>
  <time>2026-09-02T22:08:05Z</time>
  <course>212.26</course>
  <speed>0.758023746329889</speed>
  <fix>3d</fix>
</trkpt>
<trkpt lat="33.8103104" lon="-118.3938687">
  <ele>-34.29</ele>
  <time>2026-09-02T22:08:05Z</time>
  <course>209.07</course>
  <speed>0.65</speed>
  <fix>3d</fix>
</trkpt>
<trkpt lat="33.8103086" lon="-118.3938702">
  <ele>-35.152</ele>
  <time>2026-09-02T22:08:05Z</time>
  <course>212.23</course>
  <speed>0.7854934754662193</speed>
  <fix>3d</fix>
</trkpt>
<trkpt lat="33.8103093" lon="-118.3938695">
  <ele>-34.3</ele>
  <time>2026-09-02T22:08:05Z</time>
  <course>209.2</course>
  <speed>0.74</speed>
  <fix>3d</fix>
</trkpt>
<trkpt lat="33.810308" lon="-118.3938706">
  <ele>-35.171</ele>
  <time>2026-09-02T22:08:05Z</time>
  <course>212.19</course>
  <speed>0.816333265278342</speed>
  <fix>3d</fix>
</trkpt>
<trkpt lat="33.8103093" lon="-118.3938695">
  <ele>-34.3</ele>
  <time>2026-09-02T22:08:05Z</time>
  <course>209.2</course>
  <speed>0.74</speed>
  <fix>3d</fix>
</trkpt>
<trkpt lat="33.8103074" lon="-118.3938711">
  <ele>-35.193</ele>
  <time>2026-09-02T22:08:05Z</time>
  <course>212.17</course>
  <speed>0.8300602387778854</speed>
  <fix>3d</fix>
</trkpt>
<trkpt lat="33.810308" lon="-118.3938703">
  <ele>-34.33</ele>
  <time>2026-09-02T22:08:05Z</time>
  <course>209.37</course>
  <speed>0.81</speed>
  <fix>3d</fix>
</trkpt>
<trkpt lat="33.8103067" lon="-118.3938715">
  <ele>-35.212</ele>
  <time>2026-09-02T22:08:05Z</time>
  <course>212.14</course>
  <speed>0.8438009243891595</speed>
  <fix>3d</fix>
</trkpt>
<trkpt lat="33.810308" lon="-118.3938703">
  <ele>-34.33</ele>
  <time>2026-09-02T22:08:05Z</time>
  <course>209.37</course>
  <speed>0.81</speed>
  <fix>3d</fix>
</trkpt>
<trkpt lat="33.810306" lon="-118.393872">
  <ele>-35.229</ele>
  <time>2026-09-02T22:08:05Z</time>
  <course>212.13</course>
  <speed>0.8438009243891595</speed>
  <fix>3d</fix>
</trkpt>
<trkpt lat="33.8103067" lon="-118.3938712">
  <ele>-34.36</ele>
  <time>2026-09-02T22:08:05Z</time>
  <course>209.52</course>
  <speed>0.85</speed>
  <fix>3d</fix>
</trkpt>
<trkpt lat="33.8103054" lon="-118.3938724">
  <ele>-35.243</ele>
  <time>2026-09-02T22:08:05Z</time>
  <course>212.12</course>
  <speed>0.8438009243891595</speed>
  <fix>3d</fix>
</trkpt>
<trkpt lat="33.8103067" lon="-118.3938712">
  <ele>-34.36</ele>
  <time>2026-09-02T22:08:05Z</time>
  <course>209.52</course>
  <speed>0.85</speed>
  <fix>3d</fix>
</trkpt>
<trkpt lat="33.8103047" lon="-118.3938729">
  <ele>-35.252</ele>
  <time>2026-09-02T22:08:05Z</time>
  <course>212.13</course>
  <speed>0.8523496934944014</speed>
  <fix>3d</fix>
</trkpt>
<trkpt lat="33.8103054" lon="-118.3938721">
  <ele>-34.39</ele>
  <time>2026-09-02T22:08:05Z</time>
  <course>209.65</course>
  <speed>0.86</speed>
  <fix>3d</fix>
</trkpt>
<trkpt lat="33.810304" lon="-118.3938733">
  <ele>-35.26</ele>
  <time>2026-09-02T22:08:05Z</time>
  <course>212.13</course>
  <speed>0.8523496934944014</speed>
  <fix>3d</fix>
</trkpt>
<trkpt lat="33.8103054" lon="-118.3938721">
  <ele>-34.39</ele>
  <time>2026-09-02T22:08:05Z</time>
  <course>209.65</course>
  <speed>0.86</speed>
  <fix>3d</fix>
</trkpt>
<trkpt lat="33.8103033" lon="-118.3938738">
  <ele>-35.265</ele>
  <time>2026-09-02T22:08:05Z</time>
  <course>212.14</course>
  <speed>0.8575546629807339</speed>
  <fix>3d</fix>
</trkpt>
<trkpt lat="33.810304" lon="-118.393873">
  <ele>-34.41</ele>
  <time>2026-09-02T22:08:05Z</time>
  <course>209.75</course>
  <speed>0.87</speed>
  <fix>3d</fix>
</trkpt>
<trkpt lat="33.8103027" lon="-118.3938743">
  <ele>-35.266</ele>
  <time>2026-09-02T22:08:05Z</time>
  <course>212.14</course>
  <speed>0.8575546629807339</speed>
  <fix>3d</fix>
</trkpt>
<trkpt lat="33.810304" lon="-118.393873">
  <ele>-34.41</ele>
  <time>2026-09-02T22:08:05Z</time>
  <course>209.75</course>
  <speed>0.87</speed>
  <fix>3d</fix>
</trkpt>
<trkpt lat="33.810302" lon="-118.3938747">
  <ele>-35.256</ele>
  <time>2026-09-02T22:08:05Z</time>
  <course>212.16</course>
  <speed>0.8575546629807339</speed>
  <fix>3d</fix>
</trkpt>
<trkpt lat="33.8103026" lon="-118.393874">
  <ele>-34.42</ele>
  <time>2026-09-02T22:08:05Z</time>
  <course>209.83</course>
  <speed>0.88</speed>
  <fix>3d</fix>
</trkpt>
<trkpt lat="33.8103013" lon="-118.3938752">
  <ele>-35.238</ele>
  <time>2026-09-02T22:08:05Z</time>
  <course>212.16</course>
  <speed>0.8575546629807339</speed>
  <fix>3d</fix>
</trkpt>
<trkpt lat="33.8103026" lon="-118.393874">
  <ele>-34.42</ele>
  <time>2026-09-02T22:08:05Z</time>
  <course>209.83</course>
  <speed>0.88</speed>
  <fix>3d</fix>
</trkpt>
<trkpt lat="33.8103006" lon="-118.3938757">
  <ele>-35.213</ele>
  <time>2026-09-02T22:08:05Z</time>
  <course>212.17</course>
  <speed>0.8523496934944014</speed>
  <fix>3d</fix>
</trkpt>
<trkpt lat="33.8103013" lon="-118.3938749">
  <ele>-34.4</ele>
  <time>2026-09-02T22:08:05Z</time>
  <course>209.89</course>
  <speed>0.88</speed>
  <fix>3d</fix>
</trkpt>
<trkpt lat="33.8103" lon="-118.3938761">
  <ele>-35.186</ele>
  <time>2026-09-02T22:08:05Z</time>
  <course>212.17</course>
  <speed>0.8438009243891595</speed>
  <fix>3d</fix>
</trkpt>
<trkpt lat="33.8103013" lon="-118.3938749">
  <ele>-34.4</ele>
  <time>2026-09-02T22:08:05Z</time>
  <course>209.89</course>
  <speed>0.88</speed>
  <fix>3d</fix>
</trkpt>
<trkpt lat="33.8102993" lon="-118.3938766">
  <ele>-35.158</ele>
  <time>2026-09-02T22:08:05Z</time>
  <course>212.18</course>
  <speed>0.8438009243891595</speed>
  <fix>3d</fix>
</trkpt>
<trkpt lat="33.8102999" lon="-118.3938759">
  <ele>-34.36</ele>
  <time>2026-09-02T22:08:05Z</time>
  <course>209.92</course>
  <speed>0.87</speed>
  <fix>3d</fix>
</trkpt>
<trkpt lat="33.8102986" lon="-118.393877">
  <ele>-35.13</ele>
  <time>2026-09-02T22:08:05Z</time>
  <course>212.17</course>
  <speed>0.8352843827104635</speed>
  <fix>3d</fix>
</trkpt>
<trkpt lat="33.8102999" lon="-118.3938759">
  <ele>-34.36</ele>
  <time>2026-09-02T22:08:05Z</time>
  <course>209.92</course>
  <speed>0.87</speed>
  <fix>3d</fix>
</trkpt>
<trkpt lat="33.8102979" lon="-118.3938775">
  <ele>-35.104</ele>
  <time>2026-09-02T22:08:05Z</time>
  <course>212.15</course>
  <speed>0.8300602387778854</speed>
  <fix>3d</fix>
</trkpt>
<trkpt lat="33.8102985" lon="-118.3938768">
  <ele>-34.3</ele>
  <time>2026-09-02T22:08:05Z</time>
  <course>209.93</course>
  <speed>0.86</speed>
  <fix>3d</fix>
</trkpt>
<trkpt lat="33.8102973" lon="-118.393878">
  <ele>-35.082</ele>
  <time>2026-09-02T22:08:05Z</time>
  <course>212.12</course>
  <speed>0.8300602387778854</speed>
  <fix>3d</fix>
</trkpt>
<trkpt lat="33.8102985" lon="-118.3938768">
  <ele>-34.3</ele>
  <time>2026-09-02T22:08:05Z</time>
  <course>209.93</course>
  <speed>0.86</speed>
  <fix>3d</fix>
</trkpt>
<trkpt lat="33.8102966" lon="-118.3938784">
  <ele>-35.061</ele>
  <time>2026-09-02T22:08:05Z</time>
  <course>212.11</course>
  <speed>0.8215229759416348</speed>
  <fix>3d</fix>
</trkpt>
<trkpt lat="33.8102972" lon="-118.3938778">
  <ele>-34.26</ele>
  <time>2026-09-02T22:08:05Z</time>
  <course>209.94</course>
  <speed>0.85</speed>
  <fix>3d</fix>
</trkpt>
<trkpt lat="33.810296" lon="-118.3938789">
  <ele>-35.044</ele>
  <time>2026-09-02T22:08:05Z</time>
  <course>212.1</course>
  <speed>0.8215229759416348</speed>
  <fix>3d</fix>
</trkpt>
<trkpt lat="33.8102972" lon="-118.3938778">
  <ele>-34.26</ele>
  <time>2026-09-02T22:08:05Z</time>
  <course>209.94</course>
  <speed>0.85</speed>
  <fix>3d</fix>
</trkpt>
<trkpt lat="33.8102953" lon="-118.3938793">
  <ele>-35.03</ele>
  <time>2026-09-02T22:08:05Z</time>
  <course>212.09</course>
  <speed>0.7940403012442127</speed>
  <fix>3d</fix>
</trkpt>
<trkpt lat="33.8102959" lon="-118.3938787">
  <ele>-34.22</ele>
  <time>2026-09-02T22:08:05Z</time>
  <course>209.93</course>
  <speed>0.84</speed>
  <fix>3d</fix>
</trkpt>
<trkpt lat="33.8102947" lon="-118.3938798">
  <ele>-35.025</ele>
  <time>2026-09-02T22:08:05Z</time>
  <course>212.09</course>
  <speed>0.7494664769020694</speed>
  <fix>3d</fix>
</trkpt>
<trkpt lat="33.8102959" lon="-118.3938787">
  <ele>-34.22</ele>
  <time>2026-09-02T22:08:05Z</time>
  <course>209.93</course>
  <speed>0.84</speed>
  <fix>3d</fix>
</trkpt>
<trkpt lat="33.8102941" lon="-118.3938802">
  <ele>-35.024</ele>
  <time>2026-09-02T22:08:05Z</time>
  <course>212.13</course>
  <speed>0.758023746329889</speed>
  <fix>3d</fix>
</trkpt>
<trkpt lat="33.8102946" lon="-118.3938796">
  <ele>-34.19</ele>
  <time>2026-09-02T22:08:05Z</time>
  <course>209.93</course>
  <speed>0.81</speed>
  <fix>3d</fix>
</trkpt>
<trkpt lat="33.8102935" lon="-118.3938806">
  <ele>-35.024</ele>
  <time>2026-09-02T22:08:05Z</time>
  <course>212.13</course>
  <speed>0.7632168761236874</speed>
  <fix>3d</fix>
</trkpt>
<trkpt lat="33.8102946" lon="-118.3938796">
  <ele>-34.19</ele>
  <time>2026-09-02T22:08:05Z</time>
  <course>209.93</course>
  <speed>0.81</speed>
  <fix>3d</fix>
</trkpt>
<trkpt lat="33.8102929" lon="-118.393881">
  <ele>-35.023</ele>
  <time>2026-09-02T22:08:05Z</time>
  <course>212.09</course>
  <speed>0.7632168761236874</speed>
  <fix>3d</fix>
</trkpt>
<trkpt lat="33.8102934" lon="-118.3938804">
  <ele>-34.19</ele>
  <time>2026-09-02T22:08:05Z</time>
  <course>209.9</course>
  <speed>0.78</speed>
  <fix>3d</fix>
</trkpt>
<trkpt lat="33.8102922" lon="-118.3938814">
  <ele>-35.024</ele>
  <time>2026-09-02T22:08:05Z</time>
  <course>212.03</course>
  <speed>0.7632168761236874</speed>
  <fix>3d</fix>
</trkpt>
<trkpt lat="33.8102934" lon="-118.3938804">
  <ele>-34.19</ele>
  <time>2026-09-02T22:08:05Z</time>
  <course>209.9</course>
  <speed>0.78</speed>
  <fix>3d</fix>
</trkpt>
<trkpt lat="33.8102916" lon="-118.3938819">
  <ele>-35.033</ele>
  <time>2026-09-02T22:08:05Z</time>
  <course>211.98</course>
  <speed>0.7632168761236874</speed>
  <fix>3d</fix>
</trkpt>
<trkpt lat="33.8102922" lon="-118.3938813">
  <ele>-34.2</ele>
  <time>2026-09-02T22:08:05Z</time>
  <course>209.83</course>
  <speed>0.78</speed>
  <fix>3d</fix>
</trkpt>
<trkpt lat="33.810291" lon="-118.3938823">
  <ele>-35.052</ele>
  <time>2026-09-02T22:08:05Z</time>
  <course>211.93</course>
  <speed>0.7632168761236874</speed>
  <fix>3d</fix>
</trkpt>
<trkpt lat="33.8102922" lon="-118.3938813">
  <ele>-34.2</ele>
  <time>2026-09-02T22:08:05Z</time>
  <course>209.83</course>
  <speed>0.78</speed>
  <fix>3d</fix>
</trkpt>
<trkpt lat="33.8102904" lon="-118.3938827">
  <ele>-35.077</ele>
  <time>2026-09-02T22:08:05Z</time>
  <course>211.89</course>
  <speed>0.7717512552629896</speed>
  <fix>3d</fix>
</trkpt>
<trkpt lat="33.8102909" lon="-118.3938821">
  <ele>-34.21</ele>
  <time>2026-09-02T22:08:05Z</time>
  <course>209.8</course>
  <speed>0.78</speed>
  <fix>3d</fix>
</trkpt>
<trkpt lat="33.8102898" lon="-118.3938831">
  <ele>-35.105</ele>
  <time>2026-09-02T22:08:05Z</time>
  <course>211.84</course>
  <speed>0.7717512552629896</speed>
  <fix>3d</fix>
</trkpt>
<trkpt lat="33.8102909" lon="-118.3938821">
  <ele>-34.21</ele>
  <time>2026-09-02T22:08:05Z</time>
  <course>209.8</course>
  <speed>0.78</speed>
  <fix>3d</fix>
</trkpt>
<trkpt lat="33.8102892" lon="-118.3938836">
  <ele>-35.131</ele>
  <time>2026-09-02T22:08:05Z</time>
  <course>211.8</course>
  <speed>0.7717512552629896</speed>
  <fix>3d</fix>
</trkpt>
<trkpt lat="33.8102897" lon="-118.393883">
  <ele>-34.25</ele>
  <time>2026-09-02T22:08:05Z</time>
  <course>209.77</course>
  <speed>0.78</speed>
  <fix>3d</fix>
</trkpt>
<trkpt lat="33.8102885" lon="-118.393884">
  <ele>-35.154</ele>
  <time>2026-09-02T22:08:05Z</time>
  <course>211.77</course>
  <speed>0.7717512552629896</speed>
  <fix>3d</fix>
</trkpt>
<trkpt lat="33.8102897" lon="-118.393883">
  <ele>-34.25</ele>
  <time>2026-09-02T22:08:05Z</time>
  <course>209.77</course>
  <speed>0.78</speed>
  <fix>3d</fix>
</trkpt>
<trkpt lat="33.8102879" lon="-118.3938844">
  <ele>-35.177</ele>
  <time>2026-09-02T22:08:05Z</time>
  <course>211.75</course>
  <speed>0.7717512552629896</speed>
  <fix>3d</fix>
</trkpt>
<trkpt lat="33.8102885" lon="-118.3938838">
  <ele>-34.29</ele>
  <time>2026-09-02T22:08:05Z</time>
  <course>209.75</course>
  <speed>0.78</speed>
  <fix>3d</fix>
</trkpt>
<trkpt lat="33.8102873" lon="-118.3938848">
  <ele>-35.2</ele>
  <time>2026-09-02T22:08:05Z</time>
  <course>211.73</course>
  <speed>0.7717512552629896</speed>
  <fix>3d</fix>
</trkpt>
<trkpt lat="33.8102885" lon="-118.3938838">
  <ele>-34.29</ele>
  <time>2026-09-02T22:08:05Z</time>
  <course>209.75</course>
  <speed>0.78</speed>
  <fix>3d</fix>
</trkpt>
<trkpt lat="33.8102867" lon="-118.3938853">
  <ele>-35.22</ele>
  <time>2026-09-02T22:08:05Z</time>
  <course>211.7</course>
  <speed>0.7717512552629896</speed>
  <fix>3d</fix>
</trkpt>
<trkpt lat="33.8102873" lon="-118.3938847">
  <ele>-34.34</ele>
  <time>2026-09-02T22:08:05Z</time>
  <course>209.73</course>
  <speed>0.78</speed>
  <fix>3d</fix>
</trkpt>
<trkpt lat="33.8102861" lon="-118.3938857">
  <ele>-35.24</ele>
  <time>2026-09-02T22:08:05Z</time>
  <course>211.67</course>
  <speed>0.7717512552629896</speed>
  <fix>3d</fix>
</trkpt>
<trkpt lat="33.8102873" lon="-118.3938847">
  <ele>-34.34</ele>
  <time>2026-09-02T22:08:05Z</time>
  <course>209.73</course>
  <speed>0.78</speed>
  <fix>3d</fix>
</trkpt>
<trkpt lat="33.8102855" lon="-118.3938861">
  <ele>-35.257</ele>
  <time>2026-09-02T22:08:05Z</time>
  <course>211.64</course>
  <speed>0.7717512552629896</speed>
  <fix>3d</fix>
</trkpt>
<trkpt lat="33.810286" lon="-118.3938855">
  <ele>-34.37</ele>
  <time>2026-09-02T22:08:05Z</time>
  <course>209.68</course>
  <speed>0.78</speed>
  <fix>3d</fix>
</trkpt>
<trkpt lat="33.8102848" lon="-118.3938865">
  <ele>-35.272</ele>
  <time>2026-09-02T22:08:05Z</time>
  <course>211.6</course>
  <speed>0.7717512552629896</speed>
  <fix>3d</fix>
</trkpt>
<trkpt lat="33.810286" lon="-118.3938855">
  <ele>-34.37</ele>
  <time>2026-09-02T22:08:05Z</time>
  <course>209.68</course>
  <speed>0.78</speed>
  <fix>3d</fix>
</trkpt>
<trkpt lat="33.8102842" lon="-118.393887">
  <ele>-35.28</ele>
  <time>2026-09-02T22:08:05Z</time>
  <course>211.58</course>
  <speed>0.7717512552629896</speed>
  <fix>3d</fix>
</trkpt>
<trkpt lat="33.8102848" lon="-118.3938863">
  <ele>-34.4</ele>
  <time>2026-09-02T22:08:05Z</time>
  <course>209.62</course>
  <speed>0.78</speed>
  <fix>3d</fix>
</trkpt>
<trkpt lat="33.8102836" lon="-118.3938874">
  <ele>-35.28</ele>
  <time>2026-09-02T22:08:05Z</time>
  <course>211.56</course>
  <speed>0.7717512552629896</speed>
  <fix>3d</fix>
</trkpt>
<trkpt lat="33.8102848" lon="-118.3938863">
  <ele>-34.4</ele>
  <time>2026-09-02T22:08:05Z</time>
  <course>209.62</course>
  <speed>0.78</speed>
  <fix>3d</fix>
</trkpt>
<trkpt lat="33.810283" lon="-118.3938878">
  <ele>-35.268</ele>
  <time>2026-09-02T22:08:05Z</time>
  <course>211.57</course>
  <speed>0.7717512552629896</speed>
  <fix>3d</fix>
</trkpt>
<trkpt lat="33.8102836" lon="-118.3938872">
  <ele>-34.42</ele>
  <time>2026-09-02T22:08:05Z</time>
  <course>209.64</course>
  <speed>0.79</speed>
  <fix>3d</fix>
</trkpt>
<trkpt lat="33.8102824" lon="-118.3938882">
  <ele>-35.25</ele>
  <time>2026-09-02T22:08:05Z</time>
  <course>211.57</course>
  <speed>0.7717512552629896</speed>
  <fix>3d</fix>
</trkpt>
<trkpt lat="33.8102836" lon="-118.3938872">
  <ele>-34.42</ele>
  <time>2026-09-02T22:08:05Z</time>
  <course>209.64</course>
  <speed>0.79</speed>
  <fix>3d</fix>
</trkpt>
<trkpt lat="33.8102818" lon="-118.3938886">
  <ele>-35.229</ele>
  <time>2026-09-02T22:08:05Z</time>
  <course>211.57</course>
  <speed>0.7717512552629896</speed>
  <fix>3d</fix>
</trkpt>
<trkpt lat="33.8102823" lon="-118.393888">
  <ele>-34.4</ele>
  <time>2026-09-02T22:08:05Z</time>
  <course>209.66</course>
  <speed>0.79</speed>
  <fix>3d</fix>
</trkpt>
<trkpt lat="33.8102811" lon="-118.3938891">
  <ele>-35.206</ele>
  <time>2026-09-02T22:08:05Z</time>
  <course>211.55</course>
  <speed>0.7717512552629896</speed>
  <fix>3d</fix>
</trkpt>
<trkpt lat="33.8102823" lon="-118.393888">
  <ele>-34.4</ele>
  <time>2026-09-02T22:08:05Z</time>
  <course>209.66</course>
  <speed>0.79</speed>
  <fix>3d</fix>
</trkpt>
<trkpt lat="33.8102805" lon="-118.3938895">
  <ele>-35.184</ele>
  <time>2026-09-02T22:08:05Z</time>
  <course>211.55</course>
  <speed>0.7717512552629896</speed>
  <fix>3d</fix>
</trkpt>
<trkpt lat="33.8102811" lon="-118.3938889">
  <ele>-34.37</ele>
  <time>2026-09-02T22:08:05Z</time>
  <course>209.69</course>
  <speed>0.79</speed>
  <fix>3d</fix>
</trkpt>
<trkpt lat="33.8102799" lon="-118.3938899">
  <ele>-35.163</ele>
  <time>2026-09-02T22:08:05Z</time>
  <course>211.55</course>
  <speed>0.7717512552629896</speed>
  <fix>3d</fix>
</trkpt>
<trkpt lat="33.8102811" lon="-118.3938889">
  <ele>-34.37</ele>
  <time>2026-09-02T22:08:05Z</time>
  <course>209.69</course>
  <speed>0.79</speed>
  <fix>3d</fix>
</trkpt>
<trkpt lat="33.8102793" lon="-118.3938903">
  <ele>-35.144</ele>
  <time>2026-09-02T22:08:05Z</time>
  <course>211.55</course>
  <speed>0.7717512552629896</speed>
  <fix>3d</fix>
</trkpt>
<trkpt lat="33.8102798" lon="-118.3938897">
  <ele>-34.33</ele>
  <time>2026-09-02T22:08:05Z</time>
  <course>209.72</course>
  <speed>0.79</speed>
  <fix>3d</fix>
</trkpt>
<trkpt lat="33.8102787" lon="-118.3938908">
  <ele>-35.126</ele>
  <time>2026-09-02T22:08:05Z</time>
  <course>211.54</course>
  <speed>0.7717512552629896</speed>
  <fix>3d</fix>
</trkpt>
<trkpt lat="33.8102798" lon="-118.3938897">
  <ele>-34.33</ele>
  <time>2026-09-02T22:08:05Z</time>
  <course>209.72</course>
  <speed>0.79</speed>
  <fix>3d</fix>
</trkpt>
<trkpt lat="33.810278" lon="-118.3938912">
  <ele>-35.109</ele>
  <time>2026-09-02T22:08:05Z</time>
  <course>211.55</course>
  <speed>0.7717512552629896</speed>
  <fix>3d</fix>
</trkpt>
<trkpt lat="33.8102785" lon="-118.3938906">
  <ele>-34.29</ele>
  <time>2026-09-02T22:08:05Z</time>
  <course>209.75</course>
  <speed>0.79</speed>
  <fix>3d</fix>
</trkpt>
<trkpt lat="33.8102774" lon="-118.3938916">
  <ele>-35.093</ele>
  <time>2026-09-02T22:08:05Z</time>
  <course>211.56</course>
  <speed>0.7717512552629896</speed>
  <fix>3d</fix>
</trkpt>
<trkpt lat="33.8102785" lon="-118.3938906">
  <ele>-34.29</ele>
  <time>2026-09-02T22:08:05Z</time>
  <course>209.75</course>
  <speed>0.79</speed>
  <fix>3d</fix>
</trkpt>
<trkpt lat="33.8102768" lon="-118.393892">
  <ele>-35.078</ele>
  <time>2026-09-02T22:08:05Z</time>
  <course>211.57</course>
  <speed>0.7717512552629896</speed>
  <fix>3d</fix>
</trkpt>
<trkpt lat="33.8102773" lon="-118.3938914">
  <ele>-34.26</ele>
  <time>2026-09-02T22:08:05Z</time>
  <course>209.81</course>
  <speed>0.79</speed>
  <fix>3d</fix>
</trkpt>
<trkpt lat="33.8102762" lon="-118.3938925">
  <ele>-35.064</ele>
  <time>2026-09-02T22:08:05Z</time>
  <course>211.59</course>
  <speed>0.7717512552629896</speed>
  <fix>3d</fix>
</trkpt>
<trkpt lat="33.8102773" lon="-118.3938914">
  <ele>-34.26</ele>
  <time>2026-09-02T22:08:05Z</time>
  <course>209.81</course>
  <speed>0.79</speed>
  <fix>3d</fix>
</trkpt>
<trkpt lat="33.8102756" lon="-118.3938929">
  <ele>-35.054</ele>
  <time>2026-09-02T22:08:05Z</time>
  <course>211.61</course>
  <speed>0.7717512552629896</speed>
  <fix>3d</fix>
</trkpt>
<trkpt lat="33.8102761" lon="-118.3938923">
  <ele>-34.23</ele>
  <time>2026-09-02T22:08:05Z</time>
  <course>209.89</course>
  <speed>0.79</speed>
  <fix>3d</fix>
</trkpt>
<trkpt lat="33.8102749" lon="-118.3938933">
  <ele>-35.048</ele>
  <time>2026-09-02T22:08:05Z</time>
  <course>211.61</course>
  <speed>0.7717512552629896</speed>
  <fix>3d</fix>
</trkpt>
<trkpt lat="33.8102761" lon="-118.3938923">
  <ele>-34.23</ele>
  <time>2026-09-02T22:08:05Z</time>
  <course>209.89</course>
  <speed>0.79</speed>
  <fix>3d</fix>
</trkpt>
<trkpt lat="33.8102743" lon="-118.3938937">
  <ele>-35.048</ele>
  <time>2026-09-02T22:08:05Z</time>
  <course>211.61</course>
  <speed>0.7717512552629896</speed>
  <fix>3d</fix>
</trkpt>
<trkpt lat="33.8102748" lon="-118.3938931">
  <ele>-34.22</ele>
  <time>2026-09-02T22:08:05Z</time>
  <course>209.95</course>
  <speed>0.79</speed>
  <fix>3d</fix>
</trkpt>
<trkpt lat="33.8102737" lon="-118.3938942">
  <ele>-35.058</ele>
  <time>2026-09-02T22:08:05Z</time>
  <course>211.6</course>
  <speed>0.7717512552629896</speed>
  <fix>3d</fix>
</trkpt>
<trkpt lat="33.8102748" lon="-118.3938931">
  <ele>-34.22</ele>
  <time>2026-09-02T22:08:05Z</time>
  <course>209.95</course>
  <speed>0.79</speed>
  <fix>3d</fix>
</trkpt>
<trkpt lat="33.8102731" lon="-118.3938946">
  <ele>-35.079</ele>
  <time>2026-09-02T22:08:05Z</time>
  <course>211.6</course>
  <speed>0.7717512552629896</speed>
  <fix>3d</fix>
</trkpt>
<trkpt lat="33.8102736" lon="-118.393894">
  <ele>-34.23</ele>
  <time>2026-09-02T22:08:05Z</time>
  <course>210.01</course>
  <speed>0.79</speed>
  <fix>3d</fix>
</trkpt>
<trkpt lat="33.8102724" lon="-118.393895">
  <ele>-35.103</ele>
  <time>2026-09-02T22:08:05Z</time>
  <course>211.58</course>
  <speed>0.7717512552629896</speed>
  <fix>3d</fix>
</trkpt>
<trkpt lat="33.8102736" lon="-118.393894">
  <ele>-34.23</ele>
  <time>2026-09-02T22:08:05Z</time>
  <course>210.01</course>
  <speed>0.79</speed>
  <fix>3d</fix>
</trkpt>
<trkpt lat="33.8102718" lon="-118.3938955">
  <ele>-35.129</ele>
  <time>2026-09-02T22:08:05Z</time>
  <course>211.57</course>
  <speed>0.7803204469959762</speed>
  <fix>3d</fix>
</trkpt>
<trkpt lat="33.8102724" lon="-118.3938949">
  <ele>-34.26</ele>
  <time>2026-09-02T22:08:05Z</time>
  <course>210.03</course>
  <speed>0.79</speed>
  <fix>3d</fix>
</trkpt>
<trkpt lat="33.8102712" lon="-118.3938959">
  <ele>-35.157</ele>
  <time>2026-09-02T22:08:05Z</time>
  <course>211.54</course>
  <speed>0.7803204469959762</speed>
  <fix>3d</fix>
</trkpt>
<trkpt lat="33.8102724" lon="-118.3938949">
  <ele>-34.26</ele>
  <time>2026-09-02T22:08:05Z</time>
  <course>210.03</course>
  <speed>0.79</speed>
  <fix>3d</fix>
</trkpt>
<trkpt lat="33.8102706" lon="-118.3938963">
  <ele>-35.181</ele>
  <time>2026-09-02T22:08:05Z</time>
  <course>211.5</course>
  <speed>0.7803204469959762</speed>
  <fix>3d</fix>
</trkpt>
<trkpt lat="33.8102711" lon="-118.3938957">
  <ele>-34.3</ele>
  <time>2026-09-02T22:08:05Z</time>
  <course>209.97</course>
  <speed>0.79</speed>
  <fix>3d</fix>
</trkpt>
<trkpt lat="33.8102699" lon="-118.3938967">
  <ele>-35.202</ele>
  <time>2026-09-02T22:08:05Z</time>
  <course>211.44</course>
  <speed>0.7803204469959762</speed>
  <fix>3d</fix>
</trkpt>
<trkpt lat="33.8102711" lon="-118.3938957">
  <ele>-34.3</ele>
  <time>2026-09-02T22:08:05Z</time>
  <course>209.97</course>
  <speed>0.79</speed>
  <fix>3d</fix>
</trkpt>
<trkpt lat="33.8102693" lon="-118.3938972">
  <ele>-35.215</ele>
  <time>2026-09-02T22:08:05Z</time>
  <course>211.4</course>
  <speed>0.7803204469959762</speed>
  <fix>3d</fix>
</trkpt>
<trkpt lat="33.8102699" lon="-118.3938966">
  <ele>-34.35</ele>
  <time>2026-09-02T22:08:05Z</time>
  <course>209.88</course>
  <speed>0.8</speed>
  <fix>3d</fix>
</trkpt>
<trkpt lat="33.8102687" lon="-118.3938976">
  <ele>-35.223</ele>
  <time>2026-09-02T22:08:05Z</time>
  <course>211.37</course>
  <speed>0.7803204469959762</speed>
  <fix>3d</fix>
</trkpt>
<trkpt lat="33.8102699" lon="-118.3938966">
  <ele>-34.35</ele>
  <time>2026-09-02T22:08:05Z</time>
  <course>209.88</course>
  <speed>0.8</speed>
  <fix>3d</fix>
</trkpt>
<trkpt lat="33.8102681" lon="-118.393898">
  <ele>-35.23</ele>
  <time>2026-09-02T22:08:05Z</time>
  <course>211.34</course>
  <speed>0.7803204469959762</speed>
  <fix>3d</fix>
</trkpt>
<trkpt lat="33.8102687" lon="-118.3938974">
  <ele>-34.37</ele>
  <time>2026-09-02T22:08:05Z</time>
  <course>209.82</course>
  <speed>0.8</speed>
  <fix>3d</fix>
</trkpt>
<trkpt lat="33.8102674" lon="-118.3938985">
  <ele>-35.233</ele>
  <time>2026-09-02T22:08:05Z</time>
  <course>211.3</course>
  <speed>0.7803204469959762</speed>
  <fix>3d</fix>
</trkpt>
<trkpt lat="33.8102687" lon="-118.3938974">
  <ele>-34.37</ele>
  <time>2026-09-02T22:08:05Z</time>
  <course>209.82</course>
  <speed>0.8</speed>
  <fix>3d</fix>
</trkpt>
<trkpt lat="33.8102668" lon="-118.3938989">
  <ele>-35.23</ele>
  <time>2026-09-02T22:08:05Z</time>
  <course>211.27</course>
  <speed>0.7889233169326408</speed>
  <fix>3d</fix>
</trkpt>
<trkpt lat="33.8102674" lon="-118.3938983">
  <ele>-34.38</ele>
  <time>2026-09-02T22:08:05Z</time>
  <course>209.77</course>
  <speed>0.8</speed>
  <fix>3d</fix>
</trkpt>
<trkpt lat="33.8102662" lon="-118.3938993">
  <ele>-35.224</ele>
  <time>2026-09-02T22:08:05Z</time>
  <course>211.24</course>
  <speed>0.7940403012442127</speed>
  <fix>3d</fix>
</trkpt>
<trkpt lat="33.8102674" lon="-118.3938983">
  <ele>-34.38</ele>
  <time>2026-09-02T22:08:05Z</time>
  <course>209.77</course>
  <speed>0.8</speed>
  <fix>3d</fix>
</trkpt>
<trkpt lat="33.8102655" lon="-118.3938998">
  <ele>-35.216</ele>
  <time>2026-09-02T22:08:05Z</time>
  <course>211.21</course>
  <speed>0.7940403012442127</speed>
  <fix>3d</fix>
</trkpt>
<trkpt lat="33.8102661" lon="-118.3938992">
  <ele>-34.37</ele>
  <time>2026-09-02T22:08:05Z</time>
  <course>209.71</course>
  <speed>0.81</speed>
  <fix>3d</fix>
</trkpt>
<trkpt lat="33.8102649" lon="-118.3939002">
  <ele>-35.204</ele>
  <time>2026-09-02T22:08:05Z</time>
  <course>211.18</course>
  <speed>0.7940403012442127</speed>
  <fix>3d</fix>
</trkpt>
<trkpt lat="33.8102661" lon="-118.3938992">
  <ele>-34.37</ele>
  <time>2026-09-02T22:08:05Z</time>
  <course>209.71</course>
  <speed>0.81</speed>
  <fix>3d</fix>
</trkpt>
<trkpt lat="33.8102643" lon="-118.3939007">
  <ele>-35.184</ele>
  <time>2026-09-02T22:08:05Z</time>
  <course>211.16</course>
  <speed>0.7940403012442127</speed>
  <fix>3d</fix>
</trkpt>
<trkpt lat="33.8102649" lon="-118.3939001">
  <ele>-34.36</ele>
  <time>2026-09-02T22:08:05Z</time>
  <course>209.67</course>
  <speed>0.81</speed>
  <fix>3d</fix>
</trkpt>
<trkpt lat="33.8102636" lon="-118.3939011">
  <ele>-35.155</ele>
  <time>2026-09-02T22:08:05Z</time>
  <course>211.13</course>
  <speed>0.7940403012442127</speed>
  <fix>3d</fix>
</trkpt>
<trkpt lat="33.8102649" lon="-118.3939001">
  <ele>-34.36</ele>
  <time>2026-09-02T22:08:05Z</time>
  <course>209.67</course>
  <speed>0.81</speed>
  <fix>3d</fix>
</trkpt>
<trkpt lat="33.810263" lon="-118.3939015">
  <ele>-35.122</ele>
  <time>2026-09-02T22:08:05Z</time>
  <course>211.1</course>
  <speed>0.7940403012442127</speed>
  <fix>3d</fix>
</trkpt>
<trkpt lat="33.8102636" lon="-118.3939009">
  <ele>-34.32</ele>
  <time>2026-09-02T22:08:05Z</time>
  <course>209.6</course>
  <speed>0.81</speed>
  <fix>3d</fix>
</trkpt>
<trkpt lat="33.8102624" lon="-118.393902">
  <ele>-35.087</ele>
  <time>2026-09-02T22:08:05Z</time>
  <course>211.05</course>
  <speed>0.7940403012442127</speed>
  <fix>3d</fix>
</trkpt>
<trkpt lat="33.8102636" lon="-118.3939009">
  <ele>-34.32</ele>
  <time>2026-09-02T22:08:05Z</time>
  <course>209.6</course>
  <speed>0.81</speed>
  <fix>3d</fix>
</trkpt>
<trkpt lat="33.8102617" lon="-118.3939024">
  <ele>-35.048</ele>
  <time>2026-09-02T22:08:05Z</time>
  <course>211.03</course>
  <speed>0.8026207074328446</speed>
  <fix>3d</fix>
</trkpt>
<trkpt lat="33.8102623" lon="-118.3939018">
  <ele>-34.26</ele>
  <time>2026-09-02T22:08:05Z</time>
  <course>209.53</course>
  <speed>0.82</speed>
  <fix>3d</fix>
</trkpt>
<trkpt lat="33.8102611" lon="-118.3939028">
  <ele>-35.007</ele>
  <time>2026-09-02T22:08:05Z</time>
  <course>211.01</course>
  <speed>0.7940403012442127</speed>
  <fix>3d</fix>
</trkpt>
<trkpt lat="33.8102623" lon="-118.3939018">
  <ele>-34.26</ele>
  <time>2026-09-02T22:08:05Z</time>
  <course>209.53</course>
  <speed>0.82</speed>
  <fix>3d</fix>
</trkpt>
<trkpt lat="33.8102604" lon="-118.3939033">
  <ele>-34.966</ele>
  <time>2026-09-02T22:08:05Z</time>
  <course>211.01</course>
  <speed>0.8026207074328446</speed>
  <fix>3d</fix>
</trkpt>
<trkpt lat="33.810261" lon="-118.3939027">
  <ele>-34.19</ele>
  <time>2026-09-02T22:08:05Z</time>
  <course>209.53</course>
  <speed>0.82</speed>
  <fix>3d</fix>
</trkpt>
<trkpt lat="33.8102598" lon="-118.3939037">
  <ele>-34.924</ele>
  <time>2026-09-02T22:08:05Z</time>
  <course>211.01</course>
  <speed>0.8026207074328446</speed>
  <fix>3d</fix>
</trkpt>
<trkpt lat="33.810261" lon="-118.3939027">
  <ele>-34.19</ele>
  <time>2026-09-02T22:08:05Z</time>
  <course>209.53</course>
  <speed>0.82</speed>
  <fix>3d</fix>
</trkpt>
<trkpt lat="33.8102591" lon="-118.3939042">
  <ele>-34.884</ele>
  <time>2026-09-02T22:08:05Z</time>
  <course>211.01</course>
  <speed>0.8026207074328446</speed>
  <fix>3d</fix>
</trkpt>
<trkpt lat="33.8102597" lon="-118.3939035">
  <ele>-34.12</ele>
  <time>2026-09-02T22:08:05Z</time>
  <course>209.55</course>
  <speed>0.82</speed>
  <fix>3d</fix>
</trkpt>
<trkpt lat="33.8102585" lon="-118.3939046">
  <ele>-34.844</ele>
  <time>2026-09-02T22:08:05Z</time>
  <course>211.01</course>
  <speed>0.8026207074328446</speed>
  <fix>3d</fix>
</trkpt>
<trkpt lat="33.8102597" lon="-118.3939035">
  <ele>-34.12</ele>
  <time>2026-09-02T22:08:05Z</time>
  <course>209.55</course>
  <speed>0.82</speed>
  <fix>3d</fix>
</trkpt>
<trkpt lat="33.8102578" lon="-118.393905">
  <ele>-34.804</ele>
  <time>2026-09-02T22:08:05Z</time>
  <course>211.03</course>
  <speed>0.8026207074328446</speed>
  <fix>3d</fix>
</trkpt>
<trkpt lat="33.8102584" lon="-118.3939044">
  <ele>-34.04</ele>
  <time>2026-09-02T22:08:05Z</time>
  <course>209.58</course>
  <speed>0.82</speed>
  <fix>3d</fix>
</trkpt>
<trkpt lat="33.8102572" lon="-118.3939055">
  <ele>-34.764</ele>
  <time>2026-09-02T22:08:05Z</time>
  <course>211.05</course>
  <speed>0.8026207074328446</speed>
  <fix>3d</fix>
</trkpt>
<trkpt lat="33.8102584" lon="-118.3939044">
  <ele>-34.04</ele>
  <time>2026-09-02T22:08:05Z</time>
  <course>209.58</course>
  <speed>0.82</speed>
  <fix>3d</fix>
</trkpt>
<trkpt lat="33.8102565" lon="-118.3939059">
  <ele>-34.726</ele>
  <time>2026-09-02T22:08:05Z</time>
  <course>211.08</course>
  <speed>0.8026207074328446</speed>
  <fix>3d</fix>
</trkpt>
<trkpt lat="33.8102571" lon="-118.3939053">
  <ele>-33.97</ele>
  <time>2026-09-02T22:08:05Z</time>
  <course>209.65</course>
  <speed>0.83</speed>
  <fix>3d</fix>
</trkpt>
<trkpt lat="33.8102559" lon="-118.3939064">
  <ele>-34.689</ele>
  <time>2026-09-02T22:08:05Z</time>
  <course>211.11</course>
  <speed>0.8026207074328446</speed>
  <fix>3d</fix>
</trkpt>
<trkpt lat="33.8102571" lon="-118.3939053">
  <ele>-33.97</ele>
  <time>2026-09-02T22:08:05Z</time>
  <course>209.65</course>
  <speed>0.83</speed>
  <fix>3d</fix>
</trkpt>
<trkpt lat="33.8102552" lon="-118.3939068">
  <ele>-34.656</ele>
  <time>2026-09-02T22:08:05Z</time>
  <course>211.14</course>
  <speed>0.8026207074328446</speed>
  <fix>3d</fix>
</trkpt>
<trkpt lat="33.8102558" lon="-118.3939062">
  <ele>-33.89</ele>
  <time>2026-09-02T22:08:05Z</time>
  <course>209.72</course>
  <speed>0.83</speed>
  <fix>3d</fix>
</trkpt>
<trkpt lat="33.8102546" lon="-118.3939073">
  <ele>-34.624</ele>
  <time>2026-09-02T22:08:05Z</time>
  <course>211.15</course>
  <speed>0.8077747210701756</speed>
  <fix>3d</fix>
</trkpt>
<trkpt lat="33.8102558" lon="-118.3939062">
  <ele>-33.89</ele>
  <time>2026-09-02T22:08:05Z</time>
  <course>209.72</course>
  <speed>0.83</speed>
  <fix>3d</fix>
</trkpt>
<trkpt lat="33.8102539" lon="-118.3939077">
  <ele>-34.595</ele>
  <time>2026-09-02T22:08:05Z</time>
  <course>211.17</course>
  <speed>0.8077747210701756</speed>
  <fix>3d</fix>
</trkpt>
<trkpt lat="33.8102545" lon="-118.3939071">
  <ele>-33.83</ele>
  <time>2026-09-02T22:08:05Z</time>
  <course>209.75</course>
  <speed>0.83</speed>
  <fix>3d</fix>
</trkpt>
<trkpt lat="33.8102533" lon="-118.3939082">
  <ele>-34.567</ele>
  <time>2026-09-02T22:08:05Z</time>
  <course>211.17</course>
  <speed>0.8077747210701756</speed>
  <fix>3d</fix>
</trkpt>
<trkpt lat="33.8102545" lon="-118.3939071">
  <ele>-33.83</ele>
  <time>2026-09-02T22:08:05Z</time>
  <course>209.75</course>
  <speed>0.83</speed>
  <fix>3d</fix>
</trkpt>
<trkpt lat="33.8102526" lon="-118.3939086">
  <ele>-34.539</ele>
  <time>2026-09-02T22:08:05Z</time>
  <course>211.18</course>
  <speed>0.816333265278342</speed>
  <fix>3d</fix>
</trkpt>
<trkpt lat="33.8102532" lon="-118.393908">
  <ele>-33.77</ele>
  <time>2026-09-02T22:08:05Z</time>
  <course>209.78</course>
  <speed>0.83</speed>
  <fix>3d</fix>
</trkpt>
<trkpt lat="33.810252" lon="-118.3939091">
  <ele>-34.512</ele>
  <time>2026-09-02T22:08:05Z</time>
  <course>211.17</course>
  <speed>0.816333265278342</speed>
  <fix>3d</fix>
</trkpt>
<trkpt lat="33.8102532" lon="-118.393908">
  <ele>-33.77</ele>
  <time>2026-09-02T22:08:05Z</time>
  <course>209.78</course>
  <speed>0.83</speed>
  <fix>3d</fix>
</trkpt>
<trkpt lat="33.8102513" lon="-118.3939095">
  <ele>-34.485</ele>
  <time>2026-09-02T22:08:05Z</time>
  <course>211.16</course>
  <speed>0.816333265278342</speed>
  <fix>3d</fix>
</trkpt>
<trkpt lat="33.8102519" lon="-118.3939089">
  <ele>-33.71</ele>
  <time>2026-09-02T22:08:05Z</time>
  <course>209.77</course>
  <speed>0.83</speed>
  <fix>3d</fix>
</trkpt>
<trkpt lat="33.8102507" lon="-118.39391">
  <ele>-34.458</ele>
  <time>2026-09-02T22:08:05Z</time>
  <course>211.14</course>
  <speed>0.816333265278342</speed>
  <fix>3d</fix>
</trkpt>
<trkpt lat="33.8102519" lon="-118.3939089">
  <ele>-33.71</ele>
  <time>2026-09-02T22:08:05Z</time>
  <course>209.77</course>
  <speed>0.83</speed>
  <fix>3d</fix>
</trkpt>
<trkpt lat="33.81025" lon="-118.3939104">
  <ele>-34.432</ele>
  <time>2026-09-02T22:08:05Z</time>
  <course>211.13</course>
  <speed>0.816333265278342</speed>
  <fix>3d</fix>
</trkpt>
<trkpt lat="33.8102506" lon="-118.3939098">
  <ele>-33.66</ele>
  <time>2026-09-02T22:08:05Z</time>
  <course>209.74</course>
  <speed>0.84</speed>
  <fix>3d</fix>
</trkpt>
<trkpt lat="33.8102493" lon="-118.3939109">
  <ele>-34.408</ele>
  <time>2026-09-02T22:08:05Z</time>
  <course>211.1</course>
  <speed>0.816333265278342</speed>
  <fix>3d</fix>
</trkpt>
<trkpt lat="33.8102506" lon="-118.3939098">
  <ele>-33.66</ele>
  <time>2026-09-02T22:08:05Z</time>
  <course>209.74</course>
  <speed>0.84</speed>
  <fix>3d</fix>
</trkpt>
<trkpt lat="33.8102487" lon="-118.3939113">
  <ele>-34.382</ele>
  <time>2026-09-02T22:08:05Z</time>
  <course>211.09</course>
  <speed>0.816333265278342</speed>
  <fix>3d</fix>
</trkpt>
<trkpt lat="33.8102493" lon="-118.3939107">
  <ele>-33.62</ele>
  <time>2026-09-02T22:08:05Z</time>
  <course>209.7</course>
  <speed>0.84</speed>
  <fix>3d</fix>
</trkpt>
<trkpt lat="33.810248" lon="-118.3939118">
  <ele>-34.356</ele>
  <time>2026-09-02T22:08:05Z</time>
  <course>211.06</course>
  <speed>0.816333265278342</speed>
  <fix>3d</fix>
</trkpt>
<trkpt lat="33.8102493" lon="-118.3939107">
  <ele>-33.62</ele>
  <time>2026-09-02T22:08:05Z</time>
  <course>209.7</course>
  <speed>0.84</speed>
  <fix>3d</fix>
</trkpt>
<trkpt lat="33.8102474" lon="-118.3939122">
  <ele>-34.329</ele>
  <time>2026-09-02T22:08:05Z</time>
  <course>211.04</course>
  <speed>0.816333265278342</speed>
  <fix>3d</fix>
</trkpt>
<trkpt lat="33.810248" lon="-118.3939116">
  <ele>-33.57</ele>
  <time>2026-09-02T22:08:05Z</time>
  <course>209.68</course>
  <speed>0.84</speed>
  <fix>3d</fix>
</trkpt>
<trkpt lat="33.8102467" lon="-118.3939127">
  <ele>-34.304</ele>
  <time>2026-09-02T22:08:05Z</time>
  <course>211.02</course>
  <speed>0.8026207074328446</speed>
  <fix>3d</fix>
</trkpt>
<trkpt lat="33.810248" lon="-118.3939116">
  <ele>-33.57</ele>
  <time>2026-09-02T22:08:05Z</time>
  <course>209.68</course>
  <speed>0.84</speed>
  <fix>3d</fix>
</trkpt>
<trkpt lat="33.8102461" lon="-118.3939131">
  <ele>-34.279</ele>
  <time>2026-09-02T22:08:05Z</time>
  <course>211.01</course>
  <speed>0.758023746329889</speed>
  <fix>3d</fix>
</trkpt>
<trkpt lat="33.8102467" lon="-118.3939125">
  <ele>-33.51</ele>
  <time>2026-09-02T22:08:05Z</time>
  <course>209.68</course>
  <speed>0.81</speed>
  <fix>3d</fix>
</trkpt>
<trkpt lat="33.8102455" lon="-118.3939135">
  <ele>-34.256</ele>
  <time>2026-09-02T22:08:05Z</time>
  <course>211.03</course>
  <speed>0.7717512552629896</speed>
  <fix>3d</fix>
</trkpt>
<trkpt lat="33.8102467" lon="-118.3939125">
  <ele>-33.51</ele>
  <time>2026-09-02T22:08:05Z</time>
  <course>209.68</course>
  <speed>0.81</speed>
  <fix>3d</fix>
</trkpt>
<trkpt lat="33.8102449" lon="-118.3939139">
  <ele>-34.229</ele>
  <time>2026-09-02T22:08:05Z</time>
  <course>211.05</course>
  <speed>0.7803204469959762</speed>
  <fix>3d</fix>
</trkpt>
<trkpt lat="33.8102454" lon="-118.3939134">
  <ele>-33.47</ele>
  <time>2026-09-02T22:08:05Z</time>
  <course>209.66</course>
  <speed>0.79</speed>
  <fix>3d</fix>
</trkpt>
<trkpt lat="33.8102442" lon="-118.3939144">
  <ele>-34.201</ele>
  <time>2026-09-02T22:08:05Z</time>
  <course>211.01</course>
  <speed>0.7940403012442127</speed>
  <fix>3d</fix>
</trkpt>
<trkpt lat="33.8102454" lon="-118.3939134">
  <ele>-33.47</ele>
  <time>2026-09-02T22:08:05Z</time>
  <course>209.66</course>
  <speed>0.79</speed>
  <fix>3d</fix>
</trkpt>
<trkpt lat="33.8102436" lon="-118.3939148">
  <ele>-34.176</ele>
  <time>2026-09-02T22:08:05Z</time>
  <course>210.97</course>
  <speed>0.8026207074328446</speed>
  <fix>3d</fix>
</trkpt>
<trkpt lat="33.8102442" lon="-118.3939143">
  <ele>-33.42</ele>
  <time>2026-09-02T22:08:05Z</time>
  <course>209.6</course>
  <speed>0.81</speed>
  <fix>3d</fix>
</trkpt>
<trkpt lat="33.8102429" lon="-118.3939153">
  <ele>-34.151</ele>
  <time>2026-09-02T22:08:05Z</time>
  <course>210.93</course>
  <speed>0.8026207074328446</speed>
  <fix>3d</fix>
</trkpt>
<trkpt lat="33.8102442" lon="-118.3939143">
  <ele>-33.42</ele>
  <time>2026-09-02T22:08:05Z</time>
  <course>209.6</course>
  <speed>0.81</speed>
  <fix>3d</fix>
</trkpt>
<trkpt lat="33.8102423" lon="-118.3939157">
  <ele>-34.123</ele>
  <time>2026-09-02T22:08:05Z</time>
  <course>210.88</course>
  <speed>0.8112336284942827</speed>
  <fix>3d</fix>
</trkpt>
<trkpt lat="33.8102429" lon="-118.3939151">
  <ele>-33.37</ele>
  <time>2026-09-02T22:08:05Z</time>
  <course>209.51</course>
  <speed>0.83</speed>
  <fix>3d</fix>
</trkpt>
<trkpt lat="33.8102416" lon="-118.3939162">
  <ele>-34.093</ele>
  <time>2026-09-02T22:08:05Z</time>
  <course>210.83</course>
  <speed>0.816333265278342</speed>
  <fix>3d</fix>
</trkpt>
<trkpt lat="33.8102429" lon="-118.3939151">
  <ele>-33.37</ele>
  <time>2026-09-02T22:08:05Z</time>
  <course>209.51</course>
  <speed>0.83</speed>
  <fix>3d</fix>
</trkpt>
<trkpt lat="33.810241" lon="-118.3939166">
  <ele>-34.062</ele>
  <time>2026-09-02T22:08:05Z</time>
  <course>210.8</course>
  <speed>0.8249242389456137</speed>
  <fix>3d</fix>
</trkpt>
<trkpt lat="33.8102416" lon="-118.393916">
  <ele>-33.32</ele>
  <time>2026-09-02T22:08:05Z</time>
  <course>209.44</course>
  <speed>0.84</speed>
  <fix>3d</fix>
</trkpt>
<trkpt lat="33.8102403" lon="-118.3939171">
  <ele>-34.028</ele>
  <time>2026-09-02T22:08:05Z</time>
  <course>210.77</course>
  <speed>0.8249242389456137</speed>
  <fix>3d</fix>
</trkpt>
<trkpt lat="33.8102416" lon="-118.393916">
  <ele>-33.32</ele>
  <time>2026-09-02T22:08:05Z</time>
  <course>209.44</course>
  <speed>0.84</speed>
  <fix>3d</fix>
</trkpt>
<trkpt lat="33.8102396" lon="-118.3939175">
  <ele>-33.994</ele>
  <time>2026-09-02T22:08:05Z</time>
  <course>210.76</course>
  <speed>0.8249242389456137</speed>
  <fix>3d</fix>
</trkpt>
<trkpt lat="33.8102402" lon="-118.3939169">
  <ele>-33.25</ele>
  <time>2026-09-02T22:08:05Z</time>
  <course>209.42</course>
  <speed>0.85</speed>
  <fix>3d</fix>
</trkpt>
<trkpt lat="33.810239" lon="-118.393918">
  <ele>-33.961</ele>
  <time>2026-09-02T22:08:05Z</time>
  <course>210.75</course>
  <speed>0.8335466393669883</speed>
  <fix>3d</fix>
</trkpt>
<trkpt lat="33.8102402" lon="-118.3939169">
  <ele>-33.25</ele>
  <time>2026-09-02T22:08:05Z</time>
  <course>209.42</course>
  <speed>0.85</speed>
  <fix>3d</fix>
</trkpt>
<trkpt lat="33.8102383" lon="-118.3939184">
  <ele>-33.927</ele>
  <time>2026-09-02T22:08:05Z</time>
  <course>210.76</course>
  <speed>0.8386298349093002</speed>
  <fix>3d</fix>
</trkpt>
<trkpt lat="33.8102389" lon="-118.3939178">
  <ele>-33.19</ele>
  <time>2026-09-02T22:08:05Z</time>
  <course>209.44</course>
  <speed>0.86</speed>
  <fix>3d</fix>
</trkpt>
<trkpt lat="33.8102376" lon="-118.3939189">
  <ele>-33.89</ele>
  <time>2026-09-02T22:08:05Z</time>
  <course>210.77</course>
  <speed>0.8386298349093002</speed>
  <fix>3d</fix>
</trkpt>
<trkpt lat="33.8102389" lon="-118.3939178">
  <ele>-33.19</ele>
  <time>2026-09-02T22:08:05Z</time>
  <course>209.44</course>
  <speed>0.86</speed>
  <fix>3d</fix>
</trkpt>
<trkpt lat="33.8102369" lon="-118.3939193">
  <ele>-33.851</ele>
  <time>2026-09-02T22:08:05Z</time>
  <course>210.8</course>
  <speed>0.8386298349093002</speed>
  <fix>3d</fix>
</trkpt>
<trkpt lat="33.8102375" lon="-118.3939188">
  <ele>-33.12</ele>
  <time>2026-09-02T22:08:05Z</time>
  <course>209.5</course>
  <speed>0.86</speed>
  <fix>3d</fix>
</trkpt>
<trkpt lat="33.8102363" lon="-118.3939198">
  <ele>-33.812</ele>
  <time>2026-09-02T22:08:05Z</time>
  <course>210.82</course>
  <speed>0.8386298349093002</speed>
  <fix>3d</fix>
</trkpt>
<trkpt lat="33.8102375" lon="-118.3939188">
  <ele>-33.12</ele>
  <time>2026-09-02T22:08:05Z</time>
  <course>209.5</course>
  <speed>0.86</speed>
  <fix>3d</fix>
</trkpt>
<trkpt lat="33.8102356" lon="-118.3939203">
  <ele>-33.772</ele>
  <time>2026-09-02T22:08:05Z</time>
  <course>210.83</course>
  <speed>0.8386298349093002</speed>
  <fix>3d</fix>
</trkpt>
<trkpt lat="33.8102362" lon="-118.3939197">
  <ele>-33.05</ele>
  <time>2026-09-02T22:08:05Z</time>
  <course>209.52</course>
  <speed>0.87</speed>
  <fix>3d</fix>
</trkpt>
<trkpt lat="33.8102349" lon="-118.3939207">
  <ele>-33.732</ele>
  <time>2026-09-02T22:08:05Z</time>
  <course>210.83</course>
  <speed>0.8472307831990054</speed>
  <fix>3d</fix>
</trkpt>
<trkpt lat="33.8102362" lon="-118.3939197">
  <ele>-33.05</ele>
  <time>2026-09-02T22:08:05Z</time>
  <course>209.52</course>
  <speed>0.87</speed>
  <fix>3d</fix>
</trkpt>
<trkpt lat="33.8102342" lon="-118.3939212">
  <ele>-33.696</ele>
  <time>2026-09-02T22:08:05Z</time>
  <course>210.83</course>
  <speed>0.8472307831990054</speed>
  <fix>3d</fix>
</trkpt>
<trkpt lat="33.8102347" lon="-118.3939206">
  <ele>-32.97</ele>
  <time>2026-09-02T22:08:05Z</time>
  <course>209.51</course>
  <speed>0.87</speed>
  <fix>3d</fix>
</trkpt>
<trkpt lat="33.8102335" lon="-118.3939217">
  <ele>-33.66</ele>
  <time>2026-09-02T22:08:05Z</time>
  <course>210.83</course>
  <speed>0.8472307831990054</speed>
  <fix>3d</fix>
</trkpt>
<trkpt lat="33.8102347" lon="-118.3939206">
  <ele>-32.97</ele>
  <time>2026-09-02T22:08:05Z</time>
  <course>209.51</course>
  <speed>0.87</speed>
  <fix>3d</fix>
</trkpt>
<trkpt lat="33.8102329" lon="-118.3939221">
  <ele>-33.623</ele>
  <time>2026-09-02T22:08:05Z</time>
  <course>210.84</course>
  <speed>0.8472307831990054</speed>
  <fix>3d</fix>
</trkpt>
<trkpt lat="33.8102334" lon="-118.3939216">
  <ele>-32.9</ele>
  <time>2026-09-02T22:08:05Z</time>
  <course>209.54</course>
  <speed>0.87</speed>
  <fix>3d</fix>
</trkpt>
<trkpt lat="33.8102322" lon="-118.3939226">
  <ele>-33.588</ele>
  <time>2026-09-02T22:08:05Z</time>
  <course>210.86</course>
  <speed>0.8472307831990054</speed>
  <fix>3d</fix>
</trkpt>
<trkpt lat="33.8102334" lon="-118.3939216">
  <ele>-32.9</ele>
  <time>2026-09-02T22:08:05Z</time>
  <course>209.54</course>
  <speed>0.87</speed>
  <fix>3d</fix>
</trkpt>
<trkpt lat="33.8102315" lon="-118.3939231">
  <ele>-33.557</ele>
  <time>2026-09-02T22:08:05Z</time>
  <course>210.88</course>
  <speed>0.8472307831990054</speed>
  <fix>3d</fix>
</trkpt>
<trkpt lat="33.8102321" lon="-118.3939225">
  <ele>-32.83</ele>
  <time>2026-09-02T22:08:05Z</time>
  <course>209.58</course>
  <speed>0.88</speed>
  <fix>3d</fix>
</trkpt>
<trkpt lat="33.8102308" lon="-118.3939235">
  <ele>-33.531</ele>
  <time>2026-09-02T22:08:05Z</time>
  <course>210.89</course>
  <speed>0.8472307831990054</speed>
  <fix>3d</fix>
</trkpt>
<trkpt lat="33.8102321" lon="-118.3939225">
  <ele>-32.83</ele>
  <time>2026-09-02T22:08:05Z</time>
  <course>209.58</course>
  <speed>0.88</speed>
  <fix>3d</fix>
</trkpt>
<trkpt lat="33.8102301" lon="-118.393924">
  <ele>-33.508</ele>
  <time>2026-09-02T22:08:05Z</time>
  <course>210.89</course>
  <speed>0.8472307831990054</speed>
  <fix>3d</fix>
</trkpt>
<trkpt lat="33.8102307" lon="-118.3939234">
  <ele>-32.77</ele>
  <time>2026-09-02T22:08:05Z</time>
  <course>209.58</course>
  <speed>0.88</speed>
  <fix>3d</fix>
</trkpt>
<trkpt lat="33.8102294" lon="-118.3939245">
  <ele>-33.486</ele>
  <time>2026-09-02T22:08:05Z</time>
  <course>210.88</course>
  <speed>0.8472307831990054</speed>
  <fix>3d</fix>
</trkpt>
<trkpt lat="33.8102307" lon="-118.3939234">
  <ele>-32.77</ele>
  <time>2026-09-02T22:08:05Z</time>
  <course>209.58</course>
  <speed>0.88</speed>
  <fix>3d</fix>
</trkpt>
<trkpt lat="33.8102287" lon="-118.393925">
  <ele>-33.463</ele>
  <time>2026-09-02T22:08:05Z</time>
  <course>210.87</course>
  <speed>0.8472307831990054</speed>
  <fix>3d</fix>
</trkpt>
<trkpt lat="33.8102292" lon="-118.3939244">
  <ele>-32.73</ele>
  <time>2026-09-02T22:08:05Z</time>
  <course>209.57</course>
  <speed>0.88</speed>
  <fix>3d</fix>
</trkpt>
<trkpt lat="33.810228" lon="-118.3939254">
  <ele>-33.44</ele>
  <time>2026-09-02T22:08:05Z</time>
  <course>210.87</course>
  <speed>0.8300602387778854</speed>
  <fix>3d</fix>
</trkpt>
<trkpt lat="33.8102292" lon="-118.3939244">
  <ele>-32.73</ele>
  <time>2026-09-02T22:08:05Z</time>
  <course>209.57</course>
  <speed>0.88</speed>
  <fix>3d</fix>
</trkpt>
<trkpt lat="33.8102274" lon="-118.3939259">
  <ele>-33.422</ele>
  <time>2026-09-02T22:08:05Z</time>
  <course>210.9</course>
  <speed>0.7889233169326408</speed>
  <fix>3d</fix>
</trkpt>
<trkpt lat="33.8102279" lon="-118.3939253">
  <ele>-32.68</ele>
  <time>2026-09-02T22:08:05Z</time>
  <course>209.62</course>
  <speed>0.85</speed>
  <fix>3d</fix>
</trkpt>
<trkpt lat="33.8102268" lon="-118.3939263">
  <ele>-33.409</ele>
  <time>2026-09-02T22:08:05Z</time>
  <course>210.97</course>
  <speed>0.8026207074328446</speed>
  <fix>3d</fix>
</trkpt>
<trkpt lat="33.8102279" lon="-118.3939253">
  <ele>-32.68</ele>
  <time>2026-09-02T22:08:05Z</time>
  <course>209.62</course>
  <speed>0.85</speed>
  <fix>3d</fix>
</trkpt>
<trkpt lat="33.8102261" lon="-118.3939267">
  <ele>-33.398</ele>
  <time>2026-09-02T22:08:05Z</time>
  <course>211.01</course>
  <speed>0.816333265278342</speed>
  <fix>3d</fix>
</trkpt>
<trkpt lat="33.8102266" lon="-118.3939262">
  <ele>-32.64</ele>
  <time>2026-09-02T22:08:05Z</time>
  <course>209.7</course>
  <speed>0.82</speed>
  <fix>3d</fix>
</trkpt>
<trkpt lat="33.8102255" lon="-118.3939272">
  <ele>-33.384</ele>
  <time>2026-09-02T22:08:05Z</time>
  <course>211.03</course>
  <speed>0.816333265278342</speed>
  <fix>3d</fix>
</trkpt>
<trkpt lat="33.8102266" lon="-118.3939262">
  <ele>-32.64</ele>
  <time>2026-09-02T22:08:05Z</time>
  <course>209.7</course>
  <speed>0.82</speed>
  <fix>3d</fix>
</trkpt>
<trkpt lat="33.8102248" lon="-118.3939277">
  <ele>-33.366</ele>
  <time>2026-09-02T22:08:05Z</time>
  <course>211.02</course>
  <speed>0.8249242389456137</speed>
  <fix>3d</fix>
</trkpt>
<trkpt lat="33.8102253" lon="-118.3939271">
  <ele>-32.61</ele>
  <time>2026-09-02T22:08:05Z</time>
  <course>209.71</course>
  <speed>0.84</speed>
  <fix>3d</fix>
</trkpt>
<trkpt lat="33.8102241" lon="-118.3939281">
  <ele>-33.344</ele>
  <time>2026-09-02T22:08:05Z</time>
  <course>211.01</course>
  <speed>0.8300602387778854</speed>
  <fix>3d</fix>
</trkpt>
<trkpt lat="33.8102253" lon="-118.3939271">
  <ele>-32.61</ele>
  <time>2026-09-02T22:08:05Z</time>
  <course>209.71</course>
  <speed>0.84</speed>
  <fix>3d</fix>
</trkpt>
<trkpt lat="33.8102234" lon="-118.3939286">
  <ele>-33.317</ele>
  <time>2026-09-02T22:08:05Z</time>
  <course>211.0</course>
  <speed>0.8386298349093002</speed>
  <fix>3d</fix>
</trkpt>
<trkpt lat="33.810224" lon="-118.393928">
  <ele>-32.57</ele>
  <time>2026-09-02T22:08:05Z</time>
  <course>209.68</course>
  <speed>0.86</speed>
  <fix>3d</fix>
</trkpt>
<trkpt lat="33.8102228" lon="-118.393929">
  <ele>-33.284</ele>
  <time>2026-09-02T22:08:05Z</time>
  <course>210.98</course>
  <speed>0.8386298349093002</speed>
  <fix>3d</fix>
</trkpt>
<trkpt lat="33.810224" lon="-118.393928">
  <ele>-32.57</ele>
  <time>2026-09-02T22:08:05Z</time>
  <course>209.68</course>
  <speed>0.86</speed>
  <fix>3d</fix>
</trkpt>
<trkpt lat="33.8102221" lon="-118.3939295">
  <ele>-33.25</ele>
  <time>2026-09-02T22:08:05Z</time>
  <course>210.96</course>
  <speed>0.8472307831990054</speed>
  <fix>3d</fix>
</trkpt>
<trkpt lat="33.8102226" lon="-118.393929">
  <ele>-32.52</ele>
  <time>2026-09-02T22:08:05Z</time>
  <course>209.65</course>
  <speed>0.87</speed>
  <fix>3d</fix>
</trkpt>
<trkpt lat="33.8102214" lon="-118.39393">
  <ele>-33.216</ele>
  <time>2026-09-02T22:08:05Z</time>
  <course>210.94</course>
  <speed>0.8472307831990054</speed>
  <fix>3d</fix>
</trkpt>
<trkpt lat="33.8102226" lon="-118.393929">
  <ele>-32.52</ele>
  <time>2026-09-02T22:08:05Z</time>
  <course>209.65</course>
  <speed>0.87</speed>
  <fix>3d</fix>
</trkpt>
<trkpt lat="33.8102207" lon="-118.3939305">
  <ele>-33.18</ele>
  <time>2026-09-02T22:08:05Z</time>
  <course>210.92</course>
  <speed>0.8523496934944014</speed>
  <fix>3d</fix>
</trkpt>
<trkpt lat="33.8102212" lon="-118.3939299">
  <ele>-32.45</ele>
  <time>2026-09-02T22:08:05Z</time>
  <course>209.61</course>
  <speed>0.88</speed>
  <fix>3d</fix>
</trkpt>
<trkpt lat="33.81022" lon="-118.3939309">
  <ele>-33.143</ele>
  <time>2026-09-02T22:08:05Z</time>
  <course>210.9</course>
  <speed>0.8523496934944014</speed>
  <fix>3d</fix>
</trkpt>
<trkpt lat="33.8102212" lon="-118.3939299">
  <ele>-32.45</ele>
  <time>2026-09-02T22:08:05Z</time>
  <course>209.61</course>
  <speed>0.88</speed>
  <fix>3d</fix>
</trkpt>
<trkpt lat="33.8102193" lon="-118.3939314">
  <ele>-33.106</ele>
  <time>2026-09-02T22:08:05Z</time>
  <course>210.89</course>
  <speed>0.8609297300012354</speed>
  <fix>3d</fix>
</trkpt>
<trkpt lat="33.8102199" lon="-118.3939308">
  <ele>-32.37</ele>
  <time>2026-09-02T22:08:05Z</time>
  <course>209.59</course>
  <speed>0.88</speed>
  <fix>3d</fix>
</trkpt>
<trkpt lat="33.8102186" lon="-118.3939319">
  <ele>-33.067</ele>
  <time>2026-09-02T22:08:05Z</time>
  <course>210.87</course>
  <speed>0.8609297300012354</speed>
  <fix>3d</fix>
</trkpt>
<trkpt lat="33.8102199" lon="-118.3939308">
  <ele>-32.37</ele>
  <time>2026-09-02T22:08:05Z</time>
  <course>209.59</course>
  <speed>0.88</speed>
  <fix>3d</fix>
</trkpt>
<trkpt lat="33.8102179" lon="-118.3939324">
  <ele>-33.026</ele>
  <time>2026-09-02T22:08:05Z</time>
  <course>210.88</course>
  <speed>0.8609297300012354</speed>
  <fix>3d</fix>
</trkpt>
<trkpt lat="33.8102185" lon="-118.3939318">
  <ele>-32.3</ele>
  <time>2026-09-02T22:08:05Z</time>
  <course>209.59</course>
  <speed>0.89</speed>
  <fix>3d</fix>
</trkpt>
<trkpt lat="33.8102172" lon="-118.3939328">
  <ele>-32.983</ele>
  <time>2026-09-02T22:08:05Z</time>
  <course>210.87</course>
  <speed>0.8609297300012354</speed>
  <fix>3d</fix>
</trkpt>
<trkpt lat="33.8102185" lon="-118.3939318">
  <ele>-32.3</ele>
  <time>2026-09-02T22:08:05Z</time>
  <course>209.59</course>
  <speed>0.89</speed>
  <fix>3d</fix>
</trkpt>
<trkpt lat="33.8102165" lon="-118.3939333">
  <ele>-32.941</ele>
  <time>2026-09-02T22:08:05Z</time>
  <course>210.86</course>
  <speed>0.8609297300012354</speed>
  <fix>3d</fix>
</trkpt>
<trkpt lat="33.8102171" lon="-118.3939327">
  <ele>-32.22</ele>
  <time>2026-09-02T22:08:05Z</time>
  <course>209.58</course>
  <speed>0.89</speed>
  <fix>3d</fix>
</trkpt>
<trkpt lat="33.8102158" lon="-118.3939338">
  <ele>-32.9</ele>
  <time>2026-09-02T22:08:05Z</time>
  <course>210.84</course>
  <speed>0.8609297300012354</speed>
  <fix>3d</fix>
</trkpt>
<trkpt lat="33.8102171" lon="-118.3939327">
  <ele>-32.22</ele>
  <time>2026-09-02T22:08:05Z</time>
  <course>209.58</course>
  <speed>0.89</speed>
  <fix>3d</fix>
</trkpt>
<trkpt lat="33.8102151" lon="-118.3939343">
  <ele>-32.86</ele>
  <time>2026-09-02T22:08:05Z</time>
  <course>210.84</course>
  <speed>0.8695401083331349</speed>
  <fix>3d</fix>
</trkpt>
<trkpt lat="33.8102157" lon="-118.3939337">
  <ele>-32.14</ele>
  <time>2026-09-02T22:08:05Z</time>
  <course>209.59</course>
  <speed>0.9</speed>
  <fix>3d</fix>
</trkpt>
<trkpt lat="33.8102144" lon="-118.3939348">
  <ele>-32.823</ele>
  <time>2026-09-02T22:08:05Z</time>
  <course>210.83</course>
  <speed>0.8695401083331349</speed>
  <fix>3d</fix>
</trkpt>
<trkpt lat="33.8102157" lon="-118.3939337">
  <ele>-32.14</ele>
  <time>2026-09-02T22:08:05Z</time>
  <course>209.59</course>
  <speed>0.9</speed>
  <fix>3d</fix>
</trkpt>
<trkpt lat="33.8102137" lon="-118.3939352">
  <ele>-32.789</ele>
  <time>2026-09-02T22:08:05Z</time>
  <course>210.82</course>
  <speed>0.8695401083331349</speed>
  <fix>3d</fix>
</trkpt>
<trkpt lat="33.8102142" lon="-118.3939347">
  <ele>-32.07</ele>
  <time>2026-09-02T22:08:05Z</time>
  <course>209.6</course>
  <speed>0.9</speed>
  <fix>3d</fix>
</trkpt>
<trkpt lat="33.810213" lon="-118.3939357">
  <ele>-32.758</ele>
  <time>2026-09-02T22:08:05Z</time>
  <course>210.82</course>
  <speed>0.8746427842267951</speed>
  <fix>3d</fix>
</trkpt>
<trkpt lat="33.8102142" lon="-118.3939347">
  <ele>-32.07</ele>
  <time>2026-09-02T22:08:05Z</time>
  <course>209.6</course>
  <speed>0.9</speed>
  <fix>3d</fix>
</trkpt>
<trkpt lat="33.8102123" lon="-118.3939362">
  <ele>-32.726</ele>
  <time>2026-09-02T22:08:05Z</time>
  <course>210.82</course>
  <speed>0.8695401083331349</speed>
  <fix>3d</fix>
</trkpt>
<trkpt lat="33.8102128" lon="-118.3939357">
  <ele>-32.01</ele>
  <time>2026-09-02T22:08:05Z</time>
  <course>209.6</course>
  <speed>0.9</speed>
  <fix>3d</fix>
</trkpt>
<trkpt lat="33.8102116" lon="-118.3939367">
  <ele>-32.696</ele>
  <time>2026-09-02T22:08:05Z</time>
  <course>210.82</course>
  <speed>0.8746427842267951</speed>
  <fix>3d</fix>
</trkpt>
<trkpt lat="33.8102128" lon="-118.3939357">
  <ele>-32.01</ele>
  <time>2026-09-02T22:08:05Z</time>
  <course>209.6</course>
  <speed>0.9</speed>
  <fix>3d</fix>
</trkpt>
<trkpt lat="33.8102109" lon="-118.3939372">
  <ele>-32.666</ele>
  <time>2026-09-02T22:08:05Z</time>
  <course>210.81</course>
  <speed>0.8746427842267951</speed>
  <fix>3d</fix>
</trkpt>
<trkpt lat="33.8102114" lon="-118.3939366">
  <ele>-31.95</ele>
  <time>2026-09-02T22:08:05Z</time>
  <course>209.6</course>
  <speed>0.9</speed>
  <fix>3d</fix>
</trkpt>
<trkpt lat="33.8102102" lon="-118.3939377">
  <ele>-32.636</ele>
  <time>2026-09-02T22:08:05Z</time>
  <course>210.8</course>
  <speed>0.8746427842267951</speed>
  <fix>3d</fix>
</trkpt>
<trkpt lat="33.8102114" lon="-118.3939366">
  <ele>-31.95</ele>
  <time>2026-09-02T22:08:05Z</time>
  <course>209.6</course>
  <speed>0.9</speed>
  <fix>3d</fix>
</trkpt>
<trkpt lat="33.8102094" lon="-118.3939382">
  <ele>-32.604</ele>
  <time>2026-09-02T22:08:06Z</time>
  <course>210.8</course>
  <speed>0.8746427842267951</speed>
  <fix>3d</fix>
</trkpt>
<trkpt lat="33.81021" lon="-118.3939375">
  <ele>-31.89</ele>
  <time>2026-09-02T22:08:06Z</time>
  <course>209.6</course>
  <speed>0.9</speed>
  <fix>3d</fix>
</trkpt>
<trkpt lat="33.8102087" lon="-118.3939386">
  <ele>-32.573</ele>
  <time>2026-09-02T22:08:06Z</time>
  <course>210.81</course>
  <speed>0.8746427842267951</speed>
  <fix>3d</fix>
</trkpt>
<trkpt lat="33.81021" lon="-118.3939375">
  <ele>-31.89</ele>
  <time>2026-09-02T22:08:06Z</time>
  <course>209.6</course>
  <speed>0.9</speed>
  <fix>3d</fix>
</trkpt>
<trkpt lat="33.810208" lon="-118.3939391">
  <ele>-32.543</ele>
  <time>2026-09-02T22:08:06Z</time>
  <course>210.83</course>
  <speed>0.8746427842267951</speed>
  <fix>3d</fix>
</trkpt>
<trkpt lat="33.8102085" lon="-118.3939386">
  <ele>-31.83</ele>
  <time>2026-09-02T22:08:06Z</time>
  <course>209.64</course>
  <speed>0.9</speed>
  <fix>3d</fix>
</trkpt>
<trkpt lat="33.8102073" lon="-118.3939396">
  <ele>-32.513</ele>
  <time>2026-09-02T22:08:06Z</time>
  <course>210.85</course>
  <speed>0.8746427842267951</speed>
  <fix>3d</fix>
</trkpt>
<trkpt lat="33.8102085" lon="-118.3939386">
  <ele>-31.83</ele>
  <time>2026-09-02T22:08:06Z</time>
  <course>209.64</course>
  <speed>0.9</speed>
  <fix>3d</fix>
</trkpt>
<trkpt lat="33.8102066" lon="-118.3939401">
  <ele>-32.485</ele>
  <time>2026-09-02T22:08:06Z</time>
  <course>210.87</course>
  <speed>0.8746427842267951</speed>
  <fix>3d</fix>
</trkpt>
<trkpt lat="33.8102072" lon="-118.3939396">
  <ele>-31.77</ele>
  <time>2026-09-02T22:08:06Z</time>
  <course>209.68</course>
  <speed>0.9</speed>
  <fix>3d</fix>
</trkpt>
<trkpt lat="33.8102059" lon="-118.3939406">
  <ele>-32.457</ele>
  <time>2026-09-02T22:08:06Z</time>
  <course>210.87</course>
  <speed>0.8746427842267951</speed>
  <fix>3d</fix>
</trkpt>
<trkpt lat="33.8102072" lon="-118.3939396">
  <ele>-31.77</ele>
  <time>2026-09-02T22:08:06Z</time>
  <course>209.68</course>
  <speed>0.9</speed>
  <fix>3d</fix>
</trkpt>
<trkpt lat="33.8102052" lon="-118.3939411">
  <ele>-32.431</ele>
  <time>2026-09-02T22:08:06Z</time>
  <course>210.85</course>
  <speed>0.8832326986700617</speed>
  <fix>3d</fix>
</trkpt>
<trkpt lat="33.8102058" lon="-118.3939405">
  <ele>-31.72</ele>
  <time>2026-09-02T22:08:06Z</time>
  <course>209.66</course>
  <speed>0.9</speed>
  <fix>3d</fix>
</trkpt>
<trkpt lat="33.8102045" lon="-118.3939416">
  <ele>-32.406</ele>
  <time>2026-09-02T22:08:06Z</time>
  <course>210.82</course>
  <speed>0.8832326986700617</speed>
  <fix>3d</fix>
</trkpt>
<trkpt lat="33.8102058" lon="-118.3939405">
  <ele>-31.72</ele>
  <time>2026-09-02T22:08:06Z</time>
  <course>209.66</course>
  <speed>0.9</speed>
  <fix>3d</fix>
</trkpt>
<trkpt lat="33.8102037" lon="-118.3939421">
  <ele>-32.382</ele>
  <time>2026-09-02T22:08:06Z</time>
  <course>210.78</course>
  <speed>0.8832326986700617</speed>
  <fix>3d</fix>
</trkpt>
<trkpt lat="33.8102043" lon="-118.3939415">
  <ele>-31.67</ele>
  <time>2026-09-02T22:08:06Z</time>
  <course>209.6</course>
  <speed>0.91</speed>
  <fix>3d</fix>
</trkpt>
<trkpt lat="33.810203" lon="-118.3939425">
  <ele>-32.357</ele>
  <time>2026-09-02T22:08:06Z</time>
  <course>210.74</course>
  <speed>0.8832326986700617</speed>
  <fix>3d</fix>
</trkpt>
<trkpt lat="33.8102043" lon="-118.3939415">
  <ele>-31.67</ele>
  <time>2026-09-02T22:08:06Z</time>
  <course>209.6</course>
  <speed>0.91</speed>
  <fix>3d</fix>
</trkpt>
<trkpt lat="33.8102023" lon="-118.393943">
  <ele>-32.332</ele>
  <time>2026-09-02T22:08:06Z</time>
  <course>210.72</course>
  <speed>0.8832326986700617</speed>
  <fix>3d</fix>
</trkpt>
<trkpt lat="33.8102029" lon="-118.3939425">
  <ele>-31.62</ele>
  <time>2026-09-02T22:08:06Z</time>
  <course>209.55</course>
  <speed>0.91</speed>
  <fix>3d</fix>
</trkpt>
<trkpt lat="33.8102016" lon="-118.3939435">
  <ele>-32.307</ele>
  <time>2026-09-02T22:08:06Z</time>
  <course>210.71</course>
  <speed>0.8832326986700617</speed>
  <fix>3d</fix>
</trkpt>
<trkpt lat="33.8102029" lon="-118.3939425">
  <ele>-31.62</ele>
  <time>2026-09-02T22:08:06Z</time>
  <course>209.55</course>
  <speed>0.91</speed>
  <fix>3d</fix>
</trkpt>
<trkpt lat="33.8102009" lon="-118.393944">
  <ele>-32.282</ele>
  <time>2026-09-02T22:08:06Z</time>
  <course>210.69</course>
  <speed>0.8832326986700617</speed>
  <fix>3d</fix>
</trkpt>
<trkpt lat="33.8102015" lon="-118.3939434">
  <ele>-31.57</ele>
  <time>2026-09-02T22:08:06Z</time>
  <course>209.53</course>
  <speed>0.91</speed>
  <fix>3d</fix>
</trkpt>
<trkpt lat="33.8102002" lon="-118.3939445">
  <ele>-32.255</ele>
  <time>2026-09-02T22:08:06Z</time>
  <course>210.67</course>
  <speed>0.8832326986700617</speed>
  <fix>3d</fix>
</trkpt>
<trkpt lat="33.8102015" lon="-118.3939434">
  <ele>-31.57</ele>
  <time>2026-09-02T22:08:06Z</time>
  <course>209.53</course>
  <speed>0.91</speed>
  <fix>3d</fix>
</trkpt>
<trkpt lat="33.8101995" lon="-118.393945">
  <ele>-32.224</ele>
  <time>2026-09-02T22:08:06Z</time>
  <course>210.67</course>
  <speed>0.8832326986700617</speed>
  <fix>3d</fix>
</trkpt>
<trkpt lat="33.8102" lon="-118.3939444">
  <ele>-31.52</ele>
  <time>2026-09-02T22:08:06Z</time>
  <course>209.53</course>
  <speed>0.91</speed>
  <fix>3d</fix>
</trkpt>
<trkpt lat="33.8101987" lon="-118.3939455">
  <ele>-32.188</ele>
  <time>2026-09-02T22:08:06Z</time>
  <course>210.67</course>
  <speed>0.8832326986700617</speed>
  <fix>3d</fix>
</trkpt>
<trkpt lat="33.8102" lon="-118.3939444">
  <ele>-31.52</ele>
  <time>2026-09-02T22:08:06Z</time>
  <course>209.53</course>
  <speed>0.91</speed>
  <fix>3d</fix>
</trkpt>
<trkpt lat="33.810198" lon="-118.393946">
  <ele>-32.153</ele>
  <time>2026-09-02T22:08:06Z</time>
  <course>210.69</course>
  <speed>0.8832326986700617</speed>
  <fix>3d</fix>
</trkpt>
<trkpt lat="33.8101986" lon="-118.3939454">
  <ele>-31.46</ele>
  <time>2026-09-02T22:08:06Z</time>
  <course>209.55</course>
  <speed>0.91</speed>
  <fix>3d</fix>
</trkpt>
<trkpt lat="33.8101973" lon="-118.3939465">
  <ele>-32.118</ele>
  <time>2026-09-02T22:08:06Z</time>
  <course>210.71</course>
  <speed>0.8832326986700617</speed>
  <fix>3d</fix>
</trkpt>
<trkpt lat="33.8101986" lon="-118.3939454">
  <ele>-31.46</ele>
  <time>2026-09-02T22:08:06Z</time>
  <course>209.55</course>
  <speed>0.91</speed>
  <fix>3d</fix>
</trkpt>
<trkpt lat="33.8101966" lon="-118.393947">
  <ele>-32.083</ele>
  <time>2026-09-02T22:08:06Z</time>
  <course>210.72</course>
  <speed>0.8918520056601319</speed>
  <fix>3d</fix>
</trkpt>
<trkpt lat="33.8101972" lon="-118.3939464">
  <ele>-31.39</ele>
  <time>2026-09-02T22:08:06Z</time>
  <course>209.56</course>
  <speed>0.91</speed>
  <fix>3d</fix>
</trkpt>
<trkpt lat="33.8101958" lon="-118.3939475">
  <ele>-32.048</ele>
  <time>2026-09-02T22:08:06Z</time>
  <course>210.72</course>
  <speed>0.8918520056601319</speed>
  <fix>3d</fix>
</trkpt>
<trkpt lat="33.8101972" lon="-118.3939464">
  <ele>-31.39</ele>
  <time>2026-09-02T22:08:06Z</time>
  <course>209.56</course>
  <speed>0.91</speed>
  <fix>3d</fix>
</trkpt>
<trkpt lat="33.8101951" lon="-118.393948">
  <ele>-32.012</ele>
  <time>2026-09-02T22:08:06Z</time>
  <course>210.72</course>
  <speed>0.8695401083331349</speed>
  <fix>3d</fix>
</trkpt>
<trkpt lat="33.8101957" lon="-118.3939474">
  <ele>-31.32</ele>
  <time>2026-09-02T22:08:06Z</time>
  <course>209.56</course>
  <speed>0.91</speed>
  <fix>3d</fix>
</trkpt>
<trkpt lat="33.8101945" lon="-118.3939484">
  <ele>-31.976</ele>
  <time>2026-09-02T22:08:06Z</time>
  <course>210.72</course>
  <speed>0.8249242389456137</speed>
  <fix>3d</fix>
</trkpt>
<trkpt lat="33.8101957" lon="-118.3939474">
  <ele>-31.32</ele>
  <time>2026-09-02T22:08:06Z</time>
  <course>209.56</course>
  <speed>0.91</speed>
  <fix>3d</fix>
</trkpt>
<trkpt lat="33.8101938" lon="-118.3939489">
  <ele>-31.94</ele>
  <time>2026-09-02T22:08:06Z</time>
  <course>210.74</course>
  <speed>0.8386298349093002</speed>
  <fix>3d</fix>
</trkpt>
<trkpt lat="33.8101943" lon="-118.3939483">
  <ele>-31.25</ele>
  <time>2026-09-02T22:08:06Z</time>
  <course>209.56</course>
  <speed>0.88</speed>
  <fix>3d</fix>
</trkpt>
<trkpt lat="33.8101931" lon="-118.3939494">
  <ele>-31.904</ele>
  <time>2026-09-02T22:08:06Z</time>
  <course>210.75</course>
  <speed>0.8472307831990054</speed>
  <fix>3d</fix>
</trkpt>
<trkpt lat="33.8101943" lon="-118.3939483">
  <ele>-31.25</ele>
  <time>2026-09-02T22:08:06Z</time>
  <course>209.56</course>
  <speed>0.88</speed>
  <fix>3d</fix>
</trkpt>
<trkpt lat="33.8101924" lon="-118.3939498">
  <ele>-31.87</ele>
  <time>2026-09-02T22:08:06Z</time>
  <course>210.76</course>
  <speed>0.8609297300012354</speed>
  <fix>3d</fix>
</trkpt>
<trkpt lat="33.810193" lon="-118.3939492">
  <ele>-31.18</ele>
  <time>2026-09-02T22:08:06Z</time>
  <course>209.58</course>
  <speed>0.86</speed>
  <fix>3d</fix>
</trkpt>
<trkpt lat="33.8101917" lon="-118.3939503">
  <ele>-31.838</ele>
  <time>2026-09-02T22:08:06Z</time>
  <course>210.76</course>
  <speed>0.8609297300012354</speed>
  <fix>3d</fix>
</trkpt>
<trkpt lat="33.810193" lon="-118.3939492">
  <ele>-31.18</ele>
  <time>2026-09-02T22:08:06Z</time>
  <course>209.58</course>
  <speed>0.86</speed>
  <fix>3d</fix>
</trkpt>
<trkpt lat="33.810191" lon="-118.3939508">
  <ele>-31.808</ele>
  <time>2026-09-02T22:08:06Z</time>
  <course>210.77</course>
  <speed>0.8695401083331349</speed>
  <fix>3d</fix>
</trkpt>
<trkpt lat="33.8101915" lon="-118.3939502">
  <ele>-31.11</ele>
  <time>2026-09-02T22:08:06Z</time>
  <course>209.6</course>
  <speed>0.88</speed>
  <fix>3d</fix>
</trkpt>
<trkpt lat="33.8101903" lon="-118.3939513">
  <ele>-31.778</ele>
  <time>2026-09-02T22:08:06Z</time>
  <course>210.77</course>
  <speed>0.8746427842267951</speed>
  <fix>3d</fix>
</trkpt>
<trkpt lat="33.8101915" lon="-118.3939502">
  <ele>-31.11</ele>
  <time>2026-09-02T22:08:06Z</time>
  <course>209.6</course>
  <speed>0.88</speed>
  <fix>3d</fix>
</trkpt>
<trkpt lat="33.8101896" lon="-118.3939517">
  <ele>-31.746</ele>
  <time>2026-09-02T22:08:06Z</time>
  <course>210.79</course>
  <speed>0.8832326986700617</speed>
  <fix>3d</fix>
</trkpt>
<trkpt lat="33.8101902" lon="-118.3939511">
  <ele>-31.04</ele>
  <time>2026-09-02T22:08:06Z</time>
  <course>209.63</course>
  <speed>0.89</speed>
  <fix>3d</fix>
</trkpt>
<trkpt lat="33.8101889" lon="-118.3939522">
  <ele>-31.714</ele>
  <time>2026-09-02T22:08:06Z</time>
  <course>210.8</course>
  <speed>0.8832326986700617</speed>
  <fix>3d</fix>
</trkpt>
<trkpt lat="33.8101902" lon="-118.3939511">
  <ele>-31.04</ele>
  <time>2026-09-02T22:08:06Z</time>
  <course>209.63</course>
  <speed>0.89</speed>
  <fix>3d</fix>
</trkpt>
<trkpt lat="33.8101881" lon="-118.3939527">
  <ele>-31.683</ele>
  <time>2026-09-02T22:08:06Z</time>
  <course>210.81</course>
  <speed>0.8832326986700617</speed>
  <fix>3d</fix>
</trkpt>
<trkpt lat="33.8101888" lon="-118.3939521">
  <ele>-30.98</ele>
  <time>2026-09-02T22:08:06Z</time>
  <course>209.66</course>
  <speed>0.9</speed>
  <fix>3d</fix>
</trkpt>
<trkpt lat="33.8101874" lon="-118.3939532">
  <ele>-31.649</ele>
  <time>2026-09-02T22:08:06Z</time>
  <course>210.82</course>
  <speed>0.8969392398596462</speed>
  <fix>3d</fix>
</trkpt>
<trkpt lat="33.8101888" lon="-118.3939521">
  <ele>-30.98</ele>
  <time>2026-09-02T22:08:06Z</time>
  <course>209.66</course>
  <speed>0.9</speed>
  <fix>3d</fix>
</trkpt>
<trkpt lat="33.8101867" lon="-118.3939537">
  <ele>-31.615</ele>
  <time>2026-09-02T22:08:06Z</time>
  <course>210.82</course>
  <speed>0.8746427842267951</speed>
  <fix>3d</fix>
</trkpt>
<trkpt lat="33.8101873" lon="-118.3939531">
  <ele>-30.92</ele>
  <time>2026-09-02T22:08:06Z</time>
  <course>209.67</course>
  <speed>0.91</speed>
  <fix>3d</fix>
</trkpt>
<trkpt lat="33.810186" lon="-118.3939542">
  <ele>-31.58</ele>
  <time>2026-09-02T22:08:06Z</time>
  <course>210.83</course>
  <speed>0.8249242389456137</speed>
  <fix>3d</fix>
</trkpt>
<trkpt lat="33.8101873" lon="-118.3939531">
  <ele>-30.92</ele>
  <time>2026-09-02T22:08:06Z</time>
  <course>209.67</course>
  <speed>0.91</speed>
  <fix>3d</fix>
</trkpt>
<trkpt lat="33.8101854" lon="-118.3939546">
  <ele>-31.542</ele>
  <time>2026-09-02T22:08:06Z</time>
  <course>210.87</course>
  <speed>0.8472307831990054</speed>
  <fix>3d</fix>
</trkpt>
<trkpt lat="33.810186" lon="-118.393954">
  <ele>-30.85</ele>
  <time>2026-09-02T22:08:06Z</time>
  <course>209.69</course>
  <speed>0.88</speed>
  <fix>3d</fix>
</trkpt>
<trkpt lat="33.8101847" lon="-118.3939551">
  <ele>-31.504</ele>
  <time>2026-09-02T22:08:06Z</time>
  <course>210.89</course>
  <speed>0.8523496934944014</speed>
  <fix>3d</fix>
</trkpt>
<trkpt lat="33.810186" lon="-118.393954">
  <ele>-30.85</ele>
  <time>2026-09-02T22:08:06Z</time>
  <course>209.69</course>
  <speed>0.88</speed>
  <fix>3d</fix>
</trkpt>
<trkpt lat="33.810184" lon="-118.3939556">
  <ele>-31.466</ele>
  <time>2026-09-02T22:08:06Z</time>
  <course>210.89</course>
  <speed>0.8609297300012354</speed>
  <fix>3d</fix>
</trkpt>
<trkpt lat="33.8101846" lon="-118.3939549">
  <ele>-30.78</ele>
  <time>2026-09-02T22:08:06Z</time>
  <course>209.7</course>
  <speed>0.87</speed>
  <fix>3d</fix>
</trkpt>
<trkpt lat="33.8101833" lon="-118.3939561">
  <ele>-31.431</ele>
  <time>2026-09-02T22:08:06Z</time>
  <course>210.87</course>
  <speed>0.8746427842267951</speed>
  <fix>3d</fix>
</trkpt>
<trkpt lat="33.8101846" lon="-118.3939549">
  <ele>-30.78</ele>
  <time>2026-09-02T22:08:06Z</time>
  <course>209.7</course>
  <speed>0.87</speed>
  <fix>3d</fix>
</trkpt>
<trkpt lat="33.8101826" lon="-118.3939565">
  <ele>-31.397</ele>
  <time>2026-09-02T22:08:06Z</time>
  <course>210.86</course>
  <speed>0.8832326986700617</speed>
  <fix>3d</fix>
</trkpt>
<trkpt lat="33.8101833" lon="-118.3939559">
  <ele>-30.71</ele>
  <time>2026-09-02T22:08:06Z</time>
  <course>209.7</course>
  <speed>0.89</speed>
  <fix>3d</fix>
</trkpt>
<trkpt lat="33.8101819" lon="-118.393957">
  <ele>-31.366</ele>
  <time>2026-09-02T22:08:06Z</time>
  <course>210.85</course>
  <speed>0.8832326986700617</speed>
  <fix>3d</fix>
</trkpt>
<trkpt lat="33.8101833" lon="-118.3939559">
  <ele>-30.71</ele>
  <time>2026-09-02T22:08:06Z</time>
  <course>209.7</course>
  <speed>0.89</speed>
  <fix>3d</fix>
</trkpt>
<trkpt lat="33.8101811" lon="-118.3939575">
  <ele>-31.336</ele>
  <time>2026-09-02T22:08:06Z</time>
  <course>210.84</course>
  <speed>0.8969392398596462</speed>
  <fix>3d</fix>
</trkpt>
<trkpt lat="33.8101818" lon="-118.3939569">
  <ele>-30.65</ele>
  <time>2026-09-02T22:08:06Z</time>
  <course>209.69</course>
  <speed>0.9</speed>
  <fix>3d</fix>
</trkpt>
<trkpt lat="33.8101804" lon="-118.393958">
  <ele>-31.304</ele>
  <time>2026-09-02T22:08:06Z</time>
  <course>210.8</course>
  <speed>0.8969392398596462</speed>
  <fix>3d</fix>
</trkpt>
<trkpt lat="33.8101818" lon="-118.3939569">
  <ele>-30.65</ele>
  <time>2026-09-02T22:08:06Z</time>
  <course>209.69</course>
  <speed>0.9</speed>
  <fix>3d</fix>
</trkpt>
<trkpt lat="33.8101797" lon="-118.3939585">
  <ele>-31.275</ele>
  <time>2026-09-02T22:08:06Z</time>
  <course>210.77</course>
  <speed>0.9055385138137417</speed>
  <fix>3d</fix>
</trkpt>
<trkpt lat="33.8101804" lon="-118.3939578">
  <ele>-30.59</ele>
  <time>2026-09-02T22:08:06Z</time>
  <course>209.64</course>
  <speed>0.91</speed>
  <fix>3d</fix>
</trkpt>
<trkpt lat="33.810179" lon="-118.393959">
  <ele>-31.247</ele>
  <time>2026-09-02T22:08:06Z</time>
  <course>210.75</course>
  <speed>0.9055385138137417</speed>
  <fix>3d</fix>
</trkpt>
<trkpt lat="33.8101804" lon="-118.3939578">
  <ele>-30.59</ele>
  <time>2026-09-02T22:08:06Z</time>
  <course>209.64</course>
  <speed>0.91</speed>
  <fix>3d</fix>
</trkpt>
<trkpt lat="33.8101782" lon="-118.3939595">
  <ele>-31.22</ele>
  <time>2026-09-02T22:08:06Z</time>
  <course>210.74</course>
  <speed>0.9055385138137417</speed>
  <fix>3d</fix>
</trkpt>
<trkpt lat="33.810179" lon="-118.3939588">
  <ele>-30.52</ele>
  <time>2026-09-02T22:08:06Z</time>
  <course>209.63</course>
  <speed>0.92</speed>
  <fix>3d</fix>
</trkpt>
<trkpt lat="33.8101775" lon="-118.39396">
  <ele>-31.193</ele>
  <time>2026-09-02T22:08:06Z</time>
  <course>210.73</course>
  <speed>0.9192388155425119</speed>
  <fix>3d</fix>
</trkpt>
<trkpt lat="33.810179" lon="-118.3939588">
  <ele>-30.52</ele>
  <time>2026-09-02T22:08:06Z</time>
  <course>209.63</course>
  <speed>0.92</speed>
  <fix>3d</fix>
</trkpt>
<trkpt lat="33.8101768" lon="-118.3939605">
  <ele>-31.167</ele>
  <time>2026-09-02T22:08:06Z</time>
  <course>210.73</course>
  <speed>0.9192388155425119</speed>
  <fix>3d</fix>
</trkpt>
<trkpt lat="33.8101775" lon="-118.3939598">
  <ele>-30.47</ele>
  <time>2026-09-02T22:08:06Z</time>
  <course>209.65</course>
  <speed>0.93</speed>
  <fix>3d</fix>
</trkpt>
<trkpt lat="33.810176" lon="-118.393961">
  <ele>-31.142</ele>
  <time>2026-09-02T22:08:06Z</time>
  <course>210.72</course>
  <speed>0.9192388155425119</speed>
  <fix>3d</fix>
</trkpt>
<trkpt lat="33.8101775" lon="-118.3939598">
  <ele>-30.47</ele>
  <time>2026-09-02T22:08:06Z</time>
  <course>209.65</course>
  <speed>0.93</speed>
  <fix>3d</fix>
</trkpt>
<trkpt lat="33.8101753" lon="-118.3939615">
  <ele>-31.116</ele>
  <time>2026-09-02T22:08:06Z</time>
  <course>210.72</course>
  <speed>0.9192388155425119</speed>
  <fix>3d</fix>
</trkpt>
<trkpt lat="33.8101761" lon="-118.3939608">
  <ele>-30.42</ele>
  <time>2026-09-02T22:08:06Z</time>
  <course>209.68</course>
  <speed>0.94</speed>
  <fix>3d</fix>
</trkpt>
<trkpt lat="33.8101746" lon="-118.393962">
  <ele>-31.088</ele>
  <time>2026-09-02T22:08:06Z</time>
  <course>210.72</course>
  <speed>0.9192388155425119</speed>
  <fix>3d</fix>
</trkpt>
<trkpt lat="33.8101761" lon="-118.3939608">
  <ele>-30.42</ele>
  <time>2026-09-02T22:08:06Z</time>
  <course>209.68</course>
  <speed>0.94</speed>
  <fix>3d</fix>
</trkpt>
<trkpt lat="33.8101738" lon="-118.3939625">
  <ele>-31.057</ele>
  <time>2026-09-02T22:08:06Z</time>
  <course>210.71</course>
  <speed>0.9278469701410895</speed>
  <fix>3d</fix>
</trkpt>
<trkpt lat="33.8101746" lon="-118.3939618">
  <ele>-30.37</ele>
  <time>2026-09-02T22:08:06Z</time>
  <course>209.68</course>
  <speed>0.94</speed>
  <fix>3d</fix>
</trkpt>
<trkpt lat="33.8101731" lon="-118.393963">
  <ele>-31.025</ele>
  <time>2026-09-02T22:08:06Z</time>
  <course>210.7</course>
  <speed>0.9278469701410895</speed>
  <fix>3d</fix>
</trkpt>
<trkpt lat="33.8101746" lon="-118.3939618">
  <ele>-30.37</ele>
  <time>2026-09-02T22:08:06Z</time>
  <course>209.68</course>
  <speed>0.94</speed>
  <fix>3d</fix>
</trkpt>
<trkpt lat="33.8101724" lon="-118.3939635">
  <ele>-30.992</ele>
  <time>2026-09-02T22:08:06Z</time>
  <course>210.69</course>
  <speed>0.9278469701410895</speed>
  <fix>3d</fix>
</trkpt>
<trkpt lat="33.8101731" lon="-118.3939629">
  <ele>-30.32</ele>
  <time>2026-09-02T22:08:06Z</time>
  <course>209.66</course>
  <speed>0.95</speed>
  <fix>3d</fix>
</trkpt>
<trkpt lat="33.8101716" lon="-118.393964">
  <ele>-30.957</ele>
  <time>2026-09-02T22:08:06Z</time>
  <course>210.68</course>
  <speed>0.9278469701410895</speed>
  <fix>3d</fix>
</trkpt>
<trkpt lat="33.8101731" lon="-118.3939629">
  <ele>-30.32</ele>
  <time>2026-09-02T22:08:06Z</time>
  <course>209.66</course>
  <speed>0.95</speed>
  <fix>3d</fix>
</trkpt>
<trkpt lat="33.8101709" lon="-118.3939645">
  <ele>-30.924</ele>
  <time>2026-09-02T22:08:06Z</time>
  <course>210.66</course>
  <speed>0.9278469701410895</speed>
  <fix>3d</fix>
</trkpt>
<trkpt lat="33.8101716" lon="-118.3939639">
  <ele>-30.25</ele>
  <time>2026-09-02T22:08:06Z</time>
  <course>209.62</course>
  <speed>0.95</speed>
  <fix>3d</fix>
</trkpt>
<trkpt lat="33.8101701" lon="-118.3939651">
  <ele>-30.892</ele>
  <time>2026-09-02T22:08:06Z</time>
  <course>210.64</course>
  <speed>0.9278469701410895</speed>
  <fix>3d</fix>
</trkpt>
<trkpt lat="33.8101716" lon="-118.3939639">
  <ele>-30.25</ele>
  <time>2026-09-02T22:08:06Z</time>
  <course>209.62</course>
  <speed>0.95</speed>
  <fix>3d</fix>
</trkpt>
<trkpt lat="33.8101694" lon="-118.3939656">
  <ele>-30.861</ele>
  <time>2026-09-02T22:08:06Z</time>
  <course>210.61</course>
  <speed>0.9278469701410895</speed>
  <fix>3d</fix>
</trkpt>
<trkpt lat="33.8101701" lon="-118.3939649">
  <ele>-30.18</ele>
  <time>2026-09-02T22:08:06Z</time>
  <course>209.59</course>
  <speed>0.95</speed>
  <fix>3d</fix>
</trkpt>
<trkpt lat="33.8101686" lon="-118.3939661">
  <ele>-30.83</ele>
  <time>2026-09-02T22:08:06Z</time>
  <course>210.59</course>
  <speed>0.9278469701410895</speed>
  <fix>3d</fix>
</trkpt>
<trkpt lat="33.8101701" lon="-118.3939649">
  <ele>-30.18</ele>
  <time>2026-09-02T22:08:06Z</time>
  <course>209.59</course>
  <speed>0.95</speed>
  <fix>3d</fix>
</trkpt>
<trkpt lat="33.8101679" lon="-118.3939666">
  <ele>-30.798</ele>
  <time>2026-09-02T22:08:06Z</time>
  <course>210.59</course>
  <speed>0.9278469701410895</speed>
  <fix>3d</fix>
</trkpt>
<trkpt lat="33.8101686" lon="-118.3939659">
  <ele>-30.13</ele>
  <time>2026-09-02T22:08:06Z</time>
  <course>209.58</course>
  <speed>0.95</speed>
  <fix>3d</fix>
</trkpt>
<trkpt lat="33.8101671" lon="-118.3939671">
  <ele>-30.764</ele>
  <time>2026-09-02T22:08:06Z</time>
  <course>210.58</course>
  <speed>0.9055385138137417</speed>
  <fix>3d</fix>
</trkpt>
<trkpt lat="33.8101686" lon="-118.3939659">
  <ele>-30.13</ele>
  <time>2026-09-02T22:08:06Z</time>
  <course>209.58</course>
  <speed>0.95</speed>
  <fix>3d</fix>
</trkpt>
<trkpt lat="33.8101665" lon="-118.3939676">
  <ele>-30.731</ele>
  <time>2026-09-02T22:08:06Z</time>
  <course>210.6</course>
  <speed>0.8609297300012354</speed>
  <fix>3d</fix>
</trkpt>
<trkpt lat="33.8101671" lon="-118.3939669">
  <ele>-30.06</ele>
  <time>2026-09-02T22:08:06Z</time>
  <course>209.62</course>
  <speed>0.91</speed>
  <fix>3d</fix>
</trkpt>
<trkpt lat="33.8101658" lon="-118.393968">
  <ele>-30.697</ele>
  <time>2026-09-02T22:08:06Z</time>
  <course>210.65</course>
  <speed>0.8746427842267951</speed>
  <fix>3d</fix>
</trkpt>
<trkpt lat="33.8101671" lon="-118.3939669">
  <ele>-30.06</ele>
  <time>2026-09-02T22:08:06Z</time>
  <course>209.62</course>
  <speed>0.91</speed>
  <fix>3d</fix>
</trkpt>
<trkpt lat="33.8101651" lon="-118.3939685">
  <ele>-30.66</ele>
  <time>2026-09-02T22:08:06Z</time>
  <course>210.69</course>
  <speed>0.8832326986700617</speed>
  <fix>3d</fix>
</trkpt>
<trkpt lat="33.8101657" lon="-118.3939679">
  <ele>-30.0</ele>
  <time>2026-09-02T22:08:06Z</time>
  <course>209.68</course>
  <speed>0.89</speed>
  <fix>3d</fix>
</trkpt>
<trkpt lat="33.8101644" lon="-118.393969">
  <ele>-30.625</ele>
  <time>2026-09-02T22:08:06Z</time>
  <course>210.71</course>
  <speed>0.8969392398596462</speed>
  <fix>3d</fix>
</trkpt>
<trkpt lat="33.8101657" lon="-118.3939679">
  <ele>-30.0</ele>
  <time>2026-09-02T22:08:06Z</time>
  <course>209.68</course>
  <speed>0.89</speed>
  <fix>3d</fix>
</trkpt>
<trkpt lat="33.8101636" lon="-118.3939695">
  <ele>-30.591</ele>
  <time>2026-09-02T22:08:06Z</time>
  <course>210.71</course>
  <speed>0.8969392398596462</speed>
  <fix>3d</fix>
</trkpt>
<trkpt lat="33.8101643" lon="-118.3939689">
  <ele>-29.93</ele>
  <time>2026-09-02T22:08:06Z</time>
  <course>209.69</course>
  <speed>0.91</speed>
  <fix>3d</fix>
</trkpt>
<trkpt lat="33.8101629" lon="-118.39397">
  <ele>-30.556</ele>
  <time>2026-09-02T22:08:06Z</time>
  <course>210.7</course>
  <speed>0.9055385138137417</speed>
  <fix>3d</fix>
</trkpt>
<trkpt lat="33.8101643" lon="-118.3939689">
  <ele>-29.93</ele>
  <time>2026-09-02T22:08:06Z</time>
  <course>209.69</course>
  <speed>0.91</speed>
  <fix>3d</fix>
</trkpt>
<trkpt lat="33.8101622" lon="-118.3939705">
  <ele>-30.519</ele>
  <time>2026-09-02T22:08:06Z</time>
  <course>210.68</course>
  <speed>0.9055385138137417</speed>
  <fix>3d</fix>
</trkpt>
<trkpt lat="33.8101628" lon="-118.3939699">
  <ele>-29.86</ele>
  <time>2026-09-02T22:08:06Z</time>
  <course>209.66</course>
  <speed>0.93</speed>
  <fix>3d</fix>
</trkpt>
<trkpt lat="33.8101614" lon="-118.393971">
  <ele>-30.479</ele>
  <time>2026-09-02T22:08:06Z</time>
  <course>210.66</course>
  <speed>0.914166286842826</speed>
  <fix>3d</fix>
</trkpt>
<trkpt lat="33.8101628" lon="-118.3939699">
  <ele>-29.86</ele>
  <time>2026-09-02T22:08:06Z</time>
  <course>209.66</course>
  <speed>0.93</speed>
  <fix>3d</fix>
</trkpt>
<trkpt lat="33.8101607" lon="-118.3939715">
  <ele>-30.439</ele>
  <time>2026-09-02T22:08:06Z</time>
  <course>210.64</course>
  <speed>0.9192388155425119</speed>
  <fix>3d</fix>
</trkpt>
<trkpt lat="33.8101614" lon="-118.3939709">
  <ele>-29.79</ele>
  <time>2026-09-02T22:08:06Z</time>
  <course>209.62</course>
  <speed>0.94</speed>
  <fix>3d</fix>
</trkpt>
<trkpt lat="33.81016" lon="-118.393972">
  <ele>-30.399</ele>
  <time>2026-09-02T22:08:06Z</time>
  <course>210.62</course>
  <speed>0.9192388155425119</speed>
  <fix>3d</fix>
</trkpt>
<trkpt lat="33.8101614" lon="-118.3939709">
  <ele>-29.79</ele>
  <time>2026-09-02T22:08:06Z</time>
  <course>209.62</course>
  <speed>0.94</speed>
  <fix>3d</fix>
</trkpt>
<trkpt lat="33.8101592" lon="-118.3939725">
  <ele>-30.36</ele>
  <time>2026-09-02T22:08:06Z</time>
  <course>210.61</course>
  <speed>0.9192388155425119</speed>
  <fix>3d</fix>
</trkpt>
<trkpt lat="33.8101599" lon="-118.3939719">
  <ele>-29.71</ele>
  <time>2026-09-02T22:08:06Z</time>
  <course>209.59</course>
  <speed>0.94</speed>
  <fix>3d</fix>
</trkpt>
<trkpt lat="33.8101585" lon="-118.393973">
  <ele>-30.321</ele>
  <time>2026-09-02T22:08:06Z</time>
  <course>210.58</course>
  <speed>0.9192388155425119</speed>
  <fix>3d</fix>
</trkpt>
<trkpt lat="33.8101599" lon="-118.3939719">
  <ele>-29.71</ele>
  <time>2026-09-02T22:08:06Z</time>
  <course>209.59</course>
  <speed>0.94</speed>
  <fix>3d</fix>
</trkpt>
<trkpt lat="33.8101577" lon="-118.3939735">
  <ele>-30.282</ele>
  <time>2026-09-02T22:08:06Z</time>
  <course>210.57</course>
  <speed>0.9278469701410895</speed>
  <fix>3d</fix>
</trkpt>
<trkpt lat="33.8101584" lon="-118.3939729">
  <ele>-29.63</ele>
  <time>2026-09-02T22:08:06Z</time>
  <course>209.56</course>
  <speed>0.95</speed>
  <fix>3d</fix>
</trkpt>
<trkpt lat="33.810157" lon="-118.3939741">
  <ele>-30.246</ele>
  <time>2026-09-02T22:08:06Z</time>
  <course>210.56</course>
  <speed>0.9278469701410895</speed>
  <fix>3d</fix>
</trkpt>
<trkpt lat="33.8101584" lon="-118.3939729">
  <ele>-29.63</ele>
  <time>2026-09-02T22:08:06Z</time>
  <course>209.56</course>
  <speed>0.95</speed>
  <fix>3d</fix>
</trkpt>
<trkpt lat="33.8101562" lon="-118.3939746">
  <ele>-30.212</ele>
  <time>2026-09-02T22:08:06Z</time>
  <course>210.55</course>
  <speed>0.9278469701410895</speed>
  <fix>3d</fix>
</trkpt>
<trkpt lat="33.8101569" lon="-118.3939739">
  <ele>-29.56</ele>
  <time>2026-09-02T22:08:06Z</time>
  <course>209.57</course>
  <speed>0.95</speed>
  <fix>3d</fix>
</trkpt>
<trkpt lat="33.8101555" lon="-118.3939751">
  <ele>-30.18</ele>
  <time>2026-09-02T22:08:06Z</time>
  <course>210.56</course>
  <speed>0.9278469701410895</speed>
  <fix>3d</fix>
</trkpt>
<trkpt lat="33.8101569" lon="-118.3939739">
  <ele>-29.56</ele>
  <time>2026-09-02T22:08:06Z</time>
  <course>209.57</course>
  <speed>0.95</speed>
  <fix>3d</fix>
</trkpt>
<trkpt lat="33.8101547" lon="-118.3939756">
  <ele>-30.147</ele>
  <time>2026-09-02T22:08:06Z</time>
  <course>210.57</course>
  <speed>0.9278469701410895</speed>
  <fix>3d</fix>
</trkpt>
<trkpt lat="33.8101554" lon="-118.3939749">
  <ele>-29.49</ele>
  <time>2026-09-02T22:08:06Z</time>
  <course>209.6</course>
  <speed>0.95</speed>
  <fix>3d</fix>
</trkpt>
<trkpt lat="33.810154" lon="-118.3939761">
  <ele>-30.117</ele>
  <time>2026-09-02T22:08:06Z</time>
  <course>210.59</course>
  <speed>0.9278469701410895</speed>
  <fix>3d</fix>
</trkpt>
<trkpt lat="33.8101554" lon="-118.3939749">
  <ele>-29.49</ele>
  <time>2026-09-02T22:08:06Z</time>
  <course>209.6</course>
  <speed>0.95</speed>
  <fix>3d</fix>
</trkpt>
<trkpt lat="33.8101532" lon="-118.3939766">
  <ele>-30.088</ele>
  <time>2026-09-02T22:08:06Z</time>
  <course>210.61</course>
  <speed>0.9278469701410895</speed>
  <fix>3d</fix>
</trkpt>
<trkpt lat="33.8101539" lon="-118.393976">
  <ele>-29.43</ele>
  <time>2026-09-02T22:08:06Z</time>
  <course>209.66</course>
  <speed>0.96</speed>
  <fix>3d</fix>
</trkpt>
<trkpt lat="33.8101525" lon="-118.3939771">
  <ele>-30.057</ele>
  <time>2026-09-02T22:08:06Z</time>
  <course>210.63</course>
  <speed>0.9278469701410895</speed>
  <fix>3d</fix>
</trkpt>
<trkpt lat="33.8101539" lon="-118.393976">
  <ele>-29.43</ele>
  <time>2026-09-02T22:08:06Z</time>
  <course>209.66</course>
  <speed>0.96</speed>
  <fix>3d</fix>
</trkpt>
<trkpt lat="33.8101517" lon="-118.3939776">
  <ele>-30.025</ele>
  <time>2026-09-02T22:08:06Z</time>
  <course>210.64</course>
  <speed>0.9278469701410895</speed>
  <fix>3d</fix>
</trkpt>
<trkpt lat="33.8101524" lon="-118.393977">
  <ele>-29.36</ele>
  <time>2026-09-02T22:08:06Z</time>
  <course>209.7</course>
  <speed>0.96</speed>
  <fix>3d</fix>
</trkpt>
<trkpt lat="33.810151" lon="-118.3939782">
  <ele>-29.993</ele>
  <time>2026-09-02T22:08:06Z</time>
  <course>210.63</course>
  <speed>0.9278469701410895</speed>
  <fix>3d</fix>
</trkpt>
<trkpt lat="33.8101524" lon="-118.393977">
  <ele>-29.36</ele>
  <time>2026-09-02T22:08:06Z</time>
  <course>209.7</course>
  <speed>0.96</speed>
  <fix>3d</fix>
</trkpt>
<trkpt lat="33.8101502" lon="-118.3939787">
  <ele>-29.962</ele>
  <time>2026-09-02T22:08:06Z</time>
  <course>210.63</course>
  <speed>0.9278469701410895</speed>
  <fix>3d</fix>
</trkpt>
<trkpt lat="33.8101509" lon="-118.393978">
  <ele>-29.31</ele>
  <time>2026-09-02T22:08:06Z</time>
  <course>209.68</course>
  <speed>0.96</speed>
  <fix>3d</fix>
</trkpt>
<trkpt lat="33.8101495" lon="-118.3939792">
  <ele>-29.932</ele>
  <time>2026-09-02T22:08:06Z</time>
  <course>210.62</course>
  <speed>0.9055385138137417</speed>
  <fix>3d</fix>
</trkpt>
<trkpt lat="33.8101509" lon="-118.393978">
  <ele>-29.31</ele>
  <time>2026-09-02T22:08:06Z</time>
  <course>209.68</course>
  <speed>0.96</speed>
  <fix>3d</fix>
</trkpt>
<trkpt lat="33.8101488" lon="-118.3939797">
  <ele>-29.902</ele>
  <time>2026-09-02T22:08:06Z</time>
  <course>210.65</course>
  <speed>0.8609297300012354</speed>
  <fix>3d</fix>
</trkpt>
<trkpt lat="33.8101494" lon="-118.3939791">
  <ele>-29.25</ele>
  <time>2026-09-02T22:08:06Z</time>
  <course>209.71</course>
  <speed>0.92</speed>
  <fix>3d</fix>
</trkpt>
<trkpt lat="33.8101481" lon="-118.3939801">
  <ele>-29.873</ele>
  <time>2026-09-02T22:08:06Z</time>
  <course>210.7</course>
  <speed>0.8746427842267951</speed>
  <fix>3d</fix>
</trkpt>
<trkpt lat="33.8101494" lon="-118.3939791">
  <ele>-29.25</ele>
  <time>2026-09-02T22:08:06Z</time>
  <course>209.71</course>
  <speed>0.92</speed>
  <fix>3d</fix>
</trkpt>
<trkpt lat="33.8101474" lon="-118.3939806">
  <ele>-29.844</ele>
  <time>2026-09-02T22:08:06Z</time>
  <course>210.72</course>
  <speed>0.8918520056601319</speed>
  <fix>3d</fix>
</trkpt>
<trkpt lat="33.810148" lon="-118.39398">
  <ele>-29.18</ele>
  <time>2026-09-02T22:08:06Z</time>
  <course>209.72</course>
  <speed>0.89</speed>
  <fix>3d</fix>
</trkpt>
<trkpt lat="33.8101466" lon="-118.3939811">
  <ele>-29.816</ele>
  <time>2026-09-02T22:08:06Z</time>
  <course>210.7</course>
  <speed>0.8969392398596462</speed>
  <fix>3d</fix>
</trkpt>
<trkpt lat="33.810148" lon="-118.39398">
  <ele>-29.18</ele>
  <time>2026-09-02T22:08:06Z</time>
  <course>209.72</course>
  <speed>0.89</speed>
  <fix>3d</fix>
</trkpt>
<trkpt lat="33.8101459" lon="-118.3939816">
  <ele>-29.788</ele>
  <time>2026-09-02T22:08:06Z</time>
  <course>210.68</course>
  <speed>0.9055385138137417</speed>
  <fix>3d</fix>
</trkpt>
<trkpt lat="33.8101466" lon="-118.393981">
  <ele>-29.13</ele>
  <time>2026-09-02T22:08:06Z</time>
  <course>209.67</course>
  <speed>0.92</speed>
  <fix>3d</fix>
</trkpt>
<trkpt lat="33.8101452" lon="-118.3939821">
  <ele>-29.759</ele>
  <time>2026-09-02T22:08:06Z</time>
  <course>210.65</course>
  <speed>0.9055385138137417</speed>
  <fix>3d</fix>
</trkpt>
<trkpt lat="33.8101466" lon="-118.393981">
  <ele>-29.13</ele>
  <time>2026-09-02T22:08:06Z</time>
  <course>209.67</course>
  <speed>0.92</speed>
  <fix>3d</fix>
</trkpt>
<trkpt lat="33.8101444" lon="-118.3939826">
  <ele>-29.731</ele>
  <time>2026-09-02T22:08:06Z</time>
  <course>210.63</course>
  <speed>0.9192388155425119</speed>
  <fix>3d</fix>
</trkpt>
<trkpt lat="33.8101451" lon="-118.393982">
  <ele>-29.07</ele>
  <time>2026-09-02T22:08:06Z</time>
  <course>209.64</course>
  <speed>0.93</speed>
  <fix>3d</fix>
</trkpt>
<trkpt lat="33.8101437" lon="-118.3939831">
  <ele>-29.702</ele>
  <time>2026-09-02T22:08:06Z</time>
  <course>210.61</course>
  <speed>0.9192388155425119</speed>
  <fix>3d</fix>
</trkpt>
<trkpt lat="33.8101451" lon="-118.393982">
  <ele>-29.07</ele>
  <time>2026-09-02T22:08:06Z</time>
  <course>209.64</course>
  <speed>0.93</speed>
  <fix>3d</fix>
</trkpt>
<trkpt lat="33.810143" lon="-118.3939836">
  <ele>-29.67</ele>
  <time>2026-09-02T22:08:06Z</time>
  <course>210.6</course>
  <speed>0.9278469701410895</speed>
  <fix>3d</fix>
</trkpt>
<trkpt lat="33.8101437" lon="-118.393983">
  <ele>-29.02</ele>
  <time>2026-09-02T22:08:06Z</time>
  <course>209.62</course>
  <speed>0.94</speed>
  <fix>3d</fix>
</trkpt>
<trkpt lat="33.8101422" lon="-118.3939842">
  <ele>-29.638</ele>
  <time>2026-09-02T22:08:06Z</time>
  <course>210.59</course>
  <speed>0.9278469701410895</speed>
  <fix>3d</fix>
</trkpt>
<trkpt lat="33.8101437" lon="-118.393983">
  <ele>-29.02</ele>
  <time>2026-09-02T22:08:06Z</time>
  <course>209.62</course>
  <speed>0.94</speed>
  <fix>3d</fix>
</trkpt>
<trkpt lat="33.8101415" lon="-118.3939847">
  <ele>-29.606</ele>
  <time>2026-09-02T22:08:06Z</time>
  <course>210.58</course>
  <speed>0.9278469701410895</speed>
  <fix>3d</fix>
</trkpt>
<trkpt lat="33.8101422" lon="-118.393984">
  <ele>-28.96</ele>
  <time>2026-09-02T22:08:06Z</time>
  <course>209.6</course>
  <speed>0.95</speed>
  <fix>3d</fix>
</trkpt>
<trkpt lat="33.8101407" lon="-118.3939852">
  <ele>-29.574</ele>
  <time>2026-09-02T22:08:06Z</time>
  <course>210.56</course>
  <speed>0.9278469701410895</speed>
  <fix>3d</fix>
</trkpt>
<trkpt lat="33.8101422" lon="-118.393984">
  <ele>-28.96</ele>
  <time>2026-09-02T22:08:06Z</time>
  <course>209.6</course>
  <speed>0.95</speed>
  <fix>3d</fix>
</trkpt>
<trkpt lat="33.81014" lon="-118.3939857">
  <ele>-29.543</ele>
  <time>2026-09-02T22:08:06Z</time>
  <course>210.55</course>
  <speed>0.9364827814754524</speed>
  <fix>3d</fix>
</trkpt>
<trkpt lat="33.8101407" lon="-118.3939851">
  <ele>-28.9</ele>
  <time>2026-09-02T22:08:06Z</time>
  <course>209.58</course>
  <speed>0.96</speed>
  <fix>3d</fix>
</trkpt>
<trkpt lat="33.8101392" lon="-118.3939862">
  <ele>-29.512</ele>
  <time>2026-09-02T22:08:06Z</time>
  <course>210.54</course>
  <speed>0.9415412895885129</speed>
  <fix>3d</fix>
</trkpt>
<trkpt lat="33.8101407" lon="-118.3939851">
  <ele>-28.9</ele>
  <time>2026-09-02T22:08:06Z</time>
  <course>209.58</course>
  <speed>0.96</speed>
  <fix>3d</fix>
</trkpt>
<trkpt lat="33.8101384" lon="-118.3939867">
  <ele>-29.477</ele>
  <time>2026-09-02T22:08:06Z</time>
  <course>210.52</course>
  <speed>0.9415412895885129</speed>
  <fix>3d</fix>
</trkpt>
<trkpt lat="33.8101391" lon="-118.3939861">
  <ele>-28.84</ele>
  <time>2026-09-02T22:08:06Z</time>
  <course>209.56</course>
  <speed>0.96</speed>
  <fix>3d</fix>
</trkpt>
<trkpt lat="33.8101377" lon="-118.3939873">
  <ele>-29.443</ele>
  <time>2026-09-02T22:08:06Z</time>
  <course>210.5</course>
  <speed>0.9415412895885129</speed>
  <fix>3d</fix>
</trkpt>
<trkpt lat="33.8101391" lon="-118.3939861">
  <ele>-28.84</ele>
  <time>2026-09-02T22:08:06Z</time>
  <course>209.56</course>
  <speed>0.96</speed>
  <fix>3d</fix>
</trkpt>
<trkpt lat="33.8101369" lon="-118.3939878">
  <ele>-29.412</ele>
  <time>2026-09-02T22:08:06Z</time>
  <course>210.49</course>
  <speed>0.9415412895885129</speed>
  <fix>3d</fix>
</trkpt>
<trkpt lat="33.8101376" lon="-118.3939871">
  <ele>-28.77</ele>
  <time>2026-09-02T22:08:06Z</time>
  <course>209.54</course>
  <speed>0.97</speed>
  <fix>3d</fix>
</trkpt>
<trkpt lat="33.8101362" lon="-118.3939883">
  <ele>-29.381</ele>
  <time>2026-09-02T22:08:06Z</time>
  <course>210.49</course>
  <speed>0.9415412895885129</speed>
  <fix>3d</fix>
</trkpt>
<trkpt lat="33.8101376" lon="-118.3939871">
  <ele>-28.77</ele>
  <time>2026-09-02T22:08:06Z</time>
  <course>209.54</course>
  <speed>0.97</speed>
  <fix>3d</fix>
</trkpt>
<trkpt lat="33.8101354" lon="-118.3939888">
  <ele>-29.35</ele>
  <time>2026-09-02T22:08:06Z</time>
  <course>210.5</course>
  <speed>0.9415412895885129</speed>
  <fix>3d</fix>
</trkpt>
<trkpt lat="33.8101361" lon="-118.3939882">
  <ele>-28.71</ele>
  <time>2026-09-02T22:08:06Z</time>
  <course>209.56</course>
  <speed>0.97</speed>
  <fix>3d</fix>
</trkpt>
<trkpt lat="33.8101346" lon="-118.3939893">
  <ele>-29.315</ele>
  <time>2026-09-02T22:08:06Z</time>
  <course>210.51</course>
  <speed>0.9415412895885129</speed>
  <fix>3d</fix>
</trkpt>
<trkpt lat="33.8101361" lon="-118.3939882">
  <ele>-28.71</ele>
  <time>2026-09-02T22:08:06Z</time>
  <course>209.56</course>
  <speed>0.97</speed>
  <fix>3d</fix>
</trkpt>
<trkpt lat="33.8101339" lon="-118.3939899">
  <ele>-29.28</ele>
  <time>2026-09-02T22:08:06Z</time>
  <course>210.52</course>
  <speed>0.9415412895885129</speed>
  <fix>3d</fix>
</trkpt>
<trkpt lat="33.8101346" lon="-118.3939892">
  <ele>-28.65</ele>
  <time>2026-09-02T22:08:06Z</time>
  <course>209.58</course>
  <speed>0.97</speed>
  <fix>3d</fix>
</trkpt>
<trkpt lat="33.8101331" lon="-118.3939904">
  <ele>-29.245</ele>
  <time>2026-09-02T22:08:06Z</time>
  <course>210.52</course>
  <speed>0.9415412895885129</speed>
  <fix>3d</fix>
</trkpt>
<trkpt lat="33.8101346" lon="-118.3939892">
  <ele>-28.65</ele>
  <time>2026-09-02T22:08:06Z</time>
  <course>209.58</course>
  <speed>0.97</speed>
  <fix>3d</fix>
</trkpt>
<trkpt lat="33.8101324" lon="-118.3939909">
  <ele>-29.21</ele>
  <time>2026-09-02T22:08:06Z</time>
  <course>210.52</course>
  <speed>0.9501578816175763</speed>
  <fix>3d</fix>
</trkpt>
<trkpt lat="33.8101331" lon="-118.3939902">
  <ele>-28.59</ele>
  <time>2026-09-02T22:08:06Z</time>
  <course>209.57</course>
  <speed>0.97</speed>
  <fix>3d</fix>
</trkpt>
<trkpt lat="33.8101316" lon="-118.3939914">
  <ele>-29.177</ele>
  <time>2026-09-02T22:08:06Z</time>
  <course>210.52</course>
  <speed>0.9501578816175763</speed>
  <fix>3d</fix>
</trkpt>
<trkpt lat="33.8101331" lon="-118.3939902">
  <ele>-28.59</ele>
  <time>2026-09-02T22:08:06Z</time>
  <course>209.57</course>
  <speed>0.97</speed>
  <fix>3d</fix>
</trkpt>
<trkpt lat="33.8101308" lon="-118.3939919">
  <ele>-29.144</ele>
  <time>2026-09-02T22:08:06Z</time>
  <course>210.53</course>
  <speed>0.9501578816175763</speed>
  <fix>3d</fix>
</trkpt>
<trkpt lat="33.8101316" lon="-118.3939913">
  <ele>-28.52</ele>
  <time>2026-09-02T22:08:06Z</time>
  <course>209.57</course>
  <speed>0.98</speed>
  <fix>3d</fix>
</trkpt>
<trkpt lat="33.8101301" lon="-118.3939924">
  <ele>-29.108</ele>
  <time>2026-09-02T22:08:06Z</time>
  <course>210.53</course>
  <speed>0.9501578816175763</speed>
  <fix>3d</fix>
</trkpt>
<trkpt lat="33.8101316" lon="-118.3939913">
  <ele>-28.52</ele>
  <time>2026-09-02T22:08:06Z</time>
  <course>209.57</course>
  <speed>0.98</speed>
  <fix>3d</fix>
</trkpt>
<trkpt lat="33.8101293" lon="-118.393993">
  <ele>-29.072</ele>
  <time>2026-09-02T22:08:06Z</time>
  <course>210.53</course>
  <speed>0.9501578816175763</speed>
  <fix>3d</fix>
</trkpt>
<trkpt lat="33.81013" lon="-118.3939923">
  <ele>-28.46</ele>
  <time>2026-09-02T22:08:06Z</time>
  <course>209.56</course>
  <speed>0.98</speed>
  <fix>3d</fix>
</trkpt>
<trkpt lat="33.8101286" lon="-118.3939935">
  <ele>-29.035</ele>
  <time>2026-09-02T22:08:06Z</time>
  <course>210.52</course>
  <speed>0.9501578816175763</speed>
  <fix>3d</fix>
</trkpt>
<trkpt lat="33.81013" lon="-118.3939923">
  <ele>-28.46</ele>
  <time>2026-09-02T22:08:06Z</time>
  <course>209.56</course>
  <speed>0.98</speed>
  <fix>3d</fix>
</trkpt>
<trkpt lat="33.8101278" lon="-118.393994">
  <ele>-28.999</ele>
  <time>2026-09-02T22:08:06Z</time>
  <course>210.53</course>
  <speed>0.9501578816175763</speed>
  <fix>3d</fix>
</trkpt>
<trkpt lat="33.8101285" lon="-118.3939934">
  <ele>-28.39</ele>
  <time>2026-09-02T22:08:06Z</time>
  <course>209.54</course>
  <speed>0.98</speed>
  <fix>3d</fix>
</trkpt>
<trkpt lat="33.810127" lon="-118.3939945">
  <ele>-28.963</ele>
  <time>2026-09-02T22:08:06Z</time>
  <course>210.53</course>
  <speed>0.9501578816175763</speed>
  <fix>3d</fix>
</trkpt>
<trkpt lat="33.8101285" lon="-118.3939934">
  <ele>-28.39</ele>
  <time>2026-09-02T22:08:06Z</time>
  <course>209.54</course>
  <speed>0.98</speed>
  <fix>3d</fix>
</trkpt>
<trkpt lat="33.8101263" lon="-118.3939951">
  <ele>-28.925</ele>
  <time>2026-09-02T22:08:06Z</time>
  <course>210.54</course>
  <speed>0.9501578816175763</speed>
  <fix>3d</fix>
</trkpt>
<trkpt lat="33.8101269" lon="-118.3939944">
  <ele>-28.32</ele>
  <time>2026-09-02T22:08:06Z</time>
  <course>209.55</course>
  <speed>0.98</speed>
  <fix>3d</fix>
</trkpt>
<trkpt lat="33.8101255" lon="-118.3939956">
  <ele>-28.886</ele>
  <time>2026-09-02T22:08:06Z</time>
  <course>210.54</course>
  <speed>0.9501578816175763</speed>
  <fix>3d</fix>
</trkpt>
<trkpt lat="33.8101269" lon="-118.3939944">
  <ele>-28.32</ele>
  <time>2026-09-02T22:08:06Z</time>
  <course>209.55</course>
  <speed>0.98</speed>
  <fix>3d</fix>
</trkpt>
<trkpt lat="33.8101247" lon="-118.3939961">
  <ele>-28.844</ele>
  <time>2026-09-02T22:08:06Z</time>
  <course>210.56</course>
  <speed>0.9501578816175763</speed>
  <fix>3d</fix>
</trkpt>
<trkpt lat="33.8101254" lon="-118.3939955">
  <ele>-28.25</ele>
  <time>2026-09-02T22:08:06Z</time>
  <course>209.56</course>
  <speed>0.98</speed>
  <fix>3d</fix>
</trkpt>
<trkpt lat="33.810124" lon="-118.3939966">
  <ele>-28.801</ele>
  <time>2026-09-02T22:08:06Z</time>
  <course>210.57</course>
  <speed>0.9501578816175763</speed>
  <fix>3d</fix>
</trkpt>
<trkpt lat="33.8101254" lon="-118.3939955">
  <ele>-28.25</ele>
  <time>2026-09-02T22:08:06Z</time>
  <course>209.56</course>
  <speed>0.98</speed>
  <fix>3d</fix>
</trkpt>
<trkpt lat="33.8101232" lon="-118.3939972">
  <ele>-28.757</ele>
  <time>2026-09-02T22:08:06Z</time>
  <course>210.58</course>
  <speed>0.9501578816175763</speed>
  <fix>3d</fix>
</trkpt>
<trkpt lat="33.8101238" lon="-118.3939965">
  <ele>-28.16</ele>
  <time>2026-09-02T22:08:06Z</time>
  <course>209.57</course>
  <speed>0.98</speed>
  <fix>3d</fix>
</trkpt>
<trkpt lat="33.8101224" lon="-118.3939977">
  <ele>-28.713</ele>
  <time>2026-09-02T22:08:06Z</time>
  <course>210.59</course>
  <speed>0.9501578816175763</speed>
  <fix>3d</fix>
</trkpt>
<trkpt lat="33.8101238" lon="-118.3939965">
  <ele>-28.16</ele>
  <time>2026-09-02T22:08:06Z</time>
  <course>209.57</course>
  <speed>0.98</speed>
  <fix>3d</fix>
</trkpt>
<trkpt lat="33.8101217" lon="-118.3939982">
  <ele>-28.67</ele>
  <time>2026-09-02T22:08:06Z</time>
  <course>210.62</course>
  <speed>0.9501578816175763</speed>
  <fix>3d</fix>
</trkpt>
<trkpt lat="33.8101223" lon="-118.3939976">
  <ele>-28.08</ele>
  <time>2026-09-02T22:08:06Z</time>
  <course>209.6</course>
  <speed>0.98</speed>
  <fix>3d</fix>
</trkpt>
<trkpt lat="33.8101209" lon="-118.3939987">
  <ele>-28.631</ele>
  <time>2026-09-02T22:08:06Z</time>
  <course>210.64</course>
  <speed>0.9501578816175763</speed>
  <fix>3d</fix>
</trkpt>
<trkpt lat="33.8101223" lon="-118.3939976">
  <ele>-28.08</ele>
  <time>2026-09-02T22:08:06Z</time>
  <course>209.6</course>
  <speed>0.98</speed>
  <fix>3d</fix>
</trkpt>
<trkpt lat="33.8101201" lon="-118.3939993">
  <ele>-28.593</ele>
  <time>2026-09-02T22:08:06Z</time>
  <course>210.66</course>
  <speed>0.9501578816175763</speed>
  <fix>3d</fix>
</trkpt>
<trkpt lat="33.8101208" lon="-118.3939986">
  <ele>-28.0</ele>
  <time>2026-09-02T22:08:06Z</time>
  <course>209.65</course>
  <speed>0.98</speed>
  <fix>3d</fix>
</trkpt>
<trkpt lat="33.8101194" lon="-118.3939998">
  <ele>-28.557</ele>
  <time>2026-09-02T22:08:06Z</time>
  <course>210.66</course>
  <speed>0.9192388155425119</speed>
  <fix>3d</fix>
</trkpt>
<trkpt lat="33.8101208" lon="-118.3939986">
  <ele>-28.0</ele>
  <time>2026-09-02T22:08:06Z</time>
  <course>209.65</course>
  <speed>0.98</speed>
  <fix>3d</fix>
</trkpt>
<trkpt lat="33.8101186" lon="-118.3940003">
  <ele>-28.521</ele>
  <time>2026-09-02T22:08:06Z</time>
  <course>210.69</course>
  <speed>0.8832326986700617</speed>
  <fix>3d</fix>
</trkpt>
<trkpt lat="33.8101192" lon="-118.3939997">
  <ele>-27.93</ele>
  <time>2026-09-02T22:08:06Z</time>
  <course>209.7</course>
  <speed>0.94</speed>
  <fix>3d</fix>
</trkpt>
<trkpt lat="33.8101179" lon="-118.3940007">
  <ele>-28.485</ele>
  <time>2026-09-02T22:08:06Z</time>
  <course>210.74</course>
  <speed>0.8918520056601319</speed>
  <fix>3d</fix>
</trkpt>
<trkpt lat="33.8101192" lon="-118.3939997">
  <ele>-27.93</ele>
  <time>2026-09-02T22:08:06Z</time>
  <course>209.7</course>
  <speed>0.94</speed>
  <fix>3d</fix>
</trkpt>
<trkpt lat="33.8101172" lon="-118.3940012">
  <ele>-28.45</ele>
  <time>2026-09-02T22:08:06Z</time>
  <course>210.77</course>
  <speed>0.9055385138137417</speed>
  <fix>3d</fix>
</trkpt>
<trkpt lat="33.8101178" lon="-118.3940007">
  <ele>-27.86</ele>
  <time>2026-09-02T22:08:06Z</time>
  <course>209.72</course>
  <speed>0.91</speed>
  <fix>3d</fix>
</trkpt>
<trkpt lat="33.8101165" lon="-118.3940017">
  <ele>-28.417</ele>
  <time>2026-09-02T22:08:06Z</time>
  <course>210.76</course>
  <speed>0.9055385138137417</speed>
  <fix>3d</fix>
</trkpt>
<trkpt lat="33.8101178" lon="-118.3940007">
  <ele>-27.86</ele>
  <time>2026-09-02T22:08:06Z</time>
  <course>209.72</course>
  <speed>0.91</speed>
  <fix>3d</fix>
</trkpt>
<trkpt lat="33.8101157" lon="-118.3940023">
  <ele>-28.388</ele>
  <time>2026-09-02T22:08:06Z</time>
  <course>210.74</course>
  <speed>0.9192388155425119</speed>
  <fix>3d</fix>
</trkpt>
<trkpt lat="33.8101163" lon="-118.3940017">
  <ele>-27.79</ele>
  <time>2026-09-02T22:08:06Z</time>
  <course>209.68</course>
  <speed>0.93</speed>
  <fix>3d</fix>
</trkpt>
<trkpt lat="33.810115" lon="-118.3940028">
  <ele>-28.363</ele>
  <time>2026-09-02T22:08:06Z</time>
  <course>210.71</course>
  <speed>0.9192388155425119</speed>
  <fix>3d</fix>
</trkpt>
<trkpt lat="33.8101163" lon="-118.3940017">
  <ele>-27.79</ele>
  <time>2026-09-02T22:08:06Z</time>
  <course>209.68</course>
  <speed>0.93</speed>
  <fix>3d</fix>
</trkpt>
<trkpt lat="33.8101142" lon="-118.3940033">
  <ele>-28.34</ele>
  <time>2026-09-02T22:08:06Z</time>
  <course>210.69</course>
  <speed>0.9278469701410895</speed>
  <fix>3d</fix>
</trkpt>
<trkpt lat="33.8101149" lon="-118.3940026">
  <ele>-27.73</ele>
  <time>2026-09-02T22:08:06Z</time>
  <course>209.64</course>
  <speed>0.95</speed>
  <fix>3d</fix>
</trkpt>
<trkpt lat="33.8101135" lon="-118.3940038">
  <ele>-28.316</ele>
  <time>2026-09-02T22:08:06Z</time>
  <course>210.66</course>
  <speed>0.9278469701410895</speed>
  <fix>3d</fix>
</trkpt>
<trkpt lat="33.8101149" lon="-118.3940026">
  <ele>-27.73</ele>
  <time>2026-09-02T22:08:06Z</time>
  <course>209.64</course>
  <speed>0.95</speed>
  <fix>3d</fix>
</trkpt>
<trkpt lat="33.8101127" lon="-118.3940043">
  <ele>-28.292</ele>
  <time>2026-09-02T22:08:06Z</time>
  <course>210.66</course>
  <speed>0.9415412895885129</speed>
  <fix>3d</fix>
</trkpt>
<trkpt lat="33.8101134" lon="-118.3940037">
  <ele>-27.68</ele>
  <time>2026-09-02T22:08:06Z</time>
  <course>209.64</course>
  <speed>0.96</speed>
  <fix>3d</fix>
</trkpt>
<trkpt lat="33.810112" lon="-118.3940048">
  <ele>-28.269</ele>
  <time>2026-09-02T22:08:06Z</time>
  <course>210.66</course>
  <speed>0.9415412895885129</speed>
  <fix>3d</fix>
</trkpt>
<trkpt lat="33.8101134" lon="-118.3940037">
  <ele>-27.68</ele>
  <time>2026-09-02T22:08:06Z</time>
  <course>209.64</course>
  <speed>0.96</speed>
  <fix>3d</fix>
</trkpt>
<trkpt lat="33.8101112" lon="-118.3940053">
  <ele>-28.244</ele>
  <time>2026-09-02T22:08:06Z</time>
  <course>210.67</course>
  <speed>0.9415412895885129</speed>
  <fix>3d</fix>
</trkpt>
<trkpt lat="33.8101118" lon="-118.3940048">
  <ele>-27.63</ele>
  <time>2026-09-02T22:08:06Z</time>
  <course>209.65</course>
  <speed>0.97</speed>
  <fix>3d</fix>
</trkpt>
<trkpt lat="33.8101105" lon="-118.3940059">
  <ele>-28.218</ele>
  <time>2026-09-02T22:08:06Z</time>
  <course>210.66</course>
  <speed>0.9415412895885129</speed>
  <fix>3d</fix>
</trkpt>
<trkpt lat="33.8101118" lon="-118.3940048">
  <ele>-27.63</ele>
  <time>2026-09-02T22:08:06Z</time>
  <course>209.65</course>
  <speed>0.97</speed>
  <fix>3d</fix>
</trkpt>
<trkpt lat="33.8101097" lon="-118.3940064">
  <ele>-28.19</ele>
  <time>2026-09-02T22:08:06Z</time>
  <course>210.64</course>
  <speed>0.9415412895885129</speed>
  <fix>3d</fix>
</trkpt>
<trkpt lat="33.8101103" lon="-118.3940058">
  <ele>-27.58</ele>
  <time>2026-09-02T22:08:06Z</time>
  <course>209.63</course>
  <speed>0.97</speed>
  <fix>3d</fix>
</trkpt>
<trkpt lat="33.8101089" lon="-118.3940069">
  <ele>-28.158</ele>
  <time>2026-09-02T22:08:06Z</time>
  <course>210.63</course>
  <speed>0.9415412895885129</speed>
  <fix>3d</fix>
</trkpt>
<trkpt lat="33.8101103" lon="-118.3940058">
  <ele>-27.58</ele>
  <time>2026-09-02T22:08:06Z</time>
  <course>209.63</course>
  <speed>0.97</speed>
  <fix>3d</fix>
</trkpt>
<trkpt lat="33.8101082" lon="-118.3940074">
  <ele>-28.124</ele>
  <time>2026-09-02T22:08:06Z</time>
  <course>210.62</course>
  <speed>0.9501578816175763</speed>
  <fix>3d</fix>
</trkpt>
<trkpt lat="33.8101088" lon="-118.3940068">
  <ele>-27.52</ele>
  <time>2026-09-02T22:08:06Z</time>
  <course>209.6</course>
  <speed>0.97</speed>
  <fix>3d</fix>
</trkpt>
<trkpt lat="33.8101074" lon="-118.394008">
  <ele>-28.089</ele>
  <time>2026-09-02T22:08:06Z</time>
  <course>210.62</course>
  <speed>0.9501578816175763</speed>
  <fix>3d</fix>
</trkpt>
<trkpt lat="33.8101088" lon="-118.3940068">
  <ele>-27.52</ele>
  <time>2026-09-02T22:08:06Z</time>
  <course>209.6</course>
  <speed>0.97</speed>
  <fix>3d</fix>
</trkpt>
<trkpt lat="33.8101066" lon="-118.3940085">
  <ele>-28.055</ele>
  <time>2026-09-02T22:08:06Z</time>
  <course>210.62</course>
  <speed>0.9501578816175763</speed>
  <fix>3d</fix>
</trkpt>
<trkpt lat="33.8101073" lon="-118.3940079">
  <ele>-27.46</ele>
  <time>2026-09-02T22:08:06Z</time>
  <course>209.6</course>
  <speed>0.98</speed>
  <fix>3d</fix>
</trkpt>
<trkpt lat="33.8101059" lon="-118.394009">
  <ele>-28.022</ele>
  <time>2026-09-02T22:08:06Z</time>
  <course>210.62</course>
  <speed>0.9501578816175763</speed>
  <fix>3d</fix>
</trkpt>
<trkpt lat="33.8101073" lon="-118.3940079">
  <ele>-27.46</ele>
  <time>2026-09-02T22:08:06Z</time>
  <course>209.6</course>
  <speed>0.98</speed>
  <fix>3d</fix>
</trkpt>
<trkpt lat="33.8101051" lon="-118.3940095">
  <ele>-27.99</ele>
  <time>2026-09-02T22:08:06Z</time>
  <course>210.61</course>
  <speed>0.9501578816175763</speed>
  <fix>3d</fix>
</trkpt>
<trkpt lat="33.8101057" lon="-118.3940089">
  <ele>-27.39</ele>
  <time>2026-09-02T22:08:06Z</time>
  <course>209.59</course>
  <speed>0.98</speed>
  <fix>3d</fix>
</trkpt>
<trkpt lat="33.8101043" lon="-118.3940101">
  <ele>-27.956</ele>
  <time>2026-09-02T22:08:06Z</time>
  <course>210.6</course>
  <speed>0.9501578816175763</speed>
  <fix>3d</fix>
</trkpt>
<trkpt lat="33.8101057" lon="-118.3940089">
  <ele>-27.39</ele>
  <time>2026-09-02T22:08:06Z</time>
  <course>209.59</course>
  <speed>0.98</speed>
  <fix>3d</fix>
</trkpt>
<trkpt lat="33.8101035" lon="-118.3940106">
  <ele>-27.92</ele>
  <time>2026-09-02T22:08:06Z</time>
  <course>210.61</course>
  <speed>0.9501578816175763</speed>
  <fix>3d</fix>
</trkpt>
<trkpt lat="33.8101042" lon="-118.39401">
  <ele>-27.33</ele>
  <time>2026-09-02T22:08:06Z</time>
  <course>209.58</course>
  <speed>0.98</speed>
  <fix>3d</fix>
</trkpt>
<trkpt lat="33.8101028" lon="-118.3940111">
  <ele>-27.887</ele>
  <time>2026-09-02T22:08:06Z</time>
  <course>210.62</course>
  <speed>0.95524865872714</speed>
  <fix>3d</fix>
</trkpt>
<trkpt lat="33.8101042" lon="-118.39401">
  <ele>-27.33</ele>
  <time>2026-09-02T22:08:06Z</time>
  <course>209.58</course>
  <speed>0.98</speed>
  <fix>3d</fix>
</trkpt>
<trkpt lat="33.810102" lon="-118.3940116">
  <ele>-27.854</ele>
  <time>2026-09-02T22:08:06Z</time>
  <course>210.62</course>
  <speed>0.8609297300012354</speed>
  <fix>3d</fix>
</trkpt>
<trkpt lat="33.8101027" lon="-118.394011">
  <ele>-27.26</ele>
  <time>2026-09-02T22:08:06Z</time>
  <course>209.6</course>
  <speed>0.98</speed>
  <fix>3d</fix>
</trkpt>
<trkpt lat="33.8101013" lon="-118.3940121">
  <ele>-27.822</ele>
  <time>2026-09-02T22:08:06Z</time>
  <course>210.66</course>
  <speed>0.8918520056601319</speed>
  <fix>3d</fix>
</trkpt>
<trkpt lat="33.8101027" lon="-118.394011">
  <ele>-27.26</ele>
  <time>2026-09-02T22:08:06Z</time>
  <course>209.6</course>
  <speed>0.98</speed>
  <fix>3d</fix>
</trkpt>
<trkpt lat="33.8101006" lon="-118.3940126">
  <ele>-27.791</ele>
  <time>2026-09-02T22:08:06Z</time>
  <course>210.7</course>
  <speed>0.9055385138137417</speed>
  <fix>3d</fix>
</trkpt>
<trkpt lat="33.8101012" lon="-118.3940121">
  <ele>-27.2</ele>
  <time>2026-09-02T22:08:06Z</time>
  <course>209.63</course>
  <speed>0.95</speed>
  <fix>3d</fix>
</trkpt>
<trkpt lat="33.8100998" lon="-118.3940131">
  <ele>-27.76</ele>
  <time>2026-09-02T22:08:06Z</time>
  <course>210.71</course>
  <speed>0.914166286842826</speed>
  <fix>3d</fix>
</trkpt>
<trkpt lat="33.8101012" lon="-118.3940121">
  <ele>-27.2</ele>
  <time>2026-09-02T22:08:06Z</time>
  <course>209.63</course>
  <speed>0.95</speed>
  <fix>3d</fix>
</trkpt>
<trkpt lat="33.8100991" lon="-118.3940136">
  <ele>-27.728</ele>
  <time>2026-09-02T22:08:06Z</time>
  <course>210.68</course>
  <speed>0.9192388155425119</speed>
  <fix>3d</fix>
</trkpt>
<trkpt lat="33.8100997" lon="-118.3940131">
  <ele>-27.13</ele>
  <time>2026-09-02T22:08:06Z</time>
  <course>209.62</course>
  <speed>0.93</speed>
  <fix>3d</fix>
</trkpt>
<trkpt lat="33.8100984" lon="-118.3940142">
  <ele>-27.693</ele>
  <time>2026-09-02T22:08:06Z</time>
  <course>210.63</course>
  <speed>0.9278469701410895</speed>
  <fix>3d</fix>
</trkpt>
<trkpt lat="33.8100997" lon="-118.3940131">
  <ele>-27.13</ele>
  <time>2026-09-02T22:08:06Z</time>
  <course>209.62</course>
  <speed>0.93</speed>
  <fix>3d</fix>
</trkpt>
<trkpt lat="33.8100976" lon="-118.3940147">
  <ele>-27.657</ele>
  <time>2026-09-02T22:08:06Z</time>
  <course>210.6</course>
  <speed>0.9278469701410895</speed>
  <fix>3d</fix>
</trkpt>
<trkpt lat="33.8100982" lon="-118.3940141">
  <ele>-27.07</ele>
  <time>2026-09-02T22:08:06Z</time>
  <course>209.56</course>
  <speed>0.95</speed>
  <fix>3d</fix>
</trkpt>
<trkpt lat="33.8100968" lon="-118.3940152">
  <ele>-27.619</ele>
  <time>2026-09-02T22:08:06Z</time>
  <course>210.57</course>
  <speed>0.9278469701410895</speed>
  <fix>3d</fix>
</trkpt>
<trkpt lat="33.8100982" lon="-118.3940141">
  <ele>-27.07</ele>
  <time>2026-09-02T22:08:06Z</time>
  <course>209.56</course>
  <speed>0.95</speed>
  <fix>3d</fix>
</trkpt>
<trkpt lat="33.8100961" lon="-118.3940157">
  <ele>-27.58</ele>
  <time>2026-09-02T22:08:06Z</time>
  <course>210.55</course>
  <speed>0.9415412895885129</speed>
  <fix>3d</fix>
</trkpt>
<trkpt lat="33.8100967" lon="-118.3940151">
  <ele>-27.0</ele>
  <time>2026-09-02T22:08:06Z</time>
  <course>209.52</course>
  <speed>0.96</speed>
  <fix>3d</fix>
</trkpt>
<trkpt lat="33.8100953" lon="-118.3940162">
  <ele>-27.541</ele>
  <time>2026-09-02T22:08:06Z</time>
  <course>210.54</course>
  <speed>0.9415412895885129</speed>
  <fix>3d</fix>
</trkpt>
<trkpt lat="33.8100967" lon="-118.3940151">
  <ele>-27.0</ele>
  <time>2026-09-02T22:08:06Z</time>
  <course>209.52</course>
  <speed>0.96</speed>
  <fix>3d</fix>
</trkpt>
<trkpt lat="33.8100946" lon="-118.3940167">
  <ele>-27.501</ele>
  <time>2026-09-02T22:08:06Z</time>
  <course>210.54</course>
  <speed>0.9415412895885129</speed>
  <fix>3d</fix>
</trkpt>
<trkpt lat="33.8100952" lon="-118.394016">
  <ele>-26.93</ele>
  <time>2026-09-02T22:08:06Z</time>
  <course>209.51</course>
  <speed>0.96</speed>
  <fix>3d</fix>
</trkpt>
<trkpt lat="33.8100938" lon="-118.3940173">
  <ele>-27.462</ele>
  <time>2026-09-02T22:08:06Z</time>
  <course>210.55</course>
  <speed>0.9501578816175763</speed>
  <fix>3d</fix>
</trkpt>
<trkpt lat="33.8100952" lon="-118.394016">
  <ele>-26.93</ele>
  <time>2026-09-02T22:08:06Z</time>
  <course>209.51</course>
  <speed>0.96</speed>
  <fix>3d</fix>
</trkpt>
<trkpt lat="33.810093" lon="-118.3940178">
  <ele>-27.422</ele>
  <time>2026-09-02T22:08:06Z</time>
  <course>210.59</course>
  <speed>0.9278469701410895</speed>
  <fix>3d</fix>
</trkpt>
<trkpt lat="33.8100937" lon="-118.3940171">
  <ele>-26.84</ele>
  <time>2026-09-02T22:08:06Z</time>
  <course>209.58</course>
  <speed>0.97</speed>
  <fix>3d</fix>
</trkpt>
<trkpt lat="33.8100923" lon="-118.3940183">
  <ele>-27.382</ele>
  <time>2026-09-02T22:08:06Z</time>
  <course>210.66</course>
  <speed>0.8832326986700617</speed>
  <fix>3d</fix>
</trkpt>
<trkpt lat="33.8100937" lon="-118.3940171">
  <ele>-26.84</ele>
  <time>2026-09-02T22:08:06Z</time>
  <course>209.58</course>
  <speed>0.97</speed>
  <fix>3d</fix>
</trkpt>
<trkpt lat="33.8100916" lon="-118.3940188">
  <ele>-27.34</ele>
  <time>2026-09-02T22:08:06Z</time>
  <course>210.76</course>
  <speed>0.8969392398596462</speed>
  <fix>3d</fix>
</trkpt>
<trkpt lat="33.8100923" lon="-118.3940182">
  <ele>-26.77</ele>
  <time>2026-09-02T22:08:06Z</time>
  <course>209.71</course>
  <speed>0.94</speed>
  <fix>3d</fix>
</trkpt>
<trkpt lat="33.8100909" lon="-118.3940193">
  <ele>-27.299</ele>
  <time>2026-09-02T22:08:06Z</time>
  <course>210.81</course>
  <speed>0.9055385138137417</speed>
  <fix>3d</fix>
</trkpt>
<trkpt lat="33.8100923" lon="-118.3940182">
  <ele>-26.77</ele>
  <time>2026-09-02T22:08:06Z</time>
  <course>209.71</course>
  <speed>0.94</speed>
  <fix>3d</fix>
</trkpt>
<trkpt lat="33.8100901" lon="-118.3940198">
  <ele>-27.262</ele>
  <time>2026-09-02T22:08:06Z</time>
  <course>210.82</course>
  <speed>0.9192388155425119</speed>
  <fix>3d</fix>
</trkpt>
<trkpt lat="33.8100908" lon="-118.3940192">
  <ele>-26.7</ele>
  <time>2026-09-02T22:08:06Z</time>
  <course>209.73</course>
  <speed>0.92</speed>
  <fix>3d</fix>
</trkpt>
<trkpt lat="33.8100894" lon="-118.3940203">
  <ele>-27.23</ele>
  <time>2026-09-02T22:08:06Z</time>
  <course>210.77</course>
  <speed>0.9192388155425119</speed>
  <fix>3d</fix>
</trkpt>
<trkpt lat="33.8100908" lon="-118.3940192">
  <ele>-26.7</ele>
  <time>2026-09-02T22:08:06Z</time>
  <course>209.73</course>
  <speed>0.92</speed>
  <fix>3d</fix>
</trkpt>
<trkpt lat="33.8100886" lon="-118.3940208">
  <ele>-27.202</ele>
  <time>2026-09-02T22:08:06Z</time>
  <course>210.72</course>
  <speed>0.9278469701410895</speed>
  <fix>3d</fix>
</trkpt>
<trkpt lat="33.8100893" lon="-118.3940202">
  <ele>-26.63</ele>
  <time>2026-09-02T22:08:06Z</time>
  <course>209.63</course>
  <speed>0.94</speed>
  <fix>3d</fix>
</trkpt>
<trkpt lat="33.8100879" lon="-118.3940213">
  <ele>-27.174</ele>
  <time>2026-09-02T22:08:06Z</time>
  <course>210.67</course>
  <speed>0.9364827814754524</speed>
  <fix>3d</fix>
</trkpt>
<trkpt lat="33.8100893" lon="-118.3940202">
  <ele>-26.63</ele>
  <time>2026-09-02T22:08:06Z</time>
  <course>209.63</course>
  <speed>0.94</speed>
  <fix>3d</fix>
</trkpt>
<trkpt lat="33.8100871" lon="-118.3940218">
  <ele>-27.144</ele>
  <time>2026-09-02T22:08:06Z</time>
  <course>210.63</course>
  <speed>0.9415412895885129</speed>
  <fix>3d</fix>
</trkpt>
<trkpt lat="33.8100878" lon="-118.3940212">
  <ele>-26.57</ele>
  <time>2026-09-02T22:08:06Z</time>
  <course>209.56</course>
  <speed>0.95</speed>
  <fix>3d</fix>
</trkpt>
<trkpt lat="33.8100864" lon="-118.3940223">
  <ele>-27.114</ele>
  <time>2026-09-02T22:08:06Z</time>
  <course>210.6</course>
  <speed>0.9415412895885129</speed>
  <fix>3d</fix>
</trkpt>
<trkpt lat="33.8100878" lon="-118.3940212">
  <ele>-26.57</ele>
  <time>2026-09-02T22:08:06Z</time>
  <course>209.56</course>
  <speed>0.95</speed>
  <fix>3d</fix>
</trkpt>
<trkpt lat="33.8100856" lon="-118.3940229">
  <ele>-27.085</ele>
  <time>2026-09-02T22:08:06Z</time>
  <course>210.58</course>
  <speed>0.9501578816175763</speed>
  <fix>3d</fix>
</trkpt>
<trkpt lat="33.8100863" lon="-118.3940222">
  <ele>-26.51</ele>
  <time>2026-09-02T22:08:06Z</time>
  <course>209.53</course>
  <speed>0.96</speed>
  <fix>3d</fix>
</trkpt>
<trkpt lat="33.8100848" lon="-118.3940234">
  <ele>-27.057</ele>
  <time>2026-09-02T22:08:06Z</time>
  <course>210.57</course>
  <speed>0.9501578816175763</speed>
  <fix>3d</fix>
</trkpt>
<trkpt lat="33.8100863" lon="-118.3940222">
  <ele>-26.51</ele>
  <time>2026-09-02T22:08:06Z</time>
  <course>209.53</course>
  <speed>0.96</speed>
  <fix>3d</fix>
</trkpt>
<trkpt lat="33.8100841" lon="-118.3940239">
  <ele>-27.031</ele>
  <time>2026-09-02T22:08:06Z</time>
  <course>210.58</course>
  <speed>0.9501578816175763</speed>
  <fix>3d</fix>
</trkpt>
<trkpt lat="33.8100848" lon="-118.3940232">
  <ele>-26.45</ele>
  <time>2026-09-02T22:08:06Z</time>
  <course>209.54</course>
  <speed>0.97</speed>
  <fix>3d</fix>
</trkpt>
<trkpt lat="33.8100833" lon="-118.3940244">
  <ele>-27.005</ele>
  <time>2026-09-02T22:08:06Z</time>
  <course>210.58</course>
  <speed>0.95524865872714</speed>
  <fix>3d</fix>
</trkpt>
<trkpt lat="33.8100848" lon="-118.3940232">
  <ele>-26.45</ele>
  <time>2026-09-02T22:08:06Z</time>
  <course>209.54</course>
  <speed>0.97</speed>
  <fix>3d</fix>
</trkpt>
<trkpt lat="33.8100825" lon="-118.394025">
  <ele>-26.976</ele>
  <time>2026-09-02T22:08:06Z</time>
  <course>210.6</course>
  <speed>0.9638464608017192</speed>
  <fix>3d</fix>
</trkpt>
<trkpt lat="33.8100833" lon="-118.3940243">
  <ele>-26.39</ele>
  <time>2026-09-02T22:08:06Z</time>
  <course>209.58</course>
  <speed>0.98</speed>
  <fix>3d</fix>
</trkpt>
<trkpt lat="33.8100818" lon="-118.3940255">
  <ele>-26.945</ele>
  <time>2026-09-02T22:08:06Z</time>
  <course>210.62</course>
  <speed>0.9638464608017192</speed>
  <fix>3d</fix>
</trkpt>
<trkpt lat="33.8100833" lon="-118.3940243">
  <ele>-26.39</ele>
  <time>2026-09-02T22:08:06Z</time>
  <course>209.58</course>
  <speed>0.98</speed>
  <fix>3d</fix>
</trkpt>
<trkpt lat="33.810081" lon="-118.394026">
  <ele>-26.912</ele>
  <time>2026-09-02T22:08:06Z</time>
  <course>210.62</course>
  <speed>0.9638464608017192</speed>
  <fix>3d</fix>
</trkpt>
<trkpt lat="33.8100818" lon="-118.3940253">
  <ele>-26.33</ele>
  <time>2026-09-02T22:08:06Z</time>
  <course>209.59</course>
  <speed>0.98</speed>
  <fix>3d</fix>
</trkpt>
<trkpt lat="33.8100802" lon="-118.3940265">
  <ele>-26.88</ele>
  <time>2026-09-02T22:08:06Z</time>
  <course>210.61</course>
  <speed>0.9638464608017192</speed>
  <fix>3d</fix>
</trkpt>
<trkpt lat="33.8100818" lon="-118.3940253">
  <ele>-26.33</ele>
  <time>2026-09-02T22:08:06Z</time>
  <course>209.59</course>
  <speed>0.98</speed>
  <fix>3d</fix>
</trkpt>
<trkpt lat="33.8100795" lon="-118.3940271">
  <ele>-26.847</ele>
  <time>2026-09-02T22:08:06Z</time>
  <course>210.6</course>
  <speed>0.9638464608017192</speed>
  <fix>3d</fix>
</trkpt>
<trkpt lat="33.8100802" lon="-118.3940264">
  <ele>-26.26</ele>
  <time>2026-09-02T22:08:06Z</time>
  <course>209.59</course>
  <speed>0.98</speed>
  <fix>3d</fix>
</trkpt>
<trkpt lat="33.8100787" lon="-118.3940276">
  <ele>-26.811</ele>
  <time>2026-09-02T22:08:06Z</time>
  <course>210.6</course>
  <speed>0.9638464608017192</speed>
  <fix>3d</fix>
</trkpt>
<trkpt lat="33.8100802" lon="-118.3940264">
  <ele>-26.26</ele>
  <time>2026-09-02T22:08:06Z</time>
  <course>209.59</course>
  <speed>0.98</speed>
  <fix>3d</fix>
</trkpt>
<trkpt lat="33.8100779" lon="-118.3940281">
  <ele>-26.772</ele>
  <time>2026-09-02T22:08:06Z</time>
  <course>210.6</course>
  <speed>0.9638464608017192</speed>
  <fix>3d</fix>
</trkpt>
<trkpt lat="33.8100787" lon="-118.3940274">
  <ele>-26.19</ele>
  <time>2026-09-02T22:08:06Z</time>
  <course>209.57</course>
  <speed>0.99</speed>
  <fix>3d</fix>
</trkpt>
<trkpt lat="33.8100771" lon="-118.3940287">
  <ele>-26.735</ele>
  <time>2026-09-02T22:08:06Z</time>
  <course>210.6</course>
  <speed>0.9638464608017192</speed>
  <fix>3d</fix>
</trkpt>
<trkpt lat="33.8100787" lon="-118.3940274">
  <ele>-26.19</ele>
  <time>2026-09-02T22:08:06Z</time>
  <course>209.57</course>
  <speed>0.99</speed>
  <fix>3d</fix>
</trkpt>
<trkpt lat="33.8100764" lon="-118.3940292">
  <ele>-26.697</ele>
  <time>2026-09-02T22:08:06Z</time>
  <course>210.6</course>
  <speed>0.9724710792614863</speed>
  <fix>3d</fix>
</trkpt>
<trkpt lat="33.8100771" lon="-118.3940285">
  <ele>-26.12</ele>
  <time>2026-09-02T22:08:06Z</time>
  <course>209.57</course>
  <speed>0.99</speed>
  <fix>3d</fix>
</trkpt>
<trkpt lat="33.8100756" lon="-118.3940297">
  <ele>-26.657</ele>
  <time>2026-09-02T22:08:06Z</time>
  <course>210.6</course>
  <speed>0.9724710792614863</speed>
  <fix>3d</fix>
</trkpt>
<trkpt lat="33.8100771" lon="-118.3940285">
  <ele>-26.12</ele>
  <time>2026-09-02T22:08:06Z</time>
  <course>209.57</course>
  <speed>0.99</speed>
  <fix>3d</fix>
</trkpt>
<trkpt lat="33.8100748" lon="-118.3940303">
  <ele>-26.616</ele>
  <time>2026-09-02T22:08:06Z</time>
  <course>210.61</course>
  <speed>0.9724710792614863</speed>
  <fix>3d</fix>
</trkpt>
<trkpt lat="33.8100756" lon="-118.3940296">
  <ele>-26.05</ele>
  <time>2026-09-02T22:08:06Z</time>
  <course>209.59</course>
  <speed>0.99</speed>
  <fix>3d</fix>
</trkpt>
<trkpt lat="33.810074" lon="-118.3940308">
  <ele>-26.573</ele>
  <time>2026-09-02T22:08:06Z</time>
  <course>210.61</course>
  <speed>0.9724710792614863</speed>
  <fix>3d</fix>
</trkpt>
<trkpt lat="33.8100756" lon="-118.3940296">
  <ele>-26.05</ele>
  <time>2026-09-02T22:08:06Z</time>
  <course>209.59</course>
  <speed>0.99</speed>
  <fix>3d</fix>
</trkpt>
<trkpt lat="33.8100732" lon="-118.3940313">
  <ele>-26.53</ele>
  <time>2026-09-02T22:08:06Z</time>
  <course>210.6</course>
  <speed>0.9724710792614863</speed>
  <fix>3d</fix>
</trkpt>
<trkpt lat="33.810074" lon="-118.3940306">
  <ele>-25.97</ele>
  <time>2026-09-02T22:08:06Z</time>
  <course>209.56</course>
  <speed>0.99</speed>
  <fix>3d</fix>
</trkpt>
<trkpt lat="33.8100725" lon="-118.3940319">
  <ele>-26.487</ele>
  <time>2026-09-02T22:08:06Z</time>
  <course>210.59</course>
  <speed>0.9724710792614863</speed>
  <fix>3d</fix>
</trkpt>
<trkpt lat="33.810074" lon="-118.3940306">
  <ele>-25.97</ele>
  <time>2026-09-02T22:08:06Z</time>
  <course>209.56</course>
  <speed>0.99</speed>
  <fix>3d</fix>
</trkpt>
<trkpt lat="33.8100717" lon="-118.3940324">
  <ele>-26.446</ele>
  <time>2026-09-02T22:08:06Z</time>
  <course>210.59</course>
  <speed>0.9724710792614863</speed>
  <fix>3d</fix>
</trkpt>
<trkpt lat="33.8100725" lon="-118.3940317">
  <ele>-25.89</ele>
  <time>2026-09-02T22:08:06Z</time>
  <course>209.54</course>
  <speed>1.0</speed>
  <fix>3d</fix>
</trkpt>
<trkpt lat="33.8100709" lon="-118.3940329">
  <ele>-26.405</ele>
  <time>2026-09-02T22:08:06Z</time>
  <course>210.59</course>
  <speed>0.9724710792614863</speed>
  <fix>3d</fix>
</trkpt>
<trkpt lat="33.8100725" lon="-118.3940317">
  <ele>-25.89</ele>
  <time>2026-09-02T22:08:06Z</time>
  <course>209.54</course>
  <speed>1.0</speed>
  <fix>3d</fix>
</trkpt>
<trkpt lat="33.8100701" lon="-118.3940335">
  <ele>-26.365</ele>
  <time>2026-09-02T22:08:06Z</time>
  <course>210.59</course>
  <speed>0.9724710792614863</speed>
  <fix>3d</fix>
</trkpt>
<trkpt lat="33.8100709" lon="-118.3940328">
  <ele>-25.81</ele>
  <time>2026-09-02T22:08:06Z</time>
  <course>209.55</course>
  <speed>1.0</speed>
  <fix>3d</fix>
</trkpt>
<trkpt lat="33.8100694" lon="-118.394034">
  <ele>-26.328</ele>
  <time>2026-09-02T22:08:06Z</time>
  <course>210.58</course>
  <speed>0.9724710792614863</speed>
  <fix>3d</fix>
</trkpt>
<trkpt lat="33.8100709" lon="-118.3940328">
  <ele>-25.81</ele>
  <time>2026-09-02T22:08:06Z</time>
  <course>209.55</course>
  <speed>1.0</speed>
  <fix>3d</fix>
</trkpt>
<trkpt lat="33.8100686" lon="-118.3940345">
  <ele>-26.294</ele>
  <time>2026-09-02T22:08:06Z</time>
  <course>210.56</course>
  <speed>0.9724710792614863</speed>
  <fix>3d</fix>
</trkpt>
<trkpt lat="33.8100693" lon="-118.3940338">
  <ele>-25.73</ele>
  <time>2026-09-02T22:08:06Z</time>
  <course>209.54</course>
  <speed>1.0</speed>
  <fix>3d</fix>
</trkpt>
<trkpt lat="33.8100678" lon="-118.3940351">
  <ele>-26.261</ele>
  <time>2026-09-02T22:08:06Z</time>
  <course>210.55</course>
  <speed>0.9724710792614863</speed>
  <fix>3d</fix>
</trkpt>
<trkpt lat="33.8100693" lon="-118.3940338">
  <ele>-25.73</ele>
  <time>2026-09-02T22:08:06Z</time>
  <course>209.54</course>
  <speed>1.0</speed>
  <fix>3d</fix>
</trkpt>
<trkpt lat="33.810067" lon="-118.3940356">
  <ele>-26.228</ele>
  <time>2026-09-02T22:08:06Z</time>
  <course>210.56</course>
  <speed>0.9724710792614863</speed>
  <fix>3d</fix>
</trkpt>
<trkpt lat="33.8100678" lon="-118.3940349">
  <ele>-25.67</ele>
  <time>2026-09-02T22:08:06Z</time>
  <course>209.55</course>
  <speed>1.0</speed>
  <fix>3d</fix>
</trkpt>
<trkpt lat="33.8100662" lon="-118.3940361">
  <ele>-26.193</ele>
  <time>2026-09-02T22:08:06Z</time>
  <course>210.57</course>
  <speed>0.9724710792614863</speed>
  <fix>3d</fix>
</trkpt>
<trkpt lat="33.8100678" lon="-118.3940349">
  <ele>-25.67</ele>
  <time>2026-09-02T22:08:06Z</time>
  <course>209.55</course>
  <speed>1.0</speed>
  <fix>3d</fix>
</trkpt>
<trkpt lat="33.8100654" lon="-118.3940367">
  <ele>-26.156</ele>
  <time>2026-09-02T22:08:06Z</time>
  <course>210.58</course>
  <speed>0.9724710792614863</speed>
  <fix>3d</fix>
</trkpt>
<trkpt lat="33.8100661" lon="-118.394036">
  <ele>-25.6</ele>
  <time>2026-09-02T22:08:06Z</time>
  <course>209.57</course>
  <speed>1.0</speed>
  <fix>3d</fix>
</trkpt>
<trkpt lat="33.8100647" lon="-118.3940372">
  <ele>-26.12</ele>
  <time>2026-09-02T22:08:06Z</time>
  <course>210.58</course>
  <speed>0.9724710792614863</speed>
  <fix>3d</fix>
</trkpt>
<trkpt lat="33.8100661" lon="-118.394036">
  <ele>-25.6</ele>
  <time>2026-09-02T22:08:06Z</time>
  <course>209.57</course>
  <speed>1.0</speed>
  <fix>3d</fix>
</trkpt>
<trkpt lat="33.8100639" lon="-118.3940377">
  <ele>-26.086</ele>
  <time>2026-09-02T22:08:06Z</time>
  <course>210.59</course>
  <speed>0.9724710792614863</speed>
  <fix>3d</fix>
</trkpt>
<trkpt lat="33.8100646" lon="-118.394037">
  <ele>-25.54</ele>
  <time>2026-09-02T22:08:06Z</time>
  <course>209.59</course>
  <speed>1.0</speed>
  <fix>3d</fix>
</trkpt>
<trkpt lat="33.8100631" lon="-118.3940383">
  <ele>-26.052</ele>
  <time>2026-09-02T22:08:06Z</time>
  <course>210.61</course>
  <speed>0.9638464608017192</speed>
  <fix>3d</fix>
</trkpt>
<trkpt lat="33.8100646" lon="-118.394037">
  <ele>-25.54</ele>
  <time>2026-09-02T22:08:06Z</time>
  <course>209.59</course>
  <speed>1.0</speed>
  <fix>3d</fix>
</trkpt>
<trkpt lat="33.8100623" lon="-118.3940388">
  <ele>-26.02</ele>
  <time>2026-09-02T22:08:06Z</time>
  <course>210.64</course>
  <speed>0.9724710792614863</speed>
  <fix>3d</fix>
</trkpt>
<trkpt lat="33.810063" lon="-118.3940381">
  <ele>-25.47</ele>
  <time>2026-09-02T22:08:06Z</time>
  <course>209.62</course>
  <speed>1.0</speed>
  <fix>3d</fix>
</trkpt>
<trkpt lat="33.8100615" lon="-118.3940393">
  <ele>-25.988</ele>
  <time>2026-09-02T22:08:06Z</time>
  <course>210.65</course>
  <speed>0.9638464608017192</speed>
  <fix>3d</fix>
</trkpt>
<trkpt lat="33.810063" lon="-118.3940381">
  <ele>-25.47</ele>
  <time>2026-09-02T22:08:06Z</time>
  <course>209.62</course>
  <speed>1.0</speed>
  <fix>3d</fix>
</trkpt>
<trkpt lat="33.8100607" lon="-118.3940399">
  <ele>-25.957</ele>
  <time>2026-09-02T22:08:06Z</time>
  <course>210.68</course>
  <speed>0.9638464608017192</speed>
  <fix>3d</fix>
</trkpt>
<trkpt lat="33.8100615" lon="-118.3940392">
  <ele>-25.41</ele>
  <time>2026-09-02T22:08:06Z</time>
  <course>209.67</course>
  <speed>0.99</speed>
  <fix>3d</fix>
</trkpt>
<trkpt lat="33.81006" lon="-118.3940404">
  <ele>-25.927</ele>
  <time>2026-09-02T22:08:06Z</time>
  <course>210.71</course>
  <speed>0.9638464608017192</speed>
  <fix>3d</fix>
</trkpt>
<trkpt lat="33.8100615" lon="-118.3940392">
  <ele>-25.41</ele>
  <time>2026-09-02T22:08:06Z</time>
  <course>209.67</course>
  <speed>0.99</speed>
  <fix>3d</fix>
</trkpt>
<trkpt lat="33.8100592" lon="-118.3940409">
  <ele>-25.899</ele>
  <time>2026-09-02T22:08:06Z</time>
  <course>210.72</course>
  <speed>0.9724710792614863</speed>
  <fix>3d</fix>
</trkpt>
<trkpt lat="33.8100599" lon="-118.3940402">
  <ele>-25.34</ele>
  <time>2026-09-02T22:08:06Z</time>
  <course>209.69</course>
  <speed>0.99</speed>
  <fix>3d</fix>
</trkpt>
<trkpt lat="33.8100584" lon="-118.3940415">
  <ele>-25.872</ele>
  <time>2026-09-02T22:08:07Z</time>
  <course>210.71</course>
  <speed>0.9638464608017192</speed>
  <fix>3d</fix>
</trkpt>
<trkpt lat="33.8100599" lon="-118.3940402">
  <ele>-25.34</ele>
  <time>2026-09-02T22:08:07Z</time>
  <course>209.69</course>
  <speed>0.99</speed>
  <fix>3d</fix>
</trkpt>
<trkpt lat="33.8100576" lon="-118.394042">
  <ele>-25.844</ele>
  <time>2026-09-02T22:08:07Z</time>
  <course>210.72</course>
  <speed>0.9724710792614863</speed>
  <fix>3d</fix>
</trkpt>
<trkpt lat="33.8100584" lon="-118.3940413">
  <ele>-25.29</ele>
  <time>2026-09-02T22:08:07Z</time>
  <course>209.7</course>
  <speed>0.99</speed>
  <fix>3d</fix>
</trkpt>
<trkpt lat="33.8100568" lon="-118.3940425">
  <ele>-25.814</ele>
  <time>2026-09-02T22:08:07Z</time>
  <course>210.73</course>
  <speed>0.9724710792614863</speed>
  <fix>3d</fix>
</trkpt>
<trkpt lat="33.8100584" lon="-118.3940413">
  <ele>-25.29</ele>
  <time>2026-09-02T22:08:07Z</time>
  <course>209.7</course>
  <speed>0.99</speed>
  <fix>3d</fix>
</trkpt>
<trkpt lat="33.8100561" lon="-118.3940431">
  <ele>-25.783</ele>
  <time>2026-09-02T22:08:07Z</time>
  <course>210.73</course>
  <speed>0.9724710792614863</speed>
  <fix>3d</fix>
</trkpt>
<trkpt lat="33.8100568" lon="-118.3940424">
  <ele>-25.24</ele>
  <time>2026-09-02T22:08:07Z</time>
  <course>209.69</course>
  <speed>1.0</speed>
  <fix>3d</fix>
</trkpt>
<trkpt lat="33.8100553" lon="-118.3940436">
  <ele>-25.753</ele>
  <time>2026-09-02T22:08:07Z</time>
  <course>210.72</course>
  <speed>0.9724710792614863</speed>
  <fix>3d</fix>
</trkpt>
<trkpt lat="33.8100568" lon="-118.3940424">
  <ele>-25.24</ele>
  <time>2026-09-02T22:08:07Z</time>
  <course>209.69</course>
  <speed>1.0</speed>
  <fix>3d</fix>
</trkpt>
<trkpt lat="33.8100545" lon="-118.3940441">
  <ele>-25.721</ele>
  <time>2026-09-02T22:08:07Z</time>
  <course>210.71</course>
  <speed>0.9724710792614863</speed>
  <fix>3d</fix>
</trkpt>
<trkpt lat="33.8100553" lon="-118.3940434">
  <ele>-25.17</ele>
  <time>2026-09-02T22:08:07Z</time>
  <course>209.67</course>
  <speed>1.0</speed>
  <fix>3d</fix>
</trkpt>
<trkpt lat="33.8100537" lon="-118.3940447">
  <ele>-25.689</ele>
  <time>2026-09-02T22:08:07Z</time>
  <course>210.7</course>
  <speed>0.9724710792614863</speed>
  <fix>3d</fix>
</trkpt>
<trkpt lat="33.8100553" lon="-118.3940434">
  <ele>-25.17</ele>
  <time>2026-09-02T22:08:07Z</time>
  <course>209.67</course>
  <speed>1.0</speed>
  <fix>3d</fix>
</trkpt>
<trkpt lat="33.8100529" lon="-118.3940452">
  <ele>-25.659</ele>
  <time>2026-09-02T22:08:07Z</time>
  <course>210.69</course>
  <speed>0.9724710792614863</speed>
  <fix>3d</fix>
</trkpt>
<trkpt lat="33.8100537" lon="-118.3940445">
  <ele>-25.11</ele>
  <time>2026-09-02T22:08:07Z</time>
  <course>209.66</course>
  <speed>1.0</speed>
  <fix>3d</fix>
</trkpt>
<trkpt lat="33.8100522" lon="-118.3940457">
  <ele>-25.631</ele>
  <time>2026-09-02T22:08:07Z</time>
  <course>210.69</course>
  <speed>0.9724710792614863</speed>
  <fix>3d</fix>
</trkpt>
<trkpt lat="33.8100537" lon="-118.3940445">
  <ele>-25.11</ele>
  <time>2026-09-02T22:08:07Z</time>
  <course>209.66</course>
  <speed>1.0</speed>
  <fix>3d</fix>
</trkpt>
<trkpt lat="33.8100514" lon="-118.3940463">
  <ele>-25.601</ele>
  <time>2026-09-02T22:08:07Z</time>
  <course>210.68</course>
  <speed>0.9724710792614863</speed>
  <fix>3d</fix>
</trkpt>
<trkpt lat="33.8100521" lon="-118.3940456">
  <ele>-25.05</ele>
  <time>2026-09-02T22:08:07Z</time>
  <course>209.67</course>
  <speed>1.0</speed>
  <fix>3d</fix>
</trkpt>
<trkpt lat="33.8100506" lon="-118.3940468">
  <ele>-25.569</ele>
  <time>2026-09-02T22:08:07Z</time>
  <course>210.67</course>
  <speed>0.9724710792614863</speed>
  <fix>3d</fix>
</trkpt>
<trkpt lat="33.8100521" lon="-118.3940456">
  <ele>-25.05</ele>
  <time>2026-09-02T22:08:07Z</time>
  <course>209.67</course>
  <speed>1.0</speed>
  <fix>3d</fix>
</trkpt>
<trkpt lat="33.8100498" lon="-118.3940474">
  <ele>-25.535</ele>
  <time>2026-09-02T22:08:07Z</time>
  <course>210.67</course>
  <speed>0.9724710792614863</speed>
  <fix>3d</fix>
</trkpt>
<trkpt lat="33.8100505" lon="-118.3940467">
  <ele>-25.0</ele>
  <time>2026-09-02T22:08:07Z</time>
  <course>209.68</course>
  <speed>1.0</speed>
  <fix>3d</fix>
</trkpt>
<trkpt lat="33.810049" lon="-118.3940479">
  <ele>-25.5</ele>
  <time>2026-09-02T22:08:07Z</time>
  <course>210.66</course>
  <speed>0.9724710792614863</speed>
  <fix>3d</fix>
</trkpt>
<trkpt lat="33.8100505" lon="-118.3940467">
  <ele>-25.0</ele>
  <time>2026-09-02T22:08:07Z</time>
  <course>209.68</course>
  <speed>1.0</speed>
  <fix>3d</fix>
</trkpt>
<trkpt lat="33.8100482" lon="-118.3940484">
  <ele>-25.464</ele>
  <time>2026-09-02T22:08:07Z</time>
  <course>210.66</course>
  <speed>0.9724710792614863</speed>
  <fix>3d</fix>
</trkpt>
<trkpt lat="33.810049" lon="-118.3940477">
  <ele>-24.93</ele>
  <time>2026-09-02T22:08:07Z</time>
  <course>209.67</course>
  <speed>1.0</speed>
  <fix>3d</fix>
</trkpt>
<trkpt lat="33.8100475" lon="-118.394049">
  <ele>-25.427</ele>
  <time>2026-09-02T22:08:07Z</time>
  <course>210.65</course>
  <speed>0.9638464608017192</speed>
  <fix>3d</fix>
</trkpt>
<trkpt lat="33.810049" lon="-118.3940477">
  <ele>-24.93</ele>
  <time>2026-09-02T22:08:07Z</time>
  <course>209.67</course>
  <speed>1.0</speed>
  <fix>3d</fix>
</trkpt>
<trkpt lat="33.8100467" lon="-118.3940495">
  <ele>-25.388</ele>
  <time>2026-09-02T22:08:07Z</time>
  <course>210.66</course>
  <speed>0.9724710792614863</speed>
  <fix>3d</fix>
</trkpt>
<trkpt lat="33.8100474" lon="-118.3940488">
  <ele>-24.86</ele>
  <time>2026-09-02T22:08:07Z</time>
  <course>209.67</course>
  <speed>1.0</speed>
  <fix>3d</fix>
</trkpt>
<trkpt lat="33.8100459" lon="-118.39405">
  <ele>-25.35</ele>
  <time>2026-09-02T22:08:07Z</time>
  <course>210.66</course>
  <speed>0.9638464608017192</speed>
  <fix>3d</fix>
</trkpt>
<trkpt lat="33.8100474" lon="-118.3940488">
  <ele>-24.86</ele>
  <time>2026-09-02T22:08:07Z</time>
  <course>209.67</course>
  <speed>1.0</speed>
  <fix>3d</fix>
</trkpt>
<trkpt lat="33.8100451" lon="-118.3940506">
  <ele>-25.312</ele>
  <time>2026-09-02T22:08:07Z</time>
  <course>210.66</course>
  <speed>0.9724710792614863</speed>
  <fix>3d</fix>
</trkpt>
<trkpt lat="33.8100459" lon="-118.3940499">
  <ele>-24.79</ele>
  <time>2026-09-02T22:08:07Z</time>
  <course>209.68</course>
  <speed>1.0</speed>
  <fix>3d</fix>
</trkpt>
<trkpt lat="33.8100443" lon="-118.3940511">
  <ele>-25.274</ele>
  <time>2026-09-02T22:08:07Z</time>
  <course>210.67</course>
  <speed>0.9724710792614863</speed>
  <fix>3d</fix>
</trkpt>
<trkpt lat="33.8100459" lon="-118.3940499">
  <ele>-24.79</ele>
  <time>2026-09-02T22:08:07Z</time>
  <course>209.68</course>
  <speed>1.0</speed>
  <fix>3d</fix>
</trkpt>
<trkpt lat="33.8100436" lon="-118.3940516">
  <ele>-25.239</ele>
  <time>2026-09-02T22:08:07Z</time>
  <course>210.66</course>
  <speed>0.9724710792614863</speed>
  <fix>3d</fix>
</trkpt>
<trkpt lat="33.8100443" lon="-118.394051">
  <ele>-24.71</ele>
  <time>2026-09-02T22:08:07Z</time>
  <course>209.67</course>
  <speed>1.0</speed>
  <fix>3d</fix>
</trkpt>
<trkpt lat="33.8100428" lon="-118.3940522">
  <ele>-25.203</ele>
  <time>2026-09-02T22:08:07Z</time>
  <course>210.64</course>
  <speed>0.9724710792614863</speed>
  <fix>3d</fix>
</trkpt>
<trkpt lat="33.8100443" lon="-118.394051">
  <ele>-24.71</ele>
  <time>2026-09-02T22:08:07Z</time>
  <course>209.67</course>
  <speed>1.0</speed>
  <fix>3d</fix>
</trkpt>
<trkpt lat="33.810042" lon="-118.3940527">
  <ele>-25.165</ele>
  <time>2026-09-02T22:08:07Z</time>
  <course>210.6</course>
  <speed>0.9724710792614863</speed>
  <fix>3d</fix>
</trkpt>
<trkpt lat="33.8100428" lon="-118.394052">
  <ele>-24.64</ele>
  <time>2026-09-02T22:08:07Z</time>
  <course>209.62</course>
  <speed>1.0</speed>
  <fix>3d</fix>
</trkpt>
<trkpt lat="33.8100412" lon="-118.3940532">
  <ele>-25.125</ele>
  <time>2026-09-02T22:08:07Z</time>
  <course>210.58</course>
  <speed>0.9724710792614863</speed>
  <fix>3d</fix>
</trkpt>
<trkpt lat="33.8100428" lon="-118.394052">
  <ele>-24.64</ele>
  <time>2026-09-02T22:08:07Z</time>
  <course>209.62</course>
  <speed>1.0</speed>
  <fix>3d</fix>
</trkpt>
<trkpt lat="33.8100404" lon="-118.3940538">
  <ele>-25.085</ele>
  <time>2026-09-02T22:08:07Z</time>
  <course>210.56</course>
  <speed>0.9724710792614863</speed>
  <fix>3d</fix>
</trkpt>
<trkpt lat="33.8100412" lon="-118.3940531">
  <ele>-24.57</ele>
  <time>2026-09-02T22:08:07Z</time>
  <course>209.58</course>
  <speed>1.0</speed>
  <fix>3d</fix>
</trkpt>
<trkpt lat="33.8100396" lon="-118.3940543">
  <ele>-25.047</ele>
  <time>2026-09-02T22:08:07Z</time>
  <course>210.54</course>
  <speed>0.9724710792614863</speed>
  <fix>3d</fix>
</trkpt>
<trkpt lat="33.8100412" lon="-118.3940531">
  <ele>-24.57</ele>
  <time>2026-09-02T22:08:07Z</time>
  <course>209.58</course>
  <speed>1.0</speed>
  <fix>3d</fix>
</trkpt>
<trkpt lat="33.8100389" lon="-118.3940548">
  <ele>-25.013</ele>
  <time>2026-09-02T22:08:07Z</time>
  <course>210.53</course>
  <speed>0.9724710792614863</speed>
  <fix>3d</fix>
</trkpt>
<trkpt lat="33.8100396" lon="-118.3940542">
  <ele>-24.49</ele>
  <time>2026-09-02T22:08:07Z</time>
  <course>209.56</course>
  <speed>1.0</speed>
  <fix>3d</fix>
</trkpt>
<trkpt lat="33.8100381" lon="-118.3940554">
  <ele>-24.984</ele>
  <time>2026-09-02T22:08:07Z</time>
  <course>210.52</course>
  <speed>0.9724710792614863</speed>
  <fix>3d</fix>
</trkpt>
<trkpt lat="33.8100396" lon="-118.3940542">
  <ele>-24.49</ele>
  <time>2026-09-02T22:08:07Z</time>
  <course>209.56</course>
  <speed>1.0</speed>
  <fix>3d</fix>
</trkpt>
<trkpt lat="33.8100373" lon="-118.3940559">
  <ele>-24.957</ele>
  <time>2026-09-02T22:08:07Z</time>
  <course>210.51</course>
  <speed>0.9724710792614863</speed>
  <fix>3d</fix>
</trkpt>
<trkpt lat="33.8100381" lon="-118.3940552">
  <ele>-24.43</ele>
  <time>2026-09-02T22:08:07Z</time>
  <course>209.55</course>
  <speed>1.0</speed>
  <fix>3d</fix>
</trkpt>
<trkpt lat="33.8100365" lon="-118.3940565">
  <ele>-24.934</ele>
  <time>2026-09-02T22:08:07Z</time>
  <course>210.5</course>
  <speed>0.9724710792614863</speed>
  <fix>3d</fix>
</trkpt>
<trkpt lat="33.8100381" lon="-118.3940552">
  <ele>-24.43</ele>
  <time>2026-09-02T22:08:07Z</time>
  <course>209.55</course>
  <speed>1.0</speed>
  <fix>3d</fix>
</trkpt>
<trkpt lat="33.8100357" lon="-118.394057">
  <ele>-24.913</ele>
  <time>2026-09-02T22:08:07Z</time>
  <course>210.5</course>
  <speed>0.9724710792614863</speed>
  <fix>3d</fix>
</trkpt>
<trkpt lat="33.8100364" lon="-118.3940563">
  <ele>-24.37</ele>
  <time>2026-09-02T22:08:07Z</time>
  <course>209.56</course>
  <speed>1.0</speed>
  <fix>3d</fix>
</trkpt>
<trkpt lat="33.8100349" lon="-118.3940575">
  <ele>-24.895</ele>
  <time>2026-09-02T22:08:07Z</time>
  <course>210.51</course>
  <speed>0.9724710792614863</speed>
  <fix>3d</fix>
</trkpt>
<trkpt lat="33.8100364" lon="-118.3940563">
  <ele>-24.37</ele>
  <time>2026-09-02T22:08:07Z</time>
  <course>209.56</course>
  <speed>1.0</speed>
  <fix>3d</fix>
</trkpt>
<trkpt lat="33.8100342" lon="-118.3940581">
  <ele>-24.886</ele>
  <time>2026-09-02T22:08:07Z</time>
  <course>210.53</course>
  <speed>0.9724710792614863</speed>
  <fix>3d</fix>
</trkpt>
<trkpt lat="33.8100349" lon="-118.3940574">
  <ele>-24.33</ele>
  <time>2026-09-02T22:08:07Z</time>
  <course>209.61</course>
  <speed>1.0</speed>
  <fix>3d</fix>
</trkpt>
<trkpt lat="33.8100334" lon="-118.3940586">
  <ele>-24.889</ele>
  <time>2026-09-02T22:08:07Z</time>
  <course>210.55</course>
  <speed>0.9638464608017192</speed>
  <fix>3d</fix>
</trkpt>
<trkpt lat="33.8100349" lon="-118.3940574">
  <ele>-24.33</ele>
  <time>2026-09-02T22:08:07Z</time>
  <course>209.61</course>
  <speed>1.0</speed>
  <fix>3d</fix>
</trkpt>
<trkpt lat="33.8100326" lon="-118.3940591">
  <ele>-24.901</ele>
  <time>2026-09-02T22:08:07Z</time>
  <course>210.56</course>
  <speed>0.9724710792614863</speed>
  <fix>3d</fix>
</trkpt>
<trkpt lat="33.8100333" lon="-118.3940584">
  <ele>-24.31</ele>
  <time>2026-09-02T22:08:07Z</time>
  <course>209.68</course>
  <speed>0.99</speed>
  <fix>3d</fix>
</trkpt>
<trkpt lat="33.8100318" lon="-118.3940597">
  <ele>-24.923</ele>
  <time>2026-09-02T22:08:07Z</time>
  <course>210.58</course>
  <speed>0.9638464608017192</speed>
  <fix>3d</fix>
</trkpt>
<trkpt lat="33.8100333" lon="-118.3940584">
  <ele>-24.31</ele>
  <time>2026-09-02T22:08:07Z</time>
  <course>209.68</course>
  <speed>0.99</speed>
  <fix>3d</fix>
</trkpt>
<trkpt lat="33.810031" lon="-118.3940602">
  <ele>-24.95</ele>
  <time>2026-09-02T22:08:07Z</time>
  <course>210.59</course>
  <speed>0.9724710792614863</speed>
  <fix>3d</fix>
</trkpt>
<trkpt lat="33.8100318" lon="-118.3940595">
  <ele>-24.33</ele>
  <time>2026-09-02T22:08:07Z</time>
  <course>209.73</course>
  <speed>0.99</speed>
  <fix>3d</fix>
</trkpt>
<trkpt lat="33.8100303" lon="-118.3940607">
  <ele>-24.979</ele>
  <time>2026-09-02T22:08:07Z</time>
  <course>210.61</course>
  <speed>0.9638464608017192</speed>
  <fix>3d</fix>
</trkpt>
<trkpt lat="33.8100318" lon="-118.3940595">
  <ele>-24.33</ele>
  <time>2026-09-02T22:08:07Z</time>
  <course>209.73</course>
  <speed>0.99</speed>
  <fix>3d</fix>
</trkpt>
<trkpt lat="33.8100295" lon="-118.3940613">
  <ele>-25.009</ele>
  <time>2026-09-02T22:08:07Z</time>
  <course>210.61</course>
  <speed>0.9724710792614863</speed>
  <fix>3d</fix>
</trkpt>
<trkpt lat="33.8100302" lon="-118.3940606">
  <ele>-24.37</ele>
  <time>2026-09-02T22:08:07Z</time>
  <course>209.75</course>
  <speed>0.99</speed>
  <fix>3d</fix>
</trkpt>
<trkpt lat="33.8100287" lon="-118.3940618">
  <ele>-25.038</ele>
  <time>2026-09-02T22:08:07Z</time>
  <course>210.61</course>
  <speed>0.9638464608017192</speed>
  <fix>3d</fix>
</trkpt>
<trkpt lat="33.8100302" lon="-118.3940606">
  <ele>-24.37</ele>
  <time>2026-09-02T22:08:07Z</time>
  <course>209.75</course>
  <speed>0.99</speed>
  <fix>3d</fix>
</trkpt>
<trkpt lat="33.8100279" lon="-118.3940623">
  <ele>-25.065</ele>
  <time>2026-09-02T22:08:07Z</time>
  <course>210.6</course>
  <speed>0.9724710792614863</speed>
  <fix>3d</fix>
</trkpt>
<trkpt lat="33.8100287" lon="-118.3940616">
  <ele>-24.42</ele>
  <time>2026-09-02T22:08:07Z</time>
  <course>209.73</course>
  <speed>0.99</speed>
  <fix>3d</fix>
</trkpt>
<trkpt lat="33.8100271" lon="-118.3940629">
  <ele>-25.092</ele>
  <time>2026-09-02T22:08:07Z</time>
  <course>210.59</course>
  <speed>0.9724710792614863</speed>
  <fix>3d</fix>
</trkpt>
<trkpt lat="33.8100287" lon="-118.3940616">
  <ele>-24.42</ele>
  <time>2026-09-02T22:08:07Z</time>
  <course>209.73</course>
  <speed>0.99</speed>
  <fix>3d</fix>
</trkpt>
<trkpt lat="33.8100263" lon="-118.3940634">
  <ele>-25.117</ele>
  <time>2026-09-02T22:08:07Z</time>
  <course>210.58</course>
  <speed>0.9724710792614863</speed>
  <fix>3d</fix>
</trkpt>
<trkpt lat="33.8100271" lon="-118.3940627">
  <ele>-24.47</ele>
  <time>2026-09-02T22:08:07Z</time>
  <course>209.71</course>
  <speed>0.99</speed>
  <fix>3d</fix>
</trkpt>
<trkpt lat="33.8100256" lon="-118.3940639">
  <ele>-25.141</ele>
  <time>2026-09-02T22:08:07Z</time>
  <course>210.57</course>
  <speed>0.9724710792614863</speed>
  <fix>3d</fix>
</trkpt>
<trkpt lat="33.8100271" lon="-118.3940627">
  <ele>-24.47</ele>
  <time>2026-09-02T22:08:07Z</time>
  <course>209.71</course>
  <speed>0.99</speed>
  <fix>3d</fix>
</trkpt>
<trkpt lat="33.8100248" lon="-118.3940645">
  <ele>-25.163</ele>
  <time>2026-09-02T22:08:07Z</time>
  <course>210.57</course>
  <speed>0.9724710792614863</speed>
  <fix>3d</fix>
</trkpt>
<trkpt lat="33.8100256" lon="-118.3940638">
  <ele>-24.52</ele>
  <time>2026-09-02T22:08:07Z</time>
  <course>209.68</course>
  <speed>1.0</speed>
  <fix>3d</fix>
</trkpt>
<trkpt lat="33.810024" lon="-118.394065">
  <ele>-25.182</ele>
  <time>2026-09-02T22:08:07Z</time>
  <course>210.55</course>
  <speed>0.9724710792614863</speed>
  <fix>3d</fix>
</trkpt>
<trkpt lat="33.8100256" lon="-118.3940638">
  <ele>-24.52</ele>
  <time>2026-09-02T22:08:07Z</time>
  <course>209.68</course>
  <speed>1.0</speed>
  <fix>3d</fix>
</trkpt>
<trkpt lat="33.8100232" lon="-118.3940655">
  <ele>-25.195</ele>
  <time>2026-09-02T22:08:07Z</time>
  <course>210.54</course>
  <speed>0.9724710792614863</speed>
  <fix>3d</fix>
</trkpt>
<trkpt lat="33.810024" lon="-118.3940649">
  <ele>-24.56</ele>
  <time>2026-09-02T22:08:07Z</time>
  <course>209.65</course>
  <speed>1.0</speed>
  <fix>3d</fix>
</trkpt>
<trkpt lat="33.8100225" lon="-118.3940661">
  <ele>-25.202</ele>
  <time>2026-09-02T22:08:07Z</time>
  <course>210.52</course>
  <speed>0.9724710792614863</speed>
  <fix>3d</fix>
</trkpt>
<trkpt lat="33.810024" lon="-118.3940649">
  <ele>-24.56</ele>
  <time>2026-09-02T22:08:07Z</time>
  <course>209.65</course>
  <speed>1.0</speed>
  <fix>3d</fix>
</trkpt>
<trkpt lat="33.8100217" lon="-118.3940666">
  <ele>-25.201</ele>
  <time>2026-09-02T22:08:07Z</time>
  <course>210.5</course>
  <speed>0.9724710792614863</speed>
  <fix>3d</fix>
</trkpt>
<trkpt lat="33.8100225" lon="-118.3940659">
  <ele>-24.58</ele>
  <time>2026-09-02T22:08:07Z</time>
  <course>209.58</course>
  <speed>1.0</speed>
  <fix>3d</fix>
</trkpt>
<trkpt lat="33.8100209" lon="-118.3940671">
  <ele>-25.193</ele>
  <time>2026-09-02T22:08:07Z</time>
  <course>210.47</course>
  <speed>0.9724710792614863</speed>
  <fix>3d</fix>
</trkpt>
<trkpt lat="33.8100225" lon="-118.3940659">
  <ele>-24.58</ele>
  <time>2026-09-02T22:08:07Z</time>
  <course>209.58</course>
  <speed>1.0</speed>
  <fix>3d</fix>
</trkpt>
<trkpt lat="33.8100201" lon="-118.3940677">
  <ele>-25.175</ele>
  <time>2026-09-02T22:08:07Z</time>
  <course>210.45</course>
  <speed>0.9724710792614863</speed>
  <fix>3d</fix>
</trkpt>
<trkpt lat="33.8100209" lon="-118.394067">
  <ele>-24.58</ele>
  <time>2026-09-02T22:08:07Z</time>
  <course>209.52</course>
  <speed>1.0</speed>
  <fix>3d</fix>
</trkpt>
<trkpt lat="33.8100193" lon="-118.3940682">
  <ele>-25.151</ele>
  <time>2026-09-02T22:08:07Z</time>
  <course>210.43</course>
  <speed>0.9724710792614863</speed>
  <fix>3d</fix>
</trkpt>
<trkpt lat="33.8100209" lon="-118.394067">
  <ele>-24.58</ele>
  <time>2026-09-02T22:08:07Z</time>
  <course>209.52</course>
  <speed>1.0</speed>
  <fix>3d</fix>
</trkpt>
<trkpt lat="33.8100186" lon="-118.3940687">
  <ele>-25.126</ele>
  <time>2026-09-02T22:08:07Z</time>
  <course>210.43</course>
  <speed>0.9724710792614863</speed>
  <fix>3d</fix>
</trkpt>
<trkpt lat="33.8100192" lon="-118.3940681">
  <ele>-24.55</ele>
  <time>2026-09-02T22:08:07Z</time>
  <course>209.5</course>
  <speed>1.0</speed>
  <fix>3d</fix>
</trkpt>
<trkpt lat="33.8100178" lon="-118.3940693">
  <ele>-25.1</ele>
  <time>2026-09-02T22:08:07Z</time>
  <course>210.42</course>
  <speed>0.9724710792614863</speed>
  <fix>3d</fix>
</trkpt>
<trkpt lat="33.8100192" lon="-118.3940681">
  <ele>-24.55</ele>
  <time>2026-09-02T22:08:07Z</time>
  <course>209.5</course>
  <speed>1.0</speed>
  <fix>3d</fix>
</trkpt>
<trkpt lat="33.810017" lon="-118.3940698">
  <ele>-25.072</ele>
  <time>2026-09-02T22:08:07Z</time>
  <course>210.43</course>
  <speed>0.9724710792614863</speed>
  <fix>3d</fix>
</trkpt>
<trkpt lat="33.8100177" lon="-118.3940691">
  <ele>-24.5</ele>
  <time>2026-09-02T22:08:07Z</time>
  <course>209.5</course>
  <speed>1.0</speed>
  <fix>3d</fix>
</trkpt>
<trkpt lat="33.8100162" lon="-118.3940703">
  <ele>-25.042</ele>
  <time>2026-09-02T22:08:07Z</time>
  <course>210.46</course>
  <speed>0.9724710792614863</speed>
  <fix>3d</fix>
</trkpt>
<trkpt lat="33.8100177" lon="-118.3940691">
  <ele>-24.5</ele>
  <time>2026-09-02T22:08:07Z</time>
  <course>209.5</course>
  <speed>1.0</speed>
  <fix>3d</fix>
</trkpt>
<trkpt lat="33.8100154" lon="-118.3940709">
  <ele>-25.014</ele>
  <time>2026-09-02T22:08:07Z</time>
  <course>210.49</course>
  <speed>0.9724710792614863</speed>
  <fix>3d</fix>
</trkpt>
<trkpt lat="33.8100162" lon="-118.3940702">
  <ele>-24.45</ele>
  <time>2026-09-02T22:08:07Z</time>
  <course>209.55</course>
  <speed>1.0</speed>
  <fix>3d</fix>
</trkpt>
<trkpt lat="33.8100146" lon="-118.3940714">
  <ele>-24.988</ele>
  <time>2026-09-02T22:08:07Z</time>
  <course>210.52</course>
  <speed>0.9724710792614863</speed>
  <fix>3d</fix>
</trkpt>
<trkpt lat="33.8100162" lon="-118.3940702">
  <ele>-24.45</ele>
  <time>2026-09-02T22:08:07Z</time>
  <course>209.55</course>
  <speed>1.0</speed>
  <fix>3d</fix>
</trkpt>
<trkpt lat="33.8100139" lon="-118.3940719">
  <ele>-24.969</ele>
  <time>2026-09-02T22:08:07Z</time>
  <course>210.54</course>
  <speed>0.9724710792614863</speed>
  <fix>3d</fix>
</trkpt>
<trkpt lat="33.8100146" lon="-118.3940713">
  <ele>-24.41</ele>
  <time>2026-09-02T22:08:07Z</time>
  <course>209.59</course>
  <speed>1.0</speed>
  <fix>3d</fix>
</trkpt>
<trkpt lat="33.8100131" lon="-118.3940725">
  <ele>-24.956</ele>
  <time>2026-09-02T22:08:07Z</time>
  <course>210.54</course>
  <speed>0.9724710792614863</speed>
  <fix>3d</fix>
</trkpt>
<trkpt lat="33.8100146" lon="-118.3940713">
  <ele>-24.41</ele>
  <time>2026-09-02T22:08:07Z</time>
  <course>209.59</course>
  <speed>1.0</speed>
  <fix>3d</fix>
</trkpt>
<trkpt lat="33.8100123" lon="-118.394073">
  <ele>-24.947</ele>
  <time>2026-09-02T22:08:07Z</time>
  <course>210.55</course>
  <speed>0.9501578816175763</speed>
  <fix>3d</fix>
</trkpt>
<trkpt lat="33.810013" lon="-118.3940724">
  <ele>-24.37</ele>
  <time>2026-09-02T22:08:07Z</time>
  <course>209.59</course>
  <speed>1.0</speed>
  <fix>3d</fix>
</trkpt>
<trkpt lat="33.8100116" lon="-118.3940735">
  <ele>-24.942</ele>
  <time>2026-09-02T22:08:07Z</time>
  <course>210.56</course>
  <speed>0.9055385138137417</speed>
  <fix>3d</fix>
</trkpt>
<trkpt lat="33.810013" lon="-118.3940724">
  <ele>-24.37</ele>
  <time>2026-09-02T22:08:07Z</time>
  <course>209.59</course>
  <speed>1.0</speed>
  <fix>3d</fix>
</trkpt>
<trkpt lat="33.8100108" lon="-118.394074">
  <ele>-24.95</ele>
  <time>2026-09-02T22:08:07Z</time>
  <course>210.59</course>
  <speed>0.914166286842826</speed>
  <fix>3d</fix>
</trkpt>
<trkpt lat="33.8100114" lon="-118.3940735">
  <ele>-24.36</ele>
  <time>2026-09-02T22:08:07Z</time>
  <course>209.61</course>
  <speed>0.97</speed>
  <fix>3d</fix>
</trkpt>
<trkpt lat="33.8100101" lon="-118.3940745">
  <ele>-24.965</ele>
  <time>2026-09-02T22:08:07Z</time>
  <course>210.61</course>
  <speed>0.9192388155425119</speed>
  <fix>3d</fix>
</trkpt>
<trkpt lat="33.8100114" lon="-118.3940735">
  <ele>-24.36</ele>
  <time>2026-09-02T22:08:07Z</time>
  <course>209.61</course>
  <speed>0.97</speed>
  <fix>3d</fix>
</trkpt>
<trkpt lat="33.8100093" lon="-118.394075">
  <ele>-24.985</ele>
  <time>2026-09-02T22:08:07Z</time>
  <course>210.6</course>
  <speed>0.9278469701410895</speed>
  <fix>3d</fix>
</trkpt>
<trkpt lat="33.81001" lon="-118.3940744">
  <ele>-24.36</ele>
  <time>2026-09-02T22:08:07Z</time>
  <course>209.61</course>
  <speed>0.94</speed>
  <fix>3d</fix>
</trkpt>
<trkpt lat="33.8100086" lon="-118.3940756">
  <ele>-25.007</ele>
  <time>2026-09-02T22:08:07Z</time>
  <course>210.58</course>
  <speed>0.9278469701410895</speed>
  <fix>3d</fix>
</trkpt>
<trkpt lat="33.81001" lon="-118.3940744">
  <ele>-24.36</ele>
  <time>2026-09-02T22:08:07Z</time>
  <course>209.61</course>
  <speed>0.94</speed>
  <fix>3d</fix>
</trkpt>
<trkpt lat="33.8100078" lon="-118.3940761">
  <ele>-25.031</ele>
  <time>2026-09-02T22:08:07Z</time>
  <course>210.56</course>
  <speed>0.914166286842826</speed>
  <fix>3d</fix>
</trkpt>
<trkpt lat="33.8100085" lon="-118.3940755">
  <ele>-24.4</ele>
  <time>2026-09-02T22:08:07Z</time>
  <course>209.59</course>
  <speed>0.95</speed>
  <fix>3d</fix>
</trkpt>
<trkpt lat="33.8100071" lon="-118.3940766">
  <ele>-25.053</ele>
  <time>2026-09-02T22:08:07Z</time>
  <course>210.57</course>
  <speed>0.8695401083331349</speed>
  <fix>3d</fix>
</trkpt>
<trkpt lat="33.8100085" lon="-118.3940755">
  <ele>-24.4</ele>
  <time>2026-09-02T22:08:07Z</time>
  <course>209.59</course>
  <speed>0.95</speed>
  <fix>3d</fix>
</trkpt>
<trkpt lat="33.8100064" lon="-118.394077">
  <ele>-25.075</ele>
  <time>2026-09-02T22:08:07Z</time>
  <course>210.62</course>
  <speed>0.8832326986700617</speed>
  <fix>3d</fix>
</trkpt>
<trkpt lat="33.810007" lon="-118.3940765">
  <ele>-24.45</ele>
  <time>2026-09-02T22:08:07Z</time>
  <course>209.61</course>
  <speed>0.93</speed>
  <fix>3d</fix>
</trkpt>
<trkpt lat="33.8100057" lon="-118.3940775">
  <ele>-25.096</ele>
  <time>2026-09-02T22:08:07Z</time>
  <course>210.62</course>
  <speed>0.8969392398596462</speed>
  <fix>3d</fix>
</trkpt>
<trkpt lat="33.810007" lon="-118.3940765">
  <ele>-24.45</ele>
  <time>2026-09-02T22:08:07Z</time>
  <course>209.61</course>
  <speed>0.93</speed>
  <fix>3d</fix>
</trkpt>
<trkpt lat="33.810005" lon="-118.394078">
  <ele>-25.117</ele>
  <time>2026-09-02T22:08:07Z</time>
  <course>210.6</course>
  <speed>0.9055385138137417</speed>
  <fix>3d</fix>
</trkpt>
<trkpt lat="33.8100055" lon="-118.3940775">
  <ele>-24.49</ele>
  <time>2026-09-02T22:08:07Z</time>
  <course>209.58</course>
  <speed>0.91</speed>
  <fix>3d</fix>
</trkpt>
<trkpt lat="33.8100042" lon="-118.3940786">
  <ele>-25.135</ele>
  <time>2026-09-02T22:08:07Z</time>
  <course>210.58</course>
  <speed>0.914166286842826</speed>
  <fix>3d</fix>
</trkpt>
<trkpt lat="33.8100055" lon="-118.3940775">
  <ele>-24.49</ele>
  <time>2026-09-02T22:08:07Z</time>
  <course>209.58</course>
  <speed>0.91</speed>
  <fix>3d</fix>
</trkpt>
<trkpt lat="33.8100035" lon="-118.3940791">
  <ele>-25.145</ele>
  <time>2026-09-02T22:08:07Z</time>
  <course>210.56</course>
  <speed>0.9278469701410895</speed>
  <fix>3d</fix>
</trkpt>
<trkpt lat="33.8100041" lon="-118.3940785">
  <ele>-24.52</ele>
  <time>2026-09-02T22:08:07Z</time>
  <course>209.54</course>
  <speed>0.93</speed>
  <fix>3d</fix>
</trkpt>
<trkpt lat="33.8100027" lon="-118.3940796">
  <ele>-25.147</ele>
  <time>2026-09-02T22:08:07Z</time>
  <course>210.55</course>
  <speed>0.9278469701410895</speed>
  <fix>3d</fix>
</trkpt>
<trkpt lat="33.8100041" lon="-118.3940785">
  <ele>-24.52</ele>
  <time>2026-09-02T22:08:07Z</time>
  <course>209.54</course>
  <speed>0.93</speed>
  <fix>3d</fix>
</trkpt>
<trkpt lat="33.810002" lon="-118.3940801">
  <ele>-25.145</ele>
  <time>2026-09-02T22:08:07Z</time>
  <course>210.54</course>
  <speed>0.9364827814754524</speed>
  <fix>3d</fix>
</trkpt>
<trkpt lat="33.8100026" lon="-118.3940795">
  <ele>-24.54</ele>
  <time>2026-09-02T22:08:07Z</time>
  <course>209.5</course>
  <speed>0.95</speed>
  <fix>3d</fix>
</trkpt>
<trkpt lat="33.8100012" lon="-118.3940806">
  <ele>-25.142</ele>
  <time>2026-09-02T22:08:07Z</time>
  <course>210.52</course>
  <speed>0.9415412895885129</speed>
  <fix>3d</fix>
</trkpt>
<trkpt lat="33.8100026" lon="-118.3940795">
  <ele>-24.54</ele>
  <time>2026-09-02T22:08:07Z</time>
  <course>209.5</course>
  <speed>0.95</speed>
  <fix>3d</fix>
</trkpt>
<trkpt lat="33.8100004" lon="-118.3940811">
  <ele>-25.138</ele>
  <time>2026-09-02T22:08:07Z</time>
  <course>210.51</course>
  <speed>0.9415412895885129</speed>
  <fix>3d</fix>
</trkpt>
<trkpt lat="33.8100011" lon="-118.3940805">
  <ele>-24.53</ele>
  <time>2026-09-02T22:08:07Z</time>
  <course>209.48</course>
  <speed>0.96</speed>
  <fix>3d</fix>
</trkpt>
<trkpt lat="33.8099997" lon="-118.3940817">
  <ele>-25.131</ele>
  <time>2026-09-02T22:08:07Z</time>
  <course>210.51</course>
  <speed>0.9501578816175763</speed>
  <fix>3d</fix>
</trkpt>
<trkpt lat="33.8100011" lon="-118.3940805">
  <ele>-24.53</ele>
  <time>2026-09-02T22:08:07Z</time>
  <course>209.48</course>
  <speed>0.96</speed>
  <fix>3d</fix>
</trkpt>
<trkpt lat="33.8099989" lon="-118.3940822">
  <ele>-25.117</ele>
  <time>2026-09-02T22:08:07Z</time>
  <course>210.51</course>
  <speed>0.9501578816175763</speed>
  <fix>3d</fix>
</trkpt>
<trkpt lat="33.8099996" lon="-118.3940815">
  <ele>-24.52</ele>
  <time>2026-09-02T22:08:07Z</time>
  <course>209.48</course>
  <speed>0.97</speed>
  <fix>3d</fix>
</trkpt>
<trkpt lat="33.8099981" lon="-118.3940827">
  <ele>-25.103</ele>
  <time>2026-09-02T22:08:07Z</time>
  <course>210.52</course>
  <speed>0.9501578816175763</speed>
  <fix>3d</fix>
</trkpt>
<trkpt lat="33.8099996" lon="-118.3940815">
  <ele>-24.52</ele>
  <time>2026-09-02T22:08:07Z</time>
  <course>209.48</course>
  <speed>0.97</speed>
  <fix>3d</fix>
</trkpt>
<trkpt lat="33.8099974" lon="-118.3940832">
  <ele>-25.089</ele>
  <time>2026-09-02T22:08:07Z</time>
  <course>210.54</course>
  <speed>0.8386298349093002</speed>
  <fix>3d</fix>
</trkpt>
<trkpt lat="33.8099981" lon="-118.3940825">
  <ele>-24.51</ele>
  <time>2026-09-02T22:08:07Z</time>
  <course>209.5</course>
  <speed>0.97</speed>
  <fix>3d</fix>
</trkpt>
<trkpt lat="33.8099968" lon="-118.3940836">
  <ele>-25.078</ele>
  <time>2026-09-02T22:08:07Z</time>
  <course>210.63</course>
  <speed>0.7220110802473879</speed>
  <fix>3d</fix>
</trkpt>
<trkpt lat="33.8099981" lon="-118.3940825">
  <ele>-24.51</ele>
  <time>2026-09-02T22:08:07Z</time>
  <course>209.5</course>
  <speed>0.97</speed>
  <fix>3d</fix>
</trkpt>
<trkpt lat="33.8099962" lon="-118.394084">
  <ele>-25.071</ele>
  <time>2026-09-02T22:08:07Z</time>
  <course>210.84</course>
  <speed>0.7803204469959762</speed>
  <fix>3d</fix>
</trkpt>
<trkpt lat="33.8099967" lon="-118.3940835">
  <ele>-24.49</ele>
  <time>2026-09-02T22:08:07Z</time>
  <course>209.65</course>
  <speed>0.87</speed>
  <fix>3d</fix>
</trkpt>
<trkpt lat="33.8099955" lon="-118.3940845">
  <ele>-25.064</ele>
  <time>2026-09-02T22:08:07Z</time>
  <course>210.98</course>
  <speed>0.8026207074328446</speed>
  <fix>3d</fix>
</trkpt>
<trkpt lat="33.8099967" lon="-118.3940835">
  <ele>-24.49</ele>
  <time>2026-09-02T22:08:07Z</time>
  <course>209.65</course>
  <speed>0.87</speed>
  <fix>3d</fix>
</trkpt>
<trkpt lat="33.8099948" lon="-118.3940849">
  <ele>-25.057</ele>
  <time>2026-09-02T22:08:07Z</time>
  <course>211.01</course>
  <speed>0.8335466393669883</speed>
  <fix>3d</fix>
</trkpt>
<trkpt lat="33.8099954" lon="-118.3940844">
  <ele>-24.47</ele>
  <time>2026-09-02T22:08:07Z</time>
  <course>209.74</course>
  <speed>0.8</speed>
  <fix>3d</fix>
</trkpt>
<trkpt lat="33.8099942" lon="-118.3940854">
  <ele>-25.056</ele>
  <time>2026-09-02T22:08:07Z</time>
  <course>210.98</course>
  <speed>0.8472307831990054</speed>
  <fix>3d</fix>
</trkpt>
<trkpt lat="33.8099954" lon="-118.3940844">
  <ele>-24.47</ele>
  <time>2026-09-02T22:08:07Z</time>
  <course>209.74</course>
  <speed>0.8</speed>
  <fix>3d</fix>
</trkpt>
<trkpt lat="33.8099935" lon="-118.3940859">
  <ele>-25.058</ele>
  <time>2026-09-02T22:08:07Z</time>
  <course>210.93</course>
  <speed>0.8695401083331349</speed>
  <fix>3d</fix>
</trkpt>
<trkpt lat="33.8099941" lon="-118.3940853">
  <ele>-24.46</ele>
  <time>2026-09-02T22:08:07Z</time>
  <course>209.64</course>
  <speed>0.86</speed>
  <fix>3d</fix>
</trkpt>
<trkpt lat="33.8099927" lon="-118.3940864">
  <ele>-25.067</ele>
  <time>2026-09-02T22:08:07Z</time>
  <course>210.88</course>
  <speed>0.8832326986700617</speed>
  <fix>3d</fix>
</trkpt>
<trkpt lat="33.8099941" lon="-118.3940853">
  <ele>-24.46</ele>
  <time>2026-09-02T22:08:07Z</time>
  <course>209.64</course>
  <speed>0.86</speed>
  <fix>3d</fix>
</trkpt>
<trkpt lat="33.809992" lon="-118.3940869">
  <ele>-25.081</ele>
  <time>2026-09-02T22:08:07Z</time>
  <course>210.84</course>
  <speed>0.9055385138137417</speed>
  <fix>3d</fix>
</trkpt>
<trkpt lat="33.8099927" lon="-118.3940862">
  <ele>-24.47</ele>
  <time>2026-09-02T22:08:07Z</time>
  <course>209.59</course>
  <speed>0.89</speed>
  <fix>3d</fix>
</trkpt>
<trkpt lat="33.8099913" lon="-118.3940874">
  <ele>-25.096</ele>
  <time>2026-09-02T22:08:07Z</time>
  <course>210.8</course>
  <speed>0.9055385138137417</speed>
  <fix>3d</fix>
</trkpt>
<trkpt lat="33.8099927" lon="-118.3940862">
  <ele>-24.47</ele>
  <time>2026-09-02T22:08:07Z</time>
  <course>209.59</course>
  <speed>0.89</speed>
  <fix>3d</fix>
</trkpt>
<trkpt lat="33.8099906" lon="-118.3940879">
  <ele>-25.11</ele>
  <time>2026-09-02T22:08:07Z</time>
  <course>210.79</course>
  <speed>0.9192388155425119</speed>
  <fix>3d</fix>
</trkpt>
<trkpt lat="33.8099913" lon="-118.3940872">
  <ele>-24.49</ele>
  <time>2026-09-02T22:08:07Z</time>
  <course>209.59</course>
  <speed>0.92</speed>
  <fix>3d</fix>
</trkpt>
<trkpt lat="33.8099898" lon="-118.3940884">
  <ele>-25.122</ele>
  <time>2026-09-02T22:08:07Z</time>
  <course>210.77</course>
  <speed>0.9278469701410895</speed>
  <fix>3d</fix>
</trkpt>
<trkpt lat="33.8099913" lon="-118.3940872">
  <ele>-24.49</ele>
  <time>2026-09-02T22:08:07Z</time>
  <course>209.59</course>
  <speed>0.92</speed>
  <fix>3d</fix>
</trkpt>
<trkpt lat="33.8099891" lon="-118.3940889">
  <ele>-25.129</ele>
  <time>2026-09-02T22:08:07Z</time>
  <course>210.76</course>
  <speed>0.9415412895885129</speed>
  <fix>3d</fix>
</trkpt>
<trkpt lat="33.8099898" lon="-118.3940882">
  <ele>-24.52</ele>
  <time>2026-09-02T22:08:07Z</time>
  <course>209.6</course>
  <speed>0.94</speed>
  <fix>3d</fix>
</trkpt>
<trkpt lat="33.8099883" lon="-118.3940894">
  <ele>-25.132</ele>
  <time>2026-09-02T22:08:07Z</time>
  <course>210.75</course>
  <speed>0.9415412895885129</speed>
  <fix>3d</fix>
</trkpt>
<trkpt lat="33.8099898" lon="-118.3940882">
  <ele>-24.52</ele>
  <time>2026-09-02T22:08:07Z</time>
  <course>209.6</course>
  <speed>0.94</speed>
  <fix>3d</fix>
</trkpt>
<trkpt lat="33.8099876" lon="-118.3940899">
  <ele>-25.131</ele>
  <time>2026-09-02T22:08:07Z</time>
  <course>210.74</course>
  <speed>0.9501578816175763</speed>
  <fix>3d</fix>
</trkpt>
<trkpt lat="33.8099883" lon="-118.3940892">
  <ele>-24.53</ele>
  <time>2026-09-02T22:08:07Z</time>
  <course>209.59</course>
  <speed>0.96</speed>
  <fix>3d</fix>
</trkpt>
<trkpt lat="33.8099868" lon="-118.3940904">
  <ele>-25.125</ele>
  <time>2026-09-02T22:08:07Z</time>
  <course>210.73</course>
  <speed>0.9501578816175763</speed>
  <fix>3d</fix>
</trkpt>
<trkpt lat="33.8099883" lon="-118.3940892">
  <ele>-24.53</ele>
  <time>2026-09-02T22:08:07Z</time>
  <course>209.59</course>
  <speed>0.96</speed>
  <fix>3d</fix>
</trkpt>
<trkpt lat="33.8099861" lon="-118.3940909">
  <ele>-25.113</ele>
  <time>2026-09-02T22:08:07Z</time>
  <course>210.74</course>
  <speed>0.95524865872714</speed>
  <fix>3d</fix>
</trkpt>
<trkpt lat="33.8099868" lon="-118.3940902">
  <ele>-24.53</ele>
  <time>2026-09-02T22:08:07Z</time>
  <course>209.6</course>
  <speed>0.97</speed>
  <fix>3d</fix>
</trkpt>
<trkpt lat="33.8099853" lon="-118.3940915">
  <ele>-25.099</ele>
  <time>2026-09-02T22:08:07Z</time>
  <course>210.74</course>
  <speed>0.95524865872714</speed>
  <fix>3d</fix>
</trkpt>
<trkpt lat="33.8099868" lon="-118.3940902">
  <ele>-24.53</ele>
  <time>2026-09-02T22:08:07Z</time>
  <course>209.6</course>
  <speed>0.97</speed>
  <fix>3d</fix>
</trkpt>
<trkpt lat="33.8099845" lon="-118.394092">
  <ele>-25.083</ele>
  <time>2026-09-02T22:08:07Z</time>
  <course>210.76</course>
  <speed>0.9638464608017192</speed>
  <fix>3d</fix>
</trkpt>
<trkpt lat="33.8099853" lon="-118.3940913">
  <ele>-24.51</ele>
  <time>2026-09-02T22:08:07Z</time>
  <course>209.63</course>
  <speed>0.98</speed>
  <fix>3d</fix>
</trkpt>
<trkpt lat="33.8099838" lon="-118.3940925">
  <ele>-25.064</ele>
  <time>2026-09-02T22:08:07Z</time>
  <course>210.78</course>
  <speed>0.8695401083331349</speed>
  <fix>3d</fix>
</trkpt>
<trkpt lat="33.8099853" lon="-118.3940913">
  <ele>-24.51</ele>
  <time>2026-09-02T22:08:07Z</time>
  <course>209.63</course>
  <speed>0.98</speed>
  <fix>3d</fix>
</trkpt>
<trkpt lat="33.8099831" lon="-118.394093">
  <ele>-25.046</ele>
  <time>2026-09-02T22:08:07Z</time>
  <course>210.84</course>
  <speed>0.8969392398596462</speed>
  <fix>3d</fix>
</trkpt>
<trkpt lat="33.8099838" lon="-118.3940924">
  <ele>-24.48</ele>
  <time>2026-09-02T22:08:07Z</time>
  <course>209.69</course>
  <speed>0.95</speed>
  <fix>3d</fix>
</trkpt>
<trkpt lat="33.8099823" lon="-118.3940935">
  <ele>-25.031</ele>
  <time>2026-09-02T22:08:07Z</time>
  <course>210.87</course>
  <speed>0.9055385138137417</speed>
  <fix>3d</fix>
</trkpt>
<trkpt lat="33.8099838" lon="-118.3940924">
  <ele>-24.48</ele>
  <time>2026-09-02T22:08:07Z</time>
  <course>209.69</course>
  <speed>0.95</speed>
  <fix>3d</fix>
</trkpt>
<trkpt lat="33.8099816" lon="-118.394094">
  <ele>-25.019</ele>
  <time>2026-09-02T22:08:07Z</time>
  <course>210.86</course>
  <speed>0.9192388155425119</speed>
  <fix>3d</fix>
</trkpt>
<trkpt lat="33.8099823" lon="-118.3940934">
  <ele>-24.44</ele>
  <time>2026-09-02T22:08:07Z</time>
  <course>209.67</course>
  <speed>0.92</speed>
  <fix>3d</fix>
</trkpt>
<trkpt lat="33.8099809" lon="-118.3940945">
  <ele>-25.007</ele>
  <time>2026-09-02T22:08:07Z</time>
  <course>210.8</course>
  <speed>0.9278469701410895</speed>
  <fix>3d</fix>
</trkpt>
<trkpt lat="33.8099823" lon="-118.3940934">
  <ele>-24.44</ele>
  <time>2026-09-02T22:08:07Z</time>
  <course>209.67</course>
  <speed>0.92</speed>
  <fix>3d</fix>
</trkpt>
<trkpt lat="33.8099801" lon="-118.394095">
  <ele>-24.999</ele>
  <time>2026-09-02T22:08:07Z</time>
  <course>210.74</course>
  <speed>0.9415412895885129</speed>
  <fix>3d</fix>
</trkpt>
<trkpt lat="33.8099808" lon="-118.3940944">
  <ele>-24.42</ele>
  <time>2026-09-02T22:08:07Z</time>
  <course>209.57</course>
  <speed>0.95</speed>
  <fix>3d</fix>
</trkpt>
<trkpt lat="33.8099794" lon="-118.3940955">
  <ele>-24.998</ele>
  <time>2026-09-02T22:08:07Z</time>
  <course>210.69</course>
  <speed>0.9415412895885129</speed>
  <fix>3d</fix>
</trkpt>
<trkpt lat="33.8099808" lon="-118.3940944">
  <ele>-24.42</ele>
  <time>2026-09-02T22:08:07Z</time>
  <course>209.57</course>
  <speed>0.95</speed>
  <fix>3d</fix>
</trkpt>
<trkpt lat="33.8099786" lon="-118.3940961">
  <ele>-25.002</ele>
  <time>2026-09-02T22:08:07Z</time>
  <course>210.65</course>
  <speed>0.9501578816175763</speed>
  <fix>3d</fix>
</trkpt>
<trkpt lat="33.8099793" lon="-118.3940954">
  <ele>-24.41</ele>
  <time>2026-09-02T22:08:07Z</time>
  <course>209.53</course>
  <speed>0.96</speed>
  <fix>3d</fix>
</trkpt>
<trkpt lat="33.8099778" lon="-118.3940966">
  <ele>-25.012</ele>
  <time>2026-09-02T22:08:07Z</time>
  <course>210.63</course>
  <speed>0.9501578816175763</speed>
  <fix>3d</fix>
</trkpt>
<trkpt lat="33.8099793" lon="-118.3940954">
  <ele>-24.41</ele>
  <time>2026-09-02T22:08:07Z</time>
  <course>209.53</course>
  <speed>0.96</speed>
  <fix>3d</fix>
</trkpt>
<trkpt lat="33.8099771" lon="-118.3940971">
  <ele>-25.029</ele>
  <time>2026-09-02T22:08:07Z</time>
  <course>210.61</course>
  <speed>0.9501578816175763</speed>
  <fix>3d</fix>
</trkpt>
<trkpt lat="33.8099778" lon="-118.3940964">
  <ele>-24.42</ele>
  <time>2026-09-02T22:08:07Z</time>
  <course>209.55</course>
  <speed>0.97</speed>
  <fix>3d</fix>
</trkpt>
<trkpt lat="33.8099763" lon="-118.3940976">
  <ele>-25.05</ele>
  <time>2026-09-02T22:08:07Z</time>
  <course>210.61</course>
  <speed>0.95524865872714</speed>
  <fix>3d</fix>
</trkpt>
<trkpt lat="33.8099778" lon="-118.3940964">
  <ele>-24.42</ele>
  <time>2026-09-02T22:08:07Z</time>
  <course>209.55</course>
  <speed>0.97</speed>
  <fix>3d</fix>
</trkpt>
<trkpt lat="33.8099755" lon="-118.3940982">
  <ele>-25.072</ele>
  <time>2026-09-02T22:08:07Z</time>
  <course>210.62</course>
  <speed>0.9638464608017192</speed>
  <fix>3d</fix>
</trkpt>
<trkpt lat="33.8099763" lon="-118.3940974">
  <ele>-24.45</ele>
  <time>2026-09-02T22:08:07Z</time>
  <course>209.58</course>
  <speed>0.98</speed>
  <fix>3d</fix>
</trkpt>
<trkpt lat="33.8099748" lon="-118.3940987">
  <ele>-25.09</ele>
  <time>2026-09-02T22:08:07Z</time>
  <course>210.62</course>
  <speed>0.9638464608017192</speed>
  <fix>3d</fix>
</trkpt>
<trkpt lat="33.8099763" lon="-118.3940974">
  <ele>-24.45</ele>
  <time>2026-09-02T22:08:07Z</time>
  <course>209.58</course>
  <speed>0.98</speed>
  <fix>3d</fix>
</trkpt>
<trkpt lat="33.809974" lon="-118.3940992">
  <ele>-25.108</ele>
  <time>2026-09-02T22:08:07Z</time>
  <course>210.65</course>
  <speed>0.9638464608017192</speed>
  <fix>3d</fix>
</trkpt>
<trkpt lat="33.8099747" lon="-118.3940985">
  <ele>-24.48</ele>
  <time>2026-09-02T22:08:07Z</time>
  <course>209.62</course>
  <speed>0.98</speed>
  <fix>3d</fix>
</trkpt>
<trkpt lat="33.8099732" lon="-118.3940997">
  <ele>-25.126</ele>
  <time>2026-09-02T22:08:07Z</time>
  <course>210.67</course>
  <speed>0.9638464608017192</speed>
  <fix>3d</fix>
</trkpt>
<trkpt lat="33.8099747" lon="-118.3940985">
  <ele>-24.48</ele>
  <time>2026-09-02T22:08:07Z</time>
  <course>209.62</course>
  <speed>0.98</speed>
  <fix>3d</fix>
</trkpt>
<trkpt lat="33.8099724" lon="-118.3941003">
  <ele>-25.143</ele>
  <time>2026-09-02T22:08:07Z</time>
  <course>210.69</course>
  <speed>0.9638464608017192</speed>
  <fix>3d</fix>
</trkpt>
<trkpt lat="33.8099732" lon="-118.3940996">
  <ele>-24.52</ele>
  <time>2026-09-02T22:08:07Z</time>
  <course>209.66</course>
  <speed>0.99</speed>
  <fix>3d</fix>
</trkpt>
<trkpt lat="33.8099717" lon="-118.3941008">
  <ele>-25.158</ele>
  <time>2026-09-02T22:08:07Z</time>
  <course>210.71</course>
  <speed>0.9638464608017192</speed>
  <fix>3d</fix>
</trkpt>
<trkpt lat="33.8099732" lon="-118.3940996">
  <ele>-24.52</ele>
  <time>2026-09-02T22:08:07Z</time>
  <course>209.66</course>
  <speed>0.99</speed>
  <fix>3d</fix>
</trkpt>
<trkpt lat="33.8099709" lon="-118.3941013">
  <ele>-25.171</ele>
  <time>2026-09-02T22:08:07Z</time>
  <course>210.71</course>
  <speed>0.9638464608017192</speed>
  <fix>3d</fix>
</trkpt>
<trkpt lat="33.8099716" lon="-118.3941007">
  <ele>-24.55</ele>
  <time>2026-09-02T22:08:07Z</time>
  <course>209.66</course>
  <speed>0.99</speed>
  <fix>3d</fix>
</trkpt>
<trkpt lat="33.8099701" lon="-118.3941019">
  <ele>-25.177</ele>
  <time>2026-09-02T22:08:07Z</time>
  <course>210.7</course>
  <speed>0.9638464608017192</speed>
  <fix>3d</fix>
</trkpt>
<trkpt lat="33.8099716" lon="-118.3941007">
  <ele>-24.55</ele>
  <time>2026-09-02T22:08:07Z</time>
  <course>209.66</course>
  <speed>0.99</speed>
  <fix>3d</fix>
</trkpt>
<trkpt lat="33.8099693" lon="-118.3941024">
  <ele>-25.178</ele>
  <time>2026-09-02T22:08:07Z</time>
  <course>210.68</course>
  <speed>0.9724710792614863</speed>
  <fix>3d</fix>
</trkpt>
<trkpt lat="33.8099701" lon="-118.3941017">
  <ele>-24.57</ele>
  <time>2026-09-02T22:08:07Z</time>
  <course>209.61</course>
  <speed>0.99</speed>
  <fix>3d</fix>
</trkpt>
<trkpt lat="33.8099686" lon="-118.3941029">
  <ele>-25.172</ele>
  <time>2026-09-02T22:08:07Z</time>
  <course>210.66</course>
  <speed>0.9724710792614863</speed>
  <fix>3d</fix>
</trkpt>
<trkpt lat="33.8099701" lon="-118.3941017">
  <ele>-24.57</ele>
  <time>2026-09-02T22:08:07Z</time>
  <course>209.61</course>
  <speed>0.99</speed>
  <fix>3d</fix>
</trkpt>
<trkpt lat="33.8099678" lon="-118.3941035">
  <ele>-25.156</ele>
  <time>2026-09-02T22:08:07Z</time>
  <course>210.64</course>
  <speed>0.9724710792614863</speed>
  <fix>3d</fix>
</trkpt>
<trkpt lat="33.8099685" lon="-118.3941028">
  <ele>-24.57</ele>
  <time>2026-09-02T22:08:07Z</time>
  <course>209.56</course>
  <speed>1.0</speed>
  <fix>3d</fix>
</trkpt>
<trkpt lat="33.809967" lon="-118.394104">
  <ele>-25.133</ele>
  <time>2026-09-02T22:08:07Z</time>
  <course>210.64</course>
  <speed>0.9415412895885129</speed>
  <fix>3d</fix>
</trkpt>
<trkpt lat="33.8099685" lon="-118.3941028">
  <ele>-24.57</ele>
  <time>2026-09-02T22:08:07Z</time>
  <course>209.56</course>
  <speed>1.0</speed>
  <fix>3d</fix>
</trkpt>
<trkpt lat="33.8099663" lon="-118.3941045">
  <ele>-25.108</ele>
  <time>2026-09-02T22:08:07Z</time>
  <course>210.65</course>
  <speed>0.8969392398596462</speed>
  <fix>3d</fix>
</trkpt>
<trkpt lat="33.809967" lon="-118.3941039">
  <ele>-24.54</ele>
  <time>2026-09-02T22:08:07Z</time>
  <course>209.58</course>
  <speed>0.95</speed>
  <fix>3d</fix>
</trkpt>
<trkpt lat="33.8099656" lon="-118.394105">
  <ele>-25.081</ele>
  <time>2026-09-02T22:08:07Z</time>
  <course>210.69</course>
  <speed>0.9055385138137417</speed>
  <fix>3d</fix>
</trkpt>
<trkpt lat="33.809967" lon="-118.3941039">
  <ele>-24.54</ele>
  <time>2026-09-02T22:08:07Z</time>
  <course>209.58</course>
  <speed>0.95</speed>
  <fix>3d</fix>
</trkpt>
<trkpt lat="33.8099648" lon="-118.3941055">
  <ele>-25.053</ele>
  <time>2026-09-02T22:08:07Z</time>
  <course>210.69</course>
  <speed>0.9278469701410895</speed>
  <fix>3d</fix>
</trkpt>
<trkpt lat="33.8099654" lon="-118.3941049">
  <ele>-24.49</ele>
  <time>2026-09-02T22:08:07Z</time>
  <course>209.56</course>
  <speed>0.93</speed>
  <fix>3d</fix>
</trkpt>
<trkpt lat="33.8099641" lon="-118.394106">
  <ele>-25.024</ele>
  <time>2026-09-02T22:08:07Z</time>
  <course>210.66</course>
  <speed>0.9278469701410895</speed>
  <fix>3d</fix>
</trkpt>
<trkpt lat="33.8099654" lon="-118.3941049">
  <ele>-24.49</ele>
  <time>2026-09-02T22:08:07Z</time>
  <course>209.56</course>
  <speed>0.93</speed>
  <fix>3d</fix>
</trkpt>
<trkpt lat="33.8099633" lon="-118.3941065">
  <ele>-24.995</ele>
  <time>2026-09-02T22:08:07Z</time>
  <course>210.64</course>
  <speed>0.9415412895885129</speed>
  <fix>3d</fix>
</trkpt>
<trkpt lat="33.809964" lon="-118.3941059">
  <ele>-24.43</ele>
  <time>2026-09-02T22:08:07Z</time>
  <course>209.51</course>
  <speed>0.95</speed>
  <fix>3d</fix>
</trkpt>
<trkpt lat="33.8099626" lon="-118.394107">
  <ele>-24.97</ele>
  <time>2026-09-02T22:08:07Z</time>
  <course>210.62</course>
  <speed>0.9415412895885129</speed>
  <fix>3d</fix>
</trkpt>
<trkpt lat="33.809964" lon="-118.3941059">
  <ele>-24.43</ele>
  <time>2026-09-02T22:08:07Z</time>
  <course>209.51</course>
  <speed>0.95</speed>
  <fix>3d</fix>
</trkpt>
<trkpt lat="33.8099618" lon="-118.3941076">
  <ele>-24.947</ele>
  <time>2026-09-02T22:08:07Z</time>
  <course>210.61</course>
  <speed>0.9501578816175763</speed>
  <fix>3d</fix>
</trkpt>
<trkpt lat="33.8099625" lon="-118.3941069">
  <ele>-24.39</ele>
  <time>2026-09-02T22:08:07Z</time>
  <course>209.51</course>
  <speed>0.97</speed>
  <fix>3d</fix>
</trkpt>
<trkpt lat="33.809961" lon="-118.3941081">
  <ele>-24.928</ele>
  <time>2026-09-02T22:08:07Z</time>
  <course>210.6</course>
  <speed>0.9501578816175763</speed>
  <fix>3d</fix>
</trkpt>
<trkpt lat="33.8099625" lon="-118.3941069">
  <ele>-24.39</ele>
  <time>2026-09-02T22:08:07Z</time>
  <course>209.51</course>
  <speed>0.97</speed>
  <fix>3d</fix>
</trkpt>
<trkpt lat="33.8099603" lon="-118.3941086">
  <ele>-24.914</ele>
  <time>2026-09-02T22:08:07Z</time>
  <course>210.6</course>
  <speed>0.9501578816175763</speed>
  <fix>3d</fix>
</trkpt>
<trkpt lat="33.8099609" lon="-118.394108">
  <ele>-24.35</ele>
  <time>2026-09-02T22:08:07Z</time>
  <course>209.51</course>
  <speed>0.98</speed>
  <fix>3d</fix>
</trkpt>
<trkpt lat="33.8099595" lon="-118.3941091">
  <ele>-24.907</ele>
  <time>2026-09-02T22:08:07Z</time>
  <course>210.59</course>
  <speed>0.9501578816175763</speed>
  <fix>3d</fix>
</trkpt>
<trkpt lat="33.8099609" lon="-118.394108">
  <ele>-24.35</ele>
  <time>2026-09-02T22:08:07Z</time>
  <course>209.51</course>
  <speed>0.98</speed>
  <fix>3d</fix>
</trkpt>
<trkpt lat="33.8099587" lon="-118.3941097">
  <ele>-24.907</ele>
  <time>2026-09-02T22:08:07Z</time>
  <course>210.59</course>
  <speed>0.9501578816175763</speed>
  <fix>3d</fix>
</trkpt>
<trkpt lat="33.8099594" lon="-118.394109">
  <ele>-24.32</ele>
  <time>2026-09-02T22:08:07Z</time>
  <course>209.53</course>
  <speed>0.98</speed>
  <fix>3d</fix>
</trkpt>
<trkpt lat="33.8099579" lon="-118.3941102">
  <ele>-24.915</ele>
  <time>2026-09-02T22:08:07Z</time>
  <course>210.59</course>
  <speed>0.95524865872714</speed>
  <fix>3d</fix>
</trkpt>
<trkpt lat="33.8099594" lon="-118.394109">
  <ele>-24.32</ele>
  <time>2026-09-02T22:08:07Z</time>
  <course>209.53</course>
  <speed>0.98</speed>
  <fix>3d</fix>
</trkpt>
<trkpt lat="33.8099572" lon="-118.3941107">
  <ele>-24.932</ele>
  <time>2026-09-02T22:08:07Z</time>
  <course>210.6</course>
  <speed>0.9638464608017192</speed>
  <fix>3d</fix>
</trkpt>
<trkpt lat="33.8099579" lon="-118.3941101">
  <ele>-24.32</ele>
  <time>2026-09-02T22:08:07Z</time>
  <course>209.57</course>
  <speed>0.98</speed>
  <fix>3d</fix>
</trkpt>
<trkpt lat="33.8099564" lon="-118.3941112">
  <ele>-24.953</ele>
  <time>2026-09-02T22:08:07Z</time>
  <course>210.6</course>
  <speed>0.9638464608017192</speed>
  <fix>3d</fix>
</trkpt>
<trkpt lat="33.8099579" lon="-118.3941101">
  <ele>-24.32</ele>
  <time>2026-09-02T22:08:07Z</time>
  <course>209.57</course>
  <speed>0.98</speed>
  <fix>3d</fix>
</trkpt>
<trkpt lat="33.8099556" lon="-118.3941118">
  <ele>-24.978</ele>
  <time>2026-09-02T22:08:07Z</time>
  <course>210.6</course>
  <speed>0.9638464608017192</speed>
  <fix>3d</fix>
</trkpt>
<trkpt lat="33.8099563" lon="-118.3941111">
  <ele>-24.35</ele>
  <time>2026-09-02T22:08:07Z</time>
  <course>209.58</course>
  <speed>0.99</speed>
  <fix>3d</fix>
</trkpt>
<trkpt lat="33.8099548" lon="-118.3941123">
  <ele>-25.008</ele>
  <time>2026-09-02T22:08:07Z</time>
  <course>210.59</course>
  <speed>0.9638464608017192</speed>
  <fix>3d</fix>
</trkpt>
<trkpt lat="33.8099563" lon="-118.3941111">
  <ele>-24.35</ele>
  <time>2026-09-02T22:08:07Z</time>
  <course>209.58</course>
  <speed>0.99</speed>
  <fix>3d</fix>
</trkpt>
<trkpt lat="33.8099541" lon="-118.3941128">
  <ele>-25.038</ele>
  <time>2026-09-02T22:08:07Z</time>
  <course>210.59</course>
  <speed>0.9638464608017192</speed>
  <fix>3d</fix>
</trkpt>
<trkpt lat="33.8099548" lon="-118.3941122">
  <ele>-24.4</ele>
  <time>2026-09-02T22:08:07Z</time>
  <course>209.58</course>
  <speed>0.99</speed>
  <fix>3d</fix>
</trkpt>
<trkpt lat="33.8099533" lon="-118.3941134">
  <ele>-25.064</ele>
  <time>2026-09-02T22:08:07Z</time>
  <course>210.59</course>
  <speed>0.8695401083331349</speed>
  <fix>3d</fix>
</trkpt>
<trkpt lat="33.8099548" lon="-118.3941122">
  <ele>-24.4</ele>
  <time>2026-09-02T22:08:07Z</time>
  <course>209.58</course>
  <speed>0.99</speed>
  <fix>3d</fix>
</trkpt>
<trkpt lat="33.8099526" lon="-118.3941138">
  <ele>-25.088</ele>
  <time>2026-09-02T22:08:07Z</time>
  <course>210.64</course>
  <speed>0.8969392398596462</speed>
  <fix>3d</fix>
</trkpt>
<trkpt lat="33.8099532" lon="-118.3941132">
  <ele>-24.45</ele>
  <time>2026-09-02T22:08:07Z</time>
  <course>209.61</course>
  <speed>0.95</speed>
  <fix>3d</fix>
</trkpt>
<trkpt lat="33.8099519" lon="-118.3941143">
  <ele>-25.11</ele>
  <time>2026-09-02T22:08:07Z</time>
  <course>210.67</course>
  <speed>0.9055385138137417</speed>
  <fix>3d</fix>
</trkpt>
<trkpt lat="33.8099532" lon="-118.3941132">
  <ele>-24.45</ele>
  <time>2026-09-02T22:08:07Z</time>
  <course>209.61</course>
  <speed>0.95</speed>
  <fix>3d</fix>
</trkpt>
<trkpt lat="33.8099511" lon="-118.3941149">
  <ele>-25.133</ele>
  <time>2026-09-02T22:08:07Z</time>
  <course>210.69</course>
  <speed>0.9192388155425119</speed>
  <fix>3d</fix>
</trkpt>
<trkpt lat="33.8099518" lon="-118.3941143">
  <ele>-24.5</ele>
  <time>2026-09-02T22:08:07Z</time>
  <course>209.63</course>
  <speed>0.92</speed>
  <fix>3d</fix>
</trkpt>
<trkpt lat="33.8099504" lon="-118.3941154">
  <ele>-25.156</ele>
  <time>2026-09-02T22:08:07Z</time>
  <course>210.7</course>
  <speed>0.9278469701410895</speed>
  <fix>3d</fix>
</trkpt>
<trkpt lat="33.8099518" lon="-118.3941143">
  <ele>-24.5</ele>
  <time>2026-09-02T22:08:07Z</time>
  <course>209.63</course>
  <speed>0.92</speed>
  <fix>3d</fix>
</trkpt>
<trkpt lat="33.8099496" lon="-118.3941159">
  <ele>-25.18</ele>
  <time>2026-09-02T22:08:07Z</time>
  <course>210.68</course>
  <speed>0.9278469701410895</speed>
  <fix>3d</fix>
</trkpt>
<trkpt lat="33.8099503" lon="-118.3941153">
  <ele>-24.54</ele>
  <time>2026-09-02T22:08:07Z</time>
  <course>209.58</course>
  <speed>0.95</speed>
  <fix>3d</fix>
</trkpt>
<trkpt lat="33.8099489" lon="-118.3941164">
  <ele>-25.205</ele>
  <time>2026-09-02T22:08:07Z</time>
  <course>210.65</course>
  <speed>0.9415412895885129</speed>
  <fix>3d</fix>
</trkpt>
<trkpt lat="33.8099503" lon="-118.3941153">
  <ele>-24.54</ele>
  <time>2026-09-02T22:08:07Z</time>
  <course>209.58</course>
  <speed>0.95</speed>
  <fix>3d</fix>
</trkpt>
<trkpt lat="33.8099481" lon="-118.3941169">
  <ele>-25.236</ele>
  <time>2026-09-02T22:08:07Z</time>
  <course>210.61</course>
  <speed>0.9415412895885129</speed>
  <fix>3d</fix>
</trkpt>
<trkpt lat="33.8099488" lon="-118.3941163">
  <ele>-24.58</ele>
  <time>2026-09-02T22:08:07Z</time>
  <course>209.51</course>
  <speed>0.96</speed>
  <fix>3d</fix>
</trkpt>
<trkpt lat="33.8099473" lon="-118.3941174">
  <ele>-25.272</ele>
  <time>2026-09-02T22:08:07Z</time>
  <course>210.57</course>
  <speed>0.9415412895885129</speed>
  <fix>3d</fix>
</trkpt>
<trkpt lat="33.8099488" lon="-118.3941163">
  <ele>-24.58</ele>
  <time>2026-09-02T22:08:07Z</time>
  <course>209.51</course>
  <speed>0.96</speed>
  <fix>3d</fix>
</trkpt>
<trkpt lat="33.8099466" lon="-118.394118">
  <ele>-25.316</ele>
  <time>2026-09-02T22:08:07Z</time>
  <course>210.54</course>
  <speed>0.9501578816175763</speed>
  <fix>3d</fix>
</trkpt>
<trkpt lat="33.8099473" lon="-118.3941173">
  <ele>-24.64</ele>
  <time>2026-09-02T22:08:07Z</time>
  <course>209.48</course>
  <speed>0.97</speed>
  <fix>3d</fix>
</trkpt>
<trkpt lat="33.8099458" lon="-118.3941185">
  <ele>-25.368</ele>
  <time>2026-09-02T22:08:07Z</time>
  <course>210.52</course>
  <speed>0.9501578816175763</speed>
  <fix>3d</fix>
</trkpt>
<trkpt lat="33.8099473" lon="-118.3941173">
  <ele>-24.64</ele>
  <time>2026-09-02T22:08:07Z</time>
  <course>209.48</course>
  <speed>0.97</speed>
  <fix>3d</fix>
</trkpt>
<trkpt lat="33.809945" lon="-118.394119">
  <ele>-25.427</ele>
  <time>2026-09-02T22:08:07Z</time>
  <course>210.52</course>
  <speed>0.9501578816175763</speed>
  <fix>3d</fix>
</trkpt>
<trkpt lat="33.8099457" lon="-118.3941183">
  <ele>-24.72</ele>
  <time>2026-09-02T22:08:07Z</time>
  <course>209.49</course>
  <speed>0.97</speed>
  <fix>3d</fix>
</trkpt>
<trkpt lat="33.8099443" lon="-118.3941195">
  <ele>-25.492</ele>
  <time>2026-09-02T22:08:07Z</time>
  <course>210.53</course>
  <speed>0.9415412895885129</speed>
  <fix>3d</fix>
</trkpt>
<trkpt lat="33.8099457" lon="-118.3941183">
  <ele>-24.72</ele>
  <time>2026-09-02T22:08:07Z</time>
  <course>209.49</course>
  <speed>0.97</speed>
  <fix>3d</fix>
</trkpt>
<trkpt lat="33.8099435" lon="-118.3941201">
  <ele>-25.562</ele>
  <time>2026-09-02T22:08:07Z</time>
  <course>210.56</course>
  <speed>0.9278469701410895</speed>
  <fix>3d</fix>
</trkpt>
<trkpt lat="33.8099442" lon="-118.3941194">
  <ele>-24.83</ele>
  <time>2026-09-02T22:08:07Z</time>
  <course>209.55</course>
  <speed>0.97</speed>
  <fix>3d</fix>
</trkpt>
<trkpt lat="33.8099428" lon="-118.3941206">
  <ele>-25.638</ele>
  <time>2026-09-02T22:08:07Z</time>
  <course>210.59</course>
  <speed>0.9278469701410895</speed>
  <fix>3d</fix>
</trkpt>
<trkpt lat="33.8099442" lon="-118.3941194">
  <ele>-24.83</ele>
  <time>2026-09-02T22:08:07Z</time>
  <course>209.55</course>
  <speed>0.97</speed>
  <fix>3d</fix>
</trkpt>
<trkpt lat="33.809942" lon="-118.3941211">
  <ele>-25.719</ele>
  <time>2026-09-02T22:08:07Z</time>
  <course>210.62</course>
  <speed>0.9192388155425119</speed>
  <fix>3d</fix>
</trkpt>
<trkpt lat="33.8099427" lon="-118.3941204">
  <ele>-24.97</ele>
  <time>2026-09-02T22:08:07Z</time>
  <course>209.61</course>
  <speed>0.96</speed>
  <fix>3d</fix>
</trkpt>
<trkpt lat="33.8099413" lon="-118.3941216">
  <ele>-25.803</ele>
  <time>2026-09-02T22:08:07Z</time>
  <course>210.64</course>
  <speed>0.9192388155425119</speed>
  <fix>3d</fix>
</trkpt>
<trkpt lat="33.8099427" lon="-118.3941204">
  <ele>-24.97</ele>
  <time>2026-09-02T22:08:07Z</time>
  <course>209.61</course>
  <speed>0.96</speed>
  <fix>3d</fix>
</trkpt>
<trkpt lat="33.8099405" lon="-118.3941221">
  <ele>-25.889</ele>
  <time>2026-09-02T22:08:07Z</time>
  <course>210.66</course>
  <speed>0.9192388155425119</speed>
  <fix>3d</fix>
</trkpt>
<trkpt lat="33.8099412" lon="-118.3941215">
  <ele>-25.11</ele>
  <time>2026-09-02T22:08:07Z</time>
  <course>209.63</course>
  <speed>0.95</speed>
  <fix>3d</fix>
</trkpt>
<trkpt lat="33.8099398" lon="-118.3941226">
  <ele>-25.976</ele>
  <time>2026-09-02T22:08:07Z</time>
  <course>210.66</course>
  <speed>0.9192388155425119</speed>
  <fix>3d</fix>
</trkpt>
<trkpt lat="33.8099412" lon="-118.3941215">
  <ele>-25.11</ele>
  <time>2026-09-02T22:08:07Z</time>
  <course>209.63</course>
  <speed>0.95</speed>
  <fix>3d</fix>
</trkpt>
<trkpt lat="33.809939" lon="-118.3941231">
  <ele>-26.064</ele>
  <time>2026-09-02T22:08:07Z</time>
  <course>210.66</course>
  <speed>0.9192388155425119</speed>
  <fix>3d</fix>
</trkpt>
<trkpt lat="33.8099397" lon="-118.3941225">
  <ele>-25.27</ele>
  <time>2026-09-02T22:08:07Z</time>
  <course>209.62</course>
  <speed>0.95</speed>
  <fix>3d</fix>
</trkpt>
<trkpt lat="33.8099383" lon="-118.3941236">
  <ele>-26.153</ele>
  <time>2026-09-02T22:08:07Z</time>
  <course>210.65</course>
  <speed>0.9278469701410895</speed>
  <fix>3d</fix>
</trkpt>
<trkpt lat="33.8099397" lon="-118.3941225">
  <ele>-25.27</ele>
  <time>2026-09-02T22:08:07Z</time>
  <course>209.62</course>
  <speed>0.95</speed>
  <fix>3d</fix>
</trkpt>
<trkpt lat="33.8099375" lon="-118.3941241">
  <ele>-26.243</ele>
  <time>2026-09-02T22:08:07Z</time>
  <course>210.63</course>
  <speed>0.9278469701410895</speed>
  <fix>3d</fix>
</trkpt>
<trkpt lat="33.8099382" lon="-118.3941235">
  <ele>-25.44</ele>
  <time>2026-09-02T22:08:07Z</time>
  <course>209.58</course>
  <speed>0.95</speed>
  <fix>3d</fix>
</trkpt>
<trkpt lat="33.8099368" lon="-118.3941246">
  <ele>-26.335</ele>
  <time>2026-09-02T22:08:07Z</time>
  <course>210.62</course>
  <speed>0.9278469701410895</speed>
  <fix>3d</fix>
</trkpt>
<trkpt lat="33.8099382" lon="-118.3941235">
  <ele>-25.44</ele>
  <time>2026-09-02T22:08:07Z</time>
  <course>209.58</course>
  <speed>0.95</speed>
  <fix>3d</fix>
</trkpt>
<trkpt lat="33.809936" lon="-118.3941252">
  <ele>-26.428</ele>
  <time>2026-09-02T22:08:07Z</time>
  <course>210.61</course>
  <speed>0.9278469701410895</speed>
  <fix>3d</fix>
</trkpt>
<trkpt lat="33.8099367" lon="-118.3941245">
  <ele>-25.61</ele>
  <time>2026-09-02T22:08:07Z</time>
  <course>209.57</course>
  <speed>0.95</speed>
  <fix>3d</fix>
</trkpt>
<trkpt lat="33.8099353" lon="-118.3941257">
  <ele>-26.521</ele>
  <time>2026-09-02T22:08:07Z</time>
  <course>210.62</course>
  <speed>0.9278469701410895</speed>
  <fix>3d</fix>
</trkpt>
<trkpt lat="33.8099367" lon="-118.3941245">
  <ele>-25.61</ele>
  <time>2026-09-02T22:08:07Z</time>
  <course>209.57</course>
  <speed>0.95</speed>
  <fix>3d</fix>
</trkpt>
<trkpt lat="33.8099345" lon="-118.3941262">
  <ele>-26.615</ele>
  <time>2026-09-02T22:08:07Z</time>
  <course>210.63</course>
  <speed>0.9278469701410895</speed>
  <fix>3d</fix>
</trkpt>
<trkpt lat="33.8099352" lon="-118.3941255">
  <ele>-25.79</ele>
  <time>2026-09-02T22:08:07Z</time>
  <course>209.58</course>
  <speed>0.95</speed>
  <fix>3d</fix>
</trkpt>
<trkpt lat="33.8099338" lon="-118.3941267">
  <ele>-26.708</ele>
  <time>2026-09-02T22:08:07Z</time>
  <course>210.65</course>
  <speed>0.9329523031752481</speed>
  <fix>3d</fix>
</trkpt>
<trkpt lat="33.8099352" lon="-118.3941255">
  <ele>-25.79</ele>
  <time>2026-09-02T22:08:07Z</time>
  <course>209.58</course>
  <speed>0.95</speed>
  <fix>3d</fix>
</trkpt>
<trkpt lat="33.809933" lon="-118.3941272">
  <ele>-26.799</ele>
  <time>2026-09-02T22:08:07Z</time>
  <course>210.66</course>
  <speed>0.9415412895885129</speed>
  <fix>3d</fix>
</trkpt>
<trkpt lat="33.8099337" lon="-118.3941265">
  <ele>-25.97</ele>
  <time>2026-09-02T22:08:07Z</time>
  <course>209.62</course>
  <speed>0.95</speed>
  <fix>3d</fix>
</trkpt>
<trkpt lat="33.8099323" lon="-118.3941277">
  <ele>-26.892</ele>
  <time>2026-09-02T22:08:07Z</time>
  <course>210.69</course>
  <speed>0.9415412895885129</speed>
  <fix>3d</fix>
</trkpt>
<trkpt lat="33.8099337" lon="-118.3941265">
  <ele>-25.97</ele>
  <time>2026-09-02T22:08:07Z</time>
  <course>209.62</course>
  <speed>0.95</speed>
  <fix>3d</fix>
</trkpt>
<trkpt lat="33.8099315" lon="-118.3941282">
  <ele>-26.984</ele>
  <time>2026-09-02T22:08:07Z</time>
  <course>210.72</course>
  <speed>0.9415412895885129</speed>
  <fix>3d</fix>
</trkpt>
<trkpt lat="33.8099322" lon="-118.3941276">
  <ele>-26.15</ele>
  <time>2026-09-02T22:08:07Z</time>
  <course>209.67</course>
  <speed>0.96</speed>
  <fix>3d</fix>
</trkpt>
<trkpt lat="33.8099307" lon="-118.3941288">
  <ele>-27.077</ele>
  <time>2026-09-02T22:08:07Z</time>
  <course>210.75</course>
  <speed>0.9415412895885129</speed>
  <fix>3d</fix>
</trkpt>
<trkpt lat="33.8099322" lon="-118.3941276">
  <ele>-26.15</ele>
  <time>2026-09-02T22:08:07Z</time>
  <course>209.67</course>
  <speed>0.96</speed>
  <fix>3d</fix>
</trkpt>
<trkpt lat="33.80993" lon="-118.3941293">
  <ele>-27.169</ele>
  <time>2026-09-02T22:08:07Z</time>
  <course>210.76</course>
  <speed>0.9415412895885129</speed>
  <fix>3d</fix>
</trkpt>
<trkpt lat="33.8099307" lon="-118.3941285">
  <ele>-26.33</ele>
  <time>2026-09-02T22:08:07Z</time>
  <course>209.69</course>
  <speed>0.96</speed>
  <fix>3d</fix>
</trkpt>
<trkpt lat="33.8099292" lon="-118.3941298">
  <ele>-27.262</ele>
  <time>2026-09-02T22:08:07Z</time>
  <course>210.77</course>
  <speed>0.9415412895885129</speed>
  <fix>3d</fix>
</trkpt>
<trkpt lat="33.8099307" lon="-118.3941285">
  <ele>-26.33</ele>
  <time>2026-09-02T22:08:07Z</time>
  <course>209.69</course>
  <speed>0.96</speed>
  <fix>3d</fix>
</trkpt>
<trkpt lat="33.8099285" lon="-118.3941303">
  <ele>-27.354</ele>
  <time>2026-09-02T22:08:07Z</time>
  <course>210.79</course>
  <speed>0.9415412895885129</speed>
  <fix>3d</fix>
</trkpt>
<trkpt lat="33.8099292" lon="-118.3941296">
  <ele>-26.51</ele>
  <time>2026-09-02T22:08:07Z</time>
  <course>209.71</course>
  <speed>0.96</speed>
  <fix>3d</fix>
</trkpt>
<trkpt lat="33.8099277" lon="-118.3941308">
  <ele>-27.445</ele>
  <time>2026-09-02T22:08:07Z</time>
  <course>210.83</course>
  <speed>0.8832326986700617</speed>
  <fix>3d</fix>
</trkpt>
<trkpt lat="33.8099292" lon="-118.3941296">
  <ele>-26.51</ele>
  <time>2026-09-02T22:08:07Z</time>
  <course>209.71</course>
  <speed>0.96</speed>
  <fix>3d</fix>
</trkpt>
<trkpt lat="33.809927" lon="-118.3941313">
  <ele>-27.534</ele>
  <time>2026-09-02T22:08:07Z</time>
  <course>210.89</course>
  <speed>0.8832326986700617</speed>
  <fix>3d</fix>
</trkpt>
<trkpt lat="33.8099277" lon="-118.3941307">
  <ele>-26.68</ele>
  <time>2026-09-02T22:08:07Z</time>
  <course>209.81</course>
  <speed>0.93</speed>
  <fix>3d</fix>
</trkpt>
<trkpt lat="33.8099263" lon="-118.3941318">
  <ele>-27.625</ele>
  <time>2026-09-02T22:08:07Z</time>
  <course>210.96</course>
  <speed>0.8969392398596462</speed>
  <fix>3d</fix>
</trkpt>
<trkpt lat="33.8099277" lon="-118.3941307">
  <ele>-26.68</ele>
  <time>2026-09-02T22:08:07Z</time>
  <course>209.81</course>
  <speed>0.93</speed>
  <fix>3d</fix>
</trkpt>
<trkpt lat="33.8099256" lon="-118.3941323">
  <ele>-27.715</ele>
  <time>2026-09-02T22:08:07Z</time>
  <course>210.96</course>
  <speed>0.9055385138137417</speed>
  <fix>3d</fix>
</trkpt>
<trkpt lat="33.8099263" lon="-118.3941317">
  <ele>-26.85</ele>
  <time>2026-09-02T22:08:07Z</time>
  <course>209.82</course>
  <speed>0.91</speed>
  <fix>3d</fix>
</trkpt>
<trkpt lat="33.8099249" lon="-118.3941328">
  <ele>-27.804</ele>
  <time>2026-09-02T22:08:07Z</time>
  <course>210.94</course>
  <speed>0.9055385138137417</speed>
  <fix>3d</fix>
</trkpt>
<trkpt lat="33.8099263" lon="-118.3941317">
  <ele>-26.85</ele>
  <time>2026-09-02T22:08:07Z</time>
  <course>209.82</course>
  <speed>0.91</speed>
  <fix>3d</fix>
</trkpt>
<trkpt lat="33.8099242" lon="-118.3941333">
  <ele>-27.891</ele>
  <time>2026-09-02T22:08:07Z</time>
  <course>210.89</course>
  <speed>0.9192388155425119</speed>
  <fix>3d</fix>
</trkpt>
<trkpt lat="33.8099248" lon="-118.3941327">
  <ele>-27.02</ele>
  <time>2026-09-02T22:08:07Z</time>
  <course>209.72</course>
  <speed>0.93</speed>
  <fix>3d</fix>
</trkpt>
<trkpt lat="33.8099234" lon="-118.3941338">
  <ele>-27.978</ele>
  <time>2026-09-02T22:08:07Z</time>
  <course>210.84</course>
  <speed>0.9192388155425119</speed>
  <fix>3d</fix>
</trkpt>
<trkpt lat="33.8099248" lon="-118.3941327">
  <ele>-27.02</ele>
  <time>2026-09-02T22:08:07Z</time>
  <course>209.72</course>
  <speed>0.93</speed>
  <fix>3d</fix>
</trkpt>
<trkpt lat="33.8099227" lon="-118.3941343">
  <ele>-28.063</ele>
  <time>2026-09-02T22:08:07Z</time>
  <course>210.79</course>
  <speed>0.9278469701410895</speed>
  <fix>3d</fix>
</trkpt>
<trkpt lat="33.8099234" lon="-118.3941337">
  <ele>-27.19</ele>
  <time>2026-09-02T22:08:07Z</time>
  <course>209.63</course>
  <speed>0.94</speed>
  <fix>3d</fix>
</trkpt>
<trkpt lat="33.8099219" lon="-118.3941348">
  <ele>-28.148</ele>
  <time>2026-09-02T22:08:07Z</time>
  <course>210.76</course>
  <speed>0.9278469701410895</speed>
  <fix>3d</fix>
</trkpt>
<trkpt lat="33.8099234" lon="-118.3941337">
  <ele>-27.19</ele>
  <time>2026-09-02T22:08:07Z</time>
  <course>209.63</course>
  <speed>0.94</speed>
  <fix>3d</fix>
</trkpt>
<trkpt lat="33.8099212" lon="-118.3941353">
  <ele>-28.231</ele>
  <time>2026-09-02T22:08:07Z</time>
  <course>210.71</course>
  <speed>0.9278469701410895</speed>
  <fix>3d</fix>
</trkpt>
<trkpt lat="33.8099219" lon="-118.3941347">
  <ele>-27.35</ele>
  <time>2026-09-02T22:08:07Z</time>
  <course>209.56</course>
  <speed>0.95</speed>
  <fix>3d</fix>
</trkpt>
<trkpt lat="33.8099204" lon="-118.3941358">
  <ele>-28.314</ele>
  <time>2026-09-02T22:08:07Z</time>
  <course>210.68</course>
  <speed>0.9278469701410895</speed>
  <fix>3d</fix>
</trkpt>
<trkpt lat="33.8099219" lon="-118.3941347">
  <ele>-27.35</ele>
  <time>2026-09-02T22:08:07Z</time>
  <course>209.56</course>
  <speed>0.95</speed>
  <fix>3d</fix>
</trkpt>
<trkpt lat="33.8099197" lon="-118.3941363">
  <ele>-28.396</ele>
  <time>2026-09-02T22:08:07Z</time>
  <course>210.65</course>
  <speed>0.9364827814754524</speed>
  <fix>3d</fix>
</trkpt>
<trkpt lat="33.8099204" lon="-118.3941357">
  <ele>-27.52</ele>
  <time>2026-09-02T22:08:07Z</time>
  <course>209.52</course>
  <speed>0.96</speed>
  <fix>3d</fix>
</trkpt>
<trkpt lat="33.809919" lon="-118.3941369">
  <ele>-28.476</ele>
  <time>2026-09-02T22:08:07Z</time>
  <course>210.62</course>
  <speed>0.9415412895885129</speed>
  <fix>3d</fix>
</trkpt>
<trkpt lat="33.8099204" lon="-118.3941357">
  <ele>-27.52</ele>
  <time>2026-09-02T22:08:07Z</time>
  <course>209.52</course>
  <speed>0.96</speed>
  <fix>3d</fix>
</trkpt>
<trkpt lat="33.8099182" lon="-118.3941374">
  <ele>-28.555</ele>
  <time>2026-09-02T22:08:07Z</time>
  <course>210.61</course>
  <speed>0.9364827814754524</speed>
  <fix>3d</fix>
</trkpt>
<trkpt lat="33.8099189" lon="-118.3941367">
  <ele>-27.68</ele>
  <time>2026-09-02T22:08:07Z</time>
  <course>209.51</course>
  <speed>0.96</speed>
  <fix>3d</fix>
</trkpt>
<trkpt lat="33.8099174" lon="-118.3941379">
  <ele>-28.637</ele>
  <time>2026-09-02T22:08:07Z</time>
  <course>210.6</course>
  <speed>0.9415412895885129</speed>
  <fix>3d</fix>
</trkpt>
<trkpt lat="33.8099189" lon="-118.3941367">
  <ele>-27.68</ele>
  <time>2026-09-02T22:08:07Z</time>
  <course>209.51</course>
  <speed>0.96</speed>
  <fix>3d</fix>
</trkpt>
<trkpt lat="33.8099167" lon="-118.3941384">
  <ele>-28.72</ele>
  <time>2026-09-02T22:08:07Z</time>
  <course>210.6</course>
  <speed>0.9364827814754524</speed>
  <fix>3d</fix>
</trkpt>
<trkpt lat="33.8099174" lon="-118.3941378">
  <ele>-27.84</ele>
  <time>2026-09-02T22:08:07Z</time>
  <course>209.52</course>
  <speed>0.96</speed>
  <fix>3d</fix>
</trkpt>
<trkpt lat="33.8099159" lon="-118.3941389">
  <ele>-28.802</ele>
  <time>2026-09-02T22:08:07Z</time>
  <course>210.6</course>
  <speed>0.9415412895885129</speed>
  <fix>3d</fix>
</trkpt>
<trkpt lat="33.8099174" lon="-118.3941378">
  <ele>-27.84</ele>
  <time>2026-09-02T22:08:07Z</time>
  <course>209.52</course>
  <speed>0.96</speed>
  <fix>3d</fix>
</trkpt>
<trkpt lat="33.8099152" lon="-118.3941394">
  <ele>-28.885</ele>
  <time>2026-09-02T22:08:07Z</time>
  <course>210.59</course>
  <speed>0.9415412895885129</speed>
  <fix>3d</fix>
</trkpt>
<trkpt lat="33.8099158" lon="-118.3941388">
  <ele>-28.0</ele>
  <time>2026-09-02T22:08:07Z</time>
  <course>209.53</course>
  <speed>0.96</speed>
  <fix>3d</fix>
</trkpt>
<trkpt lat="33.8099144" lon="-118.3941399">
  <ele>-28.967</ele>
  <time>2026-09-02T22:08:07Z</time>
  <course>210.59</course>
  <speed>0.9415412895885129</speed>
  <fix>3d</fix>
</trkpt>
<trkpt lat="33.8099158" lon="-118.3941388">
  <ele>-28.0</ele>
  <time>2026-09-02T22:08:07Z</time>
  <course>209.53</course>
  <speed>0.96</speed>
  <fix>3d</fix>
</trkpt>
<trkpt lat="33.8099137" lon="-118.3941405">
  <ele>-29.049</ele>
  <time>2026-09-02T22:08:07Z</time>
  <course>210.6</course>
  <speed>0.9415412895885129</speed>
  <fix>3d</fix>
</trkpt>
<trkpt lat="33.8099143" lon="-118.3941398">
  <ele>-28.16</ele>
  <time>2026-09-02T22:08:07Z</time>
  <course>209.54</course>
  <speed>0.97</speed>
  <fix>3d</fix>
</trkpt>
<trkpt lat="33.8099129" lon="-118.394141">
  <ele>-29.129</ele>
  <time>2026-09-02T22:08:07Z</time>
  <course>210.61</course>
  <speed>0.9415412895885129</speed>
  <fix>3d</fix>
</trkpt>
<trkpt lat="33.8099143" lon="-118.3941398">
  <ele>-28.16</ele>
  <time>2026-09-02T22:08:07Z</time>
  <course>209.54</course>
  <speed>0.97</speed>
  <fix>3d</fix>
</trkpt>
<trkpt lat="33.8099122" lon="-118.3941415">
  <ele>-29.208</ele>
  <time>2026-09-02T22:08:07Z</time>
  <course>210.64</course>
  <speed>0.9415412895885129</speed>
  <fix>3d</fix>
</trkpt>
<trkpt lat="33.8099128" lon="-118.3941409">
  <ele>-28.32</ele>
  <time>2026-09-02T22:08:07Z</time>
  <course>209.59</course>
  <speed>0.97</speed>
  <fix>3d</fix>
</trkpt>
<trkpt lat="33.8099114" lon="-118.394142">
  <ele>-29.287</ele>
  <time>2026-09-02T22:08:07Z</time>
  <course>210.66</course>
  <speed>0.9415412895885129</speed>
  <fix>3d</fix>
</trkpt>
<trkpt lat="33.8099128" lon="-118.3941409">
  <ele>-28.32</ele>
  <time>2026-09-02T22:08:07Z</time>
  <course>209.59</course>
  <speed>0.97</speed>
  <fix>3d</fix>
</trkpt>
<trkpt lat="33.8099106" lon="-118.3941425">
  <ele>-29.366</ele>
  <time>2026-09-02T22:08:07Z</time>
  <course>210.68</course>
  <speed>0.9415412895885129</speed>
  <fix>3d</fix>
</trkpt>
<trkpt lat="33.8099113" lon="-118.3941419">
  <ele>-28.47</ele>
  <time>2026-09-02T22:08:07Z</time>
  <course>209.62</course>
  <speed>0.97</speed>
  <fix>3d</fix>
</trkpt>
<trkpt lat="33.8099099" lon="-118.3941431">
  <ele>-29.445</ele>
  <time>2026-09-02T22:08:07Z</time>
  <course>210.69</course>
  <speed>0.9415412895885129</speed>
  <fix>3d</fix>
</trkpt>
<trkpt lat="33.8099113" lon="-118.3941419">
  <ele>-28.47</ele>
  <time>2026-09-02T22:08:07Z</time>
  <course>209.62</course>
  <speed>0.97</speed>
  <fix>3d</fix>
</trkpt>
<trkpt lat="33.8099091" lon="-118.3941436">
  <ele>-29.526</ele>
  <time>2026-09-02T22:08:07Z</time>
  <course>210.7</course>
  <speed>0.9329523031752481</speed>
  <fix>3d</fix>
</trkpt>
<trkpt lat="33.8099098" lon="-118.3941429">
  <ele>-28.62</ele>
  <time>2026-09-02T22:08:07Z</time>
  <course>209.62</course>
  <speed>0.97</speed>
  <fix>3d</fix>
</trkpt>
<trkpt lat="33.8099084" lon="-118.3941441">
  <ele>-29.608</ele>
  <time>2026-09-02T22:08:07Z</time>
  <course>210.71</course>
  <speed>0.9329523031752481</speed>
  <fix>3d</fix>
</trkpt>
<trkpt lat="33.8099098" lon="-118.3941429">
  <ele>-28.62</ele>
  <time>2026-09-02T22:08:07Z</time>
  <course>209.62</course>
  <speed>0.97</speed>
  <fix>3d</fix>
</trkpt>
<trkpt lat="33.8099076" lon="-118.3941446">
  <ele>-29.69</ele>
  <time>2026-09-02T22:08:07Z</time>
  <course>210.71</course>
  <speed>0.9278469701410895</speed>
  <fix>3d</fix>
</trkpt>
<trkpt lat="33.8099083" lon="-118.394144">
  <ele>-28.78</ele>
  <time>2026-09-02T22:08:07Z</time>
  <course>209.64</course>
  <speed>0.96</speed>
  <fix>3d</fix>
</trkpt>
<trkpt lat="33.8099069" lon="-118.3941451">
  <ele>-29.772</ele>
  <time>2026-09-02T22:08:07Z</time>
  <course>210.71</course>
  <speed>0.9415412895885129</speed>
  <fix>3d</fix>
</trkpt>
<trkpt lat="33.8099083" lon="-118.394144">
  <ele>-28.78</ele>
  <time>2026-09-02T22:08:07Z</time>
  <course>209.64</course>
  <speed>0.96</speed>
  <fix>3d</fix>
</trkpt>
<trkpt lat="33.8099061" lon="-118.3941456">
  <ele>-29.854</ele>
  <time>2026-09-02T22:08:07Z</time>
  <course>210.71</course>
  <speed>0.9415412895885129</speed>
  <fix>3d</fix>
</trkpt>
<trkpt lat="33.8099067" lon="-118.394145">
  <ele>-28.94</ele>
  <time>2026-09-02T22:08:07Z</time>
  <course>209.64</course>
  <speed>0.96</speed>
  <fix>3d</fix>
</trkpt>
<trkpt lat="33.8099054" lon="-118.3941461">
  <ele>-29.936</ele>
  <time>2026-09-02T22:08:07Z</time>
  <course>210.71</course>
  <speed>0.9329523031752481</speed>
  <fix>3d</fix>
</trkpt>
<trkpt lat="33.8099067" lon="-118.394145">
  <ele>-28.94</ele>
  <time>2026-09-02T22:08:07Z</time>
  <course>209.64</course>
  <speed>0.96</speed>
  <fix>3d</fix>
</trkpt>
<trkpt lat="33.8099046" lon="-118.3941467">
  <ele>-30.018</ele>
  <time>2026-09-02T22:08:07Z</time>
  <course>210.71</course>
  <speed>0.9329523031752481</speed>
  <fix>3d</fix>
</trkpt>
<trkpt lat="33.8099052" lon="-118.394146">
  <ele>-29.11</ele>
  <time>2026-09-02T22:08:07Z</time>
  <course>209.63</course>
  <speed>0.96</speed>
  <fix>3d</fix>
</trkpt>
<trkpt lat="33.8099039" lon="-118.3941472">
  <ele>-30.1</ele>
  <time>2026-09-02T22:08:07Z</time>
  <course>210.73</course>
  <speed>0.9278469701410895</speed>
  <fix>3d</fix>
</trkpt>
<trkpt lat="33.8099052" lon="-118.394146">
  <ele>-29.11</ele>
  <time>2026-09-02T22:08:07Z</time>
  <course>209.63</course>
  <speed>0.96</speed>
  <fix>3d</fix>
</trkpt>
<trkpt lat="33.8099031" lon="-118.3941477">
  <ele>-30.183</ele>
  <time>2026-09-02T22:08:08Z</time>
  <course>210.75</course>
  <speed>0.9278469701410895</speed>
  <fix>3d</fix>
</trkpt>
<trkpt lat="33.8099037" lon="-118.3941471">
  <ele>-29.27</ele>
  <time>2026-09-02T22:08:08Z</time>
  <course>209.68</course>
  <speed>0.96</speed>
  <fix>3d</fix>
</trkpt>
<trkpt lat="33.8099023" lon="-118.3941482">
  <ele>-30.269</ele>
  <time>2026-09-02T22:08:08Z</time>
  <course>210.76</course>
  <speed>0.9278469701410895</speed>
  <fix>3d</fix>
</trkpt>
<trkpt lat="33.8099037" lon="-118.3941471">
  <ele>-29.27</ele>
  <time>2026-09-02T22:08:08Z</time>
  <course>209.68</course>
  <speed>0.96</speed>
  <fix>3d</fix>
</trkpt>
<trkpt lat="33.8099016" lon="-118.3941487">
  <ele>-30.355</ele>
  <time>2026-09-02T22:08:08Z</time>
  <course>210.78</course>
  <speed>0.9278469701410895</speed>
  <fix>3d</fix>
</trkpt>
<trkpt lat="33.8099022" lon="-118.3941481">
  <ele>-29.43</ele>
  <time>2026-09-02T22:08:08Z</time>
  <course>209.71</course>
  <speed>0.96</speed>
  <fix>3d</fix>
</trkpt>
<trkpt lat="33.8099008" lon="-118.3941492">
  <ele>-30.441</ele>
  <time>2026-09-02T22:08:08Z</time>
  <course>210.78</course>
  <speed>0.9329523031752481</speed>
  <fix>3d</fix>
</trkpt>
<trkpt lat="33.8099022" lon="-118.3941481">
  <ele>-29.43</ele>
  <time>2026-09-02T22:08:08Z</time>
  <course>209.71</course>
  <speed>0.96</speed>
  <fix>3d</fix>
</trkpt>
<trkpt lat="33.8099001" lon="-118.3941497">
  <ele>-30.527</ele>
  <time>2026-09-02T22:08:08Z</time>
  <course>210.79</course>
  <speed>0.9415412895885129</speed>
  <fix>3d</fix>
</trkpt>
<trkpt lat="33.8099007" lon="-118.3941491">
  <ele>-29.6</ele>
  <time>2026-09-02T22:08:08Z</time>
  <course>209.71</course>
  <speed>0.96</speed>
  <fix>3d</fix>
</trkpt>
<trkpt lat="33.8098993" lon="-118.3941503">
  <ele>-30.613</ele>
  <time>2026-09-02T22:08:08Z</time>
  <course>210.8</course>
  <speed>0.9329523031752481</speed>
  <fix>3d</fix>
</trkpt>
<trkpt lat="33.8099007" lon="-118.3941491">
  <ele>-29.6</ele>
  <time>2026-09-02T22:08:08Z</time>
  <course>209.71</course>
  <speed>0.96</speed>
  <fix>3d</fix>
</trkpt>
<trkpt lat="33.8098986" lon="-118.3941508">
  <ele>-30.701</ele>
  <time>2026-09-02T22:08:08Z</time>
  <course>210.8</course>
  <speed>0.9329523031752481</speed>
  <fix>3d</fix>
</trkpt>
<trkpt lat="33.8098992" lon="-118.3941502">
  <ele>-29.77</ele>
  <time>2026-09-02T22:08:08Z</time>
  <course>209.72</course>
  <speed>0.96</speed>
  <fix>3d</fix>
</trkpt>
<trkpt lat="33.8098978" lon="-118.3941513">
  <ele>-30.788</ele>
  <time>2026-09-02T22:08:08Z</time>
  <course>210.81</course>
  <speed>0.9415412895885129</speed>
  <fix>3d</fix>
</trkpt>
<trkpt lat="33.8098992" lon="-118.3941502">
  <ele>-29.77</ele>
  <time>2026-09-02T22:08:08Z</time>
  <course>209.72</course>
  <speed>0.96</speed>
  <fix>3d</fix>
</trkpt>
<trkpt lat="33.8098971" lon="-118.3941518">
  <ele>-30.874</ele>
  <time>2026-09-02T22:08:08Z</time>
  <course>210.8</course>
  <speed>0.9415412895885129</speed>
  <fix>3d</fix>
</trkpt>
<trkpt lat="33.8098977" lon="-118.3941512">
  <ele>-29.94</ele>
  <time>2026-09-02T22:08:08Z</time>
  <course>209.71</course>
  <speed>0.96</speed>
  <fix>3d</fix>
</trkpt>
<trkpt lat="33.8098963" lon="-118.3941523">
  <ele>-30.959</ele>
  <time>2026-09-02T22:08:08Z</time>
  <course>210.79</course>
  <speed>0.9415412895885129</speed>
  <fix>3d</fix>
</trkpt>
<trkpt lat="33.8098977" lon="-118.3941512">
  <ele>-29.94</ele>
  <time>2026-09-02T22:08:08Z</time>
  <course>209.71</course>
  <speed>0.96</speed>
  <fix>3d</fix>
</trkpt>
<trkpt lat="33.8098955" lon="-118.3941529">
  <ele>-31.043</ele>
  <time>2026-09-02T22:08:08Z</time>
  <course>210.77</course>
  <speed>0.9415412895885129</speed>
  <fix>3d</fix>
</trkpt>
<trkpt lat="33.8098962" lon="-118.3941522">
  <ele>-30.11</ele>
  <time>2026-09-02T22:08:08Z</time>
  <course>209.69</course>
  <speed>0.96</speed>
  <fix>3d</fix>
</trkpt>
<trkpt lat="33.8098948" lon="-118.3941534">
  <ele>-31.126</ele>
  <time>2026-09-02T22:08:08Z</time>
  <course>210.76</course>
  <speed>0.9415412895885129</speed>
  <fix>3d</fix>
</trkpt>
<trkpt lat="33.8098962" lon="-118.3941522">
  <ele>-30.11</ele>
  <time>2026-09-02T22:08:08Z</time>
  <course>209.69</course>
  <speed>0.96</speed>
  <fix>3d</fix>
</trkpt>
<trkpt lat="33.809894" lon="-118.3941539">
  <ele>-31.209</ele>
  <time>2026-09-02T22:08:08Z</time>
  <course>210.76</course>
  <speed>0.9415412895885129</speed>
  <fix>3d</fix>
</trkpt>
<trkpt lat="33.8098947" lon="-118.3941533">
  <ele>-30.27</ele>
  <time>2026-09-02T22:08:08Z</time>
  <course>209.68</course>
  <speed>0.97</speed>
  <fix>3d</fix>
</trkpt>
<trkpt lat="33.8098933" lon="-118.3941544">
  <ele>-31.292</ele>
  <time>2026-09-02T22:08:08Z</time>
  <course>210.75</course>
  <speed>0.9415412895885129</speed>
  <fix>3d</fix>
</trkpt>
<trkpt lat="33.8098947" lon="-118.3941533">
  <ele>-30.27</ele>
  <time>2026-09-02T22:08:08Z</time>
  <course>209.68</course>
  <speed>0.97</speed>
  <fix>3d</fix>
</trkpt>
<trkpt lat="33.8098925" lon="-118.3941549">
  <ele>-31.376</ele>
  <time>2026-09-02T22:08:08Z</time>
  <course>210.73</course>
  <speed>0.9415412895885129</speed>
  <fix>3d</fix>
</trkpt>
<trkpt lat="33.8098932" lon="-118.3941543">
  <ele>-30.44</ele>
  <time>2026-09-02T22:08:08Z</time>
  <course>209.67</course>
  <speed>0.97</speed>
  <fix>3d</fix>
</trkpt>
<trkpt lat="33.8098917" lon="-118.3941555">
  <ele>-31.46</ele>
  <time>2026-09-02T22:08:08Z</time>
  <course>210.72</course>
  <speed>0.9415412895885129</speed>
  <fix>3d</fix>
</trkpt>
<trkpt lat="33.8098932" lon="-118.3941543">
  <ele>-30.44</ele>
  <time>2026-09-02T22:08:08Z</time>
  <course>209.67</course>
  <speed>0.97</speed>
  <fix>3d</fix>
</trkpt>
<trkpt lat="33.809891" lon="-118.394156">
  <ele>-31.546</ele>
  <time>2026-09-02T22:08:08Z</time>
  <course>210.7</course>
  <speed>0.9415412895885129</speed>
  <fix>3d</fix>
</trkpt>
<trkpt lat="33.8098916" lon="-118.3941554">
  <ele>-30.6</ele>
  <time>2026-09-02T22:08:08Z</time>
  <course>209.64</course>
  <speed>0.96</speed>
  <fix>3d</fix>
</trkpt>
<trkpt lat="33.8098902" lon="-118.3941565">
  <ele>-31.633</ele>
  <time>2026-09-02T22:08:08Z</time>
  <course>210.68</course>
  <speed>0.9415412895885129</speed>
  <fix>3d</fix>
</trkpt>
<trkpt lat="33.8098916" lon="-118.3941554">
  <ele>-30.6</ele>
  <time>2026-09-02T22:08:08Z</time>
  <course>209.64</course>
  <speed>0.96</speed>
  <fix>3d</fix>
</trkpt>
<trkpt lat="33.8098895" lon="-118.394157">
  <ele>-31.719</ele>
  <time>2026-09-02T22:08:08Z</time>
  <course>210.66</course>
  <speed>0.9415412895885129</speed>
  <fix>3d</fix>
</trkpt>
<trkpt lat="33.8098901" lon="-118.3941564">
  <ele>-30.76</ele>
  <time>2026-09-02T22:08:08Z</time>
  <course>209.62</course>
  <speed>0.97</speed>
  <fix>3d</fix>
</trkpt>
<trkpt lat="33.8098887" lon="-118.3941575">
  <ele>-31.803</ele>
  <time>2026-09-02T22:08:08Z</time>
  <course>210.65</course>
  <speed>0.9415412895885129</speed>
  <fix>3d</fix>
</trkpt>
<trkpt lat="33.8098901" lon="-118.3941564">
  <ele>-30.76</ele>
  <time>2026-09-02T22:08:08Z</time>
  <course>209.62</course>
  <speed>0.97</speed>
  <fix>3d</fix>
</trkpt>
<trkpt lat="33.8098879" lon="-118.3941581">
  <ele>-31.885</ele>
  <time>2026-09-02T22:08:08Z</time>
  <course>210.64</course>
  <speed>0.9501578816175763</speed>
  <fix>3d</fix>
</trkpt>
<trkpt lat="33.8098886" lon="-118.3941574">
  <ele>-30.93</ele>
  <time>2026-09-02T22:08:08Z</time>
  <course>209.62</course>
  <speed>0.97</speed>
  <fix>3d</fix>
</trkpt>
<trkpt lat="33.8098872" lon="-118.3941586">
  <ele>-31.967</ele>
  <time>2026-09-02T22:08:08Z</time>
  <course>210.64</course>
  <speed>0.9415412895885129</speed>
  <fix>3d</fix>
</trkpt>
<trkpt lat="33.8098886" lon="-118.3941574">
  <ele>-30.93</ele>
  <time>2026-09-02T22:08:08Z</time>
  <course>209.62</course>
  <speed>0.97</speed>
  <fix>3d</fix>
</trkpt>
<trkpt lat="33.8098864" lon="-118.3941591">
  <ele>-32.048</ele>
  <time>2026-09-02T22:08:08Z</time>
  <course>210.65</course>
  <speed>0.9501578816175763</speed>
  <fix>3d</fix>
</trkpt>
<trkpt lat="33.8098871" lon="-118.3941585">
  <ele>-31.09</ele>
  <time>2026-09-02T22:08:08Z</time>
  <course>209.64</course>
  <speed>0.97</speed>
  <fix>3d</fix>
</trkpt>
<trkpt lat="33.8098856" lon="-118.3941596">
  <ele>-32.131</ele>
  <time>2026-09-02T22:08:08Z</time>
  <course>210.66</course>
  <speed>0.9278469701410895</speed>
  <fix>3d</fix>
</trkpt>
<trkpt lat="33.8098871" lon="-118.3941585">
  <ele>-31.09</ele>
  <time>2026-09-02T22:08:08Z</time>
  <course>209.64</course>
  <speed>0.97</speed>
  <fix>3d</fix>
</trkpt>
<trkpt lat="33.8098849" lon="-118.3941601">
  <ele>-32.212</ele>
  <time>2026-09-02T22:08:08Z</time>
  <course>210.68</course>
  <speed>0.8746427842267951</speed>
  <fix>3d</fix>
</trkpt>
<trkpt lat="33.8098856" lon="-118.3941595">
  <ele>-31.25</ele>
  <time>2026-09-02T22:08:08Z</time>
  <course>209.69</course>
  <speed>0.94</speed>
  <fix>3d</fix>
</trkpt>
<trkpt lat="33.8098842" lon="-118.3941606">
  <ele>-32.295</ele>
  <time>2026-09-02T22:08:08Z</time>
  <course>210.72</course>
  <speed>0.8969392398596462</speed>
  <fix>3d</fix>
</trkpt>
<trkpt lat="33.8098856" lon="-118.3941595">
  <ele>-31.25</ele>
  <time>2026-09-02T22:08:08Z</time>
  <course>209.69</course>
  <speed>0.94</speed>
  <fix>3d</fix>
</trkpt>
<trkpt lat="33.8098835" lon="-118.3941611">
  <ele>-32.377</ele>
  <time>2026-09-02T22:08:08Z</time>
  <course>210.72</course>
  <speed>0.9055385138137417</speed>
  <fix>3d</fix>
</trkpt>
<trkpt lat="33.8098841" lon="-118.3941605">
  <ele>-31.41</ele>
  <time>2026-09-02T22:08:08Z</time>
  <course>209.68</course>
  <speed>0.92</speed>
  <fix>3d</fix>
</trkpt>
<trkpt lat="33.8098828" lon="-118.3941616">
  <ele>-32.461</ele>
  <time>2026-09-02T22:08:08Z</time>
  <course>210.71</course>
  <speed>0.9055385138137417</speed>
  <fix>3d</fix>
</trkpt>
<trkpt lat="33.8098841" lon="-118.3941605">
  <ele>-31.41</ele>
  <time>2026-09-02T22:08:08Z</time>
  <course>209.68</course>
  <speed>0.92</speed>
  <fix>3d</fix>
</trkpt>
<trkpt lat="33.809882" lon="-118.3941621">
  <ele>-32.544</ele>
  <time>2026-09-02T22:08:08Z</time>
  <course>210.69</course>
  <speed>0.9055385138137417</speed>
  <fix>3d</fix>
</trkpt>
<trkpt lat="33.8098827" lon="-118.3941615">
  <ele>-31.58</ele>
  <time>2026-09-02T22:08:08Z</time>
  <course>209.64</course>
  <speed>0.93</speed>
  <fix>3d</fix>
</trkpt>
<trkpt lat="33.8098813" lon="-118.3941626">
  <ele>-32.627</ele>
  <time>2026-09-02T22:08:08Z</time>
  <course>210.68</course>
  <speed>0.9055385138137417</speed>
  <fix>3d</fix>
</trkpt>
<trkpt lat="33.8098827" lon="-118.3941615">
  <ele>-31.58</ele>
  <time>2026-09-02T22:08:08Z</time>
  <course>209.64</course>
  <speed>0.93</speed>
  <fix>3d</fix>
</trkpt>
<trkpt lat="33.8098806" lon="-118.3941631">
  <ele>-32.712</ele>
  <time>2026-09-02T22:08:08Z</time>
  <course>210.67</course>
  <speed>0.9192388155425119</speed>
  <fix>3d</fix>
</trkpt>
<trkpt lat="33.8098812" lon="-118.3941625">
  <ele>-31.74</ele>
  <time>2026-09-02T22:08:08Z</time>
  <course>209.62</course>
  <speed>0.94</speed>
  <fix>3d</fix>
</trkpt>
<trkpt lat="33.8098798" lon="-118.3941636">
  <ele>-32.795</ele>
  <time>2026-09-02T22:08:08Z</time>
  <course>210.65</course>
  <speed>0.9278469701410895</speed>
  <fix>3d</fix>
</trkpt>
<trkpt lat="33.8098812" lon="-118.3941625">
  <ele>-31.74</ele>
  <time>2026-09-02T22:08:08Z</time>
  <course>209.62</course>
  <speed>0.94</speed>
  <fix>3d</fix>
</trkpt>
<trkpt lat="33.8098791" lon="-118.3941641">
  <ele>-32.878</ele>
  <time>2026-09-02T22:08:08Z</time>
  <course>210.64</course>
  <speed>0.9278469701410895</speed>
  <fix>3d</fix>
</trkpt>
<trkpt lat="33.8098797" lon="-118.3941635">
  <ele>-31.91</ele>
  <time>2026-09-02T22:08:08Z</time>
  <course>209.61</course>
  <speed>0.94</speed>
  <fix>3d</fix>
</trkpt>
<trkpt lat="33.8098783" lon="-118.3941646">
  <ele>-32.961</ele>
  <time>2026-09-02T22:08:08Z</time>
  <course>210.64</course>
  <speed>0.9278469701410895</speed>
  <fix>3d</fix>
</trkpt>
<trkpt lat="33.8098797" lon="-118.3941635">
  <ele>-31.91</ele>
  <time>2026-09-02T22:08:08Z</time>
  <course>209.61</course>
  <speed>0.94</speed>
  <fix>3d</fix>
</trkpt>
<trkpt lat="33.8098776" lon="-118.3941652">
  <ele>-33.046</ele>
  <time>2026-09-02T22:08:08Z</time>
  <course>210.64</course>
  <speed>0.9278469701410895</speed>
  <fix>3d</fix>
</trkpt>
<trkpt lat="33.8098782" lon="-118.3941646">
  <ele>-32.08</ele>
  <time>2026-09-02T22:08:08Z</time>
  <course>209.62</course>
  <speed>0.95</speed>
  <fix>3d</fix>
</trkpt>
<trkpt lat="33.8098768" lon="-118.3941657">
  <ele>-33.13</ele>
  <time>2026-09-02T22:08:08Z</time>
  <course>210.64</course>
  <speed>0.9278469701410895</speed>
  <fix>3d</fix>
</trkpt>
<trkpt lat="33.8098782" lon="-118.3941646">
  <ele>-32.08</ele>
  <time>2026-09-02T22:08:08Z</time>
  <course>209.62</course>
  <speed>0.95</speed>
  <fix>3d</fix>
</trkpt>
<trkpt lat="33.8098761" lon="-118.3941662">
  <ele>-33.215</ele>
  <time>2026-09-02T22:08:08Z</time>
  <course>210.62</course>
  <speed>0.9415412895885129</speed>
  <fix>3d</fix>
</trkpt>
<trkpt lat="33.8098767" lon="-118.3941656">
  <ele>-32.24</ele>
  <time>2026-09-02T22:08:08Z</time>
  <course>209.62</course>
  <speed>0.96</speed>
  <fix>3d</fix>
</trkpt>
<trkpt lat="33.8098753" lon="-118.3941667">
  <ele>-33.299</ele>
  <time>2026-09-02T22:08:08Z</time>
  <course>210.61</course>
  <speed>0.9415412895885129</speed>
  <fix>3d</fix>
</trkpt>
<trkpt lat="33.8098767" lon="-118.3941656">
  <ele>-32.24</ele>
  <time>2026-09-02T22:08:08Z</time>
  <course>209.62</course>
  <speed>0.96</speed>
  <fix>3d</fix>
</trkpt>
<trkpt lat="33.8098745" lon="-118.3941672">
  <ele>-33.383</ele>
  <time>2026-09-02T22:08:08Z</time>
  <course>210.59</course>
  <speed>0.9415412895885129</speed>
  <fix>3d</fix>
</trkpt>
<trkpt lat="33.8098752" lon="-118.3941666">
  <ele>-32.41</ele>
  <time>2026-09-02T22:08:08Z</time>
  <course>209.59</course>
  <speed>0.96</speed>
  <fix>3d</fix>
</trkpt>
<trkpt lat="33.8098738" lon="-118.3941678">
  <ele>-33.467</ele>
  <time>2026-09-02T22:08:08Z</time>
  <course>210.59</course>
  <speed>0.9415412895885129</speed>
  <fix>3d</fix>
</trkpt>
<trkpt lat="33.8098752" lon="-118.3941666">
  <ele>-32.41</ele>
  <time>2026-09-02T22:08:08Z</time>
  <course>209.59</course>
  <speed>0.96</speed>
  <fix>3d</fix>
</trkpt>
<trkpt lat="33.809873" lon="-118.3941683">
  <ele>-33.552</ele>
  <time>2026-09-02T22:08:08Z</time>
  <course>210.58</course>
  <speed>0.9415412895885129</speed>
  <fix>3d</fix>
</trkpt>
<trkpt lat="33.8098737" lon="-118.3941676">
  <ele>-32.58</ele>
  <time>2026-09-02T22:08:08Z</time>
  <course>209.59</course>
  <speed>0.96</speed>
  <fix>3d</fix>
</trkpt>
<trkpt lat="33.8098723" lon="-118.3941688">
  <ele>-33.639</ele>
  <time>2026-09-02T22:08:08Z</time>
  <course>210.58</course>
  <speed>0.9415412895885129</speed>
  <fix>3d</fix>
</trkpt>
<trkpt lat="33.8098737" lon="-118.3941676">
  <ele>-32.58</ele>
  <time>2026-09-02T22:08:08Z</time>
  <course>209.59</course>
  <speed>0.96</speed>
  <fix>3d</fix>
</trkpt>
<trkpt lat="33.8098715" lon="-118.3941693">
  <ele>-33.726</ele>
  <time>2026-09-02T22:08:08Z</time>
  <course>210.58</course>
  <speed>0.9415412895885129</speed>
  <fix>3d</fix>
</trkpt>
<trkpt lat="33.8098722" lon="-118.3941687">
  <ele>-32.75</ele>
  <time>2026-09-02T22:08:08Z</time>
  <course>209.61</course>
  <speed>0.97</speed>
  <fix>3d</fix>
</trkpt>
<trkpt lat="33.8098707" lon="-118.3941698">
  <ele>-33.812</ele>
  <time>2026-09-02T22:08:08Z</time>
  <course>210.59</course>
  <speed>0.9501578816175763</speed>
  <fix>3d</fix>
</trkpt>
<trkpt lat="33.8098722" lon="-118.3941687">
  <ele>-32.75</ele>
  <time>2026-09-02T22:08:08Z</time>
  <course>209.61</course>
  <speed>0.97</speed>
  <fix>3d</fix>
</trkpt>
<trkpt lat="33.80987" lon="-118.3941704">
  <ele>-33.898</ele>
  <time>2026-09-02T22:08:08Z</time>
  <course>210.59</course>
  <speed>0.9501578816175763</speed>
  <fix>3d</fix>
</trkpt>
<trkpt lat="33.8098707" lon="-118.3941697">
  <ele>-32.92</ele>
  <time>2026-09-02T22:08:08Z</time>
  <course>209.61</course>
  <speed>0.97</speed>
  <fix>3d</fix>
</trkpt>
<trkpt lat="33.8098692" lon="-118.3941709">
  <ele>-33.982</ele>
  <time>2026-09-02T22:08:08Z</time>
  <course>210.59</course>
  <speed>0.9501578816175763</speed>
  <fix>3d</fix>
</trkpt>
<trkpt lat="33.8098707" lon="-118.3941697">
  <ele>-32.92</ele>
  <time>2026-09-02T22:08:08Z</time>
  <course>209.61</course>
  <speed>0.97</speed>
  <fix>3d</fix>
</trkpt>
<trkpt lat="33.8098684" lon="-118.3941714">
  <ele>-34.065</ele>
  <time>2026-09-02T22:08:08Z</time>
  <course>210.58</course>
  <speed>0.9501578816175763</speed>
  <fix>3d</fix>
</trkpt>
<trkpt lat="33.8098691" lon="-118.3941708">
  <ele>-33.08</ele>
  <time>2026-09-02T22:08:08Z</time>
  <course>209.58</course>
  <speed>0.98</speed>
  <fix>3d</fix>
</trkpt>
<trkpt lat="33.8098677" lon="-118.3941719">
  <ele>-34.147</ele>
  <time>2026-09-02T22:08:08Z</time>
  <course>210.57</course>
  <speed>0.95524865872714</speed>
  <fix>3d</fix>
</trkpt>
<trkpt lat="33.8098691" lon="-118.3941708">
  <ele>-33.08</ele>
  <time>2026-09-02T22:08:08Z</time>
  <course>209.58</course>
  <speed>0.98</speed>
  <fix>3d</fix>
</trkpt>
<trkpt lat="33.8098669" lon="-118.3941725">
  <ele>-34.228</ele>
  <time>2026-09-02T22:08:08Z</time>
  <course>210.56</course>
  <speed>0.95524865872714</speed>
  <fix>3d</fix>
</trkpt>
<trkpt lat="33.8098676" lon="-118.3941718">
  <ele>-33.25</ele>
  <time>2026-09-02T22:08:08Z</time>
  <course>209.57</course>
  <speed>0.98</speed>
  <fix>3d</fix>
</trkpt>
<trkpt lat="33.8098661" lon="-118.394173">
  <ele>-34.309</ele>
  <time>2026-09-02T22:08:08Z</time>
  <course>210.55</course>
  <speed>0.95524865872714</speed>
  <fix>3d</fix>
</trkpt>
<trkpt lat="33.8098676" lon="-118.3941718">
  <ele>-33.25</ele>
  <time>2026-09-02T22:08:08Z</time>
  <course>209.57</course>
  <speed>0.98</speed>
  <fix>3d</fix>
</trkpt>
<trkpt lat="33.8098653" lon="-118.3941735">
  <ele>-34.391</ele>
  <time>2026-09-02T22:08:08Z</time>
  <course>210.56</course>
  <speed>0.9501578816175763</speed>
  <fix>3d</fix>
</trkpt>
<trkpt lat="33.809866" lon="-118.3941729">
  <ele>-33.41</ele>
  <time>2026-09-02T22:08:08Z</time>
  <course>209.57</course>
  <speed>0.98</speed>
  <fix>3d</fix>
</trkpt>
<trkpt lat="33.8098646" lon="-118.3941741">
  <ele>-34.474</ele>
  <time>2026-09-02T22:08:08Z</time>
  <course>210.55</course>
  <speed>0.95524865872714</speed>
  <fix>3d</fix>
</trkpt>
<trkpt lat="33.809866" lon="-118.3941729">
  <ele>-33.41</ele>
  <time>2026-09-02T22:08:08Z</time>
  <course>209.57</course>
  <speed>0.98</speed>
  <fix>3d</fix>
</trkpt>
<trkpt lat="33.8098638" lon="-118.3941746">
  <ele>-34.556</ele>
  <time>2026-09-02T22:08:08Z</time>
  <course>210.56</course>
  <speed>0.9501578816175763</speed>
  <fix>3d</fix>
</trkpt>
<trkpt lat="33.8098645" lon="-118.3941739">
  <ele>-33.57</ele>
  <time>2026-09-02T22:08:08Z</time>
  <course>209.58</course>
  <speed>0.98</speed>
  <fix>3d</fix>
</trkpt>
<trkpt lat="33.809863" lon="-118.3941751">
  <ele>-34.641</ele>
  <time>2026-09-02T22:08:08Z</time>
  <course>210.57</course>
  <speed>0.9501578816175763</speed>
  <fix>3d</fix>
</trkpt>
<trkpt lat="33.8098645" lon="-118.3941739">
  <ele>-33.57</ele>
  <time>2026-09-02T22:08:08Z</time>
  <course>209.58</course>
  <speed>0.98</speed>
  <fix>3d</fix>
</trkpt>
<trkpt lat="33.8098623" lon="-118.3941756">
  <ele>-34.728</ele>
  <time>2026-09-02T22:08:08Z</time>
  <course>210.58</course>
  <speed>0.9501578816175763</speed>
  <fix>3d</fix>
</trkpt>
<trkpt lat="33.809863" lon="-118.394175">
  <ele>-33.73</ele>
  <time>2026-09-02T22:08:08Z</time>
  <course>209.58</course>
  <speed>0.98</speed>
  <fix>3d</fix>
</trkpt>
<trkpt lat="33.8098615" lon="-118.3941762">
  <ele>-34.814</ele>
  <time>2026-09-02T22:08:08Z</time>
  <course>210.58</course>
  <speed>0.95524865872714</speed>
  <fix>3d</fix>
</trkpt>
<trkpt lat="33.809863" lon="-118.394175">
  <ele>-33.73</ele>
  <time>2026-09-02T22:08:08Z</time>
  <course>209.58</course>
  <speed>0.98</speed>
  <fix>3d</fix>
</trkpt>
<trkpt lat="33.8098607" lon="-118.3941767">
  <ele>-34.899</ele>
  <time>2026-09-02T22:08:08Z</time>
  <course>210.58</course>
  <speed>0.9638464608017192</speed>
  <fix>3d</fix>
</trkpt>
<trkpt lat="33.8098615" lon="-118.394176">
  <ele>-33.9</ele>
  <time>2026-09-02T22:08:08Z</time>
  <course>209.57</course>
  <speed>0.98</speed>
  <fix>3d</fix>
</trkpt>
<trkpt lat="33.80986" lon="-118.3941772">
  <ele>-34.981</ele>
  <time>2026-09-02T22:08:08Z</time>
  <course>210.57</course>
  <speed>0.95524865872714</speed>
  <fix>3d</fix>
</trkpt>
<trkpt lat="33.8098615" lon="-118.394176">
  <ele>-33.9</ele>
  <time>2026-09-02T22:08:08Z</time>
  <course>209.57</course>
  <speed>0.98</speed>
  <fix>3d</fix>
</trkpt>
<trkpt lat="33.8098592" lon="-118.3941777">
  <ele>-35.058</ele>
  <time>2026-09-02T22:08:08Z</time>
  <course>210.58</course>
  <speed>0.914166286842826</speed>
  <fix>3d</fix>
</trkpt>
<trkpt lat="33.80986" lon="-118.3941771">
  <ele>-34.05</ele>
  <time>2026-09-02T22:08:08Z</time>
  <course>209.58</course>
  <speed>0.96</speed>
  <fix>3d</fix>
</trkpt>
<trkpt lat="33.8098585" lon="-118.3941782">
  <ele>-35.132</ele>
  <time>2026-09-02T22:08:08Z</time>
  <course>210.61</course>
  <speed>0.9415412895885129</speed>
  <fix>3d</fix>
</trkpt>
<trkpt lat="33.80986" lon="-118.3941771">
  <ele>-34.05</ele>
  <time>2026-09-02T22:08:08Z</time>
  <course>209.58</course>
  <speed>0.96</speed>
  <fix>3d</fix>
</trkpt>
<trkpt lat="33.8098577" lon="-118.3941788">
  <ele>-35.199</ele>
  <time>2026-09-02T22:08:08Z</time>
  <course>210.61</course>
  <speed>0.9638464608017192</speed>
  <fix>3d</fix>
</trkpt>
<trkpt lat="33.8098584" lon="-118.3941781">
  <ele>-34.21</ele>
  <time>2026-09-02T22:08:08Z</time>
  <course>209.54</course>
  <speed>0.96</speed>
  <fix>3d</fix>
</trkpt>
<trkpt lat="33.8098569" lon="-118.3941793">
  <ele>-35.259</ele>
  <time>2026-09-02T22:08:08Z</time>
  <course>210.58</course>
  <speed>0.9638464608017192</speed>
  <fix>3d</fix>
</trkpt>
<trkpt lat="33.8098584" lon="-118.3941781">
  <ele>-34.21</ele>
  <time>2026-09-02T22:08:08Z</time>
  <course>209.54</course>
  <speed>0.96</speed>
  <fix>3d</fix>
</trkpt>
<trkpt lat="33.8098562" lon="-118.3941798">
  <ele>-35.312</ele>
  <time>2026-09-02T22:08:08Z</time>
  <course>210.55</course>
  <speed>0.9638464608017192</speed>
  <fix>3d</fix>
</trkpt>
<trkpt lat="33.8098569" lon="-118.3941791">
  <ele>-34.34</ele>
  <time>2026-09-02T22:08:08Z</time>
  <course>209.49</course>
  <speed>0.98</speed>
  <fix>3d</fix>
</trkpt>
<trkpt lat="33.8098554" lon="-118.3941803">
  <ele>-35.356</ele>
  <time>2026-09-02T22:08:08Z</time>
  <course>210.54</course>
  <speed>0.9638464608017192</speed>
  <fix>3d</fix>
</trkpt>
<trkpt lat="33.8098569" lon="-118.3941791">
  <ele>-34.34</ele>
  <time>2026-09-02T22:08:08Z</time>
  <course>209.49</course>
  <speed>0.98</speed>
  <fix>3d</fix>
</trkpt>
<trkpt lat="33.8098546" lon="-118.3941809">
  <ele>-35.391</ele>
  <time>2026-09-02T22:08:08Z</time>
  <course>210.55</course>
  <speed>0.9638464608017192</speed>
  <fix>3d</fix>
</trkpt>
<trkpt lat="33.8098554" lon="-118.3941802">
  <ele>-34.44</ele>
  <time>2026-09-02T22:08:08Z</time>
  <course>209.49</course>
  <speed>0.99</speed>
  <fix>3d</fix>
</trkpt>
<trkpt lat="33.8098538" lon="-118.3941814">
  <ele>-35.419</ele>
  <time>2026-09-02T22:08:08Z</time>
  <course>210.56</course>
  <speed>0.9638464608017192</speed>
  <fix>3d</fix>
</trkpt>
<trkpt lat="33.8098554" lon="-118.3941802">
  <ele>-34.44</ele>
  <time>2026-09-02T22:08:08Z</time>
  <course>209.49</course>
  <speed>0.99</speed>
  <fix>3d</fix>
</trkpt>
<trkpt lat="33.8098531" lon="-118.3941819">
  <ele>-35.437</ele>
  <time>2026-09-02T22:08:08Z</time>
  <course>210.57</course>
  <speed>0.9638464608017192</speed>
  <fix>3d</fix>
</trkpt>
<trkpt lat="33.8098538" lon="-118.3941812">
  <ele>-34.52</ele>
  <time>2026-09-02T22:08:08Z</time>
  <course>209.49</course>
  <speed>0.99</speed>
  <fix>3d</fix>
</trkpt>
<trkpt lat="33.8098523" lon="-118.3941825">
  <ele>-35.443</ele>
  <time>2026-09-02T22:08:08Z</time>
  <course>210.57</course>
  <speed>0.9638464608017192</speed>
  <fix>3d</fix>
</trkpt>
<trkpt lat="33.8098538" lon="-118.3941812">
  <ele>-34.52</ele>
  <time>2026-09-02T22:08:08Z</time>
  <course>209.49</course>
  <speed>0.99</speed>
  <fix>3d</fix>
</trkpt>
<trkpt lat="33.8098515" lon="-118.394183">
  <ele>-35.436</ele>
  <time>2026-09-02T22:08:08Z</time>
  <course>210.59</course>
  <speed>0.9638464608017192</speed>
  <fix>3d</fix>
</trkpt>
<trkpt lat="33.8098522" lon="-118.3941823">
  <ele>-34.55</ele>
  <time>2026-09-02T22:08:08Z</time>
  <course>209.48</course>
  <speed>0.99</speed>
  <fix>3d</fix>
</trkpt>
<trkpt lat="33.8098507" lon="-118.3941835">
  <ele>-35.419</ele>
  <time>2026-09-02T22:08:08Z</time>
  <course>210.61</course>
  <speed>0.9638464608017192</speed>
  <fix>3d</fix>
</trkpt>
<trkpt lat="33.8098522" lon="-118.3941823">
  <ele>-34.55</ele>
  <time>2026-09-02T22:08:08Z</time>
  <course>209.48</course>
  <speed>0.99</speed>
  <fix>3d</fix>
</trkpt>
<trkpt lat="33.80985" lon="-118.394184">
  <ele>-35.391</ele>
  <time>2026-09-02T22:08:08Z</time>
  <course>210.65</course>
  <speed>0.9638464608017192</speed>
  <fix>3d</fix>
</trkpt>
<trkpt lat="33.8098507" lon="-118.3941834">
  <ele>-34.55</ele>
  <time>2026-09-02T22:08:08Z</time>
  <course>209.5</course>
  <speed>0.99</speed>
  <fix>3d</fix>
</trkpt>
<trkpt lat="33.8098492" lon="-118.3941846">
  <ele>-35.353</ele>
  <time>2026-09-02T22:08:08Z</time>
  <course>210.68</course>
  <speed>0.9638464608017192</speed>
  <fix>3d</fix>
</trkpt>
<trkpt lat="33.8098507" lon="-118.3941834">
  <ele>-34.55</ele>
  <time>2026-09-02T22:08:08Z</time>
  <course>209.5</course>
  <speed>0.99</speed>
  <fix>3d</fix>
</trkpt>
<trkpt lat="33.8098484" lon="-118.3941851">
  <ele>-35.304</ele>
  <time>2026-09-02T22:08:08Z</time>
  <course>210.7</course>
  <speed>0.9638464608017192</speed>
  <fix>3d</fix>
</trkpt>
<trkpt lat="33.8098491" lon="-118.3941844">
  <ele>-34.5</ele>
  <time>2026-09-02T22:08:08Z</time>
  <course>209.52</course>
  <speed>0.99</speed>
  <fix>3d</fix>
</trkpt>
<trkpt lat="33.8098476" lon="-118.3941856">
  <ele>-35.25</ele>
  <time>2026-09-02T22:08:08Z</time>
  <course>210.71</course>
  <speed>0.9638464608017192</speed>
  <fix>3d</fix>
</trkpt>
<trkpt lat="33.8098491" lon="-118.3941844">
  <ele>-34.5</ele>
  <time>2026-09-02T22:08:08Z</time>
  <course>209.52</course>
  <speed>0.99</speed>
  <fix>3d</fix>
</trkpt>
<trkpt lat="33.8098469" lon="-118.3941862">
  <ele>-35.193</ele>
  <time>2026-09-02T22:08:08Z</time>
  <course>210.72</course>
  <speed>0.9638464608017192</speed>
  <fix>3d</fix>
</trkpt>
<trkpt lat="33.8098476" lon="-118.3941855">
  <ele>-34.42</ele>
  <time>2026-09-02T22:08:08Z</time>
  <course>209.53</course>
  <speed>0.99</speed>
  <fix>3d</fix>
</trkpt>
<trkpt lat="33.8098461" lon="-118.3941867">
  <ele>-35.138</ele>
  <time>2026-09-02T22:08:08Z</time>
  <course>210.74</course>
  <speed>0.9638464608017192</speed>
  <fix>3d</fix>
</trkpt>
<trkpt lat="33.8098476" lon="-118.3941855">
  <ele>-34.42</ele>
  <time>2026-09-02T22:08:08Z</time>
  <course>209.53</course>
  <speed>0.99</speed>
  <fix>3d</fix>
</trkpt>
<trkpt lat="33.8098453" lon="-118.3941872">
  <ele>-35.083</ele>
  <time>2026-09-02T22:08:08Z</time>
  <course>210.75</course>
  <speed>0.9638464608017192</speed>
  <fix>3d</fix>
</trkpt>
<trkpt lat="33.809846" lon="-118.3941865">
  <ele>-34.33</ele>
  <time>2026-09-02T22:08:08Z</time>
  <course>209.55</course>
  <speed>0.99</speed>
  <fix>3d</fix>
</trkpt>
<trkpt lat="33.8098445" lon="-118.3941878">
  <ele>-35.028</ele>
  <time>2026-09-02T22:08:08Z</time>
  <course>210.76</course>
  <speed>0.9638464608017192</speed>
  <fix>3d</fix>
</trkpt>
<trkpt lat="33.809846" lon="-118.3941865">
  <ele>-34.33</ele>
  <time>2026-09-02T22:08:08Z</time>
  <course>209.55</course>
  <speed>0.99</speed>
  <fix>3d</fix>
</trkpt>
<trkpt lat="33.8098438" lon="-118.3941883">
  <ele>-34.975</ele>
  <time>2026-09-02T22:08:08Z</time>
  <course>210.78</course>
  <speed>0.9638464608017192</speed>
  <fix>3d</fix>
</trkpt>
<trkpt lat="33.8098444" lon="-118.3941876">
  <ele>-34.23</ele>
  <time>2026-09-02T22:08:08Z</time>
  <course>209.59</course>
  <speed>0.99</speed>
  <fix>3d</fix>
</trkpt>
<trkpt lat="33.809843" lon="-118.3941888">
  <ele>-34.928</ele>
  <time>2026-09-02T22:08:08Z</time>
  <course>210.81</course>
  <speed>0.95524865872714</speed>
  <fix>3d</fix>
</trkpt>
<trkpt lat="33.8098444" lon="-118.3941876">
  <ele>-34.23</ele>
  <time>2026-09-02T22:08:08Z</time>
  <course>209.59</course>
  <speed>0.99</speed>
  <fix>3d</fix>
</trkpt>
<trkpt lat="33.8098422" lon="-118.3941893">
  <ele>-34.884</ele>
  <time>2026-09-02T22:08:08Z</time>
  <course>210.84</course>
  <speed>0.9638464608017192</speed>
  <fix>3d</fix>
</trkpt>
<trkpt lat="33.8098429" lon="-118.3941887">
  <ele>-34.14</ele>
  <time>2026-09-02T22:08:08Z</time>
  <course>209.65</course>
  <speed>0.99</speed>
  <fix>3d</fix>
</trkpt>
<trkpt lat="33.8098414" lon="-118.3941899">
  <ele>-34.846</ele>
  <time>2026-09-02T22:08:08Z</time>
  <course>210.86</course>
  <speed>0.95524865872714</speed>
  <fix>3d</fix>
</trkpt>
<trkpt lat="33.8098429" lon="-118.3941887">
  <ele>-34.14</ele>
  <time>2026-09-02T22:08:08Z</time>
  <course>209.65</course>
  <speed>0.99</speed>
  <fix>3d</fix>
</trkpt>
<trkpt lat="33.8098406" lon="-118.3941904">
  <ele>-34.814</ele>
  <time>2026-09-02T22:08:08Z</time>
  <course>210.87</course>
  <speed>0.9638464608017192</speed>
  <fix>3d</fix>
</trkpt>
<trkpt lat="33.8098413" lon="-118.3941897">
  <ele>-34.06</ele>
  <time>2026-09-02T22:08:08Z</time>
  <course>209.67</course>
  <speed>0.99</speed>
  <fix>3d</fix>
</trkpt>
<trkpt lat="33.8098399" lon="-118.3941909">
  <ele>-34.79</ele>
  <time>2026-09-02T22:08:08Z</time>
  <course>210.87</course>
  <speed>0.95524865872714</speed>
  <fix>3d</fix>
</trkpt>
<trkpt lat="33.8098413" lon="-118.3941897">
  <ele>-34.06</ele>
  <time>2026-09-02T22:08:08Z</time>
  <course>209.67</course>
  <speed>0.99</speed>
  <fix>3d</fix>
</trkpt>
<trkpt lat="33.8098391" lon="-118.3941915">
  <ele>-34.778</ele>
  <time>2026-09-02T22:08:08Z</time>
  <course>210.89</course>
  <speed>0.9638464608017192</speed>
  <fix>3d</fix>
</trkpt>
<trkpt lat="33.8098398" lon="-118.3941908">
  <ele>-34.0</ele>
  <time>2026-09-02T22:08:08Z</time>
  <course>209.71</course>
  <speed>0.98</speed>
  <fix>3d</fix>
</trkpt>
<trkpt lat="33.8098383" lon="-118.394192">
  <ele>-34.778</ele>
  <time>2026-09-02T22:08:08Z</time>
  <course>210.91</course>
  <speed>0.95524865872714</speed>
  <fix>3d</fix>
</trkpt>
<trkpt lat="33.8098398" lon="-118.3941908">
  <ele>-34.0</ele>
  <time>2026-09-02T22:08:08Z</time>
  <course>209.71</course>
  <speed>0.98</speed>
  <fix>3d</fix>
</trkpt>
<trkpt lat="33.8098375" lon="-118.3941925">
  <ele>-34.79</ele>
  <time>2026-09-02T22:08:08Z</time>
  <course>210.92</course>
  <speed>0.9638464608017192</speed>
  <fix>3d</fix>
</trkpt>
<trkpt lat="33.8098382" lon="-118.3941918">
  <ele>-33.98</ele>
  <time>2026-09-02T22:08:08Z</time>
  <course>209.77</course>
  <speed>0.98</speed>
  <fix>3d</fix>
</trkpt>
<trkpt lat="33.8098368" lon="-118.3941931">
  <ele>-34.813</ele>
  <time>2026-09-02T22:08:08Z</time>
  <course>210.92</course>
  <speed>0.95524865872714</speed>
  <fix>3d</fix>
</trkpt>
<trkpt lat="33.8098382" lon="-118.3941918">
  <ele>-33.98</ele>
  <time>2026-09-02T22:08:08Z</time>
  <course>209.77</course>
  <speed>0.98</speed>
  <fix>3d</fix>
</trkpt>
<trkpt lat="33.809836" lon="-118.3941936">
  <ele>-34.844</ele>
  <time>2026-09-02T22:08:08Z</time>
  <course>210.93</course>
  <speed>0.9638464608017192</speed>
  <fix>3d</fix>
</trkpt>
<trkpt lat="33.8098367" lon="-118.3941929">
  <ele>-34.0</ele>
  <time>2026-09-02T22:08:08Z</time>
  <course>209.82</course>
  <speed>0.98</speed>
  <fix>3d</fix>
</trkpt>
<trkpt lat="33.8098352" lon="-118.3941941">
  <ele>-34.879</ele>
  <time>2026-09-02T22:08:08Z</time>
  <course>210.94</course>
  <speed>0.9638464608017192</speed>
  <fix>3d</fix>
</trkpt>
<trkpt lat="33.8098367" lon="-118.3941929">
  <ele>-34.0</ele>
  <time>2026-09-02T22:08:08Z</time>
  <course>209.82</course>
  <speed>0.98</speed>
  <fix>3d</fix>
</trkpt>
<trkpt lat="33.8098344" lon="-118.3941946">
  <ele>-34.915</ele>
  <time>2026-09-02T22:08:08Z</time>
  <course>210.95</course>
  <speed>0.9638464608017192</speed>
  <fix>3d</fix>
</trkpt>
<trkpt lat="33.8098352" lon="-118.394194">
  <ele>-34.05</ele>
  <time>2026-09-02T22:08:08Z</time>
  <course>209.86</course>
  <speed>0.98</speed>
  <fix>3d</fix>
</trkpt>
<trkpt lat="33.8098337" lon="-118.3941952">
  <ele>-34.952</ele>
  <time>2026-09-02T22:08:08Z</time>
  <course>210.93</course>
  <speed>0.9638464608017192</speed>
  <fix>3d</fix>
</trkpt>
<trkpt lat="33.8098352" lon="-118.394194">
  <ele>-34.05</ele>
  <time>2026-09-02T22:08:08Z</time>
  <course>209.86</course>
  <speed>0.98</speed>
  <fix>3d</fix>
</trkpt>
<trkpt lat="33.8098329" lon="-118.3941957">
  <ele>-34.988</ele>
  <time>2026-09-02T22:08:08Z</time>
  <course>210.89</course>
  <speed>0.9638464608017192</speed>
  <fix>3d</fix>
</trkpt>
<trkpt lat="33.8098337" lon="-118.394195">
  <ele>-34.11</ele>
  <time>2026-09-02T22:08:08Z</time>
  <course>209.82</course>
  <speed>0.98</speed>
  <fix>3d</fix>
</trkpt>
<trkpt lat="33.8098321" lon="-118.3941962">
  <ele>-35.023</ele>
  <time>2026-09-02T22:08:08Z</time>
  <course>210.85</course>
  <speed>0.9638464608017192</speed>
  <fix>3d</fix>
</trkpt>
<trkpt lat="33.8098337" lon="-118.394195">
  <ele>-34.11</ele>
  <time>2026-09-02T22:08:08Z</time>
  <course>209.82</course>
  <speed>0.98</speed>
  <fix>3d</fix>
</trkpt>
<trkpt lat="33.8098313" lon="-118.3941968">
  <ele>-35.056</ele>
  <time>2026-09-02T22:08:08Z</time>
  <course>210.81</course>
  <speed>0.9638464608017192</speed>
  <fix>3d</fix>
</trkpt>
<trkpt lat="33.8098321" lon="-118.3941961">
  <ele>-34.17</ele>
  <time>2026-09-02T22:08:08Z</time>
  <course>209.75</course>
  <speed>0.99</speed>
  <fix>3d</fix>
</trkpt>
<trkpt lat="33.8098306" lon="-118.3941973">
  <ele>-35.086</ele>
  <time>2026-09-02T22:08:08Z</time>
  <course>210.77</course>
  <speed>0.9638464608017192</speed>
  <fix>3d</fix>
</trkpt>
<trkpt lat="33.8098321" lon="-118.3941961">
  <ele>-34.17</ele>
  <time>2026-09-02T22:08:08Z</time>
  <course>209.75</course>
  <speed>0.99</speed>
  <fix>3d</fix>
</trkpt>
<trkpt lat="33.8098298" lon="-118.3941978">
  <ele>-35.113</ele>
  <time>2026-09-02T22:08:08Z</time>
  <course>210.74</course>
  <speed>0.9638464608017192</speed>
  <fix>3d</fix>
</trkpt>
<trkpt lat="33.8098306" lon="-118.3941972">
  <ele>-34.23</ele>
  <time>2026-09-02T22:08:08Z</time>
  <course>209.72</course>
  <speed>0.99</speed>
  <fix>3d</fix>
</trkpt>
<trkpt lat="33.809829" lon="-118.3941984">
  <ele>-35.136</ele>
  <time>2026-09-02T22:08:08Z</time>
  <course>210.7</course>
  <speed>0.9638464608017192</speed>
  <fix>3d</fix>
</trkpt>
<trkpt lat="33.8098306" lon="-118.3941972">
  <ele>-34.23</ele>
  <time>2026-09-02T22:08:08Z</time>
  <course>209.72</course>
  <speed>0.99</speed>
  <fix>3d</fix>
</trkpt>
<trkpt lat="33.8098283" lon="-118.3941989">
  <ele>-35.157</ele>
  <time>2026-09-02T22:08:08Z</time>
  <course>210.65</course>
  <speed>0.9638464608017192</speed>
  <fix>3d</fix>
</trkpt>
<trkpt lat="33.809829" lon="-118.3941982">
  <ele>-34.28</ele>
  <time>2026-09-02T22:08:08Z</time>
  <course>209.67</course>
  <speed>0.99</speed>
  <fix>3d</fix>
</trkpt>
<trkpt lat="33.8098275" lon="-118.3941994">
  <ele>-35.174</ele>
  <time>2026-09-02T22:08:08Z</time>
  <course>210.6</course>
  <speed>0.9638464608017192</speed>
  <fix>3d</fix>
</trkpt>
<trkpt lat="33.809829" lon="-118.3941982">
  <ele>-34.28</ele>
  <time>2026-09-02T22:08:08Z</time>
  <course>209.67</course>
  <speed>0.99</speed>
  <fix>3d</fix>
</trkpt>
<trkpt lat="33.8098267" lon="-118.3942">
  <ele>-35.185</ele>
  <time>2026-09-02T22:08:08Z</time>
  <course>210.57</course>
  <speed>0.9638464608017192</speed>
  <fix>3d</fix>
</trkpt>
<trkpt lat="33.8098275" lon="-118.3941993">
  <ele>-34.31</ele>
  <time>2026-09-02T22:08:08Z</time>
  <course>209.62</course>
  <speed>0.99</speed>
  <fix>3d</fix>
</trkpt>
<trkpt lat="33.8098259" lon="-118.3942005">
  <ele>-35.189</ele>
  <time>2026-09-02T22:08:08Z</time>
  <course>210.55</course>
  <speed>0.9638464608017192</speed>
  <fix>3d</fix>
</trkpt>
<trkpt lat="33.8098275" lon="-118.3941993">
  <ele>-34.31</ele>
  <time>2026-09-02T22:08:08Z</time>
  <course>209.62</course>
  <speed>0.99</speed>
  <fix>3d</fix>
</trkpt>
<trkpt lat="33.8098252" lon="-118.394201">
  <ele>-35.187</ele>
  <time>2026-09-02T22:08:08Z</time>
  <course>210.53</course>
  <speed>0.9638464608017192</speed>
  <fix>3d</fix>
</trkpt>
<trkpt lat="33.8098259" lon="-118.3942003">
  <ele>-34.33</ele>
  <time>2026-09-02T22:08:08Z</time>
  <course>209.57</course>
  <speed>0.99</speed>
  <fix>3d</fix>
</trkpt>
<trkpt lat="33.8098244" lon="-118.3942016">
  <ele>-35.174</ele>
  <time>2026-09-02T22:08:08Z</time>
  <course>210.52</course>
  <speed>0.9638464608017192</speed>
  <fix>3d</fix>
</trkpt>
<trkpt lat="33.8098259" lon="-118.3942003">
  <ele>-34.33</ele>
  <time>2026-09-02T22:08:08Z</time>
  <course>209.57</course>
  <speed>0.99</speed>
  <fix>3d</fix>
</trkpt>
<trkpt lat="33.8098236" lon="-118.3942021">
  <ele>-35.153</ele>
  <time>2026-09-02T22:08:08Z</time>
  <course>210.52</course>
  <speed>0.9638464608017192</speed>
  <fix>3d</fix>
</trkpt>
<trkpt lat="33.8098243" lon="-118.3942014">
  <ele>-34.32</ele>
  <time>2026-09-02T22:08:08Z</time>
  <course>209.56</course>
  <speed>0.99</speed>
  <fix>3d</fix>
</trkpt>
<trkpt lat="33.8098228" lon="-118.3942026">
  <ele>-35.126</ele>
  <time>2026-09-02T22:08:08Z</time>
  <course>210.52</course>
  <speed>0.9638464608017192</speed>
  <fix>3d</fix>
</trkpt>
<trkpt lat="33.8098243" lon="-118.3942014">
  <ele>-34.32</ele>
  <time>2026-09-02T22:08:08Z</time>
  <course>209.56</course>
  <speed>0.99</speed>
  <fix>3d</fix>
</trkpt>
<trkpt lat="33.809822" lon="-118.3942032">
  <ele>-35.095</ele>
  <time>2026-09-02T22:08:08Z</time>
  <course>210.54</course>
  <speed>0.9638464608017192</speed>
  <fix>3d</fix>
</trkpt>
<trkpt lat="33.8098228" lon="-118.3942025">
  <ele>-34.28</ele>
  <time>2026-09-02T22:08:08Z</time>
  <course>209.59</course>
  <speed>0.99</speed>
  <fix>3d</fix>
</trkpt>
<trkpt lat="33.8098213" lon="-118.3942037">
  <ele>-35.061</ele>
  <time>2026-09-02T22:08:08Z</time>
  <course>210.56</course>
  <speed>0.9638464608017192</speed>
  <fix>3d</fix>
</trkpt>
<trkpt lat="33.8098228" lon="-118.3942025">
  <ele>-34.28</ele>
  <time>2026-09-02T22:08:08Z</time>
  <course>209.59</course>
  <speed>0.99</speed>
  <fix>3d</fix>
</trkpt>
<trkpt lat="33.8098205" lon="-118.3942042">
  <ele>-35.029</ele>
  <time>2026-09-02T22:08:08Z</time>
  <course>210.56</course>
  <speed>0.9638464608017192</speed>
  <fix>3d</fix>
</trkpt>
<trkpt lat="33.8098212" lon="-118.3942035">
  <ele>-34.23</ele>
  <time>2026-09-02T22:08:08Z</time>
  <course>209.6</course>
  <speed>0.99</speed>
  <fix>3d</fix>
</trkpt>
<trkpt lat="33.8098197" lon="-118.3942048">
  <ele>-35.0</ele>
  <time>2026-09-02T22:08:08Z</time>
  <course>210.55</course>
  <speed>0.9638464608017192</speed>
  <fix>3d</fix>
</trkpt>
<trkpt lat="33.8098212" lon="-118.3942035">
  <ele>-34.23</ele>
  <time>2026-09-02T22:08:08Z</time>
  <course>209.6</course>
  <speed>0.99</speed>
  <fix>3d</fix>
</trkpt>
<trkpt lat="33.8098189" lon="-118.3942053">
  <ele>-34.974</ele>
  <time>2026-09-02T22:08:08Z</time>
  <course>210.56</course>
  <speed>0.9638464608017192</speed>
  <fix>3d</fix>
</trkpt>
<trkpt lat="33.8098197" lon="-118.3942046">
  <ele>-34.17</ele>
  <time>2026-09-02T22:08:08Z</time>
  <course>209.61</course>
  <speed>0.99</speed>
  <fix>3d</fix>
</trkpt>
<trkpt lat="33.8098182" lon="-118.3942058">
  <ele>-34.953</ele>
  <time>2026-09-02T22:08:08Z</time>
  <course>210.56</course>
  <speed>0.9638464608017192</speed>
  <fix>3d</fix>
</trkpt>
<trkpt lat="33.8098197" lon="-118.3942046">
  <ele>-34.17</ele>
  <time>2026-09-02T22:08:08Z</time>
  <course>209.61</course>
  <speed>0.99</speed>
  <fix>3d</fix>
</trkpt>
<trkpt lat="33.8098174" lon="-118.3942063">
  <ele>-34.941</ele>
  <time>2026-09-02T22:08:08Z</time>
  <course>210.57</course>
  <speed>0.9724710792614863</speed>
  <fix>3d</fix>
</trkpt>
<trkpt lat="33.8098181" lon="-118.3942056">
  <ele>-34.12</ele>
  <time>2026-09-02T22:08:08Z</time>
  <course>209.64</course>
  <speed>0.99</speed>
  <fix>3d</fix>
</trkpt>
<trkpt lat="33.8098166" lon="-118.3942069">
  <ele>-34.935</ele>
  <time>2026-09-02T22:08:08Z</time>
  <course>210.56</course>
  <speed>0.9638464608017192</speed>
  <fix>3d</fix>
</trkpt>
<trkpt lat="33.8098181" lon="-118.3942056">
  <ele>-34.12</ele>
  <time>2026-09-02T22:08:08Z</time>
  <course>209.64</course>
  <speed>0.99</speed>
  <fix>3d</fix>
</trkpt>
<trkpt lat="33.8098158" lon="-118.3942074">
  <ele>-34.934</ele>
  <time>2026-09-02T22:08:08Z</time>
  <course>210.58</course>
  <speed>0.9724710792614863</speed>
  <fix>3d</fix>
</trkpt>
<trkpt lat="33.8098166" lon="-118.3942067">
  <ele>-34.1</ele>
  <time>2026-09-02T22:08:08Z</time>
  <course>209.67</course>
  <speed>0.99</speed>
  <fix>3d</fix>
</trkpt>
<trkpt lat="33.809815" lon="-118.3942079">
  <ele>-34.937</ele>
  <time>2026-09-02T22:08:08Z</time>
  <course>210.6</course>
  <speed>0.9724710792614863</speed>
  <fix>3d</fix>
</trkpt>
<trkpt lat="33.8098166" lon="-118.3942067">
  <ele>-34.1</ele>
  <time>2026-09-02T22:08:08Z</time>
  <course>209.67</course>
  <speed>0.99</speed>
  <fix>3d</fix>
</trkpt>
<trkpt lat="33.8098143" lon="-118.3942085">
  <ele>-34.944</ele>
  <time>2026-09-02T22:08:08Z</time>
  <course>210.61</course>
  <speed>0.9724710792614863</speed>
  <fix>3d</fix>
</trkpt>
<trkpt lat="33.809815" lon="-118.3942078">
  <ele>-34.1</ele>
  <time>2026-09-02T22:08:08Z</time>
  <course>209.7</course>
  <speed>1.0</speed>
  <fix>3d</fix>
</trkpt>
<trkpt lat="33.8098135" lon="-118.394209">
  <ele>-34.958</ele>
  <time>2026-09-02T22:08:08Z</time>
  <course>210.61</course>
  <speed>0.9724710792614863</speed>
  <fix>3d</fix>
</trkpt>
<trkpt lat="33.809815" lon="-118.3942078">
  <ele>-34.1</ele>
  <time>2026-09-02T22:08:08Z</time>
  <course>209.7</course>
  <speed>1.0</speed>
  <fix>3d</fix>
</trkpt>
<trkpt lat="33.8098127" lon="-118.3942095">
  <ele>-34.977</ele>
  <time>2026-09-02T22:08:08Z</time>
  <course>210.61</course>
  <speed>0.9724710792614863</speed>
  <fix>3d</fix>
</trkpt>
<trkpt lat="33.8098135" lon="-118.3942089">
  <ele>-34.12</ele>
  <time>2026-09-02T22:08:08Z</time>
  <course>209.71</course>
  <speed>1.0</speed>
  <fix>3d</fix>
</trkpt>
<trkpt lat="33.8098119" lon="-118.3942101">
  <ele>-34.996</ele>
  <time>2026-09-02T22:08:08Z</time>
  <course>210.59</course>
  <speed>0.9724710792614863</speed>
  <fix>3d</fix>
</trkpt>
<trkpt lat="33.8098135" lon="-118.3942089">
  <ele>-34.12</ele>
  <time>2026-09-02T22:08:08Z</time>
  <course>209.71</course>
  <speed>1.0</speed>
  <fix>3d</fix>
</trkpt>
<trkpt lat="33.8098112" lon="-118.3942106">
  <ele>-35.015</ele>
  <time>2026-09-02T22:08:08Z</time>
  <course>210.56</course>
  <speed>0.9724710792614863</speed>
  <fix>3d</fix>
</trkpt>
<trkpt lat="33.8098119" lon="-118.3942099">
  <ele>-34.15</ele>
  <time>2026-09-02T22:08:08Z</time>
  <course>209.67</course>
  <speed>1.0</speed>
  <fix>3d</fix>
</trkpt>
<trkpt lat="33.8098104" lon="-118.3942111">
  <ele>-35.035</ele>
  <time>2026-09-02T22:08:08Z</time>
  <course>210.53</course>
  <speed>0.9724710792614863</speed>
  <fix>3d</fix>
</trkpt>
<trkpt lat="33.8098119" lon="-118.3942099">
  <ele>-34.15</ele>
  <time>2026-09-02T22:08:08Z</time>
  <course>209.67</course>
  <speed>1.0</speed>
  <fix>3d</fix>
</trkpt>
<trkpt lat="33.8098096" lon="-118.3942117">
  <ele>-35.054</ele>
  <time>2026-09-02T22:08:08Z</time>
  <course>210.5</course>
  <speed>0.9724710792614863</speed>
  <fix>3d</fix>
</trkpt>
<trkpt lat="33.8098103" lon="-118.394211">
  <ele>-34.18</ele>
  <time>2026-09-02T22:08:08Z</time>
  <course>209.62</course>
  <speed>1.0</speed>
  <fix>3d</fix>
</trkpt>
<trkpt lat="33.8098088" lon="-118.3942122">
  <ele>-35.073</ele>
  <time>2026-09-02T22:08:08Z</time>
  <course>210.49</course>
  <speed>0.9724710792614863</speed>
  <fix>3d</fix>
</trkpt>
<trkpt lat="33.8098103" lon="-118.394211">
  <ele>-34.18</ele>
  <time>2026-09-02T22:08:08Z</time>
  <course>209.62</course>
  <speed>1.0</speed>
  <fix>3d</fix>
</trkpt>
<trkpt lat="33.8098081" lon="-118.3942127">
  <ele>-35.09</ele>
  <time>2026-09-02T22:08:08Z</time>
  <course>210.49</course>
  <speed>0.9724710792614863</speed>
  <fix>3d</fix>
</trkpt>
<trkpt lat="33.8098088" lon="-118.3942121">
  <ele>-34.21</ele>
  <time>2026-09-02T22:08:08Z</time>
  <course>209.62</course>
  <speed>1.0</speed>
  <fix>3d</fix>
</trkpt>
<trkpt lat="33.8098073" lon="-118.3942133">
  <ele>-35.107</ele>
  <time>2026-09-02T22:08:08Z</time>
  <course>210.49</course>
  <speed>0.9724710792614863</speed>
  <fix>3d</fix>
</trkpt>
<trkpt lat="33.8098088" lon="-118.3942121">
  <ele>-34.21</ele>
  <time>2026-09-02T22:08:08Z</time>
  <course>209.62</course>
  <speed>1.0</speed>
  <fix>3d</fix>
</trkpt>
<trkpt lat="33.8098065" lon="-118.3942138">
  <ele>-35.12</ele>
  <time>2026-09-02T22:08:08Z</time>
  <course>210.48</course>
  <speed>0.9724710792614863</speed>
  <fix>3d</fix>
</trkpt>
<trkpt lat="33.8098071" lon="-118.3942132">
  <ele>-34.24</ele>
  <time>2026-09-02T22:08:08Z</time>
  <course>209.62</course>
  <speed>1.0</speed>
  <fix>3d</fix>
</trkpt>
<trkpt lat="33.8098057" lon="-118.3942143">
  <ele>-35.13</ele>
  <time>2026-09-02T22:08:08Z</time>
  <course>210.46</course>
  <speed>0.9638464608017192</speed>
  <fix>3d</fix>
</trkpt>
<trkpt lat="33.8098071" lon="-118.3942132">
  <ele>-34.24</ele>
  <time>2026-09-02T22:08:08Z</time>
  <course>209.62</course>
  <speed>1.0</speed>
  <fix>3d</fix>
</trkpt>
<trkpt lat="33.8098049" lon="-118.3942149">
  <ele>-35.132</ele>
  <time>2026-09-02T22:08:08Z</time>
  <course>210.46</course>
  <speed>0.9724710792614863</speed>
  <fix>3d</fix>
</trkpt>
<trkpt lat="33.8098056" lon="-118.3942142">
  <ele>-34.26</ele>
  <time>2026-09-02T22:08:08Z</time>
  <course>209.59</course>
  <speed>1.0</speed>
  <fix>3d</fix>
</trkpt>
<trkpt lat="33.8098041" lon="-118.3942154">
  <ele>-35.128</ele>
  <time>2026-09-02T22:08:08Z</time>
  <course>210.45</course>
  <speed>0.9638464608017192</speed>
  <fix>3d</fix>
</trkpt>
<trkpt lat="33.8098056" lon="-118.3942142">
  <ele>-34.26</ele>
  <time>2026-09-02T22:08:08Z</time>
  <course>209.59</course>
  <speed>1.0</speed>
  <fix>3d</fix>
</trkpt>
<trkpt lat="33.8098034" lon="-118.3942159">
  <ele>-35.12</ele>
  <time>2026-09-02T22:08:08Z</time>
  <course>210.47</course>
  <speed>0.9638464608017192</speed>
  <fix>3d</fix>
</trkpt>
<trkpt lat="33.809804" lon="-118.3942153">
  <ele>-34.28</ele>
  <time>2026-09-02T22:08:08Z</time>
  <course>209.58</course>
  <speed>1.0</speed>
  <fix>3d</fix>
</trkpt>
<trkpt lat="33.8098026" lon="-118.3942165">
  <ele>-35.104</ele>
  <time>2026-09-02T22:08:08Z</time>
  <course>210.48</course>
  <speed>0.9638464608017192</speed>
  <fix>3d</fix>
</trkpt>
<trkpt lat="33.809804" lon="-118.3942153">
  <ele>-34.28</ele>
  <time>2026-09-02T22:08:08Z</time>
  <course>209.58</course>
  <speed>1.0</speed>
  <fix>3d</fix>
</trkpt>
<trkpt lat="33.8098018" lon="-118.394217">
  <ele>-35.082</ele>
  <time>2026-09-02T22:08:08Z</time>
  <course>210.51</course>
  <speed>0.9638464608017192</speed>
  <fix>3d</fix>
</trkpt>
<trkpt lat="33.8098025" lon="-118.3942164">
  <ele>-34.26</ele>
  <time>2026-09-02T22:08:08Z</time>
  <course>209.59</course>
  <speed>1.0</speed>
  <fix>3d</fix>
</trkpt>
<trkpt lat="33.809801" lon="-118.3942175">
  <ele>-35.06</ele>
  <time>2026-09-02T22:08:08Z</time>
  <course>210.52</course>
  <speed>0.9638464608017192</speed>
  <fix>3d</fix>
</trkpt>
<trkpt lat="33.8098025" lon="-118.3942164">
  <ele>-34.26</ele>
  <time>2026-09-02T22:08:08Z</time>
  <course>209.59</course>
  <speed>1.0</speed>
  <fix>3d</fix>
</trkpt>
<trkpt lat="33.8098002" lon="-118.3942181">
  <ele>-35.034</ele>
  <time>2026-09-02T22:08:08Z</time>
  <course>210.52</course>
  <speed>0.9638464608017192</speed>
  <fix>3d</fix>
</trkpt>
<trkpt lat="33.8098009" lon="-118.3942175">
  <ele>-34.23</ele>
  <time>2026-09-02T22:08:08Z</time>
  <course>209.6</course>
  <speed>0.99</speed>
  <fix>3d</fix>
</trkpt>
<trkpt lat="33.8097995" lon="-118.3942186">
  <ele>-35.01</ele>
  <time>2026-09-02T22:08:08Z</time>
  <course>210.51</course>
  <speed>0.9638464608017192</speed>
  <fix>3d</fix>
</trkpt>
<trkpt lat="33.8098009" lon="-118.3942175">
  <ele>-34.23</ele>
  <time>2026-09-02T22:08:08Z</time>
  <course>209.6</course>
  <speed>0.99</speed>
  <fix>3d</fix>
</trkpt>
<trkpt lat="33.8097987" lon="-118.3942191">
  <ele>-34.987</ele>
  <time>2026-09-02T22:08:08Z</time>
  <course>210.49</course>
  <speed>0.9638464608017192</speed>
  <fix>3d</fix>
</trkpt>
<trkpt lat="33.8097994" lon="-118.3942185">
  <ele>-34.18</ele>
  <time>2026-09-02T22:08:08Z</time>
  <course>209.57</course>
  <speed>0.99</speed>
  <fix>3d</fix>
</trkpt>
<trkpt lat="33.8097979" lon="-118.3942197">
  <ele>-34.964</ele>
  <time>2026-09-02T22:08:08Z</time>
  <course>210.48</course>
  <speed>0.8695401083331349</speed>
  <fix>3d</fix>
</trkpt>
<trkpt lat="33.8097994" lon="-118.3942185">
  <ele>-34.18</ele>
  <time>2026-09-02T22:08:08Z</time>
  <course>209.57</course>
  <speed>0.99</speed>
  <fix>3d</fix>
</trkpt>
<trkpt lat="33.8097972" lon="-118.3942201">
  <ele>-34.944</ele>
  <time>2026-09-02T22:08:08Z</time>
  <course>210.5</course>
  <speed>0.8969392398596462</speed>
  <fix>3d</fix>
</trkpt>
<trkpt lat="33.8097978" lon="-118.3942196">
  <ele>-34.14</ele>
  <time>2026-09-02T22:08:08Z</time>
  <course>209.55</course>
  <speed>0.95</speed>
  <fix>3d</fix>
</trkpt>
<trkpt lat="33.8097965" lon="-118.3942207">
  <ele>-34.925</ele>
  <time>2026-09-02T22:08:08Z</time>
  <course>210.52</course>
  <speed>0.9055385138137417</speed>
  <fix>3d</fix>
</trkpt>
<trkpt lat="33.8097978" lon="-118.3942196">
  <ele>-34.14</ele>
  <time>2026-09-02T22:08:08Z</time>
  <course>209.55</course>
  <speed>0.95</speed>
  <fix>3d</fix>
</trkpt>
<trkpt lat="33.8097957" lon="-118.3942212">
  <ele>-34.911</ele>
  <time>2026-09-02T22:08:08Z</time>
  <course>210.52</course>
  <speed>0.914166286842826</speed>
  <fix>3d</fix>
</trkpt>
<trkpt lat="33.8097963" lon="-118.3942206">
  <ele>-34.1</ele>
  <time>2026-09-02T22:08:08Z</time>
  <course>209.54</course>
  <speed>0.93</speed>
  <fix>3d</fix>
</trkpt>
<trkpt lat="33.809795" lon="-118.3942217">
  <ele>-34.904</ele>
  <time>2026-09-02T22:08:08Z</time>
  <course>210.51</course>
  <speed>0.9278469701410895</speed>
  <fix>3d</fix>
</trkpt>
<trkpt lat="33.8097963" lon="-118.3942206">
  <ele>-34.1</ele>
  <time>2026-09-02T22:08:08Z</time>
  <course>209.54</course>
  <speed>0.93</speed>
  <fix>3d</fix>
</trkpt>
<trkpt lat="33.8097942" lon="-118.3942222">
  <ele>-34.901</ele>
  <time>2026-09-02T22:08:08Z</time>
  <course>210.5</course>
  <speed>0.9278469701410895</speed>
  <fix>3d</fix>
</trkpt>
<trkpt lat="33.8097949" lon="-118.3942216">
  <ele>-34.07</ele>
  <time>2026-09-02T22:08:08Z</time>
  <course>209.53</course>
  <speed>0.95</speed>
  <fix>3d</fix>
</trkpt>
<trkpt lat="33.8097935" lon="-118.3942227">
  <ele>-34.904</ele>
  <time>2026-09-02T22:08:08Z</time>
  <course>210.49</course>
  <speed>0.9364827814754524</speed>
  <fix>3d</fix>
</trkpt>
<trkpt lat="33.8097949" lon="-118.3942216">
  <ele>-34.07</ele>
  <time>2026-09-02T22:08:08Z</time>
  <course>209.53</course>
  <speed>0.95</speed>
  <fix>3d</fix>
</trkpt>
<trkpt lat="33.8097927" lon="-118.3942232">
  <ele>-34.911</ele>
  <time>2026-09-02T22:08:08Z</time>
  <course>210.48</course>
  <speed>0.914166286842826</speed>
  <fix>3d</fix>
</trkpt>
<trkpt lat="33.8097934" lon="-118.3942226">
  <ele>-34.07</ele>
  <time>2026-09-02T22:08:08Z</time>
  <course>209.53</course>
  <speed>0.96</speed>
  <fix>3d</fix>
</trkpt>
<trkpt lat="33.809792" lon="-118.3942237">
  <ele>-34.921</ele>
  <time>2026-09-02T22:08:08Z</time>
  <course>210.48</course>
  <speed>0.8695401083331349</speed>
  <fix>3d</fix>
</trkpt>
<trkpt lat="33.8097934" lon="-118.3942226">
  <ele>-34.07</ele>
  <time>2026-09-02T22:08:08Z</time>
  <course>209.53</course>
  <speed>0.96</speed>
  <fix>3d</fix>
</trkpt>
<trkpt lat="33.8097913" lon="-118.3942242">
  <ele>-34.931</ele>
  <time>2026-09-02T22:08:08Z</time>
  <course>210.52</course>
  <speed>0.8832326986700617</speed>
  <fix>3d</fix>
</trkpt>
<trkpt lat="33.8097919" lon="-118.3942236">
  <ele>-34.08</ele>
  <time>2026-09-02T22:08:08Z</time>
  <course>209.53</course>
  <speed>0.93</speed>
  <fix>3d</fix>
</trkpt>
<trkpt lat="33.8097906" lon="-118.3942247">
  <ele>-34.943</ele>
  <time>2026-09-02T22:08:08Z</time>
  <course>210.53</course>
  <speed>0.8969392398596462</speed>
  <fix>3d</fix>
</trkpt>
<trkpt lat="33.8097919" lon="-118.3942236">
  <ele>-34.08</ele>
  <time>2026-09-02T22:08:08Z</time>
  <course>209.53</course>
  <speed>0.93</speed>
  <fix>3d</fix>
</trkpt>
<trkpt lat="33.8097898" lon="-118.3942252">
  <ele>-34.959</ele>
  <time>2026-09-02T22:08:08Z</time>
  <course>210.54</course>
  <speed>0.9055385138137417</speed>
  <fix>3d</fix>
</trkpt>
<trkpt lat="33.8097905" lon="-118.3942246">
  <ele>-34.1</ele>
  <time>2026-09-02T22:08:08Z</time>
  <course>209.54</course>
  <speed>0.91</speed>
  <fix>3d</fix>
</trkpt>
<trkpt lat="33.8097891" lon="-118.3942257">
  <ele>-34.981</ele>
  <time>2026-09-02T22:08:08Z</time>
  <course>210.53</course>
  <speed>0.914166286842826</speed>
  <fix>3d</fix>
</trkpt>
<trkpt lat="33.8097905" lon="-118.3942246">
  <ele>-34.1</ele>
  <time>2026-09-02T22:08:08Z</time>
  <course>209.54</course>
  <speed>0.91</speed>
  <fix>3d</fix>
</trkpt>
<trkpt lat="33.8097884" lon="-118.3942262">
  <ele>-35.003</ele>
  <time>2026-09-02T22:08:08Z</time>
  <course>210.52</course>
  <speed>0.9278469701410895</speed>
  <fix>3d</fix>
</trkpt>
<trkpt lat="33.809789" lon="-118.3942256">
  <ele>-34.13</ele>
  <time>2026-09-02T22:08:08Z</time>
  <course>209.53</course>
  <speed>0.93</speed>
  <fix>3d</fix>
</trkpt>
<trkpt lat="33.8097876" lon="-118.3942267">
  <ele>-35.023</ele>
  <time>2026-09-02T22:08:08Z</time>
  <course>210.51</course>
  <speed>0.9278469701410895</speed>
  <fix>3d</fix>
</trkpt>
<trkpt lat="33.809789" lon="-118.3942256">
  <ele>-34.13</ele>
  <time>2026-09-02T22:08:08Z</time>
  <course>209.53</course>
  <speed>0.93</speed>
  <fix>3d</fix>
</trkpt>
<trkpt lat="33.8097869" lon="-118.3942272">
  <ele>-35.041</ele>
  <time>2026-09-02T22:08:08Z</time>
  <course>210.5</course>
  <speed>0.9278469701410895</speed>
  <fix>3d</fix>
</trkpt>
<trkpt lat="33.8097875" lon="-118.3942266">
  <ele>-34.16</ele>
  <time>2026-09-02T22:08:08Z</time>
  <course>209.51</course>
  <speed>0.95</speed>
  <fix>3d</fix>
</trkpt>
<trkpt lat="33.8097861" lon="-118.3942277">
  <ele>-35.058</ele>
  <time>2026-09-02T22:08:08Z</time>
  <course>210.5</course>
  <speed>0.914166286842826</speed>
  <fix>3d</fix>
</trkpt>
<trkpt lat="33.8097875" lon="-118.3942266">
  <ele>-34.16</ele>
  <time>2026-09-02T22:08:08Z</time>
  <course>209.51</course>
  <speed>0.95</speed>
  <fix>3d</fix>
</trkpt>
<trkpt lat="33.8097854" lon="-118.3942282">
  <ele>-35.071</ele>
  <time>2026-09-02T22:08:08Z</time>
  <course>210.51</course>
  <speed>0.8918520056601319</speed>
  <fix>3d</fix>
</trkpt>
<trkpt lat="33.809786" lon="-118.3942276">
  <ele>-34.2</ele>
  <time>2026-09-02T22:08:08Z</time>
  <course>209.52</course>
  <speed>0.94</speed>
  <fix>3d</fix>
</trkpt>
<trkpt lat="33.8097847" lon="-118.3942287">
  <ele>-35.076</ele>
  <time>2026-09-02T22:08:08Z</time>
  <course>210.54</course>
  <speed>0.8609297300012354</speed>
  <fix>3d</fix>
</trkpt>
<trkpt lat="33.809786" lon="-118.3942276">
  <ele>-34.2</ele>
  <time>2026-09-02T22:08:08Z</time>
  <course>209.52</course>
  <speed>0.94</speed>
  <fix>3d</fix>
</trkpt>
<trkpt lat="33.809784" lon="-118.3942292">
  <ele>-35.075</ele>
  <time>2026-09-02T22:08:08Z</time>
  <course>210.59</course>
  <speed>0.8249242389456137</speed>
  <fix>3d</fix>
</trkpt>
<trkpt lat="33.8097846" lon="-118.3942286">
  <ele>-34.22</ele>
  <time>2026-09-02T22:08:08Z</time>
  <course>209.57</course>
  <speed>0.9</speed>
  <fix>3d</fix>
</trkpt>
<trkpt lat="33.8097833" lon="-118.3942296">
  <ele>-35.07</ele>
  <time>2026-09-02T22:08:08Z</time>
  <course>210.64</course>
  <speed>0.7803204469959762</speed>
  <fix>3d</fix>
</trkpt>
<trkpt lat="33.8097846" lon="-118.3942286">
  <ele>-34.22</ele>
  <time>2026-09-02T22:08:08Z</time>
  <course>209.57</course>
  <speed>0.9</speed>
  <fix>3d</fix>
</trkpt>
<trkpt lat="33.8097827" lon="-118.39423">
  <ele>-35.06</ele>
  <time>2026-09-02T22:08:08Z</time>
  <course>210.71</course>
  <speed>0.7306161783043131</speed>
  <fix>3d</fix>
</trkpt>
<trkpt lat="33.8097832" lon="-118.3942295">
  <ele>-34.22</ele>
  <time>2026-09-02T22:08:08Z</time>
  <course>209.64</course>
  <speed>0.83</speed>
  <fix>3d</fix>
</trkpt>
<trkpt lat="33.8097821" lon="-118.3942304">
  <ele>-35.043</ele>
  <time>2026-09-02T22:08:08Z</time>
  <course>210.79</course>
  <speed>0.6637017402418047</speed>
  <fix>3d</fix>
</trkpt>
<trkpt lat="33.8097832" lon="-118.3942295">
  <ele>-34.22</ele>
  <time>2026-09-02T22:08:08Z</time>
  <course>209.64</course>
  <speed>0.83</speed>
  <fix>3d</fix>
</trkpt>
<trkpt lat="33.8097816" lon="-118.3942308">
  <ele>-35.022</ele>
  <time>2026-09-02T22:08:08Z</time>
  <course>210.91</course>
  <speed>0.6053924347066124</speed>
  <fix>3d</fix>
</trkpt>
<trkpt lat="33.809782" lon="-118.3942304">
  <ele>-34.2</ele>
  <time>2026-09-02T22:08:08Z</time>
  <course>209.73</course>
  <speed>0.73</speed>
  <fix>3d</fix>
</trkpt>
<trkpt lat="33.8097812" lon="-118.3942311">
  <ele>-35.002</ele>
  <time>2026-09-02T22:08:08Z</time>
  <course>211.08</course>
  <speed>0.53</speed>
  <fix>3d</fix>
</trkpt>
<trkpt lat="33.809782" lon="-118.3942304">
  <ele>-34.2</ele>
  <time>2026-09-02T22:08:08Z</time>
  <course>209.73</course>
  <speed>0.73</speed>
  <fix>3d</fix>
</trkpt>
<trkpt lat="33.8097807" lon="-118.3942314">
  <ele>-34.984</ele>
  <time>2026-09-02T22:08:08Z</time>
  <course>211.31</course>
  <speed>0.46647615158762407</speed>
  <fix>3d</fix>
</trkpt>
<trkpt lat="33.8097809" lon="-118.3942311">
  <ele>-34.17</ele>
  <time>2026-09-02T22:08:08Z</time>
  <course>209.86</course>
  <speed>0.6</speed>
  <fix>3d</fix>
</trkpt>
<trkpt lat="33.8097804" lon="-118.3942317">
  <ele>-34.966</ele>
  <time>2026-09-02T22:08:08Z</time>
  <course>211.63</course>
  <speed>0.3996248240537617</speed>
  <fix>3d</fix>
</trkpt>
<trkpt lat="33.8097809" lon="-118.3942311">
  <ele>-34.17</ele>
  <time>2026-09-02T22:08:08Z</time>
  <course>209.86</course>
  <speed>0.6</speed>
  <fix>3d</fix>
</trkpt>
<trkpt lat="33.80978" lon="-118.3942319">
  <ele>-34.953</ele>
  <time>2026-09-02T22:08:08Z</time>
  <course>212.13</course>
  <speed>0.34132096331752027</speed>
  <fix>3d</fix>
</trkpt>
<trkpt lat="33.8097801" lon="-118.3942317">
  <ele>-34.14</ele>
  <time>2026-09-02T22:08:08Z</time>
  <course>210.01</course>
  <speed>0.47</speed>
  <fix>3d</fix>
</trkpt>
<trkpt lat="33.8097798" lon="-118.3942321">
  <ele>-34.945</ele>
  <time>2026-09-02T22:08:08Z</time>
  <course>212.9</course>
  <speed>0.2968164415931166</speed>
  <fix>3d</fix>
</trkpt>
<trkpt lat="33.8097801" lon="-118.3942317">
  <ele>-34.14</ele>
  <time>2026-09-02T22:08:08Z</time>
  <course>210.01</course>
  <speed>0.47</speed>
  <fix>3d</fix>
</trkpt>
<trkpt lat="33.8097795" lon="-118.3942322">
  <ele>-34.942</ele>
  <time>2026-09-02T22:08:08Z</time>
  <course>213.55</course>
  <speed>0.260768096208106</speed>
  <fix>3d</fix>
</trkpt>
<trkpt lat="33.8097795" lon="-118.3942321">
  <ele>-34.12</ele>
  <time>2026-09-02T22:08:08Z</time>
  <course>210.05</course>
  <speed>0.35</speed>
  <fix>3d</fix>
</trkpt>
<trkpt lat="33.8097793" lon="-118.3942324">
  <ele>-34.946</ele>
  <time>2026-09-02T22:08:08Z</time>
  <course>213.75</course>
  <speed>0.21633307652783937</speed>
  <fix>3d</fix>
</trkpt>
<trkpt lat="33.8097795" lon="-118.3942321">
  <ele>-34.12</ele>
  <time>2026-09-02T22:08:08Z</time>
  <course>210.05</course>
  <speed>0.35</speed>
  <fix>3d</fix>
</trkpt>
<trkpt lat="33.8097791" lon="-118.3942325">
  <ele>-34.955</ele>
  <time>2026-09-02T22:08:08Z</time>
  <course>213.98</course>
  <speed>0.18027756377319945</speed>
  <fix>3d</fix>
</trkpt>
<trkpt lat="33.809779" lon="-118.3942324">
  <ele>-34.11</ele>
  <time>2026-09-02T22:08:08Z</time>
  <course>210.14</course>
  <speed>0.26</speed>
  <fix>3d</fix>
</trkpt>
<trkpt lat="33.8097789" lon="-118.3942326">
  <ele>-34.964</ele>
  <time>2026-09-02T22:08:08Z</time>
  <course>215.55</course>
  <speed>0.13601470508735444</speed>
  <fix>3d</fix>
</trkpt>
<trkpt lat="33.809779" lon="-118.3942324">
  <ele>-34.11</ele>
  <time>2026-09-02T22:08:08Z</time>
  <course>210.14</course>
  <speed>0.26</speed>
  <fix>3d</fix>
</trkpt>
<trkpt lat="33.8097788" lon="-118.3942327">
  <ele>-34.973</ele>
  <time>2026-09-02T22:08:08Z</time>
  <course>218.26</course>
  <speed>0.1</speed>
  <fix>3d</fix>
</trkpt>
<trkpt lat="33.8097786" lon="-118.3942327">
  <ele>-34.12</ele>
  <time>2026-09-02T22:08:08Z</time>
  <course>211.04</course>
  <speed>0.18</speed>
  <fix>3d</fix>
</trkpt>
<trkpt lat="33.8097787" lon="-118.3942328">
  <ele>-34.984</ele>
  <time>2026-09-02T22:08:08Z</time>
  <course>221.5</course>
  <speed>0.07071067811865475</speed>
  <fix>3d</fix>
</trkpt>
<trkpt lat="33.8097786" lon="-118.3942327">
  <ele>-34.12</ele>
  <time>2026-09-02T22:08:08Z</time>
  <course>211.04</course>
  <speed>0.18</speed>
  <fix>3d</fix>
</trkpt>
<trkpt lat="33.8097787" lon="-118.3942328">
  <ele>-34.997</ele>
  <time>2026-09-02T22:08:08Z</time>
  <course>225.05</course>
  <speed>0.0565685424949238</speed>
  <fix>3d</fix>
</trkpt>
<trkpt lat="33.8097784" lon="-118.3942329">
  <ele>-34.15</ele>
  <time>2026-09-02T22:08:08Z</time>
  <course>213.13</course>
  <speed>0.11</speed>
  <fix>3d</fix>
</trkpt>
<trkpt lat="33.8097786" lon="-118.3942329">
  <ele>-35.01</ele>
  <time>2026-09-02T22:08:08Z</time>
  <course>228.83</course>
  <speed>0.03605551275463989</speed>
  <fix>3d</fix>
</trkpt>
<trkpt lat="33.8097784" lon="-118.3942329">
  <ele>-34.15</ele>
  <time>2026-09-02T22:08:08Z</time>
  <course>213.13</course>
  <speed>0.11</speed>
  <fix>3d</fix>
</trkpt>
<trkpt lat="33.8097785" lon="-118.3942329">
  <ele>-35.022</ele>
  <time>2026-09-02T22:08:08Z</time>
  <course>232.8</course>
  <speed>0.022360679774997897</speed>
  <fix>3d</fix>
</trkpt>
<trkpt lat="33.8097783" lon="-118.394233">
  <ele>-34.17</ele>
  <time>2026-09-02T22:08:08Z</time>
  <course>216.22</course>
  <speed>0.06</speed>
  <fix>3d</fix>
</trkpt>
<trkpt lat="33.8097785" lon="-118.394233">
  <ele>-35.035</ele>
  <time>2026-09-02T22:08:08Z</time>
  <course>236.93</course>
  <speed>0.02</speed>
  <fix>3d</fix>
</trkpt>
<trkpt lat="33.8097783" lon="-118.394233">
  <ele>-34.17</ele>
  <time>2026-09-02T22:08:08Z</time>
  <course>216.22</course>
  <speed>0.06</speed>
  <fix>3d</fix>
</trkpt>
<trkpt lat="33.8097785" lon="-118.394233">
  <ele>-35.048</ele>
  <time>2026-09-02T22:08:08Z</time>
  <course>241.2</course>
  <speed>0.0316227766016838</speed>
  <fix>3d</fix>
</trkpt>
<trkpt lat="33.8097782" lon="-118.3942331">
  <ele>-34.19</ele>
  <time>2026-09-02T22:08:08Z</time>
  <course>229.22</course>
  <speed>0.03</speed>
  <fix>3d</fix>
</trkpt>
<trkpt lat="33.8097785" lon="-118.3942331">
  <ele>-35.06</ele>
  <time>2026-09-02T22:08:08Z</time>
  <course>245.6</course>
  <speed>0.053851648071345036</speed>
  <fix>3d</fix>
</trkpt>
<trkpt lat="33.8097782" lon="-118.3942331">
  <ele>-34.19</ele>
  <time>2026-09-02T22:08:08Z</time>
  <course>229.22</course>
  <speed>0.03</speed>
  <fix>3d</fix>
</trkpt>
<trkpt lat="33.8097785" lon="-118.3942331">
  <ele>-35.07</ele>
  <time>2026-09-02T22:08:08Z</time>
  <course>250.13</course>
  <speed>0.0824621125123532</speed>
  <fix>3d</fix>
</trkpt>
<trkpt lat="33.8097781" lon="-118.3942331">
  <ele>-34.21</ele>
  <time>2026-09-02T22:08:08Z</time>
  <course>272.79</course>
  <speed>0.03</speed>
  <fix>3d</fix>
</trkpt>
<trkpt lat="33.8097785" lon="-118.3942333">
  <ele>-35.077</ele>
  <time>2026-09-02T22:08:08Z</time>
  <course>254.79</course>
  <speed>0.13341664064126335</speed>
  <fix>3d</fix>
</trkpt>
<trkpt lat="33.8097781" lon="-118.3942331">
  <ele>-34.21</ele>
  <time>2026-09-02T22:08:08Z</time>
  <course>272.79</course>
  <speed>0.03</speed>
  <fix>3d</fix>
</trkpt>
<trkpt lat="33.8097785" lon="-118.3942334">
  <ele>-35.08</ele>
  <time>2026-09-02T22:08:08Z</time>
  <course>259.56</course>
  <speed>0.1824828759089466</speed>
  <fix>3d</fix>
</trkpt>
<trkpt lat="33.8097782" lon="-118.3942333">
  <ele>-34.22</ele>
  <time>2026-09-02T22:08:08Z</time>
  <course>279.28</course>
  <speed>0.09</speed>
  <fix>3d</fix>
</trkpt>
<trkpt lat="33.8097785" lon="-118.3942337">
  <ele>-35.078</ele>
  <time>2026-09-02T22:08:08Z</time>
  <course>264.44</course>
  <speed>0.24331050121192876</speed>
  <fix>3d</fix>
</trkpt>
<trkpt lat="33.8097782" lon="-118.3942333">
  <ele>-34.22</ele>
  <time>2026-09-02T22:08:08Z</time>
  <course>279.28</course>
  <speed>0.09</speed>
  <fix>3d</fix>
</trkpt>
<trkpt lat="33.8097785" lon="-118.3942339">
  <ele>-35.064</ele>
  <time>2026-09-02T22:08:08Z</time>
  <course>269.45</course>
  <speed>0.3125699921617557</speed>
  <fix>3d</fix>
</trkpt>
<trkpt lat="33.8097783" lon="-118.3942336">
  <ele>-34.22</ele>
  <time>2026-09-02T22:08:08Z</time>
  <course>276.67</course>
  <speed>0.19</speed>
  <fix>3d</fix>
</trkpt>
<trkpt lat="33.8097785" lon="-118.3942343">
  <ele>-35.045</ele>
  <time>2026-09-02T22:08:08Z</time>
  <course>274.59</course>
  <speed>0.3920459156782532</speed>
  <fix>3d</fix>
</trkpt>
<trkpt lat="33.8097783" lon="-118.3942336">
  <ele>-34.22</ele>
  <time>2026-09-02T22:08:08Z</time>
  <course>276.67</course>
  <speed>0.19</speed>
  <fix>3d</fix>
</trkpt>
<trkpt lat="33.8097785" lon="-118.3942348">
  <ele>-35.023</ele>
  <time>2026-09-02T22:08:08Z</time>
  <course>279.76</course>
  <speed>0.4709564735726646</speed>
  <fix>3d</fix>
</trkpt>
<trkpt lat="33.8097783" lon="-118.3942341">
  <ele>-34.2</ele>
  <time>2026-09-02T22:08:08Z</time>
  <course>274.01</course>
  <speed>0.33</speed>
  <fix>3d</fix>
</trkpt>
<trkpt lat="33.8097785" lon="-118.3942353">
  <ele>-35.0</ele>
  <time>2026-09-02T22:08:08Z</time>
  <course>284.6</course>
  <speed>0.5308483775994799</speed>
  <fix>3d</fix>
</trkpt>
<trkpt lat="33.8097783" lon="-118.3942341">
  <ele>-34.2</ele>
  <time>2026-09-02T22:08:08Z</time>
  <course>274.01</course>
  <speed>0.33</speed>
  <fix>3d</fix>
</trkpt>
<trkpt lat="33.8097785" lon="-118.3942359">
  <ele>-34.976</ele>
  <time>2026-09-02T22:08:08Z</time>
  <course>289.24</course>
  <speed>0.5903388857258176</speed>
  <fix>3d</fix>
</trkpt>
<trkpt lat="33.8097783" lon="-118.394235">
  <ele>-34.17</ele>
  <time>2026-09-02T22:08:08Z</time>
  <course>271.9</course>
  <speed>0.47</speed>
  <fix>3d</fix>
</trkpt>
<trkpt lat="33.8097785" lon="-118.3942365">
  <ele>-34.957</ele>
  <time>2026-09-02T22:08:09Z</time>
  <course>293.71</course>
  <speed>0.6400781202322103</speed>
  <fix>3d</fix>
</trkpt>
<trkpt lat="33.8097783" lon="-118.394235">
  <ele>-34.17</ele>
  <time>2026-09-02T22:08:09Z</time>
  <course>271.9</course>
  <speed>0.47</speed>
  <fix>3d</fix>
</trkpt>
<trkpt lat="33.8097785" lon="-118.3942372">
  <ele>-34.941</ele>
  <time>2026-09-02T22:08:09Z</time>
  <course>297.37</course>
  <speed>0.69</speed>
  <fix>3d</fix>
</trkpt>
<trkpt lat="33.8097783" lon="-118.3942361">
  <ele>-34.13</ele>
  <time>2026-09-02T22:08:09Z</time>
  <course>269.82</course>
  <speed>0.59</speed>
  <fix>3d</fix>
</trkpt>
<trkpt lat="33.8097785" lon="-118.394238">
  <ele>-34.935</ele>
  <time>2026-09-02T22:08:09Z</time>
  <course>299.9</course>
  <speed>0.74</speed>
  <fix>3d</fix>
</trkpt>
<trkpt lat="33.8097783" lon="-118.3942361">
  <ele>-34.13</ele>
  <time>2026-09-02T22:08:09Z</time>
  <course>269.82</course>
  <speed>0.59</speed>
  <fix>3d</fix>
</trkpt>
<trkpt lat="33.8097785" lon="-118.3942388">
  <ele>-34.943</ele>
  <time>2026-09-02T22:08:09Z</time>
  <course>301.35</course>
  <speed>0.78</speed>
  <fix>3d</fix>
</trkpt>
<trkpt lat="33.8097783" lon="-118.3942375">
  <ele>-34.11</ele>
  <time>2026-09-02T22:08:09Z</time>
  <course>268.41</course>
  <speed>0.69</speed>
  <fix>3d</fix>
</trkpt>
<trkpt lat="33.8097785" lon="-118.3942396">
  <ele>-34.958</ele>
  <time>2026-09-02T22:08:09Z</time>
  <course>301.54</course>
  <speed>0.82</speed>
  <fix>3d</fix>
</trkpt>
<trkpt lat="33.8097783" lon="-118.3942375">
  <ele>-34.11</ele>
  <time>2026-09-02T22:08:09Z</time>
  <course>268.41</course>
  <speed>0.69</speed>
  <fix>3d</fix>
</trkpt>
<trkpt lat="33.8097785" lon="-118.3942405">
  <ele>-34.975</ele>
  <time>2026-09-02T22:08:09Z</time>
  <course>300.57</course>
  <speed>0.86</speed>
  <fix>3d</fix>
</trkpt>
<trkpt lat="33.8097783" lon="-118.3942391">
  <ele>-34.12</ele>
  <time>2026-09-02T22:08:09Z</time>
  <course>268.25</course>
  <speed>0.78</speed>
  <fix>3d</fix>
</trkpt>
<trkpt lat="33.8097785" lon="-118.3942414">
  <ele>-34.993</ele>
  <time>2026-09-02T22:08:09Z</time>
  <course>299.25</course>
  <speed>0.88</speed>
  <fix>3d</fix>
</trkpt>
<trkpt lat="33.8097783" lon="-118.3942391">
  <ele>-34.12</ele>
  <time>2026-09-02T22:08:09Z</time>
  <course>268.25</course>
  <speed>0.78</speed>
  <fix>3d</fix>
</trkpt>
<trkpt lat="33.8097784" lon="-118.3942423">
  <ele>-35.011</ele>
  <time>2026-09-02T22:08:09Z</time>
  <course>297.99</course>
  <speed>0.89</speed>
  <fix>3d</fix>
</trkpt>
<trkpt lat="33.8097782" lon="-118.3942409">
  <ele>-34.15</ele>
  <time>2026-09-02T22:08:09Z</time>
  <course>268.54</course>
  <speed>0.85</speed>
  <fix>3d</fix>
</trkpt>
<trkpt lat="33.8097784" lon="-118.3942433">
  <ele>-35.031</ele>
  <time>2026-09-02T22:08:09Z</time>
  <course>296.92</course>
  <speed>0.9</speed>
  <fix>3d</fix>
</trkpt>
<trkpt lat="33.8097782" lon="-118.3942409">
  <ele>-34.15</ele>
  <time>2026-09-02T22:08:09Z</time>
  <course>268.54</course>
  <speed>0.85</speed>
  <fix>3d</fix>
</trkpt>
<trkpt lat="33.8097784" lon="-118.3942442">
  <ele>-35.052</ele>
  <time>2026-09-02T22:08:09Z</time>
  <course>296.1</course>
  <speed>0.9100549433962765</speed>
  <fix>3d</fix>
</trkpt>
<trkpt lat="33.8097781" lon="-118.3942428">
  <ele>-34.19</ele>
  <time>2026-09-02T22:08:09Z</time>
  <course>268.91</course>
  <speed>0.88</speed>
  <fix>3d</fix>
</trkpt>
<trkpt lat="33.8097784" lon="-118.3942452">
  <ele>-35.072</ele>
  <time>2026-09-02T22:08:09Z</time>
  <course>295.5</course>
  <speed>0.9200543462209175</speed>
  <fix>3d</fix>
</trkpt>
<trkpt lat="33.8097781" lon="-118.3942428">
  <ele>-34.19</ele>
  <time>2026-09-02T22:08:09Z</time>
  <course>268.91</course>
  <speed>0.88</speed>
  <fix>3d</fix>
</trkpt>
<trkpt lat="33.8097784" lon="-118.3942462">
  <ele>-35.09</ele>
  <time>2026-09-02T22:08:09Z</time>
  <course>295.09</course>
  <speed>0.9302150289046076</speed>
  <fix>3d</fix>
</trkpt>
<trkpt lat="33.8097781" lon="-118.3942448">
  <ele>-34.22</ele>
  <time>2026-09-02T22:08:09Z</time>
  <course>269.44</course>
  <speed>0.91</speed>
  <fix>3d</fix>
</trkpt>
<trkpt lat="33.8097784" lon="-118.3942472">
  <ele>-35.105</ele>
  <time>2026-09-02T22:08:09Z</time>
  <course>294.78</course>
  <speed>0.9402127418834527</speed>
  <fix>3d</fix>
</trkpt>
<trkpt lat="33.8097781" lon="-118.3942448">
  <ele>-34.22</ele>
  <time>2026-09-02T22:08:09Z</time>
  <course>269.44</course>
  <speed>0.91</speed>
  <fix>3d</fix>
</trkpt>
<trkpt lat="33.8097784" lon="-118.3942482">
  <ele>-35.12</ele>
  <time>2026-09-02T22:08:09Z</time>
  <course>294.53</course>
  <speed>0.9502105029939419</speed>
  <fix>3d</fix>
</trkpt>
<trkpt lat="33.8097781" lon="-118.3942468">
  <ele>-34.25</ele>
  <time>2026-09-02T22:08:09Z</time>
  <course>269.99</course>
  <speed>0.93</speed>
  <fix>3d</fix>
</trkpt>
<trkpt lat="33.8097784" lon="-118.3942492">
  <ele>-35.133</ele>
  <time>2026-09-02T22:08:09Z</time>
  <course>294.34</course>
  <speed>0.9504735661763561</speed>
  <fix>3d</fix>
</trkpt>
<trkpt lat="33.8097781" lon="-118.3942468">
  <ele>-34.25</ele>
  <time>2026-09-02T22:08:09Z</time>
  <course>269.99</course>
  <speed>0.93</speed>
  <fix>3d</fix>
</trkpt>
<trkpt lat="33.8097784" lon="-118.3942502">
  <ele>-35.139</ele>
  <time>2026-09-02T22:08:09Z</time>
  <course>294.18</course>
  <speed>0.9504735661763561</speed>
  <fix>3d</fix>
</trkpt>
<trkpt lat="33.8097781" lon="-118.3942488">
  <ele>-34.28</ele>
  <time>2026-09-02T22:08:09Z</time>
  <course>270.47</course>
  <speed>0.94</speed>
  <fix>3d</fix>
</trkpt>
<trkpt lat="33.8097784" lon="-118.3942513">
  <ele>-35.133</ele>
  <time>2026-09-02T22:08:09Z</time>
  <course>294.05</course>
  <speed>0.9604686356149272</speed>
  <fix>3d</fix>
</trkpt>
<trkpt lat="33.8097781" lon="-118.3942488">
  <ele>-34.28</ele>
  <time>2026-09-02T22:08:09Z</time>
  <course>270.47</course>
  <speed>0.94</speed>
  <fix>3d</fix>
</trkpt>
<trkpt lat="33.8097784" lon="-118.3942523">
  <ele>-35.116</ele>
  <time>2026-09-02T22:08:09Z</time>
  <course>293.93</course>
  <speed>0.9604686356149272</speed>
  <fix>3d</fix>
</trkpt>
<trkpt lat="33.8097781" lon="-118.3942509">
  <ele>-34.28</ele>
  <time>2026-09-02T22:08:09Z</time>
  <course>270.86</course>
  <speed>0.95</speed>
  <fix>3d</fix>
</trkpt>
<trkpt lat="33.8097784" lon="-118.3942533">
  <ele>-35.093</ele>
  <time>2026-09-02T22:08:09Z</time>
  <course>293.81</course>
  <speed>0.9304837451562494</speed>
  <fix>3d</fix>
</trkpt>
<trkpt lat="33.8097781" lon="-118.3942509">
  <ele>-34.28</ele>
  <time>2026-09-02T22:08:09Z</time>
  <course>270.86</course>
  <speed>0.95</speed>
  <fix>3d</fix>
</trkpt>
<trkpt lat="33.8097784" lon="-118.3942543">
  <ele>-35.067</ele>
  <time>2026-09-02T22:08:09Z</time>
  <course>294.0</course>
  <speed>0.8908984229416954</speed>
  <fix>3d</fix>
</trkpt>
<trkpt lat="33.8097781" lon="-118.3942529">
  <ele>-34.26</ele>
  <time>2026-09-02T22:08:09Z</time>
  <course>271.38</course>
  <speed>0.92</speed>
  <fix>3d</fix>
</trkpt>
<trkpt lat="33.8097784" lon="-118.3942552">
  <ele>-35.04</ele>
  <time>2026-09-02T22:08:09Z</time>
  <course>294.59</course>
  <speed>0.9008884503644167</speed>
  <fix>3d</fix>
</trkpt>
<trkpt lat="33.8097781" lon="-118.3942529">
  <ele>-34.26</ele>
  <time>2026-09-02T22:08:09Z</time>
  <course>271.38</course>
  <speed>0.92</speed>
  <fix>3d</fix>
</trkpt>
<trkpt lat="33.8097784" lon="-118.3942562">
  <ele>-35.011</ele>
  <time>2026-09-02T22:08:09Z</time>
  <course>294.88</course>
  <speed>0.9108786966440703</speed>
  <fix>3d</fix>
</trkpt>
<trkpt lat="33.8097781" lon="-118.3942549">
  <ele>-34.21</ele>
  <time>2026-09-02T22:08:09Z</time>
  <course>271.77</course>
  <speed>0.89</speed>
  <fix>3d</fix>
</trkpt>
<trkpt lat="33.8097784" lon="-118.3942572">
  <ele>-34.982</ele>
  <time>2026-09-02T22:08:09Z</time>
  <course>294.76</course>
  <speed>0.920869154657707</speed>
  <fix>3d</fix>
</trkpt>
<trkpt lat="33.8097781" lon="-118.3942549">
  <ele>-34.21</ele>
  <time>2026-09-02T22:08:09Z</time>
  <course>271.77</course>
  <speed>0.89</speed>
  <fix>3d</fix>
</trkpt>
<trkpt lat="33.8097784" lon="-118.3942582">
  <ele>-34.951</ele>
  <time>2026-09-02T22:08:09Z</time>
  <course>294.44</course>
  <speed>0.920869154657707</speed>
  <fix>3d</fix>
</trkpt>
<trkpt lat="33.8097782" lon="-118.3942568">
  <ele>-34.15</ele>
  <time>2026-09-02T22:08:09Z</time>
  <course>271.82</course>
  <speed>0.92</speed>
  <fix>3d</fix>
</trkpt>
<trkpt lat="33.8097784" lon="-118.3942591">
  <ele>-34.922</ele>
  <time>2026-09-02T22:08:09Z</time>
  <course>294.09</course>
  <speed>0.930859817588019</speed>
  <fix>3d</fix>
</trkpt>
<trkpt lat="33.8097782" lon="-118.3942568">
  <ele>-34.15</ele>
  <time>2026-09-02T22:08:09Z</time>
  <course>271.82</course>
  <speed>0.92</speed>
  <fix>3d</fix>
</trkpt>
<trkpt lat="33.8097784" lon="-118.3942601">
  <ele>-34.895</ele>
  <time>2026-09-02T22:08:09Z</time>
  <course>293.77</course>
  <speed>0.9304837451562494</speed>
  <fix>3d</fix>
</trkpt>
<trkpt lat="33.8097783" lon="-118.3942589">
  <ele>-34.1</ele>
  <time>2026-09-02T22:08:09Z</time>
  <course>271.89</course>
  <speed>0.93</speed>
  <fix>3d</fix>
</trkpt>
<trkpt lat="33.8097784" lon="-118.3942612">
  <ele>-34.875</ele>
  <time>2026-09-02T22:08:09Z</time>
  <course>293.48</course>
  <speed>0.9304837451562494</speed>
  <fix>3d</fix>
</trkpt>
<trkpt lat="33.8097783" lon="-118.3942589">
  <ele>-34.1</ele>
  <time>2026-09-02T22:08:09Z</time>
  <course>271.89</course>
  <speed>0.93</speed>
  <fix>3d</fix>
</trkpt>
<trkpt lat="33.8097784" lon="-118.3942622">
  <ele>-34.864</ele>
  <time>2026-09-02T22:08:09Z</time>
  <course>293.21</course>
  <speed>0.9304837451562494</speed>
  <fix>3d</fix>
</trkpt>
<trkpt lat="33.8097783" lon="-118.3942609">
  <ele>-34.05</ele>
  <time>2026-09-02T22:08:09Z</time>
  <course>271.93</course>
  <speed>0.94</speed>
  <fix>3d</fix>
</trkpt>
<trkpt lat="33.8097784" lon="-118.3942632">
  <ele>-34.866</ele>
  <time>2026-09-02T22:08:09Z</time>
  <course>292.96</course>
  <speed>0.9304837451562494</speed>
  <fix>3d</fix>
</trkpt>
<trkpt lat="33.8097783" lon="-118.3942609">
  <ele>-34.05</ele>
  <time>2026-09-02T22:08:09Z</time>
  <course>271.93</course>
  <speed>0.94</speed>
  <fix>3d</fix>
</trkpt>
<trkpt lat="33.8097785" lon="-118.3942642">
  <ele>-34.875</ele>
  <time>2026-09-02T22:08:09Z</time>
  <course>292.74</course>
  <speed>0.9204890004774636</speed>
  <fix>3d</fix>
</trkpt>
<trkpt lat="33.8097784" lon="-118.394263">
  <ele>-34.04</ele>
  <time>2026-09-02T22:08:09Z</time>
  <course>271.95</course>
  <speed>0.94</speed>
  <fix>3d</fix>
</trkpt>
<trkpt lat="33.8097785" lon="-118.3942652">
  <ele>-34.886</ele>
  <time>2026-09-02T22:08:09Z</time>
  <course>292.51</course>
  <speed>0.9204890004774636</speed>
  <fix>3d</fix>
</trkpt>
<trkpt lat="33.8097784" lon="-118.394263">
  <ele>-34.04</ele>
  <time>2026-09-02T22:08:09Z</time>
  <course>271.95</course>
  <speed>0.94</speed>
  <fix>3d</fix>
</trkpt>
<trkpt lat="33.8097785" lon="-118.3942662">
  <ele>-34.902</ele>
  <time>2026-09-02T22:08:09Z</time>
  <course>292.3</course>
  <speed>0.9204890004774636</speed>
  <fix>3d</fix>
</trkpt>
<trkpt lat="33.8097784" lon="-118.394265">
  <ele>-34.05</ele>
  <time>2026-09-02T22:08:09Z</time>
  <course>271.93</course>
  <speed>0.93</speed>
  <fix>3d</fix>
</trkpt>
<trkpt lat="33.8097785" lon="-118.3942672">
  <ele>-34.921</ele>
  <time>2026-09-02T22:08:09Z</time>
  <course>292.1</course>
  <speed>0.9204890004774636</speed>
  <fix>3d</fix>
</trkpt>
<trkpt lat="33.8097784" lon="-118.394265">
  <ele>-34.05</ele>
  <time>2026-09-02T22:08:09Z</time>
  <course>271.93</course>
  <speed>0.93</speed>
  <fix>3d</fix>
</trkpt>
<trkpt lat="33.8097785" lon="-118.3942682">
  <ele>-34.941</ele>
  <time>2026-09-02T22:08:09Z</time>
  <course>291.89</course>
  <speed>0.9204890004774636</speed>
  <fix>3d</fix>
</trkpt>
<trkpt lat="33.8097785" lon="-118.3942669">
  <ele>-34.08</ele>
  <time>2026-09-02T22:08:09Z</time>
  <course>271.9</course>
  <speed>0.93</speed>
  <fix>3d</fix>
</trkpt>
<trkpt lat="33.8097786" lon="-118.3942692">
  <ele>-34.961</ele>
  <time>2026-09-02T22:08:09Z</time>
  <course>291.68</course>
  <speed>0.910494371207203</speed>
  <fix>3d</fix>
</trkpt>
<trkpt lat="33.8097785" lon="-118.3942669">
  <ele>-34.08</ele>
  <time>2026-09-02T22:08:09Z</time>
  <course>271.9</course>
  <speed>0.93</speed>
  <fix>3d</fix>
</trkpt>
<trkpt lat="33.8097786" lon="-118.3942702">
  <ele>-34.981</ele>
  <time>2026-09-02T22:08:09Z</time>
  <course>291.46</course>
  <speed>0.910494371207203</speed>
  <fix>3d</fix>
</trkpt>
<trkpt lat="33.8097786" lon="-118.394269">
  <ele>-34.12</ele>
  <time>2026-09-02T22:08:09Z</time>
  <course>271.86</course>
  <speed>0.93</speed>
  <fix>3d</fix>
</trkpt>
<trkpt lat="33.8097786" lon="-118.3942712">
  <ele>-35.0</ele>
  <time>2026-09-02T22:08:09Z</time>
  <course>291.23</course>
  <speed>0.9102197536858887</speed>
  <fix>3d</fix>
</trkpt>
<trkpt lat="33.8097786" lon="-118.394269">
  <ele>-34.12</ele>
  <time>2026-09-02T22:08:09Z</time>
  <course>271.86</course>
  <speed>0.93</speed>
  <fix>3d</fix>
</trkpt>
<trkpt lat="33.8097786" lon="-118.3942722">
  <ele>-35.017</ele>
  <time>2026-09-02T22:08:09Z</time>
  <course>291.0</course>
  <speed>0.9102197536858887</speed>
  <fix>3d</fix>
</trkpt>
<trkpt lat="33.8097786" lon="-118.3942711">
  <ele>-34.15</ele>
  <time>2026-09-02T22:08:09Z</time>
  <course>271.74</course>
  <speed>0.93</speed>
  <fix>3d</fix>
</trkpt>
<trkpt lat="33.8097786" lon="-118.3942732">
  <ele>-35.032</ele>
  <time>2026-09-02T22:08:09Z</time>
  <course>290.75</course>
  <speed>0.9102197536858887</speed>
  <fix>3d</fix>
</trkpt>
<trkpt lat="33.8097786" lon="-118.3942711">
  <ele>-34.15</ele>
  <time>2026-09-02T22:08:09Z</time>
  <course>271.74</course>
  <speed>0.93</speed>
  <fix>3d</fix>
</trkpt>
<trkpt lat="33.8097787" lon="-118.3942742">
  <ele>-35.044</ele>
  <time>2026-09-02T22:08:09Z</time>
  <course>290.52</course>
  <speed>0.9102197536858887</speed>
  <fix>3d</fix>
</trkpt>
<trkpt lat="33.8097786" lon="-118.3942731">
  <ele>-34.18</ele>
  <time>2026-09-02T22:08:09Z</time>
  <course>271.62</course>
  <speed>0.92</speed>
  <fix>3d</fix>
</trkpt>
<trkpt lat="33.8097787" lon="-118.3942752">
  <ele>-35.052</ele>
  <time>2026-09-02T22:08:09Z</time>
  <course>290.3</course>
  <speed>0.900222194794152</speed>
  <fix>3d</fix>
</trkpt>
<trkpt lat="33.8097786" lon="-118.3942731">
  <ele>-34.18</ele>
  <time>2026-09-02T22:08:09Z</time>
  <course>271.62</course>
  <speed>0.92</speed>
  <fix>3d</fix>
</trkpt>
<trkpt lat="33.8097787" lon="-118.3942762">
  <ele>-35.056</ele>
  <time>2026-09-02T22:08:09Z</time>
  <course>290.1</course>
  <speed>0.900222194794152</speed>
  <fix>3d</fix>
</trkpt>
<trkpt lat="33.8097787" lon="-118.394275">
  <ele>-34.19</ele>
  <time>2026-09-02T22:08:09Z</time>
  <course>271.54</course>
  <speed>0.92</speed>
  <fix>3d</fix>
</trkpt>
<trkpt lat="33.8097787" lon="-118.3942772">
  <ele>-35.053</ele>
  <time>2026-09-02T22:08:09Z</time>
  <course>289.9</course>
  <speed>0.900222194794152</speed>
  <fix>3d</fix>
</trkpt>
<trkpt lat="33.8097787" lon="-118.394275">
  <ele>-34.19</ele>
  <time>2026-09-02T22:08:09Z</time>
  <course>271.54</course>
  <speed>0.92</speed>
  <fix>3d</fix>
</trkpt>
<trkpt lat="33.8097787" lon="-118.3942782">
  <ele>-35.048</ele>
  <time>2026-09-02T22:08:09Z</time>
  <course>289.7</course>
  <speed>0.900222194794152</speed>
  <fix>3d</fix>
</trkpt>
<trkpt lat="33.8097787" lon="-118.3942771">
  <ele>-34.21</ele>
  <time>2026-09-02T22:08:09Z</time>
  <course>271.48</course>
  <speed>0.92</speed>
  <fix>3d</fix>
</trkpt>
<trkpt lat="33.8097788" lon="-118.3942792">
  <ele>-35.037</ele>
  <time>2026-09-02T22:08:09Z</time>
  <course>289.49</course>
  <speed>0.900222194794152</speed>
  <fix>3d</fix>
</trkpt>
<trkpt lat="33.8097787" lon="-118.3942771">
  <ele>-34.21</ele>
  <time>2026-09-02T22:08:09Z</time>
  <course>271.48</course>
  <speed>0.92</speed>
  <fix>3d</fix>
</trkpt>
<trkpt lat="33.8097788" lon="-118.3942802">
  <ele>-35.019</ele>
  <time>2026-09-02T22:08:09Z</time>
  <course>289.28</course>
  <speed>0.900222194794152</speed>
  <fix>3d</fix>
</trkpt>
<trkpt lat="33.8097787" lon="-118.3942791">
  <ele>-34.19</ele>
  <time>2026-09-02T22:08:09Z</time>
  <course>271.41</course>
  <speed>0.91</speed>
  <fix>3d</fix>
</trkpt>
<trkpt lat="33.8097788" lon="-118.3942812">
  <ele>-34.999</ele>
  <time>2026-09-02T22:08:09Z</time>
  <course>289.08</course>
  <speed>0.8902246907382428</speed>
  <fix>3d</fix>
</trkpt>
<trkpt lat="33.8097787" lon="-118.3942791">
  <ele>-34.19</ele>
  <time>2026-09-02T22:08:09Z</time>
  <course>271.41</course>
  <speed>0.91</speed>
  <fix>3d</fix>
</trkpt>
<trkpt lat="33.8097788" lon="-118.3942822">
  <ele>-34.974</ele>
  <time>2026-09-02T22:08:09Z</time>
  <course>288.9</course>
  <speed>0.8902246907382428</speed>
  <fix>3d</fix>
</trkpt>
<trkpt lat="33.8097788" lon="-118.394281">
  <ele>-34.17</ele>
  <time>2026-09-02T22:08:09Z</time>
  <course>271.39</course>
  <speed>0.91</speed>
  <fix>3d</fix>
</trkpt>
<trkpt lat="33.8097788" lon="-118.3942832">
  <ele>-34.947</ele>
  <time>2026-09-02T22:08:09Z</time>
  <course>288.72</course>
  <speed>0.8902246907382428</speed>
  <fix>3d</fix>
</trkpt>
<trkpt lat="33.8097788" lon="-118.394281">
  <ele>-34.17</ele>
  <time>2026-09-02T22:08:09Z</time>
  <course>271.39</course>
  <speed>0.91</speed>
  <fix>3d</fix>
</trkpt>
<trkpt lat="33.8097788" lon="-118.3942841">
  <ele>-34.92</ele>
  <time>2026-09-02T22:08:09Z</time>
  <course>288.53</course>
  <speed>0.8902246907382428</speed>
  <fix>3d</fix>
</trkpt>
<trkpt lat="33.8097789" lon="-118.394283">
  <ele>-34.12</ele>
  <time>2026-09-02T22:08:09Z</time>
  <course>271.36</course>
  <speed>0.91</speed>
  <fix>3d</fix>
</trkpt>
<trkpt lat="33.8097789" lon="-118.3942851">
  <ele>-34.897</ele>
  <time>2026-09-02T22:08:09Z</time>
  <course>288.32</course>
  <speed>0.8902246907382428</speed>
  <fix>3d</fix>
</trkpt>
<trkpt lat="33.8097789" lon="-118.394283">
  <ele>-34.12</ele>
  <time>2026-09-02T22:08:09Z</time>
  <course>271.36</course>
  <speed>0.91</speed>
  <fix>3d</fix>
</trkpt>
<trkpt lat="33.8097789" lon="-118.3942861">
  <ele>-34.881</ele>
  <time>2026-09-02T22:08:09Z</time>
  <course>288.09</course>
  <speed>0.8900561780022652</speed>
  <fix>3d</fix>
</trkpt>
<trkpt lat="33.8097789" lon="-118.394285">
  <ele>-34.08</ele>
  <time>2026-09-02T22:08:09Z</time>
  <course>271.26</course>
  <speed>0.91</speed>
  <fix>3d</fix>
</trkpt>
<trkpt lat="33.8097789" lon="-118.3942871">
  <ele>-34.871</ele>
  <time>2026-09-02T22:08:09Z</time>
  <course>287.86</course>
  <speed>0.8900561780022652</speed>
  <fix>3d</fix>
</trkpt>
<trkpt lat="33.8097789" lon="-118.394285">
  <ele>-34.08</ele>
  <time>2026-09-02T22:08:09Z</time>
  <course>271.26</course>
  <speed>0.91</speed>
  <fix>3d</fix>
</trkpt>
<trkpt lat="33.8097789" lon="-118.3942881">
  <ele>-34.867</ele>
  <time>2026-09-02T22:08:09Z</time>
  <course>287.61</course>
  <speed>0.8900561780022652</speed>
  <fix>3d</fix>
</trkpt>
<trkpt lat="33.809779" lon="-118.394287">
  <ele>-34.05</ele>
  <time>2026-09-02T22:08:09Z</time>
  <course>271.12</course>
  <speed>0.91</speed>
  <fix>3d</fix>
</trkpt>
<trkpt lat="33.8097789" lon="-118.3942891">
  <ele>-34.871</ele>
  <time>2026-09-02T22:08:09Z</time>
  <course>287.36</course>
  <speed>0.8900561780022652</speed>
  <fix>3d</fix>
</trkpt>
<trkpt lat="33.809779" lon="-118.394287">
  <ele>-34.05</ele>
  <time>2026-09-02T22:08:09Z</time>
  <course>271.12</course>
  <speed>0.91</speed>
  <fix>3d</fix>
</trkpt>
<trkpt lat="33.8097789" lon="-118.3942901">
  <ele>-34.88</ele>
  <time>2026-09-02T22:08:09Z</time>
  <course>287.11</course>
  <speed>0.8900561780022652</speed>
  <fix>3d</fix>
</trkpt>
<trkpt lat="33.809779" lon="-118.3942889">
  <ele>-34.04</ele>
  <time>2026-09-02T22:08:09Z</time>
  <course>270.98</course>
  <speed>0.91</speed>
  <fix>3d</fix>
</trkpt>
<trkpt lat="33.809779" lon="-118.394291">
  <ele>-34.895</ele>
  <time>2026-09-02T22:08:09Z</time>
  <course>286.86</course>
  <speed>0.8900561780022652</speed>
  <fix>3d</fix>
</trkpt>
<trkpt lat="33.809779" lon="-118.3942889">
  <ele>-34.04</ele>
  <time>2026-09-02T22:08:09Z</time>
  <course>270.98</course>
  <speed>0.91</speed>
  <fix>3d</fix>
</trkpt>
<trkpt lat="33.809779" lon="-118.394292">
  <ele>-34.912</ele>
  <time>2026-09-02T22:08:09Z</time>
  <course>286.62</course>
  <speed>0.8900561780022652</speed>
  <fix>3d</fix>
</trkpt>
<trkpt lat="33.809779" lon="-118.3942908">
  <ele>-34.05</ele>
  <time>2026-09-02T22:08:09Z</time>
  <course>270.83</course>
  <speed>0.91</speed>
  <fix>3d</fix>
</trkpt>
<trkpt lat="33.809779" lon="-118.394293">
  <ele>-34.93</ele>
  <time>2026-09-02T22:08:09Z</time>
  <course>286.38</course>
  <speed>0.8900561780022652</speed>
  <fix>3d</fix>
</trkpt>
<trkpt lat="33.809779" lon="-118.3942908">
  <ele>-34.05</ele>
  <time>2026-09-02T22:08:09Z</time>
  <course>270.83</course>
  <speed>0.91</speed>
  <fix>3d</fix>
</trkpt>
<trkpt lat="33.809779" lon="-118.394294">
  <ele>-34.949</ele>
  <time>2026-09-02T22:08:09Z</time>
  <course>286.16</course>
  <speed>0.8900561780022652</speed>
  <fix>3d</fix>
</trkpt>
<trkpt lat="33.809779" lon="-118.3942929">
  <ele>-34.09</ele>
  <time>2026-09-02T22:08:09Z</time>
  <course>270.72</course>
  <speed>0.91</speed>
  <fix>3d</fix>
</trkpt>
<trkpt lat="33.809779" lon="-118.394295">
  <ele>-34.969</ele>
  <time>2026-09-02T22:08:09Z</time>
  <course>285.96</course>
  <speed>0.8900561780022652</speed>
  <fix>3d</fix>
</trkpt>
<trkpt lat="33.809779" lon="-118.3942929">
  <ele>-34.09</ele>
  <time>2026-09-02T22:08:09Z</time>
  <course>270.72</course>
  <speed>0.91</speed>
  <fix>3d</fix>
</trkpt>
<trkpt lat="33.809779" lon="-118.3942959">
  <ele>-34.99</ele>
  <time>2026-09-02T22:08:09Z</time>
  <course>285.76</course>
  <speed>0.8900561780022652</speed>
  <fix>3d</fix>
</trkpt>
<trkpt lat="33.8097791" lon="-118.3942949">
  <ele>-34.12</ele>
  <time>2026-09-02T22:08:09Z</time>
  <course>270.67</course>
  <speed>0.91</speed>
  <fix>3d</fix>
</trkpt>
<trkpt lat="33.809779" lon="-118.3942969">
  <ele>-35.012</ele>
  <time>2026-09-02T22:08:09Z</time>
  <course>285.58</course>
  <speed>0.8900561780022652</speed>
  <fix>3d</fix>
</trkpt>
<trkpt lat="33.8097791" lon="-118.3942949">
  <ele>-34.12</ele>
  <time>2026-09-02T22:08:09Z</time>
  <course>270.67</course>
  <speed>0.91</speed>
  <fix>3d</fix>
</trkpt>
<trkpt lat="33.809779" lon="-118.3942979">
  <ele>-35.033</ele>
  <time>2026-09-02T22:08:09Z</time>
  <course>285.4</course>
  <speed>0.8900561780022652</speed>
  <fix>3d</fix>
</trkpt>
<trkpt lat="33.8097791" lon="-118.3942968">
  <ele>-34.16</ele>
  <time>2026-09-02T22:08:09Z</time>
  <course>270.63</course>
  <speed>0.91</speed>
  <fix>3d</fix>
</trkpt>
<trkpt lat="33.8097791" lon="-118.3942989">
  <ele>-35.054</ele>
  <time>2026-09-02T22:08:09Z</time>
  <course>285.21</course>
  <speed>0.8900561780022652</speed>
  <fix>3d</fix>
</trkpt>
<trkpt lat="33.8097791" lon="-118.3942968">
  <ele>-34.16</ele>
  <time>2026-09-02T22:08:09Z</time>
  <course>270.63</course>
  <speed>0.91</speed>
  <fix>3d</fix>
</trkpt>
<trkpt lat="33.8097791" lon="-118.3942999">
  <ele>-35.075</ele>
  <time>2026-09-02T22:08:09Z</time>
  <course>285.02</course>
  <speed>0.8900561780022652</speed>
  <fix>3d</fix>
</trkpt>
<trkpt lat="33.8097791" lon="-118.3942988">
  <ele>-34.2</ele>
  <time>2026-09-02T22:08:09Z</time>
  <course>270.56</course>
  <speed>0.91</speed>
  <fix>3d</fix>
</trkpt>
<trkpt lat="33.8097791" lon="-118.3943009">
  <ele>-35.094</ele>
  <time>2026-09-02T22:08:09Z</time>
  <course>284.83</course>
  <speed>0.8900561780022652</speed>
  <fix>3d</fix>
</trkpt>
<trkpt lat="33.8097791" lon="-118.3942988">
  <ele>-34.2</ele>
  <time>2026-09-02T22:08:09Z</time>
  <course>270.56</course>
  <speed>0.91</speed>
  <fix>3d</fix>
</trkpt>
<trkpt lat="33.8097791" lon="-118.3943019">
  <ele>-35.11</ele>
  <time>2026-09-02T22:08:09Z</time>
  <course>284.65</course>
  <speed>0.8900561780022652</speed>
  <fix>3d</fix>
</trkpt>
<trkpt lat="33.8097791" lon="-118.3943008">
  <ele>-34.23</ele>
  <time>2026-09-02T22:08:09Z</time>
  <course>270.49</course>
  <speed>0.91</speed>
  <fix>3d</fix>
</trkpt>
<trkpt lat="33.8097791" lon="-118.3943028">
  <ele>-35.117</ele>
  <time>2026-09-02T22:08:09Z</time>
  <course>284.48</course>
  <speed>0.8900561780022652</speed>
  <fix>3d</fix>
</trkpt>
<trkpt lat="33.8097791" lon="-118.3943008">
  <ele>-34.23</ele>
  <time>2026-09-02T22:08:09Z</time>
  <course>270.49</course>
  <speed>0.91</speed>
  <fix>3d</fix>
</trkpt>
<trkpt lat="33.8097791" lon="-118.3943038">
  <ele>-35.12</ele>
  <time>2026-09-02T22:08:09Z</time>
  <course>284.31</course>
  <speed>0.8900561780022652</speed>
  <fix>3d</fix>
</trkpt>
<trkpt lat="33.8097791" lon="-118.3943028">
  <ele>-34.26</ele>
  <time>2026-09-02T22:08:09Z</time>
  <course>270.46</course>
  <speed>0.91</speed>
  <fix>3d</fix>
</trkpt>
<trkpt lat="33.8097791" lon="-118.3943048">
  <ele>-35.121</ele>
  <time>2026-09-02T22:08:09Z</time>
  <course>284.15</course>
  <speed>0.8900561780022652</speed>
  <fix>3d</fix>
</trkpt>
<trkpt lat="33.8097791" lon="-118.3943028">
  <ele>-34.26</ele>
  <time>2026-09-02T22:08:09Z</time>
  <course>270.46</course>
  <speed>0.91</speed>
  <fix>3d</fix>
</trkpt>
<trkpt lat="33.8097791" lon="-118.3943058">
  <ele>-35.121</ele>
  <time>2026-09-02T22:08:09Z</time>
  <course>284.0</course>
  <speed>0.8900561780022652</speed>
  <fix>3d</fix>
</trkpt>
<trkpt lat="33.8097791" lon="-118.3943047">
  <ele>-34.27</ele>
  <time>2026-09-02T22:08:09Z</time>
  <course>270.46</course>
  <speed>0.91</speed>
  <fix>3d</fix>
</trkpt>
<trkpt lat="33.8097791" lon="-118.3943068">
  <ele>-35.117</ele>
  <time>2026-09-02T22:08:09Z</time>
  <course>283.86</course>
  <speed>0.8900561780022652</speed>
  <fix>3d</fix>
</trkpt>
<trkpt lat="33.8097791" lon="-118.3943047">
  <ele>-34.27</ele>
  <time>2026-09-02T22:08:09Z</time>
  <course>270.46</course>
  <speed>0.91</speed>
  <fix>3d</fix>
</trkpt>
<trkpt lat="33.8097791" lon="-118.3943078">
  <ele>-35.106</ele>
  <time>2026-09-02T22:08:09Z</time>
  <course>283.73</course>
  <speed>0.8900561780022652</speed>
  <fix>3d</fix>
</trkpt>
<trkpt lat="33.8097792" lon="-118.3943068">
  <ele>-34.27</ele>
  <time>2026-09-02T22:08:09Z</time>
  <course>270.48</course>
  <speed>0.92</speed>
  <fix>3d</fix>
</trkpt>
<trkpt lat="33.8097792" lon="-118.3943087">
  <ele>-35.093</ele>
  <time>2026-09-02T22:08:09Z</time>
  <course>283.59</course>
  <speed>0.8900561780022652</speed>
  <fix>3d</fix>
</trkpt>
<trkpt lat="33.8097792" lon="-118.3943068">
  <ele>-34.27</ele>
  <time>2026-09-02T22:08:09Z</time>
  <course>270.48</course>
  <speed>0.92</speed>
  <fix>3d</fix>
</trkpt>
<trkpt lat="33.8097792" lon="-118.3943097">
  <ele>-35.078</ele>
  <time>2026-09-02T22:08:09Z</time>
  <course>283.44</course>
  <speed>0.8900561780022652</speed>
  <fix>3d</fix>
</trkpt>
<trkpt lat="33.8097792" lon="-118.3943088">
  <ele>-34.25</ele>
  <time>2026-09-02T22:08:09Z</time>
  <course>270.49</course>
  <speed>0.92</speed>
  <fix>3d</fix>
</trkpt>
<trkpt lat="33.8097792" lon="-118.3943107">
  <ele>-35.06</ele>
  <time>2026-09-02T22:08:09Z</time>
  <course>283.28</course>
  <speed>0.8900561780022652</speed>
  <fix>3d</fix>
</trkpt>
<trkpt lat="33.8097792" lon="-118.3943088">
  <ele>-34.25</ele>
  <time>2026-09-02T22:08:09Z</time>
  <course>270.49</course>
  <speed>0.92</speed>
  <fix>3d</fix>
</trkpt>
<trkpt lat="33.8097792" lon="-118.3943117">
  <ele>-35.041</ele>
  <time>2026-09-02T22:08:09Z</time>
  <course>283.12</course>
  <speed>0.8900561780022652</speed>
  <fix>3d</fix>
</trkpt>
<trkpt lat="33.8097792" lon="-118.3943108">
  <ele>-34.22</ele>
  <time>2026-09-02T22:08:09Z</time>
  <course>270.43</course>
  <speed>0.92</speed>
  <fix>3d</fix>
</trkpt>
<trkpt lat="33.8097792" lon="-118.3943127">
  <ele>-35.023</ele>
  <time>2026-09-02T22:08:09Z</time>
  <course>282.96</course>
  <speed>0.8900561780022652</speed>
  <fix>3d</fix>
</trkpt>
<trkpt lat="33.8097792" lon="-118.3943108">
  <ele>-34.22</ele>
  <time>2026-09-02T22:08:09Z</time>
  <course>270.43</course>
  <speed>0.92</speed>
  <fix>3d</fix>
</trkpt>
<trkpt lat="33.8097792" lon="-118.3943137">
  <ele>-35.007</ele>
  <time>2026-09-02T22:08:09Z</time>
  <course>282.82</course>
  <speed>0.8900561780022652</speed>
  <fix>3d</fix>
</trkpt>
<trkpt lat="33.8097792" lon="-118.3943128">
  <ele>-34.19</ele>
  <time>2026-09-02T22:08:09Z</time>
  <course>270.39</course>
  <speed>0.92</speed>
  <fix>3d</fix>
</trkpt>
<trkpt lat="33.8097792" lon="-118.3943147">
  <ele>-34.991</ele>
  <time>2026-09-02T22:08:09Z</time>
  <course>282.68</course>
  <speed>0.880056816347672</speed>
  <fix>3d</fix>
</trkpt>
<trkpt lat="33.8097792" lon="-118.3943128">
  <ele>-34.19</ele>
  <time>2026-09-02T22:08:09Z</time>
  <course>270.39</course>
  <speed>0.92</speed>
  <fix>3d</fix>
</trkpt>
<trkpt lat="33.8097792" lon="-118.3943157">
  <ele>-34.977</ele>
  <time>2026-09-02T22:08:09Z</time>
  <course>282.55</course>
  <speed>0.8900561780022652</speed>
  <fix>3d</fix>
</trkpt>
<trkpt lat="33.8097792" lon="-118.3943148">
  <ele>-34.17</ele>
  <time>2026-09-02T22:08:09Z</time>
  <course>270.39</course>
  <speed>0.92</speed>
  <fix>3d</fix>
</trkpt>
<trkpt lat="33.8097792" lon="-118.3943167">
  <ele>-34.965</ele>
  <time>2026-09-02T22:08:09Z</time>
  <course>282.41</course>
  <speed>0.880056816347672</speed>
  <fix>3d</fix>
</trkpt>
<trkpt lat="33.8097792" lon="-118.3943148">
  <ele>-34.17</ele>
  <time>2026-09-02T22:08:09Z</time>
  <course>270.39</course>
  <speed>0.92</speed>
  <fix>3d</fix>
</trkpt>
<trkpt lat="33.8097792" lon="-118.3943177">
  <ele>-34.955</ele>
  <time>2026-09-02T22:08:09Z</time>
  <course>282.29</course>
  <speed>0.880056816347672</speed>
  <fix>3d</fix>
</trkpt>
<trkpt lat="33.8097792" lon="-118.3943168">
  <ele>-34.15</ele>
  <time>2026-09-02T22:08:09Z</time>
  <course>270.4</course>
  <speed>0.92</speed>
  <fix>3d</fix>
</trkpt>
<trkpt lat="33.8097792" lon="-118.3943187">
  <ele>-34.947</ele>
  <time>2026-09-02T22:08:09Z</time>
  <course>282.17</course>
  <speed>0.880056816347672</speed>
  <fix>3d</fix>
</trkpt>
<trkpt lat="33.8097792" lon="-118.3943168">
  <ele>-34.15</ele>
  <time>2026-09-02T22:08:09Z</time>
  <course>270.4</course>
  <speed>0.92</speed>
  <fix>3d</fix>
</trkpt>
<trkpt lat="33.8097793" lon="-118.3943197">
  <ele>-34.941</ele>
  <time>2026-09-02T22:08:09Z</time>
  <course>282.07</course>
  <speed>0.880056816347672</speed>
  <fix>3d</fix>
</trkpt>
<trkpt lat="33.8097792" lon="-118.3943188">
  <ele>-34.12</ele>
  <time>2026-09-02T22:08:09Z</time>
  <course>270.43</course>
  <speed>0.92</speed>
  <fix>3d</fix>
</trkpt>
<trkpt lat="33.8097793" lon="-118.3943207">
  <ele>-34.938</ele>
  <time>2026-09-02T22:08:09Z</time>
  <course>281.96</course>
  <speed>0.880056816347672</speed>
  <fix>3d</fix>
</trkpt>
<trkpt lat="33.8097792" lon="-118.3943188">
  <ele>-34.12</ele>
  <time>2026-09-02T22:08:09Z</time>
  <course>270.43</course>
  <speed>0.92</speed>
  <fix>3d</fix>
</trkpt>
<trkpt lat="33.8097793" lon="-118.3943217">
  <ele>-34.941</ele>
  <time>2026-09-02T22:08:09Z</time>
  <course>281.85</course>
  <speed>0.880056816347672</speed>
  <fix>3d</fix>
</trkpt>
<trkpt lat="33.8097792" lon="-118.3943208">
  <ele>-34.12</ele>
  <time>2026-09-02T22:08:09Z</time>
  <course>270.49</course>
  <speed>0.92</speed>
  <fix>3d</fix>
</trkpt>
<trkpt lat="33.8097793" lon="-118.3943227">
  <ele>-34.95</ele>
  <time>2026-09-02T22:08:09Z</time>
  <course>281.75</course>
  <speed>0.880056816347672</speed>
  <fix>3d</fix>
</trkpt>
<trkpt lat="33.8097792" lon="-118.3943208">
  <ele>-34.12</ele>
  <time>2026-09-02T22:08:09Z</time>
  <course>270.49</course>
  <speed>0.92</speed>
  <fix>3d</fix>
</trkpt>
<trkpt lat="33.8097793" lon="-118.3943236">
  <ele>-34.958</ele>
  <time>2026-09-02T22:08:09Z</time>
  <course>281.64</course>
  <speed>0.880056816347672</speed>
  <fix>3d</fix>
</trkpt>
<trkpt lat="33.8097792" lon="-118.3943227">
  <ele>-34.12</ele>
  <time>2026-09-02T22:08:09Z</time>
  <course>270.54</course>
  <speed>0.92</speed>
  <fix>3d</fix>
</trkpt>
<trkpt lat="33.8097793" lon="-118.3943246">
  <ele>-34.967</ele>
  <time>2026-09-02T22:08:09Z</time>
  <course>281.54</course>
  <speed>0.8802272433866155</speed>
  <fix>3d</fix>
</trkpt>
<trkpt lat="33.8097792" lon="-118.3943227">
  <ele>-34.12</ele>
  <time>2026-09-02T22:08:09Z</time>
  <course>270.54</course>
  <speed>0.92</speed>
  <fix>3d</fix>
</trkpt>
<trkpt lat="33.8097793" lon="-118.3943256">
  <ele>-34.979</ele>
  <time>2026-09-02T22:08:09Z</time>
  <course>281.44</course>
  <speed>0.880056816347672</speed>
  <fix>3d</fix>
</trkpt>
<trkpt lat="33.8097792" lon="-118.3943247">
  <ele>-34.13</ele>
  <time>2026-09-02T22:08:09Z</time>
  <course>270.6</course>
  <speed>0.92</speed>
  <fix>3d</fix>
</trkpt>
<trkpt lat="33.8097793" lon="-118.3943266">
  <ele>-34.993</ele>
  <time>2026-09-02T22:08:09Z</time>
  <course>281.33</course>
  <speed>0.8802272433866155</speed>
  <fix>3d</fix>
</trkpt>
<trkpt lat="33.8097792" lon="-118.3943247">
  <ele>-34.13</ele>
  <time>2026-09-02T22:08:09Z</time>
  <course>270.6</course>
  <speed>0.92</speed>
  <fix>3d</fix>
</trkpt>
<trkpt lat="33.8097793" lon="-118.3943276">
  <ele>-35.007</ele>
  <time>2026-09-02T22:08:09Z</time>
  <course>281.23</course>
  <speed>0.8902246907382428</speed>
  <fix>3d</fix>
</trkpt>
<trkpt lat="33.8097792" lon="-118.3943267">
  <ele>-34.15</ele>
  <time>2026-09-02T22:08:09Z</time>
  <course>270.65</course>
  <speed>0.92</speed>
  <fix>3d</fix>
</trkpt>
<trkpt lat="33.8097793" lon="-118.3943286">
  <ele>-35.021</ele>
  <time>2026-09-02T22:08:09Z</time>
  <course>281.13</course>
  <speed>0.8902246907382428</speed>
  <fix>3d</fix>
</trkpt>
<trkpt lat="33.8097792" lon="-118.3943267">
  <ele>-34.15</ele>
  <time>2026-09-02T22:08:09Z</time>
  <course>270.65</course>
  <speed>0.92</speed>
  <fix>3d</fix>
</trkpt>
<trkpt lat="33.8097793" lon="-118.3943296">
  <ele>-35.035</ele>
  <time>2026-09-02T22:08:09Z</time>
  <course>281.02</course>
  <speed>0.8902246907382428</speed>
  <fix>3d</fix>
</trkpt>
<trkpt lat="33.8097792" lon="-118.3943287">
  <ele>-34.17</ele>
  <time>2026-09-02T22:08:09Z</time>
  <course>270.71</course>
  <speed>0.92</speed>
  <fix>3d</fix>
</trkpt>
<trkpt lat="33.8097793" lon="-118.3943306">
  <ele>-35.047</ele>
  <time>2026-09-02T22:08:09Z</time>
  <course>280.92</course>
  <speed>0.8902246907382428</speed>
  <fix>3d</fix>
</trkpt>
<trkpt lat="33.8097792" lon="-118.3943287">
  <ele>-34.17</ele>
  <time>2026-09-02T22:08:09Z</time>
  <course>270.71</course>
  <speed>0.92</speed>
  <fix>3d</fix>
</trkpt>
<trkpt lat="33.8097793" lon="-118.3943316">
  <ele>-35.061</ele>
  <time>2026-09-02T22:08:09Z</time>
  <course>280.82</course>
  <speed>0.8902246907382428</speed>
  <fix>3d</fix>
</trkpt>
<trkpt lat="33.8097793" lon="-118.3943307">
  <ele>-34.19</ele>
  <time>2026-09-02T22:08:09Z</time>
  <course>270.79</course>
  <speed>0.92</speed>
  <fix>3d</fix>
</trkpt>
<trkpt lat="33.8097793" lon="-118.3943326">
  <ele>-35.074</ele>
  <time>2026-09-02T22:08:09Z</time>
  <course>280.71</course>
  <speed>0.8902246907382428</speed>
  <fix>3d</fix>
</trkpt>
<trkpt lat="33.8097793" lon="-118.3943307">
  <ele>-34.19</ele>
  <time>2026-09-02T22:08:09Z</time>
  <course>270.79</course>
  <speed>0.92</speed>
  <fix>3d</fix>
</trkpt>
<trkpt lat="33.8097794" lon="-118.3943336">
  <ele>-35.086</ele>
  <time>2026-09-02T22:08:09Z</time>
  <course>280.6</course>
  <speed>0.8902246907382428</speed>
  <fix>3d</fix>
</trkpt>
<trkpt lat="33.8097793" lon="-118.3943327">
  <ele>-34.22</ele>
  <time>2026-09-02T22:08:09Z</time>
  <course>270.83</course>
  <speed>0.92</speed>
  <fix>3d</fix>
</trkpt>
<trkpt lat="33.8097794" lon="-118.3943346">
  <ele>-35.094</ele>
  <time>2026-09-02T22:08:09Z</time>
  <course>280.46</course>
  <speed>0.8902246907382428</speed>
  <fix>3d</fix>
</trkpt>
<trkpt lat="33.8097793" lon="-118.3943327">
  <ele>-34.22</ele>
  <time>2026-09-02T22:08:09Z</time>
  <course>270.83</course>
  <speed>0.92</speed>
  <fix>3d</fix>
</trkpt>
<trkpt lat="33.8097794" lon="-118.3943356">
  <ele>-35.101</ele>
  <time>2026-09-02T22:08:09Z</time>
  <course>280.32</course>
  <speed>0.8902246907382428</speed>
  <fix>3d</fix>
</trkpt>
<trkpt lat="33.8097793" lon="-118.3943347">
  <ele>-34.23</ele>
  <time>2026-09-02T22:08:09Z</time>
  <course>270.78</course>
  <speed>0.92</speed>
  <fix>3d</fix>
</trkpt>
<trkpt lat="33.8097794" lon="-118.3943366">
  <ele>-35.106</ele>
  <time>2026-09-02T22:08:09Z</time>
  <course>280.16</course>
  <speed>0.8902246907382428</speed>
  <fix>3d</fix>
</trkpt>
<trkpt lat="33.8097793" lon="-118.3943347">
  <ele>-34.23</ele>
  <time>2026-09-02T22:08:09Z</time>
  <course>270.78</course>
  <speed>0.92</speed>
  <fix>3d</fix>
</trkpt>
<trkpt lat="33.8097794" lon="-118.3943376">
  <ele>-35.109</ele>
  <time>2026-09-02T22:08:09Z</time>
  <course>280.02</course>
  <speed>0.8902246907382428</speed>
  <fix>3d</fix>
</trkpt>
<trkpt lat="33.8097793" lon="-118.3943368">
  <ele>-34.25</ele>
  <time>2026-09-02T22:08:09Z</time>
  <course>270.75</course>
  <speed>0.92</speed>
  <fix>3d</fix>
</trkpt>
<trkpt lat="33.8097794" lon="-118.3943386">
  <ele>-35.11</ele>
  <time>2026-09-02T22:08:09Z</time>
  <course>279.88</course>
  <speed>0.8902246907382428</speed>
  <fix>3d</fix>
</trkpt>
<trkpt lat="33.8097793" lon="-118.3943368">
  <ele>-34.25</ele>
  <time>2026-09-02T22:08:09Z</time>
  <course>270.75</course>
  <speed>0.92</speed>
  <fix>3d</fix>
</trkpt>
<trkpt lat="33.8097794" lon="-118.3943396">
  <ele>-35.108</ele>
  <time>2026-09-02T22:08:09Z</time>
  <course>279.75</course>
  <speed>0.8902246907382428</speed>
  <fix>3d</fix>
</trkpt>
<trkpt lat="33.8097793" lon="-118.3943387">
  <ele>-34.26</ele>
  <time>2026-09-02T22:08:09Z</time>
  <course>270.73</course>
  <speed>0.93</speed>
  <fix>3d</fix>
</trkpt>
<trkpt lat="33.8097794" lon="-118.3943406">
  <ele>-35.098</ele>
  <time>2026-09-02T22:08:09Z</time>
  <course>279.63</course>
  <speed>0.8902246907382428</speed>
  <fix>3d</fix>
</trkpt>
<trkpt lat="33.8097793" lon="-118.3943387">
  <ele>-34.26</ele>
  <time>2026-09-02T22:08:09Z</time>
  <course>270.73</course>
  <speed>0.93</speed>
  <fix>3d</fix>
</trkpt>
<trkpt lat="33.8097794" lon="-118.3943416">
  <ele>-35.08</ele>
  <time>2026-09-02T22:08:09Z</time>
  <course>279.52</course>
  <speed>0.8902246907382428</speed>
  <fix>3d</fix>
</trkpt>
<trkpt lat="33.8097794" lon="-118.3943408">
  <ele>-34.25</ele>
  <time>2026-09-02T22:08:09Z</time>
  <course>270.74</course>
  <speed>0.93</speed>
  <fix>3d</fix>
</trkpt>
<trkpt lat="33.8097794" lon="-118.3943426">
  <ele>-35.06</ele>
  <time>2026-09-02T22:08:09Z</time>
  <course>279.4</course>
  <speed>0.8902246907382428</speed>
  <fix>3d</fix>
</trkpt>
<trkpt lat="33.8097794" lon="-118.3943408">
  <ele>-34.25</ele>
  <time>2026-09-02T22:08:09Z</time>
  <course>270.74</course>
  <speed>0.93</speed>
  <fix>3d</fix>
</trkpt>
<trkpt lat="33.8097794" lon="-118.3943436">
  <ele>-35.041</ele>
  <time>2026-09-02T22:08:09Z</time>
  <course>279.27</course>
  <speed>0.8900561780022652</speed>
  <fix>3d</fix>
</trkpt>
<trkpt lat="33.8097795" lon="-118.3943428">
  <ele>-34.22</ele>
  <time>2026-09-02T22:08:09Z</time>
  <course>270.72</course>
  <speed>0.93</speed>
  <fix>3d</fix>
</trkpt>
<trkpt lat="33.8097794" lon="-118.3943446">
  <ele>-35.022</ele>
  <time>2026-09-02T22:08:09Z</time>
  <course>279.12</course>
  <speed>0.8900561780022652</speed>
  <fix>3d</fix>
</trkpt>
<trkpt lat="33.8097795" lon="-118.3943428">
  <ele>-34.22</ele>
  <time>2026-09-02T22:08:09Z</time>
  <course>270.72</course>
  <speed>0.93</speed>
  <fix>3d</fix>
</trkpt>
<trkpt lat="33.8097795" lon="-118.3943457">
  <ele>-35.002</ele>
  <time>2026-09-02T22:08:09Z</time>
  <course>278.94</course>
  <speed>0.8900561780022652</speed>
  <fix>3d</fix>
</trkpt>
<trkpt lat="33.8097795" lon="-118.3943448">
  <ele>-34.19</ele>
  <time>2026-09-02T22:08:09Z</time>
  <course>270.61</course>
  <speed>0.93</speed>
  <fix>3d</fix>
</trkpt>
<trkpt lat="33.8097795" lon="-118.3943467">
  <ele>-34.982</ele>
  <time>2026-09-02T22:08:09Z</time>
  <course>278.75</course>
  <speed>0.8900561780022652</speed>
  <fix>3d</fix>
</trkpt>
<trkpt lat="33.8097795" lon="-118.3943448">
  <ele>-34.19</ele>
  <time>2026-09-02T22:08:09Z</time>
  <course>270.61</course>
  <speed>0.93</speed>
  <fix>3d</fix>
</trkpt>
<trkpt lat="33.8097795" lon="-118.3943477">
  <ele>-34.964</ele>
  <time>2026-09-02T22:08:09Z</time>
  <course>278.55</course>
  <speed>0.8900561780022652</speed>
  <fix>3d</fix>
</trkpt>
<trkpt lat="33.8097795" lon="-118.3943468">
  <ele>-34.15</ele>
  <time>2026-09-02T22:08:09Z</time>
  <course>270.45</course>
  <speed>0.93</speed>
  <fix>3d</fix>
</trkpt>
<trkpt lat="33.8097795" lon="-118.3943487">
  <ele>-34.947</ele>
  <time>2026-09-02T22:08:09Z</time>
  <course>278.36</course>
  <speed>0.8900561780022652</speed>
  <fix>3d</fix>
</trkpt>
<trkpt lat="33.8097795" lon="-118.3943468">
  <ele>-34.15</ele>
  <time>2026-09-02T22:08:09Z</time>
  <course>270.45</course>
  <speed>0.93</speed>
  <fix>3d</fix>
</trkpt>
<trkpt lat="33.8097795" lon="-118.3943497">
  <ele>-34.936</ele>
  <time>2026-09-02T22:08:09Z</time>
  <course>278.18</course>
  <speed>0.8900561780022652</speed>
  <fix>3d</fix>
</trkpt>
<trkpt lat="33.8097795" lon="-118.3943488">
  <ele>-34.12</ele>
  <time>2026-09-02T22:08:09Z</time>
  <course>270.32</course>
  <speed>0.93</speed>
  <fix>3d</fix>
</trkpt>
<trkpt lat="33.8097795" lon="-118.3943507">
  <ele>-34.933</ele>
  <time>2026-09-02T22:08:09Z</time>
  <course>278.01</course>
  <speed>0.8900561780022652</speed>
  <fix>3d</fix>
</trkpt>
<trkpt lat="33.8097795" lon="-118.3943488">
  <ele>-34.12</ele>
  <time>2026-09-02T22:08:09Z</time>
  <course>270.32</course>
  <speed>0.93</speed>
  <fix>3d</fix>
</trkpt>
<trkpt lat="33.8097795" lon="-118.3943517">
  <ele>-34.935</ele>
  <time>2026-09-02T22:08:09Z</time>
  <course>277.86</course>
  <speed>0.8900561780022652</speed>
  <fix>3d</fix>
</trkpt>
<trkpt lat="33.8097795" lon="-118.3943508">
  <ele>-34.1</ele>
  <time>2026-09-02T22:08:09Z</time>
  <course>270.25</course>
  <speed>0.93</speed>
  <fix>3d</fix>
</trkpt>
<trkpt lat="33.8097795" lon="-118.3943527">
  <ele>-34.938</ele>
  <time>2026-09-02T22:08:09Z</time>
  <course>277.72</course>
  <speed>0.8900561780022652</speed>
  <fix>3d</fix>
</trkpt>
<trkpt lat="33.8097795" lon="-118.3943508">
  <ele>-34.1</ele>
  <time>2026-09-02T22:08:09Z</time>
  <course>270.25</course>
  <speed>0.93</speed>
  <fix>3d</fix>
</trkpt>
<trkpt lat="33.8097795" lon="-118.3943537">
  <ele>-34.942</ele>
  <time>2026-09-02T22:08:09Z</time>
  <course>277.59</course>
  <speed>0.8900561780022652</speed>
  <fix>3d</fix>
</trkpt>
<trkpt lat="33.8097795" lon="-118.3943528">
  <ele>-34.1</ele>
  <time>2026-09-02T22:08:09Z</time>
  <course>270.23</course>
  <speed>0.93</speed>
  <fix>3d</fix>
</trkpt>
<trkpt lat="33.8097795" lon="-118.3943547">
  <ele>-34.951</ele>
  <time>2026-09-02T22:08:09Z</time>
  <course>277.47</course>
  <speed>0.8900561780022652</speed>
  <fix>3d</fix>
</trkpt>
<trkpt lat="33.8097795" lon="-118.3943528">
  <ele>-34.1</ele>
  <time>2026-09-02T22:08:09Z</time>
  <course>270.23</course>
  <speed>0.93</speed>
  <fix>3d</fix>
</trkpt>
<trkpt lat="33.8097795" lon="-118.3943557">
  <ele>-34.964</ele>
  <time>2026-09-02T22:08:09Z</time>
  <course>277.37</course>
  <speed>0.9000555538409837</speed>
  <fix>3d</fix>
</trkpt>
<trkpt lat="33.8097795" lon="-118.3943549">
  <ele>-34.11</ele>
  <time>2026-09-02T22:08:09Z</time>
  <course>270.23</course>
  <speed>0.93</speed>
  <fix>3d</fix>
</trkpt>
<trkpt lat="33.8097795" lon="-118.3943568">
  <ele>-34.978</ele>
  <time>2026-09-02T22:08:09Z</time>
  <course>277.27</course>
  <speed>0.9000555538409837</speed>
  <fix>3d</fix>
</trkpt>
<trkpt lat="33.8097795" lon="-118.3943549">
  <ele>-34.11</ele>
  <time>2026-09-02T22:08:09Z</time>
  <course>270.23</course>
  <speed>0.93</speed>
  <fix>3d</fix>
</trkpt>
<trkpt lat="33.8097796" lon="-118.3943578">
  <ele>-34.991</ele>
  <time>2026-09-02T22:08:09Z</time>
  <course>277.17</course>
  <speed>0.9000555538409837</speed>
  <fix>3d</fix>
</trkpt>
<trkpt lat="33.8097796" lon="-118.3943569">
  <ele>-34.13</ele>
  <time>2026-09-02T22:08:09Z</time>
  <course>270.24</course>
  <speed>0.93</speed>
  <fix>3d</fix>
</trkpt>
<trkpt lat="33.8097796" lon="-118.3943588">
  <ele>-35.003</ele>
  <time>2026-09-02T22:08:09Z</time>
  <course>277.07</course>
  <speed>0.9000555538409837</speed>
  <fix>3d</fix>
</trkpt>
<trkpt lat="33.8097796" lon="-118.3943569">
  <ele>-34.13</ele>
  <time>2026-09-02T22:08:09Z</time>
  <course>270.24</course>
  <speed>0.93</speed>
  <fix>3d</fix>
</trkpt>
<trkpt lat="33.8097796" lon="-118.3943598">
  <ele>-35.016</ele>
  <time>2026-09-02T22:08:09Z</time>
  <course>276.96</course>
  <speed>0.9000555538409837</speed>
  <fix>3d</fix>
</trkpt>
<trkpt lat="33.8097796" lon="-118.3943588">
  <ele>-34.16</ele>
  <time>2026-09-02T22:08:09Z</time>
  <course>270.2</course>
  <speed>0.93</speed>
  <fix>3d</fix>
</trkpt>
<trkpt lat="33.8097796" lon="-118.3943608">
  <ele>-35.028</ele>
  <time>2026-09-02T22:08:09Z</time>
  <course>276.83</course>
  <speed>0.9000555538409837</speed>
  <fix>3d</fix>
</trkpt>
<trkpt lat="33.8097796" lon="-118.3943588">
  <ele>-34.16</ele>
  <time>2026-09-02T22:08:09Z</time>
  <course>270.2</course>
  <speed>0.93</speed>
  <fix>3d</fix>
</trkpt>
<trkpt lat="33.8097796" lon="-118.3943618">
  <ele>-35.035</ele>
  <time>2026-09-02T22:08:09Z</time>
  <course>276.7</course>
  <speed>0.9000555538409837</speed>
  <fix>3d</fix>
</trkpt>
<trkpt lat="33.8097796" lon="-118.3943609">
  <ele>-34.18</ele>
  <time>2026-09-02T22:08:09Z</time>
  <course>270.11</course>
  <speed>0.93</speed>
  <fix>3d</fix>
</trkpt>
<trkpt lat="33.8097796" lon="-118.3943628">
  <ele>-35.04</ele>
  <time>2026-09-02T22:08:09Z</time>
  <course>276.56</course>
  <speed>0.9000555538409837</speed>
  <fix>3d</fix>
</trkpt>
<trkpt lat="33.8097796" lon="-118.3943609">
  <ele>-34.18</ele>
  <time>2026-09-02T22:08:09Z</time>
  <course>270.11</course>
  <speed>0.93</speed>
  <fix>3d</fix>
</trkpt>
<trkpt lat="33.8097796" lon="-118.3943639">
  <ele>-35.046</ele>
  <time>2026-09-02T22:08:09Z</time>
  <course>276.43</course>
  <speed>0.9000555538409837</speed>
  <fix>3d</fix>
</trkpt>
<trkpt lat="33.8097796" lon="-118.3943629">
  <ele>-34.19</ele>
  <time>2026-09-02T22:08:09Z</time>
  <course>270.03</course>
  <speed>0.93</speed>
  <fix>3d</fix>
</trkpt>
<trkpt lat="33.8097796" lon="-118.3943649">
  <ele>-35.052</ele>
  <time>2026-09-02T22:08:09Z</time>
  <course>276.31</course>
  <speed>0.9000555538409837</speed>
  <fix>3d</fix>
</trkpt>
<trkpt lat="33.8097796" lon="-118.3943629">
  <ele>-34.19</ele>
  <time>2026-09-02T22:08:09Z</time>
  <course>270.03</course>
  <speed>0.93</speed>
  <fix>3d</fix>
</trkpt>
<trkpt lat="33.8097796" lon="-118.3943659">
  <ele>-35.057</ele>
  <time>2026-09-02T22:08:09Z</time>
  <course>276.2</course>
  <speed>0.9000555538409837</speed>
  <fix>3d</fix>
</trkpt>
<trkpt lat="33.8097796" lon="-118.394365">
  <ele>-34.2</ele>
  <time>2026-09-02T22:08:09Z</time>
  <course>269.98</course>
  <speed>0.94</speed>
  <fix>3d</fix>
</trkpt>
<trkpt lat="33.8097796" lon="-118.3943669">
  <ele>-35.061</ele>
  <time>2026-09-02T22:08:09Z</time>
  <course>276.09</course>
  <speed>0.9000555538409837</speed>
  <fix>3d</fix>
</trkpt>
<trkpt lat="33.8097796" lon="-118.394365">
  <ele>-34.2</ele>
  <time>2026-09-02T22:08:09Z</time>
  <course>269.98</course>
  <speed>0.94</speed>
  <fix>3d</fix>
</trkpt>
<trkpt lat="33.8097796" lon="-118.3943679">
  <ele>-35.063</ele>
  <time>2026-09-02T22:08:09Z</time>
  <course>276.0</course>
  <speed>0.9100549433962765</speed>
  <fix>3d</fix>
</trkpt>
<trkpt lat="33.8097796" lon="-118.394367">
  <ele>-34.21</ele>
  <time>2026-09-02T22:08:09Z</time>
  <course>269.94</course>
  <speed>0.94</speed>
  <fix>3d</fix>
</trkpt>
<trkpt lat="33.8097796" lon="-118.3943689">
  <ele>-35.064</ele>
  <time>2026-09-02T22:08:09Z</time>
  <course>275.91</course>
  <speed>0.9100549433962765</speed>
  <fix>3d</fix>
</trkpt>
<trkpt lat="33.8097796" lon="-118.394367">
  <ele>-34.21</ele>
  <time>2026-09-02T22:08:09Z</time>
  <course>269.94</course>
  <speed>0.94</speed>
  <fix>3d</fix>
</trkpt>
<trkpt lat="33.8097796" lon="-118.39437">
  <ele>-35.061</ele>
  <time>2026-09-02T22:08:09Z</time>
  <course>275.83</course>
  <speed>0.9100549433962765</speed>
  <fix>3d</fix>
</trkpt>
<trkpt lat="33.8097796" lon="-118.394369">
  <ele>-34.22</ele>
  <time>2026-09-02T22:08:09Z</time>
  <course>269.91</course>
  <speed>0.94</speed>
  <fix>3d</fix>
</trkpt>
<trkpt lat="33.8097796" lon="-118.394371">
  <ele>-35.057</ele>
  <time>2026-09-02T22:08:09Z</time>
  <course>275.75</course>
  <speed>0.9100549433962765</speed>
  <fix>3d</fix>
</trkpt>
<trkpt lat="33.8097796" lon="-118.394369">
  <ele>-34.22</ele>
  <time>2026-09-02T22:08:09Z</time>
  <course>269.91</course>
  <speed>0.94</speed>
  <fix>3d</fix>
</trkpt>
<trkpt lat="33.8097796" lon="-118.394372">
  <ele>-35.049</ele>
  <time>2026-09-02T22:08:09Z</time>
  <course>275.67</course>
  <speed>0.9100549433962765</speed>
  <fix>3d</fix>
</trkpt>
<trkpt lat="33.8097796" lon="-118.3943711">
  <ele>-34.21</ele>
  <time>2026-09-02T22:08:09Z</time>
  <course>269.91</course>
  <speed>0.94</speed>
  <fix>3d</fix>
</trkpt>
<trkpt lat="33.8097796" lon="-118.394373">
  <ele>-35.037</ele>
  <time>2026-09-02T22:08:09Z</time>
  <course>275.6</course>
  <speed>0.9100549433962765</speed>
  <fix>3d</fix>
</trkpt>
<trkpt lat="33.8097796" lon="-118.3943711">
  <ele>-34.21</ele>
  <time>2026-09-02T22:08:09Z</time>
  <course>269.91</course>
  <speed>0.94</speed>
  <fix>3d</fix>
</trkpt>
<trkpt lat="33.8097796" lon="-118.3943741">
  <ele>-35.021</ele>
  <time>2026-09-02T22:08:09Z</time>
  <course>275.54</course>
  <speed>0.9100549433962765</speed>
  <fix>3d</fix>
</trkpt>
<trkpt lat="33.8097796" lon="-118.3943731">
  <ele>-34.19</ele>
  <time>2026-09-02T22:08:09Z</time>
  <course>269.91</course>
  <speed>0.94</speed>
  <fix>3d</fix>
</trkpt>
<trkpt lat="33.8097796" lon="-118.3943751">
  <ele>-35.005</ele>
  <time>2026-09-02T22:08:09Z</time>
  <course>275.47</course>
  <speed>0.9100549433962765</speed>
  <fix>3d</fix>
</trkpt>
<trkpt lat="33.8097796" lon="-118.3943731">
  <ele>-34.19</ele>
  <time>2026-09-02T22:08:09Z</time>
  <course>269.91</course>
  <speed>0.94</speed>
  <fix>3d</fix>
</trkpt>
<trkpt lat="33.8097797" lon="-118.3943761">
  <ele>-34.988</ele>
  <time>2026-09-02T22:08:09Z</time>
  <course>275.42</course>
  <speed>0.9100549433962765</speed>
  <fix>3d</fix>
</trkpt>
<trkpt lat="33.8097796" lon="-118.3943752">
  <ele>-34.17</ele>
  <time>2026-09-02T22:08:09Z</time>
  <course>269.92</course>
  <speed>0.94</speed>
  <fix>3d</fix>
</trkpt>
<trkpt lat="33.8097797" lon="-118.3943771">
  <ele>-34.972</ele>
  <time>2026-09-02T22:08:09Z</time>
  <course>275.36</course>
  <speed>0.9100549433962765</speed>
  <fix>3d</fix>
</trkpt>
<trkpt lat="33.8097796" lon="-118.3943752">
  <ele>-34.17</ele>
  <time>2026-09-02T22:08:09Z</time>
  <course>269.92</course>
  <speed>0.94</speed>
  <fix>3d</fix>
</trkpt>
<trkpt lat="33.8097797" lon="-118.3943781">
  <ele>-34.962</ele>
  <time>2026-09-02T22:08:09Z</time>
  <course>275.31</course>
  <speed>0.9100549433962765</speed>
  <fix>3d</fix>
</trkpt>
<trkpt lat="33.8097796" lon="-118.3943772">
  <ele>-34.14</ele>
  <time>2026-09-02T22:08:09Z</time>
  <course>269.94</course>
  <speed>0.94</speed>
  <fix>3d</fix>
</trkpt>
<trkpt lat="33.8097797" lon="-118.3943792">
  <ele>-34.957</ele>
  <time>2026-09-02T22:08:09Z</time>
  <course>275.25</course>
  <speed>0.9100549433962765</speed>
  <fix>3d</fix>
</trkpt>
<trkpt lat="33.8097796" lon="-118.3943772">
  <ele>-34.14</ele>
  <time>2026-09-02T22:08:09Z</time>
  <course>269.94</course>
  <speed>0.94</speed>
  <fix>3d</fix>
</trkpt>
<trkpt lat="33.8097797" lon="-118.3943802">
  <ele>-34.957</ele>
  <time>2026-09-02T22:08:09Z</time>
  <course>275.21</course>
  <speed>0.9100549433962765</speed>
  <fix>3d</fix>
</trkpt>
<trkpt lat="33.8097796" lon="-118.3943793">
  <ele>-34.12</ele>
  <time>2026-09-02T22:08:09Z</time>
  <course>269.96</course>
  <speed>0.94</speed>
  <fix>3d</fix>
</trkpt>
<trkpt lat="33.8097797" lon="-118.3943812">
  <ele>-34.962</ele>
  <time>2026-09-02T22:08:09Z</time>
  <course>275.15</course>
  <speed>0.9100549433962765</speed>
  <fix>3d</fix>
</trkpt>
<trkpt lat="33.8097796" lon="-118.3943793">
  <ele>-34.12</ele>
  <time>2026-09-02T22:08:09Z</time>
  <course>269.96</course>
  <speed>0.94</speed>
  <fix>3d</fix>
</trkpt>
<trkpt lat="33.8097797" lon="-118.3943823">
  <ele>-34.968</ele>
  <time>2026-09-02T22:08:09Z</time>
  <course>275.09</course>
  <speed>0.9100549433962765</speed>
  <fix>3d</fix>
</trkpt>
<trkpt lat="33.8097796" lon="-118.3943813">
  <ele>-34.12</ele>
  <time>2026-09-02T22:08:09Z</time>
  <course>269.98</course>
  <speed>0.94</speed>
  <fix>3d</fix>
</trkpt>
<trkpt lat="33.8097797" lon="-118.3943833">
  <ele>-34.974</ele>
  <time>2026-09-02T22:08:09Z</time>
  <course>275.04</course>
  <speed>0.9100549433962765</speed>
  <fix>3d</fix>
</trkpt>
<trkpt lat="33.8097796" lon="-118.3943813">
  <ele>-34.12</ele>
  <time>2026-09-02T22:08:09Z</time>
  <course>269.98</course>
  <speed>0.94</speed>
  <fix>3d</fix>
</trkpt>
<trkpt lat="33.8097797" lon="-118.3943843">
  <ele>-34.98</ele>
  <time>2026-09-02T22:08:09Z</time>
  <course>274.99</course>
  <speed>0.9100549433962765</speed>
  <fix>3d</fix>
</trkpt>
<trkpt lat="33.8097796" lon="-118.3943834">
  <ele>-34.13</ele>
  <time>2026-09-02T22:08:09Z</time>
  <course>270.0</course>
  <speed>0.94</speed>
  <fix>3d</fix>
</trkpt>
<trkpt lat="33.8097797" lon="-118.3943854">
  <ele>-34.983</ele>
  <time>2026-09-02T22:08:09Z</time>
  <course>274.95</course>
  <speed>0.9100549433962765</speed>
  <fix>3d</fix>
</trkpt>
<trkpt lat="33.8097796" lon="-118.3943834">
  <ele>-34.13</ele>
  <time>2026-09-02T22:08:09Z</time>
  <course>270.0</course>
  <speed>0.94</speed>
  <fix>3d</fix>
</trkpt>
<trkpt lat="33.8097797" lon="-118.3943864">
  <ele>-34.984</ele>
  <time>2026-09-02T22:08:09Z</time>
  <course>274.9</course>
  <speed>0.9200543462209175</speed>
  <fix>3d</fix>
</trkpt>
<trkpt lat="33.8097796" lon="-118.3943854">
  <ele>-34.14</ele>
  <time>2026-09-02T22:08:09Z</time>
  <course>270.02</course>
  <speed>0.94</speed>
  <fix>3d</fix>
</trkpt>
<trkpt lat="33.8097797" lon="-118.3943874">
  <ele>-34.987</ele>
  <time>2026-09-02T22:08:09Z</time>
  <course>274.86</course>
  <speed>0.9200543462209175</speed>
  <fix>3d</fix>
</trkpt>
<trkpt lat="33.8097796" lon="-118.3943854">
  <ele>-34.14</ele>
  <time>2026-09-02T22:08:09Z</time>
  <course>270.02</course>
  <speed>0.94</speed>
  <fix>3d</fix>
</trkpt>
<trkpt lat="33.8097797" lon="-118.3943884">
  <ele>-34.992</ele>
  <time>2026-09-02T22:08:09Z</time>
  <course>274.81</course>
  <speed>0.9200543462209175</speed>
  <fix>3d</fix>
</trkpt>
<trkpt lat="33.8097796" lon="-118.3943875">
  <ele>-34.15</ele>
  <time>2026-09-02T22:08:09Z</time>
  <course>270.05</course>
  <speed>0.95</speed>
  <fix>3d</fix>
</trkpt>
<trkpt lat="33.8097797" lon="-118.3943895">
  <ele>-34.997</ele>
  <time>2026-09-02T22:08:09Z</time>
  <course>274.76</course>
  <speed>0.9200543462209175</speed>
  <fix>3d</fix>
</trkpt>
<trkpt lat="33.8097796" lon="-118.3943875">
  <ele>-34.15</ele>
  <time>2026-09-02T22:08:09Z</time>
  <course>270.05</course>
  <speed>0.95</speed>
  <fix>3d</fix>
</trkpt>
<trkpt lat="33.8097797" lon="-118.3943905">
  <ele>-35.002</ele>
  <time>2026-09-02T22:08:09Z</time>
  <course>274.72</course>
  <speed>0.9200543462209175</speed>
  <fix>3d</fix>
</trkpt>
<trkpt lat="33.8097796" lon="-118.3943895">
  <ele>-34.16</ele>
  <time>2026-09-02T22:08:09Z</time>
  <course>270.08</course>
  <speed>0.95</speed>
  <fix>3d</fix>
</trkpt>
<trkpt lat="33.8097797" lon="-118.3943915">
  <ele>-35.006</ele>
  <time>2026-09-02T22:08:09Z</time>
  <course>274.67</course>
  <speed>0.9200543462209175</speed>
  <fix>3d</fix>
</trkpt>
<trkpt lat="33.8097796" lon="-118.3943895">
  <ele>-34.16</ele>
  <time>2026-09-02T22:08:09Z</time>
  <course>270.08</course>
  <speed>0.95</speed>
  <fix>3d</fix>
</trkpt>
<trkpt lat="33.8097797" lon="-118.3943926">
  <ele>-35.008</ele>
  <time>2026-09-02T22:08:09Z</time>
  <course>274.63</course>
  <speed>0.9200543462209175</speed>
  <fix>3d</fix>
</trkpt>
<trkpt lat="33.8097796" lon="-118.3943916">
  <ele>-34.16</ele>
  <time>2026-09-02T22:08:09Z</time>
  <course>270.09</course>
  <speed>0.95</speed>
  <fix>3d</fix>
</trkpt>
<trkpt lat="33.8097797" lon="-118.3943936">
  <ele>-35.011</ele>
  <time>2026-09-02T22:08:09Z</time>
  <course>274.58</course>
  <speed>0.9200543462209175</speed>
  <fix>3d</fix>
</trkpt>
<trkpt lat="33.8097796" lon="-118.3943916">
  <ele>-34.16</ele>
  <time>2026-09-02T22:08:09Z</time>
  <course>270.09</course>
  <speed>0.95</speed>
  <fix>3d</fix>
</trkpt>
<trkpt lat="33.8097797" lon="-118.3943946">
  <ele>-35.017</ele>
  <time>2026-09-02T22:08:09Z</time>
  <course>274.54</course>
  <speed>0.9200543462209175</speed>
  <fix>3d</fix>
</trkpt>
<trkpt lat="33.8097796" lon="-118.3943936">
  <ele>-34.17</ele>
  <time>2026-09-02T22:08:09Z</time>
  <course>270.12</course>
  <speed>0.95</speed>
  <fix>3d</fix>
</trkpt>
<trkpt lat="33.8097797" lon="-118.3943957">
  <ele>-35.022</ele>
  <time>2026-09-02T22:08:09Z</time>
  <course>274.49</course>
  <speed>0.9202173656261873</speed>
  <fix>3d</fix>
</trkpt>
<trkpt lat="33.8097796" lon="-118.3943936">
  <ele>-34.17</ele>
  <time>2026-09-02T22:08:09Z</time>
  <course>270.12</course>
  <speed>0.95</speed>
  <fix>3d</fix>
</trkpt>
<trkpt lat="33.8097797" lon="-118.3943967">
  <ele>-35.026</ele>
  <time>2026-09-02T22:08:09Z</time>
  <course>274.45</course>
  <speed>0.9202173656261873</speed>
  <fix>3d</fix>
</trkpt>
<trkpt lat="33.8097796" lon="-118.3943957">
  <ele>-34.17</ele>
  <time>2026-09-02T22:08:09Z</time>
  <course>270.15</course>
  <speed>0.95</speed>
  <fix>3d</fix>
</trkpt>
<trkpt lat="33.8097797" lon="-118.3943977">
  <ele>-35.029</ele>
  <time>2026-09-02T22:08:09Z</time>
  <course>274.41</course>
  <speed>0.9202173656261873</speed>
  <fix>3d</fix>
</trkpt>
<trkpt lat="33.8097796" lon="-118.3943957">
  <ele>-34.17</ele>
  <time>2026-09-02T22:08:09Z</time>
  <course>270.15</course>
  <speed>0.95</speed>
  <fix>3d</fix>
</trkpt>
<trkpt lat="33.8097797" lon="-118.3943988">
  <ele>-35.028</ele>
  <time>2026-09-02T22:08:09Z</time>
  <course>274.37</course>
  <speed>0.9202173656261873</speed>
  <fix>3d</fix>
</trkpt>
<trkpt lat="33.8097796" lon="-118.3943978">
  <ele>-34.18</ele>
  <time>2026-09-02T22:08:09Z</time>
  <course>270.17</course>
  <speed>0.95</speed>
  <fix>3d</fix>
</trkpt>
<trkpt lat="33.8097797" lon="-118.3943998">
  <ele>-35.023</ele>
  <time>2026-09-02T22:08:09Z</time>
  <course>274.32</course>
  <speed>0.9202173656261873</speed>
  <fix>3d</fix>
</trkpt>
<trkpt lat="33.8097796" lon="-118.3943978">
  <ele>-34.18</ele>
  <time>2026-09-02T22:08:09Z</time>
  <course>270.17</course>
  <speed>0.95</speed>
  <fix>3d</fix>
</trkpt>
<trkpt lat="33.8097797" lon="-118.3944008">
  <ele>-35.015</ele>
  <time>2026-09-02T22:08:09Z</time>
  <course>274.29</course>
  <speed>0.9302150289046076</speed>
  <fix>3d</fix>
</trkpt>
<trkpt lat="33.8097796" lon="-118.3943998">
  <ele>-34.18</ele>
  <time>2026-09-02T22:08:09Z</time>
  <course>270.18</course>
  <speed>0.95</speed>
  <fix>3d</fix>
</trkpt>
<trkpt lat="33.8097797" lon="-118.3944019">
  <ele>-35.008</ele>
  <time>2026-09-02T22:08:09Z</time>
  <course>274.24</course>
  <speed>0.9302150289046076</speed>
  <fix>3d</fix>
</trkpt>
<trkpt lat="33.8097796" lon="-118.3943998">
  <ele>-34.18</ele>
  <time>2026-09-02T22:08:09Z</time>
  <course>270.18</course>
  <speed>0.95</speed>
  <fix>3d</fix>
</trkpt>
<trkpt lat="33.8097797" lon="-118.3944029">
  <ele>-35.0</ele>
  <time>2026-09-02T22:08:09Z</time>
  <course>274.2</course>
  <speed>0.9302150289046076</speed>
  <fix>3d</fix>
</trkpt>
<trkpt lat="33.8097796" lon="-118.3944019">
  <ele>-34.17</ele>
  <time>2026-09-02T22:08:09Z</time>
  <course>270.21</course>
  <speed>0.95</speed>
  <fix>3d</fix>
</trkpt>
<trkpt lat="33.8097797" lon="-118.394404">
  <ele>-34.991</ele>
  <time>2026-09-02T22:08:09Z</time>
  <course>274.16</course>
  <speed>0.9302150289046076</speed>
  <fix>3d</fix>
</trkpt>
<trkpt lat="33.8097796" lon="-118.3944019">
  <ele>-34.17</ele>
  <time>2026-09-02T22:08:09Z</time>
  <course>270.21</course>
  <speed>0.95</speed>
  <fix>3d</fix>
</trkpt>
<trkpt lat="33.8097797" lon="-118.394405">
  <ele>-34.982</ele>
  <time>2026-09-02T22:08:09Z</time>
  <course>274.12</course>
  <speed>0.9302150289046076</speed>
  <fix>3d</fix>
</trkpt>
<trkpt lat="33.8097796" lon="-118.394404">
  <ele>-34.15</ele>
  <time>2026-09-02T22:08:09Z</time>
  <course>270.25</course>
  <speed>0.96</speed>
  <fix>3d</fix>
</trkpt>
<trkpt lat="33.8097797" lon="-118.394406">
  <ele>-34.973</ele>
  <time>2026-09-02T22:08:09Z</time>
  <course>274.08</course>
  <speed>0.9302150289046076</speed>
  <fix>3d</fix>
</trkpt>
<trkpt lat="33.8097796" lon="-118.394404">
  <ele>-34.15</ele>
  <time>2026-09-02T22:08:09Z</time>
  <course>270.25</course>
  <speed>0.96</speed>
  <fix>3d</fix>
</trkpt>
<trkpt lat="33.8097797" lon="-118.3944071">
  <ele>-34.968</ele>
  <time>2026-09-02T22:08:09Z</time>
  <course>274.05</course>
  <speed>0.9302150289046076</speed>
  <fix>3d</fix>
</trkpt>
<trkpt lat="33.8097796" lon="-118.3944061">
  <ele>-34.14</ele>
  <time>2026-09-02T22:08:09Z</time>
  <course>270.28</course>
  <speed>0.96</speed>
  <fix>3d</fix>
</trkpt>
<trkpt lat="33.8097797" lon="-118.3944081">
  <ele>-34.969</ele>
  <time>2026-09-02T22:08:09Z</time>
  <course>274.02</course>
  <speed>0.9302150289046076</speed>
  <fix>3d</fix>
</trkpt>
<trkpt lat="33.8097796" lon="-118.3944061">
  <ele>-34.14</ele>
  <time>2026-09-02T22:08:09Z</time>
  <course>270.28</course>
  <speed>0.96</speed>
  <fix>3d</fix>
</trkpt>
<trkpt lat="33.8097797" lon="-118.3944092">
  <ele>-34.972</ele>
  <time>2026-09-02T22:08:09Z</time>
  <course>273.98</course>
  <speed>0.9302150289046076</speed>
  <fix>3d</fix>
</trkpt>
<trkpt lat="33.8097796" lon="-118.3944081">
  <ele>-34.13</ele>
  <time>2026-09-02T22:08:09Z</time>
  <course>270.32</course>
  <speed>0.96</speed>
  <fix>3d</fix>
</trkpt>
<trkpt lat="33.8097797" lon="-118.3944102">
  <ele>-34.973</ele>
  <time>2026-09-02T22:08:09Z</time>
  <course>273.94</course>
  <speed>0.9302150289046076</speed>
  <fix>3d</fix>
</trkpt>
<trkpt lat="33.8097796" lon="-118.3944081">
  <ele>-34.13</ele>
  <time>2026-09-02T22:08:09Z</time>
  <course>270.32</course>
  <speed>0.96</speed>
  <fix>3d</fix>
</trkpt>
<trkpt lat="33.8097797" lon="-118.3944113">
  <ele>-34.973</ele>
  <time>2026-09-02T22:08:09Z</time>
  <course>273.91</course>
  <speed>0.9302150289046076</speed>
  <fix>3d</fix>
</trkpt>
<trkpt lat="33.8097796" lon="-118.3944102">
  <ele>-34.13</ele>
  <time>2026-09-02T22:08:09Z</time>
  <course>270.35</course>
  <speed>0.96</speed>
  <fix>3d</fix>
</trkpt>
<trkpt lat="33.8097797" lon="-118.3944123">
  <ele>-34.976</ele>
  <time>2026-09-02T22:08:09Z</time>
  <course>273.87</course>
  <speed>0.9302150289046076</speed>
  <fix>3d</fix>
</trkpt>
<trkpt lat="33.8097796" lon="-118.3944102">
  <ele>-34.13</ele>
  <time>2026-09-02T22:08:09Z</time>
  <course>270.35</course>
  <speed>0.96</speed>
  <fix>3d</fix>
</trkpt>
<trkpt lat="33.8097797" lon="-118.3944133">
  <ele>-34.98</ele>
  <time>2026-09-02T22:08:09Z</time>
  <course>273.84</course>
  <speed>0.9302150289046076</speed>
  <fix>3d</fix>
</trkpt>
<trkpt lat="33.8097796" lon="-118.3944123">
  <ele>-34.14</ele>
  <time>2026-09-02T22:08:09Z</time>
  <course>270.38</course>
  <speed>0.96</speed>
  <fix>3d</fix>
</trkpt>
<trkpt lat="33.8097797" lon="-118.3944144">
  <ele>-34.986</ele>
  <time>2026-09-02T22:08:09Z</time>
  <course>273.79</course>
  <speed>0.9302150289046076</speed>
  <fix>3d</fix>
</trkpt>
<trkpt lat="33.8097796" lon="-118.3944123">
  <ele>-34.14</ele>
  <time>2026-09-02T22:08:09Z</time>
  <course>270.38</course>
  <speed>0.96</speed>
  <fix>3d</fix>
</trkpt>
<trkpt lat="33.8097797" lon="-118.3944154">
  <ele>-34.994</ele>
  <time>2026-09-02T22:08:09Z</time>
  <course>273.75</course>
  <speed>0.9302150289046076</speed>
  <fix>3d</fix>
</trkpt>
<trkpt lat="33.8097796" lon="-118.3944144">
  <ele>-34.14</ele>
  <time>2026-09-02T22:08:09Z</time>
  <course>270.41</course>
  <speed>0.96</speed>
  <fix>3d</fix>
</trkpt>
<trkpt lat="33.8097797" lon="-118.3944165">
  <ele>-35.003</ele>
  <time>2026-09-02T22:08:09Z</time>
  <course>273.71</course>
  <speed>0.9302150289046076</speed>
  <fix>3d</fix>
</trkpt>
<trkpt lat="33.8097796" lon="-118.3944144">
  <ele>-34.14</ele>
  <time>2026-09-02T22:08:09Z</time>
  <course>270.41</course>
  <speed>0.96</speed>
  <fix>3d</fix>
</trkpt>
<trkpt lat="33.8097797" lon="-118.3944175">
  <ele>-35.014</ele>
  <time>2026-09-02T22:08:09Z</time>
  <course>273.68</course>
  <speed>0.9302150289046076</speed>
  <fix>3d</fix>
</trkpt>
<trkpt lat="33.8097796" lon="-118.3944165">
  <ele>-34.16</ele>
  <time>2026-09-02T22:08:09Z</time>
  <course>270.46</course>
  <speed>0.96</speed>
  <fix>3d</fix>
</trkpt>
<trkpt lat="33.8097797" lon="-118.3944186">
  <ele>-35.025</ele>
  <time>2026-09-02T22:08:09Z</time>
  <course>273.65</course>
  <speed>0.9302150289046076</speed>
  <fix>3d</fix>
</trkpt>
<trkpt lat="33.8097796" lon="-118.3944165">
  <ele>-34.16</ele>
  <time>2026-09-02T22:08:09Z</time>
  <course>270.46</course>
  <speed>0.96</speed>
  <fix>3d</fix>
</trkpt>
<trkpt lat="33.8097798" lon="-118.3944196">
  <ele>-35.038</ele>
  <time>2026-09-02T22:08:09Z</time>
  <course>273.61</course>
  <speed>0.9402127418834527</speed>
  <fix>3d</fix>
</trkpt>
<trkpt lat="33.8097797" lon="-118.3944185">
  <ele>-34.18</ele>
  <time>2026-09-02T22:08:09Z</time>
  <course>270.5</course>
  <speed>0.96</speed>
  <fix>3d</fix>
</trkpt>
<trkpt lat="33.8097798" lon="-118.3944207">
  <ele>-35.051</ele>
  <time>2026-09-02T22:08:09Z</time>
  <course>273.57</course>
  <speed>0.9402127418834527</speed>
  <fix>3d</fix>
</trkpt>
<trkpt lat="33.8097797" lon="-118.3944185">
  <ele>-34.18</ele>
  <time>2026-09-02T22:08:09Z</time>
  <course>270.5</course>
  <speed>0.96</speed>
  <fix>3d</fix>
</trkpt>
<trkpt lat="33.8097798" lon="-118.3944217">
  <ele>-35.062</ele>
  <time>2026-09-02T22:08:09Z</time>
  <course>273.5</course>
  <speed>0.9302150289046076</speed>
  <fix>3d</fix>
</trkpt>
<trkpt lat="33.8097797" lon="-118.3944206">
  <ele>-34.2</ele>
  <time>2026-09-02T22:08:09Z</time>
  <course>270.48</course>
  <speed>0.96</speed>
  <fix>3d</fix>
</trkpt>
<trkpt lat="33.8097798" lon="-118.3944227">
  <ele>-35.068</ele>
  <time>2026-09-02T22:08:09Z</time>
  <course>273.42</course>
  <speed>0.9202173656261873</speed>
  <fix>3d</fix>
</trkpt>
<trkpt lat="33.8097797" lon="-118.3944206">
  <ele>-34.2</ele>
  <time>2026-09-02T22:08:09Z</time>
  <course>270.48</course>
  <speed>0.96</speed>
  <fix>3d</fix>
</trkpt>
<trkpt lat="33.8097798" lon="-118.3944238">
  <ele>-35.073</ele>
  <time>2026-09-02T22:08:09Z</time>
  <course>273.34</course>
  <speed>0.9000555538409837</speed>
  <fix>3d</fix>
</trkpt>
<trkpt lat="33.8097797" lon="-118.3944227">
  <ele>-34.22</ele>
  <time>2026-09-02T22:08:09Z</time>
  <course>270.41</course>
  <speed>0.95</speed>
  <fix>3d</fix>
</trkpt>
<trkpt lat="33.8097798" lon="-118.3944247">
  <ele>-35.077</ele>
  <time>2026-09-02T22:08:09Z</time>
  <course>273.28</course>
  <speed>0.8702298546935746</speed>
  <fix>3d</fix>
</trkpt>
<trkpt lat="33.8097797" lon="-118.3944227">
  <ele>-34.22</ele>
  <time>2026-09-02T22:08:09Z</time>
  <course>270.41</course>
  <speed>0.95</speed>
  <fix>3d</fix>
</trkpt>
<trkpt lat="33.8097798" lon="-118.3944257">
  <ele>-35.081</ele>
  <time>2026-09-02T22:08:09Z</time>
  <course>273.24</course>
  <speed>0.8300602387778854</speed>
  <fix>3d</fix>
</trkpt>
<trkpt lat="33.8097797" lon="-118.3944248">
  <ele>-34.23</ele>
  <time>2026-09-02T22:08:09Z</time>
  <course>270.4</course>
  <speed>0.91</speed>
  <fix>3d</fix>
</trkpt>
<trkpt lat="33.8097798" lon="-118.3944266">
  <ele>-35.084</ele>
  <time>2026-09-02T22:08:09Z</time>
  <course>273.22</course>
  <speed>0.7902531240052139</speed>
  <fix>3d</fix>
</trkpt>
<trkpt lat="33.8097797" lon="-118.3944248">
  <ele>-34.23</ele>
  <time>2026-09-02T22:08:09Z</time>
  <course>270.4</course>
  <speed>0.91</speed>
  <fix>3d</fix>
</trkpt>
<trkpt lat="33.8097798" lon="-118.3944275">
  <ele>-35.083</ele>
  <time>2026-09-02T22:08:09Z</time>
  <course>273.25</course>
  <speed>0.7400675644831355</speed>
  <fix>3d</fix>
</trkpt>
<trkpt lat="33.8097797" lon="-118.3944267">
  <ele>-34.24</ele>
  <time>2026-09-02T22:08:09Z</time>
  <course>270.48</course>
  <speed>0.84</speed>
  <fix>3d</fix>
</trkpt>
<trkpt lat="33.8097798" lon="-118.3944283">
  <ele>-35.075</ele>
  <time>2026-09-02T22:08:09Z</time>
  <course>273.31</course>
  <speed>0.6902897942168927</speed>
  <fix>3d</fix>
</trkpt>
<trkpt lat="33.8097797" lon="-118.3944267">
  <ele>-34.24</ele>
  <time>2026-09-02T22:08:09Z</time>
  <course>270.48</course>
  <speed>0.84</speed>
  <fix>3d</fix>
</trkpt>
<trkpt lat="33.8097798" lon="-118.394429">
  <ele>-35.065</ele>
  <time>2026-09-02T22:08:09Z</time>
  <course>273.43</course>
  <speed>0.6200806399170998</speed>
  <fix>3d</fix>
</trkpt>
<trkpt lat="33.8097797" lon="-118.3944284">
  <ele>-34.23</ele>
  <time>2026-09-02T22:08:09Z</time>
  <course>270.63</course>
  <speed>0.75</speed>
  <fix>3d</fix>
</trkpt>
<trkpt lat="33.8097798" lon="-118.3944297">
  <ele>-35.055</ele>
  <time>2026-09-02T22:08:09Z</time>
  <course>273.61</course>
  <speed>0.5503635162326805</speed>
  <fix>3d</fix>
</trkpt>
<trkpt lat="33.8097797" lon="-118.3944284">
  <ele>-34.23</ele>
  <time>2026-09-02T22:08:09Z</time>
  <course>270.63</course>
  <speed>0.75</speed>
  <fix>3d</fix>
</trkpt>
<trkpt lat="33.8097798" lon="-118.3944303">
  <ele>-35.044</ele>
  <time>2026-09-02T22:08:09Z</time>
  <course>273.88</course>
  <speed>0.4901020301937138</speed>
  <fix>3d</fix>
</trkpt>
<trkpt lat="33.8097797" lon="-118.3944299">
  <ele>-34.22</ele>
  <time>2026-09-02T22:08:09Z</time>
  <course>270.9</course>
  <speed>0.63</speed>
  <fix>3d</fix>
</trkpt>
<trkpt lat="33.8097798" lon="-118.3944309">
  <ele>-35.032</ele>
  <time>2026-09-02T22:08:10Z</time>
  <course>274.28</course>
  <speed>0.4204759208325728</speed>
  <fix>3d</fix>
</trkpt>
<trkpt lat="33.8097797" lon="-118.3944299">
  <ele>-34.22</ele>
  <time>2026-09-02T22:08:10Z</time>
  <course>270.9</course>
  <speed>0.63</speed>
  <fix>3d</fix>
</trkpt>
<trkpt lat="33.8097798" lon="-118.3944313">
  <ele>-35.02</ele>
  <time>2026-09-02T22:08:10Z</time>
  <course>274.86</course>
  <speed>0.37013511046643494</speed>
  <fix>3d</fix>
</trkpt>
<trkpt lat="33.8097798" lon="-118.3944311">
  <ele>-34.19</ele>
  <time>2026-09-02T22:08:10Z</time>
  <course>271.31</course>
  <speed>0.49</speed>
  <fix>3d</fix>
</trkpt>
<trkpt lat="33.8097798" lon="-118.3944317">
  <ele>-35.009</ele>
  <time>2026-09-02T22:08:10Z</time>
  <course>275.68</course>
  <speed>0.32015621187164245</speed>
  <fix>3d</fix>
</trkpt>
<trkpt lat="33.8097798" lon="-118.3944311">
  <ele>-34.19</ele>
  <time>2026-09-02T22:08:10Z</time>
  <course>271.31</course>
  <speed>0.49</speed>
  <fix>3d</fix>
</trkpt>
<trkpt lat="33.8097798" lon="-118.3944321">
  <ele>-34.999</ele>
  <time>2026-09-02T22:08:10Z</time>
  <course>276.78</course>
  <speed>0.280178514522438</speed>
  <fix>3d</fix>
</trkpt>
<trkpt lat="33.8097798" lon="-118.3944321">
  <ele>-34.17</ele>
  <time>2026-09-02T22:08:10Z</time>
  <course>271.7</course>
  <speed>0.38</speed>
  <fix>3d</fix>
</trkpt>
<trkpt lat="33.8097798" lon="-118.3944324">
  <ele>-34.993</ele>
  <time>2026-09-02T22:08:10Z</time>
  <course>278.33</course>
  <speed>0.24020824298928628</speed>
  <fix>3d</fix>
</trkpt>
<trkpt lat="33.8097798" lon="-118.3944321">
  <ele>-34.17</ele>
  <time>2026-09-02T22:08:10Z</time>
  <course>271.7</course>
  <speed>0.38</speed>
  <fix>3d</fix>
</trkpt>
<trkpt lat="33.8097798" lon="-118.3944327">
  <ele>-34.989</ele>
  <time>2026-09-02T22:08:10Z</time>
  <course>279.26</course>
  <speed>0.2002498439450079</speed>
  <fix>3d</fix>
</trkpt>
<trkpt lat="33.8097798" lon="-118.3944328">
  <ele>-34.15</ele>
  <time>2026-09-02T22:08:10Z</time>
  <course>272.1</course>
  <speed>0.29</speed>
  <fix>3d</fix>
</trkpt>
<trkpt lat="33.8097799" lon="-118.394433">
  <ele>-34.986</ele>
  <time>2026-09-02T22:08:10Z</time>
  <course>278.87</course>
  <speed>0.16031219541881397</speed>
  <fix>3d</fix>
</trkpt>
<trkpt lat="33.8097798" lon="-118.3944328">
  <ele>-34.15</ele>
  <time>2026-09-02T22:08:10Z</time>
  <course>272.1</course>
  <speed>0.29</speed>
  <fix>3d</fix>
</trkpt>
<trkpt lat="33.8097799" lon="-118.3944332">
  <ele>-34.984</ele>
  <time>2026-09-02T22:08:10Z</time>
  <course>278.47</course>
  <speed>0.130384048104053</speed>
  <fix>3d</fix>
</trkpt>
<trkpt lat="33.8097798" lon="-118.3944334">
  <ele>-34.14</ele>
  <time>2026-09-02T22:08:10Z</time>
  <course>273.05</course>
  <speed>0.21</speed>
  <fix>3d</fix>
</trkpt>
<trkpt lat="33.8097799" lon="-118.3944333">
  <ele>-34.982</ele>
  <time>2026-09-02T22:08:10Z</time>
  <course>279.81</course>
  <speed>0.09055385138137417</speed>
  <fix>3d</fix>
</trkpt>
<trkpt lat="33.8097798" lon="-118.3944334">
  <ele>-34.14</ele>
  <time>2026-09-02T22:08:10Z</time>
  <course>273.05</course>
  <speed>0.21</speed>
  <fix>3d</fix>
</trkpt>
<trkpt lat="33.8097799" lon="-118.3944335">
  <ele>-34.979</ele>
  <time>2026-09-02T22:08:10Z</time>
  <course>282.51</course>
  <speed>0.06082762530298219</speed>
  <fix>3d</fix>
</trkpt>
<trkpt lat="33.8097798" lon="-118.3944337">
  <ele>-34.14</ele>
  <time>2026-09-02T22:08:10Z</time>
  <course>275.1</course>
  <speed>0.14</speed>
  <fix>3d</fix>
</trkpt>
<trkpt lat="33.8097799" lon="-118.3944336">
  <ele>-34.978</ele>
  <time>2026-09-02T22:08:10Z</time>
  <course>285.78</course>
  <speed>0.0412310562561766</speed>
  <fix>3d</fix>
</trkpt>
<trkpt lat="33.8097798" lon="-118.3944337">
  <ele>-34.14</ele>
  <time>2026-09-02T22:08:10Z</time>
  <course>275.1</course>
  <speed>0.14</speed>
  <fix>3d</fix>
</trkpt>
<trkpt lat="33.8097799" lon="-118.3944336">
  <ele>-34.979</ele>
  <time>2026-09-02T22:08:10Z</time>
  <course>289.23</course>
  <speed>0.022360679774997897</speed>
  <fix>3d</fix>
</trkpt>
<trkpt lat="33.8097798" lon="-118.394434">
  <ele>-34.14</ele>
  <time>2026-09-02T22:08:10Z</time>
  <course>278.88</course>
  <speed>0.07</speed>
  <fix>3d</fix>
</trkpt>
<trkpt lat="33.8097799" lon="-118.3944337">
  <ele>-34.981</ele>
  <time>2026-09-02T22:08:10Z</time>
  <course>291.58</course>
  <speed>0.01414213562373095</speed>
  <fix>3d</fix>
</trkpt>
<trkpt lat="33.8097798" lon="-118.394434">
  <ele>-34.14</ele>
  <time>2026-09-02T22:08:10Z</time>
  <course>278.88</course>
  <speed>0.07</speed>
  <fix>3d</fix>
</trkpt>
<trkpt lat="33.8097799" lon="-118.3944338">
  <ele>-34.983</ele>
  <time>2026-09-02T22:08:10Z</time>
  <course>292.71</course>
  <speed>0.01</speed>
  <fix>3d</fix>
</trkpt>
<trkpt lat="33.8097798" lon="-118.3944341">
  <ele>-34.15</ele>
  <time>2026-09-02T22:08:10Z</time>
  <course>281.71</course>
  <speed>0.04</speed>
  <fix>3d</fix>
</trkpt>
<trkpt lat="33.8097799" lon="-118.3944338">
  <ele>-34.986</ele>
  <time>2026-09-02T22:08:10Z</time>
  <course>292.34</course>
  <speed>0.01</speed>
  <fix>3d</fix>
</trkpt>
<trkpt lat="33.8097798" lon="-118.3944341">
  <ele>-34.15</ele>
  <time>2026-09-02T22:08:10Z</time>
  <course>281.71</course>
  <speed>0.04</speed>
  <fix>3d</fix>
</trkpt>
<trkpt lat="33.8097799" lon="-118.3944338">
  <ele>-34.989</ele>
  <time>2026-09-02T22:08:10Z</time>
  <course>290.18</course>
  <speed>0.053851648071345036</speed>
  <fix>3d</fix>
</trkpt>
<trkpt lat="33.8097798" lon="-118.3944342">
  <ele>-34.15</ele>
  <time>2026-09-02T22:08:10Z</time>
  <course>223.96</course>
  <speed>0.02</speed>
  <fix>3d</fix>
</trkpt>
<trkpt lat="33.8097799" lon="-118.3944338">
  <ele>-34.99</ele>
  <time>2026-09-02T22:08:10Z</time>
  <course>287.2</course>
  <speed>0.09486832980505139</speed>
  <fix>3d</fix>
</trkpt>
<trkpt lat="33.8097798" lon="-118.3944342">
  <ele>-34.15</ele>
  <time>2026-09-02T22:08:10Z</time>
  <course>223.96</course>
  <speed>0.02</speed>
  <fix>3d</fix>
</trkpt>
<trkpt lat="33.8097797" lon="-118.3944338">
  <ele>-34.991</ele>
  <time>2026-09-02T22:08:10Z</time>
  <course>283.83</course>
  <speed>0.14317821063276354</speed>
  <fix>3d</fix>
</trkpt>
<trkpt lat="33.8097798" lon="-118.3944342">
  <ele>-34.15</ele>
  <time>2026-09-02T22:08:10Z</time>
  <course>171.61</course>
  <speed>0.08</speed>
  <fix>3d</fix>
</trkpt>
<trkpt lat="33.8097796" lon="-118.3944338">
  <ele>-34.99</ele>
  <time>2026-09-02T22:08:10Z</time>
  <course>280.16</course>
  <speed>0.2039607805437114</speed>
  <fix>3d</fix>
</trkpt>
<trkpt lat="33.8097798" lon="-118.3944342">
  <ele>-34.15</ele>
  <time>2026-09-02T22:08:10Z</time>
  <course>171.61</course>
  <speed>0.08</speed>
  <fix>3d</fix>
</trkpt>
<trkpt lat="33.8097794" lon="-118.3944338">
  <ele>-34.988</ele>
  <time>2026-09-02T22:08:10Z</time>
  <course>276.23</course>
  <speed>0.26305892875931813</speed>
  <fix>3d</fix>
</trkpt>
<trkpt lat="33.8097796" lon="-118.3944342">
  <ele>-34.15</ele>
  <time>2026-09-02T22:08:10Z</time>
  <course>170.2</course>
  <speed>0.18</speed>
  <fix>3d</fix>
</trkpt>
<trkpt lat="33.8097791" lon="-118.3944338">
  <ele>-34.986</ele>
  <time>2026-09-02T22:08:10Z</time>
  <course>272.04</course>
  <speed>0.32249030993194194</speed>
  <fix>3d</fix>
</trkpt>
<trkpt lat="33.8097796" lon="-118.3944342">
  <ele>-34.15</ele>
  <time>2026-09-02T22:08:10Z</time>
  <course>170.2</course>
  <speed>0.18</speed>
  <fix>3d</fix>
</trkpt>
<trkpt lat="33.8097788" lon="-118.3944338">
  <ele>-34.984</ele>
  <time>2026-09-02T22:08:10Z</time>
  <course>267.57</course>
  <speed>0.3920459156782532</speed>
  <fix>3d</fix>
</trkpt>
<trkpt lat="33.8097792" lon="-118.3944341">
  <ele>-34.15</ele>
  <time>2026-09-02T22:08:10Z</time>
  <course>172.39</course>
  <speed>0.3</speed>
  <fix>3d</fix>
</trkpt>
<trkpt lat="33.8097784" lon="-118.3944338">
  <ele>-34.984</ele>
  <time>2026-09-02T22:08:10Z</time>
  <course>262.81</course>
  <speed>0.4617358552246078</speed>
  <fix>3d</fix>
</trkpt>
<trkpt lat="33.8097792" lon="-118.3944341">
  <ele>-34.15</ele>
  <time>2026-09-02T22:08:10Z</time>
  <course>172.39</course>
  <speed>0.3</speed>
  <fix>3d</fix>
</trkpt>
<trkpt lat="33.809778" lon="-118.3944338">
  <ele>-34.983</ele>
  <time>2026-09-02T22:08:10Z</time>
  <course>257.77</course>
  <speed>0.5208646657242167</speed>
  <fix>3d</fix>
</trkpt>
<trkpt lat="33.8097786" lon="-118.3944341">
  <ele>-34.15</ele>
  <time>2026-09-02T22:08:10Z</time>
  <course>174.89</course>
  <speed>0.43</speed>
  <fix>3d</fix>
</trkpt>
<trkpt lat="33.8097775" lon="-118.3944338">
  <ele>-34.98</ele>
  <time>2026-09-02T22:08:10Z</time>
  <course>252.41</course>
  <speed>0.5803447251418763</speed>
  <fix>3d</fix>
</trkpt>
<trkpt lat="33.8097786" lon="-118.3944341">
  <ele>-34.15</ele>
  <time>2026-09-02T22:08:10Z</time>
  <course>174.89</course>
  <speed>0.43</speed>
  <fix>3d</fix>
</trkpt>
<trkpt lat="33.8097769" lon="-118.3944338">
  <ele>-34.976</ele>
  <time>2026-09-02T22:08:10Z</time>
  <course>246.85</course>
  <speed>0.6300793600809346</speed>
  <fix>3d</fix>
</trkpt>
<trkpt lat="33.8097777" lon="-118.394434">
  <ele>-34.15</ele>
  <time>2026-09-02T22:08:10Z</time>
  <course>177.29</course>
  <speed>0.56</speed>
  <fix>3d</fix>
</trkpt>
<trkpt lat="33.8097763" lon="-118.3944338">
  <ele>-34.972</ele>
  <time>2026-09-02T22:08:10Z</time>
  <course>241.18</course>
  <speed>0.6900724599634447</speed>
  <fix>3d</fix>
</trkpt>
<trkpt lat="33.8097777" lon="-118.394434">
  <ele>-34.15</ele>
  <time>2026-09-02T22:08:10Z</time>
  <course>177.29</course>
  <speed>0.56</speed>
  <fix>3d</fix>
</trkpt>
<trkpt lat="33.8097757" lon="-118.3944338">
  <ele>-34.966</ele>
  <time>2026-09-02T22:08:10Z</time>
  <course>235.47</course>
  <speed>0.74</speed>
  <fix>3d</fix>
</trkpt>
<trkpt lat="33.8097766" lon="-118.394434">
  <ele>-34.14</ele>
  <time>2026-09-02T22:08:10Z</time>
  <course>178.94</course>
  <speed>0.67</speed>
  <fix>3d</fix>
</trkpt>
<trkpt lat="33.809775" lon="-118.3944338">
  <ele>-34.955</ele>
  <time>2026-09-02T22:08:10Z</time>
  <course>229.74</course>
  <speed>0.7800640999302557</speed>
  <fix>3d</fix>
</trkpt>
<trkpt lat="33.8097766" lon="-118.394434">
  <ele>-34.14</ele>
  <time>2026-09-02T22:08:10Z</time>
  <course>178.94</course>
  <speed>0.67</speed>
  <fix>3d</fix>
</trkpt>
<trkpt lat="33.8097743" lon="-118.3944338">
  <ele>-34.944</ele>
  <time>2026-09-02T22:08:10Z</time>
  <course>224.04</course>
  <speed>0.8102468759581859</speed>
  <fix>3d</fix>
</trkpt>
<trkpt lat="33.8097753" lon="-118.394434">
  <ele>-34.13</ele>
  <time>2026-09-02T22:08:10Z</time>
  <course>179.22</course>
  <speed>0.77</speed>
  <fix>3d</fix>
</trkpt>
<trkpt lat="33.8097736" lon="-118.3944338">
  <ele>-34.933</ele>
  <time>2026-09-02T22:08:10Z</time>
  <course>218.34</course>
  <speed>0.840535543567314</speed>
  <fix>3d</fix>
</trkpt>
<trkpt lat="33.8097753" lon="-118.394434">
  <ele>-34.13</ele>
  <time>2026-09-02T22:08:10Z</time>
  <course>179.22</course>
  <speed>0.77</speed>
  <fix>3d</fix>
</trkpt>
<trkpt lat="33.8097728" lon="-118.3944338">
  <ele>-34.923</ele>
  <time>2026-09-02T22:08:10Z</time>
  <course>212.6</course>
  <speed>0.8514693182963201</speed>
  <fix>3d</fix>
</trkpt>
<trkpt lat="33.8097738" lon="-118.3944339">
  <ele>-34.11</ele>
  <time>2026-09-02T22:08:10Z</time>
  <course>178.28</course>
  <speed>0.85</speed>
  <fix>3d</fix>
</trkpt>
<trkpt lat="33.8097721" lon="-118.3944337">
  <ele>-34.916</ele>
  <time>2026-09-02T22:08:10Z</time>
  <course>206.8</course>
  <speed>0.8620904824900922</speed>
  <fix>3d</fix>
</trkpt>
<trkpt lat="33.8097738" lon="-118.3944339">
  <ele>-34.11</ele>
  <time>2026-09-02T22:08:10Z</time>
  <course>178.28</course>
  <speed>0.85</speed>
  <fix>3d</fix>
</trkpt>
<trkpt lat="33.8097713" lon="-118.3944336">
  <ele>-34.914</ele>
  <time>2026-09-02T22:08:10Z</time>
  <course>200.87</course>
  <speed>0.8521150157109073</speed>
  <fix>3d</fix>
</trkpt>
<trkpt lat="33.8097723" lon="-118.3944338">
  <ele>-34.09</ele>
  <time>2026-09-02T22:08:10Z</time>
  <course>176.97</course>
  <speed>0.88</speed>
  <fix>3d</fix>
</trkpt>
<trkpt lat="33.8097705" lon="-118.3944336">
  <ele>-34.916</ele>
  <time>2026-09-02T22:08:10Z</time>
  <course>194.81</course>
  <speed>0.8528774824088159</speed>
  <fix>3d</fix>
</trkpt>
<trkpt lat="33.8097723" lon="-118.3944338">
  <ele>-34.09</ele>
  <time>2026-09-02T22:08:10Z</time>
  <course>176.97</course>
  <speed>0.88</speed>
  <fix>3d</fix>
</trkpt>
<trkpt lat="33.8097698" lon="-118.3944335">
  <ele>-34.924</ele>
  <time>2026-09-02T22:08:10Z</time>
  <course>188.86</course>
  <speed>0.8321658488546619</speed>
  <fix>3d</fix>
</trkpt>
<trkpt lat="33.8097707" lon="-118.3944337">
  <ele>-34.09</ele>
  <time>2026-09-02T22:08:10Z</time>
  <course>176.12</course>
  <speed>0.88</speed>
  <fix>3d</fix>
</trkpt>
<trkpt lat="33.809769" lon="-118.3944335">
  <ele>-34.939</ele>
  <time>2026-09-02T22:08:10Z</time>
  <course>183.44</course>
  <speed>0.8115417426109393</speed>
  <fix>3d</fix>
</trkpt>
<trkpt lat="33.8097707" lon="-118.3944337">
  <ele>-34.09</ele>
  <time>2026-09-02T22:08:10Z</time>
  <course>176.12</course>
  <speed>0.88</speed>
  <fix>3d</fix>
</trkpt>
<trkpt lat="33.8097683" lon="-118.3944334">
  <ele>-34.957</ele>
  <time>2026-09-02T22:08:10Z</time>
  <course>178.77</course>
  <speed>0.8105553651663777</speed>
  <fix>3d</fix>
</trkpt>
<trkpt lat="33.809769" lon="-118.3944336">
  <ele>-34.1</ele>
  <time>2026-09-02T22:08:10Z</time>
  <course>176.69</course>
  <speed>0.86</speed>
  <fix>3d</fix>
</trkpt>
<trkpt lat="33.8097675" lon="-118.3944334">
  <ele>-34.977</ele>
  <time>2026-09-02T22:08:10Z</time>
  <course>174.74</course>
  <speed>0.8100617260431454</speed>
  <fix>3d</fix>
</trkpt>
<trkpt lat="33.809769" lon="-118.3944336">
  <ele>-34.1</ele>
  <time>2026-09-02T22:08:10Z</time>
  <course>176.69</course>
  <speed>0.86</speed>
  <fix>3d</fix>
</trkpt>
<trkpt lat="33.8097668" lon="-118.3944334">
  <ele>-34.995</ele>
  <time>2026-09-02T22:08:10Z</time>
  <course>171.27</course>
  <speed>0.81</speed>
  <fix>3d</fix>
</trkpt>
<trkpt lat="33.8097675" lon="-118.3944335">
  <ele>-34.13</ele>
  <time>2026-09-02T22:08:10Z</time>
  <course>178.94</course>
  <speed>0.85</speed>
  <fix>3d</fix>
</trkpt>
<trkpt lat="33.809766" lon="-118.3944334">
  <ele>-35.011</ele>
  <time>2026-09-02T22:08:10Z</time>
  <course>168.37</course>
  <speed>0.8200609733428362</speed>
  <fix>3d</fix>
</trkpt>
<trkpt lat="33.8097675" lon="-118.3944335">
  <ele>-34.13</ele>
  <time>2026-09-02T22:08:10Z</time>
  <course>178.94</course>
  <speed>0.85</speed>
  <fix>3d</fix>
</trkpt>
<trkpt lat="33.8097653" lon="-118.3944335">
  <ele>-35.026</ele>
  <time>2026-09-02T22:08:10Z</time>
  <course>166.13</course>
  <speed>0.8200609733428362</speed>
  <fix>3d</fix>
</trkpt>
<trkpt lat="33.8097659" lon="-118.3944335">
  <ele>-34.16</ele>
  <time>2026-09-02T22:08:10Z</time>
  <course>181.26</course>
  <speed>0.85</speed>
  <fix>3d</fix>
</trkpt>
<trkpt lat="33.8097645" lon="-118.3944335">
  <ele>-35.039</ele>
  <time>2026-09-02T22:08:10Z</time>
  <course>164.61</course>
  <speed>0.8300602387778854</speed>
  <fix>3d</fix>
</trkpt>
<trkpt lat="33.8097659" lon="-118.3944335">
  <ele>-34.16</ele>
  <time>2026-09-02T22:08:10Z</time>
  <course>181.26</course>
  <speed>0.85</speed>
  <fix>3d</fix>
</trkpt>
<trkpt lat="33.8097637" lon="-118.3944335">
  <ele>-35.051</ele>
  <time>2026-09-02T22:08:10Z</time>
  <course>163.59</course>
  <speed>0.8300602387778854</speed>
  <fix>3d</fix>
</trkpt>
<trkpt lat="33.8097644" lon="-118.3944335">
  <ele>-34.19</ele>
  <time>2026-09-02T22:08:10Z</time>
  <course>182.37</course>
  <speed>0.86</speed>
  <fix>3d</fix>
</trkpt>
<trkpt lat="33.8097629" lon="-118.3944335">
  <ele>-35.06</ele>
  <time>2026-09-02T22:08:10Z</time>
  <course>162.91</course>
  <speed>0.8300602387778854</speed>
  <fix>3d</fix>
</trkpt>
<trkpt lat="33.8097644" lon="-118.3944335">
  <ele>-34.19</ele>
  <time>2026-09-02T22:08:10Z</time>
  <course>182.37</course>
  <speed>0.86</speed>
  <fix>3d</fix>
</trkpt>
<trkpt lat="33.8097622" lon="-118.3944335">
  <ele>-35.066</ele>
  <time>2026-09-02T22:08:10Z</time>
  <course>162.39</course>
  <speed>0.8300602387778854</speed>
  <fix>3d</fix>
</trkpt>
<trkpt lat="33.8097628" lon="-118.3944336">
  <ele>-34.21</ele>
  <time>2026-09-02T22:08:10Z</time>
  <course>182.49</course>
  <speed>0.86</speed>
  <fix>3d</fix>
</trkpt>
<trkpt lat="33.8097614" lon="-118.3944335">
  <ele>-35.068</ele>
  <time>2026-09-02T22:08:10Z</time>
  <course>161.99</course>
  <speed>0.82</speed>
  <fix>3d</fix>
</trkpt>
<trkpt lat="33.8097628" lon="-118.3944336">
  <ele>-34.21</ele>
  <time>2026-09-02T22:08:10Z</time>
  <course>182.49</course>
  <speed>0.86</speed>
  <fix>3d</fix>
</trkpt>
<trkpt lat="33.8097606" lon="-118.3944335">
  <ele>-35.069</ele>
  <time>2026-09-02T22:08:10Z</time>
  <course>161.62</course>
  <speed>0.82</speed>
  <fix>3d</fix>
</trkpt>
<trkpt lat="33.8097613" lon="-118.3944336">
  <ele>-34.22</ele>
  <time>2026-09-02T22:08:10Z</time>
  <course>182.16</course>
  <speed>0.86</speed>
  <fix>3d</fix>
</trkpt>
<trkpt lat="33.8097598" lon="-118.3944335">
  <ele>-35.071</ele>
  <time>2026-09-02T22:08:10Z</time>
  <course>161.3</course>
  <speed>0.82</speed>
  <fix>3d</fix>
</trkpt>
<trkpt lat="33.8097613" lon="-118.3944336">
  <ele>-34.22</ele>
  <time>2026-09-02T22:08:10Z</time>
  <course>182.16</course>
  <speed>0.86</speed>
  <fix>3d</fix>
</trkpt>
<trkpt lat="33.8097591" lon="-118.3944335">
  <ele>-35.073</ele>
  <time>2026-09-02T22:08:10Z</time>
  <course>161.01</course>
  <speed>0.81</speed>
  <fix>3d</fix>
</trkpt>
<trkpt lat="33.8097597" lon="-118.3944337">
  <ele>-34.22</ele>
  <time>2026-09-02T22:08:10Z</time>
  <course>181.71</course>
  <speed>0.85</speed>
  <fix>3d</fix>
</trkpt>
<trkpt lat="33.8097583" lon="-118.3944335">
  <ele>-35.073</ele>
  <time>2026-09-02T22:08:10Z</time>
  <course>160.76</course>
  <speed>0.8100617260431454</speed>
  <fix>3d</fix>
</trkpt>
<trkpt lat="33.8097597" lon="-118.3944337">
  <ele>-34.22</ele>
  <time>2026-09-02T22:08:10Z</time>
  <course>181.71</course>
  <speed>0.85</speed>
  <fix>3d</fix>
</trkpt>
<trkpt lat="33.8097576" lon="-118.3944335">
  <ele>-35.072</ele>
  <time>2026-09-02T22:08:10Z</time>
  <course>160.53</course>
  <speed>0.8100617260431454</speed>
  <fix>3d</fix>
</trkpt>
<trkpt lat="33.8097582" lon="-118.3944338">
  <ele>-34.22</ele>
  <time>2026-09-02T22:08:10Z</time>
  <course>181.28</course>
  <speed>0.84</speed>
  <fix>3d</fix>
</trkpt>
<trkpt lat="33.8097568" lon="-118.3944335">
  <ele>-35.063</ele>
  <time>2026-09-02T22:08:10Z</time>
  <course>160.33</course>
  <speed>0.8000624975587844</speed>
  <fix>3d</fix>
</trkpt>
<trkpt lat="33.8097582" lon="-118.3944338">
  <ele>-34.22</ele>
  <time>2026-09-02T22:08:10Z</time>
  <course>181.28</course>
  <speed>0.84</speed>
  <fix>3d</fix>
</trkpt>
<trkpt lat="33.809756" lon="-118.3944335">
  <ele>-35.049</ele>
  <time>2026-09-02T22:08:10Z</time>
  <course>160.14</course>
  <speed>0.8002499609497022</speed>
  <fix>3d</fix>
</trkpt>
<trkpt lat="33.8097567" lon="-118.3944338">
  <ele>-34.22</ele>
  <time>2026-09-02T22:08:10Z</time>
  <course>180.85</course>
  <speed>0.83</speed>
  <fix>3d</fix>
</trkpt>
<trkpt lat="33.8097553" lon="-118.3944335">
  <ele>-35.034</ele>
  <time>2026-09-02T22:08:10Z</time>
  <course>159.98</course>
  <speed>0.7902531240052139</speed>
  <fix>3d</fix>
</trkpt>
<trkpt lat="33.8097567" lon="-118.3944338">
  <ele>-34.22</ele>
  <time>2026-09-02T22:08:10Z</time>
  <course>180.85</course>
  <speed>0.83</speed>
  <fix>3d</fix>
</trkpt>
<trkpt lat="33.8097545" lon="-118.3944336">
  <ele>-35.016</ele>
  <time>2026-09-02T22:08:10Z</time>
  <course>159.82</course>
  <speed>0.7902531240052139</speed>
  <fix>3d</fix>
</trkpt>
<trkpt lat="33.8097552" lon="-118.3944338">
  <ele>-34.2</ele>
  <time>2026-09-02T22:08:10Z</time>
  <course>180.41</course>
  <speed>0.83</speed>
  <fix>3d</fix>
</trkpt>
<trkpt lat="33.8097538" lon="-118.3944336">
  <ele>-34.999</ele>
  <time>2026-09-02T22:08:10Z</time>
  <course>159.7</course>
  <speed>0.7902531240052139</speed>
  <fix>3d</fix>
</trkpt>
<trkpt lat="33.8097552" lon="-118.3944338">
  <ele>-34.2</ele>
  <time>2026-09-02T22:08:10Z</time>
  <course>180.41</course>
  <speed>0.83</speed>
  <fix>3d</fix>
</trkpt>
<trkpt lat="33.8097531" lon="-118.3944336">
  <ele>-34.988</ele>
  <time>2026-09-02T22:08:10Z</time>
  <course>159.6</course>
  <speed>0.7902531240052139</speed>
  <fix>3d</fix>
</trkpt>
<trkpt lat="33.8097537" lon="-118.3944338">
  <ele>-34.17</ele>
  <time>2026-09-02T22:08:10Z</time>
  <course>180.03</course>
  <speed>0.82</speed>
  <fix>3d</fix>
</trkpt>
<trkpt lat="33.8097523" lon="-118.3944336">
  <ele>-34.981</ele>
  <time>2026-09-02T22:08:10Z</time>
  <course>159.54</course>
  <speed>0.7805767098754611</speed>
  <fix>3d</fix>
</trkpt>
<trkpt lat="33.8097537" lon="-118.3944338">
  <ele>-34.17</ele>
  <time>2026-09-02T22:08:10Z</time>
  <course>180.03</course>
  <speed>0.82</speed>
  <fix>3d</fix>
</trkpt>
<trkpt lat="33.8097516" lon="-118.3944336">
  <ele>-34.976</ele>
  <time>2026-09-02T22:08:10Z</time>
  <course>159.49</course>
  <speed>0.7605918747922567</speed>
  <fix>3d</fix>
</trkpt>
<trkpt lat="33.8097523" lon="-118.3944338">
  <ele>-34.15</ele>
  <time>2026-09-02T22:08:10Z</time>
  <course>179.71</course>
  <speed>0.81</speed>
  <fix>3d</fix>
</trkpt>
<trkpt lat="33.8097509" lon="-118.3944336">
  <ele>-34.969</ele>
  <time>2026-09-02T22:08:10Z</time>
  <course>159.26</course>
  <speed>0.7206247289678588</speed>
  <fix>3d</fix>
</trkpt>
<trkpt lat="33.8097523" lon="-118.3944338">
  <ele>-34.15</ele>
  <time>2026-09-02T22:08:10Z</time>
  <course>179.71</course>
  <speed>0.81</speed>
  <fix>3d</fix>
</trkpt>
<trkpt lat="33.8097502" lon="-118.3944336">
  <ele>-34.962</ele>
  <time>2026-09-02T22:08:10Z</time>
  <course>158.68</course>
  <speed>0.7306161783043131</speed>
  <fix>3d</fix>
</trkpt>
<trkpt lat="33.8097509" lon="-118.3944338">
  <ele>-34.13</ele>
  <time>2026-09-02T22:08:10Z</time>
  <course>179.34</course>
  <speed>0.78</speed>
  <fix>3d</fix>
</trkpt>
<trkpt lat="33.8097495" lon="-118.3944336">
  <ele>-34.957</ele>
  <time>2026-09-02T22:08:10Z</time>
  <course>158.33</course>
  <speed>0.740607858451421</speed>
  <fix>3d</fix>
</trkpt>
<trkpt lat="33.8097509" lon="-118.3944338">
  <ele>-34.13</ele>
  <time>2026-09-02T22:08:10Z</time>
  <course>179.34</course>
  <speed>0.78</speed>
  <fix>3d</fix>
</trkpt>
<trkpt lat="33.8097488" lon="-118.3944336">
  <ele>-34.957</ele>
  <time>2026-09-02T22:08:10Z</time>
  <course>158.3</course>
  <speed>0.740607858451421</speed>
  <fix>3d</fix>
</trkpt>
<trkpt lat="33.8097494" lon="-118.3944338">
  <ele>-34.12</ele>
  <time>2026-09-02T22:08:10Z</time>
  <course>179.0</course>
  <speed>0.75</speed>
  <fix>3d</fix>
</trkpt>
<trkpt lat="33.8097481" lon="-118.3944336">
  <ele>-34.964</ele>
  <time>2026-09-02T22:08:10Z</time>
  <course>158.49</course>
  <speed>0.7505997601918082</speed>
  <fix>3d</fix>
</trkpt>
<trkpt lat="33.8097494" lon="-118.3944338">
  <ele>-34.12</ele>
  <time>2026-09-02T22:08:10Z</time>
  <course>179.0</course>
  <speed>0.75</speed>
  <fix>3d</fix>
</trkpt>
<trkpt lat="33.8097474" lon="-118.3944335">
  <ele>-34.976</ele>
  <time>2026-09-02T22:08:10Z</time>
  <course>158.73</course>
  <speed>0.7505997601918082</speed>
  <fix>3d</fix>
</trkpt>
<trkpt lat="33.8097481" lon="-118.3944338">
  <ele>-34.12</ele>
  <time>2026-09-02T22:08:10Z</time>
  <course>178.8</course>
  <speed>0.76</speed>
  <fix>3d</fix>
</trkpt>
<trkpt lat="33.8097467" lon="-118.3944335">
  <ele>-34.989</ele>
  <time>2026-09-02T22:08:10Z</time>
  <course>158.97</course>
  <speed>0.7505997601918082</speed>
  <fix>3d</fix>
</trkpt>
<trkpt lat="33.8097481" lon="-118.3944338">
  <ele>-34.12</ele>
  <time>2026-09-02T22:08:10Z</time>
  <course>178.8</course>
  <speed>0.76</speed>
  <fix>3d</fix>
</trkpt>
<trkpt lat="33.809746" lon="-118.3944335">
  <ele>-35.001</ele>
  <time>2026-09-02T22:08:10Z</time>
  <course>159.19</course>
  <speed>0.7605918747922567</speed>
  <fix>3d</fix>
</trkpt>
<trkpt lat="33.8097468" lon="-118.3944338">
  <ele>-34.14</ele>
  <time>2026-09-02T22:08:10Z</time>
  <course>178.59</course>
  <speed>0.77</speed>
  <fix>3d</fix>
</trkpt>
<trkpt lat="33.8097453" lon="-118.3944335">
  <ele>-35.012</ele>
  <time>2026-09-02T22:08:10Z</time>
  <course>159.4</course>
  <speed>0.7605918747922567</speed>
  <fix>3d</fix>
</trkpt>
<trkpt lat="33.8097468" lon="-118.3944338">
  <ele>-34.14</ele>
  <time>2026-09-02T22:08:10Z</time>
  <course>178.59</course>
  <speed>0.77</speed>
  <fix>3d</fix>
</trkpt>
<trkpt lat="33.8097446" lon="-118.3944335">
  <ele>-35.02</ele>
  <time>2026-09-02T22:08:10Z</time>
  <course>159.6</course>
  <speed>0.7605918747922567</speed>
  <fix>3d</fix>
</trkpt>
<trkpt lat="33.8097454" lon="-118.3944338">
  <ele>-34.17</ele>
  <time>2026-09-02T22:08:10Z</time>
  <course>178.35</course>
  <speed>0.77</speed>
  <fix>3d</fix>
</trkpt>
<trkpt lat="33.8097439" lon="-118.3944335">
  <ele>-35.027</ele>
  <time>2026-09-02T22:08:10Z</time>
  <course>159.79</course>
  <speed>0.7705841939723393</speed>
  <fix>3d</fix>
</trkpt>
<trkpt lat="33.8097454" lon="-118.3944338">
  <ele>-34.17</ele>
  <time>2026-09-02T22:08:10Z</time>
  <course>178.35</course>
  <speed>0.77</speed>
  <fix>3d</fix>
</trkpt>
<trkpt lat="33.8097432" lon="-118.3944335">
  <ele>-35.033</ele>
  <time>2026-09-02T22:08:10Z</time>
  <course>159.98</course>
  <speed>0.7705841939723393</speed>
  <fix>3d</fix>
</trkpt>
<trkpt lat="33.8097439" lon="-118.3944337">
  <ele>-34.18</ele>
  <time>2026-09-02T22:08:10Z</time>
  <course>178.09</course>
  <speed>0.78</speed>
  <fix>3d</fix>
</trkpt>
<trkpt lat="33.8097425" lon="-118.3944335">
  <ele>-35.038</ele>
  <time>2026-09-02T22:08:10Z</time>
  <course>160.17</course>
  <speed>0.7705841939723393</speed>
  <fix>3d</fix>
</trkpt>
<trkpt lat="33.8097439" lon="-118.3944337">
  <ele>-34.18</ele>
  <time>2026-09-02T22:08:10Z</time>
  <course>178.09</course>
  <speed>0.78</speed>
  <fix>3d</fix>
</trkpt>
<trkpt lat="33.8097418" lon="-118.3944335">
  <ele>-35.04</ele>
  <time>2026-09-02T22:08:10Z</time>
  <course>160.37</course>
  <speed>0.7705841939723393</speed>
  <fix>3d</fix>
</trkpt>
<trkpt lat="33.8097425" lon="-118.3944336">
  <ele>-34.19</ele>
  <time>2026-09-02T22:08:10Z</time>
  <course>177.86</course>
  <speed>0.78</speed>
  <fix>3d</fix>
</trkpt>
<trkpt lat="33.8097411" lon="-118.3944334">
  <ele>-35.039</ele>
  <time>2026-09-02T22:08:10Z</time>
  <course>160.58</course>
  <speed>0.7805767098754611</speed>
  <fix>3d</fix>
</trkpt>
<trkpt lat="33.8097425" lon="-118.3944336">
  <ele>-34.19</ele>
  <time>2026-09-02T22:08:10Z</time>
  <course>177.86</course>
  <speed>0.78</speed>
  <fix>3d</fix>
</trkpt>
<trkpt lat="33.8097403" lon="-118.3944334">
  <ele>-35.036</ele>
  <time>2026-09-02T22:08:10Z</time>
  <course>160.8</course>
  <speed>0.7805767098754611</speed>
  <fix>3d</fix>
</trkpt>
<trkpt lat="33.809741" lon="-118.3944336">
  <ele>-34.2</ele>
  <time>2026-09-02T22:08:10Z</time>
  <course>177.74</course>
  <speed>0.79</speed>
  <fix>3d</fix>
</trkpt>
<trkpt lat="33.8097396" lon="-118.3944334">
  <ele>-35.029</ele>
  <time>2026-09-02T22:08:10Z</time>
  <course>161.04</course>
  <speed>0.7805767098754611</speed>
  <fix>3d</fix>
</trkpt>
<trkpt lat="33.809741" lon="-118.3944336">
  <ele>-34.2</ele>
  <time>2026-09-02T22:08:10Z</time>
  <course>177.74</course>
  <speed>0.79</speed>
  <fix>3d</fix>
</trkpt>
<trkpt lat="33.8097389" lon="-118.3944334">
  <ele>-35.013</ele>
  <time>2026-09-02T22:08:10Z</time>
  <course>161.27</course>
  <speed>0.7805767098754611</speed>
  <fix>3d</fix>
</trkpt>
<trkpt lat="33.8097396" lon="-118.3944335">
  <ele>-34.19</ele>
  <time>2026-09-02T22:08:10Z</time>
  <course>177.67</course>
  <speed>0.79</speed>
  <fix>3d</fix>
</trkpt>
<trkpt lat="33.8097382" lon="-118.3944334">
  <ele>-34.993</ele>
  <time>2026-09-02T22:08:10Z</time>
  <course>161.5</course>
  <speed>0.7805767098754611</speed>
  <fix>3d</fix>
</trkpt>
<trkpt lat="33.8097396" lon="-118.3944335">
  <ele>-34.19</ele>
  <time>2026-09-02T22:08:10Z</time>
  <course>177.67</course>
  <speed>0.79</speed>
  <fix>3d</fix>
</trkpt>
<trkpt lat="33.8097375" lon="-118.3944333">
  <ele>-34.975</ele>
  <time>2026-09-02T22:08:10Z</time>
  <course>161.74</course>
  <speed>0.7802563681252463</speed>
  <fix>3d</fix>
</trkpt>
<trkpt lat="33.8097383" lon="-118.3944334">
  <ele>-34.17</ele>
  <time>2026-09-02T22:08:10Z</time>
  <course>177.61</course>
  <speed>0.79</speed>
  <fix>3d</fix>
</trkpt>
<trkpt lat="33.8097367" lon="-118.3944333">
  <ele>-34.966</ele>
  <time>2026-09-02T22:08:10Z</time>
  <course>161.99</course>
  <speed>0.7802563681252463</speed>
  <fix>3d</fix>
</trkpt>
<trkpt lat="33.8097383" lon="-118.3944334">
  <ele>-34.17</ele>
  <time>2026-09-02T22:08:10Z</time>
  <course>177.61</course>
  <speed>0.79</speed>
  <fix>3d</fix>
</trkpt>
<trkpt lat="33.809736" lon="-118.3944333">
  <ele>-34.962</ele>
  <time>2026-09-02T22:08:10Z</time>
  <course>162.26</course>
  <speed>0.7802563681252463</speed>
  <fix>3d</fix>
</trkpt>
<trkpt lat="33.8097368" lon="-118.3944334">
  <ele>-34.14</ele>
  <time>2026-09-02T22:08:10Z</time>
  <course>177.62</course>
  <speed>0.79</speed>
  <fix>3d</fix>
</trkpt>
<trkpt lat="33.8097353" lon="-118.3944333">
  <ele>-34.959</ele>
  <time>2026-09-02T22:08:10Z</time>
  <course>162.52</course>
  <speed>0.7902531240052139</speed>
  <fix>3d</fix>
</trkpt>
<trkpt lat="33.8097368" lon="-118.3944334">
  <ele>-34.14</ele>
  <time>2026-09-02T22:08:10Z</time>
  <course>177.62</course>
  <speed>0.79</speed>
  <fix>3d</fix>
</trkpt>
<trkpt lat="33.8097346" lon="-118.3944333">
  <ele>-34.952</ele>
  <time>2026-09-02T22:08:10Z</time>
  <course>162.8</course>
  <speed>0.7902531240052139</speed>
  <fix>3d</fix>
</trkpt>
<trkpt lat="33.8097353" lon="-118.3944333">
  <ele>-34.12</ele>
  <time>2026-09-02T22:08:10Z</time>
  <course>177.66</course>
  <speed>0.79</speed>
  <fix>3d</fix>
</trkpt>
<trkpt lat="33.8097338" lon="-118.3944332">
  <ele>-34.942</ele>
  <time>2026-09-02T22:08:10Z</time>
  <course>163.07</course>
  <speed>0.7902531240052139</speed>
  <fix>3d</fix>
</trkpt>
<trkpt lat="33.8097353" lon="-118.3944333">
  <ele>-34.12</ele>
  <time>2026-09-02T22:08:10Z</time>
  <course>177.66</course>
  <speed>0.79</speed>
  <fix>3d</fix>
</trkpt>
<trkpt lat="33.8097331" lon="-118.3944332">
  <ele>-34.93</ele>
  <time>2026-09-02T22:08:10Z</time>
  <course>163.33</course>
  <speed>0.7902531240052139</speed>
  <fix>3d</fix>
</trkpt>
<trkpt lat="33.809734" lon="-118.3944332">
  <ele>-34.11</ele>
  <time>2026-09-02T22:08:10Z</time>
  <course>177.66</course>
  <speed>0.8</speed>
  <fix>3d</fix>
</trkpt>
<trkpt lat="33.8097324" lon="-118.3944332">
  <ele>-34.918</ele>
  <time>2026-09-02T22:08:10Z</time>
  <course>163.6</course>
  <speed>0.7900632886041472</speed>
  <fix>3d</fix>
</trkpt>
<trkpt lat="33.809734" lon="-118.3944332">
  <ele>-34.11</ele>
  <time>2026-09-02T22:08:10Z</time>
  <course>177.66</course>
  <speed>0.8</speed>
  <fix>3d</fix>
</trkpt>
<trkpt lat="33.8097317" lon="-118.3944332">
  <ele>-34.907</ele>
  <time>2026-09-02T22:08:10Z</time>
  <course>163.88</course>
  <speed>0.7900632886041472</speed>
  <fix>3d</fix>
</trkpt>
<trkpt lat="33.8097325" lon="-118.3944332">
  <ele>-34.09</ele>
  <time>2026-09-02T22:08:10Z</time>
  <course>177.7</course>
  <speed>0.8</speed>
  <fix>3d</fix>
</trkpt>
<trkpt lat="33.8097309" lon="-118.3944332">
  <ele>-34.901</ele>
  <time>2026-09-02T22:08:10Z</time>
  <course>164.17</course>
  <speed>0.7900632886041472</speed>
  <fix>3d</fix>
</trkpt>
<trkpt lat="33.8097325" lon="-118.3944332">
  <ele>-34.09</ele>
  <time>2026-09-02T22:08:10Z</time>
  <course>177.7</course>
  <speed>0.8</speed>
  <fix>3d</fix>
</trkpt>
<trkpt lat="33.8097302" lon="-118.3944331">
  <ele>-34.895</ele>
  <time>2026-09-02T22:08:10Z</time>
  <course>164.44</course>
  <speed>0.7900632886041472</speed>
  <fix>3d</fix>
</trkpt>
<trkpt lat="33.8097311" lon="-118.3944331">
  <ele>-34.07</ele>
  <time>2026-09-02T22:08:10Z</time>
  <course>177.75</course>
  <speed>0.8</speed>
  <fix>3d</fix>
</trkpt>
<trkpt lat="33.8097295" lon="-118.3944331">
  <ele>-34.893</ele>
  <time>2026-09-02T22:08:10Z</time>
  <course>164.7</course>
  <speed>0.8000624975587844</speed>
  <fix>3d</fix>
</trkpt>
<trkpt lat="33.8097311" lon="-118.3944331">
  <ele>-34.07</ele>
  <time>2026-09-02T22:08:10Z</time>
  <course>177.75</course>
  <speed>0.8</speed>
  <fix>3d</fix>
</trkpt>
<trkpt lat="33.8097288" lon="-118.3944331">
  <ele>-34.899</ele>
  <time>2026-09-02T22:08:10Z</time>
  <course>164.97</course>
  <speed>0.8000624975587844</speed>
  <fix>3d</fix>
</trkpt>
<trkpt lat="33.8097296" lon="-118.394433">
  <ele>-34.07</ele>
  <time>2026-09-02T22:08:10Z</time>
  <course>177.79</course>
  <speed>0.81</speed>
  <fix>3d</fix>
</trkpt>
<trkpt lat="33.809728" lon="-118.3944331">
  <ele>-34.91</ele>
  <time>2026-09-02T22:08:10Z</time>
  <course>165.24</course>
  <speed>0.8000624975587844</speed>
  <fix>3d</fix>
</trkpt>
<trkpt lat="33.8097296" lon="-118.394433">
  <ele>-34.07</ele>
  <time>2026-09-02T22:08:10Z</time>
  <course>177.79</course>
  <speed>0.81</speed>
  <fix>3d</fix>
</trkpt>
<trkpt lat="33.8097273" lon="-118.3944331">
  <ele>-34.925</ele>
  <time>2026-09-02T22:08:10Z</time>
  <course>165.5</course>
  <speed>0.8000624975587844</speed>
  <fix>3d</fix>
</trkpt>
<trkpt lat="33.8097281" lon="-118.394433">
  <ele>-34.08</ele>
  <time>2026-09-02T22:08:10Z</time>
  <course>177.85</course>
  <speed>0.81</speed>
  <fix>3d</fix>
</trkpt>
<trkpt lat="33.8097266" lon="-118.394433">
  <ele>-34.946</ele>
  <time>2026-09-02T22:08:10Z</time>
  <course>165.77</course>
  <speed>0.8</speed>
  <fix>3d</fix>
</trkpt>
<trkpt lat="33.8097281" lon="-118.394433">
  <ele>-34.08</ele>
  <time>2026-09-02T22:08:10Z</time>
  <course>177.85</course>
  <speed>0.81</speed>
  <fix>3d</fix>
</trkpt>
<trkpt lat="33.8097258" lon="-118.394433">
  <ele>-34.966</ele>
  <time>2026-09-02T22:08:10Z</time>
  <course>166.03</course>
  <speed>0.8</speed>
  <fix>3d</fix>
</trkpt>
<trkpt lat="33.8097267" lon="-118.3944329">
  <ele>-34.11</ele>
  <time>2026-09-02T22:08:10Z</time>
  <course>177.92</course>
  <speed>0.81</speed>
  <fix>3d</fix>
</trkpt>
<trkpt lat="33.8097251" lon="-118.394433">
  <ele>-34.985</ele>
  <time>2026-09-02T22:08:10Z</time>
  <course>166.28</course>
  <speed>0.8</speed>
  <fix>3d</fix>
</trkpt>
<trkpt lat="33.8097267" lon="-118.3944329">
  <ele>-34.11</ele>
  <time>2026-09-02T22:08:10Z</time>
  <course>177.92</course>
  <speed>0.81</speed>
  <fix>3d</fix>
</trkpt>
<trkpt lat="33.8097244" lon="-118.394433">
  <ele>-35.004</ele>
  <time>2026-09-02T22:08:10Z</time>
  <course>166.53</course>
  <speed>0.8</speed>
  <fix>3d</fix>
</trkpt>
<trkpt lat="33.8097252" lon="-118.3944328">
  <ele>-34.14</ele>
  <time>2026-09-02T22:08:10Z</time>
  <course>177.95</course>
  <speed>0.81</speed>
  <fix>3d</fix>
</trkpt>
<trkpt lat="33.8097236" lon="-118.394433">
  <ele>-35.021</ele>
  <time>2026-09-02T22:08:10Z</time>
  <course>166.79</course>
  <speed>0.8</speed>
  <fix>3d</fix>
</trkpt>
<trkpt lat="33.8097252" lon="-118.3944328">
  <ele>-34.14</ele>
  <time>2026-09-02T22:08:10Z</time>
  <course>177.95</course>
  <speed>0.81</speed>
  <fix>3d</fix>
</trkpt>
<trkpt lat="33.8097229" lon="-118.3944329">
  <ele>-35.037</ele>
  <time>2026-09-02T22:08:10Z</time>
  <course>167.05</course>
  <speed>0.8</speed>
  <fix>3d</fix>
</trkpt>
<trkpt lat="33.8097238" lon="-118.3944328">
  <ele>-34.17</ele>
  <time>2026-09-02T22:08:10Z</time>
  <course>178.02</course>
  <speed>0.81</speed>
  <fix>3d</fix>
</trkpt>
<trkpt lat="33.8097222" lon="-118.3944329">
  <ele>-35.051</ele>
  <time>2026-09-02T22:08:10Z</time>
  <course>167.3</course>
  <speed>0.81</speed>
  <fix>3d</fix>
</trkpt>
<trkpt lat="33.8097238" lon="-118.3944328">
  <ele>-34.17</ele>
  <time>2026-09-02T22:08:10Z</time>
  <course>178.02</course>
  <speed>0.81</speed>
  <fix>3d</fix>
</trkpt>
<trkpt lat="33.8097214" lon="-118.3944329">
  <ele>-35.066</ele>
  <time>2026-09-02T22:08:10Z</time>
  <course>167.56</course>
  <speed>0.81</speed>
  <fix>3d</fix>
</trkpt>
<trkpt lat="33.8097223" lon="-118.3944327">
  <ele>-34.2</ele>
  <time>2026-09-02T22:08:10Z</time>
  <course>178.1</course>
  <speed>0.82</speed>
  <fix>3d</fix>
</trkpt>
<trkpt lat="33.8097207" lon="-118.3944329">
  <ele>-35.082</ele>
  <time>2026-09-02T22:08:10Z</time>
  <course>167.82</course>
  <speed>0.81</speed>
  <fix>3d</fix>
</trkpt>
<trkpt lat="33.8097223" lon="-118.3944327">
  <ele>-34.2</ele>
  <time>2026-09-02T22:08:10Z</time>
  <course>178.1</course>
  <speed>0.82</speed>
  <fix>3d</fix>
</trkpt>
<trkpt lat="33.80972" lon="-118.3944329">
  <ele>-35.096</ele>
  <time>2026-09-02T22:08:10Z</time>
  <course>168.07</course>
  <speed>0.81</speed>
  <fix>3d</fix>
</trkpt>
<trkpt lat="33.8097208" lon="-118.3944326">
  <ele>-34.23</ele>
  <time>2026-09-02T22:08:10Z</time>
  <course>178.17</course>
  <speed>0.82</speed>
  <fix>3d</fix>
</trkpt>
<trkpt lat="33.8097192" lon="-118.3944328">
  <ele>-35.107</ele>
  <time>2026-09-02T22:08:10Z</time>
  <course>168.31</course>
  <speed>0.81</speed>
  <fix>3d</fix>
</trkpt>
<trkpt lat="33.8097208" lon="-118.3944326">
  <ele>-34.23</ele>
  <time>2026-09-02T22:08:10Z</time>
  <course>178.17</course>
  <speed>0.82</speed>
  <fix>3d</fix>
</trkpt>
<trkpt lat="33.8097185" lon="-118.3944328">
  <ele>-35.114</ele>
  <time>2026-09-02T22:08:10Z</time>
  <course>168.57</course>
  <speed>0.81</speed>
  <fix>3d</fix>
</trkpt>
<trkpt lat="33.8097193" lon="-118.3944325">
  <ele>-34.26</ele>
  <time>2026-09-02T22:08:10Z</time>
  <course>178.26</course>
  <speed>0.82</speed>
  <fix>3d</fix>
</trkpt>
<trkpt lat="33.8097177" lon="-118.3944328">
  <ele>-35.112</ele>
  <time>2026-09-02T22:08:10Z</time>
  <course>168.84</course>
  <speed>0.81</speed>
  <fix>3d</fix>
</trkpt>
<trkpt lat="33.8097193" lon="-118.3944325">
  <ele>-34.26</ele>
  <time>2026-09-02T22:08:10Z</time>
  <course>178.26</course>
  <speed>0.82</speed>
  <fix>3d</fix>
</trkpt>
<trkpt lat="33.809717" lon="-118.3944328">
  <ele>-35.107</ele>
  <time>2026-09-02T22:08:10Z</time>
  <course>169.12</course>
  <speed>0.81</speed>
  <fix>3d</fix>
</trkpt>
<trkpt lat="33.8097178" lon="-118.3944325">
  <ele>-34.26</ele>
  <time>2026-09-02T22:08:10Z</time>
  <course>178.39</course>
  <speed>0.82</speed>
  <fix>3d</fix>
</trkpt>
<trkpt lat="33.8097162" lon="-118.3944328">
  <ele>-35.097</ele>
  <time>2026-09-02T22:08:10Z</time>
  <course>169.39</course>
  <speed>0.81</speed>
  <fix>3d</fix>
</trkpt>
<trkpt lat="33.8097178" lon="-118.3944325">
  <ele>-34.26</ele>
  <time>2026-09-02T22:08:10Z</time>
  <course>178.39</course>
  <speed>0.82</speed>
  <fix>3d</fix>
</trkpt>
<trkpt lat="33.8097155" lon="-118.3944327">
  <ele>-35.08</ele>
  <time>2026-09-02T22:08:10Z</time>
  <course>169.65</course>
  <speed>0.8100617260431454</speed>
  <fix>3d</fix>
</trkpt>
<trkpt lat="33.8097163" lon="-118.3944325">
  <ele>-34.25</ele>
  <time>2026-09-02T22:08:10Z</time>
  <course>178.53</course>
  <speed>0.83</speed>
  <fix>3d</fix>
</trkpt>
<trkpt lat="33.8097148" lon="-118.3944327">
  <ele>-35.06</ele>
  <time>2026-09-02T22:08:10Z</time>
  <course>169.88</course>
  <speed>0.8100617260431454</speed>
  <fix>3d</fix>
</trkpt>
<trkpt lat="33.8097163" lon="-118.3944325">
  <ele>-34.25</ele>
  <time>2026-09-02T22:08:10Z</time>
  <course>178.53</course>
  <speed>0.83</speed>
  <fix>3d</fix>
</trkpt>
<trkpt lat="33.809714" lon="-118.3944327">
  <ele>-35.039</ele>
  <time>2026-09-02T22:08:10Z</time>
  <course>170.11</course>
  <speed>0.8100617260431454</speed>
  <fix>3d</fix>
</trkpt>
<trkpt lat="33.8097148" lon="-118.3944325">
  <ele>-34.22</ele>
  <time>2026-09-02T22:08:10Z</time>
  <course>178.6</course>
  <speed>0.83</speed>
  <fix>3d</fix>
</trkpt>
<trkpt lat="33.8097133" lon="-118.3944327">
  <ele>-35.018</ele>
  <time>2026-09-02T22:08:10Z</time>
  <course>170.3</course>
  <speed>0.8100617260431454</speed>
  <fix>3d</fix>
</trkpt>
<trkpt lat="33.8097148" lon="-118.3944325">
  <ele>-34.22</ele>
  <time>2026-09-02T22:08:10Z</time>
  <course>178.6</course>
  <speed>0.83</speed>
  <fix>3d</fix>
</trkpt>
<trkpt lat="33.8097125" lon="-118.3944327">
  <ele>-34.999</ele>
  <time>2026-09-02T22:08:10Z</time>
  <course>170.48</course>
  <speed>0.8100617260431454</speed>
  <fix>3d</fix>
</trkpt>
<trkpt lat="33.8097134" lon="-118.3944324">
  <ele>-34.18</ele>
  <time>2026-09-02T22:08:10Z</time>
  <course>178.61</course>
  <speed>0.83</speed>
  <fix>3d</fix>
</trkpt>
<trkpt lat="33.8097118" lon="-118.3944327">
  <ele>-34.98</ele>
  <time>2026-09-02T22:08:10Z</time>
  <course>170.65</course>
  <speed>0.8100617260431454</speed>
  <fix>3d</fix>
</trkpt>
<trkpt lat="33.8097134" lon="-118.3944324">
  <ele>-34.18</ele>
  <time>2026-09-02T22:08:10Z</time>
  <course>178.61</course>
  <speed>0.83</speed>
  <fix>3d</fix>
</trkpt>
<trkpt lat="33.809711" lon="-118.3944326">
  <ele>-34.958</ele>
  <time>2026-09-02T22:08:10Z</time>
  <course>170.84</course>
  <speed>0.8100617260431454</speed>
  <fix>3d</fix>
</trkpt>
<trkpt lat="33.8097118" lon="-118.3944324">
  <ele>-34.14</ele>
  <time>2026-09-02T22:08:10Z</time>
  <course>178.61</course>
  <speed>0.83</speed>
  <fix>3d</fix>
</trkpt>
<trkpt lat="33.8097103" lon="-118.3944326">
  <ele>-34.939</ele>
  <time>2026-09-02T22:08:10Z</time>
  <course>171.03</course>
  <speed>0.8100617260431454</speed>
  <fix>3d</fix>
</trkpt>
<trkpt lat="33.8097118" lon="-118.3944324">
  <ele>-34.14</ele>
  <time>2026-09-02T22:08:10Z</time>
  <course>178.61</course>
  <speed>0.83</speed>
  <fix>3d</fix>
</trkpt>
<trkpt lat="33.8097095" lon="-118.3944326">
  <ele>-34.924</ele>
  <time>2026-09-02T22:08:10Z</time>
  <course>171.21</course>
  <speed>0.8200609733428362</speed>
  <fix>3d</fix>
</trkpt>
<trkpt lat="33.8097103" lon="-118.3944323">
  <ele>-34.11</ele>
  <time>2026-09-02T22:08:10Z</time>
  <course>178.62</course>
  <speed>0.83</speed>
  <fix>3d</fix>
</trkpt>
<trkpt lat="33.8097088" lon="-118.3944326">
  <ele>-34.91</ele>
  <time>2026-09-02T22:08:10Z</time>
  <course>171.39</course>
  <speed>0.8200609733428362</speed>
  <fix>3d</fix>
</trkpt>
<trkpt lat="33.8097103" lon="-118.3944323">
  <ele>-34.11</ele>
  <time>2026-09-02T22:08:10Z</time>
  <course>178.62</course>
  <speed>0.83</speed>
  <fix>3d</fix>
</trkpt>
<trkpt lat="33.809708" lon="-118.3944326">
  <ele>-34.901</ele>
  <time>2026-09-02T22:08:10Z</time>
  <course>171.58</course>
  <speed>0.8200609733428362</speed>
  <fix>3d</fix>
</trkpt>
<trkpt lat="33.8097088" lon="-118.3944323">
  <ele>-34.08</ele>
  <time>2026-09-02T22:08:10Z</time>
  <course>178.66</course>
  <speed>0.83</speed>
  <fix>3d</fix>
</trkpt>
<trkpt lat="33.8097072" lon="-118.3944326">
  <ele>-34.898</ele>
  <time>2026-09-02T22:08:10Z</time>
  <course>171.76</course>
  <speed>0.8200609733428362</speed>
  <fix>3d</fix>
</trkpt>
<trkpt lat="33.8097088" lon="-118.3944323">
  <ele>-34.08</ele>
  <time>2026-09-02T22:08:10Z</time>
  <course>178.66</course>
  <speed>0.83</speed>
  <fix>3d</fix>
</trkpt>
<trkpt lat="33.8097065" lon="-118.3944326">
  <ele>-34.9</ele>
  <time>2026-09-02T22:08:10Z</time>
  <course>171.95</course>
  <speed>0.8200609733428362</speed>
  <fix>3d</fix>
</trkpt>
<trkpt lat="33.8097073" lon="-118.3944322">
  <ele>-34.07</ele>
  <time>2026-09-02T22:08:10Z</time>
  <course>178.74</course>
  <speed>0.84</speed>
  <fix>3d</fix>
</trkpt>
<trkpt lat="33.8097057" lon="-118.3944326">
  <ele>-34.909</ele>
  <time>2026-09-02T22:08:10Z</time>
  <course>172.14</course>
  <speed>0.8200609733428362</speed>
  <fix>3d</fix>
</trkpt>
<trkpt lat="33.8097073" lon="-118.3944322">
  <ele>-34.07</ele>
  <time>2026-09-02T22:08:10Z</time>
  <course>178.74</course>
  <speed>0.84</speed>
  <fix>3d</fix>
</trkpt>
<trkpt lat="33.809705" lon="-118.3944325">
  <ele>-34.923</ele>
  <time>2026-09-02T22:08:10Z</time>
  <course>172.33</course>
  <speed>0.8200609733428362</speed>
  <fix>3d</fix>
</trkpt>
<trkpt lat="33.8097058" lon="-118.3944322">
  <ele>-34.07</ele>
  <time>2026-09-02T22:08:10Z</time>
  <course>178.82</course>
  <speed>0.84</speed>
  <fix>3d</fix>
</trkpt>
<trkpt lat="33.8097042" lon="-118.3944325">
  <ele>-34.94</ele>
  <time>2026-09-02T22:08:10Z</time>
  <course>172.53</course>
  <speed>0.8202438661763951</speed>
  <fix>3d</fix>
</trkpt>
<trkpt lat="33.8097058" lon="-118.3944322">
  <ele>-34.07</ele>
  <time>2026-09-02T22:08:10Z</time>
  <course>178.82</course>
  <speed>0.84</speed>
  <fix>3d</fix>
</trkpt>
<trkpt lat="33.8097035" lon="-118.3944324">
  <ele>-34.957</ele>
  <time>2026-09-02T22:08:10Z</time>
  <course>172.72</course>
  <speed>0.8202438661763951</speed>
  <fix>3d</fix>
</trkpt>
<trkpt lat="33.8097043" lon="-118.3944322">
  <ele>-34.1</ele>
  <time>2026-09-02T22:08:10Z</time>
  <course>178.9</course>
  <speed>0.84</speed>
  <fix>3d</fix>
</trkpt>
<trkpt lat="33.8097027" lon="-118.3944324">
  <ele>-34.974</ele>
  <time>2026-09-02T22:08:10Z</time>
  <course>172.9</course>
  <speed>0.8202438661763951</speed>
  <fix>3d</fix>
</trkpt>
<trkpt lat="33.8097043" lon="-118.3944322">
  <ele>-34.1</ele>
  <time>2026-09-02T22:08:10Z</time>
  <course>178.9</course>
  <speed>0.84</speed>
  <fix>3d</fix>
</trkpt>
<trkpt lat="33.809702" lon="-118.3944324">
  <ele>-34.989</ele>
  <time>2026-09-02T22:08:10Z</time>
  <course>173.07</course>
  <speed>0.8202438661763951</speed>
  <fix>3d</fix>
</trkpt>
<trkpt lat="33.8097028" lon="-118.3944321">
  <ele>-34.13</ele>
  <time>2026-09-02T22:08:10Z</time>
  <course>178.95</course>
  <speed>0.84</speed>
  <fix>3d</fix>
</trkpt>
<trkpt lat="33.8097012" lon="-118.3944324">
  <ele>-35.006</ele>
  <time>2026-09-02T22:08:10Z</time>
  <course>173.23</course>
  <speed>0.8202438661763951</speed>
  <fix>3d</fix>
</trkpt>
<trkpt lat="33.8097028" lon="-118.3944321">
  <ele>-34.13</ele>
  <time>2026-09-02T22:08:10Z</time>
  <course>178.95</course>
  <speed>0.84</speed>
  <fix>3d</fix>
</trkpt>
<trkpt lat="33.8097004" lon="-118.3944324">
  <ele>-35.025</ele>
  <time>2026-09-02T22:08:10Z</time>
  <course>173.41</course>
  <speed>0.8202438661763951</speed>
  <fix>3d</fix>
</trkpt>
<trkpt lat="33.8097013" lon="-118.3944321">
  <ele>-34.16</ele>
  <time>2026-09-02T22:08:10Z</time>
  <course>179.0</course>
  <speed>0.84</speed>
  <fix>3d</fix>
</trkpt>
<trkpt lat="33.8096997" lon="-118.3944324">
  <ele>-35.041</ele>
  <time>2026-09-02T22:08:10Z</time>
  <course>173.58</course>
  <speed>0.8302409288875127</speed>
  <fix>3d</fix>
</trkpt>
<trkpt lat="33.8097013" lon="-118.3944321">
  <ele>-34.16</ele>
  <time>2026-09-02T22:08:10Z</time>
  <course>179.0</course>
  <speed>0.84</speed>
  <fix>3d</fix>
</trkpt>
<trkpt lat="33.8096989" lon="-118.3944324">
  <ele>-35.057</ele>
  <time>2026-09-02T22:08:10Z</time>
  <course>173.75</course>
  <speed>0.8302409288875127</speed>
  <fix>3d</fix>
</trkpt>
<trkpt lat="33.8096998" lon="-118.3944321">
  <ele>-34.19</ele>
  <time>2026-09-02T22:08:10Z</time>
  <course>179.07</course>
  <speed>0.85</speed>
  <fix>3d</fix>
</trkpt>
<trkpt lat="33.8096982" lon="-118.3944324">
  <ele>-35.073</ele>
  <time>2026-09-02T22:08:10Z</time>
  <course>173.92</course>
  <speed>0.8302409288875127</speed>
  <fix>3d</fix>
</trkpt>
<trkpt lat="33.8096998" lon="-118.3944321">
  <ele>-34.19</ele>
  <time>2026-09-02T22:08:10Z</time>
  <course>179.07</course>
  <speed>0.85</speed>
  <fix>3d</fix>
</trkpt>
<trkpt lat="33.8096974" lon="-118.3944324">
  <ele>-35.081</ele>
  <time>2026-09-02T22:08:10Z</time>
  <course>174.07</course>
  <speed>0.8302409288875127</speed>
  <fix>3d</fix>
</trkpt>
<trkpt lat="33.8096982" lon="-118.394432">
  <ele>-34.22</ele>
  <time>2026-09-02T22:08:10Z</time>
  <course>179.1</course>
  <speed>0.85</speed>
  <fix>3d</fix>
</trkpt>
<trkpt lat="33.8096966" lon="-118.3944324">
  <ele>-35.077</ele>
  <time>2026-09-02T22:08:10Z</time>
  <course>174.22</course>
  <speed>0.8302409288875127</speed>
  <fix>3d</fix>
</trkpt>
<trkpt lat="33.8096982" lon="-118.394432">
  <ele>-34.22</ele>
  <time>2026-09-02T22:08:10Z</time>
  <course>179.1</course>
  <speed>0.85</speed>
  <fix>3d</fix>
</trkpt>
<trkpt lat="33.8096959" lon="-118.3944323">
  <ele>-35.068</ele>
  <time>2026-09-02T22:08:10Z</time>
  <course>174.37</course>
  <speed>0.8302409288875127</speed>
  <fix>3d</fix>
</trkpt>
<trkpt lat="33.8096967" lon="-118.394432">
  <ele>-34.23</ele>
  <time>2026-09-02T22:08:10Z</time>
  <course>179.14</course>
  <speed>0.85</speed>
  <fix>3d</fix>
</trkpt>
<trkpt lat="33.8096951" lon="-118.3944323">
  <ele>-35.056</ele>
  <time>2026-09-02T22:08:10Z</time>
  <course>174.53</course>
  <speed>0.8302409288875127</speed>
  <fix>3d</fix>
</trkpt>
<trkpt lat="33.8096967" lon="-118.394432">
  <ele>-34.23</ele>
  <time>2026-09-02T22:08:10Z</time>
  <course>179.14</course>
  <speed>0.85</speed>
  <fix>3d</fix>
</trkpt>
<trkpt lat="33.8096943" lon="-118.3944323">
  <ele>-35.042</ele>
  <time>2026-09-02T22:08:10Z</time>
  <course>174.7</course>
  <speed>0.8302409288875127</speed>
  <fix>3d</fix>
</trkpt>
<trkpt lat="33.8096951" lon="-118.394432">
  <ele>-34.22</ele>
  <time>2026-09-02T22:08:10Z</time>
  <course>179.21</course>
  <speed>0.85</speed>
  <fix>3d</fix>
</trkpt>
<trkpt lat="33.8096936" lon="-118.3944323">
  <ele>-35.027</ele>
  <time>2026-09-02T22:08:10Z</time>
  <course>174.85</course>
  <speed>0.8302409288875127</speed>
  <fix>3d</fix>
</trkpt>
<trkpt lat="33.8096951" lon="-118.394432">
  <ele>-34.22</ele>
  <time>2026-09-02T22:08:10Z</time>
  <course>179.21</course>
  <speed>0.85</speed>
  <fix>3d</fix>
</trkpt>
<trkpt lat="33.8096928" lon="-118.3944323">
  <ele>-35.014</ele>
  <time>2026-09-02T22:08:10Z</time>
  <course>175.0</course>
  <speed>0.8302409288875127</speed>
  <fix>3d</fix>
</trkpt>
<trkpt lat="33.8096936" lon="-118.394432">
  <ele>-34.19</ele>
  <time>2026-09-02T22:08:10Z</time>
  <course>179.27</course>
  <speed>0.85</speed>
  <fix>3d</fix>
</trkpt>
<trkpt lat="33.809692" lon="-118.3944323">
  <ele>-35.0</ele>
  <time>2026-09-02T22:08:10Z</time>
  <course>175.13</course>
  <speed>0.8302409288875127</speed>
  <fix>3d</fix>
</trkpt>
<trkpt lat="33.8096936" lon="-118.394432">
  <ele>-34.19</ele>
  <time>2026-09-02T22:08:10Z</time>
  <course>179.27</course>
  <speed>0.85</speed>
  <fix>3d</fix>
</trkpt>
<trkpt lat="33.8096912" lon="-118.3944323">
  <ele>-34.987</ele>
  <time>2026-09-02T22:08:10Z</time>
  <course>175.26</course>
  <speed>0.8302409288875127</speed>
  <fix>3d</fix>
</trkpt>
<trkpt lat="33.8096921" lon="-118.3944319">
  <ele>-34.17</ele>
  <time>2026-09-02T22:08:10Z</time>
  <course>179.31</course>
  <speed>0.86</speed>
  <fix>3d</fix>
</trkpt>
<trkpt lat="33.8096905" lon="-118.3944323">
  <ele>-34.977</ele>
  <time>2026-09-02T22:08:10Z</time>
  <course>175.37</course>
  <speed>0.8402380615040002</speed>
  <fix>3d</fix>
</trkpt>
<trkpt lat="33.8096921" lon="-118.3944319">
  <ele>-34.17</ele>
  <time>2026-09-02T22:08:10Z</time>
  <course>179.31</course>
  <speed>0.86</speed>
  <fix>3d</fix>
</trkpt>
<trkpt lat="33.8096897" lon="-118.3944323">
  <ele>-34.974</ele>
  <time>2026-09-02T22:08:10Z</time>
  <course>175.5</course>
  <speed>0.8402380615040002</speed>
  <fix>3d</fix>
</trkpt>
<trkpt lat="33.8096905" lon="-118.3944319">
  <ele>-34.15</ele>
  <time>2026-09-02T22:08:10Z</time>
  <course>179.36</course>
  <speed>0.86</speed>
  <fix>3d</fix>
</trkpt>
<trkpt lat="33.8096889" lon="-118.3944323">
  <ele>-34.974</ele>
  <time>2026-09-02T22:08:10Z</time>
  <course>175.63</course>
  <speed>0.8402380615040002</speed>
  <fix>3d</fix>
</trkpt>
<trkpt lat="33.8096905" lon="-118.3944319">
  <ele>-34.15</ele>
  <time>2026-09-02T22:08:10Z</time>
  <course>179.36</course>
  <speed>0.86</speed>
  <fix>3d</fix>
</trkpt>
<trkpt lat="33.8096882" lon="-118.3944322">
  <ele>-34.977</ele>
  <time>2026-09-02T22:08:10Z</time>
  <course>175.77</course>
  <speed>0.8402380615040002</speed>
  <fix>3d</fix>
</trkpt>
<trkpt lat="33.809689" lon="-118.3944319">
  <ele>-34.14</ele>
  <time>2026-09-02T22:08:10Z</time>
  <course>179.45</course>
  <speed>0.86</speed>
  <fix>3d</fix>
</trkpt>
<trkpt lat="33.8096874" lon="-118.3944322">
  <ele>-34.982</ele>
  <time>2026-09-02T22:08:10Z</time>
  <course>175.91</course>
  <speed>0.8402380615040002</speed>
  <fix>3d</fix>
</trkpt>
<trkpt lat="33.809689" lon="-118.3944319">
  <ele>-34.14</ele>
  <time>2026-09-02T22:08:10Z</time>
  <course>179.45</course>
  <speed>0.86</speed>
  <fix>3d</fix>
</trkpt>
<trkpt lat="33.8096866" lon="-118.3944322">
  <ele>-34.986</ele>
  <time>2026-09-02T22:08:10Z</time>
  <course>176.04</course>
  <speed>0.8402380615040002</speed>
  <fix>3d</fix>
</trkpt>
<trkpt lat="33.8096874" lon="-118.3944319">
  <ele>-34.14</ele>
  <time>2026-09-02T22:08:10Z</time>
  <course>179.54</course>
  <speed>0.86</speed>
  <fix>3d</fix>
</trkpt>
<trkpt lat="33.8096858" lon="-118.3944322">
  <ele>-34.99</ele>
  <time>2026-09-02T22:08:10Z</time>
  <course>176.17</course>
  <speed>0.8402380615040002</speed>
  <fix>3d</fix>
</trkpt>
<trkpt lat="33.8096874" lon="-118.3944319">
  <ele>-34.14</ele>
  <time>2026-09-02T22:08:10Z</time>
  <course>179.54</course>
  <speed>0.86</speed>
  <fix>3d</fix>
</trkpt>
<trkpt lat="33.8096851" lon="-118.3944322">
  <ele>-34.993</ele>
  <time>2026-09-02T22:08:10Z</time>
  <course>176.28</course>
  <speed>0.8402380615040002</speed>
  <fix>3d</fix>
</trkpt>
<trkpt lat="33.8096859" lon="-118.3944319">
  <ele>-34.15</ele>
  <time>2026-09-02T22:08:10Z</time>
  <course>179.58</course>
  <speed>0.87</speed>
  <fix>3d</fix>
</trkpt>
<trkpt lat="33.8096843" lon="-118.3944322">
  <ele>-34.999</ele>
  <time>2026-09-02T22:08:10Z</time>
  <course>176.39</course>
  <speed>0.8502352615599991</speed>
  <fix>3d</fix>
</trkpt>
<trkpt lat="33.8096859" lon="-118.3944319">
  <ele>-34.15</ele>
  <time>2026-09-02T22:08:10Z</time>
  <course>179.58</course>
  <speed>0.87</speed>
  <fix>3d</fix>
</trkpt>
<trkpt lat="33.8096835" lon="-118.3944322">
  <ele>-35.007</ele>
  <time>2026-09-02T22:08:10Z</time>
  <course>176.48</course>
  <speed>0.8502352615599991</speed>
  <fix>3d</fix>
</trkpt>
<trkpt lat="33.8096843" lon="-118.3944319">
  <ele>-34.15</ele>
  <time>2026-09-02T22:08:10Z</time>
  <course>179.61</course>
  <speed>0.87</speed>
  <fix>3d</fix>
</trkpt>
<trkpt lat="33.8096827" lon="-118.3944322">
  <ele>-35.018</ele>
  <time>2026-09-02T22:08:10Z</time>
  <course>176.57</course>
  <speed>0.8502352615599991</speed>
  <fix>3d</fix>
</trkpt>
<trkpt lat="33.8096843" lon="-118.3944319">
  <ele>-34.15</ele>
  <time>2026-09-02T22:08:10Z</time>
  <course>179.61</course>
  <speed>0.87</speed>
  <fix>3d</fix>
</trkpt>
<trkpt lat="33.8096819" lon="-118.3944322">
  <ele>-35.029</ele>
  <time>2026-09-02T22:08:10Z</time>
  <course>176.65</course>
  <speed>0.8502352615599991</speed>
  <fix>3d</fix>
</trkpt>
<trkpt lat="33.8096826" lon="-118.3944319">
  <ele>-34.17</ele>
  <time>2026-09-02T22:08:10Z</time>
  <course>179.61</course>
  <speed>0.87</speed>
  <fix>3d</fix>
</trkpt>
<trkpt lat="33.8096812" lon="-118.3944322">
  <ele>-35.045</ele>
  <time>2026-09-02T22:08:10Z</time>
  <course>176.72</course>
  <speed>0.8502352615599991</speed>
  <fix>3d</fix>
</trkpt>
<trkpt lat="33.8096826" lon="-118.3944319">
  <ele>-34.17</ele>
  <time>2026-09-02T22:08:10Z</time>
  <course>179.61</course>
  <speed>0.87</speed>
  <fix>3d</fix>
</trkpt>
<trkpt lat="33.8096804" lon="-118.3944322">
  <ele>-35.064</ele>
  <time>2026-09-02T22:08:10Z</time>
  <course>176.79</course>
  <speed>0.8502352615599991</speed>
  <fix>3d</fix>
</trkpt>
<trkpt lat="33.8096811" lon="-118.3944318">
  <ele>-34.19</ele>
  <time>2026-09-02T22:08:10Z</time>
  <course>179.6</course>
  <speed>0.87</speed>
  <fix>3d</fix>
</trkpt>
<trkpt lat="33.8096796" lon="-118.3944322">
  <ele>-35.085</ele>
  <time>2026-09-02T22:08:10Z</time>
  <course>176.85</course>
  <speed>0.8502352615599991</speed>
  <fix>3d</fix>
</trkpt>
<trkpt lat="33.8096811" lon="-118.3944318">
  <ele>-34.19</ele>
  <time>2026-09-02T22:08:10Z</time>
  <course>179.6</course>
  <speed>0.87</speed>
  <fix>3d</fix>
</trkpt>
<trkpt lat="33.8096788" lon="-118.3944322">
  <ele>-35.109</ele>
  <time>2026-09-02T22:08:10Z</time>
  <course>176.93</course>
  <speed>0.8502352615599991</speed>
  <fix>3d</fix>
</trkpt>
<trkpt lat="33.8096795" lon="-118.3944318">
  <ele>-34.23</ele>
  <time>2026-09-02T22:08:10Z</time>
  <course>179.63</course>
  <speed>0.87</speed>
  <fix>3d</fix>
</trkpt>
<trkpt lat="33.809678" lon="-118.3944322">
  <ele>-35.135</ele>
  <time>2026-09-02T22:08:10Z</time>
  <course>177.03</course>
  <speed>0.8502352615599991</speed>
  <fix>3d</fix>
</trkpt>
<trkpt lat="33.8096795" lon="-118.3944318">
  <ele>-34.23</ele>
  <time>2026-09-02T22:08:10Z</time>
  <course>179.63</course>
  <speed>0.87</speed>
  <fix>3d</fix>
</trkpt>
<trkpt lat="33.8096772" lon="-118.3944322">
  <ele>-35.165</ele>
  <time>2026-09-02T22:08:10Z</time>
  <course>177.13</course>
  <speed>0.8502352615599991</speed>
  <fix>3d</fix>
</trkpt>
<trkpt lat="33.809678" lon="-118.3944318">
  <ele>-34.27</ele>
  <time>2026-09-02T22:08:10Z</time>
  <course>179.71</course>
  <speed>0.87</speed>
  <fix>3d</fix>
</trkpt>
<trkpt lat="33.8096764" lon="-118.3944322">
  <ele>-35.2</ele>
  <time>2026-09-02T22:08:10Z</time>
  <course>177.24</course>
  <speed>0.8505292469985968</speed>
  <fix>3d</fix>
</trkpt>
<trkpt lat="33.809678" lon="-118.3944318">
  <ele>-34.27</ele>
  <time>2026-09-02T22:08:10Z</time>
  <course>179.71</course>
  <speed>0.87</speed>
  <fix>3d</fix>
</trkpt>
<trkpt lat="33.8096756" lon="-118.3944322">
  <ele>-35.238</ele>
  <time>2026-09-02T22:08:10Z</time>
  <course>177.35</course>
  <speed>0.8502352615599991</speed>
  <fix>3d</fix>
</trkpt>
<trkpt lat="33.8096764" lon="-118.3944318">
  <ele>-34.33</ele>
  <time>2026-09-02T22:08:10Z</time>
  <course>179.8</course>
  <speed>0.88</speed>
  <fix>3d</fix>
</trkpt>
<trkpt lat="33.8096748" lon="-118.3944322">
  <ele>-35.279</ele>
  <time>2026-09-02T22:08:10Z</time>
  <course>177.44</course>
  <speed>0.8505292469985968</speed>
  <fix>3d</fix>
</trkpt>
<trkpt lat="33.8096764" lon="-118.3944318">
  <ele>-34.33</ele>
  <time>2026-09-02T22:08:10Z</time>
  <course>179.8</course>
  <speed>0.88</speed>
  <fix>3d</fix>
</trkpt>
<trkpt lat="33.8096741" lon="-118.3944322">
  <ele>-35.321</ele>
  <time>2026-09-02T22:08:10Z</time>
  <course>177.53</course>
  <speed>0.8502352615599991</speed>
  <fix>3d</fix>
</trkpt>
<trkpt lat="33.8096747" lon="-118.3944318">
  <ele>-34.39</ele>
  <time>2026-09-02T22:08:10Z</time>
  <course>179.87</course>
  <speed>0.88</speed>
  <fix>3d</fix>
</trkpt>
<trkpt lat="33.8096733" lon="-118.3944322">
  <ele>-35.364</ele>
  <time>2026-09-02T22:08:10Z</time>
  <course>177.61</course>
  <speed>0.8505292469985968</speed>
  <fix>3d</fix>
</trkpt>
<trkpt lat="33.8096747" lon="-118.3944318">
  <ele>-34.39</ele>
  <time>2026-09-02T22:08:10Z</time>
  <course>179.87</course>
  <speed>0.88</speed>
  <fix>3d</fix>
</trkpt>
<trkpt lat="33.8096725" lon="-118.3944321">
  <ele>-35.406</ele>
  <time>2026-09-02T22:08:10Z</time>
  <course>177.68</course>
  <speed>0.8502352615599991</speed>
  <fix>3d</fix>
</trkpt>
<trkpt lat="33.8096732" lon="-118.3944318">
  <ele>-34.47</ele>
  <time>2026-09-02T22:08:10Z</time>
  <course>179.89</course>
  <speed>0.88</speed>
  <fix>3d</fix>
</trkpt>
<trkpt lat="33.8096717" lon="-118.3944321">
  <ele>-35.451</ele>
  <time>2026-09-02T22:08:10Z</time>
  <course>177.74</course>
  <speed>0.8505292469985968</speed>
  <fix>3d</fix>
</trkpt>
<trkpt lat="33.8096732" lon="-118.3944318">
  <ele>-34.47</ele>
  <time>2026-09-02T22:08:10Z</time>
  <course>179.89</course>
  <speed>0.88</speed>
  <fix>3d</fix>
</trkpt>
<trkpt lat="33.8096709" lon="-118.3944321">
  <ele>-35.498</ele>
  <time>2026-09-02T22:08:10Z</time>
  <course>177.8</course>
  <speed>0.8502352615599991</speed>
  <fix>3d</fix>
</trkpt>
<trkpt lat="33.8096716" lon="-118.3944318">
  <ele>-34.55</ele>
  <time>2026-09-02T22:08:10Z</time>
  <course>179.9</course>
  <speed>0.88</speed>
  <fix>3d</fix>
</trkpt>
<trkpt lat="33.8096701" lon="-118.3944321">
  <ele>-35.546</ele>
  <time>2026-09-02T22:08:10Z</time>
  <course>177.85</course>
  <speed>0.8502352615599991</speed>
  <fix>3d</fix>
</trkpt>
<trkpt lat="33.8096716" lon="-118.3944318">
  <ele>-34.55</ele>
  <time>2026-09-02T22:08:10Z</time>
  <course>179.9</course>
  <speed>0.88</speed>
  <fix>3d</fix>
</trkpt>
<trkpt lat="33.8096693" lon="-118.3944321">
  <ele>-35.595</ele>
  <time>2026-09-02T22:08:10Z</time>
  <course>177.91</course>
  <speed>0.8602325267042628</speed>
  <fix>3d</fix>
</trkpt>
<trkpt lat="33.8096701" lon="-118.3944318">
  <ele>-34.64</ele>
  <time>2026-09-02T22:08:10Z</time>
  <course>179.91</course>
  <speed>0.88</speed>
  <fix>3d</fix>
</trkpt>
<trkpt lat="33.8096685" lon="-118.3944321">
  <ele>-35.646</ele>
  <time>2026-09-02T22:08:10Z</time>
  <course>177.96</course>
  <speed>0.8602325267042628</speed>
  <fix>3d</fix>
</trkpt>
<trkpt lat="33.8096701" lon="-118.3944318">
  <ele>-34.64</ele>
  <time>2026-09-02T22:08:10Z</time>
  <course>179.91</course>
  <speed>0.88</speed>
  <fix>3d</fix>
</trkpt>
<trkpt lat="33.8096677" lon="-118.3944321">
  <ele>-35.697</ele>
  <time>2026-09-02T22:08:10Z</time>
  <course>178.01</course>
  <speed>0.8602325267042628</speed>
  <fix>3d</fix>
</trkpt>
<trkpt lat="33.8096685" lon="-118.3944318">
  <ele>-34.73</ele>
  <time>2026-09-02T22:08:10Z</time>
  <course>179.91</course>
  <speed>0.88</speed>
  <fix>3d</fix>
</trkpt>
<trkpt lat="33.8096669" lon="-118.3944321">
  <ele>-35.747</ele>
  <time>2026-09-02T22:08:10Z</time>
  <course>178.05</course>
  <speed>0.8602325267042628</speed>
  <fix>3d</fix>
</trkpt>
<trkpt lat="33.8096685" lon="-118.3944318">
  <ele>-34.73</ele>
  <time>2026-09-02T22:08:10Z</time>
  <course>179.91</course>
  <speed>0.88</speed>
  <fix>3d</fix>
</trkpt>
<trkpt lat="33.8096661" lon="-118.3944321">
  <ele>-35.799</ele>
  <time>2026-09-02T22:08:10Z</time>
  <course>178.1</course>
  <speed>0.8602325267042628</speed>
  <fix>3d</fix>
</trkpt>
<trkpt lat="33.8096668" lon="-118.3944318">
  <ele>-34.83</ele>
  <time>2026-09-02T22:08:10Z</time>
  <course>179.91</course>
  <speed>0.89</speed>
  <fix>3d</fix>
</trkpt>
<trkpt lat="33.8096653" lon="-118.3944321">
  <ele>-35.849</ele>
  <time>2026-09-02T22:08:10Z</time>
  <course>178.15</course>
  <speed>0.8602325267042628</speed>
  <fix>3d</fix>
</trkpt>
<trkpt lat="33.8096668" lon="-118.3944318">
  <ele>-34.83</ele>
  <time>2026-09-02T22:08:10Z</time>
  <course>179.91</course>
  <speed>0.89</speed>
  <fix>3d</fix>
</trkpt>
<trkpt lat="33.8096645" lon="-118.3944321">
  <ele>-35.9</ele>
  <time>2026-09-02T22:08:10Z</time>
  <course>178.19</course>
  <speed>0.8602325267042628</speed>
  <fix>3d</fix>
</trkpt>
<trkpt lat="33.8096653" lon="-118.3944318">
  <ele>-34.93</ele>
  <time>2026-09-02T22:08:10Z</time>
  <course>179.91</course>
  <speed>0.89</speed>
  <fix>3d</fix>
</trkpt>
<trkpt lat="33.8096637" lon="-118.3944321">
  <ele>-35.95</ele>
  <time>2026-09-02T22:08:10Z</time>
  <course>178.23</course>
  <speed>0.8602325267042628</speed>
  <fix>3d</fix>
</trkpt>
<trkpt lat="33.8096653" lon="-118.3944318">
  <ele>-34.93</ele>
  <time>2026-09-02T22:08:10Z</time>
  <course>179.91</course>
  <speed>0.89</speed>
  <fix>3d</fix>
</trkpt>
<trkpt lat="33.8096629" lon="-118.3944321">
  <ele>-36.002</ele>
  <time>2026-09-02T22:08:10Z</time>
  <course>178.27</course>
  <speed>0.8602325267042628</speed>
  <fix>3d</fix>
</trkpt>
<trkpt lat="33.8096637" lon="-118.3944318">
  <ele>-35.03</ele>
  <time>2026-09-02T22:08:10Z</time>
  <course>179.91</course>
  <speed>0.89</speed>
  <fix>3d</fix>
</trkpt>
<trkpt lat="33.8096621" lon="-118.3944321">
  <ele>-36.056</ele>
  <time>2026-09-02T22:08:10Z</time>
  <course>178.31</course>
  <speed>0.8602325267042628</speed>
  <fix>3d</fix>
</trkpt>
<trkpt lat="33.8096637" lon="-118.3944318">
  <ele>-35.03</ele>
  <time>2026-09-02T22:08:10Z</time>
  <course>179.91</course>
  <speed>0.89</speed>
  <fix>3d</fix>
</trkpt>
<trkpt lat="33.8096613" lon="-118.3944321">
  <ele>-36.109</ele>
  <time>2026-09-02T22:08:10Z</time>
  <course>178.36</course>
  <speed>0.8702298546935746</speed>
  <fix>3d</fix>
</trkpt>
<trkpt lat="33.8096621" lon="-118.3944318">
  <ele>-35.13</ele>
  <time>2026-09-02T22:08:10Z</time>
  <course>179.9</course>
  <speed>0.89</speed>
  <fix>3d</fix>
</trkpt>
<trkpt lat="33.8096605" lon="-118.3944321">
  <ele>-36.16</ele>
  <time>2026-09-02T22:08:10Z</time>
  <course>178.39</course>
  <speed>0.8702298546935746</speed>
  <fix>3d</fix>
</trkpt>
<trkpt lat="33.8096621" lon="-118.3944318">
  <ele>-35.13</ele>
  <time>2026-09-02T22:08:10Z</time>
  <course>179.9</course>
  <speed>0.89</speed>
  <fix>3d</fix>
</trkpt>
<trkpt lat="33.8096597" lon="-118.3944321">
  <ele>-36.208</ele>
  <time>2026-09-02T22:08:10Z</time>
  <course>178.43</course>
  <speed>0.8702298546935746</speed>
  <fix>3d</fix>
</trkpt>
<trkpt lat="33.8096604" lon="-118.3944318">
  <ele>-35.22</ele>
  <time>2026-09-02T22:08:10Z</time>
  <course>179.89</course>
  <speed>0.89</speed>
  <fix>3d</fix>
</trkpt>
<trkpt lat="33.8096589" lon="-118.3944321">
  <ele>-36.256</ele>
  <time>2026-09-02T22:08:10Z</time>
  <course>178.47</course>
  <speed>0.8702298546935746</speed>
  <fix>3d</fix>
</trkpt>
<trkpt lat="33.8096604" lon="-118.3944318">
  <ele>-35.22</ele>
  <time>2026-09-02T22:08:10Z</time>
  <course>179.89</course>
  <speed>0.89</speed>
  <fix>3d</fix>
</trkpt>
<trkpt lat="33.8096581" lon="-118.3944321">
  <ele>-36.303</ele>
  <time>2026-09-02T22:08:10Z</time>
  <course>178.5</course>
  <speed>0.8702298546935746</speed>
  <fix>3d</fix>
</trkpt>
<trkpt lat="33.8096587" lon="-118.3944318">
  <ele>-35.32</ele>
  <time>2026-09-02T22:08:10Z</time>
  <course>179.88</course>
  <speed>0.9</speed>
  <fix>3d</fix>
</trkpt>
<trkpt lat="33.8096572" lon="-118.3944321">
  <ele>-36.348</ele>
  <time>2026-09-02T22:08:10Z</time>
  <course>178.54</course>
  <speed>0.8702298546935746</speed>
  <fix>3d</fix>
</trkpt>
<trkpt lat="33.8096587" lon="-118.3944318">
  <ele>-35.32</ele>
  <time>2026-09-02T22:08:10Z</time>
  <course>179.88</course>
  <speed>0.9</speed>
  <fix>3d</fix>
</trkpt>
<trkpt lat="33.8096564" lon="-118.3944321">
  <ele>-36.392</ele>
  <time>2026-09-02T22:08:10Z</time>
  <course>178.58</course>
  <speed>0.8702298546935746</speed>
  <fix>3d</fix>
</trkpt>
<trkpt lat="33.8096572" lon="-118.3944318">
  <ele>-35.41</ele>
  <time>2026-09-02T22:08:10Z</time>
  <course>179.87</course>
  <speed>0.9</speed>
  <fix>3d</fix>
</trkpt>
<trkpt lat="33.8096556" lon="-118.3944321">
  <ele>-36.437</ele>
  <time>2026-09-02T22:08:10Z</time>
  <course>178.61</course>
  <speed>0.8702298546935746</speed>
  <fix>3d</fix>
</trkpt>
<trkpt lat="33.8096572" lon="-118.3944318">
  <ele>-35.41</ele>
  <time>2026-09-02T22:08:10Z</time>
  <course>179.87</course>
  <speed>0.9</speed>
  <fix>3d</fix>
</trkpt>
<trkpt lat="33.8096548" lon="-118.3944321">
  <ele>-36.482</ele>
  <time>2026-09-02T22:08:10Z</time>
  <course>178.64</course>
  <speed>0.8702298546935746</speed>
  <fix>3d</fix>
</trkpt>
<trkpt lat="33.8096556" lon="-118.3944318">
  <ele>-35.49</ele>
  <time>2026-09-02T22:08:10Z</time>
  <course>179.86</course>
  <speed>0.9</speed>
  <fix>3d</fix>
</trkpt>
<trkpt lat="33.809654" lon="-118.3944321">
  <ele>-36.529</ele>
  <time>2026-09-02T22:08:10Z</time>
  <course>178.68</course>
  <speed>0.8702298546935746</speed>
  <fix>3d</fix>
</trkpt>
<trkpt lat="33.8096556" lon="-118.3944318">
  <ele>-35.49</ele>
  <time>2026-09-02T22:08:10Z</time>
  <course>179.86</course>
  <speed>0.9</speed>
  <fix>3d</fix>
</trkpt>
<trkpt lat="33.8096532" lon="-118.3944321">
  <ele>-36.575</ele>
  <time>2026-09-02T22:08:10Z</time>
  <course>178.72</course>
  <speed>0.8702298546935746</speed>
  <fix>3d</fix>
</trkpt>
<trkpt lat="33.8096539" lon="-118.3944318">
  <ele>-35.58</ele>
  <time>2026-09-02T22:08:10Z</time>
  <course>179.86</course>
  <speed>0.9</speed>
  <fix>3d</fix>
</trkpt>
<trkpt lat="33.8096524" lon="-118.3944321">
  <ele>-36.621</ele>
  <time>2026-09-02T22:08:10Z</time>
  <course>178.75</course>
  <speed>0.8702298546935746</speed>
  <fix>3d</fix>
</trkpt>
<trkpt lat="33.8096539" lon="-118.3944318">
  <ele>-35.58</ele>
  <time>2026-09-02T22:08:10Z</time>
  <course>179.86</course>
  <speed>0.9</speed>
  <fix>3d</fix>
</trkpt>
<trkpt lat="33.8096516" lon="-118.3944321">
  <ele>-36.664</ele>
  <time>2026-09-02T22:08:10Z</time>
  <course>178.78</course>
  <speed>0.8802272433866155</speed>
  <fix>3d</fix>
</trkpt>
<trkpt lat="33.8096523" lon="-118.3944318">
  <ele>-35.67</ele>
  <time>2026-09-02T22:08:10Z</time>
  <course>179.86</course>
  <speed>0.9</speed>
  <fix>3d</fix>
</trkpt>
<trkpt lat="33.8096507" lon="-118.3944321">
  <ele>-36.704</ele>
  <time>2026-09-02T22:08:10Z</time>
  <course>178.81</course>
  <speed>0.8702298546935746</speed>
  <fix>3d</fix>
</trkpt>
<trkpt lat="33.8096523" lon="-118.3944318">
  <ele>-35.67</ele>
  <time>2026-09-02T22:08:10Z</time>
  <course>179.86</course>
  <speed>0.9</speed>
  <fix>3d</fix>
</trkpt>
<trkpt lat="33.8096499" lon="-118.3944321">
  <ele>-36.744</ele>
  <time>2026-09-02T22:08:10Z</time>
  <course>178.85</course>
  <speed>0.8802272433866155</speed>
  <fix>3d</fix>
</trkpt>
<trkpt lat="33.8096507" lon="-118.3944318">
  <ele>-35.76</ele>
  <time>2026-09-02T22:08:10Z</time>
  <course>179.87</course>
  <speed>0.9</speed>
  <fix>3d</fix>
</trkpt>
<trkpt lat="33.8096491" lon="-118.3944321">
  <ele>-36.785</ele>
  <time>2026-09-02T22:08:10Z</time>
  <course>178.88</course>
  <speed>0.8802272433866155</speed>
  <fix>3d</fix>
</trkpt>
<trkpt lat="33.8096507" lon="-118.3944318">
  <ele>-35.76</ele>
  <time>2026-09-02T22:08:10Z</time>
  <course>179.87</course>
  <speed>0.9</speed>
  <fix>3d</fix>
</trkpt>
<trkpt lat="33.8096483" lon="-118.394432">
  <ele>-36.827</ele>
  <time>2026-09-02T22:08:10Z</time>
  <course>178.92</course>
  <speed>0.8802272433866155</speed>
  <fix>3d</fix>
</trkpt>
<trkpt lat="33.8096491" lon="-118.3944317">
  <ele>-35.84</ele>
  <time>2026-09-02T22:08:10Z</time>
  <course>179.86</course>
  <speed>0.9</speed>
  <fix>3d</fix>
</trkpt>
<trkpt lat="33.8096475" lon="-118.394432">
  <ele>-36.871</ele>
  <time>2026-09-02T22:08:10Z</time>
  <course>178.95</course>
  <speed>0.8802272433866155</speed>
  <fix>3d</fix>
</trkpt>
<trkpt lat="33.8096491" lon="-118.3944317">
  <ele>-35.84</ele>
  <time>2026-09-02T22:08:10Z</time>
  <course>179.86</course>
  <speed>0.9</speed>
  <fix>3d</fix>
</trkpt>
<trkpt lat="33.8096467" lon="-118.394432">
  <ele>-36.916</ele>
  <time>2026-09-02T22:08:10Z</time>
  <course>179.0</course>
  <speed>0.8802272433866155</speed>
  <fix>3d</fix>
</trkpt>
<trkpt lat="33.8096474" lon="-118.3944317">
  <ele>-35.92</ele>
  <time>2026-09-02T22:08:10Z</time>
  <course>179.9</course>
  <speed>0.9</speed>
  <fix>3d</fix>
</trkpt>
<trkpt lat="33.8096458" lon="-118.394432">
  <ele>-36.961</ele>
  <time>2026-09-02T22:08:10Z</time>
  <course>179.06</course>
  <speed>0.8802272433866155</speed>
  <fix>3d</fix>
</trkpt>
<trkpt lat="33.8096474" lon="-118.3944317">
  <ele>-35.92</ele>
  <time>2026-09-02T22:08:10Z</time>
  <course>179.9</course>
  <speed>0.9</speed>
  <fix>3d</fix>
</trkpt>
<trkpt lat="33.809645" lon="-118.394432">
  <ele>-37.006</ele>
  <time>2026-09-02T22:08:10Z</time>
  <course>179.15</course>
  <speed>0.8802272433866155</speed>
  <fix>3d</fix>
</trkpt>
<trkpt lat="33.8096458" lon="-118.3944317">
  <ele>-36.01</ele>
  <time>2026-09-02T22:08:10Z</time>
  <course>179.99</course>
  <speed>0.91</speed>
  <fix>3d</fix>
</trkpt>
<trkpt lat="33.8096442" lon="-118.394432">
  <ele>-37.049</ele>
  <time>2026-09-02T22:08:10Z</time>
  <course>179.22</course>
  <speed>0.8802272433866155</speed>
  <fix>3d</fix>
</trkpt>
<trkpt lat="33.8096458" lon="-118.3944317">
  <ele>-36.01</ele>
  <time>2026-09-02T22:08:10Z</time>
  <course>179.99</course>
  <speed>0.91</speed>
  <fix>3d</fix>
</trkpt>
<trkpt lat="33.8096434" lon="-118.394432">
  <ele>-37.093</ele>
  <time>2026-09-02T22:08:10Z</time>
  <course>179.3</course>
  <speed>0.8802272433866155</speed>
  <fix>3d</fix>
</trkpt>
<trkpt lat="33.8096441" lon="-118.3944317">
  <ele>-36.1</ele>
  <time>2026-09-02T22:08:10Z</time>
  <course>180.06</course>
  <speed>0.91</speed>
  <fix>3d</fix>
</trkpt>
<trkpt lat="33.8096426" lon="-118.394432">
  <ele>-37.139</ele>
  <time>2026-09-02T22:08:10Z</time>
  <course>179.36</course>
  <speed>0.8802272433866155</speed>
  <fix>3d</fix>
</trkpt>
<trkpt lat="33.8096441" lon="-118.3944317">
  <ele>-36.1</ele>
  <time>2026-09-02T22:08:10Z</time>
  <course>180.06</course>
  <speed>0.91</speed>
  <fix>3d</fix>
</trkpt>
<trkpt lat="33.8096417" lon="-118.394432">
  <ele>-37.188</ele>
  <time>2026-09-02T22:08:11Z</time>
  <course>179.43</course>
  <speed>0.8902246907382428</speed>
  <fix>3d</fix>
</trkpt>
<trkpt lat="33.8096425" lon="-118.3944317">
  <ele>-36.19</ele>
  <time>2026-09-02T22:08:11Z</time>
  <course>180.14</course>
  <speed>0.91</speed>
  <fix>3d</fix>
</trkpt>
<trkpt lat="33.8096409" lon="-118.394432">
  <ele>-37.238</ele>
  <time>2026-09-02T22:08:11Z</time>
  <course>179.48</course>
  <speed>0.8902246907382428</speed>
  <fix>3d</fix>
</trkpt>
<trkpt lat="33.8096425" lon="-118.3944317">
  <ele>-36.19</ele>
  <time>2026-09-02T22:08:11Z</time>
  <course>180.14</course>
  <speed>0.91</speed>
  <fix>3d</fix>
</trkpt>
<trkpt lat="33.8096401" lon="-118.394432">
  <ele>-37.287</ele>
  <time>2026-09-02T22:08:11Z</time>
  <course>179.53</course>
  <speed>0.8902246907382428</speed>
  <fix>3d</fix>
</trkpt>
<trkpt lat="33.8096409" lon="-118.3944317">
  <ele>-36.28</ele>
  <time>2026-09-02T22:08:11Z</time>
  <course>180.2</course>
  <speed>0.91</speed>
  <fix>3d</fix>
</trkpt>
<trkpt lat="33.8096393" lon="-118.394432">
  <ele>-37.338</ele>
  <time>2026-09-02T22:08:11Z</time>
  <course>179.57</course>
  <speed>0.8902246907382428</speed>
  <fix>3d</fix>
</trkpt>
<trkpt lat="33.8096409" lon="-118.3944317">
  <ele>-36.28</ele>
  <time>2026-09-02T22:08:11Z</time>
  <course>180.2</course>
  <speed>0.91</speed>
  <fix>3d</fix>
</trkpt>
<trkpt lat="33.8096384" lon="-118.394432">
  <ele>-37.387</ele>
  <time>2026-09-02T22:08:11Z</time>
  <course>179.61</course>
  <speed>0.8902246907382428</speed>
  <fix>3d</fix>
</trkpt>
<trkpt lat="33.8096393" lon="-118.3944317">
  <ele>-36.38</ele>
  <time>2026-09-02T22:08:11Z</time>
  <course>180.22</course>
  <speed>0.91</speed>
  <fix>3d</fix>
</trkpt>
<trkpt lat="33.8096376" lon="-118.394432">
  <ele>-37.437</ele>
  <time>2026-09-02T22:08:11Z</time>
  <course>179.65</course>
  <speed>0.8902246907382428</speed>
  <fix>3d</fix>
</trkpt>
<trkpt lat="33.8096393" lon="-118.3944317">
  <ele>-36.38</ele>
  <time>2026-09-02T22:08:11Z</time>
  <course>180.22</course>
  <speed>0.91</speed>
  <fix>3d</fix>
</trkpt>
<trkpt lat="33.8096368" lon="-118.394432">
  <ele>-37.487</ele>
  <time>2026-09-02T22:08:11Z</time>
  <course>179.68</course>
  <speed>0.8902246907382428</speed>
  <fix>3d</fix>
</trkpt>
<trkpt lat="33.8096376" lon="-118.3944317">
  <ele>-36.48</ele>
  <time>2026-09-02T22:08:11Z</time>
  <course>180.25</course>
  <speed>0.91</speed>
  <fix>3d</fix>
</trkpt>
<trkpt lat="33.809636" lon="-118.394432">
  <ele>-37.537</ele>
  <time>2026-09-02T22:08:11Z</time>
  <course>179.71</course>
  <speed>0.8902246907382428</speed>
  <fix>3d</fix>
</trkpt>
<trkpt lat="33.8096376" lon="-118.3944317">
  <ele>-36.48</ele>
  <time>2026-09-02T22:08:11Z</time>
  <course>180.25</course>
  <speed>0.91</speed>
  <fix>3d</fix>
</trkpt>
<trkpt lat="33.8096351" lon="-118.394432">
  <ele>-37.586</ele>
  <time>2026-09-02T22:08:11Z</time>
  <course>179.74</course>
  <speed>0.900222194794152</speed>
  <fix>3d</fix>
</trkpt>
<trkpt lat="33.809636" lon="-118.3944317">
  <ele>-36.58</ele>
  <time>2026-09-02T22:08:11Z</time>
  <course>180.27</course>
  <speed>0.92</speed>
  <fix>3d</fix>
</trkpt>
<trkpt lat="33.8096343" lon="-118.394432">
  <ele>-37.635</ele>
  <time>2026-09-02T22:08:11Z</time>
  <course>179.76</course>
  <speed>0.900222194794152</speed>
  <fix>3d</fix>
</trkpt>
<trkpt lat="33.809636" lon="-118.3944317">
  <ele>-36.58</ele>
  <time>2026-09-02T22:08:11Z</time>
  <course>180.27</course>
  <speed>0.92</speed>
  <fix>3d</fix>
</trkpt>
<trkpt lat="33.8096335" lon="-118.394432">
  <ele>-37.684</ele>
  <time>2026-09-02T22:08:11Z</time>
  <course>179.79</course>
  <speed>0.900222194794152</speed>
  <fix>3d</fix>
</trkpt>
<trkpt lat="33.8096343" lon="-118.3944317">
  <ele>-36.68</ele>
  <time>2026-09-02T22:08:11Z</time>
  <course>180.28</course>
  <speed>0.92</speed>
  <fix>3d</fix>
</trkpt>
<trkpt lat="33.8096326" lon="-118.394432">
  <ele>-37.733</ele>
  <time>2026-09-02T22:08:11Z</time>
  <course>179.81</course>
  <speed>0.900222194794152</speed>
  <fix>3d</fix>
</trkpt>
<trkpt lat="33.8096343" lon="-118.3944317">
  <ele>-36.68</ele>
  <time>2026-09-02T22:08:11Z</time>
  <course>180.28</course>
  <speed>0.92</speed>
  <fix>3d</fix>
</trkpt>
<trkpt lat="33.8096318" lon="-118.394432">
  <ele>-37.781</ele>
  <time>2026-09-02T22:08:11Z</time>
  <course>179.84</course>
  <speed>0.900222194794152</speed>
  <fix>3d</fix>
</trkpt>
<trkpt lat="33.8096326" lon="-118.3944317">
  <ele>-36.78</ele>
  <time>2026-09-02T22:08:11Z</time>
  <course>180.28</course>
  <speed>0.92</speed>
  <fix>3d</fix>
</trkpt>
<trkpt lat="33.809631" lon="-118.394432">
  <ele>-37.83</ele>
  <time>2026-09-02T22:08:11Z</time>
  <course>179.85</course>
  <speed>0.900222194794152</speed>
  <fix>3d</fix>
</trkpt>
<trkpt lat="33.8096326" lon="-118.3944317">
  <ele>-36.78</ele>
  <time>2026-09-02T22:08:11Z</time>
  <course>180.28</course>
  <speed>0.92</speed>
  <fix>3d</fix>
</trkpt>
<trkpt lat="33.8096301" lon="-118.394432">
  <ele>-37.878</ele>
  <time>2026-09-02T22:08:11Z</time>
  <course>179.88</course>
  <speed>0.900222194794152</speed>
  <fix>3d</fix>
</trkpt>
<trkpt lat="33.8096309" lon="-118.3944317">
  <ele>-36.88</ele>
  <time>2026-09-02T22:08:11Z</time>
  <course>180.29</course>
  <speed>0.92</speed>
  <fix>3d</fix>
</trkpt>
<trkpt lat="33.8096293" lon="-118.394432">
  <ele>-37.927</ele>
  <time>2026-09-02T22:08:11Z</time>
  <course>179.9</course>
  <speed>0.900222194794152</speed>
  <fix>3d</fix>
</trkpt>
<trkpt lat="33.8096309" lon="-118.3944317">
  <ele>-36.88</ele>
  <time>2026-09-02T22:08:11Z</time>
  <course>180.29</course>
  <speed>0.92</speed>
  <fix>3d</fix>
</trkpt>
<trkpt lat="33.8096285" lon="-118.394432">
  <ele>-37.975</ele>
  <time>2026-09-02T22:08:11Z</time>
  <course>179.92</course>
  <speed>0.900222194794152</speed>
  <fix>3d</fix>
</trkpt>
<trkpt lat="33.8096293" lon="-118.3944317">
  <ele>-36.97</ele>
  <time>2026-09-02T22:08:11Z</time>
  <course>180.31</course>
  <speed>0.92</speed>
  <fix>3d</fix>
</trkpt>
<trkpt lat="33.8096276" lon="-118.394432">
  <ele>-38.022</ele>
  <time>2026-09-02T22:08:11Z</time>
  <course>179.94</course>
  <speed>0.900222194794152</speed>
  <fix>3d</fix>
</trkpt>
<trkpt lat="33.8096293" lon="-118.3944317">
  <ele>-36.97</ele>
  <time>2026-09-02T22:08:11Z</time>
  <course>180.31</course>
  <speed>0.92</speed>
  <fix>3d</fix>
</trkpt>
<trkpt lat="33.8096268" lon="-118.394432">
  <ele>-38.068</ele>
  <time>2026-09-02T22:08:11Z</time>
  <course>179.96</course>
  <speed>0.900222194794152</speed>
  <fix>3d</fix>
</trkpt>
<trkpt lat="33.8096276" lon="-118.3944317">
  <ele>-37.06</ele>
  <time>2026-09-02T22:08:11Z</time>
  <course>180.32</course>
  <speed>0.92</speed>
  <fix>3d</fix>
</trkpt>
<trkpt lat="33.809626" lon="-118.394432">
  <ele>-38.114</ele>
  <time>2026-09-02T22:08:11Z</time>
  <course>179.97</course>
  <speed>0.900222194794152</speed>
  <fix>3d</fix>
</trkpt>
<trkpt lat="33.8096276" lon="-118.3944317">
  <ele>-37.06</ele>
  <time>2026-09-02T22:08:11Z</time>
  <course>180.32</course>
  <speed>0.92</speed>
  <fix>3d</fix>
</trkpt>
<trkpt lat="33.8096251" lon="-118.394432">
  <ele>-38.159</ele>
  <time>2026-09-02T22:08:11Z</time>
  <course>179.99</course>
  <speed>0.900222194794152</speed>
  <fix>3d</fix>
</trkpt>
<trkpt lat="33.8096259" lon="-118.3944317">
  <ele>-37.15</ele>
  <time>2026-09-02T22:08:11Z</time>
  <course>180.35</course>
  <speed>0.93</speed>
  <fix>3d</fix>
</trkpt>
<trkpt lat="33.8096243" lon="-118.394432">
  <ele>-38.204</ele>
  <time>2026-09-02T22:08:11Z</time>
  <course>180.01</course>
  <speed>0.900222194794152</speed>
  <fix>3d</fix>
</trkpt>
<trkpt lat="33.8096259" lon="-118.3944317">
  <ele>-37.15</ele>
  <time>2026-09-02T22:08:11Z</time>
  <course>180.35</course>
  <speed>0.93</speed>
  <fix>3d</fix>
</trkpt>
<trkpt lat="33.8096234" lon="-118.394432">
  <ele>-38.246</ele>
  <time>2026-09-02T22:08:11Z</time>
  <course>180.03</course>
  <speed>0.900222194794152</speed>
  <fix>3d</fix>
</trkpt>
<trkpt lat="33.8096242" lon="-118.3944317">
  <ele>-37.23</ele>
  <time>2026-09-02T22:08:11Z</time>
  <course>180.37</course>
  <speed>0.93</speed>
  <fix>3d</fix>
</trkpt>
<trkpt lat="33.8096226" lon="-118.394432">
  <ele>-38.288</ele>
  <time>2026-09-02T22:08:11Z</time>
  <course>180.04</course>
  <speed>0.900222194794152</speed>
  <fix>3d</fix>
</trkpt>
<trkpt lat="33.8096242" lon="-118.3944317">
  <ele>-37.23</ele>
  <time>2026-09-02T22:08:11Z</time>
  <course>180.37</course>
  <speed>0.93</speed>
  <fix>3d</fix>
</trkpt>
<trkpt lat="33.8096217" lon="-118.394432">
  <ele>-38.329</ele>
  <time>2026-09-02T22:08:11Z</time>
  <course>180.05</course>
  <speed>0.900222194794152</speed>
  <fix>3d</fix>
</trkpt>
<trkpt lat="33.8096226" lon="-118.3944318">
  <ele>-37.32</ele>
  <time>2026-09-02T22:08:11Z</time>
  <course>180.38</course>
  <speed>0.93</speed>
  <fix>3d</fix>
</trkpt>
<trkpt lat="33.8096209" lon="-118.394432">
  <ele>-38.368</ele>
  <time>2026-09-02T22:08:11Z</time>
  <course>180.06</course>
  <speed>0.900222194794152</speed>
  <fix>3d</fix>
</trkpt>
<trkpt lat="33.8096226" lon="-118.3944318">
  <ele>-37.32</ele>
  <time>2026-09-02T22:08:11Z</time>
  <course>180.38</course>
  <speed>0.93</speed>
  <fix>3d</fix>
</trkpt>
<trkpt lat="33.8096201" lon="-118.394432">
  <ele>-38.406</ele>
  <time>2026-09-02T22:08:11Z</time>
  <course>180.05</course>
  <speed>0.9102197536858887</speed>
  <fix>3d</fix>
</trkpt>
<trkpt lat="33.8096209" lon="-118.3944318">
  <ele>-37.4</ele>
  <time>2026-09-02T22:08:11Z</time>
  <course>180.33</course>
  <speed>0.93</speed>
  <fix>3d</fix>
</trkpt>
<trkpt lat="33.8096192" lon="-118.394432">
  <ele>-38.445</ele>
  <time>2026-09-02T22:08:11Z</time>
  <course>180.02</course>
  <speed>0.9102197536858887</speed>
  <fix>3d</fix>
</trkpt>
<trkpt lat="33.8096209" lon="-118.3944318">
  <ele>-37.4</ele>
  <time>2026-09-02T22:08:11Z</time>
  <course>180.33</course>
  <speed>0.93</speed>
  <fix>3d</fix>
</trkpt>
<trkpt lat="33.8096184" lon="-118.394432">
  <ele>-38.485</ele>
  <time>2026-09-02T22:08:11Z</time>
  <course>179.98</course>
  <speed>0.8802272433866155</speed>
  <fix>3d</fix>
</trkpt>
<trkpt lat="33.8096192" lon="-118.3944318">
  <ele>-37.48</ele>
  <time>2026-09-02T22:08:11Z</time>
  <course>180.25</course>
  <speed>0.93</speed>
  <fix>3d</fix>
</trkpt>
<trkpt lat="33.8096176" lon="-118.394432">
  <ele>-38.524</ele>
  <time>2026-09-02T22:08:11Z</time>
  <course>179.95</course>
  <speed>0.8402380615040002</speed>
  <fix>3d</fix>
</trkpt>
<trkpt lat="33.8096192" lon="-118.3944318">
  <ele>-37.48</ele>
  <time>2026-09-02T22:08:11Z</time>
  <course>180.25</course>
  <speed>0.93</speed>
  <fix>3d</fix>
</trkpt>
<trkpt lat="33.8096168" lon="-118.394432">
  <ele>-38.564</ele>
  <time>2026-09-02T22:08:11Z</time>
  <course>179.93</course>
  <speed>0.8500588214941364</speed>
  <fix>3d</fix>
</trkpt>
<trkpt lat="33.8096177" lon="-118.3944318">
  <ele>-37.55</ele>
  <time>2026-09-02T22:08:11Z</time>
  <course>180.2</course>
  <speed>0.9</speed>
  <fix>3d</fix>
</trkpt>
<trkpt lat="33.809616" lon="-118.394432">
  <ele>-38.606</ele>
  <time>2026-09-02T22:08:11Z</time>
  <course>179.91</course>
  <speed>0.8602325267042628</speed>
  <fix>3d</fix>
</trkpt>
<trkpt lat="33.8096177" lon="-118.3944318">
  <ele>-37.55</ele>
  <time>2026-09-02T22:08:11Z</time>
  <course>180.2</course>
  <speed>0.9</speed>
  <fix>3d</fix>
</trkpt>
<trkpt lat="33.8096152" lon="-118.394432">
  <ele>-38.649</ele>
  <time>2026-09-02T22:08:11Z</time>
  <course>179.89</course>
  <speed>0.8700574693662483</speed>
  <fix>3d</fix>
</trkpt>
<trkpt lat="33.8096161" lon="-118.3944318">
  <ele>-37.64</ele>
  <time>2026-09-02T22:08:11Z</time>
  <course>180.16</course>
  <speed>0.88</speed>
  <fix>3d</fix>
</trkpt>
<trkpt lat="33.8096144" lon="-118.394432">
  <ele>-38.692</ele>
  <time>2026-09-02T22:08:11Z</time>
  <course>179.87</course>
  <speed>0.880056816347672</speed>
  <fix>3d</fix>
</trkpt>
<trkpt lat="33.8096161" lon="-118.3944318">
  <ele>-37.64</ele>
  <time>2026-09-02T22:08:11Z</time>
  <course>180.16</course>
  <speed>0.88</speed>
  <fix>3d</fix>
</trkpt>
<trkpt lat="33.8096136" lon="-118.394432">
  <ele>-38.736</ele>
  <time>2026-09-02T22:08:11Z</time>
  <course>179.86</course>
  <speed>0.8900561780022652</speed>
  <fix>3d</fix>
</trkpt>
<trkpt lat="33.8096144" lon="-118.3944318">
  <ele>-37.72</ele>
  <time>2026-09-02T22:08:11Z</time>
  <course>180.11</course>
  <speed>0.89</speed>
  <fix>3d</fix>
</trkpt>
<trkpt lat="33.8096128" lon="-118.394432">
  <ele>-38.781</ele>
  <time>2026-09-02T22:08:11Z</time>
  <course>179.84</course>
  <speed>0.8900561780022652</speed>
  <fix>3d</fix>
</trkpt>
<trkpt lat="33.8096144" lon="-118.3944318">
  <ele>-37.72</ele>
  <time>2026-09-02T22:08:11Z</time>
  <course>180.11</course>
  <speed>0.89</speed>
  <fix>3d</fix>
</trkpt>
<trkpt lat="33.8096119" lon="-118.394432">
  <ele>-38.826</ele>
  <time>2026-09-02T22:08:11Z</time>
  <course>179.84</course>
  <speed>0.9000555538409837</speed>
  <fix>3d</fix>
</trkpt>
<trkpt lat="33.8096128" lon="-118.3944318">
  <ele>-37.8</ele>
  <time>2026-09-02T22:08:11Z</time>
  <course>180.07</course>
  <speed>0.91</speed>
  <fix>3d</fix>
</trkpt>
<trkpt lat="33.8096111" lon="-118.394432">
  <ele>-38.871</ele>
  <time>2026-09-02T22:08:11Z</time>
  <course>179.84</course>
  <speed>0.9000555538409837</speed>
  <fix>3d</fix>
</trkpt>
<trkpt lat="33.8096128" lon="-118.3944318">
  <ele>-37.8</ele>
  <time>2026-09-02T22:08:11Z</time>
  <course>180.07</course>
  <speed>0.91</speed>
  <fix>3d</fix>
</trkpt>
<trkpt lat="33.8096103" lon="-118.394432">
  <ele>-38.917</ele>
  <time>2026-09-02T22:08:11Z</time>
  <course>179.84</course>
  <speed>0.9100549433962765</speed>
  <fix>3d</fix>
</trkpt>
<trkpt lat="33.8096112" lon="-118.3944318">
  <ele>-37.88</ele>
  <time>2026-09-02T22:08:11Z</time>
  <course>180.04</course>
  <speed>0.92</speed>
  <fix>3d</fix>
</trkpt>
<trkpt lat="33.8096094" lon="-118.394432">
  <ele>-38.964</ele>
  <time>2026-09-02T22:08:11Z</time>
  <course>179.85</course>
  <speed>0.9100549433962765</speed>
  <fix>3d</fix>
</trkpt>
<trkpt lat="33.8096112" lon="-118.3944318">
  <ele>-37.88</ele>
  <time>2026-09-02T22:08:11Z</time>
  <course>180.04</course>
  <speed>0.92</speed>
  <fix>3d</fix>
</trkpt>
<trkpt lat="33.8096086" lon="-118.394432">
  <ele>-39.01</ele>
  <time>2026-09-02T22:08:11Z</time>
  <course>179.86</course>
  <speed>0.9100549433962765</speed>
  <fix>3d</fix>
</trkpt>
<trkpt lat="33.8096095" lon="-118.3944318">
  <ele>-37.97</ele>
  <time>2026-09-02T22:08:11Z</time>
  <course>180.02</course>
  <speed>0.93</speed>
  <fix>3d</fix>
</trkpt>
<trkpt lat="33.8096077" lon="-118.394432">
  <ele>-39.057</ele>
  <time>2026-09-02T22:08:11Z</time>
  <course>179.86</course>
  <speed>0.9200543462209175</speed>
  <fix>3d</fix>
</trkpt>
<trkpt lat="33.8096095" lon="-118.3944318">
  <ele>-37.97</ele>
  <time>2026-09-02T22:08:11Z</time>
  <course>180.02</course>
  <speed>0.93</speed>
  <fix>3d</fix>
</trkpt>
<trkpt lat="33.8096069" lon="-118.394432">
  <ele>-39.104</ele>
  <time>2026-09-02T22:08:11Z</time>
  <course>179.88</course>
  <speed>0.9200543462209175</speed>
  <fix>3d</fix>
</trkpt>
<trkpt lat="33.8096078" lon="-118.3944318">
  <ele>-38.06</ele>
  <time>2026-09-02T22:08:11Z</time>
  <course>180.01</course>
  <speed>0.93</speed>
  <fix>3d</fix>
</trkpt>
<trkpt lat="33.8096061" lon="-118.394432">
  <ele>-39.152</ele>
  <time>2026-09-02T22:08:11Z</time>
  <course>179.89</course>
  <speed>0.9200543462209175</speed>
  <fix>3d</fix>
</trkpt>
<trkpt lat="33.8096078" lon="-118.3944318">
  <ele>-38.06</ele>
  <time>2026-09-02T22:08:11Z</time>
  <course>180.01</course>
  <speed>0.93</speed>
  <fix>3d</fix>
</trkpt>
<trkpt lat="33.8096052" lon="-118.394432">
  <ele>-39.202</ele>
  <time>2026-09-02T22:08:11Z</time>
  <course>179.9</course>
  <speed>0.9200543462209175</speed>
  <fix>3d</fix>
</trkpt>
<trkpt lat="33.8096061" lon="-118.3944318">
  <ele>-38.15</ele>
  <time>2026-09-02T22:08:11Z</time>
  <course>179.98</course>
  <speed>0.94</speed>
  <fix>3d</fix>
</trkpt>
<trkpt lat="33.8096043" lon="-118.394432">
  <ele>-39.252</ele>
  <time>2026-09-02T22:08:11Z</time>
  <course>179.91</course>
  <speed>0.9200543462209175</speed>
  <fix>3d</fix>
</trkpt>
<trkpt lat="33.8096061" lon="-118.3944318">
  <ele>-38.15</ele>
  <time>2026-09-02T22:08:11Z</time>
  <course>179.98</course>
  <speed>0.94</speed>
  <fix>3d</fix>
</trkpt>
<trkpt lat="33.8096035" lon="-118.394432">
  <ele>-39.303</ele>
  <time>2026-09-02T22:08:11Z</time>
  <course>179.92</course>
  <speed>0.9200543462209175</speed>
  <fix>3d</fix>
</trkpt>
<trkpt lat="33.8096044" lon="-118.3944318">
  <ele>-38.25</ele>
  <time>2026-09-02T22:08:11Z</time>
  <course>179.97</course>
  <speed>0.94</speed>
  <fix>3d</fix>
</trkpt>
<trkpt lat="33.8096026" lon="-118.394432">
  <ele>-39.355</ele>
  <time>2026-09-02T22:08:11Z</time>
  <course>179.93</course>
  <speed>0.9300537618869137</speed>
  <fix>3d</fix>
</trkpt>
<trkpt lat="33.8096044" lon="-118.3944318">
  <ele>-38.25</ele>
  <time>2026-09-02T22:08:11Z</time>
  <course>179.97</course>
  <speed>0.94</speed>
  <fix>3d</fix>
</trkpt>
<trkpt lat="33.8096018" lon="-118.394432">
  <ele>-39.406</ele>
  <time>2026-09-02T22:08:11Z</time>
  <course>179.94</course>
  <speed>0.9300537618869137</speed>
  <fix>3d</fix>
</trkpt>
<trkpt lat="33.8096027" lon="-118.3944318">
  <ele>-38.35</ele>
  <time>2026-09-02T22:08:11Z</time>
  <course>179.96</course>
  <speed>0.95</speed>
  <fix>3d</fix>
</trkpt>
<trkpt lat="33.8096009" lon="-118.394432">
  <ele>-39.457</ele>
  <time>2026-09-02T22:08:11Z</time>
  <course>179.95</course>
  <speed>0.9300537618869137</speed>
  <fix>3d</fix>
</trkpt>
<trkpt lat="33.8096027" lon="-118.3944318">
  <ele>-38.35</ele>
  <time>2026-09-02T22:08:11Z</time>
  <course>179.96</course>
  <speed>0.95</speed>
  <fix>3d</fix>
</trkpt>
<trkpt lat="33.8096001" lon="-118.394432">
  <ele>-39.508</ele>
  <time>2026-09-02T22:08:11Z</time>
  <course>179.97</course>
  <speed>0.8400595217006948</speed>
  <fix>3d</fix>
</trkpt>
<trkpt lat="33.809601" lon="-118.3944318">
  <ele>-38.46</ele>
  <time>2026-09-02T22:08:11Z</time>
  <course>179.94</course>
  <speed>0.95</speed>
  <fix>3d</fix>
</trkpt>
<trkpt lat="33.8095993" lon="-118.394432">
  <ele>-39.555</ele>
  <time>2026-09-02T22:08:11Z</time>
  <course>179.99</course>
  <speed>0.8600581375697809</speed>
  <fix>3d</fix>
</trkpt>
<trkpt lat="33.809601" lon="-118.3944318">
  <ele>-38.46</ele>
  <time>2026-09-02T22:08:11Z</time>
  <course>179.94</course>
  <speed>0.95</speed>
  <fix>3d</fix>
</trkpt>
<trkpt lat="33.8095985" lon="-118.394432">
  <ele>-39.601</ele>
  <time>2026-09-02T22:08:11Z</time>
  <course>180.03</course>
  <speed>0.7900632886041472</speed>
  <fix>3d</fix>
</trkpt>
<trkpt lat="33.8095993" lon="-118.3944318">
  <ele>-38.55</ele>
  <time>2026-09-02T22:08:11Z</time>
  <course>179.93</course>
  <speed>0.92</speed>
  <fix>3d</fix>
</trkpt>
<trkpt lat="33.8095978" lon="-118.394432">
  <ele>-39.645</ele>
  <time>2026-09-02T22:08:11Z</time>
  <course>180.05</course>
  <speed>0.8200609733428362</speed>
  <fix>3d</fix>
</trkpt>
<trkpt lat="33.8095993" lon="-118.3944318">
  <ele>-38.55</ele>
  <time>2026-09-02T22:08:11Z</time>
  <course>179.93</course>
  <speed>0.92</speed>
  <fix>3d</fix>
</trkpt>
<trkpt lat="33.809597" lon="-118.394432">
  <ele>-39.691</ele>
  <time>2026-09-02T22:08:11Z</time>
  <course>180.07</course>
  <speed>0.8400595217006948</speed>
  <fix>3d</fix>
</trkpt>
<trkpt lat="33.8095978" lon="-118.3944318">
  <ele>-38.64</ele>
  <time>2026-09-02T22:08:11Z</time>
  <course>179.93</course>
  <speed>0.87</speed>
  <fix>3d</fix>
</trkpt>
<trkpt lat="33.8095962" lon="-118.394432">
  <ele>-39.737</ele>
  <time>2026-09-02T22:08:11Z</time>
  <course>180.08</course>
  <speed>0.8500588214941364</speed>
  <fix>3d</fix>
</trkpt>
<trkpt lat="33.8095978" lon="-118.3944318">
  <ele>-38.64</ele>
  <time>2026-09-02T22:08:11Z</time>
  <course>179.93</course>
  <speed>0.87</speed>
  <fix>3d</fix>
</trkpt>
<trkpt lat="33.8095954" lon="-118.394432">
  <ele>-39.783</ele>
  <time>2026-09-02T22:08:11Z</time>
  <course>180.1</course>
  <speed>0.8700574693662483</speed>
  <fix>3d</fix>
</trkpt>
<trkpt lat="33.8095962" lon="-118.3944318">
  <ele>-38.73</ele>
  <time>2026-09-02T22:08:11Z</time>
  <course>179.91</course>
  <speed>0.86</speed>
  <fix>3d</fix>
</trkpt>
<trkpt lat="33.8095946" lon="-118.394432">
  <ele>-39.829</ele>
  <time>2026-09-02T22:08:11Z</time>
  <course>180.1</course>
  <speed>0.880056816347672</speed>
  <fix>3d</fix>
</trkpt>
<trkpt lat="33.8095962" lon="-118.3944318">
  <ele>-38.73</ele>
  <time>2026-09-02T22:08:11Z</time>
  <course>179.91</course>
  <speed>0.86</speed>
  <fix>3d</fix>
</trkpt>
<trkpt lat="33.8095938" lon="-118.394432">
  <ele>-39.876</ele>
  <time>2026-09-02T22:08:11Z</time>
  <course>180.11</course>
  <speed>0.8900561780022652</speed>
  <fix>3d</fix>
</trkpt>
<trkpt lat="33.8095947" lon="-118.3944318">
  <ele>-38.83</ele>
  <time>2026-09-02T22:08:11Z</time>
  <course>179.88</course>
  <speed>0.89</speed>
  <fix>3d</fix>
</trkpt>
<trkpt lat="33.809593" lon="-118.394432">
  <ele>-39.923</ele>
  <time>2026-09-02T22:08:11Z</time>
  <course>180.12</course>
  <speed>0.9000555538409837</speed>
  <fix>3d</fix>
</trkpt>
<trkpt lat="33.8095947" lon="-118.3944318">
  <ele>-38.83</ele>
  <time>2026-09-02T22:08:11Z</time>
  <course>179.88</course>
  <speed>0.89</speed>
  <fix>3d</fix>
</trkpt>
<trkpt lat="33.8095921" lon="-118.394432">
  <ele>-39.969</ele>
  <time>2026-09-02T22:08:11Z</time>
  <course>180.13</course>
  <speed>0.9000555538409837</speed>
  <fix>3d</fix>
</trkpt>
<trkpt lat="33.809593" lon="-118.3944318">
  <ele>-38.92</ele>
  <time>2026-09-02T22:08:11Z</time>
  <course>179.86</course>
  <speed>0.91</speed>
  <fix>3d</fix>
</trkpt>
<trkpt lat="33.8095913" lon="-118.394432">
  <ele>-40.014</ele>
  <time>2026-09-02T22:08:11Z</time>
  <course>180.14</course>
  <speed>0.9100549433962765</speed>
  <fix>3d</fix>
</trkpt>
<trkpt lat="33.809593" lon="-118.3944318">
  <ele>-38.92</ele>
  <time>2026-09-02T22:08:11Z</time>
  <course>179.86</course>
  <speed>0.91</speed>
  <fix>3d</fix>
</trkpt>
<trkpt lat="33.8095904" lon="-118.394432">
  <ele>-40.06</ele>
  <time>2026-09-02T22:08:11Z</time>
  <course>180.15</course>
  <speed>0.9200543462209175</speed>
  <fix>3d</fix>
</trkpt>
<trkpt lat="33.8095914" lon="-118.3944318">
  <ele>-39.01</ele>
  <time>2026-09-02T22:08:11Z</time>
  <course>179.83</course>
  <speed>0.93</speed>
  <fix>3d</fix>
</trkpt>
<trkpt lat="33.8095896" lon="-118.394432">
  <ele>-40.107</ele>
  <time>2026-09-02T22:08:11Z</time>
  <course>180.16</course>
  <speed>0.9200543462209175</speed>
  <fix>3d</fix>
</trkpt>
<trkpt lat="33.8095914" lon="-118.3944318">
  <ele>-39.01</ele>
  <time>2026-09-02T22:08:11Z</time>
  <course>179.83</course>
  <speed>0.93</speed>
  <fix>3d</fix>
</trkpt>
<trkpt lat="33.8095887" lon="-118.394432">
  <ele>-40.153</ele>
  <time>2026-09-02T22:08:11Z</time>
  <course>180.17</course>
  <speed>0.9300537618869137</speed>
  <fix>3d</fix>
</trkpt>
<trkpt lat="33.8095897" lon="-118.3944318">
  <ele>-39.09</ele>
  <time>2026-09-02T22:08:11Z</time>
  <course>179.82</course>
  <speed>0.94</speed>
  <fix>3d</fix>
</trkpt>
<trkpt lat="33.8095879" lon="-118.394432">
  <ele>-40.199</ele>
  <time>2026-09-02T22:08:11Z</time>
  <course>180.18</course>
  <speed>0.9300537618869137</speed>
  <fix>3d</fix>
</trkpt>
<trkpt lat="33.8095897" lon="-118.3944318">
  <ele>-39.09</ele>
  <time>2026-09-02T22:08:11Z</time>
  <course>179.82</course>
  <speed>0.94</speed>
  <fix>3d</fix>
</trkpt>
<trkpt lat="33.809587" lon="-118.394432">
  <ele>-40.244</ele>
  <time>2026-09-02T22:08:11Z</time>
  <course>180.19</course>
  <speed>0.9300537618869137</speed>
  <fix>3d</fix>
</trkpt>
<trkpt lat="33.809588" lon="-118.3944318">
  <ele>-39.18</ele>
  <time>2026-09-02T22:08:11Z</time>
  <course>179.79</course>
  <speed>0.95</speed>
  <fix>3d</fix>
</trkpt>
<trkpt lat="33.8095862" lon="-118.394432">
  <ele>-40.29</ele>
  <time>2026-09-02T22:08:11Z</time>
  <course>180.19</course>
  <speed>0.9300537618869137</speed>
  <fix>3d</fix>
</trkpt>
<trkpt lat="33.809588" lon="-118.3944318">
  <ele>-39.18</ele>
  <time>2026-09-02T22:08:11Z</time>
  <course>179.79</course>
  <speed>0.95</speed>
  <fix>3d</fix>
</trkpt>
<trkpt lat="33.8095853" lon="-118.394432">
  <ele>-40.337</ele>
  <time>2026-09-02T22:08:11Z</time>
  <course>180.21</course>
  <speed>0.9400531899844816</speed>
  <fix>3d</fix>
</trkpt>
<trkpt lat="33.8095862" lon="-118.3944318">
  <ele>-39.27</ele>
  <time>2026-09-02T22:08:11Z</time>
  <course>179.77</course>
  <speed>0.95</speed>
  <fix>3d</fix>
</trkpt>
<trkpt lat="33.8095845" lon="-118.394432">
  <ele>-40.384</ele>
  <time>2026-09-02T22:08:11Z</time>
  <course>180.23</course>
  <speed>0.9400531899844816</speed>
  <fix>3d</fix>
</trkpt>
<trkpt lat="33.8095862" lon="-118.3944318">
  <ele>-39.27</ele>
  <time>2026-09-02T22:08:11Z</time>
  <course>179.77</course>
  <speed>0.95</speed>
  <fix>3d</fix>
</trkpt>
<trkpt lat="33.8095836" lon="-118.394432">
  <ele>-40.43</ele>
  <time>2026-09-02T22:08:11Z</time>
  <course>180.24</course>
  <speed>0.9400531899844816</speed>
  <fix>3d</fix>
</trkpt>
<trkpt lat="33.8095845" lon="-118.3944318">
  <ele>-39.36</ele>
  <time>2026-09-02T22:08:11Z</time>
  <course>179.77</course>
  <speed>0.96</speed>
  <fix>3d</fix>
</trkpt>
<trkpt lat="33.8095827" lon="-118.394432">
  <ele>-40.475</ele>
  <time>2026-09-02T22:08:11Z</time>
  <course>180.25</course>
  <speed>0.9400531899844816</speed>
  <fix>3d</fix>
</trkpt>
<trkpt lat="33.8095845" lon="-118.3944318">
  <ele>-39.36</ele>
  <time>2026-09-02T22:08:11Z</time>
  <course>179.77</course>
  <speed>0.96</speed>
  <fix>3d</fix>
</trkpt>
<trkpt lat="33.8095818" lon="-118.394432">
  <ele>-40.519</ele>
  <time>2026-09-02T22:08:11Z</time>
  <course>180.27</course>
  <speed>0.9400531899844816</speed>
  <fix>3d</fix>
</trkpt>
<trkpt lat="33.8095828" lon="-118.3944318">
  <ele>-39.45</ele>
  <time>2026-09-02T22:08:11Z</time>
  <course>179.75</course>
  <speed>0.96</speed>
  <fix>3d</fix>
</trkpt>
<trkpt lat="33.809581" lon="-118.394432">
  <ele>-40.563</ele>
  <time>2026-09-02T22:08:11Z</time>
  <course>180.29</course>
  <speed>0.8500588214941364</speed>
  <fix>3d</fix>
</trkpt>
<trkpt lat="33.8095828" lon="-118.3944318">
  <ele>-39.45</ele>
  <time>2026-09-02T22:08:11Z</time>
  <course>179.75</course>
  <speed>0.96</speed>
  <fix>3d</fix>
</trkpt>
<trkpt lat="33.8095802" lon="-118.394432">
  <ele>-40.605</ele>
  <time>2026-09-02T22:08:11Z</time>
  <course>180.32</course>
  <speed>0.880056816347672</speed>
  <fix>3d</fix>
</trkpt>
<trkpt lat="33.8095811" lon="-118.3944318">
  <ele>-39.54</ele>
  <time>2026-09-02T22:08:11Z</time>
  <course>179.74</course>
  <speed>0.93</speed>
  <fix>3d</fix>
</trkpt>
<trkpt lat="33.8095794" lon="-118.394432">
  <ele>-40.647</ele>
  <time>2026-09-02T22:08:11Z</time>
  <course>180.36</course>
  <speed>0.8900561780022652</speed>
  <fix>3d</fix>
</trkpt>
<trkpt lat="33.8095811" lon="-118.3944318">
  <ele>-39.54</ele>
  <time>2026-09-02T22:08:11Z</time>
  <course>179.74</course>
  <speed>0.93</speed>
  <fix>3d</fix>
</trkpt>
<trkpt lat="33.8095786" lon="-118.394432">
  <ele>-40.69</ele>
  <time>2026-09-02T22:08:11Z</time>
  <course>180.38</course>
  <speed>0.9000555538409837</speed>
  <fix>3d</fix>
</trkpt>
<trkpt lat="33.8095795" lon="-118.3944318">
  <ele>-39.62</ele>
  <time>2026-09-02T22:08:11Z</time>
  <course>179.75</course>
  <speed>0.9</speed>
  <fix>3d</fix>
</trkpt>
<trkpt lat="33.8095777" lon="-118.394432">
  <ele>-40.732</ele>
  <time>2026-09-02T22:08:11Z</time>
  <course>180.39</course>
  <speed>0.9100549433962765</speed>
  <fix>3d</fix>
</trkpt>
<trkpt lat="33.8095795" lon="-118.3944318">
  <ele>-39.62</ele>
  <time>2026-09-02T22:08:11Z</time>
  <course>179.75</course>
  <speed>0.9</speed>
  <fix>3d</fix>
</trkpt>
<trkpt lat="33.8095769" lon="-118.394432">
  <ele>-40.776</ele>
  <time>2026-09-02T22:08:11Z</time>
  <course>180.4</course>
  <speed>0.9200543462209175</speed>
  <fix>3d</fix>
</trkpt>
<trkpt lat="33.8095778" lon="-118.3944318">
  <ele>-39.7</ele>
  <time>2026-09-02T22:08:11Z</time>
  <course>179.73</course>
  <speed>0.93</speed>
  <fix>3d</fix>
</trkpt>
<trkpt lat="33.809576" lon="-118.394432">
  <ele>-40.821</ele>
  <time>2026-09-02T22:08:11Z</time>
  <course>180.4</course>
  <speed>0.9200543462209175</speed>
  <fix>3d</fix>
</trkpt>
<trkpt lat="33.8095778" lon="-118.3944318">
  <ele>-39.7</ele>
  <time>2026-09-02T22:08:11Z</time>
  <course>179.73</course>
  <speed>0.93</speed>
  <fix>3d</fix>
</trkpt>
<trkpt lat="33.8095752" lon="-118.394432">
  <ele>-40.865</ele>
  <time>2026-09-02T22:08:11Z</time>
  <course>180.4</course>
  <speed>0.9300537618869137</speed>
  <fix>3d</fix>
</trkpt>
<trkpt lat="33.8095761" lon="-118.3944318">
  <ele>-39.79</ele>
  <time>2026-09-02T22:08:11Z</time>
  <course>179.71</course>
  <speed>0.94</speed>
  <fix>3d</fix>
</trkpt>
<trkpt lat="33.8095743" lon="-118.394432">
  <ele>-40.909</ele>
  <time>2026-09-02T22:08:11Z</time>
  <course>180.41</course>
  <speed>0.9300537618869137</speed>
  <fix>3d</fix>
</trkpt>
<trkpt lat="33.8095761" lon="-118.3944318">
  <ele>-39.79</ele>
  <time>2026-09-02T22:08:11Z</time>
  <course>179.71</course>
  <speed>0.94</speed>
  <fix>3d</fix>
</trkpt>
<trkpt lat="33.8095735" lon="-118.394432">
  <ele>-40.953</ele>
  <time>2026-09-02T22:08:11Z</time>
  <course>180.42</course>
  <speed>0.9300537618869137</speed>
  <fix>3d</fix>
</trkpt>
<trkpt lat="33.8095744" lon="-118.3944318">
  <ele>-39.87</ele>
  <time>2026-09-02T22:08:11Z</time>
  <course>179.69</course>
  <speed>0.95</speed>
  <fix>3d</fix>
</trkpt>
<trkpt lat="33.8095726" lon="-118.394432">
  <ele>-40.998</ele>
  <time>2026-09-02T22:08:11Z</time>
  <course>180.43</course>
  <speed>0.9400531899844816</speed>
  <fix>3d</fix>
</trkpt>
<trkpt lat="33.8095744" lon="-118.3944318">
  <ele>-39.87</ele>
  <time>2026-09-02T22:08:11Z</time>
  <course>179.69</course>
  <speed>0.95</speed>
  <fix>3d</fix>
</trkpt>
<trkpt lat="33.8095717" lon="-118.394432">
  <ele>-41.044</ele>
  <time>2026-09-02T22:08:11Z</time>
  <course>180.44</course>
  <speed>0.9400531899844816</speed>
  <fix>3d</fix>
</trkpt>
<trkpt lat="33.8095727" lon="-118.3944318">
  <ele>-39.96</ele>
  <time>2026-09-02T22:08:11Z</time>
  <course>179.67</course>
  <speed>0.96</speed>
  <fix>3d</fix>
</trkpt>
<trkpt lat="33.8095709" lon="-118.394432">
  <ele>-41.089</ele>
  <time>2026-09-02T22:08:11Z</time>
  <course>180.43</course>
  <speed>0.9400531899844816</speed>
  <fix>3d</fix>
</trkpt>
<trkpt lat="33.8095727" lon="-118.3944318">
  <ele>-39.96</ele>
  <time>2026-09-02T22:08:11Z</time>
  <course>179.67</course>
  <speed>0.96</speed>
  <fix>3d</fix>
</trkpt>
<trkpt lat="33.80957" lon="-118.394432">
  <ele>-41.135</ele>
  <time>2026-09-02T22:08:11Z</time>
  <course>180.44</course>
  <speed>0.9500526301210896</speed>
  <fix>3d</fix>
</trkpt>
<trkpt lat="33.8095709" lon="-118.3944318">
  <ele>-40.04</ele>
  <time>2026-09-02T22:08:11Z</time>
  <course>179.65</course>
  <speed>0.96</speed>
  <fix>3d</fix>
</trkpt>
<trkpt lat="33.8095691" lon="-118.394432">
  <ele>-41.18</ele>
  <time>2026-09-02T22:08:11Z</time>
  <course>180.45</course>
  <speed>0.9500526301210896</speed>
  <fix>3d</fix>
</trkpt>
<trkpt lat="33.8095709" lon="-118.3944318">
  <ele>-40.04</ele>
  <time>2026-09-02T22:08:11Z</time>
  <course>179.65</course>
  <speed>0.96</speed>
  <fix>3d</fix>
</trkpt>
<trkpt lat="33.8095683" lon="-118.394432">
  <ele>-41.226</ele>
  <time>2026-09-02T22:08:11Z</time>
  <course>180.46</course>
  <speed>0.9500526301210896</speed>
  <fix>3d</fix>
</trkpt>
<trkpt lat="33.8095692" lon="-118.3944318">
  <ele>-40.14</ele>
  <time>2026-09-02T22:08:11Z</time>
  <course>179.65</course>
  <speed>0.97</speed>
  <fix>3d</fix>
</trkpt>
<trkpt lat="33.8095674" lon="-118.394432">
  <ele>-41.273</ele>
  <time>2026-09-02T22:08:11Z</time>
  <course>180.46</course>
  <speed>0.9500526301210896</speed>
  <fix>3d</fix>
</trkpt>
<trkpt lat="33.8095692" lon="-118.3944318">
  <ele>-40.14</ele>
  <time>2026-09-02T22:08:11Z</time>
  <course>179.65</course>
  <speed>0.97</speed>
  <fix>3d</fix>
</trkpt>
<trkpt lat="33.8095665" lon="-118.394432">
  <ele>-41.32</ele>
  <time>2026-09-02T22:08:11Z</time>
  <course>180.48</course>
  <speed>0.9500526301210896</speed>
  <fix>3d</fix>
</trkpt>
<trkpt lat="33.8095674" lon="-118.3944318">
  <ele>-40.23</ele>
  <time>2026-09-02T22:08:11Z</time>
  <course>179.64</course>
  <speed>0.97</speed>
  <fix>3d</fix>
</trkpt>
<trkpt lat="33.8095656" lon="-118.394432">
  <ele>-41.369</ele>
  <time>2026-09-02T22:08:11Z</time>
  <course>180.48</course>
  <speed>0.9500526301210896</speed>
  <fix>3d</fix>
</trkpt>
<trkpt lat="33.8095674" lon="-118.3944318">
  <ele>-40.23</ele>
  <time>2026-09-02T22:08:11Z</time>
  <course>179.64</course>
  <speed>0.97</speed>
  <fix>3d</fix>
</trkpt>
<trkpt lat="33.8095648" lon="-118.394432">
  <ele>-41.418</ele>
  <time>2026-09-02T22:08:11Z</time>
  <course>180.5</course>
  <speed>0.9500526301210896</speed>
  <fix>3d</fix>
</trkpt>
<trkpt lat="33.8095656" lon="-118.3944317">
  <ele>-40.32</ele>
  <time>2026-09-02T22:08:11Z</time>
  <course>179.63</course>
  <speed>0.98</speed>
  <fix>3d</fix>
</trkpt>
<trkpt lat="33.8095639" lon="-118.394432">
  <ele>-41.467</ele>
  <time>2026-09-02T22:08:11Z</time>
  <course>180.51</course>
  <speed>0.9500526301210896</speed>
  <fix>3d</fix>
</trkpt>
<trkpt lat="33.8095656" lon="-118.3944317">
  <ele>-40.32</ele>
  <time>2026-09-02T22:08:11Z</time>
  <course>179.63</course>
  <speed>0.98</speed>
  <fix>3d</fix>
</trkpt>
<trkpt lat="33.809563" lon="-118.394432">
  <ele>-41.516</ele>
  <time>2026-09-02T22:08:11Z</time>
  <course>180.54</course>
  <speed>0.9500526301210896</speed>
  <fix>3d</fix>
</trkpt>
<trkpt lat="33.8095639" lon="-118.3944317">
  <ele>-40.41</ele>
  <time>2026-09-02T22:08:11Z</time>
  <course>179.66</course>
  <speed>0.98</speed>
  <fix>3d</fix>
</trkpt>
<trkpt lat="33.8095621" lon="-118.394432">
  <ele>-41.565</ele>
  <time>2026-09-02T22:08:11Z</time>
  <course>180.59</course>
  <speed>0.9500526301210896</speed>
  <fix>3d</fix>
</trkpt>
<trkpt lat="33.8095639" lon="-118.3944317">
  <ele>-40.41</ele>
  <time>2026-09-02T22:08:11Z</time>
  <course>179.66</course>
  <speed>0.98</speed>
  <fix>3d</fix>
</trkpt>
<trkpt lat="33.8095613" lon="-118.394432">
  <ele>-41.614</ele>
  <time>2026-09-02T22:08:11Z</time>
  <course>180.66</course>
  <speed>0.9500526301210896</speed>
  <fix>3d</fix>
</trkpt>
<trkpt lat="33.8095621" lon="-118.3944317">
  <ele>-40.51</ele>
  <time>2026-09-02T22:08:11Z</time>
  <course>179.72</course>
  <speed>0.98</speed>
  <fix>3d</fix>
</trkpt>
<trkpt lat="33.8095604" lon="-118.394432">
  <ele>-41.663</ele>
  <time>2026-09-02T22:08:11Z</time>
  <course>180.71</course>
  <speed>0.9502105029939419</speed>
  <fix>3d</fix>
</trkpt>
<trkpt lat="33.8095621" lon="-118.3944317">
  <ele>-40.51</ele>
  <time>2026-09-02T22:08:11Z</time>
  <course>179.72</course>
  <speed>0.98</speed>
  <fix>3d</fix>
</trkpt>
<trkpt lat="33.8095595" lon="-118.394432">
  <ele>-41.712</ele>
  <time>2026-09-02T22:08:11Z</time>
  <course>180.76</course>
  <speed>0.9502105029939419</speed>
  <fix>3d</fix>
</trkpt>
<trkpt lat="33.8095603" lon="-118.3944317">
  <ele>-40.6</ele>
  <time>2026-09-02T22:08:11Z</time>
  <course>179.79</course>
  <speed>0.98</speed>
  <fix>3d</fix>
</trkpt>
<trkpt lat="33.8095586" lon="-118.394432">
  <ele>-41.761</ele>
  <time>2026-09-02T22:08:11Z</time>
  <course>180.81</course>
  <speed>0.9502105029939419</speed>
  <fix>3d</fix>
</trkpt>
<trkpt lat="33.8095603" lon="-118.3944317">
  <ele>-40.6</ele>
  <time>2026-09-02T22:08:11Z</time>
  <course>179.79</course>
  <speed>0.98</speed>
  <fix>3d</fix>
</trkpt>
<trkpt lat="33.8095577" lon="-118.394432">
  <ele>-41.811</ele>
  <time>2026-09-02T22:08:11Z</time>
  <course>180.86</course>
  <speed>0.9502105029939419</speed>
  <fix>3d</fix>
</trkpt>
<trkpt lat="33.8095586" lon="-118.3944317">
  <ele>-40.7</ele>
  <time>2026-09-02T22:08:11Z</time>
  <course>179.84</course>
  <speed>0.98</speed>
  <fix>3d</fix>
</trkpt>
<trkpt lat="33.8095568" lon="-118.394432">
  <ele>-41.861</ele>
  <time>2026-09-02T22:08:11Z</time>
  <course>180.89</course>
  <speed>0.9502105029939419</speed>
  <fix>3d</fix>
</trkpt>
<trkpt lat="33.8095586" lon="-118.3944317">
  <ele>-40.7</ele>
  <time>2026-09-02T22:08:11Z</time>
  <course>179.84</course>
  <speed>0.98</speed>
  <fix>3d</fix>
</trkpt>
<trkpt lat="33.809556" lon="-118.394432">
  <ele>-41.911</ele>
  <time>2026-09-02T22:08:11Z</time>
  <course>180.93</course>
  <speed>0.9502105029939419</speed>
  <fix>3d</fix>
</trkpt>
<trkpt lat="33.8095568" lon="-118.3944317">
  <ele>-40.8</ele>
  <time>2026-09-02T22:08:11Z</time>
  <course>179.87</course>
  <speed>0.98</speed>
  <fix>3d</fix>
</trkpt>
<trkpt lat="33.8095551" lon="-118.3944319">
  <ele>-41.962</ele>
  <time>2026-09-02T22:08:11Z</time>
  <course>180.95</course>
  <speed>0.9502105029939419</speed>
  <fix>3d</fix>
</trkpt>
<trkpt lat="33.8095568" lon="-118.3944317">
  <ele>-40.8</ele>
  <time>2026-09-02T22:08:11Z</time>
  <course>179.87</course>
  <speed>0.98</speed>
  <fix>3d</fix>
</trkpt>
<trkpt lat="33.8095542" lon="-118.3944319">
  <ele>-42.014</ele>
  <time>2026-09-02T22:08:11Z</time>
  <course>180.98</course>
  <speed>0.9502105029939419</speed>
  <fix>3d</fix>
</trkpt>
<trkpt lat="33.8095551" lon="-118.3944317">
  <ele>-40.9</ele>
  <time>2026-09-02T22:08:11Z</time>
  <course>179.89</course>
  <speed>0.98</speed>
  <fix>3d</fix>
</trkpt>
<trkpt lat="33.8095533" lon="-118.3944319">
  <ele>-42.065</ele>
  <time>2026-09-02T22:08:11Z</time>
  <course>180.99</course>
  <speed>0.9502105029939419</speed>
  <fix>3d</fix>
</trkpt>
<trkpt lat="33.8095551" lon="-118.3944317">
  <ele>-40.9</ele>
  <time>2026-09-02T22:08:11Z</time>
  <course>179.89</course>
  <speed>0.98</speed>
  <fix>3d</fix>
</trkpt>
<trkpt lat="33.8095524" lon="-118.3944319">
  <ele>-42.116</ele>
  <time>2026-09-02T22:08:11Z</time>
  <course>181.01</course>
  <speed>0.9502105029939419</speed>
  <fix>3d</fix>
</trkpt>
<trkpt lat="33.8095533" lon="-118.3944317">
  <ele>-41.0</ele>
  <time>2026-09-02T22:08:11Z</time>
  <course>179.91</course>
  <speed>0.98</speed>
  <fix>3d</fix>
</trkpt>
<trkpt lat="33.8095516" lon="-118.3944319">
  <ele>-42.169</ele>
  <time>2026-09-02T22:08:11Z</time>
  <course>181.02</course>
  <speed>0.9502105029939419</speed>
  <fix>3d</fix>
</trkpt>
<trkpt lat="33.8095533" lon="-118.3944317">
  <ele>-41.0</ele>
  <time>2026-09-02T22:08:11Z</time>
  <course>179.91</course>
  <speed>0.98</speed>
  <fix>3d</fix>
</trkpt>
<trkpt lat="33.8095507" lon="-118.3944319">
  <ele>-42.224</ele>
  <time>2026-09-02T22:08:11Z</time>
  <course>181.04</course>
  <speed>0.9502105029939419</speed>
  <fix>3d</fix>
</trkpt>
<trkpt lat="33.8095515" lon="-118.3944317">
  <ele>-41.1</ele>
  <time>2026-09-02T22:08:11Z</time>
  <course>179.93</course>
  <speed>0.98</speed>
  <fix>3d</fix>
</trkpt>
<trkpt lat="33.8095498" lon="-118.3944319">
  <ele>-42.28</ele>
  <time>2026-09-02T22:08:11Z</time>
  <course>181.04</course>
  <speed>0.9502105029939419</speed>
  <fix>3d</fix>
</trkpt>
<trkpt lat="33.8095515" lon="-118.3944317">
  <ele>-41.1</ele>
  <time>2026-09-02T22:08:11Z</time>
  <course>179.93</course>
  <speed>0.98</speed>
  <fix>3d</fix>
</trkpt>
<trkpt lat="33.8095489" lon="-118.3944319">
  <ele>-42.338</ele>
  <time>2026-09-02T22:08:11Z</time>
  <course>181.05</course>
  <speed>0.9502105029939419</speed>
  <fix>3d</fix>
</trkpt>
<trkpt lat="33.8095498" lon="-118.3944317">
  <ele>-41.2</ele>
  <time>2026-09-02T22:08:11Z</time>
  <course>179.93</course>
  <speed>0.98</speed>
  <fix>3d</fix>
</trkpt>
<trkpt lat="33.809548" lon="-118.3944319">
  <ele>-42.394</ele>
  <time>2026-09-02T22:08:11Z</time>
  <course>181.05</course>
  <speed>0.9502105029939419</speed>
  <fix>3d</fix>
</trkpt>
<trkpt lat="33.8095498" lon="-118.3944317">
  <ele>-41.2</ele>
  <time>2026-09-02T22:08:11Z</time>
  <course>179.93</course>
  <speed>0.98</speed>
  <fix>3d</fix>
</trkpt>
<trkpt lat="33.8095471" lon="-118.3944319">
  <ele>-42.45</ele>
  <time>2026-09-02T22:08:11Z</time>
  <course>181.07</course>
  <speed>0.9502105029939419</speed>
  <fix>3d</fix>
</trkpt>
<trkpt lat="33.809548" lon="-118.3944317">
  <ele>-41.31</ele>
  <time>2026-09-02T22:08:11Z</time>
  <course>179.94</course>
  <speed>0.98</speed>
  <fix>3d</fix>
</trkpt>
<trkpt lat="33.8095463" lon="-118.3944319">
  <ele>-42.506</ele>
  <time>2026-09-02T22:08:11Z</time>
  <course>181.07</course>
  <speed>0.9502105029939419</speed>
  <fix>3d</fix>
</trkpt>
<trkpt lat="33.809548" lon="-118.3944317">
  <ele>-41.31</ele>
  <time>2026-09-02T22:08:11Z</time>
  <course>179.94</course>
  <speed>0.98</speed>
  <fix>3d</fix>
</trkpt>
<trkpt lat="33.8095454" lon="-118.3944319">
  <ele>-42.561</ele>
  <time>2026-09-02T22:08:11Z</time>
  <course>181.08</course>
  <speed>0.9502105029939419</speed>
  <fix>3d</fix>
</trkpt>
<trkpt lat="33.8095462" lon="-118.3944317">
  <ele>-41.42</ele>
  <time>2026-09-02T22:08:11Z</time>
  <course>179.95</course>
  <speed>0.98</speed>
  <fix>3d</fix>
</trkpt>
<trkpt lat="33.8095445" lon="-118.3944319">
  <ele>-42.616</ele>
  <time>2026-09-02T22:08:11Z</time>
  <course>181.08</course>
  <speed>0.9302150289046076</speed>
  <fix>3d</fix>
</trkpt>
<trkpt lat="33.8095462" lon="-118.3944317">
  <ele>-41.42</ele>
  <time>2026-09-02T22:08:11Z</time>
  <course>179.95</course>
  <speed>0.98</speed>
  <fix>3d</fix>
</trkpt>
<trkpt lat="33.8095437" lon="-118.3944319">
  <ele>-42.666</ele>
  <time>2026-09-02T22:08:11Z</time>
  <course>181.11</course>
  <speed>0.8802272433866155</speed>
  <fix>3d</fix>
</trkpt>
<trkpt lat="33.8095445" lon="-118.3944317">
  <ele>-41.53</ele>
  <time>2026-09-02T22:08:11Z</time>
  <course>179.97</course>
  <speed>0.94</speed>
  <fix>3d</fix>
</trkpt>
<trkpt lat="33.8095429" lon="-118.3944319">
  <ele>-42.714</ele>
  <time>2026-09-02T22:08:11Z</time>
  <course>181.16</course>
  <speed>0.8902246907382428</speed>
  <fix>3d</fix>
</trkpt>
<trkpt lat="33.8095445" lon="-118.3944317">
  <ele>-41.53</ele>
  <time>2026-09-02T22:08:11Z</time>
  <course>179.97</course>
  <speed>0.94</speed>
  <fix>3d</fix>
</trkpt>
<trkpt lat="33.809542" lon="-118.3944319">
  <ele>-42.762</ele>
  <time>2026-09-02T22:08:11Z</time>
  <course>181.2</course>
  <speed>0.9102197536858887</speed>
  <fix>3d</fix>
</trkpt>
<trkpt lat="33.8095428" lon="-118.3944317">
  <ele>-41.62</ele>
  <time>2026-09-02T22:08:11Z</time>
  <course>179.98</course>
  <speed>0.91</speed>
  <fix>3d</fix>
</trkpt>
<trkpt lat="33.8095412" lon="-118.3944319">
  <ele>-42.809</ele>
  <time>2026-09-02T22:08:11Z</time>
  <course>181.2</course>
  <speed>0.9102197536858887</speed>
  <fix>3d</fix>
</trkpt>
<trkpt lat="33.8095428" lon="-118.3944317">
  <ele>-41.62</ele>
  <time>2026-09-02T22:08:11Z</time>
  <course>179.98</course>
  <speed>0.91</speed>
  <fix>3d</fix>
</trkpt>
<trkpt lat="33.8095403" lon="-118.3944319">
  <ele>-42.856</ele>
  <time>2026-09-02T22:08:11Z</time>
  <course>181.19</course>
  <speed>0.9202173656261873</speed>
  <fix>3d</fix>
</trkpt>
<trkpt lat="33.8095411" lon="-118.3944317">
  <ele>-41.72</ele>
  <time>2026-09-02T22:08:11Z</time>
  <course>179.96</course>
  <speed>0.93</speed>
  <fix>3d</fix>
</trkpt>
<trkpt lat="33.8095395" lon="-118.3944319">
  <ele>-42.904</ele>
  <time>2026-09-02T22:08:11Z</time>
  <course>181.17</course>
  <speed>0.9302150289046076</speed>
  <fix>3d</fix>
</trkpt>
<trkpt lat="33.8095411" lon="-118.3944317">
  <ele>-41.72</ele>
  <time>2026-09-02T22:08:11Z</time>
  <course>179.96</course>
  <speed>0.93</speed>
  <fix>3d</fix>
</trkpt>
<trkpt lat="33.8095386" lon="-118.3944319">
  <ele>-42.95</ele>
  <time>2026-09-02T22:08:11Z</time>
  <course>181.17</course>
  <speed>0.9302150289046076</speed>
  <fix>3d</fix>
</trkpt>
<trkpt lat="33.8095394" lon="-118.3944317">
  <ele>-41.81</ele>
  <time>2026-09-02T22:08:11Z</time>
  <course>179.95</course>
  <speed>0.95</speed>
  <fix>3d</fix>
</trkpt>
<trkpt lat="33.8095378" lon="-118.3944319">
  <ele>-42.994</ele>
  <time>2026-09-02T22:08:11Z</time>
  <course>181.15</course>
  <speed>0.9302150289046076</speed>
  <fix>3d</fix>
</trkpt>
<trkpt lat="33.8095394" lon="-118.3944317">
  <ele>-41.81</ele>
  <time>2026-09-02T22:08:11Z</time>
  <course>179.95</course>
  <speed>0.95</speed>
  <fix>3d</fix>
</trkpt>
<trkpt lat="33.8095369" lon="-118.3944319">
  <ele>-43.038</ele>
  <time>2026-09-02T22:08:11Z</time>
  <course>181.16</course>
  <speed>0.9402127418834527</speed>
  <fix>3d</fix>
</trkpt>
<trkpt lat="33.8095377" lon="-118.3944317">
  <ele>-41.9</ele>
  <time>2026-09-02T22:08:11Z</time>
  <course>179.95</course>
  <speed>0.96</speed>
  <fix>3d</fix>
</trkpt>
<trkpt lat="33.809536" lon="-118.3944319">
  <ele>-43.081</ele>
  <time>2026-09-02T22:08:11Z</time>
  <course>181.14</course>
  <speed>0.9402127418834527</speed>
  <fix>3d</fix>
</trkpt>
<trkpt lat="33.8095377" lon="-118.3944317">
  <ele>-41.9</ele>
  <time>2026-09-02T22:08:11Z</time>
  <course>179.95</course>
  <speed>0.96</speed>
  <fix>3d</fix>
</trkpt>
<trkpt lat="33.8095351" lon="-118.3944319">
  <ele>-43.124</ele>
  <time>2026-09-02T22:08:11Z</time>
  <course>181.15</course>
  <speed>0.9402127418834527</speed>
  <fix>3d</fix>
</trkpt>
<trkpt lat="33.8095359" lon="-118.3944317">
  <ele>-41.98</ele>
  <time>2026-09-02T22:08:11Z</time>
  <course>179.97</course>
  <speed>0.97</speed>
  <fix>3d</fix>
</trkpt>
<trkpt lat="33.8095343" lon="-118.3944319">
  <ele>-43.167</ele>
  <time>2026-09-02T22:08:11Z</time>
  <course>181.15</course>
  <speed>0.9402127418834527</speed>
  <fix>3d</fix>
</trkpt>
<trkpt lat="33.8095359" lon="-118.3944317">
  <ele>-41.98</ele>
  <time>2026-09-02T22:08:11Z</time>
  <course>179.97</course>
  <speed>0.97</speed>
  <fix>3d</fix>
</trkpt>
<trkpt lat="33.8095334" lon="-118.3944319">
  <ele>-43.21</ele>
  <time>2026-09-02T22:08:11Z</time>
  <course>181.15</course>
  <speed>0.9502105029939419</speed>
  <fix>3d</fix>
</trkpt>
<trkpt lat="33.8095342" lon="-118.3944317">
  <ele>-42.07</ele>
  <time>2026-09-02T22:08:11Z</time>
  <course>179.99</course>
  <speed>0.97</speed>
  <fix>3d</fix>
</trkpt>
<trkpt lat="33.8095325" lon="-118.3944319">
  <ele>-43.255</ele>
  <time>2026-09-02T22:08:11Z</time>
  <course>181.14</course>
  <speed>0.9502105029939419</speed>
  <fix>3d</fix>
</trkpt>
<trkpt lat="33.8095342" lon="-118.3944317">
  <ele>-42.07</ele>
  <time>2026-09-02T22:08:11Z</time>
  <course>179.99</course>
  <speed>0.97</speed>
  <fix>3d</fix>
</trkpt>
<trkpt lat="33.8095316" lon="-118.3944319">
  <ele>-43.3</ele>
  <time>2026-09-02T22:08:11Z</time>
  <course>181.14</course>
  <speed>0.9502105029939419</speed>
  <fix>3d</fix>
</trkpt>
<trkpt lat="33.8095325" lon="-118.3944317">
  <ele>-42.16</ele>
  <time>2026-09-02T22:08:11Z</time>
  <course>180.0</course>
  <speed>0.97</speed>
  <fix>3d</fix>
</trkpt>
<trkpt lat="33.8095307" lon="-118.3944319">
  <ele>-43.346</ele>
  <time>2026-09-02T22:08:11Z</time>
  <course>181.14</course>
  <speed>0.9502105029939419</speed>
  <fix>3d</fix>
</trkpt>
<trkpt lat="33.8095325" lon="-118.3944317">
  <ele>-42.16</ele>
  <time>2026-09-02T22:08:11Z</time>
  <course>180.0</course>
  <speed>0.97</speed>
  <fix>3d</fix>
</trkpt>
<trkpt lat="33.8095298" lon="-118.3944319">
  <ele>-43.392</ele>
  <time>2026-09-02T22:08:11Z</time>
  <course>181.14</course>
  <speed>0.9502105029939419</speed>
  <fix>3d</fix>
</trkpt>
<trkpt lat="33.8095307" lon="-118.3944317">
  <ele>-42.25</ele>
  <time>2026-09-02T22:08:11Z</time>
  <course>180.02</course>
  <speed>0.97</speed>
  <fix>3d</fix>
</trkpt>
<trkpt lat="33.809529" lon="-118.3944319">
  <ele>-43.439</ele>
  <time>2026-09-02T22:08:11Z</time>
  <course>181.14</course>
  <speed>0.9502105029939419</speed>
  <fix>3d</fix>
</trkpt>
<trkpt lat="33.8095307" lon="-118.3944317">
  <ele>-42.25</ele>
  <time>2026-09-02T22:08:11Z</time>
  <course>180.02</course>
  <speed>0.97</speed>
  <fix>3d</fix>
</trkpt>
<trkpt lat="33.8095281" lon="-118.3944319">
  <ele>-43.487</ele>
  <time>2026-09-02T22:08:11Z</time>
  <course>181.14</course>
  <speed>0.9602083107326242</speed>
  <fix>3d</fix>
</trkpt>
<trkpt lat="33.809529" lon="-118.3944317">
  <ele>-42.35</ele>
  <time>2026-09-02T22:08:11Z</time>
  <course>180.03</course>
  <speed>0.98</speed>
  <fix>3d</fix>
</trkpt>
<trkpt lat="33.8095272" lon="-118.3944319">
  <ele>-43.536</ele>
  <time>2026-09-02T22:08:11Z</time>
  <course>181.14</course>
  <speed>0.9602083107326242</speed>
  <fix>3d</fix>
</trkpt>
<trkpt lat="33.809529" lon="-118.3944317">
  <ele>-42.35</ele>
  <time>2026-09-02T22:08:11Z</time>
  <course>180.03</course>
  <speed>0.98</speed>
  <fix>3d</fix>
</trkpt>
<trkpt lat="33.8095263" lon="-118.3944319">
  <ele>-43.585</ele>
  <time>2026-09-02T22:08:11Z</time>
  <course>181.14</course>
  <speed>0.9602083107326242</speed>
  <fix>3d</fix>
</trkpt>
<trkpt lat="33.8095272" lon="-118.3944317">
  <ele>-42.45</ele>
  <time>2026-09-02T22:08:11Z</time>
  <course>180.06</course>
  <speed>0.98</speed>
  <fix>3d</fix>
</trkpt>
<trkpt lat="33.8095254" lon="-118.3944319">
  <ele>-43.636</ele>
  <time>2026-09-02T22:08:11Z</time>
  <course>181.14</course>
  <speed>0.9602083107326242</speed>
  <fix>3d</fix>
</trkpt>
<trkpt lat="33.8095272" lon="-118.3944317">
  <ele>-42.45</ele>
  <time>2026-09-02T22:08:11Z</time>
  <course>180.06</course>
  <speed>0.98</speed>
  <fix>3d</fix>
</trkpt>
<trkpt lat="33.8095245" lon="-118.3944319">
  <ele>-43.687</ele>
  <time>2026-09-02T22:08:11Z</time>
  <course>181.13</course>
  <speed>0.9602083107326242</speed>
  <fix>3d</fix>
</trkpt>
<trkpt lat="33.8095254" lon="-118.3944317">
  <ele>-42.54</ele>
  <time>2026-09-02T22:08:11Z</time>
  <course>180.07</course>
  <speed>0.98</speed>
  <fix>3d</fix>
</trkpt>
<trkpt lat="33.8095236" lon="-118.3944319">
  <ele>-43.736</ele>
  <time>2026-09-02T22:08:11Z</time>
  <course>181.13</course>
  <speed>0.9602083107326242</speed>
  <fix>3d</fix>
</trkpt>
<trkpt lat="33.8095254" lon="-118.3944317">
  <ele>-42.54</ele>
  <time>2026-09-02T22:08:11Z</time>
  <course>180.07</course>
  <speed>0.98</speed>
  <fix>3d</fix>
</trkpt>
<trkpt lat="33.8095227" lon="-118.3944319">
  <ele>-43.783</ele>
  <time>2026-09-02T22:08:11Z</time>
  <course>181.13</course>
  <speed>0.9602083107326242</speed>
  <fix>3d</fix>
</trkpt>
<trkpt lat="33.8095236" lon="-118.3944317">
  <ele>-42.64</ele>
  <time>2026-09-02T22:08:11Z</time>
  <course>180.07</course>
  <speed>0.98</speed>
  <fix>3d</fix>
</trkpt>
<trkpt lat="33.8095219" lon="-118.3944319">
  <ele>-43.83</ele>
  <time>2026-09-02T22:08:11Z</time>
  <course>181.13</course>
  <speed>0.9602083107326242</speed>
  <fix>3d</fix>
</trkpt>
<trkpt lat="33.8095236" lon="-118.3944317">
  <ele>-42.64</ele>
  <time>2026-09-02T22:08:11Z</time>
  <course>180.07</course>
  <speed>0.98</speed>
  <fix>3d</fix>
</trkpt>
<trkpt lat="33.809521" lon="-118.3944319">
  <ele>-43.878</ele>
  <time>2026-09-02T22:08:11Z</time>
  <course>181.13</course>
  <speed>0.9602083107326242</speed>
  <fix>3d</fix>
</trkpt>
<trkpt lat="33.8095218" lon="-118.3944317">
  <ele>-42.73</ele>
  <time>2026-09-02T22:08:11Z</time>
  <course>180.07</course>
  <speed>0.98</speed>
  <fix>3d</fix>
</trkpt>
<trkpt lat="33.8095201" lon="-118.3944319">
  <ele>-43.924</ele>
  <time>2026-09-02T22:08:11Z</time>
  <course>181.13</course>
  <speed>0.9602083107326242</speed>
  <fix>3d</fix>
</trkpt>
<trkpt lat="33.8095218" lon="-118.3944317">
  <ele>-42.73</ele>
  <time>2026-09-02T22:08:11Z</time>
  <course>180.07</course>
  <speed>0.98</speed>
  <fix>3d</fix>
</trkpt>
<trkpt lat="33.8095192" lon="-118.3944319">
  <ele>-43.971</ele>
  <time>2026-09-02T22:08:11Z</time>
  <course>181.14</course>
  <speed>0.9602083107326242</speed>
  <fix>3d</fix>
</trkpt>
<trkpt lat="33.8095201" lon="-118.3944317">
  <ele>-42.82</ele>
  <time>2026-09-02T22:08:11Z</time>
  <course>180.09</course>
  <speed>0.98</speed>
  <fix>3d</fix>
</trkpt>
<trkpt lat="33.8095183" lon="-118.3944319">
  <ele>-44.018</ele>
  <time>2026-09-02T22:08:11Z</time>
  <course>181.13</course>
  <speed>0.9602083107326242</speed>
  <fix>3d</fix>
</trkpt>
<trkpt lat="33.8095201" lon="-118.3944317">
  <ele>-42.82</ele>
  <time>2026-09-02T22:08:11Z</time>
  <course>180.09</course>
  <speed>0.98</speed>
  <fix>3d</fix>
</trkpt>
<trkpt lat="33.8095174" lon="-118.3944319">
  <ele>-44.066</ele>
  <time>2026-09-02T22:08:11Z</time>
  <course>181.14</course>
  <speed>0.9602083107326242</speed>
  <fix>3d</fix>
</trkpt>
<trkpt lat="33.8095182" lon="-118.3944317">
  <ele>-42.91</ele>
  <time>2026-09-02T22:08:11Z</time>
  <course>180.11</course>
  <speed>0.99</speed>
  <fix>3d</fix>
</trkpt>
<trkpt lat="33.8095165" lon="-118.3944319">
  <ele>-44.117</ele>
  <time>2026-09-02T22:08:11Z</time>
  <course>181.13</course>
  <speed>0.9602083107326242</speed>
  <fix>3d</fix>
</trkpt>
<trkpt lat="33.8095182" lon="-118.3944317">
  <ele>-42.91</ele>
  <time>2026-09-02T22:08:11Z</time>
  <course>180.11</course>
  <speed>0.99</speed>
  <fix>3d</fix>
</trkpt>
<trkpt lat="33.8095156" lon="-118.3944319">
  <ele>-44.168</ele>
  <time>2026-09-02T22:08:11Z</time>
  <course>181.14</course>
  <speed>0.9602083107326242</speed>
  <fix>3d</fix>
</trkpt>
<trkpt lat="33.8095165" lon="-118.3944317">
  <ele>-43.0</ele>
  <time>2026-09-02T22:08:11Z</time>
  <course>180.12</course>
  <speed>0.99</speed>
  <fix>3d</fix>
</trkpt>
<trkpt lat="33.8095147" lon="-118.3944319">
  <ele>-44.22</ele>
  <time>2026-09-02T22:08:11Z</time>
  <course>181.13</course>
  <speed>0.9602083107326242</speed>
  <fix>3d</fix>
</trkpt>
<trkpt lat="33.8095165" lon="-118.3944317">
  <ele>-43.0</ele>
  <time>2026-09-02T22:08:11Z</time>
  <course>180.12</course>
  <speed>0.99</speed>
  <fix>3d</fix>
</trkpt>
<trkpt lat="33.8095138" lon="-118.3944319">
  <ele>-44.272</ele>
  <time>2026-09-02T22:08:11Z</time>
  <course>181.13</course>
  <speed>0.9702061636580135</speed>
  <fix>3d</fix>
</trkpt>
<trkpt lat="33.8095148" lon="-118.3944317">
  <ele>-43.1</ele>
  <time>2026-09-02T22:08:11Z</time>
  <course>180.13</course>
  <speed>0.99</speed>
  <fix>3d</fix>
</trkpt>
<trkpt lat="33.8095129" lon="-118.3944319">
  <ele>-44.322</ele>
  <time>2026-09-02T22:08:11Z</time>
  <course>181.12</course>
  <speed>0.9702061636580135</speed>
  <fix>3d</fix>
</trkpt>
<trkpt lat="33.8095148" lon="-118.3944317">
  <ele>-43.1</ele>
  <time>2026-09-02T22:08:11Z</time>
  <course>180.13</course>
  <speed>0.99</speed>
  <fix>3d</fix>
</trkpt>
<trkpt lat="33.809512" lon="-118.3944319">
  <ele>-44.372</ele>
  <time>2026-09-02T22:08:11Z</time>
  <course>181.12</course>
  <speed>0.9702061636580135</speed>
  <fix>3d</fix>
</trkpt>
<trkpt lat="33.8095129" lon="-118.3944317">
  <ele>-43.2</ele>
  <time>2026-09-02T22:08:11Z</time>
  <course>180.15</course>
  <speed>0.99</speed>
  <fix>3d</fix>
</trkpt>
<trkpt lat="33.8095111" lon="-118.3944319">
  <ele>-44.422</ele>
  <time>2026-09-02T22:08:11Z</time>
  <course>181.12</course>
  <speed>0.9702061636580135</speed>
  <fix>3d</fix>
</trkpt>
<trkpt lat="33.8095129" lon="-118.3944317">
  <ele>-43.2</ele>
  <time>2026-09-02T22:08:11Z</time>
  <course>180.15</course>
  <speed>0.99</speed>
  <fix>3d</fix>
</trkpt>
<trkpt lat="33.8095102" lon="-118.3944319">
  <ele>-44.473</ele>
  <time>2026-09-02T22:08:11Z</time>
  <course>181.12</course>
  <speed>0.9702061636580135</speed>
  <fix>3d</fix>
</trkpt>
<trkpt lat="33.8095112" lon="-118.3944317">
  <ele>-43.3</ele>
  <time>2026-09-02T22:08:11Z</time>
  <course>180.17</course>
  <speed>0.99</speed>
  <fix>3d</fix>
</trkpt>
<trkpt lat="33.8095093" lon="-118.3944319">
  <ele>-44.524</ele>
  <time>2026-09-02T22:08:11Z</time>
  <course>181.11</course>
  <speed>0.9702061636580135</speed>
  <fix>3d</fix>
</trkpt>
<trkpt lat="33.8095112" lon="-118.3944317">
  <ele>-43.3</ele>
  <time>2026-09-02T22:08:11Z</time>
  <course>180.17</course>
  <speed>0.99</speed>
  <fix>3d</fix>
</trkpt>
<trkpt lat="33.8095085" lon="-118.3944319">
  <ele>-44.573</ele>
  <time>2026-09-02T22:08:11Z</time>
  <course>181.11</course>
  <speed>0.9702061636580135</speed>
  <fix>3d</fix>
</trkpt>
<trkpt lat="33.8095093" lon="-118.3944317">
  <ele>-43.4</ele>
  <time>2026-09-02T22:08:11Z</time>
  <course>180.17</course>
  <speed>0.99</speed>
  <fix>3d</fix>
</trkpt>
<trkpt lat="33.8095076" lon="-118.3944319">
  <ele>-44.624</ele>
  <time>2026-09-02T22:08:11Z</time>
  <course>181.1</course>
  <speed>0.9702061636580135</speed>
  <fix>3d</fix>
</trkpt>
<trkpt lat="33.8095093" lon="-118.3944317">
  <ele>-43.4</ele>
  <time>2026-09-02T22:08:11Z</time>
  <course>180.17</course>
  <speed>0.99</speed>
  <fix>3d</fix>
</trkpt>
<trkpt lat="33.8095067" lon="-118.3944319">
  <ele>-44.676</ele>
  <time>2026-09-02T22:08:11Z</time>
  <course>181.11</course>
  <speed>0.970051545022222</speed>
  <fix>3d</fix>
</trkpt>
<trkpt lat="33.8095076" lon="-118.3944317">
  <ele>-43.5</ele>
  <time>2026-09-02T22:08:11Z</time>
  <course>180.19</course>
  <speed>0.99</speed>
  <fix>3d</fix>
</trkpt>
<trkpt lat="33.8095058" lon="-118.3944319">
  <ele>-44.729</ele>
  <time>2026-09-02T22:08:11Z</time>
  <course>181.1</course>
  <speed>0.9702061636580135</speed>
  <fix>3d</fix>
</trkpt>
<trkpt lat="33.8095076" lon="-118.3944317">
  <ele>-43.5</ele>
  <time>2026-09-02T22:08:11Z</time>
  <course>180.19</course>
  <speed>0.99</speed>
  <fix>3d</fix>
</trkpt>
<trkpt lat="33.8095049" lon="-118.3944319">
  <ele>-44.779</ele>
  <time>2026-09-02T22:08:11Z</time>
  <course>181.1</course>
  <speed>0.970051545022222</speed>
  <fix>3d</fix>
</trkpt>
<trkpt lat="33.8095057" lon="-118.3944317">
  <ele>-43.6</ele>
  <time>2026-09-02T22:08:11Z</time>
  <course>180.21</course>
  <speed>0.99</speed>
  <fix>3d</fix>
</trkpt>
<trkpt lat="33.809504" lon="-118.3944319">
  <ele>-44.829</ele>
  <time>2026-09-02T22:08:11Z</time>
  <course>181.09</course>
  <speed>0.9702061636580135</speed>
  <fix>3d</fix>
</trkpt>
<trkpt lat="33.8095057" lon="-118.3944317">
  <ele>-43.6</ele>
  <time>2026-09-02T22:08:11Z</time>
  <course>180.21</course>
  <speed>0.99</speed>
  <fix>3d</fix>
</trkpt>
<trkpt lat="33.8095031" lon="-118.3944319">
  <ele>-44.879</ele>
  <time>2026-09-02T22:08:11Z</time>
  <course>181.09</course>
  <speed>0.970051545022222</speed>
  <fix>3d</fix>
</trkpt>
<trkpt lat="33.809504" lon="-118.3944317">
  <ele>-43.7</ele>
  <time>2026-09-02T22:08:11Z</time>
  <course>180.2</course>
  <speed>0.99</speed>
  <fix>3d</fix>
</trkpt>
<trkpt lat="33.8095022" lon="-118.3944319">
  <ele>-44.93</ele>
  <time>2026-09-02T22:08:11Z</time>
  <course>181.09</course>
  <speed>0.9702061636580135</speed>
  <fix>3d</fix>
</trkpt>
<trkpt lat="33.809504" lon="-118.3944317">
  <ele>-43.7</ele>
  <time>2026-09-02T22:08:11Z</time>
  <course>180.2</course>
  <speed>0.99</speed>
  <fix>3d</fix>
</trkpt>
<trkpt lat="33.8095013" lon="-118.3944319">
  <ele>-44.979</ele>
  <time>2026-09-02T22:08:11Z</time>
  <course>181.1</course>
  <speed>0.970051545022222</speed>
  <fix>3d</fix>
</trkpt>
<trkpt lat="33.8095023" lon="-118.3944317">
  <ele>-43.8</ele>
  <time>2026-09-02T22:08:11Z</time>
  <course>180.2</course>
  <speed>0.99</speed>
  <fix>3d</fix>
</trkpt>
<trkpt lat="33.8095004" lon="-118.3944319">
  <ele>-45.026</ele>
  <time>2026-09-02T22:08:11Z</time>
  <course>181.1</course>
  <speed>0.9702061636580135</speed>
  <fix>3d</fix>
</trkpt>
<trkpt lat="33.8095023" lon="-118.3944317">
  <ele>-43.8</ele>
  <time>2026-09-02T22:08:11Z</time>
  <course>180.2</course>
  <speed>0.99</speed>
  <fix>3d</fix>
</trkpt>
<trkpt lat="33.8094995" lon="-118.3944319">
  <ele>-45.071</ele>
  <time>2026-09-02T22:08:11Z</time>
  <course>181.1</course>
  <speed>0.9702061636580135</speed>
  <fix>3d</fix>
</trkpt>
<trkpt lat="33.8095005" lon="-118.3944317">
  <ele>-43.89</ele>
  <time>2026-09-02T22:08:11Z</time>
  <course>180.21</course>
  <speed>0.99</speed>
  <fix>3d</fix>
</trkpt>
<trkpt lat="33.8094986" lon="-118.3944319">
  <ele>-45.112</ele>
  <time>2026-09-02T22:08:11Z</time>
  <course>181.09</course>
  <speed>0.9702061636580135</speed>
  <fix>3d</fix>
</trkpt>
<trkpt lat="33.8095005" lon="-118.3944317">
  <ele>-43.89</ele>
  <time>2026-09-02T22:08:11Z</time>
  <course>180.21</course>
  <speed>0.99</speed>
  <fix>3d</fix>
</trkpt>
<trkpt lat="33.8094977" lon="-118.3944319">
  <ele>-45.148</ele>
  <time>2026-09-02T22:08:11Z</time>
  <course>181.09</course>
  <speed>0.970051545022222</speed>
  <fix>3d</fix>
</trkpt>
<trkpt lat="33.8094986" lon="-118.3944317">
  <ele>-43.98</ele>
  <time>2026-09-02T22:08:11Z</time>
  <course>180.23</course>
  <speed>0.99</speed>
  <fix>3d</fix>
</trkpt>
<trkpt lat="33.8094968" lon="-118.3944319">
  <ele>-45.18</ele>
  <time>2026-09-02T22:08:11Z</time>
  <course>181.08</course>
  <speed>0.9702061636580135</speed>
  <fix>3d</fix>
</trkpt>
<trkpt lat="33.8094986" lon="-118.3944317">
  <ele>-43.98</ele>
  <time>2026-09-02T22:08:11Z</time>
  <course>180.23</course>
  <speed>0.99</speed>
  <fix>3d</fix>
</trkpt>
<trkpt lat="33.8094959" lon="-118.3944319">
  <ele>-45.207</ele>
  <time>2026-09-02T22:08:11Z</time>
  <course>181.08</course>
  <speed>0.970051545022222</speed>
  <fix>3d</fix>
</trkpt>
<trkpt lat="33.8094969" lon="-118.3944317">
  <ele>-44.05</ele>
  <time>2026-09-02T22:08:11Z</time>
  <course>180.23</course>
  <speed>0.99</speed>
  <fix>3d</fix>
</trkpt>
<trkpt lat="33.809495" lon="-118.3944319">
  <ele>-45.228</ele>
  <time>2026-09-02T22:08:11Z</time>
  <course>181.08</course>
  <speed>0.9702061636580135</speed>
  <fix>3d</fix>
</trkpt>
<trkpt lat="33.8094969" lon="-118.3944317">
  <ele>-44.05</ele>
  <time>2026-09-02T22:08:11Z</time>
  <course>180.23</course>
  <speed>0.99</speed>
  <fix>3d</fix>
</trkpt>
<trkpt lat="33.8094941" lon="-118.3944319">
  <ele>-45.238</ele>
  <time>2026-09-02T22:08:11Z</time>
  <course>181.09</course>
  <speed>0.970051545022222</speed>
  <fix>3d</fix>
</trkpt>
<trkpt lat="33.809495" lon="-118.3944317">
  <ele>-44.11</ele>
  <time>2026-09-02T22:08:11Z</time>
  <course>180.23</course>
  <speed>0.99</speed>
  <fix>3d</fix>
</trkpt>
<trkpt lat="33.8094932" lon="-118.3944319">
  <ele>-45.236</ele>
  <time>2026-09-02T22:08:11Z</time>
  <course>181.08</course>
  <speed>0.9702061636580135</speed>
  <fix>3d</fix>
</trkpt>
<trkpt lat="33.809495" lon="-118.3944317">
  <ele>-44.11</ele>
  <time>2026-09-02T22:08:11Z</time>
  <course>180.23</course>
  <speed>0.99</speed>
  <fix>3d</fix>
</trkpt>
<trkpt lat="33.8094923" lon="-118.3944319">
  <ele>-45.224</ele>
  <time>2026-09-02T22:08:11Z</time>
  <course>181.08</course>
  <speed>0.970051545022222</speed>
  <fix>3d</fix>
</trkpt>
<trkpt lat="33.8094933" lon="-118.3944317">
  <ele>-44.13</ele>
  <time>2026-09-02T22:08:11Z</time>
  <course>180.23</course>
  <speed>0.99</speed>
  <fix>3d</fix>
</trkpt>
<trkpt lat="33.8094914" lon="-118.3944319">
  <ele>-45.202</ele>
  <time>2026-09-02T22:08:11Z</time>
  <course>181.09</course>
  <speed>0.9702061636580135</speed>
  <fix>3d</fix>
</trkpt>
<trkpt lat="33.8094933" lon="-118.3944317">
  <ele>-44.13</ele>
  <time>2026-09-02T22:08:11Z</time>
  <course>180.23</course>
  <speed>0.99</speed>
  <fix>3d</fix>
</trkpt>
<trkpt lat="33.8094905" lon="-118.3944319">
  <ele>-45.173</ele>
  <time>2026-09-02T22:08:11Z</time>
  <course>181.09</course>
  <speed>0.970051545022222</speed>
  <fix>3d</fix>
</trkpt>
<trkpt lat="33.8094914" lon="-118.3944317">
  <ele>-44.12</ele>
  <time>2026-09-02T22:08:11Z</time>
  <course>180.23</course>
  <speed>0.99</speed>
  <fix>3d</fix>
</trkpt>
<trkpt lat="33.8094896" lon="-118.3944319">
  <ele>-45.142</ele>
  <time>2026-09-02T22:08:11Z</time>
  <course>181.09</course>
  <speed>0.9702061636580135</speed>
  <fix>3d</fix>
</trkpt>
<trkpt lat="33.8094914" lon="-118.3944317">
  <ele>-44.12</ele>
  <time>2026-09-02T22:08:11Z</time>
  <course>180.23</course>
  <speed>0.99</speed>
  <fix>3d</fix>
</trkpt>
<trkpt lat="33.8094887" lon="-118.3944319">
  <ele>-45.11</ele>
  <time>2026-09-02T22:08:11Z</time>
  <course>181.08</course>
  <speed>0.970051545022222</speed>
  <fix>3d</fix>
</trkpt>
<trkpt lat="33.8094897" lon="-118.3944317">
  <ele>-44.07</ele>
  <time>2026-09-02T22:08:11Z</time>
  <course>180.24</course>
  <speed>0.99</speed>
  <fix>3d</fix>
</trkpt>
<trkpt lat="33.8094878" lon="-118.3944319">
  <ele>-45.078</ele>
  <time>2026-09-02T22:08:11Z</time>
  <course>181.08</course>
  <speed>0.9702061636580135</speed>
  <fix>3d</fix>
</trkpt>
<trkpt lat="33.8094897" lon="-118.3944317">
  <ele>-44.07</ele>
  <time>2026-09-02T22:08:11Z</time>
  <course>180.24</course>
  <speed>0.99</speed>
  <fix>3d</fix>
</trkpt>
<trkpt lat="33.8094869" lon="-118.3944319">
  <ele>-45.047</ele>
  <time>2026-09-02T22:08:12Z</time>
  <course>181.09</course>
  <speed>0.970051545022222</speed>
  <fix>3d</fix>
</trkpt>
<trkpt lat="33.8094878" lon="-118.3944317">
  <ele>-44.02</ele>
  <time>2026-09-02T22:08:12Z</time>
  <course>180.27</course>
  <speed>0.99</speed>
  <fix>3d</fix>
</trkpt>
<trkpt lat="33.809486" lon="-118.3944319">
  <ele>-45.02</ele>
  <time>2026-09-02T22:08:12Z</time>
  <course>181.08</course>
  <speed>0.9702061636580135</speed>
  <fix>3d</fix>
</trkpt>
<trkpt lat="33.8094878" lon="-118.3944317">
  <ele>-44.02</ele>
  <time>2026-09-02T22:08:12Z</time>
  <course>180.27</course>
  <speed>0.99</speed>
  <fix>3d</fix>
</trkpt>
<trkpt lat="33.8094851" lon="-118.3944319">
  <ele>-44.995</ele>
  <time>2026-09-02T22:08:12Z</time>
  <course>181.09</course>
  <speed>0.970051545022222</speed>
  <fix>3d</fix>
</trkpt>
<trkpt lat="33.8094861" lon="-118.3944317">
  <ele>-43.96</ele>
  <time>2026-09-02T22:08:12Z</time>
  <course>180.28</course>
  <speed>0.99</speed>
  <fix>3d</fix>
</trkpt>
<trkpt lat="33.8094842" lon="-118.3944319">
  <ele>-44.972</ele>
  <time>2026-09-02T22:08:12Z</time>
  <course>181.09</course>
  <speed>0.9702061636580135</speed>
  <fix>3d</fix>
</trkpt>
<trkpt lat="33.8094861" lon="-118.3944317">
  <ele>-43.96</ele>
  <time>2026-09-02T22:08:12Z</time>
  <course>180.28</course>
  <speed>0.99</speed>
  <fix>3d</fix>
</trkpt>
<trkpt lat="33.8094833" lon="-118.3944319">
  <ele>-44.952</ele>
  <time>2026-09-02T22:08:12Z</time>
  <course>181.09</course>
  <speed>0.970051545022222</speed>
  <fix>3d</fix>
</trkpt>
<trkpt lat="33.8094842" lon="-118.3944317">
  <ele>-43.92</ele>
  <time>2026-09-02T22:08:12Z</time>
  <course>180.29</course>
  <speed>0.99</speed>
  <fix>3d</fix>
</trkpt>
<trkpt lat="33.8094824" lon="-118.3944319">
  <ele>-44.939</ele>
  <time>2026-09-02T22:08:12Z</time>
  <course>181.08</course>
  <speed>0.9702061636580135</speed>
  <fix>3d</fix>
</trkpt>
<trkpt lat="33.8094842" lon="-118.3944317">
  <ele>-43.92</ele>
  <time>2026-09-02T22:08:12Z</time>
  <course>180.29</course>
  <speed>0.99</speed>
  <fix>3d</fix>
</trkpt>
<trkpt lat="33.8094815" lon="-118.3944319">
  <ele>-44.934</ele>
  <time>2026-09-02T22:08:12Z</time>
  <course>181.08</course>
  <speed>0.970051545022222</speed>
  <fix>3d</fix>
</trkpt>
<trkpt lat="33.8094825" lon="-118.3944317">
  <ele>-43.89</ele>
  <time>2026-09-02T22:08:12Z</time>
  <course>180.3</course>
  <speed>0.99</speed>
  <fix>3d</fix>
</trkpt>
<trkpt lat="33.8094806" lon="-118.3944319">
  <ele>-44.935</ele>
  <time>2026-09-02T22:08:12Z</time>
  <course>181.08</course>
  <speed>0.9702061636580135</speed>
  <fix>3d</fix>
</trkpt>
<trkpt lat="33.8094825" lon="-118.3944317">
  <ele>-43.89</ele>
  <time>2026-09-02T22:08:12Z</time>
  <course>180.3</course>
  <speed>0.99</speed>
  <fix>3d</fix>
</trkpt>
<trkpt lat="33.8094797" lon="-118.3944319">
  <ele>-44.945</ele>
  <time>2026-09-02T22:08:12Z</time>
  <course>181.08</course>
  <speed>0.970051545022222</speed>
  <fix>3d</fix>
</trkpt>
<trkpt lat="33.8094806" lon="-118.3944318">
  <ele>-43.88</ele>
  <time>2026-09-02T22:08:12Z</time>
  <course>180.31</course>
  <speed>0.99</speed>
  <fix>3d</fix>
</trkpt>
<trkpt lat="33.8094788" lon="-118.3944319">
  <ele>-44.963</ele>
  <time>2026-09-02T22:08:12Z</time>
  <course>181.08</course>
  <speed>0.970051545022222</speed>
  <fix>3d</fix>
</trkpt>
<trkpt lat="33.8094806" lon="-118.3944318">
  <ele>-43.88</ele>
  <time>2026-09-02T22:08:12Z</time>
  <course>180.31</course>
  <speed>0.99</speed>
  <fix>3d</fix>
</trkpt>
<trkpt lat="33.8094779" lon="-118.3944319">
  <ele>-44.983</ele>
  <time>2026-09-02T22:08:12Z</time>
  <course>181.05</course>
  <speed>0.970051545022222</speed>
  <fix>3d</fix>
</trkpt>
<trkpt lat="33.8094789" lon="-118.3944318">
  <ele>-43.89</ele>
  <time>2026-09-02T22:08:12Z</time>
  <course>180.29</course>
  <speed>0.99</speed>
  <fix>3d</fix>
</trkpt>
<trkpt lat="33.809477" lon="-118.3944319">
  <ele>-45.002</ele>
  <time>2026-09-02T22:08:12Z</time>
  <course>181.01</course>
  <speed>0.970051545022222</speed>
  <fix>3d</fix>
</trkpt>
<trkpt lat="33.8094789" lon="-118.3944318">
  <ele>-43.89</ele>
  <time>2026-09-02T22:08:12Z</time>
  <course>180.29</course>
  <speed>0.99</speed>
  <fix>3d</fix>
</trkpt>
<trkpt lat="33.8094761" lon="-118.3944319">
  <ele>-45.021</ele>
  <time>2026-09-02T22:08:12Z</time>
  <course>180.96</course>
  <speed>0.970051545022222</speed>
  <fix>3d</fix>
</trkpt>
<trkpt lat="33.8094772" lon="-118.3944318">
  <ele>-43.93</ele>
  <time>2026-09-02T22:08:12Z</time>
  <course>180.21</course>
  <speed>0.99</speed>
  <fix>3d</fix>
</trkpt>
<trkpt lat="33.8094752" lon="-118.3944319">
  <ele>-45.041</ele>
  <time>2026-09-02T22:08:12Z</time>
  <course>180.91</course>
  <speed>0.970051545022222</speed>
  <fix>3d</fix>
</trkpt>
<trkpt lat="33.8094772" lon="-118.3944318">
  <ele>-43.93</ele>
  <time>2026-09-02T22:08:12Z</time>
  <course>180.21</course>
  <speed>0.99</speed>
  <fix>3d</fix>
</trkpt>
<trkpt lat="33.8094743" lon="-118.3944319">
  <ele>-45.06</ele>
  <time>2026-09-02T22:08:12Z</time>
  <course>180.86</course>
  <speed>0.970051545022222</speed>
  <fix>3d</fix>
</trkpt>
<trkpt lat="33.8094753" lon="-118.3944318">
  <ele>-43.97</ele>
  <time>2026-09-02T22:08:12Z</time>
  <course>180.14</course>
  <speed>0.99</speed>
  <fix>3d</fix>
</trkpt>
<trkpt lat="33.8094735" lon="-118.3944319">
  <ele>-45.078</ele>
  <time>2026-09-02T22:08:12Z</time>
  <course>180.82</course>
  <speed>0.970051545022222</speed>
  <fix>3d</fix>
</trkpt>
<trkpt lat="33.8094753" lon="-118.3944318">
  <ele>-43.97</ele>
  <time>2026-09-02T22:08:12Z</time>
  <course>180.14</course>
  <speed>0.99</speed>
  <fix>3d</fix>
</trkpt>
<trkpt lat="33.8094726" lon="-118.3944319">
  <ele>-45.089</ele>
  <time>2026-09-02T22:08:12Z</time>
  <course>180.78</course>
  <speed>0.970051545022222</speed>
  <fix>3d</fix>
</trkpt>
<trkpt lat="33.8094736" lon="-118.3944318">
  <ele>-44.0</ele>
  <time>2026-09-02T22:08:12Z</time>
  <course>180.09</course>
  <speed>0.99</speed>
  <fix>3d</fix>
</trkpt>
<trkpt lat="33.8094717" lon="-118.3944319">
  <ele>-45.096</ele>
  <time>2026-09-02T22:08:12Z</time>
  <course>180.75</course>
  <speed>0.970051545022222</speed>
  <fix>3d</fix>
</trkpt>
<trkpt lat="33.8094736" lon="-118.3944318">
  <ele>-44.0</ele>
  <time>2026-09-02T22:08:12Z</time>
  <course>180.09</course>
  <speed>0.99</speed>
  <fix>3d</fix>
</trkpt>
<trkpt lat="33.8094708" lon="-118.3944319">
  <ele>-45.1</ele>
  <time>2026-09-02T22:08:12Z</time>
  <course>180.73</course>
  <speed>0.9800510190801294</speed>
  <fix>3d</fix>
</trkpt>
<trkpt lat="33.8094718" lon="-118.3944318">
  <ele>-44.02</ele>
  <time>2026-09-02T22:08:12Z</time>
  <course>180.03</course>
  <speed>0.99</speed>
  <fix>3d</fix>
</trkpt>
<trkpt lat="33.8094699" lon="-118.3944319">
  <ele>-45.099</ele>
  <time>2026-09-02T22:08:12Z</time>
  <course>180.71</course>
  <speed>0.970051545022222</speed>
  <fix>3d</fix>
</trkpt>
<trkpt lat="33.8094718" lon="-118.3944318">
  <ele>-44.02</ele>
  <time>2026-09-02T22:08:12Z</time>
  <course>180.03</course>
  <speed>0.99</speed>
  <fix>3d</fix>
</trkpt>
<trkpt lat="33.809469" lon="-118.3944319">
  <ele>-45.09</ele>
  <time>2026-09-02T22:08:12Z</time>
  <course>180.69</course>
  <speed>0.9800510190801294</speed>
  <fix>3d</fix>
</trkpt>
<trkpt lat="33.80947" lon="-118.3944318">
  <ele>-44.03</ele>
  <time>2026-09-02T22:08:12Z</time>
  <course>180.0</course>
  <speed>1.0</speed>
  <fix>3d</fix>
</trkpt>
<trkpt lat="33.8094681" lon="-118.3944319">
  <ele>-45.078</ele>
  <time>2026-09-02T22:08:12Z</time>
  <course>180.68</course>
  <speed>0.9800510190801294</speed>
  <fix>3d</fix>
</trkpt>
<trkpt lat="33.80947" lon="-118.3944318">
  <ele>-44.03</ele>
  <time>2026-09-02T22:08:12Z</time>
  <course>180.0</course>
  <speed>1.0</speed>
  <fix>3d</fix>
</trkpt>
<trkpt lat="33.8094672" lon="-118.3944319">
  <ele>-45.063</ele>
  <time>2026-09-02T22:08:12Z</time>
  <course>180.67</course>
  <speed>0.9800510190801294</speed>
  <fix>3d</fix>
</trkpt>
<trkpt lat="33.8094682" lon="-118.3944318">
  <ele>-44.01</ele>
  <time>2026-09-02T22:08:12Z</time>
  <course>179.99</course>
  <speed>1.0</speed>
  <fix>3d</fix>
</trkpt>
<trkpt lat="33.8094663" lon="-118.3944319">
  <ele>-45.045</ele>
  <time>2026-09-02T22:08:12Z</time>
  <course>180.65</course>
  <speed>0.9800510190801294</speed>
  <fix>3d</fix>
</trkpt>
<trkpt lat="33.8094682" lon="-118.3944318">
  <ele>-44.01</ele>
  <time>2026-09-02T22:08:12Z</time>
  <course>179.99</course>
  <speed>1.0</speed>
  <fix>3d</fix>
</trkpt>
<trkpt lat="33.8094654" lon="-118.3944319">
  <ele>-45.028</ele>
  <time>2026-09-02T22:08:12Z</time>
  <course>180.65</course>
  <speed>0.9800510190801294</speed>
  <fix>3d</fix>
</trkpt>
<trkpt lat="33.8094664" lon="-118.3944318">
  <ele>-43.98</ele>
  <time>2026-09-02T22:08:12Z</time>
  <course>179.98</course>
  <speed>1.0</speed>
  <fix>3d</fix>
</trkpt>
<trkpt lat="33.8094645" lon="-118.3944319">
  <ele>-45.01</ele>
  <time>2026-09-02T22:08:12Z</time>
  <course>180.64</course>
  <speed>0.9800510190801294</speed>
  <fix>3d</fix>
</trkpt>
<trkpt lat="33.8094664" lon="-118.3944318">
  <ele>-43.98</ele>
  <time>2026-09-02T22:08:12Z</time>
  <course>179.98</course>
  <speed>1.0</speed>
  <fix>3d</fix>
</trkpt>
<trkpt lat="33.8094636" lon="-118.3944319">
  <ele>-44.992</ele>
  <time>2026-09-02T22:08:12Z</time>
  <course>180.64</course>
  <speed>0.9800510190801294</speed>
  <fix>3d</fix>
</trkpt>
<trkpt lat="33.8094646" lon="-118.3944318">
  <ele>-43.94</ele>
  <time>2026-09-02T22:08:12Z</time>
  <course>179.96</course>
  <speed>1.0</speed>
  <fix>3d</fix>
</trkpt>
<trkpt lat="33.8094627" lon="-118.3944319">
  <ele>-44.972</ele>
  <time>2026-09-02T22:08:12Z</time>
  <course>180.63</course>
  <speed>0.9800510190801294</speed>
  <fix>3d</fix>
</trkpt>
<trkpt lat="33.8094646" lon="-118.3944318">
  <ele>-43.94</ele>
  <time>2026-09-02T22:08:12Z</time>
  <course>179.96</course>
  <speed>1.0</speed>
  <fix>3d</fix>
</trkpt>
<trkpt lat="33.8094618" lon="-118.3944319">
  <ele>-44.949</ele>
  <time>2026-09-02T22:08:12Z</time>
  <course>180.63</course>
  <speed>0.9800510190801294</speed>
  <fix>3d</fix>
</trkpt>
<trkpt lat="33.8094628" lon="-118.3944318">
  <ele>-43.9</ele>
  <time>2026-09-02T22:08:12Z</time>
  <course>179.93</course>
  <speed>1.0</speed>
  <fix>3d</fix>
</trkpt>
<trkpt lat="33.8094609" lon="-118.3944319">
  <ele>-44.933</ele>
  <time>2026-09-02T22:08:12Z</time>
  <course>180.62</course>
  <speed>0.9800510190801294</speed>
  <fix>3d</fix>
</trkpt>
<trkpt lat="33.8094628" lon="-118.3944318">
  <ele>-43.9</ele>
  <time>2026-09-02T22:08:12Z</time>
  <course>179.93</course>
  <speed>1.0</speed>
  <fix>3d</fix>
</trkpt>
<trkpt lat="33.80946" lon="-118.3944319">
  <ele>-44.928</ele>
  <time>2026-09-02T22:08:12Z</time>
  <course>180.63</course>
  <speed>0.9800510190801294</speed>
  <fix>3d</fix>
</trkpt>
<trkpt lat="33.809461" lon="-118.3944318">
  <ele>-43.87</ele>
  <time>2026-09-02T22:08:12Z</time>
  <course>179.92</course>
  <speed>1.0</speed>
  <fix>3d</fix>
</trkpt>
<trkpt lat="33.8094591" lon="-118.3944319">
  <ele>-44.929</ele>
  <time>2026-09-02T22:08:12Z</time>
  <course>180.63</course>
  <speed>0.9800510190801294</speed>
  <fix>3d</fix>
</trkpt>
<trkpt lat="33.809461" lon="-118.3944318">
  <ele>-43.87</ele>
  <time>2026-09-02T22:08:12Z</time>
  <course>179.92</course>
  <speed>1.0</speed>
  <fix>3d</fix>
</trkpt>
<trkpt lat="33.8094582" lon="-118.3944319">
  <ele>-44.931</ele>
  <time>2026-09-02T22:08:12Z</time>
  <course>180.63</course>
  <speed>0.9800510190801294</speed>
  <fix>3d</fix>
</trkpt>
<trkpt lat="33.8094591" lon="-118.3944318">
  <ele>-43.86</ele>
  <time>2026-09-02T22:08:12Z</time>
  <course>179.9</course>
  <speed>1.0</speed>
  <fix>3d</fix>
</trkpt>
<trkpt lat="33.8094573" lon="-118.3944319">
  <ele>-44.934</ele>
  <time>2026-09-02T22:08:12Z</time>
  <course>180.63</course>
  <speed>0.9800510190801294</speed>
  <fix>3d</fix>
</trkpt>
<trkpt lat="33.8094591" lon="-118.3944318">
  <ele>-43.86</ele>
  <time>2026-09-02T22:08:12Z</time>
  <course>179.9</course>
  <speed>1.0</speed>
  <fix>3d</fix>
</trkpt>
<trkpt lat="33.8094564" lon="-118.3944319">
  <ele>-44.941</ele>
  <time>2026-09-02T22:08:12Z</time>
  <course>180.64</course>
  <speed>0.9800510190801294</speed>
  <fix>3d</fix>
</trkpt>
<trkpt lat="33.8094574" lon="-118.3944318">
  <ele>-43.86</ele>
  <time>2026-09-02T22:08:12Z</time>
  <course>179.9</course>
  <speed>1.0</speed>
  <fix>3d</fix>
</trkpt>
<trkpt lat="33.8094555" lon="-118.3944319">
  <ele>-44.958</ele>
  <time>2026-09-02T22:08:12Z</time>
  <course>180.64</course>
  <speed>0.9800510190801294</speed>
  <fix>3d</fix>
</trkpt>
<trkpt lat="33.8094574" lon="-118.3944318">
  <ele>-43.86</ele>
  <time>2026-09-02T22:08:12Z</time>
  <course>179.9</course>
  <speed>1.0</speed>
  <fix>3d</fix>
</trkpt>
<trkpt lat="33.8094546" lon="-118.3944319">
  <ele>-44.979</ele>
  <time>2026-09-02T22:08:12Z</time>
  <course>180.65</course>
  <speed>0.9800510190801294</speed>
  <fix>3d</fix>
</trkpt>
<trkpt lat="33.8094555" lon="-118.3944318">
  <ele>-43.88</ele>
  <time>2026-09-02T22:08:12Z</time>
  <course>179.9</course>
  <speed>1.0</speed>
  <fix>3d</fix>
</trkpt>
<trkpt lat="33.8094537" lon="-118.3944319">
  <ele>-45.003</ele>
  <time>2026-09-02T22:08:12Z</time>
  <course>180.65</course>
  <speed>0.9800510190801294</speed>
  <fix>3d</fix>
</trkpt>
<trkpt lat="33.8094555" lon="-118.3944318">
  <ele>-43.88</ele>
  <time>2026-09-02T22:08:12Z</time>
  <course>179.9</course>
  <speed>1.0</speed>
  <fix>3d</fix>
</trkpt>
<trkpt lat="33.8094528" lon="-118.3944319">
  <ele>-45.027</ele>
  <time>2026-09-02T22:08:12Z</time>
  <course>180.65</course>
  <speed>0.9800510190801294</speed>
  <fix>3d</fix>
</trkpt>
<trkpt lat="33.8094536" lon="-118.3944318">
  <ele>-43.92</ele>
  <time>2026-09-02T22:08:12Z</time>
  <course>179.9</course>
  <speed>1.0</speed>
  <fix>3d</fix>
</trkpt>
<trkpt lat="33.8094519" lon="-118.3944319">
  <ele>-45.048</ele>
  <time>2026-09-02T22:08:12Z</time>
  <course>180.66</course>
  <speed>0.9800510190801294</speed>
  <fix>3d</fix>
</trkpt>
<trkpt lat="33.8094536" lon="-118.3944318">
  <ele>-43.92</ele>
  <time>2026-09-02T22:08:12Z</time>
  <course>179.9</course>
  <speed>1.0</speed>
  <fix>3d</fix>
</trkpt>
<trkpt lat="33.809451" lon="-118.3944319">
  <ele>-45.064</ele>
  <time>2026-09-02T22:08:12Z</time>
  <course>180.67</course>
  <speed>0.9800510190801294</speed>
  <fix>3d</fix>
</trkpt>
<trkpt lat="33.8094519" lon="-118.3944318">
  <ele>-43.95</ele>
  <time>2026-09-02T22:08:12Z</time>
  <course>179.87</course>
  <speed>1.0</speed>
  <fix>3d</fix>
</trkpt>
<trkpt lat="33.8094501" lon="-118.3944319">
  <ele>-45.078</ele>
  <time>2026-09-02T22:08:12Z</time>
  <course>180.68</course>
  <speed>0.970051545022222</speed>
  <fix>3d</fix>
</trkpt>
<trkpt lat="33.8094519" lon="-118.3944318">
  <ele>-43.95</ele>
  <time>2026-09-02T22:08:12Z</time>
  <course>179.87</course>
  <speed>1.0</speed>
  <fix>3d</fix>
</trkpt>
<trkpt lat="33.8094492" lon="-118.3944319">
  <ele>-45.087</ele>
  <time>2026-09-02T22:08:12Z</time>
  <course>180.68</course>
  <speed>0.9800510190801294</speed>
  <fix>3d</fix>
</trkpt>
<trkpt lat="33.80945" lon="-118.3944318">
  <ele>-43.98</ele>
  <time>2026-09-02T22:08:12Z</time>
  <course>179.86</course>
  <speed>1.0</speed>
  <fix>3d</fix>
</trkpt>
<trkpt lat="33.8094483" lon="-118.3944319">
  <ele>-45.087</ele>
  <time>2026-09-02T22:08:12Z</time>
  <course>180.68</course>
  <speed>0.970051545022222</speed>
  <fix>3d</fix>
</trkpt>
<trkpt lat="33.80945" lon="-118.3944318">
  <ele>-43.98</ele>
  <time>2026-09-02T22:08:12Z</time>
  <course>179.86</course>
  <speed>1.0</speed>
  <fix>3d</fix>
</trkpt>
<trkpt lat="33.8094474" lon="-118.3944319">
  <ele>-45.082</ele>
  <time>2026-09-02T22:08:12Z</time>
  <course>180.69</course>
  <speed>0.970051545022222</speed>
  <fix>3d</fix>
</trkpt>
<trkpt lat="33.8094483" lon="-118.3944318">
  <ele>-44.0</ele>
  <time>2026-09-02T22:08:12Z</time>
  <course>179.85</course>
  <speed>1.0</speed>
  <fix>3d</fix>
</trkpt>
<trkpt lat="33.8094465" lon="-118.3944319">
  <ele>-45.075</ele>
  <time>2026-09-02T22:08:12Z</time>
  <course>180.7</course>
  <speed>0.970051545022222</speed>
  <fix>3d</fix>
</trkpt>
<trkpt lat="33.8094483" lon="-118.3944318">
  <ele>-44.0</ele>
  <time>2026-09-02T22:08:12Z</time>
  <course>179.85</course>
  <speed>1.0</speed>
  <fix>3d</fix>
</trkpt>
<trkpt lat="33.8094456" lon="-118.3944319">
  <ele>-45.067</ele>
  <time>2026-09-02T22:08:12Z</time>
  <course>180.7</course>
  <speed>0.970051545022222</speed>
  <fix>3d</fix>
</trkpt>
<trkpt lat="33.8094464" lon="-118.3944318">
  <ele>-43.98</ele>
  <time>2026-09-02T22:08:12Z</time>
  <course>179.82</course>
  <speed>1.0</speed>
  <fix>3d</fix>
</trkpt>
<trkpt lat="33.8094447" lon="-118.3944319">
  <ele>-45.058</ele>
  <time>2026-09-02T22:08:12Z</time>
  <course>180.71</course>
  <speed>0.970051545022222</speed>
  <fix>3d</fix>
</trkpt>
<trkpt lat="33.8094464" lon="-118.3944318">
  <ele>-43.98</ele>
  <time>2026-09-02T22:08:12Z</time>
  <course>179.82</course>
  <speed>1.0</speed>
  <fix>3d</fix>
</trkpt>
<trkpt lat="33.8094438" lon="-118.3944319">
  <ele>-45.048</ele>
  <time>2026-09-02T22:08:12Z</time>
  <course>180.72</course>
  <speed>0.970051545022222</speed>
  <fix>3d</fix>
</trkpt>
<trkpt lat="33.8094447" lon="-118.3944318">
  <ele>-43.97</ele>
  <time>2026-09-02T22:08:12Z</time>
  <course>179.8</course>
  <speed>1.0</speed>
  <fix>3d</fix>
</trkpt>
<trkpt lat="33.8094429" lon="-118.3944319">
  <ele>-45.038</ele>
  <time>2026-09-02T22:08:12Z</time>
  <course>180.72</course>
  <speed>0.970051545022222</speed>
  <fix>3d</fix>
</trkpt>
<trkpt lat="33.8094447" lon="-118.3944318">
  <ele>-43.97</ele>
  <time>2026-09-02T22:08:12Z</time>
  <course>179.8</course>
  <speed>1.0</speed>
  <fix>3d</fix>
</trkpt>
<trkpt lat="33.809442" lon="-118.3944319">
  <ele>-45.028</ele>
  <time>2026-09-02T22:08:12Z</time>
  <course>180.74</course>
  <speed>0.970051545022222</speed>
  <fix>3d</fix>
</trkpt>
<trkpt lat="33.8094428" lon="-118.3944318">
  <ele>-43.96</ele>
  <time>2026-09-02T22:08:12Z</time>
  <course>179.78</course>
  <speed>1.0</speed>
  <fix>3d</fix>
</trkpt>
<trkpt lat="33.8094411" lon="-118.3944319">
  <ele>-45.019</ele>
  <time>2026-09-02T22:08:12Z</time>
  <course>180.74</course>
  <speed>0.970051545022222</speed>
  <fix>3d</fix>
</trkpt>
<trkpt lat="33.8094428" lon="-118.3944318">
  <ele>-43.96</ele>
  <time>2026-09-02T22:08:12Z</time>
  <course>179.78</course>
  <speed>1.0</speed>
  <fix>3d</fix>
</trkpt>
<trkpt lat="33.8094402" lon="-118.3944319">
  <ele>-45.01</ele>
  <time>2026-09-02T22:08:12Z</time>
  <course>180.75</course>
  <speed>0.970051545022222</speed>
  <fix>3d</fix>
</trkpt>
<trkpt lat="33.8094411" lon="-118.3944318">
  <ele>-43.94</ele>
  <time>2026-09-02T22:08:12Z</time>
  <course>179.76</course>
  <speed>1.0</speed>
  <fix>3d</fix>
</trkpt>
<trkpt lat="33.8094393" lon="-118.3944319">
  <ele>-45.005</ele>
  <time>2026-09-02T22:08:12Z</time>
  <course>180.76</course>
  <speed>0.970051545022222</speed>
  <fix>3d</fix>
</trkpt>
<trkpt lat="33.8094411" lon="-118.3944318">
  <ele>-43.94</ele>
  <time>2026-09-02T22:08:12Z</time>
  <course>179.76</course>
  <speed>1.0</speed>
  <fix>3d</fix>
</trkpt>
<trkpt lat="33.8094384" lon="-118.3944319">
  <ele>-45.001</ele>
  <time>2026-09-02T22:08:12Z</time>
  <course>180.77</course>
  <speed>0.970051545022222</speed>
  <fix>3d</fix>
</trkpt>
<trkpt lat="33.8094392" lon="-118.3944318">
  <ele>-43.92</ele>
  <time>2026-09-02T22:08:12Z</time>
  <course>179.75</course>
  <speed>1.0</speed>
  <fix>3d</fix>
</trkpt>
<trkpt lat="33.8094375" lon="-118.3944319">
  <ele>-44.997</ele>
  <time>2026-09-02T22:08:12Z</time>
  <course>180.78</course>
  <speed>0.970051545022222</speed>
  <fix>3d</fix>
</trkpt>
<trkpt lat="33.8094392" lon="-118.3944318">
  <ele>-43.92</ele>
  <time>2026-09-02T22:08:12Z</time>
  <course>179.75</course>
  <speed>1.0</speed>
  <fix>3d</fix>
</trkpt>
<trkpt lat="33.8094366" lon="-118.3944319">
  <ele>-44.99</ele>
  <time>2026-09-02T22:08:12Z</time>
  <course>180.79</course>
  <speed>0.970051545022222</speed>
  <fix>3d</fix>
</trkpt>
<trkpt lat="33.8094375" lon="-118.3944318">
  <ele>-43.91</ele>
  <time>2026-09-02T22:08:12Z</time>
  <course>179.74</course>
  <speed>1.0</speed>
  <fix>3d</fix>
</trkpt>
<trkpt lat="33.8094357" lon="-118.3944319">
  <ele>-44.984</ele>
  <time>2026-09-02T22:08:12Z</time>
  <course>180.8</course>
  <speed>0.970051545022222</speed>
  <fix>3d</fix>
</trkpt>
<trkpt lat="33.8094375" lon="-118.3944318">
  <ele>-43.91</ele>
  <time>2026-09-02T22:08:12Z</time>
  <course>179.74</course>
  <speed>1.0</speed>
  <fix>3d</fix>
</trkpt>
<trkpt lat="33.8094348" lon="-118.3944319">
  <ele>-44.978</ele>
  <time>2026-09-02T22:08:12Z</time>
  <course>180.81</course>
  <speed>0.970051545022222</speed>
  <fix>3d</fix>
</trkpt>
<trkpt lat="33.8094356" lon="-118.3944318">
  <ele>-43.9</ele>
  <time>2026-09-02T22:08:12Z</time>
  <course>179.73</course>
  <speed>1.0</speed>
  <fix>3d</fix>
</trkpt>
<trkpt lat="33.8094339" lon="-118.3944319">
  <ele>-44.974</ele>
  <time>2026-09-02T22:08:12Z</time>
  <course>180.81</course>
  <speed>0.970051545022222</speed>
  <fix>3d</fix>
</trkpt>
<trkpt lat="33.8094356" lon="-118.3944318">
  <ele>-43.9</ele>
  <time>2026-09-02T22:08:12Z</time>
  <course>179.73</course>
  <speed>1.0</speed>
  <fix>3d</fix>
</trkpt>
<trkpt lat="33.809433" lon="-118.3944319">
  <ele>-44.972</ele>
  <time>2026-09-02T22:08:12Z</time>
  <course>180.82</course>
  <speed>0.970051545022222</speed>
  <fix>3d</fix>
</trkpt>
<trkpt lat="33.8094339" lon="-118.3944318">
  <ele>-43.9</ele>
  <time>2026-09-02T22:08:12Z</time>
  <course>179.73</course>
  <speed>1.0</speed>
  <fix>3d</fix>
</trkpt>
<trkpt lat="33.8094321" lon="-118.3944319">
  <ele>-44.974</ele>
  <time>2026-09-02T22:08:12Z</time>
  <course>180.82</course>
  <speed>0.970051545022222</speed>
  <fix>3d</fix>
</trkpt>
<trkpt lat="33.8094339" lon="-118.3944318">
  <ele>-43.9</ele>
  <time>2026-09-02T22:08:12Z</time>
  <course>179.73</course>
  <speed>1.0</speed>
  <fix>3d</fix>
</trkpt>
<trkpt lat="33.8094312" lon="-118.3944319">
  <ele>-44.979</ele>
  <time>2026-09-02T22:08:12Z</time>
  <course>180.83</course>
  <speed>0.970051545022222</speed>
  <fix>3d</fix>
</trkpt>
<trkpt lat="33.809432" lon="-118.3944318">
  <ele>-43.9</ele>
  <time>2026-09-02T22:08:12Z</time>
  <course>179.72</course>
  <speed>1.0</speed>
  <fix>3d</fix>
</trkpt>
<trkpt lat="33.8094303" lon="-118.3944319">
  <ele>-44.983</ele>
  <time>2026-09-02T22:08:12Z</time>
  <course>180.83</course>
  <speed>0.970051545022222</speed>
  <fix>3d</fix>
</trkpt>
<trkpt lat="33.809432" lon="-118.3944318">
  <ele>-43.9</ele>
  <time>2026-09-02T22:08:12Z</time>
  <course>179.72</course>
  <speed>1.0</speed>
  <fix>3d</fix>
</trkpt>
<trkpt lat="33.8094294" lon="-118.3944319">
  <ele>-44.982</ele>
  <time>2026-09-02T22:08:12Z</time>
  <course>180.84</course>
  <speed>0.970051545022222</speed>
  <fix>3d</fix>
</trkpt>
<trkpt lat="33.8094303" lon="-118.3944318">
  <ele>-43.9</ele>
  <time>2026-09-02T22:08:12Z</time>
  <course>179.72</course>
  <speed>0.99</speed>
  <fix>3d</fix>
</trkpt>
<trkpt lat="33.8094285" lon="-118.3944319">
  <ele>-44.98</ele>
  <time>2026-09-02T22:08:12Z</time>
  <course>180.84</course>
  <speed>0.880056816347672</speed>
  <fix>3d</fix>
</trkpt>
<trkpt lat="33.8094303" lon="-118.3944318">
  <ele>-43.9</ele>
  <time>2026-09-02T22:08:12Z</time>
  <course>179.72</course>
  <speed>0.99</speed>
  <fix>3d</fix>
</trkpt>
<trkpt lat="33.8094277" lon="-118.3944319">
  <ele>-44.98</ele>
  <time>2026-09-02T22:08:12Z</time>
  <course>180.89</course>
  <speed>0.9100549433962765</speed>
  <fix>3d</fix>
</trkpt>
<trkpt lat="33.8094285" lon="-118.3944318">
  <ele>-43.9</ele>
  <time>2026-09-02T22:08:12Z</time>
  <course>179.73</course>
  <speed>0.95</speed>
  <fix>3d</fix>
</trkpt>
<trkpt lat="33.8094268" lon="-118.3944319">
  <ele>-44.985</ele>
  <time>2026-09-02T22:08:12Z</time>
  <course>180.92</course>
  <speed>0.9200543462209175</speed>
  <fix>3d</fix>
</trkpt>
<trkpt lat="33.8094285" lon="-118.3944318">
  <ele>-43.9</ele>
  <time>2026-09-02T22:08:12Z</time>
  <course>179.73</course>
  <speed>0.95</speed>
  <fix>3d</fix>
</trkpt>
<trkpt lat="33.809426" lon="-118.3944319">
  <ele>-44.992</ele>
  <time>2026-09-02T22:08:12Z</time>
  <course>180.94</course>
  <speed>0.9300537618869137</speed>
  <fix>3d</fix>
</trkpt>
<trkpt lat="33.8094268" lon="-118.3944317">
  <ele>-43.9</ele>
  <time>2026-09-02T22:08:12Z</time>
  <course>179.72</course>
  <speed>0.93</speed>
  <fix>3d</fix>
</trkpt>
<trkpt lat="33.8094251" lon="-118.3944319">
  <ele>-45.003</ele>
  <time>2026-09-02T22:08:12Z</time>
  <course>180.94</course>
  <speed>0.9300537618869137</speed>
  <fix>3d</fix>
</trkpt>
<trkpt lat="33.8094268" lon="-118.3944317">
  <ele>-43.9</ele>
  <time>2026-09-02T22:08:12Z</time>
  <course>179.72</course>
  <speed>0.93</speed>
  <fix>3d</fix>
</trkpt>
<trkpt lat="33.8094243" lon="-118.3944319">
  <ele>-45.016</ele>
  <time>2026-09-02T22:08:12Z</time>
  <course>180.96</course>
  <speed>0.9400531899844816</speed>
  <fix>3d</fix>
</trkpt>
<trkpt lat="33.8094251" lon="-118.3944317">
  <ele>-43.92</ele>
  <time>2026-09-02T22:08:12Z</time>
  <course>179.74</course>
  <speed>0.95</speed>
  <fix>3d</fix>
</trkpt>
<trkpt lat="33.8094234" lon="-118.3944319">
  <ele>-45.03</ele>
  <time>2026-09-02T22:08:12Z</time>
  <course>180.98</course>
  <speed>0.9400531899844816</speed>
  <fix>3d</fix>
</trkpt>
<trkpt lat="33.8094251" lon="-118.3944317">
  <ele>-43.92</ele>
  <time>2026-09-02T22:08:12Z</time>
  <course>179.74</course>
  <speed>0.95</speed>
  <fix>3d</fix>
</trkpt>
<trkpt lat="33.8094225" lon="-118.3944319">
  <ele>-45.037</ele>
  <time>2026-09-02T22:08:12Z</time>
  <course>181.03</course>
  <speed>0.9500526301210896</speed>
  <fix>3d</fix>
</trkpt>
<trkpt lat="33.8094234" lon="-118.3944317">
  <ele>-43.94</ele>
  <time>2026-09-02T22:08:12Z</time>
  <course>179.81</course>
  <speed>0.96</speed>
  <fix>3d</fix>
</trkpt>
<trkpt lat="33.8094216" lon="-118.3944319">
  <ele>-45.04</ele>
  <time>2026-09-02T22:08:12Z</time>
  <course>181.07</course>
  <speed>0.9500526301210896</speed>
  <fix>3d</fix>
</trkpt>
<trkpt lat="33.8094234" lon="-118.3944317">
  <ele>-43.94</ele>
  <time>2026-09-02T22:08:12Z</time>
  <course>179.81</course>
  <speed>0.96</speed>
  <fix>3d</fix>
</trkpt>
<trkpt lat="33.8094208" lon="-118.3944319">
  <ele>-45.042</ele>
  <time>2026-09-02T22:08:12Z</time>
  <course>181.11</course>
  <speed>0.9600520819205591</speed>
  <fix>3d</fix>
</trkpt>
<trkpt lat="33.8094217" lon="-118.3944317">
  <ele>-43.95</ele>
  <time>2026-09-02T22:08:12Z</time>
  <course>179.87</course>
  <speed>0.97</speed>
  <fix>3d</fix>
</trkpt>
<trkpt lat="33.8094199" lon="-118.3944319">
  <ele>-45.045</ele>
  <time>2026-09-02T22:08:12Z</time>
  <course>181.14</course>
  <speed>0.9600520819205591</speed>
  <fix>3d</fix>
</trkpt>
<trkpt lat="33.8094217" lon="-118.3944317">
  <ele>-43.95</ele>
  <time>2026-09-02T22:08:12Z</time>
  <course>179.87</course>
  <speed>0.97</speed>
  <fix>3d</fix>
</trkpt>
<trkpt lat="33.809419" lon="-118.3944319">
  <ele>-45.046</ele>
  <time>2026-09-02T22:08:12Z</time>
  <course>181.18</course>
  <speed>0.9600520819205591</speed>
  <fix>3d</fix>
</trkpt>
<trkpt lat="33.8094198" lon="-118.3944317">
  <ele>-43.96</ele>
  <time>2026-09-02T22:08:12Z</time>
  <course>179.92</course>
  <speed>0.98</speed>
  <fix>3d</fix>
</trkpt>
<trkpt lat="33.8094181" lon="-118.3944319">
  <ele>-45.041</ele>
  <time>2026-09-02T22:08:12Z</time>
  <course>181.21</course>
  <speed>0.9600520819205591</speed>
  <fix>3d</fix>
</trkpt>
<trkpt lat="33.8094198" lon="-118.3944317">
  <ele>-43.96</ele>
  <time>2026-09-02T22:08:12Z</time>
  <course>179.92</course>
  <speed>0.98</speed>
  <fix>3d</fix>
</trkpt>
<trkpt lat="33.8094172" lon="-118.3944319">
  <ele>-45.034</ele>
  <time>2026-09-02T22:08:12Z</time>
  <course>181.23</course>
  <speed>0.9600520819205591</speed>
  <fix>3d</fix>
</trkpt>
<trkpt lat="33.8094181" lon="-118.3944317">
  <ele>-43.96</ele>
  <time>2026-09-02T22:08:12Z</time>
  <course>179.95</course>
  <speed>0.98</speed>
  <fix>3d</fix>
</trkpt>
<trkpt lat="33.8094163" lon="-118.3944319">
  <ele>-45.026</ele>
  <time>2026-09-02T22:08:12Z</time>
  <course>181.25</course>
  <speed>0.9702061636580135</speed>
  <fix>3d</fix>
</trkpt>
<trkpt lat="33.8094181" lon="-118.3944317">
  <ele>-43.96</ele>
  <time>2026-09-02T22:08:12Z</time>
  <course>179.95</course>
  <speed>0.98</speed>
  <fix>3d</fix>
</trkpt>
<trkpt lat="33.8094154" lon="-118.3944319">
  <ele>-45.018</ele>
  <time>2026-09-02T22:08:12Z</time>
  <course>181.27</course>
  <speed>0.970051545022222</speed>
  <fix>3d</fix>
</trkpt>
<trkpt lat="33.8094164" lon="-118.3944317">
  <ele>-43.94</ele>
  <time>2026-09-02T22:08:12Z</time>
  <course>179.97</course>
  <speed>0.99</speed>
  <fix>3d</fix>
</trkpt>
<trkpt lat="33.8094145" lon="-118.3944319">
  <ele>-45.01</ele>
  <time>2026-09-02T22:08:12Z</time>
  <course>181.28</course>
  <speed>0.9702061636580135</speed>
  <fix>3d</fix>
</trkpt>
<trkpt lat="33.8094164" lon="-118.3944317">
  <ele>-43.94</ele>
  <time>2026-09-02T22:08:12Z</time>
  <course>179.97</course>
  <speed>0.99</speed>
  <fix>3d</fix>
</trkpt>
<trkpt lat="33.8094136" lon="-118.3944319">
  <ele>-45.006</ele>
  <time>2026-09-02T22:08:12Z</time>
  <course>181.29</course>
  <speed>0.970051545022222</speed>
  <fix>3d</fix>
</trkpt>
<trkpt lat="33.8094145" lon="-118.3944317">
  <ele>-43.93</ele>
  <time>2026-09-02T22:08:12Z</time>
  <course>179.99</course>
  <speed>0.99</speed>
  <fix>3d</fix>
</trkpt>
<trkpt lat="33.8094128" lon="-118.3944319">
  <ele>-45.002</ele>
  <time>2026-09-02T22:08:12Z</time>
  <course>181.3</course>
  <speed>0.9702061636580135</speed>
  <fix>3d</fix>
</trkpt>
<trkpt lat="33.8094145" lon="-118.3944317">
  <ele>-43.93</ele>
  <time>2026-09-02T22:08:12Z</time>
  <course>179.99</course>
  <speed>0.99</speed>
  <fix>3d</fix>
</trkpt>
<trkpt lat="33.8094119" lon="-118.3944319">
  <ele>-44.995</ele>
  <time>2026-09-02T22:08:12Z</time>
  <course>181.31</course>
  <speed>0.970051545022222</speed>
  <fix>3d</fix>
</trkpt>
<trkpt lat="33.8094128" lon="-118.3944317">
  <ele>-43.92</ele>
  <time>2026-09-02T22:08:12Z</time>
  <course>179.99</course>
  <speed>0.99</speed>
  <fix>3d</fix>
</trkpt>
<trkpt lat="33.809411" lon="-118.3944319">
  <ele>-44.985</ele>
  <time>2026-09-02T22:08:12Z</time>
  <course>181.31</course>
  <speed>0.9702061636580135</speed>
  <fix>3d</fix>
</trkpt>
<trkpt lat="33.8094128" lon="-118.3944317">
  <ele>-43.92</ele>
  <time>2026-09-02T22:08:12Z</time>
  <course>179.99</course>
  <speed>0.99</speed>
  <fix>3d</fix>
</trkpt>
<trkpt lat="33.8094101" lon="-118.3944319">
  <ele>-44.974</ele>
  <time>2026-09-02T22:08:12Z</time>
  <course>181.31</course>
  <speed>0.970051545022222</speed>
  <fix>3d</fix>
</trkpt>
<trkpt lat="33.809411" lon="-118.3944317">
  <ele>-43.91</ele>
  <time>2026-09-02T22:08:12Z</time>
  <course>180.01</course>
  <speed>0.99</speed>
  <fix>3d</fix>
</trkpt>
<trkpt lat="33.8094092" lon="-118.3944319">
  <ele>-44.963</ele>
  <time>2026-09-02T22:08:12Z</time>
  <course>181.32</course>
  <speed>0.9702061636580135</speed>
  <fix>3d</fix>
</trkpt>
<trkpt lat="33.809411" lon="-118.3944317">
  <ele>-43.91</ele>
  <time>2026-09-02T22:08:12Z</time>
  <course>180.01</course>
  <speed>0.99</speed>
  <fix>3d</fix>
</trkpt>
<trkpt lat="33.8094083" lon="-118.3944319">
  <ele>-44.958</ele>
  <time>2026-09-02T22:08:12Z</time>
  <course>181.32</course>
  <speed>0.970051545022222</speed>
  <fix>3d</fix>
</trkpt>
<trkpt lat="33.8094092" lon="-118.3944317">
  <ele>-43.89</ele>
  <time>2026-09-02T22:08:12Z</time>
  <course>180.03</course>
  <speed>0.99</speed>
  <fix>3d</fix>
</trkpt>
<trkpt lat="33.8094074" lon="-118.3944319">
  <ele>-44.964</ele>
  <time>2026-09-02T22:08:12Z</time>
  <course>181.32</course>
  <speed>0.9702061636580135</speed>
  <fix>3d</fix>
</trkpt>
<trkpt lat="33.8094092" lon="-118.3944317">
  <ele>-43.89</ele>
  <time>2026-09-02T22:08:12Z</time>
  <course>180.03</course>
  <speed>0.99</speed>
  <fix>3d</fix>
</trkpt>
<trkpt lat="33.8094065" lon="-118.3944319">
  <ele>-44.976</ele>
  <time>2026-09-02T22:08:12Z</time>
  <course>181.32</course>
  <speed>0.970051545022222</speed>
  <fix>3d</fix>
</trkpt>
<trkpt lat="33.8094074" lon="-118.3944317">
  <ele>-43.88</ele>
  <time>2026-09-02T22:08:12Z</time>
  <course>180.04</course>
  <speed>0.99</speed>
  <fix>3d</fix>
</trkpt>
<trkpt lat="33.8094056" lon="-118.3944319">
  <ele>-44.992</ele>
  <time>2026-09-02T22:08:12Z</time>
  <course>181.32</course>
  <speed>0.9502105029939419</speed>
  <fix>3d</fix>
</trkpt>
<trkpt lat="33.8094074" lon="-118.3944317">
  <ele>-43.88</ele>
  <time>2026-09-02T22:08:12Z</time>
  <course>180.04</course>
  <speed>0.99</speed>
  <fix>3d</fix>
</trkpt>
<trkpt lat="33.8094048" lon="-118.3944319">
  <ele>-45.01</ele>
  <time>2026-09-02T22:08:12Z</time>
  <course>181.36</course>
  <speed>0.900222194794152</speed>
  <fix>3d</fix>
</trkpt>
<trkpt lat="33.8094056" lon="-118.3944317">
  <ele>-43.9</ele>
  <time>2026-09-02T22:08:12Z</time>
  <course>180.09</course>
  <speed>0.95</speed>
  <fix>3d</fix>
</trkpt>
<trkpt lat="33.8094039" lon="-118.3944319">
  <ele>-45.029</ele>
  <time>2026-09-02T22:08:12Z</time>
  <course>181.43</course>
  <speed>0.9102197536858887</speed>
  <fix>3d</fix>
</trkpt>
<trkpt lat="33.8094056" lon="-118.3944317">
  <ele>-43.9</ele>
  <time>2026-09-02T22:08:12Z</time>
  <course>180.09</course>
  <speed>0.95</speed>
  <fix>3d</fix>
</trkpt>
<trkpt lat="33.8094031" lon="-118.3944319">
  <ele>-45.045</ele>
  <time>2026-09-02T22:08:12Z</time>
  <course>181.47</course>
  <speed>0.9300537618869137</speed>
  <fix>3d</fix>
</trkpt>
<trkpt lat="33.8094039" lon="-118.3944317">
  <ele>-43.94</ele>
  <time>2026-09-02T22:08:12Z</time>
  <course>180.12</course>
  <speed>0.93</speed>
  <fix>3d</fix>
</trkpt>
<trkpt lat="33.8094023" lon="-118.3944319">
  <ele>-45.058</ele>
  <time>2026-09-02T22:08:12Z</time>
  <course>181.46</course>
  <speed>0.8402380615040002</speed>
  <fix>3d</fix>
</trkpt>
<trkpt lat="33.8094039" lon="-118.3944317">
  <ele>-43.94</ele>
  <time>2026-09-02T22:08:12Z</time>
  <course>180.12</course>
  <speed>0.93</speed>
  <fix>3d</fix>
</trkpt>
<trkpt lat="33.8094015" lon="-118.3944319">
  <ele>-45.068</ele>
  <time>2026-09-02T22:08:12Z</time>
  <course>181.5</course>
  <speed>0.8700574693662483</speed>
  <fix>3d</fix>
</trkpt>
<trkpt lat="33.8094022" lon="-118.3944317">
  <ele>-43.97</ele>
  <time>2026-09-02T22:08:12Z</time>
  <course>180.14</course>
  <speed>0.91</speed>
  <fix>3d</fix>
</trkpt>
<trkpt lat="33.8094006" lon="-118.3944319">
  <ele>-45.077</ele>
  <time>2026-09-02T22:08:12Z</time>
  <course>181.54</course>
  <speed>0.8902246907382428</speed>
  <fix>3d</fix>
</trkpt>
<trkpt lat="33.8094022" lon="-118.3944317">
  <ele>-43.97</ele>
  <time>2026-09-02T22:08:12Z</time>
  <course>180.14</course>
  <speed>0.91</speed>
  <fix>3d</fix>
</trkpt>
<trkpt lat="33.8093998" lon="-118.3944319">
  <ele>-45.087</ele>
  <time>2026-09-02T22:08:12Z</time>
  <course>181.54</course>
  <speed>0.9000555538409837</speed>
  <fix>3d</fix>
</trkpt>
<trkpt lat="33.8094006" lon="-118.3944317">
  <ele>-43.98</ele>
  <time>2026-09-02T22:08:12Z</time>
  <course>180.14</course>
  <speed>0.9</speed>
  <fix>3d</fix>
</trkpt>
<trkpt lat="33.809399" lon="-118.3944319">
  <ele>-45.093</ele>
  <time>2026-09-02T22:08:12Z</time>
  <course>181.51</course>
  <speed>0.9100549433962765</speed>
  <fix>3d</fix>
</trkpt>
<trkpt lat="33.8094006" lon="-118.3944317">
  <ele>-43.98</ele>
  <time>2026-09-02T22:08:12Z</time>
  <course>180.14</course>
  <speed>0.9</speed>
  <fix>3d</fix>
</trkpt>
<trkpt lat="33.8093981" lon="-118.3944319">
  <ele>-45.095</ele>
  <time>2026-09-02T22:08:12Z</time>
  <course>181.48</course>
  <speed>0.9200543462209175</speed>
  <fix>3d</fix>
</trkpt>
<trkpt lat="33.8093989" lon="-118.3944317">
  <ele>-44.0</ele>
  <time>2026-09-02T22:08:12Z</time>
  <course>180.1</course>
  <speed>0.93</speed>
  <fix>3d</fix>
</trkpt>
<trkpt lat="33.8093973" lon="-118.3944319">
  <ele>-45.095</ele>
  <time>2026-09-02T22:08:12Z</time>
  <course>181.45</course>
  <speed>0.9302150289046076</speed>
  <fix>3d</fix>
</trkpt>
<trkpt lat="33.8093989" lon="-118.3944317">
  <ele>-44.0</ele>
  <time>2026-09-02T22:08:12Z</time>
  <course>180.1</course>
  <speed>0.93</speed>
  <fix>3d</fix>
</trkpt>
<trkpt lat="33.8093964" lon="-118.3944319">
  <ele>-45.093</ele>
  <time>2026-09-02T22:08:12Z</time>
  <course>181.43</course>
  <speed>0.9400531899844816</speed>
  <fix>3d</fix>
</trkpt>
<trkpt lat="33.8093972" lon="-118.3944317">
  <ele>-44.01</ele>
  <time>2026-09-02T22:08:12Z</time>
  <course>180.08</course>
  <speed>0.95</speed>
  <fix>3d</fix>
</trkpt>
<trkpt lat="33.8093955" lon="-118.3944319">
  <ele>-45.088</ele>
  <time>2026-09-02T22:08:12Z</time>
  <course>181.4</course>
  <speed>0.9402127418834527</speed>
  <fix>3d</fix>
</trkpt>
<trkpt lat="33.8093972" lon="-118.3944317">
  <ele>-44.01</ele>
  <time>2026-09-02T22:08:12Z</time>
  <course>180.08</course>
  <speed>0.95</speed>
  <fix>3d</fix>
</trkpt>
<trkpt lat="33.8093947" lon="-118.3944319">
  <ele>-45.078</ele>
  <time>2026-09-02T22:08:12Z</time>
  <course>181.39</course>
  <speed>0.9400531899844816</speed>
  <fix>3d</fix>
</trkpt>
<trkpt lat="33.8093955" lon="-118.3944317">
  <ele>-44.0</ele>
  <time>2026-09-02T22:08:12Z</time>
  <course>180.09</course>
  <speed>0.96</speed>
  <fix>3d</fix>
</trkpt>
<trkpt lat="33.8093938" lon="-118.3944319">
  <ele>-45.062</ele>
  <time>2026-09-02T22:08:12Z</time>
  <course>181.38</course>
  <speed>0.9502105029939419</speed>
  <fix>3d</fix>
</trkpt>
<trkpt lat="33.8093955" lon="-118.3944317">
  <ele>-44.0</ele>
  <time>2026-09-02T22:08:12Z</time>
  <course>180.09</course>
  <speed>0.96</speed>
  <fix>3d</fix>
</trkpt>
<trkpt lat="33.8093929" lon="-118.3944319">
  <ele>-45.043</ele>
  <time>2026-09-02T22:08:12Z</time>
  <course>181.37</course>
  <speed>0.9500526301210896</speed>
  <fix>3d</fix>
</trkpt>
<trkpt lat="33.8093937" lon="-118.3944317">
  <ele>-43.98</ele>
  <time>2026-09-02T22:08:12Z</time>
  <course>180.11</course>
  <speed>0.97</speed>
  <fix>3d</fix>
</trkpt>
<trkpt lat="33.809392" lon="-118.3944319">
  <ele>-45.023</ele>
  <time>2026-09-02T22:08:12Z</time>
  <course>181.36</course>
  <speed>0.9502105029939419</speed>
  <fix>3d</fix>
</trkpt>
<trkpt lat="33.8093937" lon="-118.3944317">
  <ele>-43.98</ele>
  <time>2026-09-02T22:08:12Z</time>
  <course>180.11</course>
  <speed>0.97</speed>
  <fix>3d</fix>
</trkpt>
<trkpt lat="33.8093911" lon="-118.3944319">
  <ele>-45.004</ele>
  <time>2026-09-02T22:08:12Z</time>
  <course>181.36</course>
  <speed>0.9600520819205591</speed>
  <fix>3d</fix>
</trkpt>
<trkpt lat="33.809392" lon="-118.3944317">
  <ele>-43.95</ele>
  <time>2026-09-02T22:08:12Z</time>
  <course>180.12</course>
  <speed>0.97</speed>
  <fix>3d</fix>
</trkpt>
<trkpt lat="33.8093902" lon="-118.3944319">
  <ele>-44.988</ele>
  <time>2026-09-02T22:08:12Z</time>
  <course>181.35</course>
  <speed>0.9602083107326242</speed>
  <fix>3d</fix>
</trkpt>
<trkpt lat="33.809392" lon="-118.3944317">
  <ele>-43.95</ele>
  <time>2026-09-02T22:08:12Z</time>
  <course>180.12</course>
  <speed>0.97</speed>
  <fix>3d</fix>
</trkpt>
<trkpt lat="33.8093893" lon="-118.3944319">
  <ele>-44.972</ele>
  <time>2026-09-02T22:08:12Z</time>
  <course>181.34</course>
  <speed>0.9600520819205591</speed>
  <fix>3d</fix>
</trkpt>
<trkpt lat="33.8093903" lon="-118.3944317">
  <ele>-43.92</ele>
  <time>2026-09-02T22:08:12Z</time>
  <course>180.13</course>
  <speed>0.98</speed>
  <fix>3d</fix>
</trkpt>
<trkpt lat="33.8093885" lon="-118.3944319">
  <ele>-44.956</ele>
  <time>2026-09-02T22:08:12Z</time>
  <course>181.33</course>
  <speed>0.9602083107326242</speed>
  <fix>3d</fix>
</trkpt>
<trkpt lat="33.8093903" lon="-118.3944317">
  <ele>-43.92</ele>
  <time>2026-09-02T22:08:12Z</time>
  <course>180.13</course>
  <speed>0.98</speed>
  <fix>3d</fix>
</trkpt>
<trkpt lat="33.8093876" lon="-118.3944319">
  <ele>-44.94</ele>
  <time>2026-09-02T22:08:12Z</time>
  <course>181.32</course>
  <speed>0.9600520819205591</speed>
  <fix>3d</fix>
</trkpt>
<trkpt lat="33.8093885" lon="-118.3944317">
  <ele>-43.89</ele>
  <time>2026-09-02T22:08:12Z</time>
  <course>180.14</course>
  <speed>0.98</speed>
  <fix>3d</fix>
</trkpt>
<trkpt lat="33.8093867" lon="-118.3944319">
  <ele>-44.927</ele>
  <time>2026-09-02T22:08:12Z</time>
  <course>181.31</course>
  <speed>0.9602083107326242</speed>
  <fix>3d</fix>
</trkpt>
<trkpt lat="33.8093885" lon="-118.3944317">
  <ele>-43.89</ele>
  <time>2026-09-02T22:08:12Z</time>
  <course>180.14</course>
  <speed>0.98</speed>
  <fix>3d</fix>
</trkpt>
<trkpt lat="33.8093858" lon="-118.3944319">
  <ele>-44.918</ele>
  <time>2026-09-02T22:08:12Z</time>
  <course>181.31</course>
  <speed>0.9702061636580135</speed>
  <fix>3d</fix>
</trkpt>
<trkpt lat="33.8093867" lon="-118.3944317">
  <ele>-43.87</ele>
  <time>2026-09-02T22:08:12Z</time>
  <course>180.16</course>
  <speed>0.99</speed>
  <fix>3d</fix>
</trkpt>
<trkpt lat="33.8093849" lon="-118.3944319">
  <ele>-44.915</ele>
  <time>2026-09-02T22:08:12Z</time>
  <course>181.3</course>
  <speed>0.9702061636580135</speed>
  <fix>3d</fix>
</trkpt>
<trkpt lat="33.8093867" lon="-118.3944317">
  <ele>-43.87</ele>
  <time>2026-09-02T22:08:12Z</time>
  <course>180.16</course>
  <speed>0.99</speed>
  <fix>3d</fix>
</trkpt>
<trkpt lat="33.809384" lon="-118.3944319">
  <ele>-44.916</ele>
  <time>2026-09-02T22:08:12Z</time>
  <course>181.29</course>
  <speed>0.970051545022222</speed>
  <fix>3d</fix>
</trkpt>
<trkpt lat="33.8093849" lon="-118.3944317">
  <ele>-43.85</ele>
  <time>2026-09-02T22:08:12Z</time>
  <course>180.18</course>
  <speed>0.99</speed>
  <fix>3d</fix>
</trkpt>
<trkpt lat="33.8093831" lon="-118.3944319">
  <ele>-44.92</ele>
  <time>2026-09-02T22:08:12Z</time>
  <course>181.28</course>
  <speed>0.9702061636580135</speed>
  <fix>3d</fix>
</trkpt>
<trkpt lat="33.8093849" lon="-118.3944317">
  <ele>-43.85</ele>
  <time>2026-09-02T22:08:12Z</time>
  <course>180.18</course>
  <speed>0.99</speed>
  <fix>3d</fix>
</trkpt>
<trkpt lat="33.8093822" lon="-118.3944319">
  <ele>-44.926</ele>
  <time>2026-09-02T22:08:12Z</time>
  <course>181.28</course>
  <speed>0.970051545022222</speed>
  <fix>3d</fix>
</trkpt>
<trkpt lat="33.8093832" lon="-118.3944317">
  <ele>-43.85</ele>
  <time>2026-09-02T22:08:12Z</time>
  <course>180.19</course>
  <speed>0.99</speed>
  <fix>3d</fix>
</trkpt>
<trkpt lat="33.8093813" lon="-118.3944319">
  <ele>-44.934</ele>
  <time>2026-09-02T22:08:12Z</time>
  <course>181.27</course>
  <speed>0.9702061636580135</speed>
  <fix>3d</fix>
</trkpt>
<trkpt lat="33.8093832" lon="-118.3944317">
  <ele>-43.85</ele>
  <time>2026-09-02T22:08:12Z</time>
  <course>180.19</course>
  <speed>0.99</speed>
  <fix>3d</fix>
</trkpt>
<trkpt lat="33.8093804" lon="-118.3944319">
  <ele>-44.943</ele>
  <time>2026-09-02T22:08:12Z</time>
  <course>181.26</course>
  <speed>0.970051545022222</speed>
  <fix>3d</fix>
</trkpt>
<trkpt lat="33.8093813" lon="-118.3944317">
  <ele>-43.86</ele>
  <time>2026-09-02T22:08:12Z</time>
  <course>180.2</course>
  <speed>0.99</speed>
  <fix>3d</fix>
</trkpt>
<trkpt lat="33.8093795" lon="-118.3944319">
  <ele>-44.958</ele>
  <time>2026-09-02T22:08:12Z</time>
  <course>181.26</course>
  <speed>0.9702061636580135</speed>
  <fix>3d</fix>
</trkpt>
<trkpt lat="33.8093813" lon="-118.3944317">
  <ele>-43.86</ele>
  <time>2026-09-02T22:08:12Z</time>
  <course>180.2</course>
  <speed>0.99</speed>
  <fix>3d</fix>
</trkpt>
<trkpt lat="33.8093786" lon="-118.3944319">
  <ele>-44.976</ele>
  <time>2026-09-02T22:08:12Z</time>
  <course>181.25</course>
  <speed>0.970051545022222</speed>
  <fix>3d</fix>
</trkpt>
<trkpt lat="33.8093796" lon="-118.3944317">
  <ele>-43.88</ele>
  <time>2026-09-02T22:08:12Z</time>
  <course>180.22</course>
  <speed>0.99</speed>
  <fix>3d</fix>
</trkpt>
<trkpt lat="33.8093777" lon="-118.3944319">
  <ele>-44.994</ele>
  <time>2026-09-02T22:08:12Z</time>
  <course>181.25</course>
  <speed>0.9702061636580135</speed>
  <fix>3d</fix>
</trkpt>
<trkpt lat="33.8093796" lon="-118.3944317">
  <ele>-43.88</ele>
  <time>2026-09-02T22:08:12Z</time>
  <course>180.22</course>
  <speed>0.99</speed>
  <fix>3d</fix>
</trkpt>
<trkpt lat="33.8093768" lon="-118.3944319">
  <ele>-45.012</ele>
  <time>2026-09-02T22:08:12Z</time>
  <course>181.24</course>
  <speed>0.970051545022222</speed>
  <fix>3d</fix>
</trkpt>
<trkpt lat="33.8093777" lon="-118.3944317">
  <ele>-43.91</ele>
  <time>2026-09-02T22:08:12Z</time>
  <course>180.24</course>
  <speed>0.99</speed>
  <fix>3d</fix>
</trkpt>
<trkpt lat="33.8093759" lon="-118.3944319">
  <ele>-45.029</ele>
  <time>2026-09-02T22:08:12Z</time>
  <course>181.23</course>
  <speed>0.9702061636580135</speed>
  <fix>3d</fix>
</trkpt>
<trkpt lat="33.8093777" lon="-118.3944317">
  <ele>-43.91</ele>
  <time>2026-09-02T22:08:12Z</time>
  <course>180.24</course>
  <speed>0.99</speed>
  <fix>3d</fix>
</trkpt>
<trkpt lat="33.809375" lon="-118.3944319">
  <ele>-45.045</ele>
  <time>2026-09-02T22:08:12Z</time>
  <course>181.23</course>
  <speed>0.970051545022222</speed>
  <fix>3d</fix>
</trkpt>
<trkpt lat="33.809376" lon="-118.3944317">
  <ele>-43.94</ele>
  <time>2026-09-02T22:08:12Z</time>
  <course>180.25</course>
  <speed>0.99</speed>
  <fix>3d</fix>
</trkpt>
<trkpt lat="33.8093741" lon="-118.3944319">
  <ele>-45.06</ele>
  <time>2026-09-02T22:08:12Z</time>
  <course>181.22</course>
  <speed>0.9702061636580135</speed>
  <fix>3d</fix>
</trkpt>
<trkpt lat="33.809376" lon="-118.3944317">
  <ele>-43.94</ele>
  <time>2026-09-02T22:08:12Z</time>
  <course>180.25</course>
  <speed>0.99</speed>
  <fix>3d</fix>
</trkpt>
<trkpt lat="33.8093732" lon="-118.3944319">
  <ele>-45.071</ele>
  <time>2026-09-02T22:08:12Z</time>
  <course>181.22</course>
  <speed>0.970051545022222</speed>
  <fix>3d</fix>
</trkpt>
<trkpt lat="33.8093741" lon="-118.3944317">
  <ele>-43.97</ele>
  <time>2026-09-02T22:08:12Z</time>
  <course>180.25</course>
  <speed>0.99</speed>
  <fix>3d</fix>
</trkpt>
<trkpt lat="33.8093723" lon="-118.3944319">
  <ele>-45.076</ele>
  <time>2026-09-02T22:08:12Z</time>
  <course>181.21</course>
  <speed>0.9702061636580135</speed>
  <fix>3d</fix>
</trkpt>
<trkpt lat="33.8093741" lon="-118.3944317">
  <ele>-43.97</ele>
  <time>2026-09-02T22:08:12Z</time>
  <course>180.25</course>
  <speed>0.99</speed>
  <fix>3d</fix>
</trkpt>
<trkpt lat="33.8093714" lon="-118.3944319">
  <ele>-45.078</ele>
  <time>2026-09-02T22:08:12Z</time>
  <course>181.21</course>
  <speed>0.970051545022222</speed>
  <fix>3d</fix>
</trkpt>
<trkpt lat="33.8093724" lon="-118.3944317">
  <ele>-43.99</ele>
  <time>2026-09-02T22:08:12Z</time>
  <course>180.25</course>
  <speed>0.99</speed>
  <fix>3d</fix>
</trkpt>
<trkpt lat="33.8093705" lon="-118.3944319">
  <ele>-45.077</ele>
  <time>2026-09-02T22:08:12Z</time>
  <course>181.2</course>
  <speed>0.9702061636580135</speed>
  <fix>3d</fix>
</trkpt>
<trkpt lat="33.8093724" lon="-118.3944317">
  <ele>-43.99</ele>
  <time>2026-09-02T22:08:12Z</time>
  <course>180.25</course>
  <speed>0.99</speed>
  <fix>3d</fix>
</trkpt>
<trkpt lat="33.8093696" lon="-118.3944319">
  <ele>-45.073</ele>
  <time>2026-09-02T22:08:12Z</time>
  <course>181.2</course>
  <speed>0.970051545022222</speed>
  <fix>3d</fix>
</trkpt>
<trkpt lat="33.8093706" lon="-118.3944317">
  <ele>-43.99</ele>
  <time>2026-09-02T22:08:12Z</time>
  <course>180.26</course>
  <speed>0.99</speed>
  <fix>3d</fix>
</trkpt>
<trkpt lat="33.8093687" lon="-118.3944319">
  <ele>-45.068</ele>
  <time>2026-09-02T22:08:12Z</time>
  <course>181.19</course>
  <speed>0.9702061636580135</speed>
  <fix>3d</fix>
</trkpt>
<trkpt lat="33.8093706" lon="-118.3944317">
  <ele>-43.99</ele>
  <time>2026-09-02T22:08:12Z</time>
  <course>180.26</course>
  <speed>0.99</speed>
  <fix>3d</fix>
</trkpt>
<trkpt lat="33.8093678" lon="-118.3944319">
  <ele>-45.061</ele>
  <time>2026-09-02T22:08:12Z</time>
  <course>181.19</course>
  <speed>0.970051545022222</speed>
  <fix>3d</fix>
</trkpt>
<trkpt lat="33.8093688" lon="-118.3944318">
  <ele>-43.98</ele>
  <time>2026-09-02T22:08:12Z</time>
  <course>180.27</course>
  <speed>0.99</speed>
  <fix>3d</fix>
</trkpt>
<trkpt lat="33.8093669" lon="-118.3944319">
  <ele>-45.052</ele>
  <time>2026-09-02T22:08:12Z</time>
  <course>181.18</course>
  <speed>0.970051545022222</speed>
  <fix>3d</fix>
</trkpt>
<trkpt lat="33.8093688" lon="-118.3944318">
  <ele>-43.98</ele>
  <time>2026-09-02T22:08:12Z</time>
  <course>180.27</course>
  <speed>0.99</speed>
  <fix>3d</fix>
</trkpt>
<trkpt lat="33.8093661" lon="-118.3944319">
  <ele>-45.042</ele>
  <time>2026-09-02T22:08:12Z</time>
  <course>181.15</course>
  <speed>0.970051545022222</speed>
  <fix>3d</fix>
</trkpt>
<trkpt lat="33.8093671" lon="-118.3944318">
  <ele>-43.97</ele>
  <time>2026-09-02T22:08:12Z</time>
  <course>180.25</course>
  <speed>0.99</speed>
  <fix>3d</fix>
</trkpt>
<trkpt lat="33.8093652" lon="-118.3944319">
  <ele>-45.031</ele>
  <time>2026-09-02T22:08:12Z</time>
  <course>181.11</course>
  <speed>0.970051545022222</speed>
  <fix>3d</fix>
</trkpt>
<trkpt lat="33.8093671" lon="-118.3944318">
  <ele>-43.97</ele>
  <time>2026-09-02T22:08:12Z</time>
  <course>180.25</course>
  <speed>0.99</speed>
  <fix>3d</fix>
</trkpt>
<trkpt lat="33.8093643" lon="-118.3944319">
  <ele>-45.02</ele>
  <time>2026-09-02T22:08:12Z</time>
  <course>181.06</course>
  <speed>0.9500526301210896</speed>
  <fix>3d</fix>
</trkpt>
<trkpt lat="33.8093652" lon="-118.3944318">
  <ele>-43.94</ele>
  <time>2026-09-02T22:08:12Z</time>
  <course>180.16</course>
  <speed>0.99</speed>
  <fix>3d</fix>
</trkpt>
<trkpt lat="33.8093634" lon="-118.3944319">
  <ele>-45.01</ele>
  <time>2026-09-02T22:08:12Z</time>
  <course>181.02</course>
  <speed>0.9000555538409837</speed>
  <fix>3d</fix>
</trkpt>
<trkpt lat="33.8093652" lon="-118.3944318">
  <ele>-43.94</ele>
  <time>2026-09-02T22:08:12Z</time>
  <course>180.16</course>
  <speed>0.99</speed>
  <fix>3d</fix>
</trkpt>
<trkpt lat="33.8093626" lon="-118.3944319">
  <ele>-45.0</ele>
  <time>2026-09-02T22:08:12Z</time>
  <course>181.03</course>
  <speed>0.9100549433962765</speed>
  <fix>3d</fix>
</trkpt>
<trkpt lat="33.8093635" lon="-118.3944318">
  <ele>-43.93</ele>
  <time>2026-09-02T22:08:12Z</time>
  <course>180.11</course>
  <speed>0.96</speed>
  <fix>3d</fix>
</trkpt>
<trkpt lat="33.8093617" lon="-118.3944319">
  <ele>-44.987</ele>
  <time>2026-09-02T22:08:12Z</time>
  <course>181.01</course>
  <speed>0.9200543462209175</speed>
  <fix>3d</fix>
</trkpt>
<trkpt lat="33.8093635" lon="-118.3944318">
  <ele>-43.93</ele>
  <time>2026-09-02T22:08:12Z</time>
  <course>180.11</course>
  <speed>0.96</speed>
  <fix>3d</fix>
</trkpt>
<trkpt lat="33.8093609" lon="-118.3944319">
  <ele>-44.972</ele>
  <time>2026-09-02T22:08:12Z</time>
  <course>180.98</course>
  <speed>0.9300537618869137</speed>
  <fix>3d</fix>
</trkpt>
<trkpt lat="33.8093618" lon="-118.3944318">
  <ele>-43.91</ele>
  <time>2026-09-02T22:08:12Z</time>
  <course>180.09</course>
  <speed>0.94</speed>
  <fix>3d</fix>
</trkpt>
<trkpt lat="33.80936" lon="-118.3944319">
  <ele>-44.956</ele>
  <time>2026-09-02T22:08:12Z</time>
  <course>180.93</course>
  <speed>0.9400531899844816</speed>
  <fix>3d</fix>
</trkpt>
<trkpt lat="33.8093618" lon="-118.3944318">
  <ele>-43.91</ele>
  <time>2026-09-02T22:08:12Z</time>
  <course>180.09</course>
  <speed>0.94</speed>
  <fix>3d</fix>
</trkpt>
<trkpt lat="33.8093591" lon="-118.3944319">
  <ele>-44.945</ele>
  <time>2026-09-02T22:08:12Z</time>
  <course>180.9</course>
  <speed>0.9400531899844816</speed>
  <fix>3d</fix>
</trkpt>
<trkpt lat="33.8093601" lon="-118.3944318">
  <ele>-43.89</ele>
  <time>2026-09-02T22:08:12Z</time>
  <course>180.03</course>
  <speed>0.95</speed>
  <fix>3d</fix>
</trkpt>
<trkpt lat="33.8093583" lon="-118.3944319">
  <ele>-44.945</ele>
  <time>2026-09-02T22:08:12Z</time>
  <course>180.86</course>
  <speed>0.9500526301210896</speed>
  <fix>3d</fix>
</trkpt>
<trkpt lat="33.8093601" lon="-118.3944318">
  <ele>-43.89</ele>
  <time>2026-09-02T22:08:12Z</time>
  <course>180.03</course>
  <speed>0.95</speed>
  <fix>3d</fix>
</trkpt>
<trkpt lat="33.8093574" lon="-118.3944319">
  <ele>-44.952</ele>
  <time>2026-09-02T22:08:12Z</time>
  <course>180.84</course>
  <speed>0.9500526301210896</speed>
  <fix>3d</fix>
</trkpt>
<trkpt lat="33.8093583" lon="-118.3944318">
  <ele>-43.87</ele>
  <time>2026-09-02T22:08:12Z</time>
  <course>180.01</course>
  <speed>0.96</speed>
  <fix>3d</fix>
</trkpt>
<trkpt lat="33.8093565" lon="-118.3944319">
  <ele>-44.961</ele>
  <time>2026-09-02T22:08:12Z</time>
  <course>180.82</course>
  <speed>0.9500526301210896</speed>
  <fix>3d</fix>
</trkpt>
<trkpt lat="33.8093583" lon="-118.3944318">
  <ele>-43.87</ele>
  <time>2026-09-02T22:08:12Z</time>
  <course>180.01</course>
  <speed>0.96</speed>
  <fix>3d</fix>
</trkpt>
<trkpt lat="33.8093556" lon="-118.3944319">
  <ele>-44.971</ele>
  <time>2026-09-02T22:08:12Z</time>
  <course>180.8</course>
  <speed>0.9600520819205591</speed>
  <fix>3d</fix>
</trkpt>
<trkpt lat="33.8093566" lon="-118.3944318">
  <ele>-43.87</ele>
  <time>2026-09-02T22:08:12Z</time>
  <course>179.99</course>
  <speed>0.97</speed>
  <fix>3d</fix>
</trkpt>
<trkpt lat="33.8093548" lon="-118.3944319">
  <ele>-44.979</ele>
  <time>2026-09-02T22:08:12Z</time>
  <course>180.78</course>
  <speed>0.9600520819205591</speed>
  <fix>3d</fix>
</trkpt>
<trkpt lat="33.8093566" lon="-118.3944318">
  <ele>-43.87</ele>
  <time>2026-09-02T22:08:12Z</time>
  <course>179.99</course>
  <speed>0.97</speed>
  <fix>3d</fix>
</trkpt>
<trkpt lat="33.8093539" lon="-118.3944319">
  <ele>-44.989</ele>
  <time>2026-09-02T22:08:12Z</time>
  <course>180.77</course>
  <speed>0.9600520819205591</speed>
  <fix>3d</fix>
</trkpt>
<trkpt lat="33.8093549" lon="-118.3944318">
  <ele>-43.9</ele>
  <time>2026-09-02T22:08:12Z</time>
  <course>179.97</course>
  <speed>0.98</speed>
  <fix>3d</fix>
</trkpt>
<trkpt lat="33.809353" lon="-118.3944319">
  <ele>-45.0</ele>
  <time>2026-09-02T22:08:12Z</time>
  <course>180.76</course>
  <speed>0.970051545022222</speed>
  <fix>3d</fix>
</trkpt>
<trkpt lat="33.8093549" lon="-118.3944318">
  <ele>-43.9</ele>
  <time>2026-09-02T22:08:12Z</time>
  <course>179.97</course>
  <speed>0.98</speed>
  <fix>3d</fix>
</trkpt>
<trkpt lat="33.8093521" lon="-118.3944319">
  <ele>-45.009</ele>
  <time>2026-09-02T22:08:12Z</time>
  <course>180.75</course>
  <speed>0.970051545022222</speed>
  <fix>3d</fix>
</trkpt>
<trkpt lat="33.809353" lon="-118.3944318">
  <ele>-43.92</ele>
  <time>2026-09-02T22:08:12Z</time>
  <course>179.94</course>
  <speed>0.98</speed>
  <fix>3d</fix>
</trkpt>
<trkpt lat="33.8093512" lon="-118.3944319">
  <ele>-45.017</ele>
  <time>2026-09-02T22:08:12Z</time>
  <course>180.74</course>
  <speed>0.970051545022222</speed>
  <fix>3d</fix>
</trkpt>
<trkpt lat="33.809353" lon="-118.3944318">
  <ele>-43.92</ele>
  <time>2026-09-02T22:08:12Z</time>
  <course>179.94</course>
  <speed>0.98</speed>
  <fix>3d</fix>
</trkpt>
<trkpt lat="33.8093503" lon="-118.3944319">
  <ele>-45.025</ele>
  <time>2026-09-02T22:08:12Z</time>
  <course>180.73</course>
  <speed>0.970051545022222</speed>
  <fix>3d</fix>
</trkpt>
<trkpt lat="33.8093513" lon="-118.3944318">
  <ele>-43.93</ele>
  <time>2026-09-02T22:08:12Z</time>
  <course>179.93</course>
  <speed>0.99</speed>
  <fix>3d</fix>
</trkpt>
<trkpt lat="33.8093494" lon="-118.3944319">
  <ele>-45.034</ele>
  <time>2026-09-02T22:08:12Z</time>
  <course>180.72</course>
  <speed>0.970051545022222</speed>
  <fix>3d</fix>
</trkpt>
<trkpt lat="33.8093513" lon="-118.3944318">
  <ele>-43.93</ele>
  <time>2026-09-02T22:08:12Z</time>
  <course>179.93</course>
  <speed>0.99</speed>
  <fix>3d</fix>
</trkpt>
<trkpt lat="33.8093485" lon="-118.3944319">
  <ele>-45.041</ele>
  <time>2026-09-02T22:08:12Z</time>
  <course>180.72</course>
  <speed>0.970051545022222</speed>
  <fix>3d</fix>
</trkpt>
<trkpt lat="33.8093495" lon="-118.3944318">
  <ele>-43.94</ele>
  <time>2026-09-02T22:08:12Z</time>
  <course>179.9</course>
  <speed>0.99</speed>
  <fix>3d</fix>
</trkpt>
<trkpt lat="33.8093476" lon="-118.3944319">
  <ele>-45.047</ele>
  <time>2026-09-02T22:08:12Z</time>
  <course>180.72</course>
  <speed>0.970051545022222</speed>
  <fix>3d</fix>
</trkpt>
<trkpt lat="33.8093495" lon="-118.3944318">
  <ele>-43.94</ele>
  <time>2026-09-02T22:08:12Z</time>
  <course>179.9</course>
  <speed>0.99</speed>
  <fix>3d</fix>
</trkpt>
<trkpt lat="33.8093467" lon="-118.3944319">
  <ele>-45.051</ele>
  <time>2026-09-02T22:08:12Z</time>
  <course>180.72</course>
  <speed>0.970051545022222</speed>
  <fix>3d</fix>
</trkpt>
<trkpt lat="33.8093478" lon="-118.3944318">
  <ele>-43.96</ele>
  <time>2026-09-02T22:08:12Z</time>
  <course>179.87</course>
  <speed>0.99</speed>
  <fix>3d</fix>
</trkpt>
<trkpt lat="33.8093458" lon="-118.3944319">
  <ele>-45.052</ele>
  <time>2026-09-02T22:08:12Z</time>
  <course>180.72</course>
  <speed>0.970051545022222</speed>
  <fix>3d</fix>
</trkpt>
<trkpt lat="33.8093478" lon="-118.3944318">
  <ele>-43.96</ele>
  <time>2026-09-02T22:08:12Z</time>
  <course>179.87</course>
  <speed>0.99</speed>
  <fix>3d</fix>
</trkpt>
<trkpt lat="33.8093449" lon="-118.3944319">
  <ele>-45.047</ele>
  <time>2026-09-02T22:08:12Z</time>
  <course>180.72</course>
  <speed>0.970051545022222</speed>
  <fix>3d</fix>
</trkpt>
<trkpt lat="33.809346" lon="-118.3944318">
  <ele>-43.97</ele>
  <time>2026-09-02T22:08:12Z</time>
  <course>179.86</course>
  <speed>0.99</speed>
  <fix>3d</fix>
</trkpt>
<trkpt lat="33.8093441" lon="-118.3944319">
  <ele>-45.034</ele>
  <time>2026-09-02T22:08:12Z</time>
  <course>180.72</course>
  <speed>0.9800510190801294</speed>
  <fix>3d</fix>
</trkpt>
<trkpt lat="33.809346" lon="-118.3944318">
  <ele>-43.97</ele>
  <time>2026-09-02T22:08:12Z</time>
  <course>179.86</course>
  <speed>0.99</speed>
  <fix>3d</fix>
</trkpt>
<trkpt lat="33.8093432" lon="-118.3944319">
  <ele>-45.018</ele>
  <time>2026-09-02T22:08:12Z</time>
  <course>180.73</course>
  <speed>0.9800510190801294</speed>
  <fix>3d</fix>
</trkpt>
<trkpt lat="33.8093442" lon="-118.3944318">
  <ele>-43.96</ele>
  <time>2026-09-02T22:08:12Z</time>
  <course>179.84</course>
  <speed>1.0</speed>
  <fix>3d</fix>
</trkpt>
<trkpt lat="33.8093423" lon="-118.3944319">
  <ele>-45.002</ele>
  <time>2026-09-02T22:08:12Z</time>
  <course>180.73</course>
  <speed>0.9800510190801294</speed>
  <fix>3d</fix>
</trkpt>
<trkpt lat="33.8093442" lon="-118.3944318">
  <ele>-43.96</ele>
  <time>2026-09-02T22:08:12Z</time>
  <course>179.84</course>
  <speed>1.0</speed>
  <fix>3d</fix>
</trkpt>
<trkpt lat="33.8093414" lon="-118.3944319">
  <ele>-44.983</ele>
  <time>2026-09-02T22:08:12Z</time>
  <course>180.73</course>
  <speed>0.9800510190801294</speed>
  <fix>3d</fix>
</trkpt>
<trkpt lat="33.8093424" lon="-118.3944318">
  <ele>-43.93</ele>
  <time>2026-09-02T22:08:12Z</time>
  <course>179.84</course>
  <speed>1.0</speed>
  <fix>3d</fix>
</trkpt>
<trkpt lat="33.8093405" lon="-118.3944319">
  <ele>-44.962</ele>
  <time>2026-09-02T22:08:12Z</time>
  <course>180.73</course>
  <speed>0.9800510190801294</speed>
  <fix>3d</fix>
</trkpt>
<trkpt lat="33.8093424" lon="-118.3944318">
  <ele>-43.93</ele>
  <time>2026-09-02T22:08:12Z</time>
  <course>179.84</course>
  <speed>1.0</speed>
  <fix>3d</fix>
</trkpt>
<trkpt lat="33.8093396" lon="-118.3944319">
  <ele>-44.941</ele>
  <time>2026-09-02T22:08:12Z</time>
  <course>180.74</course>
  <speed>0.9800510190801294</speed>
  <fix>3d</fix>
</trkpt>
<trkpt lat="33.8093406" lon="-118.3944318">
  <ele>-43.89</ele>
  <time>2026-09-02T22:08:12Z</time>
  <course>179.83</course>
  <speed>1.0</speed>
  <fix>3d</fix>
</trkpt>
<trkpt lat="33.8093387" lon="-118.3944319">
  <ele>-44.92</ele>
  <time>2026-09-02T22:08:12Z</time>
  <course>180.74</course>
  <speed>0.9800510190801294</speed>
  <fix>3d</fix>
</trkpt>
<trkpt lat="33.8093406" lon="-118.3944318">
  <ele>-43.89</ele>
  <time>2026-09-02T22:08:12Z</time>
  <course>179.83</course>
  <speed>1.0</speed>
  <fix>3d</fix>
</trkpt>
<trkpt lat="33.8093378" lon="-118.3944319">
  <ele>-44.901</ele>
  <time>2026-09-02T22:08:12Z</time>
  <course>180.74</course>
  <speed>0.9800510190801294</speed>
  <fix>3d</fix>
</trkpt>
<trkpt lat="33.8093387" lon="-118.3944318">
  <ele>-43.86</ele>
  <time>2026-09-02T22:08:12Z</time>
  <course>179.8</course>
  <speed>1.0</speed>
  <fix>3d</fix>
</trkpt>
<trkpt lat="33.8093369" lon="-118.3944319">
  <ele>-44.882</ele>
  <time>2026-09-02T22:08:12Z</time>
  <course>180.75</course>
  <speed>0.9800510190801294</speed>
  <fix>3d</fix>
</trkpt>
<trkpt lat="33.8093387" lon="-118.3944318">
  <ele>-43.86</ele>
  <time>2026-09-02T22:08:12Z</time>
  <course>179.8</course>
  <speed>1.0</speed>
  <fix>3d</fix>
</trkpt>
<trkpt lat="33.809336" lon="-118.3944319">
  <ele>-44.865</ele>
  <time>2026-09-02T22:08:12Z</time>
  <course>180.76</course>
  <speed>0.9800510190801294</speed>
  <fix>3d</fix>
</trkpt>
<trkpt lat="33.809337" lon="-118.3944318">
  <ele>-43.82</ele>
  <time>2026-09-02T22:08:12Z</time>
  <course>179.8</course>
  <speed>1.0</speed>
  <fix>3d</fix>
</trkpt>
<trkpt lat="33.8093351" lon="-118.3944319">
  <ele>-44.851</ele>
  <time>2026-09-02T22:08:12Z</time>
  <course>180.76</course>
  <speed>0.9800510190801294</speed>
  <fix>3d</fix>
</trkpt>
<trkpt lat="33.809337" lon="-118.3944318">
  <ele>-43.82</ele>
  <time>2026-09-02T22:08:12Z</time>
  <course>179.8</course>
  <speed>1.0</speed>
  <fix>3d</fix>
</trkpt>
<trkpt lat="33.8093342" lon="-118.3944319">
  <ele>-44.844</ele>
  <time>2026-09-02T22:08:12Z</time>
  <course>180.77</course>
  <speed>0.9800510190801294</speed>
  <fix>3d</fix>
</trkpt>
<trkpt lat="33.8093351" lon="-118.3944318">
  <ele>-43.79</ele>
  <time>2026-09-02T22:08:12Z</time>
  <course>179.8</course>
  <speed>1.0</speed>
  <fix>3d</fix>
</trkpt>
<trkpt lat="33.8093333" lon="-118.3944319">
  <ele>-44.849</ele>
  <time>2026-09-02T22:08:12Z</time>
  <course>180.77</course>
  <speed>0.970051545022222</speed>
  <fix>3d</fix>
</trkpt>
<trkpt lat="33.8093351" lon="-118.3944318">
  <ele>-43.79</ele>
  <time>2026-09-02T22:08:12Z</time>
  <course>179.8</course>
  <speed>1.0</speed>
  <fix>3d</fix>
</trkpt>
<trkpt lat="33.8093324" lon="-118.3944319">
  <ele>-44.861</ele>
  <time>2026-09-02T22:08:12Z</time>
  <course>180.78</course>
  <speed>0.9800510190801294</speed>
  <fix>3d</fix>
</trkpt>
<trkpt lat="33.8093334" lon="-118.3944318">
  <ele>-43.78</ele>
  <time>2026-09-02T22:08:12Z</time>
  <course>179.8</course>
  <speed>1.0</speed>
  <fix>3d</fix>
</trkpt>
<trkpt lat="33.8093315" lon="-118.3944319">
  <ele>-44.878</ele>
  <time>2026-09-02T22:08:12Z</time>
  <course>180.78</course>
  <speed>0.9800510190801294</speed>
  <fix>3d</fix>
</trkpt>
<trkpt lat="33.8093334" lon="-118.3944318">
  <ele>-43.78</ele>
  <time>2026-09-02T22:08:12Z</time>
  <course>179.8</course>
  <speed>1.0</speed>
  <fix>3d</fix>
</trkpt>
<trkpt lat="33.8093306" lon="-118.3944319">
  <ele>-44.895</ele>
  <time>2026-09-02T22:08:12Z</time>
  <course>180.78</course>
  <speed>0.9800510190801294</speed>
  <fix>3d</fix>
</trkpt>
<trkpt lat="33.8093315" lon="-118.3944318">
  <ele>-43.8</ele>
  <time>2026-09-02T22:08:12Z</time>
  <course>179.8</course>
  <speed>1.0</speed>
  <fix>3d</fix>
</trkpt>
<trkpt lat="33.8093297" lon="-118.3944319">
  <ele>-44.915</ele>
  <time>2026-09-02T22:08:12Z</time>
  <course>180.78</course>
  <speed>0.9800510190801294</speed>
  <fix>3d</fix>
</trkpt>
<trkpt lat="33.8093315" lon="-118.3944318">
  <ele>-43.8</ele>
  <time>2026-09-02T22:08:12Z</time>
  <course>179.8</course>
  <speed>1.0</speed>
  <fix>3d</fix>
</trkpt>
<trkpt lat="33.8093288" lon="-118.3944319">
  <ele>-44.935</ele>
  <time>2026-09-02T22:08:12Z</time>
  <course>180.78</course>
  <speed>0.9800510190801294</speed>
  <fix>3d</fix>
</trkpt>
<trkpt lat="33.8093298" lon="-118.3944318">
  <ele>-43.83</ele>
  <time>2026-09-02T22:08:12Z</time>
  <course>179.79</course>
  <speed>1.0</speed>
  <fix>3d</fix>
</trkpt>
<trkpt lat="33.8093279" lon="-118.3944319">
  <ele>-44.956</ele>
  <time>2026-09-02T22:08:12Z</time>
  <course>180.78</course>
  <speed>0.9800510190801294</speed>
  <fix>3d</fix>
</trkpt>
<trkpt lat="33.8093298" lon="-118.3944318">
  <ele>-43.83</ele>
  <time>2026-09-02T22:08:12Z</time>
  <course>179.79</course>
  <speed>1.0</speed>
  <fix>3d</fix>
</trkpt>
<trkpt lat="33.809327" lon="-118.3944319">
  <ele>-44.978</ele>
  <time>2026-09-02T22:08:12Z</time>
  <course>180.79</course>
  <speed>0.880056816347672</speed>
  <fix>3d</fix>
</trkpt>
<trkpt lat="33.8093279" lon="-118.3944318">
  <ele>-43.87</ele>
  <time>2026-09-02T22:08:12Z</time>
  <course>179.77</course>
  <speed>1.0</speed>
  <fix>3d</fix>
</trkpt>
<trkpt lat="33.8093262" lon="-118.3944319">
  <ele>-44.999</ele>
  <time>2026-09-02T22:08:12Z</time>
  <course>180.83</course>
  <speed>0.9100549433962765</speed>
  <fix>3d</fix>
</trkpt>
<trkpt lat="33.8093279" lon="-118.3944318">
  <ele>-43.87</ele>
  <time>2026-09-02T22:08:12Z</time>
  <course>179.77</course>
  <speed>1.0</speed>
  <fix>3d</fix>
</trkpt>
<trkpt lat="33.8093254" lon="-118.3944319">
  <ele>-45.018</ele>
  <time>2026-09-02T22:08:12Z</time>
  <course>180.86</course>
  <speed>0.9200543462209175</speed>
  <fix>3d</fix>
</trkpt>
<trkpt lat="33.8093262" lon="-118.3944318">
  <ele>-43.91</ele>
  <time>2026-09-02T22:08:12Z</time>
  <course>179.76</course>
  <speed>0.97</speed>
  <fix>3d</fix>
</trkpt>
<trkpt lat="33.8093245" lon="-118.3944319">
  <ele>-45.034</ele>
  <time>2026-09-02T22:08:12Z</time>
  <course>180.88</course>
  <speed>0.9300537618869137</speed>
  <fix>3d</fix>
</trkpt>
<trkpt lat="33.8093262" lon="-118.3944318">
  <ele>-43.91</ele>
  <time>2026-09-02T22:08:12Z</time>
  <course>179.76</course>
  <speed>0.97</speed>
  <fix>3d</fix>
</trkpt>
<trkpt lat="33.8093236" lon="-118.3944319">
  <ele>-45.049</ele>
  <time>2026-09-02T22:08:12Z</time>
  <course>180.88</course>
  <speed>0.9400531899844816</speed>
  <fix>3d</fix>
</trkpt>
<trkpt lat="33.8093245" lon="-118.3944318">
  <ele>-43.94</ele>
  <time>2026-09-02T22:08:12Z</time>
  <course>179.76</course>
  <speed>0.95</speed>
  <fix>3d</fix>
</trkpt>
<trkpt lat="33.8093228" lon="-118.3944319">
  <ele>-45.06</ele>
  <time>2026-09-02T22:08:12Z</time>
  <course>180.87</course>
  <speed>0.9400531899844816</speed>
  <fix>3d</fix>
</trkpt>
<trkpt lat="33.8093245" lon="-118.3944318">
  <ele>-43.94</ele>
  <time>2026-09-02T22:08:12Z</time>
  <course>179.76</course>
  <speed>0.95</speed>
  <fix>3d</fix>
</trkpt>
<trkpt lat="33.8093219" lon="-118.3944319">
  <ele>-45.07</ele>
  <time>2026-09-02T22:08:12Z</time>
  <course>180.86</course>
  <speed>0.9500526301210896</speed>
  <fix>3d</fix>
</trkpt>
<trkpt lat="33.8093228" lon="-118.3944318">
  <ele>-43.97</ele>
  <time>2026-09-02T22:08:12Z</time>
  <course>179.74</course>
  <speed>0.96</speed>
  <fix>3d</fix>
</trkpt>
<trkpt lat="33.809321" lon="-118.3944319">
  <ele>-45.082</ele>
  <time>2026-09-02T22:08:12Z</time>
  <course>180.86</course>
  <speed>0.9500526301210896</speed>
  <fix>3d</fix>
</trkpt>
<trkpt lat="33.8093228" lon="-118.3944318">
  <ele>-43.97</ele>
  <time>2026-09-02T22:08:12Z</time>
  <course>179.74</course>
  <speed>0.96</speed>
  <fix>3d</fix>
</trkpt>
<trkpt lat="33.8093201" lon="-118.3944319">
  <ele>-45.095</ele>
  <time>2026-09-02T22:08:12Z</time>
  <course>180.86</course>
  <speed>0.9600520819205591</speed>
  <fix>3d</fix>
</trkpt>
<trkpt lat="33.809321" lon="-118.3944318">
  <ele>-44.0</ele>
  <time>2026-09-02T22:08:12Z</time>
  <course>179.72</course>
  <speed>0.97</speed>
  <fix>3d</fix>
</trkpt>
<trkpt lat="33.8093193" lon="-118.3944319">
  <ele>-45.106</ele>
  <time>2026-09-02T22:08:12Z</time>
  <course>180.86</course>
  <speed>0.9600520819205591</speed>
  <fix>3d</fix>
</trkpt>
<trkpt lat="33.809321" lon="-118.3944318">
  <ele>-44.0</ele>
  <time>2026-09-02T22:08:12Z</time>
  <course>179.72</course>
  <speed>0.97</speed>
  <fix>3d</fix>
</trkpt>
<trkpt lat="33.8093184" lon="-118.3944319">
  <ele>-45.113</ele>
  <time>2026-09-02T22:08:12Z</time>
  <course>180.86</course>
  <speed>0.9600520819205591</speed>
  <fix>3d</fix>
</trkpt>
<trkpt lat="33.8093193" lon="-118.3944318">
  <ele>-44.01</ele>
  <time>2026-09-02T22:08:12Z</time>
  <course>179.7</course>
  <speed>0.98</speed>
  <fix>3d</fix>
</trkpt>
<trkpt lat="33.8093175" lon="-118.3944319">
  <ele>-45.112</ele>
  <time>2026-09-02T22:08:12Z</time>
  <course>180.85</course>
  <speed>0.9600520819205591</speed>
  <fix>3d</fix>
</trkpt>
<trkpt lat="33.8093193" lon="-118.3944318">
  <ele>-44.01</ele>
  <time>2026-09-02T22:08:12Z</time>
  <course>179.7</course>
  <speed>0.98</speed>
  <fix>3d</fix>
</trkpt>
<trkpt lat="33.8093166" lon="-118.3944319">
  <ele>-45.103</ele>
  <time>2026-09-02T22:08:12Z</time>
  <course>180.86</course>
  <speed>0.9600520819205591</speed>
  <fix>3d</fix>
</trkpt>
<trkpt lat="33.8093174" lon="-118.3944317">
  <ele>-44.03</ele>
  <time>2026-09-02T22:08:12Z</time>
  <course>179.68</course>
  <speed>0.98</speed>
  <fix>3d</fix>
</trkpt>
<trkpt lat="33.8093157" lon="-118.3944319">
  <ele>-45.089</ele>
  <time>2026-09-02T22:08:12Z</time>
  <course>180.87</course>
  <speed>0.9600520819205591</speed>
  <fix>3d</fix>
</trkpt>
<trkpt lat="33.8093174" lon="-118.3944317">
  <ele>-44.03</ele>
  <time>2026-09-02T22:08:12Z</time>
  <course>179.68</course>
  <speed>0.98</speed>
  <fix>3d</fix>
</trkpt>
<trkpt lat="33.8093148" lon="-118.3944319">
  <ele>-45.069</ele>
  <time>2026-09-02T22:08:12Z</time>
  <course>180.9</course>
  <speed>0.970051545022222</speed>
  <fix>3d</fix>
</trkpt>
<trkpt lat="33.8093157" lon="-118.3944317">
  <ele>-44.01</ele>
  <time>2026-09-02T22:08:12Z</time>
  <course>179.7</course>
  <speed>0.99</speed>
  <fix>3d</fix>
</trkpt>
<trkpt lat="33.8093139" lon="-118.3944319">
  <ele>-45.048</ele>
  <time>2026-09-02T22:08:13Z</time>
  <course>180.95</course>
  <speed>0.970051545022222</speed>
  <fix>3d</fix>
</trkpt>
<trkpt lat="33.8093157" lon="-118.3944317">
  <ele>-44.01</ele>
  <time>2026-09-02T22:08:13Z</time>
  <course>179.7</course>
  <speed>0.99</speed>
  <fix>3d</fix>
</trkpt>
<trkpt lat="33.809313" lon="-118.3944319">
  <ele>-45.023</ele>
  <time>2026-09-02T22:08:13Z</time>
  <course>181.0</course>
  <speed>0.970051545022222</speed>
  <fix>3d</fix>
</trkpt>
<trkpt lat="33.8093138" lon="-118.3944317">
  <ele>-43.98</ele>
  <time>2026-09-02T22:08:13Z</time>
  <course>179.77</course>
  <speed>0.99</speed>
  <fix>3d</fix>
</trkpt>
<trkpt lat="33.8093121" lon="-118.3944319">
  <ele>-44.998</ele>
  <time>2026-09-02T22:08:13Z</time>
  <course>181.05</course>
  <speed>0.970051545022222</speed>
  <fix>3d</fix>
</trkpt>
<trkpt lat="33.8093138" lon="-118.3944317">
  <ele>-43.98</ele>
  <time>2026-09-02T22:08:13Z</time>
  <course>179.77</course>
  <speed>0.99</speed>
  <fix>3d</fix>
</trkpt>
<trkpt lat="33.8093112" lon="-118.3944319">
  <ele>-44.974</ele>
  <time>2026-09-02T22:08:13Z</time>
  <course>181.1</course>
  <speed>0.970051545022222</speed>
  <fix>3d</fix>
</trkpt>
<trkpt lat="33.8093121" lon="-118.3944317">
  <ele>-43.93</ele>
  <time>2026-09-02T22:08:13Z</time>
  <course>179.84</course>
  <speed>0.99</speed>
  <fix>3d</fix>
</trkpt>
<trkpt lat="33.8093103" lon="-118.3944319">
  <ele>-44.957</ele>
  <time>2026-09-02T22:08:13Z</time>
  <course>181.15</course>
  <speed>0.970051545022222</speed>
  <fix>3d</fix>
</trkpt>
<trkpt lat="33.8093121" lon="-118.3944317">
  <ele>-43.93</ele>
  <time>2026-09-02T22:08:13Z</time>
  <course>179.84</course>
  <speed>0.99</speed>
  <fix>3d</fix>
</trkpt>
<trkpt lat="33.8093094" lon="-118.3944319">
  <ele>-44.945</ele>
  <time>2026-09-02T22:08:13Z</time>
  <course>181.19</course>
  <speed>0.970051545022222</speed>
  <fix>3d</fix>
</trkpt>
<trkpt lat="33.8093104" lon="-118.3944317">
  <ele>-43.89</ele>
  <time>2026-09-02T22:08:13Z</time>
  <course>179.89</course>
  <speed>0.99</speed>
  <fix>3d</fix>
</trkpt>
<trkpt lat="33.8093085" lon="-118.3944319">
  <ele>-44.934</ele>
  <time>2026-09-02T22:08:13Z</time>
  <course>181.22</course>
  <speed>0.9702061636580135</speed>
  <fix>3d</fix>
</trkpt>
<trkpt lat="33.8093104" lon="-118.3944317">
  <ele>-43.89</ele>
  <time>2026-09-02T22:08:13Z</time>
  <course>179.89</course>
  <speed>0.99</speed>
  <fix>3d</fix>
</trkpt>
<trkpt lat="33.8093076" lon="-118.3944319">
  <ele>-44.924</ele>
  <time>2026-09-02T22:08:13Z</time>
  <course>181.26</course>
  <speed>0.970051545022222</speed>
  <fix>3d</fix>
</trkpt>
<trkpt lat="33.8093085" lon="-118.3944317">
  <ele>-43.87</ele>
  <time>2026-09-02T22:08:13Z</time>
  <course>179.92</course>
  <speed>0.99</speed>
  <fix>3d</fix>
</trkpt>
<trkpt lat="33.8093067" lon="-118.3944319">
  <ele>-44.915</ele>
  <time>2026-09-02T22:08:13Z</time>
  <course>181.27</course>
  <speed>0.9702061636580135</speed>
  <fix>3d</fix>
</trkpt>
<trkpt lat="33.8093085" lon="-118.3944317">
  <ele>-43.87</ele>
  <time>2026-09-02T22:08:13Z</time>
  <course>179.92</course>
  <speed>0.99</speed>
  <fix>3d</fix>
</trkpt>
<trkpt lat="33.8093058" lon="-118.3944319">
  <ele>-44.907</ele>
  <time>2026-09-02T22:08:13Z</time>
  <course>181.29</course>
  <speed>0.970051545022222</speed>
  <fix>3d</fix>
</trkpt>
<trkpt lat="33.8093068" lon="-118.3944317">
  <ele>-43.85</ele>
  <time>2026-09-02T22:08:13Z</time>
  <course>179.96</course>
  <speed>0.99</speed>
  <fix>3d</fix>
</trkpt>
<trkpt lat="33.809305" lon="-118.3944319">
  <ele>-44.909</ele>
  <time>2026-09-02T22:08:13Z</time>
  <course>181.3</course>
  <speed>0.9702061636580135</speed>
  <fix>3d</fix>
</trkpt>
<trkpt lat="33.8093068" lon="-118.3944317">
  <ele>-43.85</ele>
  <time>2026-09-02T22:08:13Z</time>
  <course>179.96</course>
  <speed>0.99</speed>
  <fix>3d</fix>
</trkpt>
<trkpt lat="33.8093041" lon="-118.3944319">
  <ele>-44.921</ele>
  <time>2026-09-02T22:08:13Z</time>
  <course>181.32</course>
  <speed>0.970051545022222</speed>
  <fix>3d</fix>
</trkpt>
<trkpt lat="33.8093049" lon="-118.3944317">
  <ele>-43.84</ele>
  <time>2026-09-02T22:08:13Z</time>
  <course>179.98</course>
  <speed>0.99</speed>
  <fix>3d</fix>
</trkpt>
<trkpt lat="33.8093032" lon="-118.3944319">
  <ele>-44.94</ele>
  <time>2026-09-02T22:08:13Z</time>
  <course>181.33</course>
  <speed>0.9702061636580135</speed>
  <fix>3d</fix>
</trkpt>
<trkpt lat="33.8093049" lon="-118.3944317">
  <ele>-43.84</ele>
  <time>2026-09-02T22:08:13Z</time>
  <course>179.98</course>
  <speed>0.99</speed>
  <fix>3d</fix>
</trkpt>
<trkpt lat="33.8093023" lon="-118.3944319">
  <ele>-44.962</ele>
  <time>2026-09-02T22:08:13Z</time>
  <course>181.34</course>
  <speed>0.970051545022222</speed>
  <fix>3d</fix>
</trkpt>
<trkpt lat="33.8093032" lon="-118.3944317">
  <ele>-43.85</ele>
  <time>2026-09-02T22:08:13Z</time>
  <course>180.0</course>
  <speed>0.99</speed>
  <fix>3d</fix>
</trkpt>
<trkpt lat="33.8093014" lon="-118.3944319">
  <ele>-44.985</ele>
  <time>2026-09-02T22:08:13Z</time>
  <course>181.34</course>
  <speed>0.9702061636580135</speed>
  <fix>3d</fix>
</trkpt>
<trkpt lat="33.8093032" lon="-118.3944317">
  <ele>-43.85</ele>
  <time>2026-09-02T22:08:13Z</time>
  <course>180.0</course>
  <speed>0.99</speed>
  <fix>3d</fix>
</trkpt>
<trkpt lat="33.8093005" lon="-118.3944319">
  <ele>-45.006</ele>
  <time>2026-09-02T22:08:13Z</time>
  <course>181.34</course>
  <speed>0.970051545022222</speed>
  <fix>3d</fix>
</trkpt>
<trkpt lat="33.8093013" lon="-118.3944317">
  <ele>-43.89</ele>
  <time>2026-09-02T22:08:13Z</time>
  <course>180.02</course>
  <speed>0.99</speed>
  <fix>3d</fix>
</trkpt>
<trkpt lat="33.8092996" lon="-118.3944319">
  <ele>-45.028</ele>
  <time>2026-09-02T22:08:13Z</time>
  <course>181.34</course>
  <speed>0.9702061636580135</speed>
  <fix>3d</fix>
</trkpt>
<trkpt lat="33.8093013" lon="-118.3944317">
  <ele>-43.89</ele>
  <time>2026-09-02T22:08:13Z</time>
  <course>180.02</course>
  <speed>0.99</speed>
  <fix>3d</fix>
</trkpt>
<trkpt lat="33.8092987" lon="-118.3944319">
  <ele>-45.046</ele>
  <time>2026-09-02T22:08:13Z</time>
  <course>181.35</course>
  <speed>0.970051545022222</speed>
  <fix>3d</fix>
</trkpt>
<trkpt lat="33.8092996" lon="-118.3944317">
  <ele>-43.93</ele>
  <time>2026-09-02T22:08:13Z</time>
  <course>180.03</course>
  <speed>0.99</speed>
  <fix>3d</fix>
</trkpt>
<trkpt lat="33.8092978" lon="-118.3944319">
  <ele>-45.059</ele>
  <time>2026-09-02T22:08:13Z</time>
  <course>181.35</course>
  <speed>0.9702061636580135</speed>
  <fix>3d</fix>
</trkpt>
<trkpt lat="33.8092996" lon="-118.3944317">
  <ele>-43.93</ele>
  <time>2026-09-02T22:08:13Z</time>
  <course>180.03</course>
  <speed>0.99</speed>
  <fix>3d</fix>
</trkpt>
<trkpt lat="33.8092969" lon="-118.3944319">
  <ele>-45.069</ele>
  <time>2026-09-02T22:08:13Z</time>
  <course>181.35</course>
  <speed>0.970051545022222</speed>
  <fix>3d</fix>
</trkpt>
<trkpt lat="33.8092977" lon="-118.3944317">
  <ele>-43.96</ele>
  <time>2026-09-02T22:08:13Z</time>
  <course>180.04</course>
  <speed>0.99</speed>
  <fix>3d</fix>
</trkpt>
<trkpt lat="33.809296" lon="-118.3944319">
  <ele>-45.074</ele>
  <time>2026-09-02T22:08:13Z</time>
  <course>181.34</course>
  <speed>0.9702061636580135</speed>
  <fix>3d</fix>
</trkpt>
<trkpt lat="33.8092977" lon="-118.3944317">
  <ele>-43.96</ele>
  <time>2026-09-02T22:08:13Z</time>
  <course>180.04</course>
  <speed>0.99</speed>
  <fix>3d</fix>
</trkpt>
<trkpt lat="33.8092951" lon="-118.3944319">
  <ele>-45.074</ele>
  <time>2026-09-02T22:08:13Z</time>
  <course>181.35</course>
  <speed>0.970051545022222</speed>
  <fix>3d</fix>
</trkpt>
<trkpt lat="33.809296" lon="-118.3944317">
  <ele>-43.98</ele>
  <time>2026-09-02T22:08:13Z</time>
  <course>180.05</course>
  <speed>0.99</speed>
  <fix>3d</fix>
</trkpt>
<trkpt lat="33.8092942" lon="-118.3944319">
  <ele>-45.071</ele>
  <time>2026-09-02T22:08:13Z</time>
  <course>181.35</course>
  <speed>0.9702061636580135</speed>
  <fix>3d</fix>
</trkpt>
<trkpt lat="33.809296" lon="-118.3944317">
  <ele>-43.98</ele>
  <time>2026-09-02T22:08:13Z</time>
  <course>180.05</course>
  <speed>0.99</speed>
  <fix>3d</fix>
</trkpt>
<trkpt lat="33.8092933" lon="-118.3944319">
  <ele>-45.061</ele>
  <time>2026-09-02T22:08:13Z</time>
  <course>181.35</course>
  <speed>0.970051545022222</speed>
  <fix>3d</fix>
</trkpt>
<trkpt lat="33.8092941" lon="-118.3944317">
  <ele>-43.98</ele>
  <time>2026-09-02T22:08:13Z</time>
  <course>180.05</course>
  <speed>0.99</speed>
  <fix>3d</fix>
</trkpt>
<trkpt lat="33.8092924" lon="-118.3944319">
  <ele>-45.046</ele>
  <time>2026-09-02T22:08:13Z</time>
  <course>181.35</course>
  <speed>0.9702061636580135</speed>
  <fix>3d</fix>
</trkpt>
<trkpt lat="33.8092941" lon="-118.3944317">
  <ele>-43.98</ele>
  <time>2026-09-02T22:08:13Z</time>
  <course>180.05</course>
  <speed>0.99</speed>
  <fix>3d</fix>
</trkpt>
<trkpt lat="33.8092915" lon="-118.3944319">
  <ele>-45.03</ele>
  <time>2026-09-02T22:08:13Z</time>
  <course>181.35</course>
  <speed>0.970051545022222</speed>
  <fix>3d</fix>
</trkpt>
<trkpt lat="33.8092924" lon="-118.3944317">
  <ele>-43.97</ele>
  <time>2026-09-02T22:08:13Z</time>
  <course>180.06</course>
  <speed>0.99</speed>
  <fix>3d</fix>
</trkpt>
<trkpt lat="33.8092906" lon="-118.3944319">
  <ele>-45.013</ele>
  <time>2026-09-02T22:08:13Z</time>
  <course>181.35</course>
  <speed>0.9702061636580135</speed>
  <fix>3d</fix>
</trkpt>
<trkpt lat="33.8092924" lon="-118.3944317">
  <ele>-43.97</ele>
  <time>2026-09-02T22:08:13Z</time>
  <course>180.06</course>
  <speed>0.99</speed>
  <fix>3d</fix>
</trkpt>
<trkpt lat="33.8092897" lon="-118.3944319">
  <ele>-44.994</ele>
  <time>2026-09-02T22:08:13Z</time>
  <course>181.35</course>
  <speed>0.970051545022222</speed>
  <fix>3d</fix>
</trkpt>
<trkpt lat="33.8092906" lon="-118.3944317">
  <ele>-43.94</ele>
  <time>2026-09-02T22:08:13Z</time>
  <course>180.06</course>
  <speed>0.99</speed>
  <fix>3d</fix>
</trkpt>
<trkpt lat="33.8092888" lon="-118.3944319">
  <ele>-44.976</ele>
  <time>2026-09-02T22:08:13Z</time>
  <course>181.34</course>
  <speed>0.9702061636580135</speed>
  <fix>3d</fix>
</trkpt>
<trkpt lat="33.8092906" lon="-118.3944317">
  <ele>-43.94</ele>
  <time>2026-09-02T22:08:13Z</time>
  <course>180.06</course>
  <speed>0.99</speed>
  <fix>3d</fix>
</trkpt>
<trkpt lat="33.8092879" lon="-118.3944319">
  <ele>-44.957</ele>
  <time>2026-09-02T22:08:13Z</time>
  <course>181.34</course>
  <speed>0.970051545022222</speed>
  <fix>3d</fix>
</trkpt>
<trkpt lat="33.8092888" lon="-118.3944317">
  <ele>-43.9</ele>
  <time>2026-09-02T22:08:13Z</time>
  <course>180.08</course>
  <speed>0.99</speed>
  <fix>3d</fix>
</trkpt>
<trkpt lat="33.809287" lon="-118.3944319">
  <ele>-44.942</ele>
  <time>2026-09-02T22:08:13Z</time>
  <course>181.34</course>
  <speed>0.8802272433866155</speed>
  <fix>3d</fix>
</trkpt>
<trkpt lat="33.8092888" lon="-118.3944317">
  <ele>-43.9</ele>
  <time>2026-09-02T22:08:13Z</time>
  <course>180.08</course>
  <speed>0.99</speed>
  <fix>3d</fix>
</trkpt>
<trkpt lat="33.8092862" lon="-118.3944319">
  <ele>-44.933</ele>
  <time>2026-09-02T22:08:13Z</time>
  <course>181.4</course>
  <speed>0.9102197536858887</speed>
  <fix>3d</fix>
</trkpt>
<trkpt lat="33.809287" lon="-118.3944317">
  <ele>-43.87</ele>
  <time>2026-09-02T22:08:13Z</time>
  <course>180.13</course>
  <speed>0.95</speed>
  <fix>3d</fix>
</trkpt>
<trkpt lat="33.8092853" lon="-118.3944319">
  <ele>-44.927</ele>
  <time>2026-09-02T22:08:13Z</time>
  <course>181.45</course>
  <speed>0.9202173656261873</speed>
  <fix>3d</fix>
</trkpt>
<trkpt lat="33.809287" lon="-118.3944317">
  <ele>-43.87</ele>
  <time>2026-09-02T22:08:13Z</time>
  <course>180.13</course>
  <speed>0.95</speed>
  <fix>3d</fix>
</trkpt>
<trkpt lat="33.8092845" lon="-118.3944319">
  <ele>-44.924</ele>
  <time>2026-09-02T22:08:13Z</time>
  <course>181.47</course>
  <speed>0.9300537618869137</speed>
  <fix>3d</fix>
</trkpt>
<trkpt lat="33.8092853" lon="-118.3944317">
  <ele>-43.85</ele>
  <time>2026-09-02T22:08:13Z</time>
  <course>180.17</course>
  <speed>0.93</speed>
  <fix>3d</fix>
</trkpt>
<trkpt lat="33.8092836" lon="-118.3944319">
  <ele>-44.929</ele>
  <time>2026-09-02T22:08:13Z</time>
  <course>181.45</course>
  <speed>0.9302150289046076</speed>
  <fix>3d</fix>
</trkpt>
<trkpt lat="33.8092853" lon="-118.3944317">
  <ele>-43.85</ele>
  <time>2026-09-02T22:08:13Z</time>
  <course>180.17</course>
  <speed>0.93</speed>
  <fix>3d</fix>
</trkpt>
<trkpt lat="33.8092828" lon="-118.3944319">
  <ele>-44.942</ele>
  <time>2026-09-02T22:08:13Z</time>
  <course>181.44</course>
  <speed>0.9400531899844816</speed>
  <fix>3d</fix>
</trkpt>
<trkpt lat="33.8092836" lon="-118.3944317">
  <ele>-43.85</ele>
  <time>2026-09-02T22:08:13Z</time>
  <course>180.14</course>
  <speed>0.95</speed>
  <fix>3d</fix>
</trkpt>
<trkpt lat="33.8092819" lon="-118.3944319">
  <ele>-44.956</ele>
  <time>2026-09-02T22:08:13Z</time>
  <course>181.41</course>
  <speed>0.9402127418834527</speed>
  <fix>3d</fix>
</trkpt>
<trkpt lat="33.8092836" lon="-118.3944317">
  <ele>-43.85</ele>
  <time>2026-09-02T22:08:13Z</time>
  <course>180.14</course>
  <speed>0.95</speed>
  <fix>3d</fix>
</trkpt>
<trkpt lat="33.809281" lon="-118.3944319">
  <ele>-44.97</ele>
  <time>2026-09-02T22:08:13Z</time>
  <course>181.4</course>
  <speed>0.9500526301210896</speed>
  <fix>3d</fix>
</trkpt>
<trkpt lat="33.8092819" lon="-118.3944317">
  <ele>-43.87</ele>
  <time>2026-09-02T22:08:13Z</time>
  <course>180.15</course>
  <speed>0.96</speed>
  <fix>3d</fix>
</trkpt>
<trkpt lat="33.8092801" lon="-118.3944319">
  <ele>-44.984</ele>
  <time>2026-09-02T22:08:13Z</time>
  <course>181.37</course>
  <speed>0.9502105029939419</speed>
  <fix>3d</fix>
</trkpt>
<trkpt lat="33.8092819" lon="-118.3944317">
  <ele>-43.87</ele>
  <time>2026-09-02T22:08:13Z</time>
  <course>180.15</course>
  <speed>0.96</speed>
  <fix>3d</fix>
</trkpt>
<trkpt lat="33.8092793" lon="-118.3944319">
  <ele>-44.996</ele>
  <time>2026-09-02T22:08:13Z</time>
  <course>181.37</course>
  <speed>0.9600520819205591</speed>
  <fix>3d</fix>
</trkpt>
<trkpt lat="33.8092802" lon="-118.3944317">
  <ele>-43.9</ele>
  <time>2026-09-02T22:08:13Z</time>
  <course>180.16</course>
  <speed>0.97</speed>
  <fix>3d</fix>
</trkpt>
<trkpt lat="33.8092784" lon="-118.3944319">
  <ele>-45.006</ele>
  <time>2026-09-02T22:08:13Z</time>
  <course>181.35</course>
  <speed>0.9602083107326242</speed>
  <fix>3d</fix>
</trkpt>
<trkpt lat="33.8092802" lon="-118.3944317">
  <ele>-43.9</ele>
  <time>2026-09-02T22:08:13Z</time>
  <course>180.16</course>
  <speed>0.97</speed>
  <fix>3d</fix>
</trkpt>
<trkpt lat="33.8092775" lon="-118.3944319">
  <ele>-45.014</ele>
  <time>2026-09-02T22:08:13Z</time>
  <course>181.34</course>
  <speed>0.9600520819205591</speed>
  <fix>3d</fix>
</trkpt>
<trkpt lat="33.8092784" lon="-118.3944317">
  <ele>-43.92</ele>
  <time>2026-09-02T22:08:13Z</time>
  <course>180.17</course>
  <speed>0.98</speed>
  <fix>3d</fix>
</trkpt>
<trkpt lat="33.8092766" lon="-118.3944319">
  <ele>-45.021</ele>
  <time>2026-09-02T22:08:13Z</time>
  <course>181.33</course>
  <speed>0.9602083107326242</speed>
  <fix>3d</fix>
</trkpt>
<trkpt lat="33.8092784" lon="-118.3944317">
  <ele>-43.92</ele>
  <time>2026-09-02T22:08:13Z</time>
  <course>180.17</course>
  <speed>0.98</speed>
  <fix>3d</fix>
</trkpt>
<trkpt lat="33.8092757" lon="-118.3944319">
  <ele>-45.027</ele>
  <time>2026-09-02T22:08:13Z</time>
  <course>181.32</course>
  <speed>0.970051545022222</speed>
  <fix>3d</fix>
</trkpt>
<trkpt lat="33.8092767" lon="-118.3944317">
  <ele>-43.93</ele>
  <time>2026-09-02T22:08:13Z</time>
  <course>180.17</course>
  <speed>0.98</speed>
  <fix>3d</fix>
</trkpt>
<trkpt lat="33.8092748" lon="-118.3944319">
  <ele>-45.03</ele>
  <time>2026-09-02T22:08:13Z</time>
  <course>181.31</course>
  <speed>0.9702061636580135</speed>
  <fix>3d</fix>
</trkpt>
<trkpt lat="33.8092767" lon="-118.3944317">
  <ele>-43.93</ele>
  <time>2026-09-02T22:08:13Z</time>
  <course>180.17</course>
  <speed>0.98</speed>
  <fix>3d</fix>
</trkpt>
<trkpt lat="33.8092739" lon="-118.3944319">
  <ele>-45.03</ele>
  <time>2026-09-02T22:08:13Z</time>
  <course>181.3</course>
  <speed>0.970051545022222</speed>
  <fix>3d</fix>
</trkpt>
<trkpt lat="33.8092749" lon="-118.3944317">
  <ele>-43.94</ele>
  <time>2026-09-02T22:08:13Z</time>
  <course>180.18</course>
  <speed>0.99</speed>
  <fix>3d</fix>
</trkpt>
<trkpt lat="33.8092731" lon="-118.3944319">
  <ele>-45.028</ele>
  <time>2026-09-02T22:08:13Z</time>
  <course>181.29</course>
  <speed>0.9702061636580135</speed>
  <fix>3d</fix>
</trkpt>
<trkpt lat="33.8092749" lon="-118.3944317">
  <ele>-43.94</ele>
  <time>2026-09-02T22:08:13Z</time>
  <course>180.18</course>
  <speed>0.99</speed>
  <fix>3d</fix>
</trkpt>
<trkpt lat="33.8092722" lon="-118.3944319">
  <ele>-45.023</ele>
  <time>2026-09-02T22:08:13Z</time>
  <course>181.28</course>
  <speed>0.970051545022222</speed>
  <fix>3d</fix>
</trkpt>
<trkpt lat="33.8092731" lon="-118.3944317">
  <ele>-43.94</ele>
  <time>2026-09-02T22:08:13Z</time>
  <course>180.19</course>
  <speed>0.99</speed>
  <fix>3d</fix>
</trkpt>
<trkpt lat="33.8092713" lon="-118.3944319">
  <ele>-45.018</ele>
  <time>2026-09-02T22:08:13Z</time>
  <course>181.27</course>
  <speed>0.9702061636580135</speed>
  <fix>3d</fix>
</trkpt>
<trkpt lat="33.8092731" lon="-118.3944317">
  <ele>-43.94</ele>
  <time>2026-09-02T22:08:13Z</time>
  <course>180.19</course>
  <speed>0.99</speed>
  <fix>3d</fix>
</trkpt>
<trkpt lat="33.8092704" lon="-118.3944319">
  <ele>-45.01</ele>
  <time>2026-09-02T22:08:13Z</time>
  <course>181.27</course>
  <speed>0.970051545022222</speed>
  <fix>3d</fix>
</trkpt>
<trkpt lat="33.8092712" lon="-118.3944317">
  <ele>-43.93</ele>
  <time>2026-09-02T22:08:13Z</time>
  <course>180.21</course>
  <speed>0.99</speed>
  <fix>3d</fix>
</trkpt>
<trkpt lat="33.8092695" lon="-118.3944319">
  <ele>-45.001</ele>
  <time>2026-09-02T22:08:13Z</time>
  <course>181.26</course>
  <speed>0.9702061636580135</speed>
  <fix>3d</fix>
</trkpt>
<trkpt lat="33.8092712" lon="-118.3944317">
  <ele>-43.93</ele>
  <time>2026-09-02T22:08:13Z</time>
  <course>180.21</course>
  <speed>0.99</speed>
  <fix>3d</fix>
</trkpt>
<trkpt lat="33.8092686" lon="-118.3944319">
  <ele>-44.99</ele>
  <time>2026-09-02T22:08:13Z</time>
  <course>181.25</course>
  <speed>0.970051545022222</speed>
  <fix>3d</fix>
</trkpt>
<trkpt lat="33.8092695" lon="-118.3944317">
  <ele>-43.92</ele>
  <time>2026-09-02T22:08:13Z</time>
  <course>180.22</course>
  <speed>0.99</speed>
  <fix>3d</fix>
</trkpt>
<trkpt lat="33.8092677" lon="-118.3944319">
  <ele>-44.978</ele>
  <time>2026-09-02T22:08:13Z</time>
  <course>181.25</course>
  <speed>0.9702061636580135</speed>
  <fix>3d</fix>
</trkpt>
<trkpt lat="33.8092695" lon="-118.3944317">
  <ele>-43.92</ele>
  <time>2026-09-02T22:08:13Z</time>
  <course>180.22</course>
  <speed>0.99</speed>
  <fix>3d</fix>
</trkpt>
<trkpt lat="33.8092668" lon="-118.3944319">
  <ele>-44.966</ele>
  <time>2026-09-02T22:08:13Z</time>
  <course>181.25</course>
  <speed>0.970051545022222</speed>
  <fix>3d</fix>
</trkpt>
<trkpt lat="33.8092678" lon="-118.3944317">
  <ele>-43.9</ele>
  <time>2026-09-02T22:08:13Z</time>
  <course>180.24</course>
  <speed>0.99</speed>
  <fix>3d</fix>
</trkpt>
<trkpt lat="33.8092659" lon="-118.3944319">
  <ele>-44.954</ele>
  <time>2026-09-02T22:08:13Z</time>
  <course>181.24</course>
  <speed>0.9702061636580135</speed>
  <fix>3d</fix>
</trkpt>
<trkpt lat="33.8092678" lon="-118.3944317">
  <ele>-43.9</ele>
  <time>2026-09-02T22:08:13Z</time>
  <course>180.24</course>
  <speed>0.99</speed>
  <fix>3d</fix>
</trkpt>
<trkpt lat="33.809265" lon="-118.3944319">
  <ele>-44.945</ele>
  <time>2026-09-02T22:08:13Z</time>
  <course>181.24</course>
  <speed>0.970051545022222</speed>
  <fix>3d</fix>
</trkpt>
<trkpt lat="33.8092659" lon="-118.3944317">
  <ele>-43.87</ele>
  <time>2026-09-02T22:08:13Z</time>
  <course>180.25</course>
  <speed>0.99</speed>
  <fix>3d</fix>
</trkpt>
<trkpt lat="33.8092641" lon="-118.3944319">
  <ele>-44.942</ele>
  <time>2026-09-02T22:08:13Z</time>
  <course>181.23</course>
  <speed>0.970051545022222</speed>
  <fix>3d</fix>
</trkpt>
<trkpt lat="33.8092659" lon="-118.3944317">
  <ele>-43.87</ele>
  <time>2026-09-02T22:08:13Z</time>
  <course>180.25</course>
  <speed>0.99</speed>
  <fix>3d</fix>
</trkpt>
<trkpt lat="33.8092632" lon="-118.3944319">
  <ele>-44.944</ele>
  <time>2026-09-02T22:08:13Z</time>
  <course>181.23</course>
  <speed>0.970051545022222</speed>
  <fix>3d</fix>
</trkpt>
<trkpt lat="33.8092642" lon="-118.3944317">
  <ele>-43.86</ele>
  <time>2026-09-02T22:08:13Z</time>
  <course>180.25</course>
  <speed>0.99</speed>
  <fix>3d</fix>
</trkpt>
<trkpt lat="33.8092623" lon="-118.3944319">
  <ele>-44.95</ele>
  <time>2026-09-02T22:08:13Z</time>
  <course>181.23</course>
  <speed>0.9702061636580135</speed>
  <fix>3d</fix>
</trkpt>
<trkpt lat="33.8092642" lon="-118.3944317">
  <ele>-43.86</ele>
  <time>2026-09-02T22:08:13Z</time>
  <course>180.25</course>
  <speed>0.99</speed>
  <fix>3d</fix>
</trkpt>
<trkpt lat="33.8092614" lon="-118.3944319">
  <ele>-44.958</ele>
  <time>2026-09-02T22:08:13Z</time>
  <course>181.23</course>
  <speed>0.970051545022222</speed>
  <fix>3d</fix>
</trkpt>
<trkpt lat="33.8092623" lon="-118.3944317">
  <ele>-43.87</ele>
  <time>2026-09-02T22:08:13Z</time>
  <course>180.27</course>
  <speed>1.0</speed>
  <fix>3d</fix>
</trkpt>
<trkpt lat="33.8092605" lon="-118.3944319">
  <ele>-44.966</ele>
  <time>2026-09-02T22:08:13Z</time>
  <course>181.22</course>
  <speed>0.9702061636580135</speed>
  <fix>3d</fix>
</trkpt>
<trkpt lat="33.8092623" lon="-118.3944317">
  <ele>-43.87</ele>
  <time>2026-09-02T22:08:13Z</time>
  <course>180.27</course>
  <speed>1.0</speed>
  <fix>3d</fix>
</trkpt>
<trkpt lat="33.8092596" lon="-118.3944319">
  <ele>-44.973</ele>
  <time>2026-09-02T22:08:13Z</time>
  <course>181.22</course>
  <speed>0.970051545022222</speed>
  <fix>3d</fix>
</trkpt>
<trkpt lat="33.8092606" lon="-118.3944317">
  <ele>-43.88</ele>
  <time>2026-09-02T22:08:13Z</time>
  <course>180.29</course>
  <speed>1.0</speed>
  <fix>3d</fix>
</trkpt>
<trkpt lat="33.8092587" lon="-118.3944319">
  <ele>-44.979</ele>
  <time>2026-09-02T22:08:13Z</time>
  <course>181.22</course>
  <speed>0.9702061636580135</speed>
  <fix>3d</fix>
</trkpt>
<trkpt lat="33.8092606" lon="-118.3944317">
  <ele>-43.88</ele>
  <time>2026-09-02T22:08:13Z</time>
  <course>180.29</course>
  <speed>1.0</speed>
  <fix>3d</fix>
</trkpt>
<trkpt lat="33.8092578" lon="-118.3944319">
  <ele>-44.986</ele>
  <time>2026-09-02T22:08:13Z</time>
  <course>181.22</course>
  <speed>0.9600520819205591</speed>
  <fix>3d</fix>
</trkpt>
<trkpt lat="33.8092587" lon="-118.3944317">
  <ele>-43.9</ele>
  <time>2026-09-02T22:08:13Z</time>
  <course>180.31</course>
  <speed>0.99</speed>
  <fix>3d</fix>
</trkpt>
<trkpt lat="33.8092569" lon="-118.3944319">
  <ele>-44.994</ele>
  <time>2026-09-02T22:08:13Z</time>
  <course>181.21</course>
  <speed>0.9402127418834527</speed>
  <fix>3d</fix>
</trkpt>
<trkpt lat="33.8092587" lon="-118.3944317">
  <ele>-43.9</ele>
  <time>2026-09-02T22:08:13Z</time>
  <course>180.31</course>
  <speed>0.99</speed>
  <fix>3d</fix>
</trkpt>
<trkpt lat="33.8092561" lon="-118.3944319">
  <ele>-45.0</ele>
  <time>2026-09-02T22:08:13Z</time>
  <course>181.22</course>
  <speed>0.9100549433962765</speed>
  <fix>3d</fix>
</trkpt>
<trkpt lat="33.809257" lon="-118.3944317">
  <ele>-43.91</ele>
  <time>2026-09-02T22:08:13Z</time>
  <course>180.35</course>
  <speed>0.97</speed>
  <fix>3d</fix>
</trkpt>
<trkpt lat="33.8092553" lon="-118.3944319">
  <ele>-45.004</ele>
  <time>2026-09-02T22:08:13Z</time>
  <course>181.23</course>
  <speed>0.8702298546935746</speed>
  <fix>3d</fix>
</trkpt>
<trkpt lat="33.809257" lon="-118.3944317">
  <ele>-43.91</ele>
  <time>2026-09-02T22:08:13Z</time>
  <course>180.35</course>
  <speed>0.97</speed>
  <fix>3d</fix>
</trkpt>
<trkpt lat="33.8092545" lon="-118.3944319">
  <ele>-45.008</ele>
  <time>2026-09-02T22:08:13Z</time>
  <course>181.26</course>
  <speed>0.8300602387778854</speed>
  <fix>3d</fix>
</trkpt>
<trkpt lat="33.8092553" lon="-118.3944318">
  <ele>-43.92</ele>
  <time>2026-09-02T22:08:13Z</time>
  <course>180.41</course>
  <speed>0.92</speed>
  <fix>3d</fix>
</trkpt>
<trkpt lat="33.8092537" lon="-118.3944319">
  <ele>-45.01</ele>
  <time>2026-09-02T22:08:13Z</time>
  <course>181.29</course>
  <speed>0.7800640999302557</speed>
  <fix>3d</fix>
</trkpt>
<trkpt lat="33.8092553" lon="-118.3944318">
  <ele>-43.92</ele>
  <time>2026-09-02T22:08:13Z</time>
  <course>180.41</course>
  <speed>0.92</speed>
  <fix>3d</fix>
</trkpt>
<trkpt lat="33.809253" lon="-118.3944319">
  <ele>-45.009</ele>
  <time>2026-09-02T22:08:13Z</time>
  <course>181.33</course>
  <speed>0.7200694410957876</speed>
  <fix>3d</fix>
</trkpt>
<trkpt lat="33.8092537" lon="-118.3944318">
  <ele>-43.93</ele>
  <time>2026-09-02T22:08:13Z</time>
  <course>180.49</course>
  <speed>0.83</speed>
  <fix>3d</fix>
</trkpt>
<trkpt lat="33.8092524" lon="-118.3944319">
  <ele>-45.007</ele>
  <time>2026-09-02T22:08:13Z</time>
  <course>181.36</course>
  <speed>0.6500769185258002</speed>
  <fix>3d</fix>
</trkpt>
<trkpt lat="33.8092537" lon="-118.3944318">
  <ele>-43.93</ele>
  <time>2026-09-02T22:08:13Z</time>
  <course>180.49</course>
  <speed>0.83</speed>
  <fix>3d</fix>
</trkpt>
<trkpt lat="33.8092518" lon="-118.3944319">
  <ele>-45.005</ele>
  <time>2026-09-02T22:08:13Z</time>
  <course>181.42</course>
  <speed>0.5800862004909271</speed>
  <fix>3d</fix>
</trkpt>
<trkpt lat="33.8092523" lon="-118.3944318">
  <ele>-43.93</ele>
  <time>2026-09-02T22:08:13Z</time>
  <course>180.55</course>
  <speed>0.72</speed>
  <fix>3d</fix>
</trkpt>
<trkpt lat="33.8092513" lon="-118.3944319">
  <ele>-45.001</ele>
  <time>2026-09-02T22:08:13Z</time>
  <course>181.5</course>
  <speed>0.510098029794274</speed>
  <fix>3d</fix>
</trkpt>
<trkpt lat="33.8092523" lon="-118.3944318">
  <ele>-43.93</ele>
  <time>2026-09-02T22:08:13Z</time>
  <course>180.55</course>
  <speed>0.72</speed>
  <fix>3d</fix>
</trkpt>
<trkpt lat="33.8092508" lon="-118.3944319">
  <ele>-44.999</ele>
  <time>2026-09-02T22:08:13Z</time>
  <course>181.65</course>
  <speed>0.44011362169330775</speed>
  <fix>3d</fix>
</trkpt>
<trkpt lat="33.8092511" lon="-118.3944318">
  <ele>-43.93</ele>
  <time>2026-09-02T22:08:13Z</time>
  <course>180.68</course>
  <speed>0.58</speed>
  <fix>3d</fix>
</trkpt>
<trkpt lat="33.8092504" lon="-118.3944319">
  <ele>-44.996</ele>
  <time>2026-09-02T22:08:13Z</time>
  <course>181.89</course>
  <speed>0.38013155617496425</speed>
  <fix>3d</fix>
</trkpt>
<trkpt lat="33.8092511" lon="-118.3944318">
  <ele>-43.93</ele>
  <time>2026-09-02T22:08:13Z</time>
  <course>180.68</course>
  <speed>0.58</speed>
  <fix>3d</fix>
</trkpt>
<trkpt lat="33.80925" lon="-118.3944319">
  <ele>-44.995</ele>
  <time>2026-09-02T22:08:13Z</time>
  <course>182.29</course>
  <speed>0.3301514803843835</speed>
  <fix>3d</fix>
</trkpt>
<trkpt lat="33.8092501" lon="-118.3944318">
  <ele>-43.93</ele>
  <time>2026-09-02T22:08:13Z</time>
  <course>180.87</course>
  <speed>0.45</speed>
  <fix>3d</fix>
</trkpt>
<trkpt lat="33.8092497" lon="-118.3944319">
  <ele>-44.994</ele>
  <time>2026-09-02T22:08:13Z</time>
  <course>182.89</course>
  <speed>0.280178514522438</speed>
  <fix>3d</fix>
</trkpt>
<trkpt lat="33.8092501" lon="-118.3944318">
  <ele>-43.93</ele>
  <time>2026-09-02T22:08:13Z</time>
  <course>180.87</course>
  <speed>0.45</speed>
  <fix>3d</fix>
</trkpt>
<trkpt lat="33.8092495" lon="-118.3944319">
  <ele>-44.988</ele>
  <time>2026-09-02T22:08:13Z</time>
  <course>183.37</course>
  <speed>0.24020824298928628</speed>
  <fix>3d</fix>
</trkpt>
<trkpt lat="33.8092494" lon="-118.3944318">
  <ele>-43.92</ele>
  <time>2026-09-02T22:08:13Z</time>
  <course>180.98</course>
  <speed>0.33</speed>
  <fix>3d</fix>
</trkpt>
<trkpt lat="33.8092492" lon="-118.3944319">
  <ele>-44.981</ele>
  <time>2026-09-02T22:08:13Z</time>
  <course>183.5</course>
  <speed>0.2102379604162864</speed>
  <fix>3d</fix>
</trkpt>
<trkpt lat="33.8092494" lon="-118.3944318">
  <ele>-43.92</ele>
  <time>2026-09-02T22:08:13Z</time>
  <course>180.98</course>
  <speed>0.33</speed>
  <fix>3d</fix>
</trkpt>
<trkpt lat="33.809249" lon="-118.3944319">
  <ele>-44.976</ele>
  <time>2026-09-02T22:08:13Z</time>
  <course>183.9</course>
  <speed>0.17029386365926402</speed>
  <fix>3d</fix>
</trkpt>
<trkpt lat="33.8092489" lon="-118.3944319">
  <ele>-43.91</ele>
  <time>2026-09-02T22:08:13Z</time>
  <course>181.15</course>
  <speed>0.25</speed>
  <fix>3d</fix>
</trkpt>
<trkpt lat="33.8092488" lon="-118.3944319">
  <ele>-44.971</ele>
  <time>2026-09-02T22:08:13Z</time>
  <course>185.73</course>
  <speed>0.130384048104053</speed>
  <fix>3d</fix>
</trkpt>
<trkpt lat="33.8092489" lon="-118.3944319">
  <ele>-43.91</ele>
  <time>2026-09-02T22:08:13Z</time>
  <course>181.15</course>
  <speed>0.25</speed>
  <fix>3d</fix>
</trkpt>
<trkpt lat="33.8092487" lon="-118.3944319">
  <ele>-44.965</ele>
  <time>2026-09-02T22:08:13Z</time>
  <course>188.55</course>
  <speed>0.09055385138137417</speed>
  <fix>3d</fix>
</trkpt>
<trkpt lat="33.8092485" lon="-118.3944319">
  <ele>-43.9</ele>
  <time>2026-09-02T22:08:13Z</time>
  <course>182.02</course>
  <speed>0.17</speed>
  <fix>3d</fix>
</trkpt>
<trkpt lat="33.8092486" lon="-118.3944319">
  <ele>-44.962</ele>
  <time>2026-09-02T22:08:13Z</time>
  <course>191.88</course>
  <speed>0.07071067811865475</speed>
  <fix>3d</fix>
</trkpt>
<trkpt lat="33.8092485" lon="-118.3944319">
  <ele>-43.9</ele>
  <time>2026-09-02T22:08:13Z</time>
  <course>182.02</course>
  <speed>0.17</speed>
  <fix>3d</fix>
</trkpt>
<trkpt lat="33.8092485" lon="-118.3944319">
  <ele>-44.96</ele>
  <time>2026-09-02T22:08:13Z</time>
  <course>195.47</course>
  <speed>0.0412310562561766</speed>
  <fix>3d</fix>
</trkpt>
<trkpt lat="33.8092483" lon="-118.3944319">
  <ele>-43.88</ele>
  <time>2026-09-02T22:08:13Z</time>
  <course>183.5</course>
  <speed>0.1</speed>
  <fix>3d</fix>
</trkpt>
<trkpt lat="33.8092484" lon="-118.3944319">
  <ele>-44.96</ele>
  <time>2026-09-02T22:08:13Z</time>
  <course>198.91</course>
  <speed>0.0316227766016838</speed>
  <fix>3d</fix>
</trkpt>
<trkpt lat="33.8092483" lon="-118.3944319">
  <ele>-43.88</ele>
  <time>2026-09-02T22:08:13Z</time>
  <course>183.5</course>
  <speed>0.1</speed>
  <fix>3d</fix>
</trkpt>
<trkpt lat="33.8092484" lon="-118.3944319">
  <ele>-44.962</ele>
  <time>2026-09-02T22:08:13Z</time>
  <course>200.97</course>
  <speed>0.02</speed>
  <fix>3d</fix>
</trkpt>
<trkpt lat="33.8092481" lon="-118.3944319">
  <ele>-43.88</ele>
  <time>2026-09-02T22:08:13Z</time>
  <course>183.45</course>
  <speed>0.05</speed>
  <fix>3d</fix>
</trkpt>
<trkpt lat="33.8092484" lon="-118.3944319">
  <ele>-44.962</ele>
  <time>2026-09-02T22:08:13Z</time>
  <course>201.01</course>
  <speed>0.02</speed>
  <fix>3d</fix>
</trkpt>
<trkpt lat="33.8092483" lon="-118.3944319">
  <ele>-44.964</ele>
  <time>2026-09-02T22:08:13Z</time>
  <course>201.92</course>
  <speed>0.01</speed>
  <fix>3d</fix>
</trkpt>
<trkpt lat="33.8092481" lon="-118.3944319">
  <ele>-43.88</ele>
  <time>2026-09-02T22:08:13Z</time>
  <course>183.45</course>
  <speed>0.05</speed>
  <fix>3d</fix>
</trkpt>
<trkpt lat="33.8092483" lon="-118.3944319">
  <ele>-44.968</ele>
  <time>2026-09-02T22:08:13Z</time>
  <course>202.15</course>
  <speed>0.01</speed>
  <fix>3d</fix>
</trkpt>
<trkpt lat="33.8092481" lon="-118.3944319">
  <ele>-43.89</ele>
  <time>2026-09-02T22:08:13Z</time>
  <course>168.41</course>
  <speed>0.03</speed>
  <fix>3d</fix>
</trkpt>
<trkpt lat="33.8092483" lon="-118.3944319">
  <ele>-44.972</ele>
  <time>2026-09-02T22:08:13Z</time>
  <course>202.36</course>
  <speed>0.01</speed>
  <fix>3d</fix>
</trkpt>
<trkpt lat="33.8092481" lon="-118.3944319">
  <ele>-43.89</ele>
  <time>2026-09-02T22:08:13Z</time>
  <course>168.41</course>
  <speed>0.03</speed>
  <fix>3d</fix>
</trkpt>
<trkpt lat="33.8092482" lon="-118.3944319">
  <ele>-44.975</ele>
  <time>2026-09-02T22:08:13Z</time>
  <course>202.55</course>
  <speed>0.01</speed>
  <fix>3d</fix>
</trkpt>
<trkpt lat="33.809248" lon="-118.3944319">
  <ele>-43.89</ele>
  <time>2026-09-02T22:08:13Z</time>
  <course>149.43</course>
  <speed>0.02</speed>
  <fix>3d</fix>
</trkpt>
<trkpt lat="33.8092482" lon="-118.3944319">
  <ele>-44.977</ele>
  <time>2026-09-02T22:08:13Z</time>
  <course>202.73</course>
  <speed>0.01</speed>
  <fix>3d</fix>
</trkpt>
<trkpt lat="33.809248" lon="-118.3944319">
  <ele>-43.89</ele>
  <time>2026-09-02T22:08:13Z</time>
  <course>149.43</course>
  <speed>0.02</speed>
  <fix>3d</fix>
</trkpt>
<trkpt lat="33.8092482" lon="-118.3944319">
  <ele>-44.978</ele>
  <time>2026-09-02T22:08:13Z</time>
  <course>202.89</course>
  <speed>0.01</speed>
  <fix>3d</fix>
</trkpt>
<trkpt lat="33.8092479" lon="-118.3944319">
  <ele>-43.9</ele>
  <time>2026-09-02T22:08:13Z</time>
  <course>149.72</course>
  <speed>0.02</speed>
  <fix>3d</fix>
</trkpt>
<trkpt lat="33.8092481" lon="-118.3944319">
  <ele>-44.978</ele>
  <time>2026-09-02T22:08:13Z</time>
  <course>203.04</course>
  <speed>0.01</speed>
  <fix>3d</fix>
</trkpt>
<trkpt lat="33.8092479" lon="-118.3944319">
  <ele>-43.9</ele>
  <time>2026-09-02T22:08:13Z</time>
  <course>149.72</course>
  <speed>0.02</speed>
  <fix>3d</fix>
</trkpt>
<trkpt lat="33.8092481" lon="-118.3944319">
  <ele>-44.977</ele>
  <time>2026-09-02T22:08:13Z</time>
  <course>203.19</course>
  <speed>0.01</speed>
  <fix>3d</fix>
</trkpt>
<trkpt lat="33.8092479" lon="-118.3944319">
  <ele>-43.9</ele>
  <time>2026-09-02T22:08:13Z</time>
  <course>149.99</course>
  <speed>0.02</speed>
  <fix>3d</fix>
</trkpt>
<trkpt lat="33.8092481" lon="-118.3944319">
  <ele>-44.976</ele>
  <time>2026-09-02T22:08:13Z</time>
  <course>203.32</course>
  <speed>0.01</speed>
  <fix>3d</fix>
</trkpt>
<trkpt lat="33.8092479" lon="-118.3944319">
  <ele>-43.9</ele>
  <time>2026-09-02T22:08:13Z</time>
  <course>149.99</course>
  <speed>0.02</speed>
  <fix>3d</fix>
</trkpt>
<trkpt lat="33.809248" lon="-118.3944319">
  <ele>-44.974</ele>
  <time>2026-09-02T22:08:13Z</time>
  <course>203.45</course>
  <speed>0.01</speed>
  <fix>3d</fix>
</trkpt>
<trkpt lat="33.8092479" lon="-118.3944319">
  <ele>-43.9</ele>
  <time>2026-09-02T22:08:13Z</time>
  <course>150.25</course>
  <speed>0.02</speed>
  <fix>3d</fix>
</trkpt>
<trkpt lat="33.809248" lon="-118.3944319">
  <ele>-44.972</ele>
  <time>2026-09-02T22:08:13Z</time>
  <course>203.57</course>
  <speed>0.01</speed>
  <fix>3d</fix>
</trkpt>
<trkpt lat="33.8092479" lon="-118.3944319">
  <ele>-43.9</ele>
  <time>2026-09-02T22:08:13Z</time>
  <course>150.25</course>
  <speed>0.02</speed>
  <fix>3d</fix>
</trkpt>
<trkpt lat="33.809248" lon="-118.3944319">
  <ele>-44.968</ele>
  <time>2026-09-02T22:08:13Z</time>
  <course>203.68</course>
  <speed>0.01</speed>
  <fix>3d</fix>
</trkpt>
<trkpt lat="33.8092478" lon="-118.3944318">
  <ele>-43.89</ele>
  <time>2026-09-02T22:08:13Z</time>
  <course>150.49</course>
  <speed>0.02</speed>
  <fix>3d</fix>
</trkpt>
<trkpt lat="33.809248" lon="-118.3944319">
  <ele>-44.963</ele>
  <time>2026-09-02T22:08:13Z</time>
  <course>203.79</course>
  <speed>0.01</speed>
  <fix>3d</fix>
</trkpt>
<trkpt lat="33.8092478" lon="-118.3944318">
  <ele>-43.89</ele>
  <time>2026-09-02T22:08:13Z</time>
  <course>150.49</course>
  <speed>0.02</speed>
  <fix>3d</fix>
</trkpt>
<trkpt lat="33.8092479" lon="-118.3944319">
  <ele>-44.958</ele>
  <time>2026-09-02T22:08:13Z</time>
  <course>203.89</course>
  <speed>0.01</speed>
  <fix>3d</fix>
</trkpt>
<trkpt lat="33.8092478" lon="-118.3944318">
  <ele>-43.89</ele>
  <time>2026-09-02T22:08:13Z</time>
  <course>150.72</course>
  <speed>0.02</speed>
  <fix>3d</fix>
</trkpt>
<trkpt lat="33.8092479" lon="-118.3944319">
  <ele>-44.952</ele>
  <time>2026-09-02T22:08:13Z</time>
  <course>203.99</course>
  <speed>0.01</speed>
  <fix>3d</fix>
</trkpt>
<trkpt lat="33.8092478" lon="-118.3944318">
  <ele>-43.89</ele>
  <time>2026-09-02T22:08:13Z</time>
  <course>150.72</course>
  <speed>0.02</speed>
  <fix>3d</fix>
</trkpt>
<trkpt lat="33.8092479" lon="-118.3944319">
  <ele>-44.946</ele>
  <time>2026-09-02T22:08:13Z</time>
  <course>204.09</course>
  <speed>0.01</speed>
  <fix>3d</fix>
</trkpt>
<trkpt lat="33.8092478" lon="-118.3944318">
  <ele>-43.88</ele>
  <time>2026-09-02T22:08:13Z</time>
  <course>150.97</course>
  <speed>0.02</speed>
  <fix>3d</fix>
</trkpt>
<trkpt lat="33.8092479" lon="-118.3944319">
  <ele>-44.94</ele>
  <time>2026-09-02T22:08:13Z</time>
  <course>204.18</course>
  <speed>0.0</speed>
  <fix>3d</fix>
</trkpt>
<trkpt lat="33.8092478" lon="-118.3944318">
  <ele>-43.88</ele>
  <time>2026-09-02T22:08:13Z</time>
  <course>150.97</course>
  <speed>0.02</speed>
  <fix>3d</fix>
</trkpt>
<trkpt lat="33.8092479" lon="-118.3944319">
  <ele>-44.933</ele>
  <time>2026-09-02T22:08:13Z</time>
  <course>204.27</course>
  <speed>0.01</speed>
  <fix>3d</fix>
</trkpt>
<trkpt lat="33.8092478" lon="-118.3944318">
  <ele>-43.87</ele>
  <time>2026-09-02T22:08:13Z</time>
  <course>151.23</course>
  <speed>0.02</speed>
  <fix>3d</fix>
</trkpt>
<trkpt lat="33.8092479" lon="-118.3944319">
  <ele>-44.928</ele>
  <time>2026-09-02T22:08:13Z</time>
  <course>204.35</course>
  <speed>0.01</speed>
  <fix>3d</fix>
</trkpt>
<trkpt lat="33.8092478" lon="-118.3944318">
  <ele>-43.87</ele>
  <time>2026-09-02T22:08:13Z</time>
  <course>151.23</course>
  <speed>0.02</speed>
  <fix>3d</fix>
</trkpt>
<trkpt lat="33.8092478" lon="-118.3944319">
  <ele>-44.922</ele>
  <time>2026-09-02T22:08:13Z</time>
  <course>204.43</course>
  <speed>0.01</speed>
  <fix>3d</fix>
</trkpt>
<trkpt lat="33.8092477" lon="-118.3944318">
  <ele>-43.86</ele>
  <time>2026-09-02T22:08:13Z</time>
  <course>151.48</course>
  <speed>0.02</speed>
  <fix>3d</fix>
</trkpt>
<trkpt lat="33.8092478" lon="-118.3944319">
  <ele>-44.916</ele>
  <time>2026-09-02T22:08:13Z</time>
  <course>204.51</course>
  <speed>0.01</speed>
  <fix>3d</fix>
</trkpt>
<trkpt lat="33.8092477" lon="-118.3944318">
  <ele>-43.86</ele>
  <time>2026-09-02T22:08:13Z</time>
  <course>151.48</course>
  <speed>0.02</speed>
  <fix>3d</fix>
</trkpt>
<trkpt lat="33.8092478" lon="-118.3944319">
  <ele>-44.91</ele>
  <time>2026-09-02T22:08:13Z</time>
  <course>204.59</course>
  <speed>0.01</speed>
  <fix>3d</fix>
</trkpt>
<trkpt lat="33.8092477" lon="-118.3944317">
  <ele>-43.84</ele>
  <time>2026-09-02T22:08:13Z</time>
  <course>151.71</course>
  <speed>0.02</speed>
  <fix>3d</fix>
</trkpt>
<trkpt lat="33.8092478" lon="-118.3944319">
  <ele>-44.903</ele>
  <time>2026-09-02T22:08:13Z</time>
  <course>204.66</course>
  <speed>0.01</speed>
  <fix>3d</fix>
</trkpt>
<trkpt lat="33.8092477" lon="-118.3944317">
  <ele>-43.84</ele>
  <time>2026-09-02T22:08:13Z</time>
  <course>151.71</course>
  <speed>0.02</speed>
  <fix>3d</fix>
</trkpt>
<trkpt lat="33.8092478" lon="-118.3944319">
  <ele>-44.896</ele>
  <time>2026-09-02T22:08:13Z</time>
  <course>204.73</course>
  <speed>0.01</speed>
  <fix>3d</fix>
</trkpt>
<trkpt lat="33.8092477" lon="-118.3944317">
  <ele>-43.83</ele>
  <time>2026-09-02T22:08:13Z</time>
  <course>151.91</course>
  <speed>0.02</speed>
  <fix>3d</fix>
</trkpt>
<trkpt lat="33.8092478" lon="-118.3944319">
  <ele>-44.888</ele>
  <time>2026-09-02T22:08:13Z</time>
  <course>204.8</course>
  <speed>0.01</speed>
  <fix>3d</fix>
</trkpt>
<trkpt lat="33.8092477" lon="-118.3944317">
  <ele>-43.83</ele>
  <time>2026-09-02T22:08:13Z</time>
  <course>151.91</course>
  <speed>0.02</speed>
  <fix>3d</fix>
</trkpt>
<trkpt lat="33.8092478" lon="-118.3944319">
  <ele>-44.879</ele>
  <time>2026-09-02T22:08:13Z</time>
  <course>204.87</course>
  <speed>0.01</speed>
  <fix>3d</fix>
</trkpt>
<trkpt lat="33.8092476" lon="-118.3944317">
  <ele>-43.82</ele>
  <time>2026-09-02T22:08:13Z</time>
  <course>152.12</course>
  <speed>0.02</speed>
  <fix>3d</fix>
</trkpt>
<trkpt lat="33.8092477" lon="-118.3944319">
  <ele>-44.87</ele>
  <time>2026-09-02T22:08:13Z</time>
  <course>204.94</course>
  <speed>0.01</speed>
  <fix>3d</fix>
</trkpt>
<trkpt lat="33.8092476" lon="-118.3944317">
  <ele>-43.82</ele>
  <time>2026-09-02T22:08:13Z</time>
  <course>152.12</course>
  <speed>0.02</speed>
  <fix>3d</fix>
</trkpt>
<trkpt lat="33.4368002" lon="-117.0859339">
  <ele>-0.11</ele>
  <time>2026-09-02T22:08:14Z</time>
  <course>0.0</course>
  <speed>0.0</speed>
  <fix>3d</fix>
</trkpt>
<trkpt lat="33.4368002" lon="-117.0859339">
  <ele>-0.11</ele>
  <time>2026-09-02T22:08:14Z</time>
  <course>0.0</course>
  <speed>0.0</speed>
  <fix>3d</fix>
</trkpt>
<trkpt lat="33.810313" lon="-118.393867">
  <ele>0.0</ele>
  <time>2026-09-02T22:08:14Z</time>
  <course>173.5</course>
  <speed>0.0</speed>
  <fix>3d</fix>
</trkpt>
<trkpt lat="33.810313" lon="-118.393867">
  <ele>-0.11</ele>
  <time>2026-09-02T22:08:14Z</time>
  <course>0.0</course>
  <speed>0.0</speed>
  <fix>3d</fix>
</trkpt>
<trkpt lat="33.4368002" lon="-117.0859339">
  <ele>-0.11</ele>
  <time>2026-09-02T22:08:14Z</time>
  <course>0.0</course>
  <speed>0.0</speed>
  <fix>3d</fix>
</trkpt>
<trkpt lat="33.4368002" lon="-117.0859339">
  <ele>-0.11</ele>
  <time>2026-09-02T22:08:14Z</time>
  <course>0.0</course>
  <speed>0.0</speed>
  <fix>3d</fix>
</trkpt>
<trkpt lat="33.810313" lon="-118.393867">
  <ele>0.0</ele>
  <time>2026-09-02T22:08:14Z</time>
  <course>173.5</course>
  <speed>0.0</speed>
  <fix>3d</fix>
</trkpt>
<trkpt lat="33.810313" lon="-118.393867">
  <ele>-0.11</ele>
  <time>2026-09-02T22:08:14Z</time>
  <course>0.0</course>
  <speed>0.0</speed>
  <fix>3d</fix>
</trkpt>
<trkpt lat="33.810313" lon="-118.393867">
  <ele>0.0</ele>
  <time>2026-09-02T22:08:14Z</time>
  <course>173.64</course>
  <speed>0.0</speed>
  <fix>3d</fix>
</trkpt>
<trkpt lat="33.810313" lon="-118.393867">
  <ele>-0.11</ele>
  <time>2026-09-02T22:08:14Z</time>
  <course>0.0</course>
  <speed>0.0</speed>
  <fix>3d</fix>
</trkpt>
<trkpt lat="33.810313" lon="-118.393867">
  <ele>0.0</ele>
  <time>2026-09-02T22:08:14Z</time>
  <course>174.03</course>
  <speed>0.0</speed>
  <fix>3d</fix>
</trkpt>
<trkpt lat="33.810313" lon="-118.393867">
  <ele>-0.11</ele>
  <time>2026-09-02T22:08:14Z</time>
  <course>0.0</course>
  <speed>0.0</speed>
  <fix>3d</fix>
</trkpt>
<trkpt lat="33.810313" lon="-118.393867">
  <ele>0.0</ele>
  <time>2026-09-02T22:08:14Z</time>
  <course>174.57</course>
  <speed>0.0</speed>
  <fix>3d</fix>
</trkpt>
<trkpt lat="33.810313" lon="-118.393867">
  <ele>-0.11</ele>
  <time>2026-09-02T22:08:14Z</time>
  <course>0.0</course>
  <speed>0.0</speed>
  <fix>3d</fix>
</trkpt>
<trkpt lat="33.810313" lon="-118.393867">
  <ele>0.0</ele>
  <time>2026-09-02T22:08:14Z</time>
  <course>175.13</course>
  <speed>0.0</speed>
  <fix>3d</fix>
</trkpt>
<trkpt lat="33.810313" lon="-118.393867">
  <ele>-0.12</ele>
  <time>2026-09-02T22:08:14Z</time>
  <course>0.0</course>
  <speed>0.0</speed>
  <fix>3d</fix>
</trkpt>
<trkpt lat="33.810313" lon="-118.393867">
  <ele>0.0</ele>
  <time>2026-09-02T22:08:14Z</time>
  <course>175.67</course>
  <speed>0.0</speed>
  <fix>3d</fix>
</trkpt>
<trkpt lat="33.810313" lon="-118.393867">
  <ele>-0.12</ele>
  <time>2026-09-02T22:08:14Z</time>
  <course>0.0</course>
  <speed>0.0</speed>
  <fix>3d</fix>
</trkpt>
<trkpt lat="33.810313" lon="-118.393867">
  <ele>0.0</ele>
  <time>2026-09-02T22:08:14Z</time>
  <course>176.17</course>
  <speed>0.0</speed>
  <fix>3d</fix>
</trkpt>
<trkpt lat="33.810313" lon="-118.393867">
  <ele>-0.13</ele>
  <time>2026-09-02T22:08:14Z</time>
  <course>0.0</course>
  <speed>0.0</speed>
  <fix>3d</fix>
</trkpt>
<trkpt lat="33.810313" lon="-118.393867">
  <ele>0.0</ele>
  <time>2026-09-02T22:08:14Z</time>
  <course>176.65</course>
  <speed>0.0</speed>
  <fix>3d</fix>
</trkpt>
<trkpt lat="33.810313" lon="-118.393867">
  <ele>-0.13</ele>
  <time>2026-09-02T22:08:14Z</time>
  <course>0.0</course>
  <speed>0.0</speed>
  <fix>3d</fix>
</trkpt>
<trkpt lat="33.810313" lon="-118.393867">
  <ele>0.0</ele>
  <time>2026-09-02T22:08:14Z</time>
  <course>177.12</course>
  <speed>0.0</speed>
  <fix>3d</fix>
</trkpt>
<trkpt lat="33.810313" lon="-118.393867">
  <ele>-0.13</ele>
  <time>2026-09-02T22:08:14Z</time>
  <course>0.0</course>
  <speed>0.0</speed>
  <fix>3d</fix>
</trkpt>
<trkpt lat="33.810313" lon="-118.393867">
  <ele>0.0</ele>
  <time>2026-09-02T22:08:14Z</time>
  <course>177.57</course>
  <speed>0.0</speed>
  <fix>3d</fix>
</trkpt>
<trkpt lat="33.810313" lon="-118.393867">
  <ele>-0.13</ele>
  <time>2026-09-02T22:08:14Z</time>
  <course>0.0</course>
  <speed>0.0</speed>
  <fix>3d</fix>
</trkpt>
<trkpt lat="33.810313" lon="-118.393867">
  <ele>0.0</ele>
  <time>2026-09-02T22:08:14Z</time>
  <course>178.02</course>
  <speed>0.0</speed>
  <fix>3d</fix>
</trkpt>
<trkpt lat="33.810313" lon="-118.393867">
  <ele>-0.14</ele>
  <time>2026-09-02T22:08:14Z</time>
  <course>0.0</course>
  <speed>0.0</speed>
  <fix>3d</fix>
</trkpt>
<trkpt lat="33.810313" lon="-118.393867">
  <ele>0.0</ele>
  <time>2026-09-02T22:08:14Z</time>
  <course>178.45</course>
  <speed>0.0</speed>
  <fix>3d</fix>
</trkpt>
<trkpt lat="33.810313" lon="-118.393867">
  <ele>-0.14</ele>
  <time>2026-09-02T22:08:14Z</time>
  <course>0.0</course>
  <speed>0.0</speed>
  <fix>3d</fix>
</trkpt>
<trkpt lat="33.810313" lon="-118.393867">
  <ele>0.0</ele>
  <time>2026-09-02T22:08:14Z</time>
  <course>178.87</course>
  <speed>0.0</speed>
  <fix>3d</fix>
</trkpt>
<trkpt lat="33.810313" lon="-118.393867">
  <ele>-0.14</ele>
  <time>2026-09-02T22:08:14Z</time>
  <course>0.0</course>
  <speed>0.0</speed>
  <fix>3d</fix>
</trkpt>
<trkpt lat="33.810313" lon="-118.393867">
  <ele>0.0</ele>
  <time>2026-09-02T22:08:14Z</time>
  <course>179.27</course>
  <speed>0.0</speed>
  <fix>3d</fix>
</trkpt>
<trkpt lat="33.810313" lon="-118.393867">
  <ele>-0.14</ele>
  <time>2026-09-02T22:08:14Z</time>
  <course>0.0</course>
  <speed>0.0</speed>
  <fix>3d</fix>
</trkpt>
<trkpt lat="33.810313" lon="-118.393867">
  <ele>0.0</ele>
  <time>2026-09-02T22:08:14Z</time>
  <course>179.66</course>
  <speed>0.0</speed>
  <fix>3d</fix>
</trkpt>
<trkpt lat="33.810313" lon="-118.393867">
  <ele>-0.14</ele>
  <time>2026-09-02T22:08:14Z</time>
  <course>0.0</course>
  <speed>0.0</speed>
  <fix>3d</fix>
</trkpt>
<trkpt lat="33.810313" lon="-118.393867">
  <ele>0.0</ele>
  <time>2026-09-02T22:08:14Z</time>
  <course>180.05</course>
  <speed>0.0</speed>
  <fix>3d</fix>
</trkpt>
<trkpt lat="33.810313" lon="-118.393867">
  <ele>-0.14</ele>
  <time>2026-09-02T22:08:14Z</time>
  <course>0.0</course>
  <speed>0.0</speed>
  <fix>3d</fix>
</trkpt>
<trkpt lat="33.810313" lon="-118.393867">
  <ele>0.0</ele>
  <time>2026-09-02T22:08:14Z</time>
  <course>180.41</course>
  <speed>0.0</speed>
  <fix>3d</fix>
</trkpt>
<trkpt lat="33.810313" lon="-118.393867">
  <ele>-0.14</ele>
  <time>2026-09-02T22:08:14Z</time>
  <course>0.0</course>
  <speed>0.0</speed>
  <fix>3d</fix>
</trkpt>
<trkpt lat="33.810313" lon="-118.393867">
  <ele>0.0</ele>
  <time>2026-09-02T22:08:14Z</time>
  <course>180.76</course>
  <speed>0.0</speed>
  <fix>3d</fix>
</trkpt>
<trkpt lat="33.810313" lon="-118.393867">
  <ele>-0.14</ele>
  <time>2026-09-02T22:08:14Z</time>
  <course>0.0</course>
  <speed>0.0</speed>
  <fix>3d</fix>
</trkpt>
<trkpt lat="33.810313" lon="-118.393867">
  <ele>0.0</ele>
  <time>2026-09-02T22:08:14Z</time>
  <course>181.1</course>
  <speed>0.0</speed>
  <fix>3d</fix>
</trkpt>
<trkpt lat="33.810313" lon="-118.393867">
  <ele>-0.13</ele>
  <time>2026-09-02T22:08:14Z</time>
  <course>0.0</course>
  <speed>0.0</speed>
  <fix>3d</fix>
</trkpt>
<trkpt lat="33.810313" lon="-118.393867">
  <ele>0.0</ele>
  <time>2026-09-02T22:08:14Z</time>
  <course>181.43</course>
  <speed>0.0</speed>
  <fix>3d</fix>
</trkpt>
<trkpt lat="33.810313" lon="-118.393867">
  <ele>-0.13</ele>
  <time>2026-09-02T22:08:14Z</time>
  <course>0.0</course>
  <speed>0.0</speed>
  <fix>3d</fix>
</trkpt>
<trkpt lat="33.810313" lon="-118.393867">
  <ele>0.0</ele>
  <time>2026-09-02T22:08:14Z</time>
  <course>181.75</course>
  <speed>0.0</speed>
  <fix>3d</fix>
</trkpt>
<trkpt lat="33.810313" lon="-118.393867">
  <ele>-0.12</ele>
  <time>2026-09-02T22:08:14Z</time>
  <course>0.0</course>
  <speed>0.0</speed>
  <fix>3d</fix>
</trkpt>
<trkpt lat="33.810313" lon="-118.393867">
  <ele>0.0</ele>
  <time>2026-09-02T22:08:14Z</time>
  <course>182.05</course>
  <speed>0.0</speed>
  <fix>3d</fix>
</trkpt>
<trkpt lat="33.810313" lon="-118.393867">
  <ele>-0.12</ele>
  <time>2026-09-02T22:08:14Z</time>
  <course>0.0</course>
  <speed>0.0</speed>
  <fix>3d</fix>
</trkpt>
<trkpt lat="33.810313" lon="-118.393867">
  <ele>0.0</ele>
  <time>2026-09-02T22:08:14Z</time>
  <course>182.35</course>
  <speed>0.0</speed>
  <fix>3d</fix>
</trkpt>
<trkpt lat="33.810313" lon="-118.393867">
  <ele>-0.12</ele>
  <time>2026-09-02T22:08:14Z</time>
  <course>0.0</course>
  <speed>0.0</speed>
  <fix>3d</fix>
</trkpt>
<trkpt lat="33.810313" lon="-118.393867">
  <ele>0.0</ele>
  <time>2026-09-02T22:08:14Z</time>
  <course>182.63</course>
  <speed>0.0</speed>
  <fix>3d</fix>
</trkpt>
<trkpt lat="33.810313" lon="-118.393867">
  <ele>-0.12</ele>
  <time>2026-09-02T22:08:14Z</time>
  <course>0.0</course>
  <speed>0.0</speed>
  <fix>3d</fix>
</trkpt>
<trkpt lat="33.810313" lon="-118.393867">
  <ele>0.0</ele>
  <time>2026-09-02T22:08:14Z</time>
  <course>182.9</course>
  <speed>0.0</speed>
  <fix>3d</fix>
</trkpt>
<trkpt lat="33.810313" lon="-118.393867">
  <ele>-0.11</ele>
  <time>2026-09-02T22:08:14Z</time>
  <course>0.0</course>
  <speed>0.0</speed>
  <fix>3d</fix>
</trkpt>
<trkpt lat="33.810313" lon="-118.393867">
  <ele>0.0</ele>
  <time>2026-09-02T22:08:14Z</time>
  <course>183.16</course>
  <speed>0.0</speed>
  <fix>3d</fix>
</trkpt>
<trkpt lat="33.810313" lon="-118.393867">
  <ele>-0.11</ele>
  <time>2026-09-02T22:08:14Z</time>
  <course>0.0</course>
  <speed>0.0</speed>
  <fix>3d</fix>
</trkpt>
<trkpt lat="33.810313" lon="-118.393867">
  <ele>0.0</ele>
  <time>2026-09-02T22:08:14Z</time>
  <course>183.41</course>
  <speed>0.0</speed>
  <fix>3d</fix>
</trkpt>
<trkpt lat="33.810313" lon="-118.393867">
  <ele>-0.11</ele>
  <time>2026-09-02T22:08:14Z</time>
  <course>0.0</course>
  <speed>0.0</speed>
  <fix>3d</fix>
</trkpt>
<trkpt lat="33.810313" lon="-118.393867">
  <ele>0.0</ele>
  <time>2026-09-02T22:08:14Z</time>
  <course>183.65</course>
  <speed>0.0</speed>
  <fix>3d</fix>
</trkpt>
<trkpt lat="33.810313" lon="-118.393867">
  <ele>-0.11</ele>
  <time>2026-09-02T22:08:14Z</time>
  <course>0.0</course>
  <speed>0.0</speed>
  <fix>3d</fix>
</trkpt>
<trkpt lat="33.810313" lon="-118.393867">
  <ele>0.0</ele>
  <time>2026-09-02T22:08:14Z</time>
  <course>183.88</course>
  <speed>0.0</speed>
  <fix>3d</fix>
</trkpt>
<trkpt lat="33.810313" lon="-118.393867">
  <ele>-0.12</ele>
  <time>2026-09-02T22:08:14Z</time>
  <course>0.0</course>
  <speed>0.0</speed>
  <fix>3d</fix>
</trkpt>
<trkpt lat="33.810313" lon="-118.393867">
  <ele>0.0</ele>
  <time>2026-09-02T22:08:14Z</time>
  <course>184.11</course>
  <speed>0.0</speed>
  <fix>3d</fix>
</trkpt>
<trkpt lat="33.810313" lon="-118.393867">
  <ele>-0.12</ele>
  <time>2026-09-02T22:08:14Z</time>
  <course>0.0</course>
  <speed>0.0</speed>
  <fix>3d</fix>
</trkpt>
<trkpt lat="33.810313" lon="-118.393867">
  <ele>0.0</ele>
  <time>2026-09-02T22:08:14Z</time>
  <course>184.32</course>
  <speed>0.0</speed>
  <fix>3d</fix>
</trkpt>
<trkpt lat="33.810313" lon="-118.393867">
  <ele>-0.13</ele>
  <time>2026-09-02T22:08:14Z</time>
  <course>0.0</course>
  <speed>0.0</speed>
  <fix>3d</fix>
</trkpt>
<trkpt lat="33.810313" lon="-118.393867">
  <ele>0.0</ele>
  <time>2026-09-02T22:08:14Z</time>
  <course>184.52</course>
  <speed>0.0</speed>
  <fix>3d</fix>
</trkpt>
<trkpt lat="33.810313" lon="-118.393867">
  <ele>-0.13</ele>
  <time>2026-09-02T22:08:14Z</time>
  <course>0.0</course>
  <speed>0.0</speed>
  <fix>3d</fix>
</trkpt>
<trkpt lat="33.810313" lon="-118.393867">
  <ele>0.0</ele>
  <time>2026-09-02T22:08:14Z</time>
  <course>184.72</course>
  <speed>0.0</speed>
  <fix>3d</fix>
</trkpt>
<trkpt lat="33.810313" lon="-118.393867">
  <ele>-0.13</ele>
  <time>2026-09-02T22:08:14Z</time>
  <course>0.0</course>
  <speed>0.0</speed>
  <fix>3d</fix>
</trkpt>
<trkpt lat="33.810313" lon="-118.393867">
  <ele>0.0</ele>
  <time>2026-09-02T22:08:14Z</time>
  <course>184.91</course>
  <speed>0.0</speed>
  <fix>3d</fix>
</trkpt>
<trkpt lat="33.810313" lon="-118.393867">
  <ele>-0.13</ele>
  <time>2026-09-02T22:08:14Z</time>
  <course>0.0</course>
  <speed>0.0</speed>
  <fix>3d</fix>
</trkpt>
<trkpt lat="33.810313" lon="-118.393867">
  <ele>0.0</ele>
  <time>2026-09-02T22:08:14Z</time>
  <course>185.09</course>
  <speed>0.0</speed>
  <fix>3d</fix>
</trkpt>
<trkpt lat="33.810313" lon="-118.393867">
  <ele>-0.14</ele>
  <time>2026-09-02T22:08:14Z</time>
  <course>0.0</course>
  <speed>0.0</speed>
  <fix>3d</fix>
</trkpt>
<trkpt lat="33.810313" lon="-118.393867">
  <ele>0.0</ele>
  <time>2026-09-02T22:08:14Z</time>
  <course>185.26</course>
  <speed>0.0</speed>
  <fix>3d</fix>
</trkpt>
<trkpt lat="33.810313" lon="-118.393867">
  <ele>-0.14</ele>
  <time>2026-09-02T22:08:14Z</time>
  <course>0.0</course>
  <speed>0.0</speed>
  <fix>3d</fix>
</trkpt>
<trkpt lat="33.810313" lon="-118.393867">
  <ele>0.0</ele>
  <time>2026-09-02T22:08:14Z</time>
  <course>185.42</course>
  <speed>0.0</speed>
  <fix>3d</fix>
</trkpt>
<trkpt lat="33.810313" lon="-118.393867">
  <ele>-0.13</ele>
  <time>2026-09-02T22:08:14Z</time>
  <course>0.0</course>
  <speed>0.0</speed>
  <fix>3d</fix>
</trkpt>
<trkpt lat="33.810313" lon="-118.393867">
  <ele>0.0</ele>
  <time>2026-09-02T22:08:14Z</time>
  <course>185.58</course>
  <speed>0.0</speed>
  <fix>3d</fix>
</trkpt>
<trkpt lat="33.810313" lon="-118.393867">
  <ele>-0.13</ele>
  <time>2026-09-02T22:08:14Z</time>
  <course>0.0</course>
  <speed>0.0</speed>
  <fix>3d</fix>
</trkpt>
<trkpt lat="33.810313" lon="-118.393867">
  <ele>0.0</ele>
  <time>2026-09-02T22:08:14Z</time>
  <course>185.73</course>
  <speed>0.0</speed>
  <fix>3d</fix>
</trkpt>
<trkpt lat="33.810313" lon="-118.393867">
  <ele>-0.13</ele>
  <time>2026-09-02T22:08:14Z</time>
  <course>0.0</course>
  <speed>0.0</speed>
  <fix>3d</fix>
</trkpt>
<trkpt lat="33.810313" lon="-118.393867">
  <ele>0.0</ele>
  <time>2026-09-02T22:08:14Z</time>
  <course>185.87</course>
  <speed>0.0</speed>
  <fix>3d</fix>
</trkpt>
<trkpt lat="33.810313" lon="-118.393867">
  <ele>-0.13</ele>
  <time>2026-09-02T22:08:14Z</time>
  <course>0.0</course>
  <speed>0.0</speed>
  <fix>3d</fix>
</trkpt>
<trkpt lat="33.810313" lon="-118.393867">
  <ele>0.0</ele>
  <time>2026-09-02T22:08:14Z</time>
  <course>186.01</course>
  <speed>0.0</speed>
  <fix>3d</fix>
</trkpt>
<trkpt lat="33.810313" lon="-118.393867">
  <ele>-0.12</ele>
  <time>2026-09-02T22:08:14Z</time>
  <course>0.0</course>
  <speed>0.0</speed>
  <fix>3d</fix>
</trkpt>
<trkpt lat="33.810313" lon="-118.393867">
  <ele>0.0</ele>
  <time>2026-09-02T22:08:14Z</time>
  <course>186.14</course>
  <speed>0.0</speed>
  <fix>3d</fix>
</trkpt>
<trkpt lat="33.810313" lon="-118.393867">
  <ele>-0.12</ele>
  <time>2026-09-02T22:08:14Z</time>
  <course>0.0</course>
  <speed>0.0</speed>
  <fix>3d</fix>
</trkpt>
<trkpt lat="33.810313" lon="-118.393867">
  <ele>0.0</ele>
  <time>2026-09-02T22:08:14Z</time>
  <course>186.27</course>
  <speed>0.0</speed>
  <fix>3d</fix>
</trkpt>
<trkpt lat="33.810313" lon="-118.393867">
  <ele>-0.12</ele>
  <time>2026-09-02T22:08:14Z</time>
  <course>0.0</course>
  <speed>0.0</speed>
  <fix>3d</fix>
</trkpt>
<trkpt lat="33.810313" lon="-118.393867">
  <ele>0.0</ele>
  <time>2026-09-02T22:08:14Z</time>
  <course>186.39</course>
  <speed>0.0</speed>
  <fix>3d</fix>
</trkpt>
<trkpt lat="33.810313" lon="-118.393867">
  <ele>-0.12</ele>
  <time>2026-09-02T22:08:14Z</time>
  <course>0.0</course>
  <speed>0.0</speed>
  <fix>3d</fix>
</trkpt>
<trkpt lat="33.810313" lon="-118.393867">
  <ele>0.0</ele>
  <time>2026-09-02T22:08:14Z</time>
  <course>186.5</course>
  <speed>0.0</speed>
  <fix>3d</fix>
</trkpt>
<trkpt lat="33.810313" lon="-118.393867">
  <ele>-0.12</ele>
  <time>2026-09-02T22:08:14Z</time>
  <course>0.0</course>
  <speed>0.0</speed>
  <fix>3d</fix>
</trkpt>
<trkpt lat="33.810313" lon="-118.393867">
  <ele>0.0</ele>
  <time>2026-09-02T22:08:15Z</time>
  <course>186.61</course>
  <speed>0.0</speed>
  <fix>3d</fix>
</trkpt>
<trkpt lat="33.810313" lon="-118.393867">
  <ele>-0.12</ele>
  <time>2026-09-02T22:08:15Z</time>
  <course>0.0</course>
  <speed>0.0</speed>
  <fix>3d</fix>
</trkpt>
<trkpt lat="33.810313" lon="-118.393867">
  <ele>0.0</ele>
  <time>2026-09-02T22:08:15Z</time>
  <course>186.72</course>
  <speed>0.0</speed>
  <fix>3d</fix>
</trkpt>
<trkpt lat="33.810313" lon="-118.393867">
  <ele>-0.12</ele>
  <time>2026-09-02T22:08:15Z</time>
  <course>0.0</course>
  <speed>0.0</speed>
  <fix>3d</fix>
</trkpt>
<trkpt lat="33.810313" lon="-118.393867">
  <ele>0.0</ele>
  <time>2026-09-02T22:08:15Z</time>
  <course>186.82</course>
  <speed>0.0</speed>
  <fix>3d</fix>
</trkpt>
<trkpt lat="33.810313" lon="-118.393867">
  <ele>-0.12</ele>
  <time>2026-09-02T22:08:15Z</time>
  <course>0.0</course>
  <speed>0.0</speed>
  <fix>3d</fix>
</trkpt>
<trkpt lat="33.810313" lon="-118.393867">
  <ele>0.0</ele>
  <time>2026-09-02T22:08:15Z</time>
  <course>186.91</course>
  <speed>0.0</speed>
  <fix>3d</fix>
</trkpt>
<trkpt lat="33.810313" lon="-118.393867">
  <ele>-0.12</ele>
  <time>2026-09-02T22:08:15Z</time>
  <course>0.0</course>
  <speed>0.0</speed>
  <fix>3d</fix>
</trkpt>
<trkpt lat="33.810313" lon="-118.393867">
  <ele>0.0</ele>
  <time>2026-09-02T22:08:15Z</time>
  <course>187.0</course>
  <speed>0.0</speed>
  <fix>3d</fix>
</trkpt>
<trkpt lat="33.810313" lon="-118.393867">
  <ele>-0.12</ele>
  <time>2026-09-02T22:08:15Z</time>
  <course>0.0</course>
  <speed>0.0</speed>
  <fix>3d</fix>
</trkpt>
<trkpt lat="33.810313" lon="-118.393867">
  <ele>0.0</ele>
  <time>2026-09-02T22:08:15Z</time>
  <course>187.09</course>
  <speed>0.0</speed>
  <fix>3d</fix>
</trkpt>
<trkpt lat="33.810313" lon="-118.393867">
  <ele>-0.13</ele>
  <time>2026-09-02T22:08:15Z</time>
  <course>0.0</course>
  <speed>0.0</speed>
  <fix>3d</fix>
</trkpt>
<trkpt lat="33.810313" lon="-118.393867">
  <ele>0.0</ele>
  <time>2026-09-02T22:08:15Z</time>
  <course>187.17</course>
  <speed>0.0</speed>
  <fix>3d</fix>
</trkpt>
<trkpt lat="33.810313" lon="-118.393867">
  <ele>-0.13</ele>
  <time>2026-09-02T22:08:15Z</time>
  <course>0.0</course>
  <speed>0.0</speed>
  <fix>3d</fix>
</trkpt>
<trkpt lat="33.810313" lon="-118.393867">
  <ele>0.0</ele>
  <time>2026-09-02T22:08:15Z</time>
  <course>187.25</course>
  <speed>0.0</speed>
  <fix>3d</fix>
</trkpt>
<trkpt lat="33.810313" lon="-118.393867">
  <ele>-0.13</ele>
  <time>2026-09-02T22:08:15Z</time>
  <course>0.0</course>
  <speed>0.0</speed>
  <fix>3d</fix>
</trkpt>
<trkpt lat="33.810313" lon="-118.393867">
  <ele>0.0</ele>
  <time>2026-09-02T22:08:15Z</time>
  <course>187.33</course>
  <speed>0.0</speed>
  <fix>3d</fix>
</trkpt>
<trkpt lat="33.810313" lon="-118.393867">
  <ele>-0.13</ele>
  <time>2026-09-02T22:08:15Z</time>
  <course>0.0</course>
  <speed>0.0</speed>
  <fix>3d</fix>
</trkpt>
<trkpt lat="33.810313" lon="-118.393867">
  <ele>0.0</ele>
  <time>2026-09-02T22:08:15Z</time>
  <course>187.4</course>
  <speed>0.0</speed>
  <fix>3d</fix>
</trkpt>
<trkpt lat="33.810313" lon="-118.393867">
  <ele>-0.13</ele>
  <time>2026-09-02T22:08:15Z</time>
  <course>0.0</course>
  <speed>0.0</speed>
  <fix>3d</fix>
</trkpt>
<trkpt lat="33.810313" lon="-118.393867">
  <ele>0.0</ele>
  <time>2026-09-02T22:08:15Z</time>
  <course>187.47</course>
  <speed>0.0</speed>
  <fix>3d</fix>
</trkpt>
<trkpt lat="33.810313" lon="-118.393867">
  <ele>-0.13</ele>
  <time>2026-09-02T22:08:15Z</time>
  <course>0.0</course>
  <speed>0.0</speed>
  <fix>3d</fix>
</trkpt>
<trkpt lat="33.810313" lon="-118.393867">
  <ele>0.0</ele>
  <time>2026-09-02T22:08:15Z</time>
  <course>187.53</course>
  <speed>0.0</speed>
  <fix>3d</fix>
</trkpt>
<trkpt lat="33.810313" lon="-118.393867">
  <ele>-0.13</ele>
  <time>2026-09-02T22:08:15Z</time>
  <course>0.0</course>
  <speed>0.0</speed>
  <fix>3d</fix>
</trkpt>
<trkpt lat="33.810313" lon="-118.393867">
  <ele>0.0</ele>
  <time>2026-09-02T22:08:15Z</time>
  <course>187.59</course>
  <speed>0.0</speed>
  <fix>3d</fix>
</trkpt>
<trkpt lat="33.810313" lon="-118.393867">
  <ele>-0.13</ele>
  <time>2026-09-02T22:08:15Z</time>
  <course>0.0</course>
  <speed>0.0</speed>
  <fix>3d</fix>
</trkpt>
<trkpt lat="33.810313" lon="-118.393867">
  <ele>0.0</ele>
  <time>2026-09-02T22:08:15Z</time>
  <course>187.65</course>
  <speed>0.0</speed>
  <fix>3d</fix>
</trkpt>
<trkpt lat="33.810313" lon="-118.393867">
  <ele>-0.12</ele>
  <time>2026-09-02T22:08:15Z</time>
  <course>0.0</course>
  <speed>0.0</speed>
  <fix>3d</fix>
</trkpt>
<trkpt lat="33.810313" lon="-118.393867">
  <ele>0.0</ele>
  <time>2026-09-02T22:08:15Z</time>
  <course>187.71</course>
  <speed>0.0</speed>
  <fix>3d</fix>
</trkpt>
<trkpt lat="33.810313" lon="-118.393867">
  <ele>-0.12</ele>
  <time>2026-09-02T22:08:15Z</time>
  <course>0.0</course>
  <speed>0.0</speed>
  <fix>3d</fix>
</trkpt>
<trkpt lat="33.810313" lon="-118.393867">
  <ele>0.0</ele>
  <time>2026-09-02T22:08:15Z</time>
  <course>187.76</course>
  <speed>0.0</speed>
  <fix>3d</fix>
</trkpt>
<trkpt lat="33.810313" lon="-118.393867">
  <ele>-0.12</ele>
  <time>2026-09-02T22:08:15Z</time>
  <course>0.0</course>
  <speed>0.0</speed>
  <fix>3d</fix>
</trkpt>
<trkpt lat="33.810313" lon="-118.393867">
  <ele>0.0</ele>
  <time>2026-09-02T22:08:15Z</time>
  <course>187.81</course>
  <speed>0.0</speed>
  <fix>3d</fix>
</trkpt>
<trkpt lat="33.810313" lon="-118.393867">
  <ele>-0.12</ele>
  <time>2026-09-02T22:08:15Z</time>
  <course>0.0</course>
  <speed>0.0</speed>
  <fix>3d</fix>
</trkpt>
<trkpt lat="33.810313" lon="-118.393867">
  <ele>0.0</ele>
  <time>2026-09-02T22:08:15Z</time>
  <course>187.86</course>
  <speed>0.0</speed>
  <fix>3d</fix>
</trkpt>
<trkpt lat="33.810313" lon="-118.393867">
  <ele>-0.12</ele>
  <time>2026-09-02T22:08:15Z</time>
  <course>0.0</course>
  <speed>0.0</speed>
  <fix>3d</fix>
</trkpt>
<trkpt lat="33.810313" lon="-118.393867">
  <ele>0.0</ele>
  <time>2026-09-02T22:08:15Z</time>
  <course>187.91</course>
  <speed>0.0</speed>
  <fix>3d</fix>
</trkpt>
<trkpt lat="33.810313" lon="-118.393867">
  <ele>-0.12</ele>
  <time>2026-09-02T22:08:15Z</time>
  <course>0.0</course>
  <speed>0.0</speed>
  <fix>3d</fix>
</trkpt>
<trkpt lat="33.810313" lon="-118.393867">
  <ele>0.0</ele>
  <time>2026-09-02T22:08:15Z</time>
  <course>187.95</course>
  <speed>0.0</speed>
  <fix>3d</fix>
</trkpt>
<trkpt lat="33.810313" lon="-118.393867">
  <ele>-0.12</ele>
  <time>2026-09-02T22:08:15Z</time>
  <course>0.0</course>
  <speed>0.0</speed>
  <fix>3d</fix>
</trkpt>
<trkpt lat="33.810313" lon="-118.393867">
  <ele>0.0</ele>
  <time>2026-09-02T22:08:15Z</time>
  <course>187.99</course>
  <speed>0.0</speed>
  <fix>3d</fix>
</trkpt>
<trkpt lat="33.810313" lon="-118.393867">
  <ele>-0.12</ele>
  <time>2026-09-02T22:08:15Z</time>
  <course>0.0</course>
  <speed>0.0</speed>
  <fix>3d</fix>
</trkpt>
<trkpt lat="33.810313" lon="-118.393867">
  <ele>0.0</ele>
  <time>2026-09-02T22:08:15Z</time>
  <course>188.03</course>
  <speed>0.0</speed>
  <fix>3d</fix>
</trkpt>
<trkpt lat="33.810313" lon="-118.393867">
  <ele>-0.12</ele>
  <time>2026-09-02T22:08:15Z</time>
  <course>0.0</course>
  <speed>0.0</speed>
  <fix>3d</fix>
</trkpt>
<trkpt lat="33.810313" lon="-118.393867">
  <ele>0.0</ele>
  <time>2026-09-02T22:08:15Z</time>
  <course>188.07</course>
  <speed>0.0</speed>
  <fix>3d</fix>
</trkpt>
<trkpt lat="33.810313" lon="-118.393867">
  <ele>-0.12</ele>
  <time>2026-09-02T22:08:15Z</time>
  <course>0.0</course>
  <speed>0.0</speed>
  <fix>3d</fix>
</trkpt>
<trkpt lat="33.810313" lon="-118.393867">
  <ele>0.0</ele>
  <time>2026-09-02T22:08:15Z</time>
  <course>188.1</course>
  <speed>0.0</speed>
  <fix>3d</fix>
</trkpt>
<trkpt lat="33.810313" lon="-118.393867">
  <ele>-0.13</ele>
  <time>2026-09-02T22:08:15Z</time>
  <course>0.0</course>
  <speed>0.0</speed>
  <fix>3d</fix>
</trkpt>
<trkpt lat="33.810313" lon="-118.393867">
  <ele>0.0</ele>
  <time>2026-09-02T22:08:15Z</time>
  <course>188.13</course>
  <speed>0.0</speed>
  <fix>3d</fix>
</trkpt>
<trkpt lat="33.810313" lon="-118.393867">
  <ele>-0.13</ele>
  <time>2026-09-02T22:08:15Z</time>
  <course>0.0</course>
  <speed>0.0</speed>
  <fix>3d</fix>
</trkpt>
<trkpt lat="33.810313" lon="-118.393867">
  <ele>0.0</ele>
  <time>2026-09-02T22:08:15Z</time>
  <course>188.17</course>
  <speed>0.0</speed>
  <fix>3d</fix>
</trkpt>
<trkpt lat="33.810313" lon="-118.393867">
  <ele>-0.13</ele>
  <time>2026-09-02T22:08:15Z</time>
  <course>0.0</course>
  <speed>0.0</speed>
  <fix>3d</fix>
</trkpt>
<trkpt lat="33.810313" lon="-118.393867">
  <ele>0.0</ele>
  <time>2026-09-02T22:08:15Z</time>
  <course>188.19</course>
  <speed>0.0</speed>
  <fix>3d</fix>
</trkpt>
<trkpt lat="33.810313" lon="-118.393867">
  <ele>-0.13</ele>
  <time>2026-09-02T22:08:15Z</time>
  <course>0.0</course>
  <speed>0.0</speed>
  <fix>3d</fix>
</trkpt>
<trkpt lat="33.810313" lon="-118.393867">
  <ele>0.0</ele>
  <time>2026-09-02T22:08:15Z</time>
  <course>188.22</course>
  <speed>0.0</speed>
  <fix>3d</fix>
</trkpt>
<trkpt lat="33.810313" lon="-118.393867">
  <ele>-0.13</ele>
  <time>2026-09-02T22:08:15Z</time>
  <course>0.0</course>
  <speed>0.0</speed>
  <fix>3d</fix>
</trkpt>
<trkpt lat="33.810313" lon="-118.393867">
  <ele>0.0</ele>
  <time>2026-09-02T22:08:15Z</time>
  <course>188.25</course>
  <speed>0.0</speed>
  <fix>3d</fix>
</trkpt>
<trkpt lat="33.810313" lon="-118.393867">
  <ele>-0.13</ele>
  <time>2026-09-02T22:08:15Z</time>
  <course>0.0</course>
  <speed>0.0</speed>
  <fix>3d</fix>
</trkpt>
<trkpt lat="33.810313" lon="-118.393867">
  <ele>0.0</ele>
  <time>2026-09-02T22:08:15Z</time>
  <course>188.27</course>
  <speed>0.0</speed>
  <fix>3d</fix>
</trkpt>
<trkpt lat="33.810313" lon="-118.393867">
  <ele>-0.12</ele>
  <time>2026-09-02T22:08:15Z</time>
  <course>0.0</course>
  <speed>0.0</speed>
  <fix>3d</fix>
</trkpt>
<trkpt lat="33.810313" lon="-118.393867">
  <ele>0.0</ele>
  <time>2026-09-02T22:08:15Z</time>
  <course>188.3</course>
  <speed>0.0</speed>
  <fix>3d</fix>
</trkpt>
<trkpt lat="33.810313" lon="-118.393867">
  <ele>-0.12</ele>
  <time>2026-09-02T22:08:15Z</time>
  <course>0.0</course>
  <speed>0.0</speed>
  <fix>3d</fix>
</trkpt>
<trkpt lat="33.810313" lon="-118.393867">
  <ele>0.0</ele>
  <time>2026-09-02T22:08:15Z</time>
  <course>188.32</course>
  <speed>0.0</speed>
  <fix>3d</fix>
</trkpt>
<trkpt lat="33.810313" lon="-118.393867">
  <ele>-0.12</ele>
  <time>2026-09-02T22:08:15Z</time>
  <course>0.0</course>
  <speed>0.0</speed>
  <fix>3d</fix>
</trkpt>
<trkpt lat="33.810313" lon="-118.393867">
  <ele>0.0</ele>
  <time>2026-09-02T22:08:15Z</time>
  <course>188.34</course>
  <speed>0.0</speed>
  <fix>3d</fix>
</trkpt>
<trkpt lat="33.810313" lon="-118.393867">
  <ele>-0.12</ele>
  <time>2026-09-02T22:08:15Z</time>
  <course>0.0</course>
  <speed>0.0</speed>
  <fix>3d</fix>
</trkpt>
<trkpt lat="33.810313" lon="-118.393867">
  <ele>0.0</ele>
  <time>2026-09-02T22:08:15Z</time>
  <course>188.36</course>
  <speed>0.0</speed>
  <fix>3d</fix>
</trkpt>
<trkpt lat="33.810313" lon="-118.393867">
  <ele>-0.12</ele>
  <time>2026-09-02T22:08:15Z</time>
  <course>0.0</course>
  <speed>0.0</speed>
  <fix>3d</fix>
</trkpt>
<trkpt lat="33.810313" lon="-118.393867">
  <ele>0.0</ele>
  <time>2026-09-02T22:08:15Z</time>
  <course>188.38</course>
  <speed>0.0</speed>
  <fix>3d</fix>
</trkpt>
<trkpt lat="33.810313" lon="-118.393867">
  <ele>-0.12</ele>
  <time>2026-09-02T22:08:15Z</time>
  <course>0.0</course>
  <speed>0.0</speed>
  <fix>3d</fix>
</trkpt>
<trkpt lat="33.810313" lon="-118.393867">
  <ele>0.0</ele>
  <time>2026-09-02T22:08:15Z</time>
  <course>188.39</course>
  <speed>0.0</speed>
  <fix>3d</fix>
</trkpt>
<trkpt lat="33.810313" lon="-118.393867">
  <ele>-0.12</ele>
  <time>2026-09-02T22:08:15Z</time>
  <course>0.0</course>
  <speed>0.0</speed>
  <fix>3d</fix>
</trkpt>
<trkpt lat="33.810313" lon="-118.393867">
  <ele>0.0</ele>
  <time>2026-09-02T22:08:15Z</time>
  <course>188.41</course>
  <speed>0.0</speed>
  <fix>3d</fix>
</trkpt>
<trkpt lat="33.810313" lon="-118.393867">
  <ele>-0.12</ele>
  <time>2026-09-02T22:08:15Z</time>
  <course>0.0</course>
  <speed>0.0</speed>
  <fix>3d</fix>
</trkpt>
<trkpt lat="33.810313" lon="-118.393867">
  <ele>0.0</ele>
  <time>2026-09-02T22:08:15Z</time>
  <course>188.43</course>
  <speed>0.0</speed>
  <fix>3d</fix>
</trkpt>
<trkpt lat="33.810313" lon="-118.393867">
  <ele>-0.12</ele>
  <time>2026-09-02T22:08:15Z</time>
  <course>0.0</course>
  <speed>0.0</speed>
  <fix>3d</fix>
</trkpt>
<trkpt lat="33.810313" lon="-118.393867">
  <ele>0.0</ele>
  <time>2026-09-02T22:08:15Z</time>
  <course>188.44</course>
  <speed>0.0</speed>
  <fix>3d</fix>
</trkpt>
<trkpt lat="33.810313" lon="-118.393867">
  <ele>-0.12</ele>
  <time>2026-09-02T22:08:15Z</time>
  <course>0.0</course>
  <speed>0.0</speed>
  <fix>3d</fix>
</trkpt>
<trkpt lat="33.810313" lon="-118.393867">
  <ele>0.0</ele>
  <time>2026-09-02T22:08:15Z</time>
  <course>188.45</course>
  <speed>0.0</speed>
  <fix>3d</fix>
</trkpt>
<trkpt lat="33.810313" lon="-118.393867">
  <ele>-0.13</ele>
  <time>2026-09-02T22:08:15Z</time>
  <course>0.0</course>
  <speed>0.0</speed>
  <fix>3d</fix>
</trkpt>
<trkpt lat="33.810313" lon="-118.393867">
  <ele>0.0</ele>
  <time>2026-09-02T22:08:15Z</time>
  <course>188.46</course>
  <speed>0.0</speed>
  <fix>3d</fix>
</trkpt>
<trkpt lat="33.810313" lon="-118.393867">
  <ele>-0.13</ele>
  <time>2026-09-02T22:08:15Z</time>
  <course>0.0</course>
  <speed>0.0</speed>
  <fix>3d</fix>
</trkpt>
<trkpt lat="33.810313" lon="-118.393867">
  <ele>0.0</ele>
  <time>2026-09-02T22:08:15Z</time>
  <course>188.48</course>
  <speed>0.0</speed>
  <fix>3d</fix>
</trkpt>
<trkpt lat="33.810313" lon="-118.393867">
  <ele>-0.13</ele>
  <time>2026-09-02T22:08:15Z</time>
  <course>0.0</course>
  <speed>0.0</speed>
  <fix>3d</fix>
</trkpt>
<trkpt lat="33.810313" lon="-118.393867">
  <ele>0.0</ele>
  <time>2026-09-02T22:08:15Z</time>
  <course>188.49</course>
  <speed>0.0</speed>
  <fix>3d</fix>
</trkpt>
<trkpt lat="33.810313" lon="-118.393867">
  <ele>-0.13</ele>
  <time>2026-09-02T22:08:15Z</time>
  <course>0.0</course>
  <speed>0.0</speed>
  <fix>3d</fix>
</trkpt>
<trkpt lat="33.810313" lon="-118.393867">
  <ele>0.0</ele>
  <time>2026-09-02T22:08:15Z</time>
  <course>188.49</course>
  <speed>0.0</speed>
  <fix>3d</fix>
</trkpt>
<trkpt lat="33.810313" lon="-118.393867">
  <ele>-0.13</ele>
  <time>2026-09-02T22:08:15Z</time>
  <course>0.0</course>
  <speed>0.0</speed>
  <fix>3d</fix>
</trkpt>
<trkpt lat="33.810313" lon="-118.393867">
  <ele>0.0</ele>
  <time>2026-09-02T22:08:15Z</time>
  <course>188.5</course>
  <speed>0.0</speed>
  <fix>3d</fix>
</trkpt>
<trkpt lat="33.810313" lon="-118.393867">
  <ele>-0.13</ele>
  <time>2026-09-02T22:08:15Z</time>
  <course>0.0</course>
  <speed>0.0</speed>
  <fix>3d</fix>
</trkpt>
<trkpt lat="33.810313" lon="-118.393867">
  <ele>0.0</ele>
  <time>2026-09-02T22:08:15Z</time>
  <course>188.51</course>
  <speed>0.0</speed>
  <fix>3d</fix>
</trkpt>
<trkpt lat="33.810313" lon="-118.393867">
  <ele>-0.12</ele>
  <time>2026-09-02T22:08:15Z</time>
  <course>0.0</course>
  <speed>0.0</speed>
  <fix>3d</fix>
</trkpt>
<trkpt lat="33.810313" lon="-118.393867">
  <ele>0.0</ele>
  <time>2026-09-02T22:08:15Z</time>
  <course>188.52</course>
  <speed>0.0</speed>
  <fix>3d</fix>
</trkpt>
<trkpt lat="33.810313" lon="-118.393867">
  <ele>-0.12</ele>
  <time>2026-09-02T22:08:15Z</time>
  <course>0.0</course>
  <speed>0.0</speed>
  <fix>3d</fix>
</trkpt>
<trkpt lat="33.810313" lon="-118.393867">
  <ele>0.0</ele>
  <time>2026-09-02T22:08:15Z</time>
  <course>188.53</course>
  <speed>0.0</speed>
  <fix>3d</fix>
</trkpt>
<trkpt lat="33.810313" lon="-118.393867">
  <ele>-0.12</ele>
  <time>2026-09-02T22:08:15Z</time>
  <course>0.0</course>
  <speed>0.0</speed>
  <fix>3d</fix>
</trkpt>
<trkpt lat="33.810313" lon="-118.393867">
  <ele>0.0</ele>
  <time>2026-09-02T22:08:15Z</time>
  <course>188.53</course>
  <speed>0.0</speed>
  <fix>3d</fix>
</trkpt>
<trkpt lat="33.810313" lon="-118.393867">
  <ele>-0.12</ele>
  <time>2026-09-02T22:08:15Z</time>
  <course>0.0</course>
  <speed>0.0</speed>
  <fix>3d</fix>
</trkpt>
<trkpt lat="33.810313" lon="-118.393867">
  <ele>0.0</ele>
  <time>2026-09-02T22:08:15Z</time>
  <course>188.54</course>
  <speed>0.0</speed>
  <fix>3d</fix>
</trkpt>
<trkpt lat="33.810313" lon="-118.393867">
  <ele>-0.12</ele>
  <time>2026-09-02T22:08:15Z</time>
  <course>0.0</course>
  <speed>0.0</speed>
  <fix>3d</fix>
</trkpt>
<trkpt lat="33.810313" lon="-118.393867">
  <ele>0.0</ele>
  <time>2026-09-02T22:08:15Z</time>
  <course>188.54</course>
  <speed>0.0</speed>
  <fix>3d</fix>
</trkpt>
<trkpt lat="33.810313" lon="-118.393867">
  <ele>-0.12</ele>
  <time>2026-09-02T22:08:15Z</time>
  <course>0.0</course>
  <speed>0.0</speed>
  <fix>3d</fix>
</trkpt>
<trkpt lat="33.810313" lon="-118.393867">
  <ele>0.0</ele>
  <time>2026-09-02T22:08:15Z</time>
  <course>188.54</course>
  <speed>0.0</speed>
  <fix>3d</fix>
</trkpt>
<trkpt lat="33.810313" lon="-118.393867">
  <ele>-0.12</ele>
  <time>2026-09-02T22:08:15Z</time>
  <course>0.0</course>
  <speed>0.0</speed>
  <fix>3d</fix>
</trkpt>
<trkpt lat="33.810313" lon="-118.393867">
  <ele>0.0</ele>
  <time>2026-09-02T22:08:15Z</time>
  <course>188.55</course>
  <speed>0.0</speed>
  <fix>3d</fix>
</trkpt>
<trkpt lat="33.810313" lon="-118.393867">
  <ele>-0.12</ele>
  <time>2026-09-02T22:08:15Z</time>
  <course>0.0</course>
  <speed>0.0</speed>
  <fix>3d</fix>
</trkpt>
<trkpt lat="33.810313" lon="-118.393867">
  <ele>0.0</ele>
  <time>2026-09-02T22:08:15Z</time>
  <course>188.55</course>
  <speed>0.0</speed>
  <fix>3d</fix>
</trkpt>
<trkpt lat="33.810313" lon="-118.393867">
  <ele>-0.12</ele>
  <time>2026-09-02T22:08:15Z</time>
  <course>0.0</course>
  <speed>0.0</speed>
  <fix>3d</fix>
</trkpt>
<trkpt lat="33.810313" lon="-118.393867">
  <ele>0.0</ele>
  <time>2026-09-02T22:08:15Z</time>
  <course>188.55</course>
  <speed>0.0</speed>
  <fix>3d</fix>
</trkpt>
<trkpt lat="33.810313" lon="-118.393867">
  <ele>-0.12</ele>
  <time>2026-09-02T22:08:15Z</time>
  <course>0.0</course>
  <speed>0.0</speed>
  <fix>3d</fix>
</trkpt>
<trkpt lat="33.810313" lon="-118.393867">
  <ele>-0.126</ele>
  <time>2026-09-02T22:08:15Z</time>
  <course>188.55</course>
  <speed>0.0</speed>
  <fix>3d</fix>
</trkpt>
<trkpt lat="33.810313" lon="-118.393867">
  <ele>-0.13</ele>
  <time>2026-09-02T22:08:15Z</time>
  <course>0.0</course>
  <speed>0.0</speed>
  <fix>3d</fix>
</trkpt>
<trkpt lat="33.810313" lon="-118.393867">
  <ele>-0.126</ele>
  <time>2026-09-02T22:08:15Z</time>
  <course>188.56</course>
  <speed>0.0</speed>
  <fix>3d</fix>
</trkpt>
<trkpt lat="33.810313" lon="-118.393867">
  <ele>-0.13</ele>
  <time>2026-09-02T22:08:15Z</time>
  <course>0.0</course>
  <speed>0.0</speed>
  <fix>3d</fix>
</trkpt>
<trkpt lat="33.810313" lon="-118.393867">
  <ele>-0.124</ele>
  <time>2026-09-02T22:08:15Z</time>
  <course>188.56</course>
  <speed>0.0</speed>
  <fix>3d</fix>
</trkpt>
<trkpt lat="33.810313" lon="-118.393867">
  <ele>-0.13</ele>
  <time>2026-09-02T22:08:15Z</time>
  <course>0.0</course>
  <speed>0.0</speed>
  <fix>3d</fix>
</trkpt>
<trkpt lat="33.810313" lon="-118.393867">
  <ele>-0.123</ele>
  <time>2026-09-02T22:08:15Z</time>
  <course>188.56</course>
  <speed>0.0</speed>
  <fix>3d</fix>
</trkpt>
<trkpt lat="33.810313" lon="-118.393867">
  <ele>-0.13</ele>
  <time>2026-09-02T22:08:15Z</time>
  <course>0.0</course>
  <speed>0.0</speed>
  <fix>3d</fix>
</trkpt>
<trkpt lat="33.810313" lon="-118.393867">
  <ele>-0.121</ele>
  <time>2026-09-02T22:08:15Z</time>
  <course>188.56</course>
  <speed>0.0</speed>
  <fix>3d</fix>
</trkpt>
<trkpt lat="33.810313" lon="-118.393867">
  <ele>-0.12</ele>
  <time>2026-09-02T22:08:15Z</time>
  <course>0.0</course>
  <speed>0.0</speed>
  <fix>3d</fix>
</trkpt>
<trkpt lat="33.810313" lon="-118.393867">
  <ele>-0.12</ele>
  <time>2026-09-02T22:08:15Z</time>
  <course>188.56</course>
  <speed>0.0</speed>
  <fix>3d</fix>
</trkpt>
<trkpt lat="33.810313" lon="-118.393867">
  <ele>-0.12</ele>
  <time>2026-09-02T22:08:15Z</time>
  <course>0.0</course>
  <speed>0.0</speed>
  <fix>3d</fix>
</trkpt>
<trkpt lat="33.810313" lon="-118.393867">
  <ele>-0.119</ele>
  <time>2026-09-02T22:08:15Z</time>
  <course>188.56</course>
  <speed>0.0</speed>
  <fix>3d</fix>
</trkpt>
<trkpt lat="33.810313" lon="-118.393867">
  <ele>-0.12</ele>
  <time>2026-09-02T22:08:15Z</time>
  <course>0.0</course>
  <speed>0.0</speed>
  <fix>3d</fix>
</trkpt>
<trkpt lat="33.810313" lon="-118.393867">
  <ele>-0.12</ele>
  <time>2026-09-02T22:08:15Z</time>
  <course>188.56</course>
  <speed>0.0</speed>
  <fix>3d</fix>
</trkpt>
<trkpt lat="33.810313" lon="-118.393867">
  <ele>-0.12</ele>
  <time>2026-09-02T22:08:15Z</time>
  <course>0.0</course>
  <speed>0.0</speed>
  <fix>3d</fix>
</trkpt>
<trkpt lat="33.810313" lon="-118.393867">
  <ele>-0.124</ele>
  <time>2026-09-02T22:08:15Z</time>
  <course>188.55</course>
  <speed>0.0</speed>
  <fix>3d</fix>
</trkpt>
<trkpt lat="33.810313" lon="-118.393867">
  <ele>-0.12</ele>
  <time>2026-09-02T22:08:15Z</time>
  <course>0.0</course>
  <speed>0.0</speed>
  <fix>3d</fix>
</trkpt>
<trkpt lat="33.810313" lon="-118.393867">
  <ele>-0.127</ele>
  <time>2026-09-02T22:08:15Z</time>
  <course>188.55</course>
  <speed>0.0</speed>
  <fix>3d</fix>
</trkpt>
<trkpt lat="33.810313" lon="-118.393867">
  <ele>-0.12</ele>
  <time>2026-09-02T22:08:15Z</time>
  <course>0.0</course>
  <speed>0.0</speed>
  <fix>3d</fix>
</trkpt>
<trkpt lat="33.810313" lon="-118.393867">
  <ele>-0.13</ele>
  <time>2026-09-02T22:08:15Z</time>
  <course>188.55</course>
  <speed>0.0</speed>
  <fix>3d</fix>
</trkpt>
<trkpt lat="33.810313" lon="-118.393867">
  <ele>-0.12</ele>
  <time>2026-09-02T22:08:15Z</time>
  <course>0.0</course>
  <speed>0.0</speed>
  <fix>3d</fix>
</trkpt>
<trkpt lat="33.810313" lon="-118.393867">
  <ele>-0.132</ele>
  <time>2026-09-02T22:08:15Z</time>
  <course>188.55</course>
  <speed>0.0</speed>
  <fix>3d</fix>
</trkpt>
<trkpt lat="33.810313" lon="-118.393867">
  <ele>-0.12</ele>
  <time>2026-09-02T22:08:15Z</time>
  <course>0.0</course>
  <speed>0.0</speed>
  <fix>3d</fix>
</trkpt>
<trkpt lat="33.810313" lon="-118.393867">
  <ele>-0.132</ele>
  <time>2026-09-02T22:08:15Z</time>
  <course>188.55</course>
  <speed>0.0</speed>
  <fix>3d</fix>
</trkpt>
<trkpt lat="33.810313" lon="-118.393867">
  <ele>-0.12</ele>
  <time>2026-09-02T22:08:15Z</time>
  <course>0.0</course>
  <speed>0.0</speed>
  <fix>3d</fix>
</trkpt>
<trkpt lat="33.810313" lon="-118.393867">
  <ele>-0.132</ele>
  <time>2026-09-02T22:08:15Z</time>
  <course>188.55</course>
  <speed>0.0</speed>
  <fix>3d</fix>
</trkpt>
<trkpt lat="33.810313" lon="-118.393867">
  <ele>-0.12</ele>
  <time>2026-09-02T22:08:15Z</time>
  <course>0.0</course>
  <speed>0.0</speed>
  <fix>3d</fix>
</trkpt>
<trkpt lat="33.810313" lon="-118.393867">
  <ele>-0.132</ele>
  <time>2026-09-02T22:08:15Z</time>
  <course>188.55</course>
  <speed>0.0</speed>
  <fix>3d</fix>
</trkpt>
<trkpt lat="33.810313" lon="-118.393867">
  <ele>-0.12</ele>
  <time>2026-09-02T22:08:15Z</time>
  <course>0.0</course>
  <speed>0.0</speed>
  <fix>3d</fix>
</trkpt>
<trkpt lat="33.810313" lon="-118.393867">
  <ele>-0.131</ele>
  <time>2026-09-02T22:08:15Z</time>
  <course>188.55</course>
  <speed>0.0</speed>
  <fix>3d</fix>
</trkpt>
<trkpt lat="33.810313" lon="-118.393867">
  <ele>-0.12</ele>
  <time>2026-09-02T22:08:15Z</time>
  <course>0.0</course>
  <speed>0.0</speed>
  <fix>3d</fix>
</trkpt>
<trkpt lat="33.810313" lon="-118.393867">
  <ele>-0.129</ele>
  <time>2026-09-02T22:08:15Z</time>
  <course>188.54</course>
  <speed>0.0</speed>
  <fix>3d</fix>
</trkpt>
<trkpt lat="33.810313" lon="-118.393867">
  <ele>-0.13</ele>
  <time>2026-09-02T22:08:15Z</time>
  <course>0.0</course>
  <speed>0.0</speed>
  <fix>3d</fix>
</trkpt>
<trkpt lat="33.810313" lon="-118.393867">
  <ele>-0.128</ele>
  <time>2026-09-02T22:08:15Z</time>
  <course>188.54</course>
  <speed>0.0</speed>
  <fix>3d</fix>
</trkpt>
<trkpt lat="33.810313" lon="-118.393867">
  <ele>-0.13</ele>
  <time>2026-09-02T22:08:15Z</time>
  <course>0.0</course>
  <speed>0.0</speed>
  <fix>3d</fix>
</trkpt>
<trkpt lat="33.810313" lon="-118.393867">
  <ele>-0.125</ele>
  <time>2026-09-02T22:08:15Z</time>
  <course>188.53</course>
  <speed>0.0</speed>
  <fix>3d</fix>
</trkpt>
<trkpt lat="33.810313" lon="-118.393867">
  <ele>-0.12</ele>
  <time>2026-09-02T22:08:15Z</time>
  <course>0.0</course>
  <speed>0.0</speed>
  <fix>3d</fix>
</trkpt>
<trkpt lat="33.810313" lon="-118.393867">
  <ele>-0.123</ele>
  <time>2026-09-02T22:08:15Z</time>
  <course>188.53</course>
  <speed>0.0</speed>
  <fix>3d</fix>
</trkpt>
<trkpt lat="33.810313" lon="-118.393867">
  <ele>-0.12</ele>
  <time>2026-09-02T22:08:15Z</time>
  <course>0.0</course>
  <speed>0.0</speed>
  <fix>3d</fix>
</trkpt>
<trkpt lat="33.810313" lon="-118.393867">
  <ele>-0.121</ele>
  <time>2026-09-02T22:08:15Z</time>
  <course>188.52</course>
  <speed>0.0</speed>
  <fix>3d</fix>
</trkpt>
<trkpt lat="33.810313" lon="-118.393867">
  <ele>-0.12</ele>
  <time>2026-09-02T22:08:15Z</time>
  <course>0.0</course>
  <speed>0.0</speed>
  <fix>3d</fix>
</trkpt>
<trkpt lat="33.810313" lon="-118.393867">
  <ele>-0.121</ele>
  <time>2026-09-02T22:08:15Z</time>
  <course>188.52</course>
  <speed>0.0</speed>
  <fix>3d</fix>
</trkpt>
<trkpt lat="33.810313" lon="-118.393867">
  <ele>-0.12</ele>
  <time>2026-09-02T22:08:15Z</time>
  <course>0.0</course>
  <speed>0.0</speed>
  <fix>3d</fix>
</trkpt>
<trkpt lat="33.810313" lon="-118.393867">
  <ele>-0.122</ele>
  <time>2026-09-02T22:08:15Z</time>
  <course>188.51</course>
  <speed>0.0</speed>
  <fix>3d</fix>
</trkpt>
<trkpt lat="33.810313" lon="-118.393867">
  <ele>-0.12</ele>
  <time>2026-09-02T22:08:15Z</time>
  <course>0.0</course>
  <speed>0.0</speed>
  <fix>3d</fix>
</trkpt>
<trkpt lat="33.810313" lon="-118.393867">
  <ele>-0.123</ele>
  <time>2026-09-02T22:08:15Z</time>
  <course>188.51</course>
  <speed>0.0</speed>
  <fix>3d</fix>
</trkpt>
<trkpt lat="33.810313" lon="-118.393867">
  <ele>-0.12</ele>
  <time>2026-09-02T22:08:15Z</time>
  <course>0.0</course>
  <speed>0.0</speed>
  <fix>3d</fix>
</trkpt>
<trkpt lat="33.810313" lon="-118.393867">
  <ele>-0.126</ele>
  <time>2026-09-02T22:08:15Z</time>
  <course>188.5</course>
  <speed>0.0</speed>
  <fix>3d</fix>
</trkpt>
<trkpt lat="33.810313" lon="-118.393867">
  <ele>-0.12</ele>
  <time>2026-09-02T22:08:15Z</time>
  <course>0.0</course>
  <speed>0.0</speed>
  <fix>3d</fix>
</trkpt>
<trkpt lat="33.810313" lon="-118.393867">
  <ele>-0.127</ele>
  <time>2026-09-02T22:08:15Z</time>
  <course>188.5</course>
  <speed>0.0</speed>
  <fix>3d</fix>
</trkpt>
<trkpt lat="33.810313" lon="-118.393867">
  <ele>-0.12</ele>
  <time>2026-09-02T22:08:15Z</time>
  <course>0.0</course>
  <speed>0.0</speed>
  <fix>3d</fix>
</trkpt>
<trkpt lat="33.810313" lon="-118.393867">
  <ele>-0.128</ele>
  <time>2026-09-02T22:08:15Z</time>
  <course>188.49</course>
  <speed>0.0</speed>
  <fix>3d</fix>
</trkpt>
<trkpt lat="33.810313" lon="-118.393867">
  <ele>-0.12</ele>
  <time>2026-09-02T22:08:15Z</time>
  <course>0.0</course>
  <speed>0.0</speed>
  <fix>3d</fix>
</trkpt>
<trkpt lat="33.810313" lon="-118.393867">
  <ele>-0.127</ele>
  <time>2026-09-02T22:08:15Z</time>
  <course>188.48</course>
  <speed>0.0</speed>
  <fix>3d</fix>
</trkpt>
<trkpt lat="33.810313" lon="-118.393867">
  <ele>-0.12</ele>
  <time>2026-09-02T22:08:15Z</time>
  <course>0.0</course>
  <speed>0.0</speed>
  <fix>3d</fix>
</trkpt>
<trkpt lat="33.810313" lon="-118.393867">
  <ele>-0.127</ele>
  <time>2026-09-02T22:08:15Z</time>
  <course>188.48</course>
  <speed>0.0</speed>
  <fix>3d</fix>
</trkpt>
<trkpt lat="33.810313" lon="-118.393867">
  <ele>-0.12</ele>
  <time>2026-09-02T22:08:15Z</time>
  <course>0.0</course>
  <speed>0.0</speed>
  <fix>3d</fix>
</trkpt>
<trkpt lat="33.810313" lon="-118.393867">
  <ele>-0.127</ele>
  <time>2026-09-02T22:08:15Z</time>
  <course>188.47</course>
  <speed>0.01</speed>
  <fix>3d</fix>
</trkpt>
<trkpt lat="33.810313" lon="-118.393867">
  <ele>-0.12</ele>
  <time>2026-09-02T22:08:15Z</time>
  <course>0.0</course>
  <speed>0.0</speed>
  <fix>3d</fix>
</trkpt>
<trkpt lat="33.810313" lon="-118.393867">
  <ele>-0.127</ele>
  <time>2026-09-02T22:08:15Z</time>
  <course>188.47</course>
  <speed>0.01</speed>
  <fix>3d</fix>
</trkpt>
<trkpt lat="33.810313" lon="-118.393867">
  <ele>-0.12</ele>
  <time>2026-09-02T22:08:15Z</time>
  <course>0.0</course>
  <speed>0.0</speed>
  <fix>3d</fix>
</trkpt>
<trkpt lat="33.810313" lon="-118.393867">
  <ele>-0.126</ele>
  <time>2026-09-02T22:08:15Z</time>
  <course>188.46</course>
  <speed>0.01</speed>
  <fix>3d</fix>
</trkpt>
<trkpt lat="33.810313" lon="-118.393867">
  <ele>-0.12</ele>
  <time>2026-09-02T22:08:15Z</time>
  <course>0.0</course>
  <speed>0.0</speed>
  <fix>3d</fix>
</trkpt>
<trkpt lat="33.810313" lon="-118.393867">
  <ele>-0.126</ele>
  <time>2026-09-02T22:08:15Z</time>
  <course>188.45</course>
  <speed>0.01</speed>
  <fix>3d</fix>
</trkpt>
<trkpt lat="33.810313" lon="-118.393867">
  <ele>-0.12</ele>
  <time>2026-09-02T22:08:15Z</time>
  <course>0.0</course>
  <speed>0.0</speed>
  <fix>3d</fix>
</trkpt>
<trkpt lat="33.810313" lon="-118.393867">
  <ele>-0.126</ele>
  <time>2026-09-02T22:08:15Z</time>
  <course>188.45</course>
  <speed>0.01</speed>
  <fix>3d</fix>
</trkpt>
<trkpt lat="33.810313" lon="-118.393867">
  <ele>-0.12</ele>
  <time>2026-09-02T22:08:15Z</time>
  <course>0.0</course>
  <speed>0.0</speed>
  <fix>3d</fix>
</trkpt>
<trkpt lat="33.810313" lon="-118.393867">
  <ele>-0.125</ele>
  <time>2026-09-02T22:08:15Z</time>
  <course>188.44</course>
  <speed>0.01</speed>
  <fix>3d</fix>
</trkpt>
<trkpt lat="33.810313" lon="-118.393867">
  <ele>-0.12</ele>
  <time>2026-09-02T22:08:15Z</time>
  <course>0.0</course>
  <speed>0.0</speed>
  <fix>3d</fix>
</trkpt>
<trkpt lat="33.810313" lon="-118.393867">
  <ele>-0.126</ele>
  <time>2026-09-02T22:08:15Z</time>
  <course>188.43</course>
  <speed>0.01</speed>
  <fix>3d</fix>
</trkpt>
<trkpt lat="33.810313" lon="-118.393867">
  <ele>-0.12</ele>
  <time>2026-09-02T22:08:15Z</time>
  <course>0.0</course>
  <speed>0.0</speed>
  <fix>3d</fix>
</trkpt>
<trkpt lat="33.810313" lon="-118.393867">
  <ele>-0.127</ele>
  <time>2026-09-02T22:08:15Z</time>
  <course>188.42</course>
  <speed>0.01</speed>
  <fix>3d</fix>
</trkpt>
<trkpt lat="33.810313" lon="-118.393867">
  <ele>-0.12</ele>
  <time>2026-09-02T22:08:15Z</time>
  <course>0.0</course>
  <speed>0.0</speed>
  <fix>3d</fix>
</trkpt>
<trkpt lat="33.810313" lon="-118.393867">
  <ele>-0.128</ele>
  <time>2026-09-02T22:08:15Z</time>
  <course>188.42</course>
  <speed>0.01</speed>
  <fix>3d</fix>
</trkpt>
<trkpt lat="33.810313" lon="-118.393867">
  <ele>-0.12</ele>
  <time>2026-09-02T22:08:15Z</time>
  <course>0.0</course>
  <speed>0.0</speed>
  <fix>3d</fix>
</trkpt>
<trkpt lat="33.810313" lon="-118.393867">
  <ele>-0.129</ele>
  <time>2026-09-02T22:08:15Z</time>
  <course>188.41</course>
  <speed>0.01</speed>
  <fix>3d</fix>
</trkpt>
<trkpt lat="33.810313" lon="-118.393867">
  <ele>-0.12</ele>
  <time>2026-09-02T22:08:15Z</time>
  <course>0.0</course>
  <speed>0.0</speed>
  <fix>3d</fix>
</trkpt>
<trkpt lat="33.810313" lon="-118.393867">
  <ele>-0.129</ele>
  <time>2026-09-02T22:08:15Z</time>
  <course>188.4</course>
  <speed>0.01</speed>
  <fix>3d</fix>
</trkpt>
<trkpt lat="33.810313" lon="-118.393867">
  <ele>-0.12</ele>
  <time>2026-09-02T22:08:15Z</time>
  <course>0.0</course>
  <speed>0.0</speed>
  <fix>3d</fix>
</trkpt>
<trkpt lat="33.810313" lon="-118.393867">
  <ele>-0.13</ele>
  <time>2026-09-02T22:08:15Z</time>
  <course>188.4</course>
  <speed>0.01414213562373095</speed>
  <fix>3d</fix>
</trkpt>
<trkpt lat="33.810313" lon="-118.393867">
  <ele>-0.12</ele>
  <time>2026-09-02T22:08:15Z</time>
  <course>0.0</course>
  <speed>0.0</speed>
  <fix>3d</fix>
</trkpt>
<trkpt lat="33.810313" lon="-118.393867">
  <ele>-0.13</ele>
  <time>2026-09-02T22:08:15Z</time>
  <course>188.39</course>
  <speed>0.01414213562373095</speed>
  <fix>3d</fix>
</trkpt>
<trkpt lat="33.810313" lon="-118.393867">
  <ele>-0.12</ele>
  <time>2026-09-02T22:08:15Z</time>
  <course>0.0</course>
  <speed>0.0</speed>
  <fix>3d</fix>
</trkpt>
<trkpt lat="33.810313" lon="-118.393867">
  <ele>-0.13</ele>
  <time>2026-09-02T22:08:15Z</time>
  <course>188.38</course>
  <speed>0.01414213562373095</speed>
  <fix>3d</fix>
</trkpt>
<trkpt lat="33.810313" lon="-118.393867">
  <ele>-0.12</ele>
  <time>2026-09-02T22:08:15Z</time>
  <course>0.0</course>
  <speed>0.0</speed>
  <fix>3d</fix>
</trkpt>
<trkpt lat="33.810313" lon="-118.393867">
  <ele>-0.129</ele>
  <time>2026-09-02T22:08:15Z</time>
  <course>188.37</course>
  <speed>0.01414213562373095</speed>
  <fix>3d</fix>
</trkpt>
<trkpt lat="33.810313" lon="-118.393867">
  <ele>-0.12</ele>
  <time>2026-09-02T22:08:15Z</time>
  <course>0.0</course>
  <speed>0.0</speed>
  <fix>3d</fix>
</trkpt>
<trkpt lat="33.810313" lon="-118.393867">
  <ele>-0.128</ele>
  <time>2026-09-02T22:08:15Z</time>
  <course>188.37</course>
  <speed>0.01414213562373095</speed>
  <fix>3d</fix>
</trkpt>
<trkpt lat="33.810313" lon="-118.393867">
  <ele>-0.12</ele>
  <time>2026-09-02T22:08:15Z</time>
  <course>0.0</course>
  <speed>0.0</speed>
  <fix>3d</fix>
</trkpt>
<trkpt lat="33.810313" lon="-118.393867">
  <ele>-0.126</ele>
  <time>2026-09-02T22:08:15Z</time>
  <course>188.36</course>
  <speed>0.01414213562373095</speed>
  <fix>3d</fix>
</trkpt>
<trkpt lat="33.810313" lon="-118.393867">
  <ele>-0.12</ele>
  <time>2026-09-02T22:08:15Z</time>
  <course>0.0</course>
  <speed>0.0</speed>
  <fix>3d</fix>
</trkpt>
<trkpt lat="33.810313" lon="-118.393867">
  <ele>-0.124</ele>
  <time>2026-09-02T22:08:15Z</time>
  <course>188.35</course>
  <speed>0.01414213562373095</speed>
  <fix>3d</fix>
</trkpt>
<trkpt lat="33.810313" lon="-118.393867">
  <ele>-0.12</ele>
  <time>2026-09-02T22:08:15Z</time>
  <course>0.0</course>
  <speed>0.0</speed>
  <fix>3d</fix>
</trkpt>
<trkpt lat="33.810313" lon="-118.393867">
  <ele>-0.122</ele>
  <time>2026-09-02T22:08:15Z</time>
  <course>188.34</course>
  <speed>0.01414213562373095</speed>
  <fix>3d</fix>
</trkpt>
<trkpt lat="33.810313" lon="-118.393867">
  <ele>-0.12</ele>
  <time>2026-09-02T22:08:15Z</time>
  <course>0.0</course>
  <speed>0.0</speed>
  <fix>3d</fix>
</trkpt>
<trkpt lat="33.810313" lon="-118.393867">
  <ele>-0.123</ele>
  <time>2026-09-02T22:08:15Z</time>
  <course>188.33</course>
  <speed>0.01414213562373095</speed>
  <fix>3d</fix>
</trkpt>
<trkpt lat="33.810313" lon="-118.393867">
  <ele>-0.12</ele>
  <time>2026-09-02T22:08:15Z</time>
  <course>0.0</course>
  <speed>0.0</speed>
  <fix>3d</fix>
</trkpt>
<trkpt lat="33.810313" lon="-118.393867">
  <ele>-0.125</ele>
  <time>2026-09-02T22:08:15Z</time>
  <course>188.33</course>
  <speed>0.01414213562373095</speed>
  <fix>3d</fix>
</trkpt>
<trkpt lat="33.810313" lon="-118.393867">
  <ele>-0.12</ele>
  <time>2026-09-02T22:08:15Z</time>
  <course>0.0</course>
  <speed>0.0</speed>
  <fix>3d</fix>
</trkpt>
<trkpt lat="33.810313" lon="-118.393867">
  <ele>-0.128</ele>
  <time>2026-09-02T22:08:15Z</time>
  <course>188.32</course>
  <speed>0.01414213562373095</speed>
  <fix>3d</fix>
</trkpt>
<trkpt lat="33.810313" lon="-118.393867">
  <ele>-0.12</ele>
  <time>2026-09-02T22:08:15Z</time>
  <course>0.0</course>
  <speed>0.0</speed>
  <fix>3d</fix>
</trkpt>
<trkpt lat="33.810313" lon="-118.393867">
  <ele>-0.132</ele>
  <time>2026-09-02T22:08:15Z</time>
  <course>188.31</course>
  <speed>0.01414213562373095</speed>
  <fix>3d</fix>
</trkpt>
<trkpt lat="33.810313" lon="-118.393867">
  <ele>-0.12</ele>
  <time>2026-09-02T22:08:15Z</time>
  <course>0.0</course>
  <speed>0.0</speed>
  <fix>3d</fix>
</trkpt>
<trkpt lat="33.810313" lon="-118.393867">
  <ele>-0.135</ele>
  <time>2026-09-02T22:08:15Z</time>
  <course>188.3</course>
  <speed>0.01414213562373095</speed>
  <fix>3d</fix>
</trkpt>
<trkpt lat="33.810313" lon="-118.393867">
  <ele>-0.12</ele>
  <time>2026-09-02T22:08:15Z</time>
  <course>0.0</course>
  <speed>0.0</speed>
  <fix>3d</fix>
</trkpt>
<trkpt lat="33.810313" lon="-118.393867">
  <ele>-0.135</ele>
  <time>2026-09-02T22:08:15Z</time>
  <course>188.3</course>
  <speed>0.01414213562373095</speed>
  <fix>3d</fix>
</trkpt>
<trkpt lat="33.810313" lon="-118.393867">
  <ele>-0.12</ele>
  <time>2026-09-02T22:08:15Z</time>
  <course>0.0</course>
  <speed>0.0</speed>
  <fix>3d</fix>
</trkpt>
<trkpt lat="33.810313" lon="-118.393867">
  <ele>-0.134</ele>
  <time>2026-09-02T22:08:15Z</time>
  <course>188.29</course>
  <speed>0.01414213562373095</speed>
  <fix>3d</fix>
</trkpt>
<trkpt lat="33.810313" lon="-118.393867">
  <ele>-0.12</ele>
  <time>2026-09-02T22:08:15Z</time>
  <course>0.0</course>
  <speed>0.0</speed>
  <fix>3d</fix>
</trkpt>
<trkpt lat="33.810313" lon="-118.393867">
  <ele>-0.132</ele>
  <time>2026-09-02T22:08:15Z</time>
  <course>188.28</course>
  <speed>0.01414213562373095</speed>
  <fix>3d</fix>
</trkpt>
<trkpt lat="33.810313" lon="-118.393867">
  <ele>-0.12</ele>
  <time>2026-09-02T22:08:15Z</time>
  <course>0.0</course>
  <speed>0.0</speed>
  <fix>3d</fix>
</trkpt>
<trkpt lat="33.810313" lon="-118.393867">
  <ele>-0.129</ele>
  <time>2026-09-02T22:08:15Z</time>
  <course>188.27</course>
  <speed>0.01414213562373095</speed>
  <fix>3d</fix>
</trkpt>
<trkpt lat="33.810313" lon="-118.393867">
  <ele>-0.12</ele>
  <time>2026-09-02T22:08:15Z</time>
  <course>0.0</course>
  <speed>0.0</speed>
  <fix>3d</fix>
</trkpt>
<trkpt lat="33.810313" lon="-118.393867">
  <ele>-0.127</ele>
  <time>2026-09-02T22:08:15Z</time>
  <course>188.26</course>
  <speed>0.01414213562373095</speed>
  <fix>3d</fix>
</trkpt>
<trkpt lat="33.810313" lon="-118.393867">
  <ele>-0.12</ele>
  <time>2026-09-02T22:08:15Z</time>
  <course>0.0</course>
  <speed>0.0</speed>
  <fix>3d</fix>
</trkpt>
<trkpt lat="33.810313" lon="-118.393867">
  <ele>-0.124</ele>
  <time>2026-09-02T22:08:15Z</time>
  <course>188.25</course>
  <speed>0.01414213562373095</speed>
  <fix>3d</fix>
</trkpt>
<trkpt lat="33.810313" lon="-118.393867">
  <ele>-0.12</ele>
  <time>2026-09-02T22:08:15Z</time>
  <course>0.0</course>
  <speed>0.0</speed>
  <fix>3d</fix>
</trkpt>
<trkpt lat="33.810313" lon="-118.393867">
  <ele>-0.123</ele>
  <time>2026-09-02T22:08:15Z</time>
  <course>188.25</course>
  <speed>0.01414213562373095</speed>
  <fix>3d</fix>
</trkpt>
<trkpt lat="33.810313" lon="-118.393867">
  <ele>-0.12</ele>
  <time>2026-09-02T22:08:15Z</time>
  <course>0.0</course>
  <speed>0.0</speed>
  <fix>3d</fix>
</trkpt>
<trkpt lat="33.810313" lon="-118.393867">
  <ele>-0.124</ele>
  <time>2026-09-02T22:08:15Z</time>
  <course>188.24</course>
  <speed>0.01414213562373095</speed>
  <fix>3d</fix>
</trkpt>
<trkpt lat="33.810313" lon="-118.393867">
  <ele>-0.12</ele>
  <time>2026-09-02T22:08:15Z</time>
  <course>0.0</course>
  <speed>0.0</speed>
  <fix>3d</fix>
</trkpt>
<trkpt lat="33.810313" lon="-118.393867">
  <ele>-0.126</ele>
  <time>2026-09-02T22:08:15Z</time>
  <course>188.23</course>
  <speed>0.01414213562373095</speed>
  <fix>3d</fix>
</trkpt>
<trkpt lat="33.810313" lon="-118.393867">
  <ele>-0.12</ele>
  <time>2026-09-02T22:08:15Z</time>
  <course>0.0</course>
  <speed>0.0</speed>
  <fix>3d</fix>
</trkpt>
<trkpt lat="33.810313" lon="-118.393867">
  <ele>-0.127</ele>
  <time>2026-09-02T22:08:15Z</time>
  <course>188.22</course>
  <speed>0.01414213562373095</speed>
  <fix>3d</fix>
</trkpt>
<trkpt lat="33.810313" lon="-118.393867">
  <ele>-0.12</ele>
  <time>2026-09-02T22:08:15Z</time>
  <course>0.0</course>
  <speed>0.0</speed>
  <fix>3d</fix>
</trkpt>
<trkpt lat="33.810313" lon="-118.393867">
  <ele>-0.129</ele>
  <time>2026-09-02T22:08:15Z</time>
  <course>188.21</course>
  <speed>0.01414213562373095</speed>
  <fix>3d</fix>
</trkpt>
<trkpt lat="33.810313" lon="-118.393867">
  <ele>-0.12</ele>
  <time>2026-09-02T22:08:15Z</time>
  <course>0.0</course>
  <speed>0.0</speed>
  <fix>3d</fix>
</trkpt>
<trkpt lat="33.810313" lon="-118.393867">
  <ele>-0.129</ele>
  <time>2026-09-02T22:08:15Z</time>
  <course>188.21</course>
  <speed>0.01414213562373095</speed>
  <fix>3d</fix>
</trkpt>
<trkpt lat="33.810313" lon="-118.393867">
  <ele>-0.12</ele>
  <time>2026-09-02T22:08:15Z</time>
  <course>0.0</course>
  <speed>0.0</speed>
  <fix>3d</fix>
</trkpt>
<trkpt lat="33.810313" lon="-118.393867">
  <ele>-0.129</ele>
  <time>2026-09-02T22:08:15Z</time>
  <course>188.2</course>
  <speed>0.01414213562373095</speed>
  <fix>3d</fix>
</trkpt>
<trkpt lat="33.810313" lon="-118.393867">
  <ele>-0.12</ele>
  <time>2026-09-02T22:08:15Z</time>
  <course>0.0</course>
  <speed>0.0</speed>
  <fix>3d</fix>
</trkpt>
<trkpt lat="33.810313" lon="-118.393867">
  <ele>-0.128</ele>
  <time>2026-09-02T22:08:15Z</time>
  <course>188.19</course>
  <speed>0.01414213562373095</speed>
  <fix>3d</fix>
</trkpt>
<trkpt lat="33.810313" lon="-118.393867">
  <ele>-0.12</ele>
  <time>2026-09-02T22:08:15Z</time>
  <course>0.0</course>
  <speed>0.0</speed>
  <fix>3d</fix>
</trkpt>
<trkpt lat="33.810313" lon="-118.393867">
  <ele>-0.128</ele>
  <time>2026-09-02T22:08:15Z</time>
  <course>188.18</course>
  <speed>0.01414213562373095</speed>
  <fix>3d</fix>
</trkpt>
<trkpt lat="33.810313" lon="-118.393867">
  <ele>-0.12</ele>
  <time>2026-09-02T22:08:15Z</time>
  <course>0.0</course>
  <speed>0.0</speed>
  <fix>3d</fix>
</trkpt>
<trkpt lat="33.810313" lon="-118.393867">
  <ele>-0.127</ele>
  <time>2026-09-02T22:08:15Z</time>
  <course>188.17</course>
  <speed>0.01414213562373095</speed>
  <fix>3d</fix>
</trkpt>
<trkpt lat="33.810313" lon="-118.393867">
  <ele>-0.12</ele>
  <time>2026-09-02T22:08:15Z</time>
  <course>0.0</course>
  <speed>0.0</speed>
  <fix>3d</fix>
</trkpt>
<trkpt lat="33.810313" lon="-118.393867">
  <ele>-0.127</ele>
  <time>2026-09-02T22:08:15Z</time>
  <course>188.16</course>
  <speed>0.01414213562373095</speed>
  <fix>3d</fix>
</trkpt>
<trkpt lat="33.810313" lon="-118.393867">
  <ele>-0.12</ele>
  <time>2026-09-02T22:08:15Z</time>
  <course>0.0</course>
  <speed>0.0</speed>
  <fix>3d</fix>
</trkpt>
<trkpt lat="33.810313" lon="-118.393867">
  <ele>-0.128</ele>
  <time>2026-09-02T22:08:15Z</time>
  <course>188.16</course>
  <speed>0.01414213562373095</speed>
  <fix>3d</fix>
</trkpt>
<trkpt lat="33.810313" lon="-118.393867">
  <ele>-0.12</ele>
  <time>2026-09-02T22:08:15Z</time>
  <course>0.0</course>
  <speed>0.0</speed>
  <fix>3d</fix>
</trkpt>
<trkpt lat="33.810313" lon="-118.393867">
  <ele>-0.129</ele>
  <time>2026-09-02T22:08:15Z</time>
  <course>188.15</course>
  <speed>0.01414213562373095</speed>
  <fix>3d</fix>
</trkpt>
<trkpt lat="33.810313" lon="-118.393867">
  <ele>-0.12</ele>
  <time>2026-09-02T22:08:15Z</time>
  <course>0.0</course>
  <speed>0.0</speed>
  <fix>3d</fix>
</trkpt>
<trkpt lat="33.810313" lon="-118.393867">
  <ele>-0.131</ele>
  <time>2026-09-02T22:08:15Z</time>
  <course>188.14</course>
  <speed>0.01414213562373095</speed>
  <fix>3d</fix>
</trkpt>
<trkpt lat="33.810313" lon="-118.393867">
  <ele>-0.12</ele>
  <time>2026-09-02T22:08:15Z</time>
  <course>0.0</course>
  <speed>0.0</speed>
  <fix>3d</fix>
</trkpt>
<trkpt lat="33.810313" lon="-118.393867">
  <ele>-0.133</ele>
  <time>2026-09-02T22:08:15Z</time>
  <course>188.13</course>
  <speed>0.01414213562373095</speed>
  <fix>3d</fix>
</trkpt>
<trkpt lat="33.810313" lon="-118.393867">
  <ele>-0.12</ele>
  <time>2026-09-02T22:08:15Z</time>
  <course>0.0</course>
  <speed>0.0</speed>
  <fix>3d</fix>
</trkpt>
<trkpt lat="33.810313" lon="-118.393867">
  <ele>-0.135</ele>
  <time>2026-09-02T22:08:15Z</time>
  <course>188.12</course>
  <speed>0.01414213562373095</speed>
  <fix>3d</fix>
</trkpt>
<trkpt lat="33.810313" lon="-118.393867">
  <ele>-0.12</ele>
  <time>2026-09-02T22:08:15Z</time>
  <course>0.0</course>
  <speed>0.0</speed>
  <fix>3d</fix>
</trkpt>
<trkpt lat="33.810313" lon="-118.393867">
  <ele>-0.136</ele>
  <time>2026-09-02T22:08:15Z</time>
  <course>188.12</course>
  <speed>0.01414213562373095</speed>
  <fix>3d</fix>
</trkpt>
<trkpt lat="33.810313" lon="-118.393867">
  <ele>-0.12</ele>
  <time>2026-09-02T22:08:15Z</time>
  <course>0.0</course>
  <speed>0.0</speed>
  <fix>3d</fix>
</trkpt>
<trkpt lat="33.810313" lon="-118.393867">
  <ele>-0.136</ele>
  <time>2026-09-02T22:08:15Z</time>
  <course>188.11</course>
  <speed>0.01414213562373095</speed>
  <fix>3d</fix>
</trkpt>
<trkpt lat="33.810313" lon="-118.393867">
  <ele>-0.12</ele>
  <time>2026-09-02T22:08:15Z</time>
  <course>0.0</course>
  <speed>0.0</speed>
  <fix>3d</fix>
</trkpt>
<trkpt lat="33.810313" lon="-118.393867">
  <ele>-0.136</ele>
  <time>2026-09-02T22:08:15Z</time>
  <course>188.1</course>
  <speed>0.01414213562373095</speed>
  <fix>3d</fix>
</trkpt>
<trkpt lat="33.810313" lon="-118.393867">
  <ele>-0.12</ele>
  <time>2026-09-02T22:08:15Z</time>
  <course>0.0</course>
  <speed>0.0</speed>
  <fix>3d</fix>
</trkpt>
<trkpt lat="33.810313" lon="-118.393867">
  <ele>-0.135</ele>
  <time>2026-09-02T22:08:15Z</time>
  <course>188.09</course>
  <speed>0.01414213562373095</speed>
  <fix>3d</fix>
</trkpt>
<trkpt lat="33.810313" lon="-118.393867">
  <ele>-0.12</ele>
  <time>2026-09-02T22:08:15Z</time>
  <course>0.0</course>
  <speed>0.0</speed>
  <fix>3d</fix>
</trkpt>
<trkpt lat="33.810313" lon="-118.393867">
  <ele>-0.134</ele>
  <time>2026-09-02T22:08:15Z</time>
  <course>188.08</course>
  <speed>0.01414213562373095</speed>
  <fix>3d</fix>
</trkpt>
<trkpt lat="33.810313" lon="-118.393867">
  <ele>-0.12</ele>
  <time>2026-09-02T22:08:15Z</time>
  <course>0.0</course>
  <speed>0.0</speed>
  <fix>3d</fix>
</trkpt>
<trkpt lat="33.810313" lon="-118.393867">
  <ele>-0.131</ele>
  <time>2026-09-02T22:08:15Z</time>
  <course>188.07</course>
  <speed>0.022360679774997897</speed>
  <fix>3d</fix>
</trkpt>
<trkpt lat="33.810313" lon="-118.393867">
  <ele>-0.12</ele>
  <time>2026-09-02T22:08:15Z</time>
  <course>0.0</course>
  <speed>0.0</speed>
  <fix>3d</fix>
</trkpt>
<trkpt lat="33.810313" lon="-118.393867">
  <ele>-0.128</ele>
  <time>2026-09-02T22:08:15Z</time>
  <course>188.07</course>
  <speed>0.022360679774997897</speed>
  <fix>3d</fix>
</trkpt>
<trkpt lat="33.810313" lon="-118.393867">
  <ele>-0.12</ele>
  <time>2026-09-02T22:08:15Z</time>
  <course>0.0</course>
  <speed>0.0</speed>
  <fix>3d</fix>
</trkpt>
<trkpt lat="33.810313" lon="-118.393867">
  <ele>-0.126</ele>
  <time>2026-09-02T22:08:15Z</time>
  <course>188.06</course>
  <speed>0.022360679774997897</speed>
  <fix>3d</fix>
</trkpt>
<trkpt lat="33.810313" lon="-118.393867">
  <ele>-0.12</ele>
  <time>2026-09-02T22:08:15Z</time>
  <course>0.0</course>
  <speed>0.0</speed>
  <fix>3d</fix>
</trkpt>
<trkpt lat="33.810313" lon="-118.393867">
  <ele>-0.126</ele>
  <time>2026-09-02T22:08:15Z</time>
  <course>188.05</course>
  <speed>0.022360679774997897</speed>
  <fix>3d</fix>
</trkpt>
<trkpt lat="33.810313" lon="-118.393867">
  <ele>-0.12</ele>
  <time>2026-09-02T22:08:15Z</time>
  <course>0.0</course>
  <speed>0.0</speed>
  <fix>3d</fix>
</trkpt>
<trkpt lat="33.810313" lon="-118.393867">
  <ele>-0.126</ele>
  <time>2026-09-02T22:08:15Z</time>
  <course>188.04</course>
  <speed>0.022360679774997897</speed>
  <fix>3d</fix>
</trkpt>
<trkpt lat="33.810313" lon="-118.393867">
  <ele>-0.12</ele>
  <time>2026-09-02T22:08:15Z</time>
  <course>0.0</course>
  <speed>0.0</speed>
  <fix>3d</fix>
</trkpt>
<trkpt lat="33.810313" lon="-118.393867">
  <ele>-0.127</ele>
  <time>2026-09-02T22:08:15Z</time>
  <course>188.03</course>
  <speed>0.022360679774997897</speed>
  <fix>3d</fix>
</trkpt>
<trkpt lat="33.810313" lon="-118.393867">
  <ele>-0.12</ele>
  <time>2026-09-02T22:08:15Z</time>
  <course>0.0</course>
  <speed>0.0</speed>
  <fix>3d</fix>
</trkpt>
<trkpt lat="33.810313" lon="-118.393867">
  <ele>-0.127</ele>
  <time>2026-09-02T22:08:15Z</time>
  <course>188.03</course>
  <speed>0.022360679774997897</speed>
  <fix>3d</fix>
</trkpt>
<trkpt lat="33.810313" lon="-118.393867">
  <ele>-0.12</ele>
  <time>2026-09-02T22:08:15Z</time>
  <course>0.0</course>
  <speed>0.0</speed>
  <fix>3d</fix>
</trkpt>
<trkpt lat="33.810313" lon="-118.393867">
  <ele>-0.127</ele>
  <time>2026-09-02T22:08:15Z</time>
  <course>188.02</course>
  <speed>0.022360679774997897</speed>
  <fix>3d</fix>
</trkpt>
<trkpt lat="33.810313" lon="-118.393867">
  <ele>-0.12</ele>
  <time>2026-09-02T22:08:15Z</time>
  <course>0.0</course>
  <speed>0.0</speed>
  <fix>3d</fix>
</trkpt>
<trkpt lat="33.810313" lon="-118.393867">
  <ele>-0.128</ele>
  <time>2026-09-02T22:08:15Z</time>
  <course>188.01</course>
  <speed>0.022360679774997897</speed>
  <fix>3d</fix>
</trkpt>
<trkpt lat="33.810313" lon="-118.393867">
  <ele>-0.12</ele>
  <time>2026-09-02T22:08:15Z</time>
  <course>0.0</course>
  <speed>0.0</speed>
  <fix>3d</fix>
</trkpt>
<trkpt lat="33.810313" lon="-118.393867">
  <ele>-0.128</ele>
  <time>2026-09-02T22:08:15Z</time>
  <course>188.0</course>
  <speed>0.022360679774997897</speed>
  <fix>3d</fix>
</trkpt>
<trkpt lat="33.810313" lon="-118.393867">
  <ele>-0.12</ele>
  <time>2026-09-02T22:08:15Z</time>
  <course>0.0</course>
  <speed>0.0</speed>
  <fix>3d</fix>
</trkpt>
<trkpt lat="33.810313" lon="-118.393867">
  <ele>-0.127</ele>
  <time>2026-09-02T22:08:15Z</time>
  <course>187.99</course>
  <speed>0.022360679774997897</speed>
  <fix>3d</fix>
</trkpt>
<trkpt lat="33.810313" lon="-118.393867">
  <ele>-0.12</ele>
  <time>2026-09-02T22:08:15Z</time>
  <course>0.0</course>
  <speed>0.0</speed>
  <fix>3d</fix>
</trkpt>
<trkpt lat="33.810313" lon="-118.393867">
  <ele>-0.126</ele>
  <time>2026-09-02T22:08:15Z</time>
  <course>187.98</course>
  <speed>0.022360679774997897</speed>
  <fix>3d</fix>
</trkpt>
<trkpt lat="33.810313" lon="-118.393867">
  <ele>-0.12</ele>
  <time>2026-09-02T22:08:15Z</time>
  <course>0.0</course>
  <speed>0.0</speed>
  <fix>3d</fix>
</trkpt>
<trkpt lat="33.810313" lon="-118.393867">
  <ele>-0.123</ele>
  <time>2026-09-02T22:08:15Z</time>
  <course>187.98</course>
  <speed>0.022360679774997897</speed>
  <fix>3d</fix>
</trkpt>
<trkpt lat="33.810313" lon="-118.393867">
  <ele>-0.12</ele>
  <time>2026-09-02T22:08:15Z</time>
  <course>0.0</course>
  <speed>0.0</speed>
  <fix>3d</fix>
</trkpt>
<trkpt lat="33.810313" lon="-118.393867">
  <ele>-0.121</ele>
  <time>2026-09-02T22:08:15Z</time>
  <course>187.97</course>
  <speed>0.022360679774997897</speed>
  <fix>3d</fix>
</trkpt>
<trkpt lat="33.810313" lon="-118.393867">
  <ele>-0.12</ele>
  <time>2026-09-02T22:08:15Z</time>
  <course>0.0</course>
  <speed>0.0</speed>
  <fix>3d</fix>
</trkpt>
<trkpt lat="33.810313" lon="-118.393867">
  <ele>-0.12</ele>
  <time>2026-09-02T22:08:15Z</time>
  <course>187.96</course>
  <speed>0.022360679774997897</speed>
  <fix>3d</fix>
</trkpt>
<trkpt lat="33.810313" lon="-118.393867">
  <ele>-0.12</ele>
  <time>2026-09-02T22:08:15Z</time>
  <course>0.0</course>
  <speed>0.0</speed>
  <fix>3d</fix>
</trkpt>
<trkpt lat="33.810313" lon="-118.393867">
  <ele>-0.12</ele>
  <time>2026-09-02T22:08:15Z</time>
  <course>187.95</course>
  <speed>0.022360679774997897</speed>
  <fix>3d</fix>
</trkpt>
<trkpt lat="33.810313" lon="-118.393867">
  <ele>-0.12</ele>
  <time>2026-09-02T22:08:15Z</time>
  <course>0.0</course>
  <speed>0.0</speed>
  <fix>3d</fix>
</trkpt>
<trkpt lat="33.810313" lon="-118.393867">
  <ele>-0.122</ele>
  <time>2026-09-02T22:08:15Z</time>
  <course>187.94</course>
  <speed>0.022360679774997897</speed>
  <fix>3d</fix>
</trkpt>
<trkpt lat="33.810313" lon="-118.393867">
  <ele>-0.12</ele>
  <time>2026-09-02T22:08:15Z</time>
  <course>0.0</course>
  <speed>0.0</speed>
  <fix>3d</fix>
</trkpt>
<trkpt lat="33.810313" lon="-118.393867">
  <ele>-0.125</ele>
  <time>2026-09-02T22:08:15Z</time>
  <course>187.94</course>
  <speed>0.022360679774997897</speed>
  <fix>3d</fix>
</trkpt>
<trkpt lat="33.810313" lon="-118.393867">
  <ele>-0.12</ele>
  <time>2026-09-02T22:08:15Z</time>
  <course>0.0</course>
  <speed>0.0</speed>
  <fix>3d</fix>
</trkpt>
<trkpt lat="33.810313" lon="-118.393867">
  <ele>-0.129</ele>
  <time>2026-09-02T22:08:15Z</time>
  <course>187.93</course>
  <speed>0.022360679774997897</speed>
  <fix>3d</fix>
</trkpt>
<trkpt lat="33.810313" lon="-118.393867">
  <ele>-0.12</ele>
  <time>2026-09-02T22:08:15Z</time>
  <course>0.0</course>
  <speed>0.0</speed>
  <fix>3d</fix>
</trkpt>
<trkpt lat="33.810313" lon="-118.393867">
  <ele>-0.131</ele>
  <time>2026-09-02T22:08:15Z</time>
  <course>187.92</course>
  <speed>0.022360679774997897</speed>
  <fix>3d</fix>
</trkpt>
<trkpt lat="33.810313" lon="-118.393867">
  <ele>-0.12</ele>
  <time>2026-09-02T22:08:15Z</time>
  <course>0.0</course>
  <speed>0.0</speed>
  <fix>3d</fix>
</trkpt>
<trkpt lat="33.810313" lon="-118.393867">
  <ele>-0.132</ele>
  <time>2026-09-02T22:08:15Z</time>
  <course>187.91</course>
  <speed>0.022360679774997897</speed>
  <fix>3d</fix>
</trkpt>
<trkpt lat="33.810313" lon="-118.393867">
  <ele>-0.12</ele>
  <time>2026-09-02T22:08:15Z</time>
  <course>0.0</course>
  <speed>0.0</speed>
  <fix>3d</fix>
</trkpt>
<trkpt lat="33.810313" lon="-118.393867">
  <ele>-0.132</ele>
  <time>2026-09-02T22:08:15Z</time>
  <course>187.9</course>
  <speed>0.022360679774997897</speed>
  <fix>3d</fix>
</trkpt>
<trkpt lat="33.810313" lon="-118.393867">
  <ele>-0.12</ele>
  <time>2026-09-02T22:08:15Z</time>
  <course>0.0</course>
  <speed>0.0</speed>
  <fix>3d</fix>
</trkpt>
<trkpt lat="33.810313" lon="-118.393867">
  <ele>-0.132</ele>
  <time>2026-09-02T22:08:15Z</time>
  <course>187.9</course>
  <speed>0.022360679774997897</speed>
  <fix>3d</fix>
</trkpt>
<trkpt lat="33.810313" lon="-118.393867">
  <ele>-0.12</ele>
  <time>2026-09-02T22:08:15Z</time>
  <course>0.0</course>
  <speed>0.0</speed>
  <fix>3d</fix>
</trkpt>
<trkpt lat="33.810313" lon="-118.393867">
  <ele>-0.13</ele>
  <time>2026-09-02T22:08:15Z</time>
  <course>187.89</course>
  <speed>0.022360679774997897</speed>
  <fix>3d</fix>
</trkpt>
<trkpt lat="33.810313" lon="-118.393867">
  <ele>-0.12</ele>
  <time>2026-09-02T22:08:15Z</time>
  <course>0.0</course>
  <speed>0.0</speed>
  <fix>3d</fix>
</trkpt>
<trkpt lat="33.810313" lon="-118.393867">
  <ele>-0.127</ele>
  <time>2026-09-02T22:08:15Z</time>
  <course>187.88</course>
  <speed>0.022360679774997897</speed>
  <fix>3d</fix>
</trkpt>
<trkpt lat="33.810313" lon="-118.393867">
  <ele>-0.12</ele>
  <time>2026-09-02T22:08:15Z</time>
  <course>0.0</course>
  <speed>0.0</speed>
  <fix>3d</fix>
</trkpt>
<trkpt lat="33.810313" lon="-118.393867">
  <ele>-0.123</ele>
  <time>2026-09-02T22:08:15Z</time>
  <course>187.87</course>
  <speed>0.022360679774997897</speed>
  <fix>3d</fix>
</trkpt>
<trkpt lat="33.810313" lon="-118.393867">
  <ele>-0.12</ele>
  <time>2026-09-02T22:08:15Z</time>
  <course>0.0</course>
  <speed>0.0</speed>
  <fix>3d</fix>
</trkpt>
<trkpt lat="33.810313" lon="-118.393867">
  <ele>-0.121</ele>
  <time>2026-09-02T22:08:15Z</time>
  <course>187.87</course>
  <speed>0.022360679774997897</speed>
  <fix>3d</fix>
</trkpt>
<trkpt lat="33.810313" lon="-118.393867">
  <ele>-0.12</ele>
  <time>2026-09-02T22:08:15Z</time>
  <course>0.0</course>
  <speed>0.0</speed>
  <fix>3d</fix>
</trkpt>
<trkpt lat="33.810313" lon="-118.393867">
  <ele>-0.121</ele>
  <time>2026-09-02T22:08:15Z</time>
  <course>187.86</course>
  <speed>0.022360679774997897</speed>
  <fix>3d</fix>
</trkpt>
<trkpt lat="33.810313" lon="-118.393867">
  <ele>-0.12</ele>
  <time>2026-09-02T22:08:15Z</time>
  <course>0.0</course>
  <speed>0.0</speed>
  <fix>3d</fix>
</trkpt>
<trkpt lat="33.810313" lon="-118.393867">
  <ele>-0.123</ele>
  <time>2026-09-02T22:08:15Z</time>
  <course>187.85</course>
  <speed>0.022360679774997897</speed>
  <fix>3d</fix>
</trkpt>
<trkpt lat="33.810313" lon="-118.393867">
  <ele>-0.12</ele>
  <time>2026-09-02T22:08:15Z</time>
  <course>0.0</course>
  <speed>0.0</speed>
  <fix>3d</fix>
</trkpt>
<trkpt lat="33.810313" lon="-118.393867">
  <ele>-0.124</ele>
  <time>2026-09-02T22:08:15Z</time>
  <course>187.84</course>
  <speed>0.022360679774997897</speed>
  <fix>3d</fix>
</trkpt>
<trkpt lat="33.810313" lon="-118.393867">
  <ele>-0.12</ele>
  <time>2026-09-02T22:08:15Z</time>
  <course>0.0</course>
  <speed>0.0</speed>
  <fix>3d</fix>
</trkpt>
<trkpt lat="33.810313" lon="-118.393867">
  <ele>-0.126</ele>
  <time>2026-09-02T22:08:15Z</time>
  <course>187.83</course>
  <speed>0.022360679774997897</speed>
  <fix>3d</fix>
</trkpt>
<trkpt lat="33.810313" lon="-118.393867">
  <ele>-0.12</ele>
  <time>2026-09-02T22:08:15Z</time>
  <course>0.0</course>
  <speed>0.0</speed>
  <fix>3d</fix>
</trkpt>
<trkpt lat="33.810313" lon="-118.393867">
  <ele>-0.127</ele>
  <time>2026-09-02T22:08:15Z</time>
  <course>187.83</course>
  <speed>0.022360679774997897</speed>
  <fix>3d</fix>
</trkpt>
<trkpt lat="33.810313" lon="-118.393867">
  <ele>-0.12</ele>
  <time>2026-09-02T22:08:15Z</time>
  <course>0.0</course>
  <speed>0.0</speed>
  <fix>3d</fix>
</trkpt>
<trkpt lat="33.810313" lon="-118.393867">
  <ele>-0.127</ele>
  <time>2026-09-02T22:08:15Z</time>
  <course>187.82</course>
  <speed>0.022360679774997897</speed>
  <fix>3d</fix>
</trkpt>
<trkpt lat="33.810313" lon="-118.393867">
  <ele>-0.12</ele>
  <time>2026-09-02T22:08:15Z</time>
  <course>0.0</course>
  <speed>0.0</speed>
  <fix>3d</fix>
</trkpt>
<trkpt lat="33.810313" lon="-118.393867">
  <ele>-0.127</ele>
  <time>2026-09-02T22:08:15Z</time>
  <course>187.81</course>
  <speed>0.022360679774997897</speed>
  <fix>3d</fix>
</trkpt>
<trkpt lat="33.810313" lon="-118.393867">
  <ele>-0.12</ele>
  <time>2026-09-02T22:08:15Z</time>
  <course>0.0</course>
  <speed>0.0</speed>
  <fix>3d</fix>
</trkpt>
<trkpt lat="33.810313" lon="-118.393867">
  <ele>-0.126</ele>
  <time>2026-09-02T22:08:15Z</time>
  <course>187.8</course>
  <speed>0.022360679774997897</speed>
  <fix>3d</fix>
</trkpt>
<trkpt lat="33.810313" lon="-118.393867">
  <ele>-0.12</ele>
  <time>2026-09-02T22:08:15Z</time>
  <course>0.0</course>
  <speed>0.0</speed>
  <fix>3d</fix>
</trkpt>
<trkpt lat="33.810313" lon="-118.393867">
  <ele>-0.124</ele>
  <time>2026-09-02T22:08:15Z</time>
  <course>187.8</course>
  <speed>0.022360679774997897</speed>
  <fix>3d</fix>
</trkpt>
<trkpt lat="33.810313" lon="-118.393867">
  <ele>-0.12</ele>
  <time>2026-09-02T22:08:15Z</time>
  <course>0.0</course>
  <speed>0.0</speed>
  <fix>3d</fix>
</trkpt>
<trkpt lat="33.810313" lon="-118.393867">
  <ele>-0.121</ele>
  <time>2026-09-02T22:08:15Z</time>
  <course>187.79</course>
  <speed>0.022360679774997897</speed>
  <fix>3d</fix>
</trkpt>
<trkpt lat="33.810313" lon="-118.393867">
  <ele>-0.12</ele>
  <time>2026-09-02T22:08:15Z</time>
  <course>0.0</course>
  <speed>0.0</speed>
  <fix>3d</fix>
</trkpt>
<trkpt lat="33.810313" lon="-118.393867">
  <ele>-0.119</ele>
  <time>2026-09-02T22:08:15Z</time>
  <course>187.78</course>
  <speed>0.022360679774997897</speed>
  <fix>3d</fix>
</trkpt>
<trkpt lat="33.810313" lon="-118.393867">
  <ele>-0.12</ele>
  <time>2026-09-02T22:08:15Z</time>
  <course>0.0</course>
  <speed>0.0</speed>
  <fix>3d</fix>
</trkpt>
<trkpt lat="33.810313" lon="-118.393867">
  <ele>-0.118</ele>
  <time>2026-09-02T22:08:15Z</time>
  <course>187.77</course>
  <speed>0.022360679774997897</speed>
  <fix>3d</fix>
</trkpt>
<trkpt lat="33.810313" lon="-118.393867">
  <ele>-0.12</ele>
  <time>2026-09-02T22:08:15Z</time>
  <course>0.0</course>
  <speed>0.0</speed>
  <fix>3d</fix>
</trkpt>
<trkpt lat="33.810313" lon="-118.393867">
  <ele>-0.118</ele>
  <time>2026-09-02T22:08:15Z</time>
  <course>187.76</course>
  <speed>0.022360679774997897</speed>
  <fix>3d</fix>
</trkpt>
<trkpt lat="33.810313" lon="-118.393867">
  <ele>-0.12</ele>
  <time>2026-09-02T22:08:15Z</time>
  <course>0.0</course>
  <speed>0.0</speed>
  <fix>3d</fix>
</trkpt>
<trkpt lat="33.810313" lon="-118.393867">
  <ele>-0.119</ele>
  <time>2026-09-02T22:08:15Z</time>
  <course>187.76</course>
  <speed>0.022360679774997897</speed>
  <fix>3d</fix>
</trkpt>
<trkpt lat="33.810313" lon="-118.393867">
  <ele>-0.12</ele>
  <time>2026-09-02T22:08:15Z</time>
  <course>0.0</course>
  <speed>0.0</speed>
  <fix>3d</fix>
</trkpt>
<trkpt lat="33.810313" lon="-118.393867">
  <ele>-0.12</ele>
  <time>2026-09-02T22:08:15Z</time>
  <course>187.75</course>
  <speed>0.022360679774997897</speed>
  <fix>3d</fix>
</trkpt>
<trkpt lat="33.810313" lon="-118.393867">
  <ele>-0.12</ele>
  <time>2026-09-02T22:08:15Z</time>
  <course>0.0</course>
  <speed>0.0</speed>
  <fix>3d</fix>
</trkpt>
<trkpt lat="33.810313" lon="-118.393867">
  <ele>-0.12</ele>
  <time>2026-09-02T22:08:15Z</time>
  <course>187.74</course>
  <speed>0.0282842712474619</speed>
  <fix>3d</fix>
</trkpt>
<trkpt lat="33.810313" lon="-118.393867">
  <ele>-0.12</ele>
  <time>2026-09-02T22:08:15Z</time>
  <course>0.0</course>
  <speed>0.0</speed>
  <fix>3d</fix>
</trkpt>
<trkpt lat="33.810313" lon="-118.393867">
  <ele>-0.12</ele>
  <time>2026-09-02T22:08:15Z</time>
  <course>187.74</course>
  <speed>0.0282842712474619</speed>
  <fix>3d</fix>
</trkpt>
<trkpt lat="33.810313" lon="-118.393867">
  <ele>-0.12</ele>
  <time>2026-09-02T22:08:15Z</time>
  <course>0.0</course>
  <speed>0.0</speed>
  <fix>3d</fix>
</trkpt>
<trkpt lat="33.810313" lon="-118.393867">
  <ele>-0.119</ele>
  <time>2026-09-02T22:08:15Z</time>
  <course>187.73</course>
  <speed>0.0282842712474619</speed>
  <fix>3d</fix>
</trkpt>
<trkpt lat="33.810313" lon="-118.393867">
  <ele>-0.12</ele>
  <time>2026-09-02T22:08:15Z</time>
  <course>0.0</course>
  <speed>0.0</speed>
  <fix>3d</fix>
</trkpt>
<trkpt lat="33.810313" lon="-118.393867">
  <ele>-0.118</ele>
  <time>2026-09-02T22:08:15Z</time>
  <course>187.72</course>
  <speed>0.0282842712474619</speed>
  <fix>3d</fix>
</trkpt>
<trkpt lat="33.810313" lon="-118.393867">
  <ele>-0.12</ele>
  <time>2026-09-02T22:08:15Z</time>
  <course>0.0</course>
  <speed>0.0</speed>
  <fix>3d</fix>
</trkpt>
<trkpt lat="33.810313" lon="-118.393867">
  <ele>-0.116</ele>
  <time>2026-09-02T22:08:15Z</time>
  <course>187.71</course>
  <speed>0.0282842712474619</speed>
  <fix>3d</fix>
</trkpt>
<trkpt lat="33.810313" lon="-118.393867">
  <ele>-0.12</ele>
  <time>2026-09-02T22:08:15Z</time>
  <course>0.0</course>
  <speed>0.0</speed>
  <fix>3d</fix>
</trkpt>
<trkpt lat="33.810313" lon="-118.393867">
  <ele>-0.113</ele>
  <time>2026-09-02T22:08:15Z</time>
  <course>187.71</course>
  <speed>0.0282842712474619</speed>
  <fix>3d</fix>
</trkpt>
<trkpt lat="33.810313" lon="-118.393867">
  <ele>-0.12</ele>
  <time>2026-09-02T22:08:15Z</time>
  <course>0.0</course>
  <speed>0.0</speed>
  <fix>3d</fix>
</trkpt>
<trkpt lat="33.810313" lon="-118.393867">
  <ele>-0.112</ele>
  <time>2026-09-02T22:08:15Z</time>
  <course>187.7</course>
  <speed>0.0282842712474619</speed>
  <fix>3d</fix>
</trkpt>
<trkpt lat="33.810313" lon="-118.393867">
  <ele>-0.12</ele>
  <time>2026-09-02T22:08:15Z</time>
  <course>0.0</course>
  <speed>0.0</speed>
  <fix>3d</fix>
</trkpt>
<trkpt lat="33.810313" lon="-118.393867">
  <ele>-0.113</ele>
  <time>2026-09-02T22:08:15Z</time>
  <course>187.69</course>
  <speed>0.0282842712474619</speed>
  <fix>3d</fix>
</trkpt>
<trkpt lat="33.810313" lon="-118.393867">
  <ele>-0.12</ele>
  <time>2026-09-02T22:08:15Z</time>
  <course>0.0</course>
  <speed>0.0</speed>
  <fix>3d</fix>
</trkpt>
<trkpt lat="33.810313" lon="-118.393867">
  <ele>-0.115</ele>
  <time>2026-09-02T22:08:15Z</time>
  <course>187.68</course>
  <speed>0.0282842712474619</speed>
  <fix>3d</fix>
</trkpt>
<trkpt lat="33.810313" lon="-118.393867">
  <ele>-0.12</ele>
  <time>2026-09-02T22:08:15Z</time>
  <course>0.0</course>
  <speed>0.0</speed>
  <fix>3d</fix>
</trkpt>
<trkpt lat="33.810313" lon="-118.393867">
  <ele>-0.119</ele>
  <time>2026-09-02T22:08:15Z</time>
  <course>187.68</course>
  <speed>0.0282842712474619</speed>
  <fix>3d</fix>
</trkpt>
<trkpt lat="33.810313" lon="-118.393867">
  <ele>-0.12</ele>
  <time>2026-09-02T22:08:15Z</time>
  <course>0.0</course>
  <speed>0.0</speed>
  <fix>3d</fix>
</trkpt>
<trkpt lat="33.810313" lon="-118.393867">
  <ele>-0.124</ele>
  <time>2026-09-02T22:08:15Z</time>
  <course>187.67</course>
  <speed>0.0282842712474619</speed>
  <fix>3d</fix>
</trkpt>
<trkpt lat="33.810313" lon="-118.393867">
  <ele>-0.12</ele>
  <time>2026-09-02T22:08:15Z</time>
  <course>0.0</course>
  <speed>0.0</speed>
  <fix>3d</fix>
</trkpt>
<trkpt lat="33.810313" lon="-118.393867">
  <ele>-0.129</ele>
  <time>2026-09-02T22:08:15Z</time>
  <course>187.66</course>
  <speed>0.0282842712474619</speed>
  <fix>3d</fix>
</trkpt>
<trkpt lat="33.810313" lon="-118.393867">
  <ele>-0.12</ele>
  <time>2026-09-02T22:08:15Z</time>
  <course>0.0</course>
  <speed>0.0</speed>
  <fix>3d</fix>
</trkpt>
<trkpt lat="33.810313" lon="-118.393867">
  <ele>-0.133</ele>
  <time>2026-09-02T22:08:15Z</time>
  <course>187.66</course>
  <speed>0.0282842712474619</speed>
  <fix>3d</fix>
</trkpt>
<trkpt lat="33.810313" lon="-118.393867">
  <ele>-0.12</ele>
  <time>2026-09-02T22:08:15Z</time>
  <course>0.0</course>
  <speed>0.0</speed>
  <fix>3d</fix>
</trkpt>
<trkpt lat="33.810313" lon="-118.393867">
  <ele>-0.135</ele>
  <time>2026-09-02T22:08:15Z</time>
  <course>187.65</course>
  <speed>0.0282842712474619</speed>
  <fix>3d</fix>
</trkpt>
<trkpt lat="33.810313" lon="-118.393867">
  <ele>-0.12</ele>
  <time>2026-09-02T22:08:15Z</time>
  <course>0.0</course>
  <speed>0.0</speed>
  <fix>3d</fix>
</trkpt>
<trkpt lat="33.810313" lon="-118.393867">
  <ele>-0.135</ele>
  <time>2026-09-02T22:08:15Z</time>
  <course>187.64</course>
  <speed>0.0282842712474619</speed>
  <fix>3d</fix>
</trkpt>
<trkpt lat="33.810313" lon="-118.393867">
  <ele>-0.12</ele>
  <time>2026-09-02T22:08:15Z</time>
  <course>0.0</course>
  <speed>0.0</speed>
  <fix>3d</fix>
</trkpt>
<trkpt lat="33.810313" lon="-118.393867">
  <ele>-0.135</ele>
  <time>2026-09-02T22:08:15Z</time>
  <course>187.64</course>
  <speed>0.0282842712474619</speed>
  <fix>3d</fix>
</trkpt>
<trkpt lat="33.810313" lon="-118.393867">
  <ele>-0.12</ele>
  <time>2026-09-02T22:08:15Z</time>
  <course>0.0</course>
  <speed>0.0</speed>
  <fix>3d</fix>
</trkpt>
<trkpt lat="33.810313" lon="-118.393867">
  <ele>-0.133</ele>
  <time>2026-09-02T22:08:15Z</time>
  <course>187.63</course>
  <speed>0.0282842712474619</speed>
  <fix>3d</fix>
</trkpt>
<trkpt lat="33.810313" lon="-118.393867">
  <ele>-0.12</ele>
  <time>2026-09-02T22:08:15Z</time>
  <course>0.0</course>
  <speed>0.0</speed>
  <fix>3d</fix>
</trkpt>
<trkpt lat="33.810313" lon="-118.393867">
  <ele>-0.132</ele>
  <time>2026-09-02T22:08:15Z</time>
  <course>187.63</course>
  <speed>0.03605551275463989</speed>
  <fix>3d</fix>
</trkpt>
<trkpt lat="33.810313" lon="-118.393867">
  <ele>-0.12</ele>
  <time>2026-09-02T22:08:15Z</time>
  <course>0.0</course>
  <speed>0.0</speed>
  <fix>3d</fix>
</trkpt>
<trkpt lat="33.810313" lon="-118.393867">
  <ele>-0.132</ele>
  <time>2026-09-02T22:08:15Z</time>
  <course>187.62</course>
  <speed>0.03605551275463989</speed>
  <fix>3d</fix>
</trkpt>
<trkpt lat="33.810313" lon="-118.393867">
  <ele>-0.12</ele>
  <time>2026-09-02T22:08:15Z</time>
  <course>0.0</course>
  <speed>0.0</speed>
  <fix>3d</fix>
</trkpt>
<trkpt lat="33.810313" lon="-118.393867">
  <ele>-0.133</ele>
  <time>2026-09-02T22:08:15Z</time>
  <course>187.61</course>
  <speed>0.03605551275463989</speed>
  <fix>3d</fix>
</trkpt>
<trkpt lat="33.810313" lon="-118.393867">
  <ele>-0.12</ele>
  <time>2026-09-02T22:08:15Z</time>
  <course>0.0</course>
  <speed>0.0</speed>
  <fix>3d</fix>
</trkpt>
<trkpt lat="33.810313" lon="-118.393867">
  <ele>-0.134</ele>
  <time>2026-09-02T22:08:15Z</time>
  <course>187.6</course>
  <speed>0.03605551275463989</speed>
  <fix>3d</fix>
</trkpt>
<trkpt lat="33.810313" lon="-118.393867">
  <ele>-0.12</ele>
  <time>2026-09-02T22:08:15Z</time>
  <course>0.0</course>
  <speed>0.0</speed>
  <fix>3d</fix>
</trkpt>
<trkpt lat="33.810313" lon="-118.393867">
  <ele>-0.134</ele>
  <time>2026-09-02T22:08:15Z</time>
  <course>187.6</course>
  <speed>0.03605551275463989</speed>
  <fix>3d</fix>
</trkpt>
<trkpt lat="33.810313" lon="-118.393867">
  <ele>-0.12</ele>
  <time>2026-09-02T22:08:15Z</time>
  <course>0.0</course>
  <speed>0.0</speed>
  <fix>3d</fix>
</trkpt>
<trkpt lat="33.810313" lon="-118.393867">
  <ele>-0.134</ele>
  <time>2026-09-02T22:08:15Z</time>
  <course>187.59</course>
  <speed>0.03605551275463989</speed>
  <fix>3d</fix>
</trkpt>
<trkpt lat="33.810313" lon="-118.393867">
  <ele>-0.12</ele>
  <time>2026-09-02T22:08:15Z</time>
  <course>0.0</course>
  <speed>0.0</speed>
  <fix>3d</fix>
</trkpt>
<trkpt lat="33.810313" lon="-118.393867">
  <ele>-0.132</ele>
  <time>2026-09-02T22:08:15Z</time>
  <course>187.58</course>
  <speed>0.03605551275463989</speed>
  <fix>3d</fix>
</trkpt>
<trkpt lat="33.810313" lon="-118.393867">
  <ele>-0.12</ele>
  <time>2026-09-02T22:08:15Z</time>
  <course>0.0</course>
  <speed>0.0</speed>
  <fix>3d</fix>
</trkpt>
<trkpt lat="33.810313" lon="-118.393867">
  <ele>-0.129</ele>
  <time>2026-09-02T22:08:15Z</time>
  <course>187.58</course>
  <speed>0.03605551275463989</speed>
  <fix>3d</fix>
</trkpt>
<trkpt lat="33.810313" lon="-118.393867">
  <ele>-0.12</ele>
  <time>2026-09-02T22:08:15Z</time>
  <course>0.0</course>
  <speed>0.0</speed>
  <fix>3d</fix>
</trkpt>
<trkpt lat="33.810313" lon="-118.393867">
  <ele>-0.127</ele>
  <time>2026-09-02T22:08:15Z</time>
  <course>187.57</course>
  <speed>0.03605551275463989</speed>
  <fix>3d</fix>
</trkpt>
<trkpt lat="33.810313" lon="-118.393867">
  <ele>-0.12</ele>
  <time>2026-09-02T22:08:15Z</time>
  <course>0.0</course>
  <speed>0.0</speed>
  <fix>3d</fix>
</trkpt>
<trkpt lat="33.810313" lon="-118.393867">
  <ele>-0.125</ele>
  <time>2026-09-02T22:08:15Z</time>
  <course>187.56</course>
  <speed>0.03605551275463989</speed>
  <fix>3d</fix>
</trkpt>
<trkpt lat="33.810313" lon="-118.393867">
  <ele>-0.12</ele>
  <time>2026-09-02T22:08:15Z</time>
  <course>0.0</course>
  <speed>0.0</speed>
  <fix>3d</fix>
</trkpt>
<trkpt lat="33.810313" lon="-118.393867">
  <ele>-0.122</ele>
  <time>2026-09-02T22:08:15Z</time>
  <course>187.56</course>
  <speed>0.03605551275463989</speed>
  <fix>3d</fix>
</trkpt>
<trkpt lat="33.810313" lon="-118.393867">
  <ele>-0.12</ele>
  <time>2026-09-02T22:08:15Z</time>
  <course>0.0</course>
  <speed>0.0</speed>
  <fix>3d</fix>
</trkpt>
<trkpt lat="33.810313" lon="-118.393867">
  <ele>-0.119</ele>
  <time>2026-09-02T22:08:15Z</time>
  <course>187.55</course>
  <speed>0.03605551275463989</speed>
  <fix>3d</fix>
</trkpt>
<trkpt lat="33.810313" lon="-118.393867">
  <ele>-0.12</ele>
  <time>2026-09-02T22:08:15Z</time>
  <course>0.0</course>
  <speed>0.0</speed>
  <fix>3d</fix>
</trkpt>
<trkpt lat="33.810313" lon="-118.393867">
  <ele>-0.117</ele>
  <time>2026-09-02T22:08:15Z</time>
  <course>187.54</course>
  <speed>0.03605551275463989</speed>
  <fix>3d</fix>
</trkpt>
<trkpt lat="33.810313" lon="-118.393867">
  <ele>-0.12</ele>
  <time>2026-09-02T22:08:15Z</time>
  <course>0.0</course>
  <speed>0.0</speed>
  <fix>3d</fix>
</trkpt>
<trkpt lat="33.810313" lon="-118.393867">
  <ele>-0.117</ele>
  <time>2026-09-02T22:08:15Z</time>
  <course>187.54</course>
  <speed>0.03605551275463989</speed>
  <fix>3d</fix>
</trkpt>
<trkpt lat="33.810313" lon="-118.393867">
  <ele>-0.12</ele>
  <time>2026-09-02T22:08:15Z</time>
  <course>0.0</course>
  <speed>0.0</speed>
  <fix>3d</fix>
</trkpt>
<trkpt lat="33.810313" lon="-118.393867">
  <ele>-0.118</ele>
  <time>2026-09-02T22:08:15Z</time>
  <course>187.53</course>
  <speed>0.03605551275463989</speed>
  <fix>3d</fix>
</trkpt>
<trkpt lat="33.810313" lon="-118.393867">
  <ele>-0.12</ele>
  <time>2026-09-02T22:08:15Z</time>
  <course>0.0</course>
  <speed>0.0</speed>
  <fix>3d</fix>
</trkpt>
<trkpt lat="33.810313" lon="-118.393867">
  <ele>-0.119</ele>
  <time>2026-09-02T22:08:15Z</time>
  <course>187.52</course>
  <speed>0.03605551275463989</speed>
  <fix>3d</fix>
</trkpt>
<trkpt lat="33.810313" lon="-118.393867">
  <ele>-0.12</ele>
  <time>2026-09-02T22:08:15Z</time>
  <course>0.0</course>
  <speed>0.0</speed>
  <fix>3d</fix>
</trkpt>
<trkpt lat="33.810313" lon="-118.393867">
  <ele>-0.12</ele>
  <time>2026-09-02T22:08:15Z</time>
  <course>187.52</course>
  <speed>0.03605551275463989</speed>
  <fix>3d</fix>
</trkpt>
<trkpt lat="33.810313" lon="-118.393867">
  <ele>-0.12</ele>
  <time>2026-09-02T22:08:15Z</time>
  <course>0.0</course>
  <speed>0.0</speed>
  <fix>3d</fix>
</trkpt>
<trkpt lat="33.810313" lon="-118.393867">
  <ele>-0.121</ele>
  <time>2026-09-02T22:08:15Z</time>
  <course>187.51</course>
  <speed>0.03605551275463989</speed>
  <fix>3d</fix>
</trkpt>
<trkpt lat="33.810313" lon="-118.393867">
  <ele>-0.12</ele>
  <time>2026-09-02T22:08:15Z</time>
  <course>0.0</course>
  <speed>0.0</speed>
  <fix>3d</fix>
</trkpt>
<trkpt lat="33.810313" lon="-118.393867">
  <ele>-0.121</ele>
  <time>2026-09-02T22:08:15Z</time>
  <course>187.51</course>
  <speed>0.03605551275463989</speed>
  <fix>3d</fix>
</trkpt>
<trkpt lat="33.810313" lon="-118.393867">
  <ele>-0.12</ele>
  <time>2026-09-02T22:08:15Z</time>
  <course>0.0</course>
  <speed>0.0</speed>
  <fix>3d</fix>
</trkpt>
<trkpt lat="33.810313" lon="-118.393867">
  <ele>-0.121</ele>
  <time>2026-09-02T22:08:15Z</time>
  <course>187.5</course>
  <speed>0.03605551275463989</speed>
  <fix>3d</fix>
</trkpt>
<trkpt lat="33.810313" lon="-118.393867">
  <ele>-0.12</ele>
  <time>2026-09-02T22:08:15Z</time>
  <course>0.0</course>
  <speed>0.0</speed>
  <fix>3d</fix>
</trkpt>
<trkpt lat="33.810313" lon="-118.393867">
  <ele>-0.121</ele>
  <time>2026-09-02T22:08:15Z</time>
  <course>187.49</course>
  <speed>0.03605551275463989</speed>
  <fix>3d</fix>
</trkpt>
<trkpt lat="33.810313" lon="-118.393867">
  <ele>-0.12</ele>
  <time>2026-09-02T22:08:15Z</time>
  <course>0.0</course>
  <speed>0.0</speed>
  <fix>3d</fix>
</trkpt>
<trkpt lat="33.810313" lon="-118.393867">
  <ele>-0.121</ele>
  <time>2026-09-02T22:08:16Z</time>
  <course>187.49</course>
  <speed>0.03605551275463989</speed>
  <fix>3d</fix>
</trkpt>
<trkpt lat="33.810313" lon="-118.393867">
  <ele>-0.12</ele>
  <time>2026-09-02T22:08:16Z</time>
  <course>0.0</course>
  <speed>0.0</speed>
  <fix>3d</fix>
</trkpt>
<trkpt lat="33.810313" lon="-118.393867">
  <ele>-0.121</ele>
  <time>2026-09-02T22:08:16Z</time>
  <course>187.48</course>
  <speed>0.03605551275463989</speed>
  <fix>3d</fix>
</trkpt>
<trkpt lat="33.810313" lon="-118.393867">
  <ele>-0.12</ele>
  <time>2026-09-02T22:08:16Z</time>
  <course>0.0</course>
  <speed>0.0</speed>
  <fix>3d</fix>
</trkpt>
<trkpt lat="33.810313" lon="-118.393867">
  <ele>-0.122</ele>
  <time>2026-09-02T22:08:16Z</time>
  <course>187.47</course>
  <speed>0.03605551275463989</speed>
  <fix>3d</fix>
</trkpt>
<trkpt lat="33.810313" lon="-118.393867">
  <ele>-0.12</ele>
  <time>2026-09-02T22:08:16Z</time>
  <course>0.0</course>
  <speed>0.0</speed>
  <fix>3d</fix>
</trkpt>
<trkpt lat="33.810313" lon="-118.393867">
  <ele>-0.124</ele>
  <time>2026-09-02T22:08:16Z</time>
  <course>187.47</course>
  <speed>0.03605551275463989</speed>
  <fix>3d</fix>
</trkpt>
<trkpt lat="33.810313" lon="-118.393867">
  <ele>-0.12</ele>
  <time>2026-09-02T22:08:16Z</time>
  <course>0.0</course>
  <speed>0.0</speed>
  <fix>3d</fix>
</trkpt>
<trkpt lat="33.810313" lon="-118.393867">
  <ele>-0.127</ele>
  <time>2026-09-02T22:08:16Z</time>
  <course>187.46</course>
  <speed>0.03605551275463989</speed>
  <fix>3d</fix>
</trkpt>
<trkpt lat="33.810313" lon="-118.393867">
  <ele>-0.12</ele>
  <time>2026-09-02T22:08:16Z</time>
  <course>0.0</course>
  <speed>0.0</speed>
  <fix>3d</fix>
</trkpt>
<trkpt lat="33.810313" lon="-118.393867">
  <ele>-0.129</ele>
  <time>2026-09-02T22:08:16Z</time>
  <course>187.45</course>
  <speed>0.03605551275463989</speed>
  <fix>3d</fix>
</trkpt>
<trkpt lat="33.810313" lon="-118.393867">
  <ele>-0.12</ele>
  <time>2026-09-02T22:08:16Z</time>
  <course>0.0</course>
  <speed>0.0</speed>
  <fix>3d</fix>
</trkpt>
<trkpt lat="33.810313" lon="-118.393867">
  <ele>-0.131</ele>
  <time>2026-09-02T22:08:16Z</time>
  <course>187.45</course>
  <speed>0.03605551275463989</speed>
  <fix>3d</fix>
</trkpt>
<trkpt lat="33.810313" lon="-118.393867">
  <ele>-0.12</ele>
  <time>2026-09-02T22:08:16Z</time>
  <course>0.0</course>
  <speed>0.0</speed>
  <fix>3d</fix>
</trkpt>
<trkpt lat="33.810313" lon="-118.393867">
  <ele>-0.132</ele>
  <time>2026-09-02T22:08:16Z</time>
  <course>187.44</course>
  <speed>0.03605551275463989</speed>
  <fix>3d</fix>
</trkpt>
<trkpt lat="33.810313" lon="-118.393867">
  <ele>-0.12</ele>
  <time>2026-09-02T22:08:16Z</time>
  <course>0.0</course>
  <speed>0.0</speed>
  <fix>3d</fix>
</trkpt>
<trkpt lat="33.810313" lon="-118.393867">
  <ele>-0.132</ele>
  <time>2026-09-02T22:08:16Z</time>
  <course>187.44</course>
  <speed>0.03605551275463989</speed>
  <fix>3d</fix>
</trkpt>
<trkpt lat="33.810313" lon="-118.393867">
  <ele>-0.12</ele>
  <time>2026-09-02T22:08:16Z</time>
  <course>0.0</course>
  <speed>0.0</speed>
  <fix>3d</fix>
</trkpt>
<trkpt lat="33.810313" lon="-118.393867">
  <ele>-0.132</ele>
  <time>2026-09-02T22:08:16Z</time>
  <course>187.43</course>
  <speed>0.03605551275463989</speed>
  <fix>3d</fix>
</trkpt>
<trkpt lat="33.810313" lon="-118.393867">
  <ele>-0.12</ele>
  <time>2026-09-02T22:08:16Z</time>
  <course>0.0</course>
  <speed>0.0</speed>
  <fix>3d</fix>
</trkpt>
<trkpt lat="33.810313" lon="-118.393867">
  <ele>-0.132</ele>
  <time>2026-09-02T22:08:16Z</time>
  <course>187.42</course>
  <speed>0.03605551275463989</speed>
  <fix>3d</fix>
</trkpt>
<trkpt lat="33.810313" lon="-118.393867">
  <ele>-0.12</ele>
  <time>2026-09-02T22:08:16Z</time>
  <course>0.0</course>
  <speed>0.0</speed>
  <fix>3d</fix>
</trkpt>
<trkpt lat="33.810313" lon="-118.393867">
  <ele>-0.131</ele>
  <time>2026-09-02T22:08:16Z</time>
  <course>187.42</course>
  <speed>0.03605551275463989</speed>
  <fix>3d</fix>
</trkpt>
<trkpt lat="33.810313" lon="-118.393867">
  <ele>-0.12</ele>
  <time>2026-09-02T22:08:16Z</time>
  <course>0.0</course>
  <speed>0.0</speed>
  <fix>3d</fix>
</trkpt>
<trkpt lat="33.810313" lon="-118.393867">
  <ele>-0.131</ele>
  <time>2026-09-02T22:08:16Z</time>
  <course>187.41</course>
  <speed>0.03605551275463989</speed>
  <fix>3d</fix>
</trkpt>
<trkpt lat="33.810313" lon="-118.393867">
  <ele>-0.12</ele>
  <time>2026-09-02T22:08:16Z</time>
  <course>0.0</course>
  <speed>0.0</speed>
  <fix>3d</fix>
</trkpt>
<trkpt lat="33.810313" lon="-118.393867">
  <ele>-0.132</ele>
  <time>2026-09-02T22:08:16Z</time>
  <course>187.41</course>
  <speed>0.03605551275463989</speed>
  <fix>3d</fix>
</trkpt>
<trkpt lat="33.810313" lon="-118.393867">
  <ele>-0.12</ele>
  <time>2026-09-02T22:08:16Z</time>
  <course>0.0</course>
  <speed>0.0</speed>
  <fix>3d</fix>
</trkpt>
<trkpt lat="33.810313" lon="-118.393867">
  <ele>-0.134</ele>
  <time>2026-09-02T22:08:16Z</time>
  <course>187.4</course>
  <speed>0.03605551275463989</speed>
  <fix>3d</fix>
</trkpt>
<trkpt lat="33.810313" lon="-118.393867">
  <ele>-0.12</ele>
  <time>2026-09-02T22:08:16Z</time>
  <course>0.0</course>
  <speed>0.0</speed>
  <fix>3d</fix>
</trkpt>
<trkpt lat="33.810313" lon="-118.393867">
  <ele>-0.137</ele>
  <time>2026-09-02T22:08:16Z</time>
  <course>187.39</course>
  <speed>0.03605551275463989</speed>
  <fix>3d</fix>
</trkpt>
<trkpt lat="33.810313" lon="-118.393867">
  <ele>-0.12</ele>
  <time>2026-09-02T22:08:16Z</time>
  <course>0.0</course>
  <speed>0.0</speed>
  <fix>3d</fix>
</trkpt>
<trkpt lat="33.810313" lon="-118.393867">
  <ele>-0.139</ele>
  <time>2026-09-02T22:08:16Z</time>
  <course>187.39</course>
  <speed>0.03605551275463989</speed>
  <fix>3d</fix>
</trkpt>
<trkpt lat="33.810313" lon="-118.393867">
  <ele>-0.12</ele>
  <time>2026-09-02T22:08:16Z</time>
  <course>0.0</course>
  <speed>0.0</speed>
  <fix>3d</fix>
</trkpt>
<trkpt lat="33.810313" lon="-118.393867">
  <ele>-0.141</ele>
  <time>2026-09-02T22:08:16Z</time>
  <course>187.38</course>
  <speed>0.03605551275463989</speed>
  <fix>3d</fix>
</trkpt>
<trkpt lat="33.810313" lon="-118.393867">
  <ele>-0.12</ele>
  <time>2026-09-02T22:08:16Z</time>
  <course>0.0</course>
  <speed>0.0</speed>
  <fix>3d</fix>
</trkpt>
<trkpt lat="33.810313" lon="-118.393867">
  <ele>-0.141</ele>
  <time>2026-09-02T22:08:16Z</time>
  <course>187.38</course>
  <speed>0.03605551275463989</speed>
  <fix>3d</fix>
</trkpt>
<trkpt lat="33.810313" lon="-118.393867">
  <ele>-0.12</ele>
  <time>2026-09-02T22:08:16Z</time>
  <course>0.0</course>
  <speed>0.0</speed>
  <fix>3d</fix>
</trkpt>
<trkpt lat="33.810313" lon="-118.393867">
  <ele>-0.139</ele>
  <time>2026-09-02T22:08:16Z</time>
  <course>187.37</course>
  <speed>0.03605551275463989</speed>
  <fix>3d</fix>
</trkpt>
<trkpt lat="33.810313" lon="-118.393867">
  <ele>-0.12</ele>
  <time>2026-09-02T22:08:16Z</time>
  <course>0.0</course>
  <speed>0.0</speed>
  <fix>3d</fix>
</trkpt>
<trkpt lat="33.810313" lon="-118.393867">
  <ele>-0.136</ele>
  <time>2026-09-02T22:08:16Z</time>
  <course>187.36</course>
  <speed>0.03605551275463989</speed>
  <fix>3d</fix>
</trkpt>
<trkpt lat="33.810313" lon="-118.393867">
  <ele>-0.12</ele>
  <time>2026-09-02T22:08:16Z</time>
  <course>0.0</course>
  <speed>0.0</speed>
  <fix>3d</fix>
</trkpt>
<trkpt lat="33.810313" lon="-118.393867">
  <ele>-0.132</ele>
  <time>2026-09-02T22:08:16Z</time>
  <course>187.36</course>
  <speed>0.03605551275463989</speed>
  <fix>3d</fix>
</trkpt>
<trkpt lat="33.810313" lon="-118.393867">
  <ele>-0.12</ele>
  <time>2026-09-02T22:08:16Z</time>
  <course>0.0</course>
  <speed>0.0</speed>
  <fix>3d</fix>
</trkpt>
<trkpt lat="33.810313" lon="-118.393867">
  <ele>-0.129</ele>
  <time>2026-09-02T22:08:16Z</time>
  <course>187.35</course>
  <speed>0.03605551275463989</speed>
  <fix>3d</fix>
</trkpt>
<trkpt lat="33.810313" lon="-118.393867">
  <ele>-0.12</ele>
  <time>2026-09-02T22:08:16Z</time>
  <course>0.0</course>
  <speed>0.0</speed>
  <fix>3d</fix>
</trkpt>
<trkpt lat="33.810313" lon="-118.393867">
  <ele>-0.127</ele>
  <time>2026-09-02T22:08:16Z</time>
  <course>187.35</course>
  <speed>0.03605551275463989</speed>
  <fix>3d</fix>
</trkpt>
<trkpt lat="33.810313" lon="-118.393867">
  <ele>-0.12</ele>
  <time>2026-09-02T22:08:16Z</time>
  <course>0.0</course>
  <speed>0.0</speed>
  <fix>3d</fix>
</trkpt>
<trkpt lat="33.810313" lon="-118.393867">
  <ele>-0.126</ele>
  <time>2026-09-02T22:08:16Z</time>
  <course>187.34</course>
  <speed>0.03605551275463989</speed>
  <fix>3d</fix>
</trkpt>
<trkpt lat="33.810313" lon="-118.393867">
  <ele>-0.12</ele>
  <time>2026-09-02T22:08:16Z</time>
  <course>0.0</course>
  <speed>0.0</speed>
  <fix>3d</fix>
</trkpt>
<trkpt lat="33.810313" lon="-118.393867">
  <ele>-0.126</ele>
  <time>2026-09-02T22:08:16Z</time>
  <course>187.33</course>
  <speed>0.03605551275463989</speed>
  <fix>3d</fix>
</trkpt>
<trkpt lat="33.810313" lon="-118.393867">
  <ele>-0.12</ele>
  <time>2026-09-02T22:08:16Z</time>
  <course>0.0</course>
  <speed>0.0</speed>
  <fix>3d</fix>
</trkpt>
<trkpt lat="33.810313" lon="-118.393867">
  <ele>-0.127</ele>
  <time>2026-09-02T22:08:16Z</time>
  <course>187.33</course>
  <speed>0.03605551275463989</speed>
  <fix>3d</fix>
</trkpt>
<trkpt lat="33.810313" lon="-118.393867">
  <ele>-0.12</ele>
  <time>2026-09-02T22:08:16Z</time>
  <course>0.0</course>
  <speed>0.0</speed>
  <fix>3d</fix>
</trkpt>
<trkpt lat="33.810313" lon="-118.393867">
  <ele>-0.126</ele>
  <time>2026-09-02T22:08:16Z</time>
  <course>187.32</course>
  <speed>0.03605551275463989</speed>
  <fix>3d</fix>
</trkpt>
<trkpt lat="33.810313" lon="-118.393867">
  <ele>-0.12</ele>
  <time>2026-09-02T22:08:16Z</time>
  <course>0.0</course>
  <speed>0.0</speed>
  <fix>3d</fix>
</trkpt>
<trkpt lat="33.810313" lon="-118.393867">
  <ele>-0.126</ele>
  <time>2026-09-02T22:08:16Z</time>
  <course>187.32</course>
  <speed>0.03605551275463989</speed>
  <fix>3d</fix>
</trkpt>
<trkpt lat="33.810313" lon="-118.393867">
  <ele>-0.12</ele>
  <time>2026-09-02T22:08:16Z</time>
  <course>0.0</course>
  <speed>0.0</speed>
  <fix>3d</fix>
</trkpt>
<trkpt lat="33.810313" lon="-118.393867">
  <ele>-0.125</ele>
  <time>2026-09-02T22:08:16Z</time>
  <course>187.31</course>
  <speed>0.03605551275463989</speed>
  <fix>3d</fix>
</trkpt>
<trkpt lat="33.810313" lon="-118.393867">
  <ele>-0.12</ele>
  <time>2026-09-02T22:08:16Z</time>
  <course>0.0</course>
  <speed>0.0</speed>
  <fix>3d</fix>
</trkpt>
<trkpt lat="33.810313" lon="-118.393867">
  <ele>-0.124</ele>
  <time>2026-09-02T22:08:16Z</time>
  <course>187.31</course>
  <speed>0.03605551275463989</speed>
  <fix>3d</fix>
</trkpt>
<trkpt lat="33.810313" lon="-118.393867">
  <ele>-0.12</ele>
  <time>2026-09-02T22:08:16Z</time>
  <course>0.0</course>
  <speed>0.0</speed>
  <fix>3d</fix>
</trkpt>
<trkpt lat="33.810313" lon="-118.393867">
  <ele>-0.122</ele>
  <time>2026-09-02T22:08:16Z</time>
  <course>187.3</course>
  <speed>0.03605551275463989</speed>
  <fix>3d</fix>
</trkpt>
<trkpt lat="33.810313" lon="-118.393867">
  <ele>-0.12</ele>
  <time>2026-09-02T22:08:16Z</time>
  <course>0.0</course>
  <speed>0.0</speed>
  <fix>3d</fix>
</trkpt>
<trkpt lat="33.810313" lon="-118.393867">
  <ele>-0.121</ele>
  <time>2026-09-02T22:08:16Z</time>
  <course>187.29</course>
  <speed>0.03605551275463989</speed>
  <fix>3d</fix>
</trkpt>
<trkpt lat="33.810313" lon="-118.393867">
  <ele>-0.12</ele>
  <time>2026-09-02T22:08:16Z</time>
  <course>0.0</course>
  <speed>0.0</speed>
  <fix>3d</fix>
</trkpt>
<trkpt lat="33.810313" lon="-118.393867">
  <ele>-0.122</ele>
  <time>2026-09-02T22:08:16Z</time>
  <course>187.29</course>
  <speed>0.03605551275463989</speed>
  <fix>3d</fix>
</trkpt>
<trkpt lat="33.810313" lon="-118.393867">
  <ele>-0.12</ele>
  <time>2026-09-02T22:08:16Z</time>
  <course>0.0</course>
  <speed>0.0</speed>
  <fix>3d</fix>
</trkpt>
<trkpt lat="33.810313" lon="-118.393867">
  <ele>-0.124</ele>
  <time>2026-09-02T22:08:16Z</time>
  <course>187.28</course>
  <speed>0.03605551275463989</speed>
  <fix>3d</fix>
</trkpt>
<trkpt lat="33.810313" lon="-118.393867">
  <ele>-0.12</ele>
  <time>2026-09-02T22:08:16Z</time>
  <course>0.0</course>
  <speed>0.0</speed>
  <fix>3d</fix>
</trkpt>
<trkpt lat="33.810313" lon="-118.393867">
  <ele>-0.128</ele>
  <time>2026-09-02T22:08:16Z</time>
  <course>187.28</course>
  <speed>0.03605551275463989</speed>
  <fix>3d</fix>
</trkpt>
<trkpt lat="33.810313" lon="-118.393867">
  <ele>-0.12</ele>
  <time>2026-09-02T22:08:16Z</time>
  <course>0.0</course>
  <speed>0.0</speed>
  <fix>3d</fix>
</trkpt>
<trkpt lat="33.810313" lon="-118.393867">
  <ele>-0.13</ele>
  <time>2026-09-02T22:08:16Z</time>
  <course>187.27</course>
  <speed>0.03605551275463989</speed>
  <fix>3d</fix>
</trkpt>
<trkpt lat="33.810313" lon="-118.393867">
  <ele>-0.12</ele>
  <time>2026-09-02T22:08:16Z</time>
  <course>0.0</course>
  <speed>0.0</speed>
  <fix>3d</fix>
</trkpt>
<trkpt lat="33.810313" lon="-118.393867">
  <ele>-0.133</ele>
  <time>2026-09-02T22:08:16Z</time>
  <course>187.27</course>
  <speed>0.03605551275463989</speed>
  <fix>3d</fix>
</trkpt>
<trkpt lat="33.810313" lon="-118.393867">
  <ele>-0.12</ele>
  <time>2026-09-02T22:08:16Z</time>
  <course>0.0</course>
  <speed>0.0</speed>
  <fix>3d</fix>
</trkpt>
<trkpt lat="33.810313" lon="-118.393867">
  <ele>-0.135</ele>
  <time>2026-09-02T22:08:16Z</time>
  <course>187.26</course>
  <speed>0.03605551275463989</speed>
  <fix>3d</fix>
</trkpt>
<trkpt lat="33.810313" lon="-118.393867">
  <ele>-0.12</ele>
  <time>2026-09-02T22:08:16Z</time>
  <course>0.0</course>
  <speed>0.0</speed>
  <fix>3d</fix>
</trkpt>
<trkpt lat="33.810313" lon="-118.393867">
  <ele>-0.136</ele>
  <time>2026-09-02T22:08:16Z</time>
  <course>187.26</course>
  <speed>0.03605551275463989</speed>
  <fix>3d</fix>
</trkpt>
<trkpt lat="33.810313" lon="-118.393867">
  <ele>-0.12</ele>
  <time>2026-09-02T22:08:16Z</time>
  <course>0.0</course>
  <speed>0.0</speed>
  <fix>3d</fix>
</trkpt>
<trkpt lat="33.810313" lon="-118.393867">
  <ele>-0.136</ele>
  <time>2026-09-02T22:08:16Z</time>
  <course>187.25</course>
  <speed>0.03605551275463989</speed>
  <fix>3d</fix>
</trkpt>
<trkpt lat="33.810313" lon="-118.393867">
  <ele>-0.12</ele>
  <time>2026-09-02T22:08:16Z</time>
  <course>0.0</course>
  <speed>0.0</speed>
  <fix>3d</fix>
</trkpt>
<trkpt lat="33.810313" lon="-118.393867">
  <ele>-0.135</ele>
  <time>2026-09-02T22:08:16Z</time>
  <course>187.25</course>
  <speed>0.03605551275463989</speed>
  <fix>3d</fix>
</trkpt>
<trkpt lat="33.810313" lon="-118.393867">
  <ele>-0.12</ele>
  <time>2026-09-02T22:08:16Z</time>
  <course>0.0</course>
  <speed>0.0</speed>
  <fix>3d</fix>
</trkpt>
<trkpt lat="33.810313" lon="-118.393867">
  <ele>-0.134</ele>
  <time>2026-09-02T22:08:16Z</time>
  <course>187.24</course>
  <speed>0.03605551275463989</speed>
  <fix>3d</fix>
</trkpt>
<trkpt lat="33.810313" lon="-118.393867">
  <ele>-0.12</ele>
  <time>2026-09-02T22:08:16Z</time>
  <course>0.0</course>
  <speed>0.0</speed>
  <fix>3d</fix>
</trkpt>
<trkpt lat="33.810313" lon="-118.393867">
  <ele>-0.132</ele>
  <time>2026-09-02T22:08:16Z</time>
  <course>187.24</course>
  <speed>0.03605551275463989</speed>
  <fix>3d</fix>
</trkpt>
<trkpt lat="33.810313" lon="-118.393867">
  <ele>-0.12</ele>
  <time>2026-09-02T22:08:16Z</time>
  <course>0.0</course>
  <speed>0.0</speed>
  <fix>3d</fix>
</trkpt>
<trkpt lat="33.810313" lon="-118.393867">
  <ele>-0.131</ele>
  <time>2026-09-02T22:08:16Z</time>
  <course>187.23</course>
  <speed>0.03605551275463989</speed>
  <fix>3d</fix>
</trkpt>
<trkpt lat="33.810313" lon="-118.393867">
  <ele>-0.12</ele>
  <time>2026-09-02T22:08:16Z</time>
  <course>0.0</course>
  <speed>0.0</speed>
  <fix>3d</fix>
</trkpt>
<trkpt lat="33.810313" lon="-118.393867">
  <ele>-0.131</ele>
  <time>2026-09-02T22:08:16Z</time>
  <course>187.22</course>
  <speed>0.03605551275463989</speed>
  <fix>3d</fix>
</trkpt>
<trkpt lat="33.810313" lon="-118.393867">
  <ele>-0.12</ele>
  <time>2026-09-02T22:08:16Z</time>
  <course>0.0</course>
  <speed>0.0</speed>
  <fix>3d</fix>
</trkpt>
<trkpt lat="33.810313" lon="-118.393867">
  <ele>-0.132</ele>
  <time>2026-09-02T22:08:16Z</time>
  <course>187.22</course>
  <speed>0.03605551275463989</speed>
  <fix>3d</fix>
</trkpt>
<trkpt lat="33.810313" lon="-118.393867">
  <ele>-0.12</ele>
  <time>2026-09-02T22:08:16Z</time>
  <course>0.0</course>
  <speed>0.0</speed>
  <fix>3d</fix>
</trkpt>
<trkpt lat="33.810313" lon="-118.393867">
  <ele>-0.132</ele>
  <time>2026-09-02T22:08:16Z</time>
  <course>187.21</course>
  <speed>0.03605551275463989</speed>
  <fix>3d</fix>
</trkpt>
<trkpt lat="33.810313" lon="-118.393867">
  <ele>-0.12</ele>
  <time>2026-09-02T22:08:16Z</time>
  <course>0.0</course>
  <speed>0.0</speed>
  <fix>3d</fix>
</trkpt>
<trkpt lat="33.810313" lon="-118.393867">
  <ele>-0.133</ele>
  <time>2026-09-02T22:08:16Z</time>
  <course>187.21</course>
  <speed>0.03605551275463989</speed>
  <fix>3d</fix>
</trkpt>
<trkpt lat="33.810313" lon="-118.393867">
  <ele>-0.12</ele>
  <time>2026-09-02T22:08:16Z</time>
  <course>0.0</course>
  <speed>0.0</speed>
  <fix>3d</fix>
</trkpt>
<trkpt lat="33.810313" lon="-118.393867">
  <ele>-0.132</ele>
  <time>2026-09-02T22:08:16Z</time>
  <course>187.2</course>
  <speed>0.03605551275463989</speed>
  <fix>3d</fix>
</trkpt>
<trkpt lat="33.810313" lon="-118.393867">
  <ele>-0.12</ele>
  <time>2026-09-02T22:08:16Z</time>
  <course>0.0</course>
  <speed>0.0</speed>
  <fix>3d</fix>
</trkpt>
<trkpt lat="33.810313" lon="-118.393867">
  <ele>-0.131</ele>
  <time>2026-09-02T22:08:16Z</time>
  <course>187.2</course>
  <speed>0.03605551275463989</speed>
  <fix>3d</fix>
</trkpt>
<trkpt lat="33.810313" lon="-118.393867">
  <ele>-0.12</ele>
  <time>2026-09-02T22:08:16Z</time>
  <course>0.0</course>
  <speed>0.0</speed>
  <fix>3d</fix>
</trkpt>
<trkpt lat="33.810313" lon="-118.393867">
  <ele>-0.129</ele>
  <time>2026-09-02T22:08:16Z</time>
  <course>187.19</course>
  <speed>0.03605551275463989</speed>
  <fix>3d</fix>
</trkpt>
<trkpt lat="33.810313" lon="-118.393867">
  <ele>-0.12</ele>
  <time>2026-09-02T22:08:16Z</time>
  <course>0.0</course>
  <speed>0.0</speed>
  <fix>3d</fix>
</trkpt>
<trkpt lat="33.810313" lon="-118.393867">
  <ele>-0.126</ele>
  <time>2026-09-02T22:08:16Z</time>
  <course>187.19</course>
  <speed>0.03605551275463989</speed>
  <fix>3d</fix>
</trkpt>
<trkpt lat="33.810313" lon="-118.393867">
  <ele>-0.12</ele>
  <time>2026-09-02T22:08:16Z</time>
  <course>0.0</course>
  <speed>0.0</speed>
  <fix>3d</fix>
</trkpt>
<trkpt lat="33.810313" lon="-118.393867">
  <ele>-0.124</ele>
  <time>2026-09-02T22:08:16Z</time>
  <course>187.18</course>
  <speed>0.03605551275463989</speed>
  <fix>3d</fix>
</trkpt>
<trkpt lat="33.810313" lon="-118.393867">
  <ele>-0.12</ele>
  <time>2026-09-02T22:08:16Z</time>
  <course>0.0</course>
  <speed>0.0</speed>
  <fix>3d</fix>
</trkpt>
<trkpt lat="33.810313" lon="-118.393867">
  <ele>-0.123</ele>
  <time>2026-09-02T22:08:16Z</time>
  <course>187.18</course>
  <speed>0.03605551275463989</speed>
  <fix>3d</fix>
</trkpt>
<trkpt lat="33.810313" lon="-118.393867">
  <ele>-0.12</ele>
  <time>2026-09-02T22:08:16Z</time>
  <course>0.0</course>
  <speed>0.0</speed>
  <fix>3d</fix>
</trkpt>
<trkpt lat="33.810313" lon="-118.393867">
  <ele>-0.123</ele>
  <time>2026-09-02T22:08:16Z</time>
  <course>187.17</course>
  <speed>0.03605551275463989</speed>
  <fix>3d</fix>
</trkpt>
<trkpt lat="33.810313" lon="-118.393867">
  <ele>-0.12</ele>
  <time>2026-09-02T22:08:16Z</time>
  <course>0.0</course>
  <speed>0.0</speed>
  <fix>3d</fix>
</trkpt>
<trkpt lat="33.810313" lon="-118.393867">
  <ele>-0.122</ele>
  <time>2026-09-02T22:08:16Z</time>
  <course>187.17</course>
  <speed>0.0</speed>
  <fix>3d</fix>
</trkpt>
<trkpt lat="33.810313" lon="-118.393867">
  <ele>-0.12</ele>
  <time>2026-09-02T22:08:16Z</time>
  <course>0.0</course>
  <speed>0.0</speed>
  <fix>3d</fix>
</trkpt>
<trkpt lat="33.810313" lon="-118.393867">
  <ele>-0.121</ele>
  <time>2026-09-02T22:08:16Z</time>
  <course>187.16</course>
  <speed>0.0</speed>
  <fix>3d</fix>
</trkpt>
<trkpt lat="33.810313" lon="-118.393867">
  <ele>-0.12</ele>
  <time>2026-09-02T22:08:16Z</time>
  <course>0.0</course>
  <speed>0.0</speed>
  <fix>3d</fix>
</trkpt>
<trkpt lat="33.810313" lon="-118.393867">
  <ele>-0.12</ele>
  <time>2026-09-02T22:08:16Z</time>
  <course>187.16</course>
  <speed>0.0</speed>
  <fix>3d</fix>
</trkpt>
<trkpt lat="33.810313" lon="-118.393867">
  <ele>-0.12</ele>
  <time>2026-09-02T22:08:16Z</time>
  <course>0.0</course>
  <speed>0.0</speed>
  <fix>3d</fix>
</trkpt>
<trkpt lat="33.810313" lon="-118.393867">
  <ele>-0.119</ele>
  <time>2026-09-02T22:08:16Z</time>
  <course>187.15</course>
  <speed>0.0</speed>
  <fix>3d</fix>
</trkpt>
<trkpt lat="33.810313" lon="-118.393867">
  <ele>-0.12</ele>
  <time>2026-09-02T22:08:16Z</time>
  <course>0.0</course>
  <speed>0.0</speed>
  <fix>3d</fix>
</trkpt>
<trkpt lat="33.810313" lon="-118.393867">
  <ele>-0.116</ele>
  <time>2026-09-02T22:08:16Z</time>
  <course>187.15</course>
  <speed>0.0</speed>
  <fix>3d</fix>
</trkpt>
<trkpt lat="33.810313" lon="-118.393867">
  <ele>-0.12</ele>
  <time>2026-09-02T22:08:16Z</time>
  <course>0.0</course>
  <speed>0.0</speed>
  <fix>3d</fix>
</trkpt>
<trkpt lat="33.810313" lon="-118.393867">
  <ele>-0.114</ele>
  <time>2026-09-02T22:08:16Z</time>
  <course>187.14</course>
  <speed>0.0</speed>
  <fix>3d</fix>
</trkpt>
<trkpt lat="33.810313" lon="-118.393867">
  <ele>-0.12</ele>
  <time>2026-09-02T22:08:16Z</time>
  <course>0.0</course>
  <speed>0.0</speed>
  <fix>3d</fix>
</trkpt>
<trkpt lat="33.810313" lon="-118.393867">
  <ele>-0.113</ele>
  <time>2026-09-02T22:08:16Z</time>
  <course>187.14</course>
  <speed>0.0</speed>
  <fix>3d</fix>
</trkpt>
<trkpt lat="33.810313" lon="-118.393867">
  <ele>-0.12</ele>
  <time>2026-09-02T22:08:16Z</time>
  <course>0.0</course>
  <speed>0.0</speed>
  <fix>3d</fix>
</trkpt>
<trkpt lat="33.810313" lon="-118.393867">
  <ele>-0.112</ele>
  <time>2026-09-02T22:08:16Z</time>
  <course>187.13</course>
  <speed>0.0</speed>
  <fix>3d</fix>
</trkpt>
<trkpt lat="33.810313" lon="-118.393867">
  <ele>-0.12</ele>
  <time>2026-09-02T22:08:16Z</time>
  <course>0.0</course>
  <speed>0.0</speed>
  <fix>3d</fix>
</trkpt>
<trkpt lat="33.810313" lon="-118.393867">
  <ele>-0.113</ele>
  <time>2026-09-02T22:08:16Z</time>
  <course>187.13</course>
  <speed>0.0</speed>
  <fix>3d</fix>
</trkpt>
<trkpt lat="33.810313" lon="-118.393867">
  <ele>-0.12</ele>
  <time>2026-09-02T22:08:16Z</time>
  <course>0.0</course>
  <speed>0.0</speed>
  <fix>3d</fix>
</trkpt>
<trkpt lat="33.810313" lon="-118.393867">
  <ele>-0.114</ele>
  <time>2026-09-02T22:08:16Z</time>
  <course>187.12</course>
  <speed>0.0</speed>
  <fix>3d</fix>
</trkpt>
<trkpt lat="33.810313" lon="-118.393867">
  <ele>-0.12</ele>
  <time>2026-09-02T22:08:16Z</time>
  <course>0.0</course>
  <speed>0.0</speed>
  <fix>3d</fix>
</trkpt>
<trkpt lat="33.810313" lon="-118.393867">
  <ele>-0.117</ele>
  <time>2026-09-02T22:08:16Z</time>
  <course>187.12</course>
  <speed>0.0</speed>
  <fix>3d</fix>
</trkpt>
<trkpt lat="33.810313" lon="-118.393867">
  <ele>-0.12</ele>
  <time>2026-09-02T22:08:16Z</time>
  <course>0.0</course>
  <speed>0.0</speed>
  <fix>3d</fix>
</trkpt>
<trkpt lat="33.810313" lon="-118.393867">
  <ele>-0.119</ele>
  <time>2026-09-02T22:08:16Z</time>
  <course>187.11</course>
  <speed>0.01</speed>
  <fix>3d</fix>
</trkpt>
<trkpt lat="33.810313" lon="-118.393867">
  <ele>-0.12</ele>
  <time>2026-09-02T22:08:16Z</time>
  <course>0.0</course>
  <speed>0.0</speed>
  <fix>3d</fix>
</trkpt>
<trkpt lat="33.810313" lon="-118.393867">
  <ele>-0.12</ele>
  <time>2026-09-02T22:08:16Z</time>
  <course>187.11</course>
  <speed>0.01</speed>
  <fix>3d</fix>
</trkpt>
<trkpt lat="33.810313" lon="-118.393867">
  <ele>-0.12</ele>
  <time>2026-09-02T22:08:16Z</time>
  <course>0.0</course>
  <speed>0.0</speed>
  <fix>3d</fix>
</trkpt>
<trkpt lat="33.810313" lon="-118.393867">
  <ele>-0.121</ele>
  <time>2026-09-02T22:08:16Z</time>
  <course>187.1</course>
  <speed>0.01</speed>
  <fix>3d</fix>
</trkpt>
<trkpt lat="33.810313" lon="-118.393867">
  <ele>-0.12</ele>
  <time>2026-09-02T22:08:16Z</time>
  <course>0.0</course>
  <speed>0.0</speed>
  <fix>3d</fix>
</trkpt>
<trkpt lat="33.810313" lon="-118.393867">
  <ele>-0.122</ele>
  <time>2026-09-02T22:08:16Z</time>
  <course>187.1</course>
  <speed>0.01414213562373095</speed>
  <fix>3d</fix>
</trkpt>
<trkpt lat="33.810313" lon="-118.393867">
  <ele>-0.12</ele>
  <time>2026-09-02T22:08:16Z</time>
  <course>0.0</course>
  <speed>0.0</speed>
  <fix>3d</fix>
</trkpt>
<trkpt lat="33.810313" lon="-118.393867">
  <ele>-0.122</ele>
  <time>2026-09-02T22:08:16Z</time>
  <course>188.4</course>
  <speed>0.01414213562373095</speed>
  <fix>3d</fix>
</trkpt>
<trkpt lat="33.810313" lon="-118.393867">
  <ele>-0.12</ele>
  <time>2026-09-02T22:08:16Z</time>
  <course>0.0</course>
  <speed>0.0</speed>
  <fix>3d</fix>
</trkpt>
<trkpt lat="33.810313" lon="-118.393867">
  <ele>-0.123</ele>
  <time>2026-09-02T22:08:16Z</time>
  <course>191.32</course>
  <speed>0.01414213562373095</speed>
  <fix>3d</fix>
</trkpt>
<trkpt lat="33.810313" lon="-118.393867">
  <ele>-0.12</ele>
  <time>2026-09-02T22:08:16Z</time>
  <course>0.0</course>
  <speed>0.0</speed>
  <fix>3d</fix>
</trkpt>
<trkpt lat="33.810313" lon="-118.393867">
  <ele>-0.124</ele>
  <time>2026-09-02T22:08:16Z</time>
  <course>194.4</course>
  <speed>0.01414213562373095</speed>
  <fix>3d</fix>
</trkpt>
<trkpt lat="33.810313" lon="-118.393867">
  <ele>-0.12</ele>
  <time>2026-09-02T22:08:16Z</time>
  <course>0.0</course>
  <speed>0.0</speed>
  <fix>3d</fix>
</trkpt>
<trkpt lat="33.810313" lon="-118.393867">
  <ele>-0.126</ele>
  <time>2026-09-02T22:08:16Z</time>
  <course>197.48</course>
  <speed>0.01414213562373095</speed>
  <fix>3d</fix>
</trkpt>
<trkpt lat="33.810313" lon="-118.393867">
  <ele>-0.12</ele>
  <time>2026-09-02T22:08:16Z</time>
  <course>0.0</course>
  <speed>0.0</speed>
  <fix>3d</fix>
</trkpt>
<trkpt lat="33.810313" lon="-118.393867">
  <ele>-0.128</ele>
  <time>2026-09-02T22:08:16Z</time>
  <course>200.57</course>
  <speed>0.01414213562373095</speed>
  <fix>3d</fix>
</trkpt>
<trkpt lat="33.810313" lon="-118.393867">
  <ele>-0.12</ele>
  <time>2026-09-02T22:08:16Z</time>
  <course>0.0</course>
  <speed>0.0</speed>
  <fix>3d</fix>
</trkpt>
<trkpt lat="33.810313" lon="-118.393867">
  <ele>-0.131</ele>
  <time>2026-09-02T22:08:16Z</time>
  <course>203.66</course>
  <speed>0.01414213562373095</speed>
  <fix>3d</fix>
</trkpt>
<trkpt lat="33.810313" lon="-118.393867">
  <ele>-0.12</ele>
  <time>2026-09-02T22:08:16Z</time>
  <course>0.0</course>
  <speed>0.0</speed>
  <fix>3d</fix>
</trkpt>
<trkpt lat="33.810313" lon="-118.393867">
  <ele>-0.134</ele>
  <time>2026-09-02T22:08:16Z</time>
  <course>206.75</course>
  <speed>0.01414213562373095</speed>
  <fix>3d</fix>
</trkpt>
<trkpt lat="33.810313" lon="-118.393867">
  <ele>-0.12</ele>
  <time>2026-09-02T22:08:16Z</time>
  <course>0.0</course>
  <speed>0.0</speed>
  <fix>3d</fix>
</trkpt>
<trkpt lat="33.810313" lon="-118.393867">
  <ele>-0.136</ele>
  <time>2026-09-02T22:08:16Z</time>
  <course>209.84</course>
  <speed>0.01414213562373095</speed>
  <fix>3d</fix>
</trkpt>
<trkpt lat="33.810313" lon="-118.393867">
  <ele>-0.12</ele>
  <time>2026-09-02T22:08:16Z</time>
  <course>0.0</course>
  <speed>0.0</speed>
  <fix>3d</fix>
</trkpt>
<trkpt lat="33.810313" lon="-118.393867">
  <ele>-0.137</ele>
  <time>2026-09-02T22:08:16Z</time>
  <course>212.92</course>
  <speed>0.01414213562373095</speed>
  <fix>3d</fix>
</trkpt>
<trkpt lat="33.810313" lon="-118.393867">
  <ele>-0.12</ele>
  <time>2026-09-02T22:08:16Z</time>
  <course>0.0</course>
  <speed>0.0</speed>
  <fix>3d</fix>
</trkpt>
<trkpt lat="33.810313" lon="-118.393867">
  <ele>-0.137</ele>
  <time>2026-09-02T22:08:16Z</time>
  <course>216.01</course>
  <speed>0.01414213562373095</speed>
  <fix>3d</fix>
</trkpt>
<trkpt lat="33.810313" lon="-118.393867">
  <ele>-0.12</ele>
  <time>2026-09-02T22:08:16Z</time>
  <course>0.0</course>
  <speed>0.0</speed>
  <fix>3d</fix>
</trkpt>
<trkpt lat="33.810313" lon="-118.393867">
  <ele>-0.135</ele>
  <time>2026-09-02T22:08:16Z</time>
  <course>219.13</course>
  <speed>0.01414213562373095</speed>
  <fix>3d</fix>
</trkpt>
<trkpt lat="33.810313" lon="-118.393867">
  <ele>-0.12</ele>
  <time>2026-09-02T22:08:16Z</time>
  <course>0.0</course>
  <speed>0.0</speed>
  <fix>3d</fix>
</trkpt>
<trkpt lat="33.810313" lon="-118.393867">
  <ele>-0.133</ele>
  <time>2026-09-02T22:08:16Z</time>
  <course>222.21</course>
  <speed>0.01414213562373095</speed>
  <fix>3d</fix>
</trkpt>
<trkpt lat="33.810313" lon="-118.393867">
  <ele>-0.12</ele>
  <time>2026-09-02T22:08:16Z</time>
  <course>0.0</course>
  <speed>0.0</speed>
  <fix>3d</fix>
</trkpt>
<trkpt lat="33.810313" lon="-118.393867">
  <ele>-0.131</ele>
  <time>2026-09-02T22:08:16Z</time>
  <course>225.3</course>
  <speed>0.01414213562373095</speed>
  <fix>3d</fix>
</trkpt>
<trkpt lat="33.810313" lon="-118.393867">
  <ele>-0.12</ele>
  <time>2026-09-02T22:08:16Z</time>
  <course>0.0</course>
  <speed>0.0</speed>
  <fix>3d</fix>
</trkpt>
<trkpt lat="33.810313" lon="-118.393867">
  <ele>-0.129</ele>
  <time>2026-09-02T22:08:16Z</time>
  <course>228.39</course>
  <speed>0.01414213562373095</speed>
  <fix>3d</fix>
</trkpt>
<trkpt lat="33.810313" lon="-118.393867">
  <ele>-0.12</ele>
  <time>2026-09-02T22:08:16Z</time>
  <course>0.0</course>
  <speed>0.0</speed>
  <fix>3d</fix>
</trkpt>
<trkpt lat="33.810313" lon="-118.393867">
  <ele>-0.129</ele>
  <time>2026-09-02T22:08:16Z</time>
  <course>231.48</course>
  <speed>0.01414213562373095</speed>
  <fix>3d</fix>
</trkpt>
<trkpt lat="33.810313" lon="-118.393867">
  <ele>-0.12</ele>
  <time>2026-09-02T22:08:16Z</time>
  <course>0.0</course>
  <speed>0.0</speed>
  <fix>3d</fix>
</trkpt>
<trkpt lat="33.810313" lon="-118.393867">
  <ele>-0.128</ele>
  <time>2026-09-02T22:08:16Z</time>
  <course>234.56</course>
  <speed>0.01</speed>
  <fix>3d</fix>
</trkpt>
<trkpt lat="33.810313" lon="-118.393867">
  <ele>-0.12</ele>
  <time>2026-09-02T22:08:16Z</time>
  <course>0.0</course>
  <speed>0.0</speed>
  <fix>3d</fix>
</trkpt>
<trkpt lat="33.810313" lon="-118.393867">
  <ele>-0.129</ele>
  <time>2026-09-02T22:08:16Z</time>
  <course>237.65</course>
  <speed>0.01</speed>
  <fix>3d</fix>
</trkpt>
<trkpt lat="33.810313" lon="-118.393867">
  <ele>-0.12</ele>
  <time>2026-09-02T22:08:16Z</time>
  <course>0.0</course>
  <speed>0.0</speed>
  <fix>3d</fix>
</trkpt>
<trkpt lat="33.810313" lon="-118.393867">
  <ele>-0.13</ele>
  <time>2026-09-02T22:08:16Z</time>
  <course>240.74</course>
  <speed>0.01</speed>
  <fix>3d</fix>
</trkpt>
<trkpt lat="33.810313" lon="-118.393867">
  <ele>-0.12</ele>
  <time>2026-09-02T22:08:16Z</time>
  <course>0.0</course>
  <speed>0.0</speed>
  <fix>3d</fix>
</trkpt>
<trkpt lat="33.810313" lon="-118.393867">
  <ele>-0.131</ele>
  <time>2026-09-02T22:08:16Z</time>
  <course>243.83</course>
  <speed>0.01</speed>
  <fix>3d</fix>
</trkpt>
<trkpt lat="33.810313" lon="-118.393867">
  <ele>-0.12</ele>
  <time>2026-09-02T22:08:16Z</time>
  <course>0.0</course>
  <speed>0.0</speed>
  <fix>3d</fix>
</trkpt>
<trkpt lat="33.810313" lon="-118.393867">
  <ele>-0.13</ele>
  <time>2026-09-02T22:08:16Z</time>
  <course>246.91</course>
  <speed>0.01</speed>
  <fix>3d</fix>
</trkpt>
<trkpt lat="33.810313" lon="-118.393867">
  <ele>-0.12</ele>
  <time>2026-09-02T22:08:16Z</time>
  <course>0.0</course>
  <speed>0.0</speed>
  <fix>3d</fix>
</trkpt>
<trkpt lat="33.810313" lon="-118.393867">
  <ele>-0.13</ele>
  <time>2026-09-02T22:08:16Z</time>
  <course>250.0</course>
  <speed>0.01</speed>
  <fix>3d</fix>
</trkpt>
<trkpt lat="33.810313" lon="-118.393867">
  <ele>-0.12</ele>
  <time>2026-09-02T22:08:16Z</time>
  <course>0.0</course>
  <speed>0.0</speed>
  <fix>3d</fix>
</trkpt>
<trkpt lat="33.810313" lon="-118.393867">
  <ele>-0.129</ele>
  <time>2026-09-02T22:08:16Z</time>
  <course>253.09</course>
  <speed>0.01</speed>
  <fix>3d</fix>
</trkpt>
<trkpt lat="33.810313" lon="-118.393867">
  <ele>-0.12</ele>
  <time>2026-09-02T22:08:16Z</time>
  <course>0.0</course>
  <speed>0.0</speed>
  <fix>3d</fix>
</trkpt>
<trkpt lat="33.810313" lon="-118.393867">
  <ele>-0.128</ele>
  <time>2026-09-02T22:08:16Z</time>
  <course>256.18</course>
  <speed>0.01</speed>
  <fix>3d</fix>
</trkpt>
<trkpt lat="33.810313" lon="-118.393867">
  <ele>-0.12</ele>
  <time>2026-09-02T22:08:16Z</time>
  <course>0.0</course>
  <speed>0.0</speed>
  <fix>3d</fix>
</trkpt>
<trkpt lat="33.810313" lon="-118.393867">
  <ele>-0.128</ele>
  <time>2026-09-02T22:08:16Z</time>
  <course>259.26</course>
  <speed>0.01</speed>
  <fix>3d</fix>
</trkpt>
<trkpt lat="33.810313" lon="-118.393867">
  <ele>-0.12</ele>
  <time>2026-09-02T22:08:16Z</time>
  <course>0.0</course>
  <speed>0.0</speed>
  <fix>3d</fix>
</trkpt>
<trkpt lat="33.810313" lon="-118.393867">
  <ele>-0.128</ele>
  <time>2026-09-02T22:08:16Z</time>
  <course>262.35</course>
  <speed>0.01</speed>
  <fix>3d</fix>
</trkpt>
<trkpt lat="33.810313" lon="-118.393867">
  <ele>-0.12</ele>
  <time>2026-09-02T22:08:16Z</time>
  <course>0.0</course>
  <speed>0.0</speed>
  <fix>3d</fix>
</trkpt>
<trkpt lat="33.810313" lon="-118.393867">
  <ele>-0.129</ele>
  <time>2026-09-02T22:08:16Z</time>
  <course>265.44</course>
  <speed>0.01</speed>
  <fix>3d</fix>
</trkpt>
<trkpt lat="33.810313" lon="-118.393867">
  <ele>-0.12</ele>
  <time>2026-09-02T22:08:16Z</time>
  <course>0.0</course>
  <speed>0.0</speed>
  <fix>3d</fix>
</trkpt>
<trkpt lat="33.810313" lon="-118.393867">
  <ele>-0.132</ele>
  <time>2026-09-02T22:08:16Z</time>
  <course>268.53</course>
  <speed>0.01</speed>
  <fix>3d</fix>
</trkpt>
<trkpt lat="33.810313" lon="-118.393867">
  <ele>-0.12</ele>
  <time>2026-09-02T22:08:16Z</time>
  <course>0.0</course>
  <speed>0.0</speed>
  <fix>3d</fix>
</trkpt>
<trkpt lat="33.810313" lon="-118.393867">
  <ele>-0.133</ele>
  <time>2026-09-02T22:08:16Z</time>
  <course>271.61</course>
  <speed>0.01</speed>
  <fix>3d</fix>
</trkpt>
<trkpt lat="33.810313" lon="-118.393867">
  <ele>-0.12</ele>
  <time>2026-09-02T22:08:16Z</time>
  <course>0.0</course>
  <speed>0.0</speed>
  <fix>3d</fix>
</trkpt>
<trkpt lat="33.810313" lon="-118.393867">
  <ele>-0.134</ele>
  <time>2026-09-02T22:08:16Z</time>
  <course>274.7</course>
  <speed>0.01</speed>
  <fix>3d</fix>
</trkpt>
<trkpt lat="33.810313" lon="-118.393867">
  <ele>-0.12</ele>
  <time>2026-09-02T22:08:16Z</time>
  <course>0.0</course>
  <speed>0.0</speed>
  <fix>3d</fix>
</trkpt>
<trkpt lat="33.810313" lon="-118.393867">
  <ele>-0.132</ele>
  <time>2026-09-02T22:08:16Z</time>
  <course>277.79</course>
  <speed>0.01</speed>
  <fix>3d</fix>
</trkpt>
<trkpt lat="33.810313" lon="-118.393867">
  <ele>-0.12</ele>
  <time>2026-09-02T22:08:16Z</time>
  <course>0.0</course>
  <speed>0.0</speed>
  <fix>3d</fix>
</trkpt>
<trkpt lat="33.810313" lon="-118.393867">
  <ele>-0.131</ele>
  <time>2026-09-02T22:08:16Z</time>
  <course>280.88</course>
  <speed>0.02</speed>
  <fix>3d</fix>
</trkpt>
<trkpt lat="33.810313" lon="-118.393867">
  <ele>-0.12</ele>
  <time>2026-09-02T22:08:16Z</time>
  <course>0.0</course>
  <speed>0.0</speed>
  <fix>3d</fix>
</trkpt>
<trkpt lat="33.810313" lon="-118.3938671">
  <ele>-0.13</ele>
  <time>2026-09-02T22:08:16Z</time>
  <course>283.99</course>
  <speed>0.02</speed>
  <fix>3d</fix>
</trkpt>
<trkpt lat="33.810313" lon="-118.393867">
  <ele>-0.12</ele>
  <time>2026-09-02T22:08:16Z</time>
  <course>0.0</course>
  <speed>0.0</speed>
  <fix>3d</fix>
</trkpt>
<trkpt lat="33.810313" lon="-118.3938671">
  <ele>-0.129</ele>
  <time>2026-09-02T22:08:16Z</time>
  <course>287.08</course>
  <speed>0.02</speed>
  <fix>3d</fix>
</trkpt>
<trkpt lat="33.810313" lon="-118.393867">
  <ele>-0.12</ele>
  <time>2026-09-02T22:08:16Z</time>
  <course>0.0</course>
  <speed>0.0</speed>
  <fix>3d</fix>
</trkpt>
<trkpt lat="33.810313" lon="-118.3938671">
  <ele>-0.128</ele>
  <time>2026-09-02T22:08:16Z</time>
  <course>290.17</course>
  <speed>0.02</speed>
  <fix>3d</fix>
</trkpt>
<trkpt lat="33.810313" lon="-118.393867">
  <ele>-0.12</ele>
  <time>2026-09-02T22:08:16Z</time>
  <course>0.0</course>
  <speed>0.0</speed>
  <fix>3d</fix>
</trkpt>
<trkpt lat="33.810313" lon="-118.3938671">
  <ele>-0.128</ele>
  <time>2026-09-02T22:08:16Z</time>
  <course>293.26</course>
  <speed>0.02</speed>
  <fix>3d</fix>
</trkpt>
<trkpt lat="33.810313" lon="-118.393867">
  <ele>-0.12</ele>
  <time>2026-09-02T22:08:16Z</time>
  <course>0.0</course>
  <speed>0.0</speed>
  <fix>3d</fix>
</trkpt>
<trkpt lat="33.810313" lon="-118.3938671">
  <ele>-0.127</ele>
  <time>2026-09-02T22:08:16Z</time>
  <course>296.34</course>
  <speed>0.02</speed>
  <fix>3d</fix>
</trkpt>
<trkpt lat="33.810313" lon="-118.393867">
  <ele>-0.12</ele>
  <time>2026-09-02T22:08:16Z</time>
  <course>0.0</course>
  <speed>0.0</speed>
  <fix>3d</fix>
</trkpt>
<trkpt lat="33.810313" lon="-118.3938671">
  <ele>-0.128</ele>
  <time>2026-09-02T22:08:16Z</time>
  <course>299.43</course>
  <speed>0.02</speed>
  <fix>3d</fix>
</trkpt>
<trkpt lat="33.810313" lon="-118.393867">
  <ele>-0.12</ele>
  <time>2026-09-02T22:08:16Z</time>
  <course>0.0</course>
  <speed>0.0</speed>
  <fix>3d</fix>
</trkpt>
<trkpt lat="33.810313" lon="-118.3938671">
  <ele>-0.128</ele>
  <time>2026-09-02T22:08:16Z</time>
  <course>302.52</course>
  <speed>0.02</speed>
  <fix>3d</fix>
</trkpt>
<trkpt lat="33.810313" lon="-118.393867">
  <ele>-0.12</ele>
  <time>2026-09-02T22:08:16Z</time>
  <course>0.0</course>
  <speed>0.0</speed>
  <fix>3d</fix>
</trkpt>
<trkpt lat="33.810313" lon="-118.3938671">
  <ele>-0.127</ele>
  <time>2026-09-02T22:08:16Z</time>
  <course>305.61</course>
  <speed>0.02</speed>
  <fix>3d</fix>
</trkpt>
<trkpt lat="33.810313" lon="-118.393867">
  <ele>-0.12</ele>
  <time>2026-09-02T22:08:16Z</time>
  <course>0.0</course>
  <speed>0.0</speed>
  <fix>3d</fix>
</trkpt>
<trkpt lat="33.810313" lon="-118.3938671">
  <ele>-0.127</ele>
  <time>2026-09-02T22:08:16Z</time>
  <course>308.7</course>
  <speed>0.02</speed>
  <fix>3d</fix>
</trkpt>
<trkpt lat="33.810313" lon="-118.393867">
  <ele>-0.12</ele>
  <time>2026-09-02T22:08:16Z</time>
  <course>0.0</course>
  <speed>0.0</speed>
  <fix>3d</fix>
</trkpt>
<trkpt lat="33.810313" lon="-118.3938671">
  <ele>-0.125</ele>
  <time>2026-09-02T22:08:16Z</time>
  <course>311.79</course>
  <speed>0.02</speed>
  <fix>3d</fix>
</trkpt>
<trkpt lat="33.810313" lon="-118.393867">
  <ele>-0.12</ele>
  <time>2026-09-02T22:08:16Z</time>
  <course>0.0</course>
  <speed>0.0</speed>
  <fix>3d</fix>
</trkpt>
<trkpt lat="33.810313" lon="-118.3938671">
  <ele>-0.124</ele>
  <time>2026-09-02T22:08:16Z</time>
  <course>314.88</course>
  <speed>0.02</speed>
  <fix>3d</fix>
</trkpt>
<trkpt lat="33.810313" lon="-118.393867">
  <ele>-0.12</ele>
  <time>2026-09-02T22:08:16Z</time>
  <course>0.0</course>
  <speed>0.0</speed>
  <fix>3d</fix>
</trkpt>
<trkpt lat="33.810313" lon="-118.3938671">
  <ele>-0.122</ele>
  <time>2026-09-02T22:08:16Z</time>
  <course>317.97</course>
  <speed>0.02</speed>
  <fix>3d</fix>
</trkpt>
<trkpt lat="33.810313" lon="-118.393867">
  <ele>-0.12</ele>
  <time>2026-09-02T22:08:16Z</time>
  <course>0.0</course>
  <speed>0.0</speed>
  <fix>3d</fix>
</trkpt>
<trkpt lat="33.810313" lon="-118.3938671">
  <ele>-0.121</ele>
  <time>2026-09-02T22:08:16Z</time>
  <course>321.06</course>
  <speed>0.02</speed>
  <fix>3d</fix>
</trkpt>
<trkpt lat="33.810313" lon="-118.393867">
  <ele>-0.12</ele>
  <time>2026-09-02T22:08:16Z</time>
  <course>0.0</course>
  <speed>0.0</speed>
  <fix>3d</fix>
</trkpt>
<trkpt lat="33.810313" lon="-118.3938671">
  <ele>-0.12</ele>
  <time>2026-09-02T22:08:16Z</time>
  <course>324.14</course>
  <speed>0.02</speed>
  <fix>3d</fix>
</trkpt>
<trkpt lat="33.810313" lon="-118.393867">
  <ele>-0.12</ele>
  <time>2026-09-02T22:08:16Z</time>
  <course>0.0</course>
  <speed>0.0</speed>
  <fix>3d</fix>
</trkpt>
<trkpt lat="33.810313" lon="-118.3938671">
  <ele>-0.119</ele>
  <time>2026-09-02T22:08:16Z</time>
  <course>327.23</course>
  <speed>0.03</speed>
  <fix>3d</fix>
</trkpt>
<trkpt lat="33.810313" lon="-118.393867">
  <ele>-0.12</ele>
  <time>2026-09-02T22:08:16Z</time>
  <course>0.0</course>
  <speed>0.0</speed>
  <fix>3d</fix>
</trkpt>
<trkpt lat="33.810313" lon="-118.3938671">
  <ele>-0.119</ele>
  <time>2026-09-02T22:08:16Z</time>
  <course>330.32</course>
  <speed>0.03</speed>
  <fix>3d</fix>
</trkpt>
<trkpt lat="33.810313" lon="-118.393867">
  <ele>-0.12</ele>
  <time>2026-09-02T22:08:16Z</time>
  <course>0.0</course>
  <speed>0.0</speed>
  <fix>3d</fix>
</trkpt>
<trkpt lat="33.810313" lon="-118.3938671">
  <ele>-0.119</ele>
  <time>2026-09-02T22:08:16Z</time>
  <course>333.41</course>
  <speed>0.03</speed>
  <fix>3d</fix>
</trkpt>
<trkpt lat="33.810313" lon="-118.393867">
  <ele>-0.12</ele>
  <time>2026-09-02T22:08:16Z</time>
  <course>0.0</course>
  <speed>0.0</speed>
  <fix>3d</fix>
</trkpt>
<trkpt lat="33.810313" lon="-118.3938671">
  <ele>-0.119</ele>
  <time>2026-09-02T22:08:16Z</time>
  <course>336.5</course>
  <speed>0.03</speed>
  <fix>3d</fix>
</trkpt>
<trkpt lat="33.810313" lon="-118.393867">
  <ele>-0.12</ele>
  <time>2026-09-02T22:08:16Z</time>
  <course>0.0</course>
  <speed>0.0</speed>
  <fix>3d</fix>
</trkpt>
<trkpt lat="33.810313" lon="-118.3938671">
  <ele>-0.119</ele>
  <time>2026-09-02T22:08:16Z</time>
  <course>339.59</course>
  <speed>0.03</speed>
  <fix>3d</fix>
</trkpt>
<trkpt lat="33.810313" lon="-118.393867">
  <ele>-0.12</ele>
  <time>2026-09-02T22:08:16Z</time>
  <course>0.0</course>
  <speed>0.0</speed>
  <fix>3d</fix>
</trkpt>
<trkpt lat="33.810313" lon="-118.3938672">
  <ele>-0.119</ele>
  <time>2026-09-02T22:08:16Z</time>
  <course>342.68</course>
  <speed>0.03</speed>
  <fix>3d</fix>
</trkpt>
<trkpt lat="33.810313" lon="-118.393867">
  <ele>-0.12</ele>
  <time>2026-09-02T22:08:16Z</time>
  <course>0.0</course>
  <speed>0.0</speed>
  <fix>3d</fix>
</trkpt>
<trkpt lat="33.810313" lon="-118.3938672">
  <ele>-0.119</ele>
  <time>2026-09-02T22:08:16Z</time>
  <course>345.77</course>
  <speed>0.03</speed>
  <fix>3d</fix>
</trkpt>
<trkpt lat="33.810313" lon="-118.393867">
  <ele>-0.12</ele>
  <time>2026-09-02T22:08:16Z</time>
  <course>0.0</course>
  <speed>0.0</speed>
  <fix>3d</fix>
</trkpt>
<trkpt lat="33.810313" lon="-118.3938672">
  <ele>-0.12</ele>
  <time>2026-09-02T22:08:16Z</time>
  <course>348.88</course>
  <speed>0.03</speed>
  <fix>3d</fix>
</trkpt>
<trkpt lat="33.810313" lon="-118.393867">
  <ele>-0.12</ele>
  <time>2026-09-02T22:08:16Z</time>
  <course>0.0</course>
  <speed>0.0</speed>
  <fix>3d</fix>
</trkpt>
<trkpt lat="33.810313" lon="-118.3938672">
  <ele>-0.121</ele>
  <time>2026-09-02T22:08:16Z</time>
  <course>351.97</course>
  <speed>0.03</speed>
  <fix>3d</fix>
</trkpt>
<trkpt lat="33.810313" lon="-118.393867">
  <ele>-0.12</ele>
  <time>2026-09-02T22:08:16Z</time>
  <course>0.0</course>
  <speed>0.0</speed>
  <fix>3d</fix>
</trkpt>
<trkpt lat="33.810313" lon="-118.3938672">
  <ele>-0.124</ele>
  <time>2026-09-02T22:08:16Z</time>
  <course>355.06</course>
  <speed>0.03</speed>
  <fix>3d</fix>
</trkpt>
<trkpt lat="33.810313" lon="-118.393867">
  <ele>-0.12</ele>
  <time>2026-09-02T22:08:16Z</time>
  <course>0.0</course>
  <speed>0.0</speed>
  <fix>3d</fix>
</trkpt>
<trkpt lat="33.810313" lon="-118.3938672">
  <ele>-0.126</ele>
  <time>2026-09-02T22:08:16Z</time>
  <course>357.32</course>
  <speed>0.02</speed>
  <fix>3d</fix>
</trkpt>
<trkpt lat="33.810313" lon="-118.393867">
  <ele>-0.12</ele>
  <time>2026-09-02T22:08:16Z</time>
  <course>0.0</course>
  <speed>0.0</speed>
  <fix>3d</fix>
</trkpt>
<trkpt lat="33.810313" lon="-118.3938672">
  <ele>-0.128</ele>
  <time>2026-09-02T22:08:16Z</time>
  <course>358.42</course>
  <speed>0.02</speed>
  <fix>3d</fix>
</trkpt>
<trkpt lat="33.810313" lon="-118.393867">
  <ele>-0.12</ele>
  <time>2026-09-02T22:08:16Z</time>
  <course>0.0</course>
  <speed>0.0</speed>
  <fix>3d</fix>
</trkpt>
<trkpt lat="33.810313" lon="-118.3938672">
  <ele>-0.13</ele>
  <time>2026-09-02T22:08:16Z</time>
  <course>359.14</course>
  <speed>0.02</speed>
  <fix>3d</fix>
</trkpt>
<trkpt lat="33.810313" lon="-118.393867">
  <ele>-0.12</ele>
  <time>2026-09-02T22:08:16Z</time>
  <course>0.0</course>
  <speed>0.0</speed>
  <fix>3d</fix>
</trkpt>
<trkpt lat="33.810313" lon="-118.3938672">
  <ele>-0.138</ele>
  <time>2026-09-02T22:08:16Z</time>
  <course>359.68</course>
  <speed>0.02</speed>
  <fix>3d</fix>
</trkpt>
<trkpt lat="33.810313" lon="-118.393867">
  <ele>-0.12</ele>
  <time>2026-09-02T22:08:16Z</time>
  <course>0.0</course>
  <speed>0.0</speed>
  <fix>3d</fix>
</trkpt>
<trkpt lat="33.810313" lon="-118.3938672">
  <ele>-0.159</ele>
  <time>2026-09-02T22:08:16Z</time>
  <course>0.1</course>
  <speed>0.02</speed>
  <fix>3d</fix>
</trkpt>
<trkpt lat="33.810313" lon="-118.393867">
  <ele>-0.12</ele>
  <time>2026-09-02T22:08:16Z</time>
  <course>85.6</course>
  <speed>0.0</speed>
  <fix>3d</fix>
</trkpt>
<trkpt lat="33.810313" lon="-118.3938672">
  <ele>-0.182</ele>
  <time>2026-09-02T22:08:16Z</time>
  <course>0.46</course>
  <speed>0.02</speed>
  <fix>3d</fix>
</trkpt>
<trkpt lat="33.810313" lon="-118.393867">
  <ele>-0.12</ele>
  <time>2026-09-02T22:08:16Z</time>
  <course>85.6</course>
  <speed>0.0</speed>
  <fix>3d</fix>
</trkpt>
<trkpt lat="33.810313" lon="-118.3938672">
  <ele>-0.202</ele>
  <time>2026-09-02T22:08:16Z</time>
  <course>0.77</course>
  <speed>0.02</speed>
  <fix>3d</fix>
</trkpt>
<trkpt lat="33.810313" lon="-118.393867">
  <ele>-0.15</ele>
  <time>2026-09-02T22:08:16Z</time>
  <course>268.53</course>
  <speed>0.0</speed>
  <fix>3d</fix>
</trkpt>
<trkpt lat="33.810313" lon="-118.3938672">
  <ele>-0.219</ele>
  <time>2026-09-02T22:08:16Z</time>
  <course>1.04</course>
  <speed>0.02</speed>
  <fix>3d</fix>
</trkpt>
<trkpt lat="33.810313" lon="-118.393867">
  <ele>-0.15</ele>
  <time>2026-09-02T22:08:16Z</time>
  <course>268.53</course>
  <speed>0.0</speed>
  <fix>3d</fix>
</trkpt>
<trkpt lat="33.810313" lon="-118.3938672">
  <ele>-0.231</ele>
  <time>2026-09-02T22:08:16Z</time>
  <course>1.27</course>
  <speed>0.02</speed>
  <fix>3d</fix>
</trkpt>
<trkpt lat="33.810313" lon="-118.393867">
  <ele>-0.19</ele>
  <time>2026-09-02T22:08:16Z</time>
  <course>268.49</course>
  <speed>0.0</speed>
  <fix>3d</fix>
</trkpt>
<trkpt lat="33.810313" lon="-118.3938671">
  <ele>-0.238</ele>
  <time>2026-09-02T22:08:16Z</time>
  <course>1.49</course>
  <speed>0.02</speed>
  <fix>3d</fix>
</trkpt>
<trkpt lat="33.810313" lon="-118.393867">
  <ele>-0.19</ele>
  <time>2026-09-02T22:08:16Z</time>
  <course>268.49</course>
  <speed>0.0</speed>
  <fix>3d</fix>
</trkpt>
<trkpt lat="33.810313" lon="-118.3938671">
  <ele>-0.24</ele>
  <time>2026-09-02T22:08:16Z</time>
  <course>1.68</course>
  <speed>0.02</speed>
  <fix>3d</fix>
</trkpt>
<trkpt lat="33.810313" lon="-118.393867">
  <ele>-0.21</ele>
  <time>2026-09-02T22:08:16Z</time>
  <course>268.69</course>
  <speed>0.0</speed>
  <fix>3d</fix>
</trkpt>
<trkpt lat="33.810313" lon="-118.3938671">
  <ele>-0.239</ele>
  <time>2026-09-02T22:08:16Z</time>
  <course>1.8</course>
  <speed>0.02</speed>
  <fix>3d</fix>
</trkpt>
<trkpt lat="33.810313" lon="-118.393867">
  <ele>-0.21</ele>
  <time>2026-09-02T22:08:16Z</time>
  <course>268.69</course>
  <speed>0.0</speed>
  <fix>3d</fix>
</trkpt>
<trkpt lat="33.810313" lon="-118.3938671">
  <ele>-0.235</ele>
  <time>2026-09-02T22:08:16Z</time>
  <course>1.87</course>
  <speed>0.02</speed>
  <fix>3d</fix>
</trkpt>
<trkpt lat="33.810313" lon="-118.393867">
  <ele>-0.22</ele>
  <time>2026-09-02T22:08:16Z</time>
  <course>298.49</course>
  <speed>0.0</speed>
  <fix>3d</fix>
</trkpt>
<trkpt lat="33.810313" lon="-118.3938671">
  <ele>-0.234</ele>
  <time>2026-09-02T22:08:16Z</time>
  <course>1.85</course>
  <speed>0.02</speed>
  <fix>3d</fix>
</trkpt>
<trkpt lat="33.810313" lon="-118.393867">
  <ele>-0.22</ele>
  <time>2026-09-02T22:08:16Z</time>
  <course>298.49</course>
  <speed>0.0</speed>
  <fix>3d</fix>
</trkpt>
<trkpt lat="33.810313" lon="-118.3938671">
  <ele>-0.249</ele>
  <time>2026-09-02T22:08:16Z</time>
  <course>1.8</course>
  <speed>0.02</speed>
  <fix>3d</fix>
</trkpt>
<trkpt lat="33.810313" lon="-118.393867">
  <ele>-0.22</ele>
  <time>2026-09-02T22:08:16Z</time>
  <course>298.8</course>
  <speed>0.0</speed>
  <fix>3d</fix>
</trkpt>
<trkpt lat="33.810313" lon="-118.3938671">
  <ele>-0.288</ele>
  <time>2026-09-02T22:08:16Z</time>
  <course>1.7</course>
  <speed>0.02</speed>
  <fix>3d</fix>
</trkpt>
<trkpt lat="33.810313" lon="-118.393867">
  <ele>-0.22</ele>
  <time>2026-09-02T22:08:16Z</time>
  <course>298.8</course>
  <speed>0.0</speed>
  <fix>3d</fix>
</trkpt>
<trkpt lat="33.810313" lon="-118.3938671">
  <ele>-0.346</ele>
  <time>2026-09-02T22:08:16Z</time>
  <course>1.61</course>
  <speed>0.02</speed>
  <fix>3d</fix>
</trkpt>
<trkpt lat="33.810313" lon="-118.393867">
  <ele>-0.25</ele>
  <time>2026-09-02T22:08:16Z</time>
  <course>301.47</course>
  <speed>0.0</speed>
  <fix>3d</fix>
</trkpt>
<trkpt lat="33.810313" lon="-118.3938671">
  <ele>-0.417</ele>
  <time>2026-09-02T22:08:16Z</time>
  <course>1.48</course>
  <speed>0.02</speed>
  <fix>3d</fix>
</trkpt>
<trkpt lat="33.810313" lon="-118.393867">
  <ele>-0.25</ele>
  <time>2026-09-02T22:08:16Z</time>
  <course>301.47</course>
  <speed>0.0</speed>
  <fix>3d</fix>
</trkpt>
<trkpt lat="33.810313" lon="-118.3938671">
  <ele>-0.499</ele>
  <time>2026-09-02T22:08:16Z</time>
  <course>1.35</course>
  <speed>0.02</speed>
  <fix>3d</fix>
</trkpt>
<trkpt lat="33.810313" lon="-118.393867">
  <ele>-0.35</ele>
  <time>2026-09-02T22:08:16Z</time>
  <course>304.85</course>
  <speed>0.0</speed>
  <fix>3d</fix>
</trkpt>
<trkpt lat="33.810313" lon="-118.3938671">
  <ele>-0.586</ele>
  <time>2026-09-02T22:08:16Z</time>
  <course>1.19</course>
  <speed>0.01</speed>
  <fix>3d</fix>
</trkpt>
<trkpt lat="33.810313" lon="-118.393867">
  <ele>-0.35</ele>
  <time>2026-09-02T22:08:16Z</time>
  <course>304.85</course>
  <speed>0.0</speed>
  <fix>3d</fix>
</trkpt>
<trkpt lat="33.810313" lon="-118.3938671">
  <ele>-0.677</ele>
  <time>2026-09-02T22:08:16Z</time>
  <course>1.05</course>
  <speed>0.01</speed>
  <fix>3d</fix>
</trkpt>
<trkpt lat="33.810313" lon="-118.393867">
  <ele>-0.5</ele>
  <time>2026-09-02T22:08:16Z</time>
  <course>306.66</course>
  <speed>0.0</speed>
  <fix>3d</fix>
</trkpt>
<trkpt lat="33.810313" lon="-118.3938671">
  <ele>-0.772</ele>
  <time>2026-09-02T22:08:16Z</time>
  <course>359.04</course>
  <speed>0.01</speed>
  <fix>3d</fix>
</trkpt>
<trkpt lat="33.810313" lon="-118.393867">
  <ele>-0.5</ele>
  <time>2026-09-02T22:08:16Z</time>
  <course>306.66</course>
  <speed>0.0</speed>
  <fix>3d</fix>
</trkpt>
<trkpt lat="33.810313" lon="-118.3938671">
  <ele>-0.868</ele>
  <time>2026-09-02T22:08:16Z</time>
  <course>358.91</course>
  <speed>0.01</speed>
  <fix>3d</fix>
</trkpt>
<trkpt lat="33.810313" lon="-118.393867">
  <ele>-0.66</ele>
  <time>2026-09-02T22:08:16Z</time>
  <course>307.61</course>
  <speed>0.0</speed>
  <fix>3d</fix>
</trkpt>
<trkpt lat="33.810313" lon="-118.3938671">
  <ele>-0.966</ele>
  <time>2026-09-02T22:08:16Z</time>
  <course>358.78</course>
  <speed>0.01</speed>
  <fix>3d</fix>
</trkpt>
<trkpt lat="33.810313" lon="-118.393867">
  <ele>-0.66</ele>
  <time>2026-09-02T22:08:16Z</time>
  <course>307.61</course>
  <speed>0.0</speed>
  <fix>3d</fix>
</trkpt>
<trkpt lat="33.810313" lon="-118.3938671">
  <ele>-1.064</ele>
  <time>2026-09-02T22:08:16Z</time>
  <course>358.67</course>
  <speed>0.01</speed>
  <fix>3d</fix>
</trkpt>
<trkpt lat="33.810313" lon="-118.393867">
  <ele>-0.84</ele>
  <time>2026-09-02T22:08:16Z</time>
  <course>308.02</course>
  <speed>0.0</speed>
  <fix>3d</fix>
</trkpt>
<trkpt lat="33.810313" lon="-118.3938671">
  <ele>-1.162</ele>
  <time>2026-09-02T22:08:16Z</time>
  <course>358.56</course>
  <speed>0.01</speed>
  <fix>3d</fix>
</trkpt>
<trkpt lat="33.810313" lon="-118.393867">
  <ele>-0.84</ele>
  <time>2026-09-02T22:08:16Z</time>
  <course>308.02</course>
  <speed>0.0</speed>
  <fix>3d</fix>
</trkpt>
<trkpt lat="33.810313" lon="-118.3938671">
  <ele>-1.26</ele>
  <time>2026-09-02T22:08:16Z</time>
  <course>358.46</course>
  <speed>0.01</speed>
  <fix>3d</fix>
</trkpt>
<trkpt lat="33.810313" lon="-118.393867">
  <ele>-1.02</ele>
  <time>2026-09-02T22:08:16Z</time>
  <course>308.19</course>
  <speed>0.0</speed>
  <fix>3d</fix>
</trkpt>
<trkpt lat="33.810313" lon="-118.3938671">
  <ele>-1.358</ele>
  <time>2026-09-02T22:08:16Z</time>
  <course>358.37</course>
  <speed>0.01</speed>
  <fix>3d</fix>
</trkpt>
<trkpt lat="33.810313" lon="-118.393867">
  <ele>-1.02</ele>
  <time>2026-09-02T22:08:16Z</time>
  <course>308.19</course>
  <speed>0.0</speed>
  <fix>3d</fix>
</trkpt>
<trkpt lat="33.810313" lon="-118.3938671">
  <ele>-1.456</ele>
  <time>2026-09-02T22:08:16Z</time>
  <course>358.28</course>
  <speed>0.01</speed>
  <fix>3d</fix>
</trkpt>
<trkpt lat="33.810313" lon="-118.393867">
  <ele>-1.21</ele>
  <time>2026-09-02T22:08:16Z</time>
  <course>308.34</course>
  <speed>0.0</speed>
  <fix>3d</fix>
</trkpt>
<trkpt lat="33.810313" lon="-118.3938671">
  <ele>-1.554</ele>
  <time>2026-09-02T22:08:16Z</time>
  <course>358.2</course>
  <speed>0.01</speed>
  <fix>3d</fix>
</trkpt>
<trkpt lat="33.810313" lon="-118.393867">
  <ele>-1.21</ele>
  <time>2026-09-02T22:08:16Z</time>
  <course>308.34</course>
  <speed>0.0</speed>
  <fix>3d</fix>
</trkpt>
<trkpt lat="33.810313" lon="-118.3938671">
  <ele>-1.653</ele>
  <time>2026-09-02T22:08:16Z</time>
  <course>358.16</course>
  <speed>0.01</speed>
  <fix>3d</fix>
</trkpt>
<trkpt lat="33.810313" lon="-118.393867">
  <ele>-1.39</ele>
  <time>2026-09-02T22:08:16Z</time>
  <course>308.72</course>
  <speed>0.0</speed>
  <fix>3d</fix>
</trkpt>
<trkpt lat="33.810313" lon="-118.3938671">
  <ele>-1.751</ele>
  <time>2026-09-02T22:08:16Z</time>
  <course>358.18</course>
  <speed>0.01</speed>
  <fix>3d</fix>
</trkpt>
<trkpt lat="33.810313" lon="-118.393867">
  <ele>-1.39</ele>
  <time>2026-09-02T22:08:16Z</time>
  <course>308.72</course>
  <speed>0.0</speed>
  <fix>3d</fix>
</trkpt>
<trkpt lat="33.810313" lon="-118.3938671">
  <ele>-1.849</ele>
  <time>2026-09-02T22:08:16Z</time>
  <course>358.23</course>
  <speed>0.01</speed>
  <fix>3d</fix>
</trkpt>
<trkpt lat="33.810313" lon="-118.3938671">
  <ele>-1.56</ele>
  <time>2026-09-02T22:08:16Z</time>
  <course>309.54</course>
  <speed>0.0</speed>
  <fix>3d</fix>
</trkpt>
<trkpt lat="33.810313" lon="-118.3938671">
  <ele>-1.945</ele>
  <time>2026-09-02T22:08:16Z</time>
  <course>358.3</course>
  <speed>0.0</speed>
  <fix>3d</fix>
</trkpt>
<trkpt lat="33.810313" lon="-118.3938671">
  <ele>-1.56</ele>
  <time>2026-09-02T22:08:16Z</time>
  <course>309.54</course>
  <speed>0.0</speed>
  <fix>3d</fix>
</trkpt>
<trkpt lat="33.810313" lon="-118.3938671">
  <ele>-2.04</ele>
  <time>2026-09-02T22:08:16Z</time>
  <course>358.38</course>
  <speed>0.0</speed>
  <fix>3d</fix>
</trkpt>
<trkpt lat="33.810313" lon="-118.3938671">
  <ele>-1.75</ele>
  <time>2026-09-02T22:08:16Z</time>
  <course>310.19</course>
  <speed>0.01</speed>
  <fix>3d</fix>
</trkpt>
<trkpt lat="33.810313" lon="-118.3938671">
  <ele>-2.135</ele>
  <time>2026-09-02T22:08:16Z</time>
  <course>358.46</course>
  <speed>0.0</speed>
  <fix>3d</fix>
</trkpt>
<trkpt lat="33.810313" lon="-118.3938671">
  <ele>-1.75</ele>
  <time>2026-09-02T22:08:16Z</time>
  <course>310.19</course>
  <speed>0.01</speed>
  <fix>3d</fix>
</trkpt>
<trkpt lat="33.810313" lon="-118.3938671">
  <ele>-2.23</ele>
  <time>2026-09-02T22:08:16Z</time>
  <course>358.54</course>
  <speed>0.0</speed>
  <fix>3d</fix>
</trkpt>
<trkpt lat="33.810313" lon="-118.3938671">
  <ele>-1.94</ele>
  <time>2026-09-02T22:08:16Z</time>
  <course>310.53</course>
  <speed>0.01</speed>
  <fix>3d</fix>
</trkpt>
<trkpt lat="33.810313" lon="-118.3938671">
  <ele>-2.326</ele>
  <time>2026-09-02T22:08:16Z</time>
  <course>358.61</course>
  <speed>0.0</speed>
  <fix>3d</fix>
</trkpt>
<trkpt lat="33.810313" lon="-118.3938671">
  <ele>-1.94</ele>
  <time>2026-09-02T22:08:16Z</time>
  <course>310.53</course>
  <speed>0.01</speed>
  <fix>3d</fix>
</trkpt>
<trkpt lat="33.810313" lon="-118.3938671">
  <ele>-2.423</ele>
  <time>2026-09-02T22:08:16Z</time>
  <course>358.69</course>
  <speed>0.0</speed>
  <fix>3d</fix>
</trkpt>
<trkpt lat="33.8103131" lon="-118.3938671">
  <ele>-2.12</ele>
  <time>2026-09-02T22:08:16Z</time>
  <course>310.78</course>
  <speed>0.01</speed>
  <fix>3d</fix>
</trkpt>
<trkpt lat="33.810313" lon="-118.3938671">
  <ele>-2.52</ele>
  <time>2026-09-02T22:08:16Z</time>
  <course>358.76</course>
  <speed>0.0</speed>
  <fix>3d</fix>
</trkpt>
<trkpt lat="33.8103131" lon="-118.3938671">
  <ele>-2.12</ele>
  <time>2026-09-02T22:08:16Z</time>
  <course>310.78</course>
  <speed>0.01</speed>
  <fix>3d</fix>
</trkpt>
<trkpt lat="33.810313" lon="-118.3938671">
  <ele>-2.616</ele>
  <time>2026-09-02T22:08:16Z</time>
  <course>358.83</course>
  <speed>0.0</speed>
  <fix>3d</fix>
</trkpt>
<trkpt lat="33.8103131" lon="-118.3938671">
  <ele>-2.3</ele>
  <time>2026-09-02T22:08:16Z</time>
  <course>311.02</course>
  <speed>0.01</speed>
  <fix>3d</fix>
</trkpt>
<trkpt lat="33.810313" lon="-118.3938671">
  <ele>-2.713</ele>
  <time>2026-09-02T22:08:16Z</time>
  <course>358.89</course>
  <speed>0.0</speed>
  <fix>3d</fix>
</trkpt>
<trkpt lat="33.8103131" lon="-118.3938671">
  <ele>-2.3</ele>
  <time>2026-09-02T22:08:16Z</time>
  <course>311.02</course>
  <speed>0.01</speed>
  <fix>3d</fix>
</trkpt>
<trkpt lat="33.810313" lon="-118.3938671">
  <ele>-2.811</ele>
  <time>2026-09-02T22:08:16Z</time>
  <course>358.93</course>
  <speed>0.0</speed>
  <fix>3d</fix>
</trkpt>
<trkpt lat="33.8103131" lon="-118.3938672">
  <ele>-2.5</ele>
  <time>2026-09-02T22:08:16Z</time>
  <course>311.33</course>
  <speed>0.01</speed>
  <fix>3d</fix>
</trkpt>
<trkpt lat="33.810313" lon="-118.3938671">
  <ele>-2.909</ele>
  <time>2026-09-02T22:08:16Z</time>
  <course>358.97</course>
  <speed>0.0</speed>
  <fix>3d</fix>
</trkpt>
<trkpt lat="33.8103131" lon="-118.3938672">
  <ele>-2.5</ele>
  <time>2026-09-02T22:08:16Z</time>
  <course>311.33</course>
  <speed>0.01</speed>
  <fix>3d</fix>
</trkpt>
<trkpt lat="33.810313" lon="-118.3938671">
  <ele>-3.008</ele>
  <time>2026-09-02T22:08:16Z</time>
  <course>359.0</course>
  <speed>0.0</speed>
  <fix>3d</fix>
</trkpt>
<trkpt lat="33.8103131" lon="-118.3938672">
  <ele>-2.69</ele>
  <time>2026-09-02T22:08:16Z</time>
  <course>311.63</course>
  <speed>0.01</speed>
  <fix>3d</fix>
</trkpt>
<trkpt lat="33.810313" lon="-118.3938671">
  <ele>-3.105</ele>
  <time>2026-09-02T22:08:16Z</time>
  <course>359.04</course>
  <speed>0.0</speed>
  <fix>3d</fix>
</trkpt>
<trkpt lat="33.8103131" lon="-118.3938672">
  <ele>-2.69</ele>
  <time>2026-09-02T22:08:16Z</time>
  <course>311.63</course>
  <speed>0.01</speed>
  <fix>3d</fix>
</trkpt>
<trkpt lat="33.810313" lon="-118.3938671">
  <ele>-3.196</ele>
  <time>2026-09-02T22:08:16Z</time>
  <course>359.08</course>
  <speed>0.0</speed>
  <fix>3d</fix>
</trkpt>
<trkpt lat="33.8103131" lon="-118.3938672">
  <ele>-2.88</ele>
  <time>2026-09-02T22:08:16Z</time>
  <course>311.74</course>
  <speed>0.01</speed>
  <fix>3d</fix>
</trkpt>
<trkpt lat="33.810313" lon="-118.3938671">
  <ele>-3.273</ele>
  <time>2026-09-02T22:08:16Z</time>
  <course>359.11</course>
  <speed>0.0</speed>
  <fix>3d</fix>
</trkpt>
<trkpt lat="33.8103131" lon="-118.3938672">
  <ele>-2.88</ele>
  <time>2026-09-02T22:08:16Z</time>
  <course>311.74</course>
  <speed>0.01</speed>
  <fix>3d</fix>
</trkpt>
<trkpt lat="33.810313" lon="-118.3938672">
  <ele>-3.333</ele>
  <time>2026-09-02T22:08:16Z</time>
  <course>359.15</course>
  <speed>0.0</speed>
  <fix>3d</fix>
</trkpt>
<trkpt lat="33.8103131" lon="-118.3938672">
  <ele>-3.06</ele>
  <time>2026-09-02T22:08:16Z</time>
  <course>311.29</course>
  <speed>0.01</speed>
  <fix>3d</fix>
</trkpt>
<trkpt lat="33.810313" lon="-118.3938672">
  <ele>-3.377</ele>
  <time>2026-09-02T22:08:16Z</time>
  <course>359.18</course>
  <speed>0.0</speed>
  <fix>3d</fix>
</trkpt>
<trkpt lat="33.8103131" lon="-118.3938672">
  <ele>-3.06</ele>
  <time>2026-09-02T22:08:16Z</time>
  <course>311.29</course>
  <speed>0.01</speed>
  <fix>3d</fix>
</trkpt>
<trkpt lat="33.810313" lon="-118.3938672">
  <ele>-3.41</ele>
  <time>2026-09-02T22:08:16Z</time>
  <course>359.21</course>
  <speed>0.0</speed>
  <fix>3d</fix>
</trkpt>
<trkpt lat="33.8103131" lon="-118.3938672">
  <ele>-3.18</ele>
  <time>2026-09-02T22:08:16Z</time>
  <course>310.52</course>
  <speed>0.01</speed>
  <fix>3d</fix>
</trkpt>
<trkpt lat="33.810313" lon="-118.3938672">
  <ele>-3.433</ele>
  <time>2026-09-02T22:08:16Z</time>
  <course>359.23</course>
  <speed>0.0</speed>
  <fix>3d</fix>
</trkpt>
<trkpt lat="33.8103131" lon="-118.3938672">
  <ele>-3.18</ele>
  <time>2026-09-02T22:08:16Z</time>
  <course>310.52</course>
  <speed>0.01</speed>
  <fix>3d</fix>
</trkpt>
<trkpt lat="33.810313" lon="-118.3938672">
  <ele>-3.446</ele>
  <time>2026-09-02T22:08:16Z</time>
  <course>359.22</course>
  <speed>0.0</speed>
  <fix>3d</fix>
</trkpt>
<trkpt lat="33.8103131" lon="-118.3938672">
  <ele>-3.26</ele>
  <time>2026-09-02T22:08:16Z</time>
  <course>310.19</course>
  <speed>0.01</speed>
  <fix>3d</fix>
</trkpt>
<trkpt lat="33.810313" lon="-118.3938672">
  <ele>-3.451</ele>
  <time>2026-09-02T22:08:16Z</time>
  <course>359.2</course>
  <speed>0.0</speed>
  <fix>3d</fix>
</trkpt>
<trkpt lat="33.8103131" lon="-118.3938672">
  <ele>-3.26</ele>
  <time>2026-09-02T22:08:16Z</time>
  <course>310.19</course>
  <speed>0.01</speed>
  <fix>3d</fix>
</trkpt>
<trkpt lat="33.810313" lon="-118.3938672">
  <ele>-3.451</ele>
  <time>2026-09-02T22:08:16Z</time>
  <course>359.18</course>
  <speed>0.01</speed>
  <fix>3d</fix>
</trkpt>
<trkpt lat="33.8103131" lon="-118.3938673">
  <ele>-3.3</ele>
  <time>2026-09-02T22:08:16Z</time>
  <course>310.22</course>
  <speed>0.01</speed>
  <fix>3d</fix>
</trkpt>
<trkpt lat="33.810313" lon="-118.3938672">
  <ele>-3.449</ele>
  <time>2026-09-02T22:08:16Z</time>
  <course>359.14</course>
  <speed>0.01</speed>
  <fix>3d</fix>
</trkpt>
<trkpt lat="33.8103131" lon="-118.3938673">
  <ele>-3.3</ele>
  <time>2026-09-02T22:08:16Z</time>
  <course>310.22</course>
  <speed>0.01</speed>
  <fix>3d</fix>
</trkpt>
<trkpt lat="33.810313" lon="-118.3938672">
  <ele>-3.444</ele>
  <time>2026-09-02T22:08:16Z</time>
  <course>359.11</course>
  <speed>0.01</speed>
  <fix>3d</fix>
</trkpt>
<trkpt lat="33.8103131" lon="-118.3938673">
  <ele>-3.31</ele>
  <time>2026-09-02T22:08:16Z</time>
  <course>310.29</course>
  <speed>0.01</speed>
  <fix>3d</fix>
</trkpt>
<trkpt lat="33.810313" lon="-118.3938672">
  <ele>-3.44</ele>
  <time>2026-09-02T22:08:16Z</time>
  <course>359.09</course>
  <speed>0.01</speed>
  <fix>3d</fix>
</trkpt>
<trkpt lat="33.8103131" lon="-118.3938673">
  <ele>-3.31</ele>
  <time>2026-09-02T22:08:16Z</time>
  <course>310.29</course>
  <speed>0.01</speed>
  <fix>3d</fix>
</trkpt>
<trkpt lat="33.810313" lon="-118.3938672">
  <ele>-3.436</ele>
  <time>2026-09-02T22:08:16Z</time>
  <course>359.06</course>
  <speed>0.01</speed>
  <fix>3d</fix>
</trkpt>
<trkpt lat="33.8103131" lon="-118.3938673">
  <ele>-3.32</ele>
  <time>2026-09-02T22:08:16Z</time>
  <course>310.4</course>
  <speed>0.01</speed>
  <fix>3d</fix>
</trkpt>
<trkpt lat="33.810313" lon="-118.3938672">
  <ele>-3.434</ele>
  <time>2026-09-02T22:08:16Z</time>
  <course>359.03</course>
  <speed>0.01</speed>
  <fix>3d</fix>
</trkpt>
<trkpt lat="33.8103131" lon="-118.3938673">
  <ele>-3.32</ele>
  <time>2026-09-02T22:08:16Z</time>
  <course>310.4</course>
  <speed>0.01</speed>
  <fix>3d</fix>
</trkpt>
<trkpt lat="33.810313" lon="-118.3938672">
  <ele>-3.434</ele>
  <time>2026-09-02T22:08:16Z</time>
  <course>359.0</course>
  <speed>0.01</speed>
  <fix>3d</fix>
</trkpt>
<trkpt lat="33.8103131" lon="-118.3938673">
  <ele>-3.32</ele>
  <time>2026-09-02T22:08:16Z</time>
  <course>310.54</course>
  <speed>0.01</speed>
  <fix>3d</fix>
</trkpt>
<trkpt lat="33.810313" lon="-118.3938673">
  <ele>-3.437</ele>
  <time>2026-09-02T22:08:16Z</time>
  <course>358.97</course>
  <speed>0.01</speed>
  <fix>3d</fix>
</trkpt>
<trkpt lat="33.8103131" lon="-118.3938673">
  <ele>-3.32</ele>
  <time>2026-09-02T22:08:16Z</time>
  <course>310.54</course>
  <speed>0.01</speed>
  <fix>3d</fix>
</trkpt>
<trkpt lat="33.810313" lon="-118.3938673">
  <ele>-3.439</ele>
  <time>2026-09-02T22:08:16Z</time>
  <course>358.95</course>
  <speed>0.01</speed>
  <fix>3d</fix>
</trkpt>
<trkpt lat="33.8103131" lon="-118.3938674">
  <ele>-3.33</ele>
  <time>2026-09-02T22:08:16Z</time>
  <course>310.68</course>
  <speed>0.01</speed>
  <fix>3d</fix>
</trkpt>
<trkpt lat="33.810313" lon="-118.3938673">
  <ele>-3.439</ele>
  <time>2026-09-02T22:08:16Z</time>
  <course>358.92</course>
  <speed>0.01</speed>
  <fix>3d</fix>
</trkpt>
<trkpt lat="33.8103131" lon="-118.3938674">
  <ele>-3.33</ele>
  <time>2026-09-02T22:08:16Z</time>
  <course>310.68</course>
  <speed>0.01</speed>
  <fix>3d</fix>
</trkpt>
<trkpt lat="33.810313" lon="-118.3938673">
  <ele>-3.44</ele>
  <time>2026-09-02T22:08:16Z</time>
  <course>358.9</course>
  <speed>0.01</speed>
  <fix>3d</fix>
</trkpt>
<trkpt lat="33.8103132" lon="-118.3938674">
  <ele>-3.34</ele>
  <time>2026-09-02T22:08:16Z</time>
  <course>310.8</course>
  <speed>0.01</speed>
  <fix>3d</fix>
</trkpt>
<trkpt lat="33.810313" lon="-118.3938673">
  <ele>-3.442</ele>
  <time>2026-09-02T22:08:16Z</time>
  <course>358.87</course>
  <speed>0.01</speed>
  <fix>3d</fix>
</trkpt>
<trkpt lat="33.8103132" lon="-118.3938674">
  <ele>-3.34</ele>
  <time>2026-09-02T22:08:16Z</time>
  <course>310.8</course>
  <speed>0.01</speed>
  <fix>3d</fix>
</trkpt>
<trkpt lat="33.810313" lon="-118.3938673">
  <ele>-3.443</ele>
  <time>2026-09-02T22:08:16Z</time>
  <course>358.85</course>
  <speed>0.01</speed>
  <fix>3d</fix>
</trkpt>
<trkpt lat="33.8103133" lon="-118.3938674">
  <ele>-3.35</ele>
  <time>2026-09-02T22:08:16Z</time>
  <course>310.92</course>
  <speed>0.01</speed>
  <fix>3d</fix>
</trkpt>
<trkpt lat="33.810313" lon="-118.3938673">
  <ele>-3.445</ele>
  <time>2026-09-02T22:08:16Z</time>
  <course>358.82</course>
  <speed>0.01</speed>
  <fix>3d</fix>
</trkpt>
<trkpt lat="33.8103133" lon="-118.3938674">
  <ele>-3.35</ele>
  <time>2026-09-02T22:08:16Z</time>
  <course>310.92</course>
  <speed>0.01</speed>
  <fix>3d</fix>
</trkpt>
<trkpt lat="33.810313" lon="-118.3938673">
  <ele>-3.447</ele>
  <time>2026-09-02T22:08:16Z</time>
  <course>358.8</course>
  <speed>0.01</speed>
  <fix>3d</fix>
</trkpt>
<trkpt lat="33.8103133" lon="-118.3938674">
  <ele>-3.36</ele>
  <time>2026-09-02T22:08:16Z</time>
  <course>311.02</course>
  <speed>0.01</speed>
  <fix>3d</fix>
</trkpt>
<trkpt lat="33.810313" lon="-118.3938673">
  <ele>-3.447</ele>
  <time>2026-09-02T22:08:16Z</time>
  <course>358.8</course>
  <speed>0.01</speed>
  <fix>3d</fix>
</trkpt>
<trkpt lat="33.810313" lon="-118.3938673">
  <ele>-3.448</ele>
  <time>2026-09-02T22:08:16Z</time>
  <course>358.78</course>
  <speed>0.01</speed>
  <fix>3d</fix>
</trkpt>
<trkpt lat="33.8103133" lon="-118.3938674">
  <ele>-3.36</ele>
  <time>2026-09-02T22:08:16Z</time>
  <course>311.02</course>
  <speed>0.01</speed>
  <fix>3d</fix>
</trkpt>
<trkpt lat="33.810313" lon="-118.3938673">
  <ele>-3.449</ele>
  <time>2026-09-02T22:08:16Z</time>
  <course>358.76</course>
  <speed>0.01</speed>
  <fix>3d</fix>
</trkpt>
<trkpt lat="33.8103133" lon="-118.3938674">
  <ele>-3.37</ele>
  <time>2026-09-02T22:08:16Z</time>
  <course>311.12</course>
  <speed>0.01</speed>
  <fix>3d</fix>
</trkpt>
<trkpt lat="33.8103131" lon="-118.3938673">
  <ele>-3.45</ele>
  <time>2026-09-02T22:08:16Z</time>
  <course>358.73</course>
  <speed>0.01</speed>
  <fix>3d</fix>
</trkpt>
<trkpt lat="33.8103133" lon="-118.3938674">
  <ele>-3.37</ele>
  <time>2026-09-02T22:08:16Z</time>
  <course>311.12</course>
  <speed>0.01</speed>
  <fix>3d</fix>
</trkpt>
<trkpt lat="33.8103131" lon="-118.3938673">
  <ele>-3.451</ele>
  <time>2026-09-02T22:08:16Z</time>
  <course>358.71</course>
  <speed>0.01</speed>
  <fix>3d</fix>
</trkpt>
<trkpt lat="33.8103133" lon="-118.3938675">
  <ele>-3.37</ele>
  <time>2026-09-02T22:08:16Z</time>
  <course>311.22</course>
  <speed>0.01</speed>
  <fix>3d</fix>
</trkpt>
<trkpt lat="33.8103131" lon="-118.3938673">
  <ele>-3.451</ele>
  <time>2026-09-02T22:08:16Z</time>
  <course>358.69</course>
  <speed>0.01</speed>
  <fix>3d</fix>
</trkpt>
<trkpt lat="33.8103133" lon="-118.3938675">
  <ele>-3.37</ele>
  <time>2026-09-02T22:08:16Z</time>
  <course>311.22</course>
  <speed>0.01</speed>
  <fix>3d</fix>
</trkpt>
<trkpt lat="33.8103131" lon="-118.3938673">
  <ele>-3.451</ele>
  <time>2026-09-02T22:08:16Z</time>
  <course>358.67</course>
  <speed>0.01</speed>
  <fix>3d</fix>
</trkpt>
<trkpt lat="33.8103133" lon="-118.3938675">
  <ele>-3.38</ele>
  <time>2026-09-02T22:08:16Z</time>
  <course>311.32</course>
  <speed>0.01</speed>
  <fix>3d</fix>
</trkpt>
<trkpt lat="33.8103131" lon="-118.3938673">
  <ele>-3.451</ele>
  <time>2026-09-02T22:08:16Z</time>
  <course>358.65</course>
  <speed>0.01</speed>
  <fix>3d</fix>
</trkpt>
<trkpt lat="33.8103133" lon="-118.3938675">
  <ele>-3.38</ele>
  <time>2026-09-02T22:08:16Z</time>
  <course>311.32</course>
  <speed>0.01</speed>
  <fix>3d</fix>
</trkpt>
<trkpt lat="33.8103131" lon="-118.3938673">
  <ele>-3.45</ele>
  <time>2026-09-02T22:08:16Z</time>
  <course>358.63</course>
  <speed>0.01</speed>
  <fix>3d</fix>
</trkpt>
<trkpt lat="33.8103133" lon="-118.3938675">
  <ele>-3.38</ele>
  <time>2026-09-02T22:08:16Z</time>
  <course>311.44</course>
  <speed>0.01</speed>
  <fix>3d</fix>
</trkpt>
<trkpt lat="33.8103131" lon="-118.3938673">
  <ele>-3.45</ele>
  <time>2026-09-02T22:08:16Z</time>
  <course>358.61</course>
  <speed>0.01</speed>
  <fix>3d</fix>
</trkpt>
<trkpt lat="33.8103133" lon="-118.3938675">
  <ele>-3.38</ele>
  <time>2026-09-02T22:08:16Z</time>
  <course>311.44</course>
  <speed>0.01</speed>
  <fix>3d</fix>
</trkpt>
<trkpt lat="33.8103131" lon="-118.3938674">
  <ele>-3.451</ele>
  <time>2026-09-02T22:08:16Z</time>
  <course>358.59</course>
  <speed>0.01</speed>
  <fix>3d</fix>
</trkpt>
<trkpt lat="33.8103133" lon="-118.3938675">
  <ele>-3.38</ele>
  <time>2026-09-02T22:08:16Z</time>
  <course>311.59</course>
  <speed>0.01</speed>
  <fix>3d</fix>
</trkpt>
<trkpt lat="33.8103131" lon="-118.3938674">
  <ele>-3.453</ele>
  <time>2026-09-02T22:08:16Z</time>
  <course>358.57</course>
  <speed>0.01</speed>
  <fix>3d</fix>
</trkpt>
<trkpt lat="33.8103133" lon="-118.3938675">
  <ele>-3.38</ele>
  <time>2026-09-02T22:08:16Z</time>
  <course>311.59</course>
  <speed>0.01</speed>
  <fix>3d</fix>
</trkpt>
<trkpt lat="33.8103131" lon="-118.3938674">
  <ele>-3.455</ele>
  <time>2026-09-02T22:08:16Z</time>
  <course>358.56</course>
  <speed>0.01</speed>
  <fix>3d</fix>
</trkpt>
<trkpt lat="33.8103134" lon="-118.3938675">
  <ele>-3.38</ele>
  <time>2026-09-02T22:08:16Z</time>
  <course>311.69</course>
  <speed>0.01</speed>
  <fix>3d</fix>
</trkpt>
<trkpt lat="33.8103132" lon="-118.3938674">
  <ele>-3.456</ele>
  <time>2026-09-02T22:08:16Z</time>
  <course>358.54</course>
  <speed>0.01</speed>
  <fix>3d</fix>
</trkpt>
<trkpt lat="33.8103134" lon="-118.3938675">
  <ele>-3.38</ele>
  <time>2026-09-02T22:08:16Z</time>
  <course>311.69</course>
  <speed>0.01</speed>
  <fix>3d</fix>
</trkpt>
<trkpt lat="33.8103132" lon="-118.3938674">
  <ele>-3.456</ele>
  <time>2026-09-02T22:08:16Z</time>
  <course>358.52</course>
  <speed>0.01</speed>
  <fix>3d</fix>
</trkpt>
<trkpt lat="33.8103134" lon="-118.3938676">
  <ele>-3.38</ele>
  <time>2026-09-02T22:08:16Z</time>
  <course>311.76</course>
  <speed>0.01</speed>
  <fix>3d</fix>
</trkpt>
<trkpt lat="33.8103132" lon="-118.3938674">
  <ele>-3.455</ele>
  <time>2026-09-02T22:08:16Z</time>
  <course>358.5</course>
  <speed>0.01</speed>
  <fix>3d</fix>
</trkpt>
<trkpt lat="33.8103134" lon="-118.3938676">
  <ele>-3.38</ele>
  <time>2026-09-02T22:08:16Z</time>
  <course>311.76</course>
  <speed>0.01</speed>
  <fix>3d</fix>
</trkpt>
<trkpt lat="33.8103132" lon="-118.3938674">
  <ele>-3.454</ele>
  <time>2026-09-02T22:08:16Z</time>
  <course>358.48</course>
  <speed>0.01</speed>
  <fix>3d</fix>
</trkpt>
<trkpt lat="33.8103134" lon="-118.3938676">
  <ele>-3.38</ele>
  <time>2026-09-02T22:08:16Z</time>
  <course>311.83</course>
  <speed>0.01</speed>
  <fix>3d</fix>
</trkpt>
<trkpt lat="33.8103132" lon="-118.3938674">
  <ele>-3.452</ele>
  <time>2026-09-02T22:08:17Z</time>
  <course>358.47</course>
  <speed>0.01</speed>
  <fix>3d</fix>
</trkpt>
<trkpt lat="33.8103134" lon="-118.3938676">
  <ele>-3.38</ele>
  <time>2026-09-02T22:08:17Z</time>
  <course>311.83</course>
  <speed>0.01</speed>
  <fix>3d</fix>
</trkpt>
<trkpt lat="33.8103132" lon="-118.3938674">
  <ele>-3.451</ele>
  <time>2026-09-02T22:08:17Z</time>
  <course>358.45</course>
  <speed>0.01</speed>
  <fix>3d</fix>
</trkpt>
<trkpt lat="33.8103134" lon="-118.3938676">
  <ele>-3.37</ele>
  <time>2026-09-02T22:08:17Z</time>
  <course>311.92</course>
  <speed>0.01</speed>
  <fix>3d</fix>
</trkpt>
<trkpt lat="33.8103132" lon="-118.3938674">
  <ele>-3.449</ele>
  <time>2026-09-02T22:08:17Z</time>
  <course>358.43</course>
  <speed>0.01</speed>
  <fix>3d</fix>
</trkpt>
<trkpt lat="33.8103134" lon="-118.3938676">
  <ele>-3.37</ele>
  <time>2026-09-02T22:08:17Z</time>
  <course>311.92</course>
  <speed>0.01</speed>
  <fix>3d</fix>
</trkpt>
<trkpt lat="33.8103132" lon="-118.3938674">
  <ele>-3.448</ele>
  <time>2026-09-02T22:08:17Z</time>
  <course>358.42</course>
  <speed>0.01</speed>
  <fix>3d</fix>
</trkpt>
<trkpt lat="33.8103134" lon="-118.3938676">
  <ele>-3.37</ele>
  <time>2026-09-02T22:08:17Z</time>
  <course>312.04</course>
  <speed>0.01</speed>
  <fix>3d</fix>
</trkpt>
<trkpt lat="33.8103132" lon="-118.3938674">
  <ele>-3.447</ele>
  <time>2026-09-02T22:08:17Z</time>
  <course>358.4</course>
  <speed>0.01</speed>
  <fix>3d</fix>
</trkpt>
<trkpt lat="33.8103134" lon="-118.3938676">
  <ele>-3.37</ele>
  <time>2026-09-02T22:08:17Z</time>
  <course>312.04</course>
  <speed>0.01</speed>
  <fix>3d</fix>
</trkpt>
<trkpt lat="33.8103132" lon="-118.3938674">
  <ele>-3.448</ele>
  <time>2026-09-02T22:08:17Z</time>
  <course>358.39</course>
  <speed>0.01</speed>
  <fix>3d</fix>
</trkpt>
<trkpt lat="33.8103134" lon="-118.3938676">
  <ele>-3.37</ele>
  <time>2026-09-02T22:08:17Z</time>
  <course>312.19</course>
  <speed>0.01</speed>
  <fix>3d</fix>
</trkpt>
<trkpt lat="33.8103132" lon="-118.3938675">
  <ele>-3.448</ele>
  <time>2026-09-02T22:08:17Z</time>
  <course>358.37</course>
  <speed>0.01</speed>
  <fix>3d</fix>
</trkpt>
<trkpt lat="33.8103134" lon="-118.3938676">
  <ele>-3.37</ele>
  <time>2026-09-02T22:08:17Z</time>
  <course>312.19</course>
  <speed>0.01</speed>
  <fix>3d</fix>
</trkpt>
<trkpt lat="33.8103132" lon="-118.3938675">
  <ele>-3.449</ele>
  <time>2026-09-02T22:08:17Z</time>
  <course>358.35</course>
  <speed>0.01</speed>
  <fix>3d</fix>
</trkpt>
<trkpt lat="33.8103134" lon="-118.3938677">
  <ele>-3.37</ele>
  <time>2026-09-02T22:08:17Z</time>
  <course>312.34</course>
  <speed>0.01</speed>
  <fix>3d</fix>
</trkpt>
<trkpt lat="33.8103132" lon="-118.3938675">
  <ele>-3.449</ele>
  <time>2026-09-02T22:08:17Z</time>
  <course>358.34</course>
  <speed>0.01414213562373095</speed>
  <fix>3d</fix>
</trkpt>
<trkpt lat="33.8103134" lon="-118.3938677">
  <ele>-3.37</ele>
  <time>2026-09-02T22:08:17Z</time>
  <course>312.34</course>
  <speed>0.01</speed>
  <fix>3d</fix>
</trkpt>
<trkpt lat="33.8103132" lon="-118.3938675">
  <ele>-3.449</ele>
  <time>2026-09-02T22:08:17Z</time>
  <course>358.33</course>
  <speed>0.01414213562373095</speed>
  <fix>3d</fix>
</trkpt>
<trkpt lat="33.8103135" lon="-118.3938677">
  <ele>-3.37</ele>
  <time>2026-09-02T22:08:17Z</time>
  <course>312.47</course>
  <speed>0.01</speed>
  <fix>3d</fix>
</trkpt>
<trkpt lat="33.8103132" lon="-118.3938675">
  <ele>-3.449</ele>
  <time>2026-09-02T22:08:17Z</time>
  <course>358.36</course>
  <speed>0.022360679774997897</speed>
  <fix>3d</fix>
</trkpt>
<trkpt lat="33.8103135" lon="-118.3938677">
  <ele>-3.37</ele>
  <time>2026-09-02T22:08:17Z</time>
  <course>312.47</course>
  <speed>0.01</speed>
  <fix>3d</fix>
</trkpt>
<trkpt lat="33.8103132" lon="-118.3938675">
  <ele>-3.449</ele>
  <time>2026-09-02T22:08:17Z</time>
  <course>358.41</course>
  <speed>0.022360679774997897</speed>
  <fix>3d</fix>
</trkpt>
<trkpt lat="33.8103135" lon="-118.3938677">
  <ele>-3.36</ele>
  <time>2026-09-02T22:08:17Z</time>
  <course>312.56</course>
  <speed>0.01</speed>
  <fix>3d</fix>
</trkpt>
<trkpt lat="33.8103132" lon="-118.3938675">
  <ele>-3.448</ele>
  <time>2026-09-02T22:08:17Z</time>
  <course>358.51</course>
  <speed>0.022360679774997897</speed>
  <fix>3d</fix>
</trkpt>
<trkpt lat="33.8103135" lon="-118.3938677">
  <ele>-3.36</ele>
  <time>2026-09-02T22:08:17Z</time>
  <course>312.56</course>
  <speed>0.01</speed>
  <fix>3d</fix>
</trkpt>
<trkpt lat="33.8103132" lon="-118.3938675">
  <ele>-3.447</ele>
  <time>2026-09-02T22:08:17Z</time>
  <course>358.62</course>
  <speed>0.022360679774997897</speed>
  <fix>3d</fix>
</trkpt>
<trkpt lat="33.8103135" lon="-118.3938677">
  <ele>-3.36</ele>
  <time>2026-09-02T22:08:17Z</time>
  <course>312.68</course>
  <speed>0.0</speed>
  <fix>3d</fix>
</trkpt>
<trkpt lat="33.8103132" lon="-118.3938675">
  <ele>-3.446</ele>
  <time>2026-09-02T22:08:17Z</time>
  <course>358.75</course>
  <speed>0.022360679774997897</speed>
  <fix>3d</fix>
</trkpt>
<trkpt lat="33.8103135" lon="-118.3938677">
  <ele>-3.36</ele>
  <time>2026-09-02T22:08:17Z</time>
  <course>312.68</course>
  <speed>0.0</speed>
  <fix>3d</fix>
</trkpt>
<trkpt lat="33.8103132" lon="-118.3938675">
  <ele>-3.446</ele>
  <time>2026-09-02T22:08:17Z</time>
  <course>358.87</course>
  <speed>0.022360679774997897</speed>
  <fix>3d</fix>
</trkpt>
<trkpt lat="33.8103135" lon="-118.3938677">
  <ele>-3.36</ele>
  <time>2026-09-02T22:08:17Z</time>
  <course>312.84</course>
  <speed>0.0</speed>
  <fix>3d</fix>
</trkpt>
<trkpt lat="33.8103133" lon="-118.3938675">
  <ele>-3.446</ele>
  <time>2026-09-02T22:08:17Z</time>
  <course>358.98</course>
  <speed>0.022360679774997897</speed>
  <fix>3d</fix>
</trkpt>
<trkpt lat="33.8103135" lon="-118.3938677">
  <ele>-3.36</ele>
  <time>2026-09-02T22:08:17Z</time>
  <course>312.84</course>
  <speed>0.0</speed>
  <fix>3d</fix>
</trkpt>
<trkpt lat="33.8103133" lon="-118.3938675">
  <ele>-3.446</ele>
  <time>2026-09-02T22:08:17Z</time>
  <course>359.07</course>
  <speed>0.022360679774997897</speed>
  <fix>3d</fix>
</trkpt>
<trkpt lat="33.8103135" lon="-118.3938677">
  <ele>-3.36</ele>
  <time>2026-09-02T22:08:17Z</time>
  <course>312.99</course>
  <speed>0.0</speed>
  <fix>3d</fix>
</trkpt>
<trkpt lat="33.8103133" lon="-118.3938675">
  <ele>-3.447</ele>
  <time>2026-09-02T22:08:17Z</time>
  <course>359.12</course>
  <speed>0.022360679774997897</speed>
  <fix>3d</fix>
</trkpt>
<trkpt lat="33.8103135" lon="-118.3938677">
  <ele>-3.36</ele>
  <time>2026-09-02T22:08:17Z</time>
  <course>312.99</course>
  <speed>0.0</speed>
  <fix>3d</fix>
</trkpt>
<trkpt lat="33.8103133" lon="-118.3938675">
  <ele>-3.449</ele>
  <time>2026-09-02T22:08:17Z</time>
  <course>359.16</course>
  <speed>0.022360679774997897</speed>
  <fix>3d</fix>
</trkpt>
<trkpt lat="33.8103135" lon="-118.3938677">
  <ele>-3.36</ele>
  <time>2026-09-02T22:08:17Z</time>
  <course>313.11</course>
  <speed>0.0</speed>
  <fix>3d</fix>
</trkpt>
<trkpt lat="33.8103133" lon="-118.3938675">
  <ele>-3.449</ele>
  <time>2026-09-02T22:08:17Z</time>
  <course>359.18</course>
  <speed>0.022360679774997897</speed>
  <fix>3d</fix>
</trkpt>
<trkpt lat="33.8103135" lon="-118.3938677">
  <ele>-3.36</ele>
  <time>2026-09-02T22:08:17Z</time>
  <course>313.11</course>
  <speed>0.0</speed>
  <fix>3d</fix>
</trkpt>
<trkpt lat="33.8103133" lon="-118.3938675">
  <ele>-3.448</ele>
  <time>2026-09-02T22:08:17Z</time>
  <course>359.19</course>
  <speed>0.022360679774997897</speed>
  <fix>3d</fix>
</trkpt>
<trkpt lat="33.8103135" lon="-118.3938677">
  <ele>-3.36</ele>
  <time>2026-09-02T22:08:17Z</time>
  <course>313.17</course>
  <speed>0.0</speed>
  <fix>3d</fix>
</trkpt>
<trkpt lat="33.8103133" lon="-118.3938675">
  <ele>-3.447</ele>
  <time>2026-09-02T22:08:17Z</time>
  <course>359.2</course>
  <speed>0.022360679774997897</speed>
  <fix>3d</fix>
</trkpt>
<trkpt lat="33.8103135" lon="-118.3938677">
  <ele>-3.36</ele>
  <time>2026-09-02T22:08:17Z</time>
  <course>313.17</course>
  <speed>0.0</speed>
  <fix>3d</fix>
</trkpt>
<trkpt lat="33.8103133" lon="-118.3938675">
  <ele>-3.446</ele>
  <time>2026-09-02T22:08:17Z</time>
  <course>359.21</course>
  <speed>0.022360679774997897</speed>
  <fix>3d</fix>
</trkpt>
<trkpt lat="33.8103135" lon="-118.3938678">
  <ele>-3.36</ele>
  <time>2026-09-02T22:08:17Z</time>
  <course>313.28</course>
  <speed>0.0</speed>
  <fix>3d</fix>
</trkpt>
<trkpt lat="33.8103133" lon="-118.3938675">
  <ele>-3.446</ele>
  <time>2026-09-02T22:08:17Z</time>
  <course>359.21</course>
  <speed>0.022360679774997897</speed>
  <fix>3d</fix>
</trkpt>
<trkpt lat="33.8103135" lon="-118.3938678">
  <ele>-3.36</ele>
  <time>2026-09-02T22:08:17Z</time>
  <course>313.28</course>
  <speed>0.0</speed>
  <fix>3d</fix>
</trkpt>
<trkpt lat="33.8103133" lon="-118.3938675">
  <ele>-3.446</ele>
  <time>2026-09-02T22:08:17Z</time>
  <course>359.19</course>
  <speed>0.022360679774997897</speed>
  <fix>3d</fix>
</trkpt>
<trkpt lat="33.8103135" lon="-118.3938678">
  <ele>-3.35</ele>
  <time>2026-09-02T22:08:17Z</time>
  <course>313.64</course>
  <speed>0.0</speed>
  <fix>3d</fix>
</trkpt>
<trkpt lat="33.8103133" lon="-118.3938675">
  <ele>-3.447</ele>
  <time>2026-09-02T22:08:17Z</time>
  <course>359.17</course>
  <speed>0.022360679774997897</speed>
  <fix>3d</fix>
</trkpt>
<trkpt lat="33.8103135" lon="-118.3938678">
  <ele>-3.35</ele>
  <time>2026-09-02T22:08:17Z</time>
  <course>313.64</course>
  <speed>0.0</speed>
  <fix>3d</fix>
</trkpt>
<trkpt lat="33.8103133" lon="-118.3938675">
  <ele>-3.446</ele>
  <time>2026-09-02T22:08:17Z</time>
  <course>359.14</course>
  <speed>0.022360679774997897</speed>
  <fix>3d</fix>
</trkpt>
<trkpt lat="33.8103135" lon="-118.3938678">
  <ele>-3.35</ele>
  <time>2026-09-02T22:08:17Z</time>
  <course>314.12</course>
  <speed>0.0</speed>
  <fix>3d</fix>
</trkpt>
<trkpt lat="33.8103133" lon="-118.3938675">
  <ele>-3.445</ele>
  <time>2026-09-02T22:08:17Z</time>
  <course>359.11</course>
  <speed>0.022360679774997897</speed>
  <fix>3d</fix>
</trkpt>
<trkpt lat="33.8103135" lon="-118.3938678">
  <ele>-3.35</ele>
  <time>2026-09-02T22:08:17Z</time>
  <course>314.12</course>
  <speed>0.0</speed>
  <fix>3d</fix>
</trkpt>
<trkpt lat="33.8103133" lon="-118.3938675">
  <ele>-3.443</ele>
  <time>2026-09-02T22:08:17Z</time>
  <course>359.08</course>
  <speed>0.022360679774997897</speed>
  <fix>3d</fix>
</trkpt>
<trkpt lat="33.8103135" lon="-118.3938678">
  <ele>-3.35</ele>
  <time>2026-09-02T22:08:17Z</time>
  <course>314.4</course>
  <speed>0.0</speed>
  <fix>3d</fix>
</trkpt>
<trkpt lat="33.8103133" lon="-118.3938675">
  <ele>-3.441</ele>
  <time>2026-09-02T22:08:17Z</time>
  <course>359.06</course>
  <speed>0.022360679774997897</speed>
  <fix>3d</fix>
</trkpt>
<trkpt lat="33.8103135" lon="-118.3938678">
  <ele>-3.35</ele>
  <time>2026-09-02T22:08:17Z</time>
  <course>314.4</course>
  <speed>0.0</speed>
  <fix>3d</fix>
</trkpt>
<trkpt lat="33.8103133" lon="-118.3938675">
  <ele>-3.439</ele>
  <time>2026-09-02T22:08:17Z</time>
  <course>359.06</course>
  <speed>0.022360679774997897</speed>
  <fix>3d</fix>
</trkpt>
<trkpt lat="33.8103135" lon="-118.3938678">
  <ele>-3.35</ele>
  <time>2026-09-02T22:08:17Z</time>
  <course>314.79</course>
  <speed>0.0</speed>
  <fix>3d</fix>
</trkpt>
<trkpt lat="33.8103133" lon="-118.3938675">
  <ele>-3.438</ele>
  <time>2026-09-02T22:08:17Z</time>
  <course>359.05</course>
  <speed>0.0282842712474619</speed>
  <fix>3d</fix>
</trkpt>
<trkpt lat="33.8103135" lon="-118.3938678">
  <ele>-3.35</ele>
  <time>2026-09-02T22:08:17Z</time>
  <course>314.79</course>
  <speed>0.0</speed>
  <fix>3d</fix>
</trkpt>
<trkpt lat="33.8103133" lon="-118.3938675">
  <ele>-3.44</ele>
  <time>2026-09-02T22:08:17Z</time>
  <course>359.05</course>
  <speed>0.0282842712474619</speed>
  <fix>3d</fix>
</trkpt>
<trkpt lat="33.8103135" lon="-118.3938678">
  <ele>-3.35</ele>
  <time>2026-09-02T22:08:17Z</time>
  <course>315.84</course>
  <speed>0.0</speed>
  <fix>3d</fix>
</trkpt>
<trkpt lat="33.8103133" lon="-118.3938675">
  <ele>-3.442</ele>
  <time>2026-09-02T22:08:17Z</time>
  <course>359.05</course>
  <speed>0.0282842712474619</speed>
  <fix>3d</fix>
</trkpt>
<trkpt lat="33.8103135" lon="-118.3938678">
  <ele>-3.35</ele>
  <time>2026-09-02T22:08:17Z</time>
  <course>315.84</course>
  <speed>0.0</speed>
  <fix>3d</fix>
</trkpt>
<trkpt lat="33.8103133" lon="-118.3938675">
  <ele>-3.446</ele>
  <time>2026-09-02T22:08:17Z</time>
  <course>359.05</course>
  <speed>0.0282842712474619</speed>
  <fix>3d</fix>
</trkpt>
<trkpt lat="33.8103135" lon="-118.3938678">
  <ele>-3.35</ele>
  <time>2026-09-02T22:08:17Z</time>
  <course>317.09</course>
  <speed>0.0</speed>
  <fix>3d</fix>
</trkpt>
<trkpt lat="33.8103133" lon="-118.3938676">
  <ele>-3.447</ele>
  <time>2026-09-02T22:08:17Z</time>
  <course>359.04</course>
  <speed>0.03605551275463989</speed>
  <fix>3d</fix>
</trkpt>
<trkpt lat="33.8103135" lon="-118.3938678">
  <ele>-3.35</ele>
  <time>2026-09-02T22:08:17Z</time>
  <course>317.09</course>
  <speed>0.0</speed>
  <fix>3d</fix>
</trkpt>
<trkpt lat="33.8103133" lon="-118.3938676">
  <ele>-3.448</ele>
  <time>2026-09-02T22:08:17Z</time>
  <course>359.04</course>
  <speed>0.03605551275463989</speed>
  <fix>3d</fix>
</trkpt>
<trkpt lat="33.8103136" lon="-118.3938678">
  <ele>-3.36</ele>
  <time>2026-09-02T22:08:17Z</time>
  <course>317.64</course>
  <speed>0.0</speed>
  <fix>3d</fix>
</trkpt>
<trkpt lat="33.8103133" lon="-118.3938676">
  <ele>-3.448</ele>
  <time>2026-09-02T22:08:17Z</time>
  <course>359.05</course>
  <speed>0.03605551275463989</speed>
  <fix>3d</fix>
</trkpt>
<trkpt lat="33.8103136" lon="-118.3938678">
  <ele>-3.36</ele>
  <time>2026-09-02T22:08:17Z</time>
  <course>317.64</course>
  <speed>0.0</speed>
  <fix>3d</fix>
</trkpt>
<trkpt lat="33.8103133" lon="-118.3938676">
  <ele>-3.447</ele>
  <time>2026-09-02T22:08:17Z</time>
  <course>359.05</course>
  <speed>0.03605551275463989</speed>
  <fix>3d</fix>
</trkpt>
<trkpt lat="33.8103136" lon="-118.3938678">
  <ele>-3.36</ele>
  <time>2026-09-02T22:08:17Z</time>
  <course>320.43</course>
  <speed>0.0</speed>
  <fix>3d</fix>
</trkpt>
<trkpt lat="33.8103133" lon="-118.3938676">
  <ele>-3.446</ele>
  <time>2026-09-02T22:08:17Z</time>
  <course>359.06</course>
  <speed>0.03605551275463989</speed>
  <fix>3d</fix>
</trkpt>
<trkpt lat="33.8103136" lon="-118.3938678">
  <ele>-3.36</ele>
  <time>2026-09-02T22:08:17Z</time>
  <course>320.43</course>
  <speed>0.0</speed>
  <fix>3d</fix>
</trkpt>
<trkpt lat="33.8103133" lon="-118.3938676">
  <ele>-3.445</ele>
  <time>2026-09-02T22:08:17Z</time>
  <course>359.06</course>
  <speed>0.03605551275463989</speed>
  <fix>3d</fix>
</trkpt>
<trkpt lat="33.8103136" lon="-118.3938678">
  <ele>-3.36</ele>
  <time>2026-09-02T22:08:17Z</time>
  <course>108.17</course>
  <speed>0.0</speed>
  <fix>3d</fix>
</trkpt>
<trkpt lat="33.8103133" lon="-118.3938676">
  <ele>-3.445</ele>
  <time>2026-09-02T22:08:17Z</time>
  <course>359.06</course>
  <speed>0.03605551275463989</speed>
  <fix>3d</fix>
</trkpt>
<trkpt lat="33.8103136" lon="-118.3938678">
  <ele>-3.36</ele>
  <time>2026-09-02T22:08:17Z</time>
  <course>108.17</course>
  <speed>0.0</speed>
  <fix>3d</fix>
</trkpt>
<trkpt lat="33.8103133" lon="-118.3938676">
  <ele>-3.446</ele>
  <time>2026-09-02T22:08:17Z</time>
  <course>359.06</course>
  <speed>0.03605551275463989</speed>
  <fix>3d</fix>
</trkpt>
<trkpt lat="33.8103136" lon="-118.3938678">
  <ele>-3.36</ele>
  <time>2026-09-02T22:08:17Z</time>
  <course>128.67</course>
  <speed>0.0</speed>
  <fix>3d</fix>
</trkpt>
<trkpt lat="33.8103133" lon="-118.3938676">
  <ele>-3.446</ele>
  <time>2026-09-02T22:08:17Z</time>
  <course>359.06</course>
  <speed>0.03605551275463989</speed>
  <fix>3d</fix>
</trkpt>
<trkpt lat="33.8103136" lon="-118.3938678">
  <ele>-3.36</ele>
  <time>2026-09-02T22:08:17Z</time>
  <course>128.67</course>
  <speed>0.0</speed>
  <fix>3d</fix>
</trkpt>
<trkpt lat="33.8103133" lon="-118.3938676">
  <ele>-3.445</ele>
  <time>2026-09-02T22:08:17Z</time>
  <course>359.06</course>
  <speed>0.03605551275463989</speed>
  <fix>3d</fix>
</trkpt>
<trkpt lat="33.8103136" lon="-118.3938678">
  <ele>-3.36</ele>
  <time>2026-09-02T22:08:17Z</time>
  <course>130.46</course>
  <speed>0.0</speed>
  <fix>3d</fix>
</trkpt>
<trkpt lat="33.8103133" lon="-118.3938676">
  <ele>-3.445</ele>
  <time>2026-09-02T22:08:17Z</time>
  <course>359.06</course>
  <speed>0.03605551275463989</speed>
  <fix>3d</fix>
</trkpt>
<trkpt lat="33.8103136" lon="-118.3938678">
  <ele>-3.36</ele>
  <time>2026-09-02T22:08:17Z</time>
  <course>130.46</course>
  <speed>0.0</speed>
  <fix>3d</fix>
</trkpt>
<trkpt lat="33.8103133" lon="-118.3938676">
  <ele>-3.446</ele>
  <time>2026-09-02T22:08:17Z</time>
  <course>359.06</course>
  <speed>0.03605551275463989</speed>
  <fix>3d</fix>
</trkpt>
<trkpt lat="33.8103136" lon="-118.3938678">
  <ele>-3.36</ele>
  <time>2026-09-02T22:08:17Z</time>
  <course>130.84</course>
  <speed>0.0</speed>
  <fix>3d</fix>
</trkpt>
<trkpt lat="33.8103133" lon="-118.3938676">
  <ele>-3.446</ele>
  <time>2026-09-02T22:08:17Z</time>
  <course>359.06</course>
  <speed>0.03605551275463989</speed>
  <fix>3d</fix>
</trkpt>
<trkpt lat="33.8103136" lon="-118.3938678">
  <ele>-3.36</ele>
  <time>2026-09-02T22:08:17Z</time>
  <course>130.84</course>
  <speed>0.0</speed>
  <fix>3d</fix>
</trkpt>
<trkpt lat="33.8103133" lon="-118.3938676">
  <ele>-3.445</ele>
  <time>2026-09-02T22:08:17Z</time>
  <course>359.06</course>
  <speed>0.03605551275463989</speed>
  <fix>3d</fix>
</trkpt>
<trkpt lat="33.8103136" lon="-118.3938678">
  <ele>-3.36</ele>
  <time>2026-09-02T22:08:17Z</time>
  <course>130.85</course>
  <speed>0.0</speed>
  <fix>3d</fix>
</trkpt>
<trkpt lat="33.8103133" lon="-118.3938676">
  <ele>-3.444</ele>
  <time>2026-09-02T22:08:17Z</time>
  <course>359.07</course>
  <speed>0.03605551275463989</speed>
  <fix>3d</fix>
</trkpt>
<trkpt lat="33.8103136" lon="-118.3938678">
  <ele>-3.36</ele>
  <time>2026-09-02T22:08:17Z</time>
  <course>130.85</course>
  <speed>0.0</speed>
  <fix>3d</fix>
</trkpt>
<trkpt lat="33.8103133" lon="-118.3938676">
  <ele>-3.444</ele>
  <time>2026-09-02T22:08:17Z</time>
  <course>359.07</course>
  <speed>0.03605551275463989</speed>
  <fix>3d</fix>
</trkpt>
<trkpt lat="33.8103136" lon="-118.3938678">
  <ele>-3.36</ele>
  <time>2026-09-02T22:08:17Z</time>
  <course>130.8</course>
  <speed>0.0</speed>
  <fix>3d</fix>
</trkpt>
<trkpt lat="33.8103133" lon="-118.3938676">
  <ele>-3.444</ele>
  <time>2026-09-02T22:08:17Z</time>
  <course>359.08</course>
  <speed>0.03605551275463989</speed>
  <fix>3d</fix>
</trkpt>
<trkpt lat="33.8103136" lon="-118.3938678">
  <ele>-3.36</ele>
  <time>2026-09-02T22:08:17Z</time>
  <course>130.8</course>
  <speed>0.0</speed>
  <fix>3d</fix>
</trkpt>
<trkpt lat="33.8103133" lon="-118.3938676">
  <ele>-3.444</ele>
  <time>2026-09-02T22:08:17Z</time>
  <course>359.08</course>
  <speed>0.03605551275463989</speed>
  <fix>3d</fix>
</trkpt>
<trkpt lat="33.8103136" lon="-118.3938678">
  <ele>-3.36</ele>
  <time>2026-09-02T22:08:17Z</time>
  <course>130.95</course>
  <speed>0.0</speed>
  <fix>3d</fix>
</trkpt>
<trkpt lat="33.8103133" lon="-118.3938676">
  <ele>-3.444</ele>
  <time>2026-09-02T22:08:17Z</time>
  <course>359.08</course>
  <speed>0.03605551275463989</speed>
  <fix>3d</fix>
</trkpt>
<trkpt lat="33.8103136" lon="-118.3938678">
  <ele>-3.36</ele>
  <time>2026-09-02T22:08:17Z</time>
  <course>130.95</course>
  <speed>0.0</speed>
  <fix>3d</fix>
</trkpt>
<trkpt lat="33.8103133" lon="-118.3938676">
  <ele>-3.444</ele>
  <time>2026-09-02T22:08:17Z</time>
  <course>359.09</course>
  <speed>0.03605551275463989</speed>
  <fix>3d</fix>
</trkpt>
<trkpt lat="33.8103136" lon="-118.3938678">
  <ele>-3.36</ele>
  <time>2026-09-02T22:08:17Z</time>
  <course>131.07</course>
  <speed>0.0</speed>
  <fix>3d</fix>
</trkpt>
<trkpt lat="33.8103133" lon="-118.3938676">
  <ele>-3.445</ele>
  <time>2026-09-02T22:08:17Z</time>
  <course>359.08</course>
  <speed>0.03605551275463989</speed>
  <fix>3d</fix>
</trkpt>
<trkpt lat="33.8103136" lon="-118.3938678">
  <ele>-3.36</ele>
  <time>2026-09-02T22:08:17Z</time>
  <course>131.07</course>
  <speed>0.0</speed>
  <fix>3d</fix>
</trkpt>
<trkpt lat="33.8103133" lon="-118.3938676">
  <ele>-3.445</ele>
  <time>2026-09-02T22:08:17Z</time>
  <course>359.06</course>
  <speed>0.03605551275463989</speed>
  <fix>3d</fix>
</trkpt>
<trkpt lat="33.8103136" lon="-118.3938678">
  <ele>-3.36</ele>
  <time>2026-09-02T22:08:17Z</time>
  <course>131.05</course>
  <speed>0.0</speed>
  <fix>3d</fix>
</trkpt>
<trkpt lat="33.8103133" lon="-118.3938676">
  <ele>-3.447</ele>
  <time>2026-09-02T22:08:17Z</time>
  <course>359.07</course>
  <speed>0.03605551275463989</speed>
  <fix>3d</fix>
</trkpt>
<trkpt lat="33.8103136" lon="-118.3938678">
  <ele>-3.36</ele>
  <time>2026-09-02T22:08:17Z</time>
  <course>131.05</course>
  <speed>0.0</speed>
  <fix>3d</fix>
</trkpt>
<trkpt lat="33.8103133" lon="-118.3938676">
  <ele>-3.448</ele>
  <time>2026-09-02T22:08:17Z</time>
  <course>359.08</course>
  <speed>0.03605551275463989</speed>
  <fix>3d</fix>
</trkpt>
<trkpt lat="33.8103136" lon="-118.3938678">
  <ele>-3.37</ele>
  <time>2026-09-02T22:08:17Z</time>
  <course>131.14</course>
  <speed>0.0</speed>
  <fix>3d</fix>
</trkpt>
<trkpt lat="33.8103133" lon="-118.3938676">
  <ele>-3.449</ele>
  <time>2026-09-02T22:08:17Z</time>
  <course>359.1</course>
  <speed>0.03605551275463989</speed>
  <fix>3d</fix>
</trkpt>
<trkpt lat="33.8103136" lon="-118.3938678">
  <ele>-3.37</ele>
  <time>2026-09-02T22:08:17Z</time>
  <course>131.14</course>
  <speed>0.0</speed>
  <fix>3d</fix>
</trkpt>
<trkpt lat="33.8103133" lon="-118.3938675">
  <ele>-3.45</ele>
  <time>2026-09-02T22:08:17Z</time>
  <course>359.11</course>
  <speed>0.03605551275463989</speed>
  <fix>3d</fix>
</trkpt>
<trkpt lat="33.8103136" lon="-118.3938678">
  <ele>-3.37</ele>
  <time>2026-09-02T22:08:17Z</time>
  <course>131.26</course>
  <speed>0.0</speed>
  <fix>3d</fix>
</trkpt>
<trkpt lat="33.8103133" lon="-118.3938675">
  <ele>-3.45</ele>
  <time>2026-09-02T22:08:17Z</time>
  <course>359.12</course>
  <speed>0.03605551275463989</speed>
  <fix>3d</fix>
</trkpt>
<trkpt lat="33.8103136" lon="-118.3938678">
  <ele>-3.37</ele>
  <time>2026-09-02T22:08:17Z</time>
  <course>131.26</course>
  <speed>0.0</speed>
  <fix>3d</fix>
</trkpt>
<trkpt lat="33.8103133" lon="-118.3938675">
  <ele>-3.449</ele>
  <time>2026-09-02T22:08:17Z</time>
  <course>359.13</course>
  <speed>0.03605551275463989</speed>
  <fix>3d</fix>
</trkpt>
<trkpt lat="33.8103136" lon="-118.3938678">
  <ele>-3.37</ele>
  <time>2026-09-02T22:08:17Z</time>
  <course>131.3</course>
  <speed>0.0</speed>
  <fix>3d</fix>
</trkpt>
<trkpt lat="33.8103133" lon="-118.3938675">
  <ele>-3.449</ele>
  <time>2026-09-02T22:08:17Z</time>
  <course>359.13</course>
  <speed>0.03605551275463989</speed>
  <fix>3d</fix>
</trkpt>
<trkpt lat="33.8103136" lon="-118.3938678">
  <ele>-3.37</ele>
  <time>2026-09-02T22:08:17Z</time>
  <course>131.3</course>
  <speed>0.0</speed>
  <fix>3d</fix>
</trkpt>
<trkpt lat="33.8103133" lon="-118.3938675">
  <ele>-3.449</ele>
  <time>2026-09-02T22:08:17Z</time>
  <course>359.12</course>
  <speed>0.03605551275463989</speed>
  <fix>3d</fix>
</trkpt>
<trkpt lat="33.8103136" lon="-118.3938678">
  <ele>-3.36</ele>
  <time>2026-09-02T22:08:17Z</time>
  <course>131.27</course>
  <speed>0.0</speed>
  <fix>3d</fix>
</trkpt>
<trkpt lat="33.8103133" lon="-118.3938675">
  <ele>-3.449</ele>
  <time>2026-09-02T22:08:17Z</time>
  <course>359.1</course>
  <speed>0.03605551275463989</speed>
  <fix>3d</fix>
</trkpt>
<trkpt lat="33.8103136" lon="-118.3938678">
  <ele>-3.36</ele>
  <time>2026-09-02T22:08:17Z</time>
  <course>131.27</course>
  <speed>0.0</speed>
  <fix>3d</fix>
</trkpt>
<trkpt lat="33.8103133" lon="-118.3938675">
  <ele>-3.449</ele>
  <time>2026-09-02T22:08:17Z</time>
  <course>359.08</course>
  <speed>0.03605551275463989</speed>
  <fix>3d</fix>
</trkpt>
<trkpt lat="33.8103136" lon="-118.3938678">
  <ele>-3.36</ele>
  <time>2026-09-02T22:08:17Z</time>
  <course>131.24</course>
  <speed>0.0</speed>
  <fix>3d</fix>
</trkpt>
<trkpt lat="33.8103133" lon="-118.3938675">
  <ele>-3.45</ele>
  <time>2026-09-02T22:08:17Z</time>
  <course>359.06</course>
  <speed>0.03605551275463989</speed>
  <fix>3d</fix>
</trkpt>
<trkpt lat="33.8103136" lon="-118.3938678">
  <ele>-3.36</ele>
  <time>2026-09-02T22:08:17Z</time>
  <course>131.24</course>
  <speed>0.0</speed>
  <fix>3d</fix>
</trkpt>
<trkpt lat="33.8103133" lon="-118.3938675">
  <ele>-3.449</ele>
  <time>2026-09-02T22:08:17Z</time>
  <course>359.06</course>
  <speed>0.03605551275463989</speed>
  <fix>3d</fix>
</trkpt>
<trkpt lat="33.8103136" lon="-118.3938678">
  <ele>-3.36</ele>
  <time>2026-09-02T22:08:17Z</time>
  <course>131.32</course>
  <speed>0.0</speed>
  <fix>3d</fix>
</trkpt>
<trkpt lat="33.8103133" lon="-118.3938675">
  <ele>-3.449</ele>
  <time>2026-09-02T22:08:17Z</time>
  <course>359.07</course>
  <speed>0.03605551275463989</speed>
  <fix>3d</fix>
</trkpt>
<trkpt lat="33.8103136" lon="-118.3938678">
  <ele>-3.36</ele>
  <time>2026-09-02T22:08:17Z</time>
  <course>131.32</course>
  <speed>0.0</speed>
  <fix>3d</fix>
</trkpt>
<trkpt lat="33.8103133" lon="-118.3938675">
  <ele>-3.448</ele>
  <time>2026-09-02T22:08:17Z</time>
  <course>359.09</course>
  <speed>0.03605551275463989</speed>
  <fix>3d</fix>
</trkpt>
<trkpt lat="33.8103135" lon="-118.3938677">
  <ele>-3.36</ele>
  <time>2026-09-02T22:08:17Z</time>
  <course>131.47</course>
  <speed>0.0</speed>
  <fix>3d</fix>
</trkpt>
<trkpt lat="33.8103133" lon="-118.3938675">
  <ele>-3.446</ele>
  <time>2026-09-02T22:08:17Z</time>
  <course>359.1</course>
  <speed>0.03605551275463989</speed>
  <fix>3d</fix>
</trkpt>
<trkpt lat="33.8103135" lon="-118.3938677">
  <ele>-3.36</ele>
  <time>2026-09-02T22:08:17Z</time>
  <course>131.47</course>
  <speed>0.0</speed>
  <fix>3d</fix>
</trkpt>
<trkpt lat="33.8103133" lon="-118.3938675">
  <ele>-3.445</ele>
  <time>2026-09-02T22:08:17Z</time>
  <course>359.12</course>
  <speed>0.03605551275463989</speed>
  <fix>3d</fix>
</trkpt>
<trkpt lat="33.8103135" lon="-118.3938677">
  <ele>-3.35</ele>
  <time>2026-09-02T22:08:17Z</time>
  <course>131.52</course>
  <speed>0.0</speed>
  <fix>3d</fix>
</trkpt>
<trkpt lat="33.8103133" lon="-118.3938675">
  <ele>-3.444</ele>
  <time>2026-09-02T22:08:17Z</time>
  <course>359.13</course>
  <speed>0.03605551275463989</speed>
  <fix>3d</fix>
</trkpt>
<trkpt lat="33.8103135" lon="-118.3938677">
  <ele>-3.35</ele>
  <time>2026-09-02T22:08:17Z</time>
  <course>131.52</course>
  <speed>0.0</speed>
  <fix>3d</fix>
</trkpt>
<trkpt lat="33.8103133" lon="-118.3938675">
  <ele>-3.444</ele>
  <time>2026-09-02T22:08:17Z</time>
  <course>359.15</course>
  <speed>0.03605551275463989</speed>
  <fix>3d</fix>
</trkpt>
<trkpt lat="33.8103135" lon="-118.3938677">
  <ele>-3.35</ele>
  <time>2026-09-02T22:08:17Z</time>
  <course>131.42</course>
  <speed>0.0</speed>
  <fix>3d</fix>
</trkpt>
<trkpt lat="33.8103133" lon="-118.3938675">
  <ele>-3.443</ele>
  <time>2026-09-02T22:08:17Z</time>
  <course>359.16</course>
  <speed>0.03605551275463989</speed>
  <fix>3d</fix>
</trkpt>
<trkpt lat="33.8103135" lon="-118.3938677">
  <ele>-3.35</ele>
  <time>2026-09-02T22:08:17Z</time>
  <course>131.42</course>
  <speed>0.0</speed>
  <fix>3d</fix>
</trkpt>
<trkpt lat="33.8103133" lon="-118.3938675">
  <ele>-3.442</ele>
  <time>2026-09-02T22:08:17Z</time>
  <course>359.18</course>
  <speed>0.03605551275463989</speed>
  <fix>3d</fix>
</trkpt>
<trkpt lat="33.8103135" lon="-118.3938677">
  <ele>-3.35</ele>
  <time>2026-09-02T22:08:17Z</time>
  <course>131.31</course>
  <speed>0.0</speed>
  <fix>3d</fix>
</trkpt>
<trkpt lat="33.8103133" lon="-118.3938675">
  <ele>-3.442</ele>
  <time>2026-09-02T22:08:17Z</time>
  <course>359.19</course>
  <speed>0.03605551275463989</speed>
  <fix>3d</fix>
</trkpt>
<trkpt lat="33.8103135" lon="-118.3938677">
  <ele>-3.35</ele>
  <time>2026-09-02T22:08:17Z</time>
  <course>131.31</course>
  <speed>0.0</speed>
  <fix>3d</fix>
</trkpt>
<trkpt lat="33.8103133" lon="-118.3938675">
  <ele>-3.441</ele>
  <time>2026-09-02T22:08:17Z</time>
  <course>359.21</course>
  <speed>0.03605551275463989</speed>
  <fix>3d</fix>
</trkpt>
<trkpt lat="33.8103135" lon="-118.3938677">
  <ele>-3.35</ele>
  <time>2026-09-02T22:08:17Z</time>
  <course>131.24</course>
  <speed>0.0</speed>
  <fix>3d</fix>
</trkpt>
<trkpt lat="33.8103133" lon="-118.3938675">
  <ele>-3.441</ele>
  <time>2026-09-02T22:08:17Z</time>
  <course>359.22</course>
  <speed>0.03605551275463989</speed>
  <fix>3d</fix>
</trkpt>
<trkpt lat="33.8103135" lon="-118.3938677">
  <ele>-3.35</ele>
  <time>2026-09-02T22:08:17Z</time>
  <course>131.24</course>
  <speed>0.0</speed>
  <fix>3d</fix>
</trkpt>
<trkpt lat="33.8103133" lon="-118.3938675">
  <ele>-3.44</ele>
  <time>2026-09-02T22:08:17Z</time>
  <course>359.24</course>
  <speed>0.03605551275463989</speed>
  <fix>3d</fix>
</trkpt>
<trkpt lat="33.8103135" lon="-118.3938677">
  <ele>-3.35</ele>
  <time>2026-09-02T22:08:17Z</time>
  <course>131.2</course>
  <speed>0.0</speed>
  <fix>3d</fix>
</trkpt>
<trkpt lat="33.8103133" lon="-118.3938675">
  <ele>-3.439</ele>
  <time>2026-09-02T22:08:17Z</time>
  <course>359.25</course>
  <speed>0.03605551275463989</speed>
  <fix>3d</fix>
</trkpt>
<trkpt lat="33.8103135" lon="-118.3938677">
  <ele>-3.35</ele>
  <time>2026-09-02T22:08:17Z</time>
  <course>131.2</course>
  <speed>0.0</speed>
  <fix>3d</fix>
</trkpt>
<trkpt lat="33.8103133" lon="-118.3938674">
  <ele>-3.438</ele>
  <time>2026-09-02T22:08:17Z</time>
  <course>359.26</course>
  <speed>0.03605551275463989</speed>
  <fix>3d</fix>
</trkpt>
<trkpt lat="33.8103135" lon="-118.3938676">
  <ele>-3.35</ele>
  <time>2026-09-02T22:08:17Z</time>
  <course>131.15</course>
  <speed>0.0</speed>
  <fix>3d</fix>
</trkpt>
<trkpt lat="33.8103133" lon="-118.3938674">
  <ele>-3.439</ele>
  <time>2026-09-02T22:08:17Z</time>
  <course>359.28</course>
  <speed>0.03605551275463989</speed>
  <fix>3d</fix>
</trkpt>
<trkpt lat="33.8103135" lon="-118.3938676">
  <ele>-3.35</ele>
  <time>2026-09-02T22:08:17Z</time>
  <course>131.15</course>
  <speed>0.0</speed>
  <fix>3d</fix>
</trkpt>
<trkpt lat="33.8103133" lon="-118.3938674">
  <ele>-3.439</ele>
  <time>2026-09-02T22:08:17Z</time>
  <course>359.28</course>
  <speed>0.03605551275463989</speed>
  <fix>3d</fix>
</trkpt>
<trkpt lat="33.8103133" lon="-118.3938674">
  <ele>-3.441</ele>
  <time>2026-09-02T22:08:17Z</time>
  <course>359.29</course>
  <speed>0.03605551275463989</speed>
  <fix>3d</fix>
</trkpt>
<trkpt lat="33.8103135" lon="-118.3938676">
  <ele>-3.36</ele>
  <time>2026-09-02T22:08:17Z</time>
  <course>131.06</course>
  <speed>0.0</speed>
  <fix>3d</fix>
</trkpt>
<trkpt lat="33.8103133" lon="-118.3938674">
  <ele>-3.443</ele>
  <time>2026-09-02T22:08:17Z</time>
  <course>359.31</course>
  <speed>0.03605551275463989</speed>
  <fix>3d</fix>
</trkpt>
<trkpt lat="33.8103135" lon="-118.3938676">
  <ele>-3.36</ele>
  <time>2026-09-02T22:08:17Z</time>
  <course>131.06</course>
  <speed>0.0</speed>
  <fix>3d</fix>
</trkpt>
<trkpt lat="33.8103133" lon="-118.3938674">
  <ele>-3.445</ele>
  <time>2026-09-02T22:08:17Z</time>
  <course>359.32</course>
  <speed>0.03605551275463989</speed>
  <fix>3d</fix>
</trkpt>
<trkpt lat="33.8103135" lon="-118.3938676">
  <ele>-3.36</ele>
  <time>2026-09-02T22:08:17Z</time>
  <course>131.0</course>
  <speed>0.0</speed>
  <fix>3d</fix>
</trkpt>
<trkpt lat="33.8103133" lon="-118.3938674">
  <ele>-3.446</ele>
  <time>2026-09-02T22:08:17Z</time>
  <course>359.33</course>
  <speed>0.022360679774997897</speed>
  <fix>3d</fix>
</trkpt>
<trkpt lat="33.8103135" lon="-118.3938676">
  <ele>-3.36</ele>
  <time>2026-09-02T22:08:17Z</time>
  <course>131.0</course>
  <speed>0.0</speed>
  <fix>3d</fix>
</trkpt>
<trkpt lat="33.8103133" lon="-118.3938674">
  <ele>-3.446</ele>
  <time>2026-09-02T22:08:17Z</time>
  <course>359.29</course>
  <speed>0.022360679774997897</speed>
  <fix>3d</fix>
</trkpt>
<trkpt lat="33.8103135" lon="-118.3938676">
  <ele>-3.36</ele>
  <time>2026-09-02T22:08:17Z</time>
  <course>30.69</course>
  <speed>0.0</speed>
  <fix>3d</fix>
</trkpt>
<trkpt lat="33.8103133" lon="-118.3938674">
  <ele>-3.447</ele>
  <time>2026-09-02T22:08:17Z</time>
  <course>359.21</course>
  <speed>0.0316227766016838</speed>
  <fix>3d</fix>
</trkpt>
<trkpt lat="33.8103135" lon="-118.3938676">
  <ele>-3.36</ele>
  <time>2026-09-02T22:08:17Z</time>
  <course>30.69</course>
  <speed>0.0</speed>
  <fix>3d</fix>
</trkpt>
<trkpt lat="33.8103133" lon="-118.3938674">
  <ele>-3.448</ele>
  <time>2026-09-02T22:08:17Z</time>
  <course>359.15</course>
  <speed>0.05099019513592785</speed>
  <fix>3d</fix>
</trkpt>
<trkpt lat="33.8103135" lon="-118.3938676">
  <ele>-3.37</ele>
  <time>2026-09-02T22:08:17Z</time>
  <course>355.97</course>
  <speed>0.04</speed>
  <fix>3d</fix>
</trkpt>
<trkpt lat="33.8103134" lon="-118.3938674">
  <ele>-3.449</ele>
  <time>2026-09-02T22:08:17Z</time>
  <course>359.12</course>
  <speed>0.06082762530298219</speed>
  <fix>3d</fix>
</trkpt>
<trkpt lat="33.8103135" lon="-118.3938676">
  <ele>-3.37</ele>
  <time>2026-09-02T22:08:17Z</time>
  <course>355.97</course>
  <speed>0.04</speed>
  <fix>3d</fix>
</trkpt>
<trkpt lat="33.8103135" lon="-118.3938674">
  <ele>-3.448</ele>
  <time>2026-09-02T22:08:17Z</time>
  <course>359.12</course>
  <speed>0.07071067811865475</speed>
  <fix>3d</fix>
</trkpt>
<trkpt lat="33.8103135" lon="-118.3938676">
  <ele>-3.37</ele>
  <time>2026-09-02T22:08:17Z</time>
  <course>353.04</course>
  <speed>0.07</speed>
  <fix>3d</fix>
</trkpt>
<trkpt lat="33.8103136" lon="-118.3938674">
  <ele>-3.447</ele>
  <time>2026-09-02T22:08:17Z</time>
  <course>359.12</course>
  <speed>0.07071067811865475</speed>
  <fix>3d</fix>
</trkpt>
<trkpt lat="33.8103135" lon="-118.3938676">
  <ele>-3.37</ele>
  <time>2026-09-02T22:08:17Z</time>
  <course>353.04</course>
  <speed>0.07</speed>
  <fix>3d</fix>
</trkpt>
<trkpt lat="33.8103136" lon="-118.3938674">
  <ele>-3.447</ele>
  <time>2026-09-02T22:08:17Z</time>
  <course>359.12</course>
  <speed>0.07071067811865475</speed>
  <fix>3d</fix>
</trkpt>
<trkpt lat="33.8103136" lon="-118.3938676">
  <ele>-3.37</ele>
  <time>2026-09-02T22:08:17Z</time>
  <course>353.16</course>
  <speed>0.09</speed>
  <fix>3d</fix>
</trkpt>
<trkpt lat="33.8103137" lon="-118.3938674">
  <ele>-3.447</ele>
  <time>2026-09-02T22:08:17Z</time>
  <course>359.12</course>
  <speed>0.07071067811865475</speed>
  <fix>3d</fix>
</trkpt>
<trkpt lat="33.8103136" lon="-118.3938676">
  <ele>-3.37</ele>
  <time>2026-09-02T22:08:17Z</time>
  <course>353.16</course>
  <speed>0.09</speed>
  <fix>3d</fix>
</trkpt>
<trkpt lat="33.8103138" lon="-118.3938674">
  <ele>-3.447</ele>
  <time>2026-09-02T22:08:17Z</time>
  <course>359.12</course>
  <speed>0.07071067811865475</speed>
  <fix>3d</fix>
</trkpt>
<trkpt lat="33.8103138" lon="-118.3938676">
  <ele>-3.37</ele>
  <time>2026-09-02T22:08:17Z</time>
  <course>353.83</course>
  <speed>0.09</speed>
  <fix>3d</fix>
</trkpt>
<trkpt lat="33.8103139" lon="-118.3938674">
  <ele>-3.449</ele>
  <time>2026-09-02T22:08:17Z</time>
  <course>359.12</course>
  <speed>0.06082762530298219</speed>
  <fix>3d</fix>
</trkpt>
<trkpt lat="33.8103138" lon="-118.3938676">
  <ele>-3.37</ele>
  <time>2026-09-02T22:08:17Z</time>
  <course>353.83</course>
  <speed>0.09</speed>
  <fix>3d</fix>
</trkpt>
<trkpt lat="33.8103139" lon="-118.3938674">
  <ele>-3.449</ele>
  <time>2026-09-02T22:08:17Z</time>
  <course>359.12</course>
  <speed>0.06082762530298219</speed>
  <fix>3d</fix>
</trkpt>
<trkpt lat="33.810314" lon="-118.3938676">
  <ele>-3.37</ele>
  <time>2026-09-02T22:08:17Z</time>
  <course>354.4</course>
  <speed>0.09</speed>
  <fix>3d</fix>
</trkpt>
<trkpt lat="33.810314" lon="-118.3938674">
  <ele>-3.449</ele>
  <time>2026-09-02T22:08:17Z</time>
  <course>359.12</course>
  <speed>0.05099019513592785</speed>
  <fix>3d</fix>
</trkpt>
<trkpt lat="33.810314" lon="-118.3938676">
  <ele>-3.37</ele>
  <time>2026-09-02T22:08:17Z</time>
  <course>354.4</course>
  <speed>0.09</speed>
  <fix>3d</fix>
</trkpt>
<trkpt lat="33.8103141" lon="-118.3938674">
  <ele>-3.448</ele>
  <time>2026-09-02T22:08:17Z</time>
  <course>359.12</course>
  <speed>0.0412310562561766</speed>
  <fix>3d</fix>
</trkpt>
<trkpt lat="33.8103142" lon="-118.3938676">
  <ele>-3.36</ele>
  <time>2026-09-02T22:08:17Z</time>
  <course>354.52</course>
  <speed>0.08</speed>
  <fix>3d</fix>
</trkpt>
<trkpt lat="33.8103141" lon="-118.3938674">
  <ele>-3.447</ele>
  <time>2026-09-02T22:08:17Z</time>
  <course>359.12</course>
  <speed>0.0412310562561766</speed>
  <fix>3d</fix>
</trkpt>
<trkpt lat="33.8103142" lon="-118.3938676">
  <ele>-3.36</ele>
  <time>2026-09-02T22:08:17Z</time>
  <course>354.52</course>
  <speed>0.08</speed>
  <fix>3d</fix>
</trkpt>
<trkpt lat="33.8103142" lon="-118.3938674">
  <ele>-3.445</ele>
  <time>2026-09-02T22:08:17Z</time>
  <course>359.13</course>
  <speed>0.0316227766016838</speed>
  <fix>3d</fix>
</trkpt>
<trkpt lat="33.8103143" lon="-118.3938676">
  <ele>-3.36</ele>
  <time>2026-09-02T22:08:17Z</time>
  <course>354.07</course>
  <speed>0.07</speed>
  <fix>3d</fix>
</trkpt>
<trkpt lat="33.8103142" lon="-118.3938674">
  <ele>-3.444</ele>
  <time>2026-09-02T22:08:17Z</time>
  <course>359.13</course>
  <speed>0.0316227766016838</speed>
  <fix>3d</fix>
</trkpt>
<trkpt lat="33.8103143" lon="-118.3938676">
  <ele>-3.36</ele>
  <time>2026-09-02T22:08:17Z</time>
  <course>354.07</course>
  <speed>0.07</speed>
  <fix>3d</fix>
</trkpt>
<trkpt lat="33.8103143" lon="-118.3938674">
  <ele>-3.444</ele>
  <time>2026-09-02T22:08:17Z</time>
  <course>359.13</course>
  <speed>0.022360679774997897</speed>
  <fix>3d</fix>
</trkpt>
<trkpt lat="33.8103144" lon="-118.3938676">
  <ele>-3.36</ele>
  <time>2026-09-02T22:08:17Z</time>
  <course>353.1</course>
  <speed>0.06</speed>
  <fix>3d</fix>
</trkpt>
<trkpt lat="33.8103143" lon="-118.3938674">
  <ele>-3.445</ele>
  <time>2026-09-02T22:08:17Z</time>
  <course>359.14</course>
  <speed>0.01414213562373095</speed>
  <fix>3d</fix>
</trkpt>
<trkpt lat="33.8103144" lon="-118.3938676">
  <ele>-3.36</ele>
  <time>2026-09-02T22:08:17Z</time>
  <course>353.1</course>
  <speed>0.06</speed>
  <fix>3d</fix>
</trkpt>
<trkpt lat="33.8103143" lon="-118.3938674">
  <ele>-3.445</ele>
  <time>2026-09-02T22:08:17Z</time>
  <course>359.14</course>
  <speed>0.01414213562373095</speed>
  <fix>3d</fix>
</trkpt>
<trkpt lat="33.8103145" lon="-118.3938677">
  <ele>-3.36</ele>
  <time>2026-09-02T22:08:17Z</time>
  <course>351.52</course>
  <speed>0.05</speed>
  <fix>3d</fix>
</trkpt>
<trkpt lat="33.8103144" lon="-118.3938674">
  <ele>-3.445</ele>
  <time>2026-09-02T22:08:17Z</time>
  <course>359.14</course>
  <speed>0.02</speed>
  <fix>3d</fix>
</trkpt>
<trkpt lat="33.8103145" lon="-118.3938677">
  <ele>-3.36</ele>
  <time>2026-09-02T22:08:17Z</time>
  <course>351.52</course>
  <speed>0.05</speed>
  <fix>3d</fix>
</trkpt>
<trkpt lat="33.8103144" lon="-118.3938674">
  <ele>-3.446</ele>
  <time>2026-09-02T22:08:17Z</time>
  <course>359.14</course>
  <speed>0.02</speed>
  <fix>3d</fix>
</trkpt>
<trkpt lat="33.8103146" lon="-118.3938677">
  <ele>-3.36</ele>
  <time>2026-09-02T22:08:17Z</time>
  <course>350.14</course>
  <speed>0.04</speed>
  <fix>3d</fix>
</trkpt>
<trkpt lat="33.8103144" lon="-118.3938674">
  <ele>-3.447</ele>
  <time>2026-09-02T22:08:17Z</time>
  <course>359.14</course>
  <speed>0.02</speed>
  <fix>3d</fix>
</trkpt>
<trkpt lat="33.8103146" lon="-118.3938677">
  <ele>-3.36</ele>
  <time>2026-09-02T22:08:17Z</time>
  <course>350.14</course>
  <speed>0.04</speed>
  <fix>3d</fix>
</trkpt>
<trkpt lat="33.8103144" lon="-118.3938674">
  <ele>-3.448</ele>
  <time>2026-09-02T22:08:17Z</time>
  <course>359.14</course>
  <speed>0.02</speed>
  <fix>3d</fix>
</trkpt>
<trkpt lat="33.8103147" lon="-118.3938677">
  <ele>-3.36</ele>
  <time>2026-09-02T22:08:17Z</time>
  <course>349.69</course>
  <speed>0.03</speed>
  <fix>3d</fix>
</trkpt>
<trkpt lat="33.8103145" lon="-118.3938674">
  <ele>-3.448</ele>
  <time>2026-09-02T22:08:17Z</time>
  <course>359.14</course>
  <speed>0.02</speed>
  <fix>3d</fix>
</trkpt>
<trkpt lat="33.8103147" lon="-118.3938677">
  <ele>-3.36</ele>
  <time>2026-09-02T22:08:17Z</time>
  <course>349.69</course>
  <speed>0.03</speed>
  <fix>3d</fix>
</trkpt>
<trkpt lat="33.8103145" lon="-118.3938674">
  <ele>-3.449</ele>
  <time>2026-09-02T22:08:17Z</time>
  <course>359.14</course>
  <speed>0.022360679774997897</speed>
  <fix>3d</fix>
</trkpt>
<trkpt lat="33.8103147" lon="-118.3938677">
  <ele>-3.36</ele>
  <time>2026-09-02T22:08:17Z</time>
  <course>349.11</course>
  <speed>0.02</speed>
  <fix>3d</fix>
</trkpt>
<trkpt lat="33.8103145" lon="-118.3938674">
  <ele>-3.449</ele>
  <time>2026-09-02T22:08:17Z</time>
  <course>359.14</course>
  <speed>0.022360679774997897</speed>
  <fix>3d</fix>
</trkpt>
<trkpt lat="33.8103147" lon="-118.3938677">
  <ele>-3.36</ele>
  <time>2026-09-02T22:08:17Z</time>
  <course>349.11</course>
  <speed>0.02</speed>
  <fix>3d</fix>
</trkpt>
<trkpt lat="33.8103145" lon="-118.3938674">
  <ele>-3.449</ele>
  <time>2026-09-02T22:08:17Z</time>
  <course>359.14</course>
  <speed>0.022360679774997897</speed>
  <fix>3d</fix>
</trkpt>
<trkpt lat="33.8103148" lon="-118.3938677">
  <ele>-3.36</ele>
  <time>2026-09-02T22:08:17Z</time>
  <course>347.71</course>
  <speed>0.01</speed>
  <fix>3d</fix>
</trkpt>
<trkpt lat="33.8103145" lon="-118.3938674">
  <ele>-3.45</ele>
  <time>2026-09-02T22:08:17Z</time>
  <course>359.14</course>
  <speed>0.0282842712474619</speed>
  <fix>3d</fix>
</trkpt>
<trkpt lat="33.8103148" lon="-118.3938677">
  <ele>-3.36</ele>
  <time>2026-09-02T22:08:17Z</time>
  <course>347.71</course>
  <speed>0.01</speed>
  <fix>3d</fix>
</trkpt>
<trkpt lat="33.8103145" lon="-118.3938674">
  <ele>-3.449</ele>
  <time>2026-09-02T22:08:17Z</time>
  <course>359.15</course>
  <speed>0.0282842712474619</speed>
  <fix>3d</fix>
</trkpt>
<trkpt lat="33.8103148" lon="-118.3938677">
  <ele>-3.36</ele>
  <time>2026-09-02T22:08:17Z</time>
  <course>344.23</course>
  <speed>0.01</speed>
  <fix>3d</fix>
</trkpt>
<trkpt lat="33.8103145" lon="-118.3938674">
  <ele>-3.448</ele>
  <time>2026-09-02T22:08:17Z</time>
  <course>359.14</course>
  <speed>0.0282842712474619</speed>
  <fix>3d</fix>
</trkpt>
<trkpt lat="33.8103148" lon="-118.3938677">
  <ele>-3.36</ele>
  <time>2026-09-02T22:08:17Z</time>
  <course>344.23</course>
  <speed>0.01</speed>
  <fix>3d</fix>
</trkpt>
<trkpt lat="33.8103145" lon="-118.3938674">
  <ele>-3.447</ele>
  <time>2026-09-02T22:08:17Z</time>
  <course>359.15</course>
  <speed>0.0282842712474619</speed>
  <fix>3d</fix>
</trkpt>
<trkpt lat="33.8103149" lon="-118.3938677">
  <ele>-3.36</ele>
  <time>2026-09-02T22:08:17Z</time>
  <course>334.66</course>
  <speed>0.0</speed>
  <fix>3d</fix>
</trkpt>
<trkpt lat="33.8103145" lon="-118.3938674">
  <ele>-3.446</ele>
  <time>2026-09-02T22:08:17Z</time>
  <course>359.15</course>
  <speed>0.03605551275463989</speed>
  <fix>3d</fix>
</trkpt>
<trkpt lat="33.8103149" lon="-118.3938677">
  <ele>-3.36</ele>
  <time>2026-09-02T22:08:17Z</time>
  <course>334.66</course>
  <speed>0.0</speed>
  <fix>3d</fix>
</trkpt>
<trkpt lat="33.8103145" lon="-118.3938674">
  <ele>-3.444</ele>
  <time>2026-09-02T22:08:17Z</time>
  <course>359.15</course>
  <speed>0.03605551275463989</speed>
  <fix>3d</fix>
</trkpt>
<trkpt lat="33.8103149" lon="-118.3938677">
  <ele>-3.35</ele>
  <time>2026-09-02T22:08:17Z</time>
  <course>299.35</course>
  <speed>0.0</speed>
  <fix>3d</fix>
</trkpt>
<trkpt lat="33.8103145" lon="-118.3938674">
  <ele>-3.442</ele>
  <time>2026-09-02T22:08:17Z</time>
  <course>359.14</course>
  <speed>0.03605551275463989</speed>
  <fix>3d</fix>
</trkpt>
<trkpt lat="33.8103149" lon="-118.3938677">
  <ele>-3.35</ele>
  <time>2026-09-02T22:08:17Z</time>
  <course>299.35</course>
  <speed>0.0</speed>
  <fix>3d</fix>
</trkpt>
<trkpt lat="33.8103145" lon="-118.3938674">
  <ele>-3.442</ele>
  <time>2026-09-02T22:08:17Z</time>
  <course>359.14</course>
  <speed>0.03605551275463989</speed>
  <fix>3d</fix>
</trkpt>
<trkpt lat="33.8103149" lon="-118.3938677">
  <ele>-3.35</ele>
  <time>2026-09-02T22:08:17Z</time>
  <course>222.49</course>
  <speed>0.0</speed>
  <fix>3d</fix>
</trkpt>
<trkpt lat="33.8103145" lon="-118.3938674">
  <ele>-3.442</ele>
  <time>2026-09-02T22:08:17Z</time>
  <course>359.15</course>
  <speed>0.03605551275463989</speed>
  <fix>3d</fix>
</trkpt>
<trkpt lat="33.8103149" lon="-118.3938677">
  <ele>-3.35</ele>
  <time>2026-09-02T22:08:17Z</time>
  <course>222.49</course>
  <speed>0.0</speed>
  <fix>3d</fix>
</trkpt>
<trkpt lat="33.8103145" lon="-118.3938674">
  <ele>-3.443</ele>
  <time>2026-09-02T22:08:17Z</time>
  <course>359.15</course>
  <speed>0.03605551275463989</speed>
  <fix>3d</fix>
</trkpt>
<trkpt lat="33.8103148" lon="-118.3938678">
  <ele>-3.35</ele>
  <time>2026-09-02T22:08:17Z</time>
  <course>203.25</course>
  <speed>0.0</speed>
  <fix>3d</fix>
</trkpt>
<trkpt lat="33.8103145" lon="-118.3938674">
  <ele>-3.443</ele>
  <time>2026-09-02T22:08:17Z</time>
  <course>359.15</course>
  <speed>0.03605551275463989</speed>
  <fix>3d</fix>
</trkpt>
<trkpt lat="33.8103148" lon="-118.3938678">
  <ele>-3.35</ele>
  <time>2026-09-02T22:08:17Z</time>
  <course>203.25</course>
  <speed>0.0</speed>
  <fix>3d</fix>
</trkpt>
<trkpt lat="33.8103145" lon="-118.3938674">
  <ele>-3.443</ele>
  <time>2026-09-02T22:08:17Z</time>
  <course>359.15</course>
  <speed>0.03605551275463989</speed>
  <fix>3d</fix>
</trkpt>
<trkpt lat="33.8103148" lon="-118.3938678">
  <ele>-3.35</ele>
  <time>2026-09-02T22:08:17Z</time>
  <course>194.39</course>
  <speed>0.01</speed>
  <fix>3d</fix>
</trkpt>
<trkpt lat="33.8103145" lon="-118.3938674">
  <ele>-3.444</ele>
  <time>2026-09-02T22:08:17Z</time>
  <course>359.16</course>
  <speed>0.044721359549995794</speed>
  <fix>3d</fix>
</trkpt>
<trkpt lat="33.8103148" lon="-118.3938678">
  <ele>-3.35</ele>
  <time>2026-09-02T22:08:17Z</time>
  <course>194.39</course>
  <speed>0.01</speed>
  <fix>3d</fix>
</trkpt>
<trkpt lat="33.8103145" lon="-118.3938674">
  <ele>-3.444</ele>
  <time>2026-09-02T22:08:17Z</time>
  <course>359.16</course>
  <speed>0.03605551275463989</speed>
  <fix>3d</fix>
</trkpt>
<trkpt lat="33.8103148" lon="-118.3938678">
  <ele>-3.35</ele>
  <time>2026-09-02T22:08:17Z</time>
  <course>185.19</course>
  <speed>0.01</speed>
  <fix>3d</fix>
</trkpt>
<trkpt lat="33.8103145" lon="-118.3938674">
  <ele>-3.444</ele>
  <time>2026-09-02T22:08:17Z</time>
  <course>359.16</course>
  <speed>0.044721359549995794</speed>
  <fix>3d</fix>
</trkpt>
<trkpt lat="33.8103148" lon="-118.3938678">
  <ele>-3.35</ele>
  <time>2026-09-02T22:08:17Z</time>
  <course>185.19</course>
  <speed>0.01</speed>
  <fix>3d</fix>
</trkpt>
<trkpt lat="33.8103145" lon="-118.3938674">
  <ele>-3.445</ele>
  <time>2026-09-02T22:08:17Z</time>
  <course>359.15</course>
  <speed>0.044721359549995794</speed>
  <fix>3d</fix>
</trkpt>
<trkpt lat="33.8103148" lon="-118.3938678">
  <ele>-3.36</ele>
  <time>2026-09-02T22:08:17Z</time>
  <course>177.49</course>
  <speed>0.01</speed>
  <fix>3d</fix>
</trkpt>
<trkpt lat="33.8103145" lon="-118.3938674">
  <ele>-3.446</ele>
  <time>2026-09-02T22:08:17Z</time>
  <course>359.15</course>
  <speed>0.044721359549995794</speed>
  <fix>3d</fix>
</trkpt>
<trkpt lat="33.8103148" lon="-118.3938678">
  <ele>-3.36</ele>
  <time>2026-09-02T22:08:17Z</time>
  <course>177.49</course>
  <speed>0.01</speed>
  <fix>3d</fix>
</trkpt>
<trkpt lat="33.8103145" lon="-118.3938674">
  <ele>-3.446</ele>
  <time>2026-09-02T22:08:17Z</time>
  <course>359.16</course>
  <speed>0.044721359549995794</speed>
  <fix>3d</fix>
</trkpt>
<trkpt lat="33.8103148" lon="-118.3938678">
  <ele>-3.36</ele>
  <time>2026-09-02T22:08:17Z</time>
  <course>171.59</course>
  <speed>0.01</speed>
  <fix>3d</fix>
</trkpt>
<trkpt lat="33.8103145" lon="-118.3938674">
  <ele>-3.446</ele>
  <time>2026-09-02T22:08:17Z</time>
  <course>359.15</course>
  <speed>0.044721359549995794</speed>
  <fix>3d</fix>
</trkpt>
<trkpt lat="33.8103148" lon="-118.3938678">
  <ele>-3.36</ele>
  <time>2026-09-02T22:08:17Z</time>
  <course>171.59</course>
  <speed>0.01</speed>
  <fix>3d</fix>
</trkpt>
<trkpt lat="33.8103145" lon="-118.3938674">
  <ele>-3.445</ele>
  <time>2026-09-02T22:08:17Z</time>
  <course>359.15</course>
  <speed>0.044721359549995794</speed>
  <fix>3d</fix>
</trkpt>
<trkpt lat="33.8103148" lon="-118.3938678">
  <ele>-3.36</ele>
  <time>2026-09-02T22:08:17Z</time>
  <course>169.05</course>
  <speed>0.01</speed>
  <fix>3d</fix>
</trkpt>
<trkpt lat="33.8103145" lon="-118.3938674">
  <ele>-3.444</ele>
  <time>2026-09-02T22:08:17Z</time>
  <course>359.16</course>
  <speed>0.044721359549995794</speed>
  <fix>3d</fix>
</trkpt>
<trkpt lat="33.8103148" lon="-118.3938678">
  <ele>-3.36</ele>
  <time>2026-09-02T22:08:17Z</time>
  <course>169.05</course>
  <speed>0.01</speed>
  <fix>3d</fix>
</trkpt>
<trkpt lat="33.8103145" lon="-118.3938674">
  <ele>-3.443</ele>
  <time>2026-09-02T22:08:17Z</time>
  <course>359.16</course>
  <speed>0.044721359549995794</speed>
  <fix>3d</fix>
</trkpt>
<trkpt lat="33.8103148" lon="-118.3938678">
  <ele>-3.36</ele>
  <time>2026-09-02T22:08:17Z</time>
  <course>168.44</course>
  <speed>0.01</speed>
  <fix>3d</fix>
</trkpt>
<trkpt lat="33.8103145" lon="-118.3938674">
  <ele>-3.445</ele>
  <time>2026-09-02T22:08:17Z</time>
  <course>359.16</course>
  <speed>0.044721359549995794</speed>
  <fix>3d</fix>
</trkpt>
<trkpt lat="33.8103148" lon="-118.3938678">
  <ele>-3.36</ele>
  <time>2026-09-02T22:08:17Z</time>
  <course>168.44</course>
  <speed>0.01</speed>
  <fix>3d</fix>
</trkpt>
<trkpt lat="33.8103145" lon="-118.3938674">
  <ele>-3.446</ele>
  <time>2026-09-02T22:08:17Z</time>
  <course>359.16</course>
  <speed>0.044721359549995794</speed>
  <fix>3d</fix>
</trkpt>
<trkpt lat="33.8103148" lon="-118.3938678">
  <ele>-3.36</ele>
  <time>2026-09-02T22:08:17Z</time>
  <course>168.12</course>
  <speed>0.01</speed>
  <fix>3d</fix>
</trkpt>
<trkpt lat="33.8103145" lon="-118.3938674">
  <ele>-3.447</ele>
  <time>2026-09-02T22:08:17Z</time>
  <course>359.15</course>
  <speed>0.044721359549995794</speed>
  <fix>3d</fix>
</trkpt>
<trkpt lat="33.8103148" lon="-118.3938678">
  <ele>-3.36</ele>
  <time>2026-09-02T22:08:17Z</time>
  <course>168.12</course>
  <speed>0.01</speed>
  <fix>3d</fix>
</trkpt>
<trkpt lat="33.8103145" lon="-118.3938674">
  <ele>-3.447</ele>
  <time>2026-09-02T22:08:17Z</time>
  <course>359.15</course>
  <speed>0.044721359549995794</speed>
  <fix>3d</fix>
</trkpt>
<trkpt lat="33.8103147" lon="-118.3938678">
  <ele>-3.36</ele>
  <time>2026-09-02T22:08:17Z</time>
  <course>168.19</course>
  <speed>0.01</speed>
  <fix>3d</fix>
</trkpt>
<trkpt lat="33.8103145" lon="-118.3938674">
  <ele>-3.447</ele>
  <time>2026-09-02T22:08:17Z</time>
  <course>359.15</course>
  <speed>0.044721359549995794</speed>
  <fix>3d</fix>
</trkpt>
<trkpt lat="33.8103147" lon="-118.3938678">
  <ele>-3.36</ele>
  <time>2026-09-02T22:08:17Z</time>
  <course>168.19</course>
  <speed>0.01</speed>
  <fix>3d</fix>
</trkpt>
<trkpt lat="33.8103145" lon="-118.3938674">
  <ele>-3.448</ele>
  <time>2026-09-02T22:08:17Z</time>
  <course>359.15</course>
  <speed>0.044721359549995794</speed>
  <fix>3d</fix>
</trkpt>
<trkpt lat="33.8103147" lon="-118.3938678">
  <ele>-3.36</ele>
  <time>2026-09-02T22:08:17Z</time>
  <course>167.96</course>
  <speed>0.02</speed>
  <fix>3d</fix>
</trkpt>
<trkpt lat="33.8103144" lon="-118.3938674">
  <ele>-3.449</ele>
  <time>2026-09-02T22:08:17Z</time>
  <course>359.15</course>
  <speed>0.044721359549995794</speed>
  <fix>3d</fix>
</trkpt>
<trkpt lat="33.8103147" lon="-118.3938678">
  <ele>-3.36</ele>
  <time>2026-09-02T22:08:17Z</time>
  <course>167.96</course>
  <speed>0.02</speed>
  <fix>3d</fix>
</trkpt>
<trkpt lat="33.8103144" lon="-118.3938674">
  <ele>-3.45</ele>
  <time>2026-09-02T22:08:17Z</time>
  <course>359.15</course>
  <speed>0.044721359549995794</speed>
  <fix>3d</fix>
</trkpt>
<trkpt lat="33.8103147" lon="-118.3938678">
  <ele>-3.36</ele>
  <time>2026-09-02T22:08:17Z</time>
  <course>167.5</course>
  <speed>0.02</speed>
  <fix>3d</fix>
</trkpt>
<trkpt lat="33.8103144" lon="-118.3938674">
  <ele>-3.45</ele>
  <time>2026-09-02T22:08:17Z</time>
  <course>359.15</course>
  <speed>0.044721359549995794</speed>
  <fix>3d</fix>
</trkpt>
<trkpt lat="33.8103147" lon="-118.3938678">
  <ele>-3.36</ele>
  <time>2026-09-02T22:08:17Z</time>
  <course>167.5</course>
  <speed>0.02</speed>
  <fix>3d</fix>
</trkpt>
<trkpt lat="33.8103144" lon="-118.3938674">
  <ele>-3.45</ele>
  <time>2026-09-02T22:08:17Z</time>
  <course>359.15</course>
  <speed>0.044721359549995794</speed>
  <fix>3d</fix>
</trkpt>
<trkpt lat="33.8103146" lon="-118.3938678">
  <ele>-3.36</ele>
  <time>2026-09-02T22:08:17Z</time>
  <course>167.3</course>
  <speed>0.02</speed>
  <fix>3d</fix>
</trkpt>
<trkpt lat="33.8103144" lon="-118.3938674">
  <ele>-3.45</ele>
  <time>2026-09-02T22:08:17Z</time>
  <course>359.15</course>
  <speed>0.044721359549995794</speed>
  <fix>3d</fix>
</trkpt>
<trkpt lat="33.8103146" lon="-118.3938678">
  <ele>-3.36</ele>
  <time>2026-09-02T22:08:17Z</time>
  <course>167.3</course>
  <speed>0.02</speed>
  <fix>3d</fix>
</trkpt>
<trkpt lat="33.8103144" lon="-118.3938674">
  <ele>-3.448</ele>
  <time>2026-09-02T22:08:17Z</time>
  <course>359.15</course>
  <speed>0.044721359549995794</speed>
  <fix>3d</fix>
</trkpt>
<trkpt lat="33.8103146" lon="-118.3938678">
  <ele>-3.35</ele>
  <time>2026-09-02T22:08:17Z</time>
  <course>166.95</course>
  <speed>0.02</speed>
  <fix>3d</fix>
</trkpt>
<trkpt lat="33.8103144" lon="-118.3938674">
  <ele>-3.446</ele>
  <time>2026-09-02T22:08:17Z</time>
  <course>359.15</course>
  <speed>0.044721359549995794</speed>
  <fix>3d</fix>
</trkpt>
<trkpt lat="33.8103146" lon="-118.3938678">
  <ele>-3.35</ele>
  <time>2026-09-02T22:08:17Z</time>
  <course>166.95</course>
  <speed>0.02</speed>
  <fix>3d</fix>
</trkpt>
<trkpt lat="33.8103144" lon="-118.3938674">
  <ele>-3.443</ele>
  <time>2026-09-02T22:08:17Z</time>
  <course>359.15</course>
  <speed>0.044721359549995794</speed>
  <fix>3d</fix>
</trkpt>
<trkpt lat="33.8103146" lon="-118.3938678">
  <ele>-3.35</ele>
  <time>2026-09-02T22:08:17Z</time>
  <course>166.25</course>
  <speed>0.02</speed>
  <fix>3d</fix>
</trkpt>
<trkpt lat="33.8103143" lon="-118.3938674">
  <ele>-3.441</ele>
  <time>2026-09-02T22:08:17Z</time>
  <course>359.15</course>
  <speed>0.044721359549995794</speed>
  <fix>3d</fix>
</trkpt>
<trkpt lat="33.8103146" lon="-118.3938678">
  <ele>-3.35</ele>
  <time>2026-09-02T22:08:17Z</time>
  <course>166.25</course>
  <speed>0.02</speed>
  <fix>3d</fix>
</trkpt>
<trkpt lat="33.8103143" lon="-118.3938674">
  <ele>-3.44</ele>
  <time>2026-09-02T22:08:17Z</time>
  <course>359.15</course>
  <speed>0.044721359549995794</speed>
  <fix>3d</fix>
</trkpt>
<trkpt lat="33.8103145" lon="-118.3938678">
  <ele>-3.35</ele>
  <time>2026-09-02T22:08:17Z</time>
  <course>165.5</course>
  <speed>0.02</speed>
  <fix>3d</fix>
</trkpt>
<trkpt lat="33.8103143" lon="-118.3938674">
  <ele>-3.441</ele>
  <time>2026-09-02T22:08:17Z</time>
  <course>359.15</course>
  <speed>0.044721359549995794</speed>
  <fix>3d</fix>
</trkpt>
<trkpt lat="33.8103145" lon="-118.3938678">
  <ele>-3.35</ele>
  <time>2026-09-02T22:08:17Z</time>
  <course>165.5</course>
  <speed>0.02</speed>
  <fix>3d</fix>
</trkpt>
<trkpt lat="33.8103143" lon="-118.3938674">
  <ele>-3.442</ele>
  <time>2026-09-02T22:08:17Z</time>
  <course>359.15</course>
  <speed>0.03605551275463989</speed>
  <fix>3d</fix>
</trkpt>
<trkpt lat="33.8103144" lon="-118.3938678">
  <ele>-3.35</ele>
  <time>2026-09-02T22:08:17Z</time>
  <course>164.97</course>
  <speed>0.02</speed>
  <fix>3d</fix>
</trkpt>
<trkpt lat="33.8103143" lon="-118.3938674">
  <ele>-3.444</ele>
  <time>2026-09-02T22:08:17Z</time>
  <course>359.15</course>
  <speed>0.03605551275463989</speed>
  <fix>3d</fix>
</trkpt>
<trkpt lat="33.8103144" lon="-118.3938678">
  <ele>-3.35</ele>
  <time>2026-09-02T22:08:17Z</time>
  <course>164.97</course>
  <speed>0.02</speed>
  <fix>3d</fix>
</trkpt>
<trkpt lat="33.8103143" lon="-118.3938674">
  <ele>-3.445</ele>
  <time>2026-09-02T22:08:17Z</time>
  <course>359.15</course>
  <speed>0.03605551275463989</speed>
  <fix>3d</fix>
</trkpt>
<trkpt lat="33.8103144" lon="-118.3938677">
  <ele>-3.35</ele>
  <time>2026-09-02T22:08:17Z</time>
  <course>163.35</course>
  <speed>0.01</speed>
  <fix>3d</fix>
</trkpt>
<trkpt lat="33.8103143" lon="-118.3938674">
  <ele>-3.445</ele>
  <time>2026-09-02T22:08:17Z</time>
  <course>359.15</course>
  <speed>0.03605551275463989</speed>
  <fix>3d</fix>
</trkpt>
<trkpt lat="33.8103144" lon="-118.3938677">
  <ele>-3.35</ele>
  <time>2026-09-02T22:08:17Z</time>
  <course>163.35</course>
  <speed>0.01</speed>
  <fix>3d</fix>
</trkpt>
<trkpt lat="33.8103142" lon="-118.3938674">
  <ele>-3.444</ele>
  <time>2026-09-02T22:08:17Z</time>
  <course>359.15</course>
  <speed>0.03605551275463989</speed>
  <fix>3d</fix>
</trkpt>
<trkpt lat="33.8103144" lon="-118.3938677">
  <ele>-3.35</ele>
  <time>2026-09-02T22:08:17Z</time>
  <course>162.04</course>
  <speed>0.01</speed>
  <fix>3d</fix>
</trkpt>
<trkpt lat="33.8103142" lon="-118.3938674">
  <ele>-3.444</ele>
  <time>2026-09-02T22:08:17Z</time>
  <course>359.14</course>
  <speed>0.03605551275463989</speed>
  <fix>3d</fix>
</trkpt>
<trkpt lat="33.8103144" lon="-118.3938677">
  <ele>-3.35</ele>
  <time>2026-09-02T22:08:17Z</time>
  <course>162.04</course>
  <speed>0.01</speed>
  <fix>3d</fix>
</trkpt>
<trkpt lat="33.8103142" lon="-118.3938674">
  <ele>-3.443</ele>
  <time>2026-09-02T22:08:17Z</time>
  <course>359.14</course>
  <speed>0.03605551275463989</speed>
  <fix>3d</fix>
</trkpt>
<trkpt lat="33.8103143" lon="-118.3938677">
  <ele>-3.35</ele>
  <time>2026-09-02T22:08:17Z</time>
  <course>164.75</course>
  <speed>0.01</speed>
  <fix>3d</fix>
</trkpt>
<trkpt lat="33.8103142" lon="-118.3938674">
  <ele>-3.443</ele>
  <time>2026-09-02T22:08:17Z</time>
  <course>359.15</course>
  <speed>0.03605551275463989</speed>
  <fix>3d</fix>
</trkpt>
<trkpt lat="33.8103143" lon="-118.3938677">
  <ele>-3.35</ele>
  <time>2026-09-02T22:08:17Z</time>
  <course>164.75</course>
  <speed>0.01</speed>
  <fix>3d</fix>
</trkpt>
<trkpt lat="33.8103142" lon="-118.3938674">
  <ele>-3.444</ele>
  <time>2026-09-02T22:08:17Z</time>
  <course>359.14</course>
  <speed>0.03605551275463989</speed>
  <fix>3d</fix>
</trkpt>
<trkpt lat="33.8103143" lon="-118.3938677">
  <ele>-3.35</ele>
  <time>2026-09-02T22:08:17Z</time>
  <course>170.31</course>
  <speed>0.01</speed>
  <fix>3d</fix>
</trkpt>
<trkpt lat="33.8103142" lon="-118.3938674">
  <ele>-3.444</ele>
  <time>2026-09-02T22:08:17Z</time>
  <course>359.15</course>
  <speed>0.03605551275463989</speed>
  <fix>3d</fix>
</trkpt>
<trkpt lat="33.8103143" lon="-118.3938677">
  <ele>-3.35</ele>
  <time>2026-09-02T22:08:17Z</time>
  <course>170.31</course>
  <speed>0.01</speed>
  <fix>3d</fix>
</trkpt>
<trkpt lat="33.8103142" lon="-118.3938674">
  <ele>-3.443</ele>
  <time>2026-09-02T22:08:17Z</time>
  <course>359.15</course>
  <speed>0.03605551275463989</speed>
  <fix>3d</fix>
</trkpt>
<trkpt lat="33.8103143" lon="-118.3938677">
  <ele>-3.35</ele>
  <time>2026-09-02T22:08:17Z</time>
  <course>175.84</course>
  <speed>0.01</speed>
  <fix>3d</fix>
</trkpt>
<trkpt lat="33.8103141" lon="-118.3938674">
  <ele>-3.443</ele>
  <time>2026-09-02T22:08:17Z</time>
  <course>359.15</course>
  <speed>0.03605551275463989</speed>
  <fix>3d</fix>
</trkpt>
<trkpt lat="33.8103143" lon="-118.3938677">
  <ele>-3.35</ele>
  <time>2026-09-02T22:08:17Z</time>
  <course>175.84</course>
  <speed>0.01</speed>
  <fix>3d</fix>
</trkpt>
<trkpt lat="33.8103141" lon="-118.3938674">
  <ele>-3.444</ele>
  <time>2026-09-02T22:08:17Z</time>
  <course>359.15</course>
  <speed>0.03605551275463989</speed>
  <fix>3d</fix>
</trkpt>
<trkpt lat="33.8103143" lon="-118.3938677">
  <ele>-3.36</ele>
  <time>2026-09-02T22:08:17Z</time>
  <course>179.07</course>
  <speed>0.01</speed>
  <fix>3d</fix>
</trkpt>
<trkpt lat="33.8103141" lon="-118.3938674">
  <ele>-3.446</ele>
  <time>2026-09-02T22:08:17Z</time>
  <course>359.15</course>
  <speed>0.03605551275463989</speed>
  <fix>3d</fix>
</trkpt>
<trkpt lat="33.8103143" lon="-118.3938677">
  <ele>-3.36</ele>
  <time>2026-09-02T22:08:17Z</time>
  <course>179.07</course>
  <speed>0.01</speed>
  <fix>3d</fix>
</trkpt>
<trkpt lat="33.8103141" lon="-118.3938674">
  <ele>-3.447</ele>
  <time>2026-09-02T22:08:17Z</time>
  <course>359.15</course>
  <speed>0.03605551275463989</speed>
  <fix>3d</fix>
</trkpt>
<trkpt lat="33.8103143" lon="-118.3938677">
  <ele>-3.36</ele>
  <time>2026-09-02T22:08:17Z</time>
  <course>180.44</course>
  <speed>0.0</speed>
  <fix>3d</fix>
</trkpt>
<trkpt lat="33.8103141" lon="-118.3938674">
  <ele>-3.447</ele>
  <time>2026-09-02T22:08:17Z</time>
  <course>359.15</course>
  <speed>0.03605551275463989</speed>
  <fix>3d</fix>
</trkpt>
<trkpt lat="33.8103143" lon="-118.3938677">
  <ele>-3.36</ele>
  <time>2026-09-02T22:08:17Z</time>
  <course>180.44</course>
  <speed>0.0</speed>
  <fix>3d</fix>
</trkpt>
<trkpt lat="33.8103141" lon="-118.3938674">
  <ele>-3.447</ele>
  <time>2026-09-02T22:08:17Z</time>
  <course>359.15</course>
  <speed>0.03605551275463989</speed>
  <fix>3d</fix>
</trkpt>
<trkpt lat="33.8103143" lon="-118.3938677">
  <ele>-3.36</ele>
  <time>2026-09-02T22:08:17Z</time>
  <course>181.48</course>
  <speed>0.0</speed>
  <fix>3d</fix>
</trkpt>
<trkpt lat="33.8103141" lon="-118.3938674">
  <ele>-3.447</ele>
  <time>2026-09-02T22:08:17Z</time>
  <course>359.14</course>
  <speed>0.03605551275463989</speed>
  <fix>3d</fix>
</trkpt>
<trkpt lat="33.8103143" lon="-118.3938677">
  <ele>-3.36</ele>
  <time>2026-09-02T22:08:17Z</time>
  <course>181.48</course>
  <speed>0.0</speed>
  <fix>3d</fix>
</trkpt>
<trkpt lat="33.8103141" lon="-118.3938674">
  <ele>-3.447</ele>
  <time>2026-09-02T22:08:17Z</time>
  <course>359.15</course>
  <speed>0.03605551275463989</speed>
  <fix>3d</fix>
</trkpt>
<trkpt lat="33.8103143" lon="-118.3938677">
  <ele>-3.36</ele>
  <time>2026-09-02T22:08:17Z</time>
  <course>182.46</course>
  <speed>0.01</speed>
  <fix>3d</fix>
</trkpt>
<trkpt lat="33.8103141" lon="-118.3938674">
  <ele>-3.446</ele>
  <time>2026-09-02T22:08:17Z</time>
  <course>359.14</course>
  <speed>0.03605551275463989</speed>
  <fix>3d</fix>
</trkpt>
<trkpt lat="33.8103143" lon="-118.3938677">
  <ele>-3.36</ele>
  <time>2026-09-02T22:08:17Z</time>
  <course>182.46</course>
  <speed>0.01</speed>
  <fix>3d</fix>
</trkpt>
<trkpt lat="33.8103141" lon="-118.3938674">
  <ele>-3.444</ele>
  <time>2026-09-02T22:08:17Z</time>
  <course>359.14</course>
  <speed>0.03605551275463989</speed>
  <fix>3d</fix>
</trkpt>
<trkpt lat="33.8103143" lon="-118.3938677">
  <ele>-3.36</ele>
  <time>2026-09-02T22:08:17Z</time>
  <course>183.56</course>
  <speed>0.01</speed>
  <fix>3d</fix>
</trkpt>
<trkpt lat="33.8103141" lon="-118.3938674">
  <ele>-3.443</ele>
  <time>2026-09-02T22:08:17Z</time>
  <course>359.15</course>
  <speed>0.03605551275463989</speed>
  <fix>3d</fix>
</trkpt>
<trkpt lat="33.8103143" lon="-118.3938677">
  <ele>-3.36</ele>
  <time>2026-09-02T22:08:17Z</time>
  <course>183.56</course>
  <speed>0.01</speed>
  <fix>3d</fix>
</trkpt>
<trkpt lat="33.8103141" lon="-118.3938674">
  <ele>-3.441</ele>
  <time>2026-09-02T22:08:17Z</time>
  <course>359.15</course>
  <speed>0.03605551275463989</speed>
  <fix>3d</fix>
</trkpt>
<trkpt lat="33.8103142" lon="-118.3938677">
  <ele>-3.36</ele>
  <time>2026-09-02T22:08:17Z</time>
  <course>184.01</course>
  <speed>0.01</speed>
  <fix>3d</fix>
</trkpt>
<trkpt lat="33.8103141" lon="-118.3938674">
  <ele>-3.441</ele>
  <time>2026-09-02T22:08:17Z</time>
  <course>359.15</course>
  <speed>0.03605551275463989</speed>
  <fix>3d</fix>
</trkpt>
<trkpt lat="33.8103142" lon="-118.3938677">
  <ele>-3.36</ele>
  <time>2026-09-02T22:08:17Z</time>
  <course>184.01</course>
  <speed>0.01</speed>
  <fix>3d</fix>
</trkpt>
<trkpt lat="33.810314" lon="-118.3938674">
  <ele>-3.441</ele>
  <time>2026-09-02T22:08:17Z</time>
  <course>359.15</course>
  <speed>0.03605551275463989</speed>
  <fix>3d</fix>
</trkpt>
<trkpt lat="33.8103142" lon="-118.3938677">
  <ele>-3.36</ele>
  <time>2026-09-02T22:08:17Z</time>
  <course>183.95</course>
  <speed>0.01</speed>
  <fix>3d</fix>
</trkpt>
<trkpt lat="33.810314" lon="-118.3938674">
  <ele>-3.443</ele>
  <time>2026-09-02T22:08:17Z</time>
  <course>359.15</course>
  <speed>0.03605551275463989</speed>
  <fix>3d</fix>
</trkpt>
<trkpt lat="33.8103142" lon="-118.3938677">
  <ele>-3.36</ele>
  <time>2026-09-02T22:08:17Z</time>
  <course>183.95</course>
  <speed>0.01</speed>
  <fix>3d</fix>
</trkpt>
<trkpt lat="33.810314" lon="-118.3938674">
  <ele>-3.445</ele>
  <time>2026-09-02T22:08:17Z</time>
  <course>359.15</course>
  <speed>0.03605551275463989</speed>
  <fix>3d</fix>
</trkpt>
<trkpt lat="33.8103142" lon="-118.3938677">
  <ele>-3.36</ele>
  <time>2026-09-02T22:08:17Z</time>
  <course>185.33</course>
  <speed>0.01</speed>
  <fix>3d</fix>
</trkpt>
<trkpt lat="33.810314" lon="-118.3938674">
  <ele>-3.446</ele>
  <time>2026-09-02T22:08:17Z</time>
  <course>359.14</course>
  <speed>0.03605551275463989</speed>
  <fix>3d</fix>
</trkpt>
<trkpt lat="33.8103142" lon="-118.3938677">
  <ele>-3.36</ele>
  <time>2026-09-02T22:08:17Z</time>
  <course>185.33</course>
  <speed>0.01</speed>
  <fix>3d</fix>
</trkpt>
<trkpt lat="33.810314" lon="-118.3938674">
  <ele>-3.447</ele>
  <time>2026-09-02T22:08:17Z</time>
  <course>359.15</course>
  <speed>0.03605551275463989</speed>
  <fix>3d</fix>
</trkpt>
<trkpt lat="33.8103142" lon="-118.3938677">
  <ele>-3.36</ele>
  <time>2026-09-02T22:08:17Z</time>
  <course>187.41</course>
  <speed>0.01</speed>
  <fix>3d</fix>
</trkpt>
<trkpt lat="33.810314" lon="-118.3938674">
  <ele>-3.448</ele>
  <time>2026-09-02T22:08:17Z</time>
  <course>359.15</course>
  <speed>0.03605551275463989</speed>
  <fix>3d</fix>
</trkpt>
<trkpt lat="33.8103142" lon="-118.3938677">
  <ele>-3.36</ele>
  <time>2026-09-02T22:08:17Z</time>
  <course>187.41</course>
  <speed>0.01</speed>
  <fix>3d</fix>
</trkpt>
<trkpt lat="33.810314" lon="-118.3938674">
  <ele>-3.45</ele>
  <time>2026-09-02T22:08:17Z</time>
  <course>359.15</course>
  <speed>0.03605551275463989</speed>
  <fix>3d</fix>
</trkpt>
<trkpt lat="33.8103142" lon="-118.3938677">
  <ele>-3.37</ele>
  <time>2026-09-02T22:08:17Z</time>
  <course>188.45</course>
  <speed>0.01</speed>
  <fix>3d</fix>
</trkpt>
<trkpt lat="33.810314" lon="-118.3938674">
  <ele>-3.452</ele>
  <time>2026-09-02T22:08:17Z</time>
  <course>359.15</course>
  <speed>0.03605551275463989</speed>
  <fix>3d</fix>
</trkpt>
<trkpt lat="33.8103142" lon="-118.3938677">
  <ele>-3.37</ele>
  <time>2026-09-02T22:08:17Z</time>
  <course>188.45</course>
  <speed>0.01</speed>
  <fix>3d</fix>
</trkpt>
<trkpt lat="33.810314" lon="-118.3938674">
  <ele>-3.452</ele>
  <time>2026-09-02T22:08:17Z</time>
  <course>359.15</course>
  <speed>0.03605551275463989</speed>
  <fix>3d</fix>
</trkpt>
<trkpt lat="33.8103141" lon="-118.3938677">
  <ele>-3.37</ele>
  <time>2026-09-02T22:08:17Z</time>
  <course>188.37</course>
  <speed>0.01</speed>
  <fix>3d</fix>
</trkpt>
<trkpt lat="33.810314" lon="-118.3938674">
  <ele>-3.452</ele>
  <time>2026-09-02T22:08:17Z</time>
  <course>359.15</course>
  <speed>0.03605551275463989</speed>
  <fix>3d</fix>
</trkpt>
<trkpt lat="33.8103141" lon="-118.3938677">
  <ele>-3.37</ele>
  <time>2026-09-02T22:08:17Z</time>
  <course>188.37</course>
  <speed>0.01</speed>
  <fix>3d</fix>
</trkpt>
<trkpt lat="33.810314" lon="-118.3938674">
  <ele>-3.451</ele>
  <time>2026-09-02T22:08:17Z</time>
  <course>359.14</course>
  <speed>0.03605551275463989</speed>
  <fix>3d</fix>
</trkpt>
<trkpt lat="33.8103141" lon="-118.3938677">
  <ele>-3.36</ele>
  <time>2026-09-02T22:08:17Z</time>
  <course>189.62</course>
  <speed>0.01</speed>
  <fix>3d</fix>
</trkpt>
<trkpt lat="33.810314" lon="-118.3938674">
  <ele>-3.451</ele>
  <time>2026-09-02T22:08:17Z</time>
  <course>359.14</course>
  <speed>0.03605551275463989</speed>
  <fix>3d</fix>
</trkpt>
<trkpt lat="33.810314" lon="-118.3938674">
  <ele>-3.451</ele>
  <time>2026-09-02T22:08:17Z</time>
  <course>359.14</course>
  <speed>0.03605551275463989</speed>
  <fix>3d</fix>
</trkpt>
<trkpt lat="33.810314" lon="-118.3938674">
  <ele>-3.449</ele>
  <time>2026-09-02T22:08:17Z</time>
  <course>359.15</course>
  <speed>0.022360679774997897</speed>
  <fix>3d</fix>
</trkpt>
<trkpt lat="33.8103141" lon="-118.3938677">
  <ele>-3.36</ele>
  <time>2026-09-02T22:08:17Z</time>
  <course>189.62</course>
  <speed>0.01</speed>
  <fix>3d</fix>
</trkpt>
<trkpt lat="33.810314" lon="-118.3938674">
  <ele>-3.448</ele>
  <time>2026-09-02T22:08:17Z</time>
  <course>359.15</course>
  <speed>0.03605551275463989</speed>
  <fix>3d</fix>
</trkpt>
<trkpt lat="33.8103141" lon="-118.3938677">
  <ele>-3.36</ele>
  <time>2026-09-02T22:08:17Z</time>
  <course>327.74</course>
  <speed>0.0</speed>
  <fix>3d</fix>
</trkpt>
<trkpt lat="33.810314" lon="-118.3938674">
  <ele>-3.448</ele>
  <time>2026-09-02T22:08:17Z</time>
  <course>359.15</course>
  <speed>0.07280109889280519</speed>
  <fix>3d</fix>
</trkpt>
<trkpt lat="33.8103141" lon="-118.3938677">
  <ele>-3.36</ele>
  <time>2026-09-02T22:08:17Z</time>
  <course>327.74</course>
  <speed>0.0</speed>
  <fix>3d</fix>
</trkpt>
<trkpt lat="33.810314" lon="-118.3938674">
  <ele>-3.448</ele>
  <time>2026-09-02T22:08:17Z</time>
  <course>359.15</course>
  <speed>0.09219544457292887</speed>
  <fix>3d</fix>
</trkpt>
<trkpt lat="33.8103141" lon="-118.3938677">
  <ele>-3.36</ele>
  <time>2026-09-02T22:08:17Z</time>
  <course>355.18</course>
  <speed>0.05</speed>
  <fix>3d</fix>
</trkpt>
<trkpt lat="33.8103142" lon="-118.3938674">
  <ele>-3.448</ele>
  <time>2026-09-02T22:08:17Z</time>
  <course>359.14</course>
  <speed>0.1019803902718557</speed>
  <fix>3d</fix>
</trkpt>
<trkpt lat="33.8103141" lon="-118.3938677">
  <ele>-3.36</ele>
  <time>2026-09-02T22:08:17Z</time>
  <course>355.18</course>
  <speed>0.05</speed>
  <fix>3d</fix>
</trkpt>
<trkpt lat="33.8103143" lon="-118.3938674">
  <ele>-3.447</ele>
  <time>2026-09-02T22:08:17Z</time>
  <course>359.13</course>
  <speed>0.12165525060596438</speed>
  <fix>3d</fix>
</trkpt>
<trkpt lat="33.8103142" lon="-118.3938677">
  <ele>-3.35</ele>
  <time>2026-09-02T22:08:17Z</time>
  <course>356.42</course>
  <speed>0.11</speed>
  <fix>3d</fix>
</trkpt>
<trkpt lat="33.8103144" lon="-118.3938674">
  <ele>-3.445</ele>
  <time>2026-09-02T22:08:18Z</time>
  <course>359.12</course>
  <speed>0.13152946437965907</speed>
  <fix>3d</fix>
</trkpt>
<trkpt lat="33.8103142" lon="-118.3938677">
  <ele>-3.35</ele>
  <time>2026-09-02T22:08:18Z</time>
  <course>356.42</course>
  <speed>0.11</speed>
  <fix>3d</fix>
</trkpt>
<trkpt lat="33.8103145" lon="-118.3938674">
  <ele>-3.443</ele>
  <time>2026-09-02T22:08:18Z</time>
  <course>359.12</course>
  <speed>0.1414213562373095</speed>
  <fix>3d</fix>
</trkpt>
<trkpt lat="33.8103144" lon="-118.3938677">
  <ele>-3.35</ele>
  <time>2026-09-02T22:08:18Z</time>
  <course>356.75</course>
  <speed>0.14</speed>
  <fix>3d</fix>
</trkpt>
<trkpt lat="33.8103147" lon="-118.3938674">
  <ele>-3.442</ele>
  <time>2026-09-02T22:08:18Z</time>
  <course>359.12</course>
  <speed>0.15132745950421556</speed>
  <fix>3d</fix>
</trkpt>
<trkpt lat="33.8103144" lon="-118.3938677">
  <ele>-3.35</ele>
  <time>2026-09-02T22:08:18Z</time>
  <course>356.75</course>
  <speed>0.14</speed>
  <fix>3d</fix>
</trkpt>
<trkpt lat="33.8103148" lon="-118.3938674">
  <ele>-3.441</ele>
  <time>2026-09-02T22:08:18Z</time>
  <course>359.12</course>
  <speed>0.16124515496597097</speed>
  <fix>3d</fix>
</trkpt>
<trkpt lat="33.8103147" lon="-118.3938677">
  <ele>-3.35</ele>
  <time>2026-09-02T22:08:18Z</time>
  <course>357.0</course>
  <speed>0.16</speed>
  <fix>3d</fix>
</trkpt>
<trkpt lat="33.810315" lon="-118.3938674">
  <ele>-3.441</ele>
  <time>2026-09-02T22:08:18Z</time>
  <course>359.11</course>
  <speed>0.1711724276862369</speed>
  <fix>3d</fix>
</trkpt>
<trkpt lat="33.8103147" lon="-118.3938677">
  <ele>-3.35</ele>
  <time>2026-09-02T22:08:18Z</time>
  <course>357.0</course>
  <speed>0.16</speed>
  <fix>3d</fix>
</trkpt>
<trkpt lat="33.8103151" lon="-118.3938674">
  <ele>-3.441</ele>
  <time>2026-09-02T22:08:18Z</time>
  <course>359.12</course>
  <speed>0.1711724276862369</speed>
  <fix>3d</fix>
</trkpt>
<trkpt lat="33.810315" lon="-118.3938677">
  <ele>-3.35</ele>
  <time>2026-09-02T22:08:18Z</time>
  <course>357.16</course>
  <speed>0.19</speed>
  <fix>3d</fix>
</trkpt>
<trkpt lat="33.8103153" lon="-118.3938674">
  <ele>-3.442</ele>
  <time>2026-09-02T22:08:18Z</time>
  <course>359.11</course>
  <speed>0.18110770276274835</speed>
  <fix>3d</fix>
</trkpt>
<trkpt lat="33.810315" lon="-118.3938677">
  <ele>-3.35</ele>
  <time>2026-09-02T22:08:18Z</time>
  <course>357.16</course>
  <speed>0.19</speed>
  <fix>3d</fix>
</trkpt>
<trkpt lat="33.8103155" lon="-118.3938674">
  <ele>-3.443</ele>
  <time>2026-09-02T22:08:18Z</time>
  <course>359.11</course>
  <speed>0.191049731745428</speed>
  <fix>3d</fix>
</trkpt>
<trkpt lat="33.8103153" lon="-118.3938677">
  <ele>-3.35</ele>
  <time>2026-09-02T22:08:18Z</time>
  <course>357.29</course>
  <speed>0.2</speed>
  <fix>3d</fix>
</trkpt>
<trkpt lat="33.8103157" lon="-118.3938674">
  <ele>-3.444</ele>
  <time>2026-09-02T22:08:18Z</time>
  <course>359.1</course>
  <speed>0.191049731745428</speed>
  <fix>3d</fix>
</trkpt>
<trkpt lat="33.8103153" lon="-118.3938677">
  <ele>-3.35</ele>
  <time>2026-09-02T22:08:18Z</time>
  <course>357.29</course>
  <speed>0.2</speed>
  <fix>3d</fix>
</trkpt>
<trkpt lat="33.8103159" lon="-118.3938674">
  <ele>-3.445</ele>
  <time>2026-09-02T22:08:18Z</time>
  <course>359.11</course>
  <speed>0.2009975124224178</speed>
  <fix>3d</fix>
</trkpt>
<trkpt lat="33.8103158" lon="-118.3938678">
  <ele>-3.36</ele>
  <time>2026-09-02T22:08:18Z</time>
  <course>357.38</course>
  <speed>0.22</speed>
  <fix>3d</fix>
</trkpt>
<trkpt lat="33.8103161" lon="-118.3938674">
  <ele>-3.446</ele>
  <time>2026-09-02T22:08:18Z</time>
  <course>359.1</course>
  <speed>0.2009975124224178</speed>
  <fix>3d</fix>
</trkpt>
<trkpt lat="33.8103158" lon="-118.3938678">
  <ele>-3.36</ele>
  <time>2026-09-02T22:08:18Z</time>
  <course>357.38</course>
  <speed>0.22</speed>
  <fix>3d</fix>
</trkpt>
<trkpt lat="33.8103163" lon="-118.3938675">
  <ele>-3.447</ele>
  <time>2026-09-02T22:08:18Z</time>
  <course>359.11</course>
  <speed>0.2109502310972899</speed>
  <fix>3d</fix>
</trkpt>
<trkpt lat="33.8103162" lon="-118.3938678">
  <ele>-3.36</ele>
  <time>2026-09-02T22:08:18Z</time>
  <course>357.55</course>
  <speed>0.23</speed>
  <fix>3d</fix>
</trkpt>
<trkpt lat="33.8103165" lon="-118.3938675">
  <ele>-3.448</ele>
  <time>2026-09-02T22:08:18Z</time>
  <course>359.1</course>
  <speed>0.2109502310972899</speed>
  <fix>3d</fix>
</trkpt>
<trkpt lat="33.8103162" lon="-118.3938678">
  <ele>-3.36</ele>
  <time>2026-09-02T22:08:18Z</time>
  <course>357.55</course>
  <speed>0.23</speed>
  <fix>3d</fix>
</trkpt>
<trkpt lat="33.8103167" lon="-118.3938675">
  <ele>-3.448</ele>
  <time>2026-09-02T22:08:18Z</time>
  <course>359.1</course>
  <speed>0.2109502310972899</speed>
  <fix>3d</fix>
</trkpt>
<trkpt lat="33.8103166" lon="-118.3938678">
  <ele>-3.36</ele>
  <time>2026-09-02T22:08:18Z</time>
  <course>357.9</course>
  <speed>0.24</speed>
  <fix>3d</fix>
</trkpt>
<trkpt lat="33.8103169" lon="-118.3938675">
  <ele>-3.448</ele>
  <time>2026-09-02T22:08:18Z</time>
  <course>359.1</course>
  <speed>0.2109502310972899</speed>
  <fix>3d</fix>
</trkpt>
<trkpt lat="33.8103166" lon="-118.3938678">
  <ele>-3.36</ele>
  <time>2026-09-02T22:08:18Z</time>
  <course>357.9</course>
  <speed>0.24</speed>
  <fix>3d</fix>
</trkpt>
<trkpt lat="33.8103171" lon="-118.3938675">
  <ele>-3.448</ele>
  <time>2026-09-02T22:08:18Z</time>
  <course>359.11</course>
  <speed>0.2109502310972899</speed>
  <fix>3d</fix>
</trkpt>
<trkpt lat="33.8103171" lon="-118.3938678">
  <ele>-3.36</ele>
  <time>2026-09-02T22:08:18Z</time>
  <course>358.17</course>
  <speed>0.24</speed>
  <fix>3d</fix>
</trkpt>
<trkpt lat="33.8103173" lon="-118.3938675">
  <ele>-3.447</ele>
  <time>2026-09-02T22:08:18Z</time>
  <course>359.11</course>
  <speed>0.2109502310972899</speed>
  <fix>3d</fix>
</trkpt>
<trkpt lat="33.8103171" lon="-118.3938678">
  <ele>-3.36</ele>
  <time>2026-09-02T22:08:18Z</time>
  <course>358.17</course>
  <speed>0.24</speed>
  <fix>3d</fix>
</trkpt>
<trkpt lat="33.8103175" lon="-118.3938675">
  <ele>-3.445</ele>
  <time>2026-09-02T22:08:18Z</time>
  <course>359.11</course>
  <speed>0.2109502310972899</speed>
  <fix>3d</fix>
</trkpt>
<trkpt lat="33.8103175" lon="-118.3938678">
  <ele>-3.36</ele>
  <time>2026-09-02T22:08:18Z</time>
  <course>358.36</course>
  <speed>0.24</speed>
  <fix>3d</fix>
</trkpt>
<trkpt lat="33.8103178" lon="-118.3938675">
  <ele>-3.445</ele>
  <time>2026-09-02T22:08:18Z</time>
  <course>359.11</course>
  <speed>0.2109502310972899</speed>
  <fix>3d</fix>
</trkpt>
<trkpt lat="33.8103175" lon="-118.3938678">
  <ele>-3.36</ele>
  <time>2026-09-02T22:08:18Z</time>
  <course>358.36</course>
  <speed>0.24</speed>
  <fix>3d</fix>
</trkpt>
<trkpt lat="33.810318" lon="-118.3938675">
  <ele>-3.444</ele>
  <time>2026-09-02T22:08:18Z</time>
  <course>359.12</course>
  <speed>0.22090722034374521</speed>
  <fix>3d</fix>
</trkpt>
<trkpt lat="33.8103179" lon="-118.3938679">
  <ele>-3.36</ele>
  <time>2026-09-02T22:08:18Z</time>
  <course>358.51</course>
  <speed>0.25</speed>
  <fix>3d</fix>
</trkpt>
<trkpt lat="33.8103182" lon="-118.3938675">
  <ele>-3.445</ele>
  <time>2026-09-02T22:08:18Z</time>
  <course>359.11</course>
  <speed>0.22090722034374521</speed>
  <fix>3d</fix>
</trkpt>
<trkpt lat="33.8103179" lon="-118.3938679">
  <ele>-3.36</ele>
  <time>2026-09-02T22:08:18Z</time>
  <course>358.51</course>
  <speed>0.25</speed>
  <fix>3d</fix>
</trkpt>
<trkpt lat="33.8103184" lon="-118.3938675">
  <ele>-3.447</ele>
  <time>2026-09-02T22:08:18Z</time>
  <course>359.11</course>
  <speed>0.22090722034374521</speed>
  <fix>3d</fix>
</trkpt>
<trkpt lat="33.8103184" lon="-118.3938679">
  <ele>-3.36</ele>
  <time>2026-09-02T22:08:18Z</time>
  <course>358.71</course>
  <speed>0.25</speed>
  <fix>3d</fix>
</trkpt>
<trkpt lat="33.8103186" lon="-118.3938675">
  <ele>-3.448</ele>
  <time>2026-09-02T22:08:18Z</time>
  <course>359.11</course>
  <speed>0.22090722034374521</speed>
  <fix>3d</fix>
</trkpt>
<trkpt lat="33.8103184" lon="-118.3938679">
  <ele>-3.36</ele>
  <time>2026-09-02T22:08:18Z</time>
  <course>358.71</course>
  <speed>0.25</speed>
  <fix>3d</fix>
</trkpt>
<trkpt lat="33.8103189" lon="-118.3938675">
  <ele>-3.448</ele>
  <time>2026-09-02T22:08:18Z</time>
  <course>359.12</course>
  <speed>0.22090722034374521</speed>
  <fix>3d</fix>
</trkpt>
<trkpt lat="33.8103189" lon="-118.3938679">
  <ele>-3.36</ele>
  <time>2026-09-02T22:08:18Z</time>
  <course>359.03</course>
  <speed>0.25</speed>
  <fix>3d</fix>
</trkpt>
<trkpt lat="33.8103191" lon="-118.3938675">
  <ele>-3.448</ele>
  <time>2026-09-02T22:08:18Z</time>
  <course>359.12</course>
  <speed>0.22090722034374521</speed>
  <fix>3d</fix>
</trkpt>
<trkpt lat="33.8103189" lon="-118.3938679">
  <ele>-3.36</ele>
  <time>2026-09-02T22:08:18Z</time>
  <course>359.03</course>
  <speed>0.25</speed>
  <fix>3d</fix>
</trkpt>
<trkpt lat="33.8103193" lon="-118.3938675">
  <ele>-3.447</ele>
  <time>2026-09-02T22:08:18Z</time>
  <course>359.12</course>
  <speed>0.22090722034374521</speed>
  <fix>3d</fix>
</trkpt>
<trkpt lat="33.8103193" lon="-118.3938679">
  <ele>-3.36</ele>
  <time>2026-09-02T22:08:18Z</time>
  <course>359.27</course>
  <speed>0.25</speed>
  <fix>3d</fix>
</trkpt>
<trkpt lat="33.8103195" lon="-118.3938675">
  <ele>-3.445</ele>
  <time>2026-09-02T22:08:18Z</time>
  <course>359.12</course>
  <speed>0.22090722034374521</speed>
  <fix>3d</fix>
</trkpt>
<trkpt lat="33.8103193" lon="-118.3938679">
  <ele>-3.36</ele>
  <time>2026-09-02T22:08:18Z</time>
  <course>359.27</course>
  <speed>0.25</speed>
  <fix>3d</fix>
</trkpt>
<trkpt lat="33.8103198" lon="-118.3938675">
  <ele>-3.444</ele>
  <time>2026-09-02T22:08:18Z</time>
  <course>359.12</course>
  <speed>0.22090722034374521</speed>
  <fix>3d</fix>
</trkpt>
<trkpt lat="33.8103198" lon="-118.3938679">
  <ele>-3.36</ele>
  <time>2026-09-02T22:08:18Z</time>
  <course>359.45</course>
  <speed>0.25</speed>
  <fix>3d</fix>
</trkpt>
<trkpt lat="33.81032" lon="-118.3938675">
  <ele>-3.443</ele>
  <time>2026-09-02T22:08:18Z</time>
  <course>359.13</course>
  <speed>0.2109502310972899</speed>
  <fix>3d</fix>
</trkpt>
<trkpt lat="33.8103198" lon="-118.3938679">
  <ele>-3.36</ele>
  <time>2026-09-02T22:08:18Z</time>
  <course>359.45</course>
  <speed>0.25</speed>
  <fix>3d</fix>
</trkpt>
<trkpt lat="33.8103202" lon="-118.3938675">
  <ele>-3.443</ele>
  <time>2026-09-02T22:08:18Z</time>
  <course>359.13</course>
  <speed>0.22090722034374521</speed>
  <fix>3d</fix>
</trkpt>
<trkpt lat="33.8103202" lon="-118.3938679">
  <ele>-3.36</ele>
  <time>2026-09-02T22:08:18Z</time>
  <course>359.56</course>
  <speed>0.25</speed>
  <fix>3d</fix>
</trkpt>
<trkpt lat="33.8103204" lon="-118.3938675">
  <ele>-3.444</ele>
  <time>2026-09-02T22:08:18Z</time>
  <course>359.13</course>
  <speed>0.2109502310972899</speed>
  <fix>3d</fix>
</trkpt>
<trkpt lat="33.8103202" lon="-118.3938679">
  <ele>-3.36</ele>
  <time>2026-09-02T22:08:18Z</time>
  <course>359.56</course>
  <speed>0.25</speed>
  <fix>3d</fix>
</trkpt>
<trkpt lat="33.8103207" lon="-118.3938676">
  <ele>-3.444</ele>
  <time>2026-09-02T22:08:18Z</time>
  <course>359.14</course>
  <speed>0.22090722034374521</speed>
  <fix>3d</fix>
</trkpt>
<trkpt lat="33.8103207" lon="-118.3938679">
  <ele>-3.36</ele>
  <time>2026-09-02T22:08:18Z</time>
  <course>359.58</course>
  <speed>0.24</speed>
  <fix>3d</fix>
</trkpt>
<trkpt lat="33.8103209" lon="-118.3938676">
  <ele>-3.444</ele>
  <time>2026-09-02T22:08:18Z</time>
  <course>359.14</course>
  <speed>0.2109502310972899</speed>
  <fix>3d</fix>
</trkpt>
<trkpt lat="33.8103207" lon="-118.3938679">
  <ele>-3.36</ele>
  <time>2026-09-02T22:08:18Z</time>
  <course>359.58</course>
  <speed>0.24</speed>
  <fix>3d</fix>
</trkpt>
<trkpt lat="33.8103211" lon="-118.3938676">
  <ele>-3.444</ele>
  <time>2026-09-02T22:08:18Z</time>
  <course>359.14</course>
  <speed>0.22090722034374521</speed>
  <fix>3d</fix>
</trkpt>
<trkpt lat="33.8103211" lon="-118.3938679">
  <ele>-3.36</ele>
  <time>2026-09-02T22:08:18Z</time>
  <course>359.54</course>
  <speed>0.24</speed>
  <fix>3d</fix>
</trkpt>
<trkpt lat="33.8103213" lon="-118.3938676">
  <ele>-3.443</ele>
  <time>2026-09-02T22:08:18Z</time>
  <course>359.14</course>
  <speed>0.2109502310972899</speed>
  <fix>3d</fix>
</trkpt>
<trkpt lat="33.8103211" lon="-118.3938679">
  <ele>-3.36</ele>
  <time>2026-09-02T22:08:18Z</time>
  <course>359.54</course>
  <speed>0.24</speed>
  <fix>3d</fix>
</trkpt>
<trkpt lat="33.8103216" lon="-118.3938676">
  <ele>-3.441</ele>
  <time>2026-09-02T22:08:18Z</time>
  <course>359.14</course>
  <speed>0.22090722034374521</speed>
  <fix>3d</fix>
</trkpt>
<trkpt lat="33.8103215" lon="-118.3938679">
  <ele>-3.36</ele>
  <time>2026-09-02T22:08:18Z</time>
  <course>359.42</course>
  <speed>0.24</speed>
  <fix>3d</fix>
</trkpt>
<trkpt lat="33.8103218" lon="-118.3938676">
  <ele>-3.441</ele>
  <time>2026-09-02T22:08:18Z</time>
  <course>359.14</course>
  <speed>0.22090722034374521</speed>
  <fix>3d</fix>
</trkpt>
<trkpt lat="33.8103215" lon="-118.3938679">
  <ele>-3.36</ele>
  <time>2026-09-02T22:08:18Z</time>
  <course>359.42</course>
  <speed>0.24</speed>
  <fix>3d</fix>
</trkpt>
<trkpt lat="33.810322" lon="-118.3938676">
  <ele>-3.441</ele>
  <time>2026-09-02T22:08:18Z</time>
  <course>359.15</course>
  <speed>0.22090722034374521</speed>
  <fix>3d</fix>
</trkpt>
<trkpt lat="33.810322" lon="-118.3938679">
  <ele>-3.36</ele>
  <time>2026-09-02T22:08:18Z</time>
  <course>359.31</course>
  <speed>0.24</speed>
  <fix>3d</fix>
</trkpt>
<trkpt lat="33.8103222" lon="-118.3938676">
  <ele>-3.441</ele>
  <time>2026-09-02T22:08:18Z</time>
  <course>359.15</course>
  <speed>0.22090722034374521</speed>
  <fix>3d</fix>
</trkpt>
<trkpt lat="33.810322" lon="-118.3938679">
  <ele>-3.36</ele>
  <time>2026-09-02T22:08:18Z</time>
  <course>359.31</course>
  <speed>0.24</speed>
  <fix>3d</fix>
</trkpt>
<trkpt lat="33.8103225" lon="-118.3938676">
  <ele>-3.442</ele>
  <time>2026-09-02T22:08:18Z</time>
  <course>359.15</course>
  <speed>0.22090722034374521</speed>
  <fix>3d</fix>
</trkpt>
<trkpt lat="33.8103224" lon="-118.3938679">
  <ele>-3.36</ele>
  <time>2026-09-02T22:08:18Z</time>
  <course>359.22</course>
  <speed>0.24</speed>
  <fix>3d</fix>
</trkpt>
<trkpt lat="33.8103227" lon="-118.3938676">
  <ele>-3.443</ele>
  <time>2026-09-02T22:08:18Z</time>
  <course>359.15</course>
  <speed>0.22090722034374521</speed>
  <fix>3d</fix>
</trkpt>
<trkpt lat="33.8103224" lon="-118.3938679">
  <ele>-3.36</ele>
  <time>2026-09-02T22:08:18Z</time>
  <course>359.22</course>
  <speed>0.24</speed>
  <fix>3d</fix>
</trkpt>
<trkpt lat="33.8103229" lon="-118.3938676">
  <ele>-3.445</ele>
  <time>2026-09-02T22:08:18Z</time>
  <course>359.15</course>
  <speed>0.22090722034374521</speed>
  <fix>3d</fix>
</trkpt>
<trkpt lat="33.8103229" lon="-118.3938679">
  <ele>-3.37</ele>
  <time>2026-09-02T22:08:18Z</time>
  <course>359.09</course>
  <speed>0.24</speed>
  <fix>3d</fix>
</trkpt>
<trkpt lat="33.8103231" lon="-118.3938676">
  <ele>-3.446</ele>
  <time>2026-09-02T22:08:18Z</time>
  <course>359.15</course>
  <speed>0.22090722034374521</speed>
  <fix>3d</fix>
</trkpt>
<trkpt lat="33.8103229" lon="-118.3938679">
  <ele>-3.37</ele>
  <time>2026-09-02T22:08:18Z</time>
  <course>359.09</course>
  <speed>0.24</speed>
  <fix>3d</fix>
</trkpt>
<trkpt lat="33.8103233" lon="-118.3938676">
  <ele>-3.448</ele>
  <time>2026-09-02T22:08:18Z</time>
  <course>359.16</course>
  <speed>0.22090722034374521</speed>
  <fix>3d</fix>
</trkpt>
<trkpt lat="33.8103233" lon="-118.3938679">
  <ele>-3.37</ele>
  <time>2026-09-02T22:08:18Z</time>
  <course>358.98</course>
  <speed>0.24</speed>
  <fix>3d</fix>
</trkpt>
<trkpt lat="33.8103236" lon="-118.3938676">
  <ele>-3.45</ele>
  <time>2026-09-02T22:08:18Z</time>
  <course>359.16</course>
  <speed>0.22090722034374521</speed>
  <fix>3d</fix>
</trkpt>
<trkpt lat="33.8103233" lon="-118.3938679">
  <ele>-3.37</ele>
  <time>2026-09-02T22:08:18Z</time>
  <course>358.98</course>
  <speed>0.24</speed>
  <fix>3d</fix>
</trkpt>
<trkpt lat="33.8103238" lon="-118.3938676">
  <ele>-3.451</ele>
  <time>2026-09-02T22:08:18Z</time>
  <course>359.16</course>
  <speed>0.22090722034374521</speed>
  <fix>3d</fix>
</trkpt>
<trkpt lat="33.8103238" lon="-118.393868">
  <ele>-3.37</ele>
  <time>2026-09-02T22:08:18Z</time>
  <course>358.88</course>
  <speed>0.24</speed>
  <fix>3d</fix>
</trkpt>
<trkpt lat="33.810324" lon="-118.3938676">
  <ele>-3.452</ele>
  <time>2026-09-02T22:08:18Z</time>
  <course>359.16</course>
  <speed>0.22090722034374521</speed>
  <fix>3d</fix>
</trkpt>
<trkpt lat="33.8103238" lon="-118.393868">
  <ele>-3.37</ele>
  <time>2026-09-02T22:08:18Z</time>
  <course>358.88</course>
  <speed>0.24</speed>
  <fix>3d</fix>
</trkpt>
<trkpt lat="33.8103242" lon="-118.3938676">
  <ele>-3.451</ele>
  <time>2026-09-02T22:08:18Z</time>
  <course>359.16</course>
  <speed>0.22090722034374521</speed>
  <fix>3d</fix>
</trkpt>
<trkpt lat="33.8103242" lon="-118.393868">
  <ele>-3.37</ele>
  <time>2026-09-02T22:08:18Z</time>
  <course>358.94</course>
  <speed>0.24</speed>
  <fix>3d</fix>
</trkpt>
<trkpt lat="33.8103245" lon="-118.3938676">
  <ele>-3.45</ele>
  <time>2026-09-02T22:08:18Z</time>
  <course>359.16</course>
  <speed>0.22090722034374521</speed>
  <fix>3d</fix>
</trkpt>
<trkpt lat="33.8103242" lon="-118.393868">
  <ele>-3.37</ele>
  <time>2026-09-02T22:08:18Z</time>
  <course>358.94</course>
  <speed>0.24</speed>
  <fix>3d</fix>
</trkpt>
<trkpt lat="33.8103247" lon="-118.3938676">
  <ele>-3.448</ele>
  <time>2026-09-02T22:08:18Z</time>
  <course>359.17</course>
  <speed>0.22090722034374521</speed>
  <fix>3d</fix>
</trkpt>
<trkpt lat="33.8103246" lon="-118.393868">
  <ele>-3.37</ele>
  <time>2026-09-02T22:08:18Z</time>
  <course>359.23</course>
  <speed>0.24</speed>
  <fix>3d</fix>
</trkpt>
<trkpt lat="33.8103249" lon="-118.3938676">
  <ele>-3.447</ele>
  <time>2026-09-02T22:08:18Z</time>
  <course>359.17</course>
  <speed>0.22090722034374521</speed>
  <fix>3d</fix>
</trkpt>
<trkpt lat="33.8103246" lon="-118.393868">
  <ele>-3.37</ele>
  <time>2026-09-02T22:08:18Z</time>
  <course>359.23</course>
  <speed>0.24</speed>
  <fix>3d</fix>
</trkpt>
<trkpt lat="33.8103251" lon="-118.3938677">
  <ele>-3.448</ele>
  <time>2026-09-02T22:08:18Z</time>
  <course>359.17</course>
  <speed>0.22090722034374521</speed>
  <fix>3d</fix>
</trkpt>
<trkpt lat="33.8103251" lon="-118.393868">
  <ele>-3.37</ele>
  <time>2026-09-02T22:08:18Z</time>
  <course>359.52</course>
  <speed>0.24</speed>
  <fix>3d</fix>
</trkpt>
<trkpt lat="33.8103253" lon="-118.3938677">
  <ele>-3.449</ele>
  <time>2026-09-02T22:08:18Z</time>
  <course>359.17</course>
  <speed>0.22090722034374521</speed>
  <fix>3d</fix>
</trkpt>
<trkpt lat="33.8103251" lon="-118.393868">
  <ele>-3.37</ele>
  <time>2026-09-02T22:08:18Z</time>
  <course>359.52</course>
  <speed>0.24</speed>
  <fix>3d</fix>
</trkpt>
<trkpt lat="33.8103256" lon="-118.3938677">
  <ele>-3.45</ele>
  <time>2026-09-02T22:08:18Z</time>
  <course>359.17</course>
  <speed>0.22090722034374521</speed>
  <fix>3d</fix>
</trkpt>
<trkpt lat="33.8103256" lon="-118.393868">
  <ele>-3.37</ele>
  <time>2026-09-02T22:08:18Z</time>
  <course>359.74</course>
  <speed>0.24</speed>
  <fix>3d</fix>
</trkpt>
<trkpt lat="33.8103258" lon="-118.3938677">
  <ele>-3.449</ele>
  <time>2026-09-02T22:08:18Z</time>
  <course>359.17</course>
  <speed>0.22090722034374521</speed>
  <fix>3d</fix>
</trkpt>
<trkpt lat="33.8103256" lon="-118.393868">
  <ele>-3.37</ele>
  <time>2026-09-02T22:08:18Z</time>
  <course>359.74</course>
  <speed>0.24</speed>
  <fix>3d</fix>
</trkpt>
<trkpt lat="33.810326" lon="-118.3938677">
  <ele>-3.449</ele>
  <time>2026-09-02T22:08:18Z</time>
  <course>359.17</course>
  <speed>0.22090722034374521</speed>
  <fix>3d</fix>
</trkpt>
<trkpt lat="33.810326" lon="-118.393868">
  <ele>-3.37</ele>
  <time>2026-09-02T22:08:18Z</time>
  <course>359.86</course>
  <speed>0.24</speed>
  <fix>3d</fix>
</trkpt>
<trkpt lat="33.8103262" lon="-118.3938677">
  <ele>-3.448</ele>
  <time>2026-09-02T22:08:18Z</time>
  <course>359.17</course>
  <speed>0.22090722034374521</speed>
  <fix>3d</fix>
</trkpt>
<trkpt lat="33.810326" lon="-118.393868">
  <ele>-3.37</ele>
  <time>2026-09-02T22:08:18Z</time>
  <course>359.86</course>
  <speed>0.24</speed>
  <fix>3d</fix>
</trkpt>
<trkpt lat="33.8103265" lon="-118.3938677">
  <ele>-3.446</ele>
  <time>2026-09-02T22:08:18Z</time>
  <course>359.17</course>
  <speed>0.22090722034374521</speed>
  <fix>3d</fix>
</trkpt>
<trkpt lat="33.8103265" lon="-118.393868">
  <ele>-3.36</ele>
  <time>2026-09-02T22:08:18Z</time>
  <course>359.86</course>
  <speed>0.24</speed>
  <fix>3d</fix>
</trkpt>
<trkpt lat="33.8103267" lon="-118.3938677">
  <ele>-3.445</ele>
  <time>2026-09-02T22:08:18Z</time>
  <course>359.17</course>
  <speed>0.22090722034374521</speed>
  <fix>3d</fix>
</trkpt>
<trkpt lat="33.8103265" lon="-118.393868">
  <ele>-3.36</ele>
  <time>2026-09-02T22:08:18Z</time>
  <course>359.86</course>
  <speed>0.24</speed>
  <fix>3d</fix>
</trkpt>
<trkpt lat="33.8103269" lon="-118.3938677">
  <ele>-3.444</ele>
  <time>2026-09-02T22:08:18Z</time>
  <course>359.17</course>
  <speed>0.22090722034374521</speed>
  <fix>3d</fix>
</trkpt>
<trkpt lat="33.8103268" lon="-118.393868">
  <ele>-3.36</ele>
  <time>2026-09-02T22:08:18Z</time>
  <course>359.79</course>
  <speed>0.24</speed>
  <fix>3d</fix>
</trkpt>
<trkpt lat="33.8103271" lon="-118.3938677">
  <ele>-3.443</ele>
  <time>2026-09-02T22:08:18Z</time>
  <course>359.17</course>
  <speed>0.22090722034374521</speed>
  <fix>3d</fix>
</trkpt>
<trkpt lat="33.8103268" lon="-118.393868">
  <ele>-3.36</ele>
  <time>2026-09-02T22:08:18Z</time>
  <course>359.79</course>
  <speed>0.24</speed>
  <fix>3d</fix>
</trkpt>
<trkpt lat="33.8103274" lon="-118.3938677">
  <ele>-3.443</ele>
  <time>2026-09-02T22:08:18Z</time>
  <course>359.17</course>
  <speed>0.22090722034374521</speed>
  <fix>3d</fix>
</trkpt>
<trkpt lat="33.8103273" lon="-118.393868">
  <ele>-3.36</ele>
  <time>2026-09-02T22:08:18Z</time>
  <course>359.76</course>
  <speed>0.24</speed>
  <fix>3d</fix>
</trkpt>
<trkpt lat="33.8103276" lon="-118.3938677">
  <ele>-3.444</ele>
  <time>2026-09-02T22:08:18Z</time>
  <course>359.17</course>
  <speed>0.22090722034374521</speed>
  <fix>3d</fix>
</trkpt>
<trkpt lat="33.8103273" lon="-118.393868">
  <ele>-3.36</ele>
  <time>2026-09-02T22:08:18Z</time>
  <course>359.76</course>
  <speed>0.24</speed>
  <fix>3d</fix>
</trkpt>
<trkpt lat="33.8103278" lon="-118.3938677">
  <ele>-3.445</ele>
  <time>2026-09-02T22:08:18Z</time>
  <course>359.17</course>
  <speed>0.22090722034374521</speed>
  <fix>3d</fix>
</trkpt>
<trkpt lat="33.8103277" lon="-118.393868">
  <ele>-3.36</ele>
  <time>2026-09-02T22:08:18Z</time>
  <course>359.73</course>
  <speed>0.24</speed>
  <fix>3d</fix>
</trkpt>
<trkpt lat="33.810328" lon="-118.3938677">
  <ele>-3.445</ele>
  <time>2026-09-02T22:08:18Z</time>
  <course>359.18</course>
  <speed>0.22090722034374521</speed>
  <fix>3d</fix>
</trkpt>
<trkpt lat="33.8103277" lon="-118.393868">
  <ele>-3.36</ele>
  <time>2026-09-02T22:08:18Z</time>
  <course>359.73</course>
  <speed>0.24</speed>
  <fix>3d</fix>
</trkpt>
<trkpt lat="33.8103282" lon="-118.3938677">
  <ele>-3.445</ele>
  <time>2026-09-02T22:08:18Z</time>
  <course>359.17</course>
  <speed>0.22090722034374521</speed>
  <fix>3d</fix>
</trkpt>
<trkpt lat="33.8103282" lon="-118.393868">
  <ele>-3.36</ele>
  <time>2026-09-02T22:08:18Z</time>
  <course>359.66</course>
  <speed>0.24</speed>
  <fix>3d</fix>
</trkpt>
<trkpt lat="33.8103285" lon="-118.3938677">
  <ele>-3.446</ele>
  <time>2026-09-02T22:08:18Z</time>
  <course>359.17</course>
  <speed>0.22090722034374521</speed>
  <fix>3d</fix>
</trkpt>
<trkpt lat="33.8103282" lon="-118.393868">
  <ele>-3.36</ele>
  <time>2026-09-02T22:08:18Z</time>
  <course>359.66</course>
  <speed>0.24</speed>
  <fix>3d</fix>
</trkpt>
<trkpt lat="33.8103287" lon="-118.3938677">
  <ele>-3.446</ele>
  <time>2026-09-02T22:08:18Z</time>
  <course>359.17</course>
  <speed>0.22090722034374521</speed>
  <fix>3d</fix>
</trkpt>
<trkpt lat="33.8103287" lon="-118.393868">
  <ele>-3.36</ele>
  <time>2026-09-02T22:08:18Z</time>
  <course>359.58</course>
  <speed>0.24</speed>
  <fix>3d</fix>
</trkpt>
<trkpt lat="33.8103289" lon="-118.3938677">
  <ele>-3.447</ele>
  <time>2026-09-02T22:08:18Z</time>
  <course>359.18</course>
  <speed>0.22090722034374521</speed>
  <fix>3d</fix>
</trkpt>
<trkpt lat="33.8103287" lon="-118.393868">
  <ele>-3.36</ele>
  <time>2026-09-02T22:08:18Z</time>
  <course>359.58</course>
  <speed>0.24</speed>
  <fix>3d</fix>
</trkpt>
<trkpt lat="33.8103291" lon="-118.3938677">
  <ele>-3.447</ele>
  <time>2026-09-02T22:08:18Z</time>
  <course>359.17</course>
  <speed>0.22090722034374521</speed>
  <fix>3d</fix>
</trkpt>
<trkpt lat="33.8103291" lon="-118.393868">
  <ele>-3.36</ele>
  <time>2026-09-02T22:08:18Z</time>
  <course>359.48</course>
  <speed>0.24</speed>
  <fix>3d</fix>
</trkpt>
<trkpt lat="33.8103294" lon="-118.3938677">
  <ele>-3.447</ele>
  <time>2026-09-02T22:08:18Z</time>
  <course>359.17</course>
  <speed>0.22090722034374521</speed>
  <fix>3d</fix>
</trkpt>
<trkpt lat="33.8103291" lon="-118.393868">
  <ele>-3.36</ele>
  <time>2026-09-02T22:08:18Z</time>
  <course>359.48</course>
  <speed>0.24</speed>
  <fix>3d</fix>
</trkpt>
<trkpt lat="33.8103296" lon="-118.3938677">
  <ele>-3.447</ele>
  <time>2026-09-02T22:08:18Z</time>
  <course>359.17</course>
  <speed>0.22090722034374521</speed>
  <fix>3d</fix>
</trkpt>
<trkpt lat="33.8103296" lon="-118.393868">
  <ele>-3.36</ele>
  <time>2026-09-02T22:08:18Z</time>
  <course>359.38</course>
  <speed>0.24</speed>
  <fix>3d</fix>
</trkpt>
<trkpt lat="33.8103298" lon="-118.3938677">
  <ele>-3.447</ele>
  <time>2026-09-02T22:08:18Z</time>
  <course>359.17</course>
  <speed>0.22090722034374521</speed>
  <fix>3d</fix>
</trkpt>
<trkpt lat="33.8103296" lon="-118.393868">
  <ele>-3.36</ele>
  <time>2026-09-02T22:08:18Z</time>
  <course>359.38</course>
  <speed>0.24</speed>
  <fix>3d</fix>
</trkpt>
<trkpt lat="33.81033" lon="-118.3938677">
  <ele>-3.446</ele>
  <time>2026-09-02T22:08:18Z</time>
  <course>359.17</course>
  <speed>0.22090722034374521</speed>
  <fix>3d</fix>
</trkpt>
<trkpt lat="33.81033" lon="-118.393868">
  <ele>-3.36</ele>
  <time>2026-09-02T22:08:18Z</time>
  <course>359.27</course>
  <speed>0.24</speed>
  <fix>3d</fix>
</trkpt>
<trkpt lat="33.8103303" lon="-118.3938677">
  <ele>-3.446</ele>
  <time>2026-09-02T22:08:18Z</time>
  <course>359.17</course>
  <speed>0.22090722034374521</speed>
  <fix>3d</fix>
</trkpt>
<trkpt lat="33.81033" lon="-118.393868">
  <ele>-3.36</ele>
  <time>2026-09-02T22:08:18Z</time>
  <course>359.27</course>
  <speed>0.24</speed>
  <fix>3d</fix>
</trkpt>
<trkpt lat="33.8103305" lon="-118.3938677">
  <ele>-3.445</ele>
  <time>2026-09-02T22:08:18Z</time>
  <course>359.18</course>
  <speed>0.22090722034374521</speed>
  <fix>3d</fix>
</trkpt>
<trkpt lat="33.8103305" lon="-118.393868">
  <ele>-3.36</ele>
  <time>2026-09-02T22:08:18Z</time>
  <course>359.15</course>
  <speed>0.24</speed>
  <fix>3d</fix>
</trkpt>
<trkpt lat="33.8103307" lon="-118.3938677">
  <ele>-3.445</ele>
  <time>2026-09-02T22:08:18Z</time>
  <course>359.18</course>
  <speed>0.22090722034374521</speed>
  <fix>3d</fix>
</trkpt>
<trkpt lat="33.8103305" lon="-118.393868">
  <ele>-3.36</ele>
  <time>2026-09-02T22:08:18Z</time>
  <course>359.15</course>
  <speed>0.24</speed>
  <fix>3d</fix>
</trkpt>
<trkpt lat="33.8103309" lon="-118.3938677">
  <ele>-3.445</ele>
  <time>2026-09-02T22:08:18Z</time>
  <course>359.17</course>
  <speed>0.22090722034374521</speed>
  <fix>3d</fix>
</trkpt>
<trkpt lat="33.8103308" lon="-118.393868">
  <ele>-3.36</ele>
  <time>2026-09-02T22:08:18Z</time>
  <course>359.04</course>
  <speed>0.24</speed>
  <fix>3d</fix>
</trkpt>
<trkpt lat="33.8103312" lon="-118.3938677">
  <ele>-3.445</ele>
  <time>2026-09-02T22:08:18Z</time>
  <course>359.18</course>
  <speed>0.22090722034374521</speed>
  <fix>3d</fix>
</trkpt>
<trkpt lat="33.8103308" lon="-118.393868">
  <ele>-3.36</ele>
  <time>2026-09-02T22:08:18Z</time>
  <course>359.04</course>
  <speed>0.24</speed>
  <fix>3d</fix>
</trkpt>
<trkpt lat="33.8103314" lon="-118.3938677">
  <ele>-3.446</ele>
  <time>2026-09-02T22:08:18Z</time>
  <course>359.18</course>
  <speed>0.22090722034374521</speed>
  <fix>3d</fix>
</trkpt>
<trkpt lat="33.8103313" lon="-118.393868">
  <ele>-3.36</ele>
  <time>2026-09-02T22:08:18Z</time>
  <course>358.94</course>
  <speed>0.24</speed>
  <fix>3d</fix>
</trkpt>
<trkpt lat="33.8103316" lon="-118.3938677">
  <ele>-3.446</ele>
  <time>2026-09-02T22:08:18Z</time>
  <course>359.18</course>
  <speed>0.22090722034374521</speed>
  <fix>3d</fix>
</trkpt>
<trkpt lat="33.8103313" lon="-118.393868">
  <ele>-3.36</ele>
  <time>2026-09-02T22:08:18Z</time>
  <course>358.94</course>
  <speed>0.24</speed>
  <fix>3d</fix>
</trkpt>
<trkpt lat="33.8103318" lon="-118.3938677">
  <ele>-3.445</ele>
  <time>2026-09-02T22:08:18Z</time>
  <course>359.18</course>
  <speed>0.22022715545545238</speed>
  <fix>3d</fix>
</trkpt>
<trkpt lat="33.8103318" lon="-118.393868">
  <ele>-3.36</ele>
  <time>2026-09-02T22:08:18Z</time>
  <course>358.82</course>
  <speed>0.24</speed>
  <fix>3d</fix>
</trkpt>
<trkpt lat="33.8103321" lon="-118.3938677">
  <ele>-3.445</ele>
  <time>2026-09-02T22:08:18Z</time>
  <course>359.18</course>
  <speed>0.22090722034374521</speed>
  <fix>3d</fix>
</trkpt>
<trkpt lat="33.8103318" lon="-118.393868">
  <ele>-3.36</ele>
  <time>2026-09-02T22:08:18Z</time>
  <course>358.82</course>
  <speed>0.24</speed>
  <fix>3d</fix>
</trkpt>
<trkpt lat="33.8103323" lon="-118.3938677">
  <ele>-3.444</ele>
  <time>2026-09-02T22:08:18Z</time>
  <course>359.18</course>
  <speed>0.22022715545545238</speed>
  <fix>3d</fix>
</trkpt>
<trkpt lat="33.8103322" lon="-118.3938681">
  <ele>-3.36</ele>
  <time>2026-09-02T22:08:18Z</time>
  <course>358.66</course>
  <speed>0.24</speed>
  <fix>3d</fix>
</trkpt>
<trkpt lat="33.8103325" lon="-118.3938677">
  <ele>-3.444</ele>
  <time>2026-09-02T22:08:18Z</time>
  <course>359.18</course>
  <speed>0.22090722034374521</speed>
  <fix>3d</fix>
</trkpt>
<trkpt lat="33.8103322" lon="-118.3938681">
  <ele>-3.36</ele>
  <time>2026-09-02T22:08:18Z</time>
  <course>358.66</course>
  <speed>0.24</speed>
  <fix>3d</fix>
</trkpt>
<trkpt lat="33.8103327" lon="-118.3938677">
  <ele>-3.444</ele>
  <time>2026-09-02T22:08:18Z</time>
  <course>359.18</course>
  <speed>0.22090722034374521</speed>
  <fix>3d</fix>
</trkpt>
<trkpt lat="33.8103327" lon="-118.3938681">
  <ele>-3.36</ele>
  <time>2026-09-02T22:08:18Z</time>
  <course>358.69</course>
  <speed>0.24</speed>
  <fix>3d</fix>
</trkpt>
<trkpt lat="33.8103329" lon="-118.3938677">
  <ele>-3.444</ele>
  <time>2026-09-02T22:08:18Z</time>
  <course>359.18</course>
  <speed>0.22090722034374521</speed>
  <fix>3d</fix>
</trkpt>
<trkpt lat="33.8103327" lon="-118.3938681">
  <ele>-3.36</ele>
  <time>2026-09-02T22:08:18Z</time>
  <course>358.69</course>
  <speed>0.24</speed>
  <fix>3d</fix>
</trkpt>
<trkpt lat="33.8103332" lon="-118.3938678">
  <ele>-3.444</ele>
  <time>2026-09-02T22:08:18Z</time>
  <course>359.18</course>
  <speed>0.22090722034374521</speed>
  <fix>3d</fix>
</trkpt>
<trkpt lat="33.810333" lon="-118.3938681">
  <ele>-3.36</ele>
  <time>2026-09-02T22:08:18Z</time>
  <course>358.93</course>
  <speed>0.24</speed>
  <fix>3d</fix>
</trkpt>
<trkpt lat="33.8103334" lon="-118.3938678">
  <ele>-3.444</ele>
  <time>2026-09-02T22:08:18Z</time>
  <course>359.18</course>
  <speed>0.22090722034374521</speed>
  <fix>3d</fix>
</trkpt>
<trkpt lat="33.810333" lon="-118.3938681">
  <ele>-3.36</ele>
  <time>2026-09-02T22:08:18Z</time>
  <course>358.93</course>
  <speed>0.24</speed>
  <fix>3d</fix>
</trkpt>
<trkpt lat="33.8103336" lon="-118.3938678">
  <ele>-3.444</ele>
  <time>2026-09-02T22:08:18Z</time>
  <course>359.17</course>
  <speed>0.22090722034374521</speed>
  <fix>3d</fix>
</trkpt>
<trkpt lat="33.8103335" lon="-118.3938681">
  <ele>-3.36</ele>
  <time>2026-09-02T22:08:18Z</time>
  <course>359.16</course>
  <speed>0.24</speed>
  <fix>3d</fix>
</trkpt>
<trkpt lat="33.8103338" lon="-118.3938678">
  <ele>-3.444</ele>
  <time>2026-09-02T22:08:18Z</time>
  <course>359.17</course>
  <speed>0.22090722034374521</speed>
  <fix>3d</fix>
</trkpt>
<trkpt lat="33.8103335" lon="-118.3938681">
  <ele>-3.36</ele>
  <time>2026-09-02T22:08:18Z</time>
  <course>359.16</course>
  <speed>0.24</speed>
  <fix>3d</fix>
</trkpt>
<trkpt lat="33.8103341" lon="-118.3938678">
  <ele>-3.445</ele>
  <time>2026-09-02T22:08:18Z</time>
  <course>359.17</course>
  <speed>0.22090722034374521</speed>
  <fix>3d</fix>
</trkpt>
<trkpt lat="33.810334" lon="-118.3938681">
  <ele>-3.36</ele>
  <time>2026-09-02T22:08:18Z</time>
  <course>359.3</course>
  <speed>0.24</speed>
  <fix>3d</fix>
</trkpt>
<trkpt lat="33.8103343" lon="-118.3938678">
  <ele>-3.445</ele>
  <time>2026-09-02T22:08:18Z</time>
  <course>359.17</course>
  <speed>0.22090722034374521</speed>
  <fix>3d</fix>
</trkpt>
<trkpt lat="33.810334" lon="-118.3938681">
  <ele>-3.36</ele>
  <time>2026-09-02T22:08:18Z</time>
  <course>359.3</course>
  <speed>0.24</speed>
  <fix>3d</fix>
</trkpt>
<trkpt lat="33.8103345" lon="-118.3938678">
  <ele>-3.446</ele>
  <time>2026-09-02T22:08:18Z</time>
  <course>359.17</course>
  <speed>0.22090722034374521</speed>
  <fix>3d</fix>
</trkpt>
<trkpt lat="33.8103344" lon="-118.3938681">
  <ele>-3.36</ele>
  <time>2026-09-02T22:08:18Z</time>
  <course>359.35</course>
  <speed>0.24</speed>
  <fix>3d</fix>
</trkpt>
<trkpt lat="33.8103347" lon="-118.3938678">
  <ele>-3.447</ele>
  <time>2026-09-02T22:08:18Z</time>
  <course>359.17</course>
  <speed>0.22090722034374521</speed>
  <fix>3d</fix>
</trkpt>
<trkpt lat="33.8103344" lon="-118.3938681">
  <ele>-3.36</ele>
  <time>2026-09-02T22:08:18Z</time>
  <course>359.35</course>
  <speed>0.24</speed>
  <fix>3d</fix>
</trkpt>
<trkpt lat="33.810335" lon="-118.3938678">
  <ele>-3.448</ele>
  <time>2026-09-02T22:08:18Z</time>
  <course>359.18</course>
  <speed>0.22090722034374521</speed>
  <fix>3d</fix>
</trkpt>
<trkpt lat="33.8103349" lon="-118.3938681">
  <ele>-3.36</ele>
  <time>2026-09-02T22:08:18Z</time>
  <course>359.33</course>
  <speed>0.24</speed>
  <fix>3d</fix>
</trkpt>
<trkpt lat="33.8103352" lon="-118.3938678">
  <ele>-3.449</ele>
  <time>2026-09-02T22:08:18Z</time>
  <course>359.18</course>
  <speed>0.22090722034374521</speed>
  <fix>3d</fix>
</trkpt>
<trkpt lat="33.8103349" lon="-118.3938681">
  <ele>-3.36</ele>
  <time>2026-09-02T22:08:18Z</time>
  <course>359.33</course>
  <speed>0.24</speed>
  <fix>3d</fix>
</trkpt>
<trkpt lat="33.8103352" lon="-118.3938678">
  <ele>-3.449</ele>
  <time>2026-09-02T22:08:18Z</time>
  <course>359.18</course>
  <speed>0.22090722034374521</speed>
  <fix>3d</fix>
</trkpt>
<trkpt lat="33.8103353" lon="-118.3938678">
  <ele>-3.449</ele>
  <time>2026-09-02T22:08:18Z</time>
  <course>359.18</course>
  <speed>0.22090722034374521</speed>
  <fix>3d</fix>
</trkpt>
<trkpt lat="33.8103354" lon="-118.3938678">
  <ele>-3.449</ele>
  <time>2026-09-02T22:08:18Z</time>
  <course>359.17</course>
  <speed>0.22090722034374521</speed>
  <fix>3d</fix>
</trkpt>
<trkpt lat="33.8103353" lon="-118.3938681">
  <ele>-3.36</ele>
  <time>2026-09-02T22:08:18Z</time>
  <course>359.27</course>
  <speed>0.24</speed>
  <fix>3d</fix>
</trkpt>
<trkpt lat="33.8103357" lon="-118.3938678">
  <ele>-3.449</ele>
  <time>2026-09-02T22:08:18Z</time>
  <course>359.15</course>
  <speed>0.41012193308819755</speed>
  <fix>3d</fix>
</trkpt>
<trkpt lat="33.8103353" lon="-118.3938681">
  <ele>-3.36</ele>
  <time>2026-09-02T22:08:18Z</time>
  <course>359.27</course>
  <speed>0.24</speed>
  <fix>3d</fix>
</trkpt>
<trkpt lat="33.8103362" lon="-118.3938678">
  <ele>-3.448</ele>
  <time>2026-09-02T22:08:18Z</time>
  <course>359.1</course>
  <speed>0.5300943312279428</speed>
  <fix>3d</fix>
</trkpt>
<trkpt lat="33.8103359" lon="-118.3938681">
  <ele>-3.36</ele>
  <time>2026-09-02T22:08:18Z</time>
  <course>358.95</course>
  <speed>0.35</speed>
  <fix>3d</fix>
</trkpt>
<trkpt lat="33.8103367" lon="-118.3938678">
  <ele>-3.447</ele>
  <time>2026-09-02T22:08:18Z</time>
  <course>359.03</course>
  <speed>0.6000833275470999</speed>
  <fix>3d</fix>
</trkpt>
<trkpt lat="33.8103359" lon="-118.3938681">
  <ele>-3.36</ele>
  <time>2026-09-02T22:08:18Z</time>
  <course>358.95</course>
  <speed>0.35</speed>
  <fix>3d</fix>
</trkpt>
<trkpt lat="33.8103373" lon="-118.3938678">
  <ele>-3.446</ele>
  <time>2026-09-02T22:08:18Z</time>
  <course>358.96</course>
  <speed>0.66007575322837</speed>
  <fix>3d</fix>
</trkpt>
<trkpt lat="33.8103367" lon="-118.3938681">
  <ele>-3.36</ele>
  <time>2026-09-02T22:08:18Z</time>
  <course>358.76</course>
  <speed>0.55</speed>
  <fix>3d</fix>
</trkpt>
<trkpt lat="33.8103379" lon="-118.3938678">
  <ele>-3.443</ele>
  <time>2026-09-02T22:08:18Z</time>
  <course>358.9</course>
  <speed>0.7000714249274855</speed>
  <fix>3d</fix>
</trkpt>
<trkpt lat="33.8103367" lon="-118.3938681">
  <ele>-3.36</ele>
  <time>2026-09-02T22:08:18Z</time>
  <course>358.76</course>
  <speed>0.55</speed>
  <fix>3d</fix>
</trkpt>
<trkpt lat="33.8103386" lon="-118.3938678">
  <ele>-3.439</ele>
  <time>2026-09-02T22:08:18Z</time>
  <course>358.84</course>
  <speed>0.7300684899377592</speed>
  <fix>3d</fix>
</trkpt>
<trkpt lat="33.8103378" lon="-118.3938682">
  <ele>-3.35</ele>
  <time>2026-09-02T22:08:18Z</time>
  <course>358.72</course>
  <speed>0.68</speed>
  <fix>3d</fix>
</trkpt>
<trkpt lat="33.8103393" lon="-118.3938679">
  <ele>-3.435</ele>
  <time>2026-09-02T22:08:18Z</time>
  <course>358.78</course>
  <speed>0.750066663703967</speed>
  <fix>3d</fix>
</trkpt>
<trkpt lat="33.8103378" lon="-118.3938682">
  <ele>-3.35</ele>
  <time>2026-09-02T22:08:18Z</time>
  <course>358.72</course>
  <speed>0.68</speed>
  <fix>3d</fix>
</trkpt>
<trkpt lat="33.81034" lon="-118.3938679">
  <ele>-3.43</ele>
  <time>2026-09-02T22:08:18Z</time>
  <course>358.73</course>
  <speed>0.7700649323271382</speed>
  <fix>3d</fix>
</trkpt>
<trkpt lat="33.8103391" lon="-118.3938682">
  <ele>-3.34</ele>
  <time>2026-09-02T22:08:18Z</time>
  <course>358.73</course>
  <speed>0.75</speed>
  <fix>3d</fix>
</trkpt>
<trkpt lat="33.8103407" lon="-118.3938679">
  <ele>-3.425</ele>
  <time>2026-09-02T22:08:18Z</time>
  <course>358.68</course>
  <speed>0.7900632886041472</speed>
  <fix>3d</fix>
</trkpt>
<trkpt lat="33.8103391" lon="-118.3938682">
  <ele>-3.34</ele>
  <time>2026-09-02T22:08:18Z</time>
  <course>358.73</course>
  <speed>0.75</speed>
  <fix>3d</fix>
</trkpt>
<trkpt lat="33.8103414" lon="-118.3938679">
  <ele>-3.42</ele>
  <time>2026-09-02T22:08:18Z</time>
  <course>358.64</course>
  <speed>0.8000624975587844</speed>
  <fix>3d</fix>
</trkpt>
<trkpt lat="33.8103404" lon="-118.3938682">
  <ele>-3.33</ele>
  <time>2026-09-02T22:08:18Z</time>
  <course>358.75</course>
  <speed>0.8</speed>
  <fix>3d</fix>
</trkpt>
<trkpt lat="33.8103422" lon="-118.3938679">
  <ele>-3.413</ele>
  <time>2026-09-02T22:08:18Z</time>
  <course>358.6</course>
  <speed>0.8100617260431454</speed>
  <fix>3d</fix>
</trkpt>
<trkpt lat="33.8103404" lon="-118.3938682">
  <ele>-3.33</ele>
  <time>2026-09-02T22:08:18Z</time>
  <course>358.75</course>
  <speed>0.8</speed>
  <fix>3d</fix>
</trkpt>
<trkpt lat="33.8103429" lon="-118.393868">
  <ele>-3.406</ele>
  <time>2026-09-02T22:08:18Z</time>
  <course>358.56</course>
  <speed>0.82</speed>
  <fix>3d</fix>
</trkpt>
<trkpt lat="33.8103419" lon="-118.3938683">
  <ele>-3.32</ele>
  <time>2026-09-02T22:08:18Z</time>
  <course>358.77</course>
  <speed>0.83</speed>
  <fix>3d</fix>
</trkpt>
<trkpt lat="33.8103437" lon="-118.393868">
  <ele>-3.398</ele>
  <time>2026-09-02T22:08:18Z</time>
  <course>358.53</course>
  <speed>0.83</speed>
  <fix>3d</fix>
</trkpt>
<trkpt lat="33.8103419" lon="-118.3938683">
  <ele>-3.32</ele>
  <time>2026-09-02T22:08:18Z</time>
  <course>358.77</course>
  <speed>0.83</speed>
  <fix>3d</fix>
</trkpt>
<trkpt lat="33.8103445" lon="-118.393868">
  <ele>-3.389</ele>
  <time>2026-09-02T22:08:18Z</time>
  <course>358.5</course>
  <speed>0.84</speed>
  <fix>3d</fix>
</trkpt>
<trkpt lat="33.8103435" lon="-118.3938683">
  <ele>-3.31</ele>
  <time>2026-09-02T22:08:18Z</time>
  <course>358.8</course>
  <speed>0.85</speed>
  <fix>3d</fix>
</trkpt>
<trkpt lat="33.8103452" lon="-118.393868">
  <ele>-3.381</ele>
  <time>2026-09-02T22:08:18Z</time>
  <course>358.47</course>
  <speed>0.7600657866263946</speed>
  <fix>3d</fix>
</trkpt>
<trkpt lat="33.8103435" lon="-118.3938683">
  <ele>-3.31</ele>
  <time>2026-09-02T22:08:18Z</time>
  <course>358.8</course>
  <speed>0.85</speed>
  <fix>3d</fix>
</trkpt>
<trkpt lat="33.8103458" lon="-118.393868">
  <ele>-3.373</ele>
  <time>2026-09-02T22:08:18Z</time>
  <course>358.45</course>
  <speed>0.5500909015790026</speed>
  <fix>3d</fix>
</trkpt>
<trkpt lat="33.810345" lon="-118.3938683">
  <ele>-3.3</ele>
  <time>2026-09-02T22:08:18Z</time>
  <course>358.88</course>
  <speed>0.79</speed>
  <fix>3d</fix>
</trkpt>
<trkpt lat="33.8103463" lon="-118.393868">
  <ele>-3.365</ele>
  <time>2026-09-02T22:08:18Z</time>
  <course>358.42</course>
  <speed>0.4301162633521314</speed>
  <fix>3d</fix>
</trkpt>
<trkpt lat="33.810345" lon="-118.3938683">
  <ele>-3.3</ele>
  <time>2026-09-02T22:08:18Z</time>
  <course>358.88</course>
  <speed>0.79</speed>
  <fix>3d</fix>
</trkpt>
<trkpt lat="33.8103466" lon="-118.3938681">
  <ele>-3.356</ele>
  <time>2026-09-02T22:08:18Z</time>
  <course>358.4</course>
  <speed>0.3505709628591621</speed>
  <fix>3d</fix>
</trkpt>
<trkpt lat="33.8103463" lon="-118.3938684">
  <ele>-3.28</ele>
  <time>2026-09-02T22:08:18Z</time>
  <course>359.17</course>
  <speed>0.58</speed>
  <fix>3d</fix>
</trkpt>
<trkpt lat="33.8103469" lon="-118.3938681">
  <ele>-3.348</ele>
  <time>2026-09-02T22:08:18Z</time>
  <course>358.39</course>
  <speed>0.2906888370749727</speed>
  <fix>3d</fix>
</trkpt>
<trkpt lat="33.8103463" lon="-118.3938684">
  <ele>-3.28</ele>
  <time>2026-09-02T22:08:18Z</time>
  <course>359.17</course>
  <speed>0.58</speed>
  <fix>3d</fix>
</trkpt>
<trkpt lat="33.8103472" lon="-118.3938681">
  <ele>-3.338</ele>
  <time>2026-09-02T22:08:18Z</time>
  <course>358.38</course>
  <speed>0.25079872407968906</speed>
  <fix>3d</fix>
</trkpt>
<trkpt lat="33.8103471" lon="-118.3938684">
  <ele>-3.27</ele>
  <time>2026-09-02T22:08:18Z</time>
  <course>359.75</course>
  <speed>0.37</speed>
  <fix>3d</fix>
</trkpt>
<trkpt lat="33.8103475" lon="-118.3938681">
  <ele>-3.329</ele>
  <time>2026-09-02T22:08:18Z</time>
  <course>358.37</course>
  <speed>0.22090722034374521</speed>
  <fix>3d</fix>
</trkpt>
<trkpt lat="33.8103471" lon="-118.3938684">
  <ele>-3.27</ele>
  <time>2026-09-02T22:08:18Z</time>
  <course>359.75</course>
  <speed>0.37</speed>
  <fix>3d</fix>
</trkpt>
<trkpt lat="33.8103477" lon="-118.3938681">
  <ele>-3.32</ele>
  <time>2026-09-02T22:08:18Z</time>
  <course>358.36</course>
  <speed>0.191049731745428</speed>
  <fix>3d</fix>
</trkpt>
<trkpt lat="33.8103476" lon="-118.3938684">
  <ele>-3.25</ele>
  <time>2026-09-02T22:08:18Z</time>
  <course>0.29</course>
  <speed>0.27</speed>
  <fix>3d</fix>
</trkpt>
<trkpt lat="33.8103479" lon="-118.3938681">
  <ele>-3.311</ele>
  <time>2026-09-02T22:08:18Z</time>
  <course>358.36</course>
  <speed>0.1711724276862369</speed>
  <fix>3d</fix>
</trkpt>
<trkpt lat="33.8103476" lon="-118.3938684">
  <ele>-3.25</ele>
  <time>2026-09-02T22:08:18Z</time>
  <course>0.29</course>
  <speed>0.27</speed>
  <fix>3d</fix>
</trkpt>
<trkpt lat="33.8103485" lon="-118.3938681">
  <ele>-3.271</ele>
  <time>2026-09-02T22:08:18Z</time>
  <course>358.34</course>
  <speed>0.12165525060596438</speed>
  <fix>3d</fix>
</trkpt>
<trkpt lat="33.8103485" lon="-118.3938684">
  <ele>-3.22</ele>
  <time>2026-09-02T22:08:18Z</time>
  <course>1.34</course>
  <speed>0.18</speed>
  <fix>3d</fix>
</trkpt>
<trkpt lat="33.8103489" lon="-118.3938681">
  <ele>-3.238</ele>
  <time>2026-09-02T22:08:18Z</time>
  <course>358.34</course>
  <speed>0.1019803902718557</speed>
  <fix>3d</fix>
</trkpt>
<trkpt lat="33.810349" lon="-118.3938684">
  <ele>-3.18</ele>
  <time>2026-09-02T22:08:18Z</time>
  <course>2.36</course>
  <speed>0.13</speed>
  <fix>3d</fix>
</trkpt>
<trkpt lat="33.810349" lon="-118.3938681">
  <ele>-3.226</ele>
  <time>2026-09-02T22:08:18Z</time>
  <course>358.33</course>
  <speed>0.09219544457292887</speed>
  <fix>3d</fix>
</trkpt>
<trkpt lat="33.810349" lon="-118.3938684">
  <ele>-3.18</ele>
  <time>2026-09-02T22:08:18Z</time>
  <course>2.36</course>
  <speed>0.13</speed>
  <fix>3d</fix>
</trkpt>
<trkpt lat="33.8103492" lon="-118.3938681">
  <ele>-3.213</ele>
  <time>2026-09-02T22:08:18Z</time>
  <course>358.33</course>
  <speed>0.09219544457292887</speed>
  <fix>3d</fix>
</trkpt>
<trkpt lat="33.8103493" lon="-118.3938684">
  <ele>-3.16</ele>
  <time>2026-09-02T22:08:18Z</time>
  <course>2.85</course>
  <speed>0.12</speed>
  <fix>3d</fix>
</trkpt>
<trkpt lat="33.8103493" lon="-118.3938681">
  <ele>-3.202</ele>
  <time>2026-09-02T22:08:18Z</time>
  <course>358.33</course>
  <speed>0.0824621125123532</speed>
  <fix>3d</fix>
</trkpt>
<trkpt lat="33.8103493" lon="-118.3938684">
  <ele>-3.16</ele>
  <time>2026-09-02T22:08:18Z</time>
  <course>2.85</course>
  <speed>0.12</speed>
  <fix>3d</fix>
</trkpt>
<trkpt lat="33.8103494" lon="-118.3938681">
  <ele>-3.192</ele>
  <time>2026-09-02T22:08:18Z</time>
  <course>358.32</course>
  <speed>0.0824621125123532</speed>
  <fix>3d</fix>
</trkpt>
<trkpt lat="33.8103495" lon="-118.3938684">
  <ele>-3.14</ele>
  <time>2026-09-02T22:08:18Z</time>
  <course>3.33</course>
  <speed>0.1</speed>
  <fix>3d</fix>
</trkpt>
<trkpt lat="33.8103495" lon="-118.3938681">
  <ele>-3.183</ele>
  <time>2026-09-02T22:08:18Z</time>
  <course>358.32</course>
  <speed>0.0824621125123532</speed>
  <fix>3d</fix>
</trkpt>
<trkpt lat="33.8103495" lon="-118.3938684">
  <ele>-3.14</ele>
  <time>2026-09-02T22:08:18Z</time>
  <course>3.33</course>
  <speed>0.1</speed>
  <fix>3d</fix>
</trkpt>
<trkpt lat="33.8103496" lon="-118.3938681">
  <ele>-3.176</ele>
  <time>2026-09-02T22:08:18Z</time>
  <course>358.32</course>
  <speed>0.07280109889280519</speed>
  <fix>3d</fix>
</trkpt>
<trkpt lat="33.8103496" lon="-118.3938684">
  <ele>-3.13</ele>
  <time>2026-09-02T22:08:18Z</time>
  <course>3.79</course>
  <speed>0.09</speed>
  <fix>3d</fix>
</trkpt>
<trkpt lat="33.8103496" lon="-118.3938681">
  <ele>-3.167</ele>
  <time>2026-09-02T22:08:18Z</time>
  <course>358.32</course>
  <speed>0.07280109889280519</speed>
  <fix>3d</fix>
</trkpt>
<trkpt lat="33.8103496" lon="-118.3938684">
  <ele>-3.13</ele>
  <time>2026-09-02T22:08:18Z</time>
  <course>3.79</course>
  <speed>0.09</speed>
  <fix>3d</fix>
</trkpt>
<trkpt lat="33.8103497" lon="-118.3938681">
  <ele>-3.158</ele>
  <time>2026-09-02T22:08:18Z</time>
  <course>358.31</course>
  <speed>0.0632455532033676</speed>
  <fix>3d</fix>
</trkpt>
<trkpt lat="33.8103498" lon="-118.3938684">
  <ele>-3.11</ele>
  <time>2026-09-02T22:08:18Z</time>
  <course>4.23</course>
  <speed>0.09</speed>
  <fix>3d</fix>
</trkpt>
<trkpt lat="33.8103498" lon="-118.3938681">
  <ele>-3.149</ele>
  <time>2026-09-02T22:08:18Z</time>
  <course>358.31</course>
  <speed>0.0632455532033676</speed>
  <fix>3d</fix>
</trkpt>
<trkpt lat="33.8103498" lon="-118.3938684">
  <ele>-3.11</ele>
  <time>2026-09-02T22:08:18Z</time>
  <course>4.23</course>
  <speed>0.09</speed>
  <fix>3d</fix>
</trkpt>
<trkpt lat="33.8103499" lon="-118.3938681">
  <ele>-3.14</ele>
  <time>2026-09-02T22:08:18Z</time>
  <course>358.31</course>
  <speed>0.0632455532033676</speed>
  <fix>3d</fix>
</trkpt>
<trkpt lat="33.81035" lon="-118.3938684">
  <ele>-3.09</ele>
  <time>2026-09-02T22:08:18Z</time>
  <course>4.67</course>
  <speed>0.08</speed>
  <fix>3d</fix>
</trkpt>
<trkpt lat="33.8103499" lon="-118.3938681">
  <ele>-3.131</ele>
  <time>2026-09-02T22:08:18Z</time>
  <course>358.3</course>
  <speed>0.0632455532033676</speed>
  <fix>3d</fix>
</trkpt>
<trkpt lat="33.81035" lon="-118.3938684">
  <ele>-3.09</ele>
  <time>2026-09-02T22:08:18Z</time>
  <course>4.67</course>
  <speed>0.08</speed>
  <fix>3d</fix>
</trkpt>
<trkpt lat="33.81035" lon="-118.3938681">
  <ele>-3.121</ele>
  <time>2026-09-02T22:08:18Z</time>
  <course>358.3</course>
  <speed>0.053851648071345036</speed>
  <fix>3d</fix>
</trkpt>
<trkpt lat="33.8103501" lon="-118.3938684">
  <ele>-3.07</ele>
  <time>2026-09-02T22:08:18Z</time>
  <course>5.11</course>
  <speed>0.07</speed>
  <fix>3d</fix>
</trkpt>
<trkpt lat="33.8103501" lon="-118.3938681">
  <ele>-3.111</ele>
  <time>2026-09-02T22:08:18Z</time>
  <course>358.29</course>
  <speed>0.05099019513592785</speed>
  <fix>3d</fix>
</trkpt>
<trkpt lat="33.8103501" lon="-118.3938684">
  <ele>-3.07</ele>
  <time>2026-09-02T22:08:18Z</time>
  <course>5.11</course>
  <speed>0.07</speed>
  <fix>3d</fix>
</trkpt>
<trkpt lat="33.8103502" lon="-118.3938681">
  <ele>-3.1</ele>
  <time>2026-09-02T22:08:18Z</time>
  <course>358.29</course>
  <speed>0.05099019513592785</speed>
  <fix>3d</fix>
</trkpt>
<trkpt lat="33.8103502" lon="-118.3938684">
  <ele>-3.05</ele>
  <time>2026-09-02T22:08:18Z</time>
  <course>5.54</course>
  <speed>0.07</speed>
  <fix>3d</fix>
</trkpt>
<trkpt lat="33.8103502" lon="-118.3938681">
  <ele>-3.09</ele>
  <time>2026-09-02T22:08:18Z</time>
  <course>358.29</course>
  <speed>0.05099019513592785</speed>
  <fix>3d</fix>
</trkpt>
<trkpt lat="33.8103502" lon="-118.3938684">
  <ele>-3.05</ele>
  <time>2026-09-02T22:08:18Z</time>
  <course>5.54</course>
  <speed>0.07</speed>
  <fix>3d</fix>
</trkpt>
<trkpt lat="33.8103503" lon="-118.3938681">
  <ele>-3.08</ele>
  <time>2026-09-02T22:08:18Z</time>
  <course>358.28</course>
  <speed>0.05099019513592785</speed>
  <fix>3d</fix>
</trkpt>
<trkpt lat="33.8103504" lon="-118.3938683">
  <ele>-3.03</ele>
  <time>2026-09-02T22:08:18Z</time>
  <course>5.97</course>
  <speed>0.06</speed>
  <fix>3d</fix>
</trkpt>
<trkpt lat="33.8103503" lon="-118.3938681">
  <ele>-3.07</ele>
  <time>2026-09-02T22:08:18Z</time>
  <course>358.28</course>
  <speed>0.0412310562561766</speed>
  <fix>3d</fix>
</trkpt>
<trkpt lat="33.8103504" lon="-118.3938683">
  <ele>-3.03</ele>
  <time>2026-09-02T22:08:18Z</time>
  <course>5.97</course>
  <speed>0.06</speed>
  <fix>3d</fix>
</trkpt>
<trkpt lat="33.8103504" lon="-118.3938681">
  <ele>-3.06</ele>
  <time>2026-09-02T22:08:18Z</time>
  <course>358.27</course>
  <speed>0.0412310562561766</speed>
  <fix>3d</fix>
</trkpt>
<trkpt lat="33.8103505" lon="-118.3938683">
  <ele>-3.01</ele>
  <time>2026-09-02T22:08:18Z</time>
  <course>6.37</course>
  <speed>0.06</speed>
  <fix>3d</fix>
</trkpt>
<trkpt lat="33.8103504" lon="-118.3938681">
  <ele>-3.05</ele>
  <time>2026-09-02T22:08:18Z</time>
  <course>358.26</course>
  <speed>0.0412310562561766</speed>
  <fix>3d</fix>
</trkpt>
<trkpt lat="33.8103505" lon="-118.3938683">
  <ele>-3.01</ele>
  <time>2026-09-02T22:08:18Z</time>
  <course>6.37</course>
  <speed>0.06</speed>
  <fix>3d</fix>
</trkpt>
<trkpt lat="33.8103505" lon="-118.3938681">
  <ele>-3.042</ele>
  <time>2026-09-02T22:08:18Z</time>
  <course>358.26</course>
  <speed>0.044721359549995794</speed>
  <fix>3d</fix>
</trkpt>
<trkpt lat="33.8103506" lon="-118.3938683">
  <ele>-2.99</ele>
  <time>2026-09-02T22:08:18Z</time>
  <course>6.74</course>
  <speed>0.06</speed>
  <fix>3d</fix>
</trkpt>
<trkpt lat="33.8103506" lon="-118.3938681">
  <ele>-3.033</ele>
  <time>2026-09-02T22:08:18Z</time>
  <course>358.25</course>
  <speed>0.044721359549995794</speed>
  <fix>3d</fix>
</trkpt>
<trkpt lat="33.8103506" lon="-118.3938683">
  <ele>-2.99</ele>
  <time>2026-09-02T22:08:18Z</time>
  <course>6.74</course>
  <speed>0.06</speed>
  <fix>3d</fix>
</trkpt>
<trkpt lat="33.8103506" lon="-118.3938681">
  <ele>-3.023</ele>
  <time>2026-09-02T22:08:18Z</time>
  <course>358.25</course>
  <speed>0.03605551275463989</speed>
  <fix>3d</fix>
</trkpt>
<trkpt lat="33.8103507" lon="-118.3938683">
  <ele>-2.97</ele>
  <time>2026-09-02T22:08:18Z</time>
  <course>7.12</course>
  <speed>0.05</speed>
  <fix>3d</fix>
</trkpt>
<trkpt lat="33.8103507" lon="-118.3938681">
  <ele>-3.014</ele>
  <time>2026-09-02T22:08:18Z</time>
  <course>358.24</course>
  <speed>0.03605551275463989</speed>
  <fix>3d</fix>
</trkpt>
<trkpt lat="33.8103507" lon="-118.3938683">
  <ele>-2.97</ele>
  <time>2026-09-02T22:08:18Z</time>
  <course>7.12</course>
  <speed>0.05</speed>
  <fix>3d</fix>
</trkpt>
<trkpt lat="33.8103507" lon="-118.3938681">
  <ele>-3.005</ele>
  <time>2026-09-02T22:08:18Z</time>
  <course>358.24</course>
  <speed>0.03605551275463989</speed>
  <fix>3d</fix>
</trkpt>
<trkpt lat="33.8103508" lon="-118.3938683">
  <ele>-2.96</ele>
  <time>2026-09-02T22:08:18Z</time>
  <course>7.49</course>
  <speed>0.05</speed>
  <fix>3d</fix>
</trkpt>
<trkpt lat="33.8103507" lon="-118.3938681">
  <ele>-2.994</ele>
  <time>2026-09-02T22:08:18Z</time>
  <course>358.23</course>
  <speed>0.03605551275463989</speed>
  <fix>3d</fix>
</trkpt>
<trkpt lat="33.8103508" lon="-118.3938683">
  <ele>-2.96</ele>
  <time>2026-09-02T22:08:18Z</time>
  <course>7.49</course>
  <speed>0.05</speed>
  <fix>3d</fix>
</trkpt>
<trkpt lat="33.8103508" lon="-118.3938681">
  <ele>-2.984</ele>
  <time>2026-09-02T22:08:18Z</time>
  <course>358.23</course>
  <speed>0.03605551275463989</speed>
  <fix>3d</fix>
</trkpt>
<trkpt lat="33.8103509" lon="-118.3938683">
  <ele>-2.94</ele>
  <time>2026-09-02T22:08:18Z</time>
  <course>7.87</course>
  <speed>0.05</speed>
  <fix>3d</fix>
</trkpt>
<trkpt lat="33.8103508" lon="-118.3938681">
  <ele>-2.974</ele>
  <time>2026-09-02T22:08:18Z</time>
  <course>358.22</course>
  <speed>0.03605551275463989</speed>
  <fix>3d</fix>
</trkpt>
<trkpt lat="33.8103509" lon="-118.3938683">
  <ele>-2.94</ele>
  <time>2026-09-02T22:08:18Z</time>
  <course>7.87</course>
  <speed>0.05</speed>
  <fix>3d</fix>
</trkpt>
<trkpt lat="33.8103509" lon="-118.3938681">
  <ele>-2.965</ele>
  <time>2026-09-02T22:08:18Z</time>
  <course>358.22</course>
  <speed>0.03605551275463989</speed>
  <fix>3d</fix>
</trkpt>
<trkpt lat="33.810351" lon="-118.3938683">
  <ele>-2.92</ele>
  <time>2026-09-02T22:08:18Z</time>
  <course>8.25</course>
  <speed>0.05</speed>
  <fix>3d</fix>
</trkpt>
<trkpt lat="33.8103509" lon="-118.3938681">
  <ele>-2.957</ele>
  <time>2026-09-02T22:08:18Z</time>
  <course>358.21</course>
  <speed>0.03605551275463989</speed>
  <fix>3d</fix>
</trkpt>
<trkpt lat="33.810351" lon="-118.3938683">
  <ele>-2.92</ele>
  <time>2026-09-02T22:08:18Z</time>
  <course>8.25</course>
  <speed>0.05</speed>
  <fix>3d</fix>
</trkpt>
<trkpt lat="33.810351" lon="-118.3938681">
  <ele>-2.949</ele>
  <time>2026-09-02T22:08:18Z</time>
  <course>358.21</course>
  <speed>0.0282842712474619</speed>
  <fix>3d</fix>
</trkpt>
<trkpt lat="33.8103511" lon="-118.3938682">
  <ele>-2.9</ele>
  <time>2026-09-02T22:08:18Z</time>
  <course>8.61</course>
  <speed>0.04</speed>
  <fix>3d</fix>
</trkpt>
<trkpt lat="33.810351" lon="-118.3938681">
  <ele>-2.94</ele>
  <time>2026-09-02T22:08:18Z</time>
  <course>358.2</course>
  <speed>0.0282842712474619</speed>
  <fix>3d</fix>
</trkpt>
<trkpt lat="33.8103511" lon="-118.3938682">
  <ele>-2.9</ele>
  <time>2026-09-02T22:08:18Z</time>
  <course>8.61</course>
  <speed>0.04</speed>
  <fix>3d</fix>
</trkpt>
<trkpt lat="33.810351" lon="-118.3938681">
  <ele>-2.931</ele>
  <time>2026-09-02T22:08:18Z</time>
  <course>358.19</course>
  <speed>0.0282842712474619</speed>
  <fix>3d</fix>
</trkpt>
<trkpt lat="33.8103512" lon="-118.3938682">
  <ele>-2.88</ele>
  <time>2026-09-02T22:08:18Z</time>
  <course>8.94</course>
  <speed>0.04</speed>
  <fix>3d</fix>
</trkpt>
<trkpt lat="33.8103511" lon="-118.3938681">
  <ele>-2.921</ele>
  <time>2026-09-02T22:08:18Z</time>
  <course>358.19</course>
  <speed>0.0282842712474619</speed>
  <fix>3d</fix>
</trkpt>
<trkpt lat="33.8103512" lon="-118.3938682">
  <ele>-2.88</ele>
  <time>2026-09-02T22:08:18Z</time>
  <course>8.94</course>
  <speed>0.04</speed>
  <fix>3d</fix>
</trkpt>
<trkpt lat="33.8103511" lon="-118.3938681">
  <ele>-2.911</ele>
  <time>2026-09-02T22:08:18Z</time>
  <course>358.18</course>
  <speed>0.0282842712474619</speed>
  <fix>3d</fix>
</trkpt>
<trkpt lat="33.8103513" lon="-118.3938682">
  <ele>-2.86</ele>
  <time>2026-09-02T22:08:18Z</time>
  <course>9.25</course>
  <speed>0.04</speed>
  <fix>3d</fix>
</trkpt>
<trkpt lat="33.8103512" lon="-118.3938681">
  <ele>-2.9</ele>
  <time>2026-09-02T22:08:18Z</time>
  <course>358.18</course>
  <speed>0.0282842712474619</speed>
  <fix>3d</fix>
</trkpt>
<trkpt lat="33.8103513" lon="-118.3938682">
  <ele>-2.86</ele>
  <time>2026-09-02T22:08:18Z</time>
  <course>9.25</course>
  <speed>0.04</speed>
  <fix>3d</fix>
</trkpt>
<trkpt lat="33.8103512" lon="-118.3938681">
  <ele>-2.891</ele>
  <time>2026-09-02T22:08:18Z</time>
  <course>358.17</course>
  <speed>0.0282842712474619</speed>
  <fix>3d</fix>
</trkpt>
<trkpt lat="33.8103513" lon="-118.3938682">
  <ele>-2.84</ele>
  <time>2026-09-02T22:08:18Z</time>
  <course>9.57</course>
  <speed>0.04</speed>
  <fix>3d</fix>
</trkpt>
<trkpt lat="33.8103512" lon="-118.3938681">
  <ele>-2.882</ele>
  <time>2026-09-02T22:08:18Z</time>
  <course>358.17</course>
  <speed>0.0282842712474619</speed>
  <fix>3d</fix>
</trkpt>
<trkpt lat="33.8103513" lon="-118.3938682">
  <ele>-2.84</ele>
  <time>2026-09-02T22:08:18Z</time>
  <course>9.57</course>
  <speed>0.04</speed>
  <fix>3d</fix>
</trkpt>
<trkpt lat="33.8103513" lon="-118.3938681">
  <ele>-2.874</ele>
  <time>2026-09-02T22:08:19Z</time>
  <course>358.16</course>
  <speed>0.0282842712474619</speed>
  <fix>3d</fix>
</trkpt>
<trkpt lat="33.8103514" lon="-118.3938682">
  <ele>-2.82</ele>
  <time>2026-09-02T22:08:19Z</time>
  <course>9.89</course>
  <speed>0.04</speed>
  <fix>3d</fix>
</trkpt>
<trkpt lat="33.8103513" lon="-118.3938681">
  <ele>-2.867</ele>
  <time>2026-09-02T22:08:19Z</time>
  <course>358.15</course>
  <speed>0.0282842712474619</speed>
  <fix>3d</fix>
</trkpt>
<trkpt lat="33.8103514" lon="-118.3938682">
  <ele>-2.82</ele>
  <time>2026-09-02T22:08:19Z</time>
  <course>9.89</course>
  <speed>0.04</speed>
  <fix>3d</fix>
</trkpt>
<trkpt lat="33.8103513" lon="-118.393868">
  <ele>-2.859</ele>
  <time>2026-09-02T22:08:19Z</time>
  <course>358.15</course>
  <speed>0.0282842712474619</speed>
  <fix>3d</fix>
</trkpt>
<trkpt lat="33.8103515" lon="-118.3938682">
  <ele>-2.81</ele>
  <time>2026-09-02T22:08:19Z</time>
  <course>10.22</course>
  <speed>0.03</speed>
  <fix>3d</fix>
</trkpt>
<trkpt lat="33.8103514" lon="-118.393868">
  <ele>-2.853</ele>
  <time>2026-09-02T22:08:19Z</time>
  <course>358.14</course>
  <speed>0.022360679774997897</speed>
  <fix>3d</fix>
</trkpt>
<trkpt lat="33.8103515" lon="-118.3938682">
  <ele>-2.81</ele>
  <time>2026-09-02T22:08:19Z</time>
  <course>10.22</course>
  <speed>0.03</speed>
  <fix>3d</fix>
</trkpt>
<trkpt lat="33.8103514" lon="-118.393868">
  <ele>-2.846</ele>
  <time>2026-09-02T22:08:19Z</time>
  <course>358.14</course>
  <speed>0.022360679774997897</speed>
  <fix>3d</fix>
</trkpt>
<trkpt lat="33.8103516" lon="-118.3938681">
  <ele>-2.79</ele>
  <time>2026-09-02T22:08:19Z</time>
  <course>10.54</course>
  <speed>0.03</speed>
  <fix>3d</fix>
</trkpt>
<trkpt lat="33.8103514" lon="-118.393868">
  <ele>-2.84</ele>
  <time>2026-09-02T22:08:19Z</time>
  <course>358.13</course>
  <speed>0.022360679774997897</speed>
  <fix>3d</fix>
</trkpt>
<trkpt lat="33.8103516" lon="-118.3938681">
  <ele>-2.79</ele>
  <time>2026-09-02T22:08:19Z</time>
  <course>10.54</course>
  <speed>0.03</speed>
  <fix>3d</fix>
</trkpt>
<trkpt lat="33.8103515" lon="-118.393868">
  <ele>-2.84</ele>
  <time>2026-09-02T22:08:19Z</time>
  <course>358.12</course>
  <speed>0.022360679774997897</speed>
  <fix>3d</fix>
</trkpt>
<trkpt lat="33.8103516" lon="-118.3938681">
  <ele>-2.78</ele>
  <time>2026-09-02T22:08:19Z</time>
  <course>10.83</course>
  <speed>0.03</speed>
  <fix>3d</fix>
</trkpt>
<trkpt lat="33.8103515" lon="-118.393868">
  <ele>-2.854</ele>
  <time>2026-09-02T22:08:19Z</time>
  <course>358.12</course>
  <speed>0.022360679774997897</speed>
  <fix>3d</fix>
</trkpt>
<trkpt lat="33.8103516" lon="-118.3938681">
  <ele>-2.78</ele>
  <time>2026-09-02T22:08:19Z</time>
  <course>10.83</course>
  <speed>0.03</speed>
  <fix>3d</fix>
</trkpt>
<trkpt lat="33.8103515" lon="-118.393868">
  <ele>-2.88</ele>
  <time>2026-09-02T22:08:19Z</time>
  <course>358.11</course>
  <speed>0.022360679774997897</speed>
  <fix>3d</fix>
</trkpt>
<trkpt lat="33.8103517" lon="-118.3938681">
  <ele>-2.78</ele>
  <time>2026-09-02T22:08:19Z</time>
  <course>11.01</course>
  <speed>0.03</speed>
  <fix>3d</fix>
</trkpt>
<trkpt lat="33.8103516" lon="-118.393868">
  <ele>-2.915</ele>
  <time>2026-09-02T22:08:19Z</time>
  <course>358.11</course>
  <speed>0.022360679774997897</speed>
  <fix>3d</fix>
</trkpt>
<trkpt lat="33.8103517" lon="-118.3938681">
  <ele>-2.78</ele>
  <time>2026-09-02T22:08:19Z</time>
  <course>11.01</course>
  <speed>0.03</speed>
  <fix>3d</fix>
</trkpt>
<trkpt lat="33.8103516" lon="-118.393868">
  <ele>-2.955</ele>
  <time>2026-09-02T22:08:19Z</time>
  <course>358.1</course>
  <speed>0.022360679774997897</speed>
  <fix>3d</fix>
</trkpt>
<trkpt lat="33.8103518" lon="-118.3938681">
  <ele>-2.82</ele>
  <time>2026-09-02T22:08:19Z</time>
  <course>11.38</course>
  <speed>0.03</speed>
  <fix>3d</fix>
</trkpt>
<trkpt lat="33.8103516" lon="-118.393868">
  <ele>-3.0</ele>
  <time>2026-09-02T22:08:19Z</time>
  <course>358.1</course>
  <speed>0.022360679774997897</speed>
  <fix>3d</fix>
</trkpt>
<trkpt lat="33.8103518" lon="-118.3938681">
  <ele>-2.82</ele>
  <time>2026-09-02T22:08:19Z</time>
  <course>11.38</course>
  <speed>0.03</speed>
  <fix>3d</fix>
</trkpt>
<trkpt lat="33.8103517" lon="-118.3938679">
  <ele>-3.047</ele>
  <time>2026-09-02T22:08:19Z</time>
  <course>358.09</course>
  <speed>0.022360679774997897</speed>
  <fix>3d</fix>
</trkpt>
<trkpt lat="33.8103518" lon="-118.3938681">
  <ele>-2.88</ele>
  <time>2026-09-02T22:08:19Z</time>
  <course>11.95</course>
  <speed>0.03</speed>
  <fix>3d</fix>
</trkpt>
<trkpt lat="33.8103517" lon="-118.3938679">
  <ele>-3.095</ele>
  <time>2026-09-02T22:08:19Z</time>
  <course>358.08</course>
  <speed>0.022360679774997897</speed>
  <fix>3d</fix>
</trkpt>
<trkpt lat="33.8103518" lon="-118.3938681">
  <ele>-2.88</ele>
  <time>2026-09-02T22:08:19Z</time>
  <course>11.95</course>
  <speed>0.03</speed>
  <fix>3d</fix>
</trkpt>
<trkpt lat="33.8103517" lon="-118.3938679">
  <ele>-3.145</ele>
  <time>2026-09-02T22:08:19Z</time>
  <course>358.08</course>
  <speed>0.022360679774997897</speed>
  <fix>3d</fix>
</trkpt>
<trkpt lat="33.8103519" lon="-118.3938681">
  <ele>-2.97</ele>
  <time>2026-09-02T22:08:19Z</time>
  <course>12.39</course>
  <speed>0.03</speed>
  <fix>3d</fix>
</trkpt>
<trkpt lat="33.8103518" lon="-118.3938679">
  <ele>-3.195</ele>
  <time>2026-09-02T22:08:19Z</time>
  <course>358.07</course>
  <speed>0.022360679774997897</speed>
  <fix>3d</fix>
</trkpt>
<trkpt lat="33.8103519" lon="-118.3938681">
  <ele>-2.97</ele>
  <time>2026-09-02T22:08:19Z</time>
  <course>12.39</course>
  <speed>0.03</speed>
  <fix>3d</fix>
</trkpt>
<trkpt lat="33.8103518" lon="-118.3938679">
  <ele>-3.245</ele>
  <time>2026-09-02T22:08:19Z</time>
  <course>358.07</course>
  <speed>0.022360679774997897</speed>
  <fix>3d</fix>
</trkpt>
<trkpt lat="33.8103519" lon="-118.3938681">
  <ele>-3.06</ele>
  <time>2026-09-02T22:08:19Z</time>
  <course>12.74</course>
  <speed>0.03</speed>
  <fix>3d</fix>
</trkpt>
<trkpt lat="33.8103518" lon="-118.3938679">
  <ele>-3.296</ele>
  <time>2026-09-02T22:08:19Z</time>
  <course>358.06</course>
  <speed>0.022360679774997897</speed>
  <fix>3d</fix>
</trkpt>
<trkpt lat="33.8103519" lon="-118.3938681">
  <ele>-3.06</ele>
  <time>2026-09-02T22:08:19Z</time>
  <course>12.74</course>
  <speed>0.03</speed>
  <fix>3d</fix>
</trkpt>
<trkpt lat="33.8103518" lon="-118.3938679">
  <ele>-3.346</ele>
  <time>2026-09-02T22:08:19Z</time>
  <course>358.06</course>
  <speed>0.022360679774997897</speed>
  <fix>3d</fix>
</trkpt>
<trkpt lat="33.810352" lon="-118.393868">
  <ele>-3.15</ele>
  <time>2026-09-02T22:08:19Z</time>
  <course>13.05</course>
  <speed>0.03</speed>
  <fix>3d</fix>
</trkpt>
<trkpt lat="33.8103519" lon="-118.3938679">
  <ele>-3.395</ele>
  <time>2026-09-02T22:08:19Z</time>
  <course>358.05</course>
  <speed>0.022360679774997897</speed>
  <fix>3d</fix>
</trkpt>
<trkpt lat="33.810352" lon="-118.393868">
  <ele>-3.15</ele>
  <time>2026-09-02T22:08:19Z</time>
  <course>13.05</course>
  <speed>0.03</speed>
  <fix>3d</fix>
</trkpt>
<trkpt lat="33.8103519" lon="-118.3938679">
  <ele>-3.445</ele>
  <time>2026-09-02T22:08:19Z</time>
  <course>358.05</course>
  <speed>0.022360679774997897</speed>
  <fix>3d</fix>
</trkpt>
<trkpt lat="33.810352" lon="-118.393868">
  <ele>-3.24</ele>
  <time>2026-09-02T22:08:19Z</time>
  <course>13.35</course>
  <speed>0.03</speed>
  <fix>3d</fix>
</trkpt>
<trkpt lat="33.8103519" lon="-118.3938679">
  <ele>-3.494</ele>
  <time>2026-09-02T22:08:19Z</time>
  <course>358.04</course>
  <speed>0.02</speed>
  <fix>3d</fix>
</trkpt>
<trkpt lat="33.810352" lon="-118.393868">
  <ele>-3.24</ele>
  <time>2026-09-02T22:08:19Z</time>
  <course>13.35</course>
  <speed>0.03</speed>
  <fix>3d</fix>
</trkpt>
<trkpt lat="33.8103519" lon="-118.3938679">
  <ele>-3.542</ele>
  <time>2026-09-02T22:08:19Z</time>
  <course>358.03</course>
  <speed>0.02</speed>
  <fix>3d</fix>
</trkpt>
<trkpt lat="33.810352" lon="-118.393868">
  <ele>-3.33</ele>
  <time>2026-09-02T22:08:19Z</time>
  <course>13.64</course>
  <speed>0.02</speed>
  <fix>3d</fix>
</trkpt>
<trkpt lat="33.8103519" lon="-118.3938679">
  <ele>-3.591</ele>
  <time>2026-09-02T22:08:19Z</time>
  <course>357.69</course>
  <speed>0.02</speed>
  <fix>3d</fix>
</trkpt>
<trkpt lat="33.810352" lon="-118.393868">
  <ele>-3.33</ele>
  <time>2026-09-02T22:08:19Z</time>
  <course>13.64</course>
  <speed>0.02</speed>
  <fix>3d</fix>
</trkpt>
<trkpt lat="33.810352" lon="-118.3938678">
  <ele>-3.639</ele>
  <time>2026-09-02T22:08:19Z</time>
  <course>357.69</course>
  <speed>0.02</speed>
  <fix>3d</fix>
</trkpt>
<trkpt lat="33.8103521" lon="-118.393868">
  <ele>-3.43</ele>
  <time>2026-09-02T22:08:19Z</time>
  <course>13.92</course>
  <speed>0.02</speed>
  <fix>3d</fix>
</trkpt>
<trkpt lat="33.810352" lon="-118.3938678">
  <ele>-3.687</ele>
  <time>2026-09-02T22:08:19Z</time>
  <course>357.68</course>
  <speed>0.02</speed>
  <fix>3d</fix>
</trkpt>
<trkpt lat="33.8103521" lon="-118.393868">
  <ele>-3.43</ele>
  <time>2026-09-02T22:08:19Z</time>
  <course>13.92</course>
  <speed>0.02</speed>
  <fix>3d</fix>
</trkpt>
<trkpt lat="33.810352" lon="-118.3938678">
  <ele>-3.735</ele>
  <time>2026-09-02T22:08:19Z</time>
  <course>357.68</course>
  <speed>0.02</speed>
  <fix>3d</fix>
</trkpt>
<trkpt lat="33.8103521" lon="-118.393868">
  <ele>-3.52</ele>
  <time>2026-09-02T22:08:19Z</time>
  <course>14.2</course>
  <speed>0.02</speed>
  <fix>3d</fix>
</trkpt>
<trkpt lat="33.810352" lon="-118.3938678">
  <ele>-3.782</ele>
  <time>2026-09-02T22:08:19Z</time>
  <course>357.68</course>
  <speed>0.02</speed>
  <fix>3d</fix>
</trkpt>
<trkpt lat="33.8103521" lon="-118.393868">
  <ele>-3.52</ele>
  <time>2026-09-02T22:08:19Z</time>
  <course>14.2</course>
  <speed>0.02</speed>
  <fix>3d</fix>
</trkpt>
<trkpt lat="33.810352" lon="-118.3938678">
  <ele>-3.829</ele>
  <time>2026-09-02T22:08:19Z</time>
  <course>357.67</course>
  <speed>0.02</speed>
  <fix>3d</fix>
</trkpt>
<trkpt lat="33.8103522" lon="-118.393868">
  <ele>-3.61</ele>
  <time>2026-09-02T22:08:19Z</time>
  <course>14.47</course>
  <speed>0.02</speed>
  <fix>3d</fix>
</trkpt>
<trkpt lat="33.8103521" lon="-118.3938678">
  <ele>-3.876</ele>
  <time>2026-09-02T22:08:19Z</time>
  <course>357.67</course>
  <speed>0.02</speed>
  <fix>3d</fix>
</trkpt>
<trkpt lat="33.8103522" lon="-118.393868">
  <ele>-3.61</ele>
  <time>2026-09-02T22:08:19Z</time>
  <course>14.47</course>
  <speed>0.02</speed>
  <fix>3d</fix>
</trkpt>
<trkpt lat="33.8103521" lon="-118.3938678">
  <ele>-3.923</ele>
  <time>2026-09-02T22:08:19Z</time>
  <course>357.67</course>
  <speed>0.02</speed>
  <fix>3d</fix>
</trkpt>
<trkpt lat="33.8103523" lon="-118.3938679">
  <ele>-3.7</ele>
  <time>2026-09-02T22:08:19Z</time>
  <course>14.73</course>
  <speed>0.02</speed>
  <fix>3d</fix>
</trkpt>
<trkpt lat="33.8103521" lon="-118.3938678">
  <ele>-3.97</ele>
  <time>2026-09-02T22:08:19Z</time>
  <course>357.66</course>
  <speed>0.02</speed>
  <fix>3d</fix>
</trkpt>
<trkpt lat="33.8103523" lon="-118.3938679">
  <ele>-3.7</ele>
  <time>2026-09-02T22:08:19Z</time>
  <course>14.73</course>
  <speed>0.02</speed>
  <fix>3d</fix>
</trkpt>
<trkpt lat="33.8103521" lon="-118.3938678">
  <ele>-4.016</ele>
  <time>2026-09-02T22:08:19Z</time>
  <course>357.66</course>
  <speed>0.02</speed>
  <fix>3d</fix>
</trkpt>
<trkpt lat="33.8103523" lon="-118.3938679">
  <ele>-3.79</ele>
  <time>2026-09-02T22:08:19Z</time>
  <course>14.99</course>
  <speed>0.02</speed>
  <fix>3d</fix>
</trkpt>
<trkpt lat="33.8103521" lon="-118.3938678">
  <ele>-4.062</ele>
  <time>2026-09-02T22:08:19Z</time>
  <course>357.65</course>
  <speed>0.02</speed>
  <fix>3d</fix>
</trkpt>
<trkpt lat="33.8103523" lon="-118.3938679">
  <ele>-3.79</ele>
  <time>2026-09-02T22:08:19Z</time>
  <course>14.99</course>
  <speed>0.02</speed>
  <fix>3d</fix>
</trkpt>
<trkpt lat="33.8103522" lon="-118.3938677">
  <ele>-4.108</ele>
  <time>2026-09-02T22:08:19Z</time>
  <course>357.65</course>
  <speed>0.03</speed>
  <fix>3d</fix>
</trkpt>
<trkpt lat="33.8103524" lon="-118.3938679">
  <ele>-3.88</ele>
  <time>2026-09-02T22:08:19Z</time>
  <course>15.25</course>
  <speed>0.02</speed>
  <fix>3d</fix>
</trkpt>
<trkpt lat="33.8103522" lon="-118.3938677">
  <ele>-4.154</ele>
  <time>2026-09-02T22:08:19Z</time>
  <course>357.65</course>
  <speed>0.03</speed>
  <fix>3d</fix>
</trkpt>
<trkpt lat="33.8103524" lon="-118.3938679">
  <ele>-3.88</ele>
  <time>2026-09-02T22:08:19Z</time>
  <course>15.25</course>
  <speed>0.02</speed>
  <fix>3d</fix>
</trkpt>
<trkpt lat="33.8103522" lon="-118.3938677">
  <ele>-4.2</ele>
  <time>2026-09-02T22:08:19Z</time>
  <course>357.64</course>
  <speed>0.03</speed>
  <fix>3d</fix>
</trkpt>
<trkpt lat="33.8103524" lon="-118.3938679">
  <ele>-3.97</ele>
  <time>2026-09-02T22:08:19Z</time>
  <course>15.51</course>
  <speed>0.02</speed>
  <fix>3d</fix>
</trkpt>
<trkpt lat="33.8103522" lon="-118.3938677">
  <ele>-4.245</ele>
  <time>2026-09-02T22:08:19Z</time>
  <course>357.64</course>
  <speed>0.03</speed>
  <fix>3d</fix>
</trkpt>
<trkpt lat="33.8103524" lon="-118.3938679">
  <ele>-3.97</ele>
  <time>2026-09-02T22:08:19Z</time>
  <course>15.51</course>
  <speed>0.02</speed>
  <fix>3d</fix>
</trkpt>
<trkpt lat="33.8103522" lon="-118.3938677">
  <ele>-4.291</ele>
  <time>2026-09-02T22:08:19Z</time>
  <course>357.64</course>
  <speed>0.03</speed>
  <fix>3d</fix>
</trkpt>
<trkpt lat="33.8103525" lon="-118.3938679">
  <ele>-4.06</ele>
  <time>2026-09-02T22:08:19Z</time>
  <course>15.76</course>
  <speed>0.02</speed>
  <fix>3d</fix>
</trkpt>
<trkpt lat="33.8103523" lon="-118.3938677">
  <ele>-4.337</ele>
  <time>2026-09-02T22:08:19Z</time>
  <course>357.64</course>
  <speed>0.03</speed>
  <fix>3d</fix>
</trkpt>
<trkpt lat="33.8103525" lon="-118.3938679">
  <ele>-4.06</ele>
  <time>2026-09-02T22:08:19Z</time>
  <course>15.76</course>
  <speed>0.02</speed>
  <fix>3d</fix>
</trkpt>
<trkpt lat="33.8103523" lon="-118.3938677">
  <ele>-4.383</ele>
  <time>2026-09-02T22:08:19Z</time>
  <course>357.63</course>
  <speed>0.03</speed>
  <fix>3d</fix>
</trkpt>
<trkpt lat="33.8103525" lon="-118.3938679">
  <ele>-4.16</ele>
  <time>2026-09-02T22:08:19Z</time>
  <course>16.0</course>
  <speed>0.02</speed>
  <fix>3d</fix>
</trkpt>
<trkpt lat="33.8103523" lon="-118.3938677">
  <ele>-4.429</ele>
  <time>2026-09-02T22:08:19Z</time>
  <course>357.63</course>
  <speed>0.03</speed>
  <fix>3d</fix>
</trkpt>
<trkpt lat="33.8103525" lon="-118.3938679">
  <ele>-4.16</ele>
  <time>2026-09-02T22:08:19Z</time>
  <course>16.0</course>
  <speed>0.02</speed>
  <fix>3d</fix>
</trkpt>
<trkpt lat="33.8103523" lon="-118.3938677">
  <ele>-4.475</ele>
  <time>2026-09-02T22:08:19Z</time>
  <course>357.63</course>
  <speed>0.03</speed>
  <fix>3d</fix>
</trkpt>
<trkpt lat="33.8103526" lon="-118.3938679">
  <ele>-4.25</ele>
  <time>2026-09-02T22:08:19Z</time>
  <course>16.25</course>
  <speed>0.02</speed>
  <fix>3d</fix>
</trkpt>
<trkpt lat="33.8103523" lon="-118.3938676">
  <ele>-4.521</ele>
  <time>2026-09-02T22:08:19Z</time>
  <course>357.62</course>
  <speed>0.03</speed>
  <fix>3d</fix>
</trkpt>
<trkpt lat="33.8103526" lon="-118.3938679">
  <ele>-4.25</ele>
  <time>2026-09-02T22:08:19Z</time>
  <course>16.25</course>
  <speed>0.02</speed>
  <fix>3d</fix>
</trkpt>
<trkpt lat="33.8103523" lon="-118.3938676">
  <ele>-4.566</ele>
  <time>2026-09-02T22:08:19Z</time>
  <course>357.64</course>
  <speed>0.03</speed>
  <fix>3d</fix>
</trkpt>
<trkpt lat="33.8103526" lon="-118.3938678">
  <ele>-4.34</ele>
  <time>2026-09-02T22:08:19Z</time>
  <course>16.49</course>
  <speed>0.02</speed>
  <fix>3d</fix>
</trkpt>
<trkpt lat="33.8103524" lon="-118.3938676">
  <ele>-4.612</ele>
  <time>2026-09-02T22:08:19Z</time>
  <course>357.66</course>
  <speed>0.03</speed>
  <fix>3d</fix>
</trkpt>
<trkpt lat="33.8103526" lon="-118.3938678">
  <ele>-4.34</ele>
  <time>2026-09-02T22:08:19Z</time>
  <course>16.49</course>
  <speed>0.02</speed>
  <fix>3d</fix>
</trkpt>
<trkpt lat="33.8103524" lon="-118.3938676">
  <ele>-4.657</ele>
  <time>2026-09-02T22:08:19Z</time>
  <course>357.68</course>
  <speed>0.03</speed>
  <fix>3d</fix>
</trkpt>
<trkpt lat="33.8103526" lon="-118.3938678">
  <ele>-4.43</ele>
  <time>2026-09-02T22:08:19Z</time>
  <course>16.73</course>
  <speed>0.02</speed>
  <fix>3d</fix>
</trkpt>
<trkpt lat="33.8103524" lon="-118.3938676">
  <ele>-4.703</ele>
  <time>2026-09-02T22:08:19Z</time>
  <course>357.68</course>
  <speed>0.03</speed>
  <fix>3d</fix>
</trkpt>
<trkpt lat="33.8103526" lon="-118.3938678">
  <ele>-4.43</ele>
  <time>2026-09-02T22:08:19Z</time>
  <course>16.73</course>
  <speed>0.02</speed>
  <fix>3d</fix>
</trkpt>
<trkpt lat="33.8103524" lon="-118.3938676">
  <ele>-4.748</ele>
  <time>2026-09-02T22:08:19Z</time>
  <course>357.68</course>
  <speed>0.03</speed>
  <fix>3d</fix>
</trkpt>
<trkpt lat="33.8103526" lon="-118.3938678">
  <ele>-4.52</ele>
  <time>2026-09-02T22:08:19Z</time>
  <course>16.96</course>
  <speed>0.02</speed>
  <fix>3d</fix>
</trkpt>
<trkpt lat="33.8103524" lon="-118.3938676">
  <ele>-4.794</ele>
  <time>2026-09-02T22:08:19Z</time>
  <course>357.68</course>
  <speed>0.03</speed>
  <fix>3d</fix>
</trkpt>
<trkpt lat="33.8103526" lon="-118.3938678">
  <ele>-4.52</ele>
  <time>2026-09-02T22:08:19Z</time>
  <course>16.96</course>
  <speed>0.02</speed>
  <fix>3d</fix>
</trkpt>
<trkpt lat="33.8103524" lon="-118.3938675">
  <ele>-4.839</ele>
  <time>2026-09-02T22:08:19Z</time>
  <course>357.68</course>
  <speed>0.03</speed>
  <fix>3d</fix>
</trkpt>
<trkpt lat="33.8103527" lon="-118.3938678">
  <ele>-4.61</ele>
  <time>2026-09-02T22:08:19Z</time>
  <course>17.19</course>
  <speed>0.02</speed>
  <fix>3d</fix>
</trkpt>
<trkpt lat="33.8103524" lon="-118.3938675">
  <ele>-4.885</ele>
  <time>2026-09-02T22:08:19Z</time>
  <course>357.67</course>
  <speed>0.0316227766016838</speed>
  <fix>3d</fix>
</trkpt>
<trkpt lat="33.8103527" lon="-118.3938678">
  <ele>-4.61</ele>
  <time>2026-09-02T22:08:19Z</time>
  <course>17.19</course>
  <speed>0.02</speed>
  <fix>3d</fix>
</trkpt>
<trkpt lat="33.8103525" lon="-118.3938675">
  <ele>-4.931</ele>
  <time>2026-09-02T22:08:19Z</time>
  <course>357.67</course>
  <speed>0.0316227766016838</speed>
  <fix>3d</fix>
</trkpt>
<trkpt lat="33.8103527" lon="-118.3938678">
  <ele>-4.7</ele>
  <time>2026-09-02T22:08:19Z</time>
  <course>17.43</course>
  <speed>0.02</speed>
  <fix>3d</fix>
</trkpt>
<trkpt lat="33.8103525" lon="-118.3938675">
  <ele>-4.977</ele>
  <time>2026-09-02T22:08:19Z</time>
  <course>357.66</course>
  <speed>0.0316227766016838</speed>
  <fix>3d</fix>
</trkpt>
<trkpt lat="33.8103527" lon="-118.3938678">
  <ele>-4.7</ele>
  <time>2026-09-02T22:08:19Z</time>
  <course>17.43</course>
  <speed>0.02</speed>
  <fix>3d</fix>
</trkpt>
<trkpt lat="33.8103525" lon="-118.3938675">
  <ele>-5.023</ele>
  <time>2026-09-02T22:08:19Z</time>
  <course>357.66</course>
  <speed>0.0316227766016838</speed>
  <fix>3d</fix>
</trkpt>
<trkpt lat="33.8103527" lon="-118.3938678">
  <ele>-4.8</ele>
  <time>2026-09-02T22:08:19Z</time>
  <course>17.65</course>
  <speed>0.02</speed>
  <fix>3d</fix>
</trkpt>
<trkpt lat="33.8103525" lon="-118.3938675">
  <ele>-5.07</ele>
  <time>2026-09-02T22:08:19Z</time>
  <course>357.65</course>
  <speed>0.0316227766016838</speed>
  <fix>3d</fix>
</trkpt>
<trkpt lat="33.8103527" lon="-118.3938678">
  <ele>-4.8</ele>
  <time>2026-09-02T22:08:19Z</time>
  <course>17.65</course>
  <speed>0.02</speed>
  <fix>3d</fix>
</trkpt>
<trkpt lat="33.8103525" lon="-118.3938675">
  <ele>-5.116</ele>
  <time>2026-09-02T22:08:19Z</time>
  <course>357.65</course>
  <speed>0.0316227766016838</speed>
  <fix>3d</fix>
</trkpt>
<trkpt lat="33.8103528" lon="-118.3938678">
  <ele>-4.89</ele>
  <time>2026-09-02T22:08:19Z</time>
  <course>17.88</course>
  <speed>0.02</speed>
  <fix>3d</fix>
</trkpt>
<trkpt lat="33.8103525" lon="-118.3938675">
  <ele>-5.163</ele>
  <time>2026-09-02T22:08:19Z</time>
  <course>357.64</course>
  <speed>0.0316227766016838</speed>
  <fix>3d</fix>
</trkpt>
<trkpt lat="33.8103528" lon="-118.3938678">
  <ele>-4.89</ele>
  <time>2026-09-02T22:08:19Z</time>
  <course>17.88</course>
  <speed>0.02</speed>
  <fix>3d</fix>
</trkpt>
<trkpt lat="33.8103525" lon="-118.3938675">
  <ele>-5.209</ele>
  <time>2026-09-02T22:08:19Z</time>
  <course>357.63</course>
  <speed>0.0316227766016838</speed>
  <fix>3d</fix>
</trkpt>
<trkpt lat="33.8103529" lon="-118.3938677">
  <ele>-4.98</ele>
  <time>2026-09-02T22:08:19Z</time>
  <course>18.1</course>
  <speed>0.02</speed>
  <fix>3d</fix>
</trkpt>
<trkpt lat="33.8103525" lon="-118.3938674">
  <ele>-5.256</ele>
  <time>2026-09-02T22:08:19Z</time>
  <course>357.62</course>
  <speed>0.0316227766016838</speed>
  <fix>3d</fix>
</trkpt>
<trkpt lat="33.8103529" lon="-118.3938677">
  <ele>-4.98</ele>
  <time>2026-09-02T22:08:19Z</time>
  <course>18.1</course>
  <speed>0.02</speed>
  <fix>3d</fix>
</trkpt>
<trkpt lat="33.8103526" lon="-118.3938674">
  <ele>-5.303</ele>
  <time>2026-09-02T22:08:19Z</time>
  <course>357.62</course>
  <speed>0.0316227766016838</speed>
  <fix>3d</fix>
</trkpt>
<trkpt lat="33.8103529" lon="-118.3938677">
  <ele>-5.07</ele>
  <time>2026-09-02T22:08:19Z</time>
  <course>18.32</course>
  <speed>0.02</speed>
  <fix>3d</fix>
</trkpt>
<trkpt lat="33.8103526" lon="-118.3938674">
  <ele>-5.35</ele>
  <time>2026-09-02T22:08:19Z</time>
  <course>357.61</course>
  <speed>0.0316227766016838</speed>
  <fix>3d</fix>
</trkpt>
<trkpt lat="33.8103529" lon="-118.3938677">
  <ele>-5.07</ele>
  <time>2026-09-02T22:08:19Z</time>
  <course>18.32</course>
  <speed>0.02</speed>
  <fix>3d</fix>
</trkpt>
<trkpt lat="33.8103526" lon="-118.3938674">
  <ele>-5.397</ele>
  <time>2026-09-02T22:08:19Z</time>
  <course>357.6</course>
  <speed>0.0316227766016838</speed>
  <fix>3d</fix>
</trkpt>
<trkpt lat="33.8103529" lon="-118.3938677">
  <ele>-5.16</ele>
  <time>2026-09-02T22:08:19Z</time>
  <course>18.54</course>
  <speed>0.02</speed>
  <fix>3d</fix>
</trkpt>
<trkpt lat="33.8103526" lon="-118.3938674">
  <ele>-5.444</ele>
  <time>2026-09-02T22:08:19Z</time>
  <course>357.59</course>
  <speed>0.0316227766016838</speed>
  <fix>3d</fix>
</trkpt>
<trkpt lat="33.8103529" lon="-118.3938677">
  <ele>-5.16</ele>
  <time>2026-09-02T22:08:19Z</time>
  <course>18.54</course>
  <speed>0.02</speed>
  <fix>3d</fix>
</trkpt>
<trkpt lat="33.8103526" lon="-118.3938674">
  <ele>-5.491</ele>
  <time>2026-09-02T22:08:19Z</time>
  <course>357.59</course>
  <speed>0.0316227766016838</speed>
  <fix>3d</fix>
</trkpt>
<trkpt lat="33.810353" lon="-118.3938677">
  <ele>-5.25</ele>
  <time>2026-09-02T22:08:19Z</time>
  <course>18.75</course>
  <speed>0.01</speed>
  <fix>3d</fix>
</trkpt>
<trkpt lat="33.8103527" lon="-118.3938674">
  <ele>-5.538</ele>
  <time>2026-09-02T22:08:19Z</time>
  <course>357.58</course>
  <speed>0.0316227766016838</speed>
  <fix>3d</fix>
</trkpt>
<trkpt lat="33.810353" lon="-118.3938677">
  <ele>-5.25</ele>
  <time>2026-09-02T22:08:19Z</time>
  <course>18.75</course>
  <speed>0.01</speed>
  <fix>3d</fix>
</trkpt>
<trkpt lat="33.8103527" lon="-118.3938674">
  <ele>-5.585</ele>
  <time>2026-09-02T22:08:19Z</time>
  <course>357.57</course>
  <speed>0.0316227766016838</speed>
  <fix>3d</fix>
</trkpt>
<trkpt lat="33.810353" lon="-118.3938677">
  <ele>-5.34</ele>
  <time>2026-09-02T22:08:19Z</time>
  <course>18.96</course>
  <speed>0.01</speed>
  <fix>3d</fix>
</trkpt>
<trkpt lat="33.8103527" lon="-118.3938674">
  <ele>-5.632</ele>
  <time>2026-09-02T22:08:19Z</time>
  <course>357.56</course>
  <speed>0.03</speed>
  <fix>3d</fix>
</trkpt>
<trkpt lat="33.810353" lon="-118.3938677">
  <ele>-5.34</ele>
  <time>2026-09-02T22:08:19Z</time>
  <course>18.96</course>
  <speed>0.01</speed>
  <fix>3d</fix>
</trkpt>
<trkpt lat="33.8103527" lon="-118.3938674">
  <ele>-5.679</ele>
  <time>2026-09-02T22:08:19Z</time>
  <course>357.55</course>
  <speed>0.03</speed>
  <fix>3d</fix>
</trkpt>
<trkpt lat="33.810353" lon="-118.3938677">
  <ele>-5.43</ele>
  <time>2026-09-02T22:08:19Z</time>
  <course>19.17</course>
  <speed>0.01</speed>
  <fix>3d</fix>
</trkpt>
<trkpt lat="33.8103527" lon="-118.3938674">
  <ele>-5.725</ele>
  <time>2026-09-02T22:08:19Z</time>
  <course>357.54</course>
  <speed>0.03</speed>
  <fix>3d</fix>
</trkpt>
<trkpt lat="33.810353" lon="-118.3938677">
  <ele>-5.43</ele>
  <time>2026-09-02T22:08:19Z</time>
  <course>19.17</course>
  <speed>0.01</speed>
  <fix>3d</fix>
</trkpt>
<trkpt lat="33.8103528" lon="-118.3938674">
  <ele>-5.772</ele>
  <time>2026-09-02T22:08:19Z</time>
  <course>357.54</course>
  <speed>0.03</speed>
  <fix>3d</fix>
</trkpt>
<trkpt lat="33.8103531" lon="-118.3938677">
  <ele>-5.53</ele>
  <time>2026-09-02T22:08:19Z</time>
  <course>19.37</course>
  <speed>0.01</speed>
  <fix>3d</fix>
</trkpt>
<trkpt lat="33.8103528" lon="-118.3938674">
  <ele>-5.819</ele>
  <time>2026-09-02T22:08:19Z</time>
  <course>357.53</course>
  <speed>0.03</speed>
  <fix>3d</fix>
</trkpt>
<trkpt lat="33.8103531" lon="-118.3938677">
  <ele>-5.53</ele>
  <time>2026-09-02T22:08:19Z</time>
  <course>19.37</course>
  <speed>0.01</speed>
  <fix>3d</fix>
</trkpt>
<trkpt lat="33.8103528" lon="-118.3938674">
  <ele>-5.866</ele>
  <time>2026-09-02T22:08:19Z</time>
  <course>357.52</course>
  <speed>0.03</speed>
  <fix>3d</fix>
</trkpt>
<trkpt lat="33.8103531" lon="-118.3938677">
  <ele>-5.62</ele>
  <time>2026-09-02T22:08:19Z</time>
  <course>19.58</course>
  <speed>0.01</speed>
  <fix>3d</fix>
</trkpt>
<trkpt lat="33.8103528" lon="-118.3938674">
  <ele>-5.913</ele>
  <time>2026-09-02T22:08:19Z</time>
  <course>357.51</course>
  <speed>0.03</speed>
  <fix>3d</fix>
</trkpt>
<trkpt lat="33.8103531" lon="-118.3938677">
  <ele>-5.62</ele>
  <time>2026-09-02T22:08:19Z</time>
  <course>19.58</course>
  <speed>0.01</speed>
  <fix>3d</fix>
</trkpt>
<trkpt lat="33.8103529" lon="-118.3938674">
  <ele>-5.96</ele>
  <time>2026-09-02T22:08:19Z</time>
  <course>357.5</course>
  <speed>0.03</speed>
  <fix>3d</fix>
</trkpt>
<trkpt lat="33.8103531" lon="-118.3938676">
  <ele>-5.71</ele>
  <time>2026-09-02T22:08:19Z</time>
  <course>19.77</course>
  <speed>0.01</speed>
  <fix>3d</fix>
</trkpt>
<trkpt lat="33.8103529" lon="-118.3938674">
  <ele>-6.007</ele>
  <time>2026-09-02T22:08:19Z</time>
  <course>357.5</course>
  <speed>0.02</speed>
  <fix>3d</fix>
</trkpt>
<trkpt lat="33.8103531" lon="-118.3938676">
  <ele>-5.71</ele>
  <time>2026-09-02T22:08:19Z</time>
  <course>19.77</course>
  <speed>0.01</speed>
  <fix>3d</fix>
</trkpt>
<trkpt lat="33.8103529" lon="-118.3938674">
  <ele>-6.054</ele>
  <time>2026-09-02T22:08:19Z</time>
  <course>357.49</course>
  <speed>0.02</speed>
  <fix>3d</fix>
</trkpt>
<trkpt lat="33.8103532" lon="-118.3938676">
  <ele>-5.8</ele>
  <time>2026-09-02T22:08:19Z</time>
  <course>19.97</course>
  <speed>0.01</speed>
  <fix>3d</fix>
</trkpt>
<trkpt lat="33.8103529" lon="-118.3938674">
  <ele>-6.101</ele>
  <time>2026-09-02T22:08:19Z</time>
  <course>357.48</course>
  <speed>0.02</speed>
  <fix>3d</fix>
</trkpt>
<trkpt lat="33.8103532" lon="-118.3938676">
  <ele>-5.8</ele>
  <time>2026-09-02T22:08:19Z</time>
  <course>19.97</course>
  <speed>0.01</speed>
  <fix>3d</fix>
</trkpt>
<trkpt lat="33.8103529" lon="-118.3938674">
  <ele>-6.148</ele>
  <time>2026-09-02T22:08:19Z</time>
  <course>357.48</course>
  <speed>0.02</speed>
  <fix>3d</fix>
</trkpt>
<trkpt lat="33.8103532" lon="-118.3938676">
  <ele>-5.89</ele>
  <time>2026-09-02T22:08:19Z</time>
  <course>20.16</course>
  <speed>0.01</speed>
  <fix>3d</fix>
</trkpt>
<trkpt lat="33.810353" lon="-118.3938674">
  <ele>-6.195</ele>
  <time>2026-09-02T22:08:19Z</time>
  <course>357.47</course>
  <speed>0.02</speed>
  <fix>3d</fix>
</trkpt>
<trkpt lat="33.8103532" lon="-118.3938676">
  <ele>-5.89</ele>
  <time>2026-09-02T22:08:19Z</time>
  <course>20.16</course>
  <speed>0.01</speed>
  <fix>3d</fix>
</trkpt>
<trkpt lat="33.810353" lon="-118.3938674">
  <ele>-6.243</ele>
  <time>2026-09-02T22:08:19Z</time>
  <course>357.46</course>
  <speed>0.02</speed>
  <fix>3d</fix>
</trkpt>
<trkpt lat="33.8103532" lon="-118.3938676">
  <ele>-5.98</ele>
  <time>2026-09-02T22:08:19Z</time>
  <course>20.35</course>
  <speed>0.01</speed>
  <fix>3d</fix>
</trkpt>
<trkpt lat="33.810353" lon="-118.3938674">
  <ele>-6.29</ele>
  <time>2026-09-02T22:08:19Z</time>
  <course>357.46</course>
  <speed>0.02</speed>
  <fix>3d</fix>
</trkpt>
<trkpt lat="33.8103532" lon="-118.3938676">
  <ele>-5.98</ele>
  <time>2026-09-02T22:08:19Z</time>
  <course>20.35</course>
  <speed>0.01</speed>
  <fix>3d</fix>
</trkpt>
<trkpt lat="33.810353" lon="-118.3938674">
  <ele>-6.337</ele>
  <time>2026-09-02T22:08:19Z</time>
  <course>357.45</course>
  <speed>0.02</speed>
  <fix>3d</fix>
</trkpt>
<trkpt lat="33.8103532" lon="-118.3938676">
  <ele>-6.07</ele>
  <time>2026-09-02T22:08:19Z</time>
  <course>20.54</course>
  <speed>0.01</speed>
  <fix>3d</fix>
</trkpt>
<trkpt lat="33.810353" lon="-118.3938674">
  <ele>-6.383</ele>
  <time>2026-09-02T22:08:19Z</time>
  <course>357.45</course>
  <speed>0.02</speed>
  <fix>3d</fix>
</trkpt>
<trkpt lat="33.8103532" lon="-118.3938676">
  <ele>-6.07</ele>
  <time>2026-09-02T22:08:19Z</time>
  <course>20.54</course>
  <speed>0.01</speed>
  <fix>3d</fix>
</trkpt>
<trkpt lat="33.8103531" lon="-118.3938674">
  <ele>-6.43</ele>
  <time>2026-09-02T22:08:19Z</time>
  <course>357.44</course>
  <speed>0.02</speed>
  <fix>3d</fix>
</trkpt>
<trkpt lat="33.8103532" lon="-118.3938676">
  <ele>-6.17</ele>
  <time>2026-09-02T22:08:19Z</time>
  <course>20.72</course>
  <speed>0.01</speed>
  <fix>3d</fix>
</trkpt>
<trkpt lat="33.8103531" lon="-118.3938674">
  <ele>-6.477</ele>
  <time>2026-09-02T22:08:19Z</time>
  <course>357.44</course>
  <speed>0.02</speed>
  <fix>3d</fix>
</trkpt>
<trkpt lat="33.8103532" lon="-118.3938676">
  <ele>-6.17</ele>
  <time>2026-09-02T22:08:19Z</time>
  <course>20.72</course>
  <speed>0.01</speed>
  <fix>3d</fix>
</trkpt>
<trkpt lat="33.8103531" lon="-118.3938674">
  <ele>-6.524</ele>
  <time>2026-09-02T22:08:19Z</time>
  <course>357.43</course>
  <speed>0.02</speed>
  <fix>3d</fix>
</trkpt>
<trkpt lat="33.8103532" lon="-118.3938676">
  <ele>-6.26</ele>
  <time>2026-09-02T22:08:19Z</time>
  <course>20.91</course>
  <speed>0.01</speed>
  <fix>3d</fix>
</trkpt>
<trkpt lat="33.8103531" lon="-118.3938674">
  <ele>-6.572</ele>
  <time>2026-09-02T22:08:19Z</time>
  <course>357.43</course>
  <speed>0.02</speed>
  <fix>3d</fix>
</trkpt>
<trkpt lat="33.8103532" lon="-118.3938676">
  <ele>-6.26</ele>
  <time>2026-09-02T22:08:19Z</time>
  <course>20.91</course>
  <speed>0.01</speed>
  <fix>3d</fix>
</trkpt>
<trkpt lat="33.8103531" lon="-118.3938674">
  <ele>-6.618</ele>
  <time>2026-09-02T22:08:19Z</time>
  <course>357.42</course>
  <speed>0.02</speed>
  <fix>3d</fix>
</trkpt>
<trkpt lat="33.8103533" lon="-118.3938675">
  <ele>-6.35</ele>
  <time>2026-09-02T22:08:19Z</time>
  <course>21.09</course>
  <speed>0.01</speed>
  <fix>3d</fix>
</trkpt>
<trkpt lat="33.8103531" lon="-118.3938674">
  <ele>-6.665</ele>
  <time>2026-09-02T22:08:19Z</time>
  <course>357.42</course>
  <speed>0.02</speed>
  <fix>3d</fix>
</trkpt>
<trkpt lat="33.8103533" lon="-118.3938675">
  <ele>-6.35</ele>
  <time>2026-09-02T22:08:19Z</time>
  <course>21.09</course>
  <speed>0.01</speed>
  <fix>3d</fix>
</trkpt>
<trkpt lat="33.8103531" lon="-118.3938674">
  <ele>-6.712</ele>
  <time>2026-09-02T22:08:19Z</time>
  <course>357.41</course>
  <speed>0.02</speed>
  <fix>3d</fix>
</trkpt>
<trkpt lat="33.8103533" lon="-118.3938675">
  <ele>-6.44</ele>
  <time>2026-09-02T22:08:19Z</time>
  <course>21.27</course>
  <speed>0.01</speed>
  <fix>3d</fix>
</trkpt>
<trkpt lat="33.8103531" lon="-118.3938674">
  <ele>-6.759</ele>
  <time>2026-09-02T22:08:19Z</time>
  <course>357.41</course>
  <speed>0.02</speed>
  <fix>3d</fix>
</trkpt>
<trkpt lat="33.8103533" lon="-118.3938675">
  <ele>-6.44</ele>
  <time>2026-09-02T22:08:19Z</time>
  <course>21.27</course>
  <speed>0.01</speed>
  <fix>3d</fix>
</trkpt>
<trkpt lat="33.8103532" lon="-118.3938674">
  <ele>-6.806</ele>
  <time>2026-09-02T22:08:19Z</time>
  <course>357.4</course>
  <speed>0.02</speed>
  <fix>3d</fix>
</trkpt>
<trkpt lat="33.8103533" lon="-118.3938675">
  <ele>-6.53</ele>
  <time>2026-09-02T22:08:19Z</time>
  <course>21.44</course>
  <speed>0.01</speed>
  <fix>3d</fix>
</trkpt>
<trkpt lat="33.8103532" lon="-118.3938674">
  <ele>-6.853</ele>
  <time>2026-09-02T22:08:19Z</time>
  <course>357.4</course>
  <speed>0.02</speed>
  <fix>3d</fix>
</trkpt>
<trkpt lat="33.8103533" lon="-118.3938675">
  <ele>-6.53</ele>
  <time>2026-09-02T22:08:19Z</time>
  <course>21.44</course>
  <speed>0.01</speed>
  <fix>3d</fix>
</trkpt>
<trkpt lat="33.8103532" lon="-118.3938674">
  <ele>-6.9</ele>
  <time>2026-09-02T22:08:19Z</time>
  <course>357.4</course>
  <speed>0.02</speed>
  <fix>3d</fix>
</trkpt>
<trkpt lat="33.8103534" lon="-118.3938675">
  <ele>-6.62</ele>
  <time>2026-09-02T22:08:19Z</time>
  <course>21.62</course>
  <speed>0.01</speed>
  <fix>3d</fix>
</trkpt>
<trkpt lat="33.8103532" lon="-118.3938673">
  <ele>-6.947</ele>
  <time>2026-09-02T22:08:19Z</time>
  <course>357.39</course>
  <speed>0.02</speed>
  <fix>3d</fix>
</trkpt>
<trkpt lat="33.8103534" lon="-118.3938675">
  <ele>-6.62</ele>
  <time>2026-09-02T22:08:19Z</time>
  <course>21.62</course>
  <speed>0.01</speed>
  <fix>3d</fix>
</trkpt>
<trkpt lat="33.8103532" lon="-118.3938673">
  <ele>-6.994</ele>
  <time>2026-09-02T22:08:19Z</time>
  <course>357.39</course>
  <speed>0.02</speed>
  <fix>3d</fix>
</trkpt>
<trkpt lat="33.8103535" lon="-118.3938675">
  <ele>-6.71</ele>
  <time>2026-09-02T22:08:19Z</time>
  <course>21.79</course>
  <speed>0.01</speed>
  <fix>3d</fix>
</trkpt>
<trkpt lat="33.8103532" lon="-118.3938673">
  <ele>-7.041</ele>
  <time>2026-09-02T22:08:19Z</time>
  <course>357.38</course>
  <speed>0.02</speed>
  <fix>3d</fix>
</trkpt>
<trkpt lat="33.8103535" lon="-118.3938675">
  <ele>-6.71</ele>
  <time>2026-09-02T22:08:19Z</time>
  <course>21.79</course>
  <speed>0.01</speed>
  <fix>3d</fix>
</trkpt>
<trkpt lat="33.8103532" lon="-118.3938673">
  <ele>-7.087</ele>
  <time>2026-09-02T22:08:19Z</time>
  <course>357.38</course>
  <speed>0.02</speed>
  <fix>3d</fix>
</trkpt>
<trkpt lat="33.8103535" lon="-118.3938675">
  <ele>-6.81</ele>
  <time>2026-09-02T22:08:19Z</time>
  <course>21.96</course>
  <speed>0.01</speed>
  <fix>3d</fix>
</trkpt>
<trkpt lat="33.8103533" lon="-118.3938673">
  <ele>-7.133</ele>
  <time>2026-09-02T22:08:19Z</time>
  <course>357.37</course>
  <speed>0.02</speed>
  <fix>3d</fix>
</trkpt>
<trkpt lat="33.8103535" lon="-118.3938675">
  <ele>-6.81</ele>
  <time>2026-09-02T22:08:19Z</time>
  <course>21.96</course>
  <speed>0.01</speed>
  <fix>3d</fix>
</trkpt>
<trkpt lat="33.8103533" lon="-118.3938673">
  <ele>-7.18</ele>
  <time>2026-09-02T22:08:19Z</time>
  <course>357.37</course>
  <speed>0.02</speed>
  <fix>3d</fix>
</trkpt>
<trkpt lat="33.8103535" lon="-118.3938675">
  <ele>-6.9</ele>
  <time>2026-09-02T22:08:19Z</time>
  <course>22.13</course>
  <speed>0.01</speed>
  <fix>3d</fix>
</trkpt>
<trkpt lat="33.8103533" lon="-118.3938673">
  <ele>-7.227</ele>
  <time>2026-09-02T22:08:19Z</time>
  <course>357.36</course>
  <speed>0.02</speed>
  <fix>3d</fix>
</trkpt>
<trkpt lat="33.8103535" lon="-118.3938675">
  <ele>-6.9</ele>
  <time>2026-09-02T22:08:19Z</time>
  <course>22.13</course>
  <speed>0.01</speed>
  <fix>3d</fix>
</trkpt>
<trkpt lat="33.8103533" lon="-118.3938673">
  <ele>-7.273</ele>
  <time>2026-09-02T22:08:19Z</time>
  <course>357.36</course>
  <speed>0.02</speed>
  <fix>3d</fix>
</trkpt>
<trkpt lat="33.8103535" lon="-118.3938675">
  <ele>-6.99</ele>
  <time>2026-09-02T22:08:19Z</time>
  <course>22.29</course>
  <speed>0.01</speed>
  <fix>3d</fix>
</trkpt>
<trkpt lat="33.8103533" lon="-118.3938673">
  <ele>-7.32</ele>
  <time>2026-09-02T22:08:19Z</time>
  <course>357.36</course>
  <speed>0.02</speed>
  <fix>3d</fix>
</trkpt>
<trkpt lat="33.8103535" lon="-118.3938675">
  <ele>-6.99</ele>
  <time>2026-09-02T22:08:19Z</time>
  <course>22.29</course>
  <speed>0.01</speed>
  <fix>3d</fix>
</trkpt>
<trkpt lat="33.8103533" lon="-118.3938673">
  <ele>-7.367</ele>
  <time>2026-09-02T22:08:19Z</time>
  <course>357.35</course>
  <speed>0.02</speed>
  <fix>3d</fix>
</trkpt>
<trkpt lat="33.8103536" lon="-118.3938674">
  <ele>-7.08</ele>
  <time>2026-09-02T22:08:19Z</time>
  <course>22.46</course>
  <speed>0.01</speed>
  <fix>3d</fix>
</trkpt>
<trkpt lat="33.8103534" lon="-118.3938673">
  <ele>-7.413</ele>
  <time>2026-09-02T22:08:19Z</time>
  <course>357.35</course>
  <speed>0.02</speed>
  <fix>3d</fix>
</trkpt>
<trkpt lat="33.8103536" lon="-118.3938674">
  <ele>-7.08</ele>
  <time>2026-09-02T22:08:19Z</time>
  <course>22.46</course>
  <speed>0.01</speed>
  <fix>3d</fix>
</trkpt>
<trkpt lat="33.8103534" lon="-118.3938673">
  <ele>-7.46</ele>
  <time>2026-09-02T22:08:19Z</time>
  <course>357.35</course>
  <speed>0.02</speed>
  <fix>3d</fix>
</trkpt>
<trkpt lat="33.8103536" lon="-118.3938674">
  <ele>-7.17</ele>
  <time>2026-09-02T22:08:19Z</time>
  <course>22.62</course>
  <speed>0.01</speed>
  <fix>3d</fix>
</trkpt>
<trkpt lat="33.8103534" lon="-118.3938673">
  <ele>-7.507</ele>
  <time>2026-09-02T22:08:19Z</time>
  <course>357.34</course>
  <speed>0.02</speed>
  <fix>3d</fix>
</trkpt>
<trkpt lat="33.8103536" lon="-118.3938674">
  <ele>-7.17</ele>
  <time>2026-09-02T22:08:19Z</time>
  <course>22.62</course>
  <speed>0.01</speed>
  <fix>3d</fix>
</trkpt>
<trkpt lat="33.8103534" lon="-118.3938673">
  <ele>-7.553</ele>
  <time>2026-09-02T22:08:19Z</time>
  <course>357.34</course>
  <speed>0.02</speed>
  <fix>3d</fix>
</trkpt>
<trkpt lat="33.8103536" lon="-118.3938674">
  <ele>-7.26</ele>
  <time>2026-09-02T22:08:19Z</time>
  <course>22.79</course>
  <speed>0.01</speed>
  <fix>3d</fix>
</trkpt>
<trkpt lat="33.8103534" lon="-118.3938673">
  <ele>-7.598</ele>
  <time>2026-09-02T22:08:19Z</time>
  <course>357.34</course>
  <speed>0.02</speed>
  <fix>3d</fix>
</trkpt>
<trkpt lat="33.8103536" lon="-118.3938674">
  <ele>-7.26</ele>
  <time>2026-09-02T22:08:19Z</time>
  <course>22.79</course>
  <speed>0.01</speed>
  <fix>3d</fix>
</trkpt>
<trkpt lat="33.8103534" lon="-118.3938672">
  <ele>-7.633</ele>
  <time>2026-09-02T22:08:19Z</time>
  <course>357.33</course>
  <speed>0.02</speed>
  <fix>3d</fix>
</trkpt>
<trkpt lat="33.8103536" lon="-118.3938674">
  <ele>-7.35</ele>
  <time>2026-09-02T22:08:19Z</time>
  <course>22.51</course>
  <speed>0.01</speed>
  <fix>3d</fix>
</trkpt>
<trkpt lat="33.8103534" lon="-118.3938672">
  <ele>-7.662</ele>
  <time>2026-09-02T22:08:19Z</time>
  <course>357.33</course>
  <speed>0.02</speed>
  <fix>3d</fix>
</trkpt>
<trkpt lat="33.8103536" lon="-118.3938674">
  <ele>-7.35</ele>
  <time>2026-09-02T22:08:19Z</time>
  <course>22.51</course>
  <speed>0.01</speed>
  <fix>3d</fix>
</trkpt>
<trkpt lat="33.8103534" lon="-118.3938672">
  <ele>-7.685</ele>
  <time>2026-09-02T22:08:19Z</time>
  <course>357.33</course>
  <speed>0.03</speed>
  <fix>3d</fix>
</trkpt>
<trkpt lat="33.8103537" lon="-118.3938674">
  <ele>-7.43</ele>
  <time>2026-09-02T22:08:19Z</time>
  <course>21.87</course>
  <speed>0.01</speed>
  <fix>3d</fix>
</trkpt>
<trkpt lat="33.8103535" lon="-118.3938672">
  <ele>-7.706</ele>
  <time>2026-09-02T22:08:19Z</time>
  <course>357.32</course>
  <speed>0.03</speed>
  <fix>3d</fix>
</trkpt>
<trkpt lat="33.8103537" lon="-118.3938674">
  <ele>-7.43</ele>
  <time>2026-09-02T22:08:19Z</time>
  <course>21.87</course>
  <speed>0.01</speed>
  <fix>3d</fix>
</trkpt>
<trkpt lat="33.8103535" lon="-118.3938672">
  <ele>-7.724</ele>
  <time>2026-09-02T22:08:19Z</time>
  <course>357.32</course>
  <speed>0.03</speed>
  <fix>3d</fix>
</trkpt>
<trkpt lat="33.8103537" lon="-118.3938674">
  <ele>-7.48</ele>
  <time>2026-09-02T22:08:19Z</time>
  <course>21.73</course>
  <speed>0.01</speed>
  <fix>3d</fix>
</trkpt>
<trkpt lat="33.8103535" lon="-118.3938672">
  <ele>-7.74</ele>
  <time>2026-09-02T22:08:19Z</time>
  <course>357.32</course>
  <speed>0.0316227766016838</speed>
  <fix>3d</fix>
</trkpt>
<trkpt lat="33.8103537" lon="-118.3938674">
  <ele>-7.48</ele>
  <time>2026-09-02T22:08:19Z</time>
  <course>21.73</course>
  <speed>0.01</speed>
  <fix>3d</fix>
</trkpt>
<trkpt lat="33.8103535" lon="-118.3938672">
  <ele>-7.754</ele>
  <time>2026-09-02T22:08:19Z</time>
  <course>357.31</course>
  <speed>0.0316227766016838</speed>
  <fix>3d</fix>
</trkpt>
<trkpt lat="33.8103537" lon="-118.3938674">
  <ele>-7.51</ele>
  <time>2026-09-02T22:08:19Z</time>
  <course>22.06</course>
  <speed>0.01</speed>
  <fix>3d</fix>
</trkpt>
<trkpt lat="33.8103535" lon="-118.3938672">
  <ele>-7.766</ele>
  <time>2026-09-02T22:08:19Z</time>
  <course>357.31</course>
  <speed>0.0316227766016838</speed>
  <fix>3d</fix>
</trkpt>
<trkpt lat="33.8103537" lon="-118.3938674">
  <ele>-7.51</ele>
  <time>2026-09-02T22:08:19Z</time>
  <course>22.06</course>
  <speed>0.01</speed>
  <fix>3d</fix>
</trkpt>
<trkpt lat="33.8103535" lon="-118.3938672">
  <ele>-7.777</ele>
  <time>2026-09-02T22:08:19Z</time>
  <course>357.31</course>
  <speed>0.0316227766016838</speed>
  <fix>3d</fix>
</trkpt>
<trkpt lat="33.8103537" lon="-118.3938674">
  <ele>-7.54</ele>
  <time>2026-09-02T22:08:19Z</time>
  <course>22.38</course>
  <speed>0.01</speed>
  <fix>3d</fix>
</trkpt>
<trkpt lat="33.8103535" lon="-118.3938672">
  <ele>-7.788</ele>
  <time>2026-09-02T22:08:19Z</time>
  <course>357.3</course>
  <speed>0.0316227766016838</speed>
  <fix>3d</fix>
</trkpt>
<trkpt lat="33.8103537" lon="-118.3938674">
  <ele>-7.54</ele>
  <time>2026-09-02T22:08:19Z</time>
  <course>22.38</course>
  <speed>0.01</speed>
  <fix>3d</fix>
</trkpt>
<trkpt lat="33.8103535" lon="-118.3938672">
  <ele>-7.797</ele>
  <time>2026-09-02T22:08:19Z</time>
  <course>357.3</course>
  <speed>0.0316227766016838</speed>
  <fix>3d</fix>
</trkpt>
<trkpt lat="33.8103538" lon="-118.3938673">
  <ele>-7.56</ele>
  <time>2026-09-02T22:08:19Z</time>
  <course>22.51</course>
  <speed>0.01</speed>
  <fix>3d</fix>
</trkpt>
<trkpt lat="33.8103535" lon="-118.3938671">
  <ele>-7.806</ele>
  <time>2026-09-02T22:08:19Z</time>
  <course>357.3</course>
  <speed>0.0316227766016838</speed>
  <fix>3d</fix>
</trkpt>
<trkpt lat="33.8103538" lon="-118.3938673">
  <ele>-7.56</ele>
  <time>2026-09-02T22:08:19Z</time>
  <course>22.51</course>
  <speed>0.01</speed>
  <fix>3d</fix>
</trkpt>
<trkpt lat="33.8103536" lon="-118.3938671">
  <ele>-7.814</ele>
  <time>2026-09-02T22:08:19Z</time>
  <course>357.3</course>
  <speed>0.0316227766016838</speed>
  <fix>3d</fix>
</trkpt>
<trkpt lat="33.8103538" lon="-118.3938673">
  <ele>-7.59</ele>
  <time>2026-09-02T22:08:19Z</time>
  <course>22.53</course>
  <speed>0.01</speed>
  <fix>3d</fix>
</trkpt>
<trkpt lat="33.8103536" lon="-118.3938671">
  <ele>-7.822</ele>
  <time>2026-09-02T22:08:19Z</time>
  <course>357.29</course>
  <speed>0.0316227766016838</speed>
  <fix>3d</fix>
</trkpt>
<trkpt lat="33.8103538" lon="-118.3938673">
  <ele>-7.59</ele>
  <time>2026-09-02T22:08:19Z</time>
  <course>22.53</course>
  <speed>0.01</speed>
  <fix>3d</fix>
</trkpt>
<trkpt lat="33.8103536" lon="-118.3938671">
  <ele>-7.829</ele>
  <time>2026-09-02T22:08:19Z</time>
  <course>357.29</course>
  <speed>0.0316227766016838</speed>
  <fix>3d</fix>
</trkpt>
<trkpt lat="33.8103538" lon="-118.3938673">
  <ele>-7.6</ele>
  <time>2026-09-02T22:08:19Z</time>
  <course>22.54</course>
  <speed>0.01</speed>
  <fix>3d</fix>
</trkpt>
<trkpt lat="33.8103536" lon="-118.3938671">
  <ele>-7.836</ele>
  <time>2026-09-02T22:08:19Z</time>
  <course>357.29</course>
  <speed>0.0316227766016838</speed>
  <fix>3d</fix>
</trkpt>
<trkpt lat="33.8103538" lon="-118.3938673">
  <ele>-7.6</ele>
  <time>2026-09-02T22:08:19Z</time>
  <course>22.54</course>
  <speed>0.01</speed>
  <fix>3d</fix>
</trkpt>
<trkpt lat="33.8103536" lon="-118.3938671">
  <ele>-7.842</ele>
  <time>2026-09-02T22:08:19Z</time>
  <course>357.29</course>
  <speed>0.0316227766016838</speed>
  <fix>3d</fix>
</trkpt>
<trkpt lat="33.8103538" lon="-118.3938673">
  <ele>-7.63</ele>
  <time>2026-09-02T22:08:19Z</time>
  <course>22.62</course>
  <speed>0.01</speed>
  <fix>3d</fix>
</trkpt>
<trkpt lat="33.8103536" lon="-118.3938671">
  <ele>-7.848</ele>
  <time>2026-09-02T22:08:19Z</time>
  <course>357.28</course>
  <speed>0.0316227766016838</speed>
  <fix>3d</fix>
</trkpt>
<trkpt lat="33.8103538" lon="-118.3938673">
  <ele>-7.63</ele>
  <time>2026-09-02T22:08:19Z</time>
  <course>22.62</course>
  <speed>0.01</speed>
  <fix>3d</fix>
</trkpt>
<trkpt lat="33.8103536" lon="-118.3938671">
  <ele>-7.854</ele>
  <time>2026-09-02T22:08:19Z</time>
  <course>357.28</course>
  <speed>0.0316227766016838</speed>
  <fix>3d</fix>
</trkpt>
<trkpt lat="33.8103538" lon="-118.3938673">
  <ele>-7.64</ele>
  <time>2026-09-02T22:08:19Z</time>
  <course>22.77</course>
  <speed>0.01</speed>
  <fix>3d</fix>
</trkpt>
<trkpt lat="33.8103536" lon="-118.3938671">
  <ele>-7.86</ele>
  <time>2026-09-02T22:08:19Z</time>
  <course>357.28</course>
  <speed>0.0316227766016838</speed>
  <fix>3d</fix>
</trkpt>
<trkpt lat="33.8103538" lon="-118.3938673">
  <ele>-7.64</ele>
  <time>2026-09-02T22:08:19Z</time>
  <course>22.77</course>
  <speed>0.01</speed>
  <fix>3d</fix>
</trkpt>
<trkpt lat="33.8103536" lon="-118.393867">
  <ele>-7.865</ele>
  <time>2026-09-02T22:08:19Z</time>
  <course>357.28</course>
  <speed>0.0316227766016838</speed>
  <fix>3d</fix>
</trkpt>
<trkpt lat="33.8103538" lon="-118.3938673">
  <ele>-7.65</ele>
  <time>2026-09-02T22:08:19Z</time>
  <course>22.92</course>
  <speed>0.01</speed>
  <fix>3d</fix>
</trkpt>
<trkpt lat="33.8103536" lon="-118.393867">
  <ele>-7.871</ele>
  <time>2026-09-02T22:08:19Z</time>
  <course>357.27</course>
  <speed>0.0316227766016838</speed>
  <fix>3d</fix>
</trkpt>
<trkpt lat="33.8103538" lon="-118.3938673">
  <ele>-7.65</ele>
  <time>2026-09-02T22:08:19Z</time>
  <course>22.92</course>
  <speed>0.01</speed>
  <fix>3d</fix>
</trkpt>
<trkpt lat="33.8103536" lon="-118.393867">
  <ele>-7.876</ele>
  <time>2026-09-02T22:08:19Z</time>
  <course>357.27</course>
  <speed>0.0316227766016838</speed>
  <fix>3d</fix>
</trkpt>
<trkpt lat="33.8103538" lon="-118.3938673">
  <ele>-7.67</ele>
  <time>2026-09-02T22:08:19Z</time>
  <course>23.02</course>
  <speed>0.01</speed>
  <fix>3d</fix>
</trkpt>
<trkpt lat="33.8103536" lon="-118.393867">
  <ele>-7.881</ele>
  <time>2026-09-02T22:08:19Z</time>
  <course>357.27</course>
  <speed>0.0316227766016838</speed>
  <fix>3d</fix>
</trkpt>
<trkpt lat="33.8103538" lon="-118.3938673">
  <ele>-7.67</ele>
  <time>2026-09-02T22:08:19Z</time>
  <course>23.02</course>
  <speed>0.01</speed>
  <fix>3d</fix>
</trkpt>
<trkpt lat="33.8103536" lon="-118.393867">
  <ele>-7.886</ele>
  <time>2026-09-02T22:08:19Z</time>
  <course>357.27</course>
  <speed>0.0316227766016838</speed>
  <fix>3d</fix>
</trkpt>
<trkpt lat="33.8103538" lon="-118.3938673">
  <ele>-7.68</ele>
  <time>2026-09-02T22:08:19Z</time>
  <course>23.06</course>
  <speed>0.01</speed>
  <fix>3d</fix>
</trkpt>
<trkpt lat="33.8103536" lon="-118.393867">
  <ele>-7.891</ele>
  <time>2026-09-02T22:08:19Z</time>
  <course>357.27</course>
  <speed>0.0316227766016838</speed>
  <fix>3d</fix>
</trkpt>
<trkpt lat="33.8103538" lon="-118.3938673">
  <ele>-7.68</ele>
  <time>2026-09-02T22:08:19Z</time>
  <course>23.06</course>
  <speed>0.01</speed>
  <fix>3d</fix>
</trkpt>
<trkpt lat="33.8103536" lon="-118.393867">
  <ele>-7.896</ele>
  <time>2026-09-02T22:08:19Z</time>
  <course>357.26</course>
  <speed>0.0316227766016838</speed>
  <fix>3d</fix>
</trkpt>
<trkpt lat="33.8103538" lon="-118.3938673">
  <ele>-7.69</ele>
  <time>2026-09-02T22:08:19Z</time>
  <course>23.1</course>
  <speed>0.01</speed>
  <fix>3d</fix>
</trkpt>
<trkpt lat="33.8103536" lon="-118.393867">
  <ele>-7.901</ele>
  <time>2026-09-02T22:08:19Z</time>
  <course>357.26</course>
  <speed>0.0316227766016838</speed>
  <fix>3d</fix>
</trkpt>
<trkpt lat="33.8103538" lon="-118.3938673">
  <ele>-7.69</ele>
  <time>2026-09-02T22:08:19Z</time>
  <course>23.1</course>
  <speed>0.01</speed>
  <fix>3d</fix>
</trkpt>
<trkpt lat="33.8103536" lon="-118.393867">
  <ele>-7.905</ele>
  <time>2026-09-02T22:08:19Z</time>
  <course>357.26</course>
  <speed>0.0316227766016838</speed>
  <fix>3d</fix>
</trkpt>
<trkpt lat="33.8103539" lon="-118.3938673">
  <ele>-7.7</ele>
  <time>2026-09-02T22:08:19Z</time>
  <course>23.17</course>
  <speed>0.01</speed>
  <fix>3d</fix>
</trkpt>
<trkpt lat="33.8103536" lon="-118.393867">
  <ele>-7.91</ele>
  <time>2026-09-02T22:08:19Z</time>
  <course>357.26</course>
  <speed>0.0316227766016838</speed>
  <fix>3d</fix>
</trkpt>
<trkpt lat="33.8103539" lon="-118.3938673">
  <ele>-7.7</ele>
  <time>2026-09-02T22:08:19Z</time>
  <course>23.17</course>
  <speed>0.01</speed>
  <fix>3d</fix>
</trkpt>
<trkpt lat="33.8103537" lon="-118.393867">
  <ele>-7.915</ele>
  <time>2026-09-02T22:08:19Z</time>
  <course>357.26</course>
  <speed>0.0316227766016838</speed>
  <fix>3d</fix>
</trkpt>
<trkpt lat="33.8103539" lon="-118.3938672">
  <ele>-7.71</ele>
  <time>2026-09-02T22:08:19Z</time>
  <course>23.3</course>
  <speed>0.01</speed>
  <fix>3d</fix>
</trkpt>
<trkpt lat="33.8103537" lon="-118.393867">
  <ele>-7.919</ele>
  <time>2026-09-02T22:08:19Z</time>
  <course>357.25</course>
  <speed>0.0316227766016838</speed>
  <fix>3d</fix>
</trkpt>
<trkpt lat="33.8103539" lon="-118.3938672">
  <ele>-7.71</ele>
  <time>2026-09-02T22:08:19Z</time>
  <course>23.3</course>
  <speed>0.01</speed>
  <fix>3d</fix>
</trkpt>
<trkpt lat="33.8103537" lon="-118.393867">
  <ele>-7.924</ele>
  <time>2026-09-02T22:08:19Z</time>
  <course>357.25</course>
  <speed>0.0316227766016838</speed>
  <fix>3d</fix>
</trkpt>
<trkpt lat="33.8103539" lon="-118.3938672">
  <ele>-7.72</ele>
  <time>2026-09-02T22:08:19Z</time>
  <course>23.43</course>
  <speed>0.01</speed>
  <fix>3d</fix>
</trkpt>
<trkpt lat="33.8103537" lon="-118.393867">
  <ele>-7.928</ele>
  <time>2026-09-02T22:08:19Z</time>
  <course>357.25</course>
  <speed>0.03605551275463989</speed>
  <fix>3d</fix>
</trkpt>
<trkpt lat="33.8103539" lon="-118.3938672">
  <ele>-7.72</ele>
  <time>2026-09-02T22:08:19Z</time>
  <course>23.43</course>
  <speed>0.01</speed>
  <fix>3d</fix>
</trkpt>
<trkpt lat="33.8103537" lon="-118.393867">
  <ele>-7.932</ele>
  <time>2026-09-02T22:08:19Z</time>
  <course>357.25</course>
  <speed>0.03605551275463989</speed>
  <fix>3d</fix>
</trkpt>
<trkpt lat="33.8103539" lon="-118.3938672">
  <ele>-7.73</ele>
  <time>2026-09-02T22:08:19Z</time>
  <course>23.53</course>
  <speed>0.01</speed>
  <fix>3d</fix>
</trkpt>
<trkpt lat="33.8103537" lon="-118.3938669">
  <ele>-7.935</ele>
  <time>2026-09-02T22:08:19Z</time>
  <course>357.25</course>
  <speed>0.03605551275463989</speed>
  <fix>3d</fix>
</trkpt>
<trkpt lat="33.8103539" lon="-118.3938672">
  <ele>-7.73</ele>
  <time>2026-09-02T22:08:19Z</time>
  <course>23.53</course>
  <speed>0.01</speed>
  <fix>3d</fix>
</trkpt>
<trkpt lat="33.8103537" lon="-118.3938669">
  <ele>-7.938</ele>
  <time>2026-09-02T22:08:19Z</time>
  <course>357.24</course>
  <speed>0.03605551275463989</speed>
  <fix>3d</fix>
</trkpt>
<trkpt lat="33.810354" lon="-118.3938672">
  <ele>-7.73</ele>
  <time>2026-09-02T22:08:19Z</time>
  <course>23.56</course>
  <speed>0.01</speed>
  <fix>3d</fix>
</trkpt>
<trkpt lat="33.8103537" lon="-118.3938669">
  <ele>-7.94</ele>
  <time>2026-09-02T22:08:19Z</time>
  <course>357.24</course>
  <speed>0.03605551275463989</speed>
  <fix>3d</fix>
</trkpt>
<trkpt lat="33.810354" lon="-118.3938672">
  <ele>-7.73</ele>
  <time>2026-09-02T22:08:19Z</time>
  <course>23.56</course>
  <speed>0.01</speed>
  <fix>3d</fix>
</trkpt>
<trkpt lat="33.8103537" lon="-118.3938669">
  <ele>-7.941</ele>
  <time>2026-09-02T22:08:19Z</time>
  <course>357.24</course>
  <speed>0.03605551275463989</speed>
  <fix>3d</fix>
</trkpt>
<trkpt lat="33.8103541" lon="-118.3938672">
  <ele>-7.74</ele>
  <time>2026-09-02T22:08:19Z</time>
  <course>23.38</course>
  <speed>0.01</speed>
  <fix>3d</fix>
</trkpt>
<trkpt lat="33.8103537" lon="-118.3938669">
  <ele>-7.94</ele>
  <time>2026-09-02T22:08:19Z</time>
  <course>357.24</course>
  <speed>0.03605551275463989</speed>
  <fix>3d</fix>
</trkpt>
<trkpt lat="33.8103541" lon="-118.3938672">
  <ele>-7.74</ele>
  <time>2026-09-02T22:08:19Z</time>
  <course>23.38</course>
  <speed>0.01</speed>
  <fix>3d</fix>
</trkpt>
<trkpt lat="33.8103537" lon="-118.3938669">
  <ele>-7.94</ele>
  <time>2026-09-02T22:08:19Z</time>
  <course>357.24</course>
  <speed>0.03605551275463989</speed>
  <fix>3d</fix>
</trkpt>
<trkpt lat="33.8103541" lon="-118.3938672">
  <ele>-7.75</ele>
  <time>2026-09-02T22:08:19Z</time>
  <course>23.06</course>
  <speed>0.01</speed>
  <fix>3d</fix>
</trkpt>
<trkpt lat="33.8103537" lon="-118.3938669">
  <ele>-7.94</ele>
  <time>2026-09-02T22:08:19Z</time>
  <course>357.23</course>
  <speed>0.0316227766016838</speed>
  <fix>3d</fix>
</trkpt>
<trkpt lat="33.8103541" lon="-118.3938672">
  <ele>-7.75</ele>
  <time>2026-09-02T22:08:19Z</time>
  <course>23.06</course>
  <speed>0.01</speed>
  <fix>3d</fix>
</trkpt>
<trkpt lat="33.8103538" lon="-118.3938669">
  <ele>-7.94</ele>
  <time>2026-09-02T22:08:19Z</time>
  <course>357.23</course>
  <speed>0.0316227766016838</speed>
  <fix>3d</fix>
</trkpt>
<trkpt lat="33.8103541" lon="-118.3938672">
  <ele>-7.74</ele>
  <time>2026-09-02T22:08:19Z</time>
  <course>22.97</course>
  <speed>0.01</speed>
  <fix>3d</fix>
</trkpt>
<trkpt lat="33.8103538" lon="-118.3938669">
  <ele>-7.939</ele>
  <time>2026-09-02T22:08:19Z</time>
  <course>357.23</course>
  <speed>0.0316227766016838</speed>
  <fix>3d</fix>
</trkpt>
<trkpt lat="33.8103541" lon="-118.3938672">
  <ele>-7.74</ele>
  <time>2026-09-02T22:08:19Z</time>
  <course>22.97</course>
  <speed>0.01</speed>
  <fix>3d</fix>
</trkpt>
<trkpt lat="33.8103538" lon="-118.3938669">
  <ele>-7.938</ele>
  <time>2026-09-02T22:08:19Z</time>
  <course>357.23</course>
  <speed>0.0316227766016838</speed>
  <fix>3d</fix>
</trkpt>
<trkpt lat="33.8103541" lon="-118.3938672">
  <ele>-7.74</ele>
  <time>2026-09-02T22:08:19Z</time>
  <course>23.16</course>
  <speed>0.01</speed>
  <fix>3d</fix>
</trkpt>
<trkpt lat="33.8103538" lon="-118.3938669">
  <ele>-7.937</ele>
  <time>2026-09-02T22:08:19Z</time>
  <course>357.23</course>
  <speed>0.0316227766016838</speed>
  <fix>3d</fix>
</trkpt>
<trkpt lat="33.8103541" lon="-118.3938672">
  <ele>-7.74</ele>
  <time>2026-09-02T22:08:19Z</time>
  <course>23.16</course>
  <speed>0.01</speed>
  <fix>3d</fix>
</trkpt>
<trkpt lat="33.8103538" lon="-118.3938669">
  <ele>-7.936</ele>
  <time>2026-09-02T22:08:19Z</time>
  <course>357.22</course>
  <speed>0.0316227766016838</speed>
  <fix>3d</fix>
</trkpt>
<trkpt lat="33.8103541" lon="-118.3938672">
  <ele>-7.74</ele>
  <time>2026-09-02T22:08:19Z</time>
  <course>23.4</course>
  <speed>0.01</speed>
  <fix>3d</fix>
</trkpt>
<trkpt lat="33.8103538" lon="-118.3938669">
  <ele>-7.935</ele>
  <time>2026-09-02T22:08:19Z</time>
  <course>357.22</course>
  <speed>0.0316227766016838</speed>
  <fix>3d</fix>
</trkpt>
<trkpt lat="33.8103541" lon="-118.3938672">
  <ele>-7.74</ele>
  <time>2026-09-02T22:08:19Z</time>
  <course>23.4</course>
  <speed>0.01</speed>
  <fix>3d</fix>
</trkpt>
<trkpt lat="33.8103538" lon="-118.3938669">
  <ele>-7.934</ele>
  <time>2026-09-02T22:08:19Z</time>
  <course>357.22</course>
  <speed>0.0316227766016838</speed>
  <fix>3d</fix>
</trkpt>
<trkpt lat="33.8103541" lon="-118.3938671">
  <ele>-7.74</ele>
  <time>2026-09-02T22:08:19Z</time>
  <course>23.54</course>
  <speed>0.01</speed>
  <fix>3d</fix>
</trkpt>
<trkpt lat="33.8103538" lon="-118.3938669">
  <ele>-7.933</ele>
  <time>2026-09-02T22:08:19Z</time>
  <course>357.22</course>
  <speed>0.0316227766016838</speed>
  <fix>3d</fix>
</trkpt>
<trkpt lat="33.8103541" lon="-118.3938671">
  <ele>-7.74</ele>
  <time>2026-09-02T22:08:19Z</time>
  <course>23.54</course>
  <speed>0.01</speed>
  <fix>3d</fix>
</trkpt>
<trkpt lat="33.8103539" lon="-118.3938669">
  <ele>-7.932</ele>
  <time>2026-09-02T22:08:19Z</time>
  <course>357.22</course>
  <speed>0.0316227766016838</speed>
  <fix>3d</fix>
</trkpt>
<trkpt lat="33.8103542" lon="-118.3938671">
  <ele>-7.74</ele>
  <time>2026-09-02T22:08:19Z</time>
  <course>23.53</course>
  <speed>0.01</speed>
  <fix>3d</fix>
</trkpt>
<trkpt lat="33.8103539" lon="-118.3938669">
  <ele>-7.933</ele>
  <time>2026-09-02T22:08:19Z</time>
  <course>357.22</course>
  <speed>0.0316227766016838</speed>
  <fix>3d</fix>
</trkpt>
<trkpt lat="33.8103542" lon="-118.3938671">
  <ele>-7.74</ele>
  <time>2026-09-02T22:08:19Z</time>
  <course>23.53</course>
  <speed>0.01</speed>
  <fix>3d</fix>
</trkpt>
<trkpt lat="33.8103539" lon="-118.3938668">
  <ele>-7.933</ele>
  <time>2026-09-02T22:08:19Z</time>
  <course>357.21</course>
  <speed>0.0316227766016838</speed>
  <fix>3d</fix>
</trkpt>
<trkpt lat="33.8103542" lon="-118.3938671">
  <ele>-7.74</ele>
  <time>2026-09-02T22:08:19Z</time>
  <course>23.47</course>
  <speed>0.01</speed>
  <fix>3d</fix>
</trkpt>
<trkpt lat="33.8103539" lon="-118.3938668">
  <ele>-7.934</ele>
  <time>2026-09-02T22:08:19Z</time>
  <course>357.21</course>
  <speed>0.0316227766016838</speed>
  <fix>3d</fix>
</trkpt>
<trkpt lat="33.8103542" lon="-118.3938671">
  <ele>-7.74</ele>
  <time>2026-09-02T22:08:19Z</time>
  <course>23.47</course>
  <speed>0.01</speed>
  <fix>3d</fix>
</trkpt>
<trkpt lat="33.8103539" lon="-118.3938668">
  <ele>-7.934</ele>
  <time>2026-09-02T22:08:19Z</time>
  <course>357.21</course>
  <speed>0.0316227766016838</speed>
  <fix>3d</fix>
</trkpt>
<trkpt lat="33.8103542" lon="-118.3938671">
  <ele>-7.74</ele>
  <time>2026-09-02T22:08:19Z</time>
  <course>23.46</course>
  <speed>0.01</speed>
  <fix>3d</fix>
</trkpt>
<trkpt lat="33.8103539" lon="-118.3938668">
  <ele>-7.935</ele>
  <time>2026-09-02T22:08:19Z</time>
  <course>357.21</course>
  <speed>0.0316227766016838</speed>
  <fix>3d</fix>
</trkpt>
<trkpt lat="33.8103542" lon="-118.3938671">
  <ele>-7.74</ele>
  <time>2026-09-02T22:08:19Z</time>
  <course>23.46</course>
  <speed>0.01</speed>
  <fix>3d</fix>
</trkpt>
<trkpt lat="33.8103539" lon="-118.3938668">
  <ele>-7.936</ele>
  <time>2026-09-02T22:08:19Z</time>
  <course>357.21</course>
  <speed>0.0316227766016838</speed>
  <fix>3d</fix>
</trkpt>
<trkpt lat="33.8103542" lon="-118.3938671">
  <ele>-7.74</ele>
  <time>2026-09-02T22:08:19Z</time>
  <course>23.59</course>
  <speed>0.01</speed>
  <fix>3d</fix>
</trkpt>
<trkpt lat="33.8103539" lon="-118.3938668">
  <ele>-7.936</ele>
  <time>2026-09-02T22:08:19Z</time>
  <course>357.21</course>
  <speed>0.0316227766016838</speed>
  <fix>3d</fix>
</trkpt>
<trkpt lat="33.8103542" lon="-118.3938671">
  <ele>-7.74</ele>
  <time>2026-09-02T22:08:19Z</time>
  <course>23.59</course>
  <speed>0.01</speed>
  <fix>3d</fix>
</trkpt>
<trkpt lat="33.8103539" lon="-118.3938668">
  <ele>-7.938</ele>
  <time>2026-09-02T22:08:19Z</time>
  <course>357.2</course>
  <speed>0.0316227766016838</speed>
  <fix>3d</fix>
</trkpt>
<trkpt lat="33.8103542" lon="-118.3938671">
  <ele>-7.74</ele>
  <time>2026-09-02T22:08:19Z</time>
  <course>23.87</course>
  <speed>0.01</speed>
  <fix>3d</fix>
</trkpt>
<trkpt lat="33.810354" lon="-118.3938668">
  <ele>-7.939</ele>
  <time>2026-09-02T22:08:19Z</time>
  <course>357.2</course>
  <speed>0.0316227766016838</speed>
  <fix>3d</fix>
</trkpt>
<trkpt lat="33.8103542" lon="-118.3938671">
  <ele>-7.74</ele>
  <time>2026-09-02T22:08:19Z</time>
  <course>23.87</course>
  <speed>0.01</speed>
  <fix>3d</fix>
</trkpt>
<trkpt lat="33.810354" lon="-118.3938668">
  <ele>-7.941</ele>
  <time>2026-09-02T22:08:19Z</time>
  <course>357.2</course>
  <speed>0.0316227766016838</speed>
  <fix>3d</fix>
</trkpt>
<trkpt lat="33.8103543" lon="-118.3938671">
  <ele>-7.75</ele>
  <time>2026-09-02T22:08:19Z</time>
  <course>24.15</course>
  <speed>0.01</speed>
  <fix>3d</fix>
</trkpt>
<trkpt lat="33.810354" lon="-118.3938668">
  <ele>-7.942</ele>
  <time>2026-09-02T22:08:19Z</time>
  <course>357.2</course>
  <speed>0.0316227766016838</speed>
  <fix>3d</fix>
</trkpt>
<trkpt lat="33.8103543" lon="-118.3938671">
  <ele>-7.75</ele>
  <time>2026-09-02T22:08:19Z</time>
  <course>24.15</course>
  <speed>0.01</speed>
  <fix>3d</fix>
</trkpt>
<trkpt lat="33.810354" lon="-118.3938668">
  <ele>-7.943</ele>
  <time>2026-09-02T22:08:19Z</time>
  <course>357.2</course>
  <speed>0.0316227766016838</speed>
  <fix>3d</fix>
</trkpt>
<trkpt lat="33.8103543" lon="-118.3938671">
  <ele>-7.75</ele>
  <time>2026-09-02T22:08:19Z</time>
  <course>24.29</course>
  <speed>0.01</speed>
  <fix>3d</fix>
</trkpt>
<trkpt lat="33.810354" lon="-118.3938668">
  <ele>-7.943</ele>
  <time>2026-09-02T22:08:19Z</time>
  <course>357.2</course>
  <speed>0.0316227766016838</speed>
  <fix>3d</fix>
</trkpt>
<trkpt lat="33.8103543" lon="-118.3938671">
  <ele>-7.75</ele>
  <time>2026-09-02T22:08:19Z</time>
  <course>24.29</course>
  <speed>0.01</speed>
  <fix>3d</fix>
</trkpt>
<trkpt lat="33.810354" lon="-118.3938668">
  <ele>-7.943</ele>
  <time>2026-09-02T22:08:19Z</time>
  <course>357.19</course>
  <speed>0.0316227766016838</speed>
  <fix>3d</fix>
</trkpt>
<trkpt lat="33.8103543" lon="-118.3938671">
  <ele>-7.75</ele>
  <time>2026-09-02T22:08:19Z</time>
  <course>24.24</course>
  <speed>0.01</speed>
  <fix>3d</fix>
</trkpt>
<trkpt lat="33.810354" lon="-118.3938668">
  <ele>-7.942</ele>
  <time>2026-09-02T22:08:19Z</time>
  <course>357.19</course>
  <speed>0.0316227766016838</speed>
  <fix>3d</fix>
</trkpt>
<trkpt lat="33.8103543" lon="-118.3938671">
  <ele>-7.75</ele>
  <time>2026-09-02T22:08:19Z</time>
  <course>24.24</course>
  <speed>0.01</speed>
  <fix>3d</fix>
</trkpt>
<trkpt lat="33.810354" lon="-118.3938668">
  <ele>-7.942</ele>
  <time>2026-09-02T22:08:19Z</time>
  <course>357.19</course>
  <speed>0.0316227766016838</speed>
  <fix>3d</fix>
</trkpt>
<trkpt lat="33.8103543" lon="-118.3938671">
  <ele>-7.75</ele>
  <time>2026-09-02T22:08:19Z</time>
  <course>24.13</course>
  <speed>0.01</speed>
  <fix>3d</fix>
</trkpt>
<trkpt lat="33.810354" lon="-118.3938668">
  <ele>-7.941</ele>
  <time>2026-09-02T22:08:19Z</time>
  <course>357.19</course>
  <speed>0.0316227766016838</speed>
  <fix>3d</fix>
</trkpt>
<trkpt lat="33.8103543" lon="-118.3938671">
  <ele>-7.75</ele>
  <time>2026-09-02T22:08:19Z</time>
  <course>24.13</course>
  <speed>0.01</speed>
  <fix>3d</fix>
</trkpt>
<trkpt lat="33.8103541" lon="-118.3938668">
  <ele>-7.94</ele>
  <time>2026-09-02T22:08:19Z</time>
  <course>357.19</course>
  <speed>0.0316227766016838</speed>
  <fix>3d</fix>
</trkpt>
<trkpt lat="33.8103543" lon="-118.3938671">
  <ele>-7.74</ele>
  <time>2026-09-02T22:08:19Z</time>
  <course>24.18</course>
  <speed>0.01</speed>
  <fix>3d</fix>
</trkpt>
<trkpt lat="33.8103541" lon="-118.3938668">
  <ele>-7.939</ele>
  <time>2026-09-02T22:08:19Z</time>
  <course>357.19</course>
  <speed>0.0316227766016838</speed>
  <fix>3d</fix>
</trkpt>
<trkpt lat="33.8103543" lon="-118.3938671">
  <ele>-7.74</ele>
  <time>2026-09-02T22:08:19Z</time>
  <course>24.18</course>
  <speed>0.01</speed>
  <fix>3d</fix>
</trkpt>
<trkpt lat="33.8103541" lon="-118.3938668">
  <ele>-7.938</ele>
  <time>2026-09-02T22:08:19Z</time>
  <course>357.19</course>
  <speed>0.0316227766016838</speed>
  <fix>3d</fix>
</trkpt>
<trkpt lat="33.8103543" lon="-118.393867">
  <ele>-7.74</ele>
  <time>2026-09-02T22:08:19Z</time>
  <course>24.37</course>
  <speed>0.01</speed>
  <fix>3d</fix>
</trkpt>
<trkpt lat="33.8103541" lon="-118.3938668">
  <ele>-7.936</ele>
  <time>2026-09-02T22:08:19Z</time>
  <course>357.19</course>
  <speed>0.0316227766016838</speed>
  <fix>3d</fix>
</trkpt>
<trkpt lat="33.8103543" lon="-118.393867">
  <ele>-7.74</ele>
  <time>2026-09-02T22:08:19Z</time>
  <course>24.37</course>
  <speed>0.01</speed>
  <fix>3d</fix>
</trkpt>
<trkpt lat="33.8103541" lon="-118.3938668">
  <ele>-7.935</ele>
  <time>2026-09-02T22:08:19Z</time>
  <course>357.18</course>
  <speed>0.0316227766016838</speed>
  <fix>3d</fix>
</trkpt>
<trkpt lat="33.8103544" lon="-118.393867">
  <ele>-7.74</ele>
  <time>2026-09-02T22:08:19Z</time>
  <course>24.56</course>
  <speed>0.01</speed>
  <fix>3d</fix>
</trkpt>
<trkpt lat="33.8103541" lon="-118.3938668">
  <ele>-7.934</ele>
  <time>2026-09-02T22:08:19Z</time>
  <course>357.22</course>
  <speed>0.0316227766016838</speed>
  <fix>3d</fix>
</trkpt>
<trkpt lat="33.8103544" lon="-118.393867">
  <ele>-7.74</ele>
  <time>2026-09-02T22:08:19Z</time>
  <course>24.56</course>
  <speed>0.01</speed>
  <fix>3d</fix>
</trkpt>
<trkpt lat="33.8103541" lon="-118.3938667">
  <ele>-7.933</ele>
  <time>2026-09-02T22:08:19Z</time>
  <course>357.25</course>
  <speed>0.0316227766016838</speed>
  <fix>3d</fix>
</trkpt>
<trkpt lat="33.8103544" lon="-118.393867">
  <ele>-7.74</ele>
  <time>2026-09-02T22:08:19Z</time>
  <course>22.88</course>
  <speed>0.0</speed>
  <fix>3d</fix>
</trkpt>
<trkpt lat="33.8103541" lon="-118.3938667">
  <ele>-7.932</ele>
  <time>2026-09-02T22:08:19Z</time>
  <course>357.26</course>
  <speed>0.03605551275463989</speed>
  <fix>3d</fix>
</trkpt>
<trkpt lat="33.8103544" lon="-118.393867">
  <ele>-7.74</ele>
  <time>2026-09-02T22:08:19Z</time>
  <course>22.88</course>
  <speed>0.0</speed>
  <fix>3d</fix>
</trkpt>
<trkpt lat="33.8103541" lon="-118.3938667">
  <ele>-7.932</ele>
  <time>2026-09-02T22:08:19Z</time>
  <course>357.26</course>
  <speed>0.03605551275463989</speed>
  <fix>3d</fix>
</trkpt>
<trkpt lat="33.8103544" lon="-118.393867">
  <ele>-7.74</ele>
  <time>2026-09-02T22:08:19Z</time>
  <course>14.27</course>
  <speed>0.0</speed>
  <fix>3d</fix>
</trkpt>
<trkpt lat="33.8103541" lon="-118.3938667">
  <ele>-7.933</ele>
  <time>2026-09-02T22:08:19Z</time>
  <course>357.27</course>
  <speed>0.0282842712474619</speed>
  <fix>3d</fix>
</trkpt>
<trkpt lat="33.8103544" lon="-118.393867">
  <ele>-7.74</ele>
  <time>2026-09-02T22:08:19Z</time>
  <course>14.27</course>
  <speed>0.0</speed>
  <fix>3d</fix>
</trkpt>
<trkpt lat="33.8103541" lon="-118.3938667">
  <ele>-7.934</ele>
  <time>2026-09-02T22:08:19Z</time>
  <course>357.27</course>
  <speed>0.0282842712474619</speed>
  <fix>3d</fix>
</trkpt>
<trkpt lat="33.8103544" lon="-118.393867">
  <ele>-7.74</ele>
  <time>2026-09-02T22:08:19Z</time>
  <course>346.63</course>
  <speed>0.0</speed>
  <fix>3d</fix>
</trkpt>
<trkpt lat="33.8103541" lon="-118.3938667">
  <ele>-7.935</ele>
  <time>2026-09-02T22:08:19Z</time>
  <course>357.27</course>
  <speed>0.0282842712474619</speed>
  <fix>3d</fix>
</trkpt>
<trkpt lat="33.8103544" lon="-118.393867">
  <ele>-7.74</ele>
  <time>2026-09-02T22:08:19Z</time>
  <course>346.63</course>
  <speed>0.0</speed>
  <fix>3d</fix>
</trkpt>
<trkpt lat="33.8103541" lon="-118.3938667">
  <ele>-7.936</ele>
  <time>2026-09-02T22:08:19Z</time>
  <course>357.26</course>
  <speed>0.0282842712474619</speed>
  <fix>3d</fix>
</trkpt>
<trkpt lat="33.8103544" lon="-118.393867">
  <ele>-7.74</ele>
  <time>2026-09-02T22:08:19Z</time>
  <course>301.55</course>
  <speed>0.0</speed>
  <fix>3d</fix>
</trkpt>
<trkpt lat="33.8103541" lon="-118.3938667">
  <ele>-7.936</ele>
  <time>2026-09-02T22:08:19Z</time>
  <course>357.26</course>
  <speed>0.0282842712474619</speed>
  <fix>3d</fix>
</trkpt>
<trkpt lat="33.8103544" lon="-118.393867">
  <ele>-7.74</ele>
  <time>2026-09-02T22:08:19Z</time>
  <course>301.55</course>
  <speed>0.0</speed>
  <fix>3d</fix>
</trkpt>
<trkpt lat="33.8103541" lon="-118.3938667">
  <ele>-7.937</ele>
  <time>2026-09-02T22:08:19Z</time>
  <course>357.26</course>
  <speed>0.0282842712474619</speed>
  <fix>3d</fix>
</trkpt>
<trkpt lat="33.8103544" lon="-118.393867">
  <ele>-7.74</ele>
  <time>2026-09-02T22:08:19Z</time>
  <course>281.59</course>
  <speed>0.0</speed>
  <fix>3d</fix>
</trkpt>
<trkpt lat="33.8103541" lon="-118.3938668">
  <ele>-7.938</ele>
  <time>2026-09-02T22:08:19Z</time>
  <course>357.26</course>
  <speed>0.0282842712474619</speed>
  <fix>3d</fix>
</trkpt>
<trkpt lat="33.8103544" lon="-118.393867">
  <ele>-7.74</ele>
  <time>2026-09-02T22:08:19Z</time>
  <course>281.59</course>
  <speed>0.0</speed>
  <fix>3d</fix>
</trkpt>
<trkpt lat="33.8103541" lon="-118.3938668">
  <ele>-7.938</ele>
  <time>2026-09-02T22:08:19Z</time>
  <course>357.26</course>
  <speed>0.0282842712474619</speed>
  <fix>3d</fix>
</trkpt>
<trkpt lat="33.8103544" lon="-118.393867">
  <ele>-7.74</ele>
  <time>2026-09-02T22:08:19Z</time>
  <course>274.82</course>
  <speed>0.0</speed>
  <fix>3d</fix>
</trkpt>
<trkpt lat="33.8103541" lon="-118.3938668">
  <ele>-7.939</ele>
  <time>2026-09-02T22:08:19Z</time>
  <course>357.26</course>
  <speed>0.0282842712474619</speed>
  <fix>3d</fix>
</trkpt>
<trkpt lat="33.8103544" lon="-118.393867">
  <ele>-7.74</ele>
  <time>2026-09-02T22:08:19Z</time>
  <course>274.82</course>
  <speed>0.0</speed>
  <fix>3d</fix>
</trkpt>
<trkpt lat="33.8103541" lon="-118.3938668">
  <ele>-7.939</ele>
  <time>2026-09-02T22:08:19Z</time>
  <course>357.26</course>
  <speed>0.0282842712474619</speed>
  <fix>3d</fix>
</trkpt>
<trkpt lat="33.8103544" lon="-118.393867">
  <ele>-7.74</ele>
  <time>2026-09-02T22:08:19Z</time>
  <course>269.74</course>
  <speed>0.0</speed>
  <fix>3d</fix>
</trkpt>
<trkpt lat="33.8103541" lon="-118.3938668">
  <ele>-7.939</ele>
  <time>2026-09-02T22:08:19Z</time>
  <course>357.26</course>
  <speed>0.0282842712474619</speed>
  <fix>3d</fix>
</trkpt>
<trkpt lat="33.8103544" lon="-118.393867">
  <ele>-7.74</ele>
  <time>2026-09-02T22:08:19Z</time>
  <course>269.74</course>
  <speed>0.0</speed>
  <fix>3d</fix>
</trkpt>
<trkpt lat="33.8103541" lon="-118.3938668">
  <ele>-7.939</ele>
  <time>2026-09-02T22:08:19Z</time>
  <course>357.26</course>
  <speed>0.0282842712474619</speed>
  <fix>3d</fix>
</trkpt>
<trkpt lat="33.8103544" lon="-118.393867">
  <ele>-7.74</ele>
  <time>2026-09-02T22:08:19Z</time>
  <course>267.44</course>
  <speed>0.0</speed>
  <fix>3d</fix>
</trkpt>
<trkpt lat="33.8103541" lon="-118.3938668">
  <ele>-7.939</ele>
  <time>2026-09-02T22:08:19Z</time>
  <course>357.26</course>
  <speed>0.0282842712474619</speed>
  <fix>3d</fix>
</trkpt>
<trkpt lat="33.8103544" lon="-118.393867">
  <ele>-7.74</ele>
  <time>2026-09-02T22:08:19Z</time>
  <course>267.44</course>
  <speed>0.0</speed>
  <fix>3d</fix>
</trkpt>
<trkpt lat="33.8103541" lon="-118.3938668">
  <ele>-7.939</ele>
  <time>2026-09-02T22:08:19Z</time>
  <course>357.26</course>
  <speed>0.0282842712474619</speed>
  <fix>3d</fix>
</trkpt>
<trkpt lat="33.8103544" lon="-118.393867">
  <ele>-7.74</ele>
  <time>2026-09-02T22:08:19Z</time>
  <course>266.7</course>
  <speed>0.0</speed>
  <fix>3d</fix>
</trkpt>
<trkpt lat="33.8103541" lon="-118.3938668">
  <ele>-7.939</ele>
  <time>2026-09-02T22:08:19Z</time>
  <course>357.26</course>
  <speed>0.0282842712474619</speed>
  <fix>3d</fix>
</trkpt>
<trkpt lat="33.8103544" lon="-118.393867">
  <ele>-7.74</ele>
  <time>2026-09-02T22:08:19Z</time>
  <course>266.7</course>
  <speed>0.0</speed>
  <fix>3d</fix>
</trkpt>
<trkpt lat="33.8103541" lon="-118.3938668">
  <ele>-7.939</ele>
  <time>2026-09-02T22:08:19Z</time>
  <course>357.25</course>
  <speed>0.0282842712474619</speed>
  <fix>3d</fix>
</trkpt>
<trkpt lat="33.8103544" lon="-118.393867">
  <ele>-7.74</ele>
  <time>2026-09-02T22:08:19Z</time>
  <course>266.7</course>
  <speed>0.0</speed>
  <fix>3d</fix>
</trkpt>
<trkpt lat="33.8103541" lon="-118.3938668">
  <ele>-7.94</ele>
  <time>2026-09-02T22:08:19Z</time>
  <course>357.25</course>
  <speed>0.0282842712474619</speed>
  <fix>3d</fix>
</trkpt>
<trkpt lat="33.8103544" lon="-118.393867">
  <ele>-7.74</ele>
  <time>2026-09-02T22:08:19Z</time>
  <course>266.7</course>
  <speed>0.0</speed>
  <fix>3d</fix>
</trkpt>
<trkpt lat="33.8103541" lon="-118.3938668">
  <ele>-7.94</ele>
  <time>2026-09-02T22:08:19Z</time>
  <course>357.25</course>
  <speed>0.0282842712474619</speed>
  <fix>3d</fix>
</trkpt>
<trkpt lat="33.8103544" lon="-118.393867">
  <ele>-7.75</ele>
  <time>2026-09-02T22:08:19Z</time>
  <course>266.7</course>
  <speed>0.0</speed>
  <fix>3d</fix>
</trkpt>
<trkpt lat="33.8103541" lon="-118.3938668">
  <ele>-7.941</ele>
  <time>2026-09-02T22:08:19Z</time>
  <course>357.25</course>
  <speed>0.0282842712474619</speed>
  <fix>3d</fix>
</trkpt>
<trkpt lat="33.8103544" lon="-118.393867">
  <ele>-7.75</ele>
  <time>2026-09-02T22:08:19Z</time>
  <course>266.7</course>
  <speed>0.0</speed>
  <fix>3d</fix>
</trkpt>
<trkpt lat="33.8103541" lon="-118.3938668">
  <ele>-7.942</ele>
  <time>2026-09-02T22:08:19Z</time>
  <course>357.25</course>
  <speed>0.0282842712474619</speed>
  <fix>3d</fix>
</trkpt>
<trkpt lat="33.8103544" lon="-118.393867">
  <ele>-7.75</ele>
  <time>2026-09-02T22:08:19Z</time>
  <course>266.71</course>
  <speed>0.0</speed>
  <fix>3d</fix>
</trkpt>
<trkpt lat="33.8103541" lon="-118.3938668">
  <ele>-7.944</ele>
  <time>2026-09-02T22:08:19Z</time>
  <course>357.25</course>
  <speed>0.0282842712474619</speed>
  <fix>3d</fix>
</trkpt>
<trkpt lat="33.8103544" lon="-118.393867">
  <ele>-7.75</ele>
  <time>2026-09-02T22:08:19Z</time>
  <course>266.71</course>
  <speed>0.0</speed>
  <fix>3d</fix>
</trkpt>
<trkpt lat="33.8103541" lon="-118.3938668">
  <ele>-7.945</ele>
  <time>2026-09-02T22:08:19Z</time>
  <course>357.25</course>
  <speed>0.0282842712474619</speed>
  <fix>3d</fix>
</trkpt>
<trkpt lat="33.8103544" lon="-118.393867">
  <ele>-7.75</ele>
  <time>2026-09-02T22:08:19Z</time>
  <course>266.71</course>
  <speed>0.0</speed>
  <fix>3d</fix>
</trkpt>
<trkpt lat="33.8103541" lon="-118.3938668">
  <ele>-7.946</ele>
  <time>2026-09-02T22:08:20Z</time>
  <course>357.25</course>
  <speed>0.0282842712474619</speed>
  <fix>3d</fix>
</trkpt>
<trkpt lat="33.8103544" lon="-118.393867">
  <ele>-7.75</ele>
  <time>2026-09-02T22:08:20Z</time>
  <course>266.71</course>
  <speed>0.0</speed>
  <fix>3d</fix>
</trkpt>
<trkpt lat="33.8103541" lon="-118.3938668">
  <ele>-7.946</ele>
  <time>2026-09-02T22:08:20Z</time>
  <course>357.24</course>
  <speed>0.0282842712474619</speed>
  <fix>3d</fix>
</trkpt>
<trkpt lat="33.8103544" lon="-118.393867">
  <ele>-7.75</ele>
  <time>2026-09-02T22:08:20Z</time>
  <course>266.71</course>
  <speed>0.0</speed>
  <fix>3d</fix>
</trkpt>
<trkpt lat="33.8103541" lon="-118.3938668">
  <ele>-7.947</ele>
  <time>2026-09-02T22:08:20Z</time>
  <course>357.24</course>
  <speed>0.0282842712474619</speed>
  <fix>3d</fix>
</trkpt>
<trkpt lat="33.8103544" lon="-118.393867">
  <ele>-7.75</ele>
  <time>2026-09-02T22:08:20Z</time>
  <course>266.71</course>
  <speed>0.0</speed>
  <fix>3d</fix>
</trkpt>
<trkpt lat="33.8103541" lon="-118.3938668">
  <ele>-7.948</ele>
  <time>2026-09-02T22:08:20Z</time>
  <course>357.24</course>
  <speed>0.0282842712474619</speed>
  <fix>3d</fix>
</trkpt>
<trkpt lat="33.8103544" lon="-118.393867">
  <ele>-7.75</ele>
  <time>2026-09-02T22:08:20Z</time>
  <course>266.71</course>
  <speed>0.0</speed>
  <fix>3d</fix>
</trkpt>
<trkpt lat="33.8103541" lon="-118.3938668">
  <ele>-7.948</ele>
  <time>2026-09-02T22:08:20Z</time>
  <course>357.24</course>
  <speed>0.0282842712474619</speed>
  <fix>3d</fix>
</trkpt>
<trkpt lat="33.8103544" lon="-118.393867">
  <ele>-7.75</ele>
  <time>2026-09-02T22:08:20Z</time>
  <course>266.71</course>
  <speed>0.0</speed>
  <fix>3d</fix>
</trkpt>
<trkpt lat="33.8103541" lon="-118.3938668">
  <ele>-7.949</ele>
  <time>2026-09-02T22:08:20Z</time>
  <course>357.24</course>
  <speed>0.0282842712474619</speed>
  <fix>3d</fix>
</trkpt>
<trkpt lat="33.8103544" lon="-118.393867">
  <ele>-7.75</ele>
  <time>2026-09-02T22:08:20Z</time>
  <course>266.71</course>
  <speed>0.0</speed>
  <fix>3d</fix>
</trkpt>
<trkpt lat="33.8103541" lon="-118.3938668">
  <ele>-7.949</ele>
  <time>2026-09-02T22:08:20Z</time>
  <course>357.23</course>
  <speed>0.0282842712474619</speed>
  <fix>3d</fix>
</trkpt>
<trkpt lat="33.8103544" lon="-118.393867">
  <ele>-7.75</ele>
  <time>2026-09-02T22:08:20Z</time>
  <course>266.71</course>
  <speed>0.0</speed>
  <fix>3d</fix>
</trkpt>
<trkpt lat="33.8103541" lon="-118.3938668">
  <ele>-7.949</ele>
  <time>2026-09-02T22:08:20Z</time>
  <course>357.23</course>
  <speed>0.0282842712474619</speed>
  <fix>3d</fix>
</trkpt>
<trkpt lat="33.8103544" lon="-118.393867">
  <ele>-7.75</ele>
  <time>2026-09-02T22:08:20Z</time>
  <course>266.71</course>
  <speed>0.0</speed>
  <fix>3d</fix>
</trkpt>
<trkpt lat="33.8103541" lon="-118.3938668">
  <ele>-7.949</ele>
  <time>2026-09-02T22:08:20Z</time>
  <course>357.23</course>
  <speed>0.0282842712474619</speed>
  <fix>3d</fix>
</trkpt>
<trkpt lat="33.8103544" lon="-118.393867">
  <ele>-7.75</ele>
  <time>2026-09-02T22:08:20Z</time>
  <course>266.71</course>
  <speed>0.0</speed>
  <fix>3d</fix>
</trkpt>
<trkpt lat="33.8103541" lon="-118.3938668">
  <ele>-7.949</ele>
  <time>2026-09-02T22:08:20Z</time>
  <course>357.23</course>
  <speed>0.0282842712474619</speed>
  <fix>3d</fix>
</trkpt>
<trkpt lat="33.8103544" lon="-118.393867">
  <ele>-7.75</ele>
  <time>2026-09-02T22:08:20Z</time>
  <course>266.71</course>
  <speed>0.0</speed>
  <fix>3d</fix>
</trkpt>
<trkpt lat="33.8103541" lon="-118.3938668">
  <ele>-7.949</ele>
  <time>2026-09-02T22:08:20Z</time>
  <course>357.23</course>
  <speed>0.0282842712474619</speed>
  <fix>3d</fix>
</trkpt>
<trkpt lat="33.8103544" lon="-118.393867">
  <ele>-7.75</ele>
  <time>2026-09-02T22:08:20Z</time>
  <course>266.71</course>
  <speed>0.0</speed>
  <fix>3d</fix>
</trkpt>
<trkpt lat="33.8103541" lon="-118.3938668">
  <ele>-7.949</ele>
  <time>2026-09-02T22:08:20Z</time>
  <course>357.22</course>
  <speed>0.0282842712474619</speed>
  <fix>3d</fix>
</trkpt>
<trkpt lat="33.8103544" lon="-118.393867">
  <ele>-7.75</ele>
  <time>2026-09-02T22:08:20Z</time>
  <course>266.71</course>
  <speed>0.0</speed>
  <fix>3d</fix>
</trkpt>
<trkpt lat="33.8103541" lon="-118.3938668">
  <ele>-7.949</ele>
  <time>2026-09-02T22:08:20Z</time>
  <course>357.22</course>
  <speed>0.0282842712474619</speed>
  <fix>3d</fix>
</trkpt>
<trkpt lat="33.8103544" lon="-118.393867">
  <ele>-7.75</ele>
  <time>2026-09-02T22:08:20Z</time>
  <course>266.71</course>
  <speed>0.0</speed>
  <fix>3d</fix>
</trkpt>
<trkpt lat="33.8103541" lon="-118.3938668">
  <ele>-7.95</ele>
  <time>2026-09-02T22:08:20Z</time>
  <course>357.22</course>
  <speed>0.0282842712474619</speed>
  <fix>3d</fix>
</trkpt>
<trkpt lat="33.8103544" lon="-118.3938671">
  <ele>-7.75</ele>
  <time>2026-09-02T22:08:20Z</time>
  <course>266.71</course>
  <speed>0.0</speed>
  <fix>3d</fix>
</trkpt>
<trkpt lat="33.8103541" lon="-118.3938668">
  <ele>-7.951</ele>
  <time>2026-09-02T22:08:20Z</time>
  <course>357.22</course>
  <speed>0.0282842712474619</speed>
  <fix>3d</fix>
</trkpt>
<trkpt lat="33.8103544" lon="-118.3938671">
  <ele>-7.75</ele>
  <time>2026-09-02T22:08:20Z</time>
  <course>266.71</course>
  <speed>0.0</speed>
  <fix>3d</fix>
</trkpt>
<trkpt lat="33.8103541" lon="-118.3938668">
  <ele>-7.952</ele>
  <time>2026-09-02T22:08:20Z</time>
  <course>357.21</course>
  <speed>0.0282842712474619</speed>
  <fix>3d</fix>
</trkpt>
<trkpt lat="33.8103544" lon="-118.3938671">
  <ele>-7.76</ele>
  <time>2026-09-02T22:08:20Z</time>
  <course>266.71</course>
  <speed>0.0</speed>
  <fix>3d</fix>
</trkpt>
<trkpt lat="33.8103541" lon="-118.3938668">
  <ele>-7.953</ele>
  <time>2026-09-02T22:08:20Z</time>
  <course>357.21</course>
  <speed>0.0282842712474619</speed>
  <fix>3d</fix>
</trkpt>
<trkpt lat="33.8103544" lon="-118.3938671">
  <ele>-7.76</ele>
  <time>2026-09-02T22:08:20Z</time>
  <course>266.71</course>
  <speed>0.0</speed>
  <fix>3d</fix>
</trkpt>
<trkpt lat="33.8103541" lon="-118.3938668">
  <ele>-7.954</ele>
  <time>2026-09-02T22:08:20Z</time>
  <course>357.21</course>
  <speed>0.0282842712474619</speed>
  <fix>3d</fix>
</trkpt>
<trkpt lat="33.8103544" lon="-118.3938671">
  <ele>-7.76</ele>
  <time>2026-09-02T22:08:20Z</time>
  <course>266.72</course>
  <speed>0.0</speed>
  <fix>3d</fix>
</trkpt>
<trkpt lat="33.8103541" lon="-118.3938668">
  <ele>-7.955</ele>
  <time>2026-09-02T22:08:20Z</time>
  <course>357.2</course>
  <speed>0.0282842712474619</speed>
  <fix>3d</fix>
</trkpt>
<trkpt lat="33.8103544" lon="-118.3938671">
  <ele>-7.76</ele>
  <time>2026-09-02T22:08:20Z</time>
  <course>266.72</course>
  <speed>0.0</speed>
  <fix>3d</fix>
</trkpt>
<trkpt lat="33.8103541" lon="-118.3938668">
  <ele>-7.956</ele>
  <time>2026-09-02T22:08:20Z</time>
  <course>357.2</course>
  <speed>0.0282842712474619</speed>
  <fix>3d</fix>
</trkpt>
<trkpt lat="33.8103544" lon="-118.3938671">
  <ele>-7.76</ele>
  <time>2026-09-02T22:08:20Z</time>
  <course>266.72</course>
  <speed>0.0</speed>
  <fix>3d</fix>
</trkpt>
<trkpt lat="33.8103541" lon="-118.3938668">
  <ele>-7.957</ele>
  <time>2026-09-02T22:08:20Z</time>
  <course>357.2</course>
  <speed>0.0282842712474619</speed>
  <fix>3d</fix>
</trkpt>
<trkpt lat="33.8103544" lon="-118.3938671">
  <ele>-7.76</ele>
  <time>2026-09-02T22:08:20Z</time>
  <course>266.72</course>
  <speed>0.0</speed>
  <fix>3d</fix>
</trkpt>
<trkpt lat="33.8103541" lon="-118.3938668">
  <ele>-7.957</ele>
  <time>2026-09-02T22:08:20Z</time>
  <course>357.19</course>
  <speed>0.0282842712474619</speed>
  <fix>3d</fix>
</trkpt>
<trkpt lat="33.8103544" lon="-118.3938671">
  <ele>-7.76</ele>
  <time>2026-09-02T22:08:20Z</time>
  <course>266.72</course>
  <speed>0.0</speed>
  <fix>3d</fix>
</trkpt>
<trkpt lat="33.8103541" lon="-118.3938668">
  <ele>-7.958</ele>
  <time>2026-09-02T22:08:20Z</time>
  <course>357.19</course>
  <speed>0.0282842712474619</speed>
  <fix>3d</fix>
</trkpt>
<trkpt lat="33.8103544" lon="-118.3938671">
  <ele>-7.76</ele>
  <time>2026-09-02T22:08:20Z</time>
  <course>266.72</course>
  <speed>0.0</speed>
  <fix>3d</fix>
</trkpt>
<trkpt lat="33.8103541" lon="-118.3938668">
  <ele>-7.958</ele>
  <time>2026-09-02T22:08:20Z</time>
  <course>357.19</course>
  <speed>0.0282842712474619</speed>
  <fix>3d</fix>
</trkpt>
<trkpt lat="33.8103544" lon="-118.3938671">
  <ele>-7.76</ele>
  <time>2026-09-02T22:08:20Z</time>
  <course>266.72</course>
  <speed>0.0</speed>
  <fix>3d</fix>
</trkpt>
<trkpt lat="33.8103541" lon="-118.3938668">
  <ele>-7.958</ele>
  <time>2026-09-02T22:08:20Z</time>
  <course>357.18</course>
  <speed>0.0282842712474619</speed>
  <fix>3d</fix>
</trkpt>
<trkpt lat="33.8103544" lon="-118.3938671">
  <ele>-7.76</ele>
  <time>2026-09-02T22:08:20Z</time>
  <course>266.72</course>
  <speed>0.0</speed>
  <fix>3d</fix>
</trkpt>
<trkpt lat="33.8103541" lon="-118.3938668">
  <ele>-7.958</ele>
  <time>2026-09-02T22:08:20Z</time>
  <course>357.18</course>
  <speed>0.0282842712474619</speed>
  <fix>3d</fix>
</trkpt>
<trkpt lat="33.8103544" lon="-118.3938671">
  <ele>-7.76</ele>
  <time>2026-09-02T22:08:20Z</time>
  <course>266.72</course>
  <speed>0.0</speed>
  <fix>3d</fix>
</trkpt>
<trkpt lat="33.8103541" lon="-118.3938668">
  <ele>-7.958</ele>
  <time>2026-09-02T22:08:20Z</time>
  <course>357.18</course>
  <speed>0.0282842712474619</speed>
  <fix>3d</fix>
</trkpt>
<trkpt lat="33.8103544" lon="-118.3938671">
  <ele>-7.76</ele>
  <time>2026-09-02T22:08:20Z</time>
  <course>266.72</course>
  <speed>0.0</speed>
  <fix>3d</fix>
</trkpt>
<trkpt lat="33.8103541" lon="-118.3938668">
  <ele>-7.958</ele>
  <time>2026-09-02T22:08:20Z</time>
  <course>357.17</course>
  <speed>0.0282842712474619</speed>
  <fix>3d</fix>
</trkpt>
<trkpt lat="33.8103544" lon="-118.3938671">
  <ele>-7.76</ele>
  <time>2026-09-02T22:08:20Z</time>
  <course>266.72</course>
  <speed>0.0</speed>
  <fix>3d</fix>
</trkpt>
<trkpt lat="33.8103541" lon="-118.3938668">
  <ele>-7.957</ele>
  <time>2026-09-02T22:08:20Z</time>
  <course>357.17</course>
  <speed>0.0282842712474619</speed>
  <fix>3d</fix>
</trkpt>
<trkpt lat="33.8103544" lon="-118.3938671">
  <ele>-7.76</ele>
  <time>2026-09-02T22:08:20Z</time>
  <course>266.72</course>
  <speed>0.0</speed>
  <fix>3d</fix>
</trkpt>
<trkpt lat="33.8103541" lon="-118.3938668">
  <ele>-7.957</ele>
  <time>2026-09-02T22:08:20Z</time>
  <course>357.17</course>
  <speed>0.0282842712474619</speed>
  <fix>3d</fix>
</trkpt>
<trkpt lat="33.8103544" lon="-118.3938671">
  <ele>-7.76</ele>
  <time>2026-09-02T22:08:20Z</time>
  <course>266.72</course>
  <speed>0.0</speed>
  <fix>3d</fix>
</trkpt>
<trkpt lat="33.8103541" lon="-118.3938668">
  <ele>-7.957</ele>
  <time>2026-09-02T22:08:20Z</time>
  <course>357.16</course>
  <speed>0.0282842712474619</speed>
  <fix>3d</fix>
</trkpt>
<trkpt lat="33.8103544" lon="-118.3938671">
  <ele>-7.76</ele>
  <time>2026-09-02T22:08:20Z</time>
  <course>266.72</course>
  <speed>0.0</speed>
  <fix>3d</fix>
</trkpt>
<trkpt lat="33.8103541" lon="-118.3938668">
  <ele>-7.956</ele>
  <time>2026-09-02T22:08:20Z</time>
  <course>357.16</course>
  <speed>0.0282842712474619</speed>
  <fix>3d</fix>
</trkpt>
<trkpt lat="33.8103544" lon="-118.3938671">
  <ele>-7.76</ele>
  <time>2026-09-02T22:08:20Z</time>
  <course>266.72</course>
  <speed>0.0</speed>
  <fix>3d</fix>
</trkpt>
<trkpt lat="33.8103541" lon="-118.3938668">
  <ele>-7.956</ele>
  <time>2026-09-02T22:08:20Z</time>
  <course>357.16</course>
  <speed>0.0282842712474619</speed>
  <fix>3d</fix>
</trkpt>
<trkpt lat="33.8103544" lon="-118.3938671">
  <ele>-7.76</ele>
  <time>2026-09-02T22:08:20Z</time>
  <course>266.72</course>
  <speed>0.0</speed>
  <fix>3d</fix>
</trkpt>
<trkpt lat="33.8103541" lon="-118.3938668">
  <ele>-7.956</ele>
  <time>2026-09-02T22:08:20Z</time>
  <course>357.15</course>
  <speed>0.0282842712474619</speed>
  <fix>3d</fix>
</trkpt>
<trkpt lat="33.8103544" lon="-118.3938671">
  <ele>-7.76</ele>
  <time>2026-09-02T22:08:20Z</time>
  <course>266.73</course>
  <speed>0.0</speed>
  <fix>3d</fix>
</trkpt>
<trkpt lat="33.8103541" lon="-118.3938668">
  <ele>-7.955</ele>
  <time>2026-09-02T22:08:20Z</time>
  <course>357.15</course>
  <speed>0.0282842712474619</speed>
  <fix>3d</fix>
</trkpt>
<trkpt lat="33.8103544" lon="-118.3938671">
  <ele>-7.76</ele>
  <time>2026-09-02T22:08:20Z</time>
  <course>266.73</course>
  <speed>0.0</speed>
  <fix>3d</fix>
</trkpt>
<trkpt lat="33.8103541" lon="-118.3938668">
  <ele>-7.955</ele>
  <time>2026-09-02T22:08:20Z</time>
  <course>357.15</course>
  <speed>0.0282842712474619</speed>
  <fix>3d</fix>
</trkpt>
<trkpt lat="33.8103544" lon="-118.3938671">
  <ele>-7.76</ele>
  <time>2026-09-02T22:08:20Z</time>
  <course>266.73</course>
  <speed>0.0</speed>
  <fix>3d</fix>
</trkpt>
<trkpt lat="33.8103541" lon="-118.3938668">
  <ele>-7.955</ele>
  <time>2026-09-02T22:08:20Z</time>
  <course>357.14</course>
  <speed>0.0282842712474619</speed>
  <fix>3d</fix>
</trkpt>
<trkpt lat="33.8103544" lon="-118.3938671">
  <ele>-7.76</ele>
  <time>2026-09-02T22:08:20Z</time>
  <course>266.73</course>
  <speed>0.0</speed>
  <fix>3d</fix>
</trkpt>
<trkpt lat="33.8103541" lon="-118.3938668">
  <ele>-7.955</ele>
  <time>2026-09-02T22:08:20Z</time>
  <course>357.14</course>
  <speed>0.0282842712474619</speed>
  <fix>3d</fix>
</trkpt>
<trkpt lat="33.8103544" lon="-118.3938672">
  <ele>-7.76</ele>
  <time>2026-09-02T22:08:20Z</time>
  <course>266.73</course>
  <speed>0.0</speed>
  <fix>3d</fix>
</trkpt>
<trkpt lat="33.8103541" lon="-118.3938668">
  <ele>-7.955</ele>
  <time>2026-09-02T22:08:20Z</time>
  <course>357.13</course>
  <speed>0.0282842712474619</speed>
  <fix>3d</fix>
</trkpt>
<trkpt lat="33.8103544" lon="-118.3938672">
  <ele>-7.76</ele>
  <time>2026-09-02T22:08:20Z</time>
  <course>266.73</course>
  <speed>0.0</speed>
  <fix>3d</fix>
</trkpt>
<trkpt lat="33.8103541" lon="-118.3938668">
  <ele>-7.955</ele>
  <time>2026-09-02T22:08:20Z</time>
  <course>357.13</course>
  <speed>0.0282842712474619</speed>
  <fix>3d</fix>
</trkpt>
<trkpt lat="33.8103544" lon="-118.3938672">
  <ele>-7.76</ele>
  <time>2026-09-02T22:08:20Z</time>
  <course>266.73</course>
  <speed>0.0</speed>
  <fix>3d</fix>
</trkpt>
<trkpt lat="33.8103541" lon="-118.3938668">
  <ele>-7.954</ele>
  <time>2026-09-02T22:08:20Z</time>
  <course>357.13</course>
  <speed>0.0282842712474619</speed>
  <fix>3d</fix>
</trkpt>
<trkpt lat="33.8103544" lon="-118.3938672">
  <ele>-7.76</ele>
  <time>2026-09-02T22:08:20Z</time>
  <course>266.73</course>
  <speed>0.0</speed>
  <fix>3d</fix>
</trkpt>
<trkpt lat="33.8103541" lon="-118.3938668">
  <ele>-7.954</ele>
  <time>2026-09-02T22:08:20Z</time>
  <course>357.12</course>
  <speed>0.0282842712474619</speed>
  <fix>3d</fix>
</trkpt>
<trkpt lat="33.8103544" lon="-118.3938672">
  <ele>-7.76</ele>
  <time>2026-09-02T22:08:20Z</time>
  <course>266.73</course>
  <speed>0.0</speed>
  <fix>3d</fix>
</trkpt>
<trkpt lat="33.8103541" lon="-118.3938668">
  <ele>-7.954</ele>
  <time>2026-09-02T22:08:20Z</time>
  <course>357.12</course>
  <speed>0.0282842712474619</speed>
  <fix>3d</fix>
</trkpt>
<trkpt lat="33.8103544" lon="-118.3938672">
  <ele>-7.76</ele>
  <time>2026-09-02T22:08:20Z</time>
  <course>266.73</course>
  <speed>0.0</speed>
  <fix>3d</fix>
</trkpt>
<trkpt lat="33.8103541" lon="-118.3938668">
  <ele>-7.954</ele>
  <time>2026-09-02T22:08:20Z</time>
  <course>357.12</course>
  <speed>0.0282842712474619</speed>
  <fix>3d</fix>
</trkpt>
<trkpt lat="33.8103544" lon="-118.3938672">
  <ele>-7.76</ele>
  <time>2026-09-02T22:08:20Z</time>
  <course>266.73</course>
  <speed>0.0</speed>
  <fix>3d</fix>
</trkpt>
<trkpt lat="33.8103541" lon="-118.3938668">
  <ele>-7.954</ele>
  <time>2026-09-02T22:08:20Z</time>
  <course>357.11</course>
  <speed>0.0282842712474619</speed>
  <fix>3d</fix>
</trkpt>
<trkpt lat="33.8103544" lon="-118.3938672">
  <ele>-7.76</ele>
  <time>2026-09-02T22:08:20Z</time>
  <course>266.73</course>
  <speed>0.0</speed>
  <fix>3d</fix>
</trkpt>
<trkpt lat="33.8103541" lon="-118.3938668">
  <ele>-7.954</ele>
  <time>2026-09-02T22:08:20Z</time>
  <course>357.11</course>
  <speed>0.0282842712474619</speed>
  <fix>3d</fix>
</trkpt>
<trkpt lat="33.8103544" lon="-118.3938672">
  <ele>-7.76</ele>
  <time>2026-09-02T22:08:20Z</time>
  <course>266.74</course>
  <speed>0.0</speed>
  <fix>3d</fix>
</trkpt>
<trkpt lat="33.8103541" lon="-118.3938668">
  <ele>-7.954</ele>
  <time>2026-09-02T22:08:20Z</time>
  <course>357.1</course>
  <speed>0.0282842712474619</speed>
  <fix>3d</fix>
</trkpt>
<trkpt lat="33.8103544" lon="-118.3938672">
  <ele>-7.76</ele>
  <time>2026-09-02T22:08:20Z</time>
  <course>266.74</course>
  <speed>0.0</speed>
  <fix>3d</fix>
</trkpt>
<trkpt lat="33.8103541" lon="-118.3938668">
  <ele>-7.955</ele>
  <time>2026-09-02T22:08:20Z</time>
  <course>357.1</course>
  <speed>0.0282842712474619</speed>
  <fix>3d</fix>
</trkpt>
<trkpt lat="33.8103544" lon="-118.3938672">
  <ele>-7.76</ele>
  <time>2026-09-02T22:08:20Z</time>
  <course>266.74</course>
  <speed>0.0</speed>
  <fix>3d</fix>
</trkpt>
<trkpt lat="33.8103541" lon="-118.3938668">
  <ele>-7.955</ele>
  <time>2026-09-02T22:08:20Z</time>
  <course>357.1</course>
  <speed>0.0282842712474619</speed>
  <fix>3d</fix>
</trkpt>
<trkpt lat="33.8103544" lon="-118.3938672">
  <ele>-7.76</ele>
  <time>2026-09-02T22:08:20Z</time>
  <course>266.74</course>
  <speed>0.0</speed>
  <fix>3d</fix>
</trkpt>
<trkpt lat="33.8103541" lon="-118.3938668">
  <ele>-7.955</ele>
  <time>2026-09-02T22:08:20Z</time>
  <course>357.09</course>
  <speed>0.0282842712474619</speed>
  <fix>3d</fix>
</trkpt>
<trkpt lat="33.8103544" lon="-118.3938672">
  <ele>-7.76</ele>
  <time>2026-09-02T22:08:20Z</time>
  <course>266.74</course>
  <speed>0.0</speed>
  <fix>3d</fix>
</trkpt>
<trkpt lat="33.8103541" lon="-118.3938668">
  <ele>-7.955</ele>
  <time>2026-09-02T22:08:20Z</time>
  <course>357.09</course>
  <speed>0.0282842712474619</speed>
  <fix>3d</fix>
</trkpt>
<trkpt lat="33.8103544" lon="-118.3938672">
  <ele>-7.76</ele>
  <time>2026-09-02T22:08:20Z</time>
  <course>266.74</course>
  <speed>0.0</speed>
  <fix>3d</fix>
</trkpt>
<trkpt lat="33.8103541" lon="-118.3938668">
  <ele>-7.955</ele>
  <time>2026-09-02T22:08:20Z</time>
  <course>357.08</course>
  <speed>0.0282842712474619</speed>
  <fix>3d</fix>
</trkpt>
<trkpt lat="33.8103544" lon="-118.3938672">
  <ele>-7.76</ele>
  <time>2026-09-02T22:08:20Z</time>
  <course>266.74</course>
  <speed>0.0</speed>
  <fix>3d</fix>
</trkpt>
<trkpt lat="33.8103541" lon="-118.3938669">
  <ele>-7.955</ele>
  <time>2026-09-02T22:08:20Z</time>
  <course>357.08</course>
  <speed>0.0282842712474619</speed>
  <fix>3d</fix>
</trkpt>
<trkpt lat="33.8103544" lon="-118.3938672">
  <ele>-7.76</ele>
  <time>2026-09-02T22:08:20Z</time>
  <course>266.74</course>
  <speed>0.0</speed>
  <fix>3d</fix>
</trkpt>
<trkpt lat="33.8103541" lon="-118.3938669">
  <ele>-7.955</ele>
  <time>2026-09-02T22:08:20Z</time>
  <course>357.08</course>
  <speed>0.0282842712474619</speed>
  <fix>3d</fix>
</trkpt>
<trkpt lat="33.8103544" lon="-118.3938672">
  <ele>-7.76</ele>
  <time>2026-09-02T22:08:20Z</time>
  <course>266.74</course>
  <speed>0.0</speed>
  <fix>3d</fix>
</trkpt>
<trkpt lat="33.8103541" lon="-118.3938669">
  <ele>-7.955</ele>
  <time>2026-09-02T22:08:20Z</time>
  <course>357.07</course>
  <speed>0.0282842712474619</speed>
  <fix>3d</fix>
</trkpt>
<trkpt lat="33.8103544" lon="-118.3938672">
  <ele>-7.76</ele>
  <time>2026-09-02T22:08:20Z</time>
  <course>266.74</course>
  <speed>0.0</speed>
  <fix>3d</fix>
</trkpt>
<trkpt lat="33.8103541" lon="-118.3938669">
  <ele>-7.955</ele>
  <time>2026-09-02T22:08:20Z</time>
  <course>357.07</course>
  <speed>0.0282842712474619</speed>
  <fix>3d</fix>
</trkpt>
<trkpt lat="33.8103544" lon="-118.3938672">
  <ele>-7.76</ele>
  <time>2026-09-02T22:08:20Z</time>
  <course>266.74</course>
  <speed>0.0</speed>
  <fix>3d</fix>
</trkpt>
<trkpt lat="33.8103541" lon="-118.3938669">
  <ele>-7.955</ele>
  <time>2026-09-02T22:08:20Z</time>
  <course>357.06</course>
  <speed>0.0282842712474619</speed>
  <fix>3d</fix>
</trkpt>
<trkpt lat="33.8103544" lon="-118.3938672">
  <ele>-7.76</ele>
  <time>2026-09-02T22:08:20Z</time>
  <course>266.74</course>
  <speed>0.0</speed>
  <fix>3d</fix>
</trkpt>
<trkpt lat="33.8103541" lon="-118.3938669">
  <ele>-7.955</ele>
  <time>2026-09-02T22:08:20Z</time>
  <course>357.06</course>
  <speed>0.0282842712474619</speed>
  <fix>3d</fix>
</trkpt>
<trkpt lat="33.8103544" lon="-118.3938672">
  <ele>-7.76</ele>
  <time>2026-09-02T22:08:20Z</time>
  <course>266.75</course>
  <speed>0.0</speed>
  <fix>3d</fix>
</trkpt>
<trkpt lat="33.8103541" lon="-118.3938669">
  <ele>-7.955</ele>
  <time>2026-09-02T22:08:20Z</time>
  <course>357.06</course>
  <speed>0.0282842712474619</speed>
  <fix>3d</fix>
</trkpt>
<trkpt lat="33.8103544" lon="-118.3938672">
  <ele>-7.76</ele>
  <time>2026-09-02T22:08:20Z</time>
  <course>266.75</course>
  <speed>0.0</speed>
  <fix>3d</fix>
</trkpt>
<trkpt lat="33.8103541" lon="-118.3938669">
  <ele>-7.955</ele>
  <time>2026-09-02T22:08:20Z</time>
  <course>357.05</course>
  <speed>0.0282842712474619</speed>
  <fix>3d</fix>
</trkpt>
<trkpt lat="33.8103544" lon="-118.3938672">
  <ele>-7.76</ele>
  <time>2026-09-02T22:08:20Z</time>
  <course>266.75</course>
  <speed>0.0</speed>
  <fix>3d</fix>
</trkpt>
<trkpt lat="33.8103541" lon="-118.3938669">
  <ele>-7.955</ele>
  <time>2026-09-02T22:08:20Z</time>
  <course>357.05</course>
  <speed>0.0282842712474619</speed>
  <fix>3d</fix>
</trkpt>
<trkpt lat="33.8103544" lon="-118.3938672">
  <ele>-7.76</ele>
  <time>2026-09-02T22:08:20Z</time>
  <course>266.75</course>
  <speed>0.0</speed>
  <fix>3d</fix>
</trkpt>
<trkpt lat="33.8103541" lon="-118.3938669">
  <ele>-7.955</ele>
  <time>2026-09-02T22:08:20Z</time>
  <course>357.04</course>
  <speed>0.0282842712474619</speed>
  <fix>3d</fix>
</trkpt>
<trkpt lat="33.8103544" lon="-118.3938673">
  <ele>-7.76</ele>
  <time>2026-09-02T22:08:20Z</time>
  <course>266.75</course>
  <speed>0.0</speed>
  <fix>3d</fix>
</trkpt>
<trkpt lat="33.8103541" lon="-118.3938669">
  <ele>-7.955</ele>
  <time>2026-09-02T22:08:20Z</time>
  <course>357.04</course>
  <speed>0.0282842712474619</speed>
  <fix>3d</fix>
</trkpt>
<trkpt lat="33.8103544" lon="-118.3938673">
  <ele>-7.76</ele>
  <time>2026-09-02T22:08:20Z</time>
  <course>266.75</course>
  <speed>0.0</speed>
  <fix>3d</fix>
</trkpt>
<trkpt lat="33.8103541" lon="-118.3938669">
  <ele>-7.955</ele>
  <time>2026-09-02T22:08:20Z</time>
  <course>357.04</course>
  <speed>0.0282842712474619</speed>
  <fix>3d</fix>
</trkpt>
<trkpt lat="33.8103544" lon="-118.3938673">
  <ele>-7.76</ele>
  <time>2026-09-02T22:08:20Z</time>
  <course>266.75</course>
  <speed>0.0</speed>
  <fix>3d</fix>
</trkpt>
<trkpt lat="33.8103541" lon="-118.3938669">
  <ele>-7.955</ele>
  <time>2026-09-02T22:08:20Z</time>
  <course>357.03</course>
  <speed>0.0282842712474619</speed>
  <fix>3d</fix>
</trkpt>
<trkpt lat="33.8103544" lon="-118.3938673">
  <ele>-7.76</ele>
  <time>2026-09-02T22:08:20Z</time>
  <course>266.75</course>
  <speed>0.0</speed>
  <fix>3d</fix>
</trkpt>
<trkpt lat="33.8103541" lon="-118.3938669">
  <ele>-7.955</ele>
  <time>2026-09-02T22:08:20Z</time>
  <course>357.03</course>
  <speed>0.0282842712474619</speed>
  <fix>3d</fix>
</trkpt>
<trkpt lat="33.8103544" lon="-118.3938673">
  <ele>-7.76</ele>
  <time>2026-09-02T22:08:20Z</time>
  <course>266.75</course>
  <speed>0.0</speed>
  <fix>3d</fix>
</trkpt>
<trkpt lat="33.8103541" lon="-118.3938669">
  <ele>-7.955</ele>
  <time>2026-09-02T22:08:20Z</time>
  <course>357.02</course>
  <speed>0.0282842712474619</speed>
  <fix>3d</fix>
</trkpt>
<trkpt lat="33.8103544" lon="-118.3938673">
  <ele>-7.76</ele>
  <time>2026-09-02T22:08:20Z</time>
  <course>266.75</course>
  <speed>0.0</speed>
  <fix>3d</fix>
</trkpt>
<trkpt lat="33.8103541" lon="-118.3938669">
  <ele>-7.955</ele>
  <time>2026-09-02T22:08:20Z</time>
  <course>357.02</course>
  <speed>0.0282842712474619</speed>
  <fix>3d</fix>
</trkpt>
<trkpt lat="33.8103544" lon="-118.3938673">
  <ele>-7.76</ele>
  <time>2026-09-02T22:08:20Z</time>
  <course>266.75</course>
  <speed>0.0</speed>
  <fix>3d</fix>
</trkpt>
<trkpt lat="33.8103541" lon="-118.3938669">
  <ele>-7.955</ele>
  <time>2026-09-02T22:08:20Z</time>
  <course>357.02</course>
  <speed>0.0282842712474619</speed>
  <fix>3d</fix>
</trkpt>
<trkpt lat="33.8103544" lon="-118.3938673">
  <ele>-7.76</ele>
  <time>2026-09-02T22:08:20Z</time>
  <course>266.75</course>
  <speed>0.0</speed>
  <fix>3d</fix>
</trkpt>
<trkpt lat="33.8103542" lon="-118.3938669">
  <ele>-7.955</ele>
  <time>2026-09-02T22:08:20Z</time>
  <course>357.01</course>
  <speed>0.0282842712474619</speed>
  <fix>3d</fix>
</trkpt>
<trkpt lat="33.8103544" lon="-118.3938673">
  <ele>-7.76</ele>
  <time>2026-09-02T22:08:20Z</time>
  <course>266.76</course>
  <speed>0.0</speed>
  <fix>3d</fix>
</trkpt>
<trkpt lat="33.8103542" lon="-118.3938669">
  <ele>-7.955</ele>
  <time>2026-09-02T22:08:20Z</time>
  <course>357.01</course>
  <speed>0.0282842712474619</speed>
  <fix>3d</fix>
</trkpt>
<trkpt lat="33.8103544" lon="-118.3938673">
  <ele>-7.76</ele>
  <time>2026-09-02T22:08:20Z</time>
  <course>266.76</course>
  <speed>0.0</speed>
  <fix>3d</fix>
</trkpt>
<trkpt lat="33.8103542" lon="-118.3938669">
  <ele>-7.956</ele>
  <time>2026-09-02T22:08:20Z</time>
  <course>357.0</course>
  <speed>0.0282842712474619</speed>
  <fix>3d</fix>
</trkpt>
<trkpt lat="33.8103544" lon="-118.3938673">
  <ele>-7.76</ele>
  <time>2026-09-02T22:08:20Z</time>
  <course>266.76</course>
  <speed>0.0</speed>
  <fix>3d</fix>
</trkpt>
<trkpt lat="33.8103542" lon="-118.393867">
  <ele>-7.956</ele>
  <time>2026-09-02T22:08:20Z</time>
  <course>357.0</course>
  <speed>0.0282842712474619</speed>
  <fix>3d</fix>
</trkpt>
<trkpt lat="33.8103544" lon="-118.3938673">
  <ele>-7.76</ele>
  <time>2026-09-02T22:08:20Z</time>
  <course>266.76</course>
  <speed>0.0</speed>
  <fix>3d</fix>
</trkpt>
<trkpt lat="33.8103542" lon="-118.393867">
  <ele>-7.956</ele>
  <time>2026-09-02T22:08:20Z</time>
  <course>357.0</course>
  <speed>0.0282842712474619</speed>
  <fix>3d</fix>
</trkpt>
<trkpt lat="33.8103544" lon="-118.3938673">
  <ele>-7.76</ele>
  <time>2026-09-02T22:08:20Z</time>
  <course>266.77</course>
  <speed>0.0</speed>
  <fix>3d</fix>
</trkpt>
<trkpt lat="33.8103542" lon="-118.393867">
  <ele>-7.956</ele>
  <time>2026-09-02T22:08:20Z</time>
  <course>356.99</course>
  <speed>0.0282842712474619</speed>
  <fix>3d</fix>
</trkpt>
<trkpt lat="33.8103544" lon="-118.3938673">
  <ele>-7.76</ele>
  <time>2026-09-02T22:08:20Z</time>
  <course>266.77</course>
  <speed>0.0</speed>
  <fix>3d</fix>
</trkpt>
<trkpt lat="33.8103542" lon="-118.393867">
  <ele>-7.956</ele>
  <time>2026-09-02T22:08:20Z</time>
  <course>356.99</course>
  <speed>0.0282842712474619</speed>
  <fix>3d</fix>
</trkpt>
<trkpt lat="33.8103544" lon="-118.3938673">
  <ele>-7.76</ele>
  <time>2026-09-02T22:08:20Z</time>
  <course>266.77</course>
  <speed>0.0</speed>
  <fix>3d</fix>
</trkpt>
<trkpt lat="33.8103542" lon="-118.393867">
  <ele>-7.956</ele>
  <time>2026-09-02T22:08:20Z</time>
  <course>356.98</course>
  <speed>0.0282842712474619</speed>
  <fix>3d</fix>
</trkpt>
<trkpt lat="33.8103544" lon="-118.3938673">
  <ele>-7.76</ele>
  <time>2026-09-02T22:08:20Z</time>
  <course>266.77</course>
  <speed>0.0</speed>
  <fix>3d</fix>
</trkpt>
<trkpt lat="33.8103542" lon="-118.393867">
  <ele>-7.956</ele>
  <time>2026-09-02T22:08:20Z</time>
  <course>356.98</course>
  <speed>0.0282842712474619</speed>
  <fix>3d</fix>
</trkpt>
<trkpt lat="33.8103544" lon="-118.3938673">
  <ele>-7.76</ele>
  <time>2026-09-02T22:08:20Z</time>
  <course>266.77</course>
  <speed>0.0</speed>
  <fix>3d</fix>
</trkpt>
<trkpt lat="33.8103542" lon="-118.393867">
  <ele>-7.956</ele>
  <time>2026-09-02T22:08:20Z</time>
  <course>356.97</course>
  <speed>0.0282842712474619</speed>
  <fix>3d</fix>
</trkpt>
<trkpt lat="33.8103544" lon="-118.3938673">
  <ele>-7.76</ele>
  <time>2026-09-02T22:08:20Z</time>
  <course>266.77</course>
  <speed>0.0</speed>
  <fix>3d</fix>
</trkpt>
<trkpt lat="33.8103542" lon="-118.393867">
  <ele>-7.956</ele>
  <time>2026-09-02T22:08:20Z</time>
  <course>356.97</course>
  <speed>0.0282842712474619</speed>
  <fix>3d</fix>
</trkpt>
<trkpt lat="33.8103544" lon="-118.3938673">
  <ele>-7.76</ele>
  <time>2026-09-02T22:08:20Z</time>
  <course>266.77</course>
  <speed>0.0</speed>
  <fix>3d</fix>
</trkpt>
<trkpt lat="33.8103542" lon="-118.393867">
  <ele>-7.956</ele>
  <time>2026-09-02T22:08:20Z</time>
  <course>356.97</course>
  <speed>0.0282842712474619</speed>
  <fix>3d</fix>
</trkpt>
<trkpt lat="33.8103544" lon="-118.3938673">
  <ele>-7.76</ele>
  <time>2026-09-02T22:08:20Z</time>
  <course>266.77</course>
  <speed>0.0</speed>
  <fix>3d</fix>
</trkpt>
<trkpt lat="33.8103542" lon="-118.393867">
  <ele>-7.956</ele>
  <time>2026-09-02T22:08:20Z</time>
  <course>356.96</course>
  <speed>0.0282842712474619</speed>
  <fix>3d</fix>
</trkpt>
<trkpt lat="33.8103544" lon="-118.3938673">
  <ele>-7.76</ele>
  <time>2026-09-02T22:08:20Z</time>
  <course>266.77</course>
  <speed>0.0</speed>
  <fix>3d</fix>
</trkpt>
<trkpt lat="33.8103542" lon="-118.393867">
  <ele>-7.956</ele>
  <time>2026-09-02T22:08:20Z</time>
  <course>356.96</course>
  <speed>0.0282842712474619</speed>
  <fix>3d</fix>
</trkpt>
<trkpt lat="33.8103544" lon="-118.3938673">
  <ele>-7.76</ele>
  <time>2026-09-02T22:08:20Z</time>
  <course>266.77</course>
  <speed>0.0</speed>
  <fix>3d</fix>
</trkpt>
<trkpt lat="33.8103542" lon="-118.393867">
  <ele>-7.956</ele>
  <time>2026-09-02T22:08:20Z</time>
  <course>356.96</course>
  <speed>0.0282842712474619</speed>
  <fix>3d</fix>
</trkpt>
<trkpt lat="33.8103544" lon="-118.3938673">
  <ele>-7.76</ele>
  <time>2026-09-02T22:08:20Z</time>
  <course>266.77</course>
  <speed>0.0</speed>
  <fix>3d</fix>
</trkpt>
<trkpt lat="33.8103542" lon="-118.393867">
  <ele>-7.956</ele>
  <time>2026-09-02T22:08:20Z</time>
  <course>356.95</course>
  <speed>0.0282842712474619</speed>
  <fix>3d</fix>
</trkpt>
<trkpt lat="33.8103544" lon="-118.3938673">
  <ele>-7.76</ele>
  <time>2026-09-02T22:08:20Z</time>
  <course>266.77</course>
  <speed>0.0</speed>
  <fix>3d</fix>
</trkpt>
<trkpt lat="33.8103542" lon="-118.393867">
  <ele>-7.956</ele>
  <time>2026-09-02T22:08:20Z</time>
  <course>356.95</course>
  <speed>0.0282842712474619</speed>
  <fix>3d</fix>
</trkpt>
<trkpt lat="33.8103544" lon="-118.3938673">
  <ele>-7.76</ele>
  <time>2026-09-02T22:08:20Z</time>
  <course>266.78</course>
  <speed>0.0</speed>
  <fix>3d</fix>
</trkpt>
<trkpt lat="33.8103542" lon="-118.393867">
  <ele>-7.956</ele>
  <time>2026-09-02T22:08:20Z</time>
  <course>356.94</course>
  <speed>0.0282842712474619</speed>
  <fix>3d</fix>
</trkpt>
<trkpt lat="33.8103544" lon="-118.3938673">
  <ele>-7.76</ele>
  <time>2026-09-02T22:08:20Z</time>
  <course>266.78</course>
  <speed>0.0</speed>
  <fix>3d</fix>
</trkpt>
<trkpt lat="33.8103542" lon="-118.393867">
  <ele>-7.956</ele>
  <time>2026-09-02T22:08:20Z</time>
  <course>356.94</course>
  <speed>0.0282842712474619</speed>
  <fix>3d</fix>
</trkpt>
<trkpt lat="33.8103544" lon="-118.3938673">
  <ele>-7.76</ele>
  <time>2026-09-02T22:08:20Z</time>
  <course>266.78</course>
  <speed>0.0</speed>
  <fix>3d</fix>
</trkpt>
<trkpt lat="33.8103542" lon="-118.393867">
  <ele>-7.956</ele>
  <time>2026-09-02T22:08:20Z</time>
  <course>356.94</course>
  <speed>0.0282842712474619</speed>
  <fix>3d</fix>
</trkpt>
<trkpt lat="33.8103544" lon="-118.3938673">
  <ele>-7.76</ele>
  <time>2026-09-02T22:08:20Z</time>
  <course>266.78</course>
  <speed>0.0</speed>
  <fix>3d</fix>
</trkpt>
<trkpt lat="33.8103542" lon="-118.393867">
  <ele>-7.956</ele>
  <time>2026-09-02T22:08:20Z</time>
  <course>356.93</course>
  <speed>0.0282842712474619</speed>
  <fix>3d</fix>
</trkpt>
<trkpt lat="33.8103544" lon="-118.3938674">
  <ele>-7.76</ele>
  <time>2026-09-02T22:08:20Z</time>
  <course>266.79</course>
  <speed>0.0</speed>
  <fix>3d</fix>
</trkpt>
<trkpt lat="33.8103542" lon="-118.393867">
  <ele>-7.956</ele>
  <time>2026-09-02T22:08:20Z</time>
  <course>356.93</course>
  <speed>0.0282842712474619</speed>
  <fix>3d</fix>
</trkpt>
<trkpt lat="33.8103544" lon="-118.3938674">
  <ele>-7.76</ele>
  <time>2026-09-02T22:08:20Z</time>
  <course>266.79</course>
  <speed>0.0</speed>
  <fix>3d</fix>
</trkpt>
<trkpt lat="33.8103542" lon="-118.393867">
  <ele>-7.956</ele>
  <time>2026-09-02T22:08:20Z</time>
  <course>356.92</course>
  <speed>0.0282842712474619</speed>
  <fix>3d</fix>
</trkpt>
<trkpt lat="33.8103544" lon="-118.3938674">
  <ele>-7.76</ele>
  <time>2026-09-02T22:08:20Z</time>
  <course>266.79</course>
  <speed>0.0</speed>
  <fix>3d</fix>
</trkpt>
<trkpt lat="33.8103542" lon="-118.393867">
  <ele>-7.956</ele>
  <time>2026-09-02T22:08:20Z</time>
  <course>356.92</course>
  <speed>0.0282842712474619</speed>
  <fix>3d</fix>
</trkpt>
<trkpt lat="33.8103544" lon="-118.3938674">
  <ele>-7.76</ele>
  <time>2026-09-02T22:08:20Z</time>
  <course>266.79</course>
  <speed>0.0</speed>
  <fix>3d</fix>
</trkpt>
<trkpt lat="33.8103542" lon="-118.393867">
  <ele>-7.956</ele>
  <time>2026-09-02T22:08:20Z</time>
  <course>356.91</course>
  <speed>0.0282842712474619</speed>
  <fix>3d</fix>
</trkpt>
<trkpt lat="33.8103544" lon="-118.3938674">
  <ele>-7.76</ele>
  <time>2026-09-02T22:08:20Z</time>
  <course>266.79</course>
  <speed>0.0</speed>
  <fix>3d</fix>
</trkpt>
<trkpt lat="33.8103542" lon="-118.393867">
  <ele>-7.956</ele>
  <time>2026-09-02T22:08:20Z</time>
  <course>356.91</course>
  <speed>0.0282842712474619</speed>
  <fix>3d</fix>
</trkpt>
<trkpt lat="33.8103544" lon="-118.3938674">
  <ele>-7.76</ele>
  <time>2026-09-02T22:08:20Z</time>
  <course>266.79</course>
  <speed>0.0</speed>
  <fix>3d</fix>
</trkpt>
<trkpt lat="33.8103542" lon="-118.393867">
  <ele>-7.956</ele>
  <time>2026-09-02T22:08:20Z</time>
  <course>356.91</course>
  <speed>0.0282842712474619</speed>
  <fix>3d</fix>
</trkpt>
<trkpt lat="33.8103544" lon="-118.3938674">
  <ele>-7.76</ele>
  <time>2026-09-02T22:08:20Z</time>
  <course>266.79</course>
  <speed>0.0</speed>
  <fix>3d</fix>
</trkpt>
<trkpt lat="33.8103542" lon="-118.393867">
  <ele>-7.956</ele>
  <time>2026-09-02T22:08:20Z</time>
  <course>356.9</course>
  <speed>0.0282842712474619</speed>
  <fix>3d</fix>
</trkpt>
<trkpt lat="33.8103544" lon="-118.3938674">
  <ele>-7.76</ele>
  <time>2026-09-02T22:08:20Z</time>
  <course>266.79</course>
  <speed>0.0</speed>
  <fix>3d</fix>
</trkpt>
<trkpt lat="33.8103542" lon="-118.393867">
  <ele>-7.956</ele>
  <time>2026-09-02T22:08:20Z</time>
  <course>356.9</course>
  <speed>0.0282842712474619</speed>
  <fix>3d</fix>
</trkpt>
<trkpt lat="33.8103544" lon="-118.3938674">
  <ele>-7.76</ele>
  <time>2026-09-02T22:08:20Z</time>
  <course>266.79</course>
  <speed>0.0</speed>
  <fix>3d</fix>
</trkpt>
<trkpt lat="33.8103542" lon="-118.393867">
  <ele>-7.956</ele>
  <time>2026-09-02T22:08:20Z</time>
  <course>356.89</course>
  <speed>0.0282842712474619</speed>
  <fix>3d</fix>
</trkpt>
<trkpt lat="33.8103544" lon="-118.3938674">
  <ele>-7.76</ele>
  <time>2026-09-02T22:08:20Z</time>
  <course>266.79</course>
  <speed>0.0</speed>
  <fix>3d</fix>
</trkpt>
<trkpt lat="33.8103542" lon="-118.3938671">
  <ele>-7.956</ele>
  <time>2026-09-02T22:08:20Z</time>
  <course>356.89</course>
  <speed>0.0282842712474619</speed>
  <fix>3d</fix>
</trkpt>
<trkpt lat="33.8103544" lon="-118.3938674">
  <ele>-7.76</ele>
  <time>2026-09-02T22:08:20Z</time>
  <course>266.8</course>
  <speed>0.0</speed>
  <fix>3d</fix>
</trkpt>
<trkpt lat="33.8103542" lon="-118.3938671">
  <ele>-7.956</ele>
  <time>2026-09-02T22:08:20Z</time>
  <course>356.88</course>
  <speed>0.0282842712474619</speed>
  <fix>3d</fix>
</trkpt>
<trkpt lat="33.8103544" lon="-118.3938674">
  <ele>-7.76</ele>
  <time>2026-09-02T22:08:20Z</time>
  <course>266.8</course>
  <speed>0.0</speed>
  <fix>3d</fix>
</trkpt>
<trkpt lat="33.8103542" lon="-118.3938671">
  <ele>-7.956</ele>
  <time>2026-09-02T22:08:20Z</time>
  <course>356.88</course>
  <speed>0.0282842712474619</speed>
  <fix>3d</fix>
</trkpt>
<trkpt lat="33.8103544" lon="-118.3938674">
  <ele>-7.76</ele>
  <time>2026-09-02T22:08:20Z</time>
  <course>266.8</course>
  <speed>0.0</speed>
  <fix>3d</fix>
</trkpt>
<trkpt lat="33.8103542" lon="-118.3938671">
  <ele>-7.956</ele>
  <time>2026-09-02T22:08:20Z</time>
  <course>356.88</course>
  <speed>0.0282842712474619</speed>
  <fix>3d</fix>
</trkpt>
<trkpt lat="33.8103544" lon="-118.3938674">
  <ele>-7.76</ele>
  <time>2026-09-02T22:08:20Z</time>
  <course>266.8</course>
  <speed>0.0</speed>
  <fix>3d</fix>
</trkpt>
<trkpt lat="33.8103542" lon="-118.3938671">
  <ele>-7.956</ele>
  <time>2026-09-02T22:08:20Z</time>
  <course>356.87</course>
  <speed>0.0282842712474619</speed>
  <fix>3d</fix>
</trkpt>
<trkpt lat="33.8103544" lon="-118.3938674">
  <ele>-7.76</ele>
  <time>2026-09-02T22:08:20Z</time>
  <course>266.8</course>
  <speed>0.0</speed>
  <fix>3d</fix>
</trkpt>
<trkpt lat="33.8103542" lon="-118.3938671">
  <ele>-7.956</ele>
  <time>2026-09-02T22:08:20Z</time>
  <course>356.87</course>
  <speed>0.0282842712474619</speed>
  <fix>3d</fix>
</trkpt>
<trkpt lat="33.8103544" lon="-118.3938674">
  <ele>-7.76</ele>
  <time>2026-09-02T22:08:20Z</time>
  <course>266.8</course>
  <speed>0.0</speed>
  <fix>3d</fix>
</trkpt>
<trkpt lat="33.8103542" lon="-118.3938671">
  <ele>-7.956</ele>
  <time>2026-09-02T22:08:20Z</time>
  <course>356.86</course>
  <speed>0.0282842712474619</speed>
  <fix>3d</fix>
</trkpt>
<trkpt lat="33.8103544" lon="-118.3938674">
  <ele>-7.76</ele>
  <time>2026-09-02T22:08:20Z</time>
  <course>266.8</course>
  <speed>0.0</speed>
  <fix>3d</fix>
</trkpt>
<trkpt lat="33.8103542" lon="-118.3938671">
  <ele>-7.955</ele>
  <time>2026-09-02T22:08:20Z</time>
  <course>356.86</course>
  <speed>0.0282842712474619</speed>
  <fix>3d</fix>
</trkpt>
<trkpt lat="33.8103544" lon="-118.3938674">
  <ele>-7.76</ele>
  <time>2026-09-02T22:08:20Z</time>
  <course>266.8</course>
  <speed>0.0</speed>
  <fix>3d</fix>
</trkpt>
<trkpt lat="33.8103542" lon="-118.3938671">
  <ele>-7.955</ele>
  <time>2026-09-02T22:08:20Z</time>
  <course>356.86</course>
  <speed>0.0282842712474619</speed>
  <fix>3d</fix>
</trkpt>
<trkpt lat="33.8103544" lon="-118.3938674">
  <ele>-7.76</ele>
  <time>2026-09-02T22:08:20Z</time>
  <course>266.81</course>
  <speed>0.0</speed>
  <fix>3d</fix>
</trkpt>
<trkpt lat="33.8103542" lon="-118.3938671">
  <ele>-7.955</ele>
  <time>2026-09-02T22:08:20Z</time>
  <course>356.85</course>
  <speed>0.0282842712474619</speed>
  <fix>3d</fix>
</trkpt>
<trkpt lat="33.8103544" lon="-118.3938674">
  <ele>-7.76</ele>
  <time>2026-09-02T22:08:20Z</time>
  <course>266.81</course>
  <speed>0.0</speed>
  <fix>3d</fix>
</trkpt>
<trkpt lat="33.8103542" lon="-118.3938671">
  <ele>-7.955</ele>
  <time>2026-09-02T22:08:20Z</time>
  <course>356.85</course>
  <speed>0.0282842712474619</speed>
  <fix>3d</fix>
</trkpt>
<trkpt lat="33.8103544" lon="-118.3938674">
  <ele>-7.76</ele>
  <time>2026-09-02T22:08:20Z</time>
  <course>266.81</course>
  <speed>0.0</speed>
  <fix>3d</fix>
</trkpt>
<trkpt lat="33.8103542" lon="-118.3938671">
  <ele>-7.955</ele>
  <time>2026-09-02T22:08:20Z</time>
  <course>356.84</course>
  <speed>0.0282842712474619</speed>
  <fix>3d</fix>
</trkpt>
<trkpt lat="33.8103544" lon="-118.3938674">
  <ele>-7.76</ele>
  <time>2026-09-02T22:08:20Z</time>
  <course>266.81</course>
  <speed>0.0</speed>
  <fix>3d</fix>
</trkpt>
<trkpt lat="33.8103542" lon="-118.3938671">
  <ele>-7.955</ele>
  <time>2026-09-02T22:08:20Z</time>
  <course>356.84</course>
  <speed>0.0282842712474619</speed>
  <fix>3d</fix>
</trkpt>
<trkpt lat="33.8103544" lon="-118.3938674">
  <ele>-7.76</ele>
  <time>2026-09-02T22:08:20Z</time>
  <course>266.81</course>
  <speed>0.0</speed>
  <fix>3d</fix>
</trkpt>
<trkpt lat="33.8103542" lon="-118.3938671">
  <ele>-7.955</ele>
  <time>2026-09-02T22:08:20Z</time>
  <course>356.83</course>
  <speed>0.0282842712474619</speed>
  <fix>3d</fix>
</trkpt>
<trkpt lat="33.8103544" lon="-118.3938674">
  <ele>-7.76</ele>
  <time>2026-09-02T22:08:20Z</time>
  <course>266.81</course>
  <speed>0.0</speed>
  <fix>3d</fix>
</trkpt>
<trkpt lat="33.8103542" lon="-118.3938671">
  <ele>-7.955</ele>
  <time>2026-09-02T22:08:20Z</time>
  <course>356.83</course>
  <speed>0.0282842712474619</speed>
  <fix>3d</fix>
</trkpt>
<trkpt lat="33.8103544" lon="-118.3938674">
  <ele>-7.76</ele>
  <time>2026-09-02T22:08:20Z</time>
  <course>266.82</course>
  <speed>0.0</speed>
  <fix>3d</fix>
</trkpt>
<trkpt lat="33.8103542" lon="-118.3938671">
  <ele>-7.955</ele>
  <time>2026-09-02T22:08:20Z</time>
  <course>356.82</course>
  <speed>0.0282842712474619</speed>
  <fix>3d</fix>
</trkpt>
<trkpt lat="33.8103544" lon="-118.3938674">
  <ele>-7.76</ele>
  <time>2026-09-02T22:08:20Z</time>
  <course>266.82</course>
  <speed>0.0</speed>
  <fix>3d</fix>
</trkpt>
<trkpt lat="33.8103542" lon="-118.3938671">
  <ele>-7.955</ele>
  <time>2026-09-02T22:08:20Z</time>
  <course>356.82</course>
  <speed>0.0282842712474619</speed>
  <fix>3d</fix>
</trkpt>
<trkpt lat="33.8103544" lon="-118.3938674">
  <ele>-7.76</ele>
  <time>2026-09-02T22:08:20Z</time>
  <course>266.82</course>
  <speed>0.0</speed>
  <fix>3d</fix>
</trkpt>
<trkpt lat="33.8103542" lon="-118.3938671">
  <ele>-7.955</ele>
  <time>2026-09-02T22:08:20Z</time>
  <course>356.82</course>
  <speed>0.0282842712474619</speed>
  <fix>3d</fix>
</trkpt>
<trkpt lat="33.8103544" lon="-118.3938674">
  <ele>-7.76</ele>
  <time>2026-09-02T22:08:20Z</time>
  <course>266.82</course>
  <speed>0.0</speed>
  <fix>3d</fix>
</trkpt>
<trkpt lat="33.8103542" lon="-118.3938671">
  <ele>-7.955</ele>
  <time>2026-09-02T22:08:20Z</time>
  <course>356.81</course>
  <speed>0.0282842712474619</speed>
  <fix>3d</fix>
</trkpt>
<trkpt lat="33.8103544" lon="-118.3938675">
  <ele>-7.76</ele>
  <time>2026-09-02T22:08:20Z</time>
  <course>266.82</course>
  <speed>0.0</speed>
  <fix>3d</fix>
</trkpt>
<trkpt lat="33.8103542" lon="-118.3938671">
  <ele>-7.955</ele>
  <time>2026-09-02T22:08:20Z</time>
  <course>356.81</course>
  <speed>0.0282842712474619</speed>
  <fix>3d</fix>
</trkpt>
<trkpt lat="33.8103544" lon="-118.3938675">
  <ele>-7.76</ele>
  <time>2026-09-02T22:08:20Z</time>
  <course>266.82</course>
  <speed>0.0</speed>
  <fix>3d</fix>
</trkpt>
<trkpt lat="33.8103542" lon="-118.3938671">
  <ele>-7.955</ele>
  <time>2026-09-02T22:08:20Z</time>
  <course>356.8</course>
  <speed>0.0282842712474619</speed>
  <fix>3d</fix>
</trkpt>
<trkpt lat="33.8103544" lon="-118.3938675">
  <ele>-7.76</ele>
  <time>2026-09-02T22:08:20Z</time>
  <course>266.82</course>
  <speed>0.0</speed>
  <fix>3d</fix>
</trkpt>
<trkpt lat="33.8103542" lon="-118.3938671">
  <ele>-7.955</ele>
  <time>2026-09-02T22:08:20Z</time>
  <course>356.8</course>
  <speed>0.0282842712474619</speed>
  <fix>3d</fix>
</trkpt>
<trkpt lat="33.8103544" lon="-118.3938675">
  <ele>-7.76</ele>
  <time>2026-09-02T22:08:20Z</time>
  <course>266.82</course>
  <speed>0.0</speed>
  <fix>3d</fix>
</trkpt>
<trkpt lat="33.8103542" lon="-118.3938671">
  <ele>-7.955</ele>
  <time>2026-09-02T22:08:20Z</time>
  <course>356.79</course>
  <speed>0.0282842712474619</speed>
  <fix>3d</fix>
</trkpt>
<trkpt lat="33.8103544" lon="-118.3938675">
  <ele>-7.76</ele>
  <time>2026-09-02T22:08:20Z</time>
  <course>266.83</course>
  <speed>0.0</speed>
  <fix>3d</fix>
</trkpt>
<trkpt lat="33.8103542" lon="-118.3938671">
  <ele>-7.955</ele>
  <time>2026-09-02T22:08:20Z</time>
  <course>356.79</course>
  <speed>0.0282842712474619</speed>
  <fix>3d</fix>
</trkpt>
<trkpt lat="33.8103544" lon="-118.3938675">
  <ele>-7.76</ele>
  <time>2026-09-02T22:08:20Z</time>
  <course>266.83</course>
  <speed>0.0</speed>
  <fix>3d</fix>
</trkpt>
<trkpt lat="33.8103542" lon="-118.3938671">
  <ele>-7.955</ele>
  <time>2026-09-02T22:08:20Z</time>
  <course>356.78</course>
  <speed>0.0282842712474619</speed>
  <fix>3d</fix>
</trkpt>
<trkpt lat="33.8103544" lon="-118.3938675">
  <ele>-7.76</ele>
  <time>2026-09-02T22:08:20Z</time>
  <course>266.83</course>
  <speed>0.0</speed>
  <fix>3d</fix>
</trkpt>
<trkpt lat="33.8103542" lon="-118.3938671">
  <ele>-7.955</ele>
  <time>2026-09-02T22:08:20Z</time>
  <course>356.78</course>
  <speed>0.0282842712474619</speed>
  <fix>3d</fix>
</trkpt>
<trkpt lat="33.8103544" lon="-118.3938675">
  <ele>-7.76</ele>
  <time>2026-09-02T22:08:20Z</time>
  <course>266.83</course>
  <speed>0.0</speed>
  <fix>3d</fix>
</trkpt>
<trkpt lat="33.8103542" lon="-118.3938671">
  <ele>-7.955</ele>
  <time>2026-09-02T22:08:20Z</time>
  <course>356.78</course>
  <speed>0.0282842712474619</speed>
  <fix>3d</fix>
</trkpt>
<trkpt lat="33.8103544" lon="-118.3938675">
  <ele>-7.76</ele>
  <time>2026-09-02T22:08:20Z</time>
  <course>266.84</course>
  <speed>0.0</speed>
  <fix>3d</fix>
</trkpt>
<trkpt lat="33.8103542" lon="-118.3938671">
  <ele>-7.955</ele>
  <time>2026-09-02T22:08:20Z</time>
  <course>356.77</course>
  <speed>0.0282842712474619</speed>
  <fix>3d</fix>
</trkpt>
<trkpt lat="33.8103544" lon="-118.3938675">
  <ele>-7.76</ele>
  <time>2026-09-02T22:08:20Z</time>
  <course>266.84</course>
  <speed>0.0</speed>
  <fix>3d</fix>
</trkpt>
<trkpt lat="33.8103542" lon="-118.3938671">
  <ele>-7.955</ele>
  <time>2026-09-02T22:08:20Z</time>
  <course>356.77</course>
  <speed>0.0282842712474619</speed>
  <fix>3d</fix>
</trkpt>
<trkpt lat="33.8103544" lon="-118.3938675">
  <ele>-7.76</ele>
  <time>2026-09-02T22:08:20Z</time>
  <course>266.84</course>
  <speed>0.0</speed>
  <fix>3d</fix>
</trkpt>
<trkpt lat="33.8103542" lon="-118.3938671">
  <ele>-7.955</ele>
  <time>2026-09-02T22:08:20Z</time>
  <course>356.76</course>
  <speed>0.0282842712474619</speed>
  <fix>3d</fix>
</trkpt>
<trkpt lat="33.8103544" lon="-118.3938675">
  <ele>-7.76</ele>
  <time>2026-09-02T22:08:20Z</time>
  <course>266.84</course>
  <speed>0.0</speed>
  <fix>3d</fix>
</trkpt>
<trkpt lat="33.8103542" lon="-118.3938672">
  <ele>-7.955</ele>
  <time>2026-09-02T22:08:20Z</time>
  <course>356.76</course>
  <speed>0.0282842712474619</speed>
  <fix>3d</fix>
</trkpt>
<trkpt lat="33.8103544" lon="-118.3938675">
  <ele>-7.76</ele>
  <time>2026-09-02T22:08:20Z</time>
  <course>266.84</course>
  <speed>0.0</speed>
  <fix>3d</fix>
</trkpt>
<trkpt lat="33.8103542" lon="-118.3938672">
  <ele>-7.955</ele>
  <time>2026-09-02T22:08:20Z</time>
  <course>356.75</course>
  <speed>0.0282842712474619</speed>
  <fix>3d</fix>
</trkpt>
<trkpt lat="33.8103544" lon="-118.3938675">
  <ele>-7.76</ele>
  <time>2026-09-02T22:08:20Z</time>
  <course>266.84</course>
  <speed>0.0</speed>
  <fix>3d</fix>
</trkpt>
<trkpt lat="33.8103542" lon="-118.3938672">
  <ele>-7.955</ele>
  <time>2026-09-02T22:08:20Z</time>
  <course>356.75</course>
  <speed>0.0282842712474619</speed>
  <fix>3d</fix>
</trkpt>
<trkpt lat="33.8103544" lon="-118.3938675">
  <ele>-7.76</ele>
  <time>2026-09-02T22:08:20Z</time>
  <course>266.84</course>
  <speed>0.0</speed>
  <fix>3d</fix>
</trkpt>
<trkpt lat="33.8103542" lon="-118.3938672">
  <ele>-7.955</ele>
  <time>2026-09-02T22:08:20Z</time>
  <course>356.74</course>
  <speed>0.0282842712474619</speed>
  <fix>3d</fix>
</trkpt>
<trkpt lat="33.8103544" lon="-118.3938675">
  <ele>-7.76</ele>
  <time>2026-09-02T22:08:20Z</time>
  <course>266.84</course>
  <speed>0.0</speed>
  <fix>3d</fix>
</trkpt>
<trkpt lat="33.8103542" lon="-118.3938672">
  <ele>-7.955</ele>
  <time>2026-09-02T22:08:20Z</time>
  <course>356.74</course>
  <speed>0.0282842712474619</speed>
  <fix>3d</fix>
</trkpt>
<trkpt lat="33.8103544" lon="-118.3938675">
  <ele>-7.76</ele>
  <time>2026-09-02T22:08:20Z</time>
  <course>266.85</course>
  <speed>0.0</speed>
  <fix>3d</fix>
</trkpt>
<trkpt lat="33.8103542" lon="-118.3938672">
  <ele>-7.955</ele>
  <time>2026-09-02T22:08:20Z</time>
  <course>356.73</course>
  <speed>0.0282842712474619</speed>
  <fix>3d</fix>
</trkpt>
<trkpt lat="33.8103544" lon="-118.3938675">
  <ele>-7.76</ele>
  <time>2026-09-02T22:08:20Z</time>
  <course>266.85</course>
  <speed>0.0</speed>
  <fix>3d</fix>
</trkpt>
<trkpt lat="33.8103542" lon="-118.3938672">
  <ele>-7.955</ele>
  <time>2026-09-02T22:08:20Z</time>
  <course>356.73</course>
  <speed>0.0282842712474619</speed>
  <fix>3d</fix>
</trkpt>
<trkpt lat="33.8103544" lon="-118.3938675">
  <ele>-7.76</ele>
  <time>2026-09-02T22:08:20Z</time>
  <course>266.85</course>
  <speed>0.0</speed>
  <fix>3d</fix>
</trkpt>
<trkpt lat="33.8103542" lon="-118.3938672">
  <ele>-7.955</ele>
  <time>2026-09-02T22:08:20Z</time>
  <course>356.73</course>
  <speed>0.0282842712474619</speed>
  <fix>3d</fix>
</trkpt>
<trkpt lat="33.8103544" lon="-118.3938675">
  <ele>-7.76</ele>
  <time>2026-09-02T22:08:20Z</time>
  <course>266.85</course>
  <speed>0.0</speed>
  <fix>3d</fix>
</trkpt>
<trkpt lat="33.8103542" lon="-118.3938672">
  <ele>-7.955</ele>
  <time>2026-09-02T22:08:20Z</time>
  <course>356.72</course>
  <speed>0.0282842712474619</speed>
  <fix>3d</fix>
</trkpt>
<trkpt lat="33.8103544" lon="-118.3938675">
  <ele>-7.76</ele>
  <time>2026-09-02T22:08:20Z</time>
  <course>266.85</course>
  <speed>0.0</speed>
  <fix>3d</fix>
</trkpt>
<trkpt lat="33.8103542" lon="-118.3938672">
  <ele>-7.955</ele>
  <time>2026-09-02T22:08:20Z</time>
  <course>356.72</course>
  <speed>0.0282842712474619</speed>
  <fix>3d</fix>
</trkpt>
<trkpt lat="33.8103544" lon="-118.3938675">
  <ele>-7.76</ele>
  <time>2026-09-02T22:08:20Z</time>
  <course>266.85</course>
  <speed>0.0</speed>
  <fix>3d</fix>
</trkpt>
<trkpt lat="33.8103542" lon="-118.3938672">
  <ele>-7.955</ele>
  <time>2026-09-02T22:08:20Z</time>
  <course>356.71</course>
  <speed>0.0282842712474619</speed>
  <fix>3d</fix>
</trkpt>
<trkpt lat="33.8103544" lon="-118.3938675">
  <ele>-7.76</ele>
  <time>2026-09-02T22:08:20Z</time>
  <course>266.86</course>
  <speed>0.0</speed>
  <fix>3d</fix>
</trkpt>
<trkpt lat="33.8103542" lon="-118.3938672">
  <ele>-7.955</ele>
  <time>2026-09-02T22:08:20Z</time>
  <course>356.71</course>
  <speed>0.0282842712474619</speed>
  <fix>3d</fix>
</trkpt>
<trkpt lat="33.8103544" lon="-118.3938675">
  <ele>-7.76</ele>
  <time>2026-09-02T22:08:20Z</time>
  <course>266.86</course>
  <speed>0.0</speed>
  <fix>3d</fix>
</trkpt>
<trkpt lat="33.8103542" lon="-118.3938672">
  <ele>-7.955</ele>
  <time>2026-09-02T22:08:20Z</time>
  <course>356.7</course>
  <speed>0.0282842712474619</speed>
  <fix>3d</fix>
</trkpt>
<trkpt lat="33.8103544" lon="-118.3938675">
  <ele>-7.76</ele>
  <time>2026-09-02T22:08:20Z</time>
  <course>266.86</course>
  <speed>0.0</speed>
  <fix>3d</fix>
</trkpt>
<trkpt lat="33.8103542" lon="-118.3938672">
  <ele>-7.955</ele>
  <time>2026-09-02T22:08:20Z</time>
  <course>356.7</course>
  <speed>0.0282842712474619</speed>
  <fix>3d</fix>
</trkpt>
<trkpt lat="33.8103544" lon="-118.3938675">
  <ele>-7.76</ele>
  <time>2026-09-02T22:08:20Z</time>
  <course>266.86</course>
  <speed>0.0</speed>
  <fix>3d</fix>
</trkpt>
<trkpt lat="33.8103542" lon="-118.3938672">
  <ele>-7.955</ele>
  <time>2026-09-02T22:08:20Z</time>
  <course>356.69</course>
  <speed>0.0282842712474619</speed>
  <fix>3d</fix>
</trkpt>
<trkpt lat="33.8103544" lon="-118.3938675">
  <ele>-7.76</ele>
  <time>2026-09-02T22:08:20Z</time>
  <course>266.87</course>
  <speed>0.0</speed>
  <fix>3d</fix>
</trkpt>
<trkpt lat="33.8103542" lon="-118.3938672">
  <ele>-7.955</ele>
  <time>2026-09-02T22:08:20Z</time>
  <course>356.69</course>
  <speed>0.0282842712474619</speed>
  <fix>3d</fix>
</trkpt>
<trkpt lat="33.8103544" lon="-118.3938675">
  <ele>-7.76</ele>
  <time>2026-09-02T22:08:20Z</time>
  <course>266.87</course>
  <speed>0.0</speed>
  <fix>3d</fix>
</trkpt>
<trkpt lat="33.8103542" lon="-118.3938672">
  <ele>-7.955</ele>
  <time>2026-09-02T22:08:20Z</time>
  <course>356.68</course>
  <speed>0.0282842712474619</speed>
  <fix>3d</fix>
</trkpt>
<trkpt lat="33.8103544" lon="-118.3938675">
  <ele>-7.76</ele>
  <time>2026-09-02T22:08:20Z</time>
  <course>266.87</course>
  <speed>0.0</speed>
  <fix>3d</fix>
</trkpt>
<trkpt lat="33.8103542" lon="-118.3938672">
  <ele>-7.955</ele>
  <time>2026-09-02T22:08:20Z</time>
  <course>356.68</course>
  <speed>0.0282842712474619</speed>
  <fix>3d</fix>
</trkpt>
<trkpt lat="33.8103544" lon="-118.3938675">
  <ele>-7.76</ele>
  <time>2026-09-02T22:08:20Z</time>
  <course>266.87</course>
  <speed>0.0</speed>
  <fix>3d</fix>
</trkpt>
<trkpt lat="33.8103542" lon="-118.3938672">
  <ele>-7.955</ele>
  <time>2026-09-02T22:08:20Z</time>
  <course>356.67</course>
  <speed>0.0282842712474619</speed>
  <fix>3d</fix>
</trkpt>
<trkpt lat="33.8103544" lon="-118.3938676">
  <ele>-7.76</ele>
  <time>2026-09-02T22:08:20Z</time>
  <course>266.87</course>
  <speed>0.0</speed>
  <fix>3d</fix>
</trkpt>
<trkpt lat="33.8103542" lon="-118.3938672">
  <ele>-7.955</ele>
  <time>2026-09-02T22:08:20Z</time>
  <course>356.67</course>
  <speed>0.0282842712474619</speed>
  <fix>3d</fix>
</trkpt>
<trkpt lat="33.8103544" lon="-118.3938676">
  <ele>-7.76</ele>
  <time>2026-09-02T22:08:20Z</time>
  <course>266.87</course>
  <speed>0.0</speed>
  <fix>3d</fix>
</trkpt>
<trkpt lat="33.8103542" lon="-118.3938672">
  <ele>-7.955</ele>
  <time>2026-09-02T22:08:20Z</time>
  <course>356.66</course>
  <speed>0.0282842712474619</speed>
  <fix>3d</fix>
</trkpt>
<trkpt lat="33.8103544" lon="-118.3938676">
  <ele>-7.76</ele>
  <time>2026-09-02T22:08:20Z</time>
  <course>266.87</course>
  <speed>0.0</speed>
  <fix>3d</fix>
</trkpt>
<trkpt lat="33.8103542" lon="-118.3938672">
  <ele>-7.955</ele>
  <time>2026-09-02T22:08:20Z</time>
  <course>356.66</course>
  <speed>0.0282842712474619</speed>
  <fix>3d</fix>
</trkpt>
<trkpt lat="33.8103544" lon="-118.3938676">
  <ele>-7.76</ele>
  <time>2026-09-02T22:08:20Z</time>
  <course>266.87</course>
  <speed>0.0</speed>
  <fix>3d</fix>
</trkpt>
<trkpt lat="33.8103542" lon="-118.3938672">
  <ele>-7.955</ele>
  <time>2026-09-02T22:08:20Z</time>
  <course>356.65</course>
  <speed>0.0282842712474619</speed>
  <fix>3d</fix>
</trkpt>
<trkpt lat="33.8103544" lon="-118.3938676">
  <ele>-7.76</ele>
  <time>2026-09-02T22:08:20Z</time>
  <course>266.88</course>
  <speed>0.0</speed>
  <fix>3d</fix>
</trkpt>
<trkpt lat="33.8103542" lon="-118.3938672">
  <ele>-7.955</ele>
  <time>2026-09-02T22:08:20Z</time>
  <course>356.65</course>
  <speed>0.0282842712474619</speed>
  <fix>3d</fix>
</trkpt>
<trkpt lat="33.8103544" lon="-118.3938676">
  <ele>-7.76</ele>
  <time>2026-09-02T22:08:20Z</time>
  <course>266.88</course>
  <speed>0.0</speed>
  <fix>3d</fix>
</trkpt>
<trkpt lat="33.8103542" lon="-118.3938672">
  <ele>-7.955</ele>
  <time>2026-09-02T22:08:20Z</time>
  <course>356.64</course>
  <speed>0.0282842712474619</speed>
  <fix>3d</fix>
</trkpt>
<trkpt lat="33.8103544" lon="-118.3938676">
  <ele>-7.76</ele>
  <time>2026-09-02T22:08:20Z</time>
  <course>266.88</course>
  <speed>0.0</speed>
  <fix>3d</fix>
</trkpt>
<trkpt lat="33.8103542" lon="-118.3938672">
  <ele>-7.956</ele>
  <time>2026-09-02T22:08:20Z</time>
  <course>356.64</course>
  <speed>0.0282842712474619</speed>
  <fix>3d</fix>
</trkpt>
<trkpt lat="33.8103544" lon="-118.3938676">
  <ele>-7.76</ele>
  <time>2026-09-02T22:08:20Z</time>
  <course>266.88</course>
  <speed>0.0</speed>
  <fix>3d</fix>
</trkpt>
<trkpt lat="33.8103542" lon="-118.3938672">
  <ele>-7.956</ele>
  <time>2026-09-02T22:08:20Z</time>
  <course>356.63</course>
  <speed>0.0282842712474619</speed>
  <fix>3d</fix>
</trkpt>
<trkpt lat="33.8103544" lon="-118.3938676">
  <ele>-7.76</ele>
  <time>2026-09-02T22:08:20Z</time>
  <course>266.89</course>
  <speed>0.0</speed>
  <fix>3d</fix>
</trkpt>
<trkpt lat="33.8103542" lon="-118.3938672">
  <ele>-7.956</ele>
  <time>2026-09-02T22:08:20Z</time>
  <course>356.63</course>
  <speed>0.0282842712474619</speed>
  <fix>3d</fix>
</trkpt>
<trkpt lat="33.8103544" lon="-118.3938676">
  <ele>-7.76</ele>
  <time>2026-09-02T22:08:20Z</time>
  <course>266.89</course>
  <speed>0.0</speed>
  <fix>3d</fix>
</trkpt>
<trkpt lat="33.8103542" lon="-118.3938672">
  <ele>-7.956</ele>
  <time>2026-09-02T22:08:20Z</time>
  <course>356.62</course>
  <speed>0.0282842712474619</speed>
  <fix>3d</fix>
</trkpt>
<trkpt lat="33.8103544" lon="-118.3938676">
  <ele>-7.76</ele>
  <time>2026-09-02T22:08:20Z</time>
  <course>266.89</course>
  <speed>0.0</speed>
  <fix>3d</fix>
</trkpt>
<trkpt lat="33.8103542" lon="-118.3938672">
  <ele>-7.956</ele>
  <time>2026-09-02T22:08:20Z</time>
  <course>356.62</course>
  <speed>0.0282842712474619</speed>
  <fix>3d</fix>
</trkpt>
<trkpt lat="33.8103544" lon="-118.3938676">
  <ele>-7.76</ele>
  <time>2026-09-02T22:08:20Z</time>
  <course>266.89</course>
  <speed>0.0</speed>
  <fix>3d</fix>
</trkpt>
<trkpt lat="33.8103542" lon="-118.3938673">
  <ele>-7.956</ele>
  <time>2026-09-02T22:08:20Z</time>
  <course>356.61</course>
  <speed>0.0282842712474619</speed>
  <fix>3d</fix>
</trkpt>
<trkpt lat="33.8103544" lon="-118.3938676">
  <ele>-7.76</ele>
  <time>2026-09-02T22:08:20Z</time>
  <course>266.89</course>
  <speed>0.0</speed>
  <fix>3d</fix>
</trkpt>
<trkpt lat="33.8103542" lon="-118.3938673">
  <ele>-7.956</ele>
  <time>2026-09-02T22:08:20Z</time>
  <course>356.61</course>
  <speed>0.0282842712474619</speed>
  <fix>3d</fix>
</trkpt>
<trkpt lat="33.8103544" lon="-118.3938676">
  <ele>-7.76</ele>
  <time>2026-09-02T22:08:20Z</time>
  <course>266.89</course>
  <speed>0.0</speed>
  <fix>3d</fix>
</trkpt>
<trkpt lat="33.8103542" lon="-118.3938673">
  <ele>-7.956</ele>
  <time>2026-09-02T22:08:20Z</time>
  <course>356.6</course>
  <speed>0.0282842712474619</speed>
  <fix>3d</fix>
</trkpt>
<trkpt lat="33.8103544" lon="-118.3938676">
  <ele>-7.76</ele>
  <time>2026-09-02T22:08:20Z</time>
  <course>266.89</course>
  <speed>0.0</speed>
  <fix>3d</fix>
</trkpt>
<trkpt lat="33.8103542" lon="-118.3938673">
  <ele>-7.956</ele>
  <time>2026-09-02T22:08:20Z</time>
  <course>356.6</course>
  <speed>0.0282842712474619</speed>
  <fix>3d</fix>
</trkpt>
<trkpt lat="33.8103544" lon="-118.3938676">
  <ele>-7.76</ele>
  <time>2026-09-02T22:08:20Z</time>
  <course>266.89</course>
  <speed>0.0</speed>
  <fix>3d</fix>
</trkpt>
<trkpt lat="33.8103542" lon="-118.3938673">
  <ele>-7.956</ele>
  <time>2026-09-02T22:08:20Z</time>
  <course>356.59</course>
  <speed>0.0282842712474619</speed>
  <fix>3d</fix>
</trkpt>
<trkpt lat="33.8103544" lon="-118.3938676">
  <ele>-7.76</ele>
  <time>2026-09-02T22:08:20Z</time>
  <course>266.9</course>
  <speed>0.0</speed>
  <fix>3d</fix>
</trkpt>
<trkpt lat="33.8103542" lon="-118.3938673">
  <ele>-7.956</ele>
  <time>2026-09-02T22:08:20Z</time>
  <course>356.59</course>
  <speed>0.0282842712474619</speed>
  <fix>3d</fix>
</trkpt>
<trkpt lat="33.8103544" lon="-118.3938676">
  <ele>-7.76</ele>
  <time>2026-09-02T22:08:20Z</time>
  <course>266.9</course>
  <speed>0.0</speed>
  <fix>3d</fix>
</trkpt>
<trkpt lat="33.8103542" lon="-118.3938673">
  <ele>-7.956</ele>
  <time>2026-09-02T22:08:20Z</time>
  <course>356.58</course>
  <speed>0.0282842712474619</speed>
  <fix>3d</fix>
</trkpt>
<trkpt lat="33.8103544" lon="-118.3938676">
  <ele>-7.76</ele>
  <time>2026-09-02T22:08:20Z</time>
  <course>266.91</course>
  <speed>0.0</speed>
  <fix>3d</fix>
</trkpt>
<trkpt lat="33.8103542" lon="-118.3938673">
  <ele>-7.956</ele>
  <time>2026-09-02T22:08:20Z</time>
  <course>356.58</course>
  <speed>0.0282842712474619</speed>
  <fix>3d</fix>
</trkpt>
<trkpt lat="33.8103544" lon="-118.3938676">
  <ele>-7.76</ele>
  <time>2026-09-02T22:08:20Z</time>
  <course>266.91</course>
  <speed>0.0</speed>
  <fix>3d</fix>
</trkpt>
<trkpt lat="33.8103542" lon="-118.3938673">
  <ele>-7.956</ele>
  <time>2026-09-02T22:08:20Z</time>
  <course>356.57</course>
  <speed>0.0282842712474619</speed>
  <fix>3d</fix>
</trkpt>
<trkpt lat="33.8103544" lon="-118.3938676">
  <ele>-7.76</ele>
  <time>2026-09-02T22:08:20Z</time>
  <course>266.91</course>
  <speed>0.0</speed>
  <fix>3d</fix>
</trkpt>
<trkpt lat="33.8103542" lon="-118.3938673">
  <ele>-7.956</ele>
  <time>2026-09-02T22:08:20Z</time>
  <course>356.55</course>
  <speed>0.0282842712474619</speed>
  <fix>3d</fix>
</trkpt>
<trkpt lat="33.8103544" lon="-118.3938676">
  <ele>-7.76</ele>
  <time>2026-09-02T22:08:20Z</time>
  <course>266.91</course>
  <speed>0.0</speed>
  <fix>3d</fix>
</trkpt>
<trkpt lat="33.8103542" lon="-118.3938673">
  <ele>-7.956</ele>
  <time>2026-09-02T22:08:20Z</time>
  <course>356.51</course>
  <speed>0.0282842712474619</speed>
  <fix>3d</fix>
</trkpt>
<trkpt lat="33.8103544" lon="-118.3938676">
  <ele>-7.76</ele>
  <time>2026-09-02T22:08:20Z</time>
  <course>266.91</course>
  <speed>0.0</speed>
  <fix>3d</fix>
</trkpt>
<trkpt lat="33.8103542" lon="-118.3938673">
  <ele>-7.956</ele>
  <time>2026-09-02T22:08:20Z</time>
  <course>356.47</course>
  <speed>0.0282842712474619</speed>
  <fix>3d</fix>
</trkpt>
<trkpt lat="33.8103544" lon="-118.3938676">
  <ele>-7.76</ele>
  <time>2026-09-02T22:08:20Z</time>
  <course>266.91</course>
  <speed>0.0</speed>
  <fix>3d</fix>
</trkpt>
<trkpt lat="33.8103542" lon="-118.3938673">
  <ele>-7.956</ele>
  <time>2026-09-02T22:08:20Z</time>
  <course>356.43</course>
  <speed>0.0282842712474619</speed>
  <fix>3d</fix>
</trkpt>
<trkpt lat="33.8103544" lon="-118.3938676">
  <ele>-7.76</ele>
  <time>2026-09-02T22:08:20Z</time>
  <course>266.91</course>
  <speed>0.0</speed>
  <fix>3d</fix>
</trkpt>
<trkpt lat="33.8103542" lon="-118.3938673">
  <ele>-7.956</ele>
  <time>2026-09-02T22:08:20Z</time>
  <course>356.39</course>
  <speed>0.0282842712474619</speed>
  <fix>3d</fix>
</trkpt>
<trkpt lat="33.8103544" lon="-118.3938676">
  <ele>-7.76</ele>
  <time>2026-09-02T22:08:20Z</time>
  <course>266.91</course>
  <speed>0.0</speed>
  <fix>3d</fix>
</trkpt>
<trkpt lat="33.8103542" lon="-118.3938673">
  <ele>-7.956</ele>
  <time>2026-09-02T22:08:20Z</time>
  <course>356.37</course>
  <speed>0.0282842712474619</speed>
  <fix>3d</fix>
</trkpt>
<trkpt lat="33.8103544" lon="-118.3938676">
  <ele>-7.76</ele>
  <time>2026-09-02T22:08:20Z</time>
  <course>266.92</course>
  <speed>0.0</speed>
  <fix>3d</fix>
</trkpt>
<trkpt lat="33.8103542" lon="-118.3938673">
  <ele>-7.955</ele>
  <time>2026-09-02T22:08:20Z</time>
  <course>356.34</course>
  <speed>0.0282842712474619</speed>
  <fix>3d</fix>
</trkpt>
<trkpt lat="33.8103544" lon="-118.3938676">
  <ele>-7.76</ele>
  <time>2026-09-02T22:08:20Z</time>
  <course>266.92</course>
  <speed>0.0</speed>
  <fix>3d</fix>
</trkpt>
<trkpt lat="33.8103542" lon="-118.3938673">
  <ele>-7.955</ele>
  <time>2026-09-02T22:08:20Z</time>
  <course>356.32</course>
  <speed>0.0282842712474619</speed>
  <fix>3d</fix>
</trkpt>
<trkpt lat="33.8103544" lon="-118.3938676">
  <ele>-7.76</ele>
  <time>2026-09-02T22:08:20Z</time>
  <course>266.92</course>
  <speed>0.0</speed>
  <fix>3d</fix>
</trkpt>
<trkpt lat="33.8103542" lon="-118.3938673">
  <ele>-7.955</ele>
  <time>2026-09-02T22:08:20Z</time>
  <course>356.31</course>
  <speed>0.0282842712474619</speed>
  <fix>3d</fix>
</trkpt>
<trkpt lat="33.8103544" lon="-118.3938676">
  <ele>-7.76</ele>
  <time>2026-09-02T22:08:20Z</time>
  <course>266.92</course>
  <speed>0.0</speed>
  <fix>3d</fix>
</trkpt>
<trkpt lat="33.8103542" lon="-118.3938673">
  <ele>-7.955</ele>
  <time>2026-09-02T22:08:20Z</time>
  <course>356.29</course>
  <speed>0.0282842712474619</speed>
  <fix>3d</fix>
</trkpt>
<trkpt lat="33.8103544" lon="-118.3938676">
  <ele>-7.76</ele>
  <time>2026-09-02T22:08:20Z</time>
  <course>266.93</course>
  <speed>0.0</speed>
  <fix>3d</fix>
</trkpt>
<trkpt lat="33.8103542" lon="-118.3938673">
  <ele>-7.955</ele>
  <time>2026-09-02T22:08:20Z</time>
  <course>356.28</course>
  <speed>0.0282842712474619</speed>
  <fix>3d</fix>
</trkpt>
<trkpt lat="33.8103544" lon="-118.3938676">
  <ele>-7.76</ele>
  <time>2026-09-02T22:08:20Z</time>
  <course>266.93</course>
  <speed>0.0</speed>
  <fix>3d</fix>
</trkpt>
<trkpt lat="33.8103542" lon="-118.3938673">
  <ele>-7.955</ele>
  <time>2026-09-02T22:08:20Z</time>
  <course>356.27</course>
  <speed>0.0282842712474619</speed>
  <fix>3d</fix>
</trkpt>
<trkpt lat="33.8103544" lon="-118.3938677">
  <ele>-7.76</ele>
  <time>2026-09-02T22:08:20Z</time>
  <course>266.93</course>
  <speed>0.0</speed>
  <fix>3d</fix>
</trkpt>
<trkpt lat="33.8103542" lon="-118.3938673">
  <ele>-7.955</ele>
  <time>2026-09-02T22:08:20Z</time>
  <course>356.25</course>
  <speed>0.0282842712474619</speed>
  <fix>3d</fix>
</trkpt>
<trkpt lat="33.8103544" lon="-118.3938677">
  <ele>-7.76</ele>
  <time>2026-09-02T22:08:20Z</time>
  <course>266.93</course>
  <speed>0.0</speed>
  <fix>3d</fix>
</trkpt>
<trkpt lat="33.8103542" lon="-118.3938673">
  <ele>-7.955</ele>
  <time>2026-09-02T22:08:20Z</time>
  <course>356.24</course>
  <speed>0.0282842712474619</speed>
  <fix>3d</fix>
</trkpt>
<trkpt lat="33.8103544" lon="-118.3938677">
  <ele>-7.76</ele>
  <time>2026-09-02T22:08:20Z</time>
  <course>266.94</course>
  <speed>0.0</speed>
  <fix>3d</fix>
</trkpt>
<trkpt lat="33.8103542" lon="-118.3938673">
  <ele>-7.955</ele>
  <time>2026-09-02T22:08:21Z</time>
  <course>356.23</course>
  <speed>0.0282842712474619</speed>
  <fix>3d</fix>
</trkpt>
<trkpt lat="33.8103544" lon="-118.3938677">
  <ele>-7.76</ele>
  <time>2026-09-02T22:08:21Z</time>
  <course>266.94</course>
  <speed>0.0</speed>
  <fix>3d</fix>
</trkpt>
<trkpt lat="33.8103542" lon="-118.3938673">
  <ele>-7.955</ele>
  <time>2026-09-02T22:08:21Z</time>
  <course>356.22</course>
  <speed>0.0282842712474619</speed>
  <fix>3d</fix>
</trkpt>
<trkpt lat="33.8103544" lon="-118.3938677">
  <ele>-7.76</ele>
  <time>2026-09-02T22:08:21Z</time>
  <course>266.94</course>
  <speed>0.0</speed>
  <fix>3d</fix>
</trkpt>
<trkpt lat="33.8103542" lon="-118.3938673">
  <ele>-7.955</ele>
  <time>2026-09-02T22:08:21Z</time>
  <course>356.22</course>
  <speed>0.0282842712474619</speed>
  <fix>3d</fix>
</trkpt>
<trkpt lat="33.8103544" lon="-118.3938677">
  <ele>-7.76</ele>
  <time>2026-09-02T22:08:21Z</time>
  <course>266.94</course>
  <speed>0.0</speed>
  <fix>3d</fix>
</trkpt>
<trkpt lat="33.8103542" lon="-118.3938673">
  <ele>-7.955</ele>
  <time>2026-09-02T22:08:21Z</time>
  <course>356.21</course>
  <speed>0.0282842712474619</speed>
  <fix>3d</fix>
</trkpt>
<trkpt lat="33.8103544" lon="-118.3938677">
  <ele>-7.76</ele>
  <time>2026-09-02T22:08:21Z</time>
  <course>266.94</course>
  <speed>0.0</speed>
  <fix>3d</fix>
</trkpt>
<trkpt lat="33.8103542" lon="-118.3938673">
  <ele>-7.955</ele>
  <time>2026-09-02T22:08:21Z</time>
  <course>356.2</course>
  <speed>0.0282842712474619</speed>
  <fix>3d</fix>
</trkpt>
<trkpt lat="33.8103544" lon="-118.3938677">
  <ele>-7.76</ele>
  <time>2026-09-02T22:08:21Z</time>
  <course>266.94</course>
  <speed>0.0</speed>
  <fix>3d</fix>
</trkpt>
<trkpt lat="33.8103542" lon="-118.3938673">
  <ele>-7.955</ele>
  <time>2026-09-02T22:08:21Z</time>
  <course>356.19</course>
  <speed>0.0282842712474619</speed>
  <fix>3d</fix>
</trkpt>
<trkpt lat="33.8103544" lon="-118.3938677">
  <ele>-7.76</ele>
  <time>2026-09-02T22:08:21Z</time>
  <course>266.94</course>
  <speed>0.0</speed>
  <fix>3d</fix>
</trkpt>
<trkpt lat="33.8103542" lon="-118.3938674">
  <ele>-7.955</ele>
  <time>2026-09-02T22:08:21Z</time>
  <course>356.19</course>
  <speed>0.0282842712474619</speed>
  <fix>3d</fix>
</trkpt>
<trkpt lat="33.8103544" lon="-118.3938677">
  <ele>-7.76</ele>
  <time>2026-09-02T22:08:21Z</time>
  <course>266.94</course>
  <speed>0.0</speed>
  <fix>3d</fix>
</trkpt>
<trkpt lat="33.8103542" lon="-118.3938674">
  <ele>-7.955</ele>
  <time>2026-09-02T22:08:21Z</time>
  <course>356.18</course>
  <speed>0.0282842712474619</speed>
  <fix>3d</fix>
</trkpt>
<trkpt lat="33.8103544" lon="-118.3938677">
  <ele>-7.76</ele>
  <time>2026-09-02T22:08:21Z</time>
  <course>266.95</course>
  <speed>0.0</speed>
  <fix>3d</fix>
</trkpt>
<trkpt lat="33.8103542" lon="-118.3938674">
  <ele>-7.955</ele>
  <time>2026-09-02T22:08:21Z</time>
  <course>356.18</course>
  <speed>0.0282842712474619</speed>
  <fix>3d</fix>
</trkpt>
<trkpt lat="33.8103544" lon="-118.3938677">
  <ele>-7.76</ele>
  <time>2026-09-02T22:08:21Z</time>
  <course>266.95</course>
  <speed>0.0</speed>
  <fix>3d</fix>
</trkpt>
<trkpt lat="33.8103542" lon="-118.3938674">
  <ele>-7.954</ele>
  <time>2026-09-02T22:08:21Z</time>
  <course>356.17</course>
  <speed>0.0282842712474619</speed>
  <fix>3d</fix>
</trkpt>
<trkpt lat="33.8103544" lon="-118.3938677">
  <ele>-7.75</ele>
  <time>2026-09-02T22:08:21Z</time>
  <course>266.95</course>
  <speed>0.0</speed>
  <fix>3d</fix>
</trkpt>
<trkpt lat="33.8103542" lon="-118.3938674">
  <ele>-7.952</ele>
  <time>2026-09-02T22:08:21Z</time>
  <course>356.16</course>
  <speed>0.0282842712474619</speed>
  <fix>3d</fix>
</trkpt>
<trkpt lat="33.8103544" lon="-118.3938677">
  <ele>-7.75</ele>
  <time>2026-09-02T22:08:21Z</time>
  <course>266.95</course>
  <speed>0.0</speed>
  <fix>3d</fix>
</trkpt>
<trkpt lat="33.8103542" lon="-118.3938674">
  <ele>-7.949</ele>
  <time>2026-09-02T22:08:21Z</time>
  <course>356.16</course>
  <speed>0.022360679774997897</speed>
  <fix>3d</fix>
</trkpt>
<trkpt lat="33.8103544" lon="-118.3938677">
  <ele>-7.75</ele>
  <time>2026-09-02T22:08:21Z</time>
  <course>266.96</course>
  <speed>0.0</speed>
  <fix>3d</fix>
</trkpt>
<trkpt lat="33.8103542" lon="-118.3938674">
  <ele>-7.945</ele>
  <time>2026-09-02T22:08:21Z</time>
  <course>356.15</course>
  <speed>0.022360679774997897</speed>
  <fix>3d</fix>
</trkpt>
<trkpt lat="33.8103544" lon="-118.3938677">
  <ele>-7.75</ele>
  <time>2026-09-02T22:08:21Z</time>
  <course>266.96</course>
  <speed>0.0</speed>
  <fix>3d</fix>
</trkpt>
<trkpt lat="33.8103542" lon="-118.3938674">
  <ele>-7.939</ele>
  <time>2026-09-02T22:08:21Z</time>
  <course>356.15</course>
  <speed>0.022360679774997897</speed>
  <fix>3d</fix>
</trkpt>
<trkpt lat="33.8103544" lon="-118.3938677">
  <ele>-7.74</ele>
  <time>2026-09-02T22:08:21Z</time>
  <course>266.96</course>
  <speed>0.0</speed>
  <fix>3d</fix>
</trkpt>
<trkpt lat="33.8103542" lon="-118.3938674">
  <ele>-7.933</ele>
  <time>2026-09-02T22:08:21Z</time>
  <course>356.15</course>
  <speed>0.022360679774997897</speed>
  <fix>3d</fix>
</trkpt>
<trkpt lat="33.8103544" lon="-118.3938677">
  <ele>-7.74</ele>
  <time>2026-09-02T22:08:21Z</time>
  <course>266.96</course>
  <speed>0.0</speed>
  <fix>3d</fix>
</trkpt>
<trkpt lat="33.8103542" lon="-118.3938674">
  <ele>-7.91</ele>
  <time>2026-09-02T22:08:21Z</time>
  <course>356.13</course>
  <speed>0.022360679774997897</speed>
  <fix>3d</fix>
</trkpt>
<trkpt lat="33.8103544" lon="-118.3938677">
  <ele>-7.72</ele>
  <time>2026-09-02T22:08:21Z</time>
  <course>266.97</course>
  <speed>0.0</speed>
  <fix>3d</fix>
</trkpt>
<trkpt lat="33.8103542" lon="-118.3938674">
  <ele>-7.885</ele>
  <time>2026-09-02T22:08:21Z</time>
  <course>356.12</course>
  <speed>0.01414213562373095</speed>
  <fix>3d</fix>
</trkpt>
<trkpt lat="33.8103544" lon="-118.3938677">
  <ele>-7.7</ele>
  <time>2026-09-02T22:08:21Z</time>
  <course>266.98</course>
  <speed>0.0</speed>
  <fix>3d</fix>
</trkpt>
<trkpt lat="33.8103542" lon="-118.3938674">
  <ele>-7.877</ele>
  <time>2026-09-02T22:08:21Z</time>
  <course>356.12</course>
  <speed>0.01414213562373095</speed>
  <fix>3d</fix>
</trkpt>
<trkpt lat="33.8103544" lon="-118.3938677">
  <ele>-7.7</ele>
  <time>2026-09-02T22:08:21Z</time>
  <course>266.98</course>
  <speed>0.0</speed>
  <fix>3d</fix>
</trkpt>
<trkpt lat="33.8103542" lon="-118.3938674">
  <ele>-7.868</ele>
  <time>2026-09-02T22:08:21Z</time>
  <course>356.11</course>
  <speed>0.01414213562373095</speed>
  <fix>3d</fix>
</trkpt>
<trkpt lat="33.8103544" lon="-118.3938677">
  <ele>-7.68</ele>
  <time>2026-09-02T22:08:21Z</time>
  <course>266.98</course>
  <speed>0.0</speed>
  <fix>3d</fix>
</trkpt>
<trkpt lat="33.8103542" lon="-118.3938674">
  <ele>-7.853</ele>
  <time>2026-09-02T22:08:21Z</time>
  <course>356.11</course>
  <speed>0.01414213562373095</speed>
  <fix>3d</fix>
</trkpt>
<trkpt lat="33.8103544" lon="-118.3938677">
  <ele>-7.67</ele>
  <time>2026-09-02T22:08:21Z</time>
  <course>266.99</course>
  <speed>0.0</speed>
  <fix>3d</fix>
</trkpt>
<trkpt lat="33.8103542" lon="-118.3938674">
  <ele>-7.844</ele>
  <time>2026-09-02T22:08:21Z</time>
  <course>356.11</course>
  <speed>0.01414213562373095</speed>
  <fix>3d</fix>
</trkpt>
<trkpt lat="33.8103544" lon="-118.3938677">
  <ele>-7.67</ele>
  <time>2026-09-02T22:08:21Z</time>
  <course>266.99</course>
  <speed>0.0</speed>
  <fix>3d</fix>
</trkpt>
<trkpt lat="33.8103542" lon="-118.3938675">
  <ele>-7.834</ele>
  <time>2026-09-02T22:08:21Z</time>
  <course>356.1</course>
  <speed>0.01414213562373095</speed>
  <fix>3d</fix>
</trkpt>
<trkpt lat="33.8103544" lon="-118.3938677">
  <ele>-7.66</ele>
  <time>2026-09-02T22:08:21Z</time>
  <course>266.99</course>
  <speed>0.0</speed>
  <fix>3d</fix>
</trkpt>
<trkpt lat="33.8103542" lon="-118.3938675">
  <ele>-7.825</ele>
  <time>2026-09-02T22:08:21Z</time>
  <course>356.1</course>
  <speed>0.01414213562373095</speed>
  <fix>3d</fix>
</trkpt>
<trkpt lat="33.8103544" lon="-118.3938677">
  <ele>-7.66</ele>
  <time>2026-09-02T22:08:21Z</time>
  <course>266.99</course>
  <speed>0.0</speed>
  <fix>3d</fix>
</trkpt>
<trkpt lat="33.8103542" lon="-118.3938675">
  <ele>-7.817</ele>
  <time>2026-09-02T22:08:21Z</time>
  <course>356.1</course>
  <speed>0.01414213562373095</speed>
  <fix>3d</fix>
</trkpt>
<trkpt lat="33.8103544" lon="-118.3938677">
  <ele>-7.64</ele>
  <time>2026-09-02T22:08:21Z</time>
  <course>266.99</course>
  <speed>0.0</speed>
  <fix>3d</fix>
</trkpt>
<trkpt lat="33.8103542" lon="-118.3938675">
  <ele>-7.808</ele>
  <time>2026-09-02T22:08:21Z</time>
  <course>356.1</course>
  <speed>0.01414213562373095</speed>
  <fix>3d</fix>
</trkpt>
<trkpt lat="33.8103544" lon="-118.3938677">
  <ele>-7.64</ele>
  <time>2026-09-02T22:08:21Z</time>
  <course>266.99</course>
  <speed>0.0</speed>
  <fix>3d</fix>
</trkpt>
<trkpt lat="33.8103542" lon="-118.3938675">
  <ele>-7.799</ele>
  <time>2026-09-02T22:08:21Z</time>
  <course>356.09</course>
  <speed>0.01414213562373095</speed>
  <fix>3d</fix>
</trkpt>
<trkpt lat="33.8103544" lon="-118.3938678">
  <ele>-7.63</ele>
  <time>2026-09-02T22:08:21Z</time>
  <course>267.0</course>
  <speed>0.0</speed>
  <fix>3d</fix>
</trkpt>
<trkpt lat="33.8103542" lon="-118.3938675">
  <ele>-7.788</ele>
  <time>2026-09-02T22:08:21Z</time>
  <course>356.09</course>
  <speed>0.01414213562373095</speed>
  <fix>3d</fix>
</trkpt>
<trkpt lat="33.8103544" lon="-118.3938678">
  <ele>-7.63</ele>
  <time>2026-09-02T22:08:21Z</time>
  <course>267.0</course>
  <speed>0.0</speed>
  <fix>3d</fix>
</trkpt>
<trkpt lat="33.8103542" lon="-118.3938675">
  <ele>-7.777</ele>
  <time>2026-09-02T22:08:21Z</time>
  <course>356.09</course>
  <speed>0.01414213562373095</speed>
  <fix>3d</fix>
</trkpt>
<trkpt lat="33.8103544" lon="-118.3938678">
  <ele>-7.6</ele>
  <time>2026-09-02T22:08:21Z</time>
  <course>267.0</course>
  <speed>0.0</speed>
  <fix>3d</fix>
</trkpt>
<trkpt lat="33.8103542" lon="-118.3938675">
  <ele>-7.765</ele>
  <time>2026-09-02T22:08:21Z</time>
  <course>356.09</course>
  <speed>0.01414213562373095</speed>
  <fix>3d</fix>
</trkpt>
<trkpt lat="33.8103544" lon="-118.3938678">
  <ele>-7.6</ele>
  <time>2026-09-02T22:08:21Z</time>
  <course>267.0</course>
  <speed>0.0</speed>
  <fix>3d</fix>
</trkpt>
<trkpt lat="33.8103542" lon="-118.3938675">
  <ele>-7.754</ele>
  <time>2026-09-02T22:08:21Z</time>
  <course>356.09</course>
  <speed>0.01414213562373095</speed>
  <fix>3d</fix>
</trkpt>
<trkpt lat="33.8103544" lon="-118.3938678">
  <ele>-7.59</ele>
  <time>2026-09-02T22:08:21Z</time>
  <course>267.01</course>
  <speed>0.0</speed>
  <fix>3d</fix>
</trkpt>
<trkpt lat="33.8103542" lon="-118.3938675">
  <ele>-7.744</ele>
  <time>2026-09-02T22:08:21Z</time>
  <course>356.08</course>
  <speed>0.01414213562373095</speed>
  <fix>3d</fix>
</trkpt>
<trkpt lat="33.8103544" lon="-118.3938678">
  <ele>-7.59</ele>
  <time>2026-09-02T22:08:21Z</time>
  <course>267.01</course>
  <speed>0.0</speed>
  <fix>3d</fix>
</trkpt>
<trkpt lat="33.8103542" lon="-118.3938675">
  <ele>-7.735</ele>
  <time>2026-09-02T22:08:21Z</time>
  <course>356.08</course>
  <speed>0.01414213562373095</speed>
  <fix>3d</fix>
</trkpt>
<trkpt lat="33.8103544" lon="-118.3938678">
  <ele>-7.56</ele>
  <time>2026-09-02T22:08:21Z</time>
  <course>267.01</course>
  <speed>0.0</speed>
  <fix>3d</fix>
</trkpt>
<trkpt lat="33.8103542" lon="-118.3938675">
  <ele>-7.726</ele>
  <time>2026-09-02T22:08:21Z</time>
  <course>356.08</course>
  <speed>0.01414213562373095</speed>
  <fix>3d</fix>
</trkpt>
<trkpt lat="33.8103544" lon="-118.3938678">
  <ele>-7.56</ele>
  <time>2026-09-02T22:08:21Z</time>
  <course>267.01</course>
  <speed>0.0</speed>
  <fix>3d</fix>
</trkpt>
<trkpt lat="33.8103542" lon="-118.3938675">
  <ele>-7.718</ele>
  <time>2026-09-02T22:08:21Z</time>
  <course>356.08</course>
  <speed>0.01414213562373095</speed>
  <fix>3d</fix>
</trkpt>
<trkpt lat="33.8103544" lon="-118.3938678">
  <ele>-7.55</ele>
  <time>2026-09-02T22:08:21Z</time>
  <course>267.02</course>
  <speed>0.0</speed>
  <fix>3d</fix>
</trkpt>
<trkpt lat="33.8103542" lon="-118.3938675">
  <ele>-7.71</ele>
  <time>2026-09-02T22:08:21Z</time>
  <course>356.08</course>
  <speed>0.01414213562373095</speed>
  <fix>3d</fix>
</trkpt>
<trkpt lat="33.8103544" lon="-118.3938678">
  <ele>-7.55</ele>
  <time>2026-09-02T22:08:21Z</time>
  <course>267.02</course>
  <speed>0.0</speed>
  <fix>3d</fix>
</trkpt>
<trkpt lat="33.8103542" lon="-118.3938675">
  <ele>-7.702</ele>
  <time>2026-09-02T22:08:21Z</time>
  <course>356.08</course>
  <speed>0.01414213562373095</speed>
  <fix>3d</fix>
</trkpt>
<trkpt lat="33.8103544" lon="-118.3938678">
  <ele>-7.54</ele>
  <time>2026-09-02T22:08:21Z</time>
  <course>267.02</course>
  <speed>0.0</speed>
  <fix>3d</fix>
</trkpt>
<trkpt lat="33.8103542" lon="-118.3938675">
  <ele>-7.694</ele>
  <time>2026-09-02T22:08:21Z</time>
  <course>356.07</course>
  <speed>0.01414213562373095</speed>
  <fix>3d</fix>
</trkpt>
<trkpt lat="33.8103544" lon="-118.3938678">
  <ele>-7.54</ele>
  <time>2026-09-02T22:08:21Z</time>
  <course>267.02</course>
  <speed>0.0</speed>
  <fix>3d</fix>
</trkpt>
<trkpt lat="33.8103542" lon="-118.3938675">
  <ele>-7.686</ele>
  <time>2026-09-02T22:08:21Z</time>
  <course>356.07</course>
  <speed>0.01414213562373095</speed>
  <fix>3d</fix>
</trkpt>
<trkpt lat="33.8103544" lon="-118.3938678">
  <ele>-7.52</ele>
  <time>2026-09-02T22:08:21Z</time>
  <course>267.02</course>
  <speed>0.0</speed>
  <fix>3d</fix>
</trkpt>
<trkpt lat="33.8103542" lon="-118.3938675">
  <ele>-7.678</ele>
  <time>2026-09-02T22:08:21Z</time>
  <course>356.07</course>
  <speed>0.01414213562373095</speed>
  <fix>3d</fix>
</trkpt>
<trkpt lat="33.8103544" lon="-118.3938678">
  <ele>-7.52</ele>
  <time>2026-09-02T22:08:21Z</time>
  <course>267.02</course>
  <speed>0.0</speed>
  <fix>3d</fix>
</trkpt>
<trkpt lat="33.8103542" lon="-118.3938675">
  <ele>-7.669</ele>
  <time>2026-09-02T22:08:21Z</time>
  <course>356.07</course>
  <speed>0.01414213562373095</speed>
  <fix>3d</fix>
</trkpt>
<trkpt lat="33.8103544" lon="-118.3938678">
  <ele>-7.5</ele>
  <time>2026-09-02T22:08:21Z</time>
  <course>267.03</course>
  <speed>0.0</speed>
  <fix>3d</fix>
</trkpt>
<trkpt lat="33.8103542" lon="-118.3938675">
  <ele>-7.66</ele>
  <time>2026-09-02T22:08:21Z</time>
  <course>356.07</course>
  <speed>0.01414213562373095</speed>
  <fix>3d</fix>
</trkpt>
<trkpt lat="33.8103544" lon="-118.3938678">
  <ele>-7.5</ele>
  <time>2026-09-02T22:08:21Z</time>
  <course>267.03</course>
  <speed>0.0</speed>
  <fix>3d</fix>
</trkpt>
<trkpt lat="33.8103542" lon="-118.3938675">
  <ele>-7.651</ele>
  <time>2026-09-02T22:08:21Z</time>
  <course>356.07</course>
  <speed>0.01414213562373095</speed>
  <fix>3d</fix>
</trkpt>
<trkpt lat="33.8103544" lon="-118.3938678">
  <ele>-7.47</ele>
  <time>2026-09-02T22:08:21Z</time>
  <course>267.04</course>
  <speed>0.0</speed>
  <fix>3d</fix>
</trkpt>
<trkpt lat="33.4368002" lon="-117.0859339">
  <ele>-0.11</ele>
  <time>2026-09-02T22:08:21Z</time>
  <course>0.0</course>
  <speed>0.0</speed>
  <fix>3d</fix>
</trkpt>
<trkpt lat="33.4368002" lon="-117.0859339">
  <ele>-0.11</ele>
  <time>2026-09-02T22:08:21Z</time>
  <course>0.0</course>
  <speed>0.0</speed>
  <fix>3d</fix>
</trkpt>
<trkpt lat="33.810313" lon="-118.393867">
  <ele>0.0</ele>
  <time>2026-09-02T22:08:21Z</time>
  <course>173.5</course>
  <speed>0.0</speed>
  <fix>3d</fix>
</trkpt>
<trkpt lat="33.810313" lon="-118.393867">
  <ele>-0.11</ele>
  <time>2026-09-02T22:08:21Z</time>
  <course>0.0</course>
  <speed>0.0</speed>
  <fix>3d</fix>
</trkpt>
<trkpt lat="33.810313" lon="-118.393867">
  <ele>0.0</ele>
  <time>2026-09-02T22:08:21Z</time>
  <course>173.61</course>
  <speed>0.0</speed>
  <fix>3d</fix>
</trkpt>
<trkpt lat="33.810313" lon="-118.393867">
  <ele>-0.11</ele>
  <time>2026-09-02T22:08:21Z</time>
  <course>0.0</course>
  <speed>0.0</speed>
  <fix>3d</fix>
</trkpt>
<trkpt lat="33.810313" lon="-118.393867">
  <ele>0.0</ele>
  <time>2026-09-02T22:08:21Z</time>
  <course>173.98</course>
  <speed>0.0</speed>
  <fix>3d</fix>
</trkpt>
<trkpt lat="33.810313" lon="-118.393867">
  <ele>-0.11</ele>
  <time>2026-09-02T22:08:21Z</time>
  <course>0.0</course>
  <speed>0.0</speed>
  <fix>3d</fix>
</trkpt>
<trkpt lat="33.810313" lon="-118.393867">
  <ele>0.0</ele>
  <time>2026-09-02T22:08:21Z</time>
  <course>174.51</course>
  <speed>0.0</speed>
  <fix>3d</fix>
</trkpt>
<trkpt lat="33.810313" lon="-118.393867">
  <ele>-0.11</ele>
  <time>2026-09-02T22:08:21Z</time>
  <course>0.0</course>
  <speed>0.0</speed>
  <fix>3d</fix>
</trkpt>
<trkpt lat="33.810313" lon="-118.393867">
  <ele>0.0</ele>
  <time>2026-09-02T22:08:21Z</time>
  <course>175.07</course>
  <speed>0.0</speed>
  <fix>3d</fix>
</trkpt>
<trkpt lat="33.810313" lon="-118.393867">
  <ele>-0.12</ele>
  <time>2026-09-02T22:08:21Z</time>
  <course>0.0</course>
  <speed>0.0</speed>
  <fix>3d</fix>
</trkpt>
<trkpt lat="33.810313" lon="-118.393867">
  <ele>0.0</ele>
  <time>2026-09-02T22:08:21Z</time>
  <course>175.61</course>
  <speed>0.0</speed>
  <fix>3d</fix>
</trkpt>
<trkpt lat="33.810313" lon="-118.393867">
  <ele>-0.12</ele>
  <time>2026-09-02T22:08:21Z</time>
  <course>0.0</course>
  <speed>0.0</speed>
  <fix>3d</fix>
</trkpt>
<trkpt lat="33.810313" lon="-118.393867">
  <ele>0.0</ele>
  <time>2026-09-02T22:08:21Z</time>
  <course>176.12</course>
  <speed>0.0</speed>
  <fix>3d</fix>
</trkpt>
<trkpt lat="33.810313" lon="-118.393867">
  <ele>-0.13</ele>
  <time>2026-09-02T22:08:21Z</time>
  <course>0.0</course>
  <speed>0.0</speed>
  <fix>3d</fix>
</trkpt>
<trkpt lat="33.810313" lon="-118.393867">
  <ele>0.0</ele>
  <time>2026-09-02T22:08:21Z</time>
  <course>176.6</course>
  <speed>0.0</speed>
  <fix>3d</fix>
</trkpt>
<trkpt lat="33.810313" lon="-118.393867">
  <ele>-0.13</ele>
  <time>2026-09-02T22:08:21Z</time>
  <course>0.0</course>
  <speed>0.0</speed>
  <fix>3d</fix>
</trkpt>
<trkpt lat="33.810313" lon="-118.393867">
  <ele>0.0</ele>
  <time>2026-09-02T22:08:21Z</time>
  <course>177.07</course>
  <speed>0.0</speed>
  <fix>3d</fix>
</trkpt>
<trkpt lat="33.810313" lon="-118.393867">
  <ele>-0.13</ele>
  <time>2026-09-02T22:08:21Z</time>
  <course>0.0</course>
  <speed>0.0</speed>
  <fix>3d</fix>
</trkpt>
<trkpt lat="33.810313" lon="-118.393867">
  <ele>0.0</ele>
  <time>2026-09-02T22:08:21Z</time>
  <course>177.53</course>
  <speed>0.0</speed>
  <fix>3d</fix>
</trkpt>
<trkpt lat="33.810313" lon="-118.393867">
  <ele>-0.13</ele>
  <time>2026-09-02T22:08:21Z</time>
  <course>0.0</course>
  <speed>0.0</speed>
  <fix>3d</fix>
</trkpt>
<trkpt lat="33.810313" lon="-118.393867">
  <ele>0.0</ele>
  <time>2026-09-02T22:08:21Z</time>
  <course>177.97</course>
  <speed>0.0</speed>
  <fix>3d</fix>
</trkpt>
<trkpt lat="33.810313" lon="-118.393867">
  <ele>-0.14</ele>
  <time>2026-09-02T22:08:21Z</time>
  <course>0.0</course>
  <speed>0.0</speed>
  <fix>3d</fix>
</trkpt>
<trkpt lat="33.810313" lon="-118.393867">
  <ele>0.0</ele>
  <time>2026-09-02T22:08:21Z</time>
  <course>178.4</course>
  <speed>0.0</speed>
  <fix>3d</fix>
</trkpt>
<trkpt lat="33.810313" lon="-118.393867">
  <ele>-0.14</ele>
  <time>2026-09-02T22:08:21Z</time>
  <course>0.0</course>
  <speed>0.0</speed>
  <fix>3d</fix>
</trkpt>
<trkpt lat="33.810313" lon="-118.393867">
  <ele>0.0</ele>
  <time>2026-09-02T22:08:21Z</time>
  <course>178.83</course>
  <speed>0.0</speed>
  <fix>3d</fix>
</trkpt>
<trkpt lat="33.810313" lon="-118.393867">
  <ele>-0.14</ele>
  <time>2026-09-02T22:08:21Z</time>
  <course>0.0</course>
  <speed>0.0</speed>
  <fix>3d</fix>
</trkpt>
<trkpt lat="33.810313" lon="-118.393867">
  <ele>0.0</ele>
  <time>2026-09-02T22:08:21Z</time>
  <course>179.23</course>
  <speed>0.0</speed>
  <fix>3d</fix>
</trkpt>
<trkpt lat="33.810313" lon="-118.393867">
  <ele>-0.14</ele>
  <time>2026-09-02T22:08:21Z</time>
  <course>0.0</course>
  <speed>0.0</speed>
  <fix>3d</fix>
</trkpt>
<trkpt lat="33.810313" lon="-118.393867">
  <ele>0.0</ele>
  <time>2026-09-02T22:08:21Z</time>
  <course>179.62</course>
  <speed>0.0</speed>
  <fix>3d</fix>
</trkpt>
<trkpt lat="33.810313" lon="-118.393867">
  <ele>-0.14</ele>
  <time>2026-09-02T22:08:21Z</time>
  <course>0.0</course>
  <speed>0.0</speed>
  <fix>3d</fix>
</trkpt>
<trkpt lat="33.810313" lon="-118.393867">
  <ele>0.0</ele>
  <time>2026-09-02T22:08:21Z</time>
  <course>180.01</course>
  <speed>0.0</speed>
  <fix>3d</fix>
</trkpt>
<trkpt lat="33.810313" lon="-118.393867">
  <ele>-0.14</ele>
  <time>2026-09-02T22:08:21Z</time>
  <course>0.0</course>
  <speed>0.0</speed>
  <fix>3d</fix>
</trkpt>
<trkpt lat="33.810313" lon="-118.393867">
  <ele>0.0</ele>
  <time>2026-09-02T22:08:21Z</time>
  <course>180.37</course>
  <speed>0.0</speed>
  <fix>3d</fix>
</trkpt>
<trkpt lat="33.810313" lon="-118.393867">
  <ele>-0.14</ele>
  <time>2026-09-02T22:08:21Z</time>
  <course>0.0</course>
  <speed>0.0</speed>
  <fix>3d</fix>
</trkpt>
<trkpt lat="33.810313" lon="-118.393867">
  <ele>0.0</ele>
  <time>2026-09-02T22:08:21Z</time>
  <course>180.73</course>
  <speed>0.0</speed>
  <fix>3d</fix>
</trkpt>
<trkpt lat="33.810313" lon="-118.393867">
  <ele>-0.14</ele>
  <time>2026-09-02T22:08:21Z</time>
  <course>0.0</course>
  <speed>0.0</speed>
  <fix>3d</fix>
</trkpt>
<trkpt lat="33.810313" lon="-118.393867">
  <ele>0.0</ele>
  <time>2026-09-02T22:08:21Z</time>
  <course>181.07</course>
  <speed>0.0</speed>
  <fix>3d</fix>
</trkpt>
<trkpt lat="33.810313" lon="-118.393867">
  <ele>-0.13</ele>
  <time>2026-09-02T22:08:21Z</time>
  <course>0.0</course>
  <speed>0.0</speed>
  <fix>3d</fix>
</trkpt>
<trkpt lat="33.810313" lon="-118.393867">
  <ele>0.0</ele>
  <time>2026-09-02T22:08:21Z</time>
  <course>181.4</course>
  <speed>0.0</speed>
  <fix>3d</fix>
</trkpt>
<trkpt lat="33.810313" lon="-118.393867">
  <ele>-0.13</ele>
  <time>2026-09-02T22:08:21Z</time>
  <course>0.0</course>
  <speed>0.0</speed>
  <fix>3d</fix>
</trkpt>
<trkpt lat="33.810313" lon="-118.393867">
  <ele>0.0</ele>
  <time>2026-09-02T22:08:21Z</time>
  <course>181.72</course>
  <speed>0.0</speed>
  <fix>3d</fix>
</trkpt>
<trkpt lat="33.810313" lon="-118.393867">
  <ele>-0.12</ele>
  <time>2026-09-02T22:08:21Z</time>
  <course>0.0</course>
  <speed>0.0</speed>
  <fix>3d</fix>
</trkpt>
<trkpt lat="33.810313" lon="-118.393867">
  <ele>0.0</ele>
  <time>2026-09-02T22:08:21Z</time>
  <course>182.02</course>
  <speed>0.0</speed>
  <fix>3d</fix>
</trkpt>
<trkpt lat="33.810313" lon="-118.393867">
  <ele>-0.12</ele>
  <time>2026-09-02T22:08:21Z</time>
  <course>0.0</course>
  <speed>0.0</speed>
  <fix>3d</fix>
</trkpt>
<trkpt lat="33.810313" lon="-118.393867">
  <ele>0.0</ele>
  <time>2026-09-02T22:08:21Z</time>
  <course>182.32</course>
  <speed>0.0</speed>
  <fix>3d</fix>
</trkpt>
<trkpt lat="33.810313" lon="-118.393867">
  <ele>-0.12</ele>
  <time>2026-09-02T22:08:21Z</time>
  <course>0.0</course>
  <speed>0.0</speed>
  <fix>3d</fix>
</trkpt>
<trkpt lat="33.810313" lon="-118.393867">
  <ele>0.0</ele>
  <time>2026-09-02T22:08:21Z</time>
  <course>182.6</course>
  <speed>0.0</speed>
  <fix>3d</fix>
</trkpt>
<trkpt lat="33.810313" lon="-118.393867">
  <ele>-0.12</ele>
  <time>2026-09-02T22:08:21Z</time>
  <course>0.0</course>
  <speed>0.0</speed>
  <fix>3d</fix>
</trkpt>
<trkpt lat="33.810313" lon="-118.393867">
  <ele>0.0</ele>
  <time>2026-09-02T22:08:21Z</time>
  <course>182.87</course>
  <speed>0.0</speed>
  <fix>3d</fix>
</trkpt>
<trkpt lat="33.810313" lon="-118.393867">
  <ele>-0.11</ele>
  <time>2026-09-02T22:08:21Z</time>
  <course>0.0</course>
  <speed>0.0</speed>
  <fix>3d</fix>
</trkpt>
<trkpt lat="33.810313" lon="-118.393867">
  <ele>0.0</ele>
  <time>2026-09-02T22:08:21Z</time>
  <course>183.14</course>
  <speed>0.0</speed>
  <fix>3d</fix>
</trkpt>
<trkpt lat="33.810313" lon="-118.393867">
  <ele>-0.11</ele>
  <time>2026-09-02T22:08:21Z</time>
  <course>0.0</course>
  <speed>0.0</speed>
  <fix>3d</fix>
</trkpt>
<trkpt lat="33.810313" lon="-118.393867">
  <ele>0.0</ele>
  <time>2026-09-02T22:08:21Z</time>
  <course>183.39</course>
  <speed>0.0</speed>
  <fix>3d</fix>
</trkpt>
<trkpt lat="33.810313" lon="-118.393867">
  <ele>-0.11</ele>
  <time>2026-09-02T22:08:21Z</time>
  <course>0.0</course>
  <speed>0.0</speed>
  <fix>3d</fix>
</trkpt>
<trkpt lat="33.810313" lon="-118.393867">
  <ele>0.0</ele>
  <time>2026-09-02T22:08:21Z</time>
  <course>183.63</course>
  <speed>0.0</speed>
  <fix>3d</fix>
</trkpt>
<trkpt lat="33.810313" lon="-118.393867">
  <ele>-0.11</ele>
  <time>2026-09-02T22:08:21Z</time>
  <course>0.0</course>
  <speed>0.0</speed>
  <fix>3d</fix>
</trkpt>
<trkpt lat="33.810313" lon="-118.393867">
  <ele>0.0</ele>
  <time>2026-09-02T22:08:21Z</time>
  <course>183.86</course>
  <speed>0.0</speed>
  <fix>3d</fix>
</trkpt>
<trkpt lat="33.810313" lon="-118.393867">
  <ele>-0.12</ele>
  <time>2026-09-02T22:08:21Z</time>
  <course>0.0</course>
  <speed>0.0</speed>
  <fix>3d</fix>
</trkpt>
<trkpt lat="33.810313" lon="-118.393867">
  <ele>0.0</ele>
  <time>2026-09-02T22:08:21Z</time>
  <course>184.08</course>
  <speed>0.0</speed>
  <fix>3d</fix>
</trkpt>
<trkpt lat="33.810313" lon="-118.393867">
  <ele>-0.12</ele>
  <time>2026-09-02T22:08:21Z</time>
  <course>0.0</course>
  <speed>0.0</speed>
  <fix>3d</fix>
</trkpt>
<trkpt lat="33.810313" lon="-118.393867">
  <ele>0.0</ele>
  <time>2026-09-02T22:08:21Z</time>
  <course>184.3</course>
  <speed>0.0</speed>
  <fix>3d</fix>
</trkpt>
<trkpt lat="33.810313" lon="-118.393867">
  <ele>-0.13</ele>
  <time>2026-09-02T22:08:21Z</time>
  <course>0.0</course>
  <speed>0.0</speed>
  <fix>3d</fix>
</trkpt>
<trkpt lat="33.810313" lon="-118.393867">
  <ele>0.0</ele>
  <time>2026-09-02T22:08:21Z</time>
  <course>184.5</course>
  <speed>0.0</speed>
  <fix>3d</fix>
</trkpt>
<trkpt lat="33.810313" lon="-118.393867">
  <ele>-0.13</ele>
  <time>2026-09-02T22:08:21Z</time>
  <course>0.0</course>
  <speed>0.0</speed>
  <fix>3d</fix>
</trkpt>
<trkpt lat="33.810313" lon="-118.393867">
  <ele>0.0</ele>
  <time>2026-09-02T22:08:21Z</time>
  <course>184.7</course>
  <speed>0.0</speed>
  <fix>3d</fix>
</trkpt>
<trkpt lat="33.810313" lon="-118.393867">
  <ele>-0.13</ele>
  <time>2026-09-02T22:08:21Z</time>
  <course>0.0</course>
  <speed>0.0</speed>
  <fix>3d</fix>
</trkpt>
<trkpt lat="33.810313" lon="-118.393867">
  <ele>0.0</ele>
  <time>2026-09-02T22:08:21Z</time>
  <course>184.89</course>
  <speed>0.0</speed>
  <fix>3d</fix>
</trkpt>
<trkpt lat="33.810313" lon="-118.393867">
  <ele>-0.13</ele>
  <time>2026-09-02T22:08:21Z</time>
  <course>0.0</course>
  <speed>0.0</speed>
  <fix>3d</fix>
</trkpt>
<trkpt lat="33.810313" lon="-118.393867">
  <ele>0.0</ele>
  <time>2026-09-02T22:08:22Z</time>
  <course>185.07</course>
  <speed>0.0</speed>
  <fix>3d</fix>
</trkpt>
<trkpt lat="33.810313" lon="-118.393867">
  <ele>-0.14</ele>
  <time>2026-09-02T22:08:22Z</time>
  <course>0.0</course>
  <speed>0.0</speed>
  <fix>3d</fix>
</trkpt>
<trkpt lat="33.810313" lon="-118.393867">
  <ele>0.0</ele>
  <time>2026-09-02T22:08:22Z</time>
  <course>185.24</course>
  <speed>0.0</speed>
  <fix>3d</fix>
</trkpt>
<trkpt lat="33.810313" lon="-118.393867">
  <ele>-0.14</ele>
  <time>2026-09-02T22:08:22Z</time>
  <course>0.0</course>
  <speed>0.0</speed>
  <fix>3d</fix>
</trkpt>
<trkpt lat="33.810313" lon="-118.393867">
  <ele>0.0</ele>
  <time>2026-09-02T22:08:22Z</time>
  <course>185.41</course>
  <speed>0.0</speed>
  <fix>3d</fix>
</trkpt>
<trkpt lat="33.810313" lon="-118.393867">
  <ele>-0.13</ele>
  <time>2026-09-02T22:08:22Z</time>
  <course>0.0</course>
  <speed>0.0</speed>
  <fix>3d</fix>
</trkpt>
<trkpt lat="33.810313" lon="-118.393867">
  <ele>0.0</ele>
  <time>2026-09-02T22:08:22Z</time>
  <course>185.56</course>
  <speed>0.0</speed>
  <fix>3d</fix>
</trkpt>
<trkpt lat="33.810313" lon="-118.393867">
  <ele>-0.13</ele>
  <time>2026-09-02T22:08:22Z</time>
  <course>0.0</course>
  <speed>0.0</speed>
  <fix>3d</fix>
</trkpt>
<trkpt lat="33.810313" lon="-118.393867">
  <ele>0.0</ele>
  <time>2026-09-02T22:08:22Z</time>
  <course>185.72</course>
  <speed>0.0</speed>
  <fix>3d</fix>
</trkpt>
<trkpt lat="33.810313" lon="-118.393867">
  <ele>-0.13</ele>
  <time>2026-09-02T22:08:22Z</time>
  <course>0.0</course>
  <speed>0.0</speed>
  <fix>3d</fix>
</trkpt>
<trkpt lat="33.810313" lon="-118.393867">
  <ele>0.0</ele>
  <time>2026-09-02T22:08:22Z</time>
  <course>185.86</course>
  <speed>0.0</speed>
  <fix>3d</fix>
</trkpt>
<trkpt lat="33.810313" lon="-118.393867">
  <ele>-0.13</ele>
  <time>2026-09-02T22:08:22Z</time>
  <course>0.0</course>
  <speed>0.0</speed>
  <fix>3d</fix>
</trkpt>
<trkpt lat="33.810313" lon="-118.393867">
  <ele>0.0</ele>
  <time>2026-09-02T22:08:22Z</time>
  <course>186.0</course>
  <speed>0.0</speed>
  <fix>3d</fix>
</trkpt>
<trkpt lat="33.810313" lon="-118.393867">
  <ele>-0.12</ele>
  <time>2026-09-02T22:08:22Z</time>
  <course>0.0</course>
  <speed>0.0</speed>
  <fix>3d</fix>
</trkpt>
<trkpt lat="33.810313" lon="-118.393867">
  <ele>0.0</ele>
  <time>2026-09-02T22:08:22Z</time>
  <course>186.13</course>
  <speed>0.0</speed>
  <fix>3d</fix>
</trkpt>
<trkpt lat="33.810313" lon="-118.393867">
  <ele>-0.12</ele>
  <time>2026-09-02T22:08:22Z</time>
  <course>0.0</course>
  <speed>0.0</speed>
  <fix>3d</fix>
</trkpt>
<trkpt lat="33.810313" lon="-118.393867">
  <ele>0.0</ele>
  <time>2026-09-02T22:08:22Z</time>
  <course>186.26</course>
  <speed>0.0</speed>
  <fix>3d</fix>
</trkpt>
<trkpt lat="33.810313" lon="-118.393867">
  <ele>-0.12</ele>
  <time>2026-09-02T22:08:22Z</time>
  <course>0.0</course>
  <speed>0.0</speed>
  <fix>3d</fix>
</trkpt>
<trkpt lat="33.810313" lon="-118.393867">
  <ele>0.0</ele>
  <time>2026-09-02T22:08:22Z</time>
  <course>186.38</course>
  <speed>0.0</speed>
  <fix>3d</fix>
</trkpt>
<trkpt lat="33.810313" lon="-118.393867">
  <ele>-0.12</ele>
  <time>2026-09-02T22:08:22Z</time>
  <course>0.0</course>
  <speed>0.0</speed>
  <fix>3d</fix>
</trkpt>
<trkpt lat="33.810313" lon="-118.393867">
  <ele>0.0</ele>
  <time>2026-09-02T22:08:22Z</time>
  <course>186.49</course>
  <speed>0.0</speed>
  <fix>3d</fix>
</trkpt>
<trkpt lat="33.810313" lon="-118.393867">
  <ele>-0.12</ele>
  <time>2026-09-02T22:08:22Z</time>
  <course>0.0</course>
  <speed>0.0</speed>
  <fix>3d</fix>
</trkpt>
<trkpt lat="33.810313" lon="-118.393867">
  <ele>0.0</ele>
  <time>2026-09-02T22:08:22Z</time>
  <course>186.6</course>
  <speed>0.0</speed>
  <fix>3d</fix>
</trkpt>
<trkpt lat="33.810313" lon="-118.393867">
  <ele>-0.12</ele>
  <time>2026-09-02T22:08:22Z</time>
  <course>0.0</course>
  <speed>0.0</speed>
  <fix>3d</fix>
</trkpt>
<trkpt lat="33.810313" lon="-118.393867">
  <ele>0.0</ele>
  <time>2026-09-02T22:08:22Z</time>
  <course>186.71</course>
  <speed>0.0</speed>
  <fix>3d</fix>
</trkpt>
<trkpt lat="33.810313" lon="-118.393867">
  <ele>-0.12</ele>
  <time>2026-09-02T22:08:22Z</time>
  <course>0.0</course>
  <speed>0.0</speed>
  <fix>3d</fix>
</trkpt>
<trkpt lat="33.810313" lon="-118.393867">
  <ele>0.0</ele>
  <time>2026-09-02T22:08:22Z</time>
  <course>186.81</course>
  <speed>0.0</speed>
  <fix>3d</fix>
</trkpt>
<trkpt lat="33.810313" lon="-118.393867">
  <ele>-0.12</ele>
  <time>2026-09-02T22:08:22Z</time>
  <course>0.0</course>
  <speed>0.0</speed>
  <fix>3d</fix>
</trkpt>
<trkpt lat="33.810313" lon="-118.393867">
  <ele>0.0</ele>
  <time>2026-09-02T22:08:22Z</time>
  <course>186.9</course>
  <speed>0.0</speed>
  <fix>3d</fix>
</trkpt>
<trkpt lat="33.810313" lon="-118.393867">
  <ele>-0.12</ele>
  <time>2026-09-02T22:08:22Z</time>
  <course>0.0</course>
  <speed>0.0</speed>
  <fix>3d</fix>
</trkpt>
<trkpt lat="33.810313" lon="-118.393867">
  <ele>0.0</ele>
  <time>2026-09-02T22:08:22Z</time>
  <course>187.0</course>
  <speed>0.0</speed>
  <fix>3d</fix>
</trkpt>
<trkpt lat="33.810313" lon="-118.393867">
  <ele>-0.12</ele>
  <time>2026-09-02T22:08:22Z</time>
  <course>0.0</course>
  <speed>0.0</speed>
  <fix>3d</fix>
</trkpt>
<trkpt lat="33.810313" lon="-118.393867">
  <ele>0.0</ele>
  <time>2026-09-02T22:08:22Z</time>
  <course>187.08</course>
  <speed>0.0</speed>
  <fix>3d</fix>
</trkpt>
<trkpt lat="33.810313" lon="-118.393867">
  <ele>-0.13</ele>
  <time>2026-09-02T22:08:22Z</time>
  <course>0.0</course>
  <speed>0.0</speed>
  <fix>3d</fix>
</trkpt>
<trkpt lat="33.810313" lon="-118.393867">
  <ele>0.0</ele>
  <time>2026-09-02T22:08:22Z</time>
  <course>187.17</course>
  <speed>0.0</speed>
  <fix>3d</fix>
</trkpt>
<trkpt lat="33.810313" lon="-118.393867">
  <ele>-0.13</ele>
  <time>2026-09-02T22:08:22Z</time>
  <course>0.0</course>
  <speed>0.0</speed>
  <fix>3d</fix>
</trkpt>
<trkpt lat="33.810313" lon="-118.393867">
  <ele>0.0</ele>
  <time>2026-09-02T22:08:22Z</time>
  <course>187.24</course>
  <speed>0.0</speed>
  <fix>3d</fix>
</trkpt>
<trkpt lat="33.810313" lon="-118.393867">
  <ele>-0.13</ele>
  <time>2026-09-02T22:08:22Z</time>
  <course>0.0</course>
  <speed>0.0</speed>
  <fix>3d</fix>
</trkpt>
<trkpt lat="33.810313" lon="-118.393867">
  <ele>0.0</ele>
  <time>2026-09-02T22:08:22Z</time>
  <course>187.32</course>
  <speed>0.0</speed>
  <fix>3d</fix>
</trkpt>
<trkpt lat="33.810313" lon="-118.393867">
  <ele>-0.13</ele>
  <time>2026-09-02T22:08:22Z</time>
  <course>0.0</course>
  <speed>0.0</speed>
  <fix>3d</fix>
</trkpt>
<trkpt lat="33.810313" lon="-118.393867">
  <ele>0.0</ele>
  <time>2026-09-02T22:08:22Z</time>
  <course>187.39</course>
  <speed>0.0</speed>
  <fix>3d</fix>
</trkpt>
<trkpt lat="33.810313" lon="-118.393867">
  <ele>-0.13</ele>
  <time>2026-09-02T22:08:22Z</time>
  <course>0.0</course>
  <speed>0.0</speed>
  <fix>3d</fix>
</trkpt>
<trkpt lat="33.810313" lon="-118.393867">
  <ele>0.0</ele>
  <time>2026-09-02T22:08:22Z</time>
  <course>187.46</course>
  <speed>0.0</speed>
  <fix>3d</fix>
</trkpt>
<trkpt lat="33.810313" lon="-118.393867">
  <ele>-0.13</ele>
  <time>2026-09-02T22:08:22Z</time>
  <course>0.0</course>
  <speed>0.0</speed>
  <fix>3d</fix>
</trkpt>
<trkpt lat="33.810313" lon="-118.393867">
  <ele>0.0</ele>
  <time>2026-09-02T22:08:22Z</time>
  <course>187.53</course>
  <speed>0.0</speed>
  <fix>3d</fix>
</trkpt>
<trkpt lat="33.810313" lon="-118.393867">
  <ele>-0.13</ele>
  <time>2026-09-02T22:08:22Z</time>
  <course>0.0</course>
  <speed>0.0</speed>
  <fix>3d</fix>
</trkpt>
<trkpt lat="33.810313" lon="-118.393867">
  <ele>0.0</ele>
  <time>2026-09-02T22:08:22Z</time>
  <course>187.59</course>
  <speed>0.0</speed>
  <fix>3d</fix>
</trkpt>
<trkpt lat="33.810313" lon="-118.393867">
  <ele>-0.13</ele>
  <time>2026-09-02T22:08:22Z</time>
  <course>0.0</course>
  <speed>0.0</speed>
  <fix>3d</fix>
</trkpt>
<trkpt lat="33.810313" lon="-118.393867">
  <ele>0.0</ele>
  <time>2026-09-02T22:08:22Z</time>
  <course>187.65</course>
  <speed>0.0</speed>
  <fix>3d</fix>
</trkpt>
<trkpt lat="33.810313" lon="-118.393867">
  <ele>-0.12</ele>
  <time>2026-09-02T22:08:22Z</time>
  <course>0.0</course>
  <speed>0.0</speed>
  <fix>3d</fix>
</trkpt>
<trkpt lat="33.810313" lon="-118.393867">
  <ele>0.0</ele>
  <time>2026-09-02T22:08:22Z</time>
  <course>187.7</course>
  <speed>0.0</speed>
  <fix>3d</fix>
</trkpt>
<trkpt lat="33.810313" lon="-118.393867">
  <ele>-0.12</ele>
  <time>2026-09-02T22:08:22Z</time>
  <course>0.0</course>
  <speed>0.0</speed>
  <fix>3d</fix>
</trkpt>
<trkpt lat="33.810313" lon="-118.393867">
  <ele>0.0</ele>
  <time>2026-09-02T22:08:22Z</time>
  <course>187.76</course>
  <speed>0.0</speed>
  <fix>3d</fix>
</trkpt>
<trkpt lat="33.810313" lon="-118.393867">
  <ele>-0.12</ele>
  <time>2026-09-02T22:08:22Z</time>
  <course>0.0</course>
  <speed>0.0</speed>
  <fix>3d</fix>
</trkpt>
<trkpt lat="33.810313" lon="-118.393867">
  <ele>0.0</ele>
  <time>2026-09-02T22:08:22Z</time>
  <course>187.81</course>
  <speed>0.0</speed>
  <fix>3d</fix>
</trkpt>
<trkpt lat="33.810313" lon="-118.393867">
  <ele>-0.12</ele>
  <time>2026-09-02T22:08:22Z</time>
  <course>0.0</course>
  <speed>0.0</speed>
  <fix>3d</fix>
</trkpt>
<trkpt lat="33.810313" lon="-118.393867">
  <ele>0.0</ele>
  <time>2026-09-02T22:08:22Z</time>
  <course>187.86</course>
  <speed>0.0</speed>
  <fix>3d</fix>
</trkpt>
<trkpt lat="33.810313" lon="-118.393867">
  <ele>-0.12</ele>
  <time>2026-09-02T22:08:22Z</time>
  <course>0.0</course>
  <speed>0.0</speed>
  <fix>3d</fix>
</trkpt>
<trkpt lat="33.810313" lon="-118.393867">
  <ele>0.0</ele>
  <time>2026-09-02T22:08:22Z</time>
  <course>187.9</course>
  <speed>0.0</speed>
  <fix>3d</fix>
</trkpt>
<trkpt lat="33.810313" lon="-118.393867">
  <ele>-0.12</ele>
  <time>2026-09-02T22:08:22Z</time>
  <course>0.0</course>
  <speed>0.0</speed>
  <fix>3d</fix>
</trkpt>
<trkpt lat="33.810313" lon="-118.393867">
  <ele>0.0</ele>
  <time>2026-09-02T22:08:22Z</time>
  <course>187.94</course>
  <speed>0.0</speed>
  <fix>3d</fix>
</trkpt>
<trkpt lat="33.810313" lon="-118.393867">
  <ele>-0.12</ele>
  <time>2026-09-02T22:08:22Z</time>
  <course>0.0</course>
  <speed>0.0</speed>
  <fix>3d</fix>
</trkpt>
<trkpt lat="33.810313" lon="-118.393867">
  <ele>0.0</ele>
  <time>2026-09-02T22:08:22Z</time>
  <course>187.99</course>
  <speed>0.0</speed>
  <fix>3d</fix>
</trkpt>
<trkpt lat="33.810313" lon="-118.393867">
  <ele>-0.12</ele>
  <time>2026-09-02T22:08:22Z</time>
  <course>0.0</course>
  <speed>0.0</speed>
  <fix>3d</fix>
</trkpt>
<trkpt lat="33.810313" lon="-118.393867">
  <ele>0.0</ele>
  <time>2026-09-02T22:08:22Z</time>
  <course>188.02</course>
  <speed>0.0</speed>
  <fix>3d</fix>
</trkpt>
<trkpt lat="33.810313" lon="-118.393867">
  <ele>-0.12</ele>
  <time>2026-09-02T22:08:22Z</time>
  <course>0.0</course>
  <speed>0.0</speed>
  <fix>3d</fix>
</trkpt>
<trkpt lat="33.810313" lon="-118.393867">
  <ele>0.0</ele>
  <time>2026-09-02T22:08:22Z</time>
  <course>188.06</course>
  <speed>0.0</speed>
  <fix>3d</fix>
</trkpt>
<trkpt lat="33.810313" lon="-118.393867">
  <ele>-0.12</ele>
  <time>2026-09-02T22:08:22Z</time>
  <course>0.0</course>
  <speed>0.0</speed>
  <fix>3d</fix>
</trkpt>
<trkpt lat="33.810313" lon="-118.393867">
  <ele>0.0</ele>
  <time>2026-09-02T22:08:22Z</time>
  <course>188.1</course>
  <speed>0.0</speed>
  <fix>3d</fix>
</trkpt>
<trkpt lat="33.810313" lon="-118.393867">
  <ele>-0.13</ele>
  <time>2026-09-02T22:08:22Z</time>
  <course>0.0</course>
  <speed>0.0</speed>
  <fix>3d</fix>
</trkpt>
<trkpt lat="33.810313" lon="-118.393867">
  <ele>0.0</ele>
  <time>2026-09-02T22:08:22Z</time>
  <course>188.13</course>
  <speed>0.0</speed>
  <fix>3d</fix>
</trkpt>
<trkpt lat="33.810313" lon="-118.393867">
  <ele>-0.13</ele>
  <time>2026-09-02T22:08:22Z</time>
  <course>0.0</course>
  <speed>0.0</speed>
  <fix>3d</fix>
</trkpt>
<trkpt lat="33.810313" lon="-118.393867">
  <ele>0.0</ele>
  <time>2026-09-02T22:08:22Z</time>
  <course>188.16</course>
  <speed>0.0</speed>
  <fix>3d</fix>
</trkpt>
<trkpt lat="33.810313" lon="-118.393867">
  <ele>-0.13</ele>
  <time>2026-09-02T22:08:22Z</time>
  <course>0.0</course>
  <speed>0.0</speed>
  <fix>3d</fix>
</trkpt>
<trkpt lat="33.810313" lon="-118.393867">
  <ele>0.0</ele>
  <time>2026-09-02T22:08:22Z</time>
  <course>188.19</course>
  <speed>0.0</speed>
  <fix>3d</fix>
</trkpt>
<trkpt lat="33.810313" lon="-118.393867">
  <ele>-0.13</ele>
  <time>2026-09-02T22:08:22Z</time>
  <course>0.0</course>
  <speed>0.0</speed>
  <fix>3d</fix>
</trkpt>
<trkpt lat="33.810313" lon="-118.393867">
  <ele>0.0</ele>
  <time>2026-09-02T22:08:22Z</time>
  <course>188.22</course>
  <speed>0.0</speed>
  <fix>3d</fix>
</trkpt>
<trkpt lat="33.810313" lon="-118.393867">
  <ele>-0.13</ele>
  <time>2026-09-02T22:08:22Z</time>
  <course>0.0</course>
  <speed>0.0</speed>
  <fix>3d</fix>
</trkpt>
<trkpt lat="33.810313" lon="-118.393867">
  <ele>0.0</ele>
  <time>2026-09-02T22:08:22Z</time>
  <course>188.24</course>
  <speed>0.0</speed>
  <fix>3d</fix>
</trkpt>
<trkpt lat="33.810313" lon="-118.393867">
  <ele>-0.13</ele>
  <time>2026-09-02T22:08:22Z</time>
  <course>0.0</course>
  <speed>0.0</speed>
  <fix>3d</fix>
</trkpt>
<trkpt lat="33.810313" lon="-118.393867">
  <ele>0.0</ele>
  <time>2026-09-02T22:08:22Z</time>
  <course>188.27</course>
  <speed>0.0</speed>
  <fix>3d</fix>
</trkpt>
<trkpt lat="33.810313" lon="-118.393867">
  <ele>-0.12</ele>
  <time>2026-09-02T22:08:22Z</time>
  <course>0.0</course>
  <speed>0.0</speed>
  <fix>3d</fix>
</trkpt>
<trkpt lat="33.810313" lon="-118.393867">
  <ele>0.0</ele>
  <time>2026-09-02T22:08:22Z</time>
  <course>188.29</course>
  <speed>0.0</speed>
  <fix>3d</fix>
</trkpt>
<trkpt lat="33.810313" lon="-118.393867">
  <ele>-0.12</ele>
  <time>2026-09-02T22:08:22Z</time>
  <course>0.0</course>
  <speed>0.0</speed>
  <fix>3d</fix>
</trkpt>
<trkpt lat="33.810313" lon="-118.393867">
  <ele>0.0</ele>
  <time>2026-09-02T22:08:22Z</time>
  <course>188.32</course>
  <speed>0.0</speed>
  <fix>3d</fix>
</trkpt>
<trkpt lat="33.810313" lon="-118.393867">
  <ele>-0.12</ele>
  <time>2026-09-02T22:08:22Z</time>
  <course>0.0</course>
  <speed>0.0</speed>
  <fix>3d</fix>
</trkpt>
<trkpt lat="33.810313" lon="-118.393867">
  <ele>0.0</ele>
  <time>2026-09-02T22:08:22Z</time>
  <course>188.34</course>
  <speed>0.0</speed>
  <fix>3d</fix>
</trkpt>
<trkpt lat="33.810313" lon="-118.393867">
  <ele>-0.12</ele>
  <time>2026-09-02T22:08:22Z</time>
  <course>0.0</course>
  <speed>0.0</speed>
  <fix>3d</fix>
</trkpt>
<trkpt lat="33.810313" lon="-118.393867">
  <ele>0.0</ele>
  <time>2026-09-02T22:08:22Z</time>
  <course>188.36</course>
  <speed>0.0</speed>
  <fix>3d</fix>
</trkpt>
<trkpt lat="33.810313" lon="-118.393867">
  <ele>-0.12</ele>
  <time>2026-09-02T22:08:22Z</time>
  <course>0.0</course>
  <speed>0.0</speed>
  <fix>3d</fix>
</trkpt>
<trkpt lat="33.810313" lon="-118.393867">
  <ele>0.0</ele>
  <time>2026-09-02T22:08:22Z</time>
  <course>188.38</course>
  <speed>0.0</speed>
  <fix>3d</fix>
</trkpt>
<trkpt lat="33.810313" lon="-118.393867">
  <ele>-0.12</ele>
  <time>2026-09-02T22:08:22Z</time>
  <course>0.0</course>
  <speed>0.0</speed>
  <fix>3d</fix>
</trkpt>
<trkpt lat="33.810313" lon="-118.393867">
  <ele>0.0</ele>
  <time>2026-09-02T22:08:22Z</time>
  <course>188.39</course>
  <speed>0.0</speed>
  <fix>3d</fix>
</trkpt>
<trkpt lat="33.810313" lon="-118.393867">
  <ele>-0.12</ele>
  <time>2026-09-02T22:08:22Z</time>
  <course>0.0</course>
  <speed>0.0</speed>
  <fix>3d</fix>
</trkpt>
<trkpt lat="33.810313" lon="-118.393867">
  <ele>0.0</ele>
  <time>2026-09-02T22:08:22Z</time>
  <course>188.41</course>
  <speed>0.0</speed>
  <fix>3d</fix>
</trkpt>
<trkpt lat="33.810313" lon="-118.393867">
  <ele>-0.12</ele>
  <time>2026-09-02T22:08:22Z</time>
  <course>0.0</course>
  <speed>0.0</speed>
  <fix>3d</fix>
</trkpt>
<trkpt lat="33.810313" lon="-118.393867">
  <ele>0.0</ele>
  <time>2026-09-02T22:08:22Z</time>
  <course>188.42</course>
  <speed>0.0</speed>
  <fix>3d</fix>
</trkpt>
<trkpt lat="33.810313" lon="-118.393867">
  <ele>-0.12</ele>
  <time>2026-09-02T22:08:22Z</time>
  <course>0.0</course>
  <speed>0.0</speed>
  <fix>3d</fix>
</trkpt>
<trkpt lat="33.810313" lon="-118.393867">
  <ele>0.0</ele>
  <time>2026-09-02T22:08:22Z</time>
  <course>188.44</course>
  <speed>0.0</speed>
  <fix>3d</fix>
</trkpt>
<trkpt lat="33.810313" lon="-118.393867">
  <ele>-0.12</ele>
  <time>2026-09-02T22:08:22Z</time>
  <course>0.0</course>
  <speed>0.0</speed>
  <fix>3d</fix>
</trkpt>
<trkpt lat="33.810313" lon="-118.393867">
  <ele>0.0</ele>
  <time>2026-09-02T22:08:22Z</time>
  <course>188.45</course>
  <speed>0.0</speed>
  <fix>3d</fix>
</trkpt>
<trkpt lat="33.810313" lon="-118.393867">
  <ele>-0.13</ele>
  <time>2026-09-02T22:08:22Z</time>
  <course>0.0</course>
  <speed>0.0</speed>
  <fix>3d</fix>
</trkpt>
<trkpt lat="33.810313" lon="-118.393867">
  <ele>0.0</ele>
  <time>2026-09-02T22:08:22Z</time>
  <course>188.46</course>
  <speed>0.0</speed>
  <fix>3d</fix>
</trkpt>
<trkpt lat="33.810313" lon="-118.393867">
  <ele>-0.13</ele>
  <time>2026-09-02T22:08:22Z</time>
  <course>0.0</course>
  <speed>0.0</speed>
  <fix>3d</fix>
</trkpt>
<trkpt lat="33.810313" lon="-118.393867">
  <ele>0.0</ele>
  <time>2026-09-02T22:08:22Z</time>
  <course>188.47</course>
  <speed>0.0</speed>
  <fix>3d</fix>
</trkpt>
<trkpt lat="33.810313" lon="-118.393867">
  <ele>-0.13</ele>
  <time>2026-09-02T22:08:22Z</time>
  <course>0.0</course>
  <speed>0.0</speed>
  <fix>3d</fix>
</trkpt>
<trkpt lat="33.810313" lon="-118.393867">
  <ele>0.0</ele>
  <time>2026-09-02T22:08:22Z</time>
  <course>188.48</course>
  <speed>0.0</speed>
  <fix>3d</fix>
</trkpt>
<trkpt lat="33.810313" lon="-118.393867">
  <ele>-0.13</ele>
  <time>2026-09-02T22:08:22Z</time>
  <course>0.0</course>
  <speed>0.0</speed>
  <fix>3d</fix>
</trkpt>
<trkpt lat="33.810313" lon="-118.393867">
  <ele>0.0</ele>
  <time>2026-09-02T22:08:22Z</time>
  <course>188.49</course>
  <speed>0.0</speed>
  <fix>3d</fix>
</trkpt>
<trkpt lat="33.810313" lon="-118.393867">
  <ele>-0.13</ele>
  <time>2026-09-02T22:08:22Z</time>
  <course>0.0</course>
  <speed>0.0</speed>
  <fix>3d</fix>
</trkpt>
<trkpt lat="33.810313" lon="-118.393867">
  <ele>0.0</ele>
  <time>2026-09-02T22:08:22Z</time>
  <course>188.5</course>
  <speed>0.0</speed>
  <fix>3d</fix>
</trkpt>
<trkpt lat="33.810313" lon="-118.393867">
  <ele>-0.13</ele>
  <time>2026-09-02T22:08:22Z</time>
  <course>0.0</course>
  <speed>0.0</speed>
  <fix>3d</fix>
</trkpt>
<trkpt lat="33.810313" lon="-118.393867">
  <ele>0.0</ele>
  <time>2026-09-02T22:08:22Z</time>
  <course>188.51</course>
  <speed>0.0</speed>
  <fix>3d</fix>
</trkpt>
<trkpt lat="33.810313" lon="-118.393867">
  <ele>-0.12</ele>
  <time>2026-09-02T22:08:22Z</time>
  <course>0.0</course>
  <speed>0.0</speed>
  <fix>3d</fix>
</trkpt>
<trkpt lat="33.810313" lon="-118.393867">
  <ele>0.0</ele>
  <time>2026-09-02T22:08:22Z</time>
  <course>188.52</course>
  <speed>0.0</speed>
  <fix>3d</fix>
</trkpt>
<trkpt lat="33.810313" lon="-118.393867">
  <ele>-0.12</ele>
  <time>2026-09-02T22:08:22Z</time>
  <course>0.0</course>
  <speed>0.0</speed>
  <fix>3d</fix>
</trkpt>
<trkpt lat="33.810313" lon="-118.393867">
  <ele>0.0</ele>
  <time>2026-09-02T22:08:22Z</time>
  <course>188.53</course>
  <speed>0.0</speed>
  <fix>3d</fix>
</trkpt>
<trkpt lat="33.810313" lon="-118.393867">
  <ele>-0.12</ele>
  <time>2026-09-02T22:08:22Z</time>
  <course>0.0</course>
  <speed>0.0</speed>
  <fix>3d</fix>
</trkpt>
<trkpt lat="33.810313" lon="-118.393867">
  <ele>0.0</ele>
  <time>2026-09-02T22:08:22Z</time>
  <course>188.53</course>
  <speed>0.0</speed>
  <fix>3d</fix>
</trkpt>
<trkpt lat="33.810313" lon="-118.393867">
  <ele>-0.12</ele>
  <time>2026-09-02T22:08:22Z</time>
  <course>0.0</course>
  <speed>0.0</speed>
  <fix>3d</fix>
</trkpt>
<trkpt lat="33.810313" lon="-118.393867">
  <ele>0.0</ele>
  <time>2026-09-02T22:08:22Z</time>
  <course>188.54</course>
  <speed>0.0</speed>
  <fix>3d</fix>
</trkpt>
<trkpt lat="33.810313" lon="-118.393867">
  <ele>-0.12</ele>
  <time>2026-09-02T22:08:22Z</time>
  <course>0.0</course>
  <speed>0.0</speed>
  <fix>3d</fix>
</trkpt>
<trkpt lat="33.810313" lon="-118.393867">
  <ele>0.0</ele>
  <time>2026-09-02T22:08:22Z</time>
  <course>188.54</course>
  <speed>0.0</speed>
  <fix>3d</fix>
</trkpt>
<trkpt lat="33.810313" lon="-118.393867">
  <ele>-0.12</ele>
  <time>2026-09-02T22:08:22Z</time>
  <course>0.0</course>
  <speed>0.0</speed>
  <fix>3d</fix>
</trkpt>
<trkpt lat="33.810313" lon="-118.393867">
  <ele>0.0</ele>
  <time>2026-09-02T22:08:22Z</time>
  <course>188.54</course>
  <speed>0.0</speed>
  <fix>3d</fix>
</trkpt>
<trkpt lat="33.810313" lon="-118.393867">
  <ele>-0.12</ele>
  <time>2026-09-02T22:08:22Z</time>
  <course>0.0</course>
  <speed>0.0</speed>
  <fix>3d</fix>
</trkpt>
<trkpt lat="33.810313" lon="-118.393867">
  <ele>0.0</ele>
  <time>2026-09-02T22:08:22Z</time>
  <course>188.55</course>
  <speed>0.0</speed>
  <fix>3d</fix>
</trkpt>
<trkpt lat="33.810313" lon="-118.393867">
  <ele>-0.12</ele>
  <time>2026-09-02T22:08:22Z</time>
  <course>0.0</course>
  <speed>0.0</speed>
  <fix>3d</fix>
</trkpt>
<trkpt lat="33.810313" lon="-118.393867">
  <ele>0.0</ele>
  <time>2026-09-02T22:08:22Z</time>
  <course>188.55</course>
  <speed>0.0</speed>
  <fix>3d</fix>
</trkpt>
<trkpt lat="33.810313" lon="-118.393867">
  <ele>-0.12</ele>
  <time>2026-09-02T22:08:22Z</time>
  <course>0.0</course>
  <speed>0.0</speed>
  <fix>3d</fix>
</trkpt>
<trkpt lat="33.810313" lon="-118.393867">
  <ele>0.0</ele>
  <time>2026-09-02T22:08:22Z</time>
  <course>188.55</course>
  <speed>0.0</speed>
  <fix>3d</fix>
</trkpt>
<trkpt lat="33.810313" lon="-118.393867">
  <ele>-0.12</ele>
  <time>2026-09-02T22:08:22Z</time>
  <course>0.0</course>
  <speed>0.0</speed>
  <fix>3d</fix>
</trkpt>
<trkpt lat="33.810313" lon="-118.393867">
  <ele>-0.126</ele>
  <time>2026-09-02T22:08:22Z</time>
  <course>188.55</course>
  <speed>0.0</speed>
  <fix>3d</fix>
</trkpt>
<trkpt lat="33.810313" lon="-118.393867">
  <ele>-0.13</ele>
  <time>2026-09-02T22:08:22Z</time>
  <course>0.0</course>
  <speed>0.0</speed>
  <fix>3d</fix>
</trkpt>
<trkpt lat="33.810313" lon="-118.393867">
  <ele>-0.126</ele>
  <time>2026-09-02T22:08:22Z</time>
  <course>188.56</course>
  <speed>0.0</speed>
  <fix>3d</fix>
</trkpt>
<trkpt lat="33.810313" lon="-118.393867">
  <ele>-0.13</ele>
  <time>2026-09-02T22:08:22Z</time>
  <course>0.0</course>
  <speed>0.0</speed>
  <fix>3d</fix>
</trkpt>
<trkpt lat="33.810313" lon="-118.393867">
  <ele>-0.125</ele>
  <time>2026-09-02T22:08:22Z</time>
  <course>188.56</course>
  <speed>0.0</speed>
  <fix>3d</fix>
</trkpt>
<trkpt lat="33.810313" lon="-118.393867">
  <ele>-0.13</ele>
  <time>2026-09-02T22:08:22Z</time>
  <course>0.0</course>
  <speed>0.0</speed>
  <fix>3d</fix>
</trkpt>
<trkpt lat="33.810313" lon="-118.393867">
  <ele>-0.123</ele>
  <time>2026-09-02T22:08:22Z</time>
  <course>188.56</course>
  <speed>0.0</speed>
  <fix>3d</fix>
</trkpt>
<trkpt lat="33.810313" lon="-118.393867">
  <ele>-0.13</ele>
  <time>2026-09-02T22:08:22Z</time>
  <course>0.0</course>
  <speed>0.0</speed>
  <fix>3d</fix>
</trkpt>
<trkpt lat="33.810313" lon="-118.393867">
  <ele>-0.121</ele>
  <time>2026-09-02T22:08:22Z</time>
  <course>188.56</course>
  <speed>0.0</speed>
  <fix>3d</fix>
</trkpt>
<trkpt lat="33.810313" lon="-118.393867">
  <ele>-0.12</ele>
  <time>2026-09-02T22:08:22Z</time>
  <course>0.0</course>
  <speed>0.0</speed>
  <fix>3d</fix>
</trkpt>
<trkpt lat="33.810313" lon="-118.393867">
  <ele>-0.12</ele>
  <time>2026-09-02T22:08:22Z</time>
  <course>188.56</course>
  <speed>0.0</speed>
  <fix>3d</fix>
</trkpt>
<trkpt lat="33.810313" lon="-118.393867">
  <ele>-0.12</ele>
  <time>2026-09-02T22:08:22Z</time>
  <course>0.0</course>
  <speed>0.0</speed>
  <fix>3d</fix>
</trkpt>
<trkpt lat="33.810313" lon="-118.393867">
  <ele>-0.119</ele>
  <time>2026-09-02T22:08:22Z</time>
  <course>188.56</course>
  <speed>0.0</speed>
  <fix>3d</fix>
</trkpt>
<trkpt lat="33.810313" lon="-118.393867">
  <ele>-0.12</ele>
  <time>2026-09-02T22:08:22Z</time>
  <course>0.0</course>
  <speed>0.0</speed>
  <fix>3d</fix>
</trkpt>
<trkpt lat="33.810313" lon="-118.393867">
  <ele>-0.12</ele>
  <time>2026-09-02T22:08:22Z</time>
  <course>188.56</course>
  <speed>0.0</speed>
  <fix>3d</fix>
</trkpt>
<trkpt lat="33.810313" lon="-118.393867">
  <ele>-0.12</ele>
  <time>2026-09-02T22:08:22Z</time>
  <course>0.0</course>
  <speed>0.0</speed>
  <fix>3d</fix>
</trkpt>
<trkpt lat="33.810313" lon="-118.393867">
  <ele>-0.123</ele>
  <time>2026-09-02T22:08:22Z</time>
  <course>188.55</course>
  <speed>0.0</speed>
  <fix>3d</fix>
</trkpt>
<trkpt lat="33.810313" lon="-118.393867">
  <ele>-0.12</ele>
  <time>2026-09-02T22:08:22Z</time>
  <course>0.0</course>
  <speed>0.0</speed>
  <fix>3d</fix>
</trkpt>
<trkpt lat="33.810313" lon="-118.393867">
  <ele>-0.127</ele>
  <time>2026-09-02T22:08:22Z</time>
  <course>188.55</course>
  <speed>0.0</speed>
  <fix>3d</fix>
</trkpt>
<trkpt lat="33.810313" lon="-118.393867">
  <ele>-0.12</ele>
  <time>2026-09-02T22:08:22Z</time>
  <course>0.0</course>
  <speed>0.0</speed>
  <fix>3d</fix>
</trkpt>
<trkpt lat="33.810313" lon="-118.393867">
  <ele>-0.13</ele>
  <time>2026-09-02T22:08:22Z</time>
  <course>188.55</course>
  <speed>0.0</speed>
  <fix>3d</fix>
</trkpt>
<trkpt lat="33.810313" lon="-118.393867">
  <ele>-0.12</ele>
  <time>2026-09-02T22:08:22Z</time>
  <course>0.0</course>
  <speed>0.0</speed>
  <fix>3d</fix>
</trkpt>
<trkpt lat="33.810313" lon="-118.393867">
  <ele>-0.132</ele>
  <time>2026-09-02T22:08:22Z</time>
  <course>188.55</course>
  <speed>0.0</speed>
  <fix>3d</fix>
</trkpt>
<trkpt lat="33.810313" lon="-118.393867">
  <ele>-0.12</ele>
  <time>2026-09-02T22:08:22Z</time>
  <course>0.0</course>
  <speed>0.0</speed>
  <fix>3d</fix>
</trkpt>
<trkpt lat="33.810313" lon="-118.393867">
  <ele>-0.132</ele>
  <time>2026-09-02T22:08:22Z</time>
  <course>188.55</course>
  <speed>0.0</speed>
  <fix>3d</fix>
</trkpt>
<trkpt lat="33.810313" lon="-118.393867">
  <ele>-0.12</ele>
  <time>2026-09-02T22:08:22Z</time>
  <course>0.0</course>
  <speed>0.0</speed>
  <fix>3d</fix>
</trkpt>
<trkpt lat="33.810313" lon="-118.393867">
  <ele>-0.132</ele>
  <time>2026-09-02T22:08:22Z</time>
  <course>188.55</course>
  <speed>0.0</speed>
  <fix>3d</fix>
</trkpt>
<trkpt lat="33.810313" lon="-118.393867">
  <ele>-0.12</ele>
  <time>2026-09-02T22:08:22Z</time>
  <course>0.0</course>
  <speed>0.0</speed>
  <fix>3d</fix>
</trkpt>
<trkpt lat="33.810313" lon="-118.393867">
  <ele>-0.132</ele>
  <time>2026-09-02T22:08:22Z</time>
  <course>188.55</course>
  <speed>0.0</speed>
  <fix>3d</fix>
</trkpt>
<trkpt lat="33.810313" lon="-118.393867">
  <ele>-0.12</ele>
  <time>2026-09-02T22:08:22Z</time>
  <course>0.0</course>
  <speed>0.0</speed>
  <fix>3d</fix>
</trkpt>
<trkpt lat="33.810313" lon="-118.393867">
  <ele>-0.131</ele>
  <time>2026-09-02T22:08:22Z</time>
  <course>188.55</course>
  <speed>0.0</speed>
  <fix>3d</fix>
</trkpt>
<trkpt lat="33.810313" lon="-118.393867">
  <ele>-0.12</ele>
  <time>2026-09-02T22:08:22Z</time>
  <course>0.0</course>
  <speed>0.0</speed>
  <fix>3d</fix>
</trkpt>
<trkpt lat="33.810313" lon="-118.393867">
  <ele>-0.129</ele>
  <time>2026-09-02T22:08:22Z</time>
  <course>188.54</course>
  <speed>0.0</speed>
  <fix>3d</fix>
</trkpt>
<trkpt lat="33.810313" lon="-118.393867">
  <ele>-0.13</ele>
  <time>2026-09-02T22:08:22Z</time>
  <course>0.0</course>
  <speed>0.0</speed>
  <fix>3d</fix>
</trkpt>
<trkpt lat="33.810313" lon="-118.393867">
  <ele>-0.128</ele>
  <time>2026-09-02T22:08:22Z</time>
  <course>188.54</course>
  <speed>0.0</speed>
  <fix>3d</fix>
</trkpt>
<trkpt lat="33.810313" lon="-118.393867">
  <ele>-0.13</ele>
  <time>2026-09-02T22:08:22Z</time>
  <course>0.0</course>
  <speed>0.0</speed>
  <fix>3d</fix>
</trkpt>
<trkpt lat="33.810313" lon="-118.393867">
  <ele>-0.125</ele>
  <time>2026-09-02T22:08:22Z</time>
  <course>188.53</course>
  <speed>0.0</speed>
  <fix>3d</fix>
</trkpt>
<trkpt lat="33.810313" lon="-118.393867">
  <ele>-0.12</ele>
  <time>2026-09-02T22:08:22Z</time>
  <course>0.0</course>
  <speed>0.0</speed>
  <fix>3d</fix>
</trkpt>
<trkpt lat="33.810313" lon="-118.393867">
  <ele>-0.123</ele>
  <time>2026-09-02T22:08:22Z</time>
  <course>188.53</course>
  <speed>0.0</speed>
  <fix>3d</fix>
</trkpt>
<trkpt lat="33.810313" lon="-118.393867">
  <ele>-0.12</ele>
  <time>2026-09-02T22:08:22Z</time>
  <course>0.0</course>
  <speed>0.0</speed>
  <fix>3d</fix>
</trkpt>
<trkpt lat="33.810313" lon="-118.393867">
  <ele>-0.121</ele>
  <time>2026-09-02T22:08:22Z</time>
  <course>188.52</course>
  <speed>0.0</speed>
  <fix>3d</fix>
</trkpt>
<trkpt lat="33.810313" lon="-118.393867">
  <ele>-0.12</ele>
  <time>2026-09-02T22:08:22Z</time>
  <course>0.0</course>
  <speed>0.0</speed>
  <fix>3d</fix>
</trkpt>
<trkpt lat="33.810313" lon="-118.393867">
  <ele>-0.121</ele>
  <time>2026-09-02T22:08:22Z</time>
  <course>188.52</course>
  <speed>0.0</speed>
  <fix>3d</fix>
</trkpt>
<trkpt lat="33.810313" lon="-118.393867">
  <ele>-0.12</ele>
  <time>2026-09-02T22:08:22Z</time>
  <course>0.0</course>
  <speed>0.0</speed>
  <fix>3d</fix>
</trkpt>
<trkpt lat="33.810313" lon="-118.393867">
  <ele>-0.121</ele>
  <time>2026-09-02T22:08:22Z</time>
  <course>188.51</course>
  <speed>0.0</speed>
  <fix>3d</fix>
</trkpt>
<trkpt lat="33.810313" lon="-118.393867">
  <ele>-0.12</ele>
  <time>2026-09-02T22:08:22Z</time>
  <course>0.0</course>
  <speed>0.0</speed>
  <fix>3d</fix>
</trkpt>
<trkpt lat="33.810313" lon="-118.393867">
  <ele>-0.123</ele>
  <time>2026-09-02T22:08:22Z</time>
  <course>188.51</course>
  <speed>0.0</speed>
  <fix>3d</fix>
</trkpt>
<trkpt lat="33.810313" lon="-118.393867">
  <ele>-0.12</ele>
  <time>2026-09-02T22:08:22Z</time>
  <course>0.0</course>
  <speed>0.0</speed>
  <fix>3d</fix>
</trkpt>
<trkpt lat="33.810313" lon="-118.393867">
  <ele>-0.126</ele>
  <time>2026-09-02T22:08:22Z</time>
  <course>188.5</course>
  <speed>0.0</speed>
  <fix>3d</fix>
</trkpt>
<trkpt lat="33.810313" lon="-118.393867">
  <ele>-0.12</ele>
  <time>2026-09-02T22:08:22Z</time>
  <course>0.0</course>
  <speed>0.0</speed>
  <fix>3d</fix>
</trkpt>
<trkpt lat="33.810313" lon="-118.393867">
  <ele>-0.127</ele>
  <time>2026-09-02T22:08:22Z</time>
  <course>188.5</course>
  <speed>0.0</speed>
  <fix>3d</fix>
</trkpt>
<trkpt lat="33.810313" lon="-118.393867">
  <ele>-0.12</ele>
  <time>2026-09-02T22:08:22Z</time>
  <course>0.0</course>
  <speed>0.0</speed>
  <fix>3d</fix>
</trkpt>
<trkpt lat="33.810313" lon="-118.393867">
  <ele>-0.128</ele>
  <time>2026-09-02T22:08:22Z</time>
  <course>188.49</course>
  <speed>0.0</speed>
  <fix>3d</fix>
</trkpt>
<trkpt lat="33.810313" lon="-118.393867">
  <ele>-0.12</ele>
  <time>2026-09-02T22:08:22Z</time>
  <course>0.0</course>
  <speed>0.0</speed>
  <fix>3d</fix>
</trkpt>
<trkpt lat="33.810313" lon="-118.393867">
  <ele>-0.127</ele>
  <time>2026-09-02T22:08:22Z</time>
  <course>188.49</course>
  <speed>0.0</speed>
  <fix>3d</fix>
</trkpt>
<trkpt lat="33.810313" lon="-118.393867">
  <ele>-0.12</ele>
  <time>2026-09-02T22:08:22Z</time>
  <course>0.0</course>
  <speed>0.0</speed>
  <fix>3d</fix>
</trkpt>
<trkpt lat="33.810313" lon="-118.393867">
  <ele>-0.127</ele>
  <time>2026-09-02T22:08:22Z</time>
  <course>188.48</course>
  <speed>0.0</speed>
  <fix>3d</fix>
</trkpt>
<trkpt lat="33.810313" lon="-118.393867">
  <ele>-0.12</ele>
  <time>2026-09-02T22:08:22Z</time>
  <course>0.0</course>
  <speed>0.0</speed>
  <fix>3d</fix>
</trkpt>
<trkpt lat="33.810313" lon="-118.393867">
  <ele>-0.127</ele>
  <time>2026-09-02T22:08:22Z</time>
  <course>188.47</course>
  <speed>0.01</speed>
  <fix>3d</fix>
</trkpt>
<trkpt lat="33.810313" lon="-118.393867">
  <ele>-0.12</ele>
  <time>2026-09-02T22:08:22Z</time>
  <course>0.0</course>
  <speed>0.0</speed>
  <fix>3d</fix>
</trkpt>
<trkpt lat="33.810313" lon="-118.393867">
  <ele>-0.127</ele>
  <time>2026-09-02T22:08:22Z</time>
  <course>188.47</course>
  <speed>0.01</speed>
  <fix>3d</fix>
</trkpt>
<trkpt lat="33.810313" lon="-118.393867">
  <ele>-0.12</ele>
  <time>2026-09-02T22:08:22Z</time>
  <course>0.0</course>
  <speed>0.0</speed>
  <fix>3d</fix>
</trkpt>
<trkpt lat="33.810313" lon="-118.393867">
  <ele>-0.127</ele>
  <time>2026-09-02T22:08:22Z</time>
  <course>188.46</course>
  <speed>0.01</speed>
  <fix>3d</fix>
</trkpt>
<trkpt lat="33.810313" lon="-118.393867">
  <ele>-0.12</ele>
  <time>2026-09-02T22:08:22Z</time>
  <course>0.0</course>
  <speed>0.0</speed>
  <fix>3d</fix>
</trkpt>
<trkpt lat="33.810313" lon="-118.393867">
  <ele>-0.126</ele>
  <time>2026-09-02T22:08:22Z</time>
  <course>188.45</course>
  <speed>0.01</speed>
  <fix>3d</fix>
</trkpt>
<trkpt lat="33.810313" lon="-118.393867">
  <ele>-0.12</ele>
  <time>2026-09-02T22:08:22Z</time>
  <course>0.0</course>
  <speed>0.0</speed>
  <fix>3d</fix>
</trkpt>
<trkpt lat="33.810313" lon="-118.393867">
  <ele>-0.126</ele>
  <time>2026-09-02T22:08:22Z</time>
  <course>188.45</course>
  <speed>0.01</speed>
  <fix>3d</fix>
</trkpt>
<trkpt lat="33.810313" lon="-118.393867">
  <ele>-0.12</ele>
  <time>2026-09-02T22:08:22Z</time>
  <course>0.0</course>
  <speed>0.0</speed>
  <fix>3d</fix>
</trkpt>
<trkpt lat="33.810313" lon="-118.393867">
  <ele>-0.125</ele>
  <time>2026-09-02T22:08:22Z</time>
  <course>188.44</course>
  <speed>0.01</speed>
  <fix>3d</fix>
</trkpt>
<trkpt lat="33.810313" lon="-118.393867">
  <ele>-0.12</ele>
  <time>2026-09-02T22:08:22Z</time>
  <course>0.0</course>
  <speed>0.0</speed>
  <fix>3d</fix>
</trkpt>
<trkpt lat="33.810313" lon="-118.393867">
  <ele>-0.126</ele>
  <time>2026-09-02T22:08:22Z</time>
  <course>188.43</course>
  <speed>0.01</speed>
  <fix>3d</fix>
</trkpt>
<trkpt lat="33.810313" lon="-118.393867">
  <ele>-0.12</ele>
  <time>2026-09-02T22:08:22Z</time>
  <course>0.0</course>
  <speed>0.0</speed>
  <fix>3d</fix>
</trkpt>
<trkpt lat="33.810313" lon="-118.393867">
  <ele>-0.127</ele>
  <time>2026-09-02T22:08:22Z</time>
  <course>188.42</course>
  <speed>0.01</speed>
  <fix>3d</fix>
</trkpt>
<trkpt lat="33.810313" lon="-118.393867">
  <ele>-0.12</ele>
  <time>2026-09-02T22:08:22Z</time>
  <course>0.0</course>
  <speed>0.0</speed>
  <fix>3d</fix>
</trkpt>
<trkpt lat="33.810313" lon="-118.393867">
  <ele>-0.128</ele>
  <time>2026-09-02T22:08:22Z</time>
  <course>188.42</course>
  <speed>0.01</speed>
  <fix>3d</fix>
</trkpt>
<trkpt lat="33.810313" lon="-118.393867">
  <ele>-0.12</ele>
  <time>2026-09-02T22:08:22Z</time>
  <course>0.0</course>
  <speed>0.0</speed>
  <fix>3d</fix>
</trkpt>
<trkpt lat="33.810313" lon="-118.393867">
  <ele>-0.129</ele>
  <time>2026-09-02T22:08:22Z</time>
  <course>188.41</course>
  <speed>0.01</speed>
  <fix>3d</fix>
</trkpt>
<trkpt lat="33.810313" lon="-118.393867">
  <ele>-0.12</ele>
  <time>2026-09-02T22:08:22Z</time>
  <course>0.0</course>
  <speed>0.0</speed>
  <fix>3d</fix>
</trkpt>
<trkpt lat="33.810313" lon="-118.393867">
  <ele>-0.129</ele>
  <time>2026-09-02T22:08:22Z</time>
  <course>188.4</course>
  <speed>0.01</speed>
  <fix>3d</fix>
</trkpt>
<trkpt lat="33.810313" lon="-118.393867">
  <ele>-0.12</ele>
  <time>2026-09-02T22:08:22Z</time>
  <course>0.0</course>
  <speed>0.0</speed>
  <fix>3d</fix>
</trkpt>
<trkpt lat="33.810313" lon="-118.393867">
  <ele>-0.13</ele>
  <time>2026-09-02T22:08:22Z</time>
  <course>188.4</course>
  <speed>0.01414213562373095</speed>
  <fix>3d</fix>
</trkpt>
<trkpt lat="33.810313" lon="-118.393867">
  <ele>-0.12</ele>
  <time>2026-09-02T22:08:22Z</time>
  <course>0.0</course>
  <speed>0.0</speed>
  <fix>3d</fix>
</trkpt>
<trkpt lat="33.810313" lon="-118.393867">
  <ele>-0.13</ele>
  <time>2026-09-02T22:08:22Z</time>
  <course>188.39</course>
  <speed>0.01414213562373095</speed>
  <fix>3d</fix>
</trkpt>
<trkpt lat="33.810313" lon="-118.393867">
  <ele>-0.12</ele>
  <time>2026-09-02T22:08:22Z</time>
  <course>0.0</course>
  <speed>0.0</speed>
  <fix>3d</fix>
</trkpt>
<trkpt lat="33.810313" lon="-118.393867">
  <ele>-0.13</ele>
  <time>2026-09-02T22:08:22Z</time>
  <course>188.38</course>
  <speed>0.01414213562373095</speed>
  <fix>3d</fix>
</trkpt>
<trkpt lat="33.810313" lon="-118.393867">
  <ele>-0.12</ele>
  <time>2026-09-02T22:08:22Z</time>
  <course>0.0</course>
  <speed>0.0</speed>
  <fix>3d</fix>
</trkpt>
<trkpt lat="33.810313" lon="-118.393867">
  <ele>-0.129</ele>
  <time>2026-09-02T22:08:22Z</time>
  <course>188.37</course>
  <speed>0.01414213562373095</speed>
  <fix>3d</fix>
</trkpt>
<trkpt lat="33.810313" lon="-118.393867">
  <ele>-0.12</ele>
  <time>2026-09-02T22:08:22Z</time>
  <course>0.0</course>
  <speed>0.0</speed>
  <fix>3d</fix>
</trkpt>
<trkpt lat="33.810313" lon="-118.393867">
  <ele>-0.128</ele>
  <time>2026-09-02T22:08:22Z</time>
  <course>188.37</course>
  <speed>0.01414213562373095</speed>
  <fix>3d</fix>
</trkpt>
<trkpt lat="33.810313" lon="-118.393867">
  <ele>-0.12</ele>
  <time>2026-09-02T22:08:22Z</time>
  <course>0.0</course>
  <speed>0.0</speed>
  <fix>3d</fix>
</trkpt>
<trkpt lat="33.810313" lon="-118.393867">
  <ele>-0.126</ele>
  <time>2026-09-02T22:08:22Z</time>
  <course>188.36</course>
  <speed>0.01414213562373095</speed>
  <fix>3d</fix>
</trkpt>
<trkpt lat="33.810313" lon="-118.393867">
  <ele>-0.12</ele>
  <time>2026-09-02T22:08:22Z</time>
  <course>0.0</course>
  <speed>0.0</speed>
  <fix>3d</fix>
</trkpt>
<trkpt lat="33.810313" lon="-118.393867">
  <ele>-0.124</ele>
  <time>2026-09-02T22:08:22Z</time>
  <course>188.35</course>
  <speed>0.01414213562373095</speed>
  <fix>3d</fix>
</trkpt>
<trkpt lat="33.810313" lon="-118.393867">
  <ele>-0.12</ele>
  <time>2026-09-02T22:08:22Z</time>
  <course>0.0</course>
  <speed>0.0</speed>
  <fix>3d</fix>
</trkpt>
<trkpt lat="33.810313" lon="-118.393867">
  <ele>-0.122</ele>
  <time>2026-09-02T22:08:22Z</time>
  <course>188.34</course>
  <speed>0.01414213562373095</speed>
  <fix>3d</fix>
</trkpt>
<trkpt lat="33.810313" lon="-118.393867">
  <ele>-0.12</ele>
  <time>2026-09-02T22:08:22Z</time>
  <course>0.0</course>
  <speed>0.0</speed>
  <fix>3d</fix>
</trkpt>
<trkpt lat="33.810313" lon="-118.393867">
  <ele>-0.123</ele>
  <time>2026-09-02T22:08:22Z</time>
  <course>188.34</course>
  <speed>0.01414213562373095</speed>
  <fix>3d</fix>
</trkpt>
<trkpt lat="33.810313" lon="-118.393867">
  <ele>-0.12</ele>
  <time>2026-09-02T22:08:22Z</time>
  <course>0.0</course>
  <speed>0.0</speed>
  <fix>3d</fix>
</trkpt>
<trkpt lat="33.810313" lon="-118.393867">
  <ele>-0.125</ele>
  <time>2026-09-02T22:08:22Z</time>
  <course>188.33</course>
  <speed>0.01414213562373095</speed>
  <fix>3d</fix>
</trkpt>
<trkpt lat="33.810313" lon="-118.393867">
  <ele>-0.12</ele>
  <time>2026-09-02T22:08:22Z</time>
  <course>0.0</course>
  <speed>0.0</speed>
  <fix>3d</fix>
</trkpt>
<trkpt lat="33.810313" lon="-118.393867">
  <ele>-0.128</ele>
  <time>2026-09-02T22:08:22Z</time>
  <course>188.32</course>
  <speed>0.01414213562373095</speed>
  <fix>3d</fix>
</trkpt>
<trkpt lat="33.810313" lon="-118.393867">
  <ele>-0.12</ele>
  <time>2026-09-02T22:08:22Z</time>
  <course>0.0</course>
  <speed>0.0</speed>
  <fix>3d</fix>
</trkpt>
<trkpt lat="33.810313" lon="-118.393867">
  <ele>-0.131</ele>
  <time>2026-09-02T22:08:22Z</time>
  <course>188.31</course>
  <speed>0.01414213562373095</speed>
  <fix>3d</fix>
</trkpt>
<trkpt lat="33.810313" lon="-118.393867">
  <ele>-0.12</ele>
  <time>2026-09-02T22:08:22Z</time>
  <course>0.0</course>
  <speed>0.0</speed>
  <fix>3d</fix>
</trkpt>
<trkpt lat="33.810313" lon="-118.393867">
  <ele>-0.134</ele>
  <time>2026-09-02T22:08:22Z</time>
  <course>188.3</course>
  <speed>0.01414213562373095</speed>
  <fix>3d</fix>
</trkpt>
<trkpt lat="33.810313" lon="-118.393867">
  <ele>-0.12</ele>
  <time>2026-09-02T22:08:22Z</time>
  <course>0.0</course>
  <speed>0.0</speed>
  <fix>3d</fix>
</trkpt>
<trkpt lat="33.810313" lon="-118.393867">
  <ele>-0.135</ele>
  <time>2026-09-02T22:08:22Z</time>
  <course>188.3</course>
  <speed>0.01414213562373095</speed>
  <fix>3d</fix>
</trkpt>
<trkpt lat="33.810313" lon="-118.393867">
  <ele>-0.12</ele>
  <time>2026-09-02T22:08:22Z</time>
  <course>0.0</course>
  <speed>0.0</speed>
  <fix>3d</fix>
</trkpt>
<trkpt lat="33.810313" lon="-118.393867">
  <ele>-0.134</ele>
  <time>2026-09-02T22:08:22Z</time>
  <course>188.29</course>
  <speed>0.01414213562373095</speed>
  <fix>3d</fix>
</trkpt>
<trkpt lat="33.810313" lon="-118.393867">
  <ele>-0.12</ele>
  <time>2026-09-02T22:08:22Z</time>
  <course>0.0</course>
  <speed>0.0</speed>
  <fix>3d</fix>
</trkpt>
<trkpt lat="33.810313" lon="-118.393867">
  <ele>-0.132</ele>
  <time>2026-09-02T22:08:22Z</time>
  <course>188.28</course>
  <speed>0.01414213562373095</speed>
  <fix>3d</fix>
</trkpt>
<trkpt lat="33.810313" lon="-118.393867">
  <ele>-0.12</ele>
  <time>2026-09-02T22:08:22Z</time>
  <course>0.0</course>
  <speed>0.0</speed>
  <fix>3d</fix>
</trkpt>
<trkpt lat="33.810313" lon="-118.393867">
  <ele>-0.13</ele>
  <time>2026-09-02T22:08:22Z</time>
  <course>188.27</course>
  <speed>0.01414213562373095</speed>
  <fix>3d</fix>
</trkpt>
<trkpt lat="33.810313" lon="-118.393867">
  <ele>-0.12</ele>
  <time>2026-09-02T22:08:22Z</time>
  <course>0.0</course>
  <speed>0.0</speed>
  <fix>3d</fix>
</trkpt>
<trkpt lat="33.810313" lon="-118.393867">
  <ele>-0.127</ele>
  <time>2026-09-02T22:08:22Z</time>
  <course>188.26</course>
  <speed>0.01414213562373095</speed>
  <fix>3d</fix>
</trkpt>
<trkpt lat="33.810313" lon="-118.393867">
  <ele>-0.12</ele>
  <time>2026-09-02T22:08:22Z</time>
  <course>0.0</course>
  <speed>0.0</speed>
  <fix>3d</fix>
</trkpt>
<trkpt lat="33.810313" lon="-118.393867">
  <ele>-0.125</ele>
  <time>2026-09-02T22:08:22Z</time>
  <course>188.25</course>
  <speed>0.01414213562373095</speed>
  <fix>3d</fix>
</trkpt>
<trkpt lat="33.810313" lon="-118.393867">
  <ele>-0.12</ele>
  <time>2026-09-02T22:08:22Z</time>
  <course>0.0</course>
  <speed>0.0</speed>
  <fix>3d</fix>
</trkpt>
<trkpt lat="33.810313" lon="-118.393867">
  <ele>-0.123</ele>
  <time>2026-09-02T22:08:22Z</time>
  <course>188.25</course>
  <speed>0.01414213562373095</speed>
  <fix>3d</fix>
</trkpt>
<trkpt lat="33.810313" lon="-118.393867">
  <ele>-0.12</ele>
  <time>2026-09-02T22:08:22Z</time>
  <course>0.0</course>
  <speed>0.0</speed>
  <fix>3d</fix>
</trkpt>
<trkpt lat="33.810313" lon="-118.393867">
  <ele>-0.124</ele>
  <time>2026-09-02T22:08:22Z</time>
  <course>188.24</course>
  <speed>0.01414213562373095</speed>
  <fix>3d</fix>
</trkpt>
<trkpt lat="33.810313" lon="-118.393867">
  <ele>-0.12</ele>
  <time>2026-09-02T22:08:22Z</time>
  <course>0.0</course>
  <speed>0.0</speed>
  <fix>3d</fix>
</trkpt>
<trkpt lat="33.810313" lon="-118.393867">
  <ele>-0.125</ele>
  <time>2026-09-02T22:08:22Z</time>
  <course>188.23</course>
  <speed>0.01414213562373095</speed>
  <fix>3d</fix>
</trkpt>
<trkpt lat="33.810313" lon="-118.393867">
  <ele>-0.12</ele>
  <time>2026-09-02T22:08:22Z</time>
  <course>0.0</course>
  <speed>0.0</speed>
  <fix>3d</fix>
</trkpt>
<trkpt lat="33.810313" lon="-118.393867">
  <ele>-0.127</ele>
  <time>2026-09-02T22:08:22Z</time>
  <course>188.22</course>
  <speed>0.01414213562373095</speed>
  <fix>3d</fix>
</trkpt>
<trkpt lat="33.810313" lon="-118.393867">
  <ele>-0.12</ele>
  <time>2026-09-02T22:08:22Z</time>
  <course>0.0</course>
  <speed>0.0</speed>
  <fix>3d</fix>
</trkpt>
<trkpt lat="33.810313" lon="-118.393867">
  <ele>-0.128</ele>
  <time>2026-09-02T22:08:22Z</time>
  <course>188.21</course>
  <speed>0.01414213562373095</speed>
  <fix>3d</fix>
</trkpt>
<trkpt lat="33.810313" lon="-118.393867">
  <ele>-0.12</ele>
  <time>2026-09-02T22:08:22Z</time>
  <course>0.0</course>
  <speed>0.0</speed>
  <fix>3d</fix>
</trkpt>
<trkpt lat="33.810313" lon="-118.393867">
  <ele>-0.129</ele>
  <time>2026-09-02T22:08:22Z</time>
  <course>188.21</course>
  <speed>0.01414213562373095</speed>
  <fix>3d</fix>
</trkpt>
<trkpt lat="33.810313" lon="-118.393867">
  <ele>-0.12</ele>
  <time>2026-09-02T22:08:22Z</time>
  <course>0.0</course>
  <speed>0.0</speed>
  <fix>3d</fix>
</trkpt>
<trkpt lat="33.810313" lon="-118.393867">
  <ele>-0.129</ele>
  <time>2026-09-02T22:08:22Z</time>
  <course>188.2</course>
  <speed>0.01414213562373095</speed>
  <fix>3d</fix>
</trkpt>
<trkpt lat="33.810313" lon="-118.393867">
  <ele>-0.12</ele>
  <time>2026-09-02T22:08:22Z</time>
  <course>0.0</course>
  <speed>0.0</speed>
  <fix>3d</fix>
</trkpt>
<trkpt lat="33.810313" lon="-118.393867">
  <ele>-0.128</ele>
  <time>2026-09-02T22:08:22Z</time>
  <course>188.19</course>
  <speed>0.01414213562373095</speed>
  <fix>3d</fix>
</trkpt>
<trkpt lat="33.810313" lon="-118.393867">
  <ele>-0.12</ele>
  <time>2026-09-02T22:08:22Z</time>
  <course>0.0</course>
  <speed>0.0</speed>
  <fix>3d</fix>
</trkpt>
<trkpt lat="33.810313" lon="-118.393867">
  <ele>-0.128</ele>
  <time>2026-09-02T22:08:22Z</time>
  <course>188.18</course>
  <speed>0.01414213562373095</speed>
  <fix>3d</fix>
</trkpt>
<trkpt lat="33.810313" lon="-118.393867">
  <ele>-0.12</ele>
  <time>2026-09-02T22:08:22Z</time>
  <course>0.0</course>
  <speed>0.0</speed>
  <fix>3d</fix>
</trkpt>
<trkpt lat="33.810313" lon="-118.393867">
  <ele>-0.127</ele>
  <time>2026-09-02T22:08:22Z</time>
  <course>188.17</course>
  <speed>0.01414213562373095</speed>
  <fix>3d</fix>
</trkpt>
<trkpt lat="33.810313" lon="-118.393867">
  <ele>-0.12</ele>
  <time>2026-09-02T22:08:22Z</time>
  <course>0.0</course>
  <speed>0.0</speed>
  <fix>3d</fix>
</trkpt>
<trkpt lat="33.810313" lon="-118.393867">
  <ele>-0.127</ele>
  <time>2026-09-02T22:08:22Z</time>
  <course>188.16</course>
  <speed>0.01414213562373095</speed>
  <fix>3d</fix>
</trkpt>
<trkpt lat="33.810313" lon="-118.393867">
  <ele>-0.12</ele>
  <time>2026-09-02T22:08:22Z</time>
  <course>0.0</course>
  <speed>0.0</speed>
  <fix>3d</fix>
</trkpt>
<trkpt lat="33.810313" lon="-118.393867">
  <ele>-0.128</ele>
  <time>2026-09-02T22:08:22Z</time>
  <course>188.16</course>
  <speed>0.01414213562373095</speed>
  <fix>3d</fix>
</trkpt>
<trkpt lat="33.810313" lon="-118.393867">
  <ele>-0.12</ele>
  <time>2026-09-02T22:08:22Z</time>
  <course>0.0</course>
  <speed>0.0</speed>
  <fix>3d</fix>
</trkpt>
<trkpt lat="33.810313" lon="-118.393867">
  <ele>-0.129</ele>
  <time>2026-09-02T22:08:22Z</time>
  <course>188.15</course>
  <speed>0.01414213562373095</speed>
  <fix>3d</fix>
</trkpt>
<trkpt lat="33.810313" lon="-118.393867">
  <ele>-0.12</ele>
  <time>2026-09-02T22:08:22Z</time>
  <course>0.0</course>
  <speed>0.0</speed>
  <fix>3d</fix>
</trkpt>
<trkpt lat="33.810313" lon="-118.393867">
  <ele>-0.131</ele>
  <time>2026-09-02T22:08:22Z</time>
  <course>188.14</course>
  <speed>0.01414213562373095</speed>
  <fix>3d</fix>
</trkpt>
<trkpt lat="33.810313" lon="-118.393867">
  <ele>-0.12</ele>
  <time>2026-09-02T22:08:22Z</time>
  <course>0.0</course>
  <speed>0.0</speed>
  <fix>3d</fix>
</trkpt>
<trkpt lat="33.810313" lon="-118.393867">
  <ele>-0.133</ele>
  <time>2026-09-02T22:08:22Z</time>
  <course>188.13</course>
  <speed>0.01414213562373095</speed>
  <fix>3d</fix>
</trkpt>
<trkpt lat="33.810313" lon="-118.393867">
  <ele>-0.12</ele>
  <time>2026-09-02T22:08:22Z</time>
  <course>0.0</course>
  <speed>0.0</speed>
  <fix>3d</fix>
</trkpt>
<trkpt lat="33.810313" lon="-118.393867">
  <ele>-0.135</ele>
  <time>2026-09-02T22:08:22Z</time>
  <course>188.12</course>
  <speed>0.01414213562373095</speed>
  <fix>3d</fix>
</trkpt>
<trkpt lat="33.810313" lon="-118.393867">
  <ele>-0.12</ele>
  <time>2026-09-02T22:08:22Z</time>
  <course>0.0</course>
  <speed>0.0</speed>
  <fix>3d</fix>
</trkpt>
<trkpt lat="33.810313" lon="-118.393867">
  <ele>-0.136</ele>
  <time>2026-09-02T22:08:22Z</time>
  <course>188.12</course>
  <speed>0.01414213562373095</speed>
  <fix>3d</fix>
</trkpt>
<trkpt lat="33.810313" lon="-118.393867">
  <ele>-0.12</ele>
  <time>2026-09-02T22:08:22Z</time>
  <course>0.0</course>
  <speed>0.0</speed>
  <fix>3d</fix>
</trkpt>
<trkpt lat="33.810313" lon="-118.393867">
  <ele>-0.136</ele>
  <time>2026-09-02T22:08:22Z</time>
  <course>188.11</course>
  <speed>0.01414213562373095</speed>
  <fix>3d</fix>
</trkpt>
<trkpt lat="33.810313" lon="-118.393867">
  <ele>-0.12</ele>
  <time>2026-09-02T22:08:22Z</time>
  <course>0.0</course>
  <speed>0.0</speed>
  <fix>3d</fix>
</trkpt>
<trkpt lat="33.810313" lon="-118.393867">
  <ele>-0.136</ele>
  <time>2026-09-02T22:08:22Z</time>
  <course>188.1</course>
  <speed>0.01414213562373095</speed>
  <fix>3d</fix>
</trkpt>
<trkpt lat="33.810313" lon="-118.393867">
  <ele>-0.12</ele>
  <time>2026-09-02T22:08:22Z</time>
  <course>0.0</course>
  <speed>0.0</speed>
  <fix>3d</fix>
</trkpt>
<trkpt lat="33.810313" lon="-118.393867">
  <ele>-0.135</ele>
  <time>2026-09-02T22:08:22Z</time>
  <course>188.09</course>
  <speed>0.01414213562373095</speed>
  <fix>3d</fix>
</trkpt>
<trkpt lat="33.810313" lon="-118.393867">
  <ele>-0.12</ele>
  <time>2026-09-02T22:08:22Z</time>
  <course>0.0</course>
  <speed>0.0</speed>
  <fix>3d</fix>
</trkpt>
<trkpt lat="33.810313" lon="-118.393867">
  <ele>-0.134</ele>
  <time>2026-09-02T22:08:22Z</time>
  <course>188.08</course>
  <speed>0.01414213562373095</speed>
  <fix>3d</fix>
</trkpt>
<trkpt lat="33.810313" lon="-118.393867">
  <ele>-0.12</ele>
  <time>2026-09-02T22:08:22Z</time>
  <course>0.0</course>
  <speed>0.0</speed>
  <fix>3d</fix>
</trkpt>
<trkpt lat="33.810313" lon="-118.393867">
  <ele>-0.131</ele>
  <time>2026-09-02T22:08:22Z</time>
  <course>188.07</course>
  <speed>0.022360679774997897</speed>
  <fix>3d</fix>
</trkpt>
<trkpt lat="33.810313" lon="-118.393867">
  <ele>-0.12</ele>
  <time>2026-09-02T22:08:22Z</time>
  <course>0.0</course>
  <speed>0.0</speed>
  <fix>3d</fix>
</trkpt>
<trkpt lat="33.810313" lon="-118.393867">
  <ele>-0.128</ele>
  <time>2026-09-02T22:08:22Z</time>
  <course>188.07</course>
  <speed>0.022360679774997897</speed>
  <fix>3d</fix>
</trkpt>
<trkpt lat="33.810313" lon="-118.393867">
  <ele>-0.12</ele>
  <time>2026-09-02T22:08:22Z</time>
  <course>0.0</course>
  <speed>0.0</speed>
  <fix>3d</fix>
</trkpt>
<trkpt lat="33.810313" lon="-118.393867">
  <ele>-0.127</ele>
  <time>2026-09-02T22:08:22Z</time>
  <course>188.06</course>
  <speed>0.022360679774997897</speed>
  <fix>3d</fix>
</trkpt>
<trkpt lat="33.810313" lon="-118.393867">
  <ele>-0.12</ele>
  <time>2026-09-02T22:08:22Z</time>
  <course>0.0</course>
  <speed>0.0</speed>
  <fix>3d</fix>
</trkpt>
<trkpt lat="33.810313" lon="-118.393867">
  <ele>-0.126</ele>
  <time>2026-09-02T22:08:22Z</time>
  <course>188.05</course>
  <speed>0.022360679774997897</speed>
  <fix>3d</fix>
</trkpt>
<trkpt lat="33.810313" lon="-118.393867">
  <ele>-0.12</ele>
  <time>2026-09-02T22:08:22Z</time>
  <course>0.0</course>
  <speed>0.0</speed>
  <fix>3d</fix>
</trkpt>
<trkpt lat="33.810313" lon="-118.393867">
  <ele>-0.126</ele>
  <time>2026-09-02T22:08:22Z</time>
  <course>188.04</course>
  <speed>0.022360679774997897</speed>
  <fix>3d</fix>
</trkpt>
<trkpt lat="33.810313" lon="-118.393867">
  <ele>-0.12</ele>
  <time>2026-09-02T22:08:22Z</time>
  <course>0.0</course>
  <speed>0.0</speed>
  <fix>3d</fix>
</trkpt>
<trkpt lat="33.810313" lon="-118.393867">
  <ele>-0.127</ele>
  <time>2026-09-02T22:08:22Z</time>
  <course>188.03</course>
  <speed>0.022360679774997897</speed>
  <fix>3d</fix>
</trkpt>
<trkpt lat="33.810313" lon="-118.393867">
  <ele>-0.12</ele>
  <time>2026-09-02T22:08:22Z</time>
  <course>0.0</course>
  <speed>0.0</speed>
  <fix>3d</fix>
</trkpt>
<trkpt lat="33.810313" lon="-118.393867">
  <ele>-0.127</ele>
  <time>2026-09-02T22:08:22Z</time>
  <course>188.03</course>
  <speed>0.022360679774997897</speed>
  <fix>3d</fix>
</trkpt>
<trkpt lat="33.810313" lon="-118.393867">
  <ele>-0.12</ele>
  <time>2026-09-02T22:08:22Z</time>
  <course>0.0</course>
  <speed>0.0</speed>
  <fix>3d</fix>
</trkpt>
<trkpt lat="33.810313" lon="-118.393867">
  <ele>-0.127</ele>
  <time>2026-09-02T22:08:22Z</time>
  <course>188.02</course>
  <speed>0.022360679774997897</speed>
  <fix>3d</fix>
</trkpt>
<trkpt lat="33.810313" lon="-118.393867">
  <ele>-0.12</ele>
  <time>2026-09-02T22:08:22Z</time>
  <course>0.0</course>
  <speed>0.0</speed>
  <fix>3d</fix>
</trkpt>
<trkpt lat="33.810313" lon="-118.393867">
  <ele>-0.128</ele>
  <time>2026-09-02T22:08:22Z</time>
  <course>188.01</course>
  <speed>0.022360679774997897</speed>
  <fix>3d</fix>
</trkpt>
<trkpt lat="33.810313" lon="-118.393867">
  <ele>-0.12</ele>
  <time>2026-09-02T22:08:22Z</time>
  <course>0.0</course>
  <speed>0.0</speed>
  <fix>3d</fix>
</trkpt>
<trkpt lat="33.810313" lon="-118.393867">
  <ele>-0.128</ele>
  <time>2026-09-02T22:08:22Z</time>
  <course>188.0</course>
  <speed>0.022360679774997897</speed>
  <fix>3d</fix>
</trkpt>
<trkpt lat="33.810313" lon="-118.393867">
  <ele>-0.12</ele>
  <time>2026-09-02T22:08:22Z</time>
  <course>0.0</course>
  <speed>0.0</speed>
  <fix>3d</fix>
</trkpt>
<trkpt lat="33.810313" lon="-118.393867">
  <ele>-0.128</ele>
  <time>2026-09-02T22:08:22Z</time>
  <course>187.99</course>
  <speed>0.022360679774997897</speed>
  <fix>3d</fix>
</trkpt>
<trkpt lat="33.810313" lon="-118.393867">
  <ele>-0.12</ele>
  <time>2026-09-02T22:08:22Z</time>
  <course>0.0</course>
  <speed>0.0</speed>
  <fix>3d</fix>
</trkpt>
<trkpt lat="33.810313" lon="-118.393867">
  <ele>-0.126</ele>
  <time>2026-09-02T22:08:22Z</time>
  <course>187.99</course>
  <speed>0.022360679774997897</speed>
  <fix>3d</fix>
</trkpt>
<trkpt lat="33.810313" lon="-118.393867">
  <ele>-0.12</ele>
  <time>2026-09-02T22:08:22Z</time>
  <course>0.0</course>
  <speed>0.0</speed>
  <fix>3d</fix>
</trkpt>
<trkpt lat="33.810313" lon="-118.393867">
  <ele>-0.124</ele>
  <time>2026-09-02T22:08:22Z</time>
  <course>187.98</course>
  <speed>0.022360679774997897</speed>
  <fix>3d</fix>
</trkpt>
<trkpt lat="33.810313" lon="-118.393867">
  <ele>-0.12</ele>
  <time>2026-09-02T22:08:22Z</time>
  <course>0.0</course>
  <speed>0.0</speed>
  <fix>3d</fix>
</trkpt>
<trkpt lat="33.810313" lon="-118.393867">
  <ele>-0.122</ele>
  <time>2026-09-02T22:08:22Z</time>
  <course>187.97</course>
  <speed>0.022360679774997897</speed>
  <fix>3d</fix>
</trkpt>
<trkpt lat="33.810313" lon="-118.393867">
  <ele>-0.12</ele>
  <time>2026-09-02T22:08:22Z</time>
  <course>0.0</course>
  <speed>0.0</speed>
  <fix>3d</fix>
</trkpt>
<trkpt lat="33.810313" lon="-118.393867">
  <ele>-0.12</ele>
  <time>2026-09-02T22:08:22Z</time>
  <course>187.96</course>
  <speed>0.022360679774997897</speed>
  <fix>3d</fix>
</trkpt>
<trkpt lat="33.810313" lon="-118.393867">
  <ele>-0.12</ele>
  <time>2026-09-02T22:08:22Z</time>
  <course>0.0</course>
  <speed>0.0</speed>
  <fix>3d</fix>
</trkpt>
<trkpt lat="33.810313" lon="-118.393867">
  <ele>-0.12</ele>
  <time>2026-09-02T22:08:22Z</time>
  <course>187.95</course>
  <speed>0.022360679774997897</speed>
  <fix>3d</fix>
</trkpt>
<trkpt lat="33.810313" lon="-118.393867">
  <ele>-0.12</ele>
  <time>2026-09-02T22:08:22Z</time>
  <course>0.0</course>
  <speed>0.0</speed>
  <fix>3d</fix>
</trkpt>
<trkpt lat="33.810313" lon="-118.393867">
  <ele>-0.122</ele>
  <time>2026-09-02T22:08:22Z</time>
  <course>187.94</course>
  <speed>0.022360679774997897</speed>
  <fix>3d</fix>
</trkpt>
<trkpt lat="33.810313" lon="-118.393867">
  <ele>-0.12</ele>
  <time>2026-09-02T22:08:22Z</time>
  <course>0.0</course>
  <speed>0.0</speed>
  <fix>3d</fix>
</trkpt>
<trkpt lat="33.810313" lon="-118.393867">
  <ele>-0.125</ele>
  <time>2026-09-02T22:08:22Z</time>
  <course>187.94</course>
  <speed>0.022360679774997897</speed>
  <fix>3d</fix>
</trkpt>
<trkpt lat="33.810313" lon="-118.393867">
  <ele>-0.12</ele>
  <time>2026-09-02T22:08:22Z</time>
  <course>0.0</course>
  <speed>0.0</speed>
  <fix>3d</fix>
</trkpt>
<trkpt lat="33.810313" lon="-118.393867">
  <ele>-0.128</ele>
  <time>2026-09-02T22:08:22Z</time>
  <course>187.93</course>
  <speed>0.022360679774997897</speed>
  <fix>3d</fix>
</trkpt>
<trkpt lat="33.810313" lon="-118.393867">
  <ele>-0.12</ele>
  <time>2026-09-02T22:08:22Z</time>
  <course>0.0</course>
  <speed>0.0</speed>
  <fix>3d</fix>
</trkpt>
<trkpt lat="33.810313" lon="-118.393867">
  <ele>-0.131</ele>
  <time>2026-09-02T22:08:22Z</time>
  <course>187.92</course>
  <speed>0.022360679774997897</speed>
  <fix>3d</fix>
</trkpt>
<trkpt lat="33.810313" lon="-118.393867">
  <ele>-0.12</ele>
  <time>2026-09-02T22:08:22Z</time>
  <course>0.0</course>
  <speed>0.0</speed>
  <fix>3d</fix>
</trkpt>
<trkpt lat="33.810313" lon="-118.393867">
  <ele>-0.132</ele>
  <time>2026-09-02T22:08:22Z</time>
  <course>187.91</course>
  <speed>0.022360679774997897</speed>
  <fix>3d</fix>
</trkpt>
<trkpt lat="33.810313" lon="-118.393867">
  <ele>-0.12</ele>
  <time>2026-09-02T22:08:22Z</time>
  <course>0.0</course>
  <speed>0.0</speed>
  <fix>3d</fix>
</trkpt>
<trkpt lat="33.810313" lon="-118.393867">
  <ele>-0.132</ele>
  <time>2026-09-02T22:08:22Z</time>
  <course>187.91</course>
  <speed>0.022360679774997897</speed>
  <fix>3d</fix>
</trkpt>
<trkpt lat="33.810313" lon="-118.393867">
  <ele>-0.12</ele>
  <time>2026-09-02T22:08:22Z</time>
  <course>0.0</course>
  <speed>0.0</speed>
  <fix>3d</fix>
</trkpt>
<trkpt lat="33.810313" lon="-118.393867">
  <ele>-0.132</ele>
  <time>2026-09-02T22:08:22Z</time>
  <course>187.9</course>
  <speed>0.022360679774997897</speed>
  <fix>3d</fix>
</trkpt>
<trkpt lat="33.810313" lon="-118.393867">
  <ele>-0.12</ele>
  <time>2026-09-02T22:08:22Z</time>
  <course>0.0</course>
  <speed>0.0</speed>
  <fix>3d</fix>
</trkpt>
<trkpt lat="33.810313" lon="-118.393867">
  <ele>-0.13</ele>
  <time>2026-09-02T22:08:22Z</time>
  <course>187.89</course>
  <speed>0.022360679774997897</speed>
  <fix>3d</fix>
</trkpt>
<trkpt lat="33.810313" lon="-118.393867">
  <ele>-0.12</ele>
  <time>2026-09-02T22:08:22Z</time>
  <course>0.0</course>
  <speed>0.0</speed>
  <fix>3d</fix>
</trkpt>
<trkpt lat="33.810313" lon="-118.393867">
  <ele>-0.127</ele>
  <time>2026-09-02T22:08:22Z</time>
  <course>187.88</course>
  <speed>0.022360679774997897</speed>
  <fix>3d</fix>
</trkpt>
<trkpt lat="33.810313" lon="-118.393867">
  <ele>-0.12</ele>
  <time>2026-09-02T22:08:22Z</time>
  <course>0.0</course>
  <speed>0.0</speed>
  <fix>3d</fix>
</trkpt>
<trkpt lat="33.810313" lon="-118.393867">
  <ele>-0.123</ele>
  <time>2026-09-02T22:08:22Z</time>
  <course>187.87</course>
  <speed>0.022360679774997897</speed>
  <fix>3d</fix>
</trkpt>
<trkpt lat="33.810313" lon="-118.393867">
  <ele>-0.12</ele>
  <time>2026-09-02T22:08:22Z</time>
  <course>0.0</course>
  <speed>0.0</speed>
  <fix>3d</fix>
</trkpt>
<trkpt lat="33.810313" lon="-118.393867">
  <ele>-0.121</ele>
  <time>2026-09-02T22:08:22Z</time>
  <course>187.87</course>
  <speed>0.022360679774997897</speed>
  <fix>3d</fix>
</trkpt>
<trkpt lat="33.810313" lon="-118.393867">
  <ele>-0.12</ele>
  <time>2026-09-02T22:08:22Z</time>
  <course>0.0</course>
  <speed>0.0</speed>
  <fix>3d</fix>
</trkpt>
<trkpt lat="33.810313" lon="-118.393867">
  <ele>-0.121</ele>
  <time>2026-09-02T22:08:22Z</time>
  <course>187.86</course>
  <speed>0.022360679774997897</speed>
  <fix>3d</fix>
</trkpt>
<trkpt lat="33.810313" lon="-118.393867">
  <ele>-0.12</ele>
  <time>2026-09-02T22:08:22Z</time>
  <course>0.0</course>
  <speed>0.0</speed>
  <fix>3d</fix>
</trkpt>
<trkpt lat="33.810313" lon="-118.393867">
  <ele>-0.123</ele>
  <time>2026-09-02T22:08:22Z</time>
  <course>187.85</course>
  <speed>0.022360679774997897</speed>
  <fix>3d</fix>
</trkpt>
<trkpt lat="33.810313" lon="-118.393867">
  <ele>-0.12</ele>
  <time>2026-09-02T22:08:22Z</time>
  <course>0.0</course>
  <speed>0.0</speed>
  <fix>3d</fix>
</trkpt>
<trkpt lat="33.810313" lon="-118.393867">
  <ele>-0.124</ele>
  <time>2026-09-02T22:08:22Z</time>
  <course>187.84</course>
  <speed>0.022360679774997897</speed>
  <fix>3d</fix>
</trkpt>
<trkpt lat="33.810313" lon="-118.393867">
  <ele>-0.12</ele>
  <time>2026-09-02T22:08:22Z</time>
  <course>0.0</course>
  <speed>0.0</speed>
  <fix>3d</fix>
</trkpt>
<trkpt lat="33.810313" lon="-118.393867">
  <ele>-0.126</ele>
  <time>2026-09-02T22:08:22Z</time>
  <course>187.83</course>
  <speed>0.022360679774997897</speed>
  <fix>3d</fix>
</trkpt>
<trkpt lat="33.810313" lon="-118.393867">
  <ele>-0.12</ele>
  <time>2026-09-02T22:08:22Z</time>
  <course>0.0</course>
  <speed>0.0</speed>
  <fix>3d</fix>
</trkpt>
<trkpt lat="33.810313" lon="-118.393867">
  <ele>-0.127</ele>
  <time>2026-09-02T22:08:22Z</time>
  <course>187.83</course>
  <speed>0.022360679774997897</speed>
  <fix>3d</fix>
</trkpt>
<trkpt lat="33.810313" lon="-118.393867">
  <ele>-0.12</ele>
  <time>2026-09-02T22:08:22Z</time>
  <course>0.0</course>
  <speed>0.0</speed>
  <fix>3d</fix>
</trkpt>
<trkpt lat="33.810313" lon="-118.393867">
  <ele>-0.127</ele>
  <time>2026-09-02T22:08:22Z</time>
  <course>187.82</course>
  <speed>0.022360679774997897</speed>
  <fix>3d</fix>
</trkpt>
<trkpt lat="33.810313" lon="-118.393867">
  <ele>-0.12</ele>
  <time>2026-09-02T22:08:22Z</time>
  <course>0.0</course>
  <speed>0.0</speed>
  <fix>3d</fix>
</trkpt>
<trkpt lat="33.810313" lon="-118.393867">
  <ele>-0.127</ele>
  <time>2026-09-02T22:08:22Z</time>
  <course>187.81</course>
  <speed>0.022360679774997897</speed>
  <fix>3d</fix>
</trkpt>
<trkpt lat="33.810313" lon="-118.393867">
  <ele>-0.12</ele>
  <time>2026-09-02T22:08:22Z</time>
  <course>0.0</course>
  <speed>0.0</speed>
  <fix>3d</fix>
</trkpt>
<trkpt lat="33.810313" lon="-118.393867">
  <ele>-0.126</ele>
  <time>2026-09-02T22:08:22Z</time>
  <course>187.8</course>
  <speed>0.022360679774997897</speed>
  <fix>3d</fix>
</trkpt>
<trkpt lat="33.810313" lon="-118.393867">
  <ele>-0.12</ele>
  <time>2026-09-02T22:08:22Z</time>
  <course>0.0</course>
  <speed>0.0</speed>
  <fix>3d</fix>
</trkpt>
<trkpt lat="33.810313" lon="-118.393867">
  <ele>-0.124</ele>
  <time>2026-09-02T22:08:22Z</time>
  <course>187.8</course>
  <speed>0.022360679774997897</speed>
  <fix>3d</fix>
</trkpt>
<trkpt lat="33.810313" lon="-118.393867">
  <ele>-0.12</ele>
  <time>2026-09-02T22:08:22Z</time>
  <course>0.0</course>
  <speed>0.0</speed>
  <fix>3d</fix>
</trkpt>
<trkpt lat="33.810313" lon="-118.393867">
  <ele>-0.121</ele>
  <time>2026-09-02T22:08:22Z</time>
  <course>187.79</course>
  <speed>0.022360679774997897</speed>
  <fix>3d</fix>
</trkpt>
<trkpt lat="33.810313" lon="-118.393867">
  <ele>-0.12</ele>
  <time>2026-09-02T22:08:22Z</time>
  <course>0.0</course>
  <speed>0.0</speed>
  <fix>3d</fix>
</trkpt>
<trkpt lat="33.810313" lon="-118.393867">
  <ele>-0.119</ele>
  <time>2026-09-02T22:08:22Z</time>
  <course>187.78</course>
  <speed>0.022360679774997897</speed>
  <fix>3d</fix>
</trkpt>
<trkpt lat="33.810313" lon="-118.393867">
  <ele>-0.12</ele>
  <time>2026-09-02T22:08:22Z</time>
  <course>0.0</course>
  <speed>0.0</speed>
  <fix>3d</fix>
</trkpt>
<trkpt lat="33.810313" lon="-118.393867">
  <ele>-0.118</ele>
  <time>2026-09-02T22:08:22Z</time>
  <course>187.77</course>
  <speed>0.022360679774997897</speed>
  <fix>3d</fix>
</trkpt>
<trkpt lat="33.810313" lon="-118.393867">
  <ele>-0.12</ele>
  <time>2026-09-02T22:08:22Z</time>
  <course>0.0</course>
  <speed>0.0</speed>
  <fix>3d</fix>
</trkpt>
<trkpt lat="33.810313" lon="-118.393867">
  <ele>-0.118</ele>
  <time>2026-09-02T22:08:22Z</time>
  <course>187.77</course>
  <speed>0.022360679774997897</speed>
  <fix>3d</fix>
</trkpt>
<trkpt lat="33.810313" lon="-118.393867">
  <ele>-0.12</ele>
  <time>2026-09-02T22:08:22Z</time>
  <course>0.0</course>
  <speed>0.0</speed>
  <fix>3d</fix>
</trkpt>
<trkpt lat="33.810313" lon="-118.393867">
  <ele>-0.119</ele>
  <time>2026-09-02T22:08:22Z</time>
  <course>187.76</course>
  <speed>0.022360679774997897</speed>
  <fix>3d</fix>
</trkpt>
<trkpt lat="33.810313" lon="-118.393867">
  <ele>-0.12</ele>
  <time>2026-09-02T22:08:22Z</time>
  <course>0.0</course>
  <speed>0.0</speed>
  <fix>3d</fix>
</trkpt>
<trkpt lat="33.810313" lon="-118.393867">
  <ele>-0.12</ele>
  <time>2026-09-02T22:08:22Z</time>
  <course>187.75</course>
  <speed>0.022360679774997897</speed>
  <fix>3d</fix>
</trkpt>
<trkpt lat="33.810313" lon="-118.393867">
  <ele>-0.12</ele>
  <time>2026-09-02T22:08:22Z</time>
  <course>0.0</course>
  <speed>0.0</speed>
  <fix>3d</fix>
</trkpt>
<trkpt lat="33.810313" lon="-118.393867">
  <ele>-0.12</ele>
  <time>2026-09-02T22:08:23Z</time>
  <course>187.74</course>
  <speed>0.0282842712474619</speed>
  <fix>3d</fix>
</trkpt>
<trkpt lat="33.810313" lon="-118.393867">
  <ele>-0.12</ele>
  <time>2026-09-02T22:08:23Z</time>
  <course>0.0</course>
  <speed>0.0</speed>
  <fix>3d</fix>
</trkpt>
<trkpt lat="33.810313" lon="-118.393867">
  <ele>-0.12</ele>
  <time>2026-09-02T22:08:23Z</time>
  <course>187.74</course>
  <speed>0.0282842712474619</speed>
  <fix>3d</fix>
</trkpt>
<trkpt lat="33.810313" lon="-118.393867">
  <ele>-0.12</ele>
  <time>2026-09-02T22:08:23Z</time>
  <course>0.0</course>
  <speed>0.0</speed>
  <fix>3d</fix>
</trkpt>
<trkpt lat="33.810313" lon="-118.393867">
  <ele>-0.119</ele>
  <time>2026-09-02T22:08:23Z</time>
  <course>187.73</course>
  <speed>0.0282842712474619</speed>
  <fix>3d</fix>
</trkpt>
<trkpt lat="33.810313" lon="-118.393867">
  <ele>-0.12</ele>
  <time>2026-09-02T22:08:23Z</time>
  <course>0.0</course>
  <speed>0.0</speed>
  <fix>3d</fix>
</trkpt>
<trkpt lat="33.810313" lon="-118.393867">
  <ele>-0.118</ele>
  <time>2026-09-02T22:08:23Z</time>
  <course>187.72</course>
  <speed>0.0282842712474619</speed>
  <fix>3d</fix>
</trkpt>
<trkpt lat="33.810313" lon="-118.393867">
  <ele>-0.12</ele>
  <time>2026-09-02T22:08:23Z</time>
  <course>0.0</course>
  <speed>0.0</speed>
  <fix>3d</fix>
</trkpt>
<trkpt lat="33.810313" lon="-118.393867">
  <ele>-0.116</ele>
  <time>2026-09-02T22:08:23Z</time>
  <course>187.71</course>
  <speed>0.0282842712474619</speed>
  <fix>3d</fix>
</trkpt>
<trkpt lat="33.810313" lon="-118.393867">
  <ele>-0.12</ele>
  <time>2026-09-02T22:08:23Z</time>
  <course>0.0</course>
  <speed>0.0</speed>
  <fix>3d</fix>
</trkpt>
<trkpt lat="33.810313" lon="-118.393867">
  <ele>-0.114</ele>
  <time>2026-09-02T22:08:23Z</time>
  <course>187.71</course>
  <speed>0.0282842712474619</speed>
  <fix>3d</fix>
</trkpt>
<trkpt lat="33.810313" lon="-118.393867">
  <ele>-0.12</ele>
  <time>2026-09-02T22:08:23Z</time>
  <course>0.0</course>
  <speed>0.0</speed>
  <fix>3d</fix>
</trkpt>
<trkpt lat="33.810313" lon="-118.393867">
  <ele>-0.112</ele>
  <time>2026-09-02T22:08:23Z</time>
  <course>187.7</course>
  <speed>0.0282842712474619</speed>
  <fix>3d</fix>
</trkpt>
<trkpt lat="33.810313" lon="-118.393867">
  <ele>-0.12</ele>
  <time>2026-09-02T22:08:23Z</time>
  <course>0.0</course>
  <speed>0.0</speed>
  <fix>3d</fix>
</trkpt>
<trkpt lat="33.810313" lon="-118.393867">
  <ele>-0.113</ele>
  <time>2026-09-02T22:08:23Z</time>
  <course>187.69</course>
  <speed>0.0282842712474619</speed>
  <fix>3d</fix>
</trkpt>
<trkpt lat="33.810313" lon="-118.393867">
  <ele>-0.12</ele>
  <time>2026-09-02T22:08:23Z</time>
  <course>0.0</course>
  <speed>0.0</speed>
  <fix>3d</fix>
</trkpt>
<trkpt lat="33.810313" lon="-118.393867">
  <ele>-0.115</ele>
  <time>2026-09-02T22:08:23Z</time>
  <course>187.69</course>
  <speed>0.0282842712474619</speed>
  <fix>3d</fix>
</trkpt>
<trkpt lat="33.810313" lon="-118.393867">
  <ele>-0.12</ele>
  <time>2026-09-02T22:08:23Z</time>
  <course>0.0</course>
  <speed>0.0</speed>
  <fix>3d</fix>
</trkpt>
<trkpt lat="33.810313" lon="-118.393867">
  <ele>-0.119</ele>
  <time>2026-09-02T22:08:23Z</time>
  <course>187.68</course>
  <speed>0.0282842712474619</speed>
  <fix>3d</fix>
</trkpt>
<trkpt lat="33.810313" lon="-118.393867">
  <ele>-0.12</ele>
  <time>2026-09-02T22:08:23Z</time>
  <course>0.0</course>
  <speed>0.0</speed>
  <fix>3d</fix>
</trkpt>
<trkpt lat="33.810313" lon="-118.393867">
  <ele>-0.123</ele>
  <time>2026-09-02T22:08:23Z</time>
  <course>187.67</course>
  <speed>0.0282842712474619</speed>
  <fix>3d</fix>
</trkpt>
<trkpt lat="33.810313" lon="-118.393867">
  <ele>-0.12</ele>
  <time>2026-09-02T22:08:23Z</time>
  <course>0.0</course>
  <speed>0.0</speed>
  <fix>3d</fix>
</trkpt>
<trkpt lat="33.810313" lon="-118.393867">
  <ele>-0.128</ele>
  <time>2026-09-02T22:08:23Z</time>
  <course>187.66</course>
  <speed>0.0282842712474619</speed>
  <fix>3d</fix>
</trkpt>
<trkpt lat="33.810313" lon="-118.393867">
  <ele>-0.12</ele>
  <time>2026-09-02T22:08:23Z</time>
  <course>0.0</course>
  <speed>0.0</speed>
  <fix>3d</fix>
</trkpt>
<trkpt lat="33.810313" lon="-118.393867">
  <ele>-0.132</ele>
  <time>2026-09-02T22:08:23Z</time>
  <course>187.66</course>
  <speed>0.0282842712474619</speed>
  <fix>3d</fix>
</trkpt>
<trkpt lat="33.810313" lon="-118.393867">
  <ele>-0.12</ele>
  <time>2026-09-02T22:08:23Z</time>
  <course>0.0</course>
  <speed>0.0</speed>
  <fix>3d</fix>
</trkpt>
<trkpt lat="33.810313" lon="-118.393867">
  <ele>-0.134</ele>
  <time>2026-09-02T22:08:23Z</time>
  <course>187.65</course>
  <speed>0.0282842712474619</speed>
  <fix>3d</fix>
</trkpt>
<trkpt lat="33.810313" lon="-118.393867">
  <ele>-0.12</ele>
  <time>2026-09-02T22:08:23Z</time>
  <course>0.0</course>
  <speed>0.0</speed>
  <fix>3d</fix>
</trkpt>
<trkpt lat="33.810313" lon="-118.393867">
  <ele>-0.135</ele>
  <time>2026-09-02T22:08:23Z</time>
  <course>187.64</course>
  <speed>0.0282842712474619</speed>
  <fix>3d</fix>
</trkpt>
<trkpt lat="33.810313" lon="-118.393867">
  <ele>-0.12</ele>
  <time>2026-09-02T22:08:23Z</time>
  <course>0.0</course>
  <speed>0.0</speed>
  <fix>3d</fix>
</trkpt>
<trkpt lat="33.810313" lon="-118.393867">
  <ele>-0.135</ele>
  <time>2026-09-02T22:08:23Z</time>
  <course>187.64</course>
  <speed>0.0282842712474619</speed>
  <fix>3d</fix>
</trkpt>
<trkpt lat="33.810313" lon="-118.393867">
  <ele>-0.12</ele>
  <time>2026-09-02T22:08:23Z</time>
  <course>0.0</course>
  <speed>0.0</speed>
  <fix>3d</fix>
</trkpt>
<trkpt lat="33.810313" lon="-118.393867">
  <ele>-0.133</ele>
  <time>2026-09-02T22:08:23Z</time>
  <course>187.63</course>
  <speed>0.0282842712474619</speed>
  <fix>3d</fix>
</trkpt>
<trkpt lat="33.810313" lon="-118.393867">
  <ele>-0.12</ele>
  <time>2026-09-02T22:08:23Z</time>
  <course>0.0</course>
  <speed>0.0</speed>
  <fix>3d</fix>
</trkpt>
<trkpt lat="33.810313" lon="-118.393867">
  <ele>-0.132</ele>
  <time>2026-09-02T22:08:23Z</time>
  <course>187.63</course>
  <speed>0.0282842712474619</speed>
  <fix>3d</fix>
</trkpt>
<trkpt lat="33.810313" lon="-118.393867">
  <ele>-0.12</ele>
  <time>2026-09-02T22:08:23Z</time>
  <course>0.0</course>
  <speed>0.0</speed>
  <fix>3d</fix>
</trkpt>
<trkpt lat="33.810313" lon="-118.393867">
  <ele>-0.132</ele>
  <time>2026-09-02T22:08:23Z</time>
  <course>187.62</course>
  <speed>0.03605551275463989</speed>
  <fix>3d</fix>
</trkpt>
<trkpt lat="33.810313" lon="-118.393867">
  <ele>-0.12</ele>
  <time>2026-09-02T22:08:23Z</time>
  <course>0.0</course>
  <speed>0.0</speed>
  <fix>3d</fix>
</trkpt>
<trkpt lat="33.810313" lon="-118.393867">
  <ele>-0.132</ele>
  <time>2026-09-02T22:08:23Z</time>
  <course>187.61</course>
  <speed>0.03605551275463989</speed>
  <fix>3d</fix>
</trkpt>
<trkpt lat="33.810313" lon="-118.393867">
  <ele>-0.12</ele>
  <time>2026-09-02T22:08:23Z</time>
  <course>0.0</course>
  <speed>0.0</speed>
  <fix>3d</fix>
</trkpt>
<trkpt lat="33.810313" lon="-118.393867">
  <ele>-0.133</ele>
  <time>2026-09-02T22:08:23Z</time>
  <course>187.61</course>
  <speed>0.03605551275463989</speed>
  <fix>3d</fix>
</trkpt>
<trkpt lat="33.810313" lon="-118.393867">
  <ele>-0.12</ele>
  <time>2026-09-02T22:08:23Z</time>
  <course>0.0</course>
  <speed>0.0</speed>
  <fix>3d</fix>
</trkpt>
<trkpt lat="33.810313" lon="-118.393867">
  <ele>-0.134</ele>
  <time>2026-09-02T22:08:23Z</time>
  <course>187.6</course>
  <speed>0.03605551275463989</speed>
  <fix>3d</fix>
</trkpt>
<trkpt lat="33.810313" lon="-118.393867">
  <ele>-0.12</ele>
  <time>2026-09-02T22:08:23Z</time>
  <course>0.0</course>
  <speed>0.0</speed>
  <fix>3d</fix>
</trkpt>
<trkpt lat="33.810313" lon="-118.393867">
  <ele>-0.133</ele>
  <time>2026-09-02T22:08:23Z</time>
  <course>187.59</course>
  <speed>0.03605551275463989</speed>
  <fix>3d</fix>
</trkpt>
<trkpt lat="33.810313" lon="-118.393867">
  <ele>-0.12</ele>
  <time>2026-09-02T22:08:23Z</time>
  <course>0.0</course>
  <speed>0.0</speed>
  <fix>3d</fix>
</trkpt>
<trkpt lat="33.810313" lon="-118.393867">
  <ele>-0.132</ele>
  <time>2026-09-02T22:08:23Z</time>
  <course>187.59</course>
  <speed>0.03605551275463989</speed>
  <fix>3d</fix>
</trkpt>
<trkpt lat="33.810313" lon="-118.393867">
  <ele>-0.12</ele>
  <time>2026-09-02T22:08:23Z</time>
  <course>0.0</course>
  <speed>0.0</speed>
  <fix>3d</fix>
</trkpt>
<trkpt lat="33.810313" lon="-118.393867">
  <ele>-0.13</ele>
  <time>2026-09-02T22:08:23Z</time>
  <course>187.58</course>
  <speed>0.03605551275463989</speed>
  <fix>3d</fix>
</trkpt>
<trkpt lat="33.810313" lon="-118.393867">
  <ele>-0.12</ele>
  <time>2026-09-02T22:08:23Z</time>
  <course>0.0</course>
  <speed>0.0</speed>
  <fix>3d</fix>
</trkpt>
<trkpt lat="33.810313" lon="-118.393867">
  <ele>-0.127</ele>
  <time>2026-09-02T22:08:23Z</time>
  <course>187.57</course>
  <speed>0.03605551275463989</speed>
  <fix>3d</fix>
</trkpt>
<trkpt lat="33.810313" lon="-118.393867">
  <ele>-0.12</ele>
  <time>2026-09-02T22:08:23Z</time>
  <course>0.0</course>
  <speed>0.0</speed>
  <fix>3d</fix>
</trkpt>
<trkpt lat="33.810313" lon="-118.393867">
  <ele>-0.125</ele>
  <time>2026-09-02T22:08:23Z</time>
  <course>187.57</course>
  <speed>0.03605551275463989</speed>
  <fix>3d</fix>
</trkpt>
<trkpt lat="33.810313" lon="-118.393867">
  <ele>-0.12</ele>
  <time>2026-09-02T22:08:23Z</time>
  <course>0.0</course>
  <speed>0.0</speed>
  <fix>3d</fix>
</trkpt>
<trkpt lat="33.810313" lon="-118.393867">
  <ele>-0.122</ele>
  <time>2026-09-02T22:08:23Z</time>
  <course>187.56</course>
  <speed>0.03605551275463989</speed>
  <fix>3d</fix>
</trkpt>
<trkpt lat="33.810313" lon="-118.393867">
  <ele>-0.12</ele>
  <time>2026-09-02T22:08:23Z</time>
  <course>0.0</course>
  <speed>0.0</speed>
  <fix>3d</fix>
</trkpt>
<trkpt lat="33.810313" lon="-118.393867">
  <ele>-0.119</ele>
  <time>2026-09-02T22:08:23Z</time>
  <course>187.55</course>
  <speed>0.03605551275463989</speed>
  <fix>3d</fix>
</trkpt>
<trkpt lat="33.810313" lon="-118.393867">
  <ele>-0.12</ele>
  <time>2026-09-02T22:08:23Z</time>
  <course>0.0</course>
  <speed>0.0</speed>
  <fix>3d</fix>
</trkpt>
<trkpt lat="33.810313" lon="-118.393867">
  <ele>-0.117</ele>
  <time>2026-09-02T22:08:23Z</time>
  <course>187.55</course>
  <speed>0.03605551275463989</speed>
  <fix>3d</fix>
</trkpt>
<trkpt lat="33.810313" lon="-118.393867">
  <ele>-0.12</ele>
  <time>2026-09-02T22:08:23Z</time>
  <course>0.0</course>
  <speed>0.0</speed>
  <fix>3d</fix>
</trkpt>
<trkpt lat="33.810313" lon="-118.393867">
  <ele>-0.117</ele>
  <time>2026-09-02T22:08:23Z</time>
  <course>187.54</course>
  <speed>0.03605551275463989</speed>
  <fix>3d</fix>
</trkpt>
<trkpt lat="33.810313" lon="-118.393867">
  <ele>-0.12</ele>
  <time>2026-09-02T22:08:23Z</time>
  <course>0.0</course>
  <speed>0.0</speed>
  <fix>3d</fix>
</trkpt>
<trkpt lat="33.810313" lon="-118.393867">
  <ele>-0.118</ele>
  <time>2026-09-02T22:08:23Z</time>
  <course>187.53</course>
  <speed>0.03605551275463989</speed>
  <fix>3d</fix>
</trkpt>
<trkpt lat="33.810313" lon="-118.393867">
  <ele>-0.12</ele>
  <time>2026-09-02T22:08:23Z</time>
  <course>0.0</course>
  <speed>0.0</speed>
  <fix>3d</fix>
</trkpt>
<trkpt lat="33.810313" lon="-118.393867">
  <ele>-0.119</ele>
  <time>2026-09-02T22:08:23Z</time>
  <course>187.53</course>
  <speed>0.03605551275463989</speed>
  <fix>3d</fix>
</trkpt>
<trkpt lat="33.810313" lon="-118.393867">
  <ele>-0.12</ele>
  <time>2026-09-02T22:08:23Z</time>
  <course>0.0</course>
  <speed>0.0</speed>
  <fix>3d</fix>
</trkpt>
<trkpt lat="33.810313" lon="-118.393867">
  <ele>-0.12</ele>
  <time>2026-09-02T22:08:23Z</time>
  <course>187.52</course>
  <speed>0.03605551275463989</speed>
  <fix>3d</fix>
</trkpt>
<trkpt lat="33.810313" lon="-118.393867">
  <ele>-0.12</ele>
  <time>2026-09-02T22:08:23Z</time>
  <course>0.0</course>
  <speed>0.0</speed>
  <fix>3d</fix>
</trkpt>
<trkpt lat="33.810313" lon="-118.393867">
  <ele>-0.121</ele>
  <time>2026-09-02T22:08:23Z</time>
  <course>187.51</course>
  <speed>0.03605551275463989</speed>
  <fix>3d</fix>
</trkpt>
<trkpt lat="33.810313" lon="-118.393867">
  <ele>-0.12</ele>
  <time>2026-09-02T22:08:23Z</time>
  <course>0.0</course>
  <speed>0.0</speed>
  <fix>3d</fix>
</trkpt>
<trkpt lat="33.810313" lon="-118.393867">
  <ele>-0.121</ele>
  <time>2026-09-02T22:08:23Z</time>
  <course>187.51</course>
  <speed>0.03605551275463989</speed>
  <fix>3d</fix>
</trkpt>
<trkpt lat="33.810313" lon="-118.393867">
  <ele>-0.12</ele>
  <time>2026-09-02T22:08:23Z</time>
  <course>0.0</course>
  <speed>0.0</speed>
  <fix>3d</fix>
</trkpt>
<trkpt lat="33.810313" lon="-118.393867">
  <ele>-0.121</ele>
  <time>2026-09-02T22:08:23Z</time>
  <course>187.5</course>
  <speed>0.03605551275463989</speed>
  <fix>3d</fix>
</trkpt>
<trkpt lat="33.810313" lon="-118.393867">
  <ele>-0.12</ele>
  <time>2026-09-02T22:08:23Z</time>
  <course>0.0</course>
  <speed>0.0</speed>
  <fix>3d</fix>
</trkpt>
<trkpt lat="33.810313" lon="-118.393867">
  <ele>-0.121</ele>
  <time>2026-09-02T22:08:23Z</time>
  <course>187.49</course>
  <speed>0.03605551275463989</speed>
  <fix>3d</fix>
</trkpt>
<trkpt lat="33.810313" lon="-118.393867">
  <ele>-0.12</ele>
  <time>2026-09-02T22:08:23Z</time>
  <course>0.0</course>
  <speed>0.0</speed>
  <fix>3d</fix>
</trkpt>
<trkpt lat="33.810313" lon="-118.393867">
  <ele>-0.121</ele>
  <time>2026-09-02T22:08:23Z</time>
  <course>187.49</course>
  <speed>0.03605551275463989</speed>
  <fix>3d</fix>
</trkpt>
<trkpt lat="33.810313" lon="-118.393867">
  <ele>-0.12</ele>
  <time>2026-09-02T22:08:23Z</time>
  <course>0.0</course>
  <speed>0.0</speed>
  <fix>3d</fix>
</trkpt>
<trkpt lat="33.810313" lon="-118.393867">
  <ele>-0.121</ele>
  <time>2026-09-02T22:08:23Z</time>
  <course>187.48</course>
  <speed>0.03605551275463989</speed>
  <fix>3d</fix>
</trkpt>
<trkpt lat="33.810313" lon="-118.393867">
  <ele>-0.12</ele>
  <time>2026-09-02T22:08:23Z</time>
  <course>0.0</course>
  <speed>0.0</speed>
  <fix>3d</fix>
</trkpt>
<trkpt lat="33.810313" lon="-118.393867">
  <ele>-0.122</ele>
  <time>2026-09-02T22:08:23Z</time>
  <course>187.47</course>
  <speed>0.03605551275463989</speed>
  <fix>3d</fix>
</trkpt>
<trkpt lat="33.810313" lon="-118.393867">
  <ele>-0.12</ele>
  <time>2026-09-02T22:08:23Z</time>
  <course>0.0</course>
  <speed>0.0</speed>
  <fix>3d</fix>
</trkpt>
<trkpt lat="33.810313" lon="-118.393867">
  <ele>-0.124</ele>
  <time>2026-09-02T22:08:23Z</time>
  <course>187.47</course>
  <speed>0.03605551275463989</speed>
  <fix>3d</fix>
</trkpt>
<trkpt lat="33.810313" lon="-118.393867">
  <ele>-0.12</ele>
  <time>2026-09-02T22:08:23Z</time>
  <course>0.0</course>
  <speed>0.0</speed>
  <fix>3d</fix>
</trkpt>
<trkpt lat="33.810313" lon="-118.393867">
  <ele>-0.127</ele>
  <time>2026-09-02T22:08:23Z</time>
  <course>187.46</course>
  <speed>0.03605551275463989</speed>
  <fix>3d</fix>
</trkpt>
<trkpt lat="33.810313" lon="-118.393867">
  <ele>-0.12</ele>
  <time>2026-09-02T22:08:23Z</time>
  <course>0.0</course>
  <speed>0.0</speed>
  <fix>3d</fix>
</trkpt>
<trkpt lat="33.810313" lon="-118.393867">
  <ele>-0.129</ele>
  <time>2026-09-02T22:08:23Z</time>
  <course>187.46</course>
  <speed>0.03605551275463989</speed>
  <fix>3d</fix>
</trkpt>
<trkpt lat="33.810313" lon="-118.393867">
  <ele>-0.12</ele>
  <time>2026-09-02T22:08:23Z</time>
  <course>0.0</course>
  <speed>0.0</speed>
  <fix>3d</fix>
</trkpt>
<trkpt lat="33.810313" lon="-118.393867">
  <ele>-0.131</ele>
  <time>2026-09-02T22:08:23Z</time>
  <course>187.45</course>
  <speed>0.03605551275463989</speed>
  <fix>3d</fix>
</trkpt>
<trkpt lat="33.810313" lon="-118.393867">
  <ele>-0.12</ele>
  <time>2026-09-02T22:08:23Z</time>
  <course>0.0</course>
  <speed>0.0</speed>
  <fix>3d</fix>
</trkpt>
<trkpt lat="33.810313" lon="-118.393867">
  <ele>-0.132</ele>
  <time>2026-09-02T22:08:23Z</time>
  <course>187.44</course>
  <speed>0.03605551275463989</speed>
  <fix>3d</fix>
</trkpt>
<trkpt lat="33.810313" lon="-118.393867">
  <ele>-0.12</ele>
  <time>2026-09-02T22:08:23Z</time>
  <course>0.0</course>
  <speed>0.0</speed>
  <fix>3d</fix>
</trkpt>
<trkpt lat="33.810313" lon="-118.393867">
  <ele>-0.132</ele>
  <time>2026-09-02T22:08:23Z</time>
  <course>187.44</course>
  <speed>0.03605551275463989</speed>
  <fix>3d</fix>
</trkpt>
<trkpt lat="33.810313" lon="-118.393867">
  <ele>-0.12</ele>
  <time>2026-09-02T22:08:23Z</time>
  <course>0.0</course>
  <speed>0.0</speed>
  <fix>3d</fix>
</trkpt>
<trkpt lat="33.810313" lon="-118.393867">
  <ele>-0.132</ele>
  <time>2026-09-02T22:08:23Z</time>
  <course>187.43</course>
  <speed>0.03605551275463989</speed>
  <fix>3d</fix>
</trkpt>
<trkpt lat="33.810313" lon="-118.393867">
  <ele>-0.12</ele>
  <time>2026-09-02T22:08:23Z</time>
  <course>0.0</course>
  <speed>0.0</speed>
  <fix>3d</fix>
</trkpt>
<trkpt lat="33.810313" lon="-118.393867">
  <ele>-0.132</ele>
  <time>2026-09-02T22:08:23Z</time>
  <course>187.42</course>
  <speed>0.03605551275463989</speed>
  <fix>3d</fix>
</trkpt>
<trkpt lat="33.810313" lon="-118.393867">
  <ele>-0.12</ele>
  <time>2026-09-02T22:08:23Z</time>
  <course>0.0</course>
  <speed>0.0</speed>
  <fix>3d</fix>
</trkpt>
<trkpt lat="33.810313" lon="-118.393867">
  <ele>-0.131</ele>
  <time>2026-09-02T22:08:23Z</time>
  <course>187.42</course>
  <speed>0.03605551275463989</speed>
  <fix>3d</fix>
</trkpt>
<trkpt lat="33.810313" lon="-118.393867">
  <ele>-0.12</ele>
  <time>2026-09-02T22:08:23Z</time>
  <course>0.0</course>
  <speed>0.0</speed>
  <fix>3d</fix>
</trkpt>
<trkpt lat="33.810313" lon="-118.393867">
  <ele>-0.131</ele>
  <time>2026-09-02T22:08:23Z</time>
  <course>187.41</course>
  <speed>0.03605551275463989</speed>
  <fix>3d</fix>
</trkpt>
<trkpt lat="33.810313" lon="-118.393867">
  <ele>-0.12</ele>
  <time>2026-09-02T22:08:23Z</time>
  <course>0.0</course>
  <speed>0.0</speed>
  <fix>3d</fix>
</trkpt>
<trkpt lat="33.810313" lon="-118.393867">
  <ele>-0.132</ele>
  <time>2026-09-02T22:08:23Z</time>
  <course>187.41</course>
  <speed>0.03605551275463989</speed>
  <fix>3d</fix>
</trkpt>
<trkpt lat="33.810313" lon="-118.393867">
  <ele>-0.12</ele>
  <time>2026-09-02T22:08:23Z</time>
  <course>0.0</course>
  <speed>0.0</speed>
  <fix>3d</fix>
</trkpt>
<trkpt lat="33.810313" lon="-118.393867">
  <ele>-0.134</ele>
  <time>2026-09-02T22:08:23Z</time>
  <course>187.4</course>
  <speed>0.03605551275463989</speed>
  <fix>3d</fix>
</trkpt>
<trkpt lat="33.810313" lon="-118.393867">
  <ele>-0.12</ele>
  <time>2026-09-02T22:08:23Z</time>
  <course>0.0</course>
  <speed>0.0</speed>
  <fix>3d</fix>
</trkpt>
<trkpt lat="33.810313" lon="-118.393867">
  <ele>-0.137</ele>
  <time>2026-09-02T22:08:23Z</time>
  <course>187.39</course>
  <speed>0.03605551275463989</speed>
  <fix>3d</fix>
</trkpt>
<trkpt lat="33.810313" lon="-118.393867">
  <ele>-0.12</ele>
  <time>2026-09-02T22:08:23Z</time>
  <course>0.0</course>
  <speed>0.0</speed>
  <fix>3d</fix>
</trkpt>
<trkpt lat="33.810313" lon="-118.393867">
  <ele>-0.139</ele>
  <time>2026-09-02T22:08:23Z</time>
  <course>187.39</course>
  <speed>0.03605551275463989</speed>
  <fix>3d</fix>
</trkpt>
<trkpt lat="33.810313" lon="-118.393867">
  <ele>-0.12</ele>
  <time>2026-09-02T22:08:23Z</time>
  <course>0.0</course>
  <speed>0.0</speed>
  <fix>3d</fix>
</trkpt>
<trkpt lat="33.810313" lon="-118.393867">
  <ele>-0.141</ele>
  <time>2026-09-02T22:08:23Z</time>
  <course>187.38</course>
  <speed>0.03605551275463989</speed>
  <fix>3d</fix>
</trkpt>
<trkpt lat="33.810313" lon="-118.393867">
  <ele>-0.12</ele>
  <time>2026-09-02T22:08:23Z</time>
  <course>0.0</course>
  <speed>0.0</speed>
  <fix>3d</fix>
</trkpt>
<trkpt lat="33.810313" lon="-118.393867">
  <ele>-0.141</ele>
  <time>2026-09-02T22:08:23Z</time>
  <course>187.38</course>
  <speed>0.03605551275463989</speed>
  <fix>3d</fix>
</trkpt>
<trkpt lat="33.810313" lon="-118.393867">
  <ele>-0.12</ele>
  <time>2026-09-02T22:08:23Z</time>
  <course>0.0</course>
  <speed>0.0</speed>
  <fix>3d</fix>
</trkpt>
<trkpt lat="33.810313" lon="-118.393867">
  <ele>-0.139</ele>
  <time>2026-09-02T22:08:23Z</time>
  <course>187.37</course>
  <speed>0.03605551275463989</speed>
  <fix>3d</fix>
</trkpt>
<trkpt lat="33.810313" lon="-118.393867">
  <ele>-0.12</ele>
  <time>2026-09-02T22:08:23Z</time>
  <course>0.0</course>
  <speed>0.0</speed>
  <fix>3d</fix>
</trkpt>
<trkpt lat="33.810313" lon="-118.393867">
  <ele>-0.136</ele>
  <time>2026-09-02T22:08:23Z</time>
  <course>187.36</course>
  <speed>0.03605551275463989</speed>
  <fix>3d</fix>
</trkpt>
<trkpt lat="33.810313" lon="-118.393867">
  <ele>-0.12</ele>
  <time>2026-09-02T22:08:23Z</time>
  <course>0.0</course>
  <speed>0.0</speed>
  <fix>3d</fix>
</trkpt>
<trkpt lat="33.810313" lon="-118.393867">
  <ele>-0.133</ele>
  <time>2026-09-02T22:08:23Z</time>
  <course>187.36</course>
  <speed>0.03605551275463989</speed>
  <fix>3d</fix>
</trkpt>
<trkpt lat="33.810313" lon="-118.393867">
  <ele>-0.12</ele>
  <time>2026-09-02T22:08:23Z</time>
  <course>0.0</course>
  <speed>0.0</speed>
  <fix>3d</fix>
</trkpt>
<trkpt lat="33.810313" lon="-118.393867">
  <ele>-0.129</ele>
  <time>2026-09-02T22:08:23Z</time>
  <course>187.35</course>
  <speed>0.03605551275463989</speed>
  <fix>3d</fix>
</trkpt>
<trkpt lat="33.810313" lon="-118.393867">
  <ele>-0.12</ele>
  <time>2026-09-02T22:08:23Z</time>
  <course>0.0</course>
  <speed>0.0</speed>
  <fix>3d</fix>
</trkpt>
<trkpt lat="33.810313" lon="-118.393867">
  <ele>-0.127</ele>
  <time>2026-09-02T22:08:23Z</time>
  <course>187.35</course>
  <speed>0.03605551275463989</speed>
  <fix>3d</fix>
</trkpt>
<trkpt lat="33.810313" lon="-118.393867">
  <ele>-0.12</ele>
  <time>2026-09-02T22:08:23Z</time>
  <course>0.0</course>
  <speed>0.0</speed>
  <fix>3d</fix>
</trkpt>
<trkpt lat="33.810313" lon="-118.393867">
  <ele>-0.127</ele>
  <time>2026-09-02T22:08:23Z</time>
  <course>187.34</course>
  <speed>0.03605551275463989</speed>
  <fix>3d</fix>
</trkpt>
<trkpt lat="33.810313" lon="-118.393867">
  <ele>-0.12</ele>
  <time>2026-09-02T22:08:23Z</time>
  <course>0.0</course>
  <speed>0.0</speed>
  <fix>3d</fix>
</trkpt>
<trkpt lat="33.810313" lon="-118.393867">
  <ele>-0.126</ele>
  <time>2026-09-02T22:08:23Z</time>
  <course>187.34</course>
  <speed>0.03605551275463989</speed>
  <fix>3d</fix>
</trkpt>
<trkpt lat="33.810313" lon="-118.393867">
  <ele>-0.12</ele>
  <time>2026-09-02T22:08:23Z</time>
  <course>0.0</course>
  <speed>0.0</speed>
  <fix>3d</fix>
</trkpt>
<trkpt lat="33.810313" lon="-118.393867">
  <ele>-0.126</ele>
  <time>2026-09-02T22:08:23Z</time>
  <course>187.33</course>
  <speed>0.03605551275463989</speed>
  <fix>3d</fix>
</trkpt>
<trkpt lat="33.810313" lon="-118.393867">
  <ele>-0.12</ele>
  <time>2026-09-02T22:08:23Z</time>
  <course>0.0</course>
  <speed>0.0</speed>
  <fix>3d</fix>
</trkpt>
<trkpt lat="33.810313" lon="-118.393867">
  <ele>-0.126</ele>
  <time>2026-09-02T22:08:23Z</time>
  <course>187.32</course>
  <speed>0.03605551275463989</speed>
  <fix>3d</fix>
</trkpt>
<trkpt lat="33.810313" lon="-118.393867">
  <ele>-0.12</ele>
  <time>2026-09-02T22:08:23Z</time>
  <course>0.0</course>
  <speed>0.0</speed>
  <fix>3d</fix>
</trkpt>
<trkpt lat="33.810313" lon="-118.393867">
  <ele>-0.126</ele>
  <time>2026-09-02T22:08:23Z</time>
  <course>187.32</course>
  <speed>0.03605551275463989</speed>
  <fix>3d</fix>
</trkpt>
<trkpt lat="33.810313" lon="-118.393867">
  <ele>-0.12</ele>
  <time>2026-09-02T22:08:23Z</time>
  <course>0.0</course>
  <speed>0.0</speed>
  <fix>3d</fix>
</trkpt>
<trkpt lat="33.810313" lon="-118.393867">
  <ele>-0.125</ele>
  <time>2026-09-02T22:08:23Z</time>
  <course>187.31</course>
  <speed>0.03605551275463989</speed>
  <fix>3d</fix>
</trkpt>
<trkpt lat="33.810313" lon="-118.393867">
  <ele>-0.12</ele>
  <time>2026-09-02T22:08:23Z</time>
  <course>0.0</course>
  <speed>0.0</speed>
  <fix>3d</fix>
</trkpt>
<trkpt lat="33.810313" lon="-118.393867">
  <ele>-0.124</ele>
  <time>2026-09-02T22:08:23Z</time>
  <course>187.31</course>
  <speed>0.03605551275463989</speed>
  <fix>3d</fix>
</trkpt>
<trkpt lat="33.810313" lon="-118.393867">
  <ele>-0.12</ele>
  <time>2026-09-02T22:08:23Z</time>
  <course>0.0</course>
  <speed>0.0</speed>
  <fix>3d</fix>
</trkpt>
<trkpt lat="33.810313" lon="-118.393867">
  <ele>-0.122</ele>
  <time>2026-09-02T22:08:23Z</time>
  <course>187.3</course>
  <speed>0.03605551275463989</speed>
  <fix>3d</fix>
</trkpt>
<trkpt lat="33.810313" lon="-118.393867">
  <ele>-0.12</ele>
  <time>2026-09-02T22:08:23Z</time>
  <course>0.0</course>
  <speed>0.0</speed>
  <fix>3d</fix>
</trkpt>
<trkpt lat="33.810313" lon="-118.393867">
  <ele>-0.121</ele>
  <time>2026-09-02T22:08:23Z</time>
  <course>187.3</course>
  <speed>0.03605551275463989</speed>
  <fix>3d</fix>
</trkpt>
<trkpt lat="33.810313" lon="-118.393867">
  <ele>-0.12</ele>
  <time>2026-09-02T22:08:23Z</time>
  <course>0.0</course>
  <speed>0.0</speed>
  <fix>3d</fix>
</trkpt>
<trkpt lat="33.810313" lon="-118.393867">
  <ele>-0.122</ele>
  <time>2026-09-02T22:08:23Z</time>
  <course>187.29</course>
  <speed>0.03605551275463989</speed>
  <fix>3d</fix>
</trkpt>
<trkpt lat="33.810313" lon="-118.393867">
  <ele>-0.12</ele>
  <time>2026-09-02T22:08:23Z</time>
  <course>0.0</course>
  <speed>0.0</speed>
  <fix>3d</fix>
</trkpt>
<trkpt lat="33.810313" lon="-118.393867">
  <ele>-0.124</ele>
  <time>2026-09-02T22:08:23Z</time>
  <course>187.28</course>
  <speed>0.03605551275463989</speed>
  <fix>3d</fix>
</trkpt>
<trkpt lat="33.810313" lon="-118.393867">
  <ele>-0.12</ele>
  <time>2026-09-02T22:08:23Z</time>
  <course>0.0</course>
  <speed>0.0</speed>
  <fix>3d</fix>
</trkpt>
<trkpt lat="33.810313" lon="-118.393867">
  <ele>-0.127</ele>
  <time>2026-09-02T22:08:23Z</time>
  <course>187.28</course>
  <speed>0.03605551275463989</speed>
  <fix>3d</fix>
</trkpt>
<trkpt lat="33.810313" lon="-118.393867">
  <ele>-0.12</ele>
  <time>2026-09-02T22:08:23Z</time>
  <course>0.0</course>
  <speed>0.0</speed>
  <fix>3d</fix>
</trkpt>
<trkpt lat="33.810313" lon="-118.393867">
  <ele>-0.13</ele>
  <time>2026-09-02T22:08:23Z</time>
  <course>187.27</course>
  <speed>0.03605551275463989</speed>
  <fix>3d</fix>
</trkpt>
<trkpt lat="33.810313" lon="-118.393867">
  <ele>-0.12</ele>
  <time>2026-09-02T22:08:23Z</time>
  <course>0.0</course>
  <speed>0.0</speed>
  <fix>3d</fix>
</trkpt>
<trkpt lat="33.810313" lon="-118.393867">
  <ele>-0.132</ele>
  <time>2026-09-02T22:08:23Z</time>
  <course>187.27</course>
  <speed>0.03605551275463989</speed>
  <fix>3d</fix>
</trkpt>
<trkpt lat="33.810313" lon="-118.393867">
  <ele>-0.12</ele>
  <time>2026-09-02T22:08:23Z</time>
  <course>0.0</course>
  <speed>0.0</speed>
  <fix>3d</fix>
</trkpt>
<trkpt lat="33.810313" lon="-118.393867">
  <ele>-0.134</ele>
  <time>2026-09-02T22:08:23Z</time>
  <course>187.26</course>
  <speed>0.03605551275463989</speed>
  <fix>3d</fix>
</trkpt>
<trkpt lat="33.810313" lon="-118.393867">
  <ele>-0.12</ele>
  <time>2026-09-02T22:08:23Z</time>
  <course>0.0</course>
  <speed>0.0</speed>
  <fix>3d</fix>
</trkpt>
<trkpt lat="33.810313" lon="-118.393867">
  <ele>-0.136</ele>
  <time>2026-09-02T22:08:23Z</time>
  <course>187.26</course>
  <speed>0.03605551275463989</speed>
  <fix>3d</fix>
</trkpt>
<trkpt lat="33.810313" lon="-118.393867">
  <ele>-0.12</ele>
  <time>2026-09-02T22:08:23Z</time>
  <course>0.0</course>
  <speed>0.0</speed>
  <fix>3d</fix>
</trkpt>
<trkpt lat="33.810313" lon="-118.393867">
  <ele>-0.136</ele>
  <time>2026-09-02T22:08:23Z</time>
  <course>187.25</course>
  <speed>0.03605551275463989</speed>
  <fix>3d</fix>
</trkpt>
<trkpt lat="33.810313" lon="-118.393867">
  <ele>-0.12</ele>
  <time>2026-09-02T22:08:23Z</time>
  <course>0.0</course>
  <speed>0.0</speed>
  <fix>3d</fix>
</trkpt>
<trkpt lat="33.810313" lon="-118.393867">
  <ele>-0.135</ele>
  <time>2026-09-02T22:08:23Z</time>
  <course>187.25</course>
  <speed>0.03605551275463989</speed>
  <fix>3d</fix>
</trkpt>
<trkpt lat="33.810313" lon="-118.393867">
  <ele>-0.12</ele>
  <time>2026-09-02T22:08:23Z</time>
  <course>0.0</course>
  <speed>0.0</speed>
  <fix>3d</fix>
</trkpt>
<trkpt lat="33.810313" lon="-118.393867">
  <ele>-0.134</ele>
  <time>2026-09-02T22:08:23Z</time>
  <course>187.24</course>
  <speed>0.03605551275463989</speed>
  <fix>3d</fix>
</trkpt>
<trkpt lat="33.810313" lon="-118.393867">
  <ele>-0.12</ele>
  <time>2026-09-02T22:08:23Z</time>
  <course>0.0</course>
  <speed>0.0</speed>
  <fix>3d</fix>
</trkpt>
<trkpt lat="33.810313" lon="-118.393867">
  <ele>-0.132</ele>
  <time>2026-09-02T22:08:23Z</time>
  <course>187.24</course>
  <speed>0.03605551275463989</speed>
  <fix>3d</fix>
</trkpt>
<trkpt lat="33.810313" lon="-118.393867">
  <ele>-0.12</ele>
  <time>2026-09-02T22:08:23Z</time>
  <course>0.0</course>
  <speed>0.0</speed>
  <fix>3d</fix>
</trkpt>
<trkpt lat="33.810313" lon="-118.393867">
  <ele>-0.131</ele>
  <time>2026-09-02T22:08:23Z</time>
  <course>187.23</course>
  <speed>0.03605551275463989</speed>
  <fix>3d</fix>
</trkpt>
<trkpt lat="33.810313" lon="-118.393867">
  <ele>-0.12</ele>
  <time>2026-09-02T22:08:23Z</time>
  <course>0.0</course>
  <speed>0.0</speed>
  <fix>3d</fix>
</trkpt>
<trkpt lat="33.810313" lon="-118.393867">
  <ele>-0.131</ele>
  <time>2026-09-02T22:08:23Z</time>
  <course>187.23</course>
  <speed>0.03605551275463989</speed>
  <fix>3d</fix>
</trkpt>
<trkpt lat="33.810313" lon="-118.393867">
  <ele>-0.12</ele>
  <time>2026-09-02T22:08:23Z</time>
  <course>0.0</course>
  <speed>0.0</speed>
  <fix>3d</fix>
</trkpt>
<trkpt lat="33.810313" lon="-118.393867">
  <ele>-0.132</ele>
  <time>2026-09-02T22:08:23Z</time>
  <course>187.22</course>
  <speed>0.03605551275463989</speed>
  <fix>3d</fix>
</trkpt>
<trkpt lat="33.810313" lon="-118.393867">
  <ele>-0.12</ele>
  <time>2026-09-02T22:08:23Z</time>
  <course>0.0</course>
  <speed>0.0</speed>
  <fix>3d</fix>
</trkpt>
<trkpt lat="33.810313" lon="-118.393867">
  <ele>-0.132</ele>
  <time>2026-09-02T22:08:23Z</time>
  <course>187.21</course>
  <speed>0.03605551275463989</speed>
  <fix>3d</fix>
</trkpt>
<trkpt lat="33.810313" lon="-118.393867">
  <ele>-0.12</ele>
  <time>2026-09-02T22:08:23Z</time>
  <course>0.0</course>
  <speed>0.0</speed>
  <fix>3d</fix>
</trkpt>
<trkpt lat="33.810313" lon="-118.393867">
  <ele>-0.133</ele>
  <time>2026-09-02T22:08:23Z</time>
  <course>187.21</course>
  <speed>0.03605551275463989</speed>
  <fix>3d</fix>
</trkpt>
<trkpt lat="33.810313" lon="-118.393867">
  <ele>-0.12</ele>
  <time>2026-09-02T22:08:23Z</time>
  <course>0.0</course>
  <speed>0.0</speed>
  <fix>3d</fix>
</trkpt>
<trkpt lat="33.810313" lon="-118.393867">
  <ele>-0.132</ele>
  <time>2026-09-02T22:08:23Z</time>
  <course>187.2</course>
  <speed>0.03605551275463989</speed>
  <fix>3d</fix>
</trkpt>
<trkpt lat="33.810313" lon="-118.393867">
  <ele>-0.12</ele>
  <time>2026-09-02T22:08:23Z</time>
  <course>0.0</course>
  <speed>0.0</speed>
  <fix>3d</fix>
</trkpt>
<trkpt lat="33.810313" lon="-118.393867">
  <ele>-0.131</ele>
  <time>2026-09-02T22:08:23Z</time>
  <course>187.2</course>
  <speed>0.03605551275463989</speed>
  <fix>3d</fix>
</trkpt>
<trkpt lat="33.810313" lon="-118.393867">
  <ele>-0.12</ele>
  <time>2026-09-02T22:08:23Z</time>
  <course>0.0</course>
  <speed>0.0</speed>
  <fix>3d</fix>
</trkpt>
<trkpt lat="33.810313" lon="-118.393867">
  <ele>-0.129</ele>
  <time>2026-09-02T22:08:23Z</time>
  <course>187.19</course>
  <speed>0.03605551275463989</speed>
  <fix>3d</fix>
</trkpt>
<trkpt lat="33.810313" lon="-118.393867">
  <ele>-0.12</ele>
  <time>2026-09-02T22:08:23Z</time>
  <course>0.0</course>
  <speed>0.0</speed>
  <fix>3d</fix>
</trkpt>
<trkpt lat="33.810313" lon="-118.393867">
  <ele>-0.126</ele>
  <time>2026-09-02T22:08:23Z</time>
  <course>187.19</course>
  <speed>0.03605551275463989</speed>
  <fix>3d</fix>
</trkpt>
<trkpt lat="33.810313" lon="-118.393867">
  <ele>-0.12</ele>
  <time>2026-09-02T22:08:23Z</time>
  <course>0.0</course>
  <speed>0.0</speed>
  <fix>3d</fix>
</trkpt>
<trkpt lat="33.810313" lon="-118.393867">
  <ele>-0.124</ele>
  <time>2026-09-02T22:08:23Z</time>
  <course>187.18</course>
  <speed>0.03605551275463989</speed>
  <fix>3d</fix>
</trkpt>
<trkpt lat="33.810313" lon="-118.393867">
  <ele>-0.12</ele>
  <time>2026-09-02T22:08:23Z</time>
  <course>0.0</course>
  <speed>0.0</speed>
  <fix>3d</fix>
</trkpt>
<trkpt lat="33.810313" lon="-118.393867">
  <ele>-0.123</ele>
  <time>2026-09-02T22:08:23Z</time>
  <course>187.18</course>
  <speed>0.03605551275463989</speed>
  <fix>3d</fix>
</trkpt>
<trkpt lat="33.810313" lon="-118.393867">
  <ele>-0.12</ele>
  <time>2026-09-02T22:08:23Z</time>
  <course>0.0</course>
  <speed>0.0</speed>
  <fix>3d</fix>
</trkpt>
<trkpt lat="33.810313" lon="-118.393867">
  <ele>-0.123</ele>
  <time>2026-09-02T22:08:23Z</time>
  <course>187.17</course>
  <speed>0.03605551275463989</speed>
  <fix>3d</fix>
</trkpt>
<trkpt lat="33.810313" lon="-118.393867">
  <ele>-0.12</ele>
  <time>2026-09-02T22:08:23Z</time>
  <course>0.0</course>
  <speed>0.0</speed>
  <fix>3d</fix>
</trkpt>
<trkpt lat="33.810313" lon="-118.393867">
  <ele>-0.122</ele>
  <time>2026-09-02T22:08:23Z</time>
  <course>187.17</course>
  <speed>0.0</speed>
  <fix>3d</fix>
</trkpt>
<trkpt lat="33.810313" lon="-118.393867">
  <ele>-0.12</ele>
  <time>2026-09-02T22:08:23Z</time>
  <course>0.0</course>
  <speed>0.0</speed>
  <fix>3d</fix>
</trkpt>
<trkpt lat="33.810313" lon="-118.393867">
  <ele>-0.121</ele>
  <time>2026-09-02T22:08:23Z</time>
  <course>187.16</course>
  <speed>0.0</speed>
  <fix>3d</fix>
</trkpt>
<trkpt lat="33.810313" lon="-118.393867">
  <ele>-0.12</ele>
  <time>2026-09-02T22:08:23Z</time>
  <course>0.0</course>
  <speed>0.0</speed>
  <fix>3d</fix>
</trkpt>
<trkpt lat="33.810313" lon="-118.393867">
  <ele>-0.121</ele>
  <time>2026-09-02T22:08:23Z</time>
  <course>187.16</course>
  <speed>0.0</speed>
  <fix>3d</fix>
</trkpt>
<trkpt lat="33.810313" lon="-118.393867">
  <ele>-0.12</ele>
  <time>2026-09-02T22:08:23Z</time>
  <course>0.0</course>
  <speed>0.0</speed>
  <fix>3d</fix>
</trkpt>
<trkpt lat="33.810313" lon="-118.393867">
  <ele>-0.119</ele>
  <time>2026-09-02T22:08:23Z</time>
  <course>187.15</course>
  <speed>0.0</speed>
  <fix>3d</fix>
</trkpt>
<trkpt lat="33.810313" lon="-118.393867">
  <ele>-0.12</ele>
  <time>2026-09-02T22:08:23Z</time>
  <course>0.0</course>
  <speed>0.0</speed>
  <fix>3d</fix>
</trkpt>
<trkpt lat="33.810313" lon="-118.393867">
  <ele>-0.116</ele>
  <time>2026-09-02T22:08:23Z</time>
  <course>187.15</course>
  <speed>0.0</speed>
  <fix>3d</fix>
</trkpt>
<trkpt lat="33.810313" lon="-118.393867">
  <ele>-0.12</ele>
  <time>2026-09-02T22:08:23Z</time>
  <course>0.0</course>
  <speed>0.0</speed>
  <fix>3d</fix>
</trkpt>
<trkpt lat="33.810313" lon="-118.393867">
  <ele>-0.114</ele>
  <time>2026-09-02T22:08:23Z</time>
  <course>187.14</course>
  <speed>0.0</speed>
  <fix>3d</fix>
</trkpt>
<trkpt lat="33.810313" lon="-118.393867">
  <ele>-0.12</ele>
  <time>2026-09-02T22:08:23Z</time>
  <course>0.0</course>
  <speed>0.0</speed>
  <fix>3d</fix>
</trkpt>
<trkpt lat="33.810313" lon="-118.393867">
  <ele>-0.113</ele>
  <time>2026-09-02T22:08:23Z</time>
  <course>187.14</course>
  <speed>0.0</speed>
  <fix>3d</fix>
</trkpt>
<trkpt lat="33.810313" lon="-118.393867">
  <ele>-0.12</ele>
  <time>2026-09-02T22:08:23Z</time>
  <course>0.0</course>
  <speed>0.0</speed>
  <fix>3d</fix>
</trkpt>
<trkpt lat="33.810313" lon="-118.393867">
  <ele>-0.112</ele>
  <time>2026-09-02T22:08:23Z</time>
  <course>187.13</course>
  <speed>0.0</speed>
  <fix>3d</fix>
</trkpt>
<trkpt lat="33.810313" lon="-118.393867">
  <ele>-0.12</ele>
  <time>2026-09-02T22:08:23Z</time>
  <course>0.0</course>
  <speed>0.0</speed>
  <fix>3d</fix>
</trkpt>
<trkpt lat="33.810313" lon="-118.393867">
  <ele>-0.113</ele>
  <time>2026-09-02T22:08:23Z</time>
  <course>187.13</course>
  <speed>0.0</speed>
  <fix>3d</fix>
</trkpt>
<trkpt lat="33.810313" lon="-118.393867">
  <ele>-0.12</ele>
  <time>2026-09-02T22:08:23Z</time>
  <course>0.0</course>
  <speed>0.0</speed>
  <fix>3d</fix>
</trkpt>
<trkpt lat="33.810313" lon="-118.393867">
  <ele>-0.114</ele>
  <time>2026-09-02T22:08:23Z</time>
  <course>187.12</course>
  <speed>0.0</speed>
  <fix>3d</fix>
</trkpt>
<trkpt lat="33.810313" lon="-118.393867">
  <ele>-0.12</ele>
  <time>2026-09-02T22:08:23Z</time>
  <course>0.0</course>
  <speed>0.0</speed>
  <fix>3d</fix>
</trkpt>
<trkpt lat="33.810313" lon="-118.393867">
  <ele>-0.116</ele>
  <time>2026-09-02T22:08:23Z</time>
  <course>187.12</course>
  <speed>0.0</speed>
  <fix>3d</fix>
</trkpt>
<trkpt lat="33.810313" lon="-118.393867">
  <ele>-0.12</ele>
  <time>2026-09-02T22:08:23Z</time>
  <course>0.0</course>
  <speed>0.0</speed>
  <fix>3d</fix>
</trkpt>
<trkpt lat="33.810313" lon="-118.393867">
  <ele>-0.119</ele>
  <time>2026-09-02T22:08:23Z</time>
  <course>187.11</course>
  <speed>0.01</speed>
  <fix>3d</fix>
</trkpt>
<trkpt lat="33.810313" lon="-118.393867">
  <ele>-0.12</ele>
  <time>2026-09-02T22:08:23Z</time>
  <course>0.0</course>
  <speed>0.0</speed>
  <fix>3d</fix>
</trkpt>
<trkpt lat="33.810313" lon="-118.393867">
  <ele>-0.12</ele>
  <time>2026-09-02T22:08:23Z</time>
  <course>187.11</course>
  <speed>0.01</speed>
  <fix>3d</fix>
</trkpt>
<trkpt lat="33.810313" lon="-118.393867">
  <ele>-0.12</ele>
  <time>2026-09-02T22:08:23Z</time>
  <course>0.0</course>
  <speed>0.0</speed>
  <fix>3d</fix>
</trkpt>
<trkpt lat="33.810313" lon="-118.393867">
  <ele>-0.121</ele>
  <time>2026-09-02T22:08:23Z</time>
  <course>187.1</course>
  <speed>0.01</speed>
  <fix>3d</fix>
</trkpt>
<trkpt lat="33.810313" lon="-118.393867">
  <ele>-0.12</ele>
  <time>2026-09-02T22:08:23Z</time>
  <course>0.0</course>
  <speed>0.0</speed>
  <fix>3d</fix>
</trkpt>
<trkpt lat="33.810313" lon="-118.393867">
  <ele>-0.122</ele>
  <time>2026-09-02T22:08:23Z</time>
  <course>187.1</course>
  <speed>0.01414213562373095</speed>
  <fix>3d</fix>
</trkpt>
<trkpt lat="33.810313" lon="-118.393867">
  <ele>-0.12</ele>
  <time>2026-09-02T22:08:23Z</time>
  <course>0.0</course>
  <speed>0.0</speed>
  <fix>3d</fix>
</trkpt>
<trkpt lat="33.810313" lon="-118.393867">
  <ele>-0.122</ele>
  <time>2026-09-02T22:08:23Z</time>
  <course>187.1</course>
  <speed>0.01414213562373095</speed>
  <fix>3d</fix>
</trkpt>
<trkpt lat="33.810313" lon="-118.393867">
  <ele>-0.12</ele>
  <time>2026-09-02T22:08:23Z</time>
  <course>0.0</course>
  <speed>0.0</speed>
  <fix>3d</fix>
</trkpt>
<trkpt lat="33.810313" lon="-118.393867">
  <ele>-0.123</ele>
  <time>2026-09-02T22:08:23Z</time>
  <course>187.09</course>
  <speed>0.01414213562373095</speed>
  <fix>3d</fix>
</trkpt>
<trkpt lat="33.810313" lon="-118.393867">
  <ele>-0.12</ele>
  <time>2026-09-02T22:08:23Z</time>
  <course>0.0</course>
  <speed>0.0</speed>
  <fix>3d</fix>
</trkpt>
<trkpt lat="33.810313" lon="-118.393867">
  <ele>-0.124</ele>
  <time>2026-09-02T22:08:23Z</time>
  <course>187.09</course>
  <speed>0.01414213562373095</speed>
  <fix>3d</fix>
</trkpt>
<trkpt lat="33.810313" lon="-118.393867">
  <ele>-0.12</ele>
  <time>2026-09-02T22:08:23Z</time>
  <course>0.0</course>
  <speed>0.0</speed>
  <fix>3d</fix>
</trkpt>
<trkpt lat="33.810313" lon="-118.393867">
  <ele>-0.126</ele>
  <time>2026-09-02T22:08:23Z</time>
  <course>187.08</course>
  <speed>0.01414213562373095</speed>
  <fix>3d</fix>
</trkpt>
<trkpt lat="33.810313" lon="-118.393867">
  <ele>-0.12</ele>
  <time>2026-09-02T22:08:23Z</time>
  <course>0.0</course>
  <speed>0.0</speed>
  <fix>3d</fix>
</trkpt>
<trkpt lat="33.810313" lon="-118.393867">
  <ele>-0.128</ele>
  <time>2026-09-02T22:08:23Z</time>
  <course>187.08</course>
  <speed>0.01414213562373095</speed>
  <fix>3d</fix>
</trkpt>
<trkpt lat="33.810313" lon="-118.393867">
  <ele>-0.12</ele>
  <time>2026-09-02T22:08:23Z</time>
  <course>0.0</course>
  <speed>0.0</speed>
  <fix>3d</fix>
</trkpt>
<trkpt lat="33.810313" lon="-118.393867">
  <ele>-0.13</ele>
  <time>2026-09-02T22:08:23Z</time>
  <course>187.07</course>
  <speed>0.01414213562373095</speed>
  <fix>3d</fix>
</trkpt>
<trkpt lat="33.810313" lon="-118.393867">
  <ele>-0.12</ele>
  <time>2026-09-02T22:08:23Z</time>
  <course>0.0</course>
  <speed>0.0</speed>
  <fix>3d</fix>
</trkpt>
<trkpt lat="33.810313" lon="-118.393867">
  <ele>-0.134</ele>
  <time>2026-09-02T22:08:23Z</time>
  <course>187.07</course>
  <speed>0.022360679774997897</speed>
  <fix>3d</fix>
</trkpt>
<trkpt lat="33.810313" lon="-118.393867">
  <ele>-0.12</ele>
  <time>2026-09-02T22:08:23Z</time>
  <course>0.0</course>
  <speed>0.0</speed>
  <fix>3d</fix>
</trkpt>
<trkpt lat="33.810313" lon="-118.393867">
  <ele>-0.136</ele>
  <time>2026-09-02T22:08:23Z</time>
  <course>187.06</course>
  <speed>0.022360679774997897</speed>
  <fix>3d</fix>
</trkpt>
<trkpt lat="33.810313" lon="-118.393867">
  <ele>-0.12</ele>
  <time>2026-09-02T22:08:23Z</time>
  <course>0.0</course>
  <speed>0.0</speed>
  <fix>3d</fix>
</trkpt>
<trkpt lat="33.810313" lon="-118.393867">
  <ele>-0.137</ele>
  <time>2026-09-02T22:08:23Z</time>
  <course>187.06</course>
  <speed>0.022360679774997897</speed>
  <fix>3d</fix>
</trkpt>
<trkpt lat="33.810313" lon="-118.393867">
  <ele>-0.12</ele>
  <time>2026-09-02T22:08:23Z</time>
  <course>0.0</course>
  <speed>0.0</speed>
  <fix>3d</fix>
</trkpt>
<trkpt lat="33.810313" lon="-118.393867">
  <ele>-0.137</ele>
  <time>2026-09-02T22:08:23Z</time>
  <course>187.05</course>
  <speed>0.022360679774997897</speed>
  <fix>3d</fix>
</trkpt>
<trkpt lat="33.810313" lon="-118.393867">
  <ele>-0.12</ele>
  <time>2026-09-02T22:08:23Z</time>
  <course>0.0</course>
  <speed>0.0</speed>
  <fix>3d</fix>
</trkpt>
<trkpt lat="33.810313" lon="-118.393867">
  <ele>-0.136</ele>
  <time>2026-09-02T22:08:23Z</time>
  <course>187.05</course>
  <speed>0.022360679774997897</speed>
  <fix>3d</fix>
</trkpt>
<trkpt lat="33.810313" lon="-118.393867">
  <ele>-0.12</ele>
  <time>2026-09-02T22:08:23Z</time>
  <course>0.0</course>
  <speed>0.0</speed>
  <fix>3d</fix>
</trkpt>
<trkpt lat="33.810313" lon="-118.393867">
  <ele>-0.133</ele>
  <time>2026-09-02T22:08:23Z</time>
  <course>187.04</course>
  <speed>0.022360679774997897</speed>
  <fix>3d</fix>
</trkpt>
<trkpt lat="33.810313" lon="-118.393867">
  <ele>-0.12</ele>
  <time>2026-09-02T22:08:23Z</time>
  <course>0.0</course>
  <speed>0.0</speed>
  <fix>3d</fix>
</trkpt>
<trkpt lat="33.8103131" lon="-118.3938671">
  <ele>-0.131</ele>
  <time>2026-09-02T22:08:23Z</time>
  <course>187.04</course>
  <speed>0.022360679774997897</speed>
  <fix>3d</fix>
</trkpt>
<trkpt lat="33.810313" lon="-118.393867">
  <ele>-0.12</ele>
  <time>2026-09-02T22:08:23Z</time>
  <course>0.0</course>
  <speed>0.0</speed>
  <fix>3d</fix>
</trkpt>
<trkpt lat="33.8103131" lon="-118.3938671">
  <ele>-0.129</ele>
  <time>2026-09-02T22:08:23Z</time>
  <course>187.03</course>
  <speed>0.0282842712474619</speed>
  <fix>3d</fix>
</trkpt>
<trkpt lat="33.810313" lon="-118.393867">
  <ele>-0.12</ele>
  <time>2026-09-02T22:08:23Z</time>
  <course>0.0</course>
  <speed>0.0</speed>
  <fix>3d</fix>
</trkpt>
<trkpt lat="33.8103131" lon="-118.3938671">
  <ele>-0.129</ele>
  <time>2026-09-02T22:08:23Z</time>
  <course>187.03</course>
  <speed>0.0282842712474619</speed>
  <fix>3d</fix>
</trkpt>
<trkpt lat="33.810313" lon="-118.393867">
  <ele>-0.12</ele>
  <time>2026-09-02T22:08:23Z</time>
  <course>0.0</course>
  <speed>0.0</speed>
  <fix>3d</fix>
</trkpt>
<trkpt lat="33.8103131" lon="-118.3938671">
  <ele>-0.128</ele>
  <time>2026-09-02T22:08:23Z</time>
  <course>187.02</course>
  <speed>0.0282842712474619</speed>
  <fix>3d</fix>
</trkpt>
<trkpt lat="33.810313" lon="-118.393867">
  <ele>-0.12</ele>
  <time>2026-09-02T22:08:23Z</time>
  <course>0.0</course>
  <speed>0.0</speed>
  <fix>3d</fix>
</trkpt>
<trkpt lat="33.8103131" lon="-118.3938671">
  <ele>-0.129</ele>
  <time>2026-09-02T22:08:23Z</time>
  <course>187.02</course>
  <speed>0.0282842712474619</speed>
  <fix>3d</fix>
</trkpt>
<trkpt lat="33.810313" lon="-118.393867">
  <ele>-0.12</ele>
  <time>2026-09-02T22:08:23Z</time>
  <course>0.0</course>
  <speed>0.0</speed>
  <fix>3d</fix>
</trkpt>
<trkpt lat="33.8103131" lon="-118.3938671">
  <ele>-0.13</ele>
  <time>2026-09-02T22:08:23Z</time>
  <course>187.01</course>
  <speed>0.0282842712474619</speed>
  <fix>3d</fix>
</trkpt>
<trkpt lat="33.810313" lon="-118.393867">
  <ele>-0.12</ele>
  <time>2026-09-02T22:08:23Z</time>
  <course>0.0</course>
  <speed>0.0</speed>
  <fix>3d</fix>
</trkpt>
<trkpt lat="33.8103131" lon="-118.3938671">
  <ele>-0.131</ele>
  <time>2026-09-02T22:08:23Z</time>
  <course>187.01</course>
  <speed>0.0282842712474619</speed>
  <fix>3d</fix>
</trkpt>
<trkpt lat="33.810313" lon="-118.393867">
  <ele>-0.12</ele>
  <time>2026-09-02T22:08:23Z</time>
  <course>0.0</course>
  <speed>0.0</speed>
  <fix>3d</fix>
</trkpt>
<trkpt lat="33.8103131" lon="-118.3938671">
  <ele>-0.13</ele>
  <time>2026-09-02T22:08:23Z</time>
  <course>187.0</course>
  <speed>0.0282842712474619</speed>
  <fix>3d</fix>
</trkpt>
<trkpt lat="33.810313" lon="-118.393867">
  <ele>-0.12</ele>
  <time>2026-09-02T22:08:23Z</time>
  <course>0.0</course>
  <speed>0.0</speed>
  <fix>3d</fix>
</trkpt>
<trkpt lat="33.8103131" lon="-118.3938671">
  <ele>-0.13</ele>
  <time>2026-09-02T22:08:23Z</time>
  <course>187.0</course>
  <speed>0.0282842712474619</speed>
  <fix>3d</fix>
</trkpt>
<trkpt lat="33.810313" lon="-118.393867">
  <ele>-0.12</ele>
  <time>2026-09-02T22:08:23Z</time>
  <course>0.0</course>
  <speed>0.0</speed>
  <fix>3d</fix>
</trkpt>
<trkpt lat="33.8103131" lon="-118.3938671">
  <ele>-0.129</ele>
  <time>2026-09-02T22:08:23Z</time>
  <course>187.0</course>
  <speed>0.0282842712474619</speed>
  <fix>3d</fix>
</trkpt>
<trkpt lat="33.810313" lon="-118.393867">
  <ele>-0.12</ele>
  <time>2026-09-02T22:08:23Z</time>
  <course>0.0</course>
  <speed>0.0</speed>
  <fix>3d</fix>
</trkpt>
<trkpt lat="33.8103131" lon="-118.3938671">
  <ele>-0.128</ele>
  <time>2026-09-02T22:08:23Z</time>
  <course>186.99</course>
  <speed>0.03605551275463989</speed>
  <fix>3d</fix>
</trkpt>
<trkpt lat="33.810313" lon="-118.393867">
  <ele>-0.12</ele>
  <time>2026-09-02T22:08:23Z</time>
  <course>0.0</course>
  <speed>0.0</speed>
  <fix>3d</fix>
</trkpt>
<trkpt lat="33.8103131" lon="-118.3938671">
  <ele>-0.128</ele>
  <time>2026-09-02T22:08:23Z</time>
  <course>186.99</course>
  <speed>0.03605551275463989</speed>
  <fix>3d</fix>
</trkpt>
<trkpt lat="33.810313" lon="-118.393867">
  <ele>-0.12</ele>
  <time>2026-09-02T22:08:23Z</time>
  <course>0.0</course>
  <speed>0.0</speed>
  <fix>3d</fix>
</trkpt>
<trkpt lat="33.8103131" lon="-118.3938671">
  <ele>-0.128</ele>
  <time>2026-09-02T22:08:23Z</time>
  <course>186.98</course>
  <speed>0.03605551275463989</speed>
  <fix>3d</fix>
</trkpt>
<trkpt lat="33.810313" lon="-118.393867">
  <ele>-0.12</ele>
  <time>2026-09-02T22:08:23Z</time>
  <course>0.0</course>
  <speed>0.0</speed>
  <fix>3d</fix>
</trkpt>
<trkpt lat="33.8103131" lon="-118.3938671">
  <ele>-0.129</ele>
  <time>2026-09-02T22:08:23Z</time>
  <course>186.98</course>
  <speed>0.03605551275463989</speed>
  <fix>3d</fix>
</trkpt>
<trkpt lat="33.810313" lon="-118.393867">
  <ele>-0.12</ele>
  <time>2026-09-02T22:08:23Z</time>
  <course>0.0</course>
  <speed>0.0</speed>
  <fix>3d</fix>
</trkpt>
<trkpt lat="33.8103131" lon="-118.3938671">
  <ele>-0.131</ele>
  <time>2026-09-02T22:08:23Z</time>
  <course>186.97</course>
  <speed>0.03605551275463989</speed>
  <fix>3d</fix>
</trkpt>
<trkpt lat="33.810313" lon="-118.393867">
  <ele>-0.12</ele>
  <time>2026-09-02T22:08:23Z</time>
  <course>0.0</course>
  <speed>0.0</speed>
  <fix>3d</fix>
</trkpt>
<trkpt lat="33.8103131" lon="-118.3938671">
  <ele>-0.133</ele>
  <time>2026-09-02T22:08:23Z</time>
  <course>186.97</course>
  <speed>0.03605551275463989</speed>
  <fix>3d</fix>
</trkpt>
<trkpt lat="33.810313" lon="-118.393867">
  <ele>-0.12</ele>
  <time>2026-09-02T22:08:23Z</time>
  <course>0.0</course>
  <speed>0.0</speed>
  <fix>3d</fix>
</trkpt>
<trkpt lat="33.8103132" lon="-118.3938671">
  <ele>-0.134</ele>
  <time>2026-09-02T22:08:23Z</time>
  <course>186.96</course>
  <speed>0.03605551275463989</speed>
  <fix>3d</fix>
</trkpt>
<trkpt lat="33.810313" lon="-118.393867">
  <ele>-0.12</ele>
  <time>2026-09-02T22:08:23Z</time>
  <course>0.0</course>
  <speed>0.0</speed>
  <fix>3d</fix>
</trkpt>
<trkpt lat="33.8103132" lon="-118.3938671">
  <ele>-0.133</ele>
  <time>2026-09-02T22:08:23Z</time>
  <course>186.96</course>
  <speed>0.03605551275463989</speed>
  <fix>3d</fix>
</trkpt>
<trkpt lat="33.810313" lon="-118.393867">
  <ele>-0.12</ele>
  <time>2026-09-02T22:08:23Z</time>
  <course>0.0</course>
  <speed>0.0</speed>
  <fix>3d</fix>
</trkpt>
<trkpt lat="33.8103132" lon="-118.3938671">
  <ele>-0.131</ele>
  <time>2026-09-02T22:08:23Z</time>
  <course>186.96</course>
  <speed>0.03605551275463989</speed>
  <fix>3d</fix>
</trkpt>
<trkpt lat="33.810313" lon="-118.393867">
  <ele>-0.12</ele>
  <time>2026-09-02T22:08:23Z</time>
  <course>0.0</course>
  <speed>0.0</speed>
  <fix>3d</fix>
</trkpt>
<trkpt lat="33.8103132" lon="-118.3938671">
  <ele>-0.13</ele>
  <time>2026-09-02T22:08:23Z</time>
  <course>186.95</course>
  <speed>0.03605551275463989</speed>
  <fix>3d</fix>
</trkpt>
<trkpt lat="33.810313" lon="-118.393867">
  <ele>-0.12</ele>
  <time>2026-09-02T22:08:23Z</time>
  <course>0.0</course>
  <speed>0.0</speed>
  <fix>3d</fix>
</trkpt>
<trkpt lat="33.8103132" lon="-118.3938672">
  <ele>-0.129</ele>
  <time>2026-09-02T22:08:23Z</time>
  <course>186.95</course>
  <speed>0.03605551275463989</speed>
  <fix>3d</fix>
</trkpt>
<trkpt lat="33.810313" lon="-118.393867">
  <ele>-0.12</ele>
  <time>2026-09-02T22:08:23Z</time>
  <course>0.0</course>
  <speed>0.0</speed>
  <fix>3d</fix>
</trkpt>
<trkpt lat="33.8103132" lon="-118.3938672">
  <ele>-0.128</ele>
  <time>2026-09-02T22:08:23Z</time>
  <course>186.94</course>
  <speed>0.03605551275463989</speed>
  <fix>3d</fix>
</trkpt>
<trkpt lat="33.810313" lon="-118.393867">
  <ele>-0.12</ele>
  <time>2026-09-02T22:08:23Z</time>
  <course>0.0</course>
  <speed>0.0</speed>
  <fix>3d</fix>
</trkpt>
<trkpt lat="33.8103132" lon="-118.3938672">
  <ele>-0.128</ele>
  <time>2026-09-02T22:08:23Z</time>
  <course>186.94</course>
  <speed>0.0282842712474619</speed>
  <fix>3d</fix>
</trkpt>
<trkpt lat="33.810313" lon="-118.393867">
  <ele>-0.12</ele>
  <time>2026-09-02T22:08:23Z</time>
  <course>0.0</course>
  <speed>0.0</speed>
  <fix>3d</fix>
</trkpt>
<trkpt lat="33.8103132" lon="-118.3938672">
  <ele>-0.127</ele>
  <time>2026-09-02T22:08:23Z</time>
  <course>186.94</course>
  <speed>0.0282842712474619</speed>
  <fix>3d</fix>
</trkpt>
<trkpt lat="33.810313" lon="-118.393867">
  <ele>-0.12</ele>
  <time>2026-09-02T22:08:23Z</time>
  <course>0.0</course>
  <speed>0.0</speed>
  <fix>3d</fix>
</trkpt>
<trkpt lat="33.8103132" lon="-118.3938672">
  <ele>-0.128</ele>
  <time>2026-09-02T22:08:23Z</time>
  <course>186.93</course>
  <speed>0.0282842712474619</speed>
  <fix>3d</fix>
</trkpt>
<trkpt lat="33.810313" lon="-118.393867">
  <ele>-0.12</ele>
  <time>2026-09-02T22:08:23Z</time>
  <course>0.0</course>
  <speed>0.0</speed>
  <fix>3d</fix>
</trkpt>
<trkpt lat="33.8103132" lon="-118.3938672">
  <ele>-0.128</ele>
  <time>2026-09-02T22:08:23Z</time>
  <course>186.93</course>
  <speed>0.0282842712474619</speed>
  <fix>3d</fix>
</trkpt>
<trkpt lat="33.810313" lon="-118.393867">
  <ele>-0.12</ele>
  <time>2026-09-02T22:08:23Z</time>
  <course>0.0</course>
  <speed>0.0</speed>
  <fix>3d</fix>
</trkpt>
<trkpt lat="33.8103132" lon="-118.3938672">
  <ele>-0.127</ele>
  <time>2026-09-02T22:08:23Z</time>
  <course>186.92</course>
  <speed>0.0282842712474619</speed>
  <fix>3d</fix>
</trkpt>
<trkpt lat="33.810313" lon="-118.393867">
  <ele>-0.12</ele>
  <time>2026-09-02T22:08:23Z</time>
  <course>0.0</course>
  <speed>0.0</speed>
  <fix>3d</fix>
</trkpt>
<trkpt lat="33.8103132" lon="-118.3938672">
  <ele>-0.126</ele>
  <time>2026-09-02T22:08:23Z</time>
  <course>186.92</course>
  <speed>0.0282842712474619</speed>
  <fix>3d</fix>
</trkpt>
<trkpt lat="33.810313" lon="-118.393867">
  <ele>-0.12</ele>
  <time>2026-09-02T22:08:23Z</time>
  <course>0.0</course>
  <speed>0.0</speed>
  <fix>3d</fix>
</trkpt>
<trkpt lat="33.8103132" lon="-118.3938671">
  <ele>-0.125</ele>
  <time>2026-09-02T22:08:23Z</time>
  <course>186.92</course>
  <speed>0.0282842712474619</speed>
  <fix>3d</fix>
</trkpt>
<trkpt lat="33.810313" lon="-118.393867">
  <ele>-0.12</ele>
  <time>2026-09-02T22:08:23Z</time>
  <course>0.0</course>
  <speed>0.0</speed>
  <fix>3d</fix>
</trkpt>
<trkpt lat="33.8103132" lon="-118.3938671">
  <ele>-0.124</ele>
  <time>2026-09-02T22:08:23Z</time>
  <course>186.91</course>
  <speed>0.0282842712474619</speed>
  <fix>3d</fix>
</trkpt>
<trkpt lat="33.810313" lon="-118.393867">
  <ele>-0.12</ele>
  <time>2026-09-02T22:08:23Z</time>
  <course>0.0</course>
  <speed>0.0</speed>
  <fix>3d</fix>
</trkpt>
<trkpt lat="33.8103132" lon="-118.3938671">
  <ele>-0.122</ele>
  <time>2026-09-02T22:08:23Z</time>
  <course>186.91</course>
  <speed>0.0282842712474619</speed>
  <fix>3d</fix>
</trkpt>
<trkpt lat="33.810313" lon="-118.393867">
  <ele>-0.12</ele>
  <time>2026-09-02T22:08:23Z</time>
  <course>0.0</course>
  <speed>0.0</speed>
  <fix>3d</fix>
</trkpt>
<trkpt lat="33.8103132" lon="-118.3938671">
  <ele>-0.121</ele>
  <time>2026-09-02T22:08:23Z</time>
  <course>186.91</course>
  <speed>0.0282842712474619</speed>
  <fix>3d</fix>
</trkpt>
<trkpt lat="33.810313" lon="-118.393867">
  <ele>-0.12</ele>
  <time>2026-09-02T22:08:23Z</time>
  <course>0.0</course>
  <speed>0.0</speed>
  <fix>3d</fix>
</trkpt>
<trkpt lat="33.8103132" lon="-118.3938671">
  <ele>-0.12</ele>
  <time>2026-09-02T22:08:23Z</time>
  <course>186.9</course>
  <speed>0.0282842712474619</speed>
  <fix>3d</fix>
</trkpt>
<trkpt lat="33.810313" lon="-118.393867">
  <ele>-0.12</ele>
  <time>2026-09-02T22:08:23Z</time>
  <course>0.0</course>
  <speed>0.0</speed>
  <fix>3d</fix>
</trkpt>
<trkpt lat="33.8103132" lon="-118.3938671">
  <ele>-0.119</ele>
  <time>2026-09-02T22:08:23Z</time>
  <course>186.9</course>
  <speed>0.022360679774997897</speed>
  <fix>3d</fix>
</trkpt>
<trkpt lat="33.810313" lon="-118.393867">
  <ele>-0.12</ele>
  <time>2026-09-02T22:08:23Z</time>
  <course>0.0</course>
  <speed>0.0</speed>
  <fix>3d</fix>
</trkpt>
<trkpt lat="33.8103131" lon="-118.3938671">
  <ele>-0.119</ele>
  <time>2026-09-02T22:08:23Z</time>
  <course>186.89</course>
  <speed>0.022360679774997897</speed>
  <fix>3d</fix>
</trkpt>
<trkpt lat="33.810313" lon="-118.393867">
  <ele>-0.12</ele>
  <time>2026-09-02T22:08:23Z</time>
  <course>0.0</course>
  <speed>0.0</speed>
  <fix>3d</fix>
</trkpt>
<trkpt lat="33.8103131" lon="-118.3938671">
  <ele>-0.119</ele>
  <time>2026-09-02T22:08:23Z</time>
  <course>186.89</course>
  <speed>0.022360679774997897</speed>
  <fix>3d</fix>
</trkpt>
<trkpt lat="33.810313" lon="-118.393867">
  <ele>-0.12</ele>
  <time>2026-09-02T22:08:23Z</time>
  <course>0.0</course>
  <speed>0.0</speed>
  <fix>3d</fix>
</trkpt>
<trkpt lat="33.8103131" lon="-118.3938671">
  <ele>-0.119</ele>
  <time>2026-09-02T22:08:23Z</time>
  <course>186.89</course>
  <speed>0.022360679774997897</speed>
  <fix>3d</fix>
</trkpt>
<trkpt lat="33.810313" lon="-118.393867">
  <ele>-0.12</ele>
  <time>2026-09-02T22:08:23Z</time>
  <course>0.0</course>
  <speed>0.0</speed>
  <fix>3d</fix>
</trkpt>
<trkpt lat="33.8103131" lon="-118.3938671">
  <ele>-0.119</ele>
  <time>2026-09-02T22:08:23Z</time>
  <course>186.88</course>
  <speed>0.022360679774997897</speed>
  <fix>3d</fix>
</trkpt>
<trkpt lat="33.810313" lon="-118.393867">
  <ele>-0.12</ele>
  <time>2026-09-02T22:08:23Z</time>
  <course>0.0</course>
  <speed>0.0</speed>
  <fix>3d</fix>
</trkpt>
<trkpt lat="33.8103131" lon="-118.3938671">
  <ele>-0.119</ele>
  <time>2026-09-02T22:08:23Z</time>
  <course>186.88</course>
  <speed>0.022360679774997897</speed>
  <fix>3d</fix>
</trkpt>
<trkpt lat="33.810313" lon="-118.393867">
  <ele>-0.12</ele>
  <time>2026-09-02T22:08:23Z</time>
  <course>0.0</course>
  <speed>0.0</speed>
  <fix>3d</fix>
</trkpt>
<trkpt lat="33.8103131" lon="-118.3938671">
  <ele>-0.119</ele>
  <time>2026-09-02T22:08:23Z</time>
  <course>186.88</course>
  <speed>0.022360679774997897</speed>
  <fix>3d</fix>
</trkpt>
<trkpt lat="33.810313" lon="-118.393867">
  <ele>-0.12</ele>
  <time>2026-09-02T22:08:23Z</time>
  <course>0.0</course>
  <speed>0.0</speed>
  <fix>3d</fix>
</trkpt>
<trkpt lat="33.8103131" lon="-118.3938671">
  <ele>-0.12</ele>
  <time>2026-09-02T22:08:23Z</time>
  <course>186.87</course>
  <speed>0.022360679774997897</speed>
  <fix>3d</fix>
</trkpt>
<trkpt lat="33.810313" lon="-118.393867">
  <ele>-0.12</ele>
  <time>2026-09-02T22:08:23Z</time>
  <course>0.0</course>
  <speed>0.0</speed>
  <fix>3d</fix>
</trkpt>
<trkpt lat="33.8103131" lon="-118.3938671">
  <ele>-0.121</ele>
  <time>2026-09-02T22:08:23Z</time>
  <course>186.87</course>
  <speed>0.022360679774997897</speed>
  <fix>3d</fix>
</trkpt>
<trkpt lat="33.810313" lon="-118.393867">
  <ele>-0.12</ele>
  <time>2026-09-02T22:08:23Z</time>
  <course>0.0</course>
  <speed>0.0</speed>
  <fix>3d</fix>
</trkpt>
<trkpt lat="33.8103131" lon="-118.3938671">
  <ele>-0.124</ele>
  <time>2026-09-02T22:08:23Z</time>
  <course>186.87</course>
  <speed>0.022360679774997897</speed>
  <fix>3d</fix>
</trkpt>
<trkpt lat="33.810313" lon="-118.393867">
  <ele>-0.12</ele>
  <time>2026-09-02T22:08:23Z</time>
  <course>0.0</course>
  <speed>0.0</speed>
  <fix>3d</fix>
</trkpt>
<trkpt lat="33.8103131" lon="-118.3938671">
  <ele>-0.126</ele>
  <time>2026-09-02T22:08:23Z</time>
  <course>186.87</course>
  <speed>0.022360679774997897</speed>
  <fix>3d</fix>
</trkpt>
<trkpt lat="33.810313" lon="-118.393867">
  <ele>-0.12</ele>
  <time>2026-09-02T22:08:23Z</time>
  <course>0.0</course>
  <speed>0.0</speed>
  <fix>3d</fix>
</trkpt>
<trkpt lat="33.8103131" lon="-118.3938671">
  <ele>-0.128</ele>
  <time>2026-09-02T22:08:23Z</time>
  <course>186.86</course>
  <speed>0.022360679774997897</speed>
  <fix>3d</fix>
</trkpt>
<trkpt lat="33.810313" lon="-118.393867">
  <ele>-0.12</ele>
  <time>2026-09-02T22:08:23Z</time>
  <course>0.0</course>
  <speed>0.0</speed>
  <fix>3d</fix>
</trkpt>
<trkpt lat="33.8103131" lon="-118.3938671">
  <ele>-0.131</ele>
  <time>2026-09-02T22:08:23Z</time>
  <course>186.86</course>
  <speed>0.022360679774997897</speed>
  <fix>3d</fix>
</trkpt>
<trkpt lat="33.810313" lon="-118.393867">
  <ele>-0.12</ele>
  <time>2026-09-02T22:08:23Z</time>
  <course>0.0</course>
  <speed>0.0</speed>
  <fix>3d</fix>
</trkpt>
<trkpt lat="33.8103131" lon="-118.3938671">
  <ele>-0.133</ele>
  <time>2026-09-02T22:08:23Z</time>
  <course>186.86</course>
  <speed>0.022360679774997897</speed>
  <fix>3d</fix>
</trkpt>
<trkpt lat="33.810313" lon="-118.393867">
  <ele>-0.12</ele>
  <time>2026-09-02T22:08:23Z</time>
  <course>0.0</course>
  <speed>0.0</speed>
  <fix>3d</fix>
</trkpt>
<trkpt lat="33.8103131" lon="-118.3938671">
  <ele>-0.133</ele>
  <time>2026-09-02T22:08:23Z</time>
  <course>186.85</course>
  <speed>0.022360679774997897</speed>
  <fix>3d</fix>
</trkpt>
<trkpt lat="33.810313" lon="-118.393867">
  <ele>-0.12</ele>
  <time>2026-09-02T22:08:23Z</time>
  <course>0.0</course>
  <speed>0.0</speed>
  <fix>3d</fix>
</trkpt>
<trkpt lat="33.8103131" lon="-118.3938671">
  <ele>-0.132</ele>
  <time>2026-09-02T22:08:23Z</time>
  <course>186.85</course>
  <speed>0.022360679774997897</speed>
  <fix>3d</fix>
</trkpt>
<trkpt lat="33.810313" lon="-118.393867">
  <ele>-0.12</ele>
  <time>2026-09-02T22:08:23Z</time>
  <course>0.0</course>
  <speed>0.0</speed>
  <fix>3d</fix>
</trkpt>
<trkpt lat="33.8103131" lon="-118.3938671">
  <ele>-0.131</ele>
  <time>2026-09-02T22:08:23Z</time>
  <course>186.85</course>
  <speed>0.022360679774997897</speed>
  <fix>3d</fix>
</trkpt>
<trkpt lat="33.810313" lon="-118.393867">
  <ele>-0.12</ele>
  <time>2026-09-02T22:08:23Z</time>
  <course>0.0</course>
  <speed>0.0</speed>
  <fix>3d</fix>
</trkpt>
<trkpt lat="33.8103131" lon="-118.3938671">
  <ele>-0.129</ele>
  <time>2026-09-02T22:08:23Z</time>
  <course>186.84</course>
  <speed>0.022360679774997897</speed>
  <fix>3d</fix>
</trkpt>
<trkpt lat="33.810313" lon="-118.393867">
  <ele>-0.12</ele>
  <time>2026-09-02T22:08:23Z</time>
  <course>0.0</course>
  <speed>0.0</speed>
  <fix>3d</fix>
</trkpt>
<trkpt lat="33.8103131" lon="-118.3938671">
  <ele>-0.128</ele>
  <time>2026-09-02T22:08:23Z</time>
  <course>186.84</course>
  <speed>0.022360679774997897</speed>
  <fix>3d</fix>
</trkpt>
<trkpt lat="33.810313" lon="-118.393867">
  <ele>-0.12</ele>
  <time>2026-09-02T22:08:23Z</time>
  <course>0.0</course>
  <speed>0.0</speed>
  <fix>3d</fix>
</trkpt>
<trkpt lat="33.8103131" lon="-118.3938671">
  <ele>-0.128</ele>
  <time>2026-09-02T22:08:23Z</time>
  <course>186.84</course>
  <speed>0.022360679774997897</speed>
  <fix>3d</fix>
</trkpt>
<trkpt lat="33.810313" lon="-118.393867">
  <ele>-0.12</ele>
  <time>2026-09-02T22:08:23Z</time>
  <course>0.0</course>
  <speed>0.0</speed>
  <fix>3d</fix>
</trkpt>
<trkpt lat="33.8103131" lon="-118.3938671">
  <ele>-0.128</ele>
  <time>2026-09-02T22:08:23Z</time>
  <course>186.83</course>
  <speed>0.022360679774997897</speed>
  <fix>3d</fix>
</trkpt>
<trkpt lat="33.810313" lon="-118.393867">
  <ele>-0.12</ele>
  <time>2026-09-02T22:08:23Z</time>
  <course>0.0</course>
  <speed>0.0</speed>
  <fix>3d</fix>
</trkpt>
<trkpt lat="33.8103131" lon="-118.3938671">
  <ele>-0.128</ele>
  <time>2026-09-02T22:08:23Z</time>
  <course>186.83</course>
  <speed>0.022360679774997897</speed>
  <fix>3d</fix>
</trkpt>
<trkpt lat="33.810313" lon="-118.393867">
  <ele>-0.12</ele>
  <time>2026-09-02T22:08:23Z</time>
  <course>0.0</course>
  <speed>0.0</speed>
  <fix>3d</fix>
</trkpt>
<trkpt lat="33.8103131" lon="-118.3938671">
  <ele>-0.127</ele>
  <time>2026-09-02T22:08:23Z</time>
  <course>186.83</course>
  <speed>0.022360679774997897</speed>
  <fix>3d</fix>
</trkpt>
<trkpt lat="33.810313" lon="-118.393867">
  <ele>-0.12</ele>
  <time>2026-09-02T22:08:23Z</time>
  <course>0.0</course>
  <speed>0.0</speed>
  <fix>3d</fix>
</trkpt>
<trkpt lat="33.8103131" lon="-118.3938671">
  <ele>-0.126</ele>
  <time>2026-09-02T22:08:23Z</time>
  <course>186.82</course>
  <speed>0.022360679774997897</speed>
  <fix>3d</fix>
</trkpt>
<trkpt lat="33.810313" lon="-118.393867">
  <ele>-0.12</ele>
  <time>2026-09-02T22:08:23Z</time>
  <course>0.0</course>
  <speed>0.0</speed>
  <fix>3d</fix>
</trkpt>
<trkpt lat="33.8103131" lon="-118.3938671">
  <ele>-0.125</ele>
  <time>2026-09-02T22:08:23Z</time>
  <course>186.82</course>
  <speed>0.022360679774997897</speed>
  <fix>3d</fix>
</trkpt>
<trkpt lat="33.810313" lon="-118.393867">
  <ele>-0.12</ele>
  <time>2026-09-02T22:08:23Z</time>
  <course>0.0</course>
  <speed>0.0</speed>
  <fix>3d</fix>
</trkpt>
<trkpt lat="33.8103131" lon="-118.3938671">
  <ele>-0.124</ele>
  <time>2026-09-02T22:08:23Z</time>
  <course>186.82</course>
  <speed>0.022360679774997897</speed>
  <fix>3d</fix>
</trkpt>
<trkpt lat="33.810313" lon="-118.393867">
  <ele>-0.12</ele>
  <time>2026-09-02T22:08:23Z</time>
  <course>0.0</course>
  <speed>0.0</speed>
  <fix>3d</fix>
</trkpt>
<trkpt lat="33.8103131" lon="-118.3938671">
  <ele>-0.123</ele>
  <time>2026-09-02T22:08:23Z</time>
  <course>186.82</course>
  <speed>0.022360679774997897</speed>
  <fix>3d</fix>
</trkpt>
<trkpt lat="33.810313" lon="-118.393867">
  <ele>-0.12</ele>
  <time>2026-09-02T22:08:23Z</time>
  <course>0.0</course>
  <speed>0.0</speed>
  <fix>3d</fix>
</trkpt>
<trkpt lat="33.8103131" lon="-118.3938671">
  <ele>-0.122</ele>
  <time>2026-09-02T22:08:23Z</time>
  <course>186.81</course>
  <speed>0.022360679774997897</speed>
  <fix>3d</fix>
</trkpt>
<trkpt lat="33.810313" lon="-118.393867">
  <ele>-0.12</ele>
  <time>2026-09-02T22:08:23Z</time>
  <course>0.0</course>
  <speed>0.0</speed>
  <fix>3d</fix>
</trkpt>
<trkpt lat="33.8103131" lon="-118.3938671">
  <ele>-0.122</ele>
  <time>2026-09-02T22:08:23Z</time>
  <course>186.81</course>
  <speed>0.022360679774997897</speed>
  <fix>3d</fix>
</trkpt>
<trkpt lat="33.810313" lon="-118.393867">
  <ele>-0.12</ele>
  <time>2026-09-02T22:08:23Z</time>
  <course>0.0</course>
  <speed>0.0</speed>
  <fix>3d</fix>
</trkpt>
<trkpt lat="33.8103131" lon="-118.3938671">
  <ele>-0.122</ele>
  <time>2026-09-02T22:08:23Z</time>
  <course>186.81</course>
  <speed>0.022360679774997897</speed>
  <fix>3d</fix>
</trkpt>
<trkpt lat="33.810313" lon="-118.393867">
  <ele>-0.12</ele>
  <time>2026-09-02T22:08:23Z</time>
  <course>0.0</course>
  <speed>0.0</speed>
  <fix>3d</fix>
</trkpt>
<trkpt lat="33.8103131" lon="-118.3938671">
  <ele>-0.121</ele>
  <time>2026-09-02T22:08:23Z</time>
  <course>186.8</course>
  <speed>0.022360679774997897</speed>
  <fix>3d</fix>
</trkpt>
<trkpt lat="33.810313" lon="-118.393867">
  <ele>-0.12</ele>
  <time>2026-09-02T22:08:23Z</time>
  <course>0.0</course>
  <speed>0.0</speed>
  <fix>3d</fix>
</trkpt>
<trkpt lat="33.8103131" lon="-118.3938671">
  <ele>-0.122</ele>
  <time>2026-09-02T22:08:23Z</time>
  <course>186.8</course>
  <speed>0.022360679774997897</speed>
  <fix>3d</fix>
</trkpt>
<trkpt lat="33.810313" lon="-118.393867">
  <ele>-0.12</ele>
  <time>2026-09-02T22:08:23Z</time>
  <course>0.0</course>
  <speed>0.0</speed>
  <fix>3d</fix>
</trkpt>
<trkpt lat="33.8103131" lon="-118.3938671">
  <ele>-0.122</ele>
  <time>2026-09-02T22:08:23Z</time>
  <course>186.8</course>
  <speed>0.022360679774997897</speed>
  <fix>3d</fix>
</trkpt>
<trkpt lat="33.810313" lon="-118.393867">
  <ele>-0.12</ele>
  <time>2026-09-02T22:08:23Z</time>
  <course>0.0</course>
  <speed>0.0</speed>
  <fix>3d</fix>
</trkpt>
<trkpt lat="33.8103131" lon="-118.3938671">
  <ele>-0.122</ele>
  <time>2026-09-02T22:08:23Z</time>
  <course>186.79</course>
  <speed>0.022360679774997897</speed>
  <fix>3d</fix>
</trkpt>
<trkpt lat="33.810313" lon="-118.393867">
  <ele>-0.12</ele>
  <time>2026-09-02T22:08:23Z</time>
  <course>0.0</course>
  <speed>0.0</speed>
  <fix>3d</fix>
</trkpt>
<trkpt lat="33.8103131" lon="-118.3938671">
  <ele>-0.122</ele>
  <time>2026-09-02T22:08:23Z</time>
  <course>186.79</course>
  <speed>0.022360679774997897</speed>
  <fix>3d</fix>
</trkpt>
<trkpt lat="33.810313" lon="-118.393867">
  <ele>-0.12</ele>
  <time>2026-09-02T22:08:23Z</time>
  <course>0.0</course>
  <speed>0.0</speed>
  <fix>3d</fix>
</trkpt>
<trkpt lat="33.8103131" lon="-118.3938671">
  <ele>-0.122</ele>
  <time>2026-09-02T22:08:23Z</time>
  <course>186.79</course>
  <speed>0.022360679774997897</speed>
  <fix>3d</fix>
</trkpt>
<trkpt lat="33.810313" lon="-118.393867">
  <ele>-0.12</ele>
  <time>2026-09-02T22:08:23Z</time>
  <course>0.0</course>
  <speed>0.0</speed>
  <fix>3d</fix>
</trkpt>
<trkpt lat="33.8103131" lon="-118.3938671">
  <ele>-0.121</ele>
  <time>2026-09-02T22:08:23Z</time>
  <course>186.79</course>
  <speed>0.022360679774997897</speed>
  <fix>3d</fix>
</trkpt>
<trkpt lat="33.810313" lon="-118.393867">
  <ele>-0.12</ele>
  <time>2026-09-02T22:08:23Z</time>
  <course>0.0</course>
  <speed>0.0</speed>
  <fix>3d</fix>
</trkpt>
<trkpt lat="33.8103131" lon="-118.3938671">
  <ele>-0.12</ele>
  <time>2026-09-02T22:08:23Z</time>
  <course>186.78</course>
  <speed>0.022360679774997897</speed>
  <fix>3d</fix>
</trkpt>
<trkpt lat="33.810313" lon="-118.393867">
  <ele>-0.12</ele>
  <time>2026-09-02T22:08:23Z</time>
  <course>0.0</course>
  <speed>0.0</speed>
  <fix>3d</fix>
</trkpt>
<trkpt lat="33.8103131" lon="-118.3938671">
  <ele>-0.12</ele>
  <time>2026-09-02T22:08:23Z</time>
  <course>186.78</course>
  <speed>0.022360679774997897</speed>
  <fix>3d</fix>
</trkpt>
<trkpt lat="33.810313" lon="-118.393867">
  <ele>-0.12</ele>
  <time>2026-09-02T22:08:23Z</time>
  <course>0.0</course>
  <speed>0.0</speed>
  <fix>3d</fix>
</trkpt>
<trkpt lat="33.8103131" lon="-118.3938671">
  <ele>-0.12</ele>
  <time>2026-09-02T22:08:23Z</time>
  <course>186.78</course>
  <speed>0.022360679774997897</speed>
  <fix>3d</fix>
</trkpt>
<trkpt lat="33.810313" lon="-118.393867">
  <ele>-0.12</ele>
  <time>2026-09-02T22:08:23Z</time>
  <course>0.0</course>
  <speed>0.0</speed>
  <fix>3d</fix>
</trkpt>
<trkpt lat="33.8103131" lon="-118.3938671">
  <ele>-0.122</ele>
  <time>2026-09-02T22:08:23Z</time>
  <course>186.77</course>
  <speed>0.022360679774997897</speed>
  <fix>3d</fix>
</trkpt>
<trkpt lat="33.810313" lon="-118.393867">
  <ele>-0.12</ele>
  <time>2026-09-02T22:08:23Z</time>
  <course>0.0</course>
  <speed>0.0</speed>
  <fix>3d</fix>
</trkpt>
<trkpt lat="33.8103131" lon="-118.3938671">
  <ele>-0.125</ele>
  <time>2026-09-02T22:08:23Z</time>
  <course>186.77</course>
  <speed>0.022360679774997897</speed>
  <fix>3d</fix>
</trkpt>
<trkpt lat="33.810313" lon="-118.393867">
  <ele>-0.12</ele>
  <time>2026-09-02T22:08:23Z</time>
  <course>0.0</course>
  <speed>0.0</speed>
  <fix>3d</fix>
</trkpt>
<trkpt lat="33.8103131" lon="-118.3938671">
  <ele>-0.128</ele>
  <time>2026-09-02T22:08:23Z</time>
  <course>186.77</course>
  <speed>0.022360679774997897</speed>
  <fix>3d</fix>
</trkpt>
<trkpt lat="33.810313" lon="-118.393867">
  <ele>-0.12</ele>
  <time>2026-09-02T22:08:23Z</time>
  <course>0.0</course>
  <speed>0.0</speed>
  <fix>3d</fix>
</trkpt>
<trkpt lat="33.8103131" lon="-118.3938671">
  <ele>-0.13</ele>
  <time>2026-09-02T22:08:23Z</time>
  <course>186.77</course>
  <speed>0.022360679774997897</speed>
  <fix>3d</fix>
</trkpt>
<trkpt lat="33.810313" lon="-118.393867">
  <ele>-0.12</ele>
  <time>2026-09-02T22:08:23Z</time>
  <course>0.0</course>
  <speed>0.0</speed>
  <fix>3d</fix>
</trkpt>
<trkpt lat="33.8103131" lon="-118.3938671">
  <ele>-0.13</ele>
  <time>2026-09-02T22:08:23Z</time>
  <course>186.76</course>
  <speed>0.022360679774997897</speed>
  <fix>3d</fix>
</trkpt>
<trkpt lat="33.810313" lon="-118.393867">
  <ele>-0.12</ele>
  <time>2026-09-02T22:08:23Z</time>
  <course>0.0</course>
  <speed>0.0</speed>
  <fix>3d</fix>
</trkpt>
<trkpt lat="33.8103131" lon="-118.3938671">
  <ele>-0.129</ele>
  <time>2026-09-02T22:08:23Z</time>
  <course>186.76</course>
  <speed>0.022360679774997897</speed>
  <fix>3d</fix>
</trkpt>
<trkpt lat="33.810313" lon="-118.393867">
  <ele>-0.12</ele>
  <time>2026-09-02T22:08:23Z</time>
  <course>0.0</course>
  <speed>0.0</speed>
  <fix>3d</fix>
</trkpt>
<trkpt lat="33.8103131" lon="-118.3938671">
  <ele>-0.127</ele>
  <time>2026-09-02T22:08:23Z</time>
  <course>186.76</course>
  <speed>0.022360679774997897</speed>
  <fix>3d</fix>
</trkpt>
<trkpt lat="33.810313" lon="-118.393867">
  <ele>-0.12</ele>
  <time>2026-09-02T22:08:23Z</time>
  <course>0.0</course>
  <speed>0.0</speed>
  <fix>3d</fix>
</trkpt>
<trkpt lat="33.8103131" lon="-118.3938671">
  <ele>-0.125</ele>
  <time>2026-09-02T22:08:23Z</time>
  <course>186.75</course>
  <speed>0.022360679774997897</speed>
  <fix>3d</fix>
</trkpt>
<trkpt lat="33.810313" lon="-118.393867">
  <ele>-0.12</ele>
  <time>2026-09-02T22:08:23Z</time>
  <course>0.0</course>
  <speed>0.0</speed>
  <fix>3d</fix>
</trkpt>
<trkpt lat="33.8103131" lon="-118.3938671">
  <ele>-0.125</ele>
  <time>2026-09-02T22:08:23Z</time>
  <course>186.75</course>
  <speed>0.022360679774997897</speed>
  <fix>3d</fix>
</trkpt>
<trkpt lat="33.810313" lon="-118.393867">
  <ele>-0.12</ele>
  <time>2026-09-02T22:08:23Z</time>
  <course>0.0</course>
  <speed>0.0</speed>
  <fix>3d</fix>
</trkpt>
<trkpt lat="33.8103131" lon="-118.3938671">
  <ele>-0.124</ele>
  <time>2026-09-02T22:08:24Z</time>
  <course>186.75</course>
  <speed>0.022360679774997897</speed>
  <fix>3d</fix>
</trkpt>
<trkpt lat="33.810313" lon="-118.393867">
  <ele>-0.12</ele>
  <time>2026-09-02T22:08:24Z</time>
  <course>0.0</course>
  <speed>0.0</speed>
  <fix>3d</fix>
</trkpt>
<trkpt lat="33.8103131" lon="-118.3938671">
  <ele>-0.123</ele>
  <time>2026-09-02T22:08:24Z</time>
  <course>186.75</course>
  <speed>0.022360679774997897</speed>
  <fix>3d</fix>
</trkpt>
<trkpt lat="33.810313" lon="-118.393867">
  <ele>-0.12</ele>
  <time>2026-09-02T22:08:24Z</time>
  <course>0.0</course>
  <speed>0.0</speed>
  <fix>3d</fix>
</trkpt>
<trkpt lat="33.8103131" lon="-118.3938671">
  <ele>-0.122</ele>
  <time>2026-09-02T22:08:24Z</time>
  <course>186.74</course>
  <speed>0.022360679774997897</speed>
  <fix>3d</fix>
</trkpt>
<trkpt lat="33.810313" lon="-118.393867">
  <ele>-0.12</ele>
  <time>2026-09-02T22:08:24Z</time>
  <course>0.0</course>
  <speed>0.0</speed>
  <fix>3d</fix>
</trkpt>
<trkpt lat="33.8103131" lon="-118.3938671">
  <ele>-0.122</ele>
  <time>2026-09-02T22:08:24Z</time>
  <course>186.74</course>
  <speed>0.022360679774997897</speed>
  <fix>3d</fix>
</trkpt>
<trkpt lat="33.810313" lon="-118.393867">
  <ele>-0.12</ele>
  <time>2026-09-02T22:08:24Z</time>
  <course>0.0</course>
  <speed>0.0</speed>
  <fix>3d</fix>
</trkpt>
<trkpt lat="33.8103131" lon="-118.3938671">
  <ele>-0.122</ele>
  <time>2026-09-02T22:08:24Z</time>
  <course>186.74</course>
  <speed>0.022360679774997897</speed>
  <fix>3d</fix>
</trkpt>
<trkpt lat="33.810313" lon="-118.393867">
  <ele>-0.12</ele>
  <time>2026-09-02T22:08:24Z</time>
  <course>0.0</course>
  <speed>0.0</speed>
  <fix>3d</fix>
</trkpt>
<trkpt lat="33.8103131" lon="-118.3938671">
  <ele>-0.122</ele>
  <time>2026-09-02T22:08:24Z</time>
  <course>186.74</course>
  <speed>0.022360679774997897</speed>
  <fix>3d</fix>
</trkpt>
<trkpt lat="33.810313" lon="-118.393867">
  <ele>-0.12</ele>
  <time>2026-09-02T22:08:24Z</time>
  <course>0.0</course>
  <speed>0.0</speed>
  <fix>3d</fix>
</trkpt>
<trkpt lat="33.8103131" lon="-118.3938671">
  <ele>-0.121</ele>
  <time>2026-09-02T22:08:24Z</time>
  <course>186.73</course>
  <speed>0.022360679774997897</speed>
  <fix>3d</fix>
</trkpt>
<trkpt lat="33.810313" lon="-118.393867">
  <ele>-0.12</ele>
  <time>2026-09-02T22:08:24Z</time>
  <course>0.0</course>
  <speed>0.0</speed>
  <fix>3d</fix>
</trkpt>
<trkpt lat="33.8103131" lon="-118.3938671">
  <ele>-0.12</ele>
  <time>2026-09-02T22:08:24Z</time>
  <course>186.73</course>
  <speed>0.022360679774997897</speed>
  <fix>3d</fix>
</trkpt>
<trkpt lat="33.810313" lon="-118.393867">
  <ele>-0.12</ele>
  <time>2026-09-02T22:08:24Z</time>
  <course>0.0</course>
  <speed>0.0</speed>
  <fix>3d</fix>
</trkpt>
<trkpt lat="33.8103131" lon="-118.3938671">
  <ele>-0.12</ele>
  <time>2026-09-02T22:08:24Z</time>
  <course>186.73</course>
  <speed>0.022360679774997897</speed>
  <fix>3d</fix>
</trkpt>
<trkpt lat="33.810313" lon="-118.393867">
  <ele>-0.12</ele>
  <time>2026-09-02T22:08:24Z</time>
  <course>0.0</course>
  <speed>0.0</speed>
  <fix>3d</fix>
</trkpt>
<trkpt lat="33.8103131" lon="-118.3938671">
  <ele>-0.12</ele>
  <time>2026-09-02T22:08:24Z</time>
  <course>186.73</course>
  <speed>0.022360679774997897</speed>
  <fix>3d</fix>
</trkpt>
<trkpt lat="33.810313" lon="-118.393867">
  <ele>-0.12</ele>
  <time>2026-09-02T22:08:24Z</time>
  <course>0.0</course>
  <speed>0.0</speed>
  <fix>3d</fix>
</trkpt>
<trkpt lat="33.8103131" lon="-118.3938671">
  <ele>-0.121</ele>
  <time>2026-09-02T22:08:24Z</time>
  <course>186.72</course>
  <speed>0.022360679774997897</speed>
  <fix>3d</fix>
</trkpt>
<trkpt lat="33.810313" lon="-118.393867">
  <ele>-0.12</ele>
  <time>2026-09-02T22:08:24Z</time>
  <course>0.0</course>
  <speed>0.0</speed>
  <fix>3d</fix>
</trkpt>
<trkpt lat="33.8103131" lon="-118.3938671">
  <ele>-0.122</ele>
  <time>2026-09-02T22:08:24Z</time>
  <course>186.72</course>
  <speed>0.022360679774997897</speed>
  <fix>3d</fix>
</trkpt>
<trkpt lat="33.810313" lon="-118.393867">
  <ele>-0.12</ele>
  <time>2026-09-02T22:08:24Z</time>
  <course>0.0</course>
  <speed>0.0</speed>
  <fix>3d</fix>
</trkpt>
<trkpt lat="33.8103131" lon="-118.3938671">
  <ele>-0.124</ele>
  <time>2026-09-02T22:08:24Z</time>
  <course>186.72</course>
  <speed>0.022360679774997897</speed>
  <fix>3d</fix>
</trkpt>
<trkpt lat="33.810313" lon="-118.393867">
  <ele>-0.12</ele>
  <time>2026-09-02T22:08:24Z</time>
  <course>0.0</course>
  <speed>0.0</speed>
  <fix>3d</fix>
</trkpt>
<trkpt lat="33.8103131" lon="-118.3938671">
  <ele>-0.126</ele>
  <time>2026-09-02T22:08:24Z</time>
  <course>186.71</course>
  <speed>0.022360679774997897</speed>
  <fix>3d</fix>
</trkpt>
<trkpt lat="33.810313" lon="-118.393867">
  <ele>-0.12</ele>
  <time>2026-09-02T22:08:24Z</time>
  <course>0.0</course>
  <speed>0.0</speed>
  <fix>3d</fix>
</trkpt>
<trkpt lat="33.8103131" lon="-118.3938671">
  <ele>-0.127</ele>
  <time>2026-09-02T22:08:24Z</time>
  <course>186.71</course>
  <speed>0.022360679774997897</speed>
  <fix>3d</fix>
</trkpt>
<trkpt lat="33.810313" lon="-118.393867">
  <ele>-0.12</ele>
  <time>2026-09-02T22:08:24Z</time>
  <course>0.0</course>
  <speed>0.0</speed>
  <fix>3d</fix>
</trkpt>
<trkpt lat="33.8103131" lon="-118.3938671">
  <ele>-0.128</ele>
  <time>2026-09-02T22:08:24Z</time>
  <course>186.71</course>
  <speed>0.022360679774997897</speed>
  <fix>3d</fix>
</trkpt>
<trkpt lat="33.810313" lon="-118.393867">
  <ele>-0.12</ele>
  <time>2026-09-02T22:08:24Z</time>
  <course>0.0</course>
  <speed>0.0</speed>
  <fix>3d</fix>
</trkpt>
<trkpt lat="33.8103131" lon="-118.3938671">
  <ele>-0.127</ele>
  <time>2026-09-02T22:08:24Z</time>
  <course>186.71</course>
  <speed>0.022360679774997897</speed>
  <fix>3d</fix>
</trkpt>
<trkpt lat="33.810313" lon="-118.393867">
  <ele>-0.12</ele>
  <time>2026-09-02T22:08:24Z</time>
  <course>0.0</course>
  <speed>0.0</speed>
  <fix>3d</fix>
</trkpt>
<trkpt lat="33.8103131" lon="-118.3938671">
  <ele>-0.126</ele>
  <time>2026-09-02T22:08:24Z</time>
  <course>186.7</course>
  <speed>0.022360679774997897</speed>
  <fix>3d</fix>
</trkpt>
<trkpt lat="33.810313" lon="-118.393867">
  <ele>-0.12</ele>
  <time>2026-09-02T22:08:24Z</time>
  <course>0.0</course>
  <speed>0.0</speed>
  <fix>3d</fix>
</trkpt>
<trkpt lat="33.8103131" lon="-118.3938671">
  <ele>-0.125</ele>
  <time>2026-09-02T22:08:24Z</time>
  <course>186.7</course>
  <speed>0.022360679774997897</speed>
  <fix>3d</fix>
</trkpt>
<trkpt lat="33.810313" lon="-118.393867">
  <ele>-0.12</ele>
  <time>2026-09-02T22:08:24Z</time>
  <course>0.0</course>
  <speed>0.0</speed>
  <fix>3d</fix>
</trkpt>
<trkpt lat="33.8103131" lon="-118.3938671">
  <ele>-0.125</ele>
  <time>2026-09-02T22:08:24Z</time>
  <course>186.7</course>
  <speed>0.022360679774997897</speed>
  <fix>3d</fix>
</trkpt>
<trkpt lat="33.810313" lon="-118.393867">
  <ele>-0.12</ele>
  <time>2026-09-02T22:08:24Z</time>
  <course>0.0</course>
  <speed>0.0</speed>
  <fix>3d</fix>
</trkpt>
<trkpt lat="33.8103131" lon="-118.3938671">
  <ele>-0.126</ele>
  <time>2026-09-02T22:08:24Z</time>
  <course>186.7</course>
  <speed>0.022360679774997897</speed>
  <fix>3d</fix>
</trkpt>
<trkpt lat="33.810313" lon="-118.393867">
  <ele>-0.12</ele>
  <time>2026-09-02T22:08:24Z</time>
  <course>0.0</course>
  <speed>0.0</speed>
  <fix>3d</fix>
</trkpt>
<trkpt lat="33.8103131" lon="-118.3938671">
  <ele>-0.128</ele>
  <time>2026-09-02T22:08:24Z</time>
  <course>186.69</course>
  <speed>0.022360679774997897</speed>
  <fix>3d</fix>
</trkpt>
<trkpt lat="33.810313" lon="-118.393867">
  <ele>-0.12</ele>
  <time>2026-09-02T22:08:24Z</time>
  <course>0.0</course>
  <speed>0.0</speed>
  <fix>3d</fix>
</trkpt>
<trkpt lat="33.8103131" lon="-118.3938671">
  <ele>-0.131</ele>
  <time>2026-09-02T22:08:24Z</time>
  <course>186.69</course>
  <speed>0.022360679774997897</speed>
  <fix>3d</fix>
</trkpt>
<trkpt lat="33.810313" lon="-118.393867">
  <ele>-0.12</ele>
  <time>2026-09-02T22:08:24Z</time>
  <course>0.0</course>
  <speed>0.0</speed>
  <fix>3d</fix>
</trkpt>
<trkpt lat="33.8103131" lon="-118.3938671">
  <ele>-0.133</ele>
  <time>2026-09-02T22:08:24Z</time>
  <course>186.69</course>
  <speed>0.022360679774997897</speed>
  <fix>3d</fix>
</trkpt>
<trkpt lat="33.810313" lon="-118.393867">
  <ele>-0.12</ele>
  <time>2026-09-02T22:08:24Z</time>
  <course>0.0</course>
  <speed>0.0</speed>
  <fix>3d</fix>
</trkpt>
<trkpt lat="33.8103131" lon="-118.3938671">
  <ele>-0.133</ele>
  <time>2026-09-02T22:08:24Z</time>
  <course>186.69</course>
  <speed>0.022360679774997897</speed>
  <fix>3d</fix>
</trkpt>
<trkpt lat="33.810313" lon="-118.393867">
  <ele>-0.12</ele>
  <time>2026-09-02T22:08:24Z</time>
  <course>0.0</course>
  <speed>0.0</speed>
  <fix>3d</fix>
</trkpt>
<trkpt lat="33.8103131" lon="-118.3938671">
  <ele>-0.132</ele>
  <time>2026-09-02T22:08:24Z</time>
  <course>186.68</course>
  <speed>0.022360679774997897</speed>
  <fix>3d</fix>
</trkpt>
<trkpt lat="33.810313" lon="-118.393867">
  <ele>-0.12</ele>
  <time>2026-09-02T22:08:24Z</time>
  <course>0.0</course>
  <speed>0.0</speed>
  <fix>3d</fix>
</trkpt>
<trkpt lat="33.8103131" lon="-118.3938671">
  <ele>-0.132</ele>
  <time>2026-09-02T22:08:24Z</time>
  <course>186.68</course>
  <speed>0.022360679774997897</speed>
  <fix>3d</fix>
</trkpt>
<trkpt lat="33.810313" lon="-118.393867">
  <ele>-0.12</ele>
  <time>2026-09-02T22:08:24Z</time>
  <course>0.0</course>
  <speed>0.0</speed>
  <fix>3d</fix>
</trkpt>
<trkpt lat="33.8103131" lon="-118.3938671">
  <ele>-0.131</ele>
  <time>2026-09-02T22:08:24Z</time>
  <course>186.68</course>
  <speed>0.022360679774997897</speed>
  <fix>3d</fix>
</trkpt>
<trkpt lat="33.810313" lon="-118.393867">
  <ele>-0.12</ele>
  <time>2026-09-02T22:08:24Z</time>
  <course>0.0</course>
  <speed>0.0</speed>
  <fix>3d</fix>
</trkpt>
<trkpt lat="33.8103131" lon="-118.3938671">
  <ele>-0.13</ele>
  <time>2026-09-02T22:08:24Z</time>
  <course>186.68</course>
  <speed>0.022360679774997897</speed>
  <fix>3d</fix>
</trkpt>
<trkpt lat="33.810313" lon="-118.393867">
  <ele>-0.12</ele>
  <time>2026-09-02T22:08:24Z</time>
  <course>0.0</course>
  <speed>0.0</speed>
  <fix>3d</fix>
</trkpt>
<trkpt lat="33.8103131" lon="-118.3938671">
  <ele>-0.13</ele>
  <time>2026-09-02T22:08:24Z</time>
  <course>186.67</course>
  <speed>0.022360679774997897</speed>
  <fix>3d</fix>
</trkpt>
<trkpt lat="33.810313" lon="-118.393867">
  <ele>-0.12</ele>
  <time>2026-09-02T22:08:24Z</time>
  <course>0.0</course>
  <speed>0.0</speed>
  <fix>3d</fix>
</trkpt>
<trkpt lat="33.8103131" lon="-118.3938671">
  <ele>-0.13</ele>
  <time>2026-09-02T22:08:24Z</time>
  <course>186.67</course>
  <speed>0.022360679774997897</speed>
  <fix>3d</fix>
</trkpt>
<trkpt lat="33.810313" lon="-118.393867">
  <ele>-0.12</ele>
  <time>2026-09-02T22:08:24Z</time>
  <course>0.0</course>
  <speed>0.0</speed>
  <fix>3d</fix>
</trkpt>
<trkpt lat="33.8103131" lon="-118.3938671">
  <ele>-0.129</ele>
  <time>2026-09-02T22:08:24Z</time>
  <course>186.67</course>
  <speed>0.022360679774997897</speed>
  <fix>3d</fix>
</trkpt>
<trkpt lat="33.810313" lon="-118.393867">
  <ele>-0.12</ele>
  <time>2026-09-02T22:08:24Z</time>
  <course>0.0</course>
  <speed>0.0</speed>
  <fix>3d</fix>
</trkpt>
<trkpt lat="33.8103131" lon="-118.3938671">
  <ele>-0.13</ele>
  <time>2026-09-02T22:08:24Z</time>
  <course>186.67</course>
  <speed>0.022360679774997897</speed>
  <fix>3d</fix>
</trkpt>
<trkpt lat="33.810313" lon="-118.393867">
  <ele>-0.12</ele>
  <time>2026-09-02T22:08:24Z</time>
  <course>0.0</course>
  <speed>0.0</speed>
  <fix>3d</fix>
</trkpt>
<trkpt lat="33.8103131" lon="-118.3938671">
  <ele>-0.13</ele>
  <time>2026-09-02T22:08:24Z</time>
  <course>186.67</course>
  <speed>0.022360679774997897</speed>
  <fix>3d</fix>
</trkpt>
<trkpt lat="33.810313" lon="-118.393867">
  <ele>-0.12</ele>
  <time>2026-09-02T22:08:24Z</time>
  <course>0.0</course>
  <speed>0.0</speed>
  <fix>3d</fix>
</trkpt>
<trkpt lat="33.8103131" lon="-118.3938671">
  <ele>-0.13</ele>
  <time>2026-09-02T22:08:24Z</time>
  <course>186.66</course>
  <speed>0.022360679774997897</speed>
  <fix>3d</fix>
</trkpt>
<trkpt lat="33.810313" lon="-118.393867">
  <ele>-0.12</ele>
  <time>2026-09-02T22:08:24Z</time>
  <course>0.0</course>
  <speed>0.0</speed>
  <fix>3d</fix>
</trkpt>
<trkpt lat="33.8103131" lon="-118.3938671">
  <ele>-0.128</ele>
  <time>2026-09-02T22:08:24Z</time>
  <course>186.66</course>
  <speed>0.022360679774997897</speed>
  <fix>3d</fix>
</trkpt>
<trkpt lat="33.810313" lon="-118.393867">
  <ele>-0.12</ele>
  <time>2026-09-02T22:08:24Z</time>
  <course>0.0</course>
  <speed>0.0</speed>
  <fix>3d</fix>
</trkpt>
<trkpt lat="33.8103131" lon="-118.3938671">
  <ele>-0.127</ele>
  <time>2026-09-02T22:08:24Z</time>
  <course>186.66</course>
  <speed>0.022360679774997897</speed>
  <fix>3d</fix>
</trkpt>
<trkpt lat="33.810313" lon="-118.393867">
  <ele>-0.12</ele>
  <time>2026-09-02T22:08:24Z</time>
  <course>0.0</course>
  <speed>0.0</speed>
  <fix>3d</fix>
</trkpt>
<trkpt lat="33.8103131" lon="-118.3938671">
  <ele>-0.124</ele>
  <time>2026-09-02T22:08:24Z</time>
  <course>186.66</course>
  <speed>0.022360679774997897</speed>
  <fix>3d</fix>
</trkpt>
<trkpt lat="33.810313" lon="-118.393867">
  <ele>-0.12</ele>
  <time>2026-09-02T22:08:24Z</time>
  <course>0.0</course>
  <speed>0.0</speed>
  <fix>3d</fix>
</trkpt>
<trkpt lat="33.8103131" lon="-118.3938671">
  <ele>-0.122</ele>
  <time>2026-09-02T22:08:24Z</time>
  <course>186.65</course>
  <speed>0.022360679774997897</speed>
  <fix>3d</fix>
</trkpt>
<trkpt lat="33.810313" lon="-118.393867">
  <ele>-0.12</ele>
  <time>2026-09-02T22:08:24Z</time>
  <course>0.0</course>
  <speed>0.0</speed>
  <fix>3d</fix>
</trkpt>
<trkpt lat="33.8103131" lon="-118.3938671">
  <ele>-0.121</ele>
  <time>2026-09-02T22:08:24Z</time>
  <course>186.65</course>
  <speed>0.022360679774997897</speed>
  <fix>3d</fix>
</trkpt>
<trkpt lat="33.810313" lon="-118.393867">
  <ele>-0.12</ele>
  <time>2026-09-02T22:08:24Z</time>
  <course>0.0</course>
  <speed>0.0</speed>
  <fix>3d</fix>
</trkpt>
<trkpt lat="33.8103131" lon="-118.3938671">
  <ele>-0.122</ele>
  <time>2026-09-02T22:08:24Z</time>
  <course>186.65</course>
  <speed>0.022360679774997897</speed>
  <fix>3d</fix>
</trkpt>
<trkpt lat="33.810313" lon="-118.393867">
  <ele>-0.12</ele>
  <time>2026-09-02T22:08:24Z</time>
  <course>0.0</course>
  <speed>0.0</speed>
  <fix>3d</fix>
</trkpt>
<trkpt lat="33.8103131" lon="-118.3938671">
  <ele>-0.124</ele>
  <time>2026-09-02T22:08:24Z</time>
  <course>186.65</course>
  <speed>0.022360679774997897</speed>
  <fix>3d</fix>
</trkpt>
<trkpt lat="33.810313" lon="-118.393867">
  <ele>-0.12</ele>
  <time>2026-09-02T22:08:24Z</time>
  <course>0.0</course>
  <speed>0.0</speed>
  <fix>3d</fix>
</trkpt>
<trkpt lat="33.8103131" lon="-118.3938671">
  <ele>-0.126</ele>
  <time>2026-09-02T22:08:24Z</time>
  <course>186.64</course>
  <speed>0.022360679774997897</speed>
  <fix>3d</fix>
</trkpt>
<trkpt lat="33.810313" lon="-118.393867">
  <ele>-0.12</ele>
  <time>2026-09-02T22:08:24Z</time>
  <course>0.0</course>
  <speed>0.0</speed>
  <fix>3d</fix>
</trkpt>
<trkpt lat="33.8103131" lon="-118.3938671">
  <ele>-0.128</ele>
  <time>2026-09-02T22:08:24Z</time>
  <course>186.64</course>
  <speed>0.022360679774997897</speed>
  <fix>3d</fix>
</trkpt>
<trkpt lat="33.810313" lon="-118.393867">
  <ele>-0.12</ele>
  <time>2026-09-02T22:08:24Z</time>
  <course>0.0</course>
  <speed>0.0</speed>
  <fix>3d</fix>
</trkpt>
<trkpt lat="33.8103131" lon="-118.3938671">
  <ele>-0.129</ele>
  <time>2026-09-02T22:08:24Z</time>
  <course>186.64</course>
  <speed>0.022360679774997897</speed>
  <fix>3d</fix>
</trkpt>
<trkpt lat="33.810313" lon="-118.393867">
  <ele>-0.12</ele>
  <time>2026-09-02T22:08:24Z</time>
  <course>0.0</course>
  <speed>0.0</speed>
  <fix>3d</fix>
</trkpt>
<trkpt lat="33.8103131" lon="-118.3938671">
  <ele>-0.129</ele>
  <time>2026-09-02T22:08:24Z</time>
  <course>186.64</course>
  <speed>0.022360679774997897</speed>
  <fix>3d</fix>
</trkpt>
<trkpt lat="33.810313" lon="-118.393867">
  <ele>-0.12</ele>
  <time>2026-09-02T22:08:24Z</time>
  <course>0.0</course>
  <speed>0.0</speed>
  <fix>3d</fix>
</trkpt>
<trkpt lat="33.8103131" lon="-118.3938671">
  <ele>-0.129</ele>
  <time>2026-09-02T22:08:24Z</time>
  <course>186.64</course>
  <speed>0.022360679774997897</speed>
  <fix>3d</fix>
</trkpt>
<trkpt lat="33.810313" lon="-118.393867">
  <ele>-0.12</ele>
  <time>2026-09-02T22:08:24Z</time>
  <course>0.0</course>
  <speed>0.0</speed>
  <fix>3d</fix>
</trkpt>
<trkpt lat="33.8103131" lon="-118.3938671">
  <ele>-0.128</ele>
  <time>2026-09-02T22:08:24Z</time>
  <course>186.63</course>
  <speed>0.022360679774997897</speed>
  <fix>3d</fix>
</trkpt>
<trkpt lat="33.810313" lon="-118.393867">
  <ele>-0.12</ele>
  <time>2026-09-02T22:08:24Z</time>
  <course>0.0</course>
  <speed>0.0</speed>
  <fix>3d</fix>
</trkpt>
<trkpt lat="33.8103131" lon="-118.3938671">
  <ele>-0.127</ele>
  <time>2026-09-02T22:08:24Z</time>
  <course>186.63</course>
  <speed>0.022360679774997897</speed>
  <fix>3d</fix>
</trkpt>
<trkpt lat="33.810313" lon="-118.393867">
  <ele>-0.12</ele>
  <time>2026-09-02T22:08:24Z</time>
  <course>0.0</course>
  <speed>0.0</speed>
  <fix>3d</fix>
</trkpt>
<trkpt lat="33.8103131" lon="-118.3938671">
  <ele>-0.126</ele>
  <time>2026-09-02T22:08:24Z</time>
  <course>186.63</course>
  <speed>0.022360679774997897</speed>
  <fix>3d</fix>
</trkpt>
<trkpt lat="33.810313" lon="-118.393867">
  <ele>-0.12</ele>
  <time>2026-09-02T22:08:24Z</time>
  <course>0.0</course>
  <speed>0.0</speed>
  <fix>3d</fix>
</trkpt>
<trkpt lat="33.8103131" lon="-118.3938671">
  <ele>-0.126</ele>
  <time>2026-09-02T22:08:24Z</time>
  <course>186.63</course>
  <speed>0.022360679774997897</speed>
  <fix>3d</fix>
</trkpt>
<trkpt lat="33.810313" lon="-118.393867">
  <ele>-0.12</ele>
  <time>2026-09-02T22:08:24Z</time>
  <course>0.0</course>
  <speed>0.0</speed>
  <fix>3d</fix>
</trkpt>
<trkpt lat="33.8103131" lon="-118.3938671">
  <ele>-0.126</ele>
  <time>2026-09-02T22:08:24Z</time>
  <course>186.62</course>
  <speed>0.022360679774997897</speed>
  <fix>3d</fix>
</trkpt>
<trkpt lat="33.810313" lon="-118.393867">
  <ele>-0.12</ele>
  <time>2026-09-02T22:08:24Z</time>
  <course>0.0</course>
  <speed>0.0</speed>
  <fix>3d</fix>
</trkpt>
<trkpt lat="33.8103131" lon="-118.3938671">
  <ele>-0.127</ele>
  <time>2026-09-02T22:08:24Z</time>
  <course>186.62</course>
  <speed>0.022360679774997897</speed>
  <fix>3d</fix>
</trkpt>
<trkpt lat="33.810313" lon="-118.393867">
  <ele>-0.12</ele>
  <time>2026-09-02T22:08:24Z</time>
  <course>0.0</course>
  <speed>0.0</speed>
  <fix>3d</fix>
</trkpt>
<trkpt lat="33.8103131" lon="-118.3938671">
  <ele>-0.127</ele>
  <time>2026-09-02T22:08:24Z</time>
  <course>186.62</course>
  <speed>0.022360679774997897</speed>
  <fix>3d</fix>
</trkpt>
<trkpt lat="33.810313" lon="-118.393867">
  <ele>-0.12</ele>
  <time>2026-09-02T22:08:24Z</time>
  <course>0.0</course>
  <speed>0.0</speed>
  <fix>3d</fix>
</trkpt>
<trkpt lat="33.8103131" lon="-118.3938671">
  <ele>-0.127</ele>
  <time>2026-09-02T22:08:24Z</time>
  <course>186.62</course>
  <speed>0.022360679774997897</speed>
  <fix>3d</fix>
</trkpt>
<trkpt lat="33.810313" lon="-118.393867">
  <ele>-0.12</ele>
  <time>2026-09-02T22:08:24Z</time>
  <course>0.0</course>
  <speed>0.0</speed>
  <fix>3d</fix>
</trkpt>
<trkpt lat="33.8103131" lon="-118.3938671">
  <ele>-0.127</ele>
  <time>2026-09-02T22:08:24Z</time>
  <course>186.62</course>
  <speed>0.022360679774997897</speed>
  <fix>3d</fix>
</trkpt>
<trkpt lat="33.810313" lon="-118.393867">
  <ele>-0.12</ele>
  <time>2026-09-02T22:08:24Z</time>
  <course>0.0</course>
  <speed>0.0</speed>
  <fix>3d</fix>
</trkpt>
<trkpt lat="33.8103131" lon="-118.3938671">
  <ele>-0.127</ele>
  <time>2026-09-02T22:08:24Z</time>
  <course>186.61</course>
  <speed>0.022360679774997897</speed>
  <fix>3d</fix>
</trkpt>
<trkpt lat="33.810313" lon="-118.393867">
  <ele>-0.12</ele>
  <time>2026-09-02T22:08:24Z</time>
  <course>0.0</course>
  <speed>0.0</speed>
  <fix>3d</fix>
</trkpt>
<trkpt lat="33.8103131" lon="-118.3938671">
  <ele>-0.126</ele>
  <time>2026-09-02T22:08:24Z</time>
  <course>186.61</course>
  <speed>0.022360679774997897</speed>
  <fix>3d</fix>
</trkpt>
<trkpt lat="33.810313" lon="-118.393867">
  <ele>-0.12</ele>
  <time>2026-09-02T22:08:24Z</time>
  <course>0.0</course>
  <speed>0.0</speed>
  <fix>3d</fix>
</trkpt>
<trkpt lat="33.8103131" lon="-118.3938671">
  <ele>-0.125</ele>
  <time>2026-09-02T22:08:24Z</time>
  <course>186.61</course>
  <speed>0.022360679774997897</speed>
  <fix>3d</fix>
</trkpt>
<trkpt lat="33.810313" lon="-118.393867">
  <ele>-0.12</ele>
  <time>2026-09-02T22:08:24Z</time>
  <course>0.0</course>
  <speed>0.0</speed>
  <fix>3d</fix>
</trkpt>
<trkpt lat="33.8103131" lon="-118.3938671">
  <ele>-0.125</ele>
  <time>2026-09-02T22:08:24Z</time>
  <course>186.61</course>
  <speed>0.022360679774997897</speed>
  <fix>3d</fix>
</trkpt>
<trkpt lat="33.810313" lon="-118.393867">
  <ele>-0.12</ele>
  <time>2026-09-02T22:08:24Z</time>
  <course>0.0</course>
  <speed>0.0</speed>
  <fix>3d</fix>
</trkpt>
<trkpt lat="33.8103131" lon="-118.3938671">
  <ele>-0.124</ele>
  <time>2026-09-02T22:08:24Z</time>
  <course>186.6</course>
  <speed>0.022360679774997897</speed>
  <fix>3d</fix>
</trkpt>
<trkpt lat="33.810313" lon="-118.393867">
  <ele>-0.12</ele>
  <time>2026-09-02T22:08:24Z</time>
  <course>0.0</course>
  <speed>0.0</speed>
  <fix>3d</fix>
</trkpt>
<trkpt lat="33.8103131" lon="-118.3938671">
  <ele>-0.125</ele>
  <time>2026-09-02T22:08:24Z</time>
  <course>186.6</course>
  <speed>0.022360679774997897</speed>
  <fix>3d</fix>
</trkpt>
<trkpt lat="33.810313" lon="-118.393867">
  <ele>-0.12</ele>
  <time>2026-09-02T22:08:24Z</time>
  <course>0.0</course>
  <speed>0.0</speed>
  <fix>3d</fix>
</trkpt>
<trkpt lat="33.8103131" lon="-118.3938671">
  <ele>-0.126</ele>
  <time>2026-09-02T22:08:24Z</time>
  <course>186.6</course>
  <speed>0.022360679774997897</speed>
  <fix>3d</fix>
</trkpt>
<trkpt lat="33.810313" lon="-118.393867">
  <ele>-0.12</ele>
  <time>2026-09-02T22:08:24Z</time>
  <course>0.0</course>
  <speed>0.0</speed>
  <fix>3d</fix>
</trkpt>
<trkpt lat="33.8103131" lon="-118.3938671">
  <ele>-0.128</ele>
  <time>2026-09-02T22:08:24Z</time>
  <course>186.6</course>
  <speed>0.022360679774997897</speed>
  <fix>3d</fix>
</trkpt>
<trkpt lat="33.810313" lon="-118.393867">
  <ele>-0.12</ele>
  <time>2026-09-02T22:08:24Z</time>
  <course>0.0</course>
  <speed>0.0</speed>
  <fix>3d</fix>
</trkpt>
<trkpt lat="33.8103131" lon="-118.3938671">
  <ele>-0.13</ele>
  <time>2026-09-02T22:08:24Z</time>
  <course>186.6</course>
  <speed>0.022360679774997897</speed>
  <fix>3d</fix>
</trkpt>
<trkpt lat="33.810313" lon="-118.393867">
  <ele>-0.12</ele>
  <time>2026-09-02T22:08:24Z</time>
  <course>0.0</course>
  <speed>0.0</speed>
  <fix>3d</fix>
</trkpt>
<trkpt lat="33.4368002" lon="-117.0859339">
  <ele>-0.11</ele>
  <time>2026-09-02T22:08:24Z</time>
  <course>0.0</course>
  <speed>0.0</speed>
  <fix>3d</fix>
</trkpt>
<trkpt lat="33.4368002" lon="-117.0859339">
  <ele>-0.11</ele>
  <time>2026-09-02T22:08:24Z</time>
  <course>0.0</course>
  <speed>0.0</speed>
  <fix>3d</fix>
</trkpt>
<trkpt lat="33.810313" lon="-118.393867">
  <ele>0.0</ele>
  <time>2026-09-02T22:08:24Z</time>
  <course>173.5</course>
  <speed>0.0</speed>
  <fix>3d</fix>
</trkpt>
<trkpt lat="33.810313" lon="-118.393867">
  <ele>-0.11</ele>
  <time>2026-09-02T22:08:24Z</time>
  <course>0.0</course>
  <speed>0.0</speed>
  <fix>3d</fix>
</trkpt>
<trkpt lat="33.810313" lon="-118.393867">
  <ele>0.0</ele>
  <time>2026-09-02T22:08:24Z</time>
  <course>173.64</course>
  <speed>0.0</speed>
  <fix>3d</fix>
</trkpt>
<trkpt lat="33.810313" lon="-118.393867">
  <ele>-0.11</ele>
  <time>2026-09-02T22:08:24Z</time>
  <course>0.0</course>
  <speed>0.0</speed>
  <fix>3d</fix>
</trkpt>
<trkpt lat="33.810313" lon="-118.393867">
  <ele>0.0</ele>
  <time>2026-09-02T22:08:24Z</time>
  <course>174.03</course>
  <speed>0.0</speed>
  <fix>3d</fix>
</trkpt>
<trkpt lat="33.810313" lon="-118.393867">
  <ele>-0.11</ele>
  <time>2026-09-02T22:08:24Z</time>
  <course>0.0</course>
  <speed>0.0</speed>
  <fix>3d</fix>
</trkpt>
<trkpt lat="33.810313" lon="-118.393867">
  <ele>0.0</ele>
  <time>2026-09-02T22:08:24Z</time>
  <course>174.57</course>
  <speed>0.0</speed>
  <fix>3d</fix>
</trkpt>
<trkpt lat="33.810313" lon="-118.393867">
  <ele>-0.11</ele>
  <time>2026-09-02T22:08:24Z</time>
  <course>0.0</course>
  <speed>0.0</speed>
  <fix>3d</fix>
</trkpt>
<trkpt lat="33.810313" lon="-118.393867">
  <ele>0.0</ele>
  <time>2026-09-02T22:08:24Z</time>
  <course>175.13</course>
  <speed>0.0</speed>
  <fix>3d</fix>
</trkpt>
<trkpt lat="33.810313" lon="-118.393867">
  <ele>-0.12</ele>
  <time>2026-09-02T22:08:24Z</time>
  <course>0.0</course>
  <speed>0.0</speed>
  <fix>3d</fix>
</trkpt>
<trkpt lat="33.810313" lon="-118.393867">
  <ele>0.0</ele>
  <time>2026-09-02T22:08:24Z</time>
  <course>175.66</course>
  <speed>0.0</speed>
  <fix>3d</fix>
</trkpt>
<trkpt lat="33.810313" lon="-118.393867">
  <ele>-0.12</ele>
  <time>2026-09-02T22:08:24Z</time>
  <course>0.0</course>
  <speed>0.0</speed>
  <fix>3d</fix>
</trkpt>
<trkpt lat="33.810313" lon="-118.393867">
  <ele>0.0</ele>
  <time>2026-09-02T22:08:24Z</time>
  <course>176.17</course>
  <speed>0.0</speed>
  <fix>3d</fix>
</trkpt>
<trkpt lat="33.810313" lon="-118.393867">
  <ele>-0.13</ele>
  <time>2026-09-02T22:08:24Z</time>
  <course>0.0</course>
  <speed>0.0</speed>
  <fix>3d</fix>
</trkpt>
<trkpt lat="33.810313" lon="-118.393867">
  <ele>0.0</ele>
  <time>2026-09-02T22:08:24Z</time>
  <course>176.65</course>
  <speed>0.0</speed>
  <fix>3d</fix>
</trkpt>
<trkpt lat="33.810313" lon="-118.393867">
  <ele>-0.13</ele>
  <time>2026-09-02T22:08:24Z</time>
  <course>0.0</course>
  <speed>0.0</speed>
  <fix>3d</fix>
</trkpt>
<trkpt lat="33.810313" lon="-118.393867">
  <ele>0.0</ele>
  <time>2026-09-02T22:08:24Z</time>
  <course>177.12</course>
  <speed>0.0</speed>
  <fix>3d</fix>
</trkpt>
<trkpt lat="33.810313" lon="-118.393867">
  <ele>-0.13</ele>
  <time>2026-09-02T22:08:24Z</time>
  <course>0.0</course>
  <speed>0.0</speed>
  <fix>3d</fix>
</trkpt>
<trkpt lat="33.810313" lon="-118.393867">
  <ele>0.0</ele>
  <time>2026-09-02T22:08:24Z</time>
  <course>177.57</course>
  <speed>0.0</speed>
  <fix>3d</fix>
</trkpt>
<trkpt lat="33.810313" lon="-118.393867">
  <ele>-0.13</ele>
  <time>2026-09-02T22:08:24Z</time>
  <course>0.0</course>
  <speed>0.0</speed>
  <fix>3d</fix>
</trkpt>
<trkpt lat="33.810313" lon="-118.393867">
  <ele>0.0</ele>
  <time>2026-09-02T22:08:24Z</time>
  <course>178.01</course>
  <speed>0.0</speed>
  <fix>3d</fix>
</trkpt>
<trkpt lat="33.810313" lon="-118.393867">
  <ele>-0.14</ele>
  <time>2026-09-02T22:08:24Z</time>
  <course>0.0</course>
  <speed>0.0</speed>
  <fix>3d</fix>
</trkpt>
<trkpt lat="33.810313" lon="-118.393867">
  <ele>0.0</ele>
  <time>2026-09-02T22:08:24Z</time>
  <course>178.44</course>
  <speed>0.0</speed>
  <fix>3d</fix>
</trkpt>
<trkpt lat="33.810313" lon="-118.393867">
  <ele>-0.14</ele>
  <time>2026-09-02T22:08:24Z</time>
  <course>0.0</course>
  <speed>0.0</speed>
  <fix>3d</fix>
</trkpt>
<trkpt lat="33.810313" lon="-118.393867">
  <ele>0.0</ele>
  <time>2026-09-02T22:08:24Z</time>
  <course>178.86</course>
  <speed>0.0</speed>
  <fix>3d</fix>
</trkpt>
<trkpt lat="33.810313" lon="-118.393867">
  <ele>-0.14</ele>
  <time>2026-09-02T22:08:24Z</time>
  <course>0.0</course>
  <speed>0.0</speed>
  <fix>3d</fix>
</trkpt>
<trkpt lat="33.810313" lon="-118.393867">
  <ele>0.0</ele>
  <time>2026-09-02T22:08:24Z</time>
  <course>179.26</course>
  <speed>0.0</speed>
  <fix>3d</fix>
</trkpt>
<trkpt lat="33.810313" lon="-118.393867">
  <ele>-0.14</ele>
  <time>2026-09-02T22:08:24Z</time>
  <course>0.0</course>
  <speed>0.0</speed>
  <fix>3d</fix>
</trkpt>
<trkpt lat="33.810313" lon="-118.393867">
  <ele>0.0</ele>
  <time>2026-09-02T22:08:24Z</time>
  <course>179.65</course>
  <speed>0.0</speed>
  <fix>3d</fix>
</trkpt>
<trkpt lat="33.810313" lon="-118.393867">
  <ele>-0.14</ele>
  <time>2026-09-02T22:08:24Z</time>
  <course>0.0</course>
  <speed>0.0</speed>
  <fix>3d</fix>
</trkpt>
<trkpt lat="33.810313" lon="-118.393867">
  <ele>0.0</ele>
  <time>2026-09-02T22:08:24Z</time>
  <course>180.04</course>
  <speed>0.0</speed>
  <fix>3d</fix>
</trkpt>
<trkpt lat="33.810313" lon="-118.393867">
  <ele>-0.14</ele>
  <time>2026-09-02T22:08:24Z</time>
  <course>0.0</course>
  <speed>0.0</speed>
  <fix>3d</fix>
</trkpt>
<trkpt lat="33.810313" lon="-118.393867">
  <ele>0.0</ele>
  <time>2026-09-02T22:08:24Z</time>
  <course>180.4</course>
  <speed>0.0</speed>
  <fix>3d</fix>
</trkpt>
<trkpt lat="33.810313" lon="-118.393867">
  <ele>-0.14</ele>
  <time>2026-09-02T22:08:24Z</time>
  <course>0.0</course>
  <speed>0.0</speed>
  <fix>3d</fix>
</trkpt>
<trkpt lat="33.810313" lon="-118.393867">
  <ele>0.0</ele>
  <time>2026-09-02T22:08:24Z</time>
  <course>180.76</course>
  <speed>0.0</speed>
  <fix>3d</fix>
</trkpt>
<trkpt lat="33.810313" lon="-118.393867">
  <ele>-0.14</ele>
  <time>2026-09-02T22:08:24Z</time>
  <course>0.0</course>
  <speed>0.0</speed>
  <fix>3d</fix>
</trkpt>
<trkpt lat="33.810313" lon="-118.393867">
  <ele>0.0</ele>
  <time>2026-09-02T22:08:24Z</time>
  <course>181.09</course>
  <speed>0.0</speed>
  <fix>3d</fix>
</trkpt>
<trkpt lat="33.810313" lon="-118.393867">
  <ele>-0.13</ele>
  <time>2026-09-02T22:08:24Z</time>
  <course>0.0</course>
  <speed>0.0</speed>
  <fix>3d</fix>
</trkpt>
<trkpt lat="33.810313" lon="-118.393867">
  <ele>0.0</ele>
  <time>2026-09-02T22:08:24Z</time>
  <course>181.42</course>
  <speed>0.0</speed>
  <fix>3d</fix>
</trkpt>
<trkpt lat="33.810313" lon="-118.393867">
  <ele>-0.13</ele>
  <time>2026-09-02T22:08:24Z</time>
  <course>0.0</course>
  <speed>0.0</speed>
  <fix>3d</fix>
</trkpt>
<trkpt lat="33.810313" lon="-118.393867">
  <ele>0.0</ele>
  <time>2026-09-02T22:08:24Z</time>
  <course>181.74</course>
  <speed>0.0</speed>
  <fix>3d</fix>
</trkpt>
<trkpt lat="33.810313" lon="-118.393867">
  <ele>-0.12</ele>
  <time>2026-09-02T22:08:24Z</time>
  <course>0.0</course>
  <speed>0.0</speed>
  <fix>3d</fix>
</trkpt>
<trkpt lat="33.810313" lon="-118.393867">
  <ele>0.0</ele>
  <time>2026-09-02T22:08:24Z</time>
  <course>182.04</course>
  <speed>0.0</speed>
  <fix>3d</fix>
</trkpt>
<trkpt lat="33.810313" lon="-118.393867">
  <ele>-0.12</ele>
  <time>2026-09-02T22:08:24Z</time>
  <course>0.0</course>
  <speed>0.0</speed>
  <fix>3d</fix>
</trkpt>
<trkpt lat="33.810313" lon="-118.393867">
  <ele>0.0</ele>
  <time>2026-09-02T22:08:24Z</time>
  <course>182.33</course>
  <speed>0.0</speed>
  <fix>3d</fix>
</trkpt>
<trkpt lat="33.810313" lon="-118.393867">
  <ele>-0.12</ele>
  <time>2026-09-02T22:08:24Z</time>
  <course>0.0</course>
  <speed>0.0</speed>
  <fix>3d</fix>
</trkpt>
<trkpt lat="33.810313" lon="-118.393867">
  <ele>0.0</ele>
  <time>2026-09-02T22:08:24Z</time>
  <course>182.62</course>
  <speed>0.0</speed>
  <fix>3d</fix>
</trkpt>
<trkpt lat="33.810313" lon="-118.393867">
  <ele>-0.12</ele>
  <time>2026-09-02T22:08:24Z</time>
  <course>0.0</course>
  <speed>0.0</speed>
  <fix>3d</fix>
</trkpt>
<trkpt lat="33.810313" lon="-118.393867">
  <ele>0.0</ele>
  <time>2026-09-02T22:08:24Z</time>
  <course>182.89</course>
  <speed>0.0</speed>
  <fix>3d</fix>
</trkpt>
<trkpt lat="33.810313" lon="-118.393867">
  <ele>-0.11</ele>
  <time>2026-09-02T22:08:24Z</time>
  <course>0.0</course>
  <speed>0.0</speed>
  <fix>3d</fix>
</trkpt>
<trkpt lat="33.810313" lon="-118.393867">
  <ele>0.0</ele>
  <time>2026-09-02T22:08:24Z</time>
  <course>183.15</course>
  <speed>0.0</speed>
  <fix>3d</fix>
</trkpt>
<trkpt lat="33.810313" lon="-118.393867">
  <ele>-0.11</ele>
  <time>2026-09-02T22:08:24Z</time>
  <course>0.0</course>
  <speed>0.0</speed>
  <fix>3d</fix>
</trkpt>
<trkpt lat="33.810313" lon="-118.393867">
  <ele>0.0</ele>
  <time>2026-09-02T22:08:24Z</time>
  <course>183.4</course>
  <speed>0.0</speed>
  <fix>3d</fix>
</trkpt>
<trkpt lat="33.810313" lon="-118.393867">
  <ele>-0.11</ele>
  <time>2026-09-02T22:08:24Z</time>
  <course>0.0</course>
  <speed>0.0</speed>
  <fix>3d</fix>
</trkpt>
<trkpt lat="33.810313" lon="-118.393867">
  <ele>0.0</ele>
  <time>2026-09-02T22:08:24Z</time>
  <course>183.64</course>
  <speed>0.0</speed>
  <fix>3d</fix>
</trkpt>
<trkpt lat="33.810313" lon="-118.393867">
  <ele>-0.11</ele>
  <time>2026-09-02T22:08:24Z</time>
  <course>0.0</course>
  <speed>0.0</speed>
  <fix>3d</fix>
</trkpt>
<trkpt lat="33.810313" lon="-118.393867">
  <ele>0.0</ele>
  <time>2026-09-02T22:08:24Z</time>
  <course>183.87</course>
  <speed>0.0</speed>
  <fix>3d</fix>
</trkpt>
<trkpt lat="33.810313" lon="-118.393867">
  <ele>-0.12</ele>
  <time>2026-09-02T22:08:24Z</time>
  <course>0.0</course>
  <speed>0.0</speed>
  <fix>3d</fix>
</trkpt>
<trkpt lat="33.810313" lon="-118.393867">
  <ele>0.0</ele>
  <time>2026-09-02T22:08:24Z</time>
  <course>184.09</course>
  <speed>0.0</speed>
  <fix>3d</fix>
</trkpt>
<trkpt lat="33.810313" lon="-118.393867">
  <ele>-0.12</ele>
  <time>2026-09-02T22:08:24Z</time>
  <course>0.0</course>
  <speed>0.0</speed>
  <fix>3d</fix>
</trkpt>
<trkpt lat="33.810313" lon="-118.393867">
  <ele>0.0</ele>
  <time>2026-09-02T22:08:24Z</time>
  <course>184.3</course>
  <speed>0.0</speed>
  <fix>3d</fix>
</trkpt>
<trkpt lat="33.810313" lon="-118.393867">
  <ele>-0.13</ele>
  <time>2026-09-02T22:08:24Z</time>
  <course>0.0</course>
  <speed>0.0</speed>
  <fix>3d</fix>
</trkpt>
<trkpt lat="33.810313" lon="-118.393867">
  <ele>0.0</ele>
  <time>2026-09-02T22:08:24Z</time>
  <course>184.51</course>
  <speed>0.0</speed>
  <fix>3d</fix>
</trkpt>
<trkpt lat="33.810313" lon="-118.393867">
  <ele>-0.13</ele>
  <time>2026-09-02T22:08:24Z</time>
  <course>0.0</course>
  <speed>0.0</speed>
  <fix>3d</fix>
</trkpt>
<trkpt lat="33.810313" lon="-118.393867">
  <ele>0.0</ele>
  <time>2026-09-02T22:08:24Z</time>
  <course>184.7</course>
  <speed>0.0</speed>
  <fix>3d</fix>
</trkpt>
<trkpt lat="33.810313" lon="-118.393867">
  <ele>-0.13</ele>
  <time>2026-09-02T22:08:24Z</time>
  <course>0.0</course>
  <speed>0.0</speed>
  <fix>3d</fix>
</trkpt>
<trkpt lat="33.810313" lon="-118.393867">
  <ele>0.0</ele>
  <time>2026-09-02T22:08:24Z</time>
  <course>184.89</course>
  <speed>0.0</speed>
  <fix>3d</fix>
</trkpt>
<trkpt lat="33.810313" lon="-118.393867">
  <ele>-0.13</ele>
  <time>2026-09-02T22:08:24Z</time>
  <course>0.0</course>
  <speed>0.0</speed>
  <fix>3d</fix>
</trkpt>
<trkpt lat="33.810313" lon="-118.393867">
  <ele>0.0</ele>
  <time>2026-09-02T22:08:24Z</time>
  <course>185.07</course>
  <speed>0.0</speed>
  <fix>3d</fix>
</trkpt>
<trkpt lat="33.810313" lon="-118.393867">
  <ele>-0.14</ele>
  <time>2026-09-02T22:08:24Z</time>
  <course>0.0</course>
  <speed>0.0</speed>
  <fix>3d</fix>
</trkpt>
<trkpt lat="33.810313" lon="-118.393867">
  <ele>0.0</ele>
  <time>2026-09-02T22:08:24Z</time>
  <course>185.24</course>
  <speed>0.0</speed>
  <fix>3d</fix>
</trkpt>
<trkpt lat="33.810313" lon="-118.393867">
  <ele>-0.14</ele>
  <time>2026-09-02T22:08:24Z</time>
  <course>0.0</course>
  <speed>0.0</speed>
  <fix>3d</fix>
</trkpt>
<trkpt lat="33.810313" lon="-118.393867">
  <ele>0.0</ele>
  <time>2026-09-02T22:08:25Z</time>
  <course>185.4</course>
  <speed>0.0</speed>
  <fix>3d</fix>
</trkpt>
<trkpt lat="33.810313" lon="-118.393867">
  <ele>-0.13</ele>
  <time>2026-09-02T22:08:25Z</time>
  <course>0.0</course>
  <speed>0.0</speed>
  <fix>3d</fix>
</trkpt>
<trkpt lat="33.810313" lon="-118.393867">
  <ele>0.0</ele>
  <time>2026-09-02T22:08:25Z</time>
  <course>185.56</course>
  <speed>0.0</speed>
  <fix>3d</fix>
</trkpt>
<trkpt lat="33.810313" lon="-118.393867">
  <ele>-0.13</ele>
  <time>2026-09-02T22:08:25Z</time>
  <course>0.0</course>
  <speed>0.0</speed>
  <fix>3d</fix>
</trkpt>
<trkpt lat="33.810313" lon="-118.393867">
  <ele>0.0</ele>
  <time>2026-09-02T22:08:25Z</time>
  <course>185.71</course>
  <speed>0.0</speed>
  <fix>3d</fix>
</trkpt>
<trkpt lat="33.810313" lon="-118.393867">
  <ele>-0.13</ele>
  <time>2026-09-02T22:08:25Z</time>
  <course>0.0</course>
  <speed>0.0</speed>
  <fix>3d</fix>
</trkpt>
<trkpt lat="33.810313" lon="-118.393867">
  <ele>0.0</ele>
  <time>2026-09-02T22:08:25Z</time>
  <course>185.85</course>
  <speed>0.0</speed>
  <fix>3d</fix>
</trkpt>
<trkpt lat="33.810313" lon="-118.393867">
  <ele>-0.13</ele>
  <time>2026-09-02T22:08:25Z</time>
  <course>0.0</course>
  <speed>0.0</speed>
  <fix>3d</fix>
</trkpt>
<trkpt lat="33.810313" lon="-118.393867">
  <ele>0.0</ele>
  <time>2026-09-02T22:08:25Z</time>
  <course>185.99</course>
  <speed>0.0</speed>
  <fix>3d</fix>
</trkpt>
<trkpt lat="33.810313" lon="-118.393867">
  <ele>-0.12</ele>
  <time>2026-09-02T22:08:25Z</time>
  <course>0.0</course>
  <speed>0.0</speed>
  <fix>3d</fix>
</trkpt>
<trkpt lat="33.810313" lon="-118.393867">
  <ele>0.0</ele>
  <time>2026-09-02T22:08:25Z</time>
  <course>186.12</course>
  <speed>0.0</speed>
  <fix>3d</fix>
</trkpt>
<trkpt lat="33.810313" lon="-118.393867">
  <ele>-0.12</ele>
  <time>2026-09-02T22:08:25Z</time>
  <course>0.0</course>
  <speed>0.0</speed>
  <fix>3d</fix>
</trkpt>
<trkpt lat="33.810313" lon="-118.393867">
  <ele>0.0</ele>
  <time>2026-09-02T22:08:25Z</time>
  <course>186.25</course>
  <speed>0.0</speed>
  <fix>3d</fix>
</trkpt>
<trkpt lat="33.810313" lon="-118.393867">
  <ele>-0.12</ele>
  <time>2026-09-02T22:08:25Z</time>
  <course>0.0</course>
  <speed>0.0</speed>
  <fix>3d</fix>
</trkpt>
<trkpt lat="33.810313" lon="-118.393867">
  <ele>0.0</ele>
  <time>2026-09-02T22:08:25Z</time>
  <course>186.37</course>
  <speed>0.0</speed>
  <fix>3d</fix>
</trkpt>
<trkpt lat="33.810313" lon="-118.393867">
  <ele>-0.12</ele>
  <time>2026-09-02T22:08:25Z</time>
  <course>0.0</course>
  <speed>0.0</speed>
  <fix>3d</fix>
</trkpt>
<trkpt lat="33.810313" lon="-118.393867">
  <ele>0.0</ele>
  <time>2026-09-02T22:08:25Z</time>
  <course>186.48</course>
  <speed>0.0</speed>
  <fix>3d</fix>
</trkpt>
<trkpt lat="33.810313" lon="-118.393867">
  <ele>-0.12</ele>
  <time>2026-09-02T22:08:25Z</time>
  <course>0.0</course>
  <speed>0.0</speed>
  <fix>3d</fix>
</trkpt>
<trkpt lat="33.810313" lon="-118.393867">
  <ele>0.0</ele>
  <time>2026-09-02T22:08:25Z</time>
  <course>186.59</course>
  <speed>0.0</speed>
  <fix>3d</fix>
</trkpt>
<trkpt lat="33.810313" lon="-118.393867">
  <ele>-0.12</ele>
  <time>2026-09-02T22:08:25Z</time>
  <course>0.0</course>
  <speed>0.0</speed>
  <fix>3d</fix>
</trkpt>
<trkpt lat="33.810313" lon="-118.393867">
  <ele>0.0</ele>
  <time>2026-09-02T22:08:25Z</time>
  <course>186.69</course>
  <speed>0.0</speed>
  <fix>3d</fix>
</trkpt>
<trkpt lat="33.810313" lon="-118.393867">
  <ele>-0.12</ele>
  <time>2026-09-02T22:08:25Z</time>
  <course>0.0</course>
  <speed>0.0</speed>
  <fix>3d</fix>
</trkpt>
<trkpt lat="33.810313" lon="-118.393867">
  <ele>0.0</ele>
  <time>2026-09-02T22:08:25Z</time>
  <course>186.79</course>
  <speed>0.0</speed>
  <fix>3d</fix>
</trkpt>
<trkpt lat="33.810313" lon="-118.393867">
  <ele>-0.12</ele>
  <time>2026-09-02T22:08:25Z</time>
  <course>0.0</course>
  <speed>0.0</speed>
  <fix>3d</fix>
</trkpt>
<trkpt lat="33.810313" lon="-118.393867">
  <ele>0.0</ele>
  <time>2026-09-02T22:08:25Z</time>
  <course>186.89</course>
  <speed>0.0</speed>
  <fix>3d</fix>
</trkpt>
<trkpt lat="33.810313" lon="-118.393867">
  <ele>-0.12</ele>
  <time>2026-09-02T22:08:25Z</time>
  <course>0.0</course>
  <speed>0.0</speed>
  <fix>3d</fix>
</trkpt>
<trkpt lat="33.810313" lon="-118.393867">
  <ele>0.0</ele>
  <time>2026-09-02T22:08:25Z</time>
  <course>186.98</course>
  <speed>0.0</speed>
  <fix>3d</fix>
</trkpt>
<trkpt lat="33.810313" lon="-118.393867">
  <ele>-0.12</ele>
  <time>2026-09-02T22:08:25Z</time>
  <course>0.0</course>
  <speed>0.0</speed>
  <fix>3d</fix>
</trkpt>
<trkpt lat="33.810313" lon="-118.393867">
  <ele>0.0</ele>
  <time>2026-09-02T22:08:25Z</time>
  <course>187.07</course>
  <speed>0.0</speed>
  <fix>3d</fix>
</trkpt>
<trkpt lat="33.810313" lon="-118.393867">
  <ele>-0.13</ele>
  <time>2026-09-02T22:08:25Z</time>
  <course>0.0</course>
  <speed>0.0</speed>
  <fix>3d</fix>
</trkpt>
<trkpt lat="33.810313" lon="-118.393867">
  <ele>0.0</ele>
  <time>2026-09-02T22:08:25Z</time>
  <course>187.15</course>
  <speed>0.0</speed>
  <fix>3d</fix>
</trkpt>
<trkpt lat="33.810313" lon="-118.393867">
  <ele>-0.13</ele>
  <time>2026-09-02T22:08:25Z</time>
  <course>0.0</course>
  <speed>0.0</speed>
  <fix>3d</fix>
</trkpt>
<trkpt lat="33.810313" lon="-118.393867">
  <ele>0.0</ele>
  <time>2026-09-02T22:08:25Z</time>
  <course>187.23</course>
  <speed>0.0</speed>
  <fix>3d</fix>
</trkpt>
<trkpt lat="33.810313" lon="-118.393867">
  <ele>-0.13</ele>
  <time>2026-09-02T22:08:25Z</time>
  <course>0.0</course>
  <speed>0.0</speed>
  <fix>3d</fix>
</trkpt>
<trkpt lat="33.810313" lon="-118.393867">
  <ele>0.0</ele>
  <time>2026-09-02T22:08:25Z</time>
  <course>187.3</course>
  <speed>0.0</speed>
  <fix>3d</fix>
</trkpt>
<trkpt lat="33.810313" lon="-118.393867">
  <ele>-0.13</ele>
  <time>2026-09-02T22:08:25Z</time>
  <course>0.0</course>
  <speed>0.0</speed>
  <fix>3d</fix>
</trkpt>
<trkpt lat="33.810313" lon="-118.393867">
  <ele>0.0</ele>
  <time>2026-09-02T22:08:25Z</time>
  <course>187.37</course>
  <speed>0.0</speed>
  <fix>3d</fix>
</trkpt>
<trkpt lat="33.810313" lon="-118.393867">
  <ele>-0.13</ele>
  <time>2026-09-02T22:08:25Z</time>
  <course>0.0</course>
  <speed>0.0</speed>
  <fix>3d</fix>
</trkpt>
<trkpt lat="33.810313" lon="-118.393867">
  <ele>0.0</ele>
  <time>2026-09-02T22:08:25Z</time>
  <course>187.44</course>
  <speed>0.0</speed>
  <fix>3d</fix>
</trkpt>
<trkpt lat="33.810313" lon="-118.393867">
  <ele>-0.13</ele>
  <time>2026-09-02T22:08:25Z</time>
  <course>0.0</course>
  <speed>0.0</speed>
  <fix>3d</fix>
</trkpt>
<trkpt lat="33.810313" lon="-118.393867">
  <ele>0.0</ele>
  <time>2026-09-02T22:08:25Z</time>
  <course>187.51</course>
  <speed>0.0</speed>
  <fix>3d</fix>
</trkpt>
<trkpt lat="33.810313" lon="-118.393867">
  <ele>-0.13</ele>
  <time>2026-09-02T22:08:25Z</time>
  <course>0.0</course>
  <speed>0.0</speed>
  <fix>3d</fix>
</trkpt>
<trkpt lat="33.810313" lon="-118.393867">
  <ele>0.0</ele>
  <time>2026-09-02T22:08:25Z</time>
  <course>187.57</course>
  <speed>0.0</speed>
  <fix>3d</fix>
</trkpt>
<trkpt lat="33.810313" lon="-118.393867">
  <ele>-0.13</ele>
  <time>2026-09-02T22:08:25Z</time>
  <course>0.0</course>
  <speed>0.0</speed>
  <fix>3d</fix>
</trkpt>
<trkpt lat="33.810313" lon="-118.393867">
  <ele>0.0</ele>
  <time>2026-09-02T22:08:25Z</time>
  <course>187.63</course>
  <speed>0.0</speed>
  <fix>3d</fix>
</trkpt>
<trkpt lat="33.810313" lon="-118.393867">
  <ele>-0.12</ele>
  <time>2026-09-02T22:08:25Z</time>
  <course>0.0</course>
  <speed>0.0</speed>
  <fix>3d</fix>
</trkpt>
<trkpt lat="33.810313" lon="-118.393867">
  <ele>0.0</ele>
  <time>2026-09-02T22:08:25Z</time>
  <course>187.68</course>
  <speed>0.0</speed>
  <fix>3d</fix>
</trkpt>
<trkpt lat="33.810313" lon="-118.393867">
  <ele>-0.12</ele>
  <time>2026-09-02T22:08:25Z</time>
  <course>0.0</course>
  <speed>0.0</speed>
  <fix>3d</fix>
</trkpt>
<trkpt lat="33.810313" lon="-118.393867">
  <ele>0.0</ele>
  <time>2026-09-02T22:08:25Z</time>
  <course>187.74</course>
  <speed>0.0</speed>
  <fix>3d</fix>
</trkpt>
<trkpt lat="33.810313" lon="-118.393867">
  <ele>-0.12</ele>
  <time>2026-09-02T22:08:25Z</time>
  <course>0.0</course>
  <speed>0.0</speed>
  <fix>3d</fix>
</trkpt>
<trkpt lat="33.810313" lon="-118.393867">
  <ele>0.0</ele>
  <time>2026-09-02T22:08:25Z</time>
  <course>187.79</course>
  <speed>0.0</speed>
  <fix>3d</fix>
</trkpt>
<trkpt lat="33.810313" lon="-118.393867">
  <ele>-0.12</ele>
  <time>2026-09-02T22:08:25Z</time>
  <course>0.0</course>
  <speed>0.0</speed>
  <fix>3d</fix>
</trkpt>
<trkpt lat="33.810313" lon="-118.393867">
  <ele>0.0</ele>
  <time>2026-09-02T22:08:25Z</time>
  <course>187.83</course>
  <speed>0.0</speed>
  <fix>3d</fix>
</trkpt>
<trkpt lat="33.810313" lon="-118.393867">
  <ele>-0.12</ele>
  <time>2026-09-02T22:08:25Z</time>
  <course>0.0</course>
  <speed>0.0</speed>
  <fix>3d</fix>
</trkpt>
<trkpt lat="33.810313" lon="-118.393867">
  <ele>0.0</ele>
  <time>2026-09-02T22:08:25Z</time>
  <course>187.88</course>
  <speed>0.0</speed>
  <fix>3d</fix>
</trkpt>
<trkpt lat="33.810313" lon="-118.393867">
  <ele>-0.12</ele>
  <time>2026-09-02T22:08:25Z</time>
  <course>0.0</course>
  <speed>0.0</speed>
  <fix>3d</fix>
</trkpt>
<trkpt lat="33.810313" lon="-118.393867">
  <ele>0.0</ele>
  <time>2026-09-02T22:08:25Z</time>
  <course>187.92</course>
  <speed>0.0</speed>
  <fix>3d</fix>
</trkpt>
<trkpt lat="33.810313" lon="-118.393867">
  <ele>-0.12</ele>
  <time>2026-09-02T22:08:25Z</time>
  <course>0.0</course>
  <speed>0.0</speed>
  <fix>3d</fix>
</trkpt>
<trkpt lat="33.810313" lon="-118.393867">
  <ele>0.0</ele>
  <time>2026-09-02T22:08:25Z</time>
  <course>187.96</course>
  <speed>0.0</speed>
  <fix>3d</fix>
</trkpt>
<trkpt lat="33.810313" lon="-118.393867">
  <ele>-0.12</ele>
  <time>2026-09-02T22:08:25Z</time>
  <course>0.0</course>
  <speed>0.0</speed>
  <fix>3d</fix>
</trkpt>
<trkpt lat="33.810313" lon="-118.393867">
  <ele>0.0</ele>
  <time>2026-09-02T22:08:25Z</time>
  <course>188.0</course>
  <speed>0.0</speed>
  <fix>3d</fix>
</trkpt>
<trkpt lat="33.810313" lon="-118.393867">
  <ele>-0.12</ele>
  <time>2026-09-02T22:08:25Z</time>
  <course>0.0</course>
  <speed>0.0</speed>
  <fix>3d</fix>
</trkpt>
<trkpt lat="33.810313" lon="-118.393867">
  <ele>0.0</ele>
  <time>2026-09-02T22:08:25Z</time>
  <course>188.04</course>
  <speed>0.0</speed>
  <fix>3d</fix>
</trkpt>
<trkpt lat="33.810313" lon="-118.393867">
  <ele>-0.12</ele>
  <time>2026-09-02T22:08:25Z</time>
  <course>0.0</course>
  <speed>0.0</speed>
  <fix>3d</fix>
</trkpt>
<trkpt lat="33.810313" lon="-118.393867">
  <ele>0.0</ele>
  <time>2026-09-02T22:08:25Z</time>
  <course>188.07</course>
  <speed>0.0</speed>
  <fix>3d</fix>
</trkpt>
<trkpt lat="33.810313" lon="-118.393867">
  <ele>-0.13</ele>
  <time>2026-09-02T22:08:25Z</time>
  <course>0.0</course>
  <speed>0.0</speed>
  <fix>3d</fix>
</trkpt>
<trkpt lat="33.810313" lon="-118.393867">
  <ele>0.0</ele>
  <time>2026-09-02T22:08:25Z</time>
  <course>188.11</course>
  <speed>0.0</speed>
  <fix>3d</fix>
</trkpt>
<trkpt lat="33.810313" lon="-118.393867">
  <ele>-0.13</ele>
  <time>2026-09-02T22:08:25Z</time>
  <course>0.0</course>
  <speed>0.0</speed>
  <fix>3d</fix>
</trkpt>
<trkpt lat="33.810313" lon="-118.393867">
  <ele>0.0</ele>
  <time>2026-09-02T22:08:25Z</time>
  <course>188.14</course>
  <speed>0.0</speed>
  <fix>3d</fix>
</trkpt>
<trkpt lat="33.810313" lon="-118.393867">
  <ele>-0.13</ele>
  <time>2026-09-02T22:08:25Z</time>
  <course>0.0</course>
  <speed>0.0</speed>
  <fix>3d</fix>
</trkpt>
<trkpt lat="33.810313" lon="-118.393867">
  <ele>0.0</ele>
  <time>2026-09-02T22:08:25Z</time>
  <course>188.17</course>
  <speed>0.0</speed>
  <fix>3d</fix>
</trkpt>
<trkpt lat="33.810313" lon="-118.393867">
  <ele>-0.13</ele>
  <time>2026-09-02T22:08:25Z</time>
  <course>0.0</course>
  <speed>0.0</speed>
  <fix>3d</fix>
</trkpt>
<trkpt lat="33.810313" lon="-118.393867">
  <ele>0.0</ele>
  <time>2026-09-02T22:08:25Z</time>
  <course>188.19</course>
  <speed>0.0</speed>
  <fix>3d</fix>
</trkpt>
<trkpt lat="33.810313" lon="-118.393867">
  <ele>-0.13</ele>
  <time>2026-09-02T22:08:25Z</time>
  <course>0.0</course>
  <speed>0.0</speed>
  <fix>3d</fix>
</trkpt>
<trkpt lat="33.810313" lon="-118.393867">
  <ele>0.0</ele>
  <time>2026-09-02T22:08:25Z</time>
  <course>188.22</course>
  <speed>0.0</speed>
  <fix>3d</fix>
</trkpt>
<trkpt lat="33.810313" lon="-118.393867">
  <ele>-0.13</ele>
  <time>2026-09-02T22:08:25Z</time>
  <course>0.0</course>
  <speed>0.0</speed>
  <fix>3d</fix>
</trkpt>
<trkpt lat="33.810313" lon="-118.393867">
  <ele>0.0</ele>
  <time>2026-09-02T22:08:25Z</time>
  <course>188.25</course>
  <speed>0.0</speed>
  <fix>3d</fix>
</trkpt>
<trkpt lat="33.810313" lon="-118.393867">
  <ele>-0.12</ele>
  <time>2026-09-02T22:08:25Z</time>
  <course>0.0</course>
  <speed>0.0</speed>
  <fix>3d</fix>
</trkpt>
<trkpt lat="33.810313" lon="-118.393867">
  <ele>0.0</ele>
  <time>2026-09-02T22:08:25Z</time>
  <course>188.27</course>
  <speed>0.01</speed>
  <fix>3d</fix>
</trkpt>
<trkpt lat="33.810313" lon="-118.393867">
  <ele>-0.12</ele>
  <time>2026-09-02T22:08:25Z</time>
  <course>0.0</course>
  <speed>0.0</speed>
  <fix>3d</fix>
</trkpt>
<trkpt lat="33.810313" lon="-118.393867">
  <ele>0.0</ele>
  <time>2026-09-02T22:08:25Z</time>
  <course>188.29</course>
  <speed>0.01</speed>
  <fix>3d</fix>
</trkpt>
<trkpt lat="33.810313" lon="-118.393867">
  <ele>-0.12</ele>
  <time>2026-09-02T22:08:25Z</time>
  <course>0.0</course>
  <speed>0.0</speed>
  <fix>3d</fix>
</trkpt>
<trkpt lat="33.810313" lon="-118.393867">
  <ele>0.0</ele>
  <time>2026-09-02T22:08:25Z</time>
  <course>188.31</course>
  <speed>0.01</speed>
  <fix>3d</fix>
</trkpt>
<trkpt lat="33.810313" lon="-118.393867">
  <ele>-0.12</ele>
  <time>2026-09-02T22:08:25Z</time>
  <course>0.0</course>
  <speed>0.0</speed>
  <fix>3d</fix>
</trkpt>
<trkpt lat="33.810313" lon="-118.393867">
  <ele>0.0</ele>
  <time>2026-09-02T22:08:25Z</time>
  <course>188.33</course>
  <speed>0.01</speed>
  <fix>3d</fix>
</trkpt>
<trkpt lat="33.810313" lon="-118.393867">
  <ele>-0.12</ele>
  <time>2026-09-02T22:08:25Z</time>
  <course>0.0</course>
  <speed>0.0</speed>
  <fix>3d</fix>
</trkpt>
<trkpt lat="33.810313" lon="-118.393867">
  <ele>0.0</ele>
  <time>2026-09-02T22:08:25Z</time>
  <course>188.35</course>
  <speed>0.01414213562373095</speed>
  <fix>3d</fix>
</trkpt>
<trkpt lat="33.810313" lon="-118.393867">
  <ele>-0.12</ele>
  <time>2026-09-02T22:08:25Z</time>
  <course>0.0</course>
  <speed>0.0</speed>
  <fix>3d</fix>
</trkpt>
<trkpt lat="33.810313" lon="-118.393867">
  <ele>0.0</ele>
  <time>2026-09-02T22:08:25Z</time>
  <course>188.37</course>
  <speed>0.01414213562373095</speed>
  <fix>3d</fix>
</trkpt>
<trkpt lat="33.810313" lon="-118.393867">
  <ele>-0.12</ele>
  <time>2026-09-02T22:08:25Z</time>
  <course>0.0</course>
  <speed>0.0</speed>
  <fix>3d</fix>
</trkpt>
<trkpt lat="33.810313" lon="-118.393867">
  <ele>0.0</ele>
  <time>2026-09-02T22:08:25Z</time>
  <course>188.38</course>
  <speed>0.01414213562373095</speed>
  <fix>3d</fix>
</trkpt>
<trkpt lat="33.810313" lon="-118.393867">
  <ele>-0.12</ele>
  <time>2026-09-02T22:08:25Z</time>
  <course>0.0</course>
  <speed>0.0</speed>
  <fix>3d</fix>
</trkpt>
<trkpt lat="33.810313" lon="-118.393867">
  <ele>0.0</ele>
  <time>2026-09-02T22:08:25Z</time>
  <course>188.4</course>
  <speed>0.01414213562373095</speed>
  <fix>3d</fix>
</trkpt>
<trkpt lat="33.810313" lon="-118.393867">
  <ele>-0.12</ele>
  <time>2026-09-02T22:08:25Z</time>
  <course>0.0</course>
  <speed>0.0</speed>
  <fix>3d</fix>
</trkpt>
<trkpt lat="33.810313" lon="-118.393867">
  <ele>0.0</ele>
  <time>2026-09-02T22:08:25Z</time>
  <course>188.41</course>
  <speed>0.01414213562373095</speed>
  <fix>3d</fix>
</trkpt>
<trkpt lat="33.810313" lon="-118.393867">
  <ele>-0.12</ele>
  <time>2026-09-02T22:08:25Z</time>
  <course>0.0</course>
  <speed>0.0</speed>
  <fix>3d</fix>
</trkpt>
<trkpt lat="33.810313" lon="-118.393867">
  <ele>0.0</ele>
  <time>2026-09-02T22:08:25Z</time>
  <course>188.42</course>
  <speed>0.01414213562373095</speed>
  <fix>3d</fix>
</trkpt>
<trkpt lat="33.810313" lon="-118.393867">
  <ele>-0.13</ele>
  <time>2026-09-02T22:08:25Z</time>
  <course>0.0</course>
  <speed>0.0</speed>
  <fix>3d</fix>
</trkpt>
<trkpt lat="33.810313" lon="-118.393867">
  <ele>0.0</ele>
  <time>2026-09-02T22:08:25Z</time>
  <course>188.44</course>
  <speed>0.01414213562373095</speed>
  <fix>3d</fix>
</trkpt>
<trkpt lat="33.810313" lon="-118.393867">
  <ele>-0.13</ele>
  <time>2026-09-02T22:08:25Z</time>
  <course>0.0</course>
  <speed>0.0</speed>
  <fix>3d</fix>
</trkpt>
<trkpt lat="33.810313" lon="-118.393867">
  <ele>0.0</ele>
  <time>2026-09-02T22:08:25Z</time>
  <course>188.45</course>
  <speed>0.01414213562373095</speed>
  <fix>3d</fix>
</trkpt>
<trkpt lat="33.810313" lon="-118.393867">
  <ele>-0.13</ele>
  <time>2026-09-02T22:08:25Z</time>
  <course>0.0</course>
  <speed>0.0</speed>
  <fix>3d</fix>
</trkpt>
<trkpt lat="33.810313" lon="-118.393867">
  <ele>0.0</ele>
  <time>2026-09-02T22:08:25Z</time>
  <course>188.46</course>
  <speed>0.01414213562373095</speed>
  <fix>3d</fix>
</trkpt>
<trkpt lat="33.810313" lon="-118.393867">
  <ele>-0.13</ele>
  <time>2026-09-02T22:08:25Z</time>
  <course>0.0</course>
  <speed>0.0</speed>
  <fix>3d</fix>
</trkpt>
<trkpt lat="33.810313" lon="-118.393867">
  <ele>0.0</ele>
  <time>2026-09-02T22:08:25Z</time>
  <course>188.47</course>
  <speed>0.01414213562373095</speed>
  <fix>3d</fix>
</trkpt>
<trkpt lat="33.810313" lon="-118.393867">
  <ele>-0.13</ele>
  <time>2026-09-02T22:08:25Z</time>
  <course>0.0</course>
  <speed>0.0</speed>
  <fix>3d</fix>
</trkpt>
<trkpt lat="33.810313" lon="-118.393867">
  <ele>0.0</ele>
  <time>2026-09-02T22:08:25Z</time>
  <course>188.47</course>
  <speed>0.01414213562373095</speed>
  <fix>3d</fix>
</trkpt>
<trkpt lat="33.810313" lon="-118.393867">
  <ele>-0.13</ele>
  <time>2026-09-02T22:08:25Z</time>
  <course>0.0</course>
  <speed>0.0</speed>
  <fix>3d</fix>
</trkpt>
<trkpt lat="33.810313" lon="-118.393867">
  <ele>0.0</ele>
  <time>2026-09-02T22:08:25Z</time>
  <course>188.48</course>
  <speed>0.01414213562373095</speed>
  <fix>3d</fix>
</trkpt>
<trkpt lat="33.810313" lon="-118.393867">
  <ele>-0.12</ele>
  <time>2026-09-02T22:08:25Z</time>
  <course>0.0</course>
  <speed>0.0</speed>
  <fix>3d</fix>
</trkpt>
<trkpt lat="33.810313" lon="-118.393867">
  <ele>0.0</ele>
  <time>2026-09-02T22:08:25Z</time>
  <course>188.49</course>
  <speed>0.01414213562373095</speed>
  <fix>3d</fix>
</trkpt>
<trkpt lat="33.810313" lon="-118.393867">
  <ele>-0.12</ele>
  <time>2026-09-02T22:08:25Z</time>
  <course>0.0</course>
  <speed>0.0</speed>
  <fix>3d</fix>
</trkpt>
<trkpt lat="33.810313" lon="-118.393867">
  <ele>0.0</ele>
  <time>2026-09-02T22:08:25Z</time>
  <course>188.5</course>
  <speed>0.01414213562373095</speed>
  <fix>3d</fix>
</trkpt>
<trkpt lat="33.810313" lon="-118.393867">
  <ele>-0.12</ele>
  <time>2026-09-02T22:08:25Z</time>
  <course>0.0</course>
  <speed>0.0</speed>
  <fix>3d</fix>
</trkpt>
<trkpt lat="33.810313" lon="-118.393867">
  <ele>0.0</ele>
  <time>2026-09-02T22:08:25Z</time>
  <course>188.5</course>
  <speed>0.01414213562373095</speed>
  <fix>3d</fix>
</trkpt>
<trkpt lat="33.810313" lon="-118.393867">
  <ele>-0.12</ele>
  <time>2026-09-02T22:08:25Z</time>
  <course>0.0</course>
  <speed>0.0</speed>
  <fix>3d</fix>
</trkpt>
<trkpt lat="33.810313" lon="-118.393867">
  <ele>0.0</ele>
  <time>2026-09-02T22:08:25Z</time>
  <course>188.51</course>
  <speed>0.01414213562373095</speed>
  <fix>3d</fix>
</trkpt>
<trkpt lat="33.810313" lon="-118.393867">
  <ele>-0.12</ele>
  <time>2026-09-02T22:08:25Z</time>
  <course>0.0</course>
  <speed>0.0</speed>
  <fix>3d</fix>
</trkpt>
<trkpt lat="33.810313" lon="-118.393867">
  <ele>0.0</ele>
  <time>2026-09-02T22:08:25Z</time>
  <course>188.51</course>
  <speed>0.01414213562373095</speed>
  <fix>3d</fix>
</trkpt>
<trkpt lat="33.810313" lon="-118.393867">
  <ele>-0.12</ele>
  <time>2026-09-02T22:08:25Z</time>
  <course>0.0</course>
  <speed>0.0</speed>
  <fix>3d</fix>
</trkpt>
<trkpt lat="33.810313" lon="-118.393867">
  <ele>0.0</ele>
  <time>2026-09-02T22:08:25Z</time>
  <course>188.51</course>
  <speed>0.01414213562373095</speed>
  <fix>3d</fix>
</trkpt>
<trkpt lat="33.810313" lon="-118.393867">
  <ele>-0.12</ele>
  <time>2026-09-02T22:08:25Z</time>
  <course>0.0</course>
  <speed>0.0</speed>
  <fix>3d</fix>
</trkpt>
<trkpt lat="33.810313" lon="-118.393867">
  <ele>0.0</ele>
  <time>2026-09-02T22:08:25Z</time>
  <course>188.52</course>
  <speed>0.01414213562373095</speed>
  <fix>3d</fix>
</trkpt>
<trkpt lat="33.810313" lon="-118.393867">
  <ele>-0.12</ele>
  <time>2026-09-02T22:08:25Z</time>
  <course>0.0</course>
  <speed>0.0</speed>
  <fix>3d</fix>
</trkpt>
<trkpt lat="33.810313" lon="-118.393867">
  <ele>0.0</ele>
  <time>2026-09-02T22:08:25Z</time>
  <course>188.52</course>
  <speed>0.01414213562373095</speed>
  <fix>3d</fix>
</trkpt>
<trkpt lat="33.810313" lon="-118.393867">
  <ele>-0.12</ele>
  <time>2026-09-02T22:08:25Z</time>
  <course>0.0</course>
  <speed>0.0</speed>
  <fix>3d</fix>
</trkpt>
<trkpt lat="33.810313" lon="-118.393867">
  <ele>0.0</ele>
  <time>2026-09-02T22:08:25Z</time>
  <course>188.52</course>
  <speed>0.01414213562373095</speed>
  <fix>3d</fix>
</trkpt>
<trkpt lat="33.810313" lon="-118.393867">
  <ele>-0.12</ele>
  <time>2026-09-02T22:08:25Z</time>
  <course>0.0</course>
  <speed>0.0</speed>
  <fix>3d</fix>
</trkpt>
<trkpt lat="33.810313" lon="-118.393867">
  <ele>-0.126</ele>
  <time>2026-09-02T22:08:25Z</time>
  <course>188.52</course>
  <speed>0.01414213562373095</speed>
  <fix>3d</fix>
</trkpt>
<trkpt lat="33.810313" lon="-118.393867">
  <ele>-0.13</ele>
  <time>2026-09-02T22:08:25Z</time>
  <course>0.0</course>
  <speed>0.0</speed>
  <fix>3d</fix>
</trkpt>
<trkpt lat="33.810313" lon="-118.393867">
  <ele>-0.126</ele>
  <time>2026-09-02T22:08:25Z</time>
  <course>188.52</course>
  <speed>0.01414213562373095</speed>
  <fix>3d</fix>
</trkpt>
<trkpt lat="33.810313" lon="-118.393867">
  <ele>-0.13</ele>
  <time>2026-09-02T22:08:25Z</time>
  <course>0.0</course>
  <speed>0.0</speed>
  <fix>3d</fix>
</trkpt>
<trkpt lat="33.810313" lon="-118.393867">
  <ele>-0.124</ele>
  <time>2026-09-02T22:08:25Z</time>
  <course>188.53</course>
  <speed>0.01414213562373095</speed>
  <fix>3d</fix>
</trkpt>
<trkpt lat="33.810313" lon="-118.393867">
  <ele>-0.13</ele>
  <time>2026-09-02T22:08:25Z</time>
  <course>0.0</course>
  <speed>0.0</speed>
  <fix>3d</fix>
</trkpt>
<trkpt lat="33.810313" lon="-118.393867">
  <ele>-0.123</ele>
  <time>2026-09-02T22:08:25Z</time>
  <course>188.53</course>
  <speed>0.01414213562373095</speed>
  <fix>3d</fix>
</trkpt>
<trkpt lat="33.810313" lon="-118.393867">
  <ele>-0.13</ele>
  <time>2026-09-02T22:08:25Z</time>
  <course>0.0</course>
  <speed>0.0</speed>
  <fix>3d</fix>
</trkpt>
<trkpt lat="33.810313" lon="-118.393867">
  <ele>-0.121</ele>
  <time>2026-09-02T22:08:25Z</time>
  <course>188.53</course>
  <speed>0.01414213562373095</speed>
  <fix>3d</fix>
</trkpt>
<trkpt lat="33.810313" lon="-118.393867">
  <ele>-0.12</ele>
  <time>2026-09-02T22:08:25Z</time>
  <course>0.0</course>
  <speed>0.0</speed>
  <fix>3d</fix>
</trkpt>
<trkpt lat="33.810313" lon="-118.393867">
  <ele>-0.12</ele>
  <time>2026-09-02T22:08:25Z</time>
  <course>188.53</course>
  <speed>0.01414213562373095</speed>
  <fix>3d</fix>
</trkpt>
<trkpt lat="33.810313" lon="-118.393867">
  <ele>-0.12</ele>
  <time>2026-09-02T22:08:25Z</time>
  <course>0.0</course>
  <speed>0.0</speed>
  <fix>3d</fix>
</trkpt>
<trkpt lat="33.810313" lon="-118.393867">
  <ele>-0.119</ele>
  <time>2026-09-02T22:08:25Z</time>
  <course>188.53</course>
  <speed>0.01414213562373095</speed>
  <fix>3d</fix>
</trkpt>
<trkpt lat="33.810313" lon="-118.393867">
  <ele>-0.12</ele>
  <time>2026-09-02T22:08:25Z</time>
  <course>0.0</course>
  <speed>0.0</speed>
  <fix>3d</fix>
</trkpt>
<trkpt lat="33.810313" lon="-118.393867">
  <ele>-0.12</ele>
  <time>2026-09-02T22:08:25Z</time>
  <course>188.52</course>
  <speed>0.01414213562373095</speed>
  <fix>3d</fix>
</trkpt>
<trkpt lat="33.810313" lon="-118.393867">
  <ele>-0.12</ele>
  <time>2026-09-02T22:08:25Z</time>
  <course>0.0</course>
  <speed>0.0</speed>
  <fix>3d</fix>
</trkpt>
<trkpt lat="33.810313" lon="-118.393867">
  <ele>-0.124</ele>
  <time>2026-09-02T22:08:25Z</time>
  <course>188.52</course>
  <speed>0.01414213562373095</speed>
  <fix>3d</fix>
</trkpt>
<trkpt lat="33.810313" lon="-118.393867">
  <ele>-0.12</ele>
  <time>2026-09-02T22:08:25Z</time>
  <course>0.0</course>
  <speed>0.0</speed>
  <fix>3d</fix>
</trkpt>
<trkpt lat="33.810313" lon="-118.393867">
  <ele>-0.127</ele>
  <time>2026-09-02T22:08:25Z</time>
  <course>188.52</course>
  <speed>0.01414213562373095</speed>
  <fix>3d</fix>
</trkpt>
<trkpt lat="33.810313" lon="-118.393867">
  <ele>-0.12</ele>
  <time>2026-09-02T22:08:25Z</time>
  <course>0.0</course>
  <speed>0.0</speed>
  <fix>3d</fix>
</trkpt>
<trkpt lat="33.810313" lon="-118.393867">
  <ele>-0.13</ele>
  <time>2026-09-02T22:08:25Z</time>
  <course>188.52</course>
  <speed>0.01414213562373095</speed>
  <fix>3d</fix>
</trkpt>
<trkpt lat="33.810313" lon="-118.393867">
  <ele>-0.12</ele>
  <time>2026-09-02T22:08:25Z</time>
  <course>0.0</course>
  <speed>0.0</speed>
  <fix>3d</fix>
</trkpt>
<trkpt lat="33.810313" lon="-118.393867">
  <ele>-0.132</ele>
  <time>2026-09-02T22:08:25Z</time>
  <course>188.52</course>
  <speed>0.01414213562373095</speed>
  <fix>3d</fix>
</trkpt>
<trkpt lat="33.810313" lon="-118.393867">
  <ele>-0.12</ele>
  <time>2026-09-02T22:08:25Z</time>
  <course>0.0</course>
  <speed>0.0</speed>
  <fix>3d</fix>
</trkpt>
<trkpt lat="33.810313" lon="-118.393867">
  <ele>-0.132</ele>
  <time>2026-09-02T22:08:25Z</time>
  <course>188.51</course>
  <speed>0.01414213562373095</speed>
  <fix>3d</fix>
</trkpt>
<trkpt lat="33.810313" lon="-118.393867">
  <ele>-0.12</ele>
  <time>2026-09-02T22:08:25Z</time>
  <course>0.0</course>
  <speed>0.0</speed>
  <fix>3d</fix>
</trkpt>
<trkpt lat="33.810313" lon="-118.393867">
  <ele>-0.132</ele>
  <time>2026-09-02T22:08:25Z</time>
  <course>188.52</course>
  <speed>0.01414213562373095</speed>
  <fix>3d</fix>
</trkpt>
<trkpt lat="33.810313" lon="-118.393867">
  <ele>-0.12</ele>
  <time>2026-09-02T22:08:25Z</time>
  <course>0.0</course>
  <speed>0.0</speed>
  <fix>3d</fix>
</trkpt>
<trkpt lat="33.810313" lon="-118.393867">
  <ele>-0.132</ele>
  <time>2026-09-02T22:08:25Z</time>
  <course>188.52</course>
  <speed>0.01414213562373095</speed>
  <fix>3d</fix>
</trkpt>
<trkpt lat="33.810313" lon="-118.393867">
  <ele>-0.12</ele>
  <time>2026-09-02T22:08:25Z</time>
  <course>0.0</course>
  <speed>0.0</speed>
  <fix>3d</fix>
</trkpt>
<trkpt lat="33.810313" lon="-118.393867">
  <ele>-0.131</ele>
  <time>2026-09-02T22:08:25Z</time>
  <course>188.51</course>
  <speed>0.01414213562373095</speed>
  <fix>3d</fix>
</trkpt>
<trkpt lat="33.810313" lon="-118.393867">
  <ele>-0.12</ele>
  <time>2026-09-02T22:08:25Z</time>
  <course>0.0</course>
  <speed>0.0</speed>
  <fix>3d</fix>
</trkpt>
<trkpt lat="33.810313" lon="-118.393867">
  <ele>-0.129</ele>
  <time>2026-09-02T22:08:25Z</time>
  <course>188.51</course>
  <speed>0.01414213562373095</speed>
  <fix>3d</fix>
</trkpt>
<trkpt lat="33.810313" lon="-118.393867">
  <ele>-0.13</ele>
  <time>2026-09-02T22:08:25Z</time>
  <course>0.0</course>
  <speed>0.0</speed>
  <fix>3d</fix>
</trkpt>
<trkpt lat="33.810313" lon="-118.393867">
  <ele>-0.128</ele>
  <time>2026-09-02T22:08:25Z</time>
  <course>188.5</course>
  <speed>0.022360679774997897</speed>
  <fix>3d</fix>
</trkpt>
<trkpt lat="33.810313" lon="-118.393867">
  <ele>-0.13</ele>
  <time>2026-09-02T22:08:25Z</time>
  <course>0.0</course>
  <speed>0.0</speed>
  <fix>3d</fix>
</trkpt>
<trkpt lat="33.810313" lon="-118.393867">
  <ele>-0.125</ele>
  <time>2026-09-02T22:08:25Z</time>
  <course>188.5</course>
  <speed>0.022360679774997897</speed>
  <fix>3d</fix>
</trkpt>
<trkpt lat="33.810313" lon="-118.393867">
  <ele>-0.12</ele>
  <time>2026-09-02T22:08:25Z</time>
  <course>0.0</course>
  <speed>0.0</speed>
  <fix>3d</fix>
</trkpt>
<trkpt lat="33.810313" lon="-118.393867">
  <ele>-0.123</ele>
  <time>2026-09-02T22:08:25Z</time>
  <course>188.49</course>
  <speed>0.022360679774997897</speed>
  <fix>3d</fix>
</trkpt>
<trkpt lat="33.810313" lon="-118.393867">
  <ele>-0.12</ele>
  <time>2026-09-02T22:08:25Z</time>
  <course>0.0</course>
  <speed>0.0</speed>
  <fix>3d</fix>
</trkpt>
<trkpt lat="33.810313" lon="-118.393867">
  <ele>-0.121</ele>
  <time>2026-09-02T22:08:25Z</time>
  <course>188.49</course>
  <speed>0.022360679774997897</speed>
  <fix>3d</fix>
</trkpt>
<trkpt lat="33.810313" lon="-118.393867">
  <ele>-0.12</ele>
  <time>2026-09-02T22:08:25Z</time>
  <course>0.0</course>
  <speed>0.0</speed>
  <fix>3d</fix>
</trkpt>
<trkpt lat="33.810313" lon="-118.393867">
  <ele>-0.121</ele>
  <time>2026-09-02T22:08:25Z</time>
  <course>188.48</course>
  <speed>0.0282842712474619</speed>
  <fix>3d</fix>
</trkpt>
<trkpt lat="33.810313" lon="-118.393867">
  <ele>-0.12</ele>
  <time>2026-09-02T22:08:25Z</time>
  <course>0.0</course>
  <speed>0.0</speed>
  <fix>3d</fix>
</trkpt>
<trkpt lat="33.810313" lon="-118.393867">
  <ele>-0.122</ele>
  <time>2026-09-02T22:08:25Z</time>
  <course>188.48</course>
  <speed>0.0282842712474619</speed>
  <fix>3d</fix>
</trkpt>
<trkpt lat="33.810313" lon="-118.393867">
  <ele>-0.12</ele>
  <time>2026-09-02T22:08:25Z</time>
  <course>0.0</course>
  <speed>0.0</speed>
  <fix>3d</fix>
</trkpt>
<trkpt lat="33.810313" lon="-118.393867">
  <ele>-0.123</ele>
  <time>2026-09-02T22:08:25Z</time>
  <course>188.47</course>
  <speed>0.0282842712474619</speed>
  <fix>3d</fix>
</trkpt>
<trkpt lat="33.810313" lon="-118.393867">
  <ele>-0.12</ele>
  <time>2026-09-02T22:08:25Z</time>
  <course>0.0</course>
  <speed>0.0</speed>
  <fix>3d</fix>
</trkpt>
<trkpt lat="33.810313" lon="-118.393867">
  <ele>-0.126</ele>
  <time>2026-09-02T22:08:25Z</time>
  <course>188.47</course>
  <speed>0.0282842712474619</speed>
  <fix>3d</fix>
</trkpt>
<trkpt lat="33.810313" lon="-118.393867">
  <ele>-0.12</ele>
  <time>2026-09-02T22:08:25Z</time>
  <course>0.0</course>
  <speed>0.0</speed>
  <fix>3d</fix>
</trkpt>
<trkpt lat="33.810313" lon="-118.393867">
  <ele>-0.127</ele>
  <time>2026-09-02T22:08:25Z</time>
  <course>188.46</course>
  <speed>0.0282842712474619</speed>
  <fix>3d</fix>
</trkpt>
<trkpt lat="33.810313" lon="-118.393867">
  <ele>-0.12</ele>
  <time>2026-09-02T22:08:25Z</time>
  <course>0.0</course>
  <speed>0.0</speed>
  <fix>3d</fix>
</trkpt>
<trkpt lat="33.810313" lon="-118.393867">
  <ele>-0.128</ele>
  <time>2026-09-02T22:08:25Z</time>
  <course>188.46</course>
  <speed>0.0282842712474619</speed>
  <fix>3d</fix>
</trkpt>
<trkpt lat="33.810313" lon="-118.393867">
  <ele>-0.12</ele>
  <time>2026-09-02T22:08:25Z</time>
  <course>0.0</course>
  <speed>0.0</speed>
  <fix>3d</fix>
</trkpt>
<trkpt lat="33.810313" lon="-118.393867">
  <ele>-0.127</ele>
  <time>2026-09-02T22:08:25Z</time>
  <course>188.45</course>
  <speed>0.0282842712474619</speed>
  <fix>3d</fix>
</trkpt>
<trkpt lat="33.810313" lon="-118.393867">
  <ele>-0.12</ele>
  <time>2026-09-02T22:08:25Z</time>
  <course>0.0</course>
  <speed>0.0</speed>
  <fix>3d</fix>
</trkpt>
<trkpt lat="33.810313" lon="-118.393867">
  <ele>-0.127</ele>
  <time>2026-09-02T22:08:25Z</time>
  <course>188.44</course>
  <speed>0.0282842712474619</speed>
  <fix>3d</fix>
</trkpt>
<trkpt lat="33.810313" lon="-118.393867">
  <ele>-0.12</ele>
  <time>2026-09-02T22:08:25Z</time>
  <course>0.0</course>
  <speed>0.0</speed>
  <fix>3d</fix>
</trkpt>
<trkpt lat="33.810313" lon="-118.393867">
  <ele>-0.127</ele>
  <time>2026-09-02T22:08:25Z</time>
  <course>188.44</course>
  <speed>0.0282842712474619</speed>
  <fix>3d</fix>
</trkpt>
<trkpt lat="33.810313" lon="-118.393867">
  <ele>-0.12</ele>
  <time>2026-09-02T22:08:25Z</time>
  <course>0.0</course>
  <speed>0.0</speed>
  <fix>3d</fix>
</trkpt>
<trkpt lat="33.810313" lon="-118.393867">
  <ele>-0.127</ele>
  <time>2026-09-02T22:08:25Z</time>
  <course>188.43</course>
  <speed>0.0282842712474619</speed>
  <fix>3d</fix>
</trkpt>
<trkpt lat="33.810313" lon="-118.393867">
  <ele>-0.12</ele>
  <time>2026-09-02T22:08:25Z</time>
  <course>0.0</course>
  <speed>0.0</speed>
  <fix>3d</fix>
</trkpt>
<trkpt lat="33.810313" lon="-118.393867">
  <ele>-0.126</ele>
  <time>2026-09-02T22:08:25Z</time>
  <course>188.42</course>
  <speed>0.0282842712474619</speed>
  <fix>3d</fix>
</trkpt>
<trkpt lat="33.810313" lon="-118.393867">
  <ele>-0.12</ele>
  <time>2026-09-02T22:08:25Z</time>
  <course>0.0</course>
  <speed>0.0</speed>
  <fix>3d</fix>
</trkpt>
<trkpt lat="33.810313" lon="-118.393867">
  <ele>-0.126</ele>
  <time>2026-09-02T22:08:25Z</time>
  <course>188.42</course>
  <speed>0.0282842712474619</speed>
  <fix>3d</fix>
</trkpt>
<trkpt lat="33.810313" lon="-118.393867">
  <ele>-0.12</ele>
  <time>2026-09-02T22:08:25Z</time>
  <course>0.0</course>
  <speed>0.0</speed>
  <fix>3d</fix>
</trkpt>
<trkpt lat="33.810313" lon="-118.393867">
  <ele>-0.126</ele>
  <time>2026-09-02T22:08:25Z</time>
  <course>188.41</course>
  <speed>0.0282842712474619</speed>
  <fix>3d</fix>
</trkpt>
<trkpt lat="33.810313" lon="-118.393867">
  <ele>-0.12</ele>
  <time>2026-09-02T22:08:25Z</time>
  <course>0.0</course>
  <speed>0.0</speed>
  <fix>3d</fix>
</trkpt>
<trkpt lat="33.810313" lon="-118.393867">
  <ele>-0.125</ele>
  <time>2026-09-02T22:08:25Z</time>
  <course>188.4</course>
  <speed>0.0282842712474619</speed>
  <fix>3d</fix>
</trkpt>
<trkpt lat="33.810313" lon="-118.393867">
  <ele>-0.12</ele>
  <time>2026-09-02T22:08:25Z</time>
  <course>0.0</course>
  <speed>0.0</speed>
  <fix>3d</fix>
</trkpt>
<trkpt lat="33.810313" lon="-118.393867">
  <ele>-0.126</ele>
  <time>2026-09-02T22:08:25Z</time>
  <course>188.4</course>
  <speed>0.0282842712474619</speed>
  <fix>3d</fix>
</trkpt>
<trkpt lat="33.810313" lon="-118.393867">
  <ele>-0.12</ele>
  <time>2026-09-02T22:08:25Z</time>
  <course>0.0</course>
  <speed>0.0</speed>
  <fix>3d</fix>
</trkpt>
<trkpt lat="33.810313" lon="-118.393867">
  <ele>-0.127</ele>
  <time>2026-09-02T22:08:25Z</time>
  <course>188.39</course>
  <speed>0.0282842712474619</speed>
  <fix>3d</fix>
</trkpt>
<trkpt lat="33.810313" lon="-118.393867">
  <ele>-0.12</ele>
  <time>2026-09-02T22:08:25Z</time>
  <course>0.0</course>
  <speed>0.0</speed>
  <fix>3d</fix>
</trkpt>
<trkpt lat="33.810313" lon="-118.393867">
  <ele>-0.128</ele>
  <time>2026-09-02T22:08:25Z</time>
  <course>188.38</course>
  <speed>0.0282842712474619</speed>
  <fix>3d</fix>
</trkpt>
<trkpt lat="33.810313" lon="-118.393867">
  <ele>-0.12</ele>
  <time>2026-09-02T22:08:25Z</time>
  <course>0.0</course>
  <speed>0.0</speed>
  <fix>3d</fix>
</trkpt>
<trkpt lat="33.810313" lon="-118.393867">
  <ele>-0.129</ele>
  <time>2026-09-02T22:08:25Z</time>
  <course>188.37</course>
  <speed>0.0282842712474619</speed>
  <fix>3d</fix>
</trkpt>
<trkpt lat="33.810313" lon="-118.393867">
  <ele>-0.12</ele>
  <time>2026-09-02T22:08:25Z</time>
  <course>0.0</course>
  <speed>0.0</speed>
  <fix>3d</fix>
</trkpt>
<trkpt lat="33.810313" lon="-118.393867">
  <ele>-0.129</ele>
  <time>2026-09-02T22:08:25Z</time>
  <course>188.37</course>
  <speed>0.0282842712474619</speed>
  <fix>3d</fix>
</trkpt>
<trkpt lat="33.810313" lon="-118.393867">
  <ele>-0.12</ele>
  <time>2026-09-02T22:08:25Z</time>
  <course>0.0</course>
  <speed>0.0</speed>
  <fix>3d</fix>
</trkpt>
<trkpt lat="33.810313" lon="-118.393867">
  <ele>-0.13</ele>
  <time>2026-09-02T22:08:25Z</time>
  <course>188.36</course>
  <speed>0.0282842712474619</speed>
  <fix>3d</fix>
</trkpt>
<trkpt lat="33.810313" lon="-118.393867">
  <ele>-0.12</ele>
  <time>2026-09-02T22:08:25Z</time>
  <course>0.0</course>
  <speed>0.0</speed>
  <fix>3d</fix>
</trkpt>
<trkpt lat="33.810313" lon="-118.393867">
  <ele>-0.13</ele>
  <time>2026-09-02T22:08:25Z</time>
  <course>188.35</course>
  <speed>0.0282842712474619</speed>
  <fix>3d</fix>
</trkpt>
<trkpt lat="33.810313" lon="-118.393867">
  <ele>-0.12</ele>
  <time>2026-09-02T22:08:25Z</time>
  <course>0.0</course>
  <speed>0.0</speed>
  <fix>3d</fix>
</trkpt>
<trkpt lat="33.810313" lon="-118.393867">
  <ele>-0.13</ele>
  <time>2026-09-02T22:08:25Z</time>
  <course>188.35</course>
  <speed>0.0282842712474619</speed>
  <fix>3d</fix>
</trkpt>
<trkpt lat="33.810313" lon="-118.393867">
  <ele>-0.12</ele>
  <time>2026-09-02T22:08:25Z</time>
  <course>0.0</course>
  <speed>0.0</speed>
  <fix>3d</fix>
</trkpt>
<trkpt lat="33.810313" lon="-118.393867">
  <ele>-0.129</ele>
  <time>2026-09-02T22:08:25Z</time>
  <course>188.34</course>
  <speed>0.0282842712474619</speed>
  <fix>3d</fix>
</trkpt>
<trkpt lat="33.810313" lon="-118.393867">
  <ele>-0.12</ele>
  <time>2026-09-02T22:08:25Z</time>
  <course>0.0</course>
  <speed>0.0</speed>
  <fix>3d</fix>
</trkpt>
<trkpt lat="33.810313" lon="-118.393867">
  <ele>-0.128</ele>
  <time>2026-09-02T22:08:25Z</time>
  <course>188.33</course>
  <speed>0.0282842712474619</speed>
  <fix>3d</fix>
</trkpt>
<trkpt lat="33.810313" lon="-118.393867">
  <ele>-0.12</ele>
  <time>2026-09-02T22:08:25Z</time>
  <course>0.0</course>
  <speed>0.0</speed>
  <fix>3d</fix>
</trkpt>
<trkpt lat="33.810313" lon="-118.393867">
  <ele>-0.126</ele>
  <time>2026-09-02T22:08:25Z</time>
  <course>188.32</course>
  <speed>0.0282842712474619</speed>
  <fix>3d</fix>
</trkpt>
<trkpt lat="33.810313" lon="-118.393867">
  <ele>-0.12</ele>
  <time>2026-09-02T22:08:25Z</time>
  <course>0.0</course>
  <speed>0.0</speed>
  <fix>3d</fix>
</trkpt>
<trkpt lat="33.810313" lon="-118.393867">
  <ele>-0.124</ele>
  <time>2026-09-02T22:08:25Z</time>
  <course>188.32</course>
  <speed>0.0282842712474619</speed>
  <fix>3d</fix>
</trkpt>
<trkpt lat="33.810313" lon="-118.393867">
  <ele>-0.12</ele>
  <time>2026-09-02T22:08:25Z</time>
  <course>0.0</course>
  <speed>0.0</speed>
  <fix>3d</fix>
</trkpt>
<trkpt lat="33.810313" lon="-118.393867">
  <ele>-0.122</ele>
  <time>2026-09-02T22:08:25Z</time>
  <course>188.31</course>
  <speed>0.0282842712474619</speed>
  <fix>3d</fix>
</trkpt>
<trkpt lat="33.810313" lon="-118.393867">
  <ele>-0.12</ele>
  <time>2026-09-02T22:08:25Z</time>
  <course>0.0</course>
  <speed>0.0</speed>
  <fix>3d</fix>
</trkpt>
<trkpt lat="33.810313" lon="-118.393867">
  <ele>-0.123</ele>
  <time>2026-09-02T22:08:25Z</time>
  <course>188.3</course>
  <speed>0.0282842712474619</speed>
  <fix>3d</fix>
</trkpt>
<trkpt lat="33.810313" lon="-118.393867">
  <ele>-0.12</ele>
  <time>2026-09-02T22:08:25Z</time>
  <course>0.0</course>
  <speed>0.0</speed>
  <fix>3d</fix>
</trkpt>
<trkpt lat="33.810313" lon="-118.393867">
  <ele>-0.125</ele>
  <time>2026-09-02T22:08:25Z</time>
  <course>188.29</course>
  <speed>0.0282842712474619</speed>
  <fix>3d</fix>
</trkpt>
<trkpt lat="33.810313" lon="-118.393867">
  <ele>-0.12</ele>
  <time>2026-09-02T22:08:25Z</time>
  <course>0.0</course>
  <speed>0.0</speed>
  <fix>3d</fix>
</trkpt>
<trkpt lat="33.810313" lon="-118.393867">
  <ele>-0.128</ele>
  <time>2026-09-02T22:08:25Z</time>
  <course>188.28</course>
  <speed>0.0282842712474619</speed>
  <fix>3d</fix>
</trkpt>
<trkpt lat="33.810313" lon="-118.393867">
  <ele>-0.12</ele>
  <time>2026-09-02T22:08:25Z</time>
  <course>0.0</course>
  <speed>0.0</speed>
  <fix>3d</fix>
</trkpt>
<trkpt lat="33.810313" lon="-118.393867">
  <ele>-0.132</ele>
  <time>2026-09-02T22:08:25Z</time>
  <course>188.28</course>
  <speed>0.0282842712474619</speed>
  <fix>3d</fix>
</trkpt>
<trkpt lat="33.810313" lon="-118.393867">
  <ele>-0.12</ele>
  <time>2026-09-02T22:08:25Z</time>
  <course>0.0</course>
  <speed>0.0</speed>
  <fix>3d</fix>
</trkpt>
<trkpt lat="33.810313" lon="-118.393867">
  <ele>-0.135</ele>
  <time>2026-09-02T22:08:25Z</time>
  <course>188.27</course>
  <speed>0.0282842712474619</speed>
  <fix>3d</fix>
</trkpt>
<trkpt lat="33.810313" lon="-118.393867">
  <ele>-0.12</ele>
  <time>2026-09-02T22:08:25Z</time>
  <course>0.0</course>
  <speed>0.0</speed>
  <fix>3d</fix>
</trkpt>
<trkpt lat="33.810313" lon="-118.393867">
  <ele>-0.135</ele>
  <time>2026-09-02T22:08:25Z</time>
  <course>188.26</course>
  <speed>0.0282842712474619</speed>
  <fix>3d</fix>
</trkpt>
<trkpt lat="33.810313" lon="-118.393867">
  <ele>-0.12</ele>
  <time>2026-09-02T22:08:25Z</time>
  <course>0.0</course>
  <speed>0.0</speed>
  <fix>3d</fix>
</trkpt>
<trkpt lat="33.810313" lon="-118.393867">
  <ele>-0.134</ele>
  <time>2026-09-02T22:08:25Z</time>
  <course>188.25</course>
  <speed>0.0282842712474619</speed>
  <fix>3d</fix>
</trkpt>
<trkpt lat="33.810313" lon="-118.393867">
  <ele>-0.12</ele>
  <time>2026-09-02T22:08:25Z</time>
  <course>0.0</course>
  <speed>0.0</speed>
  <fix>3d</fix>
</trkpt>
<trkpt lat="33.810313" lon="-118.393867">
  <ele>-0.132</ele>
  <time>2026-09-02T22:08:25Z</time>
  <course>188.24</course>
  <speed>0.0282842712474619</speed>
  <fix>3d</fix>
</trkpt>
<trkpt lat="33.810313" lon="-118.393867">
  <ele>-0.12</ele>
  <time>2026-09-02T22:08:25Z</time>
  <course>0.0</course>
  <speed>0.0</speed>
  <fix>3d</fix>
</trkpt>
<trkpt lat="33.810313" lon="-118.393867">
  <ele>-0.129</ele>
  <time>2026-09-02T22:08:25Z</time>
  <course>188.24</course>
  <speed>0.0282842712474619</speed>
  <fix>3d</fix>
</trkpt>
<trkpt lat="33.810313" lon="-118.393867">
  <ele>-0.12</ele>
  <time>2026-09-02T22:08:25Z</time>
  <course>0.0</course>
  <speed>0.0</speed>
  <fix>3d</fix>
</trkpt>
<trkpt lat="33.810313" lon="-118.393867">
  <ele>-0.127</ele>
  <time>2026-09-02T22:08:25Z</time>
  <course>188.23</course>
  <speed>0.0282842712474619</speed>
  <fix>3d</fix>
</trkpt>
<trkpt lat="33.810313" lon="-118.393867">
  <ele>-0.12</ele>
  <time>2026-09-02T22:08:25Z</time>
  <course>0.0</course>
  <speed>0.0</speed>
  <fix>3d</fix>
</trkpt>
<trkpt lat="33.810313" lon="-118.393867">
  <ele>-0.124</ele>
  <time>2026-09-02T22:08:25Z</time>
  <course>188.22</course>
  <speed>0.0282842712474619</speed>
  <fix>3d</fix>
</trkpt>
<trkpt lat="33.810313" lon="-118.393867">
  <ele>-0.12</ele>
  <time>2026-09-02T22:08:25Z</time>
  <course>0.0</course>
  <speed>0.0</speed>
  <fix>3d</fix>
</trkpt>
<trkpt lat="33.810313" lon="-118.393867">
  <ele>-0.123</ele>
  <time>2026-09-02T22:08:25Z</time>
  <course>188.21</course>
  <speed>0.03605551275463989</speed>
  <fix>3d</fix>
</trkpt>
<trkpt lat="33.810313" lon="-118.393867">
  <ele>-0.12</ele>
  <time>2026-09-02T22:08:25Z</time>
  <course>0.0</course>
  <speed>0.0</speed>
  <fix>3d</fix>
</trkpt>
<trkpt lat="33.810313" lon="-118.393867">
  <ele>-0.124</ele>
  <time>2026-09-02T22:08:25Z</time>
  <course>188.2</course>
  <speed>0.03605551275463989</speed>
  <fix>3d</fix>
</trkpt>
<trkpt lat="33.810313" lon="-118.393867">
  <ele>-0.12</ele>
  <time>2026-09-02T22:08:25Z</time>
  <course>0.0</course>
  <speed>0.0</speed>
  <fix>3d</fix>
</trkpt>
<trkpt lat="33.810313" lon="-118.393867">
  <ele>-0.126</ele>
  <time>2026-09-02T22:08:25Z</time>
  <course>188.2</course>
  <speed>0.03605551275463989</speed>
  <fix>3d</fix>
</trkpt>
<trkpt lat="33.810313" lon="-118.393867">
  <ele>-0.12</ele>
  <time>2026-09-02T22:08:25Z</time>
  <course>0.0</course>
  <speed>0.0</speed>
  <fix>3d</fix>
</trkpt>
<trkpt lat="33.810313" lon="-118.393867">
  <ele>-0.127</ele>
  <time>2026-09-02T22:08:25Z</time>
  <course>188.19</course>
  <speed>0.03605551275463989</speed>
  <fix>3d</fix>
</trkpt>
<trkpt lat="33.810313" lon="-118.393867">
  <ele>-0.12</ele>
  <time>2026-09-02T22:08:25Z</time>
  <course>0.0</course>
  <speed>0.0</speed>
  <fix>3d</fix>
</trkpt>
<trkpt lat="33.810313" lon="-118.393867">
  <ele>-0.129</ele>
  <time>2026-09-02T22:08:25Z</time>
  <course>188.18</course>
  <speed>0.03605551275463989</speed>
  <fix>3d</fix>
</trkpt>
<trkpt lat="33.810313" lon="-118.393867">
  <ele>-0.12</ele>
  <time>2026-09-02T22:08:25Z</time>
  <course>0.0</course>
  <speed>0.0</speed>
  <fix>3d</fix>
</trkpt>
<trkpt lat="33.810313" lon="-118.393867">
  <ele>-0.129</ele>
  <time>2026-09-02T22:08:25Z</time>
  <course>188.17</course>
  <speed>0.03605551275463989</speed>
  <fix>3d</fix>
</trkpt>
<trkpt lat="33.810313" lon="-118.393867">
  <ele>-0.12</ele>
  <time>2026-09-02T22:08:25Z</time>
  <course>0.0</course>
  <speed>0.0</speed>
  <fix>3d</fix>
</trkpt>
<trkpt lat="33.810313" lon="-118.393867">
  <ele>-0.129</ele>
  <time>2026-09-02T22:08:25Z</time>
  <course>188.16</course>
  <speed>0.03605551275463989</speed>
  <fix>3d</fix>
</trkpt>
<trkpt lat="33.810313" lon="-118.393867">
  <ele>-0.12</ele>
  <time>2026-09-02T22:08:25Z</time>
  <course>0.0</course>
  <speed>0.0</speed>
  <fix>3d</fix>
</trkpt>
<trkpt lat="33.810313" lon="-118.393867">
  <ele>-0.128</ele>
  <time>2026-09-02T22:08:25Z</time>
  <course>188.16</course>
  <speed>0.03605551275463989</speed>
  <fix>3d</fix>
</trkpt>
<trkpt lat="33.810313" lon="-118.393867">
  <ele>-0.12</ele>
  <time>2026-09-02T22:08:25Z</time>
  <course>0.0</course>
  <speed>0.0</speed>
  <fix>3d</fix>
</trkpt>
<trkpt lat="33.810313" lon="-118.393867">
  <ele>-0.128</ele>
  <time>2026-09-02T22:08:25Z</time>
  <course>188.15</course>
  <speed>0.03605551275463989</speed>
  <fix>3d</fix>
</trkpt>
<trkpt lat="33.810313" lon="-118.393867">
  <ele>-0.12</ele>
  <time>2026-09-02T22:08:25Z</time>
  <course>0.0</course>
  <speed>0.0</speed>
  <fix>3d</fix>
</trkpt>
<trkpt lat="33.810313" lon="-118.393867">
  <ele>-0.127</ele>
  <time>2026-09-02T22:08:25Z</time>
  <course>188.14</course>
  <speed>0.03605551275463989</speed>
  <fix>3d</fix>
</trkpt>
<trkpt lat="33.810313" lon="-118.393867">
  <ele>-0.12</ele>
  <time>2026-09-02T22:08:25Z</time>
  <course>0.0</course>
  <speed>0.0</speed>
  <fix>3d</fix>
</trkpt>
<trkpt lat="33.810313" lon="-118.393867">
  <ele>-0.127</ele>
  <time>2026-09-02T22:08:25Z</time>
  <course>188.13</course>
  <speed>0.03605551275463989</speed>
  <fix>3d</fix>
</trkpt>
<trkpt lat="33.810313" lon="-118.393867">
  <ele>-0.12</ele>
  <time>2026-09-02T22:08:25Z</time>
  <course>0.0</course>
  <speed>0.0</speed>
  <fix>3d</fix>
</trkpt>
<trkpt lat="33.810313" lon="-118.393867">
  <ele>-0.128</ele>
  <time>2026-09-02T22:08:25Z</time>
  <course>188.12</course>
  <speed>0.03605551275463989</speed>
  <fix>3d</fix>
</trkpt>
<trkpt lat="33.810313" lon="-118.393867">
  <ele>-0.12</ele>
  <time>2026-09-02T22:08:25Z</time>
  <course>0.0</course>
  <speed>0.0</speed>
  <fix>3d</fix>
</trkpt>
<trkpt lat="33.810313" lon="-118.393867">
  <ele>-0.129</ele>
  <time>2026-09-02T22:08:25Z</time>
  <course>188.11</course>
  <speed>0.03605551275463989</speed>
  <fix>3d</fix>
</trkpt>
<trkpt lat="33.810313" lon="-118.393867">
  <ele>-0.12</ele>
  <time>2026-09-02T22:08:25Z</time>
  <course>0.0</course>
  <speed>0.0</speed>
  <fix>3d</fix>
</trkpt>
<trkpt lat="33.810313" lon="-118.393867">
  <ele>-0.131</ele>
  <time>2026-09-02T22:08:25Z</time>
  <course>188.11</course>
  <speed>0.03605551275463989</speed>
  <fix>3d</fix>
</trkpt>
<trkpt lat="33.810313" lon="-118.393867">
  <ele>-0.12</ele>
  <time>2026-09-02T22:08:25Z</time>
  <course>0.0</course>
  <speed>0.0</speed>
  <fix>3d</fix>
</trkpt>
<trkpt lat="33.810313" lon="-118.393867">
  <ele>-0.133</ele>
  <time>2026-09-02T22:08:25Z</time>
  <course>188.1</course>
  <speed>0.03605551275463989</speed>
  <fix>3d</fix>
</trkpt>
<trkpt lat="33.810313" lon="-118.393867">
  <ele>-0.12</ele>
  <time>2026-09-02T22:08:25Z</time>
  <course>0.0</course>
  <speed>0.0</speed>
  <fix>3d</fix>
</trkpt>
<trkpt lat="33.810313" lon="-118.393867">
  <ele>-0.135</ele>
  <time>2026-09-02T22:08:25Z</time>
  <course>188.09</course>
  <speed>0.03605551275463989</speed>
  <fix>3d</fix>
</trkpt>
<trkpt lat="33.810313" lon="-118.393867">
  <ele>-0.12</ele>
  <time>2026-09-02T22:08:25Z</time>
  <course>0.0</course>
  <speed>0.0</speed>
  <fix>3d</fix>
</trkpt>
<trkpt lat="33.810313" lon="-118.393867">
  <ele>-0.136</ele>
  <time>2026-09-02T22:08:25Z</time>
  <course>188.08</course>
  <speed>0.03605551275463989</speed>
  <fix>3d</fix>
</trkpt>
<trkpt lat="33.810313" lon="-118.393867">
  <ele>-0.12</ele>
  <time>2026-09-02T22:08:25Z</time>
  <course>0.0</course>
  <speed>0.0</speed>
  <fix>3d</fix>
</trkpt>
<trkpt lat="33.810313" lon="-118.393867">
  <ele>-0.136</ele>
  <time>2026-09-02T22:08:25Z</time>
  <course>188.07</course>
  <speed>0.03605551275463989</speed>
  <fix>3d</fix>
</trkpt>
<trkpt lat="33.810313" lon="-118.393867">
  <ele>-0.12</ele>
  <time>2026-09-02T22:08:25Z</time>
  <course>0.0</course>
  <speed>0.0</speed>
  <fix>3d</fix>
</trkpt>
<trkpt lat="33.810313" lon="-118.393867">
  <ele>-0.136</ele>
  <time>2026-09-02T22:08:25Z</time>
  <course>188.07</course>
  <speed>0.03605551275463989</speed>
  <fix>3d</fix>
</trkpt>
<trkpt lat="33.810313" lon="-118.393867">
  <ele>-0.12</ele>
  <time>2026-09-02T22:08:25Z</time>
  <course>0.0</course>
  <speed>0.0</speed>
  <fix>3d</fix>
</trkpt>
<trkpt lat="33.810313" lon="-118.393867">
  <ele>-0.135</ele>
  <time>2026-09-02T22:08:25Z</time>
  <course>188.06</course>
  <speed>0.03605551275463989</speed>
  <fix>3d</fix>
</trkpt>
<trkpt lat="33.810313" lon="-118.393867">
  <ele>-0.12</ele>
  <time>2026-09-02T22:08:25Z</time>
  <course>0.0</course>
  <speed>0.0</speed>
  <fix>3d</fix>
</trkpt>
<trkpt lat="33.810313" lon="-118.393867">
  <ele>-0.134</ele>
  <time>2026-09-02T22:08:25Z</time>
  <course>188.05</course>
  <speed>0.03605551275463989</speed>
  <fix>3d</fix>
</trkpt>
<trkpt lat="33.810313" lon="-118.393867">
  <ele>-0.12</ele>
  <time>2026-09-02T22:08:25Z</time>
  <course>0.0</course>
  <speed>0.0</speed>
  <fix>3d</fix>
</trkpt>
<trkpt lat="33.810313" lon="-118.393867">
  <ele>-0.131</ele>
  <time>2026-09-02T22:08:25Z</time>
  <course>188.04</course>
  <speed>0.03605551275463989</speed>
  <fix>3d</fix>
</trkpt>
<trkpt lat="33.810313" lon="-118.393867">
  <ele>-0.12</ele>
  <time>2026-09-02T22:08:25Z</time>
  <course>0.0</course>
  <speed>0.0</speed>
  <fix>3d</fix>
</trkpt>
<trkpt lat="33.810313" lon="-118.393867">
  <ele>-0.128</ele>
  <time>2026-09-02T22:08:25Z</time>
  <course>188.03</course>
  <speed>0.03605551275463989</speed>
  <fix>3d</fix>
</trkpt>
<trkpt lat="33.810313" lon="-118.393867">
  <ele>-0.12</ele>
  <time>2026-09-02T22:08:25Z</time>
  <course>0.0</course>
  <speed>0.0</speed>
  <fix>3d</fix>
</trkpt>
<trkpt lat="33.810313" lon="-118.393867">
  <ele>-0.126</ele>
  <time>2026-09-02T22:08:25Z</time>
  <course>188.03</course>
  <speed>0.03605551275463989</speed>
  <fix>3d</fix>
</trkpt>
<trkpt lat="33.810313" lon="-118.393867">
  <ele>-0.12</ele>
  <time>2026-09-02T22:08:25Z</time>
  <course>0.0</course>
  <speed>0.0</speed>
  <fix>3d</fix>
</trkpt>
<trkpt lat="33.810313" lon="-118.393867">
  <ele>-0.126</ele>
  <time>2026-09-02T22:08:25Z</time>
  <course>188.02</course>
  <speed>0.03605551275463989</speed>
  <fix>3d</fix>
</trkpt>
<trkpt lat="33.810313" lon="-118.393867">
  <ele>-0.12</ele>
  <time>2026-09-02T22:08:25Z</time>
  <course>0.0</course>
  <speed>0.0</speed>
  <fix>3d</fix>
</trkpt>
<trkpt lat="33.810313" lon="-118.393867">
  <ele>-0.126</ele>
  <time>2026-09-02T22:08:25Z</time>
  <course>188.01</course>
  <speed>0.03605551275463989</speed>
  <fix>3d</fix>
</trkpt>
<trkpt lat="33.810313" lon="-118.393867">
  <ele>-0.12</ele>
  <time>2026-09-02T22:08:25Z</time>
  <course>0.0</course>
  <speed>0.0</speed>
  <fix>3d</fix>
</trkpt>
<trkpt lat="33.810313" lon="-118.393867">
  <ele>-0.127</ele>
  <time>2026-09-02T22:08:25Z</time>
  <course>188.0</course>
  <speed>0.03605551275463989</speed>
  <fix>3d</fix>
</trkpt>
<trkpt lat="33.810313" lon="-118.393867">
  <ele>-0.12</ele>
  <time>2026-09-02T22:08:25Z</time>
  <course>0.0</course>
  <speed>0.0</speed>
  <fix>3d</fix>
</trkpt>
<trkpt lat="33.810313" lon="-118.393867">
  <ele>-0.127</ele>
  <time>2026-09-02T22:08:25Z</time>
  <course>187.99</course>
  <speed>0.03605551275463989</speed>
  <fix>3d</fix>
</trkpt>
<trkpt lat="33.810313" lon="-118.393867">
  <ele>-0.12</ele>
  <time>2026-09-02T22:08:25Z</time>
  <course>0.0</course>
  <speed>0.0</speed>
  <fix>3d</fix>
</trkpt>
<trkpt lat="33.810313" lon="-118.393867">
  <ele>-0.127</ele>
  <time>2026-09-02T22:08:25Z</time>
  <course>187.99</course>
  <speed>0.03605551275463989</speed>
  <fix>3d</fix>
</trkpt>
<trkpt lat="33.810313" lon="-118.393867">
  <ele>-0.12</ele>
  <time>2026-09-02T22:08:25Z</time>
  <course>0.0</course>
  <speed>0.0</speed>
  <fix>3d</fix>
</trkpt>
<trkpt lat="33.810313" lon="-118.393867">
  <ele>-0.128</ele>
  <time>2026-09-02T22:08:25Z</time>
  <course>187.98</course>
  <speed>0.03605551275463989</speed>
  <fix>3d</fix>
</trkpt>
<trkpt lat="33.810313" lon="-118.393867">
  <ele>-0.12</ele>
  <time>2026-09-02T22:08:25Z</time>
  <course>0.0</course>
  <speed>0.0</speed>
  <fix>3d</fix>
</trkpt>
<trkpt lat="33.810313" lon="-118.393867">
  <ele>-0.128</ele>
  <time>2026-09-02T22:08:25Z</time>
  <course>187.97</course>
  <speed>0.03605551275463989</speed>
  <fix>3d</fix>
</trkpt>
<trkpt lat="33.810313" lon="-118.393867">
  <ele>-0.12</ele>
  <time>2026-09-02T22:08:25Z</time>
  <course>0.0</course>
  <speed>0.0</speed>
  <fix>3d</fix>
</trkpt>
<trkpt lat="33.810313" lon="-118.393867">
  <ele>-0.127</ele>
  <time>2026-09-02T22:08:25Z</time>
  <course>187.96</course>
  <speed>0.03605551275463989</speed>
  <fix>3d</fix>
</trkpt>
<trkpt lat="33.810313" lon="-118.393867">
  <ele>-0.12</ele>
  <time>2026-09-02T22:08:25Z</time>
  <course>0.0</course>
  <speed>0.0</speed>
  <fix>3d</fix>
</trkpt>
<trkpt lat="33.810313" lon="-118.393867">
  <ele>-0.126</ele>
  <time>2026-09-02T22:08:25Z</time>
  <course>187.95</course>
  <speed>0.03605551275463989</speed>
  <fix>3d</fix>
</trkpt>
<trkpt lat="33.810313" lon="-118.393867">
  <ele>-0.12</ele>
  <time>2026-09-02T22:08:25Z</time>
  <course>0.0</course>
  <speed>0.0</speed>
  <fix>3d</fix>
</trkpt>
<trkpt lat="33.810313" lon="-118.393867">
  <ele>-0.123</ele>
  <time>2026-09-02T22:08:25Z</time>
  <course>187.95</course>
  <speed>0.03605551275463989</speed>
  <fix>3d</fix>
</trkpt>
<trkpt lat="33.810313" lon="-118.393867">
  <ele>-0.12</ele>
  <time>2026-09-02T22:08:25Z</time>
  <course>0.0</course>
  <speed>0.0</speed>
  <fix>3d</fix>
</trkpt>
<trkpt lat="33.810313" lon="-118.393867">
  <ele>-0.121</ele>
  <time>2026-09-02T22:08:25Z</time>
  <course>187.94</course>
  <speed>0.03605551275463989</speed>
  <fix>3d</fix>
</trkpt>
<trkpt lat="33.810313" lon="-118.393867">
  <ele>-0.12</ele>
  <time>2026-09-02T22:08:25Z</time>
  <course>0.0</course>
  <speed>0.0</speed>
  <fix>3d</fix>
</trkpt>
<trkpt lat="33.810313" lon="-118.393867">
  <ele>-0.12</ele>
  <time>2026-09-02T22:08:25Z</time>
  <course>187.93</course>
  <speed>0.03605551275463989</speed>
  <fix>3d</fix>
</trkpt>
<trkpt lat="33.810313" lon="-118.393867">
  <ele>-0.12</ele>
  <time>2026-09-02T22:08:25Z</time>
  <course>0.0</course>
  <speed>0.0</speed>
  <fix>3d</fix>
</trkpt>
<trkpt lat="33.810313" lon="-118.393867">
  <ele>-0.12</ele>
  <time>2026-09-02T22:08:25Z</time>
  <course>187.92</course>
  <speed>0.03605551275463989</speed>
  <fix>3d</fix>
</trkpt>
<trkpt lat="33.810313" lon="-118.393867">
  <ele>-0.12</ele>
  <time>2026-09-02T22:08:25Z</time>
  <course>0.0</course>
  <speed>0.0</speed>
  <fix>3d</fix>
</trkpt>
<trkpt lat="33.810313" lon="-118.393867">
  <ele>-0.122</ele>
  <time>2026-09-02T22:08:25Z</time>
  <course>187.92</course>
  <speed>0.03605551275463989</speed>
  <fix>3d</fix>
</trkpt>
<trkpt lat="33.810313" lon="-118.393867">
  <ele>-0.12</ele>
  <time>2026-09-02T22:08:25Z</time>
  <course>0.0</course>
  <speed>0.0</speed>
  <fix>3d</fix>
</trkpt>
<trkpt lat="33.810313" lon="-118.393867">
  <ele>-0.125</ele>
  <time>2026-09-02T22:08:25Z</time>
  <course>187.91</course>
  <speed>0.04242640687119285</speed>
  <fix>3d</fix>
</trkpt>
<trkpt lat="33.810313" lon="-118.393867">
  <ele>-0.12</ele>
  <time>2026-09-02T22:08:25Z</time>
  <course>0.0</course>
  <speed>0.0</speed>
  <fix>3d</fix>
</trkpt>
<trkpt lat="33.810313" lon="-118.393867">
  <ele>-0.129</ele>
  <time>2026-09-02T22:08:25Z</time>
  <course>187.9</course>
  <speed>0.04242640687119285</speed>
  <fix>3d</fix>
</trkpt>
<trkpt lat="33.810313" lon="-118.393867">
  <ele>-0.12</ele>
  <time>2026-09-02T22:08:25Z</time>
  <course>0.0</course>
  <speed>0.0</speed>
  <fix>3d</fix>
</trkpt>
<trkpt lat="33.810313" lon="-118.393867">
  <ele>-0.131</ele>
  <time>2026-09-02T22:08:25Z</time>
  <course>187.89</course>
  <speed>0.04242640687119285</speed>
  <fix>3d</fix>
</trkpt>
<trkpt lat="33.810313" lon="-118.393867">
  <ele>-0.12</ele>
  <time>2026-09-02T22:08:25Z</time>
  <course>0.0</course>
  <speed>0.0</speed>
  <fix>3d</fix>
</trkpt>
<trkpt lat="33.810313" lon="-118.393867">
  <ele>-0.132</ele>
  <time>2026-09-02T22:08:25Z</time>
  <course>187.88</course>
  <speed>0.04242640687119285</speed>
  <fix>3d</fix>
</trkpt>
<trkpt lat="33.810313" lon="-118.393867">
  <ele>-0.12</ele>
  <time>2026-09-02T22:08:25Z</time>
  <course>0.0</course>
  <speed>0.0</speed>
  <fix>3d</fix>
</trkpt>
<trkpt lat="33.810313" lon="-118.393867">
  <ele>-0.132</ele>
  <time>2026-09-02T22:08:25Z</time>
  <course>187.88</course>
  <speed>0.04242640687119285</speed>
  <fix>3d</fix>
</trkpt>
<trkpt lat="33.810313" lon="-118.393867">
  <ele>-0.12</ele>
  <time>2026-09-02T22:08:25Z</time>
  <course>0.0</course>
  <speed>0.0</speed>
  <fix>3d</fix>
</trkpt>
<trkpt lat="33.810313" lon="-118.393867">
  <ele>-0.132</ele>
  <time>2026-09-02T22:08:25Z</time>
  <course>187.87</course>
  <speed>0.04242640687119285</speed>
  <fix>3d</fix>
</trkpt>
<trkpt lat="33.810313" lon="-118.393867">
  <ele>-0.12</ele>
  <time>2026-09-02T22:08:25Z</time>
  <course>0.0</course>
  <speed>0.0</speed>
  <fix>3d</fix>
</trkpt>
<trkpt lat="33.810313" lon="-118.393867">
  <ele>-0.13</ele>
  <time>2026-09-02T22:08:25Z</time>
  <course>187.86</course>
  <speed>0.05</speed>
  <fix>3d</fix>
</trkpt>
<trkpt lat="33.810313" lon="-118.393867">
  <ele>-0.12</ele>
  <time>2026-09-02T22:08:25Z</time>
  <course>0.0</course>
  <speed>0.0</speed>
  <fix>3d</fix>
</trkpt>
<trkpt lat="33.810313" lon="-118.393867">
  <ele>-0.127</ele>
  <time>2026-09-02T22:08:25Z</time>
  <course>187.85</course>
  <speed>0.05</speed>
  <fix>3d</fix>
</trkpt>
<trkpt lat="33.810313" lon="-118.393867">
  <ele>-0.12</ele>
  <time>2026-09-02T22:08:25Z</time>
  <course>0.0</course>
  <speed>0.0</speed>
  <fix>3d</fix>
</trkpt>
<trkpt lat="33.810313" lon="-118.393867">
  <ele>-0.123</ele>
  <time>2026-09-02T22:08:25Z</time>
  <course>187.85</course>
  <speed>0.05</speed>
  <fix>3d</fix>
</trkpt>
<trkpt lat="33.810313" lon="-118.393867">
  <ele>-0.12</ele>
  <time>2026-09-02T22:08:25Z</time>
  <course>0.0</course>
  <speed>0.0</speed>
  <fix>3d</fix>
</trkpt>
<trkpt lat="33.810313" lon="-118.393867">
  <ele>-0.121</ele>
  <time>2026-09-02T22:08:25Z</time>
  <course>187.84</course>
  <speed>0.05</speed>
  <fix>3d</fix>
</trkpt>
<trkpt lat="33.810313" lon="-118.393867">
  <ele>-0.12</ele>
  <time>2026-09-02T22:08:25Z</time>
  <course>0.0</course>
  <speed>0.0</speed>
  <fix>3d</fix>
</trkpt>
<trkpt lat="33.810313" lon="-118.393867">
  <ele>-0.121</ele>
  <time>2026-09-02T22:08:25Z</time>
  <course>187.83</course>
  <speed>0.05</speed>
  <fix>3d</fix>
</trkpt>
<trkpt lat="33.810313" lon="-118.393867">
  <ele>-0.12</ele>
  <time>2026-09-02T22:08:25Z</time>
  <course>0.0</course>
  <speed>0.0</speed>
  <fix>3d</fix>
</trkpt>
<trkpt lat="33.810313" lon="-118.393867">
  <ele>-0.123</ele>
  <time>2026-09-02T22:08:25Z</time>
  <course>187.82</course>
  <speed>0.05</speed>
  <fix>3d</fix>
</trkpt>
<trkpt lat="33.810313" lon="-118.393867">
  <ele>-0.12</ele>
  <time>2026-09-02T22:08:25Z</time>
  <course>0.0</course>
  <speed>0.0</speed>
  <fix>3d</fix>
</trkpt>
<trkpt lat="33.810313" lon="-118.393867">
  <ele>-0.124</ele>
  <time>2026-09-02T22:08:25Z</time>
  <course>187.81</course>
  <speed>0.05</speed>
  <fix>3d</fix>
</trkpt>
<trkpt lat="33.810313" lon="-118.393867">
  <ele>-0.12</ele>
  <time>2026-09-02T22:08:25Z</time>
  <course>0.0</course>
  <speed>0.0</speed>
  <fix>3d</fix>
</trkpt>
<trkpt lat="33.810313" lon="-118.393867">
  <ele>-0.126</ele>
  <time>2026-09-02T22:08:25Z</time>
  <course>187.81</course>
  <speed>0.05</speed>
  <fix>3d</fix>
</trkpt>
<trkpt lat="33.810313" lon="-118.393867">
  <ele>-0.12</ele>
  <time>2026-09-02T22:08:25Z</time>
  <course>0.0</course>
  <speed>0.0</speed>
  <fix>3d</fix>
</trkpt>
<trkpt lat="33.810313" lon="-118.393867">
  <ele>-0.127</ele>
  <time>2026-09-02T22:08:25Z</time>
  <course>187.8</course>
  <speed>0.05</speed>
  <fix>3d</fix>
</trkpt>
<trkpt lat="33.810313" lon="-118.393867">
  <ele>-0.12</ele>
  <time>2026-09-02T22:08:25Z</time>
  <course>0.0</course>
  <speed>0.0</speed>
  <fix>3d</fix>
</trkpt>
<trkpt lat="33.810313" lon="-118.393867">
  <ele>-0.127</ele>
  <time>2026-09-02T22:08:25Z</time>
  <course>187.79</course>
  <speed>0.05</speed>
  <fix>3d</fix>
</trkpt>
<trkpt lat="33.810313" lon="-118.393867">
  <ele>-0.12</ele>
  <time>2026-09-02T22:08:25Z</time>
  <course>0.0</course>
  <speed>0.0</speed>
  <fix>3d</fix>
</trkpt>
<trkpt lat="33.810313" lon="-118.393867">
  <ele>-0.127</ele>
  <time>2026-09-02T22:08:25Z</time>
  <course>187.79</course>
  <speed>0.05</speed>
  <fix>3d</fix>
</trkpt>
<trkpt lat="33.810313" lon="-118.393867">
  <ele>-0.12</ele>
  <time>2026-09-02T22:08:25Z</time>
  <course>0.0</course>
  <speed>0.0</speed>
  <fix>3d</fix>
</trkpt>
<trkpt lat="33.810313" lon="-118.393867">
  <ele>-0.126</ele>
  <time>2026-09-02T22:08:25Z</time>
  <course>187.78</course>
  <speed>0.05</speed>
  <fix>3d</fix>
</trkpt>
<trkpt lat="33.810313" lon="-118.393867">
  <ele>-0.12</ele>
  <time>2026-09-02T22:08:25Z</time>
  <course>0.0</course>
  <speed>0.0</speed>
  <fix>3d</fix>
</trkpt>
<trkpt lat="33.810313" lon="-118.393867">
  <ele>-0.124</ele>
  <time>2026-09-02T22:08:25Z</time>
  <course>187.77</course>
  <speed>0.05</speed>
  <fix>3d</fix>
</trkpt>
<trkpt lat="33.810313" lon="-118.393867">
  <ele>-0.12</ele>
  <time>2026-09-02T22:08:25Z</time>
  <course>0.0</course>
  <speed>0.0</speed>
  <fix>3d</fix>
</trkpt>
<trkpt lat="33.810313" lon="-118.393867">
  <ele>-0.121</ele>
  <time>2026-09-02T22:08:25Z</time>
  <course>187.76</course>
  <speed>0.05</speed>
  <fix>3d</fix>
</trkpt>
<trkpt lat="33.810313" lon="-118.393867">
  <ele>-0.12</ele>
  <time>2026-09-02T22:08:25Z</time>
  <course>0.0</course>
  <speed>0.0</speed>
  <fix>3d</fix>
</trkpt>
<trkpt lat="33.810313" lon="-118.393867">
  <ele>-0.119</ele>
  <time>2026-09-02T22:08:25Z</time>
  <course>187.75</course>
  <speed>0.05</speed>
  <fix>3d</fix>
</trkpt>
<trkpt lat="33.810313" lon="-118.393867">
  <ele>-0.12</ele>
  <time>2026-09-02T22:08:25Z</time>
  <course>0.0</course>
  <speed>0.0</speed>
  <fix>3d</fix>
</trkpt>
<trkpt lat="33.810313" lon="-118.393867">
  <ele>-0.118</ele>
  <time>2026-09-02T22:08:25Z</time>
  <course>187.75</course>
  <speed>0.05</speed>
  <fix>3d</fix>
</trkpt>
<trkpt lat="33.810313" lon="-118.393867">
  <ele>-0.12</ele>
  <time>2026-09-02T22:08:25Z</time>
  <course>0.0</course>
  <speed>0.0</speed>
  <fix>3d</fix>
</trkpt>
<trkpt lat="33.810313" lon="-118.393867">
  <ele>-0.118</ele>
  <time>2026-09-02T22:08:25Z</time>
  <course>187.74</course>
  <speed>0.05</speed>
  <fix>3d</fix>
</trkpt>
<trkpt lat="33.810313" lon="-118.393867">
  <ele>-0.12</ele>
  <time>2026-09-02T22:08:25Z</time>
  <course>0.0</course>
  <speed>0.0</speed>
  <fix>3d</fix>
</trkpt>
<trkpt lat="33.810313" lon="-118.393867">
  <ele>-0.119</ele>
  <time>2026-09-02T22:08:25Z</time>
  <course>187.73</course>
  <speed>0.05</speed>
  <fix>3d</fix>
</trkpt>
<trkpt lat="33.810313" lon="-118.393867">
  <ele>-0.12</ele>
  <time>2026-09-02T22:08:25Z</time>
  <course>0.0</course>
  <speed>0.0</speed>
  <fix>3d</fix>
</trkpt>
<trkpt lat="33.810313" lon="-118.393867">
  <ele>-0.12</ele>
  <time>2026-09-02T22:08:25Z</time>
  <course>187.73</course>
  <speed>0.05</speed>
  <fix>3d</fix>
</trkpt>
<trkpt lat="33.810313" lon="-118.393867">
  <ele>-0.12</ele>
  <time>2026-09-02T22:08:25Z</time>
  <course>0.0</course>
  <speed>0.0</speed>
  <fix>3d</fix>
</trkpt>
<trkpt lat="33.810313" lon="-118.393867">
  <ele>-0.12</ele>
  <time>2026-09-02T22:08:25Z</time>
  <course>187.72</course>
  <speed>0.05</speed>
  <fix>3d</fix>
</trkpt>
<trkpt lat="33.810313" lon="-118.393867">
  <ele>-0.12</ele>
  <time>2026-09-02T22:08:25Z</time>
  <course>0.0</course>
  <speed>0.0</speed>
  <fix>3d</fix>
</trkpt>
<trkpt lat="33.810313" lon="-118.393867">
  <ele>-0.12</ele>
  <time>2026-09-02T22:08:25Z</time>
  <course>187.71</course>
  <speed>0.05</speed>
  <fix>3d</fix>
</trkpt>
<trkpt lat="33.810313" lon="-118.393867">
  <ele>-0.12</ele>
  <time>2026-09-02T22:08:25Z</time>
  <course>0.0</course>
  <speed>0.0</speed>
  <fix>3d</fix>
</trkpt>
<trkpt lat="33.810313" lon="-118.393867">
  <ele>-0.119</ele>
  <time>2026-09-02T22:08:25Z</time>
  <course>187.7</course>
  <speed>0.05</speed>
  <fix>3d</fix>
</trkpt>
<trkpt lat="33.810313" lon="-118.393867">
  <ele>-0.12</ele>
  <time>2026-09-02T22:08:25Z</time>
  <course>0.0</course>
  <speed>0.0</speed>
  <fix>3d</fix>
</trkpt>
<trkpt lat="33.810313" lon="-118.393867">
  <ele>-0.118</ele>
  <time>2026-09-02T22:08:25Z</time>
  <course>187.7</course>
  <speed>0.05</speed>
  <fix>3d</fix>
</trkpt>
<trkpt lat="33.810313" lon="-118.393867">
  <ele>-0.12</ele>
  <time>2026-09-02T22:08:25Z</time>
  <course>0.0</course>
  <speed>0.0</speed>
  <fix>3d</fix>
</trkpt>
<trkpt lat="33.810313" lon="-118.393867">
  <ele>-0.116</ele>
  <time>2026-09-02T22:08:25Z</time>
  <course>187.69</course>
  <speed>0.05</speed>
  <fix>3d</fix>
</trkpt>
<trkpt lat="33.810313" lon="-118.393867">
  <ele>-0.12</ele>
  <time>2026-09-02T22:08:25Z</time>
  <course>0.0</course>
  <speed>0.0</speed>
  <fix>3d</fix>
</trkpt>
<trkpt lat="33.810313" lon="-118.393867">
  <ele>-0.113</ele>
  <time>2026-09-02T22:08:25Z</time>
  <course>187.68</course>
  <speed>0.05</speed>
  <fix>3d</fix>
</trkpt>
<trkpt lat="33.810313" lon="-118.393867">
  <ele>-0.12</ele>
  <time>2026-09-02T22:08:25Z</time>
  <course>0.0</course>
  <speed>0.0</speed>
  <fix>3d</fix>
</trkpt>
<trkpt lat="33.810313" lon="-118.393867">
  <ele>-0.112</ele>
  <time>2026-09-02T22:08:25Z</time>
  <course>187.68</course>
  <speed>0.05</speed>
  <fix>3d</fix>
</trkpt>
<trkpt lat="33.810313" lon="-118.393867">
  <ele>-0.12</ele>
  <time>2026-09-02T22:08:25Z</time>
  <course>0.0</course>
  <speed>0.0</speed>
  <fix>3d</fix>
</trkpt>
<trkpt lat="33.810313" lon="-118.393867">
  <ele>-0.113</ele>
  <time>2026-09-02T22:08:25Z</time>
  <course>187.67</course>
  <speed>0.05</speed>
  <fix>3d</fix>
</trkpt>
<trkpt lat="33.810313" lon="-118.393867">
  <ele>-0.12</ele>
  <time>2026-09-02T22:08:25Z</time>
  <course>0.0</course>
  <speed>0.0</speed>
  <fix>3d</fix>
</trkpt>
<trkpt lat="33.810313" lon="-118.393867">
  <ele>-0.115</ele>
  <time>2026-09-02T22:08:25Z</time>
  <course>187.66</course>
  <speed>0.05</speed>
  <fix>3d</fix>
</trkpt>
<trkpt lat="33.810313" lon="-118.393867">
  <ele>-0.12</ele>
  <time>2026-09-02T22:08:25Z</time>
  <course>0.0</course>
  <speed>0.0</speed>
  <fix>3d</fix>
</trkpt>
<trkpt lat="33.810313" lon="-118.393867">
  <ele>-0.119</ele>
  <time>2026-09-02T22:08:25Z</time>
  <course>187.65</course>
  <speed>0.05</speed>
  <fix>3d</fix>
</trkpt>
<trkpt lat="33.810313" lon="-118.393867">
  <ele>-0.12</ele>
  <time>2026-09-02T22:08:25Z</time>
  <course>0.0</course>
  <speed>0.0</speed>
  <fix>3d</fix>
</trkpt>
<trkpt lat="33.810313" lon="-118.393867">
  <ele>-0.124</ele>
  <time>2026-09-02T22:08:25Z</time>
  <course>187.65</course>
  <speed>0.05</speed>
  <fix>3d</fix>
</trkpt>
<trkpt lat="33.810313" lon="-118.393867">
  <ele>-0.12</ele>
  <time>2026-09-02T22:08:25Z</time>
  <course>0.0</course>
  <speed>0.0</speed>
  <fix>3d</fix>
</trkpt>
<trkpt lat="33.810313" lon="-118.393867">
  <ele>-0.129</ele>
  <time>2026-09-02T22:08:25Z</time>
  <course>187.64</course>
  <speed>0.05</speed>
  <fix>3d</fix>
</trkpt>
<trkpt lat="33.810313" lon="-118.393867">
  <ele>-0.12</ele>
  <time>2026-09-02T22:08:25Z</time>
  <course>0.0</course>
  <speed>0.0</speed>
  <fix>3d</fix>
</trkpt>
<trkpt lat="33.810313" lon="-118.393867">
  <ele>-0.133</ele>
  <time>2026-09-02T22:08:25Z</time>
  <course>187.63</course>
  <speed>0.05</speed>
  <fix>3d</fix>
</trkpt>
<trkpt lat="33.810313" lon="-118.393867">
  <ele>-0.12</ele>
  <time>2026-09-02T22:08:25Z</time>
  <course>0.0</course>
  <speed>0.0</speed>
  <fix>3d</fix>
</trkpt>
<trkpt lat="33.810313" lon="-118.393867">
  <ele>-0.135</ele>
  <time>2026-09-02T22:08:25Z</time>
  <course>187.63</course>
  <speed>0.05</speed>
  <fix>3d</fix>
</trkpt>
<trkpt lat="33.810313" lon="-118.393867">
  <ele>-0.12</ele>
  <time>2026-09-02T22:08:25Z</time>
  <course>0.0</course>
  <speed>0.0</speed>
  <fix>3d</fix>
</trkpt>
<trkpt lat="33.810313" lon="-118.393867">
  <ele>-0.135</ele>
  <time>2026-09-02T22:08:25Z</time>
  <course>187.62</course>
  <speed>0.05830951894845301</speed>
  <fix>3d</fix>
</trkpt>
<trkpt lat="33.810313" lon="-118.393867">
  <ele>-0.12</ele>
  <time>2026-09-02T22:08:25Z</time>
  <course>0.0</course>
  <speed>0.0</speed>
  <fix>3d</fix>
</trkpt>
<trkpt lat="33.810313" lon="-118.393867">
  <ele>-0.135</ele>
  <time>2026-09-02T22:08:25Z</time>
  <course>187.61</course>
  <speed>0.05830951894845301</speed>
  <fix>3d</fix>
</trkpt>
<trkpt lat="33.810313" lon="-118.393867">
  <ele>-0.12</ele>
  <time>2026-09-02T22:08:25Z</time>
  <course>0.0</course>
  <speed>0.0</speed>
  <fix>3d</fix>
</trkpt>
<trkpt lat="33.810313" lon="-118.393867">
  <ele>-0.133</ele>
  <time>2026-09-02T22:08:25Z</time>
  <course>187.61</course>
  <speed>0.05830951894845301</speed>
  <fix>3d</fix>
</trkpt>
<trkpt lat="33.810313" lon="-118.393867">
  <ele>-0.12</ele>
  <time>2026-09-02T22:08:25Z</time>
  <course>0.0</course>
  <speed>0.0</speed>
  <fix>3d</fix>
</trkpt>
<trkpt lat="33.810313" lon="-118.393867">
  <ele>-0.132</ele>
  <time>2026-09-02T22:08:25Z</time>
  <course>187.6</course>
  <speed>0.05830951894845301</speed>
  <fix>3d</fix>
</trkpt>
<trkpt lat="33.810313" lon="-118.393867">
  <ele>-0.12</ele>
  <time>2026-09-02T22:08:25Z</time>
  <course>0.0</course>
  <speed>0.0</speed>
  <fix>3d</fix>
</trkpt>
<trkpt lat="33.810313" lon="-118.393867">
  <ele>-0.132</ele>
  <time>2026-09-02T22:08:25Z</time>
  <course>187.6</course>
  <speed>0.06403124237432849</speed>
  <fix>3d</fix>
</trkpt>
<trkpt lat="33.810313" lon="-118.393867">
  <ele>-0.12</ele>
  <time>2026-09-02T22:08:25Z</time>
  <course>0.0</course>
  <speed>0.0</speed>
  <fix>3d</fix>
</trkpt>
<trkpt lat="33.810313" lon="-118.393867">
  <ele>-0.133</ele>
  <time>2026-09-02T22:08:25Z</time>
  <course>187.59</course>
  <speed>0.06403124237432849</speed>
  <fix>3d</fix>
</trkpt>
<trkpt lat="33.810313" lon="-118.393867">
  <ele>-0.12</ele>
  <time>2026-09-02T22:08:25Z</time>
  <course>0.0</course>
  <speed>0.0</speed>
  <fix>3d</fix>
</trkpt>
<trkpt lat="33.810313" lon="-118.393867">
  <ele>-0.134</ele>
  <time>2026-09-02T22:08:25Z</time>
  <course>187.58</course>
  <speed>0.06403124237432849</speed>
  <fix>3d</fix>
</trkpt>
<trkpt lat="33.810313" lon="-118.393867">
  <ele>-0.12</ele>
  <time>2026-09-02T22:08:25Z</time>
  <course>0.0</course>
  <speed>0.0</speed>
  <fix>3d</fix>
</trkpt>
<trkpt lat="33.810313" lon="-118.393867">
  <ele>-0.134</ele>
  <time>2026-09-02T22:08:25Z</time>
  <course>187.57</course>
  <speed>0.06403124237432849</speed>
  <fix>3d</fix>
</trkpt>
<trkpt lat="33.810313" lon="-118.393867">
  <ele>-0.12</ele>
  <time>2026-09-02T22:08:25Z</time>
  <course>0.0</course>
  <speed>0.0</speed>
  <fix>3d</fix>
</trkpt>
<trkpt lat="33.810313" lon="-118.393867">
  <ele>-0.134</ele>
  <time>2026-09-02T22:08:25Z</time>
  <course>187.57</course>
  <speed>0.06403124237432849</speed>
  <fix>3d</fix>
</trkpt>
<trkpt lat="33.810313" lon="-118.393867">
  <ele>-0.12</ele>
  <time>2026-09-02T22:08:25Z</time>
  <course>0.0</course>
  <speed>0.0</speed>
  <fix>3d</fix>
</trkpt>
<trkpt lat="33.810313" lon="-118.393867">
  <ele>-0.132</ele>
  <time>2026-09-02T22:08:25Z</time>
  <course>187.56</course>
  <speed>0.06403124237432849</speed>
  <fix>3d</fix>
</trkpt>
<trkpt lat="33.810313" lon="-118.393867">
  <ele>-0.12</ele>
  <time>2026-09-02T22:08:25Z</time>
  <course>0.0</course>
  <speed>0.0</speed>
  <fix>3d</fix>
</trkpt>
<trkpt lat="33.810313" lon="-118.393867">
  <ele>-0.13</ele>
  <time>2026-09-02T22:08:25Z</time>
  <course>187.55</course>
  <speed>0.06403124237432849</speed>
  <fix>3d</fix>
</trkpt>
<trkpt lat="33.810313" lon="-118.393867">
  <ele>-0.12</ele>
  <time>2026-09-02T22:08:25Z</time>
  <course>0.0</course>
  <speed>0.0</speed>
  <fix>3d</fix>
</trkpt>
<trkpt lat="33.810313" lon="-118.393867">
  <ele>-0.127</ele>
  <time>2026-09-02T22:08:25Z</time>
  <course>187.55</course>
  <speed>0.06403124237432849</speed>
  <fix>3d</fix>
</trkpt>
<trkpt lat="33.810313" lon="-118.393867">
  <ele>-0.12</ele>
  <time>2026-09-02T22:08:25Z</time>
  <course>0.0</course>
  <speed>0.0</speed>
  <fix>3d</fix>
</trkpt>
<trkpt lat="33.810313" lon="-118.393867">
  <ele>-0.125</ele>
  <time>2026-09-02T22:08:25Z</time>
  <course>187.54</course>
  <speed>0.06403124237432849</speed>
  <fix>3d</fix>
</trkpt>
<trkpt lat="33.810313" lon="-118.393867">
  <ele>-0.12</ele>
  <time>2026-09-02T22:08:25Z</time>
  <course>0.0</course>
  <speed>0.0</speed>
  <fix>3d</fix>
</trkpt>
<trkpt lat="33.810313" lon="-118.393867">
  <ele>-0.122</ele>
  <time>2026-09-02T22:08:25Z</time>
  <course>187.53</course>
  <speed>0.06403124237432849</speed>
  <fix>3d</fix>
</trkpt>
<trkpt lat="33.810313" lon="-118.393867">
  <ele>-0.12</ele>
  <time>2026-09-02T22:08:25Z</time>
  <course>0.0</course>
  <speed>0.0</speed>
  <fix>3d</fix>
</trkpt>
<trkpt lat="33.810313" lon="-118.393867">
  <ele>-0.119</ele>
  <time>2026-09-02T22:08:25Z</time>
  <course>187.53</course>
  <speed>0.06403124237432849</speed>
  <fix>3d</fix>
</trkpt>
<trkpt lat="33.810313" lon="-118.393867">
  <ele>-0.12</ele>
  <time>2026-09-02T22:08:25Z</time>
  <course>0.0</course>
  <speed>0.0</speed>
  <fix>3d</fix>
</trkpt>
<trkpt lat="33.810313" lon="-118.393867">
  <ele>-0.117</ele>
  <time>2026-09-02T22:08:25Z</time>
  <course>187.52</course>
  <speed>0.06403124237432849</speed>
  <fix>3d</fix>
</trkpt>
<trkpt lat="33.810313" lon="-118.393867">
  <ele>-0.12</ele>
  <time>2026-09-02T22:08:25Z</time>
  <course>0.0</course>
  <speed>0.0</speed>
  <fix>3d</fix>
</trkpt>
<trkpt lat="33.810313" lon="-118.393867">
  <ele>-0.117</ele>
  <time>2026-09-02T22:08:25Z</time>
  <course>187.51</course>
  <speed>0.06403124237432849</speed>
  <fix>3d</fix>
</trkpt>
<trkpt lat="33.810313" lon="-118.393867">
  <ele>-0.12</ele>
  <time>2026-09-02T22:08:25Z</time>
  <course>0.0</course>
  <speed>0.0</speed>
  <fix>3d</fix>
</trkpt>
<trkpt lat="33.810313" lon="-118.393867">
  <ele>-0.118</ele>
  <time>2026-09-02T22:08:25Z</time>
  <course>187.51</course>
  <speed>0.06403124237432849</speed>
  <fix>3d</fix>
</trkpt>
<trkpt lat="33.810313" lon="-118.393867">
  <ele>-0.12</ele>
  <time>2026-09-02T22:08:25Z</time>
  <course>0.0</course>
  <speed>0.0</speed>
  <fix>3d</fix>
</trkpt>
<trkpt lat="33.810313" lon="-118.393867">
  <ele>-0.119</ele>
  <time>2026-09-02T22:08:25Z</time>
  <course>187.5</course>
  <speed>0.06403124237432849</speed>
  <fix>3d</fix>
</trkpt>
<trkpt lat="33.810313" lon="-118.393867">
  <ele>-0.12</ele>
  <time>2026-09-02T22:08:26Z</time>
  <course>0.0</course>
  <speed>0.0</speed>
  <fix>3d</fix>
</trkpt>
<trkpt lat="33.810313" lon="-118.393867">
  <ele>-0.12</ele>
  <time>2026-09-02T22:08:26Z</time>
  <course>187.49</course>
  <speed>0.06403124237432849</speed>
  <fix>3d</fix>
</trkpt>
<trkpt lat="33.810313" lon="-118.393867">
  <ele>-0.12</ele>
  <time>2026-09-02T22:08:26Z</time>
  <course>0.0</course>
  <speed>0.0</speed>
  <fix>3d</fix>
</trkpt>
<trkpt lat="33.810313" lon="-118.393867">
  <ele>-0.121</ele>
  <time>2026-09-02T22:08:26Z</time>
  <course>187.49</course>
  <speed>0.06403124237432849</speed>
  <fix>3d</fix>
</trkpt>
<trkpt lat="33.810313" lon="-118.393867">
  <ele>-0.12</ele>
  <time>2026-09-02T22:08:26Z</time>
  <course>0.0</course>
  <speed>0.0</speed>
  <fix>3d</fix>
</trkpt>
<trkpt lat="33.810313" lon="-118.393867">
  <ele>-0.121</ele>
  <time>2026-09-02T22:08:26Z</time>
  <course>187.48</course>
  <speed>0.06403124237432849</speed>
  <fix>3d</fix>
</trkpt>
<trkpt lat="33.810313" lon="-118.393867">
  <ele>-0.12</ele>
  <time>2026-09-02T22:08:26Z</time>
  <course>0.0</course>
  <speed>0.0</speed>
  <fix>3d</fix>
</trkpt>
<trkpt lat="33.810313" lon="-118.393867">
  <ele>-0.121</ele>
  <time>2026-09-02T22:08:26Z</time>
  <course>187.47</course>
  <speed>0.06403124237432849</speed>
  <fix>3d</fix>
</trkpt>
<trkpt lat="33.810313" lon="-118.393867">
  <ele>-0.12</ele>
  <time>2026-09-02T22:08:26Z</time>
  <course>0.0</course>
  <speed>0.0</speed>
  <fix>3d</fix>
</trkpt>
<trkpt lat="33.810313" lon="-118.393867">
  <ele>-0.121</ele>
  <time>2026-09-02T22:08:26Z</time>
  <course>187.47</course>
  <speed>0.06403124237432849</speed>
  <fix>3d</fix>
</trkpt>
<trkpt lat="33.810313" lon="-118.393867">
  <ele>-0.12</ele>
  <time>2026-09-02T22:08:26Z</time>
  <course>0.0</course>
  <speed>0.0</speed>
  <fix>3d</fix>
</trkpt>
<trkpt lat="33.810313" lon="-118.393867">
  <ele>-0.121</ele>
  <time>2026-09-02T22:08:26Z</time>
  <course>187.46</course>
  <speed>0.06403124237432849</speed>
  <fix>3d</fix>
</trkpt>
<trkpt lat="33.810313" lon="-118.393867">
  <ele>-0.12</ele>
  <time>2026-09-02T22:08:26Z</time>
  <course>0.0</course>
  <speed>0.0</speed>
  <fix>3d</fix>
</trkpt>
<trkpt lat="33.810313" lon="-118.393867">
  <ele>-0.121</ele>
  <time>2026-09-02T22:08:26Z</time>
  <course>187.45</course>
  <speed>0.06403124237432849</speed>
  <fix>3d</fix>
</trkpt>
<trkpt lat="33.810313" lon="-118.393867">
  <ele>-0.12</ele>
  <time>2026-09-02T22:08:26Z</time>
  <course>0.0</course>
  <speed>0.0</speed>
  <fix>3d</fix>
</trkpt>
<trkpt lat="33.810313" lon="-118.393867">
  <ele>-0.122</ele>
  <time>2026-09-02T22:08:26Z</time>
  <course>187.45</course>
  <speed>0.07211102550927978</speed>
  <fix>3d</fix>
</trkpt>
<trkpt lat="33.810313" lon="-118.393867">
  <ele>-0.12</ele>
  <time>2026-09-02T22:08:26Z</time>
  <course>0.0</course>
  <speed>0.0</speed>
  <fix>3d</fix>
</trkpt>
<trkpt lat="33.810313" lon="-118.393867">
  <ele>-0.124</ele>
  <time>2026-09-02T22:08:26Z</time>
  <course>187.44</course>
  <speed>0.07211102550927978</speed>
  <fix>3d</fix>
</trkpt>
<trkpt lat="33.810313" lon="-118.393867">
  <ele>-0.12</ele>
  <time>2026-09-02T22:08:26Z</time>
  <course>0.0</course>
  <speed>0.0</speed>
  <fix>3d</fix>
</trkpt>
<trkpt lat="33.810313" lon="-118.393867">
  <ele>-0.127</ele>
  <time>2026-09-02T22:08:26Z</time>
  <course>187.44</course>
  <speed>0.07211102550927978</speed>
  <fix>3d</fix>
</trkpt>
<trkpt lat="33.810313" lon="-118.393867">
  <ele>-0.12</ele>
  <time>2026-09-02T22:08:26Z</time>
  <course>0.0</course>
  <speed>0.0</speed>
  <fix>3d</fix>
</trkpt>
<trkpt lat="33.810313" lon="-118.393867">
  <ele>-0.129</ele>
  <time>2026-09-02T22:08:26Z</time>
  <course>187.43</course>
  <speed>0.07211102550927978</speed>
  <fix>3d</fix>
</trkpt>
<trkpt lat="33.810313" lon="-118.393867">
  <ele>-0.12</ele>
  <time>2026-09-02T22:08:26Z</time>
  <course>0.0</course>
  <speed>0.0</speed>
  <fix>3d</fix>
</trkpt>
<trkpt lat="33.810313" lon="-118.393867">
  <ele>-0.131</ele>
  <time>2026-09-02T22:08:26Z</time>
  <course>187.42</course>
  <speed>0.07211102550927978</speed>
  <fix>3d</fix>
</trkpt>
<trkpt lat="33.810313" lon="-118.393867">
  <ele>-0.12</ele>
  <time>2026-09-02T22:08:26Z</time>
  <course>0.0</course>
  <speed>0.0</speed>
  <fix>3d</fix>
</trkpt>
<trkpt lat="33.810313" lon="-118.393867">
  <ele>-0.132</ele>
  <time>2026-09-02T22:08:26Z</time>
  <course>187.42</course>
  <speed>0.07211102550927978</speed>
  <fix>3d</fix>
</trkpt>
<trkpt lat="33.810313" lon="-118.393867">
  <ele>-0.12</ele>
  <time>2026-09-02T22:08:26Z</time>
  <course>0.0</course>
  <speed>0.0</speed>
  <fix>3d</fix>
</trkpt>
<trkpt lat="33.810313" lon="-118.393867">
  <ele>-0.132</ele>
  <time>2026-09-02T22:08:26Z</time>
  <course>187.41</course>
  <speed>0.07810249675906654</speed>
  <fix>3d</fix>
</trkpt>
<trkpt lat="33.810313" lon="-118.393867">
  <ele>-0.12</ele>
  <time>2026-09-02T22:08:26Z</time>
  <course>0.0</course>
  <speed>0.0</speed>
  <fix>3d</fix>
</trkpt>
<trkpt lat="33.810313" lon="-118.393867">
  <ele>-0.132</ele>
  <time>2026-09-02T22:08:26Z</time>
  <course>187.4</course>
  <speed>0.07810249675906654</speed>
  <fix>3d</fix>
</trkpt>
<trkpt lat="33.810313" lon="-118.393867">
  <ele>-0.12</ele>
  <time>2026-09-02T22:08:26Z</time>
  <course>0.0</course>
  <speed>0.0</speed>
  <fix>3d</fix>
</trkpt>
<trkpt lat="33.810313" lon="-118.393867">
  <ele>-0.132</ele>
  <time>2026-09-02T22:08:26Z</time>
  <course>187.4</course>
  <speed>0.07810249675906654</speed>
  <fix>3d</fix>
</trkpt>
<trkpt lat="33.810313" lon="-118.393867">
  <ele>-0.12</ele>
  <time>2026-09-02T22:08:26Z</time>
  <course>0.0</course>
  <speed>0.0</speed>
  <fix>3d</fix>
</trkpt>
<trkpt lat="33.810313" lon="-118.393867">
  <ele>-0.131</ele>
  <time>2026-09-02T22:08:26Z</time>
  <course>187.39</course>
  <speed>0.07810249675906654</speed>
  <fix>3d</fix>
</trkpt>
<trkpt lat="33.810313" lon="-118.393867">
  <ele>-0.12</ele>
  <time>2026-09-02T22:08:26Z</time>
  <course>0.0</course>
  <speed>0.0</speed>
  <fix>3d</fix>
</trkpt>
<trkpt lat="33.810313" lon="-118.393867">
  <ele>-0.131</ele>
  <time>2026-09-02T22:08:26Z</time>
  <course>187.38</course>
  <speed>0.07810249675906654</speed>
  <fix>3d</fix>
</trkpt>
<trkpt lat="33.810313" lon="-118.393867">
  <ele>-0.12</ele>
  <time>2026-09-02T22:08:26Z</time>
  <course>0.0</course>
  <speed>0.0</speed>
  <fix>3d</fix>
</trkpt>
<trkpt lat="33.810313" lon="-118.393867">
  <ele>-0.132</ele>
  <time>2026-09-02T22:08:26Z</time>
  <course>187.38</course>
  <speed>0.07810249675906654</speed>
  <fix>3d</fix>
</trkpt>
<trkpt lat="33.810313" lon="-118.393867">
  <ele>-0.12</ele>
  <time>2026-09-02T22:08:26Z</time>
  <course>0.0</course>
  <speed>0.0</speed>
  <fix>3d</fix>
</trkpt>
<trkpt lat="33.810313" lon="-118.393867">
  <ele>-0.134</ele>
  <time>2026-09-02T22:08:26Z</time>
  <course>187.37</course>
  <speed>0.07810249675906654</speed>
  <fix>3d</fix>
</trkpt>
<trkpt lat="33.810313" lon="-118.393867">
  <ele>-0.12</ele>
  <time>2026-09-02T22:08:26Z</time>
  <course>0.0</course>
  <speed>0.0</speed>
  <fix>3d</fix>
</trkpt>
<trkpt lat="33.810313" lon="-118.393867">
  <ele>-0.137</ele>
  <time>2026-09-02T22:08:26Z</time>
  <course>187.36</course>
  <speed>0.07810249675906654</speed>
  <fix>3d</fix>
</trkpt>
<trkpt lat="33.810313" lon="-118.393867">
  <ele>-0.12</ele>
  <time>2026-09-02T22:08:26Z</time>
  <course>0.0</course>
  <speed>0.0</speed>
  <fix>3d</fix>
</trkpt>
<trkpt lat="33.810313" lon="-118.393867">
  <ele>-0.139</ele>
  <time>2026-09-02T22:08:26Z</time>
  <course>187.36</course>
  <speed>0.07810249675906654</speed>
  <fix>3d</fix>
</trkpt>
<trkpt lat="33.810313" lon="-118.393867">
  <ele>-0.12</ele>
  <time>2026-09-02T22:08:26Z</time>
  <course>0.0</course>
  <speed>0.0</speed>
  <fix>3d</fix>
</trkpt>
<trkpt lat="33.810313" lon="-118.393867">
  <ele>-0.141</ele>
  <time>2026-09-02T22:08:26Z</time>
  <course>187.35</course>
  <speed>0.07810249675906654</speed>
  <fix>3d</fix>
</trkpt>
<trkpt lat="33.810313" lon="-118.393867">
  <ele>-0.12</ele>
  <time>2026-09-02T22:08:26Z</time>
  <course>0.0</course>
  <speed>0.0</speed>
  <fix>3d</fix>
</trkpt>
<trkpt lat="33.810313" lon="-118.393867">
  <ele>-0.141</ele>
  <time>2026-09-02T22:08:26Z</time>
  <course>187.35</course>
  <speed>0.07810249675906654</speed>
  <fix>3d</fix>
</trkpt>
<trkpt lat="33.810313" lon="-118.393867">
  <ele>-0.12</ele>
  <time>2026-09-02T22:08:26Z</time>
  <course>0.0</course>
  <speed>0.0</speed>
  <fix>3d</fix>
</trkpt>
<trkpt lat="33.810313" lon="-118.393867">
  <ele>-0.139</ele>
  <time>2026-09-02T22:08:26Z</time>
  <course>187.34</course>
  <speed>0.08602325267042626</speed>
  <fix>3d</fix>
</trkpt>
<trkpt lat="33.810313" lon="-118.393867">
  <ele>-0.12</ele>
  <time>2026-09-02T22:08:26Z</time>
  <course>0.0</course>
  <speed>0.0</speed>
  <fix>3d</fix>
</trkpt>
<trkpt lat="33.810313" lon="-118.393867">
  <ele>-0.136</ele>
  <time>2026-09-02T22:08:26Z</time>
  <course>187.33</course>
  <speed>0.08602325267042626</speed>
  <fix>3d</fix>
</trkpt>
<trkpt lat="33.810313" lon="-118.393867">
  <ele>-0.12</ele>
  <time>2026-09-02T22:08:26Z</time>
  <course>0.0</course>
  <speed>0.0</speed>
  <fix>3d</fix>
</trkpt>
<trkpt lat="33.810313" lon="-118.393867">
  <ele>-0.132</ele>
  <time>2026-09-02T22:08:26Z</time>
  <course>187.33</course>
  <speed>0.08602325267042626</speed>
  <fix>3d</fix>
</trkpt>
<trkpt lat="33.810313" lon="-118.393867">
  <ele>-0.12</ele>
  <time>2026-09-02T22:08:26Z</time>
  <course>0.0</course>
  <speed>0.0</speed>
  <fix>3d</fix>
</trkpt>
<trkpt lat="33.810313" lon="-118.393867">
  <ele>-0.129</ele>
  <time>2026-09-02T22:08:26Z</time>
  <course>187.32</course>
  <speed>0.08602325267042626</speed>
  <fix>3d</fix>
</trkpt>
<trkpt lat="33.810313" lon="-118.393867">
  <ele>-0.12</ele>
  <time>2026-09-02T22:08:26Z</time>
  <course>0.0</course>
  <speed>0.0</speed>
  <fix>3d</fix>
</trkpt>
<trkpt lat="33.810313" lon="-118.393867">
  <ele>-0.127</ele>
  <time>2026-09-02T22:08:26Z</time>
  <course>187.31</course>
  <speed>0.08602325267042626</speed>
  <fix>3d</fix>
</trkpt>
<trkpt lat="33.810313" lon="-118.393867">
  <ele>-0.12</ele>
  <time>2026-09-02T22:08:26Z</time>
  <course>0.0</course>
  <speed>0.0</speed>
  <fix>3d</fix>
</trkpt>
<trkpt lat="33.810313" lon="-118.393867">
  <ele>-0.126</ele>
  <time>2026-09-02T22:08:26Z</time>
  <course>187.31</course>
  <speed>0.08602325267042626</speed>
  <fix>3d</fix>
</trkpt>
<trkpt lat="33.810313" lon="-118.393867">
  <ele>-0.12</ele>
  <time>2026-09-02T22:08:26Z</time>
  <course>0.0</course>
  <speed>0.0</speed>
  <fix>3d</fix>
</trkpt>
<trkpt lat="33.810313" lon="-118.393867">
  <ele>-0.126</ele>
  <time>2026-09-02T22:08:26Z</time>
  <course>187.3</course>
  <speed>0.08602325267042626</speed>
  <fix>3d</fix>
</trkpt>
<trkpt lat="33.810313" lon="-118.393867">
  <ele>-0.12</ele>
  <time>2026-09-02T22:08:26Z</time>
  <course>0.0</course>
  <speed>0.0</speed>
  <fix>3d</fix>
</trkpt>
<trkpt lat="33.810313" lon="-118.393867">
  <ele>-0.127</ele>
  <time>2026-09-02T22:08:26Z</time>
  <course>187.3</course>
  <speed>0.08602325267042626</speed>
  <fix>3d</fix>
</trkpt>
<trkpt lat="33.810313" lon="-118.393867">
  <ele>-0.12</ele>
  <time>2026-09-02T22:08:26Z</time>
  <course>0.0</course>
  <speed>0.0</speed>
  <fix>3d</fix>
</trkpt>
<trkpt lat="33.810313" lon="-118.393867">
  <ele>-0.126</ele>
  <time>2026-09-02T22:08:26Z</time>
  <course>187.29</course>
  <speed>0.08602325267042626</speed>
  <fix>3d</fix>
</trkpt>
<trkpt lat="33.810313" lon="-118.393867">
  <ele>-0.12</ele>
  <time>2026-09-02T22:08:26Z</time>
  <course>0.0</course>
  <speed>0.0</speed>
  <fix>3d</fix>
</trkpt>
<trkpt lat="33.810313" lon="-118.393867">
  <ele>-0.126</ele>
  <time>2026-09-02T22:08:26Z</time>
  <course>187.28</course>
  <speed>0.08602325267042626</speed>
  <fix>3d</fix>
</trkpt>
<trkpt lat="33.810313" lon="-118.393867">
  <ele>-0.12</ele>
  <time>2026-09-02T22:08:26Z</time>
  <course>0.0</course>
  <speed>0.0</speed>
  <fix>3d</fix>
</trkpt>
<trkpt lat="33.810313" lon="-118.393867">
  <ele>-0.125</ele>
  <time>2026-09-02T22:08:26Z</time>
  <course>187.28</course>
  <speed>0.09219544457292887</speed>
  <fix>3d</fix>
</trkpt>
<trkpt lat="33.810313" lon="-118.393867">
  <ele>-0.12</ele>
  <time>2026-09-02T22:08:26Z</time>
  <course>0.0</course>
  <speed>0.0</speed>
  <fix>3d</fix>
</trkpt>
<trkpt lat="33.810313" lon="-118.393867">
  <ele>-0.124</ele>
  <time>2026-09-02T22:08:26Z</time>
  <course>187.27</course>
  <speed>0.09219544457292887</speed>
  <fix>3d</fix>
</trkpt>
<trkpt lat="33.810313" lon="-118.393867">
  <ele>-0.12</ele>
  <time>2026-09-02T22:08:26Z</time>
  <course>0.0</course>
  <speed>0.0</speed>
  <fix>3d</fix>
</trkpt>
<trkpt lat="33.810313" lon="-118.393867">
  <ele>-0.122</ele>
  <time>2026-09-02T22:08:26Z</time>
  <course>187.26</course>
  <speed>0.09219544457292887</speed>
  <fix>3d</fix>
</trkpt>
<trkpt lat="33.810313" lon="-118.393867">
  <ele>-0.12</ele>
  <time>2026-09-02T22:08:26Z</time>
  <course>0.0</course>
  <speed>0.0</speed>
  <fix>3d</fix>
</trkpt>
<trkpt lat="33.810313" lon="-118.393867">
  <ele>-0.121</ele>
  <time>2026-09-02T22:08:26Z</time>
  <course>187.26</course>
  <speed>0.09219544457292887</speed>
  <fix>3d</fix>
</trkpt>
<trkpt lat="33.810313" lon="-118.393867">
  <ele>-0.12</ele>
  <time>2026-09-02T22:08:26Z</time>
  <course>0.0</course>
  <speed>0.0</speed>
  <fix>3d</fix>
</trkpt>
<trkpt lat="33.810313" lon="-118.393867">
  <ele>-0.122</ele>
  <time>2026-09-02T22:08:26Z</time>
  <course>187.25</course>
  <speed>0.09219544457292887</speed>
  <fix>3d</fix>
</trkpt>
<trkpt lat="33.810313" lon="-118.393867">
  <ele>-0.12</ele>
  <time>2026-09-02T22:08:26Z</time>
  <course>0.0</course>
  <speed>0.0</speed>
  <fix>3d</fix>
</trkpt>
<trkpt lat="33.810313" lon="-118.393867">
  <ele>-0.124</ele>
  <time>2026-09-02T22:08:26Z</time>
  <course>187.25</course>
  <speed>0.1</speed>
  <fix>3d</fix>
</trkpt>
<trkpt lat="33.810313" lon="-118.393867">
  <ele>-0.12</ele>
  <time>2026-09-02T22:08:26Z</time>
  <course>0.0</course>
  <speed>0.0</speed>
  <fix>3d</fix>
</trkpt>
<trkpt lat="33.810313" lon="-118.393867">
  <ele>-0.128</ele>
  <time>2026-09-02T22:08:26Z</time>
  <course>187.24</course>
  <speed>0.1</speed>
  <fix>3d</fix>
</trkpt>
<trkpt lat="33.810313" lon="-118.393867">
  <ele>-0.12</ele>
  <time>2026-09-02T22:08:26Z</time>
  <course>0.0</course>
  <speed>0.0</speed>
  <fix>3d</fix>
</trkpt>
<trkpt lat="33.810313" lon="-118.393867">
  <ele>-0.13</ele>
  <time>2026-09-02T22:08:26Z</time>
  <course>187.23</course>
  <speed>0.1</speed>
  <fix>3d</fix>
</trkpt>
<trkpt lat="33.810313" lon="-118.393867">
  <ele>-0.12</ele>
  <time>2026-09-02T22:08:26Z</time>
  <course>0.0</course>
  <speed>0.0</speed>
  <fix>3d</fix>
</trkpt>
<trkpt lat="33.810313" lon="-118.393867">
  <ele>-0.133</ele>
  <time>2026-09-02T22:08:26Z</time>
  <course>187.23</course>
  <speed>0.1</speed>
  <fix>3d</fix>
</trkpt>
<trkpt lat="33.810313" lon="-118.393867">
  <ele>-0.12</ele>
  <time>2026-09-02T22:08:26Z</time>
  <course>0.0</course>
  <speed>0.0</speed>
  <fix>3d</fix>
</trkpt>
<trkpt lat="33.810313" lon="-118.393867">
  <ele>-0.135</ele>
  <time>2026-09-02T22:08:26Z</time>
  <course>187.22</course>
  <speed>0.1</speed>
  <fix>3d</fix>
</trkpt>
<trkpt lat="33.810313" lon="-118.393867">
  <ele>-0.12</ele>
  <time>2026-09-02T22:08:26Z</time>
  <course>0.0</course>
  <speed>0.0</speed>
  <fix>3d</fix>
</trkpt>
<trkpt lat="33.810313" lon="-118.393867">
  <ele>-0.136</ele>
  <time>2026-09-02T22:08:26Z</time>
  <course>187.22</course>
  <speed>0.1</speed>
  <fix>3d</fix>
</trkpt>
<trkpt lat="33.810313" lon="-118.393867">
  <ele>-0.12</ele>
  <time>2026-09-02T22:08:26Z</time>
  <course>0.0</course>
  <speed>0.0</speed>
  <fix>3d</fix>
</trkpt>
<trkpt lat="33.810313" lon="-118.393867">
  <ele>-0.136</ele>
  <time>2026-09-02T22:08:26Z</time>
  <course>187.21</course>
  <speed>0.1</speed>
  <fix>3d</fix>
</trkpt>
<trkpt lat="33.810313" lon="-118.393867">
  <ele>-0.12</ele>
  <time>2026-09-02T22:08:26Z</time>
  <course>0.0</course>
  <speed>0.0</speed>
  <fix>3d</fix>
</trkpt>
<trkpt lat="33.810313" lon="-118.393867">
  <ele>-0.135</ele>
  <time>2026-09-02T22:08:26Z</time>
  <course>187.2</course>
  <speed>0.1</speed>
  <fix>3d</fix>
</trkpt>
<trkpt lat="33.810313" lon="-118.393867">
  <ele>-0.12</ele>
  <time>2026-09-02T22:08:26Z</time>
  <course>0.0</course>
  <speed>0.0</speed>
  <fix>3d</fix>
</trkpt>
<trkpt lat="33.810313" lon="-118.393867">
  <ele>-0.134</ele>
  <time>2026-09-02T22:08:26Z</time>
  <course>187.2</course>
  <speed>0.1</speed>
  <fix>3d</fix>
</trkpt>
<trkpt lat="33.810313" lon="-118.393867">
  <ele>-0.12</ele>
  <time>2026-09-02T22:08:26Z</time>
  <course>0.0</course>
  <speed>0.0</speed>
  <fix>3d</fix>
</trkpt>
<trkpt lat="33.810313" lon="-118.393867">
  <ele>-0.132</ele>
  <time>2026-09-02T22:08:26Z</time>
  <course>187.19</course>
  <speed>0.1</speed>
  <fix>3d</fix>
</trkpt>
<trkpt lat="33.810313" lon="-118.393867">
  <ele>-0.12</ele>
  <time>2026-09-02T22:08:26Z</time>
  <course>0.0</course>
  <speed>0.0</speed>
  <fix>3d</fix>
</trkpt>
<trkpt lat="33.810313" lon="-118.393867">
  <ele>-0.131</ele>
  <time>2026-09-02T22:08:26Z</time>
  <course>187.19</course>
  <speed>0.1063014581273465</speed>
  <fix>3d</fix>
</trkpt>
<trkpt lat="33.810313" lon="-118.393867">
  <ele>-0.12</ele>
  <time>2026-09-02T22:08:26Z</time>
  <course>0.0</course>
  <speed>0.0</speed>
  <fix>3d</fix>
</trkpt>
<trkpt lat="33.810313" lon="-118.393867">
  <ele>-0.131</ele>
  <time>2026-09-02T22:08:26Z</time>
  <course>187.18</course>
  <speed>0.1063014581273465</speed>
  <fix>3d</fix>
</trkpt>
<trkpt lat="33.810313" lon="-118.393867">
  <ele>-0.12</ele>
  <time>2026-09-02T22:08:26Z</time>
  <course>0.0</course>
  <speed>0.0</speed>
  <fix>3d</fix>
</trkpt>
<trkpt lat="33.810313" lon="-118.393867">
  <ele>-0.132</ele>
  <time>2026-09-02T22:08:26Z</time>
  <course>187.17</course>
  <speed>0.11401754250991379</speed>
  <fix>3d</fix>
</trkpt>
<trkpt lat="33.810313" lon="-118.393867">
  <ele>-0.12</ele>
  <time>2026-09-02T22:08:26Z</time>
  <course>0.0</course>
  <speed>0.0</speed>
  <fix>3d</fix>
</trkpt>
<trkpt lat="33.810313" lon="-118.393867">
  <ele>-0.132</ele>
  <time>2026-09-02T22:08:26Z</time>
  <course>187.17</course>
  <speed>0.11401754250991379</speed>
  <fix>3d</fix>
</trkpt>
<trkpt lat="33.810313" lon="-118.393867">
  <ele>-0.12</ele>
  <time>2026-09-02T22:08:26Z</time>
  <course>0.0</course>
  <speed>0.0</speed>
  <fix>3d</fix>
</trkpt>
<trkpt lat="33.810313" lon="-118.393867">
  <ele>-0.133</ele>
  <time>2026-09-02T22:08:26Z</time>
  <course>187.16</course>
  <speed>0.11401754250991379</speed>
  <fix>3d</fix>
</trkpt>
<trkpt lat="33.810313" lon="-118.393867">
  <ele>-0.12</ele>
  <time>2026-09-02T22:08:26Z</time>
  <course>0.0</course>
  <speed>0.0</speed>
  <fix>3d</fix>
</trkpt>
<trkpt lat="33.810313" lon="-118.393867">
  <ele>-0.132</ele>
  <time>2026-09-02T22:08:26Z</time>
  <course>187.16</course>
  <speed>0.11401754250991379</speed>
  <fix>3d</fix>
</trkpt>
<trkpt lat="33.810313" lon="-118.393867">
  <ele>-0.12</ele>
  <time>2026-09-02T22:08:26Z</time>
  <course>0.0</course>
  <speed>0.0</speed>
  <fix>3d</fix>
</trkpt>
<trkpt lat="33.810313" lon="-118.393867">
  <ele>-0.131</ele>
  <time>2026-09-02T22:08:26Z</time>
  <course>187.15</course>
  <speed>0.11401754250991379</speed>
  <fix>3d</fix>
</trkpt>
<trkpt lat="33.810313" lon="-118.393867">
  <ele>-0.12</ele>
  <time>2026-09-02T22:08:26Z</time>
  <course>0.0</course>
  <speed>0.0</speed>
  <fix>3d</fix>
</trkpt>
<trkpt lat="33.810313" lon="-118.393867">
  <ele>-0.129</ele>
  <time>2026-09-02T22:08:26Z</time>
  <course>187.14</course>
  <speed>0.11401754250991379</speed>
  <fix>3d</fix>
</trkpt>
<trkpt lat="33.810313" lon="-118.393867">
  <ele>-0.12</ele>
  <time>2026-09-02T22:08:26Z</time>
  <course>0.0</course>
  <speed>0.0</speed>
  <fix>3d</fix>
</trkpt>
<trkpt lat="33.810313" lon="-118.393867">
  <ele>-0.126</ele>
  <time>2026-09-02T22:08:26Z</time>
  <course>187.14</course>
  <speed>0.11401754250991379</speed>
  <fix>3d</fix>
</trkpt>
<trkpt lat="33.810313" lon="-118.393867">
  <ele>-0.12</ele>
  <time>2026-09-02T22:08:26Z</time>
  <course>0.0</course>
  <speed>0.0</speed>
  <fix>3d</fix>
</trkpt>
<trkpt lat="33.810313" lon="-118.393867">
  <ele>-0.124</ele>
  <time>2026-09-02T22:08:26Z</time>
  <course>187.13</course>
  <speed>0.11401754250991379</speed>
  <fix>3d</fix>
</trkpt>
<trkpt lat="33.810313" lon="-118.393867">
  <ele>-0.12</ele>
  <time>2026-09-02T22:08:26Z</time>
  <course>0.0</course>
  <speed>0.0</speed>
  <fix>3d</fix>
</trkpt>
<trkpt lat="33.810313" lon="-118.393867">
  <ele>-0.123</ele>
  <time>2026-09-02T22:08:26Z</time>
  <course>187.13</course>
  <speed>0.11401754250991379</speed>
  <fix>3d</fix>
</trkpt>
<trkpt lat="33.810313" lon="-118.393867">
  <ele>-0.12</ele>
  <time>2026-09-02T22:08:26Z</time>
  <course>0.0</course>
  <speed>0.0</speed>
  <fix>3d</fix>
</trkpt>
<trkpt lat="33.810313" lon="-118.393867">
  <ele>-0.123</ele>
  <time>2026-09-02T22:08:26Z</time>
  <course>187.12</course>
  <speed>0.11401754250991379</speed>
  <fix>3d</fix>
</trkpt>
<trkpt lat="33.810313" lon="-118.393867">
  <ele>-0.12</ele>
  <time>2026-09-02T22:08:26Z</time>
  <course>0.0</course>
  <speed>0.0</speed>
  <fix>3d</fix>
</trkpt>
<trkpt lat="33.810313" lon="-118.393867">
  <ele>-0.122</ele>
  <time>2026-09-02T22:08:26Z</time>
  <course>187.11</course>
  <speed>0.0</speed>
  <fix>3d</fix>
</trkpt>
<trkpt lat="33.810313" lon="-118.393867">
  <ele>-0.12</ele>
  <time>2026-09-02T22:08:26Z</time>
  <course>0.0</course>
  <speed>0.0</speed>
  <fix>3d</fix>
</trkpt>
<trkpt lat="33.810313" lon="-118.393867">
  <ele>-0.121</ele>
  <time>2026-09-02T22:08:26Z</time>
  <course>187.11</course>
  <speed>0.0</speed>
  <fix>3d</fix>
</trkpt>
<trkpt lat="33.810313" lon="-118.393867">
  <ele>-0.12</ele>
  <time>2026-09-02T22:08:26Z</time>
  <course>0.0</course>
  <speed>0.0</speed>
  <fix>3d</fix>
</trkpt>
<trkpt lat="33.810313" lon="-118.393867">
  <ele>-0.12</ele>
  <time>2026-09-02T22:08:26Z</time>
  <course>186.81</course>
  <speed>0.0</speed>
  <fix>3d</fix>
</trkpt>
<trkpt lat="33.810313" lon="-118.393867">
  <ele>-0.12</ele>
  <time>2026-09-02T22:08:26Z</time>
  <course>319.99</course>
  <speed>0.0</speed>
  <fix>3d</fix>
</trkpt>
<trkpt lat="33.810313" lon="-118.393867">
  <ele>-0.119</ele>
  <time>2026-09-02T22:08:26Z</time>
  <course>186.17</course>
  <speed>0.0</speed>
  <fix>3d</fix>
</trkpt>
<trkpt lat="33.810313" lon="-118.393867">
  <ele>-0.12</ele>
  <time>2026-09-02T22:08:26Z</time>
  <course>319.99</course>
  <speed>0.0</speed>
  <fix>3d</fix>
</trkpt>
<trkpt lat="33.810313" lon="-118.393867">
  <ele>-0.117</ele>
  <time>2026-09-02T22:08:26Z</time>
  <course>185.81</course>
  <speed>0.01</speed>
  <fix>3d</fix>
</trkpt>
<trkpt lat="33.810313" lon="-118.393867">
  <ele>-0.12</ele>
  <time>2026-09-02T22:08:26Z</time>
  <course>291.29</course>
  <speed>0.0</speed>
  <fix>3d</fix>
</trkpt>
<trkpt lat="33.8103129" lon="-118.393867">
  <ele>-0.117</ele>
  <time>2026-09-02T22:08:26Z</time>
  <course>186.18</course>
  <speed>0.01414213562373095</speed>
  <fix>3d</fix>
</trkpt>
<trkpt lat="33.810313" lon="-118.393867">
  <ele>-0.12</ele>
  <time>2026-09-02T22:08:26Z</time>
  <course>291.29</course>
  <speed>0.0</speed>
  <fix>3d</fix>
</trkpt>
<trkpt lat="33.8103129" lon="-118.393867">
  <ele>-0.121</ele>
  <time>2026-09-02T22:08:26Z</time>
  <course>187.15</course>
  <speed>0.022360679774997897</speed>
  <fix>3d</fix>
</trkpt>
<trkpt lat="33.810313" lon="-118.393867">
  <ele>-0.12</ele>
  <time>2026-09-02T22:08:26Z</time>
  <course>195.42</course>
  <speed>0.01</speed>
  <fix>3d</fix>
</trkpt>
<trkpt lat="33.8103129" lon="-118.393867">
  <ele>-0.128</ele>
  <time>2026-09-02T22:08:26Z</time>
  <course>188.32</course>
  <speed>0.044721359549995794</speed>
  <fix>3d</fix>
</trkpt>
<trkpt lat="33.810313" lon="-118.393867">
  <ele>-0.12</ele>
  <time>2026-09-02T22:08:26Z</time>
  <course>195.42</course>
  <speed>0.01</speed>
  <fix>3d</fix>
</trkpt>
<trkpt lat="33.8103128" lon="-118.393867">
  <ele>-0.138</ele>
  <time>2026-09-02T22:08:26Z</time>
  <course>189.29</course>
  <speed>0.07280109889280519</speed>
  <fix>3d</fix>
</trkpt>
<trkpt lat="33.810313" lon="-118.393867">
  <ele>-0.13</ele>
  <time>2026-09-02T22:08:26Z</time>
  <course>188.48</course>
  <speed>0.04</speed>
  <fix>3d</fix>
</trkpt>
<trkpt lat="33.8103128" lon="-118.393867">
  <ele>-0.15</ele>
  <time>2026-09-02T22:08:26Z</time>
  <course>190.25</course>
  <speed>0.1019803902718557</speed>
  <fix>3d</fix>
</trkpt>
<trkpt lat="33.810313" lon="-118.393867">
  <ele>-0.13</ele>
  <time>2026-09-02T22:08:26Z</time>
  <course>188.48</course>
  <speed>0.04</speed>
  <fix>3d</fix>
</trkpt>
<trkpt lat="33.8103126" lon="-118.393867">
  <ele>-0.167</ele>
  <time>2026-09-02T22:08:26Z</time>
  <course>191.15</course>
  <speed>0.15297058540778355</speed>
  <fix>3d</fix>
</trkpt>
<trkpt lat="33.8103129" lon="-118.393867">
  <ele>-0.15</ele>
  <time>2026-09-02T22:08:26Z</time>
  <course>186.13</course>
  <speed>0.1</speed>
  <fix>3d</fix>
</trkpt>
<trkpt lat="33.8103125" lon="-118.393867">
  <ele>-0.186</ele>
  <time>2026-09-02T22:08:26Z</time>
  <course>191.63</course>
  <speed>0.2039607805437114</speed>
  <fix>3d</fix>
</trkpt>
<trkpt lat="33.8103129" lon="-118.393867">
  <ele>-0.15</ele>
  <time>2026-09-02T22:08:26Z</time>
  <course>186.13</course>
  <speed>0.1</speed>
  <fix>3d</fix>
</trkpt>
<trkpt lat="33.8103123" lon="-118.393867">
  <ele>-0.208</ele>
  <time>2026-09-02T22:08:26Z</time>
  <course>191.64</course>
  <speed>0.25495097567963926</speed>
  <fix>3d</fix>
</trkpt>
<trkpt lat="33.8103126" lon="-118.393867">
  <ele>-0.17</ele>
  <time>2026-09-02T22:08:26Z</time>
  <course>185.46</course>
  <speed>0.18</speed>
  <fix>3d</fix>
</trkpt>
<trkpt lat="33.810312" lon="-118.3938671">
  <ele>-0.236</ele>
  <time>2026-09-02T22:08:26Z</time>
  <course>191.42</course>
  <speed>0.3059411708155671</speed>
  <fix>3d</fix>
</trkpt>
<trkpt lat="33.8103126" lon="-118.393867">
  <ele>-0.17</ele>
  <time>2026-09-02T22:08:26Z</time>
  <course>185.46</course>
  <speed>0.18</speed>
  <fix>3d</fix>
</trkpt>
<trkpt lat="33.8103117" lon="-118.3938671">
  <ele>-0.268</ele>
  <time>2026-09-02T22:08:26Z</time>
  <course>191.27</course>
  <speed>0.366742416417845</speed>
  <fix>3d</fix>
</trkpt>
<trkpt lat="33.8103121" lon="-118.393867">
  <ele>-0.21</ele>
  <time>2026-09-02T22:08:26Z</time>
  <course>185.83</course>
  <speed>0.29</speed>
  <fix>3d</fix>
</trkpt>
<trkpt lat="33.8103113" lon="-118.3938672">
  <ele>-0.305</ele>
  <time>2026-09-02T22:08:26Z</time>
  <course>191.29</course>
  <speed>0.42755116652863895</speed>
  <fix>3d</fix>
</trkpt>
<trkpt lat="33.8103121" lon="-118.393867">
  <ele>-0.21</ele>
  <time>2026-09-02T22:08:26Z</time>
  <course>185.83</course>
  <speed>0.29</speed>
  <fix>3d</fix>
</trkpt>
<trkpt lat="33.8103109" lon="-118.3938673">
  <ele>-0.347</ele>
  <time>2026-09-02T22:08:26Z</time>
  <course>191.45</course>
  <speed>0.47853944456021597</speed>
  <fix>3d</fix>
</trkpt>
<trkpt lat="33.8103115" lon="-118.3938671">
  <ele>-0.27</ele>
  <time>2026-09-02T22:08:26Z</time>
  <course>186.67</course>
  <speed>0.41</speed>
  <fix>3d</fix>
</trkpt>
<trkpt lat="33.8103105" lon="-118.3938674">
  <ele>-0.394</ele>
  <time>2026-09-02T22:08:26Z</time>
  <course>191.64</course>
  <speed>0.5295280917949491</speed>
  <fix>3d</fix>
</trkpt>
<trkpt lat="33.8103115" lon="-118.3938671">
  <ele>-0.27</ele>
  <time>2026-09-02T22:08:26Z</time>
  <course>186.67</course>
  <speed>0.41</speed>
  <fix>3d</fix>
</trkpt>
<trkpt lat="33.81031" lon="-118.3938674">
  <ele>-0.444</ele>
  <time>2026-09-02T22:08:26Z</time>
  <course>191.8</course>
  <speed>0.5805170109479997</speed>
  <fix>3d</fix>
</trkpt>
<trkpt lat="33.8103107" lon="-118.3938672">
  <ele>-0.34</ele>
  <time>2026-09-02T22:08:26Z</time>
  <course>187.44</course>
  <speed>0.52</speed>
  <fix>3d</fix>
</trkpt>
<trkpt lat="33.8103094" lon="-118.3938675">
  <ele>-0.499</ele>
  <time>2026-09-02T22:08:26Z</time>
  <course>191.93</course>
  <speed>0.6118823416311342</speed>
  <fix>3d</fix>
</trkpt>
<trkpt lat="33.8103107" lon="-118.3938672">
  <ele>-0.34</ele>
  <time>2026-09-02T22:08:26Z</time>
  <course>187.44</course>
  <speed>0.52</speed>
  <fix>3d</fix>
</trkpt>
<trkpt lat="33.8103089" lon="-118.3938677">
  <ele>-0.558</ele>
  <time>2026-09-02T22:08:26Z</time>
  <course>192.04</course>
  <speed>0.6530696746902278</speed>
  <fix>3d</fix>
</trkpt>
<trkpt lat="33.8103097" lon="-118.3938674">
  <ele>-0.43</ele>
  <time>2026-09-02T22:08:26Z</time>
  <course>188.04</course>
  <speed>0.61</speed>
  <fix>3d</fix>
</trkpt>
<trkpt lat="33.8103083" lon="-118.3938678">
  <ele>-0.62</ele>
  <time>2026-09-02T22:08:26Z</time>
  <course>192.13</course>
  <speed>0.6844705983459041</speed>
  <fix>3d</fix>
</trkpt>
<trkpt lat="33.8103097" lon="-118.3938674">
  <ele>-0.43</ele>
  <time>2026-09-02T22:08:26Z</time>
  <course>188.04</course>
  <speed>0.61</speed>
  <fix>3d</fix>
</trkpt>
<trkpt lat="33.8103076" lon="-118.3938679">
  <ele>-0.685</ele>
  <time>2026-09-02T22:08:26Z</time>
  <course>192.2</course>
  <speed>0.71386273190299</speed>
  <fix>3d</fix>
</trkpt>
<trkpt lat="33.8103085" lon="-118.3938676">
  <ele>-0.53</ele>
  <time>2026-09-02T22:08:26Z</time>
  <course>188.52</course>
  <speed>0.69</speed>
  <fix>3d</fix>
</trkpt>
<trkpt lat="33.810307" lon="-118.393868">
  <ele>-0.751</ele>
  <time>2026-09-02T22:08:26Z</time>
  <course>190.1</course>
  <speed>0.737563556583431</speed>
  <fix>3d</fix>
</trkpt>
<trkpt lat="33.8103085" lon="-118.3938676">
  <ele>-0.53</ele>
  <time>2026-09-02T22:08:26Z</time>
  <course>188.52</course>
  <speed>0.69</speed>
  <fix>3d</fix>
</trkpt>
<trkpt lat="33.8103063" lon="-118.3938682">
  <ele>-0.819</ele>
  <time>2026-09-02T22:08:26Z</time>
  <course>190.71</course>
  <speed>0.757099729229908</speed>
  <fix>3d</fix>
</trkpt>
<trkpt lat="33.8103072" lon="-118.3938679">
  <ele>-0.65</ele>
  <time>2026-09-02T22:08:26Z</time>
  <course>189.19</course>
  <speed>0.75</speed>
  <fix>3d</fix>
</trkpt>
<trkpt lat="33.8103056" lon="-118.3938683">
  <ele>-0.888</ele>
  <time>2026-09-02T22:08:26Z</time>
  <course>191.51</course>
  <speed>0.776659513557904</speed>
  <fix>3d</fix>
</trkpt>
<trkpt lat="33.8103072" lon="-118.3938679">
  <ele>-0.65</ele>
  <time>2026-09-02T22:08:26Z</time>
  <course>189.19</course>
  <speed>0.75</speed>
  <fix>3d</fix>
</trkpt>
<trkpt lat="33.8103049" lon="-118.3938685">
  <ele>-0.957</ele>
  <time>2026-09-02T22:08:26Z</time>
  <course>192.01</course>
  <speed>0.7864477096412705</speed>
  <fix>3d</fix>
</trkpt>
<trkpt lat="33.8103058" lon="-118.3938681">
  <ele>-0.78</ele>
  <time>2026-09-02T22:08:26Z</time>
  <course>189.73</course>
  <speed>0.8</speed>
  <fix>3d</fix>
</trkpt>
<trkpt lat="33.8103042" lon="-118.3938686">
  <ele>-1.027</ele>
  <time>2026-09-02T22:08:26Z</time>
  <course>192.21</course>
  <speed>0.7983107164506812</speed>
  <fix>3d</fix>
</trkpt>
<trkpt lat="33.8103058" lon="-118.3938681">
  <ele>-0.78</ele>
  <time>2026-09-02T22:08:26Z</time>
  <course>189.73</course>
  <speed>0.8</speed>
  <fix>3d</fix>
</trkpt>
<trkpt lat="33.8103034" lon="-118.3938688">
  <ele>-1.098</ele>
  <time>2026-09-02T22:08:26Z</time>
  <course>192.27</course>
  <speed>0.7983107164506812</speed>
  <fix>3d</fix>
</trkpt>
<trkpt lat="33.8103044" lon="-118.3938684">
  <ele>-0.9</ele>
  <time>2026-09-02T22:08:26Z</time>
  <course>189.91</course>
  <speed>0.82</speed>
  <fix>3d</fix>
</trkpt>
<trkpt lat="33.8103027" lon="-118.3938689">
  <ele>-1.169</ele>
  <time>2026-09-02T22:08:26Z</time>
  <course>192.27</course>
  <speed>0.808084154033477</speed>
  <fix>3d</fix>
</trkpt>
<trkpt lat="33.8103044" lon="-118.3938684">
  <ele>-0.9</ele>
  <time>2026-09-02T22:08:26Z</time>
  <course>189.91</course>
  <speed>0.82</speed>
  <fix>3d</fix>
</trkpt>
<trkpt lat="33.810302" lon="-118.3938691">
  <ele>-1.241</ele>
  <time>2026-09-02T22:08:26Z</time>
  <course>192.3</course>
  <speed>0.808084154033477</speed>
  <fix>3d</fix>
</trkpt>
<trkpt lat="33.8103029" lon="-118.3938687">
  <ele>-1.05</ele>
  <time>2026-09-02T22:08:26Z</time>
  <course>190.15</course>
  <speed>0.84</speed>
  <fix>3d</fix>
</trkpt>
<trkpt lat="33.8103012" lon="-118.3938692">
  <ele>-1.313</ele>
  <time>2026-09-02T22:08:26Z</time>
  <course>192.34</course>
  <speed>0.8178630692236935</speed>
  <fix>3d</fix>
</trkpt>
<trkpt lat="33.8103029" lon="-118.3938687">
  <ele>-1.05</ele>
  <time>2026-09-02T22:08:26Z</time>
  <course>190.15</course>
  <speed>0.84</speed>
  <fix>3d</fix>
</trkpt>
<trkpt lat="33.8103005" lon="-118.3938694">
  <ele>-1.386</ele>
  <time>2026-09-02T22:08:26Z</time>
  <course>192.4</course>
  <speed>0.8178630692236935</speed>
  <fix>3d</fix>
</trkpt>
<trkpt lat="33.8103014" lon="-118.3938691">
  <ele>-1.19</ele>
  <time>2026-09-02T22:08:26Z</time>
  <course>190.54</course>
  <speed>0.84</speed>
  <fix>3d</fix>
</trkpt>
<trkpt lat="33.8102997" lon="-118.3938696">
  <ele>-1.459</ele>
  <time>2026-09-02T22:08:26Z</time>
  <course>192.43</course>
  <speed>0.8276472678623424</speed>
  <fix>3d</fix>
</trkpt>
<trkpt lat="33.8103014" lon="-118.3938691">
  <ele>-1.19</ele>
  <time>2026-09-02T22:08:26Z</time>
  <course>190.54</course>
  <speed>0.84</speed>
  <fix>3d</fix>
</trkpt>
<trkpt lat="33.810299" lon="-118.3938697">
  <ele>-1.532</ele>
  <time>2026-09-02T22:08:26Z</time>
  <course>192.45</course>
  <speed>0.8276472678623424</speed>
  <fix>3d</fix>
</trkpt>
<trkpt lat="33.8102999" lon="-118.3938694">
  <ele>-1.32</ele>
  <time>2026-09-02T22:08:26Z</time>
  <course>190.91</course>
  <speed>0.85</speed>
  <fix>3d</fix>
</trkpt>
<trkpt lat="33.8102982" lon="-118.3938699">
  <ele>-1.604</ele>
  <time>2026-09-02T22:08:26Z</time>
  <course>192.45</course>
  <speed>0.8276472678623424</speed>
  <fix>3d</fix>
</trkpt>
<trkpt lat="33.8102999" lon="-118.3938694">
  <ele>-1.32</ele>
  <time>2026-09-02T22:08:26Z</time>
  <course>190.91</course>
  <speed>0.85</speed>
  <fix>3d</fix>
</trkpt>
<trkpt lat="33.8102975" lon="-118.3938701">
  <ele>-1.675</ele>
  <time>2026-09-02T22:08:26Z</time>
  <course>192.43</course>
  <speed>0.8276472678623424</speed>
  <fix>3d</fix>
</trkpt>
<trkpt lat="33.8102984" lon="-118.3938698">
  <ele>-1.47</ele>
  <time>2026-09-02T22:08:26Z</time>
  <course>191.23</course>
  <speed>0.85</speed>
  <fix>3d</fix>
</trkpt>
<trkpt lat="33.8102967" lon="-118.3938702">
  <ele>-1.746</ele>
  <time>2026-09-02T22:08:26Z</time>
  <course>192.39</course>
  <speed>0.8374365647617735</speed>
  <fix>3d</fix>
</trkpt>
<trkpt lat="33.8102984" lon="-118.3938698">
  <ele>-1.47</ele>
  <time>2026-09-02T22:08:26Z</time>
  <course>191.23</course>
  <speed>0.85</speed>
  <fix>3d</fix>
</trkpt>
<trkpt lat="33.8102959" lon="-118.3938704">
  <ele>-1.817</ele>
  <time>2026-09-02T22:08:26Z</time>
  <course>192.34</course>
  <speed>0.8374365647617735</speed>
  <fix>3d</fix>
</trkpt>
<trkpt lat="33.8102969" lon="-118.3938702">
  <ele>-1.6</ele>
  <time>2026-09-02T22:08:26Z</time>
  <course>191.49</course>
  <speed>0.85</speed>
  <fix>3d</fix>
</trkpt>
<trkpt lat="33.8102952" lon="-118.3938706">
  <ele>-1.888</ele>
  <time>2026-09-02T22:08:26Z</time>
  <course>192.26</course>
  <speed>0.8374365647617735</speed>
  <fix>3d</fix>
</trkpt>
<trkpt lat="33.8102969" lon="-118.3938702">
  <ele>-1.6</ele>
  <time>2026-09-02T22:08:26Z</time>
  <course>191.49</course>
  <speed>0.85</speed>
  <fix>3d</fix>
</trkpt>
<trkpt lat="33.8102944" lon="-118.3938708">
  <ele>-1.959</ele>
  <time>2026-09-02T22:08:26Z</time>
  <course>192.16</course>
  <speed>0.8374365647617735</speed>
  <fix>3d</fix>
</trkpt>
<trkpt lat="33.8102954" lon="-118.3938705">
  <ele>-1.75</ele>
  <time>2026-09-02T22:08:26Z</time>
  <course>191.6</course>
  <speed>0.85</speed>
  <fix>3d</fix>
</trkpt>
<trkpt lat="33.8102937" lon="-118.3938709">
  <ele>-2.031</ele>
  <time>2026-09-02T22:08:26Z</time>
  <course>192.05</course>
  <speed>0.8354639429682169</speed>
  <fix>3d</fix>
</trkpt>
<trkpt lat="33.8102954" lon="-118.3938705">
  <ele>-1.75</ele>
  <time>2026-09-02T22:08:26Z</time>
  <course>191.6</course>
  <speed>0.85</speed>
  <fix>3d</fix>
</trkpt>
<trkpt lat="33.8102929" lon="-118.3938711">
  <ele>-2.102</ele>
  <time>2026-09-02T22:08:26Z</time>
  <course>191.93</course>
  <speed>0.8354639429682169</speed>
  <fix>3d</fix>
</trkpt>
<trkpt lat="33.8102939" lon="-118.3938709">
  <ele>-1.89</ele>
  <time>2026-09-02T22:08:26Z</time>
  <course>191.62</course>
  <speed>0.85</speed>
  <fix>3d</fix>
</trkpt>
<trkpt lat="33.8102922" lon="-118.3938713">
  <ele>-2.172</ele>
  <time>2026-09-02T22:08:26Z</time>
  <course>191.8</course>
  <speed>0.8354639429682169</speed>
  <fix>3d</fix>
</trkpt>
<trkpt lat="33.8102939" lon="-118.3938709">
  <ele>-1.89</ele>
  <time>2026-09-02T22:08:26Z</time>
  <course>191.62</course>
  <speed>0.85</speed>
  <fix>3d</fix>
</trkpt>
<trkpt lat="33.8102914" lon="-118.3938715">
  <ele>-2.242</ele>
  <time>2026-09-02T22:08:26Z</time>
  <course>191.67</course>
  <speed>0.8452810183601664</speed>
  <fix>3d</fix>
</trkpt>
<trkpt lat="33.8102924" lon="-118.3938713">
  <ele>-2.02</ele>
  <time>2026-09-02T22:08:26Z</time>
  <course>191.58</course>
  <speed>0.84</speed>
  <fix>3d</fix>
</trkpt>
<trkpt lat="33.8102906" lon="-118.3938716">
  <ele>-2.312</ele>
  <time>2026-09-02T22:08:26Z</time>
  <course>191.52</course>
  <speed>0.8452810183601664</speed>
  <fix>3d</fix>
</trkpt>
<trkpt lat="33.8102924" lon="-118.3938713">
  <ele>-2.02</ele>
  <time>2026-09-02T22:08:26Z</time>
  <course>191.58</course>
  <speed>0.84</speed>
  <fix>3d</fix>
</trkpt>
<trkpt lat="33.8102899" lon="-118.3938718">
  <ele>-2.383</ele>
  <time>2026-09-02T22:08:26Z</time>
  <course>191.37</course>
  <speed>0.8452810183601664</speed>
  <fix>3d</fix>
</trkpt>
<trkpt lat="33.8102909" lon="-118.3938716">
  <ele>-2.15</ele>
  <time>2026-09-02T22:08:26Z</time>
  <course>191.44</course>
  <speed>0.84</speed>
  <fix>3d</fix>
</trkpt>
<trkpt lat="33.8102891" lon="-118.393872">
  <ele>-2.454</ele>
  <time>2026-09-02T22:08:26Z</time>
  <course>191.22</course>
  <speed>0.8452810183601664</speed>
  <fix>3d</fix>
</trkpt>
<trkpt lat="33.8102909" lon="-118.3938716">
  <ele>-2.15</ele>
  <time>2026-09-02T22:08:26Z</time>
  <course>191.44</course>
  <speed>0.84</speed>
  <fix>3d</fix>
</trkpt>
<trkpt lat="33.8102884" lon="-118.3938722">
  <ele>-2.524</ele>
  <time>2026-09-02T22:08:26Z</time>
  <course>191.08</course>
  <speed>0.8434453153583817</speed>
  <fix>3d</fix>
</trkpt>
<trkpt lat="33.8102894" lon="-118.3938719">
  <ele>-2.3</ele>
  <time>2026-09-02T22:08:26Z</time>
  <course>191.28</course>
  <speed>0.84</speed>
  <fix>3d</fix>
</trkpt>
<trkpt lat="33.8102876" lon="-118.3938723">
  <ele>-2.593</ele>
  <time>2026-09-02T22:08:26Z</time>
  <course>190.96</course>
  <speed>0.8434453153583817</speed>
  <fix>3d</fix>
</trkpt>
<trkpt lat="33.8102894" lon="-118.3938719">
  <ele>-2.3</ele>
  <time>2026-09-02T22:08:26Z</time>
  <course>191.28</course>
  <speed>0.84</speed>
  <fix>3d</fix>
</trkpt>
<trkpt lat="33.8102869" lon="-118.3938725">
  <ele>-2.662</ele>
  <time>2026-09-02T22:08:26Z</time>
  <course>190.86</course>
  <speed>0.8434453153583817</speed>
  <fix>3d</fix>
</trkpt>
<trkpt lat="33.8102879" lon="-118.3938723">
  <ele>-2.44</ele>
  <time>2026-09-02T22:08:26Z</time>
  <course>191.19</course>
  <speed>0.84</speed>
  <fix>3d</fix>
</trkpt>
<trkpt lat="33.8102861" lon="-118.3938727">
  <ele>-2.732</ele>
  <time>2026-09-02T22:08:26Z</time>
  <course>190.77</course>
  <speed>0.8434453153583817</speed>
  <fix>3d</fix>
</trkpt>
<trkpt lat="33.8102879" lon="-118.3938723">
  <ele>-2.44</ele>
  <time>2026-09-02T22:08:26Z</time>
  <course>191.19</course>
  <speed>0.84</speed>
  <fix>3d</fix>
</trkpt>
<trkpt lat="33.8102854" lon="-118.3938728">
  <ele>-2.802</ele>
  <time>2026-09-02T22:08:26Z</time>
  <course>190.68</course>
  <speed>0.8532877591996736</speed>
  <fix>3d</fix>
</trkpt>
<trkpt lat="33.8102864" lon="-118.3938727">
  <ele>-2.57</ele>
  <time>2026-09-02T22:08:26Z</time>
  <course>191.12</course>
  <speed>0.84</speed>
  <fix>3d</fix>
</trkpt>
<trkpt lat="33.8102846" lon="-118.393873">
  <ele>-2.872</ele>
  <time>2026-09-02T22:08:26Z</time>
  <course>190.6</course>
  <speed>0.8532877591996736</speed>
  <fix>3d</fix>
</trkpt>
<trkpt lat="33.8102864" lon="-118.3938727">
  <ele>-2.57</ele>
  <time>2026-09-02T22:08:26Z</time>
  <course>191.12</course>
  <speed>0.84</speed>
  <fix>3d</fix>
</trkpt>
<trkpt lat="33.8102839" lon="-118.3938732">
  <ele>-2.943</ele>
  <time>2026-09-02T22:08:26Z</time>
  <course>190.5</course>
  <speed>0.8532877591996736</speed>
  <fix>3d</fix>
</trkpt>
<trkpt lat="33.8102849" lon="-118.3938731">
  <ele>-2.71</ele>
  <time>2026-09-02T22:08:26Z</time>
  <course>190.97</course>
  <speed>0.85</speed>
  <fix>3d</fix>
</trkpt>
<trkpt lat="33.8102831" lon="-118.3938734">
  <ele>-3.014</ele>
  <time>2026-09-02T22:08:26Z</time>
  <course>190.38</course>
  <speed>0.8532877591996736</speed>
  <fix>3d</fix>
</trkpt>
<trkpt lat="33.8102849" lon="-118.3938731">
  <ele>-2.71</ele>
  <time>2026-09-02T22:08:26Z</time>
  <course>190.97</course>
  <speed>0.85</speed>
  <fix>3d</fix>
</trkpt>
<trkpt lat="33.8102823" lon="-118.3938735">
  <ele>-3.084</ele>
  <time>2026-09-02T22:08:26Z</time>
  <course>190.26</course>
  <speed>0.8532877591996736</speed>
  <fix>3d</fix>
</trkpt>
<trkpt lat="33.8102834" lon="-118.3938734">
  <ele>-2.85</ele>
  <time>2026-09-02T22:08:26Z</time>
  <course>190.74</course>
  <speed>0.85</speed>
  <fix>3d</fix>
</trkpt>
<trkpt lat="33.8102816" lon="-118.3938737">
  <ele>-3.154</ele>
  <time>2026-09-02T22:08:26Z</time>
  <course>190.14</course>
  <speed>0.8532877591996736</speed>
  <fix>3d</fix>
</trkpt>
<trkpt lat="33.8102834" lon="-118.3938734">
  <ele>-2.85</ele>
  <time>2026-09-02T22:08:26Z</time>
  <course>190.74</course>
  <speed>0.85</speed>
  <fix>3d</fix>
</trkpt>
<trkpt lat="33.8102808" lon="-118.3938739">
  <ele>-3.223</ele>
  <time>2026-09-02T22:08:26Z</time>
  <course>190.04</course>
  <speed>0.8515867542417507</speed>
  <fix>3d</fix>
</trkpt>
<trkpt lat="33.8102819" lon="-118.3938737">
  <ele>-2.99</ele>
  <time>2026-09-02T22:08:26Z</time>
  <course>190.49</course>
  <speed>0.85</speed>
  <fix>3d</fix>
</trkpt>
<trkpt lat="33.8102801" lon="-118.393874">
  <ele>-3.292</ele>
  <time>2026-09-02T22:08:26Z</time>
  <course>189.95</course>
  <speed>0.8515867542417507</speed>
  <fix>3d</fix>
</trkpt>
<trkpt lat="33.8102819" lon="-118.3938737">
  <ele>-2.99</ele>
  <time>2026-09-02T22:08:26Z</time>
  <course>190.49</course>
  <speed>0.85</speed>
  <fix>3d</fix>
</trkpt>
<trkpt lat="33.8102793" lon="-118.3938742">
  <ele>-3.362</ele>
  <time>2026-09-02T22:08:26Z</time>
  <course>189.89</course>
  <speed>0.8515867542417507</speed>
  <fix>3d</fix>
</trkpt>
<trkpt lat="33.8102804" lon="-118.3938741">
  <ele>-3.12</ele>
  <time>2026-09-02T22:08:26Z</time>
  <course>190.32</course>
  <speed>0.85</speed>
  <fix>3d</fix>
</trkpt>
<trkpt lat="33.8102786" lon="-118.3938744">
  <ele>-3.432</ele>
  <time>2026-09-02T22:08:26Z</time>
  <course>189.83</course>
  <speed>0.8515867542417507</speed>
  <fix>3d</fix>
</trkpt>
<trkpt lat="33.8102804" lon="-118.3938741">
  <ele>-3.12</ele>
  <time>2026-09-02T22:08:26Z</time>
  <course>190.32</course>
  <speed>0.85</speed>
  <fix>3d</fix>
</trkpt>
<trkpt lat="33.8102778" lon="-118.3938745">
  <ele>-3.503</ele>
  <time>2026-09-02T22:08:26Z</time>
  <course>189.78</course>
  <speed>0.8515867542417507</speed>
  <fix>3d</fix>
</trkpt>
<trkpt lat="33.8102789" lon="-118.3938744">
  <ele>-3.26</ele>
  <time>2026-09-02T22:08:26Z</time>
  <course>190.2</course>
  <speed>0.85</speed>
  <fix>3d</fix>
</trkpt>
<trkpt lat="33.810277" lon="-118.3938747">
  <ele>-3.575</ele>
  <time>2026-09-02T22:08:26Z</time>
  <course>189.73</course>
  <speed>0.8515867542417507</speed>
  <fix>3d</fix>
</trkpt>
<trkpt lat="33.8102789" lon="-118.3938744">
  <ele>-3.26</ele>
  <time>2026-09-02T22:08:26Z</time>
  <course>190.2</course>
  <speed>0.85</speed>
  <fix>3d</fix>
</trkpt>
<trkpt lat="33.8102763" lon="-118.3938749">
  <ele>-3.646</ele>
  <time>2026-09-02T22:08:26Z</time>
  <course>189.69</course>
  <speed>0.8614522621712709</speed>
  <fix>3d</fix>
</trkpt>
<trkpt lat="33.8102773" lon="-118.3938747">
  <ele>-3.4</ele>
  <time>2026-09-02T22:08:26Z</time>
  <course>190.07</course>
  <speed>0.86</speed>
  <fix>3d</fix>
</trkpt>
<trkpt lat="33.8102755" lon="-118.393875">
  <ele>-3.719</ele>
  <time>2026-09-02T22:08:26Z</time>
  <course>189.66</course>
  <speed>0.8614522621712709</speed>
  <fix>3d</fix>
</trkpt>
<trkpt lat="33.8102773" lon="-118.3938747">
  <ele>-3.4</ele>
  <time>2026-09-02T22:08:26Z</time>
  <course>190.07</course>
  <speed>0.86</speed>
  <fix>3d</fix>
</trkpt>
<trkpt lat="33.8102748" lon="-118.3938752">
  <ele>-3.791</ele>
  <time>2026-09-02T22:08:26Z</time>
  <course>189.65</course>
  <speed>0.8614522621712709</speed>
  <fix>3d</fix>
</trkpt>
<trkpt lat="33.8102758" lon="-118.393875">
  <ele>-3.54</ele>
  <time>2026-09-02T22:08:26Z</time>
  <course>189.97</course>
  <speed>0.86</speed>
  <fix>3d</fix>
</trkpt>
<trkpt lat="33.810274" lon="-118.3938754">
  <ele>-3.863</ele>
  <time>2026-09-02T22:08:26Z</time>
  <course>189.65</course>
  <speed>0.8614522621712709</speed>
  <fix>3d</fix>
</trkpt>
<trkpt lat="33.8102758" lon="-118.393875">
  <ele>-3.54</ele>
  <time>2026-09-02T22:08:26Z</time>
  <course>189.97</course>
  <speed>0.86</speed>
  <fix>3d</fix>
</trkpt>
<trkpt lat="33.8102732" lon="-118.3938755">
  <ele>-3.936</ele>
  <time>2026-09-02T22:08:26Z</time>
  <course>189.67</course>
  <speed>0.8631338250816034</speed>
  <fix>3d</fix>
</trkpt>
<trkpt lat="33.8102743" lon="-118.3938754">
  <ele>-3.67</ele>
  <time>2026-09-02T22:08:26Z</time>
  <course>189.95</course>
  <speed>0.86</speed>
  <fix>3d</fix>
</trkpt>
<trkpt lat="33.8102725" lon="-118.3938757">
  <ele>-4.009</ele>
  <time>2026-09-02T22:08:26Z</time>
  <course>189.7</course>
  <speed>0.8631338250816034</speed>
  <fix>3d</fix>
</trkpt>
<trkpt lat="33.8102743" lon="-118.3938754">
  <ele>-3.67</ele>
  <time>2026-09-02T22:08:26Z</time>
  <course>189.95</course>
  <speed>0.86</speed>
  <fix>3d</fix>
</trkpt>
<trkpt lat="33.8102717" lon="-118.3938759">
  <ele>-4.08</ele>
  <time>2026-09-02T22:08:26Z</time>
  <course>189.71</course>
  <speed>0.8631338250816034</speed>
  <fix>3d</fix>
</trkpt>
<trkpt lat="33.8102727" lon="-118.3938757">
  <ele>-3.82</ele>
  <time>2026-09-02T22:08:26Z</time>
  <course>189.93</course>
  <speed>0.86</speed>
  <fix>3d</fix>
</trkpt>
<trkpt lat="33.8102709" lon="-118.393876">
  <ele>-4.151</ele>
  <time>2026-09-02T22:08:26Z</time>
  <course>189.71</course>
  <speed>0.8631338250816034</speed>
  <fix>3d</fix>
</trkpt>
<trkpt lat="33.8102727" lon="-118.3938757">
  <ele>-3.82</ele>
  <time>2026-09-02T22:08:26Z</time>
  <course>189.93</course>
  <speed>0.86</speed>
  <fix>3d</fix>
</trkpt>
<trkpt lat="33.8102702" lon="-118.3938762">
  <ele>-4.222</ele>
  <time>2026-09-02T22:08:26Z</time>
  <course>189.72</course>
  <speed>0.8631338250816034</speed>
  <fix>3d</fix>
</trkpt>
<trkpt lat="33.8102712" lon="-118.393876">
  <ele>-3.95</ele>
  <time>2026-09-02T22:08:26Z</time>
  <course>189.85</course>
  <speed>0.86</speed>
  <fix>3d</fix>
</trkpt>
<trkpt lat="33.8102694" lon="-118.3938763">
  <ele>-4.293</ele>
  <time>2026-09-02T22:08:26Z</time>
  <course>189.73</course>
  <speed>0.8631338250816034</speed>
  <fix>3d</fix>
</trkpt>
<trkpt lat="33.8102712" lon="-118.393876">
  <ele>-3.95</ele>
  <time>2026-09-02T22:08:26Z</time>
  <course>189.85</course>
  <speed>0.86</speed>
  <fix>3d</fix>
</trkpt>
<trkpt lat="33.8102686" lon="-118.3938765">
  <ele>-4.363</ele>
  <time>2026-09-02T22:08:26Z</time>
  <course>189.75</course>
  <speed>0.8631338250816034</speed>
  <fix>3d</fix>
</trkpt>
<trkpt lat="33.8102697" lon="-118.3938763">
  <ele>-4.09</ele>
  <time>2026-09-02T22:08:26Z</time>
  <course>189.79</course>
  <speed>0.87</speed>
  <fix>3d</fix>
</trkpt>
<trkpt lat="33.8102679" lon="-118.3938767">
  <ele>-4.431</ele>
  <time>2026-09-02T22:08:26Z</time>
  <course>189.78</course>
  <speed>0.8631338250816034</speed>
  <fix>3d</fix>
</trkpt>
<trkpt lat="33.8102697" lon="-118.3938763">
  <ele>-4.09</ele>
  <time>2026-09-02T22:08:26Z</time>
  <course>189.79</course>
  <speed>0.87</speed>
  <fix>3d</fix>
</trkpt>
<trkpt lat="33.8102671" lon="-118.3938768">
  <ele>-4.5</ele>
  <time>2026-09-02T22:08:26Z</time>
  <course>189.82</course>
  <speed>0.8631338250816034</speed>
  <fix>3d</fix>
</trkpt>
<trkpt lat="33.8102681" lon="-118.3938767">
  <ele>-4.22</ele>
  <time>2026-09-02T22:08:26Z</time>
  <course>189.78</course>
  <speed>0.87</speed>
  <fix>3d</fix>
</trkpt>
<trkpt lat="33.8102663" lon="-118.393877">
  <ele>-4.57</ele>
  <time>2026-09-02T22:08:26Z</time>
  <course>189.85</course>
  <speed>0.8631338250816034</speed>
  <fix>3d</fix>
</trkpt>
<trkpt lat="33.8102681" lon="-118.3938767">
  <ele>-4.22</ele>
  <time>2026-09-02T22:08:26Z</time>
  <course>189.78</course>
  <speed>0.87</speed>
  <fix>3d</fix>
</trkpt>
<trkpt lat="33.8102656" lon="-118.3938772">
  <ele>-4.64</ele>
  <time>2026-09-02T22:08:26Z</time>
  <course>189.88</course>
  <speed>0.8631338250816034</speed>
  <fix>3d</fix>
</trkpt>
<trkpt lat="33.8102666" lon="-118.393877">
  <ele>-4.35</ele>
  <time>2026-09-02T22:08:26Z</time>
  <course>189.74</course>
  <speed>0.88</speed>
  <fix>3d</fix>
</trkpt>
<trkpt lat="33.8102648" lon="-118.3938773">
  <ele>-4.711</ele>
  <time>2026-09-02T22:08:26Z</time>
  <course>189.89</course>
  <speed>0.8631338250816034</speed>
  <fix>3d</fix>
</trkpt>
<trkpt lat="33.8102666" lon="-118.393877">
  <ele>-4.35</ele>
  <time>2026-09-02T22:08:26Z</time>
  <course>189.74</course>
  <speed>0.88</speed>
  <fix>3d</fix>
</trkpt>
<trkpt lat="33.810264" lon="-118.3938775">
  <ele>-4.782</ele>
  <time>2026-09-02T22:08:26Z</time>
  <course>189.91</course>
  <speed>0.8631338250816034</speed>
  <fix>3d</fix>
</trkpt>
<trkpt lat="33.810265" lon="-118.3938773">
  <ele>-4.49</ele>
  <time>2026-09-02T22:08:26Z</time>
  <course>189.66</course>
  <speed>0.88</speed>
  <fix>3d</fix>
</trkpt>
<trkpt lat="33.8102633" lon="-118.3938777">
  <ele>-4.853</ele>
  <time>2026-09-02T22:08:26Z</time>
  <course>189.92</course>
  <speed>0.8631338250816034</speed>
  <fix>3d</fix>
</trkpt>
<trkpt lat="33.810265" lon="-118.3938773">
  <ele>-4.49</ele>
  <time>2026-09-02T22:08:26Z</time>
  <course>189.66</course>
  <speed>0.88</speed>
  <fix>3d</fix>
</trkpt>
<trkpt lat="33.8102625" lon="-118.3938778">
  <ele>-4.924</ele>
  <time>2026-09-02T22:08:26Z</time>
  <course>189.95</course>
  <speed>0.8631338250816034</speed>
  <fix>3d</fix>
</trkpt>
<trkpt lat="33.8102635" lon="-118.3938776">
  <ele>-4.63</ele>
  <time>2026-09-02T22:08:26Z</time>
  <course>189.62</course>
  <speed>0.88</speed>
  <fix>3d</fix>
</trkpt>
<trkpt lat="33.8102617" lon="-118.393878">
  <ele>-4.995</ele>
  <time>2026-09-02T22:08:26Z</time>
  <course>189.99</course>
  <speed>0.8631338250816034</speed>
  <fix>3d</fix>
</trkpt>
<trkpt lat="33.8102635" lon="-118.3938776">
  <ele>-4.63</ele>
  <time>2026-09-02T22:08:26Z</time>
  <course>189.62</course>
  <speed>0.88</speed>
  <fix>3d</fix>
</trkpt>
<trkpt lat="33.8102609" lon="-118.3938781">
  <ele>-5.067</ele>
  <time>2026-09-02T22:08:26Z</time>
  <course>190.02</course>
  <speed>0.8631338250816034</speed>
  <fix>3d</fix>
</trkpt>
<trkpt lat="33.8102619" lon="-118.3938779">
  <ele>-4.77</ele>
  <time>2026-09-02T22:08:26Z</time>
  <course>189.61</course>
  <speed>0.88</speed>
  <fix>3d</fix>
</trkpt>
<trkpt lat="33.8102602" lon="-118.3938783">
  <ele>-5.14</ele>
  <time>2026-09-02T22:08:26Z</time>
  <course>190.07</course>
  <speed>0.8631338250816034</speed>
  <fix>3d</fix>
</trkpt>
<trkpt lat="33.8102619" lon="-118.3938779">
  <ele>-4.77</ele>
  <time>2026-09-02T22:08:26Z</time>
  <course>189.61</course>
  <speed>0.88</speed>
  <fix>3d</fix>
</trkpt>
<trkpt lat="33.8102594" lon="-118.3938785">
  <ele>-5.213</ele>
  <time>2026-09-02T22:08:26Z</time>
  <course>190.13</course>
  <speed>0.8631338250816034</speed>
  <fix>3d</fix>
</trkpt>
<trkpt lat="33.8102603" lon="-118.3938783">
  <ele>-4.91</ele>
  <time>2026-09-02T22:08:26Z</time>
  <course>189.61</course>
  <speed>0.88</speed>
  <fix>3d</fix>
</trkpt>
<trkpt lat="33.8102586" lon="-118.3938786">
  <ele>-5.285</ele>
  <time>2026-09-02T22:08:26Z</time>
  <course>190.18</course>
  <speed>0.8631338250816034</speed>
  <fix>3d</fix>
</trkpt>
<trkpt lat="33.8102603" lon="-118.3938783">
  <ele>-4.91</ele>
  <time>2026-09-02T22:08:26Z</time>
  <course>189.61</course>
  <speed>0.88</speed>
  <fix>3d</fix>
</trkpt>
<trkpt lat="33.8102578" lon="-118.3938788">
  <ele>-5.359</ele>
  <time>2026-09-02T22:08:26Z</time>
  <course>190.23</course>
  <speed>0.8631338250816034</speed>
  <fix>3d</fix>
</trkpt>
<trkpt lat="33.8102588" lon="-118.3938786">
  <ele>-5.05</ele>
  <time>2026-09-02T22:08:26Z</time>
  <course>189.6</course>
  <speed>0.88</speed>
  <fix>3d</fix>
</trkpt>
<trkpt lat="33.8102571" lon="-118.393879">
  <ele>-5.431</ele>
  <time>2026-09-02T22:08:26Z</time>
  <course>190.27</course>
  <speed>0.8631338250816034</speed>
  <fix>3d</fix>
</trkpt>
<trkpt lat="33.8102588" lon="-118.3938786">
  <ele>-5.05</ele>
  <time>2026-09-02T22:08:26Z</time>
  <course>189.6</course>
  <speed>0.88</speed>
  <fix>3d</fix>
</trkpt>
<trkpt lat="33.8102563" lon="-118.3938791">
  <ele>-5.502</ele>
  <time>2026-09-02T22:08:26Z</time>
  <course>190.3</course>
  <speed>0.8631338250816034</speed>
  <fix>3d</fix>
</trkpt>
<trkpt lat="33.8102571" lon="-118.3938789">
  <ele>-5.2</ele>
  <time>2026-09-02T22:08:26Z</time>
  <course>189.56</course>
  <speed>0.88</speed>
  <fix>3d</fix>
</trkpt>
<trkpt lat="33.8102555" lon="-118.3938793">
  <ele>-5.574</ele>
  <time>2026-09-02T22:08:26Z</time>
  <course>190.34</course>
  <speed>0.8631338250816034</speed>
  <fix>3d</fix>
</trkpt>
<trkpt lat="33.8102571" lon="-118.3938789">
  <ele>-5.2</ele>
  <time>2026-09-02T22:08:26Z</time>
  <course>189.56</course>
  <speed>0.88</speed>
  <fix>3d</fix>
</trkpt>
<trkpt lat="33.8102547" lon="-118.3938795">
  <ele>-5.645</ele>
  <time>2026-09-02T22:08:26Z</time>
  <course>190.38</course>
  <speed>0.8631338250816034</speed>
  <fix>3d</fix>
</trkpt>
<trkpt lat="33.8102556" lon="-118.3938792">
  <ele>-5.34</ele>
  <time>2026-09-02T22:08:26Z</time>
  <course>189.54</course>
  <speed>0.88</speed>
  <fix>3d</fix>
</trkpt>
<trkpt lat="33.8102539" lon="-118.3938796">
  <ele>-5.718</ele>
  <time>2026-09-02T22:08:26Z</time>
  <course>190.44</course>
  <speed>0.8649277426467485</speed>
  <fix>3d</fix>
</trkpt>
<trkpt lat="33.8102556" lon="-118.3938792">
  <ele>-5.34</ele>
  <time>2026-09-02T22:08:26Z</time>
  <course>189.54</course>
  <speed>0.88</speed>
  <fix>3d</fix>
</trkpt>
<trkpt lat="33.8102531" lon="-118.3938798">
  <ele>-5.79</ele>
  <time>2026-09-02T22:08:26Z</time>
  <course>190.5</course>
  <speed>0.8649277426467485</speed>
  <fix>3d</fix>
</trkpt>
<trkpt lat="33.810254" lon="-118.3938795">
  <ele>-5.48</ele>
  <time>2026-09-02T22:08:26Z</time>
  <course>189.55</course>
  <speed>0.88</speed>
  <fix>3d</fix>
</trkpt>
<trkpt lat="33.8102524" lon="-118.3938799">
  <ele>-5.864</ele>
  <time>2026-09-02T22:08:26Z</time>
  <course>190.56</course>
  <speed>0.8649277426467485</speed>
  <fix>3d</fix>
</trkpt>
<trkpt lat="33.810254" lon="-118.3938795">
  <ele>-5.48</ele>
  <time>2026-09-02T22:08:26Z</time>
  <course>189.55</course>
  <speed>0.88</speed>
  <fix>3d</fix>
</trkpt>
<trkpt lat="33.8102516" lon="-118.3938801">
  <ele>-5.937</ele>
  <time>2026-09-02T22:08:26Z</time>
  <course>190.63</course>
  <speed>0.8649277426467485</speed>
  <fix>3d</fix>
</trkpt>
<trkpt lat="33.8102525" lon="-118.3938798">
  <ele>-5.62</ele>
  <time>2026-09-02T22:08:26Z</time>
  <course>189.59</course>
  <speed>0.88</speed>
  <fix>3d</fix>
</trkpt>
<trkpt lat="33.8102508" lon="-118.3938803">
  <ele>-6.011</ele>
  <time>2026-09-02T22:08:26Z</time>
  <course>190.71</course>
  <speed>0.8649277426467485</speed>
  <fix>3d</fix>
</trkpt>
<trkpt lat="33.8102525" lon="-118.3938798">
  <ele>-5.62</ele>
  <time>2026-09-02T22:08:26Z</time>
  <course>189.59</course>
  <speed>0.88</speed>
  <fix>3d</fix>
</trkpt>
<trkpt lat="33.81025" lon="-118.3938804">
  <ele>-6.084</ele>
  <time>2026-09-02T22:08:26Z</time>
  <course>190.78</course>
  <speed>0.8649277426467485</speed>
  <fix>3d</fix>
</trkpt>
<trkpt lat="33.8102509" lon="-118.3938802">
  <ele>-5.76</ele>
  <time>2026-09-02T22:08:26Z</time>
  <course>189.66</course>
  <speed>0.88</speed>
  <fix>3d</fix>
</trkpt>
<trkpt lat="33.8102492" lon="-118.3938806">
  <ele>-6.157</ele>
  <time>2026-09-02T22:08:26Z</time>
  <course>190.84</course>
  <speed>0.8649277426467485</speed>
  <fix>3d</fix>
</trkpt>
<trkpt lat="33.8102509" lon="-118.3938802">
  <ele>-5.76</ele>
  <time>2026-09-02T22:08:26Z</time>
  <course>189.66</course>
  <speed>0.88</speed>
  <fix>3d</fix>
</trkpt>
<trkpt lat="33.8102484" lon="-118.3938808">
  <ele>-6.231</ele>
  <time>2026-09-02T22:08:26Z</time>
  <course>190.89</course>
  <speed>0.8649277426467485</speed>
  <fix>3d</fix>
</trkpt>
<trkpt lat="33.8102493" lon="-118.3938805">
  <ele>-5.91</ele>
  <time>2026-09-02T22:08:26Z</time>
  <course>189.68</course>
  <speed>0.89</speed>
  <fix>3d</fix>
</trkpt>
<trkpt lat="33.8102477" lon="-118.3938809">
  <ele>-6.305</ele>
  <time>2026-09-02T22:08:26Z</time>
  <course>190.93</course>
  <speed>0.8649277426467485</speed>
  <fix>3d</fix>
</trkpt>
<trkpt lat="33.8102493" lon="-118.3938805">
  <ele>-5.91</ele>
  <time>2026-09-02T22:08:26Z</time>
  <course>189.68</course>
  <speed>0.89</speed>
  <fix>3d</fix>
</trkpt>
<trkpt lat="33.8102469" lon="-118.3938811">
  <ele>-6.38</ele>
  <time>2026-09-02T22:08:26Z</time>
  <course>190.97</course>
  <speed>0.8649277426467485</speed>
  <fix>3d</fix>
</trkpt>
<trkpt lat="33.8102478" lon="-118.3938808">
  <ele>-6.05</ele>
  <time>2026-09-02T22:08:26Z</time>
  <course>189.65</course>
  <speed>0.89</speed>
  <fix>3d</fix>
</trkpt>
<trkpt lat="33.8102461" lon="-118.3938813">
  <ele>-6.453</ele>
  <time>2026-09-02T22:08:26Z</time>
  <course>191.0</course>
  <speed>0.8649277426467485</speed>
  <fix>3d</fix>
</trkpt>
<trkpt lat="33.8102478" lon="-118.3938808">
  <ele>-6.05</ele>
  <time>2026-09-02T22:08:26Z</time>
  <course>189.65</course>
  <speed>0.89</speed>
  <fix>3d</fix>
</trkpt>
<trkpt lat="33.8102453" lon="-118.3938814">
  <ele>-6.526</ele>
  <time>2026-09-02T22:08:26Z</time>
  <course>191.05</course>
  <speed>0.8747571091451616</speed>
  <fix>3d</fix>
</trkpt>
<trkpt lat="33.8102461" lon="-118.3938811">
  <ele>-6.19</ele>
  <time>2026-09-02T22:08:26Z</time>
  <course>189.64</course>
  <speed>0.89</speed>
  <fix>3d</fix>
</trkpt>
<trkpt lat="33.8102445" lon="-118.3938816">
  <ele>-6.597</ele>
  <time>2026-09-02T22:08:26Z</time>
  <course>191.1</course>
  <speed>0.8649277426467485</speed>
  <fix>3d</fix>
</trkpt>
<trkpt lat="33.8102461" lon="-118.3938811">
  <ele>-6.19</ele>
  <time>2026-09-02T22:08:26Z</time>
  <course>189.64</course>
  <speed>0.89</speed>
  <fix>3d</fix>
</trkpt>
<trkpt lat="33.8102437" lon="-118.3938818">
  <ele>-6.669</ele>
  <time>2026-09-02T22:08:26Z</time>
  <course>191.16</course>
  <speed>0.8649277426467485</speed>
  <fix>3d</fix>
</trkpt>
<trkpt lat="33.8102446" lon="-118.3938815">
  <ele>-6.33</ele>
  <time>2026-09-02T22:08:26Z</time>
  <course>189.67</course>
  <speed>0.9</speed>
  <fix>3d</fix>
</trkpt>
<trkpt lat="33.8102429" lon="-118.3938819">
  <ele>-6.741</ele>
  <time>2026-09-02T22:08:26Z</time>
  <course>191.22</course>
  <speed>0.8649277426467485</speed>
  <fix>3d</fix>
</trkpt>
<trkpt lat="33.8102446" lon="-118.3938815">
  <ele>-6.33</ele>
  <time>2026-09-02T22:08:26Z</time>
  <course>189.67</course>
  <speed>0.9</speed>
  <fix>3d</fix>
</trkpt>
<trkpt lat="33.8102421" lon="-118.3938821">
  <ele>-6.815</ele>
  <time>2026-09-02T22:08:26Z</time>
  <course>191.27</course>
  <speed>0.8649277426467485</speed>
  <fix>3d</fix>
</trkpt>
<trkpt lat="33.810243" lon="-118.3938818">
  <ele>-6.47</ele>
  <time>2026-09-02T22:08:26Z</time>
  <course>189.69</course>
  <speed>0.89</speed>
  <fix>3d</fix>
</trkpt>
<trkpt lat="33.8102413" lon="-118.3938823">
  <ele>-6.888</ele>
  <time>2026-09-02T22:08:26Z</time>
  <course>191.3</course>
  <speed>0.8649277426467485</speed>
  <fix>3d</fix>
</trkpt>
<trkpt lat="33.810243" lon="-118.3938818">
  <ele>-6.47</ele>
  <time>2026-09-02T22:08:26Z</time>
  <course>189.69</course>
  <speed>0.89</speed>
  <fix>3d</fix>
</trkpt>
<trkpt lat="33.8102405" lon="-118.3938824">
  <ele>-6.96</ele>
  <time>2026-09-02T22:08:26Z</time>
  <course>191.33</course>
  <speed>0.8649277426467485</speed>
  <fix>3d</fix>
</trkpt>
<trkpt lat="33.8102413" lon="-118.3938821">
  <ele>-6.61</ele>
  <time>2026-09-02T22:08:26Z</time>
  <course>189.68</course>
  <speed>0.89</speed>
  <fix>3d</fix>
</trkpt>
<trkpt lat="33.8102397" lon="-118.3938826">
  <ele>-7.033</ele>
  <time>2026-09-02T22:08:26Z</time>
  <course>191.36</course>
  <speed>0.8668333173107734</speed>
  <fix>3d</fix>
</trkpt>
<trkpt lat="33.8102413" lon="-118.3938821">
  <ele>-6.61</ele>
  <time>2026-09-02T22:08:26Z</time>
  <course>189.68</course>
  <speed>0.89</speed>
  <fix>3d</fix>
</trkpt>
<trkpt lat="33.810239" lon="-118.3938828">
  <ele>-7.106</ele>
  <time>2026-09-02T22:08:26Z</time>
  <course>191.41</course>
  <speed>0.8668333173107734</speed>
  <fix>3d</fix>
</trkpt>
<trkpt lat="33.8102398" lon="-118.3938825">
  <ele>-6.76</ele>
  <time>2026-09-02T22:08:26Z</time>
  <course>189.71</course>
  <speed>0.89</speed>
  <fix>3d</fix>
</trkpt>
<trkpt lat="33.8102382" lon="-118.3938829">
  <ele>-7.181</ele>
  <time>2026-09-02T22:08:26Z</time>
  <course>191.46</course>
  <speed>0.8668333173107734</speed>
  <fix>3d</fix>
</trkpt>
<trkpt lat="33.8102398" lon="-118.3938825">
  <ele>-6.76</ele>
  <time>2026-09-02T22:08:26Z</time>
  <course>189.71</course>
  <speed>0.89</speed>
  <fix>3d</fix>
</trkpt>
<trkpt lat="33.8102374" lon="-118.3938831">
  <ele>-7.256</ele>
  <time>2026-09-02T22:08:26Z</time>
  <course>191.5</course>
  <speed>0.8668333173107734</speed>
  <fix>3d</fix>
</trkpt>
<trkpt lat="33.8102382" lon="-118.3938828">
  <ele>-6.9</ele>
  <time>2026-09-02T22:08:26Z</time>
  <course>189.73</course>
  <speed>0.89</speed>
  <fix>3d</fix>
</trkpt>
<trkpt lat="33.8102366" lon="-118.3938833">
  <ele>-7.33</ele>
  <time>2026-09-02T22:08:26Z</time>
  <course>191.52</course>
  <speed>0.8668333173107734</speed>
  <fix>3d</fix>
</trkpt>
<trkpt lat="33.8102382" lon="-118.3938828">
  <ele>-6.9</ele>
  <time>2026-09-02T22:08:26Z</time>
  <course>189.73</course>
  <speed>0.89</speed>
  <fix>3d</fix>
</trkpt>
<trkpt lat="33.8102358" lon="-118.3938834">
  <ele>-7.405</ele>
  <time>2026-09-02T22:08:26Z</time>
  <course>191.55</course>
  <speed>0.8668333173107734</speed>
  <fix>3d</fix>
</trkpt>
<trkpt lat="33.8102365" lon="-118.3938831">
  <ele>-7.05</ele>
  <time>2026-09-02T22:08:26Z</time>
  <course>189.72</course>
  <speed>0.89</speed>
  <fix>3d</fix>
</trkpt>
<trkpt lat="33.810235" lon="-118.3938836">
  <ele>-7.48</ele>
  <time>2026-09-02T22:08:26Z</time>
  <course>191.59</course>
  <speed>0.8668333173107734</speed>
  <fix>3d</fix>
</trkpt>
<trkpt lat="33.8102365" lon="-118.3938831">
  <ele>-7.05</ele>
  <time>2026-09-02T22:08:26Z</time>
  <course>189.72</course>
  <speed>0.89</speed>
  <fix>3d</fix>
</trkpt>
<trkpt lat="33.8102342" lon="-118.3938838">
  <ele>-7.555</ele>
  <time>2026-09-02T22:08:26Z</time>
  <course>191.64</course>
  <speed>0.8668333173107734</speed>
  <fix>3d</fix>
</trkpt>
<trkpt lat="33.810235" lon="-118.3938834">
  <ele>-7.2</ele>
  <time>2026-09-02T22:08:26Z</time>
  <course>189.76</course>
  <speed>0.9</speed>
  <fix>3d</fix>
</trkpt>
<trkpt lat="33.8102334" lon="-118.393884">
  <ele>-7.631</ele>
  <time>2026-09-02T22:08:26Z</time>
  <course>191.68</course>
  <speed>0.8668333173107734</speed>
  <fix>3d</fix>
</trkpt>
<trkpt lat="33.810235" lon="-118.3938834">
  <ele>-7.2</ele>
  <time>2026-09-02T22:08:26Z</time>
  <course>189.76</course>
  <speed>0.9</speed>
  <fix>3d</fix>
</trkpt>
<trkpt lat="33.8102326" lon="-118.3938841">
  <ele>-7.706</ele>
  <time>2026-09-02T22:08:26Z</time>
  <course>191.74</course>
  <speed>0.8766413177577246</speed>
  <fix>3d</fix>
</trkpt>
<trkpt lat="33.8102334" lon="-118.3938838">
  <ele>-7.34</ele>
  <time>2026-09-02T22:08:26Z</time>
  <course>189.85</course>
  <speed>0.9</speed>
  <fix>3d</fix>
</trkpt>
<trkpt lat="33.8102318" lon="-118.3938843">
  <ele>-7.78</ele>
  <time>2026-09-02T22:08:26Z</time>
  <course>191.79</course>
  <speed>0.8766413177577246</speed>
  <fix>3d</fix>
</trkpt>
<trkpt lat="33.8102334" lon="-118.3938838">
  <ele>-7.34</ele>
  <time>2026-09-02T22:08:26Z</time>
  <course>189.85</course>
  <speed>0.9</speed>
  <fix>3d</fix>
</trkpt>
<trkpt lat="33.810231" lon="-118.3938845">
  <ele>-7.855</ele>
  <time>2026-09-02T22:08:26Z</time>
  <course>191.83</course>
  <speed>0.8766413177577246</speed>
  <fix>3d</fix>
</trkpt>
<trkpt lat="33.8102317" lon="-118.3938841">
  <ele>-7.49</ele>
  <time>2026-09-02T22:08:27Z</time>
  <course>189.91</course>
  <speed>0.9</speed>
  <fix>3d</fix>
</trkpt>
<trkpt lat="33.8102302" lon="-118.3938846">
  <ele>-7.929</ele>
  <time>2026-09-02T22:08:27Z</time>
  <course>191.87</course>
  <speed>0.8766413177577246</speed>
  <fix>3d</fix>
</trkpt>
<trkpt lat="33.8102317" lon="-118.3938841">
  <ele>-7.49</ele>
  <time>2026-09-02T22:08:27Z</time>
  <course>189.91</course>
  <speed>0.9</speed>
  <fix>3d</fix>
</trkpt>
<trkpt lat="33.8102294" lon="-118.3938848">
  <ele>-8.003</ele>
  <time>2026-09-02T22:08:27Z</time>
  <course>191.91</course>
  <speed>0.8766413177577246</speed>
  <fix>3d</fix>
</trkpt>
<trkpt lat="33.8102302" lon="-118.3938845">
  <ele>-7.63</ele>
  <time>2026-09-02T22:08:27Z</time>
  <course>189.97</course>
  <speed>0.9</speed>
  <fix>3d</fix>
</trkpt>
<trkpt lat="33.8102286" lon="-118.393885">
  <ele>-8.077</ele>
  <time>2026-09-02T22:08:27Z</time>
  <course>191.94</course>
  <speed>0.8766413177577246</speed>
  <fix>3d</fix>
</trkpt>
<trkpt lat="33.8102302" lon="-118.3938845">
  <ele>-7.63</ele>
  <time>2026-09-02T22:08:27Z</time>
  <course>189.97</course>
  <speed>0.9</speed>
  <fix>3d</fix>
</trkpt>
<trkpt lat="33.8102278" lon="-118.3938852">
  <ele>-8.15</ele>
  <time>2026-09-02T22:08:27Z</time>
  <course>191.96</course>
  <speed>0.8766413177577246</speed>
  <fix>3d</fix>
</trkpt>
<trkpt lat="33.8102286" lon="-118.3938848">
  <ele>-7.77</ele>
  <time>2026-09-02T22:08:27Z</time>
  <course>190.0</course>
  <speed>0.9</speed>
  <fix>3d</fix>
</trkpt>
<trkpt lat="33.810227" lon="-118.3938853">
  <ele>-8.225</ele>
  <time>2026-09-02T22:08:27Z</time>
  <course>191.97</course>
  <speed>0.8766413177577246</speed>
  <fix>3d</fix>
</trkpt>
<trkpt lat="33.8102286" lon="-118.3938848">
  <ele>-7.77</ele>
  <time>2026-09-02T22:08:27Z</time>
  <course>190.0</course>
  <speed>0.9</speed>
  <fix>3d</fix>
</trkpt>
<trkpt lat="33.8102262" lon="-118.3938855">
  <ele>-8.3</ele>
  <time>2026-09-02T22:08:27Z</time>
  <course>191.98</course>
  <speed>0.8766413177577246</speed>
  <fix>3d</fix>
</trkpt>
<trkpt lat="33.810227" lon="-118.3938851">
  <ele>-7.92</ele>
  <time>2026-09-02T22:08:27Z</time>
  <course>190.0</course>
  <speed>0.9</speed>
  <fix>3d</fix>
</trkpt>
<trkpt lat="33.8102254" lon="-118.3938857">
  <ele>-8.377</ele>
  <time>2026-09-02T22:08:27Z</time>
  <course>191.99</course>
  <speed>0.8766413177577246</speed>
  <fix>3d</fix>
</trkpt>
<trkpt lat="33.810227" lon="-118.3938851">
  <ele>-7.92</ele>
  <time>2026-09-02T22:08:27Z</time>
  <course>190.0</course>
  <speed>0.9</speed>
  <fix>3d</fix>
</trkpt>
<trkpt lat="33.8102246" lon="-118.3938858">
  <ele>-8.453</ele>
  <time>2026-09-02T22:08:27Z</time>
  <course>192.01</course>
  <speed>0.8766413177577246</speed>
  <fix>3d</fix>
</trkpt>
<trkpt lat="33.8102253" lon="-118.3938855">
  <ele>-8.06</ele>
  <time>2026-09-02T22:08:27Z</time>
  <course>190.03</course>
  <speed>0.91</speed>
  <fix>3d</fix>
</trkpt>
<trkpt lat="33.8102238" lon="-118.393886">
  <ele>-8.528</ele>
  <time>2026-09-02T22:08:27Z</time>
  <course>192.03</course>
  <speed>0.8766413177577246</speed>
  <fix>3d</fix>
</trkpt>
<trkpt lat="33.8102253" lon="-118.3938855">
  <ele>-8.06</ele>
  <time>2026-09-02T22:08:27Z</time>
  <course>190.03</course>
  <speed>0.91</speed>
  <fix>3d</fix>
</trkpt>
<trkpt lat="33.8102229" lon="-118.3938862">
  <ele>-8.602</ele>
  <time>2026-09-02T22:08:27Z</time>
  <course>192.07</course>
  <speed>0.8766413177577246</speed>
  <fix>3d</fix>
</trkpt>
<trkpt lat="33.8102238" lon="-118.3938858">
  <ele>-8.21</ele>
  <time>2026-09-02T22:08:27Z</time>
  <course>190.09</course>
  <speed>0.91</speed>
  <fix>3d</fix>
</trkpt>
<trkpt lat="33.8102221" lon="-118.3938864">
  <ele>-8.674</ele>
  <time>2026-09-02T22:08:27Z</time>
  <course>192.09</course>
  <speed>0.8766413177577246</speed>
  <fix>3d</fix>
</trkpt>
<trkpt lat="33.8102238" lon="-118.3938858">
  <ele>-8.21</ele>
  <time>2026-09-02T22:08:27Z</time>
  <course>190.09</course>
  <speed>0.91</speed>
  <fix>3d</fix>
</trkpt>
<trkpt lat="33.8102213" lon="-118.3938865">
  <ele>-8.746</ele>
  <time>2026-09-02T22:08:27Z</time>
  <course>192.11</course>
  <speed>0.8766413177577246</speed>
  <fix>3d</fix>
</trkpt>
<trkpt lat="33.8102221" lon="-118.3938862">
  <ele>-8.36</ele>
  <time>2026-09-02T22:08:27Z</time>
  <course>190.14</course>
  <speed>0.91</speed>
  <fix>3d</fix>
</trkpt>
<trkpt lat="33.8102205" lon="-118.3938867">
  <ele>-8.819</ele>
  <time>2026-09-02T22:08:27Z</time>
  <course>192.12</course>
  <speed>0.8766413177577246</speed>
  <fix>3d</fix>
</trkpt>
<trkpt lat="33.8102221" lon="-118.3938862">
  <ele>-8.36</ele>
  <time>2026-09-02T22:08:27Z</time>
  <course>190.14</course>
  <speed>0.91</speed>
  <fix>3d</fix>
</trkpt>
<trkpt lat="33.8102197" lon="-118.3938869">
  <ele>-8.893</ele>
  <time>2026-09-02T22:08:27Z</time>
  <course>192.12</course>
  <speed>0.8766413177577246</speed>
  <fix>3d</fix>
</trkpt>
<trkpt lat="33.8102205" lon="-118.3938865">
  <ele>-8.5</ele>
  <time>2026-09-02T22:08:27Z</time>
  <course>190.19</course>
  <speed>0.91</speed>
  <fix>3d</fix>
</trkpt>
<trkpt lat="33.8102189" lon="-118.393887">
  <ele>-8.969</ele>
  <time>2026-09-02T22:08:27Z</time>
  <course>192.13</course>
  <speed>0.8668333173107734</speed>
  <fix>3d</fix>
</trkpt>
<trkpt lat="33.8102205" lon="-118.3938865">
  <ele>-8.5</ele>
  <time>2026-09-02T22:08:27Z</time>
  <course>190.19</course>
  <speed>0.91</speed>
  <fix>3d</fix>
</trkpt>
<trkpt lat="33.8102181" lon="-118.3938872">
  <ele>-9.045</ele>
  <time>2026-09-02T22:08:27Z</time>
  <course>192.14</course>
  <speed>0.8766413177577246</speed>
  <fix>3d</fix>
</trkpt>
<trkpt lat="33.8102188" lon="-118.3938869">
  <ele>-8.65</ele>
  <time>2026-09-02T22:08:27Z</time>
  <course>190.23</course>
  <speed>0.9</speed>
  <fix>3d</fix>
</trkpt>
<trkpt lat="33.8102173" lon="-118.3938874">
  <ele>-9.121</ele>
  <time>2026-09-02T22:08:27Z</time>
  <course>192.15</course>
  <speed>0.8766413177577246</speed>
  <fix>3d</fix>
</trkpt>
<trkpt lat="33.8102188" lon="-118.3938869">
  <ele>-8.65</ele>
  <time>2026-09-02T22:08:27Z</time>
  <course>190.23</course>
  <speed>0.9</speed>
  <fix>3d</fix>
</trkpt>
<trkpt lat="33.8102165" lon="-118.3938876">
  <ele>-9.197</ele>
  <time>2026-09-02T22:08:27Z</time>
  <course>192.16</course>
  <speed>0.8766413177577246</speed>
  <fix>3d</fix>
</trkpt>
<trkpt lat="33.8102173" lon="-118.3938872">
  <ele>-8.8</ele>
  <time>2026-09-02T22:08:27Z</time>
  <course>190.26</course>
  <speed>0.9</speed>
  <fix>3d</fix>
</trkpt>
<trkpt lat="33.8102157" lon="-118.3938877">
  <ele>-9.273</ele>
  <time>2026-09-02T22:08:27Z</time>
  <course>192.16</course>
  <speed>0.8766413177577246</speed>
  <fix>3d</fix>
</trkpt>
<trkpt lat="33.8102173" lon="-118.3938872">
  <ele>-8.8</ele>
  <time>2026-09-02T22:08:27Z</time>
  <course>190.26</course>
  <speed>0.9</speed>
  <fix>3d</fix>
</trkpt>
<trkpt lat="33.8102149" lon="-118.3938879">
  <ele>-9.35</ele>
  <time>2026-09-02T22:08:27Z</time>
  <course>192.16</course>
  <speed>0.8766413177577246</speed>
  <fix>3d</fix>
</trkpt>
<trkpt lat="33.8102157" lon="-118.3938876">
  <ele>-8.95</ele>
  <time>2026-09-02T22:08:27Z</time>
  <course>190.3</course>
  <speed>0.9</speed>
  <fix>3d</fix>
</trkpt>
<trkpt lat="33.8102141" lon="-118.3938881">
  <ele>-9.426</ele>
  <time>2026-09-02T22:08:27Z</time>
  <course>192.15</course>
  <speed>0.8786353054595518</speed>
  <fix>3d</fix>
</trkpt>
<trkpt lat="33.8102157" lon="-118.3938876">
  <ele>-8.95</ele>
  <time>2026-09-02T22:08:27Z</time>
  <course>190.3</course>
  <speed>0.9</speed>
  <fix>3d</fix>
</trkpt>
<trkpt lat="33.8102133" lon="-118.3938883">
  <ele>-9.501</ele>
  <time>2026-09-02T22:08:27Z</time>
  <course>192.14</course>
  <speed>0.8766413177577246</speed>
  <fix>3d</fix>
</trkpt>
<trkpt lat="33.810214" lon="-118.3938879">
  <ele>-9.11</ele>
  <time>2026-09-02T22:08:27Z</time>
  <course>190.32</course>
  <speed>0.91</speed>
  <fix>3d</fix>
</trkpt>
<trkpt lat="33.8102125" lon="-118.3938884">
  <ele>-9.578</ele>
  <time>2026-09-02T22:08:27Z</time>
  <course>192.12</course>
  <speed>0.8786353054595518</speed>
  <fix>3d</fix>
</trkpt>
<trkpt lat="33.810214" lon="-118.3938879">
  <ele>-9.11</ele>
  <time>2026-09-02T22:08:27Z</time>
  <course>190.32</course>
  <speed>0.91</speed>
  <fix>3d</fix>
</trkpt>
<trkpt lat="33.8102116" lon="-118.3938886">
  <ele>-9.654</ele>
  <time>2026-09-02T22:08:27Z</time>
  <course>192.11</course>
  <speed>0.8786353054595518</speed>
  <fix>3d</fix>
</trkpt>
<trkpt lat="33.8102125" lon="-118.3938882">
  <ele>-9.26</ele>
  <time>2026-09-02T22:08:27Z</time>
  <course>190.35</course>
  <speed>0.91</speed>
  <fix>3d</fix>
</trkpt>
<trkpt lat="33.8102108" lon="-118.3938888">
  <ele>-9.73</ele>
  <time>2026-09-02T22:08:27Z</time>
  <course>192.12</course>
  <speed>0.8786353054595518</speed>
  <fix>3d</fix>
</trkpt>
<trkpt lat="33.8102125" lon="-118.3938882">
  <ele>-9.26</ele>
  <time>2026-09-02T22:08:27Z</time>
  <course>190.35</course>
  <speed>0.91</speed>
  <fix>3d</fix>
</trkpt>
<trkpt lat="33.81021" lon="-118.393889">
  <ele>-9.808</ele>
  <time>2026-09-02T22:08:27Z</time>
  <course>192.13</course>
  <speed>0.8884255736976508</speed>
  <fix>3d</fix>
</trkpt>
<trkpt lat="33.8102109" lon="-118.3938886">
  <ele>-9.41</ele>
  <time>2026-09-02T22:08:27Z</time>
  <course>190.41</course>
  <speed>0.91</speed>
  <fix>3d</fix>
</trkpt>
<trkpt lat="33.8102092" lon="-118.3938891">
  <ele>-9.886</ele>
  <time>2026-09-02T22:08:27Z</time>
  <course>192.14</course>
  <speed>0.8884255736976508</speed>
  <fix>3d</fix>
</trkpt>
<trkpt lat="33.8102109" lon="-118.3938886">
  <ele>-9.41</ele>
  <time>2026-09-02T22:08:27Z</time>
  <course>190.41</course>
  <speed>0.91</speed>
  <fix>3d</fix>
</trkpt>
<trkpt lat="33.8102084" lon="-118.3938893">
  <ele>-9.966</ele>
  <time>2026-09-02T22:08:27Z</time>
  <course>192.14</course>
  <speed>0.8884255736976508</speed>
  <fix>3d</fix>
</trkpt>
<trkpt lat="33.8102092" lon="-118.393889">
  <ele>-9.56</ele>
  <time>2026-09-02T22:08:27Z</time>
  <course>190.47</course>
  <speed>0.91</speed>
  <fix>3d</fix>
</trkpt>
<trkpt lat="33.8102076" lon="-118.3938895">
  <ele>-10.044</ele>
  <time>2026-09-02T22:08:27Z</time>
  <course>192.12</course>
  <speed>0.8884255736976508</speed>
  <fix>3d</fix>
</trkpt>
<trkpt lat="33.8102092" lon="-118.393889">
  <ele>-9.56</ele>
  <time>2026-09-02T22:08:27Z</time>
  <course>190.47</course>
  <speed>0.91</speed>
  <fix>3d</fix>
</trkpt>
<trkpt lat="33.8102068" lon="-118.3938897">
  <ele>-10.12</ele>
  <time>2026-09-02T22:08:27Z</time>
  <course>192.09</course>
  <speed>0.8982204629154248</speed>
  <fix>3d</fix>
</trkpt>
<trkpt lat="33.8102076" lon="-118.3938894">
  <ele>-9.71</ele>
  <time>2026-09-02T22:08:27Z</time>
  <course>190.48</course>
  <speed>0.92</speed>
  <fix>3d</fix>
</trkpt>
<trkpt lat="33.8102059" lon="-118.3938899">
  <ele>-10.196</ele>
  <time>2026-09-02T22:08:27Z</time>
  <course>192.06</course>
  <speed>0.8982204629154248</speed>
  <fix>3d</fix>
</trkpt>
<trkpt lat="33.8102076" lon="-118.3938894">
  <ele>-9.71</ele>
  <time>2026-09-02T22:08:27Z</time>
  <course>190.48</course>
  <speed>0.92</speed>
  <fix>3d</fix>
</trkpt>
<trkpt lat="33.8102051" lon="-118.39389">
  <ele>-10.272</ele>
  <time>2026-09-02T22:08:27Z</time>
  <course>192.01</course>
  <speed>0.8982204629154248</speed>
  <fix>3d</fix>
</trkpt>
<trkpt lat="33.8102059" lon="-118.3938897">
  <ele>-9.86</ele>
  <time>2026-09-02T22:08:27Z</time>
  <course>190.43</course>
  <speed>0.92</speed>
  <fix>3d</fix>
</trkpt>
<trkpt lat="33.8102043" lon="-118.3938902">
  <ele>-10.348</ele>
  <time>2026-09-02T22:08:27Z</time>
  <course>191.97</course>
  <speed>0.8982204629154248</speed>
  <fix>3d</fix>
</trkpt>
<trkpt lat="33.8102059" lon="-118.3938897">
  <ele>-9.86</ele>
  <time>2026-09-02T22:08:27Z</time>
  <course>190.43</course>
  <speed>0.92</speed>
  <fix>3d</fix>
</trkpt>
<trkpt lat="33.8102035" lon="-118.3938904">
  <ele>-10.423</ele>
  <time>2026-09-02T22:08:27Z</time>
  <course>191.94</course>
  <speed>0.8982204629154248</speed>
  <fix>3d</fix>
</trkpt>
<trkpt lat="33.8102043" lon="-118.3938901">
  <ele>-10.01</ele>
  <time>2026-09-02T22:08:27Z</time>
  <course>190.4</course>
  <speed>0.92</speed>
  <fix>3d</fix>
</trkpt>
<trkpt lat="33.8102026" lon="-118.3938906">
  <ele>-10.499</ele>
  <time>2026-09-02T22:08:27Z</time>
  <course>191.91</course>
  <speed>0.8982204629154248</speed>
  <fix>3d</fix>
</trkpt>
<trkpt lat="33.8102043" lon="-118.3938901">
  <ele>-10.01</ele>
  <time>2026-09-02T22:08:27Z</time>
  <course>190.4</course>
  <speed>0.92</speed>
  <fix>3d</fix>
</trkpt>
<trkpt lat="33.8102018" lon="-118.3938908">
  <ele>-10.575</ele>
  <time>2026-09-02T22:08:27Z</time>
  <course>191.87</course>
  <speed>0.8982204629154248</speed>
  <fix>3d</fix>
</trkpt>
<trkpt lat="33.8102027" lon="-118.3938905">
  <ele>-10.16</ele>
  <time>2026-09-02T22:08:27Z</time>
  <course>190.4</course>
  <speed>0.92</speed>
  <fix>3d</fix>
</trkpt>
<trkpt lat="33.810201" lon="-118.393891">
  <ele>-10.651</ele>
  <time>2026-09-02T22:08:27Z</time>
  <course>191.84</course>
  <speed>0.8982204629154248</speed>
  <fix>3d</fix>
</trkpt>
<trkpt lat="33.8102027" lon="-118.3938905">
  <ele>-10.16</ele>
  <time>2026-09-02T22:08:27Z</time>
  <course>190.4</course>
  <speed>0.92</speed>
  <fix>3d</fix>
</trkpt>
<trkpt lat="33.8102002" lon="-118.3938911">
  <ele>-10.728</ele>
  <time>2026-09-02T22:08:27Z</time>
  <course>191.8</course>
  <speed>0.8962700485902673</speed>
  <fix>3d</fix>
</trkpt>
<trkpt lat="33.8102011" lon="-118.3938908">
  <ele>-10.3</ele>
  <time>2026-09-02T22:08:27Z</time>
  <course>190.37</course>
  <speed>0.92</speed>
  <fix>3d</fix>
</trkpt>
<trkpt lat="33.8101994" lon="-118.3938913">
  <ele>-10.804</ele>
  <time>2026-09-02T22:08:27Z</time>
  <course>191.75</course>
  <speed>0.8962700485902673</speed>
  <fix>3d</fix>
</trkpt>
<trkpt lat="33.8102011" lon="-118.3938908">
  <ele>-10.3</ele>
  <time>2026-09-02T22:08:27Z</time>
  <course>190.37</course>
  <speed>0.92</speed>
  <fix>3d</fix>
</trkpt>
<trkpt lat="33.8101985" lon="-118.3938915">
  <ele>-10.88</ele>
  <time>2026-09-02T22:08:27Z</time>
  <course>191.71</course>
  <speed>0.8962700485902673</speed>
  <fix>3d</fix>
</trkpt>
<trkpt lat="33.8101994" lon="-118.3938912">
  <ele>-10.45</ele>
  <time>2026-09-02T22:08:27Z</time>
  <course>190.33</course>
  <speed>0.92</speed>
  <fix>3d</fix>
</trkpt>
<trkpt lat="33.8101977" lon="-118.3938917">
  <ele>-10.957</ele>
  <time>2026-09-02T22:08:27Z</time>
  <course>191.68</course>
  <speed>0.8962700485902673</speed>
  <fix>3d</fix>
</trkpt>
<trkpt lat="33.8101994" lon="-118.3938912">
  <ele>-10.45</ele>
  <time>2026-09-02T22:08:27Z</time>
  <course>190.33</course>
  <speed>0.92</speed>
  <fix>3d</fix>
</trkpt>
<trkpt lat="33.8101969" lon="-118.3938919">
  <ele>-11.033</ele>
  <time>2026-09-02T22:08:27Z</time>
  <course>191.64</course>
  <speed>0.8962700485902673</speed>
  <fix>3d</fix>
</trkpt>
<trkpt lat="33.8101978" lon="-118.3938915">
  <ele>-10.6</ele>
  <time>2026-09-02T22:08:27Z</time>
  <course>190.31</course>
  <speed>0.92</speed>
  <fix>3d</fix>
</trkpt>
<trkpt lat="33.8101961" lon="-118.393892">
  <ele>-11.109</ele>
  <time>2026-09-02T22:08:27Z</time>
  <course>191.61</course>
  <speed>0.8962700485902673</speed>
  <fix>3d</fix>
</trkpt>
<trkpt lat="33.8101978" lon="-118.3938915">
  <ele>-10.6</ele>
  <time>2026-09-02T22:08:27Z</time>
  <course>190.31</course>
  <speed>0.92</speed>
  <fix>3d</fix>
</trkpt>
<trkpt lat="33.8101952" lon="-118.3938922">
  <ele>-11.186</ele>
  <time>2026-09-02T22:08:27Z</time>
  <course>191.58</course>
  <speed>0.8962700485902673</speed>
  <fix>3d</fix>
</trkpt>
<trkpt lat="33.8101961" lon="-118.3938919">
  <ele>-10.75</ele>
  <time>2026-09-02T22:08:27Z</time>
  <course>190.33</course>
  <speed>0.92</speed>
  <fix>3d</fix>
</trkpt>
<trkpt lat="33.8101944" lon="-118.3938924">
  <ele>-11.263</ele>
  <time>2026-09-02T22:08:27Z</time>
  <course>191.56</course>
  <speed>0.8962700485902673</speed>
  <fix>3d</fix>
</trkpt>
<trkpt lat="33.8101961" lon="-118.3938919">
  <ele>-10.75</ele>
  <time>2026-09-02T22:08:27Z</time>
  <course>190.33</course>
  <speed>0.92</speed>
  <fix>3d</fix>
</trkpt>
<trkpt lat="33.8101936" lon="-118.3938926">
  <ele>-11.34</ele>
  <time>2026-09-02T22:08:27Z</time>
  <course>191.55</course>
  <speed>0.8962700485902673</speed>
  <fix>3d</fix>
</trkpt>
<trkpt lat="33.8101944" lon="-118.3938923">
  <ele>-10.89</ele>
  <time>2026-09-02T22:08:27Z</time>
  <course>190.36</course>
  <speed>0.93</speed>
  <fix>3d</fix>
</trkpt>
<trkpt lat="33.8101928" lon="-118.3938927">
  <ele>-11.417</ele>
  <time>2026-09-02T22:08:27Z</time>
  <course>191.53</course>
  <speed>0.8962700485902673</speed>
  <fix>3d</fix>
</trkpt>
<trkpt lat="33.8101944" lon="-118.3938923">
  <ele>-10.89</ele>
  <time>2026-09-02T22:08:27Z</time>
  <course>190.36</course>
  <speed>0.93</speed>
  <fix>3d</fix>
</trkpt>
<trkpt lat="33.8101919" lon="-118.3938929">
  <ele>-11.495</ele>
  <time>2026-09-02T22:08:27Z</time>
  <course>191.5</course>
  <speed>0.8962700485902673</speed>
  <fix>3d</fix>
</trkpt>
<trkpt lat="33.8101928" lon="-118.3938926">
  <ele>-11.04</ele>
  <time>2026-09-02T22:08:27Z</time>
  <course>190.36</course>
  <speed>0.93</speed>
  <fix>3d</fix>
</trkpt>
<trkpt lat="33.8101911" lon="-118.3938931">
  <ele>-11.573</ele>
  <time>2026-09-02T22:08:27Z</time>
  <course>191.47</course>
  <speed>0.8962700485902673</speed>
  <fix>3d</fix>
</trkpt>
<trkpt lat="33.8101928" lon="-118.3938926">
  <ele>-11.04</ele>
  <time>2026-09-02T22:08:27Z</time>
  <course>190.36</course>
  <speed>0.93</speed>
  <fix>3d</fix>
</trkpt>
<trkpt lat="33.8101903" lon="-118.3938933">
  <ele>-11.65</ele>
  <time>2026-09-02T22:08:27Z</time>
  <course>191.46</course>
  <speed>0.9060905032059435</speed>
  <fix>3d</fix>
</trkpt>
<trkpt lat="33.8101912" lon="-118.393893">
  <ele>-11.19</ele>
  <time>2026-09-02T22:08:27Z</time>
  <course>190.36</course>
  <speed>0.93</speed>
  <fix>3d</fix>
</trkpt>
<trkpt lat="33.8101895" lon="-118.3938935">
  <ele>-11.729</ele>
  <time>2026-09-02T22:08:27Z</time>
  <course>191.44</course>
  <speed>0.9060905032059435</speed>
  <fix>3d</fix>
</trkpt>
<trkpt lat="33.8101912" lon="-118.393893">
  <ele>-11.19</ele>
  <time>2026-09-02T22:08:27Z</time>
  <course>190.36</course>
  <speed>0.93</speed>
  <fix>3d</fix>
</trkpt>
<trkpt lat="33.8101886" lon="-118.3938937">
  <ele>-11.807</ele>
  <time>2026-09-02T22:08:27Z</time>
  <course>191.41</course>
  <speed>0.9060905032059435</speed>
  <fix>3d</fix>
</trkpt>
<trkpt lat="33.8101895" lon="-118.3938933">
  <ele>-11.34</ele>
  <time>2026-09-02T22:08:27Z</time>
  <course>190.36</course>
  <speed>0.93</speed>
  <fix>3d</fix>
</trkpt>
<trkpt lat="33.8101878" lon="-118.3938938">
  <ele>-11.885</ele>
  <time>2026-09-02T22:08:27Z</time>
  <course>191.39</course>
  <speed>0.9080198235721508</speed>
  <fix>3d</fix>
</trkpt>
<trkpt lat="33.8101895" lon="-118.3938933">
  <ele>-11.34</ele>
  <time>2026-09-02T22:08:27Z</time>
  <course>190.36</course>
  <speed>0.93</speed>
  <fix>3d</fix>
</trkpt>
<trkpt lat="33.810187" lon="-118.393894">
  <ele>-11.961</ele>
  <time>2026-09-02T22:08:27Z</time>
  <course>191.38</course>
  <speed>0.9060905032059435</speed>
  <fix>3d</fix>
</trkpt>
<trkpt lat="33.8101879" lon="-118.3938937">
  <ele>-11.49</ele>
  <time>2026-09-02T22:08:27Z</time>
  <course>190.38</course>
  <speed>0.93</speed>
  <fix>3d</fix>
</trkpt>
<trkpt lat="33.8101861" lon="-118.3938942">
  <ele>-12.037</ele>
  <time>2026-09-02T22:08:27Z</time>
  <course>191.36</course>
  <speed>0.9060905032059435</speed>
  <fix>3d</fix>
</trkpt>
<trkpt lat="33.8101879" lon="-118.3938937">
  <ele>-11.49</ele>
  <time>2026-09-02T22:08:27Z</time>
  <course>190.38</course>
  <speed>0.93</speed>
  <fix>3d</fix>
</trkpt>
<trkpt lat="33.8101853" lon="-118.3938944">
  <ele>-12.113</ele>
  <time>2026-09-02T22:08:27Z</time>
  <course>191.35</course>
  <speed>0.9060905032059435</speed>
  <fix>3d</fix>
</trkpt>
<trkpt lat="33.8101862" lon="-118.3938941">
  <ele>-11.64</ele>
  <time>2026-09-02T22:08:27Z</time>
  <course>190.41</course>
  <speed>0.93</speed>
  <fix>3d</fix>
</trkpt>
<trkpt lat="33.8101845" lon="-118.3938946">
  <ele>-12.191</ele>
  <time>2026-09-02T22:08:27Z</time>
  <course>191.33</course>
  <speed>0.9060905032059435</speed>
  <fix>3d</fix>
</trkpt>
<trkpt lat="33.8101862" lon="-118.3938941">
  <ele>-11.64</ele>
  <time>2026-09-02T22:08:27Z</time>
  <course>190.41</course>
  <speed>0.93</speed>
  <fix>3d</fix>
</trkpt>
<trkpt lat="33.8101836" lon="-118.3938947">
  <ele>-12.269</ele>
  <time>2026-09-02T22:08:27Z</time>
  <course>191.3</course>
  <speed>0.9060905032059435</speed>
  <fix>3d</fix>
</trkpt>
<trkpt lat="33.8101846" lon="-118.3938944">
  <ele>-11.79</ele>
  <time>2026-09-02T22:08:27Z</time>
  <course>190.39</course>
  <speed>0.93</speed>
  <fix>3d</fix>
</trkpt>
<trkpt lat="33.8101828" lon="-118.3938949">
  <ele>-12.347</ele>
  <time>2026-09-02T22:08:27Z</time>
  <course>191.27</course>
  <speed>0.9060905032059435</speed>
  <fix>3d</fix>
</trkpt>
<trkpt lat="33.8101846" lon="-118.3938944">
  <ele>-11.79</ele>
  <time>2026-09-02T22:08:27Z</time>
  <course>190.39</course>
  <speed>0.93</speed>
  <fix>3d</fix>
</trkpt>
<trkpt lat="33.810182" lon="-118.3938951">
  <ele>-12.425</ele>
  <time>2026-09-02T22:08:27Z</time>
  <course>191.25</course>
  <speed>0.9060905032059435</speed>
  <fix>3d</fix>
</trkpt>
<trkpt lat="33.8101829" lon="-118.3938948">
  <ele>-11.94</ele>
  <time>2026-09-02T22:08:27Z</time>
  <course>190.38</course>
  <speed>0.93</speed>
  <fix>3d</fix>
</trkpt>
<trkpt lat="33.8101811" lon="-118.3938953">
  <ele>-12.502</ele>
  <time>2026-09-02T22:08:27Z</time>
  <course>191.23</course>
  <speed>0.9060905032059435</speed>
  <fix>3d</fix>
</trkpt>
<trkpt lat="33.8101829" lon="-118.3938948">
  <ele>-11.94</ele>
  <time>2026-09-02T22:08:27Z</time>
  <course>190.38</course>
  <speed>0.93</speed>
  <fix>3d</fix>
</trkpt>
<trkpt lat="33.8101803" lon="-118.3938955">
  <ele>-12.579</ele>
  <time>2026-09-02T22:08:27Z</time>
  <course>191.21</course>
  <speed>0.9060905032059435</speed>
  <fix>3d</fix>
</trkpt>
<trkpt lat="33.8101812" lon="-118.3938952">
  <ele>-12.09</ele>
  <time>2026-09-02T22:08:27Z</time>
  <course>190.39</course>
  <speed>0.93</speed>
  <fix>3d</fix>
</trkpt>
<trkpt lat="33.8101795" lon="-118.3938956">
  <ele>-12.656</ele>
  <time>2026-09-02T22:08:27Z</time>
  <course>191.19</course>
  <speed>0.9060905032059435</speed>
  <fix>3d</fix>
</trkpt>
<trkpt lat="33.8101812" lon="-118.3938952">
  <ele>-12.09</ele>
  <time>2026-09-02T22:08:27Z</time>
  <course>190.39</course>
  <speed>0.93</speed>
  <fix>3d</fix>
</trkpt>
<trkpt lat="33.8101786" lon="-118.3938958">
  <ele>-12.732</ele>
  <time>2026-09-02T22:08:27Z</time>
  <course>191.15</course>
  <speed>0.9060905032059435</speed>
  <fix>3d</fix>
</trkpt>
<trkpt lat="33.8101796" lon="-118.3938955">
  <ele>-12.25</ele>
  <time>2026-09-02T22:08:27Z</time>
  <course>190.36</course>
  <speed>0.93</speed>
  <fix>3d</fix>
</trkpt>
<trkpt lat="33.8101778" lon="-118.393896">
  <ele>-12.809</ele>
  <time>2026-09-02T22:08:27Z</time>
  <course>191.13</course>
  <speed>0.9060905032059435</speed>
  <fix>3d</fix>
</trkpt>
<trkpt lat="33.8101796" lon="-118.3938955">
  <ele>-12.25</ele>
  <time>2026-09-02T22:08:27Z</time>
  <course>190.36</course>
  <speed>0.93</speed>
  <fix>3d</fix>
</trkpt>
<trkpt lat="33.810177" lon="-118.3938962">
  <ele>-12.888</ele>
  <time>2026-09-02T22:08:27Z</time>
  <course>191.11</course>
  <speed>0.9060905032059435</speed>
  <fix>3d</fix>
</trkpt>
<trkpt lat="33.8101779" lon="-118.3938959">
  <ele>-12.4</ele>
  <time>2026-09-02T22:08:27Z</time>
  <course>190.35</course>
  <speed>0.93</speed>
  <fix>3d</fix>
</trkpt>
<trkpt lat="33.8101762" lon="-118.3938964">
  <ele>-12.968</ele>
  <time>2026-09-02T22:08:27Z</time>
  <course>191.09</course>
  <speed>0.9159148432032315</speed>
  <fix>3d</fix>
</trkpt>
<trkpt lat="33.8101779" lon="-118.3938959">
  <ele>-12.4</ele>
  <time>2026-09-02T22:08:27Z</time>
  <course>190.35</course>
  <speed>0.93</speed>
  <fix>3d</fix>
</trkpt>
<trkpt lat="33.8101753" lon="-118.3938966">
  <ele>-13.048</ele>
  <time>2026-09-02T22:08:27Z</time>
  <course>191.07</course>
  <speed>0.9159148432032315</speed>
  <fix>3d</fix>
</trkpt>
<trkpt lat="33.8101762" lon="-118.3938963">
  <ele>-12.55</ele>
  <time>2026-09-02T22:08:27Z</time>
  <course>190.35</course>
  <speed>0.94</speed>
  <fix>3d</fix>
</trkpt>
<trkpt lat="33.8101745" lon="-118.3938967">
  <ele>-13.127</ele>
  <time>2026-09-02T22:08:27Z</time>
  <course>191.05</course>
  <speed>0.9159148432032315</speed>
  <fix>3d</fix>
</trkpt>
<trkpt lat="33.8101762" lon="-118.3938963">
  <ele>-12.55</ele>
  <time>2026-09-02T22:08:27Z</time>
  <course>190.35</course>
  <speed>0.94</speed>
  <fix>3d</fix>
</trkpt>
<trkpt lat="33.8101736" lon="-118.3938969">
  <ele>-13.205</ele>
  <time>2026-09-02T22:08:27Z</time>
  <course>191.03</course>
  <speed>0.9159148432032315</speed>
  <fix>3d</fix>
</trkpt>
<trkpt lat="33.8101746" lon="-118.3938966">
  <ele>-12.71</ele>
  <time>2026-09-02T22:08:27Z</time>
  <course>190.32</course>
  <speed>0.94</speed>
  <fix>3d</fix>
</trkpt>
<trkpt lat="33.8101728" lon="-118.3938971">
  <ele>-13.283</ele>
  <time>2026-09-02T22:08:27Z</time>
  <course>191.02</course>
  <speed>0.9159148432032315</speed>
  <fix>3d</fix>
</trkpt>
<trkpt lat="33.8101746" lon="-118.3938966">
  <ele>-12.71</ele>
  <time>2026-09-02T22:08:27Z</time>
  <course>190.32</course>
  <speed>0.94</speed>
  <fix>3d</fix>
</trkpt>
<trkpt lat="33.810172" lon="-118.3938973">
  <ele>-13.361</ele>
  <time>2026-09-02T22:08:27Z</time>
  <course>191.0</course>
  <speed>0.9159148432032315</speed>
  <fix>3d</fix>
</trkpt>
<trkpt lat="33.8101729" lon="-118.393897">
  <ele>-12.86</ele>
  <time>2026-09-02T22:08:27Z</time>
  <course>190.3</course>
  <speed>0.94</speed>
  <fix>3d</fix>
</trkpt>
<trkpt lat="33.8101711" lon="-118.3938975">
  <ele>-13.439</ele>
  <time>2026-09-02T22:08:27Z</time>
  <course>190.99</course>
  <speed>0.9159148432032315</speed>
  <fix>3d</fix>
</trkpt>
<trkpt lat="33.8101729" lon="-118.393897">
  <ele>-12.86</ele>
  <time>2026-09-02T22:08:27Z</time>
  <course>190.3</course>
  <speed>0.94</speed>
  <fix>3d</fix>
</trkpt>
<trkpt lat="33.8101703" lon="-118.3938976">
  <ele>-13.518</ele>
  <time>2026-09-02T22:08:27Z</time>
  <course>190.97</course>
  <speed>0.9159148432032315</speed>
  <fix>3d</fix>
</trkpt>
<trkpt lat="33.8101712" lon="-118.3938973">
  <ele>-13.02</ele>
  <time>2026-09-02T22:08:27Z</time>
  <course>190.3</course>
  <speed>0.94</speed>
  <fix>3d</fix>
</trkpt>
<trkpt lat="33.8101694" lon="-118.3938978">
  <ele>-13.598</ele>
  <time>2026-09-02T22:08:27Z</time>
  <course>190.96</course>
  <speed>0.9159148432032315</speed>
  <fix>3d</fix>
</trkpt>
<trkpt lat="33.8101712" lon="-118.3938973">
  <ele>-13.02</ele>
  <time>2026-09-02T22:08:27Z</time>
  <course>190.3</course>
  <speed>0.94</speed>
  <fix>3d</fix>
</trkpt>
<trkpt lat="33.8101686" lon="-118.393898">
  <ele>-13.677</ele>
  <time>2026-09-02T22:08:27Z</time>
  <course>190.95</course>
  <speed>0.9257429448826494</speed>
  <fix>3d</fix>
</trkpt>
<trkpt lat="33.8101696" lon="-118.3938977">
  <ele>-13.17</ele>
  <time>2026-09-02T22:08:27Z</time>
  <course>190.33</course>
  <speed>0.94</speed>
  <fix>3d</fix>
</trkpt>
<trkpt lat="33.8101678" lon="-118.3938982">
  <ele>-13.756</ele>
  <time>2026-09-02T22:08:27Z</time>
  <course>190.96</course>
  <speed>0.9257429448826494</speed>
  <fix>3d</fix>
</trkpt>
<trkpt lat="33.8101696" lon="-118.3938977">
  <ele>-13.17</ele>
  <time>2026-09-02T22:08:27Z</time>
  <course>190.33</course>
  <speed>0.94</speed>
  <fix>3d</fix>
</trkpt>
<trkpt lat="33.8101669" lon="-118.3938984">
  <ele>-13.834</ele>
  <time>2026-09-02T22:08:27Z</time>
  <course>190.96</course>
  <speed>0.9257429448826494</speed>
  <fix>3d</fix>
</trkpt>
<trkpt lat="33.8101679" lon="-118.3938981">
  <ele>-13.32</ele>
  <time>2026-09-02T22:08:27Z</time>
  <course>190.35</course>
  <speed>0.94</speed>
  <fix>3d</fix>
</trkpt>
<trkpt lat="33.8101661" lon="-118.3938986">
  <ele>-13.913</ele>
  <time>2026-09-02T22:08:27Z</time>
  <course>190.95</course>
  <speed>0.9257429448826494</speed>
  <fix>3d</fix>
</trkpt>
<trkpt lat="33.8101679" lon="-118.3938981">
  <ele>-13.32</ele>
  <time>2026-09-02T22:08:27Z</time>
  <course>190.35</course>
  <speed>0.94</speed>
  <fix>3d</fix>
</trkpt>
<trkpt lat="33.8101652" lon="-118.3938987">
  <ele>-13.991</ele>
  <time>2026-09-02T22:08:27Z</time>
  <course>190.93</course>
  <speed>0.9257429448826494</speed>
  <fix>3d</fix>
</trkpt>
<trkpt lat="33.8101662" lon="-118.3938985">
  <ele>-13.48</ele>
  <time>2026-09-02T22:08:27Z</time>
  <course>190.34</course>
  <speed>0.95</speed>
  <fix>3d</fix>
</trkpt>
<trkpt lat="33.8101644" lon="-118.3938989">
  <ele>-14.07</ele>
  <time>2026-09-02T22:08:27Z</time>
  <course>190.9</course>
  <speed>0.9257429448826494</speed>
  <fix>3d</fix>
</trkpt>
<trkpt lat="33.8101662" lon="-118.3938985">
  <ele>-13.48</ele>
  <time>2026-09-02T22:08:27Z</time>
  <course>190.34</course>
  <speed>0.95</speed>
  <fix>3d</fix>
</trkpt>
<trkpt lat="33.8101636" lon="-118.3938991">
  <ele>-14.148</ele>
  <time>2026-09-02T22:08:27Z</time>
  <course>190.87</course>
  <speed>0.9257429448826494</speed>
  <fix>3d</fix>
</trkpt>
<trkpt lat="33.8101645" lon="-118.3938988">
  <ele>-13.63</ele>
  <time>2026-09-02T22:08:27Z</time>
  <course>190.29</course>
  <speed>0.95</speed>
  <fix>3d</fix>
</trkpt>
<trkpt lat="33.8101627" lon="-118.3938993">
  <ele>-14.226</ele>
  <time>2026-09-02T22:08:27Z</time>
  <course>190.84</course>
  <speed>0.9257429448826494</speed>
  <fix>3d</fix>
</trkpt>
<trkpt lat="33.8101645" lon="-118.3938988">
  <ele>-13.63</ele>
  <time>2026-09-02T22:08:27Z</time>
  <course>190.29</course>
  <speed>0.95</speed>
  <fix>3d</fix>
</trkpt>
<trkpt lat="33.8101619" lon="-118.3938995">
  <ele>-14.305</ele>
  <time>2026-09-02T22:08:27Z</time>
  <course>190.82</course>
  <speed>0.9257429448826494</speed>
  <fix>3d</fix>
</trkpt>
<trkpt lat="33.8101629" lon="-118.3938992">
  <ele>-13.78</ele>
  <time>2026-09-02T22:08:27Z</time>
  <course>190.26</course>
  <speed>0.95</speed>
  <fix>3d</fix>
</trkpt>
<trkpt lat="33.810161" lon="-118.3938997">
  <ele>-14.383</ele>
  <time>2026-09-02T22:08:27Z</time>
  <course>190.8</course>
  <speed>0.9257429448826494</speed>
  <fix>3d</fix>
</trkpt>
<trkpt lat="33.8101629" lon="-118.3938992">
  <ele>-13.78</ele>
  <time>2026-09-02T22:08:27Z</time>
  <course>190.26</course>
  <speed>0.95</speed>
  <fix>3d</fix>
</trkpt>
<trkpt lat="33.8101602" lon="-118.3938998">
  <ele>-14.462</ele>
  <time>2026-09-02T22:08:27Z</time>
  <course>190.78</course>
  <speed>0.9257429448826494</speed>
  <fix>3d</fix>
</trkpt>
<trkpt lat="33.8101612" lon="-118.3938996">
  <ele>-13.94</ele>
  <time>2026-09-02T22:08:27Z</time>
  <course>190.25</course>
  <speed>0.95</speed>
  <fix>3d</fix>
</trkpt>
<trkpt lat="33.8101593" lon="-118.3939">
  <ele>-14.54</ele>
  <time>2026-09-02T22:08:27Z</time>
  <course>190.76</course>
  <speed>0.9257429448826494</speed>
  <fix>3d</fix>
</trkpt>
<trkpt lat="33.8101612" lon="-118.3938996">
  <ele>-13.94</ele>
  <time>2026-09-02T22:08:27Z</time>
  <course>190.25</course>
  <speed>0.95</speed>
  <fix>3d</fix>
</trkpt>
<trkpt lat="33.8101585" lon="-118.3939002">
  <ele>-14.62</ele>
  <time>2026-09-02T22:08:27Z</time>
  <course>190.73</course>
  <speed>0.9257429448826494</speed>
  <fix>3d</fix>
</trkpt>
<trkpt lat="33.8101595" lon="-118.3938999">
  <ele>-14.09</ele>
  <time>2026-09-02T22:08:27Z</time>
  <course>190.21</course>
  <speed>0.95</speed>
  <fix>3d</fix>
</trkpt>
<trkpt lat="33.8101577" lon="-118.3939004">
  <ele>-14.699</ele>
  <time>2026-09-02T22:08:27Z</time>
  <course>190.71</course>
  <speed>0.9257429448826494</speed>
  <fix>3d</fix>
</trkpt>
<trkpt lat="33.8101595" lon="-118.3938999">
  <ele>-14.09</ele>
  <time>2026-09-02T22:08:27Z</time>
  <course>190.21</course>
  <speed>0.95</speed>
  <fix>3d</fix>
</trkpt>
<trkpt lat="33.8101568" lon="-118.3939006">
  <ele>-14.779</ele>
  <time>2026-09-02T22:08:27Z</time>
  <course>190.7</course>
  <speed>0.9257429448826494</speed>
  <fix>3d</fix>
</trkpt>
<trkpt lat="33.8101578" lon="-118.3939003">
  <ele>-14.25</ele>
  <time>2026-09-02T22:08:27Z</time>
  <course>190.19</course>
  <speed>0.95</speed>
  <fix>3d</fix>
</trkpt>
<trkpt lat="33.810156" lon="-118.3939008">
  <ele>-14.859</ele>
  <time>2026-09-02T22:08:27Z</time>
  <course>190.69</course>
  <speed>0.9257429448826494</speed>
  <fix>3d</fix>
</trkpt>
<trkpt lat="33.8101578" lon="-118.3939003">
  <ele>-14.25</ele>
  <time>2026-09-02T22:08:27Z</time>
  <course>190.19</course>
  <speed>0.95</speed>
  <fix>3d</fix>
</trkpt>
<trkpt lat="33.8101551" lon="-118.3939009">
  <ele>-14.94</ele>
  <time>2026-09-02T22:08:27Z</time>
  <course>190.67</course>
  <speed>0.9355746896961247</speed>
  <fix>3d</fix>
</trkpt>
<trkpt lat="33.8101561" lon="-118.3939007">
  <ele>-14.4</ele>
  <time>2026-09-02T22:08:27Z</time>
  <course>190.18</course>
  <speed>0.95</speed>
  <fix>3d</fix>
</trkpt>
<trkpt lat="33.8101543" lon="-118.3939011">
  <ele>-15.02</ele>
  <time>2026-09-02T22:08:27Z</time>
  <course>190.65</course>
  <speed>0.9355746896961247</speed>
  <fix>3d</fix>
</trkpt>
<trkpt lat="33.8101561" lon="-118.3939007">
  <ele>-14.4</ele>
  <time>2026-09-02T22:08:27Z</time>
  <course>190.18</course>
  <speed>0.95</speed>
  <fix>3d</fix>
</trkpt>
<trkpt lat="33.8101534" lon="-118.3939013">
  <ele>-15.101</ele>
  <time>2026-09-02T22:08:27Z</time>
  <course>190.64</course>
  <speed>0.9355746896961247</speed>
  <fix>3d</fix>
</trkpt>
<trkpt lat="33.8101544" lon="-118.393901">
  <ele>-14.55</ele>
  <time>2026-09-02T22:08:27Z</time>
  <course>190.16</course>
  <speed>0.96</speed>
  <fix>3d</fix>
</trkpt>
<trkpt lat="33.8101526" lon="-118.3939015">
  <ele>-15.181</ele>
  <time>2026-09-02T22:08:27Z</time>
  <course>190.63</course>
  <speed>0.9355746896961247</speed>
  <fix>3d</fix>
</trkpt>
<trkpt lat="33.8101544" lon="-118.393901">
  <ele>-14.55</ele>
  <time>2026-09-02T22:08:27Z</time>
  <course>190.16</course>
  <speed>0.96</speed>
  <fix>3d</fix>
</trkpt>
<trkpt lat="33.8101517" lon="-118.3939017">
  <ele>-15.26</ele>
  <time>2026-09-02T22:08:27Z</time>
  <course>190.63</course>
  <speed>0.9355746896961247</speed>
  <fix>3d</fix>
</trkpt>
<trkpt lat="33.8101527" lon="-118.3939014">
  <ele>-14.71</ele>
  <time>2026-09-02T22:08:27Z</time>
  <course>190.14</course>
  <speed>0.96</speed>
  <fix>3d</fix>
</trkpt>
<trkpt lat="33.8101509" lon="-118.3939019">
  <ele>-15.339</ele>
  <time>2026-09-02T22:08:27Z</time>
  <course>190.63</course>
  <speed>0.9355746896961247</speed>
  <fix>3d</fix>
</trkpt>
<trkpt lat="33.8101527" lon="-118.3939014">
  <ele>-14.71</ele>
  <time>2026-09-02T22:08:27Z</time>
  <course>190.14</course>
  <speed>0.96</speed>
  <fix>3d</fix>
</trkpt>
<trkpt lat="33.81015" lon="-118.393902">
  <ele>-15.419</ele>
  <time>2026-09-02T22:08:27Z</time>
  <course>190.64</course>
  <speed>0.9355746896961247</speed>
  <fix>3d</fix>
</trkpt>
<trkpt lat="33.810151" lon="-118.3939018">
  <ele>-14.86</ele>
  <time>2026-09-02T22:08:27Z</time>
  <course>190.15</course>
  <speed>0.96</speed>
  <fix>3d</fix>
</trkpt>
<trkpt lat="33.8101492" lon="-118.3939022">
  <ele>-15.499</ele>
  <time>2026-09-02T22:08:27Z</time>
  <course>190.65</course>
  <speed>0.9454099639838793</speed>
  <fix>3d</fix>
</trkpt>
<trkpt lat="33.810151" lon="-118.3939018">
  <ele>-14.86</ele>
  <time>2026-09-02T22:08:27Z</time>
  <course>190.15</course>
  <speed>0.96</speed>
  <fix>3d</fix>
</trkpt>
<trkpt lat="33.8101483" lon="-118.3939024">
  <ele>-15.579</ele>
  <time>2026-09-02T22:08:27Z</time>
  <course>190.63</course>
  <speed>0.9454099639838793</speed>
  <fix>3d</fix>
</trkpt>
<trkpt lat="33.8101493" lon="-118.3939021">
  <ele>-15.01</ele>
  <time>2026-09-02T22:08:27Z</time>
  <course>190.14</course>
  <speed>0.96</speed>
  <fix>3d</fix>
</trkpt>
<trkpt lat="33.8101475" lon="-118.3939026">
  <ele>-15.659</ele>
  <time>2026-09-02T22:08:27Z</time>
  <course>190.62</course>
  <speed>0.9454099639838793</speed>
  <fix>3d</fix>
</trkpt>
<trkpt lat="33.8101493" lon="-118.3939021">
  <ele>-15.01</ele>
  <time>2026-09-02T22:08:27Z</time>
  <course>190.14</course>
  <speed>0.96</speed>
  <fix>3d</fix>
</trkpt>
<trkpt lat="33.8101466" lon="-118.3939028">
  <ele>-15.738</ele>
  <time>2026-09-02T22:08:27Z</time>
  <course>190.63</course>
  <speed>0.9454099639838793</speed>
  <fix>3d</fix>
</trkpt>
<trkpt lat="33.8101476" lon="-118.3939025">
  <ele>-15.17</ele>
  <time>2026-09-02T22:08:27Z</time>
  <course>190.13</course>
  <speed>0.97</speed>
  <fix>3d</fix>
</trkpt>
<trkpt lat="33.8101458" lon="-118.393903">
  <ele>-15.816</ele>
  <time>2026-09-02T22:08:27Z</time>
  <course>190.63</course>
  <speed>0.9472592042308166</speed>
  <fix>3d</fix>
</trkpt>
<trkpt lat="33.8101476" lon="-118.3939025">
  <ele>-15.17</ele>
  <time>2026-09-02T22:08:27Z</time>
  <course>190.13</course>
  <speed>0.97</speed>
  <fix>3d</fix>
</trkpt>
<trkpt lat="33.8101449" lon="-118.3939031">
  <ele>-15.894</ele>
  <time>2026-09-02T22:08:27Z</time>
  <course>190.65</course>
  <speed>0.9454099639838793</speed>
  <fix>3d</fix>
</trkpt>
<trkpt lat="33.8101458" lon="-118.3939029">
  <ele>-15.32</ele>
  <time>2026-09-02T22:08:27Z</time>
  <course>190.14</course>
  <speed>0.97</speed>
  <fix>3d</fix>
</trkpt>
<trkpt lat="33.8101441" lon="-118.3939033">
  <ele>-15.972</ele>
  <time>2026-09-02T22:08:27Z</time>
  <course>190.66</course>
  <speed>0.9355746896961247</speed>
  <fix>3d</fix>
</trkpt>
<trkpt lat="33.8101458" lon="-118.3939029">
  <ele>-15.32</ele>
  <time>2026-09-02T22:08:27Z</time>
  <course>190.14</course>
  <speed>0.97</speed>
  <fix>3d</fix>
</trkpt>
<trkpt lat="33.8101432" lon="-118.3939035">
  <ele>-16.05</ele>
  <time>2026-09-02T22:08:27Z</time>
  <course>190.66</course>
  <speed>0.9355746896961247</speed>
  <fix>3d</fix>
</trkpt>
<trkpt lat="33.8101441" lon="-118.3939033">
  <ele>-15.47</ele>
  <time>2026-09-02T22:08:27Z</time>
  <course>190.15</course>
  <speed>0.97</speed>
  <fix>3d</fix>
</trkpt>
<trkpt lat="33.8101423" lon="-118.3939037">
  <ele>-16.129</ele>
  <time>2026-09-02T22:08:27Z</time>
  <course>190.65</course>
  <speed>0.9355746896961247</speed>
  <fix>3d</fix>
</trkpt>
<trkpt lat="33.8101441" lon="-118.3939033">
  <ele>-15.47</ele>
  <time>2026-09-02T22:08:27Z</time>
  <course>190.15</course>
  <speed>0.97</speed>
  <fix>3d</fix>
</trkpt>
<trkpt lat="33.8101415" lon="-118.3939039">
  <ele>-16.208</ele>
  <time>2026-09-02T22:08:27Z</time>
  <course>190.64</course>
  <speed>0.9355746896961247</speed>
  <fix>3d</fix>
</trkpt>
<trkpt lat="33.8101424" lon="-118.3939036">
  <ele>-15.62</ele>
  <time>2026-09-02T22:08:27Z</time>
  <course>190.11</course>
  <speed>0.97</speed>
  <fix>3d</fix>
</trkpt>
<trkpt lat="33.8101406" lon="-118.3939041">
  <ele>-16.287</ele>
  <time>2026-09-02T22:08:27Z</time>
  <course>190.63</course>
  <speed>0.9355746896961247</speed>
  <fix>3d</fix>
</trkpt>
<trkpt lat="33.8101424" lon="-118.3939036">
  <ele>-15.62</ele>
  <time>2026-09-02T22:08:27Z</time>
  <course>190.11</course>
  <speed>0.97</speed>
  <fix>3d</fix>
</trkpt>
<trkpt lat="33.8101398" lon="-118.3939043">
  <ele>-16.365</ele>
  <time>2026-09-02T22:08:27Z</time>
  <course>190.62</course>
  <speed>0.9355746896961247</speed>
  <fix>3d</fix>
</trkpt>
<trkpt lat="33.8101407" lon="-118.393904">
  <ele>-15.77</ele>
  <time>2026-09-02T22:08:27Z</time>
  <course>190.09</course>
  <speed>0.96</speed>
  <fix>3d</fix>
</trkpt>
<trkpt lat="33.8101389" lon="-118.3939044">
  <ele>-16.444</ele>
  <time>2026-09-02T22:08:27Z</time>
  <course>190.63</course>
  <speed>0.9355746896961247</speed>
  <fix>3d</fix>
</trkpt>
<trkpt lat="33.8101407" lon="-118.393904">
  <ele>-15.77</ele>
  <time>2026-09-02T22:08:27Z</time>
  <course>190.09</course>
  <speed>0.96</speed>
  <fix>3d</fix>
</trkpt>
<trkpt lat="33.8101381" lon="-118.3939046">
  <ele>-16.523</ele>
  <time>2026-09-02T22:08:27Z</time>
  <course>190.64</course>
  <speed>0.9355746896961247</speed>
  <fix>3d</fix>
</trkpt>
<trkpt lat="33.810139" lon="-118.3939044">
  <ele>-15.93</ele>
  <time>2026-09-02T22:08:27Z</time>
  <course>190.1</course>
  <speed>0.96</speed>
  <fix>3d</fix>
</trkpt>
<trkpt lat="33.8101372" lon="-118.3939048">
  <ele>-16.603</ele>
  <time>2026-09-02T22:08:27Z</time>
  <course>190.64</course>
  <speed>0.9355746896961247</speed>
  <fix>3d</fix>
</trkpt>
<trkpt lat="33.810139" lon="-118.3939044">
  <ele>-15.93</ele>
  <time>2026-09-02T22:08:27Z</time>
  <course>190.1</course>
  <speed>0.96</speed>
  <fix>3d</fix>
</trkpt>
<trkpt lat="33.8101364" lon="-118.393905">
  <ele>-16.682</ele>
  <time>2026-09-02T22:08:27Z</time>
  <course>190.63</course>
  <speed>0.9355746896961247</speed>
  <fix>3d</fix>
</trkpt>
<trkpt lat="33.8101373" lon="-118.3939047">
  <ele>-16.08</ele>
  <time>2026-09-02T22:08:27Z</time>
  <course>190.09</course>
  <speed>0.96</speed>
  <fix>3d</fix>
</trkpt>
<trkpt lat="33.8101355" lon="-118.3939052">
  <ele>-16.761</ele>
  <time>2026-09-02T22:08:27Z</time>
  <course>190.62</course>
  <speed>0.9355746896961247</speed>
  <fix>3d</fix>
</trkpt>
<trkpt lat="33.8101373" lon="-118.3939047">
  <ele>-16.08</ele>
  <time>2026-09-02T22:08:27Z</time>
  <course>190.09</course>
  <speed>0.96</speed>
  <fix>3d</fix>
</trkpt>
<trkpt lat="33.8101347" lon="-118.3939054">
  <ele>-16.84</ele>
  <time>2026-09-02T22:08:27Z</time>
  <course>190.63</course>
  <speed>0.9355746896961247</speed>
  <fix>3d</fix>
</trkpt>
<trkpt lat="33.8101356" lon="-118.3939051">
  <ele>-16.24</ele>
  <time>2026-09-02T22:08:27Z</time>
  <course>190.08</course>
  <speed>0.96</speed>
  <fix>3d</fix>
</trkpt>
<trkpt lat="33.8101338" lon="-118.3939055">
  <ele>-16.921</ele>
  <time>2026-09-02T22:08:27Z</time>
  <course>190.64</course>
  <speed>0.9355746896961247</speed>
  <fix>3d</fix>
</trkpt>
<trkpt lat="33.8101356" lon="-118.3939051">
  <ele>-16.24</ele>
  <time>2026-09-02T22:08:27Z</time>
  <course>190.08</course>
  <speed>0.96</speed>
  <fix>3d</fix>
</trkpt>
<trkpt lat="33.810133" lon="-118.3939057">
  <ele>-17.002</ele>
  <time>2026-09-02T22:08:27Z</time>
  <course>190.64</course>
  <speed>0.9355746896961247</speed>
  <fix>3d</fix>
</trkpt>
<trkpt lat="33.8101339" lon="-118.3939055">
  <ele>-16.4</ele>
  <time>2026-09-02T22:08:27Z</time>
  <course>190.09</course>
  <speed>0.96</speed>
  <fix>3d</fix>
</trkpt>
<trkpt lat="33.8101321" lon="-118.3939059">
  <ele>-17.083</ele>
  <time>2026-09-02T22:08:27Z</time>
  <course>190.64</course>
  <speed>0.9355746896961247</speed>
  <fix>3d</fix>
</trkpt>
<trkpt lat="33.8101339" lon="-118.3939055">
  <ele>-16.4</ele>
  <time>2026-09-02T22:08:27Z</time>
  <course>190.09</course>
  <speed>0.96</speed>
  <fix>3d</fix>
</trkpt>
<trkpt lat="33.8101312" lon="-118.3939061">
  <ele>-17.164</ele>
  <time>2026-09-02T22:08:27Z</time>
  <course>190.63</course>
  <speed>0.9355746896961247</speed>
  <fix>3d</fix>
</trkpt>
<trkpt lat="33.8101322" lon="-118.3939058">
  <ele>-16.56</ele>
  <time>2026-09-02T22:08:27Z</time>
  <course>190.07</course>
  <speed>0.96</speed>
  <fix>3d</fix>
</trkpt>
<trkpt lat="33.8101304" lon="-118.3939063">
  <ele>-17.245</ele>
  <time>2026-09-02T22:08:27Z</time>
  <course>190.62</course>
  <speed>0.9454099639838793</speed>
  <fix>3d</fix>
</trkpt>
<trkpt lat="33.8101322" lon="-118.3939058">
  <ele>-16.56</ele>
  <time>2026-09-02T22:08:27Z</time>
  <course>190.07</course>
  <speed>0.96</speed>
  <fix>3d</fix>
</trkpt>
<trkpt lat="33.8101295" lon="-118.3939065">
  <ele>-17.325</ele>
  <time>2026-09-02T22:08:27Z</time>
  <course>190.63</course>
  <speed>0.9454099639838793</speed>
  <fix>3d</fix>
</trkpt>
<trkpt lat="33.8101304" lon="-118.3939062">
  <ele>-16.72</ele>
  <time>2026-09-02T22:08:27Z</time>
  <course>190.05</course>
  <speed>0.97</speed>
  <fix>3d</fix>
</trkpt>
<trkpt lat="33.8101287" lon="-118.3939066">
  <ele>-17.407</ele>
  <time>2026-09-02T22:08:27Z</time>
  <course>190.65</course>
  <speed>0.9454099639838793</speed>
  <fix>3d</fix>
</trkpt>
<trkpt lat="33.8101304" lon="-118.3939062">
  <ele>-16.72</ele>
  <time>2026-09-02T22:08:27Z</time>
  <course>190.05</course>
  <speed>0.97</speed>
  <fix>3d</fix>
</trkpt>
<trkpt lat="33.8101278" lon="-118.3939068">
  <ele>-17.488</ele>
  <time>2026-09-02T22:08:27Z</time>
  <course>190.65</course>
  <speed>0.9454099639838793</speed>
  <fix>3d</fix>
</trkpt>
<trkpt lat="33.8101287" lon="-118.3939066">
  <ele>-16.88</ele>
  <time>2026-09-02T22:08:27Z</time>
  <course>190.06</course>
  <speed>0.97</speed>
  <fix>3d</fix>
</trkpt>
<trkpt lat="33.810127" lon="-118.393907">
  <ele>-17.569</ele>
  <time>2026-09-02T22:08:27Z</time>
  <course>190.67</course>
  <speed>0.9454099639838793</speed>
  <fix>3d</fix>
</trkpt>
<trkpt lat="33.8101287" lon="-118.3939066">
  <ele>-16.88</ele>
  <time>2026-09-02T22:08:27Z</time>
  <course>190.06</course>
  <speed>0.97</speed>
  <fix>3d</fix>
</trkpt>
<trkpt lat="33.8101261" lon="-118.3939072">
  <ele>-17.65</ele>
  <time>2026-09-02T22:08:27Z</time>
  <course>190.68</course>
  <speed>0.9454099639838793</speed>
  <fix>3d</fix>
</trkpt>
<trkpt lat="33.810127" lon="-118.3939069">
  <ele>-17.04</ele>
  <time>2026-09-02T22:08:27Z</time>
  <course>190.07</course>
  <speed>0.97</speed>
  <fix>3d</fix>
</trkpt>
<trkpt lat="33.8101252" lon="-118.3939074">
  <ele>-17.73</ele>
  <time>2026-09-02T22:08:27Z</time>
  <course>190.69</course>
  <speed>0.9454099639838793</speed>
  <fix>3d</fix>
</trkpt>
<trkpt lat="33.810127" lon="-118.3939069">
  <ele>-17.04</ele>
  <time>2026-09-02T22:08:27Z</time>
  <course>190.07</course>
  <speed>0.97</speed>
  <fix>3d</fix>
</trkpt>
<trkpt lat="33.8101244" lon="-118.3939076">
  <ele>-17.811</ele>
  <time>2026-09-02T22:08:27Z</time>
  <course>190.7</course>
  <speed>0.9454099639838793</speed>
  <fix>3d</fix>
</trkpt>
<trkpt lat="33.8101253" lon="-118.3939073">
  <ele>-17.2</ele>
  <time>2026-09-02T22:08:27Z</time>
  <course>190.07</course>
  <speed>0.97</speed>
  <fix>3d</fix>
</trkpt>
<trkpt lat="33.8101235" lon="-118.3939078">
  <ele>-17.892</ele>
  <time>2026-09-02T22:08:27Z</time>
  <course>190.71</course>
  <speed>0.9472592042308166</speed>
  <fix>3d</fix>
</trkpt>
<trkpt lat="33.8101253" lon="-118.3939073">
  <ele>-17.2</ele>
  <time>2026-09-02T22:08:27Z</time>
  <course>190.07</course>
  <speed>0.97</speed>
  <fix>3d</fix>
</trkpt>
<trkpt lat="33.8101226" lon="-118.3939079">
  <ele>-17.973</ele>
  <time>2026-09-02T22:08:27Z</time>
  <course>190.73</course>
  <speed>0.9472592042308166</speed>
  <fix>3d</fix>
</trkpt>
<trkpt lat="33.8101236" lon="-118.3939077">
  <ele>-17.36</ele>
  <time>2026-09-02T22:08:27Z</time>
  <course>190.09</course>
  <speed>0.97</speed>
  <fix>3d</fix>
</trkpt>
<trkpt lat="33.8101218" lon="-118.3939081">
  <ele>-18.055</ele>
  <time>2026-09-02T22:08:27Z</time>
  <course>190.74</course>
  <speed>0.9472592042308166</speed>
  <fix>3d</fix>
</trkpt>
<trkpt lat="33.8101236" lon="-118.3939077">
  <ele>-17.36</ele>
  <time>2026-09-02T22:08:27Z</time>
  <course>190.09</course>
  <speed>0.97</speed>
  <fix>3d</fix>
</trkpt>
<trkpt lat="33.8101209" lon="-118.3939083">
  <ele>-18.137</ele>
  <time>2026-09-02T22:08:27Z</time>
  <course>190.74</course>
  <speed>0.9472592042308166</speed>
  <fix>3d</fix>
</trkpt>
<trkpt lat="33.8101218" lon="-118.393908">
  <ele>-17.51</ele>
  <time>2026-09-02T22:08:27Z</time>
  <course>190.1</course>
  <speed>0.97</speed>
  <fix>3d</fix>
</trkpt>
<trkpt lat="33.81012" lon="-118.3939085">
  <ele>-18.217</ele>
  <time>2026-09-02T22:08:27Z</time>
  <course>190.75</course>
  <speed>0.9472592042308166</speed>
  <fix>3d</fix>
</trkpt>
<trkpt lat="33.8101218" lon="-118.393908">
  <ele>-17.51</ele>
  <time>2026-09-02T22:08:27Z</time>
  <course>190.1</course>
  <speed>0.97</speed>
  <fix>3d</fix>
</trkpt>
<trkpt lat="33.8101192" lon="-118.3939087">
  <ele>-18.296</ele>
  <time>2026-09-02T22:08:27Z</time>
  <course>190.76</course>
  <speed>0.9472592042308166</speed>
  <fix>3d</fix>
</trkpt>
<trkpt lat="33.8101201" lon="-118.3939083">
  <ele>-17.67</ele>
  <time>2026-09-02T22:08:27Z</time>
  <course>190.1</course>
  <speed>0.97</speed>
  <fix>3d</fix>
</trkpt>
<trkpt lat="33.8101183" lon="-118.3939089">
  <ele>-18.374</ele>
  <time>2026-09-02T22:08:27Z</time>
  <course>190.8</course>
  <speed>0.9472592042308166</speed>
  <fix>3d</fix>
</trkpt>
<trkpt lat="33.8101201" lon="-118.3939083">
  <ele>-17.67</ele>
  <time>2026-09-02T22:08:27Z</time>
  <course>190.1</course>
  <speed>0.97</speed>
  <fix>3d</fix>
</trkpt>
<trkpt lat="33.8101174" lon="-118.3939091">
  <ele>-18.452</ele>
  <time>2026-09-02T22:08:27Z</time>
  <course>190.84</course>
  <speed>0.9472592042308166</speed>
  <fix>3d</fix>
</trkpt>
<trkpt lat="33.8101184" lon="-118.3939088">
  <ele>-17.82</ele>
  <time>2026-09-02T22:08:27Z</time>
  <course>190.17</course>
  <speed>0.97</speed>
  <fix>3d</fix>
</trkpt>
<trkpt lat="33.8101166" lon="-118.3939092">
  <ele>-18.531</ele>
  <time>2026-09-02T22:08:27Z</time>
  <course>190.88</course>
  <speed>0.9472592042308166</speed>
  <fix>3d</fix>
</trkpt>
<trkpt lat="33.8101184" lon="-118.3939088">
  <ele>-17.82</ele>
  <time>2026-09-02T22:08:27Z</time>
  <course>190.17</course>
  <speed>0.97</speed>
  <fix>3d</fix>
</trkpt>
<trkpt lat="33.8101157" lon="-118.3939094">
  <ele>-18.611</ele>
  <time>2026-09-02T22:08:27Z</time>
  <course>190.9</course>
  <speed>0.9472592042308166</speed>
  <fix>3d</fix>
</trkpt>
<trkpt lat="33.8101166" lon="-118.3939091">
  <ele>-17.98</ele>
  <time>2026-09-02T22:08:27Z</time>
  <course>190.23</course>
  <speed>0.97</speed>
  <fix>3d</fix>
</trkpt>
<trkpt lat="33.8101149" lon="-118.3939096">
  <ele>-18.691</ele>
  <time>2026-09-02T22:08:27Z</time>
  <course>190.92</course>
  <speed>0.9472592042308166</speed>
  <fix>3d</fix>
</trkpt>
<trkpt lat="33.8101166" lon="-118.3939091">
  <ele>-17.98</ele>
  <time>2026-09-02T22:08:27Z</time>
  <course>190.23</course>
  <speed>0.97</speed>
  <fix>3d</fix>
</trkpt>
<trkpt lat="33.810114" lon="-118.3939098">
  <ele>-18.771</ele>
  <time>2026-09-02T22:08:27Z</time>
  <course>190.94</course>
  <speed>0.9472592042308166</speed>
  <fix>3d</fix>
</trkpt>
<trkpt lat="33.8101149" lon="-118.3939095">
  <ele>-18.14</ele>
  <time>2026-09-02T22:08:27Z</time>
  <course>190.24</course>
  <speed>0.97</speed>
  <fix>3d</fix>
</trkpt>
<trkpt lat="33.8101131" lon="-118.39391">
  <ele>-18.852</ele>
  <time>2026-09-02T22:08:27Z</time>
  <course>190.96</course>
  <speed>0.9472592042308166</speed>
  <fix>3d</fix>
</trkpt>
<trkpt lat="33.8101149" lon="-118.3939095">
  <ele>-18.14</ele>
  <time>2026-09-02T22:08:27Z</time>
  <course>190.24</course>
  <speed>0.97</speed>
  <fix>3d</fix>
</trkpt>
<trkpt lat="33.8101123" lon="-118.3939102">
  <ele>-18.934</ele>
  <time>2026-09-02T22:08:27Z</time>
  <course>190.97</course>
  <speed>0.9472592042308166</speed>
  <fix>3d</fix>
</trkpt>
<trkpt lat="33.8101132" lon="-118.3939099">
  <ele>-18.3</ele>
  <time>2026-09-02T22:08:27Z</time>
  <course>190.26</course>
  <speed>0.97</speed>
  <fix>3d</fix>
</trkpt>
<trkpt lat="33.8101114" lon="-118.3939104">
  <ele>-19.017</ele>
  <time>2026-09-02T22:08:27Z</time>
  <course>190.98</course>
  <speed>0.9472592042308166</speed>
  <fix>3d</fix>
</trkpt>
<trkpt lat="33.8101132" lon="-118.3939099">
  <ele>-18.3</ele>
  <time>2026-09-02T22:08:27Z</time>
  <course>190.26</course>
  <speed>0.97</speed>
  <fix>3d</fix>
</trkpt>
<trkpt lat="33.8101105" lon="-118.3939105">
  <ele>-19.1</ele>
  <time>2026-09-02T22:08:27Z</time>
  <course>190.97</course>
  <speed>0.9472592042308166</speed>
  <fix>3d</fix>
</trkpt>
<trkpt lat="33.8101115" lon="-118.3939102">
  <ele>-18.46</ele>
  <time>2026-09-02T22:08:27Z</time>
  <course>190.26</course>
  <speed>0.97</speed>
  <fix>3d</fix>
</trkpt>
<trkpt lat="33.8101097" lon="-118.3939107">
  <ele>-19.183</ele>
  <time>2026-09-02T22:08:27Z</time>
  <course>190.98</course>
  <speed>0.9472592042308166</speed>
  <fix>3d</fix>
</trkpt>
<trkpt lat="33.8101115" lon="-118.3939102">
  <ele>-18.46</ele>
  <time>2026-09-02T22:08:27Z</time>
  <course>190.26</course>
  <speed>0.97</speed>
  <fix>3d</fix>
</trkpt>
<trkpt lat="33.8101088" lon="-118.3939109">
  <ele>-19.266</ele>
  <time>2026-09-02T22:08:27Z</time>
  <course>190.98</course>
  <speed>0.9570788891204319</speed>
  <fix>3d</fix>
</trkpt>
<trkpt lat="33.8101098" lon="-118.3939106">
  <ele>-18.63</ele>
  <time>2026-09-02T22:08:27Z</time>
  <course>190.26</course>
  <speed>0.97</speed>
  <fix>3d</fix>
</trkpt>
<trkpt lat="33.810108" lon="-118.3939111">
  <ele>-19.348</ele>
  <time>2026-09-02T22:08:27Z</time>
  <course>190.99</course>
  <speed>0.9570788891204319</speed>
  <fix>3d</fix>
</trkpt>
<trkpt lat="33.8101098" lon="-118.3939106">
  <ele>-18.63</ele>
  <time>2026-09-02T22:08:27Z</time>
  <course>190.26</course>
  <speed>0.97</speed>
  <fix>3d</fix>
</trkpt>
<trkpt lat="33.8101071" lon="-118.3939113">
  <ele>-19.43</ele>
  <time>2026-09-02T22:08:27Z</time>
  <course>190.99</course>
  <speed>0.9570788891204319</speed>
  <fix>3d</fix>
</trkpt>
<trkpt lat="33.810108" lon="-118.393911">
  <ele>-18.79</ele>
  <time>2026-09-02T22:08:27Z</time>
  <course>190.28</course>
  <speed>0.97</speed>
  <fix>3d</fix>
</trkpt>
<trkpt lat="33.8101062" lon="-118.3939115">
  <ele>-19.512</ele>
  <time>2026-09-02T22:08:27Z</time>
  <course>191.0</course>
  <speed>0.9570788891204319</speed>
  <fix>3d</fix>
</trkpt>
<trkpt lat="33.810108" lon="-118.393911">
  <ele>-18.79</ele>
  <time>2026-09-02T22:08:27Z</time>
  <course>190.28</course>
  <speed>0.97</speed>
  <fix>3d</fix>
</trkpt>
<trkpt lat="33.8101053" lon="-118.3939117">
  <ele>-19.593</ele>
  <time>2026-09-02T22:08:27Z</time>
  <course>191.0</course>
  <speed>0.9570788891204319</speed>
  <fix>3d</fix>
</trkpt>
<trkpt lat="33.8101063" lon="-118.3939114">
  <ele>-18.94</ele>
  <time>2026-09-02T22:08:27Z</time>
  <course>190.29</course>
  <speed>0.98</speed>
  <fix>3d</fix>
</trkpt>
<trkpt lat="33.8101045" lon="-118.3939119">
  <ele>-19.672</ele>
  <time>2026-09-02T22:08:27Z</time>
  <course>190.99</course>
  <speed>0.9570788891204319</speed>
  <fix>3d</fix>
</trkpt>
<trkpt lat="33.8101063" lon="-118.3939114">
  <ele>-18.94</ele>
  <time>2026-09-02T22:08:27Z</time>
  <course>190.29</course>
  <speed>0.98</speed>
  <fix>3d</fix>
</trkpt>
<trkpt lat="33.8101036" lon="-118.393912">
  <ele>-19.752</ele>
  <time>2026-09-02T22:08:27Z</time>
  <course>190.98</course>
  <speed>0.9570788891204319</speed>
  <fix>3d</fix>
</trkpt>
<trkpt lat="33.8101046" lon="-118.3939118">
  <ele>-19.1</ele>
  <time>2026-09-02T22:08:27Z</time>
  <course>190.27</course>
  <speed>0.98</speed>
  <fix>3d</fix>
</trkpt>
<trkpt lat="33.8101027" lon="-118.3939122">
  <ele>-19.833</ele>
  <time>2026-09-02T22:08:27Z</time>
  <course>190.95</course>
  <speed>0.9570788891204319</speed>
  <fix>3d</fix>
</trkpt>
<trkpt lat="33.8101046" lon="-118.3939118">
  <ele>-19.1</ele>
  <time>2026-09-02T22:08:27Z</time>
  <course>190.27</course>
  <speed>0.98</speed>
  <fix>3d</fix>
</trkpt>
<trkpt lat="33.8101019" lon="-118.3939124">
  <ele>-19.912</ele>
  <time>2026-09-02T22:08:27Z</time>
  <course>190.93</course>
  <speed>0.9570788891204319</speed>
  <fix>3d</fix>
</trkpt>
<trkpt lat="33.8101028" lon="-118.3939122">
  <ele>-19.25</ele>
  <time>2026-09-02T22:08:27Z</time>
  <course>190.23</course>
  <speed>0.98</speed>
  <fix>3d</fix>
</trkpt>
<trkpt lat="33.810101" lon="-118.3939126">
  <ele>-19.992</ele>
  <time>2026-09-02T22:08:27Z</time>
  <course>190.89</course>
  <speed>0.9570788891204319</speed>
  <fix>3d</fix>
</trkpt>
<trkpt lat="33.8101028" lon="-118.3939122">
  <ele>-19.25</ele>
  <time>2026-09-02T22:08:27Z</time>
  <course>190.23</course>
  <speed>0.98</speed>
  <fix>3d</fix>
</trkpt>
<trkpt lat="33.8101001" lon="-118.3939128">
  <ele>-20.073</ele>
  <time>2026-09-02T22:08:27Z</time>
  <course>190.85</course>
  <speed>0.9570788891204319</speed>
  <fix>3d</fix>
</trkpt>
<trkpt lat="33.8101011" lon="-118.3939125">
  <ele>-19.41</ele>
  <time>2026-09-02T22:08:27Z</time>
  <course>190.16</course>
  <speed>0.98</speed>
  <fix>3d</fix>
</trkpt>
<trkpt lat="33.8100993" lon="-118.393913">
  <ele>-20.155</ele>
  <time>2026-09-02T22:08:27Z</time>
  <course>190.83</course>
  <speed>0.9570788891204319</speed>
  <fix>3d</fix>
</trkpt>
<trkpt lat="33.8101011" lon="-118.3939125">
  <ele>-19.41</ele>
  <time>2026-09-02T22:08:27Z</time>
  <course>190.16</course>
  <speed>0.98</speed>
  <fix>3d</fix>
</trkpt>
<trkpt lat="33.8100984" lon="-118.3939132">
  <ele>-20.236</ele>
  <time>2026-09-02T22:08:27Z</time>
  <course>190.81</course>
  <speed>0.9570788891204319</speed>
  <fix>3d</fix>
</trkpt>
<trkpt lat="33.8100994" lon="-118.3939129">
  <ele>-19.57</ele>
  <time>2026-09-02T22:08:27Z</time>
  <course>190.13</course>
  <speed>0.98</speed>
  <fix>3d</fix>
</trkpt>
<trkpt lat="33.8100975" lon="-118.3939134">
  <ele>-20.317</ele>
  <time>2026-09-02T22:08:27Z</time>
  <course>190.8</course>
  <speed>0.9570788891204319</speed>
  <fix>3d</fix>
</trkpt>
<trkpt lat="33.8100994" lon="-118.3939129">
  <ele>-19.57</ele>
  <time>2026-09-02T22:08:27Z</time>
  <course>190.13</course>
  <speed>0.98</speed>
  <fix>3d</fix>
</trkpt>
<trkpt lat="33.8100966" lon="-118.3939136">
  <ele>-20.398</ele>
  <time>2026-09-02T22:08:27Z</time>
  <course>190.79</course>
  <speed>0.9570788891204319</speed>
  <fix>3d</fix>
</trkpt>
<trkpt lat="33.8100976" lon="-118.3939133">
  <ele>-19.73</ele>
  <time>2026-09-02T22:08:27Z</time>
  <course>190.14</course>
  <speed>0.98</speed>
  <fix>3d</fix>
</trkpt>
<trkpt lat="33.8100958" lon="-118.3939137">
  <ele>-20.48</ele>
  <time>2026-09-02T22:08:27Z</time>
  <course>190.79</course>
  <speed>0.9570788891204319</speed>
  <fix>3d</fix>
</trkpt>
<trkpt lat="33.8100976" lon="-118.3939133">
  <ele>-19.73</ele>
  <time>2026-09-02T22:08:27Z</time>
  <course>190.14</course>
  <speed>0.98</speed>
  <fix>3d</fix>
</trkpt>
<trkpt lat="33.8100949" lon="-118.3939139">
  <ele>-20.562</ele>
  <time>2026-09-02T22:08:27Z</time>
  <course>190.77</course>
  <speed>0.9570788891204319</speed>
  <fix>3d</fix>
</trkpt>
<trkpt lat="33.8100959" lon="-118.3939137">
  <ele>-19.89</ele>
  <time>2026-09-02T22:08:27Z</time>
  <course>190.13</course>
  <speed>0.98</speed>
  <fix>3d</fix>
</trkpt>
<trkpt lat="33.810094" lon="-118.3939141">
  <ele>-20.643</ele>
  <time>2026-09-02T22:08:27Z</time>
  <course>190.77</course>
  <speed>0.9570788891204319</speed>
  <fix>3d</fix>
</trkpt>
<trkpt lat="33.8100959" lon="-118.3939137">
  <ele>-19.89</ele>
  <time>2026-09-02T22:08:27Z</time>
  <course>190.13</course>
  <speed>0.98</speed>
  <fix>3d</fix>
</trkpt>
<trkpt lat="33.8100932" lon="-118.3939143">
  <ele>-20.725</ele>
  <time>2026-09-02T22:08:27Z</time>
  <course>190.75</course>
  <speed>0.9570788891204319</speed>
  <fix>3d</fix>
</trkpt>
<trkpt lat="33.8100941" lon="-118.393914">
  <ele>-20.05</ele>
  <time>2026-09-02T22:08:27Z</time>
  <course>190.1</course>
  <speed>0.98</speed>
  <fix>3d</fix>
</trkpt>
<trkpt lat="33.8100923" lon="-118.3939145">
  <ele>-20.807</ele>
  <time>2026-09-02T22:08:27Z</time>
  <course>190.73</course>
  <speed>0.9570788891204319</speed>
  <fix>3d</fix>
</trkpt>
<trkpt lat="33.8100941" lon="-118.393914">
  <ele>-20.05</ele>
  <time>2026-09-02T22:08:27Z</time>
  <course>190.1</course>
  <speed>0.98</speed>
  <fix>3d</fix>
</trkpt>
<trkpt lat="33.8100914" lon="-118.3939147">
  <ele>-20.889</ele>
  <time>2026-09-02T22:08:27Z</time>
  <course>190.73</course>
  <speed>0.9570788891204319</speed>
  <fix>3d</fix>
</trkpt>
<trkpt lat="33.8100924" lon="-118.3939144">
  <ele>-20.21</ele>
  <time>2026-09-02T22:08:27Z</time>
  <course>190.08</course>
  <speed>0.98</speed>
  <fix>3d</fix>
</trkpt>
<trkpt lat="33.8100905" lon="-118.3939149">
  <ele>-20.97</ele>
  <time>2026-09-02T22:08:27Z</time>
  <course>190.75</course>
  <speed>0.9570788891204319</speed>
  <fix>3d</fix>
</trkpt>
<trkpt lat="33.8100924" lon="-118.3939144">
  <ele>-20.21</ele>
  <time>2026-09-02T22:08:27Z</time>
  <course>190.08</course>
  <speed>0.98</speed>
  <fix>3d</fix>
</trkpt>
<trkpt lat="33.8100897" lon="-118.3939151">
  <ele>-21.05</ele>
  <time>2026-09-02T22:08:27Z</time>
  <course>190.75</course>
  <speed>0.9570788891204319</speed>
  <fix>3d</fix>
</trkpt>
<trkpt lat="33.8100907" lon="-118.3939148">
  <ele>-20.37</ele>
  <time>2026-09-02T22:08:27Z</time>
  <course>190.09</course>
  <speed>0.98</speed>
  <fix>3d</fix>
</trkpt>
<trkpt lat="33.8100888" lon="-118.3939152">
  <ele>-21.131</ele>
  <time>2026-09-02T22:08:27Z</time>
  <course>190.76</course>
  <speed>0.9570788891204319</speed>
  <fix>3d</fix>
</trkpt>
<trkpt lat="33.8100907" lon="-118.3939148">
  <ele>-20.37</ele>
  <time>2026-09-02T22:08:27Z</time>
  <course>190.09</course>
  <speed>0.98</speed>
  <fix>3d</fix>
</trkpt>
<trkpt lat="33.8100879" lon="-118.3939154">
  <ele>-21.213</ele>
  <time>2026-09-02T22:08:27Z</time>
  <course>190.76</course>
  <speed>0.9570788891204319</speed>
  <fix>3d</fix>
</trkpt>
<trkpt lat="33.8100889" lon="-118.3939151">
  <ele>-20.53</ele>
  <time>2026-09-02T22:08:27Z</time>
  <course>190.08</course>
  <speed>0.98</speed>
  <fix>3d</fix>
</trkpt>
<trkpt lat="33.8100871" lon="-118.3939156">
  <ele>-21.296</ele>
  <time>2026-09-02T22:08:27Z</time>
  <course>190.76</course>
  <speed>0.9570788891204319</speed>
  <fix>3d</fix>
</trkpt>
<trkpt lat="33.8100889" lon="-118.3939151">
  <ele>-20.53</ele>
  <time>2026-09-02T22:08:27Z</time>
  <course>190.08</course>
  <speed>0.98</speed>
  <fix>3d</fix>
</trkpt>
<trkpt lat="33.8100862" lon="-118.3939158">
  <ele>-21.38</ele>
  <time>2026-09-02T22:08:27Z</time>
  <course>190.77</course>
  <speed>0.966902270139025</speed>
  <fix>3d</fix>
</trkpt>
<trkpt lat="33.8100872" lon="-118.3939155">
  <ele>-20.69</ele>
  <time>2026-09-02T22:08:27Z</time>
  <course>190.09</course>
  <speed>0.98</speed>
  <fix>3d</fix>
</trkpt>
<trkpt lat="33.8100853" lon="-118.393916">
  <ele>-21.463</ele>
  <time>2026-09-02T22:08:27Z</time>
  <course>190.79</course>
  <speed>0.966902270139025</speed>
  <fix>3d</fix>
</trkpt>
<trkpt lat="33.8100872" lon="-118.3939155">
  <ele>-20.69</ele>
  <time>2026-09-02T22:08:27Z</time>
  <course>190.09</course>
  <speed>0.98</speed>
  <fix>3d</fix>
</trkpt>
<trkpt lat="33.8100844" lon="-118.3939162">
  <ele>-21.546</ele>
  <time>2026-09-02T22:08:27Z</time>
  <course>190.81</course>
  <speed>0.966902270139025</speed>
  <fix>3d</fix>
</trkpt>
<trkpt lat="33.8100854" lon="-118.3939159">
  <ele>-20.85</ele>
  <time>2026-09-02T22:08:27Z</time>
  <course>190.12</course>
  <speed>0.98</speed>
  <fix>3d</fix>
</trkpt>
<trkpt lat="33.8100836" lon="-118.3939164">
  <ele>-21.629</ele>
  <time>2026-09-02T22:08:27Z</time>
  <course>190.84</course>
  <speed>0.966902270139025</speed>
  <fix>3d</fix>
</trkpt>
<trkpt lat="33.8100854" lon="-118.3939159">
  <ele>-20.85</ele>
  <time>2026-09-02T22:08:27Z</time>
  <course>190.12</course>
  <speed>0.98</speed>
  <fix>3d</fix>
</trkpt>
<trkpt lat="33.8100827" lon="-118.3939166">
  <ele>-21.713</ele>
  <time>2026-09-02T22:08:27Z</time>
  <course>190.85</course>
  <speed>0.966902270139025</speed>
  <fix>3d</fix>
</trkpt>
<trkpt lat="33.8100836" lon="-118.3939163">
  <ele>-21.01</ele>
  <time>2026-09-02T22:08:27Z</time>
  <course>190.13</course>
  <speed>0.99</speed>
  <fix>3d</fix>
</trkpt>
<trkpt lat="33.8100818" lon="-118.3939168">
  <ele>-21.796</ele>
  <time>2026-09-02T22:08:27Z</time>
  <course>190.85</course>
  <speed>0.966902270139025</speed>
  <fix>3d</fix>
</trkpt>
<trkpt lat="33.8100836" lon="-118.3939163">
  <ele>-21.01</ele>
  <time>2026-09-02T22:08:27Z</time>
  <course>190.13</course>
  <speed>0.99</speed>
  <fix>3d</fix>
</trkpt>
<trkpt lat="33.8100809" lon="-118.3939169">
  <ele>-21.879</ele>
  <time>2026-09-02T22:08:27Z</time>
  <course>190.85</course>
  <speed>0.966902270139025</speed>
  <fix>3d</fix>
</trkpt>
<trkpt lat="33.8100819" lon="-118.3939167">
  <ele>-21.17</ele>
  <time>2026-09-02T22:08:27Z</time>
  <course>190.13</course>
  <speed>0.99</speed>
  <fix>3d</fix>
</trkpt>
<trkpt lat="33.81008" lon="-118.3939171">
  <ele>-21.96</ele>
  <time>2026-09-02T22:08:27Z</time>
  <course>190.85</course>
  <speed>0.966902270139025</speed>
  <fix>3d</fix>
</trkpt>
<trkpt lat="33.8100819" lon="-118.3939167">
  <ele>-21.17</ele>
  <time>2026-09-02T22:08:27Z</time>
  <course>190.13</course>
  <speed>0.99</speed>
  <fix>3d</fix>
</trkpt>
<trkpt lat="33.8100791" lon="-118.3939173">
  <ele>-22.041</ele>
  <time>2026-09-02T22:08:27Z</time>
  <course>190.84</course>
  <speed>0.966902270139025</speed>
  <fix>3d</fix>
</trkpt>
<trkpt lat="33.8100802" lon="-118.393917">
  <ele>-21.33</ele>
  <time>2026-09-02T22:08:27Z</time>
  <course>190.11</course>
  <speed>0.99</speed>
  <fix>3d</fix>
</trkpt>
<trkpt lat="33.8100783" lon="-118.3939175">
  <ele>-22.123</ele>
  <time>2026-09-02T22:08:27Z</time>
  <course>190.83</course>
  <speed>0.966902270139025</speed>
  <fix>3d</fix>
</trkpt>
<trkpt lat="33.8100802" lon="-118.393917">
  <ele>-21.33</ele>
  <time>2026-09-02T22:08:27Z</time>
  <course>190.11</course>
  <speed>0.99</speed>
  <fix>3d</fix>
</trkpt>
<trkpt lat="33.8100774" lon="-118.3939177">
  <ele>-22.203</ele>
  <time>2026-09-02T22:08:27Z</time>
  <course>190.83</course>
  <speed>0.966902270139025</speed>
  <fix>3d</fix>
</trkpt>
<trkpt lat="33.8100784" lon="-118.3939174">
  <ele>-21.48</ele>
  <time>2026-09-02T22:08:27Z</time>
  <course>190.09</course>
  <speed>0.99</speed>
  <fix>3d</fix>
</trkpt>
<trkpt lat="33.8100765" lon="-118.3939179">
  <ele>-22.282</ele>
  <time>2026-09-02T22:08:27Z</time>
  <course>190.84</course>
  <speed>0.966902270139025</speed>
  <fix>3d</fix>
</trkpt>
<trkpt lat="33.8100784" lon="-118.3939174">
  <ele>-21.48</ele>
  <time>2026-09-02T22:08:27Z</time>
  <course>190.09</course>
  <speed>0.99</speed>
  <fix>3d</fix>
</trkpt>
<trkpt lat="33.8100756" lon="-118.3939181">
  <ele>-22.362</ele>
  <time>2026-09-02T22:08:27Z</time>
  <course>190.85</course>
  <speed>0.966902270139025</speed>
  <fix>3d</fix>
</trkpt>
<trkpt lat="33.8100766" lon="-118.3939178">
  <ele>-21.64</ele>
  <time>2026-09-02T22:08:27Z</time>
  <course>190.11</course>
  <speed>0.99</speed>
  <fix>3d</fix>
</trkpt>
<trkpt lat="33.8100747" lon="-118.3939183">
  <ele>-22.442</ele>
  <time>2026-09-02T22:08:27Z</time>
  <course>190.86</course>
  <speed>0.966902270139025</speed>
  <fix>3d</fix>
</trkpt>
<trkpt lat="33.8100766" lon="-118.3939178">
  <ele>-21.64</ele>
  <time>2026-09-02T22:08:27Z</time>
  <course>190.11</course>
  <speed>0.99</speed>
  <fix>3d</fix>
</trkpt>
<trkpt lat="33.8100739" lon="-118.3939185">
  <ele>-22.524</ele>
  <time>2026-09-02T22:08:27Z</time>
  <course>190.87</course>
  <speed>0.966902270139025</speed>
  <fix>3d</fix>
</trkpt>
<trkpt lat="33.8100749" lon="-118.3939182">
  <ele>-21.8</ele>
  <time>2026-09-02T22:08:27Z</time>
  <course>190.12</course>
  <speed>0.99</speed>
  <fix>3d</fix>
</trkpt>
<trkpt lat="33.810073" lon="-118.3939187">
  <ele>-22.606</ele>
  <time>2026-09-02T22:08:27Z</time>
  <course>190.88</course>
  <speed>0.966902270139025</speed>
  <fix>3d</fix>
</trkpt>
<trkpt lat="33.8100749" lon="-118.3939182">
  <ele>-21.8</ele>
  <time>2026-09-02T22:08:27Z</time>
  <course>190.12</course>
  <speed>0.99</speed>
  <fix>3d</fix>
</trkpt>
<trkpt lat="33.8100721" lon="-118.3939188">
  <ele>-22.689</ele>
  <time>2026-09-02T22:08:27Z</time>
  <course>190.86</course>
  <speed>0.966902270139025</speed>
  <fix>3d</fix>
</trkpt>
<trkpt lat="33.8100732" lon="-118.3939185">
  <ele>-21.96</ele>
  <time>2026-09-02T22:08:27Z</time>
  <course>190.11</course>
  <speed>0.99</speed>
  <fix>3d</fix>
</trkpt>
<trkpt lat="33.8100712" lon="-118.393919">
  <ele>-22.772</ele>
  <time>2026-09-02T22:08:27Z</time>
  <course>190.85</course>
  <speed>0.966902270139025</speed>
  <fix>3d</fix>
</trkpt>
<trkpt lat="33.8100732" lon="-118.3939185">
  <ele>-21.96</ele>
  <time>2026-09-02T22:08:27Z</time>
  <course>190.11</course>
  <speed>0.99</speed>
  <fix>3d</fix>
</trkpt>
<trkpt lat="33.8100704" lon="-118.3939192">
  <ele>-22.855</ele>
  <time>2026-09-02T22:08:27Z</time>
  <course>190.85</course>
  <speed>0.966902270139025</speed>
  <fix>3d</fix>
</trkpt>
<trkpt lat="33.8100714" lon="-118.3939189">
  <ele>-22.12</ele>
  <time>2026-09-02T22:08:27Z</time>
  <course>190.11</course>
  <speed>0.99</speed>
  <fix>3d</fix>
</trkpt>
<trkpt lat="33.8100695" lon="-118.3939194">
  <ele>-22.936</ele>
  <time>2026-09-02T22:08:27Z</time>
  <course>190.87</course>
  <speed>0.966902270139025</speed>
  <fix>3d</fix>
</trkpt>
<trkpt lat="33.8100714" lon="-118.3939189">
  <ele>-22.12</ele>
  <time>2026-09-02T22:08:27Z</time>
  <course>190.11</course>
  <speed>0.99</speed>
  <fix>3d</fix>
</trkpt>
<trkpt lat="33.8100686" lon="-118.3939196">
  <ele>-23.018</ele>
  <time>2026-09-02T22:08:27Z</time>
  <course>190.88</course>
  <speed>0.966902270139025</speed>
  <fix>3d</fix>
</trkpt>
<trkpt lat="33.8100697" lon="-118.3939193">
  <ele>-22.28</ele>
  <time>2026-09-02T22:08:27Z</time>
  <course>190.12</course>
  <speed>0.99</speed>
  <fix>3d</fix>
</trkpt>
<trkpt lat="33.8100677" lon="-118.3939198">
  <ele>-23.1</ele>
  <time>2026-09-02T22:08:27Z</time>
  <course>190.89</course>
  <speed>0.966902270139025</speed>
  <fix>3d</fix>
</trkpt>
<trkpt lat="33.8100697" lon="-118.3939193">
  <ele>-22.28</ele>
  <time>2026-09-02T22:08:27Z</time>
  <course>190.12</course>
  <speed>0.99</speed>
  <fix>3d</fix>
</trkpt>
<trkpt lat="33.8100669" lon="-118.39392">
  <ele>-23.182</ele>
  <time>2026-09-02T22:08:27Z</time>
  <course>190.89</course>
  <speed>0.966902270139025</speed>
  <fix>3d</fix>
</trkpt>
<trkpt lat="33.8100678" lon="-118.3939197">
  <ele>-22.44</ele>
  <time>2026-09-02T22:08:27Z</time>
  <course>190.13</course>
  <speed>0.99</speed>
  <fix>3d</fix>
</trkpt>
<trkpt lat="33.810066" lon="-118.3939202">
  <ele>-23.266</ele>
  <time>2026-09-02T22:08:27Z</time>
  <course>190.9</course>
  <speed>0.966902270139025</speed>
  <fix>3d</fix>
</trkpt>
<trkpt lat="33.8100678" lon="-118.3939197">
  <ele>-22.44</ele>
  <time>2026-09-02T22:08:27Z</time>
  <course>190.13</course>
  <speed>0.99</speed>
  <fix>3d</fix>
</trkpt>
<trkpt lat="33.8100651" lon="-118.3939204">
  <ele>-23.349</ele>
  <time>2026-09-02T22:08:27Z</time>
  <course>190.9</course>
  <speed>0.966902270139025</speed>
  <fix>3d</fix>
</trkpt>
<trkpt lat="33.8100661" lon="-118.39392">
  <ele>-22.6</ele>
  <time>2026-09-02T22:08:27Z</time>
  <course>190.11</course>
  <speed>0.99</speed>
  <fix>3d</fix>
</trkpt>
<trkpt lat="33.8100642" lon="-118.3939205">
  <ele>-23.431</ele>
  <time>2026-09-02T22:08:27Z</time>
  <course>190.91</course>
  <speed>0.966902270139025</speed>
  <fix>3d</fix>
</trkpt>
<trkpt lat="33.8100661" lon="-118.39392">
  <ele>-22.6</ele>
  <time>2026-09-02T22:08:27Z</time>
  <course>190.11</course>
  <speed>0.99</speed>
  <fix>3d</fix>
</trkpt>
<trkpt lat="33.8100633" lon="-118.3939207">
  <ele>-23.512</ele>
  <time>2026-09-02T22:08:27Z</time>
  <course>190.92</course>
  <speed>0.966902270139025</speed>
  <fix>3d</fix>
</trkpt>
<trkpt lat="33.8100644" lon="-118.3939204">
  <ele>-22.76</ele>
  <time>2026-09-02T22:08:27Z</time>
  <course>190.13</course>
  <speed>0.99</speed>
  <fix>3d</fix>
</trkpt>
<trkpt lat="33.8100625" lon="-118.3939209">
  <ele>-23.594</ele>
  <time>2026-09-02T22:08:27Z</time>
  <course>190.94</course>
  <speed>0.966902270139025</speed>
  <fix>3d</fix>
</trkpt>
<trkpt lat="33.8100644" lon="-118.3939204">
  <ele>-22.76</ele>
  <time>2026-09-02T22:08:27Z</time>
  <course>190.13</course>
  <speed>0.99</speed>
  <fix>3d</fix>
</trkpt>
<trkpt lat="33.8100616" lon="-118.3939211">
  <ele>-23.676</ele>
  <time>2026-09-02T22:08:27Z</time>
  <course>190.96</course>
  <speed>0.966902270139025</speed>
  <fix>3d</fix>
</trkpt>
<trkpt lat="33.8100625" lon="-118.3939208">
  <ele>-22.92</ele>
  <time>2026-09-02T22:08:27Z</time>
  <course>190.16</course>
  <speed>0.99</speed>
  <fix>3d</fix>
</trkpt>
<trkpt lat="33.8100607" lon="-118.3939213">
  <ele>-23.759</ele>
  <time>2026-09-02T22:08:28Z</time>
  <course>190.98</course>
  <speed>0.966902270139025</speed>
  <fix>3d</fix>
</trkpt>
<trkpt lat="33.8100625" lon="-118.3939208">
  <ele>-22.92</ele>
  <time>2026-09-02T22:08:28Z</time>
  <course>190.16</course>
  <speed>0.99</speed>
  <fix>3d</fix>
</trkpt>
<trkpt lat="33.8100598" lon="-118.3939215">
  <ele>-23.842</ele>
  <time>2026-09-02T22:08:28Z</time>
  <course>190.99</course>
  <speed>0.966902270139025</speed>
  <fix>3d</fix>
</trkpt>
<trkpt lat="33.8100608" lon="-118.3939212">
  <ele>-23.08</ele>
  <time>2026-09-02T22:08:28Z</time>
  <course>190.18</course>
  <speed>0.99</speed>
  <fix>3d</fix>
</trkpt>
<trkpt lat="33.8100589" lon="-118.3939217">
  <ele>-23.924</ele>
  <time>2026-09-02T22:08:28Z</time>
  <course>191.0</course>
  <speed>0.966902270139025</speed>
  <fix>3d</fix>
</trkpt>
<trkpt lat="33.8100608" lon="-118.3939212">
  <ele>-23.08</ele>
  <time>2026-09-02T22:08:28Z</time>
  <course>190.18</course>
  <speed>0.99</speed>
  <fix>3d</fix>
</trkpt>
<trkpt lat="33.810058" lon="-118.3939219">
  <ele>-24.007</ele>
  <time>2026-09-02T22:08:28Z</time>
  <course>191.01</course>
  <speed>0.966902270139025</speed>
  <fix>3d</fix>
</trkpt>
<trkpt lat="33.8100591" lon="-118.3939216">
  <ele>-23.24</ele>
  <time>2026-09-02T22:08:28Z</time>
  <course>190.19</course>
  <speed>0.99</speed>
  <fix>3d</fix>
</trkpt>
<trkpt lat="33.8100572" lon="-118.3939221">
  <ele>-24.09</ele>
  <time>2026-09-02T22:08:28Z</time>
  <course>191.01</course>
  <speed>0.966902270139025</speed>
  <fix>3d</fix>
</trkpt>
<trkpt lat="33.8100591" lon="-118.3939216">
  <ele>-23.24</ele>
  <time>2026-09-02T22:08:28Z</time>
  <course>190.19</course>
  <speed>0.99</speed>
  <fix>3d</fix>
</trkpt>
<trkpt lat="33.8100563" lon="-118.3939223">
  <ele>-24.174</ele>
  <time>2026-09-02T22:08:28Z</time>
  <course>191.0</course>
  <speed>0.966902270139025</speed>
  <fix>3d</fix>
</trkpt>
<trkpt lat="33.8100573" lon="-118.3939219">
  <ele>-23.4</ele>
  <time>2026-09-02T22:08:28Z</time>
  <course>190.15</course>
  <speed>0.99</speed>
  <fix>3d</fix>
</trkpt>
<trkpt lat="33.8100554" lon="-118.3939224">
  <ele>-24.256</ele>
  <time>2026-09-02T22:08:28Z</time>
  <course>190.99</course>
  <speed>0.966902270139025</speed>
  <fix>3d</fix>
</trkpt>
<trkpt lat="33.8100573" lon="-118.3939219">
  <ele>-23.4</ele>
  <time>2026-09-02T22:08:28Z</time>
  <course>190.15</course>
  <speed>0.99</speed>
  <fix>3d</fix>
</trkpt>
<trkpt lat="33.8100545" lon="-118.3939226">
  <ele>-24.337</ele>
  <time>2026-09-02T22:08:28Z</time>
  <course>190.99</course>
  <speed>0.966902270139025</speed>
  <fix>3d</fix>
</trkpt>
<trkpt lat="33.8100556" lon="-118.3939222">
  <ele>-23.57</ele>
  <time>2026-09-02T22:08:28Z</time>
  <course>190.14</course>
  <speed>0.99</speed>
  <fix>3d</fix>
</trkpt>
<trkpt lat="33.8100536" lon="-118.3939228">
  <ele>-24.419</ele>
  <time>2026-09-02T22:08:28Z</time>
  <course>191.01</course>
  <speed>0.966902270139025</speed>
  <fix>3d</fix>
</trkpt>
<trkpt lat="33.8100556" lon="-118.3939222">
  <ele>-23.57</ele>
  <time>2026-09-02T22:08:28Z</time>
  <course>190.14</course>
  <speed>0.99</speed>
  <fix>3d</fix>
</trkpt>
<trkpt lat="33.8100528" lon="-118.393923">
  <ele>-24.5</ele>
  <time>2026-09-02T22:08:28Z</time>
  <course>191.05</course>
  <speed>0.966902270139025</speed>
  <fix>3d</fix>
</trkpt>
<trkpt lat="33.8100538" lon="-118.3939227">
  <ele>-23.73</ele>
  <time>2026-09-02T22:08:28Z</time>
  <course>190.2</course>
  <speed>0.99</speed>
  <fix>3d</fix>
</trkpt>
<trkpt lat="33.8100519" lon="-118.3939232">
  <ele>-24.581</ele>
  <time>2026-09-02T22:08:28Z</time>
  <course>191.08</course>
  <speed>0.966902270139025</speed>
  <fix>3d</fix>
</trkpt>
<trkpt lat="33.8100538" lon="-118.3939227">
  <ele>-23.73</ele>
  <time>2026-09-02T22:08:28Z</time>
  <course>190.2</course>
  <speed>0.99</speed>
  <fix>3d</fix>
</trkpt>
<trkpt lat="33.810051" lon="-118.3939234">
  <ele>-24.664</ele>
  <time>2026-09-02T22:08:28Z</time>
  <course>191.1</course>
  <speed>0.966902270139025</speed>
  <fix>3d</fix>
</trkpt>
<trkpt lat="33.810052" lon="-118.3939231">
  <ele>-23.89</ele>
  <time>2026-09-02T22:08:28Z</time>
  <course>190.26</course>
  <speed>0.99</speed>
  <fix>3d</fix>
</trkpt>
<trkpt lat="33.8100501" lon="-118.3939236">
  <ele>-24.748</ele>
  <time>2026-09-02T22:08:28Z</time>
  <course>191.11</course>
  <speed>0.966902270139025</speed>
  <fix>3d</fix>
</trkpt>
<trkpt lat="33.810052" lon="-118.3939231">
  <ele>-23.89</ele>
  <time>2026-09-02T22:08:28Z</time>
  <course>190.26</course>
  <speed>0.99</speed>
  <fix>3d</fix>
</trkpt>
<trkpt lat="33.8100492" lon="-118.3939238">
  <ele>-24.832</ele>
  <time>2026-09-02T22:08:28Z</time>
  <course>191.09</course>
  <speed>0.9767292357659824</speed>
  <fix>3d</fix>
</trkpt>
<trkpt lat="33.8100503" lon="-118.3939235">
  <ele>-24.05</ele>
  <time>2026-09-02T22:08:28Z</time>
  <course>190.25</course>
  <speed>0.99</speed>
  <fix>3d</fix>
</trkpt>
<trkpt lat="33.8100483" lon="-118.393924">
  <ele>-24.916</ele>
  <time>2026-09-02T22:08:28Z</time>
  <course>191.09</course>
  <speed>0.9767292357659824</speed>
  <fix>3d</fix>
</trkpt>
<trkpt lat="33.8100503" lon="-118.3939235">
  <ele>-24.05</ele>
  <time>2026-09-02T22:08:28Z</time>
  <course>190.25</course>
  <speed>0.99</speed>
  <fix>3d</fix>
</trkpt>
<trkpt lat="33.8100475" lon="-118.3939242">
  <ele>-25.0</ele>
  <time>2026-09-02T22:08:28Z</time>
  <course>191.06</course>
  <speed>0.9767292357659824</speed>
  <fix>3d</fix>
</trkpt>
<trkpt lat="33.8100484" lon="-118.3939239">
  <ele>-24.22</ele>
  <time>2026-09-02T22:08:28Z</time>
  <course>190.2</course>
  <speed>0.99</speed>
  <fix>3d</fix>
</trkpt>
<trkpt lat="33.8100466" lon="-118.3939243">
  <ele>-25.084</ele>
  <time>2026-09-02T22:08:28Z</time>
  <course>191.03</course>
  <speed>0.9767292357659824</speed>
  <fix>3d</fix>
</trkpt>
<trkpt lat="33.8100484" lon="-118.3939239">
  <ele>-24.22</ele>
  <time>2026-09-02T22:08:28Z</time>
  <course>190.2</course>
  <speed>0.99</speed>
  <fix>3d</fix>
</trkpt>
<trkpt lat="33.8100457" lon="-118.3939245">
  <ele>-25.169</ele>
  <time>2026-09-02T22:08:28Z</time>
  <course>190.99</course>
  <speed>0.9767292357659824</speed>
  <fix>3d</fix>
</trkpt>
<trkpt lat="33.8100467" lon="-118.3939242">
  <ele>-24.38</ele>
  <time>2026-09-02T22:08:28Z</time>
  <course>190.14</course>
  <speed>1.0</speed>
  <fix>3d</fix>
</trkpt>
<trkpt lat="33.8100448" lon="-118.3939247">
  <ele>-25.255</ele>
  <time>2026-09-02T22:08:28Z</time>
  <course>190.97</course>
  <speed>0.9767292357659824</speed>
  <fix>3d</fix>
</trkpt>
<trkpt lat="33.8100467" lon="-118.3939242">
  <ele>-24.38</ele>
  <time>2026-09-02T22:08:28Z</time>
  <course>190.14</course>
  <speed>1.0</speed>
  <fix>3d</fix>
</trkpt>
<trkpt lat="33.8100439" lon="-118.3939249">
  <ele>-25.339</ele>
  <time>2026-09-02T22:08:28Z</time>
  <course>190.96</course>
  <speed>0.9767292357659824</speed>
  <fix>3d</fix>
</trkpt>
<trkpt lat="33.810045" lon="-118.3939246">
  <ele>-24.54</ele>
  <time>2026-09-02T22:08:28Z</time>
  <course>190.12</course>
  <speed>1.0</speed>
  <fix>3d</fix>
</trkpt>
<trkpt lat="33.810043" lon="-118.3939251">
  <ele>-25.422</ele>
  <time>2026-09-02T22:08:28Z</time>
  <course>190.97</course>
  <speed>0.9767292357659824</speed>
  <fix>3d</fix>
</trkpt>
<trkpt lat="33.810045" lon="-118.3939246">
  <ele>-24.54</ele>
  <time>2026-09-02T22:08:28Z</time>
  <course>190.12</course>
  <speed>1.0</speed>
  <fix>3d</fix>
</trkpt>
<trkpt lat="33.8100422" lon="-118.3939253">
  <ele>-25.505</ele>
  <time>2026-09-02T22:08:28Z</time>
  <course>190.97</course>
  <speed>0.9865596788841515</speed>
  <fix>3d</fix>
</trkpt>
<trkpt lat="33.8100431" lon="-118.393925">
  <ele>-24.7</ele>
  <time>2026-09-02T22:08:28Z</time>
  <course>190.14</course>
  <speed>1.0</speed>
  <fix>3d</fix>
</trkpt>
<trkpt lat="33.8100413" lon="-118.3939255">
  <ele>-25.587</ele>
  <time>2026-09-02T22:08:28Z</time>
  <course>190.98</course>
  <speed>0.9865596788841515</speed>
  <fix>3d</fix>
</trkpt>
<trkpt lat="33.8100431" lon="-118.393925">
  <ele>-24.7</ele>
  <time>2026-09-02T22:08:28Z</time>
  <course>190.14</course>
  <speed>1.0</speed>
  <fix>3d</fix>
</trkpt>
<trkpt lat="33.8100404" lon="-118.3939257">
  <ele>-25.669</ele>
  <time>2026-09-02T22:08:28Z</time>
  <course>190.99</course>
  <speed>0.9865596788841515</speed>
  <fix>3d</fix>
</trkpt>
<trkpt lat="33.8100414" lon="-118.3939254">
  <ele>-24.86</ele>
  <time>2026-09-02T22:08:28Z</time>
  <course>190.16</course>
  <speed>1.01</speed>
  <fix>3d</fix>
</trkpt>
<trkpt lat="33.8100395" lon="-118.3939259">
  <ele>-25.751</ele>
  <time>2026-09-02T22:08:28Z</time>
  <course>190.99</course>
  <speed>0.9767292357659824</speed>
  <fix>3d</fix>
</trkpt>
<trkpt lat="33.8100414" lon="-118.3939254">
  <ele>-24.86</ele>
  <time>2026-09-02T22:08:28Z</time>
  <course>190.16</course>
  <speed>1.01</speed>
  <fix>3d</fix>
</trkpt>
<trkpt lat="33.8100386" lon="-118.3939261">
  <ele>-25.833</ele>
  <time>2026-09-02T22:08:28Z</time>
  <course>190.99</course>
  <speed>0.9767292357659824</speed>
  <fix>3d</fix>
</trkpt>
<trkpt lat="33.8100395" lon="-118.3939258">
  <ele>-25.01</ele>
  <time>2026-09-02T22:08:28Z</time>
  <course>190.15</course>
  <speed>1.01</speed>
  <fix>3d</fix>
</trkpt>
<trkpt lat="33.8100377" lon="-118.3939263">
  <ele>-25.914</ele>
  <time>2026-09-02T22:08:28Z</time>
  <course>190.98</course>
  <speed>0.9767292357659824</speed>
  <fix>3d</fix>
</trkpt>
<trkpt lat="33.8100395" lon="-118.3939258">
  <ele>-25.01</ele>
  <time>2026-09-02T22:08:28Z</time>
  <course>190.15</course>
  <speed>1.01</speed>
  <fix>3d</fix>
</trkpt>
<trkpt lat="33.8100368" lon="-118.3939265">
  <ele>-25.994</ele>
  <time>2026-09-02T22:08:28Z</time>
  <course>190.97</course>
  <speed>0.9767292357659824</speed>
  <fix>3d</fix>
</trkpt>
<trkpt lat="33.8100378" lon="-118.3939262">
  <ele>-25.17</ele>
  <time>2026-09-02T22:08:28Z</time>
  <course>190.14</course>
  <speed>1.0</speed>
  <fix>3d</fix>
</trkpt>
<trkpt lat="33.8100359" lon="-118.3939267">
  <ele>-26.075</ele>
  <time>2026-09-02T22:08:28Z</time>
  <course>190.97</course>
  <speed>0.9767292357659824</speed>
  <fix>3d</fix>
</trkpt>
<trkpt lat="33.8100378" lon="-118.3939262">
  <ele>-25.17</ele>
  <time>2026-09-02T22:08:28Z</time>
  <course>190.14</course>
  <speed>1.0</speed>
  <fix>3d</fix>
</trkpt>
<trkpt lat="33.810035" lon="-118.3939268">
  <ele>-26.156</ele>
  <time>2026-09-02T22:08:28Z</time>
  <course>190.95</course>
  <speed>0.9767292357659824</speed>
  <fix>3d</fix>
</trkpt>
<trkpt lat="33.8100361" lon="-118.3939265">
  <ele>-25.32</ele>
  <time>2026-09-02T22:08:28Z</time>
  <course>190.12</course>
  <speed>1.0</speed>
  <fix>3d</fix>
</trkpt>
<trkpt lat="33.8100342" lon="-118.393927">
  <ele>-26.237</ele>
  <time>2026-09-02T22:08:28Z</time>
  <course>190.95</course>
  <speed>0.9767292357659824</speed>
  <fix>3d</fix>
</trkpt>
<trkpt lat="33.8100361" lon="-118.3939265">
  <ele>-25.32</ele>
  <time>2026-09-02T22:08:28Z</time>
  <course>190.12</course>
  <speed>1.0</speed>
  <fix>3d</fix>
</trkpt>
<trkpt lat="33.8100333" lon="-118.3939272">
  <ele>-26.319</ele>
  <time>2026-09-02T22:08:28Z</time>
  <course>190.94</course>
  <speed>0.9767292357659824</speed>
  <fix>3d</fix>
</trkpt>
<trkpt lat="33.8100343" lon="-118.3939269">
  <ele>-25.48</ele>
  <time>2026-09-02T22:08:28Z</time>
  <course>190.1</course>
  <speed>1.0</speed>
  <fix>3d</fix>
</trkpt>
<trkpt lat="33.8100324" lon="-118.3939274">
  <ele>-26.4</ele>
  <time>2026-09-02T22:08:28Z</time>
  <course>190.94</course>
  <speed>0.9767292357659824</speed>
  <fix>3d</fix>
</trkpt>
<trkpt lat="33.8100343" lon="-118.3939269">
  <ele>-25.48</ele>
  <time>2026-09-02T22:08:28Z</time>
  <course>190.1</course>
  <speed>1.0</speed>
  <fix>3d</fix>
</trkpt>
<trkpt lat="33.8100315" lon="-118.3939276">
  <ele>-26.481</ele>
  <time>2026-09-02T22:08:28Z</time>
  <course>190.96</course>
  <speed>0.9767292357659824</speed>
  <fix>3d</fix>
</trkpt>
<trkpt lat="33.8100325" lon="-118.3939273">
  <ele>-25.64</ele>
  <time>2026-09-02T22:08:28Z</time>
  <course>190.12</course>
  <speed>1.0</speed>
  <fix>3d</fix>
</trkpt>
<trkpt lat="33.8100306" lon="-118.3939278">
  <ele>-26.564</ele>
  <time>2026-09-02T22:08:28Z</time>
  <course>190.97</course>
  <speed>0.966902270139025</speed>
  <fix>3d</fix>
</trkpt>
<trkpt lat="33.8100325" lon="-118.3939273">
  <ele>-25.64</ele>
  <time>2026-09-02T22:08:28Z</time>
  <course>190.12</course>
  <speed>1.0</speed>
  <fix>3d</fix>
</trkpt>
<trkpt lat="33.8100298" lon="-118.393928">
  <ele>-26.648</ele>
  <time>2026-09-02T22:08:28Z</time>
  <course>190.97</course>
  <speed>0.9767292357659824</speed>
  <fix>3d</fix>
</trkpt>
<trkpt lat="33.8100307" lon="-118.3939277">
  <ele>-25.8</ele>
  <time>2026-09-02T22:08:28Z</time>
  <course>190.13</course>
  <speed>1.0</speed>
  <fix>3d</fix>
</trkpt>
<trkpt lat="33.8100289" lon="-118.3939282">
  <ele>-26.731</ele>
  <time>2026-09-02T22:08:28Z</time>
  <course>190.98</course>
  <speed>0.9767292357659824</speed>
  <fix>3d</fix>
</trkpt>
<trkpt lat="33.8100307" lon="-118.3939277">
  <ele>-25.8</ele>
  <time>2026-09-02T22:08:28Z</time>
  <course>190.13</course>
  <speed>1.0</speed>
  <fix>3d</fix>
</trkpt>
<trkpt lat="33.810028" lon="-118.3939284">
  <ele>-26.814</ele>
  <time>2026-09-02T22:08:28Z</time>
  <course>190.98</course>
  <speed>0.9767292357659824</speed>
  <fix>3d</fix>
</trkpt>
<trkpt lat="33.8100289" lon="-118.3939281">
  <ele>-25.97</ele>
  <time>2026-09-02T22:08:28Z</time>
  <course>190.12</course>
  <speed>1.0</speed>
  <fix>3d</fix>
</trkpt>
<trkpt lat="33.8100271" lon="-118.3939286">
  <ele>-26.897</ele>
  <time>2026-09-02T22:08:28Z</time>
  <course>190.97</course>
  <speed>0.9767292357659824</speed>
  <fix>3d</fix>
</trkpt>
<trkpt lat="33.8100289" lon="-118.3939281">
  <ele>-25.97</ele>
  <time>2026-09-02T22:08:28Z</time>
  <course>190.12</course>
  <speed>1.0</speed>
  <fix>3d</fix>
</trkpt>
<trkpt lat="33.8100262" lon="-118.3939287">
  <ele>-26.98</ele>
  <time>2026-09-02T22:08:28Z</time>
  <course>190.96</course>
  <speed>0.9767292357659824</speed>
  <fix>3d</fix>
</trkpt>
<trkpt lat="33.8100271" lon="-118.3939284">
  <ele>-26.13</ele>
  <time>2026-09-02T22:08:28Z</time>
  <course>190.09</course>
  <speed>1.0</speed>
  <fix>3d</fix>
</trkpt>
<trkpt lat="33.8100253" lon="-118.3939289">
  <ele>-27.063</ele>
  <time>2026-09-02T22:08:28Z</time>
  <course>190.96</course>
  <speed>0.9767292357659824</speed>
  <fix>3d</fix>
</trkpt>
<trkpt lat="33.8100271" lon="-118.3939284">
  <ele>-26.13</ele>
  <time>2026-09-02T22:08:28Z</time>
  <course>190.09</course>
  <speed>1.0</speed>
  <fix>3d</fix>
</trkpt>
<trkpt lat="33.8100244" lon="-118.3939291">
  <ele>-27.147</ele>
  <time>2026-09-02T22:08:28Z</time>
  <course>190.98</course>
  <speed>0.9767292357659824</speed>
  <fix>3d</fix>
</trkpt>
<trkpt lat="33.8100254" lon="-118.3939288">
  <ele>-26.29</ele>
  <time>2026-09-02T22:08:28Z</time>
  <course>190.1</course>
  <speed>1.0</speed>
  <fix>3d</fix>
</trkpt>
<trkpt lat="33.8100236" lon="-118.3939293">
  <ele>-27.23</ele>
  <time>2026-09-02T22:08:28Z</time>
  <course>191.01</course>
  <speed>0.9767292357659824</speed>
  <fix>3d</fix>
</trkpt>
<trkpt lat="33.8100254" lon="-118.3939288">
  <ele>-26.29</ele>
  <time>2026-09-02T22:08:28Z</time>
  <course>190.1</course>
  <speed>1.0</speed>
  <fix>3d</fix>
</trkpt>
<trkpt lat="33.8100227" lon="-118.3939295">
  <ele>-27.313</ele>
  <time>2026-09-02T22:08:28Z</time>
  <course>191.04</course>
  <speed>0.9767292357659824</speed>
  <fix>3d</fix>
</trkpt>
<trkpt lat="33.8100236" lon="-118.3939292">
  <ele>-26.45</ele>
  <time>2026-09-02T22:08:28Z</time>
  <course>190.14</course>
  <speed>1.0</speed>
  <fix>3d</fix>
</trkpt>
<trkpt lat="33.8100218" lon="-118.3939297">
  <ele>-27.396</ele>
  <time>2026-09-02T22:08:28Z</time>
  <course>191.06</course>
  <speed>0.9767292357659824</speed>
  <fix>3d</fix>
</trkpt>
<trkpt lat="33.8100236" lon="-118.3939292">
  <ele>-26.45</ele>
  <time>2026-09-02T22:08:28Z</time>
  <course>190.14</course>
  <speed>1.0</speed>
  <fix>3d</fix>
</trkpt>
<trkpt lat="33.8100209" lon="-118.3939299">
  <ele>-27.478</ele>
  <time>2026-09-02T22:08:28Z</time>
  <course>191.07</course>
  <speed>0.9767292357659824</speed>
  <fix>3d</fix>
</trkpt>
<trkpt lat="33.8100218" lon="-118.3939296">
  <ele>-26.62</ele>
  <time>2026-09-02T22:08:28Z</time>
  <course>190.16</course>
  <speed>1.0</speed>
  <fix>3d</fix>
</trkpt>
<trkpt lat="33.81002" lon="-118.3939301">
  <ele>-27.561</ele>
  <time>2026-09-02T22:08:28Z</time>
  <course>191.08</course>
  <speed>0.9767292357659824</speed>
  <fix>3d</fix>
</trkpt>
<trkpt lat="33.8100218" lon="-118.3939296">
  <ele>-26.62</ele>
  <time>2026-09-02T22:08:28Z</time>
  <course>190.16</course>
  <speed>1.0</speed>
  <fix>3d</fix>
</trkpt>
<trkpt lat="33.8100191" lon="-118.3939303">
  <ele>-27.643</ele>
  <time>2026-09-02T22:08:28Z</time>
  <course>191.08</course>
  <speed>0.9767292357659824</speed>
  <fix>3d</fix>
</trkpt>
<trkpt lat="33.8100201" lon="-118.39393">
  <ele>-26.78</ele>
  <time>2026-09-02T22:08:28Z</time>
  <course>190.17</course>
  <speed>1.0</speed>
  <fix>3d</fix>
</trkpt>
<trkpt lat="33.8100182" lon="-118.3939305">
  <ele>-27.726</ele>
  <time>2026-09-02T22:08:28Z</time>
  <course>191.08</course>
  <speed>0.9767292357659824</speed>
  <fix>3d</fix>
</trkpt>
<trkpt lat="33.8100201" lon="-118.39393">
  <ele>-26.78</ele>
  <time>2026-09-02T22:08:28Z</time>
  <course>190.17</course>
  <speed>1.0</speed>
  <fix>3d</fix>
</trkpt>
<trkpt lat="33.8100174" lon="-118.3939307">
  <ele>-27.81</ele>
  <time>2026-09-02T22:08:28Z</time>
  <course>191.07</course>
  <speed>0.9767292357659824</speed>
  <fix>3d</fix>
</trkpt>
<trkpt lat="33.8100182" lon="-118.3939303">
  <ele>-26.94</ele>
  <time>2026-09-02T22:08:28Z</time>
  <course>190.15</course>
  <speed>1.0</speed>
  <fix>3d</fix>
</trkpt>
<trkpt lat="33.8100165" lon="-118.3939308">
  <ele>-27.893</ele>
  <time>2026-09-02T22:08:28Z</time>
  <course>191.06</course>
  <speed>0.9767292357659824</speed>
  <fix>3d</fix>
</trkpt>
<trkpt lat="33.8100182" lon="-118.3939303">
  <ele>-26.94</ele>
  <time>2026-09-02T22:08:28Z</time>
  <course>190.15</course>
  <speed>1.0</speed>
  <fix>3d</fix>
</trkpt>
<trkpt lat="33.8100156" lon="-118.393931">
  <ele>-27.976</ele>
  <time>2026-09-02T22:08:28Z</time>
  <course>191.07</course>
  <speed>0.9767292357659824</speed>
  <fix>3d</fix>
</trkpt>
<trkpt lat="33.8100165" lon="-118.3939307">
  <ele>-27.1</ele>
  <time>2026-09-02T22:08:28Z</time>
  <course>190.13</course>
  <speed>1.0</speed>
  <fix>3d</fix>
</trkpt>
<trkpt lat="33.8100147" lon="-118.3939312">
  <ele>-28.059</ele>
  <time>2026-09-02T22:08:28Z</time>
  <course>191.1</course>
  <speed>0.9767292357659824</speed>
  <fix>3d</fix>
</trkpt>
<trkpt lat="33.8100165" lon="-118.3939307">
  <ele>-27.1</ele>
  <time>2026-09-02T22:08:28Z</time>
  <course>190.13</course>
  <speed>1.0</speed>
  <fix>3d</fix>
</trkpt>
<trkpt lat="33.8100138" lon="-118.3939314">
  <ele>-28.141</ele>
  <time>2026-09-02T22:08:28Z</time>
  <course>191.12</course>
  <speed>0.9767292357659824</speed>
  <fix>3d</fix>
</trkpt>
<trkpt lat="33.8100148" lon="-118.3939311">
  <ele>-27.26</ele>
  <time>2026-09-02T22:08:28Z</time>
  <course>190.17</course>
  <speed>1.0</speed>
  <fix>3d</fix>
</trkpt>
<trkpt lat="33.8100129" lon="-118.3939316">
  <ele>-28.223</ele>
  <time>2026-09-02T22:08:28Z</time>
  <course>191.14</course>
  <speed>0.9767292357659824</speed>
  <fix>3d</fix>
</trkpt>
<trkpt lat="33.8100148" lon="-118.3939311">
  <ele>-27.26</ele>
  <time>2026-09-02T22:08:28Z</time>
  <course>190.17</course>
  <speed>1.0</speed>
  <fix>3d</fix>
</trkpt>
<trkpt lat="33.810012" lon="-118.3939318">
  <ele>-28.305</ele>
  <time>2026-09-02T22:08:28Z</time>
  <course>191.16</course>
  <speed>0.9767292357659824</speed>
  <fix>3d</fix>
</trkpt>
<trkpt lat="33.810013" lon="-118.3939315">
  <ele>-27.43</ele>
  <time>2026-09-02T22:08:28Z</time>
  <course>190.2</course>
  <speed>1.0</speed>
  <fix>3d</fix>
</trkpt>
<trkpt lat="33.8100111" lon="-118.393932">
  <ele>-28.388</ele>
  <time>2026-09-02T22:08:28Z</time>
  <course>191.17</course>
  <speed>0.9767292357659824</speed>
  <fix>3d</fix>
</trkpt>
<trkpt lat="33.810013" lon="-118.3939315">
  <ele>-27.43</ele>
  <time>2026-09-02T22:08:28Z</time>
  <course>190.2</course>
  <speed>1.0</speed>
  <fix>3d</fix>
</trkpt>
<trkpt lat="33.8100103" lon="-118.3939322">
  <ele>-28.471</ele>
  <time>2026-09-02T22:08:28Z</time>
  <course>191.16</course>
  <speed>0.9767292357659824</speed>
  <fix>3d</fix>
</trkpt>
<trkpt lat="33.8100112" lon="-118.3939319">
  <ele>-27.59</ele>
  <time>2026-09-02T22:08:28Z</time>
  <course>190.19</course>
  <speed>1.0</speed>
  <fix>3d</fix>
</trkpt>
<trkpt lat="33.8100094" lon="-118.3939324">
  <ele>-28.554</ele>
  <time>2026-09-02T22:08:28Z</time>
  <course>191.15</course>
  <speed>0.9767292357659824</speed>
  <fix>3d</fix>
</trkpt>
<trkpt lat="33.8100112" lon="-118.3939319">
  <ele>-27.59</ele>
  <time>2026-09-02T22:08:28Z</time>
  <course>190.19</course>
  <speed>1.0</speed>
  <fix>3d</fix>
</trkpt>
<trkpt lat="33.8100085" lon="-118.3939326">
  <ele>-28.636</ele>
  <time>2026-09-02T22:08:28Z</time>
  <course>191.13</course>
  <speed>0.9767292357659824</speed>
  <fix>3d</fix>
</trkpt>
<trkpt lat="33.8100094" lon="-118.3939323">
  <ele>-27.75</ele>
  <time>2026-09-02T22:08:28Z</time>
  <course>190.15</course>
  <speed>1.0</speed>
  <fix>3d</fix>
</trkpt>
<trkpt lat="33.8100076" lon="-118.3939328">
  <ele>-28.718</ele>
  <time>2026-09-02T22:08:28Z</time>
  <course>191.12</course>
  <speed>0.966902270139025</speed>
  <fix>3d</fix>
</trkpt>
<trkpt lat="33.8100094" lon="-118.3939323">
  <ele>-27.75</ele>
  <time>2026-09-02T22:08:28Z</time>
  <course>190.15</course>
  <speed>1.0</speed>
  <fix>3d</fix>
</trkpt>
<trkpt lat="33.8100067" lon="-118.3939329">
  <ele>-28.8</ele>
  <time>2026-09-02T22:08:28Z</time>
  <course>191.1</course>
  <speed>0.966902270139025</speed>
  <fix>3d</fix>
</trkpt>
<trkpt lat="33.8100077" lon="-118.3939326">
  <ele>-27.91</ele>
  <time>2026-09-02T22:08:28Z</time>
  <course>190.12</course>
  <speed>1.0</speed>
  <fix>3d</fix>
</trkpt>
<trkpt lat="33.8100058" lon="-118.3939331">
  <ele>-28.882</ele>
  <time>2026-09-02T22:08:28Z</time>
  <course>191.09</course>
  <speed>0.966902270139025</speed>
  <fix>3d</fix>
</trkpt>
<trkpt lat="33.8100077" lon="-118.3939326">
  <ele>-27.91</ele>
  <time>2026-09-02T22:08:28Z</time>
  <course>190.12</course>
  <speed>1.0</speed>
  <fix>3d</fix>
</trkpt>
<trkpt lat="33.810005" lon="-118.3939333">
  <ele>-28.965</ele>
  <time>2026-09-02T22:08:28Z</time>
  <course>191.09</course>
  <speed>0.966902270139025</speed>
  <fix>3d</fix>
</trkpt>
<trkpt lat="33.8100058" lon="-118.393933">
  <ele>-28.08</ele>
  <time>2026-09-02T22:08:28Z</time>
  <course>190.11</course>
  <speed>0.99</speed>
  <fix>3d</fix>
</trkpt>
<trkpt lat="33.8100041" lon="-118.3939335">
  <ele>-29.048</ele>
  <time>2026-09-02T22:08:28Z</time>
  <course>191.1</course>
  <speed>0.966902270139025</speed>
  <fix>3d</fix>
</trkpt>
<trkpt lat="33.8100058" lon="-118.393933">
  <ele>-28.08</ele>
  <time>2026-09-02T22:08:28Z</time>
  <course>190.11</course>
  <speed>0.99</speed>
  <fix>3d</fix>
</trkpt>
<trkpt lat="33.8100032" lon="-118.3939337">
  <ele>-29.132</ele>
  <time>2026-09-02T22:08:28Z</time>
  <course>191.12</course>
  <speed>0.966902270139025</speed>
  <fix>3d</fix>
</trkpt>
<trkpt lat="33.8100041" lon="-118.3939334">
  <ele>-28.24</ele>
  <time>2026-09-02T22:08:28Z</time>
  <course>190.14</course>
  <speed>0.99</speed>
  <fix>3d</fix>
</trkpt>
<trkpt lat="33.8100023" lon="-118.3939339">
  <ele>-29.216</ele>
  <time>2026-09-02T22:08:28Z</time>
  <course>191.14</course>
  <speed>0.966902270139025</speed>
  <fix>3d</fix>
</trkpt>
<trkpt lat="33.8100041" lon="-118.3939334">
  <ele>-28.24</ele>
  <time>2026-09-02T22:08:28Z</time>
  <course>190.14</course>
  <speed>0.99</speed>
  <fix>3d</fix>
</trkpt>
<trkpt lat="33.8100014" lon="-118.3939341">
  <ele>-29.299</ele>
  <time>2026-09-02T22:08:28Z</time>
  <course>191.16</course>
  <speed>0.966902270139025</speed>
  <fix>3d</fix>
</trkpt>
<trkpt lat="33.8100024" lon="-118.3939338">
  <ele>-28.4</ele>
  <time>2026-09-02T22:08:28Z</time>
  <course>190.17</course>
  <speed>0.99</speed>
  <fix>3d</fix>
</trkpt>
<trkpt lat="33.8100005" lon="-118.3939343">
  <ele>-29.383</ele>
  <time>2026-09-02T22:08:28Z</time>
  <course>191.16</course>
  <speed>0.966902270139025</speed>
  <fix>3d</fix>
</trkpt>
<trkpt lat="33.8100024" lon="-118.3939338">
  <ele>-28.4</ele>
  <time>2026-09-02T22:08:28Z</time>
  <course>190.17</course>
  <speed>0.99</speed>
  <fix>3d</fix>
</trkpt>
<trkpt lat="33.8099996" lon="-118.3939345">
  <ele>-29.467</ele>
  <time>2026-09-02T22:08:28Z</time>
  <course>191.16</course>
  <speed>0.9767292357659824</speed>
  <fix>3d</fix>
</trkpt>
<trkpt lat="33.8100006" lon="-118.3939342">
  <ele>-28.57</ele>
  <time>2026-09-02T22:08:28Z</time>
  <course>190.16</course>
  <speed>0.99</speed>
  <fix>3d</fix>
</trkpt>
<trkpt lat="33.8099988" lon="-118.3939347">
  <ele>-29.55</ele>
  <time>2026-09-02T22:08:28Z</time>
  <course>191.14</course>
  <speed>0.9767292357659824</speed>
  <fix>3d</fix>
</trkpt>
<trkpt lat="33.8100006" lon="-118.3939342">
  <ele>-28.57</ele>
  <time>2026-09-02T22:08:28Z</time>
  <course>190.16</course>
  <speed>0.99</speed>
  <fix>3d</fix>
</trkpt>
<trkpt lat="33.8099979" lon="-118.3939349">
  <ele>-29.635</ele>
  <time>2026-09-02T22:08:28Z</time>
  <course>191.13</course>
  <speed>0.9767292357659824</speed>
  <fix>3d</fix>
</trkpt>
<trkpt lat="33.8099988" lon="-118.3939345">
  <ele>-28.73</ele>
  <time>2026-09-02T22:08:28Z</time>
  <course>190.12</course>
  <speed>0.99</speed>
  <fix>3d</fix>
</trkpt>
<trkpt lat="33.809997" lon="-118.393935">
  <ele>-29.719</ele>
  <time>2026-09-02T22:08:28Z</time>
  <course>191.11</course>
  <speed>0.9767292357659824</speed>
  <fix>3d</fix>
</trkpt>
<trkpt lat="33.8099988" lon="-118.3939345">
  <ele>-28.73</ele>
  <time>2026-09-02T22:08:28Z</time>
  <course>190.12</course>
  <speed>0.99</speed>
  <fix>3d</fix>
</trkpt>
<trkpt lat="33.8099961" lon="-118.3939352">
  <ele>-29.803</ele>
  <time>2026-09-02T22:08:28Z</time>
  <course>191.12</course>
  <speed>0.9767292357659824</speed>
  <fix>3d</fix>
</trkpt>
<trkpt lat="33.8099971" lon="-118.3939349">
  <ele>-28.9</ele>
  <time>2026-09-02T22:08:28Z</time>
  <course>190.12</course>
  <speed>1.0</speed>
  <fix>3d</fix>
</trkpt>
<trkpt lat="33.8099952" lon="-118.3939354">
  <ele>-29.887</ele>
  <time>2026-09-02T22:08:28Z</time>
  <course>191.13</course>
  <speed>0.9767292357659824</speed>
  <fix>3d</fix>
</trkpt>
<trkpt lat="33.8099971" lon="-118.3939349">
  <ele>-28.9</ele>
  <time>2026-09-02T22:08:28Z</time>
  <course>190.12</course>
  <speed>1.0</speed>
  <fix>3d</fix>
</trkpt>
<trkpt lat="33.8099943" lon="-118.3939356">
  <ele>-29.968</ele>
  <time>2026-09-02T22:08:28Z</time>
  <course>191.14</course>
  <speed>0.9767292357659824</speed>
  <fix>3d</fix>
</trkpt>
<trkpt lat="33.8099953" lon="-118.3939353">
  <ele>-29.06</ele>
  <time>2026-09-02T22:08:28Z</time>
  <course>190.15</course>
  <speed>1.0</speed>
  <fix>3d</fix>
</trkpt>
<trkpt lat="33.8099934" lon="-118.3939358">
  <ele>-30.05</ele>
  <time>2026-09-02T22:08:28Z</time>
  <course>191.16</course>
  <speed>0.9767292357659824</speed>
  <fix>3d</fix>
</trkpt>
<trkpt lat="33.8099953" lon="-118.3939353">
  <ele>-29.06</ele>
  <time>2026-09-02T22:08:28Z</time>
  <course>190.15</course>
  <speed>1.0</speed>
  <fix>3d</fix>
</trkpt>
<trkpt lat="33.8099925" lon="-118.393936">
  <ele>-30.132</ele>
  <time>2026-09-02T22:08:28Z</time>
  <course>191.17</course>
  <speed>0.9767292357659824</speed>
  <fix>3d</fix>
</trkpt>
<trkpt lat="33.8099935" lon="-118.3939356">
  <ele>-29.22</ele>
  <time>2026-09-02T22:08:28Z</time>
  <course>190.17</course>
  <speed>1.0</speed>
  <fix>3d</fix>
</trkpt>
<trkpt lat="33.8099917" lon="-118.3939362">
  <ele>-30.215</ele>
  <time>2026-09-02T22:08:28Z</time>
  <course>191.18</course>
  <speed>0.9767292357659824</speed>
  <fix>3d</fix>
</trkpt>
<trkpt lat="33.8099935" lon="-118.3939356">
  <ele>-29.22</ele>
  <time>2026-09-02T22:08:28Z</time>
  <course>190.17</course>
  <speed>1.0</speed>
  <fix>3d</fix>
</trkpt>
<trkpt lat="33.8099908" lon="-118.3939364">
  <ele>-30.297</ele>
  <time>2026-09-02T22:08:28Z</time>
  <course>191.21</course>
  <speed>0.9767292357659824</speed>
  <fix>3d</fix>
</trkpt>
<trkpt lat="33.8099917" lon="-118.3939361">
  <ele>-29.38</ele>
  <time>2026-09-02T22:08:28Z</time>
  <course>190.2</course>
  <speed>1.0</speed>
  <fix>3d</fix>
</trkpt>
<trkpt lat="33.8099899" lon="-118.3939366">
  <ele>-30.38</ele>
  <time>2026-09-02T22:08:28Z</time>
  <course>191.23</course>
  <speed>0.9767292357659824</speed>
  <fix>3d</fix>
</trkpt>
<trkpt lat="33.8099917" lon="-118.3939361">
  <ele>-29.38</ele>
  <time>2026-09-02T22:08:28Z</time>
  <course>190.2</course>
  <speed>1.0</speed>
  <fix>3d</fix>
</trkpt>
<trkpt lat="33.809989" lon="-118.3939368">
  <ele>-30.461</ele>
  <time>2026-09-02T22:08:28Z</time>
  <course>191.23</course>
  <speed>0.9767292357659824</speed>
  <fix>3d</fix>
</trkpt>
<trkpt lat="33.80999" lon="-118.3939365">
  <ele>-29.54</ele>
  <time>2026-09-02T22:08:28Z</time>
  <course>190.22</course>
  <speed>1.0</speed>
  <fix>3d</fix>
</trkpt>
<trkpt lat="33.8099881" lon="-118.393937">
  <ele>-30.541</ele>
  <time>2026-09-02T22:08:28Z</time>
  <course>191.23</course>
  <speed>0.9767292357659824</speed>
  <fix>3d</fix>
</trkpt>
<trkpt lat="33.80999" lon="-118.3939365">
  <ele>-29.54</ele>
  <time>2026-09-02T22:08:28Z</time>
  <course>190.22</course>
  <speed>1.0</speed>
  <fix>3d</fix>
</trkpt>
<trkpt lat="33.8099872" lon="-118.3939371">
  <ele>-30.621</ele>
  <time>2026-09-02T22:08:28Z</time>
  <course>191.21</course>
  <speed>0.966902270139025</speed>
  <fix>3d</fix>
</trkpt>
<trkpt lat="33.8099881" lon="-118.3939368">
  <ele>-29.7</ele>
  <time>2026-09-02T22:08:28Z</time>
  <course>190.17</course>
  <speed>1.0</speed>
  <fix>3d</fix>
</trkpt>
<trkpt lat="33.8099863" lon="-118.3939373">
  <ele>-30.702</ele>
  <time>2026-09-02T22:08:28Z</time>
  <course>191.2</course>
  <speed>0.966902270139025</speed>
  <fix>3d</fix>
</trkpt>
<trkpt lat="33.8099881" lon="-118.3939368">
  <ele>-29.7</ele>
  <time>2026-09-02T22:08:28Z</time>
  <course>190.17</course>
  <speed>1.0</speed>
  <fix>3d</fix>
</trkpt>
<trkpt lat="33.8099854" lon="-118.3939375">
  <ele>-30.784</ele>
  <time>2026-09-02T22:08:28Z</time>
  <course>191.18</course>
  <speed>0.966902270139025</speed>
  <fix>3d</fix>
</trkpt>
<trkpt lat="33.8099864" lon="-118.3939372">
  <ele>-29.86</ele>
  <time>2026-09-02T22:08:28Z</time>
  <course>190.15</course>
  <speed>0.99</speed>
  <fix>3d</fix>
</trkpt>
<trkpt lat="33.8099846" lon="-118.3939377">
  <ele>-30.866</ele>
  <time>2026-09-02T22:08:28Z</time>
  <course>191.2</course>
  <speed>0.966902270139025</speed>
  <fix>3d</fix>
</trkpt>
<trkpt lat="33.8099864" lon="-118.3939372">
  <ele>-29.86</ele>
  <time>2026-09-02T22:08:28Z</time>
  <course>190.15</course>
  <speed>0.99</speed>
  <fix>3d</fix>
</trkpt>
<trkpt lat="33.8099837" lon="-118.3939379">
  <ele>-30.949</ele>
  <time>2026-09-02T22:08:28Z</time>
  <course>191.21</course>
  <speed>0.966902270139025</speed>
  <fix>3d</fix>
</trkpt>
<trkpt lat="33.8099847" lon="-118.3939375">
  <ele>-30.02</ele>
  <time>2026-09-02T22:08:28Z</time>
  <course>190.18</course>
  <speed>0.99</speed>
  <fix>3d</fix>
</trkpt>
<trkpt lat="33.8099828" lon="-118.3939381">
  <ele>-31.032</ele>
  <time>2026-09-02T22:08:28Z</time>
  <course>191.23</course>
  <speed>0.966902270139025</speed>
  <fix>3d</fix>
</trkpt>
<trkpt lat="33.8099847" lon="-118.3939375">
  <ele>-30.02</ele>
  <time>2026-09-02T22:08:28Z</time>
  <course>190.18</course>
  <speed>0.99</speed>
  <fix>3d</fix>
</trkpt>
<trkpt lat="33.8099819" lon="-118.3939383">
  <ele>-31.116</ele>
  <time>2026-09-02T22:08:28Z</time>
  <course>191.26</course>
  <speed>0.966902270139025</speed>
  <fix>3d</fix>
</trkpt>
<trkpt lat="33.8099829" lon="-118.393938">
  <ele>-30.18</ele>
  <time>2026-09-02T22:08:28Z</time>
  <course>190.23</course>
  <speed>0.99</speed>
  <fix>3d</fix>
</trkpt>
<trkpt lat="33.809981" lon="-118.3939385">
  <ele>-31.201</ele>
  <time>2026-09-02T22:08:28Z</time>
  <course>191.27</course>
  <speed>0.966902270139025</speed>
  <fix>3d</fix>
</trkpt>
<trkpt lat="33.8099829" lon="-118.393938">
  <ele>-30.18</ele>
  <time>2026-09-02T22:08:28Z</time>
  <course>190.23</course>
  <speed>0.99</speed>
  <fix>3d</fix>
</trkpt>
<trkpt lat="33.8099802" lon="-118.3939387">
  <ele>-31.285</ele>
  <time>2026-09-02T22:08:28Z</time>
  <course>191.27</course>
  <speed>0.966902270139025</speed>
  <fix>3d</fix>
</trkpt>
<trkpt lat="33.8099811" lon="-118.3939384">
  <ele>-30.35</ele>
  <time>2026-09-02T22:08:28Z</time>
  <course>190.25</course>
  <speed>0.99</speed>
  <fix>3d</fix>
</trkpt>
<trkpt lat="33.8099793" lon="-118.3939389">
  <ele>-31.369</ele>
  <time>2026-09-02T22:08:28Z</time>
  <course>191.26</course>
  <speed>0.966902270139025</speed>
  <fix>3d</fix>
</trkpt>
<trkpt lat="33.8099811" lon="-118.3939384">
  <ele>-30.35</ele>
  <time>2026-09-02T22:08:28Z</time>
  <course>190.25</course>
  <speed>0.99</speed>
  <fix>3d</fix>
</trkpt>
<trkpt lat="33.8099784" lon="-118.3939391">
  <ele>-31.452</ele>
  <time>2026-09-02T22:08:28Z</time>
  <course>191.23</course>
  <speed>0.9767292357659824</speed>
  <fix>3d</fix>
</trkpt>
<trkpt lat="33.8099794" lon="-118.3939388">
  <ele>-30.52</ele>
  <time>2026-09-02T22:08:28Z</time>
  <course>190.2</course>
  <speed>0.99</speed>
  <fix>3d</fix>
</trkpt>
<trkpt lat="33.8099775" lon="-118.3939392">
  <ele>-31.536</ele>
  <time>2026-09-02T22:08:28Z</time>
  <course>191.2</course>
  <speed>0.9767292357659824</speed>
  <fix>3d</fix>
</trkpt>
<trkpt lat="33.8099794" lon="-118.3939388">
  <ele>-30.52</ele>
  <time>2026-09-02T22:08:28Z</time>
  <course>190.2</course>
  <speed>0.99</speed>
  <fix>3d</fix>
</trkpt>
<trkpt lat="33.8099766" lon="-118.3939394">
  <ele>-31.62</ele>
  <time>2026-09-02T22:08:28Z</time>
  <course>191.16</course>
  <speed>0.9767292357659824</speed>
  <fix>3d</fix>
</trkpt>
<trkpt lat="33.8099777" lon="-118.3939391">
  <ele>-30.68</ele>
  <time>2026-09-02T22:08:28Z</time>
  <course>190.13</course>
  <speed>0.99</speed>
  <fix>3d</fix>
</trkpt>
<trkpt lat="33.8099757" lon="-118.3939396">
  <ele>-31.704</ele>
  <time>2026-09-02T22:08:28Z</time>
  <course>191.14</course>
  <speed>0.9767292357659824</speed>
  <fix>3d</fix>
</trkpt>
<trkpt lat="33.8099777" lon="-118.3939391">
  <ele>-30.68</ele>
  <time>2026-09-02T22:08:28Z</time>
  <course>190.13</course>
  <speed>0.99</speed>
  <fix>3d</fix>
</trkpt>
<trkpt lat="33.8099749" lon="-118.3939398">
  <ele>-31.788</ele>
  <time>2026-09-02T22:08:28Z</time>
  <course>191.11</course>
  <speed>0.9767292357659824</speed>
  <fix>3d</fix>
</trkpt>
<trkpt lat="33.8099759" lon="-118.3939394">
  <ele>-30.85</ele>
  <time>2026-09-02T22:08:28Z</time>
  <course>190.1</course>
  <speed>1.0</speed>
  <fix>3d</fix>
</trkpt>
<trkpt lat="33.809974" lon="-118.39394">
  <ele>-31.871</ele>
  <time>2026-09-02T22:08:28Z</time>
  <course>191.11</course>
  <speed>0.9767292357659824</speed>
  <fix>3d</fix>
</trkpt>
<trkpt lat="33.8099759" lon="-118.3939394">
  <ele>-30.85</ele>
  <time>2026-09-02T22:08:28Z</time>
  <course>190.1</course>
  <speed>1.0</speed>
  <fix>3d</fix>
</trkpt>
<trkpt lat="33.8099731" lon="-118.3939402">
  <ele>-31.954</ele>
  <time>2026-09-02T22:08:28Z</time>
  <course>191.13</course>
  <speed>0.9767292357659824</speed>
  <fix>3d</fix>
</trkpt>
<trkpt lat="33.8099741" lon="-118.3939399">
  <ele>-31.01</ele>
  <time>2026-09-02T22:08:28Z</time>
  <course>190.14</course>
  <speed>1.0</speed>
  <fix>3d</fix>
</trkpt>
<trkpt lat="33.8099722" lon="-118.3939404">
  <ele>-32.037</ele>
  <time>2026-09-02T22:08:28Z</time>
  <course>191.15</course>
  <speed>0.9767292357659824</speed>
  <fix>3d</fix>
</trkpt>
<trkpt lat="33.8099741" lon="-118.3939399">
  <ele>-31.01</ele>
  <time>2026-09-02T22:08:28Z</time>
  <course>190.14</course>
  <speed>1.0</speed>
  <fix>3d</fix>
</trkpt>
<trkpt lat="33.8099713" lon="-118.3939406">
  <ele>-32.119</ele>
  <time>2026-09-02T22:08:28Z</time>
  <course>191.17</course>
  <speed>0.9767292357659824</speed>
  <fix>3d</fix>
</trkpt>
<trkpt lat="33.8099723" lon="-118.3939403">
  <ele>-31.17</ele>
  <time>2026-09-02T22:08:28Z</time>
  <course>190.18</course>
  <speed>1.0</speed>
  <fix>3d</fix>
</trkpt>
<trkpt lat="33.8099704" lon="-118.3939408">
  <ele>-32.201</ele>
  <time>2026-09-02T22:08:28Z</time>
  <course>191.17</course>
  <speed>0.9767292357659824</speed>
  <fix>3d</fix>
</trkpt>
<trkpt lat="33.8099723" lon="-118.3939403">
  <ele>-31.17</ele>
  <time>2026-09-02T22:08:28Z</time>
  <course>190.18</course>
  <speed>1.0</speed>
  <fix>3d</fix>
</trkpt>
<trkpt lat="33.8099695" lon="-118.393941">
  <ele>-32.283</ele>
  <time>2026-09-02T22:08:28Z</time>
  <course>191.16</course>
  <speed>0.9767292357659824</speed>
  <fix>3d</fix>
</trkpt>
<trkpt lat="33.8099706" lon="-118.3939407">
  <ele>-31.33</ele>
  <time>2026-09-02T22:08:28Z</time>
  <course>190.15</course>
  <speed>1.0</speed>
  <fix>3d</fix>
</trkpt>
<trkpt lat="33.8099687" lon="-118.3939412">
  <ele>-32.366</ele>
  <time>2026-09-02T22:08:28Z</time>
  <course>191.13</course>
  <speed>0.9767292357659824</speed>
  <fix>3d</fix>
</trkpt>
<trkpt lat="33.8099706" lon="-118.3939407">
  <ele>-31.33</ele>
  <time>2026-09-02T22:08:28Z</time>
  <course>190.15</course>
  <speed>1.0</speed>
  <fix>3d</fix>
</trkpt>
<trkpt lat="33.8099678" lon="-118.3939414">
  <ele>-32.449</ele>
  <time>2026-09-02T22:08:28Z</time>
  <course>191.11</course>
  <speed>0.9767292357659824</speed>
  <fix>3d</fix>
</trkpt>
<trkpt lat="33.8099687" lon="-118.393941">
  <ele>-31.49</ele>
  <time>2026-09-02T22:08:28Z</time>
  <course>190.09</course>
  <speed>1.0</speed>
  <fix>3d</fix>
</trkpt>
<trkpt lat="33.8099669" lon="-118.3939415">
  <ele>-32.533</ele>
  <time>2026-09-02T22:08:28Z</time>
  <course>191.09</course>
  <speed>0.9767292357659824</speed>
  <fix>3d</fix>
</trkpt>
<trkpt lat="33.8099687" lon="-118.393941">
  <ele>-31.49</ele>
  <time>2026-09-02T22:08:28Z</time>
  <course>190.09</course>
  <speed>1.0</speed>
  <fix>3d</fix>
</trkpt>
<trkpt lat="33.809966" lon="-118.3939417">
  <ele>-32.616</ele>
  <time>2026-09-02T22:08:28Z</time>
  <course>191.07</course>
  <speed>0.9767292357659824</speed>
  <fix>3d</fix>
</trkpt>
<trkpt lat="33.809967" lon="-118.3939414">
  <ele>-31.65</ele>
  <time>2026-09-02T22:08:28Z</time>
  <course>190.08</course>
  <speed>1.0</speed>
  <fix>3d</fix>
</trkpt>
<trkpt lat="33.8099651" lon="-118.3939419">
  <ele>-32.699</ele>
  <time>2026-09-02T22:08:28Z</time>
  <course>191.08</course>
  <speed>0.9767292357659824</speed>
  <fix>3d</fix>
</trkpt>
<trkpt lat="33.809967" lon="-118.3939414">
  <ele>-31.65</ele>
  <time>2026-09-02T22:08:28Z</time>
  <course>190.08</course>
  <speed>1.0</speed>
  <fix>3d</fix>
</trkpt>
<trkpt lat="33.8099642" lon="-118.3939421">
  <ele>-32.781</ele>
  <time>2026-09-02T22:08:28Z</time>
  <course>191.09</course>
  <speed>0.9767292357659824</speed>
  <fix>3d</fix>
</trkpt>
<trkpt lat="33.8099652" lon="-118.3939418">
  <ele>-31.81</ele>
  <time>2026-09-02T22:08:28Z</time>
  <course>190.11</course>
  <speed>1.0</speed>
  <fix>3d</fix>
</trkpt>
<trkpt lat="33.8099633" lon="-118.3939423">
  <ele>-32.864</ele>
  <time>2026-09-02T22:08:28Z</time>
  <course>191.11</course>
  <speed>0.9767292357659824</speed>
  <fix>3d</fix>
</trkpt>
<trkpt lat="33.8099652" lon="-118.3939418">
  <ele>-31.81</ele>
  <time>2026-09-02T22:08:28Z</time>
  <course>190.11</course>
  <speed>1.0</speed>
  <fix>3d</fix>
</trkpt>
<trkpt lat="33.8099624" lon="-118.3939425">
  <ele>-32.946</ele>
  <time>2026-09-02T22:08:28Z</time>
  <course>191.12</course>
  <speed>0.9767292357659824</speed>
  <fix>3d</fix>
</trkpt>
<trkpt lat="33.8099634" lon="-118.3939422">
  <ele>-31.97</ele>
  <time>2026-09-02T22:08:28Z</time>
  <course>190.12</course>
  <speed>1.0</speed>
  <fix>3d</fix>
</trkpt>
<trkpt lat="33.8099615" lon="-118.3939427">
  <ele>-33.028</ele>
  <time>2026-09-02T22:08:28Z</time>
  <course>191.13</course>
  <speed>0.9767292357659824</speed>
  <fix>3d</fix>
</trkpt>
<trkpt lat="33.8099634" lon="-118.3939422">
  <ele>-31.97</ele>
  <time>2026-09-02T22:08:28Z</time>
  <course>190.12</course>
  <speed>1.0</speed>
  <fix>3d</fix>
</trkpt>
<trkpt lat="33.8099607" lon="-118.3939429">
  <ele>-33.111</ele>
  <time>2026-09-02T22:08:28Z</time>
  <course>191.12</course>
  <speed>0.9767292357659824</speed>
  <fix>3d</fix>
</trkpt>
<trkpt lat="33.8099617" lon="-118.3939426">
  <ele>-32.12</ele>
  <time>2026-09-02T22:08:28Z</time>
  <course>190.11</course>
  <speed>1.0</speed>
  <fix>3d</fix>
</trkpt>
<trkpt lat="33.8099598" lon="-118.3939431">
  <ele>-33.191</ele>
  <time>2026-09-02T22:08:28Z</time>
  <course>191.12</course>
  <speed>0.9767292357659824</speed>
  <fix>3d</fix>
</trkpt>
<trkpt lat="33.8099617" lon="-118.3939426">
  <ele>-32.12</ele>
  <time>2026-09-02T22:08:28Z</time>
  <course>190.11</course>
  <speed>1.0</speed>
  <fix>3d</fix>
</trkpt>
<trkpt lat="33.8099589" lon="-118.3939433">
  <ele>-33.272</ele>
  <time>2026-09-02T22:08:28Z</time>
  <course>191.1</course>
  <speed>0.9767292357659824</speed>
  <fix>3d</fix>
</trkpt>
<trkpt lat="33.8099599" lon="-118.3939429">
  <ele>-32.29</ele>
  <time>2026-09-02T22:08:28Z</time>
  <course>190.08</course>
  <speed>0.99</speed>
  <fix>3d</fix>
</trkpt>
<trkpt lat="33.809958" lon="-118.3939435">
  <ele>-33.354</ele>
  <time>2026-09-02T22:08:28Z</time>
  <course>191.1</course>
  <speed>0.966902270139025</speed>
  <fix>3d</fix>
</trkpt>
<trkpt lat="33.8099599" lon="-118.3939429">
  <ele>-32.29</ele>
  <time>2026-09-02T22:08:28Z</time>
  <course>190.08</course>
  <speed>0.99</speed>
  <fix>3d</fix>
</trkpt>
<trkpt lat="33.8099571" lon="-118.3939436">
  <ele>-33.436</ele>
  <time>2026-09-02T22:08:28Z</time>
  <course>191.1</course>
  <speed>0.966902270139025</speed>
  <fix>3d</fix>
</trkpt>
<trkpt lat="33.8099581" lon="-118.3939433">
  <ele>-32.44</ele>
  <time>2026-09-02T22:08:28Z</time>
  <course>190.08</course>
  <speed>0.99</speed>
  <fix>3d</fix>
</trkpt>
<trkpt lat="33.8099562" lon="-118.3939438">
  <ele>-33.519</ele>
  <time>2026-09-02T22:08:28Z</time>
  <course>191.11</course>
  <speed>0.966902270139025</speed>
  <fix>3d</fix>
</trkpt>
<trkpt lat="33.8099581" lon="-118.3939433">
  <ele>-32.44</ele>
  <time>2026-09-02T22:08:28Z</time>
  <course>190.08</course>
  <speed>0.99</speed>
  <fix>3d</fix>
</trkpt>
<trkpt lat="33.8099554" lon="-118.393944">
  <ele>-33.603</ele>
  <time>2026-09-02T22:08:28Z</time>
  <course>191.13</course>
  <speed>0.966902270139025</speed>
  <fix>3d</fix>
</trkpt>
<trkpt lat="33.8099564" lon="-118.3939437">
  <ele>-32.61</ele>
  <time>2026-09-02T22:08:28Z</time>
  <course>190.11</course>
  <speed>0.99</speed>
  <fix>3d</fix>
</trkpt>
<trkpt lat="33.8099545" lon="-118.3939442">
  <ele>-33.687</ele>
  <time>2026-09-02T22:08:28Z</time>
  <course>191.15</course>
  <speed>0.966902270139025</speed>
  <fix>3d</fix>
</trkpt>
<trkpt lat="33.8099564" lon="-118.3939437">
  <ele>-32.61</ele>
  <time>2026-09-02T22:08:28Z</time>
  <course>190.11</course>
  <speed>0.99</speed>
  <fix>3d</fix>
</trkpt>
<trkpt lat="33.8099536" lon="-118.3939444">
  <ele>-33.771</ele>
  <time>2026-09-02T22:08:28Z</time>
  <course>191.16</course>
  <speed>0.9767292357659824</speed>
  <fix>3d</fix>
</trkpt>
<trkpt lat="33.8099546" lon="-118.3939441">
  <ele>-32.78</ele>
  <time>2026-09-02T22:08:28Z</time>
  <course>190.13</course>
  <speed>0.99</speed>
  <fix>3d</fix>
</trkpt>
<trkpt lat="33.8099527" lon="-118.3939446">
  <ele>-33.855</ele>
  <time>2026-09-02T22:08:28Z</time>
  <course>191.16</course>
  <speed>0.9767292357659824</speed>
  <fix>3d</fix>
</trkpt>
<trkpt lat="33.8099546" lon="-118.3939441">
  <ele>-32.78</ele>
  <time>2026-09-02T22:08:28Z</time>
  <course>190.13</course>
  <speed>0.99</speed>
  <fix>3d</fix>
</trkpt>
<trkpt lat="33.8099518" lon="-118.3939448">
  <ele>-33.939</ele>
  <time>2026-09-02T22:08:28Z</time>
  <course>191.15</course>
  <speed>0.9767292357659824</speed>
  <fix>3d</fix>
</trkpt>
<trkpt lat="33.8099529" lon="-118.3939445">
  <ele>-32.94</ele>
  <time>2026-09-02T22:08:28Z</time>
  <course>190.12</course>
  <speed>0.99</speed>
  <fix>3d</fix>
</trkpt>
<trkpt lat="33.8099509" lon="-118.393945">
  <ele>-34.022</ele>
  <time>2026-09-02T22:08:28Z</time>
  <course>191.14</course>
  <speed>0.9767292357659824</speed>
  <fix>3d</fix>
</trkpt>
<trkpt lat="33.8099529" lon="-118.3939445">
  <ele>-32.94</ele>
  <time>2026-09-02T22:08:28Z</time>
  <course>190.12</course>
  <speed>0.99</speed>
  <fix>3d</fix>
</trkpt>
<trkpt lat="33.8099501" lon="-118.3939452">
  <ele>-34.105</ele>
  <time>2026-09-02T22:08:28Z</time>
  <course>191.12</course>
  <speed>0.9767292357659824</speed>
  <fix>3d</fix>
</trkpt>
<trkpt lat="33.809951" lon="-118.3939448">
  <ele>-33.1</ele>
  <time>2026-09-02T22:08:28Z</time>
  <course>190.08</course>
  <speed>1.0</speed>
  <fix>3d</fix>
</trkpt>
<trkpt lat="33.8099492" lon="-118.3939454">
  <ele>-34.188</ele>
  <time>2026-09-02T22:08:28Z</time>
  <course>191.11</course>
  <speed>0.9767292357659824</speed>
  <fix>3d</fix>
</trkpt>
<trkpt lat="33.809951" lon="-118.3939448">
  <ele>-33.1</ele>
  <time>2026-09-02T22:08:28Z</time>
  <course>190.08</course>
  <speed>1.0</speed>
  <fix>3d</fix>
</trkpt>
<trkpt lat="33.8099483" lon="-118.3939456">
  <ele>-34.27</ele>
  <time>2026-09-02T22:08:28Z</time>
  <course>191.12</course>
  <speed>0.9767292357659824</speed>
  <fix>3d</fix>
</trkpt>
<trkpt lat="33.8099493" lon="-118.3939452">
  <ele>-33.26</ele>
  <time>2026-09-02T22:08:28Z</time>
  <course>190.08</course>
  <speed>1.0</speed>
  <fix>3d</fix>
</trkpt>
<trkpt lat="33.8099474" lon="-118.3939457">
  <ele>-34.353</ele>
  <time>2026-09-02T22:08:28Z</time>
  <course>191.13</course>
  <speed>0.9767292357659824</speed>
  <fix>3d</fix>
</trkpt>
<trkpt lat="33.8099493" lon="-118.3939452">
  <ele>-33.26</ele>
  <time>2026-09-02T22:08:28Z</time>
  <course>190.08</course>
  <speed>1.0</speed>
  <fix>3d</fix>
</trkpt>
<trkpt lat="33.8099465" lon="-118.3939459">
  <ele>-34.435</ele>
  <time>2026-09-02T22:08:28Z</time>
  <course>191.16</course>
  <speed>0.9767292357659824</speed>
  <fix>3d</fix>
</trkpt>
<trkpt lat="33.8099476" lon="-118.3939456">
  <ele>-33.42</ele>
  <time>2026-09-02T22:08:28Z</time>
  <course>190.13</course>
  <speed>1.0</speed>
  <fix>3d</fix>
</trkpt>
<trkpt lat="33.8099456" lon="-118.3939461">
  <ele>-34.517</ele>
  <time>2026-09-02T22:08:28Z</time>
  <course>191.17</course>
  <speed>0.9767292357659824</speed>
  <fix>3d</fix>
</trkpt>
<trkpt lat="33.8099476" lon="-118.3939456">
  <ele>-33.42</ele>
  <time>2026-09-02T22:08:28Z</time>
  <course>190.13</course>
  <speed>1.0</speed>
  <fix>3d</fix>
</trkpt>
<trkpt lat="33.8099447" lon="-118.3939463">
  <ele>-34.599</ele>
  <time>2026-09-02T22:08:28Z</time>
  <course>191.19</course>
  <speed>0.9767292357659824</speed>
  <fix>3d</fix>
</trkpt>
<trkpt lat="33.8099457" lon="-118.393946">
  <ele>-33.58</ele>
  <time>2026-09-02T22:08:28Z</time>
  <course>190.14</course>
  <speed>1.0</speed>
  <fix>3d</fix>
</trkpt>
<trkpt lat="33.8099439" lon="-118.3939465">
  <ele>-34.681</ele>
  <time>2026-09-02T22:08:28Z</time>
  <course>191.19</course>
  <speed>0.9767292357659824</speed>
  <fix>3d</fix>
</trkpt>
<trkpt lat="33.8099457" lon="-118.393946">
  <ele>-33.58</ele>
  <time>2026-09-02T22:08:28Z</time>
  <course>190.14</course>
  <speed>1.0</speed>
  <fix>3d</fix>
</trkpt>
<trkpt lat="33.809943" lon="-118.3939467">
  <ele>-34.764</ele>
  <time>2026-09-02T22:08:28Z</time>
  <course>191.2</course>
  <speed>0.9767292357659824</speed>
  <fix>3d</fix>
</trkpt>
<trkpt lat="33.809944" lon="-118.3939464">
  <ele>-33.73</ele>
  <time>2026-09-02T22:08:28Z</time>
  <course>190.13</course>
  <speed>1.0</speed>
  <fix>3d</fix>
</trkpt>
<trkpt lat="33.8099421" lon="-118.3939469">
  <ele>-34.846</ele>
  <time>2026-09-02T22:08:28Z</time>
  <course>191.19</course>
  <speed>0.9767292357659824</speed>
  <fix>3d</fix>
</trkpt>
<trkpt lat="33.809944" lon="-118.3939464">
  <ele>-33.73</ele>
  <time>2026-09-02T22:08:28Z</time>
  <course>190.13</course>
  <speed>1.0</speed>
  <fix>3d</fix>
</trkpt>
<trkpt lat="33.8099412" lon="-118.3939471">
  <ele>-34.929</ele>
  <time>2026-09-02T22:08:28Z</time>
  <course>191.18</course>
  <speed>0.9767292357659824</speed>
  <fix>3d</fix>
</trkpt>
<trkpt lat="33.8099422" lon="-118.3939467">
  <ele>-33.9</ele>
  <time>2026-09-02T22:08:28Z</time>
  <course>190.11</course>
  <speed>0.99</speed>
  <fix>3d</fix>
</trkpt>
<trkpt lat="33.8099403" lon="-118.3939473">
  <ele>-35.011</ele>
  <time>2026-09-02T22:08:28Z</time>
  <course>191.18</course>
  <speed>0.9767292357659824</speed>
  <fix>3d</fix>
</trkpt>
<trkpt lat="33.8099422" lon="-118.3939467">
  <ele>-33.9</ele>
  <time>2026-09-02T22:08:28Z</time>
  <course>190.11</course>
  <speed>0.99</speed>
  <fix>3d</fix>
</trkpt>
<trkpt lat="33.8099394" lon="-118.3939475">
  <ele>-35.093</ele>
  <time>2026-09-02T22:08:28Z</time>
  <course>191.19</course>
  <speed>0.9767292357659824</speed>
  <fix>3d</fix>
</trkpt>
<trkpt lat="33.8099404" lon="-118.3939471">
  <ele>-34.05</ele>
  <time>2026-09-02T22:08:28Z</time>
  <course>190.13</course>
  <speed>0.99</speed>
  <fix>3d</fix>
</trkpt>
<trkpt lat="33.8099385" lon="-118.3939477">
  <ele>-35.174</ele>
  <time>2026-09-02T22:08:28Z</time>
  <course>191.2</course>
  <speed>0.966902270139025</speed>
  <fix>3d</fix>
</trkpt>
<trkpt lat="33.8099404" lon="-118.3939471">
  <ele>-34.05</ele>
  <time>2026-09-02T22:08:28Z</time>
  <course>190.13</course>
  <speed>0.99</speed>
  <fix>3d</fix>
</trkpt>
<trkpt lat="33.8099377" lon="-118.3939478">
  <ele>-35.257</ele>
  <time>2026-09-02T22:08:28Z</time>
  <course>191.22</course>
  <speed>0.966902270139025</speed>
  <fix>3d</fix>
</trkpt>
<trkpt lat="33.8099387" lon="-118.3939475">
  <ele>-34.22</ele>
  <time>2026-09-02T22:08:28Z</time>
  <course>190.17</course>
  <speed>0.99</speed>
  <fix>3d</fix>
</trkpt>
<trkpt lat="33.8099368" lon="-118.393948">
  <ele>-35.339</ele>
  <time>2026-09-02T22:08:28Z</time>
  <course>191.24</course>
  <speed>0.966902270139025</speed>
  <fix>3d</fix>
</trkpt>
<trkpt lat="33.8099387" lon="-118.3939475">
  <ele>-34.22</ele>
  <time>2026-09-02T22:08:28Z</time>
  <course>190.17</course>
  <speed>0.99</speed>
  <fix>3d</fix>
</trkpt>
<trkpt lat="33.8099359" lon="-118.3939482">
  <ele>-35.422</ele>
  <time>2026-09-02T22:08:28Z</time>
  <course>191.25</course>
  <speed>0.966902270139025</speed>
  <fix>3d</fix>
</trkpt>
<trkpt lat="33.8099369" lon="-118.3939479">
  <ele>-34.37</ele>
  <time>2026-09-02T22:08:28Z</time>
  <course>190.19</course>
  <speed>0.99</speed>
  <fix>3d</fix>
</trkpt>
<trkpt lat="33.809935" lon="-118.3939484">
  <ele>-35.507</ele>
  <time>2026-09-02T22:08:28Z</time>
  <course>191.25</course>
  <speed>0.966902270139025</speed>
  <fix>3d</fix>
</trkpt>
<trkpt lat="33.8099369" lon="-118.3939479">
  <ele>-34.37</ele>
  <time>2026-09-02T22:08:28Z</time>
  <course>190.19</course>
  <speed>0.99</speed>
  <fix>3d</fix>
</trkpt>
<trkpt lat="33.8099341" lon="-118.3939486">
  <ele>-35.591</ele>
  <time>2026-09-02T22:08:28Z</time>
  <course>191.25</course>
  <speed>0.9767292357659824</speed>
  <fix>3d</fix>
</trkpt>
<trkpt lat="33.8099352" lon="-118.3939483">
  <ele>-34.54</ele>
  <time>2026-09-02T22:08:28Z</time>
  <course>190.17</course>
  <speed>0.99</speed>
  <fix>3d</fix>
</trkpt>
<trkpt lat="33.8099333" lon="-118.3939488">
  <ele>-35.674</ele>
  <time>2026-09-02T22:08:28Z</time>
  <course>191.24</course>
  <speed>0.9767292357659824</speed>
  <fix>3d</fix>
</trkpt>
<trkpt lat="33.8099352" lon="-118.3939483">
  <ele>-34.54</ele>
  <time>2026-09-02T22:08:28Z</time>
  <course>190.17</course>
  <speed>0.99</speed>
  <fix>3d</fix>
</trkpt>
<trkpt lat="33.8099324" lon="-118.393949">
  <ele>-35.757</ele>
  <time>2026-09-02T22:08:28Z</time>
  <course>191.22</course>
  <speed>0.9767292357659824</speed>
  <fix>3d</fix>
</trkpt>
<trkpt lat="33.8099334" lon="-118.3939486">
  <ele>-34.71</ele>
  <time>2026-09-02T22:08:28Z</time>
  <course>190.14</course>
  <speed>0.99</speed>
  <fix>3d</fix>
</trkpt>
<trkpt lat="33.8099315" lon="-118.3939492">
  <ele>-35.839</ele>
  <time>2026-09-02T22:08:28Z</time>
  <course>191.21</course>
  <speed>0.9767292357659824</speed>
  <fix>3d</fix>
</trkpt>
<trkpt lat="33.8099334" lon="-118.3939486">
  <ele>-34.71</ele>
  <time>2026-09-02T22:08:28Z</time>
  <course>190.14</course>
  <speed>0.99</speed>
  <fix>3d</fix>
</trkpt>
<trkpt lat="33.8099306" lon="-118.3939494">
  <ele>-35.922</ele>
  <time>2026-09-02T22:08:28Z</time>
  <course>191.21</course>
  <speed>0.9767292357659824</speed>
  <fix>3d</fix>
</trkpt>
<trkpt lat="33.8099316" lon="-118.393949">
  <ele>-34.87</ele>
  <time>2026-09-02T22:08:28Z</time>
  <course>190.13</course>
  <speed>0.99</speed>
  <fix>3d</fix>
</trkpt>
<trkpt lat="33.8099297" lon="-118.3939496">
  <ele>-36.006</ele>
  <time>2026-09-02T22:08:28Z</time>
  <course>191.22</course>
  <speed>0.9786214794290998</speed>
  <fix>3d</fix>
</trkpt>
<trkpt lat="33.8099316" lon="-118.393949">
  <ele>-34.87</ele>
  <time>2026-09-02T22:08:28Z</time>
  <course>190.13</course>
  <speed>0.99</speed>
  <fix>3d</fix>
</trkpt>
<trkpt lat="33.8099288" lon="-118.3939497">
  <ele>-36.088</ele>
  <time>2026-09-02T22:08:28Z</time>
  <course>191.24</course>
  <speed>0.9786214794290998</speed>
  <fix>3d</fix>
</trkpt>
<trkpt lat="33.8099299" lon="-118.3939494">
  <ele>-35.03</ele>
  <time>2026-09-02T22:08:28Z</time>
  <course>190.16</course>
  <speed>1.0</speed>
  <fix>3d</fix>
</trkpt>
<trkpt lat="33.8099279" lon="-118.3939499">
  <ele>-36.171</ele>
  <time>2026-09-02T22:08:28Z</time>
  <course>191.27</course>
  <speed>0.9786214794290998</speed>
  <fix>3d</fix>
</trkpt>
<trkpt lat="33.8099299" lon="-118.3939494">
  <ele>-35.03</ele>
  <time>2026-09-02T22:08:28Z</time>
  <course>190.16</course>
  <speed>1.0</speed>
  <fix>3d</fix>
</trkpt>
<trkpt lat="33.8099271" lon="-118.3939501">
  <ele>-36.253</ele>
  <time>2026-09-02T22:08:28Z</time>
  <course>191.27</course>
  <speed>0.9767292357659824</speed>
  <fix>3d</fix>
</trkpt>
<trkpt lat="33.809928" lon="-118.3939498">
  <ele>-35.19</ele>
  <time>2026-09-02T22:08:28Z</time>
  <course>190.19</course>
  <speed>1.0</speed>
  <fix>3d</fix>
</trkpt>
<trkpt lat="33.8099262" lon="-118.3939503">
  <ele>-36.336</ele>
  <time>2026-09-02T22:08:28Z</time>
  <course>191.28</course>
  <speed>0.9767292357659824</speed>
  <fix>3d</fix>
</trkpt>
<trkpt lat="33.809928" lon="-118.3939498">
  <ele>-35.19</ele>
  <time>2026-09-02T22:08:28Z</time>
  <course>190.19</course>
  <speed>1.0</speed>
  <fix>3d</fix>
</trkpt>
<trkpt lat="33.8099253" lon="-118.3939505">
  <ele>-36.419</ele>
  <time>2026-09-02T22:08:28Z</time>
  <course>191.28</course>
  <speed>0.9767292357659824</speed>
  <fix>3d</fix>
</trkpt>
<trkpt lat="33.8099263" lon="-118.3939502">
  <ele>-35.36</ele>
  <time>2026-09-02T22:08:28Z</time>
  <course>190.19</course>
  <speed>1.0</speed>
  <fix>3d</fix>
</trkpt>
<trkpt lat="33.8099244" lon="-118.3939507">
  <ele>-36.5</ele>
  <time>2026-09-02T22:08:28Z</time>
  <course>191.27</course>
  <speed>0.966902270139025</speed>
  <fix>3d</fix>
</trkpt>
<trkpt lat="33.8099263" lon="-118.3939502">
  <ele>-35.36</ele>
  <time>2026-09-02T22:08:28Z</time>
  <course>190.19</course>
  <speed>1.0</speed>
  <fix>3d</fix>
</trkpt>
<trkpt lat="33.8099235" lon="-118.3939509">
  <ele>-36.582</ele>
  <time>2026-09-02T22:08:28Z</time>
  <course>191.26</course>
  <speed>0.966902270139025</speed>
  <fix>3d</fix>
</trkpt>
<trkpt lat="33.8099246" lon="-118.3939505">
  <ele>-35.51</ele>
  <time>2026-09-02T22:08:28Z</time>
  <course>190.19</course>
  <speed>0.99</speed>
  <fix>3d</fix>
</trkpt>
<trkpt lat="33.8099226" lon="-118.3939511">
  <ele>-36.663</ele>
  <time>2026-09-02T22:08:28Z</time>
  <course>191.26</course>
  <speed>0.966902270139025</speed>
  <fix>3d</fix>
</trkpt>
<trkpt lat="33.8099246" lon="-118.3939505">
  <ele>-35.51</ele>
  <time>2026-09-02T22:08:28Z</time>
  <course>190.19</course>
  <speed>0.99</speed>
  <fix>3d</fix>
</trkpt>
<trkpt lat="33.8099218" lon="-118.3939513">
  <ele>-36.745</ele>
  <time>2026-09-02T22:08:28Z</time>
  <course>191.26</course>
  <speed>0.966902270139025</speed>
  <fix>3d</fix>
</trkpt>
<trkpt lat="33.8099227" lon="-118.3939509">
  <ele>-35.68</ele>
  <time>2026-09-02T22:08:28Z</time>
  <course>190.19</course>
  <speed>0.99</speed>
  <fix>3d</fix>
</trkpt>
<trkpt lat="33.8099209" lon="-118.3939515">
  <ele>-36.827</ele>
  <time>2026-09-02T22:08:28Z</time>
  <course>191.27</course>
  <speed>0.966902270139025</speed>
  <fix>3d</fix>
</trkpt>
<trkpt lat="33.8099227" lon="-118.3939509">
  <ele>-35.68</ele>
  <time>2026-09-02T22:08:28Z</time>
  <course>190.19</course>
  <speed>0.99</speed>
  <fix>3d</fix>
</trkpt>
<trkpt lat="33.80992" lon="-118.3939517">
  <ele>-36.91</ele>
  <time>2026-09-02T22:08:28Z</time>
  <course>191.29</course>
  <speed>0.966902270139025</speed>
  <fix>3d</fix>
</trkpt>
<trkpt lat="33.809921" lon="-118.3939513">
  <ele>-35.84</ele>
  <time>2026-09-02T22:08:28Z</time>
  <course>190.22</course>
  <speed>0.99</speed>
  <fix>3d</fix>
</trkpt>
<trkpt lat="33.8099191" lon="-118.3939518">
  <ele>-36.996</ele>
  <time>2026-09-02T22:08:28Z</time>
  <course>191.31</course>
  <speed>0.966902270139025</speed>
  <fix>3d</fix>
</trkpt>
<trkpt lat="33.809921" lon="-118.3939513">
  <ele>-35.84</ele>
  <time>2026-09-02T22:08:28Z</time>
  <course>190.22</course>
  <speed>0.99</speed>
  <fix>3d</fix>
</trkpt>
<trkpt lat="33.8099182" lon="-118.393952">
  <ele>-37.083</ele>
  <time>2026-09-02T22:08:28Z</time>
  <course>191.31</course>
  <speed>0.9767292357659824</speed>
  <fix>3d</fix>
</trkpt>
<trkpt lat="33.8099193" lon="-118.3939517">
  <ele>-36.01</ele>
  <time>2026-09-02T22:08:28Z</time>
  <course>190.25</course>
  <speed>0.99</speed>
  <fix>3d</fix>
</trkpt>
<trkpt lat="33.8099173" lon="-118.3939522">
  <ele>-37.168</ele>
  <time>2026-09-02T22:08:28Z</time>
  <course>191.32</course>
  <speed>0.9786214794290998</speed>
  <fix>3d</fix>
</trkpt>
<trkpt lat="33.8099193" lon="-118.3939517">
  <ele>-36.01</ele>
  <time>2026-09-02T22:08:28Z</time>
  <course>190.25</course>
  <speed>0.99</speed>
  <fix>3d</fix>
</trkpt>
<trkpt lat="33.8099165" lon="-118.3939524">
  <ele>-37.252</ele>
  <time>2026-09-02T22:08:28Z</time>
  <course>191.3</course>
  <speed>0.9786214794290998</speed>
  <fix>3d</fix>
</trkpt>
<trkpt lat="33.8099175" lon="-118.3939521">
  <ele>-36.17</ele>
  <time>2026-09-02T22:08:28Z</time>
  <course>190.24</course>
  <speed>1.0</speed>
  <fix>3d</fix>
</trkpt>
<trkpt lat="33.8099156" lon="-118.3939526">
  <ele>-37.335</ele>
  <time>2026-09-02T22:08:28Z</time>
  <course>191.29</course>
  <speed>0.9786214794290998</speed>
  <fix>3d</fix>
</trkpt>
<trkpt lat="33.8099175" lon="-118.3939521">
  <ele>-36.17</ele>
  <time>2026-09-02T22:08:28Z</time>
  <course>190.24</course>
  <speed>1.0</speed>
  <fix>3d</fix>
</trkpt>
<trkpt lat="33.8099147" lon="-118.3939528">
  <ele>-37.419</ele>
  <time>2026-09-02T22:08:28Z</time>
  <course>191.26</course>
  <speed>0.9786214794290998</speed>
  <fix>3d</fix>
</trkpt>
<trkpt lat="33.8099157" lon="-118.3939525">
  <ele>-36.33</ele>
  <time>2026-09-02T22:08:28Z</time>
  <course>190.21</course>
  <speed>1.0</speed>
  <fix>3d</fix>
</trkpt>
<trkpt lat="33.8099138" lon="-118.393953">
  <ele>-37.503</ele>
  <time>2026-09-02T22:08:28Z</time>
  <course>191.24</course>
  <speed>0.9786214794290998</speed>
  <fix>3d</fix>
</trkpt>
<trkpt lat="33.8099157" lon="-118.3939525">
  <ele>-36.33</ele>
  <time>2026-09-02T22:08:28Z</time>
  <course>190.21</course>
  <speed>1.0</speed>
  <fix>3d</fix>
</trkpt>
<trkpt lat="33.8099129" lon="-118.3939532">
  <ele>-37.585</ele>
  <time>2026-09-02T22:08:28Z</time>
  <course>191.21</course>
  <speed>0.9786214794290998</speed>
  <fix>3d</fix>
</trkpt>
<trkpt lat="33.8099139" lon="-118.3939528">
  <ele>-36.48</ele>
  <time>2026-09-02T22:08:28Z</time>
  <course>190.18</course>
  <speed>1.0</speed>
  <fix>3d</fix>
</trkpt>
<trkpt lat="33.809912" lon="-118.3939534">
  <ele>-37.666</ele>
  <time>2026-09-02T22:08:28Z</time>
  <course>191.2</course>
  <speed>0.9786214794290998</speed>
  <fix>3d</fix>
</trkpt>
<trkpt lat="33.8099139" lon="-118.3939528">
  <ele>-36.48</ele>
  <time>2026-09-02T22:08:28Z</time>
  <course>190.18</course>
  <speed>1.0</speed>
  <fix>3d</fix>
</trkpt>
<trkpt lat="33.8099111" lon="-118.3939536">
  <ele>-37.747</ele>
  <time>2026-09-02T22:08:28Z</time>
  <course>191.2</course>
  <speed>0.9786214794290998</speed>
  <fix>3d</fix>
</trkpt>
<trkpt lat="33.8099122" lon="-118.3939532">
  <ele>-36.65</ele>
  <time>2026-09-02T22:08:28Z</time>
  <course>190.18</course>
  <speed>1.01</speed>
  <fix>3d</fix>
</trkpt>
<trkpt lat="33.8099103" lon="-118.3939538">
  <ele>-37.829</ele>
  <time>2026-09-02T22:08:28Z</time>
  <course>191.21</course>
  <speed>0.9786214794290998</speed>
  <fix>3d</fix>
</trkpt>
<trkpt lat="33.8099122" lon="-118.3939532">
  <ele>-36.65</ele>
  <time>2026-09-02T22:08:28Z</time>
  <course>190.18</course>
  <speed>1.01</speed>
  <fix>3d</fix>
</trkpt>
<trkpt lat="33.8099094" lon="-118.3939539">
  <ele>-37.911</ele>
  <time>2026-09-02T22:08:28Z</time>
  <course>191.22</course>
  <speed>0.9786214794290998</speed>
  <fix>3d</fix>
</trkpt>
<trkpt lat="33.8099103" lon="-118.3939536">
  <ele>-36.8</ele>
  <time>2026-09-02T22:08:28Z</time>
  <course>190.21</course>
  <speed>1.0</speed>
  <fix>3d</fix>
</trkpt>
<trkpt lat="33.8099085" lon="-118.3939541">
  <ele>-37.994</ele>
  <time>2026-09-02T22:08:28Z</time>
  <course>191.24</course>
  <speed>0.9786214794290998</speed>
  <fix>3d</fix>
</trkpt>
<trkpt lat="33.8099103" lon="-118.3939536">
  <ele>-36.8</ele>
  <time>2026-09-02T22:08:28Z</time>
  <course>190.21</course>
  <speed>1.0</speed>
  <fix>3d</fix>
</trkpt>
<trkpt lat="33.8099076" lon="-118.3939543">
  <ele>-38.076</ele>
  <time>2026-09-02T22:08:28Z</time>
  <course>191.25</course>
  <speed>0.9786214794290998</speed>
  <fix>3d</fix>
</trkpt>
<trkpt lat="33.8099086" lon="-118.393954">
  <ele>-36.97</ele>
  <time>2026-09-02T22:08:28Z</time>
  <course>190.25</course>
  <speed>1.0</speed>
  <fix>3d</fix>
</trkpt>
<trkpt lat="33.8099067" lon="-118.3939545">
  <ele>-38.158</ele>
  <time>2026-09-02T22:08:28Z</time>
  <course>191.26</course>
  <speed>0.9786214794290998</speed>
  <fix>3d</fix>
</trkpt>
<trkpt lat="33.8099086" lon="-118.393954">
  <ele>-36.97</ele>
  <time>2026-09-02T22:08:28Z</time>
  <course>190.25</course>
  <speed>1.0</speed>
  <fix>3d</fix>
</trkpt>
<trkpt lat="33.8099058" lon="-118.3939547">
  <ele>-38.241</ele>
  <time>2026-09-02T22:08:28Z</time>
  <course>191.26</course>
  <speed>0.9767292357659824</speed>
  <fix>3d</fix>
</trkpt>
<trkpt lat="33.8099068" lon="-118.3939544">
  <ele>-37.12</ele>
  <time>2026-09-02T22:08:28Z</time>
  <course>190.25</course>
  <speed>1.0</speed>
  <fix>3d</fix>
</trkpt>
<trkpt lat="33.809905" lon="-118.3939549">
  <ele>-38.324</ele>
  <time>2026-09-02T22:08:28Z</time>
  <course>191.25</course>
  <speed>0.9786214794290998</speed>
  <fix>3d</fix>
</trkpt>
<trkpt lat="33.8099068" lon="-118.3939544">
  <ele>-37.12</ele>
  <time>2026-09-02T22:08:28Z</time>
  <course>190.25</course>
  <speed>1.0</speed>
  <fix>3d</fix>
</trkpt>
<trkpt lat="33.8099041" lon="-118.3939551">
  <ele>-38.406</ele>
  <time>2026-09-02T22:08:28Z</time>
  <course>191.24</course>
  <speed>0.9767292357659824</speed>
  <fix>3d</fix>
</trkpt>
<trkpt lat="33.809905" lon="-118.3939548">
  <ele>-37.29</ele>
  <time>2026-09-02T22:08:28Z</time>
  <course>190.23</course>
  <speed>1.0</speed>
  <fix>3d</fix>
</trkpt>
<trkpt lat="33.8099032" lon="-118.3939553">
  <ele>-38.488</ele>
  <time>2026-09-02T22:08:28Z</time>
  <course>191.23</course>
  <speed>0.9767292357659824</speed>
  <fix>3d</fix>
</trkpt>
<trkpt lat="33.809905" lon="-118.3939548">
  <ele>-37.29</ele>
  <time>2026-09-02T22:08:28Z</time>
  <course>190.23</course>
  <speed>1.0</speed>
  <fix>3d</fix>
</trkpt>
<trkpt lat="33.8099023" lon="-118.3939555">
  <ele>-38.57</ele>
  <time>2026-09-02T22:08:28Z</time>
  <course>191.21</course>
  <speed>0.9767292357659824</speed>
  <fix>3d</fix>
</trkpt>
<trkpt lat="33.8099033" lon="-118.3939552">
  <ele>-37.44</ele>
  <time>2026-09-02T22:08:28Z</time>
  <course>190.2</course>
  <speed>1.0</speed>
  <fix>3d</fix>
</trkpt>
<trkpt lat="33.8099014" lon="-118.3939557">
  <ele>-38.652</ele>
  <time>2026-09-02T22:08:28Z</time>
  <course>191.2</course>
  <speed>0.9767292357659824</speed>
  <fix>3d</fix>
</trkpt>
<trkpt lat="33.8099033" lon="-118.3939552">
  <ele>-37.44</ele>
  <time>2026-09-02T22:08:28Z</time>
  <course>190.2</course>
  <speed>1.0</speed>
  <fix>3d</fix>
</trkpt>
<trkpt lat="33.8099005" lon="-118.3939559">
  <ele>-38.734</ele>
  <time>2026-09-02T22:08:28Z</time>
  <course>191.16</course>
  <speed>0.9767292357659824</speed>
  <fix>3d</fix>
</trkpt>
<trkpt lat="33.8099014" lon="-118.3939556">
  <ele>-37.61</ele>
  <time>2026-09-02T22:08:28Z</time>
  <course>190.16</course>
  <speed>1.0</speed>
  <fix>3d</fix>
</trkpt>
<trkpt lat="33.8098996" lon="-118.3939561">
  <ele>-38.816</ele>
  <time>2026-09-02T22:08:28Z</time>
  <course>191.13</course>
  <speed>0.966902270139025</speed>
  <fix>3d</fix>
</trkpt>
<trkpt lat="33.8099014" lon="-118.3939556">
  <ele>-37.61</ele>
  <time>2026-09-02T22:08:28Z</time>
  <course>190.16</course>
  <speed>1.0</speed>
  <fix>3d</fix>
</trkpt>
<trkpt lat="33.8098987" lon="-118.3939563">
  <ele>-38.9</ele>
  <time>2026-09-02T22:08:28Z</time>
  <course>191.1</course>
  <speed>0.966902270139025</speed>
  <fix>3d</fix>
</trkpt>
<trkpt lat="33.8098997" lon="-118.3939559">
  <ele>-37.76</ele>
  <time>2026-09-02T22:08:28Z</time>
  <course>190.11</course>
  <speed>1.0</speed>
  <fix>3d</fix>
</trkpt>
<trkpt lat="33.8098979" lon="-118.3939564">
  <ele>-38.985</ele>
  <time>2026-09-02T22:08:28Z</time>
  <course>191.08</course>
  <speed>0.966902270139025</speed>
  <fix>3d</fix>
</trkpt>
<trkpt lat="33.8098997" lon="-118.3939559">
  <ele>-37.76</ele>
  <time>2026-09-02T22:08:28Z</time>
  <course>190.11</course>
  <speed>1.0</speed>
  <fix>3d</fix>
</trkpt>
<trkpt lat="33.809897" lon="-118.3939566">
  <ele>-39.07</ele>
  <time>2026-09-02T22:08:28Z</time>
  <course>191.07</course>
  <speed>0.9767292357659824</speed>
  <fix>3d</fix>
</trkpt>
<trkpt lat="33.8098979" lon="-118.3939563">
  <ele>-37.93</ele>
  <time>2026-09-02T22:08:28Z</time>
  <course>190.11</course>
  <speed>1.0</speed>
  <fix>3d</fix>
</trkpt>
<trkpt lat="33.8098961" lon="-118.3939568">
  <ele>-39.153</ele>
  <time>2026-09-02T22:08:28Z</time>
  <course>191.08</course>
  <speed>0.9767292357659824</speed>
  <fix>3d</fix>
</trkpt>
<trkpt lat="33.8098979" lon="-118.3939563">
  <ele>-37.93</ele>
  <time>2026-09-02T22:08:28Z</time>
  <course>190.11</course>
  <speed>1.0</speed>
  <fix>3d</fix>
</trkpt>
<trkpt lat="33.8098952" lon="-118.393957">
  <ele>-39.235</ele>
  <time>2026-09-02T22:08:28Z</time>
  <course>191.09</course>
  <speed>0.9767292357659824</speed>
  <fix>3d</fix>
</trkpt>
<trkpt lat="33.8098962" lon="-118.3939567">
  <ele>-38.08</ele>
  <time>2026-09-02T22:08:28Z</time>
  <course>190.14</course>
  <speed>1.0</speed>
  <fix>3d</fix>
</trkpt>
<trkpt lat="33.8098943" lon="-118.3939572">
  <ele>-39.316</ele>
  <time>2026-09-02T22:08:28Z</time>
  <course>191.1</course>
  <speed>0.9767292357659824</speed>
  <fix>3d</fix>
</trkpt>
<trkpt lat="33.8098962" lon="-118.3939567">
  <ele>-38.08</ele>
  <time>2026-09-02T22:08:28Z</time>
  <course>190.14</course>
  <speed>1.0</speed>
  <fix>3d</fix>
</trkpt>
<trkpt lat="33.8098934" lon="-118.3939574">
  <ele>-39.397</ele>
  <time>2026-09-02T22:08:28Z</time>
  <course>191.1</course>
  <speed>0.9767292357659824</speed>
  <fix>3d</fix>
</trkpt>
<trkpt lat="33.8098944" lon="-118.3939571">
  <ele>-38.25</ele>
  <time>2026-09-02T22:08:28Z</time>
  <course>190.15</course>
  <speed>1.0</speed>
  <fix>3d</fix>
</trkpt>
<trkpt lat="33.8098926" lon="-118.3939576">
  <ele>-39.479</ele>
  <time>2026-09-02T22:08:28Z</time>
  <course>191.1</course>
  <speed>0.966902270139025</speed>
  <fix>3d</fix>
</trkpt>
<trkpt lat="33.8098944" lon="-118.3939571">
  <ele>-38.25</ele>
  <time>2026-09-02T22:08:28Z</time>
  <course>190.15</course>
  <speed>1.0</speed>
  <fix>3d</fix>
</trkpt>
<trkpt lat="33.8098917" lon="-118.3939578">
  <ele>-39.562</ele>
  <time>2026-09-02T22:08:28Z</time>
  <course>191.09</course>
  <speed>0.966902270139025</speed>
  <fix>3d</fix>
</trkpt>
<trkpt lat="33.8098926" lon="-118.3939575">
  <ele>-38.41</ele>
  <time>2026-09-02T22:08:28Z</time>
  <course>190.13</course>
  <speed>1.0</speed>
  <fix>3d</fix>
</trkpt>
<trkpt lat="33.8098908" lon="-118.393958">
  <ele>-39.644</ele>
  <time>2026-09-02T22:08:28Z</time>
  <course>191.08</course>
  <speed>0.966902270139025</speed>
  <fix>3d</fix>
</trkpt>
<trkpt lat="33.8098926" lon="-118.3939575">
  <ele>-38.41</ele>
  <time>2026-09-02T22:08:28Z</time>
  <course>190.13</course>
  <speed>1.0</speed>
  <fix>3d</fix>
</trkpt>
<trkpt lat="33.8098899" lon="-118.3939582">
  <ele>-39.727</ele>
  <time>2026-09-02T22:08:28Z</time>
  <course>191.07</course>
  <speed>0.966902270139025</speed>
  <fix>3d</fix>
</trkpt>
<trkpt lat="33.8098908" lon="-118.3939578">
  <ele>-38.57</ele>
  <time>2026-09-02T22:08:28Z</time>
  <course>190.1</course>
  <speed>1.0</speed>
  <fix>3d</fix>
</trkpt>
<trkpt lat="33.809889" lon="-118.3939584">
  <ele>-39.81</ele>
  <time>2026-09-02T22:08:28Z</time>
  <course>191.07</course>
  <speed>0.966902270139025</speed>
  <fix>3d</fix>
</trkpt>
<trkpt lat="33.8098908" lon="-118.3939578">
  <ele>-38.57</ele>
  <time>2026-09-02T22:08:28Z</time>
  <course>190.1</course>
  <speed>1.0</speed>
  <fix>3d</fix>
</trkpt>
<trkpt lat="33.8098881" lon="-118.3939585">
  <ele>-39.894</ele>
  <time>2026-09-02T22:08:28Z</time>
  <course>191.07</course>
  <speed>0.966902270139025</speed>
  <fix>3d</fix>
</trkpt>
<trkpt lat="33.809889" lon="-118.3939581">
  <ele>-38.73</ele>
  <time>2026-09-02T22:08:28Z</time>
  <course>190.11</course>
  <speed>1.0</speed>
  <fix>3d</fix>
</trkpt>
<trkpt lat="33.8098872" lon="-118.3939587">
  <ele>-39.978</ele>
  <time>2026-09-02T22:08:28Z</time>
  <course>191.1</course>
  <speed>0.9688137075826292</speed>
  <fix>3d</fix>
</trkpt>
<trkpt lat="33.809889" lon="-118.3939581">
  <ele>-38.73</ele>
  <time>2026-09-02T22:08:28Z</time>
  <course>190.11</course>
  <speed>1.0</speed>
  <fix>3d</fix>
</trkpt>
<trkpt lat="33.8098864" lon="-118.3939589">
  <ele>-40.061</ele>
  <time>2026-09-02T22:08:28Z</time>
  <course>191.15</course>
  <speed>0.9688137075826292</speed>
  <fix>3d</fix>
</trkpt>
<trkpt lat="33.8098873" lon="-118.3939586">
  <ele>-38.89</ele>
  <time>2026-09-02T22:08:28Z</time>
  <course>190.19</course>
  <speed>0.99</speed>
  <fix>3d</fix>
</trkpt>
<trkpt lat="33.8098855" lon="-118.3939591">
  <ele>-40.144</ele>
  <time>2026-09-02T22:08:28Z</time>
  <course>191.21</course>
  <speed>0.9688137075826292</speed>
  <fix>3d</fix>
</trkpt>
<trkpt lat="33.8098873" lon="-118.3939586">
  <ele>-38.89</ele>
  <time>2026-09-02T22:08:28Z</time>
  <course>190.19</course>
  <speed>0.99</speed>
  <fix>3d</fix>
</trkpt>
<trkpt lat="33.8098846" lon="-118.3939593">
  <ele>-40.227</ele>
  <time>2026-09-02T22:08:29Z</time>
  <course>191.25</course>
  <speed>0.966902270139025</speed>
  <fix>3d</fix>
</trkpt>
<trkpt lat="33.8098855" lon="-118.393959">
  <ele>-39.05</ele>
  <time>2026-09-02T22:08:29Z</time>
  <course>190.26</course>
  <speed>0.99</speed>
  <fix>3d</fix>
</trkpt>
<trkpt lat="33.8098837" lon="-118.3939595">
  <ele>-40.311</ele>
  <time>2026-09-02T22:08:29Z</time>
  <course>191.26</course>
  <speed>0.966902270139025</speed>
  <fix>3d</fix>
</trkpt>
<trkpt lat="33.8098855" lon="-118.393959">
  <ele>-39.05</ele>
  <time>2026-09-02T22:08:29Z</time>
  <course>190.26</course>
  <speed>0.99</speed>
  <fix>3d</fix>
</trkpt>
<trkpt lat="33.8098828" lon="-118.3939597">
  <ele>-40.394</ele>
  <time>2026-09-02T22:08:29Z</time>
  <course>191.26</course>
  <speed>0.966902270139025</speed>
  <fix>3d</fix>
</trkpt>
<trkpt lat="33.8098837" lon="-118.3939594">
  <ele>-39.22</ele>
  <time>2026-09-02T22:08:29Z</time>
  <course>190.25</course>
  <speed>1.0</speed>
  <fix>3d</fix>
</trkpt>
<trkpt lat="33.8098819" lon="-118.3939599">
  <ele>-40.476</ele>
  <time>2026-09-02T22:08:29Z</time>
  <course>191.25</course>
  <speed>0.966902270139025</speed>
  <fix>3d</fix>
</trkpt>
<trkpt lat="33.8098837" lon="-118.3939594">
  <ele>-39.22</ele>
  <time>2026-09-02T22:08:29Z</time>
  <course>190.25</course>
  <speed>1.0</speed>
  <fix>3d</fix>
</trkpt>
<trkpt lat="33.809881" lon="-118.3939601">
  <ele>-40.557</ele>
  <time>2026-09-02T22:08:29Z</time>
  <course>191.23</course>
  <speed>0.966902270139025</speed>
  <fix>3d</fix>
</trkpt>
<trkpt lat="33.809882" lon="-118.3939598">
  <ele>-39.37</ele>
  <time>2026-09-02T22:08:29Z</time>
  <course>190.2</course>
  <speed>0.99</speed>
  <fix>3d</fix>
</trkpt>
<trkpt lat="33.8098801" lon="-118.3939603">
  <ele>-40.638</ele>
  <time>2026-09-02T22:08:29Z</time>
  <course>191.21</course>
  <speed>0.966902270139025</speed>
  <fix>3d</fix>
</trkpt>
<trkpt lat="33.809882" lon="-118.3939598">
  <ele>-39.37</ele>
  <time>2026-09-02T22:08:29Z</time>
  <course>190.2</course>
  <speed>0.99</speed>
  <fix>3d</fix>
</trkpt>
<trkpt lat="33.8098793" lon="-118.3939605">
  <ele>-40.72</ele>
  <time>2026-09-02T22:08:29Z</time>
  <course>191.18</course>
  <speed>0.966902270139025</speed>
  <fix>3d</fix>
</trkpt>
<trkpt lat="33.8098802" lon="-118.3939601">
  <ele>-39.54</ele>
  <time>2026-09-02T22:08:29Z</time>
  <course>190.15</course>
  <speed>0.99</speed>
  <fix>3d</fix>
</trkpt>
<trkpt lat="33.8098784" lon="-118.3939606">
  <ele>-40.803</ele>
  <time>2026-09-02T22:08:29Z</time>
  <course>191.16</course>
  <speed>0.966902270139025</speed>
  <fix>3d</fix>
</trkpt>
<trkpt lat="33.8098802" lon="-118.3939601">
  <ele>-39.54</ele>
  <time>2026-09-02T22:08:29Z</time>
  <course>190.15</course>
  <speed>0.99</speed>
  <fix>3d</fix>
</trkpt>
<trkpt lat="33.8098775" lon="-118.3939608">
  <ele>-40.885</ele>
  <time>2026-09-02T22:08:29Z</time>
  <course>191.15</course>
  <speed>0.966902270139025</speed>
  <fix>3d</fix>
</trkpt>
<trkpt lat="33.8098784" lon="-118.3939605">
  <ele>-39.69</ele>
  <time>2026-09-02T22:08:29Z</time>
  <course>190.12</course>
  <speed>0.99</speed>
  <fix>3d</fix>
</trkpt>
<trkpt lat="33.8098766" lon="-118.393961">
  <ele>-40.967</ele>
  <time>2026-09-02T22:08:29Z</time>
  <course>191.15</course>
  <speed>0.966902270139025</speed>
  <fix>3d</fix>
</trkpt>
<trkpt lat="33.8098784" lon="-118.3939605">
  <ele>-39.69</ele>
  <time>2026-09-02T22:08:29Z</time>
  <course>190.12</course>
  <speed>0.99</speed>
  <fix>3d</fix>
</trkpt>
<trkpt lat="33.8098757" lon="-118.3939612">
  <ele>-41.051</ele>
  <time>2026-09-02T22:08:29Z</time>
  <course>191.16</course>
  <speed>0.966902270139025</speed>
  <fix>3d</fix>
</trkpt>
<trkpt lat="33.8098767" lon="-118.3939609">
  <ele>-39.86</ele>
  <time>2026-09-02T22:08:29Z</time>
  <course>190.14</course>
  <speed>0.99</speed>
  <fix>3d</fix>
</trkpt>
<trkpt lat="33.8098749" lon="-118.3939614">
  <ele>-41.136</ele>
  <time>2026-09-02T22:08:29Z</time>
  <course>191.17</course>
  <speed>0.966902270139025</speed>
  <fix>3d</fix>
</trkpt>
<trkpt lat="33.8098767" lon="-118.3939609">
  <ele>-39.86</ele>
  <time>2026-09-02T22:08:29Z</time>
  <course>190.14</course>
  <speed>0.99</speed>
  <fix>3d</fix>
</trkpt>
<trkpt lat="33.809874" lon="-118.3939616">
  <ele>-41.221</ele>
  <time>2026-09-02T22:08:29Z</time>
  <course>191.17</course>
  <speed>0.966902270139025</speed>
  <fix>3d</fix>
</trkpt>
<trkpt lat="33.8098749" lon="-118.3939613">
  <ele>-40.02</ele>
  <time>2026-09-02T22:08:29Z</time>
  <course>190.15</course>
  <speed>0.99</speed>
  <fix>3d</fix>
</trkpt>
<trkpt lat="33.8098731" lon="-118.3939618">
  <ele>-41.304</ele>
  <time>2026-09-02T22:08:29Z</time>
  <course>191.17</course>
  <speed>0.966902270139025</speed>
  <fix>3d</fix>
</trkpt>
<trkpt lat="33.8098749" lon="-118.3939613">
  <ele>-40.02</ele>
  <time>2026-09-02T22:08:29Z</time>
  <course>190.15</course>
  <speed>0.99</speed>
  <fix>3d</fix>
</trkpt>
<trkpt lat="33.8098722" lon="-118.393962">
  <ele>-41.387</ele>
  <time>2026-09-02T22:08:29Z</time>
  <course>191.16</course>
  <speed>0.966902270139025</speed>
  <fix>3d</fix>
</trkpt>
<trkpt lat="33.8098732" lon="-118.3939617">
  <ele>-40.19</ele>
  <time>2026-09-02T22:08:29Z</time>
  <course>190.14</course>
  <speed>0.99</speed>
  <fix>3d</fix>
</trkpt>
<trkpt lat="33.8098713" lon="-118.3939622">
  <ele>-41.47</ele>
  <time>2026-09-02T22:08:29Z</time>
  <course>191.15</course>
  <speed>0.966902270139025</speed>
  <fix>3d</fix>
</trkpt>
<trkpt lat="33.8098732" lon="-118.3939617">
  <ele>-40.19</ele>
  <time>2026-09-02T22:08:29Z</time>
  <course>190.14</course>
  <speed>0.99</speed>
  <fix>3d</fix>
</trkpt>
<trkpt lat="33.8098704" lon="-118.3939624">
  <ele>-41.552</ele>
  <time>2026-09-02T22:08:29Z</time>
  <course>191.12</course>
  <speed>0.9767292357659824</speed>
  <fix>3d</fix>
</trkpt>
<trkpt lat="33.8098714" lon="-118.393962">
  <ele>-40.35</ele>
  <time>2026-09-02T22:08:29Z</time>
  <course>190.1</course>
  <speed>0.99</speed>
  <fix>3d</fix>
</trkpt>
<trkpt lat="33.8098696" lon="-118.3939626">
  <ele>-41.633</ele>
  <time>2026-09-02T22:08:29Z</time>
  <course>191.11</course>
  <speed>0.966902270139025</speed>
  <fix>3d</fix>
</trkpt>
<trkpt lat="33.8098714" lon="-118.393962">
  <ele>-40.35</ele>
  <time>2026-09-02T22:08:29Z</time>
  <course>190.1</course>
  <speed>0.99</speed>
  <fix>3d</fix>
</trkpt>
<trkpt lat="33.8098687" lon="-118.3939627">
  <ele>-41.715</ele>
  <time>2026-09-02T22:08:29Z</time>
  <course>191.11</course>
  <speed>0.966902270139025</speed>
  <fix>3d</fix>
</trkpt>
<trkpt lat="33.8098696" lon="-118.3939624">
  <ele>-40.51</ele>
  <time>2026-09-02T22:08:29Z</time>
  <course>190.08</course>
  <speed>0.99</speed>
  <fix>3d</fix>
</trkpt>
<trkpt lat="33.8098678" lon="-118.3939629">
  <ele>-41.797</ele>
  <time>2026-09-02T22:08:29Z</time>
  <course>191.12</course>
  <speed>0.966902270139025</speed>
  <fix>3d</fix>
</trkpt>
<trkpt lat="33.8098696" lon="-118.3939624">
  <ele>-40.51</ele>
  <time>2026-09-02T22:08:29Z</time>
  <course>190.08</course>
  <speed>0.99</speed>
  <fix>3d</fix>
</trkpt>
<trkpt lat="33.8098669" lon="-118.3939631">
  <ele>-41.878</ele>
  <time>2026-09-02T22:08:29Z</time>
  <course>191.14</course>
  <speed>0.966902270139025</speed>
  <fix>3d</fix>
</trkpt>
<trkpt lat="33.8098679" lon="-118.3939628">
  <ele>-40.67</ele>
  <time>2026-09-02T22:08:29Z</time>
  <course>190.11</course>
  <speed>0.99</speed>
  <fix>3d</fix>
</trkpt>
<trkpt lat="33.809866" lon="-118.3939633">
  <ele>-41.961</ele>
  <time>2026-09-02T22:08:29Z</time>
  <course>191.15</course>
  <speed>0.966902270139025</speed>
  <fix>3d</fix>
</trkpt>
<trkpt lat="33.8098679" lon="-118.3939628">
  <ele>-40.67</ele>
  <time>2026-09-02T22:08:29Z</time>
  <course>190.11</course>
  <speed>0.99</speed>
  <fix>3d</fix>
</trkpt>
<trkpt lat="33.8098651" lon="-118.3939635">
  <ele>-42.044</ele>
  <time>2026-09-02T22:08:29Z</time>
  <course>191.16</course>
  <speed>0.966902270139025</speed>
  <fix>3d</fix>
</trkpt>
<trkpt lat="33.809866" lon="-118.3939632">
  <ele>-40.83</ele>
  <time>2026-09-02T22:08:29Z</time>
  <course>190.12</course>
  <speed>0.99</speed>
  <fix>3d</fix>
</trkpt>
<trkpt lat="33.8098643" lon="-118.3939637">
  <ele>-42.129</ele>
  <time>2026-09-02T22:08:29Z</time>
  <course>191.16</course>
  <speed>0.966902270139025</speed>
  <fix>3d</fix>
</trkpt>
<trkpt lat="33.809866" lon="-118.3939632">
  <ele>-40.83</ele>
  <time>2026-09-02T22:08:29Z</time>
  <course>190.12</course>
  <speed>0.99</speed>
  <fix>3d</fix>
</trkpt>
<trkpt lat="33.8098634" lon="-118.3939639">
  <ele>-42.215</ele>
  <time>2026-09-02T22:08:29Z</time>
  <course>191.16</course>
  <speed>0.966902270139025</speed>
  <fix>3d</fix>
</trkpt>
<trkpt lat="33.8098643" lon="-118.3939635">
  <ele>-41.0</ele>
  <time>2026-09-02T22:08:29Z</time>
  <course>190.11</course>
  <speed>0.99</speed>
  <fix>3d</fix>
</trkpt>
<trkpt lat="33.8098625" lon="-118.3939641">
  <ele>-42.298</ele>
  <time>2026-09-02T22:08:29Z</time>
  <course>191.17</course>
  <speed>0.966902270139025</speed>
  <fix>3d</fix>
</trkpt>
<trkpt lat="33.8098643" lon="-118.3939635">
  <ele>-41.0</ele>
  <time>2026-09-02T22:08:29Z</time>
  <course>190.11</course>
  <speed>0.99</speed>
  <fix>3d</fix>
</trkpt>
<trkpt lat="33.8098616" lon="-118.3939643">
  <ele>-42.38</ele>
  <time>2026-09-02T22:08:29Z</time>
  <course>191.19</course>
  <speed>0.9767292357659824</speed>
  <fix>3d</fix>
</trkpt>
<trkpt lat="33.8098626" lon="-118.3939639">
  <ele>-41.16</ele>
  <time>2026-09-02T22:08:29Z</time>
  <course>190.12</course>
  <speed>0.99</speed>
  <fix>3d</fix>
</trkpt>
<trkpt lat="33.8098607" lon="-118.3939645">
  <ele>-42.461</ele>
  <time>2026-09-02T22:08:29Z</time>
  <course>191.22</course>
  <speed>0.9688137075826292</speed>
  <fix>3d</fix>
</trkpt>
<trkpt lat="33.8098626" lon="-118.3939639">
  <ele>-41.16</ele>
  <time>2026-09-02T22:08:29Z</time>
  <course>190.12</course>
  <speed>0.99</speed>
  <fix>3d</fix>
</trkpt>
<trkpt lat="33.8098598" lon="-118.3939646">
  <ele>-42.541</ele>
  <time>2026-09-02T22:08:29Z</time>
  <course>191.24</course>
  <speed>0.966902270139025</speed>
  <fix>3d</fix>
</trkpt>
<trkpt lat="33.8098608" lon="-118.3939643">
  <ele>-41.32</ele>
  <time>2026-09-02T22:08:29Z</time>
  <course>190.17</course>
  <speed>0.99</speed>
  <fix>3d</fix>
</trkpt>
<trkpt lat="33.8098589" lon="-118.3939648">
  <ele>-42.622</ele>
  <time>2026-09-02T22:08:29Z</time>
  <course>191.26</course>
  <speed>0.966902270139025</speed>
  <fix>3d</fix>
</trkpt>
<trkpt lat="33.8098608" lon="-118.3939643">
  <ele>-41.32</ele>
  <time>2026-09-02T22:08:29Z</time>
  <course>190.17</course>
  <speed>0.99</speed>
  <fix>3d</fix>
</trkpt>
<trkpt lat="33.8098581" lon="-118.393965">
  <ele>-42.703</ele>
  <time>2026-09-02T22:08:29Z</time>
  <course>191.27</course>
  <speed>0.966902270139025</speed>
  <fix>3d</fix>
</trkpt>
<trkpt lat="33.8098591" lon="-118.3939647">
  <ele>-41.48</ele>
  <time>2026-09-02T22:08:29Z</time>
  <course>190.19</course>
  <speed>0.99</speed>
  <fix>3d</fix>
</trkpt>
<trkpt lat="33.8098572" lon="-118.3939652">
  <ele>-42.785</ele>
  <time>2026-09-02T22:08:29Z</time>
  <course>191.28</course>
  <speed>0.966902270139025</speed>
  <fix>3d</fix>
</trkpt>
<trkpt lat="33.8098591" lon="-118.3939647">
  <ele>-41.48</ele>
  <time>2026-09-02T22:08:29Z</time>
  <course>190.19</course>
  <speed>0.99</speed>
  <fix>3d</fix>
</trkpt>
<trkpt lat="33.8098563" lon="-118.3939654">
  <ele>-42.867</ele>
  <time>2026-09-02T22:08:29Z</time>
  <course>191.27</course>
  <speed>0.966902270139025</speed>
  <fix>3d</fix>
</trkpt>
<trkpt lat="33.8098573" lon="-118.3939651">
  <ele>-41.65</ele>
  <time>2026-09-02T22:08:29Z</time>
  <course>190.18</course>
  <speed>0.99</speed>
  <fix>3d</fix>
</trkpt>
<trkpt lat="33.8098554" lon="-118.3939656">
  <ele>-42.951</ele>
  <time>2026-09-02T22:08:29Z</time>
  <course>191.26</course>
  <speed>0.966902270139025</speed>
  <fix>3d</fix>
</trkpt>
<trkpt lat="33.8098573" lon="-118.3939651">
  <ele>-41.65</ele>
  <time>2026-09-02T22:08:29Z</time>
  <course>190.18</course>
  <speed>0.99</speed>
  <fix>3d</fix>
</trkpt>
<trkpt lat="33.8098545" lon="-118.3939658">
  <ele>-43.035</ele>
  <time>2026-09-02T22:08:29Z</time>
  <course>191.23</course>
  <speed>0.966902270139025</speed>
  <fix>3d</fix>
</trkpt>
<trkpt lat="33.8098555" lon="-118.3939655">
  <ele>-41.81</ele>
  <time>2026-09-02T22:08:29Z</time>
  <course>190.15</course>
  <speed>0.99</speed>
  <fix>3d</fix>
</trkpt>
<trkpt lat="33.8098537" lon="-118.393966">
  <ele>-43.119</ele>
  <time>2026-09-02T22:08:29Z</time>
  <course>191.21</course>
  <speed>0.966902270139025</speed>
  <fix>3d</fix>
</trkpt>
<trkpt lat="33.8098555" lon="-118.3939655">
  <ele>-41.81</ele>
  <time>2026-09-02T22:08:29Z</time>
  <course>190.15</course>
  <speed>0.99</speed>
  <fix>3d</fix>
</trkpt>
<trkpt lat="33.8098528" lon="-118.3939662">
  <ele>-43.203</ele>
  <time>2026-09-02T22:08:29Z</time>
  <course>191.2</course>
  <speed>0.966902270139025</speed>
  <fix>3d</fix>
</trkpt>
<trkpt lat="33.8098538" lon="-118.3939658">
  <ele>-41.98</ele>
  <time>2026-09-02T22:08:29Z</time>
  <course>190.1</course>
  <speed>0.99</speed>
  <fix>3d</fix>
</trkpt>
<trkpt lat="33.8098519" lon="-118.3939664">
  <ele>-43.288</ele>
  <time>2026-09-02T22:08:29Z</time>
  <course>191.18</course>
  <speed>0.966902270139025</speed>
  <fix>3d</fix>
</trkpt>
<trkpt lat="33.8098538" lon="-118.3939658">
  <ele>-41.98</ele>
  <time>2026-09-02T22:08:29Z</time>
  <course>190.1</course>
  <speed>0.99</speed>
  <fix>3d</fix>
</trkpt>
<trkpt lat="33.809851" lon="-118.3939666">
  <ele>-43.373</ele>
  <time>2026-09-02T22:08:29Z</time>
  <course>191.18</course>
  <speed>0.9767292357659824</speed>
  <fix>3d</fix>
</trkpt>
<trkpt lat="33.8098519" lon="-118.3939662">
  <ele>-42.15</ele>
  <time>2026-09-02T22:08:29Z</time>
  <course>190.09</course>
  <speed>0.99</speed>
  <fix>3d</fix>
</trkpt>
<trkpt lat="33.8098501" lon="-118.3939667">
  <ele>-43.458</ele>
  <time>2026-09-02T22:08:29Z</time>
  <course>191.18</course>
  <speed>0.9786214794290998</speed>
  <fix>3d</fix>
</trkpt>
<trkpt lat="33.8098519" lon="-118.3939662">
  <ele>-42.15</ele>
  <time>2026-09-02T22:08:29Z</time>
  <course>190.09</course>
  <speed>0.99</speed>
  <fix>3d</fix>
</trkpt>
<trkpt lat="33.8098492" lon="-118.3939669">
  <ele>-43.542</ele>
  <time>2026-09-02T22:08:29Z</time>
  <course>191.19</course>
  <speed>0.9786214794290998</speed>
  <fix>3d</fix>
</trkpt>
<trkpt lat="33.8098502" lon="-118.3939666">
  <ele>-42.31</ele>
  <time>2026-09-02T22:08:29Z</time>
  <course>190.13</course>
  <speed>1.0</speed>
  <fix>3d</fix>
</trkpt>
<trkpt lat="33.8098484" lon="-118.3939671">
  <ele>-43.625</ele>
  <time>2026-09-02T22:08:29Z</time>
  <course>191.22</course>
  <speed>0.9786214794290998</speed>
  <fix>3d</fix>
</trkpt>
<trkpt lat="33.8098502" lon="-118.3939666">
  <ele>-42.31</ele>
  <time>2026-09-02T22:08:29Z</time>
  <course>190.13</course>
  <speed>1.0</speed>
  <fix>3d</fix>
</trkpt>
<trkpt lat="33.8098475" lon="-118.3939673">
  <ele>-43.708</ele>
  <time>2026-09-02T22:08:29Z</time>
  <course>191.23</course>
  <speed>0.9786214794290998</speed>
  <fix>3d</fix>
</trkpt>
<trkpt lat="33.8098485" lon="-118.393967">
  <ele>-42.48</ele>
  <time>2026-09-02T22:08:29Z</time>
  <course>190.16</course>
  <speed>1.0</speed>
  <fix>3d</fix>
</trkpt>
<trkpt lat="33.8098466" lon="-118.3939675">
  <ele>-43.79</ele>
  <time>2026-09-02T22:08:29Z</time>
  <course>191.23</course>
  <speed>0.9786214794290998</speed>
  <fix>3d</fix>
</trkpt>
<trkpt lat="33.8098485" lon="-118.393967">
  <ele>-42.48</ele>
  <time>2026-09-02T22:08:29Z</time>
  <course>190.16</course>
  <speed>1.0</speed>
  <fix>3d</fix>
</trkpt>
<trkpt lat="33.8098457" lon="-118.3939677">
  <ele>-43.873</ele>
  <time>2026-09-02T22:08:29Z</time>
  <course>191.22</course>
  <speed>0.9767292357659824</speed>
  <fix>3d</fix>
</trkpt>
<trkpt lat="33.8098466" lon="-118.3939674">
  <ele>-42.64</ele>
  <time>2026-09-02T22:08:29Z</time>
  <course>190.16</course>
  <speed>1.0</speed>
  <fix>3d</fix>
</trkpt>
<trkpt lat="33.8098448" lon="-118.3939679">
  <ele>-43.957</ele>
  <time>2026-09-02T22:08:29Z</time>
  <course>191.21</course>
  <speed>0.9767292357659824</speed>
  <fix>3d</fix>
</trkpt>
<trkpt lat="33.8098466" lon="-118.3939674">
  <ele>-42.64</ele>
  <time>2026-09-02T22:08:29Z</time>
  <course>190.16</course>
  <speed>1.0</speed>
  <fix>3d</fix>
</trkpt>
<trkpt lat="33.8098439" lon="-118.3939681">
  <ele>-44.039</ele>
  <time>2026-09-02T22:08:29Z</time>
  <course>191.2</course>
  <speed>0.9767292357659824</speed>
  <fix>3d</fix>
</trkpt>
<trkpt lat="33.8098449" lon="-118.3939677">
  <ele>-42.8</ele>
  <time>2026-09-02T22:08:29Z</time>
  <course>190.14</course>
  <speed>1.0</speed>
  <fix>3d</fix>
</trkpt>
<trkpt lat="33.809843" lon="-118.3939683">
  <ele>-44.12</ele>
  <time>2026-09-02T22:08:29Z</time>
  <course>191.2</course>
  <speed>0.9786214794290998</speed>
  <fix>3d</fix>
</trkpt>
<trkpt lat="33.8098449" lon="-118.3939677">
  <ele>-42.8</ele>
  <time>2026-09-02T22:08:29Z</time>
  <course>190.14</course>
  <speed>1.0</speed>
  <fix>3d</fix>
</trkpt>
<trkpt lat="33.8098421" lon="-118.3939685">
  <ele>-44.202</ele>
  <time>2026-09-02T22:08:29Z</time>
  <course>191.2</course>
  <speed>0.9786214794290998</speed>
  <fix>3d</fix>
</trkpt>
<trkpt lat="33.8098431" lon="-118.3939681">
  <ele>-42.96</ele>
  <time>2026-09-02T22:08:29Z</time>
  <course>190.14</course>
  <speed>1.0</speed>
  <fix>3d</fix>
</trkpt>
<trkpt lat="33.8098412" lon="-118.3939687">
  <ele>-44.284</ele>
  <time>2026-09-02T22:08:29Z</time>
  <course>191.22</course>
  <speed>0.9688137075826292</speed>
  <fix>3d</fix>
</trkpt>
<trkpt lat="33.8098431" lon="-118.3939681">
  <ele>-42.96</ele>
  <time>2026-09-02T22:08:29Z</time>
  <course>190.14</course>
  <speed>1.0</speed>
  <fix>3d</fix>
</trkpt>
<trkpt lat="33.8098404" lon="-118.3939688">
  <ele>-44.367</ele>
  <time>2026-09-02T22:08:29Z</time>
  <course>191.23</course>
  <speed>0.9688137075826292</speed>
  <fix>3d</fix>
</trkpt>
<trkpt lat="33.8098413" lon="-118.3939685">
  <ele>-43.12</ele>
  <time>2026-09-02T22:08:29Z</time>
  <course>190.17</course>
  <speed>0.99</speed>
  <fix>3d</fix>
</trkpt>
<trkpt lat="33.8098395" lon="-118.393969">
  <ele>-44.45</ele>
  <time>2026-09-02T22:08:29Z</time>
  <course>191.25</course>
  <speed>0.9688137075826292</speed>
  <fix>3d</fix>
</trkpt>
<trkpt lat="33.8098413" lon="-118.3939685">
  <ele>-43.12</ele>
  <time>2026-09-02T22:08:29Z</time>
  <course>190.17</course>
  <speed>0.99</speed>
  <fix>3d</fix>
</trkpt>
<trkpt lat="33.8098386" lon="-118.3939692">
  <ele>-44.533</ele>
  <time>2026-09-02T22:08:29Z</time>
  <course>191.27</course>
  <speed>0.9688137075826292</speed>
  <fix>3d</fix>
</trkpt>
<trkpt lat="33.8098396" lon="-118.3939689">
  <ele>-43.28</ele>
  <time>2026-09-02T22:08:29Z</time>
  <course>190.19</course>
  <speed>0.99</speed>
  <fix>3d</fix>
</trkpt>
<trkpt lat="33.8098377" lon="-118.3939694">
  <ele>-44.615</ele>
  <time>2026-09-02T22:08:29Z</time>
  <course>191.27</course>
  <speed>0.9688137075826292</speed>
  <fix>3d</fix>
</trkpt>
<trkpt lat="33.8098396" lon="-118.3939689">
  <ele>-43.28</ele>
  <time>2026-09-02T22:08:29Z</time>
  <course>190.19</course>
  <speed>0.99</speed>
  <fix>3d</fix>
</trkpt>
<trkpt lat="33.8098368" lon="-118.3939696">
  <ele>-44.696</ele>
  <time>2026-09-02T22:08:29Z</time>
  <course>191.28</course>
  <speed>0.966902270139025</speed>
  <fix>3d</fix>
</trkpt>
<trkpt lat="33.8098378" lon="-118.3939693">
  <ele>-43.44</ele>
  <time>2026-09-02T22:08:29Z</time>
  <course>190.2</course>
  <speed>0.99</speed>
  <fix>3d</fix>
</trkpt>
<trkpt lat="33.8098359" lon="-118.3939698">
  <ele>-44.778</ele>
  <time>2026-09-02T22:08:29Z</time>
  <course>191.27</course>
  <speed>0.966902270139025</speed>
  <fix>3d</fix>
</trkpt>
<trkpt lat="33.8098378" lon="-118.3939693">
  <ele>-43.44</ele>
  <time>2026-09-02T22:08:29Z</time>
  <course>190.2</course>
  <speed>0.99</speed>
  <fix>3d</fix>
</trkpt>
<trkpt lat="33.8098351" lon="-118.39397">
  <ele>-44.861</ele>
  <time>2026-09-02T22:08:29Z</time>
  <course>191.25</course>
  <speed>0.966902270139025</speed>
  <fix>3d</fix>
</trkpt>
<trkpt lat="33.8098361" lon="-118.3939696">
  <ele>-43.6</ele>
  <time>2026-09-02T22:08:29Z</time>
  <course>190.18</course>
  <speed>0.99</speed>
  <fix>3d</fix>
</trkpt>
<trkpt lat="33.8098342" lon="-118.3939702">
  <ele>-44.945</ele>
  <time>2026-09-02T22:08:29Z</time>
  <course>191.24</course>
  <speed>0.966902270139025</speed>
  <fix>3d</fix>
</trkpt>
<trkpt lat="33.8098361" lon="-118.3939696">
  <ele>-43.6</ele>
  <time>2026-09-02T22:08:29Z</time>
  <course>190.18</course>
  <speed>0.99</speed>
  <fix>3d</fix>
</trkpt>
<trkpt lat="33.8098333" lon="-118.3939704">
  <ele>-45.029</ele>
  <time>2026-09-02T22:08:29Z</time>
  <course>191.24</course>
  <speed>0.966902270139025</speed>
  <fix>3d</fix>
</trkpt>
<trkpt lat="33.8098343" lon="-118.39397">
  <ele>-43.76</ele>
  <time>2026-09-02T22:08:29Z</time>
  <course>190.17</course>
  <speed>0.99</speed>
  <fix>3d</fix>
</trkpt>
<trkpt lat="33.8098324" lon="-118.3939706">
  <ele>-45.111</ele>
  <time>2026-09-02T22:08:29Z</time>
  <course>191.25</course>
  <speed>0.9688137075826292</speed>
  <fix>3d</fix>
</trkpt>
<trkpt lat="33.8098343" lon="-118.39397">
  <ele>-43.76</ele>
  <time>2026-09-02T22:08:29Z</time>
  <course>190.17</course>
  <speed>0.99</speed>
  <fix>3d</fix>
</trkpt>
<trkpt lat="33.8098315" lon="-118.3939708">
  <ele>-45.193</ele>
  <time>2026-09-02T22:08:29Z</time>
  <course>191.25</course>
  <speed>0.9688137075826292</speed>
  <fix>3d</fix>
</trkpt>
<trkpt lat="33.8098325" lon="-118.3939704">
  <ele>-43.93</ele>
  <time>2026-09-02T22:08:29Z</time>
  <course>190.19</course>
  <speed>0.99</speed>
  <fix>3d</fix>
</trkpt>
<trkpt lat="33.8098306" lon="-118.3939709">
  <ele>-45.275</ele>
  <time>2026-09-02T22:08:29Z</time>
  <course>191.27</course>
  <speed>0.9688137075826292</speed>
  <fix>3d</fix>
</trkpt>
<trkpt lat="33.8098325" lon="-118.3939704">
  <ele>-43.93</ele>
  <time>2026-09-02T22:08:29Z</time>
  <course>190.19</course>
  <speed>0.99</speed>
  <fix>3d</fix>
</trkpt>
<trkpt lat="33.8098298" lon="-118.3939711">
  <ele>-45.357</ele>
  <time>2026-09-02T22:08:29Z</time>
  <course>191.28</course>
  <speed>0.966902270139025</speed>
  <fix>3d</fix>
</trkpt>
<trkpt lat="33.8098308" lon="-118.3939708">
  <ele>-44.08</ele>
  <time>2026-09-02T22:08:29Z</time>
  <course>190.22</course>
  <speed>0.99</speed>
  <fix>3d</fix>
</trkpt>
<trkpt lat="33.8098289" lon="-118.3939713">
  <ele>-45.441</ele>
  <time>2026-09-02T22:08:29Z</time>
  <course>191.29</course>
  <speed>0.966902270139025</speed>
  <fix>3d</fix>
</trkpt>
<trkpt lat="33.8098308" lon="-118.3939708">
  <ele>-44.08</ele>
  <time>2026-09-02T22:08:29Z</time>
  <course>190.22</course>
  <speed>0.99</speed>
  <fix>3d</fix>
</trkpt>
<trkpt lat="33.809828" lon="-118.3939715">
  <ele>-45.524</ele>
  <time>2026-09-02T22:08:29Z</time>
  <course>191.28</course>
  <speed>0.966902270139025</speed>
  <fix>3d</fix>
</trkpt>
<trkpt lat="33.809829" lon="-118.3939712">
  <ele>-44.25</ele>
  <time>2026-09-02T22:08:29Z</time>
  <course>190.2</course>
  <speed>0.99</speed>
  <fix>3d</fix>
</trkpt>
<trkpt lat="33.8098271" lon="-118.3939717">
  <ele>-45.609</ele>
  <time>2026-09-02T22:08:29Z</time>
  <course>191.27</course>
  <speed>0.9767292357659824</speed>
  <fix>3d</fix>
</trkpt>
<trkpt lat="33.809829" lon="-118.3939712">
  <ele>-44.25</ele>
  <time>2026-09-02T22:08:29Z</time>
  <course>190.2</course>
  <speed>0.99</speed>
  <fix>3d</fix>
</trkpt>
<trkpt lat="33.8098262" lon="-118.3939719">
  <ele>-45.692</ele>
  <time>2026-09-02T22:08:29Z</time>
  <course>191.25</course>
  <speed>0.9767292357659824</speed>
  <fix>3d</fix>
</trkpt>
<trkpt lat="33.8098272" lon="-118.3939715">
  <ele>-44.41</ele>
  <time>2026-09-02T22:08:29Z</time>
  <course>190.16</course>
  <speed>0.99</speed>
  <fix>3d</fix>
</trkpt>
<trkpt lat="33.8098253" lon="-118.3939721">
  <ele>-45.776</ele>
  <time>2026-09-02T22:08:29Z</time>
  <course>191.24</course>
  <speed>0.9786214794290998</speed>
  <fix>3d</fix>
</trkpt>
<trkpt lat="33.8098272" lon="-118.3939715">
  <ele>-44.41</ele>
  <time>2026-09-02T22:08:29Z</time>
  <course>190.16</course>
  <speed>0.99</speed>
  <fix>3d</fix>
</trkpt>
<trkpt lat="33.8098245" lon="-118.3939723">
  <ele>-45.86</ele>
  <time>2026-09-02T22:08:29Z</time>
  <course>191.25</course>
  <speed>0.9786214794290998</speed>
  <fix>3d</fix>
</trkpt>
<trkpt lat="33.8098255" lon="-118.3939719">
  <ele>-44.58</ele>
  <time>2026-09-02T22:08:29Z</time>
  <course>190.17</course>
  <speed>1.0</speed>
  <fix>3d</fix>
</trkpt>
<trkpt lat="33.8098236" lon="-118.3939725">
  <ele>-45.942</ele>
  <time>2026-09-02T22:08:29Z</time>
  <course>191.26</course>
  <speed>0.9786214794290998</speed>
  <fix>3d</fix>
</trkpt>
<trkpt lat="33.8098255" lon="-118.3939719">
  <ele>-44.58</ele>
  <time>2026-09-02T22:08:29Z</time>
  <course>190.17</course>
  <speed>1.0</speed>
  <fix>3d</fix>
</trkpt>
<trkpt lat="33.8098227" lon="-118.3939727">
  <ele>-46.025</ele>
  <time>2026-09-02T22:08:29Z</time>
  <course>191.28</course>
  <speed>0.9786214794290998</speed>
  <fix>3d</fix>
</trkpt>
<trkpt lat="33.8098236" lon="-118.3939723">
  <ele>-44.73</ele>
  <time>2026-09-02T22:08:29Z</time>
  <course>190.21</course>
  <speed>1.0</speed>
  <fix>3d</fix>
</trkpt>
<trkpt lat="33.8098218" lon="-118.3939729">
  <ele>-46.108</ele>
  <time>2026-09-02T22:08:29Z</time>
  <course>191.3</course>
  <speed>0.9786214794290998</speed>
  <fix>3d</fix>
</trkpt>
<trkpt lat="33.8098236" lon="-118.3939723">
  <ele>-44.73</ele>
  <time>2026-09-02T22:08:29Z</time>
  <course>190.21</course>
  <speed>1.0</speed>
  <fix>3d</fix>
</trkpt>
<trkpt lat="33.8098209" lon="-118.393973">
  <ele>-46.19</ele>
  <time>2026-09-02T22:08:29Z</time>
  <course>191.31</course>
  <speed>0.9786214794290998</speed>
  <fix>3d</fix>
</trkpt>
<trkpt lat="33.8098219" lon="-118.3939727">
  <ele>-44.9</ele>
  <time>2026-09-02T22:08:29Z</time>
  <course>190.23</course>
  <speed>1.0</speed>
  <fix>3d</fix>
</trkpt>
<trkpt lat="33.80982" lon="-118.3939732">
  <ele>-46.272</ele>
  <time>2026-09-02T22:08:29Z</time>
  <course>191.33</course>
  <speed>0.9688137075826292</speed>
  <fix>3d</fix>
</trkpt>
<trkpt lat="33.8098219" lon="-118.3939727">
  <ele>-44.9</ele>
  <time>2026-09-02T22:08:29Z</time>
  <course>190.23</course>
  <speed>1.0</speed>
  <fix>3d</fix>
</trkpt>
<trkpt lat="33.8098191" lon="-118.3939734">
  <ele>-46.353</ele>
  <time>2026-09-02T22:08:29Z</time>
  <course>191.33</course>
  <speed>0.9786214794290998</speed>
  <fix>3d</fix>
</trkpt>
<trkpt lat="33.8098202" lon="-118.3939731">
  <ele>-45.05</ele>
  <time>2026-09-02T22:08:29Z</time>
  <course>190.23</course>
  <speed>0.99</speed>
  <fix>3d</fix>
</trkpt>
<trkpt lat="33.8098182" lon="-118.3939736">
  <ele>-46.435</ele>
  <time>2026-09-02T22:08:29Z</time>
  <course>191.33</course>
  <speed>0.9688137075826292</speed>
  <fix>3d</fix>
</trkpt>
<trkpt lat="33.8098202" lon="-118.3939731">
  <ele>-45.05</ele>
  <time>2026-09-02T22:08:29Z</time>
  <course>190.23</course>
  <speed>0.99</speed>
  <fix>3d</fix>
</trkpt>
<trkpt lat="33.8098174" lon="-118.3939738">
  <ele>-46.516</ele>
  <time>2026-09-02T22:08:29Z</time>
  <course>191.31</course>
  <speed>0.966902270139025</speed>
  <fix>3d</fix>
</trkpt>
<trkpt lat="33.8098184" lon="-118.3939734">
  <ele>-45.22</ele>
  <time>2026-09-02T22:08:29Z</time>
  <course>190.22</course>
  <speed>0.99</speed>
  <fix>3d</fix>
</trkpt>
<trkpt lat="33.8098165" lon="-118.393974">
  <ele>-46.598</ele>
  <time>2026-09-02T22:08:29Z</time>
  <course>191.3</course>
  <speed>0.9688137075826292</speed>
  <fix>3d</fix>
</trkpt>
<trkpt lat="33.8098184" lon="-118.3939734">
  <ele>-45.22</ele>
  <time>2026-09-02T22:08:29Z</time>
  <course>190.22</course>
  <speed>0.99</speed>
  <fix>3d</fix>
</trkpt>
<trkpt lat="33.8098156" lon="-118.3939742">
  <ele>-46.681</ele>
  <time>2026-09-02T22:08:29Z</time>
  <course>191.29</course>
  <speed>0.966902270139025</speed>
  <fix>3d</fix>
</trkpt>
<trkpt lat="33.8098166" lon="-118.3939739">
  <ele>-45.37</ele>
  <time>2026-09-02T22:08:29Z</time>
  <course>190.22</course>
  <speed>0.99</speed>
  <fix>3d</fix>
</trkpt>
<trkpt lat="33.8098147" lon="-118.3939744">
  <ele>-46.764</ele>
  <time>2026-09-02T22:08:29Z</time>
  <course>191.29</course>
  <speed>0.966902270139025</speed>
  <fix>3d</fix>
</trkpt>
<trkpt lat="33.8098166" lon="-118.3939739">
  <ele>-45.37</ele>
  <time>2026-09-02T22:08:29Z</time>
  <course>190.22</course>
  <speed>0.99</speed>
  <fix>3d</fix>
</trkpt>
<trkpt lat="33.8098138" lon="-118.3939746">
  <ele>-46.847</ele>
  <time>2026-09-02T22:08:29Z</time>
  <course>191.28</course>
  <speed>0.966902270139025</speed>
  <fix>3d</fix>
</trkpt>
<trkpt lat="33.8098148" lon="-118.3939742">
  <ele>-45.54</ele>
  <time>2026-09-02T22:08:29Z</time>
  <course>190.21</course>
  <speed>0.99</speed>
  <fix>3d</fix>
</trkpt>
<trkpt lat="33.809813" lon="-118.3939748">
  <ele>-46.93</ele>
  <time>2026-09-02T22:08:29Z</time>
  <course>191.26</course>
  <speed>0.966902270139025</speed>
  <fix>3d</fix>
</trkpt>
<trkpt lat="33.8098148" lon="-118.3939742">
  <ele>-45.54</ele>
  <time>2026-09-02T22:08:29Z</time>
  <course>190.21</course>
  <speed>0.99</speed>
  <fix>3d</fix>
</trkpt>
<trkpt lat="33.8098121" lon="-118.393975">
  <ele>-47.013</ele>
  <time>2026-09-02T22:08:29Z</time>
  <course>191.25</course>
  <speed>0.966902270139025</speed>
  <fix>3d</fix>
</trkpt>
<trkpt lat="33.8098131" lon="-118.3939746">
  <ele>-45.69</ele>
  <time>2026-09-02T22:08:29Z</time>
  <course>190.19</course>
  <speed>0.99</speed>
  <fix>3d</fix>
</trkpt>
<trkpt lat="33.8098112" lon="-118.3939751">
  <ele>-47.096</ele>
  <time>2026-09-02T22:08:29Z</time>
  <course>191.26</course>
  <speed>0.9688137075826292</speed>
  <fix>3d</fix>
</trkpt>
<trkpt lat="33.8098131" lon="-118.3939746">
  <ele>-45.69</ele>
  <time>2026-09-02T22:08:29Z</time>
  <course>190.19</course>
  <speed>0.99</speed>
  <fix>3d</fix>
</trkpt>
<trkpt lat="33.8098103" lon="-118.3939753">
  <ele>-47.179</ele>
  <time>2026-09-02T22:08:29Z</time>
  <course>191.26</course>
  <speed>0.966902270139025</speed>
  <fix>3d</fix>
</trkpt>
<trkpt lat="33.8098114" lon="-118.393975">
  <ele>-45.86</ele>
  <time>2026-09-02T22:08:29Z</time>
  <course>190.2</course>
  <speed>0.99</speed>
  <fix>3d</fix>
</trkpt>
<trkpt lat="33.8098094" lon="-118.3939755">
  <ele>-47.263</ele>
  <time>2026-09-02T22:08:29Z</time>
  <course>191.25</course>
  <speed>0.9688137075826292</speed>
  <fix>3d</fix>
</trkpt>
<trkpt lat="33.8098114" lon="-118.393975">
  <ele>-45.86</ele>
  <time>2026-09-02T22:08:29Z</time>
  <course>190.2</course>
  <speed>0.99</speed>
  <fix>3d</fix>
</trkpt>
<trkpt lat="33.8098085" lon="-118.3939757">
  <ele>-47.348</ele>
  <time>2026-09-02T22:08:29Z</time>
  <course>191.24</course>
  <speed>0.9786214794290998</speed>
  <fix>3d</fix>
</trkpt>
<trkpt lat="33.8098095" lon="-118.3939753">
  <ele>-46.03</ele>
  <time>2026-09-02T22:08:29Z</time>
  <course>190.19</course>
  <speed>0.99</speed>
  <fix>3d</fix>
</trkpt>
<trkpt lat="33.8098076" lon="-118.3939759">
  <ele>-47.432</ele>
  <time>2026-09-02T22:08:29Z</time>
  <course>191.23</course>
  <speed>0.9786214794290998</speed>
  <fix>3d</fix>
</trkpt>
<trkpt lat="33.8098095" lon="-118.3939753">
  <ele>-46.03</ele>
  <time>2026-09-02T22:08:29Z</time>
  <course>190.19</course>
  <speed>0.99</speed>
  <fix>3d</fix>
</trkpt>
<trkpt lat="33.8098068" lon="-118.3939761">
  <ele>-47.516</ele>
  <time>2026-09-02T22:08:29Z</time>
  <course>191.24</course>
  <speed>0.9786214794290998</speed>
  <fix>3d</fix>
</trkpt>
<trkpt lat="33.8098078" lon="-118.3939758">
  <ele>-46.19</ele>
  <time>2026-09-02T22:08:29Z</time>
  <course>190.2</course>
  <speed>1.0</speed>
  <fix>3d</fix>
</trkpt>
<trkpt lat="33.8098059" lon="-118.3939763">
  <ele>-47.6</ele>
  <time>2026-09-02T22:08:29Z</time>
  <course>191.26</course>
  <speed>0.9786214794290998</speed>
  <fix>3d</fix>
</trkpt>
<trkpt lat="33.8098078" lon="-118.3939758">
  <ele>-46.19</ele>
  <time>2026-09-02T22:08:29Z</time>
  <course>190.2</course>
  <speed>1.0</speed>
  <fix>3d</fix>
</trkpt>
<trkpt lat="33.809805" lon="-118.3939765">
  <ele>-47.682</ele>
  <time>2026-09-02T22:08:29Z</time>
  <course>191.26</course>
  <speed>0.9786214794290998</speed>
  <fix>3d</fix>
</trkpt>
<trkpt lat="33.8098061" lon="-118.3939761">
  <ele>-46.35</ele>
  <time>2026-09-02T22:08:29Z</time>
  <course>190.22</course>
  <speed>1.0</speed>
  <fix>3d</fix>
</trkpt>
<trkpt lat="33.8098041" lon="-118.3939767">
  <ele>-47.763</ele>
  <time>2026-09-02T22:08:29Z</time>
  <course>191.26</course>
  <speed>0.9786214794290998</speed>
  <fix>3d</fix>
</trkpt>
<trkpt lat="33.8098061" lon="-118.3939761">
  <ele>-46.35</ele>
  <time>2026-09-02T22:08:29Z</time>
  <course>190.22</course>
  <speed>1.0</speed>
  <fix>3d</fix>
</trkpt>
<trkpt lat="33.8098032" lon="-118.3939769">
  <ele>-47.844</ele>
  <time>2026-09-02T22:08:29Z</time>
  <course>191.24</course>
  <speed>0.9786214794290998</speed>
  <fix>3d</fix>
</trkpt>
<trkpt lat="33.8098042" lon="-118.3939765">
  <ele>-46.5</ele>
  <time>2026-09-02T22:08:29Z</time>
  <course>190.2</course>
  <speed>1.0</speed>
  <fix>3d</fix>
</trkpt>
<trkpt lat="33.8098023" lon="-118.3939771">
  <ele>-47.925</ele>
  <time>2026-09-02T22:08:29Z</time>
  <course>191.24</course>
  <speed>0.9786214794290998</speed>
  <fix>3d</fix>
</trkpt>
<trkpt lat="33.8098042" lon="-118.3939765">
  <ele>-46.5</ele>
  <time>2026-09-02T22:08:29Z</time>
  <course>190.2</course>
  <speed>1.0</speed>
  <fix>3d</fix>
</trkpt>
<trkpt lat="33.8098015" lon="-118.3939772">
  <ele>-48.005</ele>
  <time>2026-09-02T22:08:29Z</time>
  <course>191.24</course>
  <speed>0.9688137075826292</speed>
  <fix>3d</fix>
</trkpt>
<trkpt lat="33.8098025" lon="-118.3939769">
  <ele>-46.66</ele>
  <time>2026-09-02T22:08:29Z</time>
  <course>190.21</course>
  <speed>1.0</speed>
  <fix>3d</fix>
</trkpt>
<trkpt lat="33.8098006" lon="-118.3939774">
  <ele>-48.084</ele>
  <time>2026-09-02T22:08:29Z</time>
  <course>191.25</course>
  <speed>0.9688137075826292</speed>
  <fix>3d</fix>
</trkpt>
<trkpt lat="33.8098025" lon="-118.3939769">
  <ele>-46.66</ele>
  <time>2026-09-02T22:08:29Z</time>
  <course>190.21</course>
  <speed>1.0</speed>
  <fix>3d</fix>
</trkpt>
<trkpt lat="33.8097997" lon="-118.3939776">
  <ele>-48.165</ele>
  <time>2026-09-02T22:08:29Z</time>
  <course>191.24</course>
  <speed>0.966902270139025</speed>
  <fix>3d</fix>
</trkpt>
<trkpt lat="33.8098007" lon="-118.3939773">
  <ele>-46.82</ele>
  <time>2026-09-02T22:08:29Z</time>
  <course>190.22</course>
  <speed>0.99</speed>
  <fix>3d</fix>
</trkpt>
<trkpt lat="33.8097988" lon="-118.3939778">
  <ele>-48.248</ele>
  <time>2026-09-02T22:08:29Z</time>
  <course>191.24</course>
  <speed>0.966902270139025</speed>
  <fix>3d</fix>
</trkpt>
<trkpt lat="33.8098007" lon="-118.3939773">
  <ele>-46.82</ele>
  <time>2026-09-02T22:08:29Z</time>
  <course>190.22</course>
  <speed>0.99</speed>
  <fix>3d</fix>
</trkpt>
<trkpt lat="33.8097979" lon="-118.393978">
  <ele>-48.332</ele>
  <time>2026-09-02T22:08:29Z</time>
  <course>191.23</course>
  <speed>0.966902270139025</speed>
  <fix>3d</fix>
</trkpt>
<trkpt lat="33.809799" lon="-118.3939777">
  <ele>-46.98</ele>
  <time>2026-09-02T22:08:29Z</time>
  <course>190.2</course>
  <speed>0.99</speed>
  <fix>3d</fix>
</trkpt>
<trkpt lat="33.8097971" lon="-118.3939782">
  <ele>-48.416</ele>
  <time>2026-09-02T22:08:29Z</time>
  <course>191.21</course>
  <speed>0.966902270139025</speed>
  <fix>3d</fix>
</trkpt>
<trkpt lat="33.809799" lon="-118.3939777">
  <ele>-46.98</ele>
  <time>2026-09-02T22:08:29Z</time>
  <course>190.2</course>
  <speed>0.99</speed>
  <fix>3d</fix>
</trkpt>
<trkpt lat="33.8097962" lon="-118.3939784">
  <ele>-48.498</ele>
  <time>2026-09-02T22:08:29Z</time>
  <course>191.18</course>
  <speed>0.966902270139025</speed>
  <fix>3d</fix>
</trkpt>
<trkpt lat="33.8097972" lon="-118.3939781">
  <ele>-47.15</ele>
  <time>2026-09-02T22:08:29Z</time>
  <course>190.16</course>
  <speed>0.99</speed>
  <fix>3d</fix>
</trkpt>
<trkpt lat="33.8097953" lon="-118.3939786">
  <ele>-48.581</ele>
  <time>2026-09-02T22:08:29Z</time>
  <course>191.16</course>
  <speed>0.966902270139025</speed>
  <fix>3d</fix>
</trkpt>
<trkpt lat="33.8097972" lon="-118.3939781">
  <ele>-47.15</ele>
  <time>2026-09-02T22:08:29Z</time>
  <course>190.16</course>
  <speed>0.99</speed>
  <fix>3d</fix>
</trkpt>
<trkpt lat="33.8097944" lon="-118.3939788">
  <ele>-48.665</ele>
  <time>2026-09-02T22:08:29Z</time>
  <course>191.12</course>
  <speed>0.966902270139025</speed>
  <fix>3d</fix>
</trkpt>
<trkpt lat="33.8097954" lon="-118.3939784">
  <ele>-47.31</ele>
  <time>2026-09-02T22:08:29Z</time>
  <course>190.12</course>
  <speed>0.99</speed>
  <fix>3d</fix>
</trkpt>
<trkpt lat="33.8097935" lon="-118.393979">
  <ele>-48.748</ele>
  <time>2026-09-02T22:08:29Z</time>
  <course>191.1</course>
  <speed>0.966902270139025</speed>
  <fix>3d</fix>
</trkpt>
<trkpt lat="33.8097954" lon="-118.3939784">
  <ele>-47.31</ele>
  <time>2026-09-02T22:08:29Z</time>
  <course>190.12</course>
  <speed>0.99</speed>
  <fix>3d</fix>
</trkpt>
<trkpt lat="33.8097926" lon="-118.3939792">
  <ele>-48.832</ele>
  <time>2026-09-02T22:08:29Z</time>
  <course>191.11</course>
  <speed>0.966902270139025</speed>
  <fix>3d</fix>
</trkpt>
<trkpt lat="33.8097937" lon="-118.3939788">
  <ele>-47.48</ele>
  <time>2026-09-02T22:08:29Z</time>
  <course>190.1</course>
  <speed>0.99</speed>
  <fix>3d</fix>
</trkpt>
<trkpt lat="33.8097918" lon="-118.3939793">
  <ele>-48.916</ele>
  <time>2026-09-02T22:08:29Z</time>
  <course>191.11</course>
  <speed>0.966902270139025</speed>
  <fix>3d</fix>
</trkpt>
<trkpt lat="33.8097937" lon="-118.3939788">
  <ele>-47.48</ele>
  <time>2026-09-02T22:08:29Z</time>
  <course>190.1</course>
  <speed>0.99</speed>
  <fix>3d</fix>
</trkpt>
<trkpt lat="33.8097909" lon="-118.3939795">
  <ele>-48.999</ele>
  <time>2026-09-02T22:08:29Z</time>
  <course>191.11</course>
  <speed>0.9767292357659824</speed>
  <fix>3d</fix>
</trkpt>
<trkpt lat="33.8097919" lon="-118.3939792">
  <ele>-47.64</ele>
  <time>2026-09-02T22:08:29Z</time>
  <course>190.12</course>
  <speed>0.99</speed>
  <fix>3d</fix>
</trkpt>
<trkpt lat="33.80979" lon="-118.3939797">
  <ele>-49.084</ele>
  <time>2026-09-02T22:08:29Z</time>
  <course>191.12</course>
  <speed>0.966902270139025</speed>
  <fix>3d</fix>
</trkpt>
<trkpt lat="33.8097919" lon="-118.3939792">
  <ele>-47.64</ele>
  <time>2026-09-02T22:08:29Z</time>
  <course>190.12</course>
  <speed>0.99</speed>
  <fix>3d</fix>
</trkpt>
<trkpt lat="33.8097891" lon="-118.3939799">
  <ele>-49.168</ele>
  <time>2026-09-02T22:08:29Z</time>
  <course>191.12</course>
  <speed>0.966902270139025</speed>
  <fix>3d</fix>
</trkpt>
<trkpt lat="33.8097901" lon="-118.3939796">
  <ele>-47.8</ele>
  <time>2026-09-02T22:08:29Z</time>
  <course>190.13</course>
  <speed>0.99</speed>
  <fix>3d</fix>
</trkpt>
<trkpt lat="33.8097882" lon="-118.3939801">
  <ele>-49.251</ele>
  <time>2026-09-02T22:08:29Z</time>
  <course>191.12</course>
  <speed>0.9570788891204319</speed>
  <fix>3d</fix>
</trkpt>
<trkpt lat="33.8097901" lon="-118.3939796">
  <ele>-47.8</ele>
  <time>2026-09-02T22:08:29Z</time>
  <course>190.13</course>
  <speed>0.99</speed>
  <fix>3d</fix>
</trkpt>
<trkpt lat="33.8097874" lon="-118.3939803">
  <ele>-49.334</ele>
  <time>2026-09-02T22:08:29Z</time>
  <course>191.12</course>
  <speed>0.9472592042308166</speed>
  <fix>3d</fix>
</trkpt>
<trkpt lat="33.8097884" lon="-118.39398">
  <ele>-47.97</ele>
  <time>2026-09-02T22:08:29Z</time>
  <course>190.13</course>
  <speed>0.99</speed>
  <fix>3d</fix>
</trkpt>
<trkpt lat="33.8097865" lon="-118.3939805">
  <ele>-49.414</ele>
  <time>2026-09-02T22:08:29Z</time>
  <course>191.11</course>
  <speed>0.9374433316206372</speed>
  <fix>3d</fix>
</trkpt>
<trkpt lat="33.8097884" lon="-118.39398">
  <ele>-47.97</ele>
  <time>2026-09-02T22:08:29Z</time>
  <course>190.13</course>
  <speed>0.99</speed>
  <fix>3d</fix>
</trkpt>
<trkpt lat="33.8097857" lon="-118.3939807">
  <ele>-49.491</ele>
  <time>2026-09-02T22:08:29Z</time>
  <course>191.12</course>
  <speed>0.9159148432032315</speed>
  <fix>3d</fix>
</trkpt>
<trkpt lat="33.8097866" lon="-118.3939803">
  <ele>-48.12</ele>
  <time>2026-09-02T22:08:29Z</time>
  <course>190.14</course>
  <speed>0.97</speed>
  <fix>3d</fix>
</trkpt>
<trkpt lat="33.8097849" lon="-118.3939808">
  <ele>-49.565</ele>
  <time>2026-09-02T22:08:29Z</time>
  <course>191.13</course>
  <speed>0.8864536084872124</speed>
  <fix>3d</fix>
</trkpt>
<trkpt lat="33.8097866" lon="-118.3939803">
  <ele>-48.12</ele>
  <time>2026-09-02T22:08:29Z</time>
  <course>190.14</course>
  <speed>0.97</speed>
  <fix>3d</fix>
</trkpt>
<trkpt lat="33.8097841" lon="-118.393981">
  <ele>-49.634</ele>
  <time>2026-09-02T22:08:29Z</time>
  <course>191.17</course>
  <speed>0.8354639429682169</speed>
  <fix>3d</fix>
</trkpt>
<trkpt lat="33.809785" lon="-118.3939806">
  <ele>-48.27</ele>
  <time>2026-09-02T22:08:29Z</time>
  <course>190.19</course>
  <speed>0.93</speed>
  <fix>3d</fix>
</trkpt>
<trkpt lat="33.8097833" lon="-118.3939812">
  <ele>-49.698</ele>
  <time>2026-09-02T22:08:29Z</time>
  <course>191.24</course>
  <speed>0.7844743462982074</speed>
  <fix>3d</fix>
</trkpt>
<trkpt lat="33.809785" lon="-118.3939806">
  <ele>-48.27</ele>
  <time>2026-09-02T22:08:29Z</time>
  <course>190.19</course>
  <speed>0.93</speed>
  <fix>3d</fix>
</trkpt>
<trkpt lat="33.8097827" lon="-118.3939813">
  <ele>-49.758</ele>
  <time>2026-09-02T22:08:29Z</time>
  <course>191.37</course>
  <speed>0.723671196055225</speed>
  <fix>3d</fix>
</trkpt>
<trkpt lat="33.8097834" lon="-118.393981">
  <ele>-48.4</ele>
  <time>2026-09-02T22:08:29Z</time>
  <course>190.33</course>
  <speed>0.85</speed>
  <fix>3d</fix>
</trkpt>
<trkpt lat="33.809782" lon="-118.3939815">
  <ele>-49.813</ele>
  <time>2026-09-02T22:08:29Z</time>
  <course>191.53</course>
  <speed>0.6530696746902278</speed>
  <fix>3d</fix>
</trkpt>
<trkpt lat="33.8097834" lon="-118.393981">
  <ele>-48.4</ele>
  <time>2026-09-02T22:08:29Z</time>
  <course>190.33</course>
  <speed>0.85</speed>
  <fix>3d</fix>
</trkpt>
<trkpt lat="33.8097815" lon="-118.3939816">
  <ele>-49.86</ele>
  <time>2026-09-02T22:08:29Z</time>
  <course>191.76</course>
  <speed>0.5824946351684279</speed>
  <fix>3d</fix>
</trkpt>
<trkpt lat="33.809782" lon="-118.3939813">
  <ele>-48.52</ele>
  <time>2026-09-02T22:08:29Z</time>
  <course>190.55</course>
  <speed>0.73</speed>
  <fix>3d</fix>
</trkpt>
<trkpt lat="33.8097809" lon="-118.3939817">
  <ele>-49.901</ele>
  <time>2026-09-02T22:08:29Z</time>
  <course>192.05</course>
  <speed>0.5217278984298233</speed>
  <fix>3d</fix>
</trkpt>
<trkpt lat="33.809782" lon="-118.3939813">
  <ele>-48.52</ele>
  <time>2026-09-02T22:08:29Z</time>
  <course>190.55</course>
  <speed>0.73</speed>
  <fix>3d</fix>
</trkpt>
<trkpt lat="33.8097805" lon="-118.3939818">
  <ele>-49.936</ele>
  <time>2026-09-02T22:08:29Z</time>
  <course>192.49</course>
  <speed>0.4491102314577124</speed>
  <fix>3d</fix>
</trkpt>
<trkpt lat="33.8097808" lon="-118.3939816">
  <ele>-48.61</ele>
  <time>2026-09-02T22:08:29Z</time>
  <course>190.81</course>
  <speed>0.6</speed>
  <fix>3d</fix>
</trkpt>
<trkpt lat="33.8097801" lon="-118.3939819">
  <ele>-49.964</ele>
  <time>2026-09-02T22:08:29Z</time>
  <course>193.18</course>
  <speed>0.39812058474788764</speed>
  <fix>3d</fix>
</trkpt>
<trkpt lat="33.8097808" lon="-118.3939816">
  <ele>-48.61</ele>
  <time>2026-09-02T22:08:29Z</time>
  <course>190.81</course>
  <speed>0.6</speed>
  <fix>3d</fix>
</trkpt>
<trkpt lat="33.8097797" lon="-118.393982">
  <ele>-49.988</ele>
  <time>2026-09-02T22:08:29Z</time>
  <course>194.25</course>
  <speed>0.33734255586865997</speed>
  <fix>3d</fix>
</trkpt>
<trkpt lat="33.8097798" lon="-118.3939818">
  <ele>-48.68</ele>
  <time>2026-09-02T22:08:29Z</time>
  <course>191.1</course>
  <speed>0.47</speed>
  <fix>3d</fix>
</trkpt>
<trkpt lat="33.8097794" lon="-118.393982">
  <ele>-50.006</ele>
  <time>2026-09-02T22:08:29Z</time>
  <course>194.81</course>
  <speed>0.29614185789921693</speed>
  <fix>3d</fix>
</trkpt>
<trkpt lat="33.8097798" lon="-118.3939818">
  <ele>-48.68</ele>
  <time>2026-09-02T22:08:29Z</time>
  <course>191.1</course>
  <speed>0.47</speed>
  <fix>3d</fix>
</trkpt>
<trkpt lat="33.8097791" lon="-118.3939821">
  <ele>-50.019</ele>
  <time>2026-09-02T22:08:29Z</time>
  <course>194.76</course>
  <speed>0.2570992026436488</speed>
  <fix>3d</fix>
</trkpt>
<trkpt lat="33.8097791" lon="-118.393982">
  <ele>-48.73</ele>
  <time>2026-09-02T22:08:29Z</time>
  <course>191.34</course>
  <speed>0.36</speed>
  <fix>3d</fix>
</trkpt>
<trkpt lat="33.8097788" lon="-118.3939821">
  <ele>-50.026</ele>
  <time>2026-09-02T22:08:29Z</time>
  <course>194.93</course>
  <speed>0.215870331449229</speed>
  <fix>3d</fix>
</trkpt>
<trkpt lat="33.8097791" lon="-118.393982">
  <ele>-48.73</ele>
  <time>2026-09-02T22:08:29Z</time>
  <course>191.34</course>
  <speed>0.36</speed>
  <fix>3d</fix>
</trkpt>
<trkpt lat="33.8097786" lon="-118.3939822">
  <ele>-50.027</ele>
  <time>2026-09-02T22:08:29Z</time>
  <course>196.67</course>
  <speed>0.17464249196572978</speed>
  <fix>3d</fix>
</trkpt>
<trkpt lat="33.8097786" lon="-118.3939821">
  <ele>-48.76</ele>
  <time>2026-09-02T22:08:29Z</time>
  <course>191.92</course>
  <speed>0.27</speed>
  <fix>3d</fix>
</trkpt>
<trkpt lat="33.8097785" lon="-118.3939822">
  <ele>-50.026</ele>
  <time>2026-09-02T22:08:29Z</time>
  <course>199.55</course>
  <speed>0.1264911064067352</speed>
  <fix>3d</fix>
</trkpt>
<trkpt lat="33.8097786" lon="-118.3939821">
  <ele>-48.76</ele>
  <time>2026-09-02T22:08:29Z</time>
  <course>191.92</course>
  <speed>0.27</speed>
  <fix>3d</fix>
</trkpt>
<trkpt lat="33.8097783" lon="-118.3939823">
  <ele>-50.023</ele>
  <time>2026-09-02T22:08:29Z</time>
  <course>202.92</course>
  <speed>0.09486832980505139</speed>
  <fix>3d</fix>
</trkpt>
<trkpt lat="33.8097781" lon="-118.3939822">
  <ele>-48.77</ele>
  <time>2026-09-02T22:08:29Z</time>
  <course>193.77</course>
  <speed>0.18</speed>
  <fix>3d</fix>
</trkpt>
<trkpt lat="33.8097782" lon="-118.3939823">
  <ele>-50.018</ele>
  <time>2026-09-02T22:08:29Z</time>
  <course>206.56</course>
  <speed>0.0670820393249937</speed>
  <fix>3d</fix>
</trkpt>
<trkpt lat="33.8097781" lon="-118.3939822">
  <ele>-48.77</ele>
  <time>2026-09-02T22:08:29Z</time>
  <course>193.77</course>
  <speed>0.18</speed>
  <fix>3d</fix>
</trkpt>
<trkpt lat="33.8097781" lon="-118.3939823">
  <ele>-50.013</ele>
  <time>2026-09-02T22:08:29Z</time>
  <course>210.4</course>
  <speed>0.044721359549995794</speed>
  <fix>3d</fix>
</trkpt>
<trkpt lat="33.8097779" lon="-118.3939823">
  <ele>-48.78</ele>
  <time>2026-09-02T22:08:29Z</time>
  <course>197.74</course>
  <speed>0.11</speed>
  <fix>3d</fix>
</trkpt>
<trkpt lat="33.8097781" lon="-118.3939823">
  <ele>-50.008</ele>
  <time>2026-09-02T22:08:29Z</time>
  <course>214.14</course>
  <speed>0.0282842712474619</speed>
  <fix>3d</fix>
</trkpt>
<trkpt lat="33.8097779" lon="-118.3939823">
  <ele>-48.78</ele>
  <time>2026-09-02T22:08:29Z</time>
  <course>197.74</course>
  <speed>0.11</speed>
  <fix>3d</fix>
</trkpt>
<trkpt lat="33.809778" lon="-118.3939824">
  <ele>-50.006</ele>
  <time>2026-09-02T22:08:29Z</time>
  <course>217.59</course>
  <speed>0.01</speed>
  <fix>3d</fix>
</trkpt>
<trkpt lat="33.8097777" lon="-118.3939824">
  <ele>-48.78</ele>
  <time>2026-09-02T22:08:29Z</time>
  <course>205.04</course>
  <speed>0.06</speed>
  <fix>3d</fix>
</trkpt>
<trkpt lat="33.809778" lon="-118.3939824">
  <ele>-50.006</ele>
  <time>2026-09-02T22:08:29Z</time>
  <course>221.41</course>
  <speed>0.02</speed>
  <fix>3d</fix>
</trkpt>
<trkpt lat="33.8097777" lon="-118.3939824">
  <ele>-48.78</ele>
  <time>2026-09-02T22:08:29Z</time>
  <course>205.04</course>
  <speed>0.06</speed>
  <fix>3d</fix>
</trkpt>
<trkpt lat="33.809778" lon="-118.3939824">
  <ele>-50.008</ele>
  <time>2026-09-02T22:08:29Z</time>
  <course>225.55</course>
  <speed>0.0412310562561766</speed>
  <fix>3d</fix>
</trkpt>
<trkpt lat="33.8097777" lon="-118.3939824">
  <ele>-48.78</ele>
  <time>2026-09-02T22:08:29Z</time>
  <course>232.63</course>
  <speed>0.03</speed>
  <fix>3d</fix>
</trkpt>
<trkpt lat="33.809778" lon="-118.3939825">
  <ele>-50.01</ele>
  <time>2026-09-02T22:08:29Z</time>
  <course>229.89</course>
  <speed>0.07280109889280519</speed>
  <fix>3d</fix>
</trkpt>
<trkpt lat="33.8097777" lon="-118.3939824">
  <ele>-48.78</ele>
  <time>2026-09-02T22:08:29Z</time>
  <course>232.63</course>
  <speed>0.03</speed>
  <fix>3d</fix>
</trkpt>
<trkpt lat="33.809778" lon="-118.3939826">
  <ele>-50.014</ele>
  <time>2026-09-02T22:08:29Z</time>
  <course>234.39</course>
  <speed>0.11401754250991379</speed>
  <fix>3d</fix>
</trkpt>
<trkpt lat="33.8097777" lon="-118.3939825">
  <ele>-48.79</ele>
  <time>2026-09-02T22:08:29Z</time>
  <course>273.38</course>
  <speed>0.06</speed>
  <fix>3d</fix>
</trkpt>
<trkpt lat="33.809778" lon="-118.3939827">
  <ele>-50.017</ele>
  <time>2026-09-02T22:08:29Z</time>
  <course>239.02</course>
  <speed>0.16278820596099705</speed>
  <fix>3d</fix>
</trkpt>
<trkpt lat="33.8097777" lon="-118.3939825">
  <ele>-48.79</ele>
  <time>2026-09-02T22:08:29Z</time>
  <course>273.38</course>
  <speed>0.06</speed>
  <fix>3d</fix>
</trkpt>
<trkpt lat="33.809778" lon="-118.3939829">
  <ele>-50.018</ele>
  <time>2026-09-02T22:08:29Z</time>
  <course>243.77</course>
  <speed>0.21377558326431947</speed>
  <fix>3d</fix>
</trkpt>
<trkpt lat="33.8097777" lon="-118.3939827">
  <ele>-48.8</ele>
  <time>2026-09-02T22:08:29Z</time>
  <course>276.85</course>
  <speed>0.13</speed>
  <fix>3d</fix>
</trkpt>
<trkpt lat="33.809778" lon="-118.3939832">
  <ele>-50.018</ele>
  <time>2026-09-02T22:08:29Z</time>
  <course>248.65</course>
  <speed>0.282842712474619</speed>
  <fix>3d</fix>
</trkpt>
<trkpt lat="33.8097777" lon="-118.3939827">
  <ele>-48.8</ele>
  <time>2026-09-02T22:08:29Z</time>
  <course>276.85</course>
  <speed>0.13</speed>
  <fix>3d</fix>
</trkpt>
<trkpt lat="33.809778" lon="-118.3939835">
  <ele>-50.019</ele>
  <time>2026-09-02T22:08:29Z</time>
  <course>253.67</course>
  <speed>0.3522782990761707</speed>
  <fix>3d</fix>
</trkpt>
<trkpt lat="33.8097777" lon="-118.3939831">
  <ele>-48.81</ele>
  <time>2026-09-02T22:08:29Z</time>
  <course>274.92</course>
  <speed>0.24</speed>
  <fix>3d</fix>
</trkpt>
<trkpt lat="33.809778" lon="-118.393984">
  <ele>-50.02</ele>
  <time>2026-09-02T22:08:29Z</time>
  <course>258.84</course>
  <speed>0.43289721643826723</speed>
  <fix>3d</fix>
</trkpt>
<trkpt lat="33.8097777" lon="-118.3939831">
  <ele>-48.81</ele>
  <time>2026-09-02T22:08:29Z</time>
  <course>274.92</course>
  <speed>0.24</speed>
  <fix>3d</fix>
</trkpt>
<trkpt lat="33.809778" lon="-118.3939845">
  <ele>-50.02</ele>
  <time>2026-09-02T22:08:29Z</time>
  <course>264.19</course>
  <speed>0.5024937810560445</speed>
  <fix>3d</fix>
</trkpt>
<trkpt lat="33.8097778" lon="-118.3939838">
  <ele>-48.81</ele>
  <time>2026-09-02T22:08:29Z</time>
  <course>273.52</course>
  <speed>0.39</speed>
  <fix>3d</fix>
</trkpt>
<trkpt lat="33.809778" lon="-118.3939851">
  <ele>-50.021</ele>
  <time>2026-09-02T22:08:29Z</time>
  <course>269.74</course>
  <speed>0.5714017850864661</speed>
  <fix>3d</fix>
</trkpt>
<trkpt lat="33.8097778" lon="-118.3939838">
  <ele>-48.81</ele>
  <time>2026-09-02T22:08:29Z</time>
  <course>273.52</course>
  <speed>0.39</speed>
  <fix>3d</fix>
</trkpt>
<trkpt lat="33.809778" lon="-118.3939857">
  <ele>-50.022</ele>
  <time>2026-09-02T22:08:29Z</time>
  <course>275.48</course>
  <speed>0.6312685640834652</speed>
  <fix>3d</fix>
</trkpt>
<trkpt lat="33.8097778" lon="-118.3939849">
  <ele>-48.82</ele>
  <time>2026-09-02T22:08:29Z</time>
  <course>272.46</course>
  <speed>0.54</speed>
  <fix>3d</fix>
</trkpt>
<trkpt lat="33.809778" lon="-118.3939864">
  <ele>-50.022</ele>
  <time>2026-09-02T22:08:29Z</time>
  <course>281.11</course>
  <speed>0.6706713054842887</speed>
  <fix>3d</fix>
</trkpt>
<trkpt lat="33.8097778" lon="-118.3939849">
  <ele>-48.82</ele>
  <time>2026-09-02T22:08:29Z</time>
  <course>272.46</course>
  <speed>0.54</speed>
  <fix>3d</fix>
</trkpt>
<trkpt lat="33.809778" lon="-118.3939872">
  <ele>-50.024</ele>
  <time>2026-09-02T22:08:29Z</time>
  <course>286.26</course>
  <speed>0.6900724599634447</speed>
  <fix>3d</fix>
</trkpt>
<trkpt lat="33.8097778" lon="-118.3939862">
  <ele>-48.82</ele>
  <time>2026-09-02T22:08:29Z</time>
  <course>271.1</course>
  <speed>0.66</speed>
  <fix>3d</fix>
</trkpt>
<trkpt lat="33.809778" lon="-118.3939879">
  <ele>-50.024</ele>
  <time>2026-09-02T22:08:29Z</time>
  <course>290.52</course>
  <speed>0.73</speed>
  <fix>3d</fix>
</trkpt>
<trkpt lat="33.8097778" lon="-118.3939862">
  <ele>-48.82</ele>
  <time>2026-09-02T22:08:29Z</time>
  <course>271.1</course>
  <speed>0.66</speed>
  <fix>3d</fix>
</trkpt>
<trkpt lat="33.809778" lon="-118.3939888">
  <ele>-50.025</ele>
  <time>2026-09-02T22:08:29Z</time>
  <course>293.93</course>
  <speed>0.76</speed>
  <fix>3d</fix>
</trkpt>
<trkpt lat="33.8097778" lon="-118.3939877">
  <ele>-48.82</ele>
  <time>2026-09-02T22:08:29Z</time>
  <course>269.5</course>
  <speed>0.74</speed>
  <fix>3d</fix>
</trkpt>
<trkpt lat="33.809778" lon="-118.3939896">
  <ele>-50.026</ele>
  <time>2026-09-02T22:08:29Z</time>
  <course>296.69</course>
  <speed>0.8</speed>
  <fix>3d</fix>
</trkpt>
<trkpt lat="33.8097778" lon="-118.3939877">
  <ele>-48.82</ele>
  <time>2026-09-02T22:08:29Z</time>
  <course>269.5</course>
  <speed>0.74</speed>
  <fix>3d</fix>
</trkpt>
<trkpt lat="33.809778" lon="-118.3939905">
  <ele>-50.026</ele>
  <time>2026-09-02T22:08:29Z</time>
  <course>298.81</course>
  <speed>0.83</speed>
  <fix>3d</fix>
</trkpt>
<trkpt lat="33.8097778" lon="-118.3939894">
  <ele>-48.83</ele>
  <time>2026-09-02T22:08:29Z</time>
  <course>268.83</course>
  <speed>0.82</speed>
  <fix>3d</fix>
</trkpt>
<trkpt lat="33.809778" lon="-118.3939915">
  <ele>-50.026</ele>
  <time>2026-09-02T22:08:29Z</time>
  <course>300.06</course>
  <speed>0.84</speed>
  <fix>3d</fix>
</trkpt>
<trkpt lat="33.8097778" lon="-118.3939894">
  <ele>-48.83</ele>
  <time>2026-09-02T22:08:29Z</time>
  <course>268.83</course>
  <speed>0.82</speed>
  <fix>3d</fix>
</trkpt>
<trkpt lat="33.809778" lon="-118.3939924">
  <ele>-50.025</ele>
  <time>2026-09-02T22:08:29Z</time>
  <course>300.43</course>
  <speed>0.85</speed>
  <fix>3d</fix>
</trkpt>
<trkpt lat="33.8097778" lon="-118.3939913">
  <ele>-48.83</ele>
  <time>2026-09-02T22:08:29Z</time>
  <course>269.34</course>
  <speed>0.88</speed>
  <fix>3d</fix>
</trkpt>
<trkpt lat="33.8097779" lon="-118.3939934">
  <ele>-50.025</ele>
  <time>2026-09-02T22:08:29Z</time>
  <course>300.28</course>
  <speed>0.8600581375697809</speed>
  <fix>3d</fix>
</trkpt>
<trkpt lat="33.8097778" lon="-118.3939913">
  <ele>-48.83</ele>
  <time>2026-09-02T22:08:29Z</time>
  <course>269.34</course>
  <speed>0.88</speed>
  <fix>3d</fix>
</trkpt>
<trkpt lat="33.8097779" lon="-118.3939943">
  <ele>-50.026</ele>
  <time>2026-09-02T22:08:29Z</time>
  <course>300.0</course>
  <speed>0.8700574693662483</speed>
  <fix>3d</fix>
</trkpt>
<trkpt lat="33.8097778" lon="-118.3939932">
  <ele>-48.82</ele>
  <time>2026-09-02T22:08:29Z</time>
  <course>270.2</course>
  <speed>0.91</speed>
  <fix>3d</fix>
</trkpt>
<trkpt lat="33.8097779" lon="-118.3939953">
  <ele>-50.026</ele>
  <time>2026-09-02T22:08:29Z</time>
  <course>299.75</course>
  <speed>0.8700574693662483</speed>
  <fix>3d</fix>
</trkpt>
<trkpt lat="33.8097778" lon="-118.3939932">
  <ele>-48.82</ele>
  <time>2026-09-02T22:08:29Z</time>
  <course>270.2</course>
  <speed>0.91</speed>
  <fix>3d</fix>
</trkpt>
<trkpt lat="33.8097779" lon="-118.3939963">
  <ele>-50.027</ele>
  <time>2026-09-02T22:08:29Z</time>
  <course>299.56</course>
  <speed>0.880056816347672</speed>
  <fix>3d</fix>
</trkpt>
<trkpt lat="33.8097778" lon="-118.3939952">
  <ele>-48.82</ele>
  <time>2026-09-02T22:08:29Z</time>
  <course>271.03</course>
  <speed>0.93</speed>
  <fix>3d</fix>
</trkpt>
<trkpt lat="33.8097779" lon="-118.3939973">
  <ele>-50.026</ele>
  <time>2026-09-02T22:08:29Z</time>
  <course>299.39</course>
  <speed>0.8802272433866155</speed>
  <fix>3d</fix>
</trkpt>
<trkpt lat="33.8097778" lon="-118.3939952">
  <ele>-48.82</ele>
  <time>2026-09-02T22:08:29Z</time>
  <course>271.03</course>
  <speed>0.93</speed>
  <fix>3d</fix>
</trkpt>
<trkpt lat="33.809778" lon="-118.3939983">
  <ele>-50.024</ele>
  <time>2026-09-02T22:08:29Z</time>
  <course>299.25</course>
  <speed>0.8802272433866155</speed>
  <fix>3d</fix>
</trkpt>
<trkpt lat="33.8097778" lon="-118.3939973">
  <ele>-48.82</ele>
  <time>2026-09-02T22:08:29Z</time>
  <course>271.69</course>
  <speed>0.93</speed>
  <fix>3d</fix>
</trkpt>
<trkpt lat="33.809778" lon="-118.3939993">
  <ele>-50.021</ele>
  <time>2026-09-02T22:08:29Z</time>
  <course>299.12</course>
  <speed>0.8802272433866155</speed>
  <fix>3d</fix>
</trkpt>
<trkpt lat="33.8097778" lon="-118.3939973">
  <ele>-48.82</ele>
  <time>2026-09-02T22:08:29Z</time>
  <course>271.69</course>
  <speed>0.93</speed>
  <fix>3d</fix>
</trkpt>
<trkpt lat="33.809778" lon="-118.3940004">
  <ele>-50.019</ele>
  <time>2026-09-02T22:08:29Z</time>
  <course>299.0</course>
  <speed>0.8802272433866155</speed>
  <fix>3d</fix>
</trkpt>
<trkpt lat="33.8097778" lon="-118.3939993">
  <ele>-48.82</ele>
  <time>2026-09-02T22:08:29Z</time>
  <course>272.15</course>
  <speed>0.94</speed>
  <fix>3d</fix>
</trkpt>
<trkpt lat="33.809778" lon="-118.3940014">
  <ele>-50.018</ele>
  <time>2026-09-02T22:08:29Z</time>
  <course>298.9</course>
  <speed>0.8802272433866155</speed>
  <fix>3d</fix>
</trkpt>
<trkpt lat="33.8097778" lon="-118.3939993">
  <ele>-48.82</ele>
  <time>2026-09-02T22:08:29Z</time>
  <course>272.15</course>
  <speed>0.94</speed>
  <fix>3d</fix>
</trkpt>
<trkpt lat="33.809778" lon="-118.3940024">
  <ele>-50.018</ele>
  <time>2026-09-02T22:08:29Z</time>
  <course>298.81</course>
  <speed>0.8802272433866155</speed>
  <fix>3d</fix>
</trkpt>
<trkpt lat="33.8097779" lon="-118.3940012">
  <ele>-48.82</ele>
  <time>2026-09-02T22:08:29Z</time>
  <course>272.48</course>
  <speed>0.93</speed>
  <fix>3d</fix>
</trkpt>
<trkpt lat="33.809778" lon="-118.3940034">
  <ele>-50.019</ele>
  <time>2026-09-02T22:08:29Z</time>
  <course>298.72</course>
  <speed>0.8702298546935746</speed>
  <fix>3d</fix>
</trkpt>
<trkpt lat="33.8097779" lon="-118.3940012">
  <ele>-48.82</ele>
  <time>2026-09-02T22:08:29Z</time>
  <course>272.48</course>
  <speed>0.93</speed>
  <fix>3d</fix>
</trkpt>
<trkpt lat="33.809778" lon="-118.3940044">
  <ele>-50.021</ele>
  <time>2026-09-02T22:08:29Z</time>
  <course>298.61</course>
  <speed>0.8702298546935746</speed>
  <fix>3d</fix>
</trkpt>
<trkpt lat="33.809778" lon="-118.3940033">
  <ele>-48.82</ele>
  <time>2026-09-02T22:08:29Z</time>
  <course>272.69</course>
  <speed>0.92</speed>
  <fix>3d</fix>
</trkpt>
<trkpt lat="33.809778" lon="-118.3940054">
  <ele>-50.023</ele>
  <time>2026-09-02T22:08:29Z</time>
  <course>298.47</course>
  <speed>0.8702298546935746</speed>
  <fix>3d</fix>
</trkpt>
<trkpt lat="33.809778" lon="-118.3940033">
  <ele>-48.82</ele>
  <time>2026-09-02T22:08:29Z</time>
  <course>272.69</course>
  <speed>0.92</speed>
  <fix>3d</fix>
</trkpt>
<trkpt lat="33.809778" lon="-118.3940064">
  <ele>-50.025</ele>
  <time>2026-09-02T22:08:29Z</time>
  <course>298.31</course>
  <speed>0.8702298546935746</speed>
  <fix>3d</fix>
</trkpt>
<trkpt lat="33.809778" lon="-118.3940053">
  <ele>-48.82</ele>
  <time>2026-09-02T22:08:29Z</time>
  <course>272.76</course>
  <speed>0.91</speed>
  <fix>3d</fix>
</trkpt>
<trkpt lat="33.809778" lon="-118.3940074">
  <ele>-50.027</ele>
  <time>2026-09-02T22:08:29Z</time>
  <course>298.14</course>
  <speed>0.8602325267042628</speed>
  <fix>3d</fix>
</trkpt>
<trkpt lat="33.809778" lon="-118.3940053">
  <ele>-48.82</ele>
  <time>2026-09-02T22:08:29Z</time>
  <course>272.76</course>
  <speed>0.91</speed>
  <fix>3d</fix>
</trkpt>
<trkpt lat="33.8097781" lon="-118.3940083">
  <ele>-50.028</ele>
  <time>2026-09-02T22:08:29Z</time>
  <course>297.96</course>
  <speed>0.8602325267042628</speed>
  <fix>3d</fix>
</trkpt>
<trkpt lat="33.8097781" lon="-118.3940073">
  <ele>-48.82</ele>
  <time>2026-09-02T22:08:29Z</time>
  <course>272.76</course>
  <speed>0.9</speed>
  <fix>3d</fix>
</trkpt>
<trkpt lat="33.8097781" lon="-118.3940093">
  <ele>-50.028</ele>
  <time>2026-09-02T22:08:29Z</time>
  <course>297.78</course>
  <speed>0.8602325267042628</speed>
  <fix>3d</fix>
</trkpt>
<trkpt lat="33.8097781" lon="-118.3940073">
  <ele>-48.82</ele>
  <time>2026-09-02T22:08:29Z</time>
  <course>272.76</course>
  <speed>0.9</speed>
  <fix>3d</fix>
</trkpt>
<trkpt lat="33.8097781" lon="-118.3940103">
  <ele>-50.027</ele>
  <time>2026-09-02T22:08:29Z</time>
  <course>297.59</course>
  <speed>0.8600581375697809</speed>
  <fix>3d</fix>
</trkpt>
<trkpt lat="33.8097782" lon="-118.3940092">
  <ele>-48.82</ele>
  <time>2026-09-02T22:08:29Z</time>
  <course>272.7</course>
  <speed>0.89</speed>
  <fix>3d</fix>
</trkpt>
<trkpt lat="33.8097782" lon="-118.3940113">
  <ele>-50.025</ele>
  <time>2026-09-02T22:08:29Z</time>
  <course>297.39</course>
  <speed>0.8500588214941364</speed>
  <fix>3d</fix>
</trkpt>
<trkpt lat="33.8097782" lon="-118.3940092">
  <ele>-48.82</ele>
  <time>2026-09-02T22:08:29Z</time>
  <course>272.7</course>
  <speed>0.89</speed>
  <fix>3d</fix>
</trkpt>
<trkpt lat="33.8097782" lon="-118.3940122">
  <ele>-50.025</ele>
  <time>2026-09-02T22:08:29Z</time>
  <course>297.16</course>
  <speed>0.8500588214941364</speed>
  <fix>3d</fix>
</trkpt>
<trkpt lat="33.8097783" lon="-118.3940112">
  <ele>-48.81</ele>
  <time>2026-09-02T22:08:29Z</time>
  <course>272.54</course>
  <speed>0.89</speed>
  <fix>3d</fix>
</trkpt>
<trkpt lat="33.8097782" lon="-118.3940132">
  <ele>-50.024</ele>
  <time>2026-09-02T22:08:29Z</time>
  <course>296.91</course>
  <speed>0.8500588214941364</speed>
  <fix>3d</fix>
</trkpt>
<trkpt lat="33.8097783" lon="-118.3940112">
  <ele>-48.81</ele>
  <time>2026-09-02T22:08:29Z</time>
  <course>272.54</course>
  <speed>0.89</speed>
  <fix>3d</fix>
</trkpt>
<trkpt lat="33.8097782" lon="-118.3940142">
  <ele>-50.024</ele>
  <time>2026-09-02T22:08:29Z</time>
  <course>296.65</course>
  <speed>0.8500588214941364</speed>
  <fix>3d</fix>
</trkpt>
<trkpt lat="33.8097783" lon="-118.3940131">
  <ele>-48.81</ele>
  <time>2026-09-02T22:08:29Z</time>
  <course>272.3</course>
  <speed>0.88</speed>
  <fix>3d</fix>
</trkpt>
<trkpt lat="33.8097783" lon="-118.3940151">
  <ele>-50.023</ele>
  <time>2026-09-02T22:08:29Z</time>
  <course>296.39</course>
  <speed>0.8400595217006948</speed>
  <fix>3d</fix>
</trkpt>
<trkpt lat="33.8097783" lon="-118.3940131">
  <ele>-48.81</ele>
  <time>2026-09-02T22:08:29Z</time>
  <course>272.3</course>
  <speed>0.88</speed>
  <fix>3d</fix>
</trkpt>
<trkpt lat="33.8097783" lon="-118.3940161">
  <ele>-50.022</ele>
  <time>2026-09-02T22:08:29Z</time>
  <course>296.13</course>
  <speed>0.8400595217006948</speed>
  <fix>3d</fix>
</trkpt>
<trkpt lat="33.8097784" lon="-118.394015">
  <ele>-48.81</ele>
  <time>2026-09-02T22:08:29Z</time>
  <course>272.06</course>
  <speed>0.87</speed>
  <fix>3d</fix>
</trkpt>
<trkpt lat="33.8097783" lon="-118.394017">
  <ele>-50.02</ele>
  <time>2026-09-02T22:08:29Z</time>
  <course>295.88</course>
  <speed>0.84</speed>
  <fix>3d</fix>
</trkpt>
<trkpt lat="33.8097784" lon="-118.394015">
  <ele>-48.81</ele>
  <time>2026-09-02T22:08:29Z</time>
  <course>272.06</course>
  <speed>0.87</speed>
  <fix>3d</fix>
</trkpt>
<trkpt lat="33.8097783" lon="-118.394018">
  <ele>-50.02</ele>
  <time>2026-09-02T22:08:29Z</time>
  <course>295.62</course>
  <speed>0.84</speed>
  <fix>3d</fix>
</trkpt>
<trkpt lat="33.8097785" lon="-118.3940169">
  <ele>-48.8</ele>
  <time>2026-09-02T22:08:29Z</time>
  <course>271.84</course>
  <speed>0.87</speed>
  <fix>3d</fix>
</trkpt>
<trkpt lat="33.8097784" lon="-118.3940189">
  <ele>-50.019</ele>
  <time>2026-09-02T22:08:29Z</time>
  <course>295.35</course>
  <speed>0.84</speed>
  <fix>3d</fix>
</trkpt>
<trkpt lat="33.8097785" lon="-118.3940169">
  <ele>-48.8</ele>
  <time>2026-09-02T22:08:29Z</time>
  <course>271.84</course>
  <speed>0.87</speed>
  <fix>3d</fix>
</trkpt>
<trkpt lat="33.8097784" lon="-118.3940199">
  <ele>-50.017</ele>
  <time>2026-09-02T22:08:29Z</time>
  <course>295.08</course>
  <speed>0.84</speed>
  <fix>3d</fix>
</trkpt>
<trkpt lat="33.8097785" lon="-118.3940187">
  <ele>-48.8</ele>
  <time>2026-09-02T22:08:29Z</time>
  <course>271.6</course>
  <speed>0.86</speed>
  <fix>3d</fix>
</trkpt>
<trkpt lat="33.8097784" lon="-118.3940208">
  <ele>-50.016</ele>
  <time>2026-09-02T22:08:29Z</time>
  <course>294.8</course>
  <speed>0.84</speed>
  <fix>3d</fix>
</trkpt>
<trkpt lat="33.8097785" lon="-118.3940187">
  <ele>-48.8</ele>
  <time>2026-09-02T22:08:29Z</time>
  <course>271.6</course>
  <speed>0.86</speed>
  <fix>3d</fix>
</trkpt>
<trkpt lat="33.8097784" lon="-118.3940217">
  <ele>-50.015</ele>
  <time>2026-09-02T22:08:29Z</time>
  <course>294.53</course>
  <speed>0.84</speed>
  <fix>3d</fix>
</trkpt>
<trkpt lat="33.8097786" lon="-118.3940206">
  <ele>-48.8</ele>
  <time>2026-09-02T22:08:29Z</time>
  <course>271.36</course>
  <speed>0.86</speed>
  <fix>3d</fix>
</trkpt>
<trkpt lat="33.8097784" lon="-118.3940227">
  <ele>-50.014</ele>
  <time>2026-09-02T22:08:29Z</time>
  <course>294.26</course>
  <speed>0.84</speed>
  <fix>3d</fix>
</trkpt>
<trkpt lat="33.8097786" lon="-118.3940206">
  <ele>-48.8</ele>
  <time>2026-09-02T22:08:29Z</time>
  <course>271.36</course>
  <speed>0.86</speed>
  <fix>3d</fix>
</trkpt>
<trkpt lat="33.8097785" lon="-118.3940236">
  <ele>-50.014</ele>
  <time>2026-09-02T22:08:30Z</time>
  <course>294.0</course>
  <speed>0.84</speed>
  <fix>3d</fix>
</trkpt>
<trkpt lat="33.8097786" lon="-118.3940225">
  <ele>-48.8</ele>
  <time>2026-09-02T22:08:30Z</time>
  <course>271.14</course>
  <speed>0.86</speed>
  <fix>3d</fix>
</trkpt>
<trkpt lat="33.8097785" lon="-118.3940245">
  <ele>-50.015</ele>
  <time>2026-09-02T22:08:30Z</time>
  <course>293.73</course>
  <speed>0.84</speed>
  <fix>3d</fix>
</trkpt>
<trkpt lat="33.8097786" lon="-118.3940225">
  <ele>-48.8</ele>
  <time>2026-09-02T22:08:30Z</time>
  <course>271.14</course>
  <speed>0.86</speed>
  <fix>3d</fix>
</trkpt>
<trkpt lat="33.8097785" lon="-118.3940255">
  <ele>-50.017</ele>
  <time>2026-09-02T22:08:30Z</time>
  <course>293.48</course>
  <speed>0.84</speed>
  <fix>3d</fix>
</trkpt>
<trkpt lat="33.8097786" lon="-118.3940243">
  <ele>-48.8</ele>
  <time>2026-09-02T22:08:30Z</time>
  <course>270.95</course>
  <speed>0.86</speed>
  <fix>3d</fix>
</trkpt>
<trkpt lat="33.8097785" lon="-118.3940264">
  <ele>-50.019</ele>
  <time>2026-09-02T22:08:30Z</time>
  <course>293.24</course>
  <speed>0.84</speed>
  <fix>3d</fix>
</trkpt>
<trkpt lat="33.8097786" lon="-118.3940243">
  <ele>-48.8</ele>
  <time>2026-09-02T22:08:30Z</time>
  <course>270.95</course>
  <speed>0.86</speed>
  <fix>3d</fix>
</trkpt>
<trkpt lat="33.8097785" lon="-118.3940273">
  <ele>-50.02</ele>
  <time>2026-09-02T22:08:30Z</time>
  <course>293.02</course>
  <speed>0.84</speed>
  <fix>3d</fix>
</trkpt>
<trkpt lat="33.8097786" lon="-118.3940262">
  <ele>-48.81</ele>
  <time>2026-09-02T22:08:30Z</time>
  <course>270.83</course>
  <speed>0.86</speed>
  <fix>3d</fix>
</trkpt>
<trkpt lat="33.8097785" lon="-118.3940283">
  <ele>-50.02</ele>
  <time>2026-09-02T22:08:30Z</time>
  <course>292.81</course>
  <speed>0.84</speed>
  <fix>3d</fix>
</trkpt>
<trkpt lat="33.8097786" lon="-118.3940262">
  <ele>-48.81</ele>
  <time>2026-09-02T22:08:30Z</time>
  <course>270.83</course>
  <speed>0.86</speed>
  <fix>3d</fix>
</trkpt>
<trkpt lat="33.8097786" lon="-118.3940292">
  <ele>-50.02</ele>
  <time>2026-09-02T22:08:30Z</time>
  <course>292.62</course>
  <speed>0.84</speed>
  <fix>3d</fix>
</trkpt>
<trkpt lat="33.8097786" lon="-118.394028">
  <ele>-48.81</ele>
  <time>2026-09-02T22:08:30Z</time>
  <course>270.8</course>
  <speed>0.86</speed>
  <fix>3d</fix>
</trkpt>
<trkpt lat="33.8097786" lon="-118.3940301">
  <ele>-50.02</ele>
  <time>2026-09-02T22:08:30Z</time>
  <course>292.45</course>
  <speed>0.84</speed>
  <fix>3d</fix>
</trkpt>
<trkpt lat="33.8097786" lon="-118.394028">
  <ele>-48.81</ele>
  <time>2026-09-02T22:08:30Z</time>
  <course>270.8</course>
  <speed>0.86</speed>
  <fix>3d</fix>
</trkpt>
<trkpt lat="33.8097786" lon="-118.3940311">
  <ele>-50.019</ele>
  <time>2026-09-02T22:08:30Z</time>
  <course>292.28</course>
  <speed>0.84</speed>
  <fix>3d</fix>
</trkpt>
<trkpt lat="33.8097786" lon="-118.3940299">
  <ele>-48.81</ele>
  <time>2026-09-02T22:08:30Z</time>
  <course>270.83</course>
  <speed>0.86</speed>
  <fix>3d</fix>
</trkpt>
<trkpt lat="33.8097786" lon="-118.394032">
  <ele>-50.018</ele>
  <time>2026-09-02T22:08:30Z</time>
  <course>292.12</course>
  <speed>0.84</speed>
  <fix>3d</fix>
</trkpt>
<trkpt lat="33.8097786" lon="-118.3940299">
  <ele>-48.81</ele>
  <time>2026-09-02T22:08:30Z</time>
  <course>270.83</course>
  <speed>0.86</speed>
  <fix>3d</fix>
</trkpt>
<trkpt lat="33.8097786" lon="-118.3940329">
  <ele>-50.018</ele>
  <time>2026-09-02T22:08:30Z</time>
  <course>291.97</course>
  <speed>0.84</speed>
  <fix>3d</fix>
</trkpt>
<trkpt lat="33.8097786" lon="-118.3940318">
  <ele>-48.81</ele>
  <time>2026-09-02T22:08:30Z</time>
  <course>270.89</course>
  <speed>0.86</speed>
  <fix>3d</fix>
</trkpt>
<trkpt lat="33.8097786" lon="-118.3940338">
  <ele>-50.019</ele>
  <time>2026-09-02T22:08:30Z</time>
  <course>291.83</course>
  <speed>0.8400595217006948</speed>
  <fix>3d</fix>
</trkpt>
<trkpt lat="33.8097786" lon="-118.3940318">
  <ele>-48.81</ele>
  <time>2026-09-02T22:08:30Z</time>
  <course>270.89</course>
  <speed>0.86</speed>
  <fix>3d</fix>
</trkpt>
<trkpt lat="33.8097786" lon="-118.3940348">
  <ele>-50.02</ele>
  <time>2026-09-02T22:08:30Z</time>
  <course>291.7</course>
  <speed>0.8400595217006948</speed>
  <fix>3d</fix>
</trkpt>
<trkpt lat="33.8097787" lon="-118.3940337">
  <ele>-48.81</ele>
  <time>2026-09-02T22:08:30Z</time>
  <course>270.96</course>
  <speed>0.86</speed>
  <fix>3d</fix>
</trkpt>
<trkpt lat="33.8097786" lon="-118.3940357">
  <ele>-50.021</ele>
  <time>2026-09-02T22:08:30Z</time>
  <course>291.56</course>
  <speed>0.8400595217006948</speed>
  <fix>3d</fix>
</trkpt>
<trkpt lat="33.8097787" lon="-118.3940337">
  <ele>-48.81</ele>
  <time>2026-09-02T22:08:30Z</time>
  <course>270.96</course>
  <speed>0.86</speed>
  <fix>3d</fix>
</trkpt>
<trkpt lat="33.8097786" lon="-118.3940367">
  <ele>-50.021</ele>
  <time>2026-09-02T22:08:30Z</time>
  <course>291.41</course>
  <speed>0.8400595217006948</speed>
  <fix>3d</fix>
</trkpt>
<trkpt lat="33.8097787" lon="-118.3940355">
  <ele>-48.81</ele>
  <time>2026-09-02T22:08:30Z</time>
  <course>271.01</course>
  <speed>0.86</speed>
  <fix>3d</fix>
</trkpt>
<trkpt lat="33.8097787" lon="-118.3940376">
  <ele>-50.021</ele>
  <time>2026-09-02T22:08:30Z</time>
  <course>291.24</course>
  <speed>0.8400595217006948</speed>
  <fix>3d</fix>
</trkpt>
<trkpt lat="33.8097787" lon="-118.3940355">
  <ele>-48.81</ele>
  <time>2026-09-02T22:08:30Z</time>
  <course>271.01</course>
  <speed>0.86</speed>
  <fix>3d</fix>
</trkpt>
<trkpt lat="33.8097787" lon="-118.3940385">
  <ele>-50.02</ele>
  <time>2026-09-02T22:08:30Z</time>
  <course>291.05</course>
  <speed>0.8400595217006948</speed>
  <fix>3d</fix>
</trkpt>
<trkpt lat="33.8097787" lon="-118.3940374">
  <ele>-48.81</ele>
  <time>2026-09-02T22:08:30Z</time>
  <course>271.0</course>
  <speed>0.86</speed>
  <fix>3d</fix>
</trkpt>
<trkpt lat="33.8097787" lon="-118.3940394">
  <ele>-50.02</ele>
  <time>2026-09-02T22:08:30Z</time>
  <course>290.87</course>
  <speed>0.8400595217006948</speed>
  <fix>3d</fix>
</trkpt>
<trkpt lat="33.8097787" lon="-118.3940374">
  <ele>-48.81</ele>
  <time>2026-09-02T22:08:30Z</time>
  <course>271.0</course>
  <speed>0.86</speed>
  <fix>3d</fix>
</trkpt>
<trkpt lat="33.8097787" lon="-118.3940404">
  <ele>-50.021</ele>
  <time>2026-09-02T22:08:30Z</time>
  <course>290.69</course>
  <speed>0.8400595217006948</speed>
  <fix>3d</fix>
</trkpt>
<trkpt lat="33.8097787" lon="-118.3940393">
  <ele>-48.82</ele>
  <time>2026-09-02T22:08:30Z</time>
  <course>270.97</course>
  <speed>0.86</speed>
  <fix>3d</fix>
</trkpt>
<trkpt lat="33.8097787" lon="-118.3940413">
  <ele>-50.021</ele>
  <time>2026-09-02T22:08:30Z</time>
  <course>290.52</course>
  <speed>0.8400595217006948</speed>
  <fix>3d</fix>
</trkpt>
<trkpt lat="33.8097787" lon="-118.3940393">
  <ele>-48.82</ele>
  <time>2026-09-02T22:08:30Z</time>
  <course>270.97</course>
  <speed>0.86</speed>
  <fix>3d</fix>
</trkpt>
<trkpt lat="33.8097787" lon="-118.3940423">
  <ele>-50.022</ele>
  <time>2026-09-02T22:08:30Z</time>
  <course>290.36</course>
  <speed>0.8400595217006948</speed>
  <fix>3d</fix>
</trkpt>
<trkpt lat="33.8097788" lon="-118.3940412">
  <ele>-48.82</ele>
  <time>2026-09-02T22:08:30Z</time>
  <course>270.97</course>
  <speed>0.86</speed>
  <fix>3d</fix>
</trkpt>
<trkpt lat="33.8097787" lon="-118.3940432">
  <ele>-50.022</ele>
  <time>2026-09-02T22:08:30Z</time>
  <course>290.2</course>
  <speed>0.8400595217006948</speed>
  <fix>3d</fix>
</trkpt>
<trkpt lat="33.8097788" lon="-118.3940412">
  <ele>-48.82</ele>
  <time>2026-09-02T22:08:30Z</time>
  <course>270.97</course>
  <speed>0.86</speed>
  <fix>3d</fix>
</trkpt>
<trkpt lat="33.8097788" lon="-118.3940441">
  <ele>-50.023</ele>
  <time>2026-09-02T22:08:30Z</time>
  <course>290.03</course>
  <speed>0.8400595217006948</speed>
  <fix>3d</fix>
</trkpt>
<trkpt lat="33.8097789" lon="-118.394043">
  <ele>-48.82</ele>
  <time>2026-09-02T22:08:30Z</time>
  <course>270.95</course>
  <speed>0.86</speed>
  <fix>3d</fix>
</trkpt>
<trkpt lat="33.8097788" lon="-118.3940451">
  <ele>-50.023</ele>
  <time>2026-09-02T22:08:30Z</time>
  <course>289.84</course>
  <speed>0.8400595217006948</speed>
  <fix>3d</fix>
</trkpt>
<trkpt lat="33.8097789" lon="-118.394043">
  <ele>-48.82</ele>
  <time>2026-09-02T22:08:30Z</time>
  <course>270.95</course>
  <speed>0.86</speed>
  <fix>3d</fix>
</trkpt>
<trkpt lat="33.8097788" lon="-118.394046">
  <ele>-50.023</ele>
  <time>2026-09-02T22:08:30Z</time>
  <course>289.61</course>
  <speed>0.8400595217006948</speed>
  <fix>3d</fix>
</trkpt>
<trkpt lat="33.8097789" lon="-118.3940449">
  <ele>-48.81</ele>
  <time>2026-09-02T22:08:30Z</time>
  <course>270.84</course>
  <speed>0.86</speed>
  <fix>3d</fix>
</trkpt>
<trkpt lat="33.8097788" lon="-118.3940469">
  <ele>-50.023</ele>
  <time>2026-09-02T22:08:30Z</time>
  <course>289.36</course>
  <speed>0.8400595217006948</speed>
  <fix>3d</fix>
</trkpt>
<trkpt lat="33.8097789" lon="-118.3940449">
  <ele>-48.81</ele>
  <time>2026-09-02T22:08:30Z</time>
  <course>270.84</course>
  <speed>0.86</speed>
  <fix>3d</fix>
</trkpt>
<trkpt lat="33.8097788" lon="-118.3940479">
  <ele>-50.023</ele>
  <time>2026-09-02T22:08:30Z</time>
  <course>289.12</course>
  <speed>0.8400595217006948</speed>
  <fix>3d</fix>
</trkpt>
<trkpt lat="33.8097789" lon="-118.3940468">
  <ele>-48.81</ele>
  <time>2026-09-02T22:08:30Z</time>
  <course>270.66</course>
  <speed>0.86</speed>
  <fix>3d</fix>
</trkpt>
<trkpt lat="33.8097788" lon="-118.3940488">
  <ele>-50.023</ele>
  <time>2026-09-02T22:08:30Z</time>
  <course>288.88</course>
  <speed>0.8400595217006948</speed>
  <fix>3d</fix>
</trkpt>
<trkpt lat="33.8097789" lon="-118.3940468">
  <ele>-48.81</ele>
  <time>2026-09-02T22:08:30Z</time>
  <course>270.66</course>
  <speed>0.86</speed>
  <fix>3d</fix>
</trkpt>
<trkpt lat="33.8097788" lon="-118.3940497">
  <ele>-50.022</ele>
  <time>2026-09-02T22:08:30Z</time>
  <course>288.65</course>
  <speed>0.8400595217006948</speed>
  <fix>3d</fix>
</trkpt>
<trkpt lat="33.8097789" lon="-118.3940486">
  <ele>-48.81</ele>
  <time>2026-09-02T22:08:30Z</time>
  <course>270.52</course>
  <speed>0.86</speed>
  <fix>3d</fix>
</trkpt>
<trkpt lat="33.8097789" lon="-118.3940507">
  <ele>-50.021</ele>
  <time>2026-09-02T22:08:30Z</time>
  <course>288.45</course>
  <speed>0.8400595217006948</speed>
  <fix>3d</fix>
</trkpt>
<trkpt lat="33.8097789" lon="-118.3940486">
  <ele>-48.81</ele>
  <time>2026-09-02T22:08:30Z</time>
  <course>270.52</course>
  <speed>0.86</speed>
  <fix>3d</fix>
</trkpt>
<trkpt lat="33.8097789" lon="-118.3940516">
  <ele>-50.018</ele>
  <time>2026-09-02T22:08:30Z</time>
  <course>288.25</course>
  <speed>0.8400595217006948</speed>
  <fix>3d</fix>
</trkpt>
<trkpt lat="33.809779" lon="-118.3940505">
  <ele>-48.81</ele>
  <time>2026-09-02T22:08:30Z</time>
  <course>270.45</course>
  <speed>0.86</speed>
  <fix>3d</fix>
</trkpt>
<trkpt lat="33.8097789" lon="-118.3940525">
  <ele>-50.016</ele>
  <time>2026-09-02T22:08:30Z</time>
  <course>288.06</course>
  <speed>0.8400595217006948</speed>
  <fix>3d</fix>
</trkpt>
<trkpt lat="33.809779" lon="-118.3940505">
  <ele>-48.81</ele>
  <time>2026-09-02T22:08:30Z</time>
  <course>270.45</course>
  <speed>0.86</speed>
  <fix>3d</fix>
</trkpt>
<trkpt lat="33.8097789" lon="-118.3940535">
  <ele>-50.015</ele>
  <time>2026-09-02T22:08:30Z</time>
  <course>287.86</course>
  <speed>0.8400595217006948</speed>
  <fix>3d</fix>
</trkpt>
<trkpt lat="33.809779" lon="-118.3940524">
  <ele>-48.81</ele>
  <time>2026-09-02T22:08:30Z</time>
  <course>270.38</course>
  <speed>0.87</speed>
  <fix>3d</fix>
</trkpt>
<trkpt lat="33.8097789" lon="-118.3940544">
  <ele>-50.014</ele>
  <time>2026-09-02T22:08:30Z</time>
  <course>287.65</course>
  <speed>0.8400595217006948</speed>
  <fix>3d</fix>
</trkpt>
<trkpt lat="33.809779" lon="-118.3940524">
  <ele>-48.81</ele>
  <time>2026-09-02T22:08:30Z</time>
  <course>270.38</course>
  <speed>0.87</speed>
  <fix>3d</fix>
</trkpt>
<trkpt lat="33.8097789" lon="-118.3940554">
  <ele>-50.014</ele>
  <time>2026-09-02T22:08:30Z</time>
  <course>287.45</course>
  <speed>0.8400595217006948</speed>
  <fix>3d</fix>
</trkpt>
<trkpt lat="33.809779" lon="-118.3940543">
  <ele>-48.81</ele>
  <time>2026-09-02T22:08:30Z</time>
  <course>270.27</course>
  <speed>0.87</speed>
  <fix>3d</fix>
</trkpt>
<trkpt lat="33.8097789" lon="-118.3940563">
  <ele>-50.016</ele>
  <time>2026-09-02T22:08:30Z</time>
  <course>287.25</course>
  <speed>0.8400595217006948</speed>
  <fix>3d</fix>
</trkpt>
<trkpt lat="33.809779" lon="-118.3940543">
  <ele>-48.81</ele>
  <time>2026-09-02T22:08:30Z</time>
  <course>270.27</course>
  <speed>0.87</speed>
  <fix>3d</fix>
</trkpt>
<trkpt lat="33.8097789" lon="-118.3940572">
  <ele>-50.017</ele>
  <time>2026-09-02T22:08:30Z</time>
  <course>287.06</course>
  <speed>0.8400595217006948</speed>
  <fix>3d</fix>
</trkpt>
<trkpt lat="33.809779" lon="-118.3940562">
  <ele>-48.81</ele>
  <time>2026-09-02T22:08:30Z</time>
  <course>270.2</course>
  <speed>0.87</speed>
  <fix>3d</fix>
</trkpt>
<trkpt lat="33.809779" lon="-118.3940582">
  <ele>-50.019</ele>
  <time>2026-09-02T22:08:30Z</time>
  <course>286.88</course>
  <speed>0.8400595217006948</speed>
  <fix>3d</fix>
</trkpt>
<trkpt lat="33.809779" lon="-118.3940562">
  <ele>-48.81</ele>
  <time>2026-09-02T22:08:30Z</time>
  <course>270.2</course>
  <speed>0.87</speed>
  <fix>3d</fix>
</trkpt>
<trkpt lat="33.809779" lon="-118.3940591">
  <ele>-50.02</ele>
  <time>2026-09-02T22:08:30Z</time>
  <course>286.71</course>
  <speed>0.8400595217006948</speed>
  <fix>3d</fix>
</trkpt>
<trkpt lat="33.809779" lon="-118.3940581">
  <ele>-48.81</ele>
  <time>2026-09-02T22:08:30Z</time>
  <course>270.16</course>
  <speed>0.87</speed>
  <fix>3d</fix>
</trkpt>
<trkpt lat="33.809779" lon="-118.3940601">
  <ele>-50.021</ele>
  <time>2026-09-02T22:08:30Z</time>
  <course>286.56</course>
  <speed>0.8400595217006948</speed>
  <fix>3d</fix>
</trkpt>
<trkpt lat="33.809779" lon="-118.3940581">
  <ele>-48.81</ele>
  <time>2026-09-02T22:08:30Z</time>
  <course>270.16</course>
  <speed>0.87</speed>
  <fix>3d</fix>
</trkpt>
<trkpt lat="33.809779" lon="-118.394061">
  <ele>-50.022</ele>
  <time>2026-09-02T22:08:30Z</time>
  <course>286.42</course>
  <speed>0.8400595217006948</speed>
  <fix>3d</fix>
</trkpt>
<trkpt lat="33.809779" lon="-118.3940599">
  <ele>-48.82</ele>
  <time>2026-09-02T22:08:30Z</time>
  <course>270.15</course>
  <speed>0.87</speed>
  <fix>3d</fix>
</trkpt>
<trkpt lat="33.809779" lon="-118.394062">
  <ele>-50.023</ele>
  <time>2026-09-02T22:08:30Z</time>
  <course>286.28</course>
  <speed>0.8400595217006948</speed>
  <fix>3d</fix>
</trkpt>
<trkpt lat="33.809779" lon="-118.3940599">
  <ele>-48.82</ele>
  <time>2026-09-02T22:08:30Z</time>
  <course>270.15</course>
  <speed>0.87</speed>
  <fix>3d</fix>
</trkpt>
<trkpt lat="33.809779" lon="-118.3940629">
  <ele>-50.023</ele>
  <time>2026-09-02T22:08:30Z</time>
  <course>286.14</course>
  <speed>0.8500588214941364</speed>
  <fix>3d</fix>
</trkpt>
<trkpt lat="33.809779" lon="-118.3940618">
  <ele>-48.82</ele>
  <time>2026-09-02T22:08:30Z</time>
  <course>270.18</course>
  <speed>0.87</speed>
  <fix>3d</fix>
</trkpt>
<trkpt lat="33.809779" lon="-118.3940639">
  <ele>-50.023</ele>
  <time>2026-09-02T22:08:30Z</time>
  <course>286.0</course>
  <speed>0.8500588214941364</speed>
  <fix>3d</fix>
</trkpt>
<trkpt lat="33.809779" lon="-118.3940618">
  <ele>-48.82</ele>
  <time>2026-09-02T22:08:30Z</time>
  <course>270.18</course>
  <speed>0.87</speed>
  <fix>3d</fix>
</trkpt>
<trkpt lat="33.809779" lon="-118.3940648">
  <ele>-50.023</ele>
  <time>2026-09-02T22:08:30Z</time>
  <course>285.87</course>
  <speed>0.8500588214941364</speed>
  <fix>3d</fix>
</trkpt>
<trkpt lat="33.809779" lon="-118.3940637">
  <ele>-48.82</ele>
  <time>2026-09-02T22:08:30Z</time>
  <course>270.21</course>
  <speed>0.87</speed>
  <fix>3d</fix>
</trkpt>
<trkpt lat="33.809779" lon="-118.3940657">
  <ele>-50.023</ele>
  <time>2026-09-02T22:08:30Z</time>
  <course>285.73</course>
  <speed>0.8500588214941364</speed>
  <fix>3d</fix>
</trkpt>
<trkpt lat="33.809779" lon="-118.3940637">
  <ele>-48.82</ele>
  <time>2026-09-02T22:08:30Z</time>
  <course>270.21</course>
  <speed>0.87</speed>
  <fix>3d</fix>
</trkpt>
<trkpt lat="33.809779" lon="-118.3940667">
  <ele>-50.023</ele>
  <time>2026-09-02T22:08:30Z</time>
  <course>285.6</course>
  <speed>0.8500588214941364</speed>
  <fix>3d</fix>
</trkpt>
<trkpt lat="33.809779" lon="-118.3940656">
  <ele>-48.82</ele>
  <time>2026-09-02T22:08:30Z</time>
  <course>270.25</course>
  <speed>0.87</speed>
  <fix>3d</fix>
</trkpt>
<trkpt lat="33.809779" lon="-118.3940676">
  <ele>-50.023</ele>
  <time>2026-09-02T22:08:30Z</time>
  <course>285.48</course>
  <speed>0.8500588214941364</speed>
  <fix>3d</fix>
</trkpt>
<trkpt lat="33.809779" lon="-118.3940656">
  <ele>-48.82</ele>
  <time>2026-09-02T22:08:30Z</time>
  <course>270.25</course>
  <speed>0.87</speed>
  <fix>3d</fix>
</trkpt>
<trkpt lat="33.809779" lon="-118.3940686">
  <ele>-50.021</ele>
  <time>2026-09-02T22:08:30Z</time>
  <course>285.35</course>
  <speed>0.8500588214941364</speed>
  <fix>3d</fix>
</trkpt>
<trkpt lat="33.809779" lon="-118.3940675">
  <ele>-48.81</ele>
  <time>2026-09-02T22:08:30Z</time>
  <course>270.31</course>
  <speed>0.88</speed>
  <fix>3d</fix>
</trkpt>
<trkpt lat="33.8097791" lon="-118.3940695">
  <ele>-50.019</ele>
  <time>2026-09-02T22:08:30Z</time>
  <course>285.23</course>
  <speed>0.8500588214941364</speed>
  <fix>3d</fix>
</trkpt>
<trkpt lat="33.809779" lon="-118.3940675">
  <ele>-48.81</ele>
  <time>2026-09-02T22:08:30Z</time>
  <course>270.31</course>
  <speed>0.88</speed>
  <fix>3d</fix>
</trkpt>
<trkpt lat="33.8097791" lon="-118.3940705">
  <ele>-50.018</ele>
  <time>2026-09-02T22:08:30Z</time>
  <course>285.11</course>
  <speed>0.8500588214941364</speed>
  <fix>3d</fix>
</trkpt>
<trkpt lat="33.809779" lon="-118.3940694">
  <ele>-48.81</ele>
  <time>2026-09-02T22:08:30Z</time>
  <course>270.36</course>
  <speed>0.88</speed>
  <fix>3d</fix>
</trkpt>
<trkpt lat="33.8097791" lon="-118.3940714">
  <ele>-50.017</ele>
  <time>2026-09-02T22:08:30Z</time>
  <course>284.99</course>
  <speed>0.8502352615599991</speed>
  <fix>3d</fix>
</trkpt>
<trkpt lat="33.809779" lon="-118.3940694">
  <ele>-48.81</ele>
  <time>2026-09-02T22:08:30Z</time>
  <course>270.36</course>
  <speed>0.88</speed>
  <fix>3d</fix>
</trkpt>
<trkpt lat="33.8097791" lon="-118.3940724">
  <ele>-50.017</ele>
  <time>2026-09-02T22:08:30Z</time>
  <course>284.86</course>
  <speed>0.8502352615599991</speed>
  <fix>3d</fix>
</trkpt>
<trkpt lat="33.809779" lon="-118.3940714">
  <ele>-48.81</ele>
  <time>2026-09-02T22:08:30Z</time>
  <course>270.43</course>
  <speed>0.88</speed>
  <fix>3d</fix>
</trkpt>
<trkpt lat="33.8097791" lon="-118.3940733">
  <ele>-50.018</ele>
  <time>2026-09-02T22:08:30Z</time>
  <course>284.74</course>
  <speed>0.8502352615599991</speed>
  <fix>3d</fix>
</trkpt>
<trkpt lat="33.809779" lon="-118.3940714">
  <ele>-48.81</ele>
  <time>2026-09-02T22:08:30Z</time>
  <course>270.43</course>
  <speed>0.88</speed>
  <fix>3d</fix>
</trkpt>
<trkpt lat="33.8097791" lon="-118.3940743">
  <ele>-50.02</ele>
  <time>2026-09-02T22:08:30Z</time>
  <course>284.62</course>
  <speed>0.8502352615599991</speed>
  <fix>3d</fix>
</trkpt>
<trkpt lat="33.809779" lon="-118.3940733">
  <ele>-48.81</ele>
  <time>2026-09-02T22:08:30Z</time>
  <course>270.5</course>
  <speed>0.88</speed>
  <fix>3d</fix>
</trkpt>
<trkpt lat="33.8097791" lon="-118.3940752">
  <ele>-50.021</ele>
  <time>2026-09-02T22:08:30Z</time>
  <course>284.5</course>
  <speed>0.8502352615599991</speed>
  <fix>3d</fix>
</trkpt>
<trkpt lat="33.809779" lon="-118.3940733">
  <ele>-48.81</ele>
  <time>2026-09-02T22:08:30Z</time>
  <course>270.5</course>
  <speed>0.88</speed>
  <fix>3d</fix>
</trkpt>
<trkpt lat="33.8097791" lon="-118.3940762">
  <ele>-50.022</ele>
  <time>2026-09-02T22:08:30Z</time>
  <course>284.39</course>
  <speed>0.8502352615599991</speed>
  <fix>3d</fix>
</trkpt>
<trkpt lat="33.8097791" lon="-118.3940752">
  <ele>-48.81</ele>
  <time>2026-09-02T22:08:30Z</time>
  <course>270.56</course>
  <speed>0.88</speed>
  <fix>3d</fix>
</trkpt>
<trkpt lat="33.8097791" lon="-118.3940772">
  <ele>-50.024</ele>
  <time>2026-09-02T22:08:30Z</time>
  <course>284.27</course>
  <speed>0.8502352615599991</speed>
  <fix>3d</fix>
</trkpt>
<trkpt lat="33.8097791" lon="-118.3940752">
  <ele>-48.81</ele>
  <time>2026-09-02T22:08:30Z</time>
  <course>270.56</course>
  <speed>0.88</speed>
  <fix>3d</fix>
</trkpt>
<trkpt lat="33.8097791" lon="-118.3940781">
  <ele>-50.024</ele>
  <time>2026-09-02T22:08:30Z</time>
  <course>284.13</course>
  <speed>0.8602325267042628</speed>
  <fix>3d</fix>
</trkpt>
<trkpt lat="33.8097791" lon="-118.3940771">
  <ele>-48.81</ele>
  <time>2026-09-02T22:08:30Z</time>
  <course>270.59</course>
  <speed>0.89</speed>
  <fix>3d</fix>
</trkpt>
<trkpt lat="33.8097791" lon="-118.3940791">
  <ele>-50.023</ele>
  <time>2026-09-02T22:08:30Z</time>
  <course>283.97</course>
  <speed>0.8602325267042628</speed>
  <fix>3d</fix>
</trkpt>
<trkpt lat="33.8097791" lon="-118.3940771">
  <ele>-48.81</ele>
  <time>2026-09-02T22:08:30Z</time>
  <course>270.59</course>
  <speed>0.89</speed>
  <fix>3d</fix>
</trkpt>
<trkpt lat="33.8097792" lon="-118.39408">
  <ele>-50.022</ele>
  <time>2026-09-02T22:08:30Z</time>
  <course>283.81</course>
  <speed>0.8602325267042628</speed>
  <fix>3d</fix>
</trkpt>
<trkpt lat="33.8097791" lon="-118.3940791">
  <ele>-48.81</ele>
  <time>2026-09-02T22:08:30Z</time>
  <course>270.56</course>
  <speed>0.89</speed>
  <fix>3d</fix>
</trkpt>
<trkpt lat="33.8097792" lon="-118.394081">
  <ele>-50.021</ele>
  <time>2026-09-02T22:08:30Z</time>
  <course>283.64</course>
  <speed>0.8502352615599991</speed>
  <fix>3d</fix>
</trkpt>
<trkpt lat="33.8097791" lon="-118.3940791">
  <ele>-48.81</ele>
  <time>2026-09-02T22:08:30Z</time>
  <course>270.56</course>
  <speed>0.89</speed>
  <fix>3d</fix>
</trkpt>
<trkpt lat="33.8097792" lon="-118.3940819">
  <ele>-50.02</ele>
  <time>2026-09-02T22:08:30Z</time>
  <course>283.49</course>
  <speed>0.8602325267042628</speed>
  <fix>3d</fix>
</trkpt>
<trkpt lat="33.8097791" lon="-118.394081">
  <ele>-48.81</ele>
  <time>2026-09-02T22:08:30Z</time>
  <course>270.53</course>
  <speed>0.89</speed>
  <fix>3d</fix>
</trkpt>
<trkpt lat="33.8097792" lon="-118.3940829">
  <ele>-50.018</ele>
  <time>2026-09-02T22:08:30Z</time>
  <course>283.34</course>
  <speed>0.8602325267042628</speed>
  <fix>3d</fix>
</trkpt>
<trkpt lat="33.8097791" lon="-118.394081">
  <ele>-48.81</ele>
  <time>2026-09-02T22:08:30Z</time>
  <course>270.53</course>
  <speed>0.89</speed>
  <fix>3d</fix>
</trkpt>
<trkpt lat="33.8097792" lon="-118.3940839">
  <ele>-50.017</ele>
  <time>2026-09-02T22:08:30Z</time>
  <course>283.2</course>
  <speed>0.8602325267042628</speed>
  <fix>3d</fix>
</trkpt>
<trkpt lat="33.8097791" lon="-118.3940829">
  <ele>-48.81</ele>
  <time>2026-09-02T22:08:30Z</time>
  <course>270.53</course>
  <speed>0.89</speed>
  <fix>3d</fix>
</trkpt>
<trkpt lat="33.8097792" lon="-118.3940848">
  <ele>-50.017</ele>
  <time>2026-09-02T22:08:30Z</time>
  <course>283.07</course>
  <speed>0.8602325267042628</speed>
  <fix>3d</fix>
</trkpt>
<trkpt lat="33.8097791" lon="-118.3940829">
  <ele>-48.81</ele>
  <time>2026-09-02T22:08:30Z</time>
  <course>270.53</course>
  <speed>0.89</speed>
  <fix>3d</fix>
</trkpt>
<trkpt lat="33.8097792" lon="-118.3940858">
  <ele>-50.019</ele>
  <time>2026-09-02T22:08:30Z</time>
  <course>282.94</course>
  <speed>0.8602325267042628</speed>
  <fix>3d</fix>
</trkpt>
<trkpt lat="33.8097791" lon="-118.3940849">
  <ele>-48.81</ele>
  <time>2026-09-02T22:08:30Z</time>
  <course>270.55</course>
  <speed>0.89</speed>
  <fix>3d</fix>
</trkpt>
<trkpt lat="33.8097792" lon="-118.3940868">
  <ele>-50.019</ele>
  <time>2026-09-02T22:08:30Z</time>
  <course>282.81</course>
  <speed>0.8602325267042628</speed>
  <fix>3d</fix>
</trkpt>
<trkpt lat="33.8097791" lon="-118.3940849">
  <ele>-48.81</ele>
  <time>2026-09-02T22:08:30Z</time>
  <course>270.55</course>
  <speed>0.89</speed>
  <fix>3d</fix>
</trkpt>
<trkpt lat="33.8097792" lon="-118.3940877">
  <ele>-50.02</ele>
  <time>2026-09-02T22:08:30Z</time>
  <course>282.7</course>
  <speed>0.8602325267042628</speed>
  <fix>3d</fix>
</trkpt>
<trkpt lat="33.8097792" lon="-118.3940868">
  <ele>-48.81</ele>
  <time>2026-09-02T22:08:30Z</time>
  <course>270.6</course>
  <speed>0.89</speed>
  <fix>3d</fix>
</trkpt>
<trkpt lat="33.8097792" lon="-118.3940887">
  <ele>-50.021</ele>
  <time>2026-09-02T22:08:30Z</time>
  <course>282.57</course>
  <speed>0.8602325267042628</speed>
  <fix>3d</fix>
</trkpt>
<trkpt lat="33.8097792" lon="-118.3940868">
  <ele>-48.81</ele>
  <time>2026-09-02T22:08:30Z</time>
  <course>270.6</course>
  <speed>0.89</speed>
  <fix>3d</fix>
</trkpt>
<trkpt lat="33.8097792" lon="-118.3940897">
  <ele>-50.02</ele>
  <time>2026-09-02T22:08:30Z</time>
  <course>282.43</course>
  <speed>0.8602325267042628</speed>
  <fix>3d</fix>
</trkpt>
<trkpt lat="33.8097792" lon="-118.3940887">
  <ele>-48.81</ele>
  <time>2026-09-02T22:08:30Z</time>
  <course>270.61</course>
  <speed>0.89</speed>
  <fix>3d</fix>
</trkpt>
<trkpt lat="33.8097793" lon="-118.3940906">
  <ele>-50.02</ele>
  <time>2026-09-02T22:08:30Z</time>
  <course>282.28</course>
  <speed>0.8602325267042628</speed>
  <fix>3d</fix>
</trkpt>
<trkpt lat="33.8097792" lon="-118.3940887">
  <ele>-48.81</ele>
  <time>2026-09-02T22:08:30Z</time>
  <course>270.61</course>
  <speed>0.89</speed>
  <fix>3d</fix>
</trkpt>
<trkpt lat="33.8097793" lon="-118.3940916">
  <ele>-50.02</ele>
  <time>2026-09-02T22:08:30Z</time>
  <course>282.12</course>
  <speed>0.8602325267042628</speed>
  <fix>3d</fix>
</trkpt>
<trkpt lat="33.8097792" lon="-118.3940907">
  <ele>-48.81</ele>
  <time>2026-09-02T22:08:30Z</time>
  <course>270.56</course>
  <speed>0.89</speed>
  <fix>3d</fix>
</trkpt>
<trkpt lat="33.8097793" lon="-118.3940926">
  <ele>-50.021</ele>
  <time>2026-09-02T22:08:30Z</time>
  <course>281.95</course>
  <speed>0.8602325267042628</speed>
  <fix>3d</fix>
</trkpt>
<trkpt lat="33.8097792" lon="-118.3940907">
  <ele>-48.81</ele>
  <time>2026-09-02T22:08:30Z</time>
  <course>270.56</course>
  <speed>0.89</speed>
  <fix>3d</fix>
</trkpt>
<trkpt lat="33.8097793" lon="-118.3940935">
  <ele>-50.021</ele>
  <time>2026-09-02T22:08:30Z</time>
  <course>281.8</course>
  <speed>0.8602325267042628</speed>
  <fix>3d</fix>
</trkpt>
<trkpt lat="33.8097792" lon="-118.3940926">
  <ele>-48.81</ele>
  <time>2026-09-02T22:08:30Z</time>
  <course>270.52</course>
  <speed>0.89</speed>
  <fix>3d</fix>
</trkpt>
<trkpt lat="33.8097793" lon="-118.3940945">
  <ele>-50.02</ele>
  <time>2026-09-02T22:08:30Z</time>
  <course>281.65</course>
  <speed>0.8602325267042628</speed>
  <fix>3d</fix>
</trkpt>
<trkpt lat="33.8097792" lon="-118.3940926">
  <ele>-48.81</ele>
  <time>2026-09-02T22:08:30Z</time>
  <course>270.52</course>
  <speed>0.89</speed>
  <fix>3d</fix>
</trkpt>
<trkpt lat="33.8097793" lon="-118.3940955">
  <ele>-50.018</ele>
  <time>2026-09-02T22:08:30Z</time>
  <course>281.51</course>
  <speed>0.8602325267042628</speed>
  <fix>3d</fix>
</trkpt>
<trkpt lat="33.8097792" lon="-118.3940945">
  <ele>-48.8</ele>
  <time>2026-09-02T22:08:30Z</time>
  <course>270.51</course>
  <speed>0.89</speed>
  <fix>3d</fix>
</trkpt>
<trkpt lat="33.8097793" lon="-118.3940964">
  <ele>-50.017</ele>
  <time>2026-09-02T22:08:30Z</time>
  <course>281.38</course>
  <speed>0.8602325267042628</speed>
  <fix>3d</fix>
</trkpt>
<trkpt lat="33.8097792" lon="-118.3940945">
  <ele>-48.8</ele>
  <time>2026-09-02T22:08:30Z</time>
  <course>270.51</course>
  <speed>0.89</speed>
  <fix>3d</fix>
</trkpt>
<trkpt lat="33.8097793" lon="-118.3940974">
  <ele>-50.016</ele>
  <time>2026-09-02T22:08:30Z</time>
  <course>281.25</course>
  <speed>0.8602325267042628</speed>
  <fix>3d</fix>
</trkpt>
<trkpt lat="33.8097792" lon="-118.3940965">
  <ele>-48.8</ele>
  <time>2026-09-02T22:08:30Z</time>
  <course>270.54</course>
  <speed>0.89</speed>
  <fix>3d</fix>
</trkpt>
<trkpt lat="33.8097793" lon="-118.3940984">
  <ele>-50.015</ele>
  <time>2026-09-02T22:08:30Z</time>
  <course>281.13</course>
  <speed>0.8602325267042628</speed>
  <fix>3d</fix>
</trkpt>
<trkpt lat="33.8097792" lon="-118.3940965">
  <ele>-48.8</ele>
  <time>2026-09-02T22:08:30Z</time>
  <course>270.54</course>
  <speed>0.89</speed>
  <fix>3d</fix>
</trkpt>
<trkpt lat="33.8097793" lon="-118.3940994">
  <ele>-50.015</ele>
  <time>2026-09-02T22:08:30Z</time>
  <course>281.01</course>
  <speed>0.8602325267042628</speed>
  <fix>3d</fix>
</trkpt>
<trkpt lat="33.8097792" lon="-118.3940984">
  <ele>-48.8</ele>
  <time>2026-09-02T22:08:30Z</time>
  <course>270.57</course>
  <speed>0.9</speed>
  <fix>3d</fix>
</trkpt>
<trkpt lat="33.8097793" lon="-118.3941003">
  <ele>-50.015</ele>
  <time>2026-09-02T22:08:30Z</time>
  <course>280.89</course>
  <speed>0.8602325267042628</speed>
  <fix>3d</fix>
</trkpt>
<trkpt lat="33.8097792" lon="-118.3940984">
  <ele>-48.8</ele>
  <time>2026-09-02T22:08:30Z</time>
  <course>270.57</course>
  <speed>0.9</speed>
  <fix>3d</fix>
</trkpt>
<trkpt lat="33.8097793" lon="-118.3941013">
  <ele>-50.017</ele>
  <time>2026-09-02T22:08:30Z</time>
  <course>280.79</course>
  <speed>0.8702298546935746</speed>
  <fix>3d</fix>
</trkpt>
<trkpt lat="33.8097792" lon="-118.3941003">
  <ele>-48.8</ele>
  <time>2026-09-02T22:08:30Z</time>
  <course>270.62</course>
  <speed>0.9</speed>
  <fix>3d</fix>
</trkpt>
<trkpt lat="33.8097793" lon="-118.3941023">
  <ele>-50.018</ele>
  <time>2026-09-02T22:08:30Z</time>
  <course>280.68</course>
  <speed>0.8702298546935746</speed>
  <fix>3d</fix>
</trkpt>
<trkpt lat="33.8097792" lon="-118.3941003">
  <ele>-48.8</ele>
  <time>2026-09-02T22:08:30Z</time>
  <course>270.62</course>
  <speed>0.9</speed>
  <fix>3d</fix>
</trkpt>
<trkpt lat="33.8097793" lon="-118.3941033">
  <ele>-50.021</ele>
  <time>2026-09-02T22:08:30Z</time>
  <course>280.58</course>
  <speed>0.8702298546935746</speed>
  <fix>3d</fix>
</trkpt>
<trkpt lat="33.8097792" lon="-118.3941023">
  <ele>-48.81</ele>
  <time>2026-09-02T22:08:30Z</time>
  <course>270.7</course>
  <speed>0.9</speed>
  <fix>3d</fix>
</trkpt>
<trkpt lat="33.8097794" lon="-118.3941042">
  <ele>-50.022</ele>
  <time>2026-09-02T22:08:30Z</time>
  <course>280.47</course>
  <speed>0.8702298546935746</speed>
  <fix>3d</fix>
</trkpt>
<trkpt lat="33.8097792" lon="-118.3941023">
  <ele>-48.81</ele>
  <time>2026-09-02T22:08:30Z</time>
  <course>270.7</course>
  <speed>0.9</speed>
  <fix>3d</fix>
</trkpt>
<trkpt lat="33.8097794" lon="-118.3941052">
  <ele>-50.024</ele>
  <time>2026-09-02T22:08:30Z</time>
  <course>280.37</course>
  <speed>0.8702298546935746</speed>
  <fix>3d</fix>
</trkpt>
<trkpt lat="33.8097792" lon="-118.3941043">
  <ele>-48.81</ele>
  <time>2026-09-02T22:08:30Z</time>
  <course>270.77</course>
  <speed>0.9</speed>
  <fix>3d</fix>
</trkpt>
<trkpt lat="33.8097794" lon="-118.3941062">
  <ele>-50.024</ele>
  <time>2026-09-02T22:08:30Z</time>
  <course>280.27</course>
  <speed>0.8702298546935746</speed>
  <fix>3d</fix>
</trkpt>
<trkpt lat="33.8097792" lon="-118.3941043">
  <ele>-48.81</ele>
  <time>2026-09-02T22:08:30Z</time>
  <course>270.77</course>
  <speed>0.9</speed>
  <fix>3d</fix>
</trkpt>
<trkpt lat="33.8097794" lon="-118.3941072">
  <ele>-50.024</ele>
  <time>2026-09-02T22:08:30Z</time>
  <course>280.18</course>
  <speed>0.8702298546935746</speed>
  <fix>3d</fix>
</trkpt>
<trkpt lat="33.8097792" lon="-118.3941063">
  <ele>-48.81</ele>
  <time>2026-09-02T22:08:30Z</time>
  <course>270.85</course>
  <speed>0.9</speed>
  <fix>3d</fix>
</trkpt>
<trkpt lat="33.8097794" lon="-118.3941082">
  <ele>-50.023</ele>
  <time>2026-09-02T22:08:30Z</time>
  <course>280.09</course>
  <speed>0.8702298546935746</speed>
  <fix>3d</fix>
</trkpt>
<trkpt lat="33.8097792" lon="-118.3941063">
  <ele>-48.81</ele>
  <time>2026-09-02T22:08:30Z</time>
  <course>270.85</course>
  <speed>0.9</speed>
  <fix>3d</fix>
</trkpt>
<trkpt lat="33.8097794" lon="-118.3941091">
  <ele>-50.022</ele>
  <time>2026-09-02T22:08:30Z</time>
  <course>280.0</course>
  <speed>0.8702298546935746</speed>
  <fix>3d</fix>
</trkpt>
<trkpt lat="33.8097793" lon="-118.3941082">
  <ele>-48.81</ele>
  <time>2026-09-02T22:08:30Z</time>
  <course>270.93</course>
  <speed>0.9</speed>
  <fix>3d</fix>
</trkpt>
<trkpt lat="33.8097794" lon="-118.3941101">
  <ele>-50.022</ele>
  <time>2026-09-02T22:08:30Z</time>
  <course>279.9</course>
  <speed>0.8702298546935746</speed>
  <fix>3d</fix>
</trkpt>
<trkpt lat="33.8097793" lon="-118.3941082">
  <ele>-48.81</ele>
  <time>2026-09-02T22:08:30Z</time>
  <course>270.93</course>
  <speed>0.9</speed>
  <fix>3d</fix>
</trkpt>
<trkpt lat="33.8097794" lon="-118.3941111">
  <ele>-50.021</ele>
  <time>2026-09-02T22:08:30Z</time>
  <course>279.8</course>
  <speed>0.8702298546935746</speed>
  <fix>3d</fix>
</trkpt>
<trkpt lat="33.8097793" lon="-118.3941102">
  <ele>-48.8</ele>
  <time>2026-09-02T22:08:30Z</time>
  <course>270.97</course>
  <speed>0.9</speed>
  <fix>3d</fix>
</trkpt>
<trkpt lat="33.8097794" lon="-118.3941121">
  <ele>-50.018</ele>
  <time>2026-09-02T22:08:30Z</time>
  <course>279.67</course>
  <speed>0.8702298546935746</speed>
  <fix>3d</fix>
</trkpt>
<trkpt lat="33.8097793" lon="-118.3941102">
  <ele>-48.8</ele>
  <time>2026-09-02T22:08:30Z</time>
  <course>270.97</course>
  <speed>0.9</speed>
  <fix>3d</fix>
</trkpt>
<trkpt lat="33.8097794" lon="-118.3941131">
  <ele>-50.016</ele>
  <time>2026-09-02T22:08:30Z</time>
  <course>279.52</course>
  <speed>0.8702298546935746</speed>
  <fix>3d</fix>
</trkpt>
<trkpt lat="33.8097793" lon="-118.3941121">
  <ele>-48.8</ele>
  <time>2026-09-02T22:08:30Z</time>
  <course>270.94</course>
  <speed>0.9</speed>
  <fix>3d</fix>
</trkpt>
<trkpt lat="33.8097794" lon="-118.3941141">
  <ele>-50.015</ele>
  <time>2026-09-02T22:08:30Z</time>
  <course>279.37</course>
  <speed>0.8702298546935746</speed>
  <fix>3d</fix>
</trkpt>
<trkpt lat="33.8097793" lon="-118.3941121">
  <ele>-48.8</ele>
  <time>2026-09-02T22:08:30Z</time>
  <course>270.94</course>
  <speed>0.9</speed>
  <fix>3d</fix>
</trkpt>
<trkpt lat="33.8097794" lon="-118.394115">
  <ele>-50.014</ele>
  <time>2026-09-02T22:08:30Z</time>
  <course>279.23</course>
  <speed>0.8702298546935746</speed>
  <fix>3d</fix>
</trkpt>
<trkpt lat="33.8097794" lon="-118.3941141">
  <ele>-48.8</ele>
  <time>2026-09-02T22:08:30Z</time>
  <course>270.9</course>
  <speed>0.9</speed>
  <fix>3d</fix>
</trkpt>
<trkpt lat="33.8097794" lon="-118.394116">
  <ele>-50.016</ele>
  <time>2026-09-02T22:08:30Z</time>
  <course>279.08</course>
  <speed>0.8702298546935746</speed>
  <fix>3d</fix>
</trkpt>
<trkpt lat="33.8097794" lon="-118.3941141">
  <ele>-48.8</ele>
  <time>2026-09-02T22:08:30Z</time>
  <course>270.9</course>
  <speed>0.9</speed>
  <fix>3d</fix>
</trkpt>
<trkpt lat="33.8097795" lon="-118.394117">
  <ele>-50.017</ele>
  <time>2026-09-02T22:08:30Z</time>
  <course>278.93</course>
  <speed>0.8802272433866155</speed>
  <fix>3d</fix>
</trkpt>
<trkpt lat="33.8097795" lon="-118.3941161">
  <ele>-48.8</ele>
  <time>2026-09-02T22:08:30Z</time>
  <course>270.84</course>
  <speed>0.9</speed>
  <fix>3d</fix>
</trkpt>
<trkpt lat="33.8097795" lon="-118.394118">
  <ele>-50.018</ele>
  <time>2026-09-02T22:08:30Z</time>
  <course>278.75</course>
  <speed>0.8802272433866155</speed>
  <fix>3d</fix>
</trkpt>
<trkpt lat="33.8097795" lon="-118.3941161">
  <ele>-48.8</ele>
  <time>2026-09-02T22:08:30Z</time>
  <course>270.84</course>
  <speed>0.9</speed>
  <fix>3d</fix>
</trkpt>
<trkpt lat="33.8097795" lon="-118.394119">
  <ele>-50.019</ele>
  <time>2026-09-02T22:08:30Z</time>
  <course>278.55</course>
  <speed>0.8802272433866155</speed>
  <fix>3d</fix>
</trkpt>
<trkpt lat="33.8097795" lon="-118.394118">
  <ele>-48.8</ele>
  <time>2026-09-02T22:08:30Z</time>
  <course>270.69</course>
  <speed>0.9</speed>
  <fix>3d</fix>
</trkpt>
<trkpt lat="33.8097795" lon="-118.39412">
  <ele>-50.021</ele>
  <time>2026-09-02T22:08:30Z</time>
  <course>278.34</course>
  <speed>0.880056816347672</speed>
  <fix>3d</fix>
</trkpt>
<trkpt lat="33.8097795" lon="-118.394118">
  <ele>-48.8</ele>
  <time>2026-09-02T22:08:30Z</time>
  <course>270.69</course>
  <speed>0.9</speed>
  <fix>3d</fix>
</trkpt>
<trkpt lat="33.8097795" lon="-118.394121">
  <ele>-50.021</ele>
  <time>2026-09-02T22:08:30Z</time>
  <course>278.13</course>
  <speed>0.880056816347672</speed>
  <fix>3d</fix>
</trkpt>
<trkpt lat="33.8097795" lon="-118.3941199">
  <ele>-48.81</ele>
  <time>2026-09-02T22:08:30Z</time>
  <course>270.51</course>
  <speed>0.91</speed>
  <fix>3d</fix>
</trkpt>
<trkpt lat="33.8097795" lon="-118.394122">
  <ele>-50.02</ele>
  <time>2026-09-02T22:08:30Z</time>
  <course>277.93</course>
  <speed>0.880056816347672</speed>
  <fix>3d</fix>
</trkpt>
<trkpt lat="33.8097795" lon="-118.3941199">
  <ele>-48.81</ele>
  <time>2026-09-02T22:08:30Z</time>
  <course>270.51</course>
  <speed>0.91</speed>
  <fix>3d</fix>
</trkpt>
<trkpt lat="33.8097795" lon="-118.3941229">
  <ele>-50.019</ele>
  <time>2026-09-02T22:08:30Z</time>
  <course>277.74</course>
  <speed>0.880056816347672</speed>
  <fix>3d</fix>
</trkpt>
<trkpt lat="33.8097795" lon="-118.394122">
  <ele>-48.81</ele>
  <time>2026-09-02T22:08:30Z</time>
  <course>270.36</course>
  <speed>0.91</speed>
  <fix>3d</fix>
</trkpt>
<trkpt lat="33.8097795" lon="-118.3941239">
  <ele>-50.018</ele>
  <time>2026-09-02T22:08:30Z</time>
  <course>277.57</course>
  <speed>0.880056816347672</speed>
  <fix>3d</fix>
</trkpt>
<trkpt lat="33.8097795" lon="-118.394122">
  <ele>-48.81</ele>
  <time>2026-09-02T22:08:30Z</time>
  <course>270.36</course>
  <speed>0.91</speed>
  <fix>3d</fix>
</trkpt>
<trkpt lat="33.8097795" lon="-118.3941249">
  <ele>-50.018</ele>
  <time>2026-09-02T22:08:30Z</time>
  <course>277.41</course>
  <speed>0.880056816347672</speed>
  <fix>3d</fix>
</trkpt>
<trkpt lat="33.8097795" lon="-118.394124">
  <ele>-48.81</ele>
  <time>2026-09-02T22:08:30Z</time>
  <course>270.26</course>
  <speed>0.91</speed>
  <fix>3d</fix>
</trkpt>
<trkpt lat="33.8097795" lon="-118.3941259">
  <ele>-50.018</ele>
  <time>2026-09-02T22:08:30Z</time>
  <course>277.27</course>
  <speed>0.880056816347672</speed>
  <fix>3d</fix>
</trkpt>
<trkpt lat="33.8097795" lon="-118.394124">
  <ele>-48.81</ele>
  <time>2026-09-02T22:08:30Z</time>
  <course>270.26</course>
  <speed>0.91</speed>
  <fix>3d</fix>
</trkpt>
<trkpt lat="33.8097796" lon="-118.3941269">
  <ele>-50.02</ele>
  <time>2026-09-02T22:08:30Z</time>
  <course>277.15</course>
  <speed>0.880056816347672</speed>
  <fix>3d</fix>
</trkpt>
<trkpt lat="33.8097795" lon="-118.3941259">
  <ele>-48.81</ele>
  <time>2026-09-02T22:08:30Z</time>
  <course>270.22</course>
  <speed>0.91</speed>
  <fix>3d</fix>
</trkpt>
<trkpt lat="33.8097796" lon="-118.3941279">
  <ele>-50.021</ele>
  <time>2026-09-02T22:08:30Z</time>
  <course>277.04</course>
  <speed>0.880056816347672</speed>
  <fix>3d</fix>
</trkpt>
<trkpt lat="33.8097795" lon="-118.3941259">
  <ele>-48.81</ele>
  <time>2026-09-02T22:08:30Z</time>
  <course>270.22</course>
  <speed>0.91</speed>
  <fix>3d</fix>
</trkpt>
<trkpt lat="33.8097796" lon="-118.3941289">
  <ele>-50.021</ele>
  <time>2026-09-02T22:08:30Z</time>
  <course>276.94</course>
  <speed>0.8900561780022652</speed>
  <fix>3d</fix>
</trkpt>
<trkpt lat="33.8097795" lon="-118.3941279">
  <ele>-48.81</ele>
  <time>2026-09-02T22:08:30Z</time>
  <course>270.22</course>
  <speed>0.91</speed>
  <fix>3d</fix>
</trkpt>
<trkpt lat="33.8097796" lon="-118.3941299">
  <ele>-50.02</ele>
  <time>2026-09-02T22:08:30Z</time>
  <course>276.84</course>
  <speed>0.8900561780022652</speed>
  <fix>3d</fix>
</trkpt>
<trkpt lat="33.8097795" lon="-118.3941279">
  <ele>-48.81</ele>
  <time>2026-09-02T22:08:30Z</time>
  <course>270.22</course>
  <speed>0.91</speed>
  <fix>3d</fix>
</trkpt>
<trkpt lat="33.8097796" lon="-118.3941309">
  <ele>-50.02</ele>
  <time>2026-09-02T22:08:30Z</time>
  <course>276.75</course>
  <speed>0.8900561780022652</speed>
  <fix>3d</fix>
</trkpt>
<trkpt lat="33.8097795" lon="-118.3941299">
  <ele>-48.81</ele>
  <time>2026-09-02T22:08:30Z</time>
  <course>270.23</course>
  <speed>0.91</speed>
  <fix>3d</fix>
</trkpt>
<trkpt lat="33.8097796" lon="-118.3941319">
  <ele>-50.02</ele>
  <time>2026-09-02T22:08:30Z</time>
  <course>276.67</course>
  <speed>0.8900561780022652</speed>
  <fix>3d</fix>
</trkpt>
<trkpt lat="33.8097795" lon="-118.3941299">
  <ele>-48.81</ele>
  <time>2026-09-02T22:08:30Z</time>
  <course>270.23</course>
  <speed>0.91</speed>
  <fix>3d</fix>
</trkpt>
<trkpt lat="33.8097796" lon="-118.3941329">
  <ele>-50.019</ele>
  <time>2026-09-02T22:08:30Z</time>
  <course>276.59</course>
  <speed>0.8900561780022652</speed>
  <fix>3d</fix>
</trkpt>
<trkpt lat="33.8097795" lon="-118.3941319">
  <ele>-48.81</ele>
  <time>2026-09-02T22:08:30Z</time>
  <course>270.25</course>
  <speed>0.91</speed>
  <fix>3d</fix>
</trkpt>
<trkpt lat="33.8097796" lon="-118.3941339">
  <ele>-50.018</ele>
  <time>2026-09-02T22:08:30Z</time>
  <course>276.51</course>
  <speed>0.8900561780022652</speed>
  <fix>3d</fix>
</trkpt>
<trkpt lat="33.8097795" lon="-118.3941319">
  <ele>-48.81</ele>
  <time>2026-09-02T22:08:30Z</time>
  <course>270.25</course>
  <speed>0.91</speed>
  <fix>3d</fix>
</trkpt>
<trkpt lat="33.8097796" lon="-118.3941349">
  <ele>-50.018</ele>
  <time>2026-09-02T22:08:30Z</time>
  <course>276.44</course>
  <speed>0.8900561780022652</speed>
  <fix>3d</fix>
</trkpt>
<trkpt lat="33.8097796" lon="-118.3941338">
  <ele>-48.81</ele>
  <time>2026-09-02T22:08:30Z</time>
  <course>270.28</course>
  <speed>0.92</speed>
  <fix>3d</fix>
</trkpt>
<trkpt lat="33.8097796" lon="-118.3941359">
  <ele>-50.018</ele>
  <time>2026-09-02T22:08:30Z</time>
  <course>276.36</course>
  <speed>0.8900561780022652</speed>
  <fix>3d</fix>
</trkpt>
<trkpt lat="33.8097796" lon="-118.3941338">
  <ele>-48.81</ele>
  <time>2026-09-02T22:08:30Z</time>
  <course>270.28</course>
  <speed>0.92</speed>
  <fix>3d</fix>
</trkpt>
<trkpt lat="33.8097796" lon="-118.3941369">
  <ele>-50.019</ele>
  <time>2026-09-02T22:08:30Z</time>
  <course>276.25</course>
  <speed>0.8900561780022652</speed>
  <fix>3d</fix>
</trkpt>
<trkpt lat="33.8097796" lon="-118.3941359">
  <ele>-48.81</ele>
  <time>2026-09-02T22:08:30Z</time>
  <course>270.24</course>
  <speed>0.92</speed>
  <fix>3d</fix>
</trkpt>
<trkpt lat="33.8097796" lon="-118.3941379">
  <ele>-50.019</ele>
  <time>2026-09-02T22:08:30Z</time>
  <course>276.14</course>
  <speed>0.8900561780022652</speed>
  <fix>3d</fix>
</trkpt>
<trkpt lat="33.8097796" lon="-118.3941359">
  <ele>-48.81</ele>
  <time>2026-09-02T22:08:30Z</time>
  <course>270.24</course>
  <speed>0.92</speed>
  <fix>3d</fix>
</trkpt>
<trkpt lat="33.8097796" lon="-118.3941389">
  <ele>-50.019</ele>
  <time>2026-09-02T22:08:30Z</time>
  <course>276.02</course>
  <speed>0.8900561780022652</speed>
  <fix>3d</fix>
</trkpt>
<trkpt lat="33.8097796" lon="-118.3941379">
  <ele>-48.81</ele>
  <time>2026-09-02T22:08:30Z</time>
  <course>270.15</course>
  <speed>0.92</speed>
  <fix>3d</fix>
</trkpt>
<trkpt lat="33.8097796" lon="-118.3941399">
  <ele>-50.019</ele>
  <time>2026-09-02T22:08:30Z</time>
  <course>275.9</course>
  <speed>0.8900561780022652</speed>
  <fix>3d</fix>
</trkpt>
<trkpt lat="33.8097796" lon="-118.3941379">
  <ele>-48.81</ele>
  <time>2026-09-02T22:08:30Z</time>
  <course>270.15</course>
  <speed>0.92</speed>
  <fix>3d</fix>
</trkpt>
<trkpt lat="33.8097796" lon="-118.3941409">
  <ele>-50.019</ele>
  <time>2026-09-02T22:08:30Z</time>
  <course>275.79</course>
  <speed>0.9000555538409837</speed>
  <fix>3d</fix>
</trkpt>
<trkpt lat="33.8097796" lon="-118.3941399">
  <ele>-48.81</ele>
  <time>2026-09-02T22:08:30Z</time>
  <course>270.08</course>
  <speed>0.92</speed>
  <fix>3d</fix>
</trkpt>
<trkpt lat="33.8097796" lon="-118.3941419">
  <ele>-50.018</ele>
  <time>2026-09-02T22:08:30Z</time>
  <course>275.68</course>
  <speed>0.8900561780022652</speed>
  <fix>3d</fix>
</trkpt>
<trkpt lat="33.8097796" lon="-118.3941399">
  <ele>-48.81</ele>
  <time>2026-09-02T22:08:30Z</time>
  <course>270.08</course>
  <speed>0.92</speed>
  <fix>3d</fix>
</trkpt>
<trkpt lat="33.8097796" lon="-118.3941429">
  <ele>-50.019</ele>
  <time>2026-09-02T22:08:30Z</time>
  <course>275.59</course>
  <speed>0.9000555538409837</speed>
  <fix>3d</fix>
</trkpt>
<trkpt lat="33.8097796" lon="-118.3941419">
  <ele>-48.81</ele>
  <time>2026-09-02T22:08:30Z</time>
  <course>270.02</course>
  <speed>0.92</speed>
  <fix>3d</fix>
</trkpt>
<trkpt lat="33.8097796" lon="-118.3941439">
  <ele>-50.02</ele>
  <time>2026-09-02T22:08:30Z</time>
  <course>275.5</course>
  <speed>0.9000555538409837</speed>
  <fix>3d</fix>
</trkpt>
<trkpt lat="33.8097796" lon="-118.3941419">
  <ele>-48.81</ele>
  <time>2026-09-02T22:08:30Z</time>
  <course>270.02</course>
  <speed>0.92</speed>
  <fix>3d</fix>
</trkpt>
<trkpt lat="33.8097797" lon="-118.3941449">
  <ele>-50.021</ele>
  <time>2026-09-02T22:08:30Z</time>
  <course>275.42</course>
  <speed>0.9000555538409837</speed>
  <fix>3d</fix>
</trkpt>
<trkpt lat="33.8097796" lon="-118.3941439">
  <ele>-48.82</ele>
  <time>2026-09-02T22:08:30Z</time>
  <course>270.0</course>
  <speed>0.92</speed>
  <fix>3d</fix>
</trkpt>
<trkpt lat="33.8097797" lon="-118.3941459">
  <ele>-50.023</ele>
  <time>2026-09-02T22:08:30Z</time>
  <course>275.35</course>
  <speed>0.9000555538409837</speed>
  <fix>3d</fix>
</trkpt>
<trkpt lat="33.8097796" lon="-118.3941439">
  <ele>-48.82</ele>
  <time>2026-09-02T22:08:30Z</time>
  <course>270.0</course>
  <speed>0.92</speed>
  <fix>3d</fix>
</trkpt>
<trkpt lat="33.8097797" lon="-118.394147">
  <ele>-50.025</ele>
  <time>2026-09-02T22:08:30Z</time>
  <course>275.28</course>
  <speed>0.9000555538409837</speed>
  <fix>3d</fix>
</trkpt>
<trkpt lat="33.8097796" lon="-118.3941459">
  <ele>-48.82</ele>
  <time>2026-09-02T22:08:30Z</time>
  <course>269.99</course>
  <speed>0.92</speed>
  <fix>3d</fix>
</trkpt>
<trkpt lat="33.8097797" lon="-118.394148">
  <ele>-50.027</ele>
  <time>2026-09-02T22:08:30Z</time>
  <course>275.2</course>
  <speed>0.9000555538409837</speed>
  <fix>3d</fix>
</trkpt>
<trkpt lat="33.8097796" lon="-118.3941459">
  <ele>-48.82</ele>
  <time>2026-09-02T22:08:30Z</time>
  <course>269.99</course>
  <speed>0.92</speed>
  <fix>3d</fix>
</trkpt>
<trkpt lat="33.8097797" lon="-118.394149">
  <ele>-50.028</ele>
  <time>2026-09-02T22:08:30Z</time>
  <course>275.14</course>
  <speed>0.9000555538409837</speed>
  <fix>3d</fix>
</trkpt>
<trkpt lat="33.8097796" lon="-118.3941479">
  <ele>-48.82</ele>
  <time>2026-09-02T22:08:30Z</time>
  <course>269.99</course>
  <speed>0.92</speed>
  <fix>3d</fix>
</trkpt>
<trkpt lat="33.8097797" lon="-118.39415">
  <ele>-50.027</ele>
  <time>2026-09-02T22:08:30Z</time>
  <course>275.08</course>
  <speed>0.9000555538409837</speed>
  <fix>3d</fix>
</trkpt>
<trkpt lat="33.8097796" lon="-118.3941479">
  <ele>-48.82</ele>
  <time>2026-09-02T22:08:30Z</time>
  <course>269.99</course>
  <speed>0.92</speed>
  <fix>3d</fix>
</trkpt>
<trkpt lat="33.8097797" lon="-118.394151">
  <ele>-50.025</ele>
  <time>2026-09-02T22:08:30Z</time>
  <course>275.02</course>
  <speed>0.9000555538409837</speed>
  <fix>3d</fix>
</trkpt>
<trkpt lat="33.8097796" lon="-118.3941499">
  <ele>-48.81</ele>
  <time>2026-09-02T22:08:30Z</time>
  <course>270.0</course>
  <speed>0.93</speed>
  <fix>3d</fix>
</trkpt>
<trkpt lat="33.8097797" lon="-118.394152">
  <ele>-50.023</ele>
  <time>2026-09-02T22:08:30Z</time>
  <course>274.97</course>
  <speed>0.9000555538409837</speed>
  <fix>3d</fix>
</trkpt>
<trkpt lat="33.8097796" lon="-118.3941499">
  <ele>-48.81</ele>
  <time>2026-09-02T22:08:30Z</time>
  <course>270.0</course>
  <speed>0.93</speed>
  <fix>3d</fix>
</trkpt>
<trkpt lat="33.8097797" lon="-118.394153">
  <ele>-50.021</ele>
  <time>2026-09-02T22:08:30Z</time>
  <course>274.91</course>
  <speed>0.9000555538409837</speed>
  <fix>3d</fix>
</trkpt>
<trkpt lat="33.8097796" lon="-118.3941519">
  <ele>-48.81</ele>
  <time>2026-09-02T22:08:30Z</time>
  <course>270.0</course>
  <speed>0.93</speed>
  <fix>3d</fix>
</trkpt>
<trkpt lat="33.8097797" lon="-118.394154">
  <ele>-50.019</ele>
  <time>2026-09-02T22:08:30Z</time>
  <course>274.85</course>
  <speed>0.9100549433962765</speed>
  <fix>3d</fix>
</trkpt>
<trkpt lat="33.8097796" lon="-118.3941519">
  <ele>-48.81</ele>
  <time>2026-09-02T22:08:30Z</time>
  <course>270.0</course>
  <speed>0.93</speed>
  <fix>3d</fix>
</trkpt>
<trkpt lat="33.8097797" lon="-118.394155">
  <ele>-50.018</ele>
  <time>2026-09-02T22:08:30Z</time>
  <course>274.81</course>
  <speed>0.9100549433962765</speed>
  <fix>3d</fix>
</trkpt>
<trkpt lat="33.8097796" lon="-118.3941539">
  <ele>-48.8</ele>
  <time>2026-09-02T22:08:30Z</time>
  <course>270.02</course>
  <speed>0.93</speed>
  <fix>3d</fix>
</trkpt>
<trkpt lat="33.8097797" lon="-118.394156">
  <ele>-50.018</ele>
  <time>2026-09-02T22:08:30Z</time>
  <course>274.76</course>
  <speed>0.9100549433962765</speed>
  <fix>3d</fix>
</trkpt>
<trkpt lat="33.8097796" lon="-118.3941539">
  <ele>-48.8</ele>
  <time>2026-09-02T22:08:30Z</time>
  <course>270.02</course>
  <speed>0.93</speed>
  <fix>3d</fix>
</trkpt>
<trkpt lat="33.8097797" lon="-118.3941571">
  <ele>-50.018</ele>
  <time>2026-09-02T22:08:30Z</time>
  <course>274.71</course>
  <speed>0.9100549433962765</speed>
  <fix>3d</fix>
</trkpt>
<trkpt lat="33.8097796" lon="-118.3941558">
  <ele>-48.8</ele>
  <time>2026-09-02T22:08:30Z</time>
  <course>270.04</course>
  <speed>0.93</speed>
  <fix>3d</fix>
</trkpt>
<trkpt lat="33.8097797" lon="-118.3941581">
  <ele>-50.019</ele>
  <time>2026-09-02T22:08:30Z</time>
  <course>274.65</course>
  <speed>0.9100549433962765</speed>
  <fix>3d</fix>
</trkpt>
<trkpt lat="33.8097796" lon="-118.3941558">
  <ele>-48.8</ele>
  <time>2026-09-02T22:08:30Z</time>
  <course>270.04</course>
  <speed>0.93</speed>
  <fix>3d</fix>
</trkpt>
<trkpt lat="33.8097797" lon="-118.3941591">
  <ele>-50.018</ele>
  <time>2026-09-02T22:08:30Z</time>
  <course>274.6</course>
  <speed>0.9100549433962765</speed>
  <fix>3d</fix>
</trkpt>
<trkpt lat="33.8097796" lon="-118.3941579">
  <ele>-48.8</ele>
  <time>2026-09-02T22:08:30Z</time>
  <course>270.06</course>
  <speed>0.93</speed>
  <fix>3d</fix>
</trkpt>
<trkpt lat="33.8097797" lon="-118.3941601">
  <ele>-50.016</ele>
  <time>2026-09-02T22:08:30Z</time>
  <course>274.56</course>
  <speed>0.9100549433962765</speed>
  <fix>3d</fix>
</trkpt>
<trkpt lat="33.8097796" lon="-118.3941579">
  <ele>-48.8</ele>
  <time>2026-09-02T22:08:30Z</time>
  <course>270.06</course>
  <speed>0.93</speed>
  <fix>3d</fix>
</trkpt>
<trkpt lat="33.8097797" lon="-118.3941611">
  <ele>-50.014</ele>
  <time>2026-09-02T22:08:30Z</time>
  <course>274.51</course>
  <speed>0.9100549433962765</speed>
  <fix>3d</fix>
</trkpt>
<trkpt lat="33.8097796" lon="-118.39416">
  <ele>-48.8</ele>
  <time>2026-09-02T22:08:30Z</time>
  <course>270.09</course>
  <speed>0.94</speed>
  <fix>3d</fix>
</trkpt>
<trkpt lat="33.8097797" lon="-118.3941621">
  <ele>-50.012</ele>
  <time>2026-09-02T22:08:30Z</time>
  <course>274.47</course>
  <speed>0.9102197536858887</speed>
  <fix>3d</fix>
</trkpt>
<trkpt lat="33.8097796" lon="-118.39416">
  <ele>-48.8</ele>
  <time>2026-09-02T22:08:30Z</time>
  <course>270.09</course>
  <speed>0.94</speed>
  <fix>3d</fix>
</trkpt>
<trkpt lat="33.8097797" lon="-118.3941632">
  <ele>-50.012</ele>
  <time>2026-09-02T22:08:30Z</time>
  <course>274.42</course>
  <speed>0.9102197536858887</speed>
  <fix>3d</fix>
</trkpt>
<trkpt lat="33.8097796" lon="-118.394162">
  <ele>-48.8</ele>
  <time>2026-09-02T22:08:30Z</time>
  <course>270.12</course>
  <speed>0.94</speed>
  <fix>3d</fix>
</trkpt>
<trkpt lat="33.8097797" lon="-118.3941642">
  <ele>-50.013</ele>
  <time>2026-09-02T22:08:30Z</time>
  <course>274.38</course>
  <speed>0.9102197536858887</speed>
  <fix>3d</fix>
</trkpt>
<trkpt lat="33.8097796" lon="-118.394162">
  <ele>-48.8</ele>
  <time>2026-09-02T22:08:30Z</time>
  <course>270.12</course>
  <speed>0.94</speed>
  <fix>3d</fix>
</trkpt>
<trkpt lat="33.8097797" lon="-118.3941652">
  <ele>-50.016</ele>
  <time>2026-09-02T22:08:30Z</time>
  <course>274.34</course>
  <speed>0.9102197536858887</speed>
  <fix>3d</fix>
</trkpt>
<trkpt lat="33.8097796" lon="-118.3941641">
  <ele>-48.8</ele>
  <time>2026-09-02T22:08:30Z</time>
  <course>270.15</course>
  <speed>0.94</speed>
  <fix>3d</fix>
</trkpt>
<trkpt lat="33.8097797" lon="-118.3941662">
  <ele>-50.019</ele>
  <time>2026-09-02T22:08:30Z</time>
  <course>274.3</course>
  <speed>0.9102197536858887</speed>
  <fix>3d</fix>
</trkpt>
<trkpt lat="33.8097796" lon="-118.3941641">
  <ele>-48.8</ele>
  <time>2026-09-02T22:08:30Z</time>
  <course>270.15</course>
  <speed>0.94</speed>
  <fix>3d</fix>
</trkpt>
<trkpt lat="33.8097797" lon="-118.3941672">
  <ele>-50.021</ele>
  <time>2026-09-02T22:08:30Z</time>
  <course>274.27</course>
  <speed>0.9202173656261873</speed>
  <fix>3d</fix>
</trkpt>
<trkpt lat="33.8097796" lon="-118.3941661">
  <ele>-48.81</ele>
  <time>2026-09-02T22:08:30Z</time>
  <course>270.17</course>
  <speed>0.94</speed>
  <fix>3d</fix>
</trkpt>
<trkpt lat="33.8097797" lon="-118.3941683">
  <ele>-50.022</ele>
  <time>2026-09-02T22:08:30Z</time>
  <course>274.23</course>
  <speed>0.9202173656261873</speed>
  <fix>3d</fix>
</trkpt>
<trkpt lat="33.8097796" lon="-118.3941661">
  <ele>-48.81</ele>
  <time>2026-09-02T22:08:30Z</time>
  <course>270.17</course>
  <speed>0.94</speed>
  <fix>3d</fix>
</trkpt>
<trkpt lat="33.8097797" lon="-118.3941693">
  <ele>-50.022</ele>
  <time>2026-09-02T22:08:30Z</time>
  <course>274.19</course>
  <speed>0.9202173656261873</speed>
  <fix>3d</fix>
</trkpt>
<trkpt lat="33.8097796" lon="-118.3941681">
  <ele>-48.81</ele>
  <time>2026-09-02T22:08:30Z</time>
  <course>270.18</course>
  <speed>0.94</speed>
  <fix>3d</fix>
</trkpt>
<trkpt lat="33.8097797" lon="-118.3941703">
  <ele>-50.022</ele>
  <time>2026-09-02T22:08:30Z</time>
  <course>274.15</course>
  <speed>0.9202173656261873</speed>
  <fix>3d</fix>
</trkpt>
<trkpt lat="33.8097796" lon="-118.3941681">
  <ele>-48.81</ele>
  <time>2026-09-02T22:08:30Z</time>
  <course>270.18</course>
  <speed>0.94</speed>
  <fix>3d</fix>
</trkpt>
<trkpt lat="33.8097797" lon="-118.3941713">
  <ele>-50.023</ele>
  <time>2026-09-02T22:08:30Z</time>
  <course>274.12</course>
  <speed>0.9202173656261873</speed>
  <fix>3d</fix>
</trkpt>
<trkpt lat="33.8097796" lon="-118.3941702">
  <ele>-48.82</ele>
  <time>2026-09-02T22:08:30Z</time>
  <course>270.2</course>
  <speed>0.94</speed>
  <fix>3d</fix>
</trkpt>
<trkpt lat="33.8097797" lon="-118.3941724">
  <ele>-50.024</ele>
  <time>2026-09-02T22:08:30Z</time>
  <course>274.08</course>
  <speed>0.9202173656261873</speed>
  <fix>3d</fix>
</trkpt>
<trkpt lat="33.8097796" lon="-118.3941702">
  <ele>-48.82</ele>
  <time>2026-09-02T22:08:30Z</time>
  <course>270.2</course>
  <speed>0.94</speed>
  <fix>3d</fix>
</trkpt>
<trkpt lat="33.8097797" lon="-118.3941734">
  <ele>-50.026</ele>
  <time>2026-09-02T22:08:30Z</time>
  <course>274.05</course>
  <speed>0.9202173656261873</speed>
  <fix>3d</fix>
</trkpt>
<trkpt lat="33.8097796" lon="-118.3941722">
  <ele>-48.82</ele>
  <time>2026-09-02T22:08:30Z</time>
  <course>270.23</course>
  <speed>0.94</speed>
  <fix>3d</fix>
</trkpt>
<trkpt lat="33.8097797" lon="-118.3941744">
  <ele>-50.027</ele>
  <time>2026-09-02T22:08:30Z</time>
  <course>274.01</course>
  <speed>0.9202173656261873</speed>
  <fix>3d</fix>
</trkpt>
<trkpt lat="33.8097796" lon="-118.3941722">
  <ele>-48.82</ele>
  <time>2026-09-02T22:08:30Z</time>
  <course>270.23</course>
  <speed>0.94</speed>
  <fix>3d</fix>
</trkpt>
<trkpt lat="33.8097797" lon="-118.3941754">
  <ele>-50.027</ele>
  <time>2026-09-02T22:08:30Z</time>
  <course>273.97</course>
  <speed>0.9202173656261873</speed>
  <fix>3d</fix>
</trkpt>
<trkpt lat="33.8097796" lon="-118.3941743">
  <ele>-48.81</ele>
  <time>2026-09-02T22:08:30Z</time>
  <course>270.25</course>
  <speed>0.95</speed>
  <fix>3d</fix>
</trkpt>
<trkpt lat="33.8097797" lon="-118.3941765">
  <ele>-50.027</ele>
  <time>2026-09-02T22:08:30Z</time>
  <course>273.94</course>
  <speed>0.9202173656261873</speed>
  <fix>3d</fix>
</trkpt>
<trkpt lat="33.8097796" lon="-118.3941743">
  <ele>-48.81</ele>
  <time>2026-09-02T22:08:30Z</time>
  <course>270.25</course>
  <speed>0.95</speed>
  <fix>3d</fix>
</trkpt>
<trkpt lat="33.8097797" lon="-118.3941775">
  <ele>-50.025</ele>
  <time>2026-09-02T22:08:30Z</time>
  <course>273.9</course>
  <speed>0.9202173656261873</speed>
  <fix>3d</fix>
</trkpt>
<trkpt lat="33.8097796" lon="-118.3941763">
  <ele>-48.81</ele>
  <time>2026-09-02T22:08:30Z</time>
  <course>270.27</course>
  <speed>0.95</speed>
  <fix>3d</fix>
</trkpt>
<trkpt lat="33.8097797" lon="-118.3941785">
  <ele>-50.023</ele>
  <time>2026-09-02T22:08:30Z</time>
  <course>273.87</course>
  <speed>0.9202173656261873</speed>
  <fix>3d</fix>
</trkpt>
<trkpt lat="33.8097796" lon="-118.3941763">
  <ele>-48.81</ele>
  <time>2026-09-02T22:08:30Z</time>
  <course>270.27</course>
  <speed>0.95</speed>
  <fix>3d</fix>
</trkpt>
<trkpt lat="33.8097797" lon="-118.3941795">
  <ele>-50.02</ele>
  <time>2026-09-02T22:08:30Z</time>
  <course>273.84</course>
  <speed>0.9202173656261873</speed>
  <fix>3d</fix>
</trkpt>
<trkpt lat="33.8097796" lon="-118.3941784">
  <ele>-48.8</ele>
  <time>2026-09-02T22:08:30Z</time>
  <course>270.3</course>
  <speed>0.95</speed>
  <fix>3d</fix>
</trkpt>
<trkpt lat="33.8097797" lon="-118.3941806">
  <ele>-50.016</ele>
  <time>2026-09-02T22:08:30Z</time>
  <course>273.8</course>
  <speed>0.9202173656261873</speed>
  <fix>3d</fix>
</trkpt>
<trkpt lat="33.8097796" lon="-118.3941784">
  <ele>-48.8</ele>
  <time>2026-09-02T22:08:30Z</time>
  <course>270.3</course>
  <speed>0.95</speed>
  <fix>3d</fix>
</trkpt>
<trkpt lat="33.8097797" lon="-118.3941816">
  <ele>-50.013</ele>
  <time>2026-09-02T22:08:30Z</time>
  <course>273.76</course>
  <speed>0.9202173656261873</speed>
  <fix>3d</fix>
</trkpt>
<trkpt lat="33.8097796" lon="-118.3941805">
  <ele>-48.8</ele>
  <time>2026-09-02T22:08:30Z</time>
  <course>270.31</course>
  <speed>0.95</speed>
  <fix>3d</fix>
</trkpt>
<trkpt lat="33.8097797" lon="-118.3941826">
  <ele>-50.01</ele>
  <time>2026-09-02T22:08:30Z</time>
  <course>273.72</course>
  <speed>0.9202173656261873</speed>
  <fix>3d</fix>
</trkpt>
<trkpt lat="33.8097796" lon="-118.3941805">
  <ele>-48.8</ele>
  <time>2026-09-02T22:08:30Z</time>
  <course>270.31</course>
  <speed>0.95</speed>
  <fix>3d</fix>
</trkpt>
<trkpt lat="33.8097797" lon="-118.3941837">
  <ele>-50.009</ele>
  <time>2026-09-02T22:08:30Z</time>
  <course>273.69</course>
  <speed>0.9202173656261873</speed>
  <fix>3d</fix>
</trkpt>
<trkpt lat="33.8097797" lon="-118.3941825">
  <ele>-48.8</ele>
  <time>2026-09-02T22:08:30Z</time>
  <course>270.33</course>
  <speed>0.95</speed>
  <fix>3d</fix>
</trkpt>
<trkpt lat="33.8097797" lon="-118.3941847">
  <ele>-50.011</ele>
  <time>2026-09-02T22:08:30Z</time>
  <course>273.66</course>
  <speed>0.9202173656261873</speed>
  <fix>3d</fix>
</trkpt>
<trkpt lat="33.8097797" lon="-118.3941825">
  <ele>-48.8</ele>
  <time>2026-09-02T22:08:30Z</time>
  <course>270.33</course>
  <speed>0.95</speed>
  <fix>3d</fix>
</trkpt>
<trkpt lat="33.8097798" lon="-118.3941857">
  <ele>-50.013</ele>
  <time>2026-09-02T22:08:30Z</time>
  <course>273.6</course>
  <speed>0.9202173656261873</speed>
  <fix>3d</fix>
</trkpt>
<trkpt lat="33.8097797" lon="-118.3941846">
  <ele>-48.8</ele>
  <time>2026-09-02T22:08:30Z</time>
  <course>270.32</course>
  <speed>0.95</speed>
  <fix>3d</fix>
</trkpt>
<trkpt lat="33.8097798" lon="-118.3941868">
  <ele>-50.016</ele>
  <time>2026-09-02T22:08:30Z</time>
  <course>273.53</course>
  <speed>0.9202173656261873</speed>
  <fix>3d</fix>
</trkpt>
<trkpt lat="33.8097797" lon="-118.3941846">
  <ele>-48.8</ele>
  <time>2026-09-02T22:08:30Z</time>
  <course>270.32</course>
  <speed>0.95</speed>
  <fix>3d</fix>
</trkpt>
<trkpt lat="33.8097798" lon="-118.3941878">
  <ele>-50.019</ele>
  <time>2026-09-02T22:08:30Z</time>
  <course>273.44</course>
  <speed>0.9200543462209175</speed>
  <fix>3d</fix>
</trkpt>
<trkpt lat="33.8097797" lon="-118.3941867">
  <ele>-48.8</ele>
  <time>2026-09-02T22:08:30Z</time>
  <course>270.25</course>
  <speed>0.95</speed>
  <fix>3d</fix>
</trkpt>
<trkpt lat="33.8097798" lon="-118.3941888">
  <ele>-50.021</ele>
  <time>2026-09-02T22:08:30Z</time>
  <course>273.35</course>
  <speed>0.9200543462209175</speed>
  <fix>3d</fix>
</trkpt>
<trkpt lat="33.8097797" lon="-118.3941867">
  <ele>-48.8</ele>
  <time>2026-09-02T22:08:30Z</time>
  <course>270.25</course>
  <speed>0.95</speed>
  <fix>3d</fix>
</trkpt>
<trkpt lat="33.8097798" lon="-118.3941899">
  <ele>-50.023</ele>
  <time>2026-09-02T22:08:30Z</time>
  <course>273.27</course>
  <speed>0.9300537618869137</speed>
  <fix>3d</fix>
</trkpt>
<trkpt lat="33.8097797" lon="-118.3941887">
  <ele>-48.81</ele>
  <time>2026-09-02T22:08:30Z</time>
  <course>270.17</course>
  <speed>0.95</speed>
  <fix>3d</fix>
</trkpt>
<trkpt lat="33.8097798" lon="-118.3941909">
  <ele>-50.024</ele>
  <time>2026-09-02T22:08:30Z</time>
  <course>273.19</course>
  <speed>0.9300537618869137</speed>
  <fix>3d</fix>
</trkpt>
<trkpt lat="33.8097797" lon="-118.3941887">
  <ele>-48.81</ele>
  <time>2026-09-02T22:08:30Z</time>
  <course>270.17</course>
  <speed>0.95</speed>
  <fix>3d</fix>
</trkpt>
<trkpt lat="33.8097798" lon="-118.3941919">
  <ele>-50.024</ele>
  <time>2026-09-02T22:08:30Z</time>
  <course>273.13</course>
  <speed>0.9300537618869137</speed>
  <fix>3d</fix>
</trkpt>
<trkpt lat="33.8097797" lon="-118.3941908">
  <ele>-48.82</ele>
  <time>2026-09-02T22:08:30Z</time>
  <course>270.12</course>
  <speed>0.95</speed>
  <fix>3d</fix>
</trkpt>
<trkpt lat="33.8097798" lon="-118.394193">
  <ele>-50.025</ele>
  <time>2026-09-02T22:08:30Z</time>
  <course>273.06</course>
  <speed>0.9300537618869137</speed>
  <fix>3d</fix>
</trkpt>
<trkpt lat="33.8097797" lon="-118.3941908">
  <ele>-48.82</ele>
  <time>2026-09-02T22:08:30Z</time>
  <course>270.12</course>
  <speed>0.95</speed>
  <fix>3d</fix>
</trkpt>
<trkpt lat="33.8097798" lon="-118.394194">
  <ele>-50.025</ele>
  <time>2026-09-02T22:08:30Z</time>
  <course>273.01</course>
  <speed>0.9300537618869137</speed>
  <fix>3d</fix>
</trkpt>
<trkpt lat="33.8097797" lon="-118.3941929">
  <ele>-48.82</ele>
  <time>2026-09-02T22:08:30Z</time>
  <course>270.09</course>
  <speed>0.95</speed>
  <fix>3d</fix>
</trkpt>
<trkpt lat="33.8097798" lon="-118.3941951">
  <ele>-50.024</ele>
  <time>2026-09-02T22:08:30Z</time>
  <course>272.95</course>
  <speed>0.9300537618869137</speed>
  <fix>3d</fix>
</trkpt>
<trkpt lat="33.8097797" lon="-118.3941929">
  <ele>-48.82</ele>
  <time>2026-09-02T22:08:30Z</time>
  <course>270.09</course>
  <speed>0.95</speed>
  <fix>3d</fix>
</trkpt>
<trkpt lat="33.8097798" lon="-118.3941961">
  <ele>-50.023</ele>
  <time>2026-09-02T22:08:30Z</time>
  <course>272.9</course>
  <speed>0.9300537618869137</speed>
  <fix>3d</fix>
</trkpt>
<trkpt lat="33.8097797" lon="-118.3941949">
  <ele>-48.81</ele>
  <time>2026-09-02T22:08:30Z</time>
  <course>270.08</course>
  <speed>0.95</speed>
  <fix>3d</fix>
</trkpt>
<trkpt lat="33.8097798" lon="-118.3941971">
  <ele>-50.023</ele>
  <time>2026-09-02T22:08:30Z</time>
  <course>272.86</course>
  <speed>0.9300537618869137</speed>
  <fix>3d</fix>
</trkpt>
<trkpt lat="33.8097797" lon="-118.3941949">
  <ele>-48.81</ele>
  <time>2026-09-02T22:08:30Z</time>
  <course>270.08</course>
  <speed>0.95</speed>
  <fix>3d</fix>
</trkpt>
<trkpt lat="33.8097798" lon="-118.3941982">
  <ele>-50.022</ele>
  <time>2026-09-02T22:08:30Z</time>
  <course>272.83</course>
  <speed>0.9300537618869137</speed>
  <fix>3d</fix>
</trkpt>
<trkpt lat="33.8097797" lon="-118.394197">
  <ele>-48.81</ele>
  <time>2026-09-02T22:08:30Z</time>
  <course>270.08</course>
  <speed>0.95</speed>
  <fix>3d</fix>
</trkpt>
<trkpt lat="33.8097798" lon="-118.3941992">
  <ele>-50.021</ele>
  <time>2026-09-02T22:08:30Z</time>
  <course>272.79</course>
  <speed>0.9300537618869137</speed>
  <fix>3d</fix>
</trkpt>
<trkpt lat="33.8097797" lon="-118.394197">
  <ele>-48.81</ele>
  <time>2026-09-02T22:08:30Z</time>
  <course>270.08</course>
  <speed>0.95</speed>
  <fix>3d</fix>
</trkpt>
<trkpt lat="33.8097798" lon="-118.3942002">
  <ele>-50.02</ele>
  <time>2026-09-02T22:08:30Z</time>
  <course>272.76</course>
  <speed>0.9300537618869137</speed>
  <fix>3d</fix>
</trkpt>
<trkpt lat="33.8097797" lon="-118.3941991">
  <ele>-48.81</ele>
  <time>2026-09-02T22:08:30Z</time>
  <course>270.08</course>
  <speed>0.96</speed>
  <fix>3d</fix>
</trkpt>
<trkpt lat="33.8097798" lon="-118.3942013">
  <ele>-50.02</ele>
  <time>2026-09-02T22:08:30Z</time>
  <course>272.73</course>
  <speed>0.9300537618869137</speed>
  <fix>3d</fix>
</trkpt>
<trkpt lat="33.8097797" lon="-118.3941991">
  <ele>-48.81</ele>
  <time>2026-09-02T22:08:30Z</time>
  <course>270.08</course>
  <speed>0.96</speed>
  <fix>3d</fix>
</trkpt>
<trkpt lat="33.8097798" lon="-118.3942023">
  <ele>-50.019</ele>
  <time>2026-09-02T22:08:30Z</time>
  <course>272.7</course>
  <speed>0.9300537618869137</speed>
  <fix>3d</fix>
</trkpt>
<trkpt lat="33.8097797" lon="-118.3942011">
  <ele>-48.81</ele>
  <time>2026-09-02T22:08:30Z</time>
  <course>270.09</course>
  <speed>0.96</speed>
  <fix>3d</fix>
</trkpt>
<trkpt lat="33.8097798" lon="-118.3942034">
  <ele>-50.018</ele>
  <time>2026-09-02T22:08:30Z</time>
  <course>272.67</course>
  <speed>0.9300537618869137</speed>
  <fix>3d</fix>
</trkpt>
<trkpt lat="33.8097797" lon="-118.3942011">
  <ele>-48.81</ele>
  <time>2026-09-02T22:08:30Z</time>
  <course>270.09</course>
  <speed>0.96</speed>
  <fix>3d</fix>
</trkpt>
<trkpt lat="33.8097798" lon="-118.3942044">
  <ele>-50.018</ele>
  <time>2026-09-02T22:08:30Z</time>
  <course>272.64</course>
  <speed>0.9300537618869137</speed>
  <fix>3d</fix>
</trkpt>
<trkpt lat="33.8097797" lon="-118.3942032">
  <ele>-48.8</ele>
  <time>2026-09-02T22:08:30Z</time>
  <course>270.09</course>
  <speed>0.96</speed>
  <fix>3d</fix>
</trkpt>
<trkpt lat="33.8097798" lon="-118.3942054">
  <ele>-50.018</ele>
  <time>2026-09-02T22:08:30Z</time>
  <course>272.62</course>
  <speed>0.9300537618869137</speed>
  <fix>3d</fix>
</trkpt>
<trkpt lat="33.8097797" lon="-118.3942032">
  <ele>-48.8</ele>
  <time>2026-09-02T22:08:30Z</time>
  <course>270.09</course>
  <speed>0.96</speed>
  <fix>3d</fix>
</trkpt>
<trkpt lat="33.8097798" lon="-118.3942065">
  <ele>-50.018</ele>
  <time>2026-09-02T22:08:30Z</time>
  <course>272.6</course>
  <speed>0.9300537618869137</speed>
  <fix>3d</fix>
</trkpt>
<trkpt lat="33.8097797" lon="-118.3942053">
  <ele>-48.8</ele>
  <time>2026-09-02T22:08:30Z</time>
  <course>270.1</course>
  <speed>0.96</speed>
  <fix>3d</fix>
</trkpt>
<trkpt lat="33.8097798" lon="-118.3942075">
  <ele>-50.018</ele>
  <time>2026-09-02T22:08:30Z</time>
  <course>272.57</course>
  <speed>0.9302150289046076</speed>
  <fix>3d</fix>
</trkpt>
<trkpt lat="33.8097797" lon="-118.3942053">
  <ele>-48.8</ele>
  <time>2026-09-02T22:08:30Z</time>
  <course>270.1</course>
  <speed>0.96</speed>
  <fix>3d</fix>
</trkpt>
<trkpt lat="33.8097798" lon="-118.3942086">
  <ele>-50.019</ele>
  <time>2026-09-02T22:08:31Z</time>
  <course>272.55</course>
  <speed>0.9400531899844816</speed>
  <fix>3d</fix>
</trkpt>
<trkpt lat="33.8097797" lon="-118.3942074">
  <ele>-48.8</ele>
  <time>2026-09-02T22:08:31Z</time>
  <course>270.13</course>
  <speed>0.96</speed>
  <fix>3d</fix>
</trkpt>
<trkpt lat="33.8097798" lon="-118.3942096">
  <ele>-50.018</ele>
  <time>2026-09-02T22:08:31Z</time>
  <course>272.53</course>
  <speed>0.9402127418834527</speed>
  <fix>3d</fix>
</trkpt>
<trkpt lat="33.8097797" lon="-118.3942074">
  <ele>-48.8</ele>
  <time>2026-09-02T22:08:31Z</time>
  <course>270.13</course>
  <speed>0.96</speed>
  <fix>3d</fix>
</trkpt>
<trkpt lat="33.8097798" lon="-118.3942107">
  <ele>-50.018</ele>
  <time>2026-09-02T22:08:31Z</time>
  <course>272.51</course>
  <speed>0.9400531899844816</speed>
  <fix>3d</fix>
</trkpt>
<trkpt lat="33.8097797" lon="-118.3942095">
  <ele>-48.8</ele>
  <time>2026-09-02T22:08:31Z</time>
  <course>270.14</course>
  <speed>0.96</speed>
  <fix>3d</fix>
</trkpt>
<trkpt lat="33.8097798" lon="-118.3942117">
  <ele>-50.018</ele>
  <time>2026-09-02T22:08:31Z</time>
  <course>272.48</course>
  <speed>0.9402127418834527</speed>
  <fix>3d</fix>
</trkpt>
<trkpt lat="33.8097797" lon="-118.3942095">
  <ele>-48.8</ele>
  <time>2026-09-02T22:08:31Z</time>
  <course>270.14</course>
  <speed>0.96</speed>
  <fix>3d</fix>
</trkpt>
<trkpt lat="33.8097798" lon="-118.3942128">
  <ele>-50.018</ele>
  <time>2026-09-02T22:08:31Z</time>
  <course>272.46</course>
  <speed>0.9400531899844816</speed>
  <fix>3d</fix>
</trkpt>
<trkpt lat="33.8097797" lon="-118.3942116">
  <ele>-48.81</ele>
  <time>2026-09-02T22:08:31Z</time>
  <course>270.16</course>
  <speed>0.96</speed>
  <fix>3d</fix>
</trkpt>
<trkpt lat="33.8097798" lon="-118.3942138">
  <ele>-50.02</ele>
  <time>2026-09-02T22:08:31Z</time>
  <course>272.44</course>
  <speed>0.9402127418834527</speed>
  <fix>3d</fix>
</trkpt>
<trkpt lat="33.8097797" lon="-118.3942116">
  <ele>-48.81</ele>
  <time>2026-09-02T22:08:31Z</time>
  <course>270.16</course>
  <speed>0.96</speed>
  <fix>3d</fix>
</trkpt>
<trkpt lat="33.8097798" lon="-118.3942149">
  <ele>-50.021</ele>
  <time>2026-09-02T22:08:31Z</time>
  <course>272.42</course>
  <speed>0.9400531899844816</speed>
  <fix>3d</fix>
</trkpt>
<trkpt lat="33.8097797" lon="-118.3942137">
  <ele>-48.81</ele>
  <time>2026-09-02T22:08:31Z</time>
  <course>270.16</course>
  <speed>0.96</speed>
  <fix>3d</fix>
</trkpt>
<trkpt lat="33.8097798" lon="-118.3942159">
  <ele>-50.021</ele>
  <time>2026-09-02T22:08:31Z</time>
  <course>272.4</course>
  <speed>0.9402127418834527</speed>
  <fix>3d</fix>
</trkpt>
<trkpt lat="33.8097797" lon="-118.3942137">
  <ele>-48.81</ele>
  <time>2026-09-02T22:08:31Z</time>
  <course>270.16</course>
  <speed>0.96</speed>
  <fix>3d</fix>
</trkpt>
<trkpt lat="33.8097798" lon="-118.394217">
  <ele>-50.021</ele>
  <time>2026-09-02T22:08:31Z</time>
  <course>272.38</course>
  <speed>0.9400531899844816</speed>
  <fix>3d</fix>
</trkpt>
<trkpt lat="33.8097797" lon="-118.3942158">
  <ele>-48.81</ele>
  <time>2026-09-02T22:08:31Z</time>
  <course>270.16</course>
  <speed>0.96</speed>
  <fix>3d</fix>
</trkpt>
<trkpt lat="33.8097798" lon="-118.394218">
  <ele>-50.021</ele>
  <time>2026-09-02T22:08:31Z</time>
  <course>272.36</course>
  <speed>0.9402127418834527</speed>
  <fix>3d</fix>
</trkpt>
<trkpt lat="33.8097797" lon="-118.3942158">
  <ele>-48.81</ele>
  <time>2026-09-02T22:08:31Z</time>
  <course>270.16</course>
  <speed>0.96</speed>
  <fix>3d</fix>
</trkpt>
<trkpt lat="33.8097798" lon="-118.3942191">
  <ele>-50.02</ele>
  <time>2026-09-02T22:08:31Z</time>
  <course>272.34</course>
  <speed>0.9400531899844816</speed>
  <fix>3d</fix>
</trkpt>
<trkpt lat="33.8097797" lon="-118.3942179">
  <ele>-48.81</ele>
  <time>2026-09-02T22:08:31Z</time>
  <course>270.16</course>
  <speed>0.97</speed>
  <fix>3d</fix>
</trkpt>
<trkpt lat="33.8097798" lon="-118.3942201">
  <ele>-50.02</ele>
  <time>2026-09-02T22:08:31Z</time>
  <course>272.31</course>
  <speed>0.9402127418834527</speed>
  <fix>3d</fix>
</trkpt>
<trkpt lat="33.8097797" lon="-118.3942179">
  <ele>-48.81</ele>
  <time>2026-09-02T22:08:31Z</time>
  <course>270.16</course>
  <speed>0.97</speed>
  <fix>3d</fix>
</trkpt>
<trkpt lat="33.8097798" lon="-118.3942211">
  <ele>-50.019</ele>
  <time>2026-09-02T22:08:31Z</time>
  <course>272.29</course>
  <speed>0.9400531899844816</speed>
  <fix>3d</fix>
</trkpt>
<trkpt lat="33.8097797" lon="-118.39422">
  <ele>-48.81</ele>
  <time>2026-09-02T22:08:31Z</time>
  <course>270.18</course>
  <speed>0.97</speed>
  <fix>3d</fix>
</trkpt>
<trkpt lat="33.8097798" lon="-118.3942222">
  <ele>-50.019</ele>
  <time>2026-09-02T22:08:31Z</time>
  <course>272.28</course>
  <speed>0.9402127418834527</speed>
  <fix>3d</fix>
</trkpt>
<trkpt lat="33.8097797" lon="-118.39422">
  <ele>-48.81</ele>
  <time>2026-09-02T22:08:31Z</time>
  <course>270.18</course>
  <speed>0.97</speed>
  <fix>3d</fix>
</trkpt>
<trkpt lat="33.8097798" lon="-118.3942232">
  <ele>-50.019</ele>
  <time>2026-09-02T22:08:31Z</time>
  <course>272.27</course>
  <speed>0.9500526301210896</speed>
  <fix>3d</fix>
</trkpt>
<trkpt lat="33.8097797" lon="-118.3942221">
  <ele>-48.8</ele>
  <time>2026-09-02T22:08:31Z</time>
  <course>270.19</course>
  <speed>0.97</speed>
  <fix>3d</fix>
</trkpt>
<trkpt lat="33.8097798" lon="-118.3942243">
  <ele>-50.019</ele>
  <time>2026-09-02T22:08:31Z</time>
  <course>272.25</course>
  <speed>0.9502105029939419</speed>
  <fix>3d</fix>
</trkpt>
<trkpt lat="33.8097797" lon="-118.3942221">
  <ele>-48.8</ele>
  <time>2026-09-02T22:08:31Z</time>
  <course>270.19</course>
  <speed>0.97</speed>
  <fix>3d</fix>
</trkpt>
<trkpt lat="33.8097798" lon="-118.3942253">
  <ele>-50.019</ele>
  <time>2026-09-02T22:08:31Z</time>
  <course>272.24</course>
  <speed>0.9502105029939419</speed>
  <fix>3d</fix>
</trkpt>
<trkpt lat="33.8097797" lon="-118.3942242">
  <ele>-48.8</ele>
  <time>2026-09-02T22:08:31Z</time>
  <course>270.21</course>
  <speed>0.97</speed>
  <fix>3d</fix>
</trkpt>
<trkpt lat="33.8097798" lon="-118.3942264">
  <ele>-50.018</ele>
  <time>2026-09-02T22:08:31Z</time>
  <course>272.22</course>
  <speed>0.9502105029939419</speed>
  <fix>3d</fix>
</trkpt>
<trkpt lat="33.8097797" lon="-118.3942242">
  <ele>-48.8</ele>
  <time>2026-09-02T22:08:31Z</time>
  <course>270.21</course>
  <speed>0.97</speed>
  <fix>3d</fix>
</trkpt>
<trkpt lat="33.8097798" lon="-118.3942275">
  <ele>-50.018</ele>
  <time>2026-09-02T22:08:31Z</time>
  <course>272.2</course>
  <speed>0.9502105029939419</speed>
  <fix>3d</fix>
</trkpt>
<trkpt lat="33.8097798" lon="-118.3942263">
  <ele>-48.8</ele>
  <time>2026-09-02T22:08:31Z</time>
  <course>270.23</course>
  <speed>0.97</speed>
  <fix>3d</fix>
</trkpt>
<trkpt lat="33.8097798" lon="-118.3942285">
  <ele>-50.017</ele>
  <time>2026-09-02T22:08:31Z</time>
  <course>272.18</course>
  <speed>0.9500526301210896</speed>
  <fix>3d</fix>
</trkpt>
<trkpt lat="33.8097798" lon="-118.3942263">
  <ele>-48.8</ele>
  <time>2026-09-02T22:08:31Z</time>
  <course>270.23</course>
  <speed>0.97</speed>
  <fix>3d</fix>
</trkpt>
<trkpt lat="33.8097798" lon="-118.3942296">
  <ele>-50.017</ele>
  <time>2026-09-02T22:08:31Z</time>
  <course>272.13</course>
  <speed>0.9500526301210896</speed>
  <fix>3d</fix>
</trkpt>
<trkpt lat="33.8097798" lon="-118.3942284">
  <ele>-48.8</ele>
  <time>2026-09-02T22:08:31Z</time>
  <course>270.18</course>
  <speed>0.97</speed>
  <fix>3d</fix>
</trkpt>
<trkpt lat="33.8097798" lon="-118.3942306">
  <ele>-50.018</ele>
  <time>2026-09-02T22:08:31Z</time>
  <course>272.07</course>
  <speed>0.9500526301210896</speed>
  <fix>3d</fix>
</trkpt>
<trkpt lat="33.8097798" lon="-118.3942284">
  <ele>-48.8</ele>
  <time>2026-09-02T22:08:31Z</time>
  <course>270.18</course>
  <speed>0.97</speed>
  <fix>3d</fix>
</trkpt>
<trkpt lat="33.8097798" lon="-118.3942317">
  <ele>-50.02</ele>
  <time>2026-09-02T22:08:31Z</time>
  <course>272.01</course>
  <speed>0.9500526301210896</speed>
  <fix>3d</fix>
</trkpt>
<trkpt lat="33.8097798" lon="-118.3942305">
  <ele>-48.81</ele>
  <time>2026-09-02T22:08:31Z</time>
  <course>270.08</course>
  <speed>0.98</speed>
  <fix>3d</fix>
</trkpt>
<trkpt lat="33.8097798" lon="-118.3942327">
  <ele>-50.021</ele>
  <time>2026-09-02T22:08:31Z</time>
  <course>271.94</course>
  <speed>0.9500526301210896</speed>
  <fix>3d</fix>
</trkpt>
<trkpt lat="33.8097798" lon="-118.3942305">
  <ele>-48.81</ele>
  <time>2026-09-02T22:08:31Z</time>
  <course>270.08</course>
  <speed>0.98</speed>
  <fix>3d</fix>
</trkpt>
<trkpt lat="33.8097799" lon="-118.3942338">
  <ele>-50.022</ele>
  <time>2026-09-02T22:08:31Z</time>
  <course>271.87</course>
  <speed>0.9500526301210896</speed>
  <fix>3d</fix>
</trkpt>
<trkpt lat="33.8097798" lon="-118.3942327">
  <ele>-48.81</ele>
  <time>2026-09-02T22:08:31Z</time>
  <course>269.99</course>
  <speed>0.98</speed>
  <fix>3d</fix>
</trkpt>
<trkpt lat="33.8097799" lon="-118.3942348">
  <ele>-50.022</ele>
  <time>2026-09-02T22:08:31Z</time>
  <course>271.81</course>
  <speed>0.9500526301210896</speed>
  <fix>3d</fix>
</trkpt>
<trkpt lat="33.8097798" lon="-118.3942327">
  <ele>-48.81</ele>
  <time>2026-09-02T22:08:31Z</time>
  <course>269.99</course>
  <speed>0.98</speed>
  <fix>3d</fix>
</trkpt>
<trkpt lat="33.8097799" lon="-118.3942359">
  <ele>-50.02</ele>
  <time>2026-09-02T22:08:31Z</time>
  <course>271.76</course>
  <speed>0.9500526301210896</speed>
  <fix>3d</fix>
</trkpt>
<trkpt lat="33.8097798" lon="-118.3942348">
  <ele>-48.81</ele>
  <time>2026-09-02T22:08:31Z</time>
  <course>269.93</course>
  <speed>0.98</speed>
  <fix>3d</fix>
</trkpt>
<trkpt lat="33.8097799" lon="-118.394237">
  <ele>-50.02</ele>
  <time>2026-09-02T22:08:31Z</time>
  <course>271.71</course>
  <speed>0.9500526301210896</speed>
  <fix>3d</fix>
</trkpt>
<trkpt lat="33.8097798" lon="-118.3942348">
  <ele>-48.81</ele>
  <time>2026-09-02T22:08:31Z</time>
  <course>269.93</course>
  <speed>0.98</speed>
  <fix>3d</fix>
</trkpt>
<trkpt lat="33.8097799" lon="-118.394238">
  <ele>-50.02</ele>
  <time>2026-09-02T22:08:31Z</time>
  <course>271.67</course>
  <speed>0.9500526301210896</speed>
  <fix>3d</fix>
</trkpt>
<trkpt lat="33.8097798" lon="-118.3942369">
  <ele>-48.81</ele>
  <time>2026-09-02T22:08:31Z</time>
  <course>269.88</course>
  <speed>0.98</speed>
  <fix>3d</fix>
</trkpt>
<trkpt lat="33.8097799" lon="-118.3942391">
  <ele>-50.021</ele>
  <time>2026-09-02T22:08:31Z</time>
  <course>271.63</course>
  <speed>0.9500526301210896</speed>
  <fix>3d</fix>
</trkpt>
<trkpt lat="33.8097798" lon="-118.3942369">
  <ele>-48.81</ele>
  <time>2026-09-02T22:08:31Z</time>
  <course>269.88</course>
  <speed>0.98</speed>
  <fix>3d</fix>
</trkpt>
<trkpt lat="33.8097799" lon="-118.3942401">
  <ele>-50.022</ele>
  <time>2026-09-02T22:08:31Z</time>
  <course>271.6</course>
  <speed>0.9500526301210896</speed>
  <fix>3d</fix>
</trkpt>
<trkpt lat="33.8097798" lon="-118.394239">
  <ele>-48.81</ele>
  <time>2026-09-02T22:08:31Z</time>
  <course>269.85</course>
  <speed>0.98</speed>
  <fix>3d</fix>
</trkpt>
<trkpt lat="33.8097799" lon="-118.3942412">
  <ele>-50.021</ele>
  <time>2026-09-02T22:08:31Z</time>
  <course>271.57</course>
  <speed>0.9500526301210896</speed>
  <fix>3d</fix>
</trkpt>
<trkpt lat="33.8097798" lon="-118.394239">
  <ele>-48.81</ele>
  <time>2026-09-02T22:08:31Z</time>
  <course>269.85</course>
  <speed>0.98</speed>
  <fix>3d</fix>
</trkpt>
<trkpt lat="33.8097799" lon="-118.3942423">
  <ele>-50.02</ele>
  <time>2026-09-02T22:08:31Z</time>
  <course>271.55</course>
  <speed>0.9500526301210896</speed>
  <fix>3d</fix>
</trkpt>
<trkpt lat="33.8097798" lon="-118.3942411">
  <ele>-48.81</ele>
  <time>2026-09-02T22:08:31Z</time>
  <course>269.83</course>
  <speed>0.98</speed>
  <fix>3d</fix>
</trkpt>
<trkpt lat="33.8097799" lon="-118.3942433">
  <ele>-50.019</ele>
  <time>2026-09-02T22:08:31Z</time>
  <course>271.52</course>
  <speed>0.9500526301210896</speed>
  <fix>3d</fix>
</trkpt>
<trkpt lat="33.8097798" lon="-118.3942411">
  <ele>-48.81</ele>
  <time>2026-09-02T22:08:31Z</time>
  <course>269.83</course>
  <speed>0.98</speed>
  <fix>3d</fix>
</trkpt>
<trkpt lat="33.8097799" lon="-118.3942444">
  <ele>-50.018</ele>
  <time>2026-09-02T22:08:31Z</time>
  <course>271.5</course>
  <speed>0.9500526301210896</speed>
  <fix>3d</fix>
</trkpt>
<trkpt lat="33.8097798" lon="-118.3942433">
  <ele>-48.8</ele>
  <time>2026-09-02T22:08:31Z</time>
  <course>269.81</course>
  <speed>0.98</speed>
  <fix>3d</fix>
</trkpt>
<trkpt lat="33.8097799" lon="-118.3942454">
  <ele>-50.017</ele>
  <time>2026-09-02T22:08:31Z</time>
  <course>271.48</course>
  <speed>0.9500526301210896</speed>
  <fix>3d</fix>
</trkpt>
<trkpt lat="33.8097798" lon="-118.3942433">
  <ele>-48.8</ele>
  <time>2026-09-02T22:08:31Z</time>
  <course>269.81</course>
  <speed>0.98</speed>
  <fix>3d</fix>
</trkpt>
<trkpt lat="33.8097799" lon="-118.3942465">
  <ele>-50.017</ele>
  <time>2026-09-02T22:08:31Z</time>
  <course>271.47</course>
  <speed>0.9500526301210896</speed>
  <fix>3d</fix>
</trkpt>
<trkpt lat="33.8097798" lon="-118.3942454">
  <ele>-48.8</ele>
  <time>2026-09-02T22:08:31Z</time>
  <course>269.77</course>
  <speed>0.98</speed>
  <fix>3d</fix>
</trkpt>
<trkpt lat="33.8097799" lon="-118.3942476">
  <ele>-50.017</ele>
  <time>2026-09-02T22:08:31Z</time>
  <course>271.45</course>
  <speed>0.9500526301210896</speed>
  <fix>3d</fix>
</trkpt>
<trkpt lat="33.8097798" lon="-118.3942454">
  <ele>-48.8</ele>
  <time>2026-09-02T22:08:31Z</time>
  <course>269.77</course>
  <speed>0.98</speed>
  <fix>3d</fix>
</trkpt>
<trkpt lat="33.8097799" lon="-118.3942486">
  <ele>-50.018</ele>
  <time>2026-09-02T22:08:31Z</time>
  <course>271.44</course>
  <speed>0.9500526301210896</speed>
  <fix>3d</fix>
</trkpt>
<trkpt lat="33.8097798" lon="-118.3942475">
  <ele>-48.8</ele>
  <time>2026-09-02T22:08:31Z</time>
  <course>269.75</course>
  <speed>0.98</speed>
  <fix>3d</fix>
</trkpt>
<trkpt lat="33.8097799" lon="-118.3942497">
  <ele>-50.019</ele>
  <time>2026-09-02T22:08:31Z</time>
  <course>271.44</course>
  <speed>0.9500526301210896</speed>
  <fix>3d</fix>
</trkpt>
<trkpt lat="33.8097798" lon="-118.3942475">
  <ele>-48.8</ele>
  <time>2026-09-02T22:08:31Z</time>
  <course>269.75</course>
  <speed>0.98</speed>
  <fix>3d</fix>
</trkpt>
<trkpt lat="33.8097799" lon="-118.3942508">
  <ele>-50.019</ele>
  <time>2026-09-02T22:08:31Z</time>
  <course>271.43</course>
  <speed>0.9500526301210896</speed>
  <fix>3d</fix>
</trkpt>
<trkpt lat="33.8097798" lon="-118.3942496">
  <ele>-48.81</ele>
  <time>2026-09-02T22:08:31Z</time>
  <course>269.73</course>
  <speed>0.98</speed>
  <fix>3d</fix>
</trkpt>
<trkpt lat="33.8097799" lon="-118.3942518">
  <ele>-50.02</ele>
  <time>2026-09-02T22:08:31Z</time>
  <course>271.43</course>
  <speed>0.9500526301210896</speed>
  <fix>3d</fix>
</trkpt>
<trkpt lat="33.8097798" lon="-118.3942496">
  <ele>-48.81</ele>
  <time>2026-09-02T22:08:31Z</time>
  <course>269.73</course>
  <speed>0.98</speed>
  <fix>3d</fix>
</trkpt>
<trkpt lat="33.8097799" lon="-118.3942529">
  <ele>-50.021</ele>
  <time>2026-09-02T22:08:31Z</time>
  <course>271.42</course>
  <speed>0.9500526301210896</speed>
  <fix>3d</fix>
</trkpt>
<trkpt lat="33.8097798" lon="-118.3942518">
  <ele>-48.81</ele>
  <time>2026-09-02T22:08:31Z</time>
  <course>269.72</course>
  <speed>0.98</speed>
  <fix>3d</fix>
</trkpt>
<trkpt lat="33.8097799" lon="-118.394254">
  <ele>-50.021</ele>
  <time>2026-09-02T22:08:31Z</time>
  <course>271.42</course>
  <speed>0.9500526301210896</speed>
  <fix>3d</fix>
</trkpt>
<trkpt lat="33.8097798" lon="-118.3942518">
  <ele>-48.81</ele>
  <time>2026-09-02T22:08:31Z</time>
  <course>269.72</course>
  <speed>0.98</speed>
  <fix>3d</fix>
</trkpt>
<trkpt lat="33.8097799" lon="-118.394255">
  <ele>-50.02</ele>
  <time>2026-09-02T22:08:31Z</time>
  <course>271.41</course>
  <speed>0.9500526301210896</speed>
  <fix>3d</fix>
</trkpt>
<trkpt lat="33.8097798" lon="-118.3942539">
  <ele>-48.81</ele>
  <time>2026-09-02T22:08:31Z</time>
  <course>269.7</course>
  <speed>0.98</speed>
  <fix>3d</fix>
</trkpt>
<trkpt lat="33.8097799" lon="-118.3942561">
  <ele>-50.019</ele>
  <time>2026-09-02T22:08:31Z</time>
  <course>271.41</course>
  <speed>0.9500526301210896</speed>
  <fix>3d</fix>
</trkpt>
<trkpt lat="33.8097798" lon="-118.3942539">
  <ele>-48.81</ele>
  <time>2026-09-02T22:08:31Z</time>
  <course>269.7</course>
  <speed>0.98</speed>
  <fix>3d</fix>
</trkpt>
<trkpt lat="33.8097799" lon="-118.3942572">
  <ele>-50.017</ele>
  <time>2026-09-02T22:08:31Z</time>
  <course>271.41</course>
  <speed>0.9500526301210896</speed>
  <fix>3d</fix>
</trkpt>
<trkpt lat="33.8097798" lon="-118.394256">
  <ele>-48.81</ele>
  <time>2026-09-02T22:08:31Z</time>
  <course>269.69</course>
  <speed>0.98</speed>
  <fix>3d</fix>
</trkpt>
<trkpt lat="33.8097799" lon="-118.3942582">
  <ele>-50.015</ele>
  <time>2026-09-02T22:08:31Z</time>
  <course>271.41</course>
  <speed>0.9500526301210896</speed>
  <fix>3d</fix>
</trkpt>
<trkpt lat="33.8097798" lon="-118.394256">
  <ele>-48.81</ele>
  <time>2026-09-02T22:08:31Z</time>
  <course>269.69</course>
  <speed>0.98</speed>
  <fix>3d</fix>
</trkpt>
<trkpt lat="33.8097799" lon="-118.3942593">
  <ele>-50.015</ele>
  <time>2026-09-02T22:08:31Z</time>
  <course>271.4</course>
  <speed>0.9600520819205591</speed>
  <fix>3d</fix>
</trkpt>
<trkpt lat="33.8097798" lon="-118.3942582">
  <ele>-48.81</ele>
  <time>2026-09-02T22:08:31Z</time>
  <course>269.69</course>
  <speed>0.98</speed>
  <fix>3d</fix>
</trkpt>
<trkpt lat="33.8097799" lon="-118.3942604">
  <ele>-50.016</ele>
  <time>2026-09-02T22:08:31Z</time>
  <course>271.4</course>
  <speed>0.9600520819205591</speed>
  <fix>3d</fix>
</trkpt>
<trkpt lat="33.8097798" lon="-118.3942582">
  <ele>-48.81</ele>
  <time>2026-09-02T22:08:31Z</time>
  <course>269.69</course>
  <speed>0.98</speed>
  <fix>3d</fix>
</trkpt>
<trkpt lat="33.8097799" lon="-118.3942614">
  <ele>-50.018</ele>
  <time>2026-09-02T22:08:31Z</time>
  <course>271.4</course>
  <speed>0.9600520819205591</speed>
  <fix>3d</fix>
</trkpt>
<trkpt lat="33.8097798" lon="-118.3942603">
  <ele>-48.81</ele>
  <time>2026-09-02T22:08:31Z</time>
  <course>269.7</course>
  <speed>0.98</speed>
  <fix>3d</fix>
</trkpt>
<trkpt lat="33.8097799" lon="-118.3942625">
  <ele>-50.019</ele>
  <time>2026-09-02T22:08:31Z</time>
  <course>271.39</course>
  <speed>0.9600520819205591</speed>
  <fix>3d</fix>
</trkpt>
<trkpt lat="33.8097798" lon="-118.3942603">
  <ele>-48.81</ele>
  <time>2026-09-02T22:08:31Z</time>
  <course>269.7</course>
  <speed>0.98</speed>
  <fix>3d</fix>
</trkpt>
<trkpt lat="33.8097799" lon="-118.3942636">
  <ele>-50.022</ele>
  <time>2026-09-02T22:08:31Z</time>
  <course>271.39</course>
  <speed>0.9600520819205591</speed>
  <fix>3d</fix>
</trkpt>
<trkpt lat="33.8097798" lon="-118.3942624">
  <ele>-48.81</ele>
  <time>2026-09-02T22:08:31Z</time>
  <course>269.7</course>
  <speed>0.98</speed>
  <fix>3d</fix>
</trkpt>
<trkpt lat="33.8097799" lon="-118.3942646">
  <ele>-50.024</ele>
  <time>2026-09-02T22:08:31Z</time>
  <course>271.38</course>
  <speed>0.9600520819205591</speed>
  <fix>3d</fix>
</trkpt>
<trkpt lat="33.8097798" lon="-118.3942624">
  <ele>-48.81</ele>
  <time>2026-09-02T22:08:31Z</time>
  <course>269.7</course>
  <speed>0.98</speed>
  <fix>3d</fix>
</trkpt>
<trkpt lat="33.8097799" lon="-118.3942657">
  <ele>-50.026</ele>
  <time>2026-09-02T22:08:31Z</time>
  <course>271.38</course>
  <speed>0.9600520819205591</speed>
  <fix>3d</fix>
</trkpt>
<trkpt lat="33.8097798" lon="-118.3942645">
  <ele>-48.82</ele>
  <time>2026-09-02T22:08:31Z</time>
  <course>269.69</course>
  <speed>0.98</speed>
  <fix>3d</fix>
</trkpt>
<trkpt lat="33.8097799" lon="-118.3942668">
  <ele>-50.027</ele>
  <time>2026-09-02T22:08:31Z</time>
  <course>271.37</course>
  <speed>0.9600520819205591</speed>
  <fix>3d</fix>
</trkpt>
<trkpt lat="33.8097798" lon="-118.3942645">
  <ele>-48.82</ele>
  <time>2026-09-02T22:08:31Z</time>
  <course>269.69</course>
  <speed>0.98</speed>
  <fix>3d</fix>
</trkpt>
<trkpt lat="33.8097799" lon="-118.3942678">
  <ele>-50.028</ele>
  <time>2026-09-02T22:08:31Z</time>
  <course>271.37</course>
  <speed>0.9600520819205591</speed>
  <fix>3d</fix>
</trkpt>
<trkpt lat="33.8097797" lon="-118.3942667">
  <ele>-48.82</ele>
  <time>2026-09-02T22:08:31Z</time>
  <course>269.67</course>
  <speed>0.98</speed>
  <fix>3d</fix>
</trkpt>
<trkpt lat="33.8097799" lon="-118.3942689">
  <ele>-50.028</ele>
  <time>2026-09-02T22:08:31Z</time>
  <course>271.37</course>
  <speed>0.9600520819205591</speed>
  <fix>3d</fix>
</trkpt>
<trkpt lat="33.8097797" lon="-118.3942667">
  <ele>-48.82</ele>
  <time>2026-09-02T22:08:31Z</time>
  <course>269.67</course>
  <speed>0.98</speed>
  <fix>3d</fix>
</trkpt>
<trkpt lat="33.8097799" lon="-118.39427">
  <ele>-50.027</ele>
  <time>2026-09-02T22:08:31Z</time>
  <course>271.4</course>
  <speed>0.9600520819205591</speed>
  <fix>3d</fix>
</trkpt>
<trkpt lat="33.8097797" lon="-118.3942688">
  <ele>-48.81</ele>
  <time>2026-09-02T22:08:31Z</time>
  <course>269.7</course>
  <speed>0.99</speed>
  <fix>3d</fix>
</trkpt>
<trkpt lat="33.8097799" lon="-118.394271">
  <ele>-50.025</ele>
  <time>2026-09-02T22:08:31Z</time>
  <course>271.44</course>
  <speed>0.9602083107326242</speed>
  <fix>3d</fix>
</trkpt>
<trkpt lat="33.8097797" lon="-118.3942688">
  <ele>-48.81</ele>
  <time>2026-09-02T22:08:31Z</time>
  <course>269.7</course>
  <speed>0.99</speed>
  <fix>3d</fix>
</trkpt>
<trkpt lat="33.8097799" lon="-118.3942721">
  <ele>-50.023</ele>
  <time>2026-09-02T22:08:31Z</time>
  <course>271.49</course>
  <speed>0.9602083107326242</speed>
  <fix>3d</fix>
</trkpt>
<trkpt lat="33.8097797" lon="-118.394271">
  <ele>-48.81</ele>
  <time>2026-09-02T22:08:31Z</time>
  <course>269.79</course>
  <speed>0.99</speed>
  <fix>3d</fix>
</trkpt>
<trkpt lat="33.8097799" lon="-118.3942732">
  <ele>-50.02</ele>
  <time>2026-09-02T22:08:31Z</time>
  <course>271.55</course>
  <speed>0.9602083107326242</speed>
  <fix>3d</fix>
</trkpt>
<trkpt lat="33.8097797" lon="-118.394271">
  <ele>-48.81</ele>
  <time>2026-09-02T22:08:31Z</time>
  <course>269.79</course>
  <speed>0.99</speed>
  <fix>3d</fix>
</trkpt>
<trkpt lat="33.8097799" lon="-118.3942743">
  <ele>-50.017</ele>
  <time>2026-09-02T22:08:31Z</time>
  <course>271.6</course>
  <speed>0.9602083107326242</speed>
  <fix>3d</fix>
</trkpt>
<trkpt lat="33.8097797" lon="-118.3942731">
  <ele>-48.8</ele>
  <time>2026-09-02T22:08:31Z</time>
  <course>269.9</course>
  <speed>0.99</speed>
  <fix>3d</fix>
</trkpt>
<trkpt lat="33.8097799" lon="-118.3942753">
  <ele>-50.015</ele>
  <time>2026-09-02T22:08:31Z</time>
  <course>271.64</course>
  <speed>0.9602083107326242</speed>
  <fix>3d</fix>
</trkpt>
<trkpt lat="33.8097797" lon="-118.3942731">
  <ele>-48.8</ele>
  <time>2026-09-02T22:08:31Z</time>
  <course>269.9</course>
  <speed>0.99</speed>
  <fix>3d</fix>
</trkpt>
<trkpt lat="33.8097799" lon="-118.3942764">
  <ele>-50.013</ele>
  <time>2026-09-02T22:08:31Z</time>
  <course>271.68</course>
  <speed>0.9602083107326242</speed>
  <fix>3d</fix>
</trkpt>
<trkpt lat="33.8097797" lon="-118.3942753">
  <ele>-48.8</ele>
  <time>2026-09-02T22:08:31Z</time>
  <course>269.97</course>
  <speed>0.99</speed>
  <fix>3d</fix>
</trkpt>
<trkpt lat="33.8097799" lon="-118.3942775">
  <ele>-50.012</ele>
  <time>2026-09-02T22:08:31Z</time>
  <course>271.71</course>
  <speed>0.9602083107326242</speed>
  <fix>3d</fix>
</trkpt>
<trkpt lat="33.8097797" lon="-118.3942753">
  <ele>-48.8</ele>
  <time>2026-09-02T22:08:31Z</time>
  <course>269.97</course>
  <speed>0.99</speed>
  <fix>3d</fix>
</trkpt>
<trkpt lat="33.8097799" lon="-118.3942786">
  <ele>-50.011</ele>
  <time>2026-09-02T22:08:31Z</time>
  <course>271.73</course>
  <speed>0.9602083107326242</speed>
  <fix>3d</fix>
</trkpt>
<trkpt lat="33.8097797" lon="-118.3942774">
  <ele>-48.8</ele>
  <time>2026-09-02T22:08:31Z</time>
  <course>270.03</course>
  <speed>0.99</speed>
  <fix>3d</fix>
</trkpt>
<trkpt lat="33.8097799" lon="-118.3942796">
  <ele>-50.011</ele>
  <time>2026-09-02T22:08:31Z</time>
  <course>271.75</course>
  <speed>0.9602083107326242</speed>
  <fix>3d</fix>
</trkpt>
<trkpt lat="33.8097797" lon="-118.3942774">
  <ele>-48.8</ele>
  <time>2026-09-02T22:08:31Z</time>
  <course>270.03</course>
  <speed>0.99</speed>
  <fix>3d</fix>
</trkpt>
<trkpt lat="33.8097799" lon="-118.3942807">
  <ele>-50.012</ele>
  <time>2026-09-02T22:08:31Z</time>
  <course>271.76</course>
  <speed>0.9602083107326242</speed>
  <fix>3d</fix>
</trkpt>
<trkpt lat="33.8097797" lon="-118.3942796">
  <ele>-48.8</ele>
  <time>2026-09-02T22:08:31Z</time>
  <course>270.05</course>
  <speed>0.99</speed>
  <fix>3d</fix>
</trkpt>
<trkpt lat="33.8097799" lon="-118.3942818">
  <ele>-50.016</ele>
  <time>2026-09-02T22:08:31Z</time>
  <course>271.77</course>
  <speed>0.9602083107326242</speed>
  <fix>3d</fix>
</trkpt>
<trkpt lat="33.8097797" lon="-118.3942796">
  <ele>-48.8</ele>
  <time>2026-09-02T22:08:31Z</time>
  <course>270.05</course>
  <speed>0.99</speed>
  <fix>3d</fix>
</trkpt>
<trkpt lat="33.8097799" lon="-118.3942829">
  <ele>-50.019</ele>
  <time>2026-09-02T22:08:31Z</time>
  <course>271.78</course>
  <speed>0.9602083107326242</speed>
  <fix>3d</fix>
</trkpt>
<trkpt lat="33.8097797" lon="-118.3942817">
  <ele>-48.81</ele>
  <time>2026-09-02T22:08:31Z</time>
  <course>270.07</course>
  <speed>0.99</speed>
  <fix>3d</fix>
</trkpt>
<trkpt lat="33.8097799" lon="-118.3942839">
  <ele>-50.021</ele>
  <time>2026-09-02T22:08:31Z</time>
  <course>271.79</course>
  <speed>0.9602083107326242</speed>
  <fix>3d</fix>
</trkpt>
<trkpt lat="33.8097797" lon="-118.3942817">
  <ele>-48.81</ele>
  <time>2026-09-02T22:08:31Z</time>
  <course>270.07</course>
  <speed>0.99</speed>
  <fix>3d</fix>
</trkpt>
<trkpt lat="33.8097799" lon="-118.394285">
  <ele>-50.022</ele>
  <time>2026-09-02T22:08:31Z</time>
  <course>271.8</course>
  <speed>0.9602083107326242</speed>
  <fix>3d</fix>
</trkpt>
<trkpt lat="33.8097797" lon="-118.3942839">
  <ele>-48.81</ele>
  <time>2026-09-02T22:08:31Z</time>
  <course>270.1</course>
  <speed>0.99</speed>
  <fix>3d</fix>
</trkpt>
<trkpt lat="33.8097799" lon="-118.3942861">
  <ele>-50.022</ele>
  <time>2026-09-02T22:08:31Z</time>
  <course>271.8</course>
  <speed>0.9602083107326242</speed>
  <fix>3d</fix>
</trkpt>
<trkpt lat="33.8097797" lon="-118.3942839">
  <ele>-48.81</ele>
  <time>2026-09-02T22:08:31Z</time>
  <course>270.1</course>
  <speed>0.99</speed>
  <fix>3d</fix>
</trkpt>
<trkpt lat="33.8097799" lon="-118.3942872">
  <ele>-50.023</ele>
  <time>2026-09-02T22:08:31Z</time>
  <course>271.8</course>
  <speed>0.9602083107326242</speed>
  <fix>3d</fix>
</trkpt>
<trkpt lat="33.8097797" lon="-118.394286">
  <ele>-48.82</ele>
  <time>2026-09-02T22:08:31Z</time>
  <course>270.12</course>
  <speed>0.99</speed>
  <fix>3d</fix>
</trkpt>
<trkpt lat="33.8097799" lon="-118.3942882">
  <ele>-50.023</ele>
  <time>2026-09-02T22:08:31Z</time>
  <course>271.8</course>
  <speed>0.9602083107326242</speed>
  <fix>3d</fix>
</trkpt>
<trkpt lat="33.8097797" lon="-118.394286">
  <ele>-48.82</ele>
  <time>2026-09-02T22:08:31Z</time>
  <course>270.12</course>
  <speed>0.99</speed>
  <fix>3d</fix>
</trkpt>
<trkpt lat="33.8097799" lon="-118.3942893">
  <ele>-50.022</ele>
  <time>2026-09-02T22:08:31Z</time>
  <course>271.81</course>
  <speed>0.9602083107326242</speed>
  <fix>3d</fix>
</trkpt>
<trkpt lat="33.8097797" lon="-118.3942882">
  <ele>-48.82</ele>
  <time>2026-09-02T22:08:31Z</time>
  <course>270.14</course>
  <speed>0.99</speed>
  <fix>3d</fix>
</trkpt>
<trkpt lat="33.8097799" lon="-118.3942904">
  <ele>-50.023</ele>
  <time>2026-09-02T22:08:31Z</time>
  <course>271.8</course>
  <speed>0.9602083107326242</speed>
  <fix>3d</fix>
</trkpt>
<trkpt lat="33.8097797" lon="-118.3942882">
  <ele>-48.82</ele>
  <time>2026-09-02T22:08:31Z</time>
  <course>270.14</course>
  <speed>0.99</speed>
  <fix>3d</fix>
</trkpt>
<trkpt lat="33.8097799" lon="-118.3942915">
  <ele>-50.022</ele>
  <time>2026-09-02T22:08:31Z</time>
  <course>271.8</course>
  <speed>0.9602083107326242</speed>
  <fix>3d</fix>
</trkpt>
<trkpt lat="33.8097797" lon="-118.3942904">
  <ele>-48.82</ele>
  <time>2026-09-02T22:08:31Z</time>
  <course>270.16</course>
  <speed>0.99</speed>
  <fix>3d</fix>
</trkpt>
<trkpt lat="33.8097799" lon="-118.3942926">
  <ele>-50.021</ele>
  <time>2026-09-02T22:08:31Z</time>
  <course>271.79</course>
  <speed>0.9602083107326242</speed>
  <fix>3d</fix>
</trkpt>
<trkpt lat="33.8097797" lon="-118.3942904">
  <ele>-48.82</ele>
  <time>2026-09-02T22:08:31Z</time>
  <course>270.16</course>
  <speed>0.99</speed>
  <fix>3d</fix>
</trkpt>
<trkpt lat="33.8097799" lon="-118.3942936">
  <ele>-50.019</ele>
  <time>2026-09-02T22:08:31Z</time>
  <course>271.79</course>
  <speed>0.9602083107326242</speed>
  <fix>3d</fix>
</trkpt>
<trkpt lat="33.8097797" lon="-118.3942925">
  <ele>-48.81</ele>
  <time>2026-09-02T22:08:31Z</time>
  <course>270.2</course>
  <speed>0.99</speed>
  <fix>3d</fix>
</trkpt>
<trkpt lat="33.8097799" lon="-118.3942947">
  <ele>-50.017</ele>
  <time>2026-09-02T22:08:31Z</time>
  <course>271.79</course>
  <speed>0.9602083107326242</speed>
  <fix>3d</fix>
</trkpt>
<trkpt lat="33.8097797" lon="-118.3942925">
  <ele>-48.81</ele>
  <time>2026-09-02T22:08:31Z</time>
  <course>270.2</course>
  <speed>0.99</speed>
  <fix>3d</fix>
</trkpt>
<trkpt lat="33.8097799" lon="-118.3942958">
  <ele>-50.014</ele>
  <time>2026-09-02T22:08:31Z</time>
  <course>271.78</course>
  <speed>0.9602083107326242</speed>
  <fix>3d</fix>
</trkpt>
<trkpt lat="33.8097797" lon="-118.3942947">
  <ele>-48.81</ele>
  <time>2026-09-02T22:08:31Z</time>
  <course>270.22</course>
  <speed>0.99</speed>
  <fix>3d</fix>
</trkpt>
<trkpt lat="33.8097799" lon="-118.3942969">
  <ele>-50.013</ele>
  <time>2026-09-02T22:08:31Z</time>
  <course>271.77</course>
  <speed>0.9602083107326242</speed>
  <fix>3d</fix>
</trkpt>
<trkpt lat="33.8097797" lon="-118.3942947">
  <ele>-48.81</ele>
  <time>2026-09-02T22:08:31Z</time>
  <course>270.22</course>
  <speed>0.99</speed>
  <fix>3d</fix>
</trkpt>
<trkpt lat="33.8097799" lon="-118.394298">
  <ele>-50.012</ele>
  <time>2026-09-02T22:08:31Z</time>
  <course>271.77</course>
  <speed>0.9602083107326242</speed>
  <fix>3d</fix>
</trkpt>
<trkpt lat="33.8097797" lon="-118.3942968">
  <ele>-48.81</ele>
  <time>2026-09-02T22:08:31Z</time>
  <course>270.24</course>
  <speed>0.99</speed>
  <fix>3d</fix>
</trkpt>
<trkpt lat="33.8097799" lon="-118.394299">
  <ele>-50.013</ele>
  <time>2026-09-02T22:08:31Z</time>
  <course>271.76</course>
  <speed>0.9602083107326242</speed>
  <fix>3d</fix>
</trkpt>
<trkpt lat="33.8097797" lon="-118.3942968">
  <ele>-48.81</ele>
  <time>2026-09-02T22:08:31Z</time>
  <course>270.24</course>
  <speed>0.99</speed>
  <fix>3d</fix>
</trkpt>
<trkpt lat="33.8097799" lon="-118.3943001">
  <ele>-50.015</ele>
  <time>2026-09-02T22:08:31Z</time>
  <course>271.74</course>
  <speed>0.9602083107326242</speed>
  <fix>3d</fix>
</trkpt>
<trkpt lat="33.8097797" lon="-118.394299">
  <ele>-48.81</ele>
  <time>2026-09-02T22:08:31Z</time>
  <course>270.27</course>
  <speed>0.99</speed>
  <fix>3d</fix>
</trkpt>
<trkpt lat="33.8097799" lon="-118.3943012">
  <ele>-50.018</ele>
  <time>2026-09-02T22:08:31Z</time>
  <course>271.73</course>
  <speed>0.9602083107326242</speed>
  <fix>3d</fix>
</trkpt>
<trkpt lat="33.8097797" lon="-118.394299">
  <ele>-48.81</ele>
  <time>2026-09-02T22:08:31Z</time>
  <course>270.27</course>
  <speed>0.99</speed>
  <fix>3d</fix>
</trkpt>
<trkpt lat="33.8097799" lon="-118.3943023">
  <ele>-50.021</ele>
  <time>2026-09-02T22:08:31Z</time>
  <course>271.72</course>
  <speed>0.9602083107326242</speed>
  <fix>3d</fix>
</trkpt>
<trkpt lat="33.8097797" lon="-118.3943011">
  <ele>-48.82</ele>
  <time>2026-09-02T22:08:31Z</time>
  <course>270.29</course>
  <speed>0.99</speed>
  <fix>3d</fix>
</trkpt>
<trkpt lat="33.8097799" lon="-118.3943034">
  <ele>-50.023</ele>
  <time>2026-09-02T22:08:31Z</time>
  <course>271.71</course>
  <speed>0.9602083107326242</speed>
  <fix>3d</fix>
</trkpt>
<trkpt lat="33.8097797" lon="-118.3943011">
  <ele>-48.82</ele>
  <time>2026-09-02T22:08:31Z</time>
  <course>270.29</course>
  <speed>0.99</speed>
  <fix>3d</fix>
</trkpt>
<trkpt lat="33.8097799" lon="-118.3943044">
  <ele>-50.025</ele>
  <time>2026-09-02T22:08:31Z</time>
  <course>271.7</course>
  <speed>0.9702061636580135</speed>
  <fix>3d</fix>
</trkpt>
<trkpt lat="33.8097797" lon="-118.3943033">
  <ele>-48.82</ele>
  <time>2026-09-02T22:08:31Z</time>
  <course>270.29</course>
  <speed>0.99</speed>
  <fix>3d</fix>
</trkpt>
<trkpt lat="33.8097799" lon="-118.3943055">
  <ele>-50.026</ele>
  <time>2026-09-02T22:08:31Z</time>
  <course>271.68</course>
  <speed>0.9602083107326242</speed>
  <fix>3d</fix>
</trkpt>
<trkpt lat="33.8097797" lon="-118.3943033">
  <ele>-48.82</ele>
  <time>2026-09-02T22:08:31Z</time>
  <course>270.29</course>
  <speed>0.99</speed>
  <fix>3d</fix>
</trkpt>
<trkpt lat="33.8097799" lon="-118.3943066">
  <ele>-50.028</ele>
  <time>2026-09-02T22:08:31Z</time>
  <course>271.67</course>
  <speed>0.9702061636580135</speed>
  <fix>3d</fix>
</trkpt>
<trkpt lat="33.8097797" lon="-118.3943054">
  <ele>-48.83</ele>
  <time>2026-09-02T22:08:31Z</time>
  <course>270.3</course>
  <speed>0.99</speed>
  <fix>3d</fix>
</trkpt>
<trkpt lat="33.8097799" lon="-118.3943077">
  <ele>-50.029</ele>
  <time>2026-09-02T22:08:31Z</time>
  <course>271.66</course>
  <speed>0.9702061636580135</speed>
  <fix>3d</fix>
</trkpt>
<trkpt lat="33.8097797" lon="-118.3943054">
  <ele>-48.83</ele>
  <time>2026-09-02T22:08:31Z</time>
  <course>270.3</course>
  <speed>0.99</speed>
  <fix>3d</fix>
</trkpt>
<trkpt lat="33.8097799" lon="-118.3943087">
  <ele>-50.029</ele>
  <time>2026-09-02T22:08:31Z</time>
  <course>271.65</course>
  <speed>0.9702061636580135</speed>
  <fix>3d</fix>
</trkpt>
<trkpt lat="33.8097797" lon="-118.3943075">
  <ele>-48.83</ele>
  <time>2026-09-02T22:08:31Z</time>
  <course>270.31</course>
  <speed>0.99</speed>
  <fix>3d</fix>
</trkpt>
<trkpt lat="33.8097799" lon="-118.3943098">
  <ele>-50.028</ele>
  <time>2026-09-02T22:08:31Z</time>
  <course>271.65</course>
  <speed>0.9702061636580135</speed>
  <fix>3d</fix>
</trkpt>
<trkpt lat="33.8097797" lon="-118.3943075">
  <ele>-48.83</ele>
  <time>2026-09-02T22:08:31Z</time>
  <course>270.31</course>
  <speed>0.99</speed>
  <fix>3d</fix>
</trkpt>
<trkpt lat="33.8097799" lon="-118.3943109">
  <ele>-50.026</ele>
  <time>2026-09-02T22:08:31Z</time>
  <course>271.64</course>
  <speed>0.9702061636580135</speed>
  <fix>3d</fix>
</trkpt>
<trkpt lat="33.8097797" lon="-118.3943097">
  <ele>-48.82</ele>
  <time>2026-09-02T22:08:31Z</time>
  <course>270.31</course>
  <speed>0.99</speed>
  <fix>3d</fix>
</trkpt>
<trkpt lat="33.8097799" lon="-118.394312">
  <ele>-50.024</ele>
  <time>2026-09-02T22:08:31Z</time>
  <course>271.63</course>
  <speed>0.9702061636580135</speed>
  <fix>3d</fix>
</trkpt>
<trkpt lat="33.8097797" lon="-118.3943097">
  <ele>-48.82</ele>
  <time>2026-09-02T22:08:31Z</time>
  <course>270.31</course>
  <speed>0.99</speed>
  <fix>3d</fix>
</trkpt>
<trkpt lat="33.8097799" lon="-118.3943131">
  <ele>-50.021</ele>
  <time>2026-09-02T22:08:31Z</time>
  <course>271.62</course>
  <speed>0.9702061636580135</speed>
  <fix>3d</fix>
</trkpt>
<trkpt lat="33.8097797" lon="-118.3943119">
  <ele>-48.82</ele>
  <time>2026-09-02T22:08:31Z</time>
  <course>270.33</course>
  <speed>0.99</speed>
  <fix>3d</fix>
</trkpt>
<trkpt lat="33.8097799" lon="-118.3943141">
  <ele>-50.019</ele>
  <time>2026-09-02T22:08:31Z</time>
  <course>271.61</course>
  <speed>0.9702061636580135</speed>
  <fix>3d</fix>
</trkpt>
<trkpt lat="33.8097797" lon="-118.3943119">
  <ele>-48.82</ele>
  <time>2026-09-02T22:08:31Z</time>
  <course>270.33</course>
  <speed>0.99</speed>
  <fix>3d</fix>
</trkpt>
<trkpt lat="33.8097799" lon="-118.3943152">
  <ele>-50.017</ele>
  <time>2026-09-02T22:08:31Z</time>
  <course>271.61</course>
  <speed>0.9702061636580135</speed>
  <fix>3d</fix>
</trkpt>
<trkpt lat="33.8097797" lon="-118.394314">
  <ele>-48.81</ele>
  <time>2026-09-02T22:08:31Z</time>
  <course>270.36</course>
  <speed>0.99</speed>
  <fix>3d</fix>
</trkpt>
<trkpt lat="33.8097799" lon="-118.3943163">
  <ele>-50.015</ele>
  <time>2026-09-02T22:08:31Z</time>
  <course>271.6</course>
  <speed>0.9702061636580135</speed>
  <fix>3d</fix>
</trkpt>
<trkpt lat="33.8097797" lon="-118.394314">
  <ele>-48.81</ele>
  <time>2026-09-02T22:08:31Z</time>
  <course>270.36</course>
  <speed>0.99</speed>
  <fix>3d</fix>
</trkpt>
<trkpt lat="33.8097799" lon="-118.3943174">
  <ele>-50.015</ele>
  <time>2026-09-02T22:08:31Z</time>
  <course>271.59</course>
  <speed>0.9702061636580135</speed>
  <fix>3d</fix>
</trkpt>
<trkpt lat="33.8097797" lon="-118.3943162">
  <ele>-48.81</ele>
  <time>2026-09-02T22:08:31Z</time>
  <course>270.39</course>
  <speed>0.99</speed>
  <fix>3d</fix>
</trkpt>
<trkpt lat="33.8097799" lon="-118.3943185">
  <ele>-50.015</ele>
  <time>2026-09-02T22:08:31Z</time>
  <course>271.58</course>
  <speed>0.9702061636580135</speed>
  <fix>3d</fix>
</trkpt>
<trkpt lat="33.8097797" lon="-118.3943162">
  <ele>-48.81</ele>
  <time>2026-09-02T22:08:31Z</time>
  <course>270.39</course>
  <speed>0.99</speed>
  <fix>3d</fix>
</trkpt>
<trkpt lat="33.8097799" lon="-118.3943195">
  <ele>-50.016</ele>
  <time>2026-09-02T22:08:31Z</time>
  <course>271.57</course>
  <speed>0.9702061636580135</speed>
  <fix>3d</fix>
</trkpt>
<trkpt lat="33.8097798" lon="-118.3943183">
  <ele>-48.81</ele>
  <time>2026-09-02T22:08:31Z</time>
  <course>270.41</course>
  <speed>0.99</speed>
  <fix>3d</fix>
</trkpt>
<trkpt lat="33.8097799" lon="-118.3943206">
  <ele>-50.018</ele>
  <time>2026-09-02T22:08:31Z</time>
  <course>271.55</course>
  <speed>0.9702061636580135</speed>
  <fix>3d</fix>
</trkpt>
<trkpt lat="33.8097798" lon="-118.3943183">
  <ele>-48.81</ele>
  <time>2026-09-02T22:08:31Z</time>
  <course>270.41</course>
  <speed>0.99</speed>
  <fix>3d</fix>
</trkpt>
<trkpt lat="33.8097799" lon="-118.3943217">
  <ele>-50.02</ele>
  <time>2026-09-02T22:08:31Z</time>
  <course>271.51</course>
  <speed>0.9702061636580135</speed>
  <fix>3d</fix>
</trkpt>
<trkpt lat="33.8097798" lon="-118.3943205">
  <ele>-48.81</ele>
  <time>2026-09-02T22:08:31Z</time>
  <course>270.38</course>
  <speed>0.99</speed>
  <fix>3d</fix>
</trkpt>
<trkpt lat="33.8097799" lon="-118.3943228">
  <ele>-50.022</ele>
  <time>2026-09-02T22:08:31Z</time>
  <course>271.46</course>
  <speed>0.970051545022222</speed>
  <fix>3d</fix>
</trkpt>
<trkpt lat="33.8097798" lon="-118.3943205">
  <ele>-48.81</ele>
  <time>2026-09-02T22:08:31Z</time>
  <course>270.38</course>
  <speed>0.99</speed>
  <fix>3d</fix>
</trkpt>
<trkpt lat="33.8097799" lon="-118.3943239">
  <ele>-50.024</ele>
  <time>2026-09-02T22:08:31Z</time>
  <course>271.39</course>
  <speed>0.970051545022222</speed>
  <fix>3d</fix>
</trkpt>
<trkpt lat="33.8097798" lon="-118.3943226">
  <ele>-48.81</ele>
  <time>2026-09-02T22:08:31Z</time>
  <course>270.29</course>
  <speed>0.99</speed>
  <fix>3d</fix>
</trkpt>
<trkpt lat="33.8097799" lon="-118.3943249">
  <ele>-50.024</ele>
  <time>2026-09-02T22:08:31Z</time>
  <course>271.33</course>
  <speed>0.970051545022222</speed>
  <fix>3d</fix>
</trkpt>
<trkpt lat="33.8097798" lon="-118.3943226">
  <ele>-48.81</ele>
  <time>2026-09-02T22:08:31Z</time>
  <course>270.29</course>
  <speed>0.99</speed>
  <fix>3d</fix>
</trkpt>
<trkpt lat="33.8097799" lon="-118.394326">
  <ele>-50.024</ele>
  <time>2026-09-02T22:08:31Z</time>
  <course>271.27</course>
  <speed>0.970051545022222</speed>
  <fix>3d</fix>
</trkpt>
<trkpt lat="33.8097798" lon="-118.3943248">
  <ele>-48.81</ele>
  <time>2026-09-02T22:08:31Z</time>
  <course>270.21</course>
  <speed>0.99</speed>
  <fix>3d</fix>
</trkpt>
<trkpt lat="33.8097799" lon="-118.3943271">
  <ele>-50.023</ele>
  <time>2026-09-02T22:08:31Z</time>
  <course>271.21</course>
  <speed>0.970051545022222</speed>
  <fix>3d</fix>
</trkpt>
<trkpt lat="33.8097798" lon="-118.3943248">
  <ele>-48.81</ele>
  <time>2026-09-02T22:08:31Z</time>
  <course>270.21</course>
  <speed>0.99</speed>
  <fix>3d</fix>
</trkpt>
<trkpt lat="33.8097799" lon="-118.3943282">
  <ele>-50.022</ele>
  <time>2026-09-02T22:08:31Z</time>
  <course>271.17</course>
  <speed>0.970051545022222</speed>
  <fix>3d</fix>
</trkpt>
<trkpt lat="33.8097798" lon="-118.394327">
  <ele>-48.81</ele>
  <time>2026-09-02T22:08:31Z</time>
  <course>270.14</course>
  <speed>0.99</speed>
  <fix>3d</fix>
</trkpt>
<trkpt lat="33.8097799" lon="-118.3943293">
  <ele>-50.021</ele>
  <time>2026-09-02T22:08:31Z</time>
  <course>271.12</course>
  <speed>0.970051545022222</speed>
  <fix>3d</fix>
</trkpt>
<trkpt lat="33.8097798" lon="-118.394327">
  <ele>-48.81</ele>
  <time>2026-09-02T22:08:31Z</time>
  <course>270.14</course>
  <speed>0.99</speed>
  <fix>3d</fix>
</trkpt>
<trkpt lat="33.8097799" lon="-118.3943303">
  <ele>-50.02</ele>
  <time>2026-09-02T22:08:31Z</time>
  <course>271.09</course>
  <speed>0.970051545022222</speed>
  <fix>3d</fix>
</trkpt>
<trkpt lat="33.8097798" lon="-118.3943291">
  <ele>-48.81</ele>
  <time>2026-09-02T22:08:31Z</time>
  <course>270.1</course>
  <speed>0.99</speed>
  <fix>3d</fix>
</trkpt>
<trkpt lat="33.8097799" lon="-118.3943314">
  <ele>-50.019</ele>
  <time>2026-09-02T22:08:31Z</time>
  <course>271.06</course>
  <speed>0.970051545022222</speed>
  <fix>3d</fix>
</trkpt>
<trkpt lat="33.8097798" lon="-118.3943291">
  <ele>-48.81</ele>
  <time>2026-09-02T22:08:31Z</time>
  <course>270.1</course>
  <speed>0.99</speed>
  <fix>3d</fix>
</trkpt>
<trkpt lat="33.8097799" lon="-118.3943325">
  <ele>-50.019</ele>
  <time>2026-09-02T22:08:31Z</time>
  <course>271.03</course>
  <speed>0.970051545022222</speed>
  <fix>3d</fix>
</trkpt>
<trkpt lat="33.8097798" lon="-118.3943313">
  <ele>-48.8</ele>
  <time>2026-09-02T22:08:31Z</time>
  <course>270.08</course>
  <speed>0.99</speed>
  <fix>3d</fix>
</trkpt>
<trkpt lat="33.8097799" lon="-118.3943336">
  <ele>-50.019</ele>
  <time>2026-09-02T22:08:31Z</time>
  <course>271.01</course>
  <speed>0.970051545022222</speed>
  <fix>3d</fix>
</trkpt>
<trkpt lat="33.8097798" lon="-118.3943313">
  <ele>-48.8</ele>
  <time>2026-09-02T22:08:31Z</time>
  <course>270.08</course>
  <speed>0.99</speed>
  <fix>3d</fix>
</trkpt>
<trkpt lat="33.8097799" lon="-118.3943347">
  <ele>-50.019</ele>
  <time>2026-09-02T22:08:31Z</time>
  <course>271.0</course>
  <speed>0.970051545022222</speed>
  <fix>3d</fix>
</trkpt>
<trkpt lat="33.8097798" lon="-118.3943334">
  <ele>-48.8</ele>
  <time>2026-09-02T22:08:31Z</time>
  <course>270.07</course>
  <speed>0.99</speed>
  <fix>3d</fix>
</trkpt>
<trkpt lat="33.8097799" lon="-118.3943357">
  <ele>-50.02</ele>
  <time>2026-09-02T22:08:31Z</time>
  <course>270.98</course>
  <speed>0.970051545022222</speed>
  <fix>3d</fix>
</trkpt>
<trkpt lat="33.8097798" lon="-118.3943334">
  <ele>-48.8</ele>
  <time>2026-09-02T22:08:31Z</time>
  <course>270.07</course>
  <speed>0.99</speed>
  <fix>3d</fix>
</trkpt>
<trkpt lat="33.8097799" lon="-118.3943368">
  <ele>-50.02</ele>
  <time>2026-09-02T22:08:31Z</time>
  <course>270.97</course>
  <speed>0.970051545022222</speed>
  <fix>3d</fix>
</trkpt>
<trkpt lat="33.8097798" lon="-118.3943356">
  <ele>-48.8</ele>
  <time>2026-09-02T22:08:31Z</time>
  <course>270.04</course>
  <speed>0.99</speed>
  <fix>3d</fix>
</trkpt>
<trkpt lat="33.8097799" lon="-118.3943379">
  <ele>-50.019</ele>
  <time>2026-09-02T22:08:31Z</time>
  <course>270.95</course>
  <speed>0.970051545022222</speed>
  <fix>3d</fix>
</trkpt>
<trkpt lat="33.8097798" lon="-118.3943356">
  <ele>-48.8</ele>
  <time>2026-09-02T22:08:31Z</time>
  <course>270.04</course>
  <speed>0.99</speed>
  <fix>3d</fix>
</trkpt>
<trkpt lat="33.8097799" lon="-118.394339">
  <ele>-50.018</ele>
  <time>2026-09-02T22:08:31Z</time>
  <course>270.95</course>
  <speed>0.970051545022222</speed>
  <fix>3d</fix>
</trkpt>
<trkpt lat="33.8097798" lon="-118.3943377">
  <ele>-48.8</ele>
  <time>2026-09-02T22:08:31Z</time>
  <course>270.01</course>
  <speed>0.99</speed>
  <fix>3d</fix>
</trkpt>
<trkpt lat="33.8097799" lon="-118.3943401">
  <ele>-50.017</ele>
  <time>2026-09-02T22:08:31Z</time>
  <course>270.94</course>
  <speed>0.970051545022222</speed>
  <fix>3d</fix>
</trkpt>
<trkpt lat="33.8097798" lon="-118.3943377">
  <ele>-48.8</ele>
  <time>2026-09-02T22:08:31Z</time>
  <course>270.01</course>
  <speed>0.99</speed>
  <fix>3d</fix>
</trkpt>
<trkpt lat="33.8097799" lon="-118.3943411">
  <ele>-50.017</ele>
  <time>2026-09-02T22:08:31Z</time>
  <course>270.95</course>
  <speed>0.970051545022222</speed>
  <fix>3d</fix>
</trkpt>
<trkpt lat="33.8097798" lon="-118.3943399">
  <ele>-48.8</ele>
  <time>2026-09-02T22:08:31Z</time>
  <course>269.99</course>
  <speed>0.99</speed>
  <fix>3d</fix>
</trkpt>
<trkpt lat="33.8097799" lon="-118.3943422">
  <ele>-50.016</ele>
  <time>2026-09-02T22:08:31Z</time>
  <course>270.94</course>
  <speed>0.970051545022222</speed>
  <fix>3d</fix>
</trkpt>
<trkpt lat="33.8097798" lon="-118.3943399">
  <ele>-48.8</ele>
  <time>2026-09-02T22:08:31Z</time>
  <course>269.99</course>
  <speed>0.99</speed>
  <fix>3d</fix>
</trkpt>
<trkpt lat="33.8097799" lon="-118.3943433">
  <ele>-50.015</ele>
  <time>2026-09-02T22:08:31Z</time>
  <course>270.94</course>
  <speed>0.970051545022222</speed>
  <fix>3d</fix>
</trkpt>
<trkpt lat="33.8097798" lon="-118.3943421">
  <ele>-48.8</ele>
  <time>2026-09-02T22:08:31Z</time>
  <course>269.97</course>
  <speed>1.0</speed>
  <fix>3d</fix>
</trkpt>
<trkpt lat="33.8097799" lon="-118.3943444">
  <ele>-50.014</ele>
  <time>2026-09-02T22:08:31Z</time>
  <course>270.94</course>
  <speed>0.970051545022222</speed>
  <fix>3d</fix>
</trkpt>
<trkpt lat="33.8097798" lon="-118.3943421">
  <ele>-48.8</ele>
  <time>2026-09-02T22:08:31Z</time>
  <course>269.97</course>
  <speed>1.0</speed>
  <fix>3d</fix>
</trkpt>
<trkpt lat="33.8097799" lon="-118.3943455">
  <ele>-50.013</ele>
  <time>2026-09-02T22:08:31Z</time>
  <course>270.95</course>
  <speed>0.970051545022222</speed>
  <fix>3d</fix>
</trkpt>
<trkpt lat="33.8097798" lon="-118.3943442">
  <ele>-48.8</ele>
  <time>2026-09-02T22:08:31Z</time>
  <course>269.96</course>
  <speed>1.0</speed>
  <fix>3d</fix>
</trkpt>
<trkpt lat="33.8097799" lon="-118.3943466">
  <ele>-50.013</ele>
  <time>2026-09-02T22:08:31Z</time>
  <course>270.95</course>
  <speed>0.970051545022222</speed>
  <fix>3d</fix>
</trkpt>
<trkpt lat="33.8097798" lon="-118.3943442">
  <ele>-48.8</ele>
  <time>2026-09-02T22:08:31Z</time>
  <course>269.96</course>
  <speed>1.0</speed>
  <fix>3d</fix>
</trkpt>
<trkpt lat="33.8097799" lon="-118.3943476">
  <ele>-50.014</ele>
  <time>2026-09-02T22:08:31Z</time>
  <course>270.95</course>
  <speed>0.970051545022222</speed>
  <fix>3d</fix>
</trkpt>
<trkpt lat="33.8097798" lon="-118.3943464">
  <ele>-48.8</ele>
  <time>2026-09-02T22:08:31Z</time>
  <course>269.95</course>
  <speed>1.0</speed>
  <fix>3d</fix>
</trkpt>
<trkpt lat="33.8097799" lon="-118.3943487">
  <ele>-50.015</ele>
  <time>2026-09-02T22:08:31Z</time>
  <course>270.95</course>
  <speed>0.970051545022222</speed>
  <fix>3d</fix>
</trkpt>
<trkpt lat="33.8097798" lon="-118.3943464">
  <ele>-48.8</ele>
  <time>2026-09-02T22:08:31Z</time>
  <course>269.95</course>
  <speed>1.0</speed>
  <fix>3d</fix>
</trkpt>
<trkpt lat="33.8097799" lon="-118.3943498">
  <ele>-50.017</ele>
  <time>2026-09-02T22:08:31Z</time>
  <course>270.96</course>
  <speed>0.970051545022222</speed>
  <fix>3d</fix>
</trkpt>
<trkpt lat="33.8097798" lon="-118.3943486">
  <ele>-48.8</ele>
  <time>2026-09-02T22:08:31Z</time>
  <course>269.94</course>
  <speed>1.0</speed>
  <fix>3d</fix>
</trkpt>
<trkpt lat="33.8097799" lon="-118.3943509">
  <ele>-50.019</ele>
  <time>2026-09-02T22:08:31Z</time>
  <course>270.95</course>
  <speed>0.970051545022222</speed>
  <fix>3d</fix>
</trkpt>
<trkpt lat="33.8097798" lon="-118.3943486">
  <ele>-48.8</ele>
  <time>2026-09-02T22:08:31Z</time>
  <course>269.94</course>
  <speed>1.0</speed>
  <fix>3d</fix>
</trkpt>
<trkpt lat="33.8097799" lon="-118.394352">
  <ele>-50.02</ele>
  <time>2026-09-02T22:08:31Z</time>
  <course>270.96</course>
  <speed>0.970051545022222</speed>
  <fix>3d</fix>
</trkpt>
<trkpt lat="33.8097798" lon="-118.3943507">
  <ele>-48.81</ele>
  <time>2026-09-02T22:08:31Z</time>
  <course>269.92</course>
  <speed>1.0</speed>
  <fix>3d</fix>
</trkpt>
<trkpt lat="33.8097799" lon="-118.3943531">
  <ele>-50.022</ele>
  <time>2026-09-02T22:08:31Z</time>
  <course>270.96</course>
  <speed>0.970051545022222</speed>
  <fix>3d</fix>
</trkpt>
<trkpt lat="33.8097798" lon="-118.3943507">
  <ele>-48.81</ele>
  <time>2026-09-02T22:08:31Z</time>
  <course>269.92</course>
  <speed>1.0</speed>
  <fix>3d</fix>
</trkpt>
<trkpt lat="33.8097799" lon="-118.3943541">
  <ele>-50.023</ele>
  <time>2026-09-02T22:08:31Z</time>
  <course>270.96</course>
  <speed>0.970051545022222</speed>
  <fix>3d</fix>
</trkpt>
<trkpt lat="33.8097798" lon="-118.3943529">
  <ele>-48.81</ele>
  <time>2026-09-02T22:08:31Z</time>
  <course>269.91</course>
  <speed>1.0</speed>
  <fix>3d</fix>
</trkpt>
<trkpt lat="33.8097799" lon="-118.3943552">
  <ele>-50.023</ele>
  <time>2026-09-02T22:08:31Z</time>
  <course>270.96</course>
  <speed>0.970051545022222</speed>
  <fix>3d</fix>
</trkpt>
<trkpt lat="33.8097798" lon="-118.3943529">
  <ele>-48.81</ele>
  <time>2026-09-02T22:08:31Z</time>
  <course>269.91</course>
  <speed>1.0</speed>
  <fix>3d</fix>
</trkpt>
<trkpt lat="33.8097799" lon="-118.3943563">
  <ele>-50.022</ele>
  <time>2026-09-02T22:08:31Z</time>
  <course>270.97</course>
  <speed>0.970051545022222</speed>
  <fix>3d</fix>
</trkpt>
<trkpt lat="33.8097798" lon="-118.394355">
  <ele>-48.81</ele>
  <time>2026-09-02T22:08:31Z</time>
  <course>269.89</course>
  <speed>1.0</speed>
  <fix>3d</fix>
</trkpt>
<trkpt lat="33.8097799" lon="-118.3943574">
  <ele>-50.022</ele>
  <time>2026-09-02T22:08:31Z</time>
  <course>270.97</course>
  <speed>0.970051545022222</speed>
  <fix>3d</fix>
</trkpt>
<trkpt lat="33.8097798" lon="-118.394355">
  <ele>-48.81</ele>
  <time>2026-09-02T22:08:31Z</time>
  <course>269.89</course>
  <speed>1.0</speed>
  <fix>3d</fix>
</trkpt>
<trkpt lat="33.8097799" lon="-118.3943585">
  <ele>-50.022</ele>
  <time>2026-09-02T22:08:31Z</time>
  <course>270.97</course>
  <speed>0.970051545022222</speed>
  <fix>3d</fix>
</trkpt>
<trkpt lat="33.8097798" lon="-118.3943572">
  <ele>-48.81</ele>
  <time>2026-09-02T22:08:31Z</time>
  <course>269.88</course>
  <speed>1.0</speed>
  <fix>3d</fix>
</trkpt>
<trkpt lat="33.8097799" lon="-118.3943595">
  <ele>-50.022</ele>
  <time>2026-09-02T22:08:31Z</time>
  <course>270.97</course>
  <speed>0.970051545022222</speed>
  <fix>3d</fix>
</trkpt>
<trkpt lat="33.8097798" lon="-118.3943572">
  <ele>-48.81</ele>
  <time>2026-09-02T22:08:31Z</time>
  <course>269.88</course>
  <speed>1.0</speed>
  <fix>3d</fix>
</trkpt>
<trkpt lat="33.8097799" lon="-118.3943606">
  <ele>-50.022</ele>
  <time>2026-09-02T22:08:31Z</time>
  <course>270.97</course>
  <speed>0.970051545022222</speed>
  <fix>3d</fix>
</trkpt>
<trkpt lat="33.8097798" lon="-118.3943593">
  <ele>-48.81</ele>
  <time>2026-09-02T22:08:31Z</time>
  <course>269.88</course>
  <speed>1.0</speed>
  <fix>3d</fix>
</trkpt>
<trkpt lat="33.8097799" lon="-118.3943617">
  <ele>-50.022</ele>
  <time>2026-09-02T22:08:31Z</time>
  <course>270.97</course>
  <speed>0.970051545022222</speed>
  <fix>3d</fix>
</trkpt>
<trkpt lat="33.8097798" lon="-118.3943593">
  <ele>-48.81</ele>
  <time>2026-09-02T22:08:31Z</time>
  <course>269.88</course>
  <speed>1.0</speed>
  <fix>3d</fix>
</trkpt>
<trkpt lat="33.8097799" lon="-118.3943628">
  <ele>-50.02</ele>
  <time>2026-09-02T22:08:31Z</time>
  <course>270.97</course>
  <speed>0.970051545022222</speed>
  <fix>3d</fix>
</trkpt>
<trkpt lat="33.8097798" lon="-118.3943616">
  <ele>-48.8</ele>
  <time>2026-09-02T22:08:31Z</time>
  <course>269.87</course>
  <speed>1.0</speed>
  <fix>3d</fix>
</trkpt>
<trkpt lat="33.8097799" lon="-118.3943639">
  <ele>-50.018</ele>
  <time>2026-09-02T22:08:31Z</time>
  <course>270.97</course>
  <speed>0.970051545022222</speed>
  <fix>3d</fix>
</trkpt>
<trkpt lat="33.8097798" lon="-118.3943616">
  <ele>-48.8</ele>
  <time>2026-09-02T22:08:31Z</time>
  <course>269.87</course>
  <speed>1.0</speed>
  <fix>3d</fix>
</trkpt>
<trkpt lat="33.8097799" lon="-118.3943649">
  <ele>-50.016</ele>
  <time>2026-09-02T22:08:31Z</time>
  <course>270.97</course>
  <speed>0.970051545022222</speed>
  <fix>3d</fix>
</trkpt>
<trkpt lat="33.8097798" lon="-118.3943637">
  <ele>-48.8</ele>
  <time>2026-09-02T22:08:31Z</time>
  <course>269.85</course>
  <speed>1.0</speed>
  <fix>3d</fix>
</trkpt>
<trkpt lat="33.8097799" lon="-118.394366">
  <ele>-50.014</ele>
  <time>2026-09-02T22:08:31Z</time>
  <course>270.97</course>
  <speed>0.970051545022222</speed>
  <fix>3d</fix>
</trkpt>
<trkpt lat="33.8097798" lon="-118.3943637">
  <ele>-48.8</ele>
  <time>2026-09-02T22:08:31Z</time>
  <course>269.85</course>
  <speed>1.0</speed>
  <fix>3d</fix>
</trkpt>
<trkpt lat="33.8097799" lon="-118.3943671">
  <ele>-50.013</ele>
  <time>2026-09-02T22:08:31Z</time>
  <course>270.97</course>
  <speed>0.970051545022222</speed>
  <fix>3d</fix>
</trkpt>
<trkpt lat="33.8097798" lon="-118.3943659">
  <ele>-48.8</ele>
  <time>2026-09-02T22:08:31Z</time>
  <course>269.84</course>
  <speed>1.0</speed>
  <fix>3d</fix>
</trkpt>
<trkpt lat="33.8097799" lon="-118.3943682">
  <ele>-50.013</ele>
  <time>2026-09-02T22:08:31Z</time>
  <course>270.98</course>
  <speed>0.970051545022222</speed>
  <fix>3d</fix>
</trkpt>
<trkpt lat="33.8097798" lon="-118.3943659">
  <ele>-48.8</ele>
  <time>2026-09-02T22:08:31Z</time>
  <course>269.84</course>
  <speed>1.0</speed>
  <fix>3d</fix>
</trkpt>
<trkpt lat="33.8097799" lon="-118.3943693">
  <ele>-50.015</ele>
  <time>2026-09-02T22:08:31Z</time>
  <course>270.98</course>
  <speed>0.970051545022222</speed>
  <fix>3d</fix>
</trkpt>
<trkpt lat="33.8097798" lon="-118.3943681">
  <ele>-48.8</ele>
  <time>2026-09-02T22:08:31Z</time>
  <course>269.82</course>
  <speed>1.0</speed>
  <fix>3d</fix>
</trkpt>
<trkpt lat="33.8097799" lon="-118.3943704">
  <ele>-50.017</ele>
  <time>2026-09-02T22:08:31Z</time>
  <course>270.99</course>
  <speed>0.970051545022222</speed>
  <fix>3d</fix>
</trkpt>
<trkpt lat="33.8097798" lon="-118.3943681">
  <ele>-48.8</ele>
  <time>2026-09-02T22:08:31Z</time>
  <course>269.82</course>
  <speed>1.0</speed>
  <fix>3d</fix>
</trkpt>
<trkpt lat="33.8097799" lon="-118.3943715">
  <ele>-50.018</ele>
  <time>2026-09-02T22:08:31Z</time>
  <course>270.99</course>
  <speed>0.970051545022222</speed>
  <fix>3d</fix>
</trkpt>
<trkpt lat="33.8097798" lon="-118.3943702">
  <ele>-48.8</ele>
  <time>2026-09-02T22:08:31Z</time>
  <course>269.81</course>
  <speed>1.0</speed>
  <fix>3d</fix>
</trkpt>
<trkpt lat="33.8097799" lon="-118.3943725">
  <ele>-50.018</ele>
  <time>2026-09-02T22:08:31Z</time>
  <course>270.99</course>
  <speed>0.970051545022222</speed>
  <fix>3d</fix>
</trkpt>
<trkpt lat="33.8097798" lon="-118.3943702">
  <ele>-48.8</ele>
  <time>2026-09-02T22:08:31Z</time>
  <course>269.81</course>
  <speed>1.0</speed>
  <fix>3d</fix>
</trkpt>
<trkpt lat="33.8097799" lon="-118.3943736">
  <ele>-50.018</ele>
  <time>2026-09-02T22:08:31Z</time>
  <course>270.99</course>
  <speed>0.970051545022222</speed>
  <fix>3d</fix>
</trkpt>
<trkpt lat="33.8097798" lon="-118.3943724">
  <ele>-48.81</ele>
  <time>2026-09-02T22:08:31Z</time>
  <course>269.8</course>
  <speed>1.0</speed>
  <fix>3d</fix>
</trkpt>
<trkpt lat="33.8097799" lon="-118.3943747">
  <ele>-50.019</ele>
  <time>2026-09-02T22:08:31Z</time>
  <course>270.99</course>
  <speed>0.970051545022222</speed>
  <fix>3d</fix>
</trkpt>
<trkpt lat="33.8097798" lon="-118.3943724">
  <ele>-48.81</ele>
  <time>2026-09-02T22:08:31Z</time>
  <course>269.8</course>
  <speed>1.0</speed>
  <fix>3d</fix>
</trkpt>
<trkpt lat="33.8097799" lon="-118.3943758">
  <ele>-50.02</ele>
  <time>2026-09-02T22:08:31Z</time>
  <course>271.0</course>
  <speed>0.970051545022222</speed>
  <fix>3d</fix>
</trkpt>
<trkpt lat="33.8097798" lon="-118.3943746">
  <ele>-48.81</ele>
  <time>2026-09-02T22:08:31Z</time>
  <course>269.79</course>
  <speed>1.0</speed>
  <fix>3d</fix>
</trkpt>
<trkpt lat="33.8097799" lon="-118.3943768">
  <ele>-50.022</ele>
  <time>2026-09-02T22:08:31Z</time>
  <course>270.99</course>
  <speed>0.970051545022222</speed>
  <fix>3d</fix>
</trkpt>
<trkpt lat="33.8097798" lon="-118.3943746">
  <ele>-48.81</ele>
  <time>2026-09-02T22:08:31Z</time>
  <course>269.79</course>
  <speed>1.0</speed>
  <fix>3d</fix>
</trkpt>
<trkpt lat="33.8097799" lon="-118.3943779">
  <ele>-50.023</ele>
  <time>2026-09-02T22:08:31Z</time>
  <course>271.0</course>
  <speed>0.970051545022222</speed>
  <fix>3d</fix>
</trkpt>
<trkpt lat="33.8097798" lon="-118.3943767">
  <ele>-48.81</ele>
  <time>2026-09-02T22:08:31Z</time>
  <course>269.77</course>
  <speed>1.0</speed>
  <fix>3d</fix>
</trkpt>
<trkpt lat="33.8097799" lon="-118.394379">
  <ele>-50.024</ele>
  <time>2026-09-02T22:08:31Z</time>
  <course>271.01</course>
  <speed>0.970051545022222</speed>
  <fix>3d</fix>
</trkpt>
<trkpt lat="33.8097798" lon="-118.3943767">
  <ele>-48.81</ele>
  <time>2026-09-02T22:08:31Z</time>
  <course>269.77</course>
  <speed>1.0</speed>
  <fix>3d</fix>
</trkpt>
<trkpt lat="33.8097799" lon="-118.3943801">
  <ele>-50.023</ele>
  <time>2026-09-02T22:08:31Z</time>
  <course>271.01</course>
  <speed>0.970051545022222</speed>
  <fix>3d</fix>
</trkpt>
<trkpt lat="33.8097798" lon="-118.3943789">
  <ele>-48.81</ele>
  <time>2026-09-02T22:08:31Z</time>
  <course>269.75</course>
  <speed>1.0</speed>
  <fix>3d</fix>
</trkpt>
<trkpt lat="33.8097799" lon="-118.3943812">
  <ele>-50.023</ele>
  <time>2026-09-02T22:08:31Z</time>
  <course>271.02</course>
  <speed>0.970051545022222</speed>
  <fix>3d</fix>
</trkpt>
<trkpt lat="33.8097798" lon="-118.3943789">
  <ele>-48.81</ele>
  <time>2026-09-02T22:08:31Z</time>
  <course>269.75</course>
  <speed>1.0</speed>
  <fix>3d</fix>
</trkpt>
<trkpt lat="33.8097799" lon="-118.3943822">
  <ele>-50.021</ele>
  <time>2026-09-02T22:08:31Z</time>
  <course>271.03</course>
  <speed>0.970051545022222</speed>
  <fix>3d</fix>
</trkpt>
<trkpt lat="33.8097798" lon="-118.3943811">
  <ele>-48.81</ele>
  <time>2026-09-02T22:08:31Z</time>
  <course>269.74</course>
  <speed>1.0</speed>
  <fix>3d</fix>
</trkpt>
<trkpt lat="33.8097799" lon="-118.3943833">
  <ele>-50.02</ele>
  <time>2026-09-02T22:08:31Z</time>
  <course>271.03</course>
  <speed>0.970051545022222</speed>
  <fix>3d</fix>
</trkpt>
<trkpt lat="33.8097798" lon="-118.3943811">
  <ele>-48.81</ele>
  <time>2026-09-02T22:08:31Z</time>
  <course>269.74</course>
  <speed>1.0</speed>
  <fix>3d</fix>
</trkpt>
<trkpt lat="33.8097799" lon="-118.3943844">
  <ele>-50.018</ele>
  <time>2026-09-02T22:08:31Z</time>
  <course>271.04</course>
  <speed>0.970051545022222</speed>
  <fix>3d</fix>
</trkpt>
<trkpt lat="33.8097798" lon="-118.3943832">
  <ele>-48.81</ele>
  <time>2026-09-02T22:08:31Z</time>
  <course>269.75</course>
  <speed>1.0</speed>
  <fix>3d</fix>
</trkpt>
<trkpt lat="33.8097799" lon="-118.3943855">
  <ele>-50.016</ele>
  <time>2026-09-02T22:08:31Z</time>
  <course>271.04</course>
  <speed>0.970051545022222</speed>
  <fix>3d</fix>
</trkpt>
<trkpt lat="33.8097798" lon="-118.3943832">
  <ele>-48.81</ele>
  <time>2026-09-02T22:08:31Z</time>
  <course>269.75</course>
  <speed>1.0</speed>
  <fix>3d</fix>
</trkpt>
<trkpt lat="33.8097799" lon="-118.3943866">
  <ele>-50.014</ele>
  <time>2026-09-02T22:08:31Z</time>
  <course>271.05</course>
  <speed>0.970051545022222</speed>
  <fix>3d</fix>
</trkpt>
<trkpt lat="33.8097798" lon="-118.3943854">
  <ele>-48.81</ele>
  <time>2026-09-02T22:08:31Z</time>
  <course>269.75</course>
  <speed>1.0</speed>
  <fix>3d</fix>
</trkpt>
<trkpt lat="33.8097799" lon="-118.3943877">
  <ele>-50.013</ele>
  <time>2026-09-02T22:08:31Z</time>
  <course>271.05</course>
  <speed>0.970051545022222</speed>
  <fix>3d</fix>
</trkpt>
<trkpt lat="33.8097798" lon="-118.3943854">
  <ele>-48.81</ele>
  <time>2026-09-02T22:08:31Z</time>
  <course>269.75</course>
  <speed>1.0</speed>
  <fix>3d</fix>
</trkpt>
<trkpt lat="33.8097799" lon="-118.3943887">
  <ele>-50.013</ele>
  <time>2026-09-02T22:08:31Z</time>
  <course>271.06</course>
  <speed>0.970051545022222</speed>
  <fix>3d</fix>
</trkpt>
<trkpt lat="33.8097798" lon="-118.3943875">
  <ele>-48.81</ele>
  <time>2026-09-02T22:08:31Z</time>
  <course>269.74</course>
  <speed>1.0</speed>
  <fix>3d</fix>
</trkpt>
<trkpt lat="33.8097799" lon="-118.3943898">
  <ele>-50.014</ele>
  <time>2026-09-02T22:08:31Z</time>
  <course>271.05</course>
  <speed>0.970051545022222</speed>
  <fix>3d</fix>
</trkpt>
<trkpt lat="33.8097798" lon="-118.3943875">
  <ele>-48.81</ele>
  <time>2026-09-02T22:08:31Z</time>
  <course>269.74</course>
  <speed>1.0</speed>
  <fix>3d</fix>
</trkpt>
<trkpt lat="33.8097799" lon="-118.3943909">
  <ele>-50.015</ele>
  <time>2026-09-02T22:08:31Z</time>
  <course>271.06</course>
  <speed>0.970051545022222</speed>
  <fix>3d</fix>
</trkpt>
<trkpt lat="33.8097798" lon="-118.3943898">
  <ele>-48.81</ele>
  <time>2026-09-02T22:08:31Z</time>
  <course>269.74</course>
  <speed>1.0</speed>
  <fix>3d</fix>
</trkpt>
<trkpt lat="33.8097799" lon="-118.394392">
  <ele>-50.017</ele>
  <time>2026-09-02T22:08:31Z</time>
  <course>271.05</course>
  <speed>0.970051545022222</speed>
  <fix>3d</fix>
</trkpt>
<trkpt lat="33.8097798" lon="-118.3943898">
  <ele>-48.81</ele>
  <time>2026-09-02T22:08:31Z</time>
  <course>269.74</course>
  <speed>1.0</speed>
  <fix>3d</fix>
</trkpt>
<trkpt lat="33.8097799" lon="-118.3943931">
  <ele>-50.02</ele>
  <time>2026-09-02T22:08:31Z</time>
  <course>271.06</course>
  <speed>0.970051545022222</speed>
  <fix>3d</fix>
</trkpt>
<trkpt lat="33.8097798" lon="-118.3943919">
  <ele>-48.81</ele>
  <time>2026-09-02T22:08:31Z</time>
  <course>269.72</course>
  <speed>1.0</speed>
  <fix>3d</fix>
</trkpt>
<trkpt lat="33.8097799" lon="-118.3943942">
  <ele>-50.021</ele>
  <time>2026-09-02T22:08:31Z</time>
  <course>271.06</course>
  <speed>0.970051545022222</speed>
  <fix>3d</fix>
</trkpt>
<trkpt lat="33.8097798" lon="-118.3943919">
  <ele>-48.81</ele>
  <time>2026-09-02T22:08:31Z</time>
  <course>269.72</course>
  <speed>1.0</speed>
  <fix>3d</fix>
</trkpt>
<trkpt lat="33.8097799" lon="-118.3943952">
  <ele>-50.021</ele>
  <time>2026-09-02T22:08:31Z</time>
  <course>271.07</course>
  <speed>0.970051545022222</speed>
  <fix>3d</fix>
</trkpt>
<trkpt lat="33.8097798" lon="-118.3943942">
  <ele>-48.82</ele>
  <time>2026-09-02T22:08:31Z</time>
  <course>269.7</course>
  <speed>1.0</speed>
  <fix>3d</fix>
</trkpt>
<trkpt lat="33.8097799" lon="-118.3943963">
  <ele>-50.022</ele>
  <time>2026-09-02T22:08:31Z</time>
  <course>271.06</course>
  <speed>0.970051545022222</speed>
  <fix>3d</fix>
</trkpt>
<trkpt lat="33.8097798" lon="-118.3943942">
  <ele>-48.82</ele>
  <time>2026-09-02T22:08:31Z</time>
  <course>269.7</course>
  <speed>1.0</speed>
  <fix>3d</fix>
</trkpt>
<trkpt lat="33.8097799" lon="-118.3943974">
  <ele>-50.021</ele>
  <time>2026-09-02T22:08:31Z</time>
  <course>271.07</course>
  <speed>0.970051545022222</speed>
  <fix>3d</fix>
</trkpt>
<trkpt lat="33.8097798" lon="-118.3943963">
  <ele>-48.82</ele>
  <time>2026-09-02T22:08:31Z</time>
  <course>269.7</course>
  <speed>1.0</speed>
  <fix>3d</fix>
</trkpt>
<trkpt lat="33.8097799" lon="-118.3943985">
  <ele>-50.022</ele>
  <time>2026-09-02T22:08:31Z</time>
  <course>271.07</course>
  <speed>0.970051545022222</speed>
  <fix>3d</fix>
</trkpt>
<trkpt lat="33.8097798" lon="-118.3943963">
  <ele>-48.82</ele>
  <time>2026-09-02T22:08:31Z</time>
  <course>269.7</course>
  <speed>1.0</speed>
  <fix>3d</fix>
</trkpt>
<trkpt lat="33.8097799" lon="-118.3943996">
  <ele>-50.023</ele>
  <time>2026-09-02T22:08:31Z</time>
  <course>271.08</course>
  <speed>0.970051545022222</speed>
  <fix>3d</fix>
</trkpt>
<trkpt lat="33.8097798" lon="-118.3943985">
  <ele>-48.82</ele>
  <time>2026-09-02T22:08:31Z</time>
  <course>269.7</course>
  <speed>1.0</speed>
  <fix>3d</fix>
</trkpt>
<trkpt lat="33.8097799" lon="-118.3944007">
  <ele>-50.023</ele>
  <time>2026-09-02T22:08:31Z</time>
  <course>271.08</course>
  <speed>0.970051545022222</speed>
  <fix>3d</fix>
</trkpt>
<trkpt lat="33.8097798" lon="-118.3943985">
  <ele>-48.82</ele>
  <time>2026-09-02T22:08:31Z</time>
  <course>269.7</course>
  <speed>1.0</speed>
  <fix>3d</fix>
</trkpt>
<trkpt lat="33.8097799" lon="-118.3944018">
  <ele>-50.023</ele>
  <time>2026-09-02T22:08:31Z</time>
  <course>271.08</course>
  <speed>0.970051545022222</speed>
  <fix>3d</fix>
</trkpt>
<trkpt lat="33.8097798" lon="-118.3944007">
  <ele>-48.82</ele>
  <time>2026-09-02T22:08:31Z</time>
  <course>269.68</course>
  <speed>1.0</speed>
  <fix>3d</fix>
</trkpt>
<trkpt lat="33.8097799" lon="-118.3944028">
  <ele>-50.021</ele>
  <time>2026-09-02T22:08:31Z</time>
  <course>271.08</course>
  <speed>0.970051545022222</speed>
  <fix>3d</fix>
</trkpt>
<trkpt lat="33.8097798" lon="-118.3944007">
  <ele>-48.82</ele>
  <time>2026-09-02T22:08:31Z</time>
  <course>269.68</course>
  <speed>1.0</speed>
  <fix>3d</fix>
</trkpt>
<trkpt lat="33.8097799" lon="-118.3944039">
  <ele>-50.021</ele>
  <time>2026-09-02T22:08:31Z</time>
  <course>271.09</course>
  <speed>0.970051545022222</speed>
  <fix>3d</fix>
</trkpt>
<trkpt lat="33.8097797" lon="-118.3944028">
  <ele>-48.82</ele>
  <time>2026-09-02T22:08:31Z</time>
  <course>269.66</course>
  <speed>1.0</speed>
  <fix>3d</fix>
</trkpt>
<trkpt lat="33.8097799" lon="-118.394405">
  <ele>-50.023</ele>
  <time>2026-09-02T22:08:31Z</time>
  <course>271.1</course>
  <speed>0.970051545022222</speed>
  <fix>3d</fix>
</trkpt>
<trkpt lat="33.8097797" lon="-118.3944028">
  <ele>-48.82</ele>
  <time>2026-09-02T22:08:31Z</time>
  <course>269.66</course>
  <speed>1.0</speed>
  <fix>3d</fix>
</trkpt>
<trkpt lat="33.8097799" lon="-118.3944061">
  <ele>-50.024</ele>
  <time>2026-09-02T22:08:31Z</time>
  <course>271.14</course>
  <speed>0.970051545022222</speed>
  <fix>3d</fix>
</trkpt>
<trkpt lat="33.8097797" lon="-118.394405">
  <ele>-48.82</ele>
  <time>2026-09-02T22:08:31Z</time>
  <course>269.71</course>
  <speed>1.0</speed>
  <fix>3d</fix>
</trkpt>
<trkpt lat="33.8097799" lon="-118.3944072">
  <ele>-50.026</ele>
  <time>2026-09-02T22:08:31Z</time>
  <course>271.19</course>
  <speed>0.9602083107326242</speed>
  <fix>3d</fix>
</trkpt>
<trkpt lat="33.8097797" lon="-118.394405">
  <ele>-48.82</ele>
  <time>2026-09-02T22:08:31Z</time>
  <course>269.71</course>
  <speed>1.0</speed>
  <fix>3d</fix>
</trkpt>
<trkpt lat="33.8097799" lon="-118.3944083">
  <ele>-50.026</ele>
  <time>2026-09-02T22:08:31Z</time>
  <course>271.25</course>
  <speed>0.9702061636580135</speed>
  <fix>3d</fix>
</trkpt>
<trkpt lat="33.8097797" lon="-118.3944072">
  <ele>-48.82</ele>
  <time>2026-09-02T22:08:31Z</time>
  <course>269.82</course>
  <speed>0.99</speed>
  <fix>3d</fix>
</trkpt>
<trkpt lat="33.8097799" lon="-118.3944093">
  <ele>-50.027</ele>
  <time>2026-09-02T22:08:31Z</time>
  <course>271.3</course>
  <speed>0.9602083107326242</speed>
  <fix>3d</fix>
</trkpt>
<trkpt lat="33.8097797" lon="-118.3944072">
  <ele>-48.82</ele>
  <time>2026-09-02T22:08:31Z</time>
  <course>269.82</course>
  <speed>0.99</speed>
  <fix>3d</fix>
</trkpt>
<trkpt lat="33.8097799" lon="-118.3944104">
  <ele>-50.027</ele>
  <time>2026-09-02T22:08:31Z</time>
  <course>271.36</course>
  <speed>0.9702061636580135</speed>
  <fix>3d</fix>
</trkpt>
<trkpt lat="33.8097797" lon="-118.3944093">
  <ele>-48.82</ele>
  <time>2026-09-02T22:08:31Z</time>
  <course>269.92</course>
  <speed>0.99</speed>
  <fix>3d</fix>
</trkpt>
<trkpt lat="33.8097799" lon="-118.3944115">
  <ele>-50.027</ele>
  <time>2026-09-02T22:08:31Z</time>
  <course>271.41</course>
  <speed>0.9602083107326242</speed>
  <fix>3d</fix>
</trkpt>
<trkpt lat="33.8097797" lon="-118.3944093">
  <ele>-48.82</ele>
  <time>2026-09-02T22:08:31Z</time>
  <course>269.92</course>
  <speed>0.99</speed>
  <fix>3d</fix>
</trkpt>
<trkpt lat="33.8097799" lon="-118.3944126">
  <ele>-50.025</ele>
  <time>2026-09-02T22:08:31Z</time>
  <course>271.46</course>
  <speed>0.9702061636580135</speed>
  <fix>3d</fix>
</trkpt>
<trkpt lat="33.8097797" lon="-118.3944115">
  <ele>-48.81</ele>
  <time>2026-09-02T22:08:32Z</time>
  <course>269.99</course>
  <speed>0.99</speed>
  <fix>3d</fix>
</trkpt>
<trkpt lat="33.8097799" lon="-118.3944137">
  <ele>-50.022</ele>
  <time>2026-09-02T22:08:32Z</time>
  <course>271.48</course>
  <speed>0.9602083107326242</speed>
  <fix>3d</fix>
</trkpt>
<trkpt lat="33.8097797" lon="-118.3944115">
  <ele>-48.81</ele>
  <time>2026-09-02T22:08:32Z</time>
  <course>269.99</course>
  <speed>0.99</speed>
  <fix>3d</fix>
</trkpt>
<trkpt lat="33.8097799" lon="-118.3944148">
  <ele>-50.019</ele>
  <time>2026-09-02T22:08:32Z</time>
  <course>271.52</course>
  <speed>0.9702061636580135</speed>
  <fix>3d</fix>
</trkpt>
<trkpt lat="33.8097797" lon="-118.3944136">
  <ele>-48.81</ele>
  <time>2026-09-02T22:08:32Z</time>
  <course>270.03</course>
  <speed>0.99</speed>
  <fix>3d</fix>
</trkpt>
<trkpt lat="33.8097799" lon="-118.3944158">
  <ele>-50.017</ele>
  <time>2026-09-02T22:08:32Z</time>
  <course>271.54</course>
  <speed>0.9702061636580135</speed>
  <fix>3d</fix>
</trkpt>
<trkpt lat="33.8097797" lon="-118.3944136">
  <ele>-48.81</ele>
  <time>2026-09-02T22:08:32Z</time>
  <course>270.03</course>
  <speed>0.99</speed>
  <fix>3d</fix>
</trkpt>
<trkpt lat="33.8097799" lon="-118.3944169">
  <ele>-50.014</ele>
  <time>2026-09-02T22:08:32Z</time>
  <course>271.56</course>
  <speed>0.9702061636580135</speed>
  <fix>3d</fix>
</trkpt>
<trkpt lat="33.8097797" lon="-118.3944158">
  <ele>-48.8</ele>
  <time>2026-09-02T22:08:32Z</time>
  <course>270.06</course>
  <speed>0.99</speed>
  <fix>3d</fix>
</trkpt>
<trkpt lat="33.8097799" lon="-118.394418">
  <ele>-50.013</ele>
  <time>2026-09-02T22:08:32Z</time>
  <course>271.57</course>
  <speed>0.9702061636580135</speed>
  <fix>3d</fix>
</trkpt>
<trkpt lat="33.8097797" lon="-118.3944158">
  <ele>-48.8</ele>
  <time>2026-09-02T22:08:32Z</time>
  <course>270.06</course>
  <speed>0.99</speed>
  <fix>3d</fix>
</trkpt>
<trkpt lat="33.8097799" lon="-118.3944191">
  <ele>-50.013</ele>
  <time>2026-09-02T22:08:32Z</time>
  <course>271.59</course>
  <speed>0.9702061636580135</speed>
  <fix>3d</fix>
</trkpt>
<trkpt lat="33.8097797" lon="-118.394418">
  <ele>-48.8</ele>
  <time>2026-09-02T22:08:32Z</time>
  <course>270.09</course>
  <speed>0.99</speed>
  <fix>3d</fix>
</trkpt>
<trkpt lat="33.8097799" lon="-118.3944202">
  <ele>-50.013</ele>
  <time>2026-09-02T22:08:32Z</time>
  <course>271.6</course>
  <speed>0.9702061636580135</speed>
  <fix>3d</fix>
</trkpt>
<trkpt lat="33.8097797" lon="-118.394418">
  <ele>-48.8</ele>
  <time>2026-09-02T22:08:32Z</time>
  <course>270.09</course>
  <speed>0.99</speed>
  <fix>3d</fix>
</trkpt>
<trkpt lat="33.8097799" lon="-118.3944212">
  <ele>-50.014</ele>
  <time>2026-09-02T22:08:32Z</time>
  <course>271.61</course>
  <speed>0.9602083107326242</speed>
  <fix>3d</fix>
</trkpt>
<trkpt lat="33.8097797" lon="-118.3944201">
  <ele>-48.8</ele>
  <time>2026-09-02T22:08:32Z</time>
  <course>270.1</course>
  <speed>0.99</speed>
  <fix>3d</fix>
</trkpt>
<trkpt lat="33.8097799" lon="-118.3944223">
  <ele>-50.015</ele>
  <time>2026-09-02T22:08:32Z</time>
  <course>271.61</course>
  <speed>0.9602083107326242</speed>
  <fix>3d</fix>
</trkpt>
<trkpt lat="33.8097797" lon="-118.3944201">
  <ele>-48.8</ele>
  <time>2026-09-02T22:08:32Z</time>
  <course>270.1</course>
  <speed>0.99</speed>
  <fix>3d</fix>
</trkpt>
<trkpt lat="33.8097799" lon="-118.3944234">
  <ele>-50.017</ele>
  <time>2026-09-02T22:08:32Z</time>
  <course>271.62</course>
  <speed>0.9402127418834527</speed>
  <fix>3d</fix>
</trkpt>
<trkpt lat="33.8097797" lon="-118.3944223">
  <ele>-48.8</ele>
  <time>2026-09-02T22:08:32Z</time>
  <course>270.13</course>
  <speed>0.99</speed>
  <fix>3d</fix>
</trkpt>
<trkpt lat="33.8097799" lon="-118.3944244">
  <ele>-50.018</ele>
  <time>2026-09-02T22:08:32Z</time>
  <course>271.63</course>
  <speed>0.9102197536858887</speed>
  <fix>3d</fix>
</trkpt>
<trkpt lat="33.8097797" lon="-118.3944223">
  <ele>-48.8</ele>
  <time>2026-09-02T22:08:32Z</time>
  <course>270.13</course>
  <speed>0.99</speed>
  <fix>3d</fix>
</trkpt>
<trkpt lat="33.8097799" lon="-118.3944254">
  <ele>-50.02</ele>
  <time>2026-09-02T22:08:32Z</time>
  <course>271.66</course>
  <speed>0.8802272433866155</speed>
  <fix>3d</fix>
</trkpt>
<trkpt lat="33.8097797" lon="-118.3944244">
  <ele>-48.81</ele>
  <time>2026-09-02T22:08:32Z</time>
  <course>270.19</course>
  <speed>0.95</speed>
  <fix>3d</fix>
</trkpt>
<trkpt lat="33.8097799" lon="-118.3944264">
  <ele>-50.02</ele>
  <time>2026-09-02T22:08:32Z</time>
  <course>271.7</course>
  <speed>0.8402380615040002</speed>
  <fix>3d</fix>
</trkpt>
<trkpt lat="33.8097797" lon="-118.3944244">
  <ele>-48.81</ele>
  <time>2026-09-02T22:08:32Z</time>
  <course>270.19</course>
  <speed>0.95</speed>
  <fix>3d</fix>
</trkpt>
<trkpt lat="33.8097799" lon="-118.3944273">
  <ele>-50.021</ele>
  <time>2026-09-02T22:08:32Z</time>
  <course>271.76</course>
  <speed>0.7902531240052139</speed>
  <fix>3d</fix>
</trkpt>
<trkpt lat="33.8097797" lon="-118.3944263">
  <ele>-48.81</ele>
  <time>2026-09-02T22:08:32Z</time>
  <course>270.28</course>
  <speed>0.89</speed>
  <fix>3d</fix>
</trkpt>
<trkpt lat="33.8097799" lon="-118.3944282">
  <ele>-50.022</ele>
  <time>2026-09-02T22:08:32Z</time>
  <course>271.83</course>
  <speed>0.7302739212103907</speed>
  <fix>3d</fix>
</trkpt>
<trkpt lat="33.8097797" lon="-118.3944263">
  <ele>-48.81</ele>
  <time>2026-09-02T22:08:32Z</time>
  <course>270.28</course>
  <speed>0.89</speed>
  <fix>3d</fix>
</trkpt>
<trkpt lat="33.8097799" lon="-118.394429">
  <ele>-50.022</ele>
  <time>2026-09-02T22:08:32Z</time>
  <course>271.94</course>
  <speed>0.6702984409947557</speed>
  <fix>3d</fix>
</trkpt>
<trkpt lat="33.8097797" lon="-118.3944282">
  <ele>-48.81</ele>
  <time>2026-09-02T22:08:32Z</time>
  <course>270.43</course>
  <speed>0.8</speed>
  <fix>3d</fix>
</trkpt>
<trkpt lat="33.8097799" lon="-118.3944297">
  <ele>-50.021</ele>
  <time>2026-09-02T22:08:32Z</time>
  <course>272.09</course>
  <speed>0.6003332407921453</speed>
  <fix>3d</fix>
</trkpt>
<trkpt lat="33.8097797" lon="-118.3944282">
  <ele>-48.81</ele>
  <time>2026-09-02T22:08:32Z</time>
  <course>270.43</course>
  <speed>0.8</speed>
  <fix>3d</fix>
</trkpt>
<trkpt lat="33.8097799" lon="-118.3944303">
  <ele>-50.02</ele>
  <time>2026-09-02T22:08:32Z</time>
  <course>272.32</course>
  <speed>0.5303772242470448</speed>
  <fix>3d</fix>
</trkpt>
<trkpt lat="33.8097797" lon="-118.3944298">
  <ele>-48.81</ele>
  <time>2026-09-02T22:08:32Z</time>
  <course>270.67</course>
  <speed>0.67</speed>
  <fix>3d</fix>
</trkpt>
<trkpt lat="33.8097799" lon="-118.3944309">
  <ele>-50.019</ele>
  <time>2026-09-02T22:08:32Z</time>
  <course>272.63</course>
  <speed>0.4604345773288535</speed>
  <fix>3d</fix>
</trkpt>
<trkpt lat="33.8097797" lon="-118.3944298">
  <ele>-48.81</ele>
  <time>2026-09-02T22:08:32Z</time>
  <course>270.67</course>
  <speed>0.67</speed>
  <fix>3d</fix>
</trkpt>
<trkpt lat="33.8097799" lon="-118.3944314">
  <ele>-50.018</ele>
  <time>2026-09-02T22:08:32Z</time>
  <course>273.09</course>
  <speed>0.3905124837953327</speed>
  <fix>3d</fix>
</trkpt>
<trkpt lat="33.8097797" lon="-118.3944311">
  <ele>-48.81</ele>
  <time>2026-09-02T22:08:32Z</time>
  <course>271.02</course>
  <speed>0.54</speed>
  <fix>3d</fix>
</trkpt>
<trkpt lat="33.8097799" lon="-118.3944319">
  <ele>-50.018</ele>
  <time>2026-09-02T22:08:32Z</time>
  <course>273.79</course>
  <speed>0.34058772731852804</speed>
  <fix>3d</fix>
</trkpt>
<trkpt lat="33.8097797" lon="-118.3944311">
  <ele>-48.81</ele>
  <time>2026-09-02T22:08:32Z</time>
  <course>271.02</course>
  <speed>0.54</speed>
  <fix>3d</fix>
</trkpt>
<trkpt lat="33.8097799" lon="-118.3944322">
  <ele>-50.019</ele>
  <time>2026-09-02T22:08:32Z</time>
  <course>274.83</course>
  <speed>0.30066592756745814</speed>
  <fix>3d</fix>
</trkpt>
<trkpt lat="33.8097797" lon="-118.3944321">
  <ele>-48.81</ele>
  <time>2026-09-02T22:08:32Z</time>
  <course>271.45</course>
  <speed>0.41</speed>
  <fix>3d</fix>
</trkpt>
<trkpt lat="33.8097799" lon="-118.3944326">
  <ele>-50.02</ele>
  <time>2026-09-02T22:08:32Z</time>
  <course>275.91</course>
  <speed>0.260768096208106</speed>
  <fix>3d</fix>
</trkpt>
<trkpt lat="33.8097797" lon="-118.3944321">
  <ele>-48.81</ele>
  <time>2026-09-02T22:08:32Z</time>
  <course>271.45</course>
  <speed>0.41</speed>
  <fix>3d</fix>
</trkpt>
<trkpt lat="33.8097799" lon="-118.3944329">
  <ele>-50.02</ele>
  <time>2026-09-02T22:08:32Z</time>
  <course>276.35</course>
  <speed>0.22090722034374521</speed>
  <fix>3d</fix>
</trkpt>
<trkpt lat="33.8097797" lon="-118.3944329">
  <ele>-48.81</ele>
  <time>2026-09-02T22:08:32Z</time>
  <course>271.87</course>
  <speed>0.31</speed>
  <fix>3d</fix>
</trkpt>
<trkpt lat="33.8097799" lon="-118.3944332">
  <ele>-50.02</ele>
  <time>2026-09-02T22:08:32Z</time>
  <course>276.23</course>
  <speed>0.18110770276274835</speed>
  <fix>3d</fix>
</trkpt>
<trkpt lat="33.8097797" lon="-118.3944329">
  <ele>-48.81</ele>
  <time>2026-09-02T22:08:32Z</time>
  <course>271.87</course>
  <speed>0.31</speed>
  <fix>3d</fix>
</trkpt>
<trkpt lat="33.8097799" lon="-118.3944334">
  <ele>-50.019</ele>
  <time>2026-09-02T22:08:32Z</time>
  <course>277.17</course>
  <speed>0.1414213562373095</speed>
  <fix>3d</fix>
</trkpt>
<trkpt lat="33.8097797" lon="-118.3944335">
  <ele>-48.81</ele>
  <time>2026-09-02T22:08:32Z</time>
  <course>272.79</course>
  <speed>0.23</speed>
  <fix>3d</fix>
</trkpt>
<trkpt lat="33.8097799" lon="-118.3944335">
  <ele>-50.017</ele>
  <time>2026-09-02T22:08:32Z</time>
  <course>279.58</course>
  <speed>0.1019803902718557</speed>
  <fix>3d</fix>
</trkpt>
<trkpt lat="33.8097797" lon="-118.3944335">
  <ele>-48.81</ele>
  <time>2026-09-02T22:08:32Z</time>
  <course>272.79</course>
  <speed>0.23</speed>
  <fix>3d</fix>
</trkpt>
<trkpt lat="33.8097799" lon="-118.3944337">
  <ele>-50.017</ele>
  <time>2026-09-02T22:08:32Z</time>
  <course>282.67</course>
  <speed>0.07280109889280519</speed>
  <fix>3d</fix>
</trkpt>
<trkpt lat="33.8097798" lon="-118.3944339">
  <ele>-48.81</ele>
  <time>2026-09-02T22:08:32Z</time>
  <course>275.62</course>
  <speed>0.15</speed>
  <fix>3d</fix>
</trkpt>
<trkpt lat="33.8097799" lon="-118.3944338">
  <ele>-50.018</ele>
  <time>2026-09-02T22:08:32Z</time>
  <course>286.13</course>
  <speed>0.053851648071345036</speed>
  <fix>3d</fix>
</trkpt>
<trkpt lat="33.8097798" lon="-118.3944339">
  <ele>-48.81</ele>
  <time>2026-09-02T22:08:32Z</time>
  <course>275.62</course>
  <speed>0.15</speed>
  <fix>3d</fix>
</trkpt>
<trkpt lat="33.8097799" lon="-118.3944339">
  <ele>-50.019</ele>
  <time>2026-09-02T22:08:32Z</time>
  <course>289.84</course>
  <speed>0.03605551275463989</speed>
  <fix>3d</fix>
</trkpt>
<trkpt lat="33.8097798" lon="-118.3944342">
  <ele>-48.81</ele>
  <time>2026-09-02T22:08:32Z</time>
  <course>281.0</course>
  <speed>0.09</speed>
  <fix>3d</fix>
</trkpt>
<trkpt lat="33.8097799" lon="-118.3944339">
  <ele>-50.021</ele>
  <time>2026-09-02T22:08:32Z</time>
  <course>293.76</course>
  <speed>0.0316227766016838</speed>
  <fix>3d</fix>
</trkpt>
<trkpt lat="33.8097798" lon="-118.3944342">
  <ele>-48.81</ele>
  <time>2026-09-02T22:08:32Z</time>
  <course>281.0</course>
  <speed>0.09</speed>
  <fix>3d</fix>
</trkpt>
<trkpt lat="33.8097799" lon="-118.394434">
  <ele>-50.023</ele>
  <time>2026-09-02T22:08:32Z</time>
  <course>297.85</course>
  <speed>0.04</speed>
  <fix>3d</fix>
</trkpt>
<trkpt lat="33.8097798" lon="-118.3944343">
  <ele>-48.81</ele>
  <time>2026-09-02T22:08:32Z</time>
  <course>295.14</course>
  <speed>0.05</speed>
  <fix>3d</fix>
</trkpt>
<trkpt lat="33.80978" lon="-118.394434">
  <ele>-50.023</ele>
  <time>2026-09-02T22:08:32Z</time>
  <course>302.09</course>
  <speed>0.07071067811865475</speed>
  <fix>3d</fix>
</trkpt>
<trkpt lat="33.8097798" lon="-118.3944343">
  <ele>-48.81</ele>
  <time>2026-09-02T22:08:32Z</time>
  <course>295.14</course>
  <speed>0.05</speed>
  <fix>3d</fix>
</trkpt>
<trkpt lat="33.80978" lon="-118.394434">
  <ele>-50.023</ele>
  <time>2026-09-02T22:08:32Z</time>
  <course>306.48</course>
  <speed>0.1118033988749895</speed>
  <fix>3d</fix>
</trkpt>
<trkpt lat="33.8097798" lon="-118.3944344">
  <ele>-48.81</ele>
  <time>2026-09-02T22:08:32Z</time>
  <course>345.94</course>
  <speed>0.05</speed>
  <fix>3d</fix>
</trkpt>
<trkpt lat="33.8097802" lon="-118.394434">
  <ele>-50.022</ele>
  <time>2026-09-02T22:08:32Z</time>
  <course>311.0</course>
  <speed>0.16124515496597097</speed>
  <fix>3d</fix>
</trkpt>
<trkpt lat="33.8097798" lon="-118.3944344">
  <ele>-48.81</ele>
  <time>2026-09-02T22:08:32Z</time>
  <course>345.94</course>
  <speed>0.05</speed>
  <fix>3d</fix>
</trkpt>
<trkpt lat="33.8097803" lon="-118.394434">
  <ele>-50.021</ele>
  <time>2026-09-02T22:08:32Z</time>
  <course>315.66</course>
  <speed>0.21213203435596426</speed>
  <fix>3d</fix>
</trkpt>
<trkpt lat="33.8097799" lon="-118.3944344">
  <ele>-48.81</ele>
  <time>2026-09-02T22:08:32Z</time>
  <course>3.74</course>
  <speed>0.12</speed>
  <fix>3d</fix>
</trkpt>
<trkpt lat="33.8097805" lon="-118.394434">
  <ele>-50.022</ele>
  <time>2026-09-02T22:08:32Z</time>
  <course>320.44</course>
  <speed>0.2816025568065745</speed>
  <fix>3d</fix>
</trkpt>
<trkpt lat="33.8097799" lon="-118.3944344">
  <ele>-48.81</ele>
  <time>2026-09-02T22:08:32Z</time>
  <course>3.74</course>
  <speed>0.12</speed>
  <fix>3d</fix>
</trkpt>
<trkpt lat="33.8097808" lon="-118.394434">
  <ele>-50.022</ele>
  <time>2026-09-02T22:08:32Z</time>
  <course>325.35</course>
  <speed>0.3522782990761707</speed>
  <fix>3d</fix>
</trkpt>
<trkpt lat="33.8097803" lon="-118.3944344">
  <ele>-48.81</ele>
  <time>2026-09-02T22:08:32Z</time>
  <course>4.54</course>
  <speed>0.22</speed>
  <fix>3d</fix>
</trkpt>
<trkpt lat="33.8097811" lon="-118.394434">
  <ele>-50.022</ele>
  <time>2026-09-02T22:08:32Z</time>
  <course>330.41</course>
  <speed>0.43185645763378366</speed>
  <fix>3d</fix>
</trkpt>
<trkpt lat="33.8097803" lon="-118.3944344">
  <ele>-48.81</ele>
  <time>2026-09-02T22:08:32Z</time>
  <course>4.54</course>
  <speed>0.22</speed>
  <fix>3d</fix>
</trkpt>
<trkpt lat="33.8097815" lon="-118.394434">
  <ele>-50.02</ele>
  <time>2026-09-02T22:08:32Z</time>
  <course>335.62</course>
  <speed>0.5115662224971466</speed>
  <fix>3d</fix>
</trkpt>
<trkpt lat="33.8097808" lon="-118.3944344">
  <ele>-48.8</ele>
  <time>2026-09-02T22:08:32Z</time>
  <course>3.61</course>
  <speed>0.36</speed>
  <fix>3d</fix>
</trkpt>
<trkpt lat="33.809782" lon="-118.394434">
  <ele>-50.019</ele>
  <time>2026-09-02T22:08:32Z</time>
  <course>341.0</course>
  <speed>0.5921148537234985</speed>
  <fix>3d</fix>
</trkpt>
<trkpt lat="33.8097808" lon="-118.3944344">
  <ele>-48.8</ele>
  <time>2026-09-02T22:08:32Z</time>
  <course>3.61</course>
  <speed>0.36</speed>
  <fix>3d</fix>
</trkpt>
<trkpt lat="33.8097825" lon="-118.394434">
  <ele>-50.018</ele>
  <time>2026-09-02T22:08:32Z</time>
  <course>346.55</course>
  <speed>0.6519202405202649</speed>
  <fix>3d</fix>
</trkpt>
<trkpt lat="33.8097817" lon="-118.3944344">
  <ele>-48.8</ele>
  <time>2026-09-02T22:08:32Z</time>
  <course>3.12</course>
  <speed>0.52</speed>
  <fix>3d</fix>
</trkpt>
<trkpt lat="33.8097831" lon="-118.394434">
  <ele>-50.018</ele>
  <time>2026-09-02T22:08:32Z</time>
  <course>352.29</course>
  <speed>0.70178344238091</speed>
  <fix>3d</fix>
</trkpt>
<trkpt lat="33.8097817" lon="-118.3944344">
  <ele>-48.8</ele>
  <time>2026-09-02T22:08:32Z</time>
  <course>3.12</course>
  <speed>0.52</speed>
  <fix>3d</fix>
</trkpt>
<trkpt lat="33.8097837" lon="-118.394434">
  <ele>-50.018</ele>
  <time>2026-09-02T22:08:32Z</time>
  <course>358.0</course>
  <speed>0.7317103251970687</speed>
  <fix>3d</fix>
</trkpt>
<trkpt lat="33.8097827" lon="-118.3944343">
  <ele>-48.8</ele>
  <time>2026-09-02T22:08:32Z</time>
  <course>2.88</course>
  <speed>0.65</speed>
  <fix>3d</fix>
</trkpt>
<trkpt lat="33.8097844" lon="-118.3944339">
  <ele>-50.017</ele>
  <time>2026-09-02T22:08:32Z</time>
  <course>3.44</course>
  <speed>0.7510659092250159</speed>
  <fix>3d</fix>
</trkpt>
<trkpt lat="33.8097827" lon="-118.3944343">
  <ele>-48.8</ele>
  <time>2026-09-02T22:08:32Z</time>
  <course>2.88</course>
  <speed>0.65</speed>
  <fix>3d</fix>
</trkpt>
<trkpt lat="33.8097851" lon="-118.3944339">
  <ele>-50.017</ele>
  <time>2026-09-02T22:08:32Z</time>
  <course>8.16</course>
  <speed>0.7702596964660685</speed>
  <fix>3d</fix>
</trkpt>
<trkpt lat="33.809784" lon="-118.3944343">
  <ele>-48.8</ele>
  <time>2026-09-02T22:08:32Z</time>
  <course>2.03</course>
  <speed>0.73</speed>
  <fix>3d</fix>
</trkpt>
<trkpt lat="33.8097857" lon="-118.394434">
  <ele>-50.017</ele>
  <time>2026-09-02T22:08:32Z</time>
  <course>12.12</course>
  <speed>0.8000624975587844</speed>
  <fix>3d</fix>
</trkpt>
<trkpt lat="33.809784" lon="-118.3944343">
  <ele>-48.8</ele>
  <time>2026-09-02T22:08:32Z</time>
  <course>2.03</course>
  <speed>0.73</speed>
  <fix>3d</fix>
</trkpt>
<trkpt lat="33.8097865" lon="-118.394434">
  <ele>-50.017</ele>
  <time>2026-09-02T22:08:32Z</time>
  <course>15.51</course>
  <speed>0.82</speed>
  <fix>3d</fix>
</trkpt>
<trkpt lat="33.8097853" lon="-118.3944342">
  <ele>-48.8</ele>
  <time>2026-09-02T22:08:32Z</time>
  <course>0.28</course>
  <speed>0.77</speed>
  <fix>3d</fix>
</trkpt>
<trkpt lat="33.8097872" lon="-118.394434">
  <ele>-50.017</ele>
  <time>2026-09-02T22:08:32Z</time>
  <course>18.36</course>
  <speed>0.85</speed>
  <fix>3d</fix>
</trkpt>
<trkpt lat="33.8097853" lon="-118.3944342">
  <ele>-48.8</ele>
  <time>2026-09-02T22:08:32Z</time>
  <course>0.28</course>
  <speed>0.77</speed>
  <fix>3d</fix>
</trkpt>
<trkpt lat="33.809788" lon="-118.394434">
  <ele>-50.017</ele>
  <time>2026-09-02T22:08:32Z</time>
  <course>20.56</course>
  <speed>0.86</speed>
  <fix>3d</fix>
</trkpt>
<trkpt lat="33.8097868" lon="-118.3944342">
  <ele>-48.8</ele>
  <time>2026-09-02T22:08:32Z</time>
  <course>358.84</course>
  <speed>0.83</speed>
  <fix>3d</fix>
</trkpt>
<trkpt lat="33.8097887" lon="-118.394434">
  <ele>-50.017</ele>
  <time>2026-09-02T22:08:32Z</time>
  <course>21.93</course>
  <speed>0.87</speed>
  <fix>3d</fix>
</trkpt>
<trkpt lat="33.8097868" lon="-118.3944342">
  <ele>-48.8</ele>
  <time>2026-09-02T22:08:32Z</time>
  <course>358.84</course>
  <speed>0.83</speed>
  <fix>3d</fix>
</trkpt>
<trkpt lat="33.8097895" lon="-118.394434">
  <ele>-50.016</ele>
  <time>2026-09-02T22:08:32Z</time>
  <course>22.64</course>
  <speed>0.88</speed>
  <fix>3d</fix>
</trkpt>
<trkpt lat="33.8097882" lon="-118.3944342">
  <ele>-48.8</ele>
  <time>2026-09-02T22:08:32Z</time>
  <course>358.46</course>
  <speed>0.86</speed>
  <fix>3d</fix>
</trkpt>
<trkpt lat="33.8097903" lon="-118.394434">
  <ele>-50.014</ele>
  <time>2026-09-02T22:08:32Z</time>
  <course>22.93</course>
  <speed>0.9</speed>
  <fix>3d</fix>
</trkpt>
<trkpt lat="33.8097882" lon="-118.3944342">
  <ele>-48.8</ele>
  <time>2026-09-02T22:08:32Z</time>
  <course>358.46</course>
  <speed>0.86</speed>
  <fix>3d</fix>
</trkpt>
<trkpt lat="33.8097911" lon="-118.394434">
  <ele>-50.012</ele>
  <time>2026-09-02T22:08:32Z</time>
  <course>23.03</course>
  <speed>0.9</speed>
  <fix>3d</fix>
</trkpt>
<trkpt lat="33.8097899" lon="-118.3944342">
  <ele>-48.8</ele>
  <time>2026-09-02T22:08:32Z</time>
  <course>358.72</course>
  <speed>0.89</speed>
  <fix>3d</fix>
</trkpt>
<trkpt lat="33.8097919" lon="-118.394434">
  <ele>-50.012</ele>
  <time>2026-09-02T22:08:32Z</time>
  <course>23.05</course>
  <speed>0.9100549433962765</speed>
  <fix>3d</fix>
</trkpt>
<trkpt lat="33.8097899" lon="-118.3944342">
  <ele>-48.8</ele>
  <time>2026-09-02T22:08:32Z</time>
  <course>358.72</course>
  <speed>0.89</speed>
  <fix>3d</fix>
</trkpt>
<trkpt lat="33.8097927" lon="-118.394434">
  <ele>-50.013</ele>
  <time>2026-09-02T22:08:32Z</time>
  <course>23.06</course>
  <speed>0.9100549433962765</speed>
  <fix>3d</fix>
</trkpt>
<trkpt lat="33.8097915" lon="-118.3944343">
  <ele>-48.8</ele>
  <time>2026-09-02T22:08:32Z</time>
  <course>359.19</course>
  <speed>0.9</speed>
  <fix>3d</fix>
</trkpt>
<trkpt lat="33.8097935" lon="-118.394434">
  <ele>-50.015</ele>
  <time>2026-09-02T22:08:32Z</time>
  <course>23.09</course>
  <speed>0.9100549433962765</speed>
  <fix>3d</fix>
</trkpt>
<trkpt lat="33.8097915" lon="-118.3944343">
  <ele>-48.8</ele>
  <time>2026-09-02T22:08:32Z</time>
  <course>359.19</course>
  <speed>0.9</speed>
  <fix>3d</fix>
</trkpt>
<trkpt lat="33.8097943" lon="-118.394434">
  <ele>-50.018</ele>
  <time>2026-09-02T22:08:32Z</time>
  <course>23.13</course>
  <speed>0.900222194794152</speed>
  <fix>3d</fix>
</trkpt>
<trkpt lat="33.8097931" lon="-118.3944343">
  <ele>-48.81</ele>
  <time>2026-09-02T22:08:32Z</time>
  <course>359.67</course>
  <speed>0.91</speed>
  <fix>3d</fix>
</trkpt>
<trkpt lat="33.8097951" lon="-118.394434">
  <ele>-50.021</ele>
  <time>2026-09-02T22:08:32Z</time>
  <course>23.19</course>
  <speed>0.900222194794152</speed>
  <fix>3d</fix>
</trkpt>
<trkpt lat="33.8097931" lon="-118.3944343">
  <ele>-48.81</ele>
  <time>2026-09-02T22:08:32Z</time>
  <course>359.67</course>
  <speed>0.91</speed>
  <fix>3d</fix>
</trkpt>
<trkpt lat="33.8097959" lon="-118.394434">
  <ele>-50.024</ele>
  <time>2026-09-02T22:08:32Z</time>
  <course>23.25</course>
  <speed>0.900222194794152</speed>
  <fix>3d</fix>
</trkpt>
<trkpt lat="33.8097948" lon="-118.3944343">
  <ele>-48.81</ele>
  <time>2026-09-02T22:08:32Z</time>
  <course>0.12</course>
  <speed>0.91</speed>
  <fix>3d</fix>
</trkpt>
<trkpt lat="33.8097967" lon="-118.394434">
  <ele>-50.026</ele>
  <time>2026-09-02T22:08:32Z</time>
  <course>23.31</course>
  <speed>0.8905054744357274</speed>
  <fix>3d</fix>
</trkpt>
<trkpt lat="33.8097948" lon="-118.3944343">
  <ele>-48.81</ele>
  <time>2026-09-02T22:08:32Z</time>
  <course>0.12</course>
  <speed>0.91</speed>
  <fix>3d</fix>
</trkpt>
<trkpt lat="33.8097975" lon="-118.394434">
  <ele>-50.027</ele>
  <time>2026-09-02T22:08:32Z</time>
  <course>23.36</course>
  <speed>0.8905054744357274</speed>
  <fix>3d</fix>
</trkpt>
<trkpt lat="33.8097964" lon="-118.3944343">
  <ele>-48.82</ele>
  <time>2026-09-02T22:08:32Z</time>
  <course>0.51</course>
  <speed>0.91</speed>
  <fix>3d</fix>
</trkpt>
<trkpt lat="33.8097983" lon="-118.394434">
  <ele>-50.028</ele>
  <time>2026-09-02T22:08:32Z</time>
  <course>23.41</course>
  <speed>0.8805112151472007</speed>
  <fix>3d</fix>
</trkpt>
<trkpt lat="33.8097964" lon="-118.3944343">
  <ele>-48.82</ele>
  <time>2026-09-02T22:08:32Z</time>
  <course>0.51</course>
  <speed>0.91</speed>
  <fix>3d</fix>
</trkpt>
<trkpt lat="33.8097991" lon="-118.394434">
  <ele>-50.028</ele>
  <time>2026-09-02T22:08:32Z</time>
  <course>23.44</course>
  <speed>0.8805112151472007</speed>
  <fix>3d</fix>
</trkpt>
<trkpt lat="33.809798" lon="-118.3944343">
  <ele>-48.82</ele>
  <time>2026-09-02T22:08:32Z</time>
  <course>0.83</course>
  <speed>0.9</speed>
  <fix>3d</fix>
</trkpt>
<trkpt lat="33.8097999" lon="-118.394434">
  <ele>-50.027</ele>
  <time>2026-09-02T22:08:32Z</time>
  <course>23.48</course>
  <speed>0.8705170877128146</speed>
  <fix>3d</fix>
</trkpt>
<trkpt lat="33.809798" lon="-118.3944343">
  <ele>-48.82</ele>
  <time>2026-09-02T22:08:32Z</time>
  <course>0.83</course>
  <speed>0.9</speed>
  <fix>3d</fix>
</trkpt>
<trkpt lat="33.8098007" lon="-118.394434">
  <ele>-50.026</ele>
  <time>2026-09-02T22:08:32Z</time>
  <course>23.5</course>
  <speed>0.8705170877128146</speed>
  <fix>3d</fix>
</trkpt>
<trkpt lat="33.8097997" lon="-118.3944343">
  <ele>-48.82</ele>
  <time>2026-09-02T22:08:32Z</time>
  <course>1.09</course>
  <speed>0.89</speed>
  <fix>3d</fix>
</trkpt>
<trkpt lat="33.8098015" lon="-118.394434">
  <ele>-50.023</ele>
  <time>2026-09-02T22:08:32Z</time>
  <course>23.52</course>
  <speed>0.8605230967266364</speed>
  <fix>3d</fix>
</trkpt>
<trkpt lat="33.8097997" lon="-118.3944343">
  <ele>-48.82</ele>
  <time>2026-09-02T22:08:32Z</time>
  <course>1.09</course>
  <speed>0.89</speed>
  <fix>3d</fix>
</trkpt>
<trkpt lat="33.8098023" lon="-118.394434">
  <ele>-50.018</ele>
  <time>2026-09-02T22:08:32Z</time>
  <course>23.54</course>
  <speed>0.8605230967266364</speed>
  <fix>3d</fix>
</trkpt>
<trkpt lat="33.8098013" lon="-118.3944343">
  <ele>-48.81</ele>
  <time>2026-09-02T22:08:32Z</time>
  <course>1.33</course>
  <speed>0.88</speed>
  <fix>3d</fix>
</trkpt>
<trkpt lat="33.8098031" lon="-118.394434">
  <ele>-50.015</ele>
  <time>2026-09-02T22:08:32Z</time>
  <course>23.56</course>
  <speed>0.8509406559801923</speed>
  <fix>3d</fix>
</trkpt>
<trkpt lat="33.8098013" lon="-118.3944343">
  <ele>-48.81</ele>
  <time>2026-09-02T22:08:32Z</time>
  <course>1.33</course>
  <speed>0.88</speed>
  <fix>3d</fix>
</trkpt>
<trkpt lat="33.8098038" lon="-118.394434">
  <ele>-50.013</ele>
  <time>2026-09-02T22:08:32Z</time>
  <course>23.57</course>
  <speed>0.8509406559801923</speed>
  <fix>3d</fix>
</trkpt>
<trkpt lat="33.8098028" lon="-118.3944342">
  <ele>-48.81</ele>
  <time>2026-09-02T22:08:32Z</time>
  <course>1.57</course>
  <speed>0.87</speed>
  <fix>3d</fix>
</trkpt>
<trkpt lat="33.8098046" lon="-118.394434">
  <ele>-50.013</ele>
  <time>2026-09-02T22:08:32Z</time>
  <course>23.57</course>
  <speed>0.8409518416651456</speed>
  <fix>3d</fix>
</trkpt>
<trkpt lat="33.8098028" lon="-118.3944342">
  <ele>-48.81</ele>
  <time>2026-09-02T22:08:32Z</time>
  <course>1.57</course>
  <speed>0.87</speed>
  <fix>3d</fix>
</trkpt>
<trkpt lat="33.8098054" lon="-118.394434">
  <ele>-50.014</ele>
  <time>2026-09-02T22:08:32Z</time>
  <course>23.55</course>
  <speed>0.8409518416651456</speed>
  <fix>3d</fix>
</trkpt>
<trkpt lat="33.8098044" lon="-118.3944342">
  <ele>-48.81</ele>
  <time>2026-09-02T22:08:32Z</time>
  <course>1.75</course>
  <speed>0.86</speed>
  <fix>3d</fix>
</trkpt>
<trkpt lat="33.8098061" lon="-118.3944339">
  <ele>-50.015</ele>
  <time>2026-09-02T22:08:32Z</time>
  <course>23.51</course>
  <speed>0.8309632964216891</speed>
  <fix>3d</fix>
</trkpt>
<trkpt lat="33.8098044" lon="-118.3944342">
  <ele>-48.81</ele>
  <time>2026-09-02T22:08:32Z</time>
  <course>1.75</course>
  <speed>0.86</speed>
  <fix>3d</fix>
</trkpt>
<trkpt lat="33.8098069" lon="-118.3944339">
  <ele>-50.015</ele>
  <time>2026-09-02T22:08:32Z</time>
  <course>23.46</course>
  <speed>0.8309632964216891</speed>
  <fix>3d</fix>
</trkpt>
<trkpt lat="33.8098059" lon="-118.3944341">
  <ele>-48.81</ele>
  <time>2026-09-02T22:08:32Z</time>
  <course>1.87</course>
  <speed>0.85</speed>
  <fix>3d</fix>
</trkpt>
<trkpt lat="33.8098077" lon="-118.3944339">
  <ele>-50.015</ele>
  <time>2026-09-02T22:08:32Z</time>
  <course>23.39</course>
  <speed>0.8209750300709517</speed>
  <fix>3d</fix>
</trkpt>
<trkpt lat="33.8098059" lon="-118.3944341">
  <ele>-48.81</ele>
  <time>2026-09-02T22:08:32Z</time>
  <course>1.87</course>
  <speed>0.85</speed>
  <fix>3d</fix>
</trkpt>
<trkpt lat="33.8098084" lon="-118.3944339">
  <ele>-50.016</ele>
  <time>2026-09-02T22:08:32Z</time>
  <course>23.3</course>
  <speed>0.8205485969764374</speed>
  <fix>3d</fix>
</trkpt>
<trkpt lat="33.8098075" lon="-118.3944341">
  <ele>-48.81</ele>
  <time>2026-09-02T22:08:32Z</time>
  <course>1.94</course>
  <speed>0.84</speed>
  <fix>3d</fix>
</trkpt>
<trkpt lat="33.8098092" lon="-118.3944339">
  <ele>-50.017</ele>
  <time>2026-09-02T22:08:32Z</time>
  <course>23.19</course>
  <speed>0.8205485969764374</speed>
  <fix>3d</fix>
</trkpt>
<trkpt lat="33.8098075" lon="-118.3944341">
  <ele>-48.81</ele>
  <time>2026-09-02T22:08:32Z</time>
  <course>1.94</course>
  <speed>0.84</speed>
  <fix>3d</fix>
</trkpt>
<trkpt lat="33.8098099" lon="-118.3944338">
  <ele>-50.019</ele>
  <time>2026-09-02T22:08:32Z</time>
  <course>23.09</course>
  <speed>0.8105553651663777</speed>
  <fix>3d</fix>
</trkpt>
<trkpt lat="33.809809" lon="-118.394434">
  <ele>-48.81</ele>
  <time>2026-09-02T22:08:32Z</time>
  <course>1.97</course>
  <speed>0.83</speed>
  <fix>3d</fix>
</trkpt>
<trkpt lat="33.8098107" lon="-118.3944338">
  <ele>-50.02</ele>
  <time>2026-09-02T22:08:32Z</time>
  <course>22.98</course>
  <speed>0.8105553651663777</speed>
  <fix>3d</fix>
</trkpt>
<trkpt lat="33.809809" lon="-118.394434">
  <ele>-48.81</ele>
  <time>2026-09-02T22:08:32Z</time>
  <course>1.97</course>
  <speed>0.83</speed>
  <fix>3d</fix>
</trkpt>
<trkpt lat="33.8098114" lon="-118.3944338">
  <ele>-50.021</ele>
  <time>2026-09-02T22:08:32Z</time>
  <course>22.86</course>
  <speed>0.8105553651663777</speed>
  <fix>3d</fix>
</trkpt>
<trkpt lat="33.8098105" lon="-118.3944339">
  <ele>-48.82</ele>
  <time>2026-09-02T22:08:32Z</time>
  <course>1.98</course>
  <speed>0.83</speed>
  <fix>3d</fix>
</trkpt>
<trkpt lat="33.8098121" lon="-118.3944338">
  <ele>-50.022</ele>
  <time>2026-09-02T22:08:32Z</time>
  <course>22.72</course>
  <speed>0.8005623023850174</speed>
  <fix>3d</fix>
</trkpt>
<trkpt lat="33.8098105" lon="-118.3944339">
  <ele>-48.82</ele>
  <time>2026-09-02T22:08:32Z</time>
  <course>1.98</course>
  <speed>0.83</speed>
  <fix>3d</fix>
</trkpt>
<trkpt lat="33.8098129" lon="-118.3944337">
  <ele>-50.023</ele>
  <time>2026-09-02T22:08:32Z</time>
  <course>22.56</course>
  <speed>0.8005623023850174</speed>
  <fix>3d</fix>
</trkpt>
<trkpt lat="33.809812" lon="-118.3944339">
  <ele>-48.82</ele>
  <time>2026-09-02T22:08:32Z</time>
  <course>1.93</course>
  <speed>0.82</speed>
  <fix>3d</fix>
</trkpt>
<trkpt lat="33.8098136" lon="-118.3944337">
  <ele>-50.024</ele>
  <time>2026-09-02T22:08:32Z</time>
  <course>22.38</course>
  <speed>0.8005623023850174</speed>
  <fix>3d</fix>
</trkpt>
<trkpt lat="33.809812" lon="-118.3944339">
  <ele>-48.82</ele>
  <time>2026-09-02T22:08:32Z</time>
  <course>1.93</course>
  <speed>0.82</speed>
  <fix>3d</fix>
</trkpt>
<trkpt lat="33.8098144" lon="-118.3944337">
  <ele>-50.025</ele>
  <time>2026-09-02T22:08:32Z</time>
  <course>22.21</course>
  <speed>0.8005623023850174</speed>
  <fix>3d</fix>
</trkpt>
<trkpt lat="33.8098134" lon="-118.3944338">
  <ele>-48.82</ele>
  <time>2026-09-02T22:08:32Z</time>
  <course>1.84</course>
  <speed>0.82</speed>
  <fix>3d</fix>
</trkpt>
<trkpt lat="33.8098151" lon="-118.3944337">
  <ele>-50.025</ele>
  <time>2026-09-02T22:08:32Z</time>
  <course>22.02</course>
  <speed>0.8005623023850174</speed>
  <fix>3d</fix>
</trkpt>
<trkpt lat="33.8098134" lon="-118.3944338">
  <ele>-48.82</ele>
  <time>2026-09-02T22:08:32Z</time>
  <course>1.84</course>
  <speed>0.82</speed>
  <fix>3d</fix>
</trkpt>
<trkpt lat="33.8098158" lon="-118.3944337">
  <ele>-50.025</ele>
  <time>2026-09-02T22:08:32Z</time>
  <course>21.82</course>
  <speed>0.8005623023850174</speed>
  <fix>3d</fix>
</trkpt>
<trkpt lat="33.8098149" lon="-118.3944338">
  <ele>-48.82</ele>
  <time>2026-09-02T22:08:32Z</time>
  <course>1.77</course>
  <speed>0.82</speed>
  <fix>3d</fix>
</trkpt>
<trkpt lat="33.8098166" lon="-118.3944336">
  <ele>-50.025</ele>
  <time>2026-09-02T22:08:32Z</time>
  <course>21.62</course>
  <speed>0.8005623023850174</speed>
  <fix>3d</fix>
</trkpt>
<trkpt lat="33.8098149" lon="-118.3944338">
  <ele>-48.82</ele>
  <time>2026-09-02T22:08:32Z</time>
  <course>1.77</course>
  <speed>0.82</speed>
  <fix>3d</fix>
</trkpt>
<trkpt lat="33.8098173" lon="-118.3944336">
  <ele>-50.025</ele>
  <time>2026-09-02T22:08:32Z</time>
  <course>21.41</course>
  <speed>0.8005623023850174</speed>
  <fix>3d</fix>
</trkpt>
<trkpt lat="33.8098164" lon="-118.3944337">
  <ele>-48.81</ele>
  <time>2026-09-02T22:08:32Z</time>
  <course>1.69</course>
  <speed>0.81</speed>
  <fix>3d</fix>
</trkpt>
<trkpt lat="33.809818" lon="-118.3944336">
  <ele>-50.024</ele>
  <time>2026-09-02T22:08:32Z</time>
  <course>21.2</course>
  <speed>0.8005623023850174</speed>
  <fix>3d</fix>
</trkpt>
<trkpt lat="33.8098164" lon="-118.3944337">
  <ele>-48.81</ele>
  <time>2026-09-02T22:08:32Z</time>
  <course>1.69</course>
  <speed>0.81</speed>
  <fix>3d</fix>
</trkpt>
<trkpt lat="33.8098187" lon="-118.3944336">
  <ele>-50.022</ele>
  <time>2026-09-02T22:08:32Z</time>
  <course>20.98</course>
  <speed>0.8002499609497022</speed>
  <fix>3d</fix>
</trkpt>
<trkpt lat="33.8098179" lon="-118.3944337">
  <ele>-48.81</ele>
  <time>2026-09-02T22:08:32Z</time>
  <course>1.6</course>
  <speed>0.81</speed>
  <fix>3d</fix>
</trkpt>
<trkpt lat="33.8098195" lon="-118.3944336">
  <ele>-50.021</ele>
  <time>2026-09-02T22:08:32Z</time>
  <course>20.77</course>
  <speed>0.8002499609497022</speed>
  <fix>3d</fix>
</trkpt>
<trkpt lat="33.8098179" lon="-118.3944337">
  <ele>-48.81</ele>
  <time>2026-09-02T22:08:32Z</time>
  <course>1.6</course>
  <speed>0.81</speed>
  <fix>3d</fix>
</trkpt>
<trkpt lat="33.8098202" lon="-118.3944335">
  <ele>-50.019</ele>
  <time>2026-09-02T22:08:32Z</time>
  <course>20.56</course>
  <speed>0.8002499609497022</speed>
  <fix>3d</fix>
</trkpt>
<trkpt lat="33.8098193" lon="-118.3944336">
  <ele>-48.81</ele>
  <time>2026-09-02T22:08:32Z</time>
  <course>1.51</course>
  <speed>0.81</speed>
  <fix>3d</fix>
</trkpt>
<trkpt lat="33.8098209" lon="-118.3944335">
  <ele>-50.017</ele>
  <time>2026-09-02T22:08:32Z</time>
  <course>20.35</course>
  <speed>0.7902531240052139</speed>
  <fix>3d</fix>
</trkpt>
<trkpt lat="33.8098193" lon="-118.3944336">
  <ele>-48.81</ele>
  <time>2026-09-02T22:08:32Z</time>
  <course>1.51</course>
  <speed>0.81</speed>
  <fix>3d</fix>
</trkpt>
<trkpt lat="33.8098217" lon="-118.3944335">
  <ele>-50.015</ele>
  <time>2026-09-02T22:08:32Z</time>
  <course>20.13</course>
  <speed>0.8002499609497022</speed>
  <fix>3d</fix>
</trkpt>
<trkpt lat="33.8098208" lon="-118.3944336">
  <ele>-48.8</ele>
  <time>2026-09-02T22:08:32Z</time>
  <course>1.44</course>
  <speed>0.82</speed>
  <fix>3d</fix>
</trkpt>
<trkpt lat="33.8098224" lon="-118.3944335">
  <ele>-50.013</ele>
  <time>2026-09-02T22:08:32Z</time>
  <course>19.92</course>
  <speed>0.8002499609497022</speed>
  <fix>3d</fix>
</trkpt>
<trkpt lat="33.8098208" lon="-118.3944336">
  <ele>-48.8</ele>
  <time>2026-09-02T22:08:32Z</time>
  <course>1.44</course>
  <speed>0.82</speed>
  <fix>3d</fix>
</trkpt>
<trkpt lat="33.8098231" lon="-118.3944335">
  <ele>-50.012</ele>
  <time>2026-09-02T22:08:32Z</time>
  <course>19.7</course>
  <speed>0.8002499609497022</speed>
  <fix>3d</fix>
</trkpt>
<trkpt lat="33.8098223" lon="-118.3944335">
  <ele>-48.8</ele>
  <time>2026-09-02T22:08:32Z</time>
  <course>1.37</course>
  <speed>0.82</speed>
  <fix>3d</fix>
</trkpt>
<trkpt lat="33.8098239" lon="-118.3944334">
  <ele>-50.012</ele>
  <time>2026-09-02T22:08:32Z</time>
  <course>19.49</course>
  <speed>0.8002499609497022</speed>
  <fix>3d</fix>
</trkpt>
<trkpt lat="33.8098223" lon="-118.3944335">
  <ele>-48.8</ele>
  <time>2026-09-02T22:08:32Z</time>
  <course>1.37</course>
  <speed>0.82</speed>
  <fix>3d</fix>
</trkpt>
<trkpt lat="33.8098246" lon="-118.3944334">
  <ele>-50.014</ele>
  <time>2026-09-02T22:08:32Z</time>
  <course>19.28</course>
  <speed>0.8002499609497022</speed>
  <fix>3d</fix>
</trkpt>
<trkpt lat="33.8098237" lon="-118.3944335">
  <ele>-48.8</ele>
  <time>2026-09-02T22:08:32Z</time>
  <course>1.29</course>
  <speed>0.82</speed>
  <fix>3d</fix>
</trkpt>
<trkpt lat="33.8098253" lon="-118.3944334">
  <ele>-50.017</ele>
  <time>2026-09-02T22:08:32Z</time>
  <course>19.06</course>
  <speed>0.7902531240052139</speed>
  <fix>3d</fix>
</trkpt>
<trkpt lat="33.8098237" lon="-118.3944335">
  <ele>-48.8</ele>
  <time>2026-09-02T22:08:32Z</time>
  <course>1.29</course>
  <speed>0.82</speed>
  <fix>3d</fix>
</trkpt>
<trkpt lat="33.809826" lon="-118.3944334">
  <ele>-50.019</ele>
  <time>2026-09-02T22:08:32Z</time>
  <course>18.86</course>
  <speed>0.8002499609497022</speed>
  <fix>3d</fix>
</trkpt>
<trkpt lat="33.8098252" lon="-118.3944334">
  <ele>-48.81</ele>
  <time>2026-09-02T22:08:32Z</time>
  <course>1.19</course>
  <speed>0.82</speed>
  <fix>3d</fix>
</trkpt>
<trkpt lat="33.8098268" lon="-118.3944334">
  <ele>-50.021</ele>
  <time>2026-09-02T22:08:32Z</time>
  <course>18.65</course>
  <speed>0.8002499609497022</speed>
  <fix>3d</fix>
</trkpt>
<trkpt lat="33.8098252" lon="-118.3944334">
  <ele>-48.81</ele>
  <time>2026-09-02T22:08:32Z</time>
  <course>1.19</course>
  <speed>0.82</speed>
  <fix>3d</fix>
</trkpt>
<trkpt lat="33.8098275" lon="-118.3944333">
  <ele>-50.022</ele>
  <time>2026-09-02T22:08:32Z</time>
  <course>18.43</course>
  <speed>0.8002499609497022</speed>
  <fix>3d</fix>
</trkpt>
<trkpt lat="33.8098267" lon="-118.3944334">
  <ele>-48.81</ele>
  <time>2026-09-02T22:08:32Z</time>
  <course>1.09</course>
  <speed>0.82</speed>
  <fix>3d</fix>
</trkpt>
<trkpt lat="33.8098282" lon="-118.3944333">
  <ele>-50.022</ele>
  <time>2026-09-02T22:08:32Z</time>
  <course>18.21</course>
  <speed>0.8002499609497022</speed>
  <fix>3d</fix>
</trkpt>
<trkpt lat="33.8098267" lon="-118.3944334">
  <ele>-48.81</ele>
  <time>2026-09-02T22:08:32Z</time>
  <course>1.09</course>
  <speed>0.82</speed>
  <fix>3d</fix>
</trkpt>
<trkpt lat="33.809829" lon="-118.3944333">
  <ele>-50.022</ele>
  <time>2026-09-02T22:08:32Z</time>
  <course>18.0</course>
  <speed>0.8002499609497022</speed>
  <fix>3d</fix>
</trkpt>
<trkpt lat="33.8098282" lon="-118.3944334">
  <ele>-48.81</ele>
  <time>2026-09-02T22:08:32Z</time>
  <course>0.99</course>
  <speed>0.82</speed>
  <fix>3d</fix>
</trkpt>
<trkpt lat="33.8098297" lon="-118.3944333">
  <ele>-50.022</ele>
  <time>2026-09-02T22:08:32Z</time>
  <course>17.8</course>
  <speed>0.7902531240052139</speed>
  <fix>3d</fix>
</trkpt>
<trkpt lat="33.8098282" lon="-118.3944334">
  <ele>-48.81</ele>
  <time>2026-09-02T22:08:32Z</time>
  <course>0.99</course>
  <speed>0.82</speed>
  <fix>3d</fix>
</trkpt>
<trkpt lat="33.8098305" lon="-118.3944333">
  <ele>-50.021</ele>
  <time>2026-09-02T22:08:32Z</time>
  <course>17.61</course>
  <speed>0.8002499609497022</speed>
  <fix>3d</fix>
</trkpt>
<trkpt lat="33.8098297" lon="-118.3944333">
  <ele>-48.81</ele>
  <time>2026-09-02T22:08:32Z</time>
  <course>0.92</course>
  <speed>0.82</speed>
  <fix>3d</fix>
</trkpt>
<trkpt lat="33.8098312" lon="-118.3944333">
  <ele>-50.02</ele>
  <time>2026-09-02T22:08:32Z</time>
  <course>17.43</course>
  <speed>0.7902531240052139</speed>
  <fix>3d</fix>
</trkpt>
<trkpt lat="33.8098297" lon="-118.3944333">
  <ele>-48.81</ele>
  <time>2026-09-02T22:08:32Z</time>
  <course>0.92</course>
  <speed>0.82</speed>
  <fix>3d</fix>
</trkpt>
<trkpt lat="33.8098319" lon="-118.3944333">
  <ele>-50.019</ele>
  <time>2026-09-02T22:08:32Z</time>
  <course>17.25</course>
  <speed>0.8002499609497022</speed>
  <fix>3d</fix>
</trkpt>
<trkpt lat="33.8098312" lon="-118.3944333">
  <ele>-48.81</ele>
  <time>2026-09-02T22:08:32Z</time>
  <course>0.87</course>
  <speed>0.82</speed>
  <fix>3d</fix>
</trkpt>
<trkpt lat="33.8098327" lon="-118.3944332">
  <ele>-50.019</ele>
  <time>2026-09-02T22:08:32Z</time>
  <course>17.06</course>
  <speed>0.7902531240052139</speed>
  <fix>3d</fix>
</trkpt>
<trkpt lat="33.8098312" lon="-118.3944333">
  <ele>-48.81</ele>
  <time>2026-09-02T22:08:32Z</time>
  <course>0.87</course>
  <speed>0.82</speed>
  <fix>3d</fix>
</trkpt>
<trkpt lat="33.8098334" lon="-118.3944332">
  <ele>-50.019</ele>
  <time>2026-09-02T22:08:32Z</time>
  <course>16.88</course>
  <speed>0.7902531240052139</speed>
  <fix>3d</fix>
</trkpt>
<trkpt lat="33.8098327" lon="-118.3944333">
  <ele>-48.81</ele>
  <time>2026-09-02T22:08:32Z</time>
  <course>0.79</course>
  <speed>0.83</speed>
  <fix>3d</fix>
</trkpt>
<trkpt lat="33.8098342" lon="-118.3944332">
  <ele>-50.021</ele>
  <time>2026-09-02T22:08:32Z</time>
  <course>16.7</course>
  <speed>0.7902531240052139</speed>
  <fix>3d</fix>
</trkpt>
<trkpt lat="33.8098327" lon="-118.3944333">
  <ele>-48.81</ele>
  <time>2026-09-02T22:08:32Z</time>
  <course>0.79</course>
  <speed>0.83</speed>
  <fix>3d</fix>
</trkpt>
<trkpt lat="33.8098349" lon="-118.3944332">
  <ele>-50.021</ele>
  <time>2026-09-02T22:08:32Z</time>
  <course>16.54</course>
  <speed>0.7902531240052139</speed>
  <fix>3d</fix>
</trkpt>
<trkpt lat="33.8098342" lon="-118.3944333">
  <ele>-48.81</ele>
  <time>2026-09-02T22:08:32Z</time>
  <course>0.75</course>
  <speed>0.83</speed>
  <fix>3d</fix>
</trkpt>
<trkpt lat="33.8098356" lon="-118.3944332">
  <ele>-50.021</ele>
  <time>2026-09-02T22:08:32Z</time>
  <course>16.38</course>
  <speed>0.7902531240052139</speed>
  <fix>3d</fix>
</trkpt>
<trkpt lat="33.8098342" lon="-118.3944333">
  <ele>-48.81</ele>
  <time>2026-09-02T22:08:32Z</time>
  <course>0.75</course>
  <speed>0.83</speed>
  <fix>3d</fix>
</trkpt>
<trkpt lat="33.8098364" lon="-118.3944332">
  <ele>-50.02</ele>
  <time>2026-09-02T22:08:32Z</time>
  <course>16.24</course>
  <speed>0.7902531240052139</speed>
  <fix>3d</fix>
</trkpt>
<trkpt lat="33.8098357" lon="-118.3944332">
  <ele>-48.81</ele>
  <time>2026-09-02T22:08:32Z</time>
  <course>0.75</course>
  <speed>0.83</speed>
  <fix>3d</fix>
</trkpt>
<trkpt lat="33.8098371" lon="-118.3944332">
  <ele>-50.018</ele>
  <time>2026-09-02T22:08:32Z</time>
  <course>16.09</course>
  <speed>0.7902531240052139</speed>
  <fix>3d</fix>
</trkpt>
<trkpt lat="33.8098357" lon="-118.3944332">
  <ele>-48.81</ele>
  <time>2026-09-02T22:08:32Z</time>
  <course>0.75</course>
  <speed>0.83</speed>
  <fix>3d</fix>
</trkpt>
<trkpt lat="33.8098379" lon="-118.3944331">
  <ele>-50.017</ele>
  <time>2026-09-02T22:08:32Z</time>
  <course>15.92</course>
  <speed>0.8002499609497022</speed>
  <fix>3d</fix>
</trkpt>
<trkpt lat="33.8098371" lon="-118.3944332">
  <ele>-48.81</ele>
  <time>2026-09-02T22:08:32Z</time>
  <course>0.72</course>
  <speed>0.83</speed>
  <fix>3d</fix>
</trkpt>
<trkpt lat="33.8098386" lon="-118.3944331">
  <ele>-50.017</ele>
  <time>2026-09-02T22:08:32Z</time>
  <course>15.75</course>
  <speed>0.8002499609497022</speed>
  <fix>3d</fix>
</trkpt>
<trkpt lat="33.8098371" lon="-118.3944332">
  <ele>-48.81</ele>
  <time>2026-09-02T22:08:32Z</time>
  <course>0.72</course>
  <speed>0.83</speed>
  <fix>3d</fix>
</trkpt>
<trkpt lat="33.8098394" lon="-118.3944331">
  <ele>-50.017</ele>
  <time>2026-09-02T22:08:32Z</time>
  <course>15.57</course>
  <speed>0.8002499609497022</speed>
  <fix>3d</fix>
</trkpt>
<trkpt lat="33.8098386" lon="-118.3944332">
  <ele>-48.81</ele>
  <time>2026-09-02T22:08:32Z</time>
  <course>0.66</course>
  <speed>0.83</speed>
  <fix>3d</fix>
</trkpt>
<trkpt lat="33.8098401" lon="-118.3944331">
  <ele>-50.018</ele>
  <time>2026-09-02T22:08:32Z</time>
  <course>15.39</course>
  <speed>0.8002499609497022</speed>
  <fix>3d</fix>
</trkpt>
<trkpt lat="33.8098386" lon="-118.3944332">
  <ele>-48.81</ele>
  <time>2026-09-02T22:08:32Z</time>
  <course>0.66</course>
  <speed>0.83</speed>
  <fix>3d</fix>
</trkpt>
<trkpt lat="33.8098409" lon="-118.3944331">
  <ele>-50.019</ele>
  <time>2026-09-02T22:08:32Z</time>
  <course>15.22</course>
  <speed>0.8002499609497022</speed>
  <fix>3d</fix>
</trkpt>
<trkpt lat="33.8098401" lon="-118.3944332">
  <ele>-48.81</ele>
  <time>2026-09-02T22:08:32Z</time>
  <course>0.61</course>
  <speed>0.83</speed>
  <fix>3d</fix>
</trkpt>
<trkpt lat="33.8098416" lon="-118.3944331">
  <ele>-50.02</ele>
  <time>2026-09-02T22:08:32Z</time>
  <course>15.06</course>
  <speed>0.8002499609497022</speed>
  <fix>3d</fix>
</trkpt>
<trkpt lat="33.8098401" lon="-118.3944332">
  <ele>-48.81</ele>
  <time>2026-09-02T22:08:32Z</time>
  <course>0.61</course>
  <speed>0.83</speed>
  <fix>3d</fix>
</trkpt>
<trkpt lat="33.8098423" lon="-118.3944331">
  <ele>-50.021</ele>
  <time>2026-09-02T22:08:32Z</time>
  <course>14.91</course>
  <speed>0.8002499609497022</speed>
  <fix>3d</fix>
</trkpt>
<trkpt lat="33.8098416" lon="-118.3944332">
  <ele>-48.81</ele>
  <time>2026-09-02T22:08:32Z</time>
  <course>0.59</course>
  <speed>0.83</speed>
  <fix>3d</fix>
</trkpt>
<trkpt lat="33.8098431" lon="-118.3944331">
  <ele>-50.022</ele>
  <time>2026-09-02T22:08:32Z</time>
  <course>14.76</course>
  <speed>0.8002499609497022</speed>
  <fix>3d</fix>
</trkpt>
<trkpt lat="33.8098416" lon="-118.3944332">
  <ele>-48.81</ele>
  <time>2026-09-02T22:08:32Z</time>
  <course>0.59</course>
  <speed>0.83</speed>
  <fix>3d</fix>
</trkpt>
<trkpt lat="33.8098438" lon="-118.3944331">
  <ele>-50.022</ele>
  <time>2026-09-02T22:08:32Z</time>
  <course>14.62</course>
  <speed>0.8002499609497022</speed>
  <fix>3d</fix>
</trkpt>
<trkpt lat="33.8098432" lon="-118.3944331">
  <ele>-48.81</ele>
  <time>2026-09-02T22:08:32Z</time>
  <course>0.62</course>
  <speed>0.84</speed>
  <fix>3d</fix>
</trkpt>
<trkpt lat="33.8098446" lon="-118.394433">
  <ele>-50.022</ele>
  <time>2026-09-02T22:08:32Z</time>
  <course>14.48</course>
  <speed>0.8002499609497022</speed>
  <fix>3d</fix>
</trkpt>
<trkpt lat="33.8098432" lon="-118.3944331">
  <ele>-48.81</ele>
  <time>2026-09-02T22:08:32Z</time>
  <course>0.62</course>
  <speed>0.84</speed>
  <fix>3d</fix>
</trkpt>
<trkpt lat="33.8098453" lon="-118.394433">
  <ele>-50.021</ele>
  <time>2026-09-02T22:08:32Z</time>
  <course>14.34</course>
  <speed>0.8002499609497022</speed>
  <fix>3d</fix>
</trkpt>
<trkpt lat="33.8098447" lon="-118.3944331">
  <ele>-48.81</ele>
  <time>2026-09-02T22:08:32Z</time>
  <course>0.62</course>
  <speed>0.84</speed>
  <fix>3d</fix>
</trkpt>
<trkpt lat="33.8098461" lon="-118.394433">
  <ele>-50.02</ele>
  <time>2026-09-02T22:08:32Z</time>
  <course>14.19</course>
  <speed>0.8002499609497022</speed>
  <fix>3d</fix>
</trkpt>
<trkpt lat="33.8098447" lon="-118.3944331">
  <ele>-48.81</ele>
  <time>2026-09-02T22:08:32Z</time>
  <course>0.62</course>
  <speed>0.84</speed>
  <fix>3d</fix>
</trkpt>
<trkpt lat="33.8098469" lon="-118.394433">
  <ele>-50.019</ele>
  <time>2026-09-02T22:08:32Z</time>
  <course>14.03</course>
  <speed>0.8002499609497022</speed>
  <fix>3d</fix>
</trkpt>
<trkpt lat="33.8098462" lon="-118.3944331">
  <ele>-48.81</ele>
  <time>2026-09-02T22:08:32Z</time>
  <course>0.59</course>
  <speed>0.84</speed>
  <fix>3d</fix>
</trkpt>
<trkpt lat="33.8098476" lon="-118.394433">
  <ele>-50.018</ele>
  <time>2026-09-02T22:08:32Z</time>
  <course>13.88</course>
  <speed>0.8002499609497022</speed>
  <fix>3d</fix>
</trkpt>
<trkpt lat="33.8098462" lon="-118.3944331">
  <ele>-48.81</ele>
  <time>2026-09-02T22:08:32Z</time>
  <course>0.59</course>
  <speed>0.84</speed>
  <fix>3d</fix>
</trkpt>
<trkpt lat="33.8098484" lon="-118.394433">
  <ele>-50.018</ele>
  <time>2026-09-02T22:08:32Z</time>
  <course>13.73</course>
  <speed>0.8002499609497022</speed>
  <fix>3d</fix>
</trkpt>
<trkpt lat="33.8098477" lon="-118.3944331">
  <ele>-48.81</ele>
  <time>2026-09-02T22:08:32Z</time>
  <course>0.55</course>
  <speed>0.84</speed>
  <fix>3d</fix>
</trkpt>
<trkpt lat="33.8098491" lon="-118.394433">
  <ele>-50.019</ele>
  <time>2026-09-02T22:08:32Z</time>
  <course>13.59</course>
  <speed>0.8002499609497022</speed>
  <fix>3d</fix>
</trkpt>
<trkpt lat="33.8098477" lon="-118.3944331">
  <ele>-48.81</ele>
  <time>2026-09-02T22:08:32Z</time>
  <course>0.55</course>
  <speed>0.84</speed>
  <fix>3d</fix>
</trkpt>
<trkpt lat="33.8098499" lon="-118.394433">
  <ele>-50.021</ele>
  <time>2026-09-02T22:08:32Z</time>
  <course>13.45</course>
  <speed>0.8002499609497022</speed>
  <fix>3d</fix>
</trkpt>
<trkpt lat="33.8098492" lon="-118.3944331">
  <ele>-48.81</ele>
  <time>2026-09-02T22:08:32Z</time>
  <course>0.52</course>
  <speed>0.84</speed>
  <fix>3d</fix>
</trkpt>
<trkpt lat="33.8098507" lon="-118.394433">
  <ele>-50.022</ele>
  <time>2026-09-02T22:08:32Z</time>
  <course>13.31</course>
  <speed>0.8002499609497022</speed>
  <fix>3d</fix>
</trkpt>
<trkpt lat="33.8098492" lon="-118.3944331">
  <ele>-48.81</ele>
  <time>2026-09-02T22:08:32Z</time>
  <course>0.52</course>
  <speed>0.84</speed>
  <fix>3d</fix>
</trkpt>
<trkpt lat="33.8098514" lon="-118.3944329">
  <ele>-50.022</ele>
  <time>2026-09-02T22:08:32Z</time>
  <course>13.18</course>
  <speed>0.8102468759581859</speed>
  <fix>3d</fix>
</trkpt>
<trkpt lat="33.8098507" lon="-118.3944331">
  <ele>-48.81</ele>
  <time>2026-09-02T22:08:32Z</time>
  <course>0.54</course>
  <speed>0.84</speed>
  <fix>3d</fix>
</trkpt>
<trkpt lat="33.8098522" lon="-118.3944329">
  <ele>-50.021</ele>
  <time>2026-09-02T22:08:32Z</time>
  <course>13.06</course>
  <speed>0.8102468759581859</speed>
  <fix>3d</fix>
</trkpt>
<trkpt lat="33.8098507" lon="-118.3944331">
  <ele>-48.81</ele>
  <time>2026-09-02T22:08:32Z</time>
  <course>0.54</course>
  <speed>0.84</speed>
  <fix>3d</fix>
</trkpt>
<trkpt lat="33.8098529" lon="-118.3944329">
  <ele>-50.021</ele>
  <time>2026-09-02T22:08:32Z</time>
  <course>12.95</course>
  <speed>0.8102468759581859</speed>
  <fix>3d</fix>
</trkpt>
<trkpt lat="33.8098523" lon="-118.394433">
  <ele>-48.81</ele>
  <time>2026-09-02T22:08:32Z</time>
  <course>0.59</course>
  <speed>0.84</speed>
  <fix>3d</fix>
</trkpt>
<trkpt lat="33.8098537" lon="-118.3944329">
  <ele>-50.02</ele>
  <time>2026-09-02T22:08:32Z</time>
  <course>12.82</course>
  <speed>0.8102468759581859</speed>
  <fix>3d</fix>
</trkpt>
<trkpt lat="33.8098523" lon="-118.394433">
  <ele>-48.81</ele>
  <time>2026-09-02T22:08:32Z</time>
  <course>0.59</course>
  <speed>0.84</speed>
  <fix>3d</fix>
</trkpt>
<trkpt lat="33.8098545" lon="-118.3944329">
  <ele>-50.02</ele>
  <time>2026-09-02T22:08:32Z</time>
  <course>12.68</course>
  <speed>0.8102468759581859</speed>
  <fix>3d</fix>
</trkpt>
<trkpt lat="33.8098538" lon="-118.394433">
  <ele>-48.81</ele>
  <time>2026-09-02T22:08:32Z</time>
  <course>0.59</course>
  <speed>0.84</speed>
  <fix>3d</fix>
</trkpt>
<trkpt lat="33.8098552" lon="-118.3944329">
  <ele>-50.021</ele>
  <time>2026-09-02T22:08:32Z</time>
  <course>12.54</course>
  <speed>0.8102468759581859</speed>
  <fix>3d</fix>
</trkpt>
<trkpt lat="33.8098538" lon="-118.394433">
  <ele>-48.81</ele>
  <time>2026-09-02T22:08:32Z</time>
  <course>0.59</course>
  <speed>0.84</speed>
  <fix>3d</fix>
</trkpt>
<trkpt lat="33.809856" lon="-118.3944329">
  <ele>-50.021</ele>
  <time>2026-09-02T22:08:32Z</time>
  <course>12.4</course>
  <speed>0.8102468759581859</speed>
  <fix>3d</fix>
</trkpt>
<trkpt lat="33.8098553" lon="-118.394433">
  <ele>-48.8</ele>
  <time>2026-09-02T22:08:32Z</time>
  <course>0.55</course>
  <speed>0.84</speed>
  <fix>3d</fix>
</trkpt>
<trkpt lat="33.8098568" lon="-118.3944329">
  <ele>-50.02</ele>
  <time>2026-09-02T22:08:32Z</time>
  <course>12.25</course>
  <speed>0.8102468759581859</speed>
  <fix>3d</fix>
</trkpt>
<trkpt lat="33.8098553" lon="-118.394433">
  <ele>-48.8</ele>
  <time>2026-09-02T22:08:32Z</time>
  <course>0.55</course>
  <speed>0.84</speed>
  <fix>3d</fix>
</trkpt>
<trkpt lat="33.8098575" lon="-118.3944329">
  <ele>-50.018</ele>
  <time>2026-09-02T22:08:32Z</time>
  <course>12.1</course>
  <speed>0.8102468759581859</speed>
  <fix>3d</fix>
</trkpt>
<trkpt lat="33.8098568" lon="-118.394433">
  <ele>-48.8</ele>
  <time>2026-09-02T22:08:32Z</time>
  <course>0.52</course>
  <speed>0.85</speed>
  <fix>3d</fix>
</trkpt>
<trkpt lat="33.8098583" lon="-118.3944329">
  <ele>-50.017</ele>
  <time>2026-09-02T22:08:32Z</time>
  <course>11.96</course>
  <speed>0.8102468759581859</speed>
  <fix>3d</fix>
</trkpt>
<trkpt lat="33.8098568" lon="-118.394433">
  <ele>-48.8</ele>
  <time>2026-09-02T22:08:32Z</time>
  <course>0.52</course>
  <speed>0.85</speed>
  <fix>3d</fix>
</trkpt>
<trkpt lat="33.809859" lon="-118.3944328">
  <ele>-50.018</ele>
  <time>2026-09-02T22:08:32Z</time>
  <course>11.82</course>
  <speed>0.8102468759581859</speed>
  <fix>3d</fix>
</trkpt>
<trkpt lat="33.8098583" lon="-118.394433">
  <ele>-48.8</ele>
  <time>2026-09-02T22:08:32Z</time>
  <course>0.5</course>
  <speed>0.85</speed>
  <fix>3d</fix>
</trkpt>
<trkpt lat="33.8098598" lon="-118.3944328">
  <ele>-50.018</ele>
  <time>2026-09-02T22:08:32Z</time>
  <course>11.69</course>
  <speed>0.8102468759581859</speed>
  <fix>3d</fix>
</trkpt>
<trkpt lat="33.8098583" lon="-118.394433">
  <ele>-48.8</ele>
  <time>2026-09-02T22:08:32Z</time>
  <course>0.5</course>
  <speed>0.85</speed>
  <fix>3d</fix>
</trkpt>
<trkpt lat="33.8098606" lon="-118.3944328">
  <ele>-50.018</ele>
  <time>2026-09-02T22:08:32Z</time>
  <course>11.56</course>
  <speed>0.8202438661763951</speed>
  <fix>3d</fix>
</trkpt>
<trkpt lat="33.8098599" lon="-118.394433">
  <ele>-48.8</ele>
  <time>2026-09-02T22:08:32Z</time>
  <course>0.51</course>
  <speed>0.85</speed>
  <fix>3d</fix>
</trkpt>
<trkpt lat="33.8098614" lon="-118.3944328">
  <ele>-50.018</ele>
  <time>2026-09-02T22:08:32Z</time>
  <course>11.44</course>
  <speed>0.8202438661763951</speed>
  <fix>3d</fix>
</trkpt>
<trkpt lat="33.8098599" lon="-118.394433">
  <ele>-48.8</ele>
  <time>2026-09-02T22:08:32Z</time>
  <course>0.51</course>
  <speed>0.85</speed>
  <fix>3d</fix>
</trkpt>
<trkpt lat="33.8098621" lon="-118.3944328">
  <ele>-50.019</ele>
  <time>2026-09-02T22:08:32Z</time>
  <course>11.33</course>
  <speed>0.8202438661763951</speed>
  <fix>3d</fix>
</trkpt>
<trkpt lat="33.8098614" lon="-118.3944329">
  <ele>-48.8</ele>
  <time>2026-09-02T22:08:32Z</time>
  <course>0.55</course>
  <speed>0.85</speed>
  <fix>3d</fix>
</trkpt>
<trkpt lat="33.8098629" lon="-118.3944328">
  <ele>-50.018</ele>
  <time>2026-09-02T22:08:32Z</time>
  <course>11.21</course>
  <speed>0.8202438661763951</speed>
  <fix>3d</fix>
</trkpt>
<trkpt lat="33.8098614" lon="-118.3944329">
  <ele>-48.8</ele>
  <time>2026-09-02T22:08:32Z</time>
  <course>0.55</course>
  <speed>0.85</speed>
  <fix>3d</fix>
</trkpt>
<trkpt lat="33.8098637" lon="-118.3944328">
  <ele>-50.018</ele>
  <time>2026-09-02T22:08:32Z</time>
  <course>11.08</course>
  <speed>0.8202438661763951</speed>
  <fix>3d</fix>
</trkpt>
<trkpt lat="33.8098629" lon="-118.3944329">
  <ele>-48.8</ele>
  <time>2026-09-02T22:08:32Z</time>
  <course>0.56</course>
  <speed>0.85</speed>
  <fix>3d</fix>
</trkpt>
<trkpt lat="33.8098644" lon="-118.3944328">
  <ele>-50.017</ele>
  <time>2026-09-02T22:08:32Z</time>
  <course>10.93</course>
  <speed>0.8202438661763951</speed>
  <fix>3d</fix>
</trkpt>
<trkpt lat="33.8098629" lon="-118.3944329">
  <ele>-48.8</ele>
  <time>2026-09-02T22:08:32Z</time>
  <course>0.56</course>
  <speed>0.85</speed>
  <fix>3d</fix>
</trkpt>
<trkpt lat="33.8098652" lon="-118.3944328">
  <ele>-50.015</ele>
  <time>2026-09-02T22:08:32Z</time>
  <course>10.78</course>
  <speed>0.8202438661763951</speed>
  <fix>3d</fix>
</trkpt>
<trkpt lat="33.8098645" lon="-118.3944329">
  <ele>-48.8</ele>
  <time>2026-09-02T22:08:32Z</time>
  <course>0.51</course>
  <speed>0.86</speed>
  <fix>3d</fix>
</trkpt>
<trkpt lat="33.809866" lon="-118.3944328">
  <ele>-50.016</ele>
  <time>2026-09-02T22:08:32Z</time>
  <course>10.63</course>
  <speed>0.8202438661763951</speed>
  <fix>3d</fix>
</trkpt>
<trkpt lat="33.8098645" lon="-118.3944329">
  <ele>-48.8</ele>
  <time>2026-09-02T22:08:32Z</time>
  <course>0.51</course>
  <speed>0.86</speed>
  <fix>3d</fix>
</trkpt>
<trkpt lat="33.8098668" lon="-118.3944328">
  <ele>-50.017</ele>
  <time>2026-09-02T22:08:32Z</time>
  <course>10.49</course>
  <speed>0.8202438661763951</speed>
  <fix>3d</fix>
</trkpt>
<trkpt lat="33.809866" lon="-118.3944329">
  <ele>-48.8</ele>
  <time>2026-09-02T22:08:32Z</time>
  <course>0.48</course>
  <speed>0.86</speed>
  <fix>3d</fix>
</trkpt>
<trkpt lat="33.8098675" lon="-118.3944327">
  <ele>-50.018</ele>
  <time>2026-09-02T22:08:32Z</time>
  <course>10.36</course>
  <speed>0.8302409288875127</speed>
  <fix>3d</fix>
</trkpt>
<trkpt lat="33.809866" lon="-118.3944329">
  <ele>-48.8</ele>
  <time>2026-09-02T22:08:32Z</time>
  <course>0.48</course>
  <speed>0.86</speed>
  <fix>3d</fix>
</trkpt>
<trkpt lat="33.8098683" lon="-118.3944327">
  <ele>-50.02</ele>
  <time>2026-09-02T22:08:32Z</time>
  <course>10.23</course>
  <speed>0.8302409288875127</speed>
  <fix>3d</fix>
</trkpt>
<trkpt lat="33.8098676" lon="-118.3944329">
  <ele>-48.81</ele>
  <time>2026-09-02T22:08:32Z</time>
  <course>0.46</course>
  <speed>0.86</speed>
  <fix>3d</fix>
</trkpt>
<trkpt lat="33.8098691" lon="-118.3944327">
  <ele>-50.021</ele>
  <time>2026-09-02T22:08:32Z</time>
  <course>10.11</course>
  <speed>0.8302409288875127</speed>
  <fix>3d</fix>
</trkpt>
<trkpt lat="33.8098676" lon="-118.3944329">
  <ele>-48.81</ele>
  <time>2026-09-02T22:08:32Z</time>
  <course>0.46</course>
  <speed>0.86</speed>
  <fix>3d</fix>
</trkpt>
<trkpt lat="33.8098699" lon="-118.3944327">
  <ele>-50.022</ele>
  <time>2026-09-02T22:08:32Z</time>
  <course>9.99</course>
  <speed>0.8302409288875127</speed>
  <fix>3d</fix>
</trkpt>
<trkpt lat="33.8098691" lon="-118.3944329">
  <ele>-48.81</ele>
  <time>2026-09-02T22:08:32Z</time>
  <course>0.47</course>
  <speed>0.86</speed>
  <fix>3d</fix>
</trkpt>
<trkpt lat="33.8098707" lon="-118.3944327">
  <ele>-50.022</ele>
  <time>2026-09-02T22:08:32Z</time>
  <course>9.88</course>
  <speed>0.8302409288875127</speed>
  <fix>3d</fix>
</trkpt>
<trkpt lat="33.8098691" lon="-118.3944329">
  <ele>-48.81</ele>
  <time>2026-09-02T22:08:32Z</time>
  <course>0.47</course>
  <speed>0.86</speed>
  <fix>3d</fix>
</trkpt>
<trkpt lat="33.8098714" lon="-118.3944327">
  <ele>-50.022</ele>
  <time>2026-09-02T22:08:32Z</time>
  <course>9.78</course>
  <speed>0.8302409288875127</speed>
  <fix>3d</fix>
</trkpt>
<trkpt lat="33.8098708" lon="-118.3944328">
  <ele>-48.81</ele>
  <time>2026-09-02T22:08:32Z</time>
  <course>0.5</course>
  <speed>0.87</speed>
  <fix>3d</fix>
</trkpt>
<trkpt lat="33.8098722" lon="-118.3944327">
  <ele>-50.021</ele>
  <time>2026-09-02T22:08:32Z</time>
  <course>9.67</course>
  <speed>0.8302409288875127</speed>
  <fix>3d</fix>
</trkpt>
<trkpt lat="33.8098708" lon="-118.3944328">
  <ele>-48.81</ele>
  <time>2026-09-02T22:08:32Z</time>
  <course>0.5</course>
  <speed>0.87</speed>
  <fix>3d</fix>
</trkpt>
<trkpt lat="33.809873" lon="-118.3944327">
  <ele>-50.019</ele>
  <time>2026-09-02T22:08:32Z</time>
  <course>9.56</course>
  <speed>0.8302409288875127</speed>
  <fix>3d</fix>
</trkpt>
<trkpt lat="33.8098723" lon="-118.3944328">
  <ele>-48.81</ele>
  <time>2026-09-02T22:08:32Z</time>
  <course>0.48</course>
  <speed>0.87</speed>
  <fix>3d</fix>
</trkpt>
<trkpt lat="33.8098738" lon="-118.3944327">
  <ele>-50.017</ele>
  <time>2026-09-02T22:08:32Z</time>
  <course>9.44</course>
  <speed>0.8302409288875127</speed>
  <fix>3d</fix>
</trkpt>
<trkpt lat="33.8098723" lon="-118.3944328">
  <ele>-48.81</ele>
  <time>2026-09-02T22:08:32Z</time>
  <course>0.48</course>
  <speed>0.87</speed>
  <fix>3d</fix>
</trkpt>
<trkpt lat="33.8098746" lon="-118.3944327">
  <ele>-50.016</ele>
  <time>2026-09-02T22:08:32Z</time>
  <course>9.31</course>
  <speed>0.8302409288875127</speed>
  <fix>3d</fix>
</trkpt>
<trkpt lat="33.8098739" lon="-118.3944328">
  <ele>-48.81</ele>
  <time>2026-09-02T22:08:32Z</time>
  <course>0.43</course>
  <speed>0.87</speed>
  <fix>3d</fix>
</trkpt>
<trkpt lat="33.8098754" lon="-118.3944327">
  <ele>-50.016</ele>
  <time>2026-09-02T22:08:32Z</time>
  <course>9.18</course>
  <speed>0.8302409288875127</speed>
  <fix>3d</fix>
</trkpt>
<trkpt lat="33.8098739" lon="-118.3944328">
  <ele>-48.81</ele>
  <time>2026-09-02T22:08:32Z</time>
  <course>0.43</course>
  <speed>0.87</speed>
  <fix>3d</fix>
</trkpt>
<trkpt lat="33.8098762" lon="-118.3944327">
  <ele>-50.017</ele>
  <time>2026-09-02T22:08:32Z</time>
  <course>9.06</course>
  <speed>0.8302409288875127</speed>
  <fix>3d</fix>
</trkpt>
<trkpt lat="33.8098755" lon="-118.3944328">
  <ele>-48.81</ele>
  <time>2026-09-02T22:08:32Z</time>
  <course>0.38</course>
  <speed>0.87</speed>
  <fix>3d</fix>
</trkpt>
<trkpt lat="33.809877" lon="-118.3944326">
  <ele>-50.018</ele>
  <time>2026-09-02T22:08:32Z</time>
  <course>8.94</course>
  <speed>0.8302409288875127</speed>
  <fix>3d</fix>
</trkpt>
<trkpt lat="33.8098755" lon="-118.3944328">
  <ele>-48.81</ele>
  <time>2026-09-02T22:08:32Z</time>
  <course>0.38</course>
  <speed>0.87</speed>
  <fix>3d</fix>
</trkpt>
<trkpt lat="33.8098777" lon="-118.3944326">
  <ele>-50.019</ele>
  <time>2026-09-02T22:08:33Z</time>
  <course>8.84</course>
  <speed>0.8302409288875127</speed>
  <fix>3d</fix>
</trkpt>
<trkpt lat="33.809877" lon="-118.3944328">
  <ele>-48.81</ele>
  <time>2026-09-02T22:08:33Z</time>
  <course>0.38</course>
  <speed>0.87</speed>
  <fix>3d</fix>
</trkpt>
<trkpt lat="33.8098785" lon="-118.3944326">
  <ele>-50.019</ele>
  <time>2026-09-02T22:08:33Z</time>
  <course>8.73</course>
  <speed>0.8402380615040002</speed>
  <fix>3d</fix>
</trkpt>
<trkpt lat="33.809877" lon="-118.3944328">
  <ele>-48.81</ele>
  <time>2026-09-02T22:08:33Z</time>
  <course>0.38</course>
  <speed>0.87</speed>
  <fix>3d</fix>
</trkpt>
<trkpt lat="33.8098793" lon="-118.3944326">
  <ele>-50.018</ele>
  <time>2026-09-02T22:08:33Z</time>
  <course>8.63</course>
  <speed>0.8402380615040002</speed>
  <fix>3d</fix>
</trkpt>
<trkpt lat="33.8098786" lon="-118.3944328">
  <ele>-48.81</ele>
  <time>2026-09-02T22:08:33Z</time>
  <course>0.39</course>
  <speed>0.87</speed>
  <fix>3d</fix>
</trkpt>
<trkpt lat="33.8098801" lon="-118.3944326">
  <ele>-50.017</ele>
  <time>2026-09-02T22:08:33Z</time>
  <course>8.53</course>
  <speed>0.8402380615040002</speed>
  <fix>3d</fix>
</trkpt>
<trkpt lat="33.8098786" lon="-118.3944328">
  <ele>-48.81</ele>
  <time>2026-09-02T22:08:33Z</time>
  <course>0.39</course>
  <speed>0.87</speed>
  <fix>3d</fix>
</trkpt>
<trkpt lat="33.8098809" lon="-118.3944326">
  <ele>-50.016</ele>
  <time>2026-09-02T22:08:33Z</time>
  <course>8.44</course>
  <speed>0.8402380615040002</speed>
  <fix>3d</fix>
</trkpt>
<trkpt lat="33.8098801" lon="-118.3944328">
  <ele>-48.81</ele>
  <time>2026-09-02T22:08:33Z</time>
  <course>0.42</course>
  <speed>0.87</speed>
  <fix>3d</fix>
</trkpt>
<trkpt lat="33.8098817" lon="-118.3944326">
  <ele>-50.016</ele>
  <time>2026-09-02T22:08:33Z</time>
  <course>8.34</course>
  <speed>0.8402380615040002</speed>
  <fix>3d</fix>
</trkpt>
<trkpt lat="33.8098801" lon="-118.3944328">
  <ele>-48.81</ele>
  <time>2026-09-02T22:08:33Z</time>
  <course>0.42</course>
  <speed>0.87</speed>
  <fix>3d</fix>
</trkpt>
<trkpt lat="33.8098825" lon="-118.3944326">
  <ele>-50.017</ele>
  <time>2026-09-02T22:08:33Z</time>
  <course>8.26</course>
  <speed>0.8402380615040002</speed>
  <fix>3d</fix>
</trkpt>
<trkpt lat="33.8098817" lon="-118.3944327">
  <ele>-48.81</ele>
  <time>2026-09-02T22:08:33Z</time>
  <course>0.45</course>
  <speed>0.87</speed>
  <fix>3d</fix>
</trkpt>
<trkpt lat="33.8098833" lon="-118.3944326">
  <ele>-50.02</ele>
  <time>2026-09-02T22:08:33Z</time>
  <course>8.16</course>
  <speed>0.8402380615040002</speed>
  <fix>3d</fix>
</trkpt>
<trkpt lat="33.8098817" lon="-118.3944327">
  <ele>-48.81</ele>
  <time>2026-09-02T22:08:33Z</time>
  <course>0.45</course>
  <speed>0.87</speed>
  <fix>3d</fix>
</trkpt>
<trkpt lat="33.8098841" lon="-118.3944326">
  <ele>-50.023</ele>
  <time>2026-09-02T22:08:33Z</time>
  <course>8.04</course>
  <speed>0.8502352615599991</speed>
  <fix>3d</fix>
</trkpt>
<trkpt lat="33.8098832" lon="-118.3944327">
  <ele>-48.82</ele>
  <time>2026-09-02T22:08:33Z</time>
  <course>0.43</course>
  <speed>0.87</speed>
  <fix>3d</fix>
</trkpt>
<trkpt lat="33.8098849" lon="-118.3944326">
  <ele>-50.025</ele>
  <time>2026-09-02T22:08:33Z</time>
  <course>7.92</course>
  <speed>0.8502352615599991</speed>
  <fix>3d</fix>
</trkpt>
<trkpt lat="33.8098832" lon="-118.3944327">
  <ele>-48.82</ele>
  <time>2026-09-02T22:08:33Z</time>
  <course>0.43</course>
  <speed>0.87</speed>
  <fix>3d</fix>
</trkpt>
<trkpt lat="33.8098857" lon="-118.3944326">
  <ele>-50.027</ele>
  <time>2026-09-02T22:08:33Z</time>
  <course>7.79</course>
  <speed>0.8502352615599991</speed>
  <fix>3d</fix>
</trkpt>
<trkpt lat="33.8098849" lon="-118.3944327">
  <ele>-48.82</ele>
  <time>2026-09-02T22:08:33Z</time>
  <course>0.37</course>
  <speed>0.88</speed>
  <fix>3d</fix>
</trkpt>
<trkpt lat="33.8098865" lon="-118.3944326">
  <ele>-50.029</ele>
  <time>2026-09-02T22:08:33Z</time>
  <course>7.66</course>
  <speed>0.8502352615599991</speed>
  <fix>3d</fix>
</trkpt>
<trkpt lat="33.8098849" lon="-118.3944327">
  <ele>-48.82</ele>
  <time>2026-09-02T22:08:33Z</time>
  <course>0.37</course>
  <speed>0.88</speed>
  <fix>3d</fix>
</trkpt>
<trkpt lat="33.8098873" lon="-118.3944325">
  <ele>-50.029</ele>
  <time>2026-09-02T22:08:33Z</time>
  <course>7.54</course>
  <speed>0.8502352615599991</speed>
  <fix>3d</fix>
</trkpt>
<trkpt lat="33.8098865" lon="-118.3944327">
  <ele>-48.82</ele>
  <time>2026-09-02T22:08:33Z</time>
  <course>0.33</course>
  <speed>0.88</speed>
  <fix>3d</fix>
</trkpt>
<trkpt lat="33.8098881" lon="-118.3944325">
  <ele>-50.028</ele>
  <time>2026-09-02T22:08:33Z</time>
  <course>7.43</course>
  <speed>0.8502352615599991</speed>
  <fix>3d</fix>
</trkpt>
<trkpt lat="33.8098865" lon="-118.3944327">
  <ele>-48.82</ele>
  <time>2026-09-02T22:08:33Z</time>
  <course>0.33</course>
  <speed>0.88</speed>
  <fix>3d</fix>
</trkpt>
<trkpt lat="33.8098889" lon="-118.3944325">
  <ele>-50.026</ele>
  <time>2026-09-02T22:08:33Z</time>
  <course>7.32</course>
  <speed>0.8502352615599991</speed>
  <fix>3d</fix>
</trkpt>
<trkpt lat="33.809888" lon="-118.3944327">
  <ele>-48.82</ele>
  <time>2026-09-02T22:08:33Z</time>
  <course>0.31</course>
  <speed>0.88</speed>
  <fix>3d</fix>
</trkpt>
<trkpt lat="33.8098896" lon="-118.3944325">
  <ele>-50.025</ele>
  <time>2026-09-02T22:08:33Z</time>
  <course>7.23</course>
  <speed>0.8502352615599991</speed>
  <fix>3d</fix>
</trkpt>
<trkpt lat="33.809888" lon="-118.3944327">
  <ele>-48.82</ele>
  <time>2026-09-02T22:08:33Z</time>
  <course>0.31</course>
  <speed>0.88</speed>
  <fix>3d</fix>
</trkpt>
<trkpt lat="33.8098905" lon="-118.3944325">
  <ele>-50.023</ele>
  <time>2026-09-02T22:08:33Z</time>
  <course>7.14</course>
  <speed>0.8502352615599991</speed>
  <fix>3d</fix>
</trkpt>
<trkpt lat="33.8098897" lon="-118.3944327">
  <ele>-48.81</ele>
  <time>2026-09-02T22:08:33Z</time>
  <course>0.3</course>
  <speed>0.88</speed>
  <fix>3d</fix>
</trkpt>
<trkpt lat="33.8098913" lon="-118.3944325">
  <ele>-50.02</ele>
  <time>2026-09-02T22:08:33Z</time>
  <course>7.06</course>
  <speed>0.8502352615599991</speed>
  <fix>3d</fix>
</trkpt>
<trkpt lat="33.8098897" lon="-118.3944327">
  <ele>-48.81</ele>
  <time>2026-09-02T22:08:33Z</time>
  <course>0.3</course>
  <speed>0.88</speed>
  <fix>3d</fix>
</trkpt>
<trkpt lat="33.8098921" lon="-118.3944325">
  <ele>-50.019</ele>
  <time>2026-09-02T22:08:33Z</time>
  <course>6.98</course>
  <speed>0.8602325267042628</speed>
  <fix>3d</fix>
</trkpt>
<trkpt lat="33.8098913" lon="-118.3944327">
  <ele>-48.81</ele>
  <time>2026-09-02T22:08:33Z</time>
  <course>0.32</course>
  <speed>0.89</speed>
  <fix>3d</fix>
</trkpt>
<trkpt lat="33.8098929" lon="-118.3944325">
  <ele>-50.017</ele>
  <time>2026-09-02T22:08:33Z</time>
  <course>6.9</course>
  <speed>0.8602325267042628</speed>
  <fix>3d</fix>
</trkpt>
<trkpt lat="33.8098913" lon="-118.3944327">
  <ele>-48.81</ele>
  <time>2026-09-02T22:08:33Z</time>
  <course>0.32</course>
  <speed>0.89</speed>
  <fix>3d</fix>
</trkpt>
<trkpt lat="33.8098937" lon="-118.3944325">
  <ele>-50.016</ele>
  <time>2026-09-02T22:08:33Z</time>
  <course>6.83</course>
  <speed>0.8602325267042628</speed>
  <fix>3d</fix>
</trkpt>
<trkpt lat="33.8098928" lon="-118.3944327">
  <ele>-48.8</ele>
  <time>2026-09-02T22:08:33Z</time>
  <course>0.34</course>
  <speed>0.89</speed>
  <fix>3d</fix>
</trkpt>
<trkpt lat="33.8098945" lon="-118.3944325">
  <ele>-50.015</ele>
  <time>2026-09-02T22:08:33Z</time>
  <course>6.76</course>
  <speed>0.8602325267042628</speed>
  <fix>3d</fix>
</trkpt>
<trkpt lat="33.8098928" lon="-118.3944327">
  <ele>-48.8</ele>
  <time>2026-09-02T22:08:33Z</time>
  <course>0.34</course>
  <speed>0.89</speed>
  <fix>3d</fix>
</trkpt>
<trkpt lat="33.8098953" lon="-118.3944325">
  <ele>-50.016</ele>
  <time>2026-09-02T22:08:33Z</time>
  <course>6.7</course>
  <speed>0.8602325267042628</speed>
  <fix>3d</fix>
</trkpt>
<trkpt lat="33.8098945" lon="-118.3944326">
  <ele>-48.8</ele>
  <time>2026-09-02T22:08:33Z</time>
  <course>0.38</course>
  <speed>0.89</speed>
  <fix>3d</fix>
</trkpt>
<trkpt lat="33.8098961" lon="-118.3944325">
  <ele>-50.016</ele>
  <time>2026-09-02T22:08:33Z</time>
  <course>6.62</course>
  <speed>0.8602325267042628</speed>
  <fix>3d</fix>
</trkpt>
<trkpt lat="33.8098945" lon="-118.3944326">
  <ele>-48.8</ele>
  <time>2026-09-02T22:08:33Z</time>
  <course>0.38</course>
  <speed>0.89</speed>
  <fix>3d</fix>
</trkpt>
<trkpt lat="33.8098969" lon="-118.3944325">
  <ele>-50.017</ele>
  <time>2026-09-02T22:08:33Z</time>
  <course>6.53</course>
  <speed>0.8602325267042628</speed>
  <fix>3d</fix>
</trkpt>
<trkpt lat="33.8098961" lon="-118.3944325">
  <ele>-48.8</ele>
  <time>2026-09-02T22:08:33Z</time>
  <course>0.37</course>
  <speed>0.89</speed>
  <fix>3d</fix>
</trkpt>
<trkpt lat="33.8098977" lon="-118.3944325">
  <ele>-50.018</ele>
  <time>2026-09-02T22:08:33Z</time>
  <course>6.41</course>
  <speed>0.8602325267042628</speed>
  <fix>3d</fix>
</trkpt>
<trkpt lat="33.8098961" lon="-118.3944325">
  <ele>-48.8</ele>
  <time>2026-09-02T22:08:33Z</time>
  <course>0.37</course>
  <speed>0.89</speed>
  <fix>3d</fix>
</trkpt>
<trkpt lat="33.8098985" lon="-118.3944325">
  <ele>-50.019</ele>
  <time>2026-09-02T22:08:33Z</time>
  <course>6.28</course>
  <speed>0.8602325267042628</speed>
  <fix>3d</fix>
</trkpt>
<trkpt lat="33.8098976" lon="-118.3944325">
  <ele>-48.8</ele>
  <time>2026-09-02T22:08:33Z</time>
  <course>0.26</course>
  <speed>0.89</speed>
  <fix>3d</fix>
</trkpt>
<trkpt lat="33.8098993" lon="-118.3944324">
  <ele>-50.019</ele>
  <time>2026-09-02T22:08:33Z</time>
  <course>6.12</course>
  <speed>0.8602325267042628</speed>
  <fix>3d</fix>
</trkpt>
<trkpt lat="33.8098976" lon="-118.3944325">
  <ele>-48.8</ele>
  <time>2026-09-02T22:08:33Z</time>
  <course>0.26</course>
  <speed>0.89</speed>
  <fix>3d</fix>
</trkpt>
<trkpt lat="33.8099001" lon="-118.3944324">
  <ele>-50.02</ele>
  <time>2026-09-02T22:08:33Z</time>
  <course>5.97</course>
  <speed>0.8702298546935746</speed>
  <fix>3d</fix>
</trkpt>
<trkpt lat="33.8098993" lon="-118.3944325">
  <ele>-48.81</ele>
  <time>2026-09-02T22:08:33Z</time>
  <course>0.11</course>
  <speed>0.89</speed>
  <fix>3d</fix>
</trkpt>
<trkpt lat="33.8099009" lon="-118.3944324">
  <ele>-50.021</ele>
  <time>2026-09-02T22:08:33Z</time>
  <course>5.82</course>
  <speed>0.8702298546935746</speed>
  <fix>3d</fix>
</trkpt>
<trkpt lat="33.8098993" lon="-118.3944325">
  <ele>-48.81</ele>
  <time>2026-09-02T22:08:33Z</time>
  <course>0.11</course>
  <speed>0.89</speed>
  <fix>3d</fix>
</trkpt>
<trkpt lat="33.8099017" lon="-118.3944324">
  <ele>-50.022</ele>
  <time>2026-09-02T22:08:33Z</time>
  <course>5.69</course>
  <speed>0.8700574693662483</speed>
  <fix>3d</fix>
</trkpt>
<trkpt lat="33.8099009" lon="-118.3944325">
  <ele>-48.81</ele>
  <time>2026-09-02T22:08:33Z</time>
  <course>359.99</course>
  <speed>0.9</speed>
  <fix>3d</fix>
</trkpt>
<trkpt lat="33.8099026" lon="-118.3944324">
  <ele>-50.023</ele>
  <time>2026-09-02T22:08:33Z</time>
  <course>5.57</course>
  <speed>0.8700574693662483</speed>
  <fix>3d</fix>
</trkpt>
<trkpt lat="33.8099009" lon="-118.3944325">
  <ele>-48.81</ele>
  <time>2026-09-02T22:08:33Z</time>
  <course>359.99</course>
  <speed>0.9</speed>
  <fix>3d</fix>
</trkpt>
<trkpt lat="33.8099034" lon="-118.3944324">
  <ele>-50.022</ele>
  <time>2026-09-02T22:08:33Z</time>
  <course>5.45</course>
  <speed>0.8700574693662483</speed>
  <fix>3d</fix>
</trkpt>
<trkpt lat="33.8099025" lon="-118.3944325">
  <ele>-48.81</ele>
  <time>2026-09-02T22:08:33Z</time>
  <course>359.91</course>
  <speed>0.9</speed>
  <fix>3d</fix>
</trkpt>
<trkpt lat="33.8099042" lon="-118.3944324">
  <ele>-50.021</ele>
  <time>2026-09-02T22:08:33Z</time>
  <course>5.35</course>
  <speed>0.8700574693662483</speed>
  <fix>3d</fix>
</trkpt>
<trkpt lat="33.8099025" lon="-118.3944325">
  <ele>-48.81</ele>
  <time>2026-09-02T22:08:33Z</time>
  <course>359.91</course>
  <speed>0.9</speed>
  <fix>3d</fix>
</trkpt>
<trkpt lat="33.809905" lon="-118.3944324">
  <ele>-50.019</ele>
  <time>2026-09-02T22:08:33Z</time>
  <course>5.26</course>
  <speed>0.8700574693662483</speed>
  <fix>3d</fix>
</trkpt>
<trkpt lat="33.8099042" lon="-118.3944325">
  <ele>-48.8</ele>
  <time>2026-09-02T22:08:33Z</time>
  <course>359.87</course>
  <speed>0.9</speed>
  <fix>3d</fix>
</trkpt>
<trkpt lat="33.8099058" lon="-118.3944324">
  <ele>-50.018</ele>
  <time>2026-09-02T22:08:33Z</time>
  <course>5.18</course>
  <speed>0.8702298546935746</speed>
  <fix>3d</fix>
</trkpt>
<trkpt lat="33.8099042" lon="-118.3944325">
  <ele>-48.8</ele>
  <time>2026-09-02T22:08:33Z</time>
  <course>359.87</course>
  <speed>0.9</speed>
  <fix>3d</fix>
</trkpt>
<trkpt lat="33.8099066" lon="-118.3944324">
  <ele>-50.016</ele>
  <time>2026-09-02T22:08:33Z</time>
  <course>5.1</course>
  <speed>0.8700574693662483</speed>
  <fix>3d</fix>
</trkpt>
<trkpt lat="33.8099057" lon="-118.3944325">
  <ele>-48.8</ele>
  <time>2026-09-02T22:08:33Z</time>
  <course>359.85</course>
  <speed>0.9</speed>
  <fix>3d</fix>
</trkpt>
<trkpt lat="33.8099074" lon="-118.3944324">
  <ele>-50.016</ele>
  <time>2026-09-02T22:08:33Z</time>
  <course>5.03</course>
  <speed>0.8702298546935746</speed>
  <fix>3d</fix>
</trkpt>
<trkpt lat="33.8099057" lon="-118.3944325">
  <ele>-48.8</ele>
  <time>2026-09-02T22:08:33Z</time>
  <course>359.85</course>
  <speed>0.9</speed>
  <fix>3d</fix>
</trkpt>
<trkpt lat="33.8099083" lon="-118.3944324">
  <ele>-50.015</ele>
  <time>2026-09-02T22:08:33Z</time>
  <course>4.97</course>
  <speed>0.8802272433866155</speed>
  <fix>3d</fix>
</trkpt>
<trkpt lat="33.8099074" lon="-118.3944325">
  <ele>-48.8</ele>
  <time>2026-09-02T22:08:33Z</time>
  <course>359.84</course>
  <speed>0.9</speed>
  <fix>3d</fix>
</trkpt>
<trkpt lat="33.8099091" lon="-118.3944324">
  <ele>-50.014</ele>
  <time>2026-09-02T22:08:33Z</time>
  <course>4.91</course>
  <speed>0.8802272433866155</speed>
  <fix>3d</fix>
</trkpt>
<trkpt lat="33.8099074" lon="-118.3944325">
  <ele>-48.8</ele>
  <time>2026-09-02T22:08:33Z</time>
  <course>359.84</course>
  <speed>0.9</speed>
  <fix>3d</fix>
</trkpt>
<trkpt lat="33.8099099" lon="-118.3944324">
  <ele>-50.014</ele>
  <time>2026-09-02T22:08:33Z</time>
  <course>4.86</course>
  <speed>0.8802272433866155</speed>
  <fix>3d</fix>
</trkpt>
<trkpt lat="33.8099091" lon="-118.3944325">
  <ele>-48.8</ele>
  <time>2026-09-02T22:08:33Z</time>
  <course>359.84</course>
  <speed>0.91</speed>
  <fix>3d</fix>
</trkpt>
<trkpt lat="33.8099107" lon="-118.3944324">
  <ele>-50.016</ele>
  <time>2026-09-02T22:08:33Z</time>
  <course>4.8</course>
  <speed>0.8802272433866155</speed>
  <fix>3d</fix>
</trkpt>
<trkpt lat="33.8099091" lon="-118.3944325">
  <ele>-48.8</ele>
  <time>2026-09-02T22:08:33Z</time>
  <course>359.84</course>
  <speed>0.91</speed>
  <fix>3d</fix>
</trkpt>
<trkpt lat="33.8099115" lon="-118.3944324">
  <ele>-50.018</ele>
  <time>2026-09-02T22:08:33Z</time>
  <course>4.75</course>
  <speed>0.8802272433866155</speed>
  <fix>3d</fix>
</trkpt>
<trkpt lat="33.8099107" lon="-118.3944325">
  <ele>-48.8</ele>
  <time>2026-09-02T22:08:33Z</time>
  <course>359.83</course>
  <speed>0.91</speed>
  <fix>3d</fix>
</trkpt>
<trkpt lat="33.8099124" lon="-118.3944324">
  <ele>-50.02</ele>
  <time>2026-09-02T22:08:33Z</time>
  <course>4.7</course>
  <speed>0.8802272433866155</speed>
  <fix>3d</fix>
</trkpt>
<trkpt lat="33.8099107" lon="-118.3944325">
  <ele>-48.8</ele>
  <time>2026-09-02T22:08:33Z</time>
  <course>359.83</course>
  <speed>0.91</speed>
  <fix>3d</fix>
</trkpt>
<trkpt lat="33.8099132" lon="-118.3944324">
  <ele>-50.02</ele>
  <time>2026-09-02T22:08:33Z</time>
  <course>4.66</course>
  <speed>0.8802272433866155</speed>
  <fix>3d</fix>
</trkpt>
<trkpt lat="33.8099123" lon="-118.3944325">
  <ele>-48.81</ele>
  <time>2026-09-02T22:08:33Z</time>
  <course>359.83</course>
  <speed>0.91</speed>
  <fix>3d</fix>
</trkpt>
<trkpt lat="33.809914" lon="-118.3944324">
  <ele>-50.02</ele>
  <time>2026-09-02T22:08:33Z</time>
  <course>4.61</course>
  <speed>0.8802272433866155</speed>
  <fix>3d</fix>
</trkpt>
<trkpt lat="33.8099123" lon="-118.3944325">
  <ele>-48.81</ele>
  <time>2026-09-02T22:08:33Z</time>
  <course>359.83</course>
  <speed>0.91</speed>
  <fix>3d</fix>
</trkpt>
<trkpt lat="33.8099148" lon="-118.3944324">
  <ele>-50.019</ele>
  <time>2026-09-02T22:08:33Z</time>
  <course>4.58</course>
  <speed>0.8802272433866155</speed>
  <fix>3d</fix>
</trkpt>
<trkpt lat="33.809914" lon="-118.3944325">
  <ele>-48.81</ele>
  <time>2026-09-02T22:08:33Z</time>
  <course>359.85</course>
  <speed>0.91</speed>
  <fix>3d</fix>
</trkpt>
<trkpt lat="33.8099157" lon="-118.3944323">
  <ele>-50.019</ele>
  <time>2026-09-02T22:08:33Z</time>
  <course>4.53</course>
  <speed>0.8802272433866155</speed>
  <fix>3d</fix>
</trkpt>
<trkpt lat="33.809914" lon="-118.3944325">
  <ele>-48.81</ele>
  <time>2026-09-02T22:08:33Z</time>
  <course>359.85</course>
  <speed>0.91</speed>
  <fix>3d</fix>
</trkpt>
<trkpt lat="33.8099165" lon="-118.3944323">
  <ele>-50.019</ele>
  <time>2026-09-02T22:08:33Z</time>
  <course>4.5</course>
  <speed>0.8802272433866155</speed>
  <fix>3d</fix>
</trkpt>
<trkpt lat="33.8099156" lon="-118.3944325">
  <ele>-48.81</ele>
  <time>2026-09-02T22:08:33Z</time>
  <course>359.87</course>
  <speed>0.91</speed>
  <fix>3d</fix>
</trkpt>
<trkpt lat="33.8099173" lon="-118.3944323">
  <ele>-50.018</ele>
  <time>2026-09-02T22:08:33Z</time>
  <course>4.45</course>
  <speed>0.8802272433866155</speed>
  <fix>3d</fix>
</trkpt>
<trkpt lat="33.8099156" lon="-118.3944325">
  <ele>-48.81</ele>
  <time>2026-09-02T22:08:33Z</time>
  <course>359.87</course>
  <speed>0.91</speed>
  <fix>3d</fix>
</trkpt>
<trkpt lat="33.8099181" lon="-118.3944323">
  <ele>-50.018</ele>
  <time>2026-09-02T22:08:33Z</time>
  <course>4.41</course>
  <speed>0.8902246907382428</speed>
  <fix>3d</fix>
</trkpt>
<trkpt lat="33.8099172" lon="-118.3944325">
  <ele>-48.81</ele>
  <time>2026-09-02T22:08:33Z</time>
  <course>359.86</course>
  <speed>0.91</speed>
  <fix>3d</fix>
</trkpt>
<trkpt lat="33.809919" lon="-118.3944323">
  <ele>-50.018</ele>
  <time>2026-09-02T22:08:33Z</time>
  <course>4.37</course>
  <speed>0.8902246907382428</speed>
  <fix>3d</fix>
</trkpt>
<trkpt lat="33.8099172" lon="-118.3944325">
  <ele>-48.81</ele>
  <time>2026-09-02T22:08:33Z</time>
  <course>359.86</course>
  <speed>0.91</speed>
  <fix>3d</fix>
</trkpt>
<trkpt lat="33.8099198" lon="-118.3944323">
  <ele>-50.019</ele>
  <time>2026-09-02T22:08:33Z</time>
  <course>4.33</course>
  <speed>0.8902246907382428</speed>
  <fix>3d</fix>
</trkpt>
<trkpt lat="33.8099189" lon="-118.3944325">
  <ele>-48.81</ele>
  <time>2026-09-02T22:08:33Z</time>
  <course>359.88</course>
  <speed>0.91</speed>
  <fix>3d</fix>
</trkpt>
<trkpt lat="33.8099206" lon="-118.3944323">
  <ele>-50.019</ele>
  <time>2026-09-02T22:08:33Z</time>
  <course>4.29</course>
  <speed>0.8902246907382428</speed>
  <fix>3d</fix>
</trkpt>
<trkpt lat="33.8099189" lon="-118.3944325">
  <ele>-48.81</ele>
  <time>2026-09-02T22:08:33Z</time>
  <course>359.88</course>
  <speed>0.91</speed>
  <fix>3d</fix>
</trkpt>
<trkpt lat="33.8099214" lon="-118.3944323">
  <ele>-50.02</ele>
  <time>2026-09-02T22:08:33Z</time>
  <course>4.25</course>
  <speed>0.8902246907382428</speed>
  <fix>3d</fix>
</trkpt>
<trkpt lat="33.8099206" lon="-118.3944325">
  <ele>-48.81</ele>
  <time>2026-09-02T22:08:33Z</time>
  <course>359.9</course>
  <speed>0.92</speed>
  <fix>3d</fix>
</trkpt>
<trkpt lat="33.8099223" lon="-118.3944323">
  <ele>-50.019</ele>
  <time>2026-09-02T22:08:33Z</time>
  <course>4.22</course>
  <speed>0.8902246907382428</speed>
  <fix>3d</fix>
</trkpt>
<trkpt lat="33.8099206" lon="-118.3944325">
  <ele>-48.81</ele>
  <time>2026-09-02T22:08:33Z</time>
  <course>359.9</course>
  <speed>0.92</speed>
  <fix>3d</fix>
</trkpt>
<trkpt lat="33.8099231" lon="-118.3944323">
  <ele>-50.019</ele>
  <time>2026-09-02T22:08:33Z</time>
  <course>4.18</course>
  <speed>0.8902246907382428</speed>
  <fix>3d</fix>
</trkpt>
<trkpt lat="33.8099222" lon="-118.3944325">
  <ele>-48.82</ele>
  <time>2026-09-02T22:08:33Z</time>
  <course>359.91</course>
  <speed>0.92</speed>
  <fix>3d</fix>
</trkpt>
<trkpt lat="33.8099239" lon="-118.3944323">
  <ele>-50.019</ele>
  <time>2026-09-02T22:08:33Z</time>
  <course>4.15</course>
  <speed>0.8902246907382428</speed>
  <fix>3d</fix>
</trkpt>
<trkpt lat="33.8099222" lon="-118.3944325">
  <ele>-48.82</ele>
  <time>2026-09-02T22:08:33Z</time>
  <course>359.91</course>
  <speed>0.92</speed>
  <fix>3d</fix>
</trkpt>
<trkpt lat="33.8099248" lon="-118.3944323">
  <ele>-50.02</ele>
  <time>2026-09-02T22:08:33Z</time>
  <course>4.12</course>
  <speed>0.8902246907382428</speed>
  <fix>3d</fix>
</trkpt>
<trkpt lat="33.8099239" lon="-118.3944325">
  <ele>-48.82</ele>
  <time>2026-09-02T22:08:33Z</time>
  <course>359.93</course>
  <speed>0.92</speed>
  <fix>3d</fix>
</trkpt>
<trkpt lat="33.8099256" lon="-118.3944323">
  <ele>-50.022</ele>
  <time>2026-09-02T22:08:33Z</time>
  <course>4.09</course>
  <speed>0.8902246907382428</speed>
  <fix>3d</fix>
</trkpt>
<trkpt lat="33.8099239" lon="-118.3944325">
  <ele>-48.82</ele>
  <time>2026-09-02T22:08:33Z</time>
  <course>359.93</course>
  <speed>0.92</speed>
  <fix>3d</fix>
</trkpt>
<trkpt lat="33.8099264" lon="-118.3944323">
  <ele>-50.024</ele>
  <time>2026-09-02T22:08:33Z</time>
  <course>4.05</course>
  <speed>0.8902246907382428</speed>
  <fix>3d</fix>
</trkpt>
<trkpt lat="33.8099255" lon="-118.3944325">
  <ele>-48.82</ele>
  <time>2026-09-02T22:08:33Z</time>
  <course>359.96</course>
  <speed>0.92</speed>
  <fix>3d</fix>
</trkpt>
<trkpt lat="33.8099273" lon="-118.3944323">
  <ele>-50.024</ele>
  <time>2026-09-02T22:08:33Z</time>
  <course>4.02</course>
  <speed>0.8902246907382428</speed>
  <fix>3d</fix>
</trkpt>
<trkpt lat="33.8099255" lon="-118.3944325">
  <ele>-48.82</ele>
  <time>2026-09-02T22:08:33Z</time>
  <course>359.96</course>
  <speed>0.92</speed>
  <fix>3d</fix>
</trkpt>
<trkpt lat="33.8099281" lon="-118.3944323">
  <ele>-50.024</ele>
  <time>2026-09-02T22:08:33Z</time>
  <course>3.98</course>
  <speed>0.8902246907382428</speed>
  <fix>3d</fix>
</trkpt>
<trkpt lat="33.8099272" lon="-118.3944325">
  <ele>-48.82</ele>
  <time>2026-09-02T22:08:33Z</time>
  <course>359.97</course>
  <speed>0.92</speed>
  <fix>3d</fix>
</trkpt>
<trkpt lat="33.8099289" lon="-118.3944323">
  <ele>-50.024</ele>
  <time>2026-09-02T22:08:33Z</time>
  <course>3.95</course>
  <speed>0.900222194794152</speed>
  <fix>3d</fix>
</trkpt>
<trkpt lat="33.8099272" lon="-118.3944325">
  <ele>-48.82</ele>
  <time>2026-09-02T22:08:33Z</time>
  <course>359.97</course>
  <speed>0.92</speed>
  <fix>3d</fix>
</trkpt>
<trkpt lat="33.8099298" lon="-118.3944323">
  <ele>-50.023</ele>
  <time>2026-09-02T22:08:33Z</time>
  <course>3.92</course>
  <speed>0.900222194794152</speed>
  <fix>3d</fix>
</trkpt>
<trkpt lat="33.8099288" lon="-118.3944325">
  <ele>-48.81</ele>
  <time>2026-09-02T22:08:33Z</time>
  <course>359.98</course>
  <speed>0.92</speed>
  <fix>3d</fix>
</trkpt>
<trkpt lat="33.8099306" lon="-118.3944323">
  <ele>-50.023</ele>
  <time>2026-09-02T22:08:33Z</time>
  <course>3.88</course>
  <speed>0.900222194794152</speed>
  <fix>3d</fix>
</trkpt>
<trkpt lat="33.8099288" lon="-118.3944325">
  <ele>-48.81</ele>
  <time>2026-09-02T22:08:33Z</time>
  <course>359.98</course>
  <speed>0.92</speed>
  <fix>3d</fix>
</trkpt>
<trkpt lat="33.8099314" lon="-118.3944323">
  <ele>-50.021</ele>
  <time>2026-09-02T22:08:33Z</time>
  <course>3.85</course>
  <speed>0.900222194794152</speed>
  <fix>3d</fix>
</trkpt>
<trkpt lat="33.8099305" lon="-118.3944325">
  <ele>-48.81</ele>
  <time>2026-09-02T22:08:33Z</time>
  <course>0.0</course>
  <speed>0.92</speed>
  <fix>3d</fix>
</trkpt>
<trkpt lat="33.8099323" lon="-118.3944323">
  <ele>-50.02</ele>
  <time>2026-09-02T22:08:33Z</time>
  <course>3.81</course>
  <speed>0.900222194794152</speed>
  <fix>3d</fix>
</trkpt>
<trkpt lat="33.8099305" lon="-118.3944325">
  <ele>-48.81</ele>
  <time>2026-09-02T22:08:33Z</time>
  <course>0.0</course>
  <speed>0.92</speed>
  <fix>3d</fix>
</trkpt>
<trkpt lat="33.8099331" lon="-118.3944323">
  <ele>-50.019</ele>
  <time>2026-09-02T22:08:33Z</time>
  <course>3.77</course>
  <speed>0.900222194794152</speed>
  <fix>3d</fix>
</trkpt>
<trkpt lat="33.8099322" lon="-118.3944325">
  <ele>-48.81</ele>
  <time>2026-09-02T22:08:33Z</time>
  <course>0.02</course>
  <speed>0.93</speed>
  <fix>3d</fix>
</trkpt>
<trkpt lat="33.8099339" lon="-118.3944323">
  <ele>-50.018</ele>
  <time>2026-09-02T22:08:33Z</time>
  <course>3.73</course>
  <speed>0.900222194794152</speed>
  <fix>3d</fix>
</trkpt>
<trkpt lat="33.8099322" lon="-118.3944325">
  <ele>-48.81</ele>
  <time>2026-09-02T22:08:33Z</time>
  <course>0.02</course>
  <speed>0.93</speed>
  <fix>3d</fix>
</trkpt>
<trkpt lat="33.8099348" lon="-118.3944323">
  <ele>-50.016</ele>
  <time>2026-09-02T22:08:33Z</time>
  <course>3.7</course>
  <speed>0.900222194794152</speed>
  <fix>3d</fix>
</trkpt>
<trkpt lat="33.8099338" lon="-118.3944325">
  <ele>-48.81</ele>
  <time>2026-09-02T22:08:33Z</time>
  <course>0.03</course>
  <speed>0.93</speed>
  <fix>3d</fix>
</trkpt>
<trkpt lat="33.8099356" lon="-118.3944323">
  <ele>-50.016</ele>
  <time>2026-09-02T22:08:33Z</time>
  <course>3.67</course>
  <speed>0.9102197536858887</speed>
  <fix>3d</fix>
</trkpt>
<trkpt lat="33.8099338" lon="-118.3944325">
  <ele>-48.81</ele>
  <time>2026-09-02T22:08:33Z</time>
  <course>0.03</course>
  <speed>0.93</speed>
  <fix>3d</fix>
</trkpt>
<trkpt lat="33.8099364" lon="-118.3944323">
  <ele>-50.016</ele>
  <time>2026-09-02T22:08:33Z</time>
  <course>3.64</course>
  <speed>0.9102197536858887</speed>
  <fix>3d</fix>
</trkpt>
<trkpt lat="33.8099355" lon="-118.3944325">
  <ele>-48.81</ele>
  <time>2026-09-02T22:08:33Z</time>
  <course>0.06</course>
  <speed>0.93</speed>
  <fix>3d</fix>
</trkpt>
<trkpt lat="33.8099373" lon="-118.3944323">
  <ele>-50.018</ele>
  <time>2026-09-02T22:08:33Z</time>
  <course>3.61</course>
  <speed>0.9102197536858887</speed>
  <fix>3d</fix>
</trkpt>
<trkpt lat="33.8099355" lon="-118.3944325">
  <ele>-48.81</ele>
  <time>2026-09-02T22:08:33Z</time>
  <course>0.06</course>
  <speed>0.93</speed>
  <fix>3d</fix>
</trkpt>
<trkpt lat="33.8099381" lon="-118.3944323">
  <ele>-50.021</ele>
  <time>2026-09-02T22:08:33Z</time>
  <course>3.59</course>
  <speed>0.9102197536858887</speed>
  <fix>3d</fix>
</trkpt>
<trkpt lat="33.8099372" lon="-118.3944325">
  <ele>-48.81</ele>
  <time>2026-09-02T22:08:33Z</time>
  <course>0.09</course>
  <speed>0.94</speed>
  <fix>3d</fix>
</trkpt>
<trkpt lat="33.809939" lon="-118.3944323">
  <ele>-50.022</ele>
  <time>2026-09-02T22:08:33Z</time>
  <course>3.56</course>
  <speed>0.9102197536858887</speed>
  <fix>3d</fix>
</trkpt>
<trkpt lat="33.8099372" lon="-118.3944325">
  <ele>-48.81</ele>
  <time>2026-09-02T22:08:33Z</time>
  <course>0.09</course>
  <speed>0.94</speed>
  <fix>3d</fix>
</trkpt>
<trkpt lat="33.8099398" lon="-118.3944323">
  <ele>-50.022</ele>
  <time>2026-09-02T22:08:33Z</time>
  <course>3.53</course>
  <speed>0.9102197536858887</speed>
  <fix>3d</fix>
</trkpt>
<trkpt lat="33.8099389" lon="-118.3944325">
  <ele>-48.81</ele>
  <time>2026-09-02T22:08:33Z</time>
  <course>0.11</course>
  <speed>0.94</speed>
  <fix>3d</fix>
</trkpt>
<trkpt lat="33.8099406" lon="-118.3944323">
  <ele>-50.022</ele>
  <time>2026-09-02T22:08:33Z</time>
  <course>3.5</course>
  <speed>0.9102197536858887</speed>
  <fix>3d</fix>
</trkpt>
<trkpt lat="33.8099389" lon="-118.3944325">
  <ele>-48.81</ele>
  <time>2026-09-02T22:08:33Z</time>
  <course>0.11</course>
  <speed>0.94</speed>
  <fix>3d</fix>
</trkpt>
<trkpt lat="33.8099415" lon="-118.3944323">
  <ele>-50.022</ele>
  <time>2026-09-02T22:08:33Z</time>
  <course>3.48</course>
  <speed>0.9102197536858887</speed>
  <fix>3d</fix>
</trkpt>
<trkpt lat="33.8099406" lon="-118.3944325">
  <ele>-48.81</ele>
  <time>2026-09-02T22:08:33Z</time>
  <course>0.14</course>
  <speed>0.94</speed>
  <fix>3d</fix>
</trkpt>
<trkpt lat="33.8099423" lon="-118.3944323">
  <ele>-50.021</ele>
  <time>2026-09-02T22:08:33Z</time>
  <course>3.46</course>
  <speed>0.9102197536858887</speed>
  <fix>3d</fix>
</trkpt>
<trkpt lat="33.8099406" lon="-118.3944325">
  <ele>-48.81</ele>
  <time>2026-09-02T22:08:33Z</time>
  <course>0.14</course>
  <speed>0.94</speed>
  <fix>3d</fix>
</trkpt>
<trkpt lat="33.8099432" lon="-118.3944323">
  <ele>-50.019</ele>
  <time>2026-09-02T22:08:33Z</time>
  <course>3.44</course>
  <speed>0.9102197536858887</speed>
  <fix>3d</fix>
</trkpt>
<trkpt lat="33.8099423" lon="-118.3944325">
  <ele>-48.81</ele>
  <time>2026-09-02T22:08:33Z</time>
  <course>0.18</course>
  <speed>0.94</speed>
  <fix>3d</fix>
</trkpt>
<trkpt lat="33.809944" lon="-118.3944323">
  <ele>-50.019</ele>
  <time>2026-09-02T22:08:33Z</time>
  <course>3.41</course>
  <speed>0.9102197536858887</speed>
  <fix>3d</fix>
</trkpt>
<trkpt lat="33.8099423" lon="-118.3944325">
  <ele>-48.81</ele>
  <time>2026-09-02T22:08:33Z</time>
  <course>0.18</course>
  <speed>0.94</speed>
  <fix>3d</fix>
</trkpt>
<trkpt lat="33.8099449" lon="-118.3944323">
  <ele>-50.018</ele>
  <time>2026-09-02T22:08:33Z</time>
  <course>3.39</course>
  <speed>0.9102197536858887</speed>
  <fix>3d</fix>
</trkpt>
<trkpt lat="33.809944" lon="-118.3944325">
  <ele>-48.81</ele>
  <time>2026-09-02T22:08:33Z</time>
  <course>0.21</course>
  <speed>0.94</speed>
  <fix>3d</fix>
</trkpt>
<trkpt lat="33.8099457" lon="-118.3944323">
  <ele>-50.018</ele>
  <time>2026-09-02T22:08:33Z</time>
  <course>3.36</course>
  <speed>0.9102197536858887</speed>
  <fix>3d</fix>
</trkpt>
<trkpt lat="33.809944" lon="-118.3944325">
  <ele>-48.81</ele>
  <time>2026-09-02T22:08:33Z</time>
  <course>0.21</course>
  <speed>0.94</speed>
  <fix>3d</fix>
</trkpt>
<trkpt lat="33.8099466" lon="-118.3944323">
  <ele>-50.019</ele>
  <time>2026-09-02T22:08:33Z</time>
  <course>3.33</course>
  <speed>0.9102197536858887</speed>
  <fix>3d</fix>
</trkpt>
<trkpt lat="33.8099457" lon="-118.3944325">
  <ele>-48.81</ele>
  <time>2026-09-02T22:08:33Z</time>
  <course>0.22</course>
  <speed>0.94</speed>
  <fix>3d</fix>
</trkpt>
<trkpt lat="33.8099474" lon="-118.3944323">
  <ele>-50.02</ele>
  <time>2026-09-02T22:08:33Z</time>
  <course>3.31</course>
  <speed>0.9102197536858887</speed>
  <fix>3d</fix>
</trkpt>
<trkpt lat="33.8099457" lon="-118.3944325">
  <ele>-48.81</ele>
  <time>2026-09-02T22:08:33Z</time>
  <course>0.22</course>
  <speed>0.94</speed>
  <fix>3d</fix>
</trkpt>
<trkpt lat="33.8099483" lon="-118.3944323">
  <ele>-50.021</ele>
  <time>2026-09-02T22:08:33Z</time>
  <course>3.28</course>
  <speed>0.9102197536858887</speed>
  <fix>3d</fix>
</trkpt>
<trkpt lat="33.8099474" lon="-118.3944325">
  <ele>-48.81</ele>
  <time>2026-09-02T22:08:33Z</time>
  <course>0.25</course>
  <speed>0.94</speed>
  <fix>3d</fix>
</trkpt>
<trkpt lat="33.8099491" lon="-118.3944323">
  <ele>-50.021</ele>
  <time>2026-09-02T22:08:33Z</time>
  <course>3.26</course>
  <speed>0.9102197536858887</speed>
  <fix>3d</fix>
</trkpt>
<trkpt lat="33.8099474" lon="-118.3944325">
  <ele>-48.81</ele>
  <time>2026-09-02T22:08:33Z</time>
  <course>0.25</course>
  <speed>0.94</speed>
  <fix>3d</fix>
</trkpt>
<trkpt lat="33.80995" lon="-118.3944323">
  <ele>-50.02</ele>
  <time>2026-09-02T22:08:33Z</time>
  <course>3.23</course>
  <speed>0.9102197536858887</speed>
  <fix>3d</fix>
</trkpt>
<trkpt lat="33.8099491" lon="-118.3944325">
  <ele>-48.81</ele>
  <time>2026-09-02T22:08:33Z</time>
  <course>0.28</course>
  <speed>0.94</speed>
  <fix>3d</fix>
</trkpt>
<trkpt lat="33.8099508" lon="-118.3944323">
  <ele>-50.019</ele>
  <time>2026-09-02T22:08:33Z</time>
  <course>3.2</course>
  <speed>0.9102197536858887</speed>
  <fix>3d</fix>
</trkpt>
<trkpt lat="33.8099491" lon="-118.3944325">
  <ele>-48.81</ele>
  <time>2026-09-02T22:08:33Z</time>
  <course>0.28</course>
  <speed>0.94</speed>
  <fix>3d</fix>
</trkpt>
<trkpt lat="33.8099517" lon="-118.3944323">
  <ele>-50.019</ele>
  <time>2026-09-02T22:08:33Z</time>
  <course>3.18</course>
  <speed>0.9102197536858887</speed>
  <fix>3d</fix>
</trkpt>
<trkpt lat="33.8099508" lon="-118.3944325">
  <ele>-48.81</ele>
  <time>2026-09-02T22:08:33Z</time>
  <course>0.29</course>
  <speed>0.94</speed>
  <fix>3d</fix>
</trkpt>
<trkpt lat="33.8099525" lon="-118.3944323">
  <ele>-50.019</ele>
  <time>2026-09-02T22:08:33Z</time>
  <course>3.15</course>
  <speed>0.9102197536858887</speed>
  <fix>3d</fix>
</trkpt>
<trkpt lat="33.8099508" lon="-118.3944325">
  <ele>-48.81</ele>
  <time>2026-09-02T22:08:33Z</time>
  <course>0.29</course>
  <speed>0.94</speed>
  <fix>3d</fix>
</trkpt>
<trkpt lat="33.8099534" lon="-118.3944323">
  <ele>-50.019</ele>
  <time>2026-09-02T22:08:33Z</time>
  <course>3.13</course>
  <speed>0.9102197536858887</speed>
  <fix>3d</fix>
</trkpt>
<trkpt lat="33.8099525" lon="-118.3944325">
  <ele>-48.81</ele>
  <time>2026-09-02T22:08:33Z</time>
  <course>0.32</course>
  <speed>0.94</speed>
  <fix>3d</fix>
</trkpt>
<trkpt lat="33.8099542" lon="-118.3944323">
  <ele>-50.02</ele>
  <time>2026-09-02T22:08:33Z</time>
  <course>3.1</course>
  <speed>0.9102197536858887</speed>
  <fix>3d</fix>
</trkpt>
<trkpt lat="33.8099525" lon="-118.3944325">
  <ele>-48.81</ele>
  <time>2026-09-02T22:08:33Z</time>
  <course>0.32</course>
  <speed>0.94</speed>
  <fix>3d</fix>
</trkpt>
<trkpt lat="33.8099551" lon="-118.3944323">
  <ele>-50.02</ele>
  <time>2026-09-02T22:08:33Z</time>
  <course>3.08</course>
  <speed>0.9202173656261873</speed>
  <fix>3d</fix>
</trkpt>
<trkpt lat="33.8099542" lon="-118.3944325">
  <ele>-48.81</ele>
  <time>2026-09-02T22:08:33Z</time>
  <course>0.34</course>
  <speed>0.94</speed>
  <fix>3d</fix>
</trkpt>
<trkpt lat="33.8099559" lon="-118.3944323">
  <ele>-50.021</ele>
  <time>2026-09-02T22:08:33Z</time>
  <course>3.06</course>
  <speed>0.9202173656261873</speed>
  <fix>3d</fix>
</trkpt>
<trkpt lat="33.8099542" lon="-118.3944325">
  <ele>-48.81</ele>
  <time>2026-09-02T22:08:33Z</time>
  <course>0.34</course>
  <speed>0.94</speed>
  <fix>3d</fix>
</trkpt>
<trkpt lat="33.8099568" lon="-118.3944323">
  <ele>-50.021</ele>
  <time>2026-09-02T22:08:33Z</time>
  <course>3.04</course>
  <speed>0.9202173656261873</speed>
  <fix>3d</fix>
</trkpt>
<trkpt lat="33.8099559" lon="-118.3944325">
  <ele>-48.8</ele>
  <time>2026-09-02T22:08:33Z</time>
  <course>0.37</course>
  <speed>0.95</speed>
  <fix>3d</fix>
</trkpt>
<trkpt lat="33.8099576" lon="-118.3944323">
  <ele>-50.02</ele>
  <time>2026-09-02T22:08:33Z</time>
  <course>3.02</course>
  <speed>0.9202173656261873</speed>
  <fix>3d</fix>
</trkpt>
<trkpt lat="33.8099559" lon="-118.3944325">
  <ele>-48.8</ele>
  <time>2026-09-02T22:08:33Z</time>
  <course>0.37</course>
  <speed>0.95</speed>
  <fix>3d</fix>
</trkpt>
<trkpt lat="33.8099585" lon="-118.3944323">
  <ele>-50.02</ele>
  <time>2026-09-02T22:08:33Z</time>
  <course>3.0</course>
  <speed>0.9202173656261873</speed>
  <fix>3d</fix>
</trkpt>
<trkpt lat="33.8099576" lon="-118.3944325">
  <ele>-48.8</ele>
  <time>2026-09-02T22:08:33Z</time>
  <course>0.4</course>
  <speed>0.95</speed>
  <fix>3d</fix>
</trkpt>
<trkpt lat="33.8099593" lon="-118.3944323">
  <ele>-50.019</ele>
  <time>2026-09-02T22:08:33Z</time>
  <course>2.97</course>
  <speed>0.9202173656261873</speed>
  <fix>3d</fix>
</trkpt>
<trkpt lat="33.8099576" lon="-118.3944325">
  <ele>-48.8</ele>
  <time>2026-09-02T22:08:33Z</time>
  <course>0.4</course>
  <speed>0.95</speed>
  <fix>3d</fix>
</trkpt>
<trkpt lat="33.8099602" lon="-118.3944323">
  <ele>-50.018</ele>
  <time>2026-09-02T22:08:33Z</time>
  <course>2.95</course>
  <speed>0.9202173656261873</speed>
  <fix>3d</fix>
</trkpt>
<trkpt lat="33.8099593" lon="-118.3944325">
  <ele>-48.8</ele>
  <time>2026-09-02T22:08:33Z</time>
  <course>0.44</course>
  <speed>0.95</speed>
  <fix>3d</fix>
</trkpt>
<trkpt lat="33.8099611" lon="-118.3944322">
  <ele>-50.017</ele>
  <time>2026-09-02T22:08:33Z</time>
  <course>2.93</course>
  <speed>0.9202173656261873</speed>
  <fix>3d</fix>
</trkpt>
<trkpt lat="33.8099593" lon="-118.3944325">
  <ele>-48.8</ele>
  <time>2026-09-02T22:08:33Z</time>
  <course>0.44</course>
  <speed>0.95</speed>
  <fix>3d</fix>
</trkpt>
<trkpt lat="33.8099619" lon="-118.3944322">
  <ele>-50.016</ele>
  <time>2026-09-02T22:08:33Z</time>
  <course>2.91</course>
  <speed>0.9202173656261873</speed>
  <fix>3d</fix>
</trkpt>
<trkpt lat="33.809961" lon="-118.3944325">
  <ele>-48.8</ele>
  <time>2026-09-02T22:08:33Z</time>
  <course>0.46</course>
  <speed>0.95</speed>
  <fix>3d</fix>
</trkpt>
<trkpt lat="33.8099628" lon="-118.3944322">
  <ele>-50.016</ele>
  <time>2026-09-02T22:08:33Z</time>
  <course>2.88</course>
  <speed>0.9202173656261873</speed>
  <fix>3d</fix>
</trkpt>
<trkpt lat="33.809961" lon="-118.3944325">
  <ele>-48.8</ele>
  <time>2026-09-02T22:08:33Z</time>
  <course>0.46</course>
  <speed>0.95</speed>
  <fix>3d</fix>
</trkpt>
<trkpt lat="33.8099636" lon="-118.3944322">
  <ele>-50.016</ele>
  <time>2026-09-02T22:08:33Z</time>
  <course>2.86</course>
  <speed>0.9202173656261873</speed>
  <fix>3d</fix>
</trkpt>
<trkpt lat="33.8099628" lon="-118.3944325">
  <ele>-48.8</ele>
  <time>2026-09-02T22:08:33Z</time>
  <course>0.47</course>
  <speed>0.95</speed>
  <fix>3d</fix>
</trkpt>
<trkpt lat="33.8099645" lon="-118.3944322">
  <ele>-50.017</ele>
  <time>2026-09-02T22:08:33Z</time>
  <course>2.84</course>
  <speed>0.9202173656261873</speed>
  <fix>3d</fix>
</trkpt>
<trkpt lat="33.8099628" lon="-118.3944325">
  <ele>-48.8</ele>
  <time>2026-09-02T22:08:33Z</time>
  <course>0.47</course>
  <speed>0.95</speed>
  <fix>3d</fix>
</trkpt>
<trkpt lat="33.8099653" lon="-118.3944322">
  <ele>-50.019</ele>
  <time>2026-09-02T22:08:33Z</time>
  <course>2.82</course>
  <speed>0.9202173656261873</speed>
  <fix>3d</fix>
</trkpt>
<trkpt lat="33.8099645" lon="-118.3944325">
  <ele>-48.8</ele>
  <time>2026-09-02T22:08:33Z</time>
  <course>0.49</course>
  <speed>0.95</speed>
  <fix>3d</fix>
</trkpt>
<trkpt lat="33.8099662" lon="-118.3944322">
  <ele>-50.021</ele>
  <time>2026-09-02T22:08:33Z</time>
  <course>2.8</course>
  <speed>0.9202173656261873</speed>
  <fix>3d</fix>
</trkpt>
<trkpt lat="33.8099645" lon="-118.3944325">
  <ele>-48.8</ele>
  <time>2026-09-02T22:08:33Z</time>
  <course>0.49</course>
  <speed>0.95</speed>
  <fix>3d</fix>
</trkpt>
<trkpt lat="33.8099671" lon="-118.3944322">
  <ele>-50.021</ele>
  <time>2026-09-02T22:08:33Z</time>
  <course>2.78</course>
  <speed>0.9202173656261873</speed>
  <fix>3d</fix>
</trkpt>
<trkpt lat="33.8099662" lon="-118.3944325">
  <ele>-48.8</ele>
  <time>2026-09-02T22:08:33Z</time>
  <course>0.51</course>
  <speed>0.95</speed>
  <fix>3d</fix>
</trkpt>
<trkpt lat="33.8099679" lon="-118.3944322">
  <ele>-50.022</ele>
  <time>2026-09-02T22:08:33Z</time>
  <course>2.76</course>
  <speed>0.9202173656261873</speed>
  <fix>3d</fix>
</trkpt>
<trkpt lat="33.8099662" lon="-118.3944325">
  <ele>-48.8</ele>
  <time>2026-09-02T22:08:33Z</time>
  <course>0.51</course>
  <speed>0.95</speed>
  <fix>3d</fix>
</trkpt>
<trkpt lat="33.8099688" lon="-118.3944322">
  <ele>-50.022</ele>
  <time>2026-09-02T22:08:33Z</time>
  <course>2.74</course>
  <speed>0.9202173656261873</speed>
  <fix>3d</fix>
</trkpt>
<trkpt lat="33.8099679" lon="-118.3944325">
  <ele>-48.81</ele>
  <time>2026-09-02T22:08:33Z</time>
  <course>0.53</course>
  <speed>0.95</speed>
  <fix>3d</fix>
</trkpt>
<trkpt lat="33.8099696" lon="-118.3944322">
  <ele>-50.022</ele>
  <time>2026-09-02T22:08:33Z</time>
  <course>2.72</course>
  <speed>0.9202173656261873</speed>
  <fix>3d</fix>
</trkpt>
<trkpt lat="33.8099679" lon="-118.3944325">
  <ele>-48.81</ele>
  <time>2026-09-02T22:08:33Z</time>
  <course>0.53</course>
  <speed>0.95</speed>
  <fix>3d</fix>
</trkpt>
<trkpt lat="33.8099705" lon="-118.3944322">
  <ele>-50.02</ele>
  <time>2026-09-02T22:08:33Z</time>
  <course>2.7</course>
  <speed>0.9302150289046076</speed>
  <fix>3d</fix>
</trkpt>
<trkpt lat="33.8099696" lon="-118.3944324">
  <ele>-48.8</ele>
  <time>2026-09-02T22:08:33Z</time>
  <course>0.57</course>
  <speed>0.95</speed>
  <fix>3d</fix>
</trkpt>
<trkpt lat="33.8099714" lon="-118.3944322">
  <ele>-50.018</ele>
  <time>2026-09-02T22:08:33Z</time>
  <course>2.67</course>
  <speed>0.9302150289046076</speed>
  <fix>3d</fix>
</trkpt>
<trkpt lat="33.8099696" lon="-118.3944324">
  <ele>-48.8</ele>
  <time>2026-09-02T22:08:33Z</time>
  <course>0.57</course>
  <speed>0.95</speed>
  <fix>3d</fix>
</trkpt>
<trkpt lat="33.8099722" lon="-118.3944322">
  <ele>-50.015</ele>
  <time>2026-09-02T22:08:33Z</time>
  <course>2.63</course>
  <speed>0.9302150289046076</speed>
  <fix>3d</fix>
</trkpt>
<trkpt lat="33.8099713" lon="-118.3944324">
  <ele>-48.8</ele>
  <time>2026-09-02T22:08:33Z</time>
  <course>0.55</course>
  <speed>0.95</speed>
  <fix>3d</fix>
</trkpt>
<trkpt lat="33.8099731" lon="-118.3944322">
  <ele>-50.013</ele>
  <time>2026-09-02T22:08:33Z</time>
  <course>2.57</course>
  <speed>0.9302150289046076</speed>
  <fix>3d</fix>
</trkpt>
<trkpt lat="33.8099713" lon="-118.3944324">
  <ele>-48.8</ele>
  <time>2026-09-02T22:08:33Z</time>
  <course>0.55</course>
  <speed>0.95</speed>
  <fix>3d</fix>
</trkpt>
<trkpt lat="33.809974" lon="-118.3944322">
  <ele>-50.013</ele>
  <time>2026-09-02T22:08:33Z</time>
  <course>2.5</course>
  <speed>0.9302150289046076</speed>
  <fix>3d</fix>
</trkpt>
<trkpt lat="33.809973" lon="-118.3944324">
  <ele>-48.8</ele>
  <time>2026-09-02T22:08:33Z</time>
  <course>0.48</course>
  <speed>0.95</speed>
  <fix>3d</fix>
</trkpt>
<trkpt lat="33.8099748" lon="-118.3944322">
  <ele>-50.014</ele>
  <time>2026-09-02T22:08:33Z</time>
  <course>2.43</course>
  <speed>0.9302150289046076</speed>
  <fix>3d</fix>
</trkpt>
<trkpt lat="33.809973" lon="-118.3944324">
  <ele>-48.8</ele>
  <time>2026-09-02T22:08:33Z</time>
  <course>0.48</course>
  <speed>0.95</speed>
  <fix>3d</fix>
</trkpt>
<trkpt lat="33.8099757" lon="-118.3944322">
  <ele>-50.016</ele>
  <time>2026-09-02T22:08:33Z</time>
  <course>2.37</course>
  <speed>0.9302150289046076</speed>
  <fix>3d</fix>
</trkpt>
<trkpt lat="33.8099748" lon="-118.3944324">
  <ele>-48.8</ele>
  <time>2026-09-02T22:08:33Z</time>
  <course>0.42</course>
  <speed>0.96</speed>
  <fix>3d</fix>
</trkpt>
<trkpt lat="33.8099765" lon="-118.3944322">
  <ele>-50.019</ele>
  <time>2026-09-02T22:08:33Z</time>
  <course>2.3</course>
  <speed>0.9302150289046076</speed>
  <fix>3d</fix>
</trkpt>
<trkpt lat="33.8099748" lon="-118.3944324">
  <ele>-48.8</ele>
  <time>2026-09-02T22:08:33Z</time>
  <course>0.42</course>
  <speed>0.96</speed>
  <fix>3d</fix>
</trkpt>
<trkpt lat="33.8099774" lon="-118.3944322">
  <ele>-50.022</ele>
  <time>2026-09-02T22:08:33Z</time>
  <course>2.25</course>
  <speed>0.9302150289046076</speed>
  <fix>3d</fix>
</trkpt>
<trkpt lat="33.8099765" lon="-118.3944324">
  <ele>-48.81</ele>
  <time>2026-09-02T22:08:33Z</time>
  <course>0.38</course>
  <speed>0.96</speed>
  <fix>3d</fix>
</trkpt>
<trkpt lat="33.8099783" lon="-118.3944322">
  <ele>-50.022</ele>
  <time>2026-09-02T22:08:33Z</time>
  <course>2.21</course>
  <speed>0.9302150289046076</speed>
  <fix>3d</fix>
</trkpt>
<trkpt lat="33.8099765" lon="-118.3944324">
  <ele>-48.81</ele>
  <time>2026-09-02T22:08:33Z</time>
  <course>0.38</course>
  <speed>0.96</speed>
  <fix>3d</fix>
</trkpt>
<trkpt lat="33.8099791" lon="-118.3944322">
  <ele>-50.022</ele>
  <time>2026-09-02T22:08:33Z</time>
  <course>2.17</course>
  <speed>0.9302150289046076</speed>
  <fix>3d</fix>
</trkpt>
<trkpt lat="33.8099783" lon="-118.3944324">
  <ele>-48.81</ele>
  <time>2026-09-02T22:08:33Z</time>
  <course>0.34</course>
  <speed>0.96</speed>
  <fix>3d</fix>
</trkpt>
<trkpt lat="33.80998" lon="-118.3944322">
  <ele>-50.022</ele>
  <time>2026-09-02T22:08:33Z</time>
  <course>2.13</course>
  <speed>0.9302150289046076</speed>
  <fix>3d</fix>
</trkpt>
<trkpt lat="33.8099783" lon="-118.3944324">
  <ele>-48.81</ele>
  <time>2026-09-02T22:08:33Z</time>
  <course>0.34</course>
  <speed>0.96</speed>
  <fix>3d</fix>
</trkpt>
<trkpt lat="33.8099809" lon="-118.3944322">
  <ele>-50.021</ele>
  <time>2026-09-02T22:08:33Z</time>
  <course>2.11</course>
  <speed>0.9302150289046076</speed>
  <fix>3d</fix>
</trkpt>
<trkpt lat="33.80998" lon="-118.3944323">
  <ele>-48.81</ele>
  <time>2026-09-02T22:08:33Z</time>
  <course>0.31</course>
  <speed>0.96</speed>
  <fix>3d</fix>
</trkpt>
<trkpt lat="33.8099817" lon="-118.3944322">
  <ele>-50.02</ele>
  <time>2026-09-02T22:08:33Z</time>
  <course>2.08</course>
  <speed>0.9302150289046076</speed>
  <fix>3d</fix>
</trkpt>
<trkpt lat="33.80998" lon="-118.3944323">
  <ele>-48.81</ele>
  <time>2026-09-02T22:08:33Z</time>
  <course>0.31</course>
  <speed>0.96</speed>
  <fix>3d</fix>
</trkpt>
<trkpt lat="33.8099826" lon="-118.3944322">
  <ele>-50.02</ele>
  <time>2026-09-02T22:08:33Z</time>
  <course>2.04</course>
  <speed>0.9302150289046076</speed>
  <fix>3d</fix>
</trkpt>
<trkpt lat="33.8099817" lon="-118.3944323">
  <ele>-48.81</ele>
  <time>2026-09-02T22:08:33Z</time>
  <course>0.27</course>
  <speed>0.96</speed>
  <fix>3d</fix>
</trkpt>
<trkpt lat="33.8099835" lon="-118.3944322">
  <ele>-50.019</ele>
  <time>2026-09-02T22:08:33Z</time>
  <course>1.98</course>
  <speed>0.9302150289046076</speed>
  <fix>3d</fix>
</trkpt>
<trkpt lat="33.8099817" lon="-118.3944323">
  <ele>-48.81</ele>
  <time>2026-09-02T22:08:33Z</time>
  <course>0.27</course>
  <speed>0.96</speed>
  <fix>3d</fix>
</trkpt>
<trkpt lat="33.8099844" lon="-118.3944322">
  <ele>-50.019</ele>
  <time>2026-09-02T22:08:33Z</time>
  <course>1.91</course>
  <speed>0.9402127418834527</speed>
  <fix>3d</fix>
</trkpt>
<trkpt lat="33.8099835" lon="-118.3944323">
  <ele>-48.81</ele>
  <time>2026-09-02T22:08:33Z</time>
  <course>0.18</course>
  <speed>0.96</speed>
  <fix>3d</fix>
</trkpt>
<trkpt lat="33.8099852" lon="-118.3944322">
  <ele>-50.018</ele>
  <time>2026-09-02T22:08:33Z</time>
  <course>1.84</course>
  <speed>0.9402127418834527</speed>
  <fix>3d</fix>
</trkpt>
<trkpt lat="33.8099835" lon="-118.3944323">
  <ele>-48.81</ele>
  <time>2026-09-02T22:08:33Z</time>
  <course>0.18</course>
  <speed>0.96</speed>
  <fix>3d</fix>
</trkpt>
<trkpt lat="33.8099861" lon="-118.3944322">
  <ele>-50.018</ele>
  <time>2026-09-02T22:08:33Z</time>
  <course>1.79</course>
  <speed>0.9400531899844816</speed>
  <fix>3d</fix>
</trkpt>
<trkpt lat="33.8099852" lon="-118.3944323">
  <ele>-48.81</ele>
  <time>2026-09-02T22:08:33Z</time>
  <course>0.09</course>
  <speed>0.96</speed>
  <fix>3d</fix>
</trkpt>
<trkpt lat="33.809987" lon="-118.3944322">
  <ele>-50.018</ele>
  <time>2026-09-02T22:08:33Z</time>
  <course>1.74</course>
  <speed>0.9400531899844816</speed>
  <fix>3d</fix>
</trkpt>
<trkpt lat="33.8099852" lon="-118.3944323">
  <ele>-48.81</ele>
  <time>2026-09-02T22:08:33Z</time>
  <course>0.09</course>
  <speed>0.96</speed>
  <fix>3d</fix>
</trkpt>
<trkpt lat="33.8099878" lon="-118.3944322">
  <ele>-50.02</ele>
  <time>2026-09-02T22:08:33Z</time>
  <course>1.69</course>
  <speed>0.9400531899844816</speed>
  <fix>3d</fix>
</trkpt>
<trkpt lat="33.8099869" lon="-118.3944323">
  <ele>-48.81</ele>
  <time>2026-09-02T22:08:33Z</time>
  <course>0.02</course>
  <speed>0.96</speed>
  <fix>3d</fix>
</trkpt>
<trkpt lat="33.8099887" lon="-118.3944322">
  <ele>-50.021</ele>
  <time>2026-09-02T22:08:33Z</time>
  <course>1.65</course>
  <speed>0.9402127418834527</speed>
  <fix>3d</fix>
</trkpt>
<trkpt lat="33.8099869" lon="-118.3944323">
  <ele>-48.81</ele>
  <time>2026-09-02T22:08:33Z</time>
  <course>0.02</course>
  <speed>0.96</speed>
  <fix>3d</fix>
</trkpt>
<trkpt lat="33.8099896" lon="-118.3944322">
  <ele>-50.02</ele>
  <time>2026-09-02T22:08:33Z</time>
  <course>1.62</course>
  <speed>0.9400531899844816</speed>
  <fix>3d</fix>
</trkpt>
<trkpt lat="33.8099887" lon="-118.3944323">
  <ele>-48.81</ele>
  <time>2026-09-02T22:08:33Z</time>
  <course>359.99</course>
  <speed>0.96</speed>
  <fix>3d</fix>
</trkpt>
<trkpt lat="33.8099905" lon="-118.3944322">
  <ele>-50.019</ele>
  <time>2026-09-02T22:08:33Z</time>
  <course>1.58</course>
  <speed>0.9400531899844816</speed>
  <fix>3d</fix>
</trkpt>
<trkpt lat="33.8099887" lon="-118.3944323">
  <ele>-48.81</ele>
  <time>2026-09-02T22:08:33Z</time>
  <course>359.99</course>
  <speed>0.96</speed>
  <fix>3d</fix>
</trkpt>
<trkpt lat="33.8099913" lon="-118.3944322">
  <ele>-50.017</ele>
  <time>2026-09-02T22:08:33Z</time>
  <course>1.56</course>
  <speed>0.9400531899844816</speed>
  <fix>3d</fix>
</trkpt>
<trkpt lat="33.8099904" lon="-118.3944323">
  <ele>-48.81</ele>
  <time>2026-09-02T22:08:33Z</time>
  <course>359.96</course>
  <speed>0.96</speed>
  <fix>3d</fix>
</trkpt>
<trkpt lat="33.8099922" lon="-118.3944321">
  <ele>-50.016</ele>
  <time>2026-09-02T22:08:33Z</time>
  <course>1.53</course>
  <speed>0.9400531899844816</speed>
  <fix>3d</fix>
</trkpt>
<trkpt lat="33.8099904" lon="-118.3944323">
  <ele>-48.81</ele>
  <time>2026-09-02T22:08:33Z</time>
  <course>359.96</course>
  <speed>0.96</speed>
  <fix>3d</fix>
</trkpt>
<trkpt lat="33.8099931" lon="-118.3944321">
  <ele>-50.015</ele>
  <time>2026-09-02T22:08:33Z</time>
  <course>1.51</course>
  <speed>0.9400531899844816</speed>
  <fix>3d</fix>
</trkpt>
<trkpt lat="33.8099921" lon="-118.3944323">
  <ele>-48.81</ele>
  <time>2026-09-02T22:08:33Z</time>
  <course>359.91</course>
  <speed>0.96</speed>
  <fix>3d</fix>
</trkpt>
<trkpt lat="33.809994" lon="-118.3944321">
  <ele>-50.016</ele>
  <time>2026-09-02T22:08:33Z</time>
  <course>1.49</course>
  <speed>0.9400531899844816</speed>
  <fix>3d</fix>
</trkpt>
<trkpt lat="33.8099921" lon="-118.3944323">
  <ele>-48.81</ele>
  <time>2026-09-02T22:08:33Z</time>
  <course>359.91</course>
  <speed>0.96</speed>
  <fix>3d</fix>
</trkpt>
<trkpt lat="33.8099948" lon="-118.3944321">
  <ele>-50.018</ele>
  <time>2026-09-02T22:08:33Z</time>
  <course>1.47</course>
  <speed>0.9400531899844816</speed>
  <fix>3d</fix>
</trkpt>
<trkpt lat="33.8099938" lon="-118.3944323">
  <ele>-48.81</ele>
  <time>2026-09-02T22:08:33Z</time>
  <course>359.89</course>
  <speed>0.96</speed>
  <fix>3d</fix>
</trkpt>
<trkpt lat="33.8099957" lon="-118.3944321">
  <ele>-50.02</ele>
  <time>2026-09-02T22:08:33Z</time>
  <course>1.46</course>
  <speed>0.9402127418834527</speed>
  <fix>3d</fix>
</trkpt>
<trkpt lat="33.8099938" lon="-118.3944323">
  <ele>-48.81</ele>
  <time>2026-09-02T22:08:33Z</time>
  <course>359.89</course>
  <speed>0.96</speed>
  <fix>3d</fix>
</trkpt>
<trkpt lat="33.8099966" lon="-118.3944321">
  <ele>-50.022</ele>
  <time>2026-09-02T22:08:33Z</time>
  <course>1.45</course>
  <speed>0.9500526301210896</speed>
  <fix>3d</fix>
</trkpt>
<trkpt lat="33.8099956" lon="-118.3944323">
  <ele>-48.81</ele>
  <time>2026-09-02T22:08:33Z</time>
  <course>359.88</course>
  <speed>0.97</speed>
  <fix>3d</fix>
</trkpt>
<trkpt lat="33.8099974" lon="-118.3944321">
  <ele>-50.023</ele>
  <time>2026-09-02T22:08:33Z</time>
  <course>1.44</course>
  <speed>0.9500526301210896</speed>
  <fix>3d</fix>
</trkpt>
<trkpt lat="33.8099956" lon="-118.3944323">
  <ele>-48.81</ele>
  <time>2026-09-02T22:08:33Z</time>
  <course>359.88</course>
  <speed>0.97</speed>
  <fix>3d</fix>
</trkpt>
<trkpt lat="33.8099983" lon="-118.3944321">
  <ele>-50.024</ele>
  <time>2026-09-02T22:08:33Z</time>
  <course>1.43</course>
  <speed>0.9500526301210896</speed>
  <fix>3d</fix>
</trkpt>
<trkpt lat="33.8099974" lon="-118.3944323">
  <ele>-48.82</ele>
  <time>2026-09-02T22:08:33Z</time>
  <course>359.85</course>
  <speed>0.97</speed>
  <fix>3d</fix>
</trkpt>
<trkpt lat="33.8099992" lon="-118.3944321">
  <ele>-50.026</ele>
  <time>2026-09-02T22:08:33Z</time>
  <course>1.42</course>
  <speed>0.9500526301210896</speed>
  <fix>3d</fix>
</trkpt>
<trkpt lat="33.8099974" lon="-118.3944323">
  <ele>-48.82</ele>
  <time>2026-09-02T22:08:33Z</time>
  <course>359.85</course>
  <speed>0.97</speed>
  <fix>3d</fix>
</trkpt>
<trkpt lat="33.8100001" lon="-118.3944321">
  <ele>-50.026</ele>
  <time>2026-09-02T22:08:33Z</time>
  <course>1.42</course>
  <speed>0.9500526301210896</speed>
  <fix>3d</fix>
</trkpt>
<trkpt lat="33.8099991" lon="-118.3944323">
  <ele>-48.82</ele>
  <time>2026-09-02T22:08:33Z</time>
  <course>359.81</course>
  <speed>0.97</speed>
  <fix>3d</fix>
</trkpt>
<trkpt lat="33.8100009" lon="-118.3944321">
  <ele>-50.026</ele>
  <time>2026-09-02T22:08:33Z</time>
  <course>1.41</course>
  <speed>0.9500526301210896</speed>
  <fix>3d</fix>
</trkpt>
<trkpt lat="33.8099991" lon="-118.3944323">
  <ele>-48.82</ele>
  <time>2026-09-02T22:08:33Z</time>
  <course>359.81</course>
  <speed>0.97</speed>
  <fix>3d</fix>
</trkpt>
<trkpt lat="33.8100018" lon="-118.3944321">
  <ele>-50.025</ele>
  <time>2026-09-02T22:08:33Z</time>
  <course>1.41</course>
  <speed>0.9500526301210896</speed>
  <fix>3d</fix>
</trkpt>
<trkpt lat="33.8100009" lon="-118.3944323">
  <ele>-48.82</ele>
  <time>2026-09-02T22:08:33Z</time>
  <course>359.81</course>
  <speed>0.97</speed>
  <fix>3d</fix>
</trkpt>
<trkpt lat="33.8100027" lon="-118.3944321">
  <ele>-50.025</ele>
  <time>2026-09-02T22:08:33Z</time>
  <course>1.41</course>
  <speed>0.9502105029939419</speed>
  <fix>3d</fix>
</trkpt>
<trkpt lat="33.8100009" lon="-118.3944323">
  <ele>-48.82</ele>
  <time>2026-09-02T22:08:33Z</time>
  <course>359.81</course>
  <speed>0.97</speed>
  <fix>3d</fix>
</trkpt>
<trkpt lat="33.8100036" lon="-118.3944321">
  <ele>-50.023</ele>
  <time>2026-09-02T22:08:33Z</time>
  <course>1.41</course>
  <speed>0.9500526301210896</speed>
  <fix>3d</fix>
</trkpt>
<trkpt lat="33.8100026" lon="-118.3944323">
  <ele>-48.81</ele>
  <time>2026-09-02T22:08:33Z</time>
  <course>359.8</course>
  <speed>0.97</speed>
  <fix>3d</fix>
</trkpt>
<trkpt lat="33.8100045" lon="-118.3944321">
  <ele>-50.021</ele>
  <time>2026-09-02T22:08:33Z</time>
  <course>1.41</course>
  <speed>0.9502105029939419</speed>
  <fix>3d</fix>
</trkpt>
<trkpt lat="33.8100026" lon="-118.3944323">
  <ele>-48.81</ele>
  <time>2026-09-02T22:08:33Z</time>
  <course>359.8</course>
  <speed>0.97</speed>
  <fix>3d</fix>
</trkpt>
<trkpt lat="33.8100053" lon="-118.3944321">
  <ele>-50.019</ele>
  <time>2026-09-02T22:08:33Z</time>
  <course>1.4</course>
  <speed>0.9502105029939419</speed>
  <fix>3d</fix>
</trkpt>
<trkpt lat="33.8100043" lon="-118.3944323">
  <ele>-48.81</ele>
  <time>2026-09-02T22:08:33Z</time>
  <course>359.79</course>
  <speed>0.97</speed>
  <fix>3d</fix>
</trkpt>
<trkpt lat="33.8100062" lon="-118.3944321">
  <ele>-50.018</ele>
  <time>2026-09-02T22:08:33Z</time>
  <course>1.4</course>
  <speed>0.9502105029939419</speed>
  <fix>3d</fix>
</trkpt>
<trkpt lat="33.8100043" lon="-118.3944323">
  <ele>-48.81</ele>
  <time>2026-09-02T22:08:33Z</time>
  <course>359.79</course>
  <speed>0.97</speed>
  <fix>3d</fix>
</trkpt>
<trkpt lat="33.8100071" lon="-118.3944321">
  <ele>-50.018</ele>
  <time>2026-09-02T22:08:33Z</time>
  <course>1.4</course>
  <speed>0.9500526301210896</speed>
  <fix>3d</fix>
</trkpt>
<trkpt lat="33.8100061" lon="-118.3944323">
  <ele>-48.8</ele>
  <time>2026-09-02T22:08:33Z</time>
  <course>359.77</course>
  <speed>0.97</speed>
  <fix>3d</fix>
</trkpt>
<trkpt lat="33.810008" lon="-118.3944321">
  <ele>-50.019</ele>
  <time>2026-09-02T22:08:33Z</time>
  <course>1.4</course>
  <speed>0.9502105029939419</speed>
  <fix>3d</fix>
</trkpt>
<trkpt lat="33.8100061" lon="-118.3944323">
  <ele>-48.8</ele>
  <time>2026-09-02T22:08:33Z</time>
  <course>359.77</course>
  <speed>0.97</speed>
  <fix>3d</fix>
</trkpt>
<trkpt lat="33.8100089" lon="-118.3944321">
  <ele>-50.019</ele>
  <time>2026-09-02T22:08:33Z</time>
  <course>1.4</course>
  <speed>0.9500526301210896</speed>
  <fix>3d</fix>
</trkpt>
<trkpt lat="33.8100079" lon="-118.3944323">
  <ele>-48.8</ele>
  <time>2026-09-02T22:08:33Z</time>
  <course>359.74</course>
  <speed>0.98</speed>
  <fix>3d</fix>
</trkpt>
<trkpt lat="33.8100097" lon="-118.3944321">
  <ele>-50.019</ele>
  <time>2026-09-02T22:08:33Z</time>
  <course>1.4</course>
  <speed>0.9502105029939419</speed>
  <fix>3d</fix>
</trkpt>
<trkpt lat="33.8100079" lon="-118.3944323">
  <ele>-48.8</ele>
  <time>2026-09-02T22:08:33Z</time>
  <course>359.74</course>
  <speed>0.98</speed>
  <fix>3d</fix>
</trkpt>
<trkpt lat="33.8100106" lon="-118.3944321">
  <ele>-50.019</ele>
  <time>2026-09-02T22:08:33Z</time>
  <course>1.4</course>
  <speed>0.9502105029939419</speed>
  <fix>3d</fix>
</trkpt>
<trkpt lat="33.8100096" lon="-118.3944323">
  <ele>-48.8</ele>
  <time>2026-09-02T22:08:33Z</time>
  <course>359.73</course>
  <speed>0.98</speed>
  <fix>3d</fix>
</trkpt>
<trkpt lat="33.8100115" lon="-118.3944321">
  <ele>-50.018</ele>
  <time>2026-09-02T22:08:33Z</time>
  <course>1.39</course>
  <speed>0.9502105029939419</speed>
  <fix>3d</fix>
</trkpt>
<trkpt lat="33.8100096" lon="-118.3944323">
  <ele>-48.8</ele>
  <time>2026-09-02T22:08:33Z</time>
  <course>359.73</course>
  <speed>0.98</speed>
  <fix>3d</fix>
</trkpt>
<trkpt lat="33.8100124" lon="-118.3944321">
  <ele>-50.017</ele>
  <time>2026-09-02T22:08:33Z</time>
  <course>1.39</course>
  <speed>0.9502105029939419</speed>
  <fix>3d</fix>
</trkpt>
<trkpt lat="33.8100114" lon="-118.3944323">
  <ele>-48.8</ele>
  <time>2026-09-02T22:08:33Z</time>
  <course>359.73</course>
  <speed>0.98</speed>
  <fix>3d</fix>
</trkpt>
<trkpt lat="33.8100133" lon="-118.3944321">
  <ele>-50.016</ele>
  <time>2026-09-02T22:08:33Z</time>
  <course>1.39</course>
  <speed>0.9502105029939419</speed>
  <fix>3d</fix>
</trkpt>
<trkpt lat="33.8100114" lon="-118.3944323">
  <ele>-48.8</ele>
  <time>2026-09-02T22:08:33Z</time>
  <course>359.73</course>
  <speed>0.98</speed>
  <fix>3d</fix>
</trkpt>
<trkpt lat="33.8100142" lon="-118.3944321">
  <ele>-50.016</ele>
  <time>2026-09-02T22:08:33Z</time>
  <course>1.39</course>
  <speed>0.9502105029939419</speed>
  <fix>3d</fix>
</trkpt>
<trkpt lat="33.8100132" lon="-118.3944323">
  <ele>-48.8</ele>
  <time>2026-09-02T22:08:33Z</time>
  <course>359.71</course>
  <speed>0.98</speed>
  <fix>3d</fix>
</trkpt>
<trkpt lat="33.810015" lon="-118.3944321">
  <ele>-50.018</ele>
  <time>2026-09-02T22:08:33Z</time>
  <course>1.39</course>
  <speed>0.9502105029939419</speed>
  <fix>3d</fix>
</trkpt>
<trkpt lat="33.8100132" lon="-118.3944323">
  <ele>-48.8</ele>
  <time>2026-09-02T22:08:33Z</time>
  <course>359.71</course>
  <speed>0.98</speed>
  <fix>3d</fix>
</trkpt>
<trkpt lat="33.8100159" lon="-118.3944321">
  <ele>-50.02</ele>
  <time>2026-09-02T22:08:33Z</time>
  <course>1.39</course>
  <speed>0.9602083107326242</speed>
  <fix>3d</fix>
</trkpt>
<trkpt lat="33.8100149" lon="-118.3944323">
  <ele>-48.81</ele>
  <time>2026-09-02T22:08:33Z</time>
  <course>359.69</course>
  <speed>0.98</speed>
  <fix>3d</fix>
</trkpt>
<trkpt lat="33.8100168" lon="-118.3944321">
  <ele>-50.023</ele>
  <time>2026-09-02T22:08:33Z</time>
  <course>1.38</course>
  <speed>0.9602083107326242</speed>
  <fix>3d</fix>
</trkpt>
<trkpt lat="33.8100149" lon="-118.3944323">
  <ele>-48.81</ele>
  <time>2026-09-02T22:08:33Z</time>
  <course>359.69</course>
  <speed>0.98</speed>
  <fix>3d</fix>
</trkpt>
<trkpt lat="33.8100177" lon="-118.3944321">
  <ele>-50.024</ele>
  <time>2026-09-02T22:08:33Z</time>
  <course>1.39</course>
  <speed>0.9602083107326242</speed>
  <fix>3d</fix>
</trkpt>
<trkpt lat="33.8100167" lon="-118.3944323">
  <ele>-48.81</ele>
  <time>2026-09-02T22:08:33Z</time>
  <course>359.65</course>
  <speed>0.98</speed>
  <fix>3d</fix>
</trkpt>
<trkpt lat="33.8100186" lon="-118.3944321">
  <ele>-50.024</ele>
  <time>2026-09-02T22:08:33Z</time>
  <course>1.38</course>
  <speed>0.9602083107326242</speed>
  <fix>3d</fix>
</trkpt>
<trkpt lat="33.8100167" lon="-118.3944323">
  <ele>-48.81</ele>
  <time>2026-09-02T22:08:33Z</time>
  <course>359.65</course>
  <speed>0.98</speed>
  <fix>3d</fix>
</trkpt>
<trkpt lat="33.8100195" lon="-118.3944321">
  <ele>-50.023</ele>
  <time>2026-09-02T22:08:33Z</time>
  <course>1.39</course>
  <speed>0.9602083107326242</speed>
  <fix>3d</fix>
</trkpt>
<trkpt lat="33.8100185" lon="-118.3944323">
  <ele>-48.81</ele>
  <time>2026-09-02T22:08:33Z</time>
  <course>359.62</course>
  <speed>0.98</speed>
  <fix>3d</fix>
</trkpt>
<trkpt lat="33.8100204" lon="-118.3944321">
  <ele>-50.021</ele>
  <time>2026-09-02T22:08:33Z</time>
  <course>1.39</course>
  <speed>0.9602083107326242</speed>
  <fix>3d</fix>
</trkpt>
<trkpt lat="33.8100185" lon="-118.3944323">
  <ele>-48.81</ele>
  <time>2026-09-02T22:08:33Z</time>
  <course>359.62</course>
  <speed>0.98</speed>
  <fix>3d</fix>
</trkpt>
<trkpt lat="33.8100213" lon="-118.3944321">
  <ele>-50.018</ele>
  <time>2026-09-02T22:08:33Z</time>
  <course>1.4</course>
  <speed>0.9602083107326242</speed>
  <fix>3d</fix>
</trkpt>
<trkpt lat="33.8100203" lon="-118.3944324">
  <ele>-48.8</ele>
  <time>2026-09-02T22:08:33Z</time>
  <course>359.6</course>
  <speed>0.98</speed>
  <fix>3d</fix>
</trkpt>
<trkpt lat="33.8100221" lon="-118.3944322">
  <ele>-50.015</ele>
  <time>2026-09-02T22:08:33Z</time>
  <course>1.42</course>
  <speed>0.9602083107326242</speed>
  <fix>3d</fix>
</trkpt>
<trkpt lat="33.8100203" lon="-118.3944324">
  <ele>-48.8</ele>
  <time>2026-09-02T22:08:33Z</time>
  <course>359.6</course>
  <speed>0.98</speed>
  <fix>3d</fix>
</trkpt>
<trkpt lat="33.810023" lon="-118.3944322">
  <ele>-50.013</ele>
  <time>2026-09-02T22:08:33Z</time>
  <course>1.45</course>
  <speed>0.9602083107326242</speed>
  <fix>3d</fix>
</trkpt>
<trkpt lat="33.810022" lon="-118.3944324">
  <ele>-48.8</ele>
  <time>2026-09-02T22:08:33Z</time>
  <course>359.64</course>
  <speed>0.98</speed>
  <fix>3d</fix>
</trkpt>
<trkpt lat="33.8100239" lon="-118.3944322">
  <ele>-50.012</ele>
  <time>2026-09-02T22:08:33Z</time>
  <course>1.49</course>
  <speed>0.9602083107326242</speed>
  <fix>3d</fix>
</trkpt>
<trkpt lat="33.810022" lon="-118.3944324">
  <ele>-48.8</ele>
  <time>2026-09-02T22:08:33Z</time>
  <course>359.64</course>
  <speed>0.98</speed>
  <fix>3d</fix>
</trkpt>
<trkpt lat="33.8100248" lon="-118.3944322">
  <ele>-50.014</ele>
  <time>2026-09-02T22:08:33Z</time>
  <course>1.54</course>
  <speed>0.9602083107326242</speed>
  <fix>3d</fix>
</trkpt>
<trkpt lat="33.8100237" lon="-118.3944324">
  <ele>-48.8</ele>
  <time>2026-09-02T22:08:33Z</time>
  <course>359.72</course>
  <speed>0.98</speed>
  <fix>3d</fix>
</trkpt>
<trkpt lat="33.8100257" lon="-118.3944322">
  <ele>-50.016</ele>
  <time>2026-09-02T22:08:33Z</time>
  <course>1.57</course>
  <speed>0.9602083107326242</speed>
  <fix>3d</fix>
</trkpt>
<trkpt lat="33.8100237" lon="-118.3944324">
  <ele>-48.8</ele>
  <time>2026-09-02T22:08:33Z</time>
  <course>359.72</course>
  <speed>0.98</speed>
  <fix>3d</fix>
</trkpt>
<trkpt lat="33.8100266" lon="-118.3944322">
  <ele>-50.018</ele>
  <time>2026-09-02T22:08:33Z</time>
  <course>1.62</course>
  <speed>0.9602083107326242</speed>
  <fix>3d</fix>
</trkpt>
<trkpt lat="33.8100256" lon="-118.3944324">
  <ele>-48.8</ele>
  <time>2026-09-02T22:08:33Z</time>
  <course>359.8</course>
  <speed>0.98</speed>
  <fix>3d</fix>
</trkpt>
<trkpt lat="33.8100275" lon="-118.3944322">
  <ele>-50.02</ele>
  <time>2026-09-02T22:08:33Z</time>
  <course>1.66</course>
  <speed>0.9602083107326242</speed>
  <fix>3d</fix>
</trkpt>
<trkpt lat="33.8100256" lon="-118.3944324">
  <ele>-48.8</ele>
  <time>2026-09-02T22:08:33Z</time>
  <course>359.8</course>
  <speed>0.98</speed>
  <fix>3d</fix>
</trkpt>
<trkpt lat="33.8100284" lon="-118.3944322">
  <ele>-50.021</ele>
  <time>2026-09-02T22:08:33Z</time>
  <course>1.69</course>
  <speed>0.9602083107326242</speed>
  <fix>3d</fix>
</trkpt>
<trkpt lat="33.8100273" lon="-118.3944324">
  <ele>-48.81</ele>
  <time>2026-09-02T22:08:33Z</time>
  <course>359.85</course>
  <speed>0.98</speed>
  <fix>3d</fix>
</trkpt>
<trkpt lat="33.8100292" lon="-118.3944322">
  <ele>-50.021</ele>
  <time>2026-09-02T22:08:33Z</time>
  <course>1.72</course>
  <speed>0.9602083107326242</speed>
  <fix>3d</fix>
</trkpt>
<trkpt lat="33.8100273" lon="-118.3944324">
  <ele>-48.81</ele>
  <time>2026-09-02T22:08:34Z</time>
  <course>359.85</course>
  <speed>0.98</speed>
  <fix>3d</fix>
</trkpt>
<trkpt lat="33.8100301" lon="-118.3944322">
  <ele>-50.02</ele>
  <time>2026-09-02T22:08:34Z</time>
  <course>1.74</course>
  <speed>0.9602083107326242</speed>
  <fix>3d</fix>
</trkpt>
<trkpt lat="33.8100291" lon="-118.3944324">
  <ele>-48.81</ele>
  <time>2026-09-02T22:08:34Z</time>
  <course>359.87</course>
  <speed>0.98</speed>
  <fix>3d</fix>
</trkpt>
<trkpt lat="33.810031" lon="-118.3944322">
  <ele>-50.019</ele>
  <time>2026-09-02T22:08:34Z</time>
  <course>1.76</course>
  <speed>0.9602083107326242</speed>
  <fix>3d</fix>
</trkpt>
<trkpt lat="33.8100291" lon="-118.3944324">
  <ele>-48.81</ele>
  <time>2026-09-02T22:08:34Z</time>
  <course>359.87</course>
  <speed>0.98</speed>
  <fix>3d</fix>
</trkpt>
<trkpt lat="33.8100319" lon="-118.3944322">
  <ele>-50.017</ele>
  <time>2026-09-02T22:08:34Z</time>
  <course>1.77</course>
  <speed>0.9602083107326242</speed>
  <fix>3d</fix>
</trkpt>
<trkpt lat="33.8100309" lon="-118.3944324">
  <ele>-48.81</ele>
  <time>2026-09-02T22:08:34Z</time>
  <course>359.89</course>
  <speed>0.99</speed>
  <fix>3d</fix>
</trkpt>
<trkpt lat="33.8100328" lon="-118.3944322">
  <ele>-50.016</ele>
  <time>2026-09-02T22:08:34Z</time>
  <course>1.79</course>
  <speed>0.9602083107326242</speed>
  <fix>3d</fix>
</trkpt>
<trkpt lat="33.8100309" lon="-118.3944324">
  <ele>-48.81</ele>
  <time>2026-09-02T22:08:34Z</time>
  <course>359.89</course>
  <speed>0.99</speed>
  <fix>3d</fix>
</trkpt>
<trkpt lat="33.8100337" lon="-118.3944322">
  <ele>-50.015</ele>
  <time>2026-09-02T22:08:34Z</time>
  <course>1.8</course>
  <speed>0.9602083107326242</speed>
  <fix>3d</fix>
</trkpt>
<trkpt lat="33.8100326" lon="-118.3944324">
  <ele>-48.81</ele>
  <time>2026-09-02T22:08:34Z</time>
  <course>359.91</course>
  <speed>0.99</speed>
  <fix>3d</fix>
</trkpt>
<trkpt lat="33.8100346" lon="-118.3944322">
  <ele>-50.015</ele>
  <time>2026-09-02T22:08:34Z</time>
  <course>1.8</course>
  <speed>0.9602083107326242</speed>
  <fix>3d</fix>
</trkpt>
<trkpt lat="33.8100326" lon="-118.3944324">
  <ele>-48.81</ele>
  <time>2026-09-02T22:08:34Z</time>
  <course>359.91</course>
  <speed>0.99</speed>
  <fix>3d</fix>
</trkpt>
<trkpt lat="33.8100355" lon="-118.3944322">
  <ele>-50.016</ele>
  <time>2026-09-02T22:08:34Z</time>
  <course>1.8</course>
  <speed>0.9602083107326242</speed>
  <fix>3d</fix>
</trkpt>
<trkpt lat="33.8100345" lon="-118.3944324">
  <ele>-48.81</ele>
  <time>2026-09-02T22:08:34Z</time>
  <course>359.92</course>
  <speed>0.99</speed>
  <fix>3d</fix>
</trkpt>
<trkpt lat="33.8100364" lon="-118.3944322">
  <ele>-50.018</ele>
  <time>2026-09-02T22:08:34Z</time>
  <course>1.8</course>
  <speed>0.9602083107326242</speed>
  <fix>3d</fix>
</trkpt>
<trkpt lat="33.8100345" lon="-118.3944324">
  <ele>-48.81</ele>
  <time>2026-09-02T22:08:34Z</time>
  <course>359.92</course>
  <speed>0.99</speed>
  <fix>3d</fix>
</trkpt>
<trkpt lat="33.8100373" lon="-118.3944322">
  <ele>-50.021</ele>
  <time>2026-09-02T22:08:34Z</time>
  <course>1.8</course>
  <speed>0.9602083107326242</speed>
  <fix>3d</fix>
</trkpt>
<trkpt lat="33.8100362" lon="-118.3944324">
  <ele>-48.81</ele>
  <time>2026-09-02T22:08:34Z</time>
  <course>359.94</course>
  <speed>0.99</speed>
  <fix>3d</fix>
</trkpt>
<trkpt lat="33.8100382" lon="-118.3944322">
  <ele>-50.024</ele>
  <time>2026-09-02T22:08:34Z</time>
  <course>1.8</course>
  <speed>0.9602083107326242</speed>
  <fix>3d</fix>
</trkpt>
<trkpt lat="33.8100362" lon="-118.3944324">
  <ele>-48.81</ele>
  <time>2026-09-02T22:08:34Z</time>
  <course>359.94</course>
  <speed>0.99</speed>
  <fix>3d</fix>
</trkpt>
<trkpt lat="33.810039" lon="-118.3944322">
  <ele>-50.026</ele>
  <time>2026-09-02T22:08:34Z</time>
  <course>1.8</course>
  <speed>0.9602083107326242</speed>
  <fix>3d</fix>
</trkpt>
<trkpt lat="33.8100381" lon="-118.3944324">
  <ele>-48.82</ele>
  <time>2026-09-02T22:08:34Z</time>
  <course>359.93</course>
  <speed>0.99</speed>
  <fix>3d</fix>
</trkpt>
<trkpt lat="33.8100399" lon="-118.3944322">
  <ele>-50.028</ele>
  <time>2026-09-02T22:08:34Z</time>
  <course>1.79</course>
  <speed>0.9602083107326242</speed>
  <fix>3d</fix>
</trkpt>
<trkpt lat="33.8100381" lon="-118.3944324">
  <ele>-48.82</ele>
  <time>2026-09-02T22:08:34Z</time>
  <course>359.93</course>
  <speed>0.99</speed>
  <fix>3d</fix>
</trkpt>
<trkpt lat="33.8100408" lon="-118.3944322">
  <ele>-50.028</ele>
  <time>2026-09-02T22:08:34Z</time>
  <course>1.79</course>
  <speed>0.9602083107326242</speed>
  <fix>3d</fix>
</trkpt>
<trkpt lat="33.8100398" lon="-118.3944324">
  <ele>-48.82</ele>
  <time>2026-09-02T22:08:34Z</time>
  <course>359.92</course>
  <speed>0.99</speed>
  <fix>3d</fix>
</trkpt>
<trkpt lat="33.8100417" lon="-118.3944322">
  <ele>-50.027</ele>
  <time>2026-09-02T22:08:34Z</time>
  <course>1.79</course>
  <speed>0.9602083107326242</speed>
  <fix>3d</fix>
</trkpt>
<trkpt lat="33.8100398" lon="-118.3944324">
  <ele>-48.82</ele>
  <time>2026-09-02T22:08:34Z</time>
  <course>359.92</course>
  <speed>0.99</speed>
  <fix>3d</fix>
</trkpt>
<trkpt lat="33.8100426" lon="-118.3944322">
  <ele>-50.025</ele>
  <time>2026-09-02T22:08:34Z</time>
  <course>1.79</course>
  <speed>0.9602083107326242</speed>
  <fix>3d</fix>
</trkpt>
<trkpt lat="33.8100416" lon="-118.3944324">
  <ele>-48.82</ele>
  <time>2026-09-02T22:08:34Z</time>
  <course>359.93</course>
  <speed>0.99</speed>
  <fix>3d</fix>
</trkpt>
<trkpt lat="33.8100435" lon="-118.3944322">
  <ele>-50.021</ele>
  <time>2026-09-02T22:08:34Z</time>
  <course>1.79</course>
  <speed>0.9602083107326242</speed>
  <fix>3d</fix>
</trkpt>
<trkpt lat="33.8100416" lon="-118.3944324">
  <ele>-48.82</ele>
  <time>2026-09-02T22:08:34Z</time>
  <course>359.93</course>
  <speed>0.99</speed>
  <fix>3d</fix>
</trkpt>
<trkpt lat="33.8100444" lon="-118.3944322">
  <ele>-50.018</ele>
  <time>2026-09-02T22:08:34Z</time>
  <course>1.78</course>
  <speed>0.9702061636580135</speed>
  <fix>3d</fix>
</trkpt>
<trkpt lat="33.8100434" lon="-118.3944324">
  <ele>-48.81</ele>
  <time>2026-09-02T22:08:34Z</time>
  <course>359.93</course>
  <speed>0.99</speed>
  <fix>3d</fix>
</trkpt>
<trkpt lat="33.8100453" lon="-118.3944322">
  <ele>-50.016</ele>
  <time>2026-09-02T22:08:34Z</time>
  <course>1.78</course>
  <speed>0.9702061636580135</speed>
  <fix>3d</fix>
</trkpt>
<trkpt lat="33.8100434" lon="-118.3944324">
  <ele>-48.81</ele>
  <time>2026-09-02T22:08:34Z</time>
  <course>359.93</course>
  <speed>0.99</speed>
  <fix>3d</fix>
</trkpt>
<trkpt lat="33.8100462" lon="-118.3944322">
  <ele>-50.016</ele>
  <time>2026-09-02T22:08:34Z</time>
  <course>1.78</course>
  <speed>0.9702061636580135</speed>
  <fix>3d</fix>
</trkpt>
<trkpt lat="33.8100452" lon="-118.3944324">
  <ele>-48.81</ele>
  <time>2026-09-02T22:08:34Z</time>
  <course>359.93</course>
  <speed>0.99</speed>
  <fix>3d</fix>
</trkpt>
<trkpt lat="33.8100471" lon="-118.3944322">
  <ele>-50.017</ele>
  <time>2026-09-02T22:08:34Z</time>
  <course>1.77</course>
  <speed>0.9702061636580135</speed>
  <fix>3d</fix>
</trkpt>
<trkpt lat="33.8100452" lon="-118.3944324">
  <ele>-48.81</ele>
  <time>2026-09-02T22:08:34Z</time>
  <course>359.93</course>
  <speed>0.99</speed>
  <fix>3d</fix>
</trkpt>
<trkpt lat="33.810048" lon="-118.3944322">
  <ele>-50.018</ele>
  <time>2026-09-02T22:08:34Z</time>
  <course>1.77</course>
  <speed>0.9702061636580135</speed>
  <fix>3d</fix>
</trkpt>
<trkpt lat="33.810047" lon="-118.3944324">
  <ele>-48.81</ele>
  <time>2026-09-02T22:08:34Z</time>
  <course>359.94</course>
  <speed>0.99</speed>
  <fix>3d</fix>
</trkpt>
<trkpt lat="33.8100489" lon="-118.3944322">
  <ele>-50.019</ele>
  <time>2026-09-02T22:08:34Z</time>
  <course>1.77</course>
  <speed>0.9702061636580135</speed>
  <fix>3d</fix>
</trkpt>
<trkpt lat="33.810047" lon="-118.3944324">
  <ele>-48.81</ele>
  <time>2026-09-02T22:08:34Z</time>
  <course>359.94</course>
  <speed>0.99</speed>
  <fix>3d</fix>
</trkpt>
<trkpt lat="33.8100498" lon="-118.3944322">
  <ele>-50.021</ele>
  <time>2026-09-02T22:08:34Z</time>
  <course>1.77</course>
  <speed>0.9702061636580135</speed>
  <fix>3d</fix>
</trkpt>
<trkpt lat="33.8100488" lon="-118.3944324">
  <ele>-48.81</ele>
  <time>2026-09-02T22:08:34Z</time>
  <course>359.94</course>
  <speed>0.99</speed>
  <fix>3d</fix>
</trkpt>
<trkpt lat="33.8100507" lon="-118.3944322">
  <ele>-50.023</ele>
  <time>2026-09-02T22:08:34Z</time>
  <course>1.77</course>
  <speed>0.9702061636580135</speed>
  <fix>3d</fix>
</trkpt>
<trkpt lat="33.8100488" lon="-118.3944324">
  <ele>-48.81</ele>
  <time>2026-09-02T22:08:34Z</time>
  <course>359.94</course>
  <speed>0.99</speed>
  <fix>3d</fix>
</trkpt>
<trkpt lat="33.8100516" lon="-118.3944322">
  <ele>-50.023</ele>
  <time>2026-09-02T22:08:34Z</time>
  <course>1.76</course>
  <speed>0.9702061636580135</speed>
  <fix>3d</fix>
</trkpt>
<trkpt lat="33.8100505" lon="-118.3944324">
  <ele>-48.81</ele>
  <time>2026-09-02T22:08:34Z</time>
  <course>359.94</course>
  <speed>0.99</speed>
  <fix>3d</fix>
</trkpt>
<trkpt lat="33.8100525" lon="-118.3944322">
  <ele>-50.023</ele>
  <time>2026-09-02T22:08:34Z</time>
  <course>1.76</course>
  <speed>0.9702061636580135</speed>
  <fix>3d</fix>
</trkpt>
<trkpt lat="33.8100505" lon="-118.3944324">
  <ele>-48.81</ele>
  <time>2026-09-02T22:08:34Z</time>
  <course>359.94</course>
  <speed>0.99</speed>
  <fix>3d</fix>
</trkpt>
<trkpt lat="33.8100534" lon="-118.3944322">
  <ele>-50.023</ele>
  <time>2026-09-02T22:08:34Z</time>
  <course>1.75</course>
  <speed>0.9702061636580135</speed>
  <fix>3d</fix>
</trkpt>
<trkpt lat="33.8100522" lon="-118.3944324">
  <ele>-48.81</ele>
  <time>2026-09-02T22:08:34Z</time>
  <course>359.93</course>
  <speed>0.99</speed>
  <fix>3d</fix>
</trkpt>
<trkpt lat="33.8100542" lon="-118.3944322">
  <ele>-50.022</ele>
  <time>2026-09-02T22:08:34Z</time>
  <course>1.75</course>
  <speed>0.9702061636580135</speed>
  <fix>3d</fix>
</trkpt>
<trkpt lat="33.8100522" lon="-118.3944324">
  <ele>-48.81</ele>
  <time>2026-09-02T22:08:34Z</time>
  <course>359.93</course>
  <speed>0.99</speed>
  <fix>3d</fix>
</trkpt>
<trkpt lat="33.8100551" lon="-118.3944322">
  <ele>-50.02</ele>
  <time>2026-09-02T22:08:34Z</time>
  <course>1.75</course>
  <speed>0.9702061636580135</speed>
  <fix>3d</fix>
</trkpt>
<trkpt lat="33.8100541" lon="-118.3944324">
  <ele>-48.81</ele>
  <time>2026-09-02T22:08:34Z</time>
  <course>359.93</course>
  <speed>0.99</speed>
  <fix>3d</fix>
</trkpt>
<trkpt lat="33.810056" lon="-118.3944322">
  <ele>-50.019</ele>
  <time>2026-09-02T22:08:34Z</time>
  <course>1.74</course>
  <speed>0.9702061636580135</speed>
  <fix>3d</fix>
</trkpt>
<trkpt lat="33.8100541" lon="-118.3944324">
  <ele>-48.81</ele>
  <time>2026-09-02T22:08:34Z</time>
  <course>359.93</course>
  <speed>0.99</speed>
  <fix>3d</fix>
</trkpt>
<trkpt lat="33.8100569" lon="-118.3944322">
  <ele>-50.018</ele>
  <time>2026-09-02T22:08:34Z</time>
  <course>1.74</course>
  <speed>0.9702061636580135</speed>
  <fix>3d</fix>
</trkpt>
<trkpt lat="33.8100558" lon="-118.3944324">
  <ele>-48.81</ele>
  <time>2026-09-02T22:08:34Z</time>
  <course>359.95</course>
  <speed>0.99</speed>
  <fix>3d</fix>
</trkpt>
<trkpt lat="33.8100578" lon="-118.3944322">
  <ele>-50.018</ele>
  <time>2026-09-02T22:08:34Z</time>
  <course>1.73</course>
  <speed>0.9702061636580135</speed>
  <fix>3d</fix>
</trkpt>
<trkpt lat="33.8100558" lon="-118.3944324">
  <ele>-48.81</ele>
  <time>2026-09-02T22:08:34Z</time>
  <course>359.95</course>
  <speed>0.99</speed>
  <fix>3d</fix>
</trkpt>
<trkpt lat="33.8100587" lon="-118.3944322">
  <ele>-50.019</ele>
  <time>2026-09-02T22:08:34Z</time>
  <course>1.73</course>
  <speed>0.9702061636580135</speed>
  <fix>3d</fix>
</trkpt>
<trkpt lat="33.8100577" lon="-118.3944324">
  <ele>-48.81</ele>
  <time>2026-09-02T22:08:34Z</time>
  <course>359.95</course>
  <speed>0.99</speed>
  <fix>3d</fix>
</trkpt>
<trkpt lat="33.8100596" lon="-118.3944322">
  <ele>-50.02</ele>
  <time>2026-09-02T22:08:34Z</time>
  <course>1.71</course>
  <speed>0.9702061636580135</speed>
  <fix>3d</fix>
</trkpt>
<trkpt lat="33.8100577" lon="-118.3944324">
  <ele>-48.81</ele>
  <time>2026-09-02T22:08:34Z</time>
  <course>359.95</course>
  <speed>0.99</speed>
  <fix>3d</fix>
</trkpt>
<trkpt lat="33.8100605" lon="-118.3944322">
  <ele>-50.021</ele>
  <time>2026-09-02T22:08:34Z</time>
  <course>1.7</course>
  <speed>0.9702061636580135</speed>
  <fix>3d</fix>
</trkpt>
<trkpt lat="33.8100594" lon="-118.3944324">
  <ele>-48.81</ele>
  <time>2026-09-02T22:08:34Z</time>
  <course>359.94</course>
  <speed>1.0</speed>
  <fix>3d</fix>
</trkpt>
<trkpt lat="33.8100614" lon="-118.3944322">
  <ele>-50.021</ele>
  <time>2026-09-02T22:08:34Z</time>
  <course>1.69</course>
  <speed>0.9702061636580135</speed>
  <fix>3d</fix>
</trkpt>
<trkpt lat="33.8100594" lon="-118.3944324">
  <ele>-48.81</ele>
  <time>2026-09-02T22:08:34Z</time>
  <course>359.94</course>
  <speed>1.0</speed>
  <fix>3d</fix>
</trkpt>
<trkpt lat="33.8100623" lon="-118.3944322">
  <ele>-50.02</ele>
  <time>2026-09-02T22:08:34Z</time>
  <course>1.69</course>
  <speed>0.9702061636580135</speed>
  <fix>3d</fix>
</trkpt>
<trkpt lat="33.8100613" lon="-118.3944324">
  <ele>-48.81</ele>
  <time>2026-09-02T22:08:34Z</time>
  <course>359.94</course>
  <speed>1.0</speed>
  <fix>3d</fix>
</trkpt>
<trkpt lat="33.8100632" lon="-118.3944322">
  <ele>-50.018</ele>
  <time>2026-09-02T22:08:34Z</time>
  <course>1.69</course>
  <speed>0.9702061636580135</speed>
  <fix>3d</fix>
</trkpt>
<trkpt lat="33.8100613" lon="-118.3944324">
  <ele>-48.81</ele>
  <time>2026-09-02T22:08:34Z</time>
  <course>359.94</course>
  <speed>1.0</speed>
  <fix>3d</fix>
</trkpt>
<trkpt lat="33.8100641" lon="-118.3944322">
  <ele>-50.016</ele>
  <time>2026-09-02T22:08:34Z</time>
  <course>1.69</course>
  <speed>0.9802040603874276</speed>
  <fix>3d</fix>
</trkpt>
<trkpt lat="33.810063" lon="-118.3944324">
  <ele>-48.8</ele>
  <time>2026-09-02T22:08:34Z</time>
  <course>359.95</course>
  <speed>1.0</speed>
  <fix>3d</fix>
</trkpt>
<trkpt lat="33.810065" lon="-118.3944322">
  <ele>-50.015</ele>
  <time>2026-09-02T22:08:34Z</time>
  <course>1.68</course>
  <speed>0.9802040603874276</speed>
  <fix>3d</fix>
</trkpt>
<trkpt lat="33.810063" lon="-118.3944324">
  <ele>-48.8</ele>
  <time>2026-09-02T22:08:34Z</time>
  <course>359.95</course>
  <speed>1.0</speed>
  <fix>3d</fix>
</trkpt>
<trkpt lat="33.8100659" lon="-118.3944322">
  <ele>-50.015</ele>
  <time>2026-09-02T22:08:34Z</time>
  <course>1.68</course>
  <speed>0.9802040603874276</speed>
  <fix>3d</fix>
</trkpt>
<trkpt lat="33.8100649" lon="-118.3944324">
  <ele>-48.8</ele>
  <time>2026-09-02T22:08:34Z</time>
  <course>359.96</course>
  <speed>1.0</speed>
  <fix>3d</fix>
</trkpt>
<trkpt lat="33.8100668" lon="-118.3944322">
  <ele>-50.017</ele>
  <time>2026-09-02T22:08:34Z</time>
  <course>1.68</course>
  <speed>0.9802040603874276</speed>
  <fix>3d</fix>
</trkpt>
<trkpt lat="33.8100649" lon="-118.3944324">
  <ele>-48.8</ele>
  <time>2026-09-02T22:08:34Z</time>
  <course>359.96</course>
  <speed>1.0</speed>
  <fix>3d</fix>
</trkpt>
<trkpt lat="33.8100677" lon="-118.3944322">
  <ele>-50.018</ele>
  <time>2026-09-02T22:08:34Z</time>
  <course>1.68</course>
  <speed>0.9802040603874276</speed>
  <fix>3d</fix>
</trkpt>
<trkpt lat="33.8100666" lon="-118.3944325">
  <ele>-48.8</ele>
  <time>2026-09-02T22:08:34Z</time>
  <course>359.99</course>
  <speed>1.0</speed>
  <fix>3d</fix>
</trkpt>
<trkpt lat="33.8100686" lon="-118.3944322">
  <ele>-50.019</ele>
  <time>2026-09-02T22:08:34Z</time>
  <course>1.68</course>
  <speed>0.9802040603874276</speed>
  <fix>3d</fix>
</trkpt>
<trkpt lat="33.8100666" lon="-118.3944325">
  <ele>-48.8</ele>
  <time>2026-09-02T22:08:34Z</time>
  <course>359.99</course>
  <speed>1.0</speed>
  <fix>3d</fix>
</trkpt>
<trkpt lat="33.8100695" lon="-118.3944322">
  <ele>-50.019</ele>
  <time>2026-09-02T22:08:34Z</time>
  <course>1.7</course>
  <speed>0.9802040603874276</speed>
  <fix>3d</fix>
</trkpt>
<trkpt lat="33.8100685" lon="-118.3944325">
  <ele>-48.81</ele>
  <time>2026-09-02T22:08:34Z</time>
  <course>0.03</course>
  <speed>1.0</speed>
  <fix>3d</fix>
</trkpt>
<trkpt lat="33.8100704" lon="-118.3944322">
  <ele>-50.02</ele>
  <time>2026-09-02T22:08:34Z</time>
  <course>1.73</course>
  <speed>0.9702061636580135</speed>
  <fix>3d</fix>
</trkpt>
<trkpt lat="33.8100685" lon="-118.3944325">
  <ele>-48.81</ele>
  <time>2026-09-02T22:08:34Z</time>
  <course>0.03</course>
  <speed>1.0</speed>
  <fix>3d</fix>
</trkpt>
<trkpt lat="33.8100713" lon="-118.3944322">
  <ele>-50.019</ele>
  <time>2026-09-02T22:08:34Z</time>
  <course>1.78</course>
  <speed>0.9802040603874276</speed>
  <fix>3d</fix>
</trkpt>
<trkpt lat="33.8100703" lon="-118.3944325">
  <ele>-48.81</ele>
  <time>2026-09-02T22:08:34Z</time>
  <course>0.12</course>
  <speed>1.0</speed>
  <fix>3d</fix>
</trkpt>
<trkpt lat="33.8100722" lon="-118.3944322">
  <ele>-50.019</ele>
  <time>2026-09-02T22:08:34Z</time>
  <course>1.83</course>
  <speed>0.9702061636580135</speed>
  <fix>3d</fix>
</trkpt>
<trkpt lat="33.8100703" lon="-118.3944325">
  <ele>-48.81</ele>
  <time>2026-09-02T22:08:34Z</time>
  <course>0.12</course>
  <speed>1.0</speed>
  <fix>3d</fix>
</trkpt>
<trkpt lat="33.8100731" lon="-118.3944322">
  <ele>-50.02</ele>
  <time>2026-09-02T22:08:34Z</time>
  <course>1.87</course>
  <speed>0.9702061636580135</speed>
  <fix>3d</fix>
</trkpt>
<trkpt lat="33.8100721" lon="-118.3944325">
  <ele>-48.81</ele>
  <time>2026-09-02T22:08:34Z</time>
  <course>0.2</course>
  <speed>1.0</speed>
  <fix>3d</fix>
</trkpt>
<trkpt lat="33.810074" lon="-118.3944322">
  <ele>-50.02</ele>
  <time>2026-09-02T22:08:34Z</time>
  <course>1.91</course>
  <speed>0.9702061636580135</speed>
  <fix>3d</fix>
</trkpt>
<trkpt lat="33.8100721" lon="-118.3944325">
  <ele>-48.81</ele>
  <time>2026-09-02T22:08:34Z</time>
  <course>0.2</course>
  <speed>1.0</speed>
  <fix>3d</fix>
</trkpt>
<trkpt lat="33.8100749" lon="-118.3944322">
  <ele>-50.02</ele>
  <time>2026-09-02T22:08:34Z</time>
  <course>1.94</course>
  <speed>0.9702061636580135</speed>
  <fix>3d</fix>
</trkpt>
<trkpt lat="33.810074" lon="-118.3944325">
  <ele>-48.81</ele>
  <time>2026-09-02T22:08:34Z</time>
  <course>0.26</course>
  <speed>1.0</speed>
  <fix>3d</fix>
</trkpt>
<trkpt lat="33.8100758" lon="-118.3944322">
  <ele>-50.022</ele>
  <time>2026-09-02T22:08:34Z</time>
  <course>1.97</course>
  <speed>0.9704638066409278</speed>
  <fix>3d</fix>
</trkpt>
<trkpt lat="33.810074" lon="-118.3944325">
  <ele>-48.81</ele>
  <time>2026-09-02T22:08:34Z</time>
  <course>0.26</course>
  <speed>1.0</speed>
  <fix>3d</fix>
</trkpt>
<trkpt lat="33.8100767" lon="-118.3944322">
  <ele>-50.022</ele>
  <time>2026-09-02T22:08:34Z</time>
  <course>2.0</course>
  <speed>0.9702061636580135</speed>
  <fix>3d</fix>
</trkpt>
<trkpt lat="33.8100757" lon="-118.3944325">
  <ele>-48.81</ele>
  <time>2026-09-02T22:08:34Z</time>
  <course>0.32</course>
  <speed>1.0</speed>
  <fix>3d</fix>
</trkpt>
<trkpt lat="33.8100776" lon="-118.3944322">
  <ele>-50.023</ele>
  <time>2026-09-02T22:08:34Z</time>
  <course>2.02</course>
  <speed>0.9704638066409278</speed>
  <fix>3d</fix>
</trkpt>
<trkpt lat="33.8100757" lon="-118.3944325">
  <ele>-48.81</ele>
  <time>2026-09-02T22:08:34Z</time>
  <course>0.32</course>
  <speed>1.0</speed>
  <fix>3d</fix>
</trkpt>
<trkpt lat="33.8100785" lon="-118.3944322">
  <ele>-50.023</ele>
  <time>2026-09-02T22:08:34Z</time>
  <course>2.04</course>
  <speed>0.9702061636580135</speed>
  <fix>3d</fix>
</trkpt>
<trkpt lat="33.8100776" lon="-118.3944325">
  <ele>-48.81</ele>
  <time>2026-09-02T22:08:34Z</time>
  <course>0.38</course>
  <speed>1.0</speed>
  <fix>3d</fix>
</trkpt>
<trkpt lat="33.8100794" lon="-118.3944322">
  <ele>-50.023</ele>
  <time>2026-09-02T22:08:34Z</time>
  <course>2.05</course>
  <speed>0.9704638066409278</speed>
  <fix>3d</fix>
</trkpt>
<trkpt lat="33.8100776" lon="-118.3944325">
  <ele>-48.81</ele>
  <time>2026-09-02T22:08:34Z</time>
  <course>0.38</course>
  <speed>1.0</speed>
  <fix>3d</fix>
</trkpt>
<trkpt lat="33.8100803" lon="-118.3944322">
  <ele>-50.021</ele>
  <time>2026-09-02T22:08:34Z</time>
  <course>2.05</course>
  <speed>0.9702061636580135</speed>
  <fix>3d</fix>
</trkpt>
<trkpt lat="33.8100793" lon="-118.3944325">
  <ele>-48.8</ele>
  <time>2026-09-02T22:08:34Z</time>
  <course>0.4</course>
  <speed>1.0</speed>
  <fix>3d</fix>
</trkpt>
<trkpt lat="33.8100812" lon="-118.3944322">
  <ele>-50.018</ele>
  <time>2026-09-02T22:08:34Z</time>
  <course>2.06</course>
  <speed>0.9704638066409278</speed>
  <fix>3d</fix>
</trkpt>
<trkpt lat="33.8100793" lon="-118.3944325">
  <ele>-48.8</ele>
  <time>2026-09-02T22:08:34Z</time>
  <course>0.4</course>
  <speed>1.0</speed>
  <fix>3d</fix>
</trkpt>
<trkpt lat="33.8100821" lon="-118.3944322">
  <ele>-50.016</ele>
  <time>2026-09-02T22:08:34Z</time>
  <course>2.07</course>
  <speed>0.9702061636580135</speed>
  <fix>3d</fix>
</trkpt>
<trkpt lat="33.8100812" lon="-118.3944325">
  <ele>-48.8</ele>
  <time>2026-09-02T22:08:34Z</time>
  <course>0.42</course>
  <speed>1.0</speed>
  <fix>3d</fix>
</trkpt>
<trkpt lat="33.810083" lon="-118.3944322">
  <ele>-50.014</ele>
  <time>2026-09-02T22:08:34Z</time>
  <course>2.06</course>
  <speed>0.9702061636580135</speed>
  <fix>3d</fix>
</trkpt>
<trkpt lat="33.8100812" lon="-118.3944325">
  <ele>-48.8</ele>
  <time>2026-09-02T22:08:34Z</time>
  <course>0.42</course>
  <speed>1.0</speed>
  <fix>3d</fix>
</trkpt>
<trkpt lat="33.8100839" lon="-118.3944322">
  <ele>-50.014</ele>
  <time>2026-09-02T22:08:34Z</time>
  <course>2.07</course>
  <speed>0.9702061636580135</speed>
  <fix>3d</fix>
</trkpt>
<trkpt lat="33.8100829" lon="-118.3944325">
  <ele>-48.8</ele>
  <time>2026-09-02T22:08:34Z</time>
  <course>0.45</course>
  <speed>1.0</speed>
  <fix>3d</fix>
</trkpt>
<trkpt lat="33.8100848" lon="-118.3944322">
  <ele>-50.015</ele>
  <time>2026-09-02T22:08:34Z</time>
  <course>2.06</course>
  <speed>0.9702061636580135</speed>
  <fix>3d</fix>
</trkpt>
<trkpt lat="33.8100829" lon="-118.3944325">
  <ele>-48.8</ele>
  <time>2026-09-02T22:08:34Z</time>
  <course>0.45</course>
  <speed>1.0</speed>
  <fix>3d</fix>
</trkpt>
<trkpt lat="33.8100857" lon="-118.3944322">
  <ele>-50.016</ele>
  <time>2026-09-02T22:08:34Z</time>
  <course>2.06</course>
  <speed>0.9702061636580135</speed>
  <fix>3d</fix>
</trkpt>
<trkpt lat="33.8100848" lon="-118.3944324">
  <ele>-48.8</ele>
  <time>2026-09-02T22:08:34Z</time>
  <course>0.47</course>
  <speed>1.0</speed>
  <fix>3d</fix>
</trkpt>
<trkpt lat="33.8100866" lon="-118.3944322">
  <ele>-50.018</ele>
  <time>2026-09-02T22:08:34Z</time>
  <course>2.05</course>
  <speed>0.9702061636580135</speed>
  <fix>3d</fix>
</trkpt>
<trkpt lat="33.8100848" lon="-118.3944324">
  <ele>-48.8</ele>
  <time>2026-09-02T22:08:34Z</time>
  <course>0.47</course>
  <speed>1.0</speed>
  <fix>3d</fix>
</trkpt>
<trkpt lat="33.8100875" lon="-118.3944322">
  <ele>-50.018</ele>
  <time>2026-09-02T22:08:34Z</time>
  <course>2.02</course>
  <speed>0.9702061636580135</speed>
  <fix>3d</fix>
</trkpt>
<trkpt lat="33.8100866" lon="-118.3944324">
  <ele>-48.8</ele>
  <time>2026-09-02T22:08:34Z</time>
  <course>0.46</course>
  <speed>0.99</speed>
  <fix>3d</fix>
</trkpt>
<trkpt lat="33.8100884" lon="-118.3944322">
  <ele>-50.018</ele>
  <time>2026-09-02T22:08:34Z</time>
  <course>1.97</course>
  <speed>0.9702061636580135</speed>
  <fix>3d</fix>
</trkpt>
<trkpt lat="33.8100866" lon="-118.3944324">
  <ele>-48.8</ele>
  <time>2026-09-02T22:08:34Z</time>
  <course>0.46</course>
  <speed>0.99</speed>
  <fix>3d</fix>
</trkpt>
<trkpt lat="33.8100893" lon="-118.3944322">
  <ele>-50.017</ele>
  <time>2026-09-02T22:08:34Z</time>
  <course>1.92</course>
  <speed>0.9702061636580135</speed>
  <fix>3d</fix>
</trkpt>
<trkpt lat="33.8100884" lon="-118.3944324">
  <ele>-48.81</ele>
  <time>2026-09-02T22:08:34Z</time>
  <course>0.4</course>
  <speed>0.99</speed>
  <fix>3d</fix>
</trkpt>
<trkpt lat="33.8100902" lon="-118.3944322">
  <ele>-50.016</ele>
  <time>2026-09-02T22:08:34Z</time>
  <course>1.87</course>
  <speed>0.9702061636580135</speed>
  <fix>3d</fix>
</trkpt>
<trkpt lat="33.8100884" lon="-118.3944324">
  <ele>-48.81</ele>
  <time>2026-09-02T22:08:34Z</time>
  <course>0.4</course>
  <speed>0.99</speed>
  <fix>3d</fix>
</trkpt>
<trkpt lat="33.8100911" lon="-118.3944322">
  <ele>-50.016</ele>
  <time>2026-09-02T22:08:34Z</time>
  <course>1.83</course>
  <speed>0.9702061636580135</speed>
  <fix>3d</fix>
</trkpt>
<trkpt lat="33.8100902" lon="-118.3944324">
  <ele>-48.81</ele>
  <time>2026-09-02T22:08:34Z</time>
  <course>0.34</course>
  <speed>0.99</speed>
  <fix>3d</fix>
</trkpt>
<trkpt lat="33.810092" lon="-118.3944322">
  <ele>-50.017</ele>
  <time>2026-09-02T22:08:34Z</time>
  <course>1.77</course>
  <speed>0.9702061636580135</speed>
  <fix>3d</fix>
</trkpt>
<trkpt lat="33.8100902" lon="-118.3944324">
  <ele>-48.81</ele>
  <time>2026-09-02T22:08:34Z</time>
  <course>0.34</course>
  <speed>0.99</speed>
  <fix>3d</fix>
</trkpt>
<trkpt lat="33.8100929" lon="-118.3944322">
  <ele>-50.017</ele>
  <time>2026-09-02T22:08:34Z</time>
  <course>1.74</course>
  <speed>0.9702061636580135</speed>
  <fix>3d</fix>
</trkpt>
<trkpt lat="33.810092" lon="-118.3944324">
  <ele>-48.81</ele>
  <time>2026-09-02T22:08:34Z</time>
  <course>0.3</course>
  <speed>0.99</speed>
  <fix>3d</fix>
</trkpt>
<trkpt lat="33.8100938" lon="-118.3944322">
  <ele>-50.019</ele>
  <time>2026-09-02T22:08:34Z</time>
  <course>1.7</course>
  <speed>0.9702061636580135</speed>
  <fix>3d</fix>
</trkpt>
<trkpt lat="33.810092" lon="-118.3944324">
  <ele>-48.81</ele>
  <time>2026-09-02T22:08:34Z</time>
  <course>0.3</course>
  <speed>0.99</speed>
  <fix>3d</fix>
</trkpt>
<trkpt lat="33.8100947" lon="-118.3944322">
  <ele>-50.019</ele>
  <time>2026-09-02T22:08:34Z</time>
  <course>1.68</course>
  <speed>0.9702061636580135</speed>
  <fix>3d</fix>
</trkpt>
<trkpt lat="33.8100937" lon="-118.3944324">
  <ele>-48.81</ele>
  <time>2026-09-02T22:08:34Z</time>
  <course>0.29</course>
  <speed>0.99</speed>
  <fix>3d</fix>
</trkpt>
<trkpt lat="33.8100956" lon="-118.3944322">
  <ele>-50.02</ele>
  <time>2026-09-02T22:08:34Z</time>
  <course>1.65</course>
  <speed>0.9702061636580135</speed>
  <fix>3d</fix>
</trkpt>
<trkpt lat="33.8100937" lon="-118.3944324">
  <ele>-48.81</ele>
  <time>2026-09-02T22:08:34Z</time>
  <course>0.29</course>
  <speed>0.99</speed>
  <fix>3d</fix>
</trkpt>
<trkpt lat="33.8100965" lon="-118.3944322">
  <ele>-50.021</ele>
  <time>2026-09-02T22:08:34Z</time>
  <course>1.63</course>
  <speed>0.9702061636580135</speed>
  <fix>3d</fix>
</trkpt>
<trkpt lat="33.8100955" lon="-118.3944324">
  <ele>-48.81</ele>
  <time>2026-09-02T22:08:34Z</time>
  <course>0.27</course>
  <speed>0.99</speed>
  <fix>3d</fix>
</trkpt>
<trkpt lat="33.8100974" lon="-118.3944322">
  <ele>-50.021</ele>
  <time>2026-09-02T22:08:34Z</time>
  <course>1.6</course>
  <speed>0.9702061636580135</speed>
  <fix>3d</fix>
</trkpt>
<trkpt lat="33.8100955" lon="-118.3944324">
  <ele>-48.81</ele>
  <time>2026-09-02T22:08:34Z</time>
  <course>0.27</course>
  <speed>0.99</speed>
  <fix>3d</fix>
</trkpt>
<trkpt lat="33.8100983" lon="-118.3944322">
  <ele>-50.021</ele>
  <time>2026-09-02T22:08:34Z</time>
  <course>1.58</course>
  <speed>0.9702061636580135</speed>
  <fix>3d</fix>
</trkpt>
<trkpt lat="33.8100972" lon="-118.3944323">
  <ele>-48.82</ele>
  <time>2026-09-02T22:08:34Z</time>
  <course>0.25</course>
  <speed>0.99</speed>
  <fix>3d</fix>
</trkpt>
<trkpt lat="33.8100992" lon="-118.3944322">
  <ele>-50.02</ele>
  <time>2026-09-02T22:08:34Z</time>
  <course>1.56</course>
  <speed>0.9702061636580135</speed>
  <fix>3d</fix>
</trkpt>
<trkpt lat="33.8100972" lon="-118.3944323">
  <ele>-48.82</ele>
  <time>2026-09-02T22:08:34Z</time>
  <course>0.25</course>
  <speed>0.99</speed>
  <fix>3d</fix>
</trkpt>
<trkpt lat="33.8101001" lon="-118.3944322">
  <ele>-50.02</ele>
  <time>2026-09-02T22:08:34Z</time>
  <course>1.51</course>
  <speed>0.9702061636580135</speed>
  <fix>3d</fix>
</trkpt>
<trkpt lat="33.8100991" lon="-118.3944323">
  <ele>-48.82</ele>
  <time>2026-09-02T22:08:34Z</time>
  <course>0.21</course>
  <speed>0.99</speed>
  <fix>3d</fix>
</trkpt>
<trkpt lat="33.810101" lon="-118.3944321">
  <ele>-50.02</ele>
  <time>2026-09-02T22:08:34Z</time>
  <course>1.46</course>
  <speed>0.9702061636580135</speed>
  <fix>3d</fix>
</trkpt>
<trkpt lat="33.8100991" lon="-118.3944323">
  <ele>-48.82</ele>
  <time>2026-09-02T22:08:34Z</time>
  <course>0.21</course>
  <speed>0.99</speed>
  <fix>3d</fix>
</trkpt>
<trkpt lat="33.8101019" lon="-118.3944321">
  <ele>-50.02</ele>
  <time>2026-09-02T22:08:34Z</time>
  <course>1.4</course>
  <speed>0.9702061636580135</speed>
  <fix>3d</fix>
</trkpt>
<trkpt lat="33.8101008" lon="-118.3944323">
  <ele>-48.82</ele>
  <time>2026-09-02T22:08:34Z</time>
  <course>0.14</course>
  <speed>0.99</speed>
  <fix>3d</fix>
</trkpt>
<trkpt lat="33.8101028" lon="-118.3944321">
  <ele>-50.021</ele>
  <time>2026-09-02T22:08:34Z</time>
  <course>1.34</course>
  <speed>0.9702061636580135</speed>
  <fix>3d</fix>
</trkpt>
<trkpt lat="33.8101008" lon="-118.3944323">
  <ele>-48.82</ele>
  <time>2026-09-02T22:08:34Z</time>
  <course>0.14</course>
  <speed>0.99</speed>
  <fix>3d</fix>
</trkpt>
<trkpt lat="33.8101037" lon="-118.3944321">
  <ele>-50.022</ele>
  <time>2026-09-02T22:08:34Z</time>
  <course>1.29</course>
  <speed>0.9702061636580135</speed>
  <fix>3d</fix>
</trkpt>
<trkpt lat="33.8101027" lon="-118.3944323">
  <ele>-48.82</ele>
  <time>2026-09-02T22:08:34Z</time>
  <course>0.05</course>
  <speed>0.99</speed>
  <fix>3d</fix>
</trkpt>
<trkpt lat="33.8101046" lon="-118.3944321">
  <ele>-50.022</ele>
  <time>2026-09-02T22:08:34Z</time>
  <course>1.25</course>
  <speed>0.9702061636580135</speed>
  <fix>3d</fix>
</trkpt>
<trkpt lat="33.8101027" lon="-118.3944323">
  <ele>-48.82</ele>
  <time>2026-09-02T22:08:34Z</time>
  <course>0.05</course>
  <speed>0.99</speed>
  <fix>3d</fix>
</trkpt>
<trkpt lat="33.8101055" lon="-118.3944321">
  <ele>-50.023</ele>
  <time>2026-09-02T22:08:34Z</time>
  <course>1.21</course>
  <speed>0.9702061636580135</speed>
  <fix>3d</fix>
</trkpt>
<trkpt lat="33.8101044" lon="-118.3944323">
  <ele>-48.82</ele>
  <time>2026-09-02T22:08:34Z</time>
  <course>359.98</course>
  <speed>0.99</speed>
  <fix>3d</fix>
</trkpt>
<trkpt lat="33.8101063" lon="-118.3944321">
  <ele>-50.022</ele>
  <time>2026-09-02T22:08:34Z</time>
  <course>1.18</course>
  <speed>0.9702061636580135</speed>
  <fix>3d</fix>
</trkpt>
<trkpt lat="33.8101044" lon="-118.3944323">
  <ele>-48.82</ele>
  <time>2026-09-02T22:08:34Z</time>
  <course>359.98</course>
  <speed>0.99</speed>
  <fix>3d</fix>
</trkpt>
<trkpt lat="33.8101072" lon="-118.3944321">
  <ele>-50.022</ele>
  <time>2026-09-02T22:08:34Z</time>
  <course>1.16</course>
  <speed>0.9702061636580135</speed>
  <fix>3d</fix>
</trkpt>
<trkpt lat="33.8101063" lon="-118.3944323">
  <ele>-48.82</ele>
  <time>2026-09-02T22:08:34Z</time>
  <course>359.94</course>
  <speed>0.99</speed>
  <fix>3d</fix>
</trkpt>
<trkpt lat="33.8101081" lon="-118.3944321">
  <ele>-50.022</ele>
  <time>2026-09-02T22:08:34Z</time>
  <course>1.13</course>
  <speed>0.9702061636580135</speed>
  <fix>3d</fix>
</trkpt>
<trkpt lat="33.8101063" lon="-118.3944323">
  <ele>-48.82</ele>
  <time>2026-09-02T22:08:34Z</time>
  <course>359.94</course>
  <speed>0.99</speed>
  <fix>3d</fix>
</trkpt>
<trkpt lat="33.810109" lon="-118.3944321">
  <ele>-50.021</ele>
  <time>2026-09-02T22:08:34Z</time>
  <course>1.11</course>
  <speed>0.9702061636580135</speed>
  <fix>3d</fix>
</trkpt>
<trkpt lat="33.810108" lon="-118.3944323">
  <ele>-48.81</ele>
  <time>2026-09-02T22:08:34Z</time>
  <course>359.91</course>
  <speed>0.99</speed>
  <fix>3d</fix>
</trkpt>
<trkpt lat="33.8101099" lon="-118.3944321">
  <ele>-50.021</ele>
  <time>2026-09-02T22:08:34Z</time>
  <course>1.1</course>
  <speed>0.9702061636580135</speed>
  <fix>3d</fix>
</trkpt>
<trkpt lat="33.810108" lon="-118.3944323">
  <ele>-48.81</ele>
  <time>2026-09-02T22:08:34Z</time>
  <course>359.91</course>
  <speed>0.99</speed>
  <fix>3d</fix>
</trkpt>
<trkpt lat="33.8101108" lon="-118.3944321">
  <ele>-50.02</ele>
  <time>2026-09-02T22:08:34Z</time>
  <course>1.09</course>
  <speed>0.9702061636580135</speed>
  <fix>3d</fix>
</trkpt>
<trkpt lat="33.8101099" lon="-118.3944323">
  <ele>-48.81</ele>
  <time>2026-09-02T22:08:34Z</time>
  <course>359.88</course>
  <speed>0.99</speed>
  <fix>3d</fix>
</trkpt>
<trkpt lat="33.8101117" lon="-118.3944321">
  <ele>-50.019</ele>
  <time>2026-09-02T22:08:34Z</time>
  <course>1.07</course>
  <speed>0.9702061636580135</speed>
  <fix>3d</fix>
</trkpt>
<trkpt lat="33.8101099" lon="-118.3944323">
  <ele>-48.81</ele>
  <time>2026-09-02T22:08:34Z</time>
  <course>359.88</course>
  <speed>0.99</speed>
  <fix>3d</fix>
</trkpt>
<trkpt lat="33.8101126" lon="-118.3944321">
  <ele>-50.019</ele>
  <time>2026-09-02T22:08:34Z</time>
  <course>1.07</course>
  <speed>0.9702061636580135</speed>
  <fix>3d</fix>
</trkpt>
<trkpt lat="33.8101116" lon="-118.3944323">
  <ele>-48.81</ele>
  <time>2026-09-02T22:08:34Z</time>
  <course>359.85</course>
  <speed>0.99</speed>
  <fix>3d</fix>
</trkpt>
<trkpt lat="33.8101135" lon="-118.3944321">
  <ele>-50.018</ele>
  <time>2026-09-02T22:08:34Z</time>
  <course>1.06</course>
  <speed>0.9702061636580135</speed>
  <fix>3d</fix>
</trkpt>
<trkpt lat="33.8101116" lon="-118.3944323">
  <ele>-48.81</ele>
  <time>2026-09-02T22:08:34Z</time>
  <course>359.85</course>
  <speed>0.99</speed>
  <fix>3d</fix>
</trkpt>
<trkpt lat="33.8101144" lon="-118.3944321">
  <ele>-50.019</ele>
  <time>2026-09-02T22:08:34Z</time>
  <course>1.06</course>
  <speed>0.9702061636580135</speed>
  <fix>3d</fix>
</trkpt>
<trkpt lat="33.8101135" lon="-118.3944323">
  <ele>-48.81</ele>
  <time>2026-09-02T22:08:34Z</time>
  <course>359.84</course>
  <speed>0.99</speed>
  <fix>3d</fix>
</trkpt>
<trkpt lat="33.8101153" lon="-118.3944321">
  <ele>-50.019</ele>
  <time>2026-09-02T22:08:34Z</time>
  <course>1.05</course>
  <speed>0.9702061636580135</speed>
  <fix>3d</fix>
</trkpt>
<trkpt lat="33.8101135" lon="-118.3944323">
  <ele>-48.81</ele>
  <time>2026-09-02T22:08:34Z</time>
  <course>359.84</course>
  <speed>0.99</speed>
  <fix>3d</fix>
</trkpt>
<trkpt lat="33.8101162" lon="-118.3944321">
  <ele>-50.021</ele>
  <time>2026-09-02T22:08:34Z</time>
  <course>1.05</course>
  <speed>0.9702061636580135</speed>
  <fix>3d</fix>
</trkpt>
<trkpt lat="33.8101152" lon="-118.3944323">
  <ele>-48.81</ele>
  <time>2026-09-02T22:08:34Z</time>
  <course>359.82</course>
  <speed>0.99</speed>
  <fix>3d</fix>
</trkpt>
<trkpt lat="33.8101171" lon="-118.3944321">
  <ele>-50.021</ele>
  <time>2026-09-02T22:08:34Z</time>
  <course>1.04</course>
  <speed>0.9702061636580135</speed>
  <fix>3d</fix>
</trkpt>
<trkpt lat="33.8101152" lon="-118.3944323">
  <ele>-48.81</ele>
  <time>2026-09-02T22:08:34Z</time>
  <course>359.82</course>
  <speed>0.99</speed>
  <fix>3d</fix>
</trkpt>
<trkpt lat="33.810118" lon="-118.3944321">
  <ele>-50.021</ele>
  <time>2026-09-02T22:08:34Z</time>
  <course>1.05</course>
  <speed>0.9702061636580135</speed>
  <fix>3d</fix>
</trkpt>
<trkpt lat="33.8101171" lon="-118.3944323">
  <ele>-48.81</ele>
  <time>2026-09-02T22:08:34Z</time>
  <course>359.81</course>
  <speed>0.99</speed>
  <fix>3d</fix>
</trkpt>
<trkpt lat="33.8101189" lon="-118.3944321">
  <ele>-50.02</ele>
  <time>2026-09-02T22:08:34Z</time>
  <course>1.05</course>
  <speed>0.9702061636580135</speed>
  <fix>3d</fix>
</trkpt>
<trkpt lat="33.8101171" lon="-118.3944323">
  <ele>-48.81</ele>
  <time>2026-09-02T22:08:34Z</time>
  <course>359.81</course>
  <speed>0.99</speed>
  <fix>3d</fix>
</trkpt>
<trkpt lat="33.8101198" lon="-118.3944321">
  <ele>-50.02</ele>
  <time>2026-09-02T22:08:34Z</time>
  <course>1.05</course>
  <speed>0.9702061636580135</speed>
  <fix>3d</fix>
</trkpt>
<trkpt lat="33.8101188" lon="-118.3944323">
  <ele>-48.81</ele>
  <time>2026-09-02T22:08:34Z</time>
  <course>359.79</course>
  <speed>0.99</speed>
  <fix>3d</fix>
</trkpt>
<trkpt lat="33.8101207" lon="-118.3944321">
  <ele>-50.02</ele>
  <time>2026-09-02T22:08:34Z</time>
  <course>1.05</course>
  <speed>0.9702061636580135</speed>
  <fix>3d</fix>
</trkpt>
<trkpt lat="33.8101188" lon="-118.3944323">
  <ele>-48.81</ele>
  <time>2026-09-02T22:08:34Z</time>
  <course>359.79</course>
  <speed>0.99</speed>
  <fix>3d</fix>
</trkpt>
<trkpt lat="33.8101216" lon="-118.3944321">
  <ele>-50.019</ele>
  <time>2026-09-02T22:08:34Z</time>
  <course>1.06</course>
  <speed>0.9702061636580135</speed>
  <fix>3d</fix>
</trkpt>
<trkpt lat="33.8101206" lon="-118.3944323">
  <ele>-48.81</ele>
  <time>2026-09-02T22:08:34Z</time>
  <course>359.78</course>
  <speed>0.99</speed>
  <fix>3d</fix>
</trkpt>
<trkpt lat="33.8101225" lon="-118.3944321">
  <ele>-50.019</ele>
  <time>2026-09-02T22:08:34Z</time>
  <course>1.06</course>
  <speed>0.9702061636580135</speed>
  <fix>3d</fix>
</trkpt>
<trkpt lat="33.8101206" lon="-118.3944323">
  <ele>-48.81</ele>
  <time>2026-09-02T22:08:34Z</time>
  <course>359.78</course>
  <speed>0.99</speed>
  <fix>3d</fix>
</trkpt>
<trkpt lat="33.8101234" lon="-118.3944321">
  <ele>-50.018</ele>
  <time>2026-09-02T22:08:34Z</time>
  <course>1.06</course>
  <speed>0.9702061636580135</speed>
  <fix>3d</fix>
</trkpt>
<trkpt lat="33.8101224" lon="-118.3944323">
  <ele>-48.81</ele>
  <time>2026-09-02T22:08:34Z</time>
  <course>359.75</course>
  <speed>0.99</speed>
  <fix>3d</fix>
</trkpt>
<trkpt lat="33.8101243" lon="-118.3944321">
  <ele>-50.018</ele>
  <time>2026-09-02T22:08:34Z</time>
  <course>1.06</course>
  <speed>0.9702061636580135</speed>
  <fix>3d</fix>
</trkpt>
<trkpt lat="33.8101224" lon="-118.3944323">
  <ele>-48.81</ele>
  <time>2026-09-02T22:08:34Z</time>
  <course>359.75</course>
  <speed>0.99</speed>
  <fix>3d</fix>
</trkpt>
<trkpt lat="33.8101252" lon="-118.3944321">
  <ele>-50.018</ele>
  <time>2026-09-02T22:08:34Z</time>
  <course>1.07</course>
  <speed>0.9702061636580135</speed>
  <fix>3d</fix>
</trkpt>
<trkpt lat="33.8101242" lon="-118.3944323">
  <ele>-48.81</ele>
  <time>2026-09-02T22:08:34Z</time>
  <course>359.73</course>
  <speed>1.0</speed>
  <fix>3d</fix>
</trkpt>
<trkpt lat="33.8101261" lon="-118.3944321">
  <ele>-50.018</ele>
  <time>2026-09-02T22:08:34Z</time>
  <course>1.08</course>
  <speed>0.9702061636580135</speed>
  <fix>3d</fix>
</trkpt>
<trkpt lat="33.8101242" lon="-118.3944323">
  <ele>-48.81</ele>
  <time>2026-09-02T22:08:34Z</time>
  <course>359.73</course>
  <speed>1.0</speed>
  <fix>3d</fix>
</trkpt>
<trkpt lat="33.810127" lon="-118.3944321">
  <ele>-50.018</ele>
  <time>2026-09-02T22:08:34Z</time>
  <course>1.09</course>
  <speed>0.9702061636580135</speed>
  <fix>3d</fix>
</trkpt>
<trkpt lat="33.8101259" lon="-118.3944323">
  <ele>-48.81</ele>
  <time>2026-09-02T22:08:34Z</time>
  <course>359.72</course>
  <speed>1.0</speed>
  <fix>3d</fix>
</trkpt>
<trkpt lat="33.8101279" lon="-118.3944321">
  <ele>-50.019</ele>
  <time>2026-09-02T22:08:34Z</time>
  <course>1.09</course>
  <speed>0.9702061636580135</speed>
  <fix>3d</fix>
</trkpt>
<trkpt lat="33.8101259" lon="-118.3944323">
  <ele>-48.81</ele>
  <time>2026-09-02T22:08:34Z</time>
  <course>359.72</course>
  <speed>1.0</speed>
  <fix>3d</fix>
</trkpt>
<trkpt lat="33.8101288" lon="-118.3944321">
  <ele>-50.02</ele>
  <time>2026-09-02T22:08:34Z</time>
  <course>1.09</course>
  <speed>0.9702061636580135</speed>
  <fix>3d</fix>
</trkpt>
<trkpt lat="33.8101278" lon="-118.3944323">
  <ele>-48.81</ele>
  <time>2026-09-02T22:08:34Z</time>
  <course>359.72</course>
  <speed>1.0</speed>
  <fix>3d</fix>
</trkpt>
<trkpt lat="33.8101297" lon="-118.3944321">
  <ele>-50.021</ele>
  <time>2026-09-02T22:08:34Z</time>
  <course>1.09</course>
  <speed>0.9702061636580135</speed>
  <fix>3d</fix>
</trkpt>
<trkpt lat="33.8101278" lon="-118.3944323">
  <ele>-48.81</ele>
  <time>2026-09-02T22:08:34Z</time>
  <course>359.72</course>
  <speed>1.0</speed>
  <fix>3d</fix>
</trkpt>
<trkpt lat="33.8101306" lon="-118.3944321">
  <ele>-50.021</ele>
  <time>2026-09-02T22:08:34Z</time>
  <course>1.1</course>
  <speed>0.9702061636580135</speed>
  <fix>3d</fix>
</trkpt>
<trkpt lat="33.8101295" lon="-118.3944323">
  <ele>-48.81</ele>
  <time>2026-09-02T22:08:34Z</time>
  <course>359.71</course>
  <speed>1.0</speed>
  <fix>3d</fix>
</trkpt>
<trkpt lat="33.8101315" lon="-118.3944321">
  <ele>-50.02</ele>
  <time>2026-09-02T22:08:34Z</time>
  <course>1.1</course>
  <speed>0.9702061636580135</speed>
  <fix>3d</fix>
</trkpt>
<trkpt lat="33.8101295" lon="-118.3944323">
  <ele>-48.81</ele>
  <time>2026-09-02T22:08:34Z</time>
  <course>359.71</course>
  <speed>1.0</speed>
  <fix>3d</fix>
</trkpt>
<trkpt lat="33.8101324" lon="-118.3944321">
  <ele>-50.018</ele>
  <time>2026-09-02T22:08:34Z</time>
  <course>1.11</course>
  <speed>0.9802040603874276</speed>
  <fix>3d</fix>
</trkpt>
<trkpt lat="33.8101314" lon="-118.3944323">
  <ele>-48.81</ele>
  <time>2026-09-02T22:08:34Z</time>
  <course>359.68</course>
  <speed>1.0</speed>
  <fix>3d</fix>
</trkpt>
<trkpt lat="33.8101333" lon="-118.3944321">
  <ele>-50.017</ele>
  <time>2026-09-02T22:08:34Z</time>
  <course>1.11</course>
  <speed>0.9702061636580135</speed>
  <fix>3d</fix>
</trkpt>
<trkpt lat="33.8101314" lon="-118.3944323">
  <ele>-48.81</ele>
  <time>2026-09-02T22:08:34Z</time>
  <course>359.68</course>
  <speed>1.0</speed>
  <fix>3d</fix>
</trkpt>
<trkpt lat="33.8101342" lon="-118.3944321">
  <ele>-50.017</ele>
  <time>2026-09-02T22:08:34Z</time>
  <course>1.12</course>
  <speed>0.9702061636580135</speed>
  <fix>3d</fix>
</trkpt>
<trkpt lat="33.8101332" lon="-118.3944323">
  <ele>-48.81</ele>
  <time>2026-09-02T22:08:34Z</time>
  <course>359.67</course>
  <speed>1.0</speed>
  <fix>3d</fix>
</trkpt>
<trkpt lat="33.8101351" lon="-118.3944321">
  <ele>-50.018</ele>
  <time>2026-09-02T22:08:34Z</time>
  <course>1.12</course>
  <speed>0.9702061636580135</speed>
  <fix>3d</fix>
</trkpt>
<trkpt lat="33.8101332" lon="-118.3944323">
  <ele>-48.81</ele>
  <time>2026-09-02T22:08:34Z</time>
  <course>359.67</course>
  <speed>1.0</speed>
  <fix>3d</fix>
</trkpt>
<trkpt lat="33.810136" lon="-118.3944321">
  <ele>-50.018</ele>
  <time>2026-09-02T22:08:34Z</time>
  <course>1.13</course>
  <speed>0.9702061636580135</speed>
  <fix>3d</fix>
</trkpt>
<trkpt lat="33.810135" lon="-118.3944324">
  <ele>-48.81</ele>
  <time>2026-09-02T22:08:34Z</time>
  <course>359.66</course>
  <speed>1.0</speed>
  <fix>3d</fix>
</trkpt>
<trkpt lat="33.8101369" lon="-118.3944321">
  <ele>-50.018</ele>
  <time>2026-09-02T22:08:34Z</time>
  <course>1.14</course>
  <speed>0.9702061636580135</speed>
  <fix>3d</fix>
</trkpt>
<trkpt lat="33.810135" lon="-118.3944324">
  <ele>-48.81</ele>
  <time>2026-09-02T22:08:34Z</time>
  <course>359.66</course>
  <speed>1.0</speed>
  <fix>3d</fix>
</trkpt>
<trkpt lat="33.8101378" lon="-118.3944321">
  <ele>-50.018</ele>
  <time>2026-09-02T22:08:34Z</time>
  <course>1.17</course>
  <speed>0.9702061636580135</speed>
  <fix>3d</fix>
</trkpt>
<trkpt lat="33.8101369" lon="-118.3944324">
  <ele>-48.81</ele>
  <time>2026-09-02T22:08:34Z</time>
  <course>359.68</course>
  <speed>1.0</speed>
  <fix>3d</fix>
</trkpt>
<trkpt lat="33.8101387" lon="-118.3944321">
  <ele>-50.019</ele>
  <time>2026-09-02T22:08:34Z</time>
  <course>1.21</course>
  <speed>0.9702061636580135</speed>
  <fix>3d</fix>
</trkpt>
<trkpt lat="33.8101369" lon="-118.3944324">
  <ele>-48.81</ele>
  <time>2026-09-02T22:08:34Z</time>
  <course>359.68</course>
  <speed>1.0</speed>
  <fix>3d</fix>
</trkpt>
<trkpt lat="33.8101396" lon="-118.3944321">
  <ele>-50.02</ele>
  <time>2026-09-02T22:08:34Z</time>
  <course>1.26</course>
  <speed>0.9702061636580135</speed>
  <fix>3d</fix>
</trkpt>
<trkpt lat="33.8101386" lon="-118.3944324">
  <ele>-48.81</ele>
  <time>2026-09-02T22:08:34Z</time>
  <course>359.75</course>
  <speed>1.0</speed>
  <fix>3d</fix>
</trkpt>
<trkpt lat="33.8101405" lon="-118.3944321">
  <ele>-50.022</ele>
  <time>2026-09-02T22:08:34Z</time>
  <course>1.31</course>
  <speed>0.9702061636580135</speed>
  <fix>3d</fix>
</trkpt>
<trkpt lat="33.8101386" lon="-118.3944324">
  <ele>-48.81</ele>
  <time>2026-09-02T22:08:34Z</time>
  <course>359.75</course>
  <speed>1.0</speed>
  <fix>3d</fix>
</trkpt>
<trkpt lat="33.8101414" lon="-118.3944321">
  <ele>-50.023</ele>
  <time>2026-09-02T22:08:34Z</time>
  <course>1.37</course>
  <speed>0.9702061636580135</speed>
  <fix>3d</fix>
</trkpt>
<trkpt lat="33.8101404" lon="-118.3944324">
  <ele>-48.82</ele>
  <time>2026-09-02T22:08:34Z</time>
  <course>359.82</course>
  <speed>0.99</speed>
  <fix>3d</fix>
</trkpt>
<trkpt lat="33.8101423" lon="-118.3944321">
  <ele>-50.023</ele>
  <time>2026-09-02T22:08:34Z</time>
  <course>1.42</course>
  <speed>0.9702061636580135</speed>
  <fix>3d</fix>
</trkpt>
<trkpt lat="33.8101404" lon="-118.3944324">
  <ele>-48.82</ele>
  <time>2026-09-02T22:08:34Z</time>
  <course>359.82</course>
  <speed>0.99</speed>
  <fix>3d</fix>
</trkpt>
<trkpt lat="33.8101432" lon="-118.3944321">
  <ele>-50.022</ele>
  <time>2026-09-02T22:08:34Z</time>
  <course>1.46</course>
  <speed>0.9702061636580135</speed>
  <fix>3d</fix>
</trkpt>
<trkpt lat="33.8101422" lon="-118.3944324">
  <ele>-48.81</ele>
  <time>2026-09-02T22:08:34Z</time>
  <course>359.86</course>
  <speed>0.99</speed>
  <fix>3d</fix>
</trkpt>
<trkpt lat="33.8101441" lon="-118.3944321">
  <ele>-50.022</ele>
  <time>2026-09-02T22:08:34Z</time>
  <course>1.49</course>
  <speed>0.9702061636580135</speed>
  <fix>3d</fix>
</trkpt>
<trkpt lat="33.8101422" lon="-118.3944324">
  <ele>-48.81</ele>
  <time>2026-09-02T22:08:34Z</time>
  <course>359.86</course>
  <speed>0.99</speed>
  <fix>3d</fix>
</trkpt>
<trkpt lat="33.810145" lon="-118.3944321">
  <ele>-50.021</ele>
  <time>2026-09-02T22:08:34Z</time>
  <course>1.52</course>
  <speed>0.9702061636580135</speed>
  <fix>3d</fix>
</trkpt>
<trkpt lat="33.8101439" lon="-118.3944324">
  <ele>-48.81</ele>
  <time>2026-09-02T22:08:34Z</time>
  <course>359.89</course>
  <speed>0.99</speed>
  <fix>3d</fix>
</trkpt>
<trkpt lat="33.8101459" lon="-118.3944321">
  <ele>-50.02</ele>
  <time>2026-09-02T22:08:34Z</time>
  <course>1.54</course>
  <speed>0.9702061636580135</speed>
  <fix>3d</fix>
</trkpt>
<trkpt lat="33.8101439" lon="-118.3944324">
  <ele>-48.81</ele>
  <time>2026-09-02T22:08:34Z</time>
  <course>359.89</course>
  <speed>0.99</speed>
  <fix>3d</fix>
</trkpt>
<trkpt lat="33.8101468" lon="-118.3944321">
  <ele>-50.018</ele>
  <time>2026-09-02T22:08:34Z</time>
  <course>1.56</course>
  <speed>0.9702061636580135</speed>
  <fix>3d</fix>
</trkpt>
<trkpt lat="33.8101458" lon="-118.3944324">
  <ele>-48.81</ele>
  <time>2026-09-02T22:08:34Z</time>
  <course>359.9</course>
  <speed>0.99</speed>
  <fix>3d</fix>
</trkpt>
<trkpt lat="33.8101477" lon="-118.3944321">
  <ele>-50.017</ele>
  <time>2026-09-02T22:08:34Z</time>
  <course>1.58</course>
  <speed>0.9702061636580135</speed>
  <fix>3d</fix>
</trkpt>
<trkpt lat="33.8101458" lon="-118.3944324">
  <ele>-48.81</ele>
  <time>2026-09-02T22:08:34Z</time>
  <course>359.9</course>
  <speed>0.99</speed>
  <fix>3d</fix>
</trkpt>
<trkpt lat="33.8101486" lon="-118.3944321">
  <ele>-50.017</ele>
  <time>2026-09-02T22:08:34Z</time>
  <course>1.59</course>
  <speed>0.9702061636580135</speed>
  <fix>3d</fix>
</trkpt>
<trkpt lat="33.8101475" lon="-118.3944324">
  <ele>-48.81</ele>
  <time>2026-09-02T22:08:34Z</time>
  <course>359.89</course>
  <speed>1.0</speed>
  <fix>3d</fix>
</trkpt>
<trkpt lat="33.8101495" lon="-118.3944321">
  <ele>-50.017</ele>
  <time>2026-09-02T22:08:34Z</time>
  <course>1.61</course>
  <speed>0.9702061636580135</speed>
  <fix>3d</fix>
</trkpt>
<trkpt lat="33.8101475" lon="-118.3944324">
  <ele>-48.81</ele>
  <time>2026-09-02T22:08:34Z</time>
  <course>359.89</course>
  <speed>1.0</speed>
  <fix>3d</fix>
</trkpt>
<trkpt lat="33.8101504" lon="-118.3944321">
  <ele>-50.017</ele>
  <time>2026-09-02T22:08:34Z</time>
  <course>1.62</course>
  <speed>0.9702061636580135</speed>
  <fix>3d</fix>
</trkpt>
<trkpt lat="33.8101494" lon="-118.3944324">
  <ele>-48.81</ele>
  <time>2026-09-02T22:08:34Z</time>
  <course>359.9</course>
  <speed>1.0</speed>
  <fix>3d</fix>
</trkpt>
<trkpt lat="33.8101513" lon="-118.3944321">
  <ele>-50.018</ele>
  <time>2026-09-02T22:08:34Z</time>
  <course>1.63</course>
  <speed>0.9702061636580135</speed>
  <fix>3d</fix>
</trkpt>
<trkpt lat="33.8101494" lon="-118.3944324">
  <ele>-48.81</ele>
  <time>2026-09-02T22:08:34Z</time>
  <course>359.9</course>
  <speed>1.0</speed>
  <fix>3d</fix>
</trkpt>
<trkpt lat="33.8101522" lon="-118.3944321">
  <ele>-50.018</ele>
  <time>2026-09-02T22:08:34Z</time>
  <course>1.63</course>
  <speed>0.9702061636580135</speed>
  <fix>3d</fix>
</trkpt>
<trkpt lat="33.8101511" lon="-118.3944324">
  <ele>-48.81</ele>
  <time>2026-09-02T22:08:34Z</time>
  <course>359.91</course>
  <speed>1.0</speed>
  <fix>3d</fix>
</trkpt>
<trkpt lat="33.8101531" lon="-118.3944321">
  <ele>-50.018</ele>
  <time>2026-09-02T22:08:34Z</time>
  <course>1.64</course>
  <speed>0.9702061636580135</speed>
  <fix>3d</fix>
</trkpt>
<trkpt lat="33.8101511" lon="-118.3944324">
  <ele>-48.81</ele>
  <time>2026-09-02T22:08:34Z</time>
  <course>359.91</course>
  <speed>1.0</speed>
  <fix>3d</fix>
</trkpt>
<trkpt lat="33.810154" lon="-118.3944321">
  <ele>-50.018</ele>
  <time>2026-09-02T22:08:34Z</time>
  <course>1.65</course>
  <speed>0.9702061636580135</speed>
  <fix>3d</fix>
</trkpt>
<trkpt lat="33.810153" lon="-118.3944324">
  <ele>-48.81</ele>
  <time>2026-09-02T22:08:34Z</time>
  <course>359.91</course>
  <speed>1.0</speed>
  <fix>3d</fix>
</trkpt>
<trkpt lat="33.8101549" lon="-118.3944321">
  <ele>-50.019</ele>
  <time>2026-09-02T22:08:34Z</time>
  <course>1.65</course>
  <speed>0.9702061636580135</speed>
  <fix>3d</fix>
</trkpt>
<trkpt lat="33.810153" lon="-118.3944324">
  <ele>-48.81</ele>
  <time>2026-09-02T22:08:34Z</time>
  <course>359.91</course>
  <speed>1.0</speed>
  <fix>3d</fix>
</trkpt>
<trkpt lat="33.8101558" lon="-118.3944321">
  <ele>-50.021</ele>
  <time>2026-09-02T22:08:34Z</time>
  <course>1.66</course>
  <speed>0.9702061636580135</speed>
  <fix>3d</fix>
</trkpt>
<trkpt lat="33.8101547" lon="-118.3944324">
  <ele>-48.81</ele>
  <time>2026-09-02T22:08:34Z</time>
  <course>359.92</course>
  <speed>1.0</speed>
  <fix>3d</fix>
</trkpt>
<trkpt lat="33.8101567" lon="-118.3944321">
  <ele>-50.021</ele>
  <time>2026-09-02T22:08:34Z</time>
  <course>1.66</course>
  <speed>0.9702061636580135</speed>
  <fix>3d</fix>
</trkpt>
<trkpt lat="33.8101547" lon="-118.3944324">
  <ele>-48.81</ele>
  <time>2026-09-02T22:08:34Z</time>
  <course>359.92</course>
  <speed>1.0</speed>
  <fix>3d</fix>
</trkpt>
<trkpt lat="33.8101576" lon="-118.3944321">
  <ele>-50.02</ele>
  <time>2026-09-02T22:08:34Z</time>
  <course>1.66</course>
  <speed>0.9702061636580135</speed>
  <fix>3d</fix>
</trkpt>
<trkpt lat="33.8101566" lon="-118.3944324">
  <ele>-48.82</ele>
  <time>2026-09-02T22:08:34Z</time>
  <course>359.92</course>
  <speed>1.0</speed>
  <fix>3d</fix>
</trkpt>
<trkpt lat="33.8101585" lon="-118.3944321">
  <ele>-50.02</ele>
  <time>2026-09-02T22:08:34Z</time>
  <course>1.66</course>
  <speed>0.9702061636580135</speed>
  <fix>3d</fix>
</trkpt>
<trkpt lat="33.8101566" lon="-118.3944324">
  <ele>-48.82</ele>
  <time>2026-09-02T22:08:34Z</time>
  <course>359.92</course>
  <speed>1.0</speed>
  <fix>3d</fix>
</trkpt>
<trkpt lat="33.8101594" lon="-118.3944321">
  <ele>-50.02</ele>
  <time>2026-09-02T22:08:34Z</time>
  <course>1.66</course>
  <speed>0.9702061636580135</speed>
  <fix>3d</fix>
</trkpt>
<trkpt lat="33.8101583" lon="-118.3944324">
  <ele>-48.82</ele>
  <time>2026-09-02T22:08:34Z</time>
  <course>359.93</course>
  <speed>1.0</speed>
  <fix>3d</fix>
</trkpt>
<trkpt lat="33.8101603" lon="-118.3944321">
  <ele>-50.021</ele>
  <time>2026-09-02T22:08:34Z</time>
  <course>1.66</course>
  <speed>0.9702061636580135</speed>
  <fix>3d</fix>
</trkpt>
<trkpt lat="33.8101583" lon="-118.3944324">
  <ele>-48.82</ele>
  <time>2026-09-02T22:08:34Z</time>
  <course>359.93</course>
  <speed>1.0</speed>
  <fix>3d</fix>
</trkpt>
<trkpt lat="33.8101612" lon="-118.3944321">
  <ele>-50.024</ele>
  <time>2026-09-02T22:08:34Z</time>
  <course>1.67</course>
  <speed>0.9702061636580135</speed>
  <fix>3d</fix>
</trkpt>
<trkpt lat="33.8101602" lon="-118.3944324">
  <ele>-48.82</ele>
  <time>2026-09-02T22:08:34Z</time>
  <course>359.95</course>
  <speed>1.0</speed>
  <fix>3d</fix>
</trkpt>
<trkpt lat="33.8101621" lon="-118.3944321">
  <ele>-50.025</ele>
  <time>2026-09-02T22:08:34Z</time>
  <course>1.66</course>
  <speed>0.9702061636580135</speed>
  <fix>3d</fix>
</trkpt>
<trkpt lat="33.8101602" lon="-118.3944324">
  <ele>-48.82</ele>
  <time>2026-09-02T22:08:34Z</time>
  <course>359.95</course>
  <speed>1.0</speed>
  <fix>3d</fix>
</trkpt>
<trkpt lat="33.810163" lon="-118.3944321">
  <ele>-50.026</ele>
  <time>2026-09-02T22:08:34Z</time>
  <course>1.66</course>
  <speed>0.9702061636580135</speed>
  <fix>3d</fix>
</trkpt>
<trkpt lat="33.810162" lon="-118.3944324">
  <ele>-48.82</ele>
  <time>2026-09-02T22:08:34Z</time>
  <course>359.95</course>
  <speed>0.99</speed>
  <fix>3d</fix>
</trkpt>
<trkpt lat="33.8101639" lon="-118.3944321">
  <ele>-50.025</ele>
  <time>2026-09-02T22:08:34Z</time>
  <course>1.66</course>
  <speed>0.9702061636580135</speed>
  <fix>3d</fix>
</trkpt>
<trkpt lat="33.810162" lon="-118.3944324">
  <ele>-48.82</ele>
  <time>2026-09-02T22:08:34Z</time>
  <course>359.95</course>
  <speed>0.99</speed>
  <fix>3d</fix>
</trkpt>
<trkpt lat="33.8101648" lon="-118.3944321">
  <ele>-50.024</ele>
  <time>2026-09-02T22:08:34Z</time>
  <course>1.66</course>
  <speed>0.9702061636580135</speed>
  <fix>3d</fix>
</trkpt>
<trkpt lat="33.8101638" lon="-118.3944324">
  <ele>-48.81</ele>
  <time>2026-09-02T22:08:34Z</time>
  <course>359.96</course>
  <speed>0.99</speed>
  <fix>3d</fix>
</trkpt>
<trkpt lat="33.8101657" lon="-118.3944321">
  <ele>-50.022</ele>
  <time>2026-09-02T22:08:34Z</time>
  <course>1.65</course>
  <speed>0.9702061636580135</speed>
  <fix>3d</fix>
</trkpt>
<trkpt lat="33.8101638" lon="-118.3944324">
  <ele>-48.81</ele>
  <time>2026-09-02T22:08:34Z</time>
  <course>359.96</course>
  <speed>0.99</speed>
  <fix>3d</fix>
</trkpt>
<trkpt lat="33.8101666" lon="-118.3944321">
  <ele>-50.021</ele>
  <time>2026-09-02T22:08:34Z</time>
  <course>1.65</course>
  <speed>0.9702061636580135</speed>
  <fix>3d</fix>
</trkpt>
<trkpt lat="33.8101656" lon="-118.3944324">
  <ele>-48.81</ele>
  <time>2026-09-02T22:08:34Z</time>
  <course>359.96</course>
  <speed>0.99</speed>
  <fix>3d</fix>
</trkpt>
<trkpt lat="33.8101675" lon="-118.3944321">
  <ele>-50.02</ele>
  <time>2026-09-02T22:08:34Z</time>
  <course>1.65</course>
  <speed>0.9702061636580135</speed>
  <fix>3d</fix>
</trkpt>
<trkpt lat="33.8101656" lon="-118.3944324">
  <ele>-48.81</ele>
  <time>2026-09-02T22:08:34Z</time>
  <course>359.96</course>
  <speed>0.99</speed>
  <fix>3d</fix>
</trkpt>
<trkpt lat="33.8101684" lon="-118.3944321">
  <ele>-50.019</ele>
  <time>2026-09-02T22:08:34Z</time>
  <course>1.65</course>
  <speed>0.9702061636580135</speed>
  <fix>3d</fix>
</trkpt>
<trkpt lat="33.8101674" lon="-118.3944324">
  <ele>-48.81</ele>
  <time>2026-09-02T22:08:34Z</time>
  <course>359.96</course>
  <speed>0.99</speed>
  <fix>3d</fix>
</trkpt>
<trkpt lat="33.8101693" lon="-118.3944321">
  <ele>-50.018</ele>
  <time>2026-09-02T22:08:34Z</time>
  <course>1.64</course>
  <speed>0.9702061636580135</speed>
  <fix>3d</fix>
</trkpt>
<trkpt lat="33.8101674" lon="-118.3944324">
  <ele>-48.81</ele>
  <time>2026-09-02T22:08:34Z</time>
  <course>359.96</course>
  <speed>0.99</speed>
  <fix>3d</fix>
</trkpt>
<trkpt lat="33.8101702" lon="-118.3944321">
  <ele>-50.016</ele>
  <time>2026-09-02T22:08:34Z</time>
  <course>1.64</course>
  <speed>0.9702061636580135</speed>
  <fix>3d</fix>
</trkpt>
<trkpt lat="33.8101692" lon="-118.3944324">
  <ele>-48.8</ele>
  <time>2026-09-02T22:08:34Z</time>
  <course>359.97</course>
  <speed>0.99</speed>
  <fix>3d</fix>
</trkpt>
<trkpt lat="33.8101711" lon="-118.3944321">
  <ele>-50.015</ele>
  <time>2026-09-02T22:08:34Z</time>
  <course>1.63</course>
  <speed>0.9702061636580135</speed>
  <fix>3d</fix>
</trkpt>
<trkpt lat="33.8101692" lon="-118.3944324">
  <ele>-48.8</ele>
  <time>2026-09-02T22:08:34Z</time>
  <course>359.97</course>
  <speed>0.99</speed>
  <fix>3d</fix>
</trkpt>
<trkpt lat="33.810172" lon="-118.3944321">
  <ele>-50.015</ele>
  <time>2026-09-02T22:08:34Z</time>
  <course>1.63</course>
  <speed>0.9702061636580135</speed>
  <fix>3d</fix>
</trkpt>
<trkpt lat="33.8101709" lon="-118.3944324">
  <ele>-48.8</ele>
  <time>2026-09-02T22:08:34Z</time>
  <course>359.97</course>
  <speed>0.99</speed>
  <fix>3d</fix>
</trkpt>
<trkpt lat="33.8101729" lon="-118.3944321">
  <ele>-50.015</ele>
  <time>2026-09-02T22:08:34Z</time>
  <course>1.62</course>
  <speed>0.9702061636580135</speed>
  <fix>3d</fix>
</trkpt>
<trkpt lat="33.8101709" lon="-118.3944324">
  <ele>-48.8</ele>
  <time>2026-09-02T22:08:34Z</time>
  <course>359.97</course>
  <speed>0.99</speed>
  <fix>3d</fix>
</trkpt>
<trkpt lat="33.8101738" lon="-118.3944321">
  <ele>-50.017</ele>
  <time>2026-09-02T22:08:34Z</time>
  <course>1.62</course>
  <speed>0.9702061636580135</speed>
  <fix>3d</fix>
</trkpt>
<trkpt lat="33.8101728" lon="-118.3944324">
  <ele>-48.8</ele>
  <time>2026-09-02T22:08:34Z</time>
  <course>359.98</course>
  <speed>0.99</speed>
  <fix>3d</fix>
</trkpt>
<trkpt lat="33.8101747" lon="-118.3944321">
  <ele>-50.019</ele>
  <time>2026-09-02T22:08:34Z</time>
  <course>1.61</course>
  <speed>0.9702061636580135</speed>
  <fix>3d</fix>
</trkpt>
<trkpt lat="33.8101728" lon="-118.3944324">
  <ele>-48.8</ele>
  <time>2026-09-02T22:08:34Z</time>
  <course>359.98</course>
  <speed>0.99</speed>
  <fix>3d</fix>
</trkpt>
<trkpt lat="33.8101756" lon="-118.3944321">
  <ele>-50.021</ele>
  <time>2026-09-02T22:08:34Z</time>
  <course>1.61</course>
  <speed>0.9702061636580135</speed>
  <fix>3d</fix>
</trkpt>
<trkpt lat="33.8101745" lon="-118.3944324">
  <ele>-48.81</ele>
  <time>2026-09-02T22:08:34Z</time>
  <course>359.99</course>
  <speed>0.99</speed>
  <fix>3d</fix>
</trkpt>
<trkpt lat="33.8101764" lon="-118.3944321">
  <ele>-50.023</ele>
  <time>2026-09-02T22:08:34Z</time>
  <course>1.61</course>
  <speed>0.9702061636580135</speed>
  <fix>3d</fix>
</trkpt>
<trkpt lat="33.8101745" lon="-118.3944324">
  <ele>-48.81</ele>
  <time>2026-09-02T22:08:34Z</time>
  <course>359.99</course>
  <speed>0.99</speed>
  <fix>3d</fix>
</trkpt>
<trkpt lat="33.8101773" lon="-118.3944321">
  <ele>-50.025</ele>
  <time>2026-09-02T22:08:34Z</time>
  <course>1.61</course>
  <speed>0.9702061636580135</speed>
  <fix>3d</fix>
</trkpt>
<trkpt lat="33.8101762" lon="-118.3944324">
  <ele>-48.81</ele>
  <time>2026-09-02T22:08:34Z</time>
  <course>0.0</course>
  <speed>1.0</speed>
  <fix>3d</fix>
</trkpt>
<trkpt lat="33.8101782" lon="-118.3944321">
  <ele>-50.025</ele>
  <time>2026-09-02T22:08:34Z</time>
  <course>1.6</course>
  <speed>0.9802040603874276</speed>
  <fix>3d</fix>
</trkpt>
<trkpt lat="33.8101762" lon="-118.3944324">
  <ele>-48.81</ele>
  <time>2026-09-02T22:08:34Z</time>
  <course>0.0</course>
  <speed>1.0</speed>
  <fix>3d</fix>
</trkpt>
<trkpt lat="33.8101791" lon="-118.3944321">
  <ele>-50.023</ele>
  <time>2026-09-02T22:08:34Z</time>
  <course>1.6</course>
  <speed>0.9802040603874276</speed>
  <fix>3d</fix>
</trkpt>
<trkpt lat="33.8101781" lon="-118.3944324">
  <ele>-48.81</ele>
  <time>2026-09-02T22:08:34Z</time>
  <course>0.0</course>
  <speed>1.0</speed>
  <fix>3d</fix>
</trkpt>
<trkpt lat="33.81018" lon="-118.3944321">
  <ele>-50.021</ele>
  <time>2026-09-02T22:08:34Z</time>
  <course>1.6</course>
  <speed>0.9802040603874276</speed>
  <fix>3d</fix>
</trkpt>
<trkpt lat="33.8101781" lon="-118.3944324">
  <ele>-48.81</ele>
  <time>2026-09-02T22:08:34Z</time>
  <course>0.0</course>
  <speed>1.0</speed>
  <fix>3d</fix>
</trkpt>
<trkpt lat="33.8101809" lon="-118.3944321">
  <ele>-50.019</ele>
  <time>2026-09-02T22:08:34Z</time>
  <course>1.6</course>
  <speed>0.9802040603874276</speed>
  <fix>3d</fix>
</trkpt>
<trkpt lat="33.8101799" lon="-118.3944324">
  <ele>-48.8</ele>
  <time>2026-09-02T22:08:34Z</time>
  <course>0.01</course>
  <speed>1.0</speed>
  <fix>3d</fix>
</trkpt>
<trkpt lat="33.8101818" lon="-118.3944321">
  <ele>-50.017</ele>
  <time>2026-09-02T22:08:34Z</time>
  <course>1.59</course>
  <speed>0.9802040603874276</speed>
  <fix>3d</fix>
</trkpt>
<trkpt lat="33.8101799" lon="-118.3944324">
  <ele>-48.8</ele>
  <time>2026-09-02T22:08:34Z</time>
  <course>0.01</course>
  <speed>1.0</speed>
  <fix>3d</fix>
</trkpt>
<trkpt lat="33.8101827" lon="-118.3944321">
  <ele>-50.015</ele>
  <time>2026-09-02T22:08:34Z</time>
  <course>1.59</course>
  <speed>0.9802040603874276</speed>
  <fix>3d</fix>
</trkpt>
<trkpt lat="33.8101817" lon="-118.3944324">
  <ele>-48.8</ele>
  <time>2026-09-02T22:08:34Z</time>
  <course>0.03</course>
  <speed>1.0</speed>
  <fix>3d</fix>
</trkpt>
<trkpt lat="33.8101836" lon="-118.3944321">
  <ele>-50.014</ele>
  <time>2026-09-02T22:08:34Z</time>
  <course>1.59</course>
  <speed>0.9802040603874276</speed>
  <fix>3d</fix>
</trkpt>
<trkpt lat="33.8101817" lon="-118.3944324">
  <ele>-48.8</ele>
  <time>2026-09-02T22:08:34Z</time>
  <course>0.03</course>
  <speed>1.0</speed>
  <fix>3d</fix>
</trkpt>
<trkpt lat="33.8101845" lon="-118.3944321">
  <ele>-50.015</ele>
  <time>2026-09-02T22:08:34Z</time>
  <course>1.59</course>
  <speed>0.9802040603874276</speed>
  <fix>3d</fix>
</trkpt>
<trkpt lat="33.8101836" lon="-118.3944324">
  <ele>-48.8</ele>
  <time>2026-09-02T22:08:34Z</time>
  <course>0.03</course>
  <speed>1.0</speed>
  <fix>3d</fix>
</trkpt>
<trkpt lat="33.8101854" lon="-118.3944321">
  <ele>-50.016</ele>
  <time>2026-09-02T22:08:34Z</time>
  <course>1.59</course>
  <speed>0.9702061636580135</speed>
  <fix>3d</fix>
</trkpt>
<trkpt lat="33.8101836" lon="-118.3944324">
  <ele>-48.8</ele>
  <time>2026-09-02T22:08:34Z</time>
  <course>0.03</course>
  <speed>1.0</speed>
  <fix>3d</fix>
</trkpt>
<trkpt lat="33.8101863" lon="-118.3944321">
  <ele>-50.017</ele>
  <time>2026-09-02T22:08:34Z</time>
  <course>1.6</course>
  <speed>0.9702061636580135</speed>
  <fix>3d</fix>
</trkpt>
<trkpt lat="33.8101853" lon="-118.3944324">
  <ele>-48.8</ele>
  <time>2026-09-02T22:08:34Z</time>
  <course>0.04</course>
  <speed>1.0</speed>
  <fix>3d</fix>
</trkpt>
<trkpt lat="33.8101872" lon="-118.3944321">
  <ele>-50.018</ele>
  <time>2026-09-02T22:08:35Z</time>
  <course>1.59</course>
  <speed>0.9702061636580135</speed>
  <fix>3d</fix>
</trkpt>
<trkpt lat="33.8101853" lon="-118.3944324">
  <ele>-48.8</ele>
  <time>2026-09-02T22:08:35Z</time>
  <course>0.04</course>
  <speed>1.0</speed>
  <fix>3d</fix>
</trkpt>
<trkpt lat="33.8101881" lon="-118.3944321">
  <ele>-50.019</ele>
  <time>2026-09-02T22:08:35Z</time>
  <course>1.6</course>
  <speed>0.9702061636580135</speed>
  <fix>3d</fix>
</trkpt>
<trkpt lat="33.8101872" lon="-118.3944324">
  <ele>-48.8</ele>
  <time>2026-09-02T22:08:35Z</time>
  <course>0.05</course>
  <speed>1.0</speed>
  <fix>3d</fix>
</trkpt>
<trkpt lat="33.810189" lon="-118.3944321">
  <ele>-50.02</ele>
  <time>2026-09-02T22:08:35Z</time>
  <course>1.6</course>
  <speed>0.9702061636580135</speed>
  <fix>3d</fix>
</trkpt>
<trkpt lat="33.8101872" lon="-118.3944324">
  <ele>-48.8</ele>
  <time>2026-09-02T22:08:35Z</time>
  <course>0.05</course>
  <speed>1.0</speed>
  <fix>3d</fix>
</trkpt>
<trkpt lat="33.8101899" lon="-118.3944321">
  <ele>-50.021</ele>
  <time>2026-09-02T22:08:35Z</time>
  <course>1.6</course>
  <speed>0.9702061636580135</speed>
  <fix>3d</fix>
</trkpt>
<trkpt lat="33.8101889" lon="-118.3944324">
  <ele>-48.81</ele>
  <time>2026-09-02T22:08:35Z</time>
  <course>0.07</course>
  <speed>1.0</speed>
  <fix>3d</fix>
</trkpt>
<trkpt lat="33.8101908" lon="-118.3944321">
  <ele>-50.021</ele>
  <time>2026-09-02T22:08:35Z</time>
  <course>1.6</course>
  <speed>0.9702061636580135</speed>
  <fix>3d</fix>
</trkpt>
<trkpt lat="33.8101889" lon="-118.3944324">
  <ele>-48.81</ele>
  <time>2026-09-02T22:08:35Z</time>
  <course>0.07</course>
  <speed>1.0</speed>
  <fix>3d</fix>
</trkpt>
<trkpt lat="33.8101917" lon="-118.3944321">
  <ele>-50.021</ele>
  <time>2026-09-02T22:08:35Z</time>
  <course>1.6</course>
  <speed>0.9702061636580135</speed>
  <fix>3d</fix>
</trkpt>
<trkpt lat="33.8101908" lon="-118.3944324">
  <ele>-48.81</ele>
  <time>2026-09-02T22:08:35Z</time>
  <course>0.08</course>
  <speed>1.0</speed>
  <fix>3d</fix>
</trkpt>
<trkpt lat="33.8101926" lon="-118.3944321">
  <ele>-50.02</ele>
  <time>2026-09-02T22:08:35Z</time>
  <course>1.59</course>
  <speed>0.9702061636580135</speed>
  <fix>3d</fix>
</trkpt>
<trkpt lat="33.8101908" lon="-118.3944324">
  <ele>-48.81</ele>
  <time>2026-09-02T22:08:35Z</time>
  <course>0.08</course>
  <speed>1.0</speed>
  <fix>3d</fix>
</trkpt>
<trkpt lat="33.8101935" lon="-118.3944321">
  <ele>-50.019</ele>
  <time>2026-09-02T22:08:35Z</time>
  <course>1.59</course>
  <speed>0.9702061636580135</speed>
  <fix>3d</fix>
</trkpt>
<trkpt lat="33.8101925" lon="-118.3944324">
  <ele>-48.81</ele>
  <time>2026-09-02T22:08:35Z</time>
  <course>0.09</course>
  <speed>1.0</speed>
  <fix>3d</fix>
</trkpt>
<trkpt lat="33.8101944" lon="-118.3944321">
  <ele>-50.019</ele>
  <time>2026-09-02T22:08:35Z</time>
  <course>1.58</course>
  <speed>0.9702061636580135</speed>
  <fix>3d</fix>
</trkpt>
<trkpt lat="33.8101925" lon="-118.3944324">
  <ele>-48.81</ele>
  <time>2026-09-02T22:08:35Z</time>
  <course>0.09</course>
  <speed>1.0</speed>
  <fix>3d</fix>
</trkpt>
<trkpt lat="33.8101953" lon="-118.3944321">
  <ele>-50.019</ele>
  <time>2026-09-02T22:08:35Z</time>
  <course>1.58</course>
  <speed>0.9702061636580135</speed>
  <fix>3d</fix>
</trkpt>
<trkpt lat="33.8101944" lon="-118.3944324">
  <ele>-48.8</ele>
  <time>2026-09-02T22:08:35Z</time>
  <course>0.09</course>
  <speed>1.0</speed>
  <fix>3d</fix>
</trkpt>
<trkpt lat="33.8101962" lon="-118.3944321">
  <ele>-50.018</ele>
  <time>2026-09-02T22:08:35Z</time>
  <course>1.57</course>
  <speed>0.9702061636580135</speed>
  <fix>3d</fix>
</trkpt>
<trkpt lat="33.8101944" lon="-118.3944324">
  <ele>-48.8</ele>
  <time>2026-09-02T22:08:35Z</time>
  <course>0.09</course>
  <speed>1.0</speed>
  <fix>3d</fix>
</trkpt>
<trkpt lat="33.8101971" lon="-118.3944321">
  <ele>-50.017</ele>
  <time>2026-09-02T22:08:35Z</time>
  <course>1.57</course>
  <speed>0.9702061636580135</speed>
  <fix>3d</fix>
</trkpt>
<trkpt lat="33.8101961" lon="-118.3944324">
  <ele>-48.8</ele>
  <time>2026-09-02T22:08:35Z</time>
  <course>0.1</course>
  <speed>1.0</speed>
  <fix>3d</fix>
</trkpt>
<trkpt lat="33.810198" lon="-118.3944321">
  <ele>-50.016</ele>
  <time>2026-09-02T22:08:35Z</time>
  <course>1.56</course>
  <speed>0.9702061636580135</speed>
  <fix>3d</fix>
</trkpt>
<trkpt lat="33.8101961" lon="-118.3944324">
  <ele>-48.8</ele>
  <time>2026-09-02T22:08:35Z</time>
  <course>0.1</course>
  <speed>1.0</speed>
  <fix>3d</fix>
</trkpt>
<trkpt lat="33.8101989" lon="-118.3944321">
  <ele>-50.014</ele>
  <time>2026-09-02T22:08:35Z</time>
  <course>1.57</course>
  <speed>0.9702061636580135</speed>
  <fix>3d</fix>
</trkpt>
<trkpt lat="33.810198" lon="-118.3944324">
  <ele>-48.8</ele>
  <time>2026-09-02T22:08:35Z</time>
  <course>0.11</course>
  <speed>1.0</speed>
  <fix>3d</fix>
</trkpt>
<trkpt lat="33.8101998" lon="-118.3944321">
  <ele>-50.014</ele>
  <time>2026-09-02T22:08:35Z</time>
  <course>1.56</course>
  <speed>0.9702061636580135</speed>
  <fix>3d</fix>
</trkpt>
<trkpt lat="33.810198" lon="-118.3944324">
  <ele>-48.8</ele>
  <time>2026-09-02T22:08:35Z</time>
  <course>0.11</course>
  <speed>1.0</speed>
  <fix>3d</fix>
</trkpt>
<trkpt lat="33.8102007" lon="-118.3944321">
  <ele>-50.015</ele>
  <time>2026-09-02T22:08:35Z</time>
  <course>1.56</course>
  <speed>0.9702061636580135</speed>
  <fix>3d</fix>
</trkpt>
<trkpt lat="33.8101997" lon="-118.3944324">
  <ele>-48.8</ele>
  <time>2026-09-02T22:08:35Z</time>
  <course>0.12</course>
  <speed>1.0</speed>
  <fix>3d</fix>
</trkpt>
<trkpt lat="33.8102016" lon="-118.3944321">
  <ele>-50.016</ele>
  <time>2026-09-02T22:08:35Z</time>
  <course>1.55</course>
  <speed>0.9702061636580135</speed>
  <fix>3d</fix>
</trkpt>
<trkpt lat="33.8101997" lon="-118.3944324">
  <ele>-48.8</ele>
  <time>2026-09-02T22:08:35Z</time>
  <course>0.12</course>
  <speed>1.0</speed>
  <fix>3d</fix>
</trkpt>
<trkpt lat="33.8102025" lon="-118.3944321">
  <ele>-50.018</ele>
  <time>2026-09-02T22:08:35Z</time>
  <course>1.55</course>
  <speed>0.9702061636580135</speed>
  <fix>3d</fix>
</trkpt>
<trkpt lat="33.8102016" lon="-118.3944324">
  <ele>-48.81</ele>
  <time>2026-09-02T22:08:35Z</time>
  <course>0.12</course>
  <speed>1.0</speed>
  <fix>3d</fix>
</trkpt>
<trkpt lat="33.8102034" lon="-118.3944321">
  <ele>-50.019</ele>
  <time>2026-09-02T22:08:35Z</time>
  <course>1.55</course>
  <speed>0.9702061636580135</speed>
  <fix>3d</fix>
</trkpt>
<trkpt lat="33.8102016" lon="-118.3944324">
  <ele>-48.81</ele>
  <time>2026-09-02T22:08:35Z</time>
  <course>0.12</course>
  <speed>1.0</speed>
  <fix>3d</fix>
</trkpt>
<trkpt lat="33.8102043" lon="-118.3944321">
  <ele>-50.02</ele>
  <time>2026-09-02T22:08:35Z</time>
  <course>1.55</course>
  <speed>0.9702061636580135</speed>
  <fix>3d</fix>
</trkpt>
<trkpt lat="33.8102033" lon="-118.3944324">
  <ele>-48.81</ele>
  <time>2026-09-02T22:08:35Z</time>
  <course>0.12</course>
  <speed>1.0</speed>
  <fix>3d</fix>
</trkpt>
<trkpt lat="33.8102052" lon="-118.3944321">
  <ele>-50.02</ele>
  <time>2026-09-02T22:08:35Z</time>
  <course>1.54</course>
  <speed>0.9702061636580135</speed>
  <fix>3d</fix>
</trkpt>
<trkpt lat="33.8102033" lon="-118.3944324">
  <ele>-48.81</ele>
  <time>2026-09-02T22:08:35Z</time>
  <course>0.12</course>
  <speed>1.0</speed>
  <fix>3d</fix>
</trkpt>
<trkpt lat="33.8102061" lon="-118.3944321">
  <ele>-50.02</ele>
  <time>2026-09-02T22:08:35Z</time>
  <course>1.54</course>
  <speed>0.9702061636580135</speed>
  <fix>3d</fix>
</trkpt>
<trkpt lat="33.8102052" lon="-118.3944324">
  <ele>-48.81</ele>
  <time>2026-09-02T22:08:35Z</time>
  <course>0.12</course>
  <speed>1.0</speed>
  <fix>3d</fix>
</trkpt>
<trkpt lat="33.810207" lon="-118.3944321">
  <ele>-50.021</ele>
  <time>2026-09-02T22:08:35Z</time>
  <course>1.54</course>
  <speed>0.9702061636580135</speed>
  <fix>3d</fix>
</trkpt>
<trkpt lat="33.8102052" lon="-118.3944324">
  <ele>-48.81</ele>
  <time>2026-09-02T22:08:35Z</time>
  <course>0.12</course>
  <speed>1.0</speed>
  <fix>3d</fix>
</trkpt>
<trkpt lat="33.8102079" lon="-118.3944321">
  <ele>-50.022</ele>
  <time>2026-09-02T22:08:35Z</time>
  <course>1.54</course>
  <speed>0.9702061636580135</speed>
  <fix>3d</fix>
</trkpt>
<trkpt lat="33.810207" lon="-118.3944324">
  <ele>-48.82</ele>
  <time>2026-09-02T22:08:35Z</time>
  <course>0.12</course>
  <speed>1.0</speed>
  <fix>3d</fix>
</trkpt>
<trkpt lat="33.8102088" lon="-118.3944321">
  <ele>-50.022</ele>
  <time>2026-09-02T22:08:35Z</time>
  <course>1.53</course>
  <speed>0.9702061636580135</speed>
  <fix>3d</fix>
</trkpt>
<trkpt lat="33.810207" lon="-118.3944324">
  <ele>-48.82</ele>
  <time>2026-09-02T22:08:35Z</time>
  <course>0.12</course>
  <speed>1.0</speed>
  <fix>3d</fix>
</trkpt>
<trkpt lat="33.8102097" lon="-118.3944321">
  <ele>-50.023</ele>
  <time>2026-09-02T22:08:35Z</time>
  <course>1.54</course>
  <speed>0.9702061636580135</speed>
  <fix>3d</fix>
</trkpt>
<trkpt lat="33.8102088" lon="-118.3944324">
  <ele>-48.82</ele>
  <time>2026-09-02T22:08:35Z</time>
  <course>0.13</course>
  <speed>1.0</speed>
  <fix>3d</fix>
</trkpt>
<trkpt lat="33.8102106" lon="-118.3944321">
  <ele>-50.023</ele>
  <time>2026-09-02T22:08:35Z</time>
  <course>1.54</course>
  <speed>0.9702061636580135</speed>
  <fix>3d</fix>
</trkpt>
<trkpt lat="33.8102088" lon="-118.3944324">
  <ele>-48.82</ele>
  <time>2026-09-02T22:08:35Z</time>
  <course>0.13</course>
  <speed>1.0</speed>
  <fix>3d</fix>
</trkpt>
<trkpt lat="33.8102115" lon="-118.3944321">
  <ele>-50.025</ele>
  <time>2026-09-02T22:08:35Z</time>
  <course>1.54</course>
  <speed>0.9702061636580135</speed>
  <fix>3d</fix>
</trkpt>
<trkpt lat="33.8102106" lon="-118.3944324">
  <ele>-48.82</ele>
  <time>2026-09-02T22:08:35Z</time>
  <course>0.15</course>
  <speed>0.99</speed>
  <fix>3d</fix>
</trkpt>
<trkpt lat="33.8102124" lon="-118.3944321">
  <ele>-50.025</ele>
  <time>2026-09-02T22:08:35Z</time>
  <course>1.54</course>
  <speed>0.9702061636580135</speed>
  <fix>3d</fix>
</trkpt>
<trkpt lat="33.8102106" lon="-118.3944324">
  <ele>-48.82</ele>
  <time>2026-09-02T22:08:35Z</time>
  <course>0.15</course>
  <speed>0.99</speed>
  <fix>3d</fix>
</trkpt>
<trkpt lat="33.8102133" lon="-118.3944321">
  <ele>-50.025</ele>
  <time>2026-09-02T22:08:35Z</time>
  <course>1.54</course>
  <speed>0.9702061636580135</speed>
  <fix>3d</fix>
</trkpt>
<trkpt lat="33.8102124" lon="-118.3944324">
  <ele>-48.81</ele>
  <time>2026-09-02T22:08:35Z</time>
  <course>0.15</course>
  <speed>0.99</speed>
  <fix>3d</fix>
</trkpt>
<trkpt lat="33.8102142" lon="-118.3944321">
  <ele>-50.024</ele>
  <time>2026-09-02T22:08:35Z</time>
  <course>1.53</course>
  <speed>0.9702061636580135</speed>
  <fix>3d</fix>
</trkpt>
<trkpt lat="33.8102124" lon="-118.3944324">
  <ele>-48.81</ele>
  <time>2026-09-02T22:08:35Z</time>
  <course>0.15</course>
  <speed>0.99</speed>
  <fix>3d</fix>
</trkpt>
<trkpt lat="33.8102151" lon="-118.3944321">
  <ele>-50.022</ele>
  <time>2026-09-02T22:08:35Z</time>
  <course>1.54</course>
  <speed>0.9702061636580135</speed>
  <fix>3d</fix>
</trkpt>
<trkpt lat="33.8102142" lon="-118.3944324">
  <ele>-48.81</ele>
  <time>2026-09-02T22:08:35Z</time>
  <course>0.15</course>
  <speed>0.99</speed>
  <fix>3d</fix>
</trkpt>
<trkpt lat="33.810216" lon="-118.3944321">
  <ele>-50.02</ele>
  <time>2026-09-02T22:08:35Z</time>
  <course>1.53</course>
  <speed>0.9702061636580135</speed>
  <fix>3d</fix>
</trkpt>
<trkpt lat="33.8102142" lon="-118.3944324">
  <ele>-48.81</ele>
  <time>2026-09-02T22:08:35Z</time>
  <course>0.15</course>
  <speed>0.99</speed>
  <fix>3d</fix>
</trkpt>
<trkpt lat="33.8102169" lon="-118.3944321">
  <ele>-50.018</ele>
  <time>2026-09-02T22:08:35Z</time>
  <course>1.54</course>
  <speed>0.9702061636580135</speed>
  <fix>3d</fix>
</trkpt>
<trkpt lat="33.8102159" lon="-118.3944324">
  <ele>-48.81</ele>
  <time>2026-09-02T22:08:35Z</time>
  <course>0.16</course>
  <speed>0.99</speed>
  <fix>3d</fix>
</trkpt>
<trkpt lat="33.8102178" lon="-118.3944321">
  <ele>-50.017</ele>
  <time>2026-09-02T22:08:35Z</time>
  <course>1.53</course>
  <speed>0.9702061636580135</speed>
  <fix>3d</fix>
</trkpt>
<trkpt lat="33.8102159" lon="-118.3944324">
  <ele>-48.81</ele>
  <time>2026-09-02T22:08:35Z</time>
  <course>0.16</course>
  <speed>0.99</speed>
  <fix>3d</fix>
</trkpt>
<trkpt lat="33.8102187" lon="-118.3944321">
  <ele>-50.016</ele>
  <time>2026-09-02T22:08:35Z</time>
  <course>1.54</course>
  <speed>0.9702061636580135</speed>
  <fix>3d</fix>
</trkpt>
<trkpt lat="33.8102178" lon="-118.3944324">
  <ele>-48.8</ele>
  <time>2026-09-02T22:08:35Z</time>
  <course>0.18</course>
  <speed>0.99</speed>
  <fix>3d</fix>
</trkpt>
<trkpt lat="33.8102196" lon="-118.3944321">
  <ele>-50.015</ele>
  <time>2026-09-02T22:08:35Z</time>
  <course>1.53</course>
  <speed>0.9702061636580135</speed>
  <fix>3d</fix>
</trkpt>
<trkpt lat="33.8102178" lon="-118.3944324">
  <ele>-48.8</ele>
  <time>2026-09-02T22:08:35Z</time>
  <course>0.18</course>
  <speed>0.99</speed>
  <fix>3d</fix>
</trkpt>
<trkpt lat="33.8102205" lon="-118.3944321">
  <ele>-50.014</ele>
  <time>2026-09-02T22:08:35Z</time>
  <course>1.53</course>
  <speed>0.9702061636580135</speed>
  <fix>3d</fix>
</trkpt>
<trkpt lat="33.8102195" lon="-118.3944324">
  <ele>-48.8</ele>
  <time>2026-09-02T22:08:35Z</time>
  <course>0.19</course>
  <speed>0.99</speed>
  <fix>3d</fix>
</trkpt>
<trkpt lat="33.8102214" lon="-118.3944321">
  <ele>-50.014</ele>
  <time>2026-09-02T22:08:35Z</time>
  <course>1.53</course>
  <speed>0.9702061636580135</speed>
  <fix>3d</fix>
</trkpt>
<trkpt lat="33.8102195" lon="-118.3944324">
  <ele>-48.8</ele>
  <time>2026-09-02T22:08:35Z</time>
  <course>0.19</course>
  <speed>0.99</speed>
  <fix>3d</fix>
</trkpt>
<trkpt lat="33.8102223" lon="-118.3944321">
  <ele>-50.017</ele>
  <time>2026-09-02T22:08:35Z</time>
  <course>1.53</course>
  <speed>0.9702061636580135</speed>
  <fix>3d</fix>
</trkpt>
<trkpt lat="33.8102214" lon="-118.3944324">
  <ele>-48.81</ele>
  <time>2026-09-02T22:08:35Z</time>
  <course>0.19</course>
  <speed>0.99</speed>
  <fix>3d</fix>
</trkpt>
<trkpt lat="33.8102232" lon="-118.3944321">
  <ele>-50.02</ele>
  <time>2026-09-02T22:08:35Z</time>
  <course>1.52</course>
  <speed>0.9702061636580135</speed>
  <fix>3d</fix>
</trkpt>
<trkpt lat="33.8102214" lon="-118.3944324">
  <ele>-48.81</ele>
  <time>2026-09-02T22:08:35Z</time>
  <course>0.19</course>
  <speed>0.99</speed>
  <fix>3d</fix>
</trkpt>
<trkpt lat="33.8102241" lon="-118.3944321">
  <ele>-50.022</ele>
  <time>2026-09-02T22:08:35Z</time>
  <course>1.52</course>
  <speed>0.9702061636580135</speed>
  <fix>3d</fix>
</trkpt>
<trkpt lat="33.8102231" lon="-118.3944324">
  <ele>-48.81</ele>
  <time>2026-09-02T22:08:35Z</time>
  <course>0.2</course>
  <speed>0.99</speed>
  <fix>3d</fix>
</trkpt>
<trkpt lat="33.810225" lon="-118.3944321">
  <ele>-50.023</ele>
  <time>2026-09-02T22:08:35Z</time>
  <course>1.52</course>
  <speed>0.9702061636580135</speed>
  <fix>3d</fix>
</trkpt>
<trkpt lat="33.8102231" lon="-118.3944324">
  <ele>-48.81</ele>
  <time>2026-09-02T22:08:35Z</time>
  <course>0.2</course>
  <speed>0.99</speed>
  <fix>3d</fix>
</trkpt>
<trkpt lat="33.8102259" lon="-118.3944321">
  <ele>-50.024</ele>
  <time>2026-09-02T22:08:35Z</time>
  <course>1.52</course>
  <speed>0.9702061636580135</speed>
  <fix>3d</fix>
</trkpt>
<trkpt lat="33.8102248" lon="-118.3944324">
  <ele>-48.81</ele>
  <time>2026-09-02T22:08:35Z</time>
  <course>0.19</course>
  <speed>0.99</speed>
  <fix>3d</fix>
</trkpt>
<trkpt lat="33.8102268" lon="-118.3944321">
  <ele>-50.024</ele>
  <time>2026-09-02T22:08:35Z</time>
  <course>1.52</course>
  <speed>0.9702061636580135</speed>
  <fix>3d</fix>
</trkpt>
<trkpt lat="33.8102248" lon="-118.3944324">
  <ele>-48.81</ele>
  <time>2026-09-02T22:08:35Z</time>
  <course>0.19</course>
  <speed>0.99</speed>
  <fix>3d</fix>
</trkpt>
<trkpt lat="33.8102277" lon="-118.3944321">
  <ele>-50.022</ele>
  <time>2026-09-02T22:08:35Z</time>
  <course>1.52</course>
  <speed>0.9702061636580135</speed>
  <fix>3d</fix>
</trkpt>
<trkpt lat="33.8102267" lon="-118.3944324">
  <ele>-48.81</ele>
  <time>2026-09-02T22:08:35Z</time>
  <course>0.2</course>
  <speed>0.99</speed>
  <fix>3d</fix>
</trkpt>
<trkpt lat="33.8102286" lon="-118.3944321">
  <ele>-50.019</ele>
  <time>2026-09-02T22:08:35Z</time>
  <course>1.51</course>
  <speed>0.9702061636580135</speed>
  <fix>3d</fix>
</trkpt>
<trkpt lat="33.8102267" lon="-118.3944324">
  <ele>-48.81</ele>
  <time>2026-09-02T22:08:35Z</time>
  <course>0.2</course>
  <speed>0.99</speed>
  <fix>3d</fix>
</trkpt>
<trkpt lat="33.8102295" lon="-118.3944321">
  <ele>-50.017</ele>
  <time>2026-09-02T22:08:35Z</time>
  <course>1.51</course>
  <speed>0.9702061636580135</speed>
  <fix>3d</fix>
</trkpt>
<trkpt lat="33.8102284" lon="-118.3944324">
  <ele>-48.81</ele>
  <time>2026-09-02T22:08:35Z</time>
  <course>0.22</course>
  <speed>0.99</speed>
  <fix>3d</fix>
</trkpt>
<trkpt lat="33.8102304" lon="-118.3944321">
  <ele>-50.016</ele>
  <time>2026-09-02T22:08:35Z</time>
  <course>1.49</course>
  <speed>0.9702061636580135</speed>
  <fix>3d</fix>
</trkpt>
<trkpt lat="33.8102284" lon="-118.3944324">
  <ele>-48.81</ele>
  <time>2026-09-02T22:08:35Z</time>
  <course>0.22</course>
  <speed>0.99</speed>
  <fix>3d</fix>
</trkpt>
<trkpt lat="33.8102313" lon="-118.3944321">
  <ele>-50.016</ele>
  <time>2026-09-02T22:08:35Z</time>
  <course>1.49</course>
  <speed>0.9702061636580135</speed>
  <fix>3d</fix>
</trkpt>
<trkpt lat="33.8102303" lon="-118.3944324">
  <ele>-48.81</ele>
  <time>2026-09-02T22:08:35Z</time>
  <course>0.21</course>
  <speed>0.99</speed>
  <fix>3d</fix>
</trkpt>
<trkpt lat="33.8102322" lon="-118.3944321">
  <ele>-50.017</ele>
  <time>2026-09-02T22:08:35Z</time>
  <course>1.48</course>
  <speed>0.9702061636580135</speed>
  <fix>3d</fix>
</trkpt>
<trkpt lat="33.8102303" lon="-118.3944324">
  <ele>-48.81</ele>
  <time>2026-09-02T22:08:35Z</time>
  <course>0.21</course>
  <speed>0.99</speed>
  <fix>3d</fix>
</trkpt>
<trkpt lat="33.8102331" lon="-118.3944321">
  <ele>-50.018</ele>
  <time>2026-09-02T22:08:35Z</time>
  <course>1.49</course>
  <speed>0.9702061636580135</speed>
  <fix>3d</fix>
</trkpt>
<trkpt lat="33.810232" lon="-118.3944324">
  <ele>-48.81</ele>
  <time>2026-09-02T22:08:35Z</time>
  <course>0.21</course>
  <speed>0.99</speed>
  <fix>3d</fix>
</trkpt>
<trkpt lat="33.810234" lon="-118.3944321">
  <ele>-50.019</ele>
  <time>2026-09-02T22:08:35Z</time>
  <course>1.49</course>
  <speed>0.9702061636580135</speed>
  <fix>3d</fix>
</trkpt>
<trkpt lat="33.810232" lon="-118.3944324">
  <ele>-48.81</ele>
  <time>2026-09-02T22:08:35Z</time>
  <course>0.21</course>
  <speed>0.99</speed>
  <fix>3d</fix>
</trkpt>
<trkpt lat="33.8102349" lon="-118.3944321">
  <ele>-50.021</ele>
  <time>2026-09-02T22:08:35Z</time>
  <course>1.49</course>
  <speed>0.9702061636580135</speed>
  <fix>3d</fix>
</trkpt>
<trkpt lat="33.8102339" lon="-118.3944324">
  <ele>-48.81</ele>
  <time>2026-09-02T22:08:35Z</time>
  <course>0.22</course>
  <speed>1.0</speed>
  <fix>3d</fix>
</trkpt>
<trkpt lat="33.8102358" lon="-118.3944321">
  <ele>-50.022</ele>
  <time>2026-09-02T22:08:35Z</time>
  <course>1.49</course>
  <speed>0.9702061636580135</speed>
  <fix>3d</fix>
</trkpt>
<trkpt lat="33.8102339" lon="-118.3944324">
  <ele>-48.81</ele>
  <time>2026-09-02T22:08:35Z</time>
  <course>0.22</course>
  <speed>1.0</speed>
  <fix>3d</fix>
</trkpt>
<trkpt lat="33.8102367" lon="-118.3944321">
  <ele>-50.021</ele>
  <time>2026-09-02T22:08:35Z</time>
  <course>1.49</course>
  <speed>0.9702061636580135</speed>
  <fix>3d</fix>
</trkpt>
<trkpt lat="33.8102356" lon="-118.3944324">
  <ele>-48.81</ele>
  <time>2026-09-02T22:08:35Z</time>
  <course>0.22</course>
  <speed>1.0</speed>
  <fix>3d</fix>
</trkpt>
<trkpt lat="33.8102375" lon="-118.3944321">
  <ele>-50.019</ele>
  <time>2026-09-02T22:08:35Z</time>
  <course>1.49</course>
  <speed>0.9702061636580135</speed>
  <fix>3d</fix>
</trkpt>
<trkpt lat="33.8102356" lon="-118.3944324">
  <ele>-48.81</ele>
  <time>2026-09-02T22:08:35Z</time>
  <course>0.22</course>
  <speed>1.0</speed>
  <fix>3d</fix>
</trkpt>
<trkpt lat="33.8102384" lon="-118.3944321">
  <ele>-50.017</ele>
  <time>2026-09-02T22:08:35Z</time>
  <course>1.49</course>
  <speed>0.9702061636580135</speed>
  <fix>3d</fix>
</trkpt>
<trkpt lat="33.8102375" lon="-118.3944324">
  <ele>-48.81</ele>
  <time>2026-09-02T22:08:35Z</time>
  <course>0.23</course>
  <speed>1.0</speed>
  <fix>3d</fix>
</trkpt>
<trkpt lat="33.8102393" lon="-118.3944321">
  <ele>-50.016</ele>
  <time>2026-09-02T22:08:35Z</time>
  <course>1.48</course>
  <speed>0.9702061636580135</speed>
  <fix>3d</fix>
</trkpt>
<trkpt lat="33.8102375" lon="-118.3944324">
  <ele>-48.81</ele>
  <time>2026-09-02T22:08:35Z</time>
  <course>0.23</course>
  <speed>1.0</speed>
  <fix>3d</fix>
</trkpt>
<trkpt lat="33.8102402" lon="-118.3944321">
  <ele>-50.016</ele>
  <time>2026-09-02T22:08:35Z</time>
  <course>1.48</course>
  <speed>0.9702061636580135</speed>
  <fix>3d</fix>
</trkpt>
<trkpt lat="33.8102392" lon="-118.3944324">
  <ele>-48.81</ele>
  <time>2026-09-02T22:08:35Z</time>
  <course>0.23</course>
  <speed>0.99</speed>
  <fix>3d</fix>
</trkpt>
<trkpt lat="33.8102411" lon="-118.3944321">
  <ele>-50.016</ele>
  <time>2026-09-02T22:08:35Z</time>
  <course>1.48</course>
  <speed>0.9702061636580135</speed>
  <fix>3d</fix>
</trkpt>
<trkpt lat="33.8102392" lon="-118.3944324">
  <ele>-48.81</ele>
  <time>2026-09-02T22:08:35Z</time>
  <course>0.23</course>
  <speed>0.99</speed>
  <fix>3d</fix>
</trkpt>
<trkpt lat="33.810242" lon="-118.3944321">
  <ele>-50.017</ele>
  <time>2026-09-02T22:08:35Z</time>
  <course>1.48</course>
  <speed>0.9702061636580135</speed>
  <fix>3d</fix>
</trkpt>
<trkpt lat="33.8102411" lon="-118.3944324">
  <ele>-48.81</ele>
  <time>2026-09-02T22:08:35Z</time>
  <course>0.23</course>
  <speed>0.99</speed>
  <fix>3d</fix>
</trkpt>
<trkpt lat="33.8102429" lon="-118.3944321">
  <ele>-50.018</ele>
  <time>2026-09-02T22:08:35Z</time>
  <course>1.48</course>
  <speed>0.9702061636580135</speed>
  <fix>3d</fix>
</trkpt>
<trkpt lat="33.8102411" lon="-118.3944324">
  <ele>-48.81</ele>
  <time>2026-09-02T22:08:35Z</time>
  <course>0.23</course>
  <speed>0.99</speed>
  <fix>3d</fix>
</trkpt>
<trkpt lat="33.8102438" lon="-118.3944321">
  <ele>-50.02</ele>
  <time>2026-09-02T22:08:35Z</time>
  <course>1.48</course>
  <speed>0.9702061636580135</speed>
  <fix>3d</fix>
</trkpt>
<trkpt lat="33.8102428" lon="-118.3944323">
  <ele>-48.81</ele>
  <time>2026-09-02T22:08:35Z</time>
  <course>0.22</course>
  <speed>0.99</speed>
  <fix>3d</fix>
</trkpt>
<trkpt lat="33.8102447" lon="-118.3944321">
  <ele>-50.022</ele>
  <time>2026-09-02T22:08:35Z</time>
  <course>1.46</course>
  <speed>0.9702061636580135</speed>
  <fix>3d</fix>
</trkpt>
<trkpt lat="33.8102428" lon="-118.3944323">
  <ele>-48.81</ele>
  <time>2026-09-02T22:08:35Z</time>
  <course>0.22</course>
  <speed>0.99</speed>
  <fix>3d</fix>
</trkpt>
<trkpt lat="33.8102456" lon="-118.3944321">
  <ele>-50.025</ele>
  <time>2026-09-02T22:08:35Z</time>
  <course>1.43</course>
  <speed>0.9702061636580135</speed>
  <fix>3d</fix>
</trkpt>
<trkpt lat="33.8102447" lon="-118.3944323">
  <ele>-48.82</ele>
  <time>2026-09-02T22:08:35Z</time>
  <course>0.19</course>
  <speed>0.99</speed>
  <fix>3d</fix>
</trkpt>
<trkpt lat="33.8102465" lon="-118.3944321">
  <ele>-50.026</ele>
  <time>2026-09-02T22:08:35Z</time>
  <course>1.38</course>
  <speed>0.9702061636580135</speed>
  <fix>3d</fix>
</trkpt>
<trkpt lat="33.8102447" lon="-118.3944323">
  <ele>-48.82</ele>
  <time>2026-09-02T22:08:35Z</time>
  <course>0.19</course>
  <speed>0.99</speed>
  <fix>3d</fix>
</trkpt>
<trkpt lat="33.8102474" lon="-118.3944321">
  <ele>-50.027</ele>
  <time>2026-09-02T22:08:35Z</time>
  <course>1.34</course>
  <speed>0.9702061636580135</speed>
  <fix>3d</fix>
</trkpt>
<trkpt lat="33.8102465" lon="-118.3944323">
  <ele>-48.82</ele>
  <time>2026-09-02T22:08:35Z</time>
  <course>0.09</course>
  <speed>0.99</speed>
  <fix>3d</fix>
</trkpt>
<trkpt lat="33.8102483" lon="-118.3944321">
  <ele>-50.027</ele>
  <time>2026-09-02T22:08:35Z</time>
  <course>1.29</course>
  <speed>0.9702061636580135</speed>
  <fix>3d</fix>
</trkpt>
<trkpt lat="33.8102465" lon="-118.3944323">
  <ele>-48.82</ele>
  <time>2026-09-02T22:08:35Z</time>
  <course>0.09</course>
  <speed>0.99</speed>
  <fix>3d</fix>
</trkpt>
<trkpt lat="33.8102492" lon="-118.3944321">
  <ele>-50.025</ele>
  <time>2026-09-02T22:08:35Z</time>
  <course>1.25</course>
  <speed>0.9702061636580135</speed>
  <fix>3d</fix>
</trkpt>
<trkpt lat="33.8102483" lon="-118.3944323">
  <ele>-48.82</ele>
  <time>2026-09-02T22:08:35Z</time>
  <course>359.99</course>
  <speed>0.99</speed>
  <fix>3d</fix>
</trkpt>
<trkpt lat="33.8102501" lon="-118.3944321">
  <ele>-50.023</ele>
  <time>2026-09-02T22:08:35Z</time>
  <course>1.2</course>
  <speed>0.9702061636580135</speed>
  <fix>3d</fix>
</trkpt>
<trkpt lat="33.8102483" lon="-118.3944323">
  <ele>-48.82</ele>
  <time>2026-09-02T22:08:35Z</time>
  <course>359.99</course>
  <speed>0.99</speed>
  <fix>3d</fix>
</trkpt>
<trkpt lat="33.810251" lon="-118.3944321">
  <ele>-50.021</ele>
  <time>2026-09-02T22:08:35Z</time>
  <course>1.18</course>
  <speed>0.9702061636580135</speed>
  <fix>3d</fix>
</trkpt>
<trkpt lat="33.8102501" lon="-118.3944323">
  <ele>-48.81</ele>
  <time>2026-09-02T22:08:35Z</time>
  <course>359.93</course>
  <speed>0.99</speed>
  <fix>3d</fix>
</trkpt>
<trkpt lat="33.8102519" lon="-118.3944321">
  <ele>-50.019</ele>
  <time>2026-09-02T22:08:35Z</time>
  <course>1.16</course>
  <speed>0.9702061636580135</speed>
  <fix>3d</fix>
</trkpt>
<trkpt lat="33.8102501" lon="-118.3944323">
  <ele>-48.81</ele>
  <time>2026-09-02T22:08:35Z</time>
  <course>359.93</course>
  <speed>0.99</speed>
  <fix>3d</fix>
</trkpt>
<trkpt lat="33.8102528" lon="-118.3944321">
  <ele>-50.018</ele>
  <time>2026-09-02T22:08:35Z</time>
  <course>1.14</course>
  <speed>0.9702061636580135</speed>
  <fix>3d</fix>
</trkpt>
<trkpt lat="33.8102518" lon="-118.3944323">
  <ele>-48.81</ele>
  <time>2026-09-02T22:08:35Z</time>
  <course>359.91</course>
  <speed>0.99</speed>
  <fix>3d</fix>
</trkpt>
<trkpt lat="33.8102537" lon="-118.3944321">
  <ele>-50.017</ele>
  <time>2026-09-02T22:08:35Z</time>
  <course>1.12</course>
  <speed>0.9702061636580135</speed>
  <fix>3d</fix>
</trkpt>
<trkpt lat="33.8102518" lon="-118.3944323">
  <ele>-48.81</ele>
  <time>2026-09-02T22:08:35Z</time>
  <course>359.91</course>
  <speed>0.99</speed>
  <fix>3d</fix>
</trkpt>
<trkpt lat="33.8102546" lon="-118.3944321">
  <ele>-50.018</ele>
  <time>2026-09-02T22:08:35Z</time>
  <course>1.1</course>
  <speed>0.9702061636580135</speed>
  <fix>3d</fix>
</trkpt>
<trkpt lat="33.8102535" lon="-118.3944323">
  <ele>-48.8</ele>
  <time>2026-09-02T22:08:35Z</time>
  <course>359.88</course>
  <speed>0.99</speed>
  <fix>3d</fix>
</trkpt>
<trkpt lat="33.8102555" lon="-118.3944321">
  <ele>-50.018</ele>
  <time>2026-09-02T22:08:35Z</time>
  <course>1.08</course>
  <speed>0.9702061636580135</speed>
  <fix>3d</fix>
</trkpt>
<trkpt lat="33.8102535" lon="-118.3944323">
  <ele>-48.8</ele>
  <time>2026-09-02T22:08:35Z</time>
  <course>359.88</course>
  <speed>0.99</speed>
  <fix>3d</fix>
</trkpt>
<trkpt lat="33.8102564" lon="-118.3944321">
  <ele>-50.019</ele>
  <time>2026-09-02T22:08:35Z</time>
  <course>1.07</course>
  <speed>0.9702061636580135</speed>
  <fix>3d</fix>
</trkpt>
<trkpt lat="33.8102554" lon="-118.3944323">
  <ele>-48.8</ele>
  <time>2026-09-02T22:08:35Z</time>
  <course>359.84</course>
  <speed>0.99</speed>
  <fix>3d</fix>
</trkpt>
<trkpt lat="33.8102573" lon="-118.3944321">
  <ele>-50.021</ele>
  <time>2026-09-02T22:08:35Z</time>
  <course>1.06</course>
  <speed>0.9702061636580135</speed>
  <fix>3d</fix>
</trkpt>
<trkpt lat="33.8102554" lon="-118.3944323">
  <ele>-48.8</ele>
  <time>2026-09-02T22:08:35Z</time>
  <course>359.84</course>
  <speed>0.99</speed>
  <fix>3d</fix>
</trkpt>
<trkpt lat="33.8102582" lon="-118.3944321">
  <ele>-50.023</ele>
  <time>2026-09-02T22:08:35Z</time>
  <course>1.05</course>
  <speed>0.9702061636580135</speed>
  <fix>3d</fix>
</trkpt>
<trkpt lat="33.8102571" lon="-118.3944323">
  <ele>-48.81</ele>
  <time>2026-09-02T22:08:35Z</time>
  <course>359.82</course>
  <speed>0.99</speed>
  <fix>3d</fix>
</trkpt>
<trkpt lat="33.8102591" lon="-118.3944321">
  <ele>-50.025</ele>
  <time>2026-09-02T22:08:35Z</time>
  <course>1.05</course>
  <speed>0.9702061636580135</speed>
  <fix>3d</fix>
</trkpt>
<trkpt lat="33.8102571" lon="-118.3944323">
  <ele>-48.81</ele>
  <time>2026-09-02T22:08:35Z</time>
  <course>359.82</course>
  <speed>0.99</speed>
  <fix>3d</fix>
</trkpt>
<trkpt lat="33.81026" lon="-118.3944321">
  <ele>-50.025</ele>
  <time>2026-09-02T22:08:35Z</time>
  <course>1.05</course>
  <speed>0.9702061636580135</speed>
  <fix>3d</fix>
</trkpt>
<trkpt lat="33.810259" lon="-118.3944323">
  <ele>-48.8</ele>
  <time>2026-09-02T22:08:35Z</time>
  <course>359.79</course>
  <speed>0.99</speed>
  <fix>3d</fix>
</trkpt>
<trkpt lat="33.8102609" lon="-118.3944321">
  <ele>-50.024</ele>
  <time>2026-09-02T22:08:35Z</time>
  <course>1.04</course>
  <speed>0.9702061636580135</speed>
  <fix>3d</fix>
</trkpt>
<trkpt lat="33.810259" lon="-118.3944323">
  <ele>-48.8</ele>
  <time>2026-09-02T22:08:35Z</time>
  <course>359.79</course>
  <speed>0.99</speed>
  <fix>3d</fix>
</trkpt>
<trkpt lat="33.8102618" lon="-118.3944321">
  <ele>-50.022</ele>
  <time>2026-09-02T22:08:35Z</time>
  <course>1.04</course>
  <speed>0.9702061636580135</speed>
  <fix>3d</fix>
</trkpt>
<trkpt lat="33.8102607" lon="-118.3944323">
  <ele>-48.8</ele>
  <time>2026-09-02T22:08:35Z</time>
  <course>359.76</course>
  <speed>0.99</speed>
  <fix>3d</fix>
</trkpt>
<trkpt lat="33.8102627" lon="-118.3944321">
  <ele>-50.021</ele>
  <time>2026-09-02T22:08:35Z</time>
  <course>1.04</course>
  <speed>0.9702061636580135</speed>
  <fix>3d</fix>
</trkpt>
<trkpt lat="33.8102607" lon="-118.3944323">
  <ele>-48.8</ele>
  <time>2026-09-02T22:08:35Z</time>
  <course>359.76</course>
  <speed>0.99</speed>
  <fix>3d</fix>
</trkpt>
<trkpt lat="33.8102636" lon="-118.3944321">
  <ele>-50.019</ele>
  <time>2026-09-02T22:08:35Z</time>
  <course>1.04</course>
  <speed>0.9702061636580135</speed>
  <fix>3d</fix>
</trkpt>
<trkpt lat="33.8102626" lon="-118.3944323">
  <ele>-48.8</ele>
  <time>2026-09-02T22:08:35Z</time>
  <course>359.73</course>
  <speed>0.99</speed>
  <fix>3d</fix>
</trkpt>
<trkpt lat="33.8102645" lon="-118.3944321">
  <ele>-50.017</ele>
  <time>2026-09-02T22:08:35Z</time>
  <course>1.04</course>
  <speed>0.9702061636580135</speed>
  <fix>3d</fix>
</trkpt>
<trkpt lat="33.8102626" lon="-118.3944323">
  <ele>-48.8</ele>
  <time>2026-09-02T22:08:35Z</time>
  <course>359.73</course>
  <speed>0.99</speed>
  <fix>3d</fix>
</trkpt>
<trkpt lat="33.8102654" lon="-118.3944321">
  <ele>-50.015</ele>
  <time>2026-09-02T22:08:35Z</time>
  <course>1.06</course>
  <speed>0.9702061636580135</speed>
  <fix>3d</fix>
</trkpt>
<trkpt lat="33.8102643" lon="-118.3944323">
  <ele>-48.79</ele>
  <time>2026-09-02T22:08:35Z</time>
  <course>359.71</course>
  <speed>1.0</speed>
  <fix>3d</fix>
</trkpt>
<trkpt lat="33.8102663" lon="-118.3944321">
  <ele>-50.013</ele>
  <time>2026-09-02T22:08:35Z</time>
  <course>1.06</course>
  <speed>0.9702061636580135</speed>
  <fix>3d</fix>
</trkpt>
<trkpt lat="33.8102643" lon="-118.3944323">
  <ele>-48.79</ele>
  <time>2026-09-02T22:08:35Z</time>
  <course>359.71</course>
  <speed>1.0</speed>
  <fix>3d</fix>
</trkpt>
<trkpt lat="33.8102672" lon="-118.3944321">
  <ele>-50.013</ele>
  <time>2026-09-02T22:08:35Z</time>
  <course>1.07</course>
  <speed>0.9702061636580135</speed>
  <fix>3d</fix>
</trkpt>
<trkpt lat="33.8102662" lon="-118.3944323">
  <ele>-48.79</ele>
  <time>2026-09-02T22:08:35Z</time>
  <course>359.69</course>
  <speed>1.0</speed>
  <fix>3d</fix>
</trkpt>
<trkpt lat="33.8102681" lon="-118.3944321">
  <ele>-50.013</ele>
  <time>2026-09-02T22:08:35Z</time>
  <course>1.08</course>
  <speed>0.9702061636580135</speed>
  <fix>3d</fix>
</trkpt>
<trkpt lat="33.8102662" lon="-118.3944323">
  <ele>-48.79</ele>
  <time>2026-09-02T22:08:35Z</time>
  <course>359.69</course>
  <speed>1.0</speed>
  <fix>3d</fix>
</trkpt>
<trkpt lat="33.810269" lon="-118.3944321">
  <ele>-50.013</ele>
  <time>2026-09-02T22:08:35Z</time>
  <course>1.09</course>
  <speed>0.9702061636580135</speed>
  <fix>3d</fix>
</trkpt>
<trkpt lat="33.8102679" lon="-118.3944323">
  <ele>-48.79</ele>
  <time>2026-09-02T22:08:35Z</time>
  <course>359.68</course>
  <speed>1.0</speed>
  <fix>3d</fix>
</trkpt>
<trkpt lat="33.8102699" lon="-118.3944321">
  <ele>-50.014</ele>
  <time>2026-09-02T22:08:35Z</time>
  <course>1.09</course>
  <speed>0.9702061636580135</speed>
  <fix>3d</fix>
</trkpt>
<trkpt lat="33.8102679" lon="-118.3944323">
  <ele>-48.79</ele>
  <time>2026-09-02T22:08:35Z</time>
  <course>359.68</course>
  <speed>1.0</speed>
  <fix>3d</fix>
</trkpt>
<trkpt lat="33.8102708" lon="-118.3944321">
  <ele>-50.015</ele>
  <time>2026-09-02T22:08:35Z</time>
  <course>1.1</course>
  <speed>0.9702061636580135</speed>
  <fix>3d</fix>
</trkpt>
<trkpt lat="33.8102698" lon="-118.3944323">
  <ele>-48.8</ele>
  <time>2026-09-02T22:08:35Z</time>
  <course>359.67</course>
  <speed>1.0</speed>
  <fix>3d</fix>
</trkpt>
<trkpt lat="33.8102717" lon="-118.3944321">
  <ele>-50.016</ele>
  <time>2026-09-02T22:08:35Z</time>
  <course>1.11</course>
  <speed>0.9702061636580135</speed>
  <fix>3d</fix>
</trkpt>
<trkpt lat="33.8102698" lon="-118.3944323">
  <ele>-48.8</ele>
  <time>2026-09-02T22:08:35Z</time>
  <course>359.67</course>
  <speed>1.0</speed>
  <fix>3d</fix>
</trkpt>
<trkpt lat="33.8102726" lon="-118.3944321">
  <ele>-50.016</ele>
  <time>2026-09-02T22:08:35Z</time>
  <course>1.12</course>
  <speed>0.9702061636580135</speed>
  <fix>3d</fix>
</trkpt>
<trkpt lat="33.8102715" lon="-118.3944323">
  <ele>-48.8</ele>
  <time>2026-09-02T22:08:35Z</time>
  <course>359.65</course>
  <speed>1.0</speed>
  <fix>3d</fix>
</trkpt>
<trkpt lat="33.8102735" lon="-118.3944321">
  <ele>-50.017</ele>
  <time>2026-09-02T22:08:35Z</time>
  <course>1.12</course>
  <speed>0.9702061636580135</speed>
  <fix>3d</fix>
</trkpt>
<trkpt lat="33.8102715" lon="-118.3944323">
  <ele>-48.8</ele>
  <time>2026-09-02T22:08:35Z</time>
  <course>359.65</course>
  <speed>1.0</speed>
  <fix>3d</fix>
</trkpt>
<trkpt lat="33.8102744" lon="-118.3944321">
  <ele>-50.018</ele>
  <time>2026-09-02T22:08:35Z</time>
  <course>1.13</course>
  <speed>0.9702061636580135</speed>
  <fix>3d</fix>
</trkpt>
<trkpt lat="33.8102734" lon="-118.3944323">
  <ele>-48.8</ele>
  <time>2026-09-02T22:08:35Z</time>
  <course>359.63</course>
  <speed>1.0</speed>
  <fix>3d</fix>
</trkpt>
<trkpt lat="33.8102753" lon="-118.3944321">
  <ele>-50.02</ele>
  <time>2026-09-02T22:08:35Z</time>
  <course>1.14</course>
  <speed>0.9702061636580135</speed>
  <fix>3d</fix>
</trkpt>
<trkpt lat="33.8102734" lon="-118.3944323">
  <ele>-48.8</ele>
  <time>2026-09-02T22:08:35Z</time>
  <course>359.63</course>
  <speed>1.0</speed>
  <fix>3d</fix>
</trkpt>
<trkpt lat="33.8102762" lon="-118.3944321">
  <ele>-50.021</ele>
  <time>2026-09-02T22:08:35Z</time>
  <course>1.14</course>
  <speed>0.9702061636580135</speed>
  <fix>3d</fix>
</trkpt>
<trkpt lat="33.8102751" lon="-118.3944324">
  <ele>-48.81</ele>
  <time>2026-09-02T22:08:35Z</time>
  <course>359.62</course>
  <speed>1.0</speed>
  <fix>3d</fix>
</trkpt>
<trkpt lat="33.8102771" lon="-118.3944321">
  <ele>-50.021</ele>
  <time>2026-09-02T22:08:35Z</time>
  <course>1.15</course>
  <speed>0.9702061636580135</speed>
  <fix>3d</fix>
</trkpt>
<trkpt lat="33.8102751" lon="-118.3944324">
  <ele>-48.81</ele>
  <time>2026-09-02T22:08:35Z</time>
  <course>359.62</course>
  <speed>1.0</speed>
  <fix>3d</fix>
</trkpt>
<trkpt lat="33.810278" lon="-118.3944321">
  <ele>-50.022</ele>
  <time>2026-09-02T22:08:35Z</time>
  <course>1.18</course>
  <speed>0.9702061636580135</speed>
  <fix>3d</fix>
</trkpt>
<trkpt lat="33.810277" lon="-118.3944324">
  <ele>-48.81</ele>
  <time>2026-09-02T22:08:35Z</time>
  <course>359.64</course>
  <speed>0.99</speed>
  <fix>3d</fix>
</trkpt>
<trkpt lat="33.8102789" lon="-118.3944321">
  <ele>-50.022</ele>
  <time>2026-09-02T22:08:35Z</time>
  <course>1.22</course>
  <speed>0.9702061636580135</speed>
  <fix>3d</fix>
</trkpt>
<trkpt lat="33.810277" lon="-118.3944324">
  <ele>-48.81</ele>
  <time>2026-09-02T22:08:35Z</time>
  <course>359.64</course>
  <speed>0.99</speed>
  <fix>3d</fix>
</trkpt>
<trkpt lat="33.8102798" lon="-118.3944321">
  <ele>-50.021</ele>
  <time>2026-09-02T22:08:35Z</time>
  <course>1.28</course>
  <speed>0.9702061636580135</speed>
  <fix>3d</fix>
</trkpt>
<trkpt lat="33.8102787" lon="-118.3944324">
  <ele>-48.81</ele>
  <time>2026-09-02T22:08:35Z</time>
  <course>359.71</course>
  <speed>0.99</speed>
  <fix>3d</fix>
</trkpt>
<trkpt lat="33.8102807" lon="-118.3944321">
  <ele>-50.02</ele>
  <time>2026-09-02T22:08:35Z</time>
  <course>1.32</course>
  <speed>0.9702061636580135</speed>
  <fix>3d</fix>
</trkpt>
<trkpt lat="33.8102787" lon="-118.3944324">
  <ele>-48.81</ele>
  <time>2026-09-02T22:08:35Z</time>
  <course>359.71</course>
  <speed>0.99</speed>
  <fix>3d</fix>
</trkpt>
<trkpt lat="33.8102816" lon="-118.3944321">
  <ele>-50.018</ele>
  <time>2026-09-02T22:08:35Z</time>
  <course>1.38</course>
  <speed>0.9702061636580135</speed>
  <fix>3d</fix>
</trkpt>
<trkpt lat="33.8102806" lon="-118.3944324">
  <ele>-48.81</ele>
  <time>2026-09-02T22:08:35Z</time>
  <course>359.78</course>
  <speed>0.99</speed>
  <fix>3d</fix>
</trkpt>
<trkpt lat="33.8102825" lon="-118.3944321">
  <ele>-50.017</ele>
  <time>2026-09-02T22:08:35Z</time>
  <course>1.43</course>
  <speed>0.9702061636580135</speed>
  <fix>3d</fix>
</trkpt>
<trkpt lat="33.8102806" lon="-118.3944324">
  <ele>-48.81</ele>
  <time>2026-09-02T22:08:35Z</time>
  <course>359.78</course>
  <speed>0.99</speed>
  <fix>3d</fix>
</trkpt>
<trkpt lat="33.8102834" lon="-118.3944321">
  <ele>-50.018</ele>
  <time>2026-09-02T22:08:35Z</time>
  <course>1.47</course>
  <speed>0.9702061636580135</speed>
  <fix>3d</fix>
</trkpt>
<trkpt lat="33.8102824" lon="-118.3944324">
  <ele>-48.81</ele>
  <time>2026-09-02T22:08:35Z</time>
  <course>359.82</course>
  <speed>0.99</speed>
  <fix>3d</fix>
</trkpt>
<trkpt lat="33.8102843" lon="-118.3944321">
  <ele>-50.019</ele>
  <time>2026-09-02T22:08:35Z</time>
  <course>1.5</course>
  <speed>0.9702061636580135</speed>
  <fix>3d</fix>
</trkpt>
<trkpt lat="33.8102824" lon="-118.3944324">
  <ele>-48.81</ele>
  <time>2026-09-02T22:08:35Z</time>
  <course>359.82</course>
  <speed>0.99</speed>
  <fix>3d</fix>
</trkpt>
<trkpt lat="33.8102852" lon="-118.3944321">
  <ele>-50.02</ele>
  <time>2026-09-02T22:08:35Z</time>
  <course>1.53</course>
  <speed>0.9702061636580135</speed>
  <fix>3d</fix>
</trkpt>
<trkpt lat="33.8102841" lon="-118.3944324">
  <ele>-48.81</ele>
  <time>2026-09-02T22:08:35Z</time>
  <course>359.86</course>
  <speed>0.99</speed>
  <fix>3d</fix>
</trkpt>
<trkpt lat="33.8102861" lon="-118.3944321">
  <ele>-50.021</ele>
  <time>2026-09-02T22:08:35Z</time>
  <course>1.55</course>
  <speed>0.9702061636580135</speed>
  <fix>3d</fix>
</trkpt>
<trkpt lat="33.8102841" lon="-118.3944324">
  <ele>-48.81</ele>
  <time>2026-09-02T22:08:35Z</time>
  <course>359.86</course>
  <speed>0.99</speed>
  <fix>3d</fix>
</trkpt>
<trkpt lat="33.810287" lon="-118.3944321">
  <ele>-50.021</ele>
  <time>2026-09-02T22:08:35Z</time>
  <course>1.57</course>
  <speed>0.9702061636580135</speed>
  <fix>3d</fix>
</trkpt>
<trkpt lat="33.8102858" lon="-118.3944324">
  <ele>-48.81</ele>
  <time>2026-09-02T22:08:35Z</time>
  <course>359.87</course>
  <speed>0.99</speed>
  <fix>3d</fix>
</trkpt>
<trkpt lat="33.8102879" lon="-118.3944321">
  <ele>-50.02</ele>
  <time>2026-09-02T22:08:35Z</time>
  <course>1.59</course>
  <speed>0.9702061636580135</speed>
  <fix>3d</fix>
</trkpt>
<trkpt lat="33.8102858" lon="-118.3944324">
  <ele>-48.81</ele>
  <time>2026-09-02T22:08:35Z</time>
  <course>359.87</course>
  <speed>0.99</speed>
  <fix>3d</fix>
</trkpt>
<trkpt lat="33.8102888" lon="-118.3944321">
  <ele>-50.019</ele>
  <time>2026-09-02T22:08:35Z</time>
  <course>1.6</course>
  <speed>0.9702061636580135</speed>
  <fix>3d</fix>
</trkpt>
<trkpt lat="33.8102877" lon="-118.3944324">
  <ele>-48.81</ele>
  <time>2026-09-02T22:08:35Z</time>
  <course>359.88</course>
  <speed>0.99</speed>
  <fix>3d</fix>
</trkpt>
<trkpt lat="33.8102896" lon="-118.3944321">
  <ele>-50.018</ele>
  <time>2026-09-02T22:08:35Z</time>
  <course>1.61</course>
  <speed>0.9702061636580135</speed>
  <fix>3d</fix>
</trkpt>
<trkpt lat="33.8102877" lon="-118.3944324">
  <ele>-48.81</ele>
  <time>2026-09-02T22:08:35Z</time>
  <course>359.88</course>
  <speed>0.99</speed>
  <fix>3d</fix>
</trkpt>
<trkpt lat="33.8102905" lon="-118.3944321">
  <ele>-50.018</ele>
  <time>2026-09-02T22:08:35Z</time>
  <course>1.63</course>
  <speed>0.9702061636580135</speed>
  <fix>3d</fix>
</trkpt>
<trkpt lat="33.8102894" lon="-118.3944324">
  <ele>-48.81</ele>
  <time>2026-09-02T22:08:35Z</time>
  <course>359.88</course>
  <speed>1.0</speed>
  <fix>3d</fix>
</trkpt>
<trkpt lat="33.8102914" lon="-118.3944321">
  <ele>-50.018</ele>
  <time>2026-09-02T22:08:35Z</time>
  <course>1.64</course>
  <speed>0.9702061636580135</speed>
  <fix>3d</fix>
</trkpt>
<trkpt lat="33.8102894" lon="-118.3944324">
  <ele>-48.81</ele>
  <time>2026-09-02T22:08:35Z</time>
  <course>359.88</course>
  <speed>1.0</speed>
  <fix>3d</fix>
</trkpt>
<trkpt lat="33.8102923" lon="-118.3944321">
  <ele>-50.018</ele>
  <time>2026-09-02T22:08:35Z</time>
  <course>1.64</course>
  <speed>0.9702061636580135</speed>
  <fix>3d</fix>
</trkpt>
<trkpt lat="33.8102913" lon="-118.3944324">
  <ele>-48.81</ele>
  <time>2026-09-02T22:08:35Z</time>
  <course>359.91</course>
  <speed>1.0</speed>
  <fix>3d</fix>
</trkpt>
<trkpt lat="33.8102932" lon="-118.3944321">
  <ele>-50.018</ele>
  <time>2026-09-02T22:08:35Z</time>
  <course>1.64</course>
  <speed>0.9702061636580135</speed>
  <fix>3d</fix>
</trkpt>
<trkpt lat="33.8102913" lon="-118.3944324">
  <ele>-48.81</ele>
  <time>2026-09-02T22:08:35Z</time>
  <course>359.91</course>
  <speed>1.0</speed>
  <fix>3d</fix>
</trkpt>
<trkpt lat="33.8102941" lon="-118.3944321">
  <ele>-50.017</ele>
  <time>2026-09-02T22:08:35Z</time>
  <course>1.65</course>
  <speed>0.9702061636580135</speed>
  <fix>3d</fix>
</trkpt>
<trkpt lat="33.810293" lon="-118.3944324">
  <ele>-48.81</ele>
  <time>2026-09-02T22:08:35Z</time>
  <course>359.93</course>
  <speed>1.0</speed>
  <fix>3d</fix>
</trkpt>
<trkpt lat="33.810295" lon="-118.3944321">
  <ele>-50.017</ele>
  <time>2026-09-02T22:08:35Z</time>
  <course>1.65</course>
  <speed>0.9702061636580135</speed>
  <fix>3d</fix>
</trkpt>
<trkpt lat="33.810293" lon="-118.3944324">
  <ele>-48.81</ele>
  <time>2026-09-02T22:08:35Z</time>
  <course>359.93</course>
  <speed>1.0</speed>
  <fix>3d</fix>
</trkpt>
<trkpt lat="33.8102959" lon="-118.3944321">
  <ele>-50.017</ele>
  <time>2026-09-02T22:08:35Z</time>
  <course>1.65</course>
  <speed>0.9702061636580135</speed>
  <fix>3d</fix>
</trkpt>
<trkpt lat="33.8102949" lon="-118.3944324">
  <ele>-48.81</ele>
  <time>2026-09-02T22:08:35Z</time>
  <course>359.93</course>
  <speed>1.0</speed>
  <fix>3d</fix>
</trkpt>
<trkpt lat="33.8102968" lon="-118.3944321">
  <ele>-50.016</ele>
  <time>2026-09-02T22:08:35Z</time>
  <course>1.65</course>
  <speed>0.9702061636580135</speed>
  <fix>3d</fix>
</trkpt>
<trkpt lat="33.8102949" lon="-118.3944324">
  <ele>-48.81</ele>
  <time>2026-09-02T22:08:35Z</time>
  <course>359.93</course>
  <speed>1.0</speed>
  <fix>3d</fix>
</trkpt>
<trkpt lat="33.8102977" lon="-118.3944321">
  <ele>-50.017</ele>
  <time>2026-09-02T22:08:35Z</time>
  <course>1.65</course>
  <speed>0.9702061636580135</speed>
  <fix>3d</fix>
</trkpt>
<trkpt lat="33.8102966" lon="-118.3944324">
  <ele>-48.81</ele>
  <time>2026-09-02T22:08:35Z</time>
  <course>359.94</course>
  <speed>1.0</speed>
  <fix>3d</fix>
</trkpt>
<trkpt lat="33.8102986" lon="-118.3944321">
  <ele>-50.018</ele>
  <time>2026-09-02T22:08:35Z</time>
  <course>1.64</course>
  <speed>0.9702061636580135</speed>
  <fix>3d</fix>
</trkpt>
<trkpt lat="33.8102966" lon="-118.3944324">
  <ele>-48.81</ele>
  <time>2026-09-02T22:08:35Z</time>
  <course>359.94</course>
  <speed>1.0</speed>
  <fix>3d</fix>
</trkpt>
<trkpt lat="33.8102995" lon="-118.3944321">
  <ele>-50.02</ele>
  <time>2026-09-02T22:08:35Z</time>
  <course>1.64</course>
  <speed>0.9702061636580135</speed>
  <fix>3d</fix>
</trkpt>
<trkpt lat="33.8102985" lon="-118.3944324">
  <ele>-48.82</ele>
  <time>2026-09-02T22:08:35Z</time>
  <course>359.94</course>
  <speed>1.0</speed>
  <fix>3d</fix>
</trkpt>
<trkpt lat="33.8103004" lon="-118.3944321">
  <ele>-50.022</ele>
  <time>2026-09-02T22:08:35Z</time>
  <course>1.64</course>
  <speed>0.9702061636580135</speed>
  <fix>3d</fix>
</trkpt>
<trkpt lat="33.8102985" lon="-118.3944324">
  <ele>-48.82</ele>
  <time>2026-09-02T22:08:35Z</time>
  <course>359.94</course>
  <speed>1.0</speed>
  <fix>3d</fix>
</trkpt>
<trkpt lat="33.8103013" lon="-118.3944321">
  <ele>-50.025</ele>
  <time>2026-09-02T22:08:35Z</time>
  <course>1.64</course>
  <speed>0.9702061636580135</speed>
  <fix>3d</fix>
</trkpt>
<trkpt lat="33.8103002" lon="-118.3944324">
  <ele>-48.82</ele>
  <time>2026-09-02T22:08:35Z</time>
  <course>359.94</course>
  <speed>1.0</speed>
  <fix>3d</fix>
</trkpt>
<trkpt lat="33.8103022" lon="-118.3944321">
  <ele>-50.026</ele>
  <time>2026-09-02T22:08:35Z</time>
  <course>1.63</course>
  <speed>0.9602083107326242</speed>
  <fix>3d</fix>
</trkpt>
<trkpt lat="33.8103002" lon="-118.3944324">
  <ele>-48.82</ele>
  <time>2026-09-02T22:08:35Z</time>
  <course>359.94</course>
  <speed>1.0</speed>
  <fix>3d</fix>
</trkpt>
<trkpt lat="33.8103031" lon="-118.3944321">
  <ele>-50.026</ele>
  <time>2026-09-02T22:08:35Z</time>
  <course>1.62</course>
  <speed>0.9402127418834527</speed>
  <fix>3d</fix>
</trkpt>
<trkpt lat="33.8103021" lon="-118.3944324">
  <ele>-48.82</ele>
  <time>2026-09-02T22:08:35Z</time>
  <course>359.94</course>
  <speed>0.99</speed>
  <fix>3d</fix>
</trkpt>
<trkpt lat="33.8103039" lon="-118.3944321">
  <ele>-50.025</ele>
  <time>2026-09-02T22:08:35Z</time>
  <course>1.63</course>
  <speed>0.9102197536858887</speed>
  <fix>3d</fix>
</trkpt>
<trkpt lat="33.8103021" lon="-118.3944324">
  <ele>-48.82</ele>
  <time>2026-09-02T22:08:35Z</time>
  <course>359.94</course>
  <speed>0.99</speed>
  <fix>3d</fix>
</trkpt>
<trkpt lat="33.8103048" lon="-118.3944321">
  <ele>-50.022</ele>
  <time>2026-09-02T22:08:35Z</time>
  <course>1.65</course>
  <speed>0.8802272433866155</speed>
  <fix>3d</fix>
</trkpt>
<trkpt lat="33.8103038" lon="-118.3944324">
  <ele>-48.82</ele>
  <time>2026-09-02T22:08:35Z</time>
  <course>359.97</course>
  <speed>0.95</speed>
  <fix>3d</fix>
</trkpt>
<trkpt lat="33.8103055" lon="-118.3944321">
  <ele>-50.02</ele>
  <time>2026-09-02T22:08:35Z</time>
  <course>1.7</course>
  <speed>0.8302409288875127</speed>
  <fix>3d</fix>
</trkpt>
<trkpt lat="33.8103038" lon="-118.3944324">
  <ele>-48.82</ele>
  <time>2026-09-02T22:08:35Z</time>
  <course>359.97</course>
  <speed>0.95</speed>
  <fix>3d</fix>
</trkpt>
<trkpt lat="33.8103063" lon="-118.3944321">
  <ele>-50.018</ele>
  <time>2026-09-02T22:08:35Z</time>
  <course>1.77</course>
  <speed>0.7802563681252463</speed>
  <fix>3d</fix>
</trkpt>
<trkpt lat="33.8103056" lon="-118.3944324">
  <ele>-48.81</ele>
  <time>2026-09-02T22:08:35Z</time>
  <course>0.03</course>
  <speed>0.89</speed>
  <fix>3d</fix>
</trkpt>
<trkpt lat="33.810307" lon="-118.3944321">
  <ele>-50.017</ele>
  <time>2026-09-02T22:08:35Z</time>
  <course>1.86</course>
  <speed>0.7202777242147643</speed>
  <fix>3d</fix>
</trkpt>
<trkpt lat="33.8103056" lon="-118.3944324">
  <ele>-48.81</ele>
  <time>2026-09-02T22:08:35Z</time>
  <course>0.03</course>
  <speed>0.89</speed>
  <fix>3d</fix>
</trkpt>
<trkpt lat="33.8103076" lon="-118.3944321">
  <ele>-50.017</ele>
  <time>2026-09-02T22:08:35Z</time>
  <course>2.0</course>
  <speed>0.6503076195155643</speed>
  <fix>3d</fix>
</trkpt>
<trkpt lat="33.8103071" lon="-118.3944324">
  <ele>-48.81</ele>
  <time>2026-09-02T22:08:35Z</time>
  <course>0.14</course>
  <speed>0.79</speed>
  <fix>3d</fix>
</trkpt>
<trkpt lat="33.8103082" lon="-118.3944321">
  <ele>-50.018</ele>
  <time>2026-09-02T22:08:35Z</time>
  <course>2.18</course>
  <speed>0.5803447251418763</speed>
  <fix>3d</fix>
</trkpt>
<trkpt lat="33.8103071" lon="-118.3944324">
  <ele>-48.81</ele>
  <time>2026-09-02T22:08:35Z</time>
  <course>0.14</course>
  <speed>0.79</speed>
  <fix>3d</fix>
</trkpt>
<trkpt lat="33.8103088" lon="-118.3944321">
  <ele>-50.019</ele>
  <time>2026-09-02T22:08:35Z</time>
  <course>2.46</course>
  <speed>0.5103920062069939</speed>
  <fix>3d</fix>
</trkpt>
<trkpt lat="33.8103083" lon="-118.3944324">
  <ele>-48.81</ele>
  <time>2026-09-02T22:08:35Z</time>
  <course>0.33</course>
  <speed>0.66</speed>
  <fix>3d</fix>
</trkpt>
<trkpt lat="33.8103092" lon="-118.3944321">
  <ele>-50.02</ele>
  <time>2026-09-02T22:08:35Z</time>
  <course>2.85</course>
  <speed>0.44045431091090476</speed>
  <fix>3d</fix>
</trkpt>
<trkpt lat="33.8103083" lon="-118.3944324">
  <ele>-48.81</ele>
  <time>2026-09-02T22:08:35Z</time>
  <course>0.33</course>
  <speed>0.66</speed>
  <fix>3d</fix>
</trkpt>
<trkpt lat="33.8103096" lon="-118.3944321">
  <ele>-50.022</ele>
  <time>2026-09-02T22:08:35Z</time>
  <course>3.42</course>
  <speed>0.38052595180880894</speed>
  <fix>3d</fix>
</trkpt>
<trkpt lat="33.8103094" lon="-118.3944324">
  <ele>-48.81</ele>
  <time>2026-09-02T22:08:35Z</time>
  <course>0.56</course>
  <speed>0.52</speed>
  <fix>3d</fix>
</trkpt>
<trkpt lat="33.81031" lon="-118.3944321">
  <ele>-50.023</ele>
  <time>2026-09-02T22:08:35Z</time>
  <course>4.28</course>
  <speed>0.3306055050963308</speed>
  <fix>3d</fix>
</trkpt>
<trkpt lat="33.8103094" lon="-118.3944324">
  <ele>-48.81</ele>
  <time>2026-09-02T22:08:35Z</time>
  <course>0.56</course>
  <speed>0.52</speed>
  <fix>3d</fix>
</trkpt>
<trkpt lat="33.8103103" lon="-118.3944321">
  <ele>-50.023</ele>
  <time>2026-09-02T22:08:35Z</time>
  <course>5.52</course>
  <speed>0.2906888370749727</speed>
  <fix>3d</fix>
</trkpt>
<trkpt lat="33.8103102" lon="-118.3944324">
  <ele>-48.82</ele>
  <time>2026-09-02T22:08:35Z</time>
  <course>0.77</course>
  <speed>0.4</speed>
  <fix>3d</fix>
</trkpt>
<trkpt lat="33.8103106" lon="-118.3944321">
  <ele>-50.022</ele>
  <time>2026-09-02T22:08:35Z</time>
  <course>6.56</course>
  <speed>0.25079872407968906</speed>
  <fix>3d</fix>
</trkpt>
<trkpt lat="33.8103102" lon="-118.3944324">
  <ele>-48.82</ele>
  <time>2026-09-02T22:08:35Z</time>
  <course>0.77</course>
  <speed>0.4</speed>
  <fix>3d</fix>
</trkpt>
<trkpt lat="33.8103108" lon="-118.3944321">
  <ele>-50.021</ele>
  <time>2026-09-02T22:08:35Z</time>
  <course>6.76</course>
  <speed>0.2109502310972899</speed>
  <fix>3d</fix>
</trkpt>
<trkpt lat="33.8103109" lon="-118.3944324">
  <ele>-48.81</ele>
  <time>2026-09-02T22:08:35Z</time>
  <course>0.98</course>
  <speed>0.3</speed>
  <fix>3d</fix>
</trkpt>
<trkpt lat="33.810311" lon="-118.3944321">
  <ele>-50.019</ele>
  <time>2026-09-02T22:08:35Z</time>
  <course>6.82</course>
  <speed>0.1711724276862369</speed>
  <fix>3d</fix>
</trkpt>
<trkpt lat="33.8103109" lon="-118.3944324">
  <ele>-48.81</ele>
  <time>2026-09-02T22:08:35Z</time>
  <course>0.98</course>
  <speed>0.3</speed>
  <fix>3d</fix>
</trkpt>
<trkpt lat="33.8103112" lon="-118.3944321">
  <ele>-50.018</ele>
  <time>2026-09-02T22:08:35Z</time>
  <course>8.27</course>
  <speed>0.13152946437965907</speed>
  <fix>3d</fix>
</trkpt>
<trkpt lat="33.8103114" lon="-118.3944324">
  <ele>-48.81</ele>
  <time>2026-09-02T22:08:35Z</time>
  <course>1.7</course>
  <speed>0.22</speed>
  <fix>3d</fix>
</trkpt>
<trkpt lat="33.8103113" lon="-118.3944321">
  <ele>-50.019</ele>
  <time>2026-09-02T22:08:35Z</time>
  <course>10.92</course>
  <speed>0.09486832980505139</speed>
  <fix>3d</fix>
</trkpt>
<trkpt lat="33.8103114" lon="-118.3944324">
  <ele>-48.81</ele>
  <time>2026-09-02T22:08:35Z</time>
  <course>1.7</course>
  <speed>0.22</speed>
  <fix>3d</fix>
</trkpt>
<trkpt lat="33.8103115" lon="-118.3944321">
  <ele>-50.02</ele>
  <time>2026-09-02T22:08:35Z</time>
  <course>14.19</course>
  <speed>0.0670820393249937</speed>
  <fix>3d</fix>
</trkpt>
<trkpt lat="33.8103117" lon="-118.3944324">
  <ele>-48.81</ele>
  <time>2026-09-02T22:08:35Z</time>
  <course>3.99</course>
  <speed>0.14</speed>
  <fix>3d</fix>
</trkpt>
<trkpt lat="33.8103115" lon="-118.3944321">
  <ele>-50.021</ele>
  <time>2026-09-02T22:08:35Z</time>
  <course>17.74</course>
  <speed>0.05</speed>
  <fix>3d</fix>
</trkpt>
<trkpt lat="33.8103117" lon="-118.3944324">
  <ele>-48.81</ele>
  <time>2026-09-02T22:08:35Z</time>
  <course>3.99</course>
  <speed>0.14</speed>
  <fix>3d</fix>
</trkpt>
<trkpt lat="33.8103116" lon="-118.3944321">
  <ele>-50.02</ele>
  <time>2026-09-02T22:08:35Z</time>
  <course>21.14</course>
  <speed>0.0282842712474619</speed>
  <fix>3d</fix>
</trkpt>
<trkpt lat="33.8103119" lon="-118.3944324">
  <ele>-48.81</ele>
  <time>2026-09-02T22:08:35Z</time>
  <course>8.75</course>
  <speed>0.08</speed>
  <fix>3d</fix>
</trkpt>
<trkpt lat="33.8103117" lon="-118.3944321">
  <ele>-50.02</ele>
  <time>2026-09-02T22:08:35Z</time>
  <course>23.18</course>
  <speed>0.0282842712474619</speed>
  <fix>3d</fix>
</trkpt>
<trkpt lat="33.8103119" lon="-118.3944324">
  <ele>-48.81</ele>
  <time>2026-09-02T22:08:35Z</time>
  <course>8.75</course>
  <speed>0.08</speed>
  <fix>3d</fix>
</trkpt>
<trkpt lat="33.8103117" lon="-118.3944321">
  <ele>-50.019</ele>
  <time>2026-09-02T22:08:35Z</time>
  <course>24.13</course>
  <speed>0.022360679774997897</speed>
  <fix>3d</fix>
</trkpt>
<trkpt lat="33.810312" lon="-118.3944324">
  <ele>-48.81</ele>
  <time>2026-09-02T22:08:35Z</time>
  <course>15.01</course>
  <speed>0.04</speed>
  <fix>3d</fix>
</trkpt>
<trkpt lat="33.8103117" lon="-118.3944321">
  <ele>-50.018</ele>
  <time>2026-09-02T22:08:35Z</time>
  <course>23.74</course>
  <speed>0.02</speed>
  <fix>3d</fix>
</trkpt>
<trkpt lat="33.810312" lon="-118.3944324">
  <ele>-48.81</ele>
  <time>2026-09-02T22:08:35Z</time>
  <course>15.01</course>
  <speed>0.04</speed>
  <fix>3d</fix>
</trkpt>
<trkpt lat="33.8103118" lon="-118.3944321">
  <ele>-50.016</ele>
  <time>2026-09-02T22:08:35Z</time>
  <course>21.62</course>
  <speed>0.022360679774997897</speed>
  <fix>3d</fix>
</trkpt>
<trkpt lat="33.8103121" lon="-118.3944324">
  <ele>-48.81</ele>
  <time>2026-09-02T22:08:35Z</time>
  <course>20.06</course>
  <speed>0.01</speed>
  <fix>3d</fix>
</trkpt>
<trkpt lat="33.8103118" lon="-118.3944321">
  <ele>-50.008</ele>
  <time>2026-09-02T22:08:35Z</time>
  <course>18.68</course>
  <speed>0.03</speed>
  <fix>3d</fix>
</trkpt>
<trkpt lat="33.8103121" lon="-118.3944324">
  <ele>-48.81</ele>
  <time>2026-09-02T22:08:35Z</time>
  <course>20.06</course>
  <speed>0.01</speed>
  <fix>3d</fix>
</trkpt>
<trkpt lat="33.8103117" lon="-118.3944321">
  <ele>-49.993</ele>
  <time>2026-09-02T22:08:35Z</time>
  <course>15.36</course>
  <speed>0.04</speed>
  <fix>3d</fix>
</trkpt>
<trkpt lat="33.8103121" lon="-118.3944324">
  <ele>-48.8</ele>
  <time>2026-09-02T22:08:35Z</time>
  <course>213.16</course>
  <speed>0.01</speed>
  <fix>3d</fix>
</trkpt>
<trkpt lat="33.8103117" lon="-118.3944321">
  <ele>-49.971</ele>
  <time>2026-09-02T22:08:35Z</time>
  <course>11.77</course>
  <speed>0.0412310562561766</speed>
  <fix>3d</fix>
</trkpt>
<trkpt lat="33.8103121" lon="-118.3944324">
  <ele>-48.8</ele>
  <time>2026-09-02T22:08:35Z</time>
  <course>213.16</course>
  <speed>0.01</speed>
  <fix>3d</fix>
</trkpt>
<trkpt lat="33.8103117" lon="-118.3944322">
  <ele>-49.942</ele>
  <time>2026-09-02T22:08:35Z</time>
  <course>7.98</course>
  <speed>0.05</speed>
  <fix>3d</fix>
</trkpt>
<trkpt lat="33.8103121" lon="-118.3944324">
  <ele>-48.77</ele>
  <time>2026-09-02T22:08:35Z</time>
  <course>222.96</course>
  <speed>0.04</speed>
  <fix>3d</fix>
</trkpt>
<trkpt lat="33.8103117" lon="-118.3944322">
  <ele>-49.907</ele>
  <time>2026-09-02T22:08:35Z</time>
  <course>4.01</course>
  <speed>0.06403124237432849</speed>
  <fix>3d</fix>
</trkpt>
<trkpt lat="33.8103121" lon="-118.3944324">
  <ele>-48.77</ele>
  <time>2026-09-02T22:08:35Z</time>
  <course>222.96</course>
  <speed>0.04</speed>
  <fix>3d</fix>
</trkpt>
<trkpt lat="33.8103117" lon="-118.3944323">
  <ele>-49.866</ele>
  <time>2026-09-02T22:08:35Z</time>
  <course>359.89</course>
  <speed>0.07211102550927978</speed>
  <fix>3d</fix>
</trkpt>
<trkpt lat="33.810312" lon="-118.3944324">
  <ele>-48.72</ele>
  <time>2026-09-02T22:08:35Z</time>
  <course>234.42</course>
  <speed>0.06</speed>
  <fix>3d</fix>
</trkpt>
<trkpt lat="33.8103117" lon="-118.3944324">
  <ele>-49.818</ele>
  <time>2026-09-02T22:08:35Z</time>
  <course>355.62</course>
  <speed>0.08062257748298549</speed>
  <fix>3d</fix>
</trkpt>
<trkpt lat="33.810312" lon="-118.3944324">
  <ele>-48.72</ele>
  <time>2026-09-02T22:08:35Z</time>
  <course>234.42</course>
  <speed>0.06</speed>
  <fix>3d</fix>
</trkpt>
<trkpt lat="33.8103117" lon="-118.3944325">
  <ele>-49.76</ele>
  <time>2026-09-02T22:08:35Z</time>
  <course>351.22</course>
  <speed>0.09848857801796104</speed>
  <fix>3d</fix>
</trkpt>
<trkpt lat="33.8103119" lon="-118.3944325">
  <ele>-48.64</ele>
  <time>2026-09-02T22:08:35Z</time>
  <course>244.73</course>
  <speed>0.09</speed>
  <fix>3d</fix>
</trkpt>
<trkpt lat="33.8103117" lon="-118.3944326">
  <ele>-49.693</ele>
  <time>2026-09-02T22:08:35Z</time>
  <course>346.71</course>
  <speed>0.11704699910719625</speed>
  <fix>3d</fix>
</trkpt>
<trkpt lat="33.8103119" lon="-118.3944325">
  <ele>-48.64</ele>
  <time>2026-09-02T22:08:35Z</time>
  <course>244.73</course>
  <speed>0.09</speed>
  <fix>3d</fix>
</trkpt>
<trkpt lat="33.8103117" lon="-118.3944328">
  <ele>-49.617</ele>
  <time>2026-09-02T22:08:35Z</time>
  <course>342.08</course>
  <speed>0.12369316876852982</speed>
  <fix>3d</fix>
</trkpt>
<trkpt lat="33.8103119" lon="-118.3944328">
  <ele>-48.54</ele>
  <time>2026-09-02T22:08:35Z</time>
  <course>252.84</course>
  <speed>0.12</speed>
  <fix>3d</fix>
</trkpt>
<trkpt lat="33.8103117" lon="-118.3944329">
  <ele>-49.531</ele>
  <time>2026-09-02T22:08:35Z</time>
  <course>337.36</course>
  <speed>0.14317821063276354</speed>
  <fix>3d</fix>
</trkpt>
<trkpt lat="33.8103119" lon="-118.3944328">
  <ele>-48.54</ele>
  <time>2026-09-02T22:08:35Z</time>
  <course>252.84</course>
  <speed>0.12</speed>
  <fix>3d</fix>
</trkpt>
<trkpt lat="33.8103117" lon="-118.3944331">
  <ele>-49.436</ele>
  <time>2026-09-02T22:08:35Z</time>
  <course>332.55</course>
  <speed>0.15297058540778355</speed>
  <fix>3d</fix>
</trkpt>
<trkpt lat="33.8103118" lon="-118.394433">
  <ele>-48.4</ele>
  <time>2026-09-02T22:08:35Z</time>
  <course>258.54</course>
  <speed>0.15</speed>
  <fix>3d</fix>
</trkpt>
<trkpt lat="33.8103117" lon="-118.3944333">
  <ele>-49.331</ele>
  <time>2026-09-02T22:08:35Z</time>
  <course>327.64</course>
  <speed>0.17262676501632068</speed>
  <fix>3d</fix>
</trkpt>
<trkpt lat="33.8103118" lon="-118.394433">
  <ele>-48.4</ele>
  <time>2026-09-02T22:08:35Z</time>
  <course>258.54</course>
  <speed>0.15</speed>
  <fix>3d</fix>
</trkpt>
<trkpt lat="33.8103117" lon="-118.3944335">
  <ele>-49.217</ele>
  <time>2026-09-02T22:08:35Z</time>
  <course>322.61</course>
  <speed>0.191049731745428</speed>
  <fix>3d</fix>
</trkpt>
<trkpt lat="33.8103118" lon="-118.3944335">
  <ele>-48.22</ele>
  <time>2026-09-02T22:08:35Z</time>
  <course>262.27</course>
  <speed>0.18</speed>
  <fix>3d</fix>
</trkpt>
<trkpt lat="33.8103116" lon="-118.3944338">
  <ele>-49.096</ele>
  <time>2026-09-02T22:08:35Z</time>
  <course>317.55</course>
  <speed>0.2009975124224178</speed>
  <fix>3d</fix>
</trkpt>
<trkpt lat="33.8103118" lon="-118.3944335">
  <ele>-48.22</ele>
  <time>2026-09-02T22:08:35Z</time>
  <course>262.27</course>
  <speed>0.18</speed>
  <fix>3d</fix>
</trkpt>
<trkpt lat="33.8103116" lon="-118.394434">
  <ele>-48.968</ele>
  <time>2026-09-02T22:08:35Z</time>
  <course>312.4</course>
  <speed>0.2109502310972899</speed>
  <fix>3d</fix>
</trkpt>
<trkpt lat="33.8103118" lon="-118.3944339">
  <ele>-48.02</ele>
  <time>2026-09-02T22:08:35Z</time>
  <course>264.38</course>
  <speed>0.21</speed>
  <fix>3d</fix>
</trkpt>
<trkpt lat="33.8103116" lon="-118.3944343">
  <ele>-48.837</ele>
  <time>2026-09-02T22:08:35Z</time>
  <course>307.19</course>
  <speed>0.23194827009486402</speed>
  <fix>3d</fix>
</trkpt>
<trkpt lat="33.8103118" lon="-118.3944339">
  <ele>-48.02</ele>
  <time>2026-09-02T22:08:35Z</time>
  <course>264.38</course>
  <speed>0.21</speed>
  <fix>3d</fix>
</trkpt>
<trkpt lat="33.8103116" lon="-118.3944345">
  <ele>-48.705</ele>
  <time>2026-09-02T22:08:35Z</time>
  <course>301.91</course>
  <speed>0.24186773244895649</speed>
  <fix>3d</fix>
</trkpt>
<trkpt lat="33.8103117" lon="-118.3944344">
  <ele>-47.79</ele>
  <time>2026-09-02T22:08:35Z</time>
  <course>264.96</course>
  <speed>0.24</speed>
  <fix>3d</fix>
</trkpt>
<trkpt lat="33.8103116" lon="-118.3944348">
  <ele>-48.573</ele>
  <time>2026-09-02T22:08:35Z</time>
  <course>296.56</course>
  <speed>0.25179356624028343</speed>
  <fix>3d</fix>
</trkpt>
<trkpt lat="33.8103117" lon="-118.3944344">
  <ele>-47.79</ele>
  <time>2026-09-02T22:08:35Z</time>
  <course>264.96</course>
  <speed>0.24</speed>
  <fix>3d</fix>
</trkpt>
<trkpt lat="33.8103116" lon="-118.3944351">
  <ele>-48.44</ele>
  <time>2026-09-02T22:08:35Z</time>
  <course>291.14</course>
  <speed>0.260768096208106</speed>
  <fix>3d</fix>
</trkpt>
<trkpt lat="33.8103117" lon="-118.3944349">
  <ele>-47.55</ele>
  <time>2026-09-02T22:08:35Z</time>
  <course>265.22</course>
  <speed>0.27</speed>
  <fix>3d</fix>
</trkpt>
<trkpt lat="33.8103116" lon="-118.3944354">
  <ele>-48.308</ele>
  <time>2026-09-02T22:08:35Z</time>
  <course>285.66</course>
  <speed>0.2707397274136177</speed>
  <fix>3d</fix>
</trkpt>
<trkpt lat="33.8103117" lon="-118.3944349">
  <ele>-47.55</ele>
  <time>2026-09-02T22:08:35Z</time>
  <course>265.22</course>
  <speed>0.27</speed>
  <fix>3d</fix>
</trkpt>
<trkpt lat="33.8103116" lon="-118.3944358">
  <ele>-48.177</ele>
  <time>2026-09-02T22:08:35Z</time>
  <course>280.12</course>
  <speed>0.280713376952364</speed>
  <fix>3d</fix>
</trkpt>
<trkpt lat="33.8103116" lon="-118.3944356">
  <ele>-47.3</ele>
  <time>2026-09-02T22:08:35Z</time>
  <course>266.0</course>
  <speed>0.29</speed>
  <fix>3d</fix>
</trkpt>
<trkpt lat="33.8103115" lon="-118.3944361">
  <ele>-48.045</ele>
  <time>2026-09-02T22:08:35Z</time>
  <course>274.52</course>
  <speed>0.2906888370749727</speed>
  <fix>3d</fix>
</trkpt>
<trkpt lat="33.8103116" lon="-118.3944356">
  <ele>-47.3</ele>
  <time>2026-09-02T22:08:35Z</time>
  <course>266.0</course>
  <speed>0.29</speed>
  <fix>3d</fix>
</trkpt>
<trkpt lat="33.8103115" lon="-118.3944364">
  <ele>-47.914</ele>
  <time>2026-09-02T22:08:35Z</time>
  <course>269.09</course>
  <speed>0.30016662039607267</speed>
  <fix>3d</fix>
</trkpt>
<trkpt lat="33.8103116" lon="-118.3944362">
  <ele>-47.05</ele>
  <time>2026-09-02T22:08:35Z</time>
  <course>267.36</course>
  <speed>0.32</speed>
  <fix>3d</fix>
</trkpt>
<trkpt lat="33.8103115" lon="-118.3944368">
  <ele>-47.783</ele>
  <time>2026-09-02T22:08:35Z</time>
  <course>264.27</course>
  <speed>0.30016662039607267</speed>
  <fix>3d</fix>
</trkpt>
<trkpt lat="33.8103116" lon="-118.3944362">
  <ele>-47.05</ele>
  <time>2026-09-02T22:08:35Z</time>
  <course>267.36</course>
  <speed>0.32</speed>
  <fix>3d</fix>
</trkpt>
<trkpt lat="33.8103115" lon="-118.3944371">
  <ele>-47.653</ele>
  <time>2026-09-02T22:08:35Z</time>
  <course>260.01</course>
  <speed>0.3</speed>
  <fix>3d</fix>
</trkpt>
<trkpt lat="33.8103116" lon="-118.3944369">
  <ele>-46.81</ele>
  <time>2026-09-02T22:08:35Z</time>
  <course>269.1</course>
  <speed>0.33</speed>
  <fix>3d</fix>
</trkpt>
<trkpt lat="33.8103115" lon="-118.3944375">
  <ele>-47.526</ele>
  <time>2026-09-02T22:08:35Z</time>
  <course>256.21</course>
  <speed>0.3</speed>
  <fix>3d</fix>
</trkpt>
<trkpt lat="33.8103116" lon="-118.3944369">
  <ele>-46.81</ele>
  <time>2026-09-02T22:08:35Z</time>
  <course>269.1</course>
  <speed>0.33</speed>
  <fix>3d</fix>
</trkpt>
<trkpt lat="33.8103115" lon="-118.3944379">
  <ele>-47.4</ele>
  <time>2026-09-02T22:08:35Z</time>
  <course>252.76</course>
  <speed>0.29</speed>
  <fix>3d</fix>
</trkpt>
<trkpt lat="33.8103116" lon="-118.3944377">
  <ele>-46.57</ele>
  <time>2026-09-02T22:08:35Z</time>
  <course>270.59</course>
  <speed>0.33</speed>
  <fix>3d</fix>
</trkpt>
<trkpt lat="33.8103115" lon="-118.3944382">
  <ele>-47.274</ele>
  <time>2026-09-02T22:08:35Z</time>
  <course>249.56</course>
  <speed>0.29</speed>
  <fix>3d</fix>
</trkpt>
<trkpt lat="33.8103116" lon="-118.3944377">
  <ele>-46.57</ele>
  <time>2026-09-02T22:08:35Z</time>
  <course>270.59</course>
  <speed>0.33</speed>
  <fix>3d</fix>
</trkpt>
<trkpt lat="33.8103115" lon="-118.3944385">
  <ele>-47.149</ele>
  <time>2026-09-02T22:08:35Z</time>
  <course>246.5</course>
  <speed>0.28</speed>
  <fix>3d</fix>
</trkpt>
<trkpt lat="33.8103116" lon="-118.3944384">
  <ele>-46.32</ele>
  <time>2026-09-02T22:08:35Z</time>
  <course>271.45</course>
  <speed>0.32</speed>
  <fix>3d</fix>
</trkpt>
<trkpt lat="33.8103115" lon="-118.3944389">
  <ele>-47.025</ele>
  <time>2026-09-02T22:08:35Z</time>
  <course>243.6</course>
  <speed>0.27</speed>
  <fix>3d</fix>
</trkpt>
<trkpt lat="33.8103116" lon="-118.3944384">
  <ele>-46.32</ele>
  <time>2026-09-02T22:08:35Z</time>
  <course>271.45</course>
  <speed>0.32</speed>
  <fix>3d</fix>
</trkpt>
<trkpt lat="33.8103115" lon="-118.3944392">
  <ele>-46.901</ele>
  <time>2026-09-02T22:08:35Z</time>
  <course>240.88</course>
  <speed>0.27</speed>
  <fix>3d</fix>
</trkpt>
<trkpt lat="33.8103116" lon="-118.3944391">
  <ele>-46.08</ele>
  <time>2026-09-02T22:08:35Z</time>
  <course>271.94</course>
  <speed>0.31</speed>
  <fix>3d</fix>
</trkpt>
<trkpt lat="33.8103115" lon="-118.3944395">
  <ele>-46.776</ele>
  <time>2026-09-02T22:08:35Z</time>
  <course>238.36</course>
  <speed>0.26</speed>
  <fix>3d</fix>
</trkpt>
<trkpt lat="33.8103116" lon="-118.3944391">
  <ele>-46.08</ele>
  <time>2026-09-02T22:08:35Z</time>
  <course>271.94</course>
  <speed>0.31</speed>
  <fix>3d</fix>
</trkpt>
<trkpt lat="33.8103115" lon="-118.3944399">
  <ele>-46.651</ele>
  <time>2026-09-02T22:08:35Z</time>
  <course>236.05</course>
  <speed>0.26</speed>
  <fix>3d</fix>
</trkpt>
<trkpt lat="33.8103116" lon="-118.3944397">
  <ele>-45.83</ele>
  <time>2026-09-02T22:08:35Z</time>
  <course>272.32</course>
  <speed>0.3</speed>
  <fix>3d</fix>
</trkpt>
<trkpt lat="33.8103115" lon="-118.3944402">
  <ele>-46.526</ele>
  <time>2026-09-02T22:08:35Z</time>
  <course>233.97</course>
  <speed>0.26</speed>
  <fix>3d</fix>
</trkpt>
<trkpt lat="33.8103116" lon="-118.3944397">
  <ele>-45.83</ele>
  <time>2026-09-02T22:08:35Z</time>
  <course>272.32</course>
  <speed>0.3</speed>
  <fix>3d</fix>
</trkpt>
<trkpt lat="33.8103115" lon="-118.3944405">
  <ele>-46.401</ele>
  <time>2026-09-02T22:08:35Z</time>
  <course>232.21</course>
  <speed>0.25</speed>
  <fix>3d</fix>
</trkpt>
<trkpt lat="33.8103116" lon="-118.3944404">
  <ele>-45.59</ele>
  <time>2026-09-02T22:08:35Z</time>
  <course>272.49</course>
  <speed>0.29</speed>
  <fix>3d</fix>
</trkpt>
<trkpt lat="33.8103115" lon="-118.3944408">
  <ele>-46.277</ele>
  <time>2026-09-02T22:08:35Z</time>
  <course>230.75</course>
  <speed>0.25</speed>
  <fix>3d</fix>
</trkpt>
<trkpt lat="33.8103116" lon="-118.3944404">
  <ele>-45.59</ele>
  <time>2026-09-02T22:08:35Z</time>
  <course>272.49</course>
  <speed>0.29</speed>
  <fix>3d</fix>
</trkpt>
<trkpt lat="33.8103115" lon="-118.3944411">
  <ele>-46.154</ele>
  <time>2026-09-02T22:08:35Z</time>
  <course>229.51</course>
  <speed>0.24</speed>
  <fix>3d</fix>
</trkpt>
<trkpt lat="33.8103116" lon="-118.3944411">
  <ele>-45.34</ele>
  <time>2026-09-02T22:08:35Z</time>
  <course>272.31</course>
  <speed>0.28</speed>
  <fix>3d</fix>
</trkpt>
<trkpt lat="33.8103116" lon="-118.3944414">
  <ele>-46.031</ele>
  <time>2026-09-02T22:08:35Z</time>
  <course>228.43</course>
  <speed>0.24</speed>
  <fix>3d</fix>
</trkpt>
<trkpt lat="33.8103116" lon="-118.3944411">
  <ele>-45.34</ele>
  <time>2026-09-02T22:08:35Z</time>
  <course>272.31</course>
  <speed>0.28</speed>
  <fix>3d</fix>
</trkpt>
<trkpt lat="33.8103116" lon="-118.3944417">
  <ele>-45.91</ele>
  <time>2026-09-02T22:08:36Z</time>
  <course>227.44</course>
  <speed>0.23</speed>
  <fix>3d</fix>
</trkpt>
<trkpt lat="33.8103116" lon="-118.3944416">
  <ele>-45.1</ele>
  <time>2026-09-02T22:08:36Z</time>
  <course>271.77</course>
  <speed>0.27</speed>
  <fix>3d</fix>
</trkpt>
<trkpt lat="33.8103116" lon="-118.394442">
  <ele>-45.79</ele>
  <time>2026-09-02T22:08:36Z</time>
  <course>226.53</course>
  <speed>0.22</speed>
  <fix>3d</fix>
</trkpt>
<trkpt lat="33.8103116" lon="-118.3944416">
  <ele>-45.1</ele>
  <time>2026-09-02T22:08:36Z</time>
  <course>271.77</course>
  <speed>0.27</speed>
  <fix>3d</fix>
</trkpt>
<trkpt lat="33.8103116" lon="-118.3944422">
  <ele>-45.671</ele>
  <time>2026-09-02T22:08:36Z</time>
  <course>225.79</course>
  <speed>0.22</speed>
  <fix>3d</fix>
</trkpt>
<trkpt lat="33.8103116" lon="-118.3944422">
  <ele>-44.85</ele>
  <time>2026-09-02T22:08:36Z</time>
  <course>271.02</course>
  <speed>0.25</speed>
  <fix>3d</fix>
</trkpt>
<trkpt lat="33.8103115" lon="-118.3944425">
  <ele>-45.552</ele>
  <time>2026-09-02T22:08:36Z</time>
  <course>225.26</course>
  <speed>0.21</speed>
  <fix>3d</fix>
</trkpt>
<trkpt lat="33.8103116" lon="-118.3944422">
  <ele>-44.85</ele>
  <time>2026-09-02T22:08:36Z</time>
  <course>271.02</course>
  <speed>0.25</speed>
  <fix>3d</fix>
</trkpt>
<trkpt lat="33.8103115" lon="-118.3944428">
  <ele>-45.432</ele>
  <time>2026-09-02T22:08:36Z</time>
  <course>224.99</course>
  <speed>0.2</speed>
  <fix>3d</fix>
</trkpt>
<trkpt lat="33.8103116" lon="-118.3944428">
  <ele>-44.61</ele>
  <time>2026-09-02T22:08:36Z</time>
  <course>270.45</course>
  <speed>0.24</speed>
  <fix>3d</fix>
</trkpt>
<trkpt lat="33.8103115" lon="-118.394443">
  <ele>-45.312</ele>
  <time>2026-09-02T22:08:36Z</time>
  <course>224.95</course>
  <speed>0.2</speed>
  <fix>3d</fix>
</trkpt>
<trkpt lat="33.8103116" lon="-118.3944428">
  <ele>-44.61</ele>
  <time>2026-09-02T22:08:36Z</time>
  <course>270.45</course>
  <speed>0.24</speed>
  <fix>3d</fix>
</trkpt>
<trkpt lat="33.8103115" lon="-118.3944433">
  <ele>-45.191</ele>
  <time>2026-09-02T22:08:36Z</time>
  <course>225.01</course>
  <speed>0.19</speed>
  <fix>3d</fix>
</trkpt>
<trkpt lat="33.8103116" lon="-118.3944433">
  <ele>-44.36</ele>
  <time>2026-09-02T22:08:36Z</time>
  <course>270.09</course>
  <speed>0.22</speed>
  <fix>3d</fix>
</trkpt>
<trkpt lat="33.8103115" lon="-118.3944435">
  <ele>-45.069</ele>
  <time>2026-09-02T22:08:36Z</time>
  <course>225.12</course>
  <speed>0.18027756377319945</speed>
  <fix>3d</fix>
</trkpt>
<trkpt lat="33.8103116" lon="-118.3944433">
  <ele>-44.36</ele>
  <time>2026-09-02T22:08:36Z</time>
  <course>270.09</course>
  <speed>0.22</speed>
  <fix>3d</fix>
</trkpt>
<trkpt lat="33.8103115" lon="-118.3944437">
  <ele>-44.946</ele>
  <time>2026-09-02T22:08:36Z</time>
  <course>225.22</course>
  <speed>0.17029386365926402</speed>
  <fix>3d</fix>
</trkpt>
<trkpt lat="33.8103116" lon="-118.3944438">
  <ele>-44.12</ele>
  <time>2026-09-02T22:08:36Z</time>
  <course>269.49</course>
  <speed>0.21</speed>
  <fix>3d</fix>
</trkpt>
<trkpt lat="33.8103115" lon="-118.394444">
  <ele>-44.822</ele>
  <time>2026-09-02T22:08:36Z</time>
  <course>225.34</course>
  <speed>0.16031219541881397</speed>
  <fix>3d</fix>
</trkpt>
<trkpt lat="33.8103116" lon="-118.3944438">
  <ele>-44.12</ele>
  <time>2026-09-02T22:08:36Z</time>
  <course>269.49</course>
  <speed>0.21</speed>
  <fix>3d</fix>
</trkpt>
<trkpt lat="33.8103115" lon="-118.3944442">
  <ele>-44.698</ele>
  <time>2026-09-02T22:08:36Z</time>
  <course>225.43</course>
  <speed>0.16031219541881397</speed>
  <fix>3d</fix>
</trkpt>
<trkpt lat="33.8103116" lon="-118.3944442">
  <ele>-43.87</ele>
  <time>2026-09-02T22:08:36Z</time>
  <course>268.53</course>
  <speed>0.19</speed>
  <fix>3d</fix>
</trkpt>
<trkpt lat="33.8103115" lon="-118.3944444">
  <ele>-44.575</ele>
  <time>2026-09-02T22:08:36Z</time>
  <course>225.52</course>
  <speed>0.15033296378372907</speed>
  <fix>3d</fix>
</trkpt>
<trkpt lat="33.8103116" lon="-118.3944442">
  <ele>-43.87</ele>
  <time>2026-09-02T22:08:36Z</time>
  <course>268.53</course>
  <speed>0.19</speed>
  <fix>3d</fix>
</trkpt>
<trkpt lat="33.8103115" lon="-118.3944446">
  <ele>-44.451</ele>
  <time>2026-09-02T22:08:36Z</time>
  <course>225.59</course>
  <speed>0.140356688476182</speed>
  <fix>3d</fix>
</trkpt>
<trkpt lat="33.8103116" lon="-118.3944445">
  <ele>-43.62</ele>
  <time>2026-09-02T22:08:36Z</time>
  <course>267.49</course>
  <speed>0.17</speed>
  <fix>3d</fix>
</trkpt>
<trkpt lat="33.8103115" lon="-118.3944447">
  <ele>-44.327</ele>
  <time>2026-09-02T22:08:36Z</time>
  <course>225.63</course>
  <speed>0.130384048104053</speed>
  <fix>3d</fix>
</trkpt>
<trkpt lat="33.8103116" lon="-118.3944445">
  <ele>-43.62</ele>
  <time>2026-09-02T22:08:36Z</time>
  <course>267.49</course>
  <speed>0.17</speed>
  <fix>3d</fix>
</trkpt>
<trkpt lat="33.8103115" lon="-118.3944449">
  <ele>-44.202</ele>
  <time>2026-09-02T22:08:36Z</time>
  <course>225.66</course>
  <speed>0.130384048104053</speed>
  <fix>3d</fix>
</trkpt>
<trkpt lat="33.8103116" lon="-118.3944449">
  <ele>-43.38</ele>
  <time>2026-09-02T22:08:36Z</time>
  <course>266.51</course>
  <speed>0.15</speed>
  <fix>3d</fix>
</trkpt>
<trkpt lat="33.8103115" lon="-118.3944451">
  <ele>-44.076</ele>
  <time>2026-09-02T22:08:36Z</time>
  <course>225.66</course>
  <speed>0.12041594578792296</speed>
  <fix>3d</fix>
</trkpt>
<trkpt lat="33.8103116" lon="-118.3944449">
  <ele>-43.38</ele>
  <time>2026-09-02T22:08:36Z</time>
  <course>266.51</course>
  <speed>0.15</speed>
  <fix>3d</fix>
</trkpt>
<trkpt lat="33.8103115" lon="-118.3944452">
  <ele>-43.949</ele>
  <time>2026-09-02T22:08:36Z</time>
  <course>225.67</course>
  <speed>0.12041594578792296</speed>
  <fix>3d</fix>
</trkpt>
<trkpt lat="33.8103116" lon="-118.3944453">
  <ele>-43.14</ele>
  <time>2026-09-02T22:08:36Z</time>
  <course>265.6</course>
  <speed>0.14</speed>
  <fix>3d</fix>
</trkpt>
<trkpt lat="33.8103115" lon="-118.3944454">
  <ele>-43.822</ele>
  <time>2026-09-02T22:08:36Z</time>
  <course>225.65</course>
  <speed>0.11045361017187261</speed>
  <fix>3d</fix>
</trkpt>
<trkpt lat="33.8103116" lon="-118.3944453">
  <ele>-43.14</ele>
  <time>2026-09-02T22:08:36Z</time>
  <course>265.6</course>
  <speed>0.14</speed>
  <fix>3d</fix>
</trkpt>
<trkpt lat="33.8103115" lon="-118.3944455">
  <ele>-43.695</ele>
  <time>2026-09-02T22:08:36Z</time>
  <course>225.65</course>
  <speed>0.11045361017187261</speed>
  <fix>3d</fix>
</trkpt>
<trkpt lat="33.8103116" lon="-118.3944455">
  <ele>-42.89</ele>
  <time>2026-09-02T22:08:36Z</time>
  <course>264.65</course>
  <speed>0.13</speed>
  <fix>3d</fix>
</trkpt>
<trkpt lat="33.8103115" lon="-118.3944457">
  <ele>-43.568</ele>
  <time>2026-09-02T22:08:36Z</time>
  <course>225.65</course>
  <speed>0.11045361017187261</speed>
  <fix>3d</fix>
</trkpt>
<trkpt lat="33.8103116" lon="-118.3944455">
  <ele>-42.89</ele>
  <time>2026-09-02T22:08:36Z</time>
  <course>264.65</course>
  <speed>0.13</speed>
  <fix>3d</fix>
</trkpt>
<trkpt lat="33.8103115" lon="-118.3944458">
  <ele>-43.442</ele>
  <time>2026-09-02T22:08:36Z</time>
  <course>225.7</course>
  <speed>0.11045361017187261</speed>
  <fix>3d</fix>
</trkpt>
<trkpt lat="33.8103116" lon="-118.3944458">
  <ele>-42.65</ele>
  <time>2026-09-02T22:08:36Z</time>
  <course>263.47</course>
  <speed>0.12</speed>
  <fix>3d</fix>
</trkpt>
<trkpt lat="33.8103115" lon="-118.3944459">
  <ele>-43.315</ele>
  <time>2026-09-02T22:08:36Z</time>
  <course>225.74</course>
  <speed>0.11045361017187261</speed>
  <fix>3d</fix>
</trkpt>
<trkpt lat="33.8103116" lon="-118.3944458">
  <ele>-42.65</ele>
  <time>2026-09-02T22:08:36Z</time>
  <course>263.47</course>
  <speed>0.12</speed>
  <fix>3d</fix>
</trkpt>
<trkpt lat="33.8103115" lon="-118.3944461">
  <ele>-43.189</ele>
  <time>2026-09-02T22:08:36Z</time>
  <course>225.72</course>
  <speed>0.11045361017187261</speed>
  <fix>3d</fix>
</trkpt>
<trkpt lat="33.8103116" lon="-118.394446">
  <ele>-42.4</ele>
  <time>2026-09-02T22:08:36Z</time>
  <course>262.3</course>
  <speed>0.11</speed>
  <fix>3d</fix>
</trkpt>
<trkpt lat="33.8103115" lon="-118.3944462">
  <ele>-43.063</ele>
  <time>2026-09-02T22:08:36Z</time>
  <course>225.69</course>
  <speed>0.11</speed>
  <fix>3d</fix>
</trkpt>
<trkpt lat="33.8103116" lon="-118.394446">
  <ele>-42.4</ele>
  <time>2026-09-02T22:08:36Z</time>
  <course>262.3</course>
  <speed>0.11</speed>
  <fix>3d</fix>
</trkpt>
<trkpt lat="33.8103115" lon="-118.3944463">
  <ele>-42.937</ele>
  <time>2026-09-02T22:08:36Z</time>
  <course>225.63</course>
  <speed>0.11</speed>
  <fix>3d</fix>
</trkpt>
<trkpt lat="33.8103116" lon="-118.3944463">
  <ele>-42.16</ele>
  <time>2026-09-02T22:08:36Z</time>
  <course>261.71</course>
  <speed>0.11</speed>
  <fix>3d</fix>
</trkpt>
<trkpt lat="33.8103115" lon="-118.3944465">
  <ele>-42.811</ele>
  <time>2026-09-02T22:08:36Z</time>
  <course>225.59</course>
  <speed>0.11</speed>
  <fix>3d</fix>
</trkpt>
<trkpt lat="33.8103116" lon="-118.3944463">
  <ele>-42.16</ele>
  <time>2026-09-02T22:08:36Z</time>
  <course>261.71</course>
  <speed>0.11</speed>
  <fix>3d</fix>
</trkpt>
<trkpt lat="33.8103115" lon="-118.3944466">
  <ele>-42.686</ele>
  <time>2026-09-02T22:08:36Z</time>
  <course>225.57</course>
  <speed>0.12</speed>
  <fix>3d</fix>
</trkpt>
<trkpt lat="33.8103115" lon="-118.3944466">
  <ele>-41.91</ele>
  <time>2026-09-02T22:08:36Z</time>
  <course>261.78</course>
  <speed>0.11</speed>
  <fix>3d</fix>
</trkpt>
<trkpt lat="33.8103115" lon="-118.3944468">
  <ele>-42.559</ele>
  <time>2026-09-02T22:08:36Z</time>
  <course>225.55</course>
  <speed>0.12</speed>
  <fix>3d</fix>
</trkpt>
<trkpt lat="33.8103115" lon="-118.3944466">
  <ele>-41.91</ele>
  <time>2026-09-02T22:08:36Z</time>
  <course>261.78</course>
  <speed>0.11</speed>
  <fix>3d</fix>
</trkpt>
<trkpt lat="33.8103115" lon="-118.3944469">
  <ele>-42.431</ele>
  <time>2026-09-02T22:08:36Z</time>
  <course>225.52</course>
  <speed>0.13</speed>
  <fix>3d</fix>
</trkpt>
<trkpt lat="33.8103115" lon="-118.3944468">
  <ele>-41.67</ele>
  <time>2026-09-02T22:08:36Z</time>
  <course>262.12</course>
  <speed>0.12</speed>
  <fix>3d</fix>
</trkpt>
<trkpt lat="33.8103115" lon="-118.3944471">
  <ele>-42.303</ele>
  <time>2026-09-02T22:08:36Z</time>
  <course>225.49</course>
  <speed>0.13</speed>
  <fix>3d</fix>
</trkpt>
<trkpt lat="33.8103115" lon="-118.3944468">
  <ele>-41.67</ele>
  <time>2026-09-02T22:08:36Z</time>
  <course>262.12</course>
  <speed>0.12</speed>
  <fix>3d</fix>
</trkpt>
<trkpt lat="33.8103115" lon="-118.3944472">
  <ele>-42.175</ele>
  <time>2026-09-02T22:08:36Z</time>
  <course>225.47</course>
  <speed>0.14</speed>
  <fix>3d</fix>
</trkpt>
<trkpt lat="33.8103115" lon="-118.3944471">
  <ele>-41.42</ele>
  <time>2026-09-02T22:08:36Z</time>
  <course>262.68</course>
  <speed>0.13</speed>
  <fix>3d</fix>
</trkpt>
<trkpt lat="33.8103115" lon="-118.3944474">
  <ele>-42.048</ele>
  <time>2026-09-02T22:08:36Z</time>
  <course>225.49</course>
  <speed>0.15</speed>
  <fix>3d</fix>
</trkpt>
<trkpt lat="33.8103115" lon="-118.3944471">
  <ele>-41.42</ele>
  <time>2026-09-02T22:08:36Z</time>
  <course>262.68</course>
  <speed>0.13</speed>
  <fix>3d</fix>
</trkpt>
<trkpt lat="33.8103115" lon="-118.3944475">
  <ele>-41.921</ele>
  <time>2026-09-02T22:08:36Z</time>
  <course>225.53</course>
  <speed>0.15</speed>
  <fix>3d</fix>
</trkpt>
<trkpt lat="33.8103115" lon="-118.3944474">
  <ele>-41.18</ele>
  <time>2026-09-02T22:08:36Z</time>
  <course>263.32</course>
  <speed>0.14</speed>
  <fix>3d</fix>
</trkpt>
<trkpt lat="33.8103115" lon="-118.3944477">
  <ele>-41.795</ele>
  <time>2026-09-02T22:08:36Z</time>
  <course>225.59</course>
  <speed>0.16</speed>
  <fix>3d</fix>
</trkpt>
<trkpt lat="33.8103115" lon="-118.3944474">
  <ele>-41.18</ele>
  <time>2026-09-02T22:08:36Z</time>
  <course>263.32</course>
  <speed>0.14</speed>
  <fix>3d</fix>
</trkpt>
<trkpt lat="33.8103115" lon="-118.3944479">
  <ele>-41.67</ele>
  <time>2026-09-02T22:08:36Z</time>
  <course>225.67</course>
  <speed>0.17</speed>
  <fix>3d</fix>
</trkpt>
<trkpt lat="33.8103114" lon="-118.3944477">
  <ele>-40.93</ele>
  <time>2026-09-02T22:08:36Z</time>
  <course>263.92</course>
  <speed>0.15</speed>
  <fix>3d</fix>
</trkpt>
<trkpt lat="33.8103115" lon="-118.3944481">
  <ele>-41.544</ele>
  <time>2026-09-02T22:08:36Z</time>
  <course>225.76</course>
  <speed>0.18</speed>
  <fix>3d</fix>
</trkpt>
<trkpt lat="33.8103114" lon="-118.3944477">
  <ele>-40.93</ele>
  <time>2026-09-02T22:08:36Z</time>
  <course>263.92</course>
  <speed>0.15</speed>
  <fix>3d</fix>
</trkpt>
<trkpt lat="33.8103115" lon="-118.3944483">
  <ele>-41.419</ele>
  <time>2026-09-02T22:08:36Z</time>
  <course>225.98</course>
  <speed>0.19</speed>
  <fix>3d</fix>
</trkpt>
<trkpt lat="33.8103113" lon="-118.3944481">
  <ele>-40.68</ele>
  <time>2026-09-02T22:08:36Z</time>
  <course>264.5</course>
  <speed>0.17</speed>
  <fix>3d</fix>
</trkpt>
<trkpt lat="33.8103115" lon="-118.3944485">
  <ele>-41.293</ele>
  <time>2026-09-02T22:08:36Z</time>
  <course>226.64</course>
  <speed>0.19</speed>
  <fix>3d</fix>
</trkpt>
<trkpt lat="33.8103113" lon="-118.3944481">
  <ele>-40.68</ele>
  <time>2026-09-02T22:08:36Z</time>
  <course>264.5</course>
  <speed>0.17</speed>
  <fix>3d</fix>
</trkpt>
<trkpt lat="33.8103115" lon="-118.3944487">
  <ele>-41.167</ele>
  <time>2026-09-02T22:08:36Z</time>
  <course>227.72</course>
  <speed>0.2</speed>
  <fix>3d</fix>
</trkpt>
<trkpt lat="33.8103113" lon="-118.3944485">
  <ele>-40.44</ele>
  <time>2026-09-02T22:08:36Z</time>
  <course>265.15</course>
  <speed>0.18</speed>
  <fix>3d</fix>
</trkpt>
<trkpt lat="33.8103114" lon="-118.394449">
  <ele>-41.043</ele>
  <time>2026-09-02T22:08:36Z</time>
  <course>229.0</course>
  <speed>0.2102379604162864</speed>
  <fix>3d</fix>
</trkpt>
<trkpt lat="33.8103113" lon="-118.3944485">
  <ele>-40.44</ele>
  <time>2026-09-02T22:08:36Z</time>
  <course>265.15</course>
  <speed>0.18</speed>
  <fix>3d</fix>
</trkpt>
<trkpt lat="33.8103114" lon="-118.3944492">
  <ele>-40.918</ele>
  <time>2026-09-02T22:08:36Z</time>
  <course>230.32</course>
  <speed>0.22022715545545238</speed>
  <fix>3d</fix>
</trkpt>
<trkpt lat="33.8103113" lon="-118.3944489">
  <ele>-40.19</ele>
  <time>2026-09-02T22:08:36Z</time>
  <course>265.83</course>
  <speed>0.2</speed>
  <fix>3d</fix>
</trkpt>
<trkpt lat="33.8103114" lon="-118.3944494">
  <ele>-40.793</ele>
  <time>2026-09-02T22:08:36Z</time>
  <course>231.66</course>
  <speed>0.22022715545545238</speed>
  <fix>3d</fix>
</trkpt>
<trkpt lat="33.8103113" lon="-118.3944489">
  <ele>-40.19</ele>
  <time>2026-09-02T22:08:36Z</time>
  <course>265.83</course>
  <speed>0.2</speed>
  <fix>3d</fix>
</trkpt>
<trkpt lat="33.8103114" lon="-118.3944497">
  <ele>-40.669</ele>
  <time>2026-09-02T22:08:36Z</time>
  <course>232.99</course>
  <speed>0.23021728866442676</speed>
  <fix>3d</fix>
</trkpt>
<trkpt lat="33.8103112" lon="-118.3944494">
  <ele>-39.95</ele>
  <time>2026-09-02T22:08:36Z</time>
  <course>266.43</course>
  <speed>0.21</speed>
  <fix>3d</fix>
</trkpt>
<trkpt lat="33.8103114" lon="-118.3944499">
  <ele>-40.544</ele>
  <time>2026-09-02T22:08:36Z</time>
  <course>234.31</course>
  <speed>0.23021728866442676</speed>
  <fix>3d</fix>
</trkpt>
<trkpt lat="33.8103112" lon="-118.3944494">
  <ele>-39.95</ele>
  <time>2026-09-02T22:08:36Z</time>
  <course>266.43</course>
  <speed>0.21</speed>
  <fix>3d</fix>
</trkpt>
<trkpt lat="33.8103114" lon="-118.3944502">
  <ele>-40.418</ele>
  <time>2026-09-02T22:08:36Z</time>
  <course>235.61</course>
  <speed>0.24020824298928628</speed>
  <fix>3d</fix>
</trkpt>
<trkpt lat="33.8103112" lon="-118.3944498">
  <ele>-39.7</ele>
  <time>2026-09-02T22:08:36Z</time>
  <course>267.05</course>
  <speed>0.22</speed>
  <fix>3d</fix>
</trkpt>
<trkpt lat="33.8103114" lon="-118.3944505">
  <ele>-40.291</ele>
  <time>2026-09-02T22:08:36Z</time>
  <course>236.88</course>
  <speed>0.24083189157584592</speed>
  <fix>3d</fix>
</trkpt>
<trkpt lat="33.8103112" lon="-118.3944498">
  <ele>-39.7</ele>
  <time>2026-09-02T22:08:36Z</time>
  <course>267.05</course>
  <speed>0.22</speed>
  <fix>3d</fix>
</trkpt>
<trkpt lat="33.8103114" lon="-118.3944507">
  <ele>-40.164</ele>
  <time>2026-09-02T22:08:36Z</time>
  <course>238.13</course>
  <speed>0.25079872407968906</speed>
  <fix>3d</fix>
</trkpt>
<trkpt lat="33.8103112" lon="-118.3944503">
  <ele>-39.46</ele>
  <time>2026-09-02T22:08:36Z</time>
  <course>267.77</course>
  <speed>0.23</speed>
  <fix>3d</fix>
</trkpt>
<trkpt lat="33.8103114" lon="-118.394451">
  <ele>-40.037</ele>
  <time>2026-09-02T22:08:36Z</time>
  <course>239.32</course>
  <speed>0.25079872407968906</speed>
  <fix>3d</fix>
</trkpt>
<trkpt lat="33.8103112" lon="-118.3944503">
  <ele>-39.46</ele>
  <time>2026-09-02T22:08:36Z</time>
  <course>267.77</course>
  <speed>0.23</speed>
  <fix>3d</fix>
</trkpt>
<trkpt lat="33.8103114" lon="-118.3944512">
  <ele>-39.91</ele>
  <time>2026-09-02T22:08:36Z</time>
  <course>240.43</course>
  <speed>0.25079872407968906</speed>
  <fix>3d</fix>
</trkpt>
<trkpt lat="33.8103112" lon="-118.3944509">
  <ele>-39.21</ele>
  <time>2026-09-02T22:08:36Z</time>
  <course>268.41</course>
  <speed>0.24</speed>
  <fix>3d</fix>
</trkpt>
<trkpt lat="33.8103114" lon="-118.3944515">
  <ele>-39.783</ele>
  <time>2026-09-02T22:08:36Z</time>
  <course>241.43</course>
  <speed>0.25079872407968906</speed>
  <fix>3d</fix>
</trkpt>
<trkpt lat="33.8103112" lon="-118.3944509">
  <ele>-39.21</ele>
  <time>2026-09-02T22:08:36Z</time>
  <course>268.41</course>
  <speed>0.24</speed>
  <fix>3d</fix>
</trkpt>
<trkpt lat="33.8103114" lon="-118.3944518">
  <ele>-39.657</ele>
  <time>2026-09-02T22:08:36Z</time>
  <course>242.31</course>
  <speed>0.260768096208106</speed>
  <fix>3d</fix>
</trkpt>
<trkpt lat="33.8103112" lon="-118.3944514">
  <ele>-38.97</ele>
  <time>2026-09-02T22:08:36Z</time>
  <course>268.94</course>
  <speed>0.25</speed>
  <fix>3d</fix>
</trkpt>
<trkpt lat="33.8103114" lon="-118.3944521">
  <ele>-39.53</ele>
  <time>2026-09-02T22:08:36Z</time>
  <course>243.06</course>
  <speed>0.261725046566048</speed>
  <fix>3d</fix>
</trkpt>
<trkpt lat="33.8103112" lon="-118.3944514">
  <ele>-38.97</ele>
  <time>2026-09-02T22:08:36Z</time>
  <course>268.94</course>
  <speed>0.25</speed>
  <fix>3d</fix>
</trkpt>
<trkpt lat="33.8103114" lon="-118.3944524">
  <ele>-39.403</ele>
  <time>2026-09-02T22:08:36Z</time>
  <course>243.72</course>
  <speed>0.260768096208106</speed>
  <fix>3d</fix>
</trkpt>
<trkpt lat="33.8103112" lon="-118.394452">
  <ele>-38.72</ele>
  <time>2026-09-02T22:08:36Z</time>
  <course>269.14</course>
  <speed>0.25</speed>
  <fix>3d</fix>
</trkpt>
<trkpt lat="33.8103114" lon="-118.3944526">
  <ele>-39.277</ele>
  <time>2026-09-02T22:08:36Z</time>
  <course>244.28</course>
  <speed>0.261725046566048</speed>
  <fix>3d</fix>
</trkpt>
<trkpt lat="33.8103112" lon="-118.394452">
  <ele>-38.72</ele>
  <time>2026-09-02T22:08:36Z</time>
  <course>269.14</course>
  <speed>0.25</speed>
  <fix>3d</fix>
</trkpt>
<trkpt lat="33.8103114" lon="-118.3944529">
  <ele>-39.152</ele>
  <time>2026-09-02T22:08:36Z</time>
  <course>244.78</course>
  <speed>0.260768096208106</speed>
  <fix>3d</fix>
</trkpt>
<trkpt lat="33.8103112" lon="-118.3944525">
  <ele>-38.48</ele>
  <time>2026-09-02T22:08:36Z</time>
  <course>268.96</course>
  <speed>0.26</speed>
  <fix>3d</fix>
</trkpt>
<trkpt lat="33.8103114" lon="-118.3944532">
  <ele>-39.026</ele>
  <time>2026-09-02T22:08:36Z</time>
  <course>245.19</course>
  <speed>0.260768096208106</speed>
  <fix>3d</fix>
</trkpt>
<trkpt lat="33.8103112" lon="-118.3944525">
  <ele>-38.48</ele>
  <time>2026-09-02T22:08:36Z</time>
  <course>268.96</course>
  <speed>0.26</speed>
  <fix>3d</fix>
</trkpt>
<trkpt lat="33.8103114" lon="-118.3944535">
  <ele>-38.9</ele>
  <time>2026-09-02T22:08:36Z</time>
  <course>245.58</course>
  <speed>0.260768096208106</speed>
  <fix>3d</fix>
</trkpt>
<trkpt lat="33.8103112" lon="-118.3944531">
  <ele>-38.23</ele>
  <time>2026-09-02T22:08:36Z</time>
  <course>268.64</course>
  <speed>0.26</speed>
  <fix>3d</fix>
</trkpt>
<trkpt lat="33.8103114" lon="-118.3944538">
  <ele>-38.773</ele>
  <time>2026-09-02T22:08:36Z</time>
  <course>245.9</course>
  <speed>0.260768096208106</speed>
  <fix>3d</fix>
</trkpt>
<trkpt lat="33.8103112" lon="-118.3944531">
  <ele>-38.23</ele>
  <time>2026-09-02T22:08:36Z</time>
  <course>268.64</course>
  <speed>0.26</speed>
  <fix>3d</fix>
</trkpt>
<trkpt lat="33.8103114" lon="-118.3944541">
  <ele>-38.646</ele>
  <time>2026-09-02T22:08:36Z</time>
  <course>246.23</course>
  <speed>0.260768096208106</speed>
  <fix>3d</fix>
</trkpt>
<trkpt lat="33.8103112" lon="-118.3944536">
  <ele>-37.98</ele>
  <time>2026-09-02T22:08:36Z</time>
  <course>268.33</course>
  <speed>0.26</speed>
  <fix>3d</fix>
</trkpt>
<trkpt lat="33.8103114" lon="-118.3944544">
  <ele>-38.52</ele>
  <time>2026-09-02T22:08:36Z</time>
  <course>246.5</course>
  <speed>0.260768096208106</speed>
  <fix>3d</fix>
</trkpt>
<trkpt lat="33.8103112" lon="-118.3944536">
  <ele>-37.98</ele>
  <time>2026-09-02T22:08:36Z</time>
  <course>268.33</course>
  <speed>0.26</speed>
  <fix>3d</fix>
</trkpt>
<trkpt lat="33.8103114" lon="-118.3944546">
  <ele>-38.394</ele>
  <time>2026-09-02T22:08:36Z</time>
  <course>246.78</course>
  <speed>0.260768096208106</speed>
  <fix>3d</fix>
</trkpt>
<trkpt lat="33.8103112" lon="-118.3944543">
  <ele>-37.74</ele>
  <time>2026-09-02T22:08:36Z</time>
  <course>268.07</course>
  <speed>0.26</speed>
  <fix>3d</fix>
</trkpt>
<trkpt lat="33.8103114" lon="-118.3944549">
  <ele>-38.269</ele>
  <time>2026-09-02T22:08:36Z</time>
  <course>247.01</course>
  <speed>0.261725046566048</speed>
  <fix>3d</fix>
</trkpt>
<trkpt lat="33.8103112" lon="-118.3944543">
  <ele>-37.74</ele>
  <time>2026-09-02T22:08:36Z</time>
  <course>268.07</course>
  <speed>0.26</speed>
  <fix>3d</fix>
</trkpt>
<trkpt lat="33.8103114" lon="-118.3944552">
  <ele>-38.145</ele>
  <time>2026-09-02T22:08:36Z</time>
  <course>247.23</course>
  <speed>0.260768096208106</speed>
  <fix>3d</fix>
</trkpt>
<trkpt lat="33.8103112" lon="-118.3944548">
  <ele>-37.5</ele>
  <time>2026-09-02T22:08:36Z</time>
  <course>267.78</course>
  <speed>0.26</speed>
  <fix>3d</fix>
</trkpt>
<trkpt lat="33.8103114" lon="-118.3944555">
  <ele>-38.021</ele>
  <time>2026-09-02T22:08:36Z</time>
  <course>247.38</course>
  <speed>0.260768096208106</speed>
  <fix>3d</fix>
</trkpt>
<trkpt lat="33.8103112" lon="-118.3944548">
  <ele>-37.5</ele>
  <time>2026-09-02T22:08:36Z</time>
  <course>267.78</course>
  <speed>0.26</speed>
  <fix>3d</fix>
</trkpt>
<trkpt lat="33.8103114" lon="-118.3944558">
  <ele>-37.897</ele>
  <time>2026-09-02T22:08:36Z</time>
  <course>247.54</course>
  <speed>0.25079872407968906</speed>
  <fix>3d</fix>
</trkpt>
<trkpt lat="33.8103112" lon="-118.3944554">
  <ele>-37.25</ele>
  <time>2026-09-02T22:08:36Z</time>
  <course>267.44</course>
  <speed>0.25</speed>
  <fix>3d</fix>
</trkpt>
<trkpt lat="33.8103114" lon="-118.394456">
  <ele>-37.772</ele>
  <time>2026-09-02T22:08:36Z</time>
  <course>247.64</course>
  <speed>0.25079872407968906</speed>
  <fix>3d</fix>
</trkpt>
<trkpt lat="33.8103112" lon="-118.3944554">
  <ele>-37.25</ele>
  <time>2026-09-02T22:08:36Z</time>
  <course>267.44</course>
  <speed>0.25</speed>
  <fix>3d</fix>
</trkpt>
<trkpt lat="33.8103114" lon="-118.3944563">
  <ele>-37.648</ele>
  <time>2026-09-02T22:08:36Z</time>
  <course>247.76</course>
  <speed>0.25079872407968906</speed>
  <fix>3d</fix>
</trkpt>
<trkpt lat="33.8103111" lon="-118.3944559">
  <ele>-37.01</ele>
  <time>2026-09-02T22:08:36Z</time>
  <course>267.12</course>
  <speed>0.25</speed>
  <fix>3d</fix>
</trkpt>
<trkpt lat="33.8103114" lon="-118.3944566">
  <ele>-37.524</ele>
  <time>2026-09-02T22:08:36Z</time>
  <course>247.84</course>
  <speed>0.25179356624028343</speed>
  <fix>3d</fix>
</trkpt>
<trkpt lat="33.8103111" lon="-118.3944559">
  <ele>-37.01</ele>
  <time>2026-09-02T22:08:36Z</time>
  <course>267.12</course>
  <speed>0.25</speed>
  <fix>3d</fix>
</trkpt>
<trkpt lat="33.8103114" lon="-118.3944568">
  <ele>-37.4</ele>
  <time>2026-09-02T22:08:36Z</time>
  <course>248.01</course>
  <speed>0.24186773244895649</speed>
  <fix>3d</fix>
</trkpt>
<trkpt lat="33.8103111" lon="-118.3944565">
  <ele>-36.76</ele>
  <time>2026-09-02T22:08:36Z</time>
  <course>266.92</course>
  <speed>0.25</speed>
  <fix>3d</fix>
</trkpt>
<trkpt lat="33.8103114" lon="-118.3944571">
  <ele>-37.276</ele>
  <time>2026-09-02T22:08:36Z</time>
  <course>248.18</course>
  <speed>0.24186773244895649</speed>
  <fix>3d</fix>
</trkpt>
<trkpt lat="33.8103111" lon="-118.3944565">
  <ele>-36.76</ele>
  <time>2026-09-02T22:08:36Z</time>
  <course>266.92</course>
  <speed>0.25</speed>
  <fix>3d</fix>
</trkpt>
<trkpt lat="33.8103114" lon="-118.3944574">
  <ele>-37.152</ele>
  <time>2026-09-02T22:08:36Z</time>
  <course>248.42</course>
  <speed>0.24186773244895649</speed>
  <fix>3d</fix>
</trkpt>
<trkpt lat="33.8103111" lon="-118.394457">
  <ele>-36.52</ele>
  <time>2026-09-02T22:08:36Z</time>
  <course>266.95</course>
  <speed>0.24</speed>
  <fix>3d</fix>
</trkpt>
<trkpt lat="33.8103114" lon="-118.3944576">
  <ele>-37.027</ele>
  <time>2026-09-02T22:08:36Z</time>
  <course>248.62</course>
  <speed>0.23194827009486402</speed>
  <fix>3d</fix>
</trkpt>
<trkpt lat="33.8103111" lon="-118.394457">
  <ele>-36.52</ele>
  <time>2026-09-02T22:08:36Z</time>
  <course>266.95</course>
  <speed>0.24</speed>
  <fix>3d</fix>
</trkpt>
<trkpt lat="33.8103114" lon="-118.3944579">
  <ele>-36.901</ele>
  <time>2026-09-02T22:08:36Z</time>
  <course>248.85</course>
  <speed>0.23194827009486402</speed>
  <fix>3d</fix>
</trkpt>
<trkpt lat="33.8103111" lon="-118.3944575">
  <ele>-36.27</ele>
  <time>2026-09-02T22:08:36Z</time>
  <course>267.13</course>
  <speed>0.23</speed>
  <fix>3d</fix>
</trkpt>
<trkpt lat="33.8103114" lon="-118.3944581">
  <ele>-36.775</ele>
  <time>2026-09-02T22:08:36Z</time>
  <course>249.02</course>
  <speed>0.2220360331117452</speed>
  <fix>3d</fix>
</trkpt>
<trkpt lat="33.8103111" lon="-118.3944575">
  <ele>-36.27</ele>
  <time>2026-09-02T22:08:36Z</time>
  <course>267.13</course>
  <speed>0.23</speed>
  <fix>3d</fix>
</trkpt>
<trkpt lat="33.8103114" lon="-118.3944584">
  <ele>-36.649</ele>
  <time>2026-09-02T22:08:36Z</time>
  <course>249.22</course>
  <speed>0.2220360331117452</speed>
  <fix>3d</fix>
</trkpt>
<trkpt lat="33.8103111" lon="-118.394458">
  <ele>-36.03</ele>
  <time>2026-09-02T22:08:36Z</time>
  <course>267.31</course>
  <speed>0.23</speed>
  <fix>3d</fix>
</trkpt>
<trkpt lat="33.8103114" lon="-118.3944586">
  <ele>-36.524</ele>
  <time>2026-09-02T22:08:36Z</time>
  <course>249.36</course>
  <speed>0.2220360331117452</speed>
  <fix>3d</fix>
</trkpt>
<trkpt lat="33.8103111" lon="-118.394458">
  <ele>-36.03</ele>
  <time>2026-09-02T22:08:36Z</time>
  <course>267.31</course>
  <speed>0.23</speed>
  <fix>3d</fix>
</trkpt>
<trkpt lat="33.8103114" lon="-118.3944588">
  <ele>-36.397</ele>
  <time>2026-09-02T22:08:36Z</time>
  <course>249.53</course>
  <speed>0.2220360331117452</speed>
  <fix>3d</fix>
</trkpt>
<trkpt lat="33.810311" lon="-118.3944585">
  <ele>-35.78</ele>
  <time>2026-09-02T22:08:36Z</time>
  <course>267.41</course>
  <speed>0.22</speed>
  <fix>3d</fix>
</trkpt>
<trkpt lat="33.8103114" lon="-118.3944591">
  <ele>-36.27</ele>
  <time>2026-09-02T22:08:36Z</time>
  <course>249.65</course>
  <speed>0.21213203435596426</speed>
  <fix>3d</fix>
</trkpt>
<trkpt lat="33.810311" lon="-118.3944585">
  <ele>-35.78</ele>
  <time>2026-09-02T22:08:36Z</time>
  <course>267.41</course>
  <speed>0.22</speed>
  <fix>3d</fix>
</trkpt>
<trkpt lat="33.8103114" lon="-118.3944593">
  <ele>-36.141</ele>
  <time>2026-09-02T22:08:36Z</time>
  <course>249.85</course>
  <speed>0.21213203435596426</speed>
  <fix>3d</fix>
</trkpt>
<trkpt lat="33.810311" lon="-118.394459">
  <ele>-35.54</ele>
  <time>2026-09-02T22:08:36Z</time>
  <course>267.6</course>
  <speed>0.22</speed>
  <fix>3d</fix>
</trkpt>
<trkpt lat="33.8103113" lon="-118.3944595">
  <ele>-36.013</ele>
  <time>2026-09-02T22:08:36Z</time>
  <course>250.1</course>
  <speed>0.21213203435596426</speed>
  <fix>3d</fix>
</trkpt>
<trkpt lat="33.810311" lon="-118.394459">
  <ele>-35.54</ele>
  <time>2026-09-02T22:08:36Z</time>
  <course>267.6</course>
  <speed>0.22</speed>
  <fix>3d</fix>
</trkpt>
<trkpt lat="33.8103113" lon="-118.3944597">
  <ele>-35.885</ele>
  <time>2026-09-02T22:08:36Z</time>
  <course>250.43</course>
  <speed>0.20223748416156684</speed>
  <fix>3d</fix>
</trkpt>
<trkpt lat="33.810311" lon="-118.3944595">
  <ele>-35.29</ele>
  <time>2026-09-02T22:08:36Z</time>
  <course>267.99</course>
  <speed>0.21</speed>
  <fix>3d</fix>
</trkpt>
<trkpt lat="33.8103113" lon="-118.39446">
  <ele>-35.757</ele>
  <time>2026-09-02T22:08:36Z</time>
  <course>250.75</course>
  <speed>0.2039607805437114</speed>
  <fix>3d</fix>
</trkpt>
<trkpt lat="33.810311" lon="-118.3944595">
  <ele>-35.29</ele>
  <time>2026-09-02T22:08:36Z</time>
  <course>267.99</course>
  <speed>0.21</speed>
  <fix>3d</fix>
</trkpt>
<trkpt lat="33.8103113" lon="-118.3944602">
  <ele>-35.629</ele>
  <time>2026-09-02T22:08:36Z</time>
  <course>251.11</course>
  <speed>0.20223748416156684</speed>
  <fix>3d</fix>
</trkpt>
<trkpt lat="33.810311" lon="-118.39446">
  <ele>-35.05</ele>
  <time>2026-09-02T22:08:36Z</time>
  <course>268.4</course>
  <speed>0.21</speed>
  <fix>3d</fix>
</trkpt>
<trkpt lat="33.8103113" lon="-118.3944604">
  <ele>-35.5</ele>
  <time>2026-09-02T22:08:36Z</time>
  <course>251.42</course>
  <speed>0.2039607805437114</speed>
  <fix>3d</fix>
</trkpt>
<trkpt lat="33.810311" lon="-118.39446">
  <ele>-35.05</ele>
  <time>2026-09-02T22:08:36Z</time>
  <course>268.4</course>
  <speed>0.21</speed>
  <fix>3d</fix>
</trkpt>
<trkpt lat="33.8103113" lon="-118.3944606">
  <ele>-35.372</ele>
  <time>2026-09-02T22:08:36Z</time>
  <course>251.77</course>
  <speed>0.2039607805437114</speed>
  <fix>3d</fix>
</trkpt>
<trkpt lat="33.810311" lon="-118.3944604">
  <ele>-34.8</ele>
  <time>2026-09-02T22:08:36Z</time>
  <course>268.71</course>
  <speed>0.2</speed>
  <fix>3d</fix>
</trkpt>
<trkpt lat="33.8103113" lon="-118.3944609">
  <ele>-35.245</ele>
  <time>2026-09-02T22:08:36Z</time>
  <course>252.1</course>
  <speed>0.194164878389476</speed>
  <fix>3d</fix>
</trkpt>
<trkpt lat="33.810311" lon="-118.3944604">
  <ele>-34.8</ele>
  <time>2026-09-02T22:08:36Z</time>
  <course>268.71</course>
  <speed>0.2</speed>
  <fix>3d</fix>
</trkpt>
<trkpt lat="33.8103113" lon="-118.3944611">
  <ele>-35.119</ele>
  <time>2026-09-02T22:08:36Z</time>
  <course>252.46</course>
  <speed>0.194164878389476</speed>
  <fix>3d</fix>
</trkpt>
<trkpt lat="33.810311" lon="-118.3944609">
  <ele>-34.55</ele>
  <time>2026-09-02T22:08:36Z</time>
  <course>269.03</course>
  <speed>0.2</speed>
  <fix>3d</fix>
</trkpt>
<trkpt lat="33.8103113" lon="-118.3944613">
  <ele>-34.992</ele>
  <time>2026-09-02T22:08:36Z</time>
  <course>252.83</course>
  <speed>0.194164878389476</speed>
  <fix>3d</fix>
</trkpt>
<trkpt lat="33.810311" lon="-118.3944609">
  <ele>-34.55</ele>
  <time>2026-09-02T22:08:36Z</time>
  <course>269.03</course>
  <speed>0.2</speed>
  <fix>3d</fix>
</trkpt>
<trkpt lat="33.8103113" lon="-118.3944615">
  <ele>-34.866</ele>
  <time>2026-09-02T22:08:36Z</time>
  <course>253.23</course>
  <speed>0.194164878389476</speed>
  <fix>3d</fix>
</trkpt>
<trkpt lat="33.810311" lon="-118.3944613">
  <ele>-34.31</ele>
  <time>2026-09-02T22:08:36Z</time>
  <course>269.34</course>
  <speed>0.2</speed>
  <fix>3d</fix>
</trkpt>
<trkpt lat="33.8103113" lon="-118.3944617">
  <ele>-34.74</ele>
  <time>2026-09-02T22:08:36Z</time>
  <course>253.63</course>
  <speed>0.194164878389476</speed>
  <fix>3d</fix>
</trkpt>
<trkpt lat="33.810311" lon="-118.3944613">
  <ele>-34.31</ele>
  <time>2026-09-02T22:08:36Z</time>
  <course>269.34</course>
  <speed>0.2</speed>
  <fix>3d</fix>
</trkpt>
<trkpt lat="33.8103113" lon="-118.3944619">
  <ele>-34.613</ele>
  <time>2026-09-02T22:08:36Z</time>
  <course>254.06</course>
  <speed>0.194164878389476</speed>
  <fix>3d</fix>
</trkpt>
<trkpt lat="33.810311" lon="-118.3944617">
  <ele>-34.07</ele>
  <time>2026-09-02T22:08:36Z</time>
  <course>269.59</course>
  <speed>0.2</speed>
  <fix>3d</fix>
</trkpt>
<trkpt lat="33.8103113" lon="-118.3944622">
  <ele>-34.486</ele>
  <time>2026-09-02T22:08:36Z</time>
  <course>254.49</course>
  <speed>0.194164878389476</speed>
  <fix>3d</fix>
</trkpt>
<trkpt lat="33.810311" lon="-118.3944617">
  <ele>-34.07</ele>
  <time>2026-09-02T22:08:36Z</time>
  <course>269.59</course>
  <speed>0.2</speed>
  <fix>3d</fix>
</trkpt>
<trkpt lat="33.8103113" lon="-118.3944624">
  <ele>-34.36</ele>
  <time>2026-09-02T22:08:36Z</time>
  <course>254.94</course>
  <speed>0.194164878389476</speed>
  <fix>3d</fix>
</trkpt>
<trkpt lat="33.810311" lon="-118.3944622">
  <ele>-33.82</ele>
  <time>2026-09-02T22:08:36Z</time>
  <course>269.77</course>
  <speed>0.2</speed>
  <fix>3d</fix>
</trkpt>
<trkpt lat="33.8103113" lon="-118.3944626">
  <ele>-34.234</ele>
  <time>2026-09-02T22:08:36Z</time>
  <course>255.41</course>
  <speed>0.194164878389476</speed>
  <fix>3d</fix>
</trkpt>
<trkpt lat="33.810311" lon="-118.3944622">
  <ele>-33.82</ele>
  <time>2026-09-02T22:08:36Z</time>
  <course>269.77</course>
  <speed>0.2</speed>
  <fix>3d</fix>
</trkpt>
<trkpt lat="33.8103113" lon="-118.3944628">
  <ele>-34.107</ele>
  <time>2026-09-02T22:08:36Z</time>
  <course>255.89</course>
  <speed>0.2039607805437114</speed>
  <fix>3d</fix>
</trkpt>
<trkpt lat="33.810311" lon="-118.3944626">
  <ele>-33.58</ele>
  <time>2026-09-02T22:08:36Z</time>
  <course>269.93</course>
  <speed>0.2</speed>
  <fix>3d</fix>
</trkpt>
<trkpt lat="33.8103113" lon="-118.394463">
  <ele>-33.98</ele>
  <time>2026-09-02T22:08:36Z</time>
  <course>256.36</course>
  <speed>0.2039607805437114</speed>
  <fix>3d</fix>
</trkpt>
<trkpt lat="33.810311" lon="-118.3944626">
  <ele>-33.58</ele>
  <time>2026-09-02T22:08:36Z</time>
  <course>269.93</course>
  <speed>0.2</speed>
  <fix>3d</fix>
</trkpt>
<trkpt lat="33.8103113" lon="-118.3944632">
  <ele>-33.853</ele>
  <time>2026-09-02T22:08:36Z</time>
  <course>256.85</course>
  <speed>0.2039607805437114</speed>
  <fix>3d</fix>
</trkpt>
<trkpt lat="33.810311" lon="-118.394463">
  <ele>-33.33</ele>
  <time>2026-09-02T22:08:36Z</time>
  <course>270.08</course>
  <speed>0.2</speed>
  <fix>3d</fix>
</trkpt>
<trkpt lat="33.8103113" lon="-118.3944635">
  <ele>-33.728</ele>
  <time>2026-09-02T22:08:36Z</time>
  <course>257.35</course>
  <speed>0.2039607805437114</speed>
  <fix>3d</fix>
</trkpt>
<trkpt lat="33.810311" lon="-118.394463">
  <ele>-33.33</ele>
  <time>2026-09-02T22:08:36Z</time>
  <course>270.08</course>
  <speed>0.2</speed>
  <fix>3d</fix>
</trkpt>
<trkpt lat="33.8103113" lon="-118.3944637">
  <ele>-33.603</ele>
  <time>2026-09-02T22:08:36Z</time>
  <course>257.87</course>
  <speed>0.2039607805437114</speed>
  <fix>3d</fix>
</trkpt>
<trkpt lat="33.810311" lon="-118.3944635">
  <ele>-33.09</ele>
  <time>2026-09-02T22:08:36Z</time>
  <course>270.23</course>
  <speed>0.2</speed>
  <fix>3d</fix>
</trkpt>
<trkpt lat="33.8103113" lon="-118.3944639">
  <ele>-33.477</ele>
  <time>2026-09-02T22:08:36Z</time>
  <course>258.39</course>
  <speed>0.2039607805437114</speed>
  <fix>3d</fix>
</trkpt>
<trkpt lat="33.810311" lon="-118.3944635">
  <ele>-33.09</ele>
  <time>2026-09-02T22:08:36Z</time>
  <course>270.23</course>
  <speed>0.2</speed>
  <fix>3d</fix>
</trkpt>
<trkpt lat="33.8103113" lon="-118.3944642">
  <ele>-33.352</ele>
  <time>2026-09-02T22:08:36Z</time>
  <course>258.9</course>
  <speed>0.2039607805437114</speed>
  <fix>3d</fix>
</trkpt>
<trkpt lat="33.810311" lon="-118.3944639">
  <ele>-32.84</ele>
  <time>2026-09-02T22:08:36Z</time>
  <course>270.38</course>
  <speed>0.21</speed>
  <fix>3d</fix>
</trkpt>
<trkpt lat="33.8103113" lon="-118.3944644">
  <ele>-33.227</ele>
  <time>2026-09-02T22:08:36Z</time>
  <course>259.42</course>
  <speed>0.21377558326431947</speed>
  <fix>3d</fix>
</trkpt>
<trkpt lat="33.810311" lon="-118.3944639">
  <ele>-32.84</ele>
  <time>2026-09-02T22:08:36Z</time>
  <course>270.38</course>
  <speed>0.21</speed>
  <fix>3d</fix>
</trkpt>
<trkpt lat="33.8103113" lon="-118.3944646">
  <ele>-33.104</ele>
  <time>2026-09-02T22:08:36Z</time>
  <course>259.93</course>
  <speed>0.21377558326431947</speed>
  <fix>3d</fix>
</trkpt>
<trkpt lat="33.810311" lon="-118.3944644">
  <ele>-32.59</ele>
  <time>2026-09-02T22:08:36Z</time>
  <course>270.54</course>
  <speed>0.21</speed>
  <fix>3d</fix>
</trkpt>
<trkpt lat="33.8103113" lon="-118.3944649">
  <ele>-32.981</ele>
  <time>2026-09-02T22:08:36Z</time>
  <course>260.42</course>
  <speed>0.21377558326431947</speed>
  <fix>3d</fix>
</trkpt>
<trkpt lat="33.810311" lon="-118.3944644">
  <ele>-32.59</ele>
  <time>2026-09-02T22:08:36Z</time>
  <course>270.54</course>
  <speed>0.21</speed>
  <fix>3d</fix>
</trkpt>
<trkpt lat="33.8103113" lon="-118.3944651">
  <ele>-32.857</ele>
  <time>2026-09-02T22:08:36Z</time>
  <course>260.91</course>
  <speed>0.21377558326431947</speed>
  <fix>3d</fix>
</trkpt>
<trkpt lat="33.810311" lon="-118.3944649">
  <ele>-32.35</ele>
  <time>2026-09-02T22:08:36Z</time>
  <course>270.69</course>
  <speed>0.22</speed>
  <fix>3d</fix>
</trkpt>
<trkpt lat="33.8103113" lon="-118.3944653">
  <ele>-32.733</ele>
  <time>2026-09-02T22:08:36Z</time>
  <course>261.39</course>
  <speed>0.21377558326431947</speed>
  <fix>3d</fix>
</trkpt>
<trkpt lat="33.810311" lon="-118.3944649">
  <ele>-32.35</ele>
  <time>2026-09-02T22:08:36Z</time>
  <course>270.69</course>
  <speed>0.22</speed>
  <fix>3d</fix>
</trkpt>
<trkpt lat="33.8103113" lon="-118.3944656">
  <ele>-32.609</ele>
  <time>2026-09-02T22:08:36Z</time>
  <course>261.85</course>
  <speed>0.21377558326431947</speed>
  <fix>3d</fix>
</trkpt>
<trkpt lat="33.810311" lon="-118.3944654">
  <ele>-32.11</ele>
  <time>2026-09-02T22:08:36Z</time>
  <course>270.83</course>
  <speed>0.22</speed>
  <fix>3d</fix>
</trkpt>
<trkpt lat="33.8103113" lon="-118.3944658">
  <ele>-32.484</ele>
  <time>2026-09-02T22:08:36Z</time>
  <course>262.29</course>
  <speed>0.223606797749979</speed>
  <fix>3d</fix>
</trkpt>
<trkpt lat="33.810311" lon="-118.3944654">
  <ele>-32.11</ele>
  <time>2026-09-02T22:08:36Z</time>
  <course>270.83</course>
  <speed>0.22</speed>
  <fix>3d</fix>
</trkpt>
<trkpt lat="33.8103113" lon="-118.3944661">
  <ele>-32.36</ele>
  <time>2026-09-02T22:08:36Z</time>
  <course>262.72</course>
  <speed>0.223606797749979</speed>
  <fix>3d</fix>
</trkpt>
<trkpt lat="33.810311" lon="-118.3944658">
  <ele>-31.86</ele>
  <time>2026-09-02T22:08:36Z</time>
  <course>271.0</course>
  <speed>0.23</speed>
  <fix>3d</fix>
</trkpt>
<trkpt lat="33.8103113" lon="-118.3944663">
  <ele>-32.236</ele>
  <time>2026-09-02T22:08:36Z</time>
  <course>263.15</course>
  <speed>0.223606797749979</speed>
  <fix>3d</fix>
</trkpt>
<trkpt lat="33.810311" lon="-118.3944658">
  <ele>-31.86</ele>
  <time>2026-09-02T22:08:36Z</time>
  <course>271.0</course>
  <speed>0.23</speed>
  <fix>3d</fix>
</trkpt>
<trkpt lat="33.8103113" lon="-118.3944666">
  <ele>-32.111</ele>
  <time>2026-09-02T22:08:36Z</time>
  <course>263.58</course>
  <speed>0.223606797749979</speed>
  <fix>3d</fix>
</trkpt>
<trkpt lat="33.810311" lon="-118.3944664">
  <ele>-31.61</ele>
  <time>2026-09-02T22:08:36Z</time>
  <course>271.21</course>
  <speed>0.23</speed>
  <fix>3d</fix>
</trkpt>
<trkpt lat="33.8103113" lon="-118.3944668">
  <ele>-31.986</ele>
  <time>2026-09-02T22:08:36Z</time>
  <course>263.99</course>
  <speed>0.223606797749979</speed>
  <fix>3d</fix>
</trkpt>
<trkpt lat="33.810311" lon="-118.3944664">
  <ele>-31.61</ele>
  <time>2026-09-02T22:08:36Z</time>
  <course>271.21</course>
  <speed>0.23</speed>
  <fix>3d</fix>
</trkpt>
<trkpt lat="33.8103113" lon="-118.3944671">
  <ele>-31.86</ele>
  <time>2026-09-02T22:08:36Z</time>
  <course>264.39</course>
  <speed>0.223606797749979</speed>
  <fix>3d</fix>
</trkpt>
<trkpt lat="33.810311" lon="-118.3944669">
  <ele>-31.37</ele>
  <time>2026-09-02T22:08:36Z</time>
  <course>271.44</course>
  <speed>0.23</speed>
  <fix>3d</fix>
</trkpt>
<trkpt lat="33.8103113" lon="-118.3944673">
  <ele>-31.733</ele>
  <time>2026-09-02T22:08:36Z</time>
  <course>264.78</course>
  <speed>0.223606797749979</speed>
  <fix>3d</fix>
</trkpt>
<trkpt lat="33.810311" lon="-118.3944669">
  <ele>-31.37</ele>
  <time>2026-09-02T22:08:36Z</time>
  <course>271.44</course>
  <speed>0.23</speed>
  <fix>3d</fix>
</trkpt>
<trkpt lat="33.8103113" lon="-118.3944676">
  <ele>-31.607</ele>
  <time>2026-09-02T22:08:36Z</time>
  <course>265.16</course>
  <speed>0.223606797749979</speed>
  <fix>3d</fix>
</trkpt>
<trkpt lat="33.810311" lon="-118.3944674">
  <ele>-31.13</ele>
  <time>2026-09-02T22:08:36Z</time>
  <course>271.7</course>
  <speed>0.23</speed>
  <fix>3d</fix>
</trkpt>
<trkpt lat="33.8103113" lon="-118.3944678">
  <ele>-31.48</ele>
  <time>2026-09-02T22:08:36Z</time>
  <course>265.53</course>
  <speed>0.223606797749979</speed>
  <fix>3d</fix>
</trkpt>
<trkpt lat="33.810311" lon="-118.3944674">
  <ele>-31.13</ele>
  <time>2026-09-02T22:08:36Z</time>
  <course>271.7</course>
  <speed>0.23</speed>
  <fix>3d</fix>
</trkpt>
<trkpt lat="33.8103113" lon="-118.3944681">
  <ele>-31.353</ele>
  <time>2026-09-02T22:08:36Z</time>
  <course>265.9</course>
  <speed>0.223606797749979</speed>
  <fix>3d</fix>
</trkpt>
<trkpt lat="33.810311" lon="-118.3944679">
  <ele>-30.88</ele>
  <time>2026-09-02T22:08:36Z</time>
  <course>271.98</course>
  <speed>0.23</speed>
  <fix>3d</fix>
</trkpt>
<trkpt lat="33.8103113" lon="-118.3944683">
  <ele>-31.226</ele>
  <time>2026-09-02T22:08:36Z</time>
  <course>266.25</course>
  <speed>0.223606797749979</speed>
  <fix>3d</fix>
</trkpt>
<trkpt lat="33.810311" lon="-118.3944679">
  <ele>-30.88</ele>
  <time>2026-09-02T22:08:36Z</time>
  <course>271.98</course>
  <speed>0.23</speed>
  <fix>3d</fix>
</trkpt>
<trkpt lat="33.8103113" lon="-118.3944686">
  <ele>-31.098</ele>
  <time>2026-09-02T22:08:36Z</time>
  <course>266.6</course>
  <speed>0.223606797749979</speed>
  <fix>3d</fix>
</trkpt>
<trkpt lat="33.810311" lon="-118.3944684">
  <ele>-30.64</ele>
  <time>2026-09-02T22:08:36Z</time>
  <course>272.27</course>
  <speed>0.23</speed>
  <fix>3d</fix>
</trkpt>
<trkpt lat="33.8103113" lon="-118.3944689">
  <ele>-30.969</ele>
  <time>2026-09-02T22:08:36Z</time>
  <course>266.95</course>
  <speed>0.223606797749979</speed>
  <fix>3d</fix>
</trkpt>
<trkpt lat="33.810311" lon="-118.3944684">
  <ele>-30.64</ele>
  <time>2026-09-02T22:08:36Z</time>
  <course>272.27</course>
  <speed>0.23</speed>
  <fix>3d</fix>
</trkpt>
<trkpt lat="33.8103114" lon="-118.3944691">
  <ele>-30.84</ele>
  <time>2026-09-02T22:08:36Z</time>
  <course>267.29</course>
  <speed>0.223606797749979</speed>
  <fix>3d</fix>
</trkpt>
<trkpt lat="33.810311" lon="-118.3944689">
  <ele>-30.39</ele>
  <time>2026-09-02T22:08:36Z</time>
  <course>272.57</course>
  <speed>0.23</speed>
  <fix>3d</fix>
</trkpt>
<trkpt lat="33.8103114" lon="-118.3944694">
  <ele>-30.713</ele>
  <time>2026-09-02T22:08:36Z</time>
  <course>267.64</course>
  <speed>0.223606797749979</speed>
  <fix>3d</fix>
</trkpt>
<trkpt lat="33.810311" lon="-118.3944689">
  <ele>-30.39</ele>
  <time>2026-09-02T22:08:36Z</time>
  <course>272.57</course>
  <speed>0.23</speed>
  <fix>3d</fix>
</trkpt>
<trkpt lat="33.8103114" lon="-118.3944696">
  <ele>-30.586</ele>
  <time>2026-09-02T22:08:36Z</time>
  <course>267.98</course>
  <speed>0.223606797749979</speed>
  <fix>3d</fix>
</trkpt>
<trkpt lat="33.810311" lon="-118.3944694">
  <ele>-30.15</ele>
  <time>2026-09-02T22:08:36Z</time>
  <course>272.9</course>
  <speed>0.24</speed>
  <fix>3d</fix>
</trkpt>
<trkpt lat="33.8103114" lon="-118.3944699">
  <ele>-30.462</ele>
  <time>2026-09-02T22:08:36Z</time>
  <course>268.32</course>
  <speed>0.223606797749979</speed>
  <fix>3d</fix>
</trkpt>
<trkpt lat="33.810311" lon="-118.3944694">
  <ele>-30.15</ele>
  <time>2026-09-02T22:08:36Z</time>
  <course>272.9</course>
  <speed>0.24</speed>
  <fix>3d</fix>
</trkpt>
<trkpt lat="33.8103114" lon="-118.3944701">
  <ele>-30.341</ele>
  <time>2026-09-02T22:08:36Z</time>
  <course>268.65</course>
  <speed>0.223606797749979</speed>
  <fix>3d</fix>
</trkpt>
<trkpt lat="33.810311" lon="-118.39447">
  <ele>-29.9</ele>
  <time>2026-09-02T22:08:36Z</time>
  <course>273.21</course>
  <speed>0.24</speed>
  <fix>3d</fix>
</trkpt>
<trkpt lat="33.8103114" lon="-118.3944704">
  <ele>-30.22</ele>
  <time>2026-09-02T22:08:36Z</time>
  <course>268.97</course>
  <speed>0.223606797749979</speed>
  <fix>3d</fix>
</trkpt>
<trkpt lat="33.810311" lon="-118.39447">
  <ele>-29.9</ele>
  <time>2026-09-02T22:08:36Z</time>
  <course>273.21</course>
  <speed>0.24</speed>
  <fix>3d</fix>
</trkpt>
<trkpt lat="33.8103114" lon="-118.3944706">
  <ele>-30.098</ele>
  <time>2026-09-02T22:08:36Z</time>
  <course>269.28</course>
  <speed>0.223606797749979</speed>
  <fix>3d</fix>
</trkpt>
<trkpt lat="33.810311" lon="-118.3944705">
  <ele>-29.66</ele>
  <time>2026-09-02T22:08:36Z</time>
  <course>273.54</course>
  <speed>0.23</speed>
  <fix>3d</fix>
</trkpt>
<trkpt lat="33.8103114" lon="-118.3944709">
  <ele>-29.975</ele>
  <time>2026-09-02T22:08:36Z</time>
  <course>269.59</course>
  <speed>0.21377558326431947</speed>
  <fix>3d</fix>
</trkpt>
<trkpt lat="33.810311" lon="-118.3944705">
  <ele>-29.66</ele>
  <time>2026-09-02T22:08:36Z</time>
  <course>273.54</course>
  <speed>0.23</speed>
  <fix>3d</fix>
</trkpt>
<trkpt lat="33.8103114" lon="-118.3944711">
  <ele>-29.853</ele>
  <time>2026-09-02T22:08:36Z</time>
  <course>269.91</course>
  <speed>0.21377558326431947</speed>
  <fix>3d</fix>
</trkpt>
<trkpt lat="33.810311" lon="-118.394471">
  <ele>-29.41</ele>
  <time>2026-09-02T22:08:36Z</time>
  <course>273.9</course>
  <speed>0.23</speed>
  <fix>3d</fix>
</trkpt>
<trkpt lat="33.8103114" lon="-118.3944714">
  <ele>-29.731</ele>
  <time>2026-09-02T22:08:36Z</time>
  <course>270.22</course>
  <speed>0.21377558326431947</speed>
  <fix>3d</fix>
</trkpt>
<trkpt lat="33.810311" lon="-118.394471">
  <ele>-29.41</ele>
  <time>2026-09-02T22:08:36Z</time>
  <course>273.9</course>
  <speed>0.23</speed>
  <fix>3d</fix>
</trkpt>
<trkpt lat="33.8103114" lon="-118.3944716">
  <ele>-29.609</ele>
  <time>2026-09-02T22:08:36Z</time>
  <course>270.54</course>
  <speed>0.21377558326431947</speed>
  <fix>3d</fix>
</trkpt>
<trkpt lat="33.8103111" lon="-118.3944715">
  <ele>-29.17</ele>
  <time>2026-09-02T22:08:36Z</time>
  <course>274.31</course>
  <speed>0.23</speed>
  <fix>3d</fix>
</trkpt>
<trkpt lat="33.8103114" lon="-118.3944719">
  <ele>-29.486</ele>
  <time>2026-09-02T22:08:36Z</time>
  <course>270.84</course>
  <speed>0.21377558326431947</speed>
  <fix>3d</fix>
</trkpt>
<trkpt lat="33.8103111" lon="-118.3944715">
  <ele>-29.17</ele>
  <time>2026-09-02T22:08:36Z</time>
  <course>274.31</course>
  <speed>0.23</speed>
  <fix>3d</fix>
</trkpt>
<trkpt lat="33.8103114" lon="-118.3944721">
  <ele>-29.362</ele>
  <time>2026-09-02T22:08:36Z</time>
  <course>271.11</course>
  <speed>0.21377558326431947</speed>
  <fix>3d</fix>
</trkpt>
<trkpt lat="33.8103111" lon="-118.394472">
  <ele>-28.92</ele>
  <time>2026-09-02T22:08:36Z</time>
  <course>274.58</course>
  <speed>0.23</speed>
  <fix>3d</fix>
</trkpt>
<trkpt lat="33.8103114" lon="-118.3944724">
  <ele>-29.239</ele>
  <time>2026-09-02T22:08:36Z</time>
  <course>271.27</course>
  <speed>0.21377558326431947</speed>
  <fix>3d</fix>
</trkpt>
<trkpt lat="33.8103111" lon="-118.394472">
  <ele>-28.92</ele>
  <time>2026-09-02T22:08:36Z</time>
  <course>274.58</course>
  <speed>0.23</speed>
  <fix>3d</fix>
</trkpt>
<trkpt lat="33.8103114" lon="-118.3944726">
  <ele>-29.117</ele>
  <time>2026-09-02T22:08:36Z</time>
  <course>271.39</course>
  <speed>0.2039607805437114</speed>
  <fix>3d</fix>
</trkpt>
<trkpt lat="33.8103111" lon="-118.3944725">
  <ele>-28.68</ele>
  <time>2026-09-02T22:08:36Z</time>
  <course>274.61</course>
  <speed>0.23</speed>
  <fix>3d</fix>
</trkpt>
<trkpt lat="33.8103114" lon="-118.3944729">
  <ele>-28.994</ele>
  <time>2026-09-02T22:08:36Z</time>
  <course>271.46</course>
  <speed>0.2039607805437114</speed>
  <fix>3d</fix>
</trkpt>
<trkpt lat="33.8103111" lon="-118.3944725">
  <ele>-28.68</ele>
  <time>2026-09-02T22:08:36Z</time>
  <course>274.61</course>
  <speed>0.23</speed>
  <fix>3d</fix>
</trkpt>
<trkpt lat="33.8103114" lon="-118.3944731">
  <ele>-28.871</ele>
  <time>2026-09-02T22:08:36Z</time>
  <course>271.53</course>
  <speed>0.2039607805437114</speed>
  <fix>3d</fix>
</trkpt>
<trkpt lat="33.8103112" lon="-118.394473">
  <ele>-28.43</ele>
  <time>2026-09-02T22:08:36Z</time>
  <course>274.67</course>
  <speed>0.22</speed>
  <fix>3d</fix>
</trkpt>
<trkpt lat="33.8103114" lon="-118.3944733">
  <ele>-28.748</ele>
  <time>2026-09-02T22:08:36Z</time>
  <course>271.6</course>
  <speed>0.194164878389476</speed>
  <fix>3d</fix>
</trkpt>
<trkpt lat="33.8103112" lon="-118.394473">
  <ele>-28.43</ele>
  <time>2026-09-02T22:08:36Z</time>
  <course>274.67</course>
  <speed>0.22</speed>
  <fix>3d</fix>
</trkpt>
<trkpt lat="33.8103115" lon="-118.3944736">
  <ele>-28.624</ele>
  <time>2026-09-02T22:08:36Z</time>
  <course>271.65</course>
  <speed>0.194164878389476</speed>
  <fix>3d</fix>
</trkpt>
<trkpt lat="33.8103112" lon="-118.3944735">
  <ele>-28.18</ele>
  <time>2026-09-02T22:08:36Z</time>
  <course>274.74</course>
  <speed>0.22</speed>
  <fix>3d</fix>
</trkpt>
<trkpt lat="33.8103115" lon="-118.3944738">
  <ele>-28.501</ele>
  <time>2026-09-02T22:08:36Z</time>
  <course>271.63</course>
  <speed>0.194164878389476</speed>
  <fix>3d</fix>
</trkpt>
<trkpt lat="33.8103112" lon="-118.3944735">
  <ele>-28.18</ele>
  <time>2026-09-02T22:08:36Z</time>
  <course>274.74</course>
  <speed>0.22</speed>
  <fix>3d</fix>
</trkpt>
<trkpt lat="33.8103115" lon="-118.394474">
  <ele>-28.377</ele>
  <time>2026-09-02T22:08:36Z</time>
  <course>271.57</course>
  <speed>0.18439088914585774</speed>
  <fix>3d</fix>
</trkpt>
<trkpt lat="33.8103112" lon="-118.394474">
  <ele>-27.94</ele>
  <time>2026-09-02T22:08:36Z</time>
  <course>274.65</course>
  <speed>0.21</speed>
  <fix>3d</fix>
</trkpt>
<trkpt lat="33.8103115" lon="-118.3944743">
  <ele>-28.253</ele>
  <time>2026-09-02T22:08:36Z</time>
  <course>271.48</course>
  <speed>0.18439088914585774</speed>
  <fix>3d</fix>
</trkpt>
<trkpt lat="33.8103112" lon="-118.394474">
  <ele>-27.94</ele>
  <time>2026-09-02T22:08:36Z</time>
  <course>274.65</course>
  <speed>0.21</speed>
  <fix>3d</fix>
</trkpt>
<trkpt lat="33.8103115" lon="-118.3944745">
  <ele>-28.128</ele>
  <time>2026-09-02T22:08:36Z</time>
  <course>271.4</course>
  <speed>0.18439088914585774</speed>
  <fix>3d</fix>
</trkpt>
<trkpt lat="33.8103112" lon="-118.3944745">
  <ele>-27.7</ele>
  <time>2026-09-02T22:08:36Z</time>
  <course>274.58</course>
  <speed>0.2</speed>
  <fix>3d</fix>
</trkpt>
<trkpt lat="33.8103115" lon="-118.3944747">
  <ele>-28.003</ele>
  <time>2026-09-02T22:08:36Z</time>
  <course>271.35</course>
  <speed>0.17464249196572978</speed>
  <fix>3d</fix>
</trkpt>
<trkpt lat="33.8103112" lon="-118.3944745">
  <ele>-27.7</ele>
  <time>2026-09-02T22:08:36Z</time>
  <course>274.58</course>
  <speed>0.2</speed>
  <fix>3d</fix>
</trkpt>
<trkpt lat="33.8103115" lon="-118.3944749">
  <ele>-27.879</ele>
  <time>2026-09-02T22:08:36Z</time>
  <course>271.34</course>
  <speed>0.17464249196572978</speed>
  <fix>3d</fix>
</trkpt>
<trkpt lat="33.8103112" lon="-118.3944749">
  <ele>-27.45</ele>
  <time>2026-09-02T22:08:36Z</time>
  <course>274.79</course>
  <speed>0.2</speed>
  <fix>3d</fix>
</trkpt>
<trkpt lat="33.8103115" lon="-118.3944751">
  <ele>-27.754</ele>
  <time>2026-09-02T22:08:36Z</time>
  <course>271.38</course>
  <speed>0.1649242250247064</speed>
  <fix>3d</fix>
</trkpt>
<trkpt lat="33.8103112" lon="-118.3944749">
  <ele>-27.45</ele>
  <time>2026-09-02T22:08:36Z</time>
  <course>274.79</course>
  <speed>0.2</speed>
  <fix>3d</fix>
</trkpt>
<trkpt lat="33.8103115" lon="-118.3944753">
  <ele>-27.629</ele>
  <time>2026-09-02T22:08:36Z</time>
  <course>271.47</course>
  <speed>0.1649242250247064</speed>
  <fix>3d</fix>
</trkpt>
<trkpt lat="33.8103113" lon="-118.3944753">
  <ele>-27.21</ele>
  <time>2026-09-02T22:08:36Z</time>
  <course>275.29</course>
  <speed>0.19</speed>
  <fix>3d</fix>
</trkpt>
<trkpt lat="33.8103115" lon="-118.3944755">
  <ele>-27.502</ele>
  <time>2026-09-02T22:08:36Z</time>
  <course>271.57</course>
  <speed>0.1649242250247064</speed>
  <fix>3d</fix>
</trkpt>
<trkpt lat="33.8103113" lon="-118.3944753">
  <ele>-27.21</ele>
  <time>2026-09-02T22:08:36Z</time>
  <course>275.29</course>
  <speed>0.19</speed>
  <fix>3d</fix>
</trkpt>
<trkpt lat="33.8103115" lon="-118.3944757">
  <ele>-27.375</ele>
  <time>2026-09-02T22:08:36Z</time>
  <course>271.63</course>
  <speed>0.15297058540778355</speed>
  <fix>3d</fix>
</trkpt>
<trkpt lat="33.8103113" lon="-118.3944758">
  <ele>-26.96</ele>
  <time>2026-09-02T22:08:36Z</time>
  <course>275.66</course>
  <speed>0.18</speed>
  <fix>3d</fix>
</trkpt>
<trkpt lat="33.8103115" lon="-118.3944759">
  <ele>-27.248</ele>
  <time>2026-09-02T22:08:36Z</time>
  <course>271.6</course>
  <speed>0.15297058540778355</speed>
  <fix>3d</fix>
</trkpt>
<trkpt lat="33.8103113" lon="-118.3944758">
  <ele>-26.96</ele>
  <time>2026-09-02T22:08:36Z</time>
  <course>275.66</course>
  <speed>0.18</speed>
  <fix>3d</fix>
</trkpt>
<trkpt lat="33.8103115" lon="-118.3944761">
  <ele>-27.122</ele>
  <time>2026-09-02T22:08:36Z</time>
  <course>271.51</course>
  <speed>0.15297058540778355</speed>
  <fix>3d</fix>
</trkpt>
<trkpt lat="33.8103113" lon="-118.3944761">
  <ele>-26.72</ele>
  <time>2026-09-02T22:08:36Z</time>
  <course>275.51</course>
  <speed>0.17</speed>
  <fix>3d</fix>
</trkpt>
<trkpt lat="33.8103115" lon="-118.3944763">
  <ele>-26.996</ele>
  <time>2026-09-02T22:08:36Z</time>
  <course>271.34</course>
  <speed>0.14317821063276354</speed>
  <fix>3d</fix>
</trkpt>
<trkpt lat="33.8103113" lon="-118.3944761">
  <ele>-26.72</ele>
  <time>2026-09-02T22:08:36Z</time>
  <course>275.51</course>
  <speed>0.17</speed>
  <fix>3d</fix>
</trkpt>
<trkpt lat="33.8103116" lon="-118.3944765">
  <ele>-26.869</ele>
  <time>2026-09-02T22:08:36Z</time>
  <course>271.17</course>
  <speed>0.14317821063276354</speed>
  <fix>3d</fix>
</trkpt>
<trkpt lat="33.8103113" lon="-118.3944765">
  <ele>-26.47</ele>
  <time>2026-09-02T22:08:36Z</time>
  <course>275.26</course>
  <speed>0.17</speed>
  <fix>3d</fix>
</trkpt>
<trkpt lat="33.8103116" lon="-118.3944766">
  <ele>-26.741</ele>
  <time>2026-09-02T22:08:36Z</time>
  <course>271.02</course>
  <speed>0.13341664064126335</speed>
  <fix>3d</fix>
</trkpt>
<trkpt lat="33.8103113" lon="-118.3944765">
  <ele>-26.47</ele>
  <time>2026-09-02T22:08:36Z</time>
  <course>275.26</course>
  <speed>0.17</speed>
  <fix>3d</fix>
</trkpt>
<trkpt lat="33.8103116" lon="-118.3944768">
  <ele>-26.614</ele>
  <time>2026-09-02T22:08:36Z</time>
  <course>270.94</course>
  <speed>0.13341664064126335</speed>
  <fix>3d</fix>
</trkpt>
<trkpt lat="33.8103114" lon="-118.3944769">
  <ele>-26.23</ele>
  <time>2026-09-02T22:08:36Z</time>
  <course>275.45</course>
  <speed>0.16</speed>
  <fix>3d</fix>
</trkpt>
<trkpt lat="33.8103116" lon="-118.394477">
  <ele>-26.488</ele>
  <time>2026-09-02T22:08:36Z</time>
  <course>270.83</course>
  <speed>0.13341664064126335</speed>
  <fix>3d</fix>
</trkpt>
<trkpt lat="33.8103114" lon="-118.3944769">
  <ele>-26.23</ele>
  <time>2026-09-02T22:08:36Z</time>
  <course>275.45</course>
  <speed>0.16</speed>
  <fix>3d</fix>
</trkpt>
<trkpt lat="33.8103116" lon="-118.3944772">
  <ele>-26.369</ele>
  <time>2026-09-02T22:08:36Z</time>
  <course>270.45</course>
  <speed>0.13601470508735444</speed>
  <fix>3d</fix>
</trkpt>
<trkpt lat="33.8103115" lon="-118.3944772">
  <ele>-25.98</ele>
  <time>2026-09-02T22:08:36Z</time>
  <course>276.63</course>
  <speed>0.15</speed>
  <fix>3d</fix>
</trkpt>
<trkpt lat="33.8103116" lon="-118.3944773">
  <ele>-26.258</ele>
  <time>2026-09-02T22:08:36Z</time>
  <course>269.77</course>
  <speed>0.13601470508735444</speed>
  <fix>3d</fix>
</trkpt>
<trkpt lat="33.8103115" lon="-118.3944772">
  <ele>-25.98</ele>
  <time>2026-09-02T22:08:36Z</time>
  <course>276.63</course>
  <speed>0.15</speed>
  <fix>3d</fix>
</trkpt>
<trkpt lat="33.8103116" lon="-118.3944775">
  <ele>-26.155</ele>
  <time>2026-09-02T22:08:36Z</time>
  <course>268.84</course>
  <speed>0.13601470508735444</speed>
  <fix>3d</fix>
</trkpt>
<trkpt lat="33.8103115" lon="-118.3944775">
  <ele>-25.75</ele>
  <time>2026-09-02T22:08:36Z</time>
  <course>278.29</course>
  <speed>0.15</speed>
  <fix>3d</fix>
</trkpt>
<trkpt lat="33.8103117" lon="-118.3944777">
  <ele>-26.057</ele>
  <time>2026-09-02T22:08:36Z</time>
  <course>267.74</course>
  <speed>0.13601470508735444</speed>
  <fix>3d</fix>
</trkpt>
<trkpt lat="33.8103115" lon="-118.3944775">
  <ele>-25.75</ele>
  <time>2026-09-02T22:08:36Z</time>
  <course>278.29</course>
  <speed>0.15</speed>
  <fix>3d</fix>
</trkpt>
<trkpt lat="33.8103117" lon="-118.3944778">
  <ele>-25.964</ele>
  <time>2026-09-02T22:08:36Z</time>
  <course>266.51</course>
  <speed>0.13601470508735444</speed>
  <fix>3d</fix>
</trkpt>
<trkpt lat="33.8103115" lon="-118.3944779">
  <ele>-25.54</ele>
  <time>2026-09-02T22:08:36Z</time>
  <course>278.71</course>
  <speed>0.15</speed>
  <fix>3d</fix>
</trkpt>
<trkpt lat="33.8103117" lon="-118.394478">
  <ele>-25.877</ele>
  <time>2026-09-02T22:08:36Z</time>
  <course>265.16</course>
  <speed>0.14560219778561037</speed>
  <fix>3d</fix>
</trkpt>
<trkpt lat="33.8103115" lon="-118.3944779">
  <ele>-25.54</ele>
  <time>2026-09-02T22:08:36Z</time>
  <course>278.71</course>
  <speed>0.15</speed>
  <fix>3d</fix>
</trkpt>
<trkpt lat="33.8103117" lon="-118.3944782">
  <ele>-25.794</ele>
  <time>2026-09-02T22:08:36Z</time>
  <course>263.56</course>
  <speed>0.13341664064126335</speed>
  <fix>3d</fix>
</trkpt>
<trkpt lat="33.8103116" lon="-118.3944782">
  <ele>-25.36</ele>
  <time>2026-09-02T22:08:36Z</time>
  <course>277.63</course>
  <speed>0.16</speed>
  <fix>3d</fix>
</trkpt>
<trkpt lat="33.8103117" lon="-118.3944784">
  <ele>-25.717</ele>
  <time>2026-09-02T22:08:36Z</time>
  <course>262.15</course>
  <speed>0.13341664064126335</speed>
  <fix>3d</fix>
</trkpt>
<trkpt lat="33.8103116" lon="-118.3944782">
  <ele>-25.36</ele>
  <time>2026-09-02T22:08:36Z</time>
  <course>277.63</course>
  <speed>0.16</speed>
  <fix>3d</fix>
</trkpt>
<trkpt lat="33.8103117" lon="-118.3944785">
  <ele>-25.644</ele>
  <time>2026-09-02T22:08:36Z</time>
  <course>261.68</course>
  <speed>0.12369316876852982</speed>
  <fix>3d</fix>
</trkpt>
<trkpt lat="33.8103116" lon="-118.3944786">
  <ele>-25.2</ele>
  <time>2026-09-02T22:08:36Z</time>
  <course>276.52</course>
  <speed>0.15</speed>
  <fix>3d</fix>
</trkpt>
<trkpt lat="33.8103118" lon="-118.3944787">
  <ele>-25.575</ele>
  <time>2026-09-02T22:08:36Z</time>
  <course>262.78</course>
  <speed>0.12369316876852982</speed>
  <fix>3d</fix>
</trkpt>
<trkpt lat="33.8103116" lon="-118.3944786">
  <ele>-25.2</ele>
  <time>2026-09-02T22:08:36Z</time>
  <course>276.52</course>
  <speed>0.15</speed>
  <fix>3d</fix>
</trkpt>
<trkpt lat="33.8103118" lon="-118.3944788">
  <ele>-25.51</ele>
  <time>2026-09-02T22:08:36Z</time>
  <course>264.28</course>
  <speed>0.1118033988749895</speed>
  <fix>3d</fix>
</trkpt>
<trkpt lat="33.8103117" lon="-118.3944789">
  <ele>-25.06</ele>
  <time>2026-09-02T22:08:36Z</time>
  <course>275.12</course>
  <speed>0.14</speed>
  <fix>3d</fix>
</trkpt>
<trkpt lat="33.8103118" lon="-118.394479">
  <ele>-25.448</ele>
  <time>2026-09-02T22:08:36Z</time>
  <course>265.54</course>
  <speed>0.1019803902718557</speed>
  <fix>3d</fix>
</trkpt>
<trkpt lat="33.8103117" lon="-118.3944789">
  <ele>-25.06</ele>
  <time>2026-09-02T22:08:36Z</time>
  <course>275.12</course>
  <speed>0.14</speed>
  <fix>3d</fix>
</trkpt>
<trkpt lat="33.8103118" lon="-118.3944791">
  <ele>-25.391</ele>
  <time>2026-09-02T22:08:36Z</time>
  <course>266.48</course>
  <speed>0.09219544457292887</speed>
  <fix>3d</fix>
</trkpt>
<trkpt lat="33.8103117" lon="-118.3944792">
  <ele>-24.92</ele>
  <time>2026-09-02T22:08:36Z</time>
  <course>272.95</course>
  <speed>0.13</speed>
  <fix>3d</fix>
</trkpt>
<trkpt lat="33.8103118" lon="-118.3944792">
  <ele>-25.337</ele>
  <time>2026-09-02T22:08:36Z</time>
  <course>267.23</course>
  <speed>0.0824621125123532</speed>
  <fix>3d</fix>
</trkpt>
<trkpt lat="33.8103117" lon="-118.3944792">
  <ele>-24.92</ele>
  <time>2026-09-02T22:08:36Z</time>
  <course>272.95</course>
  <speed>0.13</speed>
  <fix>3d</fix>
</trkpt>
<trkpt lat="33.8103118" lon="-118.3944793">
  <ele>-25.287</ele>
  <time>2026-09-02T22:08:36Z</time>
  <course>267.88</course>
  <speed>0.07280109889280519</speed>
  <fix>3d</fix>
</trkpt>
<trkpt lat="33.8103117" lon="-118.3944795">
  <ele>-24.8</ele>
  <time>2026-09-02T22:08:36Z</time>
  <course>271.05</course>
  <speed>0.11</speed>
  <fix>3d</fix>
</trkpt>
<trkpt lat="33.8103118" lon="-118.3944794">
  <ele>-25.24</ele>
  <time>2026-09-02T22:08:36Z</time>
  <course>268.47</course>
  <speed>0.07071067811865475</speed>
  <fix>3d</fix>
</trkpt>
<trkpt lat="33.8103117" lon="-118.3944795">
  <ele>-24.8</ele>
  <time>2026-09-02T22:08:36Z</time>
  <course>271.05</course>
  <speed>0.11</speed>
  <fix>3d</fix>
</trkpt>
<trkpt lat="33.8103118" lon="-118.3944795">
  <ele>-25.198</ele>
  <time>2026-09-02T22:08:36Z</time>
  <course>269.04</course>
  <speed>0.06082762530298219</speed>
  <fix>3d</fix>
</trkpt>
<trkpt lat="33.8103117" lon="-118.3944797">
  <ele>-24.7</ele>
  <time>2026-09-02T22:08:36Z</time>
  <course>269.2</course>
  <speed>0.1</speed>
  <fix>3d</fix>
</trkpt>
<trkpt lat="33.8103118" lon="-118.3944796">
  <ele>-25.16</ele>
  <time>2026-09-02T22:08:36Z</time>
  <course>269.6</course>
  <speed>0.06082762530298219</speed>
  <fix>3d</fix>
</trkpt>
<trkpt lat="33.8103117" lon="-118.3944797">
  <ele>-24.7</ele>
  <time>2026-09-02T22:08:36Z</time>
  <course>269.2</course>
  <speed>0.1</speed>
  <fix>3d</fix>
</trkpt>
<trkpt lat="33.8103118" lon="-118.3944797">
  <ele>-25.126</ele>
  <time>2026-09-02T22:08:36Z</time>
  <course>270.16</course>
  <speed>0.05099019513592785</speed>
  <fix>3d</fix>
</trkpt>
<trkpt lat="33.8103117" lon="-118.3944799">
  <ele>-24.61</ele>
  <time>2026-09-02T22:08:36Z</time>
  <course>266.59</course>
  <speed>0.08</speed>
  <fix>3d</fix>
</trkpt>
<trkpt lat="33.8103118" lon="-118.3944798">
  <ele>-25.097</ele>
  <time>2026-09-02T22:08:36Z</time>
  <course>270.66</course>
  <speed>0.0412310562561766</speed>
  <fix>3d</fix>
</trkpt>
<trkpt lat="33.8103117" lon="-118.3944799">
  <ele>-24.61</ele>
  <time>2026-09-02T22:08:36Z</time>
  <course>266.59</course>
  <speed>0.08</speed>
  <fix>3d</fix>
</trkpt>
<trkpt lat="33.8103118" lon="-118.3944799">
  <ele>-25.074</ele>
  <time>2026-09-02T22:08:36Z</time>
  <course>270.9</course>
  <speed>0.0316227766016838</speed>
  <fix>3d</fix>
</trkpt>
<trkpt lat="33.8103117" lon="-118.3944801">
  <ele>-24.54</ele>
  <time>2026-09-02T22:08:36Z</time>
  <course>263.76</course>
  <speed>0.07</speed>
  <fix>3d</fix>
</trkpt>
<trkpt lat="33.8103118" lon="-118.3944799">
  <ele>-25.053</ele>
  <time>2026-09-02T22:08:36Z</time>
  <course>270.37</course>
  <speed>0.01414213562373095</speed>
  <fix>3d</fix>
</trkpt>
<trkpt lat="33.8103117" lon="-118.3944801">
  <ele>-24.54</ele>
  <time>2026-09-02T22:08:36Z</time>
  <course>263.76</course>
  <speed>0.07</speed>
  <fix>3d</fix>
</trkpt>
<trkpt lat="33.8103118" lon="-118.39448">
  <ele>-25.037</ele>
  <time>2026-09-02T22:08:36Z</time>
  <course>268.34</course>
  <speed>0.01</speed>
  <fix>3d</fix>
</trkpt>
<trkpt lat="33.8103117" lon="-118.3944802">
  <ele>-24.48</ele>
  <time>2026-09-02T22:08:36Z</time>
  <course>259.79</course>
  <speed>0.04</speed>
  <fix>3d</fix>
</trkpt>
<trkpt lat="33.8103118" lon="-118.39448">
  <ele>-25.025</ele>
  <time>2026-09-02T22:08:36Z</time>
  <course>265.31</course>
  <speed>0.022360679774997897</speed>
  <fix>3d</fix>
</trkpt>
<trkpt lat="33.8103117" lon="-118.3944802">
  <ele>-24.48</ele>
  <time>2026-09-02T22:08:36Z</time>
  <course>259.79</course>
  <speed>0.04</speed>
  <fix>3d</fix>
</trkpt>
<trkpt lat="33.8103118" lon="-118.39448">
  <ele>-25.017</ele>
  <time>2026-09-02T22:08:36Z</time>
  <course>261.81</course>
  <speed>0.022360679774997897</speed>
  <fix>3d</fix>
</trkpt>
<trkpt lat="33.8103117" lon="-118.3944803">
  <ele>-24.44</ele>
  <time>2026-09-02T22:08:36Z</time>
  <course>239.94</course>
  <speed>0.01</speed>
  <fix>3d</fix>
</trkpt>
<trkpt lat="33.8103118" lon="-118.39448">
  <ele>-25.012</ele>
  <time>2026-09-02T22:08:36Z</time>
  <course>258.02</course>
  <speed>0.0316227766016838</speed>
  <fix>3d</fix>
</trkpt>
<trkpt lat="33.8103117" lon="-118.3944803">
  <ele>-24.44</ele>
  <time>2026-09-02T22:08:36Z</time>
  <course>239.94</course>
  <speed>0.01</speed>
  <fix>3d</fix>
</trkpt>
<trkpt lat="33.8103118" lon="-118.39448">
  <ele>-25.01</ele>
  <time>2026-09-02T22:08:36Z</time>
  <course>254.01</course>
  <speed>0.0316227766016838</speed>
  <fix>3d</fix>
</trkpt>
<trkpt lat="33.8103117" lon="-118.3944803">
  <ele>-24.42</ele>
  <time>2026-09-02T22:08:36Z</time>
  <course>135.78</course>
  <speed>0.01</speed>
  <fix>3d</fix>
</trkpt>
<trkpt lat="33.8103118" lon="-118.39448">
  <ele>-25.01</ele>
  <time>2026-09-02T22:08:36Z</time>
  <course>249.87</course>
  <speed>0.0316227766016838</speed>
  <fix>3d</fix>
</trkpt>
<trkpt lat="33.8103117" lon="-118.3944803">
  <ele>-24.42</ele>
  <time>2026-09-02T22:08:36Z</time>
  <course>135.78</course>
  <speed>0.01</speed>
  <fix>3d</fix>
</trkpt>
<trkpt lat="33.8103118" lon="-118.39448">
  <ele>-25.01</ele>
  <time>2026-09-02T22:08:36Z</time>
  <course>246.15</course>
  <speed>0.0316227766016838</speed>
  <fix>3d</fix>
</trkpt>
<trkpt lat="33.8103117" lon="-118.3944803">
  <ele>-24.4</ele>
  <time>2026-09-02T22:08:36Z</time>
  <course>118.23</course>
  <speed>0.01</speed>
  <fix>3d</fix>
</trkpt>
<trkpt lat="33.8103118" lon="-118.39448">
  <ele>-25.011</ele>
  <time>2026-09-02T22:08:36Z</time>
  <course>243.02</course>
  <speed>0.0316227766016838</speed>
  <fix>3d</fix>
</trkpt>
<trkpt lat="33.8103117" lon="-118.3944803">
  <ele>-24.4</ele>
  <time>2026-09-02T22:08:36Z</time>
  <course>118.23</course>
  <speed>0.01</speed>
  <fix>3d</fix>
</trkpt>
<trkpt lat="33.8103118" lon="-118.39448">
  <ele>-25.011</ele>
  <time>2026-09-02T22:08:36Z</time>
  <course>240.35</course>
  <speed>0.0316227766016838</speed>
  <fix>3d</fix>
</trkpt>
<trkpt lat="33.8103117" lon="-118.3944803">
  <ele>-24.4</ele>
  <time>2026-09-02T22:08:36Z</time>
  <course>119.23</course>
  <speed>0.01</speed>
  <fix>3d</fix>
</trkpt>
<trkpt lat="33.8103118" lon="-118.39448">
  <ele>-25.011</ele>
  <time>2026-09-02T22:08:36Z</time>
  <course>238.02</course>
  <speed>0.0316227766016838</speed>
  <fix>3d</fix>
</trkpt>
<trkpt lat="33.8103117" lon="-118.3944803">
  <ele>-24.4</ele>
  <time>2026-09-02T22:08:36Z</time>
  <course>119.23</course>
  <speed>0.01</speed>
  <fix>3d</fix>
</trkpt>
<trkpt lat="33.8103118" lon="-118.39448">
  <ele>-25.011</ele>
  <time>2026-09-02T22:08:36Z</time>
  <course>236.1</course>
  <speed>0.0412310562561766</speed>
  <fix>3d</fix>
</trkpt>
<trkpt lat="33.8103117" lon="-118.3944803">
  <ele>-24.4</ele>
  <time>2026-09-02T22:08:36Z</time>
  <course>123.09</course>
  <speed>0.01</speed>
  <fix>3d</fix>
</trkpt>
<trkpt lat="33.8103118" lon="-118.39448">
  <ele>-25.011</ele>
  <time>2026-09-02T22:08:36Z</time>
  <course>235.0</course>
  <speed>0.0412310562561766</speed>
  <fix>3d</fix>
</trkpt>
<trkpt lat="33.8103117" lon="-118.3944803">
  <ele>-24.4</ele>
  <time>2026-09-02T22:08:36Z</time>
  <course>123.09</course>
  <speed>0.01</speed>
  <fix>3d</fix>
</trkpt>
<trkpt lat="33.8103118" lon="-118.3944799">
  <ele>-25.011</ele>
  <time>2026-09-02T22:08:36Z</time>
  <course>235.19</course>
  <speed>0.05099019513592785</speed>
  <fix>3d</fix>
</trkpt>
<trkpt lat="33.8103117" lon="-118.3944803">
  <ele>-24.4</ele>
  <time>2026-09-02T22:08:36Z</time>
  <course>126.56</course>
  <speed>0.02</speed>
  <fix>3d</fix>
</trkpt>
<trkpt lat="33.8103118" lon="-118.3944799">
  <ele>-25.011</ele>
  <time>2026-09-02T22:08:36Z</time>
  <course>237.27</course>
  <speed>0.07810249675906654</speed>
  <fix>3d</fix>
</trkpt>
<trkpt lat="33.8103117" lon="-118.3944803">
  <ele>-24.4</ele>
  <time>2026-09-02T22:08:36Z</time>
  <course>126.56</course>
  <speed>0.02</speed>
  <fix>3d</fix>
</trkpt>
<trkpt lat="33.8103117" lon="-118.3944799">
  <ele>-25.012</ele>
  <time>2026-09-02T22:08:36Z</time>
  <course>240.25</course>
  <speed>0.1392838827718412</speed>
  <fix>3d</fix>
</trkpt>
<trkpt lat="33.8103116" lon="-118.3944802">
  <ele>-24.4</ele>
  <time>2026-09-02T22:08:36Z</time>
  <course>153.79</course>
  <speed>0.07</speed>
  <fix>3d</fix>
</trkpt>
<trkpt lat="33.8103115" lon="-118.3944799">
  <ele>-25.012</ele>
  <time>2026-09-02T22:08:36Z</time>
  <course>243.63</course>
  <speed>0.196468827043885</speed>
  <fix>3d</fix>
</trkpt>
<trkpt lat="33.8103116" lon="-118.3944802">
  <ele>-24.4</ele>
  <time>2026-09-02T22:08:36Z</time>
  <course>153.79</course>
  <speed>0.07</speed>
  <fix>3d</fix>
</trkpt>
<trkpt lat="33.8103113" lon="-118.3944798">
  <ele>-25.012</ele>
  <time>2026-09-02T22:08:36Z</time>
  <course>247.27</course>
  <speed>0.26476404589747454</speed>
  <fix>3d</fix>
</trkpt>
<trkpt lat="33.8103114" lon="-118.3944801">
  <ele>-24.4</ele>
  <time>2026-09-02T22:08:36Z</time>
  <course>167.81</course>
  <speed>0.17</speed>
  <fix>3d</fix>
</trkpt>
<trkpt lat="33.810311" lon="-118.3944798">
  <ele>-25.012</ele>
  <time>2026-09-02T22:08:36Z</time>
  <course>250.85</course>
  <speed>0.3125699921617557</speed>
  <fix>3d</fix>
</trkpt>
<trkpt lat="33.8103114" lon="-118.3944801">
  <ele>-24.4</ele>
  <time>2026-09-02T22:08:36Z</time>
  <course>167.81</course>
  <speed>0.17</speed>
  <fix>3d</fix>
</trkpt>
<trkpt lat="33.8103107" lon="-118.3944798">
  <ele>-25.011</ele>
  <time>2026-09-02T22:08:36Z</time>
  <course>254.25</course>
  <speed>0.35128336140500593</speed>
  <fix>3d</fix>
</trkpt>
<trkpt lat="33.8103109" lon="-118.39448">
  <ele>-24.4</ele>
  <time>2026-09-02T22:08:36Z</time>
  <course>173.69</course>
  <speed>0.29</speed>
  <fix>3d</fix>
</trkpt>
<trkpt lat="33.8103104" lon="-118.3944798">
  <ele>-25.011</ele>
  <time>2026-09-02T22:08:37Z</time>
  <course>257.37</course>
  <speed>0.3905124837953327</speed>
  <fix>3d</fix>
</trkpt>
<trkpt lat="33.8103109" lon="-118.39448">
  <ele>-24.4</ele>
  <time>2026-09-02T22:08:37Z</time>
  <course>173.69</course>
  <speed>0.29</speed>
  <fix>3d</fix>
</trkpt>
<trkpt lat="33.81031" lon="-118.3944798">
  <ele>-25.011</ele>
  <time>2026-09-02T22:08:37Z</time>
  <course>260.17</course>
  <speed>0.44045431091090476</speed>
  <fix>3d</fix>
</trkpt>
<trkpt lat="33.8103103" lon="-118.39448">
  <ele>-24.4</ele>
  <time>2026-09-02T22:08:37Z</time>
  <course>177.05</course>
  <speed>0.39</speed>
  <fix>3d</fix>
</trkpt>
<trkpt lat="33.8103095" lon="-118.3944798">
  <ele>-25.012</ele>
  <time>2026-09-02T22:08:37Z</time>
  <course>262.61</course>
  <speed>0.49040799340956914</speed>
  <fix>3d</fix>
</trkpt>
<trkpt lat="33.8103103" lon="-118.39448">
  <ele>-24.4</ele>
  <time>2026-09-02T22:08:37Z</time>
  <course>177.05</course>
  <speed>0.39</speed>
  <fix>3d</fix>
</trkpt>
<trkpt lat="33.810309" lon="-118.3944798">
  <ele>-25.012</ele>
  <time>2026-09-02T22:08:37Z</time>
  <course>264.7</course>
  <speed>0.5403702434442519</speed>
  <fix>3d</fix>
</trkpt>
<trkpt lat="33.8103095" lon="-118.39448">
  <ele>-24.4</ele>
  <time>2026-09-02T22:08:37Z</time>
  <course>178.51</course>
  <speed>0.48</speed>
  <fix>3d</fix>
</trkpt>
<trkpt lat="33.8103085" lon="-118.3944798">
  <ele>-25.012</ele>
  <time>2026-09-02T22:08:37Z</time>
  <course>266.37</course>
  <speed>0.5907622195096772</speed>
  <fix>3d</fix>
</trkpt>
<trkpt lat="33.8103095" lon="-118.39448">
  <ele>-24.4</ele>
  <time>2026-09-02T22:08:37Z</time>
  <course>178.51</course>
  <speed>0.48</speed>
  <fix>3d</fix>
</trkpt>
<trkpt lat="33.810308" lon="-118.3944797">
  <ele>-25.012</ele>
  <time>2026-09-02T22:08:37Z</time>
  <course>267.57</course>
  <speed>0.6307138812488592</speed>
  <fix>3d</fix>
</trkpt>
<trkpt lat="33.8103086" lon="-118.3944799">
  <ele>-24.4</ele>
  <time>2026-09-02T22:08:37Z</time>
  <course>178.5</course>
  <speed>0.58</speed>
  <fix>3d</fix>
</trkpt>
<trkpt lat="33.8103073" lon="-118.3944797">
  <ele>-25.011</ele>
  <time>2026-09-02T22:08:37Z</time>
  <course>268.31</course>
  <speed>0.6706713054842887</speed>
  <fix>3d</fix>
</trkpt>
<trkpt lat="33.8103086" lon="-118.3944799">
  <ele>-24.4</ele>
  <time>2026-09-02T22:08:37Z</time>
  <course>178.5</course>
  <speed>0.58</speed>
  <fix>3d</fix>
</trkpt>
<trkpt lat="33.8103067" lon="-118.3944797">
  <ele>-25.01</ele>
  <time>2026-09-02T22:08:37Z</time>
  <course>268.71</course>
  <speed>0.7006425622241343</speed>
  <fix>3d</fix>
</trkpt>
<trkpt lat="33.8103074" lon="-118.3944799">
  <ele>-24.4</ele>
  <time>2026-09-02T22:08:37Z</time>
  <course>178.38</course>
  <speed>0.67</speed>
  <fix>3d</fix>
</trkpt>
<trkpt lat="33.810306" lon="-118.3944797">
  <ele>-25.009</ele>
  <time>2026-09-02T22:08:37Z</time>
  <course>268.94</course>
  <speed>0.7302739212103907</speed>
  <fix>3d</fix>
</trkpt>
<trkpt lat="33.8103074" lon="-118.3944799">
  <ele>-24.4</ele>
  <time>2026-09-02T22:08:37Z</time>
  <course>178.38</course>
  <speed>0.67</speed>
  <fix>3d</fix>
</trkpt>
<trkpt lat="33.8103054" lon="-118.3944797">
  <ele>-25.007</ele>
  <time>2026-09-02T22:08:37Z</time>
  <course>269.09</course>
  <speed>0.7602631123499285</speed>
  <fix>3d</fix>
</trkpt>
<trkpt lat="33.8103061" lon="-118.3944799">
  <ele>-24.4</ele>
  <time>2026-09-02T22:08:37Z</time>
  <course>178.66</course>
  <speed>0.75</speed>
  <fix>3d</fix>
</trkpt>
<trkpt lat="33.8103046" lon="-118.3944797">
  <ele>-25.007</ele>
  <time>2026-09-02T22:08:37Z</time>
  <course>269.21</course>
  <speed>0.7902531240052139</speed>
  <fix>3d</fix>
</trkpt>
<trkpt lat="33.8103061" lon="-118.3944799">
  <ele>-24.4</ele>
  <time>2026-09-02T22:08:37Z</time>
  <course>178.66</course>
  <speed>0.75</speed>
  <fix>3d</fix>
</trkpt>
<trkpt lat="33.8103039" lon="-118.3944797">
  <ele>-25.007</ele>
  <time>2026-09-02T22:08:37Z</time>
  <course>269.33</course>
  <speed>0.8100617260431454</speed>
  <fix>3d</fix>
</trkpt>
<trkpt lat="33.8103047" lon="-118.3944798">
  <ele>-24.4</ele>
  <time>2026-09-02T22:08:37Z</time>
  <course>179.18</course>
  <speed>0.81</speed>
  <fix>3d</fix>
</trkpt>
<trkpt lat="33.8103031" lon="-118.3944797">
  <ele>-25.009</ele>
  <time>2026-09-02T22:08:37Z</time>
  <course>269.45</course>
  <speed>0.8300602387778854</speed>
  <fix>3d</fix>
</trkpt>
<trkpt lat="33.8103047" lon="-118.3944798">
  <ele>-24.4</ele>
  <time>2026-09-02T22:08:37Z</time>
  <course>179.18</course>
  <speed>0.81</speed>
  <fix>3d</fix>
</trkpt>
<trkpt lat="33.8103024" lon="-118.3944797">
  <ele>-25.011</ele>
  <time>2026-09-02T22:08:37Z</time>
  <course>269.57</course>
  <speed>0.85</speed>
  <fix>3d</fix>
</trkpt>
<trkpt lat="33.8103032" lon="-118.3944798">
  <ele>-24.4</ele>
  <time>2026-09-02T22:08:37Z</time>
  <course>179.76</course>
  <speed>0.85</speed>
  <fix>3d</fix>
</trkpt>
<trkpt lat="33.8103016" lon="-118.3944797">
  <ele>-25.013</ele>
  <time>2026-09-02T22:08:37Z</time>
  <course>269.69</course>
  <speed>0.87</speed>
  <fix>3d</fix>
</trkpt>
<trkpt lat="33.8103032" lon="-118.3944798">
  <ele>-24.4</ele>
  <time>2026-09-02T22:08:37Z</time>
  <course>179.76</course>
  <speed>0.85</speed>
  <fix>3d</fix>
</trkpt>
<trkpt lat="33.8103008" lon="-118.3944797">
  <ele>-25.013</ele>
  <time>2026-09-02T22:08:37Z</time>
  <course>269.81</course>
  <speed>0.88</speed>
  <fix>3d</fix>
</trkpt>
<trkpt lat="33.8103016" lon="-118.3944798">
  <ele>-24.4</ele>
  <time>2026-09-02T22:08:37Z</time>
  <course>180.31</course>
  <speed>0.89</speed>
  <fix>3d</fix>
</trkpt>
<trkpt lat="33.8102999" lon="-118.3944797">
  <ele>-25.012</ele>
  <time>2026-09-02T22:08:37Z</time>
  <course>269.94</course>
  <speed>0.89</speed>
  <fix>3d</fix>
</trkpt>
<trkpt lat="33.8103016" lon="-118.3944798">
  <ele>-24.4</ele>
  <time>2026-09-02T22:08:37Z</time>
  <course>180.31</course>
  <speed>0.89</speed>
  <fix>3d</fix>
</trkpt>
<trkpt lat="33.8102991" lon="-118.3944797">
  <ele>-25.011</ele>
  <time>2026-09-02T22:08:37Z</time>
  <course>270.06</course>
  <speed>0.9</speed>
  <fix>3d</fix>
</trkpt>
<trkpt lat="33.8103" lon="-118.3944798">
  <ele>-24.4</ele>
  <time>2026-09-02T22:08:37Z</time>
  <course>180.8</course>
  <speed>0.92</speed>
  <fix>3d</fix>
</trkpt>
<trkpt lat="33.8102983" lon="-118.3944797">
  <ele>-25.011</ele>
  <time>2026-09-02T22:08:37Z</time>
  <course>270.18</course>
  <speed>0.91</speed>
  <fix>3d</fix>
</trkpt>
<trkpt lat="33.8103" lon="-118.3944798">
  <ele>-24.4</ele>
  <time>2026-09-02T22:08:37Z</time>
  <course>180.8</course>
  <speed>0.92</speed>
  <fix>3d</fix>
</trkpt>
<trkpt lat="33.8102974" lon="-118.3944797">
  <ele>-25.01</ele>
  <time>2026-09-02T22:08:37Z</time>
  <course>270.31</course>
  <speed>0.9200543462209175</speed>
  <fix>3d</fix>
</trkpt>
<trkpt lat="33.8102983" lon="-118.3944798">
  <ele>-24.4</ele>
  <time>2026-09-02T22:08:37Z</time>
  <course>181.23</course>
  <speed>0.95</speed>
  <fix>3d</fix>
</trkpt>
<trkpt lat="33.8102966" lon="-118.3944797">
  <ele>-25.009</ele>
  <time>2026-09-02T22:08:37Z</time>
  <course>270.43</course>
  <speed>0.9300537618869137</speed>
  <fix>3d</fix>
</trkpt>
<trkpt lat="33.8102983" lon="-118.3944798">
  <ele>-24.4</ele>
  <time>2026-09-02T22:08:37Z</time>
  <course>181.23</course>
  <speed>0.95</speed>
  <fix>3d</fix>
</trkpt>
<trkpt lat="33.8102957" lon="-118.3944798">
  <ele>-25.008</ele>
  <time>2026-09-02T22:08:37Z</time>
  <course>270.56</course>
  <speed>0.9400531899844816</speed>
  <fix>3d</fix>
</trkpt>
<trkpt lat="33.8102966" lon="-118.3944798">
  <ele>-24.4</ele>
  <time>2026-09-02T22:08:37Z</time>
  <course>181.63</course>
  <speed>0.97</speed>
  <fix>3d</fix>
</trkpt>
<trkpt lat="33.8102948" lon="-118.3944798">
  <ele>-25.008</ele>
  <time>2026-09-02T22:08:37Z</time>
  <course>270.68</course>
  <speed>0.9402127418834527</speed>
  <fix>3d</fix>
</trkpt>
<trkpt lat="33.8102966" lon="-118.3944798">
  <ele>-24.4</ele>
  <time>2026-09-02T22:08:37Z</time>
  <course>181.63</course>
  <speed>0.97</speed>
  <fix>3d</fix>
</trkpt>
<trkpt lat="33.8102939" lon="-118.3944798">
  <ele>-25.009</ele>
  <time>2026-09-02T22:08:37Z</time>
  <course>270.81</course>
  <speed>0.9502105029939419</speed>
  <fix>3d</fix>
</trkpt>
<trkpt lat="33.8102948" lon="-118.3944799">
  <ele>-24.4</ele>
  <time>2026-09-02T22:08:37Z</time>
  <course>182.04</course>
  <speed>0.98</speed>
  <fix>3d</fix>
</trkpt>
<trkpt lat="33.810293" lon="-118.3944799">
  <ele>-25.012</ele>
  <time>2026-09-02T22:08:37Z</time>
  <course>270.94</course>
  <speed>0.9502105029939419</speed>
  <fix>3d</fix>
</trkpt>
<trkpt lat="33.8102948" lon="-118.3944799">
  <ele>-24.4</ele>
  <time>2026-09-02T22:08:37Z</time>
  <course>182.04</course>
  <speed>0.98</speed>
  <fix>3d</fix>
</trkpt>
<trkpt lat="33.8102922" lon="-118.3944799">
  <ele>-25.014</ele>
  <time>2026-09-02T22:08:37Z</time>
  <course>271.06</course>
  <speed>0.9602083107326242</speed>
  <fix>3d</fix>
</trkpt>
<trkpt lat="33.810293" lon="-118.3944799">
  <ele>-24.41</ele>
  <time>2026-09-02T22:08:37Z</time>
  <course>182.42</course>
  <speed>0.99</speed>
  <fix>3d</fix>
</trkpt>
<trkpt lat="33.8102913" lon="-118.3944799">
  <ele>-25.015</ele>
  <time>2026-09-02T22:08:37Z</time>
  <course>271.19</course>
  <speed>0.9604686356149272</speed>
  <fix>3d</fix>
</trkpt>
<trkpt lat="33.810293" lon="-118.3944799">
  <ele>-24.41</ele>
  <time>2026-09-02T22:08:37Z</time>
  <course>182.42</course>
  <speed>0.99</speed>
  <fix>3d</fix>
</trkpt>
<trkpt lat="33.8102904" lon="-118.39448">
  <ele>-25.016</ele>
  <time>2026-09-02T22:08:37Z</time>
  <course>271.31</course>
  <speed>0.9604686356149272</speed>
  <fix>3d</fix>
</trkpt>
<trkpt lat="33.8102913" lon="-118.39448">
  <ele>-24.41</ele>
  <time>2026-09-02T22:08:37Z</time>
  <course>182.76</course>
  <speed>1.0</speed>
  <fix>3d</fix>
</trkpt>
<trkpt lat="33.8102895" lon="-118.39448">
  <ele>-25.017</ele>
  <time>2026-09-02T22:08:37Z</time>
  <course>271.43</course>
  <speed>0.9604686356149272</speed>
  <fix>3d</fix>
</trkpt>
<trkpt lat="33.8102913" lon="-118.39448">
  <ele>-24.41</ele>
  <time>2026-09-02T22:08:37Z</time>
  <course>182.76</course>
  <speed>1.0</speed>
  <fix>3d</fix>
</trkpt>
<trkpt lat="33.8102886" lon="-118.3944801">
  <ele>-25.016</ele>
  <time>2026-09-02T22:08:37Z</time>
  <course>271.56</course>
  <speed>0.9704638066409278</speed>
  <fix>3d</fix>
</trkpt>
<trkpt lat="33.8102894" lon="-118.3944802">
  <ele>-24.41</ele>
  <time>2026-09-02T22:08:37Z</time>
  <course>183.11</course>
  <speed>1.01</speed>
  <fix>3d</fix>
</trkpt>
<trkpt lat="33.8102876" lon="-118.3944801">
  <ele>-25.016</ele>
  <time>2026-09-02T22:08:37Z</time>
  <course>271.69</course>
  <speed>0.9704638066409278</speed>
  <fix>3d</fix>
</trkpt>
<trkpt lat="33.8102894" lon="-118.3944802">
  <ele>-24.41</ele>
  <time>2026-09-02T22:08:37Z</time>
  <course>183.11</course>
  <speed>1.01</speed>
  <fix>3d</fix>
</trkpt>
<trkpt lat="33.8102867" lon="-118.3944802">
  <ele>-25.017</ele>
  <time>2026-09-02T22:08:37Z</time>
  <course>271.82</course>
  <speed>0.97082439194738</speed>
  <fix>3d</fix>
</trkpt>
<trkpt lat="33.8102875" lon="-118.3944803">
  <ele>-24.41</ele>
  <time>2026-09-02T22:08:37Z</time>
  <course>183.42</course>
  <speed>1.01</speed>
  <fix>3d</fix>
</trkpt>
<trkpt lat="33.8102858" lon="-118.3944802">
  <ele>-25.017</ele>
  <time>2026-09-02T22:08:37Z</time>
  <course>271.94</course>
  <speed>0.97082439194738</speed>
  <fix>3d</fix>
</trkpt>
<trkpt lat="33.8102875" lon="-118.3944803">
  <ele>-24.41</ele>
  <time>2026-09-02T22:08:37Z</time>
  <course>183.42</course>
  <speed>1.01</speed>
  <fix>3d</fix>
</trkpt>
<trkpt lat="33.8102849" lon="-118.3944803">
  <ele>-25.017</ele>
  <time>2026-09-02T22:08:37Z</time>
  <course>272.06</course>
  <speed>0.97082439194738</speed>
  <fix>3d</fix>
</trkpt>
<trkpt lat="33.8102858" lon="-118.3944804">
  <ele>-24.41</ele>
  <time>2026-09-02T22:08:37Z</time>
  <course>183.65</course>
  <speed>1.01</speed>
  <fix>3d</fix>
</trkpt>
<trkpt lat="33.810284" lon="-118.3944804">
  <ele>-25.016</ele>
  <time>2026-09-02T22:08:37Z</time>
  <course>272.19</course>
  <speed>0.97082439194738</speed>
  <fix>3d</fix>
</trkpt>
<trkpt lat="33.8102858" lon="-118.3944804">
  <ele>-24.41</ele>
  <time>2026-09-02T22:08:37Z</time>
  <course>183.65</course>
  <speed>1.01</speed>
  <fix>3d</fix>
</trkpt>
<trkpt lat="33.8102831" lon="-118.3944804">
  <ele>-25.014</ele>
  <time>2026-09-02T22:08:37Z</time>
  <course>272.32</course>
  <speed>0.97082439194738</speed>
  <fix>3d</fix>
</trkpt>
<trkpt lat="33.8102839" lon="-118.3944806">
  <ele>-24.41</ele>
  <time>2026-09-02T22:08:37Z</time>
  <course>183.85</course>
  <speed>1.01</speed>
  <fix>3d</fix>
</trkpt>
<trkpt lat="33.8102822" lon="-118.3944805">
  <ele>-25.011</ele>
  <time>2026-09-02T22:08:37Z</time>
  <course>272.44</course>
  <speed>0.97082439194738</speed>
  <fix>3d</fix>
</trkpt>
<trkpt lat="33.8102839" lon="-118.3944806">
  <ele>-24.41</ele>
  <time>2026-09-02T22:08:37Z</time>
  <course>183.85</course>
  <speed>1.01</speed>
  <fix>3d</fix>
</trkpt>
<trkpt lat="33.8102813" lon="-118.3944806">
  <ele>-25.01</ele>
  <time>2026-09-02T22:08:37Z</time>
  <course>272.57</course>
  <speed>0.97082439194738</speed>
  <fix>3d</fix>
</trkpt>
<trkpt lat="33.8102822" lon="-118.3944807">
  <ele>-24.4</ele>
  <time>2026-09-02T22:08:37Z</time>
  <course>184.05</course>
  <speed>1.01</speed>
  <fix>3d</fix>
</trkpt>
<trkpt lat="33.8102804" lon="-118.3944807">
  <ele>-25.008</ele>
  <time>2026-09-02T22:08:37Z</time>
  <course>272.69</course>
  <speed>0.97082439194738</speed>
  <fix>3d</fix>
</trkpt>
<trkpt lat="33.8102822" lon="-118.3944807">
  <ele>-24.4</ele>
  <time>2026-09-02T22:08:37Z</time>
  <course>184.05</course>
  <speed>1.01</speed>
  <fix>3d</fix>
</trkpt>
<trkpt lat="33.8102795" lon="-118.3944807">
  <ele>-25.008</ele>
  <time>2026-09-02T22:08:37Z</time>
  <course>272.82</course>
  <speed>0.9712878049270464</speed>
  <fix>3d</fix>
</trkpt>
<trkpt lat="33.8102803" lon="-118.3944809">
  <ele>-24.4</ele>
  <time>2026-09-02T22:08:37Z</time>
  <course>184.22</course>
  <speed>1.01</speed>
  <fix>3d</fix>
</trkpt>
<trkpt lat="33.8102785" lon="-118.3944808">
  <ele>-25.008</ele>
  <time>2026-09-02T22:08:37Z</time>
  <course>272.94</course>
  <speed>0.9712878049270464</speed>
  <fix>3d</fix>
</trkpt>
<trkpt lat="33.8102803" lon="-118.3944809">
  <ele>-24.4</ele>
  <time>2026-09-02T22:08:37Z</time>
  <course>184.22</course>
  <speed>1.01</speed>
  <fix>3d</fix>
</trkpt>
<trkpt lat="33.8102776" lon="-118.3944809">
  <ele>-25.009</ele>
  <time>2026-09-02T22:08:37Z</time>
  <course>273.07</course>
  <speed>0.9712878049270464</speed>
  <fix>3d</fix>
</trkpt>
<trkpt lat="33.8102784" lon="-118.3944811">
  <ele>-24.4</ele>
  <time>2026-09-02T22:08:37Z</time>
  <course>184.4</course>
  <speed>1.01</speed>
  <fix>3d</fix>
</trkpt>
<trkpt lat="33.8102767" lon="-118.394481">
  <ele>-25.01</ele>
  <time>2026-09-02T22:08:37Z</time>
  <course>273.19</course>
  <speed>0.9712878049270464</speed>
  <fix>3d</fix>
</trkpt>
<trkpt lat="33.8102784" lon="-118.3944811">
  <ele>-24.4</ele>
  <time>2026-09-02T22:08:37Z</time>
  <course>184.4</course>
  <speed>1.01</speed>
  <fix>3d</fix>
</trkpt>
<trkpt lat="33.8102758" lon="-118.3944811">
  <ele>-25.012</ele>
  <time>2026-09-02T22:08:37Z</time>
  <course>273.32</course>
  <speed>0.9712878049270464</speed>
  <fix>3d</fix>
</trkpt>
<trkpt lat="33.8102767" lon="-118.3944812">
  <ele>-24.4</ele>
  <time>2026-09-02T22:08:37Z</time>
  <course>184.56</course>
  <speed>1.01</speed>
  <fix>3d</fix>
</trkpt>
<trkpt lat="33.8102749" lon="-118.3944811">
  <ele>-25.014</ele>
  <time>2026-09-02T22:08:37Z</time>
  <course>273.44</course>
  <speed>0.9712878049270464</speed>
  <fix>3d</fix>
</trkpt>
<trkpt lat="33.8102767" lon="-118.3944812">
  <ele>-24.4</ele>
  <time>2026-09-02T22:08:37Z</time>
  <course>184.56</course>
  <speed>1.01</speed>
  <fix>3d</fix>
</trkpt>
<trkpt lat="33.810274" lon="-118.3944812">
  <ele>-25.016</ele>
  <time>2026-09-02T22:08:37Z</time>
  <course>273.57</course>
  <speed>0.9712878049270464</speed>
  <fix>3d</fix>
</trkpt>
<trkpt lat="33.8102748" lon="-118.3944814">
  <ele>-24.41</ele>
  <time>2026-09-02T22:08:37Z</time>
  <course>184.72</course>
  <speed>1.01</speed>
  <fix>3d</fix>
</trkpt>
<trkpt lat="33.8102731" lon="-118.3944813">
  <ele>-25.017</ele>
  <time>2026-09-02T22:08:37Z</time>
  <course>273.69</course>
  <speed>0.9712878049270464</speed>
  <fix>3d</fix>
</trkpt>
<trkpt lat="33.8102748" lon="-118.3944814">
  <ele>-24.41</ele>
  <time>2026-09-02T22:08:37Z</time>
  <course>184.72</course>
  <speed>1.01</speed>
  <fix>3d</fix>
</trkpt>
<trkpt lat="33.8102722" lon="-118.3944814">
  <ele>-25.016</ele>
  <time>2026-09-02T22:08:37Z</time>
  <course>273.81</course>
  <speed>0.9718538984847466</speed>
  <fix>3d</fix>
</trkpt>
<trkpt lat="33.8102731" lon="-118.3944816">
  <ele>-24.41</ele>
  <time>2026-09-02T22:08:37Z</time>
  <course>184.93</course>
  <speed>1.01</speed>
  <fix>3d</fix>
</trkpt>
<trkpt lat="33.8102713" lon="-118.3944815">
  <ele>-25.015</ele>
  <time>2026-09-02T22:08:37Z</time>
  <course>273.94</course>
  <speed>0.9718538984847466</speed>
  <fix>3d</fix>
</trkpt>
<trkpt lat="33.8102731" lon="-118.3944816">
  <ele>-24.41</ele>
  <time>2026-09-02T22:08:37Z</time>
  <course>184.93</course>
  <speed>1.01</speed>
  <fix>3d</fix>
</trkpt>
<trkpt lat="33.8102703" lon="-118.3944816">
  <ele>-25.013</ele>
  <time>2026-09-02T22:08:37Z</time>
  <course>274.06</course>
  <speed>0.9718538984847466</speed>
  <fix>3d</fix>
</trkpt>
<trkpt lat="33.8102712" lon="-118.3944818">
  <ele>-24.41</ele>
  <time>2026-09-02T22:08:37Z</time>
  <course>185.13</course>
  <speed>1.01</speed>
  <fix>3d</fix>
</trkpt>
<trkpt lat="33.8102694" lon="-118.3944817">
  <ele>-25.012</ele>
  <time>2026-09-02T22:08:37Z</time>
  <course>274.19</course>
  <speed>0.9718538984847466</speed>
  <fix>3d</fix>
</trkpt>
<trkpt lat="33.8102712" lon="-118.3944818">
  <ele>-24.41</ele>
  <time>2026-09-02T22:08:37Z</time>
  <course>185.13</course>
  <speed>1.01</speed>
  <fix>3d</fix>
</trkpt>
<trkpt lat="33.8102685" lon="-118.3944818">
  <ele>-25.011</ele>
  <time>2026-09-02T22:08:37Z</time>
  <course>274.31</course>
  <speed>0.9718538984847466</speed>
  <fix>3d</fix>
</trkpt>
<trkpt lat="33.8102694" lon="-118.3944819">
  <ele>-24.41</ele>
  <time>2026-09-02T22:08:37Z</time>
  <course>185.3</course>
  <speed>1.01</speed>
  <fix>3d</fix>
</trkpt>
<trkpt lat="33.8102676" lon="-118.3944819">
  <ele>-25.012</ele>
  <time>2026-09-02T22:08:37Z</time>
  <course>274.44</course>
  <speed>0.9718538984847466</speed>
  <fix>3d</fix>
</trkpt>
<trkpt lat="33.8102694" lon="-118.3944819">
  <ele>-24.41</ele>
  <time>2026-09-02T22:08:37Z</time>
  <course>185.3</course>
  <speed>1.01</speed>
  <fix>3d</fix>
</trkpt>
<trkpt lat="33.8102667" lon="-118.394482">
  <ele>-25.014</ele>
  <time>2026-09-02T22:08:37Z</time>
  <course>274.56</course>
  <speed>0.9725224933131367</speed>
  <fix>3d</fix>
</trkpt>
<trkpt lat="33.8102676" lon="-118.3944822">
  <ele>-24.41</ele>
  <time>2026-09-02T22:08:37Z</time>
  <course>185.53</course>
  <speed>1.01</speed>
  <fix>3d</fix>
</trkpt>
<trkpt lat="33.8102658" lon="-118.3944821">
  <ele>-25.016</ele>
  <time>2026-09-02T22:08:37Z</time>
  <course>274.68</course>
  <speed>0.9725224933131367</speed>
  <fix>3d</fix>
</trkpt>
<trkpt lat="33.8102676" lon="-118.3944822">
  <ele>-24.41</ele>
  <time>2026-09-02T22:08:37Z</time>
  <course>185.53</course>
  <speed>1.01</speed>
  <fix>3d</fix>
</trkpt>
<trkpt lat="33.8102649" lon="-118.3944822">
  <ele>-25.018</ele>
  <time>2026-09-02T22:08:37Z</time>
  <course>274.81</course>
  <speed>0.9725224933131367</speed>
  <fix>3d</fix>
</trkpt>
<trkpt lat="33.8102657" lon="-118.3944823">
  <ele>-24.41</ele>
  <time>2026-09-02T22:08:37Z</time>
  <course>185.77</course>
  <speed>1.0</speed>
  <fix>3d</fix>
</trkpt>
<trkpt lat="33.810264" lon="-118.3944823">
  <ele>-25.019</ele>
  <time>2026-09-02T22:08:37Z</time>
  <course>274.93</course>
  <speed>0.9725224933131367</speed>
  <fix>3d</fix>
</trkpt>
<trkpt lat="33.8102657" lon="-118.3944823">
  <ele>-24.41</ele>
  <time>2026-09-02T22:08:37Z</time>
  <course>185.77</course>
  <speed>1.0</speed>
  <fix>3d</fix>
</trkpt>
<trkpt lat="33.8102631" lon="-118.3944824">
  <ele>-25.018</ele>
  <time>2026-09-02T22:08:37Z</time>
  <course>275.05</course>
  <speed>0.9725224933131367</speed>
  <fix>3d</fix>
</trkpt>
<trkpt lat="33.810264" lon="-118.3944826">
  <ele>-24.4</ele>
  <time>2026-09-02T22:08:37Z</time>
  <course>186.03</course>
  <speed>1.0</speed>
  <fix>3d</fix>
</trkpt>
<trkpt lat="33.8102622" lon="-118.3944825">
  <ele>-25.016</ele>
  <time>2026-09-02T22:08:37Z</time>
  <course>275.17</course>
  <speed>0.9732933781753578</speed>
  <fix>3d</fix>
</trkpt>
<trkpt lat="33.810264" lon="-118.3944826">
  <ele>-24.4</ele>
  <time>2026-09-02T22:08:37Z</time>
  <course>186.03</course>
  <speed>1.0</speed>
  <fix>3d</fix>
</trkpt>
<trkpt lat="33.8102613" lon="-118.3944827">
  <ele>-25.013</ele>
  <time>2026-09-02T22:08:37Z</time>
  <course>275.3</course>
  <speed>0.9732933781753578</speed>
  <fix>3d</fix>
</trkpt>
<trkpt lat="33.8102621" lon="-118.3944828">
  <ele>-24.4</ele>
  <time>2026-09-02T22:08:37Z</time>
  <course>186.29</course>
  <speed>1.0</speed>
  <fix>3d</fix>
</trkpt>
<trkpt lat="33.8102604" lon="-118.3944828">
  <ele>-25.011</ele>
  <time>2026-09-02T22:08:37Z</time>
  <course>275.42</course>
  <speed>0.9732933781753578</speed>
  <fix>3d</fix>
</trkpt>
<trkpt lat="33.8102621" lon="-118.3944828">
  <ele>-24.4</ele>
  <time>2026-09-02T22:08:37Z</time>
  <course>186.29</course>
  <speed>1.0</speed>
  <fix>3d</fix>
</trkpt>
<trkpt lat="33.8102595" lon="-118.3944829">
  <ele>-25.009</ele>
  <time>2026-09-02T22:08:37Z</time>
  <course>275.54</course>
  <speed>0.9732933781753578</speed>
  <fix>3d</fix>
</trkpt>
<trkpt lat="33.8102604" lon="-118.3944831">
  <ele>-24.4</ele>
  <time>2026-09-02T22:08:37Z</time>
  <course>186.53</course>
  <speed>1.0</speed>
  <fix>3d</fix>
</trkpt>
<trkpt lat="33.8102585" lon="-118.394483">
  <ele>-25.009</ele>
  <time>2026-09-02T22:08:37Z</time>
  <course>275.67</course>
  <speed>0.9732933781753578</speed>
  <fix>3d</fix>
</trkpt>
<trkpt lat="33.8102604" lon="-118.3944831">
  <ele>-24.4</ele>
  <time>2026-09-02T22:08:37Z</time>
  <course>186.53</course>
  <speed>1.0</speed>
  <fix>3d</fix>
</trkpt>
<trkpt lat="33.8102576" lon="-118.3944831">
  <ele>-25.011</ele>
  <time>2026-09-02T22:08:37Z</time>
  <course>275.79</course>
  <speed>0.9732933781753578</speed>
  <fix>3d</fix>
</trkpt>
<trkpt lat="33.8102586" lon="-118.3944833">
  <ele>-24.4</ele>
  <time>2026-09-02T22:08:37Z</time>
  <course>186.75</course>
  <speed>1.0</speed>
  <fix>3d</fix>
</trkpt>
<trkpt lat="33.8102567" lon="-118.3944833">
  <ele>-25.013</ele>
  <time>2026-09-02T22:08:37Z</time>
  <course>275.91</course>
  <speed>0.9741663102366043</speed>
  <fix>3d</fix>
</trkpt>
<trkpt lat="33.8102586" lon="-118.3944833">
  <ele>-24.4</ele>
  <time>2026-09-02T22:08:37Z</time>
  <course>186.75</course>
  <speed>1.0</speed>
  <fix>3d</fix>
</trkpt>
<trkpt lat="33.8102558" lon="-118.3944834">
  <ele>-25.014</ele>
  <time>2026-09-02T22:08:37Z</time>
  <course>276.04</course>
  <speed>0.9741663102366043</speed>
  <fix>3d</fix>
</trkpt>
<trkpt lat="33.8102568" lon="-118.3944836">
  <ele>-24.4</ele>
  <time>2026-09-02T22:08:37Z</time>
  <course>186.93</course>
  <speed>1.0</speed>
  <fix>3d</fix>
</trkpt>
<trkpt lat="33.8102549" lon="-118.3944835">
  <ele>-25.014</ele>
  <time>2026-09-02T22:08:37Z</time>
  <course>276.16</course>
  <speed>0.9741663102366043</speed>
  <fix>3d</fix>
</trkpt>
<trkpt lat="33.8102568" lon="-118.3944836">
  <ele>-24.4</ele>
  <time>2026-09-02T22:08:37Z</time>
  <course>186.93</course>
  <speed>1.0</speed>
  <fix>3d</fix>
</trkpt>
<trkpt lat="33.810254" lon="-118.3944837">
  <ele>-25.012</ele>
  <time>2026-09-02T22:08:37Z</time>
  <course>276.28</course>
  <speed>0.9741663102366043</speed>
  <fix>3d</fix>
</trkpt>
<trkpt lat="33.810255" lon="-118.3944838">
  <ele>-24.4</ele>
  <time>2026-09-02T22:08:37Z</time>
  <course>187.1</course>
  <speed>1.0</speed>
  <fix>3d</fix>
</trkpt>
<trkpt lat="33.8102531" lon="-118.3944838">
  <ele>-25.01</ele>
  <time>2026-09-02T22:08:37Z</time>
  <course>276.41</course>
  <speed>0.9741663102366043</speed>
  <fix>3d</fix>
</trkpt>
<trkpt lat="33.810255" lon="-118.3944838">
  <ele>-24.4</ele>
  <time>2026-09-02T22:08:37Z</time>
  <course>187.1</course>
  <speed>1.0</speed>
  <fix>3d</fix>
</trkpt>
<trkpt lat="33.8102522" lon="-118.3944839">
  <ele>-25.007</ele>
  <time>2026-09-02T22:08:37Z</time>
  <course>276.53</course>
  <speed>0.9751410154434076</speed>
  <fix>3d</fix>
</trkpt>
<trkpt lat="33.8102533" lon="-118.3944841">
  <ele>-24.4</ele>
  <time>2026-09-02T22:08:37Z</time>
  <course>187.29</course>
  <speed>1.0</speed>
  <fix>3d</fix>
</trkpt>
<trkpt lat="33.8102513" lon="-118.3944841">
  <ele>-25.007</ele>
  <time>2026-09-02T22:08:37Z</time>
  <course>276.65</course>
  <speed>0.9751410154434076</speed>
  <fix>3d</fix>
</trkpt>
<trkpt lat="33.8102533" lon="-118.3944841">
  <ele>-24.4</ele>
  <time>2026-09-02T22:08:37Z</time>
  <course>187.29</course>
  <speed>1.0</speed>
  <fix>3d</fix>
</trkpt>
<trkpt lat="33.8102504" lon="-118.3944842">
  <ele>-25.007</ele>
  <time>2026-09-02T22:08:37Z</time>
  <course>276.77</course>
  <speed>0.9751410154434076</speed>
  <fix>3d</fix>
</trkpt>
<trkpt lat="33.8102514" lon="-118.3944844">
  <ele>-24.4</ele>
  <time>2026-09-02T22:08:37Z</time>
  <course>187.52</course>
  <speed>1.0</speed>
  <fix>3d</fix>
</trkpt>
<trkpt lat="33.8102495" lon="-118.3944844">
  <ele>-25.009</ele>
  <time>2026-09-02T22:08:37Z</time>
  <course>276.89</course>
  <speed>0.9751410154434076</speed>
  <fix>3d</fix>
</trkpt>
<trkpt lat="33.8102514" lon="-118.3944844">
  <ele>-24.4</ele>
  <time>2026-09-02T22:08:37Z</time>
  <course>187.52</course>
  <speed>1.0</speed>
  <fix>3d</fix>
</trkpt>
<trkpt lat="33.8102486" lon="-118.3944845">
  <ele>-25.011</ele>
  <time>2026-09-02T22:08:37Z</time>
  <course>277.01</course>
  <speed>0.9751410154434076</speed>
  <fix>3d</fix>
</trkpt>
<trkpt lat="33.8102497" lon="-118.3944847">
  <ele>-24.4</ele>
  <time>2026-09-02T22:08:37Z</time>
  <course>187.73</course>
  <speed>1.0</speed>
  <fix>3d</fix>
</trkpt>
<trkpt lat="33.8102477" lon="-118.3944847">
  <ele>-25.012</ele>
  <time>2026-09-02T22:08:37Z</time>
  <course>277.13</course>
  <speed>0.9751410154434076</speed>
  <fix>3d</fix>
</trkpt>
<trkpt lat="33.8102497" lon="-118.3944847">
  <ele>-24.4</ele>
  <time>2026-09-02T22:08:37Z</time>
  <course>187.73</course>
  <speed>1.0</speed>
  <fix>3d</fix>
</trkpt>
<trkpt lat="33.8102468" lon="-118.3944848">
  <ele>-25.013</ele>
  <time>2026-09-02T22:08:37Z</time>
  <course>277.26</course>
  <speed>0.9762171889492625</speed>
  <fix>3d</fix>
</trkpt>
<trkpt lat="33.8102478" lon="-118.394485">
  <ele>-24.4</ele>
  <time>2026-09-02T22:08:37Z</time>
  <course>187.91</course>
  <speed>1.0</speed>
  <fix>3d</fix>
</trkpt>
<trkpt lat="33.8102459" lon="-118.394485">
  <ele>-25.014</ele>
  <time>2026-09-02T22:08:37Z</time>
  <course>277.38</course>
  <speed>0.9762171889492625</speed>
  <fix>3d</fix>
</trkpt>
<trkpt lat="33.8102478" lon="-118.394485">
  <ele>-24.4</ele>
  <time>2026-09-02T22:08:37Z</time>
  <course>187.91</course>
  <speed>1.0</speed>
  <fix>3d</fix>
</trkpt>
<trkpt lat="33.810245" lon="-118.3944851">
  <ele>-25.015</ele>
  <time>2026-09-02T22:08:37Z</time>
  <course>277.5</course>
  <speed>0.9762171889492625</speed>
  <fix>3d</fix>
</trkpt>
<trkpt lat="33.8102461" lon="-118.3944853">
  <ele>-24.4</ele>
  <time>2026-09-02T22:08:37Z</time>
  <course>188.09</course>
  <speed>1.0</speed>
  <fix>3d</fix>
</trkpt>
<trkpt lat="33.8102442" lon="-118.3944853">
  <ele>-25.016</ele>
  <time>2026-09-02T22:08:37Z</time>
  <course>277.62</course>
  <speed>0.9762171889492625</speed>
  <fix>3d</fix>
</trkpt>
<trkpt lat="33.8102461" lon="-118.3944853">
  <ele>-24.4</ele>
  <time>2026-09-02T22:08:37Z</time>
  <course>188.09</course>
  <speed>1.0</speed>
  <fix>3d</fix>
</trkpt>
<trkpt lat="33.8102433" lon="-118.3944854">
  <ele>-25.017</ele>
  <time>2026-09-02T22:08:37Z</time>
  <course>277.74</course>
  <speed>0.9762171889492625</speed>
  <fix>3d</fix>
</trkpt>
<trkpt lat="33.8102442" lon="-118.3944856">
  <ele>-24.41</ele>
  <time>2026-09-02T22:08:37Z</time>
  <course>188.28</course>
  <speed>1.0</speed>
  <fix>3d</fix>
</trkpt>
<trkpt lat="33.8102424" lon="-118.3944856">
  <ele>-25.016</ele>
  <time>2026-09-02T22:08:37Z</time>
  <course>277.87</course>
  <speed>0.9762171889492625</speed>
  <fix>3d</fix>
</trkpt>
<trkpt lat="33.8102442" lon="-118.3944856">
  <ele>-24.41</ele>
  <time>2026-09-02T22:08:37Z</time>
  <course>188.28</course>
  <speed>1.0</speed>
  <fix>3d</fix>
</trkpt>
<trkpt lat="33.8102415" lon="-118.3944858">
  <ele>-25.016</ele>
  <time>2026-09-02T22:08:37Z</time>
  <course>277.99</course>
  <speed>0.9773944955850733</speed>
  <fix>3d</fix>
</trkpt>
<trkpt lat="33.8102425" lon="-118.3944859">
  <ele>-24.4</ele>
  <time>2026-09-02T22:08:37Z</time>
  <course>188.47</course>
  <speed>1.0</speed>
  <fix>3d</fix>
</trkpt>
<trkpt lat="33.8102406" lon="-118.3944859">
  <ele>-25.015</ele>
  <time>2026-09-02T22:08:37Z</time>
  <course>278.11</course>
  <speed>0.9773944955850733</speed>
  <fix>3d</fix>
</trkpt>
<trkpt lat="33.8102425" lon="-118.3944859">
  <ele>-24.4</ele>
  <time>2026-09-02T22:08:37Z</time>
  <course>188.47</course>
  <speed>1.0</speed>
  <fix>3d</fix>
</trkpt>
<trkpt lat="33.8102397" lon="-118.3944861">
  <ele>-25.014</ele>
  <time>2026-09-02T22:08:37Z</time>
  <course>278.23</course>
  <speed>0.9773944955850733</speed>
  <fix>3d</fix>
</trkpt>
<trkpt lat="33.8102406" lon="-118.3944863">
  <ele>-24.4</ele>
  <time>2026-09-02T22:08:37Z</time>
  <course>188.68</course>
  <speed>1.0</speed>
  <fix>3d</fix>
</trkpt>
<trkpt lat="33.8102388" lon="-118.3944863">
  <ele>-25.012</ele>
  <time>2026-09-02T22:08:37Z</time>
  <course>278.35</course>
  <speed>0.9773944955850733</speed>
  <fix>3d</fix>
</trkpt>
<trkpt lat="33.8102406" lon="-118.3944863">
  <ele>-24.4</ele>
  <time>2026-09-02T22:08:37Z</time>
  <course>188.68</course>
  <speed>1.0</speed>
  <fix>3d</fix>
</trkpt>
<trkpt lat="33.8102379" lon="-118.3944864">
  <ele>-25.012</ele>
  <time>2026-09-02T22:08:37Z</time>
  <course>278.47</course>
  <speed>0.9773944955850733</speed>
  <fix>3d</fix>
</trkpt>
<trkpt lat="33.8102389" lon="-118.3944866">
  <ele>-24.4</ele>
  <time>2026-09-02T22:08:37Z</time>
  <course>188.9</course>
  <speed>1.0</speed>
  <fix>3d</fix>
</trkpt>
<trkpt lat="33.810237" lon="-118.3944866">
  <ele>-25.012</ele>
  <time>2026-09-02T22:08:37Z</time>
  <course>278.59</course>
  <speed>0.9786725703727472</speed>
  <fix>3d</fix>
</trkpt>
<trkpt lat="33.8102389" lon="-118.3944866">
  <ele>-24.4</ele>
  <time>2026-09-02T22:08:37Z</time>
  <course>188.9</course>
  <speed>1.0</speed>
  <fix>3d</fix>
</trkpt>
<trkpt lat="33.8102361" lon="-118.3944868">
  <ele>-25.012</ele>
  <time>2026-09-02T22:08:37Z</time>
  <course>278.72</course>
  <speed>0.9786725703727472</speed>
  <fix>3d</fix>
</trkpt>
<trkpt lat="33.8102372" lon="-118.3944869">
  <ele>-24.4</ele>
  <time>2026-09-02T22:08:37Z</time>
  <course>189.09</course>
  <speed>1.0</speed>
  <fix>3d</fix>
</trkpt>
<trkpt lat="33.8102352" lon="-118.394487">
  <ele>-25.012</ele>
  <time>2026-09-02T22:08:37Z</time>
  <course>278.83</course>
  <speed>0.9786725703727472</speed>
  <fix>3d</fix>
</trkpt>
<trkpt lat="33.8102372" lon="-118.3944869">
  <ele>-24.4</ele>
  <time>2026-09-02T22:08:37Z</time>
  <course>189.09</course>
  <speed>1.0</speed>
  <fix>3d</fix>
</trkpt>
<trkpt lat="33.8102343" lon="-118.3944872">
  <ele>-25.012</ele>
  <time>2026-09-02T22:08:37Z</time>
  <course>278.95</course>
  <speed>0.9786725703727472</speed>
  <fix>3d</fix>
</trkpt>
<trkpt lat="33.8102353" lon="-118.3944873">
  <ele>-24.4</ele>
  <time>2026-09-02T22:08:37Z</time>
  <course>189.31</course>
  <speed>1.0</speed>
  <fix>3d</fix>
</trkpt>
<trkpt lat="33.8102334" lon="-118.3944873">
  <ele>-25.012</ele>
  <time>2026-09-02T22:08:37Z</time>
  <course>279.08</course>
  <speed>0.9786725703727472</speed>
  <fix>3d</fix>
</trkpt>
<trkpt lat="33.8102353" lon="-118.3944873">
  <ele>-24.4</ele>
  <time>2026-09-02T22:08:37Z</time>
  <course>189.31</course>
  <speed>1.0</speed>
  <fix>3d</fix>
</trkpt>
<trkpt lat="33.8102325" lon="-118.3944875">
  <ele>-25.012</ele>
  <time>2026-09-02T22:08:37Z</time>
  <course>279.2</course>
  <speed>0.9800510190801294</speed>
  <fix>3d</fix>
</trkpt>
<trkpt lat="33.8102336" lon="-118.3944877">
  <ele>-24.4</ele>
  <time>2026-09-02T22:08:37Z</time>
  <course>189.54</course>
  <speed>1.0</speed>
  <fix>3d</fix>
</trkpt>
<trkpt lat="33.8102316" lon="-118.3944877">
  <ele>-25.011</ele>
  <time>2026-09-02T22:08:37Z</time>
  <course>279.32</course>
  <speed>0.9800510190801294</speed>
  <fix>3d</fix>
</trkpt>
<trkpt lat="33.8102336" lon="-118.3944877">
  <ele>-24.4</ele>
  <time>2026-09-02T22:08:37Z</time>
  <course>189.54</course>
  <speed>1.0</speed>
  <fix>3d</fix>
</trkpt>
<trkpt lat="33.8102307" lon="-118.3944879">
  <ele>-25.01</ele>
  <time>2026-09-02T22:08:37Z</time>
  <course>279.44</course>
  <speed>0.9800510190801294</speed>
  <fix>3d</fix>
</trkpt>
<trkpt lat="33.8102317" lon="-118.394488">
  <ele>-24.4</ele>
  <time>2026-09-02T22:08:37Z</time>
  <course>189.74</course>
  <speed>1.0</speed>
  <fix>3d</fix>
</trkpt>
<trkpt lat="33.8102298" lon="-118.3944881">
  <ele>-25.009</ele>
  <time>2026-09-02T22:08:37Z</time>
  <course>279.56</course>
  <speed>0.9800510190801294</speed>
  <fix>3d</fix>
</trkpt>
<trkpt lat="33.8102317" lon="-118.394488">
  <ele>-24.4</ele>
  <time>2026-09-02T22:08:37Z</time>
  <course>189.74</course>
  <speed>1.0</speed>
  <fix>3d</fix>
</trkpt>
<trkpt lat="33.8102289" lon="-118.3944883">
  <ele>-25.008</ele>
  <time>2026-09-02T22:08:37Z</time>
  <course>279.68</course>
  <speed>0.9800510190801294</speed>
  <fix>3d</fix>
</trkpt>
<trkpt lat="33.81023" lon="-118.3944884">
  <ele>-24.4</ele>
  <time>2026-09-02T22:08:37Z</time>
  <course>189.94</course>
  <speed>1.0</speed>
  <fix>3d</fix>
</trkpt>
<trkpt lat="33.810228" lon="-118.3944885">
  <ele>-25.008</ele>
  <time>2026-09-02T22:08:37Z</time>
  <course>279.8</course>
  <speed>0.9815294188153507</speed>
  <fix>3d</fix>
</trkpt>
<trkpt lat="33.81023" lon="-118.3944884">
  <ele>-24.4</ele>
  <time>2026-09-02T22:08:37Z</time>
  <course>189.94</course>
  <speed>1.0</speed>
  <fix>3d</fix>
</trkpt>
<trkpt lat="33.8102271" lon="-118.3944887">
  <ele>-25.01</ele>
  <time>2026-09-02T22:08:37Z</time>
  <course>279.93</course>
  <speed>0.9815294188153507</speed>
  <fix>3d</fix>
</trkpt>
<trkpt lat="33.8102282" lon="-118.3944888">
  <ele>-24.4</ele>
  <time>2026-09-02T22:08:37Z</time>
  <course>190.17</course>
  <speed>1.0</speed>
  <fix>3d</fix>
</trkpt>
<trkpt lat="33.8102263" lon="-118.3944889">
  <ele>-25.012</ele>
  <time>2026-09-02T22:08:37Z</time>
  <course>280.05</course>
  <speed>0.9815294188153507</speed>
  <fix>3d</fix>
</trkpt>
<trkpt lat="33.8102282" lon="-118.3944888">
  <ele>-24.4</ele>
  <time>2026-09-02T22:08:37Z</time>
  <course>190.17</course>
  <speed>1.0</speed>
  <fix>3d</fix>
</trkpt>
<trkpt lat="33.8102254" lon="-118.3944891">
  <ele>-25.013</ele>
  <time>2026-09-02T22:08:37Z</time>
  <course>280.16</course>
  <speed>0.9815294188153507</speed>
  <fix>3d</fix>
</trkpt>
<trkpt lat="33.8102265" lon="-118.3944892">
  <ele>-24.4</ele>
  <time>2026-09-02T22:08:37Z</time>
  <course>190.4</course>
  <speed>1.0</speed>
  <fix>3d</fix>
</trkpt>
<trkpt lat="33.8102245" lon="-118.3944893">
  <ele>-25.014</ele>
  <time>2026-09-02T22:08:37Z</time>
  <course>280.28</course>
  <speed>0.9815294188153507</speed>
  <fix>3d</fix>
</trkpt>
<trkpt lat="33.8102265" lon="-118.3944892">
  <ele>-24.4</ele>
  <time>2026-09-02T22:08:37Z</time>
  <course>190.4</course>
  <speed>1.0</speed>
  <fix>3d</fix>
</trkpt>
<trkpt lat="33.8102236" lon="-118.3944895">
  <ele>-25.014</ele>
  <time>2026-09-02T22:08:37Z</time>
  <course>280.4</course>
  <speed>0.9831073186585481</speed>
  <fix>3d</fix>
</trkpt>
<trkpt lat="33.8102246" lon="-118.3944895">
  <ele>-24.41</ele>
  <time>2026-09-02T22:08:37Z</time>
  <course>190.62</course>
  <speed>1.0</speed>
  <fix>3d</fix>
</trkpt>
<trkpt lat="33.8102227" lon="-118.3944897">
  <ele>-25.013</ele>
  <time>2026-09-02T22:08:37Z</time>
  <course>280.52</course>
  <speed>0.9831073186585481</speed>
  <fix>3d</fix>
</trkpt>
<trkpt lat="33.8102246" lon="-118.3944895">
  <ele>-24.41</ele>
  <time>2026-09-02T22:08:37Z</time>
  <course>190.62</course>
  <speed>1.0</speed>
  <fix>3d</fix>
</trkpt>
<trkpt lat="33.8102218" lon="-118.3944899">
  <ele>-25.012</ele>
  <time>2026-09-02T22:08:37Z</time>
  <course>280.64</course>
  <speed>0.9831073186585481</speed>
  <fix>3d</fix>
</trkpt>
<trkpt lat="33.8102229" lon="-118.39449">
  <ele>-24.41</ele>
  <time>2026-09-02T22:08:37Z</time>
  <course>190.86</course>
  <speed>1.0</speed>
  <fix>3d</fix>
</trkpt>
<trkpt lat="33.8102209" lon="-118.3944901">
  <ele>-25.012</ele>
  <time>2026-09-02T22:08:37Z</time>
  <course>280.76</course>
  <speed>0.9831073186585481</speed>
  <fix>3d</fix>
</trkpt>
<trkpt lat="33.8102229" lon="-118.39449">
  <ele>-24.41</ele>
  <time>2026-09-02T22:08:37Z</time>
  <course>190.86</course>
  <speed>1.0</speed>
  <fix>3d</fix>
</trkpt>
<trkpt lat="33.81022" lon="-118.3944903">
  <ele>-25.013</ele>
  <time>2026-09-02T22:08:37Z</time>
  <course>280.88</course>
  <speed>0.9847842403288144</speed>
  <fix>3d</fix>
</trkpt>
<trkpt lat="33.8102211" lon="-118.3944904">
  <ele>-24.41</ele>
  <time>2026-09-02T22:08:37Z</time>
  <course>191.12</course>
  <speed>1.0</speed>
  <fix>3d</fix>
</trkpt>
<trkpt lat="33.8102191" lon="-118.3944905">
  <ele>-25.013</ele>
  <time>2026-09-02T22:08:37Z</time>
  <course>281.01</course>
  <speed>0.9847842403288144</speed>
  <fix>3d</fix>
</trkpt>
<trkpt lat="33.8102211" lon="-118.3944904">
  <ele>-24.41</ele>
  <time>2026-09-02T22:08:37Z</time>
  <course>191.12</course>
  <speed>1.0</speed>
  <fix>3d</fix>
</trkpt>
<trkpt lat="33.8102183" lon="-118.3944908">
  <ele>-25.014</ele>
  <time>2026-09-02T22:08:37Z</time>
  <course>281.13</course>
  <speed>0.9847842403288144</speed>
  <fix>3d</fix>
</trkpt>
<trkpt lat="33.8102193" lon="-118.3944908">
  <ele>-24.41</ele>
  <time>2026-09-02T22:08:37Z</time>
  <course>191.37</course>
  <speed>1.0</speed>
  <fix>3d</fix>
</trkpt>
<trkpt lat="33.8102174" lon="-118.394491">
  <ele>-25.015</ele>
  <time>2026-09-02T22:08:37Z</time>
  <course>281.24</course>
  <speed>0.9847842403288144</speed>
  <fix>3d</fix>
</trkpt>
<trkpt lat="33.8102193" lon="-118.3944908">
  <ele>-24.41</ele>
  <time>2026-09-02T22:08:37Z</time>
  <course>191.37</course>
  <speed>1.0</speed>
  <fix>3d</fix>
</trkpt>
<trkpt lat="33.8102165" lon="-118.3944912">
  <ele>-25.016</ele>
  <time>2026-09-02T22:08:37Z</time>
  <course>281.36</course>
  <speed>0.9847842403288144</speed>
  <fix>3d</fix>
</trkpt>
<trkpt lat="33.8102176" lon="-118.3944912">
  <ele>-24.41</ele>
  <time>2026-09-02T22:08:37Z</time>
  <course>191.6</course>
  <speed>1.0</speed>
  <fix>3d</fix>
</trkpt>
<trkpt lat="33.8102156" lon="-118.3944914">
  <ele>-25.017</ele>
  <time>2026-09-02T22:08:37Z</time>
  <course>281.48</course>
  <speed>0.9767292357659824</speed>
  <fix>3d</fix>
</trkpt>
<trkpt lat="33.8102176" lon="-118.3944912">
  <ele>-24.41</ele>
  <time>2026-09-02T22:08:37Z</time>
  <course>191.6</course>
  <speed>1.0</speed>
  <fix>3d</fix>
</trkpt>
<trkpt lat="33.8102147" lon="-118.3944917">
  <ele>-25.018</ele>
  <time>2026-09-02T22:08:37Z</time>
  <course>281.61</course>
  <speed>0.9767292357659824</speed>
  <fix>3d</fix>
</trkpt>
<trkpt lat="33.8102157" lon="-118.3944917">
  <ele>-24.41</ele>
  <time>2026-09-02T22:08:37Z</time>
  <course>191.87</course>
  <speed>1.0</speed>
  <fix>3d</fix>
</trkpt>
<trkpt lat="33.8102138" lon="-118.3944919">
  <ele>-25.017</ele>
  <time>2026-09-02T22:08:37Z</time>
  <course>281.73</course>
  <speed>0.9767292357659824</speed>
  <fix>3d</fix>
</trkpt>
<trkpt lat="33.8102157" lon="-118.3944917">
  <ele>-24.41</ele>
  <time>2026-09-02T22:08:37Z</time>
  <course>191.87</course>
  <speed>1.0</speed>
  <fix>3d</fix>
</trkpt>
<trkpt lat="33.8102129" lon="-118.3944921">
  <ele>-25.016</ele>
  <time>2026-09-02T22:08:37Z</time>
  <course>281.85</course>
  <speed>0.9767292357659824</speed>
  <fix>3d</fix>
</trkpt>
<trkpt lat="33.810214" lon="-118.3944921">
  <ele>-24.41</ele>
  <time>2026-09-02T22:08:37Z</time>
  <course>192.14</course>
  <speed>1.0</speed>
  <fix>3d</fix>
</trkpt>
<trkpt lat="33.810212" lon="-118.3944924">
  <ele>-25.015</ele>
  <time>2026-09-02T22:08:37Z</time>
  <course>281.97</course>
  <speed>0.9786214794290998</speed>
  <fix>3d</fix>
</trkpt>
<trkpt lat="33.810214" lon="-118.3944921">
  <ele>-24.41</ele>
  <time>2026-09-02T22:08:37Z</time>
  <course>192.14</course>
  <speed>1.0</speed>
  <fix>3d</fix>
</trkpt>
<trkpt lat="33.8102112" lon="-118.3944926">
  <ele>-25.014</ele>
  <time>2026-09-02T22:08:37Z</time>
  <course>282.09</course>
  <speed>0.9786214794290998</speed>
  <fix>3d</fix>
</trkpt>
<trkpt lat="33.8102123" lon="-118.3944926">
  <ele>-24.41</ele>
  <time>2026-09-02T22:08:37Z</time>
  <course>192.41</course>
  <speed>1.0</speed>
  <fix>3d</fix>
</trkpt>
<trkpt lat="33.8102103" lon="-118.3944928">
  <ele>-25.013</ele>
  <time>2026-09-02T22:08:37Z</time>
  <course>282.2</course>
  <speed>0.9786214794290998</speed>
  <fix>3d</fix>
</trkpt>
<trkpt lat="33.8102123" lon="-118.3944926">
  <ele>-24.41</ele>
  <time>2026-09-02T22:08:37Z</time>
  <course>192.41</course>
  <speed>1.0</speed>
  <fix>3d</fix>
</trkpt>
<trkpt lat="33.8102094" lon="-118.3944931">
  <ele>-25.012</ele>
  <time>2026-09-02T22:08:37Z</time>
  <course>282.32</course>
  <speed>0.9786214794290998</speed>
  <fix>3d</fix>
</trkpt>
<trkpt lat="33.8102104" lon="-118.394493">
  <ele>-24.41</ele>
  <time>2026-09-02T22:08:37Z</time>
  <course>192.68</course>
  <speed>1.0</speed>
  <fix>3d</fix>
</trkpt>
<trkpt lat="33.8102085" lon="-118.3944933">
  <ele>-25.013</ele>
  <time>2026-09-02T22:08:37Z</time>
  <course>282.44</course>
  <speed>0.9786214794290998</speed>
  <fix>3d</fix>
</trkpt>
<trkpt lat="33.8102104" lon="-118.394493">
  <ele>-24.41</ele>
  <time>2026-09-02T22:08:37Z</time>
  <course>192.68</course>
  <speed>1.0</speed>
  <fix>3d</fix>
</trkpt>
<trkpt lat="33.8102076" lon="-118.3944936">
  <ele>-25.013</ele>
  <time>2026-09-02T22:08:37Z</time>
  <course>282.56</course>
  <speed>0.980612053770501</speed>
  <fix>3d</fix>
</trkpt>
<trkpt lat="33.8102087" lon="-118.3944935">
  <ele>-24.41</ele>
  <time>2026-09-02T22:08:37Z</time>
  <course>192.95</course>
  <speed>1.0</speed>
  <fix>3d</fix>
</trkpt>
<trkpt lat="33.8102068" lon="-118.3944938">
  <ele>-25.015</ele>
  <time>2026-09-02T22:08:37Z</time>
  <course>282.68</course>
  <speed>0.980612053770501</speed>
  <fix>3d</fix>
</trkpt>
<trkpt lat="33.8102087" lon="-118.3944935">
  <ele>-24.41</ele>
  <time>2026-09-02T22:08:37Z</time>
  <course>192.95</course>
  <speed>1.0</speed>
  <fix>3d</fix>
</trkpt>
<trkpt lat="33.8102059" lon="-118.394494">
  <ele>-25.017</ele>
  <time>2026-09-02T22:08:37Z</time>
  <course>282.8</course>
  <speed>0.980612053770501</speed>
  <fix>3d</fix>
</trkpt>
<trkpt lat="33.810207" lon="-118.394494">
  <ele>-24.41</ele>
  <time>2026-09-02T22:08:37Z</time>
  <course>193.25</course>
  <speed>1.0</speed>
  <fix>3d</fix>
</trkpt>
<trkpt lat="33.810205" lon="-118.3944943">
  <ele>-25.017</ele>
  <time>2026-09-02T22:08:37Z</time>
  <course>282.92</course>
  <speed>0.980612053770501</speed>
  <fix>3d</fix>
</trkpt>
<trkpt lat="33.810207" lon="-118.394494">
  <ele>-24.41</ele>
  <time>2026-09-02T22:08:37Z</time>
  <course>193.25</course>
  <speed>1.0</speed>
  <fix>3d</fix>
</trkpt>
<trkpt lat="33.8102041" lon="-118.3944946">
  <ele>-25.016</ele>
  <time>2026-09-02T22:08:37Z</time>
  <course>283.04</course>
  <speed>0.982700361249552</speed>
  <fix>3d</fix>
</trkpt>
<trkpt lat="33.8102052" lon="-118.3944945">
  <ele>-24.4</ele>
  <time>2026-09-02T22:08:37Z</time>
  <course>193.53</course>
  <speed>1.0</speed>
  <fix>3d</fix>
</trkpt>
<trkpt lat="33.8102032" lon="-118.3944948">
  <ele>-25.014</ele>
  <time>2026-09-02T22:08:37Z</time>
  <course>283.16</course>
  <speed>0.982700361249552</speed>
  <fix>3d</fix>
</trkpt>
<trkpt lat="33.8102052" lon="-118.3944945">
  <ele>-24.4</ele>
  <time>2026-09-02T22:08:37Z</time>
  <course>193.53</course>
  <speed>1.0</speed>
  <fix>3d</fix>
</trkpt>
<trkpt lat="33.8102024" lon="-118.3944951">
  <ele>-25.012</ele>
  <time>2026-09-02T22:08:37Z</time>
  <course>283.28</course>
  <speed>0.982700361249552</speed>
  <fix>3d</fix>
</trkpt>
<trkpt lat="33.8102035" lon="-118.394495">
  <ele>-24.4</ele>
  <time>2026-09-02T22:08:37Z</time>
  <course>193.77</course>
  <speed>1.0</speed>
  <fix>3d</fix>
</trkpt>
<trkpt lat="33.8102015" lon="-118.3944953">
  <ele>-25.01</ele>
  <time>2026-09-02T22:08:37Z</time>
  <course>283.39</course>
  <speed>0.982700361249552</speed>
  <fix>3d</fix>
</trkpt>
<trkpt lat="33.8102035" lon="-118.394495">
  <ele>-24.4</ele>
  <time>2026-09-02T22:08:37Z</time>
  <course>193.77</course>
  <speed>1.0</speed>
  <fix>3d</fix>
</trkpt>
<trkpt lat="33.8102006" lon="-118.3944956">
  <ele>-25.009</ele>
  <time>2026-09-02T22:08:37Z</time>
  <course>283.51</course>
  <speed>0.982700361249552</speed>
  <fix>3d</fix>
</trkpt>
<trkpt lat="33.8102016" lon="-118.3944956">
  <ele>-24.4</ele>
  <time>2026-09-02T22:08:37Z</time>
  <course>194.01</course>
  <speed>1.0</speed>
  <fix>3d</fix>
</trkpt>
<trkpt lat="33.8101997" lon="-118.3944959">
  <ele>-25.008</ele>
  <time>2026-09-02T22:08:37Z</time>
  <course>283.63</course>
  <speed>0.982700361249552</speed>
  <fix>3d</fix>
</trkpt>
<trkpt lat="33.8102016" lon="-118.3944956">
  <ele>-24.4</ele>
  <time>2026-09-02T22:08:37Z</time>
  <course>194.01</course>
  <speed>1.0</speed>
  <fix>3d</fix>
</trkpt>
<trkpt lat="33.8101988" lon="-118.3944961">
  <ele>-25.009</ele>
  <time>2026-09-02T22:08:37Z</time>
  <course>283.75</course>
  <speed>0.9848857801796105</speed>
  <fix>3d</fix>
</trkpt>
<trkpt lat="33.8101999" lon="-118.3944961">
  <ele>-24.4</ele>
  <time>2026-09-02T22:08:37Z</time>
  <course>194.22</course>
  <speed>1.0</speed>
  <fix>3d</fix>
</trkpt>
<trkpt lat="33.810198" lon="-118.3944964">
  <ele>-25.01</ele>
  <time>2026-09-02T22:08:37Z</time>
  <course>283.87</course>
  <speed>0.9751410154434076</speed>
  <fix>3d</fix>
</trkpt>
<trkpt lat="33.8101999" lon="-118.3944961">
  <ele>-24.4</ele>
  <time>2026-09-02T22:08:37Z</time>
  <course>194.22</course>
  <speed>1.0</speed>
  <fix>3d</fix>
</trkpt>
<trkpt lat="33.8101971" lon="-118.3944967">
  <ele>-25.012</ele>
  <time>2026-09-02T22:08:37Z</time>
  <course>283.99</course>
  <speed>0.9751410154434076</speed>
  <fix>3d</fix>
</trkpt>
<trkpt lat="33.8101982" lon="-118.3944966">
  <ele>-24.4</ele>
  <time>2026-09-02T22:08:37Z</time>
  <course>194.41</course>
  <speed>1.0</speed>
  <fix>3d</fix>
</trkpt>
<trkpt lat="33.8101962" lon="-118.3944969">
  <ele>-25.012</ele>
  <time>2026-09-02T22:08:37Z</time>
  <course>284.11</course>
  <speed>0.9751410154434076</speed>
  <fix>3d</fix>
</trkpt>
<trkpt lat="33.8101982" lon="-118.3944966">
  <ele>-24.4</ele>
  <time>2026-09-02T22:08:37Z</time>
  <course>194.41</course>
  <speed>1.0</speed>
  <fix>3d</fix>
</trkpt>
<trkpt lat="33.8101953" lon="-118.3944972">
  <ele>-25.012</ele>
  <time>2026-09-02T22:08:37Z</time>
  <course>284.23</course>
  <speed>0.9751410154434076</speed>
  <fix>3d</fix>
</trkpt>
<trkpt lat="33.8101964" lon="-118.3944972">
  <ele>-24.4</ele>
  <time>2026-09-02T22:08:37Z</time>
  <course>194.62</course>
  <speed>1.0</speed>
  <fix>3d</fix>
</trkpt>
<trkpt lat="33.8101945" lon="-118.3944975">
  <ele>-25.013</ele>
  <time>2026-09-02T22:08:37Z</time>
  <course>284.34</course>
  <speed>0.9751410154434076</speed>
  <fix>3d</fix>
</trkpt>
<trkpt lat="33.8101964" lon="-118.3944972">
  <ele>-24.4</ele>
  <time>2026-09-02T22:08:37Z</time>
  <course>194.62</course>
  <speed>1.0</speed>
  <fix>3d</fix>
</trkpt>
<trkpt lat="33.8101936" lon="-118.3944978">
  <ele>-25.014</ele>
  <time>2026-09-02T22:08:37Z</time>
  <course>284.46</course>
  <speed>0.9774456506629922</speed>
  <fix>3d</fix>
</trkpt>
<trkpt lat="33.8101946" lon="-118.3944978">
  <ele>-24.41</ele>
  <time>2026-09-02T22:08:37Z</time>
  <course>194.84</course>
  <speed>1.0</speed>
  <fix>3d</fix>
</trkpt>
<trkpt lat="33.8101927" lon="-118.3944981">
  <ele>-25.015</ele>
  <time>2026-09-02T22:08:37Z</time>
  <course>284.58</course>
  <speed>0.9774456506629922</speed>
  <fix>3d</fix>
</trkpt>
<trkpt lat="33.8101946" lon="-118.3944978">
  <ele>-24.41</ele>
  <time>2026-09-02T22:08:37Z</time>
  <course>194.84</course>
  <speed>1.0</speed>
  <fix>3d</fix>
</trkpt>
<trkpt lat="33.8101918" lon="-118.3944983">
  <ele>-25.014</ele>
  <time>2026-09-02T22:08:37Z</time>
  <course>284.7</course>
  <speed>0.9774456506629922</speed>
  <fix>3d</fix>
</trkpt>
<trkpt lat="33.8101929" lon="-118.3944983">
  <ele>-24.41</ele>
  <time>2026-09-02T22:08:37Z</time>
  <course>195.02</course>
  <speed>1.0</speed>
  <fix>3d</fix>
</trkpt>
<trkpt lat="33.810191" lon="-118.3944986">
  <ele>-25.014</ele>
  <time>2026-09-02T22:08:37Z</time>
  <course>284.82</course>
  <speed>0.9774456506629922</speed>
  <fix>3d</fix>
</trkpt>
<trkpt lat="33.8101929" lon="-118.3944983">
  <ele>-24.41</ele>
  <time>2026-09-02T22:08:37Z</time>
  <course>195.02</course>
  <speed>1.0</speed>
  <fix>3d</fix>
</trkpt>
<trkpt lat="33.8101901" lon="-118.3944989">
  <ele>-25.014</ele>
  <time>2026-09-02T22:08:37Z</time>
  <course>284.93</course>
  <speed>0.9774456506629922</speed>
  <fix>3d</fix>
</trkpt>
<trkpt lat="33.8101912" lon="-118.3944989">
  <ele>-24.41</ele>
  <time>2026-09-02T22:08:37Z</time>
  <course>195.2</course>
  <speed>1.0</speed>
  <fix>3d</fix>
</trkpt>
<trkpt lat="33.8101892" lon="-118.3944992">
  <ele>-25.014</ele>
  <time>2026-09-02T22:08:37Z</time>
  <course>285.05</course>
  <speed>0.9774456506629922</speed>
  <fix>3d</fix>
</trkpt>
<trkpt lat="33.8101912" lon="-118.3944989">
  <ele>-24.41</ele>
  <time>2026-09-02T22:08:37Z</time>
  <course>195.2</course>
  <speed>1.0</speed>
  <fix>3d</fix>
</trkpt>
<trkpt lat="33.8101883" lon="-118.3944995">
  <ele>-25.013</ele>
  <time>2026-09-02T22:08:37Z</time>
  <course>285.17</course>
  <speed>0.9798469268207153</speed>
  <fix>3d</fix>
</trkpt>
<trkpt lat="33.8101894" lon="-118.3944995">
  <ele>-24.41</ele>
  <time>2026-09-02T22:08:37Z</time>
  <course>195.4</course>
  <speed>1.0</speed>
  <fix>3d</fix>
</trkpt>
<trkpt lat="33.8101875" lon="-118.3944998">
  <ele>-25.012</ele>
  <time>2026-09-02T22:08:37Z</time>
  <course>285.29</course>
  <speed>0.9798469268207153</speed>
  <fix>3d</fix>
</trkpt>
<trkpt lat="33.8101894" lon="-118.3944995">
  <ele>-24.41</ele>
  <time>2026-09-02T22:08:37Z</time>
  <course>195.4</course>
  <speed>1.0</speed>
  <fix>3d</fix>
</trkpt>
<trkpt lat="33.8101866" lon="-118.3945001">
  <ele>-25.012</ele>
  <time>2026-09-02T22:08:37Z</time>
  <course>285.41</course>
  <speed>0.9798469268207153</speed>
  <fix>3d</fix>
</trkpt>
<trkpt lat="33.8101877" lon="-118.3945">
  <ele>-24.41</ele>
  <time>2026-09-02T22:08:37Z</time>
  <course>195.58</course>
  <speed>1.0</speed>
  <fix>3d</fix>
</trkpt>
<trkpt lat="33.8101857" lon="-118.3945004">
  <ele>-25.013</ele>
  <time>2026-09-02T22:08:37Z</time>
  <course>285.53</course>
  <speed>0.9798469268207153</speed>
  <fix>3d</fix>
</trkpt>
<trkpt lat="33.8101877" lon="-118.3945">
  <ele>-24.41</ele>
  <time>2026-09-02T22:08:37Z</time>
  <course>195.58</course>
  <speed>1.0</speed>
  <fix>3d</fix>
</trkpt>
<trkpt lat="33.8101849" lon="-118.3945007">
  <ele>-25.013</ele>
  <time>2026-09-02T22:08:37Z</time>
  <course>285.65</course>
  <speed>0.9798469268207153</speed>
  <fix>3d</fix>
</trkpt>
<trkpt lat="33.810186" lon="-118.3945006">
  <ele>-24.41</ele>
  <time>2026-09-02T22:08:37Z</time>
  <course>195.8</course>
  <speed>1.0</speed>
  <fix>3d</fix>
</trkpt>
<trkpt lat="33.810184" lon="-118.394501">
  <ele>-25.014</ele>
  <time>2026-09-02T22:08:37Z</time>
  <course>285.77</course>
  <speed>0.982344135219425</speed>
  <fix>3d</fix>
</trkpt>
<trkpt lat="33.810186" lon="-118.3945006">
  <ele>-24.41</ele>
  <time>2026-09-02T22:08:37Z</time>
  <course>195.8</course>
  <speed>1.0</speed>
  <fix>3d</fix>
</trkpt>
<trkpt lat="33.8101831" lon="-118.3945013">
  <ele>-25.015</ele>
  <time>2026-09-02T22:08:37Z</time>
  <course>285.88</course>
  <speed>0.982344135219425</speed>
  <fix>3d</fix>
</trkpt>
<trkpt lat="33.8101842" lon="-118.3945012">
  <ele>-24.41</ele>
  <time>2026-09-02T22:08:37Z</time>
  <course>196.05</course>
  <speed>1.0</speed>
  <fix>3d</fix>
</trkpt>
<trkpt lat="33.8101823" lon="-118.3945016">
  <ele>-25.014</ele>
  <time>2026-09-02T22:08:37Z</time>
  <course>286.0</course>
  <speed>0.9726767191621274</speed>
  <fix>3d</fix>
</trkpt>
<trkpt lat="33.8101842" lon="-118.3945012">
  <ele>-24.41</ele>
  <time>2026-09-02T22:08:37Z</time>
  <course>196.05</course>
  <speed>1.0</speed>
  <fix>3d</fix>
</trkpt>
<trkpt lat="33.8101814" lon="-118.3945019">
  <ele>-25.013</ele>
  <time>2026-09-02T22:08:37Z</time>
  <course>286.12</course>
  <speed>0.9726767191621274</speed>
  <fix>3d</fix>
</trkpt>
<trkpt lat="33.8101824" lon="-118.3945018">
  <ele>-24.41</ele>
  <time>2026-09-02T22:08:37Z</time>
  <course>196.32</course>
  <speed>1.0</speed>
  <fix>3d</fix>
</trkpt>
<trkpt lat="33.8101805" lon="-118.3945022">
  <ele>-25.013</ele>
  <time>2026-09-02T22:08:37Z</time>
  <course>286.24</course>
  <speed>0.9726767191621274</speed>
  <fix>3d</fix>
</trkpt>
<trkpt lat="33.8101824" lon="-118.3945018">
  <ele>-24.41</ele>
  <time>2026-09-02T22:08:37Z</time>
  <course>196.32</course>
  <speed>1.0</speed>
  <fix>3d</fix>
</trkpt>
<trkpt lat="33.8101797" lon="-118.3945025">
  <ele>-25.012</ele>
  <time>2026-09-02T22:08:37Z</time>
  <course>286.36</course>
  <speed>0.9752948272189288</speed>
  <fix>3d</fix>
</trkpt>
<trkpt lat="33.8101807" lon="-118.3945024">
  <ele>-24.41</ele>
  <time>2026-09-02T22:08:37Z</time>
  <course>196.61</course>
  <speed>1.0</speed>
  <fix>3d</fix>
</trkpt>
<trkpt lat="33.8101788" lon="-118.3945028">
  <ele>-25.012</ele>
  <time>2026-09-02T22:08:37Z</time>
  <course>286.48</course>
  <speed>0.9752948272189288</speed>
  <fix>3d</fix>
</trkpt>
<trkpt lat="33.8101807" lon="-118.3945024">
  <ele>-24.41</ele>
  <time>2026-09-02T22:08:37Z</time>
  <course>196.61</course>
  <speed>1.0</speed>
  <fix>3d</fix>
</trkpt>
<trkpt lat="33.8101779" lon="-118.3945032">
  <ele>-25.013</ele>
  <time>2026-09-02T22:08:37Z</time>
  <course>286.59</course>
  <speed>0.9752948272189288</speed>
  <fix>3d</fix>
</trkpt>
<trkpt lat="33.810179" lon="-118.3945031">
  <ele>-24.41</ele>
  <time>2026-09-02T22:08:37Z</time>
  <course>196.92</course>
  <speed>1.0</speed>
  <fix>3d</fix>
</trkpt>
<trkpt lat="33.8101771" lon="-118.3945035">
  <ele>-25.014</ele>
  <time>2026-09-02T22:08:37Z</time>
  <course>286.71</course>
  <speed>0.9752948272189288</speed>
  <fix>3d</fix>
</trkpt>
<trkpt lat="33.810179" lon="-118.3945031">
  <ele>-24.41</ele>
  <time>2026-09-02T22:08:37Z</time>
  <course>196.92</course>
  <speed>1.0</speed>
  <fix>3d</fix>
</trkpt>
<trkpt lat="33.8101762" lon="-118.3945038">
  <ele>-25.015</ele>
  <time>2026-09-02T22:08:37Z</time>
  <course>286.83</course>
  <speed>0.978008179924892</speed>
  <fix>3d</fix>
</trkpt>
<trkpt lat="33.8101773" lon="-118.3945037">
  <ele>-24.41</ele>
  <time>2026-09-02T22:08:37Z</time>
  <course>197.18</course>
  <speed>1.0</speed>
  <fix>3d</fix>
</trkpt>
<trkpt lat="33.8101754" lon="-118.3945041">
  <ele>-25.014</ele>
  <time>2026-09-02T22:08:37Z</time>
  <course>286.94</course>
  <speed>0.978008179924892</speed>
  <fix>3d</fix>
</trkpt>
<trkpt lat="33.8101773" lon="-118.3945037">
  <ele>-24.41</ele>
  <time>2026-09-02T22:08:37Z</time>
  <course>197.18</course>
  <speed>1.0</speed>
  <fix>3d</fix>
</trkpt>
<trkpt lat="33.8101745" lon="-118.3945044">
  <ele>-25.015</ele>
  <time>2026-09-02T22:08:37Z</time>
  <course>287.06</course>
  <speed>0.978008179924892</speed>
  <fix>3d</fix>
</trkpt>
<trkpt lat="33.8101755" lon="-118.3945044">
  <ele>-24.41</ele>
  <time>2026-09-02T22:08:37Z</time>
  <course>197.38</course>
  <speed>1.0</speed>
  <fix>3d</fix>
</trkpt>
<trkpt lat="33.8101736" lon="-118.3945048">
  <ele>-25.015</ele>
  <time>2026-09-02T22:08:37Z</time>
  <course>287.18</course>
  <speed>0.978008179924892</speed>
  <fix>3d</fix>
</trkpt>
<trkpt lat="33.8101755" lon="-118.3945044">
  <ele>-24.41</ele>
  <time>2026-09-02T22:08:37Z</time>
  <course>197.38</course>
  <speed>1.0</speed>
  <fix>3d</fix>
</trkpt>
<trkpt lat="33.8101728" lon="-118.3945051">
  <ele>-25.015</ele>
  <time>2026-09-02T22:08:37Z</time>
  <course>287.3</course>
  <speed>0.978008179924892</speed>
  <fix>3d</fix>
</trkpt>
<trkpt lat="33.8101738" lon="-118.394505">
  <ele>-24.4</ele>
  <time>2026-09-02T22:08:37Z</time>
  <course>197.55</course>
  <speed>1.0</speed>
  <fix>3d</fix>
</trkpt>
<trkpt lat="33.8101719" lon="-118.3945054">
  <ele>-25.014</ele>
  <time>2026-09-02T22:08:37Z</time>
  <course>287.42</course>
  <speed>0.978008179924892</speed>
  <fix>3d</fix>
</trkpt>
<trkpt lat="33.8101738" lon="-118.394505">
  <ele>-24.4</ele>
  <time>2026-09-02T22:08:37Z</time>
  <course>197.55</course>
  <speed>1.0</speed>
  <fix>3d</fix>
</trkpt>
<trkpt lat="33.8101711" lon="-118.3945058">
  <ele>-25.012</ele>
  <time>2026-09-02T22:08:37Z</time>
  <course>287.54</course>
  <speed>0.9808159868191383</speed>
  <fix>3d</fix>
</trkpt>
<trkpt lat="33.8101721" lon="-118.3945057">
  <ele>-24.4</ele>
  <time>2026-09-02T22:08:37Z</time>
  <course>197.74</course>
  <speed>1.0</speed>
  <fix>3d</fix>
</trkpt>
<trkpt lat="33.8101702" lon="-118.3945061">
  <ele>-25.009</ele>
  <time>2026-09-02T22:08:37Z</time>
  <course>287.65</course>
  <speed>0.9808159868191383</speed>
  <fix>3d</fix>
</trkpt>
<trkpt lat="33.8101721" lon="-118.3945057">
  <ele>-24.4</ele>
  <time>2026-09-02T22:08:37Z</time>
  <course>197.74</course>
  <speed>1.0</speed>
  <fix>3d</fix>
</trkpt>
<trkpt lat="33.8101693" lon="-118.3945064">
  <ele>-25.008</ele>
  <time>2026-09-02T22:08:37Z</time>
  <course>287.77</course>
  <speed>0.9808159868191383</speed>
  <fix>3d</fix>
</trkpt>
<trkpt lat="33.8101704" lon="-118.3945063">
  <ele>-24.4</ele>
  <time>2026-09-02T22:08:37Z</time>
  <course>197.95</course>
  <speed>1.0</speed>
  <fix>3d</fix>
</trkpt>
<trkpt lat="33.8101685" lon="-118.3945068">
  <ele>-25.009</ele>
  <time>2026-09-02T22:08:37Z</time>
  <course>287.88</course>
  <speed>0.9808159868191383</speed>
  <fix>3d</fix>
</trkpt>
<trkpt lat="33.8101704" lon="-118.3945063">
  <ele>-24.4</ele>
  <time>2026-09-02T22:08:37Z</time>
  <course>197.95</course>
  <speed>1.0</speed>
  <fix>3d</fix>
</trkpt>
<trkpt lat="33.8101676" lon="-118.3945071">
  <ele>-25.011</ele>
  <time>2026-09-02T22:08:37Z</time>
  <course>288.0</course>
  <speed>0.9808159868191383</speed>
  <fix>3d</fix>
</trkpt>
<trkpt lat="33.8101687" lon="-118.394507">
  <ele>-24.4</ele>
  <time>2026-09-02T22:08:37Z</time>
  <course>198.17</course>
  <speed>1.0</speed>
  <fix>3d</fix>
</trkpt>
<trkpt lat="33.8101668" lon="-118.3945075">
  <ele>-25.012</ele>
  <time>2026-09-02T22:08:37Z</time>
  <course>288.12</course>
  <speed>0.9808159868191383</speed>
  <fix>3d</fix>
</trkpt>
<trkpt lat="33.8101687" lon="-118.394507">
  <ele>-24.4</ele>
  <time>2026-09-02T22:08:37Z</time>
  <course>198.17</course>
  <speed>1.0</speed>
  <fix>3d</fix>
</trkpt>
<trkpt lat="33.8101659" lon="-118.3945078">
  <ele>-25.013</ele>
  <time>2026-09-02T22:08:37Z</time>
  <course>288.24</course>
  <speed>0.9837174391053561</speed>
  <fix>3d</fix>
</trkpt>
<trkpt lat="33.8101669" lon="-118.3945077">
  <ele>-24.4</ele>
  <time>2026-09-02T22:08:37Z</time>
  <course>198.4</course>
  <speed>1.01</speed>
  <fix>3d</fix>
</trkpt>
<trkpt lat="33.8101651" lon="-118.3945082">
  <ele>-25.013</ele>
  <time>2026-09-02T22:08:37Z</time>
  <course>288.35</course>
  <speed>0.9741663102366043</speed>
  <fix>3d</fix>
</trkpt>
<trkpt lat="33.8101669" lon="-118.3945077">
  <ele>-24.4</ele>
  <time>2026-09-02T22:08:37Z</time>
  <course>198.4</course>
  <speed>1.01</speed>
  <fix>3d</fix>
</trkpt>
<trkpt lat="33.8101642" lon="-118.3945085">
  <ele>-25.014</ele>
  <time>2026-09-02T22:08:37Z</time>
  <course>288.47</course>
  <speed>0.9741663102366043</speed>
  <fix>3d</fix>
</trkpt>
<trkpt lat="33.8101652" lon="-118.3945084">
  <ele>-24.41</ele>
  <time>2026-09-02T22:08:37Z</time>
  <course>198.65</course>
  <speed>1.01</speed>
  <fix>3d</fix>
</trkpt>
<trkpt lat="33.8101634" lon="-118.3945089">
  <ele>-25.014</ele>
  <time>2026-09-02T22:08:37Z</time>
  <course>288.59</course>
  <speed>0.9741663102366043</speed>
  <fix>3d</fix>
</trkpt>
<trkpt lat="33.8101652" lon="-118.3945084">
  <ele>-24.41</ele>
  <time>2026-09-02T22:08:37Z</time>
  <course>198.65</course>
  <speed>1.01</speed>
  <fix>3d</fix>
</trkpt>
<trkpt lat="33.8101625" lon="-118.3945092">
  <ele>-25.014</ele>
  <time>2026-09-02T22:08:37Z</time>
  <course>288.71</course>
  <speed>0.9741663102366043</speed>
  <fix>3d</fix>
</trkpt>
<trkpt lat="33.8101635" lon="-118.3945091">
  <ele>-24.41</ele>
  <time>2026-09-02T22:08:37Z</time>
  <course>198.9</course>
  <speed>1.01</speed>
  <fix>3d</fix>
</trkpt>
<trkpt lat="33.8101617" lon="-118.3945096">
  <ele>-25.015</ele>
  <time>2026-09-02T22:08:37Z</time>
  <course>288.83</course>
  <speed>0.9771898484941398</speed>
  <fix>3d</fix>
</trkpt>
<trkpt lat="33.8101635" lon="-118.3945091">
  <ele>-24.41</ele>
  <time>2026-09-02T22:08:37Z</time>
  <course>198.9</course>
  <speed>1.01</speed>
  <fix>3d</fix>
</trkpt>
<trkpt lat="33.8101608" lon="-118.3945099">
  <ele>-25.015</ele>
  <time>2026-09-02T22:08:37Z</time>
  <course>288.95</course>
  <speed>0.9771898484941398</speed>
  <fix>3d</fix>
</trkpt>
<trkpt lat="33.8101618" lon="-118.3945098">
  <ele>-24.41</ele>
  <time>2026-09-02T22:08:37Z</time>
  <course>199.14</course>
  <speed>1.0</speed>
  <fix>3d</fix>
</trkpt>
<trkpt lat="33.8101599" lon="-118.3945103">
  <ele>-25.015</ele>
  <time>2026-09-02T22:08:37Z</time>
  <course>289.06</course>
  <speed>0.9771898484941398</speed>
  <fix>3d</fix>
</trkpt>
<trkpt lat="33.8101618" lon="-118.3945098">
  <ele>-24.41</ele>
  <time>2026-09-02T22:08:37Z</time>
  <course>199.14</course>
  <speed>1.0</speed>
  <fix>3d</fix>
</trkpt>
<trkpt lat="33.8101591" lon="-118.3945107">
  <ele>-25.013</ele>
  <time>2026-09-02T22:08:37Z</time>
  <course>289.18</course>
  <speed>0.9771898484941398</speed>
  <fix>3d</fix>
</trkpt>
<trkpt lat="33.8101601" lon="-118.3945105">
  <ele>-24.41</ele>
  <time>2026-09-02T22:08:37Z</time>
  <course>199.37</course>
  <speed>1.0</speed>
  <fix>3d</fix>
</trkpt>
<trkpt lat="33.8101582" lon="-118.394511">
  <ele>-25.011</ele>
  <time>2026-09-02T22:08:37Z</time>
  <course>289.3</course>
  <speed>0.9771898484941398</speed>
  <fix>3d</fix>
</trkpt>
<trkpt lat="33.8101601" lon="-118.3945105">
  <ele>-24.41</ele>
  <time>2026-09-02T22:08:37Z</time>
  <course>199.37</course>
  <speed>1.0</speed>
  <fix>3d</fix>
</trkpt>
<trkpt lat="33.8101574" lon="-118.3945114">
  <ele>-25.011</ele>
  <time>2026-09-02T22:08:37Z</time>
  <course>289.41</course>
  <speed>0.9803060746521975</speed>
  <fix>3d</fix>
</trkpt>
<trkpt lat="33.8101584" lon="-118.3945112">
  <ele>-24.41</ele>
  <time>2026-09-02T22:08:37Z</time>
  <course>199.61</course>
  <speed>1.0</speed>
  <fix>3d</fix>
</trkpt>
<trkpt lat="33.8101565" lon="-118.3945117">
  <ele>-25.012</ele>
  <time>2026-09-02T22:08:37Z</time>
  <course>289.53</course>
  <speed>0.9803060746521975</speed>
  <fix>3d</fix>
</trkpt>
<trkpt lat="33.8101584" lon="-118.3945112">
  <ele>-24.41</ele>
  <time>2026-09-02T22:08:37Z</time>
  <course>199.61</course>
  <speed>1.0</speed>
  <fix>3d</fix>
</trkpt>
<trkpt lat="33.8101557" lon="-118.3945121">
  <ele>-25.013</ele>
  <time>2026-09-02T22:08:37Z</time>
  <course>289.65</course>
  <speed>0.9803060746521975</speed>
  <fix>3d</fix>
</trkpt>
<trkpt lat="33.8101567" lon="-118.394512">
  <ele>-24.41</ele>
  <time>2026-09-02T22:08:37Z</time>
  <course>199.87</course>
  <speed>1.0</speed>
  <fix>3d</fix>
</trkpt>
<trkpt lat="33.8101548" lon="-118.3945125">
  <ele>-25.015</ele>
  <time>2026-09-02T22:08:37Z</time>
  <course>289.76</course>
  <speed>0.97082439194738</speed>
  <fix>3d</fix>
</trkpt>
<trkpt lat="33.8101567" lon="-118.394512">
  <ele>-24.41</ele>
  <time>2026-09-02T22:08:37Z</time>
  <course>199.87</course>
  <speed>1.0</speed>
  <fix>3d</fix>
</trkpt>
<trkpt lat="33.810154" lon="-118.3945129">
  <ele>-25.016</ele>
  <time>2026-09-02T22:08:38Z</time>
  <course>289.88</course>
  <speed>0.97082439194738</speed>
  <fix>3d</fix>
</trkpt>
<trkpt lat="33.810155" lon="-118.3945127">
  <ele>-24.41</ele>
  <time>2026-09-02T22:08:38Z</time>
  <course>200.12</course>
  <speed>1.0</speed>
  <fix>3d</fix>
</trkpt>
<trkpt lat="33.8101531" lon="-118.3945132">
  <ele>-25.016</ele>
  <time>2026-09-02T22:08:38Z</time>
  <course>290.0</course>
  <speed>0.9740636529508737</speed>
  <fix>3d</fix>
</trkpt>
<trkpt lat="33.810155" lon="-118.3945127">
  <ele>-24.41</ele>
  <time>2026-09-02T22:08:38Z</time>
  <course>200.12</course>
  <speed>1.0</speed>
  <fix>3d</fix>
</trkpt>
<trkpt lat="33.8101523" lon="-118.3945136">
  <ele>-25.015</ele>
  <time>2026-09-02T22:08:38Z</time>
  <course>290.11</course>
  <speed>0.9740636529508737</speed>
  <fix>3d</fix>
</trkpt>
<trkpt lat="33.8101533" lon="-118.3945134">
  <ele>-24.41</ele>
  <time>2026-09-02T22:08:38Z</time>
  <course>200.35</course>
  <speed>1.0</speed>
  <fix>3d</fix>
</trkpt>
<trkpt lat="33.8101515" lon="-118.394514">
  <ele>-25.014</ele>
  <time>2026-09-02T22:08:38Z</time>
  <course>290.23</course>
  <speed>0.9740636529508737</speed>
  <fix>3d</fix>
</trkpt>
<trkpt lat="33.8101533" lon="-118.3945134">
  <ele>-24.41</ele>
  <time>2026-09-02T22:08:38Z</time>
  <course>200.35</course>
  <speed>1.0</speed>
  <fix>3d</fix>
</trkpt>
<trkpt lat="33.8101506" lon="-118.3945144">
  <ele>-25.011</ele>
  <time>2026-09-02T22:08:38Z</time>
  <course>290.35</course>
  <speed>0.9740636529508737</speed>
  <fix>3d</fix>
</trkpt>
<trkpt lat="33.8101516" lon="-118.3945143">
  <ele>-24.4</ele>
  <time>2026-09-02T22:08:38Z</time>
  <course>200.6</course>
  <speed>1.0</speed>
  <fix>3d</fix>
</trkpt>
<trkpt lat="33.8101498" lon="-118.3945148">
  <ele>-25.009</ele>
  <time>2026-09-02T22:08:38Z</time>
  <course>290.47</course>
  <speed>0.9740636529508737</speed>
  <fix>3d</fix>
</trkpt>
<trkpt lat="33.8101516" lon="-118.3945143">
  <ele>-24.4</ele>
  <time>2026-09-02T22:08:38Z</time>
  <course>200.6</course>
  <speed>1.0</speed>
  <fix>3d</fix>
</trkpt>
<trkpt lat="33.8101489" lon="-118.3945152">
  <ele>-25.008</ele>
  <time>2026-09-02T22:08:38Z</time>
  <course>290.58</course>
  <speed>0.9740636529508737</speed>
  <fix>3d</fix>
</trkpt>
<trkpt lat="33.8101499" lon="-118.394515">
  <ele>-24.4</ele>
  <time>2026-09-02T22:08:38Z</time>
  <course>200.83</course>
  <speed>1.0</speed>
  <fix>3d</fix>
</trkpt>
<trkpt lat="33.8101481" lon="-118.3945155">
  <ele>-25.008</ele>
  <time>2026-09-02T22:08:38Z</time>
  <course>290.7</course>
  <speed>0.9773944955850733</speed>
  <fix>3d</fix>
</trkpt>
<trkpt lat="33.8101499" lon="-118.394515">
  <ele>-24.4</ele>
  <time>2026-09-02T22:08:38Z</time>
  <course>200.83</course>
  <speed>1.0</speed>
  <fix>3d</fix>
</trkpt>
<trkpt lat="33.8101472" lon="-118.3945159">
  <ele>-25.008</ele>
  <time>2026-09-02T22:08:38Z</time>
  <course>290.81</course>
  <speed>0.9773944955850733</speed>
  <fix>3d</fix>
</trkpt>
<trkpt lat="33.8101482" lon="-118.3945158">
  <ele>-24.4</ele>
  <time>2026-09-02T22:08:38Z</time>
  <course>201.02</course>
  <speed>1.0</speed>
  <fix>3d</fix>
</trkpt>
<trkpt lat="33.8101464" lon="-118.3945163">
  <ele>-25.008</ele>
  <time>2026-09-02T22:08:38Z</time>
  <course>290.94</course>
  <speed>0.9773944955850733</speed>
  <fix>3d</fix>
</trkpt>
<trkpt lat="33.8101482" lon="-118.3945158">
  <ele>-24.4</ele>
  <time>2026-09-02T22:08:38Z</time>
  <course>201.02</course>
  <speed>1.0</speed>
  <fix>3d</fix>
</trkpt>
<trkpt lat="33.8101456" lon="-118.3945167">
  <ele>-25.01</ele>
  <time>2026-09-02T22:08:38Z</time>
  <course>291.05</course>
  <speed>0.9773944955850733</speed>
  <fix>3d</fix>
</trkpt>
<trkpt lat="33.8101465" lon="-118.3945166">
  <ele>-24.4</ele>
  <time>2026-09-02T22:08:38Z</time>
  <course>201.23</course>
  <speed>1.0</speed>
  <fix>3d</fix>
</trkpt>
<trkpt lat="33.8101447" lon="-118.3945171">
  <ele>-25.013</ele>
  <time>2026-09-02T22:08:38Z</time>
  <course>291.17</course>
  <speed>0.9679876032264049</speed>
  <fix>3d</fix>
</trkpt>
<trkpt lat="33.8101465" lon="-118.3945166">
  <ele>-24.4</ele>
  <time>2026-09-02T22:08:38Z</time>
  <course>201.23</course>
  <speed>1.0</speed>
  <fix>3d</fix>
</trkpt>
<trkpt lat="33.8101439" lon="-118.3945175">
  <ele>-25.015</ele>
  <time>2026-09-02T22:08:38Z</time>
  <course>291.29</course>
  <speed>0.9679876032264049</speed>
  <fix>3d</fix>
</trkpt>
<trkpt lat="33.8101448" lon="-118.3945173">
  <ele>-24.41</ele>
  <time>2026-09-02T22:08:38Z</time>
  <course>201.44</course>
  <speed>1.0</speed>
  <fix>3d</fix>
</trkpt>
<trkpt lat="33.810143" lon="-118.3945179">
  <ele>-25.017</ele>
  <time>2026-09-02T22:08:38Z</time>
  <course>291.4</course>
  <speed>0.9714422267947797</speed>
  <fix>3d</fix>
</trkpt>
<trkpt lat="33.8101448" lon="-118.3945173">
  <ele>-24.41</ele>
  <time>2026-09-02T22:08:38Z</time>
  <course>201.44</course>
  <speed>1.0</speed>
  <fix>3d</fix>
</trkpt>
<trkpt lat="33.8101422" lon="-118.3945183">
  <ele>-25.018</ele>
  <time>2026-09-02T22:08:38Z</time>
  <course>291.52</course>
  <speed>0.9714422267947797</speed>
  <fix>3d</fix>
</trkpt>
<trkpt lat="33.8101431" lon="-118.3945182">
  <ele>-24.41</ele>
  <time>2026-09-02T22:08:38Z</time>
  <course>201.7</course>
  <speed>1.0</speed>
  <fix>3d</fix>
</trkpt>
<trkpt lat="33.8101413" lon="-118.3945187">
  <ele>-25.018</ele>
  <time>2026-09-02T22:08:38Z</time>
  <course>291.63</course>
  <speed>0.9714422267947797</speed>
  <fix>3d</fix>
</trkpt>
<trkpt lat="33.8101431" lon="-118.3945182">
  <ele>-24.41</ele>
  <time>2026-09-02T22:08:38Z</time>
  <course>201.7</course>
  <speed>1.0</speed>
  <fix>3d</fix>
</trkpt>
<trkpt lat="33.8101405" lon="-118.3945191">
  <ele>-25.017</ele>
  <time>2026-09-02T22:08:38Z</time>
  <course>291.75</course>
  <speed>0.9714422267947797</speed>
  <fix>3d</fix>
</trkpt>
<trkpt lat="33.8101415" lon="-118.394519">
  <ele>-24.41</ele>
  <time>2026-09-02T22:08:38Z</time>
  <course>201.97</course>
  <speed>1.0</speed>
  <fix>3d</fix>
</trkpt>
<trkpt lat="33.8101397" lon="-118.3945196">
  <ele>-25.017</ele>
  <time>2026-09-02T22:08:38Z</time>
  <course>291.87</course>
  <speed>0.9714422267947797</speed>
  <fix>3d</fix>
</trkpt>
<trkpt lat="33.8101415" lon="-118.394519">
  <ele>-24.41</ele>
  <time>2026-09-02T22:08:38Z</time>
  <course>201.97</course>
  <speed>1.0</speed>
  <fix>3d</fix>
</trkpt>
<trkpt lat="33.8101388" lon="-118.39452">
  <ele>-25.017</ele>
  <time>2026-09-02T22:08:38Z</time>
  <course>291.99</course>
  <speed>0.9749871794028884</speed>
  <fix>3d</fix>
</trkpt>
<trkpt lat="33.8101398" lon="-118.3945197">
  <ele>-24.41</ele>
  <time>2026-09-02T22:08:38Z</time>
  <course>202.2</course>
  <speed>1.0</speed>
  <fix>3d</fix>
</trkpt>
<trkpt lat="33.810138" lon="-118.3945204">
  <ele>-25.017</ele>
  <time>2026-09-02T22:08:38Z</time>
  <course>292.1</course>
  <speed>0.9749871794028884</speed>
  <fix>3d</fix>
</trkpt>
<trkpt lat="33.8101398" lon="-118.3945197">
  <ele>-24.41</ele>
  <time>2026-09-02T22:08:38Z</time>
  <course>202.2</course>
  <speed>1.0</speed>
  <fix>3d</fix>
</trkpt>
<trkpt lat="33.8101372" lon="-118.3945208">
  <ele>-25.017</ele>
  <time>2026-09-02T22:08:38Z</time>
  <course>292.22</course>
  <speed>0.9749871794028884</speed>
  <fix>3d</fix>
</trkpt>
<trkpt lat="33.8101381" lon="-118.3945206">
  <ele>-24.41</ele>
  <time>2026-09-02T22:08:38Z</time>
  <course>202.45</course>
  <speed>1.0</speed>
  <fix>3d</fix>
</trkpt>
<trkpt lat="33.8101363" lon="-118.3945212">
  <ele>-25.017</ele>
  <time>2026-09-02T22:08:38Z</time>
  <course>292.33</course>
  <speed>0.9749871794028884</speed>
  <fix>3d</fix>
</trkpt>
<trkpt lat="33.8101381" lon="-118.3945206">
  <ele>-24.41</ele>
  <time>2026-09-02T22:08:38Z</time>
  <course>202.45</course>
  <speed>1.0</speed>
  <fix>3d</fix>
</trkpt>
<trkpt lat="33.8101355" lon="-118.3945216">
  <ele>-25.016</ele>
  <time>2026-09-02T22:08:38Z</time>
  <course>292.45</course>
  <speed>0.9656603957913983</speed>
  <fix>3d</fix>
</trkpt>
<trkpt lat="33.8101365" lon="-118.3945215">
  <ele>-24.41</ele>
  <time>2026-09-02T22:08:38Z</time>
  <course>202.73</course>
  <speed>1.0</speed>
  <fix>3d</fix>
</trkpt>
<trkpt lat="33.8101347" lon="-118.3945221">
  <ele>-25.014</ele>
  <time>2026-09-02T22:08:38Z</time>
  <course>292.57</course>
  <speed>0.9656603957913983</speed>
  <fix>3d</fix>
</trkpt>
<trkpt lat="33.8101365" lon="-118.3945215">
  <ele>-24.41</ele>
  <time>2026-09-02T22:08:38Z</time>
  <course>202.73</course>
  <speed>1.0</speed>
  <fix>3d</fix>
</trkpt>
<trkpt lat="33.8101339" lon="-118.3945225">
  <ele>-25.011</ele>
  <time>2026-09-02T22:08:38Z</time>
  <course>292.68</course>
  <speed>0.9693296652842107</speed>
  <fix>3d</fix>
</trkpt>
<trkpt lat="33.8101348" lon="-118.3945223">
  <ele>-24.4</ele>
  <time>2026-09-02T22:08:38Z</time>
  <course>202.96</course>
  <speed>1.0</speed>
  <fix>3d</fix>
</trkpt>
<trkpt lat="33.810133" lon="-118.3945229">
  <ele>-25.008</ele>
  <time>2026-09-02T22:08:38Z</time>
  <course>292.8</course>
  <speed>0.9693296652842107</speed>
  <fix>3d</fix>
</trkpt>
<trkpt lat="33.8101348" lon="-118.3945223">
  <ele>-24.4</ele>
  <time>2026-09-02T22:08:38Z</time>
  <course>202.96</course>
  <speed>1.0</speed>
  <fix>3d</fix>
</trkpt>
<trkpt lat="33.8101322" lon="-118.3945233">
  <ele>-25.006</ele>
  <time>2026-09-02T22:08:38Z</time>
  <course>292.92</course>
  <speed>0.9693296652842107</speed>
  <fix>3d</fix>
</trkpt>
<trkpt lat="33.8101331" lon="-118.3945231">
  <ele>-24.4</ele>
  <time>2026-09-02T22:08:38Z</time>
  <course>203.13</course>
  <speed>1.0</speed>
  <fix>3d</fix>
</trkpt>
<trkpt lat="33.8101314" lon="-118.3945238">
  <ele>-25.006</ele>
  <time>2026-09-02T22:08:38Z</time>
  <course>293.03</course>
  <speed>0.9693296652842107</speed>
  <fix>3d</fix>
</trkpt>
<trkpt lat="33.8101331" lon="-118.3945231">
  <ele>-24.4</ele>
  <time>2026-09-02T22:08:38Z</time>
  <course>203.13</course>
  <speed>1.0</speed>
  <fix>3d</fix>
</trkpt>
<trkpt lat="33.8101305" lon="-118.3945242">
  <ele>-25.008</ele>
  <time>2026-09-02T22:08:38Z</time>
  <course>293.15</course>
  <speed>0.9693296652842107</speed>
  <fix>3d</fix>
</trkpt>
<trkpt lat="33.8101315" lon="-118.394524">
  <ele>-24.4</ele>
  <time>2026-09-02T22:08:38Z</time>
  <course>203.35</course>
  <speed>1.0</speed>
  <fix>3d</fix>
</trkpt>
<trkpt lat="33.8101297" lon="-118.3945246">
  <ele>-25.01</ele>
  <time>2026-09-02T22:08:38Z</time>
  <course>293.27</course>
  <speed>0.9693296652842107</speed>
  <fix>3d</fix>
</trkpt>
<trkpt lat="33.8101315" lon="-118.394524">
  <ele>-24.4</ele>
  <time>2026-09-02T22:08:38Z</time>
  <course>203.35</course>
  <speed>1.0</speed>
  <fix>3d</fix>
</trkpt>
<trkpt lat="33.8101289" lon="-118.3945251">
  <ele>-25.012</ele>
  <time>2026-09-02T22:08:38Z</time>
  <course>293.38</course>
  <speed>0.9730878685915265</speed>
  <fix>3d</fix>
</trkpt>
<trkpt lat="33.8101299" lon="-118.3945248">
  <ele>-24.4</ele>
  <time>2026-09-02T22:08:38Z</time>
  <course>203.6</course>
  <speed>1.0</speed>
  <fix>3d</fix>
</trkpt>
<trkpt lat="33.8101281" lon="-118.3945255">
  <ele>-25.013</ele>
  <time>2026-09-02T22:08:38Z</time>
  <course>293.5</course>
  <speed>0.9730878685915265</speed>
  <fix>3d</fix>
</trkpt>
<trkpt lat="33.8101299" lon="-118.3945248">
  <ele>-24.4</ele>
  <time>2026-09-02T22:08:38Z</time>
  <course>203.6</course>
  <speed>1.0</speed>
  <fix>3d</fix>
</trkpt>
<trkpt lat="33.8101272" lon="-118.3945259">
  <ele>-25.014</ele>
  <time>2026-09-02T22:08:38Z</time>
  <course>293.61</course>
  <speed>0.9730878685915265</speed>
  <fix>3d</fix>
</trkpt>
<trkpt lat="33.8101282" lon="-118.3945257">
  <ele>-24.41</ele>
  <time>2026-09-02T22:08:38Z</time>
  <course>203.84</course>
  <speed>1.0</speed>
  <fix>3d</fix>
</trkpt>
<trkpt lat="33.8101264" lon="-118.3945264">
  <ele>-25.015</ele>
  <time>2026-09-02T22:08:38Z</time>
  <course>293.73</course>
  <speed>0.9730878685915265</speed>
  <fix>3d</fix>
</trkpt>
<trkpt lat="33.8101282" lon="-118.3945257">
  <ele>-24.41</ele>
  <time>2026-09-02T22:08:38Z</time>
  <course>203.84</course>
  <speed>1.0</speed>
  <fix>3d</fix>
</trkpt>
<trkpt lat="33.8101256" lon="-118.3945268">
  <ele>-25.016</ele>
  <time>2026-09-02T22:08:38Z</time>
  <course>293.85</course>
  <speed>0.9730878685915265</speed>
  <fix>3d</fix>
</trkpt>
<trkpt lat="33.8101266" lon="-118.3945266">
  <ele>-24.41</ele>
  <time>2026-09-02T22:08:38Z</time>
  <course>204.08</course>
  <speed>1.0</speed>
  <fix>3d</fix>
</trkpt>
<trkpt lat="33.8101248" lon="-118.3945273">
  <ele>-25.017</ele>
  <time>2026-09-02T22:08:38Z</time>
  <course>293.96</course>
  <speed>0.976933979345585</speed>
  <fix>3d</fix>
</trkpt>
<trkpt lat="33.8101266" lon="-118.3945266">
  <ele>-24.41</ele>
  <time>2026-09-02T22:08:38Z</time>
  <course>204.08</course>
  <speed>1.0</speed>
  <fix>3d</fix>
</trkpt>
<trkpt lat="33.810124" lon="-118.3945277">
  <ele>-25.018</ele>
  <time>2026-09-02T22:08:38Z</time>
  <course>294.07</course>
  <speed>0.976933979345585</speed>
  <fix>3d</fix>
</trkpt>
<trkpt lat="33.8101249" lon="-118.3945275">
  <ele>-24.41</ele>
  <time>2026-09-02T22:08:38Z</time>
  <course>204.31</course>
  <speed>1.0</speed>
  <fix>3d</fix>
</trkpt>
<trkpt lat="33.8101231" lon="-118.3945282">
  <ele>-25.019</ele>
  <time>2026-09-02T22:08:38Z</time>
  <course>294.19</course>
  <speed>0.9677293009927931</speed>
  <fix>3d</fix>
</trkpt>
<trkpt lat="33.8101249" lon="-118.3945275">
  <ele>-24.41</ele>
  <time>2026-09-02T22:08:38Z</time>
  <course>204.31</course>
  <speed>1.0</speed>
  <fix>3d</fix>
</trkpt>
<trkpt lat="33.8101223" lon="-118.3945286">
  <ele>-25.019</ele>
  <time>2026-09-02T22:08:38Z</time>
  <course>294.31</course>
  <speed>0.9677293009927931</speed>
  <fix>3d</fix>
</trkpt>
<trkpt lat="33.8101233" lon="-118.3945284">
  <ele>-24.41</ele>
  <time>2026-09-02T22:08:38Z</time>
  <course>204.53</course>
  <speed>1.0</speed>
  <fix>3d</fix>
</trkpt>
<trkpt lat="33.8101215" lon="-118.3945291">
  <ele>-25.017</ele>
  <time>2026-09-02T22:08:38Z</time>
  <course>294.43</course>
  <speed>0.9677293009927931</speed>
  <fix>3d</fix>
</trkpt>
<trkpt lat="33.8101233" lon="-118.3945284">
  <ele>-24.41</ele>
  <time>2026-09-02T22:08:38Z</time>
  <course>204.53</course>
  <speed>1.0</speed>
  <fix>3d</fix>
</trkpt>
<trkpt lat="33.8101207" lon="-118.3945295">
  <ele>-25.016</ele>
  <time>2026-09-02T22:08:38Z</time>
  <course>294.55</course>
  <speed>0.9677293009927931</speed>
  <fix>3d</fix>
</trkpt>
<trkpt lat="33.8101216" lon="-118.3945293">
  <ele>-24.4</ele>
  <time>2026-09-02T22:08:38Z</time>
  <course>204.73</course>
  <speed>1.0</speed>
  <fix>3d</fix>
</trkpt>
<trkpt lat="33.8101199" lon="-118.39453">
  <ele>-25.014</ele>
  <time>2026-09-02T22:08:38Z</time>
  <course>294.66</course>
  <speed>0.9716995420396163</speed>
  <fix>3d</fix>
</trkpt>
<trkpt lat="33.8101216" lon="-118.3945293">
  <ele>-24.4</ele>
  <time>2026-09-02T22:08:38Z</time>
  <course>204.73</course>
  <speed>1.0</speed>
  <fix>3d</fix>
</trkpt>
<trkpt lat="33.810119" lon="-118.3945304">
  <ele>-25.012</ele>
  <time>2026-09-02T22:08:38Z</time>
  <course>294.78</course>
  <speed>0.9716995420396163</speed>
  <fix>3d</fix>
</trkpt>
<trkpt lat="33.81012" lon="-118.3945302">
  <ele>-24.4</ele>
  <time>2026-09-02T22:08:38Z</time>
  <course>204.95</course>
  <speed>1.0</speed>
  <fix>3d</fix>
</trkpt>
<trkpt lat="33.8101182" lon="-118.3945309">
  <ele>-25.01</ele>
  <time>2026-09-02T22:08:38Z</time>
  <course>294.9</course>
  <speed>0.9716995420396163</speed>
  <fix>3d</fix>
</trkpt>
<trkpt lat="33.81012" lon="-118.3945302">
  <ele>-24.4</ele>
  <time>2026-09-02T22:08:38Z</time>
  <course>204.95</course>
  <speed>1.0</speed>
  <fix>3d</fix>
</trkpt>
<trkpt lat="33.8101174" lon="-118.3945314">
  <ele>-25.009</ele>
  <time>2026-09-02T22:08:38Z</time>
  <course>295.01</course>
  <speed>0.9716995420396163</speed>
  <fix>3d</fix>
</trkpt>
<trkpt lat="33.8101183" lon="-118.3945311">
  <ele>-24.4</ele>
  <time>2026-09-02T22:08:38Z</time>
  <course>205.18</course>
  <speed>0.99</speed>
  <fix>3d</fix>
</trkpt>
<trkpt lat="33.8101166" lon="-118.3945318">
  <ele>-25.01</ele>
  <time>2026-09-02T22:08:38Z</time>
  <course>295.13</course>
  <speed>0.9716995420396163</speed>
  <fix>3d</fix>
</trkpt>
<trkpt lat="33.8101183" lon="-118.3945311">
  <ele>-24.4</ele>
  <time>2026-09-02T22:08:38Z</time>
  <course>205.18</course>
  <speed>0.99</speed>
  <fix>3d</fix>
</trkpt>
<trkpt lat="33.8101158" lon="-118.3945323">
  <ele>-25.01</ele>
  <time>2026-09-02T22:08:38Z</time>
  <course>295.24</course>
  <speed>0.9666436778875658</speed>
  <fix>3d</fix>
</trkpt>
<trkpt lat="33.8101168" lon="-118.394532">
  <ele>-24.4</ele>
  <time>2026-09-02T22:08:38Z</time>
  <course>205.42</course>
  <speed>0.99</speed>
  <fix>3d</fix>
</trkpt>
<trkpt lat="33.810115" lon="-118.3945328">
  <ele>-25.011</ele>
  <time>2026-09-02T22:08:38Z</time>
  <course>295.36</course>
  <speed>0.9666436778875658</speed>
  <fix>3d</fix>
</trkpt>
<trkpt lat="33.8101168" lon="-118.394532">
  <ele>-24.4</ele>
  <time>2026-09-02T22:08:38Z</time>
  <course>205.42</course>
  <speed>0.99</speed>
  <fix>3d</fix>
</trkpt>
<trkpt lat="33.8101142" lon="-118.3945332">
  <ele>-25.012</ele>
  <time>2026-09-02T22:08:38Z</time>
  <course>295.48</course>
  <speed>0.9666436778875658</speed>
  <fix>3d</fix>
</trkpt>
<trkpt lat="33.8101152" lon="-118.394533">
  <ele>-24.4</ele>
  <time>2026-09-02T22:08:38Z</time>
  <course>205.7</course>
  <speed>0.99</speed>
  <fix>3d</fix>
</trkpt>
<trkpt lat="33.8101134" lon="-118.3945337">
  <ele>-25.013</ele>
  <time>2026-09-02T22:08:38Z</time>
  <course>295.59</course>
  <speed>0.9666436778875658</speed>
  <fix>3d</fix>
</trkpt>
<trkpt lat="33.8101152" lon="-118.394533">
  <ele>-24.4</ele>
  <time>2026-09-02T22:08:38Z</time>
  <course>205.7</course>
  <speed>0.99</speed>
  <fix>3d</fix>
</trkpt>
<trkpt lat="33.8101125" lon="-118.3945342">
  <ele>-25.014</ele>
  <time>2026-09-02T22:08:38Z</time>
  <course>295.71</course>
  <speed>0.9666436778875658</speed>
  <fix>3d</fix>
</trkpt>
<trkpt lat="33.8101135" lon="-118.3945339">
  <ele>-24.4</ele>
  <time>2026-09-02T22:08:38Z</time>
  <course>205.91</course>
  <speed>0.99</speed>
  <fix>3d</fix>
</trkpt>
<trkpt lat="33.8101117" lon="-118.3945346">
  <ele>-25.013</ele>
  <time>2026-09-02T22:08:38Z</time>
  <course>295.83</course>
  <speed>0.9666436778875658</speed>
  <fix>3d</fix>
</trkpt>
<trkpt lat="33.8101135" lon="-118.3945339">
  <ele>-24.4</ele>
  <time>2026-09-02T22:08:38Z</time>
  <course>205.91</course>
  <speed>0.99</speed>
  <fix>3d</fix>
</trkpt>
<trkpt lat="33.8101109" lon="-118.3945351">
  <ele>-25.012</ele>
  <time>2026-09-02T22:08:38Z</time>
  <course>295.95</course>
  <speed>0.97082439194738</speed>
  <fix>3d</fix>
</trkpt>
<trkpt lat="33.810112" lon="-118.3945349">
  <ele>-24.4</ele>
  <time>2026-09-02T22:08:38Z</time>
  <course>206.1</course>
  <speed>0.99</speed>
  <fix>3d</fix>
</trkpt>
<trkpt lat="33.8101101" lon="-118.3945356">
  <ele>-25.01</ele>
  <time>2026-09-02T22:08:38Z</time>
  <course>296.06</course>
  <speed>0.97082439194738</speed>
  <fix>3d</fix>
</trkpt>
<trkpt lat="33.810112" lon="-118.3945349">
  <ele>-24.4</ele>
  <time>2026-09-02T22:08:38Z</time>
  <course>206.1</course>
  <speed>0.99</speed>
  <fix>3d</fix>
</trkpt>
<trkpt lat="33.8101093" lon="-118.3945361">
  <ele>-25.008</ele>
  <time>2026-09-02T22:08:38Z</time>
  <course>296.17</course>
  <speed>0.97082439194738</speed>
  <fix>3d</fix>
</trkpt>
<trkpt lat="33.8101103" lon="-118.3945358">
  <ele>-24.4</ele>
  <time>2026-09-02T22:08:38Z</time>
  <course>206.29</course>
  <speed>1.0</speed>
  <fix>3d</fix>
</trkpt>
<trkpt lat="33.8101085" lon="-118.3945366">
  <ele>-25.006</ele>
  <time>2026-09-02T22:08:38Z</time>
  <course>296.29</course>
  <speed>0.97082439194738</speed>
  <fix>3d</fix>
</trkpt>
<trkpt lat="33.8101103" lon="-118.3945358">
  <ele>-24.4</ele>
  <time>2026-09-02T22:08:38Z</time>
  <course>206.29</course>
  <speed>1.0</speed>
  <fix>3d</fix>
</trkpt>
<trkpt lat="33.8101077" lon="-118.3945371">
  <ele>-25.005</ele>
  <time>2026-09-02T22:08:38Z</time>
  <course>296.4</course>
  <speed>0.97082439194738</speed>
  <fix>3d</fix>
</trkpt>
<trkpt lat="33.8101087" lon="-118.3945368">
  <ele>-24.4</ele>
  <time>2026-09-02T22:08:38Z</time>
  <course>206.46</course>
  <speed>1.0</speed>
  <fix>3d</fix>
</trkpt>
<trkpt lat="33.8101069" lon="-118.3945375">
  <ele>-25.006</ele>
  <time>2026-09-02T22:08:38Z</time>
  <course>296.52</course>
  <speed>0.97082439194738</speed>
  <fix>3d</fix>
</trkpt>
<trkpt lat="33.8101087" lon="-118.3945368">
  <ele>-24.4</ele>
  <time>2026-09-02T22:08:38Z</time>
  <course>206.46</course>
  <speed>1.0</speed>
  <fix>3d</fix>
</trkpt>
<trkpt lat="33.8101061" lon="-118.394538">
  <ele>-25.008</ele>
  <time>2026-09-02T22:08:38Z</time>
  <course>296.64</course>
  <speed>0.9750897394599124</speed>
  <fix>3d</fix>
</trkpt>
<trkpt lat="33.810107" lon="-118.3945378">
  <ele>-24.4</ele>
  <time>2026-09-02T22:08:38Z</time>
  <course>206.69</course>
  <speed>1.0</speed>
  <fix>3d</fix>
</trkpt>
<trkpt lat="33.8101053" lon="-118.3945385">
  <ele>-25.01</ele>
  <time>2026-09-02T22:08:38Z</time>
  <course>296.76</course>
  <speed>0.9750897394599124</speed>
  <fix>3d</fix>
</trkpt>
<trkpt lat="33.810107" lon="-118.3945378">
  <ele>-24.4</ele>
  <time>2026-09-02T22:08:38Z</time>
  <course>206.69</course>
  <speed>1.0</speed>
  <fix>3d</fix>
</trkpt>
<trkpt lat="33.8101045" lon="-118.394539">
  <ele>-25.012</ele>
  <time>2026-09-02T22:08:38Z</time>
  <course>296.87</course>
  <speed>0.9750897394599124</speed>
  <fix>3d</fix>
</trkpt>
<trkpt lat="33.8101055" lon="-118.3945387">
  <ele>-24.41</ele>
  <time>2026-09-02T22:08:38Z</time>
  <course>206.93</course>
  <speed>0.99</speed>
  <fix>3d</fix>
</trkpt>
<trkpt lat="33.8101037" lon="-118.3945395">
  <ele>-25.014</ele>
  <time>2026-09-02T22:08:38Z</time>
  <course>296.98</course>
  <speed>0.9660745312862771</speed>
  <fix>3d</fix>
</trkpt>
<trkpt lat="33.8101055" lon="-118.3945387">
  <ele>-24.41</ele>
  <time>2026-09-02T22:08:38Z</time>
  <course>206.93</course>
  <speed>0.99</speed>
  <fix>3d</fix>
</trkpt>
<trkpt lat="33.8101029" lon="-118.39454">
  <ele>-25.016</ele>
  <time>2026-09-02T22:08:38Z</time>
  <course>297.1</course>
  <speed>0.9660745312862771</speed>
  <fix>3d</fix>
</trkpt>
<trkpt lat="33.8101039" lon="-118.3945397">
  <ele>-24.41</ele>
  <time>2026-09-02T22:08:38Z</time>
  <course>207.19</course>
  <speed>0.99</speed>
  <fix>3d</fix>
</trkpt>
<trkpt lat="33.8101021" lon="-118.3945405">
  <ele>-25.017</ele>
  <time>2026-09-02T22:08:38Z</time>
  <course>297.22</course>
  <speed>0.9704638066409278</speed>
  <fix>3d</fix>
</trkpt>
<trkpt lat="33.8101039" lon="-118.3945397">
  <ele>-24.41</ele>
  <time>2026-09-02T22:08:38Z</time>
  <course>207.19</course>
  <speed>0.99</speed>
  <fix>3d</fix>
</trkpt>
<trkpt lat="33.8101013" lon="-118.394541">
  <ele>-25.017</ele>
  <time>2026-09-02T22:08:38Z</time>
  <course>297.34</course>
  <speed>0.9704638066409278</speed>
  <fix>3d</fix>
</trkpt>
<trkpt lat="33.8101022" lon="-118.3945407">
  <ele>-24.41</ele>
  <time>2026-09-02T22:08:38Z</time>
  <course>207.44</course>
  <speed>0.99</speed>
  <fix>3d</fix>
</trkpt>
<trkpt lat="33.8101005" lon="-118.3945415">
  <ele>-25.018</ele>
  <time>2026-09-02T22:08:38Z</time>
  <course>297.45</course>
  <speed>0.9704638066409278</speed>
  <fix>3d</fix>
</trkpt>
<trkpt lat="33.8101022" lon="-118.3945407">
  <ele>-24.41</ele>
  <time>2026-09-02T22:08:38Z</time>
  <course>207.44</course>
  <speed>0.99</speed>
  <fix>3d</fix>
</trkpt>
<trkpt lat="33.8100997" lon="-118.394542">
  <ele>-25.018</ele>
  <time>2026-09-02T22:08:38Z</time>
  <course>297.57</course>
  <speed>0.9704638066409278</speed>
  <fix>3d</fix>
</trkpt>
<trkpt lat="33.8101007" lon="-118.3945417">
  <ele>-24.41</ele>
  <time>2026-09-02T22:08:38Z</time>
  <course>207.71</course>
  <speed>0.99</speed>
  <fix>3d</fix>
</trkpt>
<trkpt lat="33.8100989" lon="-118.3945425">
  <ele>-25.018</ele>
  <time>2026-09-02T22:08:38Z</time>
  <course>297.68</course>
  <speed>0.9704638066409278</speed>
  <fix>3d</fix>
</trkpt>
<trkpt lat="33.8101007" lon="-118.3945417">
  <ele>-24.41</ele>
  <time>2026-09-02T22:08:38Z</time>
  <course>207.71</course>
  <speed>0.99</speed>
  <fix>3d</fix>
</trkpt>
<trkpt lat="33.8100981" lon="-118.394543">
  <ele>-25.017</ele>
  <time>2026-09-02T22:08:38Z</time>
  <course>297.8</course>
  <speed>0.9704638066409278</speed>
  <fix>3d</fix>
</trkpt>
<trkpt lat="33.8100991" lon="-118.3945427">
  <ele>-24.41</ele>
  <time>2026-09-02T22:08:38Z</time>
  <course>207.97</course>
  <speed>0.99</speed>
  <fix>3d</fix>
</trkpt>
<trkpt lat="33.8100973" lon="-118.3945436">
  <ele>-25.016</ele>
  <time>2026-09-02T22:08:38Z</time>
  <course>297.91</course>
  <speed>0.9749358953285082</speed>
  <fix>3d</fix>
</trkpt>
<trkpt lat="33.8100991" lon="-118.3945427">
  <ele>-24.41</ele>
  <time>2026-09-02T22:08:38Z</time>
  <course>207.97</course>
  <speed>0.99</speed>
  <fix>3d</fix>
</trkpt>
<trkpt lat="33.8100965" lon="-118.3945441">
  <ele>-25.015</ele>
  <time>2026-09-02T22:08:38Z</time>
  <course>298.03</course>
  <speed>0.9749358953285082</speed>
  <fix>3d</fix>
</trkpt>
<trkpt lat="33.8100976" lon="-118.3945437">
  <ele>-24.41</ele>
  <time>2026-09-02T22:08:38Z</time>
  <course>208.21</course>
  <speed>0.99</speed>
  <fix>3d</fix>
</trkpt>
<trkpt lat="33.8100957" lon="-118.3945446">
  <ele>-25.015</ele>
  <time>2026-09-02T22:08:38Z</time>
  <course>298.15</course>
  <speed>0.9749358953285082</speed>
  <fix>3d</fix>
</trkpt>
<trkpt lat="33.8100976" lon="-118.3945437">
  <ele>-24.41</ele>
  <time>2026-09-02T22:08:38Z</time>
  <course>208.21</course>
  <speed>0.99</speed>
  <fix>3d</fix>
</trkpt>
<trkpt lat="33.810095" lon="-118.3945451">
  <ele>-25.015</ele>
  <time>2026-09-02T22:08:38Z</time>
  <course>298.26</course>
  <speed>0.9749358953285082</speed>
  <fix>3d</fix>
</trkpt>
<trkpt lat="33.810096" lon="-118.3945447">
  <ele>-24.41</ele>
  <time>2026-09-02T22:08:38Z</time>
  <course>208.44</course>
  <speed>0.99</speed>
  <fix>3d</fix>
</trkpt>
<trkpt lat="33.8100942" lon="-118.3945456">
  <ele>-25.015</ele>
  <time>2026-09-02T22:08:38Z</time>
  <course>298.38</course>
  <speed>0.9749358953285082</speed>
  <fix>3d</fix>
</trkpt>
<trkpt lat="33.810096" lon="-118.3945447">
  <ele>-24.41</ele>
  <time>2026-09-02T22:08:38Z</time>
  <course>208.44</course>
  <speed>0.99</speed>
  <fix>3d</fix>
</trkpt>
<trkpt lat="33.8100934" lon="-118.3945461">
  <ele>-25.015</ele>
  <time>2026-09-02T22:08:38Z</time>
  <course>298.49</course>
  <speed>0.9706183596038146</speed>
  <fix>3d</fix>
</trkpt>
<trkpt lat="33.8100943" lon="-118.3945458">
  <ele>-24.41</ele>
  <time>2026-09-02T22:08:38Z</time>
  <course>208.64</course>
  <speed>1.0</speed>
  <fix>3d</fix>
</trkpt>
<trkpt lat="33.8100926" lon="-118.3945467">
  <ele>-25.016</ele>
  <time>2026-09-02T22:08:38Z</time>
  <course>298.61</course>
  <speed>0.9706183596038146</speed>
  <fix>3d</fix>
</trkpt>
<trkpt lat="33.8100943" lon="-118.3945458">
  <ele>-24.41</ele>
  <time>2026-09-02T22:08:38Z</time>
  <course>208.64</course>
  <speed>1.0</speed>
  <fix>3d</fix>
</trkpt>
<trkpt lat="33.8100918" lon="-118.3945472">
  <ele>-25.017</ele>
  <time>2026-09-02T22:08:38Z</time>
  <course>298.72</course>
  <speed>0.9706183596038146</speed>
  <fix>3d</fix>
</trkpt>
<trkpt lat="33.8100928" lon="-118.3945468">
  <ele>-24.4</ele>
  <time>2026-09-02T22:08:38Z</time>
  <course>208.88</course>
  <speed>1.0</speed>
  <fix>3d</fix>
</trkpt>
<trkpt lat="33.810091" lon="-118.3945477">
  <ele>-25.017</ele>
  <time>2026-09-02T22:08:38Z</time>
  <course>298.84</course>
  <speed>0.9706183596038146</speed>
  <fix>3d</fix>
</trkpt>
<trkpt lat="33.8100928" lon="-118.3945468">
  <ele>-24.4</ele>
  <time>2026-09-02T22:08:38Z</time>
  <course>208.88</course>
  <speed>1.0</speed>
  <fix>3d</fix>
</trkpt>
<trkpt lat="33.8100902" lon="-118.3945482">
  <ele>-25.015</ele>
  <time>2026-09-02T22:08:38Z</time>
  <course>298.95</course>
  <speed>0.9706183596038146</speed>
  <fix>3d</fix>
</trkpt>
<trkpt lat="33.8100912" lon="-118.3945479">
  <ele>-24.4</ele>
  <time>2026-09-02T22:08:38Z</time>
  <course>209.13</course>
  <speed>1.0</speed>
  <fix>3d</fix>
</trkpt>
<trkpt lat="33.8100894" lon="-118.3945488">
  <ele>-25.013</ele>
  <time>2026-09-02T22:08:38Z</time>
  <course>299.07</course>
  <speed>0.9706183596038146</speed>
  <fix>3d</fix>
</trkpt>
<trkpt lat="33.8100912" lon="-118.3945479">
  <ele>-24.4</ele>
  <time>2026-09-02T22:08:38Z</time>
  <course>209.13</course>
  <speed>1.0</speed>
  <fix>3d</fix>
</trkpt>
<trkpt lat="33.8100886" lon="-118.3945493">
  <ele>-25.011</ele>
  <time>2026-09-02T22:08:38Z</time>
  <course>299.19</course>
  <speed>0.9752948272189288</speed>
  <fix>3d</fix>
</trkpt>
<trkpt lat="33.8100897" lon="-118.3945489">
  <ele>-24.4</ele>
  <time>2026-09-02T22:08:38Z</time>
  <course>209.37</course>
  <speed>1.0</speed>
  <fix>3d</fix>
</trkpt>
<trkpt lat="33.8100879" lon="-118.3945498">
  <ele>-25.01</ele>
  <time>2026-09-02T22:08:38Z</time>
  <course>299.3</course>
  <speed>0.9752948272189288</speed>
  <fix>3d</fix>
</trkpt>
<trkpt lat="33.8100897" lon="-118.3945489">
  <ele>-24.4</ele>
  <time>2026-09-02T22:08:38Z</time>
  <course>209.37</course>
  <speed>1.0</speed>
  <fix>3d</fix>
</trkpt>
<trkpt lat="33.8100871" lon="-118.3945504">
  <ele>-25.01</ele>
  <time>2026-09-02T22:08:38Z</time>
  <course>299.42</course>
  <speed>0.9752948272189288</speed>
  <fix>3d</fix>
</trkpt>
<trkpt lat="33.8100881" lon="-118.39455">
  <ele>-24.4</ele>
  <time>2026-09-02T22:08:38Z</time>
  <course>209.59</course>
  <speed>1.0</speed>
  <fix>3d</fix>
</trkpt>
<trkpt lat="33.8100863" lon="-118.3945509">
  <ele>-25.01</ele>
  <time>2026-09-02T22:08:38Z</time>
  <course>299.53</course>
  <speed>0.9752948272189288</speed>
  <fix>3d</fix>
</trkpt>
<trkpt lat="33.8100881" lon="-118.39455">
  <ele>-24.4</ele>
  <time>2026-09-02T22:08:38Z</time>
  <course>209.59</course>
  <speed>1.0</speed>
  <fix>3d</fix>
</trkpt>
<trkpt lat="33.8100855" lon="-118.3945514">
  <ele>-25.011</ele>
  <time>2026-09-02T22:08:38Z</time>
  <course>299.65</course>
  <speed>0.9752948272189288</speed>
  <fix>3d</fix>
</trkpt>
<trkpt lat="33.8100866" lon="-118.394551">
  <ele>-24.4</ele>
  <time>2026-09-02T22:08:38Z</time>
  <course>209.79</course>
  <speed>1.0</speed>
  <fix>3d</fix>
</trkpt>
<trkpt lat="33.8100848" lon="-118.394552">
  <ele>-25.011</ele>
  <time>2026-09-02T22:08:38Z</time>
  <course>299.77</course>
  <speed>0.9752948272189288</speed>
  <fix>3d</fix>
</trkpt>
<trkpt lat="33.8100866" lon="-118.394551">
  <ele>-24.4</ele>
  <time>2026-09-02T22:08:38Z</time>
  <course>209.79</course>
  <speed>1.0</speed>
  <fix>3d</fix>
</trkpt>
<trkpt lat="33.810084" lon="-118.3945525">
  <ele>-25.012</ele>
  <time>2026-09-02T22:08:38Z</time>
  <course>299.88</course>
  <speed>0.9712878049270464</speed>
  <fix>3d</fix>
</trkpt>
<trkpt lat="33.810085" lon="-118.3945521">
  <ele>-24.4</ele>
  <time>2026-09-02T22:08:38Z</time>
  <course>210.0</course>
  <speed>1.0</speed>
  <fix>3d</fix>
</trkpt>
<trkpt lat="33.8100832" lon="-118.3945531">
  <ele>-25.012</ele>
  <time>2026-09-02T22:08:38Z</time>
  <course>300.0</course>
  <speed>0.9712878049270464</speed>
  <fix>3d</fix>
</trkpt>
<trkpt lat="33.810085" lon="-118.3945521">
  <ele>-24.4</ele>
  <time>2026-09-02T22:08:38Z</time>
  <course>210.0</course>
  <speed>1.0</speed>
  <fix>3d</fix>
</trkpt>
<trkpt lat="33.8100824" lon="-118.3945536">
  <ele>-25.012</ele>
  <time>2026-09-02T22:08:38Z</time>
  <course>300.11</course>
  <speed>0.9712878049270464</speed>
  <fix>3d</fix>
</trkpt>
<trkpt lat="33.8100834" lon="-118.3945532">
  <ele>-24.4</ele>
  <time>2026-09-02T22:08:38Z</time>
  <course>210.23</course>
  <speed>1.0</speed>
  <fix>3d</fix>
</trkpt>
<trkpt lat="33.8100816" lon="-118.3945542">
  <ele>-25.012</ele>
  <time>2026-09-02T22:08:38Z</time>
  <course>300.22</course>
  <speed>0.9712878049270464</speed>
  <fix>3d</fix>
</trkpt>
<trkpt lat="33.8100834" lon="-118.3945532">
  <ele>-24.4</ele>
  <time>2026-09-02T22:08:38Z</time>
  <course>210.23</course>
  <speed>1.0</speed>
  <fix>3d</fix>
</trkpt>
<trkpt lat="33.8100809" lon="-118.3945547">
  <ele>-25.013</ele>
  <time>2026-09-02T22:08:38Z</time>
  <course>300.34</course>
  <speed>0.9712878049270464</speed>
  <fix>3d</fix>
</trkpt>
<trkpt lat="33.8100819" lon="-118.3945543">
  <ele>-24.4</ele>
  <time>2026-09-02T22:08:38Z</time>
  <course>210.48</course>
  <speed>1.0</speed>
  <fix>3d</fix>
</trkpt>
<trkpt lat="33.8100801" lon="-118.3945553">
  <ele>-25.013</ele>
  <time>2026-09-02T22:08:38Z</time>
  <course>300.46</course>
  <speed>0.9761659694949419</speed>
  <fix>3d</fix>
</trkpt>
<trkpt lat="33.8100819" lon="-118.3945543">
  <ele>-24.4</ele>
  <time>2026-09-02T22:08:38Z</time>
  <course>210.48</course>
  <speed>1.0</speed>
  <fix>3d</fix>
</trkpt>
<trkpt lat="33.8100793" lon="-118.3945558">
  <ele>-25.013</ele>
  <time>2026-09-02T22:08:38Z</time>
  <course>300.57</course>
  <speed>0.9761659694949419</speed>
  <fix>3d</fix>
</trkpt>
<trkpt lat="33.8100803" lon="-118.3945554">
  <ele>-24.4</ele>
  <time>2026-09-02T22:08:38Z</time>
  <course>210.72</course>
  <speed>1.0</speed>
  <fix>3d</fix>
</trkpt>
<trkpt lat="33.8100786" lon="-118.3945564">
  <ele>-25.013</ele>
  <time>2026-09-02T22:08:38Z</time>
  <course>300.69</course>
  <speed>0.9761659694949419</speed>
  <fix>3d</fix>
</trkpt>
<trkpt lat="33.8100803" lon="-118.3945554">
  <ele>-24.4</ele>
  <time>2026-09-02T22:08:38Z</time>
  <course>210.72</course>
  <speed>1.0</speed>
  <fix>3d</fix>
</trkpt>
<trkpt lat="33.8100778" lon="-118.3945569">
  <ele>-25.013</ele>
  <time>2026-09-02T22:08:38Z</time>
  <course>300.81</course>
  <speed>0.9761659694949419</speed>
  <fix>3d</fix>
</trkpt>
<trkpt lat="33.8100788" lon="-118.3945565">
  <ele>-24.4</ele>
  <time>2026-09-02T22:08:38Z</time>
  <course>210.97</course>
  <speed>1.0</speed>
  <fix>3d</fix>
</trkpt>
<trkpt lat="33.810077" lon="-118.3945575">
  <ele>-25.013</ele>
  <time>2026-09-02T22:08:38Z</time>
  <course>300.93</course>
  <speed>0.9674709297958259</speed>
  <fix>3d</fix>
</trkpt>
<trkpt lat="33.8100788" lon="-118.3945565">
  <ele>-24.4</ele>
  <time>2026-09-02T22:08:38Z</time>
  <course>210.97</course>
  <speed>1.0</speed>
  <fix>3d</fix>
</trkpt>
<trkpt lat="33.8100762" lon="-118.3945581">
  <ele>-25.013</ele>
  <time>2026-09-02T22:08:38Z</time>
  <course>301.04</course>
  <speed>0.9674709297958259</speed>
  <fix>3d</fix>
</trkpt>
<trkpt lat="33.8100772" lon="-118.3945576">
  <ele>-24.4</ele>
  <time>2026-09-02T22:08:38Z</time>
  <course>211.21</course>
  <speed>1.0</speed>
  <fix>3d</fix>
</trkpt>
<trkpt lat="33.8100755" lon="-118.3945586">
  <ele>-25.011</ele>
  <time>2026-09-02T22:08:38Z</time>
  <course>301.15</course>
  <speed>0.9724710792614863</speed>
  <fix>3d</fix>
</trkpt>
<trkpt lat="33.8100772" lon="-118.3945576">
  <ele>-24.4</ele>
  <time>2026-09-02T22:08:38Z</time>
  <course>211.21</course>
  <speed>1.0</speed>
  <fix>3d</fix>
</trkpt>
<trkpt lat="33.8100747" lon="-118.3945592">
  <ele>-25.009</ele>
  <time>2026-09-02T22:08:38Z</time>
  <course>301.27</course>
  <speed>0.9724710792614863</speed>
  <fix>3d</fix>
</trkpt>
<trkpt lat="33.8100757" lon="-118.3945588">
  <ele>-24.4</ele>
  <time>2026-09-02T22:08:38Z</time>
  <course>211.46</course>
  <speed>1.0</speed>
  <fix>3d</fix>
</trkpt>
<trkpt lat="33.8100739" lon="-118.3945598">
  <ele>-25.008</ele>
  <time>2026-09-02T22:08:38Z</time>
  <course>301.38</course>
  <speed>0.9724710792614863</speed>
  <fix>3d</fix>
</trkpt>
<trkpt lat="33.8100757" lon="-118.3945588">
  <ele>-24.4</ele>
  <time>2026-09-02T22:08:38Z</time>
  <course>211.46</course>
  <speed>1.0</speed>
  <fix>3d</fix>
</trkpt>
<trkpt lat="33.8100732" lon="-118.3945603">
  <ele>-25.008</ele>
  <time>2026-09-02T22:08:38Z</time>
  <course>301.5</course>
  <speed>0.9724710792614863</speed>
  <fix>3d</fix>
</trkpt>
<trkpt lat="33.8100742" lon="-118.3945599">
  <ele>-24.4</ele>
  <time>2026-09-02T22:08:38Z</time>
  <course>211.69</course>
  <speed>1.0</speed>
  <fix>3d</fix>
</trkpt>
<trkpt lat="33.8100724" lon="-118.3945609">
  <ele>-25.009</ele>
  <time>2026-09-02T22:08:38Z</time>
  <course>301.62</course>
  <speed>0.9724710792614863</speed>
  <fix>3d</fix>
</trkpt>
<trkpt lat="33.8100742" lon="-118.3945599">
  <ele>-24.4</ele>
  <time>2026-09-02T22:08:38Z</time>
  <course>211.69</course>
  <speed>1.0</speed>
  <fix>3d</fix>
</trkpt>
<trkpt lat="33.8100716" lon="-118.3945615">
  <ele>-25.011</ele>
  <time>2026-09-02T22:08:38Z</time>
  <course>301.73</course>
  <speed>0.9724710792614863</speed>
  <fix>3d</fix>
</trkpt>
<trkpt lat="33.8100726" lon="-118.394561">
  <ele>-24.4</ele>
  <time>2026-09-02T22:08:38Z</time>
  <course>211.88</course>
  <speed>1.0</speed>
  <fix>3d</fix>
</trkpt>
<trkpt lat="33.8100709" lon="-118.394562">
  <ele>-25.012</ele>
  <time>2026-09-02T22:08:38Z</time>
  <course>301.84</course>
  <speed>0.9775479527879949</speed>
  <fix>3d</fix>
</trkpt>
<trkpt lat="33.8100726" lon="-118.394561">
  <ele>-24.4</ele>
  <time>2026-09-02T22:08:38Z</time>
  <course>211.88</course>
  <speed>1.0</speed>
  <fix>3d</fix>
</trkpt>
<trkpt lat="33.8100701" lon="-118.3945626">
  <ele>-25.013</ele>
  <time>2026-09-02T22:08:38Z</time>
  <course>301.96</course>
  <speed>0.9689685237405805</speed>
  <fix>3d</fix>
</trkpt>
<trkpt lat="33.8100711" lon="-118.3945622">
  <ele>-24.41</ele>
  <time>2026-09-02T22:08:38Z</time>
  <course>212.09</course>
  <speed>1.0</speed>
  <fix>3d</fix>
</trkpt>
<trkpt lat="33.8100694" lon="-118.3945632">
  <ele>-25.013</ele>
  <time>2026-09-02T22:08:38Z</time>
  <course>302.08</course>
  <speed>0.9689685237405805</speed>
  <fix>3d</fix>
</trkpt>
<trkpt lat="33.8100711" lon="-118.3945622">
  <ele>-24.41</ele>
  <time>2026-09-02T22:08:38Z</time>
  <course>212.09</course>
  <speed>1.0</speed>
  <fix>3d</fix>
</trkpt>
<trkpt lat="33.8100686" lon="-118.3945638">
  <ele>-25.014</ele>
  <time>2026-09-02T22:08:38Z</time>
  <course>302.2</course>
  <speed>0.9689685237405805</speed>
  <fix>3d</fix>
</trkpt>
<trkpt lat="33.8100696" lon="-118.3945633">
  <ele>-24.41</ele>
  <time>2026-09-02T22:08:38Z</time>
  <course>212.33</course>
  <speed>1.0</speed>
  <fix>3d</fix>
</trkpt>
<trkpt lat="33.8100678" lon="-118.3945644">
  <ele>-25.014</ele>
  <time>2026-09-02T22:08:38Z</time>
  <course>302.31</course>
  <speed>0.9689685237405805</speed>
  <fix>3d</fix>
</trkpt>
<trkpt lat="33.8100696" lon="-118.3945633">
  <ele>-24.41</ele>
  <time>2026-09-02T22:08:38Z</time>
  <course>212.33</course>
  <speed>1.0</speed>
  <fix>3d</fix>
</trkpt>
<trkpt lat="33.8100671" lon="-118.3945649">
  <ele>-25.013</ele>
  <time>2026-09-02T22:08:38Z</time>
  <course>302.42</course>
  <speed>0.9689685237405805</speed>
  <fix>3d</fix>
</trkpt>
<trkpt lat="33.810068" lon="-118.3945645">
  <ele>-24.41</ele>
  <time>2026-09-02T22:08:38Z</time>
  <course>212.57</course>
  <speed>1.0</speed>
  <fix>3d</fix>
</trkpt>
<trkpt lat="33.8100663" lon="-118.3945655">
  <ele>-25.012</ele>
  <time>2026-09-02T22:08:38Z</time>
  <course>302.54</course>
  <speed>0.9689685237405805</speed>
  <fix>3d</fix>
</trkpt>
<trkpt lat="33.810068" lon="-118.3945645">
  <ele>-24.41</ele>
  <time>2026-09-02T22:08:38Z</time>
  <course>212.57</course>
  <speed>1.0</speed>
  <fix>3d</fix>
</trkpt>
<trkpt lat="33.8100656" lon="-118.3945661">
  <ele>-25.011</ele>
  <time>2026-09-02T22:08:38Z</time>
  <course>302.65</course>
  <speed>0.9741663102366043</speed>
  <fix>3d</fix>
</trkpt>
<trkpt lat="33.8100665" lon="-118.3945656">
  <ele>-24.41</ele>
  <time>2026-09-02T22:08:38Z</time>
  <course>212.81</course>
  <speed>1.0</speed>
  <fix>3d</fix>
</trkpt>
<trkpt lat="33.8100648" lon="-118.3945667">
  <ele>-25.012</ele>
  <time>2026-09-02T22:08:38Z</time>
  <course>302.77</course>
  <speed>0.9741663102366043</speed>
  <fix>3d</fix>
</trkpt>
<trkpt lat="33.8100665" lon="-118.3945656">
  <ele>-24.41</ele>
  <time>2026-09-02T22:08:38Z</time>
  <course>212.81</course>
  <speed>1.0</speed>
  <fix>3d</fix>
</trkpt>
<trkpt lat="33.810064" lon="-118.3945673">
  <ele>-25.013</ele>
  <time>2026-09-02T22:08:38Z</time>
  <course>302.88</course>
  <speed>0.9741663102366043</speed>
  <fix>3d</fix>
</trkpt>
<trkpt lat="33.810065" lon="-118.3945669">
  <ele>-24.41</ele>
  <time>2026-09-02T22:08:38Z</time>
  <course>213.09</course>
  <speed>1.0</speed>
  <fix>3d</fix>
</trkpt>
<trkpt lat="33.8100633" lon="-118.3945679">
  <ele>-25.014</ele>
  <time>2026-09-02T22:08:38Z</time>
  <course>303.0</course>
  <speed>0.9656603957913983</speed>
  <fix>3d</fix>
</trkpt>
<trkpt lat="33.810065" lon="-118.3945669">
  <ele>-24.41</ele>
  <time>2026-09-02T22:08:38Z</time>
  <course>213.09</course>
  <speed>1.0</speed>
  <fix>3d</fix>
</trkpt>
<trkpt lat="33.8100625" lon="-118.3945685">
  <ele>-25.016</ele>
  <time>2026-09-02T22:08:38Z</time>
  <course>303.11</course>
  <speed>0.9656603957913983</speed>
  <fix>3d</fix>
</trkpt>
<trkpt lat="33.8100635" lon="-118.394568">
  <ele>-24.41</ele>
  <time>2026-09-02T22:08:38Z</time>
  <course>213.36</course>
  <speed>1.0</speed>
  <fix>3d</fix>
</trkpt>
<trkpt lat="33.8100618" lon="-118.3945691">
  <ele>-25.018</ele>
  <time>2026-09-02T22:08:38Z</time>
  <course>303.23</course>
  <speed>0.9709788875150684</speed>
  <fix>3d</fix>
</trkpt>
<trkpt lat="33.8100635" lon="-118.394568">
  <ele>-24.41</ele>
  <time>2026-09-02T22:08:38Z</time>
  <course>213.36</course>
  <speed>1.0</speed>
  <fix>3d</fix>
</trkpt>
<trkpt lat="33.810061" lon="-118.3945697">
  <ele>-25.018</ele>
  <time>2026-09-02T22:08:38Z</time>
  <course>303.34</course>
  <speed>0.9709788875150684</speed>
  <fix>3d</fix>
</trkpt>
<trkpt lat="33.810062" lon="-118.3945693">
  <ele>-24.42</ele>
  <time>2026-09-02T22:08:38Z</time>
  <course>213.59</course>
  <speed>1.0</speed>
  <fix>3d</fix>
</trkpt>
<trkpt lat="33.8100603" lon="-118.3945703">
  <ele>-25.018</ele>
  <time>2026-09-02T22:08:38Z</time>
  <course>303.46</course>
  <speed>0.9709788875150684</speed>
  <fix>3d</fix>
</trkpt>
<trkpt lat="33.810062" lon="-118.3945693">
  <ele>-24.42</ele>
  <time>2026-09-02T22:08:38Z</time>
  <course>213.59</course>
  <speed>1.0</speed>
  <fix>3d</fix>
</trkpt>
<trkpt lat="33.8100595" lon="-118.3945709">
  <ele>-25.018</ele>
  <time>2026-09-02T22:08:38Z</time>
  <course>303.58</course>
  <speed>0.9709788875150684</speed>
  <fix>3d</fix>
</trkpt>
<trkpt lat="33.8100605" lon="-118.3945704">
  <ele>-24.41</ele>
  <time>2026-09-02T22:08:38Z</time>
  <course>213.8</course>
  <speed>0.99</speed>
  <fix>3d</fix>
</trkpt>
<trkpt lat="33.8100588" lon="-118.3945715">
  <ele>-25.018</ele>
  <time>2026-09-02T22:08:38Z</time>
  <course>303.69</course>
  <speed>0.9709788875150684</speed>
  <fix>3d</fix>
</trkpt>
<trkpt lat="33.8100605" lon="-118.3945704">
  <ele>-24.41</ele>
  <time>2026-09-02T22:08:38Z</time>
  <course>213.8</course>
  <speed>0.99</speed>
  <fix>3d</fix>
</trkpt>
<trkpt lat="33.8100581" lon="-118.3945721">
  <ele>-25.018</ele>
  <time>2026-09-02T22:08:38Z</time>
  <course>303.81</course>
  <speed>0.9709788875150684</speed>
  <fix>3d</fix>
</trkpt>
<trkpt lat="33.810059" lon="-118.3945717">
  <ele>-24.41</ele>
  <time>2026-09-02T22:08:38Z</time>
  <course>213.99</course>
  <speed>0.99</speed>
  <fix>3d</fix>
</trkpt>
<trkpt lat="33.8100573" lon="-118.3945727">
  <ele>-25.018</ele>
  <time>2026-09-02T22:08:38Z</time>
  <course>303.92</course>
  <speed>0.9709788875150684</speed>
  <fix>3d</fix>
</trkpt>
<trkpt lat="33.810059" lon="-118.3945717">
  <ele>-24.41</ele>
  <time>2026-09-02T22:08:38Z</time>
  <course>213.99</course>
  <speed>0.99</speed>
  <fix>3d</fix>
</trkpt>
<trkpt lat="33.8100566" lon="-118.3945733">
  <ele>-25.017</ele>
  <time>2026-09-02T22:08:38Z</time>
  <course>304.04</course>
  <speed>0.9763708311906906</speed>
  <fix>3d</fix>
</trkpt>
<trkpt lat="33.8100575" lon="-118.3945728">
  <ele>-24.41</ele>
  <time>2026-09-02T22:08:38Z</time>
  <course>214.2</course>
  <speed>1.0</speed>
  <fix>3d</fix>
</trkpt>
<trkpt lat="33.8100558" lon="-118.3945739">
  <ele>-25.015</ele>
  <time>2026-09-02T22:08:38Z</time>
  <course>304.15</course>
  <speed>0.9763708311906906</speed>
  <fix>3d</fix>
</trkpt>
<trkpt lat="33.8100575" lon="-118.3945728">
  <ele>-24.41</ele>
  <time>2026-09-02T22:08:38Z</time>
  <course>214.2</course>
  <speed>1.0</speed>
  <fix>3d</fix>
</trkpt>
<trkpt lat="33.8100551" lon="-118.3945745">
  <ele>-25.014</ele>
  <time>2026-09-02T22:08:38Z</time>
  <course>304.27</course>
  <speed>0.9763708311906906</speed>
  <fix>3d</fix>
</trkpt>
<trkpt lat="33.8100561" lon="-118.3945741">
  <ele>-24.41</ele>
  <time>2026-09-02T22:08:38Z</time>
  <course>214.42</course>
  <speed>1.0</speed>
  <fix>3d</fix>
</trkpt>
<trkpt lat="33.8100544" lon="-118.3945751">
  <ele>-25.013</ele>
  <time>2026-09-02T22:08:38Z</time>
  <course>304.39</course>
  <speed>0.9763708311906906</speed>
  <fix>3d</fix>
</trkpt>
<trkpt lat="33.8100561" lon="-118.3945741">
  <ele>-24.41</ele>
  <time>2026-09-02T22:08:38Z</time>
  <course>214.42</course>
  <speed>1.0</speed>
  <fix>3d</fix>
</trkpt>
<trkpt lat="33.8100536" lon="-118.3945758">
  <ele>-25.012</ele>
  <time>2026-09-02T22:08:38Z</time>
  <course>304.5</course>
  <speed>0.9679876032264049</speed>
  <fix>3d</fix>
</trkpt>
<trkpt lat="33.8100546" lon="-118.3945753">
  <ele>-24.4</ele>
  <time>2026-09-02T22:08:38Z</time>
  <course>214.63</course>
  <speed>1.0</speed>
  <fix>3d</fix>
</trkpt>
<trkpt lat="33.8100529" lon="-118.3945764">
  <ele>-25.012</ele>
  <time>2026-09-02T22:08:38Z</time>
  <course>304.61</course>
  <speed>0.973498844375277</speed>
  <fix>3d</fix>
</trkpt>
<trkpt lat="33.8100546" lon="-118.3945753">
  <ele>-24.4</ele>
  <time>2026-09-02T22:08:38Z</time>
  <course>214.63</course>
  <speed>1.0</speed>
  <fix>3d</fix>
</trkpt>
<trkpt lat="33.8100521" lon="-118.394577">
  <ele>-25.012</ele>
  <time>2026-09-02T22:08:38Z</time>
  <course>304.73</course>
  <speed>0.973498844375277</speed>
  <fix>3d</fix>
</trkpt>
<trkpt lat="33.8100531" lon="-118.3945766">
  <ele>-24.4</ele>
  <time>2026-09-02T22:08:38Z</time>
  <course>214.8</course>
  <speed>1.0</speed>
  <fix>3d</fix>
</trkpt>
<trkpt lat="33.8100514" lon="-118.3945776">
  <ele>-25.011</ele>
  <time>2026-09-02T22:08:38Z</time>
  <course>304.85</course>
  <speed>0.973498844375277</speed>
  <fix>3d</fix>
</trkpt>
<trkpt lat="33.8100531" lon="-118.3945766">
  <ele>-24.4</ele>
  <time>2026-09-02T22:08:38Z</time>
  <course>214.8</course>
  <speed>1.0</speed>
  <fix>3d</fix>
</trkpt>
<trkpt lat="33.8100507" lon="-118.3945782">
  <ele>-25.01</ele>
  <time>2026-09-02T22:08:38Z</time>
  <course>304.96</course>
  <speed>0.973498844375277</speed>
  <fix>3d</fix>
</trkpt>
<trkpt lat="33.8100516" lon="-118.3945778">
  <ele>-24.4</ele>
  <time>2026-09-02T22:08:38Z</time>
  <course>214.95</course>
  <speed>1.0</speed>
  <fix>3d</fix>
</trkpt>
<trkpt lat="33.8100499" lon="-118.3945789">
  <ele>-25.01</ele>
  <time>2026-09-02T22:08:38Z</time>
  <course>305.08</course>
  <speed>0.973498844375277</speed>
  <fix>3d</fix>
</trkpt>
<trkpt lat="33.8100516" lon="-118.3945778">
  <ele>-24.4</ele>
  <time>2026-09-02T22:08:38Z</time>
  <course>214.95</course>
  <speed>1.0</speed>
  <fix>3d</fix>
</trkpt>
<trkpt lat="33.8100492" lon="-118.3945795">
  <ele>-25.011</ele>
  <time>2026-09-02T22:08:38Z</time>
  <course>305.19</course>
  <speed>0.973498844375277</speed>
  <fix>3d</fix>
</trkpt>
<trkpt lat="33.8100501" lon="-118.394579">
  <ele>-24.4</ele>
  <time>2026-09-02T22:08:38Z</time>
  <course>215.13</course>
  <speed>1.0</speed>
  <fix>3d</fix>
</trkpt>
<trkpt lat="33.8100485" lon="-118.3945801">
  <ele>-25.012</ele>
  <time>2026-09-02T22:08:38Z</time>
  <course>305.3</course>
  <speed>0.973498844375277</speed>
  <fix>3d</fix>
</trkpt>
<trkpt lat="33.8100501" lon="-118.394579">
  <ele>-24.4</ele>
  <time>2026-09-02T22:08:38Z</time>
  <course>215.13</course>
  <speed>1.0</speed>
  <fix>3d</fix>
</trkpt>
<trkpt lat="33.8100477" lon="-118.3945807">
  <ele>-25.012</ele>
  <time>2026-09-02T22:08:38Z</time>
  <course>305.42</course>
  <speed>0.97082439194738</speed>
  <fix>3d</fix>
</trkpt>
<trkpt lat="33.8100486" lon="-118.3945803">
  <ele>-24.4</ele>
  <time>2026-09-02T22:08:38Z</time>
  <course>215.38</course>
  <speed>1.0</speed>
  <fix>3d</fix>
</trkpt>
<trkpt lat="33.810047" lon="-118.3945814">
  <ele>-25.012</ele>
  <time>2026-09-02T22:08:38Z</time>
  <course>305.53</course>
  <speed>0.97082439194738</speed>
  <fix>3d</fix>
</trkpt>
<trkpt lat="33.8100486" lon="-118.3945803">
  <ele>-24.4</ele>
  <time>2026-09-02T22:08:38Z</time>
  <course>215.38</course>
  <speed>1.0</speed>
  <fix>3d</fix>
</trkpt>
<trkpt lat="33.8100463" lon="-118.394582">
  <ele>-25.012</ele>
  <time>2026-09-02T22:08:38Z</time>
  <course>305.65</course>
  <speed>0.97082439194738</speed>
  <fix>3d</fix>
</trkpt>
<trkpt lat="33.8100472" lon="-118.3945815">
  <ele>-24.4</ele>
  <time>2026-09-02T22:08:38Z</time>
  <course>215.68</course>
  <speed>1.0</speed>
  <fix>3d</fix>
</trkpt>
<trkpt lat="33.8100456" lon="-118.3945826">
  <ele>-25.013</ele>
  <time>2026-09-02T22:08:38Z</time>
  <course>305.76</course>
  <speed>0.97082439194738</speed>
  <fix>3d</fix>
</trkpt>
<trkpt lat="33.8100472" lon="-118.3945815">
  <ele>-24.4</ele>
  <time>2026-09-02T22:08:38Z</time>
  <course>215.68</course>
  <speed>1.0</speed>
  <fix>3d</fix>
</trkpt>
<trkpt lat="33.8100448" lon="-118.3945833">
  <ele>-25.015</ele>
  <time>2026-09-02T22:08:38Z</time>
  <course>305.88</course>
  <speed>0.97082439194738</speed>
  <fix>3d</fix>
</trkpt>
<trkpt lat="33.8100457" lon="-118.3945828">
  <ele>-24.4</ele>
  <time>2026-09-02T22:08:38Z</time>
  <course>215.98</course>
  <speed>1.0</speed>
  <fix>3d</fix>
</trkpt>
<trkpt lat="33.8100441" lon="-118.3945839">
  <ele>-25.015</ele>
  <time>2026-09-02T22:08:38Z</time>
  <course>306.0</course>
  <speed>0.9765244492586962</speed>
  <fix>3d</fix>
</trkpt>
<trkpt lat="33.8100457" lon="-118.3945828">
  <ele>-24.4</ele>
  <time>2026-09-02T22:08:38Z</time>
  <course>215.98</course>
  <speed>1.0</speed>
  <fix>3d</fix>
</trkpt>
<trkpt lat="33.8100434" lon="-118.3945846">
  <ele>-25.015</ele>
  <time>2026-09-02T22:08:38Z</time>
  <course>306.12</course>
  <speed>0.9765244492586962</speed>
  <fix>3d</fix>
</trkpt>
<trkpt lat="33.8100443" lon="-118.3945841">
  <ele>-24.41</ele>
  <time>2026-09-02T22:08:38Z</time>
  <course>216.27</course>
  <speed>1.0</speed>
  <fix>3d</fix>
</trkpt>
<trkpt lat="33.8100426" lon="-118.3945852">
  <ele>-25.014</ele>
  <time>2026-09-02T22:08:38Z</time>
  <course>306.23</course>
  <speed>0.9765244492586962</speed>
  <fix>3d</fix>
</trkpt>
<trkpt lat="33.8100443" lon="-118.3945841">
  <ele>-24.41</ele>
  <time>2026-09-02T22:08:38Z</time>
  <course>216.27</course>
  <speed>1.0</speed>
  <fix>3d</fix>
</trkpt>
<trkpt lat="33.8100419" lon="-118.3945859">
  <ele>-25.013</ele>
  <time>2026-09-02T22:08:38Z</time>
  <course>306.35</course>
  <speed>0.9683491106000975</speed>
  <fix>3d</fix>
</trkpt>
<trkpt lat="33.8100428" lon="-118.3945854">
  <ele>-24.4</ele>
  <time>2026-09-02T22:08:38Z</time>
  <course>216.52</course>
  <speed>1.0</speed>
  <fix>3d</fix>
</trkpt>
<trkpt lat="33.8100412" lon="-118.3945865">
  <ele>-25.012</ele>
  <time>2026-09-02T22:08:38Z</time>
  <course>306.47</course>
  <speed>0.9683491106000975</speed>
  <fix>3d</fix>
</trkpt>
<trkpt lat="33.8100428" lon="-118.3945854">
  <ele>-24.4</ele>
  <time>2026-09-02T22:08:38Z</time>
  <course>216.52</course>
  <speed>1.0</speed>
  <fix>3d</fix>
</trkpt>
<trkpt lat="33.8100405" lon="-118.3945872">
  <ele>-25.011</ele>
  <time>2026-09-02T22:08:38Z</time>
  <course>306.58</course>
  <speed>0.9683491106000975</speed>
  <fix>3d</fix>
</trkpt>
<trkpt lat="33.8100414" lon="-118.3945867">
  <ele>-24.4</ele>
  <time>2026-09-02T22:08:38Z</time>
  <course>216.73</course>
  <speed>1.0</speed>
  <fix>3d</fix>
</trkpt>
<trkpt lat="33.8100398" lon="-118.3945878">
  <ele>-25.01</ele>
  <time>2026-09-02T22:08:38Z</time>
  <course>306.69</course>
  <speed>0.9683491106000975</speed>
  <fix>3d</fix>
</trkpt>
<trkpt lat="33.8100414" lon="-118.3945867">
  <ele>-24.4</ele>
  <time>2026-09-02T22:08:38Z</time>
  <course>216.73</course>
  <speed>1.0</speed>
  <fix>3d</fix>
</trkpt>
<trkpt lat="33.810039" lon="-118.3945885">
  <ele>-25.008</ele>
  <time>2026-09-02T22:08:38Z</time>
  <course>306.81</course>
  <speed>0.9741663102366043</speed>
  <fix>3d</fix>
</trkpt>
<trkpt lat="33.8100399" lon="-118.394588">
  <ele>-24.4</ele>
  <time>2026-09-02T22:08:38Z</time>
  <course>216.93</course>
  <speed>1.0</speed>
  <fix>3d</fix>
</trkpt>
<trkpt lat="33.8100383" lon="-118.3945891">
  <ele>-25.007</ele>
  <time>2026-09-02T22:08:38Z</time>
  <course>306.92</course>
  <speed>0.9741663102366043</speed>
  <fix>3d</fix>
</trkpt>
<trkpt lat="33.8100399" lon="-118.394588">
  <ele>-24.4</ele>
  <time>2026-09-02T22:08:38Z</time>
  <course>216.93</course>
  <speed>1.0</speed>
  <fix>3d</fix>
</trkpt>
<trkpt lat="33.8100376" lon="-118.3945898">
  <ele>-25.007</ele>
  <time>2026-09-02T22:08:38Z</time>
  <course>307.04</course>
  <speed>0.9741663102366043</speed>
  <fix>3d</fix>
</trkpt>
<trkpt lat="33.8100385" lon="-118.3945893">
  <ele>-24.4</ele>
  <time>2026-09-02T22:08:38Z</time>
  <course>217.12</course>
  <speed>1.0</speed>
  <fix>3d</fix>
</trkpt>
<trkpt lat="33.8100369" lon="-118.3945904">
  <ele>-25.009</ele>
  <time>2026-09-02T22:08:38Z</time>
  <course>307.15</course>
  <speed>0.9741663102366043</speed>
  <fix>3d</fix>
</trkpt>
<trkpt lat="33.8100385" lon="-118.3945893">
  <ele>-24.4</ele>
  <time>2026-09-02T22:08:38Z</time>
  <course>217.12</course>
  <speed>1.0</speed>
  <fix>3d</fix>
</trkpt>
<trkpt lat="33.8100362" lon="-118.3945911">
  <ele>-25.012</ele>
  <time>2026-09-02T22:08:38Z</time>
  <course>307.26</course>
  <speed>0.9660745312862771</speed>
  <fix>3d</fix>
</trkpt>
<trkpt lat="33.8100371" lon="-118.3945906">
  <ele>-24.41</ele>
  <time>2026-09-02T22:08:38Z</time>
  <course>217.34</course>
  <speed>1.0</speed>
  <fix>3d</fix>
</trkpt>
<trkpt lat="33.8100355" lon="-118.3945918">
  <ele>-25.014</ele>
  <time>2026-09-02T22:08:38Z</time>
  <course>307.38</course>
  <speed>0.9660745312862771</speed>
  <fix>3d</fix>
</trkpt>
<trkpt lat="33.8100371" lon="-118.3945906">
  <ele>-24.41</ele>
  <time>2026-09-02T22:08:38Z</time>
  <course>217.34</course>
  <speed>1.0</speed>
  <fix>3d</fix>
</trkpt>
<trkpt lat="33.8100347" lon="-118.3945924">
  <ele>-25.015</ele>
  <time>2026-09-02T22:08:38Z</time>
  <course>307.49</course>
  <speed>0.9660745312862771</speed>
  <fix>3d</fix>
</trkpt>
<trkpt lat="33.8100356" lon="-118.3945919">
  <ele>-24.41</ele>
  <time>2026-09-02T22:08:38Z</time>
  <course>217.54</course>
  <speed>1.0</speed>
  <fix>3d</fix>
</trkpt>
<trkpt lat="33.810034" lon="-118.3945931">
  <ele>-25.015</ele>
  <time>2026-09-02T22:08:38Z</time>
  <course>307.61</course>
  <speed>0.9660745312862771</speed>
  <fix>3d</fix>
</trkpt>
<trkpt lat="33.8100356" lon="-118.3945919">
  <ele>-24.41</ele>
  <time>2026-09-02T22:08:38Z</time>
  <course>217.54</course>
  <speed>1.0</speed>
  <fix>3d</fix>
</trkpt>
<trkpt lat="33.8100333" lon="-118.3945937">
  <ele>-25.015</ele>
  <time>2026-09-02T22:08:38Z</time>
  <course>307.73</course>
  <speed>0.9720082304178294</speed>
  <fix>3d</fix>
</trkpt>
<trkpt lat="33.8100341" lon="-118.3945933">
  <ele>-24.41</ele>
  <time>2026-09-02T22:08:38Z</time>
  <course>217.77</course>
  <speed>1.0</speed>
  <fix>3d</fix>
</trkpt>
<trkpt lat="33.8100326" lon="-118.3945944">
  <ele>-25.015</ele>
  <time>2026-09-02T22:08:38Z</time>
  <course>307.84</course>
  <speed>0.9720082304178294</speed>
  <fix>3d</fix>
</trkpt>
<trkpt lat="33.8100341" lon="-118.3945933">
  <ele>-24.41</ele>
  <time>2026-09-02T22:08:38Z</time>
  <course>217.77</course>
  <speed>1.0</speed>
  <fix>3d</fix>
</trkpt>
<trkpt lat="33.8100319" lon="-118.3945951">
  <ele>-25.015</ele>
  <time>2026-09-02T22:08:38Z</time>
  <course>307.96</course>
  <speed>0.9720082304178294</speed>
  <fix>3d</fix>
</trkpt>
<trkpt lat="33.8100328" lon="-118.3945946">
  <ele>-24.41</ele>
  <time>2026-09-02T22:08:38Z</time>
  <course>218.04</course>
  <speed>1.0</speed>
  <fix>3d</fix>
</trkpt>
<trkpt lat="33.8100312" lon="-118.3945958">
  <ele>-25.015</ele>
  <time>2026-09-02T22:08:38Z</time>
  <course>308.07</course>
  <speed>0.9640020746865642</speed>
  <fix>3d</fix>
</trkpt>
<trkpt lat="33.8100328" lon="-118.3945946">
  <ele>-24.41</ele>
  <time>2026-09-02T22:08:38Z</time>
  <course>218.04</course>
  <speed>1.0</speed>
  <fix>3d</fix>
</trkpt>
<trkpt lat="33.8100305" lon="-118.3945964">
  <ele>-25.015</ele>
  <time>2026-09-02T22:08:38Z</time>
  <course>308.19</course>
  <speed>0.9640020746865642</speed>
  <fix>3d</fix>
</trkpt>
<trkpt lat="33.8100314" lon="-118.394596">
  <ele>-24.41</ele>
  <time>2026-09-02T22:08:38Z</time>
  <course>218.3</course>
  <speed>1.0</speed>
  <fix>3d</fix>
</trkpt>
<trkpt lat="33.8100298" lon="-118.3945971">
  <ele>-25.015</ele>
  <time>2026-09-02T22:08:38Z</time>
  <course>308.3</course>
  <speed>0.9640020746865642</speed>
  <fix>3d</fix>
</trkpt>
<trkpt lat="33.8100314" lon="-118.394596">
  <ele>-24.41</ele>
  <time>2026-09-02T22:08:38Z</time>
  <course>218.3</course>
  <speed>1.0</speed>
  <fix>3d</fix>
</trkpt>
<trkpt lat="33.8100291" lon="-118.3945978">
  <ele>-25.016</ele>
  <time>2026-09-02T22:08:38Z</time>
  <course>308.42</course>
  <speed>0.9640020746865642</speed>
  <fix>3d</fix>
</trkpt>
<trkpt lat="33.81003" lon="-118.3945973">
  <ele>-24.41</ele>
  <time>2026-09-02T22:08:38Z</time>
  <course>218.49</course>
  <speed>1.0</speed>
  <fix>3d</fix>
</trkpt>
<trkpt lat="33.8100284" lon="-118.3945985">
  <ele>-25.016</ele>
  <time>2026-09-02T22:08:38Z</time>
  <course>308.53</course>
  <speed>0.970051545022222</speed>
  <fix>3d</fix>
</trkpt>
<trkpt lat="33.81003" lon="-118.3945973">
  <ele>-24.41</ele>
  <time>2026-09-02T22:08:38Z</time>
  <course>218.49</course>
  <speed>1.0</speed>
  <fix>3d</fix>
</trkpt>
<trkpt lat="33.8100277" lon="-118.3945991">
  <ele>-25.016</ele>
  <time>2026-09-02T22:08:38Z</time>
  <course>308.65</course>
  <speed>0.970051545022222</speed>
  <fix>3d</fix>
</trkpt>
<trkpt lat="33.8100285" lon="-118.3945986">
  <ele>-24.41</ele>
  <time>2026-09-02T22:08:38Z</time>
  <course>218.64</course>
  <speed>1.0</speed>
  <fix>3d</fix>
</trkpt>
<trkpt lat="33.810027" lon="-118.3945998">
  <ele>-25.016</ele>
  <time>2026-09-02T22:08:38Z</time>
  <course>308.76</course>
  <speed>0.970051545022222</speed>
  <fix>3d</fix>
</trkpt>
<trkpt lat="33.8100285" lon="-118.3945986">
  <ele>-24.41</ele>
  <time>2026-09-02T22:08:38Z</time>
  <course>218.64</course>
  <speed>1.0</speed>
  <fix>3d</fix>
</trkpt>
<trkpt lat="33.8100263" lon="-118.3946005">
  <ele>-25.016</ele>
  <time>2026-09-02T22:08:38Z</time>
  <course>308.88</course>
  <speed>0.970051545022222</speed>
  <fix>3d</fix>
</trkpt>
<trkpt lat="33.8100272" lon="-118.3946">
  <ele>-24.41</ele>
  <time>2026-09-02T22:08:38Z</time>
  <course>218.86</course>
  <speed>0.99</speed>
  <fix>3d</fix>
</trkpt>
<trkpt lat="33.8100256" lon="-118.3946012">
  <ele>-25.016</ele>
  <time>2026-09-02T22:08:38Z</time>
  <course>308.99</course>
  <speed>0.970051545022222</speed>
  <fix>3d</fix>
</trkpt>
<trkpt lat="33.8100272" lon="-118.3946">
  <ele>-24.41</ele>
  <time>2026-09-02T22:08:38Z</time>
  <course>218.86</course>
  <speed>0.99</speed>
  <fix>3d</fix>
</trkpt>
<trkpt lat="33.8100249" lon="-118.3946019">
  <ele>-25.016</ele>
  <time>2026-09-02T22:08:38Z</time>
  <course>309.11</course>
  <speed>0.9621330469326995</speed>
  <fix>3d</fix>
</trkpt>
<trkpt lat="33.8100258" lon="-118.3946014">
  <ele>-24.41</ele>
  <time>2026-09-02T22:08:38Z</time>
  <course>219.12</course>
  <speed>0.99</speed>
  <fix>3d</fix>
</trkpt>
<trkpt lat="33.8100242" lon="-118.3946026">
  <ele>-25.015</ele>
  <time>2026-09-02T22:08:38Z</time>
  <course>309.22</course>
  <speed>0.9621330469326995</speed>
  <fix>3d</fix>
</trkpt>
<trkpt lat="33.8100258" lon="-118.3946014">
  <ele>-24.41</ele>
  <time>2026-09-02T22:08:38Z</time>
  <course>219.12</course>
  <speed>0.99</speed>
  <fix>3d</fix>
</trkpt>
<trkpt lat="33.8100235" lon="-118.3946033">
  <ele>-25.013</ele>
  <time>2026-09-02T22:08:38Z</time>
  <course>309.34</course>
  <speed>0.9682974749528164</speed>
  <fix>3d</fix>
</trkpt>
<trkpt lat="33.8100243" lon="-118.3946027">
  <ele>-24.4</ele>
  <time>2026-09-02T22:08:38Z</time>
  <course>219.32</course>
  <speed>0.99</speed>
  <fix>3d</fix>
</trkpt>
<trkpt lat="33.8100228" lon="-118.3946039">
  <ele>-25.01</ele>
  <time>2026-09-02T22:08:38Z</time>
  <course>309.45</course>
  <speed>0.9682974749528164</speed>
  <fix>3d</fix>
</trkpt>
<trkpt lat="33.8100243" lon="-118.3946027">
  <ele>-24.4</ele>
  <time>2026-09-02T22:08:38Z</time>
  <course>219.32</course>
  <speed>0.99</speed>
  <fix>3d</fix>
</trkpt>
<trkpt lat="33.8100221" lon="-118.3946046">
  <ele>-25.008</ele>
  <time>2026-09-02T22:08:38Z</time>
  <course>309.57</course>
  <speed>0.9682974749528164</speed>
  <fix>3d</fix>
</trkpt>
<trkpt lat="33.810023" lon="-118.3946041">
  <ele>-24.4</ele>
  <time>2026-09-02T22:08:38Z</time>
  <course>219.54</course>
  <speed>0.99</speed>
  <fix>3d</fix>
</trkpt>
<trkpt lat="33.8100214" lon="-118.3946053">
  <ele>-25.007</ele>
  <time>2026-09-02T22:08:38Z</time>
  <course>309.68</course>
  <speed>0.9682974749528164</speed>
  <fix>3d</fix>
</trkpt>
<trkpt lat="33.810023" lon="-118.3946041">
  <ele>-24.4</ele>
  <time>2026-09-02T22:08:38Z</time>
  <course>219.54</course>
  <speed>0.99</speed>
  <fix>3d</fix>
</trkpt>
<trkpt lat="33.8100207" lon="-118.394606">
  <ele>-25.007</ele>
  <time>2026-09-02T22:08:38Z</time>
  <course>309.8</course>
  <speed>0.9682974749528164</speed>
  <fix>3d</fix>
</trkpt>
<trkpt lat="33.8100216" lon="-118.3946055">
  <ele>-24.4</ele>
  <time>2026-09-02T22:08:38Z</time>
  <course>219.81</course>
  <speed>0.99</speed>
  <fix>3d</fix>
</trkpt>
<trkpt lat="33.81002" lon="-118.3946067">
  <ele>-25.009</ele>
  <time>2026-09-02T22:08:38Z</time>
  <course>309.91</course>
  <speed>0.9604686356149272</speed>
  <fix>3d</fix>
</trkpt>
<trkpt lat="33.8100216" lon="-118.3946055">
  <ele>-24.4</ele>
  <time>2026-09-02T22:08:38Z</time>
  <course>219.81</course>
  <speed>0.99</speed>
  <fix>3d</fix>
</trkpt>
<trkpt lat="33.8100194" lon="-118.3946074">
  <ele>-25.011</ele>
  <time>2026-09-02T22:08:38Z</time>
  <course>310.03</course>
  <speed>0.9667471230885561</speed>
  <fix>3d</fix>
</trkpt>
<trkpt lat="33.8100201" lon="-118.3946069">
  <ele>-24.4</ele>
  <time>2026-09-02T22:08:38Z</time>
  <course>220.05</course>
  <speed>0.99</speed>
  <fix>3d</fix>
</trkpt>
<trkpt lat="33.8100187" lon="-118.3946081">
  <ele>-25.013</ele>
  <time>2026-09-02T22:08:38Z</time>
  <course>310.14</course>
  <speed>0.9667471230885561</speed>
  <fix>3d</fix>
</trkpt>
<trkpt lat="33.8100201" lon="-118.3946069">
  <ele>-24.4</ele>
  <time>2026-09-02T22:08:38Z</time>
  <course>220.05</course>
  <speed>0.99</speed>
  <fix>3d</fix>
</trkpt>
<trkpt lat="33.810018" lon="-118.3946088">
  <ele>-25.013</ele>
  <time>2026-09-02T22:08:38Z</time>
  <course>310.26</course>
  <speed>0.9667471230885561</speed>
  <fix>3d</fix>
</trkpt>
<trkpt lat="33.8100188" lon="-118.3946082">
  <ele>-24.41</ele>
  <time>2026-09-02T22:08:38Z</time>
  <course>220.3</course>
  <speed>0.99</speed>
  <fix>3d</fix>
</trkpt>
<trkpt lat="33.8100173" lon="-118.3946095">
  <ele>-25.014</ele>
  <time>2026-09-02T22:08:38Z</time>
  <course>310.37</course>
  <speed>0.9667471230885561</speed>
  <fix>3d</fix>
</trkpt>
<trkpt lat="33.8100188" lon="-118.3946082">
  <ele>-24.41</ele>
  <time>2026-09-02T22:08:38Z</time>
  <course>220.3</course>
  <speed>0.99</speed>
  <fix>3d</fix>
</trkpt>
<trkpt lat="33.8100166" lon="-118.3946102">
  <ele>-25.014</ele>
  <time>2026-09-02T22:08:38Z</time>
  <course>310.49</course>
  <speed>0.9667471230885561</speed>
  <fix>3d</fix>
</trkpt>
<trkpt lat="33.8100175" lon="-118.3946097">
  <ele>-24.41</ele>
  <time>2026-09-02T22:08:38Z</time>
  <course>220.62</course>
  <speed>0.99</speed>
  <fix>3d</fix>
</trkpt>
<trkpt lat="33.8100159" lon="-118.3946109">
  <ele>-25.015</ele>
  <time>2026-09-02T22:08:38Z</time>
  <course>310.6</course>
  <speed>0.9667471230885561</speed>
  <fix>3d</fix>
</trkpt>
<trkpt lat="33.8100175" lon="-118.3946097">
  <ele>-24.41</ele>
  <time>2026-09-02T22:08:38Z</time>
  <course>220.62</course>
  <speed>0.99</speed>
  <fix>3d</fix>
</trkpt>
<trkpt lat="33.8100153" lon="-118.3946116">
  <ele>-25.015</ele>
  <time>2026-09-02T22:08:38Z</time>
  <course>310.72</course>
  <speed>0.9654014708917736</speed>
  <fix>3d</fix>
</trkpt>
<trkpt lat="33.8100161" lon="-118.3946111">
  <ele>-24.41</ele>
  <time>2026-09-02T22:08:38Z</time>
  <course>220.9</course>
  <speed>0.99</speed>
  <fix>3d</fix>
</trkpt>
<trkpt lat="33.8100146" lon="-118.3946124">
  <ele>-25.014</ele>
  <time>2026-09-02T22:08:38Z</time>
  <course>310.83</course>
  <speed>0.9654014708917736</speed>
  <fix>3d</fix>
</trkpt>
<trkpt lat="33.8100161" lon="-118.3946111">
  <ele>-24.41</ele>
  <time>2026-09-02T22:08:38Z</time>
  <course>220.9</course>
  <speed>0.99</speed>
  <fix>3d</fix>
</trkpt>
<trkpt lat="33.8100139" lon="-118.3946131">
  <ele>-25.013</ele>
  <time>2026-09-02T22:08:38Z</time>
  <course>310.95</course>
  <speed>0.9654014708917736</speed>
  <fix>3d</fix>
</trkpt>
<trkpt lat="33.8100148" lon="-118.3946125">
  <ele>-24.41</ele>
  <time>2026-09-02T22:08:38Z</time>
  <course>221.12</course>
  <speed>0.99</speed>
  <fix>3d</fix>
</trkpt>
<trkpt lat="33.8100132" lon="-118.3946138">
  <ele>-25.013</ele>
  <time>2026-09-02T22:08:38Z</time>
  <course>311.06</course>
  <speed>0.9654014708917736</speed>
  <fix>3d</fix>
</trkpt>
<trkpt lat="33.8100148" lon="-118.3946125">
  <ele>-24.41</ele>
  <time>2026-09-02T22:08:38Z</time>
  <course>221.12</course>
  <speed>0.99</speed>
  <fix>3d</fix>
</trkpt>
<trkpt lat="33.8100126" lon="-118.3946145">
  <ele>-25.014</ele>
  <time>2026-09-02T22:08:38Z</time>
  <course>311.17</course>
  <speed>0.9654014708917736</speed>
  <fix>3d</fix>
</trkpt>
<trkpt lat="33.8100134" lon="-118.3946139">
  <ele>-24.41</ele>
  <time>2026-09-02T22:08:38Z</time>
  <course>221.31</course>
  <speed>0.99</speed>
  <fix>3d</fix>
</trkpt>
<trkpt lat="33.8100119" lon="-118.3946152">
  <ele>-25.014</ele>
  <time>2026-09-02T22:08:38Z</time>
  <course>311.29</course>
  <speed>0.9654014708917736</speed>
  <fix>3d</fix>
</trkpt>
<trkpt lat="33.8100134" lon="-118.3946139">
  <ele>-24.41</ele>
  <time>2026-09-02T22:08:38Z</time>
  <course>221.31</course>
  <speed>0.99</speed>
  <fix>3d</fix>
</trkpt>
<trkpt lat="33.8100112" lon="-118.3946159">
  <ele>-25.014</ele>
  <time>2026-09-02T22:08:38Z</time>
  <course>311.4</course>
  <speed>0.9718538984847466</speed>
  <fix>3d</fix>
</trkpt>
<trkpt lat="33.810012" lon="-118.3946153">
  <ele>-24.41</ele>
  <time>2026-09-02T22:08:38Z</time>
  <course>221.51</course>
  <speed>0.99</speed>
  <fix>3d</fix>
</trkpt>
<trkpt lat="33.8100105" lon="-118.3946166">
  <ele>-25.013</ele>
  <time>2026-09-02T22:08:38Z</time>
  <course>311.52</course>
  <speed>0.9718538984847466</speed>
  <fix>3d</fix>
</trkpt>
<trkpt lat="33.810012" lon="-118.3946153">
  <ele>-24.41</ele>
  <time>2026-09-02T22:08:38Z</time>
  <course>221.51</course>
  <speed>0.99</speed>
  <fix>3d</fix>
</trkpt>
<trkpt lat="33.8100099" lon="-118.3946174">
  <ele>-25.012</ele>
  <time>2026-09-02T22:08:38Z</time>
  <course>311.64</course>
  <speed>0.9718538984847466</speed>
  <fix>3d</fix>
</trkpt>
<trkpt lat="33.8100107" lon="-118.3946168">
  <ele>-24.41</ele>
  <time>2026-09-02T22:08:38Z</time>
  <course>221.77</course>
  <speed>0.99</speed>
  <fix>3d</fix>
</trkpt>
<trkpt lat="33.8100092" lon="-118.3946181">
  <ele>-25.012</ele>
  <time>2026-09-02T22:08:38Z</time>
  <course>311.75</course>
  <speed>0.9642613753542137</speed>
  <fix>3d</fix>
</trkpt>
<trkpt lat="33.8100107" lon="-118.3946168">
  <ele>-24.41</ele>
  <time>2026-09-02T22:08:38Z</time>
  <course>221.77</course>
  <speed>0.99</speed>
  <fix>3d</fix>
</trkpt>
<trkpt lat="33.8100085" lon="-118.3946188">
  <ele>-25.013</ele>
  <time>2026-09-02T22:08:38Z</time>
  <course>311.87</course>
  <speed>0.9642613753542137</speed>
  <fix>3d</fix>
</trkpt>
<trkpt lat="33.8100094" lon="-118.3946182">
  <ele>-24.41</ele>
  <time>2026-09-02T22:08:38Z</time>
  <course>222.06</course>
  <speed>0.99</speed>
  <fix>3d</fix>
</trkpt>
<trkpt lat="33.8100079" lon="-118.3946195">
  <ele>-25.014</ele>
  <time>2026-09-02T22:08:38Z</time>
  <course>311.98</course>
  <speed>0.9642613753542137</speed>
  <fix>3d</fix>
</trkpt>
<trkpt lat="33.8100094" lon="-118.3946182">
  <ele>-24.41</ele>
  <time>2026-09-02T22:08:38Z</time>
  <course>222.06</course>
  <speed>0.99</speed>
  <fix>3d</fix>
</trkpt>
<trkpt lat="33.8100072" lon="-118.3946203">
  <ele>-25.015</ele>
  <time>2026-09-02T22:08:38Z</time>
  <course>312.09</course>
  <speed>0.97082439194738</speed>
  <fix>3d</fix>
</trkpt>
<trkpt lat="33.8100081" lon="-118.3946196">
  <ele>-24.41</ele>
  <time>2026-09-02T22:08:38Z</time>
  <course>222.31</course>
  <speed>0.99</speed>
  <fix>3d</fix>
</trkpt>
<trkpt lat="33.8100065" lon="-118.394621">
  <ele>-25.015</ele>
  <time>2026-09-02T22:08:39Z</time>
  <course>312.21</course>
  <speed>0.97082439194738</speed>
  <fix>3d</fix>
</trkpt>
<trkpt lat="33.8100081" lon="-118.3946196">
  <ele>-24.41</ele>
  <time>2026-09-02T22:08:39Z</time>
  <course>222.31</course>
  <speed>0.99</speed>
  <fix>3d</fix>
</trkpt>
<trkpt lat="33.8100059" lon="-118.3946217">
  <ele>-25.015</ele>
  <time>2026-09-02T22:08:39Z</time>
  <course>312.33</course>
  <speed>0.97082439194738</speed>
  <fix>3d</fix>
</trkpt>
<trkpt lat="33.8100067" lon="-118.3946211">
  <ele>-24.41</ele>
  <time>2026-09-02T22:08:39Z</time>
  <course>222.55</course>
  <speed>0.99</speed>
  <fix>3d</fix>
</trkpt>
<trkpt lat="33.8100052" lon="-118.3946225">
  <ele>-25.016</ele>
  <time>2026-09-02T22:08:39Z</time>
  <course>312.44</course>
  <speed>0.97082439194738</speed>
  <fix>3d</fix>
</trkpt>
<trkpt lat="33.8100067" lon="-118.3946211">
  <ele>-24.41</ele>
  <time>2026-09-02T22:08:39Z</time>
  <course>222.55</course>
  <speed>0.99</speed>
  <fix>3d</fix>
</trkpt>
<trkpt lat="33.8100046" lon="-118.3946232">
  <ele>-25.016</ele>
  <time>2026-09-02T22:08:39Z</time>
  <course>312.55</course>
  <speed>0.97082439194738</speed>
  <fix>3d</fix>
</trkpt>
<trkpt lat="33.8100054" lon="-118.3946225">
  <ele>-24.41</ele>
  <time>2026-09-02T22:08:39Z</time>
  <course>222.79</course>
  <speed>0.99</speed>
  <fix>3d</fix>
</trkpt>
<trkpt lat="33.8100039" lon="-118.3946239">
  <ele>-25.016</ele>
  <time>2026-09-02T22:08:39Z</time>
  <course>312.67</course>
  <speed>0.97082439194738</speed>
  <fix>3d</fix>
</trkpt>
<trkpt lat="33.8100054" lon="-118.3946225">
  <ele>-24.41</ele>
  <time>2026-09-02T22:08:39Z</time>
  <course>222.79</course>
  <speed>0.99</speed>
  <fix>3d</fix>
</trkpt>
<trkpt lat="33.8100032" lon="-118.3946247">
  <ele>-25.016</ele>
  <time>2026-09-02T22:08:39Z</time>
  <course>312.79</course>
  <speed>0.97</speed>
  <fix>3d</fix>
</trkpt>
<trkpt lat="33.8100041" lon="-118.394624">
  <ele>-24.41</ele>
  <time>2026-09-02T22:08:39Z</time>
  <course>223.06</course>
  <speed>0.99</speed>
  <fix>3d</fix>
</trkpt>
<trkpt lat="33.8100026" lon="-118.3946254">
  <ele>-25.016</ele>
  <time>2026-09-02T22:08:39Z</time>
  <course>312.9</course>
  <speed>0.97</speed>
  <fix>3d</fix>
</trkpt>
<trkpt lat="33.8100041" lon="-118.394624">
  <ele>-24.41</ele>
  <time>2026-09-02T22:08:39Z</time>
  <course>223.06</course>
  <speed>0.99</speed>
  <fix>3d</fix>
</trkpt>
<trkpt lat="33.8100019" lon="-118.3946261">
  <ele>-25.016</ele>
  <time>2026-09-02T22:08:39Z</time>
  <course>313.02</course>
  <speed>0.97</speed>
  <fix>3d</fix>
</trkpt>
<trkpt lat="33.8100028" lon="-118.3946255">
  <ele>-24.41</ele>
  <time>2026-09-02T22:08:39Z</time>
  <course>223.32</course>
  <speed>0.99</speed>
  <fix>3d</fix>
</trkpt>
<trkpt lat="33.8100013" lon="-118.3946269">
  <ele>-25.016</ele>
  <time>2026-09-02T22:08:39Z</time>
  <course>313.13</course>
  <speed>0.97</speed>
  <fix>3d</fix>
</trkpt>
<trkpt lat="33.8100028" lon="-118.3946255">
  <ele>-24.41</ele>
  <time>2026-09-02T22:08:39Z</time>
  <course>223.32</course>
  <speed>0.99</speed>
  <fix>3d</fix>
</trkpt>
<trkpt lat="33.8100006" lon="-118.3946276">
  <ele>-25.016</ele>
  <time>2026-09-02T22:08:39Z</time>
  <course>313.25</course>
  <speed>0.97</speed>
  <fix>3d</fix>
</trkpt>
<trkpt lat="33.8100015" lon="-118.394627">
  <ele>-24.4</ele>
  <time>2026-09-02T22:08:39Z</time>
  <course>223.55</course>
  <speed>0.99</speed>
  <fix>3d</fix>
</trkpt>
<trkpt lat="33.81" lon="-118.3946284">
  <ele>-25.015</ele>
  <time>2026-09-02T22:08:39Z</time>
  <course>313.36</course>
  <speed>0.97</speed>
  <fix>3d</fix>
</trkpt>
<trkpt lat="33.8100015" lon="-118.394627">
  <ele>-24.4</ele>
  <time>2026-09-02T22:08:39Z</time>
  <course>223.55</course>
  <speed>0.99</speed>
  <fix>3d</fix>
</trkpt>
<trkpt lat="33.8099993" lon="-118.3946291">
  <ele>-25.013</ele>
  <time>2026-09-02T22:08:39Z</time>
  <course>313.48</course>
  <speed>0.97</speed>
  <fix>3d</fix>
</trkpt>
<trkpt lat="33.8100002" lon="-118.3946285">
  <ele>-24.4</ele>
  <time>2026-09-02T22:08:39Z</time>
  <course>223.75</course>
  <speed>0.99</speed>
  <fix>3d</fix>
</trkpt>
<trkpt lat="33.8099987" lon="-118.3946299">
  <ele>-25.011</ele>
  <time>2026-09-02T22:08:39Z</time>
  <course>313.59</course>
  <speed>0.97</speed>
  <fix>3d</fix>
</trkpt>
<trkpt lat="33.8100002" lon="-118.3946285">
  <ele>-24.4</ele>
  <time>2026-09-02T22:08:39Z</time>
  <course>223.75</course>
  <speed>0.99</speed>
  <fix>3d</fix>
</trkpt>
<trkpt lat="33.809998" lon="-118.3946306">
  <ele>-25.009</ele>
  <time>2026-09-02T22:08:39Z</time>
  <course>313.7</course>
  <speed>0.9767292357659824</speed>
  <fix>3d</fix>
</trkpt>
<trkpt lat="33.8099989" lon="-118.39463">
  <ele>-24.4</ele>
  <time>2026-09-02T22:08:39Z</time>
  <course>223.93</course>
  <speed>0.99</speed>
  <fix>3d</fix>
</trkpt>
<trkpt lat="33.8099974" lon="-118.3946314">
  <ele>-25.009</ele>
  <time>2026-09-02T22:08:39Z</time>
  <course>313.82</course>
  <speed>0.9693812459502195</speed>
  <fix>3d</fix>
</trkpt>
<trkpt lat="33.8099989" lon="-118.39463">
  <ele>-24.4</ele>
  <time>2026-09-02T22:08:39Z</time>
  <course>223.93</course>
  <speed>0.99</speed>
  <fix>3d</fix>
</trkpt>
<trkpt lat="33.8099967" lon="-118.3946321">
  <ele>-25.008</ele>
  <time>2026-09-02T22:08:39Z</time>
  <course>313.93</course>
  <speed>0.9693812459502195</speed>
  <fix>3d</fix>
</trkpt>
<trkpt lat="33.8099976" lon="-118.3946315">
  <ele>-24.4</ele>
  <time>2026-09-02T22:08:39Z</time>
  <course>224.1</course>
  <speed>0.99</speed>
  <fix>3d</fix>
</trkpt>
<trkpt lat="33.8099961" lon="-118.3946329">
  <ele>-25.008</ele>
  <time>2026-09-02T22:08:39Z</time>
  <course>314.05</course>
  <speed>0.9693812459502195</speed>
  <fix>3d</fix>
</trkpt>
<trkpt lat="33.8099976" lon="-118.3946315">
  <ele>-24.4</ele>
  <time>2026-09-02T22:08:39Z</time>
  <course>224.1</course>
  <speed>0.99</speed>
  <fix>3d</fix>
</trkpt>
<trkpt lat="33.8099954" lon="-118.3946336">
  <ele>-25.008</ele>
  <time>2026-09-02T22:08:39Z</time>
  <course>314.16</course>
  <speed>0.9693812459502195</speed>
  <fix>3d</fix>
</trkpt>
<trkpt lat="33.8099963" lon="-118.394633">
  <ele>-24.4</ele>
  <time>2026-09-02T22:08:39Z</time>
  <course>224.28</course>
  <speed>0.99</speed>
  <fix>3d</fix>
</trkpt>
<trkpt lat="33.8099948" lon="-118.3946344">
  <ele>-25.008</ele>
  <time>2026-09-02T22:08:39Z</time>
  <course>314.28</course>
  <speed>0.9693812459502195</speed>
  <fix>3d</fix>
</trkpt>
<trkpt lat="33.8099963" lon="-118.394633">
  <ele>-24.4</ele>
  <time>2026-09-02T22:08:39Z</time>
  <course>224.28</course>
  <speed>0.99</speed>
  <fix>3d</fix>
</trkpt>
<trkpt lat="33.8099942" lon="-118.3946352">
  <ele>-25.008</ele>
  <time>2026-09-02T22:08:39Z</time>
  <course>314.39</course>
  <speed>0.9693812459502195</speed>
  <fix>3d</fix>
</trkpt>
<trkpt lat="33.809995" lon="-118.3946345">
  <ele>-24.4</ele>
  <time>2026-09-02T22:08:39Z</time>
  <course>224.49</course>
  <speed>0.99</speed>
  <fix>3d</fix>
</trkpt>
<trkpt lat="33.8099935" lon="-118.3946359">
  <ele>-25.009</ele>
  <time>2026-09-02T22:08:39Z</time>
  <course>314.51</course>
  <speed>0.9693812459502195</speed>
  <fix>3d</fix>
</trkpt>
<trkpt lat="33.809995" lon="-118.3946345">
  <ele>-24.4</ele>
  <time>2026-09-02T22:08:39Z</time>
  <course>224.49</course>
  <speed>0.99</speed>
  <fix>3d</fix>
</trkpt>
<trkpt lat="33.8099929" lon="-118.3946367">
  <ele>-25.01</ele>
  <time>2026-09-02T22:08:39Z</time>
  <course>314.62</course>
  <speed>0.9689685237405805</speed>
  <fix>3d</fix>
</trkpt>
<trkpt lat="33.8099938" lon="-118.394636">
  <ele>-24.4</ele>
  <time>2026-09-02T22:08:39Z</time>
  <course>224.73</course>
  <speed>0.99</speed>
  <fix>3d</fix>
</trkpt>
<trkpt lat="33.8099923" lon="-118.3946374">
  <ele>-25.01</ele>
  <time>2026-09-02T22:08:39Z</time>
  <course>314.74</course>
  <speed>0.9689685237405805</speed>
  <fix>3d</fix>
</trkpt>
<trkpt lat="33.8099938" lon="-118.394636">
  <ele>-24.4</ele>
  <time>2026-09-02T22:08:39Z</time>
  <course>224.73</course>
  <speed>0.99</speed>
  <fix>3d</fix>
</trkpt>
<trkpt lat="33.8099916" lon="-118.3946382">
  <ele>-25.011</ele>
  <time>2026-09-02T22:08:39Z</time>
  <course>314.85</course>
  <speed>0.9689685237405805</speed>
  <fix>3d</fix>
</trkpt>
<trkpt lat="33.8099925" lon="-118.3946375">
  <ele>-24.41</ele>
  <time>2026-09-02T22:08:39Z</time>
  <course>224.96</course>
  <speed>0.99</speed>
  <fix>3d</fix>
</trkpt>
<trkpt lat="33.809991" lon="-118.394639">
  <ele>-25.013</ele>
  <time>2026-09-02T22:08:39Z</time>
  <course>314.97</course>
  <speed>0.9689685237405805</speed>
  <fix>3d</fix>
</trkpt>
<trkpt lat="33.8099925" lon="-118.3946375">
  <ele>-24.41</ele>
  <time>2026-09-02T22:08:39Z</time>
  <course>224.96</course>
  <speed>0.99</speed>
  <fix>3d</fix>
</trkpt>
<trkpt lat="33.8099904" lon="-118.3946397">
  <ele>-25.015</ele>
  <time>2026-09-02T22:08:39Z</time>
  <course>315.08</course>
  <speed>0.9689685237405805</speed>
  <fix>3d</fix>
</trkpt>
<trkpt lat="33.8099912" lon="-118.3946391">
  <ele>-24.41</ele>
  <time>2026-09-02T22:08:39Z</time>
  <course>225.17</course>
  <speed>0.99</speed>
  <fix>3d</fix>
</trkpt>
<trkpt lat="33.8099897" lon="-118.3946405">
  <ele>-25.016</ele>
  <time>2026-09-02T22:08:39Z</time>
  <course>315.2</course>
  <speed>0.9689685237405805</speed>
  <fix>3d</fix>
</trkpt>
<trkpt lat="33.8099912" lon="-118.3946391">
  <ele>-24.41</ele>
  <time>2026-09-02T22:08:39Z</time>
  <course>225.17</course>
  <speed>0.99</speed>
  <fix>3d</fix>
</trkpt>
<trkpt lat="33.8099891" lon="-118.3946413">
  <ele>-25.016</ele>
  <time>2026-09-02T22:08:39Z</time>
  <course>315.31</course>
  <speed>0.9759098319004681</speed>
  <fix>3d</fix>
</trkpt>
<trkpt lat="33.80999" lon="-118.3946406">
  <ele>-24.42</ele>
  <time>2026-09-02T22:08:39Z</time>
  <course>225.4</course>
  <speed>1.0</speed>
  <fix>3d</fix>
</trkpt>
<trkpt lat="33.8099885" lon="-118.3946421">
  <ele>-25.018</ele>
  <time>2026-09-02T22:08:39Z</time>
  <course>315.43</course>
  <speed>0.9759098319004681</speed>
  <fix>3d</fix>
</trkpt>
<trkpt lat="33.80999" lon="-118.3946406">
  <ele>-24.42</ele>
  <time>2026-09-02T22:08:39Z</time>
  <course>225.4</course>
  <speed>1.0</speed>
  <fix>3d</fix>
</trkpt>
<trkpt lat="33.8099878" lon="-118.3946428">
  <ele>-25.02</ele>
  <time>2026-09-02T22:08:39Z</time>
  <course>315.54</course>
  <speed>0.9759098319004681</speed>
  <fix>3d</fix>
</trkpt>
<trkpt lat="33.8099887" lon="-118.3946421">
  <ele>-24.42</ele>
  <time>2026-09-02T22:08:39Z</time>
  <course>225.6</course>
  <speed>1.0</speed>
  <fix>3d</fix>
</trkpt>
<trkpt lat="33.8099872" lon="-118.3946436">
  <ele>-25.021</ele>
  <time>2026-09-02T22:08:39Z</time>
  <course>315.66</course>
  <speed>0.9687620966986684</speed>
  <fix>3d</fix>
</trkpt>
<trkpt lat="33.8099887" lon="-118.3946421">
  <ele>-24.42</ele>
  <time>2026-09-02T22:08:39Z</time>
  <course>225.6</course>
  <speed>1.0</speed>
  <fix>3d</fix>
</trkpt>
<trkpt lat="33.8099866" lon="-118.3946444">
  <ele>-25.02</ele>
  <time>2026-09-02T22:08:39Z</time>
  <course>315.77</course>
  <speed>0.9687620966986684</speed>
  <fix>3d</fix>
</trkpt>
<trkpt lat="33.8099875" lon="-118.3946437">
  <ele>-24.41</ele>
  <time>2026-09-02T22:08:39Z</time>
  <course>225.81</course>
  <speed>1.0</speed>
  <fix>3d</fix>
</trkpt>
<trkpt lat="33.809986" lon="-118.3946452">
  <ele>-25.017</ele>
  <time>2026-09-02T22:08:39Z</time>
  <course>315.88</course>
  <speed>0.9687620966986684</speed>
  <fix>3d</fix>
</trkpt>
<trkpt lat="33.8099875" lon="-118.3946437">
  <ele>-24.41</ele>
  <time>2026-09-02T22:08:39Z</time>
  <course>225.81</course>
  <speed>1.0</speed>
  <fix>3d</fix>
</trkpt>
<trkpt lat="33.8099853" lon="-118.394646">
  <ele>-25.014</ele>
  <time>2026-09-02T22:08:39Z</time>
  <course>316.0</course>
  <speed>0.9687620966986684</speed>
  <fix>3d</fix>
</trkpt>
<trkpt lat="33.8099862" lon="-118.3946453">
  <ele>-24.41</ele>
  <time>2026-09-02T22:08:39Z</time>
  <course>226.04</course>
  <speed>1.0</speed>
  <fix>3d</fix>
</trkpt>
<trkpt lat="33.8099847" lon="-118.3946467">
  <ele>-25.012</ele>
  <time>2026-09-02T22:08:39Z</time>
  <course>316.12</course>
  <speed>0.9687620966986684</speed>
  <fix>3d</fix>
</trkpt>
<trkpt lat="33.8099862" lon="-118.3946453">
  <ele>-24.41</ele>
  <time>2026-09-02T22:08:39Z</time>
  <course>226.04</course>
  <speed>1.0</speed>
  <fix>3d</fix>
</trkpt>
<trkpt lat="33.8099841" lon="-118.3946475">
  <ele>-25.012</ele>
  <time>2026-09-02T22:08:39Z</time>
  <course>316.23</course>
  <speed>0.9758073580374357</speed>
  <fix>3d</fix>
</trkpt>
<trkpt lat="33.809985" lon="-118.3946468">
  <ele>-24.41</ele>
  <time>2026-09-02T22:08:39Z</time>
  <course>226.24</course>
  <speed>1.0</speed>
  <fix>3d</fix>
</trkpt>
<trkpt lat="33.8099835" lon="-118.3946483">
  <ele>-25.012</ele>
  <time>2026-09-02T22:08:39Z</time>
  <course>316.34</course>
  <speed>0.9758073580374357</speed>
  <fix>3d</fix>
</trkpt>
<trkpt lat="33.809985" lon="-118.3946468">
  <ele>-24.41</ele>
  <time>2026-09-02T22:08:39Z</time>
  <course>226.24</course>
  <speed>1.0</speed>
  <fix>3d</fix>
</trkpt>
<trkpt lat="33.8099829" lon="-118.3946491">
  <ele>-25.013</ele>
  <time>2026-09-02T22:08:39Z</time>
  <course>316.46</course>
  <speed>0.9687620966986684</speed>
  <fix>3d</fix>
</trkpt>
<trkpt lat="33.8099837" lon="-118.3946484">
  <ele>-24.4</ele>
  <time>2026-09-02T22:08:39Z</time>
  <course>226.43</course>
  <speed>1.0</speed>
  <fix>3d</fix>
</trkpt>
<trkpt lat="33.8099822" lon="-118.3946499">
  <ele>-25.013</ele>
  <time>2026-09-02T22:08:39Z</time>
  <course>316.58</course>
  <speed>0.9687620966986684</speed>
  <fix>3d</fix>
</trkpt>
<trkpt lat="33.8099837" lon="-118.3946484">
  <ele>-24.4</ele>
  <time>2026-09-02T22:08:39Z</time>
  <course>226.43</course>
  <speed>1.0</speed>
  <fix>3d</fix>
</trkpt>
<trkpt lat="33.8099816" lon="-118.3946507">
  <ele>-25.012</ele>
  <time>2026-09-02T22:08:39Z</time>
  <course>316.69</course>
  <speed>0.9687620966986684</speed>
  <fix>3d</fix>
</trkpt>
<trkpt lat="33.8099824" lon="-118.3946499">
  <ele>-24.4</ele>
  <time>2026-09-02T22:08:39Z</time>
  <course>226.64</course>
  <speed>1.0</speed>
  <fix>3d</fix>
</trkpt>
<trkpt lat="33.809981" lon="-118.3946515">
  <ele>-25.012</ele>
  <time>2026-09-02T22:08:39Z</time>
  <course>316.81</course>
  <speed>0.9687620966986684</speed>
  <fix>3d</fix>
</trkpt>
<trkpt lat="33.8099824" lon="-118.3946499">
  <ele>-24.4</ele>
  <time>2026-09-02T22:08:39Z</time>
  <course>226.64</course>
  <speed>1.0</speed>
  <fix>3d</fix>
</trkpt>
<trkpt lat="33.8099804" lon="-118.3946523">
  <ele>-25.012</ele>
  <time>2026-09-02T22:08:39Z</time>
  <course>316.92</course>
  <speed>0.9687620966986684</speed>
  <fix>3d</fix>
</trkpt>
<trkpt lat="33.8099812" lon="-118.3946515">
  <ele>-24.4</ele>
  <time>2026-09-02T22:08:39Z</time>
  <course>226.92</course>
  <speed>1.0</speed>
  <fix>3d</fix>
</trkpt>
<trkpt lat="33.8099798" lon="-118.394653">
  <ele>-25.012</ele>
  <time>2026-09-02T22:08:39Z</time>
  <course>317.04</course>
  <speed>0.9689685237405805</speed>
  <fix>3d</fix>
</trkpt>
<trkpt lat="33.8099812" lon="-118.3946515">
  <ele>-24.4</ele>
  <time>2026-09-02T22:08:39Z</time>
  <course>226.92</course>
  <speed>1.0</speed>
  <fix>3d</fix>
</trkpt>
<trkpt lat="33.8099792" lon="-118.3946538">
  <ele>-25.012</ele>
  <time>2026-09-02T22:08:39Z</time>
  <course>317.15</course>
  <speed>0.9689685237405805</speed>
  <fix>3d</fix>
</trkpt>
<trkpt lat="33.8099801" lon="-118.3946531">
  <ele>-24.4</ele>
  <time>2026-09-02T22:08:39Z</time>
  <course>227.26</course>
  <speed>0.99</speed>
  <fix>3d</fix>
</trkpt>
<trkpt lat="33.8099786" lon="-118.3946546">
  <ele>-25.012</ele>
  <time>2026-09-02T22:08:39Z</time>
  <course>317.27</course>
  <speed>0.9689685237405805</speed>
  <fix>3d</fix>
</trkpt>
<trkpt lat="33.8099801" lon="-118.3946531">
  <ele>-24.4</ele>
  <time>2026-09-02T22:08:39Z</time>
  <course>227.26</course>
  <speed>0.99</speed>
  <fix>3d</fix>
</trkpt>
<trkpt lat="33.809978" lon="-118.3946554">
  <ele>-25.012</ele>
  <time>2026-09-02T22:08:39Z</time>
  <course>317.38</course>
  <speed>0.9689685237405805</speed>
  <fix>3d</fix>
</trkpt>
<trkpt lat="33.8099788" lon="-118.3946547">
  <ele>-24.41</ele>
  <time>2026-09-02T22:08:39Z</time>
  <course>227.52</course>
  <speed>0.99</speed>
  <fix>3d</fix>
</trkpt>
<trkpt lat="33.8099774" lon="-118.3946562">
  <ele>-25.013</ele>
  <time>2026-09-02T22:08:39Z</time>
  <course>317.49</course>
  <speed>0.9689685237405805</speed>
  <fix>3d</fix>
</trkpt>
<trkpt lat="33.8099788" lon="-118.3946547">
  <ele>-24.41</ele>
  <time>2026-09-02T22:08:39Z</time>
  <course>227.52</course>
  <speed>0.99</speed>
  <fix>3d</fix>
</trkpt>
<trkpt lat="33.8099768" lon="-118.394657">
  <ele>-25.013</ele>
  <time>2026-09-02T22:08:39Z</time>
  <course>317.61</course>
  <speed>0.9689685237405805</speed>
  <fix>3d</fix>
</trkpt>
<trkpt lat="33.8099775" lon="-118.3946563">
  <ele>-24.41</ele>
  <time>2026-09-02T22:08:39Z</time>
  <course>227.73</course>
  <speed>1.0</speed>
  <fix>3d</fix>
</trkpt>
<trkpt lat="33.8099762" lon="-118.3946578">
  <ele>-25.013</ele>
  <time>2026-09-02T22:08:39Z</time>
  <course>317.72</course>
  <speed>0.9689685237405805</speed>
  <fix>3d</fix>
</trkpt>
<trkpt lat="33.8099775" lon="-118.3946563">
  <ele>-24.41</ele>
  <time>2026-09-02T22:08:39Z</time>
  <course>227.73</course>
  <speed>1.0</speed>
  <fix>3d</fix>
</trkpt>
<trkpt lat="33.8099755" lon="-118.3946586">
  <ele>-25.013</ele>
  <time>2026-09-02T22:08:39Z</time>
  <course>317.84</course>
  <speed>0.9693812459502195</speed>
  <fix>3d</fix>
</trkpt>
<trkpt lat="33.8099763" lon="-118.3946579">
  <ele>-24.41</ele>
  <time>2026-09-02T22:08:39Z</time>
  <course>227.97</course>
  <speed>0.99</speed>
  <fix>3d</fix>
</trkpt>
<trkpt lat="33.8099749" lon="-118.3946595">
  <ele>-25.014</ele>
  <time>2026-09-02T22:08:39Z</time>
  <course>317.95</course>
  <speed>0.9693812459502195</speed>
  <fix>3d</fix>
</trkpt>
<trkpt lat="33.8099763" lon="-118.3946579">
  <ele>-24.41</ele>
  <time>2026-09-02T22:08:39Z</time>
  <course>227.97</course>
  <speed>0.99</speed>
  <fix>3d</fix>
</trkpt>
<trkpt lat="33.8099743" lon="-118.3946603">
  <ele>-25.013</ele>
  <time>2026-09-02T22:08:39Z</time>
  <course>318.07</course>
  <speed>0.9693812459502195</speed>
  <fix>3d</fix>
</trkpt>
<trkpt lat="33.8099751" lon="-118.3946595">
  <ele>-24.41</ele>
  <time>2026-09-02T22:08:39Z</time>
  <course>228.27</course>
  <speed>0.99</speed>
  <fix>3d</fix>
</trkpt>
<trkpt lat="33.8099737" lon="-118.3946611">
  <ele>-25.013</ele>
  <time>2026-09-02T22:08:39Z</time>
  <course>318.18</course>
  <speed>0.9693812459502195</speed>
  <fix>3d</fix>
</trkpt>
<trkpt lat="33.8099751" lon="-118.3946595">
  <ele>-24.41</ele>
  <time>2026-09-02T22:08:39Z</time>
  <course>228.27</course>
  <speed>0.99</speed>
  <fix>3d</fix>
</trkpt>
<trkpt lat="33.8099731" lon="-118.3946619">
  <ele>-25.014</ele>
  <time>2026-09-02T22:08:39Z</time>
  <course>318.3</course>
  <speed>0.9693812459502195</speed>
  <fix>3d</fix>
</trkpt>
<trkpt lat="33.8099739" lon="-118.3946611">
  <ele>-24.41</ele>
  <time>2026-09-02T22:08:39Z</time>
  <course>228.58</course>
  <speed>0.99</speed>
  <fix>3d</fix>
</trkpt>
<trkpt lat="33.8099726" lon="-118.3946627">
  <ele>-25.013</ele>
  <time>2026-09-02T22:08:39Z</time>
  <course>318.42</course>
  <speed>0.9626006440887103</speed>
  <fix>3d</fix>
</trkpt>
<trkpt lat="33.8099739" lon="-118.3946611">
  <ele>-24.41</ele>
  <time>2026-09-02T22:08:39Z</time>
  <course>228.58</course>
  <speed>0.99</speed>
  <fix>3d</fix>
</trkpt>
<trkpt lat="33.809972" lon="-118.3946635">
  <ele>-25.013</ele>
  <time>2026-09-02T22:08:39Z</time>
  <course>318.53</course>
  <speed>0.97</speed>
  <fix>3d</fix>
</trkpt>
<trkpt lat="33.8099728" lon="-118.3946628">
  <ele>-24.41</ele>
  <time>2026-09-02T22:08:39Z</time>
  <course>228.87</course>
  <speed>0.99</speed>
  <fix>3d</fix>
</trkpt>
<trkpt lat="33.8099714" lon="-118.3946643">
  <ele>-25.013</ele>
  <time>2026-09-02T22:08:39Z</time>
  <course>318.64</course>
  <speed>0.97</speed>
  <fix>3d</fix>
</trkpt>
<trkpt lat="33.8099728" lon="-118.3946628">
  <ele>-24.41</ele>
  <time>2026-09-02T22:08:39Z</time>
  <course>228.87</course>
  <speed>0.99</speed>
  <fix>3d</fix>
</trkpt>
<trkpt lat="33.8099708" lon="-118.3946651">
  <ele>-25.014</ele>
  <time>2026-09-02T22:08:39Z</time>
  <course>318.76</course>
  <speed>0.97</speed>
  <fix>3d</fix>
</trkpt>
<trkpt lat="33.8099717" lon="-118.3946644">
  <ele>-24.41</ele>
  <time>2026-09-02T22:08:39Z</time>
  <course>229.1</course>
  <speed>1.0</speed>
  <fix>3d</fix>
</trkpt>
<trkpt lat="33.8099702" lon="-118.3946659">
  <ele>-25.015</ele>
  <time>2026-09-02T22:08:39Z</time>
  <course>318.87</course>
  <speed>0.97</speed>
  <fix>3d</fix>
</trkpt>
<trkpt lat="33.8099717" lon="-118.3946644">
  <ele>-24.41</ele>
  <time>2026-09-02T22:08:39Z</time>
  <course>229.1</course>
  <speed>1.0</speed>
  <fix>3d</fix>
</trkpt>
<trkpt lat="33.8099696" lon="-118.3946668">
  <ele>-25.016</ele>
  <time>2026-09-02T22:08:39Z</time>
  <course>318.99</course>
  <speed>0.97</speed>
  <fix>3d</fix>
</trkpt>
<trkpt lat="33.8099705" lon="-118.394666">
  <ele>-24.41</ele>
  <time>2026-09-02T22:08:39Z</time>
  <course>229.21</course>
  <speed>1.0</speed>
  <fix>3d</fix>
</trkpt>
<trkpt lat="33.809969" lon="-118.3946676">
  <ele>-25.017</ele>
  <time>2026-09-02T22:08:39Z</time>
  <course>319.1</course>
  <speed>0.97</speed>
  <fix>3d</fix>
</trkpt>
<trkpt lat="33.8099705" lon="-118.394666">
  <ele>-24.41</ele>
  <time>2026-09-02T22:08:39Z</time>
  <course>229.21</course>
  <speed>1.0</speed>
  <fix>3d</fix>
</trkpt>
<trkpt lat="33.8099685" lon="-118.3946684">
  <ele>-25.016</ele>
  <time>2026-09-02T22:08:39Z</time>
  <course>319.22</course>
  <speed>0.97</speed>
  <fix>3d</fix>
</trkpt>
<trkpt lat="33.8099693" lon="-118.3946676">
  <ele>-24.41</ele>
  <time>2026-09-02T22:08:39Z</time>
  <course>229.28</course>
  <speed>1.0</speed>
  <fix>3d</fix>
</trkpt>
<trkpt lat="33.8099679" lon="-118.3946692">
  <ele>-25.016</ele>
  <time>2026-09-02T22:08:39Z</time>
  <course>319.33</course>
  <speed>0.97</speed>
  <fix>3d</fix>
</trkpt>
<trkpt lat="33.8099693" lon="-118.3946676">
  <ele>-24.41</ele>
  <time>2026-09-02T22:08:39Z</time>
  <course>229.28</course>
  <speed>1.0</speed>
  <fix>3d</fix>
</trkpt>
<trkpt lat="33.8099673" lon="-118.39467">
  <ele>-25.016</ele>
  <time>2026-09-02T22:08:39Z</time>
  <course>319.45</course>
  <speed>0.9774456506629922</speed>
  <fix>3d</fix>
</trkpt>
<trkpt lat="33.8099681" lon="-118.3946693">
  <ele>-24.4</ele>
  <time>2026-09-02T22:08:39Z</time>
  <course>229.41</course>
  <speed>1.0</speed>
  <fix>3d</fix>
</trkpt>
<trkpt lat="33.8099667" lon="-118.3946709">
  <ele>-25.015</ele>
  <time>2026-09-02T22:08:39Z</time>
  <course>319.56</course>
  <speed>0.9774456506629922</speed>
  <fix>3d</fix>
</trkpt>
<trkpt lat="33.8099681" lon="-118.3946693">
  <ele>-24.4</ele>
  <time>2026-09-02T22:08:39Z</time>
  <course>229.41</course>
  <speed>1.0</speed>
  <fix>3d</fix>
</trkpt>
<trkpt lat="33.8099661" lon="-118.3946717">
  <ele>-25.015</ele>
  <time>2026-09-02T22:08:39Z</time>
  <course>319.68</course>
  <speed>0.9774456506629922</speed>
  <fix>3d</fix>
</trkpt>
<trkpt lat="33.809967" lon="-118.394671">
  <ele>-24.4</ele>
  <time>2026-09-02T22:08:39Z</time>
  <course>229.61</course>
  <speed>1.0</speed>
  <fix>3d</fix>
</trkpt>
<trkpt lat="33.8099656" lon="-118.3946725">
  <ele>-25.013</ele>
  <time>2026-09-02T22:08:39Z</time>
  <course>319.79</course>
  <speed>0.9774456506629922</speed>
  <fix>3d</fix>
</trkpt>
<trkpt lat="33.809967" lon="-118.394671">
  <ele>-24.4</ele>
  <time>2026-09-02T22:08:39Z</time>
  <course>229.61</course>
  <speed>1.0</speed>
  <fix>3d</fix>
</trkpt>
<trkpt lat="33.809965" lon="-118.3946733">
  <ele>-25.011</ele>
  <time>2026-09-02T22:08:39Z</time>
  <course>319.91</course>
  <speed>0.97082439194738</speed>
  <fix>3d</fix>
</trkpt>
<trkpt lat="33.8099658" lon="-118.3946726">
  <ele>-24.4</ele>
  <time>2026-09-02T22:08:39Z</time>
  <course>229.82</course>
  <speed>1.0</speed>
  <fix>3d</fix>
</trkpt>
<trkpt lat="33.8099644" lon="-118.3946742">
  <ele>-25.01</ele>
  <time>2026-09-02T22:08:39Z</time>
  <course>320.02</course>
  <speed>0.97082439194738</speed>
  <fix>3d</fix>
</trkpt>
<trkpt lat="33.8099658" lon="-118.3946726">
  <ele>-24.4</ele>
  <time>2026-09-02T22:08:39Z</time>
  <course>229.82</course>
  <speed>1.0</speed>
  <fix>3d</fix>
</trkpt>
<trkpt lat="33.8099638" lon="-118.394675">
  <ele>-25.009</ele>
  <time>2026-09-02T22:08:39Z</time>
  <course>320.14</course>
  <speed>0.97082439194738</speed>
  <fix>3d</fix>
</trkpt>
<trkpt lat="33.8099646" lon="-118.3946743">
  <ele>-24.4</ele>
  <time>2026-09-02T22:08:39Z</time>
  <course>230.0</course>
  <speed>1.0</speed>
  <fix>3d</fix>
</trkpt>
<trkpt lat="33.8099633" lon="-118.3946758">
  <ele>-25.008</ele>
  <time>2026-09-02T22:08:39Z</time>
  <course>320.25</course>
  <speed>0.97082439194738</speed>
  <fix>3d</fix>
</trkpt>
<trkpt lat="33.8099646" lon="-118.3946743">
  <ele>-24.4</ele>
  <time>2026-09-02T22:08:39Z</time>
  <course>230.0</course>
  <speed>1.0</speed>
  <fix>3d</fix>
</trkpt>
<trkpt lat="33.8099627" lon="-118.3946767">
  <ele>-25.009</ele>
  <time>2026-09-02T22:08:39Z</time>
  <course>320.37</course>
  <speed>0.9783659846908007</speed>
  <fix>3d</fix>
</trkpt>
<trkpt lat="33.8099634" lon="-118.394676">
  <ele>-24.4</ele>
  <time>2026-09-02T22:08:39Z</time>
  <course>230.23</course>
  <speed>1.0</speed>
  <fix>3d</fix>
</trkpt>
<trkpt lat="33.8099621" lon="-118.3946775">
  <ele>-25.01</ele>
  <time>2026-09-02T22:08:39Z</time>
  <course>320.48</course>
  <speed>0.9718538984847466</speed>
  <fix>3d</fix>
</trkpt>
<trkpt lat="33.8099634" lon="-118.394676">
  <ele>-24.4</ele>
  <time>2026-09-02T22:08:39Z</time>
  <course>230.23</course>
  <speed>1.0</speed>
  <fix>3d</fix>
</trkpt>
<trkpt lat="33.8099615" lon="-118.3946784">
  <ele>-25.011</ele>
  <time>2026-09-02T22:08:39Z</time>
  <course>320.6</course>
  <speed>0.9718538984847466</speed>
  <fix>3d</fix>
</trkpt>
<trkpt lat="33.8099622" lon="-118.3946776">
  <ele>-24.4</ele>
  <time>2026-09-02T22:08:39Z</time>
  <course>230.49</course>
  <speed>1.0</speed>
  <fix>3d</fix>
</trkpt>
<trkpt lat="33.809961" lon="-118.3946792">
  <ele>-25.011</ele>
  <time>2026-09-02T22:08:39Z</time>
  <course>320.71</course>
  <speed>0.9718538984847466</speed>
  <fix>3d</fix>
</trkpt>
<trkpt lat="33.8099622" lon="-118.3946776">
  <ele>-24.4</ele>
  <time>2026-09-02T22:08:39Z</time>
  <course>230.49</course>
  <speed>1.0</speed>
  <fix>3d</fix>
</trkpt>
<trkpt lat="33.8099604" lon="-118.39468">
  <ele>-25.012</ele>
  <time>2026-09-02T22:08:39Z</time>
  <course>320.83</course>
  <speed>0.9718538984847466</speed>
  <fix>3d</fix>
</trkpt>
<trkpt lat="33.8099611" lon="-118.3946793">
  <ele>-24.4</ele>
  <time>2026-09-02T22:08:39Z</time>
  <course>230.81</course>
  <speed>1.0</speed>
  <fix>3d</fix>
</trkpt>
<trkpt lat="33.8099598" lon="-118.3946809">
  <ele>-25.012</ele>
  <time>2026-09-02T22:08:39Z</time>
  <course>320.94</course>
  <speed>0.9654014708917736</speed>
  <fix>3d</fix>
</trkpt>
<trkpt lat="33.8099611" lon="-118.3946793">
  <ele>-24.4</ele>
  <time>2026-09-02T22:08:39Z</time>
  <course>230.81</course>
  <speed>1.0</speed>
  <fix>3d</fix>
</trkpt>
<trkpt lat="33.8099593" lon="-118.3946817">
  <ele>-25.013</ele>
  <time>2026-09-02T22:08:39Z</time>
  <course>321.05</course>
  <speed>0.9654014708917736</speed>
  <fix>3d</fix>
</trkpt>
<trkpt lat="33.80996" lon="-118.394681">
  <ele>-24.4</ele>
  <time>2026-09-02T22:08:39Z</time>
  <course>231.17</course>
  <speed>1.0</speed>
  <fix>3d</fix>
</trkpt>
<trkpt lat="33.8099587" lon="-118.3946826">
  <ele>-25.014</ele>
  <time>2026-09-02T22:08:39Z</time>
  <course>321.17</course>
  <speed>0.9654014708917736</speed>
  <fix>3d</fix>
</trkpt>
<trkpt lat="33.80996" lon="-118.394681">
  <ele>-24.4</ele>
  <time>2026-09-02T22:08:39Z</time>
  <course>231.17</course>
  <speed>1.0</speed>
  <fix>3d</fix>
</trkpt>
<trkpt lat="33.8099581" lon="-118.3946834">
  <ele>-25.014</ele>
  <time>2026-09-02T22:08:39Z</time>
  <course>321.28</course>
  <speed>0.9730878685915265</speed>
  <fix>3d</fix>
</trkpt>
<trkpt lat="33.8099589" lon="-118.3946827">
  <ele>-24.41</ele>
  <time>2026-09-02T22:08:39Z</time>
  <course>231.48</course>
  <speed>1.0</speed>
  <fix>3d</fix>
</trkpt>
<trkpt lat="33.8099576" lon="-118.3946843">
  <ele>-25.014</ele>
  <time>2026-09-02T22:08:39Z</time>
  <course>321.4</course>
  <speed>0.9730878685915265</speed>
  <fix>3d</fix>
</trkpt>
<trkpt lat="33.8099589" lon="-118.3946827">
  <ele>-24.41</ele>
  <time>2026-09-02T22:08:39Z</time>
  <course>231.48</course>
  <speed>1.0</speed>
  <fix>3d</fix>
</trkpt>
<trkpt lat="33.809957" lon="-118.3946851">
  <ele>-25.014</ele>
  <time>2026-09-02T22:08:39Z</time>
  <course>321.51</course>
  <speed>0.9730878685915265</speed>
  <fix>3d</fix>
</trkpt>
<trkpt lat="33.8099577" lon="-118.3946844">
  <ele>-24.41</ele>
  <time>2026-09-02T22:08:39Z</time>
  <course>231.71</course>
  <speed>1.0</speed>
  <fix>3d</fix>
</trkpt>
<trkpt lat="33.8099565" lon="-118.394686">
  <ele>-25.016</ele>
  <time>2026-09-02T22:08:39Z</time>
  <course>321.63</course>
  <speed>0.9667471230885561</speed>
  <fix>3d</fix>
</trkpt>
<trkpt lat="33.8099577" lon="-118.3946844">
  <ele>-24.41</ele>
  <time>2026-09-02T22:08:39Z</time>
  <course>231.71</course>
  <speed>1.0</speed>
  <fix>3d</fix>
</trkpt>
<trkpt lat="33.8099559" lon="-118.3946868">
  <ele>-25.017</ele>
  <time>2026-09-02T22:08:39Z</time>
  <course>321.74</course>
  <speed>0.9667471230885561</speed>
  <fix>3d</fix>
</trkpt>
<trkpt lat="33.8099566" lon="-118.3946861">
  <ele>-24.41</ele>
  <time>2026-09-02T22:08:39Z</time>
  <course>231.92</course>
  <speed>1.0</speed>
  <fix>3d</fix>
</trkpt>
<trkpt lat="33.8099554" lon="-118.3946877">
  <ele>-25.018</ele>
  <time>2026-09-02T22:08:39Z</time>
  <course>321.85</course>
  <speed>0.9667471230885561</speed>
  <fix>3d</fix>
</trkpt>
<trkpt lat="33.8099566" lon="-118.3946861">
  <ele>-24.41</ele>
  <time>2026-09-02T22:08:39Z</time>
  <course>231.92</course>
  <speed>1.0</speed>
  <fix>3d</fix>
</trkpt>
<trkpt lat="33.8099548" lon="-118.3946885">
  <ele>-25.019</ele>
  <time>2026-09-02T22:08:39Z</time>
  <course>321.97</course>
  <speed>0.9667471230885561</speed>
  <fix>3d</fix>
</trkpt>
<trkpt lat="33.8099555" lon="-118.3946878">
  <ele>-24.4</ele>
  <time>2026-09-02T22:08:39Z</time>
  <course>232.16</course>
  <speed>1.0</speed>
  <fix>3d</fix>
</trkpt>
<trkpt lat="33.8099543" lon="-118.3946894">
  <ele>-25.019</ele>
  <time>2026-09-02T22:08:39Z</time>
  <course>322.08</course>
  <speed>0.9667471230885561</speed>
  <fix>3d</fix>
</trkpt>
<trkpt lat="33.8099555" lon="-118.3946878">
  <ele>-24.4</ele>
  <time>2026-09-02T22:08:39Z</time>
  <course>232.16</course>
  <speed>1.0</speed>
  <fix>3d</fix>
</trkpt>
<trkpt lat="33.8099537" lon="-118.3946902">
  <ele>-25.017</ele>
  <time>2026-09-02T22:08:39Z</time>
  <course>322.2</course>
  <speed>0.9667471230885561</speed>
  <fix>3d</fix>
</trkpt>
<trkpt lat="33.8099544" lon="-118.3946895">
  <ele>-24.4</ele>
  <time>2026-09-02T22:08:39Z</time>
  <course>232.41</course>
  <speed>1.0</speed>
  <fix>3d</fix>
</trkpt>
<trkpt lat="33.8099532" lon="-118.3946911">
  <ele>-25.015</ele>
  <time>2026-09-02T22:08:39Z</time>
  <course>322.32</course>
  <speed>0.9604686356149272</speed>
  <fix>3d</fix>
</trkpt>
<trkpt lat="33.8099544" lon="-118.3946895">
  <ele>-24.4</ele>
  <time>2026-09-02T22:08:39Z</time>
  <course>232.41</course>
  <speed>1.0</speed>
  <fix>3d</fix>
</trkpt>
<trkpt lat="33.8099526" lon="-118.394692">
  <ele>-25.014</ele>
  <time>2026-09-02T22:08:39Z</time>
  <course>322.43</course>
  <speed>0.9682974749528164</speed>
  <fix>3d</fix>
</trkpt>
<trkpt lat="33.8099533" lon="-118.3946913">
  <ele>-24.4</ele>
  <time>2026-09-02T22:08:39Z</time>
  <course>232.66</course>
  <speed>1.0</speed>
  <fix>3d</fix>
</trkpt>
<trkpt lat="33.8099521" lon="-118.3946928">
  <ele>-25.014</ele>
  <time>2026-09-02T22:08:39Z</time>
  <course>322.55</course>
  <speed>0.9682974749528164</speed>
  <fix>3d</fix>
</trkpt>
<trkpt lat="33.8099533" lon="-118.3946913">
  <ele>-24.4</ele>
  <time>2026-09-02T22:08:39Z</time>
  <course>232.66</course>
  <speed>1.0</speed>
  <fix>3d</fix>
</trkpt>
<trkpt lat="33.8099515" lon="-118.3946937">
  <ele>-25.014</ele>
  <time>2026-09-02T22:08:39Z</time>
  <course>322.66</course>
  <speed>0.9682974749528164</speed>
  <fix>3d</fix>
</trkpt>
<trkpt lat="33.8099522" lon="-118.394693">
  <ele>-24.39</ele>
  <time>2026-09-02T22:08:39Z</time>
  <course>232.88</course>
  <speed>1.0</speed>
  <fix>3d</fix>
</trkpt>
<trkpt lat="33.809951" lon="-118.3946946">
  <ele>-25.014</ele>
  <time>2026-09-02T22:08:39Z</time>
  <course>322.78</course>
  <speed>0.9682974749528164</speed>
  <fix>3d</fix>
</trkpt>
<trkpt lat="33.8099522" lon="-118.394693">
  <ele>-24.39</ele>
  <time>2026-09-02T22:08:39Z</time>
  <course>232.88</course>
  <speed>1.0</speed>
  <fix>3d</fix>
</trkpt>
<trkpt lat="33.8099504" lon="-118.3946954">
  <ele>-25.013</ele>
  <time>2026-09-02T22:08:39Z</time>
  <course>322.89</course>
  <speed>0.9682974749528164</speed>
  <fix>3d</fix>
</trkpt>
<trkpt lat="33.8099512" lon="-118.3946947">
  <ele>-24.39</ele>
  <time>2026-09-02T22:08:39Z</time>
  <course>233.08</course>
  <speed>1.0</speed>
  <fix>3d</fix>
</trkpt>
<trkpt lat="33.8099499" lon="-118.3946963">
  <ele>-25.01</ele>
  <time>2026-09-02T22:08:39Z</time>
  <course>323.0</course>
  <speed>0.9682974749528164</speed>
  <fix>3d</fix>
</trkpt>
<trkpt lat="33.8099512" lon="-118.3946947">
  <ele>-24.39</ele>
  <time>2026-09-02T22:08:39Z</time>
  <course>233.08</course>
  <speed>1.0</speed>
  <fix>3d</fix>
</trkpt>
<trkpt lat="33.8099494" lon="-118.3946972">
  <ele>-25.008</ele>
  <time>2026-09-02T22:08:39Z</time>
  <course>323.12</course>
  <speed>0.9621330469326995</speed>
  <fix>3d</fix>
</trkpt>
<trkpt lat="33.8099501" lon="-118.3946964">
  <ele>-24.39</ele>
  <time>2026-09-02T22:08:39Z</time>
  <course>233.27</course>
  <speed>1.0</speed>
  <fix>3d</fix>
</trkpt>
<trkpt lat="33.8099488" lon="-118.394698">
  <ele>-25.007</ele>
  <time>2026-09-02T22:08:39Z</time>
  <course>323.24</course>
  <speed>0.9621330469326995</speed>
  <fix>3d</fix>
</trkpt>
<trkpt lat="33.8099501" lon="-118.3946964">
  <ele>-24.39</ele>
  <time>2026-09-02T22:08:39Z</time>
  <course>233.27</course>
  <speed>1.0</speed>
  <fix>3d</fix>
</trkpt>
<trkpt lat="33.8099483" lon="-118.3946989">
  <ele>-25.007</ele>
  <time>2026-09-02T22:08:39Z</time>
  <course>323.35</course>
  <speed>0.9621330469326995</speed>
  <fix>3d</fix>
</trkpt>
<trkpt lat="33.809949" lon="-118.3946982">
  <ele>-24.39</ele>
  <time>2026-09-02T22:08:39Z</time>
  <course>233.45</course>
  <speed>1.0</speed>
  <fix>3d</fix>
</trkpt>
<trkpt lat="33.8099478" lon="-118.3946998">
  <ele>-25.008</ele>
  <time>2026-09-02T22:08:39Z</time>
  <course>323.46</course>
  <speed>0.9621330469326995</speed>
  <fix>3d</fix>
</trkpt>
<trkpt lat="33.809949" lon="-118.3946982">
  <ele>-24.39</ele>
  <time>2026-09-02T22:08:39Z</time>
  <course>233.45</course>
  <speed>1.0</speed>
  <fix>3d</fix>
</trkpt>
<trkpt lat="33.8099472" lon="-118.3947007">
  <ele>-25.008</ele>
  <time>2026-09-02T22:08:39Z</time>
  <course>323.58</course>
  <speed>0.970051545022222</speed>
  <fix>3d</fix>
</trkpt>
<trkpt lat="33.8099479" lon="-118.3946999">
  <ele>-24.39</ele>
  <time>2026-09-02T22:08:39Z</time>
  <course>233.65</course>
  <speed>0.99</speed>
  <fix>3d</fix>
</trkpt>
<trkpt lat="33.8099467" lon="-118.3947015">
  <ele>-25.008</ele>
  <time>2026-09-02T22:08:39Z</time>
  <course>323.69</course>
  <speed>0.970051545022222</speed>
  <fix>3d</fix>
</trkpt>
<trkpt lat="33.8099479" lon="-118.3946999">
  <ele>-24.39</ele>
  <time>2026-09-02T22:08:39Z</time>
  <course>233.65</course>
  <speed>0.99</speed>
  <fix>3d</fix>
</trkpt>
<trkpt lat="33.8099462" lon="-118.3947024">
  <ele>-25.009</ele>
  <time>2026-09-02T22:08:39Z</time>
  <course>323.81</course>
  <speed>0.970051545022222</speed>
  <fix>3d</fix>
</trkpt>
<trkpt lat="33.8099469" lon="-118.3947016">
  <ele>-24.39</ele>
  <time>2026-09-02T22:08:39Z</time>
  <course>233.88</course>
  <speed>0.99</speed>
  <fix>3d</fix>
</trkpt>
<trkpt lat="33.8099456" lon="-118.3947033">
  <ele>-25.01</ele>
  <time>2026-09-02T22:08:39Z</time>
  <course>323.92</course>
  <speed>0.9640020746865642</speed>
  <fix>3d</fix>
</trkpt>
<trkpt lat="33.8099469" lon="-118.3947016">
  <ele>-24.39</ele>
  <time>2026-09-02T22:08:39Z</time>
  <course>233.88</course>
  <speed>0.99</speed>
  <fix>3d</fix>
</trkpt>
<trkpt lat="33.8099451" lon="-118.3947042">
  <ele>-25.011</ele>
  <time>2026-09-02T22:08:39Z</time>
  <course>324.04</course>
  <speed>0.9640020746865642</speed>
  <fix>3d</fix>
</trkpt>
<trkpt lat="33.8099458" lon="-118.3947034">
  <ele>-24.4</ele>
  <time>2026-09-02T22:08:39Z</time>
  <course>234.12</course>
  <speed>1.0</speed>
  <fix>3d</fix>
</trkpt>
<trkpt lat="33.8099446" lon="-118.394705">
  <ele>-25.01</ele>
  <time>2026-09-02T22:08:39Z</time>
  <course>324.15</course>
  <speed>0.9640020746865642</speed>
  <fix>3d</fix>
</trkpt>
<trkpt lat="33.8099458" lon="-118.3947034">
  <ele>-24.4</ele>
  <time>2026-09-02T22:08:39Z</time>
  <course>234.12</course>
  <speed>1.0</speed>
  <fix>3d</fix>
</trkpt>
<trkpt lat="33.8099441" lon="-118.3947059">
  <ele>-25.009</ele>
  <time>2026-09-02T22:08:39Z</time>
  <course>324.27</course>
  <speed>0.9640020746865642</speed>
  <fix>3d</fix>
</trkpt>
<trkpt lat="33.8099447" lon="-118.3947052">
  <ele>-24.4</ele>
  <time>2026-09-02T22:08:39Z</time>
  <course>234.37</course>
  <speed>0.99</speed>
  <fix>3d</fix>
</trkpt>
<trkpt lat="33.8099436" lon="-118.3947068">
  <ele>-25.009</ele>
  <time>2026-09-02T22:08:39Z</time>
  <course>324.38</course>
  <speed>0.9640020746865642</speed>
  <fix>3d</fix>
</trkpt>
<trkpt lat="33.8099447" lon="-118.3947052">
  <ele>-24.4</ele>
  <time>2026-09-02T22:08:39Z</time>
  <course>234.37</course>
  <speed>0.99</speed>
  <fix>3d</fix>
</trkpt>
<trkpt lat="33.809943" lon="-118.3947077">
  <ele>-25.009</ele>
  <time>2026-09-02T22:08:39Z</time>
  <course>324.49</course>
  <speed>0.9660745312862771</speed>
  <fix>3d</fix>
</trkpt>
<trkpt lat="33.8099437" lon="-118.3947069">
  <ele>-24.4</ele>
  <time>2026-09-02T22:08:39Z</time>
  <course>234.64</course>
  <speed>0.99</speed>
  <fix>3d</fix>
</trkpt>
<trkpt lat="33.8099425" lon="-118.3947086">
  <ele>-25.01</ele>
  <time>2026-09-02T22:08:39Z</time>
  <course>324.61</course>
  <speed>0.9660745312862771</speed>
  <fix>3d</fix>
</trkpt>
<trkpt lat="33.8099437" lon="-118.3947069">
  <ele>-24.4</ele>
  <time>2026-09-02T22:08:39Z</time>
  <course>234.64</course>
  <speed>0.99</speed>
  <fix>3d</fix>
</trkpt>
<trkpt lat="33.809942" lon="-118.3947095">
  <ele>-25.01</ele>
  <time>2026-09-02T22:08:39Z</time>
  <course>324.73</course>
  <speed>0.9660745312862771</speed>
  <fix>3d</fix>
</trkpt>
<trkpt lat="33.8099427" lon="-118.3947087">
  <ele>-24.41</ele>
  <time>2026-09-02T22:08:39Z</time>
  <course>234.9</course>
  <speed>0.99</speed>
  <fix>3d</fix>
</trkpt>
<trkpt lat="33.8099415" lon="-118.3947103">
  <ele>-25.011</ele>
  <time>2026-09-02T22:08:39Z</time>
  <course>324.84</course>
  <speed>0.9660745312862771</speed>
  <fix>3d</fix>
</trkpt>
<trkpt lat="33.8099427" lon="-118.3947087">
  <ele>-24.41</ele>
  <time>2026-09-02T22:08:39Z</time>
  <course>234.9</course>
  <speed>0.99</speed>
  <fix>3d</fix>
</trkpt>
<trkpt lat="33.809941" lon="-118.3947112">
  <ele>-25.011</ele>
  <time>2026-09-02T22:08:39Z</time>
  <course>324.96</course>
  <speed>0.9660745312862771</speed>
  <fix>3d</fix>
</trkpt>
<trkpt lat="33.8099416" lon="-118.3947105">
  <ele>-24.41</ele>
  <time>2026-09-02T22:08:39Z</time>
  <course>235.12</course>
  <speed>0.99</speed>
  <fix>3d</fix>
</trkpt>
<trkpt lat="33.8099404" lon="-118.3947121">
  <ele>-25.014</ele>
  <time>2026-09-02T22:08:39Z</time>
  <course>325.07</course>
  <speed>0.9660745312862771</speed>
  <fix>3d</fix>
</trkpt>
<trkpt lat="33.8099416" lon="-118.3947105">
  <ele>-24.41</ele>
  <time>2026-09-02T22:08:39Z</time>
  <course>235.12</course>
  <speed>0.99</speed>
  <fix>3d</fix>
</trkpt>
<trkpt lat="33.8099399" lon="-118.394713">
  <ele>-25.016</ele>
  <time>2026-09-02T22:08:39Z</time>
  <course>325.19</course>
  <speed>0.9660745312862771</speed>
  <fix>3d</fix>
</trkpt>
<trkpt lat="33.8099407" lon="-118.3947122">
  <ele>-24.41</ele>
  <time>2026-09-02T22:08:39Z</time>
  <course>235.34</course>
  <speed>0.99</speed>
  <fix>3d</fix>
</trkpt>
<trkpt lat="33.8099394" lon="-118.3947139">
  <ele>-25.018</ele>
  <time>2026-09-02T22:08:39Z</time>
  <course>325.3</course>
  <speed>0.9602083107326242</speed>
  <fix>3d</fix>
</trkpt>
<trkpt lat="33.8099407" lon="-118.3947122">
  <ele>-24.41</ele>
  <time>2026-09-02T22:08:39Z</time>
  <course>235.34</course>
  <speed>0.99</speed>
  <fix>3d</fix>
</trkpt>
<trkpt lat="33.8099389" lon="-118.3947148">
  <ele>-25.02</ele>
  <time>2026-09-02T22:08:39Z</time>
  <course>325.41</course>
  <speed>0.9602083107326242</speed>
  <fix>3d</fix>
</trkpt>
<trkpt lat="33.8099397" lon="-118.394714">
  <ele>-24.42</ele>
  <time>2026-09-02T22:08:39Z</time>
  <course>235.53</course>
  <speed>0.99</speed>
  <fix>3d</fix>
</trkpt>
<trkpt lat="33.8099384" lon="-118.3947157">
  <ele>-25.022</ele>
  <time>2026-09-02T22:08:39Z</time>
  <course>325.53</course>
  <speed>0.9602083107326242</speed>
  <fix>3d</fix>
</trkpt>
<trkpt lat="33.8099397" lon="-118.394714">
  <ele>-24.42</ele>
  <time>2026-09-02T22:08:39Z</time>
  <course>235.53</course>
  <speed>0.99</speed>
  <fix>3d</fix>
</trkpt>
<trkpt lat="33.8099379" lon="-118.3947166">
  <ele>-25.022</ele>
  <time>2026-09-02T22:08:39Z</time>
  <course>325.64</course>
  <speed>0.9683491106000975</speed>
  <fix>3d</fix>
</trkpt>
<trkpt lat="33.8099386" lon="-118.3947158">
  <ele>-24.42</ele>
  <time>2026-09-02T22:08:39Z</time>
  <course>235.68</course>
  <speed>0.99</speed>
  <fix>3d</fix>
</trkpt>
<trkpt lat="33.8099374" lon="-118.3947175">
  <ele>-25.022</ele>
  <time>2026-09-02T22:08:39Z</time>
  <course>325.76</course>
  <speed>0.9683491106000975</speed>
  <fix>3d</fix>
</trkpt>
<trkpt lat="33.8099386" lon="-118.3947158">
  <ele>-24.42</ele>
  <time>2026-09-02T22:08:39Z</time>
  <course>235.68</course>
  <speed>0.99</speed>
  <fix>3d</fix>
</trkpt>
<trkpt lat="33.8099369" lon="-118.3947184">
  <ele>-25.02</ele>
  <time>2026-09-02T22:08:39Z</time>
  <course>325.87</course>
  <speed>0.9683491106000975</speed>
  <fix>3d</fix>
</trkpt>
<trkpt lat="33.8099376" lon="-118.3947176">
  <ele>-24.42</ele>
  <time>2026-09-02T22:08:39Z</time>
  <course>235.85</course>
  <speed>0.99</speed>
  <fix>3d</fix>
</trkpt>
<trkpt lat="33.8099364" lon="-118.3947193">
  <ele>-25.018</ele>
  <time>2026-09-02T22:08:39Z</time>
  <course>325.99</course>
  <speed>0.9683491106000975</speed>
  <fix>3d</fix>
</trkpt>
<trkpt lat="33.8099376" lon="-118.3947176">
  <ele>-24.42</ele>
  <time>2026-09-02T22:08:39Z</time>
  <course>235.85</course>
  <speed>0.99</speed>
  <fix>3d</fix>
</trkpt>
<trkpt lat="33.8099359" lon="-118.3947202">
  <ele>-25.015</ele>
  <time>2026-09-02T22:08:39Z</time>
  <course>326.1</course>
  <speed>0.9683491106000975</speed>
  <fix>3d</fix>
</trkpt>
<trkpt lat="33.8099366" lon="-118.3947193">
  <ele>-24.41</ele>
  <time>2026-09-02T22:08:39Z</time>
  <course>236.08</course>
  <speed>0.99</speed>
  <fix>3d</fix>
</trkpt>
<trkpt lat="33.8099354" lon="-118.3947211">
  <ele>-25.012</ele>
  <time>2026-09-02T22:08:39Z</time>
  <course>326.22</course>
  <speed>0.9626006440887103</speed>
  <fix>3d</fix>
</trkpt>
<trkpt lat="33.8099366" lon="-118.3947193">
  <ele>-24.41</ele>
  <time>2026-09-02T22:08:39Z</time>
  <course>236.08</course>
  <speed>0.99</speed>
  <fix>3d</fix>
</trkpt>
<trkpt lat="33.8099349" lon="-118.394722">
  <ele>-25.011</ele>
  <time>2026-09-02T22:08:39Z</time>
  <course>326.33</course>
  <speed>0.9626006440887103</speed>
  <fix>3d</fix>
</trkpt>
<trkpt lat="33.8099356" lon="-118.3947212">
  <ele>-24.41</ele>
  <time>2026-09-02T22:08:39Z</time>
  <course>236.33</course>
  <speed>0.99</speed>
  <fix>3d</fix>
</trkpt>
<trkpt lat="33.8099344" lon="-118.3947229">
  <ele>-25.01</ele>
  <time>2026-09-02T22:08:39Z</time>
  <course>326.45</course>
  <speed>0.9626006440887103</speed>
  <fix>3d</fix>
</trkpt>
<trkpt lat="33.8099356" lon="-118.3947212">
  <ele>-24.41</ele>
  <time>2026-09-02T22:08:39Z</time>
  <course>236.33</course>
  <speed>0.99</speed>
  <fix>3d</fix>
</trkpt>
<trkpt lat="33.8099339" lon="-118.3947238">
  <ele>-25.012</ele>
  <time>2026-09-02T22:08:39Z</time>
  <course>326.56</course>
  <speed>0.97082439194738</speed>
  <fix>3d</fix>
</trkpt>
<trkpt lat="33.8099347" lon="-118.394723">
  <ele>-24.41</ele>
  <time>2026-09-02T22:08:39Z</time>
  <course>236.59</course>
  <speed>0.99</speed>
  <fix>3d</fix>
</trkpt>
<trkpt lat="33.8099334" lon="-118.3947247">
  <ele>-25.013</ele>
  <time>2026-09-02T22:08:39Z</time>
  <course>326.67</course>
  <speed>0.97082439194738</speed>
  <fix>3d</fix>
</trkpt>
<trkpt lat="33.8099347" lon="-118.394723">
  <ele>-24.41</ele>
  <time>2026-09-02T22:08:39Z</time>
  <course>236.59</course>
  <speed>0.99</speed>
  <fix>3d</fix>
</trkpt>
<trkpt lat="33.809933" lon="-118.3947256">
  <ele>-25.014</ele>
  <time>2026-09-02T22:08:39Z</time>
  <course>326.79</course>
  <speed>0.97082439194738</speed>
  <fix>3d</fix>
</trkpt>
<trkpt lat="33.8099337" lon="-118.3947248">
  <ele>-24.41</ele>
  <time>2026-09-02T22:08:39Z</time>
  <course>236.78</course>
  <speed>0.99</speed>
  <fix>3d</fix>
</trkpt>
<trkpt lat="33.8099325" lon="-118.3947265">
  <ele>-25.014</ele>
  <time>2026-09-02T22:08:39Z</time>
  <course>326.91</course>
  <speed>0.97082439194738</speed>
  <fix>3d</fix>
</trkpt>
<trkpt lat="33.8099337" lon="-118.3947248">
  <ele>-24.41</ele>
  <time>2026-09-02T22:08:39Z</time>
  <course>236.78</course>
  <speed>0.99</speed>
  <fix>3d</fix>
</trkpt>
<trkpt lat="33.809932" lon="-118.3947274">
  <ele>-25.015</ele>
  <time>2026-09-02T22:08:39Z</time>
  <course>327.02</course>
  <speed>0.9651942809610924</speed>
  <fix>3d</fix>
</trkpt>
<trkpt lat="33.8099327" lon="-118.3947265">
  <ele>-24.41</ele>
  <time>2026-09-02T22:08:39Z</time>
  <course>236.92</course>
  <speed>0.99</speed>
  <fix>3d</fix>
</trkpt>
<trkpt lat="33.8099315" lon="-118.3947283">
  <ele>-25.015</ele>
  <time>2026-09-02T22:08:39Z</time>
  <course>327.14</course>
  <speed>0.9651942809610924</speed>
  <fix>3d</fix>
</trkpt>
<trkpt lat="33.8099327" lon="-118.3947265">
  <ele>-24.41</ele>
  <time>2026-09-02T22:08:39Z</time>
  <course>236.92</course>
  <speed>0.99</speed>
  <fix>3d</fix>
</trkpt>
<trkpt lat="33.809931" lon="-118.3947292">
  <ele>-25.016</ele>
  <time>2026-09-02T22:08:39Z</time>
  <course>327.25</course>
  <speed>0.9651942809610924</speed>
  <fix>3d</fix>
</trkpt>
<trkpt lat="33.8099317" lon="-118.3947284">
  <ele>-24.41</ele>
  <time>2026-09-02T22:08:39Z</time>
  <course>237.11</course>
  <speed>0.99</speed>
  <fix>3d</fix>
</trkpt>
<trkpt lat="33.8099305" lon="-118.3947301">
  <ele>-25.017</ele>
  <time>2026-09-02T22:08:39Z</time>
  <course>327.36</course>
  <speed>0.9651942809610924</speed>
  <fix>3d</fix>
</trkpt>
<trkpt lat="33.8099317" lon="-118.3947284">
  <ele>-24.41</ele>
  <time>2026-09-02T22:08:39Z</time>
  <course>237.11</course>
  <speed>0.99</speed>
  <fix>3d</fix>
</trkpt>
<trkpt lat="33.8099301" lon="-118.3947311">
  <ele>-25.016</ele>
  <time>2026-09-02T22:08:39Z</time>
  <course>327.48</course>
  <speed>0.973498844375277</speed>
  <fix>3d</fix>
</trkpt>
<trkpt lat="33.8099307" lon="-118.3947302">
  <ele>-24.41</ele>
  <time>2026-09-02T22:08:39Z</time>
  <course>237.35</course>
  <speed>0.99</speed>
  <fix>3d</fix>
</trkpt>
<trkpt lat="33.8099296" lon="-118.394732">
  <ele>-25.014</ele>
  <time>2026-09-02T22:08:39Z</time>
  <course>327.59</course>
  <speed>0.973498844375277</speed>
  <fix>3d</fix>
</trkpt>
<trkpt lat="33.8099307" lon="-118.3947302">
  <ele>-24.41</ele>
  <time>2026-09-02T22:08:39Z</time>
  <course>237.35</course>
  <speed>0.99</speed>
  <fix>3d</fix>
</trkpt>
<trkpt lat="33.8099291" lon="-118.3947329">
  <ele>-25.012</ele>
  <time>2026-09-02T22:08:39Z</time>
  <course>327.7</course>
  <speed>0.9679876032264049</speed>
  <fix>3d</fix>
</trkpt>
<trkpt lat="33.8099298" lon="-118.394732">
  <ele>-24.4</ele>
  <time>2026-09-02T22:08:39Z</time>
  <course>237.62</course>
  <speed>0.99</speed>
  <fix>3d</fix>
</trkpt>
<trkpt lat="33.8099286" lon="-118.3947338">
  <ele>-25.012</ele>
  <time>2026-09-02T22:08:39Z</time>
  <course>327.82</course>
  <speed>0.9679876032264049</speed>
  <fix>3d</fix>
</trkpt>
<trkpt lat="33.8099298" lon="-118.394732">
  <ele>-24.4</ele>
  <time>2026-09-02T22:08:39Z</time>
  <course>237.62</course>
  <speed>0.99</speed>
  <fix>3d</fix>
</trkpt>
<trkpt lat="33.8099281" lon="-118.3947347">
  <ele>-25.011</ele>
  <time>2026-09-02T22:08:39Z</time>
  <course>327.94</course>
  <speed>0.9679876032264049</speed>
  <fix>3d</fix>
</trkpt>
<trkpt lat="33.8099288" lon="-118.3947338">
  <ele>-24.4</ele>
  <time>2026-09-02T22:08:39Z</time>
  <course>237.91</course>
  <speed>0.99</speed>
  <fix>3d</fix>
</trkpt>
<trkpt lat="33.8099277" lon="-118.3947356">
  <ele>-25.01</ele>
  <time>2026-09-02T22:08:39Z</time>
  <course>328.05</course>
  <speed>0.9679876032264049</speed>
  <fix>3d</fix>
</trkpt>
<trkpt lat="33.8099288" lon="-118.3947338">
  <ele>-24.4</ele>
  <time>2026-09-02T22:08:39Z</time>
  <course>237.91</course>
  <speed>0.99</speed>
  <fix>3d</fix>
</trkpt>
<trkpt lat="33.8099272" lon="-118.3947366">
  <ele>-25.008</ele>
  <time>2026-09-02T22:08:39Z</time>
  <course>328.17</course>
  <speed>0.9679876032264049</speed>
  <fix>3d</fix>
</trkpt>
<trkpt lat="33.8099279" lon="-118.3947357">
  <ele>-24.4</ele>
  <time>2026-09-02T22:08:39Z</time>
  <course>238.17</course>
  <speed>0.99</speed>
  <fix>3d</fix>
</trkpt>
<trkpt lat="33.8099267" lon="-118.3947375">
  <ele>-25.008</ele>
  <time>2026-09-02T22:08:39Z</time>
  <course>328.28</course>
  <speed>0.9625487000666512</speed>
  <fix>3d</fix>
</trkpt>
<trkpt lat="33.8099279" lon="-118.3947357">
  <ele>-24.4</ele>
  <time>2026-09-02T22:08:39Z</time>
  <course>238.17</course>
  <speed>0.99</speed>
  <fix>3d</fix>
</trkpt>
<trkpt lat="33.8099263" lon="-118.3947384">
  <ele>-25.007</ele>
  <time>2026-09-02T22:08:39Z</time>
  <course>328.39</course>
  <speed>0.9709788875150684</speed>
  <fix>3d</fix>
</trkpt>
<trkpt lat="33.8099269" lon="-118.3947375">
  <ele>-24.4</ele>
  <time>2026-09-02T22:08:39Z</time>
  <course>238.41</course>
  <speed>0.99</speed>
  <fix>3d</fix>
</trkpt>
<trkpt lat="33.8099258" lon="-118.3947393">
  <ele>-25.008</ele>
  <time>2026-09-02T22:08:39Z</time>
  <course>328.51</course>
  <speed>0.9709788875150684</speed>
  <fix>3d</fix>
</trkpt>
<trkpt lat="33.8099269" lon="-118.3947375">
  <ele>-24.4</ele>
  <time>2026-09-02T22:08:39Z</time>
  <course>238.41</course>
  <speed>0.99</speed>
  <fix>3d</fix>
</trkpt>
<trkpt lat="33.8099253" lon="-118.3947403">
  <ele>-25.008</ele>
  <time>2026-09-02T22:08:39Z</time>
  <course>328.63</course>
  <speed>0.9709788875150684</speed>
  <fix>3d</fix>
</trkpt>
<trkpt lat="33.809926" lon="-118.3947393">
  <ele>-24.4</ele>
  <time>2026-09-02T22:08:39Z</time>
  <course>238.63</course>
  <speed>0.99</speed>
  <fix>3d</fix>
</trkpt>
<trkpt lat="33.8099249" lon="-118.3947412">
  <ele>-25.009</ele>
  <time>2026-09-02T22:08:39Z</time>
  <course>328.74</course>
  <speed>0.9709788875150684</speed>
  <fix>3d</fix>
</trkpt>
<trkpt lat="33.809926" lon="-118.3947393">
  <ele>-24.4</ele>
  <time>2026-09-02T22:08:39Z</time>
  <course>238.63</course>
  <speed>0.99</speed>
  <fix>3d</fix>
</trkpt>
<trkpt lat="33.8099244" lon="-118.3947421">
  <ele>-25.01</ele>
  <time>2026-09-02T22:08:39Z</time>
  <course>328.85</course>
  <speed>0.9709788875150684</speed>
  <fix>3d</fix>
</trkpt>
<trkpt lat="33.809925" lon="-118.3947412">
  <ele>-24.41</ele>
  <time>2026-09-02T22:08:39Z</time>
  <course>238.88</course>
  <speed>0.99</speed>
  <fix>3d</fix>
</trkpt>
<trkpt lat="33.8099239" lon="-118.394743">
  <ele>-25.011</ele>
  <time>2026-09-02T22:08:39Z</time>
  <course>328.97</course>
  <speed>0.9656603957913983</speed>
  <fix>3d</fix>
</trkpt>
<trkpt lat="33.809925" lon="-118.3947412">
  <ele>-24.41</ele>
  <time>2026-09-02T22:08:39Z</time>
  <course>238.88</course>
  <speed>0.99</speed>
  <fix>3d</fix>
</trkpt>
<trkpt lat="33.8099235" lon="-118.394744">
  <ele>-25.013</ele>
  <time>2026-09-02T22:08:39Z</time>
  <course>329.08</course>
  <speed>0.9656603957913983</speed>
  <fix>3d</fix>
</trkpt>
<trkpt lat="33.8099241" lon="-118.394743">
  <ele>-24.41</ele>
  <time>2026-09-02T22:08:39Z</time>
  <course>239.15</course>
  <speed>0.99</speed>
  <fix>3d</fix>
</trkpt>
<trkpt lat="33.809923" lon="-118.3947449">
  <ele>-25.015</ele>
  <time>2026-09-02T22:08:39Z</time>
  <course>329.2</course>
  <speed>0.9656603957913983</speed>
  <fix>3d</fix>
</trkpt>
<trkpt lat="33.8099241" lon="-118.394743">
  <ele>-24.41</ele>
  <time>2026-09-02T22:08:39Z</time>
  <course>239.15</course>
  <speed>0.99</speed>
  <fix>3d</fix>
</trkpt>
<trkpt lat="33.8099226" lon="-118.3947458">
  <ele>-25.017</ele>
  <time>2026-09-02T22:08:39Z</time>
  <course>329.31</course>
  <speed>0.9741663102366043</speed>
  <fix>3d</fix>
</trkpt>
<trkpt lat="33.8099232" lon="-118.3947449">
  <ele>-24.41</ele>
  <time>2026-09-02T22:08:39Z</time>
  <course>239.46</course>
  <speed>0.99</speed>
  <fix>3d</fix>
</trkpt>
<trkpt lat="33.8099221" lon="-118.3947468">
  <ele>-25.019</ele>
  <time>2026-09-02T22:08:39Z</time>
  <course>329.43</course>
  <speed>0.9741663102366043</speed>
  <fix>3d</fix>
</trkpt>
<trkpt lat="33.8099232" lon="-118.3947449">
  <ele>-24.41</ele>
  <time>2026-09-02T22:08:39Z</time>
  <course>239.46</course>
  <speed>0.99</speed>
  <fix>3d</fix>
</trkpt>
<trkpt lat="33.8099216" lon="-118.3947477">
  <ele>-25.02</ele>
  <time>2026-09-02T22:08:39Z</time>
  <course>329.54</course>
  <speed>0.9689685237405805</speed>
  <fix>3d</fix>
</trkpt>
<trkpt lat="33.8099223" lon="-118.3947468">
  <ele>-24.42</ele>
  <time>2026-09-02T22:08:39Z</time>
  <course>239.73</course>
  <speed>0.99</speed>
  <fix>3d</fix>
</trkpt>
<trkpt lat="33.8099212" lon="-118.3947486">
  <ele>-25.021</ele>
  <time>2026-09-02T22:08:39Z</time>
  <course>329.66</course>
  <speed>0.9689685237405805</speed>
  <fix>3d</fix>
</trkpt>
<trkpt lat="33.8099223" lon="-118.3947468">
  <ele>-24.42</ele>
  <time>2026-09-02T22:08:39Z</time>
  <course>239.73</course>
  <speed>0.99</speed>
  <fix>3d</fix>
</trkpt>
<trkpt lat="33.8099207" lon="-118.3947496">
  <ele>-25.021</ele>
  <time>2026-09-02T22:08:39Z</time>
  <course>329.77</course>
  <speed>0.9689685237405805</speed>
  <fix>3d</fix>
</trkpt>
<trkpt lat="33.8099214" lon="-118.3947486">
  <ele>-24.42</ele>
  <time>2026-09-02T22:08:39Z</time>
  <course>239.96</course>
  <speed>0.99</speed>
  <fix>3d</fix>
</trkpt>
<trkpt lat="33.8099203" lon="-118.3947505">
  <ele>-25.019</ele>
  <time>2026-09-02T22:08:39Z</time>
  <course>329.89</course>
  <speed>0.9689685237405805</speed>
  <fix>3d</fix>
</trkpt>
<trkpt lat="33.8099214" lon="-118.3947486">
  <ele>-24.42</ele>
  <time>2026-09-02T22:08:39Z</time>
  <course>239.96</course>
  <speed>0.99</speed>
  <fix>3d</fix>
</trkpt>
<trkpt lat="33.8099198" lon="-118.3947514">
  <ele>-25.018</ele>
  <time>2026-09-02T22:08:39Z</time>
  <course>330.0</course>
  <speed>0.9689685237405805</speed>
  <fix>3d</fix>
</trkpt>
<trkpt lat="33.8099205" lon="-118.3947505">
  <ele>-24.41</ele>
  <time>2026-09-02T22:08:39Z</time>
  <course>240.18</course>
  <speed>0.99</speed>
  <fix>3d</fix>
</trkpt>
<trkpt lat="33.8099194" lon="-118.3947524">
  <ele>-25.017</ele>
  <time>2026-09-02T22:08:39Z</time>
  <course>330.12</course>
  <speed>0.9689685237405805</speed>
  <fix>3d</fix>
</trkpt>
<trkpt lat="33.8099205" lon="-118.3947505">
  <ele>-24.41</ele>
  <time>2026-09-02T22:08:39Z</time>
  <course>240.18</course>
  <speed>0.99</speed>
  <fix>3d</fix>
</trkpt>
<trkpt lat="33.809919" lon="-118.3947533">
  <ele>-25.016</ele>
  <time>2026-09-02T22:08:39Z</time>
  <course>330.23</course>
  <speed>0.9689685237405805</speed>
  <fix>3d</fix>
</trkpt>
<trkpt lat="33.8099196" lon="-118.3947523">
  <ele>-24.41</ele>
  <time>2026-09-02T22:08:39Z</time>
  <course>240.39</course>
  <speed>0.99</speed>
  <fix>3d</fix>
</trkpt>
<trkpt lat="33.8099185" lon="-118.3947543">
  <ele>-25.014</ele>
  <time>2026-09-02T22:08:39Z</time>
  <course>330.35</course>
  <speed>0.9638464608017192</speed>
  <fix>3d</fix>
</trkpt>
<trkpt lat="33.8099196" lon="-118.3947523">
  <ele>-24.41</ele>
  <time>2026-09-02T22:08:39Z</time>
  <course>240.39</course>
  <speed>0.99</speed>
  <fix>3d</fix>
</trkpt>
<trkpt lat="33.8099181" lon="-118.3947552">
  <ele>-25.013</ele>
  <time>2026-09-02T22:08:39Z</time>
  <course>330.46</course>
  <speed>0.9724710792614863</speed>
  <fix>3d</fix>
</trkpt>
<trkpt lat="33.8099187" lon="-118.3947542">
  <ele>-24.4</ele>
  <time>2026-09-02T22:08:39Z</time>
  <course>240.63</course>
  <speed>1.0</speed>
  <fix>3d</fix>
</trkpt>
<trkpt lat="33.8099176" lon="-118.3947561">
  <ele>-25.012</ele>
  <time>2026-09-02T22:08:39Z</time>
  <course>330.57</course>
  <speed>0.9724710792614863</speed>
  <fix>3d</fix>
</trkpt>
<trkpt lat="33.8099187" lon="-118.3947542">
  <ele>-24.4</ele>
  <time>2026-09-02T22:08:39Z</time>
  <course>240.63</course>
  <speed>1.0</speed>
  <fix>3d</fix>
</trkpt>
<trkpt lat="33.8099172" lon="-118.3947571">
  <ele>-25.011</ele>
  <time>2026-09-02T22:08:39Z</time>
  <course>330.69</course>
  <speed>0.9724710792614863</speed>
  <fix>3d</fix>
</trkpt>
<trkpt lat="33.8099178" lon="-118.3947561">
  <ele>-24.4</ele>
  <time>2026-09-02T22:08:39Z</time>
  <course>240.89</course>
  <speed>1.0</speed>
  <fix>3d</fix>
</trkpt>
<trkpt lat="33.8099168" lon="-118.394758">
  <ele>-25.009</ele>
  <time>2026-09-02T22:08:39Z</time>
  <course>330.81</course>
  <speed>0.9724710792614863</speed>
  <fix>3d</fix>
</trkpt>
<trkpt lat="33.8099178" lon="-118.3947561">
  <ele>-24.4</ele>
  <time>2026-09-02T22:08:39Z</time>
  <course>240.89</course>
  <speed>1.0</speed>
  <fix>3d</fix>
</trkpt>
<trkpt lat="33.8099163" lon="-118.394759">
  <ele>-25.008</ele>
  <time>2026-09-02T22:08:39Z</time>
  <course>330.92</course>
  <speed>0.9674709297958259</speed>
  <fix>3d</fix>
</trkpt>
<trkpt lat="33.809917" lon="-118.394758">
  <ele>-24.4</ele>
  <time>2026-09-02T22:08:39Z</time>
  <course>241.17</course>
  <speed>1.0</speed>
  <fix>3d</fix>
</trkpt>
<trkpt lat="33.8099159" lon="-118.3947599">
  <ele>-25.007</ele>
  <time>2026-09-02T22:08:39Z</time>
  <course>331.03</course>
  <speed>0.9674709297958259</speed>
  <fix>3d</fix>
</trkpt>
<trkpt lat="33.809917" lon="-118.394758">
  <ele>-24.4</ele>
  <time>2026-09-02T22:08:39Z</time>
  <course>241.17</course>
  <speed>1.0</speed>
  <fix>3d</fix>
</trkpt>
<trkpt lat="33.8099155" lon="-118.3947609">
  <ele>-25.008</ele>
  <time>2026-09-02T22:08:39Z</time>
  <course>331.15</course>
  <speed>0.9674709297958259</speed>
  <fix>3d</fix>
</trkpt>
<trkpt lat="33.8099161" lon="-118.3947599">
  <ele>-24.4</ele>
  <time>2026-09-02T22:08:39Z</time>
  <course>241.42</course>
  <speed>1.0</speed>
  <fix>3d</fix>
</trkpt>
<trkpt lat="33.809915" lon="-118.3947618">
  <ele>-25.008</ele>
  <time>2026-09-02T22:08:39Z</time>
  <course>331.26</course>
  <speed>0.9674709297958259</speed>
  <fix>3d</fix>
</trkpt>
<trkpt lat="33.8099161" lon="-118.3947599">
  <ele>-24.4</ele>
  <time>2026-09-02T22:08:39Z</time>
  <course>241.42</course>
  <speed>1.0</speed>
  <fix>3d</fix>
</trkpt>
<trkpt lat="33.8099146" lon="-118.3947628">
  <ele>-25.009</ele>
  <time>2026-09-02T22:08:39Z</time>
  <course>331.38</course>
  <speed>0.9674709297958259</speed>
  <fix>3d</fix>
</trkpt>
<trkpt lat="33.8099152" lon="-118.3947618">
  <ele>-24.4</ele>
  <time>2026-09-02T22:08:39Z</time>
  <course>241.62</course>
  <speed>1.0</speed>
  <fix>3d</fix>
</trkpt>
<trkpt lat="33.8099142" lon="-118.3947637">
  <ele>-25.011</ele>
  <time>2026-09-02T22:08:39Z</time>
  <course>331.49</course>
  <speed>0.9674709297958259</speed>
  <fix>3d</fix>
</trkpt>
<trkpt lat="33.8099152" lon="-118.3947618">
  <ele>-24.4</ele>
  <time>2026-09-02T22:08:39Z</time>
  <course>241.62</course>
  <speed>1.0</speed>
  <fix>3d</fix>
</trkpt>
<trkpt lat="33.8099138" lon="-118.3947647">
  <ele>-25.013</ele>
  <time>2026-09-02T22:08:39Z</time>
  <course>331.61</course>
  <speed>0.9712878049270464</speed>
  <fix>3d</fix>
</trkpt>
<trkpt lat="33.8099143" lon="-118.3947637">
  <ele>-24.41</ele>
  <time>2026-09-02T22:08:39Z</time>
  <course>241.84</course>
  <speed>1.0</speed>
  <fix>3d</fix>
</trkpt>
<trkpt lat="33.8099133" lon="-118.3947656">
  <ele>-25.015</ele>
  <time>2026-09-02T22:08:39Z</time>
  <course>331.72</course>
  <speed>0.9712878049270464</speed>
  <fix>3d</fix>
</trkpt>
<trkpt lat="33.8099143" lon="-118.3947637">
  <ele>-24.41</ele>
  <time>2026-09-02T22:08:39Z</time>
  <course>241.84</course>
  <speed>1.0</speed>
  <fix>3d</fix>
</trkpt>
<trkpt lat="33.8099129" lon="-118.3947666">
  <ele>-25.015</ele>
  <time>2026-09-02T22:08:39Z</time>
  <course>331.83</course>
  <speed>0.9712878049270464</speed>
  <fix>3d</fix>
</trkpt>
<trkpt lat="33.8099136" lon="-118.3947657">
  <ele>-24.41</ele>
  <time>2026-09-02T22:08:39Z</time>
  <course>242.12</course>
  <speed>1.0</speed>
  <fix>3d</fix>
</trkpt>
<trkpt lat="33.8099125" lon="-118.3947676">
  <ele>-25.015</ele>
  <time>2026-09-02T22:08:39Z</time>
  <course>331.95</course>
  <speed>0.9712878049270464</speed>
  <fix>3d</fix>
</trkpt>
<trkpt lat="33.8099136" lon="-118.3947657">
  <ele>-24.41</ele>
  <time>2026-09-02T22:08:39Z</time>
  <course>242.12</course>
  <speed>1.0</speed>
  <fix>3d</fix>
</trkpt>
<trkpt lat="33.8099121" lon="-118.3947685">
  <ele>-25.014</ele>
  <time>2026-09-02T22:08:39Z</time>
  <course>332.06</course>
  <speed>0.9712878049270464</speed>
  <fix>3d</fix>
</trkpt>
<trkpt lat="33.8099127" lon="-118.3947676">
  <ele>-24.41</ele>
  <time>2026-09-02T22:08:39Z</time>
  <course>242.35</course>
  <speed>1.0</speed>
  <fix>3d</fix>
</trkpt>
<trkpt lat="33.8099117" lon="-118.3947695">
  <ele>-25.013</ele>
  <time>2026-09-02T22:08:39Z</time>
  <course>332.18</course>
  <speed>0.9712878049270464</speed>
  <fix>3d</fix>
</trkpt>
<trkpt lat="33.8099127" lon="-118.3947676">
  <ele>-24.41</ele>
  <time>2026-09-02T22:08:39Z</time>
  <course>242.35</course>
  <speed>1.0</speed>
  <fix>3d</fix>
</trkpt>
<trkpt lat="33.8099112" lon="-118.3947704">
  <ele>-25.014</ele>
  <time>2026-09-02T22:08:39Z</time>
  <course>332.29</course>
  <speed>0.9712878049270464</speed>
  <fix>3d</fix>
</trkpt>
<trkpt lat="33.8099119" lon="-118.3947695">
  <ele>-24.41</ele>
  <time>2026-09-02T22:08:39Z</time>
  <course>242.5</course>
  <speed>1.0</speed>
  <fix>3d</fix>
</trkpt>
<trkpt lat="33.8099108" lon="-118.3947714">
  <ele>-25.015</ele>
  <time>2026-09-02T22:08:39Z</time>
  <course>332.41</course>
  <speed>0.9664884893261793</speed>
  <fix>3d</fix>
</trkpt>
<trkpt lat="33.8099119" lon="-118.3947695">
  <ele>-24.41</ele>
  <time>2026-09-02T22:08:39Z</time>
  <course>242.5</course>
  <speed>1.0</speed>
  <fix>3d</fix>
</trkpt>
<trkpt lat="33.8099104" lon="-118.3947724">
  <ele>-25.016</ele>
  <time>2026-09-02T22:08:39Z</time>
  <course>332.53</course>
  <speed>0.9664884893261793</speed>
  <fix>3d</fix>
</trkpt>
<trkpt lat="33.809911" lon="-118.3947714">
  <ele>-24.41</ele>
  <time>2026-09-02T22:08:39Z</time>
  <course>242.65</course>
  <speed>0.99</speed>
  <fix>3d</fix>
</trkpt>
<trkpt lat="33.80991" lon="-118.3947733">
  <ele>-25.017</ele>
  <time>2026-09-02T22:08:39Z</time>
  <course>332.64</course>
  <speed>0.9664884893261793</speed>
  <fix>3d</fix>
</trkpt>
<trkpt lat="33.809911" lon="-118.3947714">
  <ele>-24.41</ele>
  <time>2026-09-02T22:08:39Z</time>
  <course>242.65</course>
  <speed>0.99</speed>
  <fix>3d</fix>
</trkpt>
<trkpt lat="33.8099096" lon="-118.3947743">
  <ele>-25.017</ele>
  <time>2026-09-02T22:08:39Z</time>
  <course>332.75</course>
  <speed>0.9664884893261793</speed>
  <fix>3d</fix>
</trkpt>
<trkpt lat="33.8099102" lon="-118.3947733">
  <ele>-24.41</ele>
  <time>2026-09-02T22:08:39Z</time>
  <course>242.85</course>
  <speed>0.99</speed>
  <fix>3d</fix>
</trkpt>
<trkpt lat="33.8099092" lon="-118.3947753">
  <ele>-25.017</ele>
  <time>2026-09-02T22:08:39Z</time>
  <course>332.87</course>
  <speed>0.9664884893261793</speed>
  <fix>3d</fix>
</trkpt>
<trkpt lat="33.8099102" lon="-118.3947733">
  <ele>-24.41</ele>
  <time>2026-09-02T22:08:39Z</time>
  <course>242.85</course>
  <speed>0.99</speed>
  <fix>3d</fix>
</trkpt>
<trkpt lat="33.8099088" lon="-118.3947762">
  <ele>-25.017</ele>
  <time>2026-09-02T22:08:39Z</time>
  <course>332.98</course>
  <speed>0.9617692030835673</speed>
  <fix>3d</fix>
</trkpt>
<trkpt lat="33.8099093" lon="-118.3947753">
  <ele>-24.41</ele>
  <time>2026-09-02T22:08:39Z</time>
  <course>243.11</course>
  <speed>0.99</speed>
  <fix>3d</fix>
</trkpt>
<trkpt lat="33.8099084" lon="-118.3947772">
  <ele>-25.017</ele>
  <time>2026-09-02T22:08:39Z</time>
  <course>333.09</course>
  <speed>0.9617692030835673</speed>
  <fix>3d</fix>
</trkpt>
<trkpt lat="33.8099093" lon="-118.3947753">
  <ele>-24.41</ele>
  <time>2026-09-02T22:08:39Z</time>
  <course>243.11</course>
  <speed>0.99</speed>
  <fix>3d</fix>
</trkpt>
<trkpt lat="33.809908" lon="-118.3947782">
  <ele>-25.015</ele>
  <time>2026-09-02T22:08:39Z</time>
  <course>333.21</course>
  <speed>0.9706183596038146</speed>
  <fix>3d</fix>
</trkpt>
<trkpt lat="33.8099086" lon="-118.3947772">
  <ele>-24.41</ele>
  <time>2026-09-02T22:08:39Z</time>
  <course>243.39</course>
  <speed>0.99</speed>
  <fix>3d</fix>
</trkpt>
<trkpt lat="33.8099076" lon="-118.3947791">
  <ele>-25.015</ele>
  <time>2026-09-02T22:08:39Z</time>
  <course>333.32</course>
  <speed>0.9706183596038146</speed>
  <fix>3d</fix>
</trkpt>
<trkpt lat="33.8099086" lon="-118.3947772">
  <ele>-24.41</ele>
  <time>2026-09-02T22:08:39Z</time>
  <course>243.39</course>
  <speed>0.99</speed>
  <fix>3d</fix>
</trkpt>
<trkpt lat="33.8099072" lon="-118.3947801">
  <ele>-25.014</ele>
  <time>2026-09-02T22:08:39Z</time>
  <course>333.44</course>
  <speed>0.9706183596038146</speed>
  <fix>3d</fix>
</trkpt>
<trkpt lat="33.8099078" lon="-118.3947791">
  <ele>-24.41</ele>
  <time>2026-09-02T22:08:39Z</time>
  <course>243.65</course>
  <speed>0.99</speed>
  <fix>3d</fix>
</trkpt>
<trkpt lat="33.8099068" lon="-118.3947811">
  <ele>-25.014</ele>
  <time>2026-09-02T22:08:39Z</time>
  <course>333.55</course>
  <speed>0.9706183596038146</speed>
  <fix>3d</fix>
</trkpt>
<trkpt lat="33.8099078" lon="-118.3947791">
  <ele>-24.41</ele>
  <time>2026-09-02T22:08:39Z</time>
  <course>243.65</course>
  <speed>0.99</speed>
  <fix>3d</fix>
</trkpt>
<trkpt lat="33.8099064" lon="-118.394782">
  <ele>-25.015</ele>
  <time>2026-09-02T22:08:39Z</time>
  <course>333.67</course>
  <speed>0.9660227740586658</speed>
  <fix>3d</fix>
</trkpt>
<trkpt lat="33.8099069" lon="-118.3947811">
  <ele>-24.4</ele>
  <time>2026-09-02T22:08:39Z</time>
  <course>243.83</course>
  <speed>0.99</speed>
  <fix>3d</fix>
</trkpt>
<trkpt lat="33.809906" lon="-118.394783">
  <ele>-25.015</ele>
  <time>2026-09-02T22:08:39Z</time>
  <course>333.78</course>
  <speed>0.9660227740586658</speed>
  <fix>3d</fix>
</trkpt>
<trkpt lat="33.8099069" lon="-118.3947811">
  <ele>-24.4</ele>
  <time>2026-09-02T22:08:39Z</time>
  <course>243.83</course>
  <speed>0.99</speed>
  <fix>3d</fix>
</trkpt>
<trkpt lat="33.8099056" lon="-118.394784">
  <ele>-25.014</ele>
  <time>2026-09-02T22:08:39Z</time>
  <course>333.9</course>
  <speed>0.9660227740586658</speed>
  <fix>3d</fix>
</trkpt>
<trkpt lat="33.8099062" lon="-118.394783">
  <ele>-24.4</ele>
  <time>2026-09-02T22:08:39Z</time>
  <course>244.04</course>
  <speed>0.99</speed>
  <fix>3d</fix>
</trkpt>
<trkpt lat="33.8099052" lon="-118.394785">
  <ele>-25.014</ele>
  <time>2026-09-02T22:08:39Z</time>
  <course>334.01</course>
  <speed>0.9660227740586658</speed>
  <fix>3d</fix>
</trkpt>
<trkpt lat="33.8099062" lon="-118.394783">
  <ele>-24.4</ele>
  <time>2026-09-02T22:08:39Z</time>
  <course>244.04</course>
  <speed>0.99</speed>
  <fix>3d</fix>
</trkpt>
<trkpt lat="33.8099048" lon="-118.3947859">
  <ele>-25.013</ele>
  <time>2026-09-02T22:08:39Z</time>
  <course>334.12</course>
  <speed>0.9660227740586658</speed>
  <fix>3d</fix>
</trkpt>
<trkpt lat="33.8099055" lon="-118.3947849">
  <ele>-24.4</ele>
  <time>2026-09-02T22:08:39Z</time>
  <course>244.29</course>
  <speed>0.99</speed>
  <fix>3d</fix>
</trkpt>
<trkpt lat="33.8099044" lon="-118.3947869">
  <ele>-25.013</ele>
  <time>2026-09-02T22:08:40Z</time>
  <course>334.24</course>
  <speed>0.9660227740586658</speed>
  <fix>3d</fix>
</trkpt>
<trkpt lat="33.8099055" lon="-118.3947849">
  <ele>-24.4</ele>
  <time>2026-09-02T22:08:40Z</time>
  <course>244.29</course>
  <speed>0.99</speed>
  <fix>3d</fix>
</trkpt>
<trkpt lat="33.809904" lon="-118.3947879">
  <ele>-25.013</ele>
  <time>2026-09-02T22:08:40Z</time>
  <course>334.35</course>
  <speed>0.9660227740586658</speed>
  <fix>3d</fix>
</trkpt>
<trkpt lat="33.8099047" lon="-118.3947868">
  <ele>-24.4</ele>
  <time>2026-09-02T22:08:40Z</time>
  <course>244.49</course>
  <speed>0.99</speed>
  <fix>3d</fix>
</trkpt>
<trkpt lat="33.8099037" lon="-118.3947889">
  <ele>-25.013</ele>
  <time>2026-09-02T22:08:40Z</time>
  <course>334.47</course>
  <speed>0.9704638066409278</speed>
  <fix>3d</fix>
</trkpt>
<trkpt lat="33.8099047" lon="-118.3947868">
  <ele>-24.4</ele>
  <time>2026-09-02T22:08:40Z</time>
  <course>244.49</course>
  <speed>0.99</speed>
  <fix>3d</fix>
</trkpt>
<trkpt lat="33.8099033" lon="-118.3947898">
  <ele>-25.012</ele>
  <time>2026-09-02T22:08:40Z</time>
  <course>334.59</course>
  <speed>0.9704638066409278</speed>
  <fix>3d</fix>
</trkpt>
<trkpt lat="33.8099038" lon="-118.3947888">
  <ele>-24.4</ele>
  <time>2026-09-02T22:08:40Z</time>
  <course>244.64</course>
  <speed>0.99</speed>
  <fix>3d</fix>
</trkpt>
<trkpt lat="33.8099029" lon="-118.3947908">
  <ele>-25.012</ele>
  <time>2026-09-02T22:08:40Z</time>
  <course>334.7</course>
  <speed>0.9704638066409278</speed>
  <fix>3d</fix>
</trkpt>
<trkpt lat="33.8099038" lon="-118.3947888">
  <ele>-24.4</ele>
  <time>2026-09-02T22:08:40Z</time>
  <course>244.64</course>
  <speed>0.99</speed>
  <fix>3d</fix>
</trkpt>
<trkpt lat="33.8099025" lon="-118.3947918">
  <ele>-25.012</ele>
  <time>2026-09-02T22:08:40Z</time>
  <course>334.82</course>
  <speed>0.9704638066409278</speed>
  <fix>3d</fix>
</trkpt>
<trkpt lat="33.8099031" lon="-118.3947908">
  <ele>-24.4</ele>
  <time>2026-09-02T22:08:40Z</time>
  <course>244.86</course>
  <speed>1.0</speed>
  <fix>3d</fix>
</trkpt>
<trkpt lat="33.8099021" lon="-118.3947928">
  <ele>-25.012</ele>
  <time>2026-09-02T22:08:40Z</time>
  <course>334.92</course>
  <speed>0.9704638066409278</speed>
  <fix>3d</fix>
</trkpt>
<trkpt lat="33.8099031" lon="-118.3947908">
  <ele>-24.4</ele>
  <time>2026-09-02T22:08:40Z</time>
  <course>244.86</course>
  <speed>1.0</speed>
  <fix>3d</fix>
</trkpt>
<trkpt lat="33.8099018" lon="-118.3947937">
  <ele>-25.012</ele>
  <time>2026-09-02T22:08:40Z</time>
  <course>335.04</course>
  <speed>0.9660745312862771</speed>
  <fix>3d</fix>
</trkpt>
<trkpt lat="33.8099024" lon="-118.3947928">
  <ele>-24.4</ele>
  <time>2026-09-02T22:08:40Z</time>
  <course>245.14</course>
  <speed>1.0</speed>
  <fix>3d</fix>
</trkpt>
<trkpt lat="33.8099014" lon="-118.3947947">
  <ele>-25.012</ele>
  <time>2026-09-02T22:08:40Z</time>
  <course>335.16</course>
  <speed>0.9660745312862771</speed>
  <fix>3d</fix>
</trkpt>
<trkpt lat="33.8099024" lon="-118.3947928">
  <ele>-24.4</ele>
  <time>2026-09-02T22:08:40Z</time>
  <course>245.14</course>
  <speed>1.0</speed>
  <fix>3d</fix>
</trkpt>
<trkpt lat="33.809901" lon="-118.3947957">
  <ele>-25.012</ele>
  <time>2026-09-02T22:08:40Z</time>
  <course>335.28</course>
  <speed>0.9660745312862771</speed>
  <fix>3d</fix>
</trkpt>
<trkpt lat="33.8099016" lon="-118.3947947">
  <ele>-24.4</ele>
  <time>2026-09-02T22:08:40Z</time>
  <course>245.35</course>
  <speed>1.0</speed>
  <fix>3d</fix>
</trkpt>
<trkpt lat="33.8099006" lon="-118.3947967">
  <ele>-25.012</ele>
  <time>2026-09-02T22:08:40Z</time>
  <course>335.39</course>
  <speed>0.9750897394599124</speed>
  <fix>3d</fix>
</trkpt>
<trkpt lat="33.8099016" lon="-118.3947947">
  <ele>-24.4</ele>
  <time>2026-09-02T22:08:40Z</time>
  <course>245.35</course>
  <speed>1.0</speed>
  <fix>3d</fix>
</trkpt>
<trkpt lat="33.8099003" lon="-118.3947977">
  <ele>-25.012</ele>
  <time>2026-09-02T22:08:40Z</time>
  <course>335.5</course>
  <speed>0.9750897394599124</speed>
  <fix>3d</fix>
</trkpt>
<trkpt lat="33.8099009" lon="-118.3947967">
  <ele>-24.4</ele>
  <time>2026-09-02T22:08:40Z</time>
  <course>245.53</course>
  <speed>1.0</speed>
  <fix>3d</fix>
</trkpt>
<trkpt lat="33.8098999" lon="-118.3947987">
  <ele>-25.012</ele>
  <time>2026-09-02T22:08:40Z</time>
  <course>335.62</course>
  <speed>0.9750897394599124</speed>
  <fix>3d</fix>
</trkpt>
<trkpt lat="33.8099009" lon="-118.3947967">
  <ele>-24.4</ele>
  <time>2026-09-02T22:08:40Z</time>
  <course>245.53</course>
  <speed>1.0</speed>
  <fix>3d</fix>
</trkpt>
<trkpt lat="33.8098995" lon="-118.3947996">
  <ele>-25.013</ele>
  <time>2026-09-02T22:08:40Z</time>
  <course>335.73</course>
  <speed>0.9750897394599124</speed>
  <fix>3d</fix>
</trkpt>
<trkpt lat="33.8099001" lon="-118.3947987">
  <ele>-24.4</ele>
  <time>2026-09-02T22:08:40Z</time>
  <course>245.73</course>
  <speed>1.0</speed>
  <fix>3d</fix>
</trkpt>
<trkpt lat="33.8098992" lon="-118.3948006">
  <ele>-25.013</ele>
  <time>2026-09-02T22:08:40Z</time>
  <course>335.84</course>
  <speed>0.9750897394599124</speed>
  <fix>3d</fix>
</trkpt>
<trkpt lat="33.8099001" lon="-118.3947987">
  <ele>-24.4</ele>
  <time>2026-09-02T22:08:40Z</time>
  <course>245.73</course>
  <speed>1.0</speed>
  <fix>3d</fix>
</trkpt>
<trkpt lat="33.8098988" lon="-118.3948016">
  <ele>-25.013</ele>
  <time>2026-09-02T22:08:40Z</time>
  <course>335.96</course>
  <speed>0.97082439194738</speed>
  <fix>3d</fix>
</trkpt>
<trkpt lat="33.8098994" lon="-118.3948007">
  <ele>-24.4</ele>
  <time>2026-09-02T22:08:40Z</time>
  <course>245.93</course>
  <speed>1.0</speed>
  <fix>3d</fix>
</trkpt>
<trkpt lat="33.8098985" lon="-118.3948026">
  <ele>-25.012</ele>
  <time>2026-09-02T22:08:40Z</time>
  <course>336.08</course>
  <speed>0.97082439194738</speed>
  <fix>3d</fix>
</trkpt>
<trkpt lat="33.8098994" lon="-118.3948007">
  <ele>-24.4</ele>
  <time>2026-09-02T22:08:40Z</time>
  <course>245.93</course>
  <speed>1.0</speed>
  <fix>3d</fix>
</trkpt>
<trkpt lat="33.8098981" lon="-118.3948036">
  <ele>-25.011</ele>
  <time>2026-09-02T22:08:40Z</time>
  <course>336.2</course>
  <speed>0.97082439194738</speed>
  <fix>3d</fix>
</trkpt>
<trkpt lat="33.8098987" lon="-118.3948026">
  <ele>-24.4</ele>
  <time>2026-09-02T22:08:40Z</time>
  <course>246.13</course>
  <speed>1.0</speed>
  <fix>3d</fix>
</trkpt>
<trkpt lat="33.8098977" lon="-118.3948046">
  <ele>-25.01</ele>
  <time>2026-09-02T22:08:40Z</time>
  <course>336.31</course>
  <speed>0.97082439194738</speed>
  <fix>3d</fix>
</trkpt>
<trkpt lat="33.8098987" lon="-118.3948026">
  <ele>-24.4</ele>
  <time>2026-09-02T22:08:40Z</time>
  <course>246.13</course>
  <speed>1.0</speed>
  <fix>3d</fix>
</trkpt>
<trkpt lat="33.8098974" lon="-118.3948056">
  <ele>-25.01</ele>
  <time>2026-09-02T22:08:40Z</time>
  <course>336.42</course>
  <speed>0.97082439194738</speed>
  <fix>3d</fix>
</trkpt>
<trkpt lat="33.8098979" lon="-118.3948047">
  <ele>-24.4</ele>
  <time>2026-09-02T22:08:40Z</time>
  <course>246.33</course>
  <speed>1.0</speed>
  <fix>3d</fix>
</trkpt>
<trkpt lat="33.809897" lon="-118.3948066">
  <ele>-25.01</ele>
  <time>2026-09-02T22:08:40Z</time>
  <course>336.54</course>
  <speed>0.9666436778875658</speed>
  <fix>3d</fix>
</trkpt>
<trkpt lat="33.8098979" lon="-118.3948047">
  <ele>-24.4</ele>
  <time>2026-09-02T22:08:40Z</time>
  <course>246.33</course>
  <speed>1.0</speed>
  <fix>3d</fix>
</trkpt>
<trkpt lat="33.8098967" lon="-118.3948076">
  <ele>-25.011</ele>
  <time>2026-09-02T22:08:40Z</time>
  <course>336.66</course>
  <speed>0.9666436778875658</speed>
  <fix>3d</fix>
</trkpt>
<trkpt lat="33.8098972" lon="-118.3948066">
  <ele>-24.4</ele>
  <time>2026-09-02T22:08:40Z</time>
  <course>246.55</course>
  <speed>1.0</speed>
  <fix>3d</fix>
</trkpt>
<trkpt lat="33.8098963" lon="-118.3948086">
  <ele>-25.013</ele>
  <time>2026-09-02T22:08:40Z</time>
  <course>336.77</course>
  <speed>0.9666436778875658</speed>
  <fix>3d</fix>
</trkpt>
<trkpt lat="33.8098972" lon="-118.3948066">
  <ele>-24.4</ele>
  <time>2026-09-02T22:08:40Z</time>
  <course>246.55</course>
  <speed>1.0</speed>
  <fix>3d</fix>
</trkpt>
<trkpt lat="33.809896" lon="-118.3948096">
  <ele>-25.014</ele>
  <time>2026-09-02T22:08:40Z</time>
  <course>336.88</course>
  <speed>0.9757561170702442</speed>
  <fix>3d</fix>
</trkpt>
<trkpt lat="33.8098965" lon="-118.3948086">
  <ele>-24.4</ele>
  <time>2026-09-02T22:08:40Z</time>
  <course>246.81</course>
  <speed>1.0</speed>
  <fix>3d</fix>
</trkpt>
<trkpt lat="33.8098956" lon="-118.3948106">
  <ele>-25.014</ele>
  <time>2026-09-02T22:08:40Z</time>
  <course>337.0</course>
  <speed>0.9757561170702442</speed>
  <fix>3d</fix>
</trkpt>
<trkpt lat="33.8098965" lon="-118.3948086">
  <ele>-24.4</ele>
  <time>2026-09-02T22:08:40Z</time>
  <course>246.81</course>
  <speed>1.0</speed>
  <fix>3d</fix>
</trkpt>
<trkpt lat="33.8098953" lon="-118.3948116">
  <ele>-25.013</ele>
  <time>2026-09-02T22:08:40Z</time>
  <course>337.11</course>
  <speed>0.9716995420396163</speed>
  <fix>3d</fix>
</trkpt>
<trkpt lat="33.8098958" lon="-118.3948106">
  <ele>-24.4</ele>
  <time>2026-09-02T22:08:40Z</time>
  <course>247.07</course>
  <speed>1.0</speed>
  <fix>3d</fix>
</trkpt>
<trkpt lat="33.8098949" lon="-118.3948126">
  <ele>-25.013</ele>
  <time>2026-09-02T22:08:40Z</time>
  <course>337.23</course>
  <speed>0.9716995420396163</speed>
  <fix>3d</fix>
</trkpt>
<trkpt lat="33.8098958" lon="-118.3948106">
  <ele>-24.4</ele>
  <time>2026-09-02T22:08:40Z</time>
  <course>247.07</course>
  <speed>1.0</speed>
  <fix>3d</fix>
</trkpt>
<trkpt lat="33.8098946" lon="-118.3948136">
  <ele>-25.012</ele>
  <time>2026-09-02T22:08:40Z</time>
  <course>337.34</course>
  <speed>0.9716995420396163</speed>
  <fix>3d</fix>
</trkpt>
<trkpt lat="33.8098951" lon="-118.3948126">
  <ele>-24.4</ele>
  <time>2026-09-02T22:08:40Z</time>
  <course>247.33</course>
  <speed>1.0</speed>
  <fix>3d</fix>
</trkpt>
<trkpt lat="33.8098942" lon="-118.3948146">
  <ele>-25.01</ele>
  <time>2026-09-02T22:08:40Z</time>
  <course>337.46</course>
  <speed>0.9716995420396163</speed>
  <fix>3d</fix>
</trkpt>
<trkpt lat="33.8098951" lon="-118.3948126">
  <ele>-24.4</ele>
  <time>2026-09-02T22:08:40Z</time>
  <course>247.33</course>
  <speed>1.0</speed>
  <fix>3d</fix>
</trkpt>
<trkpt lat="33.8098939" lon="-118.3948156">
  <ele>-25.008</ele>
  <time>2026-09-02T22:08:40Z</time>
  <course>337.57</course>
  <speed>0.9716995420396163</speed>
  <fix>3d</fix>
</trkpt>
<trkpt lat="33.8098944" lon="-118.3948146">
  <ele>-24.4</ele>
  <time>2026-09-02T22:08:40Z</time>
  <course>247.58</course>
  <speed>1.0</speed>
  <fix>3d</fix>
</trkpt>
<trkpt lat="33.8098935" lon="-118.3948166">
  <ele>-25.008</ele>
  <time>2026-09-02T22:08:40Z</time>
  <course>337.68</course>
  <speed>0.9677293009927931</speed>
  <fix>3d</fix>
</trkpt>
<trkpt lat="33.8098944" lon="-118.3948146">
  <ele>-24.4</ele>
  <time>2026-09-02T22:08:40Z</time>
  <course>247.58</course>
  <speed>1.0</speed>
  <fix>3d</fix>
</trkpt>
<trkpt lat="33.8098932" lon="-118.3948176">
  <ele>-25.01</ele>
  <time>2026-09-02T22:08:40Z</time>
  <course>337.79</course>
  <speed>0.9677293009927931</speed>
  <fix>3d</fix>
</trkpt>
<trkpt lat="33.8098937" lon="-118.3948166">
  <ele>-24.41</ele>
  <time>2026-09-02T22:08:40Z</time>
  <course>247.82</course>
  <speed>1.0</speed>
  <fix>3d</fix>
</trkpt>
<trkpt lat="33.8098929" lon="-118.3948186">
  <ele>-25.012</ele>
  <time>2026-09-02T22:08:40Z</time>
  <course>337.91</course>
  <speed>0.9677293009927931</speed>
  <fix>3d</fix>
</trkpt>
<trkpt lat="33.8098937" lon="-118.3948166">
  <ele>-24.41</ele>
  <time>2026-09-02T22:08:40Z</time>
  <course>247.82</course>
  <speed>1.0</speed>
  <fix>3d</fix>
</trkpt>
<trkpt lat="33.8098925" lon="-118.3948196">
  <ele>-25.015</ele>
  <time>2026-09-02T22:08:40Z</time>
  <course>338.03</course>
  <speed>0.9677293009927931</speed>
  <fix>3d</fix>
</trkpt>
<trkpt lat="33.809893" lon="-118.3948187">
  <ele>-24.41</ele>
  <time>2026-09-02T22:08:40Z</time>
  <course>248.08</course>
  <speed>1.0</speed>
  <fix>3d</fix>
</trkpt>
<trkpt lat="33.8098922" lon="-118.3948206">
  <ele>-25.016</ele>
  <time>2026-09-02T22:08:40Z</time>
  <course>338.14</course>
  <speed>0.9677293009927931</speed>
  <fix>3d</fix>
</trkpt>
<trkpt lat="33.809893" lon="-118.3948187">
  <ele>-24.41</ele>
  <time>2026-09-02T22:08:40Z</time>
  <course>248.08</course>
  <speed>1.0</speed>
  <fix>3d</fix>
</trkpt>
<trkpt lat="33.8098919" lon="-118.3948216">
  <ele>-25.016</ele>
  <time>2026-09-02T22:08:40Z</time>
  <course>338.25</course>
  <speed>0.9638464608017192</speed>
  <fix>3d</fix>
</trkpt>
<trkpt lat="33.8098923" lon="-118.3948207">
  <ele>-24.41</ele>
  <time>2026-09-02T22:08:40Z</time>
  <course>248.34</course>
  <speed>1.0</speed>
  <fix>3d</fix>
</trkpt>
<trkpt lat="33.8098915" lon="-118.3948226">
  <ele>-25.016</ele>
  <time>2026-09-02T22:08:40Z</time>
  <course>338.37</course>
  <speed>0.9638464608017192</speed>
  <fix>3d</fix>
</trkpt>
<trkpt lat="33.8098923" lon="-118.3948207">
  <ele>-24.41</ele>
  <time>2026-09-02T22:08:40Z</time>
  <course>248.34</course>
  <speed>1.0</speed>
  <fix>3d</fix>
</trkpt>
<trkpt lat="33.8098912" lon="-118.3948236">
  <ele>-25.016</ele>
  <time>2026-09-02T22:08:40Z</time>
  <course>338.48</course>
  <speed>0.9638464608017192</speed>
  <fix>3d</fix>
</trkpt>
<trkpt lat="33.8098917" lon="-118.3948227">
  <ele>-24.41</ele>
  <time>2026-09-02T22:08:40Z</time>
  <course>248.61</course>
  <speed>1.0</speed>
  <fix>3d</fix>
</trkpt>
<trkpt lat="33.8098909" lon="-118.3948246">
  <ele>-25.016</ele>
  <time>2026-09-02T22:08:40Z</time>
  <course>338.6</course>
  <speed>0.9638464608017192</speed>
  <fix>3d</fix>
</trkpt>
<trkpt lat="33.8098917" lon="-118.3948227">
  <ele>-24.41</ele>
  <time>2026-09-02T22:08:40Z</time>
  <course>248.61</course>
  <speed>1.0</speed>
  <fix>3d</fix>
</trkpt>
<trkpt lat="33.8098906" lon="-118.3948257">
  <ele>-25.017</ele>
  <time>2026-09-02T22:08:40Z</time>
  <course>338.71</course>
  <speed>0.9600520819205591</speed>
  <fix>3d</fix>
</trkpt>
<trkpt lat="33.8098911" lon="-118.3948246">
  <ele>-24.41</ele>
  <time>2026-09-02T22:08:40Z</time>
  <course>248.88</course>
  <speed>0.99</speed>
  <fix>3d</fix>
</trkpt>
<trkpt lat="33.8098902" lon="-118.3948267">
  <ele>-25.016</ele>
  <time>2026-09-02T22:08:40Z</time>
  <course>338.83</course>
  <speed>0.9693296652842107</speed>
  <fix>3d</fix>
</trkpt>
<trkpt lat="33.8098911" lon="-118.3948246">
  <ele>-24.41</ele>
  <time>2026-09-02T22:08:40Z</time>
  <course>248.88</course>
  <speed>0.99</speed>
  <fix>3d</fix>
</trkpt>
<trkpt lat="33.8098899" lon="-118.3948277">
  <ele>-25.015</ele>
  <time>2026-09-02T22:08:40Z</time>
  <course>338.94</course>
  <speed>0.9693296652842107</speed>
  <fix>3d</fix>
</trkpt>
<trkpt lat="33.8098904" lon="-118.3948267">
  <ele>-24.41</ele>
  <time>2026-09-02T22:08:40Z</time>
  <course>249.1</course>
  <speed>0.99</speed>
  <fix>3d</fix>
</trkpt>
<trkpt lat="33.8098896" lon="-118.3948287">
  <ele>-25.015</ele>
  <time>2026-09-02T22:08:40Z</time>
  <course>339.06</course>
  <speed>0.9693296652842107</speed>
  <fix>3d</fix>
</trkpt>
<trkpt lat="33.8098904" lon="-118.3948267">
  <ele>-24.41</ele>
  <time>2026-09-02T22:08:40Z</time>
  <course>249.1</course>
  <speed>0.99</speed>
  <fix>3d</fix>
</trkpt>
<trkpt lat="33.8098893" lon="-118.3948297">
  <ele>-25.015</ele>
  <time>2026-09-02T22:08:40Z</time>
  <course>339.17</course>
  <speed>0.9693296652842107</speed>
  <fix>3d</fix>
</trkpt>
<trkpt lat="33.8098897" lon="-118.3948287">
  <ele>-24.41</ele>
  <time>2026-09-02T22:08:40Z</time>
  <course>249.31</course>
  <speed>0.99</speed>
  <fix>3d</fix>
</trkpt>
<trkpt lat="33.809889" lon="-118.3948307">
  <ele>-25.014</ele>
  <time>2026-09-02T22:08:40Z</time>
  <course>339.29</course>
  <speed>0.9693296652842107</speed>
  <fix>3d</fix>
</trkpt>
<trkpt lat="33.8098897" lon="-118.3948287">
  <ele>-24.41</ele>
  <time>2026-09-02T22:08:40Z</time>
  <course>249.31</course>
  <speed>0.99</speed>
  <fix>3d</fix>
</trkpt>
<trkpt lat="33.8098887" lon="-118.3948317">
  <ele>-25.015</ele>
  <time>2026-09-02T22:08:40Z</time>
  <course>339.4</course>
  <speed>0.9656603957913983</speed>
  <fix>3d</fix>
</trkpt>
<trkpt lat="33.8098892" lon="-118.3948308">
  <ele>-24.41</ele>
  <time>2026-09-02T22:08:40Z</time>
  <course>249.56</course>
  <speed>0.99</speed>
  <fix>3d</fix>
</trkpt>
<trkpt lat="33.8098883" lon="-118.3948327">
  <ele>-25.016</ele>
  <time>2026-09-02T22:08:40Z</time>
  <course>339.52</course>
  <speed>0.9656603957913983</speed>
  <fix>3d</fix>
</trkpt>
<trkpt lat="33.8098892" lon="-118.3948308">
  <ele>-24.41</ele>
  <time>2026-09-02T22:08:40Z</time>
  <course>249.56</course>
  <speed>0.99</speed>
  <fix>3d</fix>
</trkpt>
<trkpt lat="33.809888" lon="-118.3948338">
  <ele>-25.016</ele>
  <time>2026-09-02T22:08:40Z</time>
  <course>339.63</course>
  <speed>0.9656603957913983</speed>
  <fix>3d</fix>
</trkpt>
<trkpt lat="33.8098885" lon="-118.3948328">
  <ele>-24.41</ele>
  <time>2026-09-02T22:08:40Z</time>
  <course>249.78</course>
  <speed>0.99</speed>
  <fix>3d</fix>
</trkpt>
<trkpt lat="33.8098877" lon="-118.3948348">
  <ele>-25.016</ele>
  <time>2026-09-02T22:08:40Z</time>
  <course>339.74</course>
  <speed>0.9656603957913983</speed>
  <fix>3d</fix>
</trkpt>
<trkpt lat="33.8098885" lon="-118.3948328">
  <ele>-24.41</ele>
  <time>2026-09-02T22:08:40Z</time>
  <course>249.78</course>
  <speed>0.99</speed>
  <fix>3d</fix>
</trkpt>
<trkpt lat="33.8098874" lon="-118.3948358">
  <ele>-25.016</ele>
  <time>2026-09-02T22:08:40Z</time>
  <course>339.86</course>
  <speed>0.9656603957913983</speed>
  <fix>3d</fix>
</trkpt>
<trkpt lat="33.8098878" lon="-118.3948348">
  <ele>-24.4</ele>
  <time>2026-09-02T22:08:40Z</time>
  <course>249.96</course>
  <speed>0.99</speed>
  <fix>3d</fix>
</trkpt>
<trkpt lat="33.8098871" lon="-118.3948368">
  <ele>-25.014</ele>
  <time>2026-09-02T22:08:40Z</time>
  <course>339.97</course>
  <speed>0.9656603957913983</speed>
  <fix>3d</fix>
</trkpt>
<trkpt lat="33.8098878" lon="-118.3948348">
  <ele>-24.4</ele>
  <time>2026-09-02T22:08:40Z</time>
  <course>249.96</course>
  <speed>0.99</speed>
  <fix>3d</fix>
</trkpt>
<trkpt lat="33.8098868" lon="-118.3948378">
  <ele>-25.011</ele>
  <time>2026-09-02T22:08:40Z</time>
  <course>340.09</course>
  <speed>0.9620810776644555</speed>
  <fix>3d</fix>
</trkpt>
<trkpt lat="33.8098873" lon="-118.3948368">
  <ele>-24.4</ele>
  <time>2026-09-02T22:08:40Z</time>
  <course>250.21</course>
  <speed>0.99</speed>
  <fix>3d</fix>
</trkpt>
<trkpt lat="33.8098865" lon="-118.3948388">
  <ele>-25.009</ele>
  <time>2026-09-02T22:08:40Z</time>
  <course>340.21</course>
  <speed>0.9620810776644555</speed>
  <fix>3d</fix>
</trkpt>
<trkpt lat="33.8098873" lon="-118.3948368">
  <ele>-24.4</ele>
  <time>2026-09-02T22:08:40Z</time>
  <course>250.21</course>
  <speed>0.99</speed>
  <fix>3d</fix>
</trkpt>
<trkpt lat="33.8098862" lon="-118.3948399">
  <ele>-25.008</ele>
  <time>2026-09-02T22:08:40Z</time>
  <course>340.32</course>
  <speed>0.9714422267947797</speed>
  <fix>3d</fix>
</trkpt>
<trkpt lat="33.8098866" lon="-118.3948389">
  <ele>-24.4</ele>
  <time>2026-09-02T22:08:40Z</time>
  <course>250.49</course>
  <speed>0.99</speed>
  <fix>3d</fix>
</trkpt>
<trkpt lat="33.8098859" lon="-118.3948409">
  <ele>-25.008</ele>
  <time>2026-09-02T22:08:40Z</time>
  <course>340.43</course>
  <speed>0.9714422267947797</speed>
  <fix>3d</fix>
</trkpt>
<trkpt lat="33.8098866" lon="-118.3948389">
  <ele>-24.4</ele>
  <time>2026-09-02T22:08:40Z</time>
  <course>250.49</course>
  <speed>0.99</speed>
  <fix>3d</fix>
</trkpt>
<trkpt lat="33.8098856" lon="-118.3948419">
  <ele>-25.009</ele>
  <time>2026-09-02T22:08:40Z</time>
  <course>340.55</course>
  <speed>0.9679876032264049</speed>
  <fix>3d</fix>
</trkpt>
<trkpt lat="33.8098861" lon="-118.3948409">
  <ele>-24.4</ele>
  <time>2026-09-02T22:08:40Z</time>
  <course>250.75</course>
  <speed>0.99</speed>
  <fix>3d</fix>
</trkpt>
<trkpt lat="33.8098853" lon="-118.3948429">
  <ele>-25.01</ele>
  <time>2026-09-02T22:08:40Z</time>
  <course>340.66</course>
  <speed>0.9679876032264049</speed>
  <fix>3d</fix>
</trkpt>
<trkpt lat="33.8098861" lon="-118.3948409">
  <ele>-24.4</ele>
  <time>2026-09-02T22:08:40Z</time>
  <course>250.75</course>
  <speed>0.99</speed>
  <fix>3d</fix>
</trkpt>
<trkpt lat="33.809885" lon="-118.394844">
  <ele>-25.01</ele>
  <time>2026-09-02T22:08:40Z</time>
  <course>340.78</course>
  <speed>0.9679876032264049</speed>
  <fix>3d</fix>
</trkpt>
<trkpt lat="33.8098854" lon="-118.3948429">
  <ele>-24.4</ele>
  <time>2026-09-02T22:08:40Z</time>
  <course>250.98</course>
  <speed>0.99</speed>
  <fix>3d</fix>
</trkpt>
<trkpt lat="33.8098847" lon="-118.394845">
  <ele>-25.011</ele>
  <time>2026-09-02T22:08:40Z</time>
  <course>340.89</course>
  <speed>0.9679876032264049</speed>
  <fix>3d</fix>
</trkpt>
<trkpt lat="33.8098854" lon="-118.3948429">
  <ele>-24.4</ele>
  <time>2026-09-02T22:08:40Z</time>
  <course>250.98</course>
  <speed>0.99</speed>
  <fix>3d</fix>
</trkpt>
<trkpt lat="33.8098844" lon="-118.394846">
  <ele>-25.013</ele>
  <time>2026-09-02T22:08:40Z</time>
  <course>341.01</course>
  <speed>0.9679876032264049</speed>
  <fix>3d</fix>
</trkpt>
<trkpt lat="33.8098849" lon="-118.394845">
  <ele>-24.4</ele>
  <time>2026-09-02T22:08:40Z</time>
  <course>251.21</course>
  <speed>0.99</speed>
  <fix>3d</fix>
</trkpt>
<trkpt lat="33.8098842" lon="-118.394847">
  <ele>-25.015</ele>
  <time>2026-09-02T22:08:40Z</time>
  <course>341.12</course>
  <speed>0.9679876032264049</speed>
  <fix>3d</fix>
</trkpt>
<trkpt lat="33.8098849" lon="-118.394845">
  <ele>-24.4</ele>
  <time>2026-09-02T22:08:40Z</time>
  <course>251.21</course>
  <speed>0.99</speed>
  <fix>3d</fix>
</trkpt>
<trkpt lat="33.8098839" lon="-118.394848">
  <ele>-25.017</ele>
  <time>2026-09-02T22:08:40Z</time>
  <course>341.23</course>
  <speed>0.9646242791885347</speed>
  <fix>3d</fix>
</trkpt>
<trkpt lat="33.8098844" lon="-118.394847">
  <ele>-24.41</ele>
  <time>2026-09-02T22:08:40Z</time>
  <course>251.46</course>
  <speed>0.99</speed>
  <fix>3d</fix>
</trkpt>
<trkpt lat="33.8098836" lon="-118.3948491">
  <ele>-25.017</ele>
  <time>2026-09-02T22:08:40Z</time>
  <course>341.35</course>
  <speed>0.9646242791885347</speed>
  <fix>3d</fix>
</trkpt>
<trkpt lat="33.8098844" lon="-118.394847">
  <ele>-24.41</ele>
  <time>2026-09-02T22:08:40Z</time>
  <course>251.46</course>
  <speed>0.99</speed>
  <fix>3d</fix>
</trkpt>
<trkpt lat="33.8098833" lon="-118.3948501">
  <ele>-25.017</ele>
  <time>2026-09-02T22:08:40Z</time>
  <course>341.46</course>
  <speed>0.9646242791885347</speed>
  <fix>3d</fix>
</trkpt>
<trkpt lat="33.8098837" lon="-118.394849">
  <ele>-24.41</ele>
  <time>2026-09-02T22:08:40Z</time>
  <course>251.62</course>
  <speed>0.99</speed>
  <fix>3d</fix>
</trkpt>
<trkpt lat="33.809883" lon="-118.3948511">
  <ele>-25.017</ele>
  <time>2026-09-02T22:08:40Z</time>
  <course>341.58</course>
  <speed>0.9646242791885347</speed>
  <fix>3d</fix>
</trkpt>
<trkpt lat="33.8098837" lon="-118.394849">
  <ele>-24.41</ele>
  <time>2026-09-02T22:08:40Z</time>
  <course>251.62</course>
  <speed>0.99</speed>
  <fix>3d</fix>
</trkpt>
<trkpt lat="33.8098827" lon="-118.3948521">
  <ele>-25.015</ele>
  <time>2026-09-02T22:08:40Z</time>
  <course>341.69</course>
  <speed>0.9740636529508737</speed>
  <fix>3d</fix>
</trkpt>
<trkpt lat="33.8098832" lon="-118.3948511">
  <ele>-24.41</ele>
  <time>2026-09-02T22:08:40Z</time>
  <course>251.8</course>
  <speed>0.99</speed>
  <fix>3d</fix>
</trkpt>
<trkpt lat="33.8098825" lon="-118.3948532">
  <ele>-25.013</ele>
  <time>2026-09-02T22:08:40Z</time>
  <course>341.81</course>
  <speed>0.9740636529508737</speed>
  <fix>3d</fix>
</trkpt>
<trkpt lat="33.8098832" lon="-118.3948511">
  <ele>-24.41</ele>
  <time>2026-09-02T22:08:40Z</time>
  <course>251.8</course>
  <speed>0.99</speed>
  <fix>3d</fix>
</trkpt>
<trkpt lat="33.8098822" lon="-118.3948542">
  <ele>-25.012</ele>
  <time>2026-09-02T22:08:40Z</time>
  <course>341.93</course>
  <speed>0.97082439194738</speed>
  <fix>3d</fix>
</trkpt>
<trkpt lat="33.8098827" lon="-118.3948532">
  <ele>-24.41</ele>
  <time>2026-09-02T22:08:40Z</time>
  <course>252.03</course>
  <speed>0.99</speed>
  <fix>3d</fix>
</trkpt>
<trkpt lat="33.8098819" lon="-118.3948552">
  <ele>-25.011</ele>
  <time>2026-09-02T22:08:40Z</time>
  <course>342.04</course>
  <speed>0.97082439194738</speed>
  <fix>3d</fix>
</trkpt>
<trkpt lat="33.8098827" lon="-118.3948532">
  <ele>-24.41</ele>
  <time>2026-09-02T22:08:40Z</time>
  <course>252.03</course>
  <speed>0.99</speed>
  <fix>3d</fix>
</trkpt>
<trkpt lat="33.8098816" lon="-118.3948563">
  <ele>-25.01</ele>
  <time>2026-09-02T22:08:40Z</time>
  <course>342.15</course>
  <speed>0.97082439194738</speed>
  <fix>3d</fix>
</trkpt>
<trkpt lat="33.8098821" lon="-118.3948552">
  <ele>-24.4</ele>
  <time>2026-09-02T22:08:40Z</time>
  <course>252.21</course>
  <speed>0.99</speed>
  <fix>3d</fix>
</trkpt>
<trkpt lat="33.8098814" lon="-118.3948573">
  <ele>-25.01</ele>
  <time>2026-09-02T22:08:40Z</time>
  <course>342.26</course>
  <speed>0.97082439194738</speed>
  <fix>3d</fix>
</trkpt>
<trkpt lat="33.8098821" lon="-118.3948552">
  <ele>-24.4</ele>
  <time>2026-09-02T22:08:40Z</time>
  <course>252.21</course>
  <speed>0.99</speed>
  <fix>3d</fix>
</trkpt>
<trkpt lat="33.8098811" lon="-118.3948583">
  <ele>-25.011</ele>
  <time>2026-09-02T22:08:40Z</time>
  <course>342.38</course>
  <speed>0.97082439194738</speed>
  <fix>3d</fix>
</trkpt>
<trkpt lat="33.8098816" lon="-118.3948573">
  <ele>-24.4</ele>
  <time>2026-09-02T22:08:40Z</time>
  <course>252.37</course>
  <speed>0.99</speed>
  <fix>3d</fix>
</trkpt>
<trkpt lat="33.8098808" lon="-118.3948594">
  <ele>-25.012</ele>
  <time>2026-09-02T22:08:40Z</time>
  <course>342.49</course>
  <speed>0.97082439194738</speed>
  <fix>3d</fix>
</trkpt>
<trkpt lat="33.8098816" lon="-118.3948573">
  <ele>-24.4</ele>
  <time>2026-09-02T22:08:40Z</time>
  <course>252.37</course>
  <speed>0.99</speed>
  <fix>3d</fix>
</trkpt>
<trkpt lat="33.8098806" lon="-118.3948604">
  <ele>-25.014</ele>
  <time>2026-09-02T22:08:40Z</time>
  <course>342.61</course>
  <speed>0.97082439194738</speed>
  <fix>3d</fix>
</trkpt>
<trkpt lat="33.809881" lon="-118.3948593">
  <ele>-24.41</ele>
  <time>2026-09-02T22:08:40Z</time>
  <course>252.54</course>
  <speed>0.99</speed>
  <fix>3d</fix>
</trkpt>
<trkpt lat="33.8098803" lon="-118.3948614">
  <ele>-25.016</ele>
  <time>2026-09-02T22:08:40Z</time>
  <course>342.72</course>
  <speed>0.9676776322722356</speed>
  <fix>3d</fix>
</trkpt>
<trkpt lat="33.809881" lon="-118.3948593">
  <ele>-24.41</ele>
  <time>2026-09-02T22:08:40Z</time>
  <course>252.54</course>
  <speed>0.99</speed>
  <fix>3d</fix>
</trkpt>
<trkpt lat="33.80988" lon="-118.3948625">
  <ele>-25.017</ele>
  <time>2026-09-02T22:08:40Z</time>
  <course>342.84</course>
  <speed>0.9676776322722356</speed>
  <fix>3d</fix>
</trkpt>
<trkpt lat="33.8098805" lon="-118.3948614">
  <ele>-24.41</ele>
  <time>2026-09-02T22:08:40Z</time>
  <course>252.73</course>
  <speed>0.99</speed>
  <fix>3d</fix>
</trkpt>
<trkpt lat="33.8098798" lon="-118.3948635">
  <ele>-25.018</ele>
  <time>2026-09-02T22:08:40Z</time>
  <course>342.95</course>
  <speed>0.9676776322722356</speed>
  <fix>3d</fix>
</trkpt>
<trkpt lat="33.8098805" lon="-118.3948614">
  <ele>-24.41</ele>
  <time>2026-09-02T22:08:40Z</time>
  <course>252.73</course>
  <speed>0.99</speed>
  <fix>3d</fix>
</trkpt>
<trkpt lat="33.8098795" lon="-118.3948645">
  <ele>-25.017</ele>
  <time>2026-09-02T22:08:40Z</time>
  <course>343.07</course>
  <speed>0.9676776322722356</speed>
  <fix>3d</fix>
</trkpt>
<trkpt lat="33.8098799" lon="-118.3948634">
  <ele>-24.41</ele>
  <time>2026-09-02T22:08:40Z</time>
  <course>252.95</course>
  <speed>0.99</speed>
  <fix>3d</fix>
</trkpt>
<trkpt lat="33.8098793" lon="-118.3948656">
  <ele>-25.016</ele>
  <time>2026-09-02T22:08:40Z</time>
  <course>343.18</course>
  <speed>0.9646242791885347</speed>
  <fix>3d</fix>
</trkpt>
<trkpt lat="33.8098799" lon="-118.3948634">
  <ele>-24.41</ele>
  <time>2026-09-02T22:08:40Z</time>
  <course>252.95</course>
  <speed>0.99</speed>
  <fix>3d</fix>
</trkpt>
<trkpt lat="33.809879" lon="-118.3948666">
  <ele>-25.015</ele>
  <time>2026-09-02T22:08:40Z</time>
  <course>343.3</course>
  <speed>0.9741663102366043</speed>
  <fix>3d</fix>
</trkpt>
<trkpt lat="33.8098794" lon="-118.3948655">
  <ele>-24.4</ele>
  <time>2026-09-02T22:08:40Z</time>
  <course>253.21</course>
  <speed>0.99</speed>
  <fix>3d</fix>
</trkpt>
<trkpt lat="33.8098787" lon="-118.3948676">
  <ele>-25.014</ele>
  <time>2026-09-02T22:08:40Z</time>
  <course>343.41</course>
  <speed>0.9741663102366043</speed>
  <fix>3d</fix>
</trkpt>
<trkpt lat="33.8098794" lon="-118.3948655">
  <ele>-24.4</ele>
  <time>2026-09-02T22:08:40Z</time>
  <course>253.21</course>
  <speed>0.99</speed>
  <fix>3d</fix>
</trkpt>
<trkpt lat="33.8098785" lon="-118.3948687">
  <ele>-25.013</ele>
  <time>2026-09-02T22:08:40Z</time>
  <course>343.53</course>
  <speed>0.9741663102366043</speed>
  <fix>3d</fix>
</trkpt>
<trkpt lat="33.8098789" lon="-118.3948676">
  <ele>-24.4</ele>
  <time>2026-09-02T22:08:40Z</time>
  <course>253.5</course>
  <speed>0.99</speed>
  <fix>3d</fix>
</trkpt>
<trkpt lat="33.8098782" lon="-118.3948697">
  <ele>-25.012</ele>
  <time>2026-09-02T22:08:40Z</time>
  <course>343.64</course>
  <speed>0.9741663102366043</speed>
  <fix>3d</fix>
</trkpt>
<trkpt lat="33.8098789" lon="-118.3948676">
  <ele>-24.4</ele>
  <time>2026-09-02T22:08:40Z</time>
  <course>253.5</course>
  <speed>0.99</speed>
  <fix>3d</fix>
</trkpt>
<trkpt lat="33.809878" lon="-118.3948708">
  <ele>-25.011</ele>
  <time>2026-09-02T22:08:40Z</time>
  <course>343.76</course>
  <speed>0.9712363255150623</speed>
  <fix>3d</fix>
</trkpt>
<trkpt lat="33.8098784" lon="-118.3948696">
  <ele>-24.4</ele>
  <time>2026-09-02T22:08:40Z</time>
  <course>253.77</course>
  <speed>0.99</speed>
  <fix>3d</fix>
</trkpt>
<trkpt lat="33.8098777" lon="-118.3948718">
  <ele>-25.011</ele>
  <time>2026-09-02T22:08:40Z</time>
  <course>343.87</course>
  <speed>0.9712363255150623</speed>
  <fix>3d</fix>
</trkpt>
<trkpt lat="33.8098784" lon="-118.3948696">
  <ele>-24.4</ele>
  <time>2026-09-02T22:08:40Z</time>
  <course>253.77</course>
  <speed>0.99</speed>
  <fix>3d</fix>
</trkpt>
<trkpt lat="33.8098775" lon="-118.3948728">
  <ele>-25.011</ele>
  <time>2026-09-02T22:08:40Z</time>
  <course>343.99</course>
  <speed>0.9712363255150623</speed>
  <fix>3d</fix>
</trkpt>
<trkpt lat="33.8098779" lon="-118.3948717">
  <ele>-24.4</ele>
  <time>2026-09-02T22:08:40Z</time>
  <course>254.02</course>
  <speed>0.99</speed>
  <fix>3d</fix>
</trkpt>
<trkpt lat="33.8098773" lon="-118.3948739">
  <ele>-25.011</ele>
  <time>2026-09-02T22:08:40Z</time>
  <course>344.1</course>
  <speed>0.9712363255150623</speed>
  <fix>3d</fix>
</trkpt>
<trkpt lat="33.8098779" lon="-118.3948717">
  <ele>-24.4</ele>
  <time>2026-09-02T22:08:40Z</time>
  <course>254.02</course>
  <speed>0.99</speed>
  <fix>3d</fix>
</trkpt>
<trkpt lat="33.809877" lon="-118.3948749">
  <ele>-25.011</ele>
  <time>2026-09-02T22:08:40Z</time>
  <course>344.22</course>
  <speed>0.9712363255150623</speed>
  <fix>3d</fix>
</trkpt>
<trkpt lat="33.8098774" lon="-118.3948738">
  <ele>-24.4</ele>
  <time>2026-09-02T22:08:40Z</time>
  <course>254.26</course>
  <speed>0.99</speed>
  <fix>3d</fix>
</trkpt>
<trkpt lat="33.8098768" lon="-118.394876">
  <ele>-25.012</ele>
  <time>2026-09-02T22:08:40Z</time>
  <course>344.33</course>
  <speed>0.9684007434941384</speed>
  <fix>3d</fix>
</trkpt>
<trkpt lat="33.8098774" lon="-118.3948738">
  <ele>-24.4</ele>
  <time>2026-09-02T22:08:40Z</time>
  <course>254.26</course>
  <speed>0.99</speed>
  <fix>3d</fix>
</trkpt>
<trkpt lat="33.8098765" lon="-118.394877">
  <ele>-25.013</ele>
  <time>2026-09-02T22:08:40Z</time>
  <course>344.45</course>
  <speed>0.9684007434941384</speed>
  <fix>3d</fix>
</trkpt>
<trkpt lat="33.8098769" lon="-118.3948759">
  <ele>-24.4</ele>
  <time>2026-09-02T22:08:40Z</time>
  <course>254.48</course>
  <speed>0.99</speed>
  <fix>3d</fix>
</trkpt>
<trkpt lat="33.8098763" lon="-118.394878">
  <ele>-25.013</ele>
  <time>2026-09-02T22:08:40Z</time>
  <course>344.56</course>
  <speed>0.9684007434941384</speed>
  <fix>3d</fix>
</trkpt>
<trkpt lat="33.8098769" lon="-118.3948759">
  <ele>-24.4</ele>
  <time>2026-09-02T22:08:40Z</time>
  <course>254.48</course>
  <speed>0.99</speed>
  <fix>3d</fix>
</trkpt>
<trkpt lat="33.8098761" lon="-118.3948791">
  <ele>-25.013</ele>
  <time>2026-09-02T22:08:40Z</time>
  <course>344.68</course>
  <speed>0.9684007434941384</speed>
  <fix>3d</fix>
</trkpt>
<trkpt lat="33.8098765" lon="-118.394878">
  <ele>-24.4</ele>
  <time>2026-09-02T22:08:40Z</time>
  <course>254.71</course>
  <speed>0.99</speed>
  <fix>3d</fix>
</trkpt>
<trkpt lat="33.8098758" lon="-118.3948801">
  <ele>-25.013</ele>
  <time>2026-09-02T22:08:40Z</time>
  <course>344.79</course>
  <speed>0.9684007434941384</speed>
  <fix>3d</fix>
</trkpt>
<trkpt lat="33.8098765" lon="-118.394878">
  <ele>-24.4</ele>
  <time>2026-09-02T22:08:40Z</time>
  <course>254.71</course>
  <speed>0.99</speed>
  <fix>3d</fix>
</trkpt>
<trkpt lat="33.8098756" lon="-118.3948812">
  <ele>-25.013</ele>
  <time>2026-09-02T22:08:40Z</time>
  <course>344.9</course>
  <speed>0.9752948272189288</speed>
  <fix>3d</fix>
</trkpt>
<trkpt lat="33.809876" lon="-118.3948801">
  <ele>-24.41</ele>
  <time>2026-09-02T22:08:40Z</time>
  <course>254.92</course>
  <speed>0.99</speed>
  <fix>3d</fix>
</trkpt>
<trkpt lat="33.8098754" lon="-118.3948822">
  <ele>-25.014</ele>
  <time>2026-09-02T22:08:40Z</time>
  <course>345.02</course>
  <speed>0.9752948272189288</speed>
  <fix>3d</fix>
</trkpt>
<trkpt lat="33.809876" lon="-118.3948801">
  <ele>-24.41</ele>
  <time>2026-09-02T22:08:40Z</time>
  <course>254.92</course>
  <speed>0.99</speed>
  <fix>3d</fix>
</trkpt>
<trkpt lat="33.8098751" lon="-118.3948833">
  <ele>-25.014</ele>
  <time>2026-09-02T22:08:40Z</time>
  <course>345.13</course>
  <speed>0.9752948272189288</speed>
  <fix>3d</fix>
</trkpt>
<trkpt lat="33.8098755" lon="-118.3948821">
  <ele>-24.41</ele>
  <time>2026-09-02T22:08:40Z</time>
  <course>255.08</course>
  <speed>0.99</speed>
  <fix>3d</fix>
</trkpt>
<trkpt lat="33.8098749" lon="-118.3948843">
  <ele>-25.014</ele>
  <time>2026-09-02T22:08:40Z</time>
  <course>345.25</course>
  <speed>0.9752948272189288</speed>
  <fix>3d</fix>
</trkpt>
<trkpt lat="33.8098755" lon="-118.3948821">
  <ele>-24.41</ele>
  <time>2026-09-02T22:08:40Z</time>
  <course>255.08</course>
  <speed>0.99</speed>
  <fix>3d</fix>
</trkpt>
<trkpt lat="33.8098747" lon="-118.3948854">
  <ele>-25.012</ele>
  <time>2026-09-02T22:08:40Z</time>
  <course>345.36</course>
  <speed>0.9752948272189288</speed>
  <fix>3d</fix>
</trkpt>
<trkpt lat="33.8098751" lon="-118.3948842">
  <ele>-24.41</ele>
  <time>2026-09-02T22:08:40Z</time>
  <course>255.26</course>
  <speed>0.99</speed>
  <fix>3d</fix>
</trkpt>
<trkpt lat="33.8098745" lon="-118.3948864">
  <ele>-25.011</ele>
  <time>2026-09-02T22:08:40Z</time>
  <course>345.47</course>
  <speed>0.9752948272189288</speed>
  <fix>3d</fix>
</trkpt>
<trkpt lat="33.8098751" lon="-118.3948842">
  <ele>-24.41</ele>
  <time>2026-09-02T22:08:40Z</time>
  <course>255.26</course>
  <speed>0.99</speed>
  <fix>3d</fix>
</trkpt>
<trkpt lat="33.8098742" lon="-118.3948875">
  <ele>-25.01</ele>
  <time>2026-09-02T22:08:40Z</time>
  <course>345.59</course>
  <speed>0.9726767191621274</speed>
  <fix>3d</fix>
</trkpt>
<trkpt lat="33.8098746" lon="-118.3948863">
  <ele>-24.41</ele>
  <time>2026-09-02T22:08:40Z</time>
  <course>255.47</course>
  <speed>0.99</speed>
  <fix>3d</fix>
</trkpt>
<trkpt lat="33.809874" lon="-118.3948885">
  <ele>-25.011</ele>
  <time>2026-09-02T22:08:40Z</time>
  <course>345.71</course>
  <speed>0.9726767191621274</speed>
  <fix>3d</fix>
</trkpt>
<trkpt lat="33.8098746" lon="-118.3948863">
  <ele>-24.41</ele>
  <time>2026-09-02T22:08:40Z</time>
  <course>255.47</course>
  <speed>0.99</speed>
  <fix>3d</fix>
</trkpt>
<trkpt lat="33.8098738" lon="-118.3948896">
  <ele>-25.013</ele>
  <time>2026-09-02T22:08:40Z</time>
  <course>345.82</course>
  <speed>0.9726767191621274</speed>
  <fix>3d</fix>
</trkpt>
<trkpt lat="33.8098741" lon="-118.3948884">
  <ele>-24.41</ele>
  <time>2026-09-02T22:08:40Z</time>
  <course>255.69</course>
  <speed>0.99</speed>
  <fix>3d</fix>
</trkpt>
<trkpt lat="33.8098736" lon="-118.3948906">
  <ele>-25.015</ele>
  <time>2026-09-02T22:08:40Z</time>
  <course>345.94</course>
  <speed>0.9726767191621274</speed>
  <fix>3d</fix>
</trkpt>
<trkpt lat="33.8098741" lon="-118.3948884">
  <ele>-24.41</ele>
  <time>2026-09-02T22:08:40Z</time>
  <course>255.69</course>
  <speed>0.99</speed>
  <fix>3d</fix>
</trkpt>
<trkpt lat="33.8098734" lon="-118.3948917">
  <ele>-25.016</ele>
  <time>2026-09-02T22:08:40Z</time>
  <course>346.05</course>
  <speed>0.9701546268507922</speed>
  <fix>3d</fix>
</trkpt>
<trkpt lat="33.8098738" lon="-118.3948905">
  <ele>-24.41</ele>
  <time>2026-09-02T22:08:40Z</time>
  <course>255.97</course>
  <speed>0.99</speed>
  <fix>3d</fix>
</trkpt>
<trkpt lat="33.8098732" lon="-118.3948927">
  <ele>-25.017</ele>
  <time>2026-09-02T22:08:40Z</time>
  <course>346.16</course>
  <speed>0.9701546268507922</speed>
  <fix>3d</fix>
</trkpt>
<trkpt lat="33.8098738" lon="-118.3948905">
  <ele>-24.41</ele>
  <time>2026-09-02T22:08:40Z</time>
  <course>255.97</course>
  <speed>0.99</speed>
  <fix>3d</fix>
</trkpt>
<trkpt lat="33.809873" lon="-118.3948938">
  <ele>-25.017</ele>
  <time>2026-09-02T22:08:40Z</time>
  <course>346.28</course>
  <speed>0.9701546268507922</speed>
  <fix>3d</fix>
</trkpt>
<trkpt lat="33.8098733" lon="-118.3948926">
  <ele>-24.41</ele>
  <time>2026-09-02T22:08:40Z</time>
  <course>256.22</course>
  <speed>0.99</speed>
  <fix>3d</fix>
</trkpt>
<trkpt lat="33.8098727" lon="-118.3948948">
  <ele>-25.016</ele>
  <time>2026-09-02T22:08:40Z</time>
  <course>346.39</course>
  <speed>0.9701546268507922</speed>
  <fix>3d</fix>
</trkpt>
<trkpt lat="33.8098733" lon="-118.3948926">
  <ele>-24.41</ele>
  <time>2026-09-02T22:08:40Z</time>
  <course>256.22</course>
  <speed>0.99</speed>
  <fix>3d</fix>
</trkpt>
<trkpt lat="33.8098725" lon="-118.3948959">
  <ele>-25.015</ele>
  <time>2026-09-02T22:08:40Z</time>
  <course>346.51</course>
  <speed>0.9701546268507922</speed>
  <fix>3d</fix>
</trkpt>
<trkpt lat="33.8098729" lon="-118.3948947">
  <ele>-24.41</ele>
  <time>2026-09-02T22:08:40Z</time>
  <course>256.41</course>
  <speed>0.99</speed>
  <fix>3d</fix>
</trkpt>
<trkpt lat="33.8098723" lon="-118.3948969">
  <ele>-25.015</ele>
  <time>2026-09-02T22:08:40Z</time>
  <course>346.62</course>
  <speed>0.9774456506629922</speed>
  <fix>3d</fix>
</trkpt>
<trkpt lat="33.8098729" lon="-118.3948947">
  <ele>-24.41</ele>
  <time>2026-09-02T22:08:40Z</time>
  <course>256.41</course>
  <speed>0.99</speed>
  <fix>3d</fix>
</trkpt>
<trkpt lat="33.8098721" lon="-118.394898">
  <ele>-25.015</ele>
  <time>2026-09-02T22:08:40Z</time>
  <course>346.74</course>
  <speed>0.9774456506629922</speed>
  <fix>3d</fix>
</trkpt>
<trkpt lat="33.8098725" lon="-118.3948967">
  <ele>-24.41</ele>
  <time>2026-09-02T22:08:40Z</time>
  <course>256.6</course>
  <speed>0.99</speed>
  <fix>3d</fix>
</trkpt>
<trkpt lat="33.8098719" lon="-118.394899">
  <ele>-25.016</ele>
  <time>2026-09-02T22:08:40Z</time>
  <course>346.85</course>
  <speed>0.9774456506629922</speed>
  <fix>3d</fix>
</trkpt>
<trkpt lat="33.8098725" lon="-118.3948967">
  <ele>-24.41</ele>
  <time>2026-09-02T22:08:40Z</time>
  <course>256.6</course>
  <speed>0.99</speed>
  <fix>3d</fix>
</trkpt>
<trkpt lat="33.8098717" lon="-118.3949001">
  <ele>-25.016</ele>
  <time>2026-09-02T22:08:40Z</time>
  <course>346.97</course>
  <speed>0.9774456506629922</speed>
  <fix>3d</fix>
</trkpt>
<trkpt lat="33.809872" lon="-118.3948988">
  <ele>-24.4</ele>
  <time>2026-09-02T22:08:40Z</time>
  <course>256.79</course>
  <speed>0.99</speed>
  <fix>3d</fix>
</trkpt>
<trkpt lat="33.8098715" lon="-118.3949011">
  <ele>-25.016</ele>
  <time>2026-09-02T22:08:40Z</time>
  <course>347.08</course>
  <speed>0.9774456506629922</speed>
  <fix>3d</fix>
</trkpt>
<trkpt lat="33.809872" lon="-118.3948988">
  <ele>-24.4</ele>
  <time>2026-09-02T22:08:40Z</time>
  <course>256.79</course>
  <speed>0.99</speed>
  <fix>3d</fix>
</trkpt>
<trkpt lat="33.8098713" lon="-118.3949022">
  <ele>-25.014</ele>
  <time>2026-09-02T22:08:40Z</time>
  <course>347.2</course>
  <speed>0.9751410154434076</speed>
  <fix>3d</fix>
</trkpt>
<trkpt lat="33.8098717" lon="-118.3949009">
  <ele>-24.4</ele>
  <time>2026-09-02T22:08:40Z</time>
  <course>257.04</course>
  <speed>0.99</speed>
  <fix>3d</fix>
</trkpt>
<trkpt lat="33.8098711" lon="-118.3949032">
  <ele>-25.012</ele>
  <time>2026-09-02T22:08:40Z</time>
  <course>347.31</course>
  <speed>0.9751410154434076</speed>
  <fix>3d</fix>
</trkpt>
<trkpt lat="33.8098717" lon="-118.3949009">
  <ele>-24.4</ele>
  <time>2026-09-02T22:08:40Z</time>
  <course>257.04</course>
  <speed>0.99</speed>
  <fix>3d</fix>
</trkpt>
<trkpt lat="33.8098709" lon="-118.3949043">
  <ele>-25.012</ele>
  <time>2026-09-02T22:08:40Z</time>
  <course>347.42</course>
  <speed>0.9751410154434076</speed>
  <fix>3d</fix>
</trkpt>
<trkpt lat="33.8098713" lon="-118.394903">
  <ele>-24.4</ele>
  <time>2026-09-02T22:08:40Z</time>
  <course>257.3</course>
  <speed>0.99</speed>
  <fix>3d</fix>
</trkpt>
<trkpt lat="33.8098707" lon="-118.3949053">
  <ele>-25.012</ele>
  <time>2026-09-02T22:08:40Z</time>
  <course>347.54</course>
  <speed>0.9751410154434076</speed>
  <fix>3d</fix>
</trkpt>
<trkpt lat="33.8098713" lon="-118.394903">
  <ele>-24.4</ele>
  <time>2026-09-02T22:08:40Z</time>
  <course>257.3</course>
  <speed>0.99</speed>
  <fix>3d</fix>
</trkpt>
<trkpt lat="33.8098706" lon="-118.3949064">
  <ele>-25.013</ele>
  <time>2026-09-02T22:08:40Z</time>
  <course>347.65</course>
  <speed>0.9848857801796105</speed>
  <fix>3d</fix>
</trkpt>
<trkpt lat="33.8098708" lon="-118.3949051">
  <ele>-24.4</ele>
  <time>2026-09-02T22:08:40Z</time>
  <course>257.51</course>
  <speed>0.99</speed>
  <fix>3d</fix>
</trkpt>
<trkpt lat="33.8098704" lon="-118.3949075">
  <ele>-25.014</ele>
  <time>2026-09-02T22:08:40Z</time>
  <course>347.77</course>
  <speed>0.982700361249552</speed>
  <fix>3d</fix>
</trkpt>
<trkpt lat="33.8098708" lon="-118.3949051">
  <ele>-24.4</ele>
  <time>2026-09-02T22:08:40Z</time>
  <course>257.51</course>
  <speed>0.99</speed>
  <fix>3d</fix>
</trkpt>
<trkpt lat="33.8098702" lon="-118.3949085">
  <ele>-25.015</ele>
  <time>2026-09-02T22:08:40Z</time>
  <course>347.88</course>
  <speed>0.982700361249552</speed>
  <fix>3d</fix>
</trkpt>
<trkpt lat="33.8098705" lon="-118.3949072">
  <ele>-24.4</ele>
  <time>2026-09-02T22:08:40Z</time>
  <course>257.75</course>
  <speed>0.99</speed>
  <fix>3d</fix>
</trkpt>
<trkpt lat="33.80987" lon="-118.3949096">
  <ele>-25.015</ele>
  <time>2026-09-02T22:08:40Z</time>
  <course>348.0</course>
  <speed>0.982700361249552</speed>
  <fix>3d</fix>
</trkpt>
<trkpt lat="33.8098705" lon="-118.3949072">
  <ele>-24.4</ele>
  <time>2026-09-02T22:08:40Z</time>
  <course>257.75</course>
  <speed>0.99</speed>
  <fix>3d</fix>
</trkpt>
<trkpt lat="33.8098698" lon="-118.3949106">
  <ele>-25.015</ele>
  <time>2026-09-02T22:08:40Z</time>
  <course>348.11</course>
  <speed>0.982700361249552</speed>
  <fix>3d</fix>
</trkpt>
<trkpt lat="33.8098701" lon="-118.3949093">
  <ele>-24.4</ele>
  <time>2026-09-02T22:08:40Z</time>
  <course>258.01</course>
  <speed>0.99</speed>
  <fix>3d</fix>
</trkpt>
<trkpt lat="33.8098696" lon="-118.3949117">
  <ele>-25.014</ele>
  <time>2026-09-02T22:08:40Z</time>
  <course>348.22</course>
  <speed>0.980612053770501</speed>
  <fix>3d</fix>
</trkpt>
<trkpt lat="33.8098701" lon="-118.3949093">
  <ele>-24.4</ele>
  <time>2026-09-02T22:08:40Z</time>
  <course>258.01</course>
  <speed>0.99</speed>
  <fix>3d</fix>
</trkpt>
<trkpt lat="33.8098695" lon="-118.3949127">
  <ele>-25.012</ele>
  <time>2026-09-02T22:08:40Z</time>
  <course>348.34</course>
  <speed>0.980612053770501</speed>
  <fix>3d</fix>
</trkpt>
<trkpt lat="33.8098698" lon="-118.3949114">
  <ele>-24.4</ele>
  <time>2026-09-02T22:08:40Z</time>
  <course>258.28</course>
  <speed>0.99</speed>
  <fix>3d</fix>
</trkpt>
<trkpt lat="33.8098693" lon="-118.3949138">
  <ele>-25.011</ele>
  <time>2026-09-02T22:08:40Z</time>
  <course>348.46</course>
  <speed>0.980612053770501</speed>
  <fix>3d</fix>
</trkpt>
<trkpt lat="33.8098698" lon="-118.3949114">
  <ele>-24.4</ele>
  <time>2026-09-02T22:08:40Z</time>
  <course>258.28</course>
  <speed>0.99</speed>
  <fix>3d</fix>
</trkpt>
<trkpt lat="33.8098691" lon="-118.3949149">
  <ele>-25.009</ele>
  <time>2026-09-02T22:08:40Z</time>
  <course>348.57</course>
  <speed>0.980612053770501</speed>
  <fix>3d</fix>
</trkpt>
<trkpt lat="33.8098693" lon="-118.3949136">
  <ele>-24.4</ele>
  <time>2026-09-02T22:08:40Z</time>
  <course>258.5</course>
  <speed>0.99</speed>
  <fix>3d</fix>
</trkpt>
<trkpt lat="33.8098689" lon="-118.3949159">
  <ele>-25.008</ele>
  <time>2026-09-02T22:08:40Z</time>
  <course>348.68</course>
  <speed>0.980612053770501</speed>
  <fix>3d</fix>
</trkpt>
<trkpt lat="33.8098693" lon="-118.3949136">
  <ele>-24.4</ele>
  <time>2026-09-02T22:08:40Z</time>
  <course>258.5</course>
  <speed>0.99</speed>
  <fix>3d</fix>
</trkpt>
<trkpt lat="33.8098687" lon="-118.394917">
  <ele>-25.007</ele>
  <time>2026-09-02T22:08:40Z</time>
  <course>348.79</course>
  <speed>0.9786214794290998</speed>
  <fix>3d</fix>
</trkpt>
<trkpt lat="33.809869" lon="-118.3949157">
  <ele>-24.4</ele>
  <time>2026-09-02T22:08:40Z</time>
  <course>258.71</course>
  <speed>0.99</speed>
  <fix>3d</fix>
</trkpt>
<trkpt lat="33.8098686" lon="-118.394918">
  <ele>-25.008</ele>
  <time>2026-09-02T22:08:40Z</time>
  <course>348.91</course>
  <speed>0.9786214794290998</speed>
  <fix>3d</fix>
</trkpt>
<trkpt lat="33.809869" lon="-118.3949157">
  <ele>-24.4</ele>
  <time>2026-09-02T22:08:40Z</time>
  <course>258.71</course>
  <speed>0.99</speed>
  <fix>3d</fix>
</trkpt>
<trkpt lat="33.8098684" lon="-118.3949191">
  <ele>-25.01</ele>
  <time>2026-09-02T22:08:40Z</time>
  <course>349.03</course>
  <speed>0.9786214794290998</speed>
  <fix>3d</fix>
</trkpt>
<trkpt lat="33.8098686" lon="-118.3949178">
  <ele>-24.4</ele>
  <time>2026-09-02T22:08:40Z</time>
  <course>258.99</course>
  <speed>0.99</speed>
  <fix>3d</fix>
</trkpt>
<trkpt lat="33.8098682" lon="-118.3949202">
  <ele>-25.012</ele>
  <time>2026-09-02T22:08:40Z</time>
  <course>349.15</course>
  <speed>0.9786214794290998</speed>
  <fix>3d</fix>
</trkpt>
<trkpt lat="33.8098686" lon="-118.3949178">
  <ele>-24.4</ele>
  <time>2026-09-02T22:08:40Z</time>
  <course>258.99</course>
  <speed>0.99</speed>
  <fix>3d</fix>
</trkpt>
<trkpt lat="33.8098681" lon="-118.3949212">
  <ele>-25.014</ele>
  <time>2026-09-02T22:08:40Z</time>
  <course>349.26</course>
  <speed>0.9767292357659824</speed>
  <fix>3d</fix>
</trkpt>
<trkpt lat="33.8098683" lon="-118.3949199">
  <ele>-24.4</ele>
  <time>2026-09-02T22:08:40Z</time>
  <course>259.29</course>
  <speed>0.99</speed>
  <fix>3d</fix>
</trkpt>
<trkpt lat="33.8098679" lon="-118.3949223">
  <ele>-25.014</ele>
  <time>2026-09-02T22:08:40Z</time>
  <course>349.38</course>
  <speed>0.9767292357659824</speed>
  <fix>3d</fix>
</trkpt>
<trkpt lat="33.8098683" lon="-118.3949199">
  <ele>-24.4</ele>
  <time>2026-09-02T22:08:40Z</time>
  <course>259.29</course>
  <speed>0.99</speed>
  <fix>3d</fix>
</trkpt>
<trkpt lat="33.8098677" lon="-118.3949234">
  <ele>-25.013</ele>
  <time>2026-09-02T22:08:40Z</time>
  <course>349.49</course>
  <speed>0.9865596788841515</speed>
  <fix>3d</fix>
</trkpt>
<trkpt lat="33.809868" lon="-118.394922">
  <ele>-24.4</ele>
  <time>2026-09-02T22:08:40Z</time>
  <course>259.59</course>
  <speed>0.99</speed>
  <fix>3d</fix>
</trkpt>
<trkpt lat="33.8098676" lon="-118.3949244">
  <ele>-25.011</ele>
  <time>2026-09-02T22:08:40Z</time>
  <course>349.6</course>
  <speed>0.9865596788841515</speed>
  <fix>3d</fix>
</trkpt>
<trkpt lat="33.809868" lon="-118.394922">
  <ele>-24.4</ele>
  <time>2026-09-02T22:08:40Z</time>
  <course>259.59</course>
  <speed>0.99</speed>
  <fix>3d</fix>
</trkpt>
<trkpt lat="33.8098674" lon="-118.3949255">
  <ele>-25.009</ele>
  <time>2026-09-02T22:08:40Z</time>
  <course>349.71</course>
  <speed>0.9865596788841515</speed>
  <fix>3d</fix>
</trkpt>
<trkpt lat="33.8098677" lon="-118.3949241">
  <ele>-24.4</ele>
  <time>2026-09-02T22:08:40Z</time>
  <course>259.82</course>
  <speed>0.99</speed>
  <fix>3d</fix>
</trkpt>
<trkpt lat="33.8098673" lon="-118.3949265">
  <ele>-25.009</ele>
  <time>2026-09-02T22:08:40Z</time>
  <course>349.83</course>
  <speed>0.9847842403288144</speed>
  <fix>3d</fix>
</trkpt>
<trkpt lat="33.8098677" lon="-118.3949241">
  <ele>-24.4</ele>
  <time>2026-09-02T22:08:40Z</time>
  <course>259.82</course>
  <speed>0.99</speed>
  <fix>3d</fix>
</trkpt>
<trkpt lat="33.8098671" lon="-118.3949276">
  <ele>-25.009</ele>
  <time>2026-09-02T22:08:40Z</time>
  <course>349.94</course>
  <speed>0.9847842403288144</speed>
  <fix>3d</fix>
</trkpt>
<trkpt lat="33.8098674" lon="-118.3949263">
  <ele>-24.4</ele>
  <time>2026-09-02T22:08:40Z</time>
  <course>260.0</course>
  <speed>0.99</speed>
  <fix>3d</fix>
</trkpt>
<trkpt lat="33.809867" lon="-118.3949287">
  <ele>-25.009</ele>
  <time>2026-09-02T22:08:40Z</time>
  <course>350.06</course>
  <speed>0.9847842403288144</speed>
  <fix>3d</fix>
</trkpt>
<trkpt lat="33.8098674" lon="-118.3949263">
  <ele>-24.4</ele>
  <time>2026-09-02T22:08:40Z</time>
  <course>260.0</course>
  <speed>0.99</speed>
  <fix>3d</fix>
</trkpt>
<trkpt lat="33.8098668" lon="-118.3949297">
  <ele>-25.01</ele>
  <time>2026-09-02T22:08:40Z</time>
  <course>350.18</course>
  <speed>0.9847842403288144</speed>
  <fix>3d</fix>
</trkpt>
<trkpt lat="33.8098671" lon="-118.3949284">
  <ele>-24.4</ele>
  <time>2026-09-02T22:08:40Z</time>
  <course>260.16</course>
  <speed>0.99</speed>
  <fix>3d</fix>
</trkpt>
<trkpt lat="33.8098667" lon="-118.3949308">
  <ele>-25.013</ele>
  <time>2026-09-02T22:08:40Z</time>
  <course>350.29</course>
  <speed>0.9847842403288144</speed>
  <fix>3d</fix>
</trkpt>
<trkpt lat="33.8098671" lon="-118.3949284">
  <ele>-24.4</ele>
  <time>2026-09-02T22:08:40Z</time>
  <course>260.16</course>
  <speed>0.99</speed>
  <fix>3d</fix>
</trkpt>
<trkpt lat="33.8098665" lon="-118.3949319">
  <ele>-25.016</ele>
  <time>2026-09-02T22:08:40Z</time>
  <course>350.4</course>
  <speed>0.9847842403288144</speed>
  <fix>3d</fix>
</trkpt>
<trkpt lat="33.8098668" lon="-118.3949305">
  <ele>-24.41</ele>
  <time>2026-09-02T22:08:40Z</time>
  <course>260.29</course>
  <speed>0.99</speed>
  <fix>3d</fix>
</trkpt>
<trkpt lat="33.8098664" lon="-118.3949329">
  <ele>-25.018</ele>
  <time>2026-09-02T22:08:40Z</time>
  <course>350.52</course>
  <speed>0.9847842403288144</speed>
  <fix>3d</fix>
</trkpt>
<trkpt lat="33.8098668" lon="-118.3949305">
  <ele>-24.41</ele>
  <time>2026-09-02T22:08:40Z</time>
  <course>260.29</course>
  <speed>0.99</speed>
  <fix>3d</fix>
</trkpt>
<trkpt lat="33.8098662" lon="-118.394934">
  <ele>-25.019</ele>
  <time>2026-09-02T22:08:40Z</time>
  <course>350.63</course>
  <speed>0.9831073186585481</speed>
  <fix>3d</fix>
</trkpt>
<trkpt lat="33.8098665" lon="-118.3949326">
  <ele>-24.41</ele>
  <time>2026-09-02T22:08:40Z</time>
  <course>260.44</course>
  <speed>0.99</speed>
  <fix>3d</fix>
</trkpt>
<trkpt lat="33.8098661" lon="-118.3949351">
  <ele>-25.019</ele>
  <time>2026-09-02T22:08:40Z</time>
  <course>350.75</course>
  <speed>0.9831073186585481</speed>
  <fix>3d</fix>
</trkpt>
<trkpt lat="33.8098665" lon="-118.3949326">
  <ele>-24.41</ele>
  <time>2026-09-02T22:08:40Z</time>
  <course>260.44</course>
  <speed>0.99</speed>
  <fix>3d</fix>
</trkpt>
<trkpt lat="33.809866" lon="-118.3949361">
  <ele>-25.018</ele>
  <time>2026-09-02T22:08:40Z</time>
  <course>350.86</course>
  <speed>0.9831073186585481</speed>
  <fix>3d</fix>
</trkpt>
<trkpt lat="33.8098662" lon="-118.3949347">
  <ele>-24.41</ele>
  <time>2026-09-02T22:08:40Z</time>
  <course>260.62</course>
  <speed>0.99</speed>
  <fix>3d</fix>
</trkpt>
<trkpt lat="33.8098658" lon="-118.3949372">
  <ele>-25.016</ele>
  <time>2026-09-02T22:08:40Z</time>
  <course>350.98</course>
  <speed>0.9831073186585481</speed>
  <fix>3d</fix>
</trkpt>
<trkpt lat="33.8098662" lon="-118.3949347">
  <ele>-24.41</ele>
  <time>2026-09-02T22:08:40Z</time>
  <course>260.62</course>
  <speed>0.99</speed>
  <fix>3d</fix>
</trkpt>
<trkpt lat="33.8098657" lon="-118.3949383">
  <ele>-25.014</ele>
  <time>2026-09-02T22:08:40Z</time>
  <course>351.09</course>
  <speed>0.9831073186585481</speed>
  <fix>3d</fix>
</trkpt>
<trkpt lat="33.8098659" lon="-118.3949369">
  <ele>-24.41</ele>
  <time>2026-09-02T22:08:40Z</time>
  <course>260.82</course>
  <speed>0.99</speed>
  <fix>3d</fix>
</trkpt>
<trkpt lat="33.8098655" lon="-118.3949393">
  <ele>-25.012</ele>
  <time>2026-09-02T22:08:40Z</time>
  <course>351.21</course>
  <speed>0.9914131328563285</speed>
  <fix>3d</fix>
</trkpt>
<trkpt lat="33.8098659" lon="-118.3949369">
  <ele>-24.41</ele>
  <time>2026-09-02T22:08:40Z</time>
  <course>260.82</course>
  <speed>0.99</speed>
  <fix>3d</fix>
</trkpt>
<trkpt lat="33.8098654" lon="-118.3949404">
  <ele>-25.012</ele>
  <time>2026-09-02T22:08:40Z</time>
  <course>351.32</course>
  <speed>0.9914131328563285</speed>
  <fix>3d</fix>
</trkpt>
<trkpt lat="33.8098656" lon="-118.394939">
  <ele>-24.41</ele>
  <time>2026-09-02T22:08:40Z</time>
  <course>261.06</course>
  <speed>0.99</speed>
  <fix>3d</fix>
</trkpt>
<trkpt lat="33.8098653" lon="-118.3949415">
  <ele>-25.012</ele>
  <time>2026-09-02T22:08:40Z</time>
  <course>351.44</course>
  <speed>0.9914131328563285</speed>
  <fix>3d</fix>
</trkpt>
<trkpt lat="33.8098656" lon="-118.394939">
  <ele>-24.41</ele>
  <time>2026-09-02T22:08:40Z</time>
  <course>261.06</course>
  <speed>0.99</speed>
  <fix>3d</fix>
</trkpt>
<trkpt lat="33.8098651" lon="-118.3949425">
  <ele>-25.013</ele>
  <time>2026-09-02T22:08:40Z</time>
  <course>351.55</course>
  <speed>0.9914131328563285</speed>
  <fix>3d</fix>
</trkpt>
<trkpt lat="33.8098653" lon="-118.3949412">
  <ele>-24.41</ele>
  <time>2026-09-02T22:08:40Z</time>
  <course>261.33</course>
  <speed>0.99</speed>
  <fix>3d</fix>
</trkpt>
<trkpt lat="33.809865" lon="-118.3949436">
  <ele>-25.014</ele>
  <time>2026-09-02T22:08:40Z</time>
  <course>351.67</course>
  <speed>0.9899494936611666</speed>
  <fix>3d</fix>
</trkpt>
<trkpt lat="33.8098653" lon="-118.3949412">
  <ele>-24.41</ele>
  <time>2026-09-02T22:08:40Z</time>
  <course>261.33</course>
  <speed>0.99</speed>
  <fix>3d</fix>
</trkpt>
<trkpt lat="33.8098649" lon="-118.3949447">
  <ele>-25.016</ele>
  <time>2026-09-02T22:08:40Z</time>
  <course>351.79</course>
  <speed>0.9899494936611666</speed>
  <fix>3d</fix>
</trkpt>
<trkpt lat="33.809865" lon="-118.3949433">
  <ele>-24.41</ele>
  <time>2026-09-02T22:08:40Z</time>
  <course>261.62</course>
  <speed>1.0</speed>
  <fix>3d</fix>
</trkpt>
<trkpt lat="33.8098648" lon="-118.3949457">
  <ele>-25.017</ele>
  <time>2026-09-02T22:08:40Z</time>
  <course>351.9</course>
  <speed>0.9899494936611666</speed>
  <fix>3d</fix>
</trkpt>
<trkpt lat="33.809865" lon="-118.3949433">
  <ele>-24.41</ele>
  <time>2026-09-02T22:08:40Z</time>
  <course>261.62</course>
  <speed>1.0</speed>
  <fix>3d</fix>
</trkpt>
<trkpt lat="33.8098646" lon="-118.3949468">
  <ele>-25.017</ele>
  <time>2026-09-02T22:08:40Z</time>
  <course>352.01</course>
  <speed>0.9885848471426213</speed>
  <fix>3d</fix>
</trkpt>
<trkpt lat="33.8098648" lon="-118.3949455">
  <ele>-24.41</ele>
  <time>2026-09-02T22:08:40Z</time>
  <course>261.94</course>
  <speed>1.0</speed>
  <fix>3d</fix>
</trkpt>
<trkpt lat="33.8098645" lon="-118.3949479">
  <ele>-25.017</ele>
  <time>2026-09-02T22:08:40Z</time>
  <course>352.13</course>
  <speed>0.9885848471426213</speed>
  <fix>3d</fix>
</trkpt>
<trkpt lat="33.8098648" lon="-118.3949455">
  <ele>-24.41</ele>
  <time>2026-09-02T22:08:40Z</time>
  <course>261.94</course>
  <speed>1.0</speed>
  <fix>3d</fix>
</trkpt>
<trkpt lat="33.8098644" lon="-118.394949">
  <ele>-25.016</ele>
  <time>2026-09-02T22:08:40Z</time>
  <course>352.25</course>
  <speed>0.9885848471426213</speed>
  <fix>3d</fix>
</trkpt>
<trkpt lat="33.8098646" lon="-118.3949476">
  <ele>-24.4</ele>
  <time>2026-09-02T22:08:40Z</time>
  <course>262.24</course>
  <speed>1.0</speed>
  <fix>3d</fix>
</trkpt>
<trkpt lat="33.8098643" lon="-118.39495">
  <ele>-25.015</ele>
  <time>2026-09-02T22:08:40Z</time>
  <course>352.36</course>
  <speed>0.9885848471426213</speed>
  <fix>3d</fix>
</trkpt>
<trkpt lat="33.8098646" lon="-118.3949476">
  <ele>-24.4</ele>
  <time>2026-09-02T22:08:40Z</time>
  <course>262.24</course>
  <speed>1.0</speed>
  <fix>3d</fix>
</trkpt>
<trkpt lat="33.8098642" lon="-118.3949511">
  <ele>-25.014</ele>
  <time>2026-09-02T22:08:40Z</time>
  <course>352.47</course>
  <speed>0.9885848471426213</speed>
  <fix>3d</fix>
</trkpt>
<trkpt lat="33.8098643" lon="-118.3949498">
  <ele>-24.4</ele>
  <time>2026-09-02T22:08:40Z</time>
  <course>262.47</course>
  <speed>1.0</speed>
  <fix>3d</fix>
</trkpt>
<trkpt lat="33.8098641" lon="-118.3949522">
  <ele>-25.012</ele>
  <time>2026-09-02T22:08:40Z</time>
  <course>352.58</course>
  <speed>0.9885848471426213</speed>
  <fix>3d</fix>
</trkpt>
<trkpt lat="33.8098643" lon="-118.3949498">
  <ele>-24.4</ele>
  <time>2026-09-02T22:08:40Z</time>
  <course>262.47</course>
  <speed>1.0</speed>
  <fix>3d</fix>
</trkpt>
<trkpt lat="33.8098639" lon="-118.3949532">
  <ele>-25.011</ele>
  <time>2026-09-02T22:08:40Z</time>
  <course>352.7</course>
  <speed>0.9873196037757986</speed>
  <fix>3d</fix>
</trkpt>
<trkpt lat="33.8098641" lon="-118.3949519">
  <ele>-24.4</ele>
  <time>2026-09-02T22:08:40Z</time>
  <course>262.64</course>
  <speed>1.0</speed>
  <fix>3d</fix>
</trkpt>
<trkpt lat="33.8098638" lon="-118.3949543">
  <ele>-25.01</ele>
  <time>2026-09-02T22:08:40Z</time>
  <course>352.81</course>
  <speed>0.9873196037757986</speed>
  <fix>3d</fix>
</trkpt>
<trkpt lat="33.8098641" lon="-118.3949519">
  <ele>-24.4</ele>
  <time>2026-09-02T22:08:40Z</time>
  <course>262.64</course>
  <speed>1.0</speed>
  <fix>3d</fix>
</trkpt>
<trkpt lat="33.8098637" lon="-118.3949554">
  <ele>-25.01</ele>
  <time>2026-09-02T22:08:40Z</time>
  <course>352.93</course>
  <speed>0.9873196037757986</speed>
  <fix>3d</fix>
</trkpt>
<trkpt lat="33.8098638" lon="-118.3949541">
  <ele>-24.4</ele>
  <time>2026-09-02T22:08:40Z</time>
  <course>262.84</course>
  <speed>1.0</speed>
  <fix>3d</fix>
</trkpt>
<trkpt lat="33.8098636" lon="-118.3949565">
  <ele>-25.009</ele>
  <time>2026-09-02T22:08:40Z</time>
  <course>353.04</course>
  <speed>0.9873196037757986</speed>
  <fix>3d</fix>
</trkpt>
<trkpt lat="33.8098638" lon="-118.3949541">
  <ele>-24.4</ele>
  <time>2026-09-02T22:08:40Z</time>
  <course>262.84</course>
  <speed>1.0</speed>
  <fix>3d</fix>
</trkpt>
<trkpt lat="33.8098635" lon="-118.3949575">
  <ele>-25.008</ele>
  <time>2026-09-02T22:08:40Z</time>
  <course>353.16</course>
  <speed>0.986154146165801</speed>
  <fix>3d</fix>
</trkpt>
<trkpt lat="33.8098636" lon="-118.3949562">
  <ele>-24.4</ele>
  <time>2026-09-02T22:08:40Z</time>
  <course>263.09</course>
  <speed>1.0</speed>
  <fix>3d</fix>
</trkpt>
<trkpt lat="33.8098634" lon="-118.3949586">
  <ele>-25.008</ele>
  <time>2026-09-02T22:08:40Z</time>
  <course>353.27</course>
  <speed>0.986154146165801</speed>
  <fix>3d</fix>
</trkpt>
<trkpt lat="33.8098636" lon="-118.3949562">
  <ele>-24.4</ele>
  <time>2026-09-02T22:08:40Z</time>
  <course>263.09</course>
  <speed>1.0</speed>
  <fix>3d</fix>
</trkpt>
<trkpt lat="33.8098633" lon="-118.3949597">
  <ele>-25.007</ele>
  <time>2026-09-02T22:08:40Z</time>
  <course>353.39</course>
  <speed>0.986154146165801</speed>
  <fix>3d</fix>
</trkpt>
<trkpt lat="33.8098635" lon="-118.3949584">
  <ele>-24.4</ele>
  <time>2026-09-02T22:08:40Z</time>
  <course>263.36</course>
  <speed>1.0</speed>
  <fix>3d</fix>
</trkpt>
<trkpt lat="33.8098632" lon="-118.3949608">
  <ele>-25.007</ele>
  <time>2026-09-02T22:08:40Z</time>
  <course>353.5</course>
  <speed>0.986154146165801</speed>
  <fix>3d</fix>
</trkpt>
<trkpt lat="33.8098635" lon="-118.3949584">
  <ele>-24.4</ele>
  <time>2026-09-02T22:08:40Z</time>
  <course>263.36</course>
  <speed>1.0</speed>
  <fix>3d</fix>
</trkpt>
<trkpt lat="33.8098631" lon="-118.3949619">
  <ele>-25.008</ele>
  <time>2026-09-02T22:08:40Z</time>
  <course>353.62</course>
  <speed>0.986154146165801</speed>
  <fix>3d</fix>
</trkpt>
<trkpt lat="33.8098632" lon="-118.3949605">
  <ele>-24.4</ele>
  <time>2026-09-02T22:08:40Z</time>
  <course>263.58</course>
  <speed>1.0</speed>
  <fix>3d</fix>
</trkpt>
<trkpt lat="33.809863" lon="-118.3949629">
  <ele>-25.009</ele>
  <time>2026-09-02T22:08:40Z</time>
  <course>353.73</course>
  <speed>0.9850888284819801</speed>
  <fix>3d</fix>
</trkpt>
<trkpt lat="33.8098632" lon="-118.3949605">
  <ele>-24.4</ele>
  <time>2026-09-02T22:08:40Z</time>
  <course>263.58</course>
  <speed>1.0</speed>
  <fix>3d</fix>
</trkpt>
<trkpt lat="33.8098629" lon="-118.394964">
  <ele>-25.011</ele>
  <time>2026-09-02T22:08:40Z</time>
  <course>353.84</course>
  <speed>0.9850888284819801</speed>
  <fix>3d</fix>
</trkpt>
<trkpt lat="33.8098631" lon="-118.3949627">
  <ele>-24.41</ele>
  <time>2026-09-02T22:08:40Z</time>
  <course>263.76</course>
  <speed>1.0</speed>
  <fix>3d</fix>
</trkpt>
<trkpt lat="33.8098628" lon="-118.3949651">
  <ele>-25.013</ele>
  <time>2026-09-02T22:08:40Z</time>
  <course>353.96</course>
  <speed>0.9850888284819801</speed>
  <fix>3d</fix>
</trkpt>
<trkpt lat="33.8098631" lon="-118.3949627">
  <ele>-24.41</ele>
  <time>2026-09-02T22:08:40Z</time>
  <course>263.76</course>
  <speed>1.0</speed>
  <fix>3d</fix>
</trkpt>
<trkpt lat="33.8098627" lon="-118.3949662">
  <ele>-25.015</ele>
  <time>2026-09-02T22:08:40Z</time>
  <course>354.07</course>
  <speed>0.9950376877284599</speed>
  <fix>3d</fix>
</trkpt>
<trkpt lat="33.8098629" lon="-118.3949648">
  <ele>-24.41</ele>
  <time>2026-09-02T22:08:40Z</time>
  <course>263.94</course>
  <speed>1.0</speed>
  <fix>3d</fix>
</trkpt>
<trkpt lat="33.8098627" lon="-118.3949672">
  <ele>-25.016</ele>
  <time>2026-09-02T22:08:40Z</time>
  <course>354.19</course>
  <speed>0.9950376877284599</speed>
  <fix>3d</fix>
</trkpt>
<trkpt lat="33.8098629" lon="-118.3949648">
  <ele>-24.41</ele>
  <time>2026-09-02T22:08:40Z</time>
  <course>263.94</course>
  <speed>1.0</speed>
  <fix>3d</fix>
</trkpt>
<trkpt lat="33.8098626" lon="-118.3949683">
  <ele>-25.016</ele>
  <time>2026-09-02T22:08:40Z</time>
  <course>354.3</course>
  <speed>0.9950376877284599</speed>
  <fix>3d</fix>
</trkpt>
<trkpt lat="33.8098626" lon="-118.394967">
  <ele>-24.42</ele>
  <time>2026-09-02T22:08:40Z</time>
  <course>264.08</course>
  <speed>0.99</speed>
  <fix>3d</fix>
</trkpt>
<trkpt lat="33.8098625" lon="-118.3949694">
  <ele>-25.017</ele>
  <time>2026-09-02T22:08:40Z</time>
  <course>354.42</course>
  <speed>0.9940824915468535</speed>
  <fix>3d</fix>
</trkpt>
<trkpt lat="33.8098626" lon="-118.394967">
  <ele>-24.42</ele>
  <time>2026-09-02T22:08:40Z</time>
  <course>264.08</course>
  <speed>0.99</speed>
  <fix>3d</fix>
</trkpt>
<trkpt lat="33.8098624" lon="-118.3949705">
  <ele>-25.018</ele>
  <time>2026-09-02T22:08:40Z</time>
  <course>354.53</course>
  <speed>0.9940824915468535</speed>
  <fix>3d</fix>
</trkpt>
<trkpt lat="33.8098624" lon="-118.3949691">
  <ele>-24.42</ele>
  <time>2026-09-02T22:08:40Z</time>
  <course>264.29</course>
  <speed>0.99</speed>
  <fix>3d</fix>
</trkpt>
<trkpt lat="33.8098623" lon="-118.3949716">
  <ele>-25.019</ele>
  <time>2026-09-02T22:08:40Z</time>
  <course>354.65</course>
  <speed>0.9940824915468535</speed>
  <fix>3d</fix>
</trkpt>
<trkpt lat="33.8098624" lon="-118.3949691">
  <ele>-24.42</ele>
  <time>2026-09-02T22:08:40Z</time>
  <course>264.29</course>
  <speed>0.99</speed>
  <fix>3d</fix>
</trkpt>
<trkpt lat="33.8098622" lon="-118.3949726">
  <ele>-25.019</ele>
  <time>2026-09-02T22:08:40Z</time>
  <course>354.76</course>
  <speed>0.9932270636667125</speed>
  <fix>3d</fix>
</trkpt>
<trkpt lat="33.8098623" lon="-118.3949713">
  <ele>-24.42</ele>
  <time>2026-09-02T22:08:40Z</time>
  <course>264.63</course>
  <speed>0.99</speed>
  <fix>3d</fix>
</trkpt>
<trkpt lat="33.8098621" lon="-118.3949737">
  <ele>-25.018</ele>
  <time>2026-09-02T22:08:40Z</time>
  <course>354.88</course>
  <speed>0.9932270636667125</speed>
  <fix>3d</fix>
</trkpt>
<trkpt lat="33.8098623" lon="-118.3949713">
  <ele>-24.42</ele>
  <time>2026-09-02T22:08:40Z</time>
  <course>264.63</course>
  <speed>0.99</speed>
  <fix>3d</fix>
</trkpt>
<trkpt lat="33.8098621" lon="-118.3949748">
  <ele>-25.016</ele>
  <time>2026-09-02T22:08:40Z</time>
  <course>354.99</course>
  <speed>0.9932270636667125</speed>
  <fix>3d</fix>
</trkpt>
<trkpt lat="33.8098621" lon="-118.3949734">
  <ele>-24.41</ele>
  <time>2026-09-02T22:08:40Z</time>
  <course>264.96</course>
  <speed>0.99</speed>
  <fix>3d</fix>
</trkpt>
<trkpt lat="33.809862" lon="-118.3949759">
  <ele>-25.013</ele>
  <time>2026-09-02T22:08:40Z</time>
  <course>355.11</course>
  <speed>0.9932270636667125</speed>
  <fix>3d</fix>
</trkpt>
<trkpt lat="33.8098621" lon="-118.3949734">
  <ele>-24.41</ele>
  <time>2026-09-02T22:08:40Z</time>
  <course>264.96</course>
  <speed>0.99</speed>
  <fix>3d</fix>
</trkpt>
<trkpt lat="33.8098619" lon="-118.3949769">
  <ele>-25.012</ele>
  <time>2026-09-02T22:08:40Z</time>
  <course>355.22</course>
  <speed>0.9924716620639604</speed>
  <fix>3d</fix>
</trkpt>
<trkpt lat="33.8098619" lon="-118.3949756">
  <ele>-24.41</ele>
  <time>2026-09-02T22:08:40Z</time>
  <course>265.24</course>
  <speed>0.99</speed>
  <fix>3d</fix>
</trkpt>
<trkpt lat="33.8098618" lon="-118.394978">
  <ele>-25.011</ele>
  <time>2026-09-02T22:08:40Z</time>
  <course>355.33</course>
  <speed>0.9924716620639604</speed>
  <fix>3d</fix>
</trkpt>
<trkpt lat="33.8098619" lon="-118.3949756">
  <ele>-24.41</ele>
  <time>2026-09-02T22:08:40Z</time>
  <course>265.24</course>
  <speed>0.99</speed>
  <fix>3d</fix>
</trkpt>
<trkpt lat="33.8098618" lon="-118.3949791">
  <ele>-25.012</ele>
  <time>2026-09-02T22:08:40Z</time>
  <course>355.44</course>
  <speed>0.9924716620639604</speed>
  <fix>3d</fix>
</trkpt>
<trkpt lat="33.8098618" lon="-118.3949777">
  <ele>-24.41</ele>
  <time>2026-09-02T22:08:40Z</time>
  <course>265.53</course>
  <speed>0.99</speed>
  <fix>3d</fix>
</trkpt>
<trkpt lat="33.8098617" lon="-118.3949802">
  <ele>-25.013</ele>
  <time>2026-09-02T22:08:40Z</time>
  <course>355.54</course>
  <speed>0.9924716620639604</speed>
  <fix>3d</fix>
</trkpt>
<trkpt lat="33.8098618" lon="-118.3949777">
  <ele>-24.41</ele>
  <time>2026-09-02T22:08:40Z</time>
  <course>265.53</course>
  <speed>0.99</speed>
  <fix>3d</fix>
</trkpt>
<trkpt lat="33.8098616" lon="-118.3949813">
  <ele>-25.015</ele>
  <time>2026-09-02T22:08:40Z</time>
  <course>355.66</course>
  <speed>0.9918165152889924</speed>
  <fix>3d</fix>
</trkpt>
<trkpt lat="33.8098617" lon="-118.3949799">
  <ele>-24.41</ele>
  <time>2026-09-02T22:08:40Z</time>
  <course>265.83</course>
  <speed>0.99</speed>
  <fix>3d</fix>
</trkpt>
<trkpt lat="33.8098616" lon="-118.3949823">
  <ele>-25.015</ele>
  <time>2026-09-02T22:08:40Z</time>
  <course>355.78</course>
  <speed>0.9918165152889924</speed>
  <fix>3d</fix>
</trkpt>
<trkpt lat="33.8098617" lon="-118.3949799">
  <ele>-24.41</ele>
  <time>2026-09-02T22:08:40Z</time>
  <course>265.83</course>
  <speed>0.99</speed>
  <fix>3d</fix>
</trkpt>
<trkpt lat="33.8098615" lon="-118.3949834">
  <ele>-25.015</ele>
  <time>2026-09-02T22:08:41Z</time>
  <course>355.9</course>
  <speed>0.9918165152889924</speed>
  <fix>3d</fix>
</trkpt>
<trkpt lat="33.8098616" lon="-118.394982">
  <ele>-24.41</ele>
  <time>2026-09-02T22:08:41Z</time>
  <course>266.07</course>
  <speed>0.99</speed>
  <fix>3d</fix>
</trkpt>
<trkpt lat="33.8098615" lon="-118.3949845">
  <ele>-25.014</ele>
  <time>2026-09-02T22:08:41Z</time>
  <course>356.02</course>
  <speed>0.9918165152889924</speed>
  <fix>3d</fix>
</trkpt>
<trkpt lat="33.8098616" lon="-118.394982">
  <ele>-24.41</ele>
  <time>2026-09-02T22:08:41Z</time>
  <course>266.07</course>
  <speed>0.99</speed>
  <fix>3d</fix>
</trkpt>
<trkpt lat="33.8098614" lon="-118.3949856">
  <ele>-25.013</ele>
  <time>2026-09-02T22:08:41Z</time>
  <course>356.14</course>
  <speed>0.9918165152889924</speed>
  <fix>3d</fix>
</trkpt>
<trkpt lat="33.8098614" lon="-118.3949841">
  <ele>-24.41</ele>
  <time>2026-09-02T22:08:41Z</time>
  <course>266.25</course>
  <speed>0.99</speed>
  <fix>3d</fix>
</trkpt>
<trkpt lat="33.8098613" lon="-118.3949866">
  <ele>-25.012</ele>
  <time>2026-09-02T22:08:41Z</time>
  <course>356.25</course>
  <speed>0.9918165152889924</speed>
  <fix>3d</fix>
</trkpt>
<trkpt lat="33.8098614" lon="-118.3949841">
  <ele>-24.41</ele>
  <time>2026-09-02T22:08:41Z</time>
  <course>266.25</course>
  <speed>0.99</speed>
  <fix>3d</fix>
</trkpt>
<trkpt lat="33.8098613" lon="-118.3949877">
  <ele>-25.012</ele>
  <time>2026-09-02T22:08:41Z</time>
  <course>356.37</course>
  <speed>0.9912618221237011</speed>
  <fix>3d</fix>
</trkpt>
<trkpt lat="33.8098613" lon="-118.3949863">
  <ele>-24.41</ele>
  <time>2026-09-02T22:08:41Z</time>
  <course>266.42</course>
  <speed>0.99</speed>
  <fix>3d</fix>
</trkpt>
<trkpt lat="33.8098612" lon="-118.3949888">
  <ele>-25.011</ele>
  <time>2026-09-02T22:08:41Z</time>
  <course>356.48</course>
  <speed>0.9912618221237011</speed>
  <fix>3d</fix>
</trkpt>
<trkpt lat="33.8098613" lon="-118.3949863">
  <ele>-24.41</ele>
  <time>2026-09-02T22:08:41Z</time>
  <course>266.42</course>
  <speed>0.99</speed>
  <fix>3d</fix>
</trkpt>
<trkpt lat="33.8098612" lon="-118.3949899">
  <ele>-25.012</ele>
  <time>2026-09-02T22:08:41Z</time>
  <course>356.6</course>
  <speed>0.9912618221237011</speed>
  <fix>3d</fix>
</trkpt>
<trkpt lat="33.8098612" lon="-118.3949884">
  <ele>-24.41</ele>
  <time>2026-09-02T22:08:41Z</time>
  <course>266.64</course>
  <speed>0.99</speed>
  <fix>3d</fix>
</trkpt>
<trkpt lat="33.8098611" lon="-118.394991">
  <ele>-25.012</ele>
  <time>2026-09-02T22:08:41Z</time>
  <course>356.71</course>
  <speed>0.9912618221237011</speed>
  <fix>3d</fix>
</trkpt>
<trkpt lat="33.8098612" lon="-118.3949884">
  <ele>-24.41</ele>
  <time>2026-09-02T22:08:41Z</time>
  <course>266.64</course>
  <speed>0.99</speed>
  <fix>3d</fix>
</trkpt>
<trkpt lat="33.8098611" lon="-118.394992">
  <ele>-25.013</ele>
  <time>2026-09-02T22:08:41Z</time>
  <course>356.83</course>
  <speed>0.9912618221237011</speed>
  <fix>3d</fix>
</trkpt>
<trkpt lat="33.8098611" lon="-118.3949906">
  <ele>-24.41</ele>
  <time>2026-09-02T22:08:41Z</time>
  <course>266.88</course>
  <speed>0.99</speed>
  <fix>3d</fix>
</trkpt>
<trkpt lat="33.809861" lon="-118.3949931">
  <ele>-25.014</ele>
  <time>2026-09-02T22:08:41Z</time>
  <course>356.94</course>
  <speed>0.9908077512817509</speed>
  <fix>3d</fix>
</trkpt>
<trkpt lat="33.8098611" lon="-118.3949906">
  <ele>-24.41</ele>
  <time>2026-09-02T22:08:41Z</time>
  <course>266.88</course>
  <speed>0.99</speed>
  <fix>3d</fix>
</trkpt>
<trkpt lat="33.809861" lon="-118.3949942">
  <ele>-25.015</ele>
  <time>2026-09-02T22:08:41Z</time>
  <course>357.06</course>
  <speed>1.0007996802557444</speed>
  <fix>3d</fix>
</trkpt>
<trkpt lat="33.809861" lon="-118.3949927">
  <ele>-24.41</ele>
  <time>2026-09-02T22:08:41Z</time>
  <course>267.13</course>
  <speed>0.99</speed>
  <fix>3d</fix>
</trkpt>
<trkpt lat="33.809861" lon="-118.3949953">
  <ele>-25.016</ele>
  <time>2026-09-02T22:08:41Z</time>
  <course>357.17</course>
  <speed>1.0007996802557444</speed>
  <fix>3d</fix>
</trkpt>
<trkpt lat="33.809861" lon="-118.3949927">
  <ele>-24.41</ele>
  <time>2026-09-02T22:08:41Z</time>
  <course>267.13</course>
  <speed>0.99</speed>
  <fix>3d</fix>
</trkpt>
<trkpt lat="33.8098609" lon="-118.3949964">
  <ele>-25.017</ele>
  <time>2026-09-02T22:08:41Z</time>
  <course>357.28</course>
  <speed>1.0007996802557444</speed>
  <fix>3d</fix>
</trkpt>
<trkpt lat="33.8098609" lon="-118.3949949">
  <ele>-24.41</ele>
  <time>2026-09-02T22:08:41Z</time>
  <course>267.36</course>
  <speed>1.0</speed>
  <fix>3d</fix>
</trkpt>
<trkpt lat="33.8098609" lon="-118.3949974">
  <ele>-25.017</ele>
  <time>2026-09-02T22:08:41Z</time>
  <course>357.4</course>
  <speed>1.0007996802557444</speed>
  <fix>3d</fix>
</trkpt>
<trkpt lat="33.8098609" lon="-118.3949949">
  <ele>-24.41</ele>
  <time>2026-09-02T22:08:41Z</time>
  <course>267.36</course>
  <speed>1.0</speed>
  <fix>3d</fix>
</trkpt>
<trkpt lat="33.8098608" lon="-118.3949985">
  <ele>-25.017</ele>
  <time>2026-09-02T22:08:41Z</time>
  <course>357.51</course>
  <speed>1.0004498987955368</speed>
  <fix>3d</fix>
</trkpt>
<trkpt lat="33.8098608" lon="-118.394997">
  <ele>-24.41</ele>
  <time>2026-09-02T22:08:41Z</time>
  <course>267.6</course>
  <speed>1.0</speed>
  <fix>3d</fix>
</trkpt>
<trkpt lat="33.8098608" lon="-118.3949996">
  <ele>-25.016</ele>
  <time>2026-09-02T22:08:41Z</time>
  <course>357.63</course>
  <speed>1.0004498987955368</speed>
  <fix>3d</fix>
</trkpt>
<trkpt lat="33.8098608" lon="-118.394997">
  <ele>-24.41</ele>
  <time>2026-09-02T22:08:41Z</time>
  <course>267.6</course>
  <speed>1.0</speed>
  <fix>3d</fix>
</trkpt>
<trkpt lat="33.8098608" lon="-118.3950007">
  <ele>-25.015</ele>
  <time>2026-09-02T22:08:41Z</time>
  <course>357.74</course>
  <speed>1.0004498987955368</speed>
  <fix>3d</fix>
</trkpt>
<trkpt lat="33.8098608" lon="-118.3949993">
  <ele>-24.41</ele>
  <time>2026-09-02T22:08:41Z</time>
  <course>267.87</course>
  <speed>1.0</speed>
  <fix>3d</fix>
</trkpt>
<trkpt lat="33.8098607" lon="-118.3950018">
  <ele>-25.014</ele>
  <time>2026-09-02T22:08:41Z</time>
  <course>357.86</course>
  <speed>1.0004498987955368</speed>
  <fix>3d</fix>
</trkpt>
<trkpt lat="33.8098608" lon="-118.3949993">
  <ele>-24.41</ele>
  <time>2026-09-02T22:08:41Z</time>
  <course>267.87</course>
  <speed>1.0</speed>
  <fix>3d</fix>
</trkpt>
<trkpt lat="33.8098607" lon="-118.3950028">
  <ele>-25.014</ele>
  <time>2026-09-02T22:08:41Z</time>
  <course>357.97</course>
  <speed>1.0004498987955368</speed>
  <fix>3d</fix>
</trkpt>
<trkpt lat="33.8098607" lon="-118.3950014">
  <ele>-24.41</ele>
  <time>2026-09-02T22:08:41Z</time>
  <course>268.09</course>
  <speed>1.0</speed>
  <fix>3d</fix>
</trkpt>
<trkpt lat="33.8098607" lon="-118.3950039">
  <ele>-25.014</ele>
  <time>2026-09-02T22:08:41Z</time>
  <course>358.09</course>
  <speed>1.000199980003999</speed>
  <fix>3d</fix>
</trkpt>
<trkpt lat="33.8098607" lon="-118.3950014">
  <ele>-24.41</ele>
  <time>2026-09-02T22:08:41Z</time>
  <course>268.09</course>
  <speed>1.0</speed>
  <fix>3d</fix>
</trkpt>
<trkpt lat="33.8098607" lon="-118.395005">
  <ele>-25.014</ele>
  <time>2026-09-02T22:08:41Z</time>
  <course>358.2</course>
  <speed>1.000199980003999</speed>
  <fix>3d</fix>
</trkpt>
<trkpt lat="33.8098607" lon="-118.3950036">
  <ele>-24.41</ele>
  <time>2026-09-02T22:08:41Z</time>
  <course>268.27</course>
  <speed>0.99</speed>
  <fix>3d</fix>
</trkpt>
<trkpt lat="33.8098606" lon="-118.3950061">
  <ele>-25.014</ele>
  <time>2026-09-02T22:08:41Z</time>
  <course>358.31</course>
  <speed>1.000199980003999</speed>
  <fix>3d</fix>
</trkpt>
<trkpt lat="33.8098607" lon="-118.3950036">
  <ele>-24.41</ele>
  <time>2026-09-02T22:08:41Z</time>
  <course>268.27</course>
  <speed>0.99</speed>
  <fix>3d</fix>
</trkpt>
<trkpt lat="33.8098606" lon="-118.3950072">
  <ele>-25.015</ele>
  <time>2026-09-02T22:08:41Z</time>
  <course>358.43</course>
  <speed>1.000199980003999</speed>
  <fix>3d</fix>
</trkpt>
<trkpt lat="33.8098606" lon="-118.3950058">
  <ele>-24.4</ele>
  <time>2026-09-02T22:08:41Z</time>
  <course>268.45</course>
  <speed>0.99</speed>
  <fix>3d</fix>
</trkpt>
<trkpt lat="33.8098606" lon="-118.3950083">
  <ele>-25.014</ele>
  <time>2026-09-02T22:08:41Z</time>
  <course>358.54</course>
  <speed>1.000199980003999</speed>
  <fix>3d</fix>
</trkpt>
<trkpt lat="33.8098606" lon="-118.3950058">
  <ele>-24.4</ele>
  <time>2026-09-02T22:08:41Z</time>
  <course>268.45</course>
  <speed>0.99</speed>
  <fix>3d</fix>
</trkpt>
<trkpt lat="33.8098606" lon="-118.3950093">
  <ele>-25.013</ele>
  <time>2026-09-02T22:08:41Z</time>
  <course>358.66</course>
  <speed>0.9902019995940222</speed>
  <fix>3d</fix>
</trkpt>
<trkpt lat="33.8098606" lon="-118.3950079">
  <ele>-24.4</ele>
  <time>2026-09-02T22:08:41Z</time>
  <course>268.62</course>
  <speed>0.99</speed>
  <fix>3d</fix>
</trkpt>
<trkpt lat="33.8098606" lon="-118.3950104">
  <ele>-25.012</ele>
  <time>2026-09-02T22:08:41Z</time>
  <course>358.77</course>
  <speed>1.0000499987500624</speed>
  <fix>3d</fix>
</trkpt>
<trkpt lat="33.8098606" lon="-118.3950079">
  <ele>-24.4</ele>
  <time>2026-09-02T22:08:41Z</time>
  <course>268.62</course>
  <speed>0.99</speed>
  <fix>3d</fix>
</trkpt>
<trkpt lat="33.8098606" lon="-118.3950115">
  <ele>-25.011</ele>
  <time>2026-09-02T22:08:41Z</time>
  <course>358.89</course>
  <speed>1.0000499987500624</speed>
  <fix>3d</fix>
</trkpt>
<trkpt lat="33.8098606" lon="-118.3950101">
  <ele>-24.4</ele>
  <time>2026-09-02T22:08:41Z</time>
  <course>268.79</course>
  <speed>0.99</speed>
  <fix>3d</fix>
</trkpt>
<trkpt lat="33.8098605" lon="-118.3950126">
  <ele>-25.011</ele>
  <time>2026-09-02T22:08:41Z</time>
  <course>359.0</course>
  <speed>1.0000499987500624</speed>
  <fix>3d</fix>
</trkpt>
<trkpt lat="33.8098606" lon="-118.3950101">
  <ele>-24.4</ele>
  <time>2026-09-02T22:08:41Z</time>
  <course>268.79</course>
  <speed>0.99</speed>
  <fix>3d</fix>
</trkpt>
<trkpt lat="33.8098605" lon="-118.3950137">
  <ele>-25.011</ele>
  <time>2026-09-02T22:08:41Z</time>
  <course>359.12</course>
  <speed>1.0000499987500624</speed>
  <fix>3d</fix>
</trkpt>
<trkpt lat="33.8098605" lon="-118.3950122">
  <ele>-24.4</ele>
  <time>2026-09-02T22:08:41Z</time>
  <course>268.94</course>
  <speed>0.99</speed>
  <fix>3d</fix>
</trkpt>
<trkpt lat="33.8098605" lon="-118.3950148">
  <ele>-25.011</ele>
  <time>2026-09-02T22:08:41Z</time>
  <course>359.23</course>
  <speed>1.0000499987500624</speed>
  <fix>3d</fix>
</trkpt>
<trkpt lat="33.8098605" lon="-118.3950122">
  <ele>-24.4</ele>
  <time>2026-09-02T22:08:41Z</time>
  <course>268.94</course>
  <speed>0.99</speed>
  <fix>3d</fix>
</trkpt>
<trkpt lat="33.8098605" lon="-118.3950158">
  <ele>-25.011</ele>
  <time>2026-09-02T22:08:41Z</time>
  <course>359.34</course>
  <speed>1.0</speed>
  <fix>3d</fix>
</trkpt>
<trkpt lat="33.8098605" lon="-118.3950144">
  <ele>-24.4</ele>
  <time>2026-09-02T22:08:41Z</time>
  <course>269.11</course>
  <speed>0.99</speed>
  <fix>3d</fix>
</trkpt>
<trkpt lat="33.8098605" lon="-118.3950169">
  <ele>-25.01</ele>
  <time>2026-09-02T22:08:41Z</time>
  <course>359.46</course>
  <speed>1.0</speed>
  <fix>3d</fix>
</trkpt>
<trkpt lat="33.8098605" lon="-118.3950144">
  <ele>-24.4</ele>
  <time>2026-09-02T22:08:41Z</time>
  <course>269.11</course>
  <speed>0.99</speed>
  <fix>3d</fix>
</trkpt>
<trkpt lat="33.8098605" lon="-118.395018">
  <ele>-25.01</ele>
  <time>2026-09-02T22:08:41Z</time>
  <course>359.57</course>
  <speed>1.0</speed>
  <fix>3d</fix>
</trkpt>
<trkpt lat="33.8098605" lon="-118.3950165">
  <ele>-24.4</ele>
  <time>2026-09-02T22:08:41Z</time>
  <course>269.33</course>
  <speed>0.99</speed>
  <fix>3d</fix>
</trkpt>
<trkpt lat="33.8098605" lon="-118.3950191">
  <ele>-25.011</ele>
  <time>2026-09-02T22:08:41Z</time>
  <course>359.69</course>
  <speed>1.0</speed>
  <fix>3d</fix>
</trkpt>
<trkpt lat="33.8098605" lon="-118.3950165">
  <ele>-24.4</ele>
  <time>2026-09-02T22:08:41Z</time>
  <course>269.33</course>
  <speed>0.99</speed>
  <fix>3d</fix>
</trkpt>
<trkpt lat="33.8098605" lon="-118.3950202">
  <ele>-25.011</ele>
  <time>2026-09-02T22:08:41Z</time>
  <course>359.8</course>
  <speed>1.0</speed>
  <fix>3d</fix>
</trkpt>
<trkpt lat="33.8098605" lon="-118.3950187">
  <ele>-24.4</ele>
  <time>2026-09-02T22:08:41Z</time>
  <course>269.56</course>
  <speed>0.99</speed>
  <fix>3d</fix>
</trkpt>
<trkpt lat="33.8098605" lon="-118.3950212">
  <ele>-25.011</ele>
  <time>2026-09-02T22:08:41Z</time>
  <course>359.92</course>
  <speed>1.0</speed>
  <fix>3d</fix>
</trkpt>
<trkpt lat="33.8098605" lon="-118.3950187">
  <ele>-24.4</ele>
  <time>2026-09-02T22:08:41Z</time>
  <course>269.56</course>
  <speed>0.99</speed>
  <fix>3d</fix>
</trkpt>
<trkpt lat="33.8098605" lon="-118.3950223">
  <ele>-25.011</ele>
  <time>2026-09-02T22:08:41Z</time>
  <course>0.02</course>
  <speed>1.0</speed>
  <fix>3d</fix>
</trkpt>
<trkpt lat="33.8098605" lon="-118.3950208">
  <ele>-24.41</ele>
  <time>2026-09-02T22:08:41Z</time>
  <course>269.76</course>
  <speed>0.99</speed>
  <fix>3d</fix>
</trkpt>
<trkpt lat="33.8098605" lon="-118.3950234">
  <ele>-25.012</ele>
  <time>2026-09-02T22:08:41Z</time>
  <course>0.14</course>
  <speed>1.0</speed>
  <fix>3d</fix>
</trkpt>
<trkpt lat="33.8098605" lon="-118.3950208">
  <ele>-24.41</ele>
  <time>2026-09-02T22:08:41Z</time>
  <course>269.76</course>
  <speed>0.99</speed>
  <fix>3d</fix>
</trkpt>
<trkpt lat="33.8098605" lon="-118.3950245">
  <ele>-25.014</ele>
  <time>2026-09-02T22:08:41Z</time>
  <course>0.25</course>
  <speed>1.0</speed>
  <fix>3d</fix>
</trkpt>
<trkpt lat="33.8098605" lon="-118.395023">
  <ele>-24.41</ele>
  <time>2026-09-02T22:08:41Z</time>
  <course>269.96</course>
  <speed>0.99</speed>
  <fix>3d</fix>
</trkpt>
<trkpt lat="33.8098605" lon="-118.3950256">
  <ele>-25.016</ele>
  <time>2026-09-02T22:08:41Z</time>
  <course>0.37</course>
  <speed>1.0</speed>
  <fix>3d</fix>
</trkpt>
<trkpt lat="33.8098605" lon="-118.395023">
  <ele>-24.41</ele>
  <time>2026-09-02T22:08:41Z</time>
  <course>269.96</course>
  <speed>0.99</speed>
  <fix>3d</fix>
</trkpt>
<trkpt lat="33.8098605" lon="-118.3950266">
  <ele>-25.017</ele>
  <time>2026-09-02T22:08:41Z</time>
  <course>0.48</course>
  <speed>1.0000499987500624</speed>
  <fix>3d</fix>
</trkpt>
<trkpt lat="33.8098605" lon="-118.3950251">
  <ele>-24.41</ele>
  <time>2026-09-02T22:08:41Z</time>
  <course>270.16</course>
  <speed>0.99</speed>
  <fix>3d</fix>
</trkpt>
<trkpt lat="33.8098605" lon="-118.3950277">
  <ele>-25.017</ele>
  <time>2026-09-02T22:08:41Z</time>
  <course>0.59</course>
  <speed>1.0000499987500624</speed>
  <fix>3d</fix>
</trkpt>
<trkpt lat="33.8098605" lon="-118.3950251">
  <ele>-24.41</ele>
  <time>2026-09-02T22:08:41Z</time>
  <course>270.16</course>
  <speed>0.99</speed>
  <fix>3d</fix>
</trkpt>
<trkpt lat="33.8098605" lon="-118.3950288">
  <ele>-25.014</ele>
  <time>2026-09-02T22:08:41Z</time>
  <course>0.71</course>
  <speed>1.0000499987500624</speed>
  <fix>3d</fix>
</trkpt>
<trkpt lat="33.8098605" lon="-118.3950273">
  <ele>-24.41</ele>
  <time>2026-09-02T22:08:41Z</time>
  <course>270.36</course>
  <speed>0.99</speed>
  <fix>3d</fix>
</trkpt>
<trkpt lat="33.8098605" lon="-118.3950299">
  <ele>-25.012</ele>
  <time>2026-09-02T22:08:41Z</time>
  <course>0.82</course>
  <speed>1.0000499987500624</speed>
  <fix>3d</fix>
</trkpt>
<trkpt lat="33.8098605" lon="-118.3950273">
  <ele>-24.41</ele>
  <time>2026-09-02T22:08:41Z</time>
  <course>270.36</course>
  <speed>0.99</speed>
  <fix>3d</fix>
</trkpt>
<trkpt lat="33.8098605" lon="-118.395031">
  <ele>-25.01</ele>
  <time>2026-09-02T22:08:41Z</time>
  <course>0.94</course>
  <speed>1.0000499987500624</speed>
  <fix>3d</fix>
</trkpt>
<trkpt lat="33.8098605" lon="-118.3950294">
  <ele>-24.41</ele>
  <time>2026-09-02T22:08:41Z</time>
  <course>270.58</course>
  <speed>0.99</speed>
  <fix>3d</fix>
</trkpt>
<trkpt lat="33.8098605" lon="-118.395032">
  <ele>-25.011</ele>
  <time>2026-09-02T22:08:41Z</time>
  <course>1.05</course>
  <speed>1.000199980003999</speed>
  <fix>3d</fix>
</trkpt>
<trkpt lat="33.8098605" lon="-118.3950294">
  <ele>-24.41</ele>
  <time>2026-09-02T22:08:41Z</time>
  <course>270.58</course>
  <speed>0.99</speed>
  <fix>3d</fix>
</trkpt>
<trkpt lat="33.8098605" lon="-118.3950331">
  <ele>-25.011</ele>
  <time>2026-09-02T22:08:41Z</time>
  <course>1.17</course>
  <speed>1.000199980003999</speed>
  <fix>3d</fix>
</trkpt>
<trkpt lat="33.8098605" lon="-118.3950316">
  <ele>-24.41</ele>
  <time>2026-09-02T22:08:41Z</time>
  <course>270.83</course>
  <speed>0.99</speed>
  <fix>3d</fix>
</trkpt>
<trkpt lat="33.8098605" lon="-118.3950342">
  <ele>-25.012</ele>
  <time>2026-09-02T22:08:41Z</time>
  <course>1.28</course>
  <speed>1.000199980003999</speed>
  <fix>3d</fix>
</trkpt>
<trkpt lat="33.8098605" lon="-118.3950316">
  <ele>-24.41</ele>
  <time>2026-09-02T22:08:41Z</time>
  <course>270.83</course>
  <speed>0.99</speed>
  <fix>3d</fix>
</trkpt>
<trkpt lat="33.8098606" lon="-118.3950353">
  <ele>-25.012</ele>
  <time>2026-09-02T22:08:41Z</time>
  <course>1.4</course>
  <speed>1.0004498987955368</speed>
  <fix>3d</fix>
</trkpt>
<trkpt lat="33.8098605" lon="-118.3950338">
  <ele>-24.41</ele>
  <time>2026-09-02T22:08:41Z</time>
  <course>271.11</course>
  <speed>0.99</speed>
  <fix>3d</fix>
</trkpt>
<trkpt lat="33.8098606" lon="-118.3950364">
  <ele>-25.013</ele>
  <time>2026-09-02T22:08:41Z</time>
  <course>1.51</course>
  <speed>1.0004498987955368</speed>
  <fix>3d</fix>
</trkpt>
<trkpt lat="33.8098605" lon="-118.3950338">
  <ele>-24.41</ele>
  <time>2026-09-02T22:08:41Z</time>
  <course>271.11</course>
  <speed>0.99</speed>
  <fix>3d</fix>
</trkpt>
<trkpt lat="33.8098606" lon="-118.3950374">
  <ele>-25.013</ele>
  <time>2026-09-02T22:08:41Z</time>
  <course>1.62</course>
  <speed>1.0004498987955368</speed>
  <fix>3d</fix>
</trkpt>
<trkpt lat="33.8098605" lon="-118.3950359">
  <ele>-24.41</ele>
  <time>2026-09-02T22:08:41Z</time>
  <course>271.42</course>
  <speed>0.99</speed>
  <fix>3d</fix>
</trkpt>
<trkpt lat="33.8098606" lon="-118.3950385">
  <ele>-25.012</ele>
  <time>2026-09-02T22:08:41Z</time>
  <course>1.74</course>
  <speed>1.0007996802557444</speed>
  <fix>3d</fix>
</trkpt>
<trkpt lat="33.8098605" lon="-118.3950359">
  <ele>-24.41</ele>
  <time>2026-09-02T22:08:41Z</time>
  <course>271.42</course>
  <speed>0.99</speed>
  <fix>3d</fix>
</trkpt>
<trkpt lat="33.8098607" lon="-118.3950396">
  <ele>-25.011</ele>
  <time>2026-09-02T22:08:41Z</time>
  <course>1.85</course>
  <speed>1.0007996802557444</speed>
  <fix>3d</fix>
</trkpt>
<trkpt lat="33.8098605" lon="-118.3950381">
  <ele>-24.41</ele>
  <time>2026-09-02T22:08:41Z</time>
  <course>271.79</course>
  <speed>0.99</speed>
  <fix>3d</fix>
</trkpt>
<trkpt lat="33.8098607" lon="-118.3950407">
  <ele>-25.011</ele>
  <time>2026-09-02T22:08:41Z</time>
  <course>1.97</course>
  <speed>1.0007996802557444</speed>
  <fix>3d</fix>
</trkpt>
<trkpt lat="33.8098605" lon="-118.3950381">
  <ele>-24.41</ele>
  <time>2026-09-02T22:08:41Z</time>
  <course>271.79</course>
  <speed>0.99</speed>
  <fix>3d</fix>
</trkpt>
<trkpt lat="33.8098607" lon="-118.3950418">
  <ele>-25.011</ele>
  <time>2026-09-02T22:08:41Z</time>
  <course>2.09</course>
  <speed>1.0012492197250393</speed>
  <fix>3d</fix>
</trkpt>
<trkpt lat="33.8098605" lon="-118.3950402">
  <ele>-24.41</ele>
  <time>2026-09-02T22:08:41Z</time>
  <course>272.2</course>
  <speed>0.99</speed>
  <fix>3d</fix>
</trkpt>
<trkpt lat="33.8098608" lon="-118.3950429">
  <ele>-25.011</ele>
  <time>2026-09-02T22:08:41Z</time>
  <course>2.2</course>
  <speed>1.0012492197250393</speed>
  <fix>3d</fix>
</trkpt>
<trkpt lat="33.8098605" lon="-118.3950402">
  <ele>-24.41</ele>
  <time>2026-09-02T22:08:41Z</time>
  <course>272.2</course>
  <speed>0.99</speed>
  <fix>3d</fix>
</trkpt>
<trkpt lat="33.8098608" lon="-118.3950439">
  <ele>-25.012</ele>
  <time>2026-09-02T22:08:41Z</time>
  <course>2.31</course>
  <speed>1.0012492197250393</speed>
  <fix>3d</fix>
</trkpt>
<trkpt lat="33.8098606" lon="-118.3950424">
  <ele>-24.41</ele>
  <time>2026-09-02T22:08:41Z</time>
  <course>272.65</course>
  <speed>0.99</speed>
  <fix>3d</fix>
</trkpt>
<trkpt lat="33.8098608" lon="-118.395045">
  <ele>-25.014</ele>
  <time>2026-09-02T22:08:41Z</time>
  <course>2.43</course>
  <speed>1.0017983829094554</speed>
  <fix>3d</fix>
</trkpt>
<trkpt lat="33.8098606" lon="-118.3950424">
  <ele>-24.41</ele>
  <time>2026-09-02T22:08:41Z</time>
  <course>272.65</course>
  <speed>0.99</speed>
  <fix>3d</fix>
</trkpt>
<trkpt lat="33.8098609" lon="-118.3950461">
  <ele>-25.015</ele>
  <time>2026-09-02T22:08:41Z</time>
  <course>2.54</course>
  <speed>1.0017983829094554</speed>
  <fix>3d</fix>
</trkpt>
<trkpt lat="33.8098607" lon="-118.3950445">
  <ele>-24.41</ele>
  <time>2026-09-02T22:08:41Z</time>
  <course>273.08</course>
  <speed>0.99</speed>
  <fix>3d</fix>
</trkpt>
<trkpt lat="33.8098609" lon="-118.3950472">
  <ele>-25.016</ele>
  <time>2026-09-02T22:08:41Z</time>
  <course>2.66</course>
  <speed>1.0017983829094554</speed>
  <fix>3d</fix>
</trkpt>
<trkpt lat="33.8098607" lon="-118.3950445">
  <ele>-24.41</ele>
  <time>2026-09-02T22:08:41Z</time>
  <course>273.08</course>
  <speed>0.99</speed>
  <fix>3d</fix>
</trkpt>
<trkpt lat="33.809861" lon="-118.3950482">
  <ele>-25.018</ele>
  <time>2026-09-02T22:08:41Z</time>
  <course>2.78</course>
  <speed>1.0017983829094554</speed>
  <fix>3d</fix>
</trkpt>
<trkpt lat="33.8098608" lon="-118.3950467">
  <ele>-24.42</ele>
  <time>2026-09-02T22:08:41Z</time>
  <course>273.42</course>
  <speed>0.99</speed>
  <fix>3d</fix>
</trkpt>
<trkpt lat="33.809861" lon="-118.3950493">
  <ele>-25.018</ele>
  <time>2026-09-02T22:08:41Z</time>
  <course>2.89</course>
  <speed>1.0017983829094554</speed>
  <fix>3d</fix>
</trkpt>
<trkpt lat="33.8098608" lon="-118.3950467">
  <ele>-24.42</ele>
  <time>2026-09-02T22:08:41Z</time>
  <course>273.42</course>
  <speed>0.99</speed>
  <fix>3d</fix>
</trkpt>
<trkpt lat="33.8098611" lon="-118.3950504">
  <ele>-25.018</ele>
  <time>2026-09-02T22:08:41Z</time>
  <course>3.0</course>
  <speed>1.0024470060806208</speed>
  <fix>3d</fix>
</trkpt>
<trkpt lat="33.8098609" lon="-118.3950488">
  <ele>-24.41</ele>
  <time>2026-09-02T22:08:41Z</time>
  <course>273.69</course>
  <speed>0.99</speed>
  <fix>3d</fix>
</trkpt>
<trkpt lat="33.8098611" lon="-118.3950515">
  <ele>-25.017</ele>
  <time>2026-09-02T22:08:41Z</time>
  <course>3.12</course>
  <speed>1.0024470060806208</speed>
  <fix>3d</fix>
</trkpt>
<trkpt lat="33.8098609" lon="-118.3950488">
  <ele>-24.41</ele>
  <time>2026-09-02T22:08:41Z</time>
  <course>273.69</course>
  <speed>0.99</speed>
  <fix>3d</fix>
</trkpt>
<trkpt lat="33.8098612" lon="-118.3950526">
  <ele>-25.016</ele>
  <time>2026-09-02T22:08:41Z</time>
  <course>3.23</course>
  <speed>1.0024470060806208</speed>
  <fix>3d</fix>
</trkpt>
<trkpt lat="33.809861" lon="-118.395051">
  <ele>-24.41</ele>
  <time>2026-09-02T22:08:41Z</time>
  <course>273.93</course>
  <speed>0.99</speed>
  <fix>3d</fix>
</trkpt>
<trkpt lat="33.8098612" lon="-118.3950536">
  <ele>-25.014</ele>
  <time>2026-09-02T22:08:41Z</time>
  <course>3.35</course>
  <speed>1.0024470060806208</speed>
  <fix>3d</fix>
</trkpt>
<trkpt lat="33.809861" lon="-118.395051">
  <ele>-24.41</ele>
  <time>2026-09-02T22:08:41Z</time>
  <course>273.93</course>
  <speed>0.99</speed>
  <fix>3d</fix>
</trkpt>
<trkpt lat="33.8098613" lon="-118.3950547">
  <ele>-25.014</ele>
  <time>2026-09-02T22:08:41Z</time>
  <course>3.46</course>
  <speed>1.0024470060806208</speed>
  <fix>3d</fix>
</trkpt>
<trkpt lat="33.8098612" lon="-118.3950532">
  <ele>-24.41</ele>
  <time>2026-09-02T22:08:41Z</time>
  <course>274.13</course>
  <speed>0.99</speed>
  <fix>3d</fix>
</trkpt>
<trkpt lat="33.8098613" lon="-118.3950558">
  <ele>-25.014</ele>
  <time>2026-09-02T22:08:41Z</time>
  <course>3.58</course>
  <speed>1.0024470060806208</speed>
  <fix>3d</fix>
</trkpt>
<trkpt lat="33.8098612" lon="-118.3950532">
  <ele>-24.41</ele>
  <time>2026-09-02T22:08:41Z</time>
  <course>274.13</course>
  <speed>0.99</speed>
  <fix>3d</fix>
</trkpt>
<trkpt lat="33.8098614" lon="-118.3950569">
  <ele>-25.015</ele>
  <time>2026-09-02T22:08:41Z</time>
  <course>3.69</course>
  <speed>1.0024470060806208</speed>
  <fix>3d</fix>
</trkpt>
<trkpt lat="33.8098613" lon="-118.3950553">
  <ele>-24.41</ele>
  <time>2026-09-02T22:08:41Z</time>
  <course>274.3</course>
  <speed>0.99</speed>
  <fix>3d</fix>
</trkpt>
<trkpt lat="33.8098615" lon="-118.395058">
  <ele>-25.016</ele>
  <time>2026-09-02T22:08:41Z</time>
  <course>3.81</course>
  <speed>1.0031948963187562</speed>
  <fix>3d</fix>
</trkpt>
<trkpt lat="33.8098613" lon="-118.3950553">
  <ele>-24.41</ele>
  <time>2026-09-02T22:08:41Z</time>
  <course>274.3</course>
  <speed>0.99</speed>
  <fix>3d</fix>
</trkpt>
<trkpt lat="33.8098615" lon="-118.395059">
  <ele>-25.016</ele>
  <time>2026-09-02T22:08:41Z</time>
  <course>3.92</course>
  <speed>1.0031948963187562</speed>
  <fix>3d</fix>
</trkpt>
<trkpt lat="33.8098614" lon="-118.3950575">
  <ele>-24.41</ele>
  <time>2026-09-02T22:08:41Z</time>
  <course>274.43</course>
  <speed>0.99</speed>
  <fix>3d</fix>
</trkpt>
<trkpt lat="33.8098616" lon="-118.3950601">
  <ele>-25.015</ele>
  <time>2026-09-02T22:08:41Z</time>
  <course>4.04</course>
  <speed>1.0031948963187562</speed>
  <fix>3d</fix>
</trkpt>
<trkpt lat="33.8098614" lon="-118.3950575">
  <ele>-24.41</ele>
  <time>2026-09-02T22:08:41Z</time>
  <course>274.43</course>
  <speed>0.99</speed>
  <fix>3d</fix>
</trkpt>
<trkpt lat="33.8098617" lon="-118.3950612">
  <ele>-25.014</ele>
  <time>2026-09-02T22:08:41Z</time>
  <course>4.15</course>
  <speed>1.0031948963187562</speed>
  <fix>3d</fix>
</trkpt>
<trkpt lat="33.8098616" lon="-118.3950596">
  <ele>-24.4</ele>
  <time>2026-09-02T22:08:41Z</time>
  <course>274.58</course>
  <speed>0.99</speed>
  <fix>3d</fix>
</trkpt>
<trkpt lat="33.8098617" lon="-118.3950623">
  <ele>-25.012</ele>
  <time>2026-09-02T22:08:41Z</time>
  <course>4.26</course>
  <speed>1.0031948963187562</speed>
  <fix>3d</fix>
</trkpt>
<trkpt lat="33.8098616" lon="-118.3950596">
  <ele>-24.4</ele>
  <time>2026-09-02T22:08:41Z</time>
  <course>274.58</course>
  <speed>0.99</speed>
  <fix>3d</fix>
</trkpt>
<trkpt lat="33.8098618" lon="-118.3950634">
  <ele>-25.012</ele>
  <time>2026-09-02T22:08:41Z</time>
  <course>4.38</course>
  <speed>1.0031948963187562</speed>
  <fix>3d</fix>
</trkpt>
<trkpt lat="33.8098617" lon="-118.3950618">
  <ele>-24.4</ele>
  <time>2026-09-02T22:08:41Z</time>
  <course>274.72</course>
  <speed>0.99</speed>
  <fix>3d</fix>
</trkpt>
<trkpt lat="33.8098619" lon="-118.3950644">
  <ele>-25.011</ele>
  <time>2026-09-02T22:08:41Z</time>
  <course>4.49</course>
  <speed>1.0031948963187562</speed>
  <fix>3d</fix>
</trkpt>
<trkpt lat="33.8098617" lon="-118.3950618">
  <ele>-24.4</ele>
  <time>2026-09-02T22:08:41Z</time>
  <course>274.72</course>
  <speed>0.99</speed>
  <fix>3d</fix>
</trkpt>
<trkpt lat="33.809862" lon="-118.3950655">
  <ele>-25.01</ele>
  <time>2026-09-02T22:08:41Z</time>
  <course>4.61</course>
  <speed>1.004041831797859</speed>
  <fix>3d</fix>
</trkpt>
<trkpt lat="33.8098619" lon="-118.3950639">
  <ele>-24.4</ele>
  <time>2026-09-02T22:08:41Z</time>
  <course>274.86</course>
  <speed>0.99</speed>
  <fix>3d</fix>
</trkpt>
<trkpt lat="33.809862" lon="-118.3950666">
  <ele>-25.009</ele>
  <time>2026-09-02T22:08:41Z</time>
  <course>4.72</course>
  <speed>1.004041831797859</speed>
  <fix>3d</fix>
</trkpt>
<trkpt lat="33.8098619" lon="-118.3950639">
  <ele>-24.4</ele>
  <time>2026-09-02T22:08:41Z</time>
  <course>274.86</course>
  <speed>0.99</speed>
  <fix>3d</fix>
</trkpt>
<trkpt lat="33.8098621" lon="-118.3950677">
  <ele>-25.009</ele>
  <time>2026-09-02T22:08:41Z</time>
  <course>4.84</course>
  <speed>1.004041831797859</speed>
  <fix>3d</fix>
</trkpt>
<trkpt lat="33.809862" lon="-118.3950661">
  <ele>-24.4</ele>
  <time>2026-09-02T22:08:41Z</time>
  <course>275.0</course>
  <speed>0.99</speed>
  <fix>3d</fix>
</trkpt>
<trkpt lat="33.8098622" lon="-118.3950687">
  <ele>-25.01</ele>
  <time>2026-09-02T22:08:41Z</time>
  <course>4.95</course>
  <speed>1.004041831797859</speed>
  <fix>3d</fix>
</trkpt>
<trkpt lat="33.809862" lon="-118.3950661">
  <ele>-24.4</ele>
  <time>2026-09-02T22:08:41Z</time>
  <course>275.0</course>
  <speed>0.99</speed>
  <fix>3d</fix>
</trkpt>
<trkpt lat="33.8098623" lon="-118.3950698">
  <ele>-25.011</ele>
  <time>2026-09-02T22:08:41Z</time>
  <course>5.07</course>
  <speed>1.004041831797859</speed>
  <fix>3d</fix>
</trkpt>
<trkpt lat="33.8098622" lon="-118.3950682">
  <ele>-24.4</ele>
  <time>2026-09-02T22:08:41Z</time>
  <course>275.17</course>
  <speed>0.99</speed>
  <fix>3d</fix>
</trkpt>
<trkpt lat="33.8098624" lon="-118.3950709">
  <ele>-25.012</ele>
  <time>2026-09-02T22:08:41Z</time>
  <course>5.18</course>
  <speed>1.004041831797859</speed>
  <fix>3d</fix>
</trkpt>
<trkpt lat="33.8098622" lon="-118.3950682">
  <ele>-24.4</ele>
  <time>2026-09-02T22:08:41Z</time>
  <course>275.17</course>
  <speed>0.99</speed>
  <fix>3d</fix>
</trkpt>
<trkpt lat="33.8098625" lon="-118.395072">
  <ele>-25.013</ele>
  <time>2026-09-02T22:08:41Z</time>
  <course>5.3</course>
  <speed>1.004987562112089</speed>
  <fix>3d</fix>
</trkpt>
<trkpt lat="33.8098624" lon="-118.3950704">
  <ele>-24.4</ele>
  <time>2026-09-02T22:08:41Z</time>
  <course>275.36</course>
  <speed>0.99</speed>
  <fix>3d</fix>
</trkpt>
<trkpt lat="33.8098626" lon="-118.395073">
  <ele>-25.013</ele>
  <time>2026-09-02T22:08:41Z</time>
  <course>5.41</course>
  <speed>1.004987562112089</speed>
  <fix>3d</fix>
</trkpt>
<trkpt lat="33.8098624" lon="-118.3950704">
  <ele>-24.4</ele>
  <time>2026-09-02T22:08:41Z</time>
  <course>275.36</course>
  <speed>0.99</speed>
  <fix>3d</fix>
</trkpt>
<trkpt lat="33.8098626" lon="-118.3950741">
  <ele>-25.013</ele>
  <time>2026-09-02T22:08:41Z</time>
  <course>5.53</course>
  <speed>1.004987562112089</speed>
  <fix>3d</fix>
</trkpt>
<trkpt lat="33.8098626" lon="-118.3950725">
  <ele>-24.41</ele>
  <time>2026-09-02T22:08:41Z</time>
  <course>275.51</course>
  <speed>0.99</speed>
  <fix>3d</fix>
</trkpt>
<trkpt lat="33.8098627" lon="-118.3950752">
  <ele>-25.014</ele>
  <time>2026-09-02T22:08:41Z</time>
  <course>5.64</course>
  <speed>1.004987562112089</speed>
  <fix>3d</fix>
</trkpt>
<trkpt lat="33.8098626" lon="-118.3950725">
  <ele>-24.41</ele>
  <time>2026-09-02T22:08:41Z</time>
  <course>275.51</course>
  <speed>0.99</speed>
  <fix>3d</fix>
</trkpt>
<trkpt lat="33.8098628" lon="-118.3950763">
  <ele>-25.016</ele>
  <time>2026-09-02T22:08:41Z</time>
  <course>5.75</course>
  <speed>1.004987562112089</speed>
  <fix>3d</fix>
</trkpt>
<trkpt lat="33.8098627" lon="-118.3950747">
  <ele>-24.41</ele>
  <time>2026-09-02T22:08:41Z</time>
  <course>275.63</course>
  <speed>0.99</speed>
  <fix>3d</fix>
</trkpt>
<trkpt lat="33.8098629" lon="-118.3950774">
  <ele>-25.017</ele>
  <time>2026-09-02T22:08:41Z</time>
  <course>5.87</course>
  <speed>1.004987562112089</speed>
  <fix>3d</fix>
</trkpt>
<trkpt lat="33.8098627" lon="-118.3950747">
  <ele>-24.41</ele>
  <time>2026-09-02T22:08:41Z</time>
  <course>275.63</course>
  <speed>0.99</speed>
  <fix>3d</fix>
</trkpt>
<trkpt lat="33.809863" lon="-118.3950784">
  <ele>-25.017</ele>
  <time>2026-09-02T22:08:41Z</time>
  <course>5.98</course>
  <speed>1.0060318086422517</speed>
  <fix>3d</fix>
</trkpt>
<trkpt lat="33.8098629" lon="-118.3950768">
  <ele>-24.41</ele>
  <time>2026-09-02T22:08:41Z</time>
  <course>275.79</course>
  <speed>1.0</speed>
  <fix>3d</fix>
</trkpt>
<trkpt lat="33.8098631" lon="-118.3950795">
  <ele>-25.016</ele>
  <time>2026-09-02T22:08:41Z</time>
  <course>6.1</course>
  <speed>1.0060318086422517</speed>
  <fix>3d</fix>
</trkpt>
<trkpt lat="33.8098629" lon="-118.3950768">
  <ele>-24.41</ele>
  <time>2026-09-02T22:08:41Z</time>
  <course>275.79</course>
  <speed>1.0</speed>
  <fix>3d</fix>
</trkpt>
<trkpt lat="33.8098632" lon="-118.3950806">
  <ele>-25.015</ele>
  <time>2026-09-02T22:08:41Z</time>
  <course>6.21</course>
  <speed>1.0060318086422517</speed>
  <fix>3d</fix>
</trkpt>
<trkpt lat="33.8098631" lon="-118.395079">
  <ele>-24.41</ele>
  <time>2026-09-02T22:08:41Z</time>
  <course>276.01</course>
  <speed>1.0</speed>
  <fix>3d</fix>
</trkpt>
<trkpt lat="33.8098633" lon="-118.3950816">
  <ele>-25.015</ele>
  <time>2026-09-02T22:08:41Z</time>
  <course>6.33</course>
  <speed>1.0060318086422517</speed>
  <fix>3d</fix>
</trkpt>
<trkpt lat="33.8098631" lon="-118.395079">
  <ele>-24.41</ele>
  <time>2026-09-02T22:08:41Z</time>
  <course>276.01</course>
  <speed>1.0</speed>
  <fix>3d</fix>
</trkpt>
<trkpt lat="33.8098634" lon="-118.3950827">
  <ele>-25.014</ele>
  <time>2026-09-02T22:08:41Z</time>
  <course>6.44</course>
  <speed>1.0071742649611337</speed>
  <fix>3d</fix>
</trkpt>
<trkpt lat="33.8098632" lon="-118.3950811">
  <ele>-24.4</ele>
  <time>2026-09-02T22:08:41Z</time>
  <course>276.24</course>
  <speed>1.0</speed>
  <fix>3d</fix>
</trkpt>
<trkpt lat="33.8098635" lon="-118.3950838">
  <ele>-25.013</ele>
  <time>2026-09-02T22:08:41Z</time>
  <course>6.55</course>
  <speed>1.0071742649611337</speed>
  <fix>3d</fix>
</trkpt>
<trkpt lat="33.8098632" lon="-118.3950811">
  <ele>-24.4</ele>
  <time>2026-09-02T22:08:41Z</time>
  <course>276.24</course>
  <speed>1.0</speed>
  <fix>3d</fix>
</trkpt>
<trkpt lat="33.8098636" lon="-118.3950848">
  <ele>-25.013</ele>
  <time>2026-09-02T22:08:41Z</time>
  <course>6.67</course>
  <speed>1.0071742649611337</speed>
  <fix>3d</fix>
</trkpt>
<trkpt lat="33.8098635" lon="-118.3950832">
  <ele>-24.4</ele>
  <time>2026-09-02T22:08:41Z</time>
  <course>276.51</course>
  <speed>1.0</speed>
  <fix>3d</fix>
</trkpt>
<trkpt lat="33.8098637" lon="-118.3950859">
  <ele>-25.013</ele>
  <time>2026-09-02T22:08:41Z</time>
  <course>6.78</course>
  <speed>1.0071742649611337</speed>
  <fix>3d</fix>
</trkpt>
<trkpt lat="33.8098635" lon="-118.3950832">
  <ele>-24.4</ele>
  <time>2026-09-02T22:08:41Z</time>
  <course>276.51</course>
  <speed>1.0</speed>
  <fix>3d</fix>
</trkpt>
<trkpt lat="33.8098638" lon="-118.395087">
  <ele>-25.013</ele>
  <time>2026-09-02T22:08:41Z</time>
  <course>6.9</course>
  <speed>1.0084145972763385</speed>
  <fix>3d</fix>
</trkpt>
<trkpt lat="33.8098636" lon="-118.3950855">
  <ele>-24.4</ele>
  <time>2026-09-02T22:08:41Z</time>
  <course>276.79</course>
  <speed>1.0</speed>
  <fix>3d</fix>
</trkpt>
<trkpt lat="33.8098639" lon="-118.3950881">
  <ele>-25.012</ele>
  <time>2026-09-02T22:08:41Z</time>
  <course>7.01</course>
  <speed>1.0084145972763385</speed>
  <fix>3d</fix>
</trkpt>
<trkpt lat="33.8098636" lon="-118.3950855">
  <ele>-24.4</ele>
  <time>2026-09-02T22:08:41Z</time>
  <course>276.79</course>
  <speed>1.0</speed>
  <fix>3d</fix>
</trkpt>
<trkpt lat="33.8098641" lon="-118.3950891">
  <ele>-25.01</ele>
  <time>2026-09-02T22:08:41Z</time>
  <course>7.13</course>
  <speed>1.0084145972763385</speed>
  <fix>3d</fix>
</trkpt>
<trkpt lat="33.8098638" lon="-118.3950876">
  <ele>-24.4</ele>
  <time>2026-09-02T22:08:41Z</time>
  <course>277.05</course>
  <speed>1.0</speed>
  <fix>3d</fix>
</trkpt>
<trkpt lat="33.8098642" lon="-118.3950902">
  <ele>-25.008</ele>
  <time>2026-09-02T22:08:41Z</time>
  <course>7.24</course>
  <speed>1.009752444909147</speed>
  <fix>3d</fix>
</trkpt>
<trkpt lat="33.8098638" lon="-118.3950876">
  <ele>-24.4</ele>
  <time>2026-09-02T22:08:41Z</time>
  <course>277.05</course>
  <speed>1.0</speed>
  <fix>3d</fix>
</trkpt>
<trkpt lat="33.8098643" lon="-118.3950913">
  <ele>-25.007</ele>
  <time>2026-09-02T22:08:41Z</time>
  <course>7.35</course>
  <speed>1.009752444909147</speed>
  <fix>3d</fix>
</trkpt>
<trkpt lat="33.8098641" lon="-118.3950898">
  <ele>-24.4</ele>
  <time>2026-09-02T22:08:41Z</time>
  <course>277.38</course>
  <speed>1.0</speed>
  <fix>3d</fix>
</trkpt>
<trkpt lat="33.8098644" lon="-118.3950924">
  <ele>-25.006</ele>
  <time>2026-09-02T22:08:41Z</time>
  <course>7.47</course>
  <speed>1.009752444909147</speed>
  <fix>3d</fix>
</trkpt>
<trkpt lat="33.8098641" lon="-118.3950898">
  <ele>-24.4</ele>
  <time>2026-09-02T22:08:41Z</time>
  <course>277.38</course>
  <speed>1.0</speed>
  <fix>3d</fix>
</trkpt>
<trkpt lat="33.8098645" lon="-118.3950934">
  <ele>-25.005</ele>
  <time>2026-09-02T22:08:41Z</time>
  <course>7.58</course>
  <speed>1.009752444909147</speed>
  <fix>3d</fix>
</trkpt>
<trkpt lat="33.8098643" lon="-118.3950919">
  <ele>-24.4</ele>
  <time>2026-09-02T22:08:41Z</time>
  <course>277.71</course>
  <speed>1.0</speed>
  <fix>3d</fix>
</trkpt>
<trkpt lat="33.8098646" lon="-118.3950945">
  <ele>-25.005</ele>
  <time>2026-09-02T22:08:41Z</time>
  <course>7.7</course>
  <speed>1.0111874208078342</speed>
  <fix>3d</fix>
</trkpt>
<trkpt lat="33.8098643" lon="-118.3950919">
  <ele>-24.4</ele>
  <time>2026-09-02T22:08:41Z</time>
  <course>277.71</course>
  <speed>1.0</speed>
  <fix>3d</fix>
</trkpt>
<trkpt lat="33.8098648" lon="-118.3950956">
  <ele>-25.007</ele>
  <time>2026-09-02T22:08:41Z</time>
  <course>7.81</course>
  <speed>1.0111874208078342</speed>
  <fix>3d</fix>
</trkpt>
<trkpt lat="33.8098646" lon="-118.3950941">
  <ele>-24.4</ele>
  <time>2026-09-02T22:08:41Z</time>
  <course>277.97</course>
  <speed>1.0</speed>
  <fix>3d</fix>
</trkpt>
<trkpt lat="33.8098649" lon="-118.3950967">
  <ele>-25.01</ele>
  <time>2026-09-02T22:08:41Z</time>
  <course>7.93</course>
  <speed>1.0111874208078342</speed>
  <fix>3d</fix>
</trkpt>
<trkpt lat="33.8098646" lon="-118.3950941">
  <ele>-24.4</ele>
  <time>2026-09-02T22:08:41Z</time>
  <course>277.97</course>
  <speed>1.0</speed>
  <fix>3d</fix>
</trkpt>
<trkpt lat="33.809865" lon="-118.3950977">
  <ele>-25.012</ele>
  <time>2026-09-02T22:08:41Z</time>
  <course>8.04</course>
  <speed>1.0111874208078342</speed>
  <fix>3d</fix>
</trkpt>
<trkpt lat="33.8098648" lon="-118.3950962">
  <ele>-24.41</ele>
  <time>2026-09-02T22:08:41Z</time>
  <course>278.18</course>
  <speed>1.0</speed>
  <fix>3d</fix>
</trkpt>
<trkpt lat="33.8098652" lon="-118.3950988">
  <ele>-25.014</ele>
  <time>2026-09-02T22:08:41Z</time>
  <course>8.16</course>
  <speed>1.0111874208078342</speed>
  <fix>3d</fix>
</trkpt>
<trkpt lat="33.8098648" lon="-118.3950962">
  <ele>-24.41</ele>
  <time>2026-09-02T22:08:41Z</time>
  <course>278.18</course>
  <speed>1.0</speed>
  <fix>3d</fix>
</trkpt>
<trkpt lat="33.8098653" lon="-118.3950999">
  <ele>-25.016</ele>
  <time>2026-09-02T22:08:41Z</time>
  <course>8.27</course>
  <speed>1.0111874208078342</speed>
  <fix>3d</fix>
</trkpt>
<trkpt lat="33.8098651" lon="-118.3950984">
  <ele>-24.41</ele>
  <time>2026-09-02T22:08:41Z</time>
  <course>278.36</course>
  <speed>1.0</speed>
  <fix>3d</fix>
</trkpt>
<trkpt lat="33.8098654" lon="-118.3951009">
  <ele>-25.017</ele>
  <time>2026-09-02T22:08:41Z</time>
  <course>8.39</course>
  <speed>1.012719112093773</speed>
  <fix>3d</fix>
</trkpt>
<trkpt lat="33.8098651" lon="-118.3950984">
  <ele>-24.41</ele>
  <time>2026-09-02T22:08:41Z</time>
  <course>278.36</course>
  <speed>1.0</speed>
  <fix>3d</fix>
</trkpt>
<trkpt lat="33.8098656" lon="-118.395102">
  <ele>-25.018</ele>
  <time>2026-09-02T22:08:41Z</time>
  <course>8.5</course>
  <speed>1.002845950283492</speed>
  <fix>3d</fix>
</trkpt>
<trkpt lat="33.8098654" lon="-118.3951005">
  <ele>-24.42</ele>
  <time>2026-09-02T22:08:41Z</time>
  <course>278.56</course>
  <speed>1.0</speed>
  <fix>3d</fix>
</trkpt>
<trkpt lat="33.8098657" lon="-118.3951031">
  <ele>-25.019</ele>
  <time>2026-09-02T22:08:41Z</time>
  <course>8.62</course>
  <speed>1.002845950283492</speed>
  <fix>3d</fix>
</trkpt>
<trkpt lat="33.8098654" lon="-118.3951005">
  <ele>-24.42</ele>
  <time>2026-09-02T22:08:41Z</time>
  <course>278.56</course>
  <speed>1.0</speed>
  <fix>3d</fix>
</trkpt>
<trkpt lat="33.8098658" lon="-118.3951042">
  <ele>-25.018</ele>
  <time>2026-09-02T22:08:41Z</time>
  <course>8.73</course>
  <speed>1.002845950283492</speed>
  <fix>3d</fix>
</trkpt>
<trkpt lat="33.8098656" lon="-118.3951027">
  <ele>-24.42</ele>
  <time>2026-09-02T22:08:41Z</time>
  <course>278.74</course>
  <speed>1.0</speed>
  <fix>3d</fix>
</trkpt>
<trkpt lat="33.809866" lon="-118.3951052">
  <ele>-25.017</ele>
  <time>2026-09-02T22:08:41Z</time>
  <course>8.85</course>
  <speed>1.002845950283492</speed>
  <fix>3d</fix>
</trkpt>
<trkpt lat="33.8098656" lon="-118.3951027">
  <ele>-24.42</ele>
  <time>2026-09-02T22:08:41Z</time>
  <course>278.74</course>
  <speed>1.0</speed>
  <fix>3d</fix>
</trkpt>
<trkpt lat="33.8098661" lon="-118.3951063">
  <ele>-25.017</ele>
  <time>2026-09-02T22:08:41Z</time>
  <course>8.96</course>
  <speed>1.002845950283492</speed>
  <fix>3d</fix>
</trkpt>
<trkpt lat="33.8098659" lon="-118.3951048">
  <ele>-24.42</ele>
  <time>2026-09-02T22:08:41Z</time>
  <course>278.93</course>
  <speed>1.0</speed>
  <fix>3d</fix>
</trkpt>
<trkpt lat="33.8098663" lon="-118.3951074">
  <ele>-25.017</ele>
  <time>2026-09-02T22:08:41Z</time>
  <course>9.08</course>
  <speed>1.0044899203078146</speed>
  <fix>3d</fix>
</trkpt>
<trkpt lat="33.8098659" lon="-118.3951048">
  <ele>-24.42</ele>
  <time>2026-09-02T22:08:41Z</time>
  <course>278.93</course>
  <speed>1.0</speed>
  <fix>3d</fix>
</trkpt>
<trkpt lat="33.8098664" lon="-118.3951084">
  <ele>-25.017</ele>
  <time>2026-09-02T22:08:41Z</time>
  <course>9.19</course>
  <speed>1.0044899203078146</speed>
  <fix>3d</fix>
</trkpt>
<trkpt lat="33.8098662" lon="-118.395107">
  <ele>-24.41</ele>
  <time>2026-09-02T22:08:41Z</time>
  <course>279.16</course>
  <speed>1.0</speed>
  <fix>3d</fix>
</trkpt>
<trkpt lat="33.8098666" lon="-118.3951095">
  <ele>-25.018</ele>
  <time>2026-09-02T22:08:41Z</time>
  <course>9.31</course>
  <speed>1.0044899203078146</speed>
  <fix>3d</fix>
</trkpt>
<trkpt lat="33.8098662" lon="-118.395107">
  <ele>-24.41</ele>
  <time>2026-09-02T22:08:41Z</time>
  <course>279.16</course>
  <speed>1.0</speed>
  <fix>3d</fix>
</trkpt>
<trkpt lat="33.8098667" lon="-118.3951106">
  <ele>-25.019</ele>
  <time>2026-09-02T22:08:41Z</time>
  <course>9.42</course>
  <speed>1.0044899203078146</speed>
  <fix>3d</fix>
</trkpt>
<trkpt lat="33.8098665" lon="-118.3951091">
  <ele>-24.41</ele>
  <time>2026-09-02T22:08:41Z</time>
  <course>279.38</course>
  <speed>1.0</speed>
  <fix>3d</fix>
</trkpt>
<trkpt lat="33.8098669" lon="-118.3951116">
  <ele>-25.018</ele>
  <time>2026-09-02T22:08:41Z</time>
  <course>9.53</course>
  <speed>1.0044899203078146</speed>
  <fix>3d</fix>
</trkpt>
<trkpt lat="33.8098665" lon="-118.3951091">
  <ele>-24.41</ele>
  <time>2026-09-02T22:08:41Z</time>
  <course>279.38</course>
  <speed>1.0</speed>
  <fix>3d</fix>
</trkpt>
<trkpt lat="33.809867" lon="-118.3951127">
  <ele>-25.017</ele>
  <time>2026-09-02T22:08:41Z</time>
  <course>9.65</course>
  <speed>1.0062305898749053</speed>
  <fix>3d</fix>
</trkpt>
<trkpt lat="33.8098668" lon="-118.3951112">
  <ele>-24.41</ele>
  <time>2026-09-02T22:08:41Z</time>
  <course>279.6</course>
  <speed>1.0</speed>
  <fix>3d</fix>
</trkpt>
<trkpt lat="33.8098672" lon="-118.3951138">
  <ele>-25.015</ele>
  <time>2026-09-02T22:08:41Z</time>
  <course>9.76</course>
  <speed>1.0062305898749053</speed>
  <fix>3d</fix>
</trkpt>
<trkpt lat="33.8098668" lon="-118.3951112">
  <ele>-24.41</ele>
  <time>2026-09-02T22:08:41Z</time>
  <course>279.6</course>
  <speed>1.0</speed>
  <fix>3d</fix>
</trkpt>
<trkpt lat="33.8098673" lon="-118.3951148">
  <ele>-25.013</ele>
  <time>2026-09-02T22:08:41Z</time>
  <course>9.88</course>
  <speed>1.0062305898749053</speed>
  <fix>3d</fix>
</trkpt>
<trkpt lat="33.8098671" lon="-118.3951133">
  <ele>-24.41</ele>
  <time>2026-09-02T22:08:41Z</time>
  <course>279.8</course>
  <speed>1.0</speed>
  <fix>3d</fix>
</trkpt>
<trkpt lat="33.8098675" lon="-118.3951159">
  <ele>-25.012</ele>
  <time>2026-09-02T22:08:41Z</time>
  <course>9.99</course>
  <speed>1.0062305898749053</speed>
  <fix>3d</fix>
</trkpt>
<trkpt lat="33.8098671" lon="-118.3951133">
  <ele>-24.41</ele>
  <time>2026-09-02T22:08:41Z</time>
  <course>279.8</course>
  <speed>1.0</speed>
  <fix>3d</fix>
</trkpt>
<trkpt lat="33.8098677" lon="-118.395117">
  <ele>-25.011</ele>
  <time>2026-09-02T22:08:41Z</time>
  <course>10.11</course>
  <speed>1.0062305898749053</speed>
  <fix>3d</fix>
</trkpt>
<trkpt lat="33.8098674" lon="-118.3951155">
  <ele>-24.4</ele>
  <time>2026-09-02T22:08:41Z</time>
  <course>280.01</course>
  <speed>1.0</speed>
  <fix>3d</fix>
</trkpt>
<trkpt lat="33.8098678" lon="-118.395118">
  <ele>-25.009</ele>
  <time>2026-09-02T22:08:41Z</time>
  <course>10.22</course>
  <speed>1.0080674580602231</speed>
  <fix>3d</fix>
</trkpt>
<trkpt lat="33.8098674" lon="-118.3951155">
  <ele>-24.4</ele>
  <time>2026-09-02T22:08:41Z</time>
  <course>280.01</course>
  <speed>1.0</speed>
  <fix>3d</fix>
</trkpt>
<trkpt lat="33.809868" lon="-118.3951191">
  <ele>-25.008</ele>
  <time>2026-09-02T22:08:41Z</time>
  <course>10.34</course>
  <speed>1.0080674580602231</speed>
  <fix>3d</fix>
</trkpt>
<trkpt lat="33.8098677" lon="-118.3951176">
  <ele>-24.4</ele>
  <time>2026-09-02T22:08:41Z</time>
  <course>280.23</course>
  <speed>1.0</speed>
  <fix>3d</fix>
</trkpt>
<trkpt lat="33.8098681" lon="-118.3951202">
  <ele>-25.008</ele>
  <time>2026-09-02T22:08:41Z</time>
  <course>10.46</course>
  <speed>1.0080674580602231</speed>
  <fix>3d</fix>
</trkpt>
<trkpt lat="33.8098677" lon="-118.3951176">
  <ele>-24.4</ele>
  <time>2026-09-02T22:08:41Z</time>
  <course>280.23</course>
  <speed>1.0</speed>
  <fix>3d</fix>
</trkpt>
<trkpt lat="33.8098683" lon="-118.3951212">
  <ele>-25.009</ele>
  <time>2026-09-02T22:08:41Z</time>
  <course>10.57</course>
  <speed>1.0080674580602231</speed>
  <fix>3d</fix>
</trkpt>
<trkpt lat="33.8098681" lon="-118.3951198">
  <ele>-24.4</ele>
  <time>2026-09-02T22:08:41Z</time>
  <course>280.46</course>
  <speed>1.0</speed>
  <fix>3d</fix>
</trkpt>
<trkpt lat="33.8098685" lon="-118.3951223">
  <ele>-25.01</ele>
  <time>2026-09-02T22:08:41Z</time>
  <course>10.68</course>
  <speed>1.0080674580602231</speed>
  <fix>3d</fix>
</trkpt>
<trkpt lat="33.8098681" lon="-118.3951198">
  <ele>-24.4</ele>
  <time>2026-09-02T22:08:41Z</time>
  <course>280.46</course>
  <speed>1.0</speed>
  <fix>3d</fix>
</trkpt>
<trkpt lat="33.8098687" lon="-118.3951234">
  <ele>-25.012</ele>
  <time>2026-09-02T22:08:41Z</time>
  <course>10.8</course>
  <speed>1.01</speed>
  <fix>3d</fix>
</trkpt>
<trkpt lat="33.8098684" lon="-118.3951219">
  <ele>-24.4</ele>
  <time>2026-09-02T22:08:41Z</time>
  <course>280.68</course>
  <speed>1.0</speed>
  <fix>3d</fix>
</trkpt>
<trkpt lat="33.8098688" lon="-118.3951244">
  <ele>-25.012</ele>
  <time>2026-09-02T22:08:41Z</time>
  <course>10.91</course>
  <speed>1.01</speed>
  <fix>3d</fix>
</trkpt>
<trkpt lat="33.8098684" lon="-118.3951219">
  <ele>-24.4</ele>
  <time>2026-09-02T22:08:41Z</time>
  <course>280.68</course>
  <speed>1.0</speed>
  <fix>3d</fix>
</trkpt>
<trkpt lat="33.809869" lon="-118.3951255">
  <ele>-25.013</ele>
  <time>2026-09-02T22:08:41Z</time>
  <course>11.02</course>
  <speed>1.000199980003999</speed>
  <fix>3d</fix>
</trkpt>
<trkpt lat="33.8098687" lon="-118.395124">
  <ele>-24.41</ele>
  <time>2026-09-02T22:08:41Z</time>
  <course>280.88</course>
  <speed>0.99</speed>
  <fix>3d</fix>
</trkpt>
<trkpt lat="33.8098692" lon="-118.3951265">
  <ele>-25.014</ele>
  <time>2026-09-02T22:08:41Z</time>
  <course>11.14</course>
  <speed>1.000199980003999</speed>
  <fix>3d</fix>
</trkpt>
<trkpt lat="33.8098687" lon="-118.395124">
  <ele>-24.41</ele>
  <time>2026-09-02T22:08:41Z</time>
  <course>280.88</course>
  <speed>0.99</speed>
  <fix>3d</fix>
</trkpt>
<trkpt lat="33.8098694" lon="-118.3951276">
  <ele>-25.015</ele>
  <time>2026-09-02T22:08:41Z</time>
  <course>11.25</course>
  <speed>1.0022474744293448</speed>
  <fix>3d</fix>
</trkpt>
<trkpt lat="33.8098691" lon="-118.3951261">
  <ele>-24.41</ele>
  <time>2026-09-02T22:08:41Z</time>
  <course>281.12</course>
  <speed>0.99</speed>
  <fix>3d</fix>
</trkpt>
<trkpt lat="33.8098695" lon="-118.3951287">
  <ele>-25.017</ele>
  <time>2026-09-02T22:08:41Z</time>
  <course>11.37</course>
  <speed>1.0022474744293448</speed>
  <fix>3d</fix>
</trkpt>
<trkpt lat="33.8098691" lon="-118.3951261">
  <ele>-24.41</ele>
  <time>2026-09-02T22:08:41Z</time>
  <course>281.12</course>
  <speed>0.99</speed>
  <fix>3d</fix>
</trkpt>
<trkpt lat="33.8098697" lon="-118.3951297">
  <ele>-25.017</ele>
  <time>2026-09-02T22:08:41Z</time>
  <course>11.48</course>
  <speed>1.0022474744293448</speed>
  <fix>3d</fix>
</trkpt>
<trkpt lat="33.8098694" lon="-118.3951282">
  <ele>-24.41</ele>
  <time>2026-09-02T22:08:41Z</time>
  <course>281.36</course>
  <speed>0.99</speed>
  <fix>3d</fix>
</trkpt>
<trkpt lat="33.8098699" lon="-118.3951308">
  <ele>-25.016</ele>
  <time>2026-09-02T22:08:41Z</time>
  <course>11.6</course>
  <speed>1.0022474744293448</speed>
  <fix>3d</fix>
</trkpt>
<trkpt lat="33.8098694" lon="-118.3951282">
  <ele>-24.41</ele>
  <time>2026-09-02T22:08:41Z</time>
  <course>281.36</course>
  <speed>0.99</speed>
  <fix>3d</fix>
</trkpt>
<trkpt lat="33.8098701" lon="-118.3951318">
  <ele>-25.015</ele>
  <time>2026-09-02T22:08:41Z</time>
  <course>11.71</course>
  <speed>1.0022474744293448</speed>
  <fix>3d</fix>
</trkpt>
<trkpt lat="33.8098698" lon="-118.3951304">
  <ele>-24.41</ele>
  <time>2026-09-02T22:08:41Z</time>
  <course>281.56</course>
  <speed>0.99</speed>
  <fix>3d</fix>
</trkpt>
<trkpt lat="33.8098703" lon="-118.3951329">
  <ele>-25.013</ele>
  <time>2026-09-02T22:08:41Z</time>
  <course>11.82</course>
  <speed>1.0043903623591774</speed>
  <fix>3d</fix>
</trkpt>
<trkpt lat="33.8098698" lon="-118.3951304">
  <ele>-24.41</ele>
  <time>2026-09-02T22:08:41Z</time>
  <course>281.56</course>
  <speed>0.99</speed>
  <fix>3d</fix>
</trkpt>
<trkpt lat="33.8098705" lon="-118.395134">
  <ele>-25.012</ele>
  <time>2026-09-02T22:08:41Z</time>
  <course>11.94</course>
  <speed>1.0043903623591774</speed>
  <fix>3d</fix>
</trkpt>
<trkpt lat="33.8098701" lon="-118.3951325">
  <ele>-24.41</ele>
  <time>2026-09-02T22:08:41Z</time>
  <course>281.8</course>
  <speed>0.99</speed>
  <fix>3d</fix>
</trkpt>
<trkpt lat="33.8098706" lon="-118.395135">
  <ele>-25.013</ele>
  <time>2026-09-02T22:08:41Z</time>
  <course>12.05</course>
  <speed>1.0043903623591774</speed>
  <fix>3d</fix>
</trkpt>
<trkpt lat="33.8098701" lon="-118.3951325">
  <ele>-24.41</ele>
  <time>2026-09-02T22:08:41Z</time>
  <course>281.8</course>
  <speed>0.99</speed>
  <fix>3d</fix>
</trkpt>
<trkpt lat="33.8098708" lon="-118.3951361">
  <ele>-25.014</ele>
  <time>2026-09-02T22:08:41Z</time>
  <course>12.16</course>
  <speed>1.0043903623591774</speed>
  <fix>3d</fix>
</trkpt>
<trkpt lat="33.8098705" lon="-118.3951346">
  <ele>-24.41</ele>
  <time>2026-09-02T22:08:41Z</time>
  <course>282.07</course>
  <speed>0.99</speed>
  <fix>3d</fix>
</trkpt>
<trkpt lat="33.809871" lon="-118.3951371">
  <ele>-25.016</ele>
  <time>2026-09-02T22:08:41Z</time>
  <course>12.29</course>
  <speed>1.006628034578811</speed>
  <fix>3d</fix>
</trkpt>
<trkpt lat="33.8098705" lon="-118.3951346">
  <ele>-24.41</ele>
  <time>2026-09-02T22:08:41Z</time>
  <course>282.07</course>
  <speed>0.99</speed>
  <fix>3d</fix>
</trkpt>
<trkpt lat="33.8098712" lon="-118.3951382">
  <ele>-25.017</ele>
  <time>2026-09-02T22:08:41Z</time>
  <course>12.4</course>
  <speed>1.006628034578811</speed>
  <fix>3d</fix>
</trkpt>
<trkpt lat="33.8098708" lon="-118.3951367">
  <ele>-24.41</ele>
  <time>2026-09-02T22:08:41Z</time>
  <course>282.35</course>
  <speed>0.99</speed>
  <fix>3d</fix>
</trkpt>
<trkpt lat="33.8098714" lon="-118.3951392">
  <ele>-25.017</ele>
  <time>2026-09-02T22:08:41Z</time>
  <course>12.51</course>
  <speed>1.006628034578811</speed>
  <fix>3d</fix>
</trkpt>
<trkpt lat="33.8098708" lon="-118.3951367">
  <ele>-24.41</ele>
  <time>2026-09-02T22:08:41Z</time>
  <course>282.35</course>
  <speed>0.99</speed>
  <fix>3d</fix>
</trkpt>
<trkpt lat="33.8098716" lon="-118.3951403">
  <ele>-25.016</ele>
  <time>2026-09-02T22:08:41Z</time>
  <course>12.62</course>
  <speed>1.006628034578811</speed>
  <fix>3d</fix>
</trkpt>
<trkpt lat="33.8098713" lon="-118.3951388">
  <ele>-24.41</ele>
  <time>2026-09-02T22:08:41Z</time>
  <course>282.66</course>
  <speed>0.99</speed>
  <fix>3d</fix>
</trkpt>
<trkpt lat="33.8098718" lon="-118.3951414">
  <ele>-25.014</ele>
  <time>2026-09-02T22:08:41Z</time>
  <course>12.74</course>
  <speed>1.0089598604503551</speed>
  <fix>3d</fix>
</trkpt>
<trkpt lat="33.8098713" lon="-118.3951388">
  <ele>-24.41</ele>
  <time>2026-09-02T22:08:41Z</time>
  <course>282.66</course>
  <speed>0.99</speed>
  <fix>3d</fix>
</trkpt>
<trkpt lat="33.809872" lon="-118.3951424">
  <ele>-25.011</ele>
  <time>2026-09-02T22:08:41Z</time>
  <course>12.86</course>
  <speed>1.0089598604503551</speed>
  <fix>3d</fix>
</trkpt>
<trkpt lat="33.8098717" lon="-118.3951409">
  <ele>-24.4</ele>
  <time>2026-09-02T22:08:41Z</time>
  <course>282.94</course>
  <speed>0.99</speed>
  <fix>3d</fix>
</trkpt>
<trkpt lat="33.8098722" lon="-118.3951435">
  <ele>-25.009</ele>
  <time>2026-09-02T22:08:41Z</time>
  <course>12.97</course>
  <speed>1.0089598604503551</speed>
  <fix>3d</fix>
</trkpt>
<trkpt lat="33.8098717" lon="-118.3951409">
  <ele>-24.4</ele>
  <time>2026-09-02T22:08:41Z</time>
  <course>282.94</course>
  <speed>0.99</speed>
  <fix>3d</fix>
</trkpt>
<trkpt lat="33.8098724" lon="-118.3951445">
  <ele>-25.007</ele>
  <time>2026-09-02T22:08:41Z</time>
  <course>13.09</course>
  <speed>1.0089598604503551</speed>
  <fix>3d</fix>
</trkpt>
<trkpt lat="33.809872" lon="-118.395143">
  <ele>-24.4</ele>
  <time>2026-09-02T22:08:41Z</time>
  <course>283.16</course>
  <speed>0.99</speed>
  <fix>3d</fix>
</trkpt>
<trkpt lat="33.8098726" lon="-118.3951456">
  <ele>-25.005</ele>
  <time>2026-09-02T22:08:41Z</time>
  <course>13.2</course>
  <speed>1.0089598604503551</speed>
  <fix>3d</fix>
</trkpt>
<trkpt lat="33.809872" lon="-118.395143">
  <ele>-24.4</ele>
  <time>2026-09-02T22:08:41Z</time>
  <course>283.16</course>
  <speed>0.99</speed>
  <fix>3d</fix>
</trkpt>
<trkpt lat="33.8098728" lon="-118.3951466">
  <ele>-25.005</ele>
  <time>2026-09-02T22:08:41Z</time>
  <course>13.31</course>
  <speed>1.0089598604503551</speed>
  <fix>3d</fix>
</trkpt>
<trkpt lat="33.8098725" lon="-118.3951451">
  <ele>-24.4</ele>
  <time>2026-09-02T22:08:41Z</time>
  <course>283.39</course>
  <speed>0.99</speed>
  <fix>3d</fix>
</trkpt>
<trkpt lat="33.8098731" lon="-118.3951477">
  <ele>-25.007</ele>
  <time>2026-09-02T22:08:41Z</time>
  <course>13.43</course>
  <speed>1.0113851887386922</speed>
  <fix>3d</fix>
</trkpt>
<trkpt lat="33.8098725" lon="-118.3951451">
  <ele>-24.4</ele>
  <time>2026-09-02T22:08:41Z</time>
  <course>283.39</course>
  <speed>0.99</speed>
  <fix>3d</fix>
</trkpt>
<trkpt lat="33.8098733" lon="-118.3951487">
  <ele>-25.01</ele>
  <time>2026-09-02T22:08:41Z</time>
  <course>13.54</course>
  <speed>1.0113851887386922</speed>
  <fix>3d</fix>
</trkpt>
<trkpt lat="33.8098729" lon="-118.3951472">
  <ele>-24.4</ele>
  <time>2026-09-02T22:08:41Z</time>
  <course>283.63</course>
  <speed>0.99</speed>
  <fix>3d</fix>
</trkpt>
<trkpt lat="33.8098735" lon="-118.3951498">
  <ele>-25.013</ele>
  <time>2026-09-02T22:08:41Z</time>
  <course>13.66</course>
  <speed>1.0113851887386922</speed>
  <fix>3d</fix>
</trkpt>
<trkpt lat="33.8098729" lon="-118.3951472">
  <ele>-24.4</ele>
  <time>2026-09-02T22:08:41Z</time>
  <course>283.63</course>
  <speed>0.99</speed>
  <fix>3d</fix>
</trkpt>
<trkpt lat="33.8098737" lon="-118.3951508">
  <ele>-25.016</ele>
  <time>2026-09-02T22:08:41Z</time>
  <course>13.77</course>
  <speed>1.0113851887386922</speed>
  <fix>3d</fix>
</trkpt>
<trkpt lat="33.8098733" lon="-118.3951493">
  <ele>-24.41</ele>
  <time>2026-09-02T22:08:41Z</time>
  <course>283.84</course>
  <speed>0.99</speed>
  <fix>3d</fix>
</trkpt>
<trkpt lat="33.8098739" lon="-118.3951519">
  <ele>-25.016</ele>
  <time>2026-09-02T22:08:41Z</time>
  <course>13.89</course>
  <speed>1.0113851887386922</speed>
  <fix>3d</fix>
</trkpt>
<trkpt lat="33.8098733" lon="-118.3951493">
  <ele>-24.41</ele>
  <time>2026-09-02T22:08:41Z</time>
  <course>283.84</course>
  <speed>0.99</speed>
  <fix>3d</fix>
</trkpt>
<trkpt lat="33.8098741" lon="-118.3951529">
  <ele>-25.016</ele>
  <time>2026-09-02T22:08:41Z</time>
  <course>14.0</course>
  <speed>1.0139033484509261</speed>
  <fix>3d</fix>
</trkpt>
<trkpt lat="33.8098738" lon="-118.3951514">
  <ele>-24.41</ele>
  <time>2026-09-02T22:08:41Z</time>
  <course>284.06</course>
  <speed>0.99</speed>
  <fix>3d</fix>
</trkpt>
<trkpt lat="33.8098744" lon="-118.395154">
  <ele>-25.016</ele>
  <time>2026-09-02T22:08:41Z</time>
  <course>14.12</course>
  <speed>1.0139033484509261</speed>
  <fix>3d</fix>
</trkpt>
<trkpt lat="33.8098738" lon="-118.3951514">
  <ele>-24.41</ele>
  <time>2026-09-02T22:08:41Z</time>
  <course>284.06</course>
  <speed>0.99</speed>
  <fix>3d</fix>
</trkpt>
<trkpt lat="33.8098746" lon="-118.395155">
  <ele>-25.014</ele>
  <time>2026-09-02T22:08:41Z</time>
  <course>14.23</course>
  <speed>1.0042410069301093</speed>
  <fix>3d</fix>
</trkpt>
<trkpt lat="33.8098742" lon="-118.3951535">
  <ele>-24.41</ele>
  <time>2026-09-02T22:08:41Z</time>
  <course>284.25</course>
  <speed>0.99</speed>
  <fix>3d</fix>
</trkpt>
<trkpt lat="33.8098748" lon="-118.3951561">
  <ele>-25.013</ele>
  <time>2026-09-02T22:08:41Z</time>
  <course>14.35</course>
  <speed>1.0042410069301093</speed>
  <fix>3d</fix>
</trkpt>
<trkpt lat="33.8098742" lon="-118.3951535">
  <ele>-24.41</ele>
  <time>2026-09-02T22:08:41Z</time>
  <course>284.25</course>
  <speed>0.99</speed>
  <fix>3d</fix>
</trkpt>
<trkpt lat="33.809875" lon="-118.3951571">
  <ele>-25.012</ele>
  <time>2026-09-02T22:08:41Z</time>
  <course>14.46</course>
  <speed>1.0042410069301093</speed>
  <fix>3d</fix>
</trkpt>
<trkpt lat="33.8098746" lon="-118.3951556">
  <ele>-24.41</ele>
  <time>2026-09-02T22:08:41Z</time>
  <course>284.44</course>
  <speed>0.99</speed>
  <fix>3d</fix>
</trkpt>
<trkpt lat="33.8098753" lon="-118.3951581">
  <ele>-25.012</ele>
  <time>2026-09-02T22:08:41Z</time>
  <course>14.58</course>
  <speed>1.0068763578513502</speed>
  <fix>3d</fix>
</trkpt>
<trkpt lat="33.8098746" lon="-118.3951556">
  <ele>-24.41</ele>
  <time>2026-09-02T22:08:41Z</time>
  <course>284.44</course>
  <speed>0.99</speed>
  <fix>3d</fix>
</trkpt>
<trkpt lat="33.8098755" lon="-118.3951592">
  <ele>-25.013</ele>
  <time>2026-09-02T22:08:41Z</time>
  <course>14.69</course>
  <speed>1.0068763578513502</speed>
  <fix>3d</fix>
</trkpt>
<trkpt lat="33.8098751" lon="-118.3951577">
  <ele>-24.41</ele>
  <time>2026-09-02T22:08:41Z</time>
  <course>284.7</course>
  <speed>0.99</speed>
  <fix>3d</fix>
</trkpt>
<trkpt lat="33.8098757" lon="-118.3951602">
  <ele>-25.014</ele>
  <time>2026-09-02T22:08:41Z</time>
  <course>14.8</course>
  <speed>1.0068763578513502</speed>
  <fix>3d</fix>
</trkpt>
<trkpt lat="33.8098751" lon="-118.3951577">
  <ele>-24.41</ele>
  <time>2026-09-02T22:08:41Z</time>
  <course>284.7</course>
  <speed>0.99</speed>
  <fix>3d</fix>
</trkpt>
<trkpt lat="33.809876" lon="-118.3951613">
  <ele>-25.014</ele>
  <time>2026-09-02T22:08:41Z</time>
  <course>14.92</course>
  <speed>1.0068763578513502</speed>
  <fix>3d</fix>
</trkpt>
<trkpt lat="33.8098756" lon="-118.3951597">
  <ele>-24.41</ele>
  <time>2026-09-02T22:08:41Z</time>
  <course>284.95</course>
  <speed>0.99</speed>
  <fix>3d</fix>
</trkpt>
<trkpt lat="33.8098762" lon="-118.3951623">
  <ele>-25.015</ele>
  <time>2026-09-02T22:08:41Z</time>
  <course>15.04</course>
  <speed>1.0068763578513502</speed>
  <fix>3d</fix>
</trkpt>
<trkpt lat="33.8098756" lon="-118.3951597">
  <ele>-24.41</ele>
  <time>2026-09-02T22:08:41Z</time>
  <course>284.95</course>
  <speed>0.99</speed>
  <fix>3d</fix>
</trkpt>
<trkpt lat="33.8098764" lon="-118.3951634">
  <ele>-25.016</ele>
  <time>2026-09-02T22:08:41Z</time>
  <course>15.15</course>
  <speed>1.009603882718366</speed>
  <fix>3d</fix>
</trkpt>
<trkpt lat="33.809876" lon="-118.3951618">
  <ele>-24.41</ele>
  <time>2026-09-02T22:08:41Z</time>
  <course>285.15</course>
  <speed>0.99</speed>
  <fix>3d</fix>
</trkpt>
<trkpt lat="33.8098767" lon="-118.3951644">
  <ele>-25.017</ele>
  <time>2026-09-02T22:08:41Z</time>
  <course>15.27</course>
  <speed>1.009603882718366</speed>
  <fix>3d</fix>
</trkpt>
<trkpt lat="33.809876" lon="-118.3951618">
  <ele>-24.41</ele>
  <time>2026-09-02T22:08:41Z</time>
  <course>285.15</course>
  <speed>0.99</speed>
  <fix>3d</fix>
</trkpt>
<trkpt lat="33.8098769" lon="-118.3951655">
  <ele>-25.017</ele>
  <time>2026-09-02T22:08:41Z</time>
  <course>15.38</course>
  <speed>1.009603882718366</speed>
  <fix>3d</fix>
</trkpt>
<trkpt lat="33.8098765" lon="-118.3951639">
  <ele>-24.41</ele>
  <time>2026-09-02T22:08:41Z</time>
  <course>285.34</course>
  <speed>0.99</speed>
  <fix>3d</fix>
</trkpt>
<trkpt lat="33.8098772" lon="-118.3951665">
  <ele>-25.017</ele>
  <time>2026-09-02T22:08:41Z</time>
  <course>15.49</course>
  <speed>1.009603882718366</speed>
  <fix>3d</fix>
</trkpt>
<trkpt lat="33.8098765" lon="-118.3951639">
  <ele>-24.41</ele>
  <time>2026-09-02T22:08:41Z</time>
  <course>285.34</course>
  <speed>0.99</speed>
  <fix>3d</fix>
</trkpt>
<trkpt lat="33.8098774" lon="-118.3951675">
  <ele>-25.017</ele>
  <time>2026-09-02T22:08:41Z</time>
  <course>15.61</course>
  <speed>1.009603882718366</speed>
  <fix>3d</fix>
</trkpt>
<trkpt lat="33.809877" lon="-118.395166">
  <ele>-24.41</ele>
  <time>2026-09-02T22:08:41Z</time>
  <course>285.56</course>
  <speed>0.99</speed>
  <fix>3d</fix>
</trkpt>
<trkpt lat="33.8098776" lon="-118.3951686">
  <ele>-25.017</ele>
  <time>2026-09-02T22:08:41Z</time>
  <course>15.72</course>
  <speed>1.0124228365658294</speed>
  <fix>3d</fix>
</trkpt>
<trkpt lat="33.809877" lon="-118.395166">
  <ele>-24.41</ele>
  <time>2026-09-02T22:08:41Z</time>
  <course>285.56</course>
  <speed>0.99</speed>
  <fix>3d</fix>
</trkpt>
<trkpt lat="33.8098779" lon="-118.3951696">
  <ele>-25.016</ele>
  <time>2026-09-02T22:08:41Z</time>
  <course>15.84</course>
  <speed>1.0124228365658294</speed>
  <fix>3d</fix>
</trkpt>
<trkpt lat="33.8098774" lon="-118.3951681">
  <ele>-24.41</ele>
  <time>2026-09-02T22:08:41Z</time>
  <course>285.79</course>
  <speed>0.99</speed>
  <fix>3d</fix>
</trkpt>
<trkpt lat="33.8098781" lon="-118.3951707">
  <ele>-25.014</ele>
  <time>2026-09-02T22:08:42Z</time>
  <course>15.95</course>
  <speed>1.0124228365658294</speed>
  <fix>3d</fix>
</trkpt>
<trkpt lat="33.8098774" lon="-118.3951681">
  <ele>-24.41</ele>
  <time>2026-09-02T22:08:42Z</time>
  <course>285.79</course>
  <speed>0.99</speed>
  <fix>3d</fix>
</trkpt>
<trkpt lat="33.8098784" lon="-118.3951717">
  <ele>-25.014</ele>
  <time>2026-09-02T22:08:42Z</time>
  <course>16.07</course>
  <speed>1.0124228365658294</speed>
  <fix>3d</fix>
</trkpt>
<trkpt lat="33.8098779" lon="-118.3951701">
  <ele>-24.41</ele>
  <time>2026-09-02T22:08:42Z</time>
  <course>286.05</course>
  <speed>0.99</speed>
  <fix>3d</fix>
</trkpt>
<trkpt lat="33.8098786" lon="-118.3951727">
  <ele>-25.013</ele>
  <time>2026-09-02T22:08:42Z</time>
  <course>16.18</course>
  <speed>1.015332457867865</speed>
  <fix>3d</fix>
</trkpt>
<trkpt lat="33.8098779" lon="-118.3951701">
  <ele>-24.41</ele>
  <time>2026-09-02T22:08:42Z</time>
  <course>286.05</course>
  <speed>0.99</speed>
  <fix>3d</fix>
</trkpt>
<trkpt lat="33.8098789" lon="-118.3951738">
  <ele>-25.013</ele>
  <time>2026-09-02T22:08:42Z</time>
  <course>16.3</course>
  <speed>1.015332457867865</speed>
  <fix>3d</fix>
</trkpt>
<trkpt lat="33.8098784" lon="-118.3951722">
  <ele>-24.41</ele>
  <time>2026-09-02T22:08:42Z</time>
  <course>286.35</course>
  <speed>0.99</speed>
  <fix>3d</fix>
</trkpt>
<trkpt lat="33.8098791" lon="-118.3951748">
  <ele>-25.013</ele>
  <time>2026-09-02T22:08:42Z</time>
  <course>16.41</course>
  <speed>1.015332457867865</speed>
  <fix>3d</fix>
</trkpt>
<trkpt lat="33.8098784" lon="-118.3951722">
  <ele>-24.41</ele>
  <time>2026-09-02T22:08:42Z</time>
  <course>286.35</course>
  <speed>0.99</speed>
  <fix>3d</fix>
</trkpt>
<trkpt lat="33.8098794" lon="-118.3951758">
  <ele>-25.011</ele>
  <time>2026-09-02T22:08:42Z</time>
  <course>16.53</course>
  <speed>1.015332457867865</speed>
  <fix>3d</fix>
</trkpt>
<trkpt lat="33.8098789" lon="-118.3951743">
  <ele>-24.4</ele>
  <time>2026-09-02T22:08:42Z</time>
  <course>286.62</course>
  <speed>0.99</speed>
  <fix>3d</fix>
</trkpt>
<trkpt lat="33.8098797" lon="-118.3951769">
  <ele>-25.01</ele>
  <time>2026-09-02T22:08:42Z</time>
  <course>16.64</course>
  <speed>1.015332457867865</speed>
  <fix>3d</fix>
</trkpt>
<trkpt lat="33.8098789" lon="-118.3951743">
  <ele>-24.4</ele>
  <time>2026-09-02T22:08:42Z</time>
  <course>286.62</course>
  <speed>0.99</speed>
  <fix>3d</fix>
</trkpt>
<trkpt lat="33.8098799" lon="-118.3951779">
  <ele>-25.01</ele>
  <time>2026-09-02T22:08:42Z</time>
  <course>16.75</course>
  <speed>1.0088111815399352</speed>
  <fix>3d</fix>
</trkpt>
<trkpt lat="33.8098794" lon="-118.3951764">
  <ele>-24.4</ele>
  <time>2026-09-02T22:08:42Z</time>
  <course>286.91</course>
  <speed>1.0</speed>
  <fix>3d</fix>
</trkpt>
<trkpt lat="33.8098802" lon="-118.3951789">
  <ele>-25.01</ele>
  <time>2026-09-02T22:08:42Z</time>
  <course>16.87</course>
  <speed>1.0088111815399352</speed>
  <fix>3d</fix>
</trkpt>
<trkpt lat="33.8098794" lon="-118.3951764">
  <ele>-24.4</ele>
  <time>2026-09-02T22:08:42Z</time>
  <course>286.91</course>
  <speed>1.0</speed>
  <fix>3d</fix>
</trkpt>
<trkpt lat="33.8098804" lon="-118.39518">
  <ele>-25.01</ele>
  <time>2026-09-02T22:08:42Z</time>
  <course>16.98</course>
  <speed>1.0088111815399352</speed>
  <fix>3d</fix>
</trkpt>
<trkpt lat="33.80988" lon="-118.3951784">
  <ele>-24.4</ele>
  <time>2026-09-02T22:08:42Z</time>
  <course>287.21</course>
  <speed>0.99</speed>
  <fix>3d</fix>
</trkpt>
<trkpt lat="33.8098807" lon="-118.395181">
  <ele>-25.011</ele>
  <time>2026-09-02T22:08:42Z</time>
  <course>17.1</course>
  <speed>1.0088111815399352</speed>
  <fix>3d</fix>
</trkpt>
<trkpt lat="33.80988" lon="-118.3951784">
  <ele>-24.4</ele>
  <time>2026-09-02T22:08:42Z</time>
  <course>287.21</course>
  <speed>0.99</speed>
  <fix>3d</fix>
</trkpt>
<trkpt lat="33.809881" lon="-118.395182">
  <ele>-25.012</ele>
  <time>2026-09-02T22:08:42Z</time>
  <course>17.21</course>
  <speed>1.0088111815399352</speed>
  <fix>3d</fix>
</trkpt>
<trkpt lat="33.8098805" lon="-118.3951805">
  <ele>-24.4</ele>
  <time>2026-09-02T22:08:42Z</time>
  <course>287.46</course>
  <speed>0.99</speed>
  <fix>3d</fix>
</trkpt>
<trkpt lat="33.8098813" lon="-118.3951831">
  <ele>-25.013</ele>
  <time>2026-09-02T22:08:42Z</time>
  <course>17.33</course>
  <speed>1.0119288512538815</speed>
  <fix>3d</fix>
</trkpt>
<trkpt lat="33.8098805" lon="-118.3951805">
  <ele>-24.4</ele>
  <time>2026-09-02T22:08:42Z</time>
  <course>287.46</course>
  <speed>0.99</speed>
  <fix>3d</fix>
</trkpt>
<trkpt lat="33.8098815" lon="-118.3951841">
  <ele>-25.013</ele>
  <time>2026-09-02T22:08:42Z</time>
  <course>17.44</course>
  <speed>1.0119288512538815</speed>
  <fix>3d</fix>
</trkpt>
<trkpt lat="33.8098811" lon="-118.3951826">
  <ele>-24.41</ele>
  <time>2026-09-02T22:08:42Z</time>
  <course>287.66</course>
  <speed>0.99</speed>
  <fix>3d</fix>
</trkpt>
<trkpt lat="33.8098818" lon="-118.3951851">
  <ele>-25.013</ele>
  <time>2026-09-02T22:08:42Z</time>
  <course>17.56</course>
  <speed>1.0119288512538815</speed>
  <fix>3d</fix>
</trkpt>
<trkpt lat="33.8098811" lon="-118.3951826">
  <ele>-24.41</ele>
  <time>2026-09-02T22:08:42Z</time>
  <course>287.66</course>
  <speed>0.99</speed>
  <fix>3d</fix>
</trkpt>
<trkpt lat="33.8098821" lon="-118.3951862">
  <ele>-25.014</ele>
  <time>2026-09-02T22:08:42Z</time>
  <course>17.67</course>
  <speed>1.0119288512538815</speed>
  <fix>3d</fix>
</trkpt>
<trkpt lat="33.8098816" lon="-118.3951846">
  <ele>-24.41</ele>
  <time>2026-09-02T22:08:42Z</time>
  <course>287.84</course>
  <speed>0.99</speed>
  <fix>3d</fix>
</trkpt>
<trkpt lat="33.8098824" lon="-118.3951872">
  <ele>-25.013</ele>
  <time>2026-09-02T22:08:42Z</time>
  <course>17.79</course>
  <speed>1.0119288512538815</speed>
  <fix>3d</fix>
</trkpt>
<trkpt lat="33.8098816" lon="-118.3951846">
  <ele>-24.41</ele>
  <time>2026-09-02T22:08:42Z</time>
  <course>287.84</course>
  <speed>0.99</speed>
  <fix>3d</fix>
</trkpt>
<trkpt lat="33.8098826" lon="-118.3951882">
  <ele>-25.013</ele>
  <time>2026-09-02T22:08:42Z</time>
  <course>17.9</course>
  <speed>1.0119288512538815</speed>
  <fix>3d</fix>
</trkpt>
<trkpt lat="33.8098822" lon="-118.3951867">
  <ele>-24.41</ele>
  <time>2026-09-02T22:08:42Z</time>
  <course>288.01</course>
  <speed>0.99</speed>
  <fix>3d</fix>
</trkpt>
<trkpt lat="33.8098829" lon="-118.3951893">
  <ele>-25.014</ele>
  <time>2026-09-02T22:08:42Z</time>
  <course>18.02</course>
  <speed>1.0119288512538815</speed>
  <fix>3d</fix>
</trkpt>
<trkpt lat="33.8098822" lon="-118.3951867">
  <ele>-24.41</ele>
  <time>2026-09-02T22:08:42Z</time>
  <course>288.01</course>
  <speed>0.99</speed>
  <fix>3d</fix>
</trkpt>
<trkpt lat="33.8098832" lon="-118.3951903">
  <ele>-25.015</ele>
  <time>2026-09-02T22:08:42Z</time>
  <course>18.13</course>
  <speed>1.0151354589413177</speed>
  <fix>3d</fix>
</trkpt>
<trkpt lat="33.8098827" lon="-118.3951887">
  <ele>-24.41</ele>
  <time>2026-09-02T22:08:42Z</time>
  <course>288.18</course>
  <speed>0.99</speed>
  <fix>3d</fix>
</trkpt>
<trkpt lat="33.8098835" lon="-118.3951913">
  <ele>-25.016</ele>
  <time>2026-09-02T22:08:42Z</time>
  <course>18.24</course>
  <speed>1.0151354589413177</speed>
  <fix>3d</fix>
</trkpt>
<trkpt lat="33.8098827" lon="-118.3951887">
  <ele>-24.41</ele>
  <time>2026-09-02T22:08:42Z</time>
  <course>288.18</course>
  <speed>0.99</speed>
  <fix>3d</fix>
</trkpt>
<trkpt lat="33.8098838" lon="-118.3951923">
  <ele>-25.017</ele>
  <time>2026-09-02T22:08:42Z</time>
  <course>18.36</course>
  <speed>1.0151354589413177</speed>
  <fix>3d</fix>
</trkpt>
<trkpt lat="33.8098833" lon="-118.3951908">
  <ele>-24.41</ele>
  <time>2026-09-02T22:08:42Z</time>
  <course>288.36</course>
  <speed>0.99</speed>
  <fix>3d</fix>
</trkpt>
<trkpt lat="33.8098841" lon="-118.3951934">
  <ele>-25.017</ele>
  <time>2026-09-02T22:08:42Z</time>
  <course>18.48</course>
  <speed>1.0151354589413177</speed>
  <fix>3d</fix>
</trkpt>
<trkpt lat="33.8098833" lon="-118.3951908">
  <ele>-24.41</ele>
  <time>2026-09-02T22:08:42Z</time>
  <course>288.36</course>
  <speed>0.99</speed>
  <fix>3d</fix>
</trkpt>
<trkpt lat="33.8098844" lon="-118.3951944">
  <ele>-25.017</ele>
  <time>2026-09-02T22:08:42Z</time>
  <course>18.59</course>
  <speed>1.0151354589413177</speed>
  <fix>3d</fix>
</trkpt>
<trkpt lat="33.8098839" lon="-118.3951928">
  <ele>-24.41</ele>
  <time>2026-09-02T22:08:42Z</time>
  <course>288.57</course>
  <speed>0.99</speed>
  <fix>3d</fix>
</trkpt>
<trkpt lat="33.8098847" lon="-118.3951954">
  <ele>-25.017</ele>
  <time>2026-09-02T22:08:42Z</time>
  <course>18.7</course>
  <speed>1.0184301645179212</speed>
  <fix>3d</fix>
</trkpt>
<trkpt lat="33.8098839" lon="-118.3951928">
  <ele>-24.41</ele>
  <time>2026-09-02T22:08:42Z</time>
  <course>288.57</course>
  <speed>0.99</speed>
  <fix>3d</fix>
</trkpt>
<trkpt lat="33.8098849" lon="-118.3951964">
  <ele>-25.017</ele>
  <time>2026-09-02T22:08:42Z</time>
  <course>18.82</course>
  <speed>1.0090094152187086</speed>
  <fix>3d</fix>
</trkpt>
<trkpt lat="33.8098844" lon="-118.3951949">
  <ele>-24.4</ele>
  <time>2026-09-02T22:08:42Z</time>
  <course>288.77</course>
  <speed>1.0</speed>
  <fix>3d</fix>
</trkpt>
<trkpt lat="33.8098852" lon="-118.3951974">
  <ele>-25.016</ele>
  <time>2026-09-02T22:08:42Z</time>
  <course>18.93</course>
  <speed>1.0090094152187086</speed>
  <fix>3d</fix>
</trkpt>
<trkpt lat="33.8098844" lon="-118.3951949">
  <ele>-24.4</ele>
  <time>2026-09-02T22:08:42Z</time>
  <course>288.77</course>
  <speed>1.0</speed>
  <fix>3d</fix>
</trkpt>
<trkpt lat="33.8098855" lon="-118.3951985">
  <ele>-25.014</ele>
  <time>2026-09-02T22:08:42Z</time>
  <course>19.05</course>
  <speed>1.0090094152187086</speed>
  <fix>3d</fix>
</trkpt>
<trkpt lat="33.8098851" lon="-118.3951969">
  <ele>-24.4</ele>
  <time>2026-09-02T22:08:42Z</time>
  <course>288.98</course>
  <speed>1.0</speed>
  <fix>3d</fix>
</trkpt>
<trkpt lat="33.8098858" lon="-118.3951995">
  <ele>-25.012</ele>
  <time>2026-09-02T22:08:42Z</time>
  <course>19.16</course>
  <speed>1.0090094152187086</speed>
  <fix>3d</fix>
</trkpt>
<trkpt lat="33.8098851" lon="-118.3951969">
  <ele>-24.4</ele>
  <time>2026-09-02T22:08:42Z</time>
  <course>288.98</course>
  <speed>1.0</speed>
  <fix>3d</fix>
</trkpt>
<trkpt lat="33.8098861" lon="-118.3952005">
  <ele>-25.011</ele>
  <time>2026-09-02T22:08:42Z</time>
  <course>19.28</course>
  <speed>1.0090094152187086</speed>
  <fix>3d</fix>
</trkpt>
<trkpt lat="33.8098856" lon="-118.395199">
  <ele>-24.4</ele>
  <time>2026-09-02T22:08:42Z</time>
  <course>289.19</course>
  <speed>0.99</speed>
  <fix>3d</fix>
</trkpt>
<trkpt lat="33.8098864" lon="-118.3952015">
  <ele>-25.01</ele>
  <time>2026-09-02T22:08:42Z</time>
  <course>19.39</course>
  <speed>1.0124228365658294</speed>
  <fix>3d</fix>
</trkpt>
<trkpt lat="33.8098856" lon="-118.395199">
  <ele>-24.4</ele>
  <time>2026-09-02T22:08:42Z</time>
  <course>289.19</course>
  <speed>0.99</speed>
  <fix>3d</fix>
</trkpt>
<trkpt lat="33.8098867" lon="-118.3952025">
  <ele>-25.01</ele>
  <time>2026-09-02T22:08:42Z</time>
  <course>19.51</course>
  <speed>1.0124228365658294</speed>
  <fix>3d</fix>
</trkpt>
<trkpt lat="33.8098861" lon="-118.395201">
  <ele>-24.4</ele>
  <time>2026-09-02T22:08:42Z</time>
  <course>289.39</course>
  <speed>0.99</speed>
  <fix>3d</fix>
</trkpt>
<trkpt lat="33.809887" lon="-118.3952036">
  <ele>-25.011</ele>
  <time>2026-09-02T22:08:42Z</time>
  <course>19.62</course>
  <speed>1.0124228365658294</speed>
  <fix>3d</fix>
</trkpt>
<trkpt lat="33.8098861" lon="-118.395201">
  <ele>-24.4</ele>
  <time>2026-09-02T22:08:42Z</time>
  <course>289.39</course>
  <speed>0.99</speed>
  <fix>3d</fix>
</trkpt>
<trkpt lat="33.8098873" lon="-118.3952046">
  <ele>-25.012</ele>
  <time>2026-09-02T22:08:42Z</time>
  <course>19.73</course>
  <speed>1.0124228365658294</speed>
  <fix>3d</fix>
</trkpt>
<trkpt lat="33.8098868" lon="-118.3952031">
  <ele>-24.4</ele>
  <time>2026-09-02T22:08:42Z</time>
  <course>289.69</course>
  <speed>1.0</speed>
  <fix>3d</fix>
</trkpt>
<trkpt lat="33.8098876" lon="-118.3952056">
  <ele>-25.012</ele>
  <time>2026-09-02T22:08:42Z</time>
  <course>19.85</course>
  <speed>1.0159232254457027</speed>
  <fix>3d</fix>
</trkpt>
<trkpt lat="33.8098868" lon="-118.3952031">
  <ele>-24.4</ele>
  <time>2026-09-02T22:08:42Z</time>
  <course>289.69</course>
  <speed>1.0</speed>
  <fix>3d</fix>
</trkpt>
<trkpt lat="33.8098879" lon="-118.3952066">
  <ele>-25.012</ele>
  <time>2026-09-02T22:08:42Z</time>
  <course>19.96</course>
  <speed>1.0159232254457027</speed>
  <fix>3d</fix>
</trkpt>
<trkpt lat="33.8098874" lon="-118.3952051">
  <ele>-24.4</ele>
  <time>2026-09-02T22:08:42Z</time>
  <course>290.03</course>
  <speed>1.0</speed>
  <fix>3d</fix>
</trkpt>
<trkpt lat="33.8098883" lon="-118.3952076">
  <ele>-25.012</ele>
  <time>2026-09-02T22:08:42Z</time>
  <course>20.08</course>
  <speed>1.0159232254457027</speed>
  <fix>3d</fix>
</trkpt>
<trkpt lat="33.8098874" lon="-118.3952051">
  <ele>-24.4</ele>
  <time>2026-09-02T22:08:42Z</time>
  <course>290.03</course>
  <speed>1.0</speed>
  <fix>3d</fix>
</trkpt>
<trkpt lat="33.8098886" lon="-118.3952087">
  <ele>-25.011</ele>
  <time>2026-09-02T22:08:42Z</time>
  <course>20.19</course>
  <speed>1.0159232254457027</speed>
  <fix>3d</fix>
</trkpt>
<trkpt lat="33.809888" lon="-118.3952071">
  <ele>-24.4</ele>
  <time>2026-09-02T22:08:42Z</time>
  <course>290.31</course>
  <speed>0.99</speed>
  <fix>3d</fix>
</trkpt>
<trkpt lat="33.8098889" lon="-118.3952097">
  <ele>-25.009</ele>
  <time>2026-09-02T22:08:42Z</time>
  <course>20.31</course>
  <speed>1.010198000393982</speed>
  <fix>3d</fix>
</trkpt>
<trkpt lat="33.809888" lon="-118.3952071">
  <ele>-24.4</ele>
  <time>2026-09-02T22:08:42Z</time>
  <course>290.31</course>
  <speed>0.99</speed>
  <fix>3d</fix>
</trkpt>
<trkpt lat="33.8098892" lon="-118.3952107">
  <ele>-25.008</ele>
  <time>2026-09-02T22:08:42Z</time>
  <course>20.42</course>
  <speed>1.010198000393982</speed>
  <fix>3d</fix>
</trkpt>
<trkpt lat="33.8098887" lon="-118.3952092">
  <ele>-24.4</ele>
  <time>2026-09-02T22:08:42Z</time>
  <course>290.55</course>
  <speed>0.99</speed>
  <fix>3d</fix>
</trkpt>
<trkpt lat="33.8098895" lon="-118.3952117">
  <ele>-25.008</ele>
  <time>2026-09-02T22:08:42Z</time>
  <course>20.54</course>
  <speed>1.010198000393982</speed>
  <fix>3d</fix>
</trkpt>
<trkpt lat="33.8098887" lon="-118.3952092">
  <ele>-24.4</ele>
  <time>2026-09-02T22:08:42Z</time>
  <course>290.55</course>
  <speed>0.99</speed>
  <fix>3d</fix>
</trkpt>
<trkpt lat="33.8098898" lon="-118.3952127">
  <ele>-25.008</ele>
  <time>2026-09-02T22:08:42Z</time>
  <course>20.65</course>
  <speed>1.010198000393982</speed>
  <fix>3d</fix>
</trkpt>
<trkpt lat="33.8098893" lon="-118.3952112">
  <ele>-24.4</ele>
  <time>2026-09-02T22:08:42Z</time>
  <course>290.76</course>
  <speed>0.99</speed>
  <fix>3d</fix>
</trkpt>
<trkpt lat="33.8098902" lon="-118.3952137">
  <ele>-25.008</ele>
  <time>2026-09-02T22:08:42Z</time>
  <course>20.77</course>
  <speed>1.010198000393982</speed>
  <fix>3d</fix>
</trkpt>
<trkpt lat="33.8098893" lon="-118.3952112">
  <ele>-24.4</ele>
  <time>2026-09-02T22:08:42Z</time>
  <course>290.76</course>
  <speed>0.99</speed>
  <fix>3d</fix>
</trkpt>
<trkpt lat="33.8098905" lon="-118.3952147">
  <ele>-25.009</ele>
  <time>2026-09-02T22:08:42Z</time>
  <course>20.88</course>
  <speed>1.010198000393982</speed>
  <fix>3d</fix>
</trkpt>
<trkpt lat="33.8098899" lon="-118.3952132">
  <ele>-24.4</ele>
  <time>2026-09-02T22:08:42Z</time>
  <course>290.95</course>
  <speed>0.99</speed>
  <fix>3d</fix>
</trkpt>
<trkpt lat="33.8098908" lon="-118.3952157">
  <ele>-25.01</ele>
  <time>2026-09-02T22:08:42Z</time>
  <course>20.99</course>
  <speed>1.0139033484509261</speed>
  <fix>3d</fix>
</trkpt>
<trkpt lat="33.8098899" lon="-118.3952132">
  <ele>-24.4</ele>
  <time>2026-09-02T22:08:42Z</time>
  <course>290.95</course>
  <speed>0.99</speed>
  <fix>3d</fix>
</trkpt>
<trkpt lat="33.8098911" lon="-118.3952167">
  <ele>-25.013</ele>
  <time>2026-09-02T22:08:42Z</time>
  <course>21.11</course>
  <speed>1.0139033484509261</speed>
  <fix>3d</fix>
</trkpt>
<trkpt lat="33.8098906" lon="-118.3952152">
  <ele>-24.4</ele>
  <time>2026-09-02T22:08:42Z</time>
  <course>291.15</course>
  <speed>0.99</speed>
  <fix>3d</fix>
</trkpt>
<trkpt lat="33.8098915" lon="-118.3952178">
  <ele>-25.015</ele>
  <time>2026-09-02T22:08:42Z</time>
  <course>21.23</course>
  <speed>1.0139033484509261</speed>
  <fix>3d</fix>
</trkpt>
<trkpt lat="33.8098906" lon="-118.3952152">
  <ele>-24.4</ele>
  <time>2026-09-02T22:08:42Z</time>
  <course>291.15</course>
  <speed>0.99</speed>
  <fix>3d</fix>
</trkpt>
<trkpt lat="33.8098918" lon="-118.3952188">
  <ele>-25.016</ele>
  <time>2026-09-02T22:08:42Z</time>
  <course>21.34</course>
  <speed>1.0139033484509261</speed>
  <fix>3d</fix>
</trkpt>
<trkpt lat="33.8098912" lon="-118.3952172">
  <ele>-24.41</ele>
  <time>2026-09-02T22:08:42Z</time>
  <course>291.34</course>
  <speed>0.99</speed>
  <fix>3d</fix>
</trkpt>
<trkpt lat="33.8098921" lon="-118.3952198">
  <ele>-25.016</ele>
  <time>2026-09-02T22:08:42Z</time>
  <course>21.45</course>
  <speed>1.0139033484509261</speed>
  <fix>3d</fix>
</trkpt>
<trkpt lat="33.8098912" lon="-118.3952172">
  <ele>-24.41</ele>
  <time>2026-09-02T22:08:42Z</time>
  <course>291.34</course>
  <speed>0.99</speed>
  <fix>3d</fix>
</trkpt>
<trkpt lat="33.8098925" lon="-118.3952208">
  <ele>-25.016</ele>
  <time>2026-09-02T22:08:42Z</time>
  <course>21.57</course>
  <speed>1.0139033484509261</speed>
  <fix>3d</fix>
</trkpt>
<trkpt lat="33.8098919" lon="-118.3952192">
  <ele>-24.41</ele>
  <time>2026-09-02T22:08:42Z</time>
  <course>291.54</course>
  <speed>0.99</speed>
  <fix>3d</fix>
</trkpt>
<trkpt lat="33.8098928" lon="-118.3952218">
  <ele>-25.016</ele>
  <time>2026-09-02T22:08:42Z</time>
  <course>21.68</course>
  <speed>1.0176934705499492</speed>
  <fix>3d</fix>
</trkpt>
<trkpt lat="33.8098919" lon="-118.3952192">
  <ele>-24.41</ele>
  <time>2026-09-02T22:08:42Z</time>
  <course>291.54</course>
  <speed>0.99</speed>
  <fix>3d</fix>
</trkpt>
<trkpt lat="33.8098931" lon="-118.3952228">
  <ele>-25.016</ele>
  <time>2026-09-02T22:08:42Z</time>
  <course>21.8</course>
  <speed>1.0176934705499492</speed>
  <fix>3d</fix>
</trkpt>
<trkpt lat="33.8098926" lon="-118.3952213">
  <ele>-24.41</ele>
  <time>2026-09-02T22:08:42Z</time>
  <course>291.74</course>
  <speed>0.99</speed>
  <fix>3d</fix>
</trkpt>
<trkpt lat="33.8098935" lon="-118.3952238">
  <ele>-25.015</ele>
  <time>2026-09-02T22:08:42Z</time>
  <course>21.91</course>
  <speed>1.0084641788382966</speed>
  <fix>3d</fix>
</trkpt>
<trkpt lat="33.8098926" lon="-118.3952213">
  <ele>-24.41</ele>
  <time>2026-09-02T22:08:42Z</time>
  <course>291.74</course>
  <speed>0.99</speed>
  <fix>3d</fix>
</trkpt>
<trkpt lat="33.8098938" lon="-118.3952248">
  <ele>-25.013</ele>
  <time>2026-09-02T22:08:42Z</time>
  <course>22.03</course>
  <speed>1.0084641788382966</speed>
  <fix>3d</fix>
</trkpt>
<trkpt lat="33.8098932" lon="-118.3952233">
  <ele>-24.41</ele>
  <time>2026-09-02T22:08:42Z</time>
  <course>291.93</course>
  <speed>0.99</speed>
  <fix>3d</fix>
</trkpt>
<trkpt lat="33.8098942" lon="-118.3952258">
  <ele>-25.012</ele>
  <time>2026-09-02T22:08:42Z</time>
  <course>22.14</course>
  <speed>1.0084641788382966</speed>
  <fix>3d</fix>
</trkpt>
<trkpt lat="33.8098932" lon="-118.3952233">
  <ele>-24.41</ele>
  <time>2026-09-02T22:08:42Z</time>
  <course>291.93</course>
  <speed>0.99</speed>
  <fix>3d</fix>
</trkpt>
<trkpt lat="33.8098945" lon="-118.3952268">
  <ele>-25.012</ele>
  <time>2026-09-02T22:08:42Z</time>
  <course>22.26</course>
  <speed>1.0123734488813898</speed>
  <fix>3d</fix>
</trkpt>
<trkpt lat="33.8098939" lon="-118.3952253">
  <ele>-24.41</ele>
  <time>2026-09-02T22:08:42Z</time>
  <course>292.17</course>
  <speed>0.99</speed>
  <fix>3d</fix>
</trkpt>
<trkpt lat="33.8098948" lon="-118.3952278">
  <ele>-25.012</ele>
  <time>2026-09-02T22:08:42Z</time>
  <course>22.37</course>
  <speed>1.0123734488813898</speed>
  <fix>3d</fix>
</trkpt>
<trkpt lat="33.8098939" lon="-118.3952253">
  <ele>-24.41</ele>
  <time>2026-09-02T22:08:42Z</time>
  <course>292.17</course>
  <speed>0.99</speed>
  <fix>3d</fix>
</trkpt>
<trkpt lat="33.8098952" lon="-118.3952288">
  <ele>-25.013</ele>
  <time>2026-09-02T22:08:42Z</time>
  <course>22.48</course>
  <speed>1.0123734488813898</speed>
  <fix>3d</fix>
</trkpt>
<trkpt lat="33.8098946" lon="-118.3952272">
  <ele>-24.41</ele>
  <time>2026-09-02T22:08:42Z</time>
  <course>292.44</course>
  <speed>0.99</speed>
  <fix>3d</fix>
</trkpt>
<trkpt lat="33.8098955" lon="-118.3952298">
  <ele>-25.014</ele>
  <time>2026-09-02T22:08:42Z</time>
  <course>22.6</course>
  <speed>1.0123734488813898</speed>
  <fix>3d</fix>
</trkpt>
<trkpt lat="33.8098946" lon="-118.3952272">
  <ele>-24.41</ele>
  <time>2026-09-02T22:08:42Z</time>
  <course>292.44</course>
  <speed>0.99</speed>
  <fix>3d</fix>
</trkpt>
<trkpt lat="33.8098959" lon="-118.3952308">
  <ele>-25.015</ele>
  <time>2026-09-02T22:08:42Z</time>
  <course>22.72</course>
  <speed>1.0123734488813898</speed>
  <fix>3d</fix>
</trkpt>
<trkpt lat="33.8098952" lon="-118.3952293">
  <ele>-24.41</ele>
  <time>2026-09-02T22:08:42Z</time>
  <course>292.65</course>
  <speed>0.99</speed>
  <fix>3d</fix>
</trkpt>
<trkpt lat="33.8098962" lon="-118.3952318">
  <ele>-25.016</ele>
  <time>2026-09-02T22:08:42Z</time>
  <course>22.83</course>
  <speed>1.016366075781753</speed>
  <fix>3d</fix>
</trkpt>
<trkpt lat="33.8098952" lon="-118.3952293">
  <ele>-24.41</ele>
  <time>2026-09-02T22:08:42Z</time>
  <course>292.65</course>
  <speed>0.99</speed>
  <fix>3d</fix>
</trkpt>
<trkpt lat="33.8098966" lon="-118.3952328">
  <ele>-25.017</ele>
  <time>2026-09-02T22:08:42Z</time>
  <course>22.94</course>
  <speed>1.016366075781753</speed>
  <fix>3d</fix>
</trkpt>
<trkpt lat="33.8098959" lon="-118.3952312">
  <ele>-24.41</ele>
  <time>2026-09-02T22:08:42Z</time>
  <course>292.88</course>
  <speed>1.0</speed>
  <fix>3d</fix>
</trkpt>
<trkpt lat="33.8098969" lon="-118.3952337">
  <ele>-25.017</ele>
  <time>2026-09-02T22:08:42Z</time>
  <course>23.06</course>
  <speed>1.016366075781753</speed>
  <fix>3d</fix>
</trkpt>
<trkpt lat="33.8098959" lon="-118.3952312">
  <ele>-24.41</ele>
  <time>2026-09-02T22:08:42Z</time>
  <course>292.88</course>
  <speed>1.0</speed>
  <fix>3d</fix>
</trkpt>
<trkpt lat="33.8098973" lon="-118.3952347">
  <ele>-25.016</ele>
  <time>2026-09-02T22:08:42Z</time>
  <course>23.17</course>
  <speed>1.016366075781753</speed>
  <fix>3d</fix>
</trkpt>
<trkpt lat="33.8098966" lon="-118.3952332">
  <ele>-24.41</ele>
  <time>2026-09-02T22:08:42Z</time>
  <course>293.19</course>
  <speed>1.0</speed>
  <fix>3d</fix>
</trkpt>
<trkpt lat="33.8098976" lon="-118.3952357">
  <ele>-25.016</ele>
  <time>2026-09-02T22:08:42Z</time>
  <course>23.29</course>
  <speed>1.0204410811016968</speed>
  <fix>3d</fix>
</trkpt>
<trkpt lat="33.8098966" lon="-118.3952332">
  <ele>-24.41</ele>
  <time>2026-09-02T22:08:42Z</time>
  <course>293.19</course>
  <speed>1.0</speed>
  <fix>3d</fix>
</trkpt>
<trkpt lat="33.809898" lon="-118.3952367">
  <ele>-25.015</ele>
  <time>2026-09-02T22:08:42Z</time>
  <course>23.4</course>
  <speed>1.0204410811016968</speed>
  <fix>3d</fix>
</trkpt>
<trkpt lat="33.8098974" lon="-118.3952352">
  <ele>-24.41</ele>
  <time>2026-09-02T22:08:42Z</time>
  <course>293.48</course>
  <speed>1.0</speed>
  <fix>3d</fix>
</trkpt>
<trkpt lat="33.8098984" lon="-118.3952377">
  <ele>-25.014</ele>
  <time>2026-09-02T22:08:42Z</time>
  <course>23.52</course>
  <speed>1.0204410811016968</speed>
  <fix>3d</fix>
</trkpt>
<trkpt lat="33.8098974" lon="-118.3952352">
  <ele>-24.41</ele>
  <time>2026-09-02T22:08:42Z</time>
  <course>293.48</course>
  <speed>1.0</speed>
  <fix>3d</fix>
</trkpt>
<trkpt lat="33.8098987" lon="-118.3952387">
  <ele>-25.013</ele>
  <time>2026-09-02T22:08:42Z</time>
  <course>23.63</course>
  <speed>1.0204410811016968</speed>
  <fix>3d</fix>
</trkpt>
<trkpt lat="33.8098981" lon="-118.3952372">
  <ele>-24.4</ele>
  <time>2026-09-02T22:08:42Z</time>
  <course>293.71</course>
  <speed>1.0</speed>
  <fix>3d</fix>
</trkpt>
<trkpt lat="33.8098991" lon="-118.3952397">
  <ele>-25.012</ele>
  <time>2026-09-02T22:08:42Z</time>
  <course>23.75</course>
  <speed>1.0204410811016968</speed>
  <fix>3d</fix>
</trkpt>
<trkpt lat="33.8098981" lon="-118.3952372">
  <ele>-24.4</ele>
  <time>2026-09-02T22:08:42Z</time>
  <course>293.71</course>
  <speed>1.0</speed>
  <fix>3d</fix>
</trkpt>
<trkpt lat="33.8098994" lon="-118.3952407">
  <ele>-25.011</ele>
  <time>2026-09-02T22:08:42Z</time>
  <course>23.86</course>
  <speed>1.0245974819410792</speed>
  <fix>3d</fix>
</trkpt>
<trkpt lat="33.8098988" lon="-118.3952392">
  <ele>-24.4</ele>
  <time>2026-09-02T22:08:42Z</time>
  <course>293.89</course>
  <speed>1.0</speed>
  <fix>3d</fix>
</trkpt>
<trkpt lat="33.8098998" lon="-118.3952416">
  <ele>-25.011</ele>
  <time>2026-09-02T22:08:42Z</time>
  <course>23.97</course>
  <speed>1.0155294185792945</speed>
  <fix>3d</fix>
</trkpt>
<trkpt lat="33.8098988" lon="-118.3952392">
  <ele>-24.4</ele>
  <time>2026-09-02T22:08:42Z</time>
  <course>293.89</course>
  <speed>1.0</speed>
  <fix>3d</fix>
</trkpt>
<trkpt lat="33.8099002" lon="-118.3952426">
  <ele>-25.012</ele>
  <time>2026-09-02T22:08:42Z</time>
  <course>24.09</course>
  <speed>1.0155294185792945</speed>
  <fix>3d</fix>
</trkpt>
<trkpt lat="33.8098995" lon="-118.3952411">
  <ele>-24.4</ele>
  <time>2026-09-02T22:08:42Z</time>
  <course>294.08</course>
  <speed>1.0</speed>
  <fix>3d</fix>
</trkpt>
<trkpt lat="33.8099006" lon="-118.3952436">
  <ele>-25.013</ele>
  <time>2026-09-02T22:08:42Z</time>
  <course>24.2</course>
  <speed>1.0155294185792945</speed>
  <fix>3d</fix>
</trkpt>
<trkpt lat="33.8098995" lon="-118.3952411">
  <ele>-24.4</ele>
  <time>2026-09-02T22:08:42Z</time>
  <course>294.08</course>
  <speed>1.0</speed>
  <fix>3d</fix>
</trkpt>
<trkpt lat="33.8099009" lon="-118.3952446">
  <ele>-25.014</ele>
  <time>2026-09-02T22:08:42Z</time>
  <course>24.32</course>
  <speed>1.0155294185792945</speed>
  <fix>3d</fix>
</trkpt>
<trkpt lat="33.8099003" lon="-118.3952432">
  <ele>-24.4</ele>
  <time>2026-09-02T22:08:42Z</time>
  <course>294.3</course>
  <speed>1.0</speed>
  <fix>3d</fix>
</trkpt>
<trkpt lat="33.8099013" lon="-118.3952456">
  <ele>-25.015</ele>
  <time>2026-09-02T22:08:42Z</time>
  <course>24.43</course>
  <speed>1.019803902718557</speed>
  <fix>3d</fix>
</trkpt>
<trkpt lat="33.8099003" lon="-118.3952432">
  <ele>-24.4</ele>
  <time>2026-09-02T22:08:42Z</time>
  <course>294.3</course>
  <speed>1.0</speed>
  <fix>3d</fix>
</trkpt>
<trkpt lat="33.8099017" lon="-118.3952466">
  <ele>-25.015</ele>
  <time>2026-09-02T22:08:42Z</time>
  <course>24.55</course>
  <speed>1.019803902718557</speed>
  <fix>3d</fix>
</trkpt>
<trkpt lat="33.8099011" lon="-118.3952452">
  <ele>-24.4</ele>
  <time>2026-09-02T22:08:42Z</time>
  <course>294.54</course>
  <speed>1.0</speed>
  <fix>3d</fix>
</trkpt>
<trkpt lat="33.8099021" lon="-118.3952476">
  <ele>-25.014</ele>
  <time>2026-09-02T22:08:42Z</time>
  <course>24.66</course>
  <speed>1.019803902718557</speed>
  <fix>3d</fix>
</trkpt>
<trkpt lat="33.8099011" lon="-118.3952452">
  <ele>-24.4</ele>
  <time>2026-09-02T22:08:42Z</time>
  <course>294.54</course>
  <speed>1.0</speed>
  <fix>3d</fix>
</trkpt>
<trkpt lat="33.8099024" lon="-118.3952485">
  <ele>-25.011</ele>
  <time>2026-09-02T22:08:42Z</time>
  <course>24.78</course>
  <speed>1.019803902718557</speed>
  <fix>3d</fix>
</trkpt>
<trkpt lat="33.8099018" lon="-118.3952472">
  <ele>-24.4</ele>
  <time>2026-09-02T22:08:42Z</time>
  <course>294.77</course>
  <speed>1.0</speed>
  <fix>3d</fix>
</trkpt>
<trkpt lat="33.8099028" lon="-118.3952495">
  <ele>-25.009</ele>
  <time>2026-09-02T22:08:42Z</time>
  <course>24.89</course>
  <speed>1.0107917688624102</speed>
  <fix>3d</fix>
</trkpt>
<trkpt lat="33.8099018" lon="-118.3952472">
  <ele>-24.4</ele>
  <time>2026-09-02T22:08:42Z</time>
  <course>294.77</course>
  <speed>1.0</speed>
  <fix>3d</fix>
</trkpt>
<trkpt lat="33.8099032" lon="-118.3952505">
  <ele>-25.008</ele>
  <time>2026-09-02T22:08:42Z</time>
  <course>25.01</course>
  <speed>1.0107917688624102</speed>
  <fix>3d</fix>
</trkpt>
<trkpt lat="33.8099026" lon="-118.3952491">
  <ele>-24.4</ele>
  <time>2026-09-02T22:08:42Z</time>
  <course>294.97</course>
  <speed>1.0</speed>
  <fix>3d</fix>
</trkpt>
<trkpt lat="33.8099036" lon="-118.3952515">
  <ele>-25.007</ele>
  <time>2026-09-02T22:08:42Z</time>
  <course>25.12</course>
  <speed>1.0107917688624102</speed>
  <fix>3d</fix>
</trkpt>
<trkpt lat="33.8099026" lon="-118.3952491">
  <ele>-24.4</ele>
  <time>2026-09-02T22:08:42Z</time>
  <course>294.97</course>
  <speed>1.0</speed>
  <fix>3d</fix>
</trkpt>
<trkpt lat="33.809904" lon="-118.3952525">
  <ele>-25.007</ele>
  <time>2026-09-02T22:08:42Z</time>
  <course>25.24</course>
  <speed>1.0151847122568385</speed>
  <fix>3d</fix>
</trkpt>
<trkpt lat="33.8099033" lon="-118.3952511">
  <ele>-24.4</ele>
  <time>2026-09-02T22:08:42Z</time>
  <course>295.18</course>
  <speed>1.0</speed>
  <fix>3d</fix>
</trkpt>
<trkpt lat="33.8099044" lon="-118.3952535">
  <ele>-25.008</ele>
  <time>2026-09-02T22:08:42Z</time>
  <course>25.35</course>
  <speed>1.0151847122568385</speed>
  <fix>3d</fix>
</trkpt>
<trkpt lat="33.8099033" lon="-118.3952511">
  <ele>-24.4</ele>
  <time>2026-09-02T22:08:42Z</time>
  <course>295.18</course>
  <speed>1.0</speed>
  <fix>3d</fix>
</trkpt>
<trkpt lat="33.8099048" lon="-118.3952544">
  <ele>-25.01</ele>
  <time>2026-09-02T22:08:42Z</time>
  <course>25.47</course>
  <speed>1.0151847122568385</speed>
  <fix>3d</fix>
</trkpt>
<trkpt lat="33.8099041" lon="-118.3952531">
  <ele>-24.4</ele>
  <time>2026-09-02T22:08:42Z</time>
  <course>295.41</course>
  <speed>1.0</speed>
  <fix>3d</fix>
</trkpt>
<trkpt lat="33.8099051" lon="-118.3952554">
  <ele>-25.012</ele>
  <time>2026-09-02T22:08:42Z</time>
  <course>25.58</course>
  <speed>1.0151847122568385</speed>
  <fix>3d</fix>
</trkpt>
<trkpt lat="33.8099041" lon="-118.3952531">
  <ele>-24.4</ele>
  <time>2026-09-02T22:08:42Z</time>
  <course>295.41</course>
  <speed>1.0</speed>
  <fix>3d</fix>
</trkpt>
<trkpt lat="33.8099055" lon="-118.3952564">
  <ele>-25.014</ele>
  <time>2026-09-02T22:08:42Z</time>
  <course>25.69</course>
  <speed>1.0151847122568385</speed>
  <fix>3d</fix>
</trkpt>
<trkpt lat="33.8099049" lon="-118.395255">
  <ele>-24.41</ele>
  <time>2026-09-02T22:08:42Z</time>
  <course>295.68</course>
  <speed>1.0</speed>
  <fix>3d</fix>
</trkpt>
<trkpt lat="33.8099059" lon="-118.3952574">
  <ele>-25.016</ele>
  <time>2026-09-02T22:08:42Z</time>
  <course>25.81</course>
  <speed>1.0107423014794623</speed>
  <fix>3d</fix>
</trkpt>
<trkpt lat="33.8099049" lon="-118.395255">
  <ele>-24.41</ele>
  <time>2026-09-02T22:08:42Z</time>
  <course>295.68</course>
  <speed>1.0</speed>
  <fix>3d</fix>
</trkpt>
<trkpt lat="33.8099063" lon="-118.3952583">
  <ele>-25.017</ele>
  <time>2026-09-02T22:08:42Z</time>
  <course>25.93</course>
  <speed>1.0107423014794623</speed>
  <fix>3d</fix>
</trkpt>
<trkpt lat="33.8099057" lon="-118.3952569">
  <ele>-24.41</ele>
  <time>2026-09-02T22:08:42Z</time>
  <course>295.93</course>
  <speed>1.0</speed>
  <fix>3d</fix>
</trkpt>
<trkpt lat="33.8099067" lon="-118.3952593">
  <ele>-25.019</ele>
  <time>2026-09-02T22:08:42Z</time>
  <course>26.04</course>
  <speed>1.0107423014794623</speed>
  <fix>3d</fix>
</trkpt>
<trkpt lat="33.8099057" lon="-118.3952569">
  <ele>-24.41</ele>
  <time>2026-09-02T22:08:42Z</time>
  <course>295.93</course>
  <speed>1.0</speed>
  <fix>3d</fix>
</trkpt>
<trkpt lat="33.8099071" lon="-118.3952603">
  <ele>-25.021</ele>
  <time>2026-09-02T22:08:42Z</time>
  <course>26.15</course>
  <speed>1.0107423014794623</speed>
  <fix>3d</fix>
</trkpt>
<trkpt lat="33.8099064" lon="-118.3952589">
  <ele>-24.42</ele>
  <time>2026-09-02T22:08:42Z</time>
  <course>296.12</course>
  <speed>1.0</speed>
  <fix>3d</fix>
</trkpt>
<trkpt lat="33.8099075" lon="-118.3952612">
  <ele>-25.021</ele>
  <time>2026-09-02T22:08:42Z</time>
  <course>26.26</course>
  <speed>1.0107423014794623</speed>
  <fix>3d</fix>
</trkpt>
<trkpt lat="33.8099064" lon="-118.3952589">
  <ele>-24.42</ele>
  <time>2026-09-02T22:08:42Z</time>
  <course>296.12</course>
  <speed>1.0</speed>
  <fix>3d</fix>
</trkpt>
<trkpt lat="33.8099079" lon="-118.3952622">
  <ele>-25.021</ele>
  <time>2026-09-02T22:08:42Z</time>
  <course>26.38</course>
  <speed>1.0107423014794623</speed>
  <fix>3d</fix>
</trkpt>
<trkpt lat="33.8099073" lon="-118.3952608">
  <ele>-24.41</ele>
  <time>2026-09-02T22:08:42Z</time>
  <course>296.32</course>
  <speed>1.0</speed>
  <fix>3d</fix>
</trkpt>
<trkpt lat="33.8099083" lon="-118.3952632">
  <ele>-25.019</ele>
  <time>2026-09-02T22:08:42Z</time>
  <course>26.49</course>
  <speed>1.015332457867865</speed>
  <fix>3d</fix>
</trkpt>
<trkpt lat="33.8099073" lon="-118.3952608">
  <ele>-24.41</ele>
  <time>2026-09-02T22:08:42Z</time>
  <course>296.32</course>
  <speed>1.0</speed>
  <fix>3d</fix>
</trkpt>
<trkpt lat="33.8099087" lon="-118.3952641">
  <ele>-25.016</ele>
  <time>2026-09-02T22:08:42Z</time>
  <course>26.61</course>
  <speed>1.015332457867865</speed>
  <fix>3d</fix>
</trkpt>
<trkpt lat="33.8099081" lon="-118.3952628">
  <ele>-24.41</ele>
  <time>2026-09-02T22:08:42Z</time>
  <course>296.55</course>
  <speed>1.0</speed>
  <fix>3d</fix>
</trkpt>
<trkpt lat="33.8099091" lon="-118.3952651">
  <ele>-25.014</ele>
  <time>2026-09-02T22:08:42Z</time>
  <course>26.73</course>
  <speed>1.015332457867865</speed>
  <fix>3d</fix>
</trkpt>
<trkpt lat="33.8099081" lon="-118.3952628">
  <ele>-24.41</ele>
  <time>2026-09-02T22:08:42Z</time>
  <course>296.55</course>
  <speed>1.0</speed>
  <fix>3d</fix>
</trkpt>
<trkpt lat="33.8099096" lon="-118.3952661">
  <ele>-25.011</ele>
  <time>2026-09-02T22:08:42Z</time>
  <course>26.84</course>
  <speed>1.015332457867865</speed>
  <fix>3d</fix>
</trkpt>
<trkpt lat="33.8099088" lon="-118.3952647">
  <ele>-24.4</ele>
  <time>2026-09-02T22:08:42Z</time>
  <course>296.74</course>
  <speed>1.0</speed>
  <fix>3d</fix>
</trkpt>
<trkpt lat="33.80991" lon="-118.395267">
  <ele>-25.009</ele>
  <time>2026-09-02T22:08:42Z</time>
  <course>26.96</course>
  <speed>1.015332457867865</speed>
  <fix>3d</fix>
</trkpt>
<trkpt lat="33.8099088" lon="-118.3952647">
  <ele>-24.4</ele>
  <time>2026-09-02T22:08:42Z</time>
  <course>296.74</course>
  <speed>1.0</speed>
  <fix>3d</fix>
</trkpt>
<trkpt lat="33.8099104" lon="-118.395268">
  <ele>-25.008</ele>
  <time>2026-09-02T22:08:42Z</time>
  <course>27.07</course>
  <speed>1.0064790112068907</speed>
  <fix>3d</fix>
</trkpt>
<trkpt lat="33.8099097" lon="-118.3952667">
  <ele>-24.4</ele>
  <time>2026-09-02T22:08:42Z</time>
  <course>296.97</course>
  <speed>1.0</speed>
  <fix>3d</fix>
</trkpt>
<trkpt lat="33.8099108" lon="-118.395269">
  <ele>-25.007</ele>
  <time>2026-09-02T22:08:42Z</time>
  <course>27.18</course>
  <speed>1.0111874208078342</speed>
  <fix>3d</fix>
</trkpt>
<trkpt lat="33.8099097" lon="-118.3952667">
  <ele>-24.4</ele>
  <time>2026-09-02T22:08:42Z</time>
  <course>296.97</course>
  <speed>1.0</speed>
  <fix>3d</fix>
</trkpt>
<trkpt lat="33.8099112" lon="-118.3952699">
  <ele>-25.007</ele>
  <time>2026-09-02T22:08:42Z</time>
  <course>27.3</course>
  <speed>1.0111874208078342</speed>
  <fix>3d</fix>
</trkpt>
<trkpt lat="33.8099105" lon="-118.3952686">
  <ele>-24.4</ele>
  <time>2026-09-02T22:08:42Z</time>
  <course>297.26</course>
  <speed>1.0</speed>
  <fix>3d</fix>
</trkpt>
<trkpt lat="33.8099116" lon="-118.3952709">
  <ele>-25.008</ele>
  <time>2026-09-02T22:08:42Z</time>
  <course>27.41</course>
  <speed>1.0111874208078342</speed>
  <fix>3d</fix>
</trkpt>
<trkpt lat="33.8099105" lon="-118.3952686">
  <ele>-24.4</ele>
  <time>2026-09-02T22:08:42Z</time>
  <course>297.26</course>
  <speed>1.0</speed>
  <fix>3d</fix>
</trkpt>
<trkpt lat="33.809912" lon="-118.3952719">
  <ele>-25.01</ele>
  <time>2026-09-02T22:08:42Z</time>
  <course>27.53</course>
  <speed>1.0111874208078342</speed>
  <fix>3d</fix>
</trkpt>
<trkpt lat="33.8099113" lon="-118.3952705">
  <ele>-24.4</ele>
  <time>2026-09-02T22:08:42Z</time>
  <course>297.54</course>
  <speed>0.99</speed>
  <fix>3d</fix>
</trkpt>
<trkpt lat="33.8099124" lon="-118.3952728">
  <ele>-25.011</ele>
  <time>2026-09-02T22:08:42Z</time>
  <course>27.64</course>
  <speed>1.0159724405711013</speed>
  <fix>3d</fix>
</trkpt>
<trkpt lat="33.8099113" lon="-118.3952705">
  <ele>-24.4</ele>
  <time>2026-09-02T22:08:42Z</time>
  <course>297.54</course>
  <speed>0.99</speed>
  <fix>3d</fix>
</trkpt>
<trkpt lat="33.8099129" lon="-118.3952738">
  <ele>-25.012</ele>
  <time>2026-09-02T22:08:42Z</time>
  <course>27.76</course>
  <speed>1.0159724405711013</speed>
  <fix>3d</fix>
</trkpt>
<trkpt lat="33.8099122" lon="-118.3952724">
  <ele>-24.41</ele>
  <time>2026-09-02T22:08:42Z</time>
  <course>297.8</course>
  <speed>0.99</speed>
  <fix>3d</fix>
</trkpt>
<trkpt lat="33.8099133" lon="-118.3952747">
  <ele>-25.014</ele>
  <time>2026-09-02T22:08:42Z</time>
  <course>27.87</course>
  <speed>1.0159724405711013</speed>
  <fix>3d</fix>
</trkpt>
<trkpt lat="33.8099122" lon="-118.3952724">
  <ele>-24.41</ele>
  <time>2026-09-02T22:08:42Z</time>
  <course>297.8</course>
  <speed>0.99</speed>
  <fix>3d</fix>
</trkpt>
<trkpt lat="33.8099137" lon="-118.3952757">
  <ele>-25.015</ele>
  <time>2026-09-02T22:08:42Z</time>
  <course>27.98</course>
  <speed>1.0159724405711013</speed>
  <fix>3d</fix>
</trkpt>
<trkpt lat="33.809913" lon="-118.3952743">
  <ele>-24.41</ele>
  <time>2026-09-02T22:08:42Z</time>
  <course>298.03</course>
  <speed>0.99</speed>
  <fix>3d</fix>
</trkpt>
<trkpt lat="33.8099141" lon="-118.3952766">
  <ele>-25.016</ele>
  <time>2026-09-02T22:08:42Z</time>
  <course>28.1</course>
  <speed>1.0159724405711013</speed>
  <fix>3d</fix>
</trkpt>
<trkpt lat="33.809913" lon="-118.3952743">
  <ele>-24.41</ele>
  <time>2026-09-02T22:08:42Z</time>
  <course>298.03</course>
  <speed>0.99</speed>
  <fix>3d</fix>
</trkpt>
<trkpt lat="33.8099146" lon="-118.3952776">
  <ele>-25.016</ele>
  <time>2026-09-02T22:08:42Z</time>
  <course>28.22</course>
  <speed>1.0072239075796403</speed>
  <fix>3d</fix>
</trkpt>
<trkpt lat="33.8099139" lon="-118.3952762">
  <ele>-24.41</ele>
  <time>2026-09-02T22:08:42Z</time>
  <course>298.22</course>
  <speed>0.99</speed>
  <fix>3d</fix>
</trkpt>
<trkpt lat="33.809915" lon="-118.3952785">
  <ele>-25.015</ele>
  <time>2026-09-02T22:08:42Z</time>
  <course>28.33</course>
  <speed>1.0072239075796403</speed>
  <fix>3d</fix>
</trkpt>
<trkpt lat="33.8099139" lon="-118.3952762">
  <ele>-24.41</ele>
  <time>2026-09-02T22:08:42Z</time>
  <course>298.22</course>
  <speed>0.99</speed>
  <fix>3d</fix>
</trkpt>
<trkpt lat="33.8099154" lon="-118.3952795">
  <ele>-25.015</ele>
  <time>2026-09-02T22:08:42Z</time>
  <course>28.44</course>
  <speed>1.0121264743103995</speed>
  <fix>3d</fix>
</trkpt>
<trkpt lat="33.8099147" lon="-118.3952781">
  <ele>-24.41</ele>
  <time>2026-09-02T22:08:42Z</time>
  <course>298.4</course>
  <speed>1.0</speed>
  <fix>3d</fix>
</trkpt>
<trkpt lat="33.8099159" lon="-118.3952804">
  <ele>-25.015</ele>
  <time>2026-09-02T22:08:42Z</time>
  <course>28.56</course>
  <speed>1.0121264743103995</speed>
  <fix>3d</fix>
</trkpt>
<trkpt lat="33.8099147" lon="-118.3952781">
  <ele>-24.41</ele>
  <time>2026-09-02T22:08:42Z</time>
  <course>298.4</course>
  <speed>1.0</speed>
  <fix>3d</fix>
</trkpt>
<trkpt lat="33.8099163" lon="-118.3952814">
  <ele>-25.015</ele>
  <time>2026-09-02T22:08:42Z</time>
  <course>28.67</course>
  <speed>1.0121264743103995</speed>
  <fix>3d</fix>
</trkpt>
<trkpt lat="33.8099155" lon="-118.39528">
  <ele>-24.41</ele>
  <time>2026-09-02T22:08:42Z</time>
  <course>298.58</course>
  <speed>0.99</speed>
  <fix>3d</fix>
</trkpt>
<trkpt lat="33.8099167" lon="-118.3952823">
  <ele>-25.016</ele>
  <time>2026-09-02T22:08:42Z</time>
  <course>28.79</course>
  <speed>1.0121264743103995</speed>
  <fix>3d</fix>
</trkpt>
<trkpt lat="33.8099155" lon="-118.39528">
  <ele>-24.41</ele>
  <time>2026-09-02T22:08:42Z</time>
  <course>298.58</course>
  <speed>0.99</speed>
  <fix>3d</fix>
</trkpt>
<trkpt lat="33.8099172" lon="-118.3952833">
  <ele>-25.016</ele>
  <time>2026-09-02T22:08:42Z</time>
  <course>28.9</course>
  <speed>1.0121264743103995</speed>
  <fix>3d</fix>
</trkpt>
<trkpt lat="33.8099164" lon="-118.3952819">
  <ele>-24.41</ele>
  <time>2026-09-02T22:08:42Z</time>
  <course>298.83</course>
  <speed>0.99</speed>
  <fix>3d</fix>
</trkpt>
<trkpt lat="33.8099176" lon="-118.3952842">
  <ele>-25.016</ele>
  <time>2026-09-02T22:08:42Z</time>
  <course>29.02</course>
  <speed>1.0171037311896953</speed>
  <fix>3d</fix>
</trkpt>
<trkpt lat="33.8099164" lon="-118.3952819">
  <ele>-24.41</ele>
  <time>2026-09-02T22:08:42Z</time>
  <course>298.83</course>
  <speed>0.99</speed>
  <fix>3d</fix>
</trkpt>
<trkpt lat="33.809918" lon="-118.3952851">
  <ele>-25.014</ele>
  <time>2026-09-02T22:08:42Z</time>
  <course>29.13</course>
  <speed>1.0171037311896953</speed>
  <fix>3d</fix>
</trkpt>
<trkpt lat="33.8099173" lon="-118.3952838">
  <ele>-24.41</ele>
  <time>2026-09-02T22:08:42Z</time>
  <course>299.12</course>
  <speed>1.0</speed>
  <fix>3d</fix>
</trkpt>
<trkpt lat="33.8099185" lon="-118.3952861">
  <ele>-25.014</ele>
  <time>2026-09-02T22:08:42Z</time>
  <course>29.25</course>
  <speed>1.0171037311896953</speed>
  <fix>3d</fix>
</trkpt>
<trkpt lat="33.8099173" lon="-118.3952838">
  <ele>-24.41</ele>
  <time>2026-09-02T22:08:42Z</time>
  <course>299.12</course>
  <speed>1.0</speed>
  <fix>3d</fix>
</trkpt>
<trkpt lat="33.8099189" lon="-118.395287">
  <ele>-25.014</ele>
  <time>2026-09-02T22:08:42Z</time>
  <course>29.36</course>
  <speed>1.0171037311896953</speed>
  <fix>3d</fix>
</trkpt>
<trkpt lat="33.8099182" lon="-118.3952857">
  <ele>-24.41</ele>
  <time>2026-09-02T22:08:42Z</time>
  <course>299.38</course>
  <speed>1.0</speed>
  <fix>3d</fix>
</trkpt>
<trkpt lat="33.8099194" lon="-118.395288">
  <ele>-25.015</ele>
  <time>2026-09-02T22:08:42Z</time>
  <course>29.48</course>
  <speed>1.0084641788382966</speed>
  <fix>3d</fix>
</trkpt>
<trkpt lat="33.8099182" lon="-118.3952857">
  <ele>-24.41</ele>
  <time>2026-09-02T22:08:42Z</time>
  <course>299.38</course>
  <speed>1.0</speed>
  <fix>3d</fix>
</trkpt>
<trkpt lat="33.8099198" lon="-118.3952889">
  <ele>-25.017</ele>
  <time>2026-09-02T22:08:42Z</time>
  <course>29.59</course>
  <speed>1.0135580891098448</speed>
  <fix>3d</fix>
</trkpt>
<trkpt lat="33.809919" lon="-118.3952876">
  <ele>-24.4</ele>
  <time>2026-09-02T22:08:42Z</time>
  <course>299.61</course>
  <speed>1.0</speed>
  <fix>3d</fix>
</trkpt>
<trkpt lat="33.8099203" lon="-118.3952899">
  <ele>-25.018</ele>
  <time>2026-09-02T22:08:42Z</time>
  <course>29.71</course>
  <speed>1.0135580891098448</speed>
  <fix>3d</fix>
</trkpt>
<trkpt lat="33.809919" lon="-118.3952876">
  <ele>-24.4</ele>
  <time>2026-09-02T22:08:42Z</time>
  <course>299.61</course>
  <speed>1.0</speed>
  <fix>3d</fix>
</trkpt>
<trkpt lat="33.8099207" lon="-118.3952908">
  <ele>-25.018</ele>
  <time>2026-09-02T22:08:42Z</time>
  <course>29.82</course>
  <speed>1.0135580891098448</speed>
  <fix>3d</fix>
</trkpt>
<trkpt lat="33.8099199" lon="-118.3952895">
  <ele>-24.4</ele>
  <time>2026-09-02T22:08:42Z</time>
  <course>299.86</course>
  <speed>1.0</speed>
  <fix>3d</fix>
</trkpt>
<trkpt lat="33.8099212" lon="-118.3952917">
  <ele>-25.017</ele>
  <time>2026-09-02T22:08:42Z</time>
  <course>29.93</course>
  <speed>1.0135580891098448</speed>
  <fix>3d</fix>
</trkpt>
<trkpt lat="33.8099199" lon="-118.3952895">
  <ele>-24.4</ele>
  <time>2026-09-02T22:08:42Z</time>
  <course>299.86</course>
  <speed>1.0</speed>
  <fix>3d</fix>
</trkpt>
<trkpt lat="33.8099216" lon="-118.3952927">
  <ele>-25.015</ele>
  <time>2026-09-02T22:08:42Z</time>
  <course>30.05</course>
  <speed>1.0135580891098448</speed>
  <fix>3d</fix>
</trkpt>
<trkpt lat="33.8099208" lon="-118.3952913">
  <ele>-24.4</ele>
  <time>2026-09-02T22:08:42Z</time>
  <course>300.17</course>
  <speed>0.99</speed>
  <fix>3d</fix>
</trkpt>
<trkpt lat="33.8099221" lon="-118.3952936">
  <ele>-25.014</ele>
  <time>2026-09-02T22:08:42Z</time>
  <course>30.16</course>
  <speed>1.0187246929372038</speed>
  <fix>3d</fix>
</trkpt>
<trkpt lat="33.8099208" lon="-118.3952913">
  <ele>-24.4</ele>
  <time>2026-09-02T22:08:42Z</time>
  <course>300.17</course>
  <speed>0.99</speed>
  <fix>3d</fix>
</trkpt>
<trkpt lat="33.8099225" lon="-118.3952945">
  <ele>-25.013</ele>
  <time>2026-09-02T22:08:42Z</time>
  <course>30.28</course>
  <speed>1.0187246929372038</speed>
  <fix>3d</fix>
</trkpt>
<trkpt lat="33.8099217" lon="-118.3952932">
  <ele>-24.4</ele>
  <time>2026-09-02T22:08:42Z</time>
  <course>300.45</course>
  <speed>0.99</speed>
  <fix>3d</fix>
</trkpt>
<trkpt lat="33.809923" lon="-118.3952955">
  <ele>-25.013</ele>
  <time>2026-09-02T22:08:42Z</time>
  <course>30.39</course>
  <speed>1.0187246929372038</speed>
  <fix>3d</fix>
</trkpt>
<trkpt lat="33.8099217" lon="-118.3952932">
  <ele>-24.4</ele>
  <time>2026-09-02T22:08:42Z</time>
  <course>300.45</course>
  <speed>0.99</speed>
  <fix>3d</fix>
</trkpt>
<trkpt lat="33.8099234" lon="-118.3952964">
  <ele>-25.013</ele>
  <time>2026-09-02T22:08:42Z</time>
  <course>30.5</course>
  <speed>1.010198000393982</speed>
  <fix>3d</fix>
</trkpt>
<trkpt lat="33.8099227" lon="-118.3952951">
  <ele>-24.39</ele>
  <time>2026-09-02T22:08:42Z</time>
  <course>300.71</course>
  <speed>0.99</speed>
  <fix>3d</fix>
</trkpt>
<trkpt lat="33.8099239" lon="-118.3952973">
  <ele>-25.012</ele>
  <time>2026-09-02T22:08:42Z</time>
  <course>30.62</course>
  <speed>1.010198000393982</speed>
  <fix>3d</fix>
</trkpt>
<trkpt lat="33.8099227" lon="-118.3952951">
  <ele>-24.39</ele>
  <time>2026-09-02T22:08:42Z</time>
  <course>300.71</course>
  <speed>0.99</speed>
  <fix>3d</fix>
</trkpt>
<trkpt lat="33.8099244" lon="-118.3952983">
  <ele>-25.011</ele>
  <time>2026-09-02T22:08:42Z</time>
  <course>30.73</course>
  <speed>1.010198000393982</speed>
  <fix>3d</fix>
</trkpt>
<trkpt lat="33.8099236" lon="-118.3952969">
  <ele>-24.39</ele>
  <time>2026-09-02T22:08:42Z</time>
  <course>300.92</course>
  <speed>0.99</speed>
  <fix>3d</fix>
</trkpt>
<trkpt lat="33.8099248" lon="-118.3952992">
  <ele>-25.01</ele>
  <time>2026-09-02T22:08:42Z</time>
  <course>30.85</course>
  <speed>1.0154801819828883</speed>
  <fix>3d</fix>
</trkpt>
<trkpt lat="33.8099236" lon="-118.3952969">
  <ele>-24.39</ele>
  <time>2026-09-02T22:08:42Z</time>
  <course>300.92</course>
  <speed>0.99</speed>
  <fix>3d</fix>
</trkpt>
<trkpt lat="33.8099253" lon="-118.3953001">
  <ele>-25.009</ele>
  <time>2026-09-02T22:08:42Z</time>
  <course>30.96</course>
  <speed>1.0154801819828883</speed>
  <fix>3d</fix>
</trkpt>
<trkpt lat="33.8099245" lon="-118.3952988">
  <ele>-24.39</ele>
  <time>2026-09-02T22:08:42Z</time>
  <course>301.09</course>
  <speed>0.99</speed>
  <fix>3d</fix>
</trkpt>
<trkpt lat="33.8099258" lon="-118.395301">
  <ele>-25.008</ele>
  <time>2026-09-02T22:08:42Z</time>
  <course>31.08</course>
  <speed>1.0154801819828883</speed>
  <fix>3d</fix>
</trkpt>
<trkpt lat="33.8099245" lon="-118.3952988">
  <ele>-24.39</ele>
  <time>2026-09-02T22:08:42Z</time>
  <course>301.09</course>
  <speed>0.99</speed>
  <fix>3d</fix>
</trkpt>
<trkpt lat="33.8099262" lon="-118.395302">
  <ele>-25.006</ele>
  <time>2026-09-02T22:08:42Z</time>
  <course>31.19</course>
  <speed>1.0154801819828883</speed>
  <fix>3d</fix>
</trkpt>
<trkpt lat="33.8099254" lon="-118.3953006">
  <ele>-24.39</ele>
  <time>2026-09-02T22:08:42Z</time>
  <course>301.26</course>
  <speed>0.99</speed>
  <fix>3d</fix>
</trkpt>
<trkpt lat="33.8099267" lon="-118.3953029">
  <ele>-25.006</ele>
  <time>2026-09-02T22:08:42Z</time>
  <course>31.31</course>
  <speed>1.0154801819828883</speed>
  <fix>3d</fix>
</trkpt>
<trkpt lat="33.8099254" lon="-118.3953006">
  <ele>-24.39</ele>
  <time>2026-09-02T22:08:42Z</time>
  <course>301.26</course>
  <speed>0.99</speed>
  <fix>3d</fix>
</trkpt>
<trkpt lat="33.8099272" lon="-118.3953038">
  <ele>-25.007</ele>
  <time>2026-09-02T22:08:42Z</time>
  <course>31.43</course>
  <speed>1.0154801819828883</speed>
  <fix>3d</fix>
</trkpt>
<trkpt lat="33.8099263" lon="-118.3953024">
  <ele>-24.39</ele>
  <time>2026-09-02T22:08:42Z</time>
  <course>301.48</course>
  <speed>0.99</speed>
  <fix>3d</fix>
</trkpt>
<trkpt lat="33.8099276" lon="-118.3953047">
  <ele>-25.009</ele>
  <time>2026-09-02T22:08:42Z</time>
  <course>31.54</course>
  <speed>1.0208329931972222</speed>
  <fix>3d</fix>
</trkpt>
<trkpt lat="33.8099263" lon="-118.3953024">
  <ele>-24.39</ele>
  <time>2026-09-02T22:08:42Z</time>
  <course>301.48</course>
  <speed>0.99</speed>
  <fix>3d</fix>
</trkpt>
<trkpt lat="33.8099281" lon="-118.3953056">
  <ele>-25.011</ele>
  <time>2026-09-02T22:08:42Z</time>
  <course>31.65</course>
  <speed>1.0124228365658294</speed>
  <fix>3d</fix>
</trkpt>
<trkpt lat="33.8099273" lon="-118.3953043">
  <ele>-24.4</ele>
  <time>2026-09-02T22:08:42Z</time>
  <course>301.72</course>
  <speed>0.99</speed>
  <fix>3d</fix>
</trkpt>
<trkpt lat="33.8099286" lon="-118.3953065">
  <ele>-25.011</ele>
  <time>2026-09-02T22:08:42Z</time>
  <course>31.77</course>
  <speed>1.0124228365658294</speed>
  <fix>3d</fix>
</trkpt>
<trkpt lat="33.8099273" lon="-118.3953043">
  <ele>-24.4</ele>
  <time>2026-09-02T22:08:42Z</time>
  <course>301.72</course>
  <speed>0.99</speed>
  <fix>3d</fix>
</trkpt>
<trkpt lat="33.8099291" lon="-118.3953075">
  <ele>-25.011</ele>
  <time>2026-09-02T22:08:42Z</time>
  <course>31.88</course>
  <speed>1.0124228365658294</speed>
  <fix>3d</fix>
</trkpt>
<trkpt lat="33.8099282" lon="-118.3953062">
  <ele>-24.4</ele>
  <time>2026-09-02T22:08:42Z</time>
  <course>301.96</course>
  <speed>1.0</speed>
  <fix>3d</fix>
</trkpt>
<trkpt lat="33.8099295" lon="-118.3953084">
  <ele>-25.012</ele>
  <time>2026-09-02T22:08:42Z</time>
  <course>32.0</course>
  <speed>1.0124228365658294</speed>
  <fix>3d</fix>
</trkpt>
<trkpt lat="33.8099282" lon="-118.3953062">
  <ele>-24.4</ele>
  <time>2026-09-02T22:08:42Z</time>
  <course>301.96</course>
  <speed>1.0</speed>
  <fix>3d</fix>
</trkpt>
<trkpt lat="33.80993" lon="-118.3953093">
  <ele>-25.011</ele>
  <time>2026-09-02T22:08:42Z</time>
  <course>32.11</course>
  <speed>1.0178899744078433</speed>
  <fix>3d</fix>
</trkpt>
<trkpt lat="33.8099292" lon="-118.395308">
  <ele>-24.4</ele>
  <time>2026-09-02T22:08:42Z</time>
  <course>302.22</course>
  <speed>1.0</speed>
  <fix>3d</fix>
</trkpt>
<trkpt lat="33.8099305" lon="-118.3953102">
  <ele>-25.011</ele>
  <time>2026-09-02T22:08:42Z</time>
  <course>32.23</course>
  <speed>1.0178899744078433</speed>
  <fix>3d</fix>
</trkpt>
<trkpt lat="33.8099292" lon="-118.395308">
  <ele>-24.4</ele>
  <time>2026-09-02T22:08:42Z</time>
  <course>302.22</course>
  <speed>1.0</speed>
  <fix>3d</fix>
</trkpt>
<trkpt lat="33.809931" lon="-118.3953111">
  <ele>-25.011</ele>
  <time>2026-09-02T22:08:42Z</time>
  <course>32.34</course>
  <speed>1.0178899744078433</speed>
  <fix>3d</fix>
</trkpt>
<trkpt lat="33.8099301" lon="-118.3953098">
  <ele>-24.41</ele>
  <time>2026-09-02T22:08:42Z</time>
  <course>302.49</course>
  <speed>0.99</speed>
  <fix>3d</fix>
</trkpt>
<trkpt lat="33.8099315" lon="-118.395312">
  <ele>-25.012</ele>
  <time>2026-09-02T22:08:42Z</time>
  <course>32.46</course>
  <speed>1.0178899744078433</speed>
  <fix>3d</fix>
</trkpt>
<trkpt lat="33.8099301" lon="-118.3953098">
  <ele>-24.41</ele>
  <time>2026-09-02T22:08:42Z</time>
  <course>302.49</course>
  <speed>0.99</speed>
  <fix>3d</fix>
</trkpt>
<trkpt lat="33.809932" lon="-118.395313">
  <ele>-25.014</ele>
  <time>2026-09-02T22:08:42Z</time>
  <course>32.57</course>
  <speed>1.0178899744078433</speed>
  <fix>3d</fix>
</trkpt>
<trkpt lat="33.8099311" lon="-118.3953116">
  <ele>-24.41</ele>
  <time>2026-09-02T22:08:42Z</time>
  <course>302.75</course>
  <speed>0.99</speed>
  <fix>3d</fix>
</trkpt>
<trkpt lat="33.8099324" lon="-118.3953139">
  <ele>-25.015</ele>
  <time>2026-09-02T22:08:42Z</time>
  <course>32.69</course>
  <speed>1.009554357129917</speed>
  <fix>3d</fix>
</trkpt>
<trkpt lat="33.8099311" lon="-118.3953116">
  <ele>-24.41</ele>
  <time>2026-09-02T22:08:42Z</time>
  <course>302.75</course>
  <speed>0.99</speed>
  <fix>3d</fix>
</trkpt>
<trkpt lat="33.8099329" lon="-118.3953148">
  <ele>-25.016</ele>
  <time>2026-09-02T22:08:42Z</time>
  <course>32.8</course>
  <speed>1.0151354589413177</speed>
  <fix>3d</fix>
</trkpt>
<trkpt lat="33.8099321" lon="-118.3953134">
  <ele>-24.41</ele>
  <time>2026-09-02T22:08:42Z</time>
  <course>302.98</course>
  <speed>0.99</speed>
  <fix>3d</fix>
</trkpt>
<trkpt lat="33.8099334" lon="-118.3953157">
  <ele>-25.015</ele>
  <time>2026-09-02T22:08:42Z</time>
  <course>32.92</course>
  <speed>1.0151354589413177</speed>
  <fix>3d</fix>
</trkpt>
<trkpt lat="33.8099321" lon="-118.3953134">
  <ele>-24.41</ele>
  <time>2026-09-02T22:08:42Z</time>
  <course>302.98</course>
  <speed>0.99</speed>
  <fix>3d</fix>
</trkpt>
<trkpt lat="33.8099339" lon="-118.3953166">
  <ele>-25.014</ele>
  <time>2026-09-02T22:08:42Z</time>
  <course>33.03</course>
  <speed>1.0151354589413177</speed>
  <fix>3d</fix>
</trkpt>
<trkpt lat="33.809933" lon="-118.3953153">
  <ele>-24.41</ele>
  <time>2026-09-02T22:08:42Z</time>
  <course>303.18</course>
  <speed>0.99</speed>
  <fix>3d</fix>
</trkpt>
<trkpt lat="33.8099344" lon="-118.3953175">
  <ele>-25.013</ele>
  <time>2026-09-02T22:08:42Z</time>
  <course>33.14</course>
  <speed>1.0151354589413177</speed>
  <fix>3d</fix>
</trkpt>
<trkpt lat="33.809933" lon="-118.3953153">
  <ele>-24.41</ele>
  <time>2026-09-02T22:08:42Z</time>
  <course>303.18</course>
  <speed>0.99</speed>
  <fix>3d</fix>
</trkpt>
<trkpt lat="33.8099349" lon="-118.3953184">
  <ele>-25.013</ele>
  <time>2026-09-02T22:08:42Z</time>
  <course>33.26</course>
  <speed>1.0151354589413177</speed>
  <fix>3d</fix>
</trkpt>
<trkpt lat="33.8099341" lon="-118.3953171">
  <ele>-24.41</ele>
  <time>2026-09-02T22:08:42Z</time>
  <course>303.41</course>
  <speed>1.0</speed>
  <fix>3d</fix>
</trkpt>
<trkpt lat="33.8099354" lon="-118.3953193">
  <ele>-25.013</ele>
  <time>2026-09-02T22:08:42Z</time>
  <course>33.37</course>
  <speed>1.0151354589413177</speed>
  <fix>3d</fix>
</trkpt>
<trkpt lat="33.8099341" lon="-118.3953171">
  <ele>-24.41</ele>
  <time>2026-09-02T22:08:42Z</time>
  <course>303.41</course>
  <speed>1.0</speed>
  <fix>3d</fix>
</trkpt>
<trkpt lat="33.8099359" lon="-118.3953202">
  <ele>-25.013</ele>
  <time>2026-09-02T22:08:42Z</time>
  <course>33.49</course>
  <speed>1.0151354589413177</speed>
  <fix>3d</fix>
</trkpt>
<trkpt lat="33.8099351" lon="-118.3953189">
  <ele>-24.41</ele>
  <time>2026-09-02T22:08:42Z</time>
  <course>303.65</course>
  <speed>0.99</speed>
  <fix>3d</fix>
</trkpt>
<trkpt lat="33.8099364" lon="-118.3953211">
  <ele>-25.014</ele>
  <time>2026-09-02T22:08:42Z</time>
  <course>33.6</course>
  <speed>1.0125709851659783</speed>
  <fix>3d</fix>
</trkpt>
<trkpt lat="33.8099351" lon="-118.3953189">
  <ele>-24.41</ele>
  <time>2026-09-02T22:08:42Z</time>
  <course>303.65</course>
  <speed>0.99</speed>
  <fix>3d</fix>
</trkpt>
<trkpt lat="33.8099369" lon="-118.395322">
  <ele>-25.015</ele>
  <time>2026-09-02T22:08:42Z</time>
  <course>33.72</course>
  <speed>1.0125709851659783</speed>
  <fix>3d</fix>
</trkpt>
<trkpt lat="33.8099361" lon="-118.3953206">
  <ele>-24.41</ele>
  <time>2026-09-02T22:08:42Z</time>
  <course>303.84</course>
  <speed>0.99</speed>
  <fix>3d</fix>
</trkpt>
<trkpt lat="33.8099374" lon="-118.3953229">
  <ele>-25.016</ele>
  <time>2026-09-02T22:08:42Z</time>
  <course>33.83</course>
  <speed>1.0125709851659783</speed>
  <fix>3d</fix>
</trkpt>
<trkpt lat="33.8099361" lon="-118.3953206">
  <ele>-24.41</ele>
  <time>2026-09-02T22:08:42Z</time>
  <course>303.84</course>
  <speed>0.99</speed>
  <fix>3d</fix>
</trkpt>
<trkpt lat="33.8099379" lon="-118.3953238">
  <ele>-25.016</ele>
  <time>2026-09-02T22:08:42Z</time>
  <course>33.94</course>
  <speed>1.0125709851659783</speed>
  <fix>3d</fix>
</trkpt>
<trkpt lat="33.8099371" lon="-118.3953225">
  <ele>-24.41</ele>
  <time>2026-09-02T22:08:42Z</time>
  <course>303.97</course>
  <speed>0.99</speed>
  <fix>3d</fix>
</trkpt>
<trkpt lat="33.8099384" lon="-118.3953247">
  <ele>-25.016</ele>
  <time>2026-09-02T22:08:42Z</time>
  <course>34.06</course>
  <speed>1.0125709851659783</speed>
  <fix>3d</fix>
</trkpt>
<trkpt lat="33.8099371" lon="-118.3953225">
  <ele>-24.41</ele>
  <time>2026-09-02T22:08:42Z</time>
  <course>303.97</course>
  <speed>0.99</speed>
  <fix>3d</fix>
</trkpt>
<trkpt lat="33.8099389" lon="-118.3953256">
  <ele>-25.014</ele>
  <time>2026-09-02T22:08:42Z</time>
  <course>34.17</course>
  <speed>1.0125709851659783</speed>
  <fix>3d</fix>
</trkpt>
<trkpt lat="33.809938" lon="-118.3953243">
  <ele>-24.41</ele>
  <time>2026-09-02T22:08:42Z</time>
  <course>304.11</course>
  <speed>0.99</speed>
  <fix>3d</fix>
</trkpt>
<trkpt lat="33.8099394" lon="-118.3953265">
  <ele>-25.013</ele>
  <time>2026-09-02T22:08:42Z</time>
  <course>34.29</course>
  <speed>1.0125709851659783</speed>
  <fix>3d</fix>
</trkpt>
<trkpt lat="33.809938" lon="-118.3953243">
  <ele>-24.41</ele>
  <time>2026-09-02T22:08:42Z</time>
  <course>304.11</course>
  <speed>0.99</speed>
  <fix>3d</fix>
</trkpt>
<trkpt lat="33.8099399" lon="-118.3953274">
  <ele>-25.012</ele>
  <time>2026-09-02T22:08:42Z</time>
  <course>34.4</course>
  <speed>1.0183319694480775</speed>
  <fix>3d</fix>
</trkpt>
<trkpt lat="33.809939" lon="-118.395326">
  <ele>-24.41</ele>
  <time>2026-09-02T22:08:42Z</time>
  <course>304.35</course>
  <speed>0.99</speed>
  <fix>3d</fix>
</trkpt>
<trkpt lat="33.8099405" lon="-118.3953283">
  <ele>-25.012</ele>
  <time>2026-09-02T22:08:42Z</time>
  <course>34.52</course>
  <speed>1.0183319694480775</speed>
  <fix>3d</fix>
</trkpt>
<trkpt lat="33.809939" lon="-118.395326">
  <ele>-24.41</ele>
  <time>2026-09-02T22:08:42Z</time>
  <course>304.35</course>
  <speed>0.99</speed>
  <fix>3d</fix>
</trkpt>
<trkpt lat="33.809941" lon="-118.3953291">
  <ele>-25.013</ele>
  <time>2026-09-02T22:08:42Z</time>
  <course>34.63</course>
  <speed>1.0183319694480775</speed>
  <fix>3d</fix>
</trkpt>
<trkpt lat="33.8099401" lon="-118.3953278">
  <ele>-24.41</ele>
  <time>2026-09-02T22:08:42Z</time>
  <course>304.65</course>
  <speed>0.99</speed>
  <fix>3d</fix>
</trkpt>
<trkpt lat="33.8099415" lon="-118.39533">
  <ele>-25.014</ele>
  <time>2026-09-02T22:08:42Z</time>
  <course>34.75</course>
  <speed>1.010198000393982</speed>
  <fix>3d</fix>
</trkpt>
<trkpt lat="33.8099401" lon="-118.3953278">
  <ele>-24.41</ele>
  <time>2026-09-02T22:08:42Z</time>
  <course>304.65</course>
  <speed>0.99</speed>
  <fix>3d</fix>
</trkpt>
<trkpt lat="33.809942" lon="-118.3953309">
  <ele>-25.014</ele>
  <time>2026-09-02T22:08:42Z</time>
  <course>34.86</course>
  <speed>1.010198000393982</speed>
  <fix>3d</fix>
</trkpt>
<trkpt lat="33.8099412" lon="-118.3953296">
  <ele>-24.41</ele>
  <time>2026-09-02T22:08:42Z</time>
  <course>304.93</course>
  <speed>0.99</speed>
  <fix>3d</fix>
</trkpt>
<trkpt lat="33.8099425" lon="-118.3953318">
  <ele>-25.015</ele>
  <time>2026-09-02T22:08:42Z</time>
  <course>34.98</course>
  <speed>1.016070863670443</speed>
  <fix>3d</fix>
</trkpt>
<trkpt lat="33.8099412" lon="-118.3953296">
  <ele>-24.41</ele>
  <time>2026-09-02T22:08:42Z</time>
  <course>304.93</course>
  <speed>0.99</speed>
  <fix>3d</fix>
</trkpt>
<trkpt lat="33.809943" lon="-118.3953327">
  <ele>-25.016</ele>
  <time>2026-09-02T22:08:42Z</time>
  <course>35.09</course>
  <speed>1.016070863670443</speed>
  <fix>3d</fix>
</trkpt>
<trkpt lat="33.8099421" lon="-118.3953313">
  <ele>-24.41</ele>
  <time>2026-09-02T22:08:42Z</time>
  <course>305.1</course>
  <speed>0.99</speed>
  <fix>3d</fix>
</trkpt>
<trkpt lat="33.8099436" lon="-118.3953336">
  <ele>-25.016</ele>
  <time>2026-09-02T22:08:42Z</time>
  <course>35.21</course>
  <speed>1.016070863670443</speed>
  <fix>3d</fix>
</trkpt>
<trkpt lat="33.8099421" lon="-118.3953313">
  <ele>-24.41</ele>
  <time>2026-09-02T22:08:42Z</time>
  <course>305.1</course>
  <speed>0.99</speed>
  <fix>3d</fix>
</trkpt>
<trkpt lat="33.8099441" lon="-118.3953344">
  <ele>-25.016</ele>
  <time>2026-09-02T22:08:42Z</time>
  <course>35.32</course>
  <speed>1.016070863670443</speed>
  <fix>3d</fix>
</trkpt>
<trkpt lat="33.8099432" lon="-118.395333">
  <ele>-24.41</ele>
  <time>2026-09-02T22:08:42Z</time>
  <course>305.26</course>
  <speed>0.99</speed>
  <fix>3d</fix>
</trkpt>
<trkpt lat="33.8099446" lon="-118.3953353">
  <ele>-25.016</ele>
  <time>2026-09-02T22:08:42Z</time>
  <course>35.44</course>
  <speed>1.016070863670443</speed>
  <fix>3d</fix>
</trkpt>
<trkpt lat="33.8099432" lon="-118.395333">
  <ele>-24.41</ele>
  <time>2026-09-02T22:08:42Z</time>
  <course>305.26</course>
  <speed>0.99</speed>
  <fix>3d</fix>
</trkpt>
<trkpt lat="33.8099451" lon="-118.3953362">
  <ele>-25.015</ele>
  <time>2026-09-02T22:08:42Z</time>
  <course>35.55</course>
  <speed>1.016070863670443</speed>
  <fix>3d</fix>
</trkpt>
<trkpt lat="33.8099442" lon="-118.3953349">
  <ele>-24.41</ele>
  <time>2026-09-02T22:08:42Z</time>
  <course>305.42</course>
  <speed>0.99</speed>
  <fix>3d</fix>
</trkpt>
<trkpt lat="33.8099457" lon="-118.3953371">
  <ele>-25.013</ele>
  <time>2026-09-02T22:08:42Z</time>
  <course>35.66</course>
  <speed>1.016070863670443</speed>
  <fix>3d</fix>
</trkpt>
<trkpt lat="33.8099442" lon="-118.3953349">
  <ele>-24.41</ele>
  <time>2026-09-02T22:08:42Z</time>
  <course>305.42</course>
  <speed>0.99</speed>
  <fix>3d</fix>
</trkpt>
<trkpt lat="33.8099462" lon="-118.3953379">
  <ele>-25.012</ele>
  <time>2026-09-02T22:08:42Z</time>
  <course>35.78</course>
  <speed>1.0220078277586722</speed>
  <fix>3d</fix>
</trkpt>
<trkpt lat="33.8099452" lon="-118.3953366">
  <ele>-24.41</ele>
  <time>2026-09-02T22:08:42Z</time>
  <course>305.61</course>
  <speed>0.99</speed>
  <fix>3d</fix>
</trkpt>
<trkpt lat="33.8099467" lon="-118.3953388">
  <ele>-25.013</ele>
  <time>2026-09-02T22:08:42Z</time>
  <course>35.9</course>
  <speed>1.0140019723846694</speed>
  <fix>3d</fix>
</trkpt>
<trkpt lat="33.8099452" lon="-118.3953366">
  <ele>-24.41</ele>
  <time>2026-09-02T22:08:42Z</time>
  <course>305.61</course>
  <speed>0.99</speed>
  <fix>3d</fix>
</trkpt>
<trkpt lat="33.8099472" lon="-118.3953397">
  <ele>-25.014</ele>
  <time>2026-09-02T22:08:42Z</time>
  <course>36.01</course>
  <speed>1.0140019723846694</speed>
  <fix>3d</fix>
</trkpt>
<trkpt lat="33.8099463" lon="-118.3953383">
  <ele>-24.41</ele>
  <time>2026-09-02T22:08:42Z</time>
  <course>305.89</course>
  <speed>0.99</speed>
  <fix>3d</fix>
</trkpt>
<trkpt lat="33.8099478" lon="-118.3953406">
  <ele>-25.015</ele>
  <time>2026-09-02T22:08:42Z</time>
  <course>36.12</course>
  <speed>1.0140019723846694</speed>
  <fix>3d</fix>
</trkpt>
<trkpt lat="33.8099463" lon="-118.3953383">
  <ele>-24.41</ele>
  <time>2026-09-02T22:08:42Z</time>
  <course>305.89</course>
  <speed>0.99</speed>
  <fix>3d</fix>
</trkpt>
<trkpt lat="33.8099483" lon="-118.3953414">
  <ele>-25.015</ele>
  <time>2026-09-02T22:08:42Z</time>
  <course>36.24</course>
  <speed>1.0200490184299968</speed>
  <fix>3d</fix>
</trkpt>
<trkpt lat="33.8099474" lon="-118.3953401">
  <ele>-24.41</ele>
  <time>2026-09-02T22:08:42Z</time>
  <course>306.16</course>
  <speed>1.0</speed>
  <fix>3d</fix>
</trkpt>
<trkpt lat="33.8099488" lon="-118.3953423">
  <ele>-25.014</ele>
  <time>2026-09-02T22:08:42Z</time>
  <course>36.36</course>
  <speed>1.0200490184299968</speed>
  <fix>3d</fix>
</trkpt>
<trkpt lat="33.8099474" lon="-118.3953401">
  <ele>-24.41</ele>
  <time>2026-09-02T22:08:42Z</time>
  <course>306.16</course>
  <speed>1.0</speed>
  <fix>3d</fix>
</trkpt>
<trkpt lat="33.8099494" lon="-118.3953432">
  <ele>-25.013</ele>
  <time>2026-09-02T22:08:42Z</time>
  <course>36.47</course>
  <speed>1.0200490184299968</speed>
  <fix>3d</fix>
</trkpt>
<trkpt lat="33.8099484" lon="-118.3953419">
  <ele>-24.41</ele>
  <time>2026-09-02T22:08:42Z</time>
  <course>306.38</course>
  <speed>1.0</speed>
  <fix>3d</fix>
</trkpt>
<trkpt lat="33.8099499" lon="-118.395344">
  <ele>-25.014</ele>
  <time>2026-09-02T22:08:42Z</time>
  <course>36.58</course>
  <speed>1.0200490184299968</speed>
  <fix>3d</fix>
</trkpt>
<trkpt lat="33.8099484" lon="-118.3953419">
  <ele>-24.41</ele>
  <time>2026-09-02T22:08:42Z</time>
  <course>306.38</course>
  <speed>1.0</speed>
  <fix>3d</fix>
</trkpt>
<trkpt lat="33.8099504" lon="-118.3953449">
  <ele>-25.014</ele>
  <time>2026-09-02T22:08:42Z</time>
  <course>36.7</course>
  <speed>1.0200490184299968</speed>
  <fix>3d</fix>
</trkpt>
<trkpt lat="33.8099495" lon="-118.3953436">
  <ele>-24.41</ele>
  <time>2026-09-02T22:08:42Z</time>
  <course>306.6</course>
  <speed>1.0</speed>
  <fix>3d</fix>
</trkpt>
<trkpt lat="33.809951" lon="-118.3953458">
  <ele>-25.014</ele>
  <time>2026-09-02T22:08:42Z</time>
  <course>36.81</course>
  <speed>1.0121264743103995</speed>
  <fix>3d</fix>
</trkpt>
<trkpt lat="33.8099495" lon="-118.3953436">
  <ele>-24.41</ele>
  <time>2026-09-02T22:08:42Z</time>
  <course>306.6</course>
  <speed>1.0</speed>
  <fix>3d</fix>
</trkpt>
<trkpt lat="33.8099515" lon="-118.3953466">
  <ele>-25.012</ele>
  <time>2026-09-02T22:08:42Z</time>
  <course>36.92</course>
  <speed>1.0182828683622247</speed>
  <fix>3d</fix>
</trkpt>
<trkpt lat="33.8099506" lon="-118.3953453">
  <ele>-24.41</ele>
  <time>2026-09-02T22:08:42Z</time>
  <course>306.85</course>
  <speed>1.0</speed>
  <fix>3d</fix>
</trkpt>
<trkpt lat="33.8099521" lon="-118.3953475">
  <ele>-25.011</ele>
  <time>2026-09-02T22:08:42Z</time>
  <course>37.04</course>
  <speed>1.0182828683622247</speed>
  <fix>3d</fix>
</trkpt>
<trkpt lat="33.8099506" lon="-118.3953453">
  <ele>-24.41</ele>
  <time>2026-09-02T22:08:42Z</time>
  <course>306.85</course>
  <speed>1.0</speed>
  <fix>3d</fix>
</trkpt>
<trkpt lat="33.8099526" lon="-118.3953484">
  <ele>-25.011</ele>
  <time>2026-09-02T22:08:42Z</time>
  <course>37.15</course>
  <speed>1.0182828683622247</speed>
  <fix>3d</fix>
</trkpt>
<trkpt lat="33.8099517" lon="-118.3953471">
  <ele>-24.4</ele>
  <time>2026-09-02T22:08:42Z</time>
  <course>307.09</course>
  <speed>1.0</speed>
  <fix>3d</fix>
</trkpt>
<trkpt lat="33.8099532" lon="-118.3953492">
  <ele>-25.01</ele>
  <time>2026-09-02T22:08:42Z</time>
  <course>37.27</course>
  <speed>1.0182828683622247</speed>
  <fix>3d</fix>
</trkpt>
<trkpt lat="33.8099517" lon="-118.3953471">
  <ele>-24.4</ele>
  <time>2026-09-02T22:08:42Z</time>
  <course>307.09</course>
  <speed>1.0</speed>
  <fix>3d</fix>
</trkpt>
<trkpt lat="33.8099537" lon="-118.3953501">
  <ele>-25.011</ele>
  <time>2026-09-02T22:08:43Z</time>
  <course>37.39</course>
  <speed>1.0182828683622247</speed>
  <fix>3d</fix>
</trkpt>
<trkpt lat="33.8099528" lon="-118.3953488">
  <ele>-24.4</ele>
  <time>2026-09-02T22:08:43Z</time>
  <course>307.3</course>
  <speed>1.0</speed>
  <fix>3d</fix>
</trkpt>
<trkpt lat="33.8099543" lon="-118.3953509">
  <ele>-25.012</ele>
  <time>2026-09-02T22:08:43Z</time>
  <course>37.5</course>
  <speed>1.0182828683622247</speed>
  <fix>3d</fix>
</trkpt>
<trkpt lat="33.8099528" lon="-118.3953488">
  <ele>-24.4</ele>
  <time>2026-09-02T22:08:43Z</time>
  <course>307.3</course>
  <speed>1.0</speed>
  <fix>3d</fix>
</trkpt>
<trkpt lat="33.8099548" lon="-118.3953518">
  <ele>-25.013</ele>
  <time>2026-09-02T22:08:43Z</time>
  <course>37.61</course>
  <speed>1.0104454463255303</speed>
  <fix>3d</fix>
</trkpt>
<trkpt lat="33.8099538" lon="-118.3953505">
  <ele>-24.41</ele>
  <time>2026-09-02T22:08:43Z</time>
  <course>307.51</course>
  <speed>0.99</speed>
  <fix>3d</fix>
</trkpt>
<trkpt lat="33.8099554" lon="-118.3953526">
  <ele>-25.014</ele>
  <time>2026-09-02T22:08:43Z</time>
  <course>37.73</course>
  <speed>1.0167103815738285</speed>
  <fix>3d</fix>
</trkpt>
<trkpt lat="33.8099538" lon="-118.3953505">
  <ele>-24.41</ele>
  <time>2026-09-02T22:08:43Z</time>
  <course>307.51</course>
  <speed>0.99</speed>
  <fix>3d</fix>
</trkpt>
<trkpt lat="33.8099559" lon="-118.3953535">
  <ele>-25.015</ele>
  <time>2026-09-02T22:08:43Z</time>
  <course>37.84</course>
  <speed>1.0167103815738285</speed>
  <fix>3d</fix>
</trkpt>
<trkpt lat="33.8099549" lon="-118.3953522">
  <ele>-24.41</ele>
  <time>2026-09-02T22:08:43Z</time>
  <course>307.75</course>
  <speed>1.0</speed>
  <fix>3d</fix>
</trkpt>
<trkpt lat="33.8099565" lon="-118.3953543">
  <ele>-25.014</ele>
  <time>2026-09-02T22:08:43Z</time>
  <course>37.95</course>
  <speed>1.0167103815738285</speed>
  <fix>3d</fix>
</trkpt>
<trkpt lat="33.8099549" lon="-118.3953522">
  <ele>-24.41</ele>
  <time>2026-09-02T22:08:43Z</time>
  <course>307.75</course>
  <speed>1.0</speed>
  <fix>3d</fix>
</trkpt>
<trkpt lat="33.809957" lon="-118.3953552">
  <ele>-25.013</ele>
  <time>2026-09-02T22:08:43Z</time>
  <course>38.07</course>
  <speed>1.0167103815738285</speed>
  <fix>3d</fix>
</trkpt>
<trkpt lat="33.809956" lon="-118.3953539">
  <ele>-24.41</ele>
  <time>2026-09-02T22:08:43Z</time>
  <course>308.03</course>
  <speed>1.0</speed>
  <fix>3d</fix>
</trkpt>
<trkpt lat="33.8099576" lon="-118.395356">
  <ele>-25.011</ele>
  <time>2026-09-02T22:08:43Z</time>
  <course>38.18</course>
  <speed>1.0167103815738285</speed>
  <fix>3d</fix>
</trkpt>
<trkpt lat="33.809956" lon="-118.3953539">
  <ele>-24.41</ele>
  <time>2026-09-02T22:08:43Z</time>
  <course>308.03</course>
  <speed>1.0</speed>
  <fix>3d</fix>
</trkpt>
<trkpt lat="33.8099581" lon="-118.3953569">
  <ele>-25.01</ele>
  <time>2026-09-02T22:08:43Z</time>
  <course>38.3</course>
  <speed>1.0230347012687302</speed>
  <fix>3d</fix>
</trkpt>
<trkpt lat="33.8099572" lon="-118.3953556">
  <ele>-24.41</ele>
  <time>2026-09-02T22:08:43Z</time>
  <course>308.32</course>
  <speed>1.0</speed>
  <fix>3d</fix>
</trkpt>
<trkpt lat="33.8099587" lon="-118.3953577">
  <ele>-25.009</ele>
  <time>2026-09-02T22:08:43Z</time>
  <course>38.42</course>
  <speed>1.0230347012687302</speed>
  <fix>3d</fix>
</trkpt>
<trkpt lat="33.8099572" lon="-118.3953556">
  <ele>-24.41</ele>
  <time>2026-09-02T22:08:43Z</time>
  <course>308.32</course>
  <speed>1.0</speed>
  <fix>3d</fix>
</trkpt>
<trkpt lat="33.8099593" lon="-118.3953586">
  <ele>-25.009</ele>
  <time>2026-09-02T22:08:43Z</time>
  <course>38.53</course>
  <speed>1.015332457867865</speed>
  <fix>3d</fix>
</trkpt>
<trkpt lat="33.8099583" lon="-118.3953573">
  <ele>-24.41</ele>
  <time>2026-09-02T22:08:43Z</time>
  <course>308.56</course>
  <speed>1.0</speed>
  <fix>3d</fix>
</trkpt>
<trkpt lat="33.8099598" lon="-118.3953594">
  <ele>-25.011</ele>
  <time>2026-09-02T22:08:43Z</time>
  <course>38.65</course>
  <speed>1.015332457867865</speed>
  <fix>3d</fix>
</trkpt>
<trkpt lat="33.8099583" lon="-118.3953573">
  <ele>-24.41</ele>
  <time>2026-09-02T22:08:43Z</time>
  <course>308.56</course>
  <speed>1.0</speed>
  <fix>3d</fix>
</trkpt>
<trkpt lat="33.8099604" lon="-118.3953603">
  <ele>-25.014</ele>
  <time>2026-09-02T22:08:43Z</time>
  <course>38.76</course>
  <speed>1.015332457867865</speed>
  <fix>3d</fix>
</trkpt>
<trkpt lat="33.8099594" lon="-118.395359">
  <ele>-24.41</ele>
  <time>2026-09-02T22:08:43Z</time>
  <course>308.74</course>
  <speed>1.0</speed>
  <fix>3d</fix>
</trkpt>
<trkpt lat="33.809961" lon="-118.3953611">
  <ele>-25.016</ele>
  <time>2026-09-02T22:08:43Z</time>
  <course>38.87</course>
  <speed>1.015332457867865</speed>
  <fix>3d</fix>
</trkpt>
<trkpt lat="33.8099594" lon="-118.395359">
  <ele>-24.41</ele>
  <time>2026-09-02T22:08:43Z</time>
  <course>308.74</course>
  <speed>1.0</speed>
  <fix>3d</fix>
</trkpt>
<trkpt lat="33.8099615" lon="-118.3953619">
  <ele>-25.018</ele>
  <time>2026-09-02T22:08:43Z</time>
  <course>38.99</course>
  <speed>1.015332457867865</speed>
  <fix>3d</fix>
</trkpt>
<trkpt lat="33.8099605" lon="-118.3953607">
  <ele>-24.41</ele>
  <time>2026-09-02T22:08:43Z</time>
  <course>308.93</course>
  <speed>1.0</speed>
  <fix>3d</fix>
</trkpt>
<trkpt lat="33.8099621" lon="-118.3953628">
  <ele>-25.02</ele>
  <time>2026-09-02T22:08:43Z</time>
  <course>39.1</course>
  <speed>1.0217631819555841</speed>
  <fix>3d</fix>
</trkpt>
<trkpt lat="33.8099605" lon="-118.3953607">
  <ele>-24.41</ele>
  <time>2026-09-02T22:08:43Z</time>
  <course>308.93</course>
  <speed>1.0</speed>
  <fix>3d</fix>
</trkpt>
<trkpt lat="33.8099627" lon="-118.3953636">
  <ele>-25.021</ele>
  <time>2026-09-02T22:08:43Z</time>
  <course>39.22</course>
  <speed>1.0217631819555841</speed>
  <fix>3d</fix>
</trkpt>
<trkpt lat="33.8099616" lon="-118.3953624">
  <ele>-24.41</ele>
  <time>2026-09-02T22:08:43Z</time>
  <course>309.16</course>
  <speed>1.0</speed>
  <fix>3d</fix>
</trkpt>
<trkpt lat="33.8099632" lon="-118.3953645">
  <ele>-25.02</ele>
  <time>2026-09-02T22:08:43Z</time>
  <course>39.33</course>
  <speed>1.0217631819555841</speed>
  <fix>3d</fix>
</trkpt>
<trkpt lat="33.8099616" lon="-118.3953624">
  <ele>-24.41</ele>
  <time>2026-09-02T22:08:43Z</time>
  <course>309.16</course>
  <speed>1.0</speed>
  <fix>3d</fix>
</trkpt>
<trkpt lat="33.8099638" lon="-118.3953653">
  <ele>-25.018</ele>
  <time>2026-09-02T22:08:43Z</time>
  <course>39.45</course>
  <speed>1.0141498903022177</speed>
  <fix>3d</fix>
</trkpt>
<trkpt lat="33.8099628" lon="-118.3953641">
  <ele>-24.41</ele>
  <time>2026-09-02T22:08:43Z</time>
  <course>309.43</course>
  <speed>1.0</speed>
  <fix>3d</fix>
</trkpt>
<trkpt lat="33.8099644" lon="-118.3953661">
  <ele>-25.017</ele>
  <time>2026-09-02T22:08:43Z</time>
  <course>39.56</course>
  <speed>1.0141498903022177</speed>
  <fix>3d</fix>
</trkpt>
<trkpt lat="33.8099628" lon="-118.3953641">
  <ele>-24.41</ele>
  <time>2026-09-02T22:08:43Z</time>
  <course>309.43</course>
  <speed>1.0</speed>
  <fix>3d</fix>
</trkpt>
<trkpt lat="33.809965" lon="-118.3953669">
  <ele>-25.015</ele>
  <time>2026-09-02T22:08:43Z</time>
  <course>39.68</course>
  <speed>1.0206860437960343</speed>
  <fix>3d</fix>
</trkpt>
<trkpt lat="33.809964" lon="-118.3953657">
  <ele>-24.41</ele>
  <time>2026-09-02T22:08:43Z</time>
  <course>309.73</course>
  <speed>1.0</speed>
  <fix>3d</fix>
</trkpt>
<trkpt lat="33.8099655" lon="-118.3953678">
  <ele>-25.013</ele>
  <time>2026-09-02T22:08:43Z</time>
  <course>39.79</course>
  <speed>1.0206860437960343</speed>
  <fix>3d</fix>
</trkpt>
<trkpt lat="33.809964" lon="-118.3953657">
  <ele>-24.41</ele>
  <time>2026-09-02T22:08:43Z</time>
  <course>309.73</course>
  <speed>1.0</speed>
  <fix>3d</fix>
</trkpt>
<trkpt lat="33.8099661" lon="-118.3953686">
  <ele>-25.011</ele>
  <time>2026-09-02T22:08:43Z</time>
  <course>39.9</course>
  <speed>1.0206860437960343</speed>
  <fix>3d</fix>
</trkpt>
<trkpt lat="33.8099651" lon="-118.3953674">
  <ele>-24.4</ele>
  <time>2026-09-02T22:08:43Z</time>
  <course>309.97</course>
  <speed>1.0</speed>
  <fix>3d</fix>
</trkpt>
<trkpt lat="33.8099667" lon="-118.3953694">
  <ele>-25.011</ele>
  <time>2026-09-02T22:08:43Z</time>
  <course>40.02</course>
  <speed>1.0206860437960343</speed>
  <fix>3d</fix>
</trkpt>
<trkpt lat="33.8099651" lon="-118.3953674">
  <ele>-24.4</ele>
  <time>2026-09-02T22:08:43Z</time>
  <course>309.97</course>
  <speed>1.0</speed>
  <fix>3d</fix>
</trkpt>
<trkpt lat="33.8099673" lon="-118.3953702">
  <ele>-25.011</ele>
  <time>2026-09-02T22:08:43Z</time>
  <course>40.13</course>
  <speed>1.0206860437960343</speed>
  <fix>3d</fix>
</trkpt>
<trkpt lat="33.8099663" lon="-118.3953691">
  <ele>-24.4</ele>
  <time>2026-09-02T22:08:43Z</time>
  <course>310.17</course>
  <speed>1.0</speed>
  <fix>3d</fix>
</trkpt>
<trkpt lat="33.8099679" lon="-118.3953711">
  <ele>-25.01</ele>
  <time>2026-09-02T22:08:43Z</time>
  <course>40.25</course>
  <speed>1.0206860437960343</speed>
  <fix>3d</fix>
</trkpt>
<trkpt lat="33.8099663" lon="-118.3953691">
  <ele>-24.4</ele>
  <time>2026-09-02T22:08:43Z</time>
  <course>310.17</course>
  <speed>1.0</speed>
  <fix>3d</fix>
</trkpt>
<trkpt lat="33.8099684" lon="-118.3953719">
  <ele>-25.009</ele>
  <time>2026-09-02T22:08:43Z</time>
  <course>40.36</course>
  <speed>1.0131633629380803</speed>
  <fix>3d</fix>
</trkpt>
<trkpt lat="33.8099675" lon="-118.3953707">
  <ele>-24.4</ele>
  <time>2026-09-02T22:08:43Z</time>
  <course>310.38</course>
  <speed>1.0</speed>
  <fix>3d</fix>
</trkpt>
<trkpt lat="33.809969" lon="-118.3953727">
  <ele>-25.01</ele>
  <time>2026-09-02T22:08:43Z</time>
  <course>40.48</course>
  <speed>1.019803902718557</speed>
  <fix>3d</fix>
</trkpt>
<trkpt lat="33.8099675" lon="-118.3953707">
  <ele>-24.4</ele>
  <time>2026-09-02T22:08:43Z</time>
  <course>310.38</course>
  <speed>1.0</speed>
  <fix>3d</fix>
</trkpt>
<trkpt lat="33.8099696" lon="-118.3953735">
  <ele>-25.011</ele>
  <time>2026-09-02T22:08:43Z</time>
  <course>40.59</course>
  <speed>1.019803902718557</speed>
  <fix>3d</fix>
</trkpt>
<trkpt lat="33.8099686" lon="-118.3953723">
  <ele>-24.4</ele>
  <time>2026-09-02T22:08:43Z</time>
  <course>310.56</course>
  <speed>1.0</speed>
  <fix>3d</fix>
</trkpt>
<trkpt lat="33.8099702" lon="-118.3953743">
  <ele>-25.012</ele>
  <time>2026-09-02T22:08:43Z</time>
  <course>40.71</course>
  <speed>1.019803902718557</speed>
  <fix>3d</fix>
</trkpt>
<trkpt lat="33.8099686" lon="-118.3953723">
  <ele>-24.4</ele>
  <time>2026-09-02T22:08:43Z</time>
  <course>310.56</course>
  <speed>1.0</speed>
  <fix>3d</fix>
</trkpt>
<trkpt lat="33.8099708" lon="-118.3953752">
  <ele>-25.012</ele>
  <time>2026-09-02T22:08:43Z</time>
  <course>40.82</course>
  <speed>1.019803902718557</speed>
  <fix>3d</fix>
</trkpt>
<trkpt lat="33.8099698" lon="-118.395374">
  <ele>-24.4</ele>
  <time>2026-09-02T22:08:43Z</time>
  <course>310.72</course>
  <speed>1.0</speed>
  <fix>3d</fix>
</trkpt>
<trkpt lat="33.8099714" lon="-118.395376">
  <ele>-25.011</ele>
  <time>2026-09-02T22:08:43Z</time>
  <course>40.94</course>
  <speed>1.019803902718557</speed>
  <fix>3d</fix>
</trkpt>
<trkpt lat="33.8099698" lon="-118.395374">
  <ele>-24.4</ele>
  <time>2026-09-02T22:08:43Z</time>
  <course>310.72</course>
  <speed>1.0</speed>
  <fix>3d</fix>
</trkpt>
<trkpt lat="33.809972" lon="-118.3953768">
  <ele>-25.011</ele>
  <time>2026-09-02T22:08:43Z</time>
  <course>41.05</course>
  <speed>1.019803902718557</speed>
  <fix>3d</fix>
</trkpt>
<trkpt lat="33.809971" lon="-118.3953757">
  <ele>-24.4</ele>
  <time>2026-09-02T22:08:43Z</time>
  <course>310.93</course>
  <speed>1.0</speed>
  <fix>3d</fix>
</trkpt>
<trkpt lat="33.8099726" lon="-118.3953776">
  <ele>-25.01</ele>
  <time>2026-09-02T22:08:43Z</time>
  <course>41.16</course>
  <speed>1.0123734488813898</speed>
  <fix>3d</fix>
</trkpt>
<trkpt lat="33.809971" lon="-118.3953757">
  <ele>-24.4</ele>
  <time>2026-09-02T22:08:43Z</time>
  <course>310.93</course>
  <speed>1.0</speed>
  <fix>3d</fix>
</trkpt>
<trkpt lat="33.8099732" lon="-118.3953784">
  <ele>-25.009</ele>
  <time>2026-09-02T22:08:43Z</time>
  <course>41.28</course>
  <speed>1.0191172650877818</speed>
  <fix>3d</fix>
</trkpt>
<trkpt lat="33.8099722" lon="-118.3953773">
  <ele>-24.4</ele>
  <time>2026-09-02T22:08:43Z</time>
  <course>311.17</course>
  <speed>1.0</speed>
  <fix>3d</fix>
</trkpt>
<trkpt lat="33.8099738" lon="-118.3953792">
  <ele>-25.009</ele>
  <time>2026-09-02T22:08:43Z</time>
  <course>41.4</course>
  <speed>1.0191172650877818</speed>
  <fix>3d</fix>
</trkpt>
<trkpt lat="33.8099722" lon="-118.3953773">
  <ele>-24.4</ele>
  <time>2026-09-02T22:08:43Z</time>
  <course>311.17</course>
  <speed>1.0</speed>
  <fix>3d</fix>
</trkpt>
<trkpt lat="33.8099744" lon="-118.3953801">
  <ele>-25.01</ele>
  <time>2026-09-02T22:08:43Z</time>
  <course>41.51</course>
  <speed>1.0191172650877818</speed>
  <fix>3d</fix>
</trkpt>
<trkpt lat="33.8099733" lon="-118.395379">
  <ele>-24.4</ele>
  <time>2026-09-02T22:08:43Z</time>
  <course>311.4</course>
  <speed>1.0</speed>
  <fix>3d</fix>
</trkpt>
<trkpt lat="33.809975" lon="-118.3953809">
  <ele>-25.011</ele>
  <time>2026-09-02T22:08:43Z</time>
  <course>41.63</course>
  <speed>1.0191172650877818</speed>
  <fix>3d</fix>
</trkpt>
<trkpt lat="33.8099733" lon="-118.395379">
  <ele>-24.4</ele>
  <time>2026-09-02T22:08:43Z</time>
  <course>311.4</course>
  <speed>1.0</speed>
  <fix>3d</fix>
</trkpt>
<trkpt lat="33.8099756" lon="-118.3953817">
  <ele>-25.012</ele>
  <time>2026-09-02T22:08:43Z</time>
  <course>41.74</course>
  <speed>1.0191172650877818</speed>
  <fix>3d</fix>
</trkpt>
<trkpt lat="33.8099745" lon="-118.3953806">
  <ele>-24.41</ele>
  <time>2026-09-02T22:08:43Z</time>
  <course>311.68</course>
  <speed>1.0</speed>
  <fix>3d</fix>
</trkpt>
<trkpt lat="33.8099762" lon="-118.3953825">
  <ele>-25.014</ele>
  <time>2026-09-02T22:08:43Z</time>
  <course>41.85</course>
  <speed>1.0117806086301515</speed>
  <fix>3d</fix>
</trkpt>
<trkpt lat="33.8099745" lon="-118.3953806">
  <ele>-24.41</ele>
  <time>2026-09-02T22:08:43Z</time>
  <course>311.68</course>
  <speed>1.0</speed>
  <fix>3d</fix>
</trkpt>
<trkpt lat="33.8099768" lon="-118.3953833">
  <ele>-25.015</ele>
  <time>2026-09-02T22:08:43Z</time>
  <course>41.97</course>
  <speed>1.0186265262597474</speed>
  <fix>3d</fix>
</trkpt>
<trkpt lat="33.8099757" lon="-118.3953822">
  <ele>-24.41</ele>
  <time>2026-09-02T22:08:43Z</time>
  <course>312.02</course>
  <speed>1.0</speed>
  <fix>3d</fix>
</trkpt>
<trkpt lat="33.8099774" lon="-118.3953841">
  <ele>-25.017</ele>
  <time>2026-09-02T22:08:43Z</time>
  <course>42.08</course>
  <speed>1.0186265262597474</speed>
  <fix>3d</fix>
</trkpt>
<trkpt lat="33.8099757" lon="-118.3953822">
  <ele>-24.41</ele>
  <time>2026-09-02T22:08:43Z</time>
  <course>312.02</course>
  <speed>1.0</speed>
  <fix>3d</fix>
</trkpt>
<trkpt lat="33.809978" lon="-118.3953849">
  <ele>-25.018</ele>
  <time>2026-09-02T22:08:43Z</time>
  <course>42.2</course>
  <speed>1.0186265262597474</speed>
  <fix>3d</fix>
</trkpt>
<trkpt lat="33.8099769" lon="-118.3953838">
  <ele>-24.41</ele>
  <time>2026-09-02T22:08:43Z</time>
  <course>312.35</course>
  <speed>1.0</speed>
  <fix>3d</fix>
</trkpt>
<trkpt lat="33.8099786" lon="-118.3953857">
  <ele>-25.019</ele>
  <time>2026-09-02T22:08:43Z</time>
  <course>42.31</course>
  <speed>1.0186265262597474</speed>
  <fix>3d</fix>
</trkpt>
<trkpt lat="33.8099769" lon="-118.3953838">
  <ele>-24.41</ele>
  <time>2026-09-02T22:08:43Z</time>
  <course>312.35</course>
  <speed>1.0</speed>
  <fix>3d</fix>
</trkpt>
<trkpt lat="33.8099792" lon="-118.3953865">
  <ele>-25.019</ele>
  <time>2026-09-02T22:08:43Z</time>
  <course>42.42</course>
  <speed>1.0186265262597474</speed>
  <fix>3d</fix>
</trkpt>
<trkpt lat="33.8099781" lon="-118.3953854">
  <ele>-24.41</ele>
  <time>2026-09-02T22:08:43Z</time>
  <course>312.65</course>
  <speed>1.0</speed>
  <fix>3d</fix>
</trkpt>
<trkpt lat="33.8099798" lon="-118.3953873">
  <ele>-25.017</ele>
  <time>2026-09-02T22:08:43Z</time>
  <course>42.54</course>
  <speed>1.0183319694480775</speed>
  <fix>3d</fix>
</trkpt>
<trkpt lat="33.8099781" lon="-118.3953854">
  <ele>-24.41</ele>
  <time>2026-09-02T22:08:43Z</time>
  <course>312.65</course>
  <speed>1.0</speed>
  <fix>3d</fix>
</trkpt>
<trkpt lat="33.8099804" lon="-118.3953881">
  <ele>-25.014</ele>
  <time>2026-09-02T22:08:43Z</time>
  <course>42.66</course>
  <speed>1.0183319694480775</speed>
  <fix>3d</fix>
</trkpt>
<trkpt lat="33.8099794" lon="-118.395387">
  <ele>-24.41</ele>
  <time>2026-09-02T22:08:43Z</time>
  <course>312.92</course>
  <speed>1.0</speed>
  <fix>3d</fix>
</trkpt>
<trkpt lat="33.809981" lon="-118.3953889">
  <ele>-25.012</ele>
  <time>2026-09-02T22:08:43Z</time>
  <course>42.77</course>
  <speed>1.0183319694480775</speed>
  <fix>3d</fix>
</trkpt>
<trkpt lat="33.8099794" lon="-118.395387">
  <ele>-24.41</ele>
  <time>2026-09-02T22:08:43Z</time>
  <course>312.92</course>
  <speed>1.0</speed>
  <fix>3d</fix>
</trkpt>
<trkpt lat="33.8099816" lon="-118.3953897">
  <ele>-25.011</ele>
  <time>2026-09-02T22:08:43Z</time>
  <course>42.88</course>
  <speed>1.0183319694480775</speed>
  <fix>3d</fix>
</trkpt>
<trkpt lat="33.8099806" lon="-118.3953886">
  <ele>-24.4</ele>
  <time>2026-09-02T22:08:43Z</time>
  <course>313.15</course>
  <speed>1.0</speed>
  <fix>3d</fix>
</trkpt>
<trkpt lat="33.8099822" lon="-118.3953905">
  <ele>-25.01</ele>
  <time>2026-09-02T22:08:43Z</time>
  <course>43.0</course>
  <speed>1.0183319694480775</speed>
  <fix>3d</fix>
</trkpt>
<trkpt lat="33.8099806" lon="-118.3953886">
  <ele>-24.4</ele>
  <time>2026-09-02T22:08:43Z</time>
  <course>313.15</course>
  <speed>1.0</speed>
  <fix>3d</fix>
</trkpt>
<trkpt lat="33.8099829" lon="-118.3953912">
  <ele>-25.009</ele>
  <time>2026-09-02T22:08:43Z</time>
  <course>43.12</course>
  <speed>1.0183319694480775</speed>
  <fix>3d</fix>
</trkpt>
<trkpt lat="33.8099818" lon="-118.3953902">
  <ele>-24.4</ele>
  <time>2026-09-02T22:08:43Z</time>
  <course>313.36</course>
  <speed>1.0</speed>
  <fix>3d</fix>
</trkpt>
<trkpt lat="33.8099835" lon="-118.395392">
  <ele>-25.008</ele>
  <time>2026-09-02T22:08:43Z</time>
  <course>43.23</course>
  <speed>1.0111874208078342</speed>
  <fix>3d</fix>
</trkpt>
<trkpt lat="33.8099818" lon="-118.3953902">
  <ele>-24.4</ele>
  <time>2026-09-02T22:08:43Z</time>
  <course>313.36</course>
  <speed>1.0</speed>
  <fix>3d</fix>
</trkpt>
<trkpt lat="33.8099841" lon="-118.3953928">
  <ele>-25.009</ele>
  <time>2026-09-02T22:08:43Z</time>
  <course>43.35</course>
  <speed>1.0111874208078342</speed>
  <fix>3d</fix>
</trkpt>
<trkpt lat="33.8099831" lon="-118.3953918">
  <ele>-24.4</ele>
  <time>2026-09-02T22:08:43Z</time>
  <course>313.58</course>
  <speed>1.0</speed>
  <fix>3d</fix>
</trkpt>
<trkpt lat="33.8099847" lon="-118.3953936">
  <ele>-25.011</ele>
  <time>2026-09-02T22:08:43Z</time>
  <course>43.46</course>
  <speed>1.0111874208078342</speed>
  <fix>3d</fix>
</trkpt>
<trkpt lat="33.8099831" lon="-118.3953918">
  <ele>-24.4</ele>
  <time>2026-09-02T22:08:43Z</time>
  <course>313.58</course>
  <speed>1.0</speed>
  <fix>3d</fix>
</trkpt>
<trkpt lat="33.8099854" lon="-118.3953944">
  <ele>-25.013</ele>
  <time>2026-09-02T22:08:43Z</time>
  <course>43.57</course>
  <speed>1.0111874208078342</speed>
  <fix>3d</fix>
</trkpt>
<trkpt lat="33.8099844" lon="-118.3953933">
  <ele>-24.41</ele>
  <time>2026-09-02T22:08:43Z</time>
  <course>313.81</course>
  <speed>1.0</speed>
  <fix>3d</fix>
</trkpt>
<trkpt lat="33.809986" lon="-118.3953952">
  <ele>-25.014</ele>
  <time>2026-09-02T22:08:43Z</time>
  <course>43.69</course>
  <speed>1.0182337649086284</speed>
  <fix>3d</fix>
</trkpt>
<trkpt lat="33.8099844" lon="-118.3953933">
  <ele>-24.41</ele>
  <time>2026-09-02T22:08:43Z</time>
  <course>313.81</course>
  <speed>1.0</speed>
  <fix>3d</fix>
</trkpt>
<trkpt lat="33.8099866" lon="-118.3953959">
  <ele>-25.015</ele>
  <time>2026-09-02T22:08:43Z</time>
  <course>43.8</course>
  <speed>1.0182337649086284</speed>
  <fix>3d</fix>
</trkpt>
<trkpt lat="33.8099856" lon="-118.3953948">
  <ele>-24.41</ele>
  <time>2026-09-02T22:08:43Z</time>
  <course>313.98</course>
  <speed>1.0</speed>
  <fix>3d</fix>
</trkpt>
<trkpt lat="33.8099872" lon="-118.3953967">
  <ele>-25.016</ele>
  <time>2026-09-02T22:08:43Z</time>
  <course>43.92</course>
  <speed>1.0182337649086284</speed>
  <fix>3d</fix>
</trkpt>
<trkpt lat="33.8099856" lon="-118.3953948">
  <ele>-24.41</ele>
  <time>2026-09-02T22:08:43Z</time>
  <course>313.98</course>
  <speed>1.0</speed>
  <fix>3d</fix>
</trkpt>
<trkpt lat="33.8099879" lon="-118.3953975">
  <ele>-25.017</ele>
  <time>2026-09-02T22:08:43Z</time>
  <course>44.03</course>
  <speed>1.0182337649086284</speed>
  <fix>3d</fix>
</trkpt>
<trkpt lat="33.8099869" lon="-118.3953964">
  <ele>-24.41</ele>
  <time>2026-09-02T22:08:43Z</time>
  <course>314.11</course>
  <speed>0.99</speed>
  <fix>3d</fix>
</trkpt>
<trkpt lat="33.8099885" lon="-118.3953983">
  <ele>-25.018</ele>
  <time>2026-09-02T22:08:43Z</time>
  <course>44.14</course>
  <speed>1.0182337649086284</speed>
  <fix>3d</fix>
</trkpt>
<trkpt lat="33.8099869" lon="-118.3953964">
  <ele>-24.41</ele>
  <time>2026-09-02T22:08:43Z</time>
  <course>314.11</course>
  <speed>0.99</speed>
  <fix>3d</fix>
</trkpt>
<trkpt lat="33.8099891" lon="-118.395399">
  <ele>-25.017</ele>
  <time>2026-09-02T22:08:43Z</time>
  <course>44.26</course>
  <speed>1.0111874208078342</speed>
  <fix>3d</fix>
</trkpt>
<trkpt lat="33.8099881" lon="-118.395398">
  <ele>-24.41</ele>
  <time>2026-09-02T22:08:43Z</time>
  <course>314.23</course>
  <speed>0.99</speed>
  <fix>3d</fix>
</trkpt>
<trkpt lat="33.8099898" lon="-118.3953998">
  <ele>-25.016</ele>
  <time>2026-09-02T22:08:43Z</time>
  <course>44.37</course>
  <speed>1.0111874208078342</speed>
  <fix>3d</fix>
</trkpt>
<trkpt lat="33.8099881" lon="-118.395398">
  <ele>-24.41</ele>
  <time>2026-09-02T22:08:43Z</time>
  <course>314.23</course>
  <speed>0.99</speed>
  <fix>3d</fix>
</trkpt>
<trkpt lat="33.8099904" lon="-118.3954006">
  <ele>-25.015</ele>
  <time>2026-09-02T22:08:43Z</time>
  <course>44.49</course>
  <speed>1.0111874208078342</speed>
  <fix>3d</fix>
</trkpt>
<trkpt lat="33.8099894" lon="-118.3953995">
  <ele>-24.41</ele>
  <time>2026-09-02T22:08:43Z</time>
  <course>314.39</course>
  <speed>0.99</speed>
  <fix>3d</fix>
</trkpt>
<trkpt lat="33.809991" lon="-118.3954013">
  <ele>-25.012</ele>
  <time>2026-09-02T22:08:43Z</time>
  <course>44.6</course>
  <speed>1.0111874208078342</speed>
  <fix>3d</fix>
</trkpt>
<trkpt lat="33.8099894" lon="-118.3953995">
  <ele>-24.41</ele>
  <time>2026-09-02T22:08:43Z</time>
  <course>314.39</course>
  <speed>0.99</speed>
  <fix>3d</fix>
</trkpt>
<trkpt lat="33.8099917" lon="-118.3954021">
  <ele>-25.011</ele>
  <time>2026-09-02T22:08:43Z</time>
  <course>44.72</course>
  <speed>1.0183319694480775</speed>
  <fix>3d</fix>
</trkpt>
<trkpt lat="33.8099906" lon="-118.395401">
  <ele>-24.41</ele>
  <time>2026-09-02T22:08:43Z</time>
  <course>314.59</course>
  <speed>0.99</speed>
  <fix>3d</fix>
</trkpt>
<trkpt lat="33.8099923" lon="-118.3954029">
  <ele>-25.011</ele>
  <time>2026-09-02T22:08:43Z</time>
  <course>44.83</course>
  <speed>1.0183319694480775</speed>
  <fix>3d</fix>
</trkpt>
<trkpt lat="33.8099906" lon="-118.395401">
  <ele>-24.41</ele>
  <time>2026-09-02T22:08:43Z</time>
  <course>314.59</course>
  <speed>0.99</speed>
  <fix>3d</fix>
</trkpt>
<trkpt lat="33.8099929" lon="-118.3954036">
  <ele>-25.012</ele>
  <time>2026-09-02T22:08:43Z</time>
  <course>44.95</course>
  <speed>1.0183319694480775</speed>
  <fix>3d</fix>
</trkpt>
<trkpt lat="33.8099919" lon="-118.3954025">
  <ele>-24.41</ele>
  <time>2026-09-02T22:08:43Z</time>
  <course>314.79</course>
  <speed>0.99</speed>
  <fix>3d</fix>
</trkpt>
<trkpt lat="33.8099936" lon="-118.3954044">
  <ele>-25.013</ele>
  <time>2026-09-02T22:08:43Z</time>
  <course>45.06</course>
  <speed>1.0183319694480775</speed>
  <fix>3d</fix>
</trkpt>
<trkpt lat="33.8099919" lon="-118.3954025">
  <ele>-24.41</ele>
  <time>2026-09-02T22:08:43Z</time>
  <course>314.79</course>
  <speed>0.99</speed>
  <fix>3d</fix>
</trkpt>
<trkpt lat="33.8099942" lon="-118.3954052">
  <ele>-25.014</ele>
  <time>2026-09-02T22:08:43Z</time>
  <course>45.17</course>
  <speed>1.0113851887386922</speed>
  <fix>3d</fix>
</trkpt>
<trkpt lat="33.8099931" lon="-118.3954041">
  <ele>-24.41</ele>
  <time>2026-09-02T22:08:43Z</time>
  <course>314.97</course>
  <speed>0.99</speed>
  <fix>3d</fix>
</trkpt>
<trkpt lat="33.8099948" lon="-118.3954059">
  <ele>-25.014</ele>
  <time>2026-09-02T22:08:43Z</time>
  <course>45.29</course>
  <speed>1.0113851887386922</speed>
  <fix>3d</fix>
</trkpt>
<trkpt lat="33.8099931" lon="-118.3954041">
  <ele>-24.41</ele>
  <time>2026-09-02T22:08:43Z</time>
  <course>314.97</course>
  <speed>0.99</speed>
  <fix>3d</fix>
</trkpt>
<trkpt lat="33.8099955" lon="-118.3954067">
  <ele>-25.014</ele>
  <time>2026-09-02T22:08:43Z</time>
  <course>45.41</course>
  <speed>1.0186265262597474</speed>
  <fix>3d</fix>
</trkpt>
<trkpt lat="33.8099944" lon="-118.3954056">
  <ele>-24.41</ele>
  <time>2026-09-02T22:08:43Z</time>
  <course>315.18</course>
  <speed>0.99</speed>
  <fix>3d</fix>
</trkpt>
<trkpt lat="33.8099961" lon="-118.3954074">
  <ele>-25.014</ele>
  <time>2026-09-02T22:08:43Z</time>
  <course>45.52</course>
  <speed>1.0186265262597474</speed>
  <fix>3d</fix>
</trkpt>
<trkpt lat="33.8099944" lon="-118.3954056">
  <ele>-24.41</ele>
  <time>2026-09-02T22:08:43Z</time>
  <course>315.18</course>
  <speed>0.99</speed>
  <fix>3d</fix>
</trkpt>
<trkpt lat="33.8099968" lon="-118.3954082">
  <ele>-25.013</ele>
  <time>2026-09-02T22:08:43Z</time>
  <course>45.64</course>
  <speed>1.0186265262597474</speed>
  <fix>3d</fix>
</trkpt>
<trkpt lat="33.8099957" lon="-118.3954071">
  <ele>-24.41</ele>
  <time>2026-09-02T22:08:43Z</time>
  <course>315.45</course>
  <speed>0.99</speed>
  <fix>3d</fix>
</trkpt>
<trkpt lat="33.8099974" lon="-118.3954089">
  <ele>-25.014</ele>
  <time>2026-09-02T22:08:43Z</time>
  <course>45.75</course>
  <speed>1.0186265262597474</speed>
  <fix>3d</fix>
</trkpt>
<trkpt lat="33.8099957" lon="-118.3954071">
  <ele>-24.41</ele>
  <time>2026-09-02T22:08:43Z</time>
  <course>315.45</course>
  <speed>0.99</speed>
  <fix>3d</fix>
</trkpt>
<trkpt lat="33.8099981" lon="-118.3954097">
  <ele>-25.014</ele>
  <time>2026-09-02T22:08:43Z</time>
  <course>45.86</course>
  <speed>1.0117806086301515</speed>
  <fix>3d</fix>
</trkpt>
<trkpt lat="33.809997" lon="-118.3954087">
  <ele>-24.41</ele>
  <time>2026-09-02T22:08:43Z</time>
  <course>315.71</course>
  <speed>0.99</speed>
  <fix>3d</fix>
</trkpt>
<trkpt lat="33.8099987" lon="-118.3954104">
  <ele>-25.013</ele>
  <time>2026-09-02T22:08:43Z</time>
  <course>45.98</course>
  <speed>1.0117806086301515</speed>
  <fix>3d</fix>
</trkpt>
<trkpt lat="33.809997" lon="-118.3954087">
  <ele>-24.41</ele>
  <time>2026-09-02T22:08:43Z</time>
  <course>315.71</course>
  <speed>0.99</speed>
  <fix>3d</fix>
</trkpt>
<trkpt lat="33.8099994" lon="-118.3954112">
  <ele>-25.012</ele>
  <time>2026-09-02T22:08:43Z</time>
  <course>46.09</course>
  <speed>1.0191172650877818</speed>
  <fix>3d</fix>
</trkpt>
<trkpt lat="33.8099982" lon="-118.3954102">
  <ele>-24.41</ele>
  <time>2026-09-02T22:08:43Z</time>
  <course>315.98</course>
  <speed>0.99</speed>
  <fix>3d</fix>
</trkpt>
<trkpt lat="33.81" lon="-118.3954119">
  <ele>-25.011</ele>
  <time>2026-09-02T22:08:43Z</time>
  <course>46.21</course>
  <speed>1.0191172650877818</speed>
  <fix>3d</fix>
</trkpt>
<trkpt lat="33.8099982" lon="-118.3954102">
  <ele>-24.41</ele>
  <time>2026-09-02T22:08:43Z</time>
  <course>315.98</course>
  <speed>0.99</speed>
  <fix>3d</fix>
</trkpt>
<trkpt lat="33.8100007" lon="-118.3954127">
  <ele>-25.011</ele>
  <time>2026-09-02T22:08:43Z</time>
  <course>46.32</course>
  <speed>1.0191172650877818</speed>
  <fix>3d</fix>
</trkpt>
<trkpt lat="33.8099995" lon="-118.3954117">
  <ele>-24.41</ele>
  <time>2026-09-02T22:08:43Z</time>
  <course>316.28</course>
  <speed>0.99</speed>
  <fix>3d</fix>
</trkpt>
<trkpt lat="33.8100013" lon="-118.3954134">
  <ele>-25.011</ele>
  <time>2026-09-02T22:08:43Z</time>
  <course>46.44</course>
  <speed>1.0123734488813898</speed>
  <fix>3d</fix>
</trkpt>
<trkpt lat="33.8099995" lon="-118.3954117">
  <ele>-24.41</ele>
  <time>2026-09-02T22:08:43Z</time>
  <course>316.28</course>
  <speed>0.99</speed>
  <fix>3d</fix>
</trkpt>
<trkpt lat="33.810002" lon="-118.3954142">
  <ele>-25.012</ele>
  <time>2026-09-02T22:08:43Z</time>
  <course>46.55</course>
  <speed>1.0123734488813898</speed>
  <fix>3d</fix>
</trkpt>
<trkpt lat="33.8100009" lon="-118.3954131">
  <ele>-24.41</ele>
  <time>2026-09-02T22:08:43Z</time>
  <course>316.62</course>
  <speed>0.99</speed>
  <fix>3d</fix>
</trkpt>
<trkpt lat="33.8100026" lon="-118.3954149">
  <ele>-25.013</ele>
  <time>2026-09-02T22:08:43Z</time>
  <course>46.67</course>
  <speed>1.0123734488813898</speed>
  <fix>3d</fix>
</trkpt>
<trkpt lat="33.8100009" lon="-118.3954131">
  <ele>-24.41</ele>
  <time>2026-09-02T22:08:43Z</time>
  <course>316.62</course>
  <speed>0.99</speed>
  <fix>3d</fix>
</trkpt>
<trkpt lat="33.8100033" lon="-118.3954157">
  <ele>-25.014</ele>
  <time>2026-09-02T22:08:43Z</time>
  <course>46.78</course>
  <speed>1.019803902718557</speed>
  <fix>3d</fix>
</trkpt>
<trkpt lat="33.8100022" lon="-118.3954146">
  <ele>-24.41</ele>
  <time>2026-09-02T22:08:43Z</time>
  <course>316.89</course>
  <speed>0.99</speed>
  <fix>3d</fix>
</trkpt>
<trkpt lat="33.8100039" lon="-118.3954164">
  <ele>-25.015</ele>
  <time>2026-09-02T22:08:43Z</time>
  <course>46.9</course>
  <speed>1.019803902718557</speed>
  <fix>3d</fix>
</trkpt>
<trkpt lat="33.8100022" lon="-118.3954146">
  <ele>-24.41</ele>
  <time>2026-09-02T22:08:43Z</time>
  <course>316.89</course>
  <speed>0.99</speed>
  <fix>3d</fix>
</trkpt>
<trkpt lat="33.8100046" lon="-118.3954171">
  <ele>-25.015</ele>
  <time>2026-09-02T22:08:43Z</time>
  <course>47.01</course>
  <speed>1.019803902718557</speed>
  <fix>3d</fix>
</trkpt>
<trkpt lat="33.8100035" lon="-118.3954161">
  <ele>-24.41</ele>
  <time>2026-09-02T22:08:43Z</time>
  <course>317.07</course>
  <speed>0.99</speed>
  <fix>3d</fix>
</trkpt>
<trkpt lat="33.8100053" lon="-118.3954179">
  <ele>-25.015</ele>
  <time>2026-09-02T22:08:43Z</time>
  <course>47.12</course>
  <speed>1.019803902718557</speed>
  <fix>3d</fix>
</trkpt>
<trkpt lat="33.8100035" lon="-118.3954161">
  <ele>-24.41</ele>
  <time>2026-09-02T22:08:43Z</time>
  <course>317.07</course>
  <speed>0.99</speed>
  <fix>3d</fix>
</trkpt>
<trkpt lat="33.8100059" lon="-118.3954186">
  <ele>-25.014</ele>
  <time>2026-09-02T22:08:43Z</time>
  <course>47.24</course>
  <speed>1.019803902718557</speed>
  <fix>3d</fix>
</trkpt>
<trkpt lat="33.8100048" lon="-118.3954176">
  <ele>-24.41</ele>
  <time>2026-09-02T22:08:43Z</time>
  <course>317.24</course>
  <speed>0.99</speed>
  <fix>3d</fix>
</trkpt>
<trkpt lat="33.8100066" lon="-118.3954193">
  <ele>-25.013</ele>
  <time>2026-09-02T22:08:43Z</time>
  <course>47.35</course>
  <speed>1.0131633629380803</speed>
  <fix>3d</fix>
</trkpt>
<trkpt lat="33.8100048" lon="-118.3954176">
  <ele>-24.41</ele>
  <time>2026-09-02T22:08:43Z</time>
  <course>317.24</course>
  <speed>0.99</speed>
  <fix>3d</fix>
</trkpt>
<trkpt lat="33.8100072" lon="-118.39542">
  <ele>-25.014</ele>
  <time>2026-09-02T22:08:43Z</time>
  <course>47.47</course>
  <speed>1.0131633629380803</speed>
  <fix>3d</fix>
</trkpt>
<trkpt lat="33.8100061" lon="-118.395419">
  <ele>-24.41</ele>
  <time>2026-09-02T22:08:43Z</time>
  <course>317.45</course>
  <speed>0.99</speed>
  <fix>3d</fix>
</trkpt>
<trkpt lat="33.8100079" lon="-118.3954208">
  <ele>-25.015</ele>
  <time>2026-09-02T22:08:43Z</time>
  <course>47.58</course>
  <speed>1.0131633629380803</speed>
  <fix>3d</fix>
</trkpt>
<trkpt lat="33.8100061" lon="-118.395419">
  <ele>-24.41</ele>
  <time>2026-09-02T22:08:43Z</time>
  <course>317.45</course>
  <speed>0.99</speed>
  <fix>3d</fix>
</trkpt>
<trkpt lat="33.8100086" lon="-118.3954215">
  <ele>-25.016</ele>
  <time>2026-09-02T22:08:43Z</time>
  <course>47.7</course>
  <speed>1.0206860437960343</speed>
  <fix>3d</fix>
</trkpt>
<trkpt lat="33.8100074" lon="-118.3954205">
  <ele>-24.41</ele>
  <time>2026-09-02T22:08:43Z</time>
  <course>317.66</course>
  <speed>0.99</speed>
  <fix>3d</fix>
</trkpt>
<trkpt lat="33.8100092" lon="-118.3954222">
  <ele>-25.017</ele>
  <time>2026-09-02T22:08:43Z</time>
  <course>47.81</course>
  <speed>1.0206860437960343</speed>
  <fix>3d</fix>
</trkpt>
<trkpt lat="33.8100074" lon="-118.3954205">
  <ele>-24.41</ele>
  <time>2026-09-02T22:08:43Z</time>
  <course>317.66</course>
  <speed>0.99</speed>
  <fix>3d</fix>
</trkpt>
<trkpt lat="33.8100099" lon="-118.3954229">
  <ele>-25.016</ele>
  <time>2026-09-02T22:08:43Z</time>
  <course>47.93</course>
  <speed>1.0206860437960343</speed>
  <fix>3d</fix>
</trkpt>
<trkpt lat="33.8100088" lon="-118.395422">
  <ele>-24.41</ele>
  <time>2026-09-02T22:08:43Z</time>
  <course>317.9</course>
  <speed>0.99</speed>
  <fix>3d</fix>
</trkpt>
<trkpt lat="33.8100106" lon="-118.3954237">
  <ele>-25.016</ele>
  <time>2026-09-02T22:08:43Z</time>
  <course>48.04</course>
  <speed>1.0141498903022177</speed>
  <fix>3d</fix>
</trkpt>
<trkpt lat="33.8100088" lon="-118.395422">
  <ele>-24.41</ele>
  <time>2026-09-02T22:08:43Z</time>
  <course>317.9</course>
  <speed>0.99</speed>
  <fix>3d</fix>
</trkpt>
<trkpt lat="33.8100112" lon="-118.3954244">
  <ele>-25.014</ele>
  <time>2026-09-02T22:08:43Z</time>
  <course>48.15</course>
  <speed>1.0141498903022177</speed>
  <fix>3d</fix>
</trkpt>
<trkpt lat="33.8100101" lon="-118.3954234">
  <ele>-24.41</ele>
  <time>2026-09-02T22:08:43Z</time>
  <course>318.19</course>
  <speed>0.99</speed>
  <fix>3d</fix>
</trkpt>
<trkpt lat="33.8100119" lon="-118.3954251">
  <ele>-25.013</ele>
  <time>2026-09-02T22:08:43Z</time>
  <course>48.27</course>
  <speed>1.0141498903022177</speed>
  <fix>3d</fix>
</trkpt>
<trkpt lat="33.8100101" lon="-118.3954234">
  <ele>-24.41</ele>
  <time>2026-09-02T22:08:43Z</time>
  <course>318.19</course>
  <speed>0.99</speed>
  <fix>3d</fix>
</trkpt>
<trkpt lat="33.8100126" lon="-118.3954258">
  <ele>-25.012</ele>
  <time>2026-09-02T22:08:43Z</time>
  <course>48.38</course>
  <speed>1.0141498903022177</speed>
  <fix>3d</fix>
</trkpt>
<trkpt lat="33.8100115" lon="-118.3954249">
  <ele>-24.4</ele>
  <time>2026-09-02T22:08:43Z</time>
  <course>318.46</course>
  <speed>0.99</speed>
  <fix>3d</fix>
</trkpt>
<trkpt lat="33.8100133" lon="-118.3954265">
  <ele>-25.011</ele>
  <time>2026-09-02T22:08:43Z</time>
  <course>48.5</course>
  <speed>1.0217631819555841</speed>
  <fix>3d</fix>
</trkpt>
<trkpt lat="33.8100115" lon="-118.3954249">
  <ele>-24.4</ele>
  <time>2026-09-02T22:08:43Z</time>
  <course>318.46</course>
  <speed>0.99</speed>
  <fix>3d</fix>
</trkpt>
<trkpt lat="33.810014" lon="-118.3954273">
  <ele>-25.009</ele>
  <time>2026-09-02T22:08:43Z</time>
  <course>48.61</course>
  <speed>1.0217631819555841</speed>
  <fix>3d</fix>
</trkpt>
<trkpt lat="33.8100128" lon="-118.3954263">
  <ele>-24.4</ele>
  <time>2026-09-02T22:08:43Z</time>
  <course>318.72</course>
  <speed>0.99</speed>
  <fix>3d</fix>
</trkpt>
<trkpt lat="33.8100146" lon="-118.395428">
  <ele>-25.009</ele>
  <time>2026-09-02T22:08:43Z</time>
  <course>48.73</course>
  <speed>1.015332457867865</speed>
  <fix>3d</fix>
</trkpt>
<trkpt lat="33.8100128" lon="-118.3954263">
  <ele>-24.4</ele>
  <time>2026-09-02T22:08:43Z</time>
  <course>318.72</course>
  <speed>0.99</speed>
  <fix>3d</fix>
</trkpt>
<trkpt lat="33.8100153" lon="-118.3954287">
  <ele>-25.009</ele>
  <time>2026-09-02T22:08:43Z</time>
  <course>48.84</course>
  <speed>1.015332457867865</speed>
  <fix>3d</fix>
</trkpt>
<trkpt lat="33.8100142" lon="-118.3954277">
  <ele>-24.4</ele>
  <time>2026-09-02T22:08:43Z</time>
  <course>318.98</course>
  <speed>0.99</speed>
  <fix>3d</fix>
</trkpt>
<trkpt lat="33.810016" lon="-118.3954294">
  <ele>-25.008</ele>
  <time>2026-09-02T22:08:43Z</time>
  <course>48.96</course>
  <speed>1.015332457867865</speed>
  <fix>3d</fix>
</trkpt>
<trkpt lat="33.8100142" lon="-118.3954277">
  <ele>-24.4</ele>
  <time>2026-09-02T22:08:43Z</time>
  <course>318.98</course>
  <speed>0.99</speed>
  <fix>3d</fix>
</trkpt>
<trkpt lat="33.8100167" lon="-118.3954301">
  <ele>-25.009</ele>
  <time>2026-09-02T22:08:43Z</time>
  <course>49.07</course>
  <speed>1.015332457867865</speed>
  <fix>3d</fix>
</trkpt>
<trkpt lat="33.8100155" lon="-118.3954291">
  <ele>-24.4</ele>
  <time>2026-09-02T22:08:43Z</time>
  <course>319.2</course>
  <speed>0.99</speed>
  <fix>3d</fix>
</trkpt>
<trkpt lat="33.8100174" lon="-118.3954308">
  <ele>-25.011</ele>
  <time>2026-09-02T22:08:43Z</time>
  <course>49.19</course>
  <speed>1.015332457867865</speed>
  <fix>3d</fix>
</trkpt>
<trkpt lat="33.8100155" lon="-118.3954291">
  <ele>-24.4</ele>
  <time>2026-09-02T22:08:43Z</time>
  <course>319.2</course>
  <speed>0.99</speed>
  <fix>3d</fix>
</trkpt>
<trkpt lat="33.810018" lon="-118.3954315">
  <ele>-25.013</ele>
  <time>2026-09-02T22:08:43Z</time>
  <course>49.3</course>
  <speed>1.015332457867865</speed>
  <fix>3d</fix>
</trkpt>
<trkpt lat="33.8100169" lon="-118.3954305">
  <ele>-24.41</ele>
  <time>2026-09-02T22:08:43Z</time>
  <course>319.41</course>
  <speed>0.99</speed>
  <fix>3d</fix>
</trkpt>
<trkpt lat="33.8100187" lon="-118.3954322">
  <ele>-25.015</ele>
  <time>2026-09-02T22:08:43Z</time>
  <course>49.42</course>
  <speed>1.0230347012687302</speed>
  <fix>3d</fix>
</trkpt>
<trkpt lat="33.8100169" lon="-118.3954305">
  <ele>-24.41</ele>
  <time>2026-09-02T22:08:43Z</time>
  <course>319.41</course>
  <speed>0.99</speed>
  <fix>3d</fix>
</trkpt>
<trkpt lat="33.8100194" lon="-118.3954329">
  <ele>-25.016</ele>
  <time>2026-09-02T22:08:43Z</time>
  <course>49.53</course>
  <speed>1.0230347012687302</speed>
  <fix>3d</fix>
</trkpt>
<trkpt lat="33.8100182" lon="-118.3954319">
  <ele>-24.41</ele>
  <time>2026-09-02T22:08:43Z</time>
  <course>319.6</course>
  <speed>0.99</speed>
  <fix>3d</fix>
</trkpt>
<trkpt lat="33.8100201" lon="-118.3954336">
  <ele>-25.016</ele>
  <time>2026-09-02T22:08:43Z</time>
  <course>49.65</course>
  <speed>1.0167103815738285</speed>
  <fix>3d</fix>
</trkpt>
<trkpt lat="33.8100182" lon="-118.3954319">
  <ele>-24.41</ele>
  <time>2026-09-02T22:08:43Z</time>
  <course>319.6</course>
  <speed>0.99</speed>
  <fix>3d</fix>
</trkpt>
<trkpt lat="33.8100208" lon="-118.3954343">
  <ele>-25.017</ele>
  <time>2026-09-02T22:08:43Z</time>
  <course>49.76</course>
  <speed>1.0167103815738285</speed>
  <fix>3d</fix>
</trkpt>
<trkpt lat="33.8100195" lon="-118.3954333">
  <ele>-24.41</ele>
  <time>2026-09-02T22:08:43Z</time>
  <course>319.78</course>
  <speed>0.99</speed>
  <fix>3d</fix>
</trkpt>
<trkpt lat="33.8100215" lon="-118.395435">
  <ele>-25.017</ele>
  <time>2026-09-02T22:08:43Z</time>
  <course>49.87</course>
  <speed>1.0167103815738285</speed>
  <fix>3d</fix>
</trkpt>
<trkpt lat="33.8100195" lon="-118.3954333">
  <ele>-24.41</ele>
  <time>2026-09-02T22:08:43Z</time>
  <course>319.78</course>
  <speed>0.99</speed>
  <fix>3d</fix>
</trkpt>
<trkpt lat="33.8100221" lon="-118.3954357">
  <ele>-25.017</ele>
  <time>2026-09-02T22:08:43Z</time>
  <course>49.99</course>
  <speed>1.0167103815738285</speed>
  <fix>3d</fix>
</trkpt>
<trkpt lat="33.810021" lon="-118.3954347">
  <ele>-24.41</ele>
  <time>2026-09-02T22:08:43Z</time>
  <course>320.03</course>
  <speed>1.0</speed>
  <fix>3d</fix>
</trkpt>
<trkpt lat="33.8100228" lon="-118.3954364">
  <ele>-25.017</ele>
  <time>2026-09-02T22:08:43Z</time>
  <course>50.1</course>
  <speed>1.0244998779892558</speed>
  <fix>3d</fix>
</trkpt>
<trkpt lat="33.810021" lon="-118.3954347">
  <ele>-24.41</ele>
  <time>2026-09-02T22:08:43Z</time>
  <course>320.03</course>
  <speed>1.0</speed>
  <fix>3d</fix>
</trkpt>
<trkpt lat="33.8100235" lon="-118.3954371">
  <ele>-25.016</ele>
  <time>2026-09-02T22:08:43Z</time>
  <course>50.22</course>
  <speed>1.0244998779892558</speed>
  <fix>3d</fix>
</trkpt>
<trkpt lat="33.8100223" lon="-118.3954361">
  <ele>-24.41</ele>
  <time>2026-09-02T22:08:43Z</time>
  <course>320.29</course>
  <speed>1.0</speed>
  <fix>3d</fix>
</trkpt>
<trkpt lat="33.8100242" lon="-118.3954377">
  <ele>-25.014</ele>
  <time>2026-09-02T22:08:43Z</time>
  <course>50.33</course>
  <speed>1.0182828683622247</speed>
  <fix>3d</fix>
</trkpt>
<trkpt lat="33.8100223" lon="-118.3954361">
  <ele>-24.41</ele>
  <time>2026-09-02T22:08:43Z</time>
  <course>320.29</course>
  <speed>1.0</speed>
  <fix>3d</fix>
</trkpt>
<trkpt lat="33.8100249" lon="-118.3954384">
  <ele>-25.014</ele>
  <time>2026-09-02T22:08:43Z</time>
  <course>50.45</course>
  <speed>1.0182828683622247</speed>
  <fix>3d</fix>
</trkpt>
<trkpt lat="33.8100237" lon="-118.3954375">
  <ele>-24.41</ele>
  <time>2026-09-02T22:08:43Z</time>
  <course>320.53</course>
  <speed>1.0</speed>
  <fix>3d</fix>
</trkpt>
<trkpt lat="33.8100256" lon="-118.3954391">
  <ele>-25.012</ele>
  <time>2026-09-02T22:08:43Z</time>
  <course>50.56</course>
  <speed>1.0182828683622247</speed>
  <fix>3d</fix>
</trkpt>
<trkpt lat="33.8100237" lon="-118.3954375">
  <ele>-24.41</ele>
  <time>2026-09-02T22:08:43Z</time>
  <course>320.53</course>
  <speed>1.0</speed>
  <fix>3d</fix>
</trkpt>
<trkpt lat="33.8100263" lon="-118.3954398">
  <ele>-25.011</ele>
  <time>2026-09-02T22:08:43Z</time>
  <course>50.68</course>
  <speed>1.0182828683622247</speed>
  <fix>3d</fix>
</trkpt>
<trkpt lat="33.8100252" lon="-118.3954388">
  <ele>-24.4</ele>
  <time>2026-09-02T22:08:43Z</time>
  <course>320.81</course>
  <speed>1.0</speed>
  <fix>3d</fix>
</trkpt>
<trkpt lat="33.810027" lon="-118.3954405">
  <ele>-25.01</ele>
  <time>2026-09-02T22:08:43Z</time>
  <course>50.79</course>
  <speed>1.0182828683622247</speed>
  <fix>3d</fix>
</trkpt>
<trkpt lat="33.8100252" lon="-118.3954388">
  <ele>-24.4</ele>
  <time>2026-09-02T22:08:43Z</time>
  <course>320.81</course>
  <speed>1.0</speed>
  <fix>3d</fix>
</trkpt>
<trkpt lat="33.8100277" lon="-118.3954412">
  <ele>-25.009</ele>
  <time>2026-09-02T22:08:43Z</time>
  <course>50.91</course>
  <speed>1.0182828683622247</speed>
  <fix>3d</fix>
</trkpt>
<trkpt lat="33.8100266" lon="-118.3954402">
  <ele>-24.4</ele>
  <time>2026-09-02T22:08:43Z</time>
  <course>321.04</course>
  <speed>1.0</speed>
  <fix>3d</fix>
</trkpt>
<trkpt lat="33.8100284" lon="-118.3954418">
  <ele>-25.008</ele>
  <time>2026-09-02T22:08:43Z</time>
  <course>51.02</course>
  <speed>1.0182828683622247</speed>
  <fix>3d</fix>
</trkpt>
<trkpt lat="33.8100266" lon="-118.3954402">
  <ele>-24.4</ele>
  <time>2026-09-02T22:08:43Z</time>
  <course>321.04</course>
  <speed>1.0</speed>
  <fix>3d</fix>
</trkpt>
<trkpt lat="33.8100291" lon="-118.3954425">
  <ele>-25.008</ele>
  <time>2026-09-02T22:08:43Z</time>
  <course>51.14</course>
  <speed>1.0121264743103995</speed>
  <fix>3d</fix>
</trkpt>
<trkpt lat="33.810028" lon="-118.3954416">
  <ele>-24.4</ele>
  <time>2026-09-02T22:08:43Z</time>
  <course>321.18</course>
  <speed>1.0</speed>
  <fix>3d</fix>
</trkpt>
<trkpt lat="33.8100298" lon="-118.3954432">
  <ele>-25.009</ele>
  <time>2026-09-02T22:08:43Z</time>
  <course>51.25</course>
  <speed>1.0121264743103995</speed>
  <fix>3d</fix>
</trkpt>
<trkpt lat="33.810028" lon="-118.3954416">
  <ele>-24.4</ele>
  <time>2026-09-02T22:08:43Z</time>
  <course>321.18</course>
  <speed>1.0</speed>
  <fix>3d</fix>
</trkpt>
<trkpt lat="33.8100305" lon="-118.3954439">
  <ele>-25.011</ele>
  <time>2026-09-02T22:08:43Z</time>
  <course>51.36</course>
  <speed>1.0200490184299968</speed>
  <fix>3d</fix>
</trkpt>
<trkpt lat="33.8100294" lon="-118.3954429">
  <ele>-24.4</ele>
  <time>2026-09-02T22:08:43Z</time>
  <course>321.32</course>
  <speed>0.99</speed>
  <fix>3d</fix>
</trkpt>
<trkpt lat="33.8100313" lon="-118.3954445">
  <ele>-25.013</ele>
  <time>2026-09-02T22:08:43Z</time>
  <course>51.48</course>
  <speed>1.0200490184299968</speed>
  <fix>3d</fix>
</trkpt>
<trkpt lat="33.8100294" lon="-118.3954429">
  <ele>-24.4</ele>
  <time>2026-09-02T22:08:43Z</time>
  <course>321.32</course>
  <speed>0.99</speed>
  <fix>3d</fix>
</trkpt>
<trkpt lat="33.810032" lon="-118.3954452">
  <ele>-25.014</ele>
  <time>2026-09-02T22:08:43Z</time>
  <course>51.59</course>
  <speed>1.0200490184299968</speed>
  <fix>3d</fix>
</trkpt>
<trkpt lat="33.8100308" lon="-118.3954443">
  <ele>-24.41</ele>
  <time>2026-09-02T22:08:43Z</time>
  <course>321.5</course>
  <speed>0.99</speed>
  <fix>3d</fix>
</trkpt>
<trkpt lat="33.8100327" lon="-118.3954459">
  <ele>-25.015</ele>
  <time>2026-09-02T22:08:43Z</time>
  <course>51.71</course>
  <speed>1.0200490184299968</speed>
  <fix>3d</fix>
</trkpt>
<trkpt lat="33.8100308" lon="-118.3954443">
  <ele>-24.41</ele>
  <time>2026-09-02T22:08:43Z</time>
  <course>321.5</course>
  <speed>0.99</speed>
  <fix>3d</fix>
</trkpt>
<trkpt lat="33.8100334" lon="-118.3954466">
  <ele>-25.015</ele>
  <time>2026-09-02T22:08:43Z</time>
  <course>51.82</course>
  <speed>1.0140019723846694</speed>
  <fix>3d</fix>
</trkpt>
<trkpt lat="33.8100321" lon="-118.3954456">
  <ele>-24.41</ele>
  <time>2026-09-02T22:08:43Z</time>
  <course>321.69</course>
  <speed>0.99</speed>
  <fix>3d</fix>
</trkpt>
<trkpt lat="33.8100341" lon="-118.3954472">
  <ele>-25.015</ele>
  <time>2026-09-02T22:08:43Z</time>
  <course>51.94</course>
  <speed>1.0140019723846694</speed>
  <fix>3d</fix>
</trkpt>
<trkpt lat="33.8100321" lon="-118.3954456">
  <ele>-24.41</ele>
  <time>2026-09-02T22:08:43Z</time>
  <course>321.69</course>
  <speed>0.99</speed>
  <fix>3d</fix>
</trkpt>
<trkpt lat="33.8100348" lon="-118.3954479">
  <ele>-25.015</ele>
  <time>2026-09-02T22:08:43Z</time>
  <course>52.05</course>
  <speed>1.0140019723846694</speed>
  <fix>3d</fix>
</trkpt>
<trkpt lat="33.8100336" lon="-118.3954469">
  <ele>-24.41</ele>
  <time>2026-09-02T22:08:43Z</time>
  <course>321.94</course>
  <speed>0.99</speed>
  <fix>3d</fix>
</trkpt>
<trkpt lat="33.8100355" lon="-118.3954485">
  <ele>-25.016</ele>
  <time>2026-09-02T22:08:43Z</time>
  <course>52.17</course>
  <speed>1.0220078277586722</speed>
  <fix>3d</fix>
</trkpt>
<trkpt lat="33.8100336" lon="-118.3954469">
  <ele>-24.41</ele>
  <time>2026-09-02T22:08:43Z</time>
  <course>321.94</course>
  <speed>0.99</speed>
  <fix>3d</fix>
</trkpt>
<trkpt lat="33.8100362" lon="-118.3954492">
  <ele>-25.017</ele>
  <time>2026-09-02T22:08:43Z</time>
  <course>52.28</course>
  <speed>1.0220078277586722</speed>
  <fix>3d</fix>
</trkpt>
<trkpt lat="33.810035" lon="-118.3954482">
  <ele>-24.41</ele>
  <time>2026-09-02T22:08:43Z</time>
  <course>322.21</course>
  <speed>0.99</speed>
  <fix>3d</fix>
</trkpt>
<trkpt lat="33.8100369" lon="-118.3954499">
  <ele>-25.018</ele>
  <time>2026-09-02T22:08:43Z</time>
  <course>52.39</course>
  <speed>1.0220078277586722</speed>
  <fix>3d</fix>
</trkpt>
<trkpt lat="33.810035" lon="-118.3954482">
  <ele>-24.41</ele>
  <time>2026-09-02T22:08:43Z</time>
  <course>322.21</course>
  <speed>0.99</speed>
  <fix>3d</fix>
</trkpt>
<trkpt lat="33.8100376" lon="-118.3954505">
  <ele>-25.019</ele>
  <time>2026-09-02T22:08:43Z</time>
  <course>52.51</course>
  <speed>1.016070863670443</speed>
  <fix>3d</fix>
</trkpt>
<trkpt lat="33.8100364" lon="-118.3954496">
  <ele>-24.41</ele>
  <time>2026-09-02T22:08:43Z</time>
  <course>322.4</course>
  <speed>0.99</speed>
  <fix>3d</fix>
</trkpt>
<trkpt lat="33.8100383" lon="-118.3954512">
  <ele>-25.019</ele>
  <time>2026-09-02T22:08:43Z</time>
  <course>52.62</course>
  <speed>1.016070863670443</speed>
  <fix>3d</fix>
</trkpt>
<trkpt lat="33.8100364" lon="-118.3954496">
  <ele>-24.41</ele>
  <time>2026-09-02T22:08:43Z</time>
  <course>322.4</course>
  <speed>0.99</speed>
  <fix>3d</fix>
</trkpt>
<trkpt lat="33.8100391" lon="-118.3954518">
  <ele>-25.019</ele>
  <time>2026-09-02T22:08:43Z</time>
  <course>52.74</course>
  <speed>1.016070863670443</speed>
  <fix>3d</fix>
</trkpt>
<trkpt lat="33.8100377" lon="-118.3954509">
  <ele>-24.41</ele>
  <time>2026-09-02T22:08:43Z</time>
  <course>322.61</course>
  <speed>0.99</speed>
  <fix>3d</fix>
</trkpt>
<trkpt lat="33.8100398" lon="-118.3954525">
  <ele>-25.018</ele>
  <time>2026-09-02T22:08:43Z</time>
  <course>52.85</course>
  <speed>1.016070863670443</speed>
  <fix>3d</fix>
</trkpt>
<trkpt lat="33.8100377" lon="-118.3954509">
  <ele>-24.41</ele>
  <time>2026-09-02T22:08:43Z</time>
  <course>322.61</course>
  <speed>0.99</speed>
  <fix>3d</fix>
</trkpt>
<trkpt lat="33.8100405" lon="-118.3954531">
  <ele>-25.015</ele>
  <time>2026-09-02T22:08:43Z</time>
  <course>52.97</course>
  <speed>1.0241581909060729</speed>
  <fix>3d</fix>
</trkpt>
<trkpt lat="33.8100392" lon="-118.3954522">
  <ele>-24.4</ele>
  <time>2026-09-02T22:08:43Z</time>
  <course>322.9</course>
  <speed>0.99</speed>
  <fix>3d</fix>
</trkpt>
<trkpt lat="33.8100412" lon="-118.3954538">
  <ele>-25.012</ele>
  <time>2026-09-02T22:08:43Z</time>
  <course>53.08</course>
  <speed>1.0183319694480775</speed>
  <fix>3d</fix>
</trkpt>
<trkpt lat="33.8100392" lon="-118.3954522">
  <ele>-24.4</ele>
  <time>2026-09-02T22:08:43Z</time>
  <course>322.9</course>
  <speed>0.99</speed>
  <fix>3d</fix>
</trkpt>
<trkpt lat="33.8100419" lon="-118.3954544">
  <ele>-25.01</ele>
  <time>2026-09-02T22:08:43Z</time>
  <course>53.2</course>
  <speed>1.0183319694480775</speed>
  <fix>3d</fix>
</trkpt>
<trkpt lat="33.8100407" lon="-118.3954535">
  <ele>-24.4</ele>
  <time>2026-09-02T22:08:43Z</time>
  <course>323.25</course>
  <speed>1.0</speed>
  <fix>3d</fix>
</trkpt>
<trkpt lat="33.8100427" lon="-118.3954551">
  <ele>-25.008</ele>
  <time>2026-09-02T22:08:43Z</time>
  <course>53.31</course>
  <speed>1.0183319694480775</speed>
  <fix>3d</fix>
</trkpt>
<trkpt lat="33.8100407" lon="-118.3954535">
  <ele>-24.4</ele>
  <time>2026-09-02T22:08:43Z</time>
  <course>323.25</course>
  <speed>1.0</speed>
  <fix>3d</fix>
</trkpt>
<trkpt lat="33.8100434" lon="-118.3954557">
  <ele>-25.008</ele>
  <time>2026-09-02T22:08:43Z</time>
  <course>53.43</course>
  <speed>1.0183319694480775</speed>
  <fix>3d</fix>
</trkpt>
<trkpt lat="33.8100421" lon="-118.3954548">
  <ele>-24.4</ele>
  <time>2026-09-02T22:08:43Z</time>
  <course>323.54</course>
  <speed>1.0</speed>
  <fix>3d</fix>
</trkpt>
<trkpt lat="33.8100441" lon="-118.3954563">
  <ele>-25.008</ele>
  <time>2026-09-02T22:08:43Z</time>
  <course>53.54</course>
  <speed>1.0183319694480775</speed>
  <fix>3d</fix>
</trkpt>
<trkpt lat="33.8100421" lon="-118.3954548">
  <ele>-24.4</ele>
  <time>2026-09-02T22:08:43Z</time>
  <course>323.54</course>
  <speed>1.0</speed>
  <fix>3d</fix>
</trkpt>
<trkpt lat="33.8100448" lon="-118.395457">
  <ele>-25.008</ele>
  <time>2026-09-02T22:08:43Z</time>
  <course>53.66</course>
  <speed>1.0183319694480775</speed>
  <fix>3d</fix>
</trkpt>
<trkpt lat="33.8100436" lon="-118.3954561">
  <ele>-24.4</ele>
  <time>2026-09-02T22:08:43Z</time>
  <course>323.76</course>
  <speed>1.0</speed>
  <fix>3d</fix>
</trkpt>
<trkpt lat="33.8100455" lon="-118.3954576">
  <ele>-25.009</ele>
  <time>2026-09-02T22:08:43Z</time>
  <course>53.77</course>
  <speed>1.026498904042279</speed>
  <fix>3d</fix>
</trkpt>
<trkpt lat="33.8100436" lon="-118.3954561">
  <ele>-24.4</ele>
  <time>2026-09-02T22:08:43Z</time>
  <course>323.76</course>
  <speed>1.0</speed>
  <fix>3d</fix>
</trkpt>
<trkpt lat="33.8100463" lon="-118.3954582">
  <ele>-25.01</ele>
  <time>2026-09-02T22:08:43Z</time>
  <course>53.89</course>
  <speed>1.0207840124139878</speed>
  <fix>3d</fix>
</trkpt>
<trkpt lat="33.810045" lon="-118.3954573">
  <ele>-24.4</ele>
  <time>2026-09-02T22:08:43Z</time>
  <course>323.98</course>
  <speed>1.0</speed>
  <fix>3d</fix>
</trkpt>
<trkpt lat="33.810047" lon="-118.3954589">
  <ele>-25.01</ele>
  <time>2026-09-02T22:08:43Z</time>
  <course>54.0</course>
  <speed>1.0207840124139878</speed>
  <fix>3d</fix>
</trkpt>
<trkpt lat="33.810045" lon="-118.3954573">
  <ele>-24.4</ele>
  <time>2026-09-02T22:08:43Z</time>
  <course>323.98</course>
  <speed>1.0</speed>
  <fix>3d</fix>
</trkpt>
<trkpt lat="33.8100477" lon="-118.3954595">
  <ele>-25.012</ele>
  <time>2026-09-02T22:08:43Z</time>
  <course>54.12</course>
  <speed>1.0207840124139878</speed>
  <fix>3d</fix>
</trkpt>
<trkpt lat="33.8100465" lon="-118.3954586">
  <ele>-24.4</ele>
  <time>2026-09-02T22:08:43Z</time>
  <course>324.19</course>
  <speed>1.0</speed>
  <fix>3d</fix>
</trkpt>
<trkpt lat="33.8100485" lon="-118.3954601">
  <ele>-25.013</ele>
  <time>2026-09-02T22:08:43Z</time>
  <course>54.23</course>
  <speed>1.0207840124139878</speed>
  <fix>3d</fix>
</trkpt>
<trkpt lat="33.8100465" lon="-118.3954586">
  <ele>-24.4</ele>
  <time>2026-09-02T22:08:43Z</time>
  <course>324.19</course>
  <speed>1.0</speed>
  <fix>3d</fix>
</trkpt>
<trkpt lat="33.8100492" lon="-118.3954608">
  <ele>-25.013</ele>
  <time>2026-09-02T22:08:43Z</time>
  <course>54.34</course>
  <speed>1.0207840124139878</speed>
  <fix>3d</fix>
</trkpt>
<trkpt lat="33.8100479" lon="-118.3954599">
  <ele>-24.41</ele>
  <time>2026-09-02T22:08:43Z</time>
  <course>324.38</course>
  <speed>1.0</speed>
  <fix>3d</fix>
</trkpt>
<trkpt lat="33.8100499" lon="-118.3954614">
  <ele>-25.014</ele>
  <time>2026-09-02T22:08:43Z</time>
  <course>54.46</course>
  <speed>1.0290286682109493</speed>
  <fix>3d</fix>
</trkpt>
<trkpt lat="33.8100479" lon="-118.3954599">
  <ele>-24.41</ele>
  <time>2026-09-02T22:08:43Z</time>
  <course>324.38</course>
  <speed>1.0</speed>
  <fix>3d</fix>
</trkpt>
<trkpt lat="33.8100507" lon="-118.395462">
  <ele>-25.015</ele>
  <time>2026-09-02T22:08:43Z</time>
  <course>54.58</course>
  <speed>1.0290286682109493</speed>
  <fix>3d</fix>
</trkpt>
<trkpt lat="33.8100494" lon="-118.3954611">
  <ele>-24.41</ele>
  <time>2026-09-02T22:08:43Z</time>
  <course>324.59</course>
  <speed>1.0</speed>
  <fix>3d</fix>
</trkpt>
<trkpt lat="33.8100514" lon="-118.3954626">
  <ele>-25.016</ele>
  <time>2026-09-02T22:08:43Z</time>
  <course>54.69</course>
  <speed>1.0290286682109493</speed>
  <fix>3d</fix>
</trkpt>
<trkpt lat="33.8100494" lon="-118.3954611">
  <ele>-24.41</ele>
  <time>2026-09-02T22:08:43Z</time>
  <course>324.59</course>
  <speed>1.0</speed>
  <fix>3d</fix>
</trkpt>
<trkpt lat="33.8100521" lon="-118.3954632">
  <ele>-25.016</ele>
  <time>2026-09-02T22:08:43Z</time>
  <course>54.8</course>
  <speed>1.0234256201600582</speed>
  <fix>3d</fix>
</trkpt>
<trkpt lat="33.8100509" lon="-118.3954624">
  <ele>-24.41</ele>
  <time>2026-09-02T22:08:43Z</time>
  <course>324.82</course>
  <speed>1.0</speed>
  <fix>3d</fix>
</trkpt>
<trkpt lat="33.8100529" lon="-118.3954639">
  <ele>-25.016</ele>
  <time>2026-09-02T22:08:43Z</time>
  <course>54.91</course>
  <speed>1.0234256201600582</speed>
  <fix>3d</fix>
</trkpt>
<trkpt lat="33.8100509" lon="-118.3954624">
  <ele>-24.41</ele>
  <time>2026-09-02T22:08:43Z</time>
  <course>324.82</course>
  <speed>1.0</speed>
  <fix>3d</fix>
</trkpt>
<trkpt lat="33.8100536" lon="-118.3954645">
  <ele>-25.015</ele>
  <time>2026-09-02T22:08:43Z</time>
  <course>55.03</course>
  <speed>1.0234256201600582</speed>
  <fix>3d</fix>
</trkpt>
<trkpt lat="33.8100524" lon="-118.3954637">
  <ele>-24.41</ele>
  <time>2026-09-02T22:08:43Z</time>
  <course>325.03</course>
  <speed>1.0</speed>
  <fix>3d</fix>
</trkpt>
<trkpt lat="33.8100543" lon="-118.3954651">
  <ele>-25.014</ele>
  <time>2026-09-02T22:08:43Z</time>
  <course>55.15</course>
  <speed>1.0234256201600582</speed>
  <fix>3d</fix>
</trkpt>
<trkpt lat="33.8100524" lon="-118.3954637">
  <ele>-24.41</ele>
  <time>2026-09-02T22:08:43Z</time>
  <course>325.03</course>
  <speed>1.0</speed>
  <fix>3d</fix>
</trkpt>
<trkpt lat="33.8100551" lon="-118.3954657">
  <ele>-25.014</ele>
  <time>2026-09-02T22:08:43Z</time>
  <course>55.26</course>
  <speed>1.0234256201600582</speed>
  <fix>3d</fix>
</trkpt>
<trkpt lat="33.8100539" lon="-118.3954649">
  <ele>-24.41</ele>
  <time>2026-09-02T22:08:43Z</time>
  <course>325.26</course>
  <speed>1.0</speed>
  <fix>3d</fix>
</trkpt>
<trkpt lat="33.8100558" lon="-118.3954663">
  <ele>-25.014</ele>
  <time>2026-09-02T22:08:43Z</time>
  <course>55.37</course>
  <speed>1.0178899744078433</speed>
  <fix>3d</fix>
</trkpt>
<trkpt lat="33.8100539" lon="-118.3954649">
  <ele>-24.41</ele>
  <time>2026-09-02T22:08:43Z</time>
  <course>325.26</course>
  <speed>1.0</speed>
  <fix>3d</fix>
</trkpt>
<trkpt lat="33.8100566" lon="-118.3954669">
  <ele>-25.015</ele>
  <time>2026-09-02T22:08:43Z</time>
  <course>55.49</course>
  <speed>1.0178899744078433</speed>
  <fix>3d</fix>
</trkpt>
<trkpt lat="33.8100553" lon="-118.3954661">
  <ele>-24.41</ele>
  <time>2026-09-02T22:08:43Z</time>
  <course>325.49</course>
  <speed>1.0</speed>
  <fix>3d</fix>
</trkpt>
<trkpt lat="33.8100573" lon="-118.3954676">
  <ele>-25.015</ele>
  <time>2026-09-02T22:08:43Z</time>
  <course>55.6</course>
  <speed>1.0178899744078433</speed>
  <fix>3d</fix>
</trkpt>
<trkpt lat="33.8100553" lon="-118.3954661">
  <ele>-24.41</ele>
  <time>2026-09-02T22:08:43Z</time>
  <course>325.49</course>
  <speed>1.0</speed>
  <fix>3d</fix>
</trkpt>
<trkpt lat="33.8100581" lon="-118.3954682">
  <ele>-25.014</ele>
  <time>2026-09-02T22:08:43Z</time>
  <course>55.72</course>
  <speed>1.0178899744078433</speed>
  <fix>3d</fix>
</trkpt>
<trkpt lat="33.8100568" lon="-118.3954674">
  <ele>-24.41</ele>
  <time>2026-09-02T22:08:43Z</time>
  <course>325.71</course>
  <speed>1.0</speed>
  <fix>3d</fix>
</trkpt>
<trkpt lat="33.8100588" lon="-118.3954688">
  <ele>-25.012</ele>
  <time>2026-09-02T22:08:43Z</time>
  <course>55.84</course>
  <speed>1.0262553288534</speed>
  <fix>3d</fix>
</trkpt>
<trkpt lat="33.8100568" lon="-118.3954674">
  <ele>-24.41</ele>
  <time>2026-09-02T22:08:43Z</time>
  <course>325.71</course>
  <speed>1.0</speed>
  <fix>3d</fix>
</trkpt>
<trkpt lat="33.8100596" lon="-118.3954694">
  <ele>-25.01</ele>
  <time>2026-09-02T22:08:43Z</time>
  <course>55.95</course>
  <speed>1.0208329931972222</speed>
  <fix>3d</fix>
</trkpt>
<trkpt lat="33.8100583" lon="-118.3954685">
  <ele>-24.4</ele>
  <time>2026-09-02T22:08:43Z</time>
  <course>325.96</course>
  <speed>1.0</speed>
  <fix>3d</fix>
</trkpt>
<trkpt lat="33.8100603" lon="-118.39547">
  <ele>-25.008</ele>
  <time>2026-09-02T22:08:43Z</time>
  <course>56.06</course>
  <speed>1.0208329931972222</speed>
  <fix>3d</fix>
</trkpt>
<trkpt lat="33.8100583" lon="-118.3954685">
  <ele>-24.4</ele>
  <time>2026-09-02T22:08:43Z</time>
  <course>325.96</course>
  <speed>1.0</speed>
  <fix>3d</fix>
</trkpt>
<trkpt lat="33.810061" lon="-118.3954706">
  <ele>-25.008</ele>
  <time>2026-09-02T22:08:43Z</time>
  <course>56.18</course>
  <speed>1.0208329931972222</speed>
  <fix>3d</fix>
</trkpt>
<trkpt lat="33.8100598" lon="-118.3954698">
  <ele>-24.4</ele>
  <time>2026-09-02T22:08:43Z</time>
  <course>326.21</course>
  <speed>1.0</speed>
  <fix>3d</fix>
</trkpt>
<trkpt lat="33.8100618" lon="-118.3954712">
  <ele>-25.009</ele>
  <time>2026-09-02T22:08:43Z</time>
  <course>56.29</course>
  <speed>1.0208329931972222</speed>
  <fix>3d</fix>
</trkpt>
<trkpt lat="33.8100598" lon="-118.3954698">
  <ele>-24.4</ele>
  <time>2026-09-02T22:08:43Z</time>
  <course>326.21</course>
  <speed>1.0</speed>
  <fix>3d</fix>
</trkpt>
<trkpt lat="33.8100625" lon="-118.3954718">
  <ele>-25.01</ele>
  <time>2026-09-02T22:08:43Z</time>
  <course>56.41</course>
  <speed>1.0208329931972222</speed>
  <fix>3d</fix>
</trkpt>
<trkpt lat="33.8100613" lon="-118.3954711">
  <ele>-24.4</ele>
  <time>2026-09-02T22:08:43Z</time>
  <course>326.43</course>
  <speed>1.0</speed>
  <fix>3d</fix>
</trkpt>
<trkpt lat="33.8100633" lon="-118.3954724">
  <ele>-25.011</ele>
  <time>2026-09-02T22:08:43Z</time>
  <course>56.52</course>
  <speed>1.0154801819828883</speed>
  <fix>3d</fix>
</trkpt>
<trkpt lat="33.8100613" lon="-118.3954711">
  <ele>-24.4</ele>
  <time>2026-09-02T22:08:43Z</time>
  <course>326.43</course>
  <speed>1.0</speed>
  <fix>3d</fix>
</trkpt>
<trkpt lat="33.8100641" lon="-118.395473">
  <ele>-25.012</ele>
  <time>2026-09-02T22:08:43Z</time>
  <course>56.64</course>
  <speed>1.0154801819828883</speed>
  <fix>3d</fix>
</trkpt>
<trkpt lat="33.8100629" lon="-118.3954723">
  <ele>-24.41</ele>
  <time>2026-09-02T22:08:43Z</time>
  <course>326.71</course>
  <speed>1.0</speed>
  <fix>3d</fix>
</trkpt>
<trkpt lat="33.8100648" lon="-118.3954736">
  <ele>-25.012</ele>
  <time>2026-09-02T22:08:43Z</time>
  <course>56.75</course>
  <speed>1.0239628899525608</speed>
  <fix>3d</fix>
</trkpt>
<trkpt lat="33.8100629" lon="-118.3954723">
  <ele>-24.41</ele>
  <time>2026-09-02T22:08:43Z</time>
  <course>326.71</course>
  <speed>1.0</speed>
  <fix>3d</fix>
</trkpt>
<trkpt lat="33.8100656" lon="-118.3954742">
  <ele>-25.014</ele>
  <time>2026-09-02T22:08:43Z</time>
  <course>56.86</course>
  <speed>1.0239628899525608</speed>
  <fix>3d</fix>
</trkpt>
<trkpt lat="33.8100644" lon="-118.3954734">
  <ele>-24.41</ele>
  <time>2026-09-02T22:08:43Z</time>
  <course>327.02</course>
  <speed>1.0</speed>
  <fix>3d</fix>
</trkpt>
<trkpt lat="33.8100663" lon="-118.3954747">
  <ele>-25.015</ele>
  <time>2026-09-02T22:08:43Z</time>
  <course>56.98</course>
  <speed>1.0239628899525608</speed>
  <fix>3d</fix>
</trkpt>
<trkpt lat="33.8100644" lon="-118.3954734">
  <ele>-24.41</ele>
  <time>2026-09-02T22:08:43Z</time>
  <course>327.02</course>
  <speed>1.0</speed>
  <fix>3d</fix>
</trkpt>
<trkpt lat="33.8100671" lon="-118.3954753">
  <ele>-25.016</ele>
  <time>2026-09-02T22:08:43Z</time>
  <course>57.1</course>
  <speed>1.0187246929372038</speed>
  <fix>3d</fix>
</trkpt>
<trkpt lat="33.8100659" lon="-118.3954746">
  <ele>-24.41</ele>
  <time>2026-09-02T22:08:43Z</time>
  <course>327.26</course>
  <speed>1.0</speed>
  <fix>3d</fix>
</trkpt>
<trkpt lat="33.8100678" lon="-118.3954759">
  <ele>-25.016</ele>
  <time>2026-09-02T22:08:43Z</time>
  <course>57.21</course>
  <speed>1.0187246929372038</speed>
  <fix>3d</fix>
</trkpt>
<trkpt lat="33.8100659" lon="-118.3954746">
  <ele>-24.41</ele>
  <time>2026-09-02T22:08:43Z</time>
  <course>327.26</course>
  <speed>1.0</speed>
  <fix>3d</fix>
</trkpt>
<trkpt lat="33.8100686" lon="-118.3954765">
  <ele>-25.015</ele>
  <time>2026-09-02T22:08:43Z</time>
  <course>57.33</course>
  <speed>1.0187246929372038</speed>
  <fix>3d</fix>
</trkpt>
<trkpt lat="33.8100674" lon="-118.3954757">
  <ele>-24.41</ele>
  <time>2026-09-02T22:08:43Z</time>
  <course>327.45</course>
  <speed>1.0</speed>
  <fix>3d</fix>
</trkpt>
<trkpt lat="33.8100694" lon="-118.3954771">
  <ele>-25.012</ele>
  <time>2026-09-02T22:08:43Z</time>
  <course>57.44</course>
  <speed>1.0187246929372038</speed>
  <fix>3d</fix>
</trkpt>
<trkpt lat="33.8100674" lon="-118.3954757">
  <ele>-24.41</ele>
  <time>2026-09-02T22:08:43Z</time>
  <course>327.45</course>
  <speed>1.0</speed>
  <fix>3d</fix>
</trkpt>
<trkpt lat="33.8100701" lon="-118.3954776">
  <ele>-25.011</ele>
  <time>2026-09-02T22:08:43Z</time>
  <course>57.55</course>
  <speed>1.0187246929372038</speed>
  <fix>3d</fix>
</trkpt>
<trkpt lat="33.8100689" lon="-118.3954769">
  <ele>-24.41</ele>
  <time>2026-09-02T22:08:43Z</time>
  <course>327.63</course>
  <speed>1.0</speed>
  <fix>3d</fix>
</trkpt>
<trkpt lat="33.8100709" lon="-118.3954782">
  <ele>-25.011</ele>
  <time>2026-09-02T22:08:43Z</time>
  <course>57.67</course>
  <speed>1.0187246929372038</speed>
  <fix>3d</fix>
</trkpt>
<trkpt lat="33.8100689" lon="-118.3954769">
  <ele>-24.41</ele>
  <time>2026-09-02T22:08:43Z</time>
  <course>327.63</course>
  <speed>1.0</speed>
  <fix>3d</fix>
</trkpt>
<trkpt lat="33.8100716" lon="-118.3954788">
  <ele>-25.01</ele>
  <time>2026-09-02T22:08:43Z</time>
  <course>57.78</course>
  <speed>1.0135580891098448</speed>
  <fix>3d</fix>
</trkpt>
<trkpt lat="33.8100704" lon="-118.3954781">
  <ele>-24.41</ele>
  <time>2026-09-02T22:08:43Z</time>
  <course>327.8</course>
  <speed>1.0</speed>
  <fix>3d</fix>
</trkpt>
<trkpt lat="33.8100724" lon="-118.3954794">
  <ele>-25.011</ele>
  <time>2026-09-02T22:08:43Z</time>
  <course>57.9</course>
  <speed>1.0135580891098448</speed>
  <fix>3d</fix>
</trkpt>
<trkpt lat="33.8100704" lon="-118.3954781">
  <ele>-24.41</ele>
  <time>2026-09-02T22:08:43Z</time>
  <course>327.8</course>
  <speed>1.0</speed>
  <fix>3d</fix>
</trkpt>
<trkpt lat="33.8100732" lon="-118.3954799">
  <ele>-25.013</ele>
  <time>2026-09-02T22:08:43Z</time>
  <course>58.01</course>
  <speed>1.0135580891098448</speed>
  <fix>3d</fix>
</trkpt>
<trkpt lat="33.810072" lon="-118.3954793">
  <ele>-24.41</ele>
  <time>2026-09-02T22:08:43Z</time>
  <course>328.01</course>
  <speed>1.0</speed>
  <fix>3d</fix>
</trkpt>
<trkpt lat="33.8100739" lon="-118.3954805">
  <ele>-25.015</ele>
  <time>2026-09-02T22:08:43Z</time>
  <course>58.13</course>
  <speed>1.0135580891098448</speed>
  <fix>3d</fix>
</trkpt>
<trkpt lat="33.810072" lon="-118.3954793">
  <ele>-24.41</ele>
  <time>2026-09-02T22:08:43Z</time>
  <course>328.01</course>
  <speed>1.0</speed>
  <fix>3d</fix>
</trkpt>
<trkpt lat="33.8100747" lon="-118.3954811">
  <ele>-25.017</ele>
  <time>2026-09-02T22:08:43Z</time>
  <course>58.24</course>
  <speed>1.0135580891098448</speed>
  <fix>3d</fix>
</trkpt>
<trkpt lat="33.8100735" lon="-118.3954804">
  <ele>-24.41</ele>
  <time>2026-09-02T22:08:43Z</time>
  <course>328.27</course>
  <speed>1.0</speed>
  <fix>3d</fix>
</trkpt>
<trkpt lat="33.8100755" lon="-118.3954817">
  <ele>-25.02</ele>
  <time>2026-09-02T22:08:43Z</time>
  <course>58.35</course>
  <speed>1.0171037311896953</speed>
  <fix>3d</fix>
</trkpt>
<trkpt lat="33.8100735" lon="-118.3954804">
  <ele>-24.41</ele>
  <time>2026-09-02T22:08:43Z</time>
  <course>328.27</course>
  <speed>1.0</speed>
  <fix>3d</fix>
</trkpt>
<trkpt lat="33.8100762" lon="-118.3954822">
  <ele>-25.021</ele>
  <time>2026-09-02T22:08:43Z</time>
  <course>58.47</course>
  <speed>1.0171037311896953</speed>
  <fix>3d</fix>
</trkpt>
<trkpt lat="33.8100751" lon="-118.3954815">
  <ele>-24.42</ele>
  <time>2026-09-02T22:08:43Z</time>
  <course>328.53</course>
  <speed>1.0</speed>
  <fix>3d</fix>
</trkpt>
<trkpt lat="33.810077" lon="-118.3954828">
  <ele>-25.021</ele>
  <time>2026-09-02T22:08:43Z</time>
  <course>58.58</course>
  <speed>1.0171037311896953</speed>
  <fix>3d</fix>
</trkpt>
<trkpt lat="33.8100751" lon="-118.3954815">
  <ele>-24.42</ele>
  <time>2026-09-02T22:08:43Z</time>
  <course>328.53</course>
  <speed>1.0</speed>
  <fix>3d</fix>
</trkpt>
<trkpt lat="33.8100778" lon="-118.3954833">
  <ele>-25.02</ele>
  <time>2026-09-02T22:08:43Z</time>
  <course>58.7</course>
  <speed>1.0171037311896953</speed>
  <fix>3d</fix>
</trkpt>
<trkpt lat="33.8100766" lon="-118.3954826">
  <ele>-24.42</ele>
  <time>2026-09-02T22:08:43Z</time>
  <course>328.74</course>
  <speed>1.0</speed>
  <fix>3d</fix>
</trkpt>
<trkpt lat="33.8100786" lon="-118.3954839">
  <ele>-25.018</ele>
  <time>2026-09-02T22:08:43Z</time>
  <course>58.81</course>
  <speed>1.0171037311896953</speed>
  <fix>3d</fix>
</trkpt>
<trkpt lat="33.8100766" lon="-118.3954826">
  <ele>-24.42</ele>
  <time>2026-09-02T22:08:43Z</time>
  <course>328.74</course>
  <speed>1.0</speed>
  <fix>3d</fix>
</trkpt>
<trkpt lat="33.8100793" lon="-118.3954845">
  <ele>-25.016</ele>
  <time>2026-09-02T22:08:43Z</time>
  <course>58.93</course>
  <speed>1.0171037311896953</speed>
  <fix>3d</fix>
</trkpt>
<trkpt lat="33.8100781" lon="-118.3954838">
  <ele>-24.41</ele>
  <time>2026-09-02T22:08:43Z</time>
  <course>328.92</course>
  <speed>0.99</speed>
  <fix>3d</fix>
</trkpt>
<trkpt lat="33.8100801" lon="-118.395485">
  <ele>-25.014</ele>
  <time>2026-09-02T22:08:43Z</time>
  <course>59.04</course>
  <speed>1.0121264743103995</speed>
  <fix>3d</fix>
</trkpt>
<trkpt lat="33.8100781" lon="-118.3954838">
  <ele>-24.41</ele>
  <time>2026-09-02T22:08:43Z</time>
  <course>328.92</course>
  <speed>0.99</speed>
  <fix>3d</fix>
</trkpt>
<trkpt lat="33.8100809" lon="-118.3954856">
  <ele>-25.015</ele>
  <time>2026-09-02T22:08:43Z</time>
  <course>59.15</course>
  <speed>1.0121264743103995</speed>
  <fix>3d</fix>
</trkpt>
<trkpt lat="33.8100797" lon="-118.3954849">
  <ele>-24.41</ele>
  <time>2026-09-02T22:08:43Z</time>
  <course>329.12</course>
  <speed>0.99</speed>
  <fix>3d</fix>
</trkpt>
<trkpt lat="33.8100817" lon="-118.3954861">
  <ele>-25.016</ele>
  <time>2026-09-02T22:08:43Z</time>
  <course>59.27</course>
  <speed>1.0121264743103995</speed>
  <fix>3d</fix>
</trkpt>
<trkpt lat="33.8100797" lon="-118.3954849">
  <ele>-24.41</ele>
  <time>2026-09-02T22:08:43Z</time>
  <course>329.12</course>
  <speed>0.99</speed>
  <fix>3d</fix>
</trkpt>
<trkpt lat="33.8100824" lon="-118.3954867">
  <ele>-25.017</ele>
  <time>2026-09-02T22:08:43Z</time>
  <course>59.39</course>
  <speed>1.0121264743103995</speed>
  <fix>3d</fix>
</trkpt>
<trkpt lat="33.8100812" lon="-118.395486">
  <ele>-24.4</ele>
  <time>2026-09-02T22:08:43Z</time>
  <course>329.35</course>
  <speed>0.99</speed>
  <fix>3d</fix>
</trkpt>
<trkpt lat="33.8100832" lon="-118.3954872">
  <ele>-25.016</ele>
  <time>2026-09-02T22:08:43Z</time>
  <course>59.5</course>
  <speed>1.0121264743103995</speed>
  <fix>3d</fix>
</trkpt>
<trkpt lat="33.8100812" lon="-118.395486">
  <ele>-24.4</ele>
  <time>2026-09-02T22:08:43Z</time>
  <course>329.35</course>
  <speed>0.99</speed>
  <fix>3d</fix>
</trkpt>
<trkpt lat="33.810084" lon="-118.3954878">
  <ele>-25.015</ele>
  <time>2026-09-02T22:08:44Z</time>
  <course>59.61</course>
  <speed>1.0072239075796403</speed>
  <fix>3d</fix>
</trkpt>
<trkpt lat="33.8100828" lon="-118.3954871">
  <ele>-24.4</ele>
  <time>2026-09-02T22:08:44Z</time>
  <course>329.57</course>
  <speed>0.99</speed>
  <fix>3d</fix>
</trkpt>
<trkpt lat="33.8100848" lon="-118.3954883">
  <ele>-25.014</ele>
  <time>2026-09-02T22:08:44Z</time>
  <course>59.73</course>
  <speed>1.0159724405711013</speed>
  <fix>3d</fix>
</trkpt>
<trkpt lat="33.8100828" lon="-118.3954871">
  <ele>-24.4</ele>
  <time>2026-09-02T22:08:44Z</time>
  <course>329.57</course>
  <speed>0.99</speed>
  <fix>3d</fix>
</trkpt>
<trkpt lat="33.8100855" lon="-118.3954888">
  <ele>-25.012</ele>
  <time>2026-09-02T22:08:44Z</time>
  <course>59.84</course>
  <speed>1.0159724405711013</speed>
  <fix>3d</fix>
</trkpt>
<trkpt lat="33.8100843" lon="-118.3954882">
  <ele>-24.4</ele>
  <time>2026-09-02T22:08:44Z</time>
  <course>329.81</course>
  <speed>0.99</speed>
  <fix>3d</fix>
</trkpt>
<trkpt lat="33.8100863" lon="-118.3954894">
  <ele>-25.01</ele>
  <time>2026-09-02T22:08:44Z</time>
  <course>59.95</course>
  <speed>1.0159724405711013</speed>
  <fix>3d</fix>
</trkpt>
<trkpt lat="33.8100843" lon="-118.3954882">
  <ele>-24.4</ele>
  <time>2026-09-02T22:08:44Z</time>
  <course>329.81</course>
  <speed>0.99</speed>
  <fix>3d</fix>
</trkpt>
<trkpt lat="33.8100871" lon="-118.3954899">
  <ele>-25.008</ele>
  <time>2026-09-02T22:08:44Z</time>
  <course>60.07</course>
  <speed>1.0159724405711013</speed>
  <fix>3d</fix>
</trkpt>
<trkpt lat="33.8100859" lon="-118.3954892">
  <ele>-24.4</ele>
  <time>2026-09-02T22:08:44Z</time>
  <course>330.06</course>
  <speed>0.99</speed>
  <fix>3d</fix>
</trkpt>
<trkpt lat="33.8100879" lon="-118.3954904">
  <ele>-25.008</ele>
  <time>2026-09-02T22:08:44Z</time>
  <course>60.19</course>
  <speed>1.0159724405711013</speed>
  <fix>3d</fix>
</trkpt>
<trkpt lat="33.8100859" lon="-118.3954892">
  <ele>-24.4</ele>
  <time>2026-09-02T22:08:44Z</time>
  <course>330.06</course>
  <speed>0.99</speed>
  <fix>3d</fix>
</trkpt>
<trkpt lat="33.8100887" lon="-118.395491">
  <ele>-25.009</ele>
  <time>2026-09-02T22:08:44Z</time>
  <course>60.3</course>
  <speed>1.0111874208078342</speed>
  <fix>3d</fix>
</trkpt>
<trkpt lat="33.8100874" lon="-118.3954903">
  <ele>-24.4</ele>
  <time>2026-09-02T22:08:44Z</time>
  <course>330.27</course>
  <speed>0.99</speed>
  <fix>3d</fix>
</trkpt>
<trkpt lat="33.8100895" lon="-118.3954915">
  <ele>-25.011</ele>
  <time>2026-09-02T22:08:44Z</time>
  <course>60.42</course>
  <speed>1.0111874208078342</speed>
  <fix>3d</fix>
</trkpt>
<trkpt lat="33.8100874" lon="-118.3954903">
  <ele>-24.4</ele>
  <time>2026-09-02T22:08:44Z</time>
  <course>330.27</course>
  <speed>0.99</speed>
  <fix>3d</fix>
</trkpt>
<trkpt lat="33.8100902" lon="-118.395492">
  <ele>-25.013</ele>
  <time>2026-09-02T22:08:44Z</time>
  <course>60.53</course>
  <speed>1.0111874208078342</speed>
  <fix>3d</fix>
</trkpt>
<trkpt lat="33.810089" lon="-118.3954914">
  <ele>-24.4</ele>
  <time>2026-09-02T22:08:44Z</time>
  <course>330.46</course>
  <speed>0.99</speed>
  <fix>3d</fix>
</trkpt>
<trkpt lat="33.810091" lon="-118.3954926">
  <ele>-25.014</ele>
  <time>2026-09-02T22:08:44Z</time>
  <course>60.65</course>
  <speed>1.02</speed>
  <fix>3d</fix>
</trkpt>
<trkpt lat="33.810089" lon="-118.3954914">
  <ele>-24.4</ele>
  <time>2026-09-02T22:08:44Z</time>
  <course>330.46</course>
  <speed>0.99</speed>
  <fix>3d</fix>
</trkpt>
<trkpt lat="33.8100918" lon="-118.3954931">
  <ele>-25.013</ele>
  <time>2026-09-02T22:08:44Z</time>
  <course>60.76</course>
  <speed>1.02</speed>
  <fix>3d</fix>
</trkpt>
<trkpt lat="33.8100905" lon="-118.3954925">
  <ele>-24.4</ele>
  <time>2026-09-02T22:08:44Z</time>
  <course>330.68</course>
  <speed>0.99</speed>
  <fix>3d</fix>
</trkpt>
<trkpt lat="33.8100926" lon="-118.3954936">
  <ele>-25.011</ele>
  <time>2026-09-02T22:08:44Z</time>
  <course>60.88</course>
  <speed>1.02</speed>
  <fix>3d</fix>
</trkpt>
<trkpt lat="33.8100905" lon="-118.3954925">
  <ele>-24.4</ele>
  <time>2026-09-02T22:08:44Z</time>
  <course>330.68</course>
  <speed>0.99</speed>
  <fix>3d</fix>
</trkpt>
<trkpt lat="33.8100934" lon="-118.3954941">
  <ele>-25.009</ele>
  <time>2026-09-02T22:08:44Z</time>
  <course>60.99</course>
  <speed>1.015332457867865</speed>
  <fix>3d</fix>
</trkpt>
<trkpt lat="33.8100921" lon="-118.3954935">
  <ele>-24.4</ele>
  <time>2026-09-02T22:08:44Z</time>
  <course>330.94</course>
  <speed>0.99</speed>
  <fix>3d</fix>
</trkpt>
<trkpt lat="33.8100942" lon="-118.3954947">
  <ele>-25.008</ele>
  <time>2026-09-02T22:08:44Z</time>
  <course>61.11</course>
  <speed>1.015332457867865</speed>
  <fix>3d</fix>
</trkpt>
<trkpt lat="33.8100921" lon="-118.3954935">
  <ele>-24.4</ele>
  <time>2026-09-02T22:08:44Z</time>
  <course>330.94</course>
  <speed>0.99</speed>
  <fix>3d</fix>
</trkpt>
<trkpt lat="33.8100949" lon="-118.3954952">
  <ele>-25.007</ele>
  <time>2026-09-02T22:08:44Z</time>
  <course>61.22</course>
  <speed>1.015332457867865</speed>
  <fix>3d</fix>
</trkpt>
<trkpt lat="33.8100936" lon="-118.3954946">
  <ele>-24.4</ele>
  <time>2026-09-02T22:08:44Z</time>
  <course>331.23</course>
  <speed>0.99</speed>
  <fix>3d</fix>
</trkpt>
<trkpt lat="33.8100957" lon="-118.3954957">
  <ele>-25.008</ele>
  <time>2026-09-02T22:08:44Z</time>
  <course>61.34</course>
  <speed>1.015332457867865</speed>
  <fix>3d</fix>
</trkpt>
<trkpt lat="33.8100936" lon="-118.3954946">
  <ele>-24.4</ele>
  <time>2026-09-02T22:08:44Z</time>
  <course>331.23</course>
  <speed>0.99</speed>
  <fix>3d</fix>
</trkpt>
<trkpt lat="33.8100965" lon="-118.3954962">
  <ele>-25.009</ele>
  <time>2026-09-02T22:08:44Z</time>
  <course>61.45</course>
  <speed>1.015332457867865</speed>
  <fix>3d</fix>
</trkpt>
<trkpt lat="33.8100953" lon="-118.3954956">
  <ele>-24.4</ele>
  <time>2026-09-02T22:08:44Z</time>
  <course>331.54</course>
  <speed>0.99</speed>
  <fix>3d</fix>
</trkpt>
<trkpt lat="33.8100973" lon="-118.3954967">
  <ele>-25.01</ele>
  <time>2026-09-02T22:08:44Z</time>
  <course>61.56</course>
  <speed>1.0196568050084303</speed>
  <fix>3d</fix>
</trkpt>
<trkpt lat="33.8100953" lon="-118.3954956">
  <ele>-24.4</ele>
  <time>2026-09-02T22:08:44Z</time>
  <course>331.54</course>
  <speed>0.99</speed>
  <fix>3d</fix>
</trkpt>
<trkpt lat="33.8100981" lon="-118.3954972">
  <ele>-25.012</ele>
  <time>2026-09-02T22:08:44Z</time>
  <course>61.68</course>
  <speed>1.0196568050084303</speed>
  <fix>3d</fix>
</trkpt>
<trkpt lat="33.8100968" lon="-118.3954966">
  <ele>-24.4</ele>
  <time>2026-09-02T22:08:44Z</time>
  <course>331.82</course>
  <speed>0.99</speed>
  <fix>3d</fix>
</trkpt>
<trkpt lat="33.8100989" lon="-118.3954978">
  <ele>-25.013</ele>
  <time>2026-09-02T22:08:44Z</time>
  <course>61.79</course>
  <speed>1.0196568050084303</speed>
  <fix>3d</fix>
</trkpt>
<trkpt lat="33.8100968" lon="-118.3954966">
  <ele>-24.4</ele>
  <time>2026-09-02T22:08:44Z</time>
  <course>331.82</course>
  <speed>0.99</speed>
  <fix>3d</fix>
</trkpt>
<trkpt lat="33.8100997" lon="-118.3954983">
  <ele>-25.014</ele>
  <time>2026-09-02T22:08:44Z</time>
  <course>61.91</course>
  <speed>1.0196568050084303</speed>
  <fix>3d</fix>
</trkpt>
<trkpt lat="33.8100984" lon="-118.3954976">
  <ele>-24.41</ele>
  <time>2026-09-02T22:08:44Z</time>
  <course>332.04</course>
  <speed>0.99</speed>
  <fix>3d</fix>
</trkpt>
<trkpt lat="33.8101005" lon="-118.3954988">
  <ele>-25.014</ele>
  <time>2026-09-02T22:08:44Z</time>
  <course>62.02</course>
  <speed>1.0196568050084303</speed>
  <fix>3d</fix>
</trkpt>
<trkpt lat="33.8100984" lon="-118.3954976">
  <ele>-24.41</ele>
  <time>2026-09-02T22:08:44Z</time>
  <course>332.04</course>
  <speed>0.99</speed>
  <fix>3d</fix>
</trkpt>
<trkpt lat="33.8101013" lon="-118.3954993">
  <ele>-25.015</ele>
  <time>2026-09-02T22:08:44Z</time>
  <course>62.14</course>
  <speed>1.0196568050084303</speed>
  <fix>3d</fix>
</trkpt>
<trkpt lat="33.8101" lon="-118.3954987">
  <ele>-24.41</ele>
  <time>2026-09-02T22:08:44Z</time>
  <course>332.23</course>
  <speed>0.99</speed>
  <fix>3d</fix>
</trkpt>
<trkpt lat="33.8101021" lon="-118.3954998">
  <ele>-25.016</ele>
  <time>2026-09-02T22:08:44Z</time>
  <course>62.25</course>
  <speed>1.0151847122568385</speed>
  <fix>3d</fix>
</trkpt>
<trkpt lat="33.8101" lon="-118.3954987">
  <ele>-24.41</ele>
  <time>2026-09-02T22:08:44Z</time>
  <course>332.23</course>
  <speed>0.99</speed>
  <fix>3d</fix>
</trkpt>
<trkpt lat="33.8101029" lon="-118.3955003">
  <ele>-25.017</ele>
  <time>2026-09-02T22:08:44Z</time>
  <course>62.37</course>
  <speed>1.0151847122568385</speed>
  <fix>3d</fix>
</trkpt>
<trkpt lat="33.8101015" lon="-118.3954996">
  <ele>-24.41</ele>
  <time>2026-09-02T22:08:44Z</time>
  <course>332.44</course>
  <speed>0.99</speed>
  <fix>3d</fix>
</trkpt>
<trkpt lat="33.8101037" lon="-118.3955008">
  <ele>-25.016</ele>
  <time>2026-09-02T22:08:44Z</time>
  <course>62.48</course>
  <speed>1.0151847122568385</speed>
  <fix>3d</fix>
</trkpt>
<trkpt lat="33.8101015" lon="-118.3954996">
  <ele>-24.41</ele>
  <time>2026-09-02T22:08:44Z</time>
  <course>332.44</course>
  <speed>0.99</speed>
  <fix>3d</fix>
</trkpt>
<trkpt lat="33.8101045" lon="-118.3955012">
  <ele>-25.015</ele>
  <time>2026-09-02T22:08:44Z</time>
  <course>62.59</course>
  <speed>1.0151847122568385</speed>
  <fix>3d</fix>
</trkpt>
<trkpt lat="33.8101032" lon="-118.3955006">
  <ele>-24.41</ele>
  <time>2026-09-02T22:08:44Z</time>
  <course>332.68</course>
  <speed>0.99</speed>
  <fix>3d</fix>
</trkpt>
<trkpt lat="33.8101053" lon="-118.3955017">
  <ele>-25.015</ele>
  <time>2026-09-02T22:08:44Z</time>
  <course>62.71</course>
  <speed>1.0241581909060729</speed>
  <fix>3d</fix>
</trkpt>
<trkpt lat="33.8101032" lon="-118.3955006">
  <ele>-24.41</ele>
  <time>2026-09-02T22:08:44Z</time>
  <course>332.68</course>
  <speed>0.99</speed>
  <fix>3d</fix>
</trkpt>
<trkpt lat="33.8101061" lon="-118.3955022">
  <ele>-25.016</ele>
  <time>2026-09-02T22:08:44Z</time>
  <course>62.82</course>
  <speed>1.0241581909060729</speed>
  <fix>3d</fix>
</trkpt>
<trkpt lat="33.8101048" lon="-118.3955016">
  <ele>-24.41</ele>
  <time>2026-09-02T22:08:44Z</time>
  <course>332.88</course>
  <speed>0.99</speed>
  <fix>3d</fix>
</trkpt>
<trkpt lat="33.8101069" lon="-118.3955027">
  <ele>-25.015</ele>
  <time>2026-09-02T22:08:44Z</time>
  <course>62.94</course>
  <speed>1.019803902718557</speed>
  <fix>3d</fix>
</trkpt>
<trkpt lat="33.8101048" lon="-118.3955016">
  <ele>-24.41</ele>
  <time>2026-09-02T22:08:44Z</time>
  <course>332.88</course>
  <speed>0.99</speed>
  <fix>3d</fix>
</trkpt>
<trkpt lat="33.8101077" lon="-118.3955032">
  <ele>-25.015</ele>
  <time>2026-09-02T22:08:44Z</time>
  <course>63.05</course>
  <speed>1.019803902718557</speed>
  <fix>3d</fix>
</trkpt>
<trkpt lat="33.8101063" lon="-118.3955026">
  <ele>-24.41</ele>
  <time>2026-09-02T22:08:44Z</time>
  <course>333.06</course>
  <speed>0.99</speed>
  <fix>3d</fix>
</trkpt>
<trkpt lat="33.8101085" lon="-118.3955037">
  <ele>-25.015</ele>
  <time>2026-09-02T22:08:44Z</time>
  <course>63.17</course>
  <speed>1.019803902718557</speed>
  <fix>3d</fix>
</trkpt>
<trkpt lat="33.8101063" lon="-118.3955026">
  <ele>-24.41</ele>
  <time>2026-09-02T22:08:44Z</time>
  <course>333.06</course>
  <speed>0.99</speed>
  <fix>3d</fix>
</trkpt>
<trkpt lat="33.8101093" lon="-118.3955042">
  <ele>-25.014</ele>
  <time>2026-09-02T22:08:44Z</time>
  <course>63.28</course>
  <speed>1.019803902718557</speed>
  <fix>3d</fix>
</trkpt>
<trkpt lat="33.810108" lon="-118.3955036">
  <ele>-24.41</ele>
  <time>2026-09-02T22:08:44Z</time>
  <course>333.25</course>
  <speed>0.99</speed>
  <fix>3d</fix>
</trkpt>
<trkpt lat="33.8101101" lon="-118.3955047">
  <ele>-25.013</ele>
  <time>2026-09-02T22:08:44Z</time>
  <course>63.4</course>
  <speed>1.019803902718557</speed>
  <fix>3d</fix>
</trkpt>
<trkpt lat="33.810108" lon="-118.3955036">
  <ele>-24.41</ele>
  <time>2026-09-02T22:08:44Z</time>
  <course>333.25</course>
  <speed>0.99</speed>
  <fix>3d</fix>
</trkpt>
<trkpt lat="33.8101109" lon="-118.3955051">
  <ele>-25.012</ele>
  <time>2026-09-02T22:08:44Z</time>
  <course>63.51</course>
  <speed>1.0155294185792945</speed>
  <fix>3d</fix>
</trkpt>
<trkpt lat="33.8101096" lon="-118.3955045">
  <ele>-24.41</ele>
  <time>2026-09-02T22:08:44Z</time>
  <course>333.49</course>
  <speed>0.99</speed>
  <fix>3d</fix>
</trkpt>
<trkpt lat="33.8101117" lon="-118.3955056">
  <ele>-25.012</ele>
  <time>2026-09-02T22:08:44Z</time>
  <course>63.63</course>
  <speed>1.0155294185792945</speed>
  <fix>3d</fix>
</trkpt>
<trkpt lat="33.8101096" lon="-118.3955045">
  <ele>-24.41</ele>
  <time>2026-09-02T22:08:44Z</time>
  <course>333.49</course>
  <speed>0.99</speed>
  <fix>3d</fix>
</trkpt>
<trkpt lat="33.8101125" lon="-118.3955061">
  <ele>-25.012</ele>
  <time>2026-09-02T22:08:44Z</time>
  <course>63.74</course>
  <speed>1.0155294185792945</speed>
  <fix>3d</fix>
</trkpt>
<trkpt lat="33.8101111" lon="-118.3955055">
  <ele>-24.41</ele>
  <time>2026-09-02T22:08:44Z</time>
  <course>333.72</course>
  <speed>0.99</speed>
  <fix>3d</fix>
</trkpt>
<trkpt lat="33.8101133" lon="-118.3955066">
  <ele>-25.011</ele>
  <time>2026-09-02T22:08:44Z</time>
  <course>63.86</course>
  <speed>1.0155294185792945</speed>
  <fix>3d</fix>
</trkpt>
<trkpt lat="33.8101111" lon="-118.3955055">
  <ele>-24.41</ele>
  <time>2026-09-02T22:08:44Z</time>
  <course>333.72</course>
  <speed>0.99</speed>
  <fix>3d</fix>
</trkpt>
<trkpt lat="33.8101141" lon="-118.395507">
  <ele>-25.012</ele>
  <time>2026-09-02T22:08:44Z</time>
  <course>63.97</course>
  <speed>1.0245974819410792</speed>
  <fix>3d</fix>
</trkpt>
<trkpt lat="33.8101128" lon="-118.3955064">
  <ele>-24.41</ele>
  <time>2026-09-02T22:08:44Z</time>
  <course>333.93</course>
  <speed>0.99</speed>
  <fix>3d</fix>
</trkpt>
<trkpt lat="33.8101149" lon="-118.3955075">
  <ele>-25.013</ele>
  <time>2026-09-02T22:08:44Z</time>
  <course>64.09</course>
  <speed>1.0245974819410792</speed>
  <fix>3d</fix>
</trkpt>
<trkpt lat="33.8101128" lon="-118.3955064">
  <ele>-24.41</ele>
  <time>2026-09-02T22:08:44Z</time>
  <course>333.93</course>
  <speed>0.99</speed>
  <fix>3d</fix>
</trkpt>
<trkpt lat="33.8101157" lon="-118.395508">
  <ele>-25.014</ele>
  <time>2026-09-02T22:08:44Z</time>
  <course>64.2</course>
  <speed>1.0204410811016968</speed>
  <fix>3d</fix>
</trkpt>
<trkpt lat="33.8101144" lon="-118.3955074">
  <ele>-24.41</ele>
  <time>2026-09-02T22:08:44Z</time>
  <course>334.16</course>
  <speed>0.99</speed>
  <fix>3d</fix>
</trkpt>
<trkpt lat="33.8101166" lon="-118.3955084">
  <ele>-25.015</ele>
  <time>2026-09-02T22:08:44Z</time>
  <course>64.31</course>
  <speed>1.0204410811016968</speed>
  <fix>3d</fix>
</trkpt>
<trkpt lat="33.8101144" lon="-118.3955074">
  <ele>-24.41</ele>
  <time>2026-09-02T22:08:44Z</time>
  <course>334.16</course>
  <speed>0.99</speed>
  <fix>3d</fix>
</trkpt>
<trkpt lat="33.8101174" lon="-118.3955089">
  <ele>-25.015</ele>
  <time>2026-09-02T22:08:44Z</time>
  <course>64.42</course>
  <speed>1.0204410811016968</speed>
  <fix>3d</fix>
</trkpt>
<trkpt lat="33.8101159" lon="-118.3955083">
  <ele>-24.41</ele>
  <time>2026-09-02T22:08:44Z</time>
  <course>334.37</course>
  <speed>0.99</speed>
  <fix>3d</fix>
</trkpt>
<trkpt lat="33.8101182" lon="-118.3955094">
  <ele>-25.015</ele>
  <time>2026-09-02T22:08:44Z</time>
  <course>64.54</course>
  <speed>1.0204410811016968</speed>
  <fix>3d</fix>
</trkpt>
<trkpt lat="33.8101159" lon="-118.3955083">
  <ele>-24.41</ele>
  <time>2026-09-02T22:08:44Z</time>
  <course>334.37</course>
  <speed>0.99</speed>
  <fix>3d</fix>
</trkpt>
<trkpt lat="33.810119" lon="-118.3955098">
  <ele>-25.015</ele>
  <time>2026-09-02T22:08:44Z</time>
  <course>64.66</course>
  <speed>1.0204410811016968</speed>
  <fix>3d</fix>
</trkpt>
<trkpt lat="33.8101176" lon="-118.3955092">
  <ele>-24.41</ele>
  <time>2026-09-02T22:08:44Z</time>
  <course>334.62</course>
  <speed>0.99</speed>
  <fix>3d</fix>
</trkpt>
<trkpt lat="33.8101198" lon="-118.3955103">
  <ele>-25.015</ele>
  <time>2026-09-02T22:08:44Z</time>
  <course>64.77</course>
  <speed>1.0204410811016968</speed>
  <fix>3d</fix>
</trkpt>
<trkpt lat="33.8101176" lon="-118.3955092">
  <ele>-24.41</ele>
  <time>2026-09-02T22:08:44Z</time>
  <course>334.62</course>
  <speed>0.99</speed>
  <fix>3d</fix>
</trkpt>
<trkpt lat="33.8101206" lon="-118.3955107">
  <ele>-25.016</ele>
  <time>2026-09-02T22:08:44Z</time>
  <course>64.89</course>
  <speed>1.016366075781753</speed>
  <fix>3d</fix>
</trkpt>
<trkpt lat="33.8101192" lon="-118.3955102">
  <ele>-24.41</ele>
  <time>2026-09-02T22:08:44Z</time>
  <course>334.87</course>
  <speed>1.0</speed>
  <fix>3d</fix>
</trkpt>
<trkpt lat="33.8101214" lon="-118.3955112">
  <ele>-25.016</ele>
  <time>2026-09-02T22:08:44Z</time>
  <course>65.0</course>
  <speed>1.0255242561733973</speed>
  <fix>3d</fix>
</trkpt>
<trkpt lat="33.8101192" lon="-118.3955102">
  <ele>-24.41</ele>
  <time>2026-09-02T22:08:44Z</time>
  <course>334.87</course>
  <speed>1.0</speed>
  <fix>3d</fix>
</trkpt>
<trkpt lat="33.8101222" lon="-118.3955117">
  <ele>-25.017</ele>
  <time>2026-09-02T22:08:44Z</time>
  <course>65.12</course>
  <speed>1.0255242561733973</speed>
  <fix>3d</fix>
</trkpt>
<trkpt lat="33.8101209" lon="-118.3955111">
  <ele>-24.41</ele>
  <time>2026-09-02T22:08:44Z</time>
  <course>335.12</course>
  <speed>1.0</speed>
  <fix>3d</fix>
</trkpt>
<trkpt lat="33.8101231" lon="-118.3955121">
  <ele>-25.017</ele>
  <time>2026-09-02T22:08:44Z</time>
  <course>65.23</course>
  <speed>1.0255242561733973</speed>
  <fix>3d</fix>
</trkpt>
<trkpt lat="33.8101209" lon="-118.3955111">
  <ele>-24.41</ele>
  <time>2026-09-02T22:08:44Z</time>
  <course>335.12</course>
  <speed>1.0</speed>
  <fix>3d</fix>
</trkpt>
<trkpt lat="33.8101239" lon="-118.3955126">
  <ele>-25.017</ele>
  <time>2026-09-02T22:08:44Z</time>
  <course>65.35</course>
  <speed>1.0255242561733973</speed>
  <fix>3d</fix>
</trkpt>
<trkpt lat="33.8101225" lon="-118.395512">
  <ele>-24.4</ele>
  <time>2026-09-02T22:08:44Z</time>
  <course>335.38</course>
  <speed>1.0</speed>
  <fix>3d</fix>
</trkpt>
<trkpt lat="33.8101247" lon="-118.395513">
  <ele>-25.017</ele>
  <time>2026-09-02T22:08:44Z</time>
  <course>65.46</course>
  <speed>1.0215674231297707</speed>
  <fix>3d</fix>
</trkpt>
<trkpt lat="33.8101225" lon="-118.395512">
  <ele>-24.4</ele>
  <time>2026-09-02T22:08:44Z</time>
  <course>335.38</course>
  <speed>1.0</speed>
  <fix>3d</fix>
</trkpt>
<trkpt lat="33.8101255" lon="-118.3955134">
  <ele>-25.016</ele>
  <time>2026-09-02T22:08:44Z</time>
  <course>65.57</course>
  <speed>1.0215674231297707</speed>
  <fix>3d</fix>
</trkpt>
<trkpt lat="33.8101242" lon="-118.3955129">
  <ele>-24.4</ele>
  <time>2026-09-02T22:08:44Z</time>
  <course>335.62</course>
  <speed>1.0</speed>
  <fix>3d</fix>
</trkpt>
<trkpt lat="33.8101263" lon="-118.3955139">
  <ele>-25.014</ele>
  <time>2026-09-02T22:08:44Z</time>
  <course>65.69</course>
  <speed>1.0215674231297707</speed>
  <fix>3d</fix>
</trkpt>
<trkpt lat="33.8101242" lon="-118.3955129">
  <ele>-24.4</ele>
  <time>2026-09-02T22:08:44Z</time>
  <course>335.62</course>
  <speed>1.0</speed>
  <fix>3d</fix>
</trkpt>
<trkpt lat="33.8101272" lon="-118.3955143">
  <ele>-25.013</ele>
  <time>2026-09-02T22:08:44Z</time>
  <course>65.8</course>
  <speed>1.0215674231297707</speed>
  <fix>3d</fix>
</trkpt>
<trkpt lat="33.8101258" lon="-118.3955138">
  <ele>-24.4</ele>
  <time>2026-09-02T22:08:44Z</time>
  <course>335.84</course>
  <speed>1.0</speed>
  <fix>3d</fix>
</trkpt>
<trkpt lat="33.810128" lon="-118.3955148">
  <ele>-25.012</ele>
  <time>2026-09-02T22:08:44Z</time>
  <course>65.92</course>
  <speed>1.0215674231297707</speed>
  <fix>3d</fix>
</trkpt>
<trkpt lat="33.8101258" lon="-118.3955138">
  <ele>-24.4</ele>
  <time>2026-09-02T22:08:44Z</time>
  <course>335.84</course>
  <speed>1.0</speed>
  <fix>3d</fix>
</trkpt>
<trkpt lat="33.8101288" lon="-118.3955152">
  <ele>-25.011</ele>
  <time>2026-09-02T22:08:44Z</time>
  <course>66.03</course>
  <speed>1.0176934705499492</speed>
  <fix>3d</fix>
</trkpt>
<trkpt lat="33.8101274" lon="-118.3955147">
  <ele>-24.4</ele>
  <time>2026-09-02T22:08:44Z</time>
  <course>336.04</course>
  <speed>1.0</speed>
  <fix>3d</fix>
</trkpt>
<trkpt lat="33.8101296" lon="-118.3955156">
  <ele>-25.011</ele>
  <time>2026-09-02T22:08:44Z</time>
  <course>66.14</course>
  <speed>1.0176934705499492</speed>
  <fix>3d</fix>
</trkpt>
<trkpt lat="33.8101274" lon="-118.3955147">
  <ele>-24.4</ele>
  <time>2026-09-02T22:08:44Z</time>
  <course>336.04</course>
  <speed>1.0</speed>
  <fix>3d</fix>
</trkpt>
<trkpt lat="33.8101305" lon="-118.3955161">
  <ele>-25.012</ele>
  <time>2026-09-02T22:08:44Z</time>
  <course>66.26</course>
  <speed>1.0176934705499492</speed>
  <fix>3d</fix>
</trkpt>
<trkpt lat="33.8101291" lon="-118.3955155">
  <ele>-24.39</ele>
  <time>2026-09-02T22:08:44Z</time>
  <course>336.29</course>
  <speed>1.0</speed>
  <fix>3d</fix>
</trkpt>
<trkpt lat="33.8101313" lon="-118.3955165">
  <ele>-25.012</ele>
  <time>2026-09-02T22:08:44Z</time>
  <course>66.38</course>
  <speed>1.0176934705499492</speed>
  <fix>3d</fix>
</trkpt>
<trkpt lat="33.8101291" lon="-118.3955155">
  <ele>-24.39</ele>
  <time>2026-09-02T22:08:44Z</time>
  <course>336.29</course>
  <speed>1.0</speed>
  <fix>3d</fix>
</trkpt>
<trkpt lat="33.8101321" lon="-118.3955169">
  <ele>-25.011</ele>
  <time>2026-09-02T22:08:44Z</time>
  <course>66.49</course>
  <speed>1.0176934705499492</speed>
  <fix>3d</fix>
</trkpt>
<trkpt lat="33.8101307" lon="-118.3955164">
  <ele>-24.39</ele>
  <time>2026-09-02T22:08:44Z</time>
  <course>336.54</course>
  <speed>1.0</speed>
  <fix>3d</fix>
</trkpt>
<trkpt lat="33.8101329" lon="-118.3955174">
  <ele>-25.01</ele>
  <time>2026-09-02T22:08:44Z</time>
  <course>66.61</course>
  <speed>1.0231813133555558</speed>
  <fix>3d</fix>
</trkpt>
<trkpt lat="33.8101307" lon="-118.3955164">
  <ele>-24.39</ele>
  <time>2026-09-02T22:08:44Z</time>
  <course>336.54</course>
  <speed>1.0</speed>
  <fix>3d</fix>
</trkpt>
<trkpt lat="33.8101338" lon="-118.3955178">
  <ele>-25.009</ele>
  <time>2026-09-02T22:08:44Z</time>
  <course>66.72</course>
  <speed>1.0231813133555558</speed>
  <fix>3d</fix>
</trkpt>
<trkpt lat="33.8101324" lon="-118.3955173">
  <ele>-24.4</ele>
  <time>2026-09-02T22:08:44Z</time>
  <course>336.74</course>
  <speed>1.0</speed>
  <fix>3d</fix>
</trkpt>
<trkpt lat="33.8101346" lon="-118.3955182">
  <ele>-25.008</ele>
  <time>2026-09-02T22:08:44Z</time>
  <course>66.83</course>
  <speed>1.0231813133555558</speed>
  <fix>3d</fix>
</trkpt>
<trkpt lat="33.8101324" lon="-118.3955173">
  <ele>-24.4</ele>
  <time>2026-09-02T22:08:44Z</time>
  <course>336.74</course>
  <speed>1.0</speed>
  <fix>3d</fix>
</trkpt>
<trkpt lat="33.8101354" lon="-118.3955186">
  <ele>-25.009</ele>
  <time>2026-09-02T22:08:44Z</time>
  <course>66.95</course>
  <speed>1.0231813133555558</speed>
  <fix>3d</fix>
</trkpt>
<trkpt lat="33.810134" lon="-118.3955181">
  <ele>-24.4</ele>
  <time>2026-09-02T22:08:44Z</time>
  <course>336.96</course>
  <speed>1.0</speed>
  <fix>3d</fix>
</trkpt>
<trkpt lat="33.8101362" lon="-118.395519">
  <ele>-25.009</ele>
  <time>2026-09-02T22:08:44Z</time>
  <course>67.07</course>
  <speed>1.0231813133555558</speed>
  <fix>3d</fix>
</trkpt>
<trkpt lat="33.810134" lon="-118.3955181">
  <ele>-24.4</ele>
  <time>2026-09-02T22:08:44Z</time>
  <course>336.96</course>
  <speed>1.0</speed>
  <fix>3d</fix>
</trkpt>
<trkpt lat="33.8101371" lon="-118.3955195">
  <ele>-25.011</ele>
  <time>2026-09-02T22:08:44Z</time>
  <course>67.18</course>
  <speed>1.0195096860746347</speed>
  <fix>3d</fix>
</trkpt>
<trkpt lat="33.8101357" lon="-118.395519">
  <ele>-24.4</ele>
  <time>2026-09-02T22:08:44Z</time>
  <course>337.2</course>
  <speed>1.0</speed>
  <fix>3d</fix>
</trkpt>
<trkpt lat="33.8101379" lon="-118.3955199">
  <ele>-25.012</ele>
  <time>2026-09-02T22:08:44Z</time>
  <course>67.3</course>
  <speed>1.0195096860746347</speed>
  <fix>3d</fix>
</trkpt>
<trkpt lat="33.8101357" lon="-118.395519">
  <ele>-24.4</ele>
  <time>2026-09-02T22:08:44Z</time>
  <course>337.2</course>
  <speed>1.0</speed>
  <fix>3d</fix>
</trkpt>
<trkpt lat="33.8101387" lon="-118.3955203">
  <ele>-25.012</ele>
  <time>2026-09-02T22:08:44Z</time>
  <course>67.41</course>
  <speed>1.0195096860746347</speed>
  <fix>3d</fix>
</trkpt>
<trkpt lat="33.8101374" lon="-118.3955198">
  <ele>-24.4</ele>
  <time>2026-09-02T22:08:44Z</time>
  <course>337.45</course>
  <speed>1.0</speed>
  <fix>3d</fix>
</trkpt>
<trkpt lat="33.8101396" lon="-118.3955207">
  <ele>-25.011</ele>
  <time>2026-09-02T22:08:44Z</time>
  <course>67.52</course>
  <speed>1.0195096860746347</speed>
  <fix>3d</fix>
</trkpt>
<trkpt lat="33.8101374" lon="-118.3955198">
  <ele>-24.4</ele>
  <time>2026-09-02T22:08:44Z</time>
  <course>337.45</course>
  <speed>1.0</speed>
  <fix>3d</fix>
</trkpt>
<trkpt lat="33.8101404" lon="-118.3955211">
  <ele>-25.01</ele>
  <time>2026-09-02T22:08:44Z</time>
  <course>67.64</course>
  <speed>1.0195096860746347</speed>
  <fix>3d</fix>
</trkpt>
<trkpt lat="33.810139" lon="-118.3955206">
  <ele>-24.4</ele>
  <time>2026-09-02T22:08:44Z</time>
  <course>337.68</course>
  <speed>1.0</speed>
  <fix>3d</fix>
</trkpt>
<trkpt lat="33.8101412" lon="-118.3955215">
  <ele>-25.01</ele>
  <time>2026-09-02T22:08:44Z</time>
  <course>67.75</course>
  <speed>1.0159232254457027</speed>
  <fix>3d</fix>
</trkpt>
<trkpt lat="33.810139" lon="-118.3955206">
  <ele>-24.4</ele>
  <time>2026-09-02T22:08:44Z</time>
  <course>337.68</course>
  <speed>1.0</speed>
  <fix>3d</fix>
</trkpt>
<trkpt lat="33.8101421" lon="-118.3955219">
  <ele>-25.01</ele>
  <time>2026-09-02T22:08:44Z</time>
  <course>67.87</course>
  <speed>1.0159232254457027</speed>
  <fix>3d</fix>
</trkpt>
<trkpt lat="33.8101407" lon="-118.3955215">
  <ele>-24.4</ele>
  <time>2026-09-02T22:08:44Z</time>
  <course>337.89</course>
  <speed>1.0</speed>
  <fix>3d</fix>
</trkpt>
<trkpt lat="33.8101429" lon="-118.3955223">
  <ele>-25.011</ele>
  <time>2026-09-02T22:08:44Z</time>
  <course>67.98</course>
  <speed>1.0159232254457027</speed>
  <fix>3d</fix>
</trkpt>
<trkpt lat="33.8101407" lon="-118.3955215">
  <ele>-24.4</ele>
  <time>2026-09-02T22:08:44Z</time>
  <course>337.89</course>
  <speed>1.0</speed>
  <fix>3d</fix>
</trkpt>
<trkpt lat="33.8101438" lon="-118.3955227">
  <ele>-25.011</ele>
  <time>2026-09-02T22:08:44Z</time>
  <course>68.09</course>
  <speed>1.0159232254457027</speed>
  <fix>3d</fix>
</trkpt>
<trkpt lat="33.8101424" lon="-118.3955223">
  <ele>-24.4</ele>
  <time>2026-09-02T22:08:44Z</time>
  <course>338.12</course>
  <speed>1.0</speed>
  <fix>3d</fix>
</trkpt>
<trkpt lat="33.8101446" lon="-118.3955231">
  <ele>-25.012</ele>
  <time>2026-09-02T22:08:44Z</time>
  <course>68.21</course>
  <speed>1.0159232254457027</speed>
  <fix>3d</fix>
</trkpt>
<trkpt lat="33.8101424" lon="-118.3955223">
  <ele>-24.4</ele>
  <time>2026-09-02T22:08:44Z</time>
  <course>338.12</course>
  <speed>1.0</speed>
  <fix>3d</fix>
</trkpt>
<trkpt lat="33.8101454" lon="-118.3955235">
  <ele>-25.013</ele>
  <time>2026-09-02T22:08:44Z</time>
  <course>68.33</course>
  <speed>1.0124228365658294</speed>
  <fix>3d</fix>
</trkpt>
<trkpt lat="33.810144" lon="-118.3955231">
  <ele>-24.41</ele>
  <time>2026-09-02T22:08:44Z</time>
  <course>338.38</course>
  <speed>0.99</speed>
  <fix>3d</fix>
</trkpt>
<trkpt lat="33.8101463" lon="-118.3955239">
  <ele>-25.014</ele>
  <time>2026-09-02T22:08:44Z</time>
  <course>68.44</course>
  <speed>1.0218121158021176</speed>
  <fix>3d</fix>
</trkpt>
<trkpt lat="33.810144" lon="-118.3955231">
  <ele>-24.41</ele>
  <time>2026-09-02T22:08:44Z</time>
  <course>338.38</course>
  <speed>0.99</speed>
  <fix>3d</fix>
</trkpt>
<trkpt lat="33.8101471" lon="-118.3955243">
  <ele>-25.015</ele>
  <time>2026-09-02T22:08:44Z</time>
  <course>68.56</course>
  <speed>1.0218121158021176</speed>
  <fix>3d</fix>
</trkpt>
<trkpt lat="33.8101457" lon="-118.3955239">
  <ele>-24.41</ele>
  <time>2026-09-02T22:08:44Z</time>
  <course>338.65</course>
  <speed>0.99</speed>
  <fix>3d</fix>
</trkpt>
<trkpt lat="33.8101479" lon="-118.3955247">
  <ele>-25.015</ele>
  <time>2026-09-02T22:08:44Z</time>
  <course>68.67</course>
  <speed>1.0218121158021176</speed>
  <fix>3d</fix>
</trkpt>
<trkpt lat="33.8101457" lon="-118.3955239">
  <ele>-24.41</ele>
  <time>2026-09-02T22:08:44Z</time>
  <course>338.65</course>
  <speed>0.99</speed>
  <fix>3d</fix>
</trkpt>
<trkpt lat="33.8101488" lon="-118.3955251">
  <ele>-25.014</ele>
  <time>2026-09-02T22:08:44Z</time>
  <course>68.78</course>
  <speed>1.0218121158021176</speed>
  <fix>3d</fix>
</trkpt>
<trkpt lat="33.8101474" lon="-118.3955247">
  <ele>-24.41</ele>
  <time>2026-09-02T22:08:44Z</time>
  <course>338.91</course>
  <speed>0.99</speed>
  <fix>3d</fix>
</trkpt>
<trkpt lat="33.8101496" lon="-118.3955255">
  <ele>-25.014</ele>
  <time>2026-09-02T22:08:44Z</time>
  <course>68.9</course>
  <speed>1.0184301645179212</speed>
  <fix>3d</fix>
</trkpt>
<trkpt lat="33.8101474" lon="-118.3955247">
  <ele>-24.41</ele>
  <time>2026-09-02T22:08:44Z</time>
  <course>338.91</course>
  <speed>0.99</speed>
  <fix>3d</fix>
</trkpt>
<trkpt lat="33.8101505" lon="-118.3955259">
  <ele>-25.014</ele>
  <time>2026-09-02T22:08:44Z</time>
  <course>69.01</course>
  <speed>1.0184301645179212</speed>
  <fix>3d</fix>
</trkpt>
<trkpt lat="33.810149" lon="-118.3955254">
  <ele>-24.41</ele>
  <time>2026-09-02T22:08:44Z</time>
  <course>339.16</course>
  <speed>0.99</speed>
  <fix>3d</fix>
</trkpt>
<trkpt lat="33.8101513" lon="-118.3955263">
  <ele>-25.013</ele>
  <time>2026-09-02T22:08:44Z</time>
  <course>69.13</course>
  <speed>1.0184301645179212</speed>
  <fix>3d</fix>
</trkpt>
<trkpt lat="33.810149" lon="-118.3955254">
  <ele>-24.41</ele>
  <time>2026-09-02T22:08:44Z</time>
  <course>339.16</course>
  <speed>0.99</speed>
  <fix>3d</fix>
</trkpt>
<trkpt lat="33.8101521" lon="-118.3955266">
  <ele>-25.013</ele>
  <time>2026-09-02T22:08:44Z</time>
  <course>69.24</course>
  <speed>1.0184301645179212</speed>
  <fix>3d</fix>
</trkpt>
<trkpt lat="33.8101507" lon="-118.3955262">
  <ele>-24.41</ele>
  <time>2026-09-02T22:08:44Z</time>
  <course>339.38</course>
  <speed>0.99</speed>
  <fix>3d</fix>
</trkpt>
<trkpt lat="33.810153" lon="-118.395527">
  <ele>-25.013</ele>
  <time>2026-09-02T22:08:44Z</time>
  <course>69.36</course>
  <speed>1.0184301645179212</speed>
  <fix>3d</fix>
</trkpt>
<trkpt lat="33.8101507" lon="-118.3955262">
  <ele>-24.41</ele>
  <time>2026-09-02T22:08:44Z</time>
  <course>339.38</course>
  <speed>0.99</speed>
  <fix>3d</fix>
</trkpt>
<trkpt lat="33.8101538" lon="-118.3955274">
  <ele>-25.012</ele>
  <time>2026-09-02T22:08:44Z</time>
  <course>69.47</course>
  <speed>1.0184301645179212</speed>
  <fix>3d</fix>
</trkpt>
<trkpt lat="33.8101524" lon="-118.3955269">
  <ele>-24.41</ele>
  <time>2026-09-02T22:08:44Z</time>
  <course>339.59</course>
  <speed>1.0</speed>
  <fix>3d</fix>
</trkpt>
<trkpt lat="33.8101547" lon="-118.3955278">
  <ele>-25.013</ele>
  <time>2026-09-02T22:08:44Z</time>
  <course>69.58</course>
  <speed>1.0151354589413177</speed>
  <fix>3d</fix>
</trkpt>
<trkpt lat="33.8101524" lon="-118.3955269">
  <ele>-24.41</ele>
  <time>2026-09-02T22:08:44Z</time>
  <course>339.59</course>
  <speed>1.0</speed>
  <fix>3d</fix>
</trkpt>
<trkpt lat="33.8101555" lon="-118.3955281">
  <ele>-25.013</ele>
  <time>2026-09-02T22:08:44Z</time>
  <course>69.7</course>
  <speed>1.0151354589413177</speed>
  <fix>3d</fix>
</trkpt>
<trkpt lat="33.8101541" lon="-118.3955277">
  <ele>-24.41</ele>
  <time>2026-09-02T22:08:44Z</time>
  <course>339.79</course>
  <speed>1.0</speed>
  <fix>3d</fix>
</trkpt>
<trkpt lat="33.8101563" lon="-118.3955285">
  <ele>-25.014</ele>
  <time>2026-09-02T22:08:44Z</time>
  <course>69.81</course>
  <speed>1.0151354589413177</speed>
  <fix>3d</fix>
</trkpt>
<trkpt lat="33.8101541" lon="-118.3955277">
  <ele>-24.41</ele>
  <time>2026-09-02T22:08:44Z</time>
  <course>339.79</course>
  <speed>1.0</speed>
  <fix>3d</fix>
</trkpt>
<trkpt lat="33.8101572" lon="-118.3955289">
  <ele>-25.015</ele>
  <time>2026-09-02T22:08:44Z</time>
  <course>69.93</course>
  <speed>1.0151354589413177</speed>
  <fix>3d</fix>
</trkpt>
<trkpt lat="33.8101558" lon="-118.3955284">
  <ele>-24.41</ele>
  <time>2026-09-02T22:08:44Z</time>
  <course>339.98</course>
  <speed>1.0</speed>
  <fix>3d</fix>
</trkpt>
<trkpt lat="33.810158" lon="-118.3955292">
  <ele>-25.017</ele>
  <time>2026-09-02T22:08:44Z</time>
  <course>70.05</course>
  <speed>1.0245974819410792</speed>
  <fix>3d</fix>
</trkpt>
<trkpt lat="33.8101558" lon="-118.3955284">
  <ele>-24.41</ele>
  <time>2026-09-02T22:08:44Z</time>
  <course>339.98</course>
  <speed>1.0</speed>
  <fix>3d</fix>
</trkpt>
<trkpt lat="33.8101589" lon="-118.3955296">
  <ele>-25.017</ele>
  <time>2026-09-02T22:08:44Z</time>
  <course>70.15</course>
  <speed>1.0245974819410792</speed>
  <fix>3d</fix>
</trkpt>
<trkpt lat="33.8101575" lon="-118.3955292">
  <ele>-24.41</ele>
  <time>2026-09-02T22:08:44Z</time>
  <course>340.17</course>
  <speed>1.0</speed>
  <fix>3d</fix>
</trkpt>
<trkpt lat="33.8101597" lon="-118.39553">
  <ele>-25.018</ele>
  <time>2026-09-02T22:08:44Z</time>
  <course>70.27</course>
  <speed>1.021420579389313</speed>
  <fix>3d</fix>
</trkpt>
<trkpt lat="33.8101575" lon="-118.3955292">
  <ele>-24.41</ele>
  <time>2026-09-02T22:08:44Z</time>
  <course>340.17</course>
  <speed>1.0</speed>
  <fix>3d</fix>
</trkpt>
<trkpt lat="33.8101606" lon="-118.3955303">
  <ele>-25.019</ele>
  <time>2026-09-02T22:08:44Z</time>
  <course>70.39</course>
  <speed>1.021420579389313</speed>
  <fix>3d</fix>
</trkpt>
<trkpt lat="33.8101592" lon="-118.3955299">
  <ele>-24.41</ele>
  <time>2026-09-02T22:08:44Z</time>
  <course>340.36</course>
  <speed>1.0</speed>
  <fix>3d</fix>
</trkpt>
<trkpt lat="33.8101614" lon="-118.3955307">
  <ele>-25.019</ele>
  <time>2026-09-02T22:08:44Z</time>
  <course>70.5</course>
  <speed>1.021420579389313</speed>
  <fix>3d</fix>
</trkpt>
<trkpt lat="33.8101592" lon="-118.3955299">
  <ele>-24.41</ele>
  <time>2026-09-02T22:08:44Z</time>
  <course>340.36</course>
  <speed>1.0</speed>
  <fix>3d</fix>
</trkpt>
<trkpt lat="33.8101623" lon="-118.395531">
  <ele>-25.018</ele>
  <time>2026-09-02T22:08:44Z</time>
  <course>70.62</course>
  <speed>1.021420579389313</speed>
  <fix>3d</fix>
</trkpt>
<trkpt lat="33.8101609" lon="-118.3955306">
  <ele>-24.41</ele>
  <time>2026-09-02T22:08:44Z</time>
  <course>340.58</course>
  <speed>1.0</speed>
  <fix>3d</fix>
</trkpt>
<trkpt lat="33.8101631" lon="-118.3955314">
  <ele>-25.018</ele>
  <time>2026-09-02T22:08:44Z</time>
  <course>70.73</course>
  <speed>1.021420579389313</speed>
  <fix>3d</fix>
</trkpt>
<trkpt lat="33.8101609" lon="-118.3955306">
  <ele>-24.41</ele>
  <time>2026-09-02T22:08:44Z</time>
  <course>340.58</course>
  <speed>1.0</speed>
  <fix>3d</fix>
</trkpt>
<trkpt lat="33.810164" lon="-118.3955317">
  <ele>-25.016</ele>
  <time>2026-09-02T22:08:44Z</time>
  <course>70.84</course>
  <speed>1.021420579389313</speed>
  <fix>3d</fix>
</trkpt>
<trkpt lat="33.8101626" lon="-118.3955313">
  <ele>-24.41</ele>
  <time>2026-09-02T22:08:44Z</time>
  <course>340.78</course>
  <speed>1.0</speed>
  <fix>3d</fix>
</trkpt>
<trkpt lat="33.8101648" lon="-118.3955321">
  <ele>-25.015</ele>
  <time>2026-09-02T22:08:44Z</time>
  <course>70.96</course>
  <speed>1.0183319694480775</speed>
  <fix>3d</fix>
</trkpt>
<trkpt lat="33.8101626" lon="-118.3955313">
  <ele>-24.41</ele>
  <time>2026-09-02T22:08:44Z</time>
  <course>340.78</course>
  <speed>1.0</speed>
  <fix>3d</fix>
</trkpt>
<trkpt lat="33.8101657" lon="-118.3955324">
  <ele>-25.013</ele>
  <time>2026-09-02T22:08:44Z</time>
  <course>71.07</course>
  <speed>1.0183319694480775</speed>
  <fix>3d</fix>
</trkpt>
<trkpt lat="33.8101643" lon="-118.395532">
  <ele>-24.4</ele>
  <time>2026-09-02T22:08:44Z</time>
  <course>340.98</course>
  <speed>1.0</speed>
  <fix>3d</fix>
</trkpt>
<trkpt lat="33.8101665" lon="-118.3955328">
  <ele>-25.012</ele>
  <time>2026-09-02T22:08:44Z</time>
  <course>71.19</course>
  <speed>1.0183319694480775</speed>
  <fix>3d</fix>
</trkpt>
<trkpt lat="33.8101643" lon="-118.395532">
  <ele>-24.4</ele>
  <time>2026-09-02T22:08:44Z</time>
  <course>340.98</course>
  <speed>1.0</speed>
  <fix>3d</fix>
</trkpt>
<trkpt lat="33.8101674" lon="-118.3955331">
  <ele>-25.01</ele>
  <time>2026-09-02T22:08:44Z</time>
  <course>71.3</course>
  <speed>1.0183319694480775</speed>
  <fix>3d</fix>
</trkpt>
<trkpt lat="33.810166" lon="-118.3955327">
  <ele>-24.4</ele>
  <time>2026-09-02T22:08:44Z</time>
  <course>341.18</course>
  <speed>1.0</speed>
  <fix>3d</fix>
</trkpt>
<trkpt lat="33.8101682" lon="-118.3955335">
  <ele>-25.008</ele>
  <time>2026-09-02T22:08:44Z</time>
  <course>71.42</course>
  <speed>1.0183319694480775</speed>
  <fix>3d</fix>
</trkpt>
<trkpt lat="33.810166" lon="-118.3955327">
  <ele>-24.4</ele>
  <time>2026-09-02T22:08:44Z</time>
  <course>341.18</course>
  <speed>1.0</speed>
  <fix>3d</fix>
</trkpt>
<trkpt lat="33.8101691" lon="-118.3955338">
  <ele>-25.006</ele>
  <time>2026-09-02T22:08:44Z</time>
  <course>71.53</course>
  <speed>1.0183319694480775</speed>
  <fix>3d</fix>
</trkpt>
<trkpt lat="33.8101677" lon="-118.3955334">
  <ele>-24.4</ele>
  <time>2026-09-02T22:08:44Z</time>
  <course>341.37</course>
  <speed>1.0</speed>
  <fix>3d</fix>
</trkpt>
<trkpt lat="33.8101699" lon="-118.3955341">
  <ele>-25.006</ele>
  <time>2026-09-02T22:08:44Z</time>
  <course>71.65</course>
  <speed>1.0248902380255165</speed>
  <fix>3d</fix>
</trkpt>
<trkpt lat="33.8101677" lon="-118.3955334">
  <ele>-24.4</ele>
  <time>2026-09-02T22:08:44Z</time>
  <course>341.37</course>
  <speed>1.0</speed>
  <fix>3d</fix>
</trkpt>
<trkpt lat="33.8101708" lon="-118.3955345">
  <ele>-25.007</ele>
  <time>2026-09-02T22:08:44Z</time>
  <course>71.76</course>
  <speed>1.0248902380255165</speed>
  <fix>3d</fix>
</trkpt>
<trkpt lat="33.8101694" lon="-118.3955341">
  <ele>-24.4</ele>
  <time>2026-09-02T22:08:44Z</time>
  <course>341.58</course>
  <speed>1.0</speed>
  <fix>3d</fix>
</trkpt>
<trkpt lat="33.8101716" lon="-118.3955348">
  <ele>-25.009</ele>
  <time>2026-09-02T22:08:44Z</time>
  <course>71.88</course>
  <speed>1.0248902380255165</speed>
  <fix>3d</fix>
</trkpt>
<trkpt lat="33.8101694" lon="-118.3955341">
  <ele>-24.4</ele>
  <time>2026-09-02T22:08:44Z</time>
  <course>341.58</course>
  <speed>1.0</speed>
  <fix>3d</fix>
</trkpt>
<trkpt lat="33.8101725" lon="-118.3955351">
  <ele>-25.012</ele>
  <time>2026-09-02T22:08:44Z</time>
  <course>71.99</course>
  <speed>1.0248902380255165</speed>
  <fix>3d</fix>
</trkpt>
<trkpt lat="33.8101711" lon="-118.3955348">
  <ele>-24.4</ele>
  <time>2026-09-02T22:08:44Z</time>
  <course>341.82</course>
  <speed>1.0</speed>
  <fix>3d</fix>
</trkpt>
<trkpt lat="33.8101734" lon="-118.3955355">
  <ele>-25.014</ele>
  <time>2026-09-02T22:08:44Z</time>
  <course>72.11</course>
  <speed>1.0220078277586722</speed>
  <fix>3d</fix>
</trkpt>
<trkpt lat="33.8101711" lon="-118.3955348">
  <ele>-24.4</ele>
  <time>2026-09-02T22:08:44Z</time>
  <course>341.82</course>
  <speed>1.0</speed>
  <fix>3d</fix>
</trkpt>
<trkpt lat="33.8101742" lon="-118.3955358">
  <ele>-25.017</ele>
  <time>2026-09-02T22:08:44Z</time>
  <course>72.22</course>
  <speed>1.0220078277586722</speed>
  <fix>3d</fix>
</trkpt>
<trkpt lat="33.8101728" lon="-118.3955355">
  <ele>-24.41</ele>
  <time>2026-09-02T22:08:44Z</time>
  <course>342.07</course>
  <speed>1.0</speed>
  <fix>3d</fix>
</trkpt>
<trkpt lat="33.8101751" lon="-118.3955361">
  <ele>-25.018</ele>
  <time>2026-09-02T22:08:44Z</time>
  <course>72.33</course>
  <speed>1.0220078277586722</speed>
  <fix>3d</fix>
</trkpt>
<trkpt lat="33.8101728" lon="-118.3955355">
  <ele>-24.41</ele>
  <time>2026-09-02T22:08:44Z</time>
  <course>342.07</course>
  <speed>1.0</speed>
  <fix>3d</fix>
</trkpt>
<trkpt lat="33.8101759" lon="-118.3955365">
  <ele>-25.018</ele>
  <time>2026-09-02T22:08:44Z</time>
  <course>72.45</course>
  <speed>1.0220078277586722</speed>
  <fix>3d</fix>
</trkpt>
<trkpt lat="33.8101745" lon="-118.3955362">
  <ele>-24.41</ele>
  <time>2026-09-02T22:08:44Z</time>
  <course>342.35</course>
  <speed>1.0</speed>
  <fix>3d</fix>
</trkpt>
<trkpt lat="33.8101768" lon="-118.3955368">
  <ele>-25.017</ele>
  <time>2026-09-02T22:08:44Z</time>
  <course>72.56</course>
  <speed>1.0192153844992726</speed>
  <fix>3d</fix>
</trkpt>
<trkpt lat="33.8101745" lon="-118.3955362">
  <ele>-24.41</ele>
  <time>2026-09-02T22:08:44Z</time>
  <course>342.35</course>
  <speed>1.0</speed>
  <fix>3d</fix>
</trkpt>
<trkpt lat="33.8101776" lon="-118.3955371">
  <ele>-25.015</ele>
  <time>2026-09-02T22:08:44Z</time>
  <course>72.68</course>
  <speed>1.0192153844992726</speed>
  <fix>3d</fix>
</trkpt>
<trkpt lat="33.8101763" lon="-118.3955368">
  <ele>-24.41</ele>
  <time>2026-09-02T22:08:44Z</time>
  <course>342.68</course>
  <speed>1.0</speed>
  <fix>3d</fix>
</trkpt>
<trkpt lat="33.8101785" lon="-118.3955374">
  <ele>-25.014</ele>
  <time>2026-09-02T22:08:44Z</time>
  <course>72.79</course>
  <speed>1.0192153844992726</speed>
  <fix>3d</fix>
</trkpt>
<trkpt lat="33.8101763" lon="-118.3955368">
  <ele>-24.41</ele>
  <time>2026-09-02T22:08:44Z</time>
  <course>342.68</course>
  <speed>1.0</speed>
  <fix>3d</fix>
</trkpt>
<trkpt lat="33.8101794" lon="-118.3955377">
  <ele>-25.013</ele>
  <time>2026-09-02T22:08:44Z</time>
  <course>72.91</course>
  <speed>1.0192153844992726</speed>
  <fix>3d</fix>
</trkpt>
<trkpt lat="33.810178" lon="-118.3955375">
  <ele>-24.41</ele>
  <time>2026-09-02T22:08:44Z</time>
  <course>343.0</course>
  <speed>1.0</speed>
  <fix>3d</fix>
</trkpt>
<trkpt lat="33.8101802" lon="-118.3955381">
  <ele>-25.012</ele>
  <time>2026-09-02T22:08:44Z</time>
  <course>73.02</course>
  <speed>1.0165136496870073</speed>
  <fix>3d</fix>
</trkpt>
<trkpt lat="33.810178" lon="-118.3955375">
  <ele>-24.41</ele>
  <time>2026-09-02T22:08:44Z</time>
  <course>343.0</course>
  <speed>1.0</speed>
  <fix>3d</fix>
</trkpt>
<trkpt lat="33.8101811" lon="-118.3955384">
  <ele>-25.013</ele>
  <time>2026-09-02T22:08:44Z</time>
  <course>73.13</course>
  <speed>1.0165136496870073</speed>
  <fix>3d</fix>
</trkpt>
<trkpt lat="33.8101798" lon="-118.3955381">
  <ele>-24.41</ele>
  <time>2026-09-02T22:08:44Z</time>
  <course>343.27</course>
  <speed>1.0</speed>
  <fix>3d</fix>
</trkpt>
<trkpt lat="33.810182" lon="-118.3955387">
  <ele>-25.013</ele>
  <time>2026-09-02T22:08:44Z</time>
  <course>73.25</course>
  <speed>1.0165136496870073</speed>
  <fix>3d</fix>
</trkpt>
<trkpt lat="33.8101798" lon="-118.3955381">
  <ele>-24.41</ele>
  <time>2026-09-02T22:08:44Z</time>
  <course>343.27</course>
  <speed>1.0</speed>
  <fix>3d</fix>
</trkpt>
<trkpt lat="33.8101828" lon="-118.395539">
  <ele>-25.014</ele>
  <time>2026-09-02T22:08:44Z</time>
  <course>73.37</course>
  <speed>1.0165136496870073</speed>
  <fix>3d</fix>
</trkpt>
<trkpt lat="33.8101815" lon="-118.3955387">
  <ele>-24.41</ele>
  <time>2026-09-02T22:08:44Z</time>
  <course>343.52</course>
  <speed>1.0</speed>
  <fix>3d</fix>
</trkpt>
<trkpt lat="33.8101837" lon="-118.3955393">
  <ele>-25.016</ele>
  <time>2026-09-02T22:08:44Z</time>
  <course>73.48</course>
  <speed>1.0165136496870073</speed>
  <fix>3d</fix>
</trkpt>
<trkpt lat="33.8101815" lon="-118.3955387">
  <ele>-24.41</ele>
  <time>2026-09-02T22:08:44Z</time>
  <course>343.52</course>
  <speed>1.0</speed>
  <fix>3d</fix>
</trkpt>
<trkpt lat="33.8101846" lon="-118.3955396">
  <ele>-25.017</ele>
  <time>2026-09-02T22:08:44Z</time>
  <course>73.6</course>
  <speed>1.0139033484509261</speed>
  <fix>3d</fix>
</trkpt>
<trkpt lat="33.8101832" lon="-118.3955394">
  <ele>-24.41</ele>
  <time>2026-09-02T22:08:44Z</time>
  <course>343.73</course>
  <speed>1.0</speed>
  <fix>3d</fix>
</trkpt>
<trkpt lat="33.8101854" lon="-118.3955399">
  <ele>-25.017</ele>
  <time>2026-09-02T22:08:44Z</time>
  <course>73.71</course>
  <speed>1.0139033484509261</speed>
  <fix>3d</fix>
</trkpt>
<trkpt lat="33.8101832" lon="-118.3955394">
  <ele>-24.41</ele>
  <time>2026-09-02T22:08:44Z</time>
  <course>343.73</course>
  <speed>1.0</speed>
  <fix>3d</fix>
</trkpt>
<trkpt lat="33.8101863" lon="-118.3955402">
  <ele>-25.016</ele>
  <time>2026-09-02T22:08:44Z</time>
  <course>73.82</course>
  <speed>1.0139033484509261</speed>
  <fix>3d</fix>
</trkpt>
<trkpt lat="33.810185" lon="-118.39554">
  <ele>-24.41</ele>
  <time>2026-09-02T22:08:44Z</time>
  <course>343.96</course>
  <speed>1.0</speed>
  <fix>3d</fix>
</trkpt>
<trkpt lat="33.8101872" lon="-118.3955405">
  <ele>-25.015</ele>
  <time>2026-09-02T22:08:44Z</time>
  <course>73.94</course>
  <speed>1.0139033484509261</speed>
  <fix>3d</fix>
</trkpt>
<trkpt lat="33.810185" lon="-118.39554">
  <ele>-24.41</ele>
  <time>2026-09-02T22:08:44Z</time>
  <course>343.96</course>
  <speed>1.0</speed>
  <fix>3d</fix>
</trkpt>
<trkpt lat="33.810188" lon="-118.3955408">
  <ele>-25.013</ele>
  <time>2026-09-02T22:08:44Z</time>
  <course>74.06</course>
  <speed>1.0113851887386922</speed>
  <fix>3d</fix>
</trkpt>
<trkpt lat="33.8101867" lon="-118.3955405">
  <ele>-24.4</ele>
  <time>2026-09-02T22:08:44Z</time>
  <course>344.22</course>
  <speed>1.0</speed>
  <fix>3d</fix>
</trkpt>
<trkpt lat="33.8101889" lon="-118.3955411">
  <ele>-25.012</ele>
  <time>2026-09-02T22:08:44Z</time>
  <course>74.17</course>
  <speed>1.0113851887386922</speed>
  <fix>3d</fix>
</trkpt>
<trkpt lat="33.8101867" lon="-118.3955405">
  <ele>-24.4</ele>
  <time>2026-09-02T22:08:44Z</time>
  <course>344.22</course>
  <speed>1.0</speed>
  <fix>3d</fix>
</trkpt>
<trkpt lat="33.8101898" lon="-118.3955414">
  <ele>-25.011</ele>
  <time>2026-09-02T22:08:44Z</time>
  <course>74.28</course>
  <speed>1.0113851887386922</speed>
  <fix>3d</fix>
</trkpt>
<trkpt lat="33.8101884" lon="-118.3955411">
  <ele>-24.4</ele>
  <time>2026-09-02T22:08:44Z</time>
  <course>344.45</course>
  <speed>1.0</speed>
  <fix>3d</fix>
</trkpt>
<trkpt lat="33.8101906" lon="-118.3955417">
  <ele>-25.01</ele>
  <time>2026-09-02T22:08:44Z</time>
  <course>74.4</course>
  <speed>1.0113851887386922</speed>
  <fix>3d</fix>
</trkpt>
<trkpt lat="33.8101884" lon="-118.3955411">
  <ele>-24.4</ele>
  <time>2026-09-02T22:08:44Z</time>
  <course>344.45</course>
  <speed>1.0</speed>
  <fix>3d</fix>
</trkpt>
<trkpt lat="33.8101915" lon="-118.3955419">
  <ele>-25.009</ele>
  <time>2026-09-02T22:08:44Z</time>
  <course>74.51</course>
  <speed>1.0113851887386922</speed>
  <fix>3d</fix>
</trkpt>
<trkpt lat="33.8101901" lon="-118.3955417">
  <ele>-24.4</ele>
  <time>2026-09-02T22:08:44Z</time>
  <course>344.64</course>
  <speed>0.99</speed>
  <fix>3d</fix>
</trkpt>
<trkpt lat="33.8101924" lon="-118.3955422">
  <ele>-25.01</ele>
  <time>2026-09-02T22:08:44Z</time>
  <course>74.63</course>
  <speed>1.021077861869505</speed>
  <fix>3d</fix>
</trkpt>
<trkpt lat="33.8101901" lon="-118.3955417">
  <ele>-24.4</ele>
  <time>2026-09-02T22:08:44Z</time>
  <course>344.64</course>
  <speed>0.99</speed>
  <fix>3d</fix>
</trkpt>
<trkpt lat="33.8101932" lon="-118.3955425">
  <ele>-25.012</ele>
  <time>2026-09-02T22:08:44Z</time>
  <course>74.74</course>
  <speed>1.0186756107809787</speed>
  <fix>3d</fix>
</trkpt>
<trkpt lat="33.8101919" lon="-118.3955423">
  <ele>-24.4</ele>
  <time>2026-09-02T22:08:44Z</time>
  <course>344.84</course>
  <speed>1.0</speed>
  <fix>3d</fix>
</trkpt>
<trkpt lat="33.8101941" lon="-118.3955428">
  <ele>-25.013</ele>
  <time>2026-09-02T22:08:44Z</time>
  <course>74.86</course>
  <speed>1.0186756107809787</speed>
  <fix>3d</fix>
</trkpt>
<trkpt lat="33.8101919" lon="-118.3955423">
  <ele>-24.4</ele>
  <time>2026-09-02T22:08:44Z</time>
  <course>344.84</course>
  <speed>1.0</speed>
  <fix>3d</fix>
</trkpt>
<trkpt lat="33.810195" lon="-118.3955431">
  <ele>-25.014</ele>
  <time>2026-09-02T22:08:44Z</time>
  <course>74.97</course>
  <speed>1.0186756107809787</speed>
  <fix>3d</fix>
</trkpt>
<trkpt lat="33.8101936" lon="-118.3955428">
  <ele>-24.4</ele>
  <time>2026-09-02T22:08:44Z</time>
  <course>345.07</course>
  <speed>1.0</speed>
  <fix>3d</fix>
</trkpt>
<trkpt lat="33.8101958" lon="-118.3955433">
  <ele>-25.015</ele>
  <time>2026-09-02T22:08:44Z</time>
  <course>75.09</course>
  <speed>1.0186756107809787</speed>
  <fix>3d</fix>
</trkpt>
<trkpt lat="33.8101936" lon="-118.3955428">
  <ele>-24.4</ele>
  <time>2026-09-02T22:08:44Z</time>
  <course>345.07</course>
  <speed>1.0</speed>
  <fix>3d</fix>
</trkpt>
<trkpt lat="33.8101967" lon="-118.3955436">
  <ele>-25.016</ele>
  <time>2026-09-02T22:08:44Z</time>
  <course>75.2</course>
  <speed>1.0186756107809787</speed>
  <fix>3d</fix>
</trkpt>
<trkpt lat="33.8101954" lon="-118.3955434">
  <ele>-24.4</ele>
  <time>2026-09-02T22:08:44Z</time>
  <course>345.3</course>
  <speed>0.99</speed>
  <fix>3d</fix>
</trkpt>
<trkpt lat="33.8101976" lon="-118.3955439">
  <ele>-25.015</ele>
  <time>2026-09-02T22:08:44Z</time>
  <course>75.31</course>
  <speed>1.0186756107809787</speed>
  <fix>3d</fix>
</trkpt>
<trkpt lat="33.8101954" lon="-118.3955434">
  <ele>-24.4</ele>
  <time>2026-09-02T22:08:44Z</time>
  <course>345.3</course>
  <speed>0.99</speed>
  <fix>3d</fix>
</trkpt>
<trkpt lat="33.8101985" lon="-118.3955442">
  <ele>-25.013</ele>
  <time>2026-09-02T22:08:44Z</time>
  <course>75.43</course>
  <speed>1.016366075781753</speed>
  <fix>3d</fix>
</trkpt>
<trkpt lat="33.8101971" lon="-118.3955439">
  <ele>-24.4</ele>
  <time>2026-09-02T22:08:44Z</time>
  <course>345.51</course>
  <speed>0.99</speed>
  <fix>3d</fix>
</trkpt>
<trkpt lat="33.8101993" lon="-118.3955444">
  <ele>-25.011</ele>
  <time>2026-09-02T22:08:44Z</time>
  <course>75.54</course>
  <speed>1.016366075781753</speed>
  <fix>3d</fix>
</trkpt>
<trkpt lat="33.8101971" lon="-118.3955439">
  <ele>-24.4</ele>
  <time>2026-09-02T22:08:44Z</time>
  <course>345.51</course>
  <speed>0.99</speed>
  <fix>3d</fix>
</trkpt>
<trkpt lat="33.8102002" lon="-118.3955447">
  <ele>-25.01</ele>
  <time>2026-09-02T22:08:44Z</time>
  <course>75.66</course>
  <speed>1.016366075781753</speed>
  <fix>3d</fix>
</trkpt>
<trkpt lat="33.8101988" lon="-118.3955444">
  <ele>-24.4</ele>
  <time>2026-09-02T22:08:44Z</time>
  <course>345.72</course>
  <speed>0.99</speed>
  <fix>3d</fix>
</trkpt>
<trkpt lat="33.8102011" lon="-118.3955449">
  <ele>-25.011</ele>
  <time>2026-09-02T22:08:44Z</time>
  <course>75.78</course>
  <speed>1.016366075781753</speed>
  <fix>3d</fix>
</trkpt>
<trkpt lat="33.8101988" lon="-118.3955444">
  <ele>-24.4</ele>
  <time>2026-09-02T22:08:44Z</time>
  <course>345.72</course>
  <speed>0.99</speed>
  <fix>3d</fix>
</trkpt>
<trkpt lat="33.8102019" lon="-118.3955452">
  <ele>-25.011</ele>
  <time>2026-09-02T22:08:44Z</time>
  <course>75.89</course>
  <speed>1.016366075781753</speed>
  <fix>3d</fix>
</trkpt>
<trkpt lat="33.8102006" lon="-118.395545">
  <ele>-24.4</ele>
  <time>2026-09-02T22:08:44Z</time>
  <course>345.9</course>
  <speed>0.99</speed>
  <fix>3d</fix>
</trkpt>
<trkpt lat="33.8102028" lon="-118.3955455">
  <ele>-25.011</ele>
  <time>2026-09-02T22:08:44Z</time>
  <course>76.0</course>
  <speed>1.0141498903022177</speed>
  <fix>3d</fix>
</trkpt>
<trkpt lat="33.8102006" lon="-118.395545">
  <ele>-24.4</ele>
  <time>2026-09-02T22:08:44Z</time>
  <course>345.9</course>
  <speed>0.99</speed>
  <fix>3d</fix>
</trkpt>
<trkpt lat="33.8102037" lon="-118.3955457">
  <ele>-25.011</ele>
  <time>2026-09-02T22:08:44Z</time>
  <course>76.12</course>
  <speed>1.0141498903022177</speed>
  <fix>3d</fix>
</trkpt>
<trkpt lat="33.8102023" lon="-118.3955455">
  <ele>-24.4</ele>
  <time>2026-09-02T22:08:44Z</time>
  <course>346.1</course>
  <speed>1.0</speed>
  <fix>3d</fix>
</trkpt>
<trkpt lat="33.8102046" lon="-118.395546">
  <ele>-25.012</ele>
  <time>2026-09-02T22:08:44Z</time>
  <course>76.23</course>
  <speed>1.0141498903022177</speed>
  <fix>3d</fix>
</trkpt>
<trkpt lat="33.8102023" lon="-118.3955455">
  <ele>-24.4</ele>
  <time>2026-09-02T22:08:44Z</time>
  <course>346.1</course>
  <speed>1.0</speed>
  <fix>3d</fix>
</trkpt>
<trkpt lat="33.8102054" lon="-118.3955462">
  <ele>-25.013</ele>
  <time>2026-09-02T22:08:44Z</time>
  <course>76.34</course>
  <speed>1.0141498903022177</speed>
  <fix>3d</fix>
</trkpt>
<trkpt lat="33.810204" lon="-118.395546">
  <ele>-24.41</ele>
  <time>2026-09-02T22:08:44Z</time>
  <course>346.33</course>
  <speed>1.0</speed>
  <fix>3d</fix>
</trkpt>
<trkpt lat="33.8102063" lon="-118.3955465">
  <ele>-25.015</ele>
  <time>2026-09-02T22:08:44Z</time>
  <course>76.46</course>
  <speed>1.0141498903022177</speed>
  <fix>3d</fix>
</trkpt>
<trkpt lat="33.810204" lon="-118.395546">
  <ele>-24.41</ele>
  <time>2026-09-02T22:08:44Z</time>
  <course>346.33</course>
  <speed>1.0</speed>
  <fix>3d</fix>
</trkpt>
<trkpt lat="33.8102072" lon="-118.3955467">
  <ele>-25.014</ele>
  <time>2026-09-02T22:08:44Z</time>
  <course>76.58</course>
  <speed>1.0141498903022177</speed>
  <fix>3d</fix>
</trkpt>
<trkpt lat="33.8102058" lon="-118.3955465">
  <ele>-24.41</ele>
  <time>2026-09-02T22:08:44Z</time>
  <course>346.56</course>
  <speed>1.0</speed>
  <fix>3d</fix>
</trkpt>
<trkpt lat="33.810208" lon="-118.395547">
  <ele>-25.014</ele>
  <time>2026-09-02T22:08:44Z</time>
  <course>76.69</course>
  <speed>1.0218121158021176</speed>
  <fix>3d</fix>
</trkpt>
<trkpt lat="33.8102058" lon="-118.3955465">
  <ele>-24.41</ele>
  <time>2026-09-02T22:08:44Z</time>
  <course>346.56</course>
  <speed>1.0</speed>
  <fix>3d</fix>
</trkpt>
<trkpt lat="33.8102089" lon="-118.3955472">
  <ele>-25.015</ele>
  <time>2026-09-02T22:08:44Z</time>
  <course>76.8</course>
  <speed>1.0218121158021176</speed>
  <fix>3d</fix>
</trkpt>
<trkpt lat="33.8102076" lon="-118.395547">
  <ele>-24.41</ele>
  <time>2026-09-02T22:08:44Z</time>
  <course>346.79</course>
  <speed>1.0</speed>
  <fix>3d</fix>
</trkpt>
<trkpt lat="33.8102098" lon="-118.3955475">
  <ele>-25.014</ele>
  <time>2026-09-02T22:08:44Z</time>
  <course>76.91</course>
  <speed>1.0218121158021176</speed>
  <fix>3d</fix>
</trkpt>
<trkpt lat="33.8102076" lon="-118.395547">
  <ele>-24.41</ele>
  <time>2026-09-02T22:08:44Z</time>
  <course>346.79</course>
  <speed>1.0</speed>
  <fix>3d</fix>
</trkpt>
<trkpt lat="33.8102107" lon="-118.3955477">
  <ele>-25.014</ele>
  <time>2026-09-02T22:08:44Z</time>
  <course>77.03</course>
  <speed>1.0218121158021176</speed>
  <fix>3d</fix>
</trkpt>
<trkpt lat="33.8102093" lon="-118.3955475">
  <ele>-24.41</ele>
  <time>2026-09-02T22:08:44Z</time>
  <course>347.0</course>
  <speed>1.0</speed>
  <fix>3d</fix>
</trkpt>
<trkpt lat="33.8102116" lon="-118.3955479">
  <ele>-25.015</ele>
  <time>2026-09-02T22:08:44Z</time>
  <course>77.15</course>
  <speed>1.0218121158021176</speed>
  <fix>3d</fix>
</trkpt>
<trkpt lat="33.8102093" lon="-118.3955475">
  <ele>-24.41</ele>
  <time>2026-09-02T22:08:44Z</time>
  <course>347.0</course>
  <speed>1.0</speed>
  <fix>3d</fix>
</trkpt>
<trkpt lat="33.8102124" lon="-118.3955482">
  <ele>-25.015</ele>
  <time>2026-09-02T22:08:44Z</time>
  <course>77.26</course>
  <speed>1.019803902718557</speed>
  <fix>3d</fix>
</trkpt>
<trkpt lat="33.8102111" lon="-118.395548">
  <ele>-24.41</ele>
  <time>2026-09-02T22:08:44Z</time>
  <course>347.2</course>
  <speed>1.0</speed>
  <fix>3d</fix>
</trkpt>
<trkpt lat="33.8102133" lon="-118.3955484">
  <ele>-25.015</ele>
  <time>2026-09-02T22:08:44Z</time>
  <course>77.38</course>
  <speed>1.019803902718557</speed>
  <fix>3d</fix>
</trkpt>
<trkpt lat="33.8102111" lon="-118.395548">
  <ele>-24.41</ele>
  <time>2026-09-02T22:08:44Z</time>
  <course>347.2</course>
  <speed>1.0</speed>
  <fix>3d</fix>
</trkpt>
<trkpt lat="33.8102142" lon="-118.3955486">
  <ele>-25.016</ele>
  <time>2026-09-02T22:08:44Z</time>
  <course>77.49</course>
  <speed>1.019803902718557</speed>
  <fix>3d</fix>
</trkpt>
<trkpt lat="33.8102128" lon="-118.3955485">
  <ele>-24.41</ele>
  <time>2026-09-02T22:08:44Z</time>
  <course>347.44</course>
  <speed>0.99</speed>
  <fix>3d</fix>
</trkpt>
<trkpt lat="33.8102151" lon="-118.3955489">
  <ele>-25.016</ele>
  <time>2026-09-02T22:08:44Z</time>
  <course>77.61</course>
  <speed>1.019803902718557</speed>
  <fix>3d</fix>
</trkpt>
<trkpt lat="33.8102128" lon="-118.3955485">
  <ele>-24.41</ele>
  <time>2026-09-02T22:08:44Z</time>
  <course>347.44</course>
  <speed>0.99</speed>
  <fix>3d</fix>
</trkpt>
<trkpt lat="33.810216" lon="-118.3955491">
  <ele>-25.017</ele>
  <time>2026-09-02T22:08:44Z</time>
  <course>77.72</course>
  <speed>1.0178899744078433</speed>
  <fix>3d</fix>
</trkpt>
<trkpt lat="33.8102145" lon="-118.3955489">
  <ele>-24.4</ele>
  <time>2026-09-02T22:08:44Z</time>
  <course>347.7</course>
  <speed>0.99</speed>
  <fix>3d</fix>
</trkpt>
<trkpt lat="33.8102168" lon="-118.3955493">
  <ele>-25.016</ele>
  <time>2026-09-02T22:08:44Z</time>
  <course>77.84</course>
  <speed>1.0178899744078433</speed>
  <fix>3d</fix>
</trkpt>
<trkpt lat="33.8102145" lon="-118.3955489">
  <ele>-24.4</ele>
  <time>2026-09-02T22:08:44Z</time>
  <course>347.7</course>
  <speed>0.99</speed>
  <fix>3d</fix>
</trkpt>
<trkpt lat="33.8102177" lon="-118.3955495">
  <ele>-25.014</ele>
  <time>2026-09-02T22:08:44Z</time>
  <course>77.95</course>
  <speed>1.0178899744078433</speed>
  <fix>3d</fix>
</trkpt>
<trkpt lat="33.8102163" lon="-118.3955494">
  <ele>-24.4</ele>
  <time>2026-09-02T22:08:44Z</time>
  <course>347.96</course>
  <speed>0.99</speed>
  <fix>3d</fix>
</trkpt>
<trkpt lat="33.8102186" lon="-118.3955498">
  <ele>-25.013</ele>
  <time>2026-09-02T22:08:44Z</time>
  <course>78.07</course>
  <speed>1.0178899744078433</speed>
  <fix>3d</fix>
</trkpt>
<trkpt lat="33.8102163" lon="-118.3955494">
  <ele>-24.4</ele>
  <time>2026-09-02T22:08:44Z</time>
  <course>347.96</course>
  <speed>0.99</speed>
  <fix>3d</fix>
</trkpt>
<trkpt lat="33.8102195" lon="-118.39555">
  <ele>-25.012</ele>
  <time>2026-09-02T22:08:44Z</time>
  <course>78.18</course>
  <speed>1.0178899744078433</speed>
  <fix>3d</fix>
</trkpt>
<trkpt lat="33.8102181" lon="-118.3955498">
  <ele>-24.4</ele>
  <time>2026-09-02T22:08:44Z</time>
  <course>348.21</course>
  <speed>1.0</speed>
  <fix>3d</fix>
</trkpt>
<trkpt lat="33.8102203" lon="-118.3955502">
  <ele>-25.01</ele>
  <time>2026-09-02T22:08:44Z</time>
  <course>78.29</course>
  <speed>1.016070863670443</speed>
  <fix>3d</fix>
</trkpt>
<trkpt lat="33.8102181" lon="-118.3955498">
  <ele>-24.4</ele>
  <time>2026-09-02T22:08:44Z</time>
  <course>348.21</course>
  <speed>1.0</speed>
  <fix>3d</fix>
</trkpt>
<trkpt lat="33.8102212" lon="-118.3955504">
  <ele>-25.008</ele>
  <time>2026-09-02T22:08:44Z</time>
  <course>78.41</course>
  <speed>1.016070863670443</speed>
  <fix>3d</fix>
</trkpt>
<trkpt lat="33.8102198" lon="-118.3955503">
  <ele>-24.4</ele>
  <time>2026-09-02T22:08:44Z</time>
  <course>348.44</course>
  <speed>1.0</speed>
  <fix>3d</fix>
</trkpt>
<trkpt lat="33.8102221" lon="-118.3955506">
  <ele>-25.008</ele>
  <time>2026-09-02T22:08:44Z</time>
  <course>78.52</course>
  <speed>1.016070863670443</speed>
  <fix>3d</fix>
</trkpt>
<trkpt lat="33.8102198" lon="-118.3955503">
  <ele>-24.4</ele>
  <time>2026-09-02T22:08:44Z</time>
  <course>348.44</course>
  <speed>1.0</speed>
  <fix>3d</fix>
</trkpt>
<trkpt lat="33.810223" lon="-118.3955508">
  <ele>-25.007</ele>
  <time>2026-09-02T22:08:44Z</time>
  <course>78.64</course>
  <speed>1.016070863670443</speed>
  <fix>3d</fix>
</trkpt>
<trkpt lat="33.8102216" lon="-118.3955507">
  <ele>-24.4</ele>
  <time>2026-09-02T22:08:44Z</time>
  <course>348.67</course>
  <speed>1.0</speed>
  <fix>3d</fix>
</trkpt>
<trkpt lat="33.8102239" lon="-118.3955511">
  <ele>-25.007</ele>
  <time>2026-09-02T22:08:44Z</time>
  <course>78.75</course>
  <speed>1.016070863670443</speed>
  <fix>3d</fix>
</trkpt>
<trkpt lat="33.8102216" lon="-118.3955507">
  <ele>-24.4</ele>
  <time>2026-09-02T22:08:44Z</time>
  <course>348.67</course>
  <speed>1.0</speed>
  <fix>3d</fix>
</trkpt>
<trkpt lat="33.8102248" lon="-118.3955513">
  <ele>-25.008</ele>
  <time>2026-09-02T22:08:44Z</time>
  <course>78.87</course>
  <speed>1.014347080638575</speed>
  <fix>3d</fix>
</trkpt>
<trkpt lat="33.8102234" lon="-118.3955511">
  <ele>-24.4</ele>
  <time>2026-09-02T22:08:44Z</time>
  <course>348.92</course>
  <speed>1.0</speed>
  <fix>3d</fix>
</trkpt>
<trkpt lat="33.8102256" lon="-118.3955515">
  <ele>-25.01</ele>
  <time>2026-09-02T22:08:44Z</time>
  <course>78.98</course>
  <speed>1.014347080638575</speed>
  <fix>3d</fix>
</trkpt>
<trkpt lat="33.8102234" lon="-118.3955511">
  <ele>-24.4</ele>
  <time>2026-09-02T22:08:44Z</time>
  <course>348.92</course>
  <speed>1.0</speed>
  <fix>3d</fix>
</trkpt>
<trkpt lat="33.8102265" lon="-118.3955517">
  <ele>-25.013</ele>
  <time>2026-09-02T22:08:44Z</time>
  <course>79.1</course>
  <speed>1.014347080638575</speed>
  <fix>3d</fix>
</trkpt>
<trkpt lat="33.8102252" lon="-118.3955516">
  <ele>-24.4</ele>
  <time>2026-09-02T22:08:44Z</time>
  <course>349.14</course>
  <speed>0.99</speed>
  <fix>3d</fix>
</trkpt>
<trkpt lat="33.8102274" lon="-118.3955519">
  <ele>-25.015</ele>
  <time>2026-09-02T22:08:44Z</time>
  <course>79.21</course>
  <speed>1.014347080638575</speed>
  <fix>3d</fix>
</trkpt>
<trkpt lat="33.8102252" lon="-118.3955516">
  <ele>-24.4</ele>
  <time>2026-09-02T22:08:44Z</time>
  <course>349.14</course>
  <speed>0.99</speed>
  <fix>3d</fix>
</trkpt>
<trkpt lat="33.8102283" lon="-118.3955521">
  <ele>-25.017</ele>
  <time>2026-09-02T22:08:44Z</time>
  <course>79.32</course>
  <speed>1.012719112093773</speed>
  <fix>3d</fix>
</trkpt>
<trkpt lat="33.8102269" lon="-118.395552">
  <ele>-24.41</ele>
  <time>2026-09-02T22:08:44Z</time>
  <course>349.38</course>
  <speed>0.99</speed>
  <fix>3d</fix>
</trkpt>
<trkpt lat="33.8102292" lon="-118.3955523">
  <ele>-25.018</ele>
  <time>2026-09-02T22:08:44Z</time>
  <course>79.43</course>
  <speed>1.012719112093773</speed>
  <fix>3d</fix>
</trkpt>
<trkpt lat="33.8102269" lon="-118.395552">
  <ele>-24.41</ele>
  <time>2026-09-02T22:08:44Z</time>
  <course>349.38</course>
  <speed>0.99</speed>
  <fix>3d</fix>
</trkpt>
<trkpt lat="33.8102301" lon="-118.3955525">
  <ele>-25.019</ele>
  <time>2026-09-02T22:08:44Z</time>
  <course>79.55</course>
  <speed>1.012719112093773</speed>
  <fix>3d</fix>
</trkpt>
<trkpt lat="33.8102286" lon="-118.3955523">
  <ele>-24.41</ele>
  <time>2026-09-02T22:08:44Z</time>
  <course>349.65</course>
  <speed>0.99</speed>
  <fix>3d</fix>
</trkpt>
<trkpt lat="33.810231" lon="-118.3955526">
  <ele>-25.019</ele>
  <time>2026-09-02T22:08:44Z</time>
  <course>79.67</course>
  <speed>1.0225947388873073</speed>
  <fix>3d</fix>
</trkpt>
<trkpt lat="33.8102286" lon="-118.3955523">
  <ele>-24.41</ele>
  <time>2026-09-02T22:08:44Z</time>
  <course>349.65</course>
  <speed>0.99</speed>
  <fix>3d</fix>
</trkpt>
<trkpt lat="33.8102318" lon="-118.3955528">
  <ele>-25.019</ele>
  <time>2026-09-02T22:08:44Z</time>
  <course>79.78</course>
  <speed>1.0225947388873073</speed>
  <fix>3d</fix>
</trkpt>
<trkpt lat="33.8102304" lon="-118.3955527">
  <ele>-24.41</ele>
  <time>2026-09-02T22:08:44Z</time>
  <course>349.9</course>
  <speed>0.99</speed>
  <fix>3d</fix>
</trkpt>
<trkpt lat="33.8102327" lon="-118.395553">
  <ele>-25.019</ele>
  <time>2026-09-02T22:08:44Z</time>
  <course>79.9</course>
  <speed>1.0225947388873073</speed>
  <fix>3d</fix>
</trkpt>
<trkpt lat="33.8102304" lon="-118.3955527">
  <ele>-24.41</ele>
  <time>2026-09-02T22:08:44Z</time>
  <course>349.9</course>
  <speed>0.99</speed>
  <fix>3d</fix>
</trkpt>
<trkpt lat="33.8102336" lon="-118.3955532">
  <ele>-25.016</ele>
  <time>2026-09-02T22:08:44Z</time>
  <course>80.01</course>
  <speed>1.021077861869505</speed>
  <fix>3d</fix>
</trkpt>
<trkpt lat="33.8102322" lon="-118.3955531">
  <ele>-24.41</ele>
  <time>2026-09-02T22:08:44Z</time>
  <course>350.11</course>
  <speed>0.99</speed>
  <fix>3d</fix>
</trkpt>
<trkpt lat="33.8102345" lon="-118.3955534">
  <ele>-25.013</ele>
  <time>2026-09-02T22:08:44Z</time>
  <course>80.13</course>
  <speed>1.021077861869505</speed>
  <fix>3d</fix>
</trkpt>
<trkpt lat="33.8102322" lon="-118.3955531">
  <ele>-24.41</ele>
  <time>2026-09-02T22:08:44Z</time>
  <course>350.11</course>
  <speed>0.99</speed>
  <fix>3d</fix>
</trkpt>
<trkpt lat="33.8102354" lon="-118.3955536">
  <ele>-25.011</ele>
  <time>2026-09-02T22:08:44Z</time>
  <course>80.24</course>
  <speed>1.021077861869505</speed>
  <fix>3d</fix>
</trkpt>
<trkpt lat="33.8102339" lon="-118.3955535">
  <ele>-24.4</ele>
  <time>2026-09-02T22:08:44Z</time>
  <course>350.3</course>
  <speed>0.99</speed>
  <fix>3d</fix>
</trkpt>
<trkpt lat="33.8102363" lon="-118.3955537">
  <ele>-25.009</ele>
  <time>2026-09-02T22:08:44Z</time>
  <course>80.36</course>
  <speed>1.021077861869505</speed>
  <fix>3d</fix>
</trkpt>
<trkpt lat="33.8102339" lon="-118.3955535">
  <ele>-24.4</ele>
  <time>2026-09-02T22:08:44Z</time>
  <course>350.3</course>
  <speed>0.99</speed>
  <fix>3d</fix>
</trkpt>
<trkpt lat="33.8102371" lon="-118.3955539">
  <ele>-25.009</ele>
  <time>2026-09-02T22:08:44Z</time>
  <course>80.47</course>
  <speed>1.021077861869505</speed>
  <fix>3d</fix>
</trkpt>
<trkpt lat="33.8102357" lon="-118.3955538">
  <ele>-24.4</ele>
  <time>2026-09-02T22:08:44Z</time>
  <course>350.52</course>
  <speed>0.99</speed>
  <fix>3d</fix>
</trkpt>
<trkpt lat="33.810238" lon="-118.3955541">
  <ele>-25.009</ele>
  <time>2026-09-02T22:08:44Z</time>
  <course>80.59</course>
  <speed>1.0196568050084303</speed>
  <fix>3d</fix>
</trkpt>
<trkpt lat="33.8102357" lon="-118.3955538">
  <ele>-24.4</ele>
  <time>2026-09-02T22:08:44Z</time>
  <course>350.52</course>
  <speed>0.99</speed>
  <fix>3d</fix>
</trkpt>
<trkpt lat="33.8102389" lon="-118.3955543">
  <ele>-25.009</ele>
  <time>2026-09-02T22:08:44Z</time>
  <course>80.7</course>
  <speed>1.0196568050084303</speed>
  <fix>3d</fix>
</trkpt>
<trkpt lat="33.8102375" lon="-118.3955542">
  <ele>-24.4</ele>
  <time>2026-09-02T22:08:44Z</time>
  <course>350.76</course>
  <speed>1.0</speed>
  <fix>3d</fix>
</trkpt>
<trkpt lat="33.8102398" lon="-118.3955544">
  <ele>-25.009</ele>
  <time>2026-09-02T22:08:44Z</time>
  <course>80.82</course>
  <speed>1.0196568050084303</speed>
  <fix>3d</fix>
</trkpt>
<trkpt lat="33.8102375" lon="-118.3955542">
  <ele>-24.4</ele>
  <time>2026-09-02T22:08:44Z</time>
  <course>350.76</course>
  <speed>1.0</speed>
  <fix>3d</fix>
</trkpt>
<trkpt lat="33.8102407" lon="-118.3955546">
  <ele>-25.009</ele>
  <time>2026-09-02T22:08:44Z</time>
  <course>80.93</course>
  <speed>1.0196568050084303</speed>
  <fix>3d</fix>
</trkpt>
<trkpt lat="33.8102392" lon="-118.3955545">
  <ele>-24.4</ele>
  <time>2026-09-02T22:08:44Z</time>
  <course>351.0</course>
  <speed>1.0</speed>
  <fix>3d</fix>
</trkpt>
<trkpt lat="33.8102416" lon="-118.3955548">
  <ele>-25.009</ele>
  <time>2026-09-02T22:08:44Z</time>
  <course>81.05</course>
  <speed>1.0196568050084303</speed>
  <fix>3d</fix>
</trkpt>
<trkpt lat="33.8102392" lon="-118.3955545">
  <ele>-24.4</ele>
  <time>2026-09-02T22:08:44Z</time>
  <course>351.0</course>
  <speed>1.0</speed>
  <fix>3d</fix>
</trkpt>
<trkpt lat="33.8102425" lon="-118.3955549">
  <ele>-25.01</ele>
  <time>2026-09-02T22:08:44Z</time>
  <course>81.16</course>
  <speed>1.0183319694480775</speed>
  <fix>3d</fix>
</trkpt>
<trkpt lat="33.8102411" lon="-118.3955548">
  <ele>-24.4</ele>
  <time>2026-09-02T22:08:44Z</time>
  <course>351.23</course>
  <speed>1.0</speed>
  <fix>3d</fix>
</trkpt>
<trkpt lat="33.8102434" lon="-118.3955551">
  <ele>-25.011</ele>
  <time>2026-09-02T22:08:45Z</time>
  <course>81.27</course>
  <speed>1.0183319694480775</speed>
  <fix>3d</fix>
</trkpt>
<trkpt lat="33.8102411" lon="-118.3955548">
  <ele>-24.4</ele>
  <time>2026-09-02T22:08:45Z</time>
  <course>351.23</course>
  <speed>1.0</speed>
  <fix>3d</fix>
</trkpt>
<trkpt lat="33.8102443" lon="-118.3955552">
  <ele>-25.012</ele>
  <time>2026-09-02T22:08:45Z</time>
  <course>81.39</course>
  <speed>1.0183319694480775</speed>
  <fix>3d</fix>
</trkpt>
<trkpt lat="33.8102428" lon="-118.3955552">
  <ele>-24.41</ele>
  <time>2026-09-02T22:08:45Z</time>
  <course>351.42</course>
  <speed>1.0</speed>
  <fix>3d</fix>
</trkpt>
<trkpt lat="33.8102451" lon="-118.3955554">
  <ele>-25.013</ele>
  <time>2026-09-02T22:08:45Z</time>
  <course>81.5</course>
  <speed>1.0183319694480775</speed>
  <fix>3d</fix>
</trkpt>
<trkpt lat="33.8102428" lon="-118.3955552">
  <ele>-24.41</ele>
  <time>2026-09-02T22:08:45Z</time>
  <course>351.42</course>
  <speed>1.0</speed>
  <fix>3d</fix>
</trkpt>
<trkpt lat="33.810246" lon="-118.3955556">
  <ele>-25.014</ele>
  <time>2026-09-02T22:08:45Z</time>
  <course>81.62</course>
  <speed>1.0183319694480775</speed>
  <fix>3d</fix>
</trkpt>
<trkpt lat="33.8102446" lon="-118.3955555">
  <ele>-24.41</ele>
  <time>2026-09-02T22:08:45Z</time>
  <course>351.61</course>
  <speed>1.0</speed>
  <fix>3d</fix>
</trkpt>
<trkpt lat="33.8102469" lon="-118.3955557">
  <ele>-25.015</ele>
  <time>2026-09-02T22:08:45Z</time>
  <course>81.73</course>
  <speed>1.0171037311896953</speed>
  <fix>3d</fix>
</trkpt>
<trkpt lat="33.8102446" lon="-118.3955555">
  <ele>-24.41</ele>
  <time>2026-09-02T22:08:45Z</time>
  <course>351.61</course>
  <speed>1.0</speed>
  <fix>3d</fix>
</trkpt>
<trkpt lat="33.8102478" lon="-118.3955559">
  <ele>-25.016</ele>
  <time>2026-09-02T22:08:45Z</time>
  <course>81.85</course>
  <speed>1.0171037311896953</speed>
  <fix>3d</fix>
</trkpt>
<trkpt lat="33.8102463" lon="-118.3955558">
  <ele>-24.41</ele>
  <time>2026-09-02T22:08:45Z</time>
  <course>351.83</course>
  <speed>0.99</speed>
  <fix>3d</fix>
</trkpt>
<trkpt lat="33.8102487" lon="-118.395556">
  <ele>-25.017</ele>
  <time>2026-09-02T22:08:45Z</time>
  <course>81.96</course>
  <speed>1.0171037311896953</speed>
  <fix>3d</fix>
</trkpt>
<trkpt lat="33.8102463" lon="-118.3955558">
  <ele>-24.41</ele>
  <time>2026-09-02T22:08:45Z</time>
  <course>351.83</course>
  <speed>0.99</speed>
  <fix>3d</fix>
</trkpt>
<trkpt lat="33.8102496" lon="-118.3955562">
  <ele>-25.018</ele>
  <time>2026-09-02T22:08:45Z</time>
  <course>82.08</course>
  <speed>1.0171037311896953</speed>
  <fix>3d</fix>
</trkpt>
<trkpt lat="33.8102482" lon="-118.3955561">
  <ele>-24.41</ele>
  <time>2026-09-02T22:08:45Z</time>
  <course>352.07</course>
  <speed>1.0</speed>
  <fix>3d</fix>
</trkpt>
<trkpt lat="33.8102505" lon="-118.3955563">
  <ele>-25.017</ele>
  <time>2026-09-02T22:08:45Z</time>
  <course>82.19</course>
  <speed>1.0171037311896953</speed>
  <fix>3d</fix>
</trkpt>
<trkpt lat="33.8102482" lon="-118.3955561">
  <ele>-24.41</ele>
  <time>2026-09-02T22:08:45Z</time>
  <course>352.07</course>
  <speed>1.0</speed>
  <fix>3d</fix>
</trkpt>
<trkpt lat="33.8102514" lon="-118.3955564">
  <ele>-25.014</ele>
  <time>2026-09-02T22:08:45Z</time>
  <course>82.31</course>
  <speed>1.0159724405711013</speed>
  <fix>3d</fix>
</trkpt>
<trkpt lat="33.8102499" lon="-118.3955564">
  <ele>-24.41</ele>
  <time>2026-09-02T22:08:45Z</time>
  <course>352.3</course>
  <speed>1.0</speed>
  <fix>3d</fix>
</trkpt>
<trkpt lat="33.8102523" lon="-118.3955566">
  <ele>-25.012</ele>
  <time>2026-09-02T22:08:45Z</time>
  <course>82.42</course>
  <speed>1.0159724405711013</speed>
  <fix>3d</fix>
</trkpt>
<trkpt lat="33.8102499" lon="-118.3955564">
  <ele>-24.41</ele>
  <time>2026-09-02T22:08:45Z</time>
  <course>352.3</course>
  <speed>1.0</speed>
  <fix>3d</fix>
</trkpt>
<trkpt lat="33.8102532" lon="-118.3955567">
  <ele>-25.01</ele>
  <time>2026-09-02T22:08:45Z</time>
  <course>82.54</course>
  <speed>1.0159724405711013</speed>
  <fix>3d</fix>
</trkpt>
<trkpt lat="33.8102518" lon="-118.3955566">
  <ele>-24.41</ele>
  <time>2026-09-02T22:08:45Z</time>
  <course>352.52</course>
  <speed>1.0</speed>
  <fix>3d</fix>
</trkpt>
<trkpt lat="33.8102541" lon="-118.3955569">
  <ele>-25.009</ele>
  <time>2026-09-02T22:08:45Z</time>
  <course>82.65</course>
  <speed>1.0159724405711013</speed>
  <fix>3d</fix>
</trkpt>
<trkpt lat="33.8102518" lon="-118.3955566">
  <ele>-24.41</ele>
  <time>2026-09-02T22:08:45Z</time>
  <course>352.52</course>
  <speed>1.0</speed>
  <fix>3d</fix>
</trkpt>
<trkpt lat="33.810255" lon="-118.395557">
  <ele>-25.01</ele>
  <time>2026-09-02T22:08:45Z</time>
  <course>82.77</course>
  <speed>1.0159724405711013</speed>
  <fix>3d</fix>
</trkpt>
<trkpt lat="33.8102535" lon="-118.3955569">
  <ele>-24.41</ele>
  <time>2026-09-02T22:08:45Z</time>
  <course>352.71</course>
  <speed>0.99</speed>
  <fix>3d</fix>
</trkpt>
<trkpt lat="33.8102558" lon="-118.3955571">
  <ele>-25.01</ele>
  <time>2026-09-02T22:08:45Z</time>
  <course>82.88</course>
  <speed>1.0159724405711013</speed>
  <fix>3d</fix>
</trkpt>
<trkpt lat="33.8102535" lon="-118.3955569">
  <ele>-24.41</ele>
  <time>2026-09-02T22:08:45Z</time>
  <course>352.71</course>
  <speed>0.99</speed>
  <fix>3d</fix>
</trkpt>
<trkpt lat="33.8102567" lon="-118.3955572">
  <ele>-25.012</ele>
  <time>2026-09-02T22:08:45Z</time>
  <course>82.99</course>
  <speed>1.0149384217774002</speed>
  <fix>3d</fix>
</trkpt>
<trkpt lat="33.8102552" lon="-118.3955572">
  <ele>-24.41</ele>
  <time>2026-09-02T22:08:45Z</time>
  <course>352.86</course>
  <speed>0.99</speed>
  <fix>3d</fix>
</trkpt>
<trkpt lat="33.8102576" lon="-118.3955574">
  <ele>-25.014</ele>
  <time>2026-09-02T22:08:45Z</time>
  <course>83.11</course>
  <speed>1.0248902380255165</speed>
  <fix>3d</fix>
</trkpt>
<trkpt lat="33.8102552" lon="-118.3955572">
  <ele>-24.41</ele>
  <time>2026-09-02T22:08:45Z</time>
  <course>352.86</course>
  <speed>0.99</speed>
  <fix>3d</fix>
</trkpt>
<trkpt lat="33.8102585" lon="-118.3955575">
  <ele>-25.015</ele>
  <time>2026-09-02T22:08:45Z</time>
  <course>83.22</course>
  <speed>1.0248902380255165</speed>
  <fix>3d</fix>
</trkpt>
<trkpt lat="33.8102571" lon="-118.3955575">
  <ele>-24.41</ele>
  <time>2026-09-02T22:08:45Z</time>
  <course>353.04</course>
  <speed>1.0</speed>
  <fix>3d</fix>
</trkpt>
<trkpt lat="33.8102594" lon="-118.3955576">
  <ele>-25.016</ele>
  <time>2026-09-02T22:08:45Z</time>
  <course>83.34</course>
  <speed>1.0149384217774002</speed>
  <fix>3d</fix>
</trkpt>
<trkpt lat="33.8102571" lon="-118.3955575">
  <ele>-24.41</ele>
  <time>2026-09-02T22:08:45Z</time>
  <course>353.04</course>
  <speed>1.0</speed>
  <fix>3d</fix>
</trkpt>
<trkpt lat="33.8102603" lon="-118.3955577">
  <ele>-25.016</ele>
  <time>2026-09-02T22:08:45Z</time>
  <course>83.45</course>
  <speed>1.0140019723846694</speed>
  <fix>3d</fix>
</trkpt>
<trkpt lat="33.8102588" lon="-118.3955577">
  <ele>-24.41</ele>
  <time>2026-09-02T22:08:45Z</time>
  <course>353.29</course>
  <speed>1.0</speed>
  <fix>3d</fix>
</trkpt>
<trkpt lat="33.8102612" lon="-118.3955579">
  <ele>-25.017</ele>
  <time>2026-09-02T22:08:45Z</time>
  <course>83.56</course>
  <speed>1.0239628899525608</speed>
  <fix>3d</fix>
</trkpt>
<trkpt lat="33.8102588" lon="-118.3955577">
  <ele>-24.41</ele>
  <time>2026-09-02T22:08:45Z</time>
  <course>353.29</course>
  <speed>1.0</speed>
  <fix>3d</fix>
</trkpt>
<trkpt lat="33.8102621" lon="-118.395558">
  <ele>-25.017</ele>
  <time>2026-09-02T22:08:45Z</time>
  <course>83.68</course>
  <speed>1.0239628899525608</speed>
  <fix>3d</fix>
</trkpt>
<trkpt lat="33.8102607" lon="-118.395558">
  <ele>-24.41</ele>
  <time>2026-09-02T22:08:45Z</time>
  <course>353.55</course>
  <speed>1.0</speed>
  <fix>3d</fix>
</trkpt>
<trkpt lat="33.810263" lon="-118.3955581">
  <ele>-25.017</ele>
  <time>2026-09-02T22:08:45Z</time>
  <course>83.8</course>
  <speed>1.0239628899525608</speed>
  <fix>3d</fix>
</trkpt>
<trkpt lat="33.8102607" lon="-118.395558">
  <ele>-24.41</ele>
  <time>2026-09-02T22:08:45Z</time>
  <course>353.55</course>
  <speed>1.0</speed>
  <fix>3d</fix>
</trkpt>
<trkpt lat="33.8102639" lon="-118.3955582">
  <ele>-25.015</ele>
  <time>2026-09-02T22:08:45Z</time>
  <course>83.91</course>
  <speed>1.0239628899525608</speed>
  <fix>3d</fix>
</trkpt>
<trkpt lat="33.8102624" lon="-118.3955582">
  <ele>-24.41</ele>
  <time>2026-09-02T22:08:45Z</time>
  <course>353.79</course>
  <speed>1.0</speed>
  <fix>3d</fix>
</trkpt>
<trkpt lat="33.8102648" lon="-118.3955583">
  <ele>-25.013</ele>
  <time>2026-09-02T22:08:45Z</time>
  <course>84.02</course>
  <speed>1.0231324449942931</speed>
  <fix>3d</fix>
</trkpt>
<trkpt lat="33.8102624" lon="-118.3955582">
  <ele>-24.41</ele>
  <time>2026-09-02T22:08:45Z</time>
  <course>353.79</course>
  <speed>1.0</speed>
  <fix>3d</fix>
</trkpt>
<trkpt lat="33.8102657" lon="-118.3955584">
  <ele>-25.012</ele>
  <time>2026-09-02T22:08:45Z</time>
  <course>84.14</course>
  <speed>1.0231324449942931</speed>
  <fix>3d</fix>
</trkpt>
<trkpt lat="33.8102642" lon="-118.3955585">
  <ele>-24.41</ele>
  <time>2026-09-02T22:08:45Z</time>
  <course>354.04</course>
  <speed>0.99</speed>
  <fix>3d</fix>
</trkpt>
<trkpt lat="33.8102666" lon="-118.3955585">
  <ele>-25.013</ele>
  <time>2026-09-02T22:08:45Z</time>
  <course>84.25</course>
  <speed>1.0231324449942931</speed>
  <fix>3d</fix>
</trkpt>
<trkpt lat="33.8102642" lon="-118.3955585">
  <ele>-24.41</ele>
  <time>2026-09-02T22:08:45Z</time>
  <course>354.04</course>
  <speed>0.99</speed>
  <fix>3d</fix>
</trkpt>
<trkpt lat="33.8102675" lon="-118.3955586">
  <ele>-25.015</ele>
  <time>2026-09-02T22:08:45Z</time>
  <course>84.37</course>
  <speed>1.0231324449942931</speed>
  <fix>3d</fix>
</trkpt>
<trkpt lat="33.810266" lon="-118.3955587">
  <ele>-24.41</ele>
  <time>2026-09-02T22:08:45Z</time>
  <course>354.31</course>
  <speed>0.99</speed>
  <fix>3d</fix>
</trkpt>
<trkpt lat="33.8102684" lon="-118.3955587">
  <ele>-25.017</ele>
  <time>2026-09-02T22:08:45Z</time>
  <course>84.48</course>
  <speed>1.022399139279763</speed>
  <fix>3d</fix>
</trkpt>
<trkpt lat="33.810266" lon="-118.3955587">
  <ele>-24.41</ele>
  <time>2026-09-02T22:08:45Z</time>
  <course>354.31</course>
  <speed>0.99</speed>
  <fix>3d</fix>
</trkpt>
<trkpt lat="33.8102693" lon="-118.3955588">
  <ele>-25.018</ele>
  <time>2026-09-02T22:08:45Z</time>
  <course>84.6</course>
  <speed>1.022399139279763</speed>
  <fix>3d</fix>
</trkpt>
<trkpt lat="33.8102678" lon="-118.3955589">
  <ele>-24.41</ele>
  <time>2026-09-02T22:08:45Z</time>
  <course>354.59</course>
  <speed>1.0</speed>
  <fix>3d</fix>
</trkpt>
<trkpt lat="33.8102702" lon="-118.3955589">
  <ele>-25.019</ele>
  <time>2026-09-02T22:08:45Z</time>
  <course>84.71</course>
  <speed>1.022399139279763</speed>
  <fix>3d</fix>
</trkpt>
<trkpt lat="33.8102678" lon="-118.3955589">
  <ele>-24.41</ele>
  <time>2026-09-02T22:08:45Z</time>
  <course>354.59</course>
  <speed>1.0</speed>
  <fix>3d</fix>
</trkpt>
<trkpt lat="33.810271" lon="-118.395559">
  <ele>-25.02</ele>
  <time>2026-09-02T22:08:45Z</time>
  <course>84.83</course>
  <speed>1.022399139279763</speed>
  <fix>3d</fix>
</trkpt>
<trkpt lat="33.8102696" lon="-118.395559">
  <ele>-24.41</ele>
  <time>2026-09-02T22:08:45Z</time>
  <course>354.87</course>
  <speed>0.99</speed>
  <fix>3d</fix>
</trkpt>
<trkpt lat="33.8102719" lon="-118.3955591">
  <ele>-25.019</ele>
  <time>2026-09-02T22:08:45Z</time>
  <course>84.94</course>
  <speed>1.022399139279763</speed>
  <fix>3d</fix>
</trkpt>
<trkpt lat="33.8102696" lon="-118.395559">
  <ele>-24.41</ele>
  <time>2026-09-02T22:08:45Z</time>
  <course>354.87</course>
  <speed>0.99</speed>
  <fix>3d</fix>
</trkpt>
<trkpt lat="33.8102728" lon="-118.3955592">
  <ele>-25.017</ele>
  <time>2026-09-02T22:08:45Z</time>
  <course>85.06</course>
  <speed>1.0217631819555841</speed>
  <fix>3d</fix>
</trkpt>
<trkpt lat="33.8102714" lon="-118.3955593">
  <ele>-24.4</ele>
  <time>2026-09-02T22:08:45Z</time>
  <course>355.07</course>
  <speed>0.99</speed>
  <fix>3d</fix>
</trkpt>
<trkpt lat="33.8102737" lon="-118.3955593">
  <ele>-25.015</ele>
  <time>2026-09-02T22:08:45Z</time>
  <course>85.17</course>
  <speed>1.0217631819555841</speed>
  <fix>3d</fix>
</trkpt>
<trkpt lat="33.8102714" lon="-118.3955593">
  <ele>-24.4</ele>
  <time>2026-09-02T22:08:45Z</time>
  <course>355.07</course>
  <speed>0.99</speed>
  <fix>3d</fix>
</trkpt>
<trkpt lat="33.8102746" lon="-118.3955594">
  <ele>-25.011</ele>
  <time>2026-09-02T22:08:45Z</time>
  <course>85.28</course>
  <speed>1.0217631819555841</speed>
  <fix>3d</fix>
</trkpt>
<trkpt lat="33.8102732" lon="-118.3955595">
  <ele>-24.4</ele>
  <time>2026-09-02T22:08:45Z</time>
  <course>355.26</course>
  <speed>0.99</speed>
  <fix>3d</fix>
</trkpt>
<trkpt lat="33.8102755" lon="-118.3955595">
  <ele>-25.008</ele>
  <time>2026-09-02T22:08:45Z</time>
  <course>85.4</course>
  <speed>1.0217631819555841</speed>
  <fix>3d</fix>
</trkpt>
<trkpt lat="33.8102732" lon="-118.3955595">
  <ele>-24.4</ele>
  <time>2026-09-02T22:08:45Z</time>
  <course>355.26</course>
  <speed>0.99</speed>
  <fix>3d</fix>
</trkpt>
<trkpt lat="33.8102764" lon="-118.3955596">
  <ele>-25.007</ele>
  <time>2026-09-02T22:08:45Z</time>
  <course>85.51</course>
  <speed>1.0212247548899311</speed>
  <fix>3d</fix>
</trkpt>
<trkpt lat="33.810275" lon="-118.3955596">
  <ele>-24.39</ele>
  <time>2026-09-02T22:08:45Z</time>
  <course>355.52</course>
  <speed>0.99</speed>
  <fix>3d</fix>
</trkpt>
<trkpt lat="33.8102773" lon="-118.3955596">
  <ele>-25.005</ele>
  <time>2026-09-02T22:08:45Z</time>
  <course>85.63</course>
  <speed>1.0212247548899311</speed>
  <fix>3d</fix>
</trkpt>
<trkpt lat="33.810275" lon="-118.3955596">
  <ele>-24.39</ele>
  <time>2026-09-02T22:08:45Z</time>
  <course>355.52</course>
  <speed>0.99</speed>
  <fix>3d</fix>
</trkpt>
<trkpt lat="33.8102782" lon="-118.3955597">
  <ele>-25.004</ele>
  <time>2026-09-02T22:08:45Z</time>
  <course>85.74</course>
  <speed>1.0212247548899311</speed>
  <fix>3d</fix>
</trkpt>
<trkpt lat="33.8102767" lon="-118.3955598">
  <ele>-24.39</ele>
  <time>2026-09-02T22:08:45Z</time>
  <course>355.76</course>
  <speed>0.99</speed>
  <fix>3d</fix>
</trkpt>
<trkpt lat="33.8102791" lon="-118.3955598">
  <ele>-25.005</ele>
  <time>2026-09-02T22:08:45Z</time>
  <course>85.86</course>
  <speed>1.0212247548899311</speed>
  <fix>3d</fix>
</trkpt>
<trkpt lat="33.8102767" lon="-118.3955598">
  <ele>-24.39</ele>
  <time>2026-09-02T22:08:45Z</time>
  <course>355.76</course>
  <speed>0.99</speed>
  <fix>3d</fix>
</trkpt>
<trkpt lat="33.81028" lon="-118.3955599">
  <ele>-25.006</ele>
  <time>2026-09-02T22:08:45Z</time>
  <course>85.97</course>
  <speed>1.0212247548899311</speed>
  <fix>3d</fix>
</trkpt>
<trkpt lat="33.8102786" lon="-118.39556">
  <ele>-24.39</ele>
  <time>2026-09-02T22:08:45Z</time>
  <course>355.98</course>
  <speed>0.99</speed>
  <fix>3d</fix>
</trkpt>
<trkpt lat="33.8102809" lon="-118.3955599">
  <ele>-25.007</ele>
  <time>2026-09-02T22:08:45Z</time>
  <course>86.09</course>
  <speed>1.0207840124139878</speed>
  <fix>3d</fix>
</trkpt>
<trkpt lat="33.8102786" lon="-118.39556">
  <ele>-24.39</ele>
  <time>2026-09-02T22:08:45Z</time>
  <course>355.98</course>
  <speed>0.99</speed>
  <fix>3d</fix>
</trkpt>
<trkpt lat="33.8102818" lon="-118.39556">
  <ele>-25.008</ele>
  <time>2026-09-02T22:08:45Z</time>
  <course>86.2</course>
  <speed>1.0207840124139878</speed>
  <fix>3d</fix>
</trkpt>
<trkpt lat="33.8102803" lon="-118.3955601">
  <ele>-24.4</ele>
  <time>2026-09-02T22:08:45Z</time>
  <course>356.23</course>
  <speed>0.99</speed>
  <fix>3d</fix>
</trkpt>
<trkpt lat="33.8102827" lon="-118.3955601">
  <ele>-25.009</ele>
  <time>2026-09-02T22:08:45Z</time>
  <course>86.32</course>
  <speed>1.0207840124139878</speed>
  <fix>3d</fix>
</trkpt>
<trkpt lat="33.8102803" lon="-118.3955601">
  <ele>-24.4</ele>
  <time>2026-09-02T22:08:45Z</time>
  <course>356.23</course>
  <speed>0.99</speed>
  <fix>3d</fix>
</trkpt>
<trkpt lat="33.8102836" lon="-118.3955601">
  <ele>-25.01</ele>
  <time>2026-09-02T22:08:45Z</time>
  <course>86.43</course>
  <speed>1.0207840124139878</speed>
  <fix>3d</fix>
</trkpt>
<trkpt lat="33.8102821" lon="-118.3955602">
  <ele>-24.4</ele>
  <time>2026-09-02T22:08:45Z</time>
  <course>356.5</course>
  <speed>0.99</speed>
  <fix>3d</fix>
</trkpt>
<trkpt lat="33.8102845" lon="-118.3955602">
  <ele>-25.012</ele>
  <time>2026-09-02T22:08:45Z</time>
  <course>86.55</course>
  <speed>1.0207840124139878</speed>
  <fix>3d</fix>
</trkpt>
<trkpt lat="33.8102821" lon="-118.3955602">
  <ele>-24.4</ele>
  <time>2026-09-02T22:08:45Z</time>
  <course>356.5</course>
  <speed>0.99</speed>
  <fix>3d</fix>
</trkpt>
<trkpt lat="33.8102854" lon="-118.3955603">
  <ele>-25.015</ele>
  <time>2026-09-02T22:08:45Z</time>
  <course>86.66</course>
  <speed>1.0204410811016968</speed>
  <fix>3d</fix>
</trkpt>
<trkpt lat="33.8102839" lon="-118.3955604">
  <ele>-24.41</ele>
  <time>2026-09-02T22:08:45Z</time>
  <course>356.73</course>
  <speed>1.0</speed>
  <fix>3d</fix>
</trkpt>
<trkpt lat="33.8102863" lon="-118.3955603">
  <ele>-25.016</ele>
  <time>2026-09-02T22:08:45Z</time>
  <course>86.78</course>
  <speed>1.0204410811016968</speed>
  <fix>3d</fix>
</trkpt>
<trkpt lat="33.8102839" lon="-118.3955604">
  <ele>-24.41</ele>
  <time>2026-09-02T22:08:45Z</time>
  <course>356.73</course>
  <speed>1.0</speed>
  <fix>3d</fix>
</trkpt>
<trkpt lat="33.8102872" lon="-118.3955604">
  <ele>-25.017</ele>
  <time>2026-09-02T22:08:45Z</time>
  <course>86.89</course>
  <speed>1.0204410811016968</speed>
  <fix>3d</fix>
</trkpt>
<trkpt lat="33.8102856" lon="-118.3955605">
  <ele>-24.41</ele>
  <time>2026-09-02T22:08:45Z</time>
  <course>356.97</course>
  <speed>1.0</speed>
  <fix>3d</fix>
</trkpt>
<trkpt lat="33.8102881" lon="-118.3955604">
  <ele>-25.018</ele>
  <time>2026-09-02T22:08:45Z</time>
  <course>87.0</course>
  <speed>1.0204410811016968</speed>
  <fix>3d</fix>
</trkpt>
<trkpt lat="33.8102856" lon="-118.3955605">
  <ele>-24.41</ele>
  <time>2026-09-02T22:08:45Z</time>
  <course>356.97</course>
  <speed>1.0</speed>
  <fix>3d</fix>
</trkpt>
<trkpt lat="33.810289" lon="-118.3955605">
  <ele>-25.019</ele>
  <time>2026-09-02T22:08:45Z</time>
  <course>87.12</course>
  <speed>1.0204410811016968</speed>
  <fix>3d</fix>
</trkpt>
<trkpt lat="33.8102875" lon="-118.3955606">
  <ele>-24.42</ele>
  <time>2026-09-02T22:08:45Z</time>
  <course>357.2</course>
  <speed>1.0</speed>
  <fix>3d</fix>
</trkpt>
<trkpt lat="33.8102899" lon="-118.3955605">
  <ele>-25.02</ele>
  <time>2026-09-02T22:08:45Z</time>
  <course>87.23</course>
  <speed>1.020196059588548</speed>
  <fix>3d</fix>
</trkpt>
<trkpt lat="33.8102875" lon="-118.3955606">
  <ele>-24.42</ele>
  <time>2026-09-02T22:08:45Z</time>
  <course>357.2</course>
  <speed>1.0</speed>
  <fix>3d</fix>
</trkpt>
<trkpt lat="33.8102908" lon="-118.3955606">
  <ele>-25.02</ele>
  <time>2026-09-02T22:08:45Z</time>
  <course>87.35</course>
  <speed>1.020196059588548</speed>
  <fix>3d</fix>
</trkpt>
<trkpt lat="33.8102892" lon="-118.3955607">
  <ele>-24.41</ele>
  <time>2026-09-02T22:08:45Z</time>
  <course>357.43</course>
  <speed>1.0</speed>
  <fix>3d</fix>
</trkpt>
<trkpt lat="33.8102916" lon="-118.3955606">
  <ele>-25.019</ele>
  <time>2026-09-02T22:08:45Z</time>
  <course>87.46</course>
  <speed>1.030194156457898</speed>
  <fix>3d</fix>
</trkpt>
<trkpt lat="33.8102892" lon="-118.3955607">
  <ele>-24.41</ele>
  <time>2026-09-02T22:08:45Z</time>
  <course>357.43</course>
  <speed>1.0</speed>
  <fix>3d</fix>
</trkpt>
<trkpt lat="33.8102925" lon="-118.3955607">
  <ele>-25.017</ele>
  <time>2026-09-02T22:08:45Z</time>
  <course>87.58</course>
  <speed>1.030194156457898</speed>
  <fix>3d</fix>
</trkpt>
<trkpt lat="33.8102911" lon="-118.3955608">
  <ele>-24.41</ele>
  <time>2026-09-02T22:08:45Z</time>
  <course>357.67</course>
  <speed>1.0</speed>
  <fix>3d</fix>
</trkpt>
<trkpt lat="33.8102934" lon="-118.3955607">
  <ele>-25.014</ele>
  <time>2026-09-02T22:08:45Z</time>
  <course>87.69</course>
  <speed>1.030194156457898</speed>
  <fix>3d</fix>
</trkpt>
<trkpt lat="33.8102911" lon="-118.3955608">
  <ele>-24.41</ele>
  <time>2026-09-02T22:08:45Z</time>
  <course>357.67</course>
  <speed>1.0</speed>
  <fix>3d</fix>
</trkpt>
<trkpt lat="33.8102943" lon="-118.3955607">
  <ele>-25.013</ele>
  <time>2026-09-02T22:08:45Z</time>
  <course>87.81</course>
  <speed>1.0300485425454473</speed>
  <fix>3d</fix>
</trkpt>
<trkpt lat="33.810293" lon="-118.3955609">
  <ele>-24.41</ele>
  <time>2026-09-02T22:08:45Z</time>
  <course>357.9</course>
  <speed>1.01</speed>
  <fix>3d</fix>
</trkpt>
<trkpt lat="33.8102952" lon="-118.3955608">
  <ele>-25.012</ele>
  <time>2026-09-02T22:08:45Z</time>
  <course>87.92</course>
  <speed>1.0300485425454473</speed>
  <fix>3d</fix>
</trkpt>
<trkpt lat="33.810293" lon="-118.3955609">
  <ele>-24.41</ele>
  <time>2026-09-02T22:08:45Z</time>
  <course>357.9</course>
  <speed>1.01</speed>
  <fix>3d</fix>
</trkpt>
<trkpt lat="33.8102961" lon="-118.3955608">
  <ele>-25.012</ele>
  <time>2026-09-02T22:08:45Z</time>
  <course>88.04</course>
  <speed>1.0200490184299968</speed>
  <fix>3d</fix>
</trkpt>
<trkpt lat="33.8102947" lon="-118.3955609">
  <ele>-24.4</ele>
  <time>2026-09-02T22:08:45Z</time>
  <course>358.14</course>
  <speed>1.01</speed>
  <fix>3d</fix>
</trkpt>
<trkpt lat="33.810297" lon="-118.3955608">
  <ele>-25.012</ele>
  <time>2026-09-02T22:08:45Z</time>
  <course>88.15</course>
  <speed>1.0200490184299968</speed>
  <fix>3d</fix>
</trkpt>
<trkpt lat="33.8102947" lon="-118.3955609">
  <ele>-24.4</ele>
  <time>2026-09-02T22:08:45Z</time>
  <course>358.14</course>
  <speed>1.01</speed>
  <fix>3d</fix>
</trkpt>
<trkpt lat="33.8102979" lon="-118.3955609">
  <ele>-25.012</ele>
  <time>2026-09-02T22:08:45Z</time>
  <course>88.26</course>
  <speed>1.0200490184299968</speed>
  <fix>3d</fix>
</trkpt>
<trkpt lat="33.8102966" lon="-118.395561">
  <ele>-24.4</ele>
  <time>2026-09-02T22:08:45Z</time>
  <course>358.34</course>
  <speed>1.0</speed>
  <fix>3d</fix>
</trkpt>
<trkpt lat="33.8102988" lon="-118.3955609">
  <ele>-25.011</ele>
  <time>2026-09-02T22:08:45Z</time>
  <course>88.38</course>
  <speed>1.02</speed>
  <fix>3d</fix>
</trkpt>
<trkpt lat="33.8102966" lon="-118.395561">
  <ele>-24.4</ele>
  <time>2026-09-02T22:08:45Z</time>
  <course>358.34</course>
  <speed>1.0</speed>
  <fix>3d</fix>
</trkpt>
<trkpt lat="33.8102997" lon="-118.3955609">
  <ele>-25.01</ele>
  <time>2026-09-02T22:08:45Z</time>
  <course>88.49</course>
  <speed>1.02</speed>
  <fix>3d</fix>
</trkpt>
<trkpt lat="33.8102983" lon="-118.3955611">
  <ele>-24.4</ele>
  <time>2026-09-02T22:08:45Z</time>
  <course>358.52</course>
  <speed>1.0</speed>
  <fix>3d</fix>
</trkpt>
<trkpt lat="33.8103006" lon="-118.3955609">
  <ele>-25.008</ele>
  <time>2026-09-02T22:08:45Z</time>
  <course>88.61</course>
  <speed>1.02</speed>
  <fix>3d</fix>
</trkpt>
<trkpt lat="33.8102983" lon="-118.3955611">
  <ele>-24.4</ele>
  <time>2026-09-02T22:08:45Z</time>
  <course>358.52</course>
  <speed>1.0</speed>
  <fix>3d</fix>
</trkpt>
<trkpt lat="33.8103015" lon="-118.395561">
  <ele>-25.008</ele>
  <time>2026-09-02T22:08:45Z</time>
  <course>88.73</course>
  <speed>1.02</speed>
  <fix>3d</fix>
</trkpt>
<trkpt lat="33.8103002" lon="-118.3955611">
  <ele>-24.4</ele>
  <time>2026-09-02T22:08:45Z</time>
  <course>358.73</course>
  <speed>1.0</speed>
  <fix>3d</fix>
</trkpt>
<trkpt lat="33.8103024" lon="-118.395561">
  <ele>-25.009</ele>
  <time>2026-09-02T22:08:45Z</time>
  <course>88.84</course>
  <speed>1.02</speed>
  <fix>3d</fix>
</trkpt>
<trkpt lat="33.8103002" lon="-118.3955611">
  <ele>-24.4</ele>
  <time>2026-09-02T22:08:45Z</time>
  <course>358.73</course>
  <speed>1.0</speed>
  <fix>3d</fix>
</trkpt>
<trkpt lat="33.8103033" lon="-118.395561">
  <ele>-25.011</ele>
  <time>2026-09-02T22:08:45Z</time>
  <course>88.95</course>
  <speed>1.02</speed>
  <fix>3d</fix>
</trkpt>
<trkpt lat="33.8103019" lon="-118.3955612">
  <ele>-24.41</ele>
  <time>2026-09-02T22:08:45Z</time>
  <course>358.96</course>
  <speed>1.0</speed>
  <fix>3d</fix>
</trkpt>
<trkpt lat="33.8103042" lon="-118.395561">
  <ele>-25.013</ele>
  <time>2026-09-02T22:08:45Z</time>
  <course>89.06</course>
  <speed>1.02</speed>
  <fix>3d</fix>
</trkpt>
<trkpt lat="33.8103019" lon="-118.3955612">
  <ele>-24.41</ele>
  <time>2026-09-02T22:08:45Z</time>
  <course>358.96</course>
  <speed>1.0</speed>
  <fix>3d</fix>
</trkpt>
<trkpt lat="33.8103051" lon="-118.395561">
  <ele>-25.015</ele>
  <time>2026-09-02T22:08:45Z</time>
  <course>89.18</course>
  <speed>1.02</speed>
  <fix>3d</fix>
</trkpt>
<trkpt lat="33.8103038" lon="-118.3955612">
  <ele>-24.41</ele>
  <time>2026-09-02T22:08:45Z</time>
  <course>359.21</course>
  <speed>1.0</speed>
  <fix>3d</fix>
</trkpt>
<trkpt lat="33.810306" lon="-118.395561">
  <ele>-25.018</ele>
  <time>2026-09-02T22:08:45Z</time>
  <course>89.29</course>
  <speed>1.02</speed>
  <fix>3d</fix>
</trkpt>
<trkpt lat="33.8103038" lon="-118.3955612">
  <ele>-24.41</ele>
  <time>2026-09-02T22:08:45Z</time>
  <course>359.21</course>
  <speed>1.0</speed>
  <fix>3d</fix>
</trkpt>
<trkpt lat="33.8103069" lon="-118.395561">
  <ele>-25.019</ele>
  <time>2026-09-02T22:08:45Z</time>
  <course>89.41</course>
  <speed>1.02</speed>
  <fix>3d</fix>
</trkpt>
<trkpt lat="33.8103055" lon="-118.3955612">
  <ele>-24.41</ele>
  <time>2026-09-02T22:08:45Z</time>
  <course>359.45</course>
  <speed>1.0</speed>
  <fix>3d</fix>
</trkpt>
<trkpt lat="33.8103078" lon="-118.395561">
  <ele>-25.018</ele>
  <time>2026-09-02T22:08:45Z</time>
  <course>89.52</course>
  <speed>1.0200490184299968</speed>
  <fix>3d</fix>
</trkpt>
<trkpt lat="33.8103055" lon="-118.3955612">
  <ele>-24.41</ele>
  <time>2026-09-02T22:08:45Z</time>
  <course>359.45</course>
  <speed>1.0</speed>
  <fix>3d</fix>
</trkpt>
<trkpt lat="33.8103087" lon="-118.3955611">
  <ele>-25.016</ele>
  <time>2026-09-02T22:08:45Z</time>
  <course>89.64</course>
  <speed>1.0200490184299968</speed>
  <fix>3d</fix>
</trkpt>
<trkpt lat="33.8103074" lon="-118.3955613">
  <ele>-24.41</ele>
  <time>2026-09-02T22:08:45Z</time>
  <course>359.66</course>
  <speed>1.0</speed>
  <fix>3d</fix>
</trkpt>
<trkpt lat="33.8103096" lon="-118.3955611">
  <ele>-25.014</ele>
  <time>2026-09-02T22:08:45Z</time>
  <course>89.75</course>
  <speed>1.0200490184299968</speed>
  <fix>3d</fix>
</trkpt>
<trkpt lat="33.8103074" lon="-118.3955613">
  <ele>-24.41</ele>
  <time>2026-09-02T22:08:45Z</time>
  <course>359.66</course>
  <speed>1.0</speed>
  <fix>3d</fix>
</trkpt>
<trkpt lat="33.8103106" lon="-118.3955611">
  <ele>-25.011</ele>
  <time>2026-09-02T22:08:45Z</time>
  <course>89.87</course>
  <speed>1.0200490184299968</speed>
  <fix>3d</fix>
</trkpt>
<trkpt lat="33.8103093" lon="-118.3955613">
  <ele>-24.41</ele>
  <time>2026-09-02T22:08:45Z</time>
  <course>359.89</course>
  <speed>1.0</speed>
  <fix>3d</fix>
</trkpt>
<trkpt lat="33.8103115" lon="-118.3955611">
  <ele>-25.009</ele>
  <time>2026-09-02T22:08:45Z</time>
  <course>89.98</course>
  <speed>1.0200490184299968</speed>
  <fix>3d</fix>
</trkpt>
<trkpt lat="33.8103093" lon="-118.3955613">
  <ele>-24.41</ele>
  <time>2026-09-02T22:08:45Z</time>
  <course>359.89</course>
  <speed>1.0</speed>
  <fix>3d</fix>
</trkpt>
<trkpt lat="33.8103124" lon="-118.3955611">
  <ele>-25.009</ele>
  <time>2026-09-02T22:08:45Z</time>
  <course>90.1</course>
  <speed>1.020196059588548</speed>
  <fix>3d</fix>
</trkpt>
<trkpt lat="33.810311" lon="-118.3955613">
  <ele>-24.41</ele>
  <time>2026-09-02T22:08:45Z</time>
  <course>0.15</course>
  <speed>1.0</speed>
  <fix>3d</fix>
</trkpt>
<trkpt lat="33.8103133" lon="-118.395561">
  <ele>-25.011</ele>
  <time>2026-09-02T22:08:45Z</time>
  <course>90.21</course>
  <speed>1.020196059588548</speed>
  <fix>3d</fix>
</trkpt>
<trkpt lat="33.810311" lon="-118.3955613">
  <ele>-24.41</ele>
  <time>2026-09-02T22:08:45Z</time>
  <course>0.15</course>
  <speed>1.0</speed>
  <fix>3d</fix>
</trkpt>
<trkpt lat="33.8103142" lon="-118.3955611">
  <ele>-25.013</ele>
  <time>2026-09-02T22:08:45Z</time>
  <course>90.33</course>
  <speed>1.020196059588548</speed>
  <fix>3d</fix>
</trkpt>
<trkpt lat="33.8103129" lon="-118.3955613">
  <ele>-24.41</ele>
  <time>2026-09-02T22:08:45Z</time>
  <course>0.44</course>
  <speed>1.0</speed>
  <fix>3d</fix>
</trkpt>
<trkpt lat="33.8103151" lon="-118.3955611">
  <ele>-25.016</ele>
  <time>2026-09-02T22:08:45Z</time>
  <course>90.44</course>
  <speed>1.020196059588548</speed>
  <fix>3d</fix>
</trkpt>
<trkpt lat="33.8103129" lon="-118.3955613">
  <ele>-24.41</ele>
  <time>2026-09-02T22:08:45Z</time>
  <course>0.44</course>
  <speed>1.0</speed>
  <fix>3d</fix>
</trkpt>
<trkpt lat="33.810316" lon="-118.3955611">
  <ele>-25.018</ele>
  <time>2026-09-02T22:08:45Z</time>
  <course>90.56</course>
  <speed>1.0104454463255303</speed>
  <fix>3d</fix>
</trkpt>
<trkpt lat="33.8103146" lon="-118.3955613">
  <ele>-24.41</ele>
  <time>2026-09-02T22:08:45Z</time>
  <course>0.72</course>
  <speed>1.0</speed>
  <fix>3d</fix>
</trkpt>
<trkpt lat="33.8103169" lon="-118.3955611">
  <ele>-25.019</ele>
  <time>2026-09-02T22:08:45Z</time>
  <course>90.67</course>
  <speed>1.0104454463255303</speed>
  <fix>3d</fix>
</trkpt>
<trkpt lat="33.8103146" lon="-118.3955613">
  <ele>-24.41</ele>
  <time>2026-09-02T22:08:45Z</time>
  <course>0.72</course>
  <speed>1.0</speed>
  <fix>3d</fix>
</trkpt>
<trkpt lat="33.8103178" lon="-118.3955611">
  <ele>-25.019</ele>
  <time>2026-09-02T22:08:45Z</time>
  <course>90.79</course>
  <speed>1.0104454463255303</speed>
  <fix>3d</fix>
</trkpt>
<trkpt lat="33.8103165" lon="-118.3955613">
  <ele>-24.41</ele>
  <time>2026-09-02T22:08:45Z</time>
  <course>0.99</course>
  <speed>0.99</speed>
  <fix>3d</fix>
</trkpt>
<trkpt lat="33.8103187" lon="-118.3955611">
  <ele>-25.017</ele>
  <time>2026-09-02T22:08:45Z</time>
  <course>90.9</course>
  <speed>1.0104454463255303</speed>
  <fix>3d</fix>
</trkpt>
<trkpt lat="33.8103165" lon="-118.3955613">
  <ele>-24.41</ele>
  <time>2026-09-02T22:08:45Z</time>
  <course>0.99</course>
  <speed>0.99</speed>
  <fix>3d</fix>
</trkpt>
<trkpt lat="33.8103196" lon="-118.3955611">
  <ele>-25.017</ele>
  <time>2026-09-02T22:08:45Z</time>
  <course>91.01</course>
  <speed>1.0107917688624102</speed>
  <fix>3d</fix>
</trkpt>
<trkpt lat="33.8103182" lon="-118.3955612">
  <ele>-24.41</ele>
  <time>2026-09-02T22:08:45Z</time>
  <course>1.29</course>
  <speed>0.99</speed>
  <fix>3d</fix>
</trkpt>
<trkpt lat="33.8103205" lon="-118.395561">
  <ele>-25.016</ele>
  <time>2026-09-02T22:08:45Z</time>
  <course>91.13</course>
  <speed>1.0107917688624102</speed>
  <fix>3d</fix>
</trkpt>
<trkpt lat="33.8103182" lon="-118.3955612">
  <ele>-24.41</ele>
  <time>2026-09-02T22:08:45Z</time>
  <course>1.29</course>
  <speed>0.99</speed>
  <fix>3d</fix>
</trkpt>
<trkpt lat="33.8103214" lon="-118.395561">
  <ele>-25.015</ele>
  <time>2026-09-02T22:08:45Z</time>
  <course>91.24</course>
  <speed>1.0107917688624102</speed>
  <fix>3d</fix>
</trkpt>
<trkpt lat="33.81032" lon="-118.3955612">
  <ele>-24.41</ele>
  <time>2026-09-02T22:08:45Z</time>
  <course>1.56</course>
  <speed>0.99</speed>
  <fix>3d</fix>
</trkpt>
<trkpt lat="33.8103223" lon="-118.395561">
  <ele>-25.014</ele>
  <time>2026-09-02T22:08:45Z</time>
  <course>91.36</course>
  <speed>1.0107917688624102</speed>
  <fix>3d</fix>
</trkpt>
<trkpt lat="33.81032" lon="-118.3955612">
  <ele>-24.41</ele>
  <time>2026-09-02T22:08:45Z</time>
  <course>1.56</course>
  <speed>0.99</speed>
  <fix>3d</fix>
</trkpt>
<trkpt lat="33.8103232" lon="-118.3955609">
  <ele>-25.013</ele>
  <time>2026-09-02T22:08:45Z</time>
  <course>91.47</course>
  <speed>1.0107917688624102</speed>
  <fix>3d</fix>
</trkpt>
<trkpt lat="33.8103217" lon="-118.3955611">
  <ele>-24.41</ele>
  <time>2026-09-02T22:08:45Z</time>
  <course>1.8</course>
  <speed>0.99</speed>
  <fix>3d</fix>
</trkpt>
<trkpt lat="33.8103241" lon="-118.3955609">
  <ele>-25.012</ele>
  <time>2026-09-02T22:08:45Z</time>
  <course>91.59</course>
  <speed>1.0212247548899311</speed>
  <fix>3d</fix>
</trkpt>
<trkpt lat="33.8103217" lon="-118.3955611">
  <ele>-24.41</ele>
  <time>2026-09-02T22:08:45Z</time>
  <course>1.8</course>
  <speed>0.99</speed>
  <fix>3d</fix>
</trkpt>
<trkpt lat="33.810325" lon="-118.3955609">
  <ele>-25.012</ele>
  <time>2026-09-02T22:08:45Z</time>
  <course>91.7</course>
  <speed>1.0212247548899311</speed>
  <fix>3d</fix>
</trkpt>
<trkpt lat="33.8103236" lon="-118.395561">
  <ele>-24.4</ele>
  <time>2026-09-02T22:08:45Z</time>
  <course>2.01</course>
  <speed>0.99</speed>
  <fix>3d</fix>
</trkpt>
<trkpt lat="33.8103259" lon="-118.3955608">
  <ele>-25.012</ele>
  <time>2026-09-02T22:08:45Z</time>
  <course>91.82</course>
  <speed>1.0212247548899311</speed>
  <fix>3d</fix>
</trkpt>
<trkpt lat="33.8103236" lon="-118.395561">
  <ele>-24.4</ele>
  <time>2026-09-02T22:08:45Z</time>
  <course>2.01</course>
  <speed>0.99</speed>
  <fix>3d</fix>
</trkpt>
<trkpt lat="33.8103268" lon="-118.3955608">
  <ele>-25.012</ele>
  <time>2026-09-02T22:08:45Z</time>
  <course>91.93</course>
  <speed>1.0212247548899311</speed>
  <fix>3d</fix>
</trkpt>
<trkpt lat="33.8103253" lon="-118.395561">
  <ele>-24.4</ele>
  <time>2026-09-02T22:08:45Z</time>
  <course>2.18</course>
  <speed>1.0</speed>
  <fix>3d</fix>
</trkpt>
<trkpt lat="33.8103276" lon="-118.3955607">
  <ele>-25.012</ele>
  <time>2026-09-02T22:08:45Z</time>
  <course>92.04</course>
  <speed>1.0212247548899311</speed>
  <fix>3d</fix>
</trkpt>
<trkpt lat="33.8103253" lon="-118.395561">
  <ele>-24.4</ele>
  <time>2026-09-02T22:08:45Z</time>
  <course>2.18</course>
  <speed>1.0</speed>
  <fix>3d</fix>
</trkpt>
<trkpt lat="33.8103285" lon="-118.3955607">
  <ele>-25.011</ele>
  <time>2026-09-02T22:08:45Z</time>
  <course>92.15</course>
  <speed>1.0212247548899311</speed>
  <fix>3d</fix>
</trkpt>
<trkpt lat="33.8103272" lon="-118.3955609">
  <ele>-24.4</ele>
  <time>2026-09-02T22:08:45Z</time>
  <course>2.39</course>
  <speed>1.0</speed>
  <fix>3d</fix>
</trkpt>
<trkpt lat="33.8103294" lon="-118.3955607">
  <ele>-25.01</ele>
  <time>2026-09-02T22:08:45Z</time>
  <course>92.27</course>
  <speed>1.0217631819555841</speed>
  <fix>3d</fix>
</trkpt>
<trkpt lat="33.8103272" lon="-118.3955609">
  <ele>-24.4</ele>
  <time>2026-09-02T22:08:45Z</time>
  <course>2.39</course>
  <speed>1.0</speed>
  <fix>3d</fix>
</trkpt>
<trkpt lat="33.8103303" lon="-118.3955606">
  <ele>-25.009</ele>
  <time>2026-09-02T22:08:45Z</time>
  <course>92.39</course>
  <speed>1.0217631819555841</speed>
  <fix>3d</fix>
</trkpt>
<trkpt lat="33.8103289" lon="-118.3955608">
  <ele>-24.4</ele>
  <time>2026-09-02T22:08:45Z</time>
  <course>2.62</course>
  <speed>1.0</speed>
  <fix>3d</fix>
</trkpt>
<trkpt lat="33.8103312" lon="-118.3955606">
  <ele>-25.008</ele>
  <time>2026-09-02T22:08:45Z</time>
  <course>92.51</course>
  <speed>1.0217631819555841</speed>
  <fix>3d</fix>
</trkpt>
<trkpt lat="33.8103289" lon="-118.3955608">
  <ele>-24.4</ele>
  <time>2026-09-02T22:08:45Z</time>
  <course>2.62</course>
  <speed>1.0</speed>
  <fix>3d</fix>
</trkpt>
<trkpt lat="33.8103321" lon="-118.3955605">
  <ele>-25.008</ele>
  <time>2026-09-02T22:08:45Z</time>
  <course>92.62</course>
  <speed>1.0217631819555841</speed>
  <fix>3d</fix>
</trkpt>
<trkpt lat="33.8103308" lon="-118.3955607">
  <ele>-24.4</ele>
  <time>2026-09-02T22:08:45Z</time>
  <course>2.86</course>
  <speed>1.0</speed>
  <fix>3d</fix>
</trkpt>
<trkpt lat="33.810333" lon="-118.3955604">
  <ele>-25.008</ele>
  <time>2026-09-02T22:08:45Z</time>
  <course>92.73</course>
  <speed>1.0217631819555841</speed>
  <fix>3d</fix>
</trkpt>
<trkpt lat="33.8103308" lon="-118.3955607">
  <ele>-24.4</ele>
  <time>2026-09-02T22:08:45Z</time>
  <course>2.86</course>
  <speed>1.0</speed>
  <fix>3d</fix>
</trkpt>
<trkpt lat="33.8103339" lon="-118.3955604">
  <ele>-25.009</ele>
  <time>2026-09-02T22:08:45Z</time>
  <course>92.85</course>
  <speed>1.022399139279763</speed>
  <fix>3d</fix>
</trkpt>
<trkpt lat="33.8103325" lon="-118.3955605">
  <ele>-24.41</ele>
  <time>2026-09-02T22:08:45Z</time>
  <course>3.1</course>
  <speed>1.0</speed>
  <fix>3d</fix>
</trkpt>
<trkpt lat="33.8103348" lon="-118.3955603">
  <ele>-25.011</ele>
  <time>2026-09-02T22:08:45Z</time>
  <course>92.96</course>
  <speed>1.022399139279763</speed>
  <fix>3d</fix>
</trkpt>
<trkpt lat="33.8103325" lon="-118.3955605">
  <ele>-24.41</ele>
  <time>2026-09-02T22:08:45Z</time>
  <course>3.1</course>
  <speed>1.0</speed>
  <fix>3d</fix>
</trkpt>
<trkpt lat="33.8103357" lon="-118.3955603">
  <ele>-25.012</ele>
  <time>2026-09-02T22:08:45Z</time>
  <course>93.08</course>
  <speed>1.022399139279763</speed>
  <fix>3d</fix>
</trkpt>
<trkpt lat="33.8103344" lon="-118.3955604">
  <ele>-24.41</ele>
  <time>2026-09-02T22:08:45Z</time>
  <course>3.29</course>
  <speed>1.0</speed>
  <fix>3d</fix>
</trkpt>
<trkpt lat="33.8103366" lon="-118.3955602">
  <ele>-25.012</ele>
  <time>2026-09-02T22:08:45Z</time>
  <course>93.19</course>
  <speed>1.022399139279763</speed>
  <fix>3d</fix>
</trkpt>
<trkpt lat="33.8103344" lon="-118.3955604">
  <ele>-24.41</ele>
  <time>2026-09-02T22:08:45Z</time>
  <course>3.29</course>
  <speed>1.0</speed>
  <fix>3d</fix>
</trkpt>
<trkpt lat="33.8103375" lon="-118.3955601">
  <ele>-25.013</ele>
  <time>2026-09-02T22:08:45Z</time>
  <course>93.3</course>
  <speed>1.0124228365658294</speed>
  <fix>3d</fix>
</trkpt>
<trkpt lat="33.8103361" lon="-118.3955603">
  <ele>-24.41</ele>
  <time>2026-09-02T22:08:45Z</time>
  <course>3.42</course>
  <speed>1.0</speed>
  <fix>3d</fix>
</trkpt>
<trkpt lat="33.8103384" lon="-118.3955601">
  <ele>-25.013</ele>
  <time>2026-09-02T22:08:45Z</time>
  <course>93.42</course>
  <speed>1.022399139279763</speed>
  <fix>3d</fix>
</trkpt>
<trkpt lat="33.8103361" lon="-118.3955603">
  <ele>-24.41</ele>
  <time>2026-09-02T22:08:45Z</time>
  <course>3.42</course>
  <speed>1.0</speed>
  <fix>3d</fix>
</trkpt>
<trkpt lat="33.8103393" lon="-118.39556">
  <ele>-25.014</ele>
  <time>2026-09-02T22:08:45Z</time>
  <course>93.54</course>
  <speed>1.0124228365658294</speed>
  <fix>3d</fix>
</trkpt>
<trkpt lat="33.810338" lon="-118.3955602">
  <ele>-24.42</ele>
  <time>2026-09-02T22:08:45Z</time>
  <course>3.56</course>
  <speed>1.0</speed>
  <fix>3d</fix>
</trkpt>
<trkpt lat="33.8103402" lon="-118.3955599">
  <ele>-25.015</ele>
  <time>2026-09-02T22:08:45Z</time>
  <course>93.65</course>
  <speed>1.0131633629380803</speed>
  <fix>3d</fix>
</trkpt>
<trkpt lat="33.810338" lon="-118.3955602">
  <ele>-24.42</ele>
  <time>2026-09-02T22:08:45Z</time>
  <course>3.56</course>
  <speed>1.0</speed>
  <fix>3d</fix>
</trkpt>
<trkpt lat="33.8103411" lon="-118.3955598">
  <ele>-25.016</ele>
  <time>2026-09-02T22:08:45Z</time>
  <course>93.76</course>
  <speed>1.0131633629380803</speed>
  <fix>3d</fix>
</trkpt>
<trkpt lat="33.8103397" lon="-118.39556">
  <ele>-24.42</ele>
  <time>2026-09-02T22:08:45Z</time>
  <course>3.76</course>
  <speed>0.99</speed>
  <fix>3d</fix>
</trkpt>
<trkpt lat="33.810342" lon="-118.3955598">
  <ele>-25.017</ele>
  <time>2026-09-02T22:08:45Z</time>
  <course>93.88</course>
  <speed>1.0131633629380803</speed>
  <fix>3d</fix>
</trkpt>
<trkpt lat="33.8103397" lon="-118.39556">
  <ele>-24.42</ele>
  <time>2026-09-02T22:08:45Z</time>
  <course>3.76</course>
  <speed>0.99</speed>
  <fix>3d</fix>
</trkpt>
<trkpt lat="33.8103429" lon="-118.3955597">
  <ele>-25.017</ele>
  <time>2026-09-02T22:08:45Z</time>
  <course>93.99</course>
  <speed>1.0131633629380803</speed>
  <fix>3d</fix>
</trkpt>
<trkpt lat="33.8103416" lon="-118.3955599">
  <ele>-24.42</ele>
  <time>2026-09-02T22:08:45Z</time>
  <course>3.98</course>
  <speed>0.99</speed>
  <fix>3d</fix>
</trkpt>
<trkpt lat="33.8103438" lon="-118.3955596">
  <ele>-25.018</ele>
  <time>2026-09-02T22:08:45Z</time>
  <course>94.11</course>
  <speed>1.0140019723846694</speed>
  <fix>3d</fix>
</trkpt>
<trkpt lat="33.8103416" lon="-118.3955599">
  <ele>-24.42</ele>
  <time>2026-09-02T22:08:45Z</time>
  <course>3.98</course>
  <speed>0.99</speed>
  <fix>3d</fix>
</trkpt>
<trkpt lat="33.8103447" lon="-118.3955595">
  <ele>-25.017</ele>
  <time>2026-09-02T22:08:45Z</time>
  <course>94.22</course>
  <speed>1.0140019723846694</speed>
  <fix>3d</fix>
</trkpt>
<trkpt lat="33.8103433" lon="-118.3955598">
  <ele>-24.42</ele>
  <time>2026-09-02T22:08:45Z</time>
  <course>4.19</course>
  <speed>0.99</speed>
  <fix>3d</fix>
</trkpt>
<trkpt lat="33.8103456" lon="-118.3955594">
  <ele>-25.017</ele>
  <time>2026-09-02T22:08:45Z</time>
  <course>94.34</course>
  <speed>1.0140019723846694</speed>
  <fix>3d</fix>
</trkpt>
<trkpt lat="33.8103433" lon="-118.3955598">
  <ele>-24.42</ele>
  <time>2026-09-02T22:08:45Z</time>
  <course>4.19</course>
  <speed>0.99</speed>
  <fix>3d</fix>
</trkpt>
<trkpt lat="33.8103465" lon="-118.3955594">
  <ele>-25.015</ele>
  <time>2026-09-02T22:08:45Z</time>
  <course>94.45</course>
  <speed>1.0140019723846694</speed>
  <fix>3d</fix>
</trkpt>
<trkpt lat="33.8103452" lon="-118.3955595">
  <ele>-24.42</ele>
  <time>2026-09-02T22:08:45Z</time>
  <course>4.45</course>
  <speed>0.99</speed>
  <fix>3d</fix>
</trkpt>
<trkpt lat="33.8103474" lon="-118.3955593">
  <ele>-25.014</ele>
  <time>2026-09-02T22:08:45Z</time>
  <course>94.57</course>
  <speed>1.0140019723846694</speed>
  <fix>3d</fix>
</trkpt>
<trkpt lat="33.8103452" lon="-118.3955595">
  <ele>-24.42</ele>
  <time>2026-09-02T22:08:45Z</time>
  <course>4.45</course>
  <speed>0.99</speed>
  <fix>3d</fix>
</trkpt>
<trkpt lat="33.8103483" lon="-118.3955592">
  <ele>-25.013</ele>
  <time>2026-09-02T22:08:45Z</time>
  <course>94.68</course>
  <speed>1.0149384217774002</speed>
  <fix>3d</fix>
</trkpt>
<trkpt lat="33.8103469" lon="-118.3955594">
  <ele>-24.41</ele>
  <time>2026-09-02T22:08:45Z</time>
  <course>4.69</course>
  <speed>0.99</speed>
  <fix>3d</fix>
</trkpt>
<trkpt lat="33.8103492" lon="-118.3955591">
  <ele>-25.013</ele>
  <time>2026-09-02T22:08:45Z</time>
  <course>94.79</course>
  <speed>1.0149384217774002</speed>
  <fix>3d</fix>
</trkpt>
<trkpt lat="33.8103469" lon="-118.3955594">
  <ele>-24.41</ele>
  <time>2026-09-02T22:08:45Z</time>
  <course>4.69</course>
  <speed>0.99</speed>
  <fix>3d</fix>
</trkpt>
<trkpt lat="33.8103501" lon="-118.395559">
  <ele>-25.013</ele>
  <time>2026-09-02T22:08:45Z</time>
  <course>94.91</course>
  <speed>1.0149384217774002</speed>
  <fix>3d</fix>
</trkpt>
<trkpt lat="33.8103486" lon="-118.3955593">
  <ele>-24.41</ele>
  <time>2026-09-02T22:08:45Z</time>
  <course>4.88</course>
  <speed>0.99</speed>
  <fix>3d</fix>
</trkpt>
<trkpt lat="33.810351" lon="-118.3955589">
  <ele>-25.013</ele>
  <time>2026-09-02T22:08:45Z</time>
  <course>95.02</course>
  <speed>1.0149384217774002</speed>
  <fix>3d</fix>
</trkpt>
<trkpt lat="33.8103486" lon="-118.3955593">
  <ele>-24.41</ele>
  <time>2026-09-02T22:08:45Z</time>
  <course>4.88</course>
  <speed>0.99</speed>
  <fix>3d</fix>
</trkpt>
<trkpt lat="33.8103519" lon="-118.3955588">
  <ele>-25.012</ele>
  <time>2026-09-02T22:08:45Z</time>
  <course>95.14</course>
  <speed>1.0149384217774002</speed>
  <fix>3d</fix>
</trkpt>
<trkpt lat="33.8103505" lon="-118.395559">
  <ele>-24.41</ele>
  <time>2026-09-02T22:08:45Z</time>
  <course>5.12</course>
  <speed>0.99</speed>
  <fix>3d</fix>
</trkpt>
<trkpt lat="33.8103528" lon="-118.3955587">
  <ele>-25.013</ele>
  <time>2026-09-02T22:08:45Z</time>
  <course>95.26</course>
  <speed>1.0159724405711013</speed>
  <fix>3d</fix>
</trkpt>
<trkpt lat="33.8103505" lon="-118.395559">
  <ele>-24.41</ele>
  <time>2026-09-02T22:08:45Z</time>
  <course>5.12</course>
  <speed>0.99</speed>
  <fix>3d</fix>
</trkpt>
<trkpt lat="33.8103537" lon="-118.3955586">
  <ele>-25.014</ele>
  <time>2026-09-02T22:08:45Z</time>
  <course>95.37</course>
  <speed>1.0159724405711013</speed>
  <fix>3d</fix>
</trkpt>
<trkpt lat="33.8103523" lon="-118.3955589">
  <ele>-24.41</ele>
  <time>2026-09-02T22:08:45Z</time>
  <course>5.36</course>
  <speed>0.99</speed>
  <fix>3d</fix>
</trkpt>
<trkpt lat="33.8103545" lon="-118.3955585">
  <ele>-25.014</ele>
  <time>2026-09-02T22:08:45Z</time>
  <course>95.48</course>
  <speed>1.0159724405711013</speed>
  <fix>3d</fix>
</trkpt>
<trkpt lat="33.8103523" lon="-118.3955589">
  <ele>-24.41</ele>
  <time>2026-09-02T22:08:45Z</time>
  <course>5.36</course>
  <speed>0.99</speed>
  <fix>3d</fix>
</trkpt>
<trkpt lat="33.8103554" lon="-118.3955584">
  <ele>-25.014</ele>
  <time>2026-09-02T22:08:45Z</time>
  <course>95.6</course>
  <speed>1.0159724405711013</speed>
  <fix>3d</fix>
</trkpt>
<trkpt lat="33.8103541" lon="-118.3955587">
  <ele>-24.41</ele>
  <time>2026-09-02T22:08:45Z</time>
  <course>5.6</course>
  <speed>0.99</speed>
  <fix>3d</fix>
</trkpt>
<trkpt lat="33.8103563" lon="-118.3955583">
  <ele>-25.013</ele>
  <time>2026-09-02T22:08:45Z</time>
  <course>95.71</course>
  <speed>1.0171037311896953</speed>
  <fix>3d</fix>
</trkpt>
<trkpt lat="33.8103541" lon="-118.3955587">
  <ele>-24.41</ele>
  <time>2026-09-02T22:08:45Z</time>
  <course>5.6</course>
  <speed>0.99</speed>
  <fix>3d</fix>
</trkpt>
<trkpt lat="33.8103572" lon="-118.3955582">
  <ele>-25.013</ele>
  <time>2026-09-02T22:08:45Z</time>
  <course>95.83</course>
  <speed>1.0171037311896953</speed>
  <fix>3d</fix>
</trkpt>
<trkpt lat="33.8103559" lon="-118.3955585">
  <ele>-24.41</ele>
  <time>2026-09-02T22:08:45Z</time>
  <course>5.88</course>
  <speed>0.99</speed>
  <fix>3d</fix>
</trkpt>
<trkpt lat="33.8103581" lon="-118.3955581">
  <ele>-25.013</ele>
  <time>2026-09-02T22:08:45Z</time>
  <course>95.94</course>
  <speed>1.0171037311896953</speed>
  <fix>3d</fix>
</trkpt>
<trkpt lat="33.8103559" lon="-118.3955585">
  <ele>-24.41</ele>
  <time>2026-09-02T22:08:45Z</time>
  <course>5.88</course>
  <speed>0.99</speed>
  <fix>3d</fix>
</trkpt>
<trkpt lat="33.810359" lon="-118.3955579">
  <ele>-25.013</ele>
  <time>2026-09-02T22:08:45Z</time>
  <course>96.06</course>
  <speed>1.0171037311896953</speed>
  <fix>3d</fix>
</trkpt>
<trkpt lat="33.8103577" lon="-118.3955582">
  <ele>-24.41</ele>
  <time>2026-09-02T22:08:45Z</time>
  <course>6.2</course>
  <speed>0.99</speed>
  <fix>3d</fix>
</trkpt>
<trkpt lat="33.8103599" lon="-118.3955578">
  <ele>-25.013</ele>
  <time>2026-09-02T22:08:45Z</time>
  <course>96.17</course>
  <speed>1.0183319694480775</speed>
  <fix>3d</fix>
</trkpt>
<trkpt lat="33.8103577" lon="-118.3955582">
  <ele>-24.41</ele>
  <time>2026-09-02T22:08:45Z</time>
  <course>6.2</course>
  <speed>0.99</speed>
  <fix>3d</fix>
</trkpt>
<trkpt lat="33.8103608" lon="-118.3955577">
  <ele>-25.014</ele>
  <time>2026-09-02T22:08:45Z</time>
  <course>96.28</course>
  <speed>1.0183319694480775</speed>
  <fix>3d</fix>
</trkpt>
<trkpt lat="33.8103594" lon="-118.395558">
  <ele>-24.41</ele>
  <time>2026-09-02T22:08:45Z</time>
  <course>6.47</course>
  <speed>0.99</speed>
  <fix>3d</fix>
</trkpt>
<trkpt lat="33.8103617" lon="-118.3955576">
  <ele>-25.014</ele>
  <time>2026-09-02T22:08:45Z</time>
  <course>96.4</course>
  <speed>1.0183319694480775</speed>
  <fix>3d</fix>
</trkpt>
<trkpt lat="33.8103594" lon="-118.395558">
  <ele>-24.41</ele>
  <time>2026-09-02T22:08:45Z</time>
  <course>6.47</course>
  <speed>0.99</speed>
  <fix>3d</fix>
</trkpt>
<trkpt lat="33.8103626" lon="-118.3955574">
  <ele>-25.014</ele>
  <time>2026-09-02T22:08:45Z</time>
  <course>96.51</course>
  <speed>1.0183319694480775</speed>
  <fix>3d</fix>
</trkpt>
<trkpt lat="33.8103612" lon="-118.3955577">
  <ele>-24.41</ele>
  <time>2026-09-02T22:08:45Z</time>
  <course>6.7</course>
  <speed>0.99</speed>
  <fix>3d</fix>
</trkpt>
<trkpt lat="33.8103635" lon="-118.3955573">
  <ele>-25.014</ele>
  <time>2026-09-02T22:08:45Z</time>
  <course>96.63</course>
  <speed>1.0183319694480775</speed>
  <fix>3d</fix>
</trkpt>
<trkpt lat="33.8103612" lon="-118.3955577">
  <ele>-24.41</ele>
  <time>2026-09-02T22:08:45Z</time>
  <course>6.7</course>
  <speed>0.99</speed>
  <fix>3d</fix>
</trkpt>
<trkpt lat="33.8103644" lon="-118.3955572">
  <ele>-25.015</ele>
  <time>2026-09-02T22:08:45Z</time>
  <course>96.74</course>
  <speed>1.0183319694480775</speed>
  <fix>3d</fix>
</trkpt>
<trkpt lat="33.8103629" lon="-118.3955575">
  <ele>-24.41</ele>
  <time>2026-09-02T22:08:45Z</time>
  <course>6.89</course>
  <speed>0.99</speed>
  <fix>3d</fix>
</trkpt>
<trkpt lat="33.8103653" lon="-118.395557">
  <ele>-25.016</ele>
  <time>2026-09-02T22:08:45Z</time>
  <course>96.86</course>
  <speed>1.0196568050084303</speed>
  <fix>3d</fix>
</trkpt>
<trkpt lat="33.8103629" lon="-118.3955575">
  <ele>-24.41</ele>
  <time>2026-09-02T22:08:45Z</time>
  <course>6.89</course>
  <speed>0.99</speed>
  <fix>3d</fix>
</trkpt>
<trkpt lat="33.8103662" lon="-118.3955569">
  <ele>-25.015</ele>
  <time>2026-09-02T22:08:45Z</time>
  <course>96.97</course>
  <speed>1.0196568050084303</speed>
  <fix>3d</fix>
</trkpt>
<trkpt lat="33.8103648" lon="-118.3955572">
  <ele>-24.41</ele>
  <time>2026-09-02T22:08:45Z</time>
  <course>7.05</course>
  <speed>0.99</speed>
  <fix>3d</fix>
</trkpt>
<trkpt lat="33.8103671" lon="-118.3955568">
  <ele>-25.014</ele>
  <time>2026-09-02T22:08:45Z</time>
  <course>97.09</course>
  <speed>1.0196568050084303</speed>
  <fix>3d</fix>
</trkpt>
<trkpt lat="33.8103648" lon="-118.3955572">
  <ele>-24.41</ele>
  <time>2026-09-02T22:08:45Z</time>
  <course>7.05</course>
  <speed>0.99</speed>
  <fix>3d</fix>
</trkpt>
<trkpt lat="33.8103679" lon="-118.3955566">
  <ele>-25.013</ele>
  <time>2026-09-02T22:08:45Z</time>
  <course>97.2</course>
  <speed>1.0196568050084303</speed>
  <fix>3d</fix>
</trkpt>
<trkpt lat="33.8103665" lon="-118.3955569">
  <ele>-24.41</ele>
  <time>2026-09-02T22:08:45Z</time>
  <course>7.24</course>
  <speed>0.99</speed>
  <fix>3d</fix>
</trkpt>
<trkpt lat="33.8103688" lon="-118.3955565">
  <ele>-25.012</ele>
  <time>2026-09-02T22:08:45Z</time>
  <course>97.32</course>
  <speed>1.0196568050084303</speed>
  <fix>3d</fix>
</trkpt>
<trkpt lat="33.8103665" lon="-118.3955569">
  <ele>-24.41</ele>
  <time>2026-09-02T22:08:45Z</time>
  <course>7.24</course>
  <speed>0.99</speed>
  <fix>3d</fix>
</trkpt>
<trkpt lat="33.8103697" lon="-118.3955563">
  <ele>-25.012</ele>
  <time>2026-09-02T22:08:45Z</time>
  <course>97.43</course>
  <speed>1.021077861869505</speed>
  <fix>3d</fix>
</trkpt>
<trkpt lat="33.8103683" lon="-118.3955566">
  <ele>-24.41</ele>
  <time>2026-09-02T22:08:45Z</time>
  <course>7.44</course>
  <speed>1.0</speed>
  <fix>3d</fix>
</trkpt>
<trkpt lat="33.8103706" lon="-118.3955562">
  <ele>-25.012</ele>
  <time>2026-09-02T22:08:45Z</time>
  <course>97.55</course>
  <speed>1.021077861869505</speed>
  <fix>3d</fix>
</trkpt>
<trkpt lat="33.8103683" lon="-118.3955566">
  <ele>-24.41</ele>
  <time>2026-09-02T22:08:45Z</time>
  <course>7.44</course>
  <speed>1.0</speed>
  <fix>3d</fix>
</trkpt>
<trkpt lat="33.8103715" lon="-118.395556">
  <ele>-25.013</ele>
  <time>2026-09-02T22:08:45Z</time>
  <course>97.66</course>
  <speed>1.021077861869505</speed>
  <fix>3d</fix>
</trkpt>
<trkpt lat="33.8103701" lon="-118.3955564">
  <ele>-24.41</ele>
  <time>2026-09-02T22:08:45Z</time>
  <course>7.6</course>
  <speed>1.0</speed>
  <fix>3d</fix>
</trkpt>
<trkpt lat="33.8103724" lon="-118.3955559">
  <ele>-25.015</ele>
  <time>2026-09-02T22:08:45Z</time>
  <course>97.77</course>
  <speed>1.021077861869505</speed>
  <fix>3d</fix>
</trkpt>
<trkpt lat="33.8103701" lon="-118.3955564">
  <ele>-24.41</ele>
  <time>2026-09-02T22:08:45Z</time>
  <course>7.6</course>
  <speed>1.0</speed>
  <fix>3d</fix>
</trkpt>
<trkpt lat="33.8103733" lon="-118.3955558">
  <ele>-25.017</ele>
  <time>2026-09-02T22:08:45Z</time>
  <course>97.89</course>
  <speed>1.021077861869505</speed>
  <fix>3d</fix>
</trkpt>
<trkpt lat="33.8103718" lon="-118.3955561">
  <ele>-24.41</ele>
  <time>2026-09-02T22:08:45Z</time>
  <course>7.78</course>
  <speed>1.0</speed>
  <fix>3d</fix>
</trkpt>
<trkpt lat="33.8103742" lon="-118.3955556">
  <ele>-25.018</ele>
  <time>2026-09-02T22:08:45Z</time>
  <course>98.0</course>
  <speed>1.0225947388873073</speed>
  <fix>3d</fix>
</trkpt>
<trkpt lat="33.8103718" lon="-118.3955561">
  <ele>-24.41</ele>
  <time>2026-09-02T22:08:45Z</time>
  <course>7.78</course>
  <speed>1.0</speed>
  <fix>3d</fix>
</trkpt>
<trkpt lat="33.8103751" lon="-118.3955554">
  <ele>-25.019</ele>
  <time>2026-09-02T22:08:45Z</time>
  <course>98.12</course>
  <speed>1.0225947388873073</speed>
  <fix>3d</fix>
</trkpt>
<trkpt lat="33.8103737" lon="-118.3955558">
  <ele>-24.41</ele>
  <time>2026-09-02T22:08:45Z</time>
  <course>8.02</course>
  <speed>1.0</speed>
  <fix>3d</fix>
</trkpt>
<trkpt lat="33.8103759" lon="-118.3955553">
  <ele>-25.018</ele>
  <time>2026-09-02T22:08:45Z</time>
  <course>98.23</course>
  <speed>1.0225947388873073</speed>
  <fix>3d</fix>
</trkpt>
<trkpt lat="33.8103737" lon="-118.3955558">
  <ele>-24.41</ele>
  <time>2026-09-02T22:08:45Z</time>
  <course>8.02</course>
  <speed>1.0</speed>
  <fix>3d</fix>
</trkpt>
<trkpt lat="33.8103768" lon="-118.3955551">
  <ele>-25.016</ele>
  <time>2026-09-02T22:08:45Z</time>
  <course>98.35</course>
  <speed>1.0225947388873073</speed>
  <fix>3d</fix>
</trkpt>
<trkpt lat="33.8103754" lon="-118.3955555">
  <ele>-24.4</ele>
  <time>2026-09-02T22:08:45Z</time>
  <course>8.29</course>
  <speed>1.0</speed>
  <fix>3d</fix>
</trkpt>
<trkpt lat="33.8103777" lon="-118.395555">
  <ele>-25.015</ele>
  <time>2026-09-02T22:08:45Z</time>
  <course>98.46</course>
  <speed>1.0225947388873073</speed>
  <fix>3d</fix>
</trkpt>
<trkpt lat="33.8103754" lon="-118.3955555">
  <ele>-24.4</ele>
  <time>2026-09-02T22:08:45Z</time>
  <course>8.29</course>
  <speed>1.0</speed>
  <fix>3d</fix>
</trkpt>
<trkpt lat="33.8103786" lon="-118.3955548">
  <ele>-25.014</ele>
  <time>2026-09-02T22:08:45Z</time>
  <course>98.58</course>
  <speed>1.0242070103255494</speed>
  <fix>3d</fix>
</trkpt>
<trkpt lat="33.8103773" lon="-118.3955551">
  <ele>-24.4</ele>
  <time>2026-09-02T22:08:45Z</time>
  <course>8.55</course>
  <speed>1.0</speed>
  <fix>3d</fix>
</trkpt>
<trkpt lat="33.8103795" lon="-118.3955546">
  <ele>-25.013</ele>
  <time>2026-09-02T22:08:45Z</time>
  <course>98.69</course>
  <speed>1.0242070103255494</speed>
  <fix>3d</fix>
</trkpt>
<trkpt lat="33.8103773" lon="-118.3955551">
  <ele>-24.4</ele>
  <time>2026-09-02T22:08:45Z</time>
  <course>8.55</course>
  <speed>1.0</speed>
  <fix>3d</fix>
</trkpt>
<trkpt lat="33.8103804" lon="-118.3955545">
  <ele>-25.012</ele>
  <time>2026-09-02T22:08:45Z</time>
  <course>98.81</course>
  <speed>1.014347080638575</speed>
  <fix>3d</fix>
</trkpt>
<trkpt lat="33.810379" lon="-118.3955548">
  <ele>-24.4</ele>
  <time>2026-09-02T22:08:45Z</time>
  <course>8.77</course>
  <speed>1.0</speed>
  <fix>3d</fix>
</trkpt>
<trkpt lat="33.8103813" lon="-118.3955543">
  <ele>-25.012</ele>
  <time>2026-09-02T22:08:45Z</time>
  <course>98.92</course>
  <speed>1.014347080638575</speed>
  <fix>3d</fix>
</trkpt>
<trkpt lat="33.810379" lon="-118.3955548">
  <ele>-24.4</ele>
  <time>2026-09-02T22:08:45Z</time>
  <course>8.77</course>
  <speed>1.0</speed>
  <fix>3d</fix>
</trkpt>
<trkpt lat="33.8103822" lon="-118.3955541">
  <ele>-25.011</ele>
  <time>2026-09-02T22:08:45Z</time>
  <course>99.04</course>
  <speed>1.014347080638575</speed>
  <fix>3d</fix>
</trkpt>
<trkpt lat="33.8103808" lon="-118.3955545">
  <ele>-24.39</ele>
  <time>2026-09-02T22:08:45Z</time>
  <course>8.95</course>
  <speed>1.0</speed>
  <fix>3d</fix>
</trkpt>
<trkpt lat="33.8103831" lon="-118.3955539">
  <ele>-25.01</ele>
  <time>2026-09-02T22:08:45Z</time>
  <course>99.15</course>
  <speed>1.016070863670443</speed>
  <fix>3d</fix>
</trkpt>
<trkpt lat="33.8103808" lon="-118.3955545">
  <ele>-24.39</ele>
  <time>2026-09-02T22:08:45Z</time>
  <course>8.95</course>
  <speed>1.0</speed>
  <fix>3d</fix>
</trkpt>
<trkpt lat="33.810384" lon="-118.3955538">
  <ele>-25.008</ele>
  <time>2026-09-02T22:08:45Z</time>
  <course>99.27</course>
  <speed>1.016070863670443</speed>
  <fix>3d</fix>
</trkpt>
<trkpt lat="33.8103825" lon="-118.3955542">
  <ele>-24.39</ele>
  <time>2026-09-02T22:08:45Z</time>
  <course>9.16</course>
  <speed>1.0</speed>
  <fix>3d</fix>
</trkpt>
<trkpt lat="33.8103848" lon="-118.3955536">
  <ele>-25.008</ele>
  <time>2026-09-02T22:08:45Z</time>
  <course>99.38</course>
  <speed>1.016070863670443</speed>
  <fix>3d</fix>
</trkpt>
<trkpt lat="33.8103825" lon="-118.3955542">
  <ele>-24.39</ele>
  <time>2026-09-02T22:08:45Z</time>
  <course>9.16</course>
  <speed>1.0</speed>
  <fix>3d</fix>
</trkpt>
<trkpt lat="33.8103857" lon="-118.3955534">
  <ele>-25.007</ele>
  <time>2026-09-02T22:08:45Z</time>
  <course>99.5</course>
  <speed>1.016070863670443</speed>
  <fix>3d</fix>
</trkpt>
<trkpt lat="33.8103844" lon="-118.3955538">
  <ele>-24.39</ele>
  <time>2026-09-02T22:08:45Z</time>
  <course>9.41</course>
  <speed>1.0</speed>
  <fix>3d</fix>
</trkpt>
<trkpt lat="33.8103866" lon="-118.3955532">
  <ele>-25.007</ele>
  <time>2026-09-02T22:08:45Z</time>
  <course>99.61</course>
  <speed>1.0178899744078433</speed>
  <fix>3d</fix>
</trkpt>
<trkpt lat="33.8103844" lon="-118.3955538">
  <ele>-24.39</ele>
  <time>2026-09-02T22:08:45Z</time>
  <course>9.41</course>
  <speed>1.0</speed>
  <fix>3d</fix>
</trkpt>
<trkpt lat="33.8103875" lon="-118.395553">
  <ele>-25.007</ele>
  <time>2026-09-02T22:08:45Z</time>
  <course>99.72</course>
  <speed>1.0178899744078433</speed>
  <fix>3d</fix>
</trkpt>
<trkpt lat="33.8103861" lon="-118.3955535">
  <ele>-24.39</ele>
  <time>2026-09-02T22:08:45Z</time>
  <course>9.68</course>
  <speed>1.0</speed>
  <fix>3d</fix>
</trkpt>
<trkpt lat="33.8103884" lon="-118.3955529">
  <ele>-25.008</ele>
  <time>2026-09-02T22:08:45Z</time>
  <course>99.84</course>
  <speed>1.0178899744078433</speed>
  <fix>3d</fix>
</trkpt>
<trkpt lat="33.8103861" lon="-118.3955535">
  <ele>-24.39</ele>
  <time>2026-09-02T22:08:45Z</time>
  <course>9.68</course>
  <speed>1.0</speed>
  <fix>3d</fix>
</trkpt>
<trkpt lat="33.8103893" lon="-118.3955527">
  <ele>-25.01</ele>
  <time>2026-09-02T22:08:45Z</time>
  <course>99.95</course>
  <speed>1.0178899744078433</speed>
  <fix>3d</fix>
</trkpt>
<trkpt lat="33.8103878" lon="-118.3955531">
  <ele>-24.4</ele>
  <time>2026-09-02T22:08:45Z</time>
  <course>9.96</course>
  <speed>1.0</speed>
  <fix>3d</fix>
</trkpt>
<trkpt lat="33.8103902" lon="-118.3955525">
  <ele>-25.012</ele>
  <time>2026-09-02T22:08:45Z</time>
  <course>100.07</course>
  <speed>1.0178899744078433</speed>
  <fix>3d</fix>
</trkpt>
<trkpt lat="33.8103878" lon="-118.3955531">
  <ele>-24.4</ele>
  <time>2026-09-02T22:08:45Z</time>
  <course>9.96</course>
  <speed>1.0</speed>
  <fix>3d</fix>
</trkpt>
<trkpt lat="33.810391" lon="-118.3955523">
  <ele>-25.013</ele>
  <time>2026-09-02T22:08:45Z</time>
  <course>100.18</course>
  <speed>1.019803902718557</speed>
  <fix>3d</fix>
</trkpt>
<trkpt lat="33.8103897" lon="-118.3955527">
  <ele>-24.4</ele>
  <time>2026-09-02T22:08:45Z</time>
  <course>10.22</course>
  <speed>1.0</speed>
  <fix>3d</fix>
</trkpt>
<trkpt lat="33.8103919" lon="-118.3955521">
  <ele>-25.014</ele>
  <time>2026-09-02T22:08:45Z</time>
  <course>100.29</course>
  <speed>1.019803902718557</speed>
  <fix>3d</fix>
</trkpt>
<trkpt lat="33.8103897" lon="-118.3955527">
  <ele>-24.4</ele>
  <time>2026-09-02T22:08:45Z</time>
  <course>10.22</course>
  <speed>1.0</speed>
  <fix>3d</fix>
</trkpt>
<trkpt lat="33.8103928" lon="-118.3955519">
  <ele>-25.015</ele>
  <time>2026-09-02T22:08:45Z</time>
  <course>100.41</course>
  <speed>1.019803902718557</speed>
  <fix>3d</fix>
</trkpt>
<trkpt lat="33.8103914" lon="-118.3955523">
  <ele>-24.4</ele>
  <time>2026-09-02T22:08:45Z</time>
  <course>10.46</course>
  <speed>1.0</speed>
  <fix>3d</fix>
</trkpt>
<trkpt lat="33.8103937" lon="-118.3955517">
  <ele>-25.015</ele>
  <time>2026-09-02T22:08:45Z</time>
  <course>100.52</course>
  <speed>1.019803902718557</speed>
  <fix>3d</fix>
</trkpt>
<trkpt lat="33.8103914" lon="-118.3955523">
  <ele>-24.4</ele>
  <time>2026-09-02T22:08:45Z</time>
  <course>10.46</course>
  <speed>1.0</speed>
  <fix>3d</fix>
</trkpt>
<trkpt lat="33.8103946" lon="-118.3955515">
  <ele>-25.015</ele>
  <time>2026-09-02T22:08:45Z</time>
  <course>100.64</course>
  <speed>1.019803902718557</speed>
  <fix>3d</fix>
</trkpt>
<trkpt lat="33.8103931" lon="-118.3955518">
  <ele>-24.41</ele>
  <time>2026-09-02T22:08:45Z</time>
  <course>10.67</course>
  <speed>1.0</speed>
  <fix>3d</fix>
</trkpt>
<trkpt lat="33.8103955" lon="-118.3955513">
  <ele>-25.014</ele>
  <time>2026-09-02T22:08:45Z</time>
  <course>100.75</course>
  <speed>1.019803902718557</speed>
  <fix>3d</fix>
</trkpt>
<trkpt lat="33.8103931" lon="-118.3955518">
  <ele>-24.41</ele>
  <time>2026-09-02T22:08:45Z</time>
  <course>10.67</course>
  <speed>1.0</speed>
  <fix>3d</fix>
</trkpt>
<trkpt lat="33.8103963" lon="-118.3955511">
  <ele>-25.013</ele>
  <time>2026-09-02T22:08:45Z</time>
  <course>100.87</course>
  <speed>1.0218121158021176</speed>
  <fix>3d</fix>
</trkpt>
<trkpt lat="33.810395" lon="-118.3955515">
  <ele>-24.41</ele>
  <time>2026-09-02T22:08:45Z</time>
  <course>10.82</course>
  <speed>1.0</speed>
  <fix>3d</fix>
</trkpt>
<trkpt lat="33.8103972" lon="-118.3955509">
  <ele>-25.013</ele>
  <time>2026-09-02T22:08:45Z</time>
  <course>100.99</course>
  <speed>1.0218121158021176</speed>
  <fix>3d</fix>
</trkpt>
<trkpt lat="33.810395" lon="-118.3955515">
  <ele>-24.41</ele>
  <time>2026-09-02T22:08:45Z</time>
  <course>10.82</course>
  <speed>1.0</speed>
  <fix>3d</fix>
</trkpt>
<trkpt lat="33.8103981" lon="-118.3955506">
  <ele>-25.012</ele>
  <time>2026-09-02T22:08:45Z</time>
  <course>101.1</course>
  <speed>1.0218121158021176</speed>
  <fix>3d</fix>
</trkpt>
<trkpt lat="33.8103967" lon="-118.3955511">
  <ele>-24.4</ele>
  <time>2026-09-02T22:08:45Z</time>
  <course>10.97</course>
  <speed>1.0</speed>
  <fix>3d</fix>
</trkpt>
<trkpt lat="33.810399" lon="-118.3955504">
  <ele>-25.012</ele>
  <time>2026-09-02T22:08:45Z</time>
  <course>101.22</course>
  <speed>1.0218121158021176</speed>
  <fix>3d</fix>
</trkpt>
<trkpt lat="33.8103967" lon="-118.3955511">
  <ele>-24.4</ele>
  <time>2026-09-02T22:08:45Z</time>
  <course>10.97</course>
  <speed>1.0</speed>
  <fix>3d</fix>
</trkpt>
<trkpt lat="33.8103999" lon="-118.3955502">
  <ele>-25.012</ele>
  <time>2026-09-02T22:08:45Z</time>
  <course>101.33</course>
  <speed>1.0218121158021176</speed>
  <fix>3d</fix>
</trkpt>
<trkpt lat="33.8103985" lon="-118.3955507">
  <ele>-24.4</ele>
  <time>2026-09-02T22:08:45Z</time>
  <course>11.18</course>
  <speed>1.0</speed>
  <fix>3d</fix>
</trkpt>
<trkpt lat="33.8104007" lon="-118.39555">
  <ele>-25.013</ele>
  <time>2026-09-02T22:08:45Z</time>
  <course>101.44</course>
  <speed>1.0239140588936164</speed>
  <fix>3d</fix>
</trkpt>
<trkpt lat="33.8103985" lon="-118.3955507">
  <ele>-24.4</ele>
  <time>2026-09-02T22:08:45Z</time>
  <course>11.18</course>
  <speed>1.0</speed>
  <fix>3d</fix>
</trkpt>
<trkpt lat="33.8104016" lon="-118.3955498">
  <ele>-25.014</ele>
  <time>2026-09-02T22:08:45Z</time>
  <course>101.56</course>
  <speed>1.0239140588936164</speed>
  <fix>3d</fix>
</trkpt>
<trkpt lat="33.8104003" lon="-118.3955503">
  <ele>-24.4</ele>
  <time>2026-09-02T22:08:45Z</time>
  <course>11.44</course>
  <speed>1.0</speed>
  <fix>3d</fix>
</trkpt>
<trkpt lat="33.8104025" lon="-118.3955496">
  <ele>-25.016</ele>
  <time>2026-09-02T22:08:45Z</time>
  <course>101.67</course>
  <speed>1.0239140588936164</speed>
  <fix>3d</fix>
</trkpt>
<trkpt lat="33.8104003" lon="-118.3955503">
  <ele>-24.4</ele>
  <time>2026-09-02T22:08:45Z</time>
  <course>11.44</course>
  <speed>1.0</speed>
  <fix>3d</fix>
</trkpt>
<trkpt lat="33.8104034" lon="-118.3955494">
  <ele>-25.017</ele>
  <time>2026-09-02T22:08:45Z</time>
  <course>101.79</course>
  <speed>1.0239140588936164</speed>
  <fix>3d</fix>
</trkpt>
<trkpt lat="33.810402" lon="-118.3955498">
  <ele>-24.41</ele>
  <time>2026-09-02T22:08:45Z</time>
  <course>11.75</course>
  <speed>1.0</speed>
  <fix>3d</fix>
</trkpt>
<trkpt lat="33.8104043" lon="-118.3955491">
  <ele>-25.018</ele>
  <time>2026-09-02T22:08:45Z</time>
  <course>101.9</course>
  <speed>1.0261091559868278</speed>
  <fix>3d</fix>
</trkpt>
<trkpt lat="33.810402" lon="-118.3955498">
  <ele>-24.41</ele>
  <time>2026-09-02T22:08:45Z</time>
  <course>11.75</course>
  <speed>1.0</speed>
  <fix>3d</fix>
</trkpt>
<trkpt lat="33.8104051" lon="-118.3955489">
  <ele>-25.018</ele>
  <time>2026-09-02T22:08:45Z</time>
  <course>102.02</course>
  <speed>1.0261091559868278</speed>
  <fix>3d</fix>
</trkpt>
<trkpt lat="33.8104038" lon="-118.3955494">
  <ele>-24.4</ele>
  <time>2026-09-02T22:08:45Z</time>
  <course>12.04</course>
  <speed>1.0</speed>
  <fix>3d</fix>
</trkpt>
<trkpt lat="33.810406" lon="-118.3955487">
  <ele>-25.017</ele>
  <time>2026-09-02T22:08:45Z</time>
  <course>102.13</course>
  <speed>1.016366075781753</speed>
  <fix>3d</fix>
</trkpt>
<trkpt lat="33.8104038" lon="-118.3955494">
  <ele>-24.4</ele>
  <time>2026-09-02T22:08:45Z</time>
  <course>12.04</course>
  <speed>1.0</speed>
  <fix>3d</fix>
</trkpt>
<trkpt lat="33.8104069" lon="-118.3955484">
  <ele>-25.015</ele>
  <time>2026-09-02T22:08:45Z</time>
  <course>102.24</course>
  <speed>1.016366075781753</speed>
  <fix>3d</fix>
</trkpt>
<trkpt lat="33.8104055" lon="-118.3955489">
  <ele>-24.4</ele>
  <time>2026-09-02T22:08:45Z</time>
  <course>12.3</course>
  <speed>1.0</speed>
  <fix>3d</fix>
</trkpt>
<trkpt lat="33.8104078" lon="-118.3955482">
  <ele>-25.012</ele>
  <time>2026-09-02T22:08:45Z</time>
  <course>102.36</course>
  <speed>1.0186756107809787</speed>
  <fix>3d</fix>
</trkpt>
<trkpt lat="33.8104055" lon="-118.3955489">
  <ele>-24.4</ele>
  <time>2026-09-02T22:08:45Z</time>
  <course>12.3</course>
  <speed>1.0</speed>
  <fix>3d</fix>
</trkpt>
<trkpt lat="33.8104086" lon="-118.395548">
  <ele>-25.01</ele>
  <time>2026-09-02T22:08:45Z</time>
  <course>102.47</course>
  <speed>1.0186756107809787</speed>
  <fix>3d</fix>
</trkpt>
<trkpt lat="33.8104073" lon="-118.3955484">
  <ele>-24.4</ele>
  <time>2026-09-02T22:08:45Z</time>
  <course>12.51</course>
  <speed>1.0</speed>
  <fix>3d</fix>
</trkpt>
<trkpt lat="33.8104095" lon="-118.3955477">
  <ele>-25.009</ele>
  <time>2026-09-02T22:08:45Z</time>
  <course>102.59</course>
  <speed>1.0186756107809787</speed>
  <fix>3d</fix>
</trkpt>
<trkpt lat="33.8104073" lon="-118.3955484">
  <ele>-24.4</ele>
  <time>2026-09-02T22:08:45Z</time>
  <course>12.51</course>
  <speed>1.0</speed>
  <fix>3d</fix>
</trkpt>
<trkpt lat="33.8104104" lon="-118.3955475">
  <ele>-25.008</ele>
  <time>2026-09-02T22:08:45Z</time>
  <course>102.7</course>
  <speed>1.0186756107809787</speed>
  <fix>3d</fix>
</trkpt>
<trkpt lat="33.8104091" lon="-118.395548">
  <ele>-24.4</ele>
  <time>2026-09-02T22:08:45Z</time>
  <course>12.69</course>
  <speed>1.0</speed>
  <fix>3d</fix>
</trkpt>
<trkpt lat="33.8104113" lon="-118.3955472">
  <ele>-25.008</ele>
  <time>2026-09-02T22:08:45Z</time>
  <course>102.82</course>
  <speed>1.0186756107809787</speed>
  <fix>3d</fix>
</trkpt>
<trkpt lat="33.8104091" lon="-118.395548">
  <ele>-24.4</ele>
  <time>2026-09-02T22:08:45Z</time>
  <course>12.69</course>
  <speed>1.0</speed>
  <fix>3d</fix>
</trkpt>
<trkpt lat="33.8104121" lon="-118.395547">
  <ele>-25.008</ele>
  <time>2026-09-02T22:08:45Z</time>
  <course>102.93</course>
  <speed>1.0186756107809787</speed>
  <fix>3d</fix>
</trkpt>
<trkpt lat="33.8104108" lon="-118.3955475">
  <ele>-24.4</ele>
  <time>2026-09-02T22:08:45Z</time>
  <course>12.91</course>
  <speed>1.0</speed>
  <fix>3d</fix>
</trkpt>
<trkpt lat="33.810413" lon="-118.3955467">
  <ele>-25.008</ele>
  <time>2026-09-02T22:08:46Z</time>
  <course>103.04</course>
  <speed>1.021077861869505</speed>
  <fix>3d</fix>
</trkpt>
<trkpt lat="33.8104108" lon="-118.3955475">
  <ele>-24.4</ele>
  <time>2026-09-02T22:08:46Z</time>
  <course>12.91</course>
  <speed>1.0</speed>
  <fix>3d</fix>
</trkpt>
<trkpt lat="33.8104139" lon="-118.3955465">
  <ele>-25.009</ele>
  <time>2026-09-02T22:08:46Z</time>
  <course>103.16</course>
  <speed>1.021077861869505</speed>
  <fix>3d</fix>
</trkpt>
<trkpt lat="33.8104126" lon="-118.395547">
  <ele>-24.4</ele>
  <time>2026-09-02T22:08:46Z</time>
  <course>13.16</course>
  <speed>1.0</speed>
  <fix>3d</fix>
</trkpt>
<trkpt lat="33.8104148" lon="-118.3955462">
  <ele>-25.009</ele>
  <time>2026-09-02T22:08:46Z</time>
  <course>103.28</course>
  <speed>1.021077861869505</speed>
  <fix>3d</fix>
</trkpt>
<trkpt lat="33.8104126" lon="-118.395547">
  <ele>-24.4</ele>
  <time>2026-09-02T22:08:46Z</time>
  <course>13.16</course>
  <speed>1.0</speed>
  <fix>3d</fix>
</trkpt>
<trkpt lat="33.8104157" lon="-118.395546">
  <ele>-25.009</ele>
  <time>2026-09-02T22:08:46Z</time>
  <course>103.39</course>
  <speed>1.021077861869505</speed>
  <fix>3d</fix>
</trkpt>
<trkpt lat="33.8104144" lon="-118.3955465">
  <ele>-24.4</ele>
  <time>2026-09-02T22:08:46Z</time>
  <course>13.41</course>
  <speed>1.0</speed>
  <fix>3d</fix>
</trkpt>
<trkpt lat="33.8104165" lon="-118.3955457">
  <ele>-25.009</ele>
  <time>2026-09-02T22:08:46Z</time>
  <course>103.5</course>
  <speed>1.021077861869505</speed>
  <fix>3d</fix>
</trkpt>
<trkpt lat="33.8104144" lon="-118.3955465">
  <ele>-24.4</ele>
  <time>2026-09-02T22:08:46Z</time>
  <course>13.41</course>
  <speed>1.0</speed>
  <fix>3d</fix>
</trkpt>
<trkpt lat="33.8104174" lon="-118.3955455">
  <ele>-25.009</ele>
  <time>2026-09-02T22:08:46Z</time>
  <course>103.62</course>
  <speed>1.0235721762533407</speed>
  <fix>3d</fix>
</trkpt>
<trkpt lat="33.8104161" lon="-118.395546">
  <ele>-24.41</ele>
  <time>2026-09-02T22:08:46Z</time>
  <course>13.64</course>
  <speed>1.0</speed>
  <fix>3d</fix>
</trkpt>
<trkpt lat="33.8104183" lon="-118.3955452">
  <ele>-25.01</ele>
  <time>2026-09-02T22:08:46Z</time>
  <course>103.73</course>
  <speed>1.0235721762533407</speed>
  <fix>3d</fix>
</trkpt>
<trkpt lat="33.8104161" lon="-118.395546">
  <ele>-24.41</ele>
  <time>2026-09-02T22:08:46Z</time>
  <course>13.64</course>
  <speed>1.0</speed>
  <fix>3d</fix>
</trkpt>
<trkpt lat="33.8104192" lon="-118.395545">
  <ele>-25.012</ele>
  <time>2026-09-02T22:08:46Z</time>
  <course>103.85</course>
  <speed>1.0139033484509261</speed>
  <fix>3d</fix>
</trkpt>
<trkpt lat="33.8104179" lon="-118.3955455">
  <ele>-24.41</ele>
  <time>2026-09-02T22:08:46Z</time>
  <course>13.88</course>
  <speed>1.0</speed>
  <fix>3d</fix>
</trkpt>
<trkpt lat="33.81042" lon="-118.3955447">
  <ele>-25.015</ele>
  <time>2026-09-02T22:08:46Z</time>
  <course>103.96</course>
  <speed>1.0139033484509261</speed>
  <fix>3d</fix>
</trkpt>
<trkpt lat="33.8104179" lon="-118.3955455">
  <ele>-24.41</ele>
  <time>2026-09-02T22:08:46Z</time>
  <course>13.88</course>
  <speed>1.0</speed>
  <fix>3d</fix>
</trkpt>
<trkpt lat="33.8104209" lon="-118.3955444">
  <ele>-25.017</ele>
  <time>2026-09-02T22:08:46Z</time>
  <course>104.08</course>
  <speed>1.0139033484509261</speed>
  <fix>3d</fix>
</trkpt>
<trkpt lat="33.8104197" lon="-118.3955449">
  <ele>-24.41</ele>
  <time>2026-09-02T22:08:46Z</time>
  <course>14.14</course>
  <speed>1.0</speed>
  <fix>3d</fix>
</trkpt>
<trkpt lat="33.8104218" lon="-118.3955442">
  <ele>-25.02</ele>
  <time>2026-09-02T22:08:46Z</time>
  <course>104.19</course>
  <speed>1.0165136496870073</speed>
  <fix>3d</fix>
</trkpt>
<trkpt lat="33.8104197" lon="-118.3955449">
  <ele>-24.41</ele>
  <time>2026-09-02T22:08:46Z</time>
  <course>14.14</course>
  <speed>1.0</speed>
  <fix>3d</fix>
</trkpt>
<trkpt lat="33.8104227" lon="-118.3955439">
  <ele>-25.022</ele>
  <time>2026-09-02T22:08:46Z</time>
  <course>104.31</course>
  <speed>1.0165136496870073</speed>
  <fix>3d</fix>
</trkpt>
<trkpt lat="33.8104214" lon="-118.3955444">
  <ele>-24.42</ele>
  <time>2026-09-02T22:08:46Z</time>
  <course>14.39</course>
  <speed>1.0</speed>
  <fix>3d</fix>
</trkpt>
<trkpt lat="33.8104235" lon="-118.3955436">
  <ele>-25.022</ele>
  <time>2026-09-02T22:08:46Z</time>
  <course>104.42</course>
  <speed>1.0165136496870073</speed>
  <fix>3d</fix>
</trkpt>
<trkpt lat="33.8104214" lon="-118.3955444">
  <ele>-24.42</ele>
  <time>2026-09-02T22:08:46Z</time>
  <course>14.39</course>
  <speed>1.0</speed>
  <fix>3d</fix>
</trkpt>
<trkpt lat="33.8104244" lon="-118.3955433">
  <ele>-25.023</ele>
  <time>2026-09-02T22:08:46Z</time>
  <course>104.54</course>
  <speed>1.0165136496870073</speed>
  <fix>3d</fix>
</trkpt>
<trkpt lat="33.8104232" lon="-118.3955439">
  <ele>-24.42</ele>
  <time>2026-09-02T22:08:46Z</time>
  <course>14.61</course>
  <speed>1.0</speed>
  <fix>3d</fix>
</trkpt>
<trkpt lat="33.8104253" lon="-118.3955431">
  <ele>-25.023</ele>
  <time>2026-09-02T22:08:46Z</time>
  <course>104.65</course>
  <speed>1.0165136496870073</speed>
  <fix>3d</fix>
</trkpt>
<trkpt lat="33.8104232" lon="-118.3955439">
  <ele>-24.42</ele>
  <time>2026-09-02T22:08:46Z</time>
  <course>14.61</course>
  <speed>1.0</speed>
  <fix>3d</fix>
</trkpt>
<trkpt lat="33.8104261" lon="-118.3955428">
  <ele>-25.023</ele>
  <time>2026-09-02T22:08:46Z</time>
  <course>104.76</course>
  <speed>1.0192153844992726</speed>
  <fix>3d</fix>
</trkpt>
<trkpt lat="33.8104249" lon="-118.3955433">
  <ele>-24.42</ele>
  <time>2026-09-02T22:08:46Z</time>
  <course>14.85</course>
  <speed>1.0</speed>
  <fix>3d</fix>
</trkpt>
<trkpt lat="33.810427" lon="-118.3955425">
  <ele>-25.022</ele>
  <time>2026-09-02T22:08:46Z</time>
  <course>104.88</course>
  <speed>1.0192153844992726</speed>
  <fix>3d</fix>
</trkpt>
<trkpt lat="33.8104249" lon="-118.3955433">
  <ele>-24.42</ele>
  <time>2026-09-02T22:08:46Z</time>
  <course>14.85</course>
  <speed>1.0</speed>
  <fix>3d</fix>
</trkpt>
<trkpt lat="33.8104279" lon="-118.3955422">
  <ele>-25.02</ele>
  <time>2026-09-02T22:08:46Z</time>
  <course>104.99</course>
  <speed>1.009603882718366</speed>
  <fix>3d</fix>
</trkpt>
<trkpt lat="33.8104266" lon="-118.3955427">
  <ele>-24.41</ele>
  <time>2026-09-02T22:08:46Z</time>
  <course>15.1</course>
  <speed>1.0</speed>
  <fix>3d</fix>
</trkpt>
<trkpt lat="33.8104287" lon="-118.3955419">
  <ele>-25.017</ele>
  <time>2026-09-02T22:08:46Z</time>
  <course>105.11</course>
  <speed>1.009603882718366</speed>
  <fix>3d</fix>
</trkpt>
<trkpt lat="33.8104266" lon="-118.3955427">
  <ele>-24.41</ele>
  <time>2026-09-02T22:08:46Z</time>
  <course>15.1</course>
  <speed>1.0</speed>
  <fix>3d</fix>
</trkpt>
<trkpt lat="33.8104296" lon="-118.3955416">
  <ele>-25.015</ele>
  <time>2026-09-02T22:08:46Z</time>
  <course>105.22</course>
  <speed>1.009603882718366</speed>
  <fix>3d</fix>
</trkpt>
<trkpt lat="33.8104283" lon="-118.3955422">
  <ele>-24.4</ele>
  <time>2026-09-02T22:08:46Z</time>
  <course>15.31</course>
  <speed>1.0</speed>
  <fix>3d</fix>
</trkpt>
<trkpt lat="33.8104305" lon="-118.3955414">
  <ele>-25.012</ele>
  <time>2026-09-02T22:08:46Z</time>
  <course>105.33</course>
  <speed>1.009603882718366</speed>
  <fix>3d</fix>
</trkpt>
<trkpt lat="33.8104283" lon="-118.3955422">
  <ele>-24.4</ele>
  <time>2026-09-02T22:08:46Z</time>
  <course>15.31</course>
  <speed>1.0</speed>
  <fix>3d</fix>
</trkpt>
<trkpt lat="33.8104313" lon="-118.3955411">
  <ele>-25.01</ele>
  <time>2026-09-02T22:08:46Z</time>
  <course>105.45</course>
  <speed>1.0124228365658294</speed>
  <fix>3d</fix>
</trkpt>
<trkpt lat="33.8104301" lon="-118.3955416">
  <ele>-24.4</ele>
  <time>2026-09-02T22:08:46Z</time>
  <course>15.5</course>
  <speed>1.0</speed>
  <fix>3d</fix>
</trkpt>
<trkpt lat="33.8104322" lon="-118.3955408">
  <ele>-25.01</ele>
  <time>2026-09-02T22:08:46Z</time>
  <course>105.56</course>
  <speed>1.0124228365658294</speed>
  <fix>3d</fix>
</trkpt>
<trkpt lat="33.8104301" lon="-118.3955416">
  <ele>-24.4</ele>
  <time>2026-09-02T22:08:46Z</time>
  <course>15.5</course>
  <speed>1.0</speed>
  <fix>3d</fix>
</trkpt>
<trkpt lat="33.8104331" lon="-118.3955405">
  <ele>-25.011</ele>
  <time>2026-09-02T22:08:46Z</time>
  <course>105.68</course>
  <speed>1.0124228365658294</speed>
  <fix>3d</fix>
</trkpt>
<trkpt lat="33.8104318" lon="-118.3955411">
  <ele>-24.4</ele>
  <time>2026-09-02T22:08:46Z</time>
  <course>15.73</course>
  <speed>1.0</speed>
  <fix>3d</fix>
</trkpt>
<trkpt lat="33.8104339" lon="-118.3955402">
  <ele>-25.011</ele>
  <time>2026-09-02T22:08:46Z</time>
  <course>105.8</course>
  <speed>1.0124228365658294</speed>
  <fix>3d</fix>
</trkpt>
<trkpt lat="33.8104318" lon="-118.3955411">
  <ele>-24.4</ele>
  <time>2026-09-02T22:08:46Z</time>
  <course>15.73</course>
  <speed>1.0</speed>
  <fix>3d</fix>
</trkpt>
<trkpt lat="33.8104348" lon="-118.3955399">
  <ele>-25.011</ele>
  <time>2026-09-02T22:08:46Z</time>
  <course>105.91</course>
  <speed>1.0124228365658294</speed>
  <fix>3d</fix>
</trkpt>
<trkpt lat="33.8104335" lon="-118.3955405">
  <ele>-24.4</ele>
  <time>2026-09-02T22:08:46Z</time>
  <course>15.98</course>
  <speed>1.0</speed>
  <fix>3d</fix>
</trkpt>
<trkpt lat="33.8104357" lon="-118.3955396">
  <ele>-25.011</ele>
  <time>2026-09-02T22:08:46Z</time>
  <course>106.02</course>
  <speed>1.015332457867865</speed>
  <fix>3d</fix>
</trkpt>
<trkpt lat="33.8104335" lon="-118.3955405">
  <ele>-24.4</ele>
  <time>2026-09-02T22:08:46Z</time>
  <course>15.98</course>
  <speed>1.0</speed>
  <fix>3d</fix>
</trkpt>
<trkpt lat="33.8104365" lon="-118.3955393">
  <ele>-25.012</ele>
  <time>2026-09-02T22:08:46Z</time>
  <course>106.14</course>
  <speed>1.015332457867865</speed>
  <fix>3d</fix>
</trkpt>
<trkpt lat="33.8104353" lon="-118.3955399">
  <ele>-24.4</ele>
  <time>2026-09-02T22:08:46Z</time>
  <course>16.28</course>
  <speed>1.0</speed>
  <fix>3d</fix>
</trkpt>
<trkpt lat="33.8104374" lon="-118.395539">
  <ele>-25.013</ele>
  <time>2026-09-02T22:08:46Z</time>
  <course>106.25</course>
  <speed>1.015332457867865</speed>
  <fix>3d</fix>
</trkpt>
<trkpt lat="33.8104353" lon="-118.3955399">
  <ele>-24.4</ele>
  <time>2026-09-02T22:08:46Z</time>
  <course>16.28</course>
  <speed>1.0</speed>
  <fix>3d</fix>
</trkpt>
<trkpt lat="33.8104382" lon="-118.3955387">
  <ele>-25.013</ele>
  <time>2026-09-02T22:08:46Z</time>
  <course>106.37</course>
  <speed>1.015332457867865</speed>
  <fix>3d</fix>
</trkpt>
<trkpt lat="33.810437" lon="-118.3955392">
  <ele>-24.4</ele>
  <time>2026-09-02T22:08:46Z</time>
  <course>16.57</course>
  <speed>1.0</speed>
  <fix>3d</fix>
</trkpt>
<trkpt lat="33.8104391" lon="-118.3955384">
  <ele>-25.013</ele>
  <time>2026-09-02T22:08:46Z</time>
  <course>106.48</course>
  <speed>1.0183319694480775</speed>
  <fix>3d</fix>
</trkpt>
<trkpt lat="33.810437" lon="-118.3955392">
  <ele>-24.4</ele>
  <time>2026-09-02T22:08:46Z</time>
  <course>16.57</course>
  <speed>1.0</speed>
  <fix>3d</fix>
</trkpt>
<trkpt lat="33.81044" lon="-118.395538">
  <ele>-25.012</ele>
  <time>2026-09-02T22:08:46Z</time>
  <course>106.6</course>
  <speed>1.0183319694480775</speed>
  <fix>3d</fix>
</trkpt>
<trkpt lat="33.8104387" lon="-118.3955386">
  <ele>-24.4</ele>
  <time>2026-09-02T22:08:46Z</time>
  <course>16.81</course>
  <speed>1.0</speed>
  <fix>3d</fix>
</trkpt>
<trkpt lat="33.8104408" lon="-118.3955377">
  <ele>-25.01</ele>
  <time>2026-09-02T22:08:46Z</time>
  <course>106.71</course>
  <speed>1.0183319694480775</speed>
  <fix>3d</fix>
</trkpt>
<trkpt lat="33.8104387" lon="-118.3955386">
  <ele>-24.4</ele>
  <time>2026-09-02T22:08:46Z</time>
  <course>16.81</course>
  <speed>1.0</speed>
  <fix>3d</fix>
</trkpt>
<trkpt lat="33.8104417" lon="-118.3955374">
  <ele>-25.009</ele>
  <time>2026-09-02T22:08:46Z</time>
  <course>106.83</course>
  <speed>1.0183319694480775</speed>
  <fix>3d</fix>
</trkpt>
<trkpt lat="33.8104404" lon="-118.3955379">
  <ele>-24.4</ele>
  <time>2026-09-02T22:08:46Z</time>
  <course>17.0</course>
  <speed>1.0</speed>
  <fix>3d</fix>
</trkpt>
<trkpt lat="33.8104425" lon="-118.3955371">
  <ele>-25.008</ele>
  <time>2026-09-02T22:08:46Z</time>
  <course>106.94</course>
  <speed>1.0183319694480775</speed>
  <fix>3d</fix>
</trkpt>
<trkpt lat="33.8104404" lon="-118.3955379">
  <ele>-24.4</ele>
  <time>2026-09-02T22:08:46Z</time>
  <course>17.0</course>
  <speed>1.0</speed>
  <fix>3d</fix>
</trkpt>
<trkpt lat="33.8104434" lon="-118.3955368">
  <ele>-25.009</ele>
  <time>2026-09-02T22:08:46Z</time>
  <course>107.06</course>
  <speed>1.0183319694480775</speed>
  <fix>3d</fix>
</trkpt>
<trkpt lat="33.8104422" lon="-118.3955374">
  <ele>-24.4</ele>
  <time>2026-09-02T22:08:46Z</time>
  <course>17.16</course>
  <speed>1.0</speed>
  <fix>3d</fix>
</trkpt>
<trkpt lat="33.8104443" lon="-118.3955364">
  <ele>-25.011</ele>
  <time>2026-09-02T22:08:46Z</time>
  <course>107.17</course>
  <speed>1.0183319694480775</speed>
  <fix>3d</fix>
</trkpt>
<trkpt lat="33.8104422" lon="-118.3955374">
  <ele>-24.4</ele>
  <time>2026-09-02T22:08:46Z</time>
  <course>17.16</course>
  <speed>1.0</speed>
  <fix>3d</fix>
</trkpt>
<trkpt lat="33.8104451" lon="-118.3955361">
  <ele>-25.011</ele>
  <time>2026-09-02T22:08:46Z</time>
  <course>107.29</course>
  <speed>1.0119288512538815</speed>
  <fix>3d</fix>
</trkpt>
<trkpt lat="33.8104439" lon="-118.3955367">
  <ele>-24.4</ele>
  <time>2026-09-02T22:08:46Z</time>
  <course>17.32</course>
  <speed>1.0</speed>
  <fix>3d</fix>
</trkpt>
<trkpt lat="33.810446" lon="-118.3955358">
  <ele>-25.012</ele>
  <time>2026-09-02T22:08:46Z</time>
  <course>107.4</course>
  <speed>1.0119288512538815</speed>
  <fix>3d</fix>
</trkpt>
<trkpt lat="33.8104439" lon="-118.3955367">
  <ele>-24.4</ele>
  <time>2026-09-02T22:08:46Z</time>
  <course>17.32</course>
  <speed>1.0</speed>
  <fix>3d</fix>
</trkpt>
<trkpt lat="33.8104468" lon="-118.3955355">
  <ele>-25.013</ele>
  <time>2026-09-02T22:08:46Z</time>
  <course>107.51</course>
  <speed>1.0119288512538815</speed>
  <fix>3d</fix>
</trkpt>
<trkpt lat="33.8104456" lon="-118.395536">
  <ele>-24.4</ele>
  <time>2026-09-02T22:08:46Z</time>
  <course>17.56</course>
  <speed>0.99</speed>
  <fix>3d</fix>
</trkpt>
<trkpt lat="33.8104477" lon="-118.3955351">
  <ele>-25.013</ele>
  <time>2026-09-02T22:08:46Z</time>
  <course>107.63</course>
  <speed>1.0119288512538815</speed>
  <fix>3d</fix>
</trkpt>
<trkpt lat="33.8104456" lon="-118.395536">
  <ele>-24.4</ele>
  <time>2026-09-02T22:08:46Z</time>
  <course>17.56</course>
  <speed>0.99</speed>
  <fix>3d</fix>
</trkpt>
<trkpt lat="33.8104486" lon="-118.3955348">
  <ele>-25.013</ele>
  <time>2026-09-02T22:08:46Z</time>
  <course>107.74</course>
  <speed>1.0119288512538815</speed>
  <fix>3d</fix>
</trkpt>
<trkpt lat="33.8104473" lon="-118.3955354">
  <ele>-24.4</ele>
  <time>2026-09-02T22:08:46Z</time>
  <course>17.79</course>
  <speed>0.99</speed>
  <fix>3d</fix>
</trkpt>
<trkpt lat="33.8104494" lon="-118.3955345">
  <ele>-25.013</ele>
  <time>2026-09-02T22:08:46Z</time>
  <course>107.86</course>
  <speed>1.0151354589413177</speed>
  <fix>3d</fix>
</trkpt>
<trkpt lat="33.8104473" lon="-118.3955354">
  <ele>-24.4</ele>
  <time>2026-09-02T22:08:46Z</time>
  <course>17.79</course>
  <speed>0.99</speed>
  <fix>3d</fix>
</trkpt>
<trkpt lat="33.8104503" lon="-118.3955341">
  <ele>-25.013</ele>
  <time>2026-09-02T22:08:46Z</time>
  <course>107.97</course>
  <speed>1.0151354589413177</speed>
  <fix>3d</fix>
</trkpt>
<trkpt lat="33.810449" lon="-118.3955347">
  <ele>-24.4</ele>
  <time>2026-09-02T22:08:46Z</time>
  <course>18.0</course>
  <speed>0.99</speed>
  <fix>3d</fix>
</trkpt>
<trkpt lat="33.8104511" lon="-118.3955338">
  <ele>-25.014</ele>
  <time>2026-09-02T22:08:46Z</time>
  <course>108.09</course>
  <speed>1.0151354589413177</speed>
  <fix>3d</fix>
</trkpt>
<trkpt lat="33.810449" lon="-118.3955347">
  <ele>-24.4</ele>
  <time>2026-09-02T22:08:46Z</time>
  <course>18.0</course>
  <speed>0.99</speed>
  <fix>3d</fix>
</trkpt>
<trkpt lat="33.810452" lon="-118.3955334">
  <ele>-25.014</ele>
  <time>2026-09-02T22:08:46Z</time>
  <course>108.2</course>
  <speed>1.0151354589413177</speed>
  <fix>3d</fix>
</trkpt>
<trkpt lat="33.8104507" lon="-118.3955341">
  <ele>-24.4</ele>
  <time>2026-09-02T22:08:46Z</time>
  <course>18.2</course>
  <speed>0.99</speed>
  <fix>3d</fix>
</trkpt>
<trkpt lat="33.8104528" lon="-118.3955331">
  <ele>-25.015</ele>
  <time>2026-09-02T22:08:46Z</time>
  <course>108.32</course>
  <speed>1.0151354589413177</speed>
  <fix>3d</fix>
</trkpt>
<trkpt lat="33.8104507" lon="-118.3955341">
  <ele>-24.4</ele>
  <time>2026-09-02T22:08:46Z</time>
  <course>18.2</course>
  <speed>0.99</speed>
  <fix>3d</fix>
</trkpt>
<trkpt lat="33.8104537" lon="-118.3955328">
  <ele>-25.016</ele>
  <time>2026-09-02T22:08:46Z</time>
  <course>108.44</course>
  <speed>1.0151354589413177</speed>
  <fix>3d</fix>
</trkpt>
<trkpt lat="33.8104524" lon="-118.3955334">
  <ele>-24.41</ele>
  <time>2026-09-02T22:08:46Z</time>
  <course>18.42</course>
  <speed>0.99</speed>
  <fix>3d</fix>
</trkpt>
<trkpt lat="33.8104545" lon="-118.3955324">
  <ele>-25.017</ele>
  <time>2026-09-02T22:08:46Z</time>
  <course>108.55</course>
  <speed>1.0184301645179212</speed>
  <fix>3d</fix>
</trkpt>
<trkpt lat="33.8104524" lon="-118.3955334">
  <ele>-24.41</ele>
  <time>2026-09-02T22:08:46Z</time>
  <course>18.42</course>
  <speed>0.99</speed>
  <fix>3d</fix>
</trkpt>
<trkpt lat="33.8104554" lon="-118.3955321">
  <ele>-25.016</ele>
  <time>2026-09-02T22:08:46Z</time>
  <course>108.66</course>
  <speed>1.0184301645179212</speed>
  <fix>3d</fix>
</trkpt>
<trkpt lat="33.8104541" lon="-118.3955327">
  <ele>-24.4</ele>
  <time>2026-09-02T22:08:46Z</time>
  <course>18.66</course>
  <speed>0.99</speed>
  <fix>3d</fix>
</trkpt>
<trkpt lat="33.8104562" lon="-118.3955317">
  <ele>-25.015</ele>
  <time>2026-09-02T22:08:46Z</time>
  <course>108.78</course>
  <speed>1.0184301645179212</speed>
  <fix>3d</fix>
</trkpt>
<trkpt lat="33.8104541" lon="-118.3955327">
  <ele>-24.4</ele>
  <time>2026-09-02T22:08:46Z</time>
  <course>18.66</course>
  <speed>0.99</speed>
  <fix>3d</fix>
</trkpt>
<trkpt lat="33.8104571" lon="-118.3955314">
  <ele>-25.012</ele>
  <time>2026-09-02T22:08:46Z</time>
  <course>108.89</course>
  <speed>1.0184301645179212</speed>
  <fix>3d</fix>
</trkpt>
<trkpt lat="33.8104558" lon="-118.395532">
  <ele>-24.4</ele>
  <time>2026-09-02T22:08:46Z</time>
  <course>18.9</course>
  <speed>0.99</speed>
  <fix>3d</fix>
</trkpt>
<trkpt lat="33.8104579" lon="-118.395531">
  <ele>-25.01</ele>
  <time>2026-09-02T22:08:46Z</time>
  <course>109.01</course>
  <speed>1.0218121158021176</speed>
  <fix>3d</fix>
</trkpt>
<trkpt lat="33.8104558" lon="-118.395532">
  <ele>-24.4</ele>
  <time>2026-09-02T22:08:46Z</time>
  <course>18.9</course>
  <speed>0.99</speed>
  <fix>3d</fix>
</trkpt>
<trkpt lat="33.8104588" lon="-118.3955307">
  <ele>-25.008</ele>
  <time>2026-09-02T22:08:46Z</time>
  <course>109.12</course>
  <speed>1.0218121158021176</speed>
  <fix>3d</fix>
</trkpt>
<trkpt lat="33.8104575" lon="-118.3955313">
  <ele>-24.4</ele>
  <time>2026-09-02T22:08:46Z</time>
  <course>19.14</course>
  <speed>0.99</speed>
  <fix>3d</fix>
</trkpt>
<trkpt lat="33.8104596" lon="-118.3955303">
  <ele>-25.009</ele>
  <time>2026-09-02T22:08:46Z</time>
  <course>109.23</course>
  <speed>1.0218121158021176</speed>
  <fix>3d</fix>
</trkpt>
<trkpt lat="33.8104575" lon="-118.3955313">
  <ele>-24.4</ele>
  <time>2026-09-02T22:08:46Z</time>
  <course>19.14</course>
  <speed>0.99</speed>
  <fix>3d</fix>
</trkpt>
<trkpt lat="33.8104605" lon="-118.3955299">
  <ele>-25.01</ele>
  <time>2026-09-02T22:08:46Z</time>
  <course>109.35</course>
  <speed>1.0124228365658294</speed>
  <fix>3d</fix>
</trkpt>
<trkpt lat="33.8104592" lon="-118.3955306">
  <ele>-24.4</ele>
  <time>2026-09-02T22:08:46Z</time>
  <course>19.37</course>
  <speed>0.99</speed>
  <fix>3d</fix>
</trkpt>
<trkpt lat="33.8104613" lon="-118.3955296">
  <ele>-25.01</ele>
  <time>2026-09-02T22:08:46Z</time>
  <course>109.46</course>
  <speed>1.0124228365658294</speed>
  <fix>3d</fix>
</trkpt>
<trkpt lat="33.8104592" lon="-118.3955306">
  <ele>-24.4</ele>
  <time>2026-09-02T22:08:46Z</time>
  <course>19.37</course>
  <speed>0.99</speed>
  <fix>3d</fix>
</trkpt>
<trkpt lat="33.8104622" lon="-118.3955292">
  <ele>-25.01</ele>
  <time>2026-09-02T22:08:46Z</time>
  <course>109.58</course>
  <speed>1.0159232254457027</speed>
  <fix>3d</fix>
</trkpt>
<trkpt lat="33.8104609" lon="-118.3955298">
  <ele>-24.4</ele>
  <time>2026-09-02T22:08:46Z</time>
  <course>19.61</course>
  <speed>1.0</speed>
  <fix>3d</fix>
</trkpt>
<trkpt lat="33.810463" lon="-118.3955288">
  <ele>-25.01</ele>
  <time>2026-09-02T22:08:46Z</time>
  <course>109.69</course>
  <speed>1.0159232254457027</speed>
  <fix>3d</fix>
</trkpt>
<trkpt lat="33.8104609" lon="-118.3955298">
  <ele>-24.4</ele>
  <time>2026-09-02T22:08:46Z</time>
  <course>19.61</course>
  <speed>1.0</speed>
  <fix>3d</fix>
</trkpt>
<trkpt lat="33.8104638" lon="-118.3955285">
  <ele>-25.011</ele>
  <time>2026-09-02T22:08:46Z</time>
  <course>109.81</course>
  <speed>1.0159232254457027</speed>
  <fix>3d</fix>
</trkpt>
<trkpt lat="33.8104626" lon="-118.3955291">
  <ele>-24.4</ele>
  <time>2026-09-02T22:08:46Z</time>
  <course>19.81</course>
  <speed>0.99</speed>
  <fix>3d</fix>
</trkpt>
<trkpt lat="33.8104647" lon="-118.3955281">
  <ele>-25.012</ele>
  <time>2026-09-02T22:08:46Z</time>
  <course>109.92</course>
  <speed>1.0159232254457027</speed>
  <fix>3d</fix>
</trkpt>
<trkpt lat="33.8104626" lon="-118.3955291">
  <ele>-24.4</ele>
  <time>2026-09-02T22:08:46Z</time>
  <course>19.81</course>
  <speed>0.99</speed>
  <fix>3d</fix>
</trkpt>
<trkpt lat="33.8104655" lon="-118.3955277">
  <ele>-25.013</ele>
  <time>2026-09-02T22:08:46Z</time>
  <course>110.04</course>
  <speed>1.0159232254457027</speed>
  <fix>3d</fix>
</trkpt>
<trkpt lat="33.8104643" lon="-118.3955284">
  <ele>-24.41</ele>
  <time>2026-09-02T22:08:46Z</time>
  <course>19.99</course>
  <speed>0.99</speed>
  <fix>3d</fix>
</trkpt>
<trkpt lat="33.8104664" lon="-118.3955273">
  <ele>-25.015</ele>
  <time>2026-09-02T22:08:46Z</time>
  <course>110.15</course>
  <speed>1.0159232254457027</speed>
  <fix>3d</fix>
</trkpt>
<trkpt lat="33.8104643" lon="-118.3955284">
  <ele>-24.41</ele>
  <time>2026-09-02T22:08:46Z</time>
  <course>19.99</course>
  <speed>0.99</speed>
  <fix>3d</fix>
</trkpt>
<trkpt lat="33.8104672" lon="-118.395527">
  <ele>-25.016</ele>
  <time>2026-09-02T22:08:46Z</time>
  <course>110.27</course>
  <speed>1.0195096860746347</speed>
  <fix>3d</fix>
</trkpt>
<trkpt lat="33.810466" lon="-118.3955277">
  <ele>-24.41</ele>
  <time>2026-09-02T22:08:46Z</time>
  <course>20.21</course>
  <speed>0.99</speed>
  <fix>3d</fix>
</trkpt>
<trkpt lat="33.8104681" lon="-118.3955266">
  <ele>-25.016</ele>
  <time>2026-09-02T22:08:46Z</time>
  <course>110.38</course>
  <speed>1.0195096860746347</speed>
  <fix>3d</fix>
</trkpt>
<trkpt lat="33.810466" lon="-118.3955277">
  <ele>-24.41</ele>
  <time>2026-09-02T22:08:46Z</time>
  <course>20.21</course>
  <speed>0.99</speed>
  <fix>3d</fix>
</trkpt>
<trkpt lat="33.8104689" lon="-118.3955262">
  <ele>-25.016</ele>
  <time>2026-09-02T22:08:46Z</time>
  <course>110.5</course>
  <speed>1.010198000393982</speed>
  <fix>3d</fix>
</trkpt>
<trkpt lat="33.8104677" lon="-118.3955269">
  <ele>-24.41</ele>
  <time>2026-09-02T22:08:46Z</time>
  <course>20.49</course>
  <speed>0.99</speed>
  <fix>3d</fix>
</trkpt>
<trkpt lat="33.8104698" lon="-118.3955258">
  <ele>-25.016</ele>
  <time>2026-09-02T22:08:46Z</time>
  <course>110.61</course>
  <speed>1.010198000393982</speed>
  <fix>3d</fix>
</trkpt>
<trkpt lat="33.8104677" lon="-118.3955269">
  <ele>-24.41</ele>
  <time>2026-09-02T22:08:46Z</time>
  <course>20.49</course>
  <speed>0.99</speed>
  <fix>3d</fix>
</trkpt>
<trkpt lat="33.8104706" lon="-118.3955254">
  <ele>-25.016</ele>
  <time>2026-09-02T22:08:46Z</time>
  <course>110.72</course>
  <speed>1.0139033484509261</speed>
  <fix>3d</fix>
</trkpt>
<trkpt lat="33.8104693" lon="-118.3955262">
  <ele>-24.41</ele>
  <time>2026-09-02T22:08:46Z</time>
  <course>20.78</course>
  <speed>0.99</speed>
  <fix>3d</fix>
</trkpt>
<trkpt lat="33.8104714" lon="-118.3955251">
  <ele>-25.016</ele>
  <time>2026-09-02T22:08:46Z</time>
  <course>110.84</course>
  <speed>1.0139033484509261</speed>
  <fix>3d</fix>
</trkpt>
<trkpt lat="33.8104693" lon="-118.3955262">
  <ele>-24.41</ele>
  <time>2026-09-02T22:08:46Z</time>
  <course>20.78</course>
  <speed>0.99</speed>
  <fix>3d</fix>
</trkpt>
<trkpt lat="33.8104723" lon="-118.3955247">
  <ele>-25.015</ele>
  <time>2026-09-02T22:08:46Z</time>
  <course>110.95</course>
  <speed>1.0139033484509261</speed>
  <fix>3d</fix>
</trkpt>
<trkpt lat="33.810471" lon="-118.3955254">
  <ele>-24.41</ele>
  <time>2026-09-02T22:08:46Z</time>
  <course>21.06</course>
  <speed>0.99</speed>
  <fix>3d</fix>
</trkpt>
<trkpt lat="33.8104731" lon="-118.3955243">
  <ele>-25.014</ele>
  <time>2026-09-02T22:08:46Z</time>
  <course>111.07</course>
  <speed>1.0139033484509261</speed>
  <fix>3d</fix>
</trkpt>
<trkpt lat="33.810471" lon="-118.3955254">
  <ele>-24.41</ele>
  <time>2026-09-02T22:08:46Z</time>
  <course>21.06</course>
  <speed>0.99</speed>
  <fix>3d</fix>
</trkpt>
<trkpt lat="33.8104739" lon="-118.3955239">
  <ele>-25.013</ele>
  <time>2026-09-02T22:08:46Z</time>
  <course>111.18</course>
  <speed>1.0139033484509261</speed>
  <fix>3d</fix>
</trkpt>
<trkpt lat="33.8104727" lon="-118.3955245">
  <ele>-24.41</ele>
  <time>2026-09-02T22:08:46Z</time>
  <course>21.31</course>
  <speed>0.99</speed>
  <fix>3d</fix>
</trkpt>
<trkpt lat="33.8104748" lon="-118.3955235">
  <ele>-25.012</ele>
  <time>2026-09-02T22:08:46Z</time>
  <course>111.3</course>
  <speed>1.0139033484509261</speed>
  <fix>3d</fix>
</trkpt>
<trkpt lat="33.8104727" lon="-118.3955245">
  <ele>-24.41</ele>
  <time>2026-09-02T22:08:46Z</time>
  <course>21.31</course>
  <speed>0.99</speed>
  <fix>3d</fix>
</trkpt>
<trkpt lat="33.8104756" lon="-118.3955231">
  <ele>-25.011</ele>
  <time>2026-09-02T22:08:46Z</time>
  <course>111.41</course>
  <speed>1.0176934705499492</speed>
  <fix>3d</fix>
</trkpt>
<trkpt lat="33.8104744" lon="-118.3955238">
  <ele>-24.41</ele>
  <time>2026-09-02T22:08:46Z</time>
  <course>21.5</course>
  <speed>0.99</speed>
  <fix>3d</fix>
</trkpt>
<trkpt lat="33.8104765" lon="-118.3955227">
  <ele>-25.012</ele>
  <time>2026-09-02T22:08:46Z</time>
  <course>111.53</course>
  <speed>1.0176934705499492</speed>
  <fix>3d</fix>
</trkpt>
<trkpt lat="33.8104744" lon="-118.3955238">
  <ele>-24.41</ele>
  <time>2026-09-02T22:08:46Z</time>
  <course>21.5</course>
  <speed>0.99</speed>
  <fix>3d</fix>
</trkpt>
<trkpt lat="33.8104773" lon="-118.3955223">
  <ele>-25.012</ele>
  <time>2026-09-02T22:08:46Z</time>
  <course>111.64</course>
  <speed>1.0176934705499492</speed>
  <fix>3d</fix>
</trkpt>
<trkpt lat="33.810476" lon="-118.395523">
  <ele>-24.41</ele>
  <time>2026-09-02T22:08:46Z</time>
  <course>21.68</course>
  <speed>0.99</speed>
  <fix>3d</fix>
</trkpt>
<trkpt lat="33.8104781" lon="-118.3955219">
  <ele>-25.013</ele>
  <time>2026-09-02T22:08:46Z</time>
  <course>111.76</course>
  <speed>1.0176934705499492</speed>
  <fix>3d</fix>
</trkpt>
<trkpt lat="33.810476" lon="-118.395523">
  <ele>-24.41</ele>
  <time>2026-09-02T22:08:46Z</time>
  <course>21.68</course>
  <speed>0.99</speed>
  <fix>3d</fix>
</trkpt>
<trkpt lat="33.810479" lon="-118.3955215">
  <ele>-25.014</ele>
  <time>2026-09-02T22:08:46Z</time>
  <course>111.87</course>
  <speed>1.0176934705499492</speed>
  <fix>3d</fix>
</trkpt>
<trkpt lat="33.8104777" lon="-118.3955221">
  <ele>-24.41</ele>
  <time>2026-09-02T22:08:46Z</time>
  <course>21.87</course>
  <speed>0.99</speed>
  <fix>3d</fix>
</trkpt>
<trkpt lat="33.8104798" lon="-118.395521">
  <ele>-25.014</ele>
  <time>2026-09-02T22:08:46Z</time>
  <course>111.98</course>
  <speed>1.0176934705499492</speed>
  <fix>3d</fix>
</trkpt>
<trkpt lat="33.8104777" lon="-118.3955221">
  <ele>-24.41</ele>
  <time>2026-09-02T22:08:46Z</time>
  <course>21.87</course>
  <speed>0.99</speed>
  <fix>3d</fix>
</trkpt>
<trkpt lat="33.8104806" lon="-118.3955206">
  <ele>-25.014</ele>
  <time>2026-09-02T22:08:46Z</time>
  <course>112.1</course>
  <speed>1.0084641788382966</speed>
  <fix>3d</fix>
</trkpt>
<trkpt lat="33.8104794" lon="-118.3955214">
  <ele>-24.41</ele>
  <time>2026-09-02T22:08:46Z</time>
  <course>22.02</course>
  <speed>0.99</speed>
  <fix>3d</fix>
</trkpt>
<trkpt lat="33.8104815" lon="-118.3955202">
  <ele>-25.014</ele>
  <time>2026-09-02T22:08:46Z</time>
  <course>112.21</course>
  <speed>1.0123734488813898</speed>
  <fix>3d</fix>
</trkpt>
<trkpt lat="33.8104794" lon="-118.3955214">
  <ele>-24.41</ele>
  <time>2026-09-02T22:08:46Z</time>
  <course>22.02</course>
  <speed>0.99</speed>
  <fix>3d</fix>
</trkpt>
<trkpt lat="33.8104823" lon="-118.3955198">
  <ele>-25.013</ele>
  <time>2026-09-02T22:08:46Z</time>
  <course>112.33</course>
  <speed>1.0123734488813898</speed>
  <fix>3d</fix>
</trkpt>
<trkpt lat="33.810481" lon="-118.3955206">
  <ele>-24.41</ele>
  <time>2026-09-02T22:08:46Z</time>
  <course>22.2</course>
  <speed>0.99</speed>
  <fix>3d</fix>
</trkpt>
<trkpt lat="33.8104831" lon="-118.3955194">
  <ele>-25.013</ele>
  <time>2026-09-02T22:08:46Z</time>
  <course>112.44</course>
  <speed>1.0123734488813898</speed>
  <fix>3d</fix>
</trkpt>
<trkpt lat="33.810481" lon="-118.3955206">
  <ele>-24.41</ele>
  <time>2026-09-02T22:08:46Z</time>
  <course>22.2</course>
  <speed>0.99</speed>
  <fix>3d</fix>
</trkpt>
<trkpt lat="33.8104839" lon="-118.395519">
  <ele>-25.013</ele>
  <time>2026-09-02T22:08:46Z</time>
  <course>112.56</course>
  <speed>1.0123734488813898</speed>
  <fix>3d</fix>
</trkpt>
<trkpt lat="33.8104826" lon="-118.3955198">
  <ele>-24.41</ele>
  <time>2026-09-02T22:08:46Z</time>
  <course>22.45</course>
  <speed>0.99</speed>
  <fix>3d</fix>
</trkpt>
<trkpt lat="33.8104848" lon="-118.3955186">
  <ele>-25.014</ele>
  <time>2026-09-02T22:08:46Z</time>
  <course>112.67</course>
  <speed>1.016366075781753</speed>
  <fix>3d</fix>
</trkpt>
<trkpt lat="33.8104826" lon="-118.3955198">
  <ele>-24.41</ele>
  <time>2026-09-02T22:08:46Z</time>
  <course>22.45</course>
  <speed>0.99</speed>
  <fix>3d</fix>
</trkpt>
<trkpt lat="33.8104856" lon="-118.3955182">
  <ele>-25.015</ele>
  <time>2026-09-02T22:08:46Z</time>
  <course>112.79</course>
  <speed>1.016366075781753</speed>
  <fix>3d</fix>
</trkpt>
<trkpt lat="33.8104843" lon="-118.3955189">
  <ele>-24.41</ele>
  <time>2026-09-02T22:08:46Z</time>
  <course>22.71</course>
  <speed>0.99</speed>
  <fix>3d</fix>
</trkpt>
<trkpt lat="33.8104864" lon="-118.3955177">
  <ele>-25.015</ele>
  <time>2026-09-02T22:08:46Z</time>
  <course>112.9</course>
  <speed>1.016366075781753</speed>
  <fix>3d</fix>
</trkpt>
<trkpt lat="33.8104843" lon="-118.3955189">
  <ele>-24.41</ele>
  <time>2026-09-02T22:08:46Z</time>
  <course>22.71</course>
  <speed>0.99</speed>
  <fix>3d</fix>
</trkpt>
<trkpt lat="33.8104872" lon="-118.3955173">
  <ele>-25.016</ele>
  <time>2026-09-02T22:08:46Z</time>
  <course>113.02</course>
  <speed>1.016366075781753</speed>
  <fix>3d</fix>
</trkpt>
<trkpt lat="33.810486" lon="-118.3955181">
  <ele>-24.41</ele>
  <time>2026-09-02T22:08:46Z</time>
  <course>22.95</course>
  <speed>1.0</speed>
  <fix>3d</fix>
</trkpt>
<trkpt lat="33.8104881" lon="-118.3955169">
  <ele>-25.016</ele>
  <time>2026-09-02T22:08:46Z</time>
  <course>113.13</course>
  <speed>1.0204410811016968</speed>
  <fix>3d</fix>
</trkpt>
<trkpt lat="33.810486" lon="-118.3955181">
  <ele>-24.41</ele>
  <time>2026-09-02T22:08:46Z</time>
  <course>22.95</course>
  <speed>1.0</speed>
  <fix>3d</fix>
</trkpt>
<trkpt lat="33.8104889" lon="-118.3955164">
  <ele>-25.016</ele>
  <time>2026-09-02T22:08:46Z</time>
  <course>113.25</course>
  <speed>1.0204410811016968</speed>
  <fix>3d</fix>
</trkpt>
<trkpt lat="33.8104876" lon="-118.3955173">
  <ele>-24.41</ele>
  <time>2026-09-02T22:08:46Z</time>
  <course>23.19</course>
  <speed>1.0</speed>
  <fix>3d</fix>
</trkpt>
<trkpt lat="33.8104897" lon="-118.395516">
  <ele>-25.015</ele>
  <time>2026-09-02T22:08:46Z</time>
  <course>113.36</course>
  <speed>1.0204410811016968</speed>
  <fix>3d</fix>
</trkpt>
<trkpt lat="33.8104876" lon="-118.3955173">
  <ele>-24.41</ele>
  <time>2026-09-02T22:08:46Z</time>
  <course>23.19</course>
  <speed>1.0</speed>
  <fix>3d</fix>
</trkpt>
<trkpt lat="33.8104905" lon="-118.3955156">
  <ele>-25.013</ele>
  <time>2026-09-02T22:08:46Z</time>
  <course>113.48</course>
  <speed>1.0204410811016968</speed>
  <fix>3d</fix>
</trkpt>
<trkpt lat="33.8104893" lon="-118.3955164">
  <ele>-24.41</ele>
  <time>2026-09-02T22:08:46Z</time>
  <course>23.47</course>
  <speed>1.0</speed>
  <fix>3d</fix>
</trkpt>
<trkpt lat="33.8104914" lon="-118.3955152">
  <ele>-25.011</ele>
  <time>2026-09-02T22:08:46Z</time>
  <course>113.59</course>
  <speed>1.0204410811016968</speed>
  <fix>3d</fix>
</trkpt>
<trkpt lat="33.8104893" lon="-118.3955164">
  <ele>-24.41</ele>
  <time>2026-09-02T22:08:46Z</time>
  <course>23.47</course>
  <speed>1.0</speed>
  <fix>3d</fix>
</trkpt>
<trkpt lat="33.8104922" lon="-118.3955147">
  <ele>-25.012</ele>
  <time>2026-09-02T22:08:46Z</time>
  <course>113.7</course>
  <speed>1.0155294185792945</speed>
  <fix>3d</fix>
</trkpt>
<trkpt lat="33.810491" lon="-118.3955155">
  <ele>-24.41</ele>
  <time>2026-09-02T22:08:46Z</time>
  <course>23.76</course>
  <speed>1.0</speed>
  <fix>3d</fix>
</trkpt>
<trkpt lat="33.810493" lon="-118.3955143">
  <ele>-25.013</ele>
  <time>2026-09-02T22:08:46Z</time>
  <course>113.82</course>
  <speed>1.0155294185792945</speed>
  <fix>3d</fix>
</trkpt>
<trkpt lat="33.810491" lon="-118.3955155">
  <ele>-24.41</ele>
  <time>2026-09-02T22:08:46Z</time>
  <course>23.76</course>
  <speed>1.0</speed>
  <fix>3d</fix>
</trkpt>
<trkpt lat="33.8104938" lon="-118.3955138">
  <ele>-25.015</ele>
  <time>2026-09-02T22:08:46Z</time>
  <course>113.93</course>
  <speed>1.0155294185792945</speed>
  <fix>3d</fix>
</trkpt>
<trkpt lat="33.8104926" lon="-118.3955146">
  <ele>-24.41</ele>
  <time>2026-09-02T22:08:46Z</time>
  <course>24.0</course>
  <speed>1.0</speed>
  <fix>3d</fix>
</trkpt>
<trkpt lat="33.8104947" lon="-118.3955134">
  <ele>-25.016</ele>
  <time>2026-09-02T22:08:46Z</time>
  <course>114.04</course>
  <speed>1.0155294185792945</speed>
  <fix>3d</fix>
</trkpt>
<trkpt lat="33.8104926" lon="-118.3955146">
  <ele>-24.41</ele>
  <time>2026-09-02T22:08:46Z</time>
  <course>24.0</course>
  <speed>1.0</speed>
  <fix>3d</fix>
</trkpt>
<trkpt lat="33.8104955" lon="-118.3955129">
  <ele>-25.018</ele>
  <time>2026-09-02T22:08:46Z</time>
  <course>114.16</course>
  <speed>1.0155294185792945</speed>
  <fix>3d</fix>
</trkpt>
<trkpt lat="33.8104942" lon="-118.3955137">
  <ele>-24.41</ele>
  <time>2026-09-02T22:08:46Z</time>
  <course>24.22</course>
  <speed>1.0</speed>
  <fix>3d</fix>
</trkpt>
<trkpt lat="33.8104963" lon="-118.3955125">
  <ele>-25.018</ele>
  <time>2026-09-02T22:08:46Z</time>
  <course>114.28</course>
  <speed>1.0155294185792945</speed>
  <fix>3d</fix>
</trkpt>
<trkpt lat="33.8104942" lon="-118.3955137">
  <ele>-24.41</ele>
  <time>2026-09-02T22:08:46Z</time>
  <course>24.22</course>
  <speed>1.0</speed>
  <fix>3d</fix>
</trkpt>
<trkpt lat="33.8104971" lon="-118.395512">
  <ele>-25.018</ele>
  <time>2026-09-02T22:08:46Z</time>
  <course>114.39</course>
  <speed>1.0155294185792945</speed>
  <fix>3d</fix>
</trkpt>
<trkpt lat="33.8104959" lon="-118.3955129">
  <ele>-24.41</ele>
  <time>2026-09-02T22:08:46Z</time>
  <course>24.41</course>
  <speed>1.0</speed>
  <fix>3d</fix>
</trkpt>
<trkpt lat="33.8104979" lon="-118.3955116">
  <ele>-25.017</ele>
  <time>2026-09-02T22:08:46Z</time>
  <course>114.5</course>
  <speed>1.019803902718557</speed>
  <fix>3d</fix>
</trkpt>
<trkpt lat="33.8104959" lon="-118.3955129">
  <ele>-24.41</ele>
  <time>2026-09-02T22:08:46Z</time>
  <course>24.41</course>
  <speed>1.0</speed>
  <fix>3d</fix>
</trkpt>
<trkpt lat="33.8104987" lon="-118.3955111">
  <ele>-25.016</ele>
  <time>2026-09-02T22:08:46Z</time>
  <course>114.62</course>
  <speed>1.019803902718557</speed>
  <fix>3d</fix>
</trkpt>
<trkpt lat="33.8104974" lon="-118.395512">
  <ele>-24.4</ele>
  <time>2026-09-02T22:08:46Z</time>
  <course>24.61</course>
  <speed>1.0</speed>
  <fix>3d</fix>
</trkpt>
<trkpt lat="33.8104996" lon="-118.3955107">
  <ele>-25.015</ele>
  <time>2026-09-02T22:08:46Z</time>
  <course>114.73</course>
  <speed>1.019803902718557</speed>
  <fix>3d</fix>
</trkpt>
<trkpt lat="33.8104974" lon="-118.395512">
  <ele>-24.4</ele>
  <time>2026-09-02T22:08:46Z</time>
  <course>24.61</course>
  <speed>1.0</speed>
  <fix>3d</fix>
</trkpt>
<trkpt lat="33.8105004" lon="-118.3955102">
  <ele>-25.014</ele>
  <time>2026-09-02T22:08:46Z</time>
  <course>114.85</course>
  <speed>1.019803902718557</speed>
  <fix>3d</fix>
</trkpt>
<trkpt lat="33.8104991" lon="-118.3955111">
  <ele>-24.4</ele>
  <time>2026-09-02T22:08:46Z</time>
  <course>24.85</course>
  <speed>1.0</speed>
  <fix>3d</fix>
</trkpt>
<trkpt lat="33.8105012" lon="-118.3955098">
  <ele>-25.012</ele>
  <time>2026-09-02T22:08:46Z</time>
  <course>114.96</course>
  <speed>1.0241581909060729</speed>
  <fix>3d</fix>
</trkpt>
<trkpt lat="33.8104991" lon="-118.3955111">
  <ele>-24.4</ele>
  <time>2026-09-02T22:08:46Z</time>
  <course>24.85</course>
  <speed>1.0</speed>
  <fix>3d</fix>
</trkpt>
<trkpt lat="33.810502" lon="-118.3955093">
  <ele>-25.011</ele>
  <time>2026-09-02T22:08:46Z</time>
  <course>115.08</course>
  <speed>1.0241581909060729</speed>
  <fix>3d</fix>
</trkpt>
<trkpt lat="33.8105008" lon="-118.3955101">
  <ele>-24.4</ele>
  <time>2026-09-02T22:08:46Z</time>
  <course>25.1</course>
  <speed>1.0</speed>
  <fix>3d</fix>
</trkpt>
<trkpt lat="33.8105028" lon="-118.3955088">
  <ele>-25.009</ele>
  <time>2026-09-02T22:08:46Z</time>
  <course>115.19</course>
  <speed>1.0151847122568385</speed>
  <fix>3d</fix>
</trkpt>
<trkpt lat="33.8105008" lon="-118.3955101">
  <ele>-24.4</ele>
  <time>2026-09-02T22:08:46Z</time>
  <course>25.1</course>
  <speed>1.0</speed>
  <fix>3d</fix>
</trkpt>
<trkpt lat="33.8105036" lon="-118.3955084">
  <ele>-25.009</ele>
  <time>2026-09-02T22:08:46Z</time>
  <course>115.31</course>
  <speed>1.0151847122568385</speed>
  <fix>3d</fix>
</trkpt>
<trkpt lat="33.8105024" lon="-118.3955092">
  <ele>-24.4</ele>
  <time>2026-09-02T22:08:46Z</time>
  <course>25.33</course>
  <speed>1.0</speed>
  <fix>3d</fix>
</trkpt>
<trkpt lat="33.8105044" lon="-118.3955079">
  <ele>-25.009</ele>
  <time>2026-09-02T22:08:46Z</time>
  <course>115.42</course>
  <speed>1.0151847122568385</speed>
  <fix>3d</fix>
</trkpt>
<trkpt lat="33.8105024" lon="-118.3955092">
  <ele>-24.4</ele>
  <time>2026-09-02T22:08:46Z</time>
  <course>25.33</course>
  <speed>1.0</speed>
  <fix>3d</fix>
</trkpt>
<trkpt lat="33.8105052" lon="-118.3955074">
  <ele>-25.009</ele>
  <time>2026-09-02T22:08:46Z</time>
  <course>115.54</course>
  <speed>1.0151847122568385</speed>
  <fix>3d</fix>
</trkpt>
<trkpt lat="33.810504" lon="-118.3955083">
  <ele>-24.4</ele>
  <time>2026-09-02T22:08:46Z</time>
  <course>25.54</course>
  <speed>1.0</speed>
  <fix>3d</fix>
</trkpt>
<trkpt lat="33.8105061" lon="-118.395507">
  <ele>-25.009</ele>
  <time>2026-09-02T22:08:46Z</time>
  <course>115.65</course>
  <speed>1.0196568050084303</speed>
  <fix>3d</fix>
</trkpt>
<trkpt lat="33.810504" lon="-118.3955083">
  <ele>-24.4</ele>
  <time>2026-09-02T22:08:46Z</time>
  <course>25.54</course>
  <speed>1.0</speed>
  <fix>3d</fix>
</trkpt>
<trkpt lat="33.8105069" lon="-118.3955065">
  <ele>-25.008</ele>
  <time>2026-09-02T22:08:46Z</time>
  <course>115.76</course>
  <speed>1.0196568050084303</speed>
  <fix>3d</fix>
</trkpt>
<trkpt lat="33.8105056" lon="-118.3955074">
  <ele>-24.4</ele>
  <time>2026-09-02T22:08:46Z</time>
  <course>25.76</course>
  <speed>1.0</speed>
  <fix>3d</fix>
</trkpt>
<trkpt lat="33.8105077" lon="-118.395506">
  <ele>-25.008</ele>
  <time>2026-09-02T22:08:46Z</time>
  <course>115.88</course>
  <speed>1.0196568050084303</speed>
  <fix>3d</fix>
</trkpt>
<trkpt lat="33.8105056" lon="-118.3955074">
  <ele>-24.4</ele>
  <time>2026-09-02T22:08:46Z</time>
  <course>25.76</course>
  <speed>1.0</speed>
  <fix>3d</fix>
</trkpt>
<trkpt lat="33.8105085" lon="-118.3955055">
  <ele>-25.009</ele>
  <time>2026-09-02T22:08:46Z</time>
  <course>116.0</course>
  <speed>1.0196568050084303</speed>
  <fix>3d</fix>
</trkpt>
<trkpt lat="33.8105073" lon="-118.3955064">
  <ele>-24.4</ele>
  <time>2026-09-02T22:08:46Z</time>
  <course>26.0</course>
  <speed>1.0</speed>
  <fix>3d</fix>
</trkpt>
<trkpt lat="33.8105093" lon="-118.3955051">
  <ele>-25.011</ele>
  <time>2026-09-02T22:08:46Z</time>
  <course>116.11</course>
  <speed>1.0196568050084303</speed>
  <fix>3d</fix>
</trkpt>
<trkpt lat="33.8105073" lon="-118.3955064">
  <ele>-24.4</ele>
  <time>2026-09-02T22:08:46Z</time>
  <course>26.0</course>
  <speed>1.0</speed>
  <fix>3d</fix>
</trkpt>
<trkpt lat="33.8105101" lon="-118.3955046">
  <ele>-25.012</ele>
  <time>2026-09-02T22:08:46Z</time>
  <course>116.22</course>
  <speed>1.0107423014794623</speed>
  <fix>3d</fix>
</trkpt>
<trkpt lat="33.8105089" lon="-118.3955055">
  <ele>-24.4</ele>
  <time>2026-09-02T22:08:46Z</time>
  <course>26.25</course>
  <speed>1.0</speed>
  <fix>3d</fix>
</trkpt>
<trkpt lat="33.8105109" lon="-118.3955041">
  <ele>-25.014</ele>
  <time>2026-09-02T22:08:46Z</time>
  <course>116.34</course>
  <speed>1.015332457867865</speed>
  <fix>3d</fix>
</trkpt>
<trkpt lat="33.8105089" lon="-118.3955055">
  <ele>-24.4</ele>
  <time>2026-09-02T22:08:46Z</time>
  <course>26.25</course>
  <speed>1.0</speed>
  <fix>3d</fix>
</trkpt>
<trkpt lat="33.8105117" lon="-118.3955036">
  <ele>-25.015</ele>
  <time>2026-09-02T22:08:46Z</time>
  <course>116.45</course>
  <speed>1.015332457867865</speed>
  <fix>3d</fix>
</trkpt>
<trkpt lat="33.8105105" lon="-118.3955044">
  <ele>-24.41</ele>
  <time>2026-09-02T22:08:46Z</time>
  <course>26.51</course>
  <speed>1.0</speed>
  <fix>3d</fix>
</trkpt>
<trkpt lat="33.8105125" lon="-118.3955031">
  <ele>-25.015</ele>
  <time>2026-09-02T22:08:46Z</time>
  <course>116.57</course>
  <speed>1.015332457867865</speed>
  <fix>3d</fix>
</trkpt>
<trkpt lat="33.8105105" lon="-118.3955044">
  <ele>-24.41</ele>
  <time>2026-09-02T22:08:46Z</time>
  <course>26.51</course>
  <speed>1.0</speed>
  <fix>3d</fix>
</trkpt>
<trkpt lat="33.8105133" lon="-118.3955026">
  <ele>-25.014</ele>
  <time>2026-09-02T22:08:46Z</time>
  <course>116.68</course>
  <speed>1.015332457867865</speed>
  <fix>3d</fix>
</trkpt>
<trkpt lat="33.810512" lon="-118.3955035">
  <ele>-24.41</ele>
  <time>2026-09-02T22:08:46Z</time>
  <course>26.75</course>
  <speed>1.0</speed>
  <fix>3d</fix>
</trkpt>
<trkpt lat="33.8105141" lon="-118.3955021">
  <ele>-25.013</ele>
  <time>2026-09-02T22:08:46Z</time>
  <course>116.8</course>
  <speed>1.015332457867865</speed>
  <fix>3d</fix>
</trkpt>
<trkpt lat="33.810512" lon="-118.3955035">
  <ele>-24.41</ele>
  <time>2026-09-02T22:08:46Z</time>
  <course>26.75</course>
  <speed>1.0</speed>
  <fix>3d</fix>
</trkpt>
<trkpt lat="33.8105149" lon="-118.3955017">
  <ele>-25.014</ele>
  <time>2026-09-02T22:08:46Z</time>
  <course>116.91</course>
  <speed>1.015332457867865</speed>
  <fix>3d</fix>
</trkpt>
<trkpt lat="33.8105137" lon="-118.3955026">
  <ele>-24.41</ele>
  <time>2026-09-02T22:08:46Z</time>
  <course>26.91</course>
  <speed>1.0</speed>
  <fix>3d</fix>
</trkpt>
<trkpt lat="33.8105157" lon="-118.3955012">
  <ele>-25.014</ele>
  <time>2026-09-02T22:08:46Z</time>
  <course>117.02</course>
  <speed>1.02</speed>
  <fix>3d</fix>
</trkpt>
<trkpt lat="33.8105137" lon="-118.3955026">
  <ele>-24.41</ele>
  <time>2026-09-02T22:08:46Z</time>
  <course>26.91</course>
  <speed>1.0</speed>
  <fix>3d</fix>
</trkpt>
<trkpt lat="33.8105165" lon="-118.3955007">
  <ele>-25.015</ele>
  <time>2026-09-02T22:08:46Z</time>
  <course>117.14</course>
  <speed>1.02</speed>
  <fix>3d</fix>
</trkpt>
<trkpt lat="33.8105153" lon="-118.3955016">
  <ele>-24.41</ele>
  <time>2026-09-02T22:08:46Z</time>
  <course>27.1</course>
  <speed>1.0</speed>
  <fix>3d</fix>
</trkpt>
<trkpt lat="33.8105173" lon="-118.3955002">
  <ele>-25.015</ele>
  <time>2026-09-02T22:08:46Z</time>
  <course>117.25</course>
  <speed>1.02</speed>
  <fix>3d</fix>
</trkpt>
<trkpt lat="33.8105153" lon="-118.3955016">
  <ele>-24.41</ele>
  <time>2026-09-02T22:08:46Z</time>
  <course>27.1</course>
  <speed>1.0</speed>
  <fix>3d</fix>
</trkpt>
<trkpt lat="33.8105181" lon="-118.3954997">
  <ele>-25.014</ele>
  <time>2026-09-02T22:08:46Z</time>
  <course>117.37</course>
  <speed>1.02</speed>
  <fix>3d</fix>
</trkpt>
<trkpt lat="33.8105168" lon="-118.3955006">
  <ele>-24.41</ele>
  <time>2026-09-02T22:08:46Z</time>
  <course>27.37</course>
  <speed>1.0</speed>
  <fix>3d</fix>
</trkpt>
<trkpt lat="33.8105189" lon="-118.3954992">
  <ele>-25.013</ele>
  <time>2026-09-02T22:08:46Z</time>
  <course>117.48</course>
  <speed>1.0111874208078342</speed>
  <fix>3d</fix>
</trkpt>
<trkpt lat="33.8105168" lon="-118.3955006">
  <ele>-24.41</ele>
  <time>2026-09-02T22:08:46Z</time>
  <course>27.37</course>
  <speed>1.0</speed>
  <fix>3d</fix>
</trkpt>
<trkpt lat="33.8105197" lon="-118.3954987">
  <ele>-25.011</ele>
  <time>2026-09-02T22:08:46Z</time>
  <course>117.6</course>
  <speed>1.0159724405711013</speed>
  <fix>3d</fix>
</trkpt>
<trkpt lat="33.8105185" lon="-118.3954996">
  <ele>-24.41</ele>
  <time>2026-09-02T22:08:46Z</time>
  <course>27.62</course>
  <speed>1.0</speed>
  <fix>3d</fix>
</trkpt>
<trkpt lat="33.8105205" lon="-118.3954982">
  <ele>-25.011</ele>
  <time>2026-09-02T22:08:46Z</time>
  <course>117.72</course>
  <speed>1.0159724405711013</speed>
  <fix>3d</fix>
</trkpt>
<trkpt lat="33.8105185" lon="-118.3954996">
  <ele>-24.41</ele>
  <time>2026-09-02T22:08:46Z</time>
  <course>27.62</course>
  <speed>1.0</speed>
  <fix>3d</fix>
</trkpt>
<trkpt lat="33.8105213" lon="-118.3954977">
  <ele>-25.011</ele>
  <time>2026-09-02T22:08:46Z</time>
  <course>117.83</course>
  <speed>1.0159724405711013</speed>
  <fix>3d</fix>
</trkpt>
<trkpt lat="33.8105201" lon="-118.3954986">
  <ele>-24.41</ele>
  <time>2026-09-02T22:08:46Z</time>
  <course>27.86</course>
  <speed>1.0</speed>
  <fix>3d</fix>
</trkpt>
<trkpt lat="33.8105221" lon="-118.3954971">
  <ele>-25.013</ele>
  <time>2026-09-02T22:08:46Z</time>
  <course>117.95</course>
  <speed>1.0159724405711013</speed>
  <fix>3d</fix>
</trkpt>
<trkpt lat="33.8105201" lon="-118.3954986">
  <ele>-24.41</ele>
  <time>2026-09-02T22:08:46Z</time>
  <course>27.86</course>
  <speed>1.0</speed>
  <fix>3d</fix>
</trkpt>
<trkpt lat="33.8105229" lon="-118.3954966">
  <ele>-25.016</ele>
  <time>2026-09-02T22:08:46Z</time>
  <course>118.06</course>
  <speed>1.0159724405711013</speed>
  <fix>3d</fix>
</trkpt>
<trkpt lat="33.8105216" lon="-118.3954976">
  <ele>-24.41</ele>
  <time>2026-09-02T22:08:46Z</time>
  <course>28.1</course>
  <speed>1.0</speed>
  <fix>3d</fix>
</trkpt>
<trkpt lat="33.8105236" lon="-118.3954961">
  <ele>-25.018</ele>
  <time>2026-09-02T22:08:46Z</time>
  <course>118.17</course>
  <speed>1.0208329931972222</speed>
  <fix>3d</fix>
</trkpt>
<trkpt lat="33.8105216" lon="-118.3954976">
  <ele>-24.41</ele>
  <time>2026-09-02T22:08:46Z</time>
  <course>28.1</course>
  <speed>1.0</speed>
  <fix>3d</fix>
</trkpt>
<trkpt lat="33.8105244" lon="-118.3954956">
  <ele>-25.019</ele>
  <time>2026-09-02T22:08:46Z</time>
  <course>118.29</course>
  <speed>1.0208329931972222</speed>
  <fix>3d</fix>
</trkpt>
<trkpt lat="33.8105233" lon="-118.3954965">
  <ele>-24.41</ele>
  <time>2026-09-02T22:08:46Z</time>
  <course>28.35</course>
  <speed>1.0</speed>
  <fix>3d</fix>
</trkpt>
<trkpt lat="33.8105252" lon="-118.3954951">
  <ele>-25.019</ele>
  <time>2026-09-02T22:08:46Z</time>
  <course>118.4</course>
  <speed>1.0208329931972222</speed>
  <fix>3d</fix>
</trkpt>
<trkpt lat="33.8105233" lon="-118.3954965">
  <ele>-24.41</ele>
  <time>2026-09-02T22:08:46Z</time>
  <course>28.35</course>
  <speed>1.0</speed>
  <fix>3d</fix>
</trkpt>
<trkpt lat="33.810526" lon="-118.3954946">
  <ele>-25.017</ele>
  <time>2026-09-02T22:08:46Z</time>
  <course>118.51</course>
  <speed>1.0208329931972222</speed>
  <fix>3d</fix>
</trkpt>
<trkpt lat="33.8105249" lon="-118.3954955">
  <ele>-24.41</ele>
  <time>2026-09-02T22:08:46Z</time>
  <course>28.58</course>
  <speed>1.0</speed>
  <fix>3d</fix>
</trkpt>
<trkpt lat="33.8105268" lon="-118.3954941">
  <ele>-25.014</ele>
  <time>2026-09-02T22:08:46Z</time>
  <course>118.63</course>
  <speed>1.0257680049601858</speed>
  <fix>3d</fix>
</trkpt>
<trkpt lat="33.8105249" lon="-118.3954955">
  <ele>-24.41</ele>
  <time>2026-09-02T22:08:46Z</time>
  <course>28.58</course>
  <speed>1.0</speed>
  <fix>3d</fix>
</trkpt>
<trkpt lat="33.8105276" lon="-118.3954935">
  <ele>-25.012</ele>
  <time>2026-09-02T22:08:46Z</time>
  <course>118.74</course>
  <speed>1.0257680049601858</speed>
  <fix>3d</fix>
</trkpt>
<trkpt lat="33.8105264" lon="-118.3954944">
  <ele>-24.41</ele>
  <time>2026-09-02T22:08:46Z</time>
  <course>28.81</course>
  <speed>1.0</speed>
  <fix>3d</fix>
</trkpt>
<trkpt lat="33.8105284" lon="-118.395493">
  <ele>-25.012</ele>
  <time>2026-09-02T22:08:46Z</time>
  <course>118.86</course>
  <speed>1.0171037311896953</speed>
  <fix>3d</fix>
</trkpt>
<trkpt lat="33.8105264" lon="-118.3954944">
  <ele>-24.41</ele>
  <time>2026-09-02T22:08:46Z</time>
  <course>28.81</course>
  <speed>1.0</speed>
  <fix>3d</fix>
</trkpt>
<trkpt lat="33.8105292" lon="-118.3954925">
  <ele>-25.011</ele>
  <time>2026-09-02T22:08:46Z</time>
  <course>118.97</course>
  <speed>1.0171037311896953</speed>
  <fix>3d</fix>
</trkpt>
<trkpt lat="33.8105281" lon="-118.3954934">
  <ele>-24.4</ele>
  <time>2026-09-02T22:08:46Z</time>
  <course>29.0</course>
  <speed>1.0</speed>
  <fix>3d</fix>
</trkpt>
<trkpt lat="33.81053" lon="-118.3954919">
  <ele>-25.01</ele>
  <time>2026-09-02T22:08:46Z</time>
  <course>119.09</course>
  <speed>1.0171037311896953</speed>
  <fix>3d</fix>
</trkpt>
<trkpt lat="33.8105281" lon="-118.3954934">
  <ele>-24.4</ele>
  <time>2026-09-02T22:08:46Z</time>
  <course>29.0</course>
  <speed>1.0</speed>
  <fix>3d</fix>
</trkpt>
<trkpt lat="33.8105307" lon="-118.3954914">
  <ele>-25.009</ele>
  <time>2026-09-02T22:08:46Z</time>
  <course>119.2</course>
  <speed>1.0171037311896953</speed>
  <fix>3d</fix>
</trkpt>
<trkpt lat="33.8105296" lon="-118.3954923">
  <ele>-24.4</ele>
  <time>2026-09-02T22:08:46Z</time>
  <course>29.2</course>
  <speed>1.0</speed>
  <fix>3d</fix>
</trkpt>
<trkpt lat="33.8105315" lon="-118.3954909">
  <ele>-25.01</ele>
  <time>2026-09-02T22:08:46Z</time>
  <course>119.31</course>
  <speed>1.0171037311896953</speed>
  <fix>3d</fix>
</trkpt>
<trkpt lat="33.8105296" lon="-118.3954923">
  <ele>-24.4</ele>
  <time>2026-09-02T22:08:46Z</time>
  <course>29.2</course>
  <speed>1.0</speed>
  <fix>3d</fix>
</trkpt>
<trkpt lat="33.8105323" lon="-118.3954903">
  <ele>-25.012</ele>
  <time>2026-09-02T22:08:46Z</time>
  <course>119.43</course>
  <speed>1.0171037311896953</speed>
  <fix>3d</fix>
</trkpt>
<trkpt lat="33.8105312" lon="-118.3954913">
  <ele>-24.4</ele>
  <time>2026-09-02T22:08:46Z</time>
  <course>29.42</course>
  <speed>1.0</speed>
  <fix>3d</fix>
</trkpt>
<trkpt lat="33.8105331" lon="-118.3954898">
  <ele>-25.015</ele>
  <time>2026-09-02T22:08:46Z</time>
  <course>119.54</course>
  <speed>1.022154587134451</speed>
  <fix>3d</fix>
</trkpt>
<trkpt lat="33.8105312" lon="-118.3954913">
  <ele>-24.4</ele>
  <time>2026-09-02T22:08:46Z</time>
  <course>29.42</course>
  <speed>1.0</speed>
  <fix>3d</fix>
</trkpt>
<trkpt lat="33.8105339" lon="-118.3954893">
  <ele>-25.016</ele>
  <time>2026-09-02T22:08:46Z</time>
  <course>119.66</course>
  <speed>1.0135580891098448</speed>
  <fix>3d</fix>
</trkpt>
<trkpt lat="33.8105328" lon="-118.3954902">
  <ele>-24.41</ele>
  <time>2026-09-02T22:08:46Z</time>
  <course>29.64</course>
  <speed>1.0</speed>
  <fix>3d</fix>
</trkpt>
<trkpt lat="33.8105346" lon="-118.3954887">
  <ele>-25.016</ele>
  <time>2026-09-02T22:08:46Z</time>
  <course>119.78</course>
  <speed>1.0135580891098448</speed>
  <fix>3d</fix>
</trkpt>
<trkpt lat="33.8105328" lon="-118.3954902">
  <ele>-24.41</ele>
  <time>2026-09-02T22:08:46Z</time>
  <course>29.64</course>
  <speed>1.0</speed>
  <fix>3d</fix>
</trkpt>
<trkpt lat="33.8105354" lon="-118.3954882">
  <ele>-25.016</ele>
  <time>2026-09-02T22:08:46Z</time>
  <course>119.89</course>
  <speed>1.0135580891098448</speed>
  <fix>3d</fix>
</trkpt>
<trkpt lat="33.8105343" lon="-118.3954891">
  <ele>-24.41</ele>
  <time>2026-09-02T22:08:46Z</time>
  <course>29.9</course>
  <speed>1.0</speed>
  <fix>3d</fix>
</trkpt>
<trkpt lat="33.8105362" lon="-118.3954876">
  <ele>-25.014</ele>
  <time>2026-09-02T22:08:46Z</time>
  <course>120.01</course>
  <speed>1.0135580891098448</speed>
  <fix>3d</fix>
</trkpt>
<trkpt lat="33.8105343" lon="-118.3954891">
  <ele>-24.41</ele>
  <time>2026-09-02T22:08:46Z</time>
  <course>29.9</course>
  <speed>1.0</speed>
  <fix>3d</fix>
</trkpt>
<trkpt lat="33.810537" lon="-118.3954871">
  <ele>-25.011</ele>
  <time>2026-09-02T22:08:46Z</time>
  <course>120.12</course>
  <speed>1.0187246929372038</speed>
  <fix>3d</fix>
</trkpt>
<trkpt lat="33.8105359" lon="-118.395488">
  <ele>-24.41</ele>
  <time>2026-09-02T22:08:46Z</time>
  <course>30.13</course>
  <speed>1.0</speed>
  <fix>3d</fix>
</trkpt>
<trkpt lat="33.8105378" lon="-118.3954865">
  <ele>-25.011</ele>
  <time>2026-09-02T22:08:46Z</time>
  <course>120.24</course>
  <speed>1.0187246929372038</speed>
  <fix>3d</fix>
</trkpt>
<trkpt lat="33.8105359" lon="-118.395488">
  <ele>-24.41</ele>
  <time>2026-09-02T22:08:46Z</time>
  <course>30.13</course>
  <speed>1.0</speed>
  <fix>3d</fix>
</trkpt>
<trkpt lat="33.8105385" lon="-118.395486">
  <ele>-25.011</ele>
  <time>2026-09-02T22:08:46Z</time>
  <course>120.35</course>
  <speed>1.0187246929372038</speed>
  <fix>3d</fix>
</trkpt>
<trkpt lat="33.8105374" lon="-118.3954869">
  <ele>-24.41</ele>
  <time>2026-09-02T22:08:46Z</time>
  <course>30.34</course>
  <speed>1.0</speed>
  <fix>3d</fix>
</trkpt>
<trkpt lat="33.8105393" lon="-118.3954854">
  <ele>-25.01</ele>
  <time>2026-09-02T22:08:46Z</time>
  <course>120.47</course>
  <speed>1.0187246929372038</speed>
  <fix>3d</fix>
</trkpt>
<trkpt lat="33.8105374" lon="-118.3954869">
  <ele>-24.41</ele>
  <time>2026-09-02T22:08:46Z</time>
  <course>30.34</course>
  <speed>1.0</speed>
  <fix>3d</fix>
</trkpt>
<trkpt lat="33.8105401" lon="-118.3954849">
  <ele>-25.011</ele>
  <time>2026-09-02T22:08:46Z</time>
  <course>120.58</course>
  <speed>1.0187246929372038</speed>
  <fix>3d</fix>
</trkpt>
<trkpt lat="33.810539" lon="-118.3954858">
  <ele>-24.41</ele>
  <time>2026-09-02T22:08:46Z</time>
  <course>30.53</course>
  <speed>1.0</speed>
  <fix>3d</fix>
</trkpt>
<trkpt lat="33.8105409" lon="-118.3954843">
  <ele>-25.013</ele>
  <time>2026-09-02T22:08:46Z</time>
  <course>120.7</course>
  <speed>1.010198000393982</speed>
  <fix>3d</fix>
</trkpt>
<trkpt lat="33.810539" lon="-118.3954858">
  <ele>-24.41</ele>
  <time>2026-09-02T22:08:46Z</time>
  <course>30.53</course>
  <speed>1.0</speed>
  <fix>3d</fix>
</trkpt>
<trkpt lat="33.8105416" lon="-118.3954838">
  <ele>-25.014</ele>
  <time>2026-09-02T22:08:46Z</time>
  <course>120.81</course>
  <speed>1.010198000393982</speed>
  <fix>3d</fix>
</trkpt>
<trkpt lat="33.8105405" lon="-118.3954847">
  <ele>-24.41</ele>
  <time>2026-09-02T22:08:46Z</time>
  <course>30.71</course>
  <speed>1.0</speed>
  <fix>3d</fix>
</trkpt>
<trkpt lat="33.8105424" lon="-118.3954832">
  <ele>-25.016</ele>
  <time>2026-09-02T22:08:46Z</time>
  <course>120.93</course>
  <speed>1.0154801819828883</speed>
  <fix>3d</fix>
</trkpt>
<trkpt lat="33.8105405" lon="-118.3954847">
  <ele>-24.41</ele>
  <time>2026-09-02T22:08:46Z</time>
  <course>30.71</course>
  <speed>1.0</speed>
  <fix>3d</fix>
</trkpt>
<trkpt lat="33.8105432" lon="-118.3954827">
  <ele>-25.016</ele>
  <time>2026-09-02T22:08:46Z</time>
  <course>121.04</course>
  <speed>1.0154801819828883</speed>
  <fix>3d</fix>
</trkpt>
<trkpt lat="33.8105421" lon="-118.3954836">
  <ele>-24.41</ele>
  <time>2026-09-02T22:08:46Z</time>
  <course>30.91</course>
  <speed>1.0</speed>
  <fix>3d</fix>
</trkpt>
<trkpt lat="33.8105439" lon="-118.3954821">
  <ele>-25.015</ele>
  <time>2026-09-02T22:08:46Z</time>
  <course>121.15</course>
  <speed>1.0154801819828883</speed>
  <fix>3d</fix>
</trkpt>
<trkpt lat="33.8105421" lon="-118.3954836">
  <ele>-24.41</ele>
  <time>2026-09-02T22:08:46Z</time>
  <course>30.91</course>
  <speed>1.0</speed>
  <fix>3d</fix>
</trkpt>
<trkpt lat="33.8105447" lon="-118.3954815">
  <ele>-25.015</ele>
  <time>2026-09-02T22:08:46Z</time>
  <course>121.27</course>
  <speed>1.0154801819828883</speed>
  <fix>3d</fix>
</trkpt>
<trkpt lat="33.8105436" lon="-118.3954825">
  <ele>-24.41</ele>
  <time>2026-09-02T22:08:46Z</time>
  <course>31.12</course>
  <speed>1.0</speed>
  <fix>3d</fix>
</trkpt>
<trkpt lat="33.8105455" lon="-118.395481">
  <ele>-25.015</ele>
  <time>2026-09-02T22:08:46Z</time>
  <course>121.38</course>
  <speed>1.0154801819828883</speed>
  <fix>3d</fix>
</trkpt>
<trkpt lat="33.8105436" lon="-118.3954825">
  <ele>-24.41</ele>
  <time>2026-09-02T22:08:46Z</time>
  <course>31.12</course>
  <speed>1.0</speed>
  <fix>3d</fix>
</trkpt>
<trkpt lat="33.8105462" lon="-118.3954804">
  <ele>-25.014</ele>
  <time>2026-09-02T22:08:46Z</time>
  <course>121.5</course>
  <speed>1.0154801819828883</speed>
  <fix>3d</fix>
</trkpt>
<trkpt lat="33.8105452" lon="-118.3954814">
  <ele>-24.41</ele>
  <time>2026-09-02T22:08:46Z</time>
  <course>31.35</course>
  <speed>1.0</speed>
  <fix>3d</fix>
</trkpt>
<trkpt lat="33.810547" lon="-118.3954798">
  <ele>-25.014</ele>
  <time>2026-09-02T22:08:46Z</time>
  <course>121.61</course>
  <speed>1.0124228365658294</speed>
  <fix>3d</fix>
</trkpt>
<trkpt lat="33.8105452" lon="-118.3954814">
  <ele>-24.41</ele>
  <time>2026-09-02T22:08:46Z</time>
  <course>31.35</course>
  <speed>1.0</speed>
  <fix>3d</fix>
</trkpt>
<trkpt lat="33.8105478" lon="-118.3954793">
  <ele>-25.015</ele>
  <time>2026-09-02T22:08:46Z</time>
  <course>121.72</course>
  <speed>1.0124228365658294</speed>
  <fix>3d</fix>
</trkpt>
<trkpt lat="33.8105467" lon="-118.3954802">
  <ele>-24.41</ele>
  <time>2026-09-02T22:08:46Z</time>
  <course>31.61</course>
  <speed>1.0</speed>
  <fix>3d</fix>
</trkpt>
<trkpt lat="33.8105485" lon="-118.3954787">
  <ele>-25.015</ele>
  <time>2026-09-02T22:08:46Z</time>
  <course>121.84</course>
  <speed>1.0124228365658294</speed>
  <fix>3d</fix>
</trkpt>
<trkpt lat="33.8105467" lon="-118.3954802">
  <ele>-24.41</ele>
  <time>2026-09-02T22:08:46Z</time>
  <course>31.61</course>
  <speed>1.0</speed>
  <fix>3d</fix>
</trkpt>
<trkpt lat="33.8105493" lon="-118.3954781">
  <ele>-25.015</ele>
  <time>2026-09-02T22:08:46Z</time>
  <course>121.95</course>
  <speed>1.0124228365658294</speed>
  <fix>3d</fix>
</trkpt>
<trkpt lat="33.8105482" lon="-118.3954791">
  <ele>-24.41</ele>
  <time>2026-09-02T22:08:46Z</time>
  <course>31.89</course>
  <speed>1.0</speed>
  <fix>3d</fix>
</trkpt>
<trkpt lat="33.8105501" lon="-118.3954775">
  <ele>-25.014</ele>
  <time>2026-09-02T22:08:46Z</time>
  <course>122.07</course>
  <speed>1.0124228365658294</speed>
  <fix>3d</fix>
</trkpt>
<trkpt lat="33.8105482" lon="-118.3954791">
  <ele>-24.41</ele>
  <time>2026-09-02T22:08:46Z</time>
  <course>31.89</course>
  <speed>1.0</speed>
  <fix>3d</fix>
</trkpt>
<trkpt lat="33.8105508" lon="-118.395477">
  <ele>-25.015</ele>
  <time>2026-09-02T22:08:46Z</time>
  <course>122.18</course>
  <speed>1.0178899744078433</speed>
  <fix>3d</fix>
</trkpt>
<trkpt lat="33.8105498" lon="-118.3954779">
  <ele>-24.41</ele>
  <time>2026-09-02T22:08:46Z</time>
  <course>32.13</course>
  <speed>1.0</speed>
  <fix>3d</fix>
</trkpt>
<trkpt lat="33.8105516" lon="-118.3954764">
  <ele>-25.015</ele>
  <time>2026-09-02T22:08:46Z</time>
  <course>122.3</course>
  <speed>1.0178899744078433</speed>
  <fix>3d</fix>
</trkpt>
<trkpt lat="33.8105498" lon="-118.3954779">
  <ele>-24.41</ele>
  <time>2026-09-02T22:08:46Z</time>
  <course>32.13</course>
  <speed>1.0</speed>
  <fix>3d</fix>
</trkpt>
<trkpt lat="33.8105523" lon="-118.3954758">
  <ele>-25.016</ele>
  <time>2026-09-02T22:08:46Z</time>
  <course>122.41</course>
  <speed>1.0178899744078433</speed>
  <fix>3d</fix>
</trkpt>
<trkpt lat="33.8105513" lon="-118.3954767">
  <ele>-24.41</ele>
  <time>2026-09-02T22:08:46Z</time>
  <course>32.36</course>
  <speed>1.0</speed>
  <fix>3d</fix>
</trkpt>
<trkpt lat="33.8105531" lon="-118.3954752">
  <ele>-25.014</ele>
  <time>2026-09-02T22:08:46Z</time>
  <course>122.53</course>
  <speed>1.009554357129917</speed>
  <fix>3d</fix>
</trkpt>
<trkpt lat="33.8105513" lon="-118.3954767">
  <ele>-24.41</ele>
  <time>2026-09-02T22:08:46Z</time>
  <course>32.36</course>
  <speed>1.0</speed>
  <fix>3d</fix>
</trkpt>
<trkpt lat="33.8105539" lon="-118.3954746">
  <ele>-25.013</ele>
  <time>2026-09-02T22:08:46Z</time>
  <course>122.64</course>
  <speed>1.009554357129917</speed>
  <fix>3d</fix>
</trkpt>
<trkpt lat="33.8105528" lon="-118.3954756">
  <ele>-24.4</ele>
  <time>2026-09-02T22:08:46Z</time>
  <course>32.57</course>
  <speed>1.0</speed>
  <fix>3d</fix>
</trkpt>
<trkpt lat="33.8105546" lon="-118.395474">
  <ele>-25.013</ele>
  <time>2026-09-02T22:08:46Z</time>
  <course>122.76</course>
  <speed>1.009554357129917</speed>
  <fix>3d</fix>
</trkpt>
<trkpt lat="33.8105528" lon="-118.3954756">
  <ele>-24.4</ele>
  <time>2026-09-02T22:08:46Z</time>
  <course>32.57</course>
  <speed>1.0</speed>
  <fix>3d</fix>
</trkpt>
<trkpt lat="33.8105554" lon="-118.3954734">
  <ele>-25.012</ele>
  <time>2026-09-02T22:08:46Z</time>
  <course>122.87</course>
  <speed>1.009554357129917</speed>
  <fix>3d</fix>
</trkpt>
<trkpt lat="33.8105543" lon="-118.3954745">
  <ele>-24.4</ele>
  <time>2026-09-02T22:08:46Z</time>
  <course>32.77</course>
  <speed>0.99</speed>
  <fix>3d</fix>
</trkpt>
<trkpt lat="33.8105561" lon="-118.3954728">
  <ele>-25.012</ele>
  <time>2026-09-02T22:08:46Z</time>
  <course>122.98</course>
  <speed>1.0151354589413177</speed>
  <fix>3d</fix>
</trkpt>
<trkpt lat="33.8105543" lon="-118.3954745">
  <ele>-24.4</ele>
  <time>2026-09-02T22:08:46Z</time>
  <course>32.77</course>
  <speed>0.99</speed>
  <fix>3d</fix>
</trkpt>
<trkpt lat="33.8105569" lon="-118.3954723">
  <ele>-25.011</ele>
  <time>2026-09-02T22:08:46Z</time>
  <course>123.1</course>
  <speed>1.0151354589413177</speed>
  <fix>3d</fix>
</trkpt>
<trkpt lat="33.8105558" lon="-118.3954733">
  <ele>-24.4</ele>
  <time>2026-09-02T22:08:46Z</time>
  <course>33.03</course>
  <speed>0.99</speed>
  <fix>3d</fix>
</trkpt>
<trkpt lat="33.8105576" lon="-118.3954717">
  <ele>-25.011</ele>
  <time>2026-09-02T22:08:46Z</time>
  <course>123.22</course>
  <speed>1.0151354589413177</speed>
  <fix>3d</fix>
</trkpt>
<trkpt lat="33.8105558" lon="-118.3954733">
  <ele>-24.4</ele>
  <time>2026-09-02T22:08:46Z</time>
  <course>33.03</course>
  <speed>0.99</speed>
  <fix>3d</fix>
</trkpt>
<trkpt lat="33.8105584" lon="-118.3954711">
  <ele>-25.011</ele>
  <time>2026-09-02T22:08:46Z</time>
  <course>123.33</course>
  <speed>1.0151354589413177</speed>
  <fix>3d</fix>
</trkpt>
<trkpt lat="33.8105573" lon="-118.3954721">
  <ele>-24.4</ele>
  <time>2026-09-02T22:08:46Z</time>
  <course>33.32</course>
  <speed>1.0</speed>
  <fix>3d</fix>
</trkpt>
<trkpt lat="33.8105591" lon="-118.3954705">
  <ele>-25.012</ele>
  <time>2026-09-02T22:08:46Z</time>
  <course>123.44</course>
  <speed>1.0207840124139878</speed>
  <fix>3d</fix>
</trkpt>
<trkpt lat="33.8105573" lon="-118.3954721">
  <ele>-24.4</ele>
  <time>2026-09-02T22:08:46Z</time>
  <course>33.32</course>
  <speed>1.0</speed>
  <fix>3d</fix>
</trkpt>
<trkpt lat="33.8105599" lon="-118.3954699">
  <ele>-25.011</ele>
  <time>2026-09-02T22:08:47Z</time>
  <course>123.56</course>
  <speed>1.0125709851659783</speed>
  <fix>3d</fix>
</trkpt>
<trkpt lat="33.8105588" lon="-118.3954709">
  <ele>-24.4</ele>
  <time>2026-09-02T22:08:47Z</time>
  <course>33.59</course>
  <speed>1.0</speed>
  <fix>3d</fix>
</trkpt>
<trkpt lat="33.8105606" lon="-118.3954693">
  <ele>-25.011</ele>
  <time>2026-09-02T22:08:47Z</time>
  <course>123.67</course>
  <speed>1.0125709851659783</speed>
  <fix>3d</fix>
</trkpt>
<trkpt lat="33.8105588" lon="-118.3954709">
  <ele>-24.4</ele>
  <time>2026-09-02T22:08:47Z</time>
  <course>33.59</course>
  <speed>1.0</speed>
  <fix>3d</fix>
</trkpt>
<trkpt lat="33.8105613" lon="-118.3954687">
  <ele>-25.011</ele>
  <time>2026-09-02T22:08:47Z</time>
  <course>123.79</course>
  <speed>1.0125709851659783</speed>
  <fix>3d</fix>
</trkpt>
<trkpt lat="33.8105603" lon="-118.3954697">
  <ele>-24.4</ele>
  <time>2026-09-02T22:08:47Z</time>
  <course>33.84</course>
  <speed>1.0</speed>
  <fix>3d</fix>
</trkpt>
<trkpt lat="33.8105621" lon="-118.3954681">
  <ele>-25.01</ele>
  <time>2026-09-02T22:08:47Z</time>
  <course>123.9</course>
  <speed>1.0125709851659783</speed>
  <fix>3d</fix>
</trkpt>
<trkpt lat="33.8105603" lon="-118.3954697">
  <ele>-24.4</ele>
  <time>2026-09-02T22:08:47Z</time>
  <course>33.84</course>
  <speed>1.0</speed>
  <fix>3d</fix>
</trkpt>
<trkpt lat="33.8105628" lon="-118.3954675">
  <ele>-25.009</ele>
  <time>2026-09-02T22:08:47Z</time>
  <course>124.02</course>
  <speed>1.0125709851659783</speed>
  <fix>3d</fix>
</trkpt>
<trkpt lat="33.8105618" lon="-118.3954685">
  <ele>-24.4</ele>
  <time>2026-09-02T22:08:47Z</time>
  <course>34.05</course>
  <speed>1.0</speed>
  <fix>3d</fix>
</trkpt>
<trkpt lat="33.8105636" lon="-118.3954668">
  <ele>-25.01</ele>
  <time>2026-09-02T22:08:47Z</time>
  <course>124.13</course>
  <speed>1.0183319694480775</speed>
  <fix>3d</fix>
</trkpt>
<trkpt lat="33.8105618" lon="-118.3954685">
  <ele>-24.4</ele>
  <time>2026-09-02T22:08:47Z</time>
  <course>34.05</course>
  <speed>1.0</speed>
  <fix>3d</fix>
</trkpt>
<trkpt lat="33.8105643" lon="-118.3954662">
  <ele>-25.011</ele>
  <time>2026-09-02T22:08:47Z</time>
  <course>124.24</course>
  <speed>1.0183319694480775</speed>
  <fix>3d</fix>
</trkpt>
<trkpt lat="33.8105633" lon="-118.3954673">
  <ele>-24.4</ele>
  <time>2026-09-02T22:08:47Z</time>
  <course>34.27</course>
  <speed>1.0</speed>
  <fix>3d</fix>
</trkpt>
<trkpt lat="33.8105651" lon="-118.3954656">
  <ele>-25.011</ele>
  <time>2026-09-02T22:08:47Z</time>
  <course>124.36</course>
  <speed>1.0183319694480775</speed>
  <fix>3d</fix>
</trkpt>
<trkpt lat="33.8105633" lon="-118.3954673">
  <ele>-24.4</ele>
  <time>2026-09-02T22:08:47Z</time>
  <course>34.27</course>
  <speed>1.0</speed>
  <fix>3d</fix>
</trkpt>
<trkpt lat="33.8105658" lon="-118.395465">
  <ele>-25.011</ele>
  <time>2026-09-02T22:08:47Z</time>
  <course>124.48</course>
  <speed>1.010198000393982</speed>
  <fix>3d</fix>
</trkpt>
<trkpt lat="33.8105648" lon="-118.3954661">
  <ele>-24.41</ele>
  <time>2026-09-02T22:08:47Z</time>
  <course>34.53</course>
  <speed>1.0</speed>
  <fix>3d</fix>
</trkpt>
<trkpt lat="33.8105665" lon="-118.3954644">
  <ele>-25.011</ele>
  <time>2026-09-02T22:08:47Z</time>
  <course>124.59</course>
  <speed>1.010198000393982</speed>
  <fix>3d</fix>
</trkpt>
<trkpt lat="33.8105648" lon="-118.3954661">
  <ele>-24.41</ele>
  <time>2026-09-02T22:08:47Z</time>
  <course>34.53</course>
  <speed>1.0</speed>
  <fix>3d</fix>
</trkpt>
<trkpt lat="33.8105673" lon="-118.3954638">
  <ele>-25.01</ele>
  <time>2026-09-02T22:08:47Z</time>
  <course>124.71</course>
  <speed>1.010198000393982</speed>
  <fix>3d</fix>
</trkpt>
<trkpt lat="33.8105663" lon="-118.3954648">
  <ele>-24.41</ele>
  <time>2026-09-02T22:08:47Z</time>
  <course>34.81</course>
  <speed>1.0</speed>
  <fix>3d</fix>
</trkpt>
<trkpt lat="33.810568" lon="-118.3954632">
  <ele>-25.009</ele>
  <time>2026-09-02T22:08:47Z</time>
  <course>124.82</course>
  <speed>1.016070863670443</speed>
  <fix>3d</fix>
</trkpt>
<trkpt lat="33.8105663" lon="-118.3954648">
  <ele>-24.41</ele>
  <time>2026-09-02T22:08:47Z</time>
  <course>34.81</course>
  <speed>1.0</speed>
  <fix>3d</fix>
</trkpt>
<trkpt lat="33.8105688" lon="-118.3954625">
  <ele>-25.01</ele>
  <time>2026-09-02T22:08:47Z</time>
  <course>124.93</course>
  <speed>1.016070863670443</speed>
  <fix>3d</fix>
</trkpt>
<trkpt lat="33.8105678" lon="-118.3954636">
  <ele>-24.41</ele>
  <time>2026-09-02T22:08:47Z</time>
  <course>35.08</course>
  <speed>1.0</speed>
  <fix>3d</fix>
</trkpt>
<trkpt lat="33.8105695" lon="-118.3954619">
  <ele>-25.013</ele>
  <time>2026-09-02T22:08:47Z</time>
  <course>125.05</course>
  <speed>1.016070863670443</speed>
  <fix>3d</fix>
</trkpt>
<trkpt lat="33.8105678" lon="-118.3954636">
  <ele>-24.41</ele>
  <time>2026-09-02T22:08:47Z</time>
  <course>35.08</course>
  <speed>1.0</speed>
  <fix>3d</fix>
</trkpt>
<trkpt lat="33.8105702" lon="-118.3954613">
  <ele>-25.016</ele>
  <time>2026-09-02T22:08:47Z</time>
  <course>125.16</course>
  <speed>1.016070863670443</speed>
  <fix>3d</fix>
</trkpt>
<trkpt lat="33.8105693" lon="-118.3954623">
  <ele>-24.41</ele>
  <time>2026-09-02T22:08:47Z</time>
  <course>35.33</course>
  <speed>1.0</speed>
  <fix>3d</fix>
</trkpt>
<trkpt lat="33.810571" lon="-118.3954606">
  <ele>-25.018</ele>
  <time>2026-09-02T22:08:47Z</time>
  <course>125.28</course>
  <speed>1.0080178569846865</speed>
  <fix>3d</fix>
</trkpt>
<trkpt lat="33.8105693" lon="-118.3954623">
  <ele>-24.41</ele>
  <time>2026-09-02T22:08:47Z</time>
  <course>35.33</course>
  <speed>1.0</speed>
  <fix>3d</fix>
</trkpt>
<trkpt lat="33.8105717" lon="-118.39546">
  <ele>-25.019</ele>
  <time>2026-09-02T22:08:47Z</time>
  <course>125.39</course>
  <speed>1.0080178569846865</speed>
  <fix>3d</fix>
</trkpt>
<trkpt lat="33.8105707" lon="-118.3954611">
  <ele>-24.42</ele>
  <time>2026-09-02T22:08:47Z</time>
  <course>35.6</course>
  <speed>0.99</speed>
  <fix>3d</fix>
</trkpt>
<trkpt lat="33.8105724" lon="-118.3954594">
  <ele>-25.02</ele>
  <time>2026-09-02T22:08:47Z</time>
  <course>125.51</course>
  <speed>1.0140019723846694</speed>
  <fix>3d</fix>
</trkpt>
<trkpt lat="33.8105707" lon="-118.3954611">
  <ele>-24.42</ele>
  <time>2026-09-02T22:08:47Z</time>
  <course>35.6</course>
  <speed>0.99</speed>
  <fix>3d</fix>
</trkpt>
<trkpt lat="33.8105732" lon="-118.3954587">
  <ele>-25.02</ele>
  <time>2026-09-02T22:08:47Z</time>
  <course>125.62</course>
  <speed>1.0140019723846694</speed>
  <fix>3d</fix>
</trkpt>
<trkpt lat="33.8105721" lon="-118.3954598">
  <ele>-24.42</ele>
  <time>2026-09-02T22:08:47Z</time>
  <course>35.86</course>
  <speed>0.99</speed>
  <fix>3d</fix>
</trkpt>
<trkpt lat="33.8105739" lon="-118.3954581">
  <ele>-25.02</ele>
  <time>2026-09-02T22:08:47Z</time>
  <course>125.73</course>
  <speed>1.0140019723846694</speed>
  <fix>3d</fix>
</trkpt>
<trkpt lat="33.8105721" lon="-118.3954598">
  <ele>-24.42</ele>
  <time>2026-09-02T22:08:47Z</time>
  <course>35.86</course>
  <speed>0.99</speed>
  <fix>3d</fix>
</trkpt>
<trkpt lat="33.8105746" lon="-118.3954575">
  <ele>-25.019</ele>
  <time>2026-09-02T22:08:47Z</time>
  <course>125.85</course>
  <speed>1.0140019723846694</speed>
  <fix>3d</fix>
</trkpt>
<trkpt lat="33.8105736" lon="-118.3954585">
  <ele>-24.42</ele>
  <time>2026-09-02T22:08:47Z</time>
  <course>36.05</course>
  <speed>0.99</speed>
  <fix>3d</fix>
</trkpt>
<trkpt lat="33.8105753" lon="-118.3954568">
  <ele>-25.018</ele>
  <time>2026-09-02T22:08:47Z</time>
  <course>125.96</course>
  <speed>1.0140019723846694</speed>
  <fix>3d</fix>
</trkpt>
<trkpt lat="33.8105736" lon="-118.3954585">
  <ele>-24.42</ele>
  <time>2026-09-02T22:08:47Z</time>
  <course>36.05</course>
  <speed>0.99</speed>
  <fix>3d</fix>
</trkpt>
<trkpt lat="33.8105761" lon="-118.3954562">
  <ele>-25.016</ele>
  <time>2026-09-02T22:08:47Z</time>
  <course>126.08</course>
  <speed>1.0140019723846694</speed>
  <fix>3d</fix>
</trkpt>
<trkpt lat="33.810575" lon="-118.3954573">
  <ele>-24.41</ele>
  <time>2026-09-02T22:08:47Z</time>
  <course>36.2</course>
  <speed>0.99</speed>
  <fix>3d</fix>
</trkpt>
<trkpt lat="33.8105768" lon="-118.3954555">
  <ele>-25.016</ele>
  <time>2026-09-02T22:08:47Z</time>
  <course>126.19</course>
  <speed>1.0140019723846694</speed>
  <fix>3d</fix>
</trkpt>
<trkpt lat="33.810575" lon="-118.3954573">
  <ele>-24.41</ele>
  <time>2026-09-02T22:08:47Z</time>
  <course>36.2</course>
  <speed>0.99</speed>
  <fix>3d</fix>
</trkpt>
<trkpt lat="33.8105775" lon="-118.3954549">
  <ele>-25.016</ele>
  <time>2026-09-02T22:08:47Z</time>
  <course>126.31</course>
  <speed>1.0140019723846694</speed>
  <fix>3d</fix>
</trkpt>
<trkpt lat="33.8105765" lon="-118.395456">
  <ele>-24.41</ele>
  <time>2026-09-02T22:08:47Z</time>
  <course>36.36</course>
  <speed>0.99</speed>
  <fix>3d</fix>
</trkpt>
<trkpt lat="33.8105782" lon="-118.3954543">
  <ele>-25.017</ele>
  <time>2026-09-02T22:08:47Z</time>
  <course>126.42</course>
  <speed>1.0121264743103995</speed>
  <fix>3d</fix>
</trkpt>
<trkpt lat="33.8105765" lon="-118.395456">
  <ele>-24.41</ele>
  <time>2026-09-02T22:08:47Z</time>
  <course>36.36</course>
  <speed>0.99</speed>
  <fix>3d</fix>
</trkpt>
<trkpt lat="33.8105789" lon="-118.3954536">
  <ele>-25.017</ele>
  <time>2026-09-02T22:08:47Z</time>
  <course>126.54</course>
  <speed>1.0121264743103995</speed>
  <fix>3d</fix>
</trkpt>
<trkpt lat="33.810578" lon="-118.3954547">
  <ele>-24.41</ele>
  <time>2026-09-02T22:08:47Z</time>
  <course>36.55</course>
  <speed>0.99</speed>
  <fix>3d</fix>
</trkpt>
<trkpt lat="33.8105797" lon="-118.395453">
  <ele>-25.018</ele>
  <time>2026-09-02T22:08:47Z</time>
  <course>126.65</course>
  <speed>1.0121264743103995</speed>
  <fix>3d</fix>
</trkpt>
<trkpt lat="33.810578" lon="-118.3954547">
  <ele>-24.41</ele>
  <time>2026-09-02T22:08:47Z</time>
  <course>36.55</course>
  <speed>0.99</speed>
  <fix>3d</fix>
</trkpt>
<trkpt lat="33.8105804" lon="-118.3954523">
  <ele>-25.017</ele>
  <time>2026-09-02T22:08:47Z</time>
  <course>126.77</course>
  <speed>1.0121264743103995</speed>
  <fix>3d</fix>
</trkpt>
<trkpt lat="33.8105794" lon="-118.3954534">
  <ele>-24.4</ele>
  <time>2026-09-02T22:08:47Z</time>
  <course>36.8</course>
  <speed>0.99</speed>
  <fix>3d</fix>
</trkpt>
<trkpt lat="33.8105811" lon="-118.3954517">
  <ele>-25.015</ele>
  <time>2026-09-02T22:08:47Z</time>
  <course>126.88</course>
  <speed>1.0121264743103995</speed>
  <fix>3d</fix>
</trkpt>
<trkpt lat="33.8105794" lon="-118.3954534">
  <ele>-24.4</ele>
  <time>2026-09-02T22:08:47Z</time>
  <course>36.8</course>
  <speed>0.99</speed>
  <fix>3d</fix>
</trkpt>
<trkpt lat="33.8105818" lon="-118.395451">
  <ele>-25.012</ele>
  <time>2026-09-02T22:08:47Z</time>
  <course>126.99</course>
  <speed>1.0121264743103995</speed>
  <fix>3d</fix>
</trkpt>
<trkpt lat="33.8105809" lon="-118.3954521">
  <ele>-24.4</ele>
  <time>2026-09-02T22:08:47Z</time>
  <course>37.06</course>
  <speed>0.99</speed>
  <fix>3d</fix>
</trkpt>
<trkpt lat="33.8105825" lon="-118.3954504">
  <ele>-25.009</ele>
  <time>2026-09-02T22:08:47Z</time>
  <course>127.11</course>
  <speed>1.0182828683622247</speed>
  <fix>3d</fix>
</trkpt>
<trkpt lat="33.8105809" lon="-118.3954521">
  <ele>-24.4</ele>
  <time>2026-09-02T22:08:47Z</time>
  <course>37.06</course>
  <speed>0.99</speed>
  <fix>3d</fix>
</trkpt>
<trkpt lat="33.8105833" lon="-118.3954497">
  <ele>-25.007</ele>
  <time>2026-09-02T22:08:47Z</time>
  <course>127.22</course>
  <speed>1.0104454463255303</speed>
  <fix>3d</fix>
</trkpt>
<trkpt lat="33.8105823" lon="-118.3954508">
  <ele>-24.4</ele>
  <time>2026-09-02T22:08:47Z</time>
  <course>37.31</course>
  <speed>0.99</speed>
  <fix>3d</fix>
</trkpt>
<trkpt lat="33.810584" lon="-118.395449">
  <ele>-25.006</ele>
  <time>2026-09-02T22:08:47Z</time>
  <course>127.34</course>
  <speed>1.0104454463255303</speed>
  <fix>3d</fix>
</trkpt>
<trkpt lat="33.8105823" lon="-118.3954508">
  <ele>-24.4</ele>
  <time>2026-09-02T22:08:47Z</time>
  <course>37.31</course>
  <speed>0.99</speed>
  <fix>3d</fix>
</trkpt>
<trkpt lat="33.8105847" lon="-118.3954484">
  <ele>-25.007</ele>
  <time>2026-09-02T22:08:47Z</time>
  <course>127.46</course>
  <speed>1.0104454463255303</speed>
  <fix>3d</fix>
</trkpt>
<trkpt lat="33.8105836" lon="-118.3954495">
  <ele>-24.4</ele>
  <time>2026-09-02T22:08:47Z</time>
  <course>37.57</course>
  <speed>0.99</speed>
  <fix>3d</fix>
</trkpt>
<trkpt lat="33.8105854" lon="-118.3954477">
  <ele>-25.009</ele>
  <time>2026-09-02T22:08:47Z</time>
  <course>127.57</course>
  <speed>1.0104454463255303</speed>
  <fix>3d</fix>
</trkpt>
<trkpt lat="33.8105836" lon="-118.3954495">
  <ele>-24.4</ele>
  <time>2026-09-02T22:08:47Z</time>
  <course>37.57</course>
  <speed>0.99</speed>
  <fix>3d</fix>
</trkpt>
<trkpt lat="33.8105861" lon="-118.3954471">
  <ele>-25.011</ele>
  <time>2026-09-02T22:08:47Z</time>
  <course>127.68</course>
  <speed>1.0104454463255303</speed>
  <fix>3d</fix>
</trkpt>
<trkpt lat="33.8105851" lon="-118.3954482">
  <ele>-24.4</ele>
  <time>2026-09-02T22:08:47Z</time>
  <course>37.8</course>
  <speed>0.99</speed>
  <fix>3d</fix>
</trkpt>
<trkpt lat="33.8105868" lon="-118.3954464">
  <ele>-25.012</ele>
  <time>2026-09-02T22:08:47Z</time>
  <course>127.8</course>
  <speed>1.0167103815738285</speed>
  <fix>3d</fix>
</trkpt>
<trkpt lat="33.8105851" lon="-118.3954482">
  <ele>-24.4</ele>
  <time>2026-09-02T22:08:47Z</time>
  <course>37.8</course>
  <speed>0.99</speed>
  <fix>3d</fix>
</trkpt>
<trkpt lat="33.8105875" lon="-118.3954457">
  <ele>-25.013</ele>
  <time>2026-09-02T22:08:47Z</time>
  <course>127.91</course>
  <speed>1.0167103815738285</speed>
  <fix>3d</fix>
</trkpt>
<trkpt lat="33.8105865" lon="-118.3954469">
  <ele>-24.4</ele>
  <time>2026-09-02T22:08:47Z</time>
  <course>37.99</course>
  <speed>0.99</speed>
  <fix>3d</fix>
</trkpt>
<trkpt lat="33.8105882" lon="-118.3954451">
  <ele>-25.014</ele>
  <time>2026-09-02T22:08:47Z</time>
  <course>128.03</course>
  <speed>1.0167103815738285</speed>
  <fix>3d</fix>
</trkpt>
<trkpt lat="33.8105865" lon="-118.3954469">
  <ele>-24.4</ele>
  <time>2026-09-02T22:08:47Z</time>
  <course>37.99</course>
  <speed>0.99</speed>
  <fix>3d</fix>
</trkpt>
<trkpt lat="33.8105889" lon="-118.3954444">
  <ele>-25.014</ele>
  <time>2026-09-02T22:08:47Z</time>
  <course>128.14</course>
  <speed>1.0167103815738285</speed>
  <fix>3d</fix>
</trkpt>
<trkpt lat="33.8105879" lon="-118.3954455">
  <ele>-24.4</ele>
  <time>2026-09-02T22:08:47Z</time>
  <course>38.22</course>
  <speed>0.99</speed>
  <fix>3d</fix>
</trkpt>
<trkpt lat="33.8105896" lon="-118.3954437">
  <ele>-25.013</ele>
  <time>2026-09-02T22:08:47Z</time>
  <course>128.26</course>
  <speed>1.0167103815738285</speed>
  <fix>3d</fix>
</trkpt>
<trkpt lat="33.8105879" lon="-118.3954455">
  <ele>-24.4</ele>
  <time>2026-09-02T22:08:47Z</time>
  <course>38.22</course>
  <speed>0.99</speed>
  <fix>3d</fix>
</trkpt>
<trkpt lat="33.8105903" lon="-118.395443">
  <ele>-25.013</ele>
  <time>2026-09-02T22:08:47Z</time>
  <course>128.37</course>
  <speed>1.0089598604503551</speed>
  <fix>3d</fix>
</trkpt>
<trkpt lat="33.8105894" lon="-118.3954442">
  <ele>-24.4</ele>
  <time>2026-09-02T22:08:47Z</time>
  <course>38.44</course>
  <speed>0.99</speed>
  <fix>3d</fix>
</trkpt>
<trkpt lat="33.810591" lon="-118.3954424">
  <ele>-25.012</ele>
  <time>2026-09-02T22:08:47Z</time>
  <course>128.49</course>
  <speed>1.015332457867865</speed>
  <fix>3d</fix>
</trkpt>
<trkpt lat="33.8105894" lon="-118.3954442">
  <ele>-24.4</ele>
  <time>2026-09-02T22:08:47Z</time>
  <course>38.44</course>
  <speed>0.99</speed>
  <fix>3d</fix>
</trkpt>
<trkpt lat="33.8105917" lon="-118.3954417">
  <ele>-25.012</ele>
  <time>2026-09-02T22:08:47Z</time>
  <course>128.6</course>
  <speed>1.015332457867865</speed>
  <fix>3d</fix>
</trkpt>
<trkpt lat="33.8105908" lon="-118.3954429">
  <ele>-24.4</ele>
  <time>2026-09-02T22:08:47Z</time>
  <course>38.65</course>
  <speed>0.99</speed>
  <fix>3d</fix>
</trkpt>
<trkpt lat="33.8105924" lon="-118.395441">
  <ele>-25.011</ele>
  <time>2026-09-02T22:08:47Z</time>
  <course>128.71</course>
  <speed>1.015332457867865</speed>
  <fix>3d</fix>
</trkpt>
<trkpt lat="33.8105908" lon="-118.3954429">
  <ele>-24.4</ele>
  <time>2026-09-02T22:08:47Z</time>
  <course>38.65</course>
  <speed>0.99</speed>
  <fix>3d</fix>
</trkpt>
<trkpt lat="33.8105931" lon="-118.3954403">
  <ele>-25.01</ele>
  <time>2026-09-02T22:08:47Z</time>
  <course>128.83</course>
  <speed>1.015332457867865</speed>
  <fix>3d</fix>
</trkpt>
<trkpt lat="33.8105922" lon="-118.3954415">
  <ele>-24.4</ele>
  <time>2026-09-02T22:08:47Z</time>
  <course>38.92</course>
  <speed>0.99</speed>
  <fix>3d</fix>
</trkpt>
<trkpt lat="33.8105938" lon="-118.3954396">
  <ele>-25.01</ele>
  <time>2026-09-02T22:08:47Z</time>
  <course>128.94</course>
  <speed>1.007670581092849</speed>
  <fix>3d</fix>
</trkpt>
<trkpt lat="33.8105922" lon="-118.3954415">
  <ele>-24.4</ele>
  <time>2026-09-02T22:08:47Z</time>
  <course>38.92</course>
  <speed>0.99</speed>
  <fix>3d</fix>
</trkpt>
<trkpt lat="33.8105945" lon="-118.395439">
  <ele>-25.01</ele>
  <time>2026-09-02T22:08:47Z</time>
  <course>129.06</course>
  <speed>1.0141498903022177</speed>
  <fix>3d</fix>
</trkpt>
<trkpt lat="33.8105935" lon="-118.3954402">
  <ele>-24.4</ele>
  <time>2026-09-02T22:08:47Z</time>
  <course>39.23</course>
  <speed>0.99</speed>
  <fix>3d</fix>
</trkpt>
<trkpt lat="33.8105952" lon="-118.3954383">
  <ele>-25.01</ele>
  <time>2026-09-02T22:08:47Z</time>
  <course>129.17</course>
  <speed>1.0141498903022177</speed>
  <fix>3d</fix>
</trkpt>
<trkpt lat="33.8105935" lon="-118.3954402">
  <ele>-24.4</ele>
  <time>2026-09-02T22:08:47Z</time>
  <course>39.23</course>
  <speed>0.99</speed>
  <fix>3d</fix>
</trkpt>
<trkpt lat="33.8105959" lon="-118.3954376">
  <ele>-25.011</ele>
  <time>2026-09-02T22:08:47Z</time>
  <course>129.29</course>
  <speed>1.0141498903022177</speed>
  <fix>3d</fix>
</trkpt>
<trkpt lat="33.8105949" lon="-118.3954388">
  <ele>-24.41</ele>
  <time>2026-09-02T22:08:47Z</time>
  <course>39.5</course>
  <speed>0.99</speed>
  <fix>3d</fix>
</trkpt>
<trkpt lat="33.8105966" lon="-118.3954369">
  <ele>-25.011</ele>
  <time>2026-09-02T22:08:47Z</time>
  <course>129.4</course>
  <speed>1.0141498903022177</speed>
  <fix>3d</fix>
</trkpt>
<trkpt lat="33.8105949" lon="-118.3954388">
  <ele>-24.41</ele>
  <time>2026-09-02T22:08:47Z</time>
  <course>39.5</course>
  <speed>0.99</speed>
  <fix>3d</fix>
</trkpt>
<trkpt lat="33.8105973" lon="-118.3954362">
  <ele>-25.012</ele>
  <time>2026-09-02T22:08:47Z</time>
  <course>129.52</course>
  <speed>1.0141498903022177</speed>
  <fix>3d</fix>
</trkpt>
<trkpt lat="33.8105963" lon="-118.3954374">
  <ele>-24.41</ele>
  <time>2026-09-02T22:08:47Z</time>
  <course>39.71</course>
  <speed>0.99</speed>
  <fix>3d</fix>
</trkpt>
<trkpt lat="33.810598" lon="-118.3954355">
  <ele>-25.013</ele>
  <time>2026-09-02T22:08:47Z</time>
  <course>129.63</course>
  <speed>1.0141498903022177</speed>
  <fix>3d</fix>
</trkpt>
<trkpt lat="33.8105963" lon="-118.3954374">
  <ele>-24.41</ele>
  <time>2026-09-02T22:08:47Z</time>
  <course>39.71</course>
  <speed>0.99</speed>
  <fix>3d</fix>
</trkpt>
<trkpt lat="33.8105987" lon="-118.3954348">
  <ele>-25.013</ele>
  <time>2026-09-02T22:08:47Z</time>
  <course>129.75</course>
  <speed>1.0141498903022177</speed>
  <fix>3d</fix>
</trkpt>
<trkpt lat="33.8105977" lon="-118.395436">
  <ele>-24.41</ele>
  <time>2026-09-02T22:08:47Z</time>
  <course>39.89</course>
  <speed>0.99</speed>
  <fix>3d</fix>
</trkpt>
<trkpt lat="33.8105994" lon="-118.3954341">
  <ele>-25.013</ele>
  <time>2026-09-02T22:08:47Z</time>
  <course>129.86</course>
  <speed>1.0206860437960343</speed>
  <fix>3d</fix>
</trkpt>
<trkpt lat="33.8105977" lon="-118.395436">
  <ele>-24.41</ele>
  <time>2026-09-02T22:08:47Z</time>
  <course>39.89</course>
  <speed>0.99</speed>
  <fix>3d</fix>
</trkpt>
<trkpt lat="33.8106001" lon="-118.3954334">
  <ele>-25.013</ele>
  <time>2026-09-02T22:08:47Z</time>
  <course>129.98</course>
  <speed>1.0206860437960343</speed>
  <fix>3d</fix>
</trkpt>
<trkpt lat="33.8105991" lon="-118.3954346">
  <ele>-24.41</ele>
  <time>2026-09-02T22:08:47Z</time>
  <course>40.06</course>
  <speed>1.0</speed>
  <fix>3d</fix>
</trkpt>
<trkpt lat="33.8106007" lon="-118.3954327">
  <ele>-25.014</ele>
  <time>2026-09-02T22:08:47Z</time>
  <course>130.09</course>
  <speed>1.0131633629380803</speed>
  <fix>3d</fix>
</trkpt>
<trkpt lat="33.8105991" lon="-118.3954346">
  <ele>-24.41</ele>
  <time>2026-09-02T22:08:47Z</time>
  <course>40.06</course>
  <speed>1.0</speed>
  <fix>3d</fix>
</trkpt>
<trkpt lat="33.8106014" lon="-118.395432">
  <ele>-25.014</ele>
  <time>2026-09-02T22:08:47Z</time>
  <course>130.21</course>
  <speed>1.0131633629380803</speed>
  <fix>3d</fix>
</trkpt>
<trkpt lat="33.8106004" lon="-118.3954333">
  <ele>-24.41</ele>
  <time>2026-09-02T22:08:47Z</time>
  <course>40.27</course>
  <speed>0.99</speed>
  <fix>3d</fix>
</trkpt>
<trkpt lat="33.8106021" lon="-118.3954313">
  <ele>-25.016</ele>
  <time>2026-09-02T22:08:47Z</time>
  <course>130.32</course>
  <speed>1.0131633629380803</speed>
  <fix>3d</fix>
</trkpt>
<trkpt lat="33.8106004" lon="-118.3954333">
  <ele>-24.41</ele>
  <time>2026-09-02T22:08:47Z</time>
  <course>40.27</course>
  <speed>0.99</speed>
  <fix>3d</fix>
</trkpt>
<trkpt lat="33.8106028" lon="-118.3954306">
  <ele>-25.017</ele>
  <time>2026-09-02T22:08:47Z</time>
  <course>130.43</course>
  <speed>1.0131633629380803</speed>
  <fix>3d</fix>
</trkpt>
<trkpt lat="33.8106018" lon="-118.3954319">
  <ele>-24.42</ele>
  <time>2026-09-02T22:08:47Z</time>
  <course>40.48</course>
  <speed>0.99</speed>
  <fix>3d</fix>
</trkpt>
<trkpt lat="33.8106035" lon="-118.3954299">
  <ele>-25.019</ele>
  <time>2026-09-02T22:08:47Z</time>
  <course>130.55</course>
  <speed>1.019803902718557</speed>
  <fix>3d</fix>
</trkpt>
<trkpt lat="33.8106018" lon="-118.3954319">
  <ele>-24.42</ele>
  <time>2026-09-02T22:08:47Z</time>
  <course>40.48</course>
  <speed>0.99</speed>
  <fix>3d</fix>
</trkpt>
<trkpt lat="33.8106042" lon="-118.3954292">
  <ele>-25.019</ele>
  <time>2026-09-02T22:08:47Z</time>
  <course>130.66</course>
  <speed>1.019803902718557</speed>
  <fix>3d</fix>
</trkpt>
<trkpt lat="33.8106032" lon="-118.3954304">
  <ele>-24.42</ele>
  <time>2026-09-02T22:08:47Z</time>
  <course>40.72</course>
  <speed>1.0</speed>
  <fix>3d</fix>
</trkpt>
<trkpt lat="33.8106048" lon="-118.3954285">
  <ele>-25.019</ele>
  <time>2026-09-02T22:08:47Z</time>
  <course>130.78</course>
  <speed>1.019803902718557</speed>
  <fix>3d</fix>
</trkpt>
<trkpt lat="33.8106032" lon="-118.3954304">
  <ele>-24.42</ele>
  <time>2026-09-02T22:08:47Z</time>
  <course>40.72</course>
  <speed>1.0</speed>
  <fix>3d</fix>
</trkpt>
<trkpt lat="33.8106055" lon="-118.3954278">
  <ele>-25.019</ele>
  <time>2026-09-02T22:08:47Z</time>
  <course>130.89</course>
  <speed>1.019803902718557</speed>
  <fix>3d</fix>
</trkpt>
<trkpt lat="33.8106045" lon="-118.395429">
  <ele>-24.41</ele>
  <time>2026-09-02T22:08:47Z</time>
  <course>40.98</course>
  <speed>1.0</speed>
  <fix>3d</fix>
</trkpt>
<trkpt lat="33.8106062" lon="-118.3954271">
  <ele>-25.018</ele>
  <time>2026-09-02T22:08:47Z</time>
  <course>131.01</course>
  <speed>1.0123734488813898</speed>
  <fix>3d</fix>
</trkpt>
<trkpt lat="33.8106045" lon="-118.395429">
  <ele>-24.41</ele>
  <time>2026-09-02T22:08:47Z</time>
  <course>40.98</course>
  <speed>1.0</speed>
  <fix>3d</fix>
</trkpt>
<trkpt lat="33.8106069" lon="-118.3954264">
  <ele>-25.016</ele>
  <time>2026-09-02T22:08:47Z</time>
  <course>131.12</course>
  <speed>1.0123734488813898</speed>
  <fix>3d</fix>
</trkpt>
<trkpt lat="33.8106059" lon="-118.3954276">
  <ele>-24.41</ele>
  <time>2026-09-02T22:08:47Z</time>
  <course>41.2</course>
  <speed>1.0</speed>
  <fix>3d</fix>
</trkpt>
<trkpt lat="33.8106075" lon="-118.3954256">
  <ele>-25.014</ele>
  <time>2026-09-02T22:08:47Z</time>
  <course>131.23</course>
  <speed>1.0123734488813898</speed>
  <fix>3d</fix>
</trkpt>
<trkpt lat="33.8106059" lon="-118.3954276">
  <ele>-24.41</ele>
  <time>2026-09-02T22:08:47Z</time>
  <course>41.2</course>
  <speed>1.0</speed>
  <fix>3d</fix>
</trkpt>
<trkpt lat="33.8106082" lon="-118.3954249">
  <ele>-25.012</ele>
  <time>2026-09-02T22:08:47Z</time>
  <course>131.35</course>
  <speed>1.0123734488813898</speed>
  <fix>3d</fix>
</trkpt>
<trkpt lat="33.8106072" lon="-118.3954262">
  <ele>-24.4</ele>
  <time>2026-09-02T22:08:47Z</time>
  <course>41.39</course>
  <speed>1.0</speed>
  <fix>3d</fix>
</trkpt>
<trkpt lat="33.8106089" lon="-118.3954242">
  <ele>-25.011</ele>
  <time>2026-09-02T22:08:47Z</time>
  <course>131.46</course>
  <speed>1.0191172650877818</speed>
  <fix>3d</fix>
</trkpt>
<trkpt lat="33.8106072" lon="-118.3954262">
  <ele>-24.4</ele>
  <time>2026-09-02T22:08:47Z</time>
  <course>41.39</course>
  <speed>1.0</speed>
  <fix>3d</fix>
</trkpt>
<trkpt lat="33.8106096" lon="-118.3954235">
  <ele>-25.011</ele>
  <time>2026-09-02T22:08:47Z</time>
  <course>131.58</course>
  <speed>1.0191172650877818</speed>
  <fix>3d</fix>
</trkpt>
<trkpt lat="33.8106085" lon="-118.3954247">
  <ele>-24.4</ele>
  <time>2026-09-02T22:08:47Z</time>
  <course>41.6</course>
  <speed>1.0</speed>
  <fix>3d</fix>
</trkpt>
<trkpt lat="33.8106102" lon="-118.3954228">
  <ele>-25.011</ele>
  <time>2026-09-02T22:08:47Z</time>
  <course>131.69</course>
  <speed>1.0191172650877818</speed>
  <fix>3d</fix>
</trkpt>
<trkpt lat="33.8106085" lon="-118.3954247">
  <ele>-24.4</ele>
  <time>2026-09-02T22:08:47Z</time>
  <course>41.6</course>
  <speed>1.0</speed>
  <fix>3d</fix>
</trkpt>
<trkpt lat="33.8106109" lon="-118.395422">
  <ele>-25.012</ele>
  <time>2026-09-02T22:08:47Z</time>
  <course>131.81</course>
  <speed>1.0191172650877818</speed>
  <fix>3d</fix>
</trkpt>
<trkpt lat="33.8106099" lon="-118.3954233">
  <ele>-24.4</ele>
  <time>2026-09-02T22:08:47Z</time>
  <course>41.79</course>
  <speed>1.0</speed>
  <fix>3d</fix>
</trkpt>
<trkpt lat="33.8106116" lon="-118.3954213">
  <ele>-25.012</ele>
  <time>2026-09-02T22:08:47Z</time>
  <course>131.93</course>
  <speed>1.0117806086301515</speed>
  <fix>3d</fix>
</trkpt>
<trkpt lat="33.8106099" lon="-118.3954233">
  <ele>-24.4</ele>
  <time>2026-09-02T22:08:47Z</time>
  <course>41.79</course>
  <speed>1.0</speed>
  <fix>3d</fix>
</trkpt>
<trkpt lat="33.8106122" lon="-118.3954206">
  <ele>-25.011</ele>
  <time>2026-09-02T22:08:47Z</time>
  <course>132.04</course>
  <speed>1.0117806086301515</speed>
  <fix>3d</fix>
</trkpt>
<trkpt lat="33.8106112" lon="-118.3954218">
  <ele>-24.4</ele>
  <time>2026-09-02T22:08:47Z</time>
  <course>41.97</course>
  <speed>1.0</speed>
  <fix>3d</fix>
</trkpt>
<trkpt lat="33.8106129" lon="-118.3954199">
  <ele>-25.01</ele>
  <time>2026-09-02T22:08:47Z</time>
  <course>132.15</course>
  <speed>1.0117806086301515</speed>
  <fix>3d</fix>
</trkpt>
<trkpt lat="33.8106112" lon="-118.3954218">
  <ele>-24.4</ele>
  <time>2026-09-02T22:08:47Z</time>
  <course>41.97</course>
  <speed>1.0</speed>
  <fix>3d</fix>
</trkpt>
<trkpt lat="33.8106135" lon="-118.3954191">
  <ele>-25.01</ele>
  <time>2026-09-02T22:08:47Z</time>
  <course>132.27</course>
  <speed>1.0186265262597474</speed>
  <fix>3d</fix>
</trkpt>
<trkpt lat="33.8106126" lon="-118.3954204">
  <ele>-24.4</ele>
  <time>2026-09-02T22:08:47Z</time>
  <course>42.14</course>
  <speed>1.0</speed>
  <fix>3d</fix>
</trkpt>
<trkpt lat="33.8106142" lon="-118.3954184">
  <ele>-25.01</ele>
  <time>2026-09-02T22:08:47Z</time>
  <course>132.38</course>
  <speed>1.0186265262597474</speed>
  <fix>3d</fix>
</trkpt>
<trkpt lat="33.8106126" lon="-118.3954204">
  <ele>-24.4</ele>
  <time>2026-09-02T22:08:47Z</time>
  <course>42.14</course>
  <speed>1.0</speed>
  <fix>3d</fix>
</trkpt>
<trkpt lat="33.8106149" lon="-118.3954177">
  <ele>-25.011</ele>
  <time>2026-09-02T22:08:47Z</time>
  <course>132.5</course>
  <speed>1.0186265262597474</speed>
  <fix>3d</fix>
</trkpt>
<trkpt lat="33.8106139" lon="-118.3954189">
  <ele>-24.41</ele>
  <time>2026-09-02T22:08:47Z</time>
  <course>42.33</course>
  <speed>1.0</speed>
  <fix>3d</fix>
</trkpt>
<trkpt lat="33.8106155" lon="-118.3954169">
  <ele>-25.011</ele>
  <time>2026-09-02T22:08:47Z</time>
  <course>132.62</course>
  <speed>1.0186265262597474</speed>
  <fix>3d</fix>
</trkpt>
<trkpt lat="33.8106139" lon="-118.3954189">
  <ele>-24.41</ele>
  <time>2026-09-02T22:08:47Z</time>
  <course>42.33</course>
  <speed>1.0</speed>
  <fix>3d</fix>
</trkpt>
<trkpt lat="33.8106162" lon="-118.3954162">
  <ele>-25.012</ele>
  <time>2026-09-02T22:08:47Z</time>
  <course>132.73</course>
  <speed>1.0113851887386922</speed>
  <fix>3d</fix>
</trkpt>
<trkpt lat="33.8106152" lon="-118.3954175">
  <ele>-24.41</ele>
  <time>2026-09-02T22:08:47Z</time>
  <course>42.56</course>
  <speed>1.0</speed>
  <fix>3d</fix>
</trkpt>
<trkpt lat="33.8106168" lon="-118.3954155">
  <ele>-25.013</ele>
  <time>2026-09-02T22:08:47Z</time>
  <course>132.84</course>
  <speed>1.0113851887386922</speed>
  <fix>3d</fix>
</trkpt>
<trkpt lat="33.8106152" lon="-118.3954175">
  <ele>-24.41</ele>
  <time>2026-09-02T22:08:47Z</time>
  <course>42.56</course>
  <speed>1.0</speed>
  <fix>3d</fix>
</trkpt>
<trkpt lat="33.8106175" lon="-118.3954147">
  <ele>-25.014</ele>
  <time>2026-09-02T22:08:47Z</time>
  <course>132.95</course>
  <speed>1.0183319694480775</speed>
  <fix>3d</fix>
</trkpt>
<trkpt lat="33.8106166" lon="-118.395416">
  <ele>-24.41</ele>
  <time>2026-09-02T22:08:47Z</time>
  <course>42.8</course>
  <speed>1.0</speed>
  <fix>3d</fix>
</trkpt>
<trkpt lat="33.8106182" lon="-118.395414">
  <ele>-25.014</ele>
  <time>2026-09-02T22:08:47Z</time>
  <course>133.07</course>
  <speed>1.0183319694480775</speed>
  <fix>3d</fix>
</trkpt>
<trkpt lat="33.8106166" lon="-118.395416">
  <ele>-24.41</ele>
  <time>2026-09-02T22:08:47Z</time>
  <course>42.8</course>
  <speed>1.0</speed>
  <fix>3d</fix>
</trkpt>
<trkpt lat="33.8106188" lon="-118.3954132">
  <ele>-25.014</ele>
  <time>2026-09-02T22:08:47Z</time>
  <course>133.19</course>
  <speed>1.0183319694480775</speed>
  <fix>3d</fix>
</trkpt>
<trkpt lat="33.8106179" lon="-118.3954145">
  <ele>-24.41</ele>
  <time>2026-09-02T22:08:47Z</time>
  <course>43.06</course>
  <speed>1.0</speed>
  <fix>3d</fix>
</trkpt>
<trkpt lat="33.8106195" lon="-118.3954125">
  <ele>-25.014</ele>
  <time>2026-09-02T22:08:47Z</time>
  <course>133.3</course>
  <speed>1.0183319694480775</speed>
  <fix>3d</fix>
</trkpt>
<trkpt lat="33.8106179" lon="-118.3954145">
  <ele>-24.41</ele>
  <time>2026-09-02T22:08:47Z</time>
  <course>43.06</course>
  <speed>1.0</speed>
  <fix>3d</fix>
</trkpt>
<trkpt lat="33.8106201" lon="-118.3954117">
  <ele>-25.013</ele>
  <time>2026-09-02T22:08:47Z</time>
  <course>133.41</course>
  <speed>1.0111874208078342</speed>
  <fix>3d</fix>
</trkpt>
<trkpt lat="33.8106192" lon="-118.395413">
  <ele>-24.41</ele>
  <time>2026-09-02T22:08:47Z</time>
  <course>43.33</course>
  <speed>1.0</speed>
  <fix>3d</fix>
</trkpt>
<trkpt lat="33.8106208" lon="-118.395411">
  <ele>-25.012</ele>
  <time>2026-09-02T22:08:47Z</time>
  <course>133.53</course>
  <speed>1.0111874208078342</speed>
  <fix>3d</fix>
</trkpt>
<trkpt lat="33.8106192" lon="-118.395413">
  <ele>-24.41</ele>
  <time>2026-09-02T22:08:47Z</time>
  <course>43.33</course>
  <speed>1.0</speed>
  <fix>3d</fix>
</trkpt>
<trkpt lat="33.8106214" lon="-118.3954103">
  <ele>-25.011</ele>
  <time>2026-09-02T22:08:47Z</time>
  <course>133.64</course>
  <speed>1.0111874208078342</speed>
  <fix>3d</fix>
</trkpt>
<trkpt lat="33.8106205" lon="-118.3954115">
  <ele>-24.41</ele>
  <time>2026-09-02T22:08:47Z</time>
  <course>43.57</course>
  <speed>1.0</speed>
  <fix>3d</fix>
</trkpt>
<trkpt lat="33.8106221" lon="-118.3954095">
  <ele>-25.012</ele>
  <time>2026-09-02T22:08:47Z</time>
  <course>133.76</course>
  <speed>1.0182337649086284</speed>
  <fix>3d</fix>
</trkpt>
<trkpt lat="33.8106205" lon="-118.3954115">
  <ele>-24.41</ele>
  <time>2026-09-02T22:08:47Z</time>
  <course>43.57</course>
  <speed>1.0</speed>
  <fix>3d</fix>
</trkpt>
<trkpt lat="33.8106227" lon="-118.3954087">
  <ele>-25.013</ele>
  <time>2026-09-02T22:08:47Z</time>
  <course>133.87</course>
  <speed>1.0182337649086284</speed>
  <fix>3d</fix>
</trkpt>
<trkpt lat="33.8106218" lon="-118.39541">
  <ele>-24.41</ele>
  <time>2026-09-02T22:08:47Z</time>
  <course>43.78</course>
  <speed>1.0</speed>
  <fix>3d</fix>
</trkpt>
<trkpt lat="33.8106234" lon="-118.395408">
  <ele>-25.014</ele>
  <time>2026-09-02T22:08:47Z</time>
  <course>133.99</course>
  <speed>1.0182337649086284</speed>
  <fix>3d</fix>
</trkpt>
<trkpt lat="33.8106218" lon="-118.39541">
  <ele>-24.41</ele>
  <time>2026-09-02T22:08:47Z</time>
  <course>43.78</course>
  <speed>1.0</speed>
  <fix>3d</fix>
</trkpt>
<trkpt lat="33.810624" lon="-118.3954072">
  <ele>-25.016</ele>
  <time>2026-09-02T22:08:47Z</time>
  <course>134.1</course>
  <speed>1.0182337649086284</speed>
  <fix>3d</fix>
</trkpt>
<trkpt lat="33.8106231" lon="-118.3954085">
  <ele>-24.41</ele>
  <time>2026-09-02T22:08:47Z</time>
  <course>43.99</course>
  <speed>0.99</speed>
  <fix>3d</fix>
</trkpt>
<trkpt lat="33.8106247" lon="-118.3954065">
  <ele>-25.016</ele>
  <time>2026-09-02T22:08:47Z</time>
  <course>134.22</course>
  <speed>1.0111874208078342</speed>
  <fix>3d</fix>
</trkpt>
<trkpt lat="33.8106231" lon="-118.3954085">
  <ele>-24.41</ele>
  <time>2026-09-02T22:08:47Z</time>
  <course>43.99</course>
  <speed>0.99</speed>
  <fix>3d</fix>
</trkpt>
<trkpt lat="33.8106253" lon="-118.3954057">
  <ele>-25.016</ele>
  <time>2026-09-02T22:08:47Z</time>
  <course>134.33</course>
  <speed>1.0111874208078342</speed>
  <fix>3d</fix>
</trkpt>
<trkpt lat="33.8106244" lon="-118.395407">
  <ele>-24.41</ele>
  <time>2026-09-02T22:08:47Z</time>
  <course>44.21</course>
  <speed>0.99</speed>
  <fix>3d</fix>
</trkpt>
<trkpt lat="33.8106259" lon="-118.395405">
  <ele>-25.016</ele>
  <time>2026-09-02T22:08:47Z</time>
  <course>134.44</course>
  <speed>1.0111874208078342</speed>
  <fix>3d</fix>
</trkpt>
<trkpt lat="33.8106244" lon="-118.395407">
  <ele>-24.41</ele>
  <time>2026-09-02T22:08:47Z</time>
  <course>44.21</course>
  <speed>0.99</speed>
  <fix>3d</fix>
</trkpt>
<trkpt lat="33.8106266" lon="-118.3954042">
  <ele>-25.015</ele>
  <time>2026-09-02T22:08:47Z</time>
  <course>134.56</course>
  <speed>1.0111874208078342</speed>
  <fix>3d</fix>
</trkpt>
<trkpt lat="33.8106256" lon="-118.3954055">
  <ele>-24.41</ele>
  <time>2026-09-02T22:08:47Z</time>
  <course>44.44</course>
  <speed>0.99</speed>
  <fix>3d</fix>
</trkpt>
<trkpt lat="33.8106272" lon="-118.3954034">
  <ele>-25.014</ele>
  <time>2026-09-02T22:08:47Z</time>
  <course>134.67</course>
  <speed>1.0183319694480775</speed>
  <fix>3d</fix>
</trkpt>
<trkpt lat="33.8106256" lon="-118.3954055">
  <ele>-24.41</ele>
  <time>2026-09-02T22:08:47Z</time>
  <course>44.44</course>
  <speed>0.99</speed>
  <fix>3d</fix>
</trkpt>
<trkpt lat="33.8106278" lon="-118.3954027">
  <ele>-25.014</ele>
  <time>2026-09-02T22:08:47Z</time>
  <course>134.79</course>
  <speed>1.0183319694480775</speed>
  <fix>3d</fix>
</trkpt>
<trkpt lat="33.8106269" lon="-118.395404">
  <ele>-24.41</ele>
  <time>2026-09-02T22:08:47Z</time>
  <course>44.66</course>
  <speed>0.99</speed>
  <fix>3d</fix>
</trkpt>
<trkpt lat="33.8106285" lon="-118.3954019">
  <ele>-25.014</ele>
  <time>2026-09-02T22:08:47Z</time>
  <course>134.9</course>
  <speed>1.0183319694480775</speed>
  <fix>3d</fix>
</trkpt>
<trkpt lat="33.8106269" lon="-118.395404">
  <ele>-24.41</ele>
  <time>2026-09-02T22:08:47Z</time>
  <course>44.66</course>
  <speed>0.99</speed>
  <fix>3d</fix>
</trkpt>
<trkpt lat="33.8106291" lon="-118.3954012">
  <ele>-25.014</ele>
  <time>2026-09-02T22:08:47Z</time>
  <course>135.02</course>
  <speed>1.0183319694480775</speed>
  <fix>3d</fix>
</trkpt>
<trkpt lat="33.8106282" lon="-118.3954025">
  <ele>-24.41</ele>
  <time>2026-09-02T22:08:47Z</time>
  <course>44.85</course>
  <speed>1.0</speed>
  <fix>3d</fix>
</trkpt>
<trkpt lat="33.8106297" lon="-118.3954004">
  <ele>-25.015</ele>
  <time>2026-09-02T22:08:47Z</time>
  <course>135.13</course>
  <speed>1.0255242561733973</speed>
  <fix>3d</fix>
</trkpt>
<trkpt lat="33.8106282" lon="-118.3954025">
  <ele>-24.41</ele>
  <time>2026-09-02T22:08:47Z</time>
  <course>44.85</course>
  <speed>1.0</speed>
  <fix>3d</fix>
</trkpt>
<trkpt lat="33.8106304" lon="-118.3953996">
  <ele>-25.017</ele>
  <time>2026-09-02T22:08:47Z</time>
  <course>135.24</course>
  <speed>1.0186265262597474</speed>
  <fix>3d</fix>
</trkpt>
<trkpt lat="33.8106295" lon="-118.395401">
  <ele>-24.41</ele>
  <time>2026-09-02T22:08:47Z</time>
  <course>45.09</course>
  <speed>1.0</speed>
  <fix>3d</fix>
</trkpt>
<trkpt lat="33.810631" lon="-118.3953989">
  <ele>-25.017</ele>
  <time>2026-09-02T22:08:47Z</time>
  <course>135.36</course>
  <speed>1.0186265262597474</speed>
  <fix>3d</fix>
</trkpt>
<trkpt lat="33.8106295" lon="-118.395401">
  <ele>-24.41</ele>
  <time>2026-09-02T22:08:47Z</time>
  <course>45.09</course>
  <speed>1.0</speed>
  <fix>3d</fix>
</trkpt>
<trkpt lat="33.8106316" lon="-118.3953981">
  <ele>-25.018</ele>
  <time>2026-09-02T22:08:47Z</time>
  <course>135.47</course>
  <speed>1.0186265262597474</speed>
  <fix>3d</fix>
</trkpt>
<trkpt lat="33.8106308" lon="-118.3953994">
  <ele>-24.41</ele>
  <time>2026-09-02T22:08:47Z</time>
  <course>45.38</course>
  <speed>1.0</speed>
  <fix>3d</fix>
</trkpt>
<trkpt lat="33.8106323" lon="-118.3953973">
  <ele>-25.018</ele>
  <time>2026-09-02T22:08:47Z</time>
  <course>135.59</course>
  <speed>1.0186265262597474</speed>
  <fix>3d</fix>
</trkpt>
<trkpt lat="33.8106308" lon="-118.3953994">
  <ele>-24.41</ele>
  <time>2026-09-02T22:08:47Z</time>
  <course>45.38</course>
  <speed>1.0</speed>
  <fix>3d</fix>
</trkpt>
<trkpt lat="33.8106329" lon="-118.3953965">
  <ele>-25.018</ele>
  <time>2026-09-02T22:08:47Z</time>
  <course>135.71</course>
  <speed>1.0186265262597474</speed>
  <fix>3d</fix>
</trkpt>
<trkpt lat="33.810632" lon="-118.3953979">
  <ele>-24.4</ele>
  <time>2026-09-02T22:08:47Z</time>
  <course>45.67</course>
  <speed>1.0</speed>
  <fix>3d</fix>
</trkpt>
<trkpt lat="33.8106335" lon="-118.3953958">
  <ele>-25.018</ele>
  <time>2026-09-02T22:08:47Z</time>
  <course>135.82</course>
  <speed>1.0259142264341596</speed>
  <fix>3d</fix>
</trkpt>
<trkpt lat="33.810632" lon="-118.3953979">
  <ele>-24.4</ele>
  <time>2026-09-02T22:08:47Z</time>
  <course>45.67</course>
  <speed>1.0</speed>
  <fix>3d</fix>
</trkpt>
<trkpt lat="33.8106341" lon="-118.395395">
  <ele>-25.015</ele>
  <time>2026-09-02T22:08:47Z</time>
  <course>135.93</course>
  <speed>1.0191172650877818</speed>
  <fix>3d</fix>
</trkpt>
<trkpt lat="33.8106333" lon="-118.3953962">
  <ele>-24.4</ele>
  <time>2026-09-02T22:08:47Z</time>
  <course>45.96</course>
  <speed>1.0</speed>
  <fix>3d</fix>
</trkpt>
<trkpt lat="33.8106348" lon="-118.3953942">
  <ele>-25.011</ele>
  <time>2026-09-02T22:08:47Z</time>
  <course>136.05</course>
  <speed>1.0191172650877818</speed>
  <fix>3d</fix>
</trkpt>
<trkpt lat="33.8106333" lon="-118.3953962">
  <ele>-24.4</ele>
  <time>2026-09-02T22:08:47Z</time>
  <course>45.96</course>
  <speed>1.0</speed>
  <fix>3d</fix>
</trkpt>
<trkpt lat="33.8106354" lon="-118.3953934">
  <ele>-25.008</ele>
  <time>2026-09-02T22:08:47Z</time>
  <course>136.16</course>
  <speed>1.0191172650877818</speed>
  <fix>3d</fix>
</trkpt>
<trkpt lat="33.8106346" lon="-118.3953947">
  <ele>-24.4</ele>
  <time>2026-09-02T22:08:47Z</time>
  <course>46.19</course>
  <speed>1.0</speed>
  <fix>3d</fix>
</trkpt>
<trkpt lat="33.810636" lon="-118.3953926">
  <ele>-25.007</ele>
  <time>2026-09-02T22:08:47Z</time>
  <course>136.28</course>
  <speed>1.0191172650877818</speed>
  <fix>3d</fix>
</trkpt>
<trkpt lat="33.8106346" lon="-118.3953947">
  <ele>-24.4</ele>
  <time>2026-09-02T22:08:47Z</time>
  <course>46.19</course>
  <speed>1.0</speed>
  <fix>3d</fix>
</trkpt>
<trkpt lat="33.8106366" lon="-118.3953918">
  <ele>-25.007</ele>
  <time>2026-09-02T22:08:47Z</time>
  <course>136.39</course>
  <speed>1.0191172650877818</speed>
  <fix>3d</fix>
</trkpt>
<trkpt lat="33.8106358" lon="-118.3953932">
  <ele>-24.4</ele>
  <time>2026-09-02T22:08:47Z</time>
  <course>46.41</course>
  <speed>1.0</speed>
  <fix>3d</fix>
</trkpt>
<trkpt lat="33.8106372" lon="-118.3953911">
  <ele>-25.009</ele>
  <time>2026-09-02T22:08:47Z</time>
  <course>136.51</course>
  <speed>1.0123734488813898</speed>
  <fix>3d</fix>
</trkpt>
<trkpt lat="33.8106358" lon="-118.3953932">
  <ele>-24.4</ele>
  <time>2026-09-02T22:08:47Z</time>
  <course>46.41</course>
  <speed>1.0</speed>
  <fix>3d</fix>
</trkpt>
<trkpt lat="33.8106379" lon="-118.3953903">
  <ele>-25.011</ele>
  <time>2026-09-02T22:08:47Z</time>
  <course>136.62</course>
  <speed>1.0123734488813898</speed>
  <fix>3d</fix>
</trkpt>
<trkpt lat="33.8106371" lon="-118.3953916">
  <ele>-24.4</ele>
  <time>2026-09-02T22:08:47Z</time>
  <course>46.67</course>
  <speed>1.0</speed>
  <fix>3d</fix>
</trkpt>
<trkpt lat="33.8106385" lon="-118.3953895">
  <ele>-25.013</ele>
  <time>2026-09-02T22:08:47Z</time>
  <course>136.73</course>
  <speed>1.019803902718557</speed>
  <fix>3d</fix>
</trkpt>
<trkpt lat="33.8106371" lon="-118.3953916">
  <ele>-24.4</ele>
  <time>2026-09-02T22:08:47Z</time>
  <course>46.67</course>
  <speed>1.0</speed>
  <fix>3d</fix>
</trkpt>
<trkpt lat="33.8106391" lon="-118.3953887">
  <ele>-25.014</ele>
  <time>2026-09-02T22:08:47Z</time>
  <course>136.85</course>
  <speed>1.019803902718557</speed>
  <fix>3d</fix>
</trkpt>
<trkpt lat="33.8106383" lon="-118.39539">
  <ele>-24.4</ele>
  <time>2026-09-02T22:08:47Z</time>
  <course>46.96</course>
  <speed>1.0</speed>
  <fix>3d</fix>
</trkpt>
<trkpt lat="33.8106397" lon="-118.3953879">
  <ele>-25.014</ele>
  <time>2026-09-02T22:08:47Z</time>
  <course>136.96</course>
  <speed>1.019803902718557</speed>
  <fix>3d</fix>
</trkpt>
<trkpt lat="33.8106383" lon="-118.39539">
  <ele>-24.4</ele>
  <time>2026-09-02T22:08:47Z</time>
  <course>46.96</course>
  <speed>1.0</speed>
  <fix>3d</fix>
</trkpt>
<trkpt lat="33.8106403" lon="-118.3953871">
  <ele>-25.014</ele>
  <time>2026-09-02T22:08:47Z</time>
  <course>137.08</course>
  <speed>1.0131633629380803</speed>
  <fix>3d</fix>
</trkpt>
<trkpt lat="33.8106395" lon="-118.3953884">
  <ele>-24.4</ele>
  <time>2026-09-02T22:08:47Z</time>
  <course>47.25</course>
  <speed>1.0</speed>
  <fix>3d</fix>
</trkpt>
<trkpt lat="33.8106409" lon="-118.3953863">
  <ele>-25.013</ele>
  <time>2026-09-02T22:08:47Z</time>
  <course>137.2</course>
  <speed>1.0131633629380803</speed>
  <fix>3d</fix>
</trkpt>
<trkpt lat="33.8106395" lon="-118.3953884">
  <ele>-24.4</ele>
  <time>2026-09-02T22:08:47Z</time>
  <course>47.25</course>
  <speed>1.0</speed>
  <fix>3d</fix>
</trkpt>
<trkpt lat="33.8106415" lon="-118.3953855">
  <ele>-25.012</ele>
  <time>2026-09-02T22:08:47Z</time>
  <course>137.31</course>
  <speed>1.0131633629380803</speed>
  <fix>3d</fix>
</trkpt>
<trkpt lat="33.8106408" lon="-118.3953867">
  <ele>-24.4</ele>
  <time>2026-09-02T22:08:47Z</time>
  <course>47.48</course>
  <speed>1.0</speed>
  <fix>3d</fix>
</trkpt>
<trkpt lat="33.8106421" lon="-118.3953847">
  <ele>-25.01</ele>
  <time>2026-09-02T22:08:47Z</time>
  <course>137.42</course>
  <speed>1.0131633629380803</speed>
  <fix>3d</fix>
</trkpt>
<trkpt lat="33.8106408" lon="-118.3953867">
  <ele>-24.4</ele>
  <time>2026-09-02T22:08:47Z</time>
  <course>47.48</course>
  <speed>1.0</speed>
  <fix>3d</fix>
</trkpt>
<trkpt lat="33.8106427" lon="-118.3953839">
  <ele>-25.01</ele>
  <time>2026-09-02T22:08:47Z</time>
  <course>137.54</course>
  <speed>1.0131633629380803</speed>
  <fix>3d</fix>
</trkpt>
<trkpt lat="33.810642" lon="-118.3953852">
  <ele>-24.4</ele>
  <time>2026-09-02T22:08:47Z</time>
  <course>47.67</course>
  <speed>1.0</speed>
  <fix>3d</fix>
</trkpt>
<trkpt lat="33.8106434" lon="-118.3953831">
  <ele>-25.011</ele>
  <time>2026-09-02T22:08:47Z</time>
  <course>137.65</course>
  <speed>1.0131633629380803</speed>
  <fix>3d</fix>
</trkpt>
<trkpt lat="33.810642" lon="-118.3953852">
  <ele>-24.4</ele>
  <time>2026-09-02T22:08:47Z</time>
  <course>47.67</course>
  <speed>1.0</speed>
  <fix>3d</fix>
</trkpt>
<trkpt lat="33.810644" lon="-118.3953823">
  <ele>-25.012</ele>
  <time>2026-09-02T22:08:47Z</time>
  <course>137.77</course>
  <speed>1.0141498903022177</speed>
  <fix>3d</fix>
</trkpt>
<trkpt lat="33.8106432" lon="-118.3953836">
  <ele>-24.4</ele>
  <time>2026-09-02T22:08:47Z</time>
  <course>47.88</course>
  <speed>1.0</speed>
  <fix>3d</fix>
</trkpt>
<trkpt lat="33.8106446" lon="-118.3953815">
  <ele>-25.013</ele>
  <time>2026-09-02T22:08:47Z</time>
  <course>137.88</course>
  <speed>1.0141498903022177</speed>
  <fix>3d</fix>
</trkpt>
<trkpt lat="33.8106432" lon="-118.3953836">
  <ele>-24.4</ele>
  <time>2026-09-02T22:08:47Z</time>
  <course>47.88</course>
  <speed>1.0</speed>
  <fix>3d</fix>
</trkpt>
<trkpt lat="33.8106452" lon="-118.3953807">
  <ele>-25.015</ele>
  <time>2026-09-02T22:08:47Z</time>
  <course>138.0</course>
  <speed>1.0141498903022177</speed>
  <fix>3d</fix>
</trkpt>
<trkpt lat="33.8106444" lon="-118.3953819">
  <ele>-24.4</ele>
  <time>2026-09-02T22:08:47Z</time>
  <course>48.12</course>
  <speed>1.0</speed>
  <fix>3d</fix>
</trkpt>
<trkpt lat="33.8106458" lon="-118.3953799">
  <ele>-25.015</ele>
  <time>2026-09-02T22:08:47Z</time>
  <course>138.11</course>
  <speed>1.0141498903022177</speed>
  <fix>3d</fix>
</trkpt>
<trkpt lat="33.8106444" lon="-118.3953819">
  <ele>-24.4</ele>
  <time>2026-09-02T22:08:47Z</time>
  <course>48.12</course>
  <speed>1.0</speed>
  <fix>3d</fix>
</trkpt>
<trkpt lat="33.8106464" lon="-118.395379">
  <ele>-25.015</ele>
  <time>2026-09-02T22:08:47Z</time>
  <course>138.23</course>
  <speed>1.0141498903022177</speed>
  <fix>3d</fix>
</trkpt>
<trkpt lat="33.8106456" lon="-118.3953804">
  <ele>-24.4</ele>
  <time>2026-09-02T22:08:47Z</time>
  <course>48.34</course>
  <speed>1.0</speed>
  <fix>3d</fix>
</trkpt>
<trkpt lat="33.810647" lon="-118.3953782">
  <ele>-25.014</ele>
  <time>2026-09-02T22:08:47Z</time>
  <course>138.34</course>
  <speed>1.0141498903022177</speed>
  <fix>3d</fix>
</trkpt>
<trkpt lat="33.8106456" lon="-118.3953804">
  <ele>-24.4</ele>
  <time>2026-09-02T22:08:47Z</time>
  <course>48.34</course>
  <speed>1.0</speed>
  <fix>3d</fix>
</trkpt>
<trkpt lat="33.8106475" lon="-118.3953774">
  <ele>-25.013</ele>
  <time>2026-09-02T22:08:47Z</time>
  <course>138.45</course>
  <speed>1.007670581092849</speed>
  <fix>3d</fix>
</trkpt>
<trkpt lat="33.8106468" lon="-118.3953787">
  <ele>-24.4</ele>
  <time>2026-09-02T22:08:47Z</time>
  <course>48.55</course>
  <speed>1.0</speed>
  <fix>3d</fix>
</trkpt>
<trkpt lat="33.8106481" lon="-118.3953766">
  <ele>-25.013</ele>
  <time>2026-09-02T22:08:47Z</time>
  <course>138.57</course>
  <speed>1.007670581092849</speed>
  <fix>3d</fix>
</trkpt>
<trkpt lat="33.8106468" lon="-118.3953787">
  <ele>-24.4</ele>
  <time>2026-09-02T22:08:47Z</time>
  <course>48.55</course>
  <speed>1.0</speed>
  <fix>3d</fix>
</trkpt>
<trkpt lat="33.8106487" lon="-118.3953758">
  <ele>-25.013</ele>
  <time>2026-09-02T22:08:47Z</time>
  <course>138.68</course>
  <speed>1.007670581092849</speed>
  <fix>3d</fix>
</trkpt>
<trkpt lat="33.810648" lon="-118.3953771">
  <ele>-24.4</ele>
  <time>2026-09-02T22:08:47Z</time>
  <course>48.77</course>
  <speed>1.0</speed>
  <fix>3d</fix>
</trkpt>
<trkpt lat="33.8106493" lon="-118.395375">
  <ele>-25.012</ele>
  <time>2026-09-02T22:08:47Z</time>
  <course>138.8</course>
  <speed>1.015332457867865</speed>
  <fix>3d</fix>
</trkpt>
<trkpt lat="33.810648" lon="-118.3953771">
  <ele>-24.4</ele>
  <time>2026-09-02T22:08:47Z</time>
  <course>48.77</course>
  <speed>1.0</speed>
  <fix>3d</fix>
</trkpt>
<trkpt lat="33.8106499" lon="-118.3953742">
  <ele>-25.01</ele>
  <time>2026-09-02T22:08:47Z</time>
  <course>138.91</course>
  <speed>1.015332457867865</speed>
  <fix>3d</fix>
</trkpt>
<trkpt lat="33.8106492" lon="-118.3953755">
  <ele>-24.4</ele>
  <time>2026-09-02T22:08:47Z</time>
  <course>49.0</course>
  <speed>1.0</speed>
  <fix>3d</fix>
</trkpt>
<trkpt lat="33.8106505" lon="-118.3953733">
  <ele>-25.009</ele>
  <time>2026-09-02T22:08:47Z</time>
  <course>139.02</course>
  <speed>1.015332457867865</speed>
  <fix>3d</fix>
</trkpt>
<trkpt lat="33.8106492" lon="-118.3953755">
  <ele>-24.4</ele>
  <time>2026-09-02T22:08:47Z</time>
  <course>49.0</course>
  <speed>1.0</speed>
  <fix>3d</fix>
</trkpt>
<trkpt lat="33.8106511" lon="-118.3953725">
  <ele>-25.008</ele>
  <time>2026-09-02T22:08:47Z</time>
  <course>139.14</course>
  <speed>1.0089598604503551</speed>
  <fix>3d</fix>
</trkpt>
<trkpt lat="33.8106503" lon="-118.3953738">
  <ele>-24.4</ele>
  <time>2026-09-02T22:08:47Z</time>
  <course>49.27</course>
  <speed>0.99</speed>
  <fix>3d</fix>
</trkpt>
<trkpt lat="33.8106517" lon="-118.3953717">
  <ele>-25.009</ele>
  <time>2026-09-02T22:08:47Z</time>
  <course>139.26</course>
  <speed>1.0089598604503551</speed>
  <fix>3d</fix>
</trkpt>
<trkpt lat="33.8106503" lon="-118.3953738">
  <ele>-24.4</ele>
  <time>2026-09-02T22:08:47Z</time>
  <course>49.27</course>
  <speed>0.99</speed>
  <fix>3d</fix>
</trkpt>
<trkpt lat="33.8106523" lon="-118.3953709">
  <ele>-25.011</ele>
  <time>2026-09-02T22:08:47Z</time>
  <course>139.37</course>
  <speed>1.0089598604503551</speed>
  <fix>3d</fix>
</trkpt>
<trkpt lat="33.8106515" lon="-118.3953722">
  <ele>-24.4</ele>
  <time>2026-09-02T22:08:47Z</time>
  <course>49.51</course>
  <speed>0.99</speed>
  <fix>3d</fix>
</trkpt>
<trkpt lat="33.8106528" lon="-118.39537">
  <ele>-25.014</ele>
  <time>2026-09-02T22:08:47Z</time>
  <course>139.49</course>
  <speed>1.0089598604503551</speed>
  <fix>3d</fix>
</trkpt>
<trkpt lat="33.8106515" lon="-118.3953722">
  <ele>-24.4</ele>
  <time>2026-09-02T22:08:47Z</time>
  <course>49.51</course>
  <speed>0.99</speed>
  <fix>3d</fix>
</trkpt>
<trkpt lat="33.8106534" lon="-118.3953692">
  <ele>-25.016</ele>
  <time>2026-09-02T22:08:47Z</time>
  <course>139.6</course>
  <speed>1.0089598604503551</speed>
  <fix>3d</fix>
</trkpt>
<trkpt lat="33.8106527" lon="-118.3953705">
  <ele>-24.4</ele>
  <time>2026-09-02T22:08:47Z</time>
  <course>49.69</course>
  <speed>0.99</speed>
  <fix>3d</fix>
</trkpt>
<trkpt lat="33.810654" lon="-118.3953684">
  <ele>-25.016</ele>
  <time>2026-09-02T22:08:47Z</time>
  <course>139.72</course>
  <speed>1.0167103815738285</speed>
  <fix>3d</fix>
</trkpt>
<trkpt lat="33.8106527" lon="-118.3953705">
  <ele>-24.4</ele>
  <time>2026-09-02T22:08:47Z</time>
  <course>49.69</course>
  <speed>0.99</speed>
  <fix>3d</fix>
</trkpt>
<trkpt lat="33.8106546" lon="-118.3953676">
  <ele>-25.016</ele>
  <time>2026-09-02T22:08:47Z</time>
  <course>139.83</course>
  <speed>1.0167103815738285</speed>
  <fix>3d</fix>
</trkpt>
<trkpt lat="33.8106538" lon="-118.3953689">
  <ele>-24.41</ele>
  <time>2026-09-02T22:08:47Z</time>
  <course>49.89</course>
  <speed>0.99</speed>
  <fix>3d</fix>
</trkpt>
<trkpt lat="33.8106552" lon="-118.3953667">
  <ele>-25.014</ele>
  <time>2026-09-02T22:08:47Z</time>
  <course>139.94</course>
  <speed>1.0104454463255303</speed>
  <fix>3d</fix>
</trkpt>
<trkpt lat="33.8106538" lon="-118.3953689">
  <ele>-24.41</ele>
  <time>2026-09-02T22:08:47Z</time>
  <course>49.89</course>
  <speed>0.99</speed>
  <fix>3d</fix>
</trkpt>
<trkpt lat="33.8106557" lon="-118.3953659">
  <ele>-25.012</ele>
  <time>2026-09-02T22:08:47Z</time>
  <course>140.06</course>
  <speed>1.0104454463255303</speed>
  <fix>3d</fix>
</trkpt>
<trkpt lat="33.8106549" lon="-118.3953672">
  <ele>-24.41</ele>
  <time>2026-09-02T22:08:47Z</time>
  <course>50.1</course>
  <speed>0.99</speed>
  <fix>3d</fix>
</trkpt>
<trkpt lat="33.8106563" lon="-118.3953651">
  <ele>-25.011</ele>
  <time>2026-09-02T22:08:47Z</time>
  <course>140.18</course>
  <speed>1.0104454463255303</speed>
  <fix>3d</fix>
</trkpt>
<trkpt lat="33.8106549" lon="-118.3953672">
  <ele>-24.41</ele>
  <time>2026-09-02T22:08:47Z</time>
  <course>50.1</course>
  <speed>0.99</speed>
  <fix>3d</fix>
</trkpt>
<trkpt lat="33.8106569" lon="-118.3953642">
  <ele>-25.011</ele>
  <time>2026-09-02T22:08:47Z</time>
  <course>140.29</course>
  <speed>1.0104454463255303</speed>
  <fix>3d</fix>
</trkpt>
<trkpt lat="33.8106561" lon="-118.3953656">
  <ele>-24.41</ele>
  <time>2026-09-02T22:08:47Z</time>
  <course>50.26</course>
  <speed>0.99</speed>
  <fix>3d</fix>
</trkpt>
<trkpt lat="33.8106574" lon="-118.3953634">
  <ele>-25.012</ele>
  <time>2026-09-02T22:08:47Z</time>
  <course>140.4</course>
  <speed>1.0104454463255303</speed>
  <fix>3d</fix>
</trkpt>
<trkpt lat="33.8106561" lon="-118.3953656">
  <ele>-24.41</ele>
  <time>2026-09-02T22:08:47Z</time>
  <course>50.26</course>
  <speed>0.99</speed>
  <fix>3d</fix>
</trkpt>
<trkpt lat="33.810658" lon="-118.3953626">
  <ele>-25.014</ele>
  <time>2026-09-02T22:08:47Z</time>
  <course>140.52</course>
  <speed>1.0104454463255303</speed>
  <fix>3d</fix>
</trkpt>
<trkpt lat="33.8106572" lon="-118.3953639">
  <ele>-24.41</ele>
  <time>2026-09-02T22:08:47Z</time>
  <course>50.41</course>
  <speed>0.99</speed>
  <fix>3d</fix>
</trkpt>
<trkpt lat="33.8106586" lon="-118.3953617">
  <ele>-25.016</ele>
  <time>2026-09-02T22:08:47Z</time>
  <course>140.63</course>
  <speed>1.0182828683622247</speed>
  <fix>3d</fix>
</trkpt>
<trkpt lat="33.8106572" lon="-118.3953639">
  <ele>-24.41</ele>
  <time>2026-09-02T22:08:47Z</time>
  <course>50.41</course>
  <speed>0.99</speed>
  <fix>3d</fix>
</trkpt>
<trkpt lat="33.8106591" lon="-118.3953609">
  <ele>-25.017</ele>
  <time>2026-09-02T22:08:47Z</time>
  <course>140.75</course>
  <speed>1.0182828683622247</speed>
  <fix>3d</fix>
</trkpt>
<trkpt lat="33.8106584" lon="-118.3953622">
  <ele>-24.41</ele>
  <time>2026-09-02T22:08:47Z</time>
  <course>50.59</course>
  <speed>0.99</speed>
  <fix>3d</fix>
</trkpt>
<trkpt lat="33.8106597" lon="-118.39536">
  <ele>-25.017</ele>
  <time>2026-09-02T22:08:47Z</time>
  <course>140.86</course>
  <speed>1.0121264743103995</speed>
  <fix>3d</fix>
</trkpt>
<trkpt lat="33.8106584" lon="-118.3953622">
  <ele>-24.41</ele>
  <time>2026-09-02T22:08:47Z</time>
  <course>50.59</course>
  <speed>0.99</speed>
  <fix>3d</fix>
</trkpt>
<trkpt lat="33.8106603" lon="-118.3953592">
  <ele>-25.018</ele>
  <time>2026-09-02T22:08:47Z</time>
  <course>140.98</course>
  <speed>1.0121264743103995</speed>
  <fix>3d</fix>
</trkpt>
<trkpt lat="33.8106595" lon="-118.3953606">
  <ele>-24.41</ele>
  <time>2026-09-02T22:08:47Z</time>
  <course>50.79</course>
  <speed>0.99</speed>
  <fix>3d</fix>
</trkpt>
<trkpt lat="33.8106608" lon="-118.3953584">
  <ele>-25.018</ele>
  <time>2026-09-02T22:08:47Z</time>
  <course>141.09</course>
  <speed>1.0121264743103995</speed>
  <fix>3d</fix>
</trkpt>
<trkpt lat="33.8106595" lon="-118.3953606">
  <ele>-24.41</ele>
  <time>2026-09-02T22:08:47Z</time>
  <course>50.79</course>
  <speed>0.99</speed>
  <fix>3d</fix>
</trkpt>
<trkpt lat="33.8106614" lon="-118.3953575">
  <ele>-25.018</ele>
  <time>2026-09-02T22:08:47Z</time>
  <course>141.21</course>
  <speed>1.0121264743103995</speed>
  <fix>3d</fix>
</trkpt>
<trkpt lat="33.8106607" lon="-118.3953589">
  <ele>-24.41</ele>
  <time>2026-09-02T22:08:47Z</time>
  <course>51.01</course>
  <speed>1.0</speed>
  <fix>3d</fix>
</trkpt>
<trkpt lat="33.810662" lon="-118.3953567">
  <ele>-25.017</ele>
  <time>2026-09-02T22:08:47Z</time>
  <course>141.32</course>
  <speed>1.0121264743103995</speed>
  <fix>3d</fix>
</trkpt>
<trkpt lat="33.8106607" lon="-118.3953589">
  <ele>-24.41</ele>
  <time>2026-09-02T22:08:47Z</time>
  <course>51.01</course>
  <speed>1.0</speed>
  <fix>3d</fix>
</trkpt>
<trkpt lat="33.8106625" lon="-118.3953558">
  <ele>-25.016</ele>
  <time>2026-09-02T22:08:47Z</time>
  <course>141.43</course>
  <speed>1.0200490184299968</speed>
  <fix>3d</fix>
</trkpt>
<trkpt lat="33.8106618" lon="-118.3953572">
  <ele>-24.4</ele>
  <time>2026-09-02T22:08:47Z</time>
  <course>51.29</course>
  <speed>1.0</speed>
  <fix>3d</fix>
</trkpt>
<trkpt lat="33.8106631" lon="-118.395355">
  <ele>-25.015</ele>
  <time>2026-09-02T22:08:47Z</time>
  <course>141.55</course>
  <speed>1.0140019723846694</speed>
  <fix>3d</fix>
</trkpt>
<trkpt lat="33.8106618" lon="-118.3953572">
  <ele>-24.4</ele>
  <time>2026-09-02T22:08:47Z</time>
  <course>51.29</course>
  <speed>1.0</speed>
  <fix>3d</fix>
</trkpt>
<trkpt lat="33.8106636" lon="-118.3953541">
  <ele>-25.013</ele>
  <time>2026-09-02T22:08:47Z</time>
  <course>141.66</course>
  <speed>1.0140019723846694</speed>
  <fix>3d</fix>
</trkpt>
<trkpt lat="33.8106629" lon="-118.3953555">
  <ele>-24.4</ele>
  <time>2026-09-02T22:08:47Z</time>
  <course>51.59</course>
  <speed>1.0</speed>
  <fix>3d</fix>
</trkpt>
<trkpt lat="33.8106642" lon="-118.3953533">
  <ele>-25.013</ele>
  <time>2026-09-02T22:08:47Z</time>
  <course>141.78</course>
  <speed>1.0140019723846694</speed>
  <fix>3d</fix>
</trkpt>
<trkpt lat="33.8106629" lon="-118.3953555">
  <ele>-24.4</ele>
  <time>2026-09-02T22:08:47Z</time>
  <course>51.59</course>
  <speed>1.0</speed>
  <fix>3d</fix>
</trkpt>
<trkpt lat="33.8106647" lon="-118.3953524">
  <ele>-25.013</ele>
  <time>2026-09-02T22:08:47Z</time>
  <course>141.89</course>
  <speed>1.0140019723846694</speed>
  <fix>3d</fix>
</trkpt>
<trkpt lat="33.810664" lon="-118.3953538">
  <ele>-24.4</ele>
  <time>2026-09-02T22:08:47Z</time>
  <course>51.86</course>
  <speed>0.99</speed>
  <fix>3d</fix>
</trkpt>
<trkpt lat="33.8106653" lon="-118.3953516">
  <ele>-25.014</ele>
  <time>2026-09-02T22:08:47Z</time>
  <course>142.01</course>
  <speed>1.0140019723846694</speed>
  <fix>3d</fix>
</trkpt>
<trkpt lat="33.810664" lon="-118.3953538">
  <ele>-24.4</ele>
  <time>2026-09-02T22:08:47Z</time>
  <course>51.86</course>
  <speed>0.99</speed>
  <fix>3d</fix>
</trkpt>
<trkpt lat="33.8106658" lon="-118.3953507">
  <ele>-25.013</ele>
  <time>2026-09-02T22:08:47Z</time>
  <course>142.12</course>
  <speed>1.0140019723846694</speed>
  <fix>3d</fix>
</trkpt>
<trkpt lat="33.8106651" lon="-118.3953521">
  <ele>-24.4</ele>
  <time>2026-09-02T22:08:47Z</time>
  <course>52.09</course>
  <speed>0.99</speed>
  <fix>3d</fix>
</trkpt>
<trkpt lat="33.8106664" lon="-118.3953498">
  <ele>-25.011</ele>
  <time>2026-09-02T22:08:47Z</time>
  <course>142.24</course>
  <speed>1.0080178569846865</speed>
  <fix>3d</fix>
</trkpt>
<trkpt lat="33.8106651" lon="-118.3953521">
  <ele>-24.4</ele>
  <time>2026-09-02T22:08:47Z</time>
  <course>52.09</course>
  <speed>0.99</speed>
  <fix>3d</fix>
</trkpt>
<trkpt lat="33.8106669" lon="-118.395349">
  <ele>-25.01</ele>
  <time>2026-09-02T22:08:47Z</time>
  <course>142.35</course>
  <speed>1.016070863670443</speed>
  <fix>3d</fix>
</trkpt>
<trkpt lat="33.8106662" lon="-118.3953504">
  <ele>-24.4</ele>
  <time>2026-09-02T22:08:47Z</time>
  <course>52.3</course>
  <speed>1.0</speed>
  <fix>3d</fix>
</trkpt>
<trkpt lat="33.8106675" lon="-118.3953481">
  <ele>-25.009</ele>
  <time>2026-09-02T22:08:47Z</time>
  <course>142.46</course>
  <speed>1.016070863670443</speed>
  <fix>3d</fix>
</trkpt>
<trkpt lat="33.8106662" lon="-118.3953504">
  <ele>-24.4</ele>
  <time>2026-09-02T22:08:47Z</time>
  <course>52.3</course>
  <speed>1.0</speed>
  <fix>3d</fix>
</trkpt>
<trkpt lat="33.810668" lon="-118.3953473">
  <ele>-25.008</ele>
  <time>2026-09-02T22:08:47Z</time>
  <course>142.58</course>
  <speed>1.016070863670443</speed>
  <fix>3d</fix>
</trkpt>
<trkpt lat="33.8106673" lon="-118.3953487">
  <ele>-24.4</ele>
  <time>2026-09-02T22:08:47Z</time>
  <course>52.52</course>
  <speed>1.0</speed>
  <fix>3d</fix>
</trkpt>
<trkpt lat="33.8106686" lon="-118.3953464">
  <ele>-25.009</ele>
  <time>2026-09-02T22:08:47Z</time>
  <course>142.69</course>
  <speed>1.016070863670443</speed>
  <fix>3d</fix>
</trkpt>
<trkpt lat="33.8106673" lon="-118.3953487">
  <ele>-24.4</ele>
  <time>2026-09-02T22:08:47Z</time>
  <course>52.52</course>
  <speed>1.0</speed>
  <fix>3d</fix>
</trkpt>
<trkpt lat="33.8106691" lon="-118.3953455">
  <ele>-25.011</ele>
  <time>2026-09-02T22:08:47Z</time>
  <course>142.81</course>
  <speed>1.016070863670443</speed>
  <fix>3d</fix>
</trkpt>
<trkpt lat="33.8106684" lon="-118.3953469">
  <ele>-24.4</ele>
  <time>2026-09-02T22:08:47Z</time>
  <course>52.74</course>
  <speed>1.0</speed>
  <fix>3d</fix>
</trkpt>
<trkpt lat="33.8106696" lon="-118.3953447">
  <ele>-25.013</ele>
  <time>2026-09-02T22:08:47Z</time>
  <course>142.93</course>
  <speed>1.010198000393982</speed>
  <fix>3d</fix>
</trkpt>
<trkpt lat="33.8106684" lon="-118.3953469">
  <ele>-24.4</ele>
  <time>2026-09-02T22:08:47Z</time>
  <course>52.74</course>
  <speed>1.0</speed>
  <fix>3d</fix>
</trkpt>
<trkpt lat="33.8106702" lon="-118.3953438">
  <ele>-25.014</ele>
  <time>2026-09-02T22:08:47Z</time>
  <course>143.04</course>
  <speed>1.010198000393982</speed>
  <fix>3d</fix>
</trkpt>
<trkpt lat="33.8106695" lon="-118.3953452">
  <ele>-24.4</ele>
  <time>2026-09-02T22:08:47Z</time>
  <course>52.95</course>
  <speed>1.0</speed>
  <fix>3d</fix>
</trkpt>
<trkpt lat="33.8106707" lon="-118.3953429">
  <ele>-25.014</ele>
  <time>2026-09-02T22:08:47Z</time>
  <course>143.15</course>
  <speed>1.010198000393982</speed>
  <fix>3d</fix>
</trkpt>
<trkpt lat="33.8106695" lon="-118.3953452">
  <ele>-24.4</ele>
  <time>2026-09-02T22:08:47Z</time>
  <course>52.95</course>
  <speed>1.0</speed>
  <fix>3d</fix>
</trkpt>
<trkpt lat="33.8106713" lon="-118.3953421">
  <ele>-25.013</ele>
  <time>2026-09-02T22:08:47Z</time>
  <course>143.27</course>
  <speed>1.010198000393982</speed>
  <fix>3d</fix>
</trkpt>
<trkpt lat="33.8106706" lon="-118.3953435">
  <ele>-24.4</ele>
  <time>2026-09-02T22:08:47Z</time>
  <course>53.15</course>
  <speed>1.0</speed>
  <fix>3d</fix>
</trkpt>
<trkpt lat="33.8106718" lon="-118.3953412">
  <ele>-25.012</ele>
  <time>2026-09-02T22:08:47Z</time>
  <course>143.38</course>
  <speed>1.0183319694480775</speed>
  <fix>3d</fix>
</trkpt>
<trkpt lat="33.8106706" lon="-118.3953435">
  <ele>-24.4</ele>
  <time>2026-09-02T22:08:47Z</time>
  <course>53.15</course>
  <speed>1.0</speed>
  <fix>3d</fix>
</trkpt>
<trkpt lat="33.8106723" lon="-118.3953403">
  <ele>-25.011</ele>
  <time>2026-09-02T22:08:47Z</time>
  <course>143.5</course>
  <speed>1.0183319694480775</speed>
  <fix>3d</fix>
</trkpt>
<trkpt lat="33.8106717" lon="-118.3953418">
  <ele>-24.4</ele>
  <time>2026-09-02T22:08:47Z</time>
  <course>53.39</course>
  <speed>1.0</speed>
  <fix>3d</fix>
</trkpt>
<trkpt lat="33.8106729" lon="-118.3953395">
  <ele>-25.009</ele>
  <time>2026-09-02T22:08:47Z</time>
  <course>143.61</course>
  <speed>1.0125709851659783</speed>
  <fix>3d</fix>
</trkpt>
<trkpt lat="33.8106717" lon="-118.3953418">
  <ele>-24.4</ele>
  <time>2026-09-02T22:08:47Z</time>
  <course>53.39</course>
  <speed>1.0</speed>
  <fix>3d</fix>
</trkpt>
<trkpt lat="33.8106734" lon="-118.3953386">
  <ele>-25.008</ele>
  <time>2026-09-02T22:08:47Z</time>
  <course>143.72</course>
  <speed>1.0125709851659783</speed>
  <fix>3d</fix>
</trkpt>
<trkpt lat="33.8106727" lon="-118.39534">
  <ele>-24.4</ele>
  <time>2026-09-02T22:08:47Z</time>
  <course>53.69</course>
  <speed>1.0</speed>
  <fix>3d</fix>
</trkpt>
<trkpt lat="33.8106739" lon="-118.3953377">
  <ele>-25.009</ele>
  <time>2026-09-02T22:08:47Z</time>
  <course>143.84</course>
  <speed>1.0125709851659783</speed>
  <fix>3d</fix>
</trkpt>
<trkpt lat="33.8106727" lon="-118.39534">
  <ele>-24.4</ele>
  <time>2026-09-02T22:08:47Z</time>
  <course>53.69</course>
  <speed>1.0</speed>
  <fix>3d</fix>
</trkpt>
<trkpt lat="33.8106745" lon="-118.3953368">
  <ele>-25.011</ele>
  <time>2026-09-02T22:08:47Z</time>
  <course>143.96</course>
  <speed>1.0125709851659783</speed>
  <fix>3d</fix>
</trkpt>
<trkpt lat="33.8106738" lon="-118.3953383">
  <ele>-24.4</ele>
  <time>2026-09-02T22:08:47Z</time>
  <course>53.98</course>
  <speed>1.0</speed>
  <fix>3d</fix>
</trkpt>
<trkpt lat="33.810675" lon="-118.395336">
  <ele>-25.014</ele>
  <time>2026-09-02T22:08:47Z</time>
  <course>144.07</course>
  <speed>1.0125709851659783</speed>
  <fix>3d</fix>
</trkpt>
<trkpt lat="33.8106738" lon="-118.3953383">
  <ele>-24.4</ele>
  <time>2026-09-02T22:08:47Z</time>
  <course>53.98</course>
  <speed>1.0</speed>
  <fix>3d</fix>
</trkpt>
<trkpt lat="33.8106755" lon="-118.3953351">
  <ele>-25.016</ele>
  <time>2026-09-02T22:08:47Z</time>
  <course>144.18</course>
  <speed>1.0151354589413177</speed>
  <fix>3d</fix>
</trkpt>
<trkpt lat="33.8106748" lon="-118.3953366">
  <ele>-24.41</ele>
  <time>2026-09-02T22:08:47Z</time>
  <course>54.22</course>
  <speed>1.0</speed>
  <fix>3d</fix>
</trkpt>
<trkpt lat="33.810676" lon="-118.3953342">
  <ele>-25.017</ele>
  <time>2026-09-02T22:08:47Z</time>
  <course>144.3</course>
  <speed>1.0151354589413177</speed>
  <fix>3d</fix>
</trkpt>
<trkpt lat="33.8106748" lon="-118.3953366">
  <ele>-24.41</ele>
  <time>2026-09-02T22:08:47Z</time>
  <course>54.22</course>
  <speed>1.0</speed>
  <fix>3d</fix>
</trkpt>
<trkpt lat="33.8106765" lon="-118.3953333">
  <ele>-25.017</ele>
  <time>2026-09-02T22:08:47Z</time>
  <course>144.41</course>
  <speed>1.0151354589413177</speed>
  <fix>3d</fix>
</trkpt>
<trkpt lat="33.8106759" lon="-118.3953348">
  <ele>-24.41</ele>
  <time>2026-09-02T22:08:47Z</time>
  <course>54.47</course>
  <speed>1.0</speed>
  <fix>3d</fix>
</trkpt>
<trkpt lat="33.8106771" lon="-118.3953324">
  <ele>-25.016</ele>
  <time>2026-09-02T22:08:47Z</time>
  <course>144.52</course>
  <speed>1.0151354589413177</speed>
  <fix>3d</fix>
</trkpt>
<trkpt lat="33.8106759" lon="-118.3953348">
  <ele>-24.41</ele>
  <time>2026-09-02T22:08:47Z</time>
  <course>54.47</course>
  <speed>1.0</speed>
  <fix>3d</fix>
</trkpt>
<trkpt lat="33.8106776" lon="-118.3953316">
  <ele>-25.015</ele>
  <time>2026-09-02T22:08:47Z</time>
  <course>144.64</course>
  <speed>1.0151354589413177</speed>
  <fix>3d</fix>
</trkpt>
<trkpt lat="33.810677" lon="-118.395333">
  <ele>-24.41</ele>
  <time>2026-09-02T22:08:47Z</time>
  <course>54.73</course>
  <speed>1.0</speed>
  <fix>3d</fix>
</trkpt>
<trkpt lat="33.8106781" lon="-118.3953307">
  <ele>-25.014</ele>
  <time>2026-09-02T22:08:47Z</time>
  <course>144.76</course>
  <speed>1.0151354589413177</speed>
  <fix>3d</fix>
</trkpt>
<trkpt lat="33.810677" lon="-118.395333">
  <ele>-24.41</ele>
  <time>2026-09-02T22:08:47Z</time>
  <course>54.73</course>
  <speed>1.0</speed>
  <fix>3d</fix>
</trkpt>
<trkpt lat="33.8106786" lon="-118.3953298">
  <ele>-25.013</ele>
  <time>2026-09-02T22:08:47Z</time>
  <course>144.87</course>
  <speed>1.009554357129917</speed>
  <fix>3d</fix>
</trkpt>
<trkpt lat="33.8106779" lon="-118.3953313">
  <ele>-24.41</ele>
  <time>2026-09-02T22:08:47Z</time>
  <course>55.0</course>
  <speed>1.0</speed>
  <fix>3d</fix>
</trkpt>
<trkpt lat="33.8106791" lon="-118.3953289">
  <ele>-25.013</ele>
  <time>2026-09-02T22:08:47Z</time>
  <course>144.99</course>
  <speed>1.0178899744078433</speed>
  <fix>3d</fix>
</trkpt>
<trkpt lat="33.8106779" lon="-118.3953313">
  <ele>-24.41</ele>
  <time>2026-09-02T22:08:47Z</time>
  <course>55.0</course>
  <speed>1.0</speed>
  <fix>3d</fix>
</trkpt>
<trkpt lat="33.8106796" lon="-118.395328">
  <ele>-25.011</ele>
  <time>2026-09-02T22:08:47Z</time>
  <course>145.1</course>
  <speed>1.0178899744078433</speed>
  <fix>3d</fix>
</trkpt>
<trkpt lat="33.810679" lon="-118.3953295">
  <ele>-24.41</ele>
  <time>2026-09-02T22:08:47Z</time>
  <course>55.24</course>
  <speed>1.0</speed>
  <fix>3d</fix>
</trkpt>
<trkpt lat="33.8106802" lon="-118.3953271">
  <ele>-25.01</ele>
  <time>2026-09-02T22:08:47Z</time>
  <course>145.22</course>
  <speed>1.0178899744078433</speed>
  <fix>3d</fix>
</trkpt>
<trkpt lat="33.810679" lon="-118.3953295">
  <ele>-24.41</ele>
  <time>2026-09-02T22:08:47Z</time>
  <course>55.24</course>
  <speed>1.0</speed>
  <fix>3d</fix>
</trkpt>
<trkpt lat="33.8106807" lon="-118.3953262">
  <ele>-25.009</ele>
  <time>2026-09-02T22:08:48Z</time>
  <course>145.33</course>
  <speed>1.0178899744078433</speed>
  <fix>3d</fix>
</trkpt>
<trkpt lat="33.8106801" lon="-118.3953277">
  <ele>-24.41</ele>
  <time>2026-09-02T22:08:48Z</time>
  <course>55.47</course>
  <speed>1.0</speed>
  <fix>3d</fix>
</trkpt>
<trkpt lat="33.8106812" lon="-118.3953253">
  <ele>-25.008</ele>
  <time>2026-09-02T22:08:48Z</time>
  <course>145.45</course>
  <speed>1.0124228365658294</speed>
  <fix>3d</fix>
</trkpt>
<trkpt lat="33.8106801" lon="-118.3953277">
  <ele>-24.41</ele>
  <time>2026-09-02T22:08:48Z</time>
  <course>55.47</course>
  <speed>1.0</speed>
  <fix>3d</fix>
</trkpt>
<trkpt lat="33.8106817" lon="-118.3953244">
  <ele>-25.009</ele>
  <time>2026-09-02T22:08:48Z</time>
  <course>145.56</course>
  <speed>1.0124228365658294</speed>
  <fix>3d</fix>
</trkpt>
<trkpt lat="33.810681" lon="-118.3953259">
  <ele>-24.41</ele>
  <time>2026-09-02T22:08:48Z</time>
  <course>55.71</course>
  <speed>1.0</speed>
  <fix>3d</fix>
</trkpt>
<trkpt lat="33.8106822" lon="-118.3953235">
  <ele>-25.011</ele>
  <time>2026-09-02T22:08:48Z</time>
  <course>145.68</course>
  <speed>1.0124228365658294</speed>
  <fix>3d</fix>
</trkpt>
<trkpt lat="33.810681" lon="-118.3953259">
  <ele>-24.41</ele>
  <time>2026-09-02T22:08:48Z</time>
  <course>55.71</course>
  <speed>1.0</speed>
  <fix>3d</fix>
</trkpt>
<trkpt lat="33.8106827" lon="-118.3953226">
  <ele>-25.014</ele>
  <time>2026-09-02T22:08:48Z</time>
  <course>145.79</course>
  <speed>1.0124228365658294</speed>
  <fix>3d</fix>
</trkpt>
<trkpt lat="33.810682" lon="-118.3953241">
  <ele>-24.41</ele>
  <time>2026-09-02T22:08:48Z</time>
  <course>55.96</course>
  <speed>1.0</speed>
  <fix>3d</fix>
</trkpt>
<trkpt lat="33.8106832" lon="-118.3953217">
  <ele>-25.017</ele>
  <time>2026-09-02T22:08:48Z</time>
  <course>145.91</course>
  <speed>1.0124228365658294</speed>
  <fix>3d</fix>
</trkpt>
<trkpt lat="33.810682" lon="-118.3953241">
  <ele>-24.41</ele>
  <time>2026-09-02T22:08:48Z</time>
  <course>55.96</course>
  <speed>1.0</speed>
  <fix>3d</fix>
</trkpt>
<trkpt lat="33.8106837" lon="-118.3953208">
  <ele>-25.019</ele>
  <time>2026-09-02T22:08:48Z</time>
  <course>146.02</course>
  <speed>1.0124228365658294</speed>
  <fix>3d</fix>
</trkpt>
<trkpt lat="33.8106831" lon="-118.3953223">
  <ele>-24.41</ele>
  <time>2026-09-02T22:08:48Z</time>
  <course>56.14</course>
  <speed>1.0</speed>
  <fix>3d</fix>
</trkpt>
<trkpt lat="33.8106842" lon="-118.3953199">
  <ele>-25.021</ele>
  <time>2026-09-02T22:08:48Z</time>
  <course>146.13</course>
  <speed>1.0124228365658294</speed>
  <fix>3d</fix>
</trkpt>
<trkpt lat="33.8106831" lon="-118.3953223">
  <ele>-24.41</ele>
  <time>2026-09-02T22:08:48Z</time>
  <course>56.14</course>
  <speed>1.0</speed>
  <fix>3d</fix>
</trkpt>
<trkpt lat="33.8106847" lon="-118.395319">
  <ele>-25.021</ele>
  <time>2026-09-02T22:08:48Z</time>
  <course>146.25</course>
  <speed>1.0070253224224304</speed>
  <fix>3d</fix>
</trkpt>
<trkpt lat="33.8106841" lon="-118.3953205">
  <ele>-24.42</ele>
  <time>2026-09-02T22:08:48Z</time>
  <course>56.3</course>
  <speed>1.0</speed>
  <fix>3d</fix>
</trkpt>
<trkpt lat="33.8106852" lon="-118.3953181">
  <ele>-25.022</ele>
  <time>2026-09-02T22:08:48Z</time>
  <course>146.36</course>
  <speed>1.0154801819828883</speed>
  <fix>3d</fix>
</trkpt>
<trkpt lat="33.8106841" lon="-118.3953205">
  <ele>-24.42</ele>
  <time>2026-09-02T22:08:48Z</time>
  <course>56.3</course>
  <speed>1.0</speed>
  <fix>3d</fix>
</trkpt>
<trkpt lat="33.8106857" lon="-118.3953172">
  <ele>-25.023</ele>
  <time>2026-09-02T22:08:48Z</time>
  <course>146.48</course>
  <speed>1.0154801819828883</speed>
  <fix>3d</fix>
</trkpt>
<trkpt lat="33.8106851" lon="-118.3953187">
  <ele>-24.42</ele>
  <time>2026-09-02T22:08:48Z</time>
  <course>56.53</course>
  <speed>0.99</speed>
  <fix>3d</fix>
</trkpt>
<trkpt lat="33.8106862" lon="-118.3953163">
  <ele>-25.022</ele>
  <time>2026-09-02T22:08:48Z</time>
  <course>146.59</course>
  <speed>1.0154801819828883</speed>
  <fix>3d</fix>
</trkpt>
<trkpt lat="33.8106851" lon="-118.3953187">
  <ele>-24.42</ele>
  <time>2026-09-02T22:08:48Z</time>
  <course>56.53</course>
  <speed>0.99</speed>
  <fix>3d</fix>
</trkpt>
<trkpt lat="33.8106867" lon="-118.3953154">
  <ele>-25.019</ele>
  <time>2026-09-02T22:08:48Z</time>
  <course>146.7</course>
  <speed>1.0154801819828883</speed>
  <fix>3d</fix>
</trkpt>
<trkpt lat="33.8106861" lon="-118.3953169">
  <ele>-24.41</ele>
  <time>2026-09-02T22:08:48Z</time>
  <course>56.8</course>
  <speed>0.99</speed>
  <fix>3d</fix>
</trkpt>
<trkpt lat="33.8106872" lon="-118.3953145">
  <ele>-25.015</ele>
  <time>2026-09-02T22:08:48Z</time>
  <course>146.82</course>
  <speed>1.010198000393982</speed>
  <fix>3d</fix>
</trkpt>
<trkpt lat="33.8106861" lon="-118.3953169">
  <ele>-24.41</ele>
  <time>2026-09-02T22:08:48Z</time>
  <course>56.8</course>
  <speed>0.99</speed>
  <fix>3d</fix>
</trkpt>
<trkpt lat="33.8106876" lon="-118.3953136">
  <ele>-25.012</ele>
  <time>2026-09-02T22:08:48Z</time>
  <course>146.93</course>
  <speed>1.010198000393982</speed>
  <fix>3d</fix>
</trkpt>
<trkpt lat="33.810687" lon="-118.3953151">
  <ele>-24.41</ele>
  <time>2026-09-02T22:08:48Z</time>
  <course>57.09</course>
  <speed>0.99</speed>
  <fix>3d</fix>
</trkpt>
<trkpt lat="33.8106881" lon="-118.3953127">
  <ele>-25.009</ele>
  <time>2026-09-02T22:08:48Z</time>
  <course>147.05</course>
  <speed>1.010198000393982</speed>
  <fix>3d</fix>
</trkpt>
<trkpt lat="33.810687" lon="-118.3953151">
  <ele>-24.41</ele>
  <time>2026-09-02T22:08:48Z</time>
  <course>57.09</course>
  <speed>0.99</speed>
  <fix>3d</fix>
</trkpt>
<trkpt lat="33.8106886" lon="-118.3953118">
  <ele>-25.008</ele>
  <time>2026-09-02T22:08:48Z</time>
  <course>147.16</course>
  <speed>1.010198000393982</speed>
  <fix>3d</fix>
</trkpt>
<trkpt lat="33.810688" lon="-118.3953133">
  <ele>-24.4</ele>
  <time>2026-09-02T22:08:48Z</time>
  <course>57.33</course>
  <speed>0.99</speed>
  <fix>3d</fix>
</trkpt>
<trkpt lat="33.8106891" lon="-118.3953109">
  <ele>-25.009</ele>
  <time>2026-09-02T22:08:48Z</time>
  <course>147.28</course>
  <speed>1.010198000393982</speed>
  <fix>3d</fix>
</trkpt>
<trkpt lat="33.810688" lon="-118.3953133">
  <ele>-24.4</ele>
  <time>2026-09-02T22:08:48Z</time>
  <course>57.33</course>
  <speed>0.99</speed>
  <fix>3d</fix>
</trkpt>
<trkpt lat="33.8106896" lon="-118.3953099">
  <ele>-25.011</ele>
  <time>2026-09-02T22:08:48Z</time>
  <course>147.4</course>
  <speed>1.0187246929372038</speed>
  <fix>3d</fix>
</trkpt>
<trkpt lat="33.8106889" lon="-118.3953115">
  <ele>-24.4</ele>
  <time>2026-09-02T22:08:48Z</time>
  <course>57.53</course>
  <speed>0.99</speed>
  <fix>3d</fix>
</trkpt>
<trkpt lat="33.8106901" lon="-118.395309">
  <ele>-25.012</ele>
  <time>2026-09-02T22:08:48Z</time>
  <course>147.51</course>
  <speed>1.0187246929372038</speed>
  <fix>3d</fix>
</trkpt>
<trkpt lat="33.8106889" lon="-118.3953115">
  <ele>-24.4</ele>
  <time>2026-09-02T22:08:48Z</time>
  <course>57.53</course>
  <speed>0.99</speed>
  <fix>3d</fix>
</trkpt>
<trkpt lat="33.8106905" lon="-118.3953081">
  <ele>-25.013</ele>
  <time>2026-09-02T22:08:48Z</time>
  <course>147.63</course>
  <speed>1.0135580891098448</speed>
  <fix>3d</fix>
</trkpt>
<trkpt lat="33.8106899" lon="-118.3953096">
  <ele>-24.4</ele>
  <time>2026-09-02T22:08:48Z</time>
  <course>57.71</course>
  <speed>0.99</speed>
  <fix>3d</fix>
</trkpt>
<trkpt lat="33.810691" lon="-118.3953072">
  <ele>-25.012</ele>
  <time>2026-09-02T22:08:48Z</time>
  <course>147.74</course>
  <speed>1.0135580891098448</speed>
  <fix>3d</fix>
</trkpt>
<trkpt lat="33.8106899" lon="-118.3953096">
  <ele>-24.4</ele>
  <time>2026-09-02T22:08:48Z</time>
  <course>57.71</course>
  <speed>0.99</speed>
  <fix>3d</fix>
</trkpt>
<trkpt lat="33.8106915" lon="-118.3953063">
  <ele>-25.012</ele>
  <time>2026-09-02T22:08:48Z</time>
  <course>147.85</course>
  <speed>1.0135580891098448</speed>
  <fix>3d</fix>
</trkpt>
<trkpt lat="33.8106909" lon="-118.3953078">
  <ele>-24.4</ele>
  <time>2026-09-02T22:08:48Z</time>
  <course>57.87</course>
  <speed>0.99</speed>
  <fix>3d</fix>
</trkpt>
<trkpt lat="33.810692" lon="-118.3953054">
  <ele>-25.011</ele>
  <time>2026-09-02T22:08:48Z</time>
  <course>147.97</course>
  <speed>1.0135580891098448</speed>
  <fix>3d</fix>
</trkpt>
<trkpt lat="33.8106909" lon="-118.3953078">
  <ele>-24.4</ele>
  <time>2026-09-02T22:08:48Z</time>
  <course>57.87</course>
  <speed>0.99</speed>
  <fix>3d</fix>
</trkpt>
<trkpt lat="33.8106924" lon="-118.3953044">
  <ele>-25.01</ele>
  <time>2026-09-02T22:08:48Z</time>
  <course>148.08</course>
  <speed>1.0135580891098448</speed>
  <fix>3d</fix>
</trkpt>
<trkpt lat="33.8106918" lon="-118.395306">
  <ele>-24.4</ele>
  <time>2026-09-02T22:08:48Z</time>
  <course>58.06</course>
  <speed>0.99</speed>
  <fix>3d</fix>
</trkpt>
<trkpt lat="33.8106929" lon="-118.3953035">
  <ele>-25.009</ele>
  <time>2026-09-02T22:08:48Z</time>
  <course>148.19</course>
  <speed>1.0135580891098448</speed>
  <fix>3d</fix>
</trkpt>
<trkpt lat="33.8106918" lon="-118.395306">
  <ele>-24.4</ele>
  <time>2026-09-02T22:08:48Z</time>
  <course>58.06</course>
  <speed>0.99</speed>
  <fix>3d</fix>
</trkpt>
<trkpt lat="33.8106934" lon="-118.3953026">
  <ele>-25.008</ele>
  <time>2026-09-02T22:08:48Z</time>
  <course>148.31</course>
  <speed>1.0084641788382966</speed>
  <fix>3d</fix>
</trkpt>
<trkpt lat="33.8106928" lon="-118.3953042">
  <ele>-24.4</ele>
  <time>2026-09-02T22:08:48Z</time>
  <course>58.28</course>
  <speed>0.99</speed>
  <fix>3d</fix>
</trkpt>
<trkpt lat="33.8106938" lon="-118.3953017">
  <ele>-25.007</ele>
  <time>2026-09-02T22:08:48Z</time>
  <course>148.43</course>
  <speed>1.0171037311896953</speed>
  <fix>3d</fix>
</trkpt>
<trkpt lat="33.8106928" lon="-118.3953042">
  <ele>-24.4</ele>
  <time>2026-09-02T22:08:48Z</time>
  <course>58.28</course>
  <speed>0.99</speed>
  <fix>3d</fix>
</trkpt>
<trkpt lat="33.8106943" lon="-118.3953008">
  <ele>-25.007</ele>
  <time>2026-09-02T22:08:48Z</time>
  <course>148.54</course>
  <speed>1.0171037311896953</speed>
  <fix>3d</fix>
</trkpt>
<trkpt lat="33.8106937" lon="-118.3953023">
  <ele>-24.4</ele>
  <time>2026-09-02T22:08:48Z</time>
  <course>58.52</course>
  <speed>1.0</speed>
  <fix>3d</fix>
</trkpt>
<trkpt lat="33.8106948" lon="-118.3952998">
  <ele>-25.008</ele>
  <time>2026-09-02T22:08:48Z</time>
  <course>148.65</course>
  <speed>1.0171037311896953</speed>
  <fix>3d</fix>
</trkpt>
<trkpt lat="33.8106937" lon="-118.3953023">
  <ele>-24.4</ele>
  <time>2026-09-02T22:08:48Z</time>
  <course>58.52</course>
  <speed>1.0</speed>
  <fix>3d</fix>
</trkpt>
<trkpt lat="33.8106952" lon="-118.3952989">
  <ele>-25.01</ele>
  <time>2026-09-02T22:08:48Z</time>
  <course>148.77</course>
  <speed>1.0171037311896953</speed>
  <fix>3d</fix>
</trkpt>
<trkpt lat="33.8106947" lon="-118.3953005">
  <ele>-24.41</ele>
  <time>2026-09-02T22:08:48Z</time>
  <course>58.78</course>
  <speed>1.0</speed>
  <fix>3d</fix>
</trkpt>
<trkpt lat="33.8106957" lon="-118.395298">
  <ele>-25.012</ele>
  <time>2026-09-02T22:08:48Z</time>
  <course>148.88</course>
  <speed>1.0121264743103995</speed>
  <fix>3d</fix>
</trkpt>
<trkpt lat="33.8106947" lon="-118.3953005">
  <ele>-24.41</ele>
  <time>2026-09-02T22:08:48Z</time>
  <course>58.78</course>
  <speed>1.0</speed>
  <fix>3d</fix>
</trkpt>
<trkpt lat="33.8106962" lon="-118.3952971">
  <ele>-25.014</ele>
  <time>2026-09-02T22:08:48Z</time>
  <course>149.0</course>
  <speed>1.0121264743103995</speed>
  <fix>3d</fix>
</trkpt>
<trkpt lat="33.8106956" lon="-118.3952986">
  <ele>-24.41</ele>
  <time>2026-09-02T22:08:48Z</time>
  <course>59.05</course>
  <speed>1.0</speed>
  <fix>3d</fix>
</trkpt>
<trkpt lat="33.8106966" lon="-118.3952961">
  <ele>-25.016</ele>
  <time>2026-09-02T22:08:48Z</time>
  <course>149.11</course>
  <speed>1.0121264743103995</speed>
  <fix>3d</fix>
</trkpt>
<trkpt lat="33.8106956" lon="-118.3952986">
  <ele>-24.41</ele>
  <time>2026-09-02T22:08:48Z</time>
  <course>59.05</course>
  <speed>1.0</speed>
  <fix>3d</fix>
</trkpt>
<trkpt lat="33.8106971" lon="-118.3952952">
  <ele>-25.017</ele>
  <time>2026-09-02T22:08:48Z</time>
  <course>149.23</course>
  <speed>1.0121264743103995</speed>
  <fix>3d</fix>
</trkpt>
<trkpt lat="33.8106965" lon="-118.3952967">
  <ele>-24.41</ele>
  <time>2026-09-02T22:08:48Z</time>
  <course>59.33</course>
  <speed>1.0</speed>
  <fix>3d</fix>
</trkpt>
<trkpt lat="33.8106975" lon="-118.3952943">
  <ele>-25.017</ele>
  <time>2026-09-02T22:08:48Z</time>
  <course>149.34</course>
  <speed>1.0208329931972222</speed>
  <fix>3d</fix>
</trkpt>
<trkpt lat="33.8106965" lon="-118.3952967">
  <ele>-24.41</ele>
  <time>2026-09-02T22:08:48Z</time>
  <course>59.33</course>
  <speed>1.0</speed>
  <fix>3d</fix>
</trkpt>
<trkpt lat="33.810698" lon="-118.3952933">
  <ele>-25.017</ele>
  <time>2026-09-02T22:08:48Z</time>
  <course>149.46</course>
  <speed>1.0208329931972222</speed>
  <fix>3d</fix>
</trkpt>
<trkpt lat="33.8106974" lon="-118.3952949">
  <ele>-24.42</ele>
  <time>2026-09-02T22:08:48Z</time>
  <course>59.56</course>
  <speed>1.0</speed>
  <fix>3d</fix>
</trkpt>
<trkpt lat="33.8106984" lon="-118.3952924">
  <ele>-25.017</ele>
  <time>2026-09-02T22:08:48Z</time>
  <course>149.57</course>
  <speed>1.0208329931972222</speed>
  <fix>3d</fix>
</trkpt>
<trkpt lat="33.8106974" lon="-118.3952949">
  <ele>-24.42</ele>
  <time>2026-09-02T22:08:48Z</time>
  <course>59.56</course>
  <speed>1.0</speed>
  <fix>3d</fix>
</trkpt>
<trkpt lat="33.8106989" lon="-118.3952915">
  <ele>-25.016</ele>
  <time>2026-09-02T22:08:48Z</time>
  <course>149.69</course>
  <speed>1.0159724405711013</speed>
  <fix>3d</fix>
</trkpt>
<trkpt lat="33.8106983" lon="-118.395293">
  <ele>-24.41</ele>
  <time>2026-09-02T22:08:48Z</time>
  <course>59.73</course>
  <speed>1.0</speed>
  <fix>3d</fix>
</trkpt>
<trkpt lat="33.8106993" lon="-118.3952905">
  <ele>-25.015</ele>
  <time>2026-09-02T22:08:48Z</time>
  <course>149.8</course>
  <speed>1.0159724405711013</speed>
  <fix>3d</fix>
</trkpt>
<trkpt lat="33.8106983" lon="-118.395293">
  <ele>-24.41</ele>
  <time>2026-09-02T22:08:48Z</time>
  <course>59.73</course>
  <speed>1.0</speed>
  <fix>3d</fix>
</trkpt>
<trkpt lat="33.8106998" lon="-118.3952896">
  <ele>-25.014</ele>
  <time>2026-09-02T22:08:48Z</time>
  <course>149.91</course>
  <speed>1.0159724405711013</speed>
  <fix>3d</fix>
</trkpt>
<trkpt lat="33.8106992" lon="-118.3952911">
  <ele>-24.41</ele>
  <time>2026-09-02T22:08:48Z</time>
  <course>59.9</course>
  <speed>1.0</speed>
  <fix>3d</fix>
</trkpt>
<trkpt lat="33.8107002" lon="-118.3952887">
  <ele>-25.013</ele>
  <time>2026-09-02T22:08:48Z</time>
  <course>150.03</course>
  <speed>1.0159724405711013</speed>
  <fix>3d</fix>
</trkpt>
<trkpt lat="33.8106992" lon="-118.3952911">
  <ele>-24.41</ele>
  <time>2026-09-02T22:08:48Z</time>
  <course>59.9</course>
  <speed>1.0</speed>
  <fix>3d</fix>
</trkpt>
<trkpt lat="33.8107007" lon="-118.3952877">
  <ele>-25.013</ele>
  <time>2026-09-02T22:08:48Z</time>
  <course>150.14</course>
  <speed>1.0159724405711013</speed>
  <fix>3d</fix>
</trkpt>
<trkpt lat="33.8107001" lon="-118.3952892">
  <ele>-24.41</ele>
  <time>2026-09-02T22:08:48Z</time>
  <course>60.08</course>
  <speed>1.0</speed>
  <fix>3d</fix>
</trkpt>
<trkpt lat="33.8107011" lon="-118.3952868">
  <ele>-25.014</ele>
  <time>2026-09-02T22:08:48Z</time>
  <course>150.26</course>
  <speed>1.0159724405711013</speed>
  <fix>3d</fix>
</trkpt>
<trkpt lat="33.8107001" lon="-118.3952892">
  <ele>-24.41</ele>
  <time>2026-09-02T22:08:48Z</time>
  <course>60.08</course>
  <speed>1.0</speed>
  <fix>3d</fix>
</trkpt>
<trkpt lat="33.8107016" lon="-118.3952858">
  <ele>-25.016</ele>
  <time>2026-09-02T22:08:48Z</time>
  <course>150.37</course>
  <speed>1.0159724405711013</speed>
  <fix>3d</fix>
</trkpt>
<trkpt lat="33.810701" lon="-118.3952873">
  <ele>-24.41</ele>
  <time>2026-09-02T22:08:48Z</time>
  <course>60.22</course>
  <speed>1.0</speed>
  <fix>3d</fix>
</trkpt>
<trkpt lat="33.810702" lon="-118.3952849">
  <ele>-25.016</ele>
  <time>2026-09-02T22:08:48Z</time>
  <course>150.49</course>
  <speed>1.02</speed>
  <fix>3d</fix>
</trkpt>
<trkpt lat="33.810701" lon="-118.3952873">
  <ele>-24.41</ele>
  <time>2026-09-02T22:08:48Z</time>
  <course>60.22</course>
  <speed>1.0</speed>
  <fix>3d</fix>
</trkpt>
<trkpt lat="33.8107024" lon="-118.3952839">
  <ele>-25.015</ele>
  <time>2026-09-02T22:08:48Z</time>
  <course>150.6</course>
  <speed>1.02</speed>
  <fix>3d</fix>
</trkpt>
<trkpt lat="33.8107019" lon="-118.3952855">
  <ele>-24.41</ele>
  <time>2026-09-02T22:08:48Z</time>
  <course>60.39</course>
  <speed>1.0</speed>
  <fix>3d</fix>
</trkpt>
<trkpt lat="33.8107029" lon="-118.395283">
  <ele>-25.014</ele>
  <time>2026-09-02T22:08:48Z</time>
  <course>150.72</course>
  <speed>1.02</speed>
  <fix>3d</fix>
</trkpt>
<trkpt lat="33.8107019" lon="-118.3952855">
  <ele>-24.41</ele>
  <time>2026-09-02T22:08:48Z</time>
  <course>60.39</course>
  <speed>1.0</speed>
  <fix>3d</fix>
</trkpt>
<trkpt lat="33.8107033" lon="-118.3952821">
  <ele>-25.012</ele>
  <time>2026-09-02T22:08:48Z</time>
  <course>150.83</course>
  <speed>1.02</speed>
  <fix>3d</fix>
</trkpt>
<trkpt lat="33.8107028" lon="-118.3952836">
  <ele>-24.41</ele>
  <time>2026-09-02T22:08:48Z</time>
  <course>60.61</course>
  <speed>1.0</speed>
  <fix>3d</fix>
</trkpt>
<trkpt lat="33.8107037" lon="-118.3952811">
  <ele>-25.011</ele>
  <time>2026-09-02T22:08:48Z</time>
  <course>150.95</course>
  <speed>1.02</speed>
  <fix>3d</fix>
</trkpt>
<trkpt lat="33.8107028" lon="-118.3952836">
  <ele>-24.41</ele>
  <time>2026-09-02T22:08:48Z</time>
  <course>60.61</course>
  <speed>1.0</speed>
  <fix>3d</fix>
</trkpt>
<trkpt lat="33.8107042" lon="-118.3952802">
  <ele>-25.011</ele>
  <time>2026-09-02T22:08:48Z</time>
  <course>151.06</course>
  <speed>1.015332457867865</speed>
  <fix>3d</fix>
</trkpt>
<trkpt lat="33.8107037" lon="-118.3952816">
  <ele>-24.41</ele>
  <time>2026-09-02T22:08:48Z</time>
  <course>60.86</course>
  <speed>1.0</speed>
  <fix>3d</fix>
</trkpt>
<trkpt lat="33.8107046" lon="-118.3952792">
  <ele>-25.012</ele>
  <time>2026-09-02T22:08:48Z</time>
  <course>151.18</course>
  <speed>1.015332457867865</speed>
  <fix>3d</fix>
</trkpt>
<trkpt lat="33.8107037" lon="-118.3952816">
  <ele>-24.41</ele>
  <time>2026-09-02T22:08:48Z</time>
  <course>60.86</course>
  <speed>1.0</speed>
  <fix>3d</fix>
</trkpt>
<trkpt lat="33.8107051" lon="-118.3952783">
  <ele>-25.012</ele>
  <time>2026-09-02T22:08:48Z</time>
  <course>151.29</course>
  <speed>1.015332457867865</speed>
  <fix>3d</fix>
</trkpt>
<trkpt lat="33.8107046" lon="-118.3952797">
  <ele>-24.41</ele>
  <time>2026-09-02T22:08:48Z</time>
  <course>61.12</course>
  <speed>1.0</speed>
  <fix>3d</fix>
</trkpt>
<trkpt lat="33.8107055" lon="-118.3952773">
  <ele>-25.013</ele>
  <time>2026-09-02T22:08:48Z</time>
  <course>151.41</course>
  <speed>1.015332457867865</speed>
  <fix>3d</fix>
</trkpt>
<trkpt lat="33.8107046" lon="-118.3952797">
  <ele>-24.41</ele>
  <time>2026-09-02T22:08:48Z</time>
  <course>61.12</course>
  <speed>1.0</speed>
  <fix>3d</fix>
</trkpt>
<trkpt lat="33.8107059" lon="-118.3952763">
  <ele>-25.015</ele>
  <time>2026-09-02T22:08:48Z</time>
  <course>151.52</course>
  <speed>1.0107423014794623</speed>
  <fix>3d</fix>
</trkpt>
<trkpt lat="33.8107055" lon="-118.3952778">
  <ele>-24.41</ele>
  <time>2026-09-02T22:08:48Z</time>
  <course>61.39</course>
  <speed>1.0</speed>
  <fix>3d</fix>
</trkpt>
<trkpt lat="33.8107063" lon="-118.3952754">
  <ele>-25.015</ele>
  <time>2026-09-02T22:08:48Z</time>
  <course>151.63</course>
  <speed>1.0107423014794623</speed>
  <fix>3d</fix>
</trkpt>
<trkpt lat="33.8107055" lon="-118.3952778">
  <ele>-24.41</ele>
  <time>2026-09-02T22:08:48Z</time>
  <course>61.39</course>
  <speed>1.0</speed>
  <fix>3d</fix>
</trkpt>
<trkpt lat="33.8107068" lon="-118.3952744">
  <ele>-25.016</ele>
  <time>2026-09-02T22:08:48Z</time>
  <course>151.75</course>
  <speed>1.0107423014794623</speed>
  <fix>3d</fix>
</trkpt>
<trkpt lat="33.8107063" lon="-118.3952759">
  <ele>-24.41</ele>
  <time>2026-09-02T22:08:48Z</time>
  <course>61.67</course>
  <speed>1.0</speed>
  <fix>3d</fix>
</trkpt>
<trkpt lat="33.8107072" lon="-118.3952735">
  <ele>-25.016</ele>
  <time>2026-09-02T22:08:48Z</time>
  <course>151.86</course>
  <speed>1.0196568050084303</speed>
  <fix>3d</fix>
</trkpt>
<trkpt lat="33.8107063" lon="-118.3952759">
  <ele>-24.41</ele>
  <time>2026-09-02T22:08:48Z</time>
  <course>61.67</course>
  <speed>1.0</speed>
  <fix>3d</fix>
</trkpt>
<trkpt lat="33.8107076" lon="-118.3952725">
  <ele>-25.015</ele>
  <time>2026-09-02T22:08:48Z</time>
  <course>151.98</course>
  <speed>1.0151847122568385</speed>
  <fix>3d</fix>
</trkpt>
<trkpt lat="33.8107071" lon="-118.395274">
  <ele>-24.41</ele>
  <time>2026-09-02T22:08:48Z</time>
  <course>61.96</course>
  <speed>1.0</speed>
  <fix>3d</fix>
</trkpt>
<trkpt lat="33.810708" lon="-118.3952716">
  <ele>-25.013</ele>
  <time>2026-09-02T22:08:48Z</time>
  <course>152.09</course>
  <speed>1.0151847122568385</speed>
  <fix>3d</fix>
</trkpt>
<trkpt lat="33.8107071" lon="-118.395274">
  <ele>-24.41</ele>
  <time>2026-09-02T22:08:48Z</time>
  <course>61.96</course>
  <speed>1.0</speed>
  <fix>3d</fix>
</trkpt>
<trkpt lat="33.8107084" lon="-118.3952706">
  <ele>-25.012</ele>
  <time>2026-09-02T22:08:48Z</time>
  <course>152.21</course>
  <speed>1.0151847122568385</speed>
  <fix>3d</fix>
</trkpt>
<trkpt lat="33.810708" lon="-118.3952721">
  <ele>-24.41</ele>
  <time>2026-09-02T22:08:48Z</time>
  <course>62.19</course>
  <speed>1.0</speed>
  <fix>3d</fix>
</trkpt>
<trkpt lat="33.8107089" lon="-118.3952696">
  <ele>-25.011</ele>
  <time>2026-09-02T22:08:48Z</time>
  <course>152.32</course>
  <speed>1.0151847122568385</speed>
  <fix>3d</fix>
</trkpt>
<trkpt lat="33.810708" lon="-118.3952721">
  <ele>-24.41</ele>
  <time>2026-09-02T22:08:48Z</time>
  <course>62.19</course>
  <speed>1.0</speed>
  <fix>3d</fix>
</trkpt>
<trkpt lat="33.8107093" lon="-118.3952687">
  <ele>-25.01</ele>
  <time>2026-09-02T22:08:48Z</time>
  <course>152.44</course>
  <speed>1.0151847122568385</speed>
  <fix>3d</fix>
</trkpt>
<trkpt lat="33.8107088" lon="-118.3952702">
  <ele>-24.41</ele>
  <time>2026-09-02T22:08:48Z</time>
  <course>62.38</course>
  <speed>1.0</speed>
  <fix>3d</fix>
</trkpt>
<trkpt lat="33.8107097" lon="-118.3952677">
  <ele>-25.01</ele>
  <time>2026-09-02T22:08:48Z</time>
  <course>152.55</course>
  <speed>1.0151847122568385</speed>
  <fix>3d</fix>
</trkpt>
<trkpt lat="33.8107088" lon="-118.3952702">
  <ele>-24.41</ele>
  <time>2026-09-02T22:08:48Z</time>
  <course>62.38</course>
  <speed>1.0</speed>
  <fix>3d</fix>
</trkpt>
<trkpt lat="33.8107101" lon="-118.3952668">
  <ele>-25.012</ele>
  <time>2026-09-02T22:08:48Z</time>
  <course>152.67</course>
  <speed>1.0107917688624102</speed>
  <fix>3d</fix>
</trkpt>
<trkpt lat="33.8107097" lon="-118.3952683">
  <ele>-24.41</ele>
  <time>2026-09-02T22:08:48Z</time>
  <course>62.58</course>
  <speed>1.0</speed>
  <fix>3d</fix>
</trkpt>
<trkpt lat="33.8107105" lon="-118.3952658">
  <ele>-25.013</ele>
  <time>2026-09-02T22:08:48Z</time>
  <course>152.78</course>
  <speed>1.0107917688624102</speed>
  <fix>3d</fix>
</trkpt>
<trkpt lat="33.8107097" lon="-118.3952683">
  <ele>-24.41</ele>
  <time>2026-09-02T22:08:48Z</time>
  <course>62.58</course>
  <speed>1.0</speed>
  <fix>3d</fix>
</trkpt>
<trkpt lat="33.8107109" lon="-118.3952648">
  <ele>-25.014</ele>
  <time>2026-09-02T22:08:48Z</time>
  <course>152.89</course>
  <speed>1.0107917688624102</speed>
  <fix>3d</fix>
</trkpt>
<trkpt lat="33.8107105" lon="-118.3952663">
  <ele>-24.41</ele>
  <time>2026-09-02T22:08:48Z</time>
  <course>62.82</course>
  <speed>1.0</speed>
  <fix>3d</fix>
</trkpt>
<trkpt lat="33.8107113" lon="-118.3952639">
  <ele>-25.013</ele>
  <time>2026-09-02T22:08:48Z</time>
  <course>153.01</course>
  <speed>1.0107917688624102</speed>
  <fix>3d</fix>
</trkpt>
<trkpt lat="33.8107105" lon="-118.3952663">
  <ele>-24.41</ele>
  <time>2026-09-02T22:08:48Z</time>
  <course>62.82</course>
  <speed>1.0</speed>
  <fix>3d</fix>
</trkpt>
<trkpt lat="33.8107117" lon="-118.3952629">
  <ele>-25.013</ele>
  <time>2026-09-02T22:08:48Z</time>
  <course>153.13</course>
  <speed>1.0107917688624102</speed>
  <fix>3d</fix>
</trkpt>
<trkpt lat="33.8107113" lon="-118.3952644">
  <ele>-24.41</ele>
  <time>2026-09-02T22:08:48Z</time>
  <course>63.11</course>
  <speed>1.0</speed>
  <fix>3d</fix>
</trkpt>
<trkpt lat="33.8107121" lon="-118.3952619">
  <ele>-25.013</ele>
  <time>2026-09-02T22:08:48Z</time>
  <course>153.24</course>
  <speed>1.0155294185792945</speed>
  <fix>3d</fix>
</trkpt>
<trkpt lat="33.8107113" lon="-118.3952644">
  <ele>-24.41</ele>
  <time>2026-09-02T22:08:48Z</time>
  <course>63.11</course>
  <speed>1.0</speed>
  <fix>3d</fix>
</trkpt>
<trkpt lat="33.8107125" lon="-118.395261">
  <ele>-25.013</ele>
  <time>2026-09-02T22:08:48Z</time>
  <course>153.35</course>
  <speed>1.0155294185792945</speed>
  <fix>3d</fix>
</trkpt>
<trkpt lat="33.8107122" lon="-118.3952625">
  <ele>-24.41</ele>
  <time>2026-09-02T22:08:48Z</time>
  <course>63.38</course>
  <speed>1.0</speed>
  <fix>3d</fix>
</trkpt>
<trkpt lat="33.8107129" lon="-118.39526">
  <ele>-25.014</ele>
  <time>2026-09-02T22:08:48Z</time>
  <course>153.46</course>
  <speed>1.0155294185792945</speed>
  <fix>3d</fix>
</trkpt>
<trkpt lat="33.8107122" lon="-118.3952625">
  <ele>-24.41</ele>
  <time>2026-09-02T22:08:48Z</time>
  <course>63.38</course>
  <speed>1.0</speed>
  <fix>3d</fix>
</trkpt>
<trkpt lat="33.8107133" lon="-118.395259">
  <ele>-25.015</ele>
  <time>2026-09-02T22:08:48Z</time>
  <course>153.58</course>
  <speed>1.0155294185792945</speed>
  <fix>3d</fix>
</trkpt>
<trkpt lat="33.8107129" lon="-118.3952605">
  <ele>-24.41</ele>
  <time>2026-09-02T22:08:48Z</time>
  <course>63.66</course>
  <speed>1.0</speed>
  <fix>3d</fix>
</trkpt>
<trkpt lat="33.8107137" lon="-118.395258">
  <ele>-25.014</ele>
  <time>2026-09-02T22:08:48Z</time>
  <course>153.69</course>
  <speed>1.0113357503816425</speed>
  <fix>3d</fix>
</trkpt>
<trkpt lat="33.8107129" lon="-118.3952605">
  <ele>-24.41</ele>
  <time>2026-09-02T22:08:48Z</time>
  <course>63.66</course>
  <speed>1.0</speed>
  <fix>3d</fix>
</trkpt>
<trkpt lat="33.8107141" lon="-118.3952571">
  <ele>-25.014</ele>
  <time>2026-09-02T22:08:48Z</time>
  <course>153.81</course>
  <speed>1.0113357503816425</speed>
  <fix>3d</fix>
</trkpt>
<trkpt lat="33.8107138" lon="-118.3952586">
  <ele>-24.41</ele>
  <time>2026-09-02T22:08:48Z</time>
  <course>63.94</course>
  <speed>1.0</speed>
  <fix>3d</fix>
</trkpt>
<trkpt lat="33.8107145" lon="-118.3952561">
  <ele>-25.013</ele>
  <time>2026-09-02T22:08:48Z</time>
  <course>153.92</course>
  <speed>1.0113357503816425</speed>
  <fix>3d</fix>
</trkpt>
<trkpt lat="33.8107138" lon="-118.3952586">
  <ele>-24.41</ele>
  <time>2026-09-02T22:08:48Z</time>
  <course>63.94</course>
  <speed>1.0</speed>
  <fix>3d</fix>
</trkpt>
<trkpt lat="33.8107149" lon="-118.3952551">
  <ele>-25.013</ele>
  <time>2026-09-02T22:08:48Z</time>
  <course>154.04</course>
  <speed>1.0113357503816425</speed>
  <fix>3d</fix>
</trkpt>
<trkpt lat="33.8107145" lon="-118.3952567">
  <ele>-24.41</ele>
  <time>2026-09-02T22:08:48Z</time>
  <course>64.19</course>
  <speed>1.0</speed>
  <fix>3d</fix>
</trkpt>
<trkpt lat="33.8107153" lon="-118.3952541">
  <ele>-25.014</ele>
  <time>2026-09-02T22:08:48Z</time>
  <course>154.15</course>
  <speed>1.0113357503816425</speed>
  <fix>3d</fix>
</trkpt>
<trkpt lat="33.8107145" lon="-118.3952567">
  <ele>-24.41</ele>
  <time>2026-09-02T22:08:48Z</time>
  <course>64.19</course>
  <speed>1.0</speed>
  <fix>3d</fix>
</trkpt>
<trkpt lat="33.8107157" lon="-118.3952532">
  <ele>-25.014</ele>
  <time>2026-09-02T22:08:48Z</time>
  <course>154.27</course>
  <speed>1.0113357503816425</speed>
  <fix>3d</fix>
</trkpt>
<trkpt lat="33.8107153" lon="-118.3952547">
  <ele>-24.41</ele>
  <time>2026-09-02T22:08:48Z</time>
  <course>64.45</course>
  <speed>1.0</speed>
  <fix>3d</fix>
</trkpt>
<trkpt lat="33.8107161" lon="-118.3952522">
  <ele>-25.014</ele>
  <time>2026-09-02T22:08:48Z</time>
  <course>154.38</course>
  <speed>1.016366075781753</speed>
  <fix>3d</fix>
</trkpt>
<trkpt lat="33.8107153" lon="-118.3952547">
  <ele>-24.41</ele>
  <time>2026-09-02T22:08:48Z</time>
  <course>64.45</course>
  <speed>1.0</speed>
  <fix>3d</fix>
</trkpt>
<trkpt lat="33.8107165" lon="-118.3952512">
  <ele>-25.014</ele>
  <time>2026-09-02T22:08:48Z</time>
  <course>154.5</course>
  <speed>1.016366075781753</speed>
  <fix>3d</fix>
</trkpt>
<trkpt lat="33.810716" lon="-118.3952528">
  <ele>-24.41</ele>
  <time>2026-09-02T22:08:48Z</time>
  <course>64.68</course>
  <speed>1.0</speed>
  <fix>3d</fix>
</trkpt>
<trkpt lat="33.8107168" lon="-118.3952502">
  <ele>-25.014</ele>
  <time>2026-09-02T22:08:48Z</time>
  <course>154.61</course>
  <speed>1.016366075781753</speed>
  <fix>3d</fix>
</trkpt>
<trkpt lat="33.810716" lon="-118.3952528">
  <ele>-24.41</ele>
  <time>2026-09-02T22:08:48Z</time>
  <course>64.68</course>
  <speed>1.0</speed>
  <fix>3d</fix>
</trkpt>
<trkpt lat="33.8107172" lon="-118.3952493">
  <ele>-25.014</ele>
  <time>2026-09-02T22:08:48Z</time>
  <course>154.73</course>
  <speed>1.016366075781753</speed>
  <fix>3d</fix>
</trkpt>
<trkpt lat="33.8107169" lon="-118.3952507">
  <ele>-24.41</ele>
  <time>2026-09-02T22:08:48Z</time>
  <course>64.88</course>
  <speed>1.0</speed>
  <fix>3d</fix>
</trkpt>
<trkpt lat="33.8107176" lon="-118.3952483">
  <ele>-25.013</ele>
  <time>2026-09-02T22:08:48Z</time>
  <course>154.84</course>
  <speed>1.016366075781753</speed>
  <fix>3d</fix>
</trkpt>
<trkpt lat="33.8107169" lon="-118.3952507">
  <ele>-24.41</ele>
  <time>2026-09-02T22:08:48Z</time>
  <course>64.88</course>
  <speed>1.0</speed>
  <fix>3d</fix>
</trkpt>
<trkpt lat="33.810718" lon="-118.3952473">
  <ele>-25.012</ele>
  <time>2026-09-02T22:08:48Z</time>
  <course>154.95</course>
  <speed>1.0123734488813898</speed>
  <fix>3d</fix>
</trkpt>
<trkpt lat="33.8107176" lon="-118.3952488">
  <ele>-24.41</ele>
  <time>2026-09-02T22:08:48Z</time>
  <course>65.08</course>
  <speed>1.0</speed>
  <fix>3d</fix>
</trkpt>
<trkpt lat="33.8107184" lon="-118.3952463">
  <ele>-25.012</ele>
  <time>2026-09-02T22:08:48Z</time>
  <course>155.07</course>
  <speed>1.0123734488813898</speed>
  <fix>3d</fix>
</trkpt>
<trkpt lat="33.8107176" lon="-118.3952488">
  <ele>-24.41</ele>
  <time>2026-09-02T22:08:48Z</time>
  <course>65.08</course>
  <speed>1.0</speed>
  <fix>3d</fix>
</trkpt>
<trkpt lat="33.8107187" lon="-118.3952453">
  <ele>-25.012</ele>
  <time>2026-09-02T22:08:48Z</time>
  <course>155.18</course>
  <speed>1.0123734488813898</speed>
  <fix>3d</fix>
</trkpt>
<trkpt lat="33.8107184" lon="-118.3952469">
  <ele>-24.41</ele>
  <time>2026-09-02T22:08:48Z</time>
  <course>65.3</course>
  <speed>1.0</speed>
  <fix>3d</fix>
</trkpt>
<trkpt lat="33.8107191" lon="-118.3952443">
  <ele>-25.012</ele>
  <time>2026-09-02T22:08:48Z</time>
  <course>155.3</course>
  <speed>1.0123734488813898</speed>
  <fix>3d</fix>
</trkpt>
<trkpt lat="33.8107184" lon="-118.3952469">
  <ele>-24.41</ele>
  <time>2026-09-02T22:08:48Z</time>
  <course>65.3</course>
  <speed>1.0</speed>
  <fix>3d</fix>
</trkpt>
<trkpt lat="33.8107195" lon="-118.3952434">
  <ele>-25.013</ele>
  <time>2026-09-02T22:08:48Z</time>
  <course>155.41</course>
  <speed>1.0123734488813898</speed>
  <fix>3d</fix>
</trkpt>
<trkpt lat="33.8107191" lon="-118.3952449">
  <ele>-24.41</ele>
  <time>2026-09-02T22:08:48Z</time>
  <course>65.54</course>
  <speed>0.99</speed>
  <fix>3d</fix>
</trkpt>
<trkpt lat="33.8107199" lon="-118.3952424">
  <ele>-25.014</ele>
  <time>2026-09-02T22:08:48Z</time>
  <course>155.53</course>
  <speed>1.0123734488813898</speed>
  <fix>3d</fix>
</trkpt>
<trkpt lat="33.8107191" lon="-118.3952449">
  <ele>-24.41</ele>
  <time>2026-09-02T22:08:48Z</time>
  <course>65.54</course>
  <speed>0.99</speed>
  <fix>3d</fix>
</trkpt>
<trkpt lat="33.8107202" lon="-118.3952414">
  <ele>-25.015</ele>
  <time>2026-09-02T22:08:48Z</time>
  <course>155.64</course>
  <speed>1.0084641788382966</speed>
  <fix>3d</fix>
</trkpt>
<trkpt lat="33.8107198" lon="-118.3952429">
  <ele>-24.41</ele>
  <time>2026-09-02T22:08:48Z</time>
  <course>65.8</course>
  <speed>0.99</speed>
  <fix>3d</fix>
</trkpt>
<trkpt lat="33.8107206" lon="-118.3952404">
  <ele>-25.016</ele>
  <time>2026-09-02T22:08:48Z</time>
  <course>155.76</course>
  <speed>1.0084641788382966</speed>
  <fix>3d</fix>
</trkpt>
<trkpt lat="33.8107198" lon="-118.3952429">
  <ele>-24.41</ele>
  <time>2026-09-02T22:08:48Z</time>
  <course>65.8</course>
  <speed>0.99</speed>
  <fix>3d</fix>
</trkpt>
<trkpt lat="33.8107209" lon="-118.3952394">
  <ele>-25.016</ele>
  <time>2026-09-02T22:08:48Z</time>
  <course>155.87</course>
  <speed>1.0084641788382966</speed>
  <fix>3d</fix>
</trkpt>
<trkpt lat="33.8107205" lon="-118.395241">
  <ele>-24.41</ele>
  <time>2026-09-02T22:08:48Z</time>
  <course>66.01</course>
  <speed>0.99</speed>
  <fix>3d</fix>
</trkpt>
<trkpt lat="33.8107213" lon="-118.3952384">
  <ele>-25.017</ele>
  <time>2026-09-02T22:08:48Z</time>
  <course>155.99</course>
  <speed>1.0176934705499492</speed>
  <fix>3d</fix>
</trkpt>
<trkpt lat="33.8107205" lon="-118.395241">
  <ele>-24.41</ele>
  <time>2026-09-02T22:08:48Z</time>
  <course>66.01</course>
  <speed>0.99</speed>
  <fix>3d</fix>
</trkpt>
<trkpt lat="33.8107217" lon="-118.3952374">
  <ele>-25.018</ele>
  <time>2026-09-02T22:08:48Z</time>
  <course>156.1</course>
  <speed>1.0176934705499492</speed>
  <fix>3d</fix>
</trkpt>
<trkpt lat="33.8107213" lon="-118.395239">
  <ele>-24.41</ele>
  <time>2026-09-02T22:08:48Z</time>
  <course>66.17</course>
  <speed>0.99</speed>
  <fix>3d</fix>
</trkpt>
<trkpt lat="33.810722" lon="-118.3952364">
  <ele>-25.017</ele>
  <time>2026-09-02T22:08:48Z</time>
  <course>156.22</course>
  <speed>1.0176934705499492</speed>
  <fix>3d</fix>
</trkpt>
<trkpt lat="33.8107213" lon="-118.395239">
  <ele>-24.41</ele>
  <time>2026-09-02T22:08:48Z</time>
  <course>66.17</course>
  <speed>0.99</speed>
  <fix>3d</fix>
</trkpt>
<trkpt lat="33.8107224" lon="-118.3952354">
  <ele>-25.017</ele>
  <time>2026-09-02T22:08:48Z</time>
  <course>156.33</course>
  <speed>1.0176934705499492</speed>
  <fix>3d</fix>
</trkpt>
<trkpt lat="33.810722" lon="-118.395237">
  <ele>-24.4</ele>
  <time>2026-09-02T22:08:48Z</time>
  <course>66.33</course>
  <speed>1.0</speed>
  <fix>3d</fix>
</trkpt>
<trkpt lat="33.8107227" lon="-118.3952344">
  <ele>-25.015</ele>
  <time>2026-09-02T22:08:48Z</time>
  <course>156.45</course>
  <speed>1.0139033484509261</speed>
  <fix>3d</fix>
</trkpt>
<trkpt lat="33.810722" lon="-118.395237">
  <ele>-24.4</ele>
  <time>2026-09-02T22:08:48Z</time>
  <course>66.33</course>
  <speed>1.0</speed>
  <fix>3d</fix>
</trkpt>
<trkpt lat="33.8107231" lon="-118.3952335">
  <ele>-25.013</ele>
  <time>2026-09-02T22:08:48Z</time>
  <course>156.56</course>
  <speed>1.0139033484509261</speed>
  <fix>3d</fix>
</trkpt>
<trkpt lat="33.8107227" lon="-118.395235">
  <ele>-24.4</ele>
  <time>2026-09-02T22:08:48Z</time>
  <course>66.53</course>
  <speed>1.0</speed>
  <fix>3d</fix>
</trkpt>
<trkpt lat="33.8107235" lon="-118.3952325">
  <ele>-25.011</ele>
  <time>2026-09-02T22:08:48Z</time>
  <course>156.68</course>
  <speed>1.0139033484509261</speed>
  <fix>3d</fix>
</trkpt>
<trkpt lat="33.8107227" lon="-118.395235">
  <ele>-24.4</ele>
  <time>2026-09-02T22:08:48Z</time>
  <course>66.53</course>
  <speed>1.0</speed>
  <fix>3d</fix>
</trkpt>
<trkpt lat="33.8107238" lon="-118.3952315">
  <ele>-25.01</ele>
  <time>2026-09-02T22:08:48Z</time>
  <course>156.79</course>
  <speed>1.0139033484509261</speed>
  <fix>3d</fix>
</trkpt>
<trkpt lat="33.8107234" lon="-118.3952331">
  <ele>-24.4</ele>
  <time>2026-09-02T22:08:48Z</time>
  <course>66.73</course>
  <speed>1.0</speed>
  <fix>3d</fix>
</trkpt>
<trkpt lat="33.8107242" lon="-118.3952305">
  <ele>-25.009</ele>
  <time>2026-09-02T22:08:48Z</time>
  <course>156.9</course>
  <speed>1.0139033484509261</speed>
  <fix>3d</fix>
</trkpt>
<trkpt lat="33.8107234" lon="-118.3952331">
  <ele>-24.4</ele>
  <time>2026-09-02T22:08:48Z</time>
  <course>66.73</course>
  <speed>1.0</speed>
  <fix>3d</fix>
</trkpt>
<trkpt lat="33.8107245" lon="-118.3952295">
  <ele>-25.009</ele>
  <time>2026-09-02T22:08:48Z</time>
  <course>157.02</course>
  <speed>1.010198000393982</speed>
  <fix>3d</fix>
</trkpt>
<trkpt lat="33.8107241" lon="-118.3952311">
  <ele>-24.4</ele>
  <time>2026-09-02T22:08:48Z</time>
  <course>66.96</course>
  <speed>1.0</speed>
  <fix>3d</fix>
</trkpt>
<trkpt lat="33.8107248" lon="-118.3952285">
  <ele>-25.009</ele>
  <time>2026-09-02T22:08:48Z</time>
  <course>157.14</course>
  <speed>1.010198000393982</speed>
  <fix>3d</fix>
</trkpt>
<trkpt lat="33.8107241" lon="-118.3952311">
  <ele>-24.4</ele>
  <time>2026-09-02T22:08:48Z</time>
  <course>66.96</course>
  <speed>1.0</speed>
  <fix>3d</fix>
</trkpt>
<trkpt lat="33.8107252" lon="-118.3952275">
  <ele>-25.01</ele>
  <time>2026-09-02T22:08:48Z</time>
  <course>157.25</course>
  <speed>1.0195096860746347</speed>
  <fix>3d</fix>
</trkpt>
<trkpt lat="33.8107248" lon="-118.3952291">
  <ele>-24.4</ele>
  <time>2026-09-02T22:08:48Z</time>
  <course>67.19</course>
  <speed>1.0</speed>
  <fix>3d</fix>
</trkpt>
<trkpt lat="33.8107255" lon="-118.3952265">
  <ele>-25.011</ele>
  <time>2026-09-02T22:08:48Z</time>
  <course>157.36</course>
  <speed>1.0195096860746347</speed>
  <fix>3d</fix>
</trkpt>
<trkpt lat="33.8107248" lon="-118.3952291">
  <ele>-24.4</ele>
  <time>2026-09-02T22:08:48Z</time>
  <course>67.19</course>
  <speed>1.0</speed>
  <fix>3d</fix>
</trkpt>
<trkpt lat="33.8107259" lon="-118.3952255">
  <ele>-25.012</ele>
  <time>2026-09-02T22:08:48Z</time>
  <course>157.48</course>
  <speed>1.0195096860746347</speed>
  <fix>3d</fix>
</trkpt>
<trkpt lat="33.8107255" lon="-118.3952271">
  <ele>-24.4</ele>
  <time>2026-09-02T22:08:48Z</time>
  <course>67.4</course>
  <speed>1.0</speed>
  <fix>3d</fix>
</trkpt>
<trkpt lat="33.8107262" lon="-118.3952245">
  <ele>-25.012</ele>
  <time>2026-09-02T22:08:48Z</time>
  <course>157.59</course>
  <speed>1.0195096860746347</speed>
  <fix>3d</fix>
</trkpt>
<trkpt lat="33.8107255" lon="-118.3952271">
  <ele>-24.4</ele>
  <time>2026-09-02T22:08:48Z</time>
  <course>67.4</course>
  <speed>1.0</speed>
  <fix>3d</fix>
</trkpt>
<trkpt lat="33.8107266" lon="-118.3952235">
  <ele>-25.012</ele>
  <time>2026-09-02T22:08:48Z</time>
  <course>157.71</course>
  <speed>1.0159232254457027</speed>
  <fix>3d</fix>
</trkpt>
<trkpt lat="33.8107262" lon="-118.3952251">
  <ele>-24.4</ele>
  <time>2026-09-02T22:08:48Z</time>
  <course>67.6</course>
  <speed>1.0</speed>
  <fix>3d</fix>
</trkpt>
<trkpt lat="33.8107269" lon="-118.3952225">
  <ele>-25.011</ele>
  <time>2026-09-02T22:08:48Z</time>
  <course>157.82</course>
  <speed>1.0159232254457027</speed>
  <fix>3d</fix>
</trkpt>
<trkpt lat="33.8107262" lon="-118.3952251">
  <ele>-24.4</ele>
  <time>2026-09-02T22:08:48Z</time>
  <course>67.6</course>
  <speed>1.0</speed>
  <fix>3d</fix>
</trkpt>
<trkpt lat="33.8107272" lon="-118.3952215">
  <ele>-25.011</ele>
  <time>2026-09-02T22:08:48Z</time>
  <course>157.94</course>
  <speed>1.0159232254457027</speed>
  <fix>3d</fix>
</trkpt>
<trkpt lat="33.8107269" lon="-118.3952231">
  <ele>-24.4</ele>
  <time>2026-09-02T22:08:48Z</time>
  <course>67.84</course>
  <speed>1.0</speed>
  <fix>3d</fix>
</trkpt>
<trkpt lat="33.8107276" lon="-118.3952205">
  <ele>-25.012</ele>
  <time>2026-09-02T22:08:48Z</time>
  <course>158.05</course>
  <speed>1.0159232254457027</speed>
  <fix>3d</fix>
</trkpt>
<trkpt lat="33.8107269" lon="-118.3952231">
  <ele>-24.4</ele>
  <time>2026-09-02T22:08:48Z</time>
  <course>67.84</course>
  <speed>1.0</speed>
  <fix>3d</fix>
</trkpt>
<trkpt lat="33.8107279" lon="-118.3952195">
  <ele>-25.012</ele>
  <time>2026-09-02T22:08:48Z</time>
  <course>158.17</course>
  <speed>1.0124228365658294</speed>
  <fix>3d</fix>
</trkpt>
<trkpt lat="33.8107276" lon="-118.395221">
  <ele>-24.4</ele>
  <time>2026-09-02T22:08:48Z</time>
  <course>68.1</course>
  <speed>1.0</speed>
  <fix>3d</fix>
</trkpt>
<trkpt lat="33.8107282" lon="-118.3952185">
  <ele>-25.013</ele>
  <time>2026-09-02T22:08:48Z</time>
  <course>158.28</course>
  <speed>1.0124228365658294</speed>
  <fix>3d</fix>
</trkpt>
<trkpt lat="33.8107276" lon="-118.395221">
  <ele>-24.4</ele>
  <time>2026-09-02T22:08:48Z</time>
  <course>68.1</course>
  <speed>1.0</speed>
  <fix>3d</fix>
</trkpt>
<trkpt lat="33.8107286" lon="-118.3952174">
  <ele>-25.014</ele>
  <time>2026-09-02T22:08:48Z</time>
  <course>158.4</course>
  <speed>1.0124228365658294</speed>
  <fix>3d</fix>
</trkpt>
<trkpt lat="33.8107282" lon="-118.395219">
  <ele>-24.4</ele>
  <time>2026-09-02T22:08:48Z</time>
  <course>68.37</course>
  <speed>1.0</speed>
  <fix>3d</fix>
</trkpt>
<trkpt lat="33.8107289" lon="-118.3952164">
  <ele>-25.015</ele>
  <time>2026-09-02T22:08:48Z</time>
  <course>158.51</course>
  <speed>1.0124228365658294</speed>
  <fix>3d</fix>
</trkpt>
<trkpt lat="33.8107282" lon="-118.395219">
  <ele>-24.4</ele>
  <time>2026-09-02T22:08:48Z</time>
  <course>68.37</course>
  <speed>1.0</speed>
  <fix>3d</fix>
</trkpt>
<trkpt lat="33.8107292" lon="-118.3952154">
  <ele>-25.015</ele>
  <time>2026-09-02T22:08:48Z</time>
  <course>158.62</course>
  <speed>1.0124228365658294</speed>
  <fix>3d</fix>
</trkpt>
<trkpt lat="33.8107289" lon="-118.395217">
  <ele>-24.41</ele>
  <time>2026-09-02T22:08:48Z</time>
  <course>68.61</course>
  <speed>1.0</speed>
  <fix>3d</fix>
</trkpt>
<trkpt lat="33.8107295" lon="-118.3952144">
  <ele>-25.015</ele>
  <time>2026-09-02T22:08:48Z</time>
  <course>158.74</course>
  <speed>1.0090094152187086</speed>
  <fix>3d</fix>
</trkpt>
<trkpt lat="33.8107289" lon="-118.395217">
  <ele>-24.41</ele>
  <time>2026-09-02T22:08:48Z</time>
  <course>68.61</course>
  <speed>1.0</speed>
  <fix>3d</fix>
</trkpt>
<trkpt lat="33.8107299" lon="-118.3952134">
  <ele>-25.015</ele>
  <time>2026-09-02T22:08:48Z</time>
  <course>158.85</course>
  <speed>1.0090094152187086</speed>
  <fix>3d</fix>
</trkpt>
<trkpt lat="33.8107296" lon="-118.395215">
  <ele>-24.4</ele>
  <time>2026-09-02T22:08:48Z</time>
  <course>68.81</course>
  <speed>1.0</speed>
  <fix>3d</fix>
</trkpt>
<trkpt lat="33.8107302" lon="-118.3952124">
  <ele>-25.015</ele>
  <time>2026-09-02T22:08:48Z</time>
  <course>158.97</course>
  <speed>1.0090094152187086</speed>
  <fix>3d</fix>
</trkpt>
<trkpt lat="33.8107296" lon="-118.395215">
  <ele>-24.4</ele>
  <time>2026-09-02T22:08:48Z</time>
  <course>68.81</course>
  <speed>1.0</speed>
  <fix>3d</fix>
</trkpt>
<trkpt lat="33.8107305" lon="-118.3952114">
  <ele>-25.014</ele>
  <time>2026-09-02T22:08:48Z</time>
  <course>159.08</course>
  <speed>1.0090094152187086</speed>
  <fix>3d</fix>
</trkpt>
<trkpt lat="33.8107302" lon="-118.395213">
  <ele>-24.4</ele>
  <time>2026-09-02T22:08:48Z</time>
  <course>69.06</course>
  <speed>0.99</speed>
  <fix>3d</fix>
</trkpt>
<trkpt lat="33.8107308" lon="-118.3952104">
  <ele>-25.011</ele>
  <time>2026-09-02T22:08:48Z</time>
  <course>159.2</course>
  <speed>1.0184301645179212</speed>
  <fix>3d</fix>
</trkpt>
<trkpt lat="33.8107302" lon="-118.395213">
  <ele>-24.4</ele>
  <time>2026-09-02T22:08:48Z</time>
  <course>69.06</course>
  <speed>0.99</speed>
  <fix>3d</fix>
</trkpt>
<trkpt lat="33.8107311" lon="-118.3952093">
  <ele>-25.01</ele>
  <time>2026-09-02T22:08:48Z</time>
  <course>159.31</course>
  <speed>1.0151354589413177</speed>
  <fix>3d</fix>
</trkpt>
<trkpt lat="33.8107308" lon="-118.395211">
  <ele>-24.4</ele>
  <time>2026-09-02T22:08:48Z</time>
  <course>69.35</course>
  <speed>0.99</speed>
  <fix>3d</fix>
</trkpt>
<trkpt lat="33.8107315" lon="-118.3952083">
  <ele>-25.009</ele>
  <time>2026-09-02T22:08:48Z</time>
  <course>159.43</course>
  <speed>1.0151354589413177</speed>
  <fix>3d</fix>
</trkpt>
<trkpt lat="33.8107308" lon="-118.395211">
  <ele>-24.4</ele>
  <time>2026-09-02T22:08:48Z</time>
  <course>69.35</course>
  <speed>0.99</speed>
  <fix>3d</fix>
</trkpt>
<trkpt lat="33.8107318" lon="-118.3952073">
  <ele>-25.009</ele>
  <time>2026-09-02T22:08:48Z</time>
  <course>159.54</course>
  <speed>1.0151354589413177</speed>
  <fix>3d</fix>
</trkpt>
<trkpt lat="33.8107315" lon="-118.3952089">
  <ele>-24.4</ele>
  <time>2026-09-02T22:08:48Z</time>
  <course>69.59</course>
  <speed>0.99</speed>
  <fix>3d</fix>
</trkpt>
<trkpt lat="33.8107321" lon="-118.3952063">
  <ele>-25.009</ele>
  <time>2026-09-02T22:08:48Z</time>
  <course>159.66</course>
  <speed>1.0151354589413177</speed>
  <fix>3d</fix>
</trkpt>
<trkpt lat="33.8107315" lon="-118.3952089">
  <ele>-24.4</ele>
  <time>2026-09-02T22:08:48Z</time>
  <course>69.59</course>
  <speed>0.99</speed>
  <fix>3d</fix>
</trkpt>
<trkpt lat="33.8107324" lon="-118.3952053">
  <ele>-25.01</ele>
  <time>2026-09-02T22:08:48Z</time>
  <course>159.77</course>
  <speed>1.0151354589413177</speed>
  <fix>3d</fix>
</trkpt>
<trkpt lat="33.8107321" lon="-118.3952069">
  <ele>-24.4</ele>
  <time>2026-09-02T22:08:48Z</time>
  <course>69.8</course>
  <speed>0.99</speed>
  <fix>3d</fix>
</trkpt>
<trkpt lat="33.8107327" lon="-118.3952043">
  <ele>-25.011</ele>
  <time>2026-09-02T22:08:48Z</time>
  <course>159.88</course>
  <speed>1.0119288512538815</speed>
  <fix>3d</fix>
</trkpt>
<trkpt lat="33.8107321" lon="-118.3952069">
  <ele>-24.4</ele>
  <time>2026-09-02T22:08:48Z</time>
  <course>69.8</course>
  <speed>0.99</speed>
  <fix>3d</fix>
</trkpt>
<trkpt lat="33.810733" lon="-118.3952033">
  <ele>-25.011</ele>
  <time>2026-09-02T22:08:48Z</time>
  <course>160.0</course>
  <speed>1.0119288512538815</speed>
  <fix>3d</fix>
</trkpt>
<trkpt lat="33.8107327" lon="-118.3952049">
  <ele>-24.4</ele>
  <time>2026-09-02T22:08:48Z</time>
  <course>70.04</course>
  <speed>0.99</speed>
  <fix>3d</fix>
</trkpt>
<trkpt lat="33.8107333" lon="-118.3952022">
  <ele>-25.012</ele>
  <time>2026-09-02T22:08:48Z</time>
  <course>160.11</course>
  <speed>1.0119288512538815</speed>
  <fix>3d</fix>
</trkpt>
<trkpt lat="33.8107327" lon="-118.3952049">
  <ele>-24.4</ele>
  <time>2026-09-02T22:08:48Z</time>
  <course>70.04</course>
  <speed>0.99</speed>
  <fix>3d</fix>
</trkpt>
<trkpt lat="33.8107336" lon="-118.3952012">
  <ele>-25.012</ele>
  <time>2026-09-02T22:08:48Z</time>
  <course>160.23</course>
  <speed>1.0119288512538815</speed>
  <fix>3d</fix>
</trkpt>
<trkpt lat="33.8107334" lon="-118.3952028">
  <ele>-24.41</ele>
  <time>2026-09-02T22:08:48Z</time>
  <course>70.28</course>
  <speed>0.99</speed>
  <fix>3d</fix>
</trkpt>
<trkpt lat="33.8107339" lon="-118.3952002">
  <ele>-25.013</ele>
  <time>2026-09-02T22:08:48Z</time>
  <course>160.34</course>
  <speed>1.0119288512538815</speed>
  <fix>3d</fix>
</trkpt>
<trkpt lat="33.8107334" lon="-118.3952028">
  <ele>-24.41</ele>
  <time>2026-09-02T22:08:48Z</time>
  <course>70.28</course>
  <speed>0.99</speed>
  <fix>3d</fix>
</trkpt>
<trkpt lat="33.8107342" lon="-118.3951992">
  <ele>-25.014</ele>
  <time>2026-09-02T22:08:48Z</time>
  <course>160.45</course>
  <speed>1.0088111815399352</speed>
  <fix>3d</fix>
</trkpt>
<trkpt lat="33.8107339" lon="-118.3952008">
  <ele>-24.41</ele>
  <time>2026-09-02T22:08:48Z</time>
  <course>70.55</course>
  <speed>0.99</speed>
  <fix>3d</fix>
</trkpt>
<trkpt lat="33.8107345" lon="-118.3951982">
  <ele>-25.014</ele>
  <time>2026-09-02T22:08:48Z</time>
  <course>160.57</course>
  <speed>1.0088111815399352</speed>
  <fix>3d</fix>
</trkpt>
<trkpt lat="33.8107339" lon="-118.3952008">
  <ele>-24.41</ele>
  <time>2026-09-02T22:08:48Z</time>
  <course>70.55</course>
  <speed>0.99</speed>
  <fix>3d</fix>
</trkpt>
<trkpt lat="33.8107348" lon="-118.3951971">
  <ele>-25.013</ele>
  <time>2026-09-02T22:08:48Z</time>
  <course>160.68</course>
  <speed>1.0088111815399352</speed>
  <fix>3d</fix>
</trkpt>
<trkpt lat="33.8107346" lon="-118.3951988">
  <ele>-24.41</ele>
  <time>2026-09-02T22:08:48Z</time>
  <course>70.8</course>
  <speed>0.99</speed>
  <fix>3d</fix>
</trkpt>
<trkpt lat="33.8107351" lon="-118.3951961">
  <ele>-25.013</ele>
  <time>2026-09-02T22:08:48Z</time>
  <course>160.8</course>
  <speed>1.0183319694480775</speed>
  <fix>3d</fix>
</trkpt>
<trkpt lat="33.8107346" lon="-118.3951988">
  <ele>-24.41</ele>
  <time>2026-09-02T22:08:48Z</time>
  <course>70.8</course>
  <speed>0.99</speed>
  <fix>3d</fix>
</trkpt>
<trkpt lat="33.8107354" lon="-118.3951951">
  <ele>-25.014</ele>
  <time>2026-09-02T22:08:48Z</time>
  <course>160.92</course>
  <speed>1.0183319694480775</speed>
  <fix>3d</fix>
</trkpt>
<trkpt lat="33.8107351" lon="-118.3951967">
  <ele>-24.41</ele>
  <time>2026-09-02T22:08:48Z</time>
  <course>71.05</course>
  <speed>0.99</speed>
  <fix>3d</fix>
</trkpt>
<trkpt lat="33.8107357" lon="-118.3951941">
  <ele>-25.015</ele>
  <time>2026-09-02T22:08:48Z</time>
  <course>161.03</course>
  <speed>1.015332457867865</speed>
  <fix>3d</fix>
</trkpt>
<trkpt lat="33.8107351" lon="-118.3951967">
  <ele>-24.41</ele>
  <time>2026-09-02T22:08:48Z</time>
  <course>71.05</course>
  <speed>0.99</speed>
  <fix>3d</fix>
</trkpt>
<trkpt lat="33.810736" lon="-118.395193">
  <ele>-25.014</ele>
  <time>2026-09-02T22:08:48Z</time>
  <course>161.14</course>
  <speed>1.015332457867865</speed>
  <fix>3d</fix>
</trkpt>
<trkpt lat="33.8107357" lon="-118.3951947">
  <ele>-24.41</ele>
  <time>2026-09-02T22:08:48Z</time>
  <course>71.31</course>
  <speed>0.99</speed>
  <fix>3d</fix>
</trkpt>
<trkpt lat="33.8107362" lon="-118.395192">
  <ele>-25.014</ele>
  <time>2026-09-02T22:08:48Z</time>
  <course>161.26</course>
  <speed>1.015332457867865</speed>
  <fix>3d</fix>
</trkpt>
<trkpt lat="33.8107357" lon="-118.3951947">
  <ele>-24.41</ele>
  <time>2026-09-02T22:08:48Z</time>
  <course>71.31</course>
  <speed>0.99</speed>
  <fix>3d</fix>
</trkpt>
<trkpt lat="33.8107365" lon="-118.395191">
  <ele>-25.014</ele>
  <time>2026-09-02T22:08:48Z</time>
  <course>161.37</course>
  <speed>1.015332457867865</speed>
  <fix>3d</fix>
</trkpt>
<trkpt lat="33.8107363" lon="-118.3951926">
  <ele>-24.42</ele>
  <time>2026-09-02T22:08:48Z</time>
  <course>71.52</course>
  <speed>0.99</speed>
  <fix>3d</fix>
</trkpt>
<trkpt lat="33.8107368" lon="-118.39519">
  <ele>-25.015</ele>
  <time>2026-09-02T22:08:48Z</time>
  <course>161.49</course>
  <speed>1.015332457867865</speed>
  <fix>3d</fix>
</trkpt>
<trkpt lat="33.8107363" lon="-118.3951926">
  <ele>-24.42</ele>
  <time>2026-09-02T22:08:48Z</time>
  <course>71.52</course>
  <speed>0.99</speed>
  <fix>3d</fix>
</trkpt>
<trkpt lat="33.8107371" lon="-118.3951889">
  <ele>-25.016</ele>
  <time>2026-09-02T22:08:48Z</time>
  <course>161.6</course>
  <speed>1.015332457867865</speed>
  <fix>3d</fix>
</trkpt>
<trkpt lat="33.8107368" lon="-118.3951906">
  <ele>-24.42</ele>
  <time>2026-09-02T22:08:48Z</time>
  <course>71.74</course>
  <speed>0.99</speed>
  <fix>3d</fix>
</trkpt>
<trkpt lat="33.8107374" lon="-118.3951879">
  <ele>-25.017</ele>
  <time>2026-09-02T22:08:48Z</time>
  <course>161.72</course>
  <speed>1.0124228365658294</speed>
  <fix>3d</fix>
</trkpt>
<trkpt lat="33.8107368" lon="-118.3951906">
  <ele>-24.42</ele>
  <time>2026-09-02T22:08:48Z</time>
  <course>71.74</course>
  <speed>0.99</speed>
  <fix>3d</fix>
</trkpt>
<trkpt lat="33.8107376" lon="-118.3951869">
  <ele>-25.017</ele>
  <time>2026-09-02T22:08:48Z</time>
  <course>161.83</course>
  <speed>1.0124228365658294</speed>
  <fix>3d</fix>
</trkpt>
<trkpt lat="33.8107374" lon="-118.3951885">
  <ele>-24.42</ele>
  <time>2026-09-02T22:08:48Z</time>
  <course>71.93</course>
  <speed>0.99</speed>
  <fix>3d</fix>
</trkpt>
<trkpt lat="33.8107379" lon="-118.3951858">
  <ele>-25.016</ele>
  <time>2026-09-02T22:08:48Z</time>
  <course>161.95</course>
  <speed>1.0124228365658294</speed>
  <fix>3d</fix>
</trkpt>
<trkpt lat="33.8107374" lon="-118.3951885">
  <ele>-24.42</ele>
  <time>2026-09-02T22:08:48Z</time>
  <course>71.93</course>
  <speed>0.99</speed>
  <fix>3d</fix>
</trkpt>
<trkpt lat="33.8107382" lon="-118.3951848">
  <ele>-25.016</ele>
  <time>2026-09-02T22:08:48Z</time>
  <course>162.06</course>
  <speed>1.0124228365658294</speed>
  <fix>3d</fix>
</trkpt>
<trkpt lat="33.810738" lon="-118.3951865">
  <ele>-24.41</ele>
  <time>2026-09-02T22:08:48Z</time>
  <course>72.09</course>
  <speed>0.99</speed>
  <fix>3d</fix>
</trkpt>
<trkpt lat="33.8107385" lon="-118.3951838">
  <ele>-25.016</ele>
  <time>2026-09-02T22:08:48Z</time>
  <course>162.18</course>
  <speed>1.0124228365658294</speed>
  <fix>3d</fix>
</trkpt>
<trkpt lat="33.810738" lon="-118.3951865">
  <ele>-24.41</ele>
  <time>2026-09-02T22:08:48Z</time>
  <course>72.09</course>
  <speed>0.99</speed>
  <fix>3d</fix>
</trkpt>
<trkpt lat="33.8107387" lon="-118.3951828">
  <ele>-25.015</ele>
  <time>2026-09-02T22:08:48Z</time>
  <course>162.29</course>
  <speed>1.009603882718366</speed>
  <fix>3d</fix>
</trkpt>
<trkpt lat="33.8107385" lon="-118.3951844">
  <ele>-24.41</ele>
  <time>2026-09-02T22:08:48Z</time>
  <course>72.31</course>
  <speed>0.99</speed>
  <fix>3d</fix>
</trkpt>
<trkpt lat="33.810739" lon="-118.3951817">
  <ele>-25.015</ele>
  <time>2026-09-02T22:08:48Z</time>
  <course>162.4</course>
  <speed>1.009603882718366</speed>
  <fix>3d</fix>
</trkpt>
<trkpt lat="33.8107385" lon="-118.3951844">
  <ele>-24.41</ele>
  <time>2026-09-02T22:08:48Z</time>
  <course>72.31</course>
  <speed>0.99</speed>
  <fix>3d</fix>
</trkpt>
<trkpt lat="33.8107393" lon="-118.3951807">
  <ele>-25.014</ele>
  <time>2026-09-02T22:08:48Z</time>
  <course>162.52</course>
  <speed>1.0192153844992726</speed>
  <fix>3d</fix>
</trkpt>
<trkpt lat="33.810739" lon="-118.3951824">
  <ele>-24.41</ele>
  <time>2026-09-02T22:08:48Z</time>
  <course>72.56</course>
  <speed>0.99</speed>
  <fix>3d</fix>
</trkpt>
<trkpt lat="33.8107395" lon="-118.3951797">
  <ele>-25.012</ele>
  <time>2026-09-02T22:08:48Z</time>
  <course>162.63</course>
  <speed>1.0192153844992726</speed>
  <fix>3d</fix>
</trkpt>
<trkpt lat="33.810739" lon="-118.3951824">
  <ele>-24.41</ele>
  <time>2026-09-02T22:08:48Z</time>
  <course>72.56</course>
  <speed>0.99</speed>
  <fix>3d</fix>
</trkpt>
<trkpt lat="33.8107398" lon="-118.3951786">
  <ele>-25.011</ele>
  <time>2026-09-02T22:08:48Z</time>
  <course>162.75</course>
  <speed>1.0192153844992726</speed>
  <fix>3d</fix>
</trkpt>
<trkpt lat="33.8107396" lon="-118.3951803">
  <ele>-24.41</ele>
  <time>2026-09-02T22:08:48Z</time>
  <course>72.78</course>
  <speed>0.99</speed>
  <fix>3d</fix>
</trkpt>
<trkpt lat="33.8107401" lon="-118.3951776">
  <ele>-25.011</ele>
  <time>2026-09-02T22:08:48Z</time>
  <course>162.86</course>
  <speed>1.0165136496870073</speed>
  <fix>3d</fix>
</trkpt>
<trkpt lat="33.8107396" lon="-118.3951803">
  <ele>-24.41</ele>
  <time>2026-09-02T22:08:48Z</time>
  <course>72.78</course>
  <speed>0.99</speed>
  <fix>3d</fix>
</trkpt>
<trkpt lat="33.8107403" lon="-118.3951766">
  <ele>-25.011</ele>
  <time>2026-09-02T22:08:48Z</time>
  <course>162.98</course>
  <speed>1.0165136496870073</speed>
  <fix>3d</fix>
</trkpt>
<trkpt lat="33.8107401" lon="-118.3951782">
  <ele>-24.41</ele>
  <time>2026-09-02T22:08:48Z</time>
  <course>73.0</course>
  <speed>1.0</speed>
  <fix>3d</fix>
</trkpt>
<trkpt lat="33.8107406" lon="-118.3951755">
  <ele>-25.012</ele>
  <time>2026-09-02T22:08:48Z</time>
  <course>163.09</course>
  <speed>1.0165136496870073</speed>
  <fix>3d</fix>
</trkpt>
<trkpt lat="33.8107401" lon="-118.3951782">
  <ele>-24.41</ele>
  <time>2026-09-02T22:08:48Z</time>
  <course>73.0</course>
  <speed>1.0</speed>
  <fix>3d</fix>
</trkpt>
<trkpt lat="33.8107408" lon="-118.3951745">
  <ele>-25.015</ele>
  <time>2026-09-02T22:08:48Z</time>
  <course>163.21</course>
  <speed>1.0165136496870073</speed>
  <fix>3d</fix>
</trkpt>
<trkpt lat="33.8107406" lon="-118.3951761">
  <ele>-24.41</ele>
  <time>2026-09-02T22:08:48Z</time>
  <course>73.23</course>
  <speed>1.0</speed>
  <fix>3d</fix>
</trkpt>
<trkpt lat="33.8107411" lon="-118.3951734">
  <ele>-25.017</ele>
  <time>2026-09-02T22:08:48Z</time>
  <course>163.32</course>
  <speed>1.0165136496870073</speed>
  <fix>3d</fix>
</trkpt>
<trkpt lat="33.8107406" lon="-118.3951761">
  <ele>-24.41</ele>
  <time>2026-09-02T22:08:48Z</time>
  <course>73.23</course>
  <speed>1.0</speed>
  <fix>3d</fix>
</trkpt>
<trkpt lat="33.8107414" lon="-118.3951724">
  <ele>-25.019</ele>
  <time>2026-09-02T22:08:48Z</time>
  <course>163.43</course>
  <speed>1.0165136496870073</speed>
  <fix>3d</fix>
</trkpt>
<trkpt lat="33.8107411" lon="-118.3951741">
  <ele>-24.41</ele>
  <time>2026-09-02T22:08:48Z</time>
  <course>73.44</course>
  <speed>1.0</speed>
  <fix>3d</fix>
</trkpt>
<trkpt lat="33.8107416" lon="-118.3951714">
  <ele>-25.02</ele>
  <time>2026-09-02T22:08:48Z</time>
  <course>163.55</course>
  <speed>1.0139033484509261</speed>
  <fix>3d</fix>
</trkpt>
<trkpt lat="33.8107411" lon="-118.3951741">
  <ele>-24.41</ele>
  <time>2026-09-02T22:08:48Z</time>
  <course>73.44</course>
  <speed>1.0</speed>
  <fix>3d</fix>
</trkpt>
<trkpt lat="33.8107419" lon="-118.3951703">
  <ele>-25.02</ele>
  <time>2026-09-02T22:08:48Z</time>
  <course>163.67</course>
  <speed>1.0139033484509261</speed>
  <fix>3d</fix>
</trkpt>
<trkpt lat="33.8107416" lon="-118.395172">
  <ele>-24.41</ele>
  <time>2026-09-02T22:08:48Z</time>
  <course>73.61</course>
  <speed>0.99</speed>
  <fix>3d</fix>
</trkpt>
<trkpt lat="33.8107421" lon="-118.3951693">
  <ele>-25.018</ele>
  <time>2026-09-02T22:08:48Z</time>
  <course>163.78</course>
  <speed>1.0139033484509261</speed>
  <fix>3d</fix>
</trkpt>
<trkpt lat="33.8107416" lon="-118.395172">
  <ele>-24.41</ele>
  <time>2026-09-02T22:08:48Z</time>
  <course>73.61</course>
  <speed>0.99</speed>
  <fix>3d</fix>
</trkpt>
<trkpt lat="33.8107423" lon="-118.3951682">
  <ele>-25.016</ele>
  <time>2026-09-02T22:08:48Z</time>
  <course>163.9</course>
  <speed>1.0139033484509261</speed>
  <fix>3d</fix>
</trkpt>
<trkpt lat="33.8107421" lon="-118.3951699">
  <ele>-24.41</ele>
  <time>2026-09-02T22:08:48Z</time>
  <course>73.78</course>
  <speed>0.99</speed>
  <fix>3d</fix>
</trkpt>
<trkpt lat="33.8107426" lon="-118.3951672">
  <ele>-25.015</ele>
  <time>2026-09-02T22:08:48Z</time>
  <course>164.01</course>
  <speed>1.0139033484509261</speed>
  <fix>3d</fix>
</trkpt>
<trkpt lat="33.8107421" lon="-118.3951699">
  <ele>-24.41</ele>
  <time>2026-09-02T22:08:48Z</time>
  <course>73.78</course>
  <speed>0.99</speed>
  <fix>3d</fix>
</trkpt>
<trkpt lat="33.8107428" lon="-118.3951662">
  <ele>-25.013</ele>
  <time>2026-09-02T22:08:48Z</time>
  <course>164.13</course>
  <speed>1.0139033484509261</speed>
  <fix>3d</fix>
</trkpt>
<trkpt lat="33.8107426" lon="-118.3951678">
  <ele>-24.4</ele>
  <time>2026-09-02T22:08:48Z</time>
  <course>73.97</course>
  <speed>1.0</speed>
  <fix>3d</fix>
</trkpt>
<trkpt lat="33.8107431" lon="-118.3951651">
  <ele>-25.012</ele>
  <time>2026-09-02T22:08:48Z</time>
  <course>164.24</course>
  <speed>1.0113851887386922</speed>
  <fix>3d</fix>
</trkpt>
<trkpt lat="33.8107426" lon="-118.3951678">
  <ele>-24.4</ele>
  <time>2026-09-02T22:08:48Z</time>
  <course>73.97</course>
  <speed>1.0</speed>
  <fix>3d</fix>
</trkpt>
<trkpt lat="33.8107433" lon="-118.3951641">
  <ele>-25.011</ele>
  <time>2026-09-02T22:08:48Z</time>
  <course>164.36</course>
  <speed>1.0113851887386922</speed>
  <fix>3d</fix>
</trkpt>
<trkpt lat="33.8107431" lon="-118.3951658">
  <ele>-24.4</ele>
  <time>2026-09-02T22:08:48Z</time>
  <course>74.15</course>
  <speed>1.0</speed>
  <fix>3d</fix>
</trkpt>
<trkpt lat="33.8107436" lon="-118.395163">
  <ele>-25.01</ele>
  <time>2026-09-02T22:08:48Z</time>
  <course>164.47</course>
  <speed>1.0113851887386922</speed>
  <fix>3d</fix>
</trkpt>
<trkpt lat="33.8107431" lon="-118.3951658">
  <ele>-24.4</ele>
  <time>2026-09-02T22:08:48Z</time>
  <course>74.15</course>
  <speed>1.0</speed>
  <fix>3d</fix>
</trkpt>
<trkpt lat="33.8107438" lon="-118.395162">
  <ele>-25.01</ele>
  <time>2026-09-02T22:08:48Z</time>
  <course>164.58</course>
  <speed>1.0113851887386922</speed>
  <fix>3d</fix>
</trkpt>
<trkpt lat="33.8107436" lon="-118.3951637">
  <ele>-24.4</ele>
  <time>2026-09-02T22:08:48Z</time>
  <course>74.37</course>
  <speed>0.99</speed>
  <fix>3d</fix>
</trkpt>
<trkpt lat="33.810744" lon="-118.3951609">
  <ele>-25.009</ele>
  <time>2026-09-02T22:08:48Z</time>
  <course>164.7</course>
  <speed>1.0186756107809787</speed>
  <fix>3d</fix>
</trkpt>
<trkpt lat="33.8107436" lon="-118.3951637">
  <ele>-24.4</ele>
  <time>2026-09-02T22:08:48Z</time>
  <course>74.37</course>
  <speed>0.99</speed>
  <fix>3d</fix>
</trkpt>
<trkpt lat="33.8107443" lon="-118.3951599">
  <ele>-25.009</ele>
  <time>2026-09-02T22:08:48Z</time>
  <course>164.81</course>
  <speed>1.0186756107809787</speed>
  <fix>3d</fix>
</trkpt>
<trkpt lat="33.8107441" lon="-118.3951616">
  <ele>-24.4</ele>
  <time>2026-09-02T22:08:48Z</time>
  <course>74.62</course>
  <speed>1.0</speed>
  <fix>3d</fix>
</trkpt>
<trkpt lat="33.8107445" lon="-118.3951589">
  <ele>-25.009</ele>
  <time>2026-09-02T22:08:48Z</time>
  <course>164.93</course>
  <speed>1.0186756107809787</speed>
  <fix>3d</fix>
</trkpt>
<trkpt lat="33.8107441" lon="-118.3951616">
  <ele>-24.4</ele>
  <time>2026-09-02T22:08:48Z</time>
  <course>74.62</course>
  <speed>1.0</speed>
  <fix>3d</fix>
</trkpt>
<trkpt lat="33.8107447" lon="-118.3951578">
  <ele>-25.01</ele>
  <time>2026-09-02T22:08:48Z</time>
  <course>165.04</course>
  <speed>1.0186756107809787</speed>
  <fix>3d</fix>
</trkpt>
<trkpt lat="33.8107446" lon="-118.3951595">
  <ele>-24.4</ele>
  <time>2026-09-02T22:08:48Z</time>
  <course>74.89</course>
  <speed>1.0</speed>
  <fix>3d</fix>
</trkpt>
<trkpt lat="33.810745" lon="-118.3951568">
  <ele>-25.011</ele>
  <time>2026-09-02T22:08:48Z</time>
  <course>165.15</course>
  <speed>1.016366075781753</speed>
  <fix>3d</fix>
</trkpt>
<trkpt lat="33.8107446" lon="-118.3951595">
  <ele>-24.4</ele>
  <time>2026-09-02T22:08:48Z</time>
  <course>74.89</course>
  <speed>1.0</speed>
  <fix>3d</fix>
</trkpt>
<trkpt lat="33.8107452" lon="-118.3951557">
  <ele>-25.012</ele>
  <time>2026-09-02T22:08:49Z</time>
  <course>165.27</course>
  <speed>1.016366075781753</speed>
  <fix>3d</fix>
</trkpt>
<trkpt lat="33.8107451" lon="-118.3951574">
  <ele>-24.4</ele>
  <time>2026-09-02T22:08:49Z</time>
  <course>75.2</course>
  <speed>1.0</speed>
  <fix>3d</fix>
</trkpt>
<trkpt lat="33.8107454" lon="-118.3951547">
  <ele>-25.011</ele>
  <time>2026-09-02T22:08:49Z</time>
  <course>165.38</course>
  <speed>1.016366075781753</speed>
  <fix>3d</fix>
</trkpt>
<trkpt lat="33.8107451" lon="-118.3951574">
  <ele>-24.4</ele>
  <time>2026-09-02T22:08:49Z</time>
  <course>75.2</course>
  <speed>1.0</speed>
  <fix>3d</fix>
</trkpt>
<trkpt lat="33.8107456" lon="-118.3951536">
  <ele>-25.01</ele>
  <time>2026-09-02T22:08:49Z</time>
  <course>165.5</course>
  <speed>1.016366075781753</speed>
  <fix>3d</fix>
</trkpt>
<trkpt lat="33.8107455" lon="-118.3951553">
  <ele>-24.4</ele>
  <time>2026-09-02T22:08:49Z</time>
  <course>75.53</course>
  <speed>1.0</speed>
  <fix>3d</fix>
</trkpt>
<trkpt lat="33.8107459" lon="-118.3951526">
  <ele>-25.009</ele>
  <time>2026-09-02T22:08:49Z</time>
  <course>165.61</course>
  <speed>1.0141498903022177</speed>
  <fix>3d</fix>
</trkpt>
<trkpt lat="33.8107455" lon="-118.3951553">
  <ele>-24.4</ele>
  <time>2026-09-02T22:08:49Z</time>
  <course>75.53</course>
  <speed>1.0</speed>
  <fix>3d</fix>
</trkpt>
<trkpt lat="33.8107461" lon="-118.3951515">
  <ele>-25.01</ele>
  <time>2026-09-02T22:08:49Z</time>
  <course>165.73</course>
  <speed>1.0141498903022177</speed>
  <fix>3d</fix>
</trkpt>
<trkpt lat="33.8107459" lon="-118.3951532">
  <ele>-24.4</ele>
  <time>2026-09-02T22:08:49Z</time>
  <course>75.84</course>
  <speed>0.99</speed>
  <fix>3d</fix>
</trkpt>
<trkpt lat="33.8107463" lon="-118.3951505">
  <ele>-25.01</ele>
  <time>2026-09-02T22:08:49Z</time>
  <course>165.84</course>
  <speed>1.0141498903022177</speed>
  <fix>3d</fix>
</trkpt>
<trkpt lat="33.8107459" lon="-118.3951532">
  <ele>-24.4</ele>
  <time>2026-09-02T22:08:49Z</time>
  <course>75.84</course>
  <speed>0.99</speed>
  <fix>3d</fix>
</trkpt>
<trkpt lat="33.8107465" lon="-118.3951494">
  <ele>-25.012</ele>
  <time>2026-09-02T22:08:49Z</time>
  <course>165.96</course>
  <speed>1.0141498903022177</speed>
  <fix>3d</fix>
</trkpt>
<trkpt lat="33.8107464" lon="-118.3951511">
  <ele>-24.41</ele>
  <time>2026-09-02T22:08:49Z</time>
  <course>76.07</course>
  <speed>0.99</speed>
  <fix>3d</fix>
</trkpt>
<trkpt lat="33.8107467" lon="-118.3951484">
  <ele>-25.014</ele>
  <time>2026-09-02T22:08:49Z</time>
  <course>166.08</course>
  <speed>1.0141498903022177</speed>
  <fix>3d</fix>
</trkpt>
<trkpt lat="33.8107464" lon="-118.3951511">
  <ele>-24.41</ele>
  <time>2026-09-02T22:08:49Z</time>
  <course>76.07</course>
  <speed>0.99</speed>
  <fix>3d</fix>
</trkpt>
<trkpt lat="33.8107469" lon="-118.3951473">
  <ele>-25.016</ele>
  <time>2026-09-02T22:08:49Z</time>
  <course>166.19</course>
  <speed>1.0141498903022177</speed>
  <fix>3d</fix>
</trkpt>
<trkpt lat="33.8107468" lon="-118.395149">
  <ele>-24.41</ele>
  <time>2026-09-02T22:08:49Z</time>
  <course>76.28</course>
  <speed>1.0</speed>
  <fix>3d</fix>
</trkpt>
<trkpt lat="33.8107471" lon="-118.3951463">
  <ele>-25.017</ele>
  <time>2026-09-02T22:08:49Z</time>
  <course>166.3</course>
  <speed>1.0218121158021176</speed>
  <fix>3d</fix>
</trkpt>
<trkpt lat="33.8107468" lon="-118.395149">
  <ele>-24.41</ele>
  <time>2026-09-02T22:08:49Z</time>
  <course>76.28</course>
  <speed>1.0</speed>
  <fix>3d</fix>
</trkpt>
<trkpt lat="33.8107474" lon="-118.3951452">
  <ele>-25.017</ele>
  <time>2026-09-02T22:08:49Z</time>
  <course>166.41</course>
  <speed>1.0218121158021176</speed>
  <fix>3d</fix>
</trkpt>
<trkpt lat="33.8107473" lon="-118.3951469">
  <ele>-24.41</ele>
  <time>2026-09-02T22:08:49Z</time>
  <course>76.49</course>
  <speed>1.0</speed>
  <fix>3d</fix>
</trkpt>
<trkpt lat="33.8107476" lon="-118.3951442">
  <ele>-25.017</ele>
  <time>2026-09-02T22:08:49Z</time>
  <course>166.53</course>
  <speed>1.0218121158021176</speed>
  <fix>3d</fix>
</trkpt>
<trkpt lat="33.8107473" lon="-118.3951469">
  <ele>-24.41</ele>
  <time>2026-09-02T22:08:49Z</time>
  <course>76.49</course>
  <speed>1.0</speed>
  <fix>3d</fix>
</trkpt>
<trkpt lat="33.8107478" lon="-118.3951431">
  <ele>-25.017</ele>
  <time>2026-09-02T22:08:49Z</time>
  <course>166.64</course>
  <speed>1.0218121158021176</speed>
  <fix>3d</fix>
</trkpt>
<trkpt lat="33.8107476" lon="-118.3951448">
  <ele>-24.41</ele>
  <time>2026-09-02T22:08:49Z</time>
  <course>76.75</course>
  <speed>1.0</speed>
  <fix>3d</fix>
</trkpt>
<trkpt lat="33.810748" lon="-118.3951421">
  <ele>-25.015</ele>
  <time>2026-09-02T22:08:49Z</time>
  <course>166.76</course>
  <speed>1.0218121158021176</speed>
  <fix>3d</fix>
</trkpt>
<trkpt lat="33.8107476" lon="-118.3951448">
  <ele>-24.41</ele>
  <time>2026-09-02T22:08:49Z</time>
  <course>76.75</course>
  <speed>1.0</speed>
  <fix>3d</fix>
</trkpt>
<trkpt lat="33.8107482" lon="-118.395141">
  <ele>-25.012</ele>
  <time>2026-09-02T22:08:49Z</time>
  <course>166.87</course>
  <speed>1.019803902718557</speed>
  <fix>3d</fix>
</trkpt>
<trkpt lat="33.8107481" lon="-118.3951427">
  <ele>-24.41</ele>
  <time>2026-09-02T22:08:49Z</time>
  <course>77.0</course>
  <speed>1.0</speed>
  <fix>3d</fix>
</trkpt>
<trkpt lat="33.8107484" lon="-118.39514">
  <ele>-25.011</ele>
  <time>2026-09-02T22:08:49Z</time>
  <course>166.99</course>
  <speed>1.019803902718557</speed>
  <fix>3d</fix>
</trkpt>
<trkpt lat="33.8107481" lon="-118.3951427">
  <ele>-24.41</ele>
  <time>2026-09-02T22:08:49Z</time>
  <course>77.0</course>
  <speed>1.0</speed>
  <fix>3d</fix>
</trkpt>
<trkpt lat="33.8107486" lon="-118.3951389">
  <ele>-25.01</ele>
  <time>2026-09-02T22:08:49Z</time>
  <course>167.1</course>
  <speed>1.019803902718557</speed>
  <fix>3d</fix>
</trkpt>
<trkpt lat="33.8107485" lon="-118.3951406">
  <ele>-24.4</ele>
  <time>2026-09-02T22:08:49Z</time>
  <course>77.24</course>
  <speed>1.0</speed>
  <fix>3d</fix>
</trkpt>
<trkpt lat="33.8107488" lon="-118.3951379">
  <ele>-25.01</ele>
  <time>2026-09-02T22:08:49Z</time>
  <course>167.22</course>
  <speed>1.019803902718557</speed>
  <fix>3d</fix>
</trkpt>
<trkpt lat="33.8107485" lon="-118.3951406">
  <ele>-24.4</ele>
  <time>2026-09-02T22:08:49Z</time>
  <course>77.24</course>
  <speed>1.0</speed>
  <fix>3d</fix>
</trkpt>
<trkpt lat="33.810749" lon="-118.3951368">
  <ele>-25.011</ele>
  <time>2026-09-02T22:08:49Z</time>
  <course>167.33</course>
  <speed>1.019803902718557</speed>
  <fix>3d</fix>
</trkpt>
<trkpt lat="33.8107488" lon="-118.3951385">
  <ele>-24.4</ele>
  <time>2026-09-02T22:08:49Z</time>
  <course>77.5</course>
  <speed>1.0</speed>
  <fix>3d</fix>
</trkpt>
<trkpt lat="33.8107492" lon="-118.3951357">
  <ele>-25.013</ele>
  <time>2026-09-02T22:08:49Z</time>
  <course>167.45</course>
  <speed>1.0178899744078433</speed>
  <fix>3d</fix>
</trkpt>
<trkpt lat="33.8107488" lon="-118.3951385">
  <ele>-24.4</ele>
  <time>2026-09-02T22:08:49Z</time>
  <course>77.5</course>
  <speed>1.0</speed>
  <fix>3d</fix>
</trkpt>
<trkpt lat="33.8107493" lon="-118.3951347">
  <ele>-25.015</ele>
  <time>2026-09-02T22:08:49Z</time>
  <course>167.56</course>
  <speed>1.0178899744078433</speed>
  <fix>3d</fix>
</trkpt>
<trkpt lat="33.8107493" lon="-118.3951363">
  <ele>-24.41</ele>
  <time>2026-09-02T22:08:49Z</time>
  <course>77.71</course>
  <speed>1.0</speed>
  <fix>3d</fix>
</trkpt>
<trkpt lat="33.8107495" lon="-118.3951336">
  <ele>-25.017</ele>
  <time>2026-09-02T22:08:49Z</time>
  <course>167.68</course>
  <speed>1.0178899744078433</speed>
  <fix>3d</fix>
</trkpt>
<trkpt lat="33.8107493" lon="-118.3951363">
  <ele>-24.41</ele>
  <time>2026-09-02T22:08:49Z</time>
  <course>77.71</course>
  <speed>1.0</speed>
  <fix>3d</fix>
</trkpt>
<trkpt lat="33.8107497" lon="-118.3951326">
  <ele>-25.018</ele>
  <time>2026-09-02T22:08:49Z</time>
  <course>167.79</course>
  <speed>1.0178899744078433</speed>
  <fix>3d</fix>
</trkpt>
<trkpt lat="33.8107497" lon="-118.3951342">
  <ele>-24.41</ele>
  <time>2026-09-02T22:08:49Z</time>
  <course>77.9</course>
  <speed>1.0</speed>
  <fix>3d</fix>
</trkpt>
<trkpt lat="33.8107499" lon="-118.3951315">
  <ele>-25.018</ele>
  <time>2026-09-02T22:08:49Z</time>
  <course>167.91</course>
  <speed>1.0178899744078433</speed>
  <fix>3d</fix>
</trkpt>
<trkpt lat="33.8107497" lon="-118.3951342">
  <ele>-24.41</ele>
  <time>2026-09-02T22:08:49Z</time>
  <course>77.9</course>
  <speed>1.0</speed>
  <fix>3d</fix>
</trkpt>
<trkpt lat="33.8107501" lon="-118.3951304">
  <ele>-25.017</ele>
  <time>2026-09-02T22:08:49Z</time>
  <course>168.02</course>
  <speed>1.016070863670443</speed>
  <fix>3d</fix>
</trkpt>
<trkpt lat="33.81075" lon="-118.395132">
  <ele>-24.41</ele>
  <time>2026-09-02T22:08:49Z</time>
  <course>78.17</course>
  <speed>1.0</speed>
  <fix>3d</fix>
</trkpt>
<trkpt lat="33.8107503" lon="-118.3951294">
  <ele>-25.016</ele>
  <time>2026-09-02T22:08:49Z</time>
  <course>168.14</course>
  <speed>1.016070863670443</speed>
  <fix>3d</fix>
</trkpt>
<trkpt lat="33.81075" lon="-118.395132">
  <ele>-24.41</ele>
  <time>2026-09-02T22:08:49Z</time>
  <course>78.17</course>
  <speed>1.0</speed>
  <fix>3d</fix>
</trkpt>
<trkpt lat="33.8107505" lon="-118.3951283">
  <ele>-25.015</ele>
  <time>2026-09-02T22:08:49Z</time>
  <course>168.25</course>
  <speed>1.016070863670443</speed>
  <fix>3d</fix>
</trkpt>
<trkpt lat="33.8107504" lon="-118.3951299">
  <ele>-24.4</ele>
  <time>2026-09-02T22:08:49Z</time>
  <course>78.41</course>
  <speed>1.0</speed>
  <fix>3d</fix>
</trkpt>
<trkpt lat="33.8107506" lon="-118.3951272">
  <ele>-25.013</ele>
  <time>2026-09-02T22:08:49Z</time>
  <course>168.37</course>
  <speed>1.016070863670443</speed>
  <fix>3d</fix>
</trkpt>
<trkpt lat="33.8107504" lon="-118.3951299">
  <ele>-24.4</ele>
  <time>2026-09-02T22:08:49Z</time>
  <course>78.41</course>
  <speed>1.0</speed>
  <fix>3d</fix>
</trkpt>
<trkpt lat="33.8107508" lon="-118.3951262">
  <ele>-25.011</ele>
  <time>2026-09-02T22:08:49Z</time>
  <course>168.48</course>
  <speed>1.016070863670443</speed>
  <fix>3d</fix>
</trkpt>
<trkpt lat="33.8107507" lon="-118.3951278">
  <ele>-24.4</ele>
  <time>2026-09-02T22:08:49Z</time>
  <course>78.6</course>
  <speed>1.0</speed>
  <fix>3d</fix>
</trkpt>
<trkpt lat="33.810751" lon="-118.3951251">
  <ele>-25.009</ele>
  <time>2026-09-02T22:08:49Z</time>
  <course>168.59</course>
  <speed>1.014347080638575</speed>
  <fix>3d</fix>
</trkpt>
<trkpt lat="33.8107507" lon="-118.3951278">
  <ele>-24.4</ele>
  <time>2026-09-02T22:08:49Z</time>
  <course>78.6</course>
  <speed>1.0</speed>
  <fix>3d</fix>
</trkpt>
<trkpt lat="33.8107512" lon="-118.3951241">
  <ele>-25.007</ele>
  <time>2026-09-02T22:08:49Z</time>
  <course>168.71</course>
  <speed>1.014347080638575</speed>
  <fix>3d</fix>
</trkpt>
<trkpt lat="33.8107511" lon="-118.3951257">
  <ele>-24.4</ele>
  <time>2026-09-02T22:08:49Z</time>
  <course>78.8</course>
  <speed>1.0</speed>
  <fix>3d</fix>
</trkpt>
<trkpt lat="33.8107513" lon="-118.395123">
  <ele>-25.006</ele>
  <time>2026-09-02T22:08:49Z</time>
  <course>168.82</course>
  <speed>1.014347080638575</speed>
  <fix>3d</fix>
</trkpt>
<trkpt lat="33.8107511" lon="-118.3951257">
  <ele>-24.4</ele>
  <time>2026-09-02T22:08:49Z</time>
  <course>78.8</course>
  <speed>1.0</speed>
  <fix>3d</fix>
</trkpt>
<trkpt lat="33.8107515" lon="-118.3951219">
  <ele>-25.006</ele>
  <time>2026-09-02T22:08:49Z</time>
  <course>168.94</course>
  <speed>1.014347080638575</speed>
  <fix>3d</fix>
</trkpt>
<trkpt lat="33.8107514" lon="-118.3951236">
  <ele>-24.4</ele>
  <time>2026-09-02T22:08:49Z</time>
  <course>78.99</course>
  <speed>1.0</speed>
  <fix>3d</fix>
</trkpt>
<trkpt lat="33.8107517" lon="-118.3951209">
  <ele>-25.008</ele>
  <time>2026-09-02T22:08:49Z</time>
  <course>169.05</course>
  <speed>1.014347080638575</speed>
  <fix>3d</fix>
</trkpt>
<trkpt lat="33.8107514" lon="-118.3951236">
  <ele>-24.4</ele>
  <time>2026-09-02T22:08:49Z</time>
  <course>78.99</course>
  <speed>1.0</speed>
  <fix>3d</fix>
</trkpt>
<trkpt lat="33.8107518" lon="-118.3951198">
  <ele>-25.01</ele>
  <time>2026-09-02T22:08:49Z</time>
  <course>169.17</course>
  <speed>1.014347080638575</speed>
  <fix>3d</fix>
</trkpt>
<trkpt lat="33.8107518" lon="-118.3951214">
  <ele>-24.4</ele>
  <time>2026-09-02T22:08:49Z</time>
  <course>79.17</course>
  <speed>1.0</speed>
  <fix>3d</fix>
</trkpt>
<trkpt lat="33.810752" lon="-118.3951187">
  <ele>-25.012</ele>
  <time>2026-09-02T22:08:49Z</time>
  <course>169.28</course>
  <speed>1.012719112093773</speed>
  <fix>3d</fix>
</trkpt>
<trkpt lat="33.8107518" lon="-118.3951214">
  <ele>-24.4</ele>
  <time>2026-09-02T22:08:49Z</time>
  <course>79.17</course>
  <speed>1.0</speed>
  <fix>3d</fix>
</trkpt>
<trkpt lat="33.8107522" lon="-118.3951177">
  <ele>-25.014</ele>
  <time>2026-09-02T22:08:49Z</time>
  <course>169.4</course>
  <speed>1.012719112093773</speed>
  <fix>3d</fix>
</trkpt>
<trkpt lat="33.8107521" lon="-118.3951193">
  <ele>-24.41</ele>
  <time>2026-09-02T22:08:49Z</time>
  <course>79.37</course>
  <speed>1.0</speed>
  <fix>3d</fix>
</trkpt>
<trkpt lat="33.8107523" lon="-118.3951166">
  <ele>-25.016</ele>
  <time>2026-09-02T22:08:49Z</time>
  <course>169.51</course>
  <speed>1.012719112093773</speed>
  <fix>3d</fix>
</trkpt>
<trkpt lat="33.8107521" lon="-118.3951193">
  <ele>-24.41</ele>
  <time>2026-09-02T22:08:49Z</time>
  <course>79.37</course>
  <speed>1.0</speed>
  <fix>3d</fix>
</trkpt>
<trkpt lat="33.8107525" lon="-118.3951155">
  <ele>-25.017</ele>
  <time>2026-09-02T22:08:49Z</time>
  <course>169.63</course>
  <speed>1.012719112093773</speed>
  <fix>3d</fix>
</trkpt>
<trkpt lat="33.8107524" lon="-118.3951171">
  <ele>-24.41</ele>
  <time>2026-09-02T22:08:49Z</time>
  <course>79.59</course>
  <speed>1.0</speed>
  <fix>3d</fix>
</trkpt>
<trkpt lat="33.8107526" lon="-118.3951145">
  <ele>-25.019</ele>
  <time>2026-09-02T22:08:49Z</time>
  <course>169.74</course>
  <speed>1.012719112093773</speed>
  <fix>3d</fix>
</trkpt>
<trkpt lat="33.8107524" lon="-118.3951171">
  <ele>-24.41</ele>
  <time>2026-09-02T22:08:49Z</time>
  <course>79.59</course>
  <speed>1.0</speed>
  <fix>3d</fix>
</trkpt>
<trkpt lat="33.8107528" lon="-118.3951134">
  <ele>-25.02</ele>
  <time>2026-09-02T22:08:49Z</time>
  <course>169.85</course>
  <speed>1.0111874208078342</speed>
  <fix>3d</fix>
</trkpt>
<trkpt lat="33.8107528" lon="-118.395115">
  <ele>-24.41</ele>
  <time>2026-09-02T22:08:49Z</time>
  <course>79.8</course>
  <speed>1.0</speed>
  <fix>3d</fix>
</trkpt>
<trkpt lat="33.810753" lon="-118.3951123">
  <ele>-25.02</ele>
  <time>2026-09-02T22:08:49Z</time>
  <course>169.97</course>
  <speed>1.0111874208078342</speed>
  <fix>3d</fix>
</trkpt>
<trkpt lat="33.8107528" lon="-118.395115">
  <ele>-24.41</ele>
  <time>2026-09-02T22:08:49Z</time>
  <course>79.8</course>
  <speed>1.0</speed>
  <fix>3d</fix>
</trkpt>
<trkpt lat="33.8107531" lon="-118.3951113">
  <ele>-25.019</ele>
  <time>2026-09-02T22:08:49Z</time>
  <course>170.08</course>
  <speed>1.0111874208078342</speed>
  <fix>3d</fix>
</trkpt>
<trkpt lat="33.8107531" lon="-118.3951129">
  <ele>-24.41</ele>
  <time>2026-09-02T22:08:49Z</time>
  <course>80.01</course>
  <speed>1.0</speed>
  <fix>3d</fix>
</trkpt>
<trkpt lat="33.8107533" lon="-118.3951102">
  <ele>-25.017</ele>
  <time>2026-09-02T22:08:49Z</time>
  <course>170.2</course>
  <speed>1.0111874208078342</speed>
  <fix>3d</fix>
</trkpt>
<trkpt lat="33.8107531" lon="-118.3951129">
  <ele>-24.41</ele>
  <time>2026-09-02T22:08:49Z</time>
  <course>80.01</course>
  <speed>1.0</speed>
  <fix>3d</fix>
</trkpt>
<trkpt lat="33.8107534" lon="-118.3951091">
  <ele>-25.014</ele>
  <time>2026-09-02T22:08:49Z</time>
  <course>170.31</course>
  <speed>1.009752444909147</speed>
  <fix>3d</fix>
</trkpt>
<trkpt lat="33.8107534" lon="-118.3951108">
  <ele>-24.41</ele>
  <time>2026-09-02T22:08:49Z</time>
  <course>80.27</course>
  <speed>1.0</speed>
  <fix>3d</fix>
</trkpt>
<trkpt lat="33.8107536" lon="-118.3951081">
  <ele>-25.011</ele>
  <time>2026-09-02T22:08:49Z</time>
  <course>170.43</course>
  <speed>1.009752444909147</speed>
  <fix>3d</fix>
</trkpt>
<trkpt lat="33.8107534" lon="-118.3951108">
  <ele>-24.41</ele>
  <time>2026-09-02T22:08:49Z</time>
  <course>80.27</course>
  <speed>1.0</speed>
  <fix>3d</fix>
</trkpt>
<trkpt lat="33.8107537" lon="-118.395107">
  <ele>-25.009</ele>
  <time>2026-09-02T22:08:49Z</time>
  <course>170.54</course>
  <speed>1.009752444909147</speed>
  <fix>3d</fix>
</trkpt>
<trkpt lat="33.8107537" lon="-118.3951086">
  <ele>-24.4</ele>
  <time>2026-09-02T22:08:49Z</time>
  <course>80.55</course>
  <speed>1.0</speed>
  <fix>3d</fix>
</trkpt>
<trkpt lat="33.8107539" lon="-118.3951059">
  <ele>-25.008</ele>
  <time>2026-09-02T22:08:49Z</time>
  <course>170.65</course>
  <speed>1.009752444909147</speed>
  <fix>3d</fix>
</trkpt>
<trkpt lat="33.8107537" lon="-118.3951086">
  <ele>-24.4</ele>
  <time>2026-09-02T22:08:49Z</time>
  <course>80.55</course>
  <speed>1.0</speed>
  <fix>3d</fix>
</trkpt>
<trkpt lat="33.810754" lon="-118.3951049">
  <ele>-25.007</ele>
  <time>2026-09-02T22:08:49Z</time>
  <course>170.77</course>
  <speed>1.009752444909147</speed>
  <fix>3d</fix>
</trkpt>
<trkpt lat="33.810754" lon="-118.3951065">
  <ele>-24.4</ele>
  <time>2026-09-02T22:08:49Z</time>
  <course>80.82</course>
  <speed>1.0</speed>
  <fix>3d</fix>
</trkpt>
<trkpt lat="33.8107541" lon="-118.3951038">
  <ele>-25.007</ele>
  <time>2026-09-02T22:08:49Z</time>
  <course>170.88</course>
  <speed>1.0183319694480775</speed>
  <fix>3d</fix>
</trkpt>
<trkpt lat="33.810754" lon="-118.3951065">
  <ele>-24.4</ele>
  <time>2026-09-02T22:08:49Z</time>
  <course>80.82</course>
  <speed>1.0</speed>
  <fix>3d</fix>
</trkpt>
<trkpt lat="33.8107543" lon="-118.3951027">
  <ele>-25.008</ele>
  <time>2026-09-02T22:08:49Z</time>
  <course>170.99</course>
  <speed>1.0084145972763385</speed>
  <fix>3d</fix>
</trkpt>
<trkpt lat="33.8107543" lon="-118.3951043">
  <ele>-24.4</ele>
  <time>2026-09-02T22:08:49Z</time>
  <course>81.08</course>
  <speed>1.0</speed>
  <fix>3d</fix>
</trkpt>
<trkpt lat="33.8107544" lon="-118.3951017">
  <ele>-25.01</ele>
  <time>2026-09-02T22:08:49Z</time>
  <course>171.11</course>
  <speed>1.0183319694480775</speed>
  <fix>3d</fix>
</trkpt>
<trkpt lat="33.8107543" lon="-118.3951043">
  <ele>-24.4</ele>
  <time>2026-09-02T22:08:49Z</time>
  <course>81.08</course>
  <speed>1.0</speed>
  <fix>3d</fix>
</trkpt>
<trkpt lat="33.8107545" lon="-118.3951006">
  <ele>-25.011</ele>
  <time>2026-09-02T22:08:49Z</time>
  <course>171.22</course>
  <speed>1.0183319694480775</speed>
  <fix>3d</fix>
</trkpt>
<trkpt lat="33.8107545" lon="-118.3951022">
  <ele>-24.41</ele>
  <time>2026-09-02T22:08:49Z</time>
  <course>81.33</course>
  <speed>1.0</speed>
  <fix>3d</fix>
</trkpt>
<trkpt lat="33.8107547" lon="-118.3950995">
  <ele>-25.014</ele>
  <time>2026-09-02T22:08:49Z</time>
  <course>171.34</course>
  <speed>1.0171037311896953</speed>
  <fix>3d</fix>
</trkpt>
<trkpt lat="33.8107545" lon="-118.3951022">
  <ele>-24.41</ele>
  <time>2026-09-02T22:08:49Z</time>
  <course>81.33</course>
  <speed>1.0</speed>
  <fix>3d</fix>
</trkpt>
<trkpt lat="33.8107548" lon="-118.3950984">
  <ele>-25.016</ele>
  <time>2026-09-02T22:08:49Z</time>
  <course>171.46</course>
  <speed>1.0171037311896953</speed>
  <fix>3d</fix>
</trkpt>
<trkpt lat="33.8107548" lon="-118.3951001">
  <ele>-24.41</ele>
  <time>2026-09-02T22:08:49Z</time>
  <course>81.55</course>
  <speed>1.0</speed>
  <fix>3d</fix>
</trkpt>
<trkpt lat="33.8107549" lon="-118.3950974">
  <ele>-25.017</ele>
  <time>2026-09-02T22:08:49Z</time>
  <course>171.57</course>
  <speed>1.0171037311896953</speed>
  <fix>3d</fix>
</trkpt>
<trkpt lat="33.8107548" lon="-118.3951001">
  <ele>-24.41</ele>
  <time>2026-09-02T22:08:49Z</time>
  <course>81.55</course>
  <speed>1.0</speed>
  <fix>3d</fix>
</trkpt>
<trkpt lat="33.8107551" lon="-118.3950963">
  <ele>-25.018</ele>
  <time>2026-09-02T22:08:49Z</time>
  <course>171.69</course>
  <speed>1.0171037311896953</speed>
  <fix>3d</fix>
</trkpt>
<trkpt lat="33.810755" lon="-118.3950979">
  <ele>-24.41</ele>
  <time>2026-09-02T22:08:49Z</time>
  <course>81.75</course>
  <speed>1.0</speed>
  <fix>3d</fix>
</trkpt>
<trkpt lat="33.8107552" lon="-118.3950952">
  <ele>-25.017</ele>
  <time>2026-09-02T22:08:49Z</time>
  <course>171.8</course>
  <speed>1.0171037311896953</speed>
  <fix>3d</fix>
</trkpt>
<trkpt lat="33.810755" lon="-118.3950979">
  <ele>-24.41</ele>
  <time>2026-09-02T22:08:49Z</time>
  <course>81.75</course>
  <speed>1.0</speed>
  <fix>3d</fix>
</trkpt>
<trkpt lat="33.8107553" lon="-118.3950942">
  <ele>-25.015</ele>
  <time>2026-09-02T22:08:49Z</time>
  <course>171.92</course>
  <speed>1.0171037311896953</speed>
  <fix>3d</fix>
</trkpt>
<trkpt lat="33.8107553" lon="-118.3950958">
  <ele>-24.41</ele>
  <time>2026-09-02T22:08:49Z</time>
  <course>81.91</course>
  <speed>1.0</speed>
  <fix>3d</fix>
</trkpt>
<trkpt lat="33.8107554" lon="-118.3950931">
  <ele>-25.013</ele>
  <time>2026-09-02T22:08:49Z</time>
  <course>172.03</course>
  <speed>1.0171037311896953</speed>
  <fix>3d</fix>
</trkpt>
<trkpt lat="33.8107553" lon="-118.3950958">
  <ele>-24.41</ele>
  <time>2026-09-02T22:08:49Z</time>
  <course>81.91</course>
  <speed>1.0</speed>
  <fix>3d</fix>
</trkpt>
<trkpt lat="33.8107555" lon="-118.395092">
  <ele>-25.012</ele>
  <time>2026-09-02T22:08:49Z</time>
  <course>172.14</course>
  <speed>1.0159724405711013</speed>
  <fix>3d</fix>
</trkpt>
<trkpt lat="33.8107556" lon="-118.3950937">
  <ele>-24.41</ele>
  <time>2026-09-02T22:08:49Z</time>
  <course>82.07</course>
  <speed>1.0</speed>
  <fix>3d</fix>
</trkpt>
<trkpt lat="33.8107557" lon="-118.3950909">
  <ele>-25.012</ele>
  <time>2026-09-02T22:08:49Z</time>
  <course>172.26</course>
  <speed>1.0159724405711013</speed>
  <fix>3d</fix>
</trkpt>
<trkpt lat="33.8107556" lon="-118.3950937">
  <ele>-24.41</ele>
  <time>2026-09-02T22:08:49Z</time>
  <course>82.07</course>
  <speed>1.0</speed>
  <fix>3d</fix>
</trkpt>
<trkpt lat="33.8107558" lon="-118.3950899">
  <ele>-25.012</ele>
  <time>2026-09-02T22:08:49Z</time>
  <course>172.37</course>
  <speed>1.0159724405711013</speed>
  <fix>3d</fix>
</trkpt>
<trkpt lat="33.8107558" lon="-118.3950915">
  <ele>-24.41</ele>
  <time>2026-09-02T22:08:49Z</time>
  <course>82.29</course>
  <speed>1.0</speed>
  <fix>3d</fix>
</trkpt>
<trkpt lat="33.8107559" lon="-118.3950888">
  <ele>-25.014</ele>
  <time>2026-09-02T22:08:49Z</time>
  <course>172.49</course>
  <speed>1.0159724405711013</speed>
  <fix>3d</fix>
</trkpt>
<trkpt lat="33.8107558" lon="-118.3950915">
  <ele>-24.41</ele>
  <time>2026-09-02T22:08:49Z</time>
  <course>82.29</course>
  <speed>1.0</speed>
  <fix>3d</fix>
</trkpt>
<trkpt lat="33.810756" lon="-118.3950877">
  <ele>-25.014</ele>
  <time>2026-09-02T22:08:49Z</time>
  <course>172.6</course>
  <speed>1.0149384217774002</speed>
  <fix>3d</fix>
</trkpt>
<trkpt lat="33.8107561" lon="-118.3950894">
  <ele>-24.41</ele>
  <time>2026-09-02T22:08:49Z</time>
  <course>82.55</course>
  <speed>1.0</speed>
  <fix>3d</fix>
</trkpt>
<trkpt lat="33.8107561" lon="-118.3950867">
  <ele>-25.014</ele>
  <time>2026-09-02T22:08:49Z</time>
  <course>172.72</course>
  <speed>1.0149384217774002</speed>
  <fix>3d</fix>
</trkpt>
<trkpt lat="33.8107561" lon="-118.3950894">
  <ele>-24.41</ele>
  <time>2026-09-02T22:08:49Z</time>
  <course>82.55</course>
  <speed>1.0</speed>
  <fix>3d</fix>
</trkpt>
<trkpt lat="33.8107562" lon="-118.3950856">
  <ele>-25.013</ele>
  <time>2026-09-02T22:08:49Z</time>
  <course>172.83</course>
  <speed>1.0149384217774002</speed>
  <fix>3d</fix>
</trkpt>
<trkpt lat="33.8107562" lon="-118.3950872">
  <ele>-24.41</ele>
  <time>2026-09-02T22:08:49Z</time>
  <course>82.83</course>
  <speed>1.0</speed>
  <fix>3d</fix>
</trkpt>
<trkpt lat="33.8107563" lon="-118.3950845">
  <ele>-25.012</ele>
  <time>2026-09-02T22:08:49Z</time>
  <course>172.94</course>
  <speed>1.0149384217774002</speed>
  <fix>3d</fix>
</trkpt>
<trkpt lat="33.8107562" lon="-118.3950872">
  <ele>-24.41</ele>
  <time>2026-09-02T22:08:49Z</time>
  <course>82.83</course>
  <speed>1.0</speed>
  <fix>3d</fix>
</trkpt>
<trkpt lat="33.8107564" lon="-118.3950834">
  <ele>-25.011</ele>
  <time>2026-09-02T22:08:49Z</time>
  <course>173.06</course>
  <speed>1.0149384217774002</speed>
  <fix>3d</fix>
</trkpt>
<trkpt lat="33.8107564" lon="-118.3950851">
  <ele>-24.41</ele>
  <time>2026-09-02T22:08:49Z</time>
  <course>83.08</course>
  <speed>1.0</speed>
  <fix>3d</fix>
</trkpt>
<trkpt lat="33.8107565" lon="-118.3950824">
  <ele>-25.01</ele>
  <time>2026-09-02T22:08:49Z</time>
  <course>173.17</course>
  <speed>1.0140019723846694</speed>
  <fix>3d</fix>
</trkpt>
<trkpt lat="33.8107564" lon="-118.3950851">
  <ele>-24.41</ele>
  <time>2026-09-02T22:08:49Z</time>
  <course>83.08</course>
  <speed>1.0</speed>
  <fix>3d</fix>
</trkpt>
<trkpt lat="33.8107566" lon="-118.3950813">
  <ele>-25.011</ele>
  <time>2026-09-02T22:08:49Z</time>
  <course>173.29</course>
  <speed>1.0140019723846694</speed>
  <fix>3d</fix>
</trkpt>
<trkpt lat="33.8107567" lon="-118.3950829">
  <ele>-24.41</ele>
  <time>2026-09-02T22:08:49Z</time>
  <course>83.22</course>
  <speed>1.0</speed>
  <fix>3d</fix>
</trkpt>
<trkpt lat="33.8107567" lon="-118.3950802">
  <ele>-25.012</ele>
  <time>2026-09-02T22:08:49Z</time>
  <course>173.41</course>
  <speed>1.0140019723846694</speed>
  <fix>3d</fix>
</trkpt>
<trkpt lat="33.8107567" lon="-118.3950829">
  <ele>-24.41</ele>
  <time>2026-09-02T22:08:49Z</time>
  <course>83.22</course>
  <speed>1.0</speed>
  <fix>3d</fix>
</trkpt>
<trkpt lat="33.8107568" lon="-118.3950791">
  <ele>-25.014</ele>
  <time>2026-09-02T22:08:49Z</time>
  <course>173.52</course>
  <speed>1.0140019723846694</speed>
  <fix>3d</fix>
</trkpt>
<trkpt lat="33.8107569" lon="-118.3950808">
  <ele>-24.41</ele>
  <time>2026-09-02T22:08:49Z</time>
  <course>83.36</course>
  <speed>1.0</speed>
  <fix>3d</fix>
</trkpt>
<trkpt lat="33.8107569" lon="-118.3950781">
  <ele>-25.016</ele>
  <time>2026-09-02T22:08:49Z</time>
  <course>173.64</course>
  <speed>1.0140019723846694</speed>
  <fix>3d</fix>
</trkpt>
<trkpt lat="33.8107569" lon="-118.3950808">
  <ele>-24.41</ele>
  <time>2026-09-02T22:08:49Z</time>
  <course>83.36</course>
  <speed>1.0</speed>
  <fix>3d</fix>
</trkpt>
<trkpt lat="33.810757" lon="-118.395077">
  <ele>-25.017</ele>
  <time>2026-09-02T22:08:49Z</time>
  <course>173.75</course>
  <speed>1.0131633629380803</speed>
  <fix>3d</fix>
</trkpt>
<trkpt lat="33.8107572" lon="-118.3950786">
  <ele>-24.41</ele>
  <time>2026-09-02T22:08:49Z</time>
  <course>83.58</course>
  <speed>1.0</speed>
  <fix>3d</fix>
</trkpt>
<trkpt lat="33.8107571" lon="-118.3950759">
  <ele>-25.018</ele>
  <time>2026-09-02T22:08:49Z</time>
  <course>173.87</course>
  <speed>1.0131633629380803</speed>
  <fix>3d</fix>
</trkpt>
<trkpt lat="33.8107572" lon="-118.3950786">
  <ele>-24.41</ele>
  <time>2026-09-02T22:08:49Z</time>
  <course>83.58</course>
  <speed>1.0</speed>
  <fix>3d</fix>
</trkpt>
<trkpt lat="33.8107572" lon="-118.3950748">
  <ele>-25.019</ele>
  <time>2026-09-02T22:08:49Z</time>
  <course>173.98</course>
  <speed>1.0131633629380803</speed>
  <fix>3d</fix>
</trkpt>
<trkpt lat="33.8107574" lon="-118.3950764">
  <ele>-24.42</ele>
  <time>2026-09-02T22:08:49Z</time>
  <course>83.89</course>
  <speed>1.0</speed>
  <fix>3d</fix>
</trkpt>
<trkpt lat="33.8107573" lon="-118.3950737">
  <ele>-25.018</ele>
  <time>2026-09-02T22:08:49Z</time>
  <course>174.1</course>
  <speed>1.0124228365658294</speed>
  <fix>3d</fix>
</trkpt>
<trkpt lat="33.8107574" lon="-118.3950764">
  <ele>-24.42</ele>
  <time>2026-09-02T22:08:49Z</time>
  <course>83.89</course>
  <speed>1.0</speed>
  <fix>3d</fix>
</trkpt>
<trkpt lat="33.8107574" lon="-118.3950727">
  <ele>-25.018</ele>
  <time>2026-09-02T22:08:49Z</time>
  <course>174.21</course>
  <speed>1.0124228365658294</speed>
  <fix>3d</fix>
</trkpt>
<trkpt lat="33.8107575" lon="-118.3950743">
  <ele>-24.41</ele>
  <time>2026-09-02T22:08:49Z</time>
  <course>84.26</course>
  <speed>0.99</speed>
  <fix>3d</fix>
</trkpt>
<trkpt lat="33.8107575" lon="-118.3950716">
  <ele>-25.016</ele>
  <time>2026-09-02T22:08:49Z</time>
  <course>174.32</course>
  <speed>1.0124228365658294</speed>
  <fix>3d</fix>
</trkpt>
<trkpt lat="33.8107575" lon="-118.3950743">
  <ele>-24.41</ele>
  <time>2026-09-02T22:08:49Z</time>
  <course>84.26</course>
  <speed>0.99</speed>
  <fix>3d</fix>
</trkpt>
<trkpt lat="33.8107576" lon="-118.3950705">
  <ele>-25.015</ele>
  <time>2026-09-02T22:08:49Z</time>
  <course>174.44</course>
  <speed>1.0124228365658294</speed>
  <fix>3d</fix>
</trkpt>
<trkpt lat="33.8107576" lon="-118.3950721">
  <ele>-24.41</ele>
  <time>2026-09-02T22:08:49Z</time>
  <course>84.59</course>
  <speed>0.99</speed>
  <fix>3d</fix>
</trkpt>
<trkpt lat="33.8107577" lon="-118.3950694">
  <ele>-25.014</ele>
  <time>2026-09-02T22:08:49Z</time>
  <course>174.55</course>
  <speed>1.0124228365658294</speed>
  <fix>3d</fix>
</trkpt>
<trkpt lat="33.8107576" lon="-118.3950721">
  <ele>-24.41</ele>
  <time>2026-09-02T22:08:49Z</time>
  <course>84.59</course>
  <speed>0.99</speed>
  <fix>3d</fix>
</trkpt>
<trkpt lat="33.8107578" lon="-118.3950684">
  <ele>-25.013</ele>
  <time>2026-09-02T22:08:49Z</time>
  <course>174.67</course>
  <speed>1.0124228365658294</speed>
  <fix>3d</fix>
</trkpt>
<trkpt lat="33.8107579" lon="-118.39507">
  <ele>-24.41</ele>
  <time>2026-09-02T22:08:49Z</time>
  <course>84.79</course>
  <speed>0.99</speed>
  <fix>3d</fix>
</trkpt>
<trkpt lat="33.8107578" lon="-118.3950673">
  <ele>-25.012</ele>
  <time>2026-09-02T22:08:49Z</time>
  <course>174.78</course>
  <speed>1.0117806086301515</speed>
  <fix>3d</fix>
</trkpt>
<trkpt lat="33.8107579" lon="-118.39507">
  <ele>-24.41</ele>
  <time>2026-09-02T22:08:49Z</time>
  <course>84.79</course>
  <speed>0.99</speed>
  <fix>3d</fix>
</trkpt>
<trkpt lat="33.8107579" lon="-118.3950662">
  <ele>-25.01</ele>
  <time>2026-09-02T22:08:49Z</time>
  <course>174.9</course>
  <speed>1.0117806086301515</speed>
  <fix>3d</fix>
</trkpt>
<trkpt lat="33.810758" lon="-118.3950678">
  <ele>-24.4</ele>
  <time>2026-09-02T22:08:49Z</time>
  <course>84.97</course>
  <speed>0.99</speed>
  <fix>3d</fix>
</trkpt>
<trkpt lat="33.810758" lon="-118.3950651">
  <ele>-25.009</ele>
  <time>2026-09-02T22:08:49Z</time>
  <course>175.01</course>
  <speed>1.0117806086301515</speed>
  <fix>3d</fix>
</trkpt>
<trkpt lat="33.810758" lon="-118.3950678">
  <ele>-24.4</ele>
  <time>2026-09-02T22:08:49Z</time>
  <course>84.97</course>
  <speed>0.99</speed>
  <fix>3d</fix>
</trkpt>
<trkpt lat="33.8107581" lon="-118.395064">
  <ele>-25.009</ele>
  <time>2026-09-02T22:08:49Z</time>
  <course>175.13</course>
  <speed>1.0117806086301515</speed>
  <fix>3d</fix>
</trkpt>
<trkpt lat="33.8107581" lon="-118.3950657">
  <ele>-24.4</ele>
  <time>2026-09-02T22:08:49Z</time>
  <course>85.2</course>
  <speed>0.99</speed>
  <fix>3d</fix>
</trkpt>
<trkpt lat="33.8107581" lon="-118.395063">
  <ele>-25.01</ele>
  <time>2026-09-02T22:08:49Z</time>
  <course>175.24</course>
  <speed>1.0117806086301515</speed>
  <fix>3d</fix>
</trkpt>
<trkpt lat="33.8107581" lon="-118.3950657">
  <ele>-24.4</ele>
  <time>2026-09-02T22:08:49Z</time>
  <course>85.2</course>
  <speed>0.99</speed>
  <fix>3d</fix>
</trkpt>
<trkpt lat="33.8107582" lon="-118.3950619">
  <ele>-25.012</ele>
  <time>2026-09-02T22:08:49Z</time>
  <course>175.36</course>
  <speed>1.011236866416568</speed>
  <fix>3d</fix>
</trkpt>
<trkpt lat="33.8107583" lon="-118.3950635">
  <ele>-24.4</ele>
  <time>2026-09-02T22:08:49Z</time>
  <course>85.38</course>
  <speed>0.99</speed>
  <fix>3d</fix>
</trkpt>
<trkpt lat="33.8107583" lon="-118.3950608">
  <ele>-25.014</ele>
  <time>2026-09-02T22:08:49Z</time>
  <course>175.47</course>
  <speed>1.011236866416568</speed>
  <fix>3d</fix>
</trkpt>
<trkpt lat="33.8107583" lon="-118.3950635">
  <ele>-24.4</ele>
  <time>2026-09-02T22:08:49Z</time>
  <course>85.38</course>
  <speed>0.99</speed>
  <fix>3d</fix>
</trkpt>
<trkpt lat="33.8107583" lon="-118.3950597">
  <ele>-25.016</ele>
  <time>2026-09-02T22:08:49Z</time>
  <course>175.58</course>
  <speed>1.011236866416568</speed>
  <fix>3d</fix>
</trkpt>
<trkpt lat="33.8107585" lon="-118.3950614">
  <ele>-24.41</ele>
  <time>2026-09-02T22:08:49Z</time>
  <course>85.55</course>
  <speed>0.99</speed>
  <fix>3d</fix>
</trkpt>
<trkpt lat="33.8107584" lon="-118.3950586">
  <ele>-25.018</ele>
  <time>2026-09-02T22:08:49Z</time>
  <course>175.69</course>
  <speed>1.011236866416568</speed>
  <fix>3d</fix>
</trkpt>
<trkpt lat="33.8107585" lon="-118.3950614">
  <ele>-24.41</ele>
  <time>2026-09-02T22:08:49Z</time>
  <course>85.55</course>
  <speed>0.99</speed>
  <fix>3d</fix>
</trkpt>
<trkpt lat="33.8107585" lon="-118.3950576">
  <ele>-25.019</ele>
  <time>2026-09-02T22:08:49Z</time>
  <course>175.81</course>
  <speed>1.011236866416568</speed>
  <fix>3d</fix>
</trkpt>
<trkpt lat="33.8107586" lon="-118.3950592">
  <ele>-24.41</ele>
  <time>2026-09-02T22:08:49Z</time>
  <course>85.8</course>
  <speed>0.99</speed>
  <fix>3d</fix>
</trkpt>
<trkpt lat="33.8107585" lon="-118.3950565">
  <ele>-25.018</ele>
  <time>2026-09-02T22:08:49Z</time>
  <course>175.93</course>
  <speed>1.0107917688624102</speed>
  <fix>3d</fix>
</trkpt>
<trkpt lat="33.8107586" lon="-118.3950592">
  <ele>-24.41</ele>
  <time>2026-09-02T22:08:49Z</time>
  <course>85.8</course>
  <speed>0.99</speed>
  <fix>3d</fix>
</trkpt>
<trkpt lat="33.8107586" lon="-118.3950554">
  <ele>-25.016</ele>
  <time>2026-09-02T22:08:49Z</time>
  <course>176.04</course>
  <speed>1.0107917688624102</speed>
  <fix>3d</fix>
</trkpt>
<trkpt lat="33.8107587" lon="-118.3950571">
  <ele>-24.41</ele>
  <time>2026-09-02T22:08:49Z</time>
  <course>86.08</course>
  <speed>0.99</speed>
  <fix>3d</fix>
</trkpt>
<trkpt lat="33.8107586" lon="-118.3950543">
  <ele>-25.014</ele>
  <time>2026-09-02T22:08:49Z</time>
  <course>176.15</course>
  <speed>1.0107917688624102</speed>
  <fix>3d</fix>
</trkpt>
<trkpt lat="33.8107587" lon="-118.3950571">
  <ele>-24.41</ele>
  <time>2026-09-02T22:08:49Z</time>
  <course>86.08</course>
  <speed>0.99</speed>
  <fix>3d</fix>
</trkpt>
<trkpt lat="33.8107587" lon="-118.3950532">
  <ele>-25.012</ele>
  <time>2026-09-02T22:08:49Z</time>
  <course>176.27</course>
  <speed>1.0107917688624102</speed>
  <fix>3d</fix>
</trkpt>
<trkpt lat="33.8107588" lon="-118.3950549">
  <ele>-24.4</ele>
  <time>2026-09-02T22:08:49Z</time>
  <course>86.32</course>
  <speed>0.99</speed>
  <fix>3d</fix>
</trkpt>
<trkpt lat="33.8107588" lon="-118.3950522">
  <ele>-25.012</ele>
  <time>2026-09-02T22:08:49Z</time>
  <course>176.38</course>
  <speed>1.0107917688624102</speed>
  <fix>3d</fix>
</trkpt>
<trkpt lat="33.8107588" lon="-118.3950549">
  <ele>-24.4</ele>
  <time>2026-09-02T22:08:49Z</time>
  <course>86.32</course>
  <speed>0.99</speed>
  <fix>3d</fix>
</trkpt>
<trkpt lat="33.8107588" lon="-118.3950511">
  <ele>-25.011</ele>
  <time>2026-09-02T22:08:49Z</time>
  <course>176.5</course>
  <speed>1.0104454463255303</speed>
  <fix>3d</fix>
</trkpt>
<trkpt lat="33.8107589" lon="-118.3950528">
  <ele>-24.4</ele>
  <time>2026-09-02T22:08:49Z</time>
  <course>86.51</course>
  <speed>0.99</speed>
  <fix>3d</fix>
</trkpt>
<trkpt lat="33.8107589" lon="-118.39505">
  <ele>-25.011</ele>
  <time>2026-09-02T22:08:49Z</time>
  <course>176.61</course>
  <speed>1.0104454463255303</speed>
  <fix>3d</fix>
</trkpt>
<trkpt lat="33.8107589" lon="-118.3950528">
  <ele>-24.4</ele>
  <time>2026-09-02T22:08:49Z</time>
  <course>86.51</course>
  <speed>0.99</speed>
  <fix>3d</fix>
</trkpt>
<trkpt lat="33.8107589" lon="-118.3950489">
  <ele>-25.012</ele>
  <time>2026-09-02T22:08:49Z</time>
  <course>176.73</course>
  <speed>1.0104454463255303</speed>
  <fix>3d</fix>
</trkpt>
<trkpt lat="33.810759" lon="-118.3950506">
  <ele>-24.4</ele>
  <time>2026-09-02T22:08:49Z</time>
  <course>86.68</course>
  <speed>0.99</speed>
  <fix>3d</fix>
</trkpt>
<trkpt lat="33.8107589" lon="-118.3950478">
  <ele>-25.013</ele>
  <time>2026-09-02T22:08:49Z</time>
  <course>176.84</course>
  <speed>1.0104454463255303</speed>
  <fix>3d</fix>
</trkpt>
<trkpt lat="33.810759" lon="-118.3950506">
  <ele>-24.4</ele>
  <time>2026-09-02T22:08:49Z</time>
  <course>86.68</course>
  <speed>0.99</speed>
  <fix>3d</fix>
</trkpt>
<trkpt lat="33.810759" lon="-118.3950468">
  <ele>-25.014</ele>
  <time>2026-09-02T22:08:49Z</time>
  <course>176.96</course>
  <speed>1.0204410811016968</speed>
  <fix>3d</fix>
</trkpt>
<trkpt lat="33.8107591" lon="-118.3950485">
  <ele>-24.4</ele>
  <time>2026-09-02T22:08:49Z</time>
  <course>86.86</course>
  <speed>0.99</speed>
  <fix>3d</fix>
</trkpt>
<trkpt lat="33.810759" lon="-118.3950457">
  <ele>-25.014</ele>
  <time>2026-09-02T22:08:49Z</time>
  <course>177.07</course>
  <speed>1.0204410811016968</speed>
  <fix>3d</fix>
</trkpt>
<trkpt lat="33.8107591" lon="-118.3950485">
  <ele>-24.4</ele>
  <time>2026-09-02T22:08:49Z</time>
  <course>86.86</course>
  <speed>0.99</speed>
  <fix>3d</fix>
</trkpt>
<trkpt lat="33.8107591" lon="-118.3950446">
  <ele>-25.013</ele>
  <time>2026-09-02T22:08:49Z</time>
  <course>177.19</course>
  <speed>1.020196059588548</speed>
  <fix>3d</fix>
</trkpt>
<trkpt lat="33.8107592" lon="-118.3950463">
  <ele>-24.4</ele>
  <time>2026-09-02T22:08:49Z</time>
  <course>87.03</course>
  <speed>0.99</speed>
  <fix>3d</fix>
</trkpt>
<trkpt lat="33.8107591" lon="-118.3950435">
  <ele>-25.012</ele>
  <time>2026-09-02T22:08:49Z</time>
  <course>177.3</course>
  <speed>1.020196059588548</speed>
  <fix>3d</fix>
</trkpt>
<trkpt lat="33.8107592" lon="-118.3950463">
  <ele>-24.4</ele>
  <time>2026-09-02T22:08:49Z</time>
  <course>87.03</course>
  <speed>0.99</speed>
  <fix>3d</fix>
</trkpt>
<trkpt lat="33.8107592" lon="-118.3950424">
  <ele>-25.011</ele>
  <time>2026-09-02T22:08:49Z</time>
  <course>177.42</course>
  <speed>1.020196059588548</speed>
  <fix>3d</fix>
</trkpt>
<trkpt lat="33.8107593" lon="-118.3950442">
  <ele>-24.4</ele>
  <time>2026-09-02T22:08:49Z</time>
  <course>87.22</course>
  <speed>0.99</speed>
  <fix>3d</fix>
</trkpt>
<trkpt lat="33.8107592" lon="-118.3950414">
  <ele>-25.012</ele>
  <time>2026-09-02T22:08:49Z</time>
  <course>177.53</course>
  <speed>1.020196059588548</speed>
  <fix>3d</fix>
</trkpt>
<trkpt lat="33.8107593" lon="-118.3950442">
  <ele>-24.4</ele>
  <time>2026-09-02T22:08:49Z</time>
  <course>87.22</course>
  <speed>0.99</speed>
  <fix>3d</fix>
</trkpt>
<trkpt lat="33.8107592" lon="-118.3950403">
  <ele>-25.012</ele>
  <time>2026-09-02T22:08:49Z</time>
  <course>177.65</course>
  <speed>1.0200490184299968</speed>
  <fix>3d</fix>
</trkpt>
<trkpt lat="33.8107594" lon="-118.395042">
  <ele>-24.4</ele>
  <time>2026-09-02T22:08:49Z</time>
  <course>87.45</course>
  <speed>1.0</speed>
  <fix>3d</fix>
</trkpt>
<trkpt lat="33.8107593" lon="-118.3950392">
  <ele>-25.013</ele>
  <time>2026-09-02T22:08:49Z</time>
  <course>177.76</course>
  <speed>1.0200490184299968</speed>
  <fix>3d</fix>
</trkpt>
<trkpt lat="33.8107594" lon="-118.395042">
  <ele>-24.4</ele>
  <time>2026-09-02T22:08:49Z</time>
  <course>87.45</course>
  <speed>1.0</speed>
  <fix>3d</fix>
</trkpt>
<trkpt lat="33.8107593" lon="-118.3950381">
  <ele>-25.014</ele>
  <time>2026-09-02T22:08:49Z</time>
  <course>177.88</course>
  <speed>1.0200490184299968</speed>
  <fix>3d</fix>
</trkpt>
<trkpt lat="33.8107595" lon="-118.3950399">
  <ele>-24.4</ele>
  <time>2026-09-02T22:08:49Z</time>
  <course>87.71</course>
  <speed>1.0</speed>
  <fix>3d</fix>
</trkpt>
<trkpt lat="33.8107593" lon="-118.395037">
  <ele>-25.015</ele>
  <time>2026-09-02T22:08:49Z</time>
  <course>177.99</course>
  <speed>1.0200490184299968</speed>
  <fix>3d</fix>
</trkpt>
<trkpt lat="33.8107595" lon="-118.3950399">
  <ele>-24.4</ele>
  <time>2026-09-02T22:08:49Z</time>
  <course>87.71</course>
  <speed>1.0</speed>
  <fix>3d</fix>
</trkpt>
<trkpt lat="33.8107594" lon="-118.395036">
  <ele>-25.015</ele>
  <time>2026-09-02T22:08:49Z</time>
  <course>178.1</course>
  <speed>1.02</speed>
  <fix>3d</fix>
</trkpt>
<trkpt lat="33.8107596" lon="-118.3950377">
  <ele>-24.4</ele>
  <time>2026-09-02T22:08:49Z</time>
  <course>88.01</course>
  <speed>1.0</speed>
  <fix>3d</fix>
</trkpt>
<trkpt lat="33.8107594" lon="-118.3950349">
  <ele>-25.014</ele>
  <time>2026-09-02T22:08:49Z</time>
  <course>178.22</course>
  <speed>1.02</speed>
  <fix>3d</fix>
</trkpt>
<trkpt lat="33.8107596" lon="-118.3950377">
  <ele>-24.4</ele>
  <time>2026-09-02T22:08:49Z</time>
  <course>88.01</course>
  <speed>1.0</speed>
  <fix>3d</fix>
</trkpt>
<trkpt lat="33.8107594" lon="-118.3950338">
  <ele>-25.013</ele>
  <time>2026-09-02T22:08:49Z</time>
  <course>178.33</course>
  <speed>1.02</speed>
  <fix>3d</fix>
</trkpt>
<trkpt lat="33.8107596" lon="-118.3950355">
  <ele>-24.4</ele>
  <time>2026-09-02T22:08:49Z</time>
  <course>88.35</course>
  <speed>1.0</speed>
  <fix>3d</fix>
</trkpt>
<trkpt lat="33.8107594" lon="-118.3950327">
  <ele>-25.011</ele>
  <time>2026-09-02T22:08:49Z</time>
  <course>178.45</course>
  <speed>1.02</speed>
  <fix>3d</fix>
</trkpt>
<trkpt lat="33.8107596" lon="-118.3950355">
  <ele>-24.4</ele>
  <time>2026-09-02T22:08:49Z</time>
  <course>88.35</course>
  <speed>1.0</speed>
  <fix>3d</fix>
</trkpt>
<trkpt lat="33.8107595" lon="-118.3950316">
  <ele>-25.011</ele>
  <time>2026-09-02T22:08:49Z</time>
  <course>178.56</course>
  <speed>1.02</speed>
  <fix>3d</fix>
</trkpt>
<trkpt lat="33.8107597" lon="-118.3950334">
  <ele>-24.4</ele>
  <time>2026-09-02T22:08:49Z</time>
  <course>88.65</course>
  <speed>1.0</speed>
  <fix>3d</fix>
</trkpt>
<trkpt lat="33.8107595" lon="-118.3950306">
  <ele>-25.011</ele>
  <time>2026-09-02T22:08:49Z</time>
  <course>178.68</course>
  <speed>1.02</speed>
  <fix>3d</fix>
</trkpt>
<trkpt lat="33.8107597" lon="-118.3950334">
  <ele>-24.4</ele>
  <time>2026-09-02T22:08:49Z</time>
  <course>88.65</course>
  <speed>1.0</speed>
  <fix>3d</fix>
</trkpt>
<trkpt lat="33.8107595" lon="-118.3950295">
  <ele>-25.012</ele>
  <time>2026-09-02T22:08:49Z</time>
  <course>178.79</course>
  <speed>1.02</speed>
  <fix>3d</fix>
</trkpt>
<trkpt lat="33.8107597" lon="-118.3950312">
  <ele>-24.4</ele>
  <time>2026-09-02T22:08:49Z</time>
  <course>88.93</course>
  <speed>1.0</speed>
  <fix>3d</fix>
</trkpt>
<trkpt lat="33.8107595" lon="-118.3950284">
  <ele>-25.014</ele>
  <time>2026-09-02T22:08:49Z</time>
  <course>178.91</course>
  <speed>1.02</speed>
  <fix>3d</fix>
</trkpt>
<trkpt lat="33.8107597" lon="-118.3950312">
  <ele>-24.4</ele>
  <time>2026-09-02T22:08:49Z</time>
  <course>88.93</course>
  <speed>1.0</speed>
  <fix>3d</fix>
</trkpt>
<trkpt lat="33.8107595" lon="-118.3950273">
  <ele>-25.015</ele>
  <time>2026-09-02T22:08:49Z</time>
  <course>179.02</course>
  <speed>1.02</speed>
  <fix>3d</fix>
</trkpt>
<trkpt lat="33.8107598" lon="-118.395029">
  <ele>-24.4</ele>
  <time>2026-09-02T22:08:49Z</time>
  <course>89.19</course>
  <speed>1.0</speed>
  <fix>3d</fix>
</trkpt>
<trkpt lat="33.8107595" lon="-118.3950262">
  <ele>-25.015</ele>
  <time>2026-09-02T22:08:49Z</time>
  <course>179.13</course>
  <speed>1.0200490184299968</speed>
  <fix>3d</fix>
</trkpt>
<trkpt lat="33.8107598" lon="-118.395029">
  <ele>-24.4</ele>
  <time>2026-09-02T22:08:49Z</time>
  <course>89.19</course>
  <speed>1.0</speed>
  <fix>3d</fix>
</trkpt>
<trkpt lat="33.8107595" lon="-118.3950251">
  <ele>-25.014</ele>
  <time>2026-09-02T22:08:49Z</time>
  <course>179.25</course>
  <speed>1.0200490184299968</speed>
  <fix>3d</fix>
</trkpt>
<trkpt lat="33.8107598" lon="-118.3950269">
  <ele>-24.4</ele>
  <time>2026-09-02T22:08:49Z</time>
  <course>89.45</course>
  <speed>1.0</speed>
  <fix>3d</fix>
</trkpt>
<trkpt lat="33.8107595" lon="-118.3950241">
  <ele>-25.013</ele>
  <time>2026-09-02T22:08:49Z</time>
  <course>179.36</course>
  <speed>1.0200490184299968</speed>
  <fix>3d</fix>
</trkpt>
<trkpt lat="33.8107598" lon="-118.3950269">
  <ele>-24.4</ele>
  <time>2026-09-02T22:08:49Z</time>
  <course>89.45</course>
  <speed>1.0</speed>
  <fix>3d</fix>
</trkpt>
<trkpt lat="33.8107596" lon="-118.395023">
  <ele>-25.01</ele>
  <time>2026-09-02T22:08:49Z</time>
  <course>179.48</course>
  <speed>1.0200490184299968</speed>
  <fix>3d</fix>
</trkpt>
<trkpt lat="33.8107598" lon="-118.3950247">
  <ele>-24.4</ele>
  <time>2026-09-02T22:08:49Z</time>
  <course>89.74</course>
  <speed>1.0</speed>
  <fix>3d</fix>
</trkpt>
<trkpt lat="33.8107596" lon="-118.3950219">
  <ele>-25.008</ele>
  <time>2026-09-02T22:08:49Z</time>
  <course>179.59</course>
  <speed>1.020196059588548</speed>
  <fix>3d</fix>
</trkpt>
<trkpt lat="33.8107598" lon="-118.3950247">
  <ele>-24.4</ele>
  <time>2026-09-02T22:08:49Z</time>
  <course>89.74</course>
  <speed>1.0</speed>
  <fix>3d</fix>
</trkpt>
<trkpt lat="33.8107596" lon="-118.3950208">
  <ele>-25.007</ele>
  <time>2026-09-02T22:08:49Z</time>
  <course>179.71</course>
  <speed>1.020196059588548</speed>
  <fix>3d</fix>
</trkpt>
<trkpt lat="33.8107598" lon="-118.3950225">
  <ele>-24.4</ele>
  <time>2026-09-02T22:08:49Z</time>
  <course>90.0</course>
  <speed>1.0</speed>
  <fix>3d</fix>
</trkpt>
<trkpt lat="33.8107596" lon="-118.3950197">
  <ele>-25.007</ele>
  <time>2026-09-02T22:08:49Z</time>
  <course>179.82</course>
  <speed>1.020196059588548</speed>
  <fix>3d</fix>
</trkpt>
<trkpt lat="33.8107598" lon="-118.3950225">
  <ele>-24.4</ele>
  <time>2026-09-02T22:08:49Z</time>
  <course>90.0</course>
  <speed>1.0</speed>
  <fix>3d</fix>
</trkpt>
<trkpt lat="33.8107596" lon="-118.3950186">
  <ele>-25.008</ele>
  <time>2026-09-02T22:08:49Z</time>
  <course>179.94</course>
  <speed>1.020196059588548</speed>
  <fix>3d</fix>
</trkpt>
<trkpt lat="33.8107598" lon="-118.3950204">
  <ele>-24.4</ele>
  <time>2026-09-02T22:08:49Z</time>
  <course>90.23</course>
  <speed>1.0</speed>
  <fix>3d</fix>
</trkpt>
<trkpt lat="33.8107596" lon="-118.3950176">
  <ele>-25.009</ele>
  <time>2026-09-02T22:08:49Z</time>
  <course>180.06</course>
  <speed>1.020196059588548</speed>
  <fix>3d</fix>
</trkpt>
<trkpt lat="33.8107598" lon="-118.3950204">
  <ele>-24.4</ele>
  <time>2026-09-02T22:08:49Z</time>
  <course>90.23</course>
  <speed>1.0</speed>
  <fix>3d</fix>
</trkpt>
<trkpt lat="33.8107596" lon="-118.3950165">
  <ele>-25.01</ele>
  <time>2026-09-02T22:08:49Z</time>
  <course>180.18</course>
  <speed>1.020196059588548</speed>
  <fix>3d</fix>
</trkpt>
<trkpt lat="33.8107598" lon="-118.3950182">
  <ele>-24.4</ele>
  <time>2026-09-02T22:08:49Z</time>
  <course>90.44</course>
  <speed>1.0</speed>
  <fix>3d</fix>
</trkpt>
<trkpt lat="33.8107596" lon="-118.3950154">
  <ele>-25.012</ele>
  <time>2026-09-02T22:08:49Z</time>
  <course>180.3</course>
  <speed>1.0204410811016968</speed>
  <fix>3d</fix>
</trkpt>
<trkpt lat="33.8107598" lon="-118.3950182">
  <ele>-24.4</ele>
  <time>2026-09-02T22:08:49Z</time>
  <course>90.44</course>
  <speed>1.0</speed>
  <fix>3d</fix>
</trkpt>
<trkpt lat="33.8107596" lon="-118.3950143">
  <ele>-25.015</ele>
  <time>2026-09-02T22:08:49Z</time>
  <course>180.41</course>
  <speed>1.0204410811016968</speed>
  <fix>3d</fix>
</trkpt>
<trkpt lat="33.8107598" lon="-118.3950161">
  <ele>-24.41</ele>
  <time>2026-09-02T22:08:49Z</time>
  <course>90.65</course>
  <speed>1.0</speed>
  <fix>3d</fix>
</trkpt>
<trkpt lat="33.8107596" lon="-118.3950132">
  <ele>-25.017</ele>
  <time>2026-09-02T22:08:49Z</time>
  <course>180.52</course>
  <speed>1.0204410811016968</speed>
  <fix>3d</fix>
</trkpt>
<trkpt lat="33.8107598" lon="-118.3950161">
  <ele>-24.41</ele>
  <time>2026-09-02T22:08:49Z</time>
  <course>90.65</course>
  <speed>1.0</speed>
  <fix>3d</fix>
</trkpt>
<trkpt lat="33.8107596" lon="-118.3950122">
  <ele>-25.018</ele>
  <time>2026-09-02T22:08:49Z</time>
  <course>180.64</course>
  <speed>1.0204410811016968</speed>
  <fix>3d</fix>
</trkpt>
<trkpt lat="33.8107598" lon="-118.3950139">
  <ele>-24.41</ele>
  <time>2026-09-02T22:08:49Z</time>
  <course>90.87</course>
  <speed>1.0</speed>
  <fix>3d</fix>
</trkpt>
<trkpt lat="33.8107596" lon="-118.3950111">
  <ele>-25.019</ele>
  <time>2026-09-02T22:08:49Z</time>
  <course>180.75</course>
  <speed>1.0204410811016968</speed>
  <fix>3d</fix>
</trkpt>
<trkpt lat="33.8107598" lon="-118.3950139">
  <ele>-24.41</ele>
  <time>2026-09-02T22:08:49Z</time>
  <course>90.87</course>
  <speed>1.0</speed>
  <fix>3d</fix>
</trkpt>
<trkpt lat="33.8107596" lon="-118.39501">
  <ele>-25.019</ele>
  <time>2026-09-02T22:08:49Z</time>
  <course>180.87</course>
  <speed>1.0207840124139878</speed>
  <fix>3d</fix>
</trkpt>
<trkpt lat="33.8107598" lon="-118.3950117">
  <ele>-24.41</ele>
  <time>2026-09-02T22:08:49Z</time>
  <course>91.11</course>
  <speed>1.0</speed>
  <fix>3d</fix>
</trkpt>
<trkpt lat="33.8107596" lon="-118.3950089">
  <ele>-25.017</ele>
  <time>2026-09-02T22:08:49Z</time>
  <course>180.98</course>
  <speed>1.0207840124139878</speed>
  <fix>3d</fix>
</trkpt>
<trkpt lat="33.8107598" lon="-118.3950117">
  <ele>-24.41</ele>
  <time>2026-09-02T22:08:49Z</time>
  <course>91.11</course>
  <speed>1.0</speed>
  <fix>3d</fix>
</trkpt>
<trkpt lat="33.8107595" lon="-118.3950078">
  <ele>-25.016</ele>
  <time>2026-09-02T22:08:49Z</time>
  <course>181.1</course>
  <speed>1.0207840124139878</speed>
  <fix>3d</fix>
</trkpt>
<trkpt lat="33.8107598" lon="-118.3950096">
  <ele>-24.41</ele>
  <time>2026-09-02T22:08:49Z</time>
  <course>91.38</course>
  <speed>1.0</speed>
  <fix>3d</fix>
</trkpt>
<trkpt lat="33.8107595" lon="-118.3950068">
  <ele>-25.014</ele>
  <time>2026-09-02T22:08:49Z</time>
  <course>181.21</course>
  <speed>1.0207840124139878</speed>
  <fix>3d</fix>
</trkpt>
<trkpt lat="33.8107598" lon="-118.3950096">
  <ele>-24.41</ele>
  <time>2026-09-02T22:08:49Z</time>
  <course>91.38</course>
  <speed>1.0</speed>
  <fix>3d</fix>
</trkpt>
<trkpt lat="33.8107595" lon="-118.3950057">
  <ele>-25.011</ele>
  <time>2026-09-02T22:08:49Z</time>
  <course>181.32</course>
  <speed>1.0212247548899311</speed>
  <fix>3d</fix>
</trkpt>
<trkpt lat="33.8107597" lon="-118.3950074">
  <ele>-24.41</ele>
  <time>2026-09-02T22:08:49Z</time>
  <course>91.67</course>
  <speed>1.0</speed>
  <fix>3d</fix>
</trkpt>
<trkpt lat="33.8107595" lon="-118.3950046">
  <ele>-25.009</ele>
  <time>2026-09-02T22:08:49Z</time>
  <course>181.44</course>
  <speed>1.0212247548899311</speed>
  <fix>3d</fix>
</trkpt>
<trkpt lat="33.8107597" lon="-118.3950074">
  <ele>-24.41</ele>
  <time>2026-09-02T22:08:49Z</time>
  <course>91.67</course>
  <speed>1.0</speed>
  <fix>3d</fix>
</trkpt>
<trkpt lat="33.8107595" lon="-118.3950035">
  <ele>-25.008</ele>
  <time>2026-09-02T22:08:49Z</time>
  <course>181.55</course>
  <speed>1.0212247548899311</speed>
  <fix>3d</fix>
</trkpt>
<trkpt lat="33.8107596" lon="-118.3950051">
  <ele>-24.41</ele>
  <time>2026-09-02T22:08:49Z</time>
  <course>91.96</course>
  <speed>1.0</speed>
  <fix>3d</fix>
</trkpt>
<trkpt lat="33.8107594" lon="-118.3950024">
  <ele>-25.009</ele>
  <time>2026-09-02T22:08:49Z</time>
  <course>181.67</course>
  <speed>1.011236866416568</speed>
  <fix>3d</fix>
</trkpt>
<trkpt lat="33.8107596" lon="-118.3950051">
  <ele>-24.41</ele>
  <time>2026-09-02T22:08:49Z</time>
  <course>91.96</course>
  <speed>1.0</speed>
  <fix>3d</fix>
</trkpt>
<trkpt lat="33.8107594" lon="-118.3950013">
  <ele>-25.01</ele>
  <time>2026-09-02T22:08:49Z</time>
  <course>181.78</course>
  <speed>1.011236866416568</speed>
  <fix>3d</fix>
</trkpt>
<trkpt lat="33.8107596" lon="-118.395003">
  <ele>-24.41</ele>
  <time>2026-09-02T22:08:49Z</time>
  <course>92.19</course>
  <speed>1.0</speed>
  <fix>3d</fix>
</trkpt>
<trkpt lat="33.8107594" lon="-118.3950003">
  <ele>-25.013</ele>
  <time>2026-09-02T22:08:49Z</time>
  <course>181.9</course>
  <speed>1.0117806086301515</speed>
  <fix>3d</fix>
</trkpt>
<trkpt lat="33.8107596" lon="-118.395003">
  <ele>-24.41</ele>
  <time>2026-09-02T22:08:49Z</time>
  <course>92.19</course>
  <speed>1.0</speed>
  <fix>3d</fix>
</trkpt>
<trkpt lat="33.8107593" lon="-118.3949992">
  <ele>-25.016</ele>
  <time>2026-09-02T22:08:49Z</time>
  <course>182.0</course>
  <speed>1.0117806086301515</speed>
  <fix>3d</fix>
</trkpt>
<trkpt lat="33.8107595" lon="-118.3950008">
  <ele>-24.41</ele>
  <time>2026-09-02T22:08:49Z</time>
  <course>92.39</course>
  <speed>1.0</speed>
  <fix>3d</fix>
</trkpt>
<trkpt lat="33.8107593" lon="-118.3949981">
  <ele>-25.017</ele>
  <time>2026-09-02T22:08:49Z</time>
  <course>182.12</course>
  <speed>1.0117806086301515</speed>
  <fix>3d</fix>
</trkpt>
<trkpt lat="33.8107595" lon="-118.3950008">
  <ele>-24.41</ele>
  <time>2026-09-02T22:08:49Z</time>
  <course>92.39</course>
  <speed>1.0</speed>
  <fix>3d</fix>
</trkpt>
<trkpt lat="33.8107592" lon="-118.394997">
  <ele>-25.018</ele>
  <time>2026-09-02T22:08:49Z</time>
  <course>182.24</course>
  <speed>1.0117806086301515</speed>
  <fix>3d</fix>
</trkpt>
<trkpt lat="33.8107594" lon="-118.3949987">
  <ele>-24.41</ele>
  <time>2026-09-02T22:08:49Z</time>
  <course>92.59</course>
  <speed>1.0</speed>
  <fix>3d</fix>
</trkpt>
<trkpt lat="33.8107592" lon="-118.3949959">
  <ele>-25.018</ele>
  <time>2026-09-02T22:08:49Z</time>
  <course>182.35</course>
  <speed>1.0117806086301515</speed>
  <fix>3d</fix>
</trkpt>
<trkpt lat="33.8107594" lon="-118.3949987">
  <ele>-24.41</ele>
  <time>2026-09-02T22:08:49Z</time>
  <course>92.59</course>
  <speed>1.0</speed>
  <fix>3d</fix>
</trkpt>
<trkpt lat="33.8107592" lon="-118.3949948">
  <ele>-25.017</ele>
  <time>2026-09-02T22:08:49Z</time>
  <course>182.47</course>
  <speed>1.0117806086301515</speed>
  <fix>3d</fix>
</trkpt>
<trkpt lat="33.8107593" lon="-118.3949965">
  <ele>-24.41</ele>
  <time>2026-09-02T22:08:49Z</time>
  <course>92.76</course>
  <speed>1.0</speed>
  <fix>3d</fix>
</trkpt>
<trkpt lat="33.8107591" lon="-118.3949938">
  <ele>-25.016</ele>
  <time>2026-09-02T22:08:49Z</time>
  <course>182.58</course>
  <speed>1.0117806086301515</speed>
  <fix>3d</fix>
</trkpt>
<trkpt lat="33.8107593" lon="-118.3949965">
  <ele>-24.41</ele>
  <time>2026-09-02T22:08:49Z</time>
  <course>92.76</course>
  <speed>1.0</speed>
  <fix>3d</fix>
</trkpt>
<trkpt lat="33.8107591" lon="-118.3949927">
  <ele>-25.014</ele>
  <time>2026-09-02T22:08:49Z</time>
  <course>182.7</course>
  <speed>1.0124228365658294</speed>
  <fix>3d</fix>
</trkpt>
<trkpt lat="33.8107592" lon="-118.3949944">
  <ele>-24.41</ele>
  <time>2026-09-02T22:08:49Z</time>
  <course>92.9</course>
  <speed>1.0</speed>
  <fix>3d</fix>
</trkpt>
<trkpt lat="33.810759" lon="-118.3949916">
  <ele>-25.014</ele>
  <time>2026-09-02T22:08:49Z</time>
  <course>182.81</course>
  <speed>1.022399139279763</speed>
  <fix>3d</fix>
</trkpt>
<trkpt lat="33.8107592" lon="-118.3949944">
  <ele>-24.41</ele>
  <time>2026-09-02T22:08:49Z</time>
  <course>92.9</course>
  <speed>1.0</speed>
  <fix>3d</fix>
</trkpt>
<trkpt lat="33.810759" lon="-118.3949905">
  <ele>-25.014</ele>
  <time>2026-09-02T22:08:49Z</time>
  <course>182.92</course>
  <speed>1.022399139279763</speed>
  <fix>3d</fix>
</trkpt>
<trkpt lat="33.8107591" lon="-118.3949922">
  <ele>-24.41</ele>
  <time>2026-09-02T22:08:49Z</time>
  <course>93.03</course>
  <speed>1.0</speed>
  <fix>3d</fix>
</trkpt>
<trkpt lat="33.8107589" lon="-118.3949895">
  <ele>-25.016</ele>
  <time>2026-09-02T22:08:49Z</time>
  <course>183.04</course>
  <speed>1.022399139279763</speed>
  <fix>3d</fix>
</trkpt>
<trkpt lat="33.8107591" lon="-118.3949922">
  <ele>-24.41</ele>
  <time>2026-09-02T22:08:49Z</time>
  <course>93.03</course>
  <speed>1.0</speed>
  <fix>3d</fix>
</trkpt>
<trkpt lat="33.8107589" lon="-118.3949884">
  <ele>-25.016</ele>
  <time>2026-09-02T22:08:49Z</time>
  <course>183.16</course>
  <speed>1.022399139279763</speed>
  <fix>3d</fix>
</trkpt>
<trkpt lat="33.810759" lon="-118.39499">
  <ele>-24.4</ele>
  <time>2026-09-02T22:08:49Z</time>
  <course>93.17</course>
  <speed>1.0</speed>
  <fix>3d</fix>
</trkpt>
<trkpt lat="33.8107588" lon="-118.3949873">
  <ele>-25.017</ele>
  <time>2026-09-02T22:08:49Z</time>
  <course>183.27</course>
  <speed>1.022399139279763</speed>
  <fix>3d</fix>
</trkpt>
<trkpt lat="33.810759" lon="-118.39499">
  <ele>-24.4</ele>
  <time>2026-09-02T22:08:49Z</time>
  <course>93.17</course>
  <speed>1.0</speed>
  <fix>3d</fix>
</trkpt>
<trkpt lat="33.8107587" lon="-118.3949862">
  <ele>-25.016</ele>
  <time>2026-09-02T22:08:49Z</time>
  <course>183.39</course>
  <speed>1.022399139279763</speed>
  <fix>3d</fix>
</trkpt>
<trkpt lat="33.8107589" lon="-118.3949879">
  <ele>-24.4</ele>
  <time>2026-09-02T22:08:49Z</time>
  <course>93.32</course>
  <speed>1.0</speed>
  <fix>3d</fix>
</trkpt>
<trkpt lat="33.8107587" lon="-118.3949851">
  <ele>-25.014</ele>
  <time>2026-09-02T22:08:49Z</time>
  <course>183.5</course>
  <speed>1.0231324449942931</speed>
  <fix>3d</fix>
</trkpt>
<trkpt lat="33.8107589" lon="-118.3949879">
  <ele>-24.4</ele>
  <time>2026-09-02T22:08:49Z</time>
  <course>93.32</course>
  <speed>1.0</speed>
  <fix>3d</fix>
</trkpt>
<trkpt lat="33.8107586" lon="-118.3949841">
  <ele>-25.012</ele>
  <time>2026-09-02T22:08:49Z</time>
  <course>183.62</course>
  <speed>1.0131633629380803</speed>
  <fix>3d</fix>
</trkpt>
<trkpt lat="33.8107588" lon="-118.3949857">
  <ele>-24.4</ele>
  <time>2026-09-02T22:08:49Z</time>
  <course>93.46</course>
  <speed>1.0</speed>
  <fix>3d</fix>
</trkpt>
<trkpt lat="33.8107586" lon="-118.394983">
  <ele>-25.01</ele>
  <time>2026-09-02T22:08:49Z</time>
  <course>183.73</course>
  <speed>1.0131633629380803</speed>
  <fix>3d</fix>
</trkpt>
<trkpt lat="33.8107588" lon="-118.3949857">
  <ele>-24.4</ele>
  <time>2026-09-02T22:08:49Z</time>
  <course>93.46</course>
  <speed>1.0</speed>
  <fix>3d</fix>
</trkpt>
<trkpt lat="33.8107585" lon="-118.3949819">
  <ele>-25.009</ele>
  <time>2026-09-02T22:08:49Z</time>
  <course>183.84</course>
  <speed>1.0131633629380803</speed>
  <fix>3d</fix>
</trkpt>
<trkpt lat="33.8107587" lon="-118.3949835">
  <ele>-24.4</ele>
  <time>2026-09-02T22:08:49Z</time>
  <course>93.65</course>
  <speed>1.0</speed>
  <fix>3d</fix>
</trkpt>
<trkpt lat="33.8107584" lon="-118.3949808">
  <ele>-25.01</ele>
  <time>2026-09-02T22:08:49Z</time>
  <course>183.96</course>
  <speed>1.0140019723846694</speed>
  <fix>3d</fix>
</trkpt>
<trkpt lat="33.8107587" lon="-118.3949835">
  <ele>-24.4</ele>
  <time>2026-09-02T22:08:49Z</time>
  <course>93.65</course>
  <speed>1.0</speed>
  <fix>3d</fix>
</trkpt>
<trkpt lat="33.8107584" lon="-118.3949797">
  <ele>-25.012</ele>
  <time>2026-09-02T22:08:49Z</time>
  <course>184.07</course>
  <speed>1.0140019723846694</speed>
  <fix>3d</fix>
</trkpt>
<trkpt lat="33.8107586" lon="-118.3949814">
  <ele>-24.4</ele>
  <time>2026-09-02T22:08:49Z</time>
  <course>93.88</course>
  <speed>1.0</speed>
  <fix>3d</fix>
</trkpt>
<trkpt lat="33.8107583" lon="-118.3949787">
  <ele>-25.014</ele>
  <time>2026-09-02T22:08:49Z</time>
  <course>184.19</course>
  <speed>1.0140019723846694</speed>
  <fix>3d</fix>
</trkpt>
<trkpt lat="33.8107586" lon="-118.3949814">
  <ele>-24.4</ele>
  <time>2026-09-02T22:08:49Z</time>
  <course>93.88</course>
  <speed>1.0</speed>
  <fix>3d</fix>
</trkpt>
<trkpt lat="33.8107582" lon="-118.3949776">
  <ele>-25.015</ele>
  <time>2026-09-02T22:08:49Z</time>
  <course>184.3</course>
  <speed>1.0140019723846694</speed>
  <fix>3d</fix>
</trkpt>
<trkpt lat="33.8107585" lon="-118.3949792">
  <ele>-24.4</ele>
  <time>2026-09-02T22:08:49Z</time>
  <course>94.14</course>
  <speed>1.0</speed>
  <fix>3d</fix>
</trkpt>
<trkpt lat="33.8107582" lon="-118.3949765">
  <ele>-25.015</ele>
  <time>2026-09-02T22:08:49Z</time>
  <course>184.42</course>
  <speed>1.0149384217774002</speed>
  <fix>3d</fix>
</trkpt>
<trkpt lat="33.8107585" lon="-118.3949792">
  <ele>-24.4</ele>
  <time>2026-09-02T22:08:49Z</time>
  <course>94.14</course>
  <speed>1.0</speed>
  <fix>3d</fix>
</trkpt>
<trkpt lat="33.8107581" lon="-118.3949754">
  <ele>-25.014</ele>
  <time>2026-09-02T22:08:49Z</time>
  <course>184.53</course>
  <speed>1.0149384217774002</speed>
  <fix>3d</fix>
</trkpt>
<trkpt lat="33.8107584" lon="-118.3949769">
  <ele>-24.4</ele>
  <time>2026-09-02T22:08:49Z</time>
  <course>94.43</course>
  <speed>1.0</speed>
  <fix>3d</fix>
</trkpt>
<trkpt lat="33.810758" lon="-118.3949743">
  <ele>-25.012</ele>
  <time>2026-09-02T22:08:50Z</time>
  <course>184.65</course>
  <speed>1.0149384217774002</speed>
  <fix>3d</fix>
</trkpt>
<trkpt lat="33.8107584" lon="-118.3949769">
  <ele>-24.4</ele>
  <time>2026-09-02T22:08:50Z</time>
  <course>94.43</course>
  <speed>1.0</speed>
  <fix>3d</fix>
</trkpt>
<trkpt lat="33.810758" lon="-118.3949733">
  <ele>-25.009</ele>
  <time>2026-09-02T22:08:50Z</time>
  <course>184.76</course>
  <speed>1.0149384217774002</speed>
  <fix>3d</fix>
</trkpt>
<trkpt lat="33.8107582" lon="-118.3949748">
  <ele>-24.4</ele>
  <time>2026-09-02T22:08:50Z</time>
  <course>94.75</course>
  <speed>1.0</speed>
  <fix>3d</fix>
</trkpt>
<trkpt lat="33.8107579" lon="-118.3949722">
  <ele>-25.007</ele>
  <time>2026-09-02T22:08:50Z</time>
  <course>184.88</course>
  <speed>1.0159724405711013</speed>
  <fix>3d</fix>
</trkpt>
<trkpt lat="33.8107582" lon="-118.3949748">
  <ele>-24.4</ele>
  <time>2026-09-02T22:08:50Z</time>
  <course>94.75</course>
  <speed>1.0</speed>
  <fix>3d</fix>
</trkpt>
<trkpt lat="33.8107578" lon="-118.3949711">
  <ele>-25.007</ele>
  <time>2026-09-02T22:08:50Z</time>
  <course>184.99</course>
  <speed>1.0159724405711013</speed>
  <fix>3d</fix>
</trkpt>
<trkpt lat="33.8107581" lon="-118.3949726">
  <ele>-24.4</ele>
  <time>2026-09-02T22:08:50Z</time>
  <course>95.07</course>
  <speed>1.0</speed>
  <fix>3d</fix>
</trkpt>
<trkpt lat="33.8107577" lon="-118.39497">
  <ele>-25.008</ele>
  <time>2026-09-02T22:08:50Z</time>
  <course>185.11</course>
  <speed>1.0159724405711013</speed>
  <fix>3d</fix>
</trkpt>
<trkpt lat="33.8107581" lon="-118.3949726">
  <ele>-24.4</ele>
  <time>2026-09-02T22:08:50Z</time>
  <course>95.07</course>
  <speed>1.0</speed>
  <fix>3d</fix>
</trkpt>
<trkpt lat="33.8107576" lon="-118.3949689">
  <ele>-25.01</ele>
  <time>2026-09-02T22:08:50Z</time>
  <course>185.22</course>
  <speed>1.0159724405711013</speed>
  <fix>3d</fix>
</trkpt>
<trkpt lat="33.8107579" lon="-118.3949705">
  <ele>-24.4</ele>
  <time>2026-09-02T22:08:50Z</time>
  <course>95.37</course>
  <speed>1.0</speed>
  <fix>3d</fix>
</trkpt>
<trkpt lat="33.8107576" lon="-118.3949678">
  <ele>-25.012</ele>
  <time>2026-09-02T22:08:50Z</time>
  <course>185.34</course>
  <speed>1.0171037311896953</speed>
  <fix>3d</fix>
</trkpt>
<trkpt lat="33.8107579" lon="-118.3949705">
  <ele>-24.4</ele>
  <time>2026-09-02T22:08:50Z</time>
  <course>95.37</course>
  <speed>1.0</speed>
  <fix>3d</fix>
</trkpt>
<trkpt lat="33.8107575" lon="-118.3949668">
  <ele>-25.014</ele>
  <time>2026-09-02T22:08:50Z</time>
  <course>185.45</course>
  <speed>1.0171037311896953</speed>
  <fix>3d</fix>
</trkpt>
<trkpt lat="33.8107577" lon="-118.3949683">
  <ele>-24.4</ele>
  <time>2026-09-02T22:08:50Z</time>
  <course>95.64</course>
  <speed>1.0</speed>
  <fix>3d</fix>
</trkpt>
<trkpt lat="33.8107574" lon="-118.3949657">
  <ele>-25.015</ele>
  <time>2026-09-02T22:08:50Z</time>
  <course>185.56</course>
  <speed>1.0171037311896953</speed>
  <fix>3d</fix>
</trkpt>
<trkpt lat="33.8107577" lon="-118.3949683">
  <ele>-24.4</ele>
  <time>2026-09-02T22:08:50Z</time>
  <course>95.64</course>
  <speed>1.0</speed>
  <fix>3d</fix>
</trkpt>
<trkpt lat="33.8107573" lon="-118.3949646">
  <ele>-25.016</ele>
  <time>2026-09-02T22:08:50Z</time>
  <course>185.68</course>
  <speed>1.0171037311896953</speed>
  <fix>3d</fix>
</trkpt>
<trkpt lat="33.8107576" lon="-118.3949662">
  <ele>-24.41</ele>
  <time>2026-09-02T22:08:50Z</time>
  <course>95.85</course>
  <speed>1.0</speed>
  <fix>3d</fix>
</trkpt>
<trkpt lat="33.8107572" lon="-118.3949635">
  <ele>-25.015</ele>
  <time>2026-09-02T22:08:50Z</time>
  <course>185.79</course>
  <speed>1.0171037311896953</speed>
  <fix>3d</fix>
</trkpt>
<trkpt lat="33.8107576" lon="-118.3949662">
  <ele>-24.41</ele>
  <time>2026-09-02T22:08:50Z</time>
  <course>95.85</course>
  <speed>1.0</speed>
  <fix>3d</fix>
</trkpt>
<trkpt lat="33.8107571" lon="-118.3949625">
  <ele>-25.014</ele>
  <time>2026-09-02T22:08:50Z</time>
  <course>185.91</course>
  <speed>1.0071742649611337</speed>
  <fix>3d</fix>
</trkpt>
<trkpt lat="33.8107574" lon="-118.394964">
  <ele>-24.41</ele>
  <time>2026-09-02T22:08:50Z</time>
  <course>96.07</course>
  <speed>1.0</speed>
  <fix>3d</fix>
</trkpt>
<trkpt lat="33.810757" lon="-118.3949614">
  <ele>-25.013</ele>
  <time>2026-09-02T22:08:50Z</time>
  <course>186.02</course>
  <speed>1.0084145972763385</speed>
  <fix>3d</fix>
</trkpt>
<trkpt lat="33.8107574" lon="-118.394964">
  <ele>-24.41</ele>
  <time>2026-09-02T22:08:50Z</time>
  <course>96.07</course>
  <speed>1.0</speed>
  <fix>3d</fix>
</trkpt>
<trkpt lat="33.8107569" lon="-118.3949603">
  <ele>-25.013</ele>
  <time>2026-09-02T22:08:50Z</time>
  <course>186.14</course>
  <speed>1.0084145972763385</speed>
  <fix>3d</fix>
</trkpt>
<trkpt lat="33.8107572" lon="-118.3949619">
  <ele>-24.41</ele>
  <time>2026-09-02T22:08:50Z</time>
  <course>96.32</course>
  <speed>1.0</speed>
  <fix>3d</fix>
</trkpt>
<trkpt lat="33.8107568" lon="-118.3949592">
  <ele>-25.013</ele>
  <time>2026-09-02T22:08:50Z</time>
  <course>186.25</course>
  <speed>1.0084145972763385</speed>
  <fix>3d</fix>
</trkpt>
<trkpt lat="33.8107572" lon="-118.3949619">
  <ele>-24.41</ele>
  <time>2026-09-02T22:08:50Z</time>
  <course>96.32</course>
  <speed>1.0</speed>
  <fix>3d</fix>
</trkpt>
<trkpt lat="33.8107567" lon="-118.3949582">
  <ele>-25.013</ele>
  <time>2026-09-02T22:08:50Z</time>
  <course>186.37</course>
  <speed>1.0084145972763385</speed>
  <fix>3d</fix>
</trkpt>
<trkpt lat="33.8107569" lon="-118.3949597">
  <ele>-24.41</ele>
  <time>2026-09-02T22:08:50Z</time>
  <course>96.58</course>
  <speed>0.99</speed>
  <fix>3d</fix>
</trkpt>
<trkpt lat="33.8107566" lon="-118.3949571">
  <ele>-25.013</ele>
  <time>2026-09-02T22:08:50Z</time>
  <course>186.48</course>
  <speed>1.0084145972763385</speed>
  <fix>3d</fix>
</trkpt>
<trkpt lat="33.8107569" lon="-118.3949597">
  <ele>-24.41</ele>
  <time>2026-09-02T22:08:50Z</time>
  <course>96.58</course>
  <speed>0.99</speed>
  <fix>3d</fix>
</trkpt>
<trkpt lat="33.8107565" lon="-118.394956">
  <ele>-25.013</ele>
  <time>2026-09-02T22:08:50Z</time>
  <course>186.59</course>
  <speed>1.009752444909147</speed>
  <fix>3d</fix>
</trkpt>
<trkpt lat="33.8107568" lon="-118.3949576">
  <ele>-24.41</ele>
  <time>2026-09-02T22:08:50Z</time>
  <course>96.77</course>
  <speed>0.99</speed>
  <fix>3d</fix>
</trkpt>
<trkpt lat="33.8107564" lon="-118.3949549">
  <ele>-25.013</ele>
  <time>2026-09-02T22:08:50Z</time>
  <course>186.71</course>
  <speed>1.009752444909147</speed>
  <fix>3d</fix>
</trkpt>
<trkpt lat="33.8107568" lon="-118.3949576">
  <ele>-24.41</ele>
  <time>2026-09-02T22:08:50Z</time>
  <course>96.77</course>
  <speed>0.99</speed>
  <fix>3d</fix>
</trkpt>
<trkpt lat="33.8107563" lon="-118.3949539">
  <ele>-25.013</ele>
  <time>2026-09-02T22:08:50Z</time>
  <course>186.82</course>
  <speed>1.009752444909147</speed>
  <fix>3d</fix>
</trkpt>
<trkpt lat="33.8107566" lon="-118.3949554">
  <ele>-24.41</ele>
  <time>2026-09-02T22:08:50Z</time>
  <course>96.93</course>
  <speed>0.99</speed>
  <fix>3d</fix>
</trkpt>
<trkpt lat="33.8107562" lon="-118.3949528">
  <ele>-25.012</ele>
  <time>2026-09-02T22:08:50Z</time>
  <course>186.94</course>
  <speed>1.009752444909147</speed>
  <fix>3d</fix>
</trkpt>
<trkpt lat="33.8107566" lon="-118.3949554">
  <ele>-24.41</ele>
  <time>2026-09-02T22:08:50Z</time>
  <course>96.93</course>
  <speed>0.99</speed>
  <fix>3d</fix>
</trkpt>
<trkpt lat="33.8107561" lon="-118.3949517">
  <ele>-25.011</ele>
  <time>2026-09-02T22:08:50Z</time>
  <course>187.05</course>
  <speed>1.009752444909147</speed>
  <fix>3d</fix>
</trkpt>
<trkpt lat="33.8107563" lon="-118.3949533">
  <ele>-24.41</ele>
  <time>2026-09-02T22:08:50Z</time>
  <course>97.17</course>
  <speed>0.99</speed>
  <fix>3d</fix>
</trkpt>
<trkpt lat="33.8107559" lon="-118.3949506">
  <ele>-25.01</ele>
  <time>2026-09-02T22:08:50Z</time>
  <course>187.17</course>
  <speed>1.0111874208078342</speed>
  <fix>3d</fix>
</trkpt>
<trkpt lat="33.8107563" lon="-118.3949533">
  <ele>-24.41</ele>
  <time>2026-09-02T22:08:50Z</time>
  <course>97.17</course>
  <speed>0.99</speed>
  <fix>3d</fix>
</trkpt>
<trkpt lat="33.8107558" lon="-118.3949496">
  <ele>-25.011</ele>
  <time>2026-09-02T22:08:50Z</time>
  <course>187.28</course>
  <speed>1.0111874208078342</speed>
  <fix>3d</fix>
</trkpt>
<trkpt lat="33.8107561" lon="-118.3949512">
  <ele>-24.41</ele>
  <time>2026-09-02T22:08:50Z</time>
  <course>97.41</course>
  <speed>0.99</speed>
  <fix>3d</fix>
</trkpt>
<trkpt lat="33.8107557" lon="-118.3949485">
  <ele>-25.012</ele>
  <time>2026-09-02T22:08:50Z</time>
  <course>187.4</course>
  <speed>1.0111874208078342</speed>
  <fix>3d</fix>
</trkpt>
<trkpt lat="33.8107561" lon="-118.3949512">
  <ele>-24.41</ele>
  <time>2026-09-02T22:08:50Z</time>
  <course>97.41</course>
  <speed>0.99</speed>
  <fix>3d</fix>
</trkpt>
<trkpt lat="33.8107556" lon="-118.3949474">
  <ele>-25.013</ele>
  <time>2026-09-02T22:08:50Z</time>
  <course>187.51</course>
  <speed>1.0111874208078342</speed>
  <fix>3d</fix>
</trkpt>
<trkpt lat="33.8107558" lon="-118.394949">
  <ele>-24.41</ele>
  <time>2026-09-02T22:08:50Z</time>
  <course>97.6</course>
  <speed>0.99</speed>
  <fix>3d</fix>
</trkpt>
<trkpt lat="33.8107555" lon="-118.3949464">
  <ele>-25.014</ele>
  <time>2026-09-02T22:08:50Z</time>
  <course>187.63</course>
  <speed>1.0111874208078342</speed>
  <fix>3d</fix>
</trkpt>
<trkpt lat="33.8107558" lon="-118.394949">
  <ele>-24.41</ele>
  <time>2026-09-02T22:08:50Z</time>
  <course>97.6</course>
  <speed>0.99</speed>
  <fix>3d</fix>
</trkpt>
<trkpt lat="33.8107553" lon="-118.3949453">
  <ele>-25.015</ele>
  <time>2026-09-02T22:08:50Z</time>
  <course>187.74</course>
  <speed>1.0111874208078342</speed>
  <fix>3d</fix>
</trkpt>
<trkpt lat="33.8107556" lon="-118.3949469">
  <ele>-24.41</ele>
  <time>2026-09-02T22:08:50Z</time>
  <course>97.75</course>
  <speed>0.99</speed>
  <fix>3d</fix>
</trkpt>
<trkpt lat="33.8107552" lon="-118.3949442">
  <ele>-25.015</ele>
  <time>2026-09-02T22:08:50Z</time>
  <course>187.85</course>
  <speed>1.012719112093773</speed>
  <fix>3d</fix>
</trkpt>
<trkpt lat="33.8107556" lon="-118.3949469">
  <ele>-24.41</ele>
  <time>2026-09-02T22:08:50Z</time>
  <course>97.75</course>
  <speed>0.99</speed>
  <fix>3d</fix>
</trkpt>
<trkpt lat="33.8107551" lon="-118.3949431">
  <ele>-25.014</ele>
  <time>2026-09-02T22:08:50Z</time>
  <course>187.97</course>
  <speed>1.012719112093773</speed>
  <fix>3d</fix>
</trkpt>
<trkpt lat="33.8107554" lon="-118.3949447">
  <ele>-24.41</ele>
  <time>2026-09-02T22:08:50Z</time>
  <course>97.91</course>
  <speed>0.99</speed>
  <fix>3d</fix>
</trkpt>
<trkpt lat="33.8107549" lon="-118.3949421">
  <ele>-25.014</ele>
  <time>2026-09-02T22:08:50Z</time>
  <course>188.08</course>
  <speed>1.012719112093773</speed>
  <fix>3d</fix>
</trkpt>
<trkpt lat="33.8107554" lon="-118.3949447">
  <ele>-24.41</ele>
  <time>2026-09-02T22:08:50Z</time>
  <course>97.91</course>
  <speed>0.99</speed>
  <fix>3d</fix>
</trkpt>
<trkpt lat="33.8107548" lon="-118.394941">
  <ele>-25.013</ele>
  <time>2026-09-02T22:08:50Z</time>
  <course>188.2</course>
  <speed>1.012719112093773</speed>
  <fix>3d</fix>
</trkpt>
<trkpt lat="33.8107551" lon="-118.3949426">
  <ele>-24.41</ele>
  <time>2026-09-02T22:08:50Z</time>
  <course>98.11</course>
  <speed>0.99</speed>
  <fix>3d</fix>
</trkpt>
<trkpt lat="33.8107547" lon="-118.3949399">
  <ele>-25.012</ele>
  <time>2026-09-02T22:08:50Z</time>
  <course>188.31</course>
  <speed>1.012719112093773</speed>
  <fix>3d</fix>
</trkpt>
<trkpt lat="33.8107551" lon="-118.3949426">
  <ele>-24.41</ele>
  <time>2026-09-02T22:08:50Z</time>
  <course>98.11</course>
  <speed>0.99</speed>
  <fix>3d</fix>
</trkpt>
<trkpt lat="33.8107546" lon="-118.3949389">
  <ele>-25.011</ele>
  <time>2026-09-02T22:08:50Z</time>
  <course>188.43</course>
  <speed>1.014347080638575</speed>
  <fix>3d</fix>
</trkpt>
<trkpt lat="33.8107549" lon="-118.3949404">
  <ele>-24.41</ele>
  <time>2026-09-02T22:08:50Z</time>
  <course>98.33</course>
  <speed>0.99</speed>
  <fix>3d</fix>
</trkpt>
<trkpt lat="33.8107544" lon="-118.3949378">
  <ele>-25.01</ele>
  <time>2026-09-02T22:08:50Z</time>
  <course>188.54</course>
  <speed>1.014347080638575</speed>
  <fix>3d</fix>
</trkpt>
<trkpt lat="33.8107549" lon="-118.3949404">
  <ele>-24.41</ele>
  <time>2026-09-02T22:08:50Z</time>
  <course>98.33</course>
  <speed>0.99</speed>
  <fix>3d</fix>
</trkpt>
<trkpt lat="33.8107543" lon="-118.3949367">
  <ele>-25.01</ele>
  <time>2026-09-02T22:08:50Z</time>
  <course>188.66</course>
  <speed>1.014347080638575</speed>
  <fix>3d</fix>
</trkpt>
<trkpt lat="33.8107546" lon="-118.3949383">
  <ele>-24.41</ele>
  <time>2026-09-02T22:08:50Z</time>
  <course>98.57</course>
  <speed>0.99</speed>
  <fix>3d</fix>
</trkpt>
<trkpt lat="33.8107541" lon="-118.3949356">
  <ele>-25.011</ele>
  <time>2026-09-02T22:08:50Z</time>
  <course>188.77</course>
  <speed>1.014347080638575</speed>
  <fix>3d</fix>
</trkpt>
<trkpt lat="33.8107546" lon="-118.3949383">
  <ele>-24.41</ele>
  <time>2026-09-02T22:08:50Z</time>
  <course>98.57</course>
  <speed>0.99</speed>
  <fix>3d</fix>
</trkpt>
<trkpt lat="33.810754" lon="-118.3949346">
  <ele>-25.012</ele>
  <time>2026-09-02T22:08:50Z</time>
  <course>188.89</course>
  <speed>1.014347080638575</speed>
  <fix>3d</fix>
</trkpt>
<trkpt lat="33.8107543" lon="-118.3949362">
  <ele>-24.42</ele>
  <time>2026-09-02T22:08:50Z</time>
  <course>98.83</course>
  <speed>0.99</speed>
  <fix>3d</fix>
</trkpt>
<trkpt lat="33.8107539" lon="-118.3949335">
  <ele>-25.013</ele>
  <time>2026-09-02T22:08:50Z</time>
  <course>189.0</course>
  <speed>1.016070863670443</speed>
  <fix>3d</fix>
</trkpt>
<trkpt lat="33.8107543" lon="-118.3949362">
  <ele>-24.42</ele>
  <time>2026-09-02T22:08:50Z</time>
  <course>98.83</course>
  <speed>0.99</speed>
  <fix>3d</fix>
</trkpt>
<trkpt lat="33.8107537" lon="-118.3949324">
  <ele>-25.013</ele>
  <time>2026-09-02T22:08:50Z</time>
  <course>189.12</course>
  <speed>1.016070863670443</speed>
  <fix>3d</fix>
</trkpt>
<trkpt lat="33.810754" lon="-118.394934">
  <ele>-24.42</ele>
  <time>2026-09-02T22:08:50Z</time>
  <course>99.06</course>
  <speed>0.99</speed>
  <fix>3d</fix>
</trkpt>
<trkpt lat="33.8107536" lon="-118.3949314">
  <ele>-25.015</ele>
  <time>2026-09-02T22:08:50Z</time>
  <course>189.23</course>
  <speed>1.016070863670443</speed>
  <fix>3d</fix>
</trkpt>
<trkpt lat="33.810754" lon="-118.394934">
  <ele>-24.42</ele>
  <time>2026-09-02T22:08:50Z</time>
  <course>99.06</course>
  <speed>0.99</speed>
  <fix>3d</fix>
</trkpt>
<trkpt lat="33.8107534" lon="-118.3949303">
  <ele>-25.016</ele>
  <time>2026-09-02T22:08:50Z</time>
  <course>189.35</course>
  <speed>1.016070863670443</speed>
  <fix>3d</fix>
</trkpt>
<trkpt lat="33.8107537" lon="-118.3949319">
  <ele>-24.42</ele>
  <time>2026-09-02T22:08:50Z</time>
  <course>99.25</course>
  <speed>0.99</speed>
  <fix>3d</fix>
</trkpt>
<trkpt lat="33.8107533" lon="-118.3949292">
  <ele>-25.018</ele>
  <time>2026-09-02T22:08:50Z</time>
  <course>189.46</course>
  <speed>1.016070863670443</speed>
  <fix>3d</fix>
</trkpt>
<trkpt lat="33.8107537" lon="-118.3949319">
  <ele>-24.42</ele>
  <time>2026-09-02T22:08:50Z</time>
  <course>99.25</course>
  <speed>0.99</speed>
  <fix>3d</fix>
</trkpt>
<trkpt lat="33.8107531" lon="-118.3949282">
  <ele>-25.019</ele>
  <time>2026-09-02T22:08:50Z</time>
  <course>189.57</course>
  <speed>1.0178899744078433</speed>
  <fix>3d</fix>
</trkpt>
<trkpt lat="33.8107534" lon="-118.3949298">
  <ele>-24.42</ele>
  <time>2026-09-02T22:08:50Z</time>
  <course>99.42</course>
  <speed>0.99</speed>
  <fix>3d</fix>
</trkpt>
<trkpt lat="33.810753" lon="-118.3949271">
  <ele>-25.019</ele>
  <time>2026-09-02T22:08:50Z</time>
  <course>189.69</course>
  <speed>1.0178899744078433</speed>
  <fix>3d</fix>
</trkpt>
<trkpt lat="33.8107534" lon="-118.3949298">
  <ele>-24.42</ele>
  <time>2026-09-02T22:08:50Z</time>
  <course>99.42</course>
  <speed>0.99</speed>
  <fix>3d</fix>
</trkpt>
<trkpt lat="33.8107528" lon="-118.394926">
  <ele>-25.02</ele>
  <time>2026-09-02T22:08:50Z</time>
  <course>189.8</course>
  <speed>1.0178899744078433</speed>
  <fix>3d</fix>
</trkpt>
<trkpt lat="33.8107531" lon="-118.3949276">
  <ele>-24.42</ele>
  <time>2026-09-02T22:08:50Z</time>
  <course>99.58</course>
  <speed>0.99</speed>
  <fix>3d</fix>
</trkpt>
<trkpt lat="33.8107526" lon="-118.394925">
  <ele>-25.02</ele>
  <time>2026-09-02T22:08:50Z</time>
  <course>189.92</course>
  <speed>1.0178899744078433</speed>
  <fix>3d</fix>
</trkpt>
<trkpt lat="33.8107531" lon="-118.3949276">
  <ele>-24.42</ele>
  <time>2026-09-02T22:08:50Z</time>
  <course>99.58</course>
  <speed>0.99</speed>
  <fix>3d</fix>
</trkpt>
<trkpt lat="33.8107525" lon="-118.3949239">
  <ele>-25.021</ele>
  <time>2026-09-02T22:08:50Z</time>
  <course>190.03</course>
  <speed>1.0178899744078433</speed>
  <fix>3d</fix>
</trkpt>
<trkpt lat="33.8107528" lon="-118.3949255">
  <ele>-24.42</ele>
  <time>2026-09-02T22:08:50Z</time>
  <course>99.75</course>
  <speed>0.99</speed>
  <fix>3d</fix>
</trkpt>
<trkpt lat="33.8107523" lon="-118.3949228">
  <ele>-25.022</ele>
  <time>2026-09-02T22:08:50Z</time>
  <course>190.15</course>
  <speed>1.0178899744078433</speed>
  <fix>3d</fix>
</trkpt>
<trkpt lat="33.8107528" lon="-118.3949255">
  <ele>-24.42</ele>
  <time>2026-09-02T22:08:50Z</time>
  <course>99.75</course>
  <speed>0.99</speed>
  <fix>3d</fix>
</trkpt>
<trkpt lat="33.8107522" lon="-118.3949218">
  <ele>-25.022</ele>
  <time>2026-09-02T22:08:50Z</time>
  <course>190.26</course>
  <speed>1.019803902718557</speed>
  <fix>3d</fix>
</trkpt>
<trkpt lat="33.8107525" lon="-118.3949234">
  <ele>-24.41</ele>
  <time>2026-09-02T22:08:50Z</time>
  <course>99.94</course>
  <speed>0.99</speed>
  <fix>3d</fix>
</trkpt>
<trkpt lat="33.810752" lon="-118.3949207">
  <ele>-25.022</ele>
  <time>2026-09-02T22:08:50Z</time>
  <course>190.38</course>
  <speed>1.019803902718557</speed>
  <fix>3d</fix>
</trkpt>
<trkpt lat="33.8107525" lon="-118.3949234">
  <ele>-24.41</ele>
  <time>2026-09-02T22:08:50Z</time>
  <course>99.94</course>
  <speed>0.99</speed>
  <fix>3d</fix>
</trkpt>
<trkpt lat="33.8107518" lon="-118.3949197">
  <ele>-25.02</ele>
  <time>2026-09-02T22:08:50Z</time>
  <course>190.49</course>
  <speed>1.019803902718557</speed>
  <fix>3d</fix>
</trkpt>
<trkpt lat="33.8107522" lon="-118.3949213">
  <ele>-24.41</ele>
  <time>2026-09-02T22:08:50Z</time>
  <course>100.15</course>
  <speed>0.99</speed>
  <fix>3d</fix>
</trkpt>
<trkpt lat="33.8107517" lon="-118.3949186">
  <ele>-25.018</ele>
  <time>2026-09-02T22:08:50Z</time>
  <course>190.6</course>
  <speed>1.019803902718557</speed>
  <fix>3d</fix>
</trkpt>
<trkpt lat="33.8107522" lon="-118.3949213">
  <ele>-24.41</ele>
  <time>2026-09-02T22:08:50Z</time>
  <course>100.15</course>
  <speed>0.99</speed>
  <fix>3d</fix>
</trkpt>
<trkpt lat="33.8107515" lon="-118.3949175">
  <ele>-25.016</ele>
  <time>2026-09-02T22:08:50Z</time>
  <course>190.72</course>
  <speed>1.01202766760598</speed>
  <fix>3d</fix>
</trkpt>
<trkpt lat="33.8107519" lon="-118.3949191">
  <ele>-24.4</ele>
  <time>2026-09-02T22:08:50Z</time>
  <course>100.38</course>
  <speed>0.99</speed>
  <fix>3d</fix>
</trkpt>
<trkpt lat="33.8107513" lon="-118.3949165">
  <ele>-25.013</ele>
  <time>2026-09-02T22:08:50Z</time>
  <course>190.83</course>
  <speed>1.01202766760598</speed>
  <fix>3d</fix>
</trkpt>
<trkpt lat="33.8107519" lon="-118.3949191">
  <ele>-24.4</ele>
  <time>2026-09-02T22:08:50Z</time>
  <course>100.38</course>
  <speed>0.99</speed>
  <fix>3d</fix>
</trkpt>
<trkpt lat="33.8107512" lon="-118.3949154">
  <ele>-25.011</ele>
  <time>2026-09-02T22:08:50Z</time>
  <course>190.95</course>
  <speed>1.01202766760598</speed>
  <fix>3d</fix>
</trkpt>
<trkpt lat="33.8107516" lon="-118.394917">
  <ele>-24.39</ele>
  <time>2026-09-02T22:08:50Z</time>
  <course>100.65</course>
  <speed>1.0</speed>
  <fix>3d</fix>
</trkpt>
<trkpt lat="33.810751" lon="-118.3949144">
  <ele>-25.011</ele>
  <time>2026-09-02T22:08:50Z</time>
  <course>191.06</course>
  <speed>1.01202766760598</speed>
  <fix>3d</fix>
</trkpt>
<trkpt lat="33.8107516" lon="-118.394917">
  <ele>-24.39</ele>
  <time>2026-09-02T22:08:50Z</time>
  <course>100.65</course>
  <speed>1.0</speed>
  <fix>3d</fix>
</trkpt>
<trkpt lat="33.8107508" lon="-118.3949133">
  <ele>-25.01</ele>
  <time>2026-09-02T22:08:50Z</time>
  <course>191.18</course>
  <speed>1.0141498903022177</speed>
  <fix>3d</fix>
</trkpt>
<trkpt lat="33.8107512" lon="-118.3949149">
  <ele>-24.39</ele>
  <time>2026-09-02T22:08:50Z</time>
  <course>100.98</course>
  <speed>1.0</speed>
  <fix>3d</fix>
</trkpt>
<trkpt lat="33.8107506" lon="-118.3949122">
  <ele>-25.009</ele>
  <time>2026-09-02T22:08:50Z</time>
  <course>191.29</course>
  <speed>1.0141498903022177</speed>
  <fix>3d</fix>
</trkpt>
<trkpt lat="33.8107512" lon="-118.3949149">
  <ele>-24.39</ele>
  <time>2026-09-02T22:08:50Z</time>
  <course>100.98</course>
  <speed>1.0</speed>
  <fix>3d</fix>
</trkpt>
<trkpt lat="33.8107505" lon="-118.3949112">
  <ele>-25.008</ele>
  <time>2026-09-02T22:08:50Z</time>
  <course>191.41</course>
  <speed>1.0141498903022177</speed>
  <fix>3d</fix>
</trkpt>
<trkpt lat="33.8107509" lon="-118.3949127">
  <ele>-24.39</ele>
  <time>2026-09-02T22:08:50Z</time>
  <course>101.29</course>
  <speed>1.0</speed>
  <fix>3d</fix>
</trkpt>
<trkpt lat="33.8107503" lon="-118.3949101">
  <ele>-25.007</ele>
  <time>2026-09-02T22:08:50Z</time>
  <course>191.52</course>
  <speed>1.0141498903022177</speed>
  <fix>3d</fix>
</trkpt>
<trkpt lat="33.8107509" lon="-118.3949127">
  <ele>-24.39</ele>
  <time>2026-09-02T22:08:50Z</time>
  <course>101.29</course>
  <speed>1.0</speed>
  <fix>3d</fix>
</trkpt>
<trkpt lat="33.8107501" lon="-118.3949091">
  <ele>-25.007</ele>
  <time>2026-09-02T22:08:50Z</time>
  <course>191.64</course>
  <speed>1.016366075781753</speed>
  <fix>3d</fix>
</trkpt>
<trkpt lat="33.8107506" lon="-118.3949106">
  <ele>-24.39</ele>
  <time>2026-09-02T22:08:50Z</time>
  <course>101.58</course>
  <speed>1.0</speed>
  <fix>3d</fix>
</trkpt>
<trkpt lat="33.8107499" lon="-118.394908">
  <ele>-25.006</ele>
  <time>2026-09-02T22:08:50Z</time>
  <course>191.75</course>
  <speed>1.016366075781753</speed>
  <fix>3d</fix>
</trkpt>
<trkpt lat="33.8107506" lon="-118.3949106">
  <ele>-24.39</ele>
  <time>2026-09-02T22:08:50Z</time>
  <course>101.58</course>
  <speed>1.0</speed>
  <fix>3d</fix>
</trkpt>
<trkpt lat="33.8107497" lon="-118.3949069">
  <ele>-25.007</ele>
  <time>2026-09-02T22:08:50Z</time>
  <course>191.87</course>
  <speed>1.016366075781753</speed>
  <fix>3d</fix>
</trkpt>
<trkpt lat="33.8107502" lon="-118.3949085">
  <ele>-24.39</ele>
  <time>2026-09-02T22:08:50Z</time>
  <course>101.91</course>
  <speed>0.99</speed>
  <fix>3d</fix>
</trkpt>
<trkpt lat="33.8107495" lon="-118.3949059">
  <ele>-25.007</ele>
  <time>2026-09-02T22:08:50Z</time>
  <course>191.98</course>
  <speed>1.0186756107809787</speed>
  <fix>3d</fix>
</trkpt>
<trkpt lat="33.8107502" lon="-118.3949085">
  <ele>-24.39</ele>
  <time>2026-09-02T22:08:50Z</time>
  <course>101.91</course>
  <speed>0.99</speed>
  <fix>3d</fix>
</trkpt>
<trkpt lat="33.8107494" lon="-118.3949048">
  <ele>-25.008</ele>
  <time>2026-09-02T22:08:50Z</time>
  <course>192.09</course>
  <speed>1.0186756107809787</speed>
  <fix>3d</fix>
</trkpt>
<trkpt lat="33.8107498" lon="-118.3949064">
  <ele>-24.39</ele>
  <time>2026-09-02T22:08:50Z</time>
  <course>102.24</course>
  <speed>0.99</speed>
  <fix>3d</fix>
</trkpt>
<trkpt lat="33.8107492" lon="-118.3949038">
  <ele>-25.01</ele>
  <time>2026-09-02T22:08:50Z</time>
  <course>192.21</course>
  <speed>1.0186756107809787</speed>
  <fix>3d</fix>
</trkpt>
<trkpt lat="33.8107498" lon="-118.3949064">
  <ele>-24.39</ele>
  <time>2026-09-02T22:08:50Z</time>
  <course>102.24</course>
  <speed>0.99</speed>
  <fix>3d</fix>
</trkpt>
<trkpt lat="33.810749" lon="-118.3949027">
  <ele>-25.011</ele>
  <time>2026-09-02T22:08:50Z</time>
  <course>192.32</course>
  <speed>1.0186756107809787</speed>
  <fix>3d</fix>
</trkpt>
<trkpt lat="33.8107495" lon="-118.3949043">
  <ele>-24.4</ele>
  <time>2026-09-02T22:08:50Z</time>
  <course>102.52</course>
  <speed>0.99</speed>
  <fix>3d</fix>
</trkpt>
<trkpt lat="33.8107488" lon="-118.3949016">
  <ele>-25.012</ele>
  <time>2026-09-02T22:08:50Z</time>
  <course>192.44</course>
  <speed>1.0186756107809787</speed>
  <fix>3d</fix>
</trkpt>
<trkpt lat="33.8107495" lon="-118.3949043">
  <ele>-24.4</ele>
  <time>2026-09-02T22:08:50Z</time>
  <course>102.52</course>
  <speed>0.99</speed>
  <fix>3d</fix>
</trkpt>
<trkpt lat="33.8107486" lon="-118.3949006">
  <ele>-25.013</ele>
  <time>2026-09-02T22:08:50Z</time>
  <course>192.55</course>
  <speed>1.021077861869505</speed>
  <fix>3d</fix>
</trkpt>
<trkpt lat="33.810749" lon="-118.3949022">
  <ele>-24.4</ele>
  <time>2026-09-02T22:08:50Z</time>
  <course>102.79</course>
  <speed>0.99</speed>
  <fix>3d</fix>
</trkpt>
<trkpt lat="33.8107484" lon="-118.3948995">
  <ele>-25.013</ele>
  <time>2026-09-02T22:08:50Z</time>
  <course>192.67</course>
  <speed>1.021077861869505</speed>
  <fix>3d</fix>
</trkpt>
<trkpt lat="33.810749" lon="-118.3949022">
  <ele>-24.4</ele>
  <time>2026-09-02T22:08:50Z</time>
  <course>102.79</course>
  <speed>0.99</speed>
  <fix>3d</fix>
</trkpt>
<trkpt lat="33.8107482" lon="-118.3948985">
  <ele>-25.013</ele>
  <time>2026-09-02T22:08:50Z</time>
  <course>192.78</course>
  <speed>1.021077861869505</speed>
  <fix>3d</fix>
</trkpt>
<trkpt lat="33.8107487" lon="-118.3949001">
  <ele>-24.41</ele>
  <time>2026-09-02T22:08:50Z</time>
  <course>103.05</course>
  <speed>1.0</speed>
  <fix>3d</fix>
</trkpt>
<trkpt lat="33.810748" lon="-118.3948974">
  <ele>-25.013</ele>
  <time>2026-09-02T22:08:50Z</time>
  <course>192.89</course>
  <speed>1.021077861869505</speed>
  <fix>3d</fix>
</trkpt>
<trkpt lat="33.8107487" lon="-118.3949001">
  <ele>-24.41</ele>
  <time>2026-09-02T22:08:50Z</time>
  <course>103.05</course>
  <speed>1.0</speed>
  <fix>3d</fix>
</trkpt>
<trkpt lat="33.8107478" lon="-118.3948964">
  <ele>-25.012</ele>
  <time>2026-09-02T22:08:50Z</time>
  <course>193.01</course>
  <speed>1.0113851887386922</speed>
  <fix>3d</fix>
</trkpt>
<trkpt lat="33.8107482" lon="-118.394898">
  <ele>-24.41</ele>
  <time>2026-09-02T22:08:50Z</time>
  <course>103.29</course>
  <speed>1.0</speed>
  <fix>3d</fix>
</trkpt>
<trkpt lat="33.8107476" lon="-118.3948953">
  <ele>-25.011</ele>
  <time>2026-09-02T22:08:50Z</time>
  <course>193.12</course>
  <speed>1.0113851887386922</speed>
  <fix>3d</fix>
</trkpt>
<trkpt lat="33.8107482" lon="-118.394898">
  <ele>-24.41</ele>
  <time>2026-09-02T22:08:50Z</time>
  <course>103.29</course>
  <speed>1.0</speed>
  <fix>3d</fix>
</trkpt>
<trkpt lat="33.8107473" lon="-118.3948943">
  <ele>-25.011</ele>
  <time>2026-09-02T22:08:50Z</time>
  <course>193.24</course>
  <speed>1.0139033484509261</speed>
  <fix>3d</fix>
</trkpt>
<trkpt lat="33.8107478" lon="-118.3948959">
  <ele>-24.41</ele>
  <time>2026-09-02T22:08:50Z</time>
  <course>103.5</course>
  <speed>1.0</speed>
  <fix>3d</fix>
</trkpt>
<trkpt lat="33.8107471" lon="-118.3948932">
  <ele>-25.012</ele>
  <time>2026-09-02T22:08:50Z</time>
  <course>193.35</course>
  <speed>1.0139033484509261</speed>
  <fix>3d</fix>
</trkpt>
<trkpt lat="33.8107478" lon="-118.3948959">
  <ele>-24.41</ele>
  <time>2026-09-02T22:08:50Z</time>
  <course>103.5</course>
  <speed>1.0</speed>
  <fix>3d</fix>
</trkpt>
<trkpt lat="33.8107469" lon="-118.3948922">
  <ele>-25.013</ele>
  <time>2026-09-02T22:08:50Z</time>
  <course>193.47</course>
  <speed>1.0139033484509261</speed>
  <fix>3d</fix>
</trkpt>
<trkpt lat="33.8107473" lon="-118.3948938">
  <ele>-24.41</ele>
  <time>2026-09-02T22:08:50Z</time>
  <course>103.67</course>
  <speed>1.0</speed>
  <fix>3d</fix>
</trkpt>
<trkpt lat="33.8107467" lon="-118.3948911">
  <ele>-25.014</ele>
  <time>2026-09-02T22:08:50Z</time>
  <course>193.59</course>
  <speed>1.0139033484509261</speed>
  <fix>3d</fix>
</trkpt>
<trkpt lat="33.8107473" lon="-118.3948938">
  <ele>-24.41</ele>
  <time>2026-09-02T22:08:50Z</time>
  <course>103.67</course>
  <speed>1.0</speed>
  <fix>3d</fix>
</trkpt>
<trkpt lat="33.8107465" lon="-118.3948901">
  <ele>-25.014</ele>
  <time>2026-09-02T22:08:50Z</time>
  <course>193.7</course>
  <speed>1.0139033484509261</speed>
  <fix>3d</fix>
</trkpt>
<trkpt lat="33.810747" lon="-118.3948916">
  <ele>-24.41</ele>
  <time>2026-09-02T22:08:50Z</time>
  <course>103.8</course>
  <speed>1.0</speed>
  <fix>3d</fix>
</trkpt>
<trkpt lat="33.8107463" lon="-118.394889">
  <ele>-25.014</ele>
  <time>2026-09-02T22:08:50Z</time>
  <course>193.81</course>
  <speed>1.0139033484509261</speed>
  <fix>3d</fix>
</trkpt>
<trkpt lat="33.810747" lon="-118.3948916">
  <ele>-24.41</ele>
  <time>2026-09-02T22:08:50Z</time>
  <course>103.8</course>
  <speed>1.0</speed>
  <fix>3d</fix>
</trkpt>
<trkpt lat="33.810746" lon="-118.394888">
  <ele>-25.013</ele>
  <time>2026-09-02T22:08:50Z</time>
  <course>193.93</course>
  <speed>1.0139033484509261</speed>
  <fix>3d</fix>
</trkpt>
<trkpt lat="33.8107465" lon="-118.3948895">
  <ele>-24.41</ele>
  <time>2026-09-02T22:08:50Z</time>
  <course>103.97</course>
  <speed>1.0</speed>
  <fix>3d</fix>
</trkpt>
<trkpt lat="33.8107458" lon="-118.3948869">
  <ele>-25.012</ele>
  <time>2026-09-02T22:08:50Z</time>
  <course>194.04</course>
  <speed>1.0165136496870073</speed>
  <fix>3d</fix>
</trkpt>
<trkpt lat="33.8107465" lon="-118.3948895">
  <ele>-24.41</ele>
  <time>2026-09-02T22:08:50Z</time>
  <course>103.97</course>
  <speed>1.0</speed>
  <fix>3d</fix>
</trkpt>
<trkpt lat="33.8107456" lon="-118.3948859">
  <ele>-25.012</ele>
  <time>2026-09-02T22:08:50Z</time>
  <course>194.16</course>
  <speed>1.0165136496870073</speed>
  <fix>3d</fix>
</trkpt>
<trkpt lat="33.8107461" lon="-118.3948874">
  <ele>-24.41</ele>
  <time>2026-09-02T22:08:50Z</time>
  <course>104.2</course>
  <speed>1.0</speed>
  <fix>3d</fix>
</trkpt>
<trkpt lat="33.8107454" lon="-118.3948848">
  <ele>-25.013</ele>
  <time>2026-09-02T22:08:50Z</time>
  <course>194.27</course>
  <speed>1.0165136496870073</speed>
  <fix>3d</fix>
</trkpt>
<trkpt lat="33.8107461" lon="-118.3948874">
  <ele>-24.41</ele>
  <time>2026-09-02T22:08:50Z</time>
  <course>104.2</course>
  <speed>1.0</speed>
  <fix>3d</fix>
</trkpt>
<trkpt lat="33.8107452" lon="-118.3948838">
  <ele>-25.014</ele>
  <time>2026-09-02T22:08:50Z</time>
  <course>194.39</course>
  <speed>1.0165136496870073</speed>
  <fix>3d</fix>
</trkpt>
<trkpt lat="33.8107456" lon="-118.3948853">
  <ele>-24.41</ele>
  <time>2026-09-02T22:08:50Z</time>
  <course>104.44</course>
  <speed>1.0</speed>
  <fix>3d</fix>
</trkpt>
<trkpt lat="33.8107449" lon="-118.3948827">
  <ele>-25.016</ele>
  <time>2026-09-02T22:08:50Z</time>
  <course>194.5</course>
  <speed>1.0165136496870073</speed>
  <fix>3d</fix>
</trkpt>
<trkpt lat="33.8107456" lon="-118.3948853">
  <ele>-24.41</ele>
  <time>2026-09-02T22:08:50Z</time>
  <course>104.44</course>
  <speed>1.0</speed>
  <fix>3d</fix>
</trkpt>
<trkpt lat="33.8107447" lon="-118.3948817">
  <ele>-25.017</ele>
  <time>2026-09-02T22:08:50Z</time>
  <course>194.62</course>
  <speed>1.0192153844992726</speed>
  <fix>3d</fix>
</trkpt>
<trkpt lat="33.8107452" lon="-118.3948833">
  <ele>-24.41</ele>
  <time>2026-09-02T22:08:50Z</time>
  <course>104.68</course>
  <speed>0.99</speed>
  <fix>3d</fix>
</trkpt>
<trkpt lat="33.8107445" lon="-118.3948806">
  <ele>-25.017</ele>
  <time>2026-09-02T22:08:50Z</time>
  <course>194.73</course>
  <speed>1.0192153844992726</speed>
  <fix>3d</fix>
</trkpt>
<trkpt lat="33.8107452" lon="-118.3948833">
  <ele>-24.41</ele>
  <time>2026-09-02T22:08:50Z</time>
  <course>104.68</course>
  <speed>0.99</speed>
  <fix>3d</fix>
</trkpt>
<trkpt lat="33.8107442" lon="-118.3948796">
  <ele>-25.016</ele>
  <time>2026-09-02T22:08:50Z</time>
  <course>194.85</course>
  <speed>1.0192153844992726</speed>
  <fix>3d</fix>
</trkpt>
<trkpt lat="33.8107447" lon="-118.3948812">
  <ele>-24.41</ele>
  <time>2026-09-02T22:08:50Z</time>
  <course>104.9</course>
  <speed>0.99</speed>
  <fix>3d</fix>
</trkpt>
<trkpt lat="33.810744" lon="-118.3948785">
  <ele>-25.014</ele>
  <time>2026-09-02T22:08:50Z</time>
  <course>194.96</course>
  <speed>1.0192153844992726</speed>
  <fix>3d</fix>
</trkpt>
<trkpt lat="33.8107447" lon="-118.3948812">
  <ele>-24.41</ele>
  <time>2026-09-02T22:08:50Z</time>
  <course>104.9</course>
  <speed>0.99</speed>
  <fix>3d</fix>
</trkpt>
<trkpt lat="33.8107438" lon="-118.3948775">
  <ele>-25.013</ele>
  <time>2026-09-02T22:08:50Z</time>
  <course>195.08</course>
  <speed>1.0192153844992726</speed>
  <fix>3d</fix>
</trkpt>
<trkpt lat="33.8107442" lon="-118.3948791">
  <ele>-24.41</ele>
  <time>2026-09-02T22:08:50Z</time>
  <course>105.09</course>
  <speed>0.99</speed>
  <fix>3d</fix>
</trkpt>
<trkpt lat="33.8107435" lon="-118.3948764">
  <ele>-25.013</ele>
  <time>2026-09-02T22:08:50Z</time>
  <course>195.19</course>
  <speed>1.009603882718366</speed>
  <fix>3d</fix>
</trkpt>
<trkpt lat="33.8107442" lon="-118.3948791">
  <ele>-24.41</ele>
  <time>2026-09-02T22:08:50Z</time>
  <course>105.09</course>
  <speed>0.99</speed>
  <fix>3d</fix>
</trkpt>
<trkpt lat="33.8107433" lon="-118.3948754">
  <ele>-25.014</ele>
  <time>2026-09-02T22:08:50Z</time>
  <course>195.31</course>
  <speed>1.0124228365658294</speed>
  <fix>3d</fix>
</trkpt>
<trkpt lat="33.8107438" lon="-118.394877">
  <ele>-24.41</ele>
  <time>2026-09-02T22:08:50Z</time>
  <course>105.26</course>
  <speed>1.0</speed>
  <fix>3d</fix>
</trkpt>
<trkpt lat="33.810743" lon="-118.3948744">
  <ele>-25.014</ele>
  <time>2026-09-02T22:08:50Z</time>
  <course>195.42</course>
  <speed>1.0124228365658294</speed>
  <fix>3d</fix>
</trkpt>
<trkpt lat="33.8107438" lon="-118.394877">
  <ele>-24.41</ele>
  <time>2026-09-02T22:08:50Z</time>
  <course>105.26</course>
  <speed>1.0</speed>
  <fix>3d</fix>
</trkpt>
<trkpt lat="33.8107428" lon="-118.3948733">
  <ele>-25.015</ele>
  <time>2026-09-02T22:08:50Z</time>
  <course>195.53</course>
  <speed>1.0124228365658294</speed>
  <fix>3d</fix>
</trkpt>
<trkpt lat="33.8107433" lon="-118.3948749">
  <ele>-24.41</ele>
  <time>2026-09-02T22:08:50Z</time>
  <course>105.46</course>
  <speed>1.0</speed>
  <fix>3d</fix>
</trkpt>
<trkpt lat="33.8107426" lon="-118.3948723">
  <ele>-25.016</ele>
  <time>2026-09-02T22:08:50Z</time>
  <course>195.65</course>
  <speed>1.0124228365658294</speed>
  <fix>3d</fix>
</trkpt>
<trkpt lat="33.8107433" lon="-118.3948749">
  <ele>-24.41</ele>
  <time>2026-09-02T22:08:50Z</time>
  <course>105.46</course>
  <speed>1.0</speed>
  <fix>3d</fix>
</trkpt>
<trkpt lat="33.8107423" lon="-118.3948712">
  <ele>-25.016</ele>
  <time>2026-09-02T22:08:50Z</time>
  <course>195.76</course>
  <speed>1.0124228365658294</speed>
  <fix>3d</fix>
</trkpt>
<trkpt lat="33.8107428" lon="-118.3948728">
  <ele>-24.41</ele>
  <time>2026-09-02T22:08:50Z</time>
  <course>105.7</course>
  <speed>1.0</speed>
  <fix>3d</fix>
</trkpt>
<trkpt lat="33.8107421" lon="-118.3948702">
  <ele>-25.015</ele>
  <time>2026-09-02T22:08:50Z</time>
  <course>195.88</course>
  <speed>1.015332457867865</speed>
  <fix>3d</fix>
</trkpt>
<trkpt lat="33.8107428" lon="-118.3948728">
  <ele>-24.41</ele>
  <time>2026-09-02T22:08:50Z</time>
  <course>105.7</course>
  <speed>1.0</speed>
  <fix>3d</fix>
</trkpt>
<trkpt lat="33.8107418" lon="-118.3948692">
  <ele>-25.014</ele>
  <time>2026-09-02T22:08:50Z</time>
  <course>195.99</course>
  <speed>1.015332457867865</speed>
  <fix>3d</fix>
</trkpt>
<trkpt lat="33.8107423" lon="-118.3948707">
  <ele>-24.41</ele>
  <time>2026-09-02T22:08:50Z</time>
  <course>105.93</course>
  <speed>1.0</speed>
  <fix>3d</fix>
</trkpt>
<trkpt lat="33.8107416" lon="-118.3948681">
  <ele>-25.013</ele>
  <time>2026-09-02T22:08:50Z</time>
  <course>196.11</course>
  <speed>1.015332457867865</speed>
  <fix>3d</fix>
</trkpt>
<trkpt lat="33.8107423" lon="-118.3948707">
  <ele>-24.41</ele>
  <time>2026-09-02T22:08:50Z</time>
  <course>105.93</course>
  <speed>1.0</speed>
  <fix>3d</fix>
</trkpt>
<trkpt lat="33.8107413" lon="-118.3948671">
  <ele>-25.013</ele>
  <time>2026-09-02T22:08:50Z</time>
  <course>196.22</course>
  <speed>1.015332457867865</speed>
  <fix>3d</fix>
</trkpt>
<trkpt lat="33.8107418" lon="-118.3948687">
  <ele>-24.41</ele>
  <time>2026-09-02T22:08:50Z</time>
  <course>106.16</course>
  <speed>0.99</speed>
  <fix>3d</fix>
</trkpt>
<trkpt lat="33.810741" lon="-118.394866">
  <ele>-25.013</ele>
  <time>2026-09-02T22:08:50Z</time>
  <course>196.34</course>
  <speed>1.015332457867865</speed>
  <fix>3d</fix>
</trkpt>
<trkpt lat="33.8107418" lon="-118.3948687">
  <ele>-24.41</ele>
  <time>2026-09-02T22:08:50Z</time>
  <course>106.16</course>
  <speed>0.99</speed>
  <fix>3d</fix>
</trkpt>
<trkpt lat="33.8107408" lon="-118.394865">
  <ele>-25.013</ele>
  <time>2026-09-02T22:08:50Z</time>
  <course>196.45</course>
  <speed>1.0183319694480775</speed>
  <fix>3d</fix>
</trkpt>
<trkpt lat="33.8107413" lon="-118.3948666">
  <ele>-24.41</ele>
  <time>2026-09-02T22:08:50Z</time>
  <course>106.38</course>
  <speed>0.99</speed>
  <fix>3d</fix>
</trkpt>
<trkpt lat="33.8107405" lon="-118.394864">
  <ele>-25.014</ele>
  <time>2026-09-02T22:08:50Z</time>
  <course>196.57</course>
  <speed>1.0183319694480775</speed>
  <fix>3d</fix>
</trkpt>
<trkpt lat="33.8107413" lon="-118.3948666">
  <ele>-24.41</ele>
  <time>2026-09-02T22:08:50Z</time>
  <course>106.38</course>
  <speed>0.99</speed>
  <fix>3d</fix>
</trkpt>
<trkpt lat="33.8107403" lon="-118.3948629">
  <ele>-25.015</ele>
  <time>2026-09-02T22:08:50Z</time>
  <course>196.68</course>
  <speed>1.0183319694480775</speed>
  <fix>3d</fix>
</trkpt>
<trkpt lat="33.8107408" lon="-118.3948645">
  <ele>-24.41</ele>
  <time>2026-09-02T22:08:50Z</time>
  <course>106.57</course>
  <speed>0.99</speed>
  <fix>3d</fix>
</trkpt>
<trkpt lat="33.81074" lon="-118.3948619">
  <ele>-25.014</ele>
  <time>2026-09-02T22:08:50Z</time>
  <course>196.79</course>
  <speed>1.0183319694480775</speed>
  <fix>3d</fix>
</trkpt>
<trkpt lat="33.8107408" lon="-118.3948645">
  <ele>-24.41</ele>
  <time>2026-09-02T22:08:50Z</time>
  <course>106.57</course>
  <speed>0.99</speed>
  <fix>3d</fix>
</trkpt>
<trkpt lat="33.8107397" lon="-118.3948609">
  <ele>-25.013</ele>
  <time>2026-09-02T22:08:50Z</time>
  <course>196.91</course>
  <speed>1.0183319694480775</speed>
  <fix>3d</fix>
</trkpt>
<trkpt lat="33.8107403" lon="-118.3948624">
  <ele>-24.41</ele>
  <time>2026-09-02T22:08:50Z</time>
  <course>106.79</course>
  <speed>1.0</speed>
  <fix>3d</fix>
</trkpt>
<trkpt lat="33.8107395" lon="-118.3948598">
  <ele>-25.013</ele>
  <time>2026-09-02T22:08:50Z</time>
  <course>197.02</course>
  <speed>1.021420579389313</speed>
  <fix>3d</fix>
</trkpt>
<trkpt lat="33.8107403" lon="-118.3948624">
  <ele>-24.41</ele>
  <time>2026-09-02T22:08:50Z</time>
  <course>106.79</course>
  <speed>1.0</speed>
  <fix>3d</fix>
</trkpt>
<trkpt lat="33.8107392" lon="-118.3948588">
  <ele>-25.012</ele>
  <time>2026-09-02T22:08:50Z</time>
  <course>197.14</course>
  <speed>1.021420579389313</speed>
  <fix>3d</fix>
</trkpt>
<trkpt lat="33.8107398" lon="-118.3948604">
  <ele>-24.4</ele>
  <time>2026-09-02T22:08:50Z</time>
  <course>107.05</course>
  <speed>1.0</speed>
  <fix>3d</fix>
</trkpt>
<trkpt lat="33.810739" lon="-118.3948578">
  <ele>-25.011</ele>
  <time>2026-09-02T22:08:50Z</time>
  <course>197.25</course>
  <speed>1.021420579389313</speed>
  <fix>3d</fix>
</trkpt>
<trkpt lat="33.8107398" lon="-118.3948604">
  <ele>-24.4</ele>
  <time>2026-09-02T22:08:50Z</time>
  <course>107.05</course>
  <speed>1.0</speed>
  <fix>3d</fix>
</trkpt>
<trkpt lat="33.8107387" lon="-118.3948568">
  <ele>-25.008</ele>
  <time>2026-09-02T22:08:50Z</time>
  <course>197.37</course>
  <speed>1.021420579389313</speed>
  <fix>3d</fix>
</trkpt>
<trkpt lat="33.8107392" lon="-118.3948583">
  <ele>-24.4</ele>
  <time>2026-09-02T22:08:50Z</time>
  <course>107.32</course>
  <speed>1.0</speed>
  <fix>3d</fix>
</trkpt>
<trkpt lat="33.8107384" lon="-118.3948557">
  <ele>-25.006</ele>
  <time>2026-09-02T22:08:50Z</time>
  <course>197.48</course>
  <speed>1.0245974819410792</speed>
  <fix>3d</fix>
</trkpt>
<trkpt lat="33.8107392" lon="-118.3948583">
  <ele>-24.4</ele>
  <time>2026-09-02T22:08:50Z</time>
  <course>107.32</course>
  <speed>1.0</speed>
  <fix>3d</fix>
</trkpt>
<trkpt lat="33.8107381" lon="-118.3948547">
  <ele>-25.005</ele>
  <time>2026-09-02T22:08:50Z</time>
  <course>197.59</course>
  <speed>1.0151354589413177</speed>
  <fix>3d</fix>
</trkpt>
<trkpt lat="33.8107387" lon="-118.3948562">
  <ele>-24.4</ele>
  <time>2026-09-02T22:08:50Z</time>
  <course>107.58</course>
  <speed>1.0</speed>
  <fix>3d</fix>
</trkpt>
<trkpt lat="33.8107379" lon="-118.3948537">
  <ele>-25.005</ele>
  <time>2026-09-02T22:08:50Z</time>
  <course>197.71</course>
  <speed>1.0151354589413177</speed>
  <fix>3d</fix>
</trkpt>
<trkpt lat="33.8107387" lon="-118.3948562">
  <ele>-24.4</ele>
  <time>2026-09-02T22:08:50Z</time>
  <course>107.58</course>
  <speed>1.0</speed>
  <fix>3d</fix>
</trkpt>
<trkpt lat="33.8107376" lon="-118.3948526">
  <ele>-25.007</ele>
  <time>2026-09-02T22:08:50Z</time>
  <course>197.82</course>
  <speed>1.0151354589413177</speed>
  <fix>3d</fix>
</trkpt>
<trkpt lat="33.8107382" lon="-118.3948542">
  <ele>-24.41</ele>
  <time>2026-09-02T22:08:50Z</time>
  <course>107.8</course>
  <speed>1.0</speed>
  <fix>3d</fix>
</trkpt>
<trkpt lat="33.8107373" lon="-118.3948516">
  <ele>-25.01</ele>
  <time>2026-09-02T22:08:50Z</time>
  <course>197.94</course>
  <speed>1.0151354589413177</speed>
  <fix>3d</fix>
</trkpt>
<trkpt lat="33.8107382" lon="-118.3948542">
  <ele>-24.41</ele>
  <time>2026-09-02T22:08:50Z</time>
  <course>107.8</course>
  <speed>1.0</speed>
  <fix>3d</fix>
</trkpt>
<trkpt lat="33.810737" lon="-118.3948506">
  <ele>-25.013</ele>
  <time>2026-09-02T22:08:50Z</time>
  <course>198.05</course>
  <speed>1.0184301645179212</speed>
  <fix>3d</fix>
</trkpt>
<trkpt lat="33.8107376" lon="-118.3948521">
  <ele>-24.41</ele>
  <time>2026-09-02T22:08:50Z</time>
  <course>108.03</course>
  <speed>1.0</speed>
  <fix>3d</fix>
</trkpt>
<trkpt lat="33.8107368" lon="-118.3948496">
  <ele>-25.014</ele>
  <time>2026-09-02T22:08:50Z</time>
  <course>198.17</course>
  <speed>1.0184301645179212</speed>
  <fix>3d</fix>
</trkpt>
<trkpt lat="33.8107376" lon="-118.3948521">
  <ele>-24.41</ele>
  <time>2026-09-02T22:08:50Z</time>
  <course>108.03</course>
  <speed>1.0</speed>
  <fix>3d</fix>
</trkpt>
<trkpt lat="33.8107365" lon="-118.3948485">
  <ele>-25.015</ele>
  <time>2026-09-02T22:08:50Z</time>
  <course>198.28</course>
  <speed>1.0184301645179212</speed>
  <fix>3d</fix>
</trkpt>
<trkpt lat="33.8107371" lon="-118.39485">
  <ele>-24.42</ele>
  <time>2026-09-02T22:08:50Z</time>
  <course>108.29</course>
  <speed>1.0</speed>
  <fix>3d</fix>
</trkpt>
<trkpt lat="33.8107362" lon="-118.3948475">
  <ele>-25.016</ele>
  <time>2026-09-02T22:08:50Z</time>
  <course>198.4</course>
  <speed>1.0184301645179212</speed>
  <fix>3d</fix>
</trkpt>
<trkpt lat="33.8107371" lon="-118.39485">
  <ele>-24.42</ele>
  <time>2026-09-02T22:08:50Z</time>
  <course>108.29</course>
  <speed>1.0</speed>
  <fix>3d</fix>
</trkpt>
<trkpt lat="33.8107359" lon="-118.3948465">
  <ele>-25.015</ele>
  <time>2026-09-02T22:08:50Z</time>
  <course>198.51</course>
  <speed>1.0218121158021176</speed>
  <fix>3d</fix>
</trkpt>
<trkpt lat="33.8107365" lon="-118.394848">
  <ele>-24.42</ele>
  <time>2026-09-02T22:08:50Z</time>
  <course>108.57</course>
  <speed>1.0</speed>
  <fix>3d</fix>
</trkpt>
<trkpt lat="33.8107356" lon="-118.3948455">
  <ele>-25.015</ele>
  <time>2026-09-02T22:08:50Z</time>
  <course>198.63</course>
  <speed>1.0218121158021176</speed>
  <fix>3d</fix>
</trkpt>
<trkpt lat="33.8107365" lon="-118.394848">
  <ele>-24.42</ele>
  <time>2026-09-02T22:08:50Z</time>
  <course>108.57</course>
  <speed>1.0</speed>
  <fix>3d</fix>
</trkpt>
<trkpt lat="33.8107353" lon="-118.3948444">
  <ele>-25.016</ele>
  <time>2026-09-02T22:08:50Z</time>
  <course>198.74</course>
  <speed>1.0218121158021176</speed>
  <fix>3d</fix>
</trkpt>
<trkpt lat="33.8107359" lon="-118.3948459">
  <ele>-24.42</ele>
  <time>2026-09-02T22:08:50Z</time>
  <course>108.86</course>
  <speed>1.0</speed>
  <fix>3d</fix>
</trkpt>
<trkpt lat="33.810735" lon="-118.3948434">
  <ele>-25.016</ele>
  <time>2026-09-02T22:08:50Z</time>
  <course>198.86</course>
  <speed>1.0218121158021176</speed>
  <fix>3d</fix>
</trkpt>
<trkpt lat="33.8107359" lon="-118.3948459">
  <ele>-24.42</ele>
  <time>2026-09-02T22:08:50Z</time>
  <course>108.86</course>
  <speed>1.0</speed>
  <fix>3d</fix>
</trkpt>
<trkpt lat="33.8107347" lon="-118.3948424">
  <ele>-25.016</ele>
  <time>2026-09-02T22:08:50Z</time>
  <course>198.97</course>
  <speed>1.0124228365658294</speed>
  <fix>3d</fix>
</trkpt>
<trkpt lat="33.8107353" lon="-118.3948438">
  <ele>-24.42</ele>
  <time>2026-09-02T22:08:50Z</time>
  <course>109.11</course>
  <speed>1.0</speed>
  <fix>3d</fix>
</trkpt>
<trkpt lat="33.8107344" lon="-118.3948413">
  <ele>-25.015</ele>
  <time>2026-09-02T22:08:50Z</time>
  <course>199.09</course>
  <speed>1.0124228365658294</speed>
  <fix>3d</fix>
</trkpt>
<trkpt lat="33.8107353" lon="-118.3948438">
  <ele>-24.42</ele>
  <time>2026-09-02T22:08:50Z</time>
  <course>109.11</course>
  <speed>1.0</speed>
  <fix>3d</fix>
</trkpt>
<trkpt lat="33.8107341" lon="-118.3948403">
  <ele>-25.015</ele>
  <time>2026-09-02T22:08:50Z</time>
  <course>199.2</course>
  <speed>1.0159232254457027</speed>
  <fix>3d</fix>
</trkpt>
<trkpt lat="33.8107347" lon="-118.3948418">
  <ele>-24.42</ele>
  <time>2026-09-02T22:08:50Z</time>
  <course>109.35</course>
  <speed>1.0</speed>
  <fix>3d</fix>
</trkpt>
<trkpt lat="33.8107338" lon="-118.3948393">
  <ele>-25.016</ele>
  <time>2026-09-02T22:08:50Z</time>
  <course>199.31</course>
  <speed>1.0159232254457027</speed>
  <fix>3d</fix>
</trkpt>
<trkpt lat="33.8107347" lon="-118.3948418">
  <ele>-24.42</ele>
  <time>2026-09-02T22:08:50Z</time>
  <course>109.35</course>
  <speed>1.0</speed>
  <fix>3d</fix>
</trkpt>
<trkpt lat="33.8107335" lon="-118.3948383">
  <ele>-25.016</ele>
  <time>2026-09-02T22:08:50Z</time>
  <course>199.43</course>
  <speed>1.0159232254457027</speed>
  <fix>3d</fix>
</trkpt>
<trkpt lat="33.8107341" lon="-118.3948397">
  <ele>-24.42</ele>
  <time>2026-09-02T22:08:50Z</time>
  <course>109.55</course>
  <speed>1.0</speed>
  <fix>3d</fix>
</trkpt>
<trkpt lat="33.8107332" lon="-118.3948373">
  <ele>-25.017</ele>
  <time>2026-09-02T22:08:50Z</time>
  <course>199.54</course>
  <speed>1.0159232254457027</speed>
  <fix>3d</fix>
</trkpt>
<trkpt lat="33.8107341" lon="-118.3948397">
  <ele>-24.42</ele>
  <time>2026-09-02T22:08:50Z</time>
  <course>109.55</course>
  <speed>1.0</speed>
  <fix>3d</fix>
</trkpt>
<trkpt lat="33.8107329" lon="-118.3948362">
  <ele>-25.018</ele>
  <time>2026-09-02T22:08:50Z</time>
  <course>199.66</course>
  <speed>1.0159232254457027</speed>
  <fix>3d</fix>
</trkpt>
<trkpt lat="33.8107335" lon="-118.3948377">
  <ele>-24.42</ele>
  <time>2026-09-02T22:08:50Z</time>
  <course>109.73</course>
  <speed>1.0</speed>
  <fix>3d</fix>
</trkpt>
<trkpt lat="33.8107326" lon="-118.3948352">
  <ele>-25.017</ele>
  <time>2026-09-02T22:08:50Z</time>
  <course>199.78</course>
  <speed>1.0159232254457027</speed>
  <fix>3d</fix>
</trkpt>
<trkpt lat="33.8107335" lon="-118.3948377">
  <ele>-24.42</ele>
  <time>2026-09-02T22:08:50Z</time>
  <course>109.73</course>
  <speed>1.0</speed>
  <fix>3d</fix>
</trkpt>
<trkpt lat="33.8107323" lon="-118.3948342">
  <ele>-25.017</ele>
  <time>2026-09-02T22:08:50Z</time>
  <course>199.89</course>
  <speed>1.0195096860746347</speed>
  <fix>3d</fix>
</trkpt>
<trkpt lat="33.8107329" lon="-118.3948356">
  <ele>-24.42</ele>
  <time>2026-09-02T22:08:50Z</time>
  <course>109.93</course>
  <speed>1.0</speed>
  <fix>3d</fix>
</trkpt>
<trkpt lat="33.810732" lon="-118.3948332">
  <ele>-25.017</ele>
  <time>2026-09-02T22:08:50Z</time>
  <course>200.01</course>
  <speed>1.0195096860746347</speed>
  <fix>3d</fix>
</trkpt>
<trkpt lat="33.8107329" lon="-118.3948356">
  <ele>-24.42</ele>
  <time>2026-09-02T22:08:50Z</time>
  <course>109.93</course>
  <speed>1.0</speed>
  <fix>3d</fix>
</trkpt>
<trkpt lat="33.8107317" lon="-118.3948322">
  <ele>-25.018</ele>
  <time>2026-09-02T22:08:50Z</time>
  <course>200.12</course>
  <speed>1.0195096860746347</speed>
  <fix>3d</fix>
</trkpt>
<trkpt lat="33.8107323" lon="-118.3948336">
  <ele>-24.41</ele>
  <time>2026-09-02T22:08:50Z</time>
  <course>110.13</course>
  <speed>1.0</speed>
  <fix>3d</fix>
</trkpt>
<trkpt lat="33.8107314" lon="-118.3948312">
  <ele>-25.017</ele>
  <time>2026-09-02T22:08:50Z</time>
  <course>200.23</course>
  <speed>1.010198000393982</speed>
  <fix>3d</fix>
</trkpt>
<trkpt lat="33.8107323" lon="-118.3948336">
  <ele>-24.41</ele>
  <time>2026-09-02T22:08:50Z</time>
  <course>110.13</course>
  <speed>1.0</speed>
  <fix>3d</fix>
</trkpt>
<trkpt lat="33.8107311" lon="-118.3948301">
  <ele>-25.015</ele>
  <time>2026-09-02T22:08:50Z</time>
  <course>200.35</course>
  <speed>1.010198000393982</speed>
  <fix>3d</fix>
</trkpt>
<trkpt lat="33.8107317" lon="-118.3948316">
  <ele>-24.41</ele>
  <time>2026-09-02T22:08:50Z</time>
  <course>110.38</course>
  <speed>1.0</speed>
  <fix>3d</fix>
</trkpt>
<trkpt lat="33.8107307" lon="-118.3948291">
  <ele>-25.013</ele>
  <time>2026-09-02T22:08:50Z</time>
  <course>200.46</course>
  <speed>1.0139033484509261</speed>
  <fix>3d</fix>
</trkpt>
<trkpt lat="33.8107317" lon="-118.3948316">
  <ele>-24.41</ele>
  <time>2026-09-02T22:08:50Z</time>
  <course>110.38</course>
  <speed>1.0</speed>
  <fix>3d</fix>
</trkpt>
<trkpt lat="33.8107304" lon="-118.3948281">
  <ele>-25.013</ele>
  <time>2026-09-02T22:08:50Z</time>
  <course>200.58</course>
  <speed>1.0139033484509261</speed>
  <fix>3d</fix>
</trkpt>
<trkpt lat="33.810731" lon="-118.3948295">
  <ele>-24.41</ele>
  <time>2026-09-02T22:08:50Z</time>
  <course>110.66</course>
  <speed>1.0</speed>
  <fix>3d</fix>
</trkpt>
<trkpt lat="33.8107301" lon="-118.3948271">
  <ele>-25.013</ele>
  <time>2026-09-02T22:08:50Z</time>
  <course>200.69</course>
  <speed>1.0139033484509261</speed>
  <fix>3d</fix>
</trkpt>
<trkpt lat="33.810731" lon="-118.3948295">
  <ele>-24.41</ele>
  <time>2026-09-02T22:08:50Z</time>
  <course>110.66</course>
  <speed>1.0</speed>
  <fix>3d</fix>
</trkpt>
<trkpt lat="33.8107298" lon="-118.3948261">
  <ele>-25.013</ele>
  <time>2026-09-02T22:08:50Z</time>
  <course>200.8</course>
  <speed>1.0139033484509261</speed>
  <fix>3d</fix>
</trkpt>
<trkpt lat="33.8107304" lon="-118.3948275">
  <ele>-24.41</ele>
  <time>2026-09-02T22:08:50Z</time>
  <course>110.91</course>
  <speed>1.0</speed>
  <fix>3d</fix>
</trkpt>
<trkpt lat="33.8107295" lon="-118.3948251">
  <ele>-25.013</ele>
  <time>2026-09-02T22:08:50Z</time>
  <course>200.92</course>
  <speed>1.0139033484509261</speed>
  <fix>3d</fix>
</trkpt>
<trkpt lat="33.8107304" lon="-118.3948275">
  <ele>-24.41</ele>
  <time>2026-09-02T22:08:50Z</time>
  <course>110.91</course>
  <speed>1.0</speed>
  <fix>3d</fix>
</trkpt>
<trkpt lat="33.8107291" lon="-118.3948241">
  <ele>-25.013</ele>
  <time>2026-09-02T22:08:50Z</time>
  <course>201.03</course>
  <speed>1.0139033484509261</speed>
  <fix>3d</fix>
</trkpt>
<trkpt lat="33.8107297" lon="-118.3948255">
  <ele>-24.41</ele>
  <time>2026-09-02T22:08:50Z</time>
  <course>111.14</course>
  <speed>1.0</speed>
  <fix>3d</fix>
</trkpt>
<trkpt lat="33.8107288" lon="-118.3948231">
  <ele>-25.014</ele>
  <time>2026-09-02T22:08:50Z</time>
  <course>201.15</course>
  <speed>1.0176934705499492</speed>
  <fix>3d</fix>
</trkpt>
<trkpt lat="33.8107297" lon="-118.3948255">
  <ele>-24.41</ele>
  <time>2026-09-02T22:08:50Z</time>
  <course>111.14</course>
  <speed>1.0</speed>
  <fix>3d</fix>
</trkpt>
<trkpt lat="33.8107285" lon="-118.394822">
  <ele>-25.014</ele>
  <time>2026-09-02T22:08:50Z</time>
  <course>201.27</course>
  <speed>1.0176934705499492</speed>
  <fix>3d</fix>
</trkpt>
<trkpt lat="33.8107291" lon="-118.3948234">
  <ele>-24.41</ele>
  <time>2026-09-02T22:08:50Z</time>
  <course>111.35</course>
  <speed>1.0</speed>
  <fix>3d</fix>
</trkpt>
<trkpt lat="33.8107281" lon="-118.394821">
  <ele>-25.015</ele>
  <time>2026-09-02T22:08:50Z</time>
  <course>201.38</course>
  <speed>1.0176934705499492</speed>
  <fix>3d</fix>
</trkpt>
<trkpt lat="33.8107291" lon="-118.3948234">
  <ele>-24.41</ele>
  <time>2026-09-02T22:08:50Z</time>
  <course>111.35</course>
  <speed>1.0</speed>
  <fix>3d</fix>
</trkpt>
<trkpt lat="33.8107278" lon="-118.39482">
  <ele>-25.015</ele>
  <time>2026-09-02T22:08:50Z</time>
  <course>201.49</course>
  <speed>1.0084641788382966</speed>
  <fix>3d</fix>
</trkpt>
<trkpt lat="33.8107284" lon="-118.3948214">
  <ele>-24.4</ele>
  <time>2026-09-02T22:08:50Z</time>
  <course>111.56</course>
  <speed>1.0</speed>
  <fix>3d</fix>
</trkpt>
<trkpt lat="33.8107275" lon="-118.394819">
  <ele>-25.015</ele>
  <time>2026-09-02T22:08:50Z</time>
  <course>201.61</course>
  <speed>1.0084641788382966</speed>
  <fix>3d</fix>
</trkpt>
<trkpt lat="33.8107284" lon="-118.3948214">
  <ele>-24.4</ele>
  <time>2026-09-02T22:08:50Z</time>
  <course>111.56</course>
  <speed>1.0</speed>
  <fix>3d</fix>
</trkpt>
<trkpt lat="33.8107271" lon="-118.394818">
  <ele>-25.013</ele>
  <time>2026-09-02T22:08:50Z</time>
  <course>201.72</course>
  <speed>1.0084641788382966</speed>
  <fix>3d</fix>
</trkpt>
<trkpt lat="33.8107277" lon="-118.3948194">
  <ele>-24.4</ele>
  <time>2026-09-02T22:08:50Z</time>
  <course>111.78</course>
  <speed>1.0</speed>
  <fix>3d</fix>
</trkpt>
<trkpt lat="33.8107268" lon="-118.394817">
  <ele>-25.012</ele>
  <time>2026-09-02T22:08:50Z</time>
  <course>201.84</course>
  <speed>1.0123734488813898</speed>
  <fix>3d</fix>
</trkpt>
<trkpt lat="33.8107277" lon="-118.3948194">
  <ele>-24.4</ele>
  <time>2026-09-02T22:08:50Z</time>
  <course>111.78</course>
  <speed>1.0</speed>
  <fix>3d</fix>
</trkpt>
<trkpt lat="33.8107265" lon="-118.394816">
  <ele>-25.011</ele>
  <time>2026-09-02T22:08:50Z</time>
  <course>201.95</course>
  <speed>1.0123734488813898</speed>
  <fix>3d</fix>
</trkpt>
<trkpt lat="33.810727" lon="-118.3948174">
  <ele>-24.4</ele>
  <time>2026-09-02T22:08:50Z</time>
  <course>111.97</course>
  <speed>1.0</speed>
  <fix>3d</fix>
</trkpt>
<trkpt lat="33.8107261" lon="-118.394815">
  <ele>-25.01</ele>
  <time>2026-09-02T22:08:50Z</time>
  <course>202.07</course>
  <speed>1.0123734488813898</speed>
  <fix>3d</fix>
</trkpt>
<trkpt lat="33.810727" lon="-118.3948174">
  <ele>-24.4</ele>
  <time>2026-09-02T22:08:50Z</time>
  <course>111.97</course>
  <speed>1.0</speed>
  <fix>3d</fix>
</trkpt>
<trkpt lat="33.8107258" lon="-118.394814">
  <ele>-25.01</ele>
  <time>2026-09-02T22:08:50Z</time>
  <course>202.18</course>
  <speed>1.0123734488813898</speed>
  <fix>3d</fix>
</trkpt>
<trkpt lat="33.8107264" lon="-118.3948154">
  <ele>-24.4</ele>
  <time>2026-09-02T22:08:50Z</time>
  <course>112.11</course>
  <speed>0.99</speed>
  <fix>3d</fix>
</trkpt>
<trkpt lat="33.8107254" lon="-118.394813">
  <ele>-25.009</ele>
  <time>2026-09-02T22:08:50Z</time>
  <course>202.29</course>
  <speed>1.0123734488813898</speed>
  <fix>3d</fix>
</trkpt>
<trkpt lat="33.8107264" lon="-118.3948154">
  <ele>-24.4</ele>
  <time>2026-09-02T22:08:50Z</time>
  <course>112.11</course>
  <speed>0.99</speed>
  <fix>3d</fix>
</trkpt>
<trkpt lat="33.8107251" lon="-118.394812">
  <ele>-25.008</ele>
  <time>2026-09-02T22:08:50Z</time>
  <course>202.41</course>
  <speed>1.0123734488813898</speed>
  <fix>3d</fix>
</trkpt>
<trkpt lat="33.8107257" lon="-118.3948134">
  <ele>-24.4</ele>
  <time>2026-09-02T22:08:50Z</time>
  <course>112.28</course>
  <speed>0.99</speed>
  <fix>3d</fix>
</trkpt>
<trkpt lat="33.8107247" lon="-118.394811">
  <ele>-25.007</ele>
  <time>2026-09-02T22:08:50Z</time>
  <course>202.52</course>
  <speed>1.016366075781753</speed>
  <fix>3d</fix>
</trkpt>
<trkpt lat="33.8107257" lon="-118.3948134">
  <ele>-24.4</ele>
  <time>2026-09-02T22:08:50Z</time>
  <course>112.28</course>
  <speed>0.99</speed>
  <fix>3d</fix>
</trkpt>
<trkpt lat="33.8107244" lon="-118.39481">
  <ele>-25.007</ele>
  <time>2026-09-02T22:08:50Z</time>
  <course>202.64</course>
  <speed>1.016366075781753</speed>
  <fix>3d</fix>
</trkpt>
<trkpt lat="33.810725" lon="-118.3948114">
  <ele>-24.4</ele>
  <time>2026-09-02T22:08:50Z</time>
  <course>112.49</course>
  <speed>0.99</speed>
  <fix>3d</fix>
</trkpt>
<trkpt lat="33.810724" lon="-118.394809">
  <ele>-25.007</ele>
  <time>2026-09-02T22:08:50Z</time>
  <course>202.75</course>
  <speed>1.0072239075796403</speed>
  <fix>3d</fix>
</trkpt>
<trkpt lat="33.810725" lon="-118.3948114">
  <ele>-24.4</ele>
  <time>2026-09-02T22:08:50Z</time>
  <course>112.49</course>
  <speed>0.99</speed>
  <fix>3d</fix>
</trkpt>
<trkpt lat="33.8107237" lon="-118.394808">
  <ele>-25.008</ele>
  <time>2026-09-02T22:08:50Z</time>
  <course>202.86</course>
  <speed>1.0072239075796403</speed>
  <fix>3d</fix>
</trkpt>
<trkpt lat="33.8107243" lon="-118.3948093">
  <ele>-24.4</ele>
  <time>2026-09-02T22:08:50Z</time>
  <course>112.7</course>
  <speed>0.99</speed>
  <fix>3d</fix>
</trkpt>
<trkpt lat="33.8107233" lon="-118.394807">
  <ele>-25.009</ele>
  <time>2026-09-02T22:08:50Z</time>
  <course>202.98</course>
  <speed>1.0072239075796403</speed>
  <fix>3d</fix>
</trkpt>
<trkpt lat="33.8107243" lon="-118.3948093">
  <ele>-24.4</ele>
  <time>2026-09-02T22:08:50Z</time>
  <course>112.7</course>
  <speed>0.99</speed>
  <fix>3d</fix>
</trkpt>
<trkpt lat="33.810723" lon="-118.394806">
  <ele>-25.01</ele>
  <time>2026-09-02T22:08:50Z</time>
  <course>203.09</course>
  <speed>1.0072239075796403</speed>
  <fix>3d</fix>
</trkpt>
<trkpt lat="33.8107236" lon="-118.3948074">
  <ele>-24.41</ele>
  <time>2026-09-02T22:08:50Z</time>
  <course>112.94</course>
  <speed>0.99</speed>
  <fix>3d</fix>
</trkpt>
<trkpt lat="33.8107226" lon="-118.394805">
  <ele>-25.012</ele>
  <time>2026-09-02T22:08:50Z</time>
  <course>203.21</course>
  <speed>1.0113357503816425</speed>
  <fix>3d</fix>
</trkpt>
<trkpt lat="33.8107236" lon="-118.3948074">
  <ele>-24.41</ele>
  <time>2026-09-02T22:08:51Z</time>
  <course>112.94</course>
  <speed>0.99</speed>
  <fix>3d</fix>
</trkpt>
<trkpt lat="33.8107223" lon="-118.394804">
  <ele>-25.013</ele>
  <time>2026-09-02T22:08:51Z</time>
  <course>203.32</course>
  <speed>1.0113357503816425</speed>
  <fix>3d</fix>
</trkpt>
<trkpt lat="33.8107229" lon="-118.3948054">
  <ele>-24.41</ele>
  <time>2026-09-02T22:08:51Z</time>
  <course>113.19</course>
  <speed>0.99</speed>
  <fix>3d</fix>
</trkpt>
<trkpt lat="33.8107219" lon="-118.394803">
  <ele>-25.014</ele>
  <time>2026-09-02T22:08:51Z</time>
  <course>203.44</course>
  <speed>1.0113357503816425</speed>
  <fix>3d</fix>
</trkpt>
<trkpt lat="33.8107229" lon="-118.3948054">
  <ele>-24.41</ele>
  <time>2026-09-02T22:08:51Z</time>
  <course>113.19</course>
  <speed>0.99</speed>
  <fix>3d</fix>
</trkpt>
<trkpt lat="33.8107215" lon="-118.3948021">
  <ele>-25.014</ele>
  <time>2026-09-02T22:08:51Z</time>
  <course>203.55</course>
  <speed>1.0113357503816425</speed>
  <fix>3d</fix>
</trkpt>
<trkpt lat="33.8107222" lon="-118.3948034">
  <ele>-24.41</ele>
  <time>2026-09-02T22:08:51Z</time>
  <course>113.42</course>
  <speed>0.99</speed>
  <fix>3d</fix>
</trkpt>
<trkpt lat="33.8107212" lon="-118.3948011">
  <ele>-25.014</ele>
  <time>2026-09-02T22:08:51Z</time>
  <course>203.67</course>
  <speed>1.0155294185792945</speed>
  <fix>3d</fix>
</trkpt>
<trkpt lat="33.8107222" lon="-118.3948034">
  <ele>-24.41</ele>
  <time>2026-09-02T22:08:51Z</time>
  <course>113.42</course>
  <speed>0.99</speed>
  <fix>3d</fix>
</trkpt>
<trkpt lat="33.8107208" lon="-118.3948001">
  <ele>-25.015</ele>
  <time>2026-09-02T22:08:51Z</time>
  <course>203.79</course>
  <speed>1.0155294185792945</speed>
  <fix>3d</fix>
</trkpt>
<trkpt lat="33.8107215" lon="-118.3948015">
  <ele>-24.42</ele>
  <time>2026-09-02T22:08:51Z</time>
  <course>113.64</course>
  <speed>0.99</speed>
  <fix>3d</fix>
</trkpt>
<trkpt lat="33.8107205" lon="-118.3947991">
  <ele>-25.015</ele>
  <time>2026-09-02T22:08:51Z</time>
  <course>203.91</course>
  <speed>1.0155294185792945</speed>
  <fix>3d</fix>
</trkpt>
<trkpt lat="33.8107215" lon="-118.3948015">
  <ele>-24.42</ele>
  <time>2026-09-02T22:08:51Z</time>
  <course>113.64</course>
  <speed>0.99</speed>
  <fix>3d</fix>
</trkpt>
<trkpt lat="33.8107201" lon="-118.3947981">
  <ele>-25.015</ele>
  <time>2026-09-02T22:08:51Z</time>
  <course>204.02</course>
  <speed>1.0155294185792945</speed>
  <fix>3d</fix>
</trkpt>
<trkpt lat="33.8107208" lon="-118.3947995">
  <ele>-24.42</ele>
  <time>2026-09-02T22:08:51Z</time>
  <course>113.89</course>
  <speed>0.99</speed>
  <fix>3d</fix>
</trkpt>
<trkpt lat="33.8107197" lon="-118.3947971">
  <ele>-25.015</ele>
  <time>2026-09-02T22:08:51Z</time>
  <course>204.13</course>
  <speed>1.0064790112068907</speed>
  <fix>3d</fix>
</trkpt>
<trkpt lat="33.8107208" lon="-118.3947995">
  <ele>-24.42</ele>
  <time>2026-09-02T22:08:51Z</time>
  <course>113.89</course>
  <speed>0.99</speed>
  <fix>3d</fix>
</trkpt>
<trkpt lat="33.8107194" lon="-118.3947961">
  <ele>-25.016</ele>
  <time>2026-09-02T22:08:51Z</time>
  <course>204.24</course>
  <speed>1.0107917688624102</speed>
  <fix>3d</fix>
</trkpt>
<trkpt lat="33.8107201" lon="-118.3947975">
  <ele>-24.42</ele>
  <time>2026-09-02T22:08:51Z</time>
  <course>114.16</course>
  <speed>0.99</speed>
  <fix>3d</fix>
</trkpt>
<trkpt lat="33.810719" lon="-118.3947951">
  <ele>-25.017</ele>
  <time>2026-09-02T22:08:51Z</time>
  <course>204.36</course>
  <speed>1.0107917688624102</speed>
  <fix>3d</fix>
</trkpt>
<trkpt lat="33.8107201" lon="-118.3947975">
  <ele>-24.42</ele>
  <time>2026-09-02T22:08:51Z</time>
  <course>114.16</course>
  <speed>0.99</speed>
  <fix>3d</fix>
</trkpt>
<trkpt lat="33.8107186" lon="-118.3947942">
  <ele>-25.017</ele>
  <time>2026-09-02T22:08:51Z</time>
  <course>204.47</course>
  <speed>1.0107917688624102</speed>
  <fix>3d</fix>
</trkpt>
<trkpt lat="33.8107193" lon="-118.3947956">
  <ele>-24.42</ele>
  <time>2026-09-02T22:08:51Z</time>
  <course>114.46</course>
  <speed>0.99</speed>
  <fix>3d</fix>
</trkpt>
<trkpt lat="33.8107182" lon="-118.3947932">
  <ele>-25.018</ele>
  <time>2026-09-02T22:08:51Z</time>
  <course>204.58</course>
  <speed>1.0107917688624102</speed>
  <fix>3d</fix>
</trkpt>
<trkpt lat="33.8107193" lon="-118.3947956">
  <ele>-24.42</ele>
  <time>2026-09-02T22:08:51Z</time>
  <course>114.46</course>
  <speed>0.99</speed>
  <fix>3d</fix>
</trkpt>
<trkpt lat="33.8107179" lon="-118.3947922">
  <ele>-25.019</ele>
  <time>2026-09-02T22:08:51Z</time>
  <course>204.7</course>
  <speed>1.0151847122568385</speed>
  <fix>3d</fix>
</trkpt>
<trkpt lat="33.8107186" lon="-118.3947935">
  <ele>-24.42</ele>
  <time>2026-09-02T22:08:51Z</time>
  <course>114.74</course>
  <speed>0.99</speed>
  <fix>3d</fix>
</trkpt>
<trkpt lat="33.8107175" lon="-118.3947912">
  <ele>-25.019</ele>
  <time>2026-09-02T22:08:51Z</time>
  <course>204.82</course>
  <speed>1.0151847122568385</speed>
  <fix>3d</fix>
</trkpt>
<trkpt lat="33.8107186" lon="-118.3947935">
  <ele>-24.42</ele>
  <time>2026-09-02T22:08:51Z</time>
  <course>114.74</course>
  <speed>0.99</speed>
  <fix>3d</fix>
</trkpt>
<trkpt lat="33.8107171" lon="-118.3947902">
  <ele>-25.02</ele>
  <time>2026-09-02T22:08:51Z</time>
  <course>204.93</course>
  <speed>1.0151847122568385</speed>
  <fix>3d</fix>
</trkpt>
<trkpt lat="33.8107178" lon="-118.3947916">
  <ele>-24.41</ele>
  <time>2026-09-02T22:08:51Z</time>
  <course>115.0</course>
  <speed>0.99</speed>
  <fix>3d</fix>
</trkpt>
<trkpt lat="33.8107167" lon="-118.3947893">
  <ele>-25.019</ele>
  <time>2026-09-02T22:08:51Z</time>
  <course>205.04</course>
  <speed>1.0151847122568385</speed>
  <fix>3d</fix>
</trkpt>
<trkpt lat="33.8107178" lon="-118.3947916">
  <ele>-24.41</ele>
  <time>2026-09-02T22:08:51Z</time>
  <course>115.0</course>
  <speed>0.99</speed>
  <fix>3d</fix>
</trkpt>
<trkpt lat="33.8107163" lon="-118.3947883">
  <ele>-25.018</ele>
  <time>2026-09-02T22:08:51Z</time>
  <course>205.16</course>
  <speed>1.0151847122568385</speed>
  <fix>3d</fix>
</trkpt>
<trkpt lat="33.8107171" lon="-118.3947897">
  <ele>-24.41</ele>
  <time>2026-09-02T22:08:51Z</time>
  <course>115.24</course>
  <speed>0.99</speed>
  <fix>3d</fix>
</trkpt>
<trkpt lat="33.8107159" lon="-118.3947873">
  <ele>-25.015</ele>
  <time>2026-09-02T22:08:51Z</time>
  <course>205.27</course>
  <speed>1.0196568050084303</speed>
  <fix>3d</fix>
</trkpt>
<trkpt lat="33.8107171" lon="-118.3947897">
  <ele>-24.41</ele>
  <time>2026-09-02T22:08:51Z</time>
  <course>115.24</course>
  <speed>0.99</speed>
  <fix>3d</fix>
</trkpt>
<trkpt lat="33.8107156" lon="-118.3947863">
  <ele>-25.012</ele>
  <time>2026-09-02T22:08:51Z</time>
  <course>205.39</course>
  <speed>1.0196568050084303</speed>
  <fix>3d</fix>
</trkpt>
<trkpt lat="33.8107162" lon="-118.3947877">
  <ele>-24.4</ele>
  <time>2026-09-02T22:08:51Z</time>
  <course>115.49</course>
  <speed>0.99</speed>
  <fix>3d</fix>
</trkpt>
<trkpt lat="33.8107152" lon="-118.3947854">
  <ele>-25.009</ele>
  <time>2026-09-02T22:08:51Z</time>
  <course>205.5</course>
  <speed>1.0107423014794623</speed>
  <fix>3d</fix>
</trkpt>
<trkpt lat="33.8107162" lon="-118.3947877">
  <ele>-24.4</ele>
  <time>2026-09-02T22:08:51Z</time>
  <course>115.49</course>
  <speed>0.99</speed>
  <fix>3d</fix>
</trkpt>
<trkpt lat="33.8107148" lon="-118.3947844">
  <ele>-25.007</ele>
  <time>2026-09-02T22:08:51Z</time>
  <course>205.62</course>
  <speed>1.0107423014794623</speed>
  <fix>3d</fix>
</trkpt>
<trkpt lat="33.8107155" lon="-118.3947858">
  <ele>-24.4</ele>
  <time>2026-09-02T22:08:51Z</time>
  <course>115.7</course>
  <speed>0.99</speed>
  <fix>3d</fix>
</trkpt>
<trkpt lat="33.8107144" lon="-118.3947834">
  <ele>-25.006</ele>
  <time>2026-09-02T22:08:51Z</time>
  <course>205.73</course>
  <speed>1.0107423014794623</speed>
  <fix>3d</fix>
</trkpt>
<trkpt lat="33.8107155" lon="-118.3947858">
  <ele>-24.4</ele>
  <time>2026-09-02T22:08:51Z</time>
  <course>115.7</course>
  <speed>0.99</speed>
  <fix>3d</fix>
</trkpt>
<trkpt lat="33.810714" lon="-118.3947824">
  <ele>-25.007</ele>
  <time>2026-09-02T22:08:51Z</time>
  <course>205.85</course>
  <speed>1.0107423014794623</speed>
  <fix>3d</fix>
</trkpt>
<trkpt lat="33.8107148" lon="-118.3947838">
  <ele>-24.4</ele>
  <time>2026-09-02T22:08:51Z</time>
  <course>115.86</course>
  <speed>0.99</speed>
  <fix>3d</fix>
</trkpt>
<trkpt lat="33.8107136" lon="-118.3947815">
  <ele>-25.009</ele>
  <time>2026-09-02T22:08:51Z</time>
  <course>205.96</course>
  <speed>1.015332457867865</speed>
  <fix>3d</fix>
</trkpt>
<trkpt lat="33.8107148" lon="-118.3947838">
  <ele>-24.4</ele>
  <time>2026-09-02T22:08:51Z</time>
  <course>115.86</course>
  <speed>0.99</speed>
  <fix>3d</fix>
</trkpt>
<trkpt lat="33.8107132" lon="-118.3947805">
  <ele>-25.011</ele>
  <time>2026-09-02T22:08:51Z</time>
  <course>206.08</course>
  <speed>1.015332457867865</speed>
  <fix>3d</fix>
</trkpt>
<trkpt lat="33.810714" lon="-118.3947819">
  <ele>-24.4</ele>
  <time>2026-09-02T22:08:51Z</time>
  <course>116.08</course>
  <speed>0.99</speed>
  <fix>3d</fix>
</trkpt>
<trkpt lat="33.8107128" lon="-118.3947795">
  <ele>-25.012</ele>
  <time>2026-09-02T22:08:51Z</time>
  <course>206.19</course>
  <speed>1.015332457867865</speed>
  <fix>3d</fix>
</trkpt>
<trkpt lat="33.810714" lon="-118.3947819">
  <ele>-24.4</ele>
  <time>2026-09-02T22:08:51Z</time>
  <course>116.08</course>
  <speed>0.99</speed>
  <fix>3d</fix>
</trkpt>
<trkpt lat="33.8107124" lon="-118.3947786">
  <ele>-25.013</ele>
  <time>2026-09-02T22:08:51Z</time>
  <course>206.3</course>
  <speed>1.015332457867865</speed>
  <fix>3d</fix>
</trkpt>
<trkpt lat="33.8107131" lon="-118.3947799">
  <ele>-24.4</ele>
  <time>2026-09-02T22:08:51Z</time>
  <course>116.38</course>
  <speed>0.99</speed>
  <fix>3d</fix>
</trkpt>
<trkpt lat="33.810712" lon="-118.3947776">
  <ele>-25.015</ele>
  <time>2026-09-02T22:08:51Z</time>
  <course>206.42</course>
  <speed>1.015332457867865</speed>
  <fix>3d</fix>
</trkpt>
<trkpt lat="33.8107131" lon="-118.3947799">
  <ele>-24.4</ele>
  <time>2026-09-02T22:08:51Z</time>
  <course>116.38</course>
  <speed>0.99</speed>
  <fix>3d</fix>
</trkpt>
<trkpt lat="33.8107116" lon="-118.3947766">
  <ele>-25.016</ele>
  <time>2026-09-02T22:08:51Z</time>
  <course>206.53</course>
  <speed>1.015332457867865</speed>
  <fix>3d</fix>
</trkpt>
<trkpt lat="33.8107124" lon="-118.394778">
  <ele>-24.41</ele>
  <time>2026-09-02T22:08:51Z</time>
  <course>116.64</course>
  <speed>0.99</speed>
  <fix>3d</fix>
</trkpt>
<trkpt lat="33.8107112" lon="-118.3947757">
  <ele>-25.016</ele>
  <time>2026-09-02T22:08:51Z</time>
  <course>206.65</course>
  <speed>1.02</speed>
  <fix>3d</fix>
</trkpt>
<trkpt lat="33.8107124" lon="-118.394778">
  <ele>-24.41</ele>
  <time>2026-09-02T22:08:51Z</time>
  <course>116.64</course>
  <speed>0.99</speed>
  <fix>3d</fix>
</trkpt>
<trkpt lat="33.8107108" lon="-118.3947747">
  <ele>-25.017</ele>
  <time>2026-09-02T22:08:51Z</time>
  <course>206.76</course>
  <speed>1.0111874208078342</speed>
  <fix>3d</fix>
</trkpt>
<trkpt lat="33.8107116" lon="-118.3947761">
  <ele>-24.41</ele>
  <time>2026-09-02T22:08:51Z</time>
  <course>116.88</course>
  <speed>0.99</speed>
  <fix>3d</fix>
</trkpt>
<trkpt lat="33.8107104" lon="-118.3947737">
  <ele>-25.017</ele>
  <time>2026-09-02T22:08:51Z</time>
  <course>206.88</course>
  <speed>1.0111874208078342</speed>
  <fix>3d</fix>
</trkpt>
<trkpt lat="33.8107116" lon="-118.3947761">
  <ele>-24.41</ele>
  <time>2026-09-02T22:08:51Z</time>
  <course>116.88</course>
  <speed>0.99</speed>
  <fix>3d</fix>
</trkpt>
<trkpt lat="33.81071" lon="-118.3947728">
  <ele>-25.017</ele>
  <time>2026-09-02T22:08:51Z</time>
  <course>206.99</course>
  <speed>1.0111874208078342</speed>
  <fix>3d</fix>
</trkpt>
<trkpt lat="33.8107107" lon="-118.3947742">
  <ele>-24.4</ele>
  <time>2026-09-02T22:08:51Z</time>
  <course>117.14</course>
  <speed>0.99</speed>
  <fix>3d</fix>
</trkpt>
<trkpt lat="33.8107095" lon="-118.3947718">
  <ele>-25.014</ele>
  <time>2026-09-02T22:08:51Z</time>
  <course>207.1</course>
  <speed>1.0111874208078342</speed>
  <fix>3d</fix>
</trkpt>
<trkpt lat="33.8107107" lon="-118.3947742">
  <ele>-24.4</ele>
  <time>2026-09-02T22:08:51Z</time>
  <course>117.14</course>
  <speed>0.99</speed>
  <fix>3d</fix>
</trkpt>
<trkpt lat="33.8107091" lon="-118.3947708">
  <ele>-25.012</ele>
  <time>2026-09-02T22:08:51Z</time>
  <course>207.22</course>
  <speed>1.0159724405711013</speed>
  <fix>3d</fix>
</trkpt>
<trkpt lat="33.8107099" lon="-118.3947722">
  <ele>-24.4</ele>
  <time>2026-09-02T22:08:51Z</time>
  <course>117.37</course>
  <speed>0.99</speed>
  <fix>3d</fix>
</trkpt>
<trkpt lat="33.8107087" lon="-118.3947699">
  <ele>-25.009</ele>
  <time>2026-09-02T22:08:51Z</time>
  <course>207.33</course>
  <speed>1.0159724405711013</speed>
  <fix>3d</fix>
</trkpt>
<trkpt lat="33.8107099" lon="-118.3947722">
  <ele>-24.4</ele>
  <time>2026-09-02T22:08:51Z</time>
  <course>117.37</course>
  <speed>0.99</speed>
  <fix>3d</fix>
</trkpt>
<trkpt lat="33.8107083" lon="-118.3947689">
  <ele>-25.008</ele>
  <time>2026-09-02T22:08:51Z</time>
  <course>207.45</course>
  <speed>1.0159724405711013</speed>
  <fix>3d</fix>
</trkpt>
<trkpt lat="33.810709" lon="-118.3947703">
  <ele>-24.4</ele>
  <time>2026-09-02T22:08:51Z</time>
  <course>117.56</course>
  <speed>1.0</speed>
  <fix>3d</fix>
</trkpt>
<trkpt lat="33.8107079" lon="-118.394768">
  <ele>-25.007</ele>
  <time>2026-09-02T22:08:51Z</time>
  <course>207.57</course>
  <speed>1.0159724405711013</speed>
  <fix>3d</fix>
</trkpt>
<trkpt lat="33.810709" lon="-118.3947703">
  <ele>-24.4</ele>
  <time>2026-09-02T22:08:51Z</time>
  <course>117.56</course>
  <speed>1.0</speed>
  <fix>3d</fix>
</trkpt>
<trkpt lat="33.8107075" lon="-118.394767">
  <ele>-25.007</ele>
  <time>2026-09-02T22:08:51Z</time>
  <course>207.68</course>
  <speed>1.0159724405711013</speed>
  <fix>3d</fix>
</trkpt>
<trkpt lat="33.8107083" lon="-118.3947684">
  <ele>-24.4</ele>
  <time>2026-09-02T22:08:51Z</time>
  <course>117.72</course>
  <speed>0.99</speed>
  <fix>3d</fix>
</trkpt>
<trkpt lat="33.810707" lon="-118.3947661">
  <ele>-25.008</ele>
  <time>2026-09-02T22:08:51Z</time>
  <course>207.8</course>
  <speed>1.0159724405711013</speed>
  <fix>3d</fix>
</trkpt>
<trkpt lat="33.8107083" lon="-118.3947684">
  <ele>-24.4</ele>
  <time>2026-09-02T22:08:51Z</time>
  <course>117.72</course>
  <speed>0.99</speed>
  <fix>3d</fix>
</trkpt>
<trkpt lat="33.8107066" lon="-118.3947651">
  <ele>-25.009</ele>
  <time>2026-09-02T22:08:51Z</time>
  <course>207.91</course>
  <speed>1.0159724405711013</speed>
  <fix>3d</fix>
</trkpt>
<trkpt lat="33.8107074" lon="-118.3947665">
  <ele>-24.4</ele>
  <time>2026-09-02T22:08:51Z</time>
  <course>117.91</course>
  <speed>0.99</speed>
  <fix>3d</fix>
</trkpt>
<trkpt lat="33.8107062" lon="-118.3947641">
  <ele>-25.01</ele>
  <time>2026-09-02T22:08:51Z</time>
  <course>208.02</course>
  <speed>1.0208329931972222</speed>
  <fix>3d</fix>
</trkpt>
<trkpt lat="33.8107074" lon="-118.3947665">
  <ele>-24.4</ele>
  <time>2026-09-02T22:08:51Z</time>
  <course>117.91</course>
  <speed>0.99</speed>
  <fix>3d</fix>
</trkpt>
<trkpt lat="33.8107058" lon="-118.3947632">
  <ele>-25.011</ele>
  <time>2026-09-02T22:08:51Z</time>
  <course>208.14</course>
  <speed>1.0121264743103995</speed>
  <fix>3d</fix>
</trkpt>
<trkpt lat="33.8107066" lon="-118.3947646">
  <ele>-24.4</ele>
  <time>2026-09-02T22:08:51Z</time>
  <course>118.13</course>
  <speed>0.99</speed>
  <fix>3d</fix>
</trkpt>
<trkpt lat="33.8107053" lon="-118.3947622">
  <ele>-25.013</ele>
  <time>2026-09-02T22:08:51Z</time>
  <course>208.25</course>
  <speed>1.0121264743103995</speed>
  <fix>3d</fix>
</trkpt>
<trkpt lat="33.8107066" lon="-118.3947646">
  <ele>-24.4</ele>
  <time>2026-09-02T22:08:51Z</time>
  <course>118.13</course>
  <speed>0.99</speed>
  <fix>3d</fix>
</trkpt>
<trkpt lat="33.8107049" lon="-118.3947613">
  <ele>-25.015</ele>
  <time>2026-09-02T22:08:51Z</time>
  <course>208.37</course>
  <speed>1.0121264743103995</speed>
  <fix>3d</fix>
</trkpt>
<trkpt lat="33.8107057" lon="-118.3947627">
  <ele>-24.41</ele>
  <time>2026-09-02T22:08:51Z</time>
  <course>118.37</course>
  <speed>0.99</speed>
  <fix>3d</fix>
</trkpt>
<trkpt lat="33.8107045" lon="-118.3947603">
  <ele>-25.017</ele>
  <time>2026-09-02T22:08:51Z</time>
  <course>208.48</course>
  <speed>1.0121264743103995</speed>
  <fix>3d</fix>
</trkpt>
<trkpt lat="33.8107057" lon="-118.3947627">
  <ele>-24.41</ele>
  <time>2026-09-02T22:08:51Z</time>
  <course>118.37</course>
  <speed>0.99</speed>
  <fix>3d</fix>
</trkpt>
<trkpt lat="33.810704" lon="-118.3947594">
  <ele>-25.017</ele>
  <time>2026-09-02T22:08:51Z</time>
  <course>208.6</course>
  <speed>1.0171037311896953</speed>
  <fix>3d</fix>
</trkpt>
<trkpt lat="33.8107049" lon="-118.3947608">
  <ele>-24.41</ele>
  <time>2026-09-02T22:08:51Z</time>
  <course>118.6</course>
  <speed>1.0</speed>
  <fix>3d</fix>
</trkpt>
<trkpt lat="33.8107036" lon="-118.3947584">
  <ele>-25.017</ele>
  <time>2026-09-02T22:08:51Z</time>
  <course>208.71</course>
  <speed>1.0171037311896953</speed>
  <fix>3d</fix>
</trkpt>
<trkpt lat="33.8107049" lon="-118.3947608">
  <ele>-24.41</ele>
  <time>2026-09-02T22:08:51Z</time>
  <course>118.6</course>
  <speed>1.0</speed>
  <fix>3d</fix>
</trkpt>
<trkpt lat="33.8107032" lon="-118.3947575">
  <ele>-25.017</ele>
  <time>2026-09-02T22:08:51Z</time>
  <course>208.82</course>
  <speed>1.0171037311896953</speed>
  <fix>3d</fix>
</trkpt>
<trkpt lat="33.810704" lon="-118.3947589">
  <ele>-24.41</ele>
  <time>2026-09-02T22:08:51Z</time>
  <course>118.84</course>
  <speed>1.0</speed>
  <fix>3d</fix>
</trkpt>
<trkpt lat="33.8107027" lon="-118.3947566">
  <ele>-25.017</ele>
  <time>2026-09-02T22:08:51Z</time>
  <course>208.94</course>
  <speed>1.0171037311896953</speed>
  <fix>3d</fix>
</trkpt>
<trkpt lat="33.810704" lon="-118.3947589">
  <ele>-24.41</ele>
  <time>2026-09-02T22:08:51Z</time>
  <course>118.84</course>
  <speed>1.0</speed>
  <fix>3d</fix>
</trkpt>
<trkpt lat="33.8107023" lon="-118.3947556">
  <ele>-25.017</ele>
  <time>2026-09-02T22:08:51Z</time>
  <course>209.06</course>
  <speed>1.0171037311896953</speed>
  <fix>3d</fix>
</trkpt>
<trkpt lat="33.8107031" lon="-118.394757">
  <ele>-24.41</ele>
  <time>2026-09-02T22:08:51Z</time>
  <course>119.1</course>
  <speed>1.0</speed>
  <fix>3d</fix>
</trkpt>
<trkpt lat="33.8107019" lon="-118.3947547">
  <ele>-25.017</ele>
  <time>2026-09-02T22:08:51Z</time>
  <course>209.17</course>
  <speed>1.022154587134451</speed>
  <fix>3d</fix>
</trkpt>
<trkpt lat="33.8107031" lon="-118.394757">
  <ele>-24.41</ele>
  <time>2026-09-02T22:08:51Z</time>
  <course>119.1</course>
  <speed>1.0</speed>
  <fix>3d</fix>
</trkpt>
<trkpt lat="33.8107014" lon="-118.3947537">
  <ele>-25.016</ele>
  <time>2026-09-02T22:08:51Z</time>
  <course>209.29</course>
  <speed>1.022154587134451</speed>
  <fix>3d</fix>
</trkpt>
<trkpt lat="33.8107022" lon="-118.3947551">
  <ele>-24.4</ele>
  <time>2026-09-02T22:08:51Z</time>
  <course>119.31</course>
  <speed>1.0</speed>
  <fix>3d</fix>
</trkpt>
<trkpt lat="33.810701" lon="-118.3947528">
  <ele>-25.015</ele>
  <time>2026-09-02T22:08:51Z</time>
  <course>209.4</course>
  <speed>1.022154587134451</speed>
  <fix>3d</fix>
</trkpt>
<trkpt lat="33.8107022" lon="-118.3947551">
  <ele>-24.4</ele>
  <time>2026-09-02T22:08:51Z</time>
  <course>119.31</course>
  <speed>1.0</speed>
  <fix>3d</fix>
</trkpt>
<trkpt lat="33.8107005" lon="-118.3947518">
  <ele>-25.013</ele>
  <time>2026-09-02T22:08:51Z</time>
  <course>209.51</course>
  <speed>1.0135580891098448</speed>
  <fix>3d</fix>
</trkpt>
<trkpt lat="33.8107013" lon="-118.3947532">
  <ele>-24.4</ele>
  <time>2026-09-02T22:08:51Z</time>
  <course>119.5</course>
  <speed>1.0</speed>
  <fix>3d</fix>
</trkpt>
<trkpt lat="33.8107001" lon="-118.3947509">
  <ele>-25.012</ele>
  <time>2026-09-02T22:08:51Z</time>
  <course>209.63</course>
  <speed>1.0135580891098448</speed>
  <fix>3d</fix>
</trkpt>
<trkpt lat="33.8107013" lon="-118.3947532">
  <ele>-24.4</ele>
  <time>2026-09-02T22:08:51Z</time>
  <course>119.5</course>
  <speed>1.0</speed>
  <fix>3d</fix>
</trkpt>
<trkpt lat="33.8106996" lon="-118.39475">
  <ele>-25.012</ele>
  <time>2026-09-02T22:08:51Z</time>
  <course>209.74</course>
  <speed>1.0135580891098448</speed>
  <fix>3d</fix>
</trkpt>
<trkpt lat="33.8107004" lon="-118.3947513">
  <ele>-24.4</ele>
  <time>2026-09-02T22:08:51Z</time>
  <course>119.67</course>
  <speed>1.0</speed>
  <fix>3d</fix>
</trkpt>
<trkpt lat="33.8106992" lon="-118.394749">
  <ele>-25.013</ele>
  <time>2026-09-02T22:08:51Z</time>
  <course>209.86</course>
  <speed>1.0135580891098448</speed>
  <fix>3d</fix>
</trkpt>
<trkpt lat="33.8107004" lon="-118.3947513">
  <ele>-24.4</ele>
  <time>2026-09-02T22:08:51Z</time>
  <course>119.67</course>
  <speed>1.0</speed>
  <fix>3d</fix>
</trkpt>
<trkpt lat="33.8106987" lon="-118.3947481">
  <ele>-25.014</ele>
  <time>2026-09-02T22:08:51Z</time>
  <course>209.97</course>
  <speed>1.0135580891098448</speed>
  <fix>3d</fix>
</trkpt>
<trkpt lat="33.8106996" lon="-118.3947494">
  <ele>-24.4</ele>
  <time>2026-09-02T22:08:51Z</time>
  <course>119.82</course>
  <speed>1.0</speed>
  <fix>3d</fix>
</trkpt>
<trkpt lat="33.8106983" lon="-118.3947472">
  <ele>-25.015</ele>
  <time>2026-09-02T22:08:51Z</time>
  <course>210.09</course>
  <speed>1.0187246929372038</speed>
  <fix>3d</fix>
</trkpt>
<trkpt lat="33.8106996" lon="-118.3947494">
  <ele>-24.4</ele>
  <time>2026-09-02T22:08:51Z</time>
  <course>119.82</course>
  <speed>1.0</speed>
  <fix>3d</fix>
</trkpt>
<trkpt lat="33.8106978" lon="-118.3947462">
  <ele>-25.016</ele>
  <time>2026-09-02T22:08:51Z</time>
  <course>210.2</course>
  <speed>1.0187246929372038</speed>
  <fix>3d</fix>
</trkpt>
<trkpt lat="33.8106987" lon="-118.3947476">
  <ele>-24.4</ele>
  <time>2026-09-02T22:08:51Z</time>
  <course>120.04</course>
  <speed>1.0</speed>
  <fix>3d</fix>
</trkpt>
<trkpt lat="33.8106974" lon="-118.3947453">
  <ele>-25.015</ele>
  <time>2026-09-02T22:08:51Z</time>
  <course>210.31</course>
  <speed>1.010198000393982</speed>
  <fix>3d</fix>
</trkpt>
<trkpt lat="33.8106987" lon="-118.3947476">
  <ele>-24.4</ele>
  <time>2026-09-02T22:08:51Z</time>
  <course>120.04</course>
  <speed>1.0</speed>
  <fix>3d</fix>
</trkpt>
<trkpt lat="33.8106969" lon="-118.3947444">
  <ele>-25.013</ele>
  <time>2026-09-02T22:08:51Z</time>
  <course>210.43</course>
  <speed>1.010198000393982</speed>
  <fix>3d</fix>
</trkpt>
<trkpt lat="33.8106978" lon="-118.3947457">
  <ele>-24.4</ele>
  <time>2026-09-02T22:08:51Z</time>
  <course>120.33</course>
  <speed>1.0</speed>
  <fix>3d</fix>
</trkpt>
<trkpt lat="33.8106965" lon="-118.3947434">
  <ele>-25.011</ele>
  <time>2026-09-02T22:08:51Z</time>
  <course>210.54</course>
  <speed>1.0154801819828883</speed>
  <fix>3d</fix>
</trkpt>
<trkpt lat="33.8106978" lon="-118.3947457">
  <ele>-24.4</ele>
  <time>2026-09-02T22:08:51Z</time>
  <course>120.33</course>
  <speed>1.0</speed>
  <fix>3d</fix>
</trkpt>
<trkpt lat="33.810696" lon="-118.3947425">
  <ele>-25.009</ele>
  <time>2026-09-02T22:08:51Z</time>
  <course>210.66</course>
  <speed>1.0154801819828883</speed>
  <fix>3d</fix>
</trkpt>
<trkpt lat="33.8106968" lon="-118.3947438">
  <ele>-24.39</ele>
  <time>2026-09-02T22:08:51Z</time>
  <course>120.63</course>
  <speed>1.0</speed>
  <fix>3d</fix>
</trkpt>
<trkpt lat="33.8106955" lon="-118.3947416">
  <ele>-25.007</ele>
  <time>2026-09-02T22:08:51Z</time>
  <course>210.77</course>
  <speed>1.0154801819828883</speed>
  <fix>3d</fix>
</trkpt>
<trkpt lat="33.8106968" lon="-118.3947438">
  <ele>-24.39</ele>
  <time>2026-09-02T22:08:51Z</time>
  <course>120.63</course>
  <speed>1.0</speed>
  <fix>3d</fix>
</trkpt>
<trkpt lat="33.8106951" lon="-118.3947406">
  <ele>-25.005</ele>
  <time>2026-09-02T22:08:51Z</time>
  <course>210.89</course>
  <speed>1.0154801819828883</speed>
  <fix>3d</fix>
</trkpt>
<trkpt lat="33.8106959" lon="-118.394742">
  <ele>-24.39</ele>
  <time>2026-09-02T22:08:51Z</time>
  <course>120.9</course>
  <speed>1.0</speed>
  <fix>3d</fix>
</trkpt>
<trkpt lat="33.8106946" lon="-118.3947397">
  <ele>-25.003</ele>
  <time>2026-09-02T22:08:51Z</time>
  <course>211.0</course>
  <speed>1.0154801819828883</speed>
  <fix>3d</fix>
</trkpt>
<trkpt lat="33.8106959" lon="-118.394742">
  <ele>-24.39</ele>
  <time>2026-09-02T22:08:51Z</time>
  <course>120.9</course>
  <speed>1.0</speed>
  <fix>3d</fix>
</trkpt>
<trkpt lat="33.8106941" lon="-118.3947388">
  <ele>-25.003</ele>
  <time>2026-09-02T22:08:51Z</time>
  <course>211.12</course>
  <speed>1.0154801819828883</speed>
  <fix>3d</fix>
</trkpt>
<trkpt lat="33.810695" lon="-118.3947401">
  <ele>-24.39</ele>
  <time>2026-09-02T22:08:51Z</time>
  <course>121.1</course>
  <speed>1.0</speed>
  <fix>3d</fix>
</trkpt>
<trkpt lat="33.8106937" lon="-118.3947379">
  <ele>-25.006</ele>
  <time>2026-09-02T22:08:51Z</time>
  <course>211.24</course>
  <speed>1.0208329931972222</speed>
  <fix>3d</fix>
</trkpt>
<trkpt lat="33.810695" lon="-118.3947401">
  <ele>-24.39</ele>
  <time>2026-09-02T22:08:51Z</time>
  <course>121.1</course>
  <speed>1.0</speed>
  <fix>3d</fix>
</trkpt>
<trkpt lat="33.8106932" lon="-118.3947369">
  <ele>-25.009</ele>
  <time>2026-09-02T22:08:51Z</time>
  <course>211.35</course>
  <speed>1.0124228365658294</speed>
  <fix>3d</fix>
</trkpt>
<trkpt lat="33.8106941" lon="-118.3947383">
  <ele>-24.4</ele>
  <time>2026-09-02T22:08:51Z</time>
  <course>121.29</course>
  <speed>1.0</speed>
  <fix>3d</fix>
</trkpt>
<trkpt lat="33.8106927" lon="-118.394736">
  <ele>-25.012</ele>
  <time>2026-09-02T22:08:51Z</time>
  <course>211.46</course>
  <speed>1.0124228365658294</speed>
  <fix>3d</fix>
</trkpt>
<trkpt lat="33.8106941" lon="-118.3947383">
  <ele>-24.4</ele>
  <time>2026-09-02T22:08:51Z</time>
  <course>121.29</course>
  <speed>1.0</speed>
  <fix>3d</fix>
</trkpt>
<trkpt lat="33.8106923" lon="-118.3947351">
  <ele>-25.014</ele>
  <time>2026-09-02T22:08:51Z</time>
  <course>211.57</course>
  <speed>1.0124228365658294</speed>
  <fix>3d</fix>
</trkpt>
<trkpt lat="33.8106932" lon="-118.3947364">
  <ele>-24.4</ele>
  <time>2026-09-02T22:08:51Z</time>
  <course>121.51</course>
  <speed>1.0</speed>
  <fix>3d</fix>
</trkpt>
<trkpt lat="33.8106918" lon="-118.3947342">
  <ele>-25.016</ele>
  <time>2026-09-02T22:08:51Z</time>
  <course>211.69</course>
  <speed>1.0124228365658294</speed>
  <fix>3d</fix>
</trkpt>
<trkpt lat="33.8106932" lon="-118.3947364">
  <ele>-24.4</ele>
  <time>2026-09-02T22:08:51Z</time>
  <course>121.51</course>
  <speed>1.0</speed>
  <fix>3d</fix>
</trkpt>
<trkpt lat="33.8106913" lon="-118.3947333">
  <ele>-25.018</ele>
  <time>2026-09-02T22:08:51Z</time>
  <course>211.81</course>
  <speed>1.0178899744078433</speed>
  <fix>3d</fix>
</trkpt>
<trkpt lat="33.8106922" lon="-118.3947346">
  <ele>-24.41</ele>
  <time>2026-09-02T22:08:51Z</time>
  <course>121.79</course>
  <speed>1.0</speed>
  <fix>3d</fix>
</trkpt>
<trkpt lat="33.8106908" lon="-118.3947323">
  <ele>-25.018</ele>
  <time>2026-09-02T22:08:51Z</time>
  <course>211.92</course>
  <speed>1.0178899744078433</speed>
  <fix>3d</fix>
</trkpt>
<trkpt lat="33.8106922" lon="-118.3947346">
  <ele>-24.41</ele>
  <time>2026-09-02T22:08:51Z</time>
  <course>121.79</course>
  <speed>1.0</speed>
  <fix>3d</fix>
</trkpt>
<trkpt lat="33.8106904" lon="-118.3947314">
  <ele>-25.016</ele>
  <time>2026-09-02T22:08:51Z</time>
  <course>212.04</course>
  <speed>1.0178899744078433</speed>
  <fix>3d</fix>
</trkpt>
<trkpt lat="33.8106913" lon="-118.3947327">
  <ele>-24.41</ele>
  <time>2026-09-02T22:08:51Z</time>
  <course>122.09</course>
  <speed>1.0</speed>
  <fix>3d</fix>
</trkpt>
<trkpt lat="33.8106899" lon="-118.3947305">
  <ele>-25.014</ele>
  <time>2026-09-02T22:08:51Z</time>
  <course>212.15</course>
  <speed>1.0178899744078433</speed>
  <fix>3d</fix>
</trkpt>
<trkpt lat="33.8106913" lon="-118.3947327">
  <ele>-24.41</ele>
  <time>2026-09-02T22:08:51Z</time>
  <course>122.09</course>
  <speed>1.0</speed>
  <fix>3d</fix>
</trkpt>
<trkpt lat="33.8106894" lon="-118.3947296">
  <ele>-25.013</ele>
  <time>2026-09-02T22:08:51Z</time>
  <course>212.26</course>
  <speed>1.009554357129917</speed>
  <fix>3d</fix>
</trkpt>
<trkpt lat="33.8106903" lon="-118.3947309">
  <ele>-24.41</ele>
  <time>2026-09-02T22:08:51Z</time>
  <course>122.37</course>
  <speed>1.0</speed>
  <fix>3d</fix>
</trkpt>
<trkpt lat="33.8106889" lon="-118.3947287">
  <ele>-25.012</ele>
  <time>2026-09-02T22:08:51Z</time>
  <course>212.37</course>
  <speed>1.0151354589413177</speed>
  <fix>3d</fix>
</trkpt>
<trkpt lat="33.8106903" lon="-118.3947309">
  <ele>-24.41</ele>
  <time>2026-09-02T22:08:51Z</time>
  <course>122.37</course>
  <speed>1.0</speed>
  <fix>3d</fix>
</trkpt>
<trkpt lat="33.8106884" lon="-118.3947278">
  <ele>-25.012</ele>
  <time>2026-09-02T22:08:51Z</time>
  <course>212.49</course>
  <speed>1.0151354589413177</speed>
  <fix>3d</fix>
</trkpt>
<trkpt lat="33.8106893" lon="-118.3947291">
  <ele>-24.41</ele>
  <time>2026-09-02T22:08:51Z</time>
  <course>122.64</course>
  <speed>1.0</speed>
  <fix>3d</fix>
</trkpt>
<trkpt lat="33.8106879" lon="-118.3947269">
  <ele>-25.012</ele>
  <time>2026-09-02T22:08:51Z</time>
  <course>212.6</course>
  <speed>1.0151354589413177</speed>
  <fix>3d</fix>
</trkpt>
<trkpt lat="33.8106893" lon="-118.3947291">
  <ele>-24.41</ele>
  <time>2026-09-02T22:08:51Z</time>
  <course>122.64</course>
  <speed>1.0</speed>
  <fix>3d</fix>
</trkpt>
<trkpt lat="33.8106875" lon="-118.394726">
  <ele>-25.012</ele>
  <time>2026-09-02T22:08:51Z</time>
  <course>212.73</course>
  <speed>1.0151354589413177</speed>
  <fix>3d</fix>
</trkpt>
<trkpt lat="33.8106883" lon="-118.3947273">
  <ele>-24.41</ele>
  <time>2026-09-02T22:08:51Z</time>
  <course>122.84</course>
  <speed>1.0</speed>
  <fix>3d</fix>
</trkpt>
<trkpt lat="33.810687" lon="-118.3947251">
  <ele>-25.012</ele>
  <time>2026-09-02T22:08:51Z</time>
  <course>212.84</course>
  <speed>1.0151354589413177</speed>
  <fix>3d</fix>
</trkpt>
<trkpt lat="33.8106883" lon="-118.3947273">
  <ele>-24.41</ele>
  <time>2026-09-02T22:08:51Z</time>
  <course>122.84</course>
  <speed>1.0</speed>
  <fix>3d</fix>
</trkpt>
<trkpt lat="33.8106865" lon="-118.3947241">
  <ele>-25.013</ele>
  <time>2026-09-02T22:08:51Z</time>
  <course>212.95</course>
  <speed>1.0151354589413177</speed>
  <fix>3d</fix>
</trkpt>
<trkpt lat="33.8106874" lon="-118.3947255">
  <ele>-24.41</ele>
  <time>2026-09-02T22:08:51Z</time>
  <course>122.99</course>
  <speed>1.0</speed>
  <fix>3d</fix>
</trkpt>
<trkpt lat="33.810686" lon="-118.3947232">
  <ele>-25.013</ele>
  <time>2026-09-02T22:08:51Z</time>
  <course>213.07</course>
  <speed>1.0151354589413177</speed>
  <fix>3d</fix>
</trkpt>
<trkpt lat="33.8106874" lon="-118.3947255">
  <ele>-24.41</ele>
  <time>2026-09-02T22:08:51Z</time>
  <course>122.99</course>
  <speed>1.0</speed>
  <fix>3d</fix>
</trkpt>
<trkpt lat="33.8106855" lon="-118.3947223">
  <ele>-25.013</ele>
  <time>2026-09-02T22:08:51Z</time>
  <course>213.18</course>
  <speed>1.0151354589413177</speed>
  <fix>3d</fix>
</trkpt>
<trkpt lat="33.8106863" lon="-118.3947236">
  <ele>-24.41</ele>
  <time>2026-09-02T22:08:51Z</time>
  <course>123.14</course>
  <speed>1.0</speed>
  <fix>3d</fix>
</trkpt>
<trkpt lat="33.810685" lon="-118.3947214">
  <ele>-25.013</ele>
  <time>2026-09-02T22:08:51Z</time>
  <course>213.3</course>
  <speed>1.0207840124139878</speed>
  <fix>3d</fix>
</trkpt>
<trkpt lat="33.8106863" lon="-118.3947236">
  <ele>-24.41</ele>
  <time>2026-09-02T22:08:51Z</time>
  <course>123.14</course>
  <speed>1.0</speed>
  <fix>3d</fix>
</trkpt>
<trkpt lat="33.8106845" lon="-118.3947205">
  <ele>-25.013</ele>
  <time>2026-09-02T22:08:51Z</time>
  <course>213.41</course>
  <speed>1.0125709851659783</speed>
  <fix>3d</fix>
</trkpt>
<trkpt lat="33.8106853" lon="-118.3947219">
  <ele>-24.42</ele>
  <time>2026-09-02T22:08:51Z</time>
  <course>123.31</course>
  <speed>1.0</speed>
  <fix>3d</fix>
</trkpt>
<trkpt lat="33.810684" lon="-118.3947196">
  <ele>-25.015</ele>
  <time>2026-09-02T22:08:51Z</time>
  <course>213.53</course>
  <speed>1.0125709851659783</speed>
  <fix>3d</fix>
</trkpt>
<trkpt lat="33.8106853" lon="-118.3947219">
  <ele>-24.42</ele>
  <time>2026-09-02T22:08:51Z</time>
  <course>123.31</course>
  <speed>1.0</speed>
  <fix>3d</fix>
</trkpt>
<trkpt lat="33.8106835" lon="-118.3947187">
  <ele>-25.017</ele>
  <time>2026-09-02T22:08:51Z</time>
  <course>213.64</course>
  <speed>1.0125709851659783</speed>
  <fix>3d</fix>
</trkpt>
<trkpt lat="33.8106844" lon="-118.3947201">
  <ele>-24.42</ele>
  <time>2026-09-02T22:08:51Z</time>
  <course>123.44</course>
  <speed>1.0</speed>
  <fix>3d</fix>
</trkpt>
<trkpt lat="33.810683" lon="-118.3947178">
  <ele>-25.019</ele>
  <time>2026-09-02T22:08:51Z</time>
  <course>213.76</course>
  <speed>1.0125709851659783</speed>
  <fix>3d</fix>
</trkpt>
<trkpt lat="33.8106844" lon="-118.3947201">
  <ele>-24.42</ele>
  <time>2026-09-02T22:08:51Z</time>
  <course>123.44</course>
  <speed>1.0</speed>
  <fix>3d</fix>
</trkpt>
<trkpt lat="33.8106825" lon="-118.394717">
  <ele>-25.02</ele>
  <time>2026-09-02T22:08:51Z</time>
  <course>213.87</course>
  <speed>1.0125709851659783</speed>
  <fix>3d</fix>
</trkpt>
<trkpt lat="33.8106834" lon="-118.3947182">
  <ele>-24.42</ele>
  <time>2026-09-02T22:08:51Z</time>
  <course>123.56</course>
  <speed>1.0</speed>
  <fix>3d</fix>
</trkpt>
<trkpt lat="33.810682" lon="-118.3947161">
  <ele>-25.02</ele>
  <time>2026-09-02T22:08:51Z</time>
  <course>213.98</course>
  <speed>1.0183319694480775</speed>
  <fix>3d</fix>
</trkpt>
<trkpt lat="33.8106834" lon="-118.3947182">
  <ele>-24.42</ele>
  <time>2026-09-02T22:08:51Z</time>
  <course>123.56</course>
  <speed>1.0</speed>
  <fix>3d</fix>
</trkpt>
<trkpt lat="33.8106815" lon="-118.3947152">
  <ele>-25.019</ele>
  <time>2026-09-02T22:08:51Z</time>
  <course>214.1</course>
  <speed>1.0183319694480775</speed>
  <fix>3d</fix>
</trkpt>
<trkpt lat="33.8106825" lon="-118.3947164">
  <ele>-24.42</ele>
  <time>2026-09-02T22:08:51Z</time>
  <course>123.77</course>
  <speed>1.0</speed>
  <fix>3d</fix>
</trkpt>
<trkpt lat="33.810681" lon="-118.3947143">
  <ele>-25.018</ele>
  <time>2026-09-02T22:08:51Z</time>
  <course>214.21</course>
  <speed>1.0183319694480775</speed>
  <fix>3d</fix>
</trkpt>
<trkpt lat="33.8106825" lon="-118.3947164">
  <ele>-24.42</ele>
  <time>2026-09-02T22:08:51Z</time>
  <course>123.77</course>
  <speed>1.0</speed>
  <fix>3d</fix>
</trkpt>
<trkpt lat="33.8106805" lon="-118.3947134">
  <ele>-25.017</ele>
  <time>2026-09-02T22:08:51Z</time>
  <course>214.33</course>
  <speed>1.0183319694480775</speed>
  <fix>3d</fix>
</trkpt>
<trkpt lat="33.8106814" lon="-118.3947145">
  <ele>-24.41</ele>
  <time>2026-09-02T22:08:51Z</time>
  <course>124.11</course>
  <speed>1.0</speed>
  <fix>3d</fix>
</trkpt>
<trkpt lat="33.81068" lon="-118.3947125">
  <ele>-25.016</ele>
  <time>2026-09-02T22:08:51Z</time>
  <course>214.44</course>
  <speed>1.0241581909060729</speed>
  <fix>3d</fix>
</trkpt>
<trkpt lat="33.8106814" lon="-118.3947145">
  <ele>-24.41</ele>
  <time>2026-09-02T22:08:51Z</time>
  <course>124.11</course>
  <speed>1.0</speed>
  <fix>3d</fix>
</trkpt>
<trkpt lat="33.8106795" lon="-118.3947116">
  <ele>-25.017</ele>
  <time>2026-09-02T22:08:51Z</time>
  <course>214.55</course>
  <speed>1.016070863670443</speed>
  <fix>3d</fix>
</trkpt>
<trkpt lat="33.8106803" lon="-118.3947128">
  <ele>-24.41</ele>
  <time>2026-09-02T22:08:51Z</time>
  <course>124.51</course>
  <speed>1.0</speed>
  <fix>3d</fix>
</trkpt>
<trkpt lat="33.8106789" lon="-118.3947107">
  <ele>-25.017</ele>
  <time>2026-09-02T22:08:51Z</time>
  <course>214.67</course>
  <speed>1.016070863670443</speed>
  <fix>3d</fix>
</trkpt>
<trkpt lat="33.8106803" lon="-118.3947128">
  <ele>-24.41</ele>
  <time>2026-09-02T22:08:51Z</time>
  <course>124.51</course>
  <speed>1.0</speed>
  <fix>3d</fix>
</trkpt>
<trkpt lat="33.8106784" lon="-118.3947098">
  <ele>-25.015</ele>
  <time>2026-09-02T22:08:51Z</time>
  <course>214.78</course>
  <speed>1.016070863670443</speed>
  <fix>3d</fix>
</trkpt>
<trkpt lat="33.8106794" lon="-118.394711">
  <ele>-24.4</ele>
  <time>2026-09-02T22:08:51Z</time>
  <course>124.81</course>
  <speed>1.0</speed>
  <fix>3d</fix>
</trkpt>
<trkpt lat="33.8106779" lon="-118.3947089">
  <ele>-25.014</ele>
  <time>2026-09-02T22:08:51Z</time>
  <course>214.89</course>
  <speed>1.016070863670443</speed>
  <fix>3d</fix>
</trkpt>
<trkpt lat="33.8106794" lon="-118.394711">
  <ele>-24.4</ele>
  <time>2026-09-02T22:08:51Z</time>
  <course>124.81</course>
  <speed>1.0</speed>
  <fix>3d</fix>
</trkpt>
<trkpt lat="33.8106774" lon="-118.394708">
  <ele>-25.013</ele>
  <time>2026-09-02T22:08:51Z</time>
  <course>215.01</course>
  <speed>1.016070863670443</speed>
  <fix>3d</fix>
</trkpt>
<trkpt lat="33.8106783" lon="-118.3947093">
  <ele>-24.4</ele>
  <time>2026-09-02T22:08:51Z</time>
  <course>125.06</course>
  <speed>1.0</speed>
  <fix>3d</fix>
</trkpt>
<trkpt lat="33.8106769" lon="-118.3947072">
  <ele>-25.012</ele>
  <time>2026-09-02T22:08:51Z</time>
  <course>215.13</course>
  <speed>1.0220078277586722</speed>
  <fix>3d</fix>
</trkpt>
<trkpt lat="33.8106783" lon="-118.3947093">
  <ele>-24.4</ele>
  <time>2026-09-02T22:08:51Z</time>
  <course>125.06</course>
  <speed>1.0</speed>
  <fix>3d</fix>
</trkpt>
<trkpt lat="33.8106763" lon="-118.3947063">
  <ele>-25.01</ele>
  <time>2026-09-02T22:08:51Z</time>
  <course>215.24</course>
  <speed>1.0220078277586722</speed>
  <fix>3d</fix>
</trkpt>
<trkpt lat="33.8106772" lon="-118.3947075">
  <ele>-24.4</ele>
  <time>2026-09-02T22:08:51Z</time>
  <course>125.3</course>
  <speed>1.0</speed>
  <fix>3d</fix>
</trkpt>
<trkpt lat="33.8106758" lon="-118.3947054">
  <ele>-25.009</ele>
  <time>2026-09-02T22:08:51Z</time>
  <course>215.36</course>
  <speed>1.0140019723846694</speed>
  <fix>3d</fix>
</trkpt>
<trkpt lat="33.8106772" lon="-118.3947075">
  <ele>-24.4</ele>
  <time>2026-09-02T22:08:51Z</time>
  <course>125.3</course>
  <speed>1.0</speed>
  <fix>3d</fix>
</trkpt>
<trkpt lat="33.8106753" lon="-118.3947045">
  <ele>-25.01</ele>
  <time>2026-09-02T22:08:51Z</time>
  <course>215.47</course>
  <speed>1.0140019723846694</speed>
  <fix>3d</fix>
</trkpt>
<trkpt lat="33.8106762" lon="-118.3947057">
  <ele>-24.4</ele>
  <time>2026-09-02T22:08:51Z</time>
  <course>125.46</course>
  <speed>1.0</speed>
  <fix>3d</fix>
</trkpt>
<trkpt lat="33.8106748" lon="-118.3947036">
  <ele>-25.011</ele>
  <time>2026-09-02T22:08:51Z</time>
  <course>215.59</course>
  <speed>1.0140019723846694</speed>
  <fix>3d</fix>
</trkpt>
<trkpt lat="33.8106762" lon="-118.3947057">
  <ele>-24.4</ele>
  <time>2026-09-02T22:08:51Z</time>
  <course>125.46</course>
  <speed>1.0</speed>
  <fix>3d</fix>
</trkpt>
<trkpt lat="33.8106742" lon="-118.3947028">
  <ele>-25.012</ele>
  <time>2026-09-02T22:08:51Z</time>
  <course>215.7</course>
  <speed>1.0140019723846694</speed>
  <fix>3d</fix>
</trkpt>
<trkpt lat="33.8106752" lon="-118.3947039">
  <ele>-24.4</ele>
  <time>2026-09-02T22:08:51Z</time>
  <course>125.61</course>
  <speed>1.0</speed>
  <fix>3d</fix>
</trkpt>
<trkpt lat="33.8106737" lon="-118.3947019">
  <ele>-25.013</ele>
  <time>2026-09-02T22:08:51Z</time>
  <course>215.82</course>
  <speed>1.0140019723846694</speed>
  <fix>3d</fix>
</trkpt>
<trkpt lat="33.8106752" lon="-118.3947039">
  <ele>-24.4</ele>
  <time>2026-09-02T22:08:51Z</time>
  <course>125.61</course>
  <speed>1.0</speed>
  <fix>3d</fix>
</trkpt>
<trkpt lat="33.8106732" lon="-118.394701">
  <ele>-25.013</ele>
  <time>2026-09-02T22:08:51Z</time>
  <course>215.93</course>
  <speed>1.0200490184299968</speed>
  <fix>3d</fix>
</trkpt>
<trkpt lat="33.8106741" lon="-118.3947022">
  <ele>-24.4</ele>
  <time>2026-09-02T22:08:51Z</time>
  <course>125.82</course>
  <speed>1.0</speed>
  <fix>3d</fix>
</trkpt>
<trkpt lat="33.8106727" lon="-118.3947001">
  <ele>-25.013</ele>
  <time>2026-09-02T22:08:51Z</time>
  <course>216.05</course>
  <speed>1.0200490184299968</speed>
  <fix>3d</fix>
</trkpt>
<trkpt lat="33.8106741" lon="-118.3947022">
  <ele>-24.4</ele>
  <time>2026-09-02T22:08:51Z</time>
  <course>125.82</course>
  <speed>1.0</speed>
  <fix>3d</fix>
</trkpt>
<trkpt lat="33.8106721" lon="-118.3946993">
  <ele>-25.011</ele>
  <time>2026-09-02T22:08:51Z</time>
  <course>216.16</course>
  <speed>1.0200490184299968</speed>
  <fix>3d</fix>
</trkpt>
<trkpt lat="33.8106731" lon="-118.3947004">
  <ele>-24.4</ele>
  <time>2026-09-02T22:08:51Z</time>
  <course>126.06</course>
  <speed>1.0</speed>
  <fix>3d</fix>
</trkpt>
<trkpt lat="33.8106716" lon="-118.3946984">
  <ele>-25.011</ele>
  <time>2026-09-02T22:08:51Z</time>
  <course>216.28</course>
  <speed>1.0121264743103995</speed>
  <fix>3d</fix>
</trkpt>
<trkpt lat="33.8106731" lon="-118.3947004">
  <ele>-24.4</ele>
  <time>2026-09-02T22:08:51Z</time>
  <course>126.06</course>
  <speed>1.0</speed>
  <fix>3d</fix>
</trkpt>
<trkpt lat="33.8106711" lon="-118.3946975">
  <ele>-25.011</ele>
  <time>2026-09-02T22:08:51Z</time>
  <course>216.39</course>
  <speed>1.0121264743103995</speed>
  <fix>3d</fix>
</trkpt>
<trkpt lat="33.810672" lon="-118.3946986">
  <ele>-24.4</ele>
  <time>2026-09-02T22:08:51Z</time>
  <course>126.33</course>
  <speed>1.0</speed>
  <fix>3d</fix>
</trkpt>
<trkpt lat="33.8106705" lon="-118.3946966">
  <ele>-25.011</ele>
  <time>2026-09-02T22:08:51Z</time>
  <course>216.51</course>
  <speed>1.0182828683622247</speed>
  <fix>3d</fix>
</trkpt>
<trkpt lat="33.810672" lon="-118.3946986">
  <ele>-24.4</ele>
  <time>2026-09-02T22:08:51Z</time>
  <course>126.33</course>
  <speed>1.0</speed>
  <fix>3d</fix>
</trkpt>
<trkpt lat="33.81067" lon="-118.3946958">
  <ele>-25.011</ele>
  <time>2026-09-02T22:08:51Z</time>
  <course>216.62</course>
  <speed>1.0182828683622247</speed>
  <fix>3d</fix>
</trkpt>
<trkpt lat="33.8106709" lon="-118.3946968">
  <ele>-24.4</ele>
  <time>2026-09-02T22:08:51Z</time>
  <course>126.64</course>
  <speed>1.0</speed>
  <fix>3d</fix>
</trkpt>
<trkpt lat="33.8106694" lon="-118.3946949">
  <ele>-25.011</ele>
  <time>2026-09-02T22:08:51Z</time>
  <course>216.73</course>
  <speed>1.0182828683622247</speed>
  <fix>3d</fix>
</trkpt>
<trkpt lat="33.8106709" lon="-118.3946968">
  <ele>-24.4</ele>
  <time>2026-09-02T22:08:51Z</time>
  <course>126.64</course>
  <speed>1.0</speed>
  <fix>3d</fix>
</trkpt>
<trkpt lat="33.8106689" lon="-118.394694">
  <ele>-25.01</ele>
  <time>2026-09-02T22:08:51Z</time>
  <course>216.85</course>
  <speed>1.0104454463255303</speed>
  <fix>3d</fix>
</trkpt>
<trkpt lat="33.8106698" lon="-118.3946951">
  <ele>-24.4</ele>
  <time>2026-09-02T22:08:51Z</time>
  <course>126.94</course>
  <speed>1.0</speed>
  <fix>3d</fix>
</trkpt>
<trkpt lat="33.8106683" lon="-118.3946932">
  <ele>-25.011</ele>
  <time>2026-09-02T22:08:51Z</time>
  <course>216.96</course>
  <speed>1.0104454463255303</speed>
  <fix>3d</fix>
</trkpt>
<trkpt lat="33.8106698" lon="-118.3946951">
  <ele>-24.4</ele>
  <time>2026-09-02T22:08:51Z</time>
  <course>126.94</course>
  <speed>1.0</speed>
  <fix>3d</fix>
</trkpt>
<trkpt lat="33.8106678" lon="-118.3946923">
  <ele>-25.011</ele>
  <time>2026-09-02T22:08:51Z</time>
  <course>217.08</course>
  <speed>1.0104454463255303</speed>
  <fix>3d</fix>
</trkpt>
<trkpt lat="33.8106688" lon="-118.3946934">
  <ele>-24.4</ele>
  <time>2026-09-02T22:08:51Z</time>
  <course>127.2</course>
  <speed>1.0</speed>
  <fix>3d</fix>
</trkpt>
<trkpt lat="33.8106673" lon="-118.3946914">
  <ele>-25.013</ele>
  <time>2026-09-02T22:08:51Z</time>
  <course>217.19</course>
  <speed>1.0104454463255303</speed>
  <fix>3d</fix>
</trkpt>
<trkpt lat="33.8106688" lon="-118.3946934">
  <ele>-24.4</ele>
  <time>2026-09-02T22:08:51Z</time>
  <course>127.2</course>
  <speed>1.0</speed>
  <fix>3d</fix>
</trkpt>
<trkpt lat="33.8106667" lon="-118.3946906">
  <ele>-25.014</ele>
  <time>2026-09-02T22:08:51Z</time>
  <course>217.3</course>
  <speed>1.0104454463255303</speed>
  <fix>3d</fix>
</trkpt>
<trkpt lat="33.8106677" lon="-118.3946917">
  <ele>-24.41</ele>
  <time>2026-09-02T22:08:51Z</time>
  <course>127.45</course>
  <speed>1.0</speed>
  <fix>3d</fix>
</trkpt>
<trkpt lat="33.8106662" lon="-118.3946897">
  <ele>-25.015</ele>
  <time>2026-09-02T22:08:51Z</time>
  <course>217.42</course>
  <speed>1.0167103815738285</speed>
  <fix>3d</fix>
</trkpt>
<trkpt lat="33.8106677" lon="-118.3946917">
  <ele>-24.41</ele>
  <time>2026-09-02T22:08:51Z</time>
  <course>127.45</course>
  <speed>1.0</speed>
  <fix>3d</fix>
</trkpt>
<trkpt lat="33.8106656" lon="-118.3946889">
  <ele>-25.016</ele>
  <time>2026-09-02T22:08:51Z</time>
  <course>217.53</course>
  <speed>1.0167103815738285</speed>
  <fix>3d</fix>
</trkpt>
<trkpt lat="33.8106666" lon="-118.39469">
  <ele>-24.41</ele>
  <time>2026-09-02T22:08:51Z</time>
  <course>127.69</course>
  <speed>0.99</speed>
  <fix>3d</fix>
</trkpt>
<trkpt lat="33.8106651" lon="-118.394688">
  <ele>-25.016</ele>
  <time>2026-09-02T22:08:51Z</time>
  <course>217.65</course>
  <speed>1.0089598604503551</speed>
  <fix>3d</fix>
</trkpt>
<trkpt lat="33.8106666" lon="-118.39469">
  <ele>-24.41</ele>
  <time>2026-09-02T22:08:51Z</time>
  <course>127.69</course>
  <speed>0.99</speed>
  <fix>3d</fix>
</trkpt>
<trkpt lat="33.8106645" lon="-118.3946872">
  <ele>-25.016</ele>
  <time>2026-09-02T22:08:51Z</time>
  <course>217.76</course>
  <speed>1.0089598604503551</speed>
  <fix>3d</fix>
</trkpt>
<trkpt lat="33.8106655" lon="-118.3946883">
  <ele>-24.41</ele>
  <time>2026-09-02T22:08:51Z</time>
  <course>127.94</course>
  <speed>1.0</speed>
  <fix>3d</fix>
</trkpt>
<trkpt lat="33.810664" lon="-118.3946863">
  <ele>-25.015</ele>
  <time>2026-09-02T22:08:51Z</time>
  <course>217.88</course>
  <speed>1.0089598604503551</speed>
  <fix>3d</fix>
</trkpt>
<trkpt lat="33.8106655" lon="-118.3946883">
  <ele>-24.41</ele>
  <time>2026-09-02T22:08:51Z</time>
  <course>127.94</course>
  <speed>1.0</speed>
  <fix>3d</fix>
</trkpt>
<trkpt lat="33.8106634" lon="-118.3946855">
  <ele>-25.014</ele>
  <time>2026-09-02T22:08:51Z</time>
  <course>218.0</course>
  <speed>1.0089598604503551</speed>
  <fix>3d</fix>
</trkpt>
<trkpt lat="33.8106644" lon="-118.3946866">
  <ele>-24.41</ele>
  <time>2026-09-02T22:08:51Z</time>
  <course>128.17</course>
  <speed>1.0</speed>
  <fix>3d</fix>
</trkpt>
<trkpt lat="33.8106628" lon="-118.3946846">
  <ele>-25.013</ele>
  <time>2026-09-02T22:08:51Z</time>
  <course>218.11</course>
  <speed>1.015332457867865</speed>
  <fix>3d</fix>
</trkpt>
<trkpt lat="33.8106644" lon="-118.3946866">
  <ele>-24.41</ele>
  <time>2026-09-02T22:08:51Z</time>
  <course>128.17</course>
  <speed>1.0</speed>
  <fix>3d</fix>
</trkpt>
<trkpt lat="33.8106623" lon="-118.3946838">
  <ele>-25.012</ele>
  <time>2026-09-02T22:08:51Z</time>
  <course>218.22</course>
  <speed>1.015332457867865</speed>
  <fix>3d</fix>
</trkpt>
<trkpt lat="33.8106632" lon="-118.3946848">
  <ele>-24.41</ele>
  <time>2026-09-02T22:08:51Z</time>
  <course>128.38</course>
  <speed>1.0</speed>
  <fix>3d</fix>
</trkpt>
<trkpt lat="33.8106617" lon="-118.3946829">
  <ele>-25.012</ele>
  <time>2026-09-02T22:08:51Z</time>
  <course>218.34</course>
  <speed>1.015332457867865</speed>
  <fix>3d</fix>
</trkpt>
<trkpt lat="33.8106632" lon="-118.3946848">
  <ele>-24.41</ele>
  <time>2026-09-02T22:08:51Z</time>
  <course>128.38</course>
  <speed>1.0</speed>
  <fix>3d</fix>
</trkpt>
<trkpt lat="33.8106612" lon="-118.3946821">
  <ele>-25.012</ele>
  <time>2026-09-02T22:08:51Z</time>
  <course>218.45</course>
  <speed>1.015332457867865</speed>
  <fix>3d</fix>
</trkpt>
<trkpt lat="33.8106621" lon="-118.3946832">
  <ele>-24.4</ele>
  <time>2026-09-02T22:08:51Z</time>
  <course>128.58</course>
  <speed>1.0</speed>
  <fix>3d</fix>
</trkpt>
<trkpt lat="33.8106606" lon="-118.3946812">
  <ele>-25.012</ele>
  <time>2026-09-02T22:08:51Z</time>
  <course>218.56</course>
  <speed>1.015332457867865</speed>
  <fix>3d</fix>
</trkpt>
<trkpt lat="33.8106621" lon="-118.3946832">
  <ele>-24.4</ele>
  <time>2026-09-02T22:08:51Z</time>
  <course>128.58</course>
  <speed>1.0</speed>
  <fix>3d</fix>
</trkpt>
<trkpt lat="33.81066" lon="-118.3946804">
  <ele>-25.012</ele>
  <time>2026-09-02T22:08:51Z</time>
  <course>218.68</course>
  <speed>1.015332457867865</speed>
  <fix>3d</fix>
</trkpt>
<trkpt lat="33.810661" lon="-118.3946815">
  <ele>-24.4</ele>
  <time>2026-09-02T22:08:51Z</time>
  <course>128.75</course>
  <speed>1.0</speed>
  <fix>3d</fix>
</trkpt>
<trkpt lat="33.8106595" lon="-118.3946795">
  <ele>-25.013</ele>
  <time>2026-09-02T22:08:51Z</time>
  <course>218.8</course>
  <speed>1.007670581092849</speed>
  <fix>3d</fix>
</trkpt>
<trkpt lat="33.810661" lon="-118.3946815">
  <ele>-24.4</ele>
  <time>2026-09-02T22:08:51Z</time>
  <course>128.75</course>
  <speed>1.0</speed>
  <fix>3d</fix>
</trkpt>
<trkpt lat="33.8106589" lon="-118.3946787">
  <ele>-25.014</ele>
  <time>2026-09-02T22:08:51Z</time>
  <course>218.91</course>
  <speed>1.0141498903022177</speed>
  <fix>3d</fix>
</trkpt>
<trkpt lat="33.8106599" lon="-118.3946798">
  <ele>-24.41</ele>
  <time>2026-09-02T22:08:51Z</time>
  <course>128.91</course>
  <speed>1.0</speed>
  <fix>3d</fix>
</trkpt>
<trkpt lat="33.8106583" lon="-118.3946779">
  <ele>-25.016</ele>
  <time>2026-09-02T22:08:51Z</time>
  <course>219.02</course>
  <speed>1.0141498903022177</speed>
  <fix>3d</fix>
</trkpt>
<trkpt lat="33.8106599" lon="-118.3946798">
  <ele>-24.41</ele>
  <time>2026-09-02T22:08:51Z</time>
  <course>128.91</course>
  <speed>1.0</speed>
  <fix>3d</fix>
</trkpt>
<trkpt lat="33.8106578" lon="-118.394677">
  <ele>-25.017</ele>
  <time>2026-09-02T22:08:51Z</time>
  <course>219.14</course>
  <speed>1.0141498903022177</speed>
  <fix>3d</fix>
</trkpt>
<trkpt lat="33.8106588" lon="-118.3946781">
  <ele>-24.41</ele>
  <time>2026-09-02T22:08:51Z</time>
  <course>129.13</course>
  <speed>1.0</speed>
  <fix>3d</fix>
</trkpt>
<trkpt lat="33.8106572" lon="-118.3946762">
  <ele>-25.018</ele>
  <time>2026-09-02T22:08:51Z</time>
  <course>219.25</course>
  <speed>1.0141498903022177</speed>
  <fix>3d</fix>
</trkpt>
<trkpt lat="33.8106588" lon="-118.3946781">
  <ele>-24.41</ele>
  <time>2026-09-02T22:08:51Z</time>
  <course>129.13</course>
  <speed>1.0</speed>
  <fix>3d</fix>
</trkpt>
<trkpt lat="33.8106566" lon="-118.3946753">
  <ele>-25.016</ele>
  <time>2026-09-02T22:08:51Z</time>
  <course>219.37</course>
  <speed>1.0141498903022177</speed>
  <fix>3d</fix>
</trkpt>
<trkpt lat="33.8106576" lon="-118.3946764">
  <ele>-24.41</ele>
  <time>2026-09-02T22:08:51Z</time>
  <course>129.4</course>
  <speed>1.0</speed>
  <fix>3d</fix>
</trkpt>
<trkpt lat="33.8106561" lon="-118.3946745">
  <ele>-25.015</ele>
  <time>2026-09-02T22:08:51Z</time>
  <course>219.48</course>
  <speed>1.0141498903022177</speed>
  <fix>3d</fix>
</trkpt>
<trkpt lat="33.8106576" lon="-118.3946764">
  <ele>-24.41</ele>
  <time>2026-09-02T22:08:51Z</time>
  <course>129.4</course>
  <speed>1.0</speed>
  <fix>3d</fix>
</trkpt>
<trkpt lat="33.8106555" lon="-118.3946737">
  <ele>-25.014</ele>
  <time>2026-09-02T22:08:51Z</time>
  <course>219.6</course>
  <speed>1.0131633629380803</speed>
  <fix>3d</fix>
</trkpt>
<trkpt lat="33.8106565" lon="-118.3946748">
  <ele>-24.4</ele>
  <time>2026-09-02T22:08:51Z</time>
  <course>129.68</course>
  <speed>1.0</speed>
  <fix>3d</fix>
</trkpt>
<trkpt lat="33.8106549" lon="-118.3946729">
  <ele>-25.013</ele>
  <time>2026-09-02T22:08:51Z</time>
  <course>219.71</course>
  <speed>1.0131633629380803</speed>
  <fix>3d</fix>
</trkpt>
<trkpt lat="33.8106565" lon="-118.3946748">
  <ele>-24.4</ele>
  <time>2026-09-02T22:08:51Z</time>
  <course>129.68</course>
  <speed>1.0</speed>
  <fix>3d</fix>
</trkpt>
<trkpt lat="33.8106543" lon="-118.394672">
  <ele>-25.012</ele>
  <time>2026-09-02T22:08:51Z</time>
  <course>219.82</course>
  <speed>1.0131633629380803</speed>
  <fix>3d</fix>
</trkpt>
<trkpt lat="33.8106553" lon="-118.3946731">
  <ele>-24.4</ele>
  <time>2026-09-02T22:08:51Z</time>
  <course>129.94</course>
  <speed>1.0</speed>
  <fix>3d</fix>
</trkpt>
<trkpt lat="33.8106537" lon="-118.3946712">
  <ele>-25.011</ele>
  <time>2026-09-02T22:08:51Z</time>
  <course>219.94</course>
  <speed>1.0131633629380803</speed>
  <fix>3d</fix>
</trkpt>
<trkpt lat="33.8106553" lon="-118.3946731">
  <ele>-24.4</ele>
  <time>2026-09-02T22:08:51Z</time>
  <course>129.94</course>
  <speed>1.0</speed>
  <fix>3d</fix>
</trkpt>
<trkpt lat="33.8106532" lon="-118.3946704">
  <ele>-25.011</ele>
  <time>2026-09-02T22:08:51Z</time>
  <course>220.06</course>
  <speed>1.0131633629380803</speed>
  <fix>3d</fix>
</trkpt>
<trkpt lat="33.8106542" lon="-118.3946714">
  <ele>-24.4</ele>
  <time>2026-09-02T22:08:51Z</time>
  <course>130.16</course>
  <speed>1.0</speed>
  <fix>3d</fix>
</trkpt>
<trkpt lat="33.8106526" lon="-118.3946695">
  <ele>-25.012</ele>
  <time>2026-09-02T22:08:51Z</time>
  <course>220.17</course>
  <speed>1.0131633629380803</speed>
  <fix>3d</fix>
</trkpt>
<trkpt lat="33.8106542" lon="-118.3946714">
  <ele>-24.4</ele>
  <time>2026-09-02T22:08:51Z</time>
  <course>130.16</course>
  <speed>1.0</speed>
  <fix>3d</fix>
</trkpt>
<trkpt lat="33.810652" lon="-118.3946687">
  <ele>-25.013</ele>
  <time>2026-09-02T22:08:51Z</time>
  <course>220.29</course>
  <speed>1.019803902718557</speed>
  <fix>3d</fix>
</trkpt>
<trkpt lat="33.810653" lon="-118.3946698">
  <ele>-24.4</ele>
  <time>2026-09-02T22:08:51Z</time>
  <course>130.4</course>
  <speed>1.0</speed>
  <fix>3d</fix>
</trkpt>
<trkpt lat="33.8106514" lon="-118.3946679">
  <ele>-25.013</ele>
  <time>2026-09-02T22:08:51Z</time>
  <course>220.4</course>
  <speed>1.019803902718557</speed>
  <fix>3d</fix>
</trkpt>
<trkpt lat="33.810653" lon="-118.3946698">
  <ele>-24.4</ele>
  <time>2026-09-02T22:08:51Z</time>
  <course>130.4</course>
  <speed>1.0</speed>
  <fix>3d</fix>
</trkpt>
<trkpt lat="33.8106508" lon="-118.3946671">
  <ele>-25.014</ele>
  <time>2026-09-02T22:08:51Z</time>
  <course>220.51</course>
  <speed>1.0123734488813898</speed>
  <fix>3d</fix>
</trkpt>
<trkpt lat="33.8106518" lon="-118.3946681">
  <ele>-24.4</ele>
  <time>2026-09-02T22:08:51Z</time>
  <course>130.64</course>
  <speed>1.0</speed>
  <fix>3d</fix>
</trkpt>
<trkpt lat="33.8106502" lon="-118.3946662">
  <ele>-25.014</ele>
  <time>2026-09-02T22:08:51Z</time>
  <course>220.63</course>
  <speed>1.0123734488813898</speed>
  <fix>3d</fix>
</trkpt>
<trkpt lat="33.8106518" lon="-118.3946681">
  <ele>-24.4</ele>
  <time>2026-09-02T22:08:51Z</time>
  <course>130.64</course>
  <speed>1.0</speed>
  <fix>3d</fix>
</trkpt>
<trkpt lat="33.8106496" lon="-118.3946654">
  <ele>-25.013</ele>
  <time>2026-09-02T22:08:51Z</time>
  <course>220.74</course>
  <speed>1.0123734488813898</speed>
  <fix>3d</fix>
</trkpt>
<trkpt lat="33.8106506" lon="-118.3946665">
  <ele>-24.4</ele>
  <time>2026-09-02T22:08:51Z</time>
  <course>130.86</course>
  <speed>0.99</speed>
  <fix>3d</fix>
</trkpt>
<trkpt lat="33.8106491" lon="-118.3946646">
  <ele>-25.011</ele>
  <time>2026-09-02T22:08:51Z</time>
  <course>220.86</course>
  <speed>1.0123734488813898</speed>
  <fix>3d</fix>
</trkpt>
<trkpt lat="33.8106506" lon="-118.3946665">
  <ele>-24.4</ele>
  <time>2026-09-02T22:08:51Z</time>
  <course>130.86</course>
  <speed>0.99</speed>
  <fix>3d</fix>
</trkpt>
<trkpt lat="33.8106485" lon="-118.3946638">
  <ele>-25.009</ele>
  <time>2026-09-02T22:08:51Z</time>
  <course>220.97</course>
  <speed>1.0123734488813898</speed>
  <fix>3d</fix>
</trkpt>
<trkpt lat="33.8106494" lon="-118.3946649">
  <ele>-24.4</ele>
  <time>2026-09-02T22:08:51Z</time>
  <course>131.06</course>
  <speed>0.99</speed>
  <fix>3d</fix>
</trkpt>
<trkpt lat="33.8106479" lon="-118.394663">
  <ele>-25.007</ele>
  <time>2026-09-02T22:08:51Z</time>
  <course>221.09</course>
  <speed>1.0123734488813898</speed>
  <fix>3d</fix>
</trkpt>
<trkpt lat="33.8106494" lon="-118.3946649">
  <ele>-24.4</ele>
  <time>2026-09-02T22:08:51Z</time>
  <course>131.06</course>
  <speed>0.99</speed>
  <fix>3d</fix>
</trkpt>
<trkpt lat="33.8106473" lon="-118.3946622">
  <ele>-25.006</ele>
  <time>2026-09-02T22:08:51Z</time>
  <course>221.2</course>
  <speed>1.0123734488813898</speed>
  <fix>3d</fix>
</trkpt>
<trkpt lat="33.8106482" lon="-118.3946633">
  <ele>-24.4</ele>
  <time>2026-09-02T22:08:51Z</time>
  <course>131.2</course>
  <speed>0.99</speed>
  <fix>3d</fix>
</trkpt>
<trkpt lat="33.8106467" lon="-118.3946614">
  <ele>-25.007</ele>
  <time>2026-09-02T22:08:51Z</time>
  <course>221.32</course>
  <speed>1.0191172650877818</speed>
  <fix>3d</fix>
</trkpt>
<trkpt lat="33.8106482" lon="-118.3946633">
  <ele>-24.4</ele>
  <time>2026-09-02T22:08:51Z</time>
  <course>131.2</course>
  <speed>0.99</speed>
  <fix>3d</fix>
</trkpt>
<trkpt lat="33.8106461" lon="-118.3946606">
  <ele>-25.008</ele>
  <time>2026-09-02T22:08:51Z</time>
  <course>221.43</course>
  <speed>1.0117806086301515</speed>
  <fix>3d</fix>
</trkpt>
<trkpt lat="33.8106471" lon="-118.3946617">
  <ele>-24.4</ele>
  <time>2026-09-02T22:08:51Z</time>
  <course>131.3</course>
  <speed>0.99</speed>
  <fix>3d</fix>
</trkpt>
<trkpt lat="33.8106455" lon="-118.3946598">
  <ele>-25.009</ele>
  <time>2026-09-02T22:08:51Z</time>
  <course>221.55</course>
  <speed>1.0117806086301515</speed>
  <fix>3d</fix>
</trkpt>
<trkpt lat="33.8106471" lon="-118.3946617">
  <ele>-24.4</ele>
  <time>2026-09-02T22:08:51Z</time>
  <course>131.3</course>
  <speed>0.99</speed>
  <fix>3d</fix>
</trkpt>
<trkpt lat="33.8106449" lon="-118.3946589">
  <ele>-25.01</ele>
  <time>2026-09-02T22:08:51Z</time>
  <course>221.66</course>
  <speed>1.0117806086301515</speed>
  <fix>3d</fix>
</trkpt>
<trkpt lat="33.810646" lon="-118.39466">
  <ele>-24.4</ele>
  <time>2026-09-02T22:08:51Z</time>
  <course>131.42</course>
  <speed>0.99</speed>
  <fix>3d</fix>
</trkpt>
<trkpt lat="33.8106443" lon="-118.3946581">
  <ele>-25.013</ele>
  <time>2026-09-02T22:08:51Z</time>
  <course>221.78</course>
  <speed>1.0117806086301515</speed>
  <fix>3d</fix>
</trkpt>
<trkpt lat="33.810646" lon="-118.39466">
  <ele>-24.4</ele>
  <time>2026-09-02T22:08:51Z</time>
  <course>131.42</course>
  <speed>0.99</speed>
  <fix>3d</fix>
</trkpt>
<trkpt lat="33.8106437" lon="-118.3946573">
  <ele>-25.015</ele>
  <time>2026-09-02T22:08:51Z</time>
  <course>221.89</course>
  <speed>1.0117806086301515</speed>
  <fix>3d</fix>
</trkpt>
<trkpt lat="33.8106448" lon="-118.3946584">
  <ele>-24.41</ele>
  <time>2026-09-02T22:08:51Z</time>
  <course>131.65</course>
  <speed>0.99</speed>
  <fix>3d</fix>
</trkpt>
<trkpt lat="33.8106431" lon="-118.3946565">
  <ele>-25.017</ele>
  <time>2026-09-02T22:08:51Z</time>
  <course>222.0</course>
  <speed>1.0186265262597474</speed>
  <fix>3d</fix>
</trkpt>
<trkpt lat="33.8106448" lon="-118.3946584">
  <ele>-24.41</ele>
  <time>2026-09-02T22:08:51Z</time>
  <course>131.65</course>
  <speed>0.99</speed>
  <fix>3d</fix>
</trkpt>
<trkpt lat="33.8106425" lon="-118.3946557">
  <ele>-25.019</ele>
  <time>2026-09-02T22:08:51Z</time>
  <course>222.12</course>
  <speed>1.0186265262597474</speed>
  <fix>3d</fix>
</trkpt>
<trkpt lat="33.8106436" lon="-118.3946568">
  <ele>-24.41</ele>
  <time>2026-09-02T22:08:51Z</time>
  <course>132.0</course>
  <speed>0.99</speed>
  <fix>3d</fix>
</trkpt>
<trkpt lat="33.8106419" lon="-118.3946549">
  <ele>-25.019</ele>
  <time>2026-09-02T22:08:51Z</time>
  <course>222.23</course>
  <speed>1.0113851887386922</speed>
  <fix>3d</fix>
</trkpt>
<trkpt lat="33.8106436" lon="-118.3946568">
  <ele>-24.41</ele>
  <time>2026-09-02T22:08:51Z</time>
  <course>132.0</course>
  <speed>0.99</speed>
  <fix>3d</fix>
</trkpt>
<trkpt lat="33.8106413" lon="-118.3946541">
  <ele>-25.019</ele>
  <time>2026-09-02T22:08:51Z</time>
  <course>222.34</course>
  <speed>1.0113851887386922</speed>
  <fix>3d</fix>
</trkpt>
<trkpt lat="33.8106424" lon="-118.3946552">
  <ele>-24.42</ele>
  <time>2026-09-02T22:08:51Z</time>
  <course>132.36</course>
  <speed>1.0</speed>
  <fix>3d</fix>
</trkpt>
<trkpt lat="33.8106407" lon="-118.3946533">
  <ele>-25.017</ele>
  <time>2026-09-02T22:08:51Z</time>
  <course>222.46</course>
  <speed>1.0183319694480775</speed>
  <fix>3d</fix>
</trkpt>
<trkpt lat="33.8106424" lon="-118.3946552">
  <ele>-24.42</ele>
  <time>2026-09-02T22:08:51Z</time>
  <course>132.36</course>
  <speed>1.0</speed>
  <fix>3d</fix>
</trkpt>
<trkpt lat="33.8106401" lon="-118.3946526">
  <ele>-25.015</ele>
  <time>2026-09-02T22:08:51Z</time>
  <course>222.58</course>
  <speed>1.0183319694480775</speed>
  <fix>3d</fix>
</trkpt>
<trkpt lat="33.8106411" lon="-118.3946536">
  <ele>-24.41</ele>
  <time>2026-09-02T22:08:51Z</time>
  <course>132.69</course>
  <speed>1.0</speed>
  <fix>3d</fix>
</trkpt>
<trkpt lat="33.8106395" lon="-118.3946518">
  <ele>-25.012</ele>
  <time>2026-09-02T22:08:51Z</time>
  <course>222.69</course>
  <speed>1.0183319694480775</speed>
  <fix>3d</fix>
</trkpt>
<trkpt lat="33.8106411" lon="-118.3946536">
  <ele>-24.41</ele>
  <time>2026-09-02T22:08:51Z</time>
  <course>132.69</course>
  <speed>1.0</speed>
  <fix>3d</fix>
</trkpt>
<trkpt lat="33.8106388" lon="-118.394651">
  <ele>-25.01</ele>
  <time>2026-09-02T22:08:51Z</time>
  <course>222.81</course>
  <speed>1.0183319694480775</speed>
  <fix>3d</fix>
</trkpt>
<trkpt lat="33.8106399" lon="-118.394652">
  <ele>-24.41</ele>
  <time>2026-09-02T22:08:51Z</time>
  <course>132.96</course>
  <speed>1.0</speed>
  <fix>3d</fix>
</trkpt>
<trkpt lat="33.8106382" lon="-118.3946502">
  <ele>-25.01</ele>
  <time>2026-09-02T22:08:51Z</time>
  <course>222.93</course>
  <speed>1.0183319694480775</speed>
  <fix>3d</fix>
</trkpt>
<trkpt lat="33.8106399" lon="-118.394652">
  <ele>-24.41</ele>
  <time>2026-09-02T22:08:51Z</time>
  <course>132.96</course>
  <speed>1.0</speed>
  <fix>3d</fix>
</trkpt>
<trkpt lat="33.8106376" lon="-118.3946494">
  <ele>-25.01</ele>
  <time>2026-09-02T22:08:51Z</time>
  <course>223.04</course>
  <speed>1.0111874208078342</speed>
  <fix>3d</fix>
</trkpt>
<trkpt lat="33.8106387" lon="-118.3946504">
  <ele>-24.41</ele>
  <time>2026-09-02T22:08:51Z</time>
  <course>133.17</course>
  <speed>1.0</speed>
  <fix>3d</fix>
</trkpt>
<trkpt lat="33.810637" lon="-118.3946486">
  <ele>-25.011</ele>
  <time>2026-09-02T22:08:51Z</time>
  <course>223.15</course>
  <speed>1.0111874208078342</speed>
  <fix>3d</fix>
</trkpt>
<trkpt lat="33.8106387" lon="-118.3946504">
  <ele>-24.41</ele>
  <time>2026-09-02T22:08:51Z</time>
  <course>133.17</course>
  <speed>1.0</speed>
  <fix>3d</fix>
</trkpt>
<trkpt lat="33.8106364" lon="-118.3946478">
  <ele>-25.013</ele>
  <time>2026-09-02T22:08:51Z</time>
  <course>223.26</course>
  <speed>1.0182337649086284</speed>
  <fix>3d</fix>
</trkpt>
<trkpt lat="33.8106375" lon="-118.3946489">
  <ele>-24.41</ele>
  <time>2026-09-02T22:08:51Z</time>
  <course>133.37</course>
  <speed>1.0</speed>
  <fix>3d</fix>
</trkpt>
<trkpt lat="33.8106358" lon="-118.394647">
  <ele>-25.015</ele>
  <time>2026-09-02T22:08:51Z</time>
  <course>223.38</course>
  <speed>1.0182337649086284</speed>
  <fix>3d</fix>
</trkpt>
<trkpt lat="33.8106375" lon="-118.3946489">
  <ele>-24.41</ele>
  <time>2026-09-02T22:08:51Z</time>
  <course>133.37</course>
  <speed>1.0</speed>
  <fix>3d</fix>
</trkpt>
<trkpt lat="33.8106351" lon="-118.3946462">
  <ele>-25.017</ele>
  <time>2026-09-02T22:08:52Z</time>
  <course>223.5</course>
  <speed>1.0182337649086284</speed>
  <fix>3d</fix>
</trkpt>
<trkpt lat="33.8106362" lon="-118.3946473">
  <ele>-24.41</ele>
  <time>2026-09-02T22:08:52Z</time>
  <course>133.6</course>
  <speed>1.0</speed>
  <fix>3d</fix>
</trkpt>
<trkpt lat="33.8106345" lon="-118.3946455">
  <ele>-25.017</ele>
  <time>2026-09-02T22:08:52Z</time>
  <course>223.61</course>
  <speed>1.0182337649086284</speed>
  <fix>3d</fix>
</trkpt>
<trkpt lat="33.8106362" lon="-118.3946473">
  <ele>-24.41</ele>
  <time>2026-09-02T22:08:52Z</time>
  <course>133.6</course>
  <speed>1.0</speed>
  <fix>3d</fix>
</trkpt>
<trkpt lat="33.8106339" lon="-118.3946447">
  <ele>-25.017</ele>
  <time>2026-09-02T22:08:52Z</time>
  <course>223.73</course>
  <speed>1.0182337649086284</speed>
  <fix>3d</fix>
</trkpt>
<trkpt lat="33.810635" lon="-118.3946457">
  <ele>-24.41</ele>
  <time>2026-09-02T22:08:52Z</time>
  <course>133.8</course>
  <speed>1.0</speed>
  <fix>3d</fix>
</trkpt>
<trkpt lat="33.8106333" lon="-118.3946439">
  <ele>-25.016</ele>
  <time>2026-09-02T22:08:52Z</time>
  <course>223.84</course>
  <speed>1.0111874208078342</speed>
  <fix>3d</fix>
</trkpt>
<trkpt lat="33.810635" lon="-118.3946457">
  <ele>-24.41</ele>
  <time>2026-09-02T22:08:52Z</time>
  <course>133.8</course>
  <speed>1.0</speed>
  <fix>3d</fix>
</trkpt>
<trkpt lat="33.8106326" lon="-118.3946431">
  <ele>-25.015</ele>
  <time>2026-09-02T22:08:52Z</time>
  <course>223.95</course>
  <speed>1.0111874208078342</speed>
  <fix>3d</fix>
</trkpt>
<trkpt lat="33.8106337" lon="-118.3946441">
  <ele>-24.41</ele>
  <time>2026-09-02T22:08:52Z</time>
  <course>134.01</course>
  <speed>1.0</speed>
  <fix>3d</fix>
</trkpt>
<trkpt lat="33.810632" lon="-118.3946423">
  <ele>-25.015</ele>
  <time>2026-09-02T22:08:52Z</time>
  <course>224.07</course>
  <speed>1.0111874208078342</speed>
  <fix>3d</fix>
</trkpt>
<trkpt lat="33.8106337" lon="-118.3946441">
  <ele>-24.41</ele>
  <time>2026-09-02T22:08:52Z</time>
  <course>134.01</course>
  <speed>1.0</speed>
  <fix>3d</fix>
</trkpt>
<trkpt lat="33.8106314" lon="-118.3946416">
  <ele>-25.014</ele>
  <time>2026-09-02T22:08:52Z</time>
  <course>224.18</course>
  <speed>1.0183319694480775</speed>
  <fix>3d</fix>
</trkpt>
<trkpt lat="33.8106324" lon="-118.3946426">
  <ele>-24.41</ele>
  <time>2026-09-02T22:08:52Z</time>
  <course>134.24</course>
  <speed>1.0</speed>
  <fix>3d</fix>
</trkpt>
<trkpt lat="33.8106307" lon="-118.3946408">
  <ele>-25.014</ele>
  <time>2026-09-02T22:08:52Z</time>
  <course>224.3</course>
  <speed>1.0183319694480775</speed>
  <fix>3d</fix>
</trkpt>
<trkpt lat="33.8106324" lon="-118.3946426">
  <ele>-24.41</ele>
  <time>2026-09-02T22:08:52Z</time>
  <course>134.24</course>
  <speed>1.0</speed>
  <fix>3d</fix>
</trkpt>
<trkpt lat="33.8106301" lon="-118.39464">
  <ele>-25.013</ele>
  <time>2026-09-02T22:08:52Z</time>
  <course>224.41</course>
  <speed>1.0183319694480775</speed>
  <fix>3d</fix>
</trkpt>
<trkpt lat="33.8106312" lon="-118.3946411">
  <ele>-24.41</ele>
  <time>2026-09-02T22:08:52Z</time>
  <course>134.44</course>
  <speed>1.0</speed>
  <fix>3d</fix>
</trkpt>
<trkpt lat="33.8106295" lon="-118.3946393">
  <ele>-25.012</ele>
  <time>2026-09-02T22:08:52Z</time>
  <course>224.53</course>
  <speed>1.0183319694480775</speed>
  <fix>3d</fix>
</trkpt>
<trkpt lat="33.8106312" lon="-118.3946411">
  <ele>-24.41</ele>
  <time>2026-09-02T22:08:52Z</time>
  <course>134.44</course>
  <speed>1.0</speed>
  <fix>3d</fix>
</trkpt>
<trkpt lat="33.8106288" lon="-118.3946385">
  <ele>-25.011</ele>
  <time>2026-09-02T22:08:52Z</time>
  <course>224.64</course>
  <speed>1.0113851887386922</speed>
  <fix>3d</fix>
</trkpt>
<trkpt lat="33.8106299" lon="-118.3946395">
  <ele>-24.41</ele>
  <time>2026-09-02T22:08:52Z</time>
  <course>134.61</course>
  <speed>0.99</speed>
  <fix>3d</fix>
</trkpt>
<trkpt lat="33.8106282" lon="-118.3946377">
  <ele>-25.011</ele>
  <time>2026-09-02T22:08:52Z</time>
  <course>224.76</course>
  <speed>1.0113851887386922</speed>
  <fix>3d</fix>
</trkpt>
<trkpt lat="33.8106299" lon="-118.3946395">
  <ele>-24.41</ele>
  <time>2026-09-02T22:08:52Z</time>
  <course>134.61</course>
  <speed>0.99</speed>
  <fix>3d</fix>
</trkpt>
<trkpt lat="33.8106276" lon="-118.394637">
  <ele>-25.012</ele>
  <time>2026-09-02T22:08:52Z</time>
  <course>224.87</course>
  <speed>1.0113851887386922</speed>
  <fix>3d</fix>
</trkpt>
<trkpt lat="33.8106286" lon="-118.3946379">
  <ele>-24.41</ele>
  <time>2026-09-02T22:08:52Z</time>
  <course>134.78</course>
  <speed>0.99</speed>
  <fix>3d</fix>
</trkpt>
<trkpt lat="33.8106269" lon="-118.3946362">
  <ele>-25.014</ele>
  <time>2026-09-02T22:08:52Z</time>
  <course>224.98</course>
  <speed>1.0113851887386922</speed>
  <fix>3d</fix>
</trkpt>
<trkpt lat="33.8106286" lon="-118.3946379">
  <ele>-24.41</ele>
  <time>2026-09-02T22:08:52Z</time>
  <course>134.78</course>
  <speed>0.99</speed>
  <fix>3d</fix>
</trkpt>
<trkpt lat="33.8106263" lon="-118.3946354">
  <ele>-25.015</ele>
  <time>2026-09-02T22:08:52Z</time>
  <course>225.1</course>
  <speed>1.0113851887386922</speed>
  <fix>3d</fix>
</trkpt>
<trkpt lat="33.8106274" lon="-118.3946364">
  <ele>-24.41</ele>
  <time>2026-09-02T22:08:52Z</time>
  <course>134.99</course>
  <speed>0.99</speed>
  <fix>3d</fix>
</trkpt>
<trkpt lat="33.8106256" lon="-118.3946347">
  <ele>-25.016</ele>
  <time>2026-09-02T22:08:52Z</time>
  <course>225.21</course>
  <speed>1.0186265262597474</speed>
  <fix>3d</fix>
</trkpt>
<trkpt lat="33.8106274" lon="-118.3946364">
  <ele>-24.41</ele>
  <time>2026-09-02T22:08:52Z</time>
  <course>134.99</course>
  <speed>0.99</speed>
  <fix>3d</fix>
</trkpt>
<trkpt lat="33.810625" lon="-118.3946339">
  <ele>-25.016</ele>
  <time>2026-09-02T22:08:52Z</time>
  <course>225.33</course>
  <speed>1.0117806086301515</speed>
  <fix>3d</fix>
</trkpt>
<trkpt lat="33.8106261" lon="-118.3946349">
  <ele>-24.41</ele>
  <time>2026-09-02T22:08:52Z</time>
  <course>135.24</course>
  <speed>0.99</speed>
  <fix>3d</fix>
</trkpt>
<trkpt lat="33.8106244" lon="-118.3946331">
  <ele>-25.016</ele>
  <time>2026-09-02T22:08:52Z</time>
  <course>225.44</course>
  <speed>1.0117806086301515</speed>
  <fix>3d</fix>
</trkpt>
<trkpt lat="33.8106261" lon="-118.3946349">
  <ele>-24.41</ele>
  <time>2026-09-02T22:08:52Z</time>
  <course>135.24</course>
  <speed>0.99</speed>
  <fix>3d</fix>
</trkpt>
<trkpt lat="33.8106237" lon="-118.3946324">
  <ele>-25.017</ele>
  <time>2026-09-02T22:08:52Z</time>
  <course>225.55</course>
  <speed>1.0117806086301515</speed>
  <fix>3d</fix>
</trkpt>
<trkpt lat="33.8106249" lon="-118.3946334">
  <ele>-24.41</ele>
  <time>2026-09-02T22:08:52Z</time>
  <course>135.48</course>
  <speed>0.99</speed>
  <fix>3d</fix>
</trkpt>
<trkpt lat="33.8106231" lon="-118.3946316">
  <ele>-25.018</ele>
  <time>2026-09-02T22:08:52Z</time>
  <course>225.66</course>
  <speed>1.0117806086301515</speed>
  <fix>3d</fix>
</trkpt>
<trkpt lat="33.8106249" lon="-118.3946334">
  <ele>-24.41</ele>
  <time>2026-09-02T22:08:52Z</time>
  <course>135.48</course>
  <speed>0.99</speed>
  <fix>3d</fix>
</trkpt>
<trkpt lat="33.8106224" lon="-118.3946309">
  <ele>-25.018</ele>
  <time>2026-09-02T22:08:52Z</time>
  <course>225.78</course>
  <speed>1.0117806086301515</speed>
  <fix>3d</fix>
</trkpt>
<trkpt lat="33.8106236" lon="-118.3946319">
  <ele>-24.41</ele>
  <time>2026-09-02T22:08:52Z</time>
  <course>135.73</course>
  <speed>0.99</speed>
  <fix>3d</fix>
</trkpt>
<trkpt lat="33.8106218" lon="-118.3946301">
  <ele>-25.018</ele>
  <time>2026-09-02T22:08:52Z</time>
  <course>225.9</course>
  <speed>1.0191172650877818</speed>
  <fix>3d</fix>
</trkpt>
<trkpt lat="33.8106236" lon="-118.3946319">
  <ele>-24.41</ele>
  <time>2026-09-02T22:08:52Z</time>
  <course>135.73</course>
  <speed>0.99</speed>
  <fix>3d</fix>
</trkpt>
<trkpt lat="33.8106211" lon="-118.3946294">
  <ele>-25.018</ele>
  <time>2026-09-02T22:08:52Z</time>
  <course>226.01</course>
  <speed>1.0191172650877818</speed>
  <fix>3d</fix>
</trkpt>
<trkpt lat="33.8106223" lon="-118.3946304">
  <ele>-24.41</ele>
  <time>2026-09-02T22:08:52Z</time>
  <course>136.01</course>
  <speed>0.99</speed>
  <fix>3d</fix>
</trkpt>
<trkpt lat="33.8106205" lon="-118.3946286">
  <ele>-25.017</ele>
  <time>2026-09-02T22:08:52Z</time>
  <course>226.13</course>
  <speed>1.0123734488813898</speed>
  <fix>3d</fix>
</trkpt>
<trkpt lat="33.8106223" lon="-118.3946304">
  <ele>-24.41</ele>
  <time>2026-09-02T22:08:52Z</time>
  <course>136.01</course>
  <speed>0.99</speed>
  <fix>3d</fix>
</trkpt>
<trkpt lat="33.8106198" lon="-118.3946279">
  <ele>-25.016</ele>
  <time>2026-09-02T22:08:52Z</time>
  <course>226.24</course>
  <speed>1.0123734488813898</speed>
  <fix>3d</fix>
</trkpt>
<trkpt lat="33.810621" lon="-118.3946289">
  <ele>-24.4</ele>
  <time>2026-09-02T22:08:52Z</time>
  <course>136.25</course>
  <speed>0.99</speed>
  <fix>3d</fix>
</trkpt>
<trkpt lat="33.8106192" lon="-118.3946271">
  <ele>-25.013</ele>
  <time>2026-09-02T22:08:52Z</time>
  <course>226.36</course>
  <speed>1.0123734488813898</speed>
  <fix>3d</fix>
</trkpt>
<trkpt lat="33.810621" lon="-118.3946289">
  <ele>-24.4</ele>
  <time>2026-09-02T22:08:52Z</time>
  <course>136.25</course>
  <speed>0.99</speed>
  <fix>3d</fix>
</trkpt>
<trkpt lat="33.8106185" lon="-118.3946264">
  <ele>-25.011</ele>
  <time>2026-09-02T22:08:52Z</time>
  <course>226.47</course>
  <speed>1.0123734488813898</speed>
  <fix>3d</fix>
</trkpt>
<trkpt lat="33.8106197" lon="-118.3946274">
  <ele>-24.4</ele>
  <time>2026-09-02T22:08:52Z</time>
  <course>136.47</course>
  <speed>0.99</speed>
  <fix>3d</fix>
</trkpt>
<trkpt lat="33.8106179" lon="-118.3946257">
  <ele>-25.009</ele>
  <time>2026-09-02T22:08:52Z</time>
  <course>226.59</course>
  <speed>1.019803902718557</speed>
  <fix>3d</fix>
</trkpt>
<trkpt lat="33.8106197" lon="-118.3946274">
  <ele>-24.4</ele>
  <time>2026-09-02T22:08:52Z</time>
  <course>136.47</course>
  <speed>0.99</speed>
  <fix>3d</fix>
</trkpt>
<trkpt lat="33.8106172" lon="-118.3946249">
  <ele>-25.008</ele>
  <time>2026-09-02T22:08:52Z</time>
  <course>226.7</course>
  <speed>1.019803902718557</speed>
  <fix>3d</fix>
</trkpt>
<trkpt lat="33.8106184" lon="-118.3946259">
  <ele>-24.4</ele>
  <time>2026-09-02T22:08:52Z</time>
  <course>136.69</course>
  <speed>0.99</speed>
  <fix>3d</fix>
</trkpt>
<trkpt lat="33.8106166" lon="-118.3946242">
  <ele>-25.01</ele>
  <time>2026-09-02T22:08:52Z</time>
  <course>226.82</course>
  <speed>1.019803902718557</speed>
  <fix>3d</fix>
</trkpt>
<trkpt lat="33.8106184" lon="-118.3946259">
  <ele>-24.4</ele>
  <time>2026-09-02T22:08:52Z</time>
  <course>136.69</course>
  <speed>0.99</speed>
  <fix>3d</fix>
</trkpt>
<trkpt lat="33.8106159" lon="-118.3946235">
  <ele>-25.012</ele>
  <time>2026-09-02T22:08:52Z</time>
  <course>226.93</course>
  <speed>1.0131633629380803</speed>
  <fix>3d</fix>
</trkpt>
<trkpt lat="33.8106171" lon="-118.3946244">
  <ele>-24.4</ele>
  <time>2026-09-02T22:08:52Z</time>
  <course>136.93</course>
  <speed>0.99</speed>
  <fix>3d</fix>
</trkpt>
<trkpt lat="33.8106153" lon="-118.3946227">
  <ele>-25.014</ele>
  <time>2026-09-02T22:08:52Z</time>
  <course>227.05</course>
  <speed>1.0131633629380803</speed>
  <fix>3d</fix>
</trkpt>
<trkpt lat="33.8106171" lon="-118.3946244">
  <ele>-24.4</ele>
  <time>2026-09-02T22:08:52Z</time>
  <course>136.93</course>
  <speed>0.99</speed>
  <fix>3d</fix>
</trkpt>
<trkpt lat="33.8106146" lon="-118.394622">
  <ele>-25.015</ele>
  <time>2026-09-02T22:08:52Z</time>
  <course>227.16</course>
  <speed>1.0131633629380803</speed>
  <fix>3d</fix>
</trkpt>
<trkpt lat="33.8106158" lon="-118.394623">
  <ele>-24.4</ele>
  <time>2026-09-02T22:08:52Z</time>
  <course>137.18</course>
  <speed>1.0</speed>
  <fix>3d</fix>
</trkpt>
<trkpt lat="33.8106139" lon="-118.3946213">
  <ele>-25.014</ele>
  <time>2026-09-02T22:08:52Z</time>
  <course>227.28</course>
  <speed>1.0206860437960343</speed>
  <fix>3d</fix>
</trkpt>
<trkpt lat="33.8106158" lon="-118.394623">
  <ele>-24.4</ele>
  <time>2026-09-02T22:08:52Z</time>
  <course>137.18</course>
  <speed>1.0</speed>
  <fix>3d</fix>
</trkpt>
<trkpt lat="33.8106133" lon="-118.3946205">
  <ele>-25.011</ele>
  <time>2026-09-02T22:08:52Z</time>
  <course>227.39</course>
  <speed>1.0206860437960343</speed>
  <fix>3d</fix>
</trkpt>
<trkpt lat="33.8106144" lon="-118.3946215">
  <ele>-24.4</ele>
  <time>2026-09-02T22:08:52Z</time>
  <course>137.43</course>
  <speed>1.0</speed>
  <fix>3d</fix>
</trkpt>
<trkpt lat="33.8106126" lon="-118.3946198">
  <ele>-25.009</ele>
  <time>2026-09-02T22:08:52Z</time>
  <course>227.51</course>
  <speed>1.0206860437960343</speed>
  <fix>3d</fix>
</trkpt>
<trkpt lat="33.8106144" lon="-118.3946215">
  <ele>-24.4</ele>
  <time>2026-09-02T22:08:52Z</time>
  <course>137.43</course>
  <speed>1.0</speed>
  <fix>3d</fix>
</trkpt>
<trkpt lat="33.8106119" lon="-118.3946191">
  <ele>-25.008</ele>
  <time>2026-09-02T22:08:52Z</time>
  <course>227.62</course>
  <speed>1.0206860437960343</speed>
  <fix>3d</fix>
</trkpt>
<trkpt lat="33.8106131" lon="-118.3946201">
  <ele>-24.4</ele>
  <time>2026-09-02T22:08:52Z</time>
  <course>137.64</course>
  <speed>1.0</speed>
  <fix>3d</fix>
</trkpt>
<trkpt lat="33.8106113" lon="-118.3946183">
  <ele>-25.008</ele>
  <time>2026-09-02T22:08:52Z</time>
  <course>227.73</course>
  <speed>1.0141498903022177</speed>
  <fix>3d</fix>
</trkpt>
<trkpt lat="33.8106131" lon="-118.3946201">
  <ele>-24.4</ele>
  <time>2026-09-02T22:08:52Z</time>
  <course>137.64</course>
  <speed>1.0</speed>
  <fix>3d</fix>
</trkpt>
<trkpt lat="33.8106106" lon="-118.3946176">
  <ele>-25.009</ele>
  <time>2026-09-02T22:08:52Z</time>
  <course>227.85</course>
  <speed>1.0141498903022177</speed>
  <fix>3d</fix>
</trkpt>
<trkpt lat="33.8106118" lon="-118.3946186">
  <ele>-24.4</ele>
  <time>2026-09-02T22:08:52Z</time>
  <course>137.81</course>
  <speed>1.0</speed>
  <fix>3d</fix>
</trkpt>
<trkpt lat="33.8106099" lon="-118.3946169">
  <ele>-25.009</ele>
  <time>2026-09-02T22:08:52Z</time>
  <course>227.96</course>
  <speed>1.0141498903022177</speed>
  <fix>3d</fix>
</trkpt>
<trkpt lat="33.8106118" lon="-118.3946186">
  <ele>-24.4</ele>
  <time>2026-09-02T22:08:52Z</time>
  <course>137.81</course>
  <speed>1.0</speed>
  <fix>3d</fix>
</trkpt>
<trkpt lat="33.8106093" lon="-118.3946162">
  <ele>-25.01</ele>
  <time>2026-09-02T22:08:52Z</time>
  <course>228.08</course>
  <speed>1.0141498903022177</speed>
  <fix>3d</fix>
</trkpt>
<trkpt lat="33.8106104" lon="-118.3946172">
  <ele>-24.4</ele>
  <time>2026-09-02T22:08:52Z</time>
  <course>137.99</course>
  <speed>1.0</speed>
  <fix>3d</fix>
</trkpt>
<trkpt lat="33.8106086" lon="-118.3946155">
  <ele>-25.011</ele>
  <time>2026-09-02T22:08:52Z</time>
  <course>228.2</course>
  <speed>1.0141498903022177</speed>
  <fix>3d</fix>
</trkpt>
<trkpt lat="33.8106104" lon="-118.3946172">
  <ele>-24.4</ele>
  <time>2026-09-02T22:08:52Z</time>
  <course>137.99</course>
  <speed>1.0</speed>
  <fix>3d</fix>
</trkpt>
<trkpt lat="33.8106079" lon="-118.3946147">
  <ele>-25.011</ele>
  <time>2026-09-02T22:08:52Z</time>
  <course>228.31</course>
  <speed>1.0217631819555841</speed>
  <fix>3d</fix>
</trkpt>
<trkpt lat="33.8106091" lon="-118.3946157">
  <ele>-24.4</ele>
  <time>2026-09-02T22:08:52Z</time>
  <course>138.18</course>
  <speed>1.0</speed>
  <fix>3d</fix>
</trkpt>
<trkpt lat="33.8106072" lon="-118.394614">
  <ele>-25.011</ele>
  <time>2026-09-02T22:08:52Z</time>
  <course>228.43</course>
  <speed>1.0217631819555841</speed>
  <fix>3d</fix>
</trkpt>
<trkpt lat="33.8106091" lon="-118.3946157">
  <ele>-24.4</ele>
  <time>2026-09-02T22:08:52Z</time>
  <course>138.18</course>
  <speed>1.0</speed>
  <fix>3d</fix>
</trkpt>
<trkpt lat="33.8106066" lon="-118.3946133">
  <ele>-25.011</ele>
  <time>2026-09-02T22:08:52Z</time>
  <course>228.54</course>
  <speed>1.015332457867865</speed>
  <fix>3d</fix>
</trkpt>
<trkpt lat="33.8106078" lon="-118.3946143">
  <ele>-24.41</ele>
  <time>2026-09-02T22:08:52Z</time>
  <course>138.35</course>
  <speed>1.0</speed>
  <fix>3d</fix>
</trkpt>
<trkpt lat="33.8106059" lon="-118.3946126">
  <ele>-25.012</ele>
  <time>2026-09-02T22:08:52Z</time>
  <course>228.65</course>
  <speed>1.015332457867865</speed>
  <fix>3d</fix>
</trkpt>
<trkpt lat="33.8106078" lon="-118.3946143">
  <ele>-24.41</ele>
  <time>2026-09-02T22:08:52Z</time>
  <course>138.35</course>
  <speed>1.0</speed>
  <fix>3d</fix>
</trkpt>
<trkpt lat="33.8106052" lon="-118.3946119">
  <ele>-25.013</ele>
  <time>2026-09-02T22:08:52Z</time>
  <course>228.77</course>
  <speed>1.015332457867865</speed>
  <fix>3d</fix>
</trkpt>
<trkpt lat="33.8106064" lon="-118.3946128">
  <ele>-24.41</ele>
  <time>2026-09-02T22:08:52Z</time>
  <course>138.58</course>
  <speed>1.0</speed>
  <fix>3d</fix>
</trkpt>
<trkpt lat="33.8106045" lon="-118.3946112">
  <ele>-25.014</ele>
  <time>2026-09-02T22:08:52Z</time>
  <course>228.88</course>
  <speed>1.015332457867865</speed>
  <fix>3d</fix>
</trkpt>
<trkpt lat="33.8106064" lon="-118.3946128">
  <ele>-24.41</ele>
  <time>2026-09-02T22:08:52Z</time>
  <course>138.58</course>
  <speed>1.0</speed>
  <fix>3d</fix>
</trkpt>
<trkpt lat="33.8106039" lon="-118.3946105">
  <ele>-25.014</ele>
  <time>2026-09-02T22:08:52Z</time>
  <course>228.99</course>
  <speed>1.015332457867865</speed>
  <fix>3d</fix>
</trkpt>
<trkpt lat="33.810605" lon="-118.3946114">
  <ele>-24.41</ele>
  <time>2026-09-02T22:08:52Z</time>
  <course>138.84</course>
  <speed>1.0</speed>
  <fix>3d</fix>
</trkpt>
<trkpt lat="33.8106032" lon="-118.3946098">
  <ele>-25.015</ele>
  <time>2026-09-02T22:08:52Z</time>
  <course>229.11</course>
  <speed>1.015332457867865</speed>
  <fix>3d</fix>
</trkpt>
<trkpt lat="33.810605" lon="-118.3946114">
  <ele>-24.41</ele>
  <time>2026-09-02T22:08:52Z</time>
  <course>138.84</course>
  <speed>1.0</speed>
  <fix>3d</fix>
</trkpt>
<trkpt lat="33.8106025" lon="-118.3946091">
  <ele>-25.015</ele>
  <time>2026-09-02T22:08:52Z</time>
  <course>229.22</course>
  <speed>1.0167103815738285</speed>
  <fix>3d</fix>
</trkpt>
<trkpt lat="33.8106037" lon="-118.39461">
  <ele>-24.41</ele>
  <time>2026-09-02T22:08:52Z</time>
  <course>139.07</course>
  <speed>1.0</speed>
  <fix>3d</fix>
</trkpt>
<trkpt lat="33.8106018" lon="-118.3946084">
  <ele>-25.016</ele>
  <time>2026-09-02T22:08:52Z</time>
  <course>229.33</course>
  <speed>1.0167103815738285</speed>
  <fix>3d</fix>
</trkpt>
<trkpt lat="33.8106037" lon="-118.39461">
  <ele>-24.41</ele>
  <time>2026-09-02T22:08:52Z</time>
  <course>139.07</course>
  <speed>1.0</speed>
  <fix>3d</fix>
</trkpt>
<trkpt lat="33.8106011" lon="-118.3946077">
  <ele>-25.016</ele>
  <time>2026-09-02T22:08:52Z</time>
  <course>229.45</course>
  <speed>1.0167103815738285</speed>
  <fix>3d</fix>
</trkpt>
<trkpt lat="33.8106024" lon="-118.3946086">
  <ele>-24.41</ele>
  <time>2026-09-02T22:08:52Z</time>
  <course>139.28</course>
  <speed>1.0</speed>
  <fix>3d</fix>
</trkpt>
<trkpt lat="33.8106004" lon="-118.394607">
  <ele>-25.016</ele>
  <time>2026-09-02T22:08:52Z</time>
  <course>229.57</course>
  <speed>1.0167103815738285</speed>
  <fix>3d</fix>
</trkpt>
<trkpt lat="33.8106024" lon="-118.3946086">
  <ele>-24.41</ele>
  <time>2026-09-02T22:08:52Z</time>
  <course>139.28</course>
  <speed>1.0</speed>
  <fix>3d</fix>
</trkpt>
<trkpt lat="33.8105998" lon="-118.3946063">
  <ele>-25.015</ele>
  <time>2026-09-02T22:08:52Z</time>
  <course>229.68</course>
  <speed>1.0167103815738285</speed>
  <fix>3d</fix>
</trkpt>
<trkpt lat="33.810601" lon="-118.3946072">
  <ele>-24.41</ele>
  <time>2026-09-02T22:08:52Z</time>
  <course>139.54</course>
  <speed>1.0</speed>
  <fix>3d</fix>
</trkpt>
<trkpt lat="33.8105991" lon="-118.3946056">
  <ele>-25.013</ele>
  <time>2026-09-02T22:08:52Z</time>
  <course>229.8</course>
  <speed>1.0167103815738285</speed>
  <fix>3d</fix>
</trkpt>
<trkpt lat="33.810601" lon="-118.3946072">
  <ele>-24.41</ele>
  <time>2026-09-02T22:08:52Z</time>
  <course>139.54</course>
  <speed>1.0</speed>
  <fix>3d</fix>
</trkpt>
<trkpt lat="33.8105984" lon="-118.3946049">
  <ele>-25.013</ele>
  <time>2026-09-02T22:08:52Z</time>
  <course>229.91</course>
  <speed>1.0182828683622247</speed>
  <fix>3d</fix>
</trkpt>
<trkpt lat="33.8105996" lon="-118.3946058">
  <ele>-24.41</ele>
  <time>2026-09-02T22:08:52Z</time>
  <course>139.79</course>
  <speed>1.0</speed>
  <fix>3d</fix>
</trkpt>
<trkpt lat="33.8105977" lon="-118.3946042">
  <ele>-25.012</ele>
  <time>2026-09-02T22:08:52Z</time>
  <course>230.03</course>
  <speed>1.0182828683622247</speed>
  <fix>3d</fix>
</trkpt>
<trkpt lat="33.8105996" lon="-118.3946058">
  <ele>-24.41</ele>
  <time>2026-09-02T22:08:52Z</time>
  <course>139.79</course>
  <speed>1.0</speed>
  <fix>3d</fix>
</trkpt>
<trkpt lat="33.810597" lon="-118.3946035">
  <ele>-25.012</ele>
  <time>2026-09-02T22:08:52Z</time>
  <course>230.14</course>
  <speed>1.0182828683622247</speed>
  <fix>3d</fix>
</trkpt>
<trkpt lat="33.8105982" lon="-118.3946044">
  <ele>-24.41</ele>
  <time>2026-09-02T22:08:52Z</time>
  <course>140.03</course>
  <speed>1.0</speed>
  <fix>3d</fix>
</trkpt>
<trkpt lat="33.8105963" lon="-118.3946028">
  <ele>-25.013</ele>
  <time>2026-09-02T22:08:52Z</time>
  <course>230.25</course>
  <speed>1.0182828683622247</speed>
  <fix>3d</fix>
</trkpt>
<trkpt lat="33.8105982" lon="-118.3946044">
  <ele>-24.41</ele>
  <time>2026-09-02T22:08:52Z</time>
  <course>140.03</course>
  <speed>1.0</speed>
  <fix>3d</fix>
</trkpt>
<trkpt lat="33.8105956" lon="-118.3946021">
  <ele>-25.014</ele>
  <time>2026-09-02T22:08:52Z</time>
  <course>230.37</course>
  <speed>1.0182828683622247</speed>
  <fix>3d</fix>
</trkpt>
<trkpt lat="33.8105969" lon="-118.394603">
  <ele>-24.41</ele>
  <time>2026-09-02T22:08:52Z</time>
  <course>140.24</course>
  <speed>1.0</speed>
  <fix>3d</fix>
</trkpt>
<trkpt lat="33.8105949" lon="-118.3946014">
  <ele>-25.016</ele>
  <time>2026-09-02T22:08:52Z</time>
  <course>230.49</course>
  <speed>1.0182828683622247</speed>
  <fix>3d</fix>
</trkpt>
<trkpt lat="33.8105969" lon="-118.394603">
  <ele>-24.41</ele>
  <time>2026-09-02T22:08:52Z</time>
  <course>140.24</course>
  <speed>1.0</speed>
  <fix>3d</fix>
</trkpt>
<trkpt lat="33.8105942" lon="-118.3946007">
  <ele>-25.017</ele>
  <time>2026-09-02T22:08:52Z</time>
  <course>230.6</course>
  <speed>1.0261578825892241</speed>
  <fix>3d</fix>
</trkpt>
<trkpt lat="33.8105955" lon="-118.3946015">
  <ele>-24.41</ele>
  <time>2026-09-02T22:08:52Z</time>
  <course>140.48</course>
  <speed>1.0</speed>
  <fix>3d</fix>
</trkpt>
<trkpt lat="33.8105935" lon="-118.3946001">
  <ele>-25.018</ele>
  <time>2026-09-02T22:08:52Z</time>
  <course>230.71</course>
  <speed>1.0200490184299968</speed>
  <fix>3d</fix>
</trkpt>
<trkpt lat="33.8105955" lon="-118.3946015">
  <ele>-24.41</ele>
  <time>2026-09-02T22:08:52Z</time>
  <course>140.48</course>
  <speed>1.0</speed>
  <fix>3d</fix>
</trkpt>
<trkpt lat="33.8105929" lon="-118.3945994">
  <ele>-25.018</ele>
  <time>2026-09-02T22:08:52Z</time>
  <course>230.83</course>
  <speed>1.0200490184299968</speed>
  <fix>3d</fix>
</trkpt>
<trkpt lat="33.8105941" lon="-118.3946002">
  <ele>-24.41</ele>
  <time>2026-09-02T22:08:52Z</time>
  <course>140.81</course>
  <speed>1.0</speed>
  <fix>3d</fix>
</trkpt>
<trkpt lat="33.8105922" lon="-118.3945987">
  <ele>-25.018</ele>
  <time>2026-09-02T22:08:52Z</time>
  <course>230.94</course>
  <speed>1.0200490184299968</speed>
  <fix>3d</fix>
</trkpt>
<trkpt lat="33.8105941" lon="-118.3946002">
  <ele>-24.41</ele>
  <time>2026-09-02T22:08:52Z</time>
  <course>140.81</course>
  <speed>1.0</speed>
  <fix>3d</fix>
</trkpt>
<trkpt lat="33.8105915" lon="-118.394598">
  <ele>-25.018</ele>
  <time>2026-09-02T22:08:52Z</time>
  <course>231.06</course>
  <speed>1.0200490184299968</speed>
  <fix>3d</fix>
</trkpt>
<trkpt lat="33.8105927" lon="-118.3945988">
  <ele>-24.41</ele>
  <time>2026-09-02T22:08:52Z</time>
  <course>141.15</course>
  <speed>1.0</speed>
  <fix>3d</fix>
</trkpt>
<trkpt lat="33.8105908" lon="-118.3945973">
  <ele>-25.018</ele>
  <time>2026-09-02T22:08:52Z</time>
  <course>231.17</course>
  <speed>1.0280077820717117</speed>
  <fix>3d</fix>
</trkpt>
<trkpt lat="33.8105927" lon="-118.3945988">
  <ele>-24.41</ele>
  <time>2026-09-02T22:08:52Z</time>
  <course>141.15</course>
  <speed>1.0</speed>
  <fix>3d</fix>
</trkpt>
<trkpt lat="33.8105901" lon="-118.3945967">
  <ele>-25.016</ele>
  <time>2026-09-02T22:08:52Z</time>
  <course>231.29</course>
  <speed>1.0220078277586722</speed>
  <fix>3d</fix>
</trkpt>
<trkpt lat="33.8105913" lon="-118.3945975">
  <ele>-24.4</ele>
  <time>2026-09-02T22:08:52Z</time>
  <course>141.45</course>
  <speed>1.0</speed>
  <fix>3d</fix>
</trkpt>
<trkpt lat="33.8105893" lon="-118.394596">
  <ele>-25.015</ele>
  <time>2026-09-02T22:08:52Z</time>
  <course>231.4</course>
  <speed>1.0220078277586722</speed>
  <fix>3d</fix>
</trkpt>
<trkpt lat="33.8105913" lon="-118.3945975">
  <ele>-24.4</ele>
  <time>2026-09-02T22:08:52Z</time>
  <course>141.45</course>
  <speed>1.0</speed>
  <fix>3d</fix>
</trkpt>
<trkpt lat="33.8105886" lon="-118.3945953">
  <ele>-25.014</ele>
  <time>2026-09-02T22:08:52Z</time>
  <course>231.52</course>
  <speed>1.0220078277586722</speed>
  <fix>3d</fix>
</trkpt>
<trkpt lat="33.8105898" lon="-118.3945961">
  <ele>-24.4</ele>
  <time>2026-09-02T22:08:52Z</time>
  <course>141.73</course>
  <speed>1.0</speed>
  <fix>3d</fix>
</trkpt>
<trkpt lat="33.8105879" lon="-118.3945946">
  <ele>-25.013</ele>
  <time>2026-09-02T22:08:52Z</time>
  <course>231.63</course>
  <speed>1.0220078277586722</speed>
  <fix>3d</fix>
</trkpt>
<trkpt lat="33.8105898" lon="-118.3945961">
  <ele>-24.4</ele>
  <time>2026-09-02T22:08:52Z</time>
  <course>141.73</course>
  <speed>1.0</speed>
  <fix>3d</fix>
</trkpt>
<trkpt lat="33.8105872" lon="-118.394594">
  <ele>-25.012</ele>
  <time>2026-09-02T22:08:52Z</time>
  <course>231.75</course>
  <speed>1.0220078277586722</speed>
  <fix>3d</fix>
</trkpt>
<trkpt lat="33.8105884" lon="-118.3945948">
  <ele>-24.4</ele>
  <time>2026-09-02T22:08:52Z</time>
  <course>141.95</course>
  <speed>1.0</speed>
  <fix>3d</fix>
</trkpt>
<trkpt lat="33.8105865" lon="-118.3945933">
  <ele>-25.011</ele>
  <time>2026-09-02T22:08:52Z</time>
  <course>231.86</course>
  <speed>1.0220078277586722</speed>
  <fix>3d</fix>
</trkpt>
<trkpt lat="33.8105884" lon="-118.3945948">
  <ele>-24.4</ele>
  <time>2026-09-02T22:08:52Z</time>
  <course>141.95</course>
  <speed>1.0</speed>
  <fix>3d</fix>
</trkpt>
<trkpt lat="33.8105858" lon="-118.3945926">
  <ele>-25.009</ele>
  <time>2026-09-02T22:08:52Z</time>
  <course>231.97</course>
  <speed>1.016070863670443</speed>
  <fix>3d</fix>
</trkpt>
<trkpt lat="33.810587" lon="-118.3945934">
  <ele>-24.39</ele>
  <time>2026-09-02T22:08:52Z</time>
  <course>142.13</course>
  <speed>1.0</speed>
  <fix>3d</fix>
</trkpt>
<trkpt lat="33.8105851" lon="-118.394592">
  <ele>-25.007</ele>
  <time>2026-09-02T22:08:52Z</time>
  <course>232.09</course>
  <speed>1.016070863670443</speed>
  <fix>3d</fix>
</trkpt>
<trkpt lat="33.810587" lon="-118.3945934">
  <ele>-24.39</ele>
  <time>2026-09-02T22:08:52Z</time>
  <course>142.13</course>
  <speed>1.0</speed>
  <fix>3d</fix>
</trkpt>
<trkpt lat="33.8105844" lon="-118.3945913">
  <ele>-25.005</ele>
  <time>2026-09-02T22:08:52Z</time>
  <course>232.2</course>
  <speed>1.016070863670443</speed>
  <fix>3d</fix>
</trkpt>
<trkpt lat="33.8105855" lon="-118.3945921">
  <ele>-24.39</ele>
  <time>2026-09-02T22:08:52Z</time>
  <course>142.33</course>
  <speed>1.0</speed>
  <fix>3d</fix>
</trkpt>
<trkpt lat="33.8105837" lon="-118.3945907">
  <ele>-25.003</ele>
  <time>2026-09-02T22:08:52Z</time>
  <course>232.32</course>
  <speed>1.016070863670443</speed>
  <fix>3d</fix>
</trkpt>
<trkpt lat="33.8105855" lon="-118.3945921">
  <ele>-24.39</ele>
  <time>2026-09-02T22:08:52Z</time>
  <course>142.33</course>
  <speed>1.0</speed>
  <fix>3d</fix>
</trkpt>
<trkpt lat="33.8105829" lon="-118.39459">
  <ele>-25.003</ele>
  <time>2026-09-02T22:08:52Z</time>
  <course>232.44</course>
  <speed>1.016070863670443</speed>
  <fix>3d</fix>
</trkpt>
<trkpt lat="33.8105841" lon="-118.3945907">
  <ele>-24.39</ele>
  <time>2026-09-02T22:08:52Z</time>
  <course>142.54</course>
  <speed>1.0</speed>
  <fix>3d</fix>
</trkpt>
<trkpt lat="33.8105822" lon="-118.3945893">
  <ele>-25.004</ele>
  <time>2026-09-02T22:08:52Z</time>
  <course>232.55</course>
  <speed>1.010198000393982</speed>
  <fix>3d</fix>
</trkpt>
<trkpt lat="33.8105841" lon="-118.3945907">
  <ele>-24.39</ele>
  <time>2026-09-02T22:08:52Z</time>
  <course>142.54</course>
  <speed>1.0</speed>
  <fix>3d</fix>
</trkpt>
<trkpt lat="33.8105815" lon="-118.3945887">
  <ele>-25.006</ele>
  <time>2026-09-02T22:08:52Z</time>
  <course>232.66</course>
  <speed>1.010198000393982</speed>
  <fix>3d</fix>
</trkpt>
<trkpt lat="33.8105827" lon="-118.3945894">
  <ele>-24.4</ele>
  <time>2026-09-02T22:08:52Z</time>
  <course>142.74</course>
  <speed>1.0</speed>
  <fix>3d</fix>
</trkpt>
<trkpt lat="33.8105808" lon="-118.394588">
  <ele>-25.009</ele>
  <time>2026-09-02T22:08:52Z</time>
  <course>232.78</course>
  <speed>1.0183319694480775</speed>
  <fix>3d</fix>
</trkpt>
<trkpt lat="33.8105827" lon="-118.3945894">
  <ele>-24.4</ele>
  <time>2026-09-02T22:08:52Z</time>
  <course>142.74</course>
  <speed>1.0</speed>
  <fix>3d</fix>
</trkpt>
<trkpt lat="33.8105801" lon="-118.3945874">
  <ele>-25.011</ele>
  <time>2026-09-02T22:08:52Z</time>
  <course>232.89</course>
  <speed>1.0183319694480775</speed>
  <fix>3d</fix>
</trkpt>
<trkpt lat="33.8105812" lon="-118.3945881">
  <ele>-24.4</ele>
  <time>2026-09-02T22:08:52Z</time>
  <course>142.98</course>
  <speed>1.0</speed>
  <fix>3d</fix>
</trkpt>
<trkpt lat="33.8105793" lon="-118.3945867">
  <ele>-25.013</ele>
  <time>2026-09-02T22:08:52Z</time>
  <course>233.0</course>
  <speed>1.0183319694480775</speed>
  <fix>3d</fix>
</trkpt>
<trkpt lat="33.8105812" lon="-118.3945881">
  <ele>-24.4</ele>
  <time>2026-09-02T22:08:52Z</time>
  <course>142.98</course>
  <speed>1.0</speed>
  <fix>3d</fix>
</trkpt>
<trkpt lat="33.8105786" lon="-118.3945861">
  <ele>-25.014</ele>
  <time>2026-09-02T22:08:52Z</time>
  <course>233.12</course>
  <speed>1.0183319694480775</speed>
  <fix>3d</fix>
</trkpt>
<trkpt lat="33.8105798" lon="-118.3945868">
  <ele>-24.41</ele>
  <time>2026-09-02T22:08:52Z</time>
  <course>143.24</course>
  <speed>1.0</speed>
  <fix>3d</fix>
</trkpt>
<trkpt lat="33.8105779" lon="-118.3945854">
  <ele>-25.014</ele>
  <time>2026-09-02T22:08:52Z</time>
  <course>233.24</course>
  <speed>1.0125709851659783</speed>
  <fix>3d</fix>
</trkpt>
<trkpt lat="33.8105798" lon="-118.3945868">
  <ele>-24.41</ele>
  <time>2026-09-02T22:08:52Z</time>
  <course>143.24</course>
  <speed>1.0</speed>
  <fix>3d</fix>
</trkpt>
<trkpt lat="33.8105772" lon="-118.3945848">
  <ele>-25.014</ele>
  <time>2026-09-02T22:08:52Z</time>
  <course>233.35</course>
  <speed>1.0125709851659783</speed>
  <fix>3d</fix>
</trkpt>
<trkpt lat="33.8105784" lon="-118.3945855">
  <ele>-24.41</ele>
  <time>2026-09-02T22:08:52Z</time>
  <course>143.47</course>
  <speed>1.0</speed>
  <fix>3d</fix>
</trkpt>
<trkpt lat="33.8105764" lon="-118.3945841">
  <ele>-25.014</ele>
  <time>2026-09-02T22:08:52Z</time>
  <course>233.46</course>
  <speed>1.0125709851659783</speed>
  <fix>3d</fix>
</trkpt>
<trkpt lat="33.8105784" lon="-118.3945855">
  <ele>-24.41</ele>
  <time>2026-09-02T22:08:52Z</time>
  <course>143.47</course>
  <speed>1.0</speed>
  <fix>3d</fix>
</trkpt>
<trkpt lat="33.8105757" lon="-118.3945835">
  <ele>-25.015</ele>
  <time>2026-09-02T22:08:52Z</time>
  <course>233.58</course>
  <speed>1.0125709851659783</speed>
  <fix>3d</fix>
</trkpt>
<trkpt lat="33.8105769" lon="-118.3945842">
  <ele>-24.42</ele>
  <time>2026-09-02T22:08:52Z</time>
  <course>143.71</course>
  <speed>1.0</speed>
  <fix>3d</fix>
</trkpt>
<trkpt lat="33.810575" lon="-118.3945829">
  <ele>-25.016</ele>
  <time>2026-09-02T22:08:52Z</time>
  <course>233.69</course>
  <speed>1.0125709851659783</speed>
  <fix>3d</fix>
</trkpt>
<trkpt lat="33.8105769" lon="-118.3945842">
  <ele>-24.42</ele>
  <time>2026-09-02T22:08:52Z</time>
  <course>143.71</course>
  <speed>1.0</speed>
  <fix>3d</fix>
</trkpt>
<trkpt lat="33.8105743" lon="-118.3945822">
  <ele>-25.016</ele>
  <time>2026-09-02T22:08:52Z</time>
  <course>233.8</course>
  <speed>1.0068763578513502</speed>
  <fix>3d</fix>
</trkpt>
<trkpt lat="33.8105754" lon="-118.3945829">
  <ele>-24.42</ele>
  <time>2026-09-02T22:08:52Z</time>
  <course>143.97</course>
  <speed>1.0</speed>
  <fix>3d</fix>
</trkpt>
<trkpt lat="33.8105735" lon="-118.3945816">
  <ele>-25.016</ele>
  <time>2026-09-02T22:08:52Z</time>
  <course>233.92</course>
  <speed>1.0151354589413177</speed>
  <fix>3d</fix>
</trkpt>
<trkpt lat="33.8105754" lon="-118.3945829">
  <ele>-24.42</ele>
  <time>2026-09-02T22:08:52Z</time>
  <course>143.97</course>
  <speed>1.0</speed>
  <fix>3d</fix>
</trkpt>
<trkpt lat="33.8105728" lon="-118.3945809">
  <ele>-25.016</ele>
  <time>2026-09-02T22:08:52Z</time>
  <course>234.04</course>
  <speed>1.0151354589413177</speed>
  <fix>3d</fix>
</trkpt>
<trkpt lat="33.810574" lon="-118.3945817">
  <ele>-24.42</ele>
  <time>2026-09-02T22:08:52Z</time>
  <course>144.2</course>
  <speed>0.99</speed>
  <fix>3d</fix>
</trkpt>
<trkpt lat="33.8105721" lon="-118.3945803">
  <ele>-25.016</ele>
  <time>2026-09-02T22:08:52Z</time>
  <course>234.15</course>
  <speed>1.0151354589413177</speed>
  <fix>3d</fix>
</trkpt>
<trkpt lat="33.810574" lon="-118.3945817">
  <ele>-24.42</ele>
  <time>2026-09-02T22:08:52Z</time>
  <course>144.2</course>
  <speed>0.99</speed>
  <fix>3d</fix>
</trkpt>
<trkpt lat="33.8105713" lon="-118.3945797">
  <ele>-25.018</ele>
  <time>2026-09-02T22:08:52Z</time>
  <course>234.27</course>
  <speed>1.0151354589413177</speed>
  <fix>3d</fix>
</trkpt>
<trkpt lat="33.8105725" lon="-118.3945804">
  <ele>-24.42</ele>
  <time>2026-09-02T22:08:52Z</time>
  <course>144.4</course>
  <speed>0.99</speed>
  <fix>3d</fix>
</trkpt>
<trkpt lat="33.8105706" lon="-118.3945791">
  <ele>-25.02</ele>
  <time>2026-09-02T22:08:52Z</time>
  <course>234.38</course>
  <speed>1.0151354589413177</speed>
  <fix>3d</fix>
</trkpt>
<trkpt lat="33.8105725" lon="-118.3945804">
  <ele>-24.42</ele>
  <time>2026-09-02T22:08:52Z</time>
  <course>144.4</course>
  <speed>0.99</speed>
  <fix>3d</fix>
</trkpt>
<trkpt lat="33.8105699" lon="-118.3945784">
  <ele>-25.021</ele>
  <time>2026-09-02T22:08:52Z</time>
  <course>234.49</course>
  <speed>1.0151354589413177</speed>
  <fix>3d</fix>
</trkpt>
<trkpt lat="33.8105711" lon="-118.3945791">
  <ele>-24.42</ele>
  <time>2026-09-02T22:08:52Z</time>
  <course>144.6</course>
  <speed>0.99</speed>
  <fix>3d</fix>
</trkpt>
<trkpt lat="33.8105691" lon="-118.3945778">
  <ele>-25.021</ele>
  <time>2026-09-02T22:08:52Z</time>
  <course>234.61</course>
  <speed>1.009554357129917</speed>
  <fix>3d</fix>
</trkpt>
<trkpt lat="33.8105711" lon="-118.3945791">
  <ele>-24.42</ele>
  <time>2026-09-02T22:08:52Z</time>
  <course>144.6</course>
  <speed>0.99</speed>
  <fix>3d</fix>
</trkpt>
<trkpt lat="33.8105684" lon="-118.3945772">
  <ele>-25.021</ele>
  <time>2026-09-02T22:08:52Z</time>
  <course>234.72</course>
  <speed>1.009554357129917</speed>
  <fix>3d</fix>
</trkpt>
<trkpt lat="33.8105696" lon="-118.3945779">
  <ele>-24.41</ele>
  <time>2026-09-02T22:08:52Z</time>
  <course>144.82</course>
  <speed>0.99</speed>
  <fix>3d</fix>
</trkpt>
<trkpt lat="33.8105677" lon="-118.3945766">
  <ele>-25.019</ele>
  <time>2026-09-02T22:08:52Z</time>
  <course>234.84</course>
  <speed>1.009554357129917</speed>
  <fix>3d</fix>
</trkpt>
<trkpt lat="33.8105696" lon="-118.3945779">
  <ele>-24.41</ele>
  <time>2026-09-02T22:08:52Z</time>
  <course>144.82</course>
  <speed>0.99</speed>
  <fix>3d</fix>
</trkpt>
<trkpt lat="33.8105669" lon="-118.3945759">
  <ele>-25.016</ele>
  <time>2026-09-02T22:08:52Z</time>
  <course>234.95</course>
  <speed>1.0178899744078433</speed>
  <fix>3d</fix>
</trkpt>
<trkpt lat="33.8105681" lon="-118.3945766">
  <ele>-24.41</ele>
  <time>2026-09-02T22:08:52Z</time>
  <course>145.07</course>
  <speed>0.99</speed>
  <fix>3d</fix>
</trkpt>
<trkpt lat="33.8105662" lon="-118.3945753">
  <ele>-25.012</ele>
  <time>2026-09-02T22:08:52Z</time>
  <course>235.07</course>
  <speed>1.0178899744078433</speed>
  <fix>3d</fix>
</trkpt>
<trkpt lat="33.8105681" lon="-118.3945766">
  <ele>-24.41</ele>
  <time>2026-09-02T22:08:52Z</time>
  <course>145.07</course>
  <speed>0.99</speed>
  <fix>3d</fix>
</trkpt>
<trkpt lat="33.8105654" lon="-118.3945747">
  <ele>-25.009</ele>
  <time>2026-09-02T22:08:52Z</time>
  <course>235.18</course>
  <speed>1.0124228365658294</speed>
  <fix>3d</fix>
</trkpt>
<trkpt lat="33.8105666" lon="-118.3945755">
  <ele>-24.4</ele>
  <time>2026-09-02T22:08:52Z</time>
  <course>145.31</course>
  <speed>0.99</speed>
  <fix>3d</fix>
</trkpt>
<trkpt lat="33.8105647" lon="-118.3945741">
  <ele>-25.008</ele>
  <time>2026-09-02T22:08:52Z</time>
  <course>235.3</course>
  <speed>1.0124228365658294</speed>
  <fix>3d</fix>
</trkpt>
<trkpt lat="33.8105666" lon="-118.3945755">
  <ele>-24.4</ele>
  <time>2026-09-02T22:08:52Z</time>
  <course>145.31</course>
  <speed>0.99</speed>
  <fix>3d</fix>
</trkpt>
<trkpt lat="33.810564" lon="-118.3945735">
  <ele>-25.009</ele>
  <time>2026-09-02T22:08:52Z</time>
  <course>235.41</course>
  <speed>1.0124228365658294</speed>
  <fix>3d</fix>
</trkpt>
<trkpt lat="33.8105652" lon="-118.3945742">
  <ele>-24.4</ele>
  <time>2026-09-02T22:08:52Z</time>
  <course>145.49</course>
  <speed>0.99</speed>
  <fix>3d</fix>
</trkpt>
<trkpt lat="33.8105632" lon="-118.3945729">
  <ele>-25.01</ele>
  <time>2026-09-02T22:08:52Z</time>
  <course>235.53</course>
  <speed>1.0124228365658294</speed>
  <fix>3d</fix>
</trkpt>
<trkpt lat="33.8105652" lon="-118.3945742">
  <ele>-24.4</ele>
  <time>2026-09-02T22:08:52Z</time>
  <course>145.49</course>
  <speed>0.99</speed>
  <fix>3d</fix>
</trkpt>
<trkpt lat="33.8105625" lon="-118.3945723">
  <ele>-25.011</ele>
  <time>2026-09-02T22:08:52Z</time>
  <course>235.64</course>
  <speed>1.0124228365658294</speed>
  <fix>3d</fix>
</trkpt>
<trkpt lat="33.8105637" lon="-118.394573">
  <ele>-24.4</ele>
  <time>2026-09-02T22:08:52Z</time>
  <course>145.64</course>
  <speed>0.99</speed>
  <fix>3d</fix>
</trkpt>
<trkpt lat="33.8105617" lon="-118.3945717">
  <ele>-25.012</ele>
  <time>2026-09-02T22:08:52Z</time>
  <course>235.76</course>
  <speed>1.0124228365658294</speed>
  <fix>3d</fix>
</trkpt>
<trkpt lat="33.8105637" lon="-118.394573">
  <ele>-24.4</ele>
  <time>2026-09-02T22:08:52Z</time>
  <course>145.64</course>
  <speed>0.99</speed>
  <fix>3d</fix>
</trkpt>
<trkpt lat="33.810561" lon="-118.3945711">
  <ele>-25.012</ele>
  <time>2026-09-02T22:08:52Z</time>
  <course>235.87</course>
  <speed>1.0124228365658294</speed>
  <fix>3d</fix>
</trkpt>
<trkpt lat="33.8105622" lon="-118.3945718">
  <ele>-24.4</ele>
  <time>2026-09-02T22:08:52Z</time>
  <course>145.84</course>
  <speed>0.99</speed>
  <fix>3d</fix>
</trkpt>
<trkpt lat="33.8105602" lon="-118.3945705">
  <ele>-25.012</ele>
  <time>2026-09-02T22:08:52Z</time>
  <course>235.98</course>
  <speed>1.0124228365658294</speed>
  <fix>3d</fix>
</trkpt>
<trkpt lat="33.8105622" lon="-118.3945718">
  <ele>-24.4</ele>
  <time>2026-09-02T22:08:52Z</time>
  <course>145.84</course>
  <speed>0.99</speed>
  <fix>3d</fix>
</trkpt>
<trkpt lat="33.8105595" lon="-118.3945699">
  <ele>-25.012</ele>
  <time>2026-09-02T22:08:52Z</time>
  <course>236.1</course>
  <speed>1.0070253224224304</speed>
  <fix>3d</fix>
</trkpt>
<trkpt lat="33.8105607" lon="-118.3945706">
  <ele>-24.4</ele>
  <time>2026-09-02T22:08:52Z</time>
  <course>146.04</course>
  <speed>0.99</speed>
  <fix>3d</fix>
</trkpt>
<trkpt lat="33.8105587" lon="-118.3945693">
  <ele>-25.012</ele>
  <time>2026-09-02T22:08:52Z</time>
  <course>236.21</course>
  <speed>1.0154801819828883</speed>
  <fix>3d</fix>
</trkpt>
<trkpt lat="33.8105607" lon="-118.3945706">
  <ele>-24.4</ele>
  <time>2026-09-02T22:08:52Z</time>
  <course>146.04</course>
  <speed>0.99</speed>
  <fix>3d</fix>
</trkpt>
<trkpt lat="33.810558" lon="-118.3945687">
  <ele>-25.012</ele>
  <time>2026-09-02T22:08:52Z</time>
  <course>236.33</course>
  <speed>1.0154801819828883</speed>
  <fix>3d</fix>
</trkpt>
<trkpt lat="33.8105592" lon="-118.3945694">
  <ele>-24.41</ele>
  <time>2026-09-02T22:08:52Z</time>
  <course>146.22</course>
  <speed>0.99</speed>
  <fix>3d</fix>
</trkpt>
<trkpt lat="33.8105572" lon="-118.3945681">
  <ele>-25.013</ele>
  <time>2026-09-02T22:08:52Z</time>
  <course>236.44</course>
  <speed>1.0154801819828883</speed>
  <fix>3d</fix>
</trkpt>
<trkpt lat="33.8105592" lon="-118.3945694">
  <ele>-24.41</ele>
  <time>2026-09-02T22:08:52Z</time>
  <course>146.22</course>
  <speed>0.99</speed>
  <fix>3d</fix>
</trkpt>
<trkpt lat="33.8105565" lon="-118.3945675">
  <ele>-25.013</ele>
  <time>2026-09-02T22:08:52Z</time>
  <course>236.56</course>
  <speed>1.0154801819828883</speed>
  <fix>3d</fix>
</trkpt>
<trkpt lat="33.8105577" lon="-118.3945681">
  <ele>-24.41</ele>
  <time>2026-09-02T22:08:52Z</time>
  <course>146.39</course>
  <speed>0.99</speed>
  <fix>3d</fix>
</trkpt>
<trkpt lat="33.8105557" lon="-118.3945669">
  <ele>-25.014</ele>
  <time>2026-09-02T22:08:52Z</time>
  <course>236.67</course>
  <speed>1.010198000393982</speed>
  <fix>3d</fix>
</trkpt>
<trkpt lat="33.8105577" lon="-118.3945681">
  <ele>-24.41</ele>
  <time>2026-09-02T22:08:52Z</time>
  <course>146.39</course>
  <speed>0.99</speed>
  <fix>3d</fix>
</trkpt>
<trkpt lat="33.810555" lon="-118.3945663">
  <ele>-25.016</ele>
  <time>2026-09-02T22:08:52Z</time>
  <course>236.78</course>
  <speed>1.010198000393982</speed>
  <fix>3d</fix>
</trkpt>
<trkpt lat="33.8105562" lon="-118.394567">
  <ele>-24.41</ele>
  <time>2026-09-02T22:08:52Z</time>
  <course>146.61</course>
  <speed>0.99</speed>
  <fix>3d</fix>
</trkpt>
<trkpt lat="33.8105542" lon="-118.3945657">
  <ele>-25.017</ele>
  <time>2026-09-02T22:08:52Z</time>
  <course>236.9</course>
  <speed>1.010198000393982</speed>
  <fix>3d</fix>
</trkpt>
<trkpt lat="33.8105562" lon="-118.394567">
  <ele>-24.41</ele>
  <time>2026-09-02T22:08:52Z</time>
  <course>146.61</course>
  <speed>0.99</speed>
  <fix>3d</fix>
</trkpt>
<trkpt lat="33.8105535" lon="-118.3945651">
  <ele>-25.017</ele>
  <time>2026-09-02T22:08:52Z</time>
  <course>237.02</course>
  <speed>1.010198000393982</speed>
  <fix>3d</fix>
</trkpt>
<trkpt lat="33.8105548" lon="-118.3945658">
  <ele>-24.41</ele>
  <time>2026-09-02T22:08:52Z</time>
  <course>146.86</course>
  <speed>0.99</speed>
  <fix>3d</fix>
</trkpt>
<trkpt lat="33.8105527" lon="-118.3945645">
  <ele>-25.017</ele>
  <time>2026-09-02T22:08:52Z</time>
  <course>237.13</course>
  <speed>1.0187246929372038</speed>
  <fix>3d</fix>
</trkpt>
<trkpt lat="33.8105548" lon="-118.3945658">
  <ele>-24.41</ele>
  <time>2026-09-02T22:08:52Z</time>
  <course>146.86</course>
  <speed>0.99</speed>
  <fix>3d</fix>
</trkpt>
<trkpt lat="33.810552" lon="-118.3945639">
  <ele>-25.015</ele>
  <time>2026-09-02T22:08:52Z</time>
  <course>237.25</course>
  <speed>1.0187246929372038</speed>
  <fix>3d</fix>
</trkpt>
<trkpt lat="33.8105532" lon="-118.3945647">
  <ele>-24.41</ele>
  <time>2026-09-02T22:08:52Z</time>
  <course>147.12</course>
  <speed>0.99</speed>
  <fix>3d</fix>
</trkpt>
<trkpt lat="33.8105512" lon="-118.3945634">
  <ele>-25.012</ele>
  <time>2026-09-02T22:08:52Z</time>
  <course>237.36</course>
  <speed>1.0135580891098448</speed>
  <fix>3d</fix>
</trkpt>
<trkpt lat="33.8105532" lon="-118.3945647">
  <ele>-24.41</ele>
  <time>2026-09-02T22:08:52Z</time>
  <course>147.12</course>
  <speed>0.99</speed>
  <fix>3d</fix>
</trkpt>
<trkpt lat="33.8105505" lon="-118.3945628">
  <ele>-25.009</ele>
  <time>2026-09-02T22:08:52Z</time>
  <course>237.48</course>
  <speed>1.0135580891098448</speed>
  <fix>3d</fix>
</trkpt>
<trkpt lat="33.8105517" lon="-118.3945635">
  <ele>-24.4</ele>
  <time>2026-09-02T22:08:52Z</time>
  <course>147.36</course>
  <speed>0.99</speed>
  <fix>3d</fix>
</trkpt>
<trkpt lat="33.8105497" lon="-118.3945622">
  <ele>-25.007</ele>
  <time>2026-09-02T22:08:52Z</time>
  <course>237.59</course>
  <speed>1.0135580891098448</speed>
  <fix>3d</fix>
</trkpt>
<trkpt lat="33.8105517" lon="-118.3945635">
  <ele>-24.4</ele>
  <time>2026-09-02T22:08:52Z</time>
  <course>147.36</course>
  <speed>0.99</speed>
  <fix>3d</fix>
</trkpt>
<trkpt lat="33.8105489" lon="-118.3945616">
  <ele>-25.006</ele>
  <time>2026-09-02T22:08:52Z</time>
  <course>237.71</course>
  <speed>1.0135580891098448</speed>
  <fix>3d</fix>
</trkpt>
<trkpt lat="33.8105502" lon="-118.3945623">
  <ele>-24.4</ele>
  <time>2026-09-02T22:08:52Z</time>
  <course>147.54</course>
  <speed>0.99</speed>
  <fix>3d</fix>
</trkpt>
<trkpt lat="33.8105482" lon="-118.3945611">
  <ele>-25.006</ele>
  <time>2026-09-02T22:08:52Z</time>
  <course>237.82</course>
  <speed>1.0135580891098448</speed>
  <fix>3d</fix>
</trkpt>
<trkpt lat="33.8105502" lon="-118.3945623">
  <ele>-24.4</ele>
  <time>2026-09-02T22:08:52Z</time>
  <course>147.54</course>
  <speed>0.99</speed>
  <fix>3d</fix>
</trkpt>
<trkpt lat="33.8105474" lon="-118.3945605">
  <ele>-25.007</ele>
  <time>2026-09-02T22:08:52Z</time>
  <course>237.93</course>
  <speed>1.0135580891098448</speed>
  <fix>3d</fix>
</trkpt>
<trkpt lat="33.8105487" lon="-118.3945612">
  <ele>-24.4</ele>
  <time>2026-09-02T22:08:52Z</time>
  <course>147.75</course>
  <speed>0.99</speed>
  <fix>3d</fix>
</trkpt>
<trkpt lat="33.8105466" lon="-118.3945599">
  <ele>-25.009</ele>
  <time>2026-09-02T22:08:52Z</time>
  <course>238.05</course>
  <speed>1.022154587134451</speed>
  <fix>3d</fix>
</trkpt>
<trkpt lat="33.8105487" lon="-118.3945612">
  <ele>-24.4</ele>
  <time>2026-09-02T22:08:52Z</time>
  <course>147.75</course>
  <speed>0.99</speed>
  <fix>3d</fix>
</trkpt>
<trkpt lat="33.8105459" lon="-118.3945594">
  <ele>-25.011</ele>
  <time>2026-09-02T22:08:52Z</time>
  <course>238.16</course>
  <speed>1.0171037311896953</speed>
  <fix>3d</fix>
</trkpt>
<trkpt lat="33.8105472" lon="-118.39456">
  <ele>-24.4</ele>
  <time>2026-09-02T22:08:52Z</time>
  <course>147.99</course>
  <speed>0.99</speed>
  <fix>3d</fix>
</trkpt>
<trkpt lat="33.8105451" lon="-118.3945588">
  <ele>-25.013</ele>
  <time>2026-09-02T22:08:52Z</time>
  <course>238.28</course>
  <speed>1.0171037311896953</speed>
  <fix>3d</fix>
</trkpt>
<trkpt lat="33.8105472" lon="-118.39456">
  <ele>-24.4</ele>
  <time>2026-09-02T22:08:52Z</time>
  <course>147.99</course>
  <speed>0.99</speed>
  <fix>3d</fix>
</trkpt>
<trkpt lat="33.8105444" lon="-118.3945582">
  <ele>-25.014</ele>
  <time>2026-09-02T22:08:52Z</time>
  <course>238.39</course>
  <speed>1.0171037311896953</speed>
  <fix>3d</fix>
</trkpt>
<trkpt lat="33.8105457" lon="-118.3945589">
  <ele>-24.41</ele>
  <time>2026-09-02T22:08:52Z</time>
  <course>148.25</course>
  <speed>1.0</speed>
  <fix>3d</fix>
</trkpt>
<trkpt lat="33.8105436" lon="-118.3945577">
  <ele>-25.014</ele>
  <time>2026-09-02T22:08:52Z</time>
  <course>238.5</course>
  <speed>1.0171037311896953</speed>
  <fix>3d</fix>
</trkpt>
<trkpt lat="33.8105457" lon="-118.3945589">
  <ele>-24.41</ele>
  <time>2026-09-02T22:08:52Z</time>
  <course>148.25</course>
  <speed>1.0</speed>
  <fix>3d</fix>
</trkpt>
<trkpt lat="33.8105428" lon="-118.3945571">
  <ele>-25.015</ele>
  <time>2026-09-02T22:08:52Z</time>
  <course>238.62</course>
  <speed>1.0171037311896953</speed>
  <fix>3d</fix>
</trkpt>
<trkpt lat="33.8105441" lon="-118.3945577">
  <ele>-24.41</ele>
  <time>2026-09-02T22:08:52Z</time>
  <course>148.54</course>
  <speed>1.0</speed>
  <fix>3d</fix>
</trkpt>
<trkpt lat="33.8105421" lon="-118.3945565">
  <ele>-25.017</ele>
  <time>2026-09-02T22:08:52Z</time>
  <course>238.74</course>
  <speed>1.0208329931972222</speed>
  <fix>3d</fix>
</trkpt>
<trkpt lat="33.8105441" lon="-118.3945577">
  <ele>-24.41</ele>
  <time>2026-09-02T22:08:52Z</time>
  <course>148.54</course>
  <speed>1.0</speed>
  <fix>3d</fix>
</trkpt>
<trkpt lat="33.8105413" lon="-118.394556">
  <ele>-25.019</ele>
  <time>2026-09-02T22:08:52Z</time>
  <course>238.85</course>
  <speed>1.0208329931972222</speed>
  <fix>3d</fix>
</trkpt>
<trkpt lat="33.8105426" lon="-118.3945566">
  <ele>-24.41</ele>
  <time>2026-09-02T22:08:52Z</time>
  <course>148.82</course>
  <speed>1.0</speed>
  <fix>3d</fix>
</trkpt>
<trkpt lat="33.8105405" lon="-118.3945554">
  <ele>-25.02</ele>
  <time>2026-09-02T22:08:52Z</time>
  <course>238.96</course>
  <speed>1.0208329931972222</speed>
  <fix>3d</fix>
</trkpt>
<trkpt lat="33.8105426" lon="-118.3945566">
  <ele>-24.41</ele>
  <time>2026-09-02T22:08:52Z</time>
  <course>148.82</course>
  <speed>1.0</speed>
  <fix>3d</fix>
</trkpt>
<trkpt lat="33.8105397" lon="-118.3945549">
  <ele>-25.019</ele>
  <time>2026-09-02T22:08:52Z</time>
  <course>239.08</course>
  <speed>1.0208329931972222</speed>
  <fix>3d</fix>
</trkpt>
<trkpt lat="33.810541" lon="-118.3945555">
  <ele>-24.41</ele>
  <time>2026-09-02T22:08:52Z</time>
  <course>149.08</course>
  <speed>1.0</speed>
  <fix>3d</fix>
</trkpt>
<trkpt lat="33.810539" lon="-118.3945543">
  <ele>-25.017</ele>
  <time>2026-09-02T22:08:52Z</time>
  <course>239.2</course>
  <speed>1.0208329931972222</speed>
  <fix>3d</fix>
</trkpt>
<trkpt lat="33.810541" lon="-118.3945555">
  <ele>-24.41</ele>
  <time>2026-09-02T22:08:52Z</time>
  <course>149.08</course>
  <speed>1.0</speed>
  <fix>3d</fix>
</trkpt>
<trkpt lat="33.8105382" lon="-118.3945538">
  <ele>-25.014</ele>
  <time>2026-09-02T22:08:52Z</time>
  <course>239.31</course>
  <speed>1.0159724405711013</speed>
  <fix>3d</fix>
</trkpt>
<trkpt lat="33.8105395" lon="-118.3945544">
  <ele>-24.41</ele>
  <time>2026-09-02T22:08:52Z</time>
  <course>149.31</course>
  <speed>1.0</speed>
  <fix>3d</fix>
</trkpt>
<trkpt lat="33.8105374" lon="-118.3945532">
  <ele>-25.012</ele>
  <time>2026-09-02T22:08:52Z</time>
  <course>239.42</course>
  <speed>1.0159724405711013</speed>
  <fix>3d</fix>
</trkpt>
<trkpt lat="33.8105395" lon="-118.3945544">
  <ele>-24.41</ele>
  <time>2026-09-02T22:08:52Z</time>
  <course>149.31</course>
  <speed>1.0</speed>
  <fix>3d</fix>
</trkpt>
<trkpt lat="33.8105366" lon="-118.3945527">
  <ele>-25.011</ele>
  <time>2026-09-02T22:08:52Z</time>
  <course>239.53</course>
  <speed>1.0159724405711013</speed>
  <fix>3d</fix>
</trkpt>
<trkpt lat="33.8105379" lon="-118.3945533">
  <ele>-24.41</ele>
  <time>2026-09-02T22:08:52Z</time>
  <course>149.52</course>
  <speed>1.0</speed>
  <fix>3d</fix>
</trkpt>
<trkpt lat="33.8105359" lon="-118.3945521">
  <ele>-25.011</ele>
  <time>2026-09-02T22:08:52Z</time>
  <course>239.65</course>
  <speed>1.0159724405711013</speed>
  <fix>3d</fix>
</trkpt>
<trkpt lat="33.8105379" lon="-118.3945533">
  <ele>-24.41</ele>
  <time>2026-09-02T22:08:52Z</time>
  <course>149.52</course>
  <speed>1.0</speed>
  <fix>3d</fix>
</trkpt>
<trkpt lat="33.8105351" lon="-118.3945516">
  <ele>-25.012</ele>
  <time>2026-09-02T22:08:52Z</time>
  <course>239.77</course>
  <speed>1.0159724405711013</speed>
  <fix>3d</fix>
</trkpt>
<trkpt lat="33.8105364" lon="-118.3945522">
  <ele>-24.41</ele>
  <time>2026-09-02T22:08:52Z</time>
  <course>149.72</course>
  <speed>1.0</speed>
  <fix>3d</fix>
</trkpt>
<trkpt lat="33.8105343" lon="-118.394551">
  <ele>-25.012</ele>
  <time>2026-09-02T22:08:52Z</time>
  <course>239.88</course>
  <speed>1.0159724405711013</speed>
  <fix>3d</fix>
</trkpt>
<trkpt lat="33.8105364" lon="-118.3945522">
  <ele>-24.41</ele>
  <time>2026-09-02T22:08:52Z</time>
  <course>149.72</course>
  <speed>1.0</speed>
  <fix>3d</fix>
</trkpt>
<trkpt lat="33.8105335" lon="-118.3945505">
  <ele>-25.013</ele>
  <time>2026-09-02T22:08:52Z</time>
  <course>240.0</course>
  <speed>1.0111874208078342</speed>
  <fix>3d</fix>
</trkpt>
<trkpt lat="33.8105348" lon="-118.3945511">
  <ele>-24.41</ele>
  <time>2026-09-02T22:08:52Z</time>
  <course>149.92</course>
  <speed>1.0</speed>
  <fix>3d</fix>
</trkpt>
<trkpt lat="33.8105327" lon="-118.39455">
  <ele>-25.014</ele>
  <time>2026-09-02T22:08:52Z</time>
  <course>240.11</course>
  <speed>1.02</speed>
  <fix>3d</fix>
</trkpt>
<trkpt lat="33.8105348" lon="-118.3945511">
  <ele>-24.41</ele>
  <time>2026-09-02T22:08:52Z</time>
  <course>149.92</course>
  <speed>1.0</speed>
  <fix>3d</fix>
</trkpt>
<trkpt lat="33.810532" lon="-118.3945494">
  <ele>-25.015</ele>
  <time>2026-09-02T22:08:52Z</time>
  <course>240.23</course>
  <speed>1.02</speed>
  <fix>3d</fix>
</trkpt>
<trkpt lat="33.8105333" lon="-118.39455">
  <ele>-24.41</ele>
  <time>2026-09-02T22:08:52Z</time>
  <course>150.13</course>
  <speed>1.0</speed>
  <fix>3d</fix>
</trkpt>
<trkpt lat="33.8105312" lon="-118.3945489">
  <ele>-25.016</ele>
  <time>2026-09-02T22:08:52Z</time>
  <course>240.34</course>
  <speed>1.02</speed>
  <fix>3d</fix>
</trkpt>
<trkpt lat="33.8105333" lon="-118.39455">
  <ele>-24.41</ele>
  <time>2026-09-02T22:08:52Z</time>
  <course>150.13</course>
  <speed>1.0</speed>
  <fix>3d</fix>
</trkpt>
<trkpt lat="33.8105304" lon="-118.3945484">
  <ele>-25.017</ele>
  <time>2026-09-02T22:08:52Z</time>
  <course>240.46</course>
  <speed>1.02</speed>
  <fix>3d</fix>
</trkpt>
<trkpt lat="33.8105318" lon="-118.3945489">
  <ele>-24.41</ele>
  <time>2026-09-02T22:08:52Z</time>
  <course>150.39</course>
  <speed>1.0</speed>
  <fix>3d</fix>
</trkpt>
<trkpt lat="33.8105296" lon="-118.3945478">
  <ele>-25.016</ele>
  <time>2026-09-02T22:08:52Z</time>
  <course>240.56</course>
  <speed>1.015332457867865</speed>
  <fix>3d</fix>
</trkpt>
<trkpt lat="33.8105318" lon="-118.3945489">
  <ele>-24.41</ele>
  <time>2026-09-02T22:08:52Z</time>
  <course>150.39</course>
  <speed>1.0</speed>
  <fix>3d</fix>
</trkpt>
<trkpt lat="33.8105288" lon="-118.3945473">
  <ele>-25.015</ele>
  <time>2026-09-02T22:08:52Z</time>
  <course>240.68</course>
  <speed>1.015332457867865</speed>
  <fix>3d</fix>
</trkpt>
<trkpt lat="33.8105302" lon="-118.3945479">
  <ele>-24.41</ele>
  <time>2026-09-02T22:08:52Z</time>
  <course>150.7</course>
  <speed>1.0</speed>
  <fix>3d</fix>
</trkpt>
<trkpt lat="33.810528" lon="-118.3945468">
  <ele>-25.014</ele>
  <time>2026-09-02T22:08:52Z</time>
  <course>240.8</course>
  <speed>1.015332457867865</speed>
  <fix>3d</fix>
</trkpt>
<trkpt lat="33.8105302" lon="-118.3945479">
  <ele>-24.41</ele>
  <time>2026-09-02T22:08:52Z</time>
  <course>150.7</course>
  <speed>1.0</speed>
  <fix>3d</fix>
</trkpt>
<trkpt lat="33.8105273" lon="-118.3945463">
  <ele>-25.014</ele>
  <time>2026-09-02T22:08:52Z</time>
  <course>240.91</course>
  <speed>1.015332457867865</speed>
  <fix>3d</fix>
</trkpt>
<trkpt lat="33.8105286" lon="-118.3945468">
  <ele>-24.41</ele>
  <time>2026-09-02T22:08:52Z</time>
  <course>151.02</course>
  <speed>1.0</speed>
  <fix>3d</fix>
</trkpt>
<trkpt lat="33.8105265" lon="-118.3945457">
  <ele>-25.015</ele>
  <time>2026-09-02T22:08:52Z</time>
  <course>241.03</course>
  <speed>1.0196568050084303</speed>
  <fix>3d</fix>
</trkpt>
<trkpt lat="33.8105286" lon="-118.3945468">
  <ele>-24.41</ele>
  <time>2026-09-02T22:08:52Z</time>
  <course>151.02</course>
  <speed>1.0</speed>
  <fix>3d</fix>
</trkpt>
<trkpt lat="33.8105257" lon="-118.3945452">
  <ele>-25.016</ele>
  <time>2026-09-02T22:08:52Z</time>
  <course>241.14</course>
  <speed>1.0196568050084303</speed>
  <fix>3d</fix>
</trkpt>
<trkpt lat="33.8105271" lon="-118.3945458">
  <ele>-24.4</ele>
  <time>2026-09-02T22:08:52Z</time>
  <course>151.28</course>
  <speed>1.0</speed>
  <fix>3d</fix>
</trkpt>
<trkpt lat="33.8105249" lon="-118.3945447">
  <ele>-25.017</ele>
  <time>2026-09-02T22:08:52Z</time>
  <course>241.26</course>
  <speed>1.0196568050084303</speed>
  <fix>3d</fix>
</trkpt>
<trkpt lat="33.8105271" lon="-118.3945458">
  <ele>-24.4</ele>
  <time>2026-09-02T22:08:52Z</time>
  <course>151.28</course>
  <speed>1.0</speed>
  <fix>3d</fix>
</trkpt>
<trkpt lat="33.8105241" lon="-118.3945442">
  <ele>-25.017</ele>
  <time>2026-09-02T22:08:52Z</time>
  <course>241.37</course>
  <speed>1.0196568050084303</speed>
  <fix>3d</fix>
</trkpt>
<trkpt lat="33.8105255" lon="-118.3945448">
  <ele>-24.4</ele>
  <time>2026-09-02T22:08:52Z</time>
  <course>151.53</course>
  <speed>1.0</speed>
  <fix>3d</fix>
</trkpt>
<trkpt lat="33.8105233" lon="-118.3945437">
  <ele>-25.016</ele>
  <time>2026-09-02T22:08:52Z</time>
  <course>241.49</course>
  <speed>1.0196568050084303</speed>
  <fix>3d</fix>
</trkpt>
<trkpt lat="33.8105255" lon="-118.3945448">
  <ele>-24.4</ele>
  <time>2026-09-02T22:08:52Z</time>
  <course>151.53</course>
  <speed>1.0</speed>
  <fix>3d</fix>
</trkpt>
<trkpt lat="33.8105225" lon="-118.3945432">
  <ele>-25.015</ele>
  <time>2026-09-02T22:08:52Z</time>
  <course>241.6</course>
  <speed>1.0196568050084303</speed>
  <fix>3d</fix>
</trkpt>
<trkpt lat="33.8105239" lon="-118.3945437">
  <ele>-24.4</ele>
  <time>2026-09-02T22:08:52Z</time>
  <course>151.75</course>
  <speed>1.0</speed>
  <fix>3d</fix>
</trkpt>
<trkpt lat="33.8105217" lon="-118.3945427">
  <ele>-25.013</ele>
  <time>2026-09-02T22:08:52Z</time>
  <course>241.72</course>
  <speed>1.0196568050084303</speed>
  <fix>3d</fix>
</trkpt>
<trkpt lat="33.8105239" lon="-118.3945437">
  <ele>-24.4</ele>
  <time>2026-09-02T22:08:52Z</time>
  <course>151.75</course>
  <speed>1.0</speed>
  <fix>3d</fix>
</trkpt>
<trkpt lat="33.8105209" lon="-118.3945421">
  <ele>-25.011</ele>
  <time>2026-09-02T22:08:52Z</time>
  <course>241.83</course>
  <speed>1.0151847122568385</speed>
  <fix>3d</fix>
</trkpt>
<trkpt lat="33.8105223" lon="-118.3945427">
  <ele>-24.4</ele>
  <time>2026-09-02T22:08:52Z</time>
  <course>151.95</course>
  <speed>1.0</speed>
  <fix>3d</fix>
</trkpt>
<trkpt lat="33.8105201" lon="-118.3945416">
  <ele>-25.009</ele>
  <time>2026-09-02T22:08:52Z</time>
  <course>241.95</course>
  <speed>1.0151847122568385</speed>
  <fix>3d</fix>
</trkpt>
<trkpt lat="33.8105223" lon="-118.3945427">
  <ele>-24.4</ele>
  <time>2026-09-02T22:08:52Z</time>
  <course>151.95</course>
  <speed>1.0</speed>
  <fix>3d</fix>
</trkpt>
<trkpt lat="33.8105193" lon="-118.3945411">
  <ele>-25.008</ele>
  <time>2026-09-02T22:08:52Z</time>
  <course>242.06</course>
  <speed>1.0151847122568385</speed>
  <fix>3d</fix>
</trkpt>
<trkpt lat="33.8105207" lon="-118.3945417">
  <ele>-24.4</ele>
  <time>2026-09-02T22:08:52Z</time>
  <course>152.16</course>
  <speed>1.0</speed>
  <fix>3d</fix>
</trkpt>
<trkpt lat="33.8105185" lon="-118.3945406">
  <ele>-25.007</ele>
  <time>2026-09-02T22:08:52Z</time>
  <course>242.18</course>
  <speed>1.0151847122568385</speed>
  <fix>3d</fix>
</trkpt>
<trkpt lat="33.8105207" lon="-118.3945417">
  <ele>-24.4</ele>
  <time>2026-09-02T22:08:52Z</time>
  <course>152.16</course>
  <speed>1.0</speed>
  <fix>3d</fix>
</trkpt>
<trkpt lat="33.8105177" lon="-118.3945401">
  <ele>-25.008</ele>
  <time>2026-09-02T22:08:52Z</time>
  <course>242.29</course>
  <speed>1.0151847122568385</speed>
  <fix>3d</fix>
</trkpt>
<trkpt lat="33.810519" lon="-118.3945407">
  <ele>-24.4</ele>
  <time>2026-09-02T22:08:52Z</time>
  <course>152.37</course>
  <speed>1.0</speed>
  <fix>3d</fix>
</trkpt>
<trkpt lat="33.8105169" lon="-118.3945396">
  <ele>-25.008</ele>
  <time>2026-09-02T22:08:52Z</time>
  <course>242.41</course>
  <speed>1.0151847122568385</speed>
  <fix>3d</fix>
</trkpt>
<trkpt lat="33.810519" lon="-118.3945407">
  <ele>-24.4</ele>
  <time>2026-09-02T22:08:52Z</time>
  <course>152.37</course>
  <speed>1.0</speed>
  <fix>3d</fix>
</trkpt>
<trkpt lat="33.8105161" lon="-118.3945391">
  <ele>-25.01</ele>
  <time>2026-09-02T22:08:52Z</time>
  <course>242.51</course>
  <speed>1.0107917688624102</speed>
  <fix>3d</fix>
</trkpt>
<trkpt lat="33.8105175" lon="-118.3945397">
  <ele>-24.4</ele>
  <time>2026-09-02T22:08:52Z</time>
  <course>152.54</course>
  <speed>1.0</speed>
  <fix>3d</fix>
</trkpt>
<trkpt lat="33.8105153" lon="-118.3945386">
  <ele>-25.012</ele>
  <time>2026-09-02T22:08:52Z</time>
  <course>242.63</course>
  <speed>1.019803902718557</speed>
  <fix>3d</fix>
</trkpt>
<trkpt lat="33.8105175" lon="-118.3945397">
  <ele>-24.4</ele>
  <time>2026-09-02T22:08:52Z</time>
  <course>152.54</course>
  <speed>1.0</speed>
  <fix>3d</fix>
</trkpt>
<trkpt lat="33.8105145" lon="-118.3945381">
  <ele>-25.014</ele>
  <time>2026-09-02T22:08:52Z</time>
  <course>242.75</course>
  <speed>1.019803902718557</speed>
  <fix>3d</fix>
</trkpt>
<trkpt lat="33.8105159" lon="-118.3945387">
  <ele>-24.4</ele>
  <time>2026-09-02T22:08:52Z</time>
  <course>152.7</course>
  <speed>1.0</speed>
  <fix>3d</fix>
</trkpt>
<trkpt lat="33.8105137" lon="-118.3945377">
  <ele>-25.015</ele>
  <time>2026-09-02T22:08:52Z</time>
  <course>242.86</course>
  <speed>1.019803902718557</speed>
  <fix>3d</fix>
</trkpt>
<trkpt lat="33.8105159" lon="-118.3945387">
  <ele>-24.4</ele>
  <time>2026-09-02T22:08:52Z</time>
  <course>152.7</course>
  <speed>1.0</speed>
  <fix>3d</fix>
</trkpt>
<trkpt lat="33.8105129" lon="-118.3945372">
  <ele>-25.016</ele>
  <time>2026-09-02T22:08:52Z</time>
  <course>242.97</course>
  <speed>1.019803902718557</speed>
  <fix>3d</fix>
</trkpt>
<trkpt lat="33.8105142" lon="-118.3945377">
  <ele>-24.41</ele>
  <time>2026-09-02T22:08:52Z</time>
  <course>152.88</course>
  <speed>1.0</speed>
  <fix>3d</fix>
</trkpt>
<trkpt lat="33.8105121" lon="-118.3945367">
  <ele>-25.015</ele>
  <time>2026-09-02T22:08:52Z</time>
  <course>243.09</course>
  <speed>1.019803902718557</speed>
  <fix>3d</fix>
</trkpt>
<trkpt lat="33.8105142" lon="-118.3945377">
  <ele>-24.41</ele>
  <time>2026-09-02T22:08:52Z</time>
  <course>152.88</course>
  <speed>1.0</speed>
  <fix>3d</fix>
</trkpt>
<trkpt lat="33.8105113" lon="-118.3945362">
  <ele>-25.015</ele>
  <time>2026-09-02T22:08:52Z</time>
  <course>243.2</course>
  <speed>1.0155294185792945</speed>
  <fix>3d</fix>
</trkpt>
<trkpt lat="33.8105127" lon="-118.3945367">
  <ele>-24.41</ele>
  <time>2026-09-02T22:08:52Z</time>
  <course>153.07</course>
  <speed>1.0</speed>
  <fix>3d</fix>
</trkpt>
<trkpt lat="33.8105105" lon="-118.3945357">
  <ele>-25.015</ele>
  <time>2026-09-02T22:08:52Z</time>
  <course>243.32</course>
  <speed>1.0155294185792945</speed>
  <fix>3d</fix>
</trkpt>
<trkpt lat="33.8105127" lon="-118.3945367">
  <ele>-24.41</ele>
  <time>2026-09-02T22:08:52Z</time>
  <course>153.07</course>
  <speed>1.0</speed>
  <fix>3d</fix>
</trkpt>
<trkpt lat="33.8105097" lon="-118.3945352">
  <ele>-25.015</ele>
  <time>2026-09-02T22:08:52Z</time>
  <course>243.43</course>
  <speed>1.0155294185792945</speed>
  <fix>3d</fix>
</trkpt>
<trkpt lat="33.8105111" lon="-118.3945357">
  <ele>-24.41</ele>
  <time>2026-09-02T22:08:52Z</time>
  <course>153.28</course>
  <speed>1.0</speed>
  <fix>3d</fix>
</trkpt>
<trkpt lat="33.8105089" lon="-118.3945347">
  <ele>-25.014</ele>
  <time>2026-09-02T22:08:52Z</time>
  <course>243.55</course>
  <speed>1.0155294185792945</speed>
  <fix>3d</fix>
</trkpt>
<trkpt lat="33.8105111" lon="-118.3945357">
  <ele>-24.41</ele>
  <time>2026-09-02T22:08:52Z</time>
  <course>153.28</course>
  <speed>1.0</speed>
  <fix>3d</fix>
</trkpt>
<trkpt lat="33.8105081" lon="-118.3945343">
  <ele>-25.012</ele>
  <time>2026-09-02T22:08:52Z</time>
  <course>243.66</course>
  <speed>1.0113357503816425</speed>
  <fix>3d</fix>
</trkpt>
<trkpt lat="33.8105094" lon="-118.3945348">
  <ele>-24.4</ele>
  <time>2026-09-02T22:08:52Z</time>
  <course>153.56</course>
  <speed>0.99</speed>
  <fix>3d</fix>
</trkpt>
<trkpt lat="33.8105073" lon="-118.3945338">
  <ele>-25.01</ele>
  <time>2026-09-02T22:08:52Z</time>
  <course>243.78</course>
  <speed>1.0113357503816425</speed>
  <fix>3d</fix>
</trkpt>
<trkpt lat="33.8105094" lon="-118.3945348">
  <ele>-24.4</ele>
  <time>2026-09-02T22:08:52Z</time>
  <course>153.56</course>
  <speed>0.99</speed>
  <fix>3d</fix>
</trkpt>
<trkpt lat="33.8105065" lon="-118.3945333">
  <ele>-25.009</ele>
  <time>2026-09-02T22:08:52Z</time>
  <course>243.89</course>
  <speed>1.0113357503816425</speed>
  <fix>3d</fix>
</trkpt>
<trkpt lat="33.8105079" lon="-118.3945338">
  <ele>-24.4</ele>
  <time>2026-09-02T22:08:52Z</time>
  <course>153.82</course>
  <speed>0.99</speed>
  <fix>3d</fix>
</trkpt>
<trkpt lat="33.8105057" lon="-118.3945328">
  <ele>-25.008</ele>
  <time>2026-09-02T22:08:52Z</time>
  <course>244.01</course>
  <speed>1.0204410811016968</speed>
  <fix>3d</fix>
</trkpt>
<trkpt lat="33.8105079" lon="-118.3945338">
  <ele>-24.4</ele>
  <time>2026-09-02T22:08:52Z</time>
  <course>153.82</course>
  <speed>0.99</speed>
  <fix>3d</fix>
</trkpt>
<trkpt lat="33.8105049" lon="-118.3945324">
  <ele>-25.008</ele>
  <time>2026-09-02T22:08:52Z</time>
  <course>244.12</course>
  <speed>1.0204410811016968</speed>
  <fix>3d</fix>
</trkpt>
<trkpt lat="33.8105063" lon="-118.3945328">
  <ele>-24.4</ele>
  <time>2026-09-02T22:08:52Z</time>
  <course>154.06</course>
  <speed>0.99</speed>
  <fix>3d</fix>
</trkpt>
<trkpt lat="33.8105041" lon="-118.3945319">
  <ele>-25.009</ele>
  <time>2026-09-02T22:08:52Z</time>
  <course>244.24</course>
  <speed>1.016366075781753</speed>
  <fix>3d</fix>
</trkpt>
<trkpt lat="33.8105063" lon="-118.3945328">
  <ele>-24.4</ele>
  <time>2026-09-02T22:08:52Z</time>
  <course>154.06</course>
  <speed>0.99</speed>
  <fix>3d</fix>
</trkpt>
<trkpt lat="33.8105032" lon="-118.3945314">
  <ele>-25.012</ele>
  <time>2026-09-02T22:08:52Z</time>
  <course>244.35</course>
  <speed>1.016366075781753</speed>
  <fix>3d</fix>
</trkpt>
<trkpt lat="33.8105046" lon="-118.3945319">
  <ele>-24.4</ele>
  <time>2026-09-02T22:08:52Z</time>
  <course>154.34</course>
  <speed>0.99</speed>
  <fix>3d</fix>
</trkpt>
<trkpt lat="33.8105024" lon="-118.394531">
  <ele>-25.014</ele>
  <time>2026-09-02T22:08:52Z</time>
  <course>244.47</course>
  <speed>1.016366075781753</speed>
  <fix>3d</fix>
</trkpt>
<trkpt lat="33.8105046" lon="-118.3945319">
  <ele>-24.4</ele>
  <time>2026-09-02T22:08:52Z</time>
  <course>154.34</course>
  <speed>0.99</speed>
  <fix>3d</fix>
</trkpt>
<trkpt lat="33.8105016" lon="-118.3945305">
  <ele>-25.015</ele>
  <time>2026-09-02T22:08:52Z</time>
  <course>244.58</course>
  <speed>1.016366075781753</speed>
  <fix>3d</fix>
</trkpt>
<trkpt lat="33.810503" lon="-118.394531">
  <ele>-24.41</ele>
  <time>2026-09-02T22:08:52Z</time>
  <course>154.64</course>
  <speed>1.0</speed>
  <fix>3d</fix>
</trkpt>
<trkpt lat="33.8105008" lon="-118.3945301">
  <ele>-25.016</ele>
  <time>2026-09-02T22:08:52Z</time>
  <course>244.69</course>
  <speed>1.016366075781753</speed>
  <fix>3d</fix>
</trkpt>
<trkpt lat="33.810503" lon="-118.394531">
  <ele>-24.41</ele>
  <time>2026-09-02T22:08:52Z</time>
  <course>154.64</course>
  <speed>1.0</speed>
  <fix>3d</fix>
</trkpt>
<trkpt lat="33.8105" lon="-118.3945296">
  <ele>-25.017</ele>
  <time>2026-09-02T22:08:52Z</time>
  <course>244.81</course>
  <speed>1.016366075781753</speed>
  <fix>3d</fix>
</trkpt>
<trkpt lat="33.8105014" lon="-118.39453">
  <ele>-24.41</ele>
  <time>2026-09-02T22:08:52Z</time>
  <course>154.88</course>
  <speed>1.0</speed>
  <fix>3d</fix>
</trkpt>
<trkpt lat="33.8104992" lon="-118.3945291">
  <ele>-25.017</ele>
  <time>2026-09-02T22:08:52Z</time>
  <course>244.92</course>
  <speed>1.0215674231297707</speed>
  <fix>3d</fix>
</trkpt>
<trkpt lat="33.8105014" lon="-118.39453">
  <ele>-24.41</ele>
  <time>2026-09-02T22:08:52Z</time>
  <course>154.88</course>
  <speed>1.0</speed>
  <fix>3d</fix>
</trkpt>
<trkpt lat="33.8104984" lon="-118.3945287">
  <ele>-25.017</ele>
  <time>2026-09-02T22:08:52Z</time>
  <course>245.04</course>
  <speed>1.0215674231297707</speed>
  <fix>3d</fix>
</trkpt>
<trkpt lat="33.8104998" lon="-118.3945291">
  <ele>-24.41</ele>
  <time>2026-09-02T22:08:52Z</time>
  <course>155.12</course>
  <speed>1.0</speed>
  <fix>3d</fix>
</trkpt>
<trkpt lat="33.8104976" lon="-118.3945282">
  <ele>-25.015</ele>
  <time>2026-09-02T22:08:52Z</time>
  <course>245.15</course>
  <speed>1.0215674231297707</speed>
  <fix>3d</fix>
</trkpt>
<trkpt lat="33.8104998" lon="-118.3945291">
  <ele>-24.41</ele>
  <time>2026-09-02T22:08:52Z</time>
  <course>155.12</course>
  <speed>1.0</speed>
  <fix>3d</fix>
</trkpt>
<trkpt lat="33.8104968" lon="-118.3945278">
  <ele>-25.014</ele>
  <time>2026-09-02T22:08:52Z</time>
  <course>245.27</course>
  <speed>1.0215674231297707</speed>
  <fix>3d</fix>
</trkpt>
<trkpt lat="33.8104981" lon="-118.3945282">
  <ele>-24.41</ele>
  <time>2026-09-02T22:08:52Z</time>
  <course>155.39</course>
  <speed>1.0</speed>
  <fix>3d</fix>
</trkpt>
<trkpt lat="33.8104959" lon="-118.3945273">
  <ele>-25.012</ele>
  <time>2026-09-02T22:08:52Z</time>
  <course>245.38</course>
  <speed>1.0215674231297707</speed>
  <fix>3d</fix>
</trkpt>
<trkpt lat="33.8104981" lon="-118.3945282">
  <ele>-24.41</ele>
  <time>2026-09-02T22:08:52Z</time>
  <course>155.39</course>
  <speed>1.0</speed>
  <fix>3d</fix>
</trkpt>
<trkpt lat="33.8104951" lon="-118.3945269">
  <ele>-25.011</ele>
  <time>2026-09-02T22:08:52Z</time>
  <course>245.5</course>
  <speed>1.0176934705499492</speed>
  <fix>3d</fix>
</trkpt>
<trkpt lat="33.8104965" lon="-118.3945273">
  <ele>-24.41</ele>
  <time>2026-09-02T22:08:52Z</time>
  <course>155.67</course>
  <speed>1.0</speed>
  <fix>3d</fix>
</trkpt>
<trkpt lat="33.8104943" lon="-118.3945264">
  <ele>-25.011</ele>
  <time>2026-09-02T22:08:52Z</time>
  <course>245.61</course>
  <speed>1.0176934705499492</speed>
  <fix>3d</fix>
</trkpt>
<trkpt lat="33.8104965" lon="-118.3945273">
  <ele>-24.41</ele>
  <time>2026-09-02T22:08:52Z</time>
  <course>155.67</course>
  <speed>1.0</speed>
  <fix>3d</fix>
</trkpt>
<trkpt lat="33.8104935" lon="-118.394526">
  <ele>-25.012</ele>
  <time>2026-09-02T22:08:52Z</time>
  <course>245.72</course>
  <speed>1.0176934705499492</speed>
  <fix>3d</fix>
</trkpt>
<trkpt lat="33.8104948" lon="-118.3945264">
  <ele>-24.41</ele>
  <time>2026-09-02T22:08:52Z</time>
  <course>155.9</course>
  <speed>1.0</speed>
  <fix>3d</fix>
</trkpt>
<trkpt lat="33.8104927" lon="-118.3945256">
  <ele>-25.012</ele>
  <time>2026-09-02T22:08:52Z</time>
  <course>245.84</course>
  <speed>1.0176934705499492</speed>
  <fix>3d</fix>
</trkpt>
<trkpt lat="33.8104948" lon="-118.3945264">
  <ele>-24.41</ele>
  <time>2026-09-02T22:08:52Z</time>
  <course>155.9</course>
  <speed>1.0</speed>
  <fix>3d</fix>
</trkpt>
<trkpt lat="33.8104918" lon="-118.3945251">
  <ele>-25.013</ele>
  <time>2026-09-02T22:08:53Z</time>
  <course>245.95</course>
  <speed>1.0176934705499492</speed>
  <fix>3d</fix>
</trkpt>
<trkpt lat="33.8104931" lon="-118.3945255">
  <ele>-24.41</ele>
  <time>2026-09-02T22:08:53Z</time>
  <course>156.13</course>
  <speed>1.0</speed>
  <fix>3d</fix>
</trkpt>
<trkpt lat="33.810491" lon="-118.3945247">
  <ele>-25.013</ele>
  <time>2026-09-02T22:08:53Z</time>
  <course>246.07</course>
  <speed>1.0139033484509261</speed>
  <fix>3d</fix>
</trkpt>
<trkpt lat="33.8104931" lon="-118.3945255">
  <ele>-24.41</ele>
  <time>2026-09-02T22:08:53Z</time>
  <course>156.13</course>
  <speed>1.0</speed>
  <fix>3d</fix>
</trkpt>
<trkpt lat="33.8104902" lon="-118.3945243">
  <ele>-25.013</ele>
  <time>2026-09-02T22:08:53Z</time>
  <course>246.18</course>
  <speed>1.0139033484509261</speed>
  <fix>3d</fix>
</trkpt>
<trkpt lat="33.8104915" lon="-118.3945247">
  <ele>-24.41</ele>
  <time>2026-09-02T22:08:53Z</time>
  <course>156.34</course>
  <speed>1.0</speed>
  <fix>3d</fix>
</trkpt>
<trkpt lat="33.8104894" lon="-118.3945238">
  <ele>-25.012</ele>
  <time>2026-09-02T22:08:53Z</time>
  <course>246.3</course>
  <speed>1.0139033484509261</speed>
  <fix>3d</fix>
</trkpt>
<trkpt lat="33.8104915" lon="-118.3945247">
  <ele>-24.41</ele>
  <time>2026-09-02T22:08:53Z</time>
  <course>156.34</course>
  <speed>1.0</speed>
  <fix>3d</fix>
</trkpt>
<trkpt lat="33.8104885" lon="-118.3945234">
  <ele>-25.012</ele>
  <time>2026-09-02T22:08:53Z</time>
  <course>246.42</course>
  <speed>1.0139033484509261</speed>
  <fix>3d</fix>
</trkpt>
<trkpt lat="33.8104898" lon="-118.3945238">
  <ele>-24.41</ele>
  <time>2026-09-02T22:08:53Z</time>
  <course>156.5</course>
  <speed>1.0</speed>
  <fix>3d</fix>
</trkpt>
<trkpt lat="33.8104877" lon="-118.394523">
  <ele>-25.012</ele>
  <time>2026-09-02T22:08:53Z</time>
  <course>246.53</course>
  <speed>1.0139033484509261</speed>
  <fix>3d</fix>
</trkpt>
<trkpt lat="33.8104898" lon="-118.3945238">
  <ele>-24.41</ele>
  <time>2026-09-02T22:08:53Z</time>
  <course>156.5</course>
  <speed>1.0</speed>
  <fix>3d</fix>
</trkpt>
<trkpt lat="33.8104869" lon="-118.3945225">
  <ele>-25.012</ele>
  <time>2026-09-02T22:08:53Z</time>
  <course>246.65</course>
  <speed>1.0139033484509261</speed>
  <fix>3d</fix>
</trkpt>
<trkpt lat="33.8104882" lon="-118.3945229">
  <ele>-24.41</ele>
  <time>2026-09-02T22:08:53Z</time>
  <course>156.65</course>
  <speed>1.0</speed>
  <fix>3d</fix>
</trkpt>
<trkpt lat="33.810486" lon="-118.3945221">
  <ele>-25.014</ele>
  <time>2026-09-02T22:08:53Z</time>
  <course>246.76</course>
  <speed>1.0195096860746347</speed>
  <fix>3d</fix>
</trkpt>
<trkpt lat="33.8104882" lon="-118.3945229">
  <ele>-24.41</ele>
  <time>2026-09-02T22:08:53Z</time>
  <course>156.65</course>
  <speed>1.0</speed>
  <fix>3d</fix>
</trkpt>
<trkpt lat="33.8104852" lon="-118.3945217">
  <ele>-25.016</ele>
  <time>2026-09-02T22:08:53Z</time>
  <course>246.87</course>
  <speed>1.0195096860746347</speed>
  <fix>3d</fix>
</trkpt>
<trkpt lat="33.8104866" lon="-118.3945221">
  <ele>-24.41</ele>
  <time>2026-09-02T22:08:53Z</time>
  <course>156.85</course>
  <speed>1.0</speed>
  <fix>3d</fix>
</trkpt>
<trkpt lat="33.8104844" lon="-118.3945213">
  <ele>-25.018</ele>
  <time>2026-09-02T22:08:53Z</time>
  <course>246.99</course>
  <speed>1.0195096860746347</speed>
  <fix>3d</fix>
</trkpt>
<trkpt lat="33.8104866" lon="-118.3945221">
  <ele>-24.41</ele>
  <time>2026-09-02T22:08:53Z</time>
  <course>156.85</course>
  <speed>1.0</speed>
  <fix>3d</fix>
</trkpt>
<trkpt lat="33.8104836" lon="-118.3945208">
  <ele>-25.017</ele>
  <time>2026-09-02T22:08:53Z</time>
  <course>247.1</course>
  <speed>1.0195096860746347</speed>
  <fix>3d</fix>
</trkpt>
<trkpt lat="33.8104849" lon="-118.3945212">
  <ele>-24.41</ele>
  <time>2026-09-02T22:08:53Z</time>
  <course>157.07</course>
  <speed>1.0</speed>
  <fix>3d</fix>
</trkpt>
<trkpt lat="33.8104827" lon="-118.3945204">
  <ele>-25.015</ele>
  <time>2026-09-02T22:08:53Z</time>
  <course>247.21</course>
  <speed>1.0195096860746347</speed>
  <fix>3d</fix>
</trkpt>
<trkpt lat="33.8104849" lon="-118.3945212">
  <ele>-24.41</ele>
  <time>2026-09-02T22:08:53Z</time>
  <course>157.07</course>
  <speed>1.0</speed>
  <fix>3d</fix>
</trkpt>
<trkpt lat="33.8104819" lon="-118.39452">
  <ele>-25.014</ele>
  <time>2026-09-02T22:08:53Z</time>
  <course>247.33</course>
  <speed>1.0159232254457027</speed>
  <fix>3d</fix>
</trkpt>
<trkpt lat="33.8104832" lon="-118.3945204">
  <ele>-24.41</ele>
  <time>2026-09-02T22:08:53Z</time>
  <course>157.32</course>
  <speed>1.0</speed>
  <fix>3d</fix>
</trkpt>
<trkpt lat="33.8104811" lon="-118.3945196">
  <ele>-25.012</ele>
  <time>2026-09-02T22:08:53Z</time>
  <course>247.45</course>
  <speed>1.0159232254457027</speed>
  <fix>3d</fix>
</trkpt>
<trkpt lat="33.8104832" lon="-118.3945204">
  <ele>-24.41</ele>
  <time>2026-09-02T22:08:53Z</time>
  <course>157.32</course>
  <speed>1.0</speed>
  <fix>3d</fix>
</trkpt>
<trkpt lat="33.8104802" lon="-118.3945192">
  <ele>-25.011</ele>
  <time>2026-09-02T22:08:53Z</time>
  <course>247.56</course>
  <speed>1.0159232254457027</speed>
  <fix>3d</fix>
</trkpt>
<trkpt lat="33.8104816" lon="-118.3945196">
  <ele>-24.41</ele>
  <time>2026-09-02T22:08:53Z</time>
  <course>157.57</course>
  <speed>1.0</speed>
  <fix>3d</fix>
</trkpt>
<trkpt lat="33.8104794" lon="-118.3945188">
  <ele>-25.011</ele>
  <time>2026-09-02T22:08:53Z</time>
  <course>247.67</course>
  <speed>1.0159232254457027</speed>
  <fix>3d</fix>
</trkpt>
<trkpt lat="33.8104816" lon="-118.3945196">
  <ele>-24.41</ele>
  <time>2026-09-02T22:08:53Z</time>
  <course>157.57</course>
  <speed>1.0</speed>
  <fix>3d</fix>
</trkpt>
<trkpt lat="33.8104786" lon="-118.3945184">
  <ele>-25.012</ele>
  <time>2026-09-02T22:08:53Z</time>
  <course>247.79</course>
  <speed>1.0159232254457027</speed>
  <fix>3d</fix>
</trkpt>
<trkpt lat="33.8104799" lon="-118.3945187">
  <ele>-24.41</ele>
  <time>2026-09-02T22:08:53Z</time>
  <course>157.79</course>
  <speed>1.0</speed>
  <fix>3d</fix>
</trkpt>
<trkpt lat="33.8104777" lon="-118.394518">
  <ele>-25.014</ele>
  <time>2026-09-02T22:08:53Z</time>
  <course>247.9</course>
  <speed>1.0159232254457027</speed>
  <fix>3d</fix>
</trkpt>
<trkpt lat="33.8104799" lon="-118.3945187">
  <ele>-24.41</ele>
  <time>2026-09-02T22:08:53Z</time>
  <course>157.79</course>
  <speed>1.0</speed>
  <fix>3d</fix>
</trkpt>
<trkpt lat="33.8104769" lon="-118.3945176">
  <ele>-25.016</ele>
  <time>2026-09-02T22:08:53Z</time>
  <course>248.02</course>
  <speed>1.0124228365658294</speed>
  <fix>3d</fix>
</trkpt>
<trkpt lat="33.8104782" lon="-118.3945179">
  <ele>-24.41</ele>
  <time>2026-09-02T22:08:53Z</time>
  <course>158.03</course>
  <speed>1.0</speed>
  <fix>3d</fix>
</trkpt>
<trkpt lat="33.8104761" lon="-118.3945172">
  <ele>-25.017</ele>
  <time>2026-09-02T22:08:53Z</time>
  <course>248.13</course>
  <speed>1.0124228365658294</speed>
  <fix>3d</fix>
</trkpt>
<trkpt lat="33.8104782" lon="-118.3945179">
  <ele>-24.41</ele>
  <time>2026-09-02T22:08:53Z</time>
  <course>158.03</course>
  <speed>1.0</speed>
  <fix>3d</fix>
</trkpt>
<trkpt lat="33.8104752" lon="-118.3945168">
  <ele>-25.019</ele>
  <time>2026-09-02T22:08:53Z</time>
  <course>248.25</course>
  <speed>1.0124228365658294</speed>
  <fix>3d</fix>
</trkpt>
<trkpt lat="33.8104765" lon="-118.3945171">
  <ele>-24.41</ele>
  <time>2026-09-02T22:08:53Z</time>
  <course>158.28</course>
  <speed>1.0</speed>
  <fix>3d</fix>
</trkpt>
<trkpt lat="33.8104744" lon="-118.3945164">
  <ele>-25.019</ele>
  <time>2026-09-02T22:08:53Z</time>
  <course>248.36</course>
  <speed>1.0218121158021176</speed>
  <fix>3d</fix>
</trkpt>
<trkpt lat="33.8104765" lon="-118.3945171">
  <ele>-24.41</ele>
  <time>2026-09-02T22:08:53Z</time>
  <course>158.28</course>
  <speed>1.0</speed>
  <fix>3d</fix>
</trkpt>
<trkpt lat="33.8104735" lon="-118.394516">
  <ele>-25.018</ele>
  <time>2026-09-02T22:08:53Z</time>
  <course>248.47</course>
  <speed>1.0218121158021176</speed>
  <fix>3d</fix>
</trkpt>
<trkpt lat="33.8104749" lon="-118.3945163">
  <ele>-24.41</ele>
  <time>2026-09-02T22:08:53Z</time>
  <course>158.52</course>
  <speed>1.0</speed>
  <fix>3d</fix>
</trkpt>
<trkpt lat="33.8104727" lon="-118.3945156">
  <ele>-25.015</ele>
  <time>2026-09-02T22:08:53Z</time>
  <course>248.59</course>
  <speed>1.0184301645179212</speed>
  <fix>3d</fix>
</trkpt>
<trkpt lat="33.8104749" lon="-118.3945163">
  <ele>-24.41</ele>
  <time>2026-09-02T22:08:53Z</time>
  <course>158.52</course>
  <speed>1.0</speed>
  <fix>3d</fix>
</trkpt>
<trkpt lat="33.8104719" lon="-118.3945152">
  <ele>-25.013</ele>
  <time>2026-09-02T22:08:53Z</time>
  <course>248.71</course>
  <speed>1.0184301645179212</speed>
  <fix>3d</fix>
</trkpt>
<trkpt lat="33.8104732" lon="-118.3945155">
  <ele>-24.41</ele>
  <time>2026-09-02T22:08:53Z</time>
  <course>158.76</course>
  <speed>1.0</speed>
  <fix>3d</fix>
</trkpt>
<trkpt lat="33.810471" lon="-118.3945148">
  <ele>-25.011</ele>
  <time>2026-09-02T22:08:53Z</time>
  <course>248.82</course>
  <speed>1.0184301645179212</speed>
  <fix>3d</fix>
</trkpt>
<trkpt lat="33.8104732" lon="-118.3945155">
  <ele>-24.41</ele>
  <time>2026-09-02T22:08:53Z</time>
  <course>158.76</course>
  <speed>1.0</speed>
  <fix>3d</fix>
</trkpt>
<trkpt lat="33.8104702" lon="-118.3945144">
  <ele>-25.011</ele>
  <time>2026-09-02T22:08:53Z</time>
  <course>248.93</course>
  <speed>1.0184301645179212</speed>
  <fix>3d</fix>
</trkpt>
<trkpt lat="33.8104715" lon="-118.3945148">
  <ele>-24.4</ele>
  <time>2026-09-02T22:08:53Z</time>
  <course>158.99</course>
  <speed>1.0</speed>
  <fix>3d</fix>
</trkpt>
<trkpt lat="33.8104693" lon="-118.394514">
  <ele>-25.011</ele>
  <time>2026-09-02T22:08:53Z</time>
  <course>249.05</course>
  <speed>1.0184301645179212</speed>
  <fix>3d</fix>
</trkpt>
<trkpt lat="33.8104715" lon="-118.3945148">
  <ele>-24.4</ele>
  <time>2026-09-02T22:08:53Z</time>
  <course>158.99</course>
  <speed>1.0</speed>
  <fix>3d</fix>
</trkpt>
<trkpt lat="33.8104685" lon="-118.3945137">
  <ele>-25.01</ele>
  <time>2026-09-02T22:08:53Z</time>
  <course>249.17</course>
  <speed>1.0151354589413177</speed>
  <fix>3d</fix>
</trkpt>
<trkpt lat="33.8104698" lon="-118.3945139">
  <ele>-24.4</ele>
  <time>2026-09-02T22:08:53Z</time>
  <course>159.19</course>
  <speed>1.0</speed>
  <fix>3d</fix>
</trkpt>
<trkpt lat="33.8104677" lon="-118.3945133">
  <ele>-25.01</ele>
  <time>2026-09-02T22:08:53Z</time>
  <course>249.28</course>
  <speed>1.0151354589413177</speed>
  <fix>3d</fix>
</trkpt>
<trkpt lat="33.8104698" lon="-118.3945139">
  <ele>-24.4</ele>
  <time>2026-09-02T22:08:53Z</time>
  <course>159.19</course>
  <speed>1.0</speed>
  <fix>3d</fix>
</trkpt>
<trkpt lat="33.8104668" lon="-118.3945129">
  <ele>-25.01</ele>
  <time>2026-09-02T22:08:53Z</time>
  <course>249.39</course>
  <speed>1.0151354589413177</speed>
  <fix>3d</fix>
</trkpt>
<trkpt lat="33.8104681" lon="-118.3945132">
  <ele>-24.4</ele>
  <time>2026-09-02T22:08:53Z</time>
  <course>159.4</course>
  <speed>1.0</speed>
  <fix>3d</fix>
</trkpt>
<trkpt lat="33.810466" lon="-118.3945125">
  <ele>-25.011</ele>
  <time>2026-09-02T22:08:53Z</time>
  <course>249.51</course>
  <speed>1.0151354589413177</speed>
  <fix>3d</fix>
</trkpt>
<trkpt lat="33.8104681" lon="-118.3945132">
  <ele>-24.4</ele>
  <time>2026-09-02T22:08:53Z</time>
  <course>159.4</course>
  <speed>1.0</speed>
  <fix>3d</fix>
</trkpt>
<trkpt lat="33.8104651" lon="-118.3945121">
  <ele>-25.014</ele>
  <time>2026-09-02T22:08:53Z</time>
  <course>249.63</course>
  <speed>1.0151354589413177</speed>
  <fix>3d</fix>
</trkpt>
<trkpt lat="33.8104664" lon="-118.3945124">
  <ele>-24.41</ele>
  <time>2026-09-02T22:08:53Z</time>
  <course>159.61</course>
  <speed>1.0</speed>
  <fix>3d</fix>
</trkpt>
<trkpt lat="33.8104643" lon="-118.3945118">
  <ele>-25.016</ele>
  <time>2026-09-02T22:08:53Z</time>
  <course>249.74</course>
  <speed>1.0119288512538815</speed>
  <fix>3d</fix>
</trkpt>
<trkpt lat="33.8104664" lon="-118.3945124">
  <ele>-24.41</ele>
  <time>2026-09-02T22:08:53Z</time>
  <course>159.61</course>
  <speed>1.0</speed>
  <fix>3d</fix>
</trkpt>
<trkpt lat="33.8104634" lon="-118.3945114">
  <ele>-25.017</ele>
  <time>2026-09-02T22:08:53Z</time>
  <course>249.85</course>
  <speed>1.0119288512538815</speed>
  <fix>3d</fix>
</trkpt>
<trkpt lat="33.8104648" lon="-118.3945117">
  <ele>-24.41</ele>
  <time>2026-09-02T22:08:53Z</time>
  <course>159.84</course>
  <speed>0.99</speed>
  <fix>3d</fix>
</trkpt>
<trkpt lat="33.8104626" lon="-118.394511">
  <ele>-25.018</ele>
  <time>2026-09-02T22:08:53Z</time>
  <course>249.97</course>
  <speed>1.0119288512538815</speed>
  <fix>3d</fix>
</trkpt>
<trkpt lat="33.8104648" lon="-118.3945117">
  <ele>-24.41</ele>
  <time>2026-09-02T22:08:53Z</time>
  <course>159.84</course>
  <speed>0.99</speed>
  <fix>3d</fix>
</trkpt>
<trkpt lat="33.8104617" lon="-118.3945107">
  <ele>-25.018</ele>
  <time>2026-09-02T22:08:53Z</time>
  <course>250.08</course>
  <speed>1.0119288512538815</speed>
  <fix>3d</fix>
</trkpt>
<trkpt lat="33.8104631" lon="-118.394511">
  <ele>-24.41</ele>
  <time>2026-09-02T22:08:53Z</time>
  <course>160.09</course>
  <speed>0.99</speed>
  <fix>3d</fix>
</trkpt>
<trkpt lat="33.8104609" lon="-118.3945103">
  <ele>-25.017</ele>
  <time>2026-09-02T22:08:53Z</time>
  <course>250.2</course>
  <speed>1.021420579389313</speed>
  <fix>3d</fix>
</trkpt>
<trkpt lat="33.8104631" lon="-118.394511">
  <ele>-24.41</ele>
  <time>2026-09-02T22:08:53Z</time>
  <course>160.09</course>
  <speed>0.99</speed>
  <fix>3d</fix>
</trkpt>
<trkpt lat="33.8104601" lon="-118.3945099">
  <ele>-25.016</ele>
  <time>2026-09-02T22:08:53Z</time>
  <course>250.31</course>
  <speed>1.0183319694480775</speed>
  <fix>3d</fix>
</trkpt>
<trkpt lat="33.8104614" lon="-118.3945102">
  <ele>-24.41</ele>
  <time>2026-09-02T22:08:53Z</time>
  <course>160.29</course>
  <speed>0.99</speed>
  <fix>3d</fix>
</trkpt>
<trkpt lat="33.8104592" lon="-118.3945096">
  <ele>-25.013</ele>
  <time>2026-09-02T22:08:53Z</time>
  <course>250.42</course>
  <speed>1.0183319694480775</speed>
  <fix>3d</fix>
</trkpt>
<trkpt lat="33.8104614" lon="-118.3945102">
  <ele>-24.41</ele>
  <time>2026-09-02T22:08:53Z</time>
  <course>160.29</course>
  <speed>0.99</speed>
  <fix>3d</fix>
</trkpt>
<trkpt lat="33.8104584" lon="-118.3945092">
  <ele>-25.011</ele>
  <time>2026-09-02T22:08:53Z</time>
  <course>250.54</course>
  <speed>1.0183319694480775</speed>
  <fix>3d</fix>
</trkpt>
<trkpt lat="33.8104597" lon="-118.3945095">
  <ele>-24.4</ele>
  <time>2026-09-02T22:08:53Z</time>
  <course>160.49</course>
  <speed>0.99</speed>
  <fix>3d</fix>
</trkpt>
<trkpt lat="33.8104575" lon="-118.3945089">
  <ele>-25.01</ele>
  <time>2026-09-02T22:08:53Z</time>
  <course>250.65</course>
  <speed>1.0183319694480775</speed>
  <fix>3d</fix>
</trkpt>
<trkpt lat="33.8104597" lon="-118.3945095">
  <ele>-24.4</ele>
  <time>2026-09-02T22:08:53Z</time>
  <course>160.49</course>
  <speed>0.99</speed>
  <fix>3d</fix>
</trkpt>
<trkpt lat="33.8104567" lon="-118.3945085">
  <ele>-25.011</ele>
  <time>2026-09-02T22:08:53Z</time>
  <course>250.77</course>
  <speed>1.0183319694480775</speed>
  <fix>3d</fix>
</trkpt>
<trkpt lat="33.810458" lon="-118.3945088">
  <ele>-24.4</ele>
  <time>2026-09-02T22:08:53Z</time>
  <course>160.72</course>
  <speed>0.99</speed>
  <fix>3d</fix>
</trkpt>
<trkpt lat="33.8104558" lon="-118.3945082">
  <ele>-25.011</ele>
  <time>2026-09-02T22:08:53Z</time>
  <course>250.88</course>
  <speed>1.015332457867865</speed>
  <fix>3d</fix>
</trkpt>
<trkpt lat="33.810458" lon="-118.3945088">
  <ele>-24.4</ele>
  <time>2026-09-02T22:08:53Z</time>
  <course>160.72</course>
  <speed>0.99</speed>
  <fix>3d</fix>
</trkpt>
<trkpt lat="33.810455" lon="-118.3945078">
  <ele>-25.012</ele>
  <time>2026-09-02T22:08:53Z</time>
  <course>251.0</course>
  <speed>1.015332457867865</speed>
  <fix>3d</fix>
</trkpt>
<trkpt lat="33.8104563" lon="-118.3945081">
  <ele>-24.4</ele>
  <time>2026-09-02T22:08:53Z</time>
  <course>160.94</course>
  <speed>0.99</speed>
  <fix>3d</fix>
</trkpt>
<trkpt lat="33.8104541" lon="-118.3945075">
  <ele>-25.013</ele>
  <time>2026-09-02T22:08:53Z</time>
  <course>251.11</course>
  <speed>1.015332457867865</speed>
  <fix>3d</fix>
</trkpt>
<trkpt lat="33.8104563" lon="-118.3945081">
  <ele>-24.4</ele>
  <time>2026-09-02T22:08:53Z</time>
  <course>160.94</course>
  <speed>0.99</speed>
  <fix>3d</fix>
</trkpt>
<trkpt lat="33.8104533" lon="-118.3945071">
  <ele>-25.014</ele>
  <time>2026-09-02T22:08:53Z</time>
  <course>251.22</course>
  <speed>1.015332457867865</speed>
  <fix>3d</fix>
</trkpt>
<trkpt lat="33.8104546" lon="-118.3945073">
  <ele>-24.4</ele>
  <time>2026-09-02T22:08:53Z</time>
  <course>161.15</course>
  <speed>0.99</speed>
  <fix>3d</fix>
</trkpt>
<trkpt lat="33.8104524" lon="-118.3945068">
  <ele>-25.015</ele>
  <time>2026-09-02T22:08:53Z</time>
  <course>251.34</course>
  <speed>1.015332457867865</speed>
  <fix>3d</fix>
</trkpt>
<trkpt lat="33.8104546" lon="-118.3945073">
  <ele>-24.4</ele>
  <time>2026-09-02T22:08:53Z</time>
  <course>161.15</course>
  <speed>0.99</speed>
  <fix>3d</fix>
</trkpt>
<trkpt lat="33.8104515" lon="-118.3945064">
  <ele>-25.015</ele>
  <time>2026-09-02T22:08:53Z</time>
  <course>251.46</course>
  <speed>1.0124228365658294</speed>
  <fix>3d</fix>
</trkpt>
<trkpt lat="33.8104529" lon="-118.3945067">
  <ele>-24.4</ele>
  <time>2026-09-02T22:08:53Z</time>
  <course>161.4</course>
  <speed>0.99</speed>
  <fix>3d</fix>
</trkpt>
<trkpt lat="33.8104507" lon="-118.3945061">
  <ele>-25.014</ele>
  <time>2026-09-02T22:08:53Z</time>
  <course>251.57</course>
  <speed>1.0124228365658294</speed>
  <fix>3d</fix>
</trkpt>
<trkpt lat="33.8104529" lon="-118.3945067">
  <ele>-24.4</ele>
  <time>2026-09-02T22:08:53Z</time>
  <course>161.4</course>
  <speed>0.99</speed>
  <fix>3d</fix>
</trkpt>
<trkpt lat="33.8104498" lon="-118.3945057">
  <ele>-25.013</ele>
  <time>2026-09-02T22:08:53Z</time>
  <course>251.69</course>
  <speed>1.0124228365658294</speed>
  <fix>3d</fix>
</trkpt>
<trkpt lat="33.8104512" lon="-118.394506">
  <ele>-24.4</ele>
  <time>2026-09-02T22:08:53Z</time>
  <course>161.67</course>
  <speed>0.99</speed>
  <fix>3d</fix>
</trkpt>
<trkpt lat="33.810449" lon="-118.3945054">
  <ele>-25.012</ele>
  <time>2026-09-02T22:08:53Z</time>
  <course>251.8</course>
  <speed>1.0124228365658294</speed>
  <fix>3d</fix>
</trkpt>
<trkpt lat="33.8104512" lon="-118.394506">
  <ele>-24.4</ele>
  <time>2026-09-02T22:08:53Z</time>
  <course>161.67</course>
  <speed>0.99</speed>
  <fix>3d</fix>
</trkpt>
<trkpt lat="33.8104481" lon="-118.3945051">
  <ele>-25.011</ele>
  <time>2026-09-02T22:08:53Z</time>
  <course>251.91</course>
  <speed>1.0124228365658294</speed>
  <fix>3d</fix>
</trkpt>
<trkpt lat="33.8104495" lon="-118.3945053">
  <ele>-24.4</ele>
  <time>2026-09-02T22:08:53Z</time>
  <course>161.9</course>
  <speed>0.99</speed>
  <fix>3d</fix>
</trkpt>
<trkpt lat="33.8104473" lon="-118.3945047">
  <ele>-25.009</ele>
  <time>2026-09-02T22:08:53Z</time>
  <course>252.03</course>
  <speed>1.0192153844992726</speed>
  <fix>3d</fix>
</trkpt>
<trkpt lat="33.8104495" lon="-118.3945053">
  <ele>-24.4</ele>
  <time>2026-09-02T22:08:53Z</time>
  <course>161.9</course>
  <speed>0.99</speed>
  <fix>3d</fix>
</trkpt>
<trkpt lat="33.8104464" lon="-118.3945044">
  <ele>-25.009</ele>
  <time>2026-09-02T22:08:53Z</time>
  <course>252.14</course>
  <speed>1.0192153844992726</speed>
  <fix>3d</fix>
</trkpt>
<trkpt lat="33.8104478" lon="-118.3945046">
  <ele>-24.4</ele>
  <time>2026-09-02T22:08:53Z</time>
  <course>162.14</course>
  <speed>0.99</speed>
  <fix>3d</fix>
</trkpt>
<trkpt lat="33.8104456" lon="-118.3945041">
  <ele>-25.01</ele>
  <time>2026-09-02T22:08:53Z</time>
  <course>252.25</course>
  <speed>1.0192153844992726</speed>
  <fix>3d</fix>
</trkpt>
<trkpt lat="33.8104478" lon="-118.3945046">
  <ele>-24.4</ele>
  <time>2026-09-02T22:08:53Z</time>
  <course>162.14</course>
  <speed>0.99</speed>
  <fix>3d</fix>
</trkpt>
<trkpt lat="33.8104447" lon="-118.3945038">
  <ele>-25.01</ele>
  <time>2026-09-02T22:08:53Z</time>
  <course>252.37</course>
  <speed>1.0192153844992726</speed>
  <fix>3d</fix>
</trkpt>
<trkpt lat="33.8104461" lon="-118.394504">
  <ele>-24.4</ele>
  <time>2026-09-02T22:08:53Z</time>
  <course>162.41</course>
  <speed>0.99</speed>
  <fix>3d</fix>
</trkpt>
<trkpt lat="33.8104438" lon="-118.3945034">
  <ele>-25.011</ele>
  <time>2026-09-02T22:08:53Z</time>
  <course>252.49</course>
  <speed>1.0192153844992726</speed>
  <fix>3d</fix>
</trkpt>
<trkpt lat="33.8104461" lon="-118.394504">
  <ele>-24.4</ele>
  <time>2026-09-02T22:08:53Z</time>
  <course>162.41</course>
  <speed>0.99</speed>
  <fix>3d</fix>
</trkpt>
<trkpt lat="33.810443" lon="-118.3945031">
  <ele>-25.011</ele>
  <time>2026-09-02T22:08:53Z</time>
  <course>252.6</course>
  <speed>1.0165136496870073</speed>
  <fix>3d</fix>
</trkpt>
<trkpt lat="33.8104444" lon="-118.3945034">
  <ele>-24.4</ele>
  <time>2026-09-02T22:08:53Z</time>
  <course>162.66</course>
  <speed>0.99</speed>
  <fix>3d</fix>
</trkpt>
<trkpt lat="33.8104421" lon="-118.3945028">
  <ele>-25.012</ele>
  <time>2026-09-02T22:08:53Z</time>
  <course>252.71</course>
  <speed>1.0165136496870073</speed>
  <fix>3d</fix>
</trkpt>
<trkpt lat="33.8104444" lon="-118.3945034">
  <ele>-24.4</ele>
  <time>2026-09-02T22:08:53Z</time>
  <course>162.66</course>
  <speed>0.99</speed>
  <fix>3d</fix>
</trkpt>
<trkpt lat="33.8104413" lon="-118.3945025">
  <ele>-25.014</ele>
  <time>2026-09-02T22:08:53Z</time>
  <course>252.83</course>
  <speed>1.0165136496870073</speed>
  <fix>3d</fix>
</trkpt>
<trkpt lat="33.8104426" lon="-118.3945027">
  <ele>-24.4</ele>
  <time>2026-09-02T22:08:53Z</time>
  <course>162.86</course>
  <speed>0.99</speed>
  <fix>3d</fix>
</trkpt>
<trkpt lat="33.8104404" lon="-118.3945022">
  <ele>-25.015</ele>
  <time>2026-09-02T22:08:53Z</time>
  <course>252.95</course>
  <speed>1.0165136496870073</speed>
  <fix>3d</fix>
</trkpt>
<trkpt lat="33.8104426" lon="-118.3945027">
  <ele>-24.4</ele>
  <time>2026-09-02T22:08:53Z</time>
  <course>162.86</course>
  <speed>0.99</speed>
  <fix>3d</fix>
</trkpt>
<trkpt lat="33.8104395" lon="-118.3945019">
  <ele>-25.016</ele>
  <time>2026-09-02T22:08:53Z</time>
  <course>253.06</course>
  <speed>1.0165136496870073</speed>
  <fix>3d</fix>
</trkpt>
<trkpt lat="33.8104409" lon="-118.3945021">
  <ele>-24.41</ele>
  <time>2026-09-02T22:08:53Z</time>
  <course>163.04</course>
  <speed>0.99</speed>
  <fix>3d</fix>
</trkpt>
<trkpt lat="33.8104387" lon="-118.3945016">
  <ele>-25.016</ele>
  <time>2026-09-02T22:08:53Z</time>
  <course>253.17</course>
  <speed>1.0165136496870073</speed>
  <fix>3d</fix>
</trkpt>
<trkpt lat="33.8104409" lon="-118.3945021">
  <ele>-24.41</ele>
  <time>2026-09-02T22:08:53Z</time>
  <course>163.04</course>
  <speed>0.99</speed>
  <fix>3d</fix>
</trkpt>
<trkpt lat="33.8104378" lon="-118.3945012">
  <ele>-25.016</ele>
  <time>2026-09-02T22:08:53Z</time>
  <course>253.29</course>
  <speed>1.0139033484509261</speed>
  <fix>3d</fix>
</trkpt>
<trkpt lat="33.8104392" lon="-118.3945015">
  <ele>-24.41</ele>
  <time>2026-09-02T22:08:53Z</time>
  <course>163.24</course>
  <speed>0.99</speed>
  <fix>3d</fix>
</trkpt>
<trkpt lat="33.810437" lon="-118.3945009">
  <ele>-25.015</ele>
  <time>2026-09-02T22:08:53Z</time>
  <course>253.4</course>
  <speed>1.0139033484509261</speed>
  <fix>3d</fix>
</trkpt>
<trkpt lat="33.8104392" lon="-118.3945015">
  <ele>-24.41</ele>
  <time>2026-09-02T22:08:53Z</time>
  <course>163.24</course>
  <speed>0.99</speed>
  <fix>3d</fix>
</trkpt>
<trkpt lat="33.8104361" lon="-118.3945006">
  <ele>-25.014</ele>
  <time>2026-09-02T22:08:53Z</time>
  <course>253.52</course>
  <speed>1.0139033484509261</speed>
  <fix>3d</fix>
</trkpt>
<trkpt lat="33.8104375" lon="-118.3945008">
  <ele>-24.41</ele>
  <time>2026-09-02T22:08:53Z</time>
  <course>163.42</course>
  <speed>0.99</speed>
  <fix>3d</fix>
</trkpt>
<trkpt lat="33.8104352" lon="-118.3945003">
  <ele>-25.013</ele>
  <time>2026-09-02T22:08:53Z</time>
  <course>253.63</course>
  <speed>1.0139033484509261</speed>
  <fix>3d</fix>
</trkpt>
<trkpt lat="33.8104375" lon="-118.3945008">
  <ele>-24.41</ele>
  <time>2026-09-02T22:08:53Z</time>
  <course>163.42</course>
  <speed>0.99</speed>
  <fix>3d</fix>
</trkpt>
<trkpt lat="33.8104344" lon="-118.3945">
  <ele>-25.012</ele>
  <time>2026-09-02T22:08:53Z</time>
  <course>253.75</course>
  <speed>1.0139033484509261</speed>
  <fix>3d</fix>
</trkpt>
<trkpt lat="33.8104358" lon="-118.3945002">
  <ele>-24.4</ele>
  <time>2026-09-02T22:08:53Z</time>
  <course>163.63</course>
  <speed>0.99</speed>
  <fix>3d</fix>
</trkpt>
<trkpt lat="33.8104335" lon="-118.3944997">
  <ele>-25.012</ele>
  <time>2026-09-02T22:08:53Z</time>
  <course>253.86</course>
  <speed>1.021077861869505</speed>
  <fix>3d</fix>
</trkpt>
<trkpt lat="33.8104358" lon="-118.3945002">
  <ele>-24.4</ele>
  <time>2026-09-02T22:08:53Z</time>
  <course>163.63</course>
  <speed>0.99</speed>
  <fix>3d</fix>
</trkpt>
<trkpt lat="33.8104326" lon="-118.3944994">
  <ele>-25.011</ele>
  <time>2026-09-02T22:08:53Z</time>
  <course>253.98</course>
  <speed>1.021077861869505</speed>
  <fix>3d</fix>
</trkpt>
<trkpt lat="33.810434" lon="-118.3944996">
  <ele>-24.4</ele>
  <time>2026-09-02T22:08:53Z</time>
  <course>163.9</course>
  <speed>0.99</speed>
  <fix>3d</fix>
</trkpt>
<trkpt lat="33.8104318" lon="-118.3944991">
  <ele>-25.01</ele>
  <time>2026-09-02T22:08:53Z</time>
  <course>254.09</course>
  <speed>1.021077861869505</speed>
  <fix>3d</fix>
</trkpt>
<trkpt lat="33.810434" lon="-118.3944996">
  <ele>-24.4</ele>
  <time>2026-09-02T22:08:53Z</time>
  <course>163.9</course>
  <speed>0.99</speed>
  <fix>3d</fix>
</trkpt>
<trkpt lat="33.8104309" lon="-118.3944988">
  <ele>-25.01</ele>
  <time>2026-09-02T22:08:53Z</time>
  <course>254.21</course>
  <speed>1.021077861869505</speed>
  <fix>3d</fix>
</trkpt>
<trkpt lat="33.8104323" lon="-118.394499">
  <ele>-24.4</ele>
  <time>2026-09-02T22:08:53Z</time>
  <course>164.17</course>
  <speed>0.99</speed>
  <fix>3d</fix>
</trkpt>
<trkpt lat="33.81043" lon="-118.3944986">
  <ele>-25.009</ele>
  <time>2026-09-02T22:08:53Z</time>
  <course>254.32</course>
  <speed>1.0186756107809787</speed>
  <fix>3d</fix>
</trkpt>
<trkpt lat="33.8104323" lon="-118.394499">
  <ele>-24.4</ele>
  <time>2026-09-02T22:08:53Z</time>
  <course>164.17</course>
  <speed>0.99</speed>
  <fix>3d</fix>
</trkpt>
<trkpt lat="33.8104292" lon="-118.3944983">
  <ele>-25.009</ele>
  <time>2026-09-02T22:08:53Z</time>
  <course>254.43</course>
  <speed>1.0186756107809787</speed>
  <fix>3d</fix>
</trkpt>
<trkpt lat="33.8104306" lon="-118.3944985">
  <ele>-24.4</ele>
  <time>2026-09-02T22:08:53Z</time>
  <course>164.43</course>
  <speed>0.99</speed>
  <fix>3d</fix>
</trkpt>
<trkpt lat="33.8104283" lon="-118.394498">
  <ele>-25.01</ele>
  <time>2026-09-02T22:08:53Z</time>
  <course>254.55</course>
  <speed>1.0186756107809787</speed>
  <fix>3d</fix>
</trkpt>
<trkpt lat="33.8104306" lon="-118.3944985">
  <ele>-24.4</ele>
  <time>2026-09-02T22:08:53Z</time>
  <course>164.43</course>
  <speed>0.99</speed>
  <fix>3d</fix>
</trkpt>
<trkpt lat="33.8104274" lon="-118.3944977">
  <ele>-25.011</ele>
  <time>2026-09-02T22:08:53Z</time>
  <course>254.66</course>
  <speed>1.0186756107809787</speed>
  <fix>3d</fix>
</trkpt>
<trkpt lat="33.8104289" lon="-118.3944979">
  <ele>-24.41</ele>
  <time>2026-09-02T22:08:53Z</time>
  <course>164.66</course>
  <speed>0.99</speed>
  <fix>3d</fix>
</trkpt>
<trkpt lat="33.8104266" lon="-118.3944974">
  <ele>-25.011</ele>
  <time>2026-09-02T22:08:53Z</time>
  <course>254.78</course>
  <speed>1.0186756107809787</speed>
  <fix>3d</fix>
</trkpt>
<trkpt lat="33.8104289" lon="-118.3944979">
  <ele>-24.41</ele>
  <time>2026-09-02T22:08:53Z</time>
  <course>164.66</course>
  <speed>0.99</speed>
  <fix>3d</fix>
</trkpt>
<trkpt lat="33.8104257" lon="-118.3944971">
  <ele>-25.012</ele>
  <time>2026-09-02T22:08:53Z</time>
  <course>254.89</course>
  <speed>1.0186756107809787</speed>
  <fix>3d</fix>
</trkpt>
<trkpt lat="33.8104271" lon="-118.3944973">
  <ele>-24.41</ele>
  <time>2026-09-02T22:08:53Z</time>
  <course>164.84</course>
  <speed>0.99</speed>
  <fix>3d</fix>
</trkpt>
<trkpt lat="33.8104248" lon="-118.3944969">
  <ele>-25.013</ele>
  <time>2026-09-02T22:08:53Z</time>
  <course>255.01</course>
  <speed>1.016366075781753</speed>
  <fix>3d</fix>
</trkpt>
<trkpt lat="33.8104271" lon="-118.3944973">
  <ele>-24.41</ele>
  <time>2026-09-02T22:08:53Z</time>
  <course>164.84</course>
  <speed>0.99</speed>
  <fix>3d</fix>
</trkpt>
<trkpt lat="33.810424" lon="-118.3944966">
  <ele>-25.014</ele>
  <time>2026-09-02T22:08:53Z</time>
  <course>255.12</course>
  <speed>1.016366075781753</speed>
  <fix>3d</fix>
</trkpt>
<trkpt lat="33.8104254" lon="-118.3944967">
  <ele>-24.41</ele>
  <time>2026-09-02T22:08:53Z</time>
  <course>165.03</course>
  <speed>0.99</speed>
  <fix>3d</fix>
</trkpt>
<trkpt lat="33.8104231" lon="-118.3944963">
  <ele>-25.014</ele>
  <time>2026-09-02T22:08:53Z</time>
  <course>255.23</course>
  <speed>1.016366075781753</speed>
  <fix>3d</fix>
</trkpt>
<trkpt lat="33.8104254" lon="-118.3944967">
  <ele>-24.41</ele>
  <time>2026-09-02T22:08:53Z</time>
  <course>165.03</course>
  <speed>0.99</speed>
  <fix>3d</fix>
</trkpt>
<trkpt lat="33.8104222" lon="-118.394496">
  <ele>-25.014</ele>
  <time>2026-09-02T22:08:53Z</time>
  <course>255.35</course>
  <speed>1.016366075781753</speed>
  <fix>3d</fix>
</trkpt>
<trkpt lat="33.8104237" lon="-118.3944962">
  <ele>-24.41</ele>
  <time>2026-09-02T22:08:53Z</time>
  <course>165.26</course>
  <speed>0.99</speed>
  <fix>3d</fix>
</trkpt>
<trkpt lat="33.8104214" lon="-118.3944958">
  <ele>-25.015</ele>
  <time>2026-09-02T22:08:53Z</time>
  <course>255.47</course>
  <speed>1.016366075781753</speed>
  <fix>3d</fix>
</trkpt>
<trkpt lat="33.8104237" lon="-118.3944962">
  <ele>-24.41</ele>
  <time>2026-09-02T22:08:53Z</time>
  <course>165.26</course>
  <speed>0.99</speed>
  <fix>3d</fix>
</trkpt>
<trkpt lat="33.8104205" lon="-118.3944955">
  <ele>-25.016</ele>
  <time>2026-09-02T22:08:53Z</time>
  <course>255.58</course>
  <speed>1.0141498903022177</speed>
  <fix>3d</fix>
</trkpt>
<trkpt lat="33.810422" lon="-118.3944956">
  <ele>-24.42</ele>
  <time>2026-09-02T22:08:53Z</time>
  <course>165.52</course>
  <speed>0.99</speed>
  <fix>3d</fix>
</trkpt>
<trkpt lat="33.8104196" lon="-118.3944952">
  <ele>-25.017</ele>
  <time>2026-09-02T22:08:53Z</time>
  <course>255.69</course>
  <speed>1.0239140588936164</speed>
  <fix>3d</fix>
</trkpt>
<trkpt lat="33.810422" lon="-118.3944956">
  <ele>-24.42</ele>
  <time>2026-09-02T22:08:53Z</time>
  <course>165.52</course>
  <speed>0.99</speed>
  <fix>3d</fix>
</trkpt>
<trkpt lat="33.8104188" lon="-118.394495">
  <ele>-25.019</ele>
  <time>2026-09-02T22:08:53Z</time>
  <course>255.81</course>
  <speed>1.0239140588936164</speed>
  <fix>3d</fix>
</trkpt>
<trkpt lat="33.8104202" lon="-118.3944951">
  <ele>-24.42</ele>
  <time>2026-09-02T22:08:53Z</time>
  <course>165.8</course>
  <speed>0.99</speed>
  <fix>3d</fix>
</trkpt>
<trkpt lat="33.8104179" lon="-118.3944947">
  <ele>-25.02</ele>
  <time>2026-09-02T22:08:53Z</time>
  <course>255.93</course>
  <speed>1.0239140588936164</speed>
  <fix>3d</fix>
</trkpt>
<trkpt lat="33.8104202" lon="-118.3944951">
  <ele>-24.42</ele>
  <time>2026-09-02T22:08:53Z</time>
  <course>165.8</course>
  <speed>0.99</speed>
  <fix>3d</fix>
</trkpt>
<trkpt lat="33.810417" lon="-118.3944945">
  <ele>-25.019</ele>
  <time>2026-09-02T22:08:53Z</time>
  <course>256.04</course>
  <speed>1.0218121158021176</speed>
  <fix>3d</fix>
</trkpt>
<trkpt lat="33.8104185" lon="-118.3944946">
  <ele>-24.41</ele>
  <time>2026-09-02T22:08:53Z</time>
  <course>166.08</course>
  <speed>1.0</speed>
  <fix>3d</fix>
</trkpt>
<trkpt lat="33.8104161" lon="-118.3944942">
  <ele>-25.018</ele>
  <time>2026-09-02T22:08:53Z</time>
  <course>256.15</course>
  <speed>1.0218121158021176</speed>
  <fix>3d</fix>
</trkpt>
<trkpt lat="33.8104185" lon="-118.3944946">
  <ele>-24.41</ele>
  <time>2026-09-02T22:08:53Z</time>
  <course>166.08</course>
  <speed>1.0</speed>
  <fix>3d</fix>
</trkpt>
<trkpt lat="33.8104153" lon="-118.3944939">
  <ele>-25.017</ele>
  <time>2026-09-02T22:08:53Z</time>
  <course>256.27</course>
  <speed>1.0218121158021176</speed>
  <fix>3d</fix>
</trkpt>
<trkpt lat="33.8104167" lon="-118.394494">
  <ele>-24.41</ele>
  <time>2026-09-02T22:08:53Z</time>
  <course>166.34</course>
  <speed>1.0</speed>
  <fix>3d</fix>
</trkpt>
<trkpt lat="33.8104144" lon="-118.3944937">
  <ele>-25.015</ele>
  <time>2026-09-02T22:08:53Z</time>
  <course>256.39</course>
  <speed>1.0218121158021176</speed>
  <fix>3d</fix>
</trkpt>
<trkpt lat="33.8104167" lon="-118.394494">
  <ele>-24.41</ele>
  <time>2026-09-02T22:08:53Z</time>
  <course>166.34</course>
  <speed>1.0</speed>
  <fix>3d</fix>
</trkpt>
<trkpt lat="33.8104135" lon="-118.3944934">
  <ele>-25.013</ele>
  <time>2026-09-02T22:08:53Z</time>
  <course>256.5</course>
  <speed>1.0218121158021176</speed>
  <fix>3d</fix>
</trkpt>
<trkpt lat="33.8104149" lon="-118.3944935">
  <ele>-24.41</ele>
  <time>2026-09-02T22:08:53Z</time>
  <course>166.6</course>
  <speed>1.0</speed>
  <fix>3d</fix>
</trkpt>
<trkpt lat="33.8104126" lon="-118.3944932">
  <ele>-25.012</ele>
  <time>2026-09-02T22:08:53Z</time>
  <course>256.61</course>
  <speed>1.019803902718557</speed>
  <fix>3d</fix>
</trkpt>
<trkpt lat="33.8104149" lon="-118.3944935">
  <ele>-24.41</ele>
  <time>2026-09-02T22:08:53Z</time>
  <course>166.6</course>
  <speed>1.0</speed>
  <fix>3d</fix>
</trkpt>
<trkpt lat="33.8104118" lon="-118.3944929">
  <ele>-25.01</ele>
  <time>2026-09-02T22:08:53Z</time>
  <course>256.73</course>
  <speed>1.019803902718557</speed>
  <fix>3d</fix>
</trkpt>
<trkpt lat="33.8104132" lon="-118.394493">
  <ele>-24.4</ele>
  <time>2026-09-02T22:08:53Z</time>
  <course>166.86</course>
  <speed>1.0</speed>
  <fix>3d</fix>
</trkpt>
<trkpt lat="33.8104109" lon="-118.3944927">
  <ele>-25.009</ele>
  <time>2026-09-02T22:08:53Z</time>
  <course>256.84</course>
  <speed>1.019803902718557</speed>
  <fix>3d</fix>
</trkpt>
<trkpt lat="33.8104132" lon="-118.394493">
  <ele>-24.4</ele>
  <time>2026-09-02T22:08:53Z</time>
  <course>166.86</course>
  <speed>1.0</speed>
  <fix>3d</fix>
</trkpt>
<trkpt lat="33.81041" lon="-118.3944925">
  <ele>-25.008</ele>
  <time>2026-09-02T22:08:53Z</time>
  <course>256.96</course>
  <speed>1.019803902718557</speed>
  <fix>3d</fix>
</trkpt>
<trkpt lat="33.8104115" lon="-118.3944926">
  <ele>-24.4</ele>
  <time>2026-09-02T22:08:53Z</time>
  <course>167.12</course>
  <speed>1.0</speed>
  <fix>3d</fix>
</trkpt>
<trkpt lat="33.8104091" lon="-118.3944922">
  <ele>-25.008</ele>
  <time>2026-09-02T22:08:53Z</time>
  <course>257.07</course>
  <speed>1.019803902718557</speed>
  <fix>3d</fix>
</trkpt>
<trkpt lat="33.8104115" lon="-118.3944926">
  <ele>-24.4</ele>
  <time>2026-09-02T22:08:53Z</time>
  <course>167.12</course>
  <speed>1.0</speed>
  <fix>3d</fix>
</trkpt>
<trkpt lat="33.8104083" lon="-118.394492">
  <ele>-25.009</ele>
  <time>2026-09-02T22:08:53Z</time>
  <course>257.18</course>
  <speed>1.0178899744078433</speed>
  <fix>3d</fix>
</trkpt>
<trkpt lat="33.8104097" lon="-118.3944921">
  <ele>-24.4</ele>
  <time>2026-09-02T22:08:53Z</time>
  <course>167.35</course>
  <speed>1.0</speed>
  <fix>3d</fix>
</trkpt>
<trkpt lat="33.8104074" lon="-118.3944918">
  <ele>-25.012</ele>
  <time>2026-09-02T22:08:53Z</time>
  <course>257.3</course>
  <speed>1.0178899744078433</speed>
  <fix>3d</fix>
</trkpt>
<trkpt lat="33.8104097" lon="-118.3944921">
  <ele>-24.4</ele>
  <time>2026-09-02T22:08:53Z</time>
  <course>167.35</course>
  <speed>1.0</speed>
  <fix>3d</fix>
</trkpt>
<trkpt lat="33.8104065" lon="-118.3944915">
  <ele>-25.014</ele>
  <time>2026-09-02T22:08:53Z</time>
  <course>257.42</course>
  <speed>1.0178899744078433</speed>
  <fix>3d</fix>
</trkpt>
<trkpt lat="33.8104079" lon="-118.3944916">
  <ele>-24.41</ele>
  <time>2026-09-02T22:08:53Z</time>
  <course>167.54</course>
  <speed>1.0</speed>
  <fix>3d</fix>
</trkpt>
<trkpt lat="33.8104056" lon="-118.3944913">
  <ele>-25.016</ele>
  <time>2026-09-02T22:08:53Z</time>
  <course>257.53</course>
  <speed>1.0178899744078433</speed>
  <fix>3d</fix>
</trkpt>
<trkpt lat="33.8104079" lon="-118.3944916">
  <ele>-24.41</ele>
  <time>2026-09-02T22:08:53Z</time>
  <course>167.54</course>
  <speed>1.0</speed>
  <fix>3d</fix>
</trkpt>
<trkpt lat="33.8104047" lon="-118.3944911">
  <ele>-25.017</ele>
  <time>2026-09-02T22:08:53Z</time>
  <course>257.64</course>
  <speed>1.0178899744078433</speed>
  <fix>3d</fix>
</trkpt>
<trkpt lat="33.8104062" lon="-118.3944912">
  <ele>-24.41</ele>
  <time>2026-09-02T22:08:53Z</time>
  <course>167.72</course>
  <speed>1.0</speed>
  <fix>3d</fix>
</trkpt>
<trkpt lat="33.8104039" lon="-118.3944908">
  <ele>-25.017</ele>
  <time>2026-09-02T22:08:53Z</time>
  <course>257.76</course>
  <speed>1.0178899744078433</speed>
  <fix>3d</fix>
</trkpt>
<trkpt lat="33.8104062" lon="-118.3944912">
  <ele>-24.41</ele>
  <time>2026-09-02T22:08:53Z</time>
  <course>167.72</course>
  <speed>1.0</speed>
  <fix>3d</fix>
</trkpt>
<trkpt lat="33.810403" lon="-118.3944906">
  <ele>-25.018</ele>
  <time>2026-09-02T22:08:53Z</time>
  <course>257.87</course>
  <speed>1.016070863670443</speed>
  <fix>3d</fix>
</trkpt>
<trkpt lat="33.8104045" lon="-118.3944907">
  <ele>-24.41</ele>
  <time>2026-09-02T22:08:53Z</time>
  <course>167.9</course>
  <speed>1.0</speed>
  <fix>3d</fix>
</trkpt>
<trkpt lat="33.8104021" lon="-118.3944904">
  <ele>-25.018</ele>
  <time>2026-09-02T22:08:53Z</time>
  <course>257.99</course>
  <speed>1.016070863670443</speed>
  <fix>3d</fix>
</trkpt>
<trkpt lat="33.8104045" lon="-118.3944907">
  <ele>-24.41</ele>
  <time>2026-09-02T22:08:53Z</time>
  <course>167.9</course>
  <speed>1.0</speed>
  <fix>3d</fix>
</trkpt>
<trkpt lat="33.8104012" lon="-118.3944902">
  <ele>-25.018</ele>
  <time>2026-09-02T22:08:53Z</time>
  <course>258.1</course>
  <speed>1.016070863670443</speed>
  <fix>3d</fix>
</trkpt>
<trkpt lat="33.8104027" lon="-118.3944903">
  <ele>-24.41</ele>
  <time>2026-09-02T22:08:53Z</time>
  <course>168.09</course>
  <speed>1.0</speed>
  <fix>3d</fix>
</trkpt>
<trkpt lat="33.8104003" lon="-118.39449">
  <ele>-25.018</ele>
  <time>2026-09-02T22:08:53Z</time>
  <course>258.22</course>
  <speed>1.0259142264341596</speed>
  <fix>3d</fix>
</trkpt>
<trkpt lat="33.8104027" lon="-118.3944903">
  <ele>-24.41</ele>
  <time>2026-09-02T22:08:53Z</time>
  <course>168.09</course>
  <speed>1.0</speed>
  <fix>3d</fix>
</trkpt>
<trkpt lat="33.8103995" lon="-118.3944897">
  <ele>-25.017</ele>
  <time>2026-09-02T22:08:53Z</time>
  <course>258.33</course>
  <speed>1.0259142264341596</speed>
  <fix>3d</fix>
</trkpt>
<trkpt lat="33.8104009" lon="-118.3944898">
  <ele>-24.41</ele>
  <time>2026-09-02T22:08:53Z</time>
  <course>168.28</course>
  <speed>1.0</speed>
  <fix>3d</fix>
</trkpt>
<trkpt lat="33.8103986" lon="-118.3944895">
  <ele>-25.017</ele>
  <time>2026-09-02T22:08:53Z</time>
  <course>258.45</course>
  <speed>1.0259142264341596</speed>
  <fix>3d</fix>
</trkpt>
<trkpt lat="33.8104009" lon="-118.3944898">
  <ele>-24.41</ele>
  <time>2026-09-02T22:08:53Z</time>
  <course>168.28</course>
  <speed>1.0</speed>
  <fix>3d</fix>
</trkpt>
<trkpt lat="33.8103977" lon="-118.3944893">
  <ele>-25.015</ele>
  <time>2026-09-02T22:08:53Z</time>
  <course>258.56</course>
  <speed>1.0242070103255494</speed>
  <fix>3d</fix>
</trkpt>
<trkpt lat="33.8103991" lon="-118.3944894">
  <ele>-24.4</ele>
  <time>2026-09-02T22:08:53Z</time>
  <course>168.48</course>
  <speed>1.0</speed>
  <fix>3d</fix>
</trkpt>
<trkpt lat="33.8103968" lon="-118.3944891">
  <ele>-25.014</ele>
  <time>2026-09-02T22:08:53Z</time>
  <course>258.68</course>
  <speed>1.0242070103255494</speed>
  <fix>3d</fix>
</trkpt>
<trkpt lat="33.8103991" lon="-118.3944894">
  <ele>-24.4</ele>
  <time>2026-09-02T22:08:53Z</time>
  <course>168.48</course>
  <speed>1.0</speed>
  <fix>3d</fix>
</trkpt>
<trkpt lat="33.8103959" lon="-118.3944889">
  <ele>-25.012</ele>
  <time>2026-09-02T22:08:53Z</time>
  <course>258.79</course>
  <speed>1.0242070103255494</speed>
  <fix>3d</fix>
</trkpt>
<trkpt lat="33.8103974" lon="-118.394489">
  <ele>-24.4</ele>
  <time>2026-09-02T22:08:53Z</time>
  <course>168.71</course>
  <speed>1.0</speed>
  <fix>3d</fix>
</trkpt>
<trkpt lat="33.810395" lon="-118.3944887">
  <ele>-25.01</ele>
  <time>2026-09-02T22:08:53Z</time>
  <course>258.91</course>
  <speed>1.0242070103255494</speed>
  <fix>3d</fix>
</trkpt>
<trkpt lat="33.8103974" lon="-118.394489">
  <ele>-24.4</ele>
  <time>2026-09-02T22:08:53Z</time>
  <course>168.71</course>
  <speed>1.0</speed>
  <fix>3d</fix>
</trkpt>
<trkpt lat="33.8103942" lon="-118.3944885">
  <ele>-25.009</ele>
  <time>2026-09-02T22:08:53Z</time>
  <course>259.02</course>
  <speed>1.0242070103255494</speed>
  <fix>3d</fix>
</trkpt>
<trkpt lat="33.8103956" lon="-118.3944885">
  <ele>-24.4</ele>
  <time>2026-09-02T22:08:53Z</time>
  <course>168.91</course>
  <speed>1.0</speed>
  <fix>3d</fix>
</trkpt>
<trkpt lat="33.8103933" lon="-118.3944883">
  <ele>-25.008</ele>
  <time>2026-09-02T22:08:53Z</time>
  <course>259.13</course>
  <speed>1.0225947388873073</speed>
  <fix>3d</fix>
</trkpt>
<trkpt lat="33.8103956" lon="-118.3944885">
  <ele>-24.4</ele>
  <time>2026-09-02T22:08:53Z</time>
  <course>168.91</course>
  <speed>1.0</speed>
  <fix>3d</fix>
</trkpt>
<trkpt lat="33.8103924" lon="-118.3944881">
  <ele>-25.008</ele>
  <time>2026-09-02T22:08:53Z</time>
  <course>259.25</course>
  <speed>1.0225947388873073</speed>
  <fix>3d</fix>
</trkpt>
<trkpt lat="33.8103938" lon="-118.3944881">
  <ele>-24.4</ele>
  <time>2026-09-02T22:08:53Z</time>
  <course>169.13</course>
  <speed>1.0</speed>
  <fix>3d</fix>
</trkpt>
<trkpt lat="33.8103915" lon="-118.3944879">
  <ele>-25.009</ele>
  <time>2026-09-02T22:08:53Z</time>
  <course>259.36</course>
  <speed>1.0225947388873073</speed>
  <fix>3d</fix>
</trkpt>
<trkpt lat="33.8103938" lon="-118.3944881">
  <ele>-24.4</ele>
  <time>2026-09-02T22:08:53Z</time>
  <course>169.13</course>
  <speed>1.0</speed>
  <fix>3d</fix>
</trkpt>
<trkpt lat="33.8103906" lon="-118.3944877">
  <ele>-25.01</ele>
  <time>2026-09-02T22:08:53Z</time>
  <course>259.48</course>
  <speed>1.0225947388873073</speed>
  <fix>3d</fix>
</trkpt>
<trkpt lat="33.8103921" lon="-118.3944877">
  <ele>-24.4</ele>
  <time>2026-09-02T22:08:53Z</time>
  <course>169.39</course>
  <speed>1.0</speed>
  <fix>3d</fix>
</trkpt>
<trkpt lat="33.8103897" lon="-118.3944875">
  <ele>-25.012</ele>
  <time>2026-09-02T22:08:53Z</time>
  <course>259.59</course>
  <speed>1.021077861869505</speed>
  <fix>3d</fix>
</trkpt>
<trkpt lat="33.8103921" lon="-118.3944877">
  <ele>-24.4</ele>
  <time>2026-09-02T22:08:53Z</time>
  <course>169.39</course>
  <speed>1.0</speed>
  <fix>3d</fix>
</trkpt>
<trkpt lat="33.8103889" lon="-118.3944873">
  <ele>-25.013</ele>
  <time>2026-09-02T22:08:53Z</time>
  <course>259.7</course>
  <speed>1.021077861869505</speed>
  <fix>3d</fix>
</trkpt>
<trkpt lat="33.8103903" lon="-118.3944873">
  <ele>-24.4</ele>
  <time>2026-09-02T22:08:53Z</time>
  <course>169.66</course>
  <speed>1.0</speed>
  <fix>3d</fix>
</trkpt>
<trkpt lat="33.810388" lon="-118.3944871">
  <ele>-25.013</ele>
  <time>2026-09-02T22:08:53Z</time>
  <course>259.82</course>
  <speed>1.021077861869505</speed>
  <fix>3d</fix>
</trkpt>
<trkpt lat="33.8103903" lon="-118.3944873">
  <ele>-24.4</ele>
  <time>2026-09-02T22:08:53Z</time>
  <course>169.66</course>
  <speed>1.0</speed>
  <fix>3d</fix>
</trkpt>
<trkpt lat="33.8103871" lon="-118.3944869">
  <ele>-25.013</ele>
  <time>2026-09-02T22:08:53Z</time>
  <course>259.93</course>
  <speed>1.021077861869505</speed>
  <fix>3d</fix>
</trkpt>
<trkpt lat="33.8103885" lon="-118.3944869">
  <ele>-24.4</ele>
  <time>2026-09-02T22:08:53Z</time>
  <course>169.94</course>
  <speed>1.0</speed>
  <fix>3d</fix>
</trkpt>
<trkpt lat="33.8103862" lon="-118.3944867">
  <ele>-25.013</ele>
  <time>2026-09-02T22:08:53Z</time>
  <course>260.05</course>
  <speed>1.0196568050084303</speed>
  <fix>3d</fix>
</trkpt>
<trkpt lat="33.8103885" lon="-118.3944869">
  <ele>-24.4</ele>
  <time>2026-09-02T22:08:53Z</time>
  <course>169.94</course>
  <speed>1.0</speed>
  <fix>3d</fix>
</trkpt>
<trkpt lat="33.8103853" lon="-118.3944866">
  <ele>-25.014</ele>
  <time>2026-09-02T22:08:53Z</time>
  <course>260.16</course>
  <speed>1.0196568050084303</speed>
  <fix>3d</fix>
</trkpt>
<trkpt lat="33.8103868" lon="-118.3944866">
  <ele>-24.4</ele>
  <time>2026-09-02T22:08:53Z</time>
  <course>170.22</course>
  <speed>1.0</speed>
  <fix>3d</fix>
</trkpt>
<trkpt lat="33.8103844" lon="-118.3944864">
  <ele>-25.015</ele>
  <time>2026-09-02T22:08:53Z</time>
  <course>260.28</course>
  <speed>1.0196568050084303</speed>
  <fix>3d</fix>
</trkpt>
<trkpt lat="33.8103868" lon="-118.3944866">
  <ele>-24.4</ele>
  <time>2026-09-02T22:08:53Z</time>
  <course>170.22</course>
  <speed>1.0</speed>
  <fix>3d</fix>
</trkpt>
<trkpt lat="33.8103835" lon="-118.3944862">
  <ele>-25.015</ele>
  <time>2026-09-02T22:08:53Z</time>
  <course>260.4</course>
  <speed>1.0196568050084303</speed>
  <fix>3d</fix>
</trkpt>
<trkpt lat="33.810385" lon="-118.3944862">
  <ele>-24.41</ele>
  <time>2026-09-02T22:08:53Z</time>
  <course>170.45</course>
  <speed>1.0</speed>
  <fix>3d</fix>
</trkpt>
<trkpt lat="33.8103826" lon="-118.394486">
  <ele>-25.015</ele>
  <time>2026-09-02T22:08:53Z</time>
  <course>260.51</course>
  <speed>1.0196568050084303</speed>
  <fix>3d</fix>
</trkpt>
<trkpt lat="33.810385" lon="-118.3944862">
  <ele>-24.41</ele>
  <time>2026-09-02T22:08:53Z</time>
  <course>170.45</course>
  <speed>1.0</speed>
  <fix>3d</fix>
</trkpt>
<trkpt lat="33.8103818" lon="-118.3944859">
  <ele>-25.015</ele>
  <time>2026-09-02T22:08:53Z</time>
  <course>260.62</course>
  <speed>1.0196568050084303</speed>
  <fix>3d</fix>
</trkpt>
<trkpt lat="33.8103833" lon="-118.3944858">
  <ele>-24.41</ele>
  <time>2026-09-02T22:08:53Z</time>
  <course>170.66</course>
  <speed>1.0</speed>
  <fix>3d</fix>
</trkpt>
<trkpt lat="33.8103809" lon="-118.3944857">
  <ele>-25.015</ele>
  <time>2026-09-02T22:08:53Z</time>
  <course>260.74</course>
  <speed>1.0183319694480775</speed>
  <fix>3d</fix>
</trkpt>
<trkpt lat="33.8103833" lon="-118.3944858">
  <ele>-24.41</ele>
  <time>2026-09-02T22:08:53Z</time>
  <course>170.66</course>
  <speed>1.0</speed>
  <fix>3d</fix>
</trkpt>
<trkpt lat="33.81038" lon="-118.3944855">
  <ele>-25.014</ele>
  <time>2026-09-02T22:08:53Z</time>
  <course>260.85</course>
  <speed>1.0183319694480775</speed>
  <fix>3d</fix>
</trkpt>
<trkpt lat="33.8103815" lon="-118.3944855">
  <ele>-24.4</ele>
  <time>2026-09-02T22:08:53Z</time>
  <course>170.91</course>
  <speed>1.0</speed>
  <fix>3d</fix>
</trkpt>
<trkpt lat="33.8103791" lon="-118.3944853">
  <ele>-25.012</ele>
  <time>2026-09-02T22:08:53Z</time>
  <course>260.97</course>
  <speed>1.0183319694480775</speed>
  <fix>3d</fix>
</trkpt>
<trkpt lat="33.8103815" lon="-118.3944855">
  <ele>-24.4</ele>
  <time>2026-09-02T22:08:53Z</time>
  <course>170.91</course>
  <speed>1.0</speed>
  <fix>3d</fix>
</trkpt>
<trkpt lat="33.8103782" lon="-118.3944852">
  <ele>-25.01</ele>
  <time>2026-09-02T22:08:53Z</time>
  <course>261.08</course>
  <speed>1.0183319694480775</speed>
  <fix>3d</fix>
</trkpt>
<trkpt lat="33.8103797" lon="-118.3944852">
  <ele>-24.4</ele>
  <time>2026-09-02T22:08:53Z</time>
  <course>171.16</course>
  <speed>1.0</speed>
  <fix>3d</fix>
</trkpt>
<trkpt lat="33.8103773" lon="-118.394485">
  <ele>-25.009</ele>
  <time>2026-09-02T22:08:53Z</time>
  <course>261.2</course>
  <speed>1.0183319694480775</speed>
  <fix>3d</fix>
</trkpt>
<trkpt lat="33.8103797" lon="-118.3944852">
  <ele>-24.4</ele>
  <time>2026-09-02T22:08:53Z</time>
  <course>171.16</course>
  <speed>1.0</speed>
  <fix>3d</fix>
</trkpt>
<trkpt lat="33.8103764" lon="-118.3944849">
  <ele>-25.007</ele>
  <time>2026-09-02T22:08:53Z</time>
  <course>261.31</course>
  <speed>1.0171037311896953</speed>
  <fix>3d</fix>
</trkpt>
<trkpt lat="33.8103778" lon="-118.3944848">
  <ele>-24.4</ele>
  <time>2026-09-02T22:08:53Z</time>
  <course>171.37</course>
  <speed>1.0</speed>
  <fix>3d</fix>
</trkpt>
<trkpt lat="33.8103756" lon="-118.3944847">
  <ele>-25.007</ele>
  <time>2026-09-02T22:08:53Z</time>
  <course>261.43</course>
  <speed>1.0171037311896953</speed>
  <fix>3d</fix>
</trkpt>
<trkpt lat="33.8103778" lon="-118.3944848">
  <ele>-24.4</ele>
  <time>2026-09-02T22:08:53Z</time>
  <course>171.37</course>
  <speed>1.0</speed>
  <fix>3d</fix>
</trkpt>
<trkpt lat="33.8103747" lon="-118.3944845">
  <ele>-25.008</ele>
  <time>2026-09-02T22:08:53Z</time>
  <course>261.54</course>
  <speed>1.0171037311896953</speed>
  <fix>3d</fix>
</trkpt>
<trkpt lat="33.8103761" lon="-118.3944845">
  <ele>-24.4</ele>
  <time>2026-09-02T22:08:53Z</time>
  <course>171.56</course>
  <speed>1.0</speed>
  <fix>3d</fix>
</trkpt>
<trkpt lat="33.8103738" lon="-118.3944844">
  <ele>-25.01</ele>
  <time>2026-09-02T22:08:53Z</time>
  <course>261.65</course>
  <speed>1.0270345661174214</speed>
  <fix>3d</fix>
</trkpt>
<trkpt lat="33.8103761" lon="-118.3944845">
  <ele>-24.4</ele>
  <time>2026-09-02T22:08:53Z</time>
  <course>171.56</course>
  <speed>1.0</speed>
  <fix>3d</fix>
</trkpt>
<trkpt lat="33.8103729" lon="-118.3944842">
  <ele>-25.013</ele>
  <time>2026-09-02T22:08:53Z</time>
  <course>261.77</course>
  <speed>1.0270345661174214</speed>
  <fix>3d</fix>
</trkpt>
<trkpt lat="33.8103744" lon="-118.3944842">
  <ele>-24.4</ele>
  <time>2026-09-02T22:08:53Z</time>
  <course>171.78</course>
  <speed>1.0</speed>
  <fix>3d</fix>
</trkpt>
<trkpt lat="33.810372" lon="-118.3944841">
  <ele>-25.016</ele>
  <time>2026-09-02T22:08:53Z</time>
  <course>261.88</course>
  <speed>1.0259142264341596</speed>
  <fix>3d</fix>
</trkpt>
<trkpt lat="33.8103744" lon="-118.3944842">
  <ele>-24.4</ele>
  <time>2026-09-02T22:08:53Z</time>
  <course>171.78</course>
  <speed>1.0</speed>
  <fix>3d</fix>
</trkpt>
<trkpt lat="33.8103711" lon="-118.3944839">
  <ele>-25.018</ele>
  <time>2026-09-02T22:08:53Z</time>
  <course>262.0</course>
  <speed>1.0259142264341596</speed>
  <fix>3d</fix>
</trkpt>
<trkpt lat="33.8103725" lon="-118.3944839">
  <ele>-24.41</ele>
  <time>2026-09-02T22:08:53Z</time>
  <course>172.01</course>
  <speed>1.0</speed>
  <fix>3d</fix>
</trkpt>
<trkpt lat="33.8103702" lon="-118.3944838">
  <ele>-25.019</ele>
  <time>2026-09-02T22:08:53Z</time>
  <course>262.11</course>
  <speed>1.0259142264341596</speed>
  <fix>3d</fix>
</trkpt>
<trkpt lat="33.8103725" lon="-118.3944839">
  <ele>-24.41</ele>
  <time>2026-09-02T22:08:53Z</time>
  <course>172.01</course>
  <speed>1.0</speed>
  <fix>3d</fix>
</trkpt>
<trkpt lat="33.8103693" lon="-118.3944837">
  <ele>-25.02</ele>
  <time>2026-09-02T22:08:53Z</time>
  <course>262.23</course>
  <speed>1.0259142264341596</speed>
  <fix>3d</fix>
</trkpt>
<trkpt lat="33.8103708" lon="-118.3944836">
  <ele>-24.41</ele>
  <time>2026-09-02T22:08:53Z</time>
  <course>172.23</course>
  <speed>1.0</speed>
  <fix>3d</fix>
</trkpt>
<trkpt lat="33.8103684" lon="-118.3944835">
  <ele>-25.02</ele>
  <time>2026-09-02T22:08:53Z</time>
  <course>262.34</course>
  <speed>1.0259142264341596</speed>
  <fix>3d</fix>
</trkpt>
<trkpt lat="33.8103708" lon="-118.3944836">
  <ele>-24.41</ele>
  <time>2026-09-02T22:08:53Z</time>
  <course>172.23</course>
  <speed>1.0</speed>
  <fix>3d</fix>
</trkpt>
<trkpt lat="33.8103675" lon="-118.3944834">
  <ele>-25.02</ele>
  <time>2026-09-02T22:08:53Z</time>
  <course>262.45</course>
  <speed>1.0248902380255165</speed>
  <fix>3d</fix>
</trkpt>
<trkpt lat="33.8103689" lon="-118.3944833">
  <ele>-24.41</ele>
  <time>2026-09-02T22:08:53Z</time>
  <course>172.43</course>
  <speed>1.0</speed>
  <fix>3d</fix>
</trkpt>
<trkpt lat="33.8103667" lon="-118.3944832">
  <ele>-25.018</ele>
  <time>2026-09-02T22:08:53Z</time>
  <course>262.57</course>
  <speed>1.0248902380255165</speed>
  <fix>3d</fix>
</trkpt>
<trkpt lat="33.8103689" lon="-118.3944833">
  <ele>-24.41</ele>
  <time>2026-09-02T22:08:53Z</time>
  <course>172.43</course>
  <speed>1.0</speed>
  <fix>3d</fix>
</trkpt>
<trkpt lat="33.8103658" lon="-118.3944831">
  <ele>-25.015</ele>
  <time>2026-09-02T22:08:53Z</time>
  <course>262.69</course>
  <speed>1.0248902380255165</speed>
  <fix>3d</fix>
</trkpt>
<trkpt lat="33.8103672" lon="-118.394483">
  <ele>-24.41</ele>
  <time>2026-09-02T22:08:53Z</time>
  <course>172.65</course>
  <speed>1.0</speed>
  <fix>3d</fix>
</trkpt>
<trkpt lat="33.8103649" lon="-118.394483">
  <ele>-25.013</ele>
  <time>2026-09-02T22:08:53Z</time>
  <course>262.8</course>
  <speed>1.0248902380255165</speed>
  <fix>3d</fix>
</trkpt>
<trkpt lat="33.8103672" lon="-118.394483">
  <ele>-24.41</ele>
  <time>2026-09-02T22:08:53Z</time>
  <course>172.65</course>
  <speed>1.0</speed>
  <fix>3d</fix>
</trkpt>
<trkpt lat="33.810364" lon="-118.3944828">
  <ele>-25.01</ele>
  <time>2026-09-02T22:08:53Z</time>
  <course>262.91</course>
  <speed>1.0248902380255165</speed>
  <fix>3d</fix>
</trkpt>
<trkpt lat="33.8103653" lon="-118.3944827">
  <ele>-24.4</ele>
  <time>2026-09-02T22:08:53Z</time>
  <course>172.88</course>
  <speed>1.0</speed>
  <fix>3d</fix>
</trkpt>
<trkpt lat="33.8103631" lon="-118.3944827">
  <ele>-25.009</ele>
  <time>2026-09-02T22:08:53Z</time>
  <course>263.03</course>
  <speed>1.0239628899525608</speed>
  <fix>3d</fix>
</trkpt>
<trkpt lat="33.8103653" lon="-118.3944827">
  <ele>-24.4</ele>
  <time>2026-09-02T22:08:53Z</time>
  <course>172.88</course>
  <speed>1.0</speed>
  <fix>3d</fix>
</trkpt>
<trkpt lat="33.8103622" lon="-118.3944826">
  <ele>-25.007</ele>
  <time>2026-09-02T22:08:53Z</time>
  <course>263.14</course>
  <speed>1.0239628899525608</speed>
  <fix>3d</fix>
</trkpt>
<trkpt lat="33.8103636" lon="-118.3944825">
  <ele>-24.4</ele>
  <time>2026-09-02T22:08:53Z</time>
  <course>173.13</course>
  <speed>1.0</speed>
  <fix>3d</fix>
</trkpt>
<trkpt lat="33.8103613" lon="-118.3944825">
  <ele>-25.007</ele>
  <time>2026-09-02T22:08:53Z</time>
  <course>263.25</course>
  <speed>1.0239628899525608</speed>
  <fix>3d</fix>
</trkpt>
<trkpt lat="33.8103636" lon="-118.3944825">
  <ele>-24.4</ele>
  <time>2026-09-02T22:08:53Z</time>
  <course>173.13</course>
  <speed>1.0</speed>
  <fix>3d</fix>
</trkpt>
<trkpt lat="33.8103604" lon="-118.3944823">
  <ele>-25.007</ele>
  <time>2026-09-02T22:08:53Z</time>
  <course>263.37</course>
  <speed>1.0239628899525608</speed>
  <fix>3d</fix>
</trkpt>
<trkpt lat="33.8103617" lon="-118.3944822">
  <ele>-24.4</ele>
  <time>2026-09-02T22:08:53Z</time>
  <course>173.39</course>
  <speed>1.0</speed>
  <fix>3d</fix>
</trkpt>
<trkpt lat="33.8103595" lon="-118.3944822">
  <ele>-25.008</ele>
  <time>2026-09-02T22:08:53Z</time>
  <course>263.49</course>
  <speed>1.0231324449942931</speed>
  <fix>3d</fix>
</trkpt>
<trkpt lat="33.8103617" lon="-118.3944822">
  <ele>-24.4</ele>
  <time>2026-09-02T22:08:53Z</time>
  <course>173.39</course>
  <speed>1.0</speed>
  <fix>3d</fix>
</trkpt>
<trkpt lat="33.8103586" lon="-118.3944821">
  <ele>-25.01</ele>
  <time>2026-09-02T22:08:53Z</time>
  <course>263.6</course>
  <speed>1.0231324449942931</speed>
  <fix>3d</fix>
</trkpt>
<trkpt lat="33.81036" lon="-118.3944819">
  <ele>-24.4</ele>
  <time>2026-09-02T22:08:53Z</time>
  <course>173.62</course>
  <speed>1.0</speed>
  <fix>3d</fix>
</trkpt>
<trkpt lat="33.8103577" lon="-118.394482">
  <ele>-25.012</ele>
  <time>2026-09-02T22:08:53Z</time>
  <course>263.72</course>
  <speed>1.0231324449942931</speed>
  <fix>3d</fix>
</trkpt>
<trkpt lat="33.81036" lon="-118.3944819">
  <ele>-24.4</ele>
  <time>2026-09-02T22:08:53Z</time>
  <course>173.62</course>
  <speed>1.0</speed>
  <fix>3d</fix>
</trkpt>
<trkpt lat="33.8103568" lon="-118.3944819">
  <ele>-25.014</ele>
  <time>2026-09-02T22:08:53Z</time>
  <course>263.83</course>
  <speed>1.0231324449942931</speed>
  <fix>3d</fix>
</trkpt>
<trkpt lat="33.8103581" lon="-118.3944817">
  <ele>-24.41</ele>
  <time>2026-09-02T22:08:53Z</time>
  <course>173.87</course>
  <speed>1.0</speed>
  <fix>3d</fix>
</trkpt>
<trkpt lat="33.8103559" lon="-118.3944817">
  <ele>-25.014</ele>
  <time>2026-09-02T22:08:53Z</time>
  <course>263.94</course>
  <speed>1.022399139279763</speed>
  <fix>3d</fix>
</trkpt>
<trkpt lat="33.8103581" lon="-118.3944817">
  <ele>-24.41</ele>
  <time>2026-09-02T22:08:53Z</time>
  <course>173.87</course>
  <speed>1.0</speed>
  <fix>3d</fix>
</trkpt>
<trkpt lat="33.810355" lon="-118.3944816">
  <ele>-25.014</ele>
  <time>2026-09-02T22:08:53Z</time>
  <course>264.06</course>
  <speed>1.0124228365658294</speed>
  <fix>3d</fix>
</trkpt>
<trkpt lat="33.8103564" lon="-118.3944814">
  <ele>-24.41</ele>
  <time>2026-09-02T22:08:53Z</time>
  <course>174.16</course>
  <speed>1.0</speed>
  <fix>3d</fix>
</trkpt>
<trkpt lat="33.8103541" lon="-118.3944815">
  <ele>-25.015</ele>
  <time>2026-09-02T22:08:53Z</time>
  <course>264.18</course>
  <speed>1.022399139279763</speed>
  <fix>3d</fix>
</trkpt>
<trkpt lat="33.8103564" lon="-118.3944814">
  <ele>-24.41</ele>
  <time>2026-09-02T22:08:53Z</time>
  <course>174.16</course>
  <speed>1.0</speed>
  <fix>3d</fix>
</trkpt>
<trkpt lat="33.8103532" lon="-118.3944814">
  <ele>-25.015</ele>
  <time>2026-09-02T22:08:53Z</time>
  <course>264.29</course>
  <speed>1.022399139279763</speed>
  <fix>3d</fix>
</trkpt>
<trkpt lat="33.8103545" lon="-118.3944813">
  <ele>-24.41</ele>
  <time>2026-09-02T22:08:53Z</time>
  <course>174.44</course>
  <speed>1.0</speed>
  <fix>3d</fix>
</trkpt>
<trkpt lat="33.8103523" lon="-118.3944813">
  <ele>-25.014</ele>
  <time>2026-09-02T22:08:53Z</time>
  <course>264.4</course>
  <speed>1.0124228365658294</speed>
  <fix>3d</fix>
</trkpt>
<trkpt lat="33.8103545" lon="-118.3944813">
  <ele>-24.41</ele>
  <time>2026-09-02T22:08:53Z</time>
  <course>174.44</course>
  <speed>1.0</speed>
  <fix>3d</fix>
</trkpt>
<trkpt lat="33.8103514" lon="-118.3944812">
  <ele>-25.013</ele>
  <time>2026-09-02T22:08:53Z</time>
  <course>264.52</course>
  <speed>1.0117806086301515</speed>
  <fix>3d</fix>
</trkpt>
<trkpt lat="33.8103528" lon="-118.3944811">
  <ele>-24.41</ele>
  <time>2026-09-02T22:08:53Z</time>
  <course>174.7</course>
  <speed>1.0</speed>
  <fix>3d</fix>
</trkpt>
<trkpt lat="33.8103505" lon="-118.3944811">
  <ele>-25.013</ele>
  <time>2026-09-02T22:08:53Z</time>
  <course>264.63</course>
  <speed>1.0117806086301515</speed>
  <fix>3d</fix>
</trkpt>
<trkpt lat="33.8103528" lon="-118.3944811">
  <ele>-24.41</ele>
  <time>2026-09-02T22:08:53Z</time>
  <course>174.7</course>
  <speed>1.0</speed>
  <fix>3d</fix>
</trkpt>
<trkpt lat="33.8103496" lon="-118.394481">
  <ele>-25.013</ele>
  <time>2026-09-02T22:08:53Z</time>
  <course>264.74</course>
  <speed>1.0117806086301515</speed>
  <fix>3d</fix>
</trkpt>
<trkpt lat="33.810351" lon="-118.3944809">
  <ele>-24.41</ele>
  <time>2026-09-02T22:08:53Z</time>
  <course>174.88</course>
  <speed>0.99</speed>
  <fix>3d</fix>
</trkpt>
<trkpt lat="33.8103487" lon="-118.3944809">
  <ele>-25.014</ele>
  <time>2026-09-02T22:08:53Z</time>
  <course>264.86</course>
  <speed>1.0117806086301515</speed>
  <fix>3d</fix>
</trkpt>
<trkpt lat="33.810351" lon="-118.3944809">
  <ele>-24.41</ele>
  <time>2026-09-02T22:08:53Z</time>
  <course>174.88</course>
  <speed>0.99</speed>
  <fix>3d</fix>
</trkpt>
<trkpt lat="33.8103478" lon="-118.3944808">
  <ele>-25.014</ele>
  <time>2026-09-02T22:08:53Z</time>
  <course>264.98</course>
  <speed>1.0117806086301515</speed>
  <fix>3d</fix>
</trkpt>
<trkpt lat="33.8103492" lon="-118.3944807">
  <ele>-24.41</ele>
  <time>2026-09-02T22:08:53Z</time>
  <course>175.04</course>
  <speed>0.99</speed>
  <fix>3d</fix>
</trkpt>
<trkpt lat="33.8103469" lon="-118.3944808">
  <ele>-25.013</ele>
  <time>2026-09-02T22:08:53Z</time>
  <course>265.09</course>
  <speed>1.0117806086301515</speed>
  <fix>3d</fix>
</trkpt>
<trkpt lat="33.8103492" lon="-118.3944807">
  <ele>-24.41</ele>
  <time>2026-09-02T22:08:53Z</time>
  <course>175.04</course>
  <speed>0.99</speed>
  <fix>3d</fix>
</trkpt>
<trkpt lat="33.810346" lon="-118.3944807">
  <ele>-25.013</ele>
  <time>2026-09-02T22:08:53Z</time>
  <course>265.21</course>
  <speed>1.011236866416568</speed>
  <fix>3d</fix>
</trkpt>
<trkpt lat="33.8103474" lon="-118.3944805">
  <ele>-24.41</ele>
  <time>2026-09-02T22:08:53Z</time>
  <course>175.22</course>
  <speed>0.99</speed>
  <fix>3d</fix>
</trkpt>
<trkpt lat="33.8103451" lon="-118.3944806">
  <ele>-25.013</ele>
  <time>2026-09-02T22:08:53Z</time>
  <course>265.32</course>
  <speed>1.0212247548899311</speed>
  <fix>3d</fix>
</trkpt>
<trkpt lat="33.8103474" lon="-118.3944805">
  <ele>-24.41</ele>
  <time>2026-09-02T22:08:53Z</time>
  <course>175.22</course>
  <speed>0.99</speed>
  <fix>3d</fix>
</trkpt>
<trkpt lat="33.8103443" lon="-118.3944805">
  <ele>-25.012</ele>
  <time>2026-09-02T22:08:53Z</time>
  <course>265.44</course>
  <speed>1.0212247548899311</speed>
  <fix>3d</fix>
</trkpt>
<trkpt lat="33.8103457" lon="-118.3944804">
  <ele>-24.41</ele>
  <time>2026-09-02T22:08:53Z</time>
  <course>175.43</course>
  <speed>0.99</speed>
  <fix>3d</fix>
</trkpt>
<trkpt lat="33.8103434" lon="-118.3944804">
  <ele>-25.012</ele>
  <time>2026-09-02T22:08:53Z</time>
  <course>265.55</course>
  <speed>1.0212247548899311</speed>
  <fix>3d</fix>
</trkpt>
<trkpt lat="33.8103457" lon="-118.3944804">
  <ele>-24.41</ele>
  <time>2026-09-02T22:08:53Z</time>
  <course>175.43</course>
  <speed>0.99</speed>
  <fix>3d</fix>
</trkpt>
<trkpt lat="33.8103425" lon="-118.3944803">
  <ele>-25.012</ele>
  <time>2026-09-02T22:08:53Z</time>
  <course>265.67</course>
  <speed>1.0212247548899311</speed>
  <fix>3d</fix>
</trkpt>
<trkpt lat="33.8103438" lon="-118.3944802">
  <ele>-24.41</ele>
  <time>2026-09-02T22:08:53Z</time>
  <course>175.62</course>
  <speed>0.99</speed>
  <fix>3d</fix>
</trkpt>
<trkpt lat="33.8103416" lon="-118.3944803">
  <ele>-25.013</ele>
  <time>2026-09-02T22:08:53Z</time>
  <course>265.78</course>
  <speed>1.0207840124139878</speed>
  <fix>3d</fix>
</trkpt>
<trkpt lat="33.8103438" lon="-118.3944802">
  <ele>-24.41</ele>
  <time>2026-09-02T22:08:53Z</time>
  <course>175.62</course>
  <speed>0.99</speed>
  <fix>3d</fix>
</trkpt>
<trkpt lat="33.8103407" lon="-118.3944802">
  <ele>-25.015</ele>
  <time>2026-09-02T22:08:53Z</time>
  <course>265.89</course>
  <speed>1.0207840124139878</speed>
  <fix>3d</fix>
</trkpt>
<trkpt lat="33.8103421" lon="-118.39448">
  <ele>-24.41</ele>
  <time>2026-09-02T22:08:53Z</time>
  <course>175.78</course>
  <speed>0.99</speed>
  <fix>3d</fix>
</trkpt>
<trkpt lat="33.8103398" lon="-118.3944801">
  <ele>-25.016</ele>
  <time>2026-09-02T22:08:53Z</time>
  <course>266.01</course>
  <speed>1.0207840124139878</speed>
  <fix>3d</fix>
</trkpt>
<trkpt lat="33.8103421" lon="-118.39448">
  <ele>-24.41</ele>
  <time>2026-09-02T22:08:53Z</time>
  <course>175.78</course>
  <speed>0.99</speed>
  <fix>3d</fix>
</trkpt>
<trkpt lat="33.8103389" lon="-118.39448">
  <ele>-25.017</ele>
  <time>2026-09-02T22:08:53Z</time>
  <course>266.12</course>
  <speed>1.0207840124139878</speed>
  <fix>3d</fix>
</trkpt>
<trkpt lat="33.8103402" lon="-118.3944799">
  <ele>-24.42</ele>
  <time>2026-09-02T22:08:53Z</time>
  <course>176.0</course>
  <speed>0.99</speed>
  <fix>3d</fix>
</trkpt>
<trkpt lat="33.810338" lon="-118.39448">
  <ele>-25.018</ele>
  <time>2026-09-02T22:08:53Z</time>
  <course>266.24</course>
  <speed>1.0207840124139878</speed>
  <fix>3d</fix>
</trkpt>
<trkpt lat="33.8103402" lon="-118.3944799">
  <ele>-24.42</ele>
  <time>2026-09-02T22:08:53Z</time>
  <course>176.0</course>
  <speed>0.99</speed>
  <fix>3d</fix>
</trkpt>
<trkpt lat="33.8103371" lon="-118.3944799">
  <ele>-25.018</ele>
  <time>2026-09-02T22:08:53Z</time>
  <course>266.35</course>
  <speed>1.0207840124139878</speed>
  <fix>3d</fix>
</trkpt>
<trkpt lat="33.8103385" lon="-118.3944797">
  <ele>-24.42</ele>
  <time>2026-09-02T22:08:53Z</time>
  <course>176.23</course>
  <speed>0.99</speed>
  <fix>3d</fix>
</trkpt>
<trkpt lat="33.8103362" lon="-118.3944798">
  <ele>-25.018</ele>
  <time>2026-09-02T22:08:53Z</time>
  <course>266.47</course>
  <speed>1.0204410811016968</speed>
  <fix>3d</fix>
</trkpt>
<trkpt lat="33.8103385" lon="-118.3944797">
  <ele>-24.42</ele>
  <time>2026-09-02T22:08:53Z</time>
  <course>176.23</course>
  <speed>0.99</speed>
  <fix>3d</fix>
</trkpt>
<trkpt lat="33.8103353" lon="-118.3944798">
  <ele>-25.018</ele>
  <time>2026-09-02T22:08:53Z</time>
  <course>266.58</course>
  <speed>1.0204410811016968</speed>
  <fix>3d</fix>
</trkpt>
<trkpt lat="33.8103366" lon="-118.3944795">
  <ele>-24.41</ele>
  <time>2026-09-02T22:08:53Z</time>
  <course>176.46</course>
  <speed>0.99</speed>
  <fix>3d</fix>
</trkpt>
<trkpt lat="33.8103344" lon="-118.3944797">
  <ele>-25.017</ele>
  <time>2026-09-02T22:08:53Z</time>
  <course>266.7</course>
  <speed>1.0204410811016968</speed>
  <fix>3d</fix>
</trkpt>
<trkpt lat="33.8103366" lon="-118.3944795">
  <ele>-24.41</ele>
  <time>2026-09-02T22:08:53Z</time>
  <course>176.46</course>
  <speed>0.99</speed>
  <fix>3d</fix>
</trkpt>
<trkpt lat="33.8103335" lon="-118.3944797">
  <ele>-25.015</ele>
  <time>2026-09-02T22:08:53Z</time>
  <course>266.81</course>
  <speed>1.020196059588548</speed>
  <fix>3d</fix>
</trkpt>
<trkpt lat="33.8103349" lon="-118.3944794">
  <ele>-24.41</ele>
  <time>2026-09-02T22:08:53Z</time>
  <course>176.75</course>
  <speed>0.99</speed>
  <fix>3d</fix>
</trkpt>
<trkpt lat="33.8103326" lon="-118.3944796">
  <ele>-25.012</ele>
  <time>2026-09-02T22:08:53Z</time>
  <course>266.93</course>
  <speed>1.020196059588548</speed>
  <fix>3d</fix>
</trkpt>
<trkpt lat="33.8103349" lon="-118.3944794">
  <ele>-24.41</ele>
  <time>2026-09-02T22:08:53Z</time>
  <course>176.75</course>
  <speed>0.99</speed>
  <fix>3d</fix>
</trkpt>
<trkpt lat="33.8103317" lon="-118.3944795">
  <ele>-25.01</ele>
  <time>2026-09-02T22:08:53Z</time>
  <course>267.04</course>
  <speed>1.020196059588548</speed>
  <fix>3d</fix>
</trkpt>
<trkpt lat="33.810333" lon="-118.3944793">
  <ele>-24.41</ele>
  <time>2026-09-02T22:08:53Z</time>
  <course>177.06</course>
  <speed>0.99</speed>
  <fix>3d</fix>
</trkpt>
<trkpt lat="33.8103308" lon="-118.3944795">
  <ele>-25.01</ele>
  <time>2026-09-02T22:08:53Z</time>
  <course>267.16</course>
  <speed>1.020196059588548</speed>
  <fix>3d</fix>
</trkpt>
<trkpt lat="33.810333" lon="-118.3944793">
  <ele>-24.41</ele>
  <time>2026-09-02T22:08:53Z</time>
  <course>177.06</course>
  <speed>0.99</speed>
  <fix>3d</fix>
</trkpt>
<trkpt lat="33.8103299" lon="-118.3944794">
  <ele>-25.011</ele>
  <time>2026-09-02T22:08:53Z</time>
  <course>267.27</course>
  <speed>1.0200490184299968</speed>
  <fix>3d</fix>
</trkpt>
<trkpt lat="33.8103313" lon="-118.3944792">
  <ele>-24.4</ele>
  <time>2026-09-02T22:08:53Z</time>
  <course>177.34</course>
  <speed>0.99</speed>
  <fix>3d</fix>
</trkpt>
<trkpt lat="33.810329" lon="-118.3944794">
  <ele>-25.011</ele>
  <time>2026-09-02T22:08:53Z</time>
  <course>267.39</course>
  <speed>1.0200490184299968</speed>
  <fix>3d</fix>
</trkpt>
<trkpt lat="33.8103313" lon="-118.3944792">
  <ele>-24.4</ele>
  <time>2026-09-02T22:08:53Z</time>
  <course>177.34</course>
  <speed>0.99</speed>
  <fix>3d</fix>
</trkpt>
<trkpt lat="33.8103281" lon="-118.3944794">
  <ele>-25.011</ele>
  <time>2026-09-02T22:08:54Z</time>
  <course>267.5</course>
  <speed>1.0200490184299968</speed>
  <fix>3d</fix>
</trkpt>
<trkpt lat="33.8103295" lon="-118.3944791">
  <ele>-24.4</ele>
  <time>2026-09-02T22:08:54Z</time>
  <course>177.6</course>
  <speed>0.99</speed>
  <fix>3d</fix>
</trkpt>
<trkpt lat="33.8103272" lon="-118.3944793">
  <ele>-25.011</ele>
  <time>2026-09-02T22:08:54Z</time>
  <course>267.61</course>
  <speed>1.0200490184299968</speed>
  <fix>3d</fix>
</trkpt>
<trkpt lat="33.8103295" lon="-118.3944791">
  <ele>-24.4</ele>
  <time>2026-09-02T22:08:54Z</time>
  <course>177.6</course>
  <speed>0.99</speed>
  <fix>3d</fix>
</trkpt>
<trkpt lat="33.8103263" lon="-118.3944793">
  <ele>-25.012</ele>
  <time>2026-09-02T22:08:54Z</time>
  <course>267.73</course>
  <speed>1.0200490184299968</speed>
  <fix>3d</fix>
</trkpt>
<trkpt lat="33.8103277" lon="-118.394479">
  <ele>-24.41</ele>
  <time>2026-09-02T22:08:54Z</time>
  <course>177.84</course>
  <speed>0.99</speed>
  <fix>3d</fix>
</trkpt>
<trkpt lat="33.8103254" lon="-118.3944792">
  <ele>-25.013</ele>
  <time>2026-09-02T22:08:54Z</time>
  <course>267.84</course>
  <speed>1.02</speed>
  <fix>3d</fix>
</trkpt>
<trkpt lat="33.8103277" lon="-118.394479">
  <ele>-24.41</ele>
  <time>2026-09-02T22:08:54Z</time>
  <course>177.84</course>
  <speed>0.99</speed>
  <fix>3d</fix>
</trkpt>
<trkpt lat="33.8103245" lon="-118.3944792">
  <ele>-25.014</ele>
  <time>2026-09-02T22:08:54Z</time>
  <course>267.95</course>
  <speed>1.02</speed>
  <fix>3d</fix>
</trkpt>
<trkpt lat="33.810326" lon="-118.394479">
  <ele>-24.41</ele>
  <time>2026-09-02T22:08:54Z</time>
  <course>178.07</course>
  <speed>0.99</speed>
  <fix>3d</fix>
</trkpt>
<trkpt lat="33.8103236" lon="-118.3944792">
  <ele>-25.014</ele>
  <time>2026-09-02T22:08:54Z</time>
  <course>268.07</course>
  <speed>1.01</speed>
  <fix>3d</fix>
</trkpt>
<trkpt lat="33.810326" lon="-118.394479">
  <ele>-24.41</ele>
  <time>2026-09-02T22:08:54Z</time>
  <course>178.07</course>
  <speed>0.99</speed>
  <fix>3d</fix>
</trkpt>
<trkpt lat="33.8103228" lon="-118.3944791">
  <ele>-25.014</ele>
  <time>2026-09-02T22:08:54Z</time>
  <course>267.53</course>
  <speed>0.85</speed>
  <fix>3d</fix>
</trkpt>
<trkpt lat="33.8103241" lon="-118.3944789">
  <ele>-24.41</ele>
  <time>2026-09-02T22:08:54Z</time>
  <course>178.24</course>
  <speed>0.97</speed>
  <fix>3d</fix>
</trkpt>
<trkpt lat="33.8103221" lon="-118.3944791">
  <ele>-25.015</ele>
  <time>2026-09-02T22:08:54Z</time>
  <course>264.81</course>
  <speed>0.72</speed>
  <fix>3d</fix>
</trkpt>
<trkpt lat="33.8103241" lon="-118.3944789">
  <ele>-24.41</ele>
  <time>2026-09-02T22:08:54Z</time>
  <course>178.24</course>
  <speed>0.97</speed>
  <fix>3d</fix>
</trkpt>
<trkpt lat="33.8103215" lon="-118.3944791">
  <ele>-25.015</ele>
  <time>2026-09-02T22:08:54Z</time>
  <course>261.23</course>
  <speed>0.62</speed>
  <fix>3d</fix>
</trkpt>
<trkpt lat="33.8103225" lon="-118.3944788">
  <ele>-24.41</ele>
  <time>2026-09-02T22:08:54Z</time>
  <course>178.05</course>
  <speed>0.81</speed>
  <fix>3d</fix>
</trkpt>
<trkpt lat="33.810321" lon="-118.3944791">
  <ele>-25.015</ele>
  <time>2026-09-02T22:08:54Z</time>
  <course>257.62</course>
  <speed>0.540092584655631</speed>
  <fix>3d</fix>
</trkpt>
<trkpt lat="33.8103225" lon="-118.3944788">
  <ele>-24.41</ele>
  <time>2026-09-02T22:08:54Z</time>
  <course>178.05</course>
  <speed>0.81</speed>
  <fix>3d</fix>
</trkpt>
<trkpt lat="33.8103206" lon="-118.394479">
  <ele>-25.014</ele>
  <time>2026-09-02T22:08:54Z</time>
  <course>254.17</course>
  <speed>0.4617358552246078</speed>
  <fix>3d</fix>
</trkpt>
<trkpt lat="33.8103213" lon="-118.3944788">
  <ele>-24.41</ele>
  <time>2026-09-02T22:08:54Z</time>
  <course>176.19</course>
  <speed>0.58</speed>
  <fix>3d</fix>
</trkpt>
<trkpt lat="33.8103202" lon="-118.3944789">
  <ele>-25.014</ele>
  <time>2026-09-02T22:08:54Z</time>
  <course>250.95</course>
  <speed>0.37483329627982626</speed>
  <fix>3d</fix>
</trkpt>
<trkpt lat="33.8103213" lon="-118.3944788">
  <ele>-24.41</ele>
  <time>2026-09-02T22:08:54Z</time>
  <course>176.19</course>
  <speed>0.58</speed>
  <fix>3d</fix>
</trkpt>
<trkpt lat="33.8103199" lon="-118.3944788">
  <ele>-25.014</ele>
  <time>2026-09-02T22:08:54Z</time>
  <course>248.9</course>
  <speed>0.3080584360149873</speed>
  <fix>3d</fix>
</trkpt>
<trkpt lat="33.8103203" lon="-118.3944787">
  <ele>-24.41</ele>
  <time>2026-09-02T22:08:54Z</time>
  <course>169.87</course>
  <speed>0.42</speed>
  <fix>3d</fix>
</trkpt>
<trkpt lat="33.8103197" lon="-118.3944787">
  <ele>-25.014</ele>
  <time>2026-09-02T22:08:54Z</time>
  <course>248.82</course>
  <speed>0.24596747752497689</speed>
  <fix>3d</fix>
</trkpt>
<trkpt lat="33.8103203" lon="-118.3944787">
  <ele>-24.41</ele>
  <time>2026-09-02T22:08:54Z</time>
  <course>169.87</course>
  <speed>0.42</speed>
  <fix>3d</fix>
</trkpt>
<trkpt lat="33.8103195" lon="-118.3944785">
  <ele>-25.014</ele>
  <time>2026-09-02T22:08:54Z</time>
  <course>251.03</course>
  <speed>0.212602916254693</speed>
  <fix>3d</fix>
</trkpt>
<trkpt lat="33.8103198" lon="-118.3944784">
  <ele>-24.41</ele>
  <time>2026-09-02T22:08:54Z</time>
  <course>153.68</course>
  <speed>0.28</speed>
  <fix>3d</fix>
</trkpt>
<trkpt lat="33.8103194" lon="-118.3944783">
  <ele>-25.014</ele>
  <time>2026-09-02T22:08:54Z</time>
  <course>254.15</course>
  <speed>0.21189620100417092</speed>
  <fix>3d</fix>
</trkpt>
<trkpt lat="33.8103198" lon="-118.3944784">
  <ele>-24.41</ele>
  <time>2026-09-02T22:08:54Z</time>
  <course>153.68</course>
  <speed>0.28</speed>
  <fix>3d</fix>
</trkpt>
<trkpt lat="33.8103194" lon="-118.394478">
  <ele>-25.015</ele>
  <time>2026-09-02T22:08:54Z</time>
  <course>257.71</course>
  <speed>0.24</speed>
  <fix>3d</fix>
</trkpt>
<trkpt lat="33.8103195" lon="-118.394478">
  <ele>-24.41</ele>
  <time>2026-09-02T22:08:54Z</time>
  <course>116.24</course>
  <speed>0.22</speed>
  <fix>3d</fix>
</trkpt>
<trkpt lat="33.8103194" lon="-118.3944777">
  <ele>-25.016</ele>
  <time>2026-09-02T22:08:54Z</time>
  <course>261.47</course>
  <speed>0.28861739379323625</speed>
  <fix>3d</fix>
</trkpt>
<trkpt lat="33.8103195" lon="-118.394478">
  <ele>-24.41</ele>
  <time>2026-09-02T22:08:54Z</time>
  <course>116.24</course>
  <speed>0.22</speed>
  <fix>3d</fix>
</trkpt>
<trkpt lat="33.8103195" lon="-118.3944774">
  <ele>-25.017</ele>
  <time>2026-09-02T22:08:54Z</time>
  <course>265.37</course>
  <speed>0.3361547262794322</speed>
  <fix>3d</fix>
</trkpt>
<trkpt lat="33.8103194" lon="-118.3944775">
  <ele>-24.41</ele>
  <time>2026-09-02T22:08:54Z</time>
  <course>79.57</course>
  <speed>0.29</speed>
  <fix>3d</fix>
</trkpt>
<trkpt lat="33.8103197" lon="-118.394477">
  <ele>-25.017</ele>
  <time>2026-09-02T22:08:54Z</time>
  <course>269.39</course>
  <speed>0.38078865529319544</speed>
  <fix>3d</fix>
</trkpt>
<trkpt lat="33.8103194" lon="-118.3944775">
  <ele>-24.41</ele>
  <time>2026-09-02T22:08:54Z</time>
  <course>79.57</course>
  <speed>0.29</speed>
  <fix>3d</fix>
</trkpt>
<trkpt lat="33.8103199" lon="-118.3944766">
  <ele>-25.016</ele>
  <time>2026-09-02T22:08:54Z</time>
  <course>273.57</course>
  <speed>0.4219004621945798</speed>
  <fix>3d</fix>
</trkpt>
<trkpt lat="33.8103196" lon="-118.3944769">
  <ele>-24.41</ele>
  <time>2026-09-02T22:08:54Z</time>
  <course>62.76</course>
  <speed>0.39</speed>
  <fix>3d</fix>
</trkpt>
<trkpt lat="33.81032" lon="-118.3944761">
  <ele>-25.015</ele>
  <time>2026-09-02T22:08:54Z</time>
  <course>277.91</course>
  <speed>0.45486261662176636</speed>
  <fix>3d</fix>
</trkpt>
<trkpt lat="33.8103196" lon="-118.3944769">
  <ele>-24.41</ele>
  <time>2026-09-02T22:08:54Z</time>
  <course>62.76</course>
  <speed>0.39</speed>
  <fix>3d</fix>
</trkpt>
<trkpt lat="33.8103203" lon="-118.3944757">
  <ele>-25.014</ele>
  <time>2026-09-02T22:08:54Z</time>
  <course>282.39</course>
  <speed>0.4825971404805462</speed>
  <fix>3d</fix>
</trkpt>
<trkpt lat="33.8103199" lon="-118.394476">
  <ele>-24.41</ele>
  <time>2026-09-02T22:08:54Z</time>
  <course>56.35</course>
  <speed>0.48</speed>
  <fix>3d</fix>
</trkpt>
<trkpt lat="33.8103205" lon="-118.3944752">
  <ele>-25.015</ele>
  <time>2026-09-02T22:08:54Z</time>
  <course>287.0</course>
  <speed>0.5021951811795887</speed>
  <fix>3d</fix>
</trkpt>
<trkpt lat="33.8103199" lon="-118.394476">
  <ele>-24.41</ele>
  <time>2026-09-02T22:08:54Z</time>
  <course>56.35</course>
  <speed>0.48</speed>
  <fix>3d</fix>
</trkpt>
<trkpt lat="33.8103208" lon="-118.3944747">
  <ele>-25.015</ele>
  <time>2026-09-02T22:08:54Z</time>
  <course>291.76</course>
  <speed>0.5161395160225576</speed>
  <fix>3d</fix>
</trkpt>
<trkpt lat="33.8103205" lon="-118.3944751">
  <ele>-24.41</ele>
  <time>2026-09-02T22:08:54Z</time>
  <course>54.12</course>
  <speed>0.54</speed>
  <fix>3d</fix>
</trkpt>
<trkpt lat="33.8103211" lon="-118.3944743">
  <ele>-25.016</ele>
  <time>2026-09-02T22:08:54Z</time>
  <course>296.67</course>
  <speed>0.5300943312279428</speed>
  <fix>3d</fix>
</trkpt>
<trkpt lat="33.8103205" lon="-118.3944751">
  <ele>-24.41</ele>
  <time>2026-09-02T22:08:54Z</time>
  <course>54.12</course>
  <speed>0.54</speed>
  <fix>3d</fix>
</trkpt>
<trkpt lat="33.8103214" lon="-118.3944737">
  <ele>-25.015</ele>
  <time>2026-09-02T22:08:54Z</time>
  <course>301.77</course>
  <speed>0.5440588203494178</speed>
  <fix>3d</fix>
</trkpt>
<trkpt lat="33.810321" lon="-118.3944742">
  <ele>-24.4</ele>
  <time>2026-09-02T22:08:54Z</time>
  <course>53.24</course>
  <speed>0.57</speed>
  <fix>3d</fix>
</trkpt>
<trkpt lat="33.8103217" lon="-118.3944732">
  <ele>-25.014</ele>
  <time>2026-09-02T22:08:54Z</time>
  <course>306.97</course>
  <speed>0.5440588203494178</speed>
  <fix>3d</fix>
</trkpt>
<trkpt lat="33.810321" lon="-118.3944742">
  <ele>-24.4</ele>
  <time>2026-09-02T22:08:54Z</time>
  <course>53.24</course>
  <speed>0.57</speed>
  <fix>3d</fix>
</trkpt>
<trkpt lat="33.810322" lon="-118.3944727">
  <ele>-25.012</ele>
  <time>2026-09-02T22:08:54Z</time>
  <course>312.31</course>
  <speed>0.55</speed>
  <fix>3d</fix>
</trkpt>
<trkpt lat="33.8103217" lon="-118.3944731">
  <ele>-24.4</ele>
  <time>2026-09-02T22:08:54Z</time>
  <course>52.48</course>
  <speed>0.6</speed>
  <fix>3d</fix>
</trkpt>
<trkpt lat="33.8103223" lon="-118.3944722">
  <ele>-25.011</ele>
  <time>2026-09-02T22:08:54Z</time>
  <course>317.75</course>
  <speed>0.5560575509783138</speed>
  <fix>3d</fix>
</trkpt>
<trkpt lat="33.8103217" lon="-118.3944731">
  <ele>-24.4</ele>
  <time>2026-09-02T22:08:54Z</time>
  <course>52.48</course>
  <speed>0.6</speed>
  <fix>3d</fix>
</trkpt>
<trkpt lat="33.8103226" lon="-118.3944717">
  <ele>-25.011</ele>
  <time>2026-09-02T22:08:54Z</time>
  <course>323.28</course>
  <speed>0.5685068161420758</speed>
  <fix>3d</fix>
</trkpt>
<trkpt lat="33.8103224" lon="-118.3944721">
  <ele>-24.4</ele>
  <time>2026-09-02T22:08:54Z</time>
  <course>51.2</course>
  <speed>0.61</speed>
  <fix>3d</fix>
</trkpt>
<trkpt lat="33.810323" lon="-118.3944712">
  <ele>-25.01</ele>
  <time>2026-09-02T22:08:54Z</time>
  <course>328.83</course>
  <speed>0.5748912940721924</speed>
  <fix>3d</fix>
</trkpt>
<trkpt lat="33.8103224" lon="-118.3944721">
  <ele>-24.4</ele>
  <time>2026-09-02T22:08:54Z</time>
  <course>51.2</course>
  <speed>0.61</speed>
  <fix>3d</fix>
</trkpt>
<trkpt lat="33.8103234" lon="-118.3944707">
  <ele>-25.01</ele>
  <time>2026-09-02T22:08:54Z</time>
  <course>334.41</course>
  <speed>0.5813776741499453</speed>
  <fix>3d</fix>
</trkpt>
<trkpt lat="33.8103231" lon="-118.3944711">
  <ele>-24.4</ele>
  <time>2026-09-02T22:08:54Z</time>
  <course>49.47</course>
  <speed>0.63</speed>
  <fix>3d</fix>
</trkpt>
<trkpt lat="33.8103237" lon="-118.3944702">
  <ele>-25.011</ele>
  <time>2026-09-02T22:08:54Z</time>
  <course>339.97</course>
  <speed>0.587962583843564</speed>
  <fix>3d</fix>
</trkpt>
<trkpt lat="33.8103231" lon="-118.3944711">
  <ele>-24.4</ele>
  <time>2026-09-02T22:08:54Z</time>
  <course>49.47</course>
  <speed>0.63</speed>
  <fix>3d</fix>
</trkpt>
<trkpt lat="33.8103241" lon="-118.3944697">
  <ele>-25.012</ele>
  <time>2026-09-02T22:08:54Z</time>
  <course>345.51</course>
  <speed>0.5954829972383763</speed>
  <fix>3d</fix>
</trkpt>
<trkpt lat="33.8103239" lon="-118.39447">
  <ele>-24.4</ele>
  <time>2026-09-02T22:08:54Z</time>
  <course>48.32</course>
  <speed>0.64</speed>
  <fix>3d</fix>
</trkpt>
<trkpt lat="33.8103245" lon="-118.3944691">
  <ele>-25.012</ele>
  <time>2026-09-02T22:08:54Z</time>
  <course>351.02</course>
  <speed>0.6030754513325841</speed>
  <fix>3d</fix>
</trkpt>
<trkpt lat="33.8103239" lon="-118.39447">
  <ele>-24.4</ele>
  <time>2026-09-02T22:08:54Z</time>
  <course>48.32</course>
  <speed>0.64</speed>
  <fix>3d</fix>
</trkpt>
<trkpt lat="33.8103249" lon="-118.3944686">
  <ele>-25.012</ele>
  <time>2026-09-02T22:08:54Z</time>
  <course>356.48</course>
  <speed>0.6107372593840988</speed>
  <fix>3d</fix>
</trkpt>
<trkpt lat="33.8103246" lon="-118.3944689">
  <ele>-24.41</ele>
  <time>2026-09-02T22:08:54Z</time>
  <course>48.44</course>
  <speed>0.66</speed>
  <fix>3d</fix>
</trkpt>
<trkpt lat="33.8103253" lon="-118.394468">
  <ele>-25.014</ele>
  <time>2026-09-02T22:08:54Z</time>
  <course>1.53</course>
  <speed>0.6044005294504631</speed>
  <fix>3d</fix>
</trkpt>
<trkpt lat="33.8103246" lon="-118.3944689">
  <ele>-24.41</ele>
  <time>2026-09-02T22:08:54Z</time>
  <course>48.44</course>
  <speed>0.66</speed>
  <fix>3d</fix>
</trkpt>
<trkpt lat="33.8103256" lon="-118.3944675">
  <ele>-25.015</ele>
  <time>2026-09-02T22:08:54Z</time>
  <course>6.13</course>
  <speed>0.5981638571495272</speed>
  <fix>3d</fix>
</trkpt>
<trkpt lat="33.8103254" lon="-118.3944679">
  <ele>-24.41</ele>
  <time>2026-09-02T22:08:54Z</time>
  <course>49.41</course>
  <speed>0.66</speed>
  <fix>3d</fix>
</trkpt>
<trkpt lat="33.810326" lon="-118.394467">
  <ele>-25.017</ele>
  <time>2026-09-02T22:08:54Z</time>
  <course>10.37</course>
  <speed>0.5841232746604094</speed>
  <fix>3d</fix>
</trkpt>
<trkpt lat="33.8103254" lon="-118.3944679">
  <ele>-24.41</ele>
  <time>2026-09-02T22:08:54Z</time>
  <course>49.41</course>
  <speed>0.66</speed>
  <fix>3d</fix>
</trkpt>
<trkpt lat="33.8103263" lon="-118.3944664">
  <ele>-25.017</ele>
  <time>2026-09-02T22:08:54Z</time>
  <course>14.35</course>
  <speed>0.5860034129593444</speed>
  <fix>3d</fix>
</trkpt>
<trkpt lat="33.8103262" lon="-118.3944668">
  <ele>-24.41</ele>
  <time>2026-09-02T22:08:54Z</time>
  <course>50.69</course>
  <speed>0.65</speed>
  <fix>3d</fix>
</trkpt>
<trkpt lat="33.8103267" lon="-118.3944659">
  <ele>-25.017</ele>
  <time>2026-09-02T22:08:54Z</time>
  <course>18.08</course>
  <speed>0.5800862004909271</speed>
  <fix>3d</fix>
</trkpt>
<trkpt lat="33.8103262" lon="-118.3944668">
  <ele>-24.41</ele>
  <time>2026-09-02T22:08:54Z</time>
  <course>50.69</course>
  <speed>0.65</speed>
  <fix>3d</fix>
</trkpt>
<trkpt lat="33.810327" lon="-118.3944653">
  <ele>-25.017</ele>
  <time>2026-09-02T22:08:54Z</time>
  <course>21.65</course>
  <speed>0.5742821606144493</speed>
  <fix>3d</fix>
</trkpt>
<trkpt lat="33.8103269" lon="-118.3944657">
  <ele>-24.41</ele>
  <time>2026-09-02T22:08:54Z</time>
  <course>52.22</course>
  <speed>0.64</speed>
  <fix>3d</fix>
</trkpt>
<trkpt lat="33.8103274" lon="-118.3944648">
  <ele>-25.017</ele>
  <time>2026-09-02T22:08:54Z</time>
  <course>25.07</course>
  <speed>0.56859475903318</speed>
  <fix>3d</fix>
</trkpt>
<trkpt lat="33.8103269" lon="-118.3944657">
  <ele>-24.41</ele>
  <time>2026-09-02T22:08:54Z</time>
  <course>52.22</course>
  <speed>0.64</speed>
  <fix>3d</fix>
</trkpt>
<trkpt lat="33.8103277" lon="-118.3944642">
  <ele>-25.016</ele>
  <time>2026-09-02T22:08:54Z</time>
  <course>28.33</course>
  <speed>0.5630275304103699</speed>
  <fix>3d</fix>
</trkpt>
<trkpt lat="33.8103276" lon="-118.3944646">
  <ele>-24.41</ele>
  <time>2026-09-02T22:08:54Z</time>
  <course>54.03</course>
  <speed>0.63</speed>
  <fix>3d</fix>
</trkpt>
<trkpt lat="33.810328" lon="-118.3944637">
  <ele>-25.015</ele>
  <time>2026-09-02T22:08:54Z</time>
  <course>31.25</course>
  <speed>0.5630275304103699</speed>
  <fix>3d</fix>
</trkpt>
<trkpt lat="33.8103276" lon="-118.3944646">
  <ele>-24.41</ele>
  <time>2026-09-02T22:08:54Z</time>
  <course>54.03</course>
  <speed>0.63</speed>
  <fix>3d</fix>
</trkpt>
<trkpt lat="33.8103283" lon="-118.3944631">
  <ele>-25.013</ele>
  <time>2026-09-02T22:08:54Z</time>
  <course>33.63</course>
  <speed>0.5630275304103699</speed>
  <fix>3d</fix>
</trkpt>
<trkpt lat="33.8103282" lon="-118.3944635">
  <ele>-24.41</ele>
  <time>2026-09-02T22:08:54Z</time>
  <course>55.41</course>
  <speed>0.61</speed>
  <fix>3d</fix>
</trkpt>
<trkpt lat="33.8103286" lon="-118.3944626">
  <ele>-25.012</ele>
  <time>2026-09-02T22:08:54Z</time>
  <course>35.31</course>
  <speed>0.5630275304103699</speed>
  <fix>3d</fix>
</trkpt>
<trkpt lat="33.8103282" lon="-118.3944635">
  <ele>-24.41</ele>
  <time>2026-09-02T22:08:54Z</time>
  <course>55.41</course>
  <speed>0.61</speed>
  <fix>3d</fix>
</trkpt>
<trkpt lat="33.8103289" lon="-118.394462">
  <ele>-25.013</ele>
  <time>2026-09-02T22:08:54Z</time>
  <course>36.31</course>
  <speed>0.560357029044876</speed>
  <fix>3d</fix>
</trkpt>
<trkpt lat="33.8103289" lon="-118.3944624">
  <ele>-24.41</ele>
  <time>2026-09-02T22:08:54Z</time>
  <course>55.58</course>
  <speed>0.61</speed>
  <fix>3d</fix>
</trkpt>
<trkpt lat="33.8103293" lon="-118.3944615">
  <ele>-25.014</ele>
  <time>2026-09-02T22:08:54Z</time>
  <course>36.79</course>
  <speed>0.560357029044876</speed>
  <fix>3d</fix>
</trkpt>
<trkpt lat="33.8103289" lon="-118.3944624">
  <ele>-24.41</ele>
  <time>2026-09-02T22:08:54Z</time>
  <course>55.58</course>
  <speed>0.61</speed>
  <fix>3d</fix>
</trkpt>
<trkpt lat="33.8103296" lon="-118.3944609">
  <ele>-25.015</ele>
  <time>2026-09-02T22:08:54Z</time>
  <course>36.92</course>
  <speed>0.5661271941887265</speed>
  <fix>3d</fix>
</trkpt>
<trkpt lat="33.8103294" lon="-118.3944613">
  <ele>-24.41</ele>
  <time>2026-09-02T22:08:54Z</time>
  <course>54.97</course>
  <speed>0.6</speed>
  <fix>3d</fix>
</trkpt>
<trkpt lat="33.8103299" lon="-118.3944604">
  <ele>-25.015</ele>
  <time>2026-09-02T22:08:54Z</time>
  <course>36.88</course>
  <speed>0.5661271941887265</speed>
  <fix>3d</fix>
</trkpt>
<trkpt lat="33.8103294" lon="-118.3944613">
  <ele>-24.41</ele>
  <time>2026-09-02T22:08:54Z</time>
  <course>54.97</course>
  <speed>0.6</speed>
  <fix>3d</fix>
</trkpt>
<trkpt lat="33.8103303" lon="-118.3944598">
  <ele>-25.015</ele>
  <time>2026-09-02T22:08:54Z</time>
  <course>36.79</course>
  <speed>0.5720139858430037</speed>
  <fix>3d</fix>
</trkpt>
<trkpt lat="33.8103301" lon="-118.3944602">
  <ele>-24.41</ele>
  <time>2026-09-02T22:08:54Z</time>
  <course>54.26</course>
  <speed>0.61</speed>
  <fix>3d</fix>
</trkpt>
<trkpt lat="33.8103306" lon="-118.3944593">
  <ele>-25.016</ele>
  <time>2026-09-02T22:08:54Z</time>
  <course>36.72</course>
  <speed>0.5720139858430037</speed>
  <fix>3d</fix>
</trkpt>
<trkpt lat="33.8103301" lon="-118.3944602">
  <ele>-24.41</ele>
  <time>2026-09-02T22:08:54Z</time>
  <course>54.26</course>
  <speed>0.61</speed>
  <fix>3d</fix>
</trkpt>
<trkpt lat="33.8103309" lon="-118.3944588">
  <ele>-25.016</ele>
  <time>2026-09-02T22:08:54Z</time>
  <course>36.66</course>
  <speed>0.5720139858430037</speed>
  <fix>3d</fix>
</trkpt>
<trkpt lat="33.8103308" lon="-118.3944592">
  <ele>-24.41</ele>
  <time>2026-09-02T22:08:54Z</time>
  <course>53.71</course>
  <speed>0.61</speed>
  <fix>3d</fix>
</trkpt>
<trkpt lat="33.8103313" lon="-118.3944582">
  <ele>-25.017</ele>
  <time>2026-09-02T22:08:54Z</time>
  <course>36.64</course>
  <speed>0.5860034129593444</speed>
  <fix>3d</fix>
</trkpt>
<trkpt lat="33.8103308" lon="-118.3944592">
  <ele>-24.41</ele>
  <time>2026-09-02T22:08:54Z</time>
  <course>53.71</course>
  <speed>0.61</speed>
  <fix>3d</fix>
</trkpt>
<trkpt lat="33.8103316" lon="-118.3944577">
  <ele>-25.017</ele>
  <time>2026-09-02T22:08:54Z</time>
  <course>36.64</course>
  <speed>0.5860034129593444</speed>
  <fix>3d</fix>
</trkpt>
<trkpt lat="33.8103314" lon="-118.3944581">
  <ele>-24.41</ele>
  <time>2026-09-02T22:08:54Z</time>
  <course>53.4</course>
  <speed>0.61</speed>
  <fix>3d</fix>
</trkpt>
<trkpt lat="33.810332" lon="-118.3944571">
  <ele>-25.016</ele>
  <time>2026-09-02T22:08:54Z</time>
  <course>36.67</course>
  <speed>0.5860034129593444</speed>
  <fix>3d</fix>
</trkpt>
<trkpt lat="33.8103314" lon="-118.3944581">
  <ele>-24.41</ele>
  <time>2026-09-02T22:08:54Z</time>
  <course>53.4</course>
  <speed>0.61</speed>
  <fix>3d</fix>
</trkpt>
<trkpt lat="33.8103323" lon="-118.3944566">
  <ele>-25.015</ele>
  <time>2026-09-02T22:08:54Z</time>
  <course>36.71</course>
  <speed>0.5860034129593444</speed>
  <fix>3d</fix>
</trkpt>
<trkpt lat="33.810332" lon="-118.394457">
  <ele>-24.41</ele>
  <time>2026-09-02T22:08:54Z</time>
  <course>53.26</course>
  <speed>0.61</speed>
  <fix>3d</fix>
</trkpt>
<trkpt lat="33.8103326" lon="-118.394456">
  <ele>-25.014</ele>
  <time>2026-09-02T22:08:54Z</time>
  <course>36.75</course>
  <speed>0.5920304046246274</speed>
  <fix>3d</fix>
</trkpt>
<trkpt lat="33.810332" lon="-118.394457">
  <ele>-24.41</ele>
  <time>2026-09-02T22:08:54Z</time>
  <course>53.26</course>
  <speed>0.61</speed>
  <fix>3d</fix>
</trkpt>
<trkpt lat="33.810333" lon="-118.3944555">
  <ele>-25.013</ele>
  <time>2026-09-02T22:08:54Z</time>
  <course>36.77</course>
  <speed>0.5920304046246274</speed>
  <fix>3d</fix>
</trkpt>
<trkpt lat="33.8103327" lon="-118.394456">
  <ele>-24.41</ele>
  <time>2026-09-02T22:08:54Z</time>
  <course>53.12</course>
  <speed>0.61</speed>
  <fix>3d</fix>
</trkpt>
<trkpt lat="33.8103333" lon="-118.394455">
  <ele>-25.012</ele>
  <time>2026-09-02T22:08:54Z</time>
  <course>36.79</course>
  <speed>0.5920304046246274</speed>
  <fix>3d</fix>
</trkpt>
<trkpt lat="33.8103327" lon="-118.394456">
  <ele>-24.41</ele>
  <time>2026-09-02T22:08:54Z</time>
  <course>53.12</course>
  <speed>0.61</speed>
  <fix>3d</fix>
</trkpt>
<trkpt lat="33.8103337" lon="-118.3944544">
  <ele>-25.012</ele>
  <time>2026-09-02T22:08:54Z</time>
  <course>36.83</course>
  <speed>0.5920304046246274</speed>
  <fix>3d</fix>
</trkpt>
<trkpt lat="33.8103334" lon="-118.3944549">
  <ele>-24.41</ele>
  <time>2026-09-02T22:08:54Z</time>
  <course>52.99</course>
  <speed>0.61</speed>
  <fix>3d</fix>
</trkpt>
<trkpt lat="33.810334" lon="-118.3944539">
  <ele>-25.012</ele>
  <time>2026-09-02T22:08:54Z</time>
  <course>36.89</course>
  <speed>0.5920304046246274</speed>
  <fix>3d</fix>
</trkpt>
<trkpt lat="33.8103334" lon="-118.3944549">
  <ele>-24.41</ele>
  <time>2026-09-02T22:08:54Z</time>
  <course>52.99</course>
  <speed>0.61</speed>
  <fix>3d</fix>
</trkpt>
<trkpt lat="33.8103344" lon="-118.3944533">
  <ele>-25.012</ele>
  <time>2026-09-02T22:08:54Z</time>
  <course>36.95</course>
  <speed>0.5920304046246274</speed>
  <fix>3d</fix>
</trkpt>
<trkpt lat="33.810334" lon="-118.3944539">
  <ele>-24.41</ele>
  <time>2026-09-02T22:08:54Z</time>
  <course>52.96</course>
  <speed>0.61</speed>
  <fix>3d</fix>
</trkpt>
<trkpt lat="33.8103347" lon="-118.3944528">
  <ele>-25.012</ele>
  <time>2026-09-02T22:08:54Z</time>
  <course>37.03</course>
  <speed>0.5981638571495272</speed>
  <fix>3d</fix>
</trkpt>
<trkpt lat="33.810334" lon="-118.3944539">
  <ele>-24.41</ele>
  <time>2026-09-02T22:08:54Z</time>
  <course>52.96</course>
  <speed>0.61</speed>
  <fix>3d</fix>
</trkpt>
<trkpt lat="33.8103351" lon="-118.3944523">
  <ele>-25.013</ele>
  <time>2026-09-02T22:08:54Z</time>
  <course>37.12</course>
  <speed>0.5981638571495272</speed>
  <fix>3d</fix>
</trkpt>
<trkpt lat="33.8103347" lon="-118.3944528">
  <ele>-24.41</ele>
  <time>2026-09-02T22:08:54Z</time>
  <course>52.96</course>
  <speed>0.61</speed>
  <fix>3d</fix>
</trkpt>
<trkpt lat="33.8103354" lon="-118.3944517">
  <ele>-25.014</ele>
  <time>2026-09-02T22:08:54Z</time>
  <course>37.22</course>
  <speed>0.6060528029800704</speed>
  <fix>3d</fix>
</trkpt>
<trkpt lat="33.8103347" lon="-118.3944528">
  <ele>-24.41</ele>
  <time>2026-09-02T22:08:54Z</time>
  <course>52.96</course>
  <speed>0.61</speed>
  <fix>3d</fix>
</trkpt>
<trkpt lat="33.8103357" lon="-118.3944512">
  <ele>-25.014</ele>
  <time>2026-09-02T22:08:54Z</time>
  <course>37.32</course>
  <speed>0.6060528029800704</speed>
  <fix>3d</fix>
</trkpt>
<trkpt lat="33.8103354" lon="-118.3944517">
  <ele>-24.41</ele>
  <time>2026-09-02T22:08:54Z</time>
  <course>52.97</course>
  <speed>0.61</speed>
  <fix>3d</fix>
</trkpt>
<trkpt lat="33.8103361" lon="-118.3944506">
  <ele>-25.013</ele>
  <time>2026-09-02T22:08:54Z</time>
  <course>37.42</course>
  <speed>0.6060528029800704</speed>
  <fix>3d</fix>
</trkpt>
<trkpt lat="33.8103354" lon="-118.3944517">
  <ele>-24.41</ele>
  <time>2026-09-02T22:08:54Z</time>
  <course>52.97</course>
  <speed>0.61</speed>
  <fix>3d</fix>
</trkpt>
<trkpt lat="33.8103364" lon="-118.3944501">
  <ele>-25.013</ele>
  <time>2026-09-02T22:08:54Z</time>
  <course>37.51</course>
  <speed>0.6122091146005587</speed>
  <fix>3d</fix>
</trkpt>
<trkpt lat="33.8103361" lon="-118.3944507">
  <ele>-24.41</ele>
  <time>2026-09-02T22:08:54Z</time>
  <course>53.01</course>
  <speed>0.61</speed>
  <fix>3d</fix>
</trkpt>
<trkpt lat="33.8103368" lon="-118.3944496">
  <ele>-25.013</ele>
  <time>2026-09-02T22:08:54Z</time>
  <course>37.61</course>
  <speed>0.6122091146005587</speed>
  <fix>3d</fix>
</trkpt>
<trkpt lat="33.8103361" lon="-118.3944507">
  <ele>-24.41</ele>
  <time>2026-09-02T22:08:54Z</time>
  <course>53.01</course>
  <speed>0.61</speed>
  <fix>3d</fix>
</trkpt>
<trkpt lat="33.8103371" lon="-118.394449">
  <ele>-25.013</ele>
  <time>2026-09-02T22:08:54Z</time>
  <course>37.73</course>
  <speed>0.6122091146005587</speed>
  <fix>3d</fix>
</trkpt>
<trkpt lat="33.8103367" lon="-118.3944496">
  <ele>-24.41</ele>
  <time>2026-09-02T22:08:54Z</time>
  <course>53.1</course>
  <speed>0.61</speed>
  <fix>3d</fix>
</trkpt>
<trkpt lat="33.8103375" lon="-118.3944485">
  <ele>-25.013</ele>
  <time>2026-09-02T22:08:54Z</time>
  <course>37.86</course>
  <speed>0.6122091146005587</speed>
  <fix>3d</fix>
</trkpt>
<trkpt lat="33.8103367" lon="-118.3944496">
  <ele>-24.41</ele>
  <time>2026-09-02T22:08:54Z</time>
  <course>53.1</course>
  <speed>0.61</speed>
  <fix>3d</fix>
</trkpt>
<trkpt lat="33.8103378" lon="-118.3944479">
  <ele>-25.015</ele>
  <time>2026-09-02T22:08:54Z</time>
  <course>37.98</course>
  <speed>0.6200806399170998</speed>
  <fix>3d</fix>
</trkpt>
<trkpt lat="33.8103374" lon="-118.3944485">
  <ele>-24.41</ele>
  <time>2026-09-02T22:08:54Z</time>
  <course>53.2</course>
  <speed>0.61</speed>
  <fix>3d</fix>
</trkpt>
<trkpt lat="33.8103382" lon="-118.3944474">
  <ele>-25.016</ele>
  <time>2026-09-02T22:08:54Z</time>
  <course>38.1</course>
  <speed>0.6200806399170998</speed>
  <fix>3d</fix>
</trkpt>
<trkpt lat="33.8103374" lon="-118.3944485">
  <ele>-24.41</ele>
  <time>2026-09-02T22:08:54Z</time>
  <course>53.2</course>
  <speed>0.61</speed>
  <fix>3d</fix>
</trkpt>
<trkpt lat="33.8103385" lon="-118.3944468">
  <ele>-25.016</ele>
  <time>2026-09-02T22:08:54Z</time>
  <course>38.2</course>
  <speed>0.6262587324740471</speed>
  <fix>3d</fix>
</trkpt>
<trkpt lat="33.810338" lon="-118.3944475">
  <ele>-24.41</ele>
  <time>2026-09-02T22:08:54Z</time>
  <course>53.23</course>
  <speed>0.62</speed>
  <fix>3d</fix>
</trkpt>
<trkpt lat="33.8103389" lon="-118.3944463">
  <ele>-25.015</ele>
  <time>2026-09-02T22:08:54Z</time>
  <course>38.3</course>
  <speed>0.6262587324740471</speed>
  <fix>3d</fix>
</trkpt>
<trkpt lat="33.810338" lon="-118.3944475">
  <ele>-24.41</ele>
  <time>2026-09-02T22:08:54Z</time>
  <course>53.23</course>
  <speed>0.62</speed>
  <fix>3d</fix>
</trkpt>
<trkpt lat="33.8103392" lon="-118.3944457">
  <ele>-25.014</ele>
  <time>2026-09-02T22:08:54Z</time>
  <course>38.41</course>
  <speed>0.6262587324740471</speed>
  <fix>3d</fix>
</trkpt>
<trkpt lat="33.8103387" lon="-118.3944464">
  <ele>-24.41</ele>
  <time>2026-09-02T22:08:54Z</time>
  <course>53.21</course>
  <speed>0.62</speed>
  <fix>3d</fix>
</trkpt>
<trkpt lat="33.8103396" lon="-118.3944452">
  <ele>-25.013</ele>
  <time>2026-09-02T22:08:54Z</time>
  <course>38.51</course>
  <speed>0.6341135544995076</speed>
  <fix>3d</fix>
</trkpt>
<trkpt lat="33.8103387" lon="-118.3944464">
  <ele>-24.41</ele>
  <time>2026-09-02T22:08:54Z</time>
  <course>53.21</course>
  <speed>0.62</speed>
  <fix>3d</fix>
</trkpt>
<trkpt lat="33.8103399" lon="-118.3944446">
  <ele>-25.013</ele>
  <time>2026-09-02T22:08:54Z</time>
  <course>38.62</course>
  <speed>0.6403124237432849</speed>
  <fix>3d</fix>
</trkpt>
<trkpt lat="33.8103394" lon="-118.3944453">
  <ele>-24.41</ele>
  <time>2026-09-02T22:08:54Z</time>
  <course>53.18</course>
  <speed>0.63</speed>
  <fix>3d</fix>
</trkpt>
<trkpt lat="33.8103403" lon="-118.3944441">
  <ele>-25.013</ele>
  <time>2026-09-02T22:08:54Z</time>
  <course>38.73</course>
  <speed>0.6403124237432849</speed>
  <fix>3d</fix>
</trkpt>
<trkpt lat="33.8103394" lon="-118.3944453">
  <ele>-24.41</ele>
  <time>2026-09-02T22:08:54Z</time>
  <course>53.18</course>
  <speed>0.63</speed>
  <fix>3d</fix>
</trkpt>
<trkpt lat="33.8103406" lon="-118.3944435">
  <ele>-25.013</ele>
  <time>2026-09-02T22:08:54Z</time>
  <course>38.83</course>
  <speed>0.6403124237432849</speed>
  <fix>3d</fix>
</trkpt>
<trkpt lat="33.8103401" lon="-118.3944442">
  <ele>-24.41</ele>
  <time>2026-09-02T22:08:54Z</time>
  <course>53.2</course>
  <speed>0.63</speed>
  <fix>3d</fix>
</trkpt>
<trkpt lat="33.810341" lon="-118.394443">
  <ele>-25.012</ele>
  <time>2026-09-02T22:08:54Z</time>
  <course>38.95</course>
  <speed>0.6403124237432849</speed>
  <fix>3d</fix>
</trkpt>
<trkpt lat="33.8103401" lon="-118.3944442">
  <ele>-24.41</ele>
  <time>2026-09-02T22:08:54Z</time>
  <course>53.2</course>
  <speed>0.63</speed>
  <fix>3d</fix>
</trkpt>
<trkpt lat="33.8103413" lon="-118.3944424">
  <ele>-25.012</ele>
  <time>2026-09-02T22:08:54Z</time>
  <course>39.07</course>
  <speed>0.6481512169239521</speed>
  <fix>3d</fix>
</trkpt>
<trkpt lat="33.8103408" lon="-118.3944431">
  <ele>-24.41</ele>
  <time>2026-09-02T22:08:54Z</time>
  <course>53.25</course>
  <speed>0.63</speed>
  <fix>3d</fix>
</trkpt>
<trkpt lat="33.8103417" lon="-118.3944418">
  <ele>-25.013</ele>
  <time>2026-09-02T22:08:54Z</time>
  <course>39.18</course>
  <speed>0.6543699259593154</speed>
  <fix>3d</fix>
</trkpt>
<trkpt lat="33.8103408" lon="-118.3944431">
  <ele>-24.41</ele>
  <time>2026-09-02T22:08:54Z</time>
  <course>53.25</course>
  <speed>0.63</speed>
  <fix>3d</fix>
</trkpt>
<trkpt lat="33.810342" lon="-118.3944413">
  <ele>-25.014</ele>
  <time>2026-09-02T22:08:54Z</time>
  <course>39.3</course>
  <speed>0.6543699259593154</speed>
  <fix>3d</fix>
</trkpt>
<trkpt lat="33.8103414" lon="-118.394442">
  <ele>-24.41</ele>
  <time>2026-09-02T22:08:54Z</time>
  <course>53.32</course>
  <speed>0.64</speed>
  <fix>3d</fix>
</trkpt>
<trkpt lat="33.8103424" lon="-118.3944407">
  <ele>-25.015</ele>
  <time>2026-09-02T22:08:54Z</time>
  <course>39.42</course>
  <speed>0.6543699259593154</speed>
  <fix>3d</fix>
</trkpt>
<trkpt lat="33.8103414" lon="-118.394442">
  <ele>-24.41</ele>
  <time>2026-09-02T22:08:54Z</time>
  <course>53.32</course>
  <speed>0.64</speed>
  <fix>3d</fix>
</trkpt>
<trkpt lat="33.8103427" lon="-118.3944402">
  <ele>-25.015</ele>
  <time>2026-09-02T22:08:54Z</time>
  <course>39.53</course>
  <speed>0.6543699259593154</speed>
  <fix>3d</fix>
</trkpt>
<trkpt lat="33.8103421" lon="-118.3944408">
  <ele>-24.41</ele>
  <time>2026-09-02T22:08:54Z</time>
  <course>53.34</course>
  <speed>0.64</speed>
  <fix>3d</fix>
</trkpt>
<trkpt lat="33.8103431" lon="-118.3944396">
  <ele>-25.016</ele>
  <time>2026-09-02T22:08:54Z</time>
  <course>39.61</course>
  <speed>0.6543699259593154</speed>
  <fix>3d</fix>
</trkpt>
<trkpt lat="33.8103421" lon="-118.3944408">
  <ele>-24.41</ele>
  <time>2026-09-02T22:08:54Z</time>
  <course>53.34</course>
  <speed>0.64</speed>
  <fix>3d</fix>
</trkpt>
<trkpt lat="33.8103435" lon="-118.394439">
  <ele>-25.017</ele>
  <time>2026-09-02T22:08:54Z</time>
  <course>39.69</course>
  <speed>0.6684309986827361</speed>
  <fix>3d</fix>
</trkpt>
<trkpt lat="33.8103428" lon="-118.3944397">
  <ele>-24.41</ele>
  <time>2026-09-02T22:08:54Z</time>
  <course>53.27</course>
  <speed>0.65</speed>
  <fix>3d</fix>
</trkpt>
<trkpt lat="33.8103438" lon="-118.3944384">
  <ele>-25.018</ele>
  <time>2026-09-02T22:08:54Z</time>
  <course>39.75</course>
  <speed>0.6684309986827361</speed>
  <fix>3d</fix>
</trkpt>
<trkpt lat="33.8103428" lon="-118.3944397">
  <ele>-24.41</ele>
  <time>2026-09-02T22:08:54Z</time>
  <course>53.27</course>
  <speed>0.65</speed>
  <fix>3d</fix>
</trkpt>
<trkpt lat="33.8103442" lon="-118.3944379">
  <ele>-25.017</ele>
  <time>2026-09-02T22:08:54Z</time>
  <course>39.82</course>
  <speed>0.6684309986827361</speed>
  <fix>3d</fix>
</trkpt>
<trkpt lat="33.8103435" lon="-118.3944386">
  <ele>-24.41</ele>
  <time>2026-09-02T22:08:54Z</time>
  <course>53.16</course>
  <speed>0.65</speed>
  <fix>3d</fix>
</trkpt>
<trkpt lat="33.8103445" lon="-118.3944373">
  <ele>-25.016</ele>
  <time>2026-09-02T22:08:54Z</time>
  <course>39.9</course>
  <speed>0.6684309986827361</speed>
  <fix>3d</fix>
</trkpt>
<trkpt lat="33.8103435" lon="-118.3944386">
  <ele>-24.41</ele>
  <time>2026-09-02T22:08:54Z</time>
  <course>53.16</course>
  <speed>0.65</speed>
  <fix>3d</fix>
</trkpt>
<trkpt lat="33.8103449" lon="-118.3944367">
  <ele>-25.014</ele>
  <time>2026-09-02T22:08:54Z</time>
  <course>39.99</course>
  <speed>0.6747592163134936</speed>
  <fix>3d</fix>
</trkpt>
<trkpt lat="33.8103443" lon="-118.3944374">
  <ele>-24.41</ele>
  <time>2026-09-02T22:08:54Z</time>
  <course>53.09</course>
  <speed>0.66</speed>
  <fix>3d</fix>
</trkpt>
<trkpt lat="33.8103453" lon="-118.3944362">
  <ele>-25.013</ele>
  <time>2026-09-02T22:08:54Z</time>
  <course>40.08</course>
  <speed>0.6747592163134936</speed>
  <fix>3d</fix>
</trkpt>
<trkpt lat="33.8103443" lon="-118.3944374">
  <ele>-24.41</ele>
  <time>2026-09-02T22:08:54Z</time>
  <course>53.09</course>
  <speed>0.66</speed>
  <fix>3d</fix>
</trkpt>
<trkpt lat="33.8103456" lon="-118.3944356">
  <ele>-25.013</ele>
  <time>2026-09-02T22:08:54Z</time>
  <course>40.19</course>
  <speed>0.6824954212300622</speed>
  <fix>3d</fix>
</trkpt>
<trkpt lat="33.810345" lon="-118.3944363">
  <ele>-24.41</ele>
  <time>2026-09-02T22:08:54Z</time>
  <course>53.09</course>
  <speed>0.66</speed>
  <fix>3d</fix>
</trkpt>
<trkpt lat="33.810346" lon="-118.394435">
  <ele>-25.013</ele>
  <time>2026-09-02T22:08:54Z</time>
  <course>40.3</course>
  <speed>0.6824954212300622</speed>
  <fix>3d</fix>
</trkpt>
<trkpt lat="33.810345" lon="-118.3944363">
  <ele>-24.41</ele>
  <time>2026-09-02T22:08:54Z</time>
  <course>53.09</course>
  <speed>0.66</speed>
  <fix>3d</fix>
</trkpt>
<trkpt lat="33.8103464" lon="-118.3944344">
  <ele>-25.013</ele>
  <time>2026-09-02T22:08:54Z</time>
  <course>40.43</course>
  <speed>0.6824954212300622</speed>
  <fix>3d</fix>
</trkpt>
<trkpt lat="33.8103457" lon="-118.3944352">
  <ele>-24.4</ele>
  <time>2026-09-02T22:08:54Z</time>
  <course>53.16</course>
  <speed>0.67</speed>
  <fix>3d</fix>
</trkpt>
<trkpt lat="33.8103467" lon="-118.3944338">
  <ele>-25.013</ele>
  <time>2026-09-02T22:08:54Z</time>
  <course>40.55</course>
  <speed>0.6824954212300622</speed>
  <fix>3d</fix>
</trkpt>
<trkpt lat="33.8103457" lon="-118.3944352">
  <ele>-24.4</ele>
  <time>2026-09-02T22:08:54Z</time>
  <course>53.16</course>
  <speed>0.67</speed>
  <fix>3d</fix>
</trkpt>
<trkpt lat="33.8103471" lon="-118.3944333">
  <ele>-25.013</ele>
  <time>2026-09-02T22:08:54Z</time>
  <course>40.69</course>
  <speed>0.6824954212300622</speed>
  <fix>3d</fix>
</trkpt>
<trkpt lat="33.8103464" lon="-118.394434">
  <ele>-24.4</ele>
  <time>2026-09-02T22:08:54Z</time>
  <course>53.27</course>
  <speed>0.67</speed>
  <fix>3d</fix>
</trkpt>
<trkpt lat="33.8103475" lon="-118.3944327">
  <ele>-25.012</ele>
  <time>2026-09-02T22:08:54Z</time>
  <course>40.82</course>
  <speed>0.6965629906907199</speed>
  <fix>3d</fix>
</trkpt>
<trkpt lat="33.8103464" lon="-118.394434">
  <ele>-24.4</ele>
  <time>2026-09-02T22:08:54Z</time>
  <course>53.27</course>
  <speed>0.67</speed>
  <fix>3d</fix>
</trkpt>
<trkpt lat="33.8103478" lon="-118.3944321">
  <ele>-25.012</ele>
  <time>2026-09-02T22:08:54Z</time>
  <course>40.94</course>
  <speed>0.6965629906907199</speed>
  <fix>3d</fix>
</trkpt>
<trkpt lat="33.8103471" lon="-118.3944328">
  <ele>-24.4</ele>
  <time>2026-09-02T22:08:54Z</time>
  <course>53.34</course>
  <speed>0.68</speed>
  <fix>3d</fix>
</trkpt>
<trkpt lat="33.8103482" lon="-118.3944315">
  <ele>-25.011</ele>
  <time>2026-09-02T22:08:54Z</time>
  <course>41.05</course>
  <speed>0.6965629906907199</speed>
  <fix>3d</fix>
</trkpt>
<trkpt lat="33.8103471" lon="-118.3944328">
  <ele>-24.4</ele>
  <time>2026-09-02T22:08:54Z</time>
  <course>53.34</course>
  <speed>0.68</speed>
  <fix>3d</fix>
</trkpt>
<trkpt lat="33.8103486" lon="-118.3944309">
  <ele>-25.01</ele>
  <time>2026-09-02T22:08:54Z</time>
  <course>41.13</course>
  <speed>0.6965629906907199</speed>
  <fix>3d</fix>
</trkpt>
<trkpt lat="33.8103479" lon="-118.3944316">
  <ele>-24.4</ele>
  <time>2026-09-02T22:08:54Z</time>
  <course>53.34</course>
  <speed>0.68</speed>
  <fix>3d</fix>
</trkpt>
<trkpt lat="33.810349" lon="-118.3944303">
  <ele>-25.01</ele>
  <time>2026-09-02T22:08:54Z</time>
  <course>41.22</course>
  <speed>0.6965629906907199</speed>
  <fix>3d</fix>
</trkpt>
<trkpt lat="33.8103479" lon="-118.3944316">
  <ele>-24.4</ele>
  <time>2026-09-02T22:08:54Z</time>
  <course>53.34</course>
  <speed>0.68</speed>
  <fix>3d</fix>
</trkpt>
<trkpt lat="33.8103493" lon="-118.3944297">
  <ele>-25.01</ele>
  <time>2026-09-02T22:08:54Z</time>
  <course>41.29</course>
  <speed>0.6965629906907199</speed>
  <fix>3d</fix>
</trkpt>
<trkpt lat="33.8103487" lon="-118.3944304">
  <ele>-24.4</ele>
  <time>2026-09-02T22:08:54Z</time>
  <course>53.33</course>
  <speed>0.69</speed>
  <fix>3d</fix>
</trkpt>
<trkpt lat="33.8103497" lon="-118.3944291">
  <ele>-25.011</ele>
  <time>2026-09-02T22:08:54Z</time>
  <course>41.37</course>
  <speed>0.702922470831599</speed>
  <fix>3d</fix>
</trkpt>
<trkpt lat="33.8103487" lon="-118.3944304">
  <ele>-24.4</ele>
  <time>2026-09-02T22:08:54Z</time>
  <course>53.33</course>
  <speed>0.69</speed>
  <fix>3d</fix>
</trkpt>
<trkpt lat="33.8103501" lon="-118.3944285">
  <ele>-25.012</ele>
  <time>2026-09-02T22:08:54Z</time>
  <course>41.47</course>
  <speed>0.7106335201775947</speed>
  <fix>3d</fix>
</trkpt>
<trkpt lat="33.8103494" lon="-118.3944292">
  <ele>-24.41</ele>
  <time>2026-09-02T22:08:54Z</time>
  <course>53.38</course>
  <speed>0.69</speed>
  <fix>3d</fix>
</trkpt>
<trkpt lat="33.8103505" lon="-118.3944279">
  <ele>-25.015</ele>
  <time>2026-09-02T22:08:54Z</time>
  <course>41.58</course>
  <speed>0.7106335201775947</speed>
  <fix>3d</fix>
</trkpt>
<trkpt lat="33.8103494" lon="-118.3944292">
  <ele>-24.41</ele>
  <time>2026-09-02T22:08:54Z</time>
  <course>53.38</course>
  <speed>0.69</speed>
  <fix>3d</fix>
</trkpt>
<trkpt lat="33.8103509" lon="-118.3944273">
  <ele>-25.016</ele>
  <time>2026-09-02T22:08:54Z</time>
  <course>41.67</course>
  <speed>0.7106335201775947</speed>
  <fix>3d</fix>
</trkpt>
<trkpt lat="33.8103502" lon="-118.394428">
  <ele>-24.41</ele>
  <time>2026-09-02T22:08:54Z</time>
  <course>53.43</course>
  <speed>0.7</speed>
  <fix>3d</fix>
</trkpt>
<trkpt lat="33.8103512" lon="-118.3944267">
  <ele>-25.016</ele>
  <time>2026-09-02T22:08:54Z</time>
  <course>41.77</course>
  <speed>0.7106335201775947</speed>
  <fix>3d</fix>
</trkpt>
<trkpt lat="33.8103502" lon="-118.394428">
  <ele>-24.41</ele>
  <time>2026-09-02T22:08:54Z</time>
  <course>53.43</course>
  <speed>0.7</speed>
  <fix>3d</fix>
</trkpt>
<trkpt lat="33.8103516" lon="-118.3944261">
  <ele>-25.014</ele>
  <time>2026-09-02T22:08:54Z</time>
  <course>41.87</course>
  <speed>0.7106335201775947</speed>
  <fix>3d</fix>
</trkpt>
<trkpt lat="33.8103509" lon="-118.3944268">
  <ele>-24.41</ele>
  <time>2026-09-02T22:08:54Z</time>
  <course>53.48</course>
  <speed>0.7</speed>
  <fix>3d</fix>
</trkpt>
<trkpt lat="33.810352" lon="-118.3944255">
  <ele>-25.013</ele>
  <time>2026-09-02T22:08:54Z</time>
  <course>41.98</course>
  <speed>0.7106335201775947</speed>
  <fix>3d</fix>
</trkpt>
<trkpt lat="33.8103509" lon="-118.3944268">
  <ele>-24.41</ele>
  <time>2026-09-02T22:08:54Z</time>
  <course>53.48</course>
  <speed>0.7</speed>
  <fix>3d</fix>
</trkpt>
<trkpt lat="33.8103524" lon="-118.3944249">
  <ele>-25.012</ele>
  <time>2026-09-02T22:08:54Z</time>
  <course>42.07</course>
  <speed>0.7106335201775947</speed>
  <fix>3d</fix>
</trkpt>
<trkpt lat="33.8103517" lon="-118.3944255">
  <ele>-24.41</ele>
  <time>2026-09-02T22:08:54Z</time>
  <course>53.53</course>
  <speed>0.7</speed>
  <fix>3d</fix>
</trkpt>
<trkpt lat="33.8103528" lon="-118.3944242">
  <ele>-25.013</ele>
  <time>2026-09-02T22:08:54Z</time>
  <course>42.16</course>
  <speed>0.717007670809734</speed>
  <fix>3d</fix>
</trkpt>
<trkpt lat="33.8103517" lon="-118.3944255">
  <ele>-24.41</ele>
  <time>2026-09-02T22:08:54Z</time>
  <course>53.53</course>
  <speed>0.7</speed>
  <fix>3d</fix>
</trkpt>
<trkpt lat="33.8103532" lon="-118.3944236">
  <ele>-25.014</ele>
  <time>2026-09-02T22:08:54Z</time>
  <course>42.23</course>
  <speed>0.717007670809734</speed>
  <fix>3d</fix>
</trkpt>
<trkpt lat="33.8103524" lon="-118.3944243">
  <ele>-24.41</ele>
  <time>2026-09-02T22:08:54Z</time>
  <course>53.56</course>
  <speed>0.71</speed>
  <fix>3d</fix>
</trkpt>
<trkpt lat="33.8103535" lon="-118.394423">
  <ele>-25.015</ele>
  <time>2026-09-02T22:08:54Z</time>
  <course>42.31</course>
  <speed>0.7247068372797375</speed>
  <fix>3d</fix>
</trkpt>
<trkpt lat="33.8103524" lon="-118.3944243">
  <ele>-24.41</ele>
  <time>2026-09-02T22:08:54Z</time>
  <course>53.56</course>
  <speed>0.71</speed>
  <fix>3d</fix>
</trkpt>
<trkpt lat="33.8103539" lon="-118.3944224">
  <ele>-25.015</ele>
  <time>2026-09-02T22:08:54Z</time>
  <course>42.36</course>
  <speed>0.7247068372797375</speed>
  <fix>3d</fix>
</trkpt>
<trkpt lat="33.8103531" lon="-118.394423">
  <ele>-24.41</ele>
  <time>2026-09-02T22:08:54Z</time>
  <course>53.53</course>
  <speed>0.71</speed>
  <fix>3d</fix>
</trkpt>
<trkpt lat="33.8103543" lon="-118.3944218">
  <ele>-25.015</ele>
  <time>2026-09-02T22:08:54Z</time>
  <course>42.42</course>
  <speed>0.7247068372797375</speed>
  <fix>3d</fix>
</trkpt>
<trkpt lat="33.8103531" lon="-118.394423">
  <ele>-24.41</ele>
  <time>2026-09-02T22:08:54Z</time>
  <course>53.53</course>
  <speed>0.71</speed>
  <fix>3d</fix>
</trkpt>
<trkpt lat="33.8103547" lon="-118.3944211">
  <ele>-25.014</ele>
  <time>2026-09-02T22:08:54Z</time>
  <course>42.45</course>
  <speed>0.7247068372797375</speed>
  <fix>3d</fix>
</trkpt>
<trkpt lat="33.810354" lon="-118.3944218">
  <ele>-24.41</ele>
  <time>2026-09-02T22:08:54Z</time>
  <course>53.41</course>
  <speed>0.71</speed>
  <fix>3d</fix>
</trkpt>
<trkpt lat="33.8103551" lon="-118.3944205">
  <ele>-25.014</ele>
  <time>2026-09-02T22:08:54Z</time>
  <course>42.48</course>
  <speed>0.7247068372797375</speed>
  <fix>3d</fix>
</trkpt>
<trkpt lat="33.810354" lon="-118.3944218">
  <ele>-24.41</ele>
  <time>2026-09-02T22:08:54Z</time>
  <course>53.41</course>
  <speed>0.71</speed>
  <fix>3d</fix>
</trkpt>
<trkpt lat="33.8103555" lon="-118.3944199">
  <ele>-25.014</ele>
  <time>2026-09-02T22:08:54Z</time>
  <course>42.51</course>
  <speed>0.7247068372797375</speed>
  <fix>3d</fix>
</trkpt>
<trkpt lat="33.8103547" lon="-118.3944206">
  <ele>-24.41</ele>
  <time>2026-09-02T22:08:54Z</time>
  <course>53.3</course>
  <speed>0.72</speed>
  <fix>3d</fix>
</trkpt>
<trkpt lat="33.8103559" lon="-118.3944193">
  <ele>-25.015</ele>
  <time>2026-09-02T22:08:54Z</time>
  <course>42.58</course>
  <speed>0.7310950690573697</speed>
  <fix>3d</fix>
</trkpt>
<trkpt lat="33.8103547" lon="-118.3944206">
  <ele>-24.41</ele>
  <time>2026-09-02T22:08:54Z</time>
  <course>53.3</course>
  <speed>0.72</speed>
  <fix>3d</fix>
</trkpt>
<trkpt lat="33.8103563" lon="-118.3944186">
  <ele>-25.015</ele>
  <time>2026-09-02T22:08:54Z</time>
  <course>42.65</course>
  <speed>0.7310950690573697</speed>
  <fix>3d</fix>
</trkpt>
<trkpt lat="33.8103555" lon="-118.3944193">
  <ele>-24.4</ele>
  <time>2026-09-02T22:08:54Z</time>
  <course>53.27</course>
  <speed>0.72</speed>
  <fix>3d</fix>
</trkpt>
<trkpt lat="33.8103567" lon="-118.394418">
  <ele>-25.014</ele>
  <time>2026-09-02T22:08:54Z</time>
  <course>42.73</course>
  <speed>0.7310950690573697</speed>
  <fix>3d</fix>
</trkpt>
<trkpt lat="33.8103555" lon="-118.3944193">
  <ele>-24.4</ele>
  <time>2026-09-02T22:08:54Z</time>
  <course>53.27</course>
  <speed>0.72</speed>
  <fix>3d</fix>
</trkpt>
<trkpt lat="33.8103571" lon="-118.3944174">
  <ele>-25.014</ele>
  <time>2026-09-02T22:08:54Z</time>
  <course>42.81</course>
  <speed>0.7387827826905551</speed>
  <fix>3d</fix>
</trkpt>
<trkpt lat="33.8103562" lon="-118.394418">
  <ele>-24.4</ele>
  <time>2026-09-02T22:08:54Z</time>
  <course>53.26</course>
  <speed>0.72</speed>
  <fix>3d</fix>
</trkpt>
<trkpt lat="33.8103575" lon="-118.3944167">
  <ele>-25.014</ele>
  <time>2026-09-02T22:08:54Z</time>
  <course>42.89</course>
  <speed>0.7387827826905551</speed>
  <fix>3d</fix>
</trkpt>
<trkpt lat="33.8103562" lon="-118.394418">
  <ele>-24.4</ele>
  <time>2026-09-02T22:08:54Z</time>
  <course>53.26</course>
  <speed>0.72</speed>
  <fix>3d</fix>
</trkpt>
<trkpt lat="33.8103578" lon="-118.3944161">
  <ele>-25.014</ele>
  <time>2026-09-02T22:08:54Z</time>
  <course>42.94</course>
  <speed>0.7387827826905551</speed>
  <fix>3d</fix>
</trkpt>
<trkpt lat="33.8103571" lon="-118.3944167">
  <ele>-24.4</ele>
  <time>2026-09-02T22:08:54Z</time>
  <course>53.19</course>
  <speed>0.73</speed>
  <fix>3d</fix>
</trkpt>
<trkpt lat="33.8103582" lon="-118.3944155">
  <ele>-25.015</ele>
  <time>2026-09-02T22:08:54Z</time>
  <course>42.99</course>
  <speed>0.7451845409024532</speed>
  <fix>3d</fix>
</trkpt>
<trkpt lat="33.8103571" lon="-118.3944167">
  <ele>-24.4</ele>
  <time>2026-09-02T22:08:54Z</time>
  <course>53.19</course>
  <speed>0.73</speed>
  <fix>3d</fix>
</trkpt>
<trkpt lat="33.8103587" lon="-118.3944148">
  <ele>-25.014</ele>
  <time>2026-09-02T22:08:54Z</time>
  <course>43.03</course>
  <speed>0.7451845409024532</speed>
  <fix>3d</fix>
</trkpt>
<trkpt lat="33.8103579" lon="-118.3944155">
  <ele>-24.4</ele>
  <time>2026-09-02T22:08:54Z</time>
  <course>53.09</course>
  <speed>0.73</speed>
  <fix>3d</fix>
</trkpt>
<trkpt lat="33.8103591" lon="-118.3944142">
  <ele>-25.013</ele>
  <time>2026-09-02T22:08:54Z</time>
  <course>43.09</course>
  <speed>0.7451845409024532</speed>
  <fix>3d</fix>
</trkpt>
<trkpt lat="33.8103579" lon="-118.3944155">
  <ele>-24.4</ele>
  <time>2026-09-02T22:08:54Z</time>
  <course>53.09</course>
  <speed>0.73</speed>
  <fix>3d</fix>
</trkpt>
<trkpt lat="33.8103595" lon="-118.3944135">
  <ele>-25.012</ele>
  <time>2026-09-02T22:08:54Z</time>
  <course>43.16</course>
  <speed>0.7451845409024532</speed>
  <fix>3d</fix>
</trkpt>
<trkpt lat="33.8103586" lon="-118.3944142">
  <ele>-24.4</ele>
  <time>2026-09-02T22:08:54Z</time>
  <course>53.05</course>
  <speed>0.73</speed>
  <fix>3d</fix>
</trkpt>
<trkpt lat="33.8103599" lon="-118.3944129">
  <ele>-25.011</ele>
  <time>2026-09-02T22:08:54Z</time>
  <course>43.25</course>
  <speed>0.7451845409024532</speed>
  <fix>3d</fix>
</trkpt>
<trkpt lat="33.8103586" lon="-118.3944142">
  <ele>-24.4</ele>
  <time>2026-09-02T22:08:54Z</time>
  <course>53.05</course>
  <speed>0.73</speed>
  <fix>3d</fix>
</trkpt>
<trkpt lat="33.8103603" lon="-118.3944123">
  <ele>-25.01</ele>
  <time>2026-09-02T22:08:54Z</time>
  <course>43.33</course>
  <speed>0.7528612089887484</speed>
  <fix>3d</fix>
</trkpt>
<trkpt lat="33.8103595" lon="-118.3944129">
  <ele>-24.4</ele>
  <time>2026-09-02T22:08:54Z</time>
  <course>53.03</course>
  <speed>0.74</speed>
  <fix>3d</fix>
</trkpt>
<trkpt lat="33.8103607" lon="-118.3944116">
  <ele>-25.009</ele>
  <time>2026-09-02T22:08:54Z</time>
  <course>43.41</course>
  <speed>0.7528612089887484</speed>
  <fix>3d</fix>
</trkpt>
<trkpt lat="33.8103595" lon="-118.3944129">
  <ele>-24.4</ele>
  <time>2026-09-02T22:08:54Z</time>
  <course>53.03</course>
  <speed>0.74</speed>
  <fix>3d</fix>
</trkpt>
<trkpt lat="33.8103611" lon="-118.394411">
  <ele>-25.008</ele>
  <time>2026-09-02T22:08:54Z</time>
  <course>43.48</course>
  <speed>0.7528612089887484</speed>
  <fix>3d</fix>
</trkpt>
<trkpt lat="33.8103603" lon="-118.3944117">
  <ele>-24.4</ele>
  <time>2026-09-02T22:08:54Z</time>
  <course>53.01</course>
  <speed>0.74</speed>
  <fix>3d</fix>
</trkpt>
<trkpt lat="33.8103615" lon="-118.3944103">
  <ele>-25.007</ele>
  <time>2026-09-02T22:08:54Z</time>
  <course>43.58</course>
  <speed>0.7528612089887484</speed>
  <fix>3d</fix>
</trkpt>
<trkpt lat="33.8103603" lon="-118.3944117">
  <ele>-24.4</ele>
  <time>2026-09-02T22:08:54Z</time>
  <course>53.01</course>
  <speed>0.74</speed>
  <fix>3d</fix>
</trkpt>
<trkpt lat="33.8103619" lon="-118.3944097">
  <ele>-25.008</ele>
  <time>2026-09-02T22:08:54Z</time>
  <course>43.68</course>
  <speed>0.7528612089887484</speed>
  <fix>3d</fix>
</trkpt>
<trkpt lat="33.810361" lon="-118.3944104">
  <ele>-24.4</ele>
  <time>2026-09-02T22:08:54Z</time>
  <course>53.06</course>
  <speed>0.74</speed>
  <fix>3d</fix>
</trkpt>
<trkpt lat="33.8103623" lon="-118.394409">
  <ele>-25.008</ele>
  <time>2026-09-02T22:08:54Z</time>
  <course>43.8</course>
  <speed>0.7592759709091287</speed>
  <fix>3d</fix>
</trkpt>
<trkpt lat="33.810361" lon="-118.3944104">
  <ele>-24.4</ele>
  <time>2026-09-02T22:08:54Z</time>
  <course>53.06</course>
  <speed>0.74</speed>
  <fix>3d</fix>
</trkpt>
<trkpt lat="33.8103627" lon="-118.3944084">
  <ele>-25.009</ele>
  <time>2026-09-02T22:08:54Z</time>
  <course>43.9</course>
  <speed>0.7669419795525605</speed>
  <fix>3d</fix>
</trkpt>
<trkpt lat="33.8103619" lon="-118.3944091">
  <ele>-24.4</ele>
  <time>2026-09-02T22:08:54Z</time>
  <course>53.08</course>
  <speed>0.75</speed>
  <fix>3d</fix>
</trkpt>
<trkpt lat="33.8103631" lon="-118.3944077">
  <ele>-25.01</ele>
  <time>2026-09-02T22:08:54Z</time>
  <course>44.01</course>
  <speed>0.7669419795525605</speed>
  <fix>3d</fix>
</trkpt>
<trkpt lat="33.8103619" lon="-118.3944091">
  <ele>-24.4</ele>
  <time>2026-09-02T22:08:54Z</time>
  <course>53.08</course>
  <speed>0.75</speed>
  <fix>3d</fix>
</trkpt>
<trkpt lat="33.8103635" lon="-118.3944071">
  <ele>-25.011</ele>
  <time>2026-09-02T22:08:54Z</time>
  <course>44.1</course>
  <speed>0.7669419795525605</speed>
  <fix>3d</fix>
</trkpt>
<trkpt lat="33.8103627" lon="-118.3944078">
  <ele>-24.4</ele>
  <time>2026-09-02T22:08:54Z</time>
  <course>53.07</course>
  <speed>0.75</speed>
  <fix>3d</fix>
</trkpt>
<trkpt lat="33.8103639" lon="-118.3944064">
  <ele>-25.013</ele>
  <time>2026-09-02T22:08:54Z</time>
  <course>44.2</course>
  <speed>0.7669419795525605</speed>
  <fix>3d</fix>
</trkpt>
<trkpt lat="33.8103627" lon="-118.3944078">
  <ele>-24.4</ele>
  <time>2026-09-02T22:08:54Z</time>
  <course>53.07</course>
  <speed>0.75</speed>
  <fix>3d</fix>
</trkpt>
<trkpt lat="33.8103643" lon="-118.3944058">
  <ele>-25.014</ele>
  <time>2026-09-02T22:08:54Z</time>
  <course>44.29</course>
  <speed>0.7669419795525605</speed>
  <fix>3d</fix>
</trkpt>
<trkpt lat="33.8103634" lon="-118.3944065">
  <ele>-24.41</ele>
  <time>2026-09-02T22:08:54Z</time>
  <course>53.08</course>
  <speed>0.75</speed>
  <fix>3d</fix>
</trkpt>
<trkpt lat="33.8103647" lon="-118.3944051">
  <ele>-25.015</ele>
  <time>2026-09-02T22:08:54Z</time>
  <course>44.39</course>
  <speed>0.7669419795525605</speed>
  <fix>3d</fix>
</trkpt>
<trkpt lat="33.8103634" lon="-118.3944065">
  <ele>-24.41</ele>
  <time>2026-09-02T22:08:54Z</time>
  <course>53.08</course>
  <speed>0.75</speed>
  <fix>3d</fix>
</trkpt>
<trkpt lat="33.8103652" lon="-118.3944044">
  <ele>-25.016</ele>
  <time>2026-09-02T22:08:54Z</time>
  <course>44.46</course>
  <speed>0.7669419795525605</speed>
  <fix>3d</fix>
</trkpt>
<trkpt lat="33.8103643" lon="-118.3944052">
  <ele>-24.41</ele>
  <time>2026-09-02T22:08:54Z</time>
  <course>53.05</course>
  <speed>0.76</speed>
  <fix>3d</fix>
</trkpt>
<trkpt lat="33.8103656" lon="-118.3944038">
  <ele>-25.017</ele>
  <time>2026-09-02T22:08:54Z</time>
  <course>44.53</course>
  <speed>0.7810249675906654</speed>
  <fix>3d</fix>
</trkpt>
<trkpt lat="33.8103643" lon="-118.3944052">
  <ele>-24.41</ele>
  <time>2026-09-02T22:08:54Z</time>
  <course>53.05</course>
  <speed>0.76</speed>
  <fix>3d</fix>
</trkpt>
<trkpt lat="33.810366" lon="-118.3944031">
  <ele>-25.017</ele>
  <time>2026-09-02T22:08:54Z</time>
  <course>44.6</course>
  <speed>0.7810249675906654</speed>
  <fix>3d</fix>
</trkpt>
<trkpt lat="33.8103651" lon="-118.3944039">
  <ele>-24.41</ele>
  <time>2026-09-02T22:08:54Z</time>
  <course>52.99</course>
  <speed>0.76</speed>
  <fix>3d</fix>
</trkpt>
<trkpt lat="33.8103664" lon="-118.3944025">
  <ele>-25.015</ele>
  <time>2026-09-02T22:08:54Z</time>
  <course>44.68</course>
  <speed>0.7810249675906654</speed>
  <fix>3d</fix>
</trkpt>
<trkpt lat="33.8103651" lon="-118.3944039">
  <ele>-24.41</ele>
  <time>2026-09-02T22:08:54Z</time>
  <course>52.99</course>
  <speed>0.76</speed>
  <fix>3d</fix>
</trkpt>
<trkpt lat="33.8103668" lon="-118.3944018">
  <ele>-25.014</ele>
  <time>2026-09-02T22:08:54Z</time>
  <course>44.75</course>
  <speed>0.7810249675906654</speed>
  <fix>3d</fix>
</trkpt>
<trkpt lat="33.810366" lon="-118.3944025">
  <ele>-24.41</ele>
  <time>2026-09-02T22:08:54Z</time>
  <course>52.97</course>
  <speed>0.77</speed>
  <fix>3d</fix>
</trkpt>
<trkpt lat="33.8103672" lon="-118.3944011">
  <ele>-25.013</ele>
  <time>2026-09-02T22:08:54Z</time>
  <course>44.84</course>
  <speed>0.7810249675906654</speed>
  <fix>3d</fix>
</trkpt>
<trkpt lat="33.810366" lon="-118.3944025">
  <ele>-24.41</ele>
  <time>2026-09-02T22:08:54Z</time>
  <course>52.97</course>
  <speed>0.77</speed>
  <fix>3d</fix>
</trkpt>
<trkpt lat="33.8103677" lon="-118.3944004">
  <ele>-25.013</ele>
  <time>2026-09-02T22:08:54Z</time>
  <course>44.93</course>
  <speed>0.7810249675906654</speed>
  <fix>3d</fix>
</trkpt>
<trkpt lat="33.8103668" lon="-118.3944012">
  <ele>-24.41</ele>
  <time>2026-09-02T22:08:54Z</time>
  <course>52.95</course>
  <speed>0.77</speed>
  <fix>3d</fix>
</trkpt>
<trkpt lat="33.8103681" lon="-118.3943998">
  <ele>-25.013</ele>
  <time>2026-09-02T22:08:54Z</time>
  <course>45.02</course>
  <speed>0.7810249675906654</speed>
  <fix>3d</fix>
</trkpt>
<trkpt lat="33.8103668" lon="-118.3944012">
  <ele>-24.41</ele>
  <time>2026-09-02T22:08:54Z</time>
  <course>52.95</course>
  <speed>0.77</speed>
  <fix>3d</fix>
</trkpt>
<trkpt lat="33.8103685" lon="-118.3943991">
  <ele>-25.012</ele>
  <time>2026-09-02T22:08:54Z</time>
  <course>45.11</course>
  <speed>0.7887331614684399</speed>
  <fix>3d</fix>
</trkpt>
<trkpt lat="33.8103676" lon="-118.3943999">
  <ele>-24.4</ele>
  <time>2026-09-02T22:08:54Z</time>
  <course>52.96</course>
  <speed>0.77</speed>
  <fix>3d</fix>
</trkpt>
<trkpt lat="33.8103689" lon="-118.3943984">
  <ele>-25.012</ele>
  <time>2026-09-02T22:08:54Z</time>
  <course>45.2</course>
  <speed>0.7887331614684399</speed>
  <fix>3d</fix>
</trkpt>
<trkpt lat="33.8103676" lon="-118.3943999">
  <ele>-24.4</ele>
  <time>2026-09-02T22:08:54Z</time>
  <course>52.96</course>
  <speed>0.77</speed>
  <fix>3d</fix>
</trkpt>
<trkpt lat="33.8103693" lon="-118.3943977">
  <ele>-25.012</ele>
  <time>2026-09-02T22:08:54Z</time>
  <course>45.28</course>
  <speed>0.7887331614684399</speed>
  <fix>3d</fix>
</trkpt>
<trkpt lat="33.8103684" lon="-118.3943985">
  <ele>-24.4</ele>
  <time>2026-09-02T22:08:54Z</time>
  <course>52.95</course>
  <speed>0.78</speed>
  <fix>3d</fix>
</trkpt>
<trkpt lat="33.8103698" lon="-118.3943971">
  <ele>-25.012</ele>
  <time>2026-09-02T22:08:54Z</time>
  <course>45.37</course>
  <speed>0.7951100552753688</speed>
  <fix>3d</fix>
</trkpt>
<trkpt lat="33.8103684" lon="-118.3943985">
  <ele>-24.4</ele>
  <time>2026-09-02T22:08:54Z</time>
  <course>52.95</course>
  <speed>0.78</speed>
  <fix>3d</fix>
</trkpt>
<trkpt lat="33.8103702" lon="-118.3943964">
  <ele>-25.012</ele>
  <time>2026-09-02T22:08:54Z</time>
  <course>45.42</course>
  <speed>0.7951100552753688</speed>
  <fix>3d</fix>
</trkpt>
<trkpt lat="33.8103693" lon="-118.3943972">
  <ele>-24.4</ele>
  <time>2026-09-02T22:08:54Z</time>
  <course>52.89</course>
  <speed>0.78</speed>
  <fix>3d</fix>
</trkpt>
<trkpt lat="33.8103706" lon="-118.3943957">
  <ele>-25.012</ele>
  <time>2026-09-02T22:08:54Z</time>
  <course>45.48</course>
  <speed>0.7951100552753688</speed>
  <fix>3d</fix>
</trkpt>
<trkpt lat="33.8103693" lon="-118.3943972">
  <ele>-24.4</ele>
  <time>2026-09-02T22:08:54Z</time>
  <course>52.89</course>
  <speed>0.78</speed>
  <fix>3d</fix>
</trkpt>
<trkpt lat="33.810371" lon="-118.394395">
  <ele>-25.011</ele>
  <time>2026-09-02T22:08:54Z</time>
  <course>45.55</course>
  <speed>0.802807573457052</speed>
  <fix>3d</fix>
</trkpt>
<trkpt lat="33.8103701" lon="-118.3943958">
  <ele>-24.4</ele>
  <time>2026-09-02T22:08:54Z</time>
  <course>52.83</course>
  <speed>0.79</speed>
  <fix>3d</fix>
</trkpt>
<trkpt lat="33.8103715" lon="-118.3943944">
  <ele>-25.011</ele>
  <time>2026-09-02T22:08:54Z</time>
  <course>45.63</course>
  <speed>0.802807573457052</speed>
  <fix>3d</fix>
</trkpt>
<trkpt lat="33.8103701" lon="-118.3943958">
  <ele>-24.4</ele>
  <time>2026-09-02T22:08:54Z</time>
  <course>52.83</course>
  <speed>0.79</speed>
  <fix>3d</fix>
</trkpt>
<trkpt lat="33.8103719" lon="-118.3943937">
  <ele>-25.011</ele>
  <time>2026-09-02T22:08:54Z</time>
  <course>45.69</course>
  <speed>0.802807573457052</speed>
  <fix>3d</fix>
</trkpt>
<trkpt lat="33.810371" lon="-118.3943944">
  <ele>-24.4</ele>
  <time>2026-09-02T22:08:54Z</time>
  <course>52.79</course>
  <speed>0.79</speed>
  <fix>3d</fix>
</trkpt>
<trkpt lat="33.8103723" lon="-118.394393">
  <ele>-25.012</ele>
  <time>2026-09-02T22:08:54Z</time>
  <course>45.76</course>
  <speed>0.802807573457052</speed>
  <fix>3d</fix>
</trkpt>
<trkpt lat="33.810371" lon="-118.3943944">
  <ele>-24.4</ele>
  <time>2026-09-02T22:08:54Z</time>
  <course>52.79</course>
  <speed>0.79</speed>
  <fix>3d</fix>
</trkpt>
<trkpt lat="33.8103727" lon="-118.3943923">
  <ele>-25.012</ele>
  <time>2026-09-02T22:08:54Z</time>
  <course>45.81</course>
  <speed>0.802807573457052</speed>
  <fix>3d</fix>
</trkpt>
<trkpt lat="33.8103719" lon="-118.3943931">
  <ele>-24.41</ele>
  <time>2026-09-02T22:08:54Z</time>
  <course>52.74</course>
  <speed>0.79</speed>
  <fix>3d</fix>
</trkpt>
<trkpt lat="33.8103732" lon="-118.3943916">
  <ele>-25.014</ele>
  <time>2026-09-02T22:08:54Z</time>
  <course>45.87</course>
  <speed>0.802807573457052</speed>
  <fix>3d</fix>
</trkpt>
<trkpt lat="33.8103719" lon="-118.3943931">
  <ele>-24.41</ele>
  <time>2026-09-02T22:08:54Z</time>
  <course>52.74</course>
  <speed>0.79</speed>
  <fix>3d</fix>
</trkpt>
<trkpt lat="33.8103736" lon="-118.3943909">
  <ele>-25.016</ele>
  <time>2026-09-02T22:08:54Z</time>
  <course>45.96</course>
  <speed>0.802807573457052</speed>
  <fix>3d</fix>
</trkpt>
<trkpt lat="33.8103727" lon="-118.3943917">
  <ele>-24.41</ele>
  <time>2026-09-02T22:08:54Z</time>
  <course>52.73</course>
  <speed>0.8</speed>
  <fix>3d</fix>
</trkpt>
<trkpt lat="33.810374" lon="-118.3943902">
  <ele>-25.017</ele>
  <time>2026-09-02T22:08:54Z</time>
  <course>46.06</course>
  <speed>0.802807573457052</speed>
  <fix>3d</fix>
</trkpt>
<trkpt lat="33.8103727" lon="-118.3943917">
  <ele>-24.41</ele>
  <time>2026-09-02T22:08:54Z</time>
  <course>52.73</course>
  <speed>0.8</speed>
  <fix>3d</fix>
</trkpt>
<trkpt lat="33.8103745" lon="-118.3943895">
  <ele>-25.018</ele>
  <time>2026-09-02T22:08:54Z</time>
  <course>46.14</course>
  <speed>0.802807573457052</speed>
  <fix>3d</fix>
</trkpt>
<trkpt lat="33.8103736" lon="-118.3943903">
  <ele>-24.41</ele>
  <time>2026-09-02T22:08:54Z</time>
  <course>52.76</course>
  <speed>0.8</speed>
  <fix>3d</fix>
</trkpt>
<trkpt lat="33.8103749" lon="-118.3943888">
  <ele>-25.018</ele>
  <time>2026-09-02T22:08:54Z</time>
  <course>46.22</course>
  <speed>0.8091971329657563</speed>
  <fix>3d</fix>
</trkpt>
<trkpt lat="33.8103736" lon="-118.3943903">
  <ele>-24.41</ele>
  <time>2026-09-02T22:08:54Z</time>
  <course>52.76</course>
  <speed>0.8</speed>
  <fix>3d</fix>
</trkpt>
<trkpt lat="33.8103753" lon="-118.3943881">
  <ele>-25.017</ele>
  <time>2026-09-02T22:08:54Z</time>
  <course>46.3</course>
  <speed>0.816884324736373</speed>
  <fix>3d</fix>
</trkpt>
<trkpt lat="33.8103745" lon="-118.3943889">
  <ele>-24.4</ele>
  <time>2026-09-02T22:08:54Z</time>
  <course>52.76</course>
  <speed>0.8</speed>
  <fix>3d</fix>
</trkpt>
<trkpt lat="33.8103758" lon="-118.3943874">
  <ele>-25.015</ele>
  <time>2026-09-02T22:08:54Z</time>
  <course>46.38</course>
  <speed>0.816884324736373</speed>
  <fix>3d</fix>
</trkpt>
<trkpt lat="33.8103745" lon="-118.3943889">
  <ele>-24.4</ele>
  <time>2026-09-02T22:08:54Z</time>
  <course>52.76</course>
  <speed>0.8</speed>
  <fix>3d</fix>
</trkpt>
<trkpt lat="33.8103762" lon="-118.3943867">
  <ele>-25.013</ele>
  <time>2026-09-02T22:08:54Z</time>
  <course>46.46</course>
  <speed>0.816884324736373</speed>
  <fix>3d</fix>
</trkpt>
<trkpt lat="33.8103754" lon="-118.3943875">
  <ele>-24.4</ele>
  <time>2026-09-02T22:08:54Z</time>
  <course>52.77</course>
  <speed>0.8</speed>
  <fix>3d</fix>
</trkpt>
<trkpt lat="33.8103767" lon="-118.394386">
  <ele>-25.012</ele>
  <time>2026-09-02T22:08:54Z</time>
  <course>46.55</course>
  <speed>0.816884324736373</speed>
  <fix>3d</fix>
</trkpt>
<trkpt lat="33.8103754" lon="-118.3943875">
  <ele>-24.4</ele>
  <time>2026-09-02T22:08:54Z</time>
  <course>52.77</course>
  <speed>0.8</speed>
  <fix>3d</fix>
</trkpt>
<trkpt lat="33.8103771" lon="-118.3943853">
  <ele>-25.012</ele>
  <time>2026-09-02T22:08:55Z</time>
  <course>46.64</course>
  <speed>0.816884324736373</speed>
  <fix>3d</fix>
</trkpt>
<trkpt lat="33.8103763" lon="-118.3943862">
  <ele>-24.4</ele>
  <time>2026-09-02T22:08:55Z</time>
  <course>52.8</course>
  <speed>0.8</speed>
  <fix>3d</fix>
</trkpt>
<trkpt lat="33.8103775" lon="-118.3943846">
  <ele>-25.011</ele>
  <time>2026-09-02T22:08:55Z</time>
  <course>46.74</course>
  <speed>0.816884324736373</speed>
  <fix>3d</fix>
</trkpt>
<trkpt lat="33.8103763" lon="-118.3943862">
  <ele>-24.4</ele>
  <time>2026-09-02T22:08:55Z</time>
  <course>52.8</course>
  <speed>0.8</speed>
  <fix>3d</fix>
</trkpt>
<trkpt lat="33.810378" lon="-118.3943839">
  <ele>-25.011</ele>
  <time>2026-09-02T22:08:55Z</time>
  <course>46.85</course>
  <speed>0.816884324736373</speed>
  <fix>3d</fix>
</trkpt>
<trkpt lat="33.8103772" lon="-118.3943848">
  <ele>-24.4</ele>
  <time>2026-09-02T22:08:55Z</time>
  <course>52.88</course>
  <speed>0.81</speed>
  <fix>3d</fix>
</trkpt>
<trkpt lat="33.8103784" lon="-118.3943832">
  <ele>-25.012</ele>
  <time>2026-09-02T22:08:55Z</time>
  <course>46.98</course>
  <speed>0.816884324736373</speed>
  <fix>3d</fix>
</trkpt>
<trkpt lat="33.8103772" lon="-118.3943848">
  <ele>-24.4</ele>
  <time>2026-09-02T22:08:55Z</time>
  <course>52.88</course>
  <speed>0.81</speed>
  <fix>3d</fix>
</trkpt>
<trkpt lat="33.8103789" lon="-118.3943825">
  <ele>-25.012</ele>
  <time>2026-09-02T22:08:55Z</time>
  <course>47.11</course>
  <speed>0.8246211251235321</speed>
  <fix>3d</fix>
</trkpt>
<trkpt lat="33.810378" lon="-118.3943834">
  <ele>-24.4</ele>
  <time>2026-09-02T22:08:55Z</time>
  <course>53.02</course>
  <speed>0.81</speed>
  <fix>3d</fix>
</trkpt>
<trkpt lat="33.8103793" lon="-118.3943818">
  <ele>-25.011</ele>
  <time>2026-09-02T22:08:55Z</time>
  <course>47.24</course>
  <speed>0.8246211251235321</speed>
  <fix>3d</fix>
</trkpt>
<trkpt lat="33.810378" lon="-118.3943834">
  <ele>-24.4</ele>
  <time>2026-09-02T22:08:55Z</time>
  <course>53.02</course>
  <speed>0.81</speed>
  <fix>3d</fix>
</trkpt>
<trkpt lat="33.8103797" lon="-118.3943811">
  <ele>-25.009</ele>
  <time>2026-09-02T22:08:55Z</time>
  <course>47.35</course>
  <speed>0.8246211251235321</speed>
  <fix>3d</fix>
</trkpt>
<trkpt lat="33.8103789" lon="-118.3943819">
  <ele>-24.39</ele>
  <time>2026-09-02T22:08:55Z</time>
  <course>53.13</course>
  <speed>0.81</speed>
  <fix>3d</fix>
</trkpt>
<trkpt lat="33.8103802" lon="-118.3943804">
  <ele>-25.007</ele>
  <time>2026-09-02T22:08:55Z</time>
  <course>47.45</course>
  <speed>0.8246211251235321</speed>
  <fix>3d</fix>
</trkpt>
<trkpt lat="33.8103789" lon="-118.3943819">
  <ele>-24.39</ele>
  <time>2026-09-02T22:08:55Z</time>
  <course>53.13</course>
  <speed>0.81</speed>
  <fix>3d</fix>
</trkpt>
<trkpt lat="33.8103806" lon="-118.3943797">
  <ele>-25.006</ele>
  <time>2026-09-02T22:08:55Z</time>
  <course>47.52</course>
  <speed>0.8246211251235321</speed>
  <fix>3d</fix>
</trkpt>
<trkpt lat="33.8103798" lon="-118.3943805">
  <ele>-24.39</ele>
  <time>2026-09-02T22:08:55Z</time>
  <course>53.15</course>
  <speed>0.81</speed>
  <fix>3d</fix>
</trkpt>
<trkpt lat="33.8103811" lon="-118.394379">
  <ele>-25.006</ele>
  <time>2026-09-02T22:08:55Z</time>
  <course>47.59</course>
  <speed>0.8246211251235321</speed>
  <fix>3d</fix>
</trkpt>
<trkpt lat="33.8103798" lon="-118.3943805">
  <ele>-24.39</ele>
  <time>2026-09-02T22:08:55Z</time>
  <course>53.15</course>
  <speed>0.81</speed>
  <fix>3d</fix>
</trkpt>
<trkpt lat="33.8103815" lon="-118.3943783">
  <ele>-25.006</ele>
  <time>2026-09-02T22:08:55Z</time>
  <course>47.65</course>
  <speed>0.8246211251235321</speed>
  <fix>3d</fix>
</trkpt>
<trkpt lat="33.8103807" lon="-118.3943791">
  <ele>-24.39</ele>
  <time>2026-09-02T22:08:55Z</time>
  <course>53.12</course>
  <speed>0.82</speed>
  <fix>3d</fix>
</trkpt>
<trkpt lat="33.810382" lon="-118.3943776">
  <ele>-25.007</ele>
  <time>2026-09-02T22:08:55Z</time>
  <course>47.71</course>
  <speed>0.8246211251235321</speed>
  <fix>3d</fix>
</trkpt>
<trkpt lat="33.8103807" lon="-118.3943791">
  <ele>-24.39</ele>
  <time>2026-09-02T22:08:55Z</time>
  <course>53.12</course>
  <speed>0.82</speed>
  <fix>3d</fix>
</trkpt>
<trkpt lat="33.8103824" lon="-118.3943769">
  <ele>-25.009</ele>
  <time>2026-09-02T22:08:55Z</time>
  <course>47.77</course>
  <speed>0.8246211251235321</speed>
  <fix>3d</fix>
</trkpt>
<trkpt lat="33.8103816" lon="-118.3943777">
  <ele>-24.4</ele>
  <time>2026-09-02T22:08:55Z</time>
  <course>53.12</course>
  <speed>0.82</speed>
  <fix>3d</fix>
</trkpt>
<trkpt lat="33.8103829" lon="-118.3943761">
  <ele>-25.01</ele>
  <time>2026-09-02T22:08:55Z</time>
  <course>47.84</course>
  <speed>0.8324061508662703</speed>
  <fix>3d</fix>
</trkpt>
<trkpt lat="33.8103816" lon="-118.3943777">
  <ele>-24.4</ele>
  <time>2026-09-02T22:08:55Z</time>
  <course>53.12</course>
  <speed>0.82</speed>
  <fix>3d</fix>
</trkpt>
<trkpt lat="33.8103833" lon="-118.3943754">
  <ele>-25.011</ele>
  <time>2026-09-02T22:08:55Z</time>
  <course>47.92</course>
  <speed>0.8324061508662703</speed>
  <fix>3d</fix>
</trkpt>
<trkpt lat="33.8103824" lon="-118.3943763">
  <ele>-24.4</ele>
  <time>2026-09-02T22:08:55Z</time>
  <course>53.16</course>
  <speed>0.82</speed>
  <fix>3d</fix>
</trkpt>
<trkpt lat="33.8103837" lon="-118.3943747">
  <ele>-25.012</ele>
  <time>2026-09-02T22:08:55Z</time>
  <course>47.99</course>
  <speed>0.8324061508662703</speed>
  <fix>3d</fix>
</trkpt>
<trkpt lat="33.8103824" lon="-118.3943763">
  <ele>-24.4</ele>
  <time>2026-09-02T22:08:55Z</time>
  <course>53.16</course>
  <speed>0.82</speed>
  <fix>3d</fix>
</trkpt>
<trkpt lat="33.8103842" lon="-118.394374">
  <ele>-25.013</ele>
  <time>2026-09-02T22:08:55Z</time>
  <course>48.06</course>
  <speed>0.8324061508662703</speed>
  <fix>3d</fix>
</trkpt>
<trkpt lat="33.8103833" lon="-118.3943748">
  <ele>-24.4</ele>
  <time>2026-09-02T22:08:55Z</time>
  <course>53.19</course>
  <speed>0.82</speed>
  <fix>3d</fix>
</trkpt>
<trkpt lat="33.8103846" lon="-118.3943733">
  <ele>-25.014</ele>
  <time>2026-09-02T22:08:55Z</time>
  <course>48.12</course>
  <speed>0.8386894538504702</speed>
  <fix>3d</fix>
</trkpt>
<trkpt lat="33.8103833" lon="-118.3943748">
  <ele>-24.4</ele>
  <time>2026-09-02T22:08:55Z</time>
  <course>53.19</course>
  <speed>0.82</speed>
  <fix>3d</fix>
</trkpt>
<trkpt lat="33.8103851" lon="-118.3943726">
  <ele>-25.015</ele>
  <time>2026-09-02T22:08:55Z</time>
  <course>48.16</course>
  <speed>0.8386894538504702</speed>
  <fix>3d</fix>
</trkpt>
<trkpt lat="33.8103842" lon="-118.3943734">
  <ele>-24.41</ele>
  <time>2026-09-02T22:08:55Z</time>
  <course>53.16</course>
  <speed>0.83</speed>
  <fix>3d</fix>
</trkpt>
<trkpt lat="33.8103855" lon="-118.3943718">
  <ele>-25.015</ele>
  <time>2026-09-02T22:08:55Z</time>
  <course>48.2</course>
  <speed>0.8386894538504702</speed>
  <fix>3d</fix>
</trkpt>
<trkpt lat="33.8103842" lon="-118.3943734">
  <ele>-24.41</ele>
  <time>2026-09-02T22:08:55Z</time>
  <course>53.16</course>
  <speed>0.83</speed>
  <fix>3d</fix>
</trkpt>
<trkpt lat="33.810386" lon="-118.3943711">
  <ele>-25.013</ele>
  <time>2026-09-02T22:08:55Z</time>
  <course>48.23</course>
  <speed>0.8386894538504702</speed>
  <fix>3d</fix>
</trkpt>
<trkpt lat="33.8103851" lon="-118.3943719">
  <ele>-24.41</ele>
  <time>2026-09-02T22:08:55Z</time>
  <course>53.11</course>
  <speed>0.83</speed>
  <fix>3d</fix>
</trkpt>
<trkpt lat="33.8103864" lon="-118.3943704">
  <ele>-25.012</ele>
  <time>2026-09-02T22:08:55Z</time>
  <course>48.27</course>
  <speed>0.8386894538504702</speed>
  <fix>3d</fix>
</trkpt>
<trkpt lat="33.8103851" lon="-118.3943719">
  <ele>-24.41</ele>
  <time>2026-09-02T22:08:55Z</time>
  <course>53.11</course>
  <speed>0.83</speed>
  <fix>3d</fix>
</trkpt>
<trkpt lat="33.8103869" lon="-118.3943696">
  <ele>-25.01</ele>
  <time>2026-09-02T22:08:55Z</time>
  <course>48.3</course>
  <speed>0.8464632301523793</speed>
  <fix>3d</fix>
</trkpt>
<trkpt lat="33.810386" lon="-118.3943705">
  <ele>-24.41</ele>
  <time>2026-09-02T22:08:55Z</time>
  <course>53.06</course>
  <speed>0.83</speed>
  <fix>3d</fix>
</trkpt>
<trkpt lat="33.8103873" lon="-118.3943689">
  <ele>-25.01</ele>
  <time>2026-09-02T22:08:55Z</time>
  <course>48.34</course>
  <speed>0.8464632301523793</speed>
  <fix>3d</fix>
</trkpt>
<trkpt lat="33.810386" lon="-118.3943705">
  <ele>-24.41</ele>
  <time>2026-09-02T22:08:55Z</time>
  <course>53.06</course>
  <speed>0.83</speed>
  <fix>3d</fix>
</trkpt>
<trkpt lat="33.8103878" lon="-118.3943682">
  <ele>-25.012</ele>
  <time>2026-09-02T22:08:55Z</time>
  <course>48.38</course>
  <speed>0.8464632301523793</speed>
  <fix>3d</fix>
</trkpt>
<trkpt lat="33.8103869" lon="-118.3943691">
  <ele>-24.41</ele>
  <time>2026-09-02T22:08:55Z</time>
  <course>53.03</course>
  <speed>0.83</speed>
  <fix>3d</fix>
</trkpt>
<trkpt lat="33.8103882" lon="-118.3943675">
  <ele>-25.014</ele>
  <time>2026-09-02T22:08:55Z</time>
  <course>48.43</course>
  <speed>0.8464632301523793</speed>
  <fix>3d</fix>
</trkpt>
<trkpt lat="33.8103869" lon="-118.3943691">
  <ele>-24.41</ele>
  <time>2026-09-02T22:08:55Z</time>
  <course>53.03</course>
  <speed>0.83</speed>
  <fix>3d</fix>
</trkpt>
<trkpt lat="33.8103887" lon="-118.3943667">
  <ele>-25.017</ele>
  <time>2026-09-02T22:08:55Z</time>
  <course>48.48</course>
  <speed>0.8464632301523793</speed>
  <fix>3d</fix>
</trkpt>
<trkpt lat="33.8103878" lon="-118.3943676">
  <ele>-24.41</ele>
  <time>2026-09-02T22:08:55Z</time>
  <course>53.04</course>
  <speed>0.84</speed>
  <fix>3d</fix>
</trkpt>
<trkpt lat="33.8103892" lon="-118.394366">
  <ele>-25.018</ele>
  <time>2026-09-02T22:08:55Z</time>
  <course>48.55</course>
  <speed>0.8527602242131137</speed>
  <fix>3d</fix>
</trkpt>
<trkpt lat="33.8103878" lon="-118.3943676">
  <ele>-24.41</ele>
  <time>2026-09-02T22:08:55Z</time>
  <course>53.04</course>
  <speed>0.84</speed>
  <fix>3d</fix>
</trkpt>
<trkpt lat="33.8103896" lon="-118.3943653">
  <ele>-25.019</ele>
  <time>2026-09-02T22:08:55Z</time>
  <course>48.6</course>
  <speed>0.8527602242131137</speed>
  <fix>3d</fix>
</trkpt>
<trkpt lat="33.8103887" lon="-118.3943661">
  <ele>-24.41</ele>
  <time>2026-09-02T22:08:55Z</time>
  <course>53.06</course>
  <speed>0.84</speed>
  <fix>3d</fix>
</trkpt>
<trkpt lat="33.8103901" lon="-118.3943645">
  <ele>-25.018</ele>
  <time>2026-09-02T22:08:55Z</time>
  <course>48.66</course>
  <speed>0.8527602242131137</speed>
  <fix>3d</fix>
</trkpt>
<trkpt lat="33.8103887" lon="-118.3943661">
  <ele>-24.41</ele>
  <time>2026-09-02T22:08:55Z</time>
  <course>53.06</course>
  <speed>0.84</speed>
  <fix>3d</fix>
</trkpt>
<trkpt lat="33.8103905" lon="-118.3943638">
  <ele>-25.017</ele>
  <time>2026-09-02T22:08:55Z</time>
  <course>48.7</course>
  <speed>0.8527602242131137</speed>
  <fix>3d</fix>
</trkpt>
<trkpt lat="33.8103897" lon="-118.3943647">
  <ele>-24.4</ele>
  <time>2026-09-02T22:08:55Z</time>
  <course>53.03</course>
  <speed>0.84</speed>
  <fix>3d</fix>
</trkpt>
<trkpt lat="33.810391" lon="-118.3943631">
  <ele>-25.015</ele>
  <time>2026-09-02T22:08:55Z</time>
  <course>48.75</course>
  <speed>0.8605230967266364</speed>
  <fix>3d</fix>
</trkpt>
<trkpt lat="33.8103897" lon="-118.3943647">
  <ele>-24.4</ele>
  <time>2026-09-02T22:08:55Z</time>
  <course>53.03</course>
  <speed>0.84</speed>
  <fix>3d</fix>
</trkpt>
<trkpt lat="33.8103914" lon="-118.3943623">
  <ele>-25.013</ele>
  <time>2026-09-02T22:08:55Z</time>
  <course>48.81</course>
  <speed>0.8605230967266364</speed>
  <fix>3d</fix>
</trkpt>
<trkpt lat="33.8103906" lon="-118.3943632">
  <ele>-24.4</ele>
  <time>2026-09-02T22:08:55Z</time>
  <course>53.04</course>
  <speed>0.84</speed>
  <fix>3d</fix>
</trkpt>
<trkpt lat="33.8103919" lon="-118.3943616">
  <ele>-25.01</ele>
  <time>2026-09-02T22:08:55Z</time>
  <course>48.89</course>
  <speed>0.8605230967266364</speed>
  <fix>3d</fix>
</trkpt>
<trkpt lat="33.8103906" lon="-118.3943632">
  <ele>-24.4</ele>
  <time>2026-09-02T22:08:55Z</time>
  <course>53.04</course>
  <speed>0.84</speed>
  <fix>3d</fix>
</trkpt>
<trkpt lat="33.8103924" lon="-118.3943608">
  <ele>-25.008</ele>
  <time>2026-09-02T22:08:55Z</time>
  <course>48.97</course>
  <speed>0.8605230967266364</speed>
  <fix>3d</fix>
</trkpt>
<trkpt lat="33.8103915" lon="-118.3943618">
  <ele>-24.39</ele>
  <time>2026-09-02T22:08:55Z</time>
  <course>53.12</course>
  <speed>0.84</speed>
  <fix>3d</fix>
</trkpt>
<trkpt lat="33.8103928" lon="-118.3943601">
  <ele>-25.006</ele>
  <time>2026-09-02T22:08:55Z</time>
  <course>49.05</course>
  <speed>0.8605230967266364</speed>
  <fix>3d</fix>
</trkpt>
<trkpt lat="33.8103915" lon="-118.3943618">
  <ele>-24.39</ele>
  <time>2026-09-02T22:08:55Z</time>
  <course>53.12</course>
  <speed>0.84</speed>
  <fix>3d</fix>
</trkpt>
<trkpt lat="33.8103933" lon="-118.3943594">
  <ele>-25.004</ele>
  <time>2026-09-02T22:08:55Z</time>
  <course>49.13</course>
  <speed>0.8605230967266364</speed>
  <fix>3d</fix>
</trkpt>
<trkpt lat="33.8103924" lon="-118.3943603">
  <ele>-24.39</ele>
  <time>2026-09-02T22:08:55Z</time>
  <course>53.2</course>
  <speed>0.85</speed>
  <fix>3d</fix>
</trkpt>
<trkpt lat="33.8103937" lon="-118.3943586">
  <ele>-25.002</ele>
  <time>2026-09-02T22:08:55Z</time>
  <course>49.21</course>
  <speed>0.8605230967266364</speed>
  <fix>3d</fix>
</trkpt>
<trkpt lat="33.8103924" lon="-118.3943603">
  <ele>-24.39</ele>
  <time>2026-09-02T22:08:55Z</time>
  <course>53.2</course>
  <speed>0.85</speed>
  <fix>3d</fix>
</trkpt>
<trkpt lat="33.8103942" lon="-118.3943579">
  <ele>-25.003</ele>
  <time>2026-09-02T22:08:55Z</time>
  <course>49.28</course>
  <speed>0.8605230967266364</speed>
  <fix>3d</fix>
</trkpt>
<trkpt lat="33.8103933" lon="-118.3943588">
  <ele>-24.39</ele>
  <time>2026-09-02T22:08:55Z</time>
  <course>53.26</course>
  <speed>0.85</speed>
  <fix>3d</fix>
</trkpt>
<trkpt lat="33.8103947" lon="-118.3943571">
  <ele>-25.005</ele>
  <time>2026-09-02T22:08:55Z</time>
  <course>49.35</course>
  <speed>0.8683317338436964</speed>
  <fix>3d</fix>
</trkpt>
<trkpt lat="33.8103933" lon="-118.3943588">
  <ele>-24.39</ele>
  <time>2026-09-02T22:08:55Z</time>
  <course>53.26</course>
  <speed>0.85</speed>
  <fix>3d</fix>
</trkpt>
<trkpt lat="33.8103951" lon="-118.3943564">
  <ele>-25.006</ele>
  <time>2026-09-02T22:08:55Z</time>
  <course>49.39</course>
  <speed>0.8683317338436964</speed>
  <fix>3d</fix>
</trkpt>
<trkpt lat="33.8103943" lon="-118.3943573">
  <ele>-24.4</ele>
  <time>2026-09-02T22:08:55Z</time>
  <course>53.27</course>
  <speed>0.85</speed>
  <fix>3d</fix>
</trkpt>
<trkpt lat="33.8103956" lon="-118.3943556">
  <ele>-25.008</ele>
  <time>2026-09-02T22:08:55Z</time>
  <course>49.45</course>
  <speed>0.8683317338436964</speed>
  <fix>3d</fix>
</trkpt>
<trkpt lat="33.8103943" lon="-118.3943573">
  <ele>-24.4</ele>
  <time>2026-09-02T22:08:55Z</time>
  <course>53.27</course>
  <speed>0.85</speed>
  <fix>3d</fix>
</trkpt>
<trkpt lat="33.8103961" lon="-118.3943549">
  <ele>-25.009</ele>
  <time>2026-09-02T22:08:55Z</time>
  <course>49.5</course>
  <speed>0.8683317338436964</speed>
  <fix>3d</fix>
</trkpt>
<trkpt lat="33.8103952" lon="-118.3943558">
  <ele>-24.4</ele>
  <time>2026-09-02T22:08:55Z</time>
  <course>53.28</course>
  <speed>0.86</speed>
  <fix>3d</fix>
</trkpt>
<trkpt lat="33.8103965" lon="-118.3943542">
  <ele>-25.01</ele>
  <time>2026-09-02T22:08:55Z</time>
  <course>49.56</course>
  <speed>0.8683317338436964</speed>
  <fix>3d</fix>
</trkpt>
<trkpt lat="33.8103952" lon="-118.3943558">
  <ele>-24.4</ele>
  <time>2026-09-02T22:08:55Z</time>
  <course>53.28</course>
  <speed>0.86</speed>
  <fix>3d</fix>
</trkpt>
<trkpt lat="33.810397" lon="-118.3943534">
  <ele>-25.011</ele>
  <time>2026-09-02T22:08:55Z</time>
  <course>49.62</course>
  <speed>0.8683317338436964</speed>
  <fix>3d</fix>
</trkpt>
<trkpt lat="33.8103961" lon="-118.3943543">
  <ele>-24.41</ele>
  <time>2026-09-02T22:08:55Z</time>
  <course>53.32</course>
  <speed>0.86</speed>
  <fix>3d</fix>
</trkpt>
<trkpt lat="33.8103974" lon="-118.3943527">
  <ele>-25.013</ele>
  <time>2026-09-02T22:08:55Z</time>
  <course>49.67</course>
  <speed>0.8745856161634491</speed>
  <fix>3d</fix>
</trkpt>
<trkpt lat="33.8103961" lon="-118.3943543">
  <ele>-24.41</ele>
  <time>2026-09-02T22:08:55Z</time>
  <course>53.32</course>
  <speed>0.86</speed>
  <fix>3d</fix>
</trkpt>
<trkpt lat="33.8103979" lon="-118.3943519">
  <ele>-25.014</ele>
  <time>2026-09-02T22:08:55Z</time>
  <course>49.71</course>
  <speed>0.8745856161634491</speed>
  <fix>3d</fix>
</trkpt>
<trkpt lat="33.810397" lon="-118.3943528">
  <ele>-24.41</ele>
  <time>2026-09-02T22:08:55Z</time>
  <course>53.32</course>
  <speed>0.86</speed>
  <fix>3d</fix>
</trkpt>
<trkpt lat="33.8103984" lon="-118.3943512">
  <ele>-25.014</ele>
  <time>2026-09-02T22:08:55Z</time>
  <course>49.74</course>
  <speed>0.8823831367382311</speed>
  <fix>3d</fix>
</trkpt>
<trkpt lat="33.810397" lon="-118.3943528">
  <ele>-24.41</ele>
  <time>2026-09-02T22:08:55Z</time>
  <course>53.32</course>
  <speed>0.86</speed>
  <fix>3d</fix>
</trkpt>
<trkpt lat="33.8103988" lon="-118.3943504">
  <ele>-25.013</ele>
  <time>2026-09-02T22:08:55Z</time>
  <course>49.76</course>
  <speed>0.8823831367382311</speed>
  <fix>3d</fix>
</trkpt>
<trkpt lat="33.810398" lon="-118.3943513">
  <ele>-24.41</ele>
  <time>2026-09-02T22:08:55Z</time>
  <course>53.28</course>
  <speed>0.86</speed>
  <fix>3d</fix>
</trkpt>
<trkpt lat="33.8103993" lon="-118.3943496">
  <ele>-25.013</ele>
  <time>2026-09-02T22:08:55Z</time>
  <course>49.79</course>
  <speed>0.8823831367382311</speed>
  <fix>3d</fix>
</trkpt>
<trkpt lat="33.810398" lon="-118.3943513">
  <ele>-24.41</ele>
  <time>2026-09-02T22:08:55Z</time>
  <course>53.28</course>
  <speed>0.86</speed>
  <fix>3d</fix>
</trkpt>
<trkpt lat="33.8103998" lon="-118.3943489">
  <ele>-25.012</ele>
  <time>2026-09-02T22:08:55Z</time>
  <course>49.82</course>
  <speed>0.8823831367382311</speed>
  <fix>3d</fix>
</trkpt>
<trkpt lat="33.8103989" lon="-118.3943498">
  <ele>-24.41</ele>
  <time>2026-09-02T22:08:55Z</time>
  <course>53.25</course>
  <speed>0.87</speed>
  <fix>3d</fix>
</trkpt>
<trkpt lat="33.8104002" lon="-118.3943481">
  <ele>-25.012</ele>
  <time>2026-09-02T22:08:55Z</time>
  <course>49.86</course>
  <speed>0.8823831367382311</speed>
  <fix>3d</fix>
</trkpt>
<trkpt lat="33.8103989" lon="-118.3943498">
  <ele>-24.41</ele>
  <time>2026-09-02T22:08:55Z</time>
  <course>53.25</course>
  <speed>0.87</speed>
  <fix>3d</fix>
</trkpt>
<trkpt lat="33.8104007" lon="-118.3943474">
  <ele>-25.012</ele>
  <time>2026-09-02T22:08:55Z</time>
  <course>49.89</course>
  <speed>0.8823831367382311</speed>
  <fix>3d</fix>
</trkpt>
<trkpt lat="33.8103998" lon="-118.3943483">
  <ele>-24.41</ele>
  <time>2026-09-02T22:08:55Z</time>
  <course>53.26</course>
  <speed>0.87</speed>
  <fix>3d</fix>
</trkpt>
<trkpt lat="33.8104012" lon="-118.3943466">
  <ele>-25.011</ele>
  <time>2026-09-02T22:08:55Z</time>
  <course>49.93</course>
  <speed>0.8823831367382311</speed>
  <fix>3d</fix>
</trkpt>
<trkpt lat="33.8103998" lon="-118.3943483">
  <ele>-24.41</ele>
  <time>2026-09-02T22:08:55Z</time>
  <course>53.26</course>
  <speed>0.87</speed>
  <fix>3d</fix>
</trkpt>
<trkpt lat="33.8104016" lon="-118.3943459">
  <ele>-25.012</ele>
  <time>2026-09-02T22:08:55Z</time>
  <course>49.95</course>
  <speed>0.8823831367382311</speed>
  <fix>3d</fix>
</trkpt>
<trkpt lat="33.8104007" lon="-118.3943468">
  <ele>-24.41</ele>
  <time>2026-09-02T22:08:55Z</time>
  <course>53.26</course>
  <speed>0.87</speed>
  <fix>3d</fix>
</trkpt>
<trkpt lat="33.8104021" lon="-118.3943451">
  <ele>-25.012</ele>
  <time>2026-09-02T22:08:55Z</time>
  <course>49.98</course>
  <speed>0.8823831367382311</speed>
  <fix>3d</fix>
</trkpt>
<trkpt lat="33.8104007" lon="-118.3943468">
  <ele>-24.41</ele>
  <time>2026-09-02T22:08:55Z</time>
  <course>53.26</course>
  <speed>0.87</speed>
  <fix>3d</fix>
</trkpt>
<trkpt lat="33.8104026" lon="-118.3943443">
  <ele>-25.013</ele>
  <time>2026-09-02T22:08:55Z</time>
  <course>49.99</course>
  <speed>0.8823831367382311</speed>
  <fix>3d</fix>
</trkpt>
<trkpt lat="33.8104017" lon="-118.3943453">
  <ele>-24.41</ele>
  <time>2026-09-02T22:08:55Z</time>
  <course>53.22</course>
  <speed>0.88</speed>
  <fix>3d</fix>
</trkpt>
<trkpt lat="33.8104031" lon="-118.3943436">
  <ele>-25.013</ele>
  <time>2026-09-02T22:08:55Z</time>
  <course>50.02</course>
  <speed>0.8964373932405988</speed>
  <fix>3d</fix>
</trkpt>
<trkpt lat="33.8104017" lon="-118.3943453">
  <ele>-24.41</ele>
  <time>2026-09-02T22:08:55Z</time>
  <course>53.22</course>
  <speed>0.88</speed>
  <fix>3d</fix>
</trkpt>
<trkpt lat="33.8104035" lon="-118.3943428">
  <ele>-25.013</ele>
  <time>2026-09-02T22:08:55Z</time>
  <course>50.04</course>
  <speed>0.8964373932405988</speed>
  <fix>3d</fix>
</trkpt>
<trkpt lat="33.8104027" lon="-118.3943437">
  <ele>-24.41</ele>
  <time>2026-09-02T22:08:55Z</time>
  <course>53.2</course>
  <speed>0.88</speed>
  <fix>3d</fix>
</trkpt>
<trkpt lat="33.810404" lon="-118.3943421">
  <ele>-25.011</ele>
  <time>2026-09-02T22:08:55Z</time>
  <course>50.08</course>
  <speed>0.8964373932405988</speed>
  <fix>3d</fix>
</trkpt>
<trkpt lat="33.8104027" lon="-118.3943437">
  <ele>-24.41</ele>
  <time>2026-09-02T22:08:55Z</time>
  <course>53.2</course>
  <speed>0.88</speed>
  <fix>3d</fix>
</trkpt>
<trkpt lat="33.8104045" lon="-118.3943413">
  <ele>-25.01</ele>
  <time>2026-09-02T22:08:55Z</time>
  <course>50.12</course>
  <speed>0.8964373932405988</speed>
  <fix>3d</fix>
</trkpt>
<trkpt lat="33.8104036" lon="-118.3943422">
  <ele>-24.41</ele>
  <time>2026-09-02T22:08:55Z</time>
  <course>53.23</course>
  <speed>0.88</speed>
  <fix>3d</fix>
</trkpt>
<trkpt lat="33.810405" lon="-118.3943405">
  <ele>-25.01</ele>
  <time>2026-09-02T22:08:55Z</time>
  <course>50.17</course>
  <speed>0.8964373932405988</speed>
  <fix>3d</fix>
</trkpt>
<trkpt lat="33.8104036" lon="-118.3943422">
  <ele>-24.41</ele>
  <time>2026-09-02T22:08:55Z</time>
  <course>53.23</course>
  <speed>0.88</speed>
  <fix>3d</fix>
</trkpt>
<trkpt lat="33.8104054" lon="-118.3943397">
  <ele>-25.01</ele>
  <time>2026-09-02T22:08:55Z</time>
  <course>50.2</course>
  <speed>0.8964373932405988</speed>
  <fix>3d</fix>
</trkpt>
<trkpt lat="33.8104046" lon="-118.3943406">
  <ele>-24.41</ele>
  <time>2026-09-02T22:08:55Z</time>
  <course>53.25</course>
  <speed>0.88</speed>
  <fix>3d</fix>
</trkpt>
<trkpt lat="33.8104059" lon="-118.394339">
  <ele>-25.01</ele>
  <time>2026-09-02T22:08:55Z</time>
  <course>50.24</course>
  <speed>0.8964373932405988</speed>
  <fix>3d</fix>
</trkpt>
<trkpt lat="33.8104046" lon="-118.3943406">
  <ele>-24.41</ele>
  <time>2026-09-02T22:08:55Z</time>
  <course>53.25</course>
  <speed>0.88</speed>
  <fix>3d</fix>
</trkpt>
<trkpt lat="33.8104064" lon="-118.3943382">
  <ele>-25.011</ele>
  <time>2026-09-02T22:08:55Z</time>
  <course>50.27</course>
  <speed>0.8964373932405988</speed>
  <fix>3d</fix>
</trkpt>
<trkpt lat="33.8104055" lon="-118.3943391">
  <ele>-24.41</ele>
  <time>2026-09-02T22:08:55Z</time>
  <course>53.25</course>
  <speed>0.88</speed>
  <fix>3d</fix>
</trkpt>
<trkpt lat="33.8104069" lon="-118.3943374">
  <ele>-25.013</ele>
  <time>2026-09-02T22:08:55Z</time>
  <course>50.31</course>
  <speed>0.8964373932405988</speed>
  <fix>3d</fix>
</trkpt>
<trkpt lat="33.8104055" lon="-118.3943391">
  <ele>-24.41</ele>
  <time>2026-09-02T22:08:55Z</time>
  <course>53.25</course>
  <speed>0.88</speed>
  <fix>3d</fix>
</trkpt>
<trkpt lat="33.8104073" lon="-118.3943367">
  <ele>-25.014</ele>
  <time>2026-09-02T22:08:55Z</time>
  <course>50.32</course>
  <speed>0.8964373932405988</speed>
  <fix>3d</fix>
</trkpt>
<trkpt lat="33.8104065" lon="-118.3943376">
  <ele>-24.42</ele>
  <time>2026-09-02T22:08:55Z</time>
  <course>53.26</course>
  <speed>0.88</speed>
  <fix>3d</fix>
</trkpt>
<trkpt lat="33.8104078" lon="-118.3943359">
  <ele>-25.015</ele>
  <time>2026-09-02T22:08:55Z</time>
  <course>50.35</course>
  <speed>0.8964373932405988</speed>
  <fix>3d</fix>
</trkpt>
<trkpt lat="33.8104065" lon="-118.3943376">
  <ele>-24.42</ele>
  <time>2026-09-02T22:08:55Z</time>
  <course>53.26</course>
  <speed>0.88</speed>
  <fix>3d</fix>
</trkpt>
<trkpt lat="33.8104083" lon="-118.3943351">
  <ele>-25.016</ele>
  <time>2026-09-02T22:08:55Z</time>
  <course>50.39</course>
  <speed>0.8964373932405988</speed>
  <fix>3d</fix>
</trkpt>
<trkpt lat="33.8104074" lon="-118.3943361">
  <ele>-24.42</ele>
  <time>2026-09-02T22:08:55Z</time>
  <course>53.28</course>
  <speed>0.88</speed>
  <fix>3d</fix>
</trkpt>
<trkpt lat="33.8104088" lon="-118.3943344">
  <ele>-25.018</ele>
  <time>2026-09-02T22:08:55Z</time>
  <course>50.44</course>
  <speed>0.8964373932405988</speed>
  <fix>3d</fix>
</trkpt>
<trkpt lat="33.8104074" lon="-118.3943361">
  <ele>-24.42</ele>
  <time>2026-09-02T22:08:55Z</time>
  <course>53.28</course>
  <speed>0.88</speed>
  <fix>3d</fix>
</trkpt>
<trkpt lat="33.8104092" lon="-118.3943336">
  <ele>-25.019</ele>
  <time>2026-09-02T22:08:55Z</time>
  <course>50.49</course>
  <speed>0.904267659490264</speed>
  <fix>3d</fix>
</trkpt>
<trkpt lat="33.8104084" lon="-118.3943345">
  <ele>-24.42</ele>
  <time>2026-09-02T22:08:55Z</time>
  <course>53.31</course>
  <speed>0.89</speed>
  <fix>3d</fix>
</trkpt>
<trkpt lat="33.8104097" lon="-118.3943328">
  <ele>-25.018</ele>
  <time>2026-09-02T22:08:55Z</time>
  <course>50.53</course>
  <speed>0.904267659490264</speed>
  <fix>3d</fix>
</trkpt>
<trkpt lat="33.8104084" lon="-118.3943345">
  <ele>-24.42</ele>
  <time>2026-09-02T22:08:55Z</time>
  <course>53.31</course>
  <speed>0.89</speed>
  <fix>3d</fix>
</trkpt>
<trkpt lat="33.8104102" lon="-118.394332">
  <ele>-25.016</ele>
  <time>2026-09-02T22:08:55Z</time>
  <course>50.57</course>
  <speed>0.904267659490264</speed>
  <fix>3d</fix>
</trkpt>
<trkpt lat="33.8104094" lon="-118.394333">
  <ele>-24.41</ele>
  <time>2026-09-02T22:08:55Z</time>
  <course>53.33</course>
  <speed>0.89</speed>
  <fix>3d</fix>
</trkpt>
<trkpt lat="33.8104107" lon="-118.3943313">
  <ele>-25.013</ele>
  <time>2026-09-02T22:08:55Z</time>
  <course>50.62</course>
  <speed>0.904267659490264</speed>
  <fix>3d</fix>
</trkpt>
<trkpt lat="33.8104094" lon="-118.394333">
  <ele>-24.41</ele>
  <time>2026-09-02T22:08:55Z</time>
  <course>53.33</course>
  <speed>0.89</speed>
  <fix>3d</fix>
</trkpt>
<trkpt lat="33.8104112" lon="-118.3943305">
  <ele>-25.012</ele>
  <time>2026-09-02T22:08:55Z</time>
  <course>50.67</course>
  <speed>0.904267659490264</speed>
  <fix>3d</fix>
</trkpt>
<trkpt lat="33.8104103" lon="-118.3943314">
  <ele>-24.41</ele>
  <time>2026-09-02T22:08:55Z</time>
  <course>53.38</course>
  <speed>0.89</speed>
  <fix>3d</fix>
</trkpt>
<trkpt lat="33.8104117" lon="-118.3943297">
  <ele>-25.012</ele>
  <time>2026-09-02T22:08:55Z</time>
  <course>50.73</course>
  <speed>0.904267659490264</speed>
  <fix>3d</fix>
</trkpt>
<trkpt lat="33.8104103" lon="-118.3943314">
  <ele>-24.41</ele>
  <time>2026-09-02T22:08:55Z</time>
  <course>53.38</course>
  <speed>0.89</speed>
  <fix>3d</fix>
</trkpt>
<trkpt lat="33.8104121" lon="-118.3943289">
  <ele>-25.012</ele>
  <time>2026-09-02T22:08:55Z</time>
  <course>50.77</course>
  <speed>0.904267659490264</speed>
  <fix>3d</fix>
</trkpt>
<trkpt lat="33.8104113" lon="-118.3943299">
  <ele>-24.4</ele>
  <time>2026-09-02T22:08:55Z</time>
  <course>53.44</course>
  <speed>0.89</speed>
  <fix>3d</fix>
</trkpt>
<trkpt lat="33.8104126" lon="-118.3943281">
  <ele>-25.011</ele>
  <time>2026-09-02T22:08:55Z</time>
  <course>50.81</course>
  <speed>0.904267659490264</speed>
  <fix>3d</fix>
</trkpt>
<trkpt lat="33.8104113" lon="-118.3943299">
  <ele>-24.4</ele>
  <time>2026-09-02T22:08:55Z</time>
  <course>53.44</course>
  <speed>0.89</speed>
  <fix>3d</fix>
</trkpt>
<trkpt lat="33.8104131" lon="-118.3943274">
  <ele>-25.01</ele>
  <time>2026-09-02T22:08:55Z</time>
  <course>50.84</course>
  <speed>0.904267659490264</speed>
  <fix>3d</fix>
</trkpt>
<trkpt lat="33.8104122" lon="-118.3943282">
  <ele>-24.4</ele>
  <time>2026-09-02T22:08:55Z</time>
  <course>53.46</course>
  <speed>0.89</speed>
  <fix>3d</fix>
</trkpt>
<trkpt lat="33.8104136" lon="-118.3943266">
  <ele>-25.011</ele>
  <time>2026-09-02T22:08:55Z</time>
  <course>50.88</course>
  <speed>0.904267659490264</speed>
  <fix>3d</fix>
</trkpt>
<trkpt lat="33.8104122" lon="-118.3943282">
  <ele>-24.4</ele>
  <time>2026-09-02T22:08:55Z</time>
  <course>53.46</course>
  <speed>0.89</speed>
  <fix>3d</fix>
</trkpt>
<trkpt lat="33.8104141" lon="-118.3943258">
  <ele>-25.011</ele>
  <time>2026-09-02T22:08:55Z</time>
  <course>50.88</course>
  <speed>0.904267659490264</speed>
  <fix>3d</fix>
</trkpt>
<trkpt lat="33.8104132" lon="-118.3943267">
  <ele>-24.4</ele>
  <time>2026-09-02T22:08:55Z</time>
  <course>53.43</course>
  <speed>0.9</speed>
  <fix>3d</fix>
</trkpt>
<trkpt lat="33.8104145" lon="-118.394325">
  <ele>-25.011</ele>
  <time>2026-09-02T22:08:55Z</time>
  <course>50.88</course>
  <speed>0.904267659490264</speed>
  <fix>3d</fix>
</trkpt>
<trkpt lat="33.8104132" lon="-118.3943267">
  <ele>-24.4</ele>
  <time>2026-09-02T22:08:55Z</time>
  <course>53.43</course>
  <speed>0.9</speed>
  <fix>3d</fix>
</trkpt>
<trkpt lat="33.810415" lon="-118.3943242">
  <ele>-25.011</ele>
  <time>2026-09-02T22:08:55Z</time>
  <course>50.87</course>
  <speed>0.904267659490264</speed>
  <fix>3d</fix>
</trkpt>
<trkpt lat="33.8104141" lon="-118.3943252">
  <ele>-24.4</ele>
  <time>2026-09-02T22:08:55Z</time>
  <course>53.37</course>
  <speed>0.9</speed>
  <fix>3d</fix>
</trkpt>
<trkpt lat="33.8104155" lon="-118.3943234">
  <ele>-25.012</ele>
  <time>2026-09-02T22:08:55Z</time>
  <course>50.87</course>
  <speed>0.910494371207203</speed>
  <fix>3d</fix>
</trkpt>
<trkpt lat="33.8104141" lon="-118.3943252">
  <ele>-24.4</ele>
  <time>2026-09-02T22:08:55Z</time>
  <course>53.37</course>
  <speed>0.9</speed>
  <fix>3d</fix>
</trkpt>
<trkpt lat="33.810416" lon="-118.3943227">
  <ele>-25.011</ele>
  <time>2026-09-02T22:08:55Z</time>
  <course>50.87</course>
  <speed>0.918313671900838</speed>
  <fix>3d</fix>
</trkpt>
<trkpt lat="33.8104151" lon="-118.3943236">
  <ele>-24.4</ele>
  <time>2026-09-02T22:08:55Z</time>
  <course>53.34</course>
  <speed>0.9</speed>
  <fix>3d</fix>
</trkpt>
<trkpt lat="33.8104165" lon="-118.3943219">
  <ele>-25.011</ele>
  <time>2026-09-02T22:08:55Z</time>
  <course>50.88</course>
  <speed>0.918313671900838</speed>
  <fix>3d</fix>
</trkpt>
<trkpt lat="33.8104151" lon="-118.3943236">
  <ele>-24.4</ele>
  <time>2026-09-02T22:08:55Z</time>
  <course>53.34</course>
  <speed>0.9</speed>
  <fix>3d</fix>
</trkpt>
<trkpt lat="33.810417" lon="-118.3943211">
  <ele>-25.01</ele>
  <time>2026-09-02T22:08:55Z</time>
  <course>50.89</course>
  <speed>0.918313671900838</speed>
  <fix>3d</fix>
</trkpt>
<trkpt lat="33.8104161" lon="-118.394322">
  <ele>-24.4</ele>
  <time>2026-09-02T22:08:55Z</time>
  <course>53.33</course>
  <speed>0.9</speed>
  <fix>3d</fix>
</trkpt>
<trkpt lat="33.8104174" lon="-118.3943203">
  <ele>-25.008</ele>
  <time>2026-09-02T22:08:55Z</time>
  <course>50.9</course>
  <speed>0.918313671900838</speed>
  <fix>3d</fix>
</trkpt>
<trkpt lat="33.8104161" lon="-118.394322">
  <ele>-24.4</ele>
  <time>2026-09-02T22:08:55Z</time>
  <course>53.33</course>
  <speed>0.9</speed>
  <fix>3d</fix>
</trkpt>
<trkpt lat="33.8104179" lon="-118.3943195">
  <ele>-25.005</ele>
  <time>2026-09-02T22:08:55Z</time>
  <course>50.92</course>
  <speed>0.918313671900838</speed>
  <fix>3d</fix>
</trkpt>
<trkpt lat="33.810417" lon="-118.3943205">
  <ele>-24.4</ele>
  <time>2026-09-02T22:08:55Z</time>
  <course>53.32</course>
  <speed>0.9</speed>
  <fix>3d</fix>
</trkpt>
<trkpt lat="33.8104184" lon="-118.3943187">
  <ele>-25.003</ele>
  <time>2026-09-02T22:08:55Z</time>
  <course>50.94</course>
  <speed>0.918313671900838</speed>
  <fix>3d</fix>
</trkpt>
<trkpt lat="33.810417" lon="-118.3943205">
  <ele>-24.4</ele>
  <time>2026-09-02T22:08:55Z</time>
  <course>53.32</course>
  <speed>0.9</speed>
  <fix>3d</fix>
</trkpt>
<trkpt lat="33.8104189" lon="-118.3943179">
  <ele>-25.003</ele>
  <time>2026-09-02T22:08:55Z</time>
  <course>50.95</course>
  <speed>0.918313671900838</speed>
  <fix>3d</fix>
</trkpt>
<trkpt lat="33.8104181" lon="-118.3943189">
  <ele>-24.4</ele>
  <time>2026-09-02T22:08:55Z</time>
  <course>53.32</course>
  <speed>0.9</speed>
  <fix>3d</fix>
</trkpt>
<trkpt lat="33.8104194" lon="-118.3943171">
  <ele>-25.004</ele>
  <time>2026-09-02T22:08:55Z</time>
  <course>50.97</course>
  <speed>0.918313671900838</speed>
  <fix>3d</fix>
</trkpt>
<trkpt lat="33.8104181" lon="-118.3943189">
  <ele>-24.4</ele>
  <time>2026-09-02T22:08:55Z</time>
  <course>53.32</course>
  <speed>0.9</speed>
  <fix>3d</fix>
</trkpt>
<trkpt lat="33.8104199" lon="-118.3943163">
  <ele>-25.005</ele>
  <time>2026-09-02T22:08:55Z</time>
  <course>51.01</course>
  <speed>0.918313671900838</speed>
  <fix>3d</fix>
</trkpt>
<trkpt lat="33.810419" lon="-118.3943172">
  <ele>-24.4</ele>
  <time>2026-09-02T22:08:55Z</time>
  <course>53.35</course>
  <speed>0.91</speed>
  <fix>3d</fix>
</trkpt>
<trkpt lat="33.8104204" lon="-118.3943155">
  <ele>-25.006</ele>
  <time>2026-09-02T22:08:55Z</time>
  <course>51.05</course>
  <speed>0.918313671900838</speed>
  <fix>3d</fix>
</trkpt>
<trkpt lat="33.810419" lon="-118.3943172">
  <ele>-24.4</ele>
  <time>2026-09-02T22:08:55Z</time>
  <course>53.35</course>
  <speed>0.91</speed>
  <fix>3d</fix>
</trkpt>
<trkpt lat="33.8104209" lon="-118.3943148">
  <ele>-25.008</ele>
  <time>2026-09-02T22:08:55Z</time>
  <course>51.08</course>
  <speed>0.918313671900838</speed>
  <fix>3d</fix>
</trkpt>
<trkpt lat="33.81042" lon="-118.3943157">
  <ele>-24.4</ele>
  <time>2026-09-02T22:08:55Z</time>
  <course>53.38</course>
  <speed>0.91</speed>
  <fix>3d</fix>
</trkpt>
<trkpt lat="33.8104214" lon="-118.394314">
  <ele>-25.01</ele>
  <time>2026-09-02T22:08:55Z</time>
  <course>51.09</course>
  <speed>0.918313671900838</speed>
  <fix>3d</fix>
</trkpt>
<trkpt lat="33.81042" lon="-118.3943157">
  <ele>-24.4</ele>
  <time>2026-09-02T22:08:55Z</time>
  <course>53.38</course>
  <speed>0.91</speed>
  <fix>3d</fix>
</trkpt>
<trkpt lat="33.8104218" lon="-118.3943132">
  <ele>-25.012</ele>
  <time>2026-09-02T22:08:55Z</time>
  <course>51.09</course>
  <speed>0.918313671900838</speed>
  <fix>3d</fix>
</trkpt>
<trkpt lat="33.810421" lon="-118.3943142">
  <ele>-24.41</ele>
  <time>2026-09-02T22:08:55Z</time>
  <course>53.35</course>
  <speed>0.91</speed>
  <fix>3d</fix>
</trkpt>
<trkpt lat="33.8104223" lon="-118.3943124">
  <ele>-25.012</ele>
  <time>2026-09-02T22:08:55Z</time>
  <course>51.12</course>
  <speed>0.918313671900838</speed>
  <fix>3d</fix>
</trkpt>
<trkpt lat="33.810421" lon="-118.3943142">
  <ele>-24.41</ele>
  <time>2026-09-02T22:08:55Z</time>
  <course>53.35</course>
  <speed>0.91</speed>
  <fix>3d</fix>
</trkpt>
<trkpt lat="33.8104228" lon="-118.3943116">
  <ele>-25.012</ele>
  <time>2026-09-02T22:08:55Z</time>
  <course>51.15</course>
  <speed>0.9261749294814667</speed>
  <fix>3d</fix>
</trkpt>
<trkpt lat="33.810422" lon="-118.3943126">
  <ele>-24.41</ele>
  <time>2026-09-02T22:08:55Z</time>
  <course>53.4</course>
  <speed>0.91</speed>
  <fix>3d</fix>
</trkpt>
<trkpt lat="33.8104233" lon="-118.3943108">
  <ele>-25.013</ele>
  <time>2026-09-02T22:08:55Z</time>
  <course>51.2</course>
  <speed>0.9261749294814667</speed>
  <fix>3d</fix>
</trkpt>
<trkpt lat="33.810422" lon="-118.3943126">
  <ele>-24.41</ele>
  <time>2026-09-02T22:08:55Z</time>
  <course>53.4</course>
  <speed>0.91</speed>
  <fix>3d</fix>
</trkpt>
<trkpt lat="33.8104238" lon="-118.39431">
  <ele>-25.012</ele>
  <time>2026-09-02T22:08:55Z</time>
  <course>51.25</course>
  <speed>0.9261749294814667</speed>
  <fix>3d</fix>
</trkpt>
<trkpt lat="33.810423" lon="-118.3943109">
  <ele>-24.41</ele>
  <time>2026-09-02T22:08:55Z</time>
  <course>53.49</course>
  <speed>0.91</speed>
  <fix>3d</fix>
</trkpt>
<trkpt lat="33.8104243" lon="-118.3943092">
  <ele>-25.013</ele>
  <time>2026-09-02T22:08:55Z</time>
  <course>51.31</course>
  <speed>0.9261749294814667</speed>
  <fix>3d</fix>
</trkpt>
<trkpt lat="33.810423" lon="-118.3943109">
  <ele>-24.41</ele>
  <time>2026-09-02T22:08:55Z</time>
  <course>53.49</course>
  <speed>0.91</speed>
  <fix>3d</fix>
</trkpt>
<trkpt lat="33.8104248" lon="-118.3943084">
  <ele>-25.013</ele>
  <time>2026-09-02T22:08:55Z</time>
  <course>51.35</course>
  <speed>0.9261749294814667</speed>
  <fix>3d</fix>
</trkpt>
<trkpt lat="33.8104239" lon="-118.3943094">
  <ele>-24.41</ele>
  <time>2026-09-02T22:08:55Z</time>
  <course>53.55</course>
  <speed>0.91</speed>
  <fix>3d</fix>
</trkpt>
<trkpt lat="33.8104253" lon="-118.3943076">
  <ele>-25.013</ele>
  <time>2026-09-02T22:08:55Z</time>
  <course>51.38</course>
  <speed>0.9261749294814667</speed>
  <fix>3d</fix>
</trkpt>
<trkpt lat="33.8104239" lon="-118.3943094">
  <ele>-24.41</ele>
  <time>2026-09-02T22:08:55Z</time>
  <course>53.55</course>
  <speed>0.91</speed>
  <fix>3d</fix>
</trkpt>
<trkpt lat="33.8104258" lon="-118.3943068">
  <ele>-25.012</ele>
  <time>2026-09-02T22:08:55Z</time>
  <course>51.39</course>
  <speed>0.9261749294814667</speed>
  <fix>3d</fix>
</trkpt>
<trkpt lat="33.8104249" lon="-118.3943078">
  <ele>-24.41</ele>
  <time>2026-09-02T22:08:55Z</time>
  <course>53.58</course>
  <speed>0.91</speed>
  <fix>3d</fix>
</trkpt>
<trkpt lat="33.8104263" lon="-118.394306">
  <ele>-25.011</ele>
  <time>2026-09-02T22:08:55Z</time>
  <course>51.41</course>
  <speed>0.9261749294814667</speed>
  <fix>3d</fix>
</trkpt>
<trkpt lat="33.8104249" lon="-118.3943078">
  <ele>-24.41</ele>
  <time>2026-09-02T22:08:55Z</time>
  <course>53.58</course>
  <speed>0.91</speed>
  <fix>3d</fix>
</trkpt>
<trkpt lat="33.8104268" lon="-118.3943052">
  <ele>-25.01</ele>
  <time>2026-09-02T22:08:55Z</time>
  <course>51.42</course>
  <speed>0.9261749294814667</speed>
  <fix>3d</fix>
</trkpt>
<trkpt lat="33.8104259" lon="-118.3943062">
  <ele>-24.41</ele>
  <time>2026-09-02T22:08:55Z</time>
  <course>53.56</course>
  <speed>0.91</speed>
  <fix>3d</fix>
</trkpt>
<trkpt lat="33.8104273" lon="-118.3943044">
  <ele>-25.011</ele>
  <time>2026-09-02T22:08:55Z</time>
  <course>51.43</course>
  <speed>0.9323625904121208</speed>
  <fix>3d</fix>
</trkpt>
<trkpt lat="33.8104259" lon="-118.3943062">
  <ele>-24.41</ele>
  <time>2026-09-02T22:08:55Z</time>
  <course>53.56</course>
  <speed>0.91</speed>
  <fix>3d</fix>
</trkpt>
<trkpt lat="33.8104278" lon="-118.3943036">
  <ele>-25.011</ele>
  <time>2026-09-02T22:08:55Z</time>
  <course>51.45</course>
  <speed>0.9323625904121208</speed>
  <fix>3d</fix>
</trkpt>
<trkpt lat="33.8104268" lon="-118.3943046">
  <ele>-24.41</ele>
  <time>2026-09-02T22:08:55Z</time>
  <course>53.56</course>
  <speed>0.92</speed>
  <fix>3d</fix>
</trkpt>
<trkpt lat="33.8104283" lon="-118.3943028">
  <ele>-25.011</ele>
  <time>2026-09-02T22:08:55Z</time>
  <course>51.46</course>
  <speed>0.9323625904121208</speed>
  <fix>3d</fix>
</trkpt>
<trkpt lat="33.8104268" lon="-118.3943046">
  <ele>-24.41</ele>
  <time>2026-09-02T22:08:55Z</time>
  <course>53.56</course>
  <speed>0.92</speed>
  <fix>3d</fix>
</trkpt>
<trkpt lat="33.8104288" lon="-118.394302">
  <ele>-25.012</ele>
  <time>2026-09-02T22:08:55Z</time>
  <course>51.45</course>
  <speed>0.9402127418834527</speed>
  <fix>3d</fix>
</trkpt>
<trkpt lat="33.8104279" lon="-118.394303">
  <ele>-24.41</ele>
  <time>2026-09-02T22:08:55Z</time>
  <course>53.54</course>
  <speed>0.92</speed>
  <fix>3d</fix>
</trkpt>
<trkpt lat="33.8104292" lon="-118.3943012">
  <ele>-25.012</ele>
  <time>2026-09-02T22:08:55Z</time>
  <course>51.45</course>
  <speed>0.9402127418834527</speed>
  <fix>3d</fix>
</trkpt>
<trkpt lat="33.8104279" lon="-118.394303">
  <ele>-24.41</ele>
  <time>2026-09-02T22:08:55Z</time>
  <course>53.54</course>
  <speed>0.92</speed>
  <fix>3d</fix>
</trkpt>
<trkpt lat="33.8104297" lon="-118.3943004">
  <ele>-25.012</ele>
  <time>2026-09-02T22:08:55Z</time>
  <course>51.45</course>
  <speed>0.9402127418834527</speed>
  <fix>3d</fix>
</trkpt>
<trkpt lat="33.8104289" lon="-118.3943014">
  <ele>-24.41</ele>
  <time>2026-09-02T22:08:55Z</time>
  <course>53.52</course>
  <speed>0.92</speed>
  <fix>3d</fix>
</trkpt>
<trkpt lat="33.8104302" lon="-118.3942996">
  <ele>-25.012</ele>
  <time>2026-09-02T22:08:55Z</time>
  <course>51.48</course>
  <speed>0.9402127418834527</speed>
  <fix>3d</fix>
</trkpt>
<trkpt lat="33.8104289" lon="-118.3943014">
  <ele>-24.41</ele>
  <time>2026-09-02T22:08:55Z</time>
  <course>53.52</course>
  <speed>0.92</speed>
  <fix>3d</fix>
</trkpt>
<trkpt lat="33.8104307" lon="-118.3942987">
  <ele>-25.011</ele>
  <time>2026-09-02T22:08:55Z</time>
  <course>51.51</course>
  <speed>0.9402127418834527</speed>
  <fix>3d</fix>
</trkpt>
<trkpt lat="33.8104298" lon="-118.3942998">
  <ele>-24.4</ele>
  <time>2026-09-02T22:08:55Z</time>
  <course>53.57</course>
  <speed>0.92</speed>
  <fix>3d</fix>
</trkpt>
<trkpt lat="33.8104312" lon="-118.3942979">
  <ele>-25.011</ele>
  <time>2026-09-02T22:08:55Z</time>
  <course>51.55</course>
  <speed>0.9402127418834527</speed>
  <fix>3d</fix>
</trkpt>
<trkpt lat="33.8104298" lon="-118.3942998">
  <ele>-24.4</ele>
  <time>2026-09-02T22:08:55Z</time>
  <course>53.57</course>
  <speed>0.92</speed>
  <fix>3d</fix>
</trkpt>
<trkpt lat="33.8104317" lon="-118.3942971">
  <ele>-25.012</ele>
  <time>2026-09-02T22:08:55Z</time>
  <course>51.57</course>
  <speed>0.9402127418834527</speed>
  <fix>3d</fix>
</trkpt>
<trkpt lat="33.8104308" lon="-118.3942982">
  <ele>-24.4</ele>
  <time>2026-09-02T22:08:55Z</time>
  <course>53.61</course>
  <speed>0.92</speed>
  <fix>3d</fix>
</trkpt>
<trkpt lat="33.8104322" lon="-118.3942963">
  <ele>-25.012</ele>
  <time>2026-09-02T22:08:55Z</time>
  <course>51.57</course>
  <speed>0.9402127418834527</speed>
  <fix>3d</fix>
</trkpt>
<trkpt lat="33.8104308" lon="-118.3942982">
  <ele>-24.4</ele>
  <time>2026-09-02T22:08:55Z</time>
  <course>53.61</course>
  <speed>0.92</speed>
  <fix>3d</fix>
</trkpt>
<trkpt lat="33.8104327" lon="-118.3942955">
  <ele>-25.011</ele>
  <time>2026-09-02T22:08:55Z</time>
  <course>51.57</course>
  <speed>0.9402127418834527</speed>
  <fix>3d</fix>
</trkpt>
<trkpt lat="33.8104317" lon="-118.3942965">
  <ele>-24.4</ele>
  <time>2026-09-02T22:08:55Z</time>
  <course>53.59</course>
  <speed>0.93</speed>
  <fix>3d</fix>
</trkpt>
<trkpt lat="33.8104332" lon="-118.3942947">
  <ele>-25.01</ele>
  <time>2026-09-02T22:08:55Z</time>
  <course>51.56</course>
  <speed>0.9402127418834527</speed>
  <fix>3d</fix>
</trkpt>
<trkpt lat="33.8104317" lon="-118.3942965">
  <ele>-24.4</ele>
  <time>2026-09-02T22:08:55Z</time>
  <course>53.59</course>
  <speed>0.93</speed>
  <fix>3d</fix>
</trkpt>
<trkpt lat="33.8104337" lon="-118.3942939">
  <ele>-25.008</ele>
  <time>2026-09-02T22:08:55Z</time>
  <course>51.52</course>
  <speed>0.9402127418834527</speed>
  <fix>3d</fix>
</trkpt>
<trkpt lat="33.8104328" lon="-118.3942949">
  <ele>-24.4</ele>
  <time>2026-09-02T22:08:55Z</time>
  <course>53.51</course>
  <speed>0.93</speed>
  <fix>3d</fix>
</trkpt>
<trkpt lat="33.8104342" lon="-118.3942931">
  <ele>-25.005</ele>
  <time>2026-09-02T22:08:55Z</time>
  <course>51.48</course>
  <speed>0.9464142856064675</speed>
  <fix>3d</fix>
</trkpt>
<trkpt lat="33.8104328" lon="-118.3942949">
  <ele>-24.4</ele>
  <time>2026-09-02T22:08:55Z</time>
  <course>53.51</course>
  <speed>0.93</speed>
  <fix>3d</fix>
</trkpt>
<trkpt lat="33.8104347" lon="-118.3942923">
  <ele>-25.003</ele>
  <time>2026-09-02T22:08:55Z</time>
  <course>51.44</course>
  <speed>0.9464142856064675</speed>
  <fix>3d</fix>
</trkpt>
<trkpt lat="33.8104338" lon="-118.3942932">
  <ele>-24.4</ele>
  <time>2026-09-02T22:08:55Z</time>
  <course>53.4</course>
  <speed>0.93</speed>
  <fix>3d</fix>
</trkpt>
<trkpt lat="33.8104352" lon="-118.3942914">
  <ele>-25.002</ele>
  <time>2026-09-02T22:08:55Z</time>
  <course>51.42</course>
  <speed>0.9464142856064675</speed>
  <fix>3d</fix>
</trkpt>
<trkpt lat="33.8104338" lon="-118.3942932">
  <ele>-24.4</ele>
  <time>2026-09-02T22:08:55Z</time>
  <course>53.4</course>
  <speed>0.93</speed>
  <fix>3d</fix>
</trkpt>
<trkpt lat="33.8104357" lon="-118.3942906">
  <ele>-25.003</ele>
  <time>2026-09-02T22:08:55Z</time>
  <course>51.39</course>
  <speed>0.9464142856064675</speed>
  <fix>3d</fix>
</trkpt>
<trkpt lat="33.8104347" lon="-118.3942917">
  <ele>-24.4</ele>
  <time>2026-09-02T22:08:55Z</time>
  <course>53.34</course>
  <speed>0.93</speed>
  <fix>3d</fix>
</trkpt>
<trkpt lat="33.8104362" lon="-118.3942898">
  <ele>-25.006</ele>
  <time>2026-09-02T22:08:55Z</time>
  <course>51.37</course>
  <speed>0.9464142856064675</speed>
  <fix>3d</fix>
</trkpt>
<trkpt lat="33.8104347" lon="-118.3942917">
  <ele>-24.4</ele>
  <time>2026-09-02T22:08:55Z</time>
  <course>53.34</course>
  <speed>0.93</speed>
  <fix>3d</fix>
</trkpt>
<trkpt lat="33.8104367" lon="-118.394289">
  <ele>-25.009</ele>
  <time>2026-09-02T22:08:55Z</time>
  <course>51.35</course>
  <speed>0.9464142856064675</speed>
  <fix>3d</fix>
</trkpt>
<trkpt lat="33.8104358" lon="-118.39429">
  <ele>-24.4</ele>
  <time>2026-09-02T22:08:55Z</time>
  <course>53.29</course>
  <speed>0.93</speed>
  <fix>3d</fix>
</trkpt>
<trkpt lat="33.8104372" lon="-118.3942882">
  <ele>-25.011</ele>
  <time>2026-09-02T22:08:55Z</time>
  <course>51.34</course>
  <speed>0.9464142856064675</speed>
  <fix>3d</fix>
</trkpt>
<trkpt lat="33.8104358" lon="-118.39429">
  <ele>-24.4</ele>
  <time>2026-09-02T22:08:55Z</time>
  <course>53.29</course>
  <speed>0.93</speed>
  <fix>3d</fix>
</trkpt>
<trkpt lat="33.8104377" lon="-118.3942874">
  <ele>-25.014</ele>
  <time>2026-09-02T22:08:55Z</time>
  <course>51.34</course>
  <speed>0.9542536350467836</speed>
  <fix>3d</fix>
</trkpt>
<trkpt lat="33.8104368" lon="-118.3942884">
  <ele>-24.41</ele>
  <time>2026-09-02T22:08:55Z</time>
  <course>53.27</course>
  <speed>0.93</speed>
  <fix>3d</fix>
</trkpt>
<trkpt lat="33.8104382" lon="-118.3942865">
  <ele>-25.017</ele>
  <time>2026-09-02T22:08:55Z</time>
  <course>51.35</course>
  <speed>0.9542536350467836</speed>
  <fix>3d</fix>
</trkpt>
<trkpt lat="33.8104368" lon="-118.3942884">
  <ele>-24.41</ele>
  <time>2026-09-02T22:08:55Z</time>
  <course>53.27</course>
  <speed>0.93</speed>
  <fix>3d</fix>
</trkpt>
<trkpt lat="33.8104387" lon="-118.3942857">
  <ele>-25.019</ele>
  <time>2026-09-02T22:08:55Z</time>
  <course>51.36</course>
  <speed>0.9542536350467836</speed>
  <fix>3d</fix>
</trkpt>
<trkpt lat="33.8104378" lon="-118.3942868">
  <ele>-24.41</ele>
  <time>2026-09-02T22:08:55Z</time>
  <course>53.28</course>
  <speed>0.94</speed>
  <fix>3d</fix>
</trkpt>
<trkpt lat="33.8104392" lon="-118.3942849">
  <ele>-25.021</ele>
  <time>2026-09-02T22:08:55Z</time>
  <course>51.38</course>
  <speed>0.9542536350467836</speed>
  <fix>3d</fix>
</trkpt>
<trkpt lat="33.8104378" lon="-118.3942868">
  <ele>-24.41</ele>
  <time>2026-09-02T22:08:55Z</time>
  <course>53.28</course>
  <speed>0.94</speed>
  <fix>3d</fix>
</trkpt>
<trkpt lat="33.8104397" lon="-118.3942841">
  <ele>-25.021</ele>
  <time>2026-09-02T22:08:55Z</time>
  <course>51.4</course>
  <speed>0.9542536350467836</speed>
  <fix>3d</fix>
</trkpt>
<trkpt lat="33.8104388" lon="-118.3942851">
  <ele>-24.41</ele>
  <time>2026-09-02T22:08:55Z</time>
  <course>53.31</course>
  <speed>0.94</speed>
  <fix>3d</fix>
</trkpt>
<trkpt lat="33.8104403" lon="-118.3942833">
  <ele>-25.02</ele>
  <time>2026-09-02T22:08:55Z</time>
  <course>51.43</course>
  <speed>0.9542536350467836</speed>
  <fix>3d</fix>
</trkpt>
<trkpt lat="33.8104388" lon="-118.3942851">
  <ele>-24.41</ele>
  <time>2026-09-02T22:08:55Z</time>
  <course>53.31</course>
  <speed>0.94</speed>
  <fix>3d</fix>
</trkpt>
<trkpt lat="33.8104408" lon="-118.3942825">
  <ele>-25.018</ele>
  <time>2026-09-02T22:08:55Z</time>
  <course>51.44</course>
  <speed>0.9542536350467836</speed>
  <fix>3d</fix>
</trkpt>
<trkpt lat="33.8104399" lon="-118.3942835">
  <ele>-24.41</ele>
  <time>2026-09-02T22:08:55Z</time>
  <course>53.31</course>
  <speed>0.94</speed>
  <fix>3d</fix>
</trkpt>
<trkpt lat="33.8104413" lon="-118.3942816">
  <ele>-25.016</ele>
  <time>2026-09-02T22:08:55Z</time>
  <course>51.47</course>
  <speed>0.9542536350467836</speed>
  <fix>3d</fix>
</trkpt>
<trkpt lat="33.8104399" lon="-118.3942835">
  <ele>-24.41</ele>
  <time>2026-09-02T22:08:55Z</time>
  <course>53.31</course>
  <speed>0.94</speed>
  <fix>3d</fix>
</trkpt>
<trkpt lat="33.8104418" lon="-118.3942808">
  <ele>-25.013</ele>
  <time>2026-09-02T22:08:55Z</time>
  <course>51.5</course>
  <speed>0.9542536350467836</speed>
  <fix>3d</fix>
</trkpt>
<trkpt lat="33.8104409" lon="-118.3942819">
  <ele>-24.4</ele>
  <time>2026-09-02T22:08:55Z</time>
  <course>53.35</course>
  <speed>0.94</speed>
  <fix>3d</fix>
</trkpt>
<trkpt lat="33.8104423" lon="-118.39428">
  <ele>-25.008</ele>
  <time>2026-09-02T22:08:55Z</time>
  <course>51.55</course>
  <speed>0.9542536350467836</speed>
  <fix>3d</fix>
</trkpt>
<trkpt lat="33.8104409" lon="-118.3942819">
  <ele>-24.4</ele>
  <time>2026-09-02T22:08:55Z</time>
  <course>53.35</course>
  <speed>0.94</speed>
  <fix>3d</fix>
</trkpt>
<trkpt lat="33.8104428" lon="-118.3942792">
  <ele>-25.004</ele>
  <time>2026-09-02T22:08:55Z</time>
  <course>51.6</course>
  <speed>0.9542536350467836</speed>
  <fix>3d</fix>
</trkpt>
<trkpt lat="33.8104419" lon="-118.3942802">
  <ele>-24.39</ele>
  <time>2026-09-02T22:08:55Z</time>
  <course>53.43</course>
  <speed>0.94</speed>
  <fix>3d</fix>
</trkpt>
<trkpt lat="33.8104433" lon="-118.3942783">
  <ele>-25.002</ele>
  <time>2026-09-02T22:08:55Z</time>
  <course>51.65</course>
  <speed>0.9542536350467836</speed>
  <fix>3d</fix>
</trkpt>
<trkpt lat="33.8104419" lon="-118.3942802">
  <ele>-24.39</ele>
  <time>2026-09-02T22:08:55Z</time>
  <course>53.43</course>
  <speed>0.94</speed>
  <fix>3d</fix>
</trkpt>
<trkpt lat="33.8104438" lon="-118.3942775">
  <ele>-25.003</ele>
  <time>2026-09-02T22:08:55Z</time>
  <course>51.69</course>
  <speed>0.9542536350467836</speed>
  <fix>3d</fix>
</trkpt>
<trkpt lat="33.8104429" lon="-118.3942786">
  <ele>-24.39</ele>
  <time>2026-09-02T22:08:55Z</time>
  <course>53.5</course>
  <speed>0.94</speed>
  <fix>3d</fix>
</trkpt>
<trkpt lat="33.8104443" lon="-118.3942767">
  <ele>-25.004</ele>
  <time>2026-09-02T22:08:55Z</time>
  <course>51.72</course>
  <speed>0.9542536350467836</speed>
  <fix>3d</fix>
</trkpt>
<trkpt lat="33.8104429" lon="-118.3942786">
  <ele>-24.39</ele>
  <time>2026-09-02T22:08:55Z</time>
  <course>53.5</course>
  <speed>0.94</speed>
  <fix>3d</fix>
</trkpt>
<trkpt lat="33.8104448" lon="-118.3942759">
  <ele>-25.005</ele>
  <time>2026-09-02T22:08:55Z</time>
  <course>51.74</course>
  <speed>0.9542536350467836</speed>
  <fix>3d</fix>
</trkpt>
<trkpt lat="33.8104438" lon="-118.3942769">
  <ele>-24.39</ele>
  <time>2026-09-02T22:08:55Z</time>
  <course>53.54</course>
  <speed>0.94</speed>
  <fix>3d</fix>
</trkpt>
<trkpt lat="33.8104453" lon="-118.3942751">
  <ele>-25.005</ele>
  <time>2026-09-02T22:08:55Z</time>
  <course>51.77</course>
  <speed>0.9542536350467836</speed>
  <fix>3d</fix>
</trkpt>
<trkpt lat="33.8104438" lon="-118.3942769">
  <ele>-24.39</ele>
  <time>2026-09-02T22:08:55Z</time>
  <course>53.54</course>
  <speed>0.94</speed>
  <fix>3d</fix>
</trkpt>
<trkpt lat="33.8104458" lon="-118.3942742">
  <ele>-25.005</ele>
  <time>2026-09-02T22:08:55Z</time>
  <course>51.75</course>
  <speed>0.9542536350467836</speed>
  <fix>3d</fix>
</trkpt>
<trkpt lat="33.8104449" lon="-118.3942753">
  <ele>-24.39</ele>
  <time>2026-09-02T22:08:55Z</time>
  <course>53.5</course>
  <speed>0.94</speed>
  <fix>3d</fix>
</trkpt>
<trkpt lat="33.8104463" lon="-118.3942734">
  <ele>-25.006</ele>
  <time>2026-09-02T22:08:55Z</time>
  <course>51.72</course>
  <speed>0.9542536350467836</speed>
  <fix>3d</fix>
</trkpt>
<trkpt lat="33.8104449" lon="-118.3942753">
  <ele>-24.39</ele>
  <time>2026-09-02T22:08:55Z</time>
  <course>53.5</course>
  <speed>0.94</speed>
  <fix>3d</fix>
</trkpt>
<trkpt lat="33.8104468" lon="-118.3942726">
  <ele>-25.007</ele>
  <time>2026-09-02T22:08:55Z</time>
  <course>51.7</course>
  <speed>0.9621330469326995</speed>
  <fix>3d</fix>
</trkpt>
<trkpt lat="33.8104459" lon="-118.3942736">
  <ele>-24.4</ele>
  <time>2026-09-02T22:08:55Z</time>
  <course>53.42</course>
  <speed>0.94</speed>
  <fix>3d</fix>
</trkpt>
<trkpt lat="33.8104474" lon="-118.3942717">
  <ele>-25.007</ele>
  <time>2026-09-02T22:08:55Z</time>
  <course>51.69</course>
  <speed>0.9621330469326995</speed>
  <fix>3d</fix>
</trkpt>
<trkpt lat="33.8104459" lon="-118.3942736">
  <ele>-24.4</ele>
  <time>2026-09-02T22:08:55Z</time>
  <course>53.42</course>
  <speed>0.94</speed>
  <fix>3d</fix>
</trkpt>
<trkpt lat="33.8104479" lon="-118.3942709">
  <ele>-25.007</ele>
  <time>2026-09-02T22:08:55Z</time>
  <course>51.68</course>
  <speed>0.9621330469326995</speed>
  <fix>3d</fix>
</trkpt>
<trkpt lat="33.8104469" lon="-118.394272">
  <ele>-24.4</ele>
  <time>2026-09-02T22:08:55Z</time>
  <course>53.39</course>
  <speed>0.94</speed>
  <fix>3d</fix>
</trkpt>
<trkpt lat="33.8104484" lon="-118.3942701">
  <ele>-25.006</ele>
  <time>2026-09-02T22:08:55Z</time>
  <course>51.68</course>
  <speed>0.9621330469326995</speed>
  <fix>3d</fix>
</trkpt>
<trkpt lat="33.8104469" lon="-118.394272">
  <ele>-24.4</ele>
  <time>2026-09-02T22:08:55Z</time>
  <course>53.39</course>
  <speed>0.94</speed>
  <fix>3d</fix>
</trkpt>
<trkpt lat="33.8104489" lon="-118.3942693">
  <ele>-25.005</ele>
  <time>2026-09-02T22:08:55Z</time>
  <course>51.67</course>
  <speed>0.9621330469326995</speed>
  <fix>3d</fix>
</trkpt>
<trkpt lat="33.8104479" lon="-118.3942704">
  <ele>-24.4</ele>
  <time>2026-09-02T22:08:55Z</time>
  <course>53.37</course>
  <speed>0.95</speed>
  <fix>3d</fix>
</trkpt>
<trkpt lat="33.8104494" lon="-118.3942684">
  <ele>-25.004</ele>
  <time>2026-09-02T22:08:55Z</time>
  <course>51.67</course>
  <speed>0.9682974749528164</speed>
  <fix>3d</fix>
</trkpt>
<trkpt lat="33.8104479" lon="-118.3942704">
  <ele>-24.4</ele>
  <time>2026-09-02T22:08:55Z</time>
  <course>53.37</course>
  <speed>0.95</speed>
  <fix>3d</fix>
</trkpt>
<trkpt lat="33.8104499" lon="-118.3942676">
  <ele>-25.004</ele>
  <time>2026-09-02T22:08:55Z</time>
  <course>51.67</course>
  <speed>0.9682974749528164</speed>
  <fix>3d</fix>
</trkpt>
<trkpt lat="33.810449" lon="-118.3942687">
  <ele>-24.4</ele>
  <time>2026-09-02T22:08:55Z</time>
  <course>53.36</course>
  <speed>0.95</speed>
  <fix>3d</fix>
</trkpt>
<trkpt lat="33.8104504" lon="-118.3942668">
  <ele>-25.005</ele>
  <time>2026-09-02T22:08:55Z</time>
  <course>51.69</course>
  <speed>0.9682974749528164</speed>
  <fix>3d</fix>
</trkpt>
<trkpt lat="33.810449" lon="-118.3942687">
  <ele>-24.4</ele>
  <time>2026-09-02T22:08:55Z</time>
  <course>53.36</course>
  <speed>0.95</speed>
  <fix>3d</fix>
</trkpt>
<trkpt lat="33.8104509" lon="-118.3942659">
  <ele>-25.007</ele>
  <time>2026-09-02T22:08:55Z</time>
  <course>51.72</course>
  <speed>0.9682974749528164</speed>
  <fix>3d</fix>
</trkpt>
<trkpt lat="33.81045" lon="-118.394267">
  <ele>-24.4</ele>
  <time>2026-09-02T22:08:55Z</time>
  <course>53.39</course>
  <speed>0.95</speed>
  <fix>3d</fix>
</trkpt>
<trkpt lat="33.8104514" lon="-118.3942651">
  <ele>-25.008</ele>
  <time>2026-09-02T22:08:55Z</time>
  <course>51.75</course>
  <speed>0.9682974749528164</speed>
  <fix>3d</fix>
</trkpt>
<trkpt lat="33.81045" lon="-118.394267">
  <ele>-24.4</ele>
  <time>2026-09-02T22:08:55Z</time>
  <course>53.39</course>
  <speed>0.95</speed>
  <fix>3d</fix>
</trkpt>
<trkpt lat="33.810452" lon="-118.3942643">
  <ele>-25.009</ele>
  <time>2026-09-02T22:08:55Z</time>
  <course>51.77</course>
  <speed>0.9682974749528164</speed>
  <fix>3d</fix>
</trkpt>
<trkpt lat="33.810451" lon="-118.3942654">
  <ele>-24.41</ele>
  <time>2026-09-02T22:08:55Z</time>
  <course>53.43</course>
  <speed>0.95</speed>
  <fix>3d</fix>
</trkpt>
<trkpt lat="33.8104525" lon="-118.3942635">
  <ele>-25.01</ele>
  <time>2026-09-02T22:08:55Z</time>
  <course>51.8</course>
  <speed>0.9682974749528164</speed>
  <fix>3d</fix>
</trkpt>
<trkpt lat="33.810451" lon="-118.3942654">
  <ele>-24.41</ele>
  <time>2026-09-02T22:08:55Z</time>
  <course>53.43</course>
  <speed>0.95</speed>
  <fix>3d</fix>
</trkpt>
<trkpt lat="33.810453" lon="-118.3942626">
  <ele>-25.011</ele>
  <time>2026-09-02T22:08:55Z</time>
  <course>51.81</course>
  <speed>0.9682974749528164</speed>
  <fix>3d</fix>
</trkpt>
<trkpt lat="33.8104521" lon="-118.3942637">
  <ele>-24.41</ele>
  <time>2026-09-02T22:08:55Z</time>
  <course>53.42</course>
  <speed>0.95</speed>
  <fix>3d</fix>
</trkpt>
<trkpt lat="33.8104535" lon="-118.3942618">
  <ele>-25.011</ele>
  <time>2026-09-02T22:08:55Z</time>
  <course>51.82</course>
  <speed>0.9682974749528164</speed>
  <fix>3d</fix>
</trkpt>
<trkpt lat="33.8104521" lon="-118.3942637">
  <ele>-24.41</ele>
  <time>2026-09-02T22:08:55Z</time>
  <course>53.42</course>
  <speed>0.95</speed>
  <fix>3d</fix>
</trkpt>
<trkpt lat="33.810454" lon="-118.394261">
  <ele>-25.012</ele>
  <time>2026-09-02T22:08:55Z</time>
  <course>51.85</course>
  <speed>0.9682974749528164</speed>
  <fix>3d</fix>
</trkpt>
<trkpt lat="33.810453" lon="-118.3942621">
  <ele>-24.41</ele>
  <time>2026-09-02T22:08:55Z</time>
  <course>53.45</course>
  <speed>0.95</speed>
  <fix>3d</fix>
</trkpt>
<trkpt lat="33.8104545" lon="-118.3942601">
  <ele>-25.011</ele>
  <time>2026-09-02T22:08:55Z</time>
  <course>51.87</course>
  <speed>0.9682974749528164</speed>
  <fix>3d</fix>
</trkpt>
<trkpt lat="33.810453" lon="-118.3942621">
  <ele>-24.41</ele>
  <time>2026-09-02T22:08:55Z</time>
  <course>53.45</course>
  <speed>0.95</speed>
  <fix>3d</fix>
</trkpt>
<trkpt lat="33.810455" lon="-118.3942593">
  <ele>-25.011</ele>
  <time>2026-09-02T22:08:55Z</time>
  <course>51.89</course>
  <speed>0.9761659694949419</speed>
  <fix>3d</fix>
</trkpt>
<trkpt lat="33.8104541" lon="-118.3942604">
  <ele>-24.41</ele>
  <time>2026-09-02T22:08:55Z</time>
  <course>53.49</course>
  <speed>0.95</speed>
  <fix>3d</fix>
</trkpt>
<trkpt lat="33.8104555" lon="-118.3942585">
  <ele>-25.01</ele>
  <time>2026-09-02T22:08:55Z</time>
  <course>51.91</course>
  <speed>0.9761659694949419</speed>
  <fix>3d</fix>
</trkpt>
<trkpt lat="33.8104541" lon="-118.3942604">
  <ele>-24.41</ele>
  <time>2026-09-02T22:08:55Z</time>
  <course>53.49</course>
  <speed>0.95</speed>
  <fix>3d</fix>
</trkpt>
<trkpt lat="33.8104561" lon="-118.3942576">
  <ele>-25.01</ele>
  <time>2026-09-02T22:08:55Z</time>
  <course>51.9</course>
  <speed>0.9761659694949419</speed>
  <fix>3d</fix>
</trkpt>
<trkpt lat="33.8104551" lon="-118.3942587">
  <ele>-24.41</ele>
  <time>2026-09-02T22:08:55Z</time>
  <course>53.5</course>
  <speed>0.96</speed>
  <fix>3d</fix>
</trkpt>
<trkpt lat="33.8104566" lon="-118.3942568">
  <ele>-25.009</ele>
  <time>2026-09-02T22:08:55Z</time>
  <course>51.92</course>
  <speed>0.9761659694949419</speed>
  <fix>3d</fix>
</trkpt>
<trkpt lat="33.8104551" lon="-118.3942587">
  <ele>-24.41</ele>
  <time>2026-09-02T22:08:55Z</time>
  <course>53.5</course>
  <speed>0.96</speed>
  <fix>3d</fix>
</trkpt>
<trkpt lat="33.8104571" lon="-118.3942559">
  <ele>-25.009</ele>
  <time>2026-09-02T22:08:55Z</time>
  <course>51.92</course>
  <speed>0.9761659694949419</speed>
  <fix>3d</fix>
</trkpt>
<trkpt lat="33.8104562" lon="-118.394257">
  <ele>-24.41</ele>
  <time>2026-09-02T22:08:55Z</time>
  <course>53.48</course>
  <speed>0.96</speed>
  <fix>3d</fix>
</trkpt>
<trkpt lat="33.8104576" lon="-118.3942551">
  <ele>-25.009</ele>
  <time>2026-09-02T22:08:55Z</time>
  <course>51.92</course>
  <speed>0.9761659694949419</speed>
  <fix>3d</fix>
</trkpt>
<trkpt lat="33.8104562" lon="-118.394257">
  <ele>-24.41</ele>
  <time>2026-09-02T22:08:55Z</time>
  <course>53.48</course>
  <speed>0.96</speed>
  <fix>3d</fix>
</trkpt>
<trkpt lat="33.8104581" lon="-118.3942543">
  <ele>-25.009</ele>
  <time>2026-09-02T22:08:55Z</time>
  <course>51.92</course>
  <speed>0.9761659694949419</speed>
  <fix>3d</fix>
</trkpt>
<trkpt lat="33.8104572" lon="-118.3942554">
  <ele>-24.41</ele>
  <time>2026-09-02T22:08:55Z</time>
  <course>53.48</course>
  <speed>0.96</speed>
  <fix>3d</fix>
</trkpt>
<trkpt lat="33.8104586" lon="-118.3942534">
  <ele>-25.01</ele>
  <time>2026-09-02T22:08:55Z</time>
  <course>51.94</course>
  <speed>0.9761659694949419</speed>
  <fix>3d</fix>
</trkpt>
<trkpt lat="33.8104572" lon="-118.3942554">
  <ele>-24.41</ele>
  <time>2026-09-02T22:08:55Z</time>
  <course>53.48</course>
  <speed>0.96</speed>
  <fix>3d</fix>
</trkpt>
<trkpt lat="33.8104592" lon="-118.3942526">
  <ele>-25.01</ele>
  <time>2026-09-02T22:08:55Z</time>
  <course>51.96</course>
  <speed>0.9761659694949419</speed>
  <fix>3d</fix>
</trkpt>
<trkpt lat="33.8104582" lon="-118.3942537">
  <ele>-24.41</ele>
  <time>2026-09-02T22:08:55Z</time>
  <course>53.52</course>
  <speed>0.96</speed>
  <fix>3d</fix>
</trkpt>
<trkpt lat="33.8104597" lon="-118.3942517">
  <ele>-25.01</ele>
  <time>2026-09-02T22:08:55Z</time>
  <course>51.98</course>
  <speed>0.9761659694949419</speed>
  <fix>3d</fix>
</trkpt>
<trkpt lat="33.8104582" lon="-118.3942537">
  <ele>-24.41</ele>
  <time>2026-09-02T22:08:55Z</time>
  <course>53.52</course>
  <speed>0.96</speed>
  <fix>3d</fix>
</trkpt>
<trkpt lat="33.8104602" lon="-118.3942509">
  <ele>-25.011</ele>
  <time>2026-09-02T22:08:55Z</time>
  <course>51.99</course>
  <speed>0.9761659694949419</speed>
  <fix>3d</fix>
</trkpt>
<trkpt lat="33.8104592" lon="-118.394252">
  <ele>-24.41</ele>
  <time>2026-09-02T22:08:55Z</time>
  <course>53.53</course>
  <speed>0.96</speed>
  <fix>3d</fix>
</trkpt>
<trkpt lat="33.8104607" lon="-118.3942501">
  <ele>-25.012</ele>
  <time>2026-09-02T22:08:55Z</time>
  <course>52.0</course>
  <speed>0.9761659694949419</speed>
  <fix>3d</fix>
</trkpt>
<trkpt lat="33.8104592" lon="-118.394252">
  <ele>-24.41</ele>
  <time>2026-09-02T22:08:55Z</time>
  <course>53.53</course>
  <speed>0.96</speed>
  <fix>3d</fix>
</trkpt>
<trkpt lat="33.8104612" lon="-118.3942492">
  <ele>-25.013</ele>
  <time>2026-09-02T22:08:55Z</time>
  <course>51.98</course>
  <speed>0.9761659694949419</speed>
  <fix>3d</fix>
</trkpt>
<trkpt lat="33.8104603" lon="-118.3942504">
  <ele>-24.41</ele>
  <time>2026-09-02T22:08:55Z</time>
  <course>53.52</course>
  <speed>0.96</speed>
  <fix>3d</fix>
</trkpt>
<trkpt lat="33.8104617" lon="-118.3942484">
  <ele>-25.014</ele>
  <time>2026-09-02T22:08:55Z</time>
  <course>51.98</course>
  <speed>0.9761659694949419</speed>
  <fix>3d</fix>
</trkpt>
<trkpt lat="33.8104603" lon="-118.3942504">
  <ele>-24.41</ele>
  <time>2026-09-02T22:08:55Z</time>
  <course>53.52</course>
  <speed>0.96</speed>
  <fix>3d</fix>
</trkpt>
<trkpt lat="33.8104623" lon="-118.3942475">
  <ele>-25.014</ele>
  <time>2026-09-02T22:08:55Z</time>
  <course>51.98</course>
  <speed>0.9761659694949419</speed>
  <fix>3d</fix>
</trkpt>
<trkpt lat="33.8104613" lon="-118.3942487">
  <ele>-24.41</ele>
  <time>2026-09-02T22:08:55Z</time>
  <course>53.52</course>
  <speed>0.96</speed>
  <fix>3d</fix>
</trkpt>
<trkpt lat="33.8104628" lon="-118.3942467">
  <ele>-25.013</ele>
  <time>2026-09-02T22:08:55Z</time>
  <course>51.99</course>
  <speed>0.9761659694949419</speed>
  <fix>3d</fix>
</trkpt>
<trkpt lat="33.8104613" lon="-118.3942487">
  <ele>-24.41</ele>
  <time>2026-09-02T22:08:55Z</time>
  <course>53.52</course>
  <speed>0.96</speed>
  <fix>3d</fix>
</trkpt>
<trkpt lat="33.8104633" lon="-118.3942459">
  <ele>-25.012</ele>
  <time>2026-09-02T22:08:55Z</time>
  <course>52.01</course>
  <speed>0.9761659694949419</speed>
  <fix>3d</fix>
</trkpt>
<trkpt lat="33.8104623" lon="-118.394247">
  <ele>-24.41</ele>
  <time>2026-09-02T22:08:55Z</time>
  <course>53.55</course>
  <speed>0.96</speed>
  <fix>3d</fix>
</trkpt>
<trkpt lat="33.8104638" lon="-118.394245">
  <ele>-25.01</ele>
  <time>2026-09-02T22:08:55Z</time>
  <course>52.02</course>
  <speed>0.9761659694949419</speed>
  <fix>3d</fix>
</trkpt>
<trkpt lat="33.8104623" lon="-118.394247">
  <ele>-24.41</ele>
  <time>2026-09-02T22:08:55Z</time>
  <course>53.55</course>
  <speed>0.96</speed>
  <fix>3d</fix>
</trkpt>
<trkpt lat="33.8104643" lon="-118.3942442">
  <ele>-25.01</ele>
  <time>2026-09-02T22:08:55Z</time>
  <course>52.02</course>
  <speed>0.9761659694949419</speed>
  <fix>3d</fix>
</trkpt>
<trkpt lat="33.8104634" lon="-118.3942453">
  <ele>-24.4</ele>
  <time>2026-09-02T22:08:55Z</time>
  <course>53.55</course>
  <speed>0.96</speed>
  <fix>3d</fix>
</trkpt>
<trkpt lat="33.8104648" lon="-118.3942433">
  <ele>-25.009</ele>
  <time>2026-09-02T22:08:55Z</time>
  <course>52.02</course>
  <speed>0.9761659694949419</speed>
  <fix>3d</fix>
</trkpt>
<trkpt lat="33.8104634" lon="-118.3942453">
  <ele>-24.4</ele>
  <time>2026-09-02T22:08:55Z</time>
  <course>53.55</course>
  <speed>0.96</speed>
  <fix>3d</fix>
</trkpt>
<trkpt lat="33.8104654" lon="-118.3942425">
  <ele>-25.008</ele>
  <time>2026-09-02T22:08:55Z</time>
  <course>52.02</course>
  <speed>0.9761659694949419</speed>
  <fix>3d</fix>
</trkpt>
<trkpt lat="33.8104644" lon="-118.3942436">
  <ele>-24.4</ele>
  <time>2026-09-02T22:08:55Z</time>
  <course>53.54</course>
  <speed>0.96</speed>
  <fix>3d</fix>
</trkpt>
<trkpt lat="33.8104659" lon="-118.3942417">
  <ele>-25.008</ele>
  <time>2026-09-02T22:08:55Z</time>
  <course>52.02</course>
  <speed>0.9761659694949419</speed>
  <fix>3d</fix>
</trkpt>
<trkpt lat="33.8104644" lon="-118.3942436">
  <ele>-24.4</ele>
  <time>2026-09-02T22:08:55Z</time>
  <course>53.54</course>
  <speed>0.96</speed>
  <fix>3d</fix>
</trkpt>
<trkpt lat="33.8104664" lon="-118.3942408">
  <ele>-25.008</ele>
  <time>2026-09-02T22:08:55Z</time>
  <course>52.02</course>
  <speed>0.9761659694949419</speed>
  <fix>3d</fix>
</trkpt>
<trkpt lat="33.8104654" lon="-118.3942419">
  <ele>-24.4</ele>
  <time>2026-09-02T22:08:55Z</time>
  <course>53.53</course>
  <speed>0.97</speed>
  <fix>3d</fix>
</trkpt>
<trkpt lat="33.8104669" lon="-118.39424">
  <ele>-25.009</ele>
  <time>2026-09-02T22:08:55Z</time>
  <course>52.0</course>
  <speed>0.982344135219425</speed>
  <fix>3d</fix>
</trkpt>
<trkpt lat="33.8104654" lon="-118.3942419">
  <ele>-24.4</ele>
  <time>2026-09-02T22:08:55Z</time>
  <course>53.53</course>
  <speed>0.97</speed>
  <fix>3d</fix>
</trkpt>
<trkpt lat="33.8104674" lon="-118.3942391">
  <ele>-25.009</ele>
  <time>2026-09-02T22:08:55Z</time>
  <course>51.98</course>
  <speed>0.9761659694949419</speed>
  <fix>3d</fix>
</trkpt>
<trkpt lat="33.8104664" lon="-118.3942402">
  <ele>-24.4</ele>
  <time>2026-09-02T22:08:55Z</time>
  <course>53.5</course>
  <speed>0.97</speed>
  <fix>3d</fix>
</trkpt>
<trkpt lat="33.810468" lon="-118.3942383">
  <ele>-25.009</ele>
  <time>2026-09-02T22:08:55Z</time>
  <course>51.96</course>
  <speed>0.982344135219425</speed>
  <fix>3d</fix>
</trkpt>
<trkpt lat="33.8104664" lon="-118.3942402">
  <ele>-24.4</ele>
  <time>2026-09-02T22:08:55Z</time>
  <course>53.5</course>
  <speed>0.97</speed>
  <fix>3d</fix>
</trkpt>
<trkpt lat="33.8104685" lon="-118.3942374">
  <ele>-25.009</ele>
  <time>2026-09-02T22:08:55Z</time>
  <course>51.92</course>
  <speed>0.9902019995940222</speed>
  <fix>3d</fix>
</trkpt>
<trkpt lat="33.8104675" lon="-118.3942386">
  <ele>-24.4</ele>
  <time>2026-09-02T22:08:55Z</time>
  <course>53.43</course>
  <speed>0.97</speed>
  <fix>3d</fix>
</trkpt>
<trkpt lat="33.810469" lon="-118.3942366">
  <ele>-25.008</ele>
  <time>2026-09-02T22:08:55Z</time>
  <course>51.9</course>
  <speed>0.9902019995940222</speed>
  <fix>3d</fix>
</trkpt>
<trkpt lat="33.8104675" lon="-118.3942386">
  <ele>-24.4</ele>
  <time>2026-09-02T22:08:55Z</time>
  <course>53.43</course>
  <speed>0.97</speed>
  <fix>3d</fix>
</trkpt>
<trkpt lat="33.8104695" lon="-118.3942357">
  <ele>-25.008</ele>
  <time>2026-09-02T22:08:55Z</time>
  <course>51.88</course>
  <speed>0.9902019995940222</speed>
  <fix>3d</fix>
</trkpt>
<trkpt lat="33.8104686" lon="-118.3942369">
  <ele>-24.4</ele>
  <time>2026-09-02T22:08:55Z</time>
  <course>53.37</course>
  <speed>0.97</speed>
  <fix>3d</fix>
</trkpt>
<trkpt lat="33.81047" lon="-118.3942349">
  <ele>-25.008</ele>
  <time>2026-09-02T22:08:55Z</time>
  <course>51.9</course>
  <speed>0.9902019995940222</speed>
  <fix>3d</fix>
</trkpt>
<trkpt lat="33.8104686" lon="-118.3942369">
  <ele>-24.4</ele>
  <time>2026-09-02T22:08:55Z</time>
  <course>53.37</course>
  <speed>0.97</speed>
  <fix>3d</fix>
</trkpt>
<trkpt lat="33.8104706" lon="-118.3942341">
  <ele>-25.007</ele>
  <time>2026-09-02T22:08:55Z</time>
  <course>51.91</course>
  <speed>0.9902019995940222</speed>
  <fix>3d</fix>
</trkpt>
<trkpt lat="33.8104696" lon="-118.3942352">
  <ele>-24.4</ele>
  <time>2026-09-02T22:08:55Z</time>
  <course>53.41</course>
  <speed>0.97</speed>
  <fix>3d</fix>
</trkpt>
<trkpt lat="33.8104711" lon="-118.3942332">
  <ele>-25.006</ele>
  <time>2026-09-02T22:08:55Z</time>
  <course>51.96</course>
  <speed>0.9902019995940222</speed>
  <fix>3d</fix>
</trkpt>
<trkpt lat="33.8104696" lon="-118.3942352">
  <ele>-24.4</ele>
  <time>2026-09-02T22:08:55Z</time>
  <course>53.41</course>
  <speed>0.97</speed>
  <fix>3d</fix>
</trkpt>
<trkpt lat="33.8104716" lon="-118.3942324">
  <ele>-25.006</ele>
  <time>2026-09-02T22:08:55Z</time>
  <course>51.99</course>
  <speed>0.9902019995940222</speed>
  <fix>3d</fix>
</trkpt>
<trkpt lat="33.8104706" lon="-118.3942335">
  <ele>-24.4</ele>
  <time>2026-09-02T22:08:55Z</time>
  <course>53.48</course>
  <speed>0.98</speed>
  <fix>3d</fix>
</trkpt>
<trkpt lat="33.8104721" lon="-118.3942315">
  <ele>-25.006</ele>
  <time>2026-09-02T22:08:55Z</time>
  <course>52.01</course>
  <speed>0.9902019995940222</speed>
  <fix>3d</fix>
</trkpt>
<trkpt lat="33.8104706" lon="-118.3942335">
  <ele>-24.4</ele>
  <time>2026-09-02T22:08:55Z</time>
  <course>53.48</course>
  <speed>0.98</speed>
  <fix>3d</fix>
</trkpt>
<trkpt lat="33.8104726" lon="-118.3942307">
  <ele>-25.006</ele>
  <time>2026-09-02T22:08:55Z</time>
  <course>52.02</course>
  <speed>0.9902019995940222</speed>
  <fix>3d</fix>
</trkpt>
<trkpt lat="33.8104716" lon="-118.3942318">
  <ele>-24.4</ele>
  <time>2026-09-02T22:08:55Z</time>
  <course>53.51</course>
  <speed>0.98</speed>
  <fix>3d</fix>
</trkpt>
<trkpt lat="33.8104732" lon="-118.3942298">
  <ele>-25.008</ele>
  <time>2026-09-02T22:08:55Z</time>
  <course>52.03</course>
  <speed>0.9902019995940222</speed>
  <fix>3d</fix>
</trkpt>
<trkpt lat="33.8104716" lon="-118.3942318">
  <ele>-24.4</ele>
  <time>2026-09-02T22:08:55Z</time>
  <course>53.51</course>
  <speed>0.98</speed>
  <fix>3d</fix>
</trkpt>
<trkpt lat="33.8104737" lon="-118.394229">
  <ele>-25.009</ele>
  <time>2026-09-02T22:08:55Z</time>
  <course>52.0</course>
  <speed>0.9902019995940222</speed>
  <fix>3d</fix>
</trkpt>
<trkpt lat="33.8104727" lon="-118.39423">
  <ele>-24.4</ele>
  <time>2026-09-02T22:08:56Z</time>
  <course>53.47</course>
  <speed>0.98</speed>
  <fix>3d</fix>
</trkpt>
<trkpt lat="33.8104742" lon="-118.3942281">
  <ele>-25.011</ele>
  <time>2026-09-02T22:08:56Z</time>
  <course>51.98</course>
  <speed>0.9902019995940222</speed>
  <fix>3d</fix>
</trkpt>
<trkpt lat="33.8104727" lon="-118.39423">
  <ele>-24.4</ele>
  <time>2026-09-02T22:08:56Z</time>
  <course>53.47</course>
  <speed>0.98</speed>
  <fix>3d</fix>
</trkpt>
<trkpt lat="33.8104747" lon="-118.3942273">
  <ele>-25.012</ele>
  <time>2026-09-02T22:08:56Z</time>
  <course>51.95</course>
  <speed>0.9902019995940222</speed>
  <fix>3d</fix>
</trkpt>
<trkpt lat="33.8104738" lon="-118.3942283">
  <ele>-24.4</ele>
  <time>2026-09-02T22:08:56Z</time>
  <course>53.4</course>
  <speed>0.98</speed>
  <fix>3d</fix>
</trkpt>
<trkpt lat="33.8104752" lon="-118.3942264">
  <ele>-25.013</ele>
  <time>2026-09-02T22:08:56Z</time>
  <course>51.92</course>
  <speed>0.9902019995940222</speed>
  <fix>3d</fix>
</trkpt>
<trkpt lat="33.8104738" lon="-118.3942283">
  <ele>-24.4</ele>
  <time>2026-09-02T22:08:56Z</time>
  <course>53.4</course>
  <speed>0.98</speed>
  <fix>3d</fix>
</trkpt>
<trkpt lat="33.8104758" lon="-118.3942256">
  <ele>-25.012</ele>
  <time>2026-09-02T22:08:56Z</time>
  <course>51.9</course>
  <speed>0.9902019995940222</speed>
  <fix>3d</fix>
</trkpt>
<trkpt lat="33.8104749" lon="-118.3942266">
  <ele>-24.4</ele>
  <time>2026-09-02T22:08:56Z</time>
  <course>53.37</course>
  <speed>0.98</speed>
  <fix>3d</fix>
</trkpt>
<trkpt lat="33.8104763" lon="-118.3942247">
  <ele>-25.011</ele>
  <time>2026-09-02T22:08:56Z</time>
  <course>51.9</course>
  <speed>0.9902019995940222</speed>
  <fix>3d</fix>
</trkpt>
<trkpt lat="33.8104749" lon="-118.3942266">
  <ele>-24.4</ele>
  <time>2026-09-02T22:08:56Z</time>
  <course>53.37</course>
  <speed>0.98</speed>
  <fix>3d</fix>
</trkpt>
<trkpt lat="33.8104768" lon="-118.3942238">
  <ele>-25.009</ele>
  <time>2026-09-02T22:08:56Z</time>
  <course>51.9</course>
  <speed>0.9902019995940222</speed>
  <fix>3d</fix>
</trkpt>
<trkpt lat="33.8104759" lon="-118.3942249">
  <ele>-24.4</ele>
  <time>2026-09-02T22:08:56Z</time>
  <course>53.39</course>
  <speed>0.98</speed>
  <fix>3d</fix>
</trkpt>
<trkpt lat="33.8104773" lon="-118.394223">
  <ele>-25.007</ele>
  <time>2026-09-02T22:08:56Z</time>
  <course>51.93</course>
  <speed>0.9902019995940222</speed>
  <fix>3d</fix>
</trkpt>
<trkpt lat="33.8104759" lon="-118.3942249">
  <ele>-24.4</ele>
  <time>2026-09-02T22:08:56Z</time>
  <course>53.39</course>
  <speed>0.98</speed>
  <fix>3d</fix>
</trkpt>
<trkpt lat="33.8104779" lon="-118.3942221">
  <ele>-25.005</ele>
  <time>2026-09-02T22:08:56Z</time>
  <course>51.94</course>
  <speed>0.9902019995940222</speed>
  <fix>3d</fix>
</trkpt>
<trkpt lat="33.810477" lon="-118.3942232">
  <ele>-24.39</ele>
  <time>2026-09-02T22:08:56Z</time>
  <course>53.41</course>
  <speed>0.98</speed>
  <fix>3d</fix>
</trkpt>
<trkpt lat="33.8104784" lon="-118.3942213">
  <ele>-25.003</ele>
  <time>2026-09-02T22:08:56Z</time>
  <course>51.96</course>
  <speed>0.9902019995940222</speed>
  <fix>3d</fix>
</trkpt>
<trkpt lat="33.810477" lon="-118.3942232">
  <ele>-24.39</ele>
  <time>2026-09-02T22:08:56Z</time>
  <course>53.41</course>
  <speed>0.98</speed>
  <fix>3d</fix>
</trkpt>
<trkpt lat="33.8104789" lon="-118.3942204">
  <ele>-25.002</ele>
  <time>2026-09-02T22:08:56Z</time>
  <course>51.98</course>
  <speed>0.9902019995940222</speed>
  <fix>3d</fix>
</trkpt>
<trkpt lat="33.810478" lon="-118.3942215">
  <ele>-24.39</ele>
  <time>2026-09-02T22:08:56Z</time>
  <course>53.44</course>
  <speed>0.98</speed>
  <fix>3d</fix>
</trkpt>
<trkpt lat="33.8104795" lon="-118.3942196">
  <ele>-25.003</ele>
  <time>2026-09-02T22:08:56Z</time>
  <course>52.01</course>
  <speed>0.9902019995940222</speed>
  <fix>3d</fix>
</trkpt>
<trkpt lat="33.810478" lon="-118.3942215">
  <ele>-24.39</ele>
  <time>2026-09-02T22:08:56Z</time>
  <course>53.44</course>
  <speed>0.98</speed>
  <fix>3d</fix>
</trkpt>
<trkpt lat="33.81048" lon="-118.3942187">
  <ele>-25.003</ele>
  <time>2026-09-02T22:08:56Z</time>
  <course>52.02</course>
  <speed>0.9902019995940222</speed>
  <fix>3d</fix>
</trkpt>
<trkpt lat="33.810479" lon="-118.3942198">
  <ele>-24.39</ele>
  <time>2026-09-02T22:08:56Z</time>
  <course>53.47</course>
  <speed>0.98</speed>
  <fix>3d</fix>
</trkpt>
<trkpt lat="33.8104805" lon="-118.3942179">
  <ele>-25.004</ele>
  <time>2026-09-02T22:08:56Z</time>
  <course>52.03</course>
  <speed>0.9902019995940222</speed>
  <fix>3d</fix>
</trkpt>
<trkpt lat="33.810479" lon="-118.3942198">
  <ele>-24.39</ele>
  <time>2026-09-02T22:08:56Z</time>
  <course>53.47</course>
  <speed>0.98</speed>
  <fix>3d</fix>
</trkpt>
<trkpt lat="33.810481" lon="-118.394217">
  <ele>-25.004</ele>
  <time>2026-09-02T22:08:56Z</time>
  <course>52.02</course>
  <speed>0.9902019995940222</speed>
  <fix>3d</fix>
</trkpt>
<trkpt lat="33.8104801" lon="-118.3942181">
  <ele>-24.39</ele>
  <time>2026-09-02T22:08:56Z</time>
  <course>53.47</course>
  <speed>0.98</speed>
  <fix>3d</fix>
</trkpt>
<trkpt lat="33.8104816" lon="-118.3942161">
  <ele>-25.006</ele>
  <time>2026-09-02T22:08:56Z</time>
  <course>52.02</course>
  <speed>0.9902019995940222</speed>
  <fix>3d</fix>
</trkpt>
<trkpt lat="33.8104801" lon="-118.3942181">
  <ele>-24.39</ele>
  <time>2026-09-02T22:08:56Z</time>
  <course>53.47</course>
  <speed>0.98</speed>
  <fix>3d</fix>
</trkpt>
<trkpt lat="33.8104821" lon="-118.3942153">
  <ele>-25.008</ele>
  <time>2026-09-02T22:08:56Z</time>
  <course>52.01</course>
  <speed>0.9902019995940222</speed>
  <fix>3d</fix>
</trkpt>
<trkpt lat="33.8104812" lon="-118.3942163">
  <ele>-24.4</ele>
  <time>2026-09-02T22:08:56Z</time>
  <course>53.45</course>
  <speed>0.98</speed>
  <fix>3d</fix>
</trkpt>
<trkpt lat="33.8104826" lon="-118.3942144">
  <ele>-25.007</ele>
  <time>2026-09-02T22:08:56Z</time>
  <course>52.01</course>
  <speed>0.9902019995940222</speed>
  <fix>3d</fix>
</trkpt>
<trkpt lat="33.8104812" lon="-118.3942163">
  <ele>-24.4</ele>
  <time>2026-09-02T22:08:56Z</time>
  <course>53.45</course>
  <speed>0.98</speed>
  <fix>3d</fix>
</trkpt>
<trkpt lat="33.8104831" lon="-118.3942136">
  <ele>-25.007</ele>
  <time>2026-09-02T22:08:56Z</time>
  <course>52.01</course>
  <speed>0.9902019995940222</speed>
  <fix>3d</fix>
</trkpt>
<trkpt lat="33.8104822" lon="-118.3942146">
  <ele>-24.4</ele>
  <time>2026-09-02T22:08:56Z</time>
  <course>53.45</course>
  <speed>0.98</speed>
  <fix>3d</fix>
</trkpt>
<trkpt lat="33.8104837" lon="-118.3942127">
  <ele>-25.007</ele>
  <time>2026-09-02T22:08:56Z</time>
  <course>52.01</course>
  <speed>0.9902019995940222</speed>
  <fix>3d</fix>
</trkpt>
<trkpt lat="33.8104822" lon="-118.3942146">
  <ele>-24.4</ele>
  <time>2026-09-02T22:08:56Z</time>
  <course>53.45</course>
  <speed>0.98</speed>
  <fix>3d</fix>
</trkpt>
<trkpt lat="33.8104842" lon="-118.3942119">
  <ele>-25.007</ele>
  <time>2026-09-02T22:08:56Z</time>
  <course>52.0</course>
  <speed>0.9902019995940222</speed>
  <fix>3d</fix>
</trkpt>
<trkpt lat="33.8104833" lon="-118.3942129">
  <ele>-24.4</ele>
  <time>2026-09-02T22:08:56Z</time>
  <course>53.45</course>
  <speed>0.98</speed>
  <fix>3d</fix>
</trkpt>
<trkpt lat="33.8104847" lon="-118.394211">
  <ele>-25.007</ele>
  <time>2026-09-02T22:08:56Z</time>
  <course>52.0</course>
  <speed>0.9902019995940222</speed>
  <fix>3d</fix>
</trkpt>
<trkpt lat="33.8104833" lon="-118.3942129">
  <ele>-24.4</ele>
  <time>2026-09-02T22:08:56Z</time>
  <course>53.45</course>
  <speed>0.98</speed>
  <fix>3d</fix>
</trkpt>
<trkpt lat="33.8104853" lon="-118.3942101">
  <ele>-25.007</ele>
  <time>2026-09-02T22:08:56Z</time>
  <course>51.99</course>
  <speed>0.9902019995940222</speed>
  <fix>3d</fix>
</trkpt>
<trkpt lat="33.8104844" lon="-118.3942112">
  <ele>-24.41</ele>
  <time>2026-09-02T22:08:56Z</time>
  <course>53.44</course>
  <speed>0.98</speed>
  <fix>3d</fix>
</trkpt>
<trkpt lat="33.8104858" lon="-118.3942093">
  <ele>-25.008</ele>
  <time>2026-09-02T22:08:56Z</time>
  <course>52.0</course>
  <speed>0.9902019995940222</speed>
  <fix>3d</fix>
</trkpt>
<trkpt lat="33.8104844" lon="-118.3942112">
  <ele>-24.41</ele>
  <time>2026-09-02T22:08:56Z</time>
  <course>53.44</course>
  <speed>0.98</speed>
  <fix>3d</fix>
</trkpt>
<trkpt lat="33.8104863" lon="-118.3942084">
  <ele>-25.009</ele>
  <time>2026-09-02T22:08:56Z</time>
  <course>52.02</course>
  <speed>0.9902019995940222</speed>
  <fix>3d</fix>
</trkpt>
<trkpt lat="33.8104854" lon="-118.3942095">
  <ele>-24.41</ele>
  <time>2026-09-02T22:08:56Z</time>
  <course>53.47</course>
  <speed>0.98</speed>
  <fix>3d</fix>
</trkpt>
<trkpt lat="33.8104868" lon="-118.3942076">
  <ele>-25.011</ele>
  <time>2026-09-02T22:08:56Z</time>
  <course>52.05</course>
  <speed>0.9902019995940222</speed>
  <fix>3d</fix>
</trkpt>
<trkpt lat="33.8104854" lon="-118.3942095">
  <ele>-24.41</ele>
  <time>2026-09-02T22:08:56Z</time>
  <course>53.47</course>
  <speed>0.98</speed>
  <fix>3d</fix>
</trkpt>
<trkpt lat="33.8104874" lon="-118.3942067">
  <ele>-25.012</ele>
  <time>2026-09-02T22:08:56Z</time>
  <course>52.07</course>
  <speed>0.9902019995940222</speed>
  <fix>3d</fix>
</trkpt>
<trkpt lat="33.8104864" lon="-118.3942078">
  <ele>-24.41</ele>
  <time>2026-09-02T22:08:56Z</time>
  <course>53.51</course>
  <speed>0.98</speed>
  <fix>3d</fix>
</trkpt>
<trkpt lat="33.8104879" lon="-118.3942059">
  <ele>-25.013</ele>
  <time>2026-09-02T22:08:56Z</time>
  <course>52.09</course>
  <speed>0.9980981915623331</speed>
  <fix>3d</fix>
</trkpt>
<trkpt lat="33.8104864" lon="-118.3942078">
  <ele>-24.41</ele>
  <time>2026-09-02T22:08:56Z</time>
  <course>53.51</course>
  <speed>0.98</speed>
  <fix>3d</fix>
</trkpt>
<trkpt lat="33.8104884" lon="-118.394205">
  <ele>-25.013</ele>
  <time>2026-09-02T22:08:56Z</time>
  <course>52.09</course>
  <speed>0.9980981915623331</speed>
  <fix>3d</fix>
</trkpt>
<trkpt lat="33.8104875" lon="-118.3942061">
  <ele>-24.41</ele>
  <time>2026-09-02T22:08:56Z</time>
  <course>53.53</course>
  <speed>0.98</speed>
  <fix>3d</fix>
</trkpt>
<trkpt lat="33.810489" lon="-118.3942041">
  <ele>-25.013</ele>
  <time>2026-09-02T22:08:56Z</time>
  <course>52.09</course>
  <speed>0.9980981915623331</speed>
  <fix>3d</fix>
</trkpt>
<trkpt lat="33.8104875" lon="-118.3942061">
  <ele>-24.41</ele>
  <time>2026-09-02T22:08:56Z</time>
  <course>53.53</course>
  <speed>0.98</speed>
  <fix>3d</fix>
</trkpt>
<trkpt lat="33.8104895" lon="-118.3942033">
  <ele>-25.014</ele>
  <time>2026-09-02T22:08:56Z</time>
  <course>52.09</course>
  <speed>0.9980981915623331</speed>
  <fix>3d</fix>
</trkpt>
<trkpt lat="33.8104886" lon="-118.3942044">
  <ele>-24.4</ele>
  <time>2026-09-02T22:08:56Z</time>
  <course>53.53</course>
  <speed>0.98</speed>
  <fix>3d</fix>
</trkpt>
<trkpt lat="33.81049" lon="-118.3942024">
  <ele>-25.012</ele>
  <time>2026-09-02T22:08:56Z</time>
  <course>52.1</course>
  <speed>0.9980981915623331</speed>
  <fix>3d</fix>
</trkpt>
<trkpt lat="33.8104886" lon="-118.3942044">
  <ele>-24.4</ele>
  <time>2026-09-02T22:08:56Z</time>
  <course>53.53</course>
  <speed>0.98</speed>
  <fix>3d</fix>
</trkpt>
<trkpt lat="33.8104905" lon="-118.3942016">
  <ele>-25.01</ele>
  <time>2026-09-02T22:08:56Z</time>
  <course>52.12</course>
  <speed>0.9980981915623331</speed>
  <fix>3d</fix>
</trkpt>
<trkpt lat="33.8104896" lon="-118.3942026">
  <ele>-24.4</ele>
  <time>2026-09-02T22:08:56Z</time>
  <course>53.55</course>
  <speed>0.98</speed>
  <fix>3d</fix>
</trkpt>
<trkpt lat="33.8104911" lon="-118.3942007">
  <ele>-25.007</ele>
  <time>2026-09-02T22:08:56Z</time>
  <course>52.14</course>
  <speed>0.9980981915623331</speed>
  <fix>3d</fix>
</trkpt>
<trkpt lat="33.8104896" lon="-118.3942026">
  <ele>-24.4</ele>
  <time>2026-09-02T22:08:56Z</time>
  <course>53.55</course>
  <speed>0.98</speed>
  <fix>3d</fix>
</trkpt>
<trkpt lat="33.8104916" lon="-118.3941998">
  <ele>-25.004</ele>
  <time>2026-09-02T22:08:56Z</time>
  <course>52.15</course>
  <speed>0.9980981915623331</speed>
  <fix>3d</fix>
</trkpt>
<trkpt lat="33.8104907" lon="-118.3942009">
  <ele>-24.4</ele>
  <time>2026-09-02T22:08:56Z</time>
  <course>53.56</course>
  <speed>0.98</speed>
  <fix>3d</fix>
</trkpt>
<trkpt lat="33.8104921" lon="-118.394199">
  <ele>-25.002</ele>
  <time>2026-09-02T22:08:56Z</time>
  <course>52.15</course>
  <speed>0.9980981915623331</speed>
  <fix>3d</fix>
</trkpt>
<trkpt lat="33.8104907" lon="-118.3942009">
  <ele>-24.4</ele>
  <time>2026-09-02T22:08:56Z</time>
  <course>53.56</course>
  <speed>0.98</speed>
  <fix>3d</fix>
</trkpt>
<trkpt lat="33.8104927" lon="-118.3941981">
  <ele>-25.002</ele>
  <time>2026-09-02T22:08:56Z</time>
  <course>52.15</course>
  <speed>0.9980981915623331</speed>
  <fix>3d</fix>
</trkpt>
<trkpt lat="33.8104917" lon="-118.3941992">
  <ele>-24.4</ele>
  <time>2026-09-02T22:08:56Z</time>
  <course>53.55</course>
  <speed>0.98</speed>
  <fix>3d</fix>
</trkpt>
<trkpt lat="33.8104932" lon="-118.3941972">
  <ele>-25.004</ele>
  <time>2026-09-02T22:08:56Z</time>
  <course>52.14</course>
  <speed>1.0042410069301093</speed>
  <fix>3d</fix>
</trkpt>
<trkpt lat="33.8104917" lon="-118.3941992">
  <ele>-24.4</ele>
  <time>2026-09-02T22:08:56Z</time>
  <course>53.55</course>
  <speed>0.98</speed>
  <fix>3d</fix>
</trkpt>
<trkpt lat="33.8104937" lon="-118.3941964">
  <ele>-25.006</ele>
  <time>2026-09-02T22:08:56Z</time>
  <course>52.14</course>
  <speed>1.0042410069301093</speed>
  <fix>3d</fix>
</trkpt>
<trkpt lat="33.8104928" lon="-118.3941975">
  <ele>-24.4</ele>
  <time>2026-09-02T22:08:56Z</time>
  <course>53.55</course>
  <speed>0.99</speed>
  <fix>3d</fix>
</trkpt>
<trkpt lat="33.8104942" lon="-118.3941955">
  <ele>-25.008</ele>
  <time>2026-09-02T22:08:56Z</time>
  <course>52.13</course>
  <speed>1.0042410069301093</speed>
  <fix>3d</fix>
</trkpt>
<trkpt lat="33.8104928" lon="-118.3941975">
  <ele>-24.4</ele>
  <time>2026-09-02T22:08:56Z</time>
  <course>53.55</course>
  <speed>0.99</speed>
  <fix>3d</fix>
</trkpt>
<trkpt lat="33.8104948" lon="-118.3941947">
  <ele>-25.01</ele>
  <time>2026-09-02T22:08:56Z</time>
  <course>52.13</course>
  <speed>1.0042410069301093</speed>
  <fix>3d</fix>
</trkpt>
<trkpt lat="33.8104938" lon="-118.3941958">
  <ele>-24.4</ele>
  <time>2026-09-02T22:08:56Z</time>
  <course>53.56</course>
  <speed>0.99</speed>
  <fix>3d</fix>
</trkpt>
<trkpt lat="33.8104953" lon="-118.3941938">
  <ele>-25.011</ele>
  <time>2026-09-02T22:08:56Z</time>
  <course>52.14</course>
  <speed>1.0042410069301093</speed>
  <fix>3d</fix>
</trkpt>
<trkpt lat="33.8104938" lon="-118.3941958">
  <ele>-24.4</ele>
  <time>2026-09-02T22:08:56Z</time>
  <course>53.56</course>
  <speed>0.99</speed>
  <fix>3d</fix>
</trkpt>
<trkpt lat="33.8104958" lon="-118.3941929">
  <ele>-25.012</ele>
  <time>2026-09-02T22:08:56Z</time>
  <course>52.13</course>
  <speed>1.0042410069301093</speed>
  <fix>3d</fix>
</trkpt>
<trkpt lat="33.8104949" lon="-118.394194">
  <ele>-24.4</ele>
  <time>2026-09-02T22:08:56Z</time>
  <course>53.57</course>
  <speed>0.99</speed>
  <fix>3d</fix>
</trkpt>
<trkpt lat="33.8104964" lon="-118.3941921">
  <ele>-25.011</ele>
  <time>2026-09-02T22:08:56Z</time>
  <course>52.13</course>
  <speed>1.0042410069301093</speed>
  <fix>3d</fix>
</trkpt>
<trkpt lat="33.8104949" lon="-118.394194">
  <ele>-24.4</ele>
  <time>2026-09-02T22:08:56Z</time>
  <course>53.57</course>
  <speed>0.99</speed>
  <fix>3d</fix>
</trkpt>
<trkpt lat="33.8104969" lon="-118.3941912">
  <ele>-25.009</ele>
  <time>2026-09-02T22:08:56Z</time>
  <course>52.12</course>
  <speed>1.0042410069301093</speed>
  <fix>3d</fix>
</trkpt>
<trkpt lat="33.810496" lon="-118.3941923">
  <ele>-24.4</ele>
  <time>2026-09-02T22:08:56Z</time>
  <course>53.55</course>
  <speed>0.99</speed>
  <fix>3d</fix>
</trkpt>
<trkpt lat="33.8104974" lon="-118.3941903">
  <ele>-25.006</ele>
  <time>2026-09-02T22:08:56Z</time>
  <course>52.11</course>
  <speed>1.0042410069301093</speed>
  <fix>3d</fix>
</trkpt>
<trkpt lat="33.810496" lon="-118.3941923">
  <ele>-24.4</ele>
  <time>2026-09-02T22:08:56Z</time>
  <course>53.55</course>
  <speed>0.99</speed>
  <fix>3d</fix>
</trkpt>
<trkpt lat="33.810498" lon="-118.3941895">
  <ele>-25.005</ele>
  <time>2026-09-02T22:08:56Z</time>
  <course>52.11</course>
  <speed>1.0042410069301093</speed>
  <fix>3d</fix>
</trkpt>
<trkpt lat="33.810497" lon="-118.3941906">
  <ele>-24.4</ele>
  <time>2026-09-02T22:08:56Z</time>
  <course>53.54</course>
  <speed>0.99</speed>
  <fix>3d</fix>
</trkpt>
<trkpt lat="33.8104985" lon="-118.3941886">
  <ele>-25.004</ele>
  <time>2026-09-02T22:08:56Z</time>
  <course>52.11</course>
  <speed>1.0042410069301093</speed>
  <fix>3d</fix>
</trkpt>
<trkpt lat="33.810497" lon="-118.3941906">
  <ele>-24.4</ele>
  <time>2026-09-02T22:08:56Z</time>
  <course>53.54</course>
  <speed>0.99</speed>
  <fix>3d</fix>
</trkpt>
<trkpt lat="33.810499" lon="-118.3941877">
  <ele>-25.004</ele>
  <time>2026-09-02T22:08:56Z</time>
  <course>52.11</course>
  <speed>1.0042410069301093</speed>
  <fix>3d</fix>
</trkpt>
<trkpt lat="33.810498" lon="-118.3941888">
  <ele>-24.4</ele>
  <time>2026-09-02T22:08:56Z</time>
  <course>53.54</course>
  <speed>0.99</speed>
  <fix>3d</fix>
</trkpt>
<trkpt lat="33.8104995" lon="-118.3941869">
  <ele>-25.005</ele>
  <time>2026-09-02T22:08:56Z</time>
  <course>52.11</course>
  <speed>1.0042410069301093</speed>
  <fix>3d</fix>
</trkpt>
<trkpt lat="33.810498" lon="-118.3941888">
  <ele>-24.4</ele>
  <time>2026-09-02T22:08:56Z</time>
  <course>53.54</course>
  <speed>0.99</speed>
  <fix>3d</fix>
</trkpt>
<trkpt lat="33.8105001" lon="-118.394186">
  <ele>-25.006</ele>
  <time>2026-09-02T22:08:56Z</time>
  <course>52.07</course>
  <speed>1.0042410069301093</speed>
  <fix>3d</fix>
</trkpt>
<trkpt lat="33.8104991" lon="-118.3941871">
  <ele>-24.4</ele>
  <time>2026-09-02T22:08:56Z</time>
  <course>53.5</course>
  <speed>0.99</speed>
  <fix>3d</fix>
</trkpt>
<trkpt lat="33.8105006" lon="-118.3941851">
  <ele>-25.007</ele>
  <time>2026-09-02T22:08:56Z</time>
  <course>52.03</course>
  <speed>1.0042410069301093</speed>
  <fix>3d</fix>
</trkpt>
<trkpt lat="33.8104991" lon="-118.3941871">
  <ele>-24.4</ele>
  <time>2026-09-02T22:08:56Z</time>
  <course>53.5</course>
  <speed>0.99</speed>
  <fix>3d</fix>
</trkpt>
<trkpt lat="33.8105011" lon="-118.3941843">
  <ele>-25.008</ele>
  <time>2026-09-02T22:08:56Z</time>
  <course>51.99</course>
  <speed>1.0042410069301093</speed>
  <fix>3d</fix>
</trkpt>
<trkpt lat="33.8105002" lon="-118.3941854">
  <ele>-24.4</ele>
  <time>2026-09-02T22:08:56Z</time>
  <course>53.43</course>
  <speed>0.99</speed>
  <fix>3d</fix>
</trkpt>
<trkpt lat="33.8105017" lon="-118.3941834">
  <ele>-25.008</ele>
  <time>2026-09-02T22:08:56Z</time>
  <course>51.97</course>
  <speed>1.0042410069301093</speed>
  <fix>3d</fix>
</trkpt>
<trkpt lat="33.8105002" lon="-118.3941854">
  <ele>-24.4</ele>
  <time>2026-09-02T22:08:56Z</time>
  <course>53.43</course>
  <speed>0.99</speed>
  <fix>3d</fix>
</trkpt>
<trkpt lat="33.8105022" lon="-118.3941825">
  <ele>-25.008</ele>
  <time>2026-09-02T22:08:56Z</time>
  <course>51.96</course>
  <speed>1.0042410069301093</speed>
  <fix>3d</fix>
</trkpt>
<trkpt lat="33.8105013" lon="-118.3941836">
  <ele>-24.4</ele>
  <time>2026-09-02T22:08:56Z</time>
  <course>53.41</course>
  <speed>0.99</speed>
  <fix>3d</fix>
</trkpt>
<trkpt lat="33.8105027" lon="-118.3941817">
  <ele>-25.009</ele>
  <time>2026-09-02T22:08:56Z</time>
  <course>51.96</course>
  <speed>1.0042410069301093</speed>
  <fix>3d</fix>
</trkpt>
<trkpt lat="33.8105013" lon="-118.3941836">
  <ele>-24.4</ele>
  <time>2026-09-02T22:08:56Z</time>
  <course>53.41</course>
  <speed>0.99</speed>
  <fix>3d</fix>
</trkpt>
<trkpt lat="33.8105033" lon="-118.3941808">
  <ele>-25.009</ele>
  <time>2026-09-02T22:08:56Z</time>
  <course>51.96</course>
  <speed>1.0042410069301093</speed>
  <fix>3d</fix>
</trkpt>
<trkpt lat="33.8105023" lon="-118.3941819">
  <ele>-24.4</ele>
  <time>2026-09-02T22:08:56Z</time>
  <course>53.42</course>
  <speed>0.99</speed>
  <fix>3d</fix>
</trkpt>
<trkpt lat="33.8105038" lon="-118.3941799">
  <ele>-25.01</ele>
  <time>2026-09-02T22:08:56Z</time>
  <course>51.97</course>
  <speed>1.0042410069301093</speed>
  <fix>3d</fix>
</trkpt>
<trkpt lat="33.8105023" lon="-118.3941819">
  <ele>-24.4</ele>
  <time>2026-09-02T22:08:56Z</time>
  <course>53.42</course>
  <speed>0.99</speed>
  <fix>3d</fix>
</trkpt>
<trkpt lat="33.8105043" lon="-118.3941791">
  <ele>-25.011</ele>
  <time>2026-09-02T22:08:56Z</time>
  <course>51.97</course>
  <speed>1.0042410069301093</speed>
  <fix>3d</fix>
</trkpt>
<trkpt lat="33.8105034" lon="-118.3941802">
  <ele>-24.4</ele>
  <time>2026-09-02T22:08:56Z</time>
  <course>53.42</course>
  <speed>0.99</speed>
  <fix>3d</fix>
</trkpt>
<trkpt lat="33.8105049" lon="-118.3941782">
  <ele>-25.011</ele>
  <time>2026-09-02T22:08:56Z</time>
  <course>51.97</course>
  <speed>1.0042410069301093</speed>
  <fix>3d</fix>
</trkpt>
<trkpt lat="33.8105034" lon="-118.3941802">
  <ele>-24.4</ele>
  <time>2026-09-02T22:08:56Z</time>
  <course>53.42</course>
  <speed>0.99</speed>
  <fix>3d</fix>
</trkpt>
<trkpt lat="33.8105054" lon="-118.3941773">
  <ele>-25.01</ele>
  <time>2026-09-02T22:08:56Z</time>
  <course>51.97</course>
  <speed>1.0042410069301093</speed>
  <fix>3d</fix>
</trkpt>
<trkpt lat="33.8105045" lon="-118.3941785">
  <ele>-24.4</ele>
  <time>2026-09-02T22:08:56Z</time>
  <course>53.42</course>
  <speed>0.99</speed>
  <fix>3d</fix>
</trkpt>
<trkpt lat="33.8105059" lon="-118.3941765">
  <ele>-25.008</ele>
  <time>2026-09-02T22:08:56Z</time>
  <course>51.99</course>
  <speed>1.0121264743103995</speed>
  <fix>3d</fix>
</trkpt>
<trkpt lat="33.8105045" lon="-118.3941785">
  <ele>-24.4</ele>
  <time>2026-09-02T22:08:56Z</time>
  <course>53.42</course>
  <speed>0.99</speed>
  <fix>3d</fix>
</trkpt>
<trkpt lat="33.8105065" lon="-118.3941756">
  <ele>-25.006</ele>
  <time>2026-09-02T22:08:56Z</time>
  <course>52.01</course>
  <speed>1.0042410069301093</speed>
  <fix>3d</fix>
</trkpt>
<trkpt lat="33.8105055" lon="-118.3941767">
  <ele>-24.4</ele>
  <time>2026-09-02T22:08:56Z</time>
  <course>53.47</course>
  <speed>0.99</speed>
  <fix>3d</fix>
</trkpt>
<trkpt lat="33.810507" lon="-118.3941747">
  <ele>-25.004</ele>
  <time>2026-09-02T22:08:56Z</time>
  <course>52.03</course>
  <speed>1.0042410069301093</speed>
  <fix>3d</fix>
</trkpt>
<trkpt lat="33.8105055" lon="-118.3941767">
  <ele>-24.4</ele>
  <time>2026-09-02T22:08:56Z</time>
  <course>53.47</course>
  <speed>0.99</speed>
  <fix>3d</fix>
</trkpt>
<trkpt lat="33.8105075" lon="-118.3941739">
  <ele>-25.002</ele>
  <time>2026-09-02T22:08:56Z</time>
  <course>52.04</course>
  <speed>1.0042410069301093</speed>
  <fix>3d</fix>
</trkpt>
<trkpt lat="33.8105066" lon="-118.394175">
  <ele>-24.4</ele>
  <time>2026-09-02T22:08:56Z</time>
  <course>53.51</course>
  <speed>0.99</speed>
  <fix>3d</fix>
</trkpt>
<trkpt lat="33.8105081" lon="-118.394173">
  <ele>-25.002</ele>
  <time>2026-09-02T22:08:56Z</time>
  <course>52.04</course>
  <speed>1.0121264743103995</speed>
  <fix>3d</fix>
</trkpt>
<trkpt lat="33.8105066" lon="-118.394175">
  <ele>-24.4</ele>
  <time>2026-09-02T22:08:56Z</time>
  <course>53.51</course>
  <speed>0.99</speed>
  <fix>3d</fix>
</trkpt>
<trkpt lat="33.8105086" lon="-118.3941721">
  <ele>-25.003</ele>
  <time>2026-09-02T22:08:56Z</time>
  <course>52.05</course>
  <speed>1.0121264743103995</speed>
  <fix>3d</fix>
</trkpt>
<trkpt lat="33.8105077" lon="-118.3941733">
  <ele>-24.4</ele>
  <time>2026-09-02T22:08:56Z</time>
  <course>53.5</course>
  <speed>0.99</speed>
  <fix>3d</fix>
</trkpt>
<trkpt lat="33.8105091" lon="-118.3941713">
  <ele>-25.004</ele>
  <time>2026-09-02T22:08:56Z</time>
  <course>52.05</course>
  <speed>1.0121264743103995</speed>
  <fix>3d</fix>
</trkpt>
<trkpt lat="33.8105077" lon="-118.3941733">
  <ele>-24.4</ele>
  <time>2026-09-02T22:08:56Z</time>
  <course>53.5</course>
  <speed>0.99</speed>
  <fix>3d</fix>
</trkpt>
<trkpt lat="33.8105097" lon="-118.3941704">
  <ele>-25.004</ele>
  <time>2026-09-02T22:08:56Z</time>
  <course>52.06</course>
  <speed>1.0121264743103995</speed>
  <fix>3d</fix>
</trkpt>
<trkpt lat="33.8105087" lon="-118.3941715">
  <ele>-24.4</ele>
  <time>2026-09-02T22:08:56Z</time>
  <course>53.52</course>
  <speed>0.99</speed>
  <fix>3d</fix>
</trkpt>
<trkpt lat="33.8105102" lon="-118.3941695">
  <ele>-25.005</ele>
  <time>2026-09-02T22:08:56Z</time>
  <course>52.08</course>
  <speed>1.0121264743103995</speed>
  <fix>3d</fix>
</trkpt>
<trkpt lat="33.8105087" lon="-118.3941715">
  <ele>-24.4</ele>
  <time>2026-09-02T22:08:56Z</time>
  <course>53.52</course>
  <speed>0.99</speed>
  <fix>3d</fix>
</trkpt>
<trkpt lat="33.8105107" lon="-118.3941687">
  <ele>-25.005</ele>
  <time>2026-09-02T22:08:56Z</time>
  <course>52.08</course>
  <speed>1.0121264743103995</speed>
  <fix>3d</fix>
</trkpt>
<trkpt lat="33.8105098" lon="-118.3941698">
  <ele>-24.4</ele>
  <time>2026-09-02T22:08:56Z</time>
  <course>53.54</course>
  <speed>0.99</speed>
  <fix>3d</fix>
</trkpt>
<trkpt lat="33.8105113" lon="-118.3941678">
  <ele>-25.006</ele>
  <time>2026-09-02T22:08:56Z</time>
  <course>52.08</course>
  <speed>1.0121264743103995</speed>
  <fix>3d</fix>
</trkpt>
<trkpt lat="33.8105098" lon="-118.3941698">
  <ele>-24.4</ele>
  <time>2026-09-02T22:08:56Z</time>
  <course>53.54</course>
  <speed>0.99</speed>
  <fix>3d</fix>
</trkpt>
<trkpt lat="33.8105118" lon="-118.3941669">
  <ele>-25.007</ele>
  <time>2026-09-02T22:08:56Z</time>
  <course>52.07</course>
  <speed>1.0121264743103995</speed>
  <fix>3d</fix>
</trkpt>
<trkpt lat="33.8105109" lon="-118.3941681">
  <ele>-24.4</ele>
  <time>2026-09-02T22:08:56Z</time>
  <course>53.52</course>
  <speed>0.99</speed>
  <fix>3d</fix>
</trkpt>
<trkpt lat="33.8105124" lon="-118.3941661">
  <ele>-25.008</ele>
  <time>2026-09-02T22:08:56Z</time>
  <course>52.08</course>
  <speed>1.0121264743103995</speed>
  <fix>3d</fix>
</trkpt>
<trkpt lat="33.8105109" lon="-118.3941681">
  <ele>-24.4</ele>
  <time>2026-09-02T22:08:56Z</time>
  <course>53.52</course>
  <speed>0.99</speed>
  <fix>3d</fix>
</trkpt>
<trkpt lat="33.8105129" lon="-118.3941652">
  <ele>-25.01</ele>
  <time>2026-09-02T22:08:56Z</time>
  <course>52.09</course>
  <speed>1.0121264743103995</speed>
  <fix>3d</fix>
</trkpt>
<trkpt lat="33.8105119" lon="-118.3941663">
  <ele>-24.41</ele>
  <time>2026-09-02T22:08:56Z</time>
  <course>53.53</course>
  <speed>0.99</speed>
  <fix>3d</fix>
</trkpt>
<trkpt lat="33.8105134" lon="-118.3941643">
  <ele>-25.011</ele>
  <time>2026-09-02T22:08:56Z</time>
  <course>52.11</course>
  <speed>1.0121264743103995</speed>
  <fix>3d</fix>
</trkpt>
<trkpt lat="33.8105119" lon="-118.3941663">
  <ele>-24.41</ele>
  <time>2026-09-02T22:08:56Z</time>
  <course>53.53</course>
  <speed>0.99</speed>
  <fix>3d</fix>
</trkpt>
<trkpt lat="33.810514" lon="-118.3941634">
  <ele>-25.012</ele>
  <time>2026-09-02T22:08:56Z</time>
  <course>52.11</course>
  <speed>1.0121264743103995</speed>
  <fix>3d</fix>
</trkpt>
<trkpt lat="33.810513" lon="-118.3941646">
  <ele>-24.41</ele>
  <time>2026-09-02T22:08:56Z</time>
  <course>53.55</course>
  <speed>0.99</speed>
  <fix>3d</fix>
</trkpt>
<trkpt lat="33.8105145" lon="-118.3941626">
  <ele>-25.013</ele>
  <time>2026-09-02T22:08:56Z</time>
  <course>52.1</course>
  <speed>1.0121264743103995</speed>
  <fix>3d</fix>
</trkpt>
<trkpt lat="33.810513" lon="-118.3941646">
  <ele>-24.41</ele>
  <time>2026-09-02T22:08:56Z</time>
  <course>53.55</course>
  <speed>0.99</speed>
  <fix>3d</fix>
</trkpt>
<trkpt lat="33.810515" lon="-118.3941617">
  <ele>-25.012</ele>
  <time>2026-09-02T22:08:56Z</time>
  <course>52.1</course>
  <speed>1.0121264743103995</speed>
  <fix>3d</fix>
</trkpt>
<trkpt lat="33.8105141" lon="-118.3941629">
  <ele>-24.4</ele>
  <time>2026-09-02T22:08:56Z</time>
  <course>53.53</course>
  <speed>0.99</speed>
  <fix>3d</fix>
</trkpt>
<trkpt lat="33.8105156" lon="-118.3941608">
  <ele>-25.01</ele>
  <time>2026-09-02T22:08:56Z</time>
  <course>52.1</course>
  <speed>1.0121264743103995</speed>
  <fix>3d</fix>
</trkpt>
<trkpt lat="33.8105141" lon="-118.3941629">
  <ele>-24.4</ele>
  <time>2026-09-02T22:08:56Z</time>
  <course>53.53</course>
  <speed>0.99</speed>
  <fix>3d</fix>
</trkpt>
<trkpt lat="33.8105161" lon="-118.39416">
  <ele>-25.008</ele>
  <time>2026-09-02T22:08:56Z</time>
  <course>52.11</course>
  <speed>1.0121264743103995</speed>
  <fix>3d</fix>
</trkpt>
<trkpt lat="33.8105151" lon="-118.3941611">
  <ele>-24.4</ele>
  <time>2026-09-02T22:08:56Z</time>
  <course>53.54</course>
  <speed>0.99</speed>
  <fix>3d</fix>
</trkpt>
<trkpt lat="33.8105166" lon="-118.3941591">
  <ele>-25.006</ele>
  <time>2026-09-02T22:08:56Z</time>
  <course>52.13</course>
  <speed>1.0121264743103995</speed>
  <fix>3d</fix>
</trkpt>
<trkpt lat="33.8105151" lon="-118.3941611">
  <ele>-24.4</ele>
  <time>2026-09-02T22:08:56Z</time>
  <course>53.54</course>
  <speed>0.99</speed>
  <fix>3d</fix>
</trkpt>
<trkpt lat="33.8105172" lon="-118.3941582">
  <ele>-25.004</ele>
  <time>2026-09-02T22:08:56Z</time>
  <course>52.13</course>
  <speed>1.0121264743103995</speed>
  <fix>3d</fix>
</trkpt>
<trkpt lat="33.8105162" lon="-118.3941594">
  <ele>-24.4</ele>
  <time>2026-09-02T22:08:56Z</time>
  <course>53.54</course>
  <speed>0.99</speed>
  <fix>3d</fix>
</trkpt>
<trkpt lat="33.8105177" lon="-118.3941574">
  <ele>-25.003</ele>
  <time>2026-09-02T22:08:56Z</time>
  <course>52.13</course>
  <speed>1.0121264743103995</speed>
  <fix>3d</fix>
</trkpt>
<trkpt lat="33.8105162" lon="-118.3941594">
  <ele>-24.4</ele>
  <time>2026-09-02T22:08:56Z</time>
  <course>53.54</course>
  <speed>0.99</speed>
  <fix>3d</fix>
</trkpt>
<trkpt lat="33.8105182" lon="-118.3941565">
  <ele>-25.004</ele>
  <time>2026-09-02T22:08:56Z</time>
  <course>52.12</course>
  <speed>1.0121264743103995</speed>
  <fix>3d</fix>
</trkpt>
<trkpt lat="33.8105173" lon="-118.3941577">
  <ele>-24.4</ele>
  <time>2026-09-02T22:08:56Z</time>
  <course>53.53</course>
  <speed>0.99</speed>
  <fix>3d</fix>
</trkpt>
<trkpt lat="33.8105188" lon="-118.3941556">
  <ele>-25.005</ele>
  <time>2026-09-02T22:08:56Z</time>
  <course>52.12</course>
  <speed>1.0121264743103995</speed>
  <fix>3d</fix>
</trkpt>
<trkpt lat="33.8105173" lon="-118.3941577">
  <ele>-24.4</ele>
  <time>2026-09-02T22:08:56Z</time>
  <course>53.53</course>
  <speed>0.99</speed>
  <fix>3d</fix>
</trkpt>
<trkpt lat="33.8105193" lon="-118.3941548">
  <ele>-25.007</ele>
  <time>2026-09-02T22:08:56Z</time>
  <course>52.14</course>
  <speed>1.0121264743103995</speed>
  <fix>3d</fix>
</trkpt>
<trkpt lat="33.8105183" lon="-118.3941559">
  <ele>-24.4</ele>
  <time>2026-09-02T22:08:56Z</time>
  <course>53.56</course>
  <speed>0.99</speed>
  <fix>3d</fix>
</trkpt>
<trkpt lat="33.8105198" lon="-118.3941539">
  <ele>-25.008</ele>
  <time>2026-09-02T22:08:56Z</time>
  <course>52.15</course>
  <speed>1.0121264743103995</speed>
  <fix>3d</fix>
</trkpt>
<trkpt lat="33.8105183" lon="-118.3941559">
  <ele>-24.4</ele>
  <time>2026-09-02T22:08:56Z</time>
  <course>53.56</course>
  <speed>0.99</speed>
  <fix>3d</fix>
</trkpt>
<trkpt lat="33.8105204" lon="-118.394153">
  <ele>-25.009</ele>
  <time>2026-09-02T22:08:56Z</time>
  <course>52.15</course>
  <speed>1.0121264743103995</speed>
  <fix>3d</fix>
</trkpt>
<trkpt lat="33.8105194" lon="-118.3941542">
  <ele>-24.4</ele>
  <time>2026-09-02T22:08:56Z</time>
  <course>53.58</course>
  <speed>0.99</speed>
  <fix>3d</fix>
</trkpt>
<trkpt lat="33.8105209" lon="-118.3941522">
  <ele>-25.009</ele>
  <time>2026-09-02T22:08:56Z</time>
  <course>52.15</course>
  <speed>1.0121264743103995</speed>
  <fix>3d</fix>
</trkpt>
<trkpt lat="33.8105194" lon="-118.3941542">
  <ele>-24.4</ele>
  <time>2026-09-02T22:08:56Z</time>
  <course>53.58</course>
  <speed>0.99</speed>
  <fix>3d</fix>
</trkpt>
<trkpt lat="33.8105214" lon="-118.3941513">
  <ele>-25.009</ele>
  <time>2026-09-02T22:08:56Z</time>
  <course>52.13</course>
  <speed>1.0121264743103995</speed>
  <fix>3d</fix>
</trkpt>
<trkpt lat="33.8105204" lon="-118.3941525">
  <ele>-24.4</ele>
  <time>2026-09-02T22:08:56Z</time>
  <course>53.56</course>
  <speed>0.99</speed>
  <fix>3d</fix>
</trkpt>
<trkpt lat="33.810522" lon="-118.3941504">
  <ele>-25.007</ele>
  <time>2026-09-02T22:08:56Z</time>
  <course>52.12</course>
  <speed>1.0121264743103995</speed>
  <fix>3d</fix>
</trkpt>
<trkpt lat="33.8105204" lon="-118.3941525">
  <ele>-24.4</ele>
  <time>2026-09-02T22:08:56Z</time>
  <course>53.56</course>
  <speed>0.99</speed>
  <fix>3d</fix>
</trkpt>
<trkpt lat="33.8105225" lon="-118.3941496">
  <ele>-25.006</ele>
  <time>2026-09-02T22:08:56Z</time>
  <course>52.11</course>
  <speed>1.0121264743103995</speed>
  <fix>3d</fix>
</trkpt>
<trkpt lat="33.8105215" lon="-118.3941507">
  <ele>-24.4</ele>
  <time>2026-09-02T22:08:56Z</time>
  <course>53.53</course>
  <speed>0.99</speed>
  <fix>3d</fix>
</trkpt>
<trkpt lat="33.810523" lon="-118.3941487">
  <ele>-25.005</ele>
  <time>2026-09-02T22:08:56Z</time>
  <course>52.1</course>
  <speed>1.0121264743103995</speed>
  <fix>3d</fix>
</trkpt>
<trkpt lat="33.8105215" lon="-118.3941507">
  <ele>-24.4</ele>
  <time>2026-09-02T22:08:56Z</time>
  <course>53.53</course>
  <speed>0.99</speed>
  <fix>3d</fix>
</trkpt>
<trkpt lat="33.8105236" lon="-118.3941478">
  <ele>-25.005</ele>
  <time>2026-09-02T22:08:56Z</time>
  <course>52.08</course>
  <speed>1.0121264743103995</speed>
  <fix>3d</fix>
</trkpt>
<trkpt lat="33.8105226" lon="-118.394149">
  <ele>-24.4</ele>
  <time>2026-09-02T22:08:56Z</time>
  <course>53.49</course>
  <speed>1.0</speed>
  <fix>3d</fix>
</trkpt>
<trkpt lat="33.8105241" lon="-118.3941469">
  <ele>-25.004</ele>
  <time>2026-09-02T22:08:56Z</time>
  <course>52.07</course>
  <speed>1.0121264743103995</speed>
  <fix>3d</fix>
</trkpt>
<trkpt lat="33.8105226" lon="-118.394149">
  <ele>-24.4</ele>
  <time>2026-09-02T22:08:56Z</time>
  <course>53.49</course>
  <speed>1.0</speed>
  <fix>3d</fix>
</trkpt>
<trkpt lat="33.8105246" lon="-118.3941461">
  <ele>-25.004</ele>
  <time>2026-09-02T22:08:56Z</time>
  <course>52.07</course>
  <speed>1.0121264743103995</speed>
  <fix>3d</fix>
</trkpt>
<trkpt lat="33.8105237" lon="-118.3941472">
  <ele>-24.4</ele>
  <time>2026-09-02T22:08:56Z</time>
  <course>53.48</course>
  <speed>1.0</speed>
  <fix>3d</fix>
</trkpt>
<trkpt lat="33.8105252" lon="-118.3941452">
  <ele>-25.005</ele>
  <time>2026-09-02T22:08:56Z</time>
  <course>52.08</course>
  <speed>1.0121264743103995</speed>
  <fix>3d</fix>
</trkpt>
<trkpt lat="33.8105237" lon="-118.3941472">
  <ele>-24.4</ele>
  <time>2026-09-02T22:08:56Z</time>
  <course>53.48</course>
  <speed>1.0</speed>
  <fix>3d</fix>
</trkpt>
<trkpt lat="33.8105257" lon="-118.3941443">
  <ele>-25.006</ele>
  <time>2026-09-02T22:08:56Z</time>
  <course>52.09</course>
  <speed>1.0121264743103995</speed>
  <fix>3d</fix>
</trkpt>
<trkpt lat="33.8105247" lon="-118.3941455">
  <ele>-24.4</ele>
  <time>2026-09-02T22:08:56Z</time>
  <course>53.5</course>
  <speed>0.99</speed>
  <fix>3d</fix>
</trkpt>
<trkpt lat="33.8105262" lon="-118.3941435">
  <ele>-25.007</ele>
  <time>2026-09-02T22:08:56Z</time>
  <course>52.1</course>
  <speed>1.0121264743103995</speed>
  <fix>3d</fix>
</trkpt>
<trkpt lat="33.8105247" lon="-118.3941455">
  <ele>-24.4</ele>
  <time>2026-09-02T22:08:56Z</time>
  <course>53.5</course>
  <speed>0.99</speed>
  <fix>3d</fix>
</trkpt>
<trkpt lat="33.8105268" lon="-118.3941426">
  <ele>-25.008</ele>
  <time>2026-09-02T22:08:56Z</time>
  <course>52.1</course>
  <speed>1.0121264743103995</speed>
  <fix>3d</fix>
</trkpt>
<trkpt lat="33.8105258" lon="-118.3941438">
  <ele>-24.4</ele>
  <time>2026-09-02T22:08:56Z</time>
  <course>53.51</course>
  <speed>0.99</speed>
  <fix>3d</fix>
</trkpt>
<trkpt lat="33.8105273" lon="-118.3941417">
  <ele>-25.008</ele>
  <time>2026-09-02T22:08:56Z</time>
  <course>52.1</course>
  <speed>1.0121264743103995</speed>
  <fix>3d</fix>
</trkpt>
<trkpt lat="33.8105258" lon="-118.3941438">
  <ele>-24.4</ele>
  <time>2026-09-02T22:08:56Z</time>
  <course>53.51</course>
  <speed>0.99</speed>
  <fix>3d</fix>
</trkpt>
<trkpt lat="33.8105278" lon="-118.3941409">
  <ele>-25.007</ele>
  <time>2026-09-02T22:08:56Z</time>
  <course>52.1</course>
  <speed>1.0121264743103995</speed>
  <fix>3d</fix>
</trkpt>
<trkpt lat="33.8105269" lon="-118.394142">
  <ele>-24.4</ele>
  <time>2026-09-02T22:08:56Z</time>
  <course>53.5</course>
  <speed>0.99</speed>
  <fix>3d</fix>
</trkpt>
<trkpt lat="33.8105284" lon="-118.39414">
  <ele>-25.005</ele>
  <time>2026-09-02T22:08:56Z</time>
  <course>52.11</course>
  <speed>1.0121264743103995</speed>
  <fix>3d</fix>
</trkpt>
<trkpt lat="33.8105269" lon="-118.394142">
  <ele>-24.4</ele>
  <time>2026-09-02T22:08:56Z</time>
  <course>53.5</course>
  <speed>0.99</speed>
  <fix>3d</fix>
</trkpt>
<trkpt lat="33.8105289" lon="-118.3941391">
  <ele>-25.004</ele>
  <time>2026-09-02T22:08:56Z</time>
  <course>52.12</course>
  <speed>1.0121264743103995</speed>
  <fix>3d</fix>
</trkpt>
<trkpt lat="33.8105279" lon="-118.3941403">
  <ele>-24.4</ele>
  <time>2026-09-02T22:08:56Z</time>
  <course>53.52</course>
  <speed>0.99</speed>
  <fix>3d</fix>
</trkpt>
<trkpt lat="33.8105295" lon="-118.3941382">
  <ele>-25.004</ele>
  <time>2026-09-02T22:08:56Z</time>
  <course>52.13</course>
  <speed>1.0121264743103995</speed>
  <fix>3d</fix>
</trkpt>
<trkpt lat="33.8105279" lon="-118.3941403">
  <ele>-24.4</ele>
  <time>2026-09-02T22:08:56Z</time>
  <course>53.52</course>
  <speed>0.99</speed>
  <fix>3d</fix>
</trkpt>
<trkpt lat="33.81053" lon="-118.3941374">
  <ele>-25.004</ele>
  <time>2026-09-02T22:08:56Z</time>
  <course>52.12</course>
  <speed>1.0121264743103995</speed>
  <fix>3d</fix>
</trkpt>
<trkpt lat="33.810529" lon="-118.3941386">
  <ele>-24.4</ele>
  <time>2026-09-02T22:08:56Z</time>
  <course>53.53</course>
  <speed>0.99</speed>
  <fix>3d</fix>
</trkpt>
<trkpt lat="33.8105305" lon="-118.3941365">
  <ele>-25.006</ele>
  <time>2026-09-02T22:08:56Z</time>
  <course>52.11</course>
  <speed>1.0121264743103995</speed>
  <fix>3d</fix>
</trkpt>
<trkpt lat="33.810529" lon="-118.3941386">
  <ele>-24.4</ele>
  <time>2026-09-02T22:08:56Z</time>
  <course>53.53</course>
  <speed>0.99</speed>
  <fix>3d</fix>
</trkpt>
<trkpt lat="33.8105311" lon="-118.3941356">
  <ele>-25.008</ele>
  <time>2026-09-02T22:08:56Z</time>
  <course>52.12</course>
  <speed>1.0121264743103995</speed>
  <fix>3d</fix>
</trkpt>
<trkpt lat="33.81053" lon="-118.3941368">
  <ele>-24.4</ele>
  <time>2026-09-02T22:08:56Z</time>
  <course>53.52</course>
  <speed>0.99</speed>
  <fix>3d</fix>
</trkpt>
<trkpt lat="33.8105316" lon="-118.3941348">
  <ele>-25.008</ele>
  <time>2026-09-02T22:08:56Z</time>
  <course>52.12</course>
  <speed>1.0121264743103995</speed>
  <fix>3d</fix>
</trkpt>
<trkpt lat="33.81053" lon="-118.3941368">
  <ele>-24.4</ele>
  <time>2026-09-02T22:08:56Z</time>
  <course>53.52</course>
  <speed>0.99</speed>
  <fix>3d</fix>
</trkpt>
<trkpt lat="33.8105321" lon="-118.3941339">
  <ele>-25.007</ele>
  <time>2026-09-02T22:08:56Z</time>
  <course>52.1</course>
  <speed>1.0121264743103995</speed>
  <fix>3d</fix>
</trkpt>
<trkpt lat="33.8105311" lon="-118.3941351">
  <ele>-24.4</ele>
  <time>2026-09-02T22:08:56Z</time>
  <course>53.5</course>
  <speed>1.0</speed>
  <fix>3d</fix>
</trkpt>
<trkpt lat="33.8105326" lon="-118.394133">
  <ele>-25.006</ele>
  <time>2026-09-02T22:08:56Z</time>
  <course>52.08</course>
  <speed>1.0121264743103995</speed>
  <fix>3d</fix>
</trkpt>
<trkpt lat="33.8105311" lon="-118.3941351">
  <ele>-24.4</ele>
  <time>2026-09-02T22:08:56Z</time>
  <course>53.5</course>
  <speed>1.0</speed>
  <fix>3d</fix>
</trkpt>
<trkpt lat="33.8105332" lon="-118.3941322">
  <ele>-25.004</ele>
  <time>2026-09-02T22:08:56Z</time>
  <course>52.06</course>
  <speed>1.0121264743103995</speed>
  <fix>3d</fix>
</trkpt>
<trkpt lat="33.8105322" lon="-118.3941333">
  <ele>-24.4</ele>
  <time>2026-09-02T22:08:56Z</time>
  <course>53.46</course>
  <speed>1.0</speed>
  <fix>3d</fix>
</trkpt>
<trkpt lat="33.8105337" lon="-118.3941313">
  <ele>-25.003</ele>
  <time>2026-09-02T22:08:56Z</time>
  <course>52.04</course>
  <speed>1.0121264743103995</speed>
  <fix>3d</fix>
</trkpt>
<trkpt lat="33.8105322" lon="-118.3941333">
  <ele>-24.4</ele>
  <time>2026-09-02T22:08:56Z</time>
  <course>53.46</course>
  <speed>1.0</speed>
  <fix>3d</fix>
</trkpt>
<trkpt lat="33.8105343" lon="-118.3941304">
  <ele>-25.002</ele>
  <time>2026-09-02T22:08:56Z</time>
  <course>52.03</course>
  <speed>1.0121264743103995</speed>
  <fix>3d</fix>
</trkpt>
<trkpt lat="33.8105333" lon="-118.3941316">
  <ele>-24.4</ele>
  <time>2026-09-02T22:08:56Z</time>
  <course>53.43</course>
  <speed>1.0</speed>
  <fix>3d</fix>
</trkpt>
<trkpt lat="33.8105348" lon="-118.3941295">
  <ele>-25.003</ele>
  <time>2026-09-02T22:08:56Z</time>
  <course>52.02</course>
  <speed>1.0121264743103995</speed>
  <fix>3d</fix>
</trkpt>
<trkpt lat="33.8105333" lon="-118.3941316">
  <ele>-24.4</ele>
  <time>2026-09-02T22:08:56Z</time>
  <course>53.43</course>
  <speed>1.0</speed>
  <fix>3d</fix>
</trkpt>
<trkpt lat="33.8105353" lon="-118.3941287">
  <ele>-25.004</ele>
  <time>2026-09-02T22:08:56Z</time>
  <course>52.03</course>
  <speed>1.0121264743103995</speed>
  <fix>3d</fix>
</trkpt>
<trkpt lat="33.8105343" lon="-118.3941299">
  <ele>-24.4</ele>
  <time>2026-09-02T22:08:56Z</time>
  <course>53.43</course>
  <speed>1.0</speed>
  <fix>3d</fix>
</trkpt>
<trkpt lat="33.8105359" lon="-118.3941278">
  <ele>-25.004</ele>
  <time>2026-09-02T22:08:56Z</time>
  <course>52.04</course>
  <speed>1.0121264743103995</speed>
  <fix>3d</fix>
</trkpt>
<trkpt lat="33.8105343" lon="-118.3941299">
  <ele>-24.4</ele>
  <time>2026-09-02T22:08:56Z</time>
  <course>53.43</course>
  <speed>1.0</speed>
  <fix>3d</fix>
</trkpt>
<trkpt lat="33.8105364" lon="-118.3941269">
  <ele>-25.004</ele>
  <time>2026-09-02T22:08:56Z</time>
  <course>52.05</course>
  <speed>1.0121264743103995</speed>
  <fix>3d</fix>
</trkpt>
<trkpt lat="33.8105354" lon="-118.3941281">
  <ele>-24.4</ele>
  <time>2026-09-02T22:08:56Z</time>
  <course>53.45</course>
  <speed>1.0</speed>
  <fix>3d</fix>
</trkpt>
<trkpt lat="33.8105369" lon="-118.3941261">
  <ele>-25.005</ele>
  <time>2026-09-02T22:08:56Z</time>
  <course>52.06</course>
  <speed>1.0121264743103995</speed>
  <fix>3d</fix>
</trkpt>
<trkpt lat="33.8105354" lon="-118.3941281">
  <ele>-24.4</ele>
  <time>2026-09-02T22:08:56Z</time>
  <course>53.45</course>
  <speed>1.0</speed>
  <fix>3d</fix>
</trkpt>
<trkpt lat="33.8105375" lon="-118.3941252">
  <ele>-25.004</ele>
  <time>2026-09-02T22:08:56Z</time>
  <course>52.06</course>
  <speed>1.0121264743103995</speed>
  <fix>3d</fix>
</trkpt>
<trkpt lat="33.8105365" lon="-118.3941264">
  <ele>-24.4</ele>
  <time>2026-09-02T22:08:56Z</time>
  <course>53.45</course>
  <speed>1.0</speed>
  <fix>3d</fix>
</trkpt>
<trkpt lat="33.810538" lon="-118.3941243">
  <ele>-25.004</ele>
  <time>2026-09-02T22:08:56Z</time>
  <course>52.06</course>
  <speed>1.0121264743103995</speed>
  <fix>3d</fix>
</trkpt>
<trkpt lat="33.8105365" lon="-118.3941264">
  <ele>-24.4</ele>
  <time>2026-09-02T22:08:56Z</time>
  <course>53.45</course>
  <speed>1.0</speed>
  <fix>3d</fix>
</trkpt>
<trkpt lat="33.8105385" lon="-118.3941235">
  <ele>-25.003</ele>
  <time>2026-09-02T22:08:56Z</time>
  <course>52.07</course>
  <speed>1.0121264743103995</speed>
  <fix>3d</fix>
</trkpt>
<trkpt lat="33.8105375" lon="-118.3941247">
  <ele>-24.4</ele>
  <time>2026-09-02T22:08:56Z</time>
  <course>53.45</course>
  <speed>1.0</speed>
  <fix>3d</fix>
</trkpt>
<trkpt lat="33.8105391" lon="-118.3941226">
  <ele>-25.004</ele>
  <time>2026-09-02T22:08:56Z</time>
  <course>52.08</course>
  <speed>1.0121264743103995</speed>
  <fix>3d</fix>
</trkpt>
<trkpt lat="33.8105375" lon="-118.3941247">
  <ele>-24.4</ele>
  <time>2026-09-02T22:08:56Z</time>
  <course>53.45</course>
  <speed>1.0</speed>
  <fix>3d</fix>
</trkpt>
<trkpt lat="33.8105396" lon="-118.3941217">
  <ele>-25.005</ele>
  <time>2026-09-02T22:08:56Z</time>
  <course>52.08</course>
  <speed>1.0121264743103995</speed>
  <fix>3d</fix>
</trkpt>
<trkpt lat="33.8105386" lon="-118.3941229">
  <ele>-24.4</ele>
  <time>2026-09-02T22:08:56Z</time>
  <course>53.46</course>
  <speed>1.0</speed>
  <fix>3d</fix>
</trkpt>
<trkpt lat="33.8105401" lon="-118.3941209">
  <ele>-25.007</ele>
  <time>2026-09-02T22:08:56Z</time>
  <course>52.09</course>
  <speed>1.0121264743103995</speed>
  <fix>3d</fix>
</trkpt>
<trkpt lat="33.8105386" lon="-118.3941229">
  <ele>-24.4</ele>
  <time>2026-09-02T22:08:56Z</time>
  <course>53.46</course>
  <speed>1.0</speed>
  <fix>3d</fix>
</trkpt>
<trkpt lat="33.8105407" lon="-118.39412">
  <ele>-25.009</ele>
  <time>2026-09-02T22:08:56Z</time>
  <course>52.08</course>
  <speed>1.0121264743103995</speed>
  <fix>3d</fix>
</trkpt>
<trkpt lat="33.8105397" lon="-118.3941212">
  <ele>-24.41</ele>
  <time>2026-09-02T22:08:56Z</time>
  <course>53.45</course>
  <speed>1.0</speed>
  <fix>3d</fix>
</trkpt>
<trkpt lat="33.8105412" lon="-118.3941191">
  <ele>-25.01</ele>
  <time>2026-09-02T22:08:56Z</time>
  <course>52.08</course>
  <speed>1.0121264743103995</speed>
  <fix>3d</fix>
</trkpt>
<trkpt lat="33.8105397" lon="-118.3941212">
  <ele>-24.41</ele>
  <time>2026-09-02T22:08:56Z</time>
  <course>53.45</course>
  <speed>1.0</speed>
  <fix>3d</fix>
</trkpt>
<trkpt lat="33.8105417" lon="-118.3941182">
  <ele>-25.011</ele>
  <time>2026-09-02T22:08:56Z</time>
  <course>52.08</course>
  <speed>1.0121264743103995</speed>
  <fix>3d</fix>
</trkpt>
<trkpt lat="33.8105408" lon="-118.3941194">
  <ele>-24.41</ele>
  <time>2026-09-02T22:08:56Z</time>
  <course>53.45</course>
  <speed>1.0</speed>
  <fix>3d</fix>
</trkpt>
<trkpt lat="33.8105423" lon="-118.3941174">
  <ele>-25.011</ele>
  <time>2026-09-02T22:08:56Z</time>
  <course>52.1</course>
  <speed>1.0121264743103995</speed>
  <fix>3d</fix>
</trkpt>
<trkpt lat="33.8105408" lon="-118.3941194">
  <ele>-24.41</ele>
  <time>2026-09-02T22:08:56Z</time>
  <course>53.45</course>
  <speed>1.0</speed>
  <fix>3d</fix>
</trkpt>
<trkpt lat="33.8105428" lon="-118.3941165">
  <ele>-25.01</ele>
  <time>2026-09-02T22:08:56Z</time>
  <course>52.12</course>
  <speed>1.0121264743103995</speed>
  <fix>3d</fix>
</trkpt>
<trkpt lat="33.8105418" lon="-118.3941177">
  <ele>-24.41</ele>
  <time>2026-09-02T22:08:56Z</time>
  <course>53.47</course>
  <speed>1.0</speed>
  <fix>3d</fix>
</trkpt>
<trkpt lat="33.8105433" lon="-118.3941156">
  <ele>-25.01</ele>
  <time>2026-09-02T22:08:56Z</time>
  <course>52.13</course>
  <speed>1.0121264743103995</speed>
  <fix>3d</fix>
</trkpt>
<trkpt lat="33.8105418" lon="-118.3941177">
  <ele>-24.41</ele>
  <time>2026-09-02T22:08:56Z</time>
  <course>53.47</course>
  <speed>1.0</speed>
  <fix>3d</fix>
</trkpt>
<trkpt lat="33.8105439" lon="-118.3941148">
  <ele>-25.009</ele>
  <time>2026-09-02T22:08:56Z</time>
  <course>52.13</course>
  <speed>1.0121264743103995</speed>
  <fix>3d</fix>
</trkpt>
<trkpt lat="33.8105429" lon="-118.3941159">
  <ele>-24.4</ele>
  <time>2026-09-02T22:08:56Z</time>
  <course>53.46</course>
  <speed>1.0</speed>
  <fix>3d</fix>
</trkpt>
<trkpt lat="33.8105444" lon="-118.3941139">
  <ele>-25.008</ele>
  <time>2026-09-02T22:08:56Z</time>
  <course>52.13</course>
  <speed>1.0121264743103995</speed>
  <fix>3d</fix>
</trkpt>
<trkpt lat="33.8105429" lon="-118.3941159">
  <ele>-24.4</ele>
  <time>2026-09-02T22:08:56Z</time>
  <course>53.46</course>
  <speed>1.0</speed>
  <fix>3d</fix>
</trkpt>
<trkpt lat="33.810545" lon="-118.394113">
  <ele>-25.008</ele>
  <time>2026-09-02T22:08:56Z</time>
  <course>52.12</course>
  <speed>1.0121264743103995</speed>
  <fix>3d</fix>
</trkpt>
<trkpt lat="33.810544" lon="-118.3941142">
  <ele>-24.4</ele>
  <time>2026-09-02T22:08:56Z</time>
  <course>53.42</course>
  <speed>1.0</speed>
  <fix>3d</fix>
</trkpt>
<trkpt lat="33.8105455" lon="-118.3941122">
  <ele>-25.008</ele>
  <time>2026-09-02T22:08:56Z</time>
  <course>52.12</course>
  <speed>1.0121264743103995</speed>
  <fix>3d</fix>
</trkpt>
<trkpt lat="33.810544" lon="-118.3941142">
  <ele>-24.4</ele>
  <time>2026-09-02T22:08:56Z</time>
  <course>53.42</course>
  <speed>1.0</speed>
  <fix>3d</fix>
</trkpt>
<trkpt lat="33.810546" lon="-118.3941113">
  <ele>-25.007</ele>
  <time>2026-09-02T22:08:56Z</time>
  <course>52.13</course>
  <speed>1.0121264743103995</speed>
  <fix>3d</fix>
</trkpt>
<trkpt lat="33.8105451" lon="-118.3941125">
  <ele>-24.4</ele>
  <time>2026-09-02T22:08:56Z</time>
  <course>53.42</course>
  <speed>1.0</speed>
  <fix>3d</fix>
</trkpt>
<trkpt lat="33.8105466" lon="-118.3941104">
  <ele>-25.008</ele>
  <time>2026-09-02T22:08:56Z</time>
  <course>52.15</course>
  <speed>1.0121264743103995</speed>
  <fix>3d</fix>
</trkpt>
<trkpt lat="33.8105451" lon="-118.3941125">
  <ele>-24.4</ele>
  <time>2026-09-02T22:08:56Z</time>
  <course>53.42</course>
  <speed>1.0</speed>
  <fix>3d</fix>
</trkpt>
<trkpt lat="33.8105471" lon="-118.3941096">
  <ele>-25.008</ele>
  <time>2026-09-02T22:08:56Z</time>
  <course>52.17</course>
  <speed>1.0121264743103995</speed>
  <fix>3d</fix>
</trkpt>
<trkpt lat="33.8105461" lon="-118.3941107">
  <ele>-24.4</ele>
  <time>2026-09-02T22:08:56Z</time>
  <course>53.44</course>
  <speed>1.0</speed>
  <fix>3d</fix>
</trkpt>
<trkpt lat="33.8105476" lon="-118.3941087">
  <ele>-25.008</ele>
  <time>2026-09-02T22:08:56Z</time>
  <course>52.2</course>
  <speed>1.0121264743103995</speed>
  <fix>3d</fix>
</trkpt>
<trkpt lat="33.8105461" lon="-118.3941107">
  <ele>-24.4</ele>
  <time>2026-09-02T22:08:56Z</time>
  <course>53.44</course>
  <speed>1.0</speed>
  <fix>3d</fix>
</trkpt>
<trkpt lat="33.8105482" lon="-118.3941078">
  <ele>-25.007</ele>
  <time>2026-09-02T22:08:56Z</time>
  <course>52.21</course>
  <speed>1.0121264743103995</speed>
  <fix>3d</fix>
</trkpt>
<trkpt lat="33.8105472" lon="-118.3941089">
  <ele>-24.39</ele>
  <time>2026-09-02T22:08:56Z</time>
  <course>53.45</course>
  <speed>1.0</speed>
  <fix>3d</fix>
</trkpt>
<trkpt lat="33.8105487" lon="-118.394107">
  <ele>-25.005</ele>
  <time>2026-09-02T22:08:56Z</time>
  <course>52.21</course>
  <speed>1.0121264743103995</speed>
  <fix>3d</fix>
</trkpt>
<trkpt lat="33.8105472" lon="-118.3941089">
  <ele>-24.39</ele>
  <time>2026-09-02T22:08:56Z</time>
  <course>53.45</course>
  <speed>1.0</speed>
  <fix>3d</fix>
</trkpt>
<trkpt lat="33.8105492" lon="-118.3941061">
  <ele>-25.004</ele>
  <time>2026-09-02T22:08:56Z</time>
  <course>52.2</course>
  <speed>1.0121264743103995</speed>
  <fix>3d</fix>
</trkpt>
<trkpt lat="33.8105483" lon="-118.3941072">
  <ele>-24.39</ele>
  <time>2026-09-02T22:08:56Z</time>
  <course>53.4</course>
  <speed>1.0</speed>
  <fix>3d</fix>
</trkpt>
<trkpt lat="33.8105498" lon="-118.3941052">
  <ele>-25.003</ele>
  <time>2026-09-02T22:08:56Z</time>
  <course>52.19</course>
  <speed>1.0121264743103995</speed>
  <fix>3d</fix>
</trkpt>
<trkpt lat="33.8105483" lon="-118.3941072">
  <ele>-24.39</ele>
  <time>2026-09-02T22:08:56Z</time>
  <course>53.4</course>
  <speed>1.0</speed>
  <fix>3d</fix>
</trkpt>
<trkpt lat="33.8105503" lon="-118.3941043">
  <ele>-25.003</ele>
  <time>2026-09-02T22:08:56Z</time>
  <course>52.19</course>
  <speed>1.0121264743103995</speed>
  <fix>3d</fix>
</trkpt>
<trkpt lat="33.8105494" lon="-118.3941055">
  <ele>-24.39</ele>
  <time>2026-09-02T22:08:56Z</time>
  <course>53.37</course>
  <speed>1.0</speed>
  <fix>3d</fix>
</trkpt>
<trkpt lat="33.8105508" lon="-118.3941035">
  <ele>-25.003</ele>
  <time>2026-09-02T22:08:56Z</time>
  <course>52.19</course>
  <speed>1.0121264743103995</speed>
  <fix>3d</fix>
</trkpt>
<trkpt lat="33.8105494" lon="-118.3941055">
  <ele>-24.39</ele>
  <time>2026-09-02T22:08:56Z</time>
  <course>53.37</course>
  <speed>1.0</speed>
  <fix>3d</fix>
</trkpt>
<trkpt lat="33.8105514" lon="-118.3941026">
  <ele>-25.001</ele>
  <time>2026-09-02T22:08:56Z</time>
  <course>52.21</course>
  <speed>1.0121264743103995</speed>
  <fix>3d</fix>
</trkpt>
<trkpt lat="33.8105504" lon="-118.3941037">
  <ele>-24.39</ele>
  <time>2026-09-02T22:08:56Z</time>
  <course>53.39</course>
  <speed>1.0</speed>
  <fix>3d</fix>
</trkpt>
<trkpt lat="33.8105519" lon="-118.3941017">
  <ele>-25.0</ele>
  <time>2026-09-02T22:08:56Z</time>
  <course>52.23</course>
  <speed>1.0121264743103995</speed>
  <fix>3d</fix>
</trkpt>
<trkpt lat="33.8105504" lon="-118.3941037">
  <ele>-24.39</ele>
  <time>2026-09-02T22:08:56Z</time>
  <course>53.39</course>
  <speed>1.0</speed>
  <fix>3d</fix>
</trkpt>
<trkpt lat="33.8105524" lon="-118.3941009">
  <ele>-25.0</ele>
  <time>2026-09-02T22:08:56Z</time>
  <course>52.24</course>
  <speed>1.0121264743103995</speed>
  <fix>3d</fix>
</trkpt>
<trkpt lat="33.8105515" lon="-118.394102">
  <ele>-24.39</ele>
  <time>2026-09-02T22:08:56Z</time>
  <course>53.39</course>
  <speed>1.0</speed>
  <fix>3d</fix>
</trkpt>
<trkpt lat="33.810553" lon="-118.3941">
  <ele>-25.0</ele>
  <time>2026-09-02T22:08:56Z</time>
  <course>52.24</course>
  <speed>1.0121264743103995</speed>
  <fix>3d</fix>
</trkpt>
<trkpt lat="33.8105515" lon="-118.394102">
  <ele>-24.39</ele>
  <time>2026-09-02T22:08:56Z</time>
  <course>53.39</course>
  <speed>1.0</speed>
  <fix>3d</fix>
</trkpt>
<trkpt lat="33.8105535" lon="-118.3940991">
  <ele>-25.002</ele>
  <time>2026-09-02T22:08:56Z</time>
  <course>52.24</course>
  <speed>1.0121264743103995</speed>
  <fix>3d</fix>
</trkpt>
<trkpt lat="33.8105526" lon="-118.3941003">
  <ele>-24.39</ele>
  <time>2026-09-02T22:08:56Z</time>
  <course>53.36</course>
  <speed>1.0</speed>
  <fix>3d</fix>
</trkpt>
<trkpt lat="33.810554" lon="-118.3940983">
  <ele>-25.005</ele>
  <time>2026-09-02T22:08:56Z</time>
  <course>52.25</course>
  <speed>1.0121264743103995</speed>
  <fix>3d</fix>
</trkpt>
<trkpt lat="33.8105526" lon="-118.3941003">
  <ele>-24.39</ele>
  <time>2026-09-02T22:08:56Z</time>
  <course>53.36</course>
  <speed>1.0</speed>
  <fix>3d</fix>
</trkpt>
<trkpt lat="33.8105546" lon="-118.3940974">
  <ele>-25.007</ele>
  <time>2026-09-02T22:08:56Z</time>
  <course>52.26</course>
  <speed>1.0121264743103995</speed>
  <fix>3d</fix>
</trkpt>
<trkpt lat="33.8105537" lon="-118.3940985">
  <ele>-24.4</ele>
  <time>2026-09-02T22:08:56Z</time>
  <course>53.37</course>
  <speed>1.0</speed>
  <fix>3d</fix>
</trkpt>
<trkpt lat="33.8105551" lon="-118.3940965">
  <ele>-25.008</ele>
  <time>2026-09-02T22:08:56Z</time>
  <course>52.29</course>
  <speed>1.0121264743103995</speed>
  <fix>3d</fix>
</trkpt>
<trkpt lat="33.8105537" lon="-118.3940985">
  <ele>-24.4</ele>
  <time>2026-09-02T22:08:56Z</time>
  <course>53.37</course>
  <speed>1.0</speed>
  <fix>3d</fix>
</trkpt>
<trkpt lat="33.8105557" lon="-118.3940956">
  <ele>-25.008</ele>
  <time>2026-09-02T22:08:56Z</time>
  <course>52.31</course>
  <speed>1.0121264743103995</speed>
  <fix>3d</fix>
</trkpt>
<trkpt lat="33.8105548" lon="-118.3940968">
  <ele>-24.4</ele>
  <time>2026-09-02T22:08:56Z</time>
  <course>53.4</course>
  <speed>1.0</speed>
  <fix>3d</fix>
</trkpt>
<trkpt lat="33.8105562" lon="-118.3940948">
  <ele>-25.007</ele>
  <time>2026-09-02T22:08:56Z</time>
  <course>52.35</course>
  <speed>1.0121264743103995</speed>
  <fix>3d</fix>
</trkpt>
<trkpt lat="33.8105548" lon="-118.3940968">
  <ele>-24.4</ele>
  <time>2026-09-02T22:08:56Z</time>
  <course>53.4</course>
  <speed>1.0</speed>
  <fix>3d</fix>
</trkpt>
<trkpt lat="33.8105567" lon="-118.3940939">
  <ele>-25.007</ele>
  <time>2026-09-02T22:08:56Z</time>
  <course>52.38</course>
  <speed>1.0121264743103995</speed>
  <fix>3d</fix>
</trkpt>
<trkpt lat="33.8105558" lon="-118.394095">
  <ele>-24.4</ele>
  <time>2026-09-02T22:08:56Z</time>
  <course>53.43</course>
  <speed>1.0</speed>
  <fix>3d</fix>
</trkpt>
<trkpt lat="33.8105573" lon="-118.394093">
  <ele>-25.006</ele>
  <time>2026-09-02T22:08:56Z</time>
  <course>52.41</course>
  <speed>1.0121264743103995</speed>
  <fix>3d</fix>
</trkpt>
<trkpt lat="33.8105558" lon="-118.394095">
  <ele>-24.4</ele>
  <time>2026-09-02T22:08:56Z</time>
  <course>53.43</course>
  <speed>1.0</speed>
  <fix>3d</fix>
</trkpt>
<trkpt lat="33.8105578" lon="-118.3940922">
  <ele>-25.006</ele>
  <time>2026-09-02T22:08:56Z</time>
  <course>52.43</course>
  <speed>1.0121264743103995</speed>
  <fix>3d</fix>
</trkpt>
<trkpt lat="33.8105569" lon="-118.3940933">
  <ele>-24.4</ele>
  <time>2026-09-02T22:08:56Z</time>
  <course>53.44</course>
  <speed>1.0</speed>
  <fix>3d</fix>
</trkpt>
<trkpt lat="33.8105583" lon="-118.3940913">
  <ele>-25.005</ele>
  <time>2026-09-02T22:08:56Z</time>
  <course>52.45</course>
  <speed>1.0121264743103995</speed>
  <fix>3d</fix>
</trkpt>
<trkpt lat="33.8105569" lon="-118.3940933">
  <ele>-24.4</ele>
  <time>2026-09-02T22:08:56Z</time>
  <course>53.44</course>
  <speed>1.0</speed>
  <fix>3d</fix>
</trkpt>
<trkpt lat="33.8105589" lon="-118.3940904">
  <ele>-25.005</ele>
  <time>2026-09-02T22:08:56Z</time>
  <course>52.46</course>
  <speed>1.0121264743103995</speed>
  <fix>3d</fix>
</trkpt>
<trkpt lat="33.810558" lon="-118.3940915">
  <ele>-24.4</ele>
  <time>2026-09-02T22:08:56Z</time>
  <course>53.41</course>
  <speed>1.0</speed>
  <fix>3d</fix>
</trkpt>
<trkpt lat="33.8105594" lon="-118.3940896">
  <ele>-25.006</ele>
  <time>2026-09-02T22:08:56Z</time>
  <course>52.46</course>
  <speed>1.0121264743103995</speed>
  <fix>3d</fix>
</trkpt>
<trkpt lat="33.810558" lon="-118.3940915">
  <ele>-24.4</ele>
  <time>2026-09-02T22:08:56Z</time>
  <course>53.41</course>
  <speed>1.0</speed>
  <fix>3d</fix>
</trkpt>
<trkpt lat="33.8105599" lon="-118.3940887">
  <ele>-25.007</ele>
  <time>2026-09-02T22:08:56Z</time>
  <course>52.47</course>
  <speed>1.0060318086422517</speed>
  <fix>3d</fix>
</trkpt>
<trkpt lat="33.8105591" lon="-118.3940898">
  <ele>-24.4</ele>
  <time>2026-09-02T22:08:56Z</time>
  <course>53.38</course>
  <speed>1.0</speed>
  <fix>3d</fix>
</trkpt>
<trkpt lat="33.8105605" lon="-118.3940878">
  <ele>-25.007</ele>
  <time>2026-09-02T22:08:56Z</time>
  <course>52.49</course>
  <speed>1.0060318086422517</speed>
  <fix>3d</fix>
</trkpt>
<trkpt lat="33.8105591" lon="-118.3940898">
  <ele>-24.4</ele>
  <time>2026-09-02T22:08:56Z</time>
  <course>53.38</course>
  <speed>1.0</speed>
  <fix>3d</fix>
</trkpt>
<trkpt lat="33.810561" lon="-118.3940869">
  <ele>-25.007</ele>
  <time>2026-09-02T22:08:56Z</time>
  <course>52.51</course>
  <speed>1.0060318086422517</speed>
  <fix>3d</fix>
</trkpt>
<trkpt lat="33.8105601" lon="-118.394088">
  <ele>-24.4</ele>
  <time>2026-09-02T22:08:56Z</time>
  <course>53.39</course>
  <speed>1.0</speed>
  <fix>3d</fix>
</trkpt>
<trkpt lat="33.8105616" lon="-118.3940861">
  <ele>-25.007</ele>
  <time>2026-09-02T22:08:56Z</time>
  <course>52.54</course>
  <speed>1.0060318086422517</speed>
  <fix>3d</fix>
</trkpt>
<trkpt lat="33.8105601" lon="-118.394088">
  <ele>-24.4</ele>
  <time>2026-09-02T22:08:56Z</time>
  <course>53.39</course>
  <speed>1.0</speed>
  <fix>3d</fix>
</trkpt>
<trkpt lat="33.8105621" lon="-118.3940852">
  <ele>-25.007</ele>
  <time>2026-09-02T22:08:56Z</time>
  <course>52.55</course>
  <speed>1.0060318086422517</speed>
  <fix>3d</fix>
</trkpt>
<trkpt lat="33.8105612" lon="-118.3940863">
  <ele>-24.4</ele>
  <time>2026-09-02T22:08:56Z</time>
  <course>53.39</course>
  <speed>1.0</speed>
  <fix>3d</fix>
</trkpt>
<trkpt lat="33.8105626" lon="-118.3940843">
  <ele>-25.005</ele>
  <time>2026-09-02T22:08:56Z</time>
  <course>52.55</course>
  <speed>1.0060318086422517</speed>
  <fix>3d</fix>
</trkpt>
<trkpt lat="33.8105612" lon="-118.3940863">
  <ele>-24.4</ele>
  <time>2026-09-02T22:08:56Z</time>
  <course>53.39</course>
  <speed>1.0</speed>
  <fix>3d</fix>
</trkpt>
<trkpt lat="33.8105632" lon="-118.3940835">
  <ele>-25.004</ele>
  <time>2026-09-02T22:08:56Z</time>
  <course>52.54</course>
  <speed>1.0060318086422517</speed>
  <fix>3d</fix>
</trkpt>
<trkpt lat="33.8105623" lon="-118.3940845">
  <ele>-24.39</ele>
  <time>2026-09-02T22:08:56Z</time>
  <course>53.36</course>
  <speed>1.0</speed>
  <fix>3d</fix>
</trkpt>
<trkpt lat="33.8105637" lon="-118.3940826">
  <ele>-25.003</ele>
  <time>2026-09-02T22:08:56Z</time>
  <course>52.53</course>
  <speed>1.0060318086422517</speed>
  <fix>3d</fix>
</trkpt>
<trkpt lat="33.8105623" lon="-118.3940845">
  <ele>-24.39</ele>
  <time>2026-09-02T22:08:56Z</time>
  <course>53.36</course>
  <speed>1.0</speed>
  <fix>3d</fix>
</trkpt>
<trkpt lat="33.8105642" lon="-118.3940817">
  <ele>-25.003</ele>
  <time>2026-09-02T22:08:56Z</time>
  <course>52.53</course>
  <speed>1.0060318086422517</speed>
  <fix>3d</fix>
</trkpt>
<trkpt lat="33.8105634" lon="-118.3940828">
  <ele>-24.39</ele>
  <time>2026-09-02T22:08:56Z</time>
  <course>53.34</course>
  <speed>1.0</speed>
  <fix>3d</fix>
</trkpt>
<trkpt lat="33.8105648" lon="-118.3940808">
  <ele>-25.002</ele>
  <time>2026-09-02T22:08:56Z</time>
  <course>52.54</course>
  <speed>1.0060318086422517</speed>
  <fix>3d</fix>
</trkpt>
<trkpt lat="33.8105634" lon="-118.3940828">
  <ele>-24.39</ele>
  <time>2026-09-02T22:08:56Z</time>
  <course>53.34</course>
  <speed>1.0</speed>
  <fix>3d</fix>
</trkpt>
<trkpt lat="33.8105653" lon="-118.39408">
  <ele>-25.001</ele>
  <time>2026-09-02T22:08:56Z</time>
  <course>52.55</course>
  <speed>1.0060318086422517</speed>
  <fix>3d</fix>
</trkpt>
<trkpt lat="33.8105644" lon="-118.394081">
  <ele>-24.39</ele>
  <time>2026-09-02T22:08:56Z</time>
  <course>53.34</course>
  <speed>1.0</speed>
  <fix>3d</fix>
</trkpt>
<trkpt lat="33.8105658" lon="-118.3940791">
  <ele>-25.0</ele>
  <time>2026-09-02T22:08:56Z</time>
  <course>52.57</course>
  <speed>0.9980981915623331</speed>
  <fix>3d</fix>
</trkpt>
<trkpt lat="33.8105644" lon="-118.394081">
  <ele>-24.39</ele>
  <time>2026-09-02T22:08:56Z</time>
  <course>53.34</course>
  <speed>1.0</speed>
  <fix>3d</fix>
</trkpt>
<trkpt lat="33.8105664" lon="-118.3940782">
  <ele>-25.0</ele>
  <time>2026-09-02T22:08:56Z</time>
  <course>52.56</course>
  <speed>0.9980981915623331</speed>
  <fix>3d</fix>
</trkpt>
<trkpt lat="33.8105655" lon="-118.3940793">
  <ele>-24.39</ele>
  <time>2026-09-02T22:08:56Z</time>
  <course>53.31</course>
  <speed>1.0</speed>
  <fix>3d</fix>
</trkpt>
<trkpt lat="33.8105669" lon="-118.3940773">
  <ele>-25.002</ele>
  <time>2026-09-02T22:08:56Z</time>
  <course>52.55</course>
  <speed>0.9980981915623331</speed>
  <fix>3d</fix>
</trkpt>
<trkpt lat="33.8105655" lon="-118.3940793">
  <ele>-24.39</ele>
  <time>2026-09-02T22:08:56Z</time>
  <course>53.31</course>
  <speed>1.0</speed>
  <fix>3d</fix>
</trkpt>
<trkpt lat="33.8105674" lon="-118.3940765">
  <ele>-25.004</ele>
  <time>2026-09-02T22:08:56Z</time>
  <course>52.54</course>
  <speed>0.9980981915623331</speed>
  <fix>3d</fix>
</trkpt>
<trkpt lat="33.8105666" lon="-118.3940776">
  <ele>-24.39</ele>
  <time>2026-09-02T22:08:56Z</time>
  <course>53.25</course>
  <speed>1.0</speed>
  <fix>3d</fix>
</trkpt>
<trkpt lat="33.810568" lon="-118.3940756">
  <ele>-25.007</ele>
  <time>2026-09-02T22:08:56Z</time>
  <course>52.54</course>
  <speed>0.9980981915623331</speed>
  <fix>3d</fix>
</trkpt>
<trkpt lat="33.8105666" lon="-118.3940776">
  <ele>-24.39</ele>
  <time>2026-09-02T22:08:56Z</time>
  <course>53.25</course>
  <speed>1.0</speed>
  <fix>3d</fix>
</trkpt>
<trkpt lat="33.8105685" lon="-118.3940747">
  <ele>-25.009</ele>
  <time>2026-09-02T22:08:56Z</time>
  <course>52.56</course>
  <speed>0.9980981915623331</speed>
  <fix>3d</fix>
</trkpt>
<trkpt lat="33.8105677" lon="-118.3940758">
  <ele>-24.4</ele>
  <time>2026-09-02T22:08:56Z</time>
  <course>53.24</course>
  <speed>1.0</speed>
  <fix>3d</fix>
</trkpt>
<trkpt lat="33.8105691" lon="-118.3940739">
  <ele>-25.01</ele>
  <time>2026-09-02T22:08:56Z</time>
  <course>52.58</course>
  <speed>0.9980981915623331</speed>
  <fix>3d</fix>
</trkpt>
<trkpt lat="33.8105677" lon="-118.3940758">
  <ele>-24.4</ele>
  <time>2026-09-02T22:08:56Z</time>
  <course>53.24</course>
  <speed>1.0</speed>
  <fix>3d</fix>
</trkpt>
<trkpt lat="33.8105696" lon="-118.394073">
  <ele>-25.01</ele>
  <time>2026-09-02T22:08:56Z</time>
  <course>52.61</course>
  <speed>0.9980981915623331</speed>
  <fix>3d</fix>
</trkpt>
<trkpt lat="33.8105687" lon="-118.3940741">
  <ele>-24.4</ele>
  <time>2026-09-02T22:08:56Z</time>
  <course>53.25</course>
  <speed>1.0</speed>
  <fix>3d</fix>
</trkpt>
<trkpt lat="33.8105701" lon="-118.3940721">
  <ele>-25.01</ele>
  <time>2026-09-02T22:08:56Z</time>
  <course>52.64</course>
  <speed>0.9980981915623331</speed>
  <fix>3d</fix>
</trkpt>
<trkpt lat="33.8105687" lon="-118.3940741">
  <ele>-24.4</ele>
  <time>2026-09-02T22:08:56Z</time>
  <course>53.25</course>
  <speed>1.0</speed>
  <fix>3d</fix>
</trkpt>
<trkpt lat="33.8105707" lon="-118.3940713">
  <ele>-25.009</ele>
  <time>2026-09-02T22:08:56Z</time>
  <course>52.65</course>
  <speed>0.9980981915623331</speed>
  <fix>3d</fix>
</trkpt>
<trkpt lat="33.8105698" lon="-118.3940724">
  <ele>-24.4</ele>
  <time>2026-09-02T22:08:56Z</time>
  <course>53.26</course>
  <speed>1.0</speed>
  <fix>3d</fix>
</trkpt>
<trkpt lat="33.8105712" lon="-118.3940704">
  <ele>-25.008</ele>
  <time>2026-09-02T22:08:56Z</time>
  <course>52.67</course>
  <speed>1.0060318086422517</speed>
  <fix>3d</fix>
</trkpt>
<trkpt lat="33.8105698" lon="-118.3940724">
  <ele>-24.4</ele>
  <time>2026-09-02T22:08:56Z</time>
  <course>53.26</course>
  <speed>1.0</speed>
  <fix>3d</fix>
</trkpt>
<trkpt lat="33.8105717" lon="-118.3940695">
  <ele>-25.006</ele>
  <time>2026-09-02T22:08:56Z</time>
  <course>52.69</course>
  <speed>0.9980981915623331</speed>
  <fix>3d</fix>
</trkpt>
<trkpt lat="33.8105709" lon="-118.3940706">
  <ele>-24.39</ele>
  <time>2026-09-02T22:08:56Z</time>
  <course>53.24</course>
  <speed>1.0</speed>
  <fix>3d</fix>
</trkpt>
<trkpt lat="33.8105723" lon="-118.3940687">
  <ele>-25.003</ele>
  <time>2026-09-02T22:08:56Z</time>
  <course>52.71</course>
  <speed>0.9980981915623331</speed>
  <fix>3d</fix>
</trkpt>
<trkpt lat="33.8105709" lon="-118.3940706">
  <ele>-24.39</ele>
  <time>2026-09-02T22:08:56Z</time>
  <course>53.24</course>
  <speed>1.0</speed>
  <fix>3d</fix>
</trkpt>
<trkpt lat="33.8105728" lon="-118.3940678">
  <ele>-25.0</ele>
  <time>2026-09-02T22:08:56Z</time>
  <course>52.73</course>
  <speed>0.9980981915623331</speed>
  <fix>3d</fix>
</trkpt>
<trkpt lat="33.810572" lon="-118.3940689">
  <ele>-24.39</ele>
  <time>2026-09-02T22:08:56Z</time>
  <course>53.24</course>
  <speed>1.0</speed>
  <fix>3d</fix>
</trkpt>
<trkpt lat="33.8105733" lon="-118.3940669">
  <ele>-24.997</ele>
  <time>2026-09-02T22:08:56Z</time>
  <course>52.75</course>
  <speed>0.9980981915623331</speed>
  <fix>3d</fix>
</trkpt>
<trkpt lat="33.810572" lon="-118.3940689">
  <ele>-24.39</ele>
  <time>2026-09-02T22:08:56Z</time>
  <course>53.24</course>
  <speed>1.0</speed>
  <fix>3d</fix>
</trkpt>
<trkpt lat="33.8105739" lon="-118.3940661">
  <ele>-24.996</ele>
  <time>2026-09-02T22:08:57Z</time>
  <course>52.78</course>
  <speed>0.9980981915623331</speed>
  <fix>3d</fix>
</trkpt>
<trkpt lat="33.810573" lon="-118.3940672">
  <ele>-24.39</ele>
  <time>2026-09-02T22:08:57Z</time>
  <course>53.26</course>
  <speed>1.0</speed>
  <fix>3d</fix>
</trkpt>
<trkpt lat="33.8105744" lon="-118.3940652">
  <ele>-24.996</ele>
  <time>2026-09-02T22:08:57Z</time>
  <course>52.82</course>
  <speed>0.9980981915623331</speed>
  <fix>3d</fix>
</trkpt>
<trkpt lat="33.810573" lon="-118.3940672">
  <ele>-24.39</ele>
  <time>2026-09-02T22:08:57Z</time>
  <course>53.26</course>
  <speed>1.0</speed>
  <fix>3d</fix>
</trkpt>
<trkpt lat="33.8105749" lon="-118.3940643">
  <ele>-24.997</ele>
  <time>2026-09-02T22:08:57Z</time>
  <course>52.84</course>
  <speed>0.9980981915623331</speed>
  <fix>3d</fix>
</trkpt>
<trkpt lat="33.8105741" lon="-118.3940654">
  <ele>-24.39</ele>
  <time>2026-09-02T22:08:57Z</time>
  <course>53.27</course>
  <speed>1.0</speed>
  <fix>3d</fix>
</trkpt>
<trkpt lat="33.8105755" lon="-118.3940635">
  <ele>-25.0</ele>
  <time>2026-09-02T22:08:57Z</time>
  <course>52.85</course>
  <speed>0.9980981915623331</speed>
  <fix>3d</fix>
</trkpt>
<trkpt lat="33.8105741" lon="-118.3940654">
  <ele>-24.39</ele>
  <time>2026-09-02T22:08:57Z</time>
  <course>53.27</course>
  <speed>1.0</speed>
  <fix>3d</fix>
</trkpt>
<trkpt lat="33.810576" lon="-118.3940626">
  <ele>-25.002</ele>
  <time>2026-09-02T22:08:57Z</time>
  <course>52.87</course>
  <speed>0.9980981915623331</speed>
  <fix>3d</fix>
</trkpt>
<trkpt lat="33.8105752" lon="-118.3940637">
  <ele>-24.39</ele>
  <time>2026-09-02T22:08:57Z</time>
  <course>53.26</course>
  <speed>1.0</speed>
  <fix>3d</fix>
</trkpt>
<trkpt lat="33.8105766" lon="-118.3940617">
  <ele>-25.005</ele>
  <time>2026-09-02T22:08:57Z</time>
  <course>52.88</course>
  <speed>0.9980981915623331</speed>
  <fix>3d</fix>
</trkpt>
<trkpt lat="33.8105752" lon="-118.3940637">
  <ele>-24.39</ele>
  <time>2026-09-02T22:08:57Z</time>
  <course>53.26</course>
  <speed>1.0</speed>
  <fix>3d</fix>
</trkpt>
<trkpt lat="33.8105771" lon="-118.3940608">
  <ele>-25.007</ele>
  <time>2026-09-02T22:08:57Z</time>
  <course>52.9</course>
  <speed>1.0060318086422517</speed>
  <fix>3d</fix>
</trkpt>
<trkpt lat="33.8105763" lon="-118.394062">
  <ele>-24.4</ele>
  <time>2026-09-02T22:08:57Z</time>
  <course>53.24</course>
  <speed>1.0</speed>
  <fix>3d</fix>
</trkpt>
<trkpt lat="33.8105776" lon="-118.39406">
  <ele>-25.007</ele>
  <time>2026-09-02T22:08:57Z</time>
  <course>52.93</course>
  <speed>1.0060318086422517</speed>
  <fix>3d</fix>
</trkpt>
<trkpt lat="33.8105763" lon="-118.394062">
  <ele>-24.4</ele>
  <time>2026-09-02T22:08:57Z</time>
  <course>53.24</course>
  <speed>1.0</speed>
  <fix>3d</fix>
</trkpt>
<trkpt lat="33.8105782" lon="-118.3940591">
  <ele>-25.006</ele>
  <time>2026-09-02T22:08:57Z</time>
  <course>52.96</course>
  <speed>1.0</speed>
  <fix>3d</fix>
</trkpt>
<trkpt lat="33.8105774" lon="-118.3940602">
  <ele>-24.4</ele>
  <time>2026-09-02T22:08:57Z</time>
  <course>53.28</course>
  <speed>1.0</speed>
  <fix>3d</fix>
</trkpt>
<trkpt lat="33.8105787" lon="-118.3940582">
  <ele>-25.005</ele>
  <time>2026-09-02T22:08:57Z</time>
  <course>53.01</course>
  <speed>1.0</speed>
  <fix>3d</fix>
</trkpt>
<trkpt lat="33.8105774" lon="-118.3940602">
  <ele>-24.4</ele>
  <time>2026-09-02T22:08:57Z</time>
  <course>53.28</course>
  <speed>1.0</speed>
  <fix>3d</fix>
</trkpt>
<trkpt lat="33.8105792" lon="-118.3940574">
  <ele>-25.005</ele>
  <time>2026-09-02T22:08:57Z</time>
  <course>53.06</course>
  <speed>1.0</speed>
  <fix>3d</fix>
</trkpt>
<trkpt lat="33.8105784" lon="-118.3940585">
  <ele>-24.41</ele>
  <time>2026-09-02T22:08:57Z</time>
  <course>53.33</course>
  <speed>1.0</speed>
  <fix>3d</fix>
</trkpt>
<trkpt lat="33.8105798" lon="-118.3940565">
  <ele>-25.006</ele>
  <time>2026-09-02T22:08:57Z</time>
  <course>53.1</course>
  <speed>1.0</speed>
  <fix>3d</fix>
</trkpt>
<trkpt lat="33.8105784" lon="-118.3940585">
  <ele>-24.41</ele>
  <time>2026-09-02T22:08:57Z</time>
  <course>53.33</course>
  <speed>1.0</speed>
  <fix>3d</fix>
</trkpt>
<trkpt lat="33.8105803" lon="-118.3940556">
  <ele>-25.005</ele>
  <time>2026-09-02T22:08:57Z</time>
  <course>53.13</course>
  <speed>1.0</speed>
  <fix>3d</fix>
</trkpt>
<trkpt lat="33.8105795" lon="-118.3940567">
  <ele>-24.4</ele>
  <time>2026-09-02T22:08:57Z</time>
  <course>53.35</course>
  <speed>1.0</speed>
  <fix>3d</fix>
</trkpt>
<trkpt lat="33.8105808" lon="-118.3940548">
  <ele>-25.004</ele>
  <time>2026-09-02T22:08:57Z</time>
  <course>53.15</course>
  <speed>1.0</speed>
  <fix>3d</fix>
</trkpt>
<trkpt lat="33.8105795" lon="-118.3940567">
  <ele>-24.4</ele>
  <time>2026-09-02T22:08:57Z</time>
  <course>53.35</course>
  <speed>1.0</speed>
  <fix>3d</fix>
</trkpt>
<trkpt lat="33.8105814" lon="-118.3940539">
  <ele>-25.003</ele>
  <time>2026-09-02T22:08:57Z</time>
  <course>53.15</course>
  <speed>1.0</speed>
  <fix>3d</fix>
</trkpt>
<trkpt lat="33.8105805" lon="-118.394055">
  <ele>-24.4</ele>
  <time>2026-09-02T22:08:57Z</time>
  <course>53.32</course>
  <speed>1.0</speed>
  <fix>3d</fix>
</trkpt>
<trkpt lat="33.8105819" lon="-118.394053">
  <ele>-25.003</ele>
  <time>2026-09-02T22:08:57Z</time>
  <course>53.15</course>
  <speed>0.9920181449953424</speed>
  <fix>3d</fix>
</trkpt>
<trkpt lat="33.8105805" lon="-118.394055">
  <ele>-24.4</ele>
  <time>2026-09-02T22:08:57Z</time>
  <course>53.32</course>
  <speed>1.0</speed>
  <fix>3d</fix>
</trkpt>
<trkpt lat="33.8105824" lon="-118.3940522">
  <ele>-25.004</ele>
  <time>2026-09-02T22:08:57Z</time>
  <course>53.13</course>
  <speed>1.0</speed>
  <fix>3d</fix>
</trkpt>
<trkpt lat="33.8105816" lon="-118.3940533">
  <ele>-24.4</ele>
  <time>2026-09-02T22:08:57Z</time>
  <course>53.26</course>
  <speed>1.0</speed>
  <fix>3d</fix>
</trkpt>
<trkpt lat="33.810583" lon="-118.3940513">
  <ele>-25.004</ele>
  <time>2026-09-02T22:08:57Z</time>
  <course>53.12</course>
  <speed>1.0</speed>
  <fix>3d</fix>
</trkpt>
<trkpt lat="33.8105816" lon="-118.3940533">
  <ele>-24.4</ele>
  <time>2026-09-02T22:08:57Z</time>
  <course>53.26</course>
  <speed>1.0</speed>
  <fix>3d</fix>
</trkpt>
<trkpt lat="33.8105835" lon="-118.3940504">
  <ele>-25.006</ele>
  <time>2026-09-02T22:08:57Z</time>
  <course>53.12</course>
  <speed>1.0</speed>
  <fix>3d</fix>
</trkpt>
<trkpt lat="33.8105827" lon="-118.3940515">
  <ele>-24.4</ele>
  <time>2026-09-02T22:08:57Z</time>
  <course>53.21</course>
  <speed>1.0</speed>
  <fix>3d</fix>
</trkpt>
<trkpt lat="33.810584" lon="-118.3940495">
  <ele>-25.007</ele>
  <time>2026-09-02T22:08:57Z</time>
  <course>53.12</course>
  <speed>1.0</speed>
  <fix>3d</fix>
</trkpt>
<trkpt lat="33.8105827" lon="-118.3940515">
  <ele>-24.4</ele>
  <time>2026-09-02T22:08:57Z</time>
  <course>53.21</course>
  <speed>1.0</speed>
  <fix>3d</fix>
</trkpt>
<trkpt lat="33.8105846" lon="-118.3940487">
  <ele>-25.008</ele>
  <time>2026-09-02T22:08:57Z</time>
  <course>53.12</course>
  <speed>1.0</speed>
  <fix>3d</fix>
</trkpt>
<trkpt lat="33.8105838" lon="-118.3940498">
  <ele>-24.41</ele>
  <time>2026-09-02T22:08:57Z</time>
  <course>53.2</course>
  <speed>1.0</speed>
  <fix>3d</fix>
</trkpt>
<trkpt lat="33.8105851" lon="-118.3940478">
  <ele>-25.009</ele>
  <time>2026-09-02T22:08:57Z</time>
  <course>53.13</course>
  <speed>1.0</speed>
  <fix>3d</fix>
</trkpt>
<trkpt lat="33.8105838" lon="-118.3940498">
  <ele>-24.41</ele>
  <time>2026-09-02T22:08:57Z</time>
  <course>53.2</course>
  <speed>1.0</speed>
  <fix>3d</fix>
</trkpt>
<trkpt lat="33.8105857" lon="-118.3940469">
  <ele>-25.01</ele>
  <time>2026-09-02T22:08:57Z</time>
  <course>53.14</course>
  <speed>1.0</speed>
  <fix>3d</fix>
</trkpt>
<trkpt lat="33.8105849" lon="-118.3940481">
  <ele>-24.4</ele>
  <time>2026-09-02T22:08:57Z</time>
  <course>53.19</course>
  <speed>1.0</speed>
  <fix>3d</fix>
</trkpt>
<trkpt lat="33.8105862" lon="-118.3940461">
  <ele>-25.009</ele>
  <time>2026-09-02T22:08:57Z</time>
  <course>53.18</course>
  <speed>1.0</speed>
  <fix>3d</fix>
</trkpt>
<trkpt lat="33.8105849" lon="-118.3940481">
  <ele>-24.4</ele>
  <time>2026-09-02T22:08:57Z</time>
  <course>53.19</course>
  <speed>1.0</speed>
  <fix>3d</fix>
</trkpt>
<trkpt lat="33.8105867" lon="-118.3940452">
  <ele>-25.007</ele>
  <time>2026-09-02T22:08:57Z</time>
  <course>53.22</course>
  <speed>1.0</speed>
  <fix>3d</fix>
</trkpt>
<trkpt lat="33.810586" lon="-118.3940463">
  <ele>-24.4</ele>
  <time>2026-09-02T22:08:57Z</time>
  <course>53.23</course>
  <speed>1.0</speed>
  <fix>3d</fix>
</trkpt>
<trkpt lat="33.8105873" lon="-118.3940443">
  <ele>-25.004</ele>
  <time>2026-09-02T22:08:57Z</time>
  <course>53.27</course>
  <speed>1.0</speed>
  <fix>3d</fix>
</trkpt>
<trkpt lat="33.810586" lon="-118.3940463">
  <ele>-24.4</ele>
  <time>2026-09-02T22:08:57Z</time>
  <course>53.23</course>
  <speed>1.0</speed>
  <fix>3d</fix>
</trkpt>
<trkpt lat="33.8105878" lon="-118.3940435">
  <ele>-25.002</ele>
  <time>2026-09-02T22:08:57Z</time>
  <course>53.31</course>
  <speed>1.0</speed>
  <fix>3d</fix>
</trkpt>
<trkpt lat="33.810587" lon="-118.3940446">
  <ele>-24.4</ele>
  <time>2026-09-02T22:08:57Z</time>
  <course>53.3</course>
  <speed>1.0</speed>
  <fix>3d</fix>
</trkpt>
<trkpt lat="33.8105883" lon="-118.3940426">
  <ele>-25.001</ele>
  <time>2026-09-02T22:08:57Z</time>
  <course>53.35</course>
  <speed>1.0</speed>
  <fix>3d</fix>
</trkpt>
<trkpt lat="33.810587" lon="-118.3940446">
  <ele>-24.4</ele>
  <time>2026-09-02T22:08:57Z</time>
  <course>53.3</course>
  <speed>1.0</speed>
  <fix>3d</fix>
</trkpt>
<trkpt lat="33.8105889" lon="-118.3940417">
  <ele>-25.001</ele>
  <time>2026-09-02T22:08:57Z</time>
  <course>53.38</course>
  <speed>1.0</speed>
  <fix>3d</fix>
</trkpt>
<trkpt lat="33.8105881" lon="-118.3940429">
  <ele>-24.4</ele>
  <time>2026-09-02T22:08:57Z</time>
  <course>53.31</course>
  <speed>1.0</speed>
  <fix>3d</fix>
</trkpt>
<trkpt lat="33.8105894" lon="-118.3940409">
  <ele>-25.001</ele>
  <time>2026-09-02T22:08:57Z</time>
  <course>53.4</course>
  <speed>1.0</speed>
  <fix>3d</fix>
</trkpt>
<trkpt lat="33.8105881" lon="-118.3940429">
  <ele>-24.4</ele>
  <time>2026-09-02T22:08:57Z</time>
  <course>53.31</course>
  <speed>1.0</speed>
  <fix>3d</fix>
</trkpt>
<trkpt lat="33.81059" lon="-118.39404">
  <ele>-25.002</ele>
  <time>2026-09-02T22:08:57Z</time>
  <course>53.43</course>
  <speed>1.0</speed>
  <fix>3d</fix>
</trkpt>
<trkpt lat="33.8105892" lon="-118.3940411">
  <ele>-24.4</ele>
  <time>2026-09-02T22:08:57Z</time>
  <course>53.3</course>
  <speed>1.0</speed>
  <fix>3d</fix>
</trkpt>
<trkpt lat="33.8105905" lon="-118.3940391">
  <ele>-25.003</ele>
  <time>2026-09-02T22:08:57Z</time>
  <course>53.46</course>
  <speed>1.0</speed>
  <fix>3d</fix>
</trkpt>
<trkpt lat="33.8105892" lon="-118.3940411">
  <ele>-24.4</ele>
  <time>2026-09-02T22:08:57Z</time>
  <course>53.3</course>
  <speed>1.0</speed>
  <fix>3d</fix>
</trkpt>
<trkpt lat="33.810591" lon="-118.3940382">
  <ele>-25.005</ele>
  <time>2026-09-02T22:08:57Z</time>
  <course>53.49</course>
  <speed>1.0</speed>
  <fix>3d</fix>
</trkpt>
<trkpt lat="33.8105903" lon="-118.3940394">
  <ele>-24.4</ele>
  <time>2026-09-02T22:08:57Z</time>
  <course>53.32</course>
  <speed>1.0</speed>
  <fix>3d</fix>
</trkpt>
<trkpt lat="33.8105916" lon="-118.3940374">
  <ele>-25.006</ele>
  <time>2026-09-02T22:08:57Z</time>
  <course>53.52</course>
  <speed>1.0</speed>
  <fix>3d</fix>
</trkpt>
<trkpt lat="33.8105903" lon="-118.3940394">
  <ele>-24.4</ele>
  <time>2026-09-02T22:08:57Z</time>
  <course>53.32</course>
  <speed>1.0</speed>
  <fix>3d</fix>
</trkpt>
<trkpt lat="33.8105921" lon="-118.3940365">
  <ele>-25.006</ele>
  <time>2026-09-02T22:08:57Z</time>
  <course>53.55</course>
  <speed>1.0</speed>
  <fix>3d</fix>
</trkpt>
<trkpt lat="33.8105913" lon="-118.3940376">
  <ele>-24.4</ele>
  <time>2026-09-02T22:08:57Z</time>
  <course>53.35</course>
  <speed>1.0</speed>
  <fix>3d</fix>
</trkpt>
<trkpt lat="33.8105926" lon="-118.3940356">
  <ele>-25.006</ele>
  <time>2026-09-02T22:08:57Z</time>
  <course>53.58</course>
  <speed>1.0</speed>
  <fix>3d</fix>
</trkpt>
<trkpt lat="33.8105913" lon="-118.3940376">
  <ele>-24.4</ele>
  <time>2026-09-02T22:08:57Z</time>
  <course>53.35</course>
  <speed>1.0</speed>
  <fix>3d</fix>
</trkpt>
<trkpt lat="33.8105932" lon="-118.3940348">
  <ele>-25.007</ele>
  <time>2026-09-02T22:08:57Z</time>
  <course>53.59</course>
  <speed>1.0</speed>
  <fix>3d</fix>
</trkpt>
<trkpt lat="33.8105924" lon="-118.3940359">
  <ele>-24.4</ele>
  <time>2026-09-02T22:08:57Z</time>
  <course>53.36</course>
  <speed>1.0</speed>
  <fix>3d</fix>
</trkpt>
<trkpt lat="33.8105937" lon="-118.3940339">
  <ele>-25.008</ele>
  <time>2026-09-02T22:08:57Z</time>
  <course>53.59</course>
  <speed>1.0</speed>
  <fix>3d</fix>
</trkpt>
<trkpt lat="33.8105924" lon="-118.3940359">
  <ele>-24.4</ele>
  <time>2026-09-02T22:08:57Z</time>
  <course>53.36</course>
  <speed>1.0</speed>
  <fix>3d</fix>
</trkpt>
<trkpt lat="33.8105942" lon="-118.394033">
  <ele>-25.008</ele>
  <time>2026-09-02T22:08:57Z</time>
  <course>53.59</course>
  <speed>1.0</speed>
  <fix>3d</fix>
</trkpt>
<trkpt lat="33.8105935" lon="-118.3940342">
  <ele>-24.4</ele>
  <time>2026-09-02T22:08:57Z</time>
  <course>53.33</course>
  <speed>1.0</speed>
  <fix>3d</fix>
</trkpt>
<trkpt lat="33.8105948" lon="-118.3940322">
  <ele>-25.006</ele>
  <time>2026-09-02T22:08:57Z</time>
  <course>53.6</course>
  <speed>1.0</speed>
  <fix>3d</fix>
</trkpt>
<trkpt lat="33.8105935" lon="-118.3940342">
  <ele>-24.4</ele>
  <time>2026-09-02T22:08:57Z</time>
  <course>53.33</course>
  <speed>1.0</speed>
  <fix>3d</fix>
</trkpt>
<trkpt lat="33.8105953" lon="-118.3940313">
  <ele>-25.004</ele>
  <time>2026-09-02T22:08:57Z</time>
  <course>53.62</course>
  <speed>1.0</speed>
  <fix>3d</fix>
</trkpt>
<trkpt lat="33.8105946" lon="-118.3940324">
  <ele>-24.39</ele>
  <time>2026-09-02T22:08:57Z</time>
  <course>53.33</course>
  <speed>1.0</speed>
  <fix>3d</fix>
</trkpt>
<trkpt lat="33.8105958" lon="-118.3940304">
  <ele>-25.002</ele>
  <time>2026-09-02T22:08:57Z</time>
  <course>53.65</course>
  <speed>0.9860020283954795</speed>
  <fix>3d</fix>
</trkpt>
<trkpt lat="33.8105946" lon="-118.3940324">
  <ele>-24.39</ele>
  <time>2026-09-02T22:08:57Z</time>
  <course>53.33</course>
  <speed>1.0</speed>
  <fix>3d</fix>
</trkpt>
<trkpt lat="33.8105964" lon="-118.3940296">
  <ele>-25.0</ele>
  <time>2026-09-02T22:08:57Z</time>
  <course>53.68</course>
  <speed>0.9860020283954795</speed>
  <fix>3d</fix>
</trkpt>
<trkpt lat="33.8105956" lon="-118.3940307">
  <ele>-24.39</ele>
  <time>2026-09-02T22:08:57Z</time>
  <course>53.36</course>
  <speed>1.0</speed>
  <fix>3d</fix>
</trkpt>
<trkpt lat="33.8105969" lon="-118.3940287">
  <ele>-24.999</ele>
  <time>2026-09-02T22:08:57Z</time>
  <course>53.7</course>
  <speed>0.9860020283954795</speed>
  <fix>3d</fix>
</trkpt>
<trkpt lat="33.8105956" lon="-118.3940307">
  <ele>-24.39</ele>
  <time>2026-09-02T22:08:57Z</time>
  <course>53.36</course>
  <speed>1.0</speed>
  <fix>3d</fix>
</trkpt>
<trkpt lat="33.8105974" lon="-118.3940278">
  <ele>-24.998</ele>
  <time>2026-09-02T22:08:57Z</time>
  <course>53.71</course>
  <speed>0.9940321926376429</speed>
  <fix>3d</fix>
</trkpt>
<trkpt lat="33.8105967" lon="-118.394029">
  <ele>-24.39</ele>
  <time>2026-09-02T22:08:57Z</time>
  <course>53.37</course>
  <speed>1.0</speed>
  <fix>3d</fix>
</trkpt>
<trkpt lat="33.810598" lon="-118.394027">
  <ele>-24.997</ele>
  <time>2026-09-02T22:08:57Z</time>
  <course>53.72</course>
  <speed>0.9940321926376429</speed>
  <fix>3d</fix>
</trkpt>
<trkpt lat="33.8105967" lon="-118.394029">
  <ele>-24.39</ele>
  <time>2026-09-02T22:08:57Z</time>
  <course>53.37</course>
  <speed>1.0</speed>
  <fix>3d</fix>
</trkpt>
<trkpt lat="33.8105985" lon="-118.3940261">
  <ele>-24.997</ele>
  <time>2026-09-02T22:08:57Z</time>
  <course>53.74</course>
  <speed>0.9940321926376429</speed>
  <fix>3d</fix>
</trkpt>
<trkpt lat="33.8105978" lon="-118.3940272">
  <ele>-24.39</ele>
  <time>2026-09-02T22:08:57Z</time>
  <course>53.37</course>
  <speed>1.0</speed>
  <fix>3d</fix>
</trkpt>
<trkpt lat="33.8105991" lon="-118.3940252">
  <ele>-24.997</ele>
  <time>2026-09-02T22:08:57Z</time>
  <course>53.75</course>
  <speed>0.9940321926376429</speed>
  <fix>3d</fix>
</trkpt>
<trkpt lat="33.8105978" lon="-118.3940272">
  <ele>-24.39</ele>
  <time>2026-09-02T22:08:57Z</time>
  <course>53.37</course>
  <speed>1.0</speed>
  <fix>3d</fix>
</trkpt>
<trkpt lat="33.8105996" lon="-118.3940243">
  <ele>-24.998</ele>
  <time>2026-09-02T22:08:57Z</time>
  <course>53.77</course>
  <speed>0.9940321926376429</speed>
  <fix>3d</fix>
</trkpt>
<trkpt lat="33.8105989" lon="-118.3940255">
  <ele>-24.39</ele>
  <time>2026-09-02T22:08:57Z</time>
  <course>53.38</course>
  <speed>1.0</speed>
  <fix>3d</fix>
</trkpt>
<trkpt lat="33.8106001" lon="-118.3940235">
  <ele>-25.001</ele>
  <time>2026-09-02T22:08:57Z</time>
  <course>53.79</course>
  <speed>0.9940321926376429</speed>
  <fix>3d</fix>
</trkpt>
<trkpt lat="33.8105989" lon="-118.3940255">
  <ele>-24.39</ele>
  <time>2026-09-02T22:08:57Z</time>
  <course>53.38</course>
  <speed>1.0</speed>
  <fix>3d</fix>
</trkpt>
<trkpt lat="33.8106007" lon="-118.3940226">
  <ele>-25.003</ele>
  <time>2026-09-02T22:08:57Z</time>
  <course>53.82</course>
  <speed>0.9940321926376429</speed>
  <fix>3d</fix>
</trkpt>
<trkpt lat="33.8105999" lon="-118.3940237">
  <ele>-24.4</ele>
  <time>2026-09-02T22:08:57Z</time>
  <course>53.4</course>
  <speed>1.0</speed>
  <fix>3d</fix>
</trkpt>
<trkpt lat="33.8106012" lon="-118.3940217">
  <ele>-25.004</ele>
  <time>2026-09-02T22:08:57Z</time>
  <course>53.84</course>
  <speed>0.9940321926376429</speed>
  <fix>3d</fix>
</trkpt>
<trkpt lat="33.8105999" lon="-118.3940237">
  <ele>-24.4</ele>
  <time>2026-09-02T22:08:57Z</time>
  <course>53.4</course>
  <speed>1.0</speed>
  <fix>3d</fix>
</trkpt>
<trkpt lat="33.8106017" lon="-118.3940209">
  <ele>-25.005</ele>
  <time>2026-09-02T22:08:57Z</time>
  <course>53.84</course>
  <speed>0.9940321926376429</speed>
  <fix>3d</fix>
</trkpt>
<trkpt lat="33.810601" lon="-118.394022">
  <ele>-24.4</ele>
  <time>2026-09-02T22:08:57Z</time>
  <course>53.41</course>
  <speed>1.0</speed>
  <fix>3d</fix>
</trkpt>
<trkpt lat="33.8106023" lon="-118.39402">
  <ele>-25.007</ele>
  <time>2026-09-02T22:08:57Z</time>
  <course>53.84</course>
  <speed>0.9860020283954795</speed>
  <fix>3d</fix>
</trkpt>
<trkpt lat="33.810601" lon="-118.394022">
  <ele>-24.4</ele>
  <time>2026-09-02T22:08:57Z</time>
  <course>53.41</course>
  <speed>1.0</speed>
  <fix>3d</fix>
</trkpt>
<trkpt lat="33.8106028" lon="-118.3940191">
  <ele>-25.008</ele>
  <time>2026-09-02T22:08:57Z</time>
  <course>53.83</course>
  <speed>0.9940321926376429</speed>
  <fix>3d</fix>
</trkpt>
<trkpt lat="33.810602" lon="-118.3940203">
  <ele>-24.4</ele>
  <time>2026-09-02T22:08:57Z</time>
  <course>53.39</course>
  <speed>0.99</speed>
  <fix>3d</fix>
</trkpt>
<trkpt lat="33.8106033" lon="-118.3940183">
  <ele>-25.008</ele>
  <time>2026-09-02T22:08:57Z</time>
  <course>53.82</course>
  <speed>0.9940321926376429</speed>
  <fix>3d</fix>
</trkpt>
<trkpt lat="33.810602" lon="-118.3940203">
  <ele>-24.4</ele>
  <time>2026-09-02T22:08:57Z</time>
  <course>53.39</course>
  <speed>0.99</speed>
  <fix>3d</fix>
</trkpt>
<trkpt lat="33.8106039" lon="-118.3940174">
  <ele>-25.007</ele>
  <time>2026-09-02T22:08:57Z</time>
  <course>53.81</course>
  <speed>0.9940321926376429</speed>
  <fix>3d</fix>
</trkpt>
<trkpt lat="33.8106031" lon="-118.3940186">
  <ele>-24.4</ele>
  <time>2026-09-02T22:08:57Z</time>
  <course>53.36</course>
  <speed>0.99</speed>
  <fix>3d</fix>
</trkpt>
<trkpt lat="33.8106044" lon="-118.3940165">
  <ele>-25.006</ele>
  <time>2026-09-02T22:08:57Z</time>
  <course>53.81</course>
  <speed>0.9940321926376429</speed>
  <fix>3d</fix>
</trkpt>
<trkpt lat="33.8106031" lon="-118.3940186">
  <ele>-24.4</ele>
  <time>2026-09-02T22:08:57Z</time>
  <course>53.36</course>
  <speed>0.99</speed>
  <fix>3d</fix>
</trkpt>
<trkpt lat="33.8106049" lon="-118.3940157">
  <ele>-25.004</ele>
  <time>2026-09-02T22:08:57Z</time>
  <course>53.8</course>
  <speed>0.9940321926376429</speed>
  <fix>3d</fix>
</trkpt>
<trkpt lat="33.8106042" lon="-118.3940168">
  <ele>-24.4</ele>
  <time>2026-09-02T22:08:57Z</time>
  <course>53.34</course>
  <speed>1.0</speed>
  <fix>3d</fix>
</trkpt>
<trkpt lat="33.8106055" lon="-118.3940148">
  <ele>-25.003</ele>
  <time>2026-09-02T22:08:57Z</time>
  <course>53.8</course>
  <speed>0.9940321926376429</speed>
  <fix>3d</fix>
</trkpt>
<trkpt lat="33.8106042" lon="-118.3940168">
  <ele>-24.4</ele>
  <time>2026-09-02T22:08:57Z</time>
  <course>53.34</course>
  <speed>1.0</speed>
  <fix>3d</fix>
</trkpt>
<trkpt lat="33.810606" lon="-118.3940139">
  <ele>-25.003</ele>
  <time>2026-09-02T22:08:57Z</time>
  <course>53.81</course>
  <speed>0.9940321926376429</speed>
  <fix>3d</fix>
</trkpt>
<trkpt lat="33.8106053" lon="-118.3940151">
  <ele>-24.4</ele>
  <time>2026-09-02T22:08:57Z</time>
  <course>53.33</course>
  <speed>1.0</speed>
  <fix>3d</fix>
</trkpt>
<trkpt lat="33.8106065" lon="-118.394013">
  <ele>-25.004</ele>
  <time>2026-09-02T22:08:57Z</time>
  <course>53.82</course>
  <speed>0.9940321926376429</speed>
  <fix>3d</fix>
</trkpt>
<trkpt lat="33.8106053" lon="-118.3940151">
  <ele>-24.4</ele>
  <time>2026-09-02T22:08:57Z</time>
  <course>53.33</course>
  <speed>1.0</speed>
  <fix>3d</fix>
</trkpt>
<trkpt lat="33.8106071" lon="-118.3940122">
  <ele>-25.004</ele>
  <time>2026-09-02T22:08:57Z</time>
  <course>53.85</course>
  <speed>0.9940321926376429</speed>
  <fix>3d</fix>
</trkpt>
<trkpt lat="33.8106064" lon="-118.3940133">
  <ele>-24.4</ele>
  <time>2026-09-02T22:08:57Z</time>
  <course>53.35</course>
  <speed>1.0</speed>
  <fix>3d</fix>
</trkpt>
<trkpt lat="33.8106076" lon="-118.3940113">
  <ele>-25.004</ele>
  <time>2026-09-02T22:08:57Z</time>
  <course>53.87</course>
  <speed>0.9940321926376429</speed>
  <fix>3d</fix>
</trkpt>
<trkpt lat="33.8106064" lon="-118.3940133">
  <ele>-24.4</ele>
  <time>2026-09-02T22:08:57Z</time>
  <course>53.35</course>
  <speed>1.0</speed>
  <fix>3d</fix>
</trkpt>
<trkpt lat="33.8106082" lon="-118.3940104">
  <ele>-25.003</ele>
  <time>2026-09-02T22:08:57Z</time>
  <course>53.9</course>
  <speed>0.9940321926376429</speed>
  <fix>3d</fix>
</trkpt>
<trkpt lat="33.8106074" lon="-118.3940116">
  <ele>-24.4</ele>
  <time>2026-09-02T22:08:57Z</time>
  <course>53.39</course>
  <speed>1.0</speed>
  <fix>3d</fix>
</trkpt>
<trkpt lat="33.8106087" lon="-118.3940096">
  <ele>-25.004</ele>
  <time>2026-09-02T22:08:57Z</time>
  <course>53.92</course>
  <speed>0.9940321926376429</speed>
  <fix>3d</fix>
</trkpt>
<trkpt lat="33.8106074" lon="-118.3940116">
  <ele>-24.4</ele>
  <time>2026-09-02T22:08:57Z</time>
  <course>53.39</course>
  <speed>1.0</speed>
  <fix>3d</fix>
</trkpt>
<trkpt lat="33.8106092" lon="-118.3940087">
  <ele>-25.005</ele>
  <time>2026-09-02T22:08:57Z</time>
  <course>53.93</course>
  <speed>0.9940321926376429</speed>
  <fix>3d</fix>
</trkpt>
<trkpt lat="33.8106085" lon="-118.3940098">
  <ele>-24.4</ele>
  <time>2026-09-02T22:08:57Z</time>
  <course>53.41</course>
  <speed>1.0</speed>
  <fix>3d</fix>
</trkpt>
<trkpt lat="33.8106098" lon="-118.3940078">
  <ele>-25.006</ele>
  <time>2026-09-02T22:08:57Z</time>
  <course>53.94</course>
  <speed>0.9860020283954795</speed>
  <fix>3d</fix>
</trkpt>
<trkpt lat="33.8106085" lon="-118.3940098">
  <ele>-24.4</ele>
  <time>2026-09-02T22:08:57Z</time>
  <course>53.41</course>
  <speed>1.0</speed>
  <fix>3d</fix>
</trkpt>
<trkpt lat="33.8106103" lon="-118.394007">
  <ele>-25.008</ele>
  <time>2026-09-02T22:08:57Z</time>
  <course>53.93</course>
  <speed>0.9860020283954795</speed>
  <fix>3d</fix>
</trkpt>
<trkpt lat="33.8106096" lon="-118.3940081">
  <ele>-24.4</ele>
  <time>2026-09-02T22:08:57Z</time>
  <course>53.4</course>
  <speed>1.0</speed>
  <fix>3d</fix>
</trkpt>
<trkpt lat="33.8106108" lon="-118.3940061">
  <ele>-25.009</ele>
  <time>2026-09-02T22:08:57Z</time>
  <course>53.92</course>
  <speed>0.9860020283954795</speed>
  <fix>3d</fix>
</trkpt>
<trkpt lat="33.8106096" lon="-118.3940081">
  <ele>-24.4</ele>
  <time>2026-09-02T22:08:57Z</time>
  <course>53.4</course>
  <speed>1.0</speed>
  <fix>3d</fix>
</trkpt>
<trkpt lat="33.8106114" lon="-118.3940052">
  <ele>-25.009</ele>
  <time>2026-09-02T22:08:57Z</time>
  <course>53.93</course>
  <speed>0.9860020283954795</speed>
  <fix>3d</fix>
</trkpt>
<trkpt lat="33.8106107" lon="-118.3940064">
  <ele>-24.39</ele>
  <time>2026-09-02T22:08:57Z</time>
  <course>53.39</course>
  <speed>0.99</speed>
  <fix>3d</fix>
</trkpt>
<trkpt lat="33.8106119" lon="-118.3940043">
  <ele>-25.008</ele>
  <time>2026-09-02T22:08:57Z</time>
  <course>53.94</course>
  <speed>0.9940321926376429</speed>
  <fix>3d</fix>
</trkpt>
<trkpt lat="33.8106107" lon="-118.3940064">
  <ele>-24.39</ele>
  <time>2026-09-02T22:08:57Z</time>
  <course>53.39</course>
  <speed>0.99</speed>
  <fix>3d</fix>
</trkpt>
<trkpt lat="33.8106124" lon="-118.3940035">
  <ele>-25.004</ele>
  <time>2026-09-02T22:08:57Z</time>
  <course>53.97</course>
  <speed>0.9940321926376429</speed>
  <fix>3d</fix>
</trkpt>
<trkpt lat="33.8106117" lon="-118.3940047">
  <ele>-24.39</ele>
  <time>2026-09-02T22:08:57Z</time>
  <course>53.41</course>
  <speed>0.99</speed>
  <fix>3d</fix>
</trkpt>
<trkpt lat="33.810613" lon="-118.3940026">
  <ele>-25.001</ele>
  <time>2026-09-02T22:08:57Z</time>
  <course>54.01</course>
  <speed>0.9940321926376429</speed>
  <fix>3d</fix>
</trkpt>
<trkpt lat="33.8106117" lon="-118.3940047">
  <ele>-24.39</ele>
  <time>2026-09-02T22:08:57Z</time>
  <course>53.41</course>
  <speed>0.99</speed>
  <fix>3d</fix>
</trkpt>
<trkpt lat="33.8106135" lon="-118.3940017">
  <ele>-24.999</ele>
  <time>2026-09-02T22:08:57Z</time>
  <course>54.03</course>
  <speed>0.9940321926376429</speed>
  <fix>3d</fix>
</trkpt>
<trkpt lat="33.8106128" lon="-118.3940029">
  <ele>-24.39</ele>
  <time>2026-09-02T22:08:57Z</time>
  <course>53.45</course>
  <speed>1.0</speed>
  <fix>3d</fix>
</trkpt>
<trkpt lat="33.810614" lon="-118.3940009">
  <ele>-24.997</ele>
  <time>2026-09-02T22:08:57Z</time>
  <course>54.06</course>
  <speed>0.9940321926376429</speed>
  <fix>3d</fix>
</trkpt>
<trkpt lat="33.8106128" lon="-118.3940029">
  <ele>-24.39</ele>
  <time>2026-09-02T22:08:57Z</time>
  <course>53.45</course>
  <speed>1.0</speed>
  <fix>3d</fix>
</trkpt>
<trkpt lat="33.8106146" lon="-118.394">
  <ele>-24.997</ele>
  <time>2026-09-02T22:08:57Z</time>
  <course>54.08</course>
  <speed>0.9940321926376429</speed>
  <fix>3d</fix>
</trkpt>
<trkpt lat="33.8106139" lon="-118.3940012">
  <ele>-24.39</ele>
  <time>2026-09-02T22:08:57Z</time>
  <course>53.47</course>
  <speed>1.0</speed>
  <fix>3d</fix>
</trkpt>
<trkpt lat="33.8106151" lon="-118.3939992">
  <ele>-24.998</ele>
  <time>2026-09-02T22:08:57Z</time>
  <course>54.08</course>
  <speed>0.9940321926376429</speed>
  <fix>3d</fix>
</trkpt>
<trkpt lat="33.8106139" lon="-118.3940012">
  <ele>-24.39</ele>
  <time>2026-09-02T22:08:57Z</time>
  <course>53.47</course>
  <speed>1.0</speed>
  <fix>3d</fix>
</trkpt>
<trkpt lat="33.8106156" lon="-118.3939983">
  <ele>-24.999</ele>
  <time>2026-09-02T22:08:57Z</time>
  <course>54.1</course>
  <speed>0.9940321926376429</speed>
  <fix>3d</fix>
</trkpt>
<trkpt lat="33.8106149" lon="-118.3939994">
  <ele>-24.39</ele>
  <time>2026-09-02T22:08:57Z</time>
  <course>53.49</course>
  <speed>1.0</speed>
  <fix>3d</fix>
</trkpt>
<trkpt lat="33.8106162" lon="-118.3939974">
  <ele>-25.001</ele>
  <time>2026-09-02T22:08:57Z</time>
  <course>54.1</course>
  <speed>0.9940321926376429</speed>
  <fix>3d</fix>
</trkpt>
<trkpt lat="33.8106149" lon="-118.3939994">
  <ele>-24.39</ele>
  <time>2026-09-02T22:08:57Z</time>
  <course>53.49</course>
  <speed>1.0</speed>
  <fix>3d</fix>
</trkpt>
<trkpt lat="33.8106167" lon="-118.3939965">
  <ele>-25.001</ele>
  <time>2026-09-02T22:08:57Z</time>
  <course>54.1</course>
  <speed>0.9940321926376429</speed>
  <fix>3d</fix>
</trkpt>
<trkpt lat="33.810616" lon="-118.3939977">
  <ele>-24.39</ele>
  <time>2026-09-02T22:08:57Z</time>
  <course>53.48</course>
  <speed>1.0</speed>
  <fix>3d</fix>
</trkpt>
<trkpt lat="33.8106172" lon="-118.3939957">
  <ele>-25.001</ele>
  <time>2026-09-02T22:08:57Z</time>
  <course>54.09</course>
  <speed>0.9940321926376429</speed>
  <fix>3d</fix>
</trkpt>
<trkpt lat="33.810616" lon="-118.3939977">
  <ele>-24.39</ele>
  <time>2026-09-02T22:08:57Z</time>
  <course>53.48</course>
  <speed>1.0</speed>
  <fix>3d</fix>
</trkpt>
<trkpt lat="33.8106178" lon="-118.3939948">
  <ele>-25.001</ele>
  <time>2026-09-02T22:08:57Z</time>
  <course>54.07</course>
  <speed>0.9940321926376429</speed>
  <fix>3d</fix>
</trkpt>
<trkpt lat="33.8106171" lon="-118.3939959">
  <ele>-24.39</ele>
  <time>2026-09-02T22:08:57Z</time>
  <course>53.46</course>
  <speed>1.0</speed>
  <fix>3d</fix>
</trkpt>
<trkpt lat="33.8106183" lon="-118.3939939">
  <ele>-25.001</ele>
  <time>2026-09-02T22:08:57Z</time>
  <course>54.06</course>
  <speed>0.9940321926376429</speed>
  <fix>3d</fix>
</trkpt>
<trkpt lat="33.8106171" lon="-118.3939959">
  <ele>-24.39</ele>
  <time>2026-09-02T22:08:57Z</time>
  <course>53.46</course>
  <speed>1.0</speed>
  <fix>3d</fix>
</trkpt>
<trkpt lat="33.8106188" lon="-118.3939931">
  <ele>-25.0</ele>
  <time>2026-09-02T22:08:57Z</time>
  <course>54.05</course>
  <speed>0.9940321926376429</speed>
  <fix>3d</fix>
</trkpt>
<trkpt lat="33.8106182" lon="-118.3939942">
  <ele>-24.39</ele>
  <time>2026-09-02T22:08:57Z</time>
  <course>53.45</course>
  <speed>1.0</speed>
  <fix>3d</fix>
</trkpt>
<trkpt lat="33.8106194" lon="-118.3939922">
  <ele>-24.999</ele>
  <time>2026-09-02T22:08:57Z</time>
  <course>54.05</course>
  <speed>0.9940321926376429</speed>
  <fix>3d</fix>
</trkpt>
<trkpt lat="33.8106182" lon="-118.3939942">
  <ele>-24.39</ele>
  <time>2026-09-02T22:08:57Z</time>
  <course>53.45</course>
  <speed>1.0</speed>
  <fix>3d</fix>
</trkpt>
<trkpt lat="33.8106199" lon="-118.3939913">
  <ele>-24.999</ele>
  <time>2026-09-02T22:08:57Z</time>
  <course>54.06</course>
  <speed>0.9940321926376429</speed>
  <fix>3d</fix>
</trkpt>
<trkpt lat="33.8106192" lon="-118.3939924">
  <ele>-24.39</ele>
  <time>2026-09-02T22:08:57Z</time>
  <course>53.45</course>
  <speed>1.0</speed>
  <fix>3d</fix>
</trkpt>
<trkpt lat="33.8106204" lon="-118.3939905">
  <ele>-25.0</ele>
  <time>2026-09-02T22:08:57Z</time>
  <course>54.07</course>
  <speed>0.9940321926376429</speed>
  <fix>3d</fix>
</trkpt>
<trkpt lat="33.8106192" lon="-118.3939924">
  <ele>-24.39</ele>
  <time>2026-09-02T22:08:57Z</time>
  <course>53.45</course>
  <speed>1.0</speed>
  <fix>3d</fix>
</trkpt>
<trkpt lat="33.810621" lon="-118.3939896">
  <ele>-25.002</ele>
  <time>2026-09-02T22:08:57Z</time>
  <course>54.06</course>
  <speed>0.9940321926376429</speed>
  <fix>3d</fix>
</trkpt>
<trkpt lat="33.8106203" lon="-118.3939907">
  <ele>-24.4</ele>
  <time>2026-09-02T22:08:57Z</time>
  <course>53.45</course>
  <speed>1.0</speed>
  <fix>3d</fix>
</trkpt>
<trkpt lat="33.8106215" lon="-118.3939887">
  <ele>-25.003</ele>
  <time>2026-09-02T22:08:57Z</time>
  <course>54.05</course>
  <speed>0.9940321926376429</speed>
  <fix>3d</fix>
</trkpt>
<trkpt lat="33.8106203" lon="-118.3939907">
  <ele>-24.4</ele>
  <time>2026-09-02T22:08:57Z</time>
  <course>53.45</course>
  <speed>1.0</speed>
  <fix>3d</fix>
</trkpt>
<trkpt lat="33.810622" lon="-118.3939878">
  <ele>-25.003</ele>
  <time>2026-09-02T22:08:57Z</time>
  <course>54.03</course>
  <speed>0.9940321926376429</speed>
  <fix>3d</fix>
</trkpt>
<trkpt lat="33.8106214" lon="-118.3939889">
  <ele>-24.4</ele>
  <time>2026-09-02T22:08:57Z</time>
  <course>53.42</course>
  <speed>1.0</speed>
  <fix>3d</fix>
</trkpt>
<trkpt lat="33.8106226" lon="-118.393987">
  <ele>-25.004</ele>
  <time>2026-09-02T22:08:57Z</time>
  <course>54.03</course>
  <speed>0.9940321926376429</speed>
  <fix>3d</fix>
</trkpt>
<trkpt lat="33.8106214" lon="-118.3939889">
  <ele>-24.4</ele>
  <time>2026-09-02T22:08:57Z</time>
  <course>53.42</course>
  <speed>1.0</speed>
  <fix>3d</fix>
</trkpt>
<trkpt lat="33.8106231" lon="-118.3939861">
  <ele>-25.005</ele>
  <time>2026-09-02T22:08:57Z</time>
  <course>54.02</course>
  <speed>0.9940321926376429</speed>
  <fix>3d</fix>
</trkpt>
<trkpt lat="33.8106224" lon="-118.3939872">
  <ele>-24.4</ele>
  <time>2026-09-02T22:08:57Z</time>
  <course>53.39</course>
  <speed>1.0</speed>
  <fix>3d</fix>
</trkpt>
<trkpt lat="33.8106236" lon="-118.3939852">
  <ele>-25.005</ele>
  <time>2026-09-02T22:08:57Z</time>
  <course>54.01</course>
  <speed>0.9940321926376429</speed>
  <fix>3d</fix>
</trkpt>
<trkpt lat="33.8106224" lon="-118.3939872">
  <ele>-24.4</ele>
  <time>2026-09-02T22:08:57Z</time>
  <course>53.39</course>
  <speed>1.0</speed>
  <fix>3d</fix>
</trkpt>
<trkpt lat="33.8106242" lon="-118.3939844">
  <ele>-25.006</ele>
  <time>2026-09-02T22:08:57Z</time>
  <course>53.99</course>
  <speed>0.9940321926376429</speed>
  <fix>3d</fix>
</trkpt>
<trkpt lat="33.8106235" lon="-118.3939854">
  <ele>-24.4</ele>
  <time>2026-09-02T22:08:57Z</time>
  <course>53.36</course>
  <speed>1.0</speed>
  <fix>3d</fix>
</trkpt>
<trkpt lat="33.8106247" lon="-118.3939835">
  <ele>-25.006</ele>
  <time>2026-09-02T22:08:57Z</time>
  <course>53.97</course>
  <speed>0.9940321926376429</speed>
  <fix>3d</fix>
</trkpt>
<trkpt lat="33.8106235" lon="-118.3939854">
  <ele>-24.4</ele>
  <time>2026-09-02T22:08:57Z</time>
  <course>53.36</course>
  <speed>1.0</speed>
  <fix>3d</fix>
</trkpt>
<trkpt lat="33.8106252" lon="-118.3939826">
  <ele>-25.005</ele>
  <time>2026-09-02T22:08:57Z</time>
  <course>53.95</course>
  <speed>0.9940321926376429</speed>
  <fix>3d</fix>
</trkpt>
<trkpt lat="33.8106246" lon="-118.3939837">
  <ele>-24.4</ele>
  <time>2026-09-02T22:08:57Z</time>
  <course>53.31</course>
  <speed>1.0</speed>
  <fix>3d</fix>
</trkpt>
<trkpt lat="33.8106258" lon="-118.3939817">
  <ele>-25.004</ele>
  <time>2026-09-02T22:08:57Z</time>
  <course>53.93</course>
  <speed>0.9940321926376429</speed>
  <fix>3d</fix>
</trkpt>
<trkpt lat="33.8106246" lon="-118.3939837">
  <ele>-24.4</ele>
  <time>2026-09-02T22:08:57Z</time>
  <course>53.31</course>
  <speed>1.0</speed>
  <fix>3d</fix>
</trkpt>
<trkpt lat="33.8106263" lon="-118.3939809">
  <ele>-25.003</ele>
  <time>2026-09-02T22:08:57Z</time>
  <course>53.92</course>
  <speed>0.9940321926376429</speed>
  <fix>3d</fix>
</trkpt>
<trkpt lat="33.8106257" lon="-118.393982">
  <ele>-24.4</ele>
  <time>2026-09-02T22:08:57Z</time>
  <course>53.28</course>
  <speed>1.0</speed>
  <fix>3d</fix>
</trkpt>
<trkpt lat="33.8106269" lon="-118.39398">
  <ele>-25.003</ele>
  <time>2026-09-02T22:08:57Z</time>
  <course>53.92</course>
  <speed>0.9940321926376429</speed>
  <fix>3d</fix>
</trkpt>
<trkpt lat="33.8106257" lon="-118.393982">
  <ele>-24.4</ele>
  <time>2026-09-02T22:08:57Z</time>
  <course>53.28</course>
  <speed>1.0</speed>
  <fix>3d</fix>
</trkpt>
<trkpt lat="33.8106274" lon="-118.3939791">
  <ele>-25.004</ele>
  <time>2026-09-02T22:08:57Z</time>
  <course>53.94</course>
  <speed>0.9940321926376429</speed>
  <fix>3d</fix>
</trkpt>
<trkpt lat="33.8106268" lon="-118.3939802">
  <ele>-24.4</ele>
  <time>2026-09-02T22:08:57Z</time>
  <course>53.3</course>
  <speed>1.0</speed>
  <fix>3d</fix>
</trkpt>
<trkpt lat="33.8106279" lon="-118.3939783">
  <ele>-25.005</ele>
  <time>2026-09-02T22:08:57Z</time>
  <course>53.96</course>
  <speed>0.98812954616285</speed>
  <fix>3d</fix>
</trkpt>
<trkpt lat="33.8106268" lon="-118.3939802">
  <ele>-24.4</ele>
  <time>2026-09-02T22:08:57Z</time>
  <course>53.3</course>
  <speed>1.0</speed>
  <fix>3d</fix>
</trkpt>
<trkpt lat="33.8106285" lon="-118.3939774">
  <ele>-25.005</ele>
  <time>2026-09-02T22:08:57Z</time>
  <course>54.0</course>
  <speed>0.98812954616285</speed>
  <fix>3d</fix>
</trkpt>
<trkpt lat="33.8106279" lon="-118.3939785">
  <ele>-24.4</ele>
  <time>2026-09-02T22:08:57Z</time>
  <course>53.35</course>
  <speed>1.0</speed>
  <fix>3d</fix>
</trkpt>
<trkpt lat="33.810629" lon="-118.3939765">
  <ele>-25.004</ele>
  <time>2026-09-02T22:08:57Z</time>
  <course>54.04</course>
  <speed>0.98812954616285</speed>
  <fix>3d</fix>
</trkpt>
<trkpt lat="33.8106279" lon="-118.3939785">
  <ele>-24.4</ele>
  <time>2026-09-02T22:08:57Z</time>
  <course>53.35</course>
  <speed>1.0</speed>
  <fix>3d</fix>
</trkpt>
<trkpt lat="33.8106295" lon="-118.3939757">
  <ele>-25.003</ele>
  <time>2026-09-02T22:08:57Z</time>
  <course>54.09</course>
  <speed>0.98812954616285</speed>
  <fix>3d</fix>
</trkpt>
<trkpt lat="33.8106289" lon="-118.3939767">
  <ele>-24.39</ele>
  <time>2026-09-02T22:08:57Z</time>
  <course>53.41</course>
  <speed>1.0</speed>
  <fix>3d</fix>
</trkpt>
<trkpt lat="33.8106301" lon="-118.3939748">
  <ele>-25.002</ele>
  <time>2026-09-02T22:08:57Z</time>
  <course>54.13</course>
  <speed>0.98812954616285</speed>
  <fix>3d</fix>
</trkpt>
<trkpt lat="33.8106289" lon="-118.3939767">
  <ele>-24.39</ele>
  <time>2026-09-02T22:08:57Z</time>
  <course>53.41</course>
  <speed>1.0</speed>
  <fix>3d</fix>
</trkpt>
<trkpt lat="33.8106306" lon="-118.3939739">
  <ele>-25.001</ele>
  <time>2026-09-02T22:08:57Z</time>
  <course>54.14</course>
  <speed>0.98812954616285</speed>
  <fix>3d</fix>
</trkpt>
<trkpt lat="33.81063" lon="-118.393975">
  <ele>-24.39</ele>
  <time>2026-09-02T22:08:57Z</time>
  <course>53.45</course>
  <speed>1.0</speed>
  <fix>3d</fix>
</trkpt>
<trkpt lat="33.8106311" lon="-118.393973">
  <ele>-25.001</ele>
  <time>2026-09-02T22:08:57Z</time>
  <course>54.15</course>
  <speed>0.9800510190801294</speed>
  <fix>3d</fix>
</trkpt>
<trkpt lat="33.81063" lon="-118.393975">
  <ele>-24.39</ele>
  <time>2026-09-02T22:08:57Z</time>
  <course>53.45</course>
  <speed>1.0</speed>
  <fix>3d</fix>
</trkpt>
<trkpt lat="33.8106317" lon="-118.3939722">
  <ele>-25.001</ele>
  <time>2026-09-02T22:08:57Z</time>
  <course>54.15</course>
  <speed>0.9800510190801294</speed>
  <fix>3d</fix>
</trkpt>
<trkpt lat="33.8106311" lon="-118.3939732">
  <ele>-24.39</ele>
  <time>2026-09-02T22:08:57Z</time>
  <course>53.44</course>
  <speed>1.0</speed>
  <fix>3d</fix>
</trkpt>
<trkpt lat="33.8106322" lon="-118.3939713">
  <ele>-25.0</ele>
  <time>2026-09-02T22:08:57Z</time>
  <course>54.15</course>
  <speed>0.9800510190801294</speed>
  <fix>3d</fix>
</trkpt>
<trkpt lat="33.8106311" lon="-118.3939732">
  <ele>-24.39</ele>
  <time>2026-09-02T22:08:57Z</time>
  <course>53.44</course>
  <speed>1.0</speed>
  <fix>3d</fix>
</trkpt>
<trkpt lat="33.8106327" lon="-118.3939704">
  <ele>-24.999</ele>
  <time>2026-09-02T22:08:57Z</time>
  <course>54.16</course>
  <speed>0.9800510190801294</speed>
  <fix>3d</fix>
</trkpt>
<trkpt lat="33.8106322" lon="-118.3939715">
  <ele>-24.39</ele>
  <time>2026-09-02T22:08:57Z</time>
  <course>53.42</course>
  <speed>1.0</speed>
  <fix>3d</fix>
</trkpt>
<trkpt lat="33.8106333" lon="-118.3939696">
  <ele>-24.999</ele>
  <time>2026-09-02T22:08:57Z</time>
  <course>54.17</course>
  <speed>0.9800510190801294</speed>
  <fix>3d</fix>
</trkpt>
<trkpt lat="33.8106322" lon="-118.3939715">
  <ele>-24.39</ele>
  <time>2026-09-02T22:08:57Z</time>
  <course>53.42</course>
  <speed>1.0</speed>
  <fix>3d</fix>
</trkpt>
<trkpt lat="33.8106338" lon="-118.3939687">
  <ele>-25.0</ele>
  <time>2026-09-02T22:08:57Z</time>
  <course>54.18</course>
  <speed>0.9800510190801294</speed>
  <fix>3d</fix>
</trkpt>
<trkpt lat="33.8106332" lon="-118.3939698">
  <ele>-24.39</ele>
  <time>2026-09-02T22:08:57Z</time>
  <course>53.43</course>
  <speed>1.0</speed>
  <fix>3d</fix>
</trkpt>
<trkpt lat="33.8106344" lon="-118.3939678">
  <ele>-25.001</ele>
  <time>2026-09-02T22:08:57Z</time>
  <course>54.2</course>
  <speed>0.9800510190801294</speed>
  <fix>3d</fix>
</trkpt>
<trkpt lat="33.8106332" lon="-118.3939698">
  <ele>-24.39</ele>
  <time>2026-09-02T22:08:57Z</time>
  <course>53.43</course>
  <speed>1.0</speed>
  <fix>3d</fix>
</trkpt>
<trkpt lat="33.8106349" lon="-118.393967">
  <ele>-25.002</ele>
  <time>2026-09-02T22:08:57Z</time>
  <course>54.22</course>
  <speed>0.9800510190801294</speed>
  <fix>3d</fix>
</trkpt>
<trkpt lat="33.8106343" lon="-118.393968">
  <ele>-24.39</ele>
  <time>2026-09-02T22:08:57Z</time>
  <course>53.45</course>
  <speed>1.0</speed>
  <fix>3d</fix>
</trkpt>
<trkpt lat="33.8106354" lon="-118.3939661">
  <ele>-25.002</ele>
  <time>2026-09-02T22:08:57Z</time>
  <course>54.23</course>
  <speed>0.9800510190801294</speed>
  <fix>3d</fix>
</trkpt>
<trkpt lat="33.8106343" lon="-118.393968">
  <ele>-24.39</ele>
  <time>2026-09-02T22:08:57Z</time>
  <course>53.45</course>
  <speed>1.0</speed>
  <fix>3d</fix>
</trkpt>
<trkpt lat="33.810636" lon="-118.3939652">
  <ele>-25.003</ele>
  <time>2026-09-02T22:08:57Z</time>
  <course>54.23</course>
  <speed>0.9800510190801294</speed>
  <fix>3d</fix>
</trkpt>
<trkpt lat="33.8106354" lon="-118.3939663">
  <ele>-24.4</ele>
  <time>2026-09-02T22:08:57Z</time>
  <course>53.45</course>
  <speed>1.0</speed>
  <fix>3d</fix>
</trkpt>
<trkpt lat="33.8106365" lon="-118.3939643">
  <ele>-25.004</ele>
  <time>2026-09-02T22:08:57Z</time>
  <course>54.22</course>
  <speed>0.9800510190801294</speed>
  <fix>3d</fix>
</trkpt>
<trkpt lat="33.8106354" lon="-118.3939663">
  <ele>-24.4</ele>
  <time>2026-09-02T22:08:57Z</time>
  <course>53.45</course>
  <speed>1.0</speed>
  <fix>3d</fix>
</trkpt>
<trkpt lat="33.810637" lon="-118.3939635">
  <ele>-25.004</ele>
  <time>2026-09-02T22:08:57Z</time>
  <course>54.24</course>
  <speed>0.9800510190801294</speed>
  <fix>3d</fix>
</trkpt>
<trkpt lat="33.8106365" lon="-118.3939645">
  <ele>-24.4</ele>
  <time>2026-09-02T22:08:57Z</time>
  <course>53.45</course>
  <speed>1.0</speed>
  <fix>3d</fix>
</trkpt>
<trkpt lat="33.8106376" lon="-118.3939626">
  <ele>-25.003</ele>
  <time>2026-09-02T22:08:57Z</time>
  <course>54.26</course>
  <speed>0.9800510190801294</speed>
  <fix>3d</fix>
</trkpt>
<trkpt lat="33.8106365" lon="-118.3939645">
  <ele>-24.4</ele>
  <time>2026-09-02T22:08:57Z</time>
  <course>53.45</course>
  <speed>1.0</speed>
  <fix>3d</fix>
</trkpt>
<trkpt lat="33.8106381" lon="-118.3939617">
  <ele>-25.002</ele>
  <time>2026-09-02T22:08:57Z</time>
  <course>54.28</course>
  <speed>0.9800510190801294</speed>
  <fix>3d</fix>
</trkpt>
<trkpt lat="33.8106375" lon="-118.3939628">
  <ele>-24.4</ele>
  <time>2026-09-02T22:08:57Z</time>
  <course>53.47</course>
  <speed>0.99</speed>
  <fix>3d</fix>
</trkpt>
<trkpt lat="33.8106386" lon="-118.3939609">
  <ele>-25.002</ele>
  <time>2026-09-02T22:08:57Z</time>
  <course>54.29</course>
  <speed>0.9800510190801294</speed>
  <fix>3d</fix>
</trkpt>
<trkpt lat="33.8106375" lon="-118.3939628">
  <ele>-24.4</ele>
  <time>2026-09-02T22:08:57Z</time>
  <course>53.47</course>
  <speed>0.99</speed>
  <fix>3d</fix>
</trkpt>
<trkpt lat="33.8106392" lon="-118.39396">
  <ele>-25.002</ele>
  <time>2026-09-02T22:08:57Z</time>
  <course>54.3</course>
  <speed>0.9800510190801294</speed>
  <fix>3d</fix>
</trkpt>
<trkpt lat="33.8106386" lon="-118.393961">
  <ele>-24.4</ele>
  <time>2026-09-02T22:08:57Z</time>
  <course>53.48</course>
  <speed>0.99</speed>
  <fix>3d</fix>
</trkpt>
<trkpt lat="33.8106397" lon="-118.3939591">
  <ele>-25.003</ele>
  <time>2026-09-02T22:08:57Z</time>
  <course>54.29</course>
  <speed>0.9800510190801294</speed>
  <fix>3d</fix>
</trkpt>
<trkpt lat="33.8106386" lon="-118.393961">
  <ele>-24.4</ele>
  <time>2026-09-02T22:08:57Z</time>
  <course>53.48</course>
  <speed>0.99</speed>
  <fix>3d</fix>
</trkpt>
<trkpt lat="33.8106402" lon="-118.3939582">
  <ele>-25.004</ele>
  <time>2026-09-02T22:08:57Z</time>
  <course>54.28</course>
  <speed>0.9800510190801294</speed>
  <fix>3d</fix>
</trkpt>
<trkpt lat="33.8106396" lon="-118.3939593">
  <ele>-24.4</ele>
  <time>2026-09-02T22:08:57Z</time>
  <course>53.46</course>
  <speed>0.99</speed>
  <fix>3d</fix>
</trkpt>
<trkpt lat="33.8106408" lon="-118.3939574">
  <ele>-25.005</ele>
  <time>2026-09-02T22:08:57Z</time>
  <course>54.26</course>
  <speed>0.9800510190801294</speed>
  <fix>3d</fix>
</trkpt>
<trkpt lat="33.8106396" lon="-118.3939593">
  <ele>-24.4</ele>
  <time>2026-09-02T22:08:57Z</time>
  <course>53.46</course>
  <speed>0.99</speed>
  <fix>3d</fix>
</trkpt>
<trkpt lat="33.8106413" lon="-118.3939565">
  <ele>-25.005</ele>
  <time>2026-09-02T22:08:57Z</time>
  <course>54.23</course>
  <speed>0.9800510190801294</speed>
  <fix>3d</fix>
</trkpt>
<trkpt lat="33.8106407" lon="-118.3939576">
  <ele>-24.4</ele>
  <time>2026-09-02T22:08:57Z</time>
  <course>53.41</course>
  <speed>0.99</speed>
  <fix>3d</fix>
</trkpt>
<trkpt lat="33.8106418" lon="-118.3939556">
  <ele>-25.006</ele>
  <time>2026-09-02T22:08:57Z</time>
  <course>54.21</course>
  <speed>0.9800510190801294</speed>
  <fix>3d</fix>
</trkpt>
<trkpt lat="33.8106407" lon="-118.3939576">
  <ele>-24.4</ele>
  <time>2026-09-02T22:08:57Z</time>
  <course>53.41</course>
  <speed>0.99</speed>
  <fix>3d</fix>
</trkpt>
<trkpt lat="33.8106424" lon="-118.3939548">
  <ele>-25.005</ele>
  <time>2026-09-02T22:08:57Z</time>
  <course>54.18</course>
  <speed>0.9800510190801294</speed>
  <fix>3d</fix>
</trkpt>
<trkpt lat="33.8106418" lon="-118.3939559">
  <ele>-24.39</ele>
  <time>2026-09-02T22:08:57Z</time>
  <course>53.36</course>
  <speed>0.99</speed>
  <fix>3d</fix>
</trkpt>
<trkpt lat="33.8106429" lon="-118.3939539">
  <ele>-25.003</ele>
  <time>2026-09-02T22:08:57Z</time>
  <course>54.17</course>
  <speed>0.9800510190801294</speed>
  <fix>3d</fix>
</trkpt>
<trkpt lat="33.8106418" lon="-118.3939559">
  <ele>-24.39</ele>
  <time>2026-09-02T22:08:57Z</time>
  <course>53.36</course>
  <speed>0.99</speed>
  <fix>3d</fix>
</trkpt>
<trkpt lat="33.8106434" lon="-118.393953">
  <ele>-25.0</ele>
  <time>2026-09-02T22:08:57Z</time>
  <course>54.17</course>
  <speed>0.9800510190801294</speed>
  <fix>3d</fix>
</trkpt>
<trkpt lat="33.8106429" lon="-118.3939541">
  <ele>-24.39</ele>
  <time>2026-09-02T22:08:57Z</time>
  <course>53.37</course>
  <speed>0.99</speed>
  <fix>3d</fix>
</trkpt>
<trkpt lat="33.810644" lon="-118.3939522">
  <ele>-24.996</ele>
  <time>2026-09-02T22:08:57Z</time>
  <course>54.19</course>
  <speed>0.9800510190801294</speed>
  <fix>3d</fix>
</trkpt>
<trkpt lat="33.8106429" lon="-118.3939541">
  <ele>-24.39</ele>
  <time>2026-09-02T22:08:57Z</time>
  <course>53.37</course>
  <speed>0.99</speed>
  <fix>3d</fix>
</trkpt>
<trkpt lat="33.8106445" lon="-118.3939513">
  <ele>-24.994</ele>
  <time>2026-09-02T22:08:57Z</time>
  <course>54.22</course>
  <speed>0.9800510190801294</speed>
  <fix>3d</fix>
</trkpt>
<trkpt lat="33.8106439" lon="-118.3939524">
  <ele>-24.39</ele>
  <time>2026-09-02T22:08:57Z</time>
  <course>53.42</course>
  <speed>0.99</speed>
  <fix>3d</fix>
</trkpt>
<trkpt lat="33.8106451" lon="-118.3939504">
  <ele>-24.995</ele>
  <time>2026-09-02T22:08:57Z</time>
  <course>54.24</course>
  <speed>0.9800510190801294</speed>
  <fix>3d</fix>
</trkpt>
<trkpt lat="33.8106439" lon="-118.3939524">
  <ele>-24.39</ele>
  <time>2026-09-02T22:08:57Z</time>
  <course>53.42</course>
  <speed>0.99</speed>
  <fix>3d</fix>
</trkpt>
<trkpt lat="33.8106456" lon="-118.3939496">
  <ele>-24.996</ele>
  <time>2026-09-02T22:08:57Z</time>
  <course>54.26</course>
  <speed>0.9800510190801294</speed>
  <fix>3d</fix>
</trkpt>
<trkpt lat="33.810645" lon="-118.3939507">
  <ele>-24.39</ele>
  <time>2026-09-02T22:08:57Z</time>
  <course>53.45</course>
  <speed>0.99</speed>
  <fix>3d</fix>
</trkpt>
<trkpt lat="33.8106461" lon="-118.3939487">
  <ele>-24.997</ele>
  <time>2026-09-02T22:08:57Z</time>
  <course>54.26</course>
  <speed>0.9800510190801294</speed>
  <fix>3d</fix>
</trkpt>
<trkpt lat="33.810645" lon="-118.3939507">
  <ele>-24.39</ele>
  <time>2026-09-02T22:08:57Z</time>
  <course>53.45</course>
  <speed>0.99</speed>
  <fix>3d</fix>
</trkpt>
<trkpt lat="33.8106467" lon="-118.3939478">
  <ele>-24.999</ele>
  <time>2026-09-02T22:08:57Z</time>
  <course>54.27</course>
  <speed>0.9800510190801294</speed>
  <fix>3d</fix>
</trkpt>
<trkpt lat="33.8106461" lon="-118.3939489">
  <ele>-24.39</ele>
  <time>2026-09-02T22:08:57Z</time>
  <course>53.46</course>
  <speed>0.99</speed>
  <fix>3d</fix>
</trkpt>
<trkpt lat="33.8106472" lon="-118.393947">
  <ele>-25.001</ele>
  <time>2026-09-02T22:08:57Z</time>
  <course>54.29</course>
  <speed>0.9800510190801294</speed>
  <fix>3d</fix>
</trkpt>
<trkpt lat="33.8106461" lon="-118.3939489">
  <ele>-24.39</ele>
  <time>2026-09-02T22:08:57Z</time>
  <course>53.46</course>
  <speed>0.99</speed>
  <fix>3d</fix>
</trkpt>
<trkpt lat="33.8106477" lon="-118.3939461">
  <ele>-25.002</ele>
  <time>2026-09-02T22:08:57Z</time>
  <course>54.3</course>
  <speed>0.9800510190801294</speed>
  <fix>3d</fix>
</trkpt>
<trkpt lat="33.8106471" lon="-118.3939472">
  <ele>-24.4</ele>
  <time>2026-09-02T22:08:57Z</time>
  <course>53.47</course>
  <speed>0.99</speed>
  <fix>3d</fix>
</trkpt>
<trkpt lat="33.8106483" lon="-118.3939452">
  <ele>-25.003</ele>
  <time>2026-09-02T22:08:57Z</time>
  <course>54.31</course>
  <speed>0.9800510190801294</speed>
  <fix>3d</fix>
</trkpt>
<trkpt lat="33.8106471" lon="-118.3939472">
  <ele>-24.4</ele>
  <time>2026-09-02T22:08:57Z</time>
  <course>53.47</course>
  <speed>0.99</speed>
  <fix>3d</fix>
</trkpt>
<trkpt lat="33.8106488" lon="-118.3939444">
  <ele>-25.004</ele>
  <time>2026-09-02T22:08:57Z</time>
  <course>54.31</course>
  <speed>0.9800510190801294</speed>
  <fix>3d</fix>
</trkpt>
<trkpt lat="33.8106482" lon="-118.3939455">
  <ele>-24.4</ele>
  <time>2026-09-02T22:08:57Z</time>
  <course>53.47</course>
  <speed>0.99</speed>
  <fix>3d</fix>
</trkpt>
<trkpt lat="33.8106493" lon="-118.3939435">
  <ele>-25.004</ele>
  <time>2026-09-02T22:08:57Z</time>
  <course>54.3</course>
  <speed>0.98812954616285</speed>
  <fix>3d</fix>
</trkpt>
<trkpt lat="33.8106482" lon="-118.3939455">
  <ele>-24.4</ele>
  <time>2026-09-02T22:08:57Z</time>
  <course>53.47</course>
  <speed>0.99</speed>
  <fix>3d</fix>
</trkpt>
<trkpt lat="33.8106499" lon="-118.3939426">
  <ele>-25.005</ele>
  <time>2026-09-02T22:08:57Z</time>
  <course>54.3</course>
  <speed>0.9800510190801294</speed>
  <fix>3d</fix>
</trkpt>
<trkpt lat="33.8106492" lon="-118.3939437">
  <ele>-24.4</ele>
  <time>2026-09-02T22:08:57Z</time>
  <course>53.46</course>
  <speed>0.99</speed>
  <fix>3d</fix>
</trkpt>
<trkpt lat="33.8106504" lon="-118.3939417">
  <ele>-25.004</ele>
  <time>2026-09-02T22:08:57Z</time>
  <course>54.3</course>
  <speed>0.9800510190801294</speed>
  <fix>3d</fix>
</trkpt>
<trkpt lat="33.8106492" lon="-118.3939437">
  <ele>-24.4</ele>
  <time>2026-09-02T22:08:57Z</time>
  <course>53.46</course>
  <speed>0.99</speed>
  <fix>3d</fix>
</trkpt>
<trkpt lat="33.8106509" lon="-118.3939409">
  <ele>-25.003</ele>
  <time>2026-09-02T22:08:57Z</time>
  <course>54.28</course>
  <speed>0.9800510190801294</speed>
  <fix>3d</fix>
</trkpt>
<trkpt lat="33.8106503" lon="-118.393942">
  <ele>-24.4</ele>
  <time>2026-09-02T22:08:57Z</time>
  <course>53.42</course>
  <speed>0.99</speed>
  <fix>3d</fix>
</trkpt>
<trkpt lat="33.8106515" lon="-118.39394">
  <ele>-25.002</ele>
  <time>2026-09-02T22:08:57Z</time>
  <course>54.26</course>
  <speed>0.9800510190801294</speed>
  <fix>3d</fix>
</trkpt>
<trkpt lat="33.8106503" lon="-118.393942">
  <ele>-24.4</ele>
  <time>2026-09-02T22:08:57Z</time>
  <course>53.42</course>
  <speed>0.99</speed>
  <fix>3d</fix>
</trkpt>
<trkpt lat="33.810652" lon="-118.3939391">
  <ele>-25.0</ele>
  <time>2026-09-02T22:08:57Z</time>
  <course>54.24</course>
  <speed>0.9800510190801294</speed>
  <fix>3d</fix>
</trkpt>
<trkpt lat="33.8106514" lon="-118.3939403">
  <ele>-24.4</ele>
  <time>2026-09-02T22:08:57Z</time>
  <course>53.35</course>
  <speed>1.0</speed>
  <fix>3d</fix>
</trkpt>
<trkpt lat="33.8106525" lon="-118.3939383">
  <ele>-24.999</ele>
  <time>2026-09-02T22:08:57Z</time>
  <course>54.23</course>
  <speed>0.9800510190801294</speed>
  <fix>3d</fix>
</trkpt>
<trkpt lat="33.8106514" lon="-118.3939403">
  <ele>-24.4</ele>
  <time>2026-09-02T22:08:57Z</time>
  <course>53.35</course>
  <speed>1.0</speed>
  <fix>3d</fix>
</trkpt>
<trkpt lat="33.8106531" lon="-118.3939374">
  <ele>-24.999</ele>
  <time>2026-09-02T22:08:57Z</time>
  <course>54.24</course>
  <speed>0.98812954616285</speed>
  <fix>3d</fix>
</trkpt>
<trkpt lat="33.8106525" lon="-118.3939385">
  <ele>-24.4</ele>
  <time>2026-09-02T22:08:57Z</time>
  <course>53.35</course>
  <speed>1.0</speed>
  <fix>3d</fix>
</trkpt>
<trkpt lat="33.8106536" lon="-118.3939365">
  <ele>-25.001</ele>
  <time>2026-09-02T22:08:57Z</time>
  <course>54.25</course>
  <speed>0.98812954616285</speed>
  <fix>3d</fix>
</trkpt>
<trkpt lat="33.8106525" lon="-118.3939385">
  <ele>-24.4</ele>
  <time>2026-09-02T22:08:57Z</time>
  <course>53.35</course>
  <speed>1.0</speed>
  <fix>3d</fix>
</trkpt>
<trkpt lat="33.8106541" lon="-118.3939357">
  <ele>-25.003</ele>
  <time>2026-09-02T22:08:57Z</time>
  <course>54.27</course>
  <speed>0.98812954616285</speed>
  <fix>3d</fix>
</trkpt>
<trkpt lat="33.8106535" lon="-118.3939368">
  <ele>-24.4</ele>
  <time>2026-09-02T22:08:57Z</time>
  <course>53.39</course>
  <speed>1.0</speed>
  <fix>3d</fix>
</trkpt>
<trkpt lat="33.8106547" lon="-118.3939348">
  <ele>-25.004</ele>
  <time>2026-09-02T22:08:57Z</time>
  <course>54.29</course>
  <speed>0.9800510190801294</speed>
  <fix>3d</fix>
</trkpt>
<trkpt lat="33.8106535" lon="-118.3939368">
  <ele>-24.4</ele>
  <time>2026-09-02T22:08:57Z</time>
  <course>53.39</course>
  <speed>1.0</speed>
  <fix>3d</fix>
</trkpt>
<trkpt lat="33.8106552" lon="-118.3939339">
  <ele>-25.003</ele>
  <time>2026-09-02T22:08:57Z</time>
  <course>54.3</course>
  <speed>0.9800510190801294</speed>
  <fix>3d</fix>
</trkpt>
<trkpt lat="33.8106546" lon="-118.393935">
  <ele>-24.4</ele>
  <time>2026-09-02T22:08:57Z</time>
  <course>53.41</course>
  <speed>1.0</speed>
  <fix>3d</fix>
</trkpt>
<trkpt lat="33.8106557" lon="-118.3939331">
  <ele>-25.002</ele>
  <time>2026-09-02T22:08:57Z</time>
  <course>54.3</course>
  <speed>0.9800510190801294</speed>
  <fix>3d</fix>
</trkpt>
<trkpt lat="33.8106546" lon="-118.393935">
  <ele>-24.4</ele>
  <time>2026-09-02T22:08:57Z</time>
  <course>53.41</course>
  <speed>1.0</speed>
  <fix>3d</fix>
</trkpt>
<trkpt lat="33.8106563" lon="-118.3939322">
  <ele>-25.002</ele>
  <time>2026-09-02T22:08:57Z</time>
  <course>54.29</course>
  <speed>0.9800510190801294</speed>
  <fix>3d</fix>
</trkpt>
<trkpt lat="33.8106557" lon="-118.3939333">
  <ele>-24.4</ele>
  <time>2026-09-02T22:08:57Z</time>
  <course>53.38</course>
  <speed>1.0</speed>
  <fix>3d</fix>
</trkpt>
<trkpt lat="33.8106568" lon="-118.3939313">
  <ele>-25.003</ele>
  <time>2026-09-02T22:08:57Z</time>
  <course>54.28</course>
  <speed>0.9800510190801294</speed>
  <fix>3d</fix>
</trkpt>
<trkpt lat="33.8106557" lon="-118.3939333">
  <ele>-24.4</ele>
  <time>2026-09-02T22:08:57Z</time>
  <course>53.38</course>
  <speed>1.0</speed>
  <fix>3d</fix>
</trkpt>
<trkpt lat="33.8106573" lon="-118.3939304">
  <ele>-25.004</ele>
  <time>2026-09-02T22:08:57Z</time>
  <course>54.29</course>
  <speed>0.98812954616285</speed>
  <fix>3d</fix>
</trkpt>
<trkpt lat="33.8106568" lon="-118.3939316">
  <ele>-24.4</ele>
  <time>2026-09-02T22:08:57Z</time>
  <course>53.37</course>
  <speed>1.0</speed>
  <fix>3d</fix>
</trkpt>
<trkpt lat="33.8106579" lon="-118.3939296">
  <ele>-25.003</ele>
  <time>2026-09-02T22:08:57Z</time>
  <course>54.31</course>
  <speed>0.98812954616285</speed>
  <fix>3d</fix>
</trkpt>
<trkpt lat="33.8106568" lon="-118.3939316">
  <ele>-24.4</ele>
  <time>2026-09-02T22:08:57Z</time>
  <course>53.37</course>
  <speed>1.0</speed>
  <fix>3d</fix>
</trkpt>
<trkpt lat="33.8106584" lon="-118.3939287">
  <ele>-25.003</ele>
  <time>2026-09-02T22:08:57Z</time>
  <course>54.33</course>
  <speed>0.98812954616285</speed>
  <fix>3d</fix>
</trkpt>
<trkpt lat="33.8106578" lon="-118.3939298">
  <ele>-24.4</ele>
  <time>2026-09-02T22:08:57Z</time>
  <course>53.41</course>
  <speed>1.0</speed>
  <fix>3d</fix>
</trkpt>
<trkpt lat="33.8106589" lon="-118.3939278">
  <ele>-25.004</ele>
  <time>2026-09-02T22:08:57Z</time>
  <course>54.36</course>
  <speed>0.98812954616285</speed>
  <fix>3d</fix>
</trkpt>
<trkpt lat="33.8106578" lon="-118.3939298">
  <ele>-24.4</ele>
  <time>2026-09-02T22:08:57Z</time>
  <course>53.41</course>
  <speed>1.0</speed>
  <fix>3d</fix>
</trkpt>
<trkpt lat="33.8106595" lon="-118.393927">
  <ele>-25.004</ele>
  <time>2026-09-02T22:08:57Z</time>
  <course>54.37</course>
  <speed>0.9800510190801294</speed>
  <fix>3d</fix>
</trkpt>
<trkpt lat="33.8106589" lon="-118.3939281">
  <ele>-24.4</ele>
  <time>2026-09-02T22:08:57Z</time>
  <course>53.43</course>
  <speed>1.0</speed>
  <fix>3d</fix>
</trkpt>
<trkpt lat="33.81066" lon="-118.3939261">
  <ele>-25.004</ele>
  <time>2026-09-02T22:08:57Z</time>
  <course>54.37</course>
  <speed>0.98812954616285</speed>
  <fix>3d</fix>
</trkpt>
<trkpt lat="33.8106589" lon="-118.3939281">
  <ele>-24.4</ele>
  <time>2026-09-02T22:08:57Z</time>
  <course>53.43</course>
  <speed>1.0</speed>
  <fix>3d</fix>
</trkpt>
<trkpt lat="33.8106606" lon="-118.3939252">
  <ele>-25.004</ele>
  <time>2026-09-02T22:08:57Z</time>
  <course>54.37</course>
  <speed>0.98812954616285</speed>
  <fix>3d</fix>
</trkpt>
<trkpt lat="33.81066" lon="-118.3939264">
  <ele>-24.4</ele>
  <time>2026-09-02T22:08:57Z</time>
  <course>53.42</course>
  <speed>1.0</speed>
  <fix>3d</fix>
</trkpt>
<trkpt lat="33.8106611" lon="-118.3939244">
  <ele>-25.005</ele>
  <time>2026-09-02T22:08:57Z</time>
  <course>54.38</course>
  <speed>0.98812954616285</speed>
  <fix>3d</fix>
</trkpt>
<trkpt lat="33.81066" lon="-118.3939264">
  <ele>-24.4</ele>
  <time>2026-09-02T22:08:57Z</time>
  <course>53.42</course>
  <speed>1.0</speed>
  <fix>3d</fix>
</trkpt>
<trkpt lat="33.8106616" lon="-118.3939235">
  <ele>-25.005</ele>
  <time>2026-09-02T22:08:57Z</time>
  <course>54.4</course>
  <speed>0.98812954616285</speed>
  <fix>3d</fix>
</trkpt>
<trkpt lat="33.8106611" lon="-118.3939246">
  <ele>-24.39</ele>
  <time>2026-09-02T22:08:57Z</time>
  <course>53.45</course>
  <speed>1.0</speed>
  <fix>3d</fix>
</trkpt>
<trkpt lat="33.8106622" lon="-118.3939226">
  <ele>-25.005</ele>
  <time>2026-09-02T22:08:57Z</time>
  <course>54.43</course>
  <speed>0.9822932352408826</speed>
  <fix>3d</fix>
</trkpt>
<trkpt lat="33.8106611" lon="-118.3939246">
  <ele>-24.39</ele>
  <time>2026-09-02T22:08:57Z</time>
  <course>53.45</course>
  <speed>1.0</speed>
  <fix>3d</fix>
</trkpt>
<trkpt lat="33.8106627" lon="-118.3939217">
  <ele>-25.004</ele>
  <time>2026-09-02T22:08:57Z</time>
  <course>54.46</course>
  <speed>0.9822932352408826</speed>
  <fix>3d</fix>
</trkpt>
<trkpt lat="33.8106621" lon="-118.3939229">
  <ele>-24.39</ele>
  <time>2026-09-02T22:08:57Z</time>
  <course>53.52</course>
  <speed>1.0</speed>
  <fix>3d</fix>
</trkpt>
<trkpt lat="33.8106632" lon="-118.3939209">
  <ele>-25.003</ele>
  <time>2026-09-02T22:08:57Z</time>
  <course>54.48</course>
  <speed>0.9822932352408826</speed>
  <fix>3d</fix>
</trkpt>
<trkpt lat="33.8106621" lon="-118.3939229">
  <ele>-24.39</ele>
  <time>2026-09-02T22:08:57Z</time>
  <course>53.52</course>
  <speed>1.0</speed>
  <fix>3d</fix>
</trkpt>
<trkpt lat="33.8106638" lon="-118.39392">
  <ele>-25.001</ele>
  <time>2026-09-02T22:08:57Z</time>
  <course>54.5</course>
  <speed>0.9822932352408826</speed>
  <fix>3d</fix>
</trkpt>
<trkpt lat="33.8106632" lon="-118.3939211">
  <ele>-24.39</ele>
  <time>2026-09-02T22:08:57Z</time>
  <course>53.55</course>
  <speed>1.0</speed>
  <fix>3d</fix>
</trkpt>
<trkpt lat="33.8106643" lon="-118.3939191">
  <ele>-24.999</ele>
  <time>2026-09-02T22:08:57Z</time>
  <course>54.51</course>
  <speed>0.9822932352408826</speed>
  <fix>3d</fix>
</trkpt>
<trkpt lat="33.8106632" lon="-118.3939211">
  <ele>-24.39</ele>
  <time>2026-09-02T22:08:57Z</time>
  <course>53.55</course>
  <speed>1.0</speed>
  <fix>3d</fix>
</trkpt>
<trkpt lat="33.8106648" lon="-118.3939183">
  <ele>-24.998</ele>
  <time>2026-09-02T22:08:57Z</time>
  <course>54.5</course>
  <speed>0.9741663102366043</speed>
  <fix>3d</fix>
</trkpt>
<trkpt lat="33.8106643" lon="-118.3939194">
  <ele>-24.39</ele>
  <time>2026-09-02T22:08:57Z</time>
  <course>53.53</course>
  <speed>1.0</speed>
  <fix>3d</fix>
</trkpt>
<trkpt lat="33.8106654" lon="-118.3939174">
  <ele>-24.996</ele>
  <time>2026-09-02T22:08:57Z</time>
  <course>54.49</course>
  <speed>0.9741663102366043</speed>
  <fix>3d</fix>
</trkpt>
<trkpt lat="33.8106643" lon="-118.3939194">
  <ele>-24.39</ele>
  <time>2026-09-02T22:08:57Z</time>
  <course>53.53</course>
  <speed>1.0</speed>
  <fix>3d</fix>
</trkpt>
<trkpt lat="33.8106659" lon="-118.3939165">
  <ele>-24.995</ele>
  <time>2026-09-02T22:08:57Z</time>
  <course>54.49</course>
  <speed>0.9741663102366043</speed>
  <fix>3d</fix>
</trkpt>
<trkpt lat="33.8106653" lon="-118.3939177">
  <ele>-24.38</ele>
  <time>2026-09-02T22:08:57Z</time>
  <course>53.52</course>
  <speed>0.99</speed>
  <fix>3d</fix>
</trkpt>
<trkpt lat="33.8106664" lon="-118.3939157">
  <ele>-24.995</ele>
  <time>2026-09-02T22:08:57Z</time>
  <course>54.5</course>
  <speed>0.9822932352408826</speed>
  <fix>3d</fix>
</trkpt>
<trkpt lat="33.8106653" lon="-118.3939177">
  <ele>-24.38</ele>
  <time>2026-09-02T22:08:57Z</time>
  <course>53.52</course>
  <speed>0.99</speed>
  <fix>3d</fix>
</trkpt>
<trkpt lat="33.810667" lon="-118.3939148">
  <ele>-24.995</ele>
  <time>2026-09-02T22:08:57Z</time>
  <course>54.51</course>
  <speed>0.9822932352408826</speed>
  <fix>3d</fix>
</trkpt>
<trkpt lat="33.8106664" lon="-118.3939159">
  <ele>-24.38</ele>
  <time>2026-09-02T22:08:57Z</time>
  <course>53.53</course>
  <speed>0.99</speed>
  <fix>3d</fix>
</trkpt>
<trkpt lat="33.8106675" lon="-118.3939139">
  <ele>-24.995</ele>
  <time>2026-09-02T22:08:57Z</time>
  <course>54.51</course>
  <speed>0.9822932352408826</speed>
  <fix>3d</fix>
</trkpt>
<trkpt lat="33.8106664" lon="-118.3939159">
  <ele>-24.38</ele>
  <time>2026-09-02T22:08:57Z</time>
  <course>53.53</course>
  <speed>0.99</speed>
  <fix>3d</fix>
</trkpt>
<trkpt lat="33.810668" lon="-118.393913">
  <ele>-24.996</ele>
  <time>2026-09-02T22:08:57Z</time>
  <course>54.49</course>
  <speed>0.9822932352408826</speed>
  <fix>3d</fix>
</trkpt>
<trkpt lat="33.8106675" lon="-118.3939142">
  <ele>-24.39</ele>
  <time>2026-09-02T22:08:57Z</time>
  <course>53.52</course>
  <speed>1.0</speed>
  <fix>3d</fix>
</trkpt>
<trkpt lat="33.8106686" lon="-118.3939122">
  <ele>-24.996</ele>
  <time>2026-09-02T22:08:57Z</time>
  <course>54.49</course>
  <speed>0.9822932352408826</speed>
  <fix>3d</fix>
</trkpt>
<trkpt lat="33.8106675" lon="-118.3939142">
  <ele>-24.39</ele>
  <time>2026-09-02T22:08:57Z</time>
  <course>53.52</course>
  <speed>1.0</speed>
  <fix>3d</fix>
</trkpt>
<trkpt lat="33.8106691" lon="-118.3939113">
  <ele>-24.996</ele>
  <time>2026-09-02T22:08:57Z</time>
  <course>54.49</course>
  <speed>0.9822932352408826</speed>
  <fix>3d</fix>
</trkpt>
<trkpt lat="33.8106686" lon="-118.3939124">
  <ele>-24.39</ele>
  <time>2026-09-02T22:08:57Z</time>
  <course>53.51</course>
  <speed>1.0</speed>
  <fix>3d</fix>
</trkpt>
<trkpt lat="33.8106697" lon="-118.3939104">
  <ele>-24.996</ele>
  <time>2026-09-02T22:08:57Z</time>
  <course>54.5</course>
  <speed>0.9822932352408826</speed>
  <fix>3d</fix>
</trkpt>
<trkpt lat="33.8106686" lon="-118.3939124">
  <ele>-24.39</ele>
  <time>2026-09-02T22:08:57Z</time>
  <course>53.51</course>
  <speed>1.0</speed>
  <fix>3d</fix>
</trkpt>
<trkpt lat="33.8106702" lon="-118.3939096">
  <ele>-24.996</ele>
  <time>2026-09-02T22:08:57Z</time>
  <course>54.51</course>
  <speed>0.9822932352408826</speed>
  <fix>3d</fix>
</trkpt>
<trkpt lat="33.8106696" lon="-118.3939107">
  <ele>-24.39</ele>
  <time>2026-09-02T22:08:57Z</time>
  <course>53.53</course>
  <speed>1.0</speed>
  <fix>3d</fix>
</trkpt>
<trkpt lat="33.8106707" lon="-118.3939087">
  <ele>-24.998</ele>
  <time>2026-09-02T22:08:57Z</time>
  <course>54.52</course>
  <speed>0.9822932352408826</speed>
  <fix>3d</fix>
</trkpt>
<trkpt lat="33.8106696" lon="-118.3939107">
  <ele>-24.39</ele>
  <time>2026-09-02T22:08:57Z</time>
  <course>53.53</course>
  <speed>1.0</speed>
  <fix>3d</fix>
</trkpt>
<trkpt lat="33.8106713" lon="-118.3939078">
  <ele>-25.0</ele>
  <time>2026-09-02T22:08:57Z</time>
  <course>54.52</course>
  <speed>0.9822932352408826</speed>
  <fix>3d</fix>
</trkpt>
<trkpt lat="33.8106707" lon="-118.393909">
  <ele>-24.4</ele>
  <time>2026-09-02T22:08:57Z</time>
  <course>53.54</course>
  <speed>1.0</speed>
  <fix>3d</fix>
</trkpt>
<trkpt lat="33.8106718" lon="-118.3939069">
  <ele>-25.002</ele>
  <time>2026-09-02T22:08:57Z</time>
  <course>54.52</course>
  <speed>0.9822932352408826</speed>
  <fix>3d</fix>
</trkpt>
<trkpt lat="33.8106707" lon="-118.393909">
  <ele>-24.4</ele>
  <time>2026-09-02T22:08:57Z</time>
  <course>53.54</course>
  <speed>1.0</speed>
  <fix>3d</fix>
</trkpt>
<trkpt lat="33.8106723" lon="-118.3939061">
  <ele>-25.004</ele>
  <time>2026-09-02T22:08:57Z</time>
  <course>54.52</course>
  <speed>0.9822932352408826</speed>
  <fix>3d</fix>
</trkpt>
<trkpt lat="33.8106717" lon="-118.3939072">
  <ele>-24.4</ele>
  <time>2026-09-02T22:08:57Z</time>
  <course>53.54</course>
  <speed>1.0</speed>
  <fix>3d</fix>
</trkpt>
<trkpt lat="33.8106729" lon="-118.3939052">
  <ele>-25.006</ele>
  <time>2026-09-02T22:08:57Z</time>
  <course>54.52</course>
  <speed>0.9822932352408826</speed>
  <fix>3d</fix>
</trkpt>
<trkpt lat="33.8106717" lon="-118.3939072">
  <ele>-24.4</ele>
  <time>2026-09-02T22:08:57Z</time>
  <course>53.54</course>
  <speed>1.0</speed>
  <fix>3d</fix>
</trkpt>
<trkpt lat="33.8106734" lon="-118.3939043">
  <ele>-25.007</ele>
  <time>2026-09-02T22:08:57Z</time>
  <course>54.5</course>
  <speed>0.9822932352408826</speed>
  <fix>3d</fix>
</trkpt>
<trkpt lat="33.8106728" lon="-118.3939055">
  <ele>-24.4</ele>
  <time>2026-09-02T22:08:57Z</time>
  <course>53.53</course>
  <speed>1.0</speed>
  <fix>3d</fix>
</trkpt>
<trkpt lat="33.8106739" lon="-118.3939035">
  <ele>-25.008</ele>
  <time>2026-09-02T22:08:57Z</time>
  <course>54.47</course>
  <speed>0.9822932352408826</speed>
  <fix>3d</fix>
</trkpt>
<trkpt lat="33.8106728" lon="-118.3939055">
  <ele>-24.4</ele>
  <time>2026-09-02T22:08:57Z</time>
  <course>53.53</course>
  <speed>1.0</speed>
  <fix>3d</fix>
</trkpt>
<trkpt lat="33.8106745" lon="-118.3939026">
  <ele>-25.007</ele>
  <time>2026-09-02T22:08:57Z</time>
  <course>54.45</course>
  <speed>0.9822932352408826</speed>
  <fix>3d</fix>
</trkpt>
<trkpt lat="33.8106739" lon="-118.3939037">
  <ele>-24.4</ele>
  <time>2026-09-02T22:08:57Z</time>
  <course>53.49</course>
  <speed>1.0</speed>
  <fix>3d</fix>
</trkpt>
<trkpt lat="33.810675" lon="-118.3939017">
  <ele>-25.006</ele>
  <time>2026-09-02T22:08:57Z</time>
  <course>54.43</course>
  <speed>0.9822932352408826</speed>
  <fix>3d</fix>
</trkpt>
<trkpt lat="33.8106739" lon="-118.3939037">
  <ele>-24.4</ele>
  <time>2026-09-02T22:08:57Z</time>
  <course>53.49</course>
  <speed>1.0</speed>
  <fix>3d</fix>
</trkpt>
<trkpt lat="33.8106755" lon="-118.3939009">
  <ele>-25.004</ele>
  <time>2026-09-02T22:08:57Z</time>
  <course>54.42</course>
  <speed>0.9822932352408826</speed>
  <fix>3d</fix>
</trkpt>
<trkpt lat="33.8106749" lon="-118.393902">
  <ele>-24.4</ele>
  <time>2026-09-02T22:08:57Z</time>
  <course>53.47</course>
  <speed>1.0</speed>
  <fix>3d</fix>
</trkpt>
<trkpt lat="33.8106761" lon="-118.3939">
  <ele>-25.003</ele>
  <time>2026-09-02T22:08:57Z</time>
  <course>54.41</course>
  <speed>0.9822932352408826</speed>
  <fix>3d</fix>
</trkpt>
<trkpt lat="33.8106749" lon="-118.393902">
  <ele>-24.4</ele>
  <time>2026-09-02T22:08:57Z</time>
  <course>53.47</course>
  <speed>1.0</speed>
  <fix>3d</fix>
</trkpt>
<trkpt lat="33.8106766" lon="-118.3938991">
  <ele>-25.003</ele>
  <time>2026-09-02T22:08:57Z</time>
  <course>54.38</course>
  <speed>0.98812954616285</speed>
  <fix>3d</fix>
</trkpt>
<trkpt lat="33.810676" lon="-118.3939002">
  <ele>-24.4</ele>
  <time>2026-09-02T22:08:58Z</time>
  <course>53.44</course>
  <speed>1.0</speed>
  <fix>3d</fix>
</trkpt>
<trkpt lat="33.8106771" lon="-118.3938982">
  <ele>-25.003</ele>
  <time>2026-09-02T22:08:58Z</time>
  <course>54.36</course>
  <speed>0.9822932352408826</speed>
  <fix>3d</fix>
</trkpt>
<trkpt lat="33.810676" lon="-118.3939002">
  <ele>-24.4</ele>
  <time>2026-09-02T22:08:58Z</time>
  <course>53.44</course>
  <speed>1.0</speed>
  <fix>3d</fix>
</trkpt>
<trkpt lat="33.8106777" lon="-118.3938974">
  <ele>-25.001</ele>
  <time>2026-09-02T22:08:58Z</time>
  <course>54.33</course>
  <speed>0.9800510190801294</speed>
  <fix>3d</fix>
</trkpt>
<trkpt lat="33.8106771" lon="-118.3938985">
  <ele>-24.39</ele>
  <time>2026-09-02T22:08:58Z</time>
  <course>53.39</course>
  <speed>1.0</speed>
  <fix>3d</fix>
</trkpt>
<trkpt lat="33.8106782" lon="-118.3938965">
  <ele>-24.999</ele>
  <time>2026-09-02T22:08:58Z</time>
  <course>54.3</course>
  <speed>0.9741663102366043</speed>
  <fix>3d</fix>
</trkpt>
<trkpt lat="33.8106771" lon="-118.3938985">
  <ele>-24.39</ele>
  <time>2026-09-02T22:08:58Z</time>
  <course>53.39</course>
  <speed>1.0</speed>
  <fix>3d</fix>
</trkpt>
<trkpt lat="33.8106787" lon="-118.3938956">
  <ele>-24.997</ele>
  <time>2026-09-02T22:08:58Z</time>
  <course>54.29</course>
  <speed>0.9822932352408826</speed>
  <fix>3d</fix>
</trkpt>
<trkpt lat="33.8106782" lon="-118.3938968">
  <ele>-24.39</ele>
  <time>2026-09-02T22:08:58Z</time>
  <course>53.35</course>
  <speed>1.0</speed>
  <fix>3d</fix>
</trkpt>
<trkpt lat="33.8106793" lon="-118.3938948">
  <ele>-24.996</ele>
  <time>2026-09-02T22:08:58Z</time>
  <course>54.3</course>
  <speed>0.9822932352408826</speed>
  <fix>3d</fix>
</trkpt>
<trkpt lat="33.8106782" lon="-118.3938968">
  <ele>-24.39</ele>
  <time>2026-09-02T22:08:58Z</time>
  <course>53.35</course>
  <speed>1.0</speed>
  <fix>3d</fix>
</trkpt>
<trkpt lat="33.8106798" lon="-118.3938939">
  <ele>-24.996</ele>
  <time>2026-09-02T22:08:58Z</time>
  <course>54.32</course>
  <speed>0.9822932352408826</speed>
  <fix>3d</fix>
</trkpt>
<trkpt lat="33.8106792" lon="-118.393895">
  <ele>-24.39</ele>
  <time>2026-09-02T22:08:58Z</time>
  <course>53.39</course>
  <speed>1.0</speed>
  <fix>3d</fix>
</trkpt>
<trkpt lat="33.8106803" lon="-118.393893">
  <ele>-24.997</ele>
  <time>2026-09-02T22:08:58Z</time>
  <course>54.33</course>
  <speed>0.9741663102366043</speed>
  <fix>3d</fix>
</trkpt>
<trkpt lat="33.8106792" lon="-118.393895">
  <ele>-24.39</ele>
  <time>2026-09-02T22:08:58Z</time>
  <course>53.39</course>
  <speed>1.0</speed>
  <fix>3d</fix>
</trkpt>
<trkpt lat="33.8106809" lon="-118.3938921">
  <ele>-24.998</ele>
  <time>2026-09-02T22:08:58Z</time>
  <course>54.33</course>
  <speed>0.9741663102366043</speed>
  <fix>3d</fix>
</trkpt>
<trkpt lat="33.8106803" lon="-118.3938933">
  <ele>-24.39</ele>
  <time>2026-09-02T22:08:58Z</time>
  <course>53.4</course>
  <speed>1.0</speed>
  <fix>3d</fix>
</trkpt>
<trkpt lat="33.8106814" lon="-118.3938913">
  <ele>-24.999</ele>
  <time>2026-09-02T22:08:58Z</time>
  <course>54.33</course>
  <speed>0.9741663102366043</speed>
  <fix>3d</fix>
</trkpt>
<trkpt lat="33.8106803" lon="-118.3938933">
  <ele>-24.39</ele>
  <time>2026-09-02T22:08:58Z</time>
  <course>53.4</course>
  <speed>1.0</speed>
  <fix>3d</fix>
</trkpt>
<trkpt lat="33.810682" lon="-118.3938904">
  <ele>-25.0</ele>
  <time>2026-09-02T22:08:58Z</time>
  <course>54.33</course>
  <speed>0.9822932352408826</speed>
  <fix>3d</fix>
</trkpt>
<trkpt lat="33.8106814" lon="-118.3938916">
  <ele>-24.39</ele>
  <time>2026-09-02T22:08:58Z</time>
  <course>53.38</course>
  <speed>1.0</speed>
  <fix>3d</fix>
</trkpt>
<trkpt lat="33.8106825" lon="-118.3938895">
  <ele>-25.0</ele>
  <time>2026-09-02T22:08:58Z</time>
  <course>54.34</course>
  <speed>0.9822932352408826</speed>
  <fix>3d</fix>
</trkpt>
<trkpt lat="33.8106814" lon="-118.3938916">
  <ele>-24.39</ele>
  <time>2026-09-02T22:08:58Z</time>
  <course>53.38</course>
  <speed>1.0</speed>
  <fix>3d</fix>
</trkpt>
<trkpt lat="33.810683" lon="-118.3938887">
  <ele>-24.999</ele>
  <time>2026-09-02T22:08:58Z</time>
  <course>54.36</course>
  <speed>0.9822932352408826</speed>
  <fix>3d</fix>
</trkpt>
<trkpt lat="33.8106825" lon="-118.3938898">
  <ele>-24.39</ele>
  <time>2026-09-02T22:08:58Z</time>
  <course>53.41</course>
  <speed>1.0</speed>
  <fix>3d</fix>
</trkpt>
<trkpt lat="33.8106836" lon="-118.3938878">
  <ele>-24.998</ele>
  <time>2026-09-02T22:08:58Z</time>
  <course>54.38</course>
  <speed>0.9822932352408826</speed>
  <fix>3d</fix>
</trkpt>
<trkpt lat="33.8106825" lon="-118.3938898">
  <ele>-24.39</ele>
  <time>2026-09-02T22:08:58Z</time>
  <course>53.41</course>
  <speed>1.0</speed>
  <fix>3d</fix>
</trkpt>
<trkpt lat="33.8106841" lon="-118.3938869">
  <ele>-24.997</ele>
  <time>2026-09-02T22:08:58Z</time>
  <course>54.41</course>
  <speed>0.9822932352408826</speed>
  <fix>3d</fix>
</trkpt>
<trkpt lat="33.8106835" lon="-118.3938881">
  <ele>-24.39</ele>
  <time>2026-09-02T22:08:58Z</time>
  <course>53.46</course>
  <speed>1.0</speed>
  <fix>3d</fix>
</trkpt>
<trkpt lat="33.8106846" lon="-118.3938861">
  <ele>-24.997</ele>
  <time>2026-09-02T22:08:58Z</time>
  <course>54.43</course>
  <speed>0.9822932352408826</speed>
  <fix>3d</fix>
</trkpt>
<trkpt lat="33.8106835" lon="-118.3938881">
  <ele>-24.39</ele>
  <time>2026-09-02T22:08:58Z</time>
  <course>53.46</course>
  <speed>1.0</speed>
  <fix>3d</fix>
</trkpt>
<trkpt lat="33.8106852" lon="-118.3938852">
  <ele>-24.997</ele>
  <time>2026-09-02T22:08:58Z</time>
  <course>54.45</course>
  <speed>0.9822932352408826</speed>
  <fix>3d</fix>
</trkpt>
<trkpt lat="33.8106846" lon="-118.3938863">
  <ele>-24.39</ele>
  <time>2026-09-02T22:08:58Z</time>
  <course>53.49</course>
  <speed>1.0</speed>
  <fix>3d</fix>
</trkpt>
<trkpt lat="33.8106857" lon="-118.3938843">
  <ele>-24.998</ele>
  <time>2026-09-02T22:08:58Z</time>
  <course>54.45</course>
  <speed>0.9741663102366043</speed>
  <fix>3d</fix>
</trkpt>
<trkpt lat="33.8106846" lon="-118.3938863">
  <ele>-24.39</ele>
  <time>2026-09-02T22:08:58Z</time>
  <course>53.49</course>
  <speed>1.0</speed>
  <fix>3d</fix>
</trkpt>
<trkpt lat="33.8106862" lon="-118.3938834">
  <ele>-25.0</ele>
  <time>2026-09-02T22:08:58Z</time>
  <course>54.44</course>
  <speed>0.9741663102366043</speed>
  <fix>3d</fix>
</trkpt>
<trkpt lat="33.8106857" lon="-118.3938846">
  <ele>-24.4</ele>
  <time>2026-09-02T22:08:58Z</time>
  <course>53.47</course>
  <speed>1.0</speed>
  <fix>3d</fix>
</trkpt>
<trkpt lat="33.8106868" lon="-118.3938826">
  <ele>-25.002</ele>
  <time>2026-09-02T22:08:58Z</time>
  <course>54.44</course>
  <speed>0.9741663102366043</speed>
  <fix>3d</fix>
</trkpt>
<trkpt lat="33.8106857" lon="-118.3938846">
  <ele>-24.4</ele>
  <time>2026-09-02T22:08:58Z</time>
  <course>53.47</course>
  <speed>1.0</speed>
  <fix>3d</fix>
</trkpt>
<trkpt lat="33.8106873" lon="-118.3938817">
  <ele>-25.002</ele>
  <time>2026-09-02T22:08:58Z</time>
  <course>54.45</course>
  <speed>0.9822932352408826</speed>
  <fix>3d</fix>
</trkpt>
<trkpt lat="33.8106868" lon="-118.3938829">
  <ele>-24.4</ele>
  <time>2026-09-02T22:08:58Z</time>
  <course>53.46</course>
  <speed>1.0</speed>
  <fix>3d</fix>
</trkpt>
<trkpt lat="33.8106878" lon="-118.3938808">
  <ele>-25.002</ele>
  <time>2026-09-02T22:08:58Z</time>
  <course>54.47</course>
  <speed>0.9822932352408826</speed>
  <fix>3d</fix>
</trkpt>
<trkpt lat="33.8106868" lon="-118.3938829">
  <ele>-24.4</ele>
  <time>2026-09-02T22:08:58Z</time>
  <course>53.46</course>
  <speed>1.0</speed>
  <fix>3d</fix>
</trkpt>
<trkpt lat="33.8106884" lon="-118.39388">
  <ele>-25.001</ele>
  <time>2026-09-02T22:08:58Z</time>
  <course>54.5</course>
  <speed>0.9822932352408826</speed>
  <fix>3d</fix>
</trkpt>
<trkpt lat="33.8106878" lon="-118.3938811">
  <ele>-24.4</ele>
  <time>2026-09-02T22:08:58Z</time>
  <course>53.5</course>
  <speed>1.0</speed>
  <fix>3d</fix>
</trkpt>
<trkpt lat="33.8106889" lon="-118.3938791">
  <ele>-25.0</ele>
  <time>2026-09-02T22:08:58Z</time>
  <course>54.53</course>
  <speed>0.9822932352408826</speed>
  <fix>3d</fix>
</trkpt>
<trkpt lat="33.8106878" lon="-118.3938811">
  <ele>-24.4</ele>
  <time>2026-09-02T22:08:58Z</time>
  <course>53.5</course>
  <speed>1.0</speed>
  <fix>3d</fix>
</trkpt>
<trkpt lat="33.8106895" lon="-118.3938782">
  <ele>-24.999</ele>
  <time>2026-09-02T22:08:58Z</time>
  <course>54.54</course>
  <speed>0.9822932352408826</speed>
  <fix>3d</fix>
</trkpt>
<trkpt lat="33.8106889" lon="-118.3938794">
  <ele>-24.4</ele>
  <time>2026-09-02T22:08:58Z</time>
  <course>53.53</course>
  <speed>1.0</speed>
  <fix>3d</fix>
</trkpt>
<trkpt lat="33.81069" lon="-118.3938773">
  <ele>-24.999</ele>
  <time>2026-09-02T22:08:58Z</time>
  <course>54.55</course>
  <speed>0.9822932352408826</speed>
  <fix>3d</fix>
</trkpt>
<trkpt lat="33.8106889" lon="-118.3938794">
  <ele>-24.4</ele>
  <time>2026-09-02T22:08:58Z</time>
  <course>53.53</course>
  <speed>1.0</speed>
  <fix>3d</fix>
</trkpt>
<trkpt lat="33.8106905" lon="-118.3938765">
  <ele>-24.999</ele>
  <time>2026-09-02T22:08:58Z</time>
  <course>54.55</course>
  <speed>0.9822932352408826</speed>
  <fix>3d</fix>
</trkpt>
<trkpt lat="33.8106899" lon="-118.3938776">
  <ele>-24.4</ele>
  <time>2026-09-02T22:08:58Z</time>
  <course>53.51</course>
  <speed>1.0</speed>
  <fix>3d</fix>
</trkpt>
<trkpt lat="33.8106911" lon="-118.3938756">
  <ele>-25.0</ele>
  <time>2026-09-02T22:08:58Z</time>
  <course>54.54</course>
  <speed>0.9822932352408826</speed>
  <fix>3d</fix>
</trkpt>
<trkpt lat="33.8106899" lon="-118.3938776">
  <ele>-24.4</ele>
  <time>2026-09-02T22:08:58Z</time>
  <course>53.51</course>
  <speed>1.0</speed>
  <fix>3d</fix>
</trkpt>
<trkpt lat="33.8106916" lon="-118.3938747">
  <ele>-25.0</ele>
  <time>2026-09-02T22:08:58Z</time>
  <course>54.51</course>
  <speed>0.9822932352408826</speed>
  <fix>3d</fix>
</trkpt>
<trkpt lat="33.810691" lon="-118.3938759">
  <ele>-24.4</ele>
  <time>2026-09-02T22:08:58Z</time>
  <course>53.48</course>
  <speed>1.0</speed>
  <fix>3d</fix>
</trkpt>
<trkpt lat="33.8106921" lon="-118.3938739">
  <ele>-24.999</ele>
  <time>2026-09-02T22:08:58Z</time>
  <course>54.48</course>
  <speed>0.9822932352408826</speed>
  <fix>3d</fix>
</trkpt>
<trkpt lat="33.810691" lon="-118.3938759">
  <ele>-24.4</ele>
  <time>2026-09-02T22:08:58Z</time>
  <course>53.48</course>
  <speed>1.0</speed>
  <fix>3d</fix>
</trkpt>
<trkpt lat="33.8106926" lon="-118.393873">
  <ele>-24.999</ele>
  <time>2026-09-02T22:08:58Z</time>
  <course>54.45</course>
  <speed>0.9822932352408826</speed>
  <fix>3d</fix>
</trkpt>
<trkpt lat="33.8106921" lon="-118.3938742">
  <ele>-24.4</ele>
  <time>2026-09-02T22:08:58Z</time>
  <course>53.42</course>
  <speed>1.0</speed>
  <fix>3d</fix>
</trkpt>
<trkpt lat="33.8106932" lon="-118.3938721">
  <ele>-25.0</ele>
  <time>2026-09-02T22:08:58Z</time>
  <course>54.43</course>
  <speed>0.9822932352408826</speed>
  <fix>3d</fix>
</trkpt>
<trkpt lat="33.8106921" lon="-118.3938742">
  <ele>-24.4</ele>
  <time>2026-09-02T22:08:58Z</time>
  <course>53.42</course>
  <speed>1.0</speed>
  <fix>3d</fix>
</trkpt>
<trkpt lat="33.8106937" lon="-118.3938713">
  <ele>-25.001</ele>
  <time>2026-09-02T22:08:58Z</time>
  <course>54.43</course>
  <speed>0.9822932352408826</speed>
  <fix>3d</fix>
</trkpt>
<trkpt lat="33.8106932" lon="-118.3938724">
  <ele>-24.4</ele>
  <time>2026-09-02T22:08:58Z</time>
  <course>53.41</course>
  <speed>1.0</speed>
  <fix>3d</fix>
</trkpt>
<trkpt lat="33.8106942" lon="-118.3938704">
  <ele>-25.003</ele>
  <time>2026-09-02T22:08:58Z</time>
  <course>54.44</course>
  <speed>0.9822932352408826</speed>
  <fix>3d</fix>
</trkpt>
<trkpt lat="33.8106932" lon="-118.3938724">
  <ele>-24.4</ele>
  <time>2026-09-02T22:08:58Z</time>
  <course>53.41</course>
  <speed>1.0</speed>
  <fix>3d</fix>
</trkpt>
<trkpt lat="33.8106948" lon="-118.3938695">
  <ele>-25.004</ele>
  <time>2026-09-02T22:08:58Z</time>
  <course>54.46</course>
  <speed>0.9822932352408826</speed>
  <fix>3d</fix>
</trkpt>
<trkpt lat="33.8106942" lon="-118.3938707">
  <ele>-24.4</ele>
  <time>2026-09-02T22:08:58Z</time>
  <course>53.44</course>
  <speed>1.0</speed>
  <fix>3d</fix>
</trkpt>
<trkpt lat="33.8106953" lon="-118.3938687">
  <ele>-25.005</ele>
  <time>2026-09-02T22:08:58Z</time>
  <course>54.47</course>
  <speed>0.9822932352408826</speed>
  <fix>3d</fix>
</trkpt>
<trkpt lat="33.8106942" lon="-118.3938707">
  <ele>-24.4</ele>
  <time>2026-09-02T22:08:58Z</time>
  <course>53.44</course>
  <speed>1.0</speed>
  <fix>3d</fix>
</trkpt>
<trkpt lat="33.8106959" lon="-118.3938678">
  <ele>-25.005</ele>
  <time>2026-09-02T22:08:58Z</time>
  <course>54.48</course>
  <speed>0.9822932352408826</speed>
  <fix>3d</fix>
</trkpt>
<trkpt lat="33.8106953" lon="-118.3938689">
  <ele>-24.4</ele>
  <time>2026-09-02T22:08:58Z</time>
  <course>53.46</course>
  <speed>1.0</speed>
  <fix>3d</fix>
</trkpt>
<trkpt lat="33.8106964" lon="-118.3938669">
  <ele>-25.004</ele>
  <time>2026-09-02T22:08:58Z</time>
  <course>54.47</course>
  <speed>0.9822932352408826</speed>
  <fix>3d</fix>
</trkpt>
<trkpt lat="33.8106953" lon="-118.3938689">
  <ele>-24.4</ele>
  <time>2026-09-02T22:08:58Z</time>
  <course>53.46</course>
  <speed>1.0</speed>
  <fix>3d</fix>
</trkpt>
<trkpt lat="33.8106969" lon="-118.3938661">
  <ele>-25.003</ele>
  <time>2026-09-02T22:08:58Z</time>
  <course>54.46</course>
  <speed>0.9822932352408826</speed>
  <fix>3d</fix>
</trkpt>
<trkpt lat="33.8106964" lon="-118.3938672">
  <ele>-24.4</ele>
  <time>2026-09-02T22:08:58Z</time>
  <course>53.45</course>
  <speed>1.0</speed>
  <fix>3d</fix>
</trkpt>
<trkpt lat="33.8106975" lon="-118.3938652">
  <ele>-25.002</ele>
  <time>2026-09-02T22:08:58Z</time>
  <course>54.45</course>
  <speed>0.9822932352408826</speed>
  <fix>3d</fix>
</trkpt>
<trkpt lat="33.8106964" lon="-118.3938672">
  <ele>-24.4</ele>
  <time>2026-09-02T22:08:58Z</time>
  <course>53.45</course>
  <speed>1.0</speed>
  <fix>3d</fix>
</trkpt>
<trkpt lat="33.810698" lon="-118.3938643">
  <ele>-24.999</ele>
  <time>2026-09-02T22:08:58Z</time>
  <course>54.45</course>
  <speed>0.9822932352408826</speed>
  <fix>3d</fix>
</trkpt>
<trkpt lat="33.8106975" lon="-118.3938654">
  <ele>-24.39</ele>
  <time>2026-09-02T22:08:58Z</time>
  <course>53.43</course>
  <speed>1.0</speed>
  <fix>3d</fix>
</trkpt>
<trkpt lat="33.8106985" lon="-118.3938634">
  <ele>-24.997</ele>
  <time>2026-09-02T22:08:58Z</time>
  <course>54.46</course>
  <speed>0.9822932352408826</speed>
  <fix>3d</fix>
</trkpt>
<trkpt lat="33.8106975" lon="-118.3938654">
  <ele>-24.39</ele>
  <time>2026-09-02T22:08:58Z</time>
  <course>53.43</course>
  <speed>1.0</speed>
  <fix>3d</fix>
</trkpt>
<trkpt lat="33.8106991" lon="-118.3938626">
  <ele>-24.995</ele>
  <time>2026-09-02T22:08:58Z</time>
  <course>54.47</course>
  <speed>0.9822932352408826</speed>
  <fix>3d</fix>
</trkpt>
<trkpt lat="33.8106986" lon="-118.3938636">
  <ele>-24.39</ele>
  <time>2026-09-02T22:08:58Z</time>
  <course>53.44</course>
  <speed>1.0</speed>
  <fix>3d</fix>
</trkpt>
<trkpt lat="33.8106996" lon="-118.3938617">
  <ele>-24.995</ele>
  <time>2026-09-02T22:08:58Z</time>
  <course>54.48</course>
  <speed>0.9822932352408826</speed>
  <fix>3d</fix>
</trkpt>
<trkpt lat="33.8106986" lon="-118.3938636">
  <ele>-24.39</ele>
  <time>2026-09-02T22:08:58Z</time>
  <course>53.44</course>
  <speed>1.0</speed>
  <fix>3d</fix>
</trkpt>
<trkpt lat="33.8107001" lon="-118.3938608">
  <ele>-24.995</ele>
  <time>2026-09-02T22:08:58Z</time>
  <course>54.49</course>
  <speed>0.9822932352408826</speed>
  <fix>3d</fix>
</trkpt>
<trkpt lat="33.8106997" lon="-118.3938619">
  <ele>-24.39</ele>
  <time>2026-09-02T22:08:58Z</time>
  <course>53.45</course>
  <speed>1.0</speed>
  <fix>3d</fix>
</trkpt>
<trkpt lat="33.8107007" lon="-118.3938599">
  <ele>-24.996</ele>
  <time>2026-09-02T22:08:58Z</time>
  <course>54.5</course>
  <speed>0.9822932352408826</speed>
  <fix>3d</fix>
</trkpt>
<trkpt lat="33.8106997" lon="-118.3938619">
  <ele>-24.39</ele>
  <time>2026-09-02T22:08:58Z</time>
  <course>53.45</course>
  <speed>1.0</speed>
  <fix>3d</fix>
</trkpt>
<trkpt lat="33.8107012" lon="-118.3938591">
  <ele>-24.997</ele>
  <time>2026-09-02T22:08:58Z</time>
  <course>54.53</course>
  <speed>0.9822932352408826</speed>
  <fix>3d</fix>
</trkpt>
<trkpt lat="33.8107007" lon="-118.3938601">
  <ele>-24.39</ele>
  <time>2026-09-02T22:08:58Z</time>
  <course>53.47</course>
  <speed>1.0</speed>
  <fix>3d</fix>
</trkpt>
<trkpt lat="33.8107018" lon="-118.3938582">
  <ele>-24.999</ele>
  <time>2026-09-02T22:08:58Z</time>
  <course>54.55</course>
  <speed>0.9822932352408826</speed>
  <fix>3d</fix>
</trkpt>
<trkpt lat="33.8107007" lon="-118.3938601">
  <ele>-24.39</ele>
  <time>2026-09-02T22:08:58Z</time>
  <course>53.47</course>
  <speed>1.0</speed>
  <fix>3d</fix>
</trkpt>
<trkpt lat="33.8107023" lon="-118.3938573">
  <ele>-25.0</ele>
  <time>2026-09-02T22:08:58Z</time>
  <course>54.56</course>
  <speed>0.9741663102366043</speed>
  <fix>3d</fix>
</trkpt>
<trkpt lat="33.8107018" lon="-118.3938584">
  <ele>-24.39</ele>
  <time>2026-09-02T22:08:58Z</time>
  <course>53.48</course>
  <speed>1.0</speed>
  <fix>3d</fix>
</trkpt>
<trkpt lat="33.8107028" lon="-118.3938565">
  <ele>-25.001</ele>
  <time>2026-09-02T22:08:58Z</time>
  <course>54.55</course>
  <speed>0.9741663102366043</speed>
  <fix>3d</fix>
</trkpt>
<trkpt lat="33.8107018" lon="-118.3938584">
  <ele>-24.39</ele>
  <time>2026-09-02T22:08:58Z</time>
  <course>53.48</course>
  <speed>1.0</speed>
  <fix>3d</fix>
</trkpt>
<trkpt lat="33.8107034" lon="-118.3938556">
  <ele>-25.003</ele>
  <time>2026-09-02T22:08:58Z</time>
  <course>54.54</course>
  <speed>0.9741663102366043</speed>
  <fix>3d</fix>
</trkpt>
<trkpt lat="33.8107029" lon="-118.3938566">
  <ele>-24.4</ele>
  <time>2026-09-02T22:08:58Z</time>
  <course>53.45</course>
  <speed>1.0</speed>
  <fix>3d</fix>
</trkpt>
<trkpt lat="33.8107039" lon="-118.3938547">
  <ele>-25.005</ele>
  <time>2026-09-02T22:08:58Z</time>
  <course>54.54</course>
  <speed>0.9741663102366043</speed>
  <fix>3d</fix>
</trkpt>
<trkpt lat="33.8107029" lon="-118.3938566">
  <ele>-24.4</ele>
  <time>2026-09-02T22:08:58Z</time>
  <course>53.45</course>
  <speed>1.0</speed>
  <fix>3d</fix>
</trkpt>
<trkpt lat="33.8107044" lon="-118.3938538">
  <ele>-25.006</ele>
  <time>2026-09-02T22:08:58Z</time>
  <course>54.53</course>
  <speed>0.9741663102366043</speed>
  <fix>3d</fix>
</trkpt>
<trkpt lat="33.810704" lon="-118.3938549">
  <ele>-24.4</ele>
  <time>2026-09-02T22:08:58Z</time>
  <course>53.43</course>
  <speed>1.0</speed>
  <fix>3d</fix>
</trkpt>
<trkpt lat="33.810705" lon="-118.393853">
  <ele>-25.006</ele>
  <time>2026-09-02T22:08:58Z</time>
  <course>54.53</course>
  <speed>0.9741663102366043</speed>
  <fix>3d</fix>
</trkpt>
<trkpt lat="33.810704" lon="-118.3938549">
  <ele>-24.4</ele>
  <time>2026-09-02T22:08:58Z</time>
  <course>53.43</course>
  <speed>1.0</speed>
  <fix>3d</fix>
</trkpt>
<trkpt lat="33.8107055" lon="-118.3938521">
  <ele>-25.006</ele>
  <time>2026-09-02T22:08:58Z</time>
  <course>54.55</course>
  <speed>0.9741663102366043</speed>
  <fix>3d</fix>
</trkpt>
<trkpt lat="33.810705" lon="-118.3938532">
  <ele>-24.39</ele>
  <time>2026-09-02T22:08:58Z</time>
  <course>53.44</course>
  <speed>1.0</speed>
  <fix>3d</fix>
</trkpt>
<trkpt lat="33.8107061" lon="-118.3938512">
  <ele>-25.005</ele>
  <time>2026-09-02T22:08:58Z</time>
  <course>54.57</course>
  <speed>0.9741663102366043</speed>
  <fix>3d</fix>
</trkpt>
<trkpt lat="33.810705" lon="-118.3938532">
  <ele>-24.39</ele>
  <time>2026-09-02T22:08:58Z</time>
  <course>53.44</course>
  <speed>1.0</speed>
  <fix>3d</fix>
</trkpt>
<trkpt lat="33.8107066" lon="-118.3938503">
  <ele>-25.004</ele>
  <time>2026-09-02T22:08:58Z</time>
  <course>54.59</course>
  <speed>0.9741663102366043</speed>
  <fix>3d</fix>
</trkpt>
<trkpt lat="33.8107061" lon="-118.3938514">
  <ele>-24.39</ele>
  <time>2026-09-02T22:08:58Z</time>
  <course>53.47</course>
  <speed>1.0</speed>
  <fix>3d</fix>
</trkpt>
<trkpt lat="33.8107071" lon="-118.3938495">
  <ele>-25.003</ele>
  <time>2026-09-02T22:08:58Z</time>
  <course>54.6</course>
  <speed>0.9741663102366043</speed>
  <fix>3d</fix>
</trkpt>
<trkpt lat="33.8107061" lon="-118.3938514">
  <ele>-24.39</ele>
  <time>2026-09-02T22:08:58Z</time>
  <course>53.47</course>
  <speed>1.0</speed>
  <fix>3d</fix>
</trkpt>
<trkpt lat="33.8107077" lon="-118.3938486">
  <ele>-25.0</ele>
  <time>2026-09-02T22:08:58Z</time>
  <course>54.6</course>
  <speed>0.9741663102366043</speed>
  <fix>3d</fix>
</trkpt>
<trkpt lat="33.8107071" lon="-118.3938497">
  <ele>-24.38</ele>
  <time>2026-09-02T22:08:58Z</time>
  <course>53.49</course>
  <speed>1.0</speed>
  <fix>3d</fix>
</trkpt>
<trkpt lat="33.8107082" lon="-118.3938477">
  <ele>-24.998</ele>
  <time>2026-09-02T22:08:58Z</time>
  <course>54.59</course>
  <speed>0.9741663102366043</speed>
  <fix>3d</fix>
</trkpt>
<trkpt lat="33.8107071" lon="-118.3938497">
  <ele>-24.38</ele>
  <time>2026-09-02T22:08:58Z</time>
  <course>53.49</course>
  <speed>1.0</speed>
  <fix>3d</fix>
</trkpt>
<trkpt lat="33.8107087" lon="-118.3938469">
  <ele>-24.997</ele>
  <time>2026-09-02T22:08:58Z</time>
  <course>54.58</course>
  <speed>0.9741663102366043</speed>
  <fix>3d</fix>
</trkpt>
<trkpt lat="33.8107082" lon="-118.393848">
  <ele>-24.38</ele>
  <time>2026-09-02T22:08:58Z</time>
  <course>53.46</course>
  <speed>1.0</speed>
  <fix>3d</fix>
</trkpt>
<trkpt lat="33.8107093" lon="-118.393846">
  <ele>-24.995</ele>
  <time>2026-09-02T22:08:58Z</time>
  <course>54.56</course>
  <speed>0.9741663102366043</speed>
  <fix>3d</fix>
</trkpt>
<trkpt lat="33.8107082" lon="-118.393848">
  <ele>-24.38</ele>
  <time>2026-09-02T22:08:58Z</time>
  <course>53.46</course>
  <speed>1.0</speed>
  <fix>3d</fix>
</trkpt>
<trkpt lat="33.8107098" lon="-118.3938451">
  <ele>-24.993</ele>
  <time>2026-09-02T22:08:58Z</time>
  <course>54.55</course>
  <speed>0.9741663102366043</speed>
  <fix>3d</fix>
</trkpt>
<trkpt lat="33.8107093" lon="-118.3938462">
  <ele>-24.38</ele>
  <time>2026-09-02T22:08:58Z</time>
  <course>53.42</course>
  <speed>1.0</speed>
  <fix>3d</fix>
</trkpt>
<trkpt lat="33.8107103" lon="-118.3938443">
  <ele>-24.992</ele>
  <time>2026-09-02T22:08:58Z</time>
  <course>54.54</course>
  <speed>0.9741663102366043</speed>
  <fix>3d</fix>
</trkpt>
<trkpt lat="33.8107093" lon="-118.3938462">
  <ele>-24.38</ele>
  <time>2026-09-02T22:08:58Z</time>
  <course>53.42</course>
  <speed>1.0</speed>
  <fix>3d</fix>
</trkpt>
<trkpt lat="33.8107109" lon="-118.3938434">
  <ele>-24.992</ele>
  <time>2026-09-02T22:08:58Z</time>
  <course>54.54</course>
  <speed>0.9741663102366043</speed>
  <fix>3d</fix>
</trkpt>
<trkpt lat="33.8107104" lon="-118.3938445">
  <ele>-24.38</ele>
  <time>2026-09-02T22:08:58Z</time>
  <course>53.42</course>
  <speed>1.0</speed>
  <fix>3d</fix>
</trkpt>
<trkpt lat="33.8107114" lon="-118.3938425">
  <ele>-24.993</ele>
  <time>2026-09-02T22:08:58Z</time>
  <course>54.54</course>
  <speed>0.9741663102366043</speed>
  <fix>3d</fix>
</trkpt>
<trkpt lat="33.8107104" lon="-118.3938445">
  <ele>-24.38</ele>
  <time>2026-09-02T22:08:58Z</time>
  <course>53.42</course>
  <speed>1.0</speed>
  <fix>3d</fix>
</trkpt>
<trkpt lat="33.8107119" lon="-118.3938416">
  <ele>-24.994</ele>
  <time>2026-09-02T22:08:58Z</time>
  <course>54.56</course>
  <speed>0.9741663102366043</speed>
  <fix>3d</fix>
</trkpt>
<trkpt lat="33.8107114" lon="-118.3938427">
  <ele>-24.38</ele>
  <time>2026-09-02T22:08:58Z</time>
  <course>53.44</course>
  <speed>1.0</speed>
  <fix>3d</fix>
</trkpt>
<trkpt lat="33.8107125" lon="-118.3938408">
  <ele>-24.994</ele>
  <time>2026-09-02T22:08:58Z</time>
  <course>54.57</course>
  <speed>0.9741663102366043</speed>
  <fix>3d</fix>
</trkpt>
<trkpt lat="33.8107114" lon="-118.3938427">
  <ele>-24.38</ele>
  <time>2026-09-02T22:08:58Z</time>
  <course>53.44</course>
  <speed>1.0</speed>
  <fix>3d</fix>
</trkpt>
<trkpt lat="33.810713" lon="-118.3938399">
  <ele>-24.995</ele>
  <time>2026-09-02T22:08:58Z</time>
  <course>54.57</course>
  <speed>0.9741663102366043</speed>
  <fix>3d</fix>
</trkpt>
<trkpt lat="33.8107125" lon="-118.393841">
  <ele>-24.38</ele>
  <time>2026-09-02T22:08:58Z</time>
  <course>53.44</course>
  <speed>1.0</speed>
  <fix>3d</fix>
</trkpt>
<trkpt lat="33.8107135" lon="-118.393839">
  <ele>-24.998</ele>
  <time>2026-09-02T22:08:58Z</time>
  <course>54.56</course>
  <speed>0.9741663102366043</speed>
  <fix>3d</fix>
</trkpt>
<trkpt lat="33.8107125" lon="-118.393841">
  <ele>-24.38</ele>
  <time>2026-09-02T22:08:58Z</time>
  <course>53.44</course>
  <speed>1.0</speed>
  <fix>3d</fix>
</trkpt>
<trkpt lat="33.8107141" lon="-118.3938382">
  <ele>-24.999</ele>
  <time>2026-09-02T22:08:58Z</time>
  <course>54.56</course>
  <speed>0.9741663102366043</speed>
  <fix>3d</fix>
</trkpt>
<trkpt lat="33.8107136" lon="-118.3938393">
  <ele>-24.39</ele>
  <time>2026-09-02T22:08:58Z</time>
  <course>53.41</course>
  <speed>1.0</speed>
  <fix>3d</fix>
</trkpt>
<trkpt lat="33.8107146" lon="-118.3938373">
  <ele>-25.0</ele>
  <time>2026-09-02T22:08:58Z</time>
  <course>54.56</course>
  <speed>0.9741663102366043</speed>
  <fix>3d</fix>
</trkpt>
<trkpt lat="33.8107136" lon="-118.3938393">
  <ele>-24.39</ele>
  <time>2026-09-02T22:08:58Z</time>
  <course>53.41</course>
  <speed>1.0</speed>
  <fix>3d</fix>
</trkpt>
<trkpt lat="33.8107151" lon="-118.3938364">
  <ele>-24.999</ele>
  <time>2026-09-02T22:08:58Z</time>
  <course>54.58</course>
  <speed>0.9741663102366043</speed>
  <fix>3d</fix>
</trkpt>
<trkpt lat="33.8107147" lon="-118.3938375">
  <ele>-24.39</ele>
  <time>2026-09-02T22:08:58Z</time>
  <course>53.42</course>
  <speed>1.0</speed>
  <fix>3d</fix>
</trkpt>
<trkpt lat="33.8107157" lon="-118.3938356">
  <ele>-24.998</ele>
  <time>2026-09-02T22:08:58Z</time>
  <course>54.59</course>
  <speed>0.9822932352408826</speed>
  <fix>3d</fix>
</trkpt>
<trkpt lat="33.8107147" lon="-118.3938375">
  <ele>-24.39</ele>
  <time>2026-09-02T22:08:58Z</time>
  <course>53.42</course>
  <speed>1.0</speed>
  <fix>3d</fix>
</trkpt>
<trkpt lat="33.8107162" lon="-118.3938347">
  <ele>-24.997</ele>
  <time>2026-09-02T22:08:58Z</time>
  <course>54.62</course>
  <speed>0.9822932352408826</speed>
  <fix>3d</fix>
</trkpt>
<trkpt lat="33.8107157" lon="-118.3938358">
  <ele>-24.39</ele>
  <time>2026-09-02T22:08:58Z</time>
  <course>53.47</course>
  <speed>1.0</speed>
  <fix>3d</fix>
</trkpt>
<trkpt lat="33.8107167" lon="-118.3938338">
  <ele>-24.997</ele>
  <time>2026-09-02T22:08:58Z</time>
  <course>54.63</course>
  <speed>0.9822932352408826</speed>
  <fix>3d</fix>
</trkpt>
<trkpt lat="33.8107157" lon="-118.3938358">
  <ele>-24.39</ele>
  <time>2026-09-02T22:08:58Z</time>
  <course>53.47</course>
  <speed>1.0</speed>
  <fix>3d</fix>
</trkpt>
<trkpt lat="33.8107173" lon="-118.3938329">
  <ele>-24.998</ele>
  <time>2026-09-02T22:08:58Z</time>
  <course>54.65</course>
  <speed>0.9822932352408826</speed>
  <fix>3d</fix>
</trkpt>
<trkpt lat="33.8107168" lon="-118.393834">
  <ele>-24.39</ele>
  <time>2026-09-02T22:08:58Z</time>
  <course>53.49</course>
  <speed>1.0</speed>
  <fix>3d</fix>
</trkpt>
<trkpt lat="33.8107178" lon="-118.3938321">
  <ele>-24.998</ele>
  <time>2026-09-02T22:08:58Z</time>
  <course>54.65</course>
  <speed>0.9741663102366043</speed>
  <fix>3d</fix>
</trkpt>
<trkpt lat="33.8107168" lon="-118.393834">
  <ele>-24.39</ele>
  <time>2026-09-02T22:08:58Z</time>
  <course>53.49</course>
  <speed>1.0</speed>
  <fix>3d</fix>
</trkpt>
<trkpt lat="33.8107184" lon="-118.3938312">
  <ele>-24.998</ele>
  <time>2026-09-02T22:08:58Z</time>
  <course>54.65</course>
  <speed>0.9741663102366043</speed>
  <fix>3d</fix>
</trkpt>
<trkpt lat="33.8107179" lon="-118.3938323">
  <ele>-24.39</ele>
  <time>2026-09-02T22:08:58Z</time>
  <course>53.49</course>
  <speed>1.0</speed>
  <fix>3d</fix>
</trkpt>
<trkpt lat="33.8107189" lon="-118.3938303">
  <ele>-24.997</ele>
  <time>2026-09-02T22:08:58Z</time>
  <course>54.64</course>
  <speed>0.9741663102366043</speed>
  <fix>3d</fix>
</trkpt>
<trkpt lat="33.8107179" lon="-118.3938323">
  <ele>-24.39</ele>
  <time>2026-09-02T22:08:58Z</time>
  <course>53.49</course>
  <speed>1.0</speed>
  <fix>3d</fix>
</trkpt>
<trkpt lat="33.8107194" lon="-118.3938295">
  <ele>-24.995</ele>
  <time>2026-09-02T22:08:58Z</time>
  <course>54.65</course>
  <speed>0.9741663102366043</speed>
  <fix>3d</fix>
</trkpt>
<trkpt lat="33.810719" lon="-118.3938306">
  <ele>-24.39</ele>
  <time>2026-09-02T22:08:58Z</time>
  <course>53.49</course>
  <speed>1.0</speed>
  <fix>3d</fix>
</trkpt>
<trkpt lat="33.81072" lon="-118.3938286">
  <ele>-24.996</ele>
  <time>2026-09-02T22:08:58Z</time>
  <course>54.67</course>
  <speed>0.9741663102366043</speed>
  <fix>3d</fix>
</trkpt>
<trkpt lat="33.810719" lon="-118.3938306">
  <ele>-24.39</ele>
  <time>2026-09-02T22:08:58Z</time>
  <course>53.49</course>
  <speed>1.0</speed>
  <fix>3d</fix>
</trkpt>
<trkpt lat="33.8107205" lon="-118.3938277">
  <ele>-24.997</ele>
  <time>2026-09-02T22:08:58Z</time>
  <course>54.69</course>
  <speed>0.9741663102366043</speed>
  <fix>3d</fix>
</trkpt>
<trkpt lat="33.81072" lon="-118.3938288">
  <ele>-24.4</ele>
  <time>2026-09-02T22:08:58Z</time>
  <course>53.53</course>
  <speed>1.0</speed>
  <fix>3d</fix>
</trkpt>
<trkpt lat="33.810721" lon="-118.3938269">
  <ele>-24.999</ele>
  <time>2026-09-02T22:08:58Z</time>
  <course>54.72</course>
  <speed>0.9741663102366043</speed>
  <fix>3d</fix>
</trkpt>
<trkpt lat="33.81072" lon="-118.3938288">
  <ele>-24.4</ele>
  <time>2026-09-02T22:08:58Z</time>
  <course>53.53</course>
  <speed>1.0</speed>
  <fix>3d</fix>
</trkpt>
<trkpt lat="33.8107216" lon="-118.393826">
  <ele>-25.001</ele>
  <time>2026-09-02T22:08:58Z</time>
  <course>54.73</course>
  <speed>0.9741663102366043</speed>
  <fix>3d</fix>
</trkpt>
<trkpt lat="33.8107211" lon="-118.3938271">
  <ele>-24.4</ele>
  <time>2026-09-02T22:08:58Z</time>
  <course>53.55</course>
  <speed>1.0</speed>
  <fix>3d</fix>
</trkpt>
<trkpt lat="33.8107221" lon="-118.3938251">
  <ele>-25.002</ele>
  <time>2026-09-02T22:08:58Z</time>
  <course>54.74</course>
  <speed>0.9822932352408826</speed>
  <fix>3d</fix>
</trkpt>
<trkpt lat="33.8107211" lon="-118.3938271">
  <ele>-24.4</ele>
  <time>2026-09-02T22:08:58Z</time>
  <course>53.55</course>
  <speed>1.0</speed>
  <fix>3d</fix>
</trkpt>
<trkpt lat="33.8107226" lon="-118.3938242">
  <ele>-25.004</ele>
  <time>2026-09-02T22:08:58Z</time>
  <course>54.74</course>
  <speed>0.9822932352408826</speed>
  <fix>3d</fix>
</trkpt>
<trkpt lat="33.8107222" lon="-118.3938253">
  <ele>-24.4</ele>
  <time>2026-09-02T22:08:58Z</time>
  <course>53.54</course>
  <speed>1.0</speed>
  <fix>3d</fix>
</trkpt>
<trkpt lat="33.8107232" lon="-118.3938234">
  <ele>-25.005</ele>
  <time>2026-09-02T22:08:58Z</time>
  <course>54.74</course>
  <speed>0.9741663102366043</speed>
  <fix>3d</fix>
</trkpt>
<trkpt lat="33.8107222" lon="-118.3938253">
  <ele>-24.4</ele>
  <time>2026-09-02T22:08:58Z</time>
  <course>53.54</course>
  <speed>1.0</speed>
  <fix>3d</fix>
</trkpt>
<trkpt lat="33.8107237" lon="-118.3938225">
  <ele>-25.006</ele>
  <time>2026-09-02T22:08:58Z</time>
  <course>54.75</course>
  <speed>0.9741663102366043</speed>
  <fix>3d</fix>
</trkpt>
<trkpt lat="33.8107232" lon="-118.3938236">
  <ele>-24.4</ele>
  <time>2026-09-02T22:08:58Z</time>
  <course>53.55</course>
  <speed>1.0</speed>
  <fix>3d</fix>
</trkpt>
<trkpt lat="33.8107242" lon="-118.3938216">
  <ele>-25.006</ele>
  <time>2026-09-02T22:08:58Z</time>
  <course>54.75</course>
  <speed>0.9741663102366043</speed>
  <fix>3d</fix>
</trkpt>
<trkpt lat="33.8107232" lon="-118.3938236">
  <ele>-24.4</ele>
  <time>2026-09-02T22:08:58Z</time>
  <course>53.55</course>
  <speed>1.0</speed>
  <fix>3d</fix>
</trkpt>
<trkpt lat="33.8107248" lon="-118.3938208">
  <ele>-25.005</ele>
  <time>2026-09-02T22:08:58Z</time>
  <course>54.74</course>
  <speed>0.9741663102366043</speed>
  <fix>3d</fix>
</trkpt>
<trkpt lat="33.8107243" lon="-118.3938219">
  <ele>-24.4</ele>
  <time>2026-09-02T22:08:58Z</time>
  <course>53.55</course>
  <speed>0.99</speed>
  <fix>3d</fix>
</trkpt>
<trkpt lat="33.8107253" lon="-118.3938199">
  <ele>-25.003</ele>
  <time>2026-09-02T22:08:58Z</time>
  <course>54.72</course>
  <speed>0.9741663102366043</speed>
  <fix>3d</fix>
</trkpt>
<trkpt lat="33.8107243" lon="-118.3938219">
  <ele>-24.4</ele>
  <time>2026-09-02T22:08:58Z</time>
  <course>53.55</course>
  <speed>0.99</speed>
  <fix>3d</fix>
</trkpt>
<trkpt lat="33.8107258" lon="-118.393819">
  <ele>-25.001</ele>
  <time>2026-09-02T22:08:58Z</time>
  <course>54.72</course>
  <speed>0.9741663102366043</speed>
  <fix>3d</fix>
</trkpt>
<trkpt lat="33.8107253" lon="-118.3938201">
  <ele>-24.39</ele>
  <time>2026-09-02T22:08:58Z</time>
  <course>53.55</course>
  <speed>0.99</speed>
  <fix>3d</fix>
</trkpt>
<trkpt lat="33.8107264" lon="-118.3938181">
  <ele>-24.999</ele>
  <time>2026-09-02T22:08:58Z</time>
  <course>54.71</course>
  <speed>0.9741663102366043</speed>
  <fix>3d</fix>
</trkpt>
<trkpt lat="33.8107253" lon="-118.3938201">
  <ele>-24.39</ele>
  <time>2026-09-02T22:08:58Z</time>
  <course>53.55</course>
  <speed>0.99</speed>
  <fix>3d</fix>
</trkpt>
<trkpt lat="33.8107269" lon="-118.3938173">
  <ele>-24.998</ele>
  <time>2026-09-02T22:08:58Z</time>
  <course>54.69</course>
  <speed>0.9741663102366043</speed>
  <fix>3d</fix>
</trkpt>
<trkpt lat="33.8107264" lon="-118.3938183">
  <ele>-24.39</ele>
  <time>2026-09-02T22:08:58Z</time>
  <course>53.51</course>
  <speed>0.99</speed>
  <fix>3d</fix>
</trkpt>
<trkpt lat="33.8107274" lon="-118.3938164">
  <ele>-24.996</ele>
  <time>2026-09-02T22:08:58Z</time>
  <course>54.65</course>
  <speed>0.9741663102366043</speed>
  <fix>3d</fix>
</trkpt>
<trkpt lat="33.8107264" lon="-118.3938183">
  <ele>-24.39</ele>
  <time>2026-09-02T22:08:58Z</time>
  <course>53.51</course>
  <speed>0.99</speed>
  <fix>3d</fix>
</trkpt>
<trkpt lat="33.810728" lon="-118.3938155">
  <ele>-24.995</ele>
  <time>2026-09-02T22:08:58Z</time>
  <course>54.61</course>
  <speed>0.9741663102366043</speed>
  <fix>3d</fix>
</trkpt>
<trkpt lat="33.8107275" lon="-118.3938166">
  <ele>-24.38</ele>
  <time>2026-09-02T22:08:58Z</time>
  <course>53.44</course>
  <speed>1.0</speed>
  <fix>3d</fix>
</trkpt>
<trkpt lat="33.8107285" lon="-118.3938147">
  <ele>-24.993</ele>
  <time>2026-09-02T22:08:58Z</time>
  <course>54.57</course>
  <speed>0.9741663102366043</speed>
  <fix>3d</fix>
</trkpt>
<trkpt lat="33.8107275" lon="-118.3938166">
  <ele>-24.38</ele>
  <time>2026-09-02T22:08:58Z</time>
  <course>53.44</course>
  <speed>1.0</speed>
  <fix>3d</fix>
</trkpt>
<trkpt lat="33.8107291" lon="-118.3938138">
  <ele>-24.992</ele>
  <time>2026-09-02T22:08:58Z</time>
  <course>54.54</course>
  <speed>0.9741663102366043</speed>
  <fix>3d</fix>
</trkpt>
<trkpt lat="33.8107286" lon="-118.3938149">
  <ele>-24.38</ele>
  <time>2026-09-02T22:08:58Z</time>
  <course>53.39</course>
  <speed>1.0</speed>
  <fix>3d</fix>
</trkpt>
<trkpt lat="33.8107296" lon="-118.3938129">
  <ele>-24.991</ele>
  <time>2026-09-02T22:08:58Z</time>
  <course>54.53</course>
  <speed>0.9741663102366043</speed>
  <fix>3d</fix>
</trkpt>
<trkpt lat="33.8107286" lon="-118.3938149">
  <ele>-24.38</ele>
  <time>2026-09-02T22:08:58Z</time>
  <course>53.39</course>
  <speed>1.0</speed>
  <fix>3d</fix>
</trkpt>
<trkpt lat="33.8107301" lon="-118.393812">
  <ele>-24.993</ele>
  <time>2026-09-02T22:08:58Z</time>
  <course>54.53</course>
  <speed>0.9741663102366043</speed>
  <fix>3d</fix>
</trkpt>
<trkpt lat="33.8107296" lon="-118.3938132">
  <ele>-24.38</ele>
  <time>2026-09-02T22:08:58Z</time>
  <course>53.39</course>
  <speed>0.99</speed>
  <fix>3d</fix>
</trkpt>
<trkpt lat="33.8107307" lon="-118.3938112">
  <ele>-24.996</ele>
  <time>2026-09-02T22:08:58Z</time>
  <course>54.54</course>
  <speed>0.9741663102366043</speed>
  <fix>3d</fix>
</trkpt>
<trkpt lat="33.8107296" lon="-118.3938132">
  <ele>-24.38</ele>
  <time>2026-09-02T22:08:58Z</time>
  <course>53.39</course>
  <speed>0.99</speed>
  <fix>3d</fix>
</trkpt>
<trkpt lat="33.8107312" lon="-118.3938103">
  <ele>-25.0</ele>
  <time>2026-09-02T22:08:58Z</time>
  <course>54.55</course>
  <speed>0.9741663102366043</speed>
  <fix>3d</fix>
</trkpt>
<trkpt lat="33.8107307" lon="-118.3938114">
  <ele>-24.39</ele>
  <time>2026-09-02T22:08:58Z</time>
  <course>53.42</course>
  <speed>0.99</speed>
  <fix>3d</fix>
</trkpt>
<trkpt lat="33.8107317" lon="-118.3938094">
  <ele>-25.002</ele>
  <time>2026-09-02T22:08:58Z</time>
  <course>54.56</course>
  <speed>0.9741663102366043</speed>
  <fix>3d</fix>
</trkpt>
<trkpt lat="33.8107307" lon="-118.3938114">
  <ele>-24.39</ele>
  <time>2026-09-02T22:08:58Z</time>
  <course>53.42</course>
  <speed>0.99</speed>
  <fix>3d</fix>
</trkpt>
<trkpt lat="33.8107323" lon="-118.3938086">
  <ele>-25.003</ele>
  <time>2026-09-02T22:08:58Z</time>
  <course>54.57</course>
  <speed>0.9741663102366043</speed>
  <fix>3d</fix>
</trkpt>
<trkpt lat="33.8107318" lon="-118.3938097">
  <ele>-24.39</ele>
  <time>2026-09-02T22:08:58Z</time>
  <course>53.43</course>
  <speed>0.99</speed>
  <fix>3d</fix>
</trkpt>
<trkpt lat="33.8107328" lon="-118.3938077">
  <ele>-25.003</ele>
  <time>2026-09-02T22:08:58Z</time>
  <course>54.57</course>
  <speed>0.9822932352408826</speed>
  <fix>3d</fix>
</trkpt>
<trkpt lat="33.8107318" lon="-118.3938097">
  <ele>-24.39</ele>
  <time>2026-09-02T22:08:58Z</time>
  <course>53.43</course>
  <speed>0.99</speed>
  <fix>3d</fix>
</trkpt>
<trkpt lat="33.8107333" lon="-118.3938068">
  <ele>-25.0</ele>
  <time>2026-09-02T22:08:58Z</time>
  <course>54.58</course>
  <speed>0.9822932352408826</speed>
  <fix>3d</fix>
</trkpt>
<trkpt lat="33.8107329" lon="-118.393808">
  <ele>-24.39</ele>
  <time>2026-09-02T22:08:58Z</time>
  <course>53.44</course>
  <speed>0.99</speed>
  <fix>3d</fix>
</trkpt>
<trkpt lat="33.8107339" lon="-118.393806">
  <ele>-24.997</ele>
  <time>2026-09-02T22:08:58Z</time>
  <course>54.6</course>
  <speed>0.9822932352408826</speed>
  <fix>3d</fix>
</trkpt>
<trkpt lat="33.8107329" lon="-118.393808">
  <ele>-24.39</ele>
  <time>2026-09-02T22:08:58Z</time>
  <course>53.44</course>
  <speed>0.99</speed>
  <fix>3d</fix>
</trkpt>
<trkpt lat="33.8107344" lon="-118.3938051">
  <ele>-24.994</ele>
  <time>2026-09-02T22:08:58Z</time>
  <course>54.64</course>
  <speed>0.9822932352408826</speed>
  <fix>3d</fix>
</trkpt>
<trkpt lat="33.8107339" lon="-118.3938062">
  <ele>-24.39</ele>
  <time>2026-09-02T22:08:58Z</time>
  <course>53.49</course>
  <speed>0.99</speed>
  <fix>3d</fix>
</trkpt>
<trkpt lat="33.8107349" lon="-118.3938042">
  <ele>-24.993</ele>
  <time>2026-09-02T22:08:58Z</time>
  <course>54.68</course>
  <speed>0.9765244492586962</speed>
  <fix>3d</fix>
</trkpt>
<trkpt lat="33.8107339" lon="-118.3938062">
  <ele>-24.39</ele>
  <time>2026-09-02T22:08:58Z</time>
  <course>53.49</course>
  <speed>0.99</speed>
  <fix>3d</fix>
</trkpt>
<trkpt lat="33.8107355" lon="-118.3938034">
  <ele>-24.994</ele>
  <time>2026-09-02T22:08:58Z</time>
  <course>54.7</course>
  <speed>0.9822932352408826</speed>
  <fix>3d</fix>
</trkpt>
<trkpt lat="33.810735" lon="-118.3938045">
  <ele>-24.39</ele>
  <time>2026-09-02T22:08:58Z</time>
  <course>53.52</course>
  <speed>0.99</speed>
  <fix>3d</fix>
</trkpt>
<trkpt lat="33.810736" lon="-118.3938025">
  <ele>-24.996</ele>
  <time>2026-09-02T22:08:58Z</time>
  <course>54.71</course>
  <speed>0.9765244492586962</speed>
  <fix>3d</fix>
</trkpt>
<trkpt lat="33.810735" lon="-118.3938045">
  <ele>-24.39</ele>
  <time>2026-09-02T22:08:58Z</time>
  <course>53.52</course>
  <speed>0.99</speed>
  <fix>3d</fix>
</trkpt>
<trkpt lat="33.8107366" lon="-118.3938016">
  <ele>-24.998</ele>
  <time>2026-09-02T22:08:58Z</time>
  <course>54.72</course>
  <speed>0.9822932352408826</speed>
  <fix>3d</fix>
</trkpt>
<trkpt lat="33.8107361" lon="-118.3938028">
  <ele>-24.39</ele>
  <time>2026-09-02T22:08:58Z</time>
  <course>53.53</course>
  <speed>0.99</speed>
  <fix>3d</fix>
</trkpt>
<trkpt lat="33.8107371" lon="-118.3938007">
  <ele>-24.999</ele>
  <time>2026-09-02T22:08:58Z</time>
  <course>54.72</course>
  <speed>0.9765244492586962</speed>
  <fix>3d</fix>
</trkpt>
<trkpt lat="33.8107361" lon="-118.3938028">
  <ele>-24.39</ele>
  <time>2026-09-02T22:08:58Z</time>
  <course>53.53</course>
  <speed>0.99</speed>
  <fix>3d</fix>
</trkpt>
<trkpt lat="33.8107376" lon="-118.3937999">
  <ele>-25.0</ele>
  <time>2026-09-02T22:08:58Z</time>
  <course>54.74</course>
  <speed>0.9822932352408826</speed>
  <fix>3d</fix>
</trkpt>
<trkpt lat="33.8107371" lon="-118.393801">
  <ele>-24.39</ele>
  <time>2026-09-02T22:08:58Z</time>
  <course>53.56</course>
  <speed>0.99</speed>
  <fix>3d</fix>
</trkpt>
<trkpt lat="33.8107382" lon="-118.393799">
  <ele>-25.0</ele>
  <time>2026-09-02T22:08:58Z</time>
  <course>54.77</course>
  <speed>0.9765244492586962</speed>
  <fix>3d</fix>
</trkpt>
<trkpt lat="33.8107371" lon="-118.393801">
  <ele>-24.39</ele>
  <time>2026-09-02T22:08:58Z</time>
  <course>53.56</course>
  <speed>0.99</speed>
  <fix>3d</fix>
</trkpt>
<trkpt lat="33.8107387" lon="-118.3937981">
  <ele>-25.001</ele>
  <time>2026-09-02T22:08:58Z</time>
  <course>54.78</course>
  <speed>0.9822932352408826</speed>
  <fix>3d</fix>
</trkpt>
<trkpt lat="33.8107382" lon="-118.3937993">
  <ele>-24.4</ele>
  <time>2026-09-02T22:08:58Z</time>
  <course>53.57</course>
  <speed>0.99</speed>
  <fix>3d</fix>
</trkpt>
<trkpt lat="33.8107392" lon="-118.3937973">
  <ele>-25.002</ele>
  <time>2026-09-02T22:08:58Z</time>
  <course>54.77</course>
  <speed>0.9822932352408826</speed>
  <fix>3d</fix>
</trkpt>
<trkpt lat="33.8107382" lon="-118.3937993">
  <ele>-24.4</ele>
  <time>2026-09-02T22:08:58Z</time>
  <course>53.57</course>
  <speed>0.99</speed>
  <fix>3d</fix>
</trkpt>
<trkpt lat="33.8107398" lon="-118.3937964">
  <ele>-25.003</ele>
  <time>2026-09-02T22:08:58Z</time>
  <course>54.77</course>
  <speed>0.9822932352408826</speed>
  <fix>3d</fix>
</trkpt>
<trkpt lat="33.8107392" lon="-118.3937975">
  <ele>-24.39</ele>
  <time>2026-09-02T22:08:58Z</time>
  <course>53.55</course>
  <speed>1.0</speed>
  <fix>3d</fix>
</trkpt>
<trkpt lat="33.8107403" lon="-118.3937955">
  <ele>-25.003</ele>
  <time>2026-09-02T22:08:58Z</time>
  <course>54.76</course>
  <speed>0.9822932352408826</speed>
  <fix>3d</fix>
</trkpt>
<trkpt lat="33.8107392" lon="-118.3937975">
  <ele>-24.39</ele>
  <time>2026-09-02T22:08:58Z</time>
  <course>53.55</course>
  <speed>1.0</speed>
  <fix>3d</fix>
</trkpt>
<trkpt lat="33.8107408" lon="-118.3937947">
  <ele>-25.001</ele>
  <time>2026-09-02T22:08:58Z</time>
  <course>54.74</course>
  <speed>0.9822932352408826</speed>
  <fix>3d</fix>
</trkpt>
<trkpt lat="33.8107403" lon="-118.3937958">
  <ele>-24.39</ele>
  <time>2026-09-02T22:08:58Z</time>
  <course>53.51</course>
  <speed>0.99</speed>
  <fix>3d</fix>
</trkpt>
<trkpt lat="33.8107414" lon="-118.3937938">
  <ele>-24.999</ele>
  <time>2026-09-02T22:08:58Z</time>
  <course>54.7</course>
  <speed>0.9822932352408826</speed>
  <fix>3d</fix>
</trkpt>
<trkpt lat="33.8107403" lon="-118.3937958">
  <ele>-24.39</ele>
  <time>2026-09-02T22:08:58Z</time>
  <course>53.51</course>
  <speed>0.99</speed>
  <fix>3d</fix>
</trkpt>
<trkpt lat="33.8107419" lon="-118.3937929">
  <ele>-24.997</ele>
  <time>2026-09-02T22:08:58Z</time>
  <course>54.68</course>
  <speed>0.9822932352408826</speed>
  <fix>3d</fix>
</trkpt>
<trkpt lat="33.8107414" lon="-118.3937941">
  <ele>-24.39</ele>
  <time>2026-09-02T22:08:58Z</time>
  <course>53.45</course>
  <speed>0.99</speed>
  <fix>3d</fix>
</trkpt>
<trkpt lat="33.8107424" lon="-118.393792">
  <ele>-24.995</ele>
  <time>2026-09-02T22:08:58Z</time>
  <course>54.66</course>
  <speed>0.9822932352408826</speed>
  <fix>3d</fix>
</trkpt>
<trkpt lat="33.8107414" lon="-118.3937941">
  <ele>-24.39</ele>
  <time>2026-09-02T22:08:58Z</time>
  <course>53.45</course>
  <speed>0.99</speed>
  <fix>3d</fix>
</trkpt>
<trkpt lat="33.810743" lon="-118.3937912">
  <ele>-24.995</ele>
  <time>2026-09-02T22:08:58Z</time>
  <course>54.66</course>
  <speed>0.9822932352408826</speed>
  <fix>3d</fix>
</trkpt>
<trkpt lat="33.8107424" lon="-118.3937923">
  <ele>-24.39</ele>
  <time>2026-09-02T22:08:58Z</time>
  <course>53.44</course>
  <speed>1.0</speed>
  <fix>3d</fix>
</trkpt>
<trkpt lat="33.8107435" lon="-118.3937903">
  <ele>-24.996</ele>
  <time>2026-09-02T22:08:58Z</time>
  <course>54.66</course>
  <speed>0.9822932352408826</speed>
  <fix>3d</fix>
</trkpt>
<trkpt lat="33.8107424" lon="-118.3937923">
  <ele>-24.39</ele>
  <time>2026-09-02T22:08:58Z</time>
  <course>53.44</course>
  <speed>1.0</speed>
  <fix>3d</fix>
</trkpt>
<trkpt lat="33.810744" lon="-118.3937894">
  <ele>-24.997</ele>
  <time>2026-09-02T22:08:58Z</time>
  <course>54.65</course>
  <speed>0.9822932352408826</speed>
  <fix>3d</fix>
</trkpt>
<trkpt lat="33.8107435" lon="-118.3937906">
  <ele>-24.39</ele>
  <time>2026-09-02T22:08:58Z</time>
  <course>53.43</course>
  <speed>1.0</speed>
  <fix>3d</fix>
</trkpt>
<trkpt lat="33.8107446" lon="-118.3937886">
  <ele>-24.998</ele>
  <time>2026-09-02T22:08:58Z</time>
  <course>54.63</course>
  <speed>0.9822932352408826</speed>
  <fix>3d</fix>
</trkpt>
<trkpt lat="33.8107435" lon="-118.3937906">
  <ele>-24.39</ele>
  <time>2026-09-02T22:08:58Z</time>
  <course>53.43</course>
  <speed>1.0</speed>
  <fix>3d</fix>
</trkpt>
<trkpt lat="33.8107451" lon="-118.3937877">
  <ele>-24.999</ele>
  <time>2026-09-02T22:08:58Z</time>
  <course>54.62</course>
  <speed>0.9822932352408826</speed>
  <fix>3d</fix>
</trkpt>
<trkpt lat="33.8107446" lon="-118.3937888">
  <ele>-24.39</ele>
  <time>2026-09-02T22:08:58Z</time>
  <course>53.41</course>
  <speed>1.0</speed>
  <fix>3d</fix>
</trkpt>
<trkpt lat="33.8107456" lon="-118.3937868">
  <ele>-24.999</ele>
  <time>2026-09-02T22:08:58Z</time>
  <course>54.61</course>
  <speed>0.9822932352408826</speed>
  <fix>3d</fix>
</trkpt>
<trkpt lat="33.8107446" lon="-118.3937888">
  <ele>-24.39</ele>
  <time>2026-09-02T22:08:58Z</time>
  <course>53.41</course>
  <speed>1.0</speed>
  <fix>3d</fix>
</trkpt>
<trkpt lat="33.8107462" lon="-118.3937859">
  <ele>-24.999</ele>
  <time>2026-09-02T22:08:58Z</time>
  <course>54.61</course>
  <speed>0.9822932352408826</speed>
  <fix>3d</fix>
</trkpt>
<trkpt lat="33.8107457" lon="-118.3937871">
  <ele>-24.39</ele>
  <time>2026-09-02T22:08:58Z</time>
  <course>53.4</course>
  <speed>1.0</speed>
  <fix>3d</fix>
</trkpt>
<trkpt lat="33.8107467" lon="-118.3937851">
  <ele>-24.999</ele>
  <time>2026-09-02T22:08:58Z</time>
  <course>54.6</course>
  <speed>0.9822932352408826</speed>
  <fix>3d</fix>
</trkpt>
<trkpt lat="33.8107457" lon="-118.3937871">
  <ele>-24.39</ele>
  <time>2026-09-02T22:08:58Z</time>
  <course>53.4</course>
  <speed>1.0</speed>
  <fix>3d</fix>
</trkpt>
<trkpt lat="33.8107472" lon="-118.3937842">
  <ele>-24.998</ele>
  <time>2026-09-02T22:08:58Z</time>
  <course>54.62</course>
  <speed>0.9822932352408826</speed>
  <fix>3d</fix>
</trkpt>
<trkpt lat="33.8107467" lon="-118.3937853">
  <ele>-24.39</ele>
  <time>2026-09-02T22:08:58Z</time>
  <course>53.41</course>
  <speed>1.0</speed>
  <fix>3d</fix>
</trkpt>
<trkpt lat="33.8107478" lon="-118.3937833">
  <ele>-24.998</ele>
  <time>2026-09-02T22:08:58Z</time>
  <course>54.63</course>
  <speed>0.9822932352408826</speed>
  <fix>3d</fix>
</trkpt>
<trkpt lat="33.8107467" lon="-118.3937853">
  <ele>-24.39</ele>
  <time>2026-09-02T22:08:58Z</time>
  <course>53.41</course>
  <speed>1.0</speed>
  <fix>3d</fix>
</trkpt>
<trkpt lat="33.8107483" lon="-118.3937825">
  <ele>-24.999</ele>
  <time>2026-09-02T22:08:58Z</time>
  <course>54.62</course>
  <speed>0.9822932352408826</speed>
  <fix>3d</fix>
</trkpt>
<trkpt lat="33.8107478" lon="-118.3937836">
  <ele>-24.39</ele>
  <time>2026-09-02T22:08:58Z</time>
  <course>53.42</course>
  <speed>1.0</speed>
  <fix>3d</fix>
</trkpt>
<trkpt lat="33.8107488" lon="-118.3937816">
  <ele>-24.998</ele>
  <time>2026-09-02T22:08:58Z</time>
  <course>54.6</course>
  <speed>0.9822932352408826</speed>
  <fix>3d</fix>
</trkpt>
<trkpt lat="33.8107478" lon="-118.3937836">
  <ele>-24.39</ele>
  <time>2026-09-02T22:08:58Z</time>
  <course>53.42</course>
  <speed>1.0</speed>
  <fix>3d</fix>
</trkpt>
<trkpt lat="33.8107494" lon="-118.3937807">
  <ele>-24.997</ele>
  <time>2026-09-02T22:08:58Z</time>
  <course>54.59</course>
  <speed>0.9822932352408826</speed>
  <fix>3d</fix>
</trkpt>
<trkpt lat="33.8107489" lon="-118.3937819">
  <ele>-24.38</ele>
  <time>2026-09-02T22:08:58Z</time>
  <course>53.4</course>
  <speed>0.99</speed>
  <fix>3d</fix>
</trkpt>
<trkpt lat="33.8107499" lon="-118.3937798">
  <ele>-24.995</ele>
  <time>2026-09-02T22:08:58Z</time>
  <course>54.57</course>
  <speed>0.9822932352408826</speed>
  <fix>3d</fix>
</trkpt>
<trkpt lat="33.8107489" lon="-118.3937819">
  <ele>-24.38</ele>
  <time>2026-09-02T22:08:58Z</time>
  <course>53.4</course>
  <speed>0.99</speed>
  <fix>3d</fix>
</trkpt>
<trkpt lat="33.8107505" lon="-118.393779">
  <ele>-24.994</ele>
  <time>2026-09-02T22:08:58Z</time>
  <course>54.58</course>
  <speed>0.9822932352408826</speed>
  <fix>3d</fix>
</trkpt>
<trkpt lat="33.81075" lon="-118.3937802">
  <ele>-24.38</ele>
  <time>2026-09-02T22:08:58Z</time>
  <course>53.4</course>
  <speed>0.99</speed>
  <fix>3d</fix>
</trkpt>
<trkpt lat="33.810751" lon="-118.3937781">
  <ele>-24.994</ele>
  <time>2026-09-02T22:08:58Z</time>
  <course>54.61</course>
  <speed>0.9765244492586962</speed>
  <fix>3d</fix>
</trkpt>
<trkpt lat="33.81075" lon="-118.3937802">
  <ele>-24.38</ele>
  <time>2026-09-02T22:08:58Z</time>
  <course>53.4</course>
  <speed>0.99</speed>
  <fix>3d</fix>
</trkpt>
<trkpt lat="33.8107515" lon="-118.3937772">
  <ele>-24.995</ele>
  <time>2026-09-02T22:08:58Z</time>
  <course>54.65</course>
  <speed>0.9765244492586962</speed>
  <fix>3d</fix>
</trkpt>
<trkpt lat="33.810751" lon="-118.3937784">
  <ele>-24.38</ele>
  <time>2026-09-02T22:08:58Z</time>
  <course>53.46</course>
  <speed>0.99</speed>
  <fix>3d</fix>
</trkpt>
<trkpt lat="33.8107521" lon="-118.3937764">
  <ele>-24.996</ele>
  <time>2026-09-02T22:08:58Z</time>
  <course>54.69</course>
  <speed>0.9765244492586962</speed>
  <fix>3d</fix>
</trkpt>
<trkpt lat="33.810751" lon="-118.3937784">
  <ele>-24.38</ele>
  <time>2026-09-02T22:08:58Z</time>
  <course>53.46</course>
  <speed>0.99</speed>
  <fix>3d</fix>
</trkpt>
<trkpt lat="33.8107526" lon="-118.3937755">
  <ele>-24.996</ele>
  <time>2026-09-02T22:08:58Z</time>
  <course>54.71</course>
  <speed>0.9765244492586962</speed>
  <fix>3d</fix>
</trkpt>
<trkpt lat="33.8107521" lon="-118.3937767">
  <ele>-24.38</ele>
  <time>2026-09-02T22:08:58Z</time>
  <course>53.51</course>
  <speed>0.99</speed>
  <fix>3d</fix>
</trkpt>
<trkpt lat="33.8107531" lon="-118.3937746">
  <ele>-24.996</ele>
  <time>2026-09-02T22:08:58Z</time>
  <course>54.72</course>
  <speed>0.9765244492586962</speed>
  <fix>3d</fix>
</trkpt>
<trkpt lat="33.8107521" lon="-118.3937767">
  <ele>-24.38</ele>
  <time>2026-09-02T22:08:58Z</time>
  <course>53.51</course>
  <speed>0.99</speed>
  <fix>3d</fix>
</trkpt>
<trkpt lat="33.8107537" lon="-118.3937738">
  <ele>-24.996</ele>
  <time>2026-09-02T22:08:58Z</time>
  <course>54.73</course>
  <speed>0.9765244492586962</speed>
  <fix>3d</fix>
</trkpt>
<trkpt lat="33.8107532" lon="-118.393775">
  <ele>-24.39</ele>
  <time>2026-09-02T22:08:58Z</time>
  <course>53.5</course>
  <speed>0.99</speed>
  <fix>3d</fix>
</trkpt>
<trkpt lat="33.8107542" lon="-118.3937729">
  <ele>-24.996</ele>
  <time>2026-09-02T22:08:58Z</time>
  <course>54.75</course>
  <speed>0.9765244492586962</speed>
  <fix>3d</fix>
</trkpt>
<trkpt lat="33.8107532" lon="-118.393775">
  <ele>-24.39</ele>
  <time>2026-09-02T22:08:58Z</time>
  <course>53.5</course>
  <speed>0.99</speed>
  <fix>3d</fix>
</trkpt>
<trkpt lat="33.8107547" lon="-118.393772">
  <ele>-24.995</ele>
  <time>2026-09-02T22:08:58Z</time>
  <course>54.78</course>
  <speed>0.9765244492586962</speed>
  <fix>3d</fix>
</trkpt>
<trkpt lat="33.8107542" lon="-118.3937732">
  <ele>-24.39</ele>
  <time>2026-09-02T22:08:58Z</time>
  <course>53.53</course>
  <speed>1.0</speed>
  <fix>3d</fix>
</trkpt>
<trkpt lat="33.8107553" lon="-118.3937712">
  <ele>-24.994</ele>
  <time>2026-09-02T22:08:58Z</time>
  <course>54.8</course>
  <speed>0.9765244492586962</speed>
  <fix>3d</fix>
</trkpt>
<trkpt lat="33.8107542" lon="-118.3937732">
  <ele>-24.39</ele>
  <time>2026-09-02T22:08:58Z</time>
  <course>53.53</course>
  <speed>1.0</speed>
  <fix>3d</fix>
</trkpt>
<trkpt lat="33.8107558" lon="-118.3937703">
  <ele>-24.993</ele>
  <time>2026-09-02T22:08:58Z</time>
  <course>54.81</course>
  <speed>0.9765244492586962</speed>
  <fix>3d</fix>
</trkpt>
<trkpt lat="33.8107553" lon="-118.3937714">
  <ele>-24.39</ele>
  <time>2026-09-02T22:08:58Z</time>
  <course>53.56</course>
  <speed>1.0</speed>
  <fix>3d</fix>
</trkpt>
<trkpt lat="33.8107563" lon="-118.3937694">
  <ele>-24.993</ele>
  <time>2026-09-02T22:08:58Z</time>
  <course>54.8</course>
  <speed>0.9765244492586962</speed>
  <fix>3d</fix>
</trkpt>
<trkpt lat="33.8107553" lon="-118.3937714">
  <ele>-24.39</ele>
  <time>2026-09-02T22:08:58Z</time>
  <course>53.56</course>
  <speed>1.0</speed>
  <fix>3d</fix>
</trkpt>
<trkpt lat="33.8107569" lon="-118.3937685">
  <ele>-24.995</ele>
  <time>2026-09-02T22:08:58Z</time>
  <course>54.79</course>
  <speed>0.9765244492586962</speed>
  <fix>3d</fix>
</trkpt>
<trkpt lat="33.8107564" lon="-118.3937697">
  <ele>-24.39</ele>
  <time>2026-09-02T22:08:58Z</time>
  <course>53.52</course>
  <speed>1.0</speed>
  <fix>3d</fix>
</trkpt>
<trkpt lat="33.8107574" lon="-118.3937677">
  <ele>-24.997</ele>
  <time>2026-09-02T22:08:58Z</time>
  <course>54.77</course>
  <speed>0.9765244492586962</speed>
  <fix>3d</fix>
</trkpt>
<trkpt lat="33.8107564" lon="-118.3937697">
  <ele>-24.39</ele>
  <time>2026-09-02T22:08:58Z</time>
  <course>53.52</course>
  <speed>1.0</speed>
  <fix>3d</fix>
</trkpt>
<trkpt lat="33.8107579" lon="-118.3937668">
  <ele>-24.998</ele>
  <time>2026-09-02T22:08:58Z</time>
  <course>54.77</course>
  <speed>0.9765244492586962</speed>
  <fix>3d</fix>
</trkpt>
<trkpt lat="33.8107574" lon="-118.393768">
  <ele>-24.39</ele>
  <time>2026-09-02T22:08:58Z</time>
  <course>53.51</course>
  <speed>1.0</speed>
  <fix>3d</fix>
</trkpt>
<trkpt lat="33.8107585" lon="-118.3937659">
  <ele>-25.0</ele>
  <time>2026-09-02T22:08:58Z</time>
  <course>54.76</course>
  <speed>0.9765244492586962</speed>
  <fix>3d</fix>
</trkpt>
<trkpt lat="33.8107574" lon="-118.393768">
  <ele>-24.39</ele>
  <time>2026-09-02T22:08:58Z</time>
  <course>53.51</course>
  <speed>1.0</speed>
  <fix>3d</fix>
</trkpt>
<trkpt lat="33.810759" lon="-118.3937651">
  <ele>-25.0</ele>
  <time>2026-09-02T22:08:58Z</time>
  <course>54.75</course>
  <speed>0.9822932352408826</speed>
  <fix>3d</fix>
</trkpt>
<trkpt lat="33.8107585" lon="-118.3937663">
  <ele>-24.39</ele>
  <time>2026-09-02T22:08:58Z</time>
  <course>53.49</course>
  <speed>1.0</speed>
  <fix>3d</fix>
</trkpt>
<trkpt lat="33.8107595" lon="-118.3937642">
  <ele>-25.001</ele>
  <time>2026-09-02T22:08:58Z</time>
  <course>54.74</course>
  <speed>0.9822932352408826</speed>
  <fix>3d</fix>
</trkpt>
<trkpt lat="33.8107585" lon="-118.3937663">
  <ele>-24.39</ele>
  <time>2026-09-02T22:08:58Z</time>
  <course>53.49</course>
  <speed>1.0</speed>
  <fix>3d</fix>
</trkpt>
<trkpt lat="33.8107601" lon="-118.3937633">
  <ele>-25.001</ele>
  <time>2026-09-02T22:08:58Z</time>
  <course>54.75</course>
  <speed>0.9822932352408826</speed>
  <fix>3d</fix>
</trkpt>
<trkpt lat="33.8107596" lon="-118.3937645">
  <ele>-24.4</ele>
  <time>2026-09-02T22:08:58Z</time>
  <course>53.49</course>
  <speed>1.0</speed>
  <fix>3d</fix>
</trkpt>
<trkpt lat="33.8107606" lon="-118.3937625">
  <ele>-25.001</ele>
  <time>2026-09-02T22:08:58Z</time>
  <course>54.75</course>
  <speed>0.9765244492586962</speed>
  <fix>3d</fix>
</trkpt>
<trkpt lat="33.8107596" lon="-118.3937645">
  <ele>-24.4</ele>
  <time>2026-09-02T22:08:58Z</time>
  <course>53.49</course>
  <speed>1.0</speed>
  <fix>3d</fix>
</trkpt>
<trkpt lat="33.8107612" lon="-118.3937616">
  <ele>-25.001</ele>
  <time>2026-09-02T22:08:58Z</time>
  <course>54.76</course>
  <speed>0.9765244492586962</speed>
  <fix>3d</fix>
</trkpt>
<trkpt lat="33.8107607" lon="-118.3937628">
  <ele>-24.39</ele>
  <time>2026-09-02T22:08:58Z</time>
  <course>53.52</course>
  <speed>1.0</speed>
  <fix>3d</fix>
</trkpt>
<trkpt lat="33.8107617" lon="-118.3937607">
  <ele>-25.001</ele>
  <time>2026-09-02T22:08:58Z</time>
  <course>54.78</course>
  <speed>0.9765244492586962</speed>
  <fix>3d</fix>
</trkpt>
<trkpt lat="33.8107607" lon="-118.3937628">
  <ele>-24.39</ele>
  <time>2026-09-02T22:08:58Z</time>
  <course>53.52</course>
  <speed>1.0</speed>
  <fix>3d</fix>
</trkpt>
<trkpt lat="33.8107622" lon="-118.3937598">
  <ele>-25.0</ele>
  <time>2026-09-02T22:08:58Z</time>
  <course>54.8</course>
  <speed>0.9765244492586962</speed>
  <fix>3d</fix>
</trkpt>
<trkpt lat="33.8107617" lon="-118.393761">
  <ele>-24.39</ele>
  <time>2026-09-02T22:08:58Z</time>
  <course>53.57</course>
  <speed>1.0</speed>
  <fix>3d</fix>
</trkpt>
<trkpt lat="33.8107628" lon="-118.393759">
  <ele>-24.999</ele>
  <time>2026-09-02T22:08:58Z</time>
  <course>54.82</course>
  <speed>0.9765244492586962</speed>
  <fix>3d</fix>
</trkpt>
<trkpt lat="33.8107617" lon="-118.393761">
  <ele>-24.39</ele>
  <time>2026-09-02T22:08:58Z</time>
  <course>53.57</course>
  <speed>1.0</speed>
  <fix>3d</fix>
</trkpt>
<trkpt lat="33.8107633" lon="-118.3937581">
  <ele>-24.997</ele>
  <time>2026-09-02T22:08:58Z</time>
  <course>54.82</course>
  <speed>0.9765244492586962</speed>
  <fix>3d</fix>
</trkpt>
<trkpt lat="33.8107628" lon="-118.3937593">
  <ele>-24.39</ele>
  <time>2026-09-02T22:08:58Z</time>
  <course>53.6</course>
  <speed>1.0</speed>
  <fix>3d</fix>
</trkpt>
<trkpt lat="33.8107638" lon="-118.3937572">
  <ele>-24.996</ele>
  <time>2026-09-02T22:08:58Z</time>
  <course>54.81</course>
  <speed>0.9765244492586962</speed>
  <fix>3d</fix>
</trkpt>
<trkpt lat="33.8107628" lon="-118.3937593">
  <ele>-24.39</ele>
  <time>2026-09-02T22:08:58Z</time>
  <course>53.6</course>
  <speed>1.0</speed>
  <fix>3d</fix>
</trkpt>
<trkpt lat="33.8107644" lon="-118.3937564">
  <ele>-24.995</ele>
  <time>2026-09-02T22:08:58Z</time>
  <course>54.81</course>
  <speed>0.9765244492586962</speed>
  <fix>3d</fix>
</trkpt>
<trkpt lat="33.8107639" lon="-118.3937575">
  <ele>-24.39</ele>
  <time>2026-09-02T22:08:58Z</time>
  <course>53.59</course>
  <speed>1.0</speed>
  <fix>3d</fix>
</trkpt>
<trkpt lat="33.8107649" lon="-118.3937555">
  <ele>-24.996</ele>
  <time>2026-09-02T22:08:58Z</time>
  <course>54.8</course>
  <speed>0.9765244492586962</speed>
  <fix>3d</fix>
</trkpt>
<trkpt lat="33.8107639" lon="-118.3937575">
  <ele>-24.39</ele>
  <time>2026-09-02T22:08:58Z</time>
  <course>53.59</course>
  <speed>1.0</speed>
  <fix>3d</fix>
</trkpt>
<trkpt lat="33.8107654" lon="-118.3937546">
  <ele>-24.996</ele>
  <time>2026-09-02T22:08:58Z</time>
  <course>54.8</course>
  <speed>0.9765244492586962</speed>
  <fix>3d</fix>
</trkpt>
<trkpt lat="33.8107649" lon="-118.3937558">
  <ele>-24.39</ele>
  <time>2026-09-02T22:08:58Z</time>
  <course>53.59</course>
  <speed>1.0</speed>
  <fix>3d</fix>
</trkpt>
<trkpt lat="33.810766" lon="-118.3937537">
  <ele>-24.996</ele>
  <time>2026-09-02T22:08:58Z</time>
  <course>54.8</course>
  <speed>0.9765244492586962</speed>
  <fix>3d</fix>
</trkpt>
<trkpt lat="33.8107649" lon="-118.3937558">
  <ele>-24.39</ele>
  <time>2026-09-02T22:08:58Z</time>
  <course>53.59</course>
  <speed>1.0</speed>
  <fix>3d</fix>
</trkpt>
<trkpt lat="33.8107665" lon="-118.3937529">
  <ele>-24.996</ele>
  <time>2026-09-02T22:08:58Z</time>
  <course>54.78</course>
  <speed>0.9765244492586962</speed>
  <fix>3d</fix>
</trkpt>
<trkpt lat="33.810766" lon="-118.3937541">
  <ele>-24.39</ele>
  <time>2026-09-02T22:08:58Z</time>
  <course>53.57</course>
  <speed>1.0</speed>
  <fix>3d</fix>
</trkpt>
<trkpt lat="33.810767" lon="-118.393752">
  <ele>-24.997</ele>
  <time>2026-09-02T22:08:58Z</time>
  <course>54.77</course>
  <speed>0.9765244492586962</speed>
  <fix>3d</fix>
</trkpt>
<trkpt lat="33.810766" lon="-118.3937541">
  <ele>-24.39</ele>
  <time>2026-09-02T22:08:58Z</time>
  <course>53.57</course>
  <speed>1.0</speed>
  <fix>3d</fix>
</trkpt>
<trkpt lat="33.8107676" lon="-118.3937511">
  <ele>-24.998</ele>
  <time>2026-09-02T22:08:58Z</time>
  <course>54.77</course>
  <speed>0.9765244492586962</speed>
  <fix>3d</fix>
</trkpt>
<trkpt lat="33.8107671" lon="-118.3937523">
  <ele>-24.39</ele>
  <time>2026-09-02T22:08:58Z</time>
  <course>53.56</course>
  <speed>1.0</speed>
  <fix>3d</fix>
</trkpt>
<trkpt lat="33.8107681" lon="-118.3937503">
  <ele>-24.998</ele>
  <time>2026-09-02T22:08:58Z</time>
  <course>54.76</course>
  <speed>0.9765244492586962</speed>
  <fix>3d</fix>
</trkpt>
<trkpt lat="33.8107671" lon="-118.3937523">
  <ele>-24.39</ele>
  <time>2026-09-02T22:08:58Z</time>
  <course>53.56</course>
  <speed>1.0</speed>
  <fix>3d</fix>
</trkpt>
<trkpt lat="33.8107686" lon="-118.3937494">
  <ele>-24.998</ele>
  <time>2026-09-02T22:08:58Z</time>
  <course>54.76</course>
  <speed>0.9822932352408826</speed>
  <fix>3d</fix>
</trkpt>
<trkpt lat="33.8107681" lon="-118.3937506">
  <ele>-24.39</ele>
  <time>2026-09-02T22:08:58Z</time>
  <course>53.58</course>
  <speed>1.0</speed>
  <fix>3d</fix>
</trkpt>
<trkpt lat="33.8107692" lon="-118.3937485">
  <ele>-24.998</ele>
  <time>2026-09-02T22:08:58Z</time>
  <course>54.75</course>
  <speed>0.9822932352408826</speed>
  <fix>3d</fix>
</trkpt>
<trkpt lat="33.8107681" lon="-118.3937506">
  <ele>-24.39</ele>
  <time>2026-09-02T22:08:58Z</time>
  <course>53.58</course>
  <speed>1.0</speed>
  <fix>3d</fix>
</trkpt>
<trkpt lat="33.8107697" lon="-118.3937477">
  <ele>-24.998</ele>
  <time>2026-09-02T22:08:58Z</time>
  <course>54.74</course>
  <speed>0.9822932352408826</speed>
  <fix>3d</fix>
</trkpt>
<trkpt lat="33.8107692" lon="-118.3937488">
  <ele>-24.39</ele>
  <time>2026-09-02T22:08:58Z</time>
  <course>53.57</course>
  <speed>1.0</speed>
  <fix>3d</fix>
</trkpt>
<trkpt lat="33.8107702" lon="-118.3937468">
  <ele>-24.998</ele>
  <time>2026-09-02T22:08:58Z</time>
  <course>54.72</course>
  <speed>0.9822932352408826</speed>
  <fix>3d</fix>
</trkpt>
<trkpt lat="33.8107692" lon="-118.3937488">
  <ele>-24.39</ele>
  <time>2026-09-02T22:08:58Z</time>
  <course>53.57</course>
  <speed>1.0</speed>
  <fix>3d</fix>
</trkpt>
<trkpt lat="33.8107708" lon="-118.3937459">
  <ele>-24.997</ele>
  <time>2026-09-02T22:08:58Z</time>
  <course>54.7</course>
  <speed>0.9822932352408826</speed>
  <fix>3d</fix>
</trkpt>
<trkpt lat="33.8107703" lon="-118.393747">
  <ele>-24.39</ele>
  <time>2026-09-02T22:08:58Z</time>
  <course>53.53</course>
  <speed>1.0</speed>
  <fix>3d</fix>
</trkpt>
<trkpt lat="33.8107713" lon="-118.3937451">
  <ele>-24.996</ele>
  <time>2026-09-02T22:08:58Z</time>
  <course>54.69</course>
  <speed>0.9822932352408826</speed>
  <fix>3d</fix>
</trkpt>
<trkpt lat="33.8107703" lon="-118.393747">
  <ele>-24.39</ele>
  <time>2026-09-02T22:08:58Z</time>
  <course>53.53</course>
  <speed>1.0</speed>
  <fix>3d</fix>
</trkpt>
<trkpt lat="33.8107718" lon="-118.3937442">
  <ele>-24.996</ele>
  <time>2026-09-02T22:08:58Z</time>
  <course>54.67</course>
  <speed>0.9822932352408826</speed>
  <fix>3d</fix>
</trkpt>
<trkpt lat="33.8107714" lon="-118.3937453">
  <ele>-24.39</ele>
  <time>2026-09-02T22:08:58Z</time>
  <course>53.49</course>
  <speed>1.0</speed>
  <fix>3d</fix>
</trkpt>
<trkpt lat="33.8107724" lon="-118.3937433">
  <ele>-24.997</ele>
  <time>2026-09-02T22:08:58Z</time>
  <course>54.65</course>
  <speed>0.9822932352408826</speed>
  <fix>3d</fix>
</trkpt>
<trkpt lat="33.8107714" lon="-118.3937453">
  <ele>-24.39</ele>
  <time>2026-09-02T22:08:58Z</time>
  <course>53.49</course>
  <speed>1.0</speed>
  <fix>3d</fix>
</trkpt>
<trkpt lat="33.8107729" lon="-118.3937424">
  <ele>-24.997</ele>
  <time>2026-09-02T22:08:58Z</time>
  <course>54.65</course>
  <speed>0.9822932352408826</speed>
  <fix>3d</fix>
</trkpt>
<trkpt lat="33.8107724" lon="-118.3937436">
  <ele>-24.39</ele>
  <time>2026-09-02T22:08:58Z</time>
  <course>53.49</course>
  <speed>1.0</speed>
  <fix>3d</fix>
</trkpt>
<trkpt lat="33.8107734" lon="-118.3937416">
  <ele>-24.997</ele>
  <time>2026-09-02T22:08:58Z</time>
  <course>54.65</course>
  <speed>0.9822932352408826</speed>
  <fix>3d</fix>
</trkpt>
<trkpt lat="33.8107724" lon="-118.3937436">
  <ele>-24.39</ele>
  <time>2026-09-02T22:08:58Z</time>
  <course>53.49</course>
  <speed>1.0</speed>
  <fix>3d</fix>
</trkpt>
<trkpt lat="33.810774" lon="-118.3937407">
  <ele>-24.996</ele>
  <time>2026-09-02T22:08:58Z</time>
  <course>54.66</course>
  <speed>0.9822932352408826</speed>
  <fix>3d</fix>
</trkpt>
<trkpt lat="33.8107735" lon="-118.3937418">
  <ele>-24.39</ele>
  <time>2026-09-02T22:08:58Z</time>
  <course>53.51</course>
  <speed>1.0</speed>
  <fix>3d</fix>
</trkpt>
<trkpt lat="33.8107745" lon="-118.3937398">
  <ele>-24.996</ele>
  <time>2026-09-02T22:08:58Z</time>
  <course>54.65</course>
  <speed>0.9822932352408826</speed>
  <fix>3d</fix>
</trkpt>
<trkpt lat="33.8107735" lon="-118.3937418">
  <ele>-24.39</ele>
  <time>2026-09-02T22:08:58Z</time>
  <course>53.51</course>
  <speed>1.0</speed>
  <fix>3d</fix>
</trkpt>
<trkpt lat="33.810775" lon="-118.393739">
  <ele>-24.995</ele>
  <time>2026-09-02T22:08:58Z</time>
  <course>54.65</course>
  <speed>0.9822932352408826</speed>
  <fix>3d</fix>
</trkpt>
<trkpt lat="33.8107746" lon="-118.3937401">
  <ele>-24.39</ele>
  <time>2026-09-02T22:08:58Z</time>
  <course>53.5</course>
  <speed>1.0</speed>
  <fix>3d</fix>
</trkpt>
<trkpt lat="33.8107756" lon="-118.3937381">
  <ele>-24.996</ele>
  <time>2026-09-02T22:08:58Z</time>
  <course>54.64</course>
  <speed>0.9822932352408826</speed>
  <fix>3d</fix>
</trkpt>
<trkpt lat="33.8107746" lon="-118.3937401">
  <ele>-24.39</ele>
  <time>2026-09-02T22:08:58Z</time>
  <course>53.5</course>
  <speed>1.0</speed>
  <fix>3d</fix>
</trkpt>
<trkpt lat="33.8107761" lon="-118.3937372">
  <ele>-24.996</ele>
  <time>2026-09-02T22:08:58Z</time>
  <course>54.64</course>
  <speed>0.9822932352408826</speed>
  <fix>3d</fix>
</trkpt>
<trkpt lat="33.8107757" lon="-118.3937383">
  <ele>-24.39</ele>
  <time>2026-09-02T22:08:58Z</time>
  <course>53.49</course>
  <speed>1.0</speed>
  <fix>3d</fix>
</trkpt>
<trkpt lat="33.8107767" lon="-118.3937363">
  <ele>-24.996</ele>
  <time>2026-09-02T22:08:58Z</time>
  <course>54.65</course>
  <speed>0.9765244492586962</speed>
  <fix>3d</fix>
</trkpt>
<trkpt lat="33.8107757" lon="-118.3937383">
  <ele>-24.39</ele>
  <time>2026-09-02T22:08:58Z</time>
  <course>53.49</course>
  <speed>1.0</speed>
  <fix>3d</fix>
</trkpt>
<trkpt lat="33.8107772" lon="-118.3937355">
  <ele>-24.997</ele>
  <time>2026-09-02T22:08:58Z</time>
  <course>54.67</course>
  <speed>0.9765244492586962</speed>
  <fix>3d</fix>
</trkpt>
<trkpt lat="33.8107767" lon="-118.3937366">
  <ele>-24.39</ele>
  <time>2026-09-02T22:08:58Z</time>
  <course>53.51</course>
  <speed>1.0</speed>
  <fix>3d</fix>
</trkpt>
<trkpt lat="33.8107777" lon="-118.3937346">
  <ele>-24.997</ele>
  <time>2026-09-02T22:08:58Z</time>
  <course>54.68</course>
  <speed>0.9765244492586962</speed>
  <fix>3d</fix>
</trkpt>
<trkpt lat="33.8107767" lon="-118.3937366">
  <ele>-24.39</ele>
  <time>2026-09-02T22:08:58Z</time>
  <course>53.51</course>
  <speed>1.0</speed>
  <fix>3d</fix>
</trkpt>
<trkpt lat="33.8107783" lon="-118.3937337">
  <ele>-24.997</ele>
  <time>2026-09-02T22:08:58Z</time>
  <course>54.68</course>
  <speed>0.9822932352408826</speed>
  <fix>3d</fix>
</trkpt>
<trkpt lat="33.8107778" lon="-118.3937348">
  <ele>-24.39</ele>
  <time>2026-09-02T22:08:58Z</time>
  <course>53.51</course>
  <speed>1.0</speed>
  <fix>3d</fix>
</trkpt>
<trkpt lat="33.8107788" lon="-118.3937329">
  <ele>-24.996</ele>
  <time>2026-09-02T22:08:58Z</time>
  <course>54.68</course>
  <speed>0.9765244492586962</speed>
  <fix>3d</fix>
</trkpt>
<trkpt lat="33.8107778" lon="-118.3937348">
  <ele>-24.39</ele>
  <time>2026-09-02T22:08:58Z</time>
  <course>53.51</course>
  <speed>1.0</speed>
  <fix>3d</fix>
</trkpt>
<trkpt lat="33.8107793" lon="-118.393732">
  <ele>-24.994</ele>
  <time>2026-09-02T22:08:58Z</time>
  <course>54.67</course>
  <speed>0.9822932352408826</speed>
  <fix>3d</fix>
</trkpt>
<trkpt lat="33.8107789" lon="-118.3937331">
  <ele>-24.39</ele>
  <time>2026-09-02T22:08:58Z</time>
  <course>53.49</course>
  <speed>1.0</speed>
  <fix>3d</fix>
</trkpt>
<trkpt lat="33.8107799" lon="-118.3937311">
  <ele>-24.993</ele>
  <time>2026-09-02T22:08:58Z</time>
  <course>54.66</course>
  <speed>0.9765244492586962</speed>
  <fix>3d</fix>
</trkpt>
<trkpt lat="33.8107789" lon="-118.3937331">
  <ele>-24.39</ele>
  <time>2026-09-02T22:08:58Z</time>
  <course>53.49</course>
  <speed>1.0</speed>
  <fix>3d</fix>
</trkpt>
<trkpt lat="33.8107804" lon="-118.3937302">
  <ele>-24.993</ele>
  <time>2026-09-02T22:08:58Z</time>
  <course>54.67</course>
  <speed>0.9765244492586962</speed>
  <fix>3d</fix>
</trkpt>
<trkpt lat="33.8107799" lon="-118.3937313">
  <ele>-24.39</ele>
  <time>2026-09-02T22:08:58Z</time>
  <course>53.47</course>
  <speed>1.0</speed>
  <fix>3d</fix>
</trkpt>
<trkpt lat="33.8107809" lon="-118.3937294">
  <ele>-24.995</ele>
  <time>2026-09-02T22:08:58Z</time>
  <course>54.67</course>
  <speed>0.9765244492586962</speed>
  <fix>3d</fix>
</trkpt>
<trkpt lat="33.8107799" lon="-118.3937313">
  <ele>-24.39</ele>
  <time>2026-09-02T22:08:58Z</time>
  <course>53.47</course>
  <speed>1.0</speed>
  <fix>3d</fix>
</trkpt>
<trkpt lat="33.8107815" lon="-118.3937285">
  <ele>-24.996</ele>
  <time>2026-09-02T22:08:59Z</time>
  <course>54.65</course>
  <speed>0.9822932352408826</speed>
  <fix>3d</fix>
</trkpt>
<trkpt lat="33.810781" lon="-118.3937296">
  <ele>-24.39</ele>
  <time>2026-09-02T22:08:59Z</time>
  <course>53.45</course>
  <speed>1.0</speed>
  <fix>3d</fix>
</trkpt>
<trkpt lat="33.810782" lon="-118.3937276">
  <ele>-24.996</ele>
  <time>2026-09-02T22:08:59Z</time>
  <course>54.62</course>
  <speed>0.9765244492586962</speed>
  <fix>3d</fix>
</trkpt>
<trkpt lat="33.810781" lon="-118.3937296">
  <ele>-24.39</ele>
  <time>2026-09-02T22:08:59Z</time>
  <course>53.45</course>
  <speed>1.0</speed>
  <fix>3d</fix>
</trkpt>
<trkpt lat="33.8107825" lon="-118.3937268">
  <ele>-24.996</ele>
  <time>2026-09-02T22:08:59Z</time>
  <course>54.61</course>
  <speed>0.9765244492586962</speed>
  <fix>3d</fix>
</trkpt>
<trkpt lat="33.8107821" lon="-118.3937278">
  <ele>-24.39</ele>
  <time>2026-09-02T22:08:59Z</time>
  <course>53.41</course>
  <speed>1.0</speed>
  <fix>3d</fix>
</trkpt>
<trkpt lat="33.8107831" lon="-118.3937259">
  <ele>-24.996</ele>
  <time>2026-09-02T22:08:59Z</time>
  <course>54.59</course>
  <speed>0.9765244492586962</speed>
  <fix>3d</fix>
</trkpt>
<trkpt lat="33.8107821" lon="-118.3937278">
  <ele>-24.39</ele>
  <time>2026-09-02T22:08:59Z</time>
  <course>53.41</course>
  <speed>1.0</speed>
  <fix>3d</fix>
</trkpt>
<trkpt lat="33.8107836" lon="-118.393725">
  <ele>-24.995</ele>
  <time>2026-09-02T22:08:59Z</time>
  <course>54.58</course>
  <speed>0.9683491106000975</speed>
  <fix>3d</fix>
</trkpt>
<trkpt lat="33.8107832" lon="-118.3937261">
  <ele>-24.39</ele>
  <time>2026-09-02T22:08:59Z</time>
  <course>53.39</course>
  <speed>1.0</speed>
  <fix>3d</fix>
</trkpt>
<trkpt lat="33.8107842" lon="-118.3937241">
  <ele>-24.993</ele>
  <time>2026-09-02T22:08:59Z</time>
  <course>54.57</course>
  <speed>0.9683491106000975</speed>
  <fix>3d</fix>
</trkpt>
<trkpt lat="33.8107832" lon="-118.3937261">
  <ele>-24.39</ele>
  <time>2026-09-02T22:08:59Z</time>
  <course>53.39</course>
  <speed>1.0</speed>
  <fix>3d</fix>
</trkpt>
<trkpt lat="33.8107847" lon="-118.3937233">
  <ele>-24.991</ele>
  <time>2026-09-02T22:08:59Z</time>
  <course>54.58</course>
  <speed>0.9683491106000975</speed>
  <fix>3d</fix>
</trkpt>
<trkpt lat="33.8107842" lon="-118.3937243">
  <ele>-24.39</ele>
  <time>2026-09-02T22:08:59Z</time>
  <course>53.4</course>
  <speed>1.0</speed>
  <fix>3d</fix>
</trkpt>
<trkpt lat="33.8107852" lon="-118.3937224">
  <ele>-24.99</ele>
  <time>2026-09-02T22:08:59Z</time>
  <course>54.59</course>
  <speed>0.9683491106000975</speed>
  <fix>3d</fix>
</trkpt>
<trkpt lat="33.8107842" lon="-118.3937243">
  <ele>-24.39</ele>
  <time>2026-09-02T22:08:59Z</time>
  <course>53.4</course>
  <speed>1.0</speed>
  <fix>3d</fix>
</trkpt>
<trkpt lat="33.8107858" lon="-118.3937215">
  <ele>-24.99</ele>
  <time>2026-09-02T22:08:59Z</time>
  <course>54.58</course>
  <speed>0.9683491106000975</speed>
  <fix>3d</fix>
</trkpt>
<trkpt lat="33.8107853" lon="-118.3937226">
  <ele>-24.39</ele>
  <time>2026-09-02T22:08:59Z</time>
  <course>53.39</course>
  <speed>1.0</speed>
  <fix>3d</fix>
</trkpt>
<trkpt lat="33.8107863" lon="-118.3937206">
  <ele>-24.991</ele>
  <time>2026-09-02T22:08:59Z</time>
  <course>54.57</course>
  <speed>0.9683491106000975</speed>
  <fix>3d</fix>
</trkpt>
<trkpt lat="33.8107853" lon="-118.3937226">
  <ele>-24.39</ele>
  <time>2026-09-02T22:08:59Z</time>
  <course>53.39</course>
  <speed>1.0</speed>
  <fix>3d</fix>
</trkpt>
<trkpt lat="33.8107868" lon="-118.3937198">
  <ele>-24.992</ele>
  <time>2026-09-02T22:08:59Z</time>
  <course>54.56</course>
  <speed>0.9683491106000975</speed>
  <fix>3d</fix>
</trkpt>
<trkpt lat="33.8107864" lon="-118.3937209">
  <ele>-24.39</ele>
  <time>2026-09-02T22:08:59Z</time>
  <course>53.36</course>
  <speed>1.0</speed>
  <fix>3d</fix>
</trkpt>
<trkpt lat="33.8107874" lon="-118.3937189">
  <ele>-24.994</ele>
  <time>2026-09-02T22:08:59Z</time>
  <course>54.56</course>
  <speed>0.9683491106000975</speed>
  <fix>3d</fix>
</trkpt>
<trkpt lat="33.8107864" lon="-118.3937209">
  <ele>-24.39</ele>
  <time>2026-09-02T22:08:59Z</time>
  <course>53.36</course>
  <speed>1.0</speed>
  <fix>3d</fix>
</trkpt>
<trkpt lat="33.8107879" lon="-118.393718">
  <ele>-24.996</ele>
  <time>2026-09-02T22:08:59Z</time>
  <course>54.57</course>
  <speed>0.9683491106000975</speed>
  <fix>3d</fix>
</trkpt>
<trkpt lat="33.8107875" lon="-118.3937191">
  <ele>-24.4</ele>
  <time>2026-09-02T22:08:59Z</time>
  <course>53.36</course>
  <speed>1.0</speed>
  <fix>3d</fix>
</trkpt>
<trkpt lat="33.8107884" lon="-118.3937172">
  <ele>-24.999</ele>
  <time>2026-09-02T22:08:59Z</time>
  <course>54.59</course>
  <speed>0.9683491106000975</speed>
  <fix>3d</fix>
</trkpt>
<trkpt lat="33.8107875" lon="-118.3937191">
  <ele>-24.4</ele>
  <time>2026-09-02T22:08:59Z</time>
  <course>53.36</course>
  <speed>1.0</speed>
  <fix>3d</fix>
</trkpt>
<trkpt lat="33.810789" lon="-118.3937163">
  <ele>-25.0</ele>
  <time>2026-09-02T22:08:59Z</time>
  <course>54.62</course>
  <speed>0.9683491106000975</speed>
  <fix>3d</fix>
</trkpt>
<trkpt lat="33.8107885" lon="-118.3937173">
  <ele>-24.4</ele>
  <time>2026-09-02T22:08:59Z</time>
  <course>53.39</course>
  <speed>1.0</speed>
  <fix>3d</fix>
</trkpt>
<trkpt lat="33.8107895" lon="-118.3937154">
  <ele>-25.001</ele>
  <time>2026-09-02T22:08:59Z</time>
  <course>54.64</course>
  <speed>0.9683491106000975</speed>
  <fix>3d</fix>
</trkpt>
<trkpt lat="33.8107885" lon="-118.3937173">
  <ele>-24.4</ele>
  <time>2026-09-02T22:08:59Z</time>
  <course>53.39</course>
  <speed>1.0</speed>
  <fix>3d</fix>
</trkpt>
<trkpt lat="33.81079" lon="-118.3937145">
  <ele>-25.001</ele>
  <time>2026-09-02T22:08:59Z</time>
  <course>54.64</course>
  <speed>0.9683491106000975</speed>
  <fix>3d</fix>
</trkpt>
<trkpt lat="33.8107896" lon="-118.3937156">
  <ele>-24.41</ele>
  <time>2026-09-02T22:08:59Z</time>
  <course>53.39</course>
  <speed>1.0</speed>
  <fix>3d</fix>
</trkpt>
<trkpt lat="33.8107906" lon="-118.3937137">
  <ele>-25.0</ele>
  <time>2026-09-02T22:08:59Z</time>
  <course>54.63</course>
  <speed>0.9683491106000975</speed>
  <fix>3d</fix>
</trkpt>
<trkpt lat="33.8107896" lon="-118.3937156">
  <ele>-24.41</ele>
  <time>2026-09-02T22:08:59Z</time>
  <course>53.39</course>
  <speed>1.0</speed>
  <fix>3d</fix>
</trkpt>
<trkpt lat="33.8107911" lon="-118.3937128">
  <ele>-24.999</ele>
  <time>2026-09-02T22:08:59Z</time>
  <course>54.61</course>
  <speed>0.9683491106000975</speed>
  <fix>3d</fix>
</trkpt>
<trkpt lat="33.8107907" lon="-118.3937139">
  <ele>-24.4</ele>
  <time>2026-09-02T22:08:59Z</time>
  <course>53.35</course>
  <speed>1.0</speed>
  <fix>3d</fix>
</trkpt>
<trkpt lat="33.8107917" lon="-118.3937119">
  <ele>-24.998</ele>
  <time>2026-09-02T22:08:59Z</time>
  <course>54.6</course>
  <speed>0.9683491106000975</speed>
  <fix>3d</fix>
</trkpt>
<trkpt lat="33.8107907" lon="-118.3937139">
  <ele>-24.4</ele>
  <time>2026-09-02T22:08:59Z</time>
  <course>53.35</course>
  <speed>1.0</speed>
  <fix>3d</fix>
</trkpt>
<trkpt lat="33.8107922" lon="-118.3937111">
  <ele>-24.997</ele>
  <time>2026-09-02T22:08:59Z</time>
  <course>54.6</course>
  <speed>0.9683491106000975</speed>
  <fix>3d</fix>
</trkpt>
<trkpt lat="33.8107918" lon="-118.3937122">
  <ele>-24.4</ele>
  <time>2026-09-02T22:08:59Z</time>
  <course>53.35</course>
  <speed>0.99</speed>
  <fix>3d</fix>
</trkpt>
<trkpt lat="33.8107927" lon="-118.3937102">
  <ele>-24.997</ele>
  <time>2026-09-02T22:08:59Z</time>
  <course>54.62</course>
  <speed>0.9683491106000975</speed>
  <fix>3d</fix>
</trkpt>
<trkpt lat="33.8107918" lon="-118.3937122">
  <ele>-24.4</ele>
  <time>2026-09-02T22:08:59Z</time>
  <course>53.35</course>
  <speed>0.99</speed>
  <fix>3d</fix>
</trkpt>
<trkpt lat="33.8107933" lon="-118.3937093">
  <ele>-24.997</ele>
  <time>2026-09-02T22:08:59Z</time>
  <course>54.66</course>
  <speed>0.9683491106000975</speed>
  <fix>3d</fix>
</trkpt>
<trkpt lat="33.8107928" lon="-118.3937104">
  <ele>-24.4</ele>
  <time>2026-09-02T22:08:59Z</time>
  <course>53.4</course>
  <speed>0.99</speed>
  <fix>3d</fix>
</trkpt>
<trkpt lat="33.8107938" lon="-118.3937085">
  <ele>-24.998</ele>
  <time>2026-09-02T22:08:59Z</time>
  <course>54.69</course>
  <speed>0.9683491106000975</speed>
  <fix>3d</fix>
</trkpt>
<trkpt lat="33.8107928" lon="-118.3937104">
  <ele>-24.4</ele>
  <time>2026-09-02T22:08:59Z</time>
  <course>53.4</course>
  <speed>0.99</speed>
  <fix>3d</fix>
</trkpt>
<trkpt lat="33.8107943" lon="-118.3937076">
  <ele>-25.0</ele>
  <time>2026-09-02T22:08:59Z</time>
  <course>54.71</course>
  <speed>0.9683491106000975</speed>
  <fix>3d</fix>
</trkpt>
<trkpt lat="33.8107939" lon="-118.3937087">
  <ele>-24.4</ele>
  <time>2026-09-02T22:08:59Z</time>
  <course>53.44</course>
  <speed>0.99</speed>
  <fix>3d</fix>
</trkpt>
<trkpt lat="33.8107949" lon="-118.3937067">
  <ele>-25.0</ele>
  <time>2026-09-02T22:08:59Z</time>
  <course>54.72</course>
  <speed>0.9683491106000975</speed>
  <fix>3d</fix>
</trkpt>
<trkpt lat="33.8107939" lon="-118.3937087">
  <ele>-24.4</ele>
  <time>2026-09-02T22:08:59Z</time>
  <course>53.44</course>
  <speed>0.99</speed>
  <fix>3d</fix>
</trkpt>
<trkpt lat="33.8107954" lon="-118.3937058">
  <ele>-25.0</ele>
  <time>2026-09-02T22:08:59Z</time>
  <course>54.73</course>
  <speed>0.9683491106000975</speed>
  <fix>3d</fix>
</trkpt>
<trkpt lat="33.810795" lon="-118.393707">
  <ele>-24.4</ele>
  <time>2026-09-02T22:08:59Z</time>
  <course>53.44</course>
  <speed>0.99</speed>
  <fix>3d</fix>
</trkpt>
<trkpt lat="33.8107959" lon="-118.393705">
  <ele>-25.0</ele>
  <time>2026-09-02T22:08:59Z</time>
  <course>54.75</course>
  <speed>0.9683491106000975</speed>
  <fix>3d</fix>
</trkpt>
<trkpt lat="33.810795" lon="-118.393707">
  <ele>-24.4</ele>
  <time>2026-09-02T22:08:59Z</time>
  <course>53.44</course>
  <speed>0.99</speed>
  <fix>3d</fix>
</trkpt>
<trkpt lat="33.8107965" lon="-118.3937041">
  <ele>-24.999</ele>
  <time>2026-09-02T22:08:59Z</time>
  <course>54.77</course>
  <speed>0.9683491106000975</speed>
  <fix>3d</fix>
</trkpt>
<trkpt lat="33.8107961" lon="-118.3937052">
  <ele>-24.4</ele>
  <time>2026-09-02T22:08:59Z</time>
  <course>53.47</course>
  <speed>0.99</speed>
  <fix>3d</fix>
</trkpt>
<trkpt lat="33.810797" lon="-118.3937032">
  <ele>-24.998</ele>
  <time>2026-09-02T22:08:59Z</time>
  <course>54.8</course>
  <speed>0.9683491106000975</speed>
  <fix>3d</fix>
</trkpt>
<trkpt lat="33.8107961" lon="-118.3937052">
  <ele>-24.4</ele>
  <time>2026-09-02T22:08:59Z</time>
  <course>53.47</course>
  <speed>0.99</speed>
  <fix>3d</fix>
</trkpt>
<trkpt lat="33.8107976" lon="-118.3937024">
  <ele>-24.997</ele>
  <time>2026-09-02T22:08:59Z</time>
  <course>54.84</course>
  <speed>0.9683491106000975</speed>
  <fix>3d</fix>
</trkpt>
<trkpt lat="33.8107971" lon="-118.3937035">
  <ele>-24.39</ele>
  <time>2026-09-02T22:08:59Z</time>
  <course>53.51</course>
  <speed>0.99</speed>
  <fix>3d</fix>
</trkpt>
<trkpt lat="33.8107981" lon="-118.3937015">
  <ele>-24.996</ele>
  <time>2026-09-02T22:08:59Z</time>
  <course>54.87</course>
  <speed>0.9683491106000975</speed>
  <fix>3d</fix>
</trkpt>
<trkpt lat="33.8107971" lon="-118.3937035">
  <ele>-24.39</ele>
  <time>2026-09-02T22:08:59Z</time>
  <course>53.51</course>
  <speed>0.99</speed>
  <fix>3d</fix>
</trkpt>
<trkpt lat="33.8107986" lon="-118.3937006">
  <ele>-24.995</ele>
  <time>2026-09-02T22:08:59Z</time>
  <course>54.89</course>
  <speed>0.9683491106000975</speed>
  <fix>3d</fix>
</trkpt>
<trkpt lat="33.8107982" lon="-118.3937018">
  <ele>-24.39</ele>
  <time>2026-09-02T22:08:59Z</time>
  <course>53.54</course>
  <speed>0.99</speed>
  <fix>3d</fix>
</trkpt>
<trkpt lat="33.8107992" lon="-118.3936998">
  <ele>-24.995</ele>
  <time>2026-09-02T22:08:59Z</time>
  <course>54.9</course>
  <speed>0.9765244492586962</speed>
  <fix>3d</fix>
</trkpt>
<trkpt lat="33.8107982" lon="-118.3937018">
  <ele>-24.39</ele>
  <time>2026-09-02T22:08:59Z</time>
  <course>53.54</course>
  <speed>0.99</speed>
  <fix>3d</fix>
</trkpt>
<trkpt lat="33.8107997" lon="-118.3936989">
  <ele>-24.994</ele>
  <time>2026-09-02T22:08:59Z</time>
  <course>54.92</course>
  <speed>0.9765244492586962</speed>
  <fix>3d</fix>
</trkpt>
<trkpt lat="33.8107993" lon="-118.3937">
  <ele>-24.39</ele>
  <time>2026-09-02T22:08:59Z</time>
  <course>53.57</course>
  <speed>0.99</speed>
  <fix>3d</fix>
</trkpt>
<trkpt lat="33.8108002" lon="-118.393698">
  <ele>-24.993</ele>
  <time>2026-09-02T22:08:59Z</time>
  <course>54.94</course>
  <speed>0.9765244492586962</speed>
  <fix>3d</fix>
</trkpt>
<trkpt lat="33.8107993" lon="-118.3937">
  <ele>-24.39</ele>
  <time>2026-09-02T22:08:59Z</time>
  <course>53.57</course>
  <speed>0.99</speed>
  <fix>3d</fix>
</trkpt>
<trkpt lat="33.8108008" lon="-118.3936972">
  <ele>-24.993</ele>
  <time>2026-09-02T22:08:59Z</time>
  <course>54.96</course>
  <speed>0.9765244492586962</speed>
  <fix>3d</fix>
</trkpt>
<trkpt lat="33.8108003" lon="-118.3936983">
  <ele>-24.39</ele>
  <time>2026-09-02T22:08:59Z</time>
  <course>53.61</course>
  <speed>0.99</speed>
  <fix>3d</fix>
</trkpt>
<trkpt lat="33.8108013" lon="-118.3936963">
  <ele>-24.993</ele>
  <time>2026-09-02T22:08:59Z</time>
  <course>54.97</course>
  <speed>0.9765244492586962</speed>
  <fix>3d</fix>
</trkpt>
<trkpt lat="33.8108003" lon="-118.3936983">
  <ele>-24.39</ele>
  <time>2026-09-02T22:08:59Z</time>
  <course>53.61</course>
  <speed>0.99</speed>
  <fix>3d</fix>
</trkpt>
<trkpt lat="33.8108018" lon="-118.3936954">
  <ele>-24.994</ele>
  <time>2026-09-02T22:08:59Z</time>
  <course>54.97</course>
  <speed>0.9765244492586962</speed>
  <fix>3d</fix>
</trkpt>
<trkpt lat="33.8108014" lon="-118.3936966">
  <ele>-24.39</ele>
  <time>2026-09-02T22:08:59Z</time>
  <course>53.61</course>
  <speed>0.99</speed>
  <fix>3d</fix>
</trkpt>
<trkpt lat="33.8108024" lon="-118.3936945">
  <ele>-24.995</ele>
  <time>2026-09-02T22:08:59Z</time>
  <course>54.96</course>
  <speed>0.9765244492586962</speed>
  <fix>3d</fix>
</trkpt>
<trkpt lat="33.8108014" lon="-118.3936966">
  <ele>-24.39</ele>
  <time>2026-09-02T22:08:59Z</time>
  <course>53.61</course>
  <speed>0.99</speed>
  <fix>3d</fix>
</trkpt>
<trkpt lat="33.8108029" lon="-118.3936937">
  <ele>-24.995</ele>
  <time>2026-09-02T22:08:59Z</time>
  <course>54.97</course>
  <speed>0.9765244492586962</speed>
  <fix>3d</fix>
</trkpt>
<trkpt lat="33.8108024" lon="-118.3936948">
  <ele>-24.39</ele>
  <time>2026-09-02T22:08:59Z</time>
  <course>53.62</course>
  <speed>0.99</speed>
  <fix>3d</fix>
</trkpt>
<trkpt lat="33.8108034" lon="-118.3936928">
  <ele>-24.996</ele>
  <time>2026-09-02T22:08:59Z</time>
  <course>54.97</course>
  <speed>0.9765244492586962</speed>
  <fix>3d</fix>
</trkpt>
<trkpt lat="33.8108024" lon="-118.3936948">
  <ele>-24.39</ele>
  <time>2026-09-02T22:08:59Z</time>
  <course>53.62</course>
  <speed>0.99</speed>
  <fix>3d</fix>
</trkpt>
<trkpt lat="33.810804" lon="-118.3936919">
  <ele>-24.996</ele>
  <time>2026-09-02T22:08:59Z</time>
  <course>54.95</course>
  <speed>0.9765244492586962</speed>
  <fix>3d</fix>
</trkpt>
<trkpt lat="33.8108035" lon="-118.3936931">
  <ele>-24.39</ele>
  <time>2026-09-02T22:08:59Z</time>
  <course>53.61</course>
  <speed>0.99</speed>
  <fix>3d</fix>
</trkpt>
<trkpt lat="33.8108045" lon="-118.3936911">
  <ele>-24.997</ele>
  <time>2026-09-02T22:08:59Z</time>
  <course>54.92</course>
  <speed>0.9765244492586962</speed>
  <fix>3d</fix>
</trkpt>
<trkpt lat="33.8108035" lon="-118.3936931">
  <ele>-24.39</ele>
  <time>2026-09-02T22:08:59Z</time>
  <course>53.61</course>
  <speed>0.99</speed>
  <fix>3d</fix>
</trkpt>
<trkpt lat="33.810805" lon="-118.3936902">
  <ele>-24.997</ele>
  <time>2026-09-02T22:08:59Z</time>
  <course>54.91</course>
  <speed>0.9765244492586962</speed>
  <fix>3d</fix>
</trkpt>
<trkpt lat="33.8108046" lon="-118.3936913">
  <ele>-24.39</ele>
  <time>2026-09-02T22:08:59Z</time>
  <course>53.56</course>
  <speed>0.99</speed>
  <fix>3d</fix>
</trkpt>
<trkpt lat="33.8108056" lon="-118.3936893">
  <ele>-24.998</ele>
  <time>2026-09-02T22:08:59Z</time>
  <course>54.89</course>
  <speed>0.9765244492586962</speed>
  <fix>3d</fix>
</trkpt>
<trkpt lat="33.8108046" lon="-118.3936913">
  <ele>-24.39</ele>
  <time>2026-09-02T22:08:59Z</time>
  <course>53.56</course>
  <speed>0.99</speed>
  <fix>3d</fix>
</trkpt>
<trkpt lat="33.8108061" lon="-118.3936885">
  <ele>-24.998</ele>
  <time>2026-09-02T22:08:59Z</time>
  <course>54.88</course>
  <speed>0.9765244492586962</speed>
  <fix>3d</fix>
</trkpt>
<trkpt lat="33.8108057" lon="-118.3936896">
  <ele>-24.39</ele>
  <time>2026-09-02T22:08:59Z</time>
  <course>53.53</course>
  <speed>1.0</speed>
  <fix>3d</fix>
</trkpt>
<trkpt lat="33.8108066" lon="-118.3936876">
  <ele>-24.999</ele>
  <time>2026-09-02T22:08:59Z</time>
  <course>54.87</course>
  <speed>0.9765244492586962</speed>
  <fix>3d</fix>
</trkpt>
<trkpt lat="33.8108057" lon="-118.3936896">
  <ele>-24.39</ele>
  <time>2026-09-02T22:08:59Z</time>
  <course>53.53</course>
  <speed>1.0</speed>
  <fix>3d</fix>
</trkpt>
<trkpt lat="33.8108072" lon="-118.3936867">
  <ele>-24.999</ele>
  <time>2026-09-02T22:08:59Z</time>
  <course>54.88</course>
  <speed>0.9765244492586962</speed>
  <fix>3d</fix>
</trkpt>
<trkpt lat="33.8108067" lon="-118.3936879">
  <ele>-24.39</ele>
  <time>2026-09-02T22:08:59Z</time>
  <course>53.55</course>
  <speed>0.99</speed>
  <fix>3d</fix>
</trkpt>
<trkpt lat="33.8108077" lon="-118.3936859">
  <ele>-24.999</ele>
  <time>2026-09-02T22:08:59Z</time>
  <course>54.89</course>
  <speed>0.9765244492586962</speed>
  <fix>3d</fix>
</trkpt>
<trkpt lat="33.8108067" lon="-118.3936879">
  <ele>-24.39</ele>
  <time>2026-09-02T22:08:59Z</time>
  <course>53.55</course>
  <speed>0.99</speed>
  <fix>3d</fix>
</trkpt>
<trkpt lat="33.8108082" lon="-118.393685">
  <ele>-24.997</ele>
  <time>2026-09-02T22:08:59Z</time>
  <course>54.91</course>
  <speed>0.9765244492586962</speed>
  <fix>3d</fix>
</trkpt>
<trkpt lat="33.8108078" lon="-118.3936861">
  <ele>-24.39</ele>
  <time>2026-09-02T22:08:59Z</time>
  <course>53.59</course>
  <speed>0.99</speed>
  <fix>3d</fix>
</trkpt>
<trkpt lat="33.8108088" lon="-118.3936841">
  <ele>-24.996</ele>
  <time>2026-09-02T22:08:59Z</time>
  <course>54.91</course>
  <speed>0.9765244492586962</speed>
  <fix>3d</fix>
</trkpt>
<trkpt lat="33.8108078" lon="-118.3936861">
  <ele>-24.39</ele>
  <time>2026-09-02T22:08:59Z</time>
  <course>53.59</course>
  <speed>0.99</speed>
  <fix>3d</fix>
</trkpt>
<trkpt lat="33.8108093" lon="-118.3936832">
  <ele>-24.994</ele>
  <time>2026-09-02T22:08:59Z</time>
  <course>54.91</course>
  <speed>0.9765244492586962</speed>
  <fix>3d</fix>
</trkpt>
<trkpt lat="33.8108088" lon="-118.3936844">
  <ele>-24.39</ele>
  <time>2026-09-02T22:08:59Z</time>
  <course>53.59</course>
  <speed>0.99</speed>
  <fix>3d</fix>
</trkpt>
<trkpt lat="33.8108098" lon="-118.3936824">
  <ele>-24.993</ele>
  <time>2026-09-02T22:08:59Z</time>
  <course>54.9</course>
  <speed>0.9765244492586962</speed>
  <fix>3d</fix>
</trkpt>
<trkpt lat="33.8108088" lon="-118.3936844">
  <ele>-24.39</ele>
  <time>2026-09-02T22:08:59Z</time>
  <course>53.59</course>
  <speed>0.99</speed>
  <fix>3d</fix>
</trkpt>
<trkpt lat="33.8108104" lon="-118.3936815">
  <ele>-24.994</ele>
  <time>2026-09-02T22:08:59Z</time>
  <course>54.88</course>
  <speed>0.9765244492586962</speed>
  <fix>3d</fix>
</trkpt>
<trkpt lat="33.8108099" lon="-118.3936826">
  <ele>-24.39</ele>
  <time>2026-09-02T22:08:59Z</time>
  <course>53.56</course>
  <speed>0.99</speed>
  <fix>3d</fix>
</trkpt>
<trkpt lat="33.8108109" lon="-118.3936806">
  <ele>-24.995</ele>
  <time>2026-09-02T22:08:59Z</time>
  <course>54.86</course>
  <speed>0.9765244492586962</speed>
  <fix>3d</fix>
</trkpt>
<trkpt lat="33.8108099" lon="-118.3936826">
  <ele>-24.39</ele>
  <time>2026-09-02T22:08:59Z</time>
  <course>53.56</course>
  <speed>0.99</speed>
  <fix>3d</fix>
</trkpt>
<trkpt lat="33.8108114" lon="-118.3936798">
  <ele>-24.997</ele>
  <time>2026-09-02T22:08:59Z</time>
  <course>54.83</course>
  <speed>0.9765244492586962</speed>
  <fix>3d</fix>
</trkpt>
<trkpt lat="33.810811" lon="-118.3936809">
  <ele>-24.39</ele>
  <time>2026-09-02T22:08:59Z</time>
  <course>53.5</course>
  <speed>1.0</speed>
  <fix>3d</fix>
</trkpt>
<trkpt lat="33.810812" lon="-118.3936789">
  <ele>-24.998</ele>
  <time>2026-09-02T22:08:59Z</time>
  <course>54.8</course>
  <speed>0.9765244492586962</speed>
  <fix>3d</fix>
</trkpt>
<trkpt lat="33.810811" lon="-118.3936809">
  <ele>-24.39</ele>
  <time>2026-09-02T22:08:59Z</time>
  <course>53.5</course>
  <speed>1.0</speed>
  <fix>3d</fix>
</trkpt>
<trkpt lat="33.8108125" lon="-118.393678">
  <ele>-24.999</ele>
  <time>2026-09-02T22:08:59Z</time>
  <course>54.79</course>
  <speed>0.9765244492586962</speed>
  <fix>3d</fix>
</trkpt>
<trkpt lat="33.8108121" lon="-118.3936792">
  <ele>-24.38</ele>
  <time>2026-09-02T22:08:59Z</time>
  <course>53.47</course>
  <speed>1.0</speed>
  <fix>3d</fix>
</trkpt>
<trkpt lat="33.8108131" lon="-118.3936771">
  <ele>-24.999</ele>
  <time>2026-09-02T22:08:59Z</time>
  <course>54.8</course>
  <speed>0.9765244492586962</speed>
  <fix>3d</fix>
</trkpt>
<trkpt lat="33.8108121" lon="-118.3936792">
  <ele>-24.38</ele>
  <time>2026-09-02T22:08:59Z</time>
  <course>53.47</course>
  <speed>1.0</speed>
  <fix>3d</fix>
</trkpt>
<trkpt lat="33.8108136" lon="-118.3936763">
  <ele>-24.998</ele>
  <time>2026-09-02T22:08:59Z</time>
  <course>54.82</course>
  <speed>0.9765244492586962</speed>
  <fix>3d</fix>
</trkpt>
<trkpt lat="33.8108131" lon="-118.3936774">
  <ele>-24.38</ele>
  <time>2026-09-02T22:08:59Z</time>
  <course>53.51</course>
  <speed>0.99</speed>
  <fix>3d</fix>
</trkpt>
<trkpt lat="33.8108141" lon="-118.3936754">
  <ele>-24.995</ele>
  <time>2026-09-02T22:08:59Z</time>
  <course>54.84</course>
  <speed>0.9765244492586962</speed>
  <fix>3d</fix>
</trkpt>
<trkpt lat="33.8108131" lon="-118.3936774">
  <ele>-24.38</ele>
  <time>2026-09-02T22:08:59Z</time>
  <course>53.51</course>
  <speed>0.99</speed>
  <fix>3d</fix>
</trkpt>
<trkpt lat="33.8108147" lon="-118.3936745">
  <ele>-24.991</ele>
  <time>2026-09-02T22:08:59Z</time>
  <course>54.84</course>
  <speed>0.9765244492586962</speed>
  <fix>3d</fix>
</trkpt>
<trkpt lat="33.8108142" lon="-118.3936757">
  <ele>-24.38</ele>
  <time>2026-09-02T22:08:59Z</time>
  <course>53.54</course>
  <speed>0.99</speed>
  <fix>3d</fix>
</trkpt>
<trkpt lat="33.8108152" lon="-118.3936737">
  <ele>-24.989</ele>
  <time>2026-09-02T22:08:59Z</time>
  <course>54.84</course>
  <speed>0.9765244492586962</speed>
  <fix>3d</fix>
</trkpt>
<trkpt lat="33.8108142" lon="-118.3936757">
  <ele>-24.38</ele>
  <time>2026-09-02T22:08:59Z</time>
  <course>53.54</course>
  <speed>0.99</speed>
  <fix>3d</fix>
</trkpt>
<trkpt lat="33.8108157" lon="-118.3936728">
  <ele>-24.988</ele>
  <time>2026-09-02T22:08:59Z</time>
  <course>54.84</course>
  <speed>0.9765244492586962</speed>
  <fix>3d</fix>
</trkpt>
<trkpt lat="33.8108153" lon="-118.393674">
  <ele>-24.38</ele>
  <time>2026-09-02T22:08:59Z</time>
  <course>53.53</course>
  <speed>0.99</speed>
  <fix>3d</fix>
</trkpt>
<trkpt lat="33.8108163" lon="-118.3936719">
  <ele>-24.99</ele>
  <time>2026-09-02T22:08:59Z</time>
  <course>54.84</course>
  <speed>0.9765244492586962</speed>
  <fix>3d</fix>
</trkpt>
<trkpt lat="33.8108153" lon="-118.393674">
  <ele>-24.38</ele>
  <time>2026-09-02T22:08:59Z</time>
  <course>53.53</course>
  <speed>0.99</speed>
  <fix>3d</fix>
</trkpt>
<trkpt lat="33.8108168" lon="-118.3936711">
  <ele>-24.992</ele>
  <time>2026-09-02T22:08:59Z</time>
  <course>54.87</course>
  <speed>0.9765244492586962</speed>
  <fix>3d</fix>
</trkpt>
<trkpt lat="33.8108163" lon="-118.3936722">
  <ele>-24.38</ele>
  <time>2026-09-02T22:08:59Z</time>
  <course>53.56</course>
  <speed>1.0</speed>
  <fix>3d</fix>
</trkpt>
<trkpt lat="33.8108173" lon="-118.3936702">
  <ele>-24.994</ele>
  <time>2026-09-02T22:08:59Z</time>
  <course>54.88</course>
  <speed>0.9765244492586962</speed>
  <fix>3d</fix>
</trkpt>
<trkpt lat="33.8108163" lon="-118.3936722">
  <ele>-24.38</ele>
  <time>2026-09-02T22:08:59Z</time>
  <course>53.56</course>
  <speed>1.0</speed>
  <fix>3d</fix>
</trkpt>
<trkpt lat="33.8108179" lon="-118.3936693">
  <ele>-24.995</ele>
  <time>2026-09-02T22:08:59Z</time>
  <course>54.88</course>
  <speed>0.9765244492586962</speed>
  <fix>3d</fix>
</trkpt>
<trkpt lat="33.8108174" lon="-118.3936704">
  <ele>-24.38</ele>
  <time>2026-09-02T22:08:59Z</time>
  <course>53.57</course>
  <speed>1.0</speed>
  <fix>3d</fix>
</trkpt>
<trkpt lat="33.8108184" lon="-118.3936684">
  <ele>-24.995</ele>
  <time>2026-09-02T22:08:59Z</time>
  <course>54.86</course>
  <speed>0.9765244492586962</speed>
  <fix>3d</fix>
</trkpt>
<trkpt lat="33.8108174" lon="-118.3936704">
  <ele>-24.38</ele>
  <time>2026-09-02T22:08:59Z</time>
  <course>53.57</course>
  <speed>1.0</speed>
  <fix>3d</fix>
</trkpt>
<trkpt lat="33.8108189" lon="-118.3936676">
  <ele>-24.993</ele>
  <time>2026-09-02T22:08:59Z</time>
  <course>54.84</course>
  <speed>0.9765244492586962</speed>
  <fix>3d</fix>
</trkpt>
<trkpt lat="33.8108184" lon="-118.3936687">
  <ele>-24.38</ele>
  <time>2026-09-02T22:08:59Z</time>
  <course>53.53</course>
  <speed>0.99</speed>
  <fix>3d</fix>
</trkpt>
<trkpt lat="33.8108195" lon="-118.3936667">
  <ele>-24.991</ele>
  <time>2026-09-02T22:08:59Z</time>
  <course>54.81</course>
  <speed>0.9765244492586962</speed>
  <fix>3d</fix>
</trkpt>
<trkpt lat="33.8108184" lon="-118.3936687">
  <ele>-24.38</ele>
  <time>2026-09-02T22:08:59Z</time>
  <course>53.53</course>
  <speed>0.99</speed>
  <fix>3d</fix>
</trkpt>
<trkpt lat="33.81082" lon="-118.3936658">
  <ele>-24.989</ele>
  <time>2026-09-02T22:08:59Z</time>
  <course>54.77</course>
  <speed>0.9765244492586962</speed>
  <fix>3d</fix>
</trkpt>
<trkpt lat="33.8108195" lon="-118.393667">
  <ele>-24.38</ele>
  <time>2026-09-02T22:08:59Z</time>
  <course>53.47</course>
  <speed>0.99</speed>
  <fix>3d</fix>
</trkpt>
<trkpt lat="33.8108205" lon="-118.393665">
  <ele>-24.989</ele>
  <time>2026-09-02T22:08:59Z</time>
  <course>54.72</course>
  <speed>0.9765244492586962</speed>
  <fix>3d</fix>
</trkpt>
<trkpt lat="33.8108195" lon="-118.393667">
  <ele>-24.38</ele>
  <time>2026-09-02T22:08:59Z</time>
  <course>53.47</course>
  <speed>0.99</speed>
  <fix>3d</fix>
</trkpt>
<trkpt lat="33.8108211" lon="-118.3936641">
  <ele>-24.99</ele>
  <time>2026-09-02T22:08:59Z</time>
  <course>54.69</course>
  <speed>0.9765244492586962</speed>
  <fix>3d</fix>
</trkpt>
<trkpt lat="33.8108206" lon="-118.3936653">
  <ele>-24.38</ele>
  <time>2026-09-02T22:08:59Z</time>
  <course>53.41</course>
  <speed>0.99</speed>
  <fix>3d</fix>
</trkpt>
<trkpt lat="33.8108216" lon="-118.3936632">
  <ele>-24.991</ele>
  <time>2026-09-02T22:08:59Z</time>
  <course>54.68</course>
  <speed>0.9765244492586962</speed>
  <fix>3d</fix>
</trkpt>
<trkpt lat="33.8108206" lon="-118.3936653">
  <ele>-24.38</ele>
  <time>2026-09-02T22:08:59Z</time>
  <course>53.41</course>
  <speed>0.99</speed>
  <fix>3d</fix>
</trkpt>
<trkpt lat="33.8108221" lon="-118.3936624">
  <ele>-24.993</ele>
  <time>2026-09-02T22:08:59Z</time>
  <course>54.68</course>
  <speed>0.9765244492586962</speed>
  <fix>3d</fix>
</trkpt>
<trkpt lat="33.8108217" lon="-118.3936635">
  <ele>-24.38</ele>
  <time>2026-09-02T22:08:59Z</time>
  <course>53.41</course>
  <speed>1.0</speed>
  <fix>3d</fix>
</trkpt>
<trkpt lat="33.8108227" lon="-118.3936615">
  <ele>-24.994</ele>
  <time>2026-09-02T22:08:59Z</time>
  <course>54.7</course>
  <speed>0.9765244492586962</speed>
  <fix>3d</fix>
</trkpt>
<trkpt lat="33.8108217" lon="-118.3936635">
  <ele>-24.38</ele>
  <time>2026-09-02T22:08:59Z</time>
  <course>53.41</course>
  <speed>1.0</speed>
  <fix>3d</fix>
</trkpt>
<trkpt lat="33.8108232" lon="-118.3936606">
  <ele>-24.996</ele>
  <time>2026-09-02T22:08:59Z</time>
  <course>54.72</course>
  <speed>0.9765244492586962</speed>
  <fix>3d</fix>
</trkpt>
<trkpt lat="33.8108227" lon="-118.3936618">
  <ele>-24.39</ele>
  <time>2026-09-02T22:08:59Z</time>
  <course>53.45</course>
  <speed>1.0</speed>
  <fix>3d</fix>
</trkpt>
<trkpt lat="33.8108237" lon="-118.3936597">
  <ele>-24.997</ele>
  <time>2026-09-02T22:08:59Z</time>
  <course>54.74</course>
  <speed>0.9765244492586962</speed>
  <fix>3d</fix>
</trkpt>
<trkpt lat="33.8108227" lon="-118.3936618">
  <ele>-24.39</ele>
  <time>2026-09-02T22:08:59Z</time>
  <course>53.45</course>
  <speed>1.0</speed>
  <fix>3d</fix>
</trkpt>
<trkpt lat="33.8108243" lon="-118.3936589">
  <ele>-24.998</ele>
  <time>2026-09-02T22:08:59Z</time>
  <course>54.75</course>
  <speed>0.9765244492586962</speed>
  <fix>3d</fix>
</trkpt>
<trkpt lat="33.8108238" lon="-118.39366">
  <ele>-24.39</ele>
  <time>2026-09-02T22:08:59Z</time>
  <course>53.47</course>
  <speed>1.0</speed>
  <fix>3d</fix>
</trkpt>
<trkpt lat="33.8108248" lon="-118.393658">
  <ele>-24.997</ele>
  <time>2026-09-02T22:08:59Z</time>
  <course>54.75</course>
  <speed>0.9765244492586962</speed>
  <fix>3d</fix>
</trkpt>
<trkpt lat="33.8108238" lon="-118.39366">
  <ele>-24.39</ele>
  <time>2026-09-02T22:08:59Z</time>
  <course>53.47</course>
  <speed>1.0</speed>
  <fix>3d</fix>
</trkpt>
<trkpt lat="33.8108253" lon="-118.3936571">
  <ele>-24.996</ele>
  <time>2026-09-02T22:08:59Z</time>
  <course>54.74</course>
  <speed>0.9765244492586962</speed>
  <fix>3d</fix>
</trkpt>
<trkpt lat="33.8108249" lon="-118.3936583">
  <ele>-24.39</ele>
  <time>2026-09-02T22:08:59Z</time>
  <course>53.45</course>
  <speed>1.0</speed>
  <fix>3d</fix>
</trkpt>
<trkpt lat="33.8108259" lon="-118.3936563">
  <ele>-24.994</ele>
  <time>2026-09-02T22:08:59Z</time>
  <course>54.73</course>
  <speed>0.9765244492586962</speed>
  <fix>3d</fix>
</trkpt>
<trkpt lat="33.8108249" lon="-118.3936583">
  <ele>-24.39</ele>
  <time>2026-09-02T22:08:59Z</time>
  <course>53.45</course>
  <speed>1.0</speed>
  <fix>3d</fix>
</trkpt>
<trkpt lat="33.8108264" lon="-118.3936554">
  <ele>-24.993</ele>
  <time>2026-09-02T22:08:59Z</time>
  <course>54.74</course>
  <speed>0.9765244492586962</speed>
  <fix>3d</fix>
</trkpt>
<trkpt lat="33.8108259" lon="-118.3936565">
  <ele>-24.39</ele>
  <time>2026-09-02T22:08:59Z</time>
  <course>53.44</course>
  <speed>1.0</speed>
  <fix>3d</fix>
</trkpt>
<trkpt lat="33.810827" lon="-118.3936545">
  <ele>-24.993</ele>
  <time>2026-09-02T22:08:59Z</time>
  <course>54.75</course>
  <speed>0.9765244492586962</speed>
  <fix>3d</fix>
</trkpt>
<trkpt lat="33.8108259" lon="-118.3936565">
  <ele>-24.39</ele>
  <time>2026-09-02T22:08:59Z</time>
  <course>53.44</course>
  <speed>1.0</speed>
  <fix>3d</fix>
</trkpt>
<trkpt lat="33.8108275" lon="-118.3936536">
  <ele>-24.992</ele>
  <time>2026-09-02T22:08:59Z</time>
  <course>54.73</course>
  <speed>0.9765244492586962</speed>
  <fix>3d</fix>
</trkpt>
<trkpt lat="33.810827" lon="-118.3936548">
  <ele>-24.39</ele>
  <time>2026-09-02T22:08:59Z</time>
  <course>53.44</course>
  <speed>0.99</speed>
  <fix>3d</fix>
</trkpt>
<trkpt lat="33.810828" lon="-118.3936528">
  <ele>-24.992</ele>
  <time>2026-09-02T22:08:59Z</time>
  <course>54.71</course>
  <speed>0.9765244492586962</speed>
  <fix>3d</fix>
</trkpt>
<trkpt lat="33.810827" lon="-118.3936548">
  <ele>-24.39</ele>
  <time>2026-09-02T22:08:59Z</time>
  <course>53.44</course>
  <speed>0.99</speed>
  <fix>3d</fix>
</trkpt>
<trkpt lat="33.8108286" lon="-118.3936519">
  <ele>-24.993</ele>
  <time>2026-09-02T22:08:59Z</time>
  <course>54.69</course>
  <speed>0.9765244492586962</speed>
  <fix>3d</fix>
</trkpt>
<trkpt lat="33.8108281" lon="-118.3936531">
  <ele>-24.39</ele>
  <time>2026-09-02T22:08:59Z</time>
  <course>53.4</course>
  <speed>0.99</speed>
  <fix>3d</fix>
</trkpt>
<trkpt lat="33.8108291" lon="-118.393651">
  <ele>-24.994</ele>
  <time>2026-09-02T22:08:59Z</time>
  <course>54.68</course>
  <speed>0.9765244492586962</speed>
  <fix>3d</fix>
</trkpt>
<trkpt lat="33.8108281" lon="-118.3936531">
  <ele>-24.39</ele>
  <time>2026-09-02T22:08:59Z</time>
  <course>53.4</course>
  <speed>0.99</speed>
  <fix>3d</fix>
</trkpt>
<trkpt lat="33.8108296" lon="-118.3936502">
  <ele>-24.995</ele>
  <time>2026-09-02T22:08:59Z</time>
  <course>54.7</course>
  <speed>0.9765244492586962</speed>
  <fix>3d</fix>
</trkpt>
<trkpt lat="33.8108292" lon="-118.3936514">
  <ele>-24.39</ele>
  <time>2026-09-02T22:08:59Z</time>
  <course>53.4</course>
  <speed>1.0</speed>
  <fix>3d</fix>
</trkpt>
<trkpt lat="33.8108302" lon="-118.3936493">
  <ele>-24.996</ele>
  <time>2026-09-02T22:08:59Z</time>
  <course>54.72</course>
  <speed>0.9765244492586962</speed>
  <fix>3d</fix>
</trkpt>
<trkpt lat="33.8108292" lon="-118.3936514">
  <ele>-24.39</ele>
  <time>2026-09-02T22:08:59Z</time>
  <course>53.4</course>
  <speed>1.0</speed>
  <fix>3d</fix>
</trkpt>
<trkpt lat="33.8108307" lon="-118.3936484">
  <ele>-24.996</ele>
  <time>2026-09-02T22:08:59Z</time>
  <course>54.76</course>
  <speed>0.9765244492586962</speed>
  <fix>3d</fix>
</trkpt>
<trkpt lat="33.8108302" lon="-118.3936496">
  <ele>-24.39</ele>
  <time>2026-09-02T22:08:59Z</time>
  <course>53.47</course>
  <speed>1.0</speed>
  <fix>3d</fix>
</trkpt>
<trkpt lat="33.8108312" lon="-118.3936476">
  <ele>-24.997</ele>
  <time>2026-09-02T22:08:59Z</time>
  <course>54.8</course>
  <speed>0.9765244492586962</speed>
  <fix>3d</fix>
</trkpt>
<trkpt lat="33.8108302" lon="-118.3936496">
  <ele>-24.39</ele>
  <time>2026-09-02T22:08:59Z</time>
  <course>53.47</course>
  <speed>1.0</speed>
  <fix>3d</fix>
</trkpt>
<trkpt lat="33.8108318" lon="-118.3936467">
  <ele>-24.997</ele>
  <time>2026-09-02T22:08:59Z</time>
  <course>54.82</course>
  <speed>0.9765244492586962</speed>
  <fix>3d</fix>
</trkpt>
<trkpt lat="33.8108313" lon="-118.3936479">
  <ele>-24.39</ele>
  <time>2026-09-02T22:08:59Z</time>
  <course>53.51</course>
  <speed>1.0</speed>
  <fix>3d</fix>
</trkpt>
<trkpt lat="33.8108323" lon="-118.3936458">
  <ele>-24.997</ele>
  <time>2026-09-02T22:08:59Z</time>
  <course>54.83</course>
  <speed>0.9765244492586962</speed>
  <fix>3d</fix>
</trkpt>
<trkpt lat="33.8108313" lon="-118.3936479">
  <ele>-24.39</ele>
  <time>2026-09-02T22:08:59Z</time>
  <course>53.51</course>
  <speed>1.0</speed>
  <fix>3d</fix>
</trkpt>
<trkpt lat="33.8108328" lon="-118.3936449">
  <ele>-24.997</ele>
  <time>2026-09-02T22:08:59Z</time>
  <course>54.84</course>
  <speed>0.9765244492586962</speed>
  <fix>3d</fix>
</trkpt>
<trkpt lat="33.8108323" lon="-118.3936461">
  <ele>-24.39</ele>
  <time>2026-09-02T22:08:59Z</time>
  <course>53.51</course>
  <speed>1.0</speed>
  <fix>3d</fix>
</trkpt>
<trkpt lat="33.8108334" lon="-118.3936441">
  <ele>-24.997</ele>
  <time>2026-09-02T22:08:59Z</time>
  <course>54.84</course>
  <speed>0.9765244492586962</speed>
  <fix>3d</fix>
</trkpt>
<trkpt lat="33.8108323" lon="-118.3936461">
  <ele>-24.39</ele>
  <time>2026-09-02T22:08:59Z</time>
  <course>53.51</course>
  <speed>1.0</speed>
  <fix>3d</fix>
</trkpt>
<trkpt lat="33.8108339" lon="-118.3936432">
  <ele>-24.997</ele>
  <time>2026-09-02T22:08:59Z</time>
  <course>54.82</course>
  <speed>0.9765244492586962</speed>
  <fix>3d</fix>
</trkpt>
<trkpt lat="33.8108334" lon="-118.3936444">
  <ele>-24.39</ele>
  <time>2026-09-02T22:08:59Z</time>
  <course>53.48</course>
  <speed>1.0</speed>
  <fix>3d</fix>
</trkpt>
<trkpt lat="33.8108344" lon="-118.3936423">
  <ele>-24.997</ele>
  <time>2026-09-02T22:08:59Z</time>
  <course>54.8</course>
  <speed>0.9765244492586962</speed>
  <fix>3d</fix>
</trkpt>
<trkpt lat="33.8108334" lon="-118.3936444">
  <ele>-24.39</ele>
  <time>2026-09-02T22:08:59Z</time>
  <course>53.48</course>
  <speed>1.0</speed>
  <fix>3d</fix>
</trkpt>
<trkpt lat="33.810835" lon="-118.3936415">
  <ele>-24.996</ele>
  <time>2026-09-02T22:08:59Z</time>
  <course>54.78</course>
  <speed>0.9765244492586962</speed>
  <fix>3d</fix>
</trkpt>
<trkpt lat="33.8108345" lon="-118.3936426">
  <ele>-24.39</ele>
  <time>2026-09-02T22:08:59Z</time>
  <course>53.44</course>
  <speed>1.0</speed>
  <fix>3d</fix>
</trkpt>
<trkpt lat="33.8108355" lon="-118.3936406">
  <ele>-24.995</ele>
  <time>2026-09-02T22:08:59Z</time>
  <course>54.75</course>
  <speed>0.9765244492586962</speed>
  <fix>3d</fix>
</trkpt>
<trkpt lat="33.8108345" lon="-118.3936426">
  <ele>-24.39</ele>
  <time>2026-09-02T22:08:59Z</time>
  <course>53.44</course>
  <speed>1.0</speed>
  <fix>3d</fix>
</trkpt>
<trkpt lat="33.810836" lon="-118.3936397">
  <ele>-24.994</ele>
  <time>2026-09-02T22:08:59Z</time>
  <course>54.74</course>
  <speed>0.9765244492586962</speed>
  <fix>3d</fix>
</trkpt>
<trkpt lat="33.8108356" lon="-118.3936409">
  <ele>-24.39</ele>
  <time>2026-09-02T22:08:59Z</time>
  <course>53.41</course>
  <speed>1.0</speed>
  <fix>3d</fix>
</trkpt>
<trkpt lat="33.8108366" lon="-118.3936389">
  <ele>-24.994</ele>
  <time>2026-09-02T22:08:59Z</time>
  <course>54.72</course>
  <speed>0.9765244492586962</speed>
  <fix>3d</fix>
</trkpt>
<trkpt lat="33.8108356" lon="-118.3936409">
  <ele>-24.39</ele>
  <time>2026-09-02T22:08:59Z</time>
  <course>53.41</course>
  <speed>1.0</speed>
  <fix>3d</fix>
</trkpt>
<trkpt lat="33.8108371" lon="-118.393638">
  <ele>-24.994</ele>
  <time>2026-09-02T22:08:59Z</time>
  <course>54.72</course>
  <speed>0.9765244492586962</speed>
  <fix>3d</fix>
</trkpt>
<trkpt lat="33.8108366" lon="-118.3936392">
  <ele>-24.39</ele>
  <time>2026-09-02T22:08:59Z</time>
  <course>53.42</course>
  <speed>1.0</speed>
  <fix>3d</fix>
</trkpt>
<trkpt lat="33.8108376" lon="-118.3936371">
  <ele>-24.995</ele>
  <time>2026-09-02T22:08:59Z</time>
  <course>54.73</course>
  <speed>0.9765244492586962</speed>
  <fix>3d</fix>
</trkpt>
<trkpt lat="33.8108366" lon="-118.3936392">
  <ele>-24.39</ele>
  <time>2026-09-02T22:08:59Z</time>
  <course>53.42</course>
  <speed>1.0</speed>
  <fix>3d</fix>
</trkpt>
<trkpt lat="33.8108382" lon="-118.3936363">
  <ele>-24.995</ele>
  <time>2026-09-02T22:08:59Z</time>
  <course>54.74</course>
  <speed>0.9765244492586962</speed>
  <fix>3d</fix>
</trkpt>
<trkpt lat="33.8108377" lon="-118.3936374">
  <ele>-24.39</ele>
  <time>2026-09-02T22:08:59Z</time>
  <course>53.44</course>
  <speed>1.0</speed>
  <fix>3d</fix>
</trkpt>
<trkpt lat="33.8108387" lon="-118.3936354">
  <ele>-24.995</ele>
  <time>2026-09-02T22:08:59Z</time>
  <course>54.74</course>
  <speed>0.9765244492586962</speed>
  <fix>3d</fix>
</trkpt>
<trkpt lat="33.8108377" lon="-118.3936374">
  <ele>-24.39</ele>
  <time>2026-09-02T22:08:59Z</time>
  <course>53.44</course>
  <speed>1.0</speed>
  <fix>3d</fix>
</trkpt>
<trkpt lat="33.8108392" lon="-118.3936345">
  <ele>-24.995</ele>
  <time>2026-09-02T22:08:59Z</time>
  <course>54.74</course>
  <speed>0.9822932352408826</speed>
  <fix>3d</fix>
</trkpt>
<trkpt lat="33.8108388" lon="-118.3936357">
  <ele>-24.39</ele>
  <time>2026-09-02T22:08:59Z</time>
  <course>53.43</course>
  <speed>1.0</speed>
  <fix>3d</fix>
</trkpt>
<trkpt lat="33.8108398" lon="-118.3936336">
  <ele>-24.996</ele>
  <time>2026-09-02T22:08:59Z</time>
  <course>54.74</course>
  <speed>0.9765244492586962</speed>
  <fix>3d</fix>
</trkpt>
<trkpt lat="33.8108388" lon="-118.3936357">
  <ele>-24.39</ele>
  <time>2026-09-02T22:08:59Z</time>
  <course>53.43</course>
  <speed>1.0</speed>
  <fix>3d</fix>
</trkpt>
<trkpt lat="33.8108403" lon="-118.3936328">
  <ele>-24.996</ele>
  <time>2026-09-02T22:08:59Z</time>
  <course>54.75</course>
  <speed>0.9765244492586962</speed>
  <fix>3d</fix>
</trkpt>
<trkpt lat="33.8108399" lon="-118.393634">
  <ele>-24.39</ele>
  <time>2026-09-02T22:08:59Z</time>
  <course>53.45</course>
  <speed>1.0</speed>
  <fix>3d</fix>
</trkpt>
<trkpt lat="33.8108408" lon="-118.3936319">
  <ele>-24.995</ele>
  <time>2026-09-02T22:08:59Z</time>
  <course>54.77</course>
  <speed>0.9765244492586962</speed>
  <fix>3d</fix>
</trkpt>
<trkpt lat="33.8108399" lon="-118.393634">
  <ele>-24.39</ele>
  <time>2026-09-02T22:08:59Z</time>
  <course>53.45</course>
  <speed>1.0</speed>
  <fix>3d</fix>
</trkpt>
<trkpt lat="33.8108414" lon="-118.393631">
  <ele>-24.994</ele>
  <time>2026-09-02T22:08:59Z</time>
  <course>54.8</course>
  <speed>0.9765244492586962</speed>
  <fix>3d</fix>
</trkpt>
<trkpt lat="33.8108409" lon="-118.3936321">
  <ele>-24.39</ele>
  <time>2026-09-02T22:08:59Z</time>
  <course>53.51</course>
  <speed>1.0</speed>
  <fix>3d</fix>
</trkpt>
<trkpt lat="33.8108419" lon="-118.3936302">
  <ele>-24.994</ele>
  <time>2026-09-02T22:08:59Z</time>
  <course>54.83</course>
  <speed>0.9765244492586962</speed>
  <fix>3d</fix>
</trkpt>
<trkpt lat="33.8108409" lon="-118.3936321">
  <ele>-24.39</ele>
  <time>2026-09-02T22:08:59Z</time>
  <course>53.51</course>
  <speed>1.0</speed>
  <fix>3d</fix>
</trkpt>
<trkpt lat="33.8108425" lon="-118.3936293">
  <ele>-24.994</ele>
  <time>2026-09-02T22:08:59Z</time>
  <course>54.83</course>
  <speed>0.9765244492586962</speed>
  <fix>3d</fix>
</trkpt>
<trkpt lat="33.810842" lon="-118.3936304">
  <ele>-24.39</ele>
  <time>2026-09-02T22:08:59Z</time>
  <course>53.53</course>
  <speed>1.0</speed>
  <fix>3d</fix>
</trkpt>
<trkpt lat="33.810843" lon="-118.3936284">
  <ele>-24.994</ele>
  <time>2026-09-02T22:08:59Z</time>
  <course>54.81</course>
  <speed>0.9765244492586962</speed>
  <fix>3d</fix>
</trkpt>
<trkpt lat="33.810842" lon="-118.3936304">
  <ele>-24.39</ele>
  <time>2026-09-02T22:08:59Z</time>
  <course>53.53</course>
  <speed>1.0</speed>
  <fix>3d</fix>
</trkpt>
<trkpt lat="33.8108435" lon="-118.3936276">
  <ele>-24.994</ele>
  <time>2026-09-02T22:08:59Z</time>
  <course>54.79</course>
  <speed>0.9765244492586962</speed>
  <fix>3d</fix>
</trkpt>
<trkpt lat="33.8108431" lon="-118.3936287">
  <ele>-24.38</ele>
  <time>2026-09-02T22:08:59Z</time>
  <course>53.47</course>
  <speed>1.0</speed>
  <fix>3d</fix>
</trkpt>
<trkpt lat="33.8108441" lon="-118.3936267">
  <ele>-24.994</ele>
  <time>2026-09-02T22:08:59Z</time>
  <course>54.77</course>
  <speed>0.9765244492586962</speed>
  <fix>3d</fix>
</trkpt>
<trkpt lat="33.8108431" lon="-118.3936287">
  <ele>-24.38</ele>
  <time>2026-09-02T22:08:59Z</time>
  <course>53.47</course>
  <speed>1.0</speed>
  <fix>3d</fix>
</trkpt>
<trkpt lat="33.8108446" lon="-118.3936258">
  <ele>-24.994</ele>
  <time>2026-09-02T22:08:59Z</time>
  <course>54.77</course>
  <speed>0.9765244492586962</speed>
  <fix>3d</fix>
</trkpt>
<trkpt lat="33.8108442" lon="-118.3936269">
  <ele>-24.38</ele>
  <time>2026-09-02T22:08:59Z</time>
  <course>53.44</course>
  <speed>1.0</speed>
  <fix>3d</fix>
</trkpt>
<trkpt lat="33.8108451" lon="-118.3936249">
  <ele>-24.994</ele>
  <time>2026-09-02T22:08:59Z</time>
  <course>54.77</course>
  <speed>0.9765244492586962</speed>
  <fix>3d</fix>
</trkpt>
<trkpt lat="33.8108442" lon="-118.3936269">
  <ele>-24.38</ele>
  <time>2026-09-02T22:08:59Z</time>
  <course>53.44</course>
  <speed>1.0</speed>
  <fix>3d</fix>
</trkpt>
<trkpt lat="33.8108457" lon="-118.3936241">
  <ele>-24.994</ele>
  <time>2026-09-02T22:08:59Z</time>
  <course>54.79</course>
  <speed>0.9765244492586962</speed>
  <fix>3d</fix>
</trkpt>
<trkpt lat="33.8108452" lon="-118.3936252">
  <ele>-24.38</ele>
  <time>2026-09-02T22:08:59Z</time>
  <course>53.47</course>
  <speed>1.0</speed>
  <fix>3d</fix>
</trkpt>
<trkpt lat="33.8108462" lon="-118.3936232">
  <ele>-24.995</ele>
  <time>2026-09-02T22:08:59Z</time>
  <course>54.8</course>
  <speed>0.9765244492586962</speed>
  <fix>3d</fix>
</trkpt>
<trkpt lat="33.8108452" lon="-118.3936252">
  <ele>-24.38</ele>
  <time>2026-09-02T22:08:59Z</time>
  <course>53.47</course>
  <speed>1.0</speed>
  <fix>3d</fix>
</trkpt>
<trkpt lat="33.8108467" lon="-118.3936223">
  <ele>-24.995</ele>
  <time>2026-09-02T22:08:59Z</time>
  <course>54.81</course>
  <speed>0.9765244492586962</speed>
  <fix>3d</fix>
</trkpt>
<trkpt lat="33.8108463" lon="-118.3936234">
  <ele>-24.38</ele>
  <time>2026-09-02T22:08:59Z</time>
  <course>53.48</course>
  <speed>1.0</speed>
  <fix>3d</fix>
</trkpt>
<trkpt lat="33.8108473" lon="-118.3936214">
  <ele>-24.994</ele>
  <time>2026-09-02T22:08:59Z</time>
  <course>54.8</course>
  <speed>0.9765244492586962</speed>
  <fix>3d</fix>
</trkpt>
<trkpt lat="33.8108463" lon="-118.3936234">
  <ele>-24.38</ele>
  <time>2026-09-02T22:08:59Z</time>
  <course>53.48</course>
  <speed>1.0</speed>
  <fix>3d</fix>
</trkpt>
<trkpt lat="33.8108478" lon="-118.3936206">
  <ele>-24.993</ele>
  <time>2026-09-02T22:08:59Z</time>
  <course>54.79</course>
  <speed>0.9765244492586962</speed>
  <fix>3d</fix>
</trkpt>
<trkpt lat="33.8108474" lon="-118.3936217">
  <ele>-24.38</ele>
  <time>2026-09-02T22:08:59Z</time>
  <course>53.45</course>
  <speed>1.0</speed>
  <fix>3d</fix>
</trkpt>
<trkpt lat="33.8108483" lon="-118.3936197">
  <ele>-24.993</ele>
  <time>2026-09-02T22:08:59Z</time>
  <course>54.79</course>
  <speed>0.9765244492586962</speed>
  <fix>3d</fix>
</trkpt>
<trkpt lat="33.8108474" lon="-118.3936217">
  <ele>-24.38</ele>
  <time>2026-09-02T22:08:59Z</time>
  <course>53.45</course>
  <speed>1.0</speed>
  <fix>3d</fix>
</trkpt>
<trkpt lat="33.8108489" lon="-118.3936188">
  <ele>-24.992</ele>
  <time>2026-09-02T22:08:59Z</time>
  <course>54.79</course>
  <speed>0.9765244492586962</speed>
  <fix>3d</fix>
</trkpt>
<trkpt lat="33.8108485" lon="-118.3936199">
  <ele>-24.38</ele>
  <time>2026-09-02T22:08:59Z</time>
  <course>53.43</course>
  <speed>1.0</speed>
  <fix>3d</fix>
</trkpt>
<trkpt lat="33.8108494" lon="-118.393618">
  <ele>-24.992</ele>
  <time>2026-09-02T22:08:59Z</time>
  <course>54.79</course>
  <speed>0.9765244492586962</speed>
  <fix>3d</fix>
</trkpt>
<trkpt lat="33.8108485" lon="-118.3936199">
  <ele>-24.38</ele>
  <time>2026-09-02T22:08:59Z</time>
  <course>53.43</course>
  <speed>1.0</speed>
  <fix>3d</fix>
</trkpt>
<trkpt lat="33.81085" lon="-118.3936171">
  <ele>-24.991</ele>
  <time>2026-09-02T22:08:59Z</time>
  <course>54.81</course>
  <speed>0.9765244492586962</speed>
  <fix>3d</fix>
</trkpt>
<trkpt lat="33.8108496" lon="-118.3936182">
  <ele>-24.38</ele>
  <time>2026-09-02T22:08:59Z</time>
  <course>53.46</course>
  <speed>1.0</speed>
  <fix>3d</fix>
</trkpt>
<trkpt lat="33.8108505" lon="-118.3936162">
  <ele>-24.992</ele>
  <time>2026-09-02T22:08:59Z</time>
  <course>54.82</course>
  <speed>0.9765244492586962</speed>
  <fix>3d</fix>
</trkpt>
<trkpt lat="33.8108496" lon="-118.3936182">
  <ele>-24.38</ele>
  <time>2026-09-02T22:08:59Z</time>
  <course>53.46</course>
  <speed>1.0</speed>
  <fix>3d</fix>
</trkpt>
<trkpt lat="33.810851" lon="-118.3936153">
  <ele>-24.991</ele>
  <time>2026-09-02T22:08:59Z</time>
  <course>54.85</course>
  <speed>0.9765244492586962</speed>
  <fix>3d</fix>
</trkpt>
<trkpt lat="33.8108506" lon="-118.3936165">
  <ele>-24.38</ele>
  <time>2026-09-02T22:08:59Z</time>
  <course>53.52</course>
  <speed>1.0</speed>
  <fix>3d</fix>
</trkpt>
<trkpt lat="33.8108516" lon="-118.3936145">
  <ele>-24.991</ele>
  <time>2026-09-02T22:08:59Z</time>
  <course>54.88</course>
  <speed>0.9765244492586962</speed>
  <fix>3d</fix>
</trkpt>
<trkpt lat="33.8108506" lon="-118.3936165">
  <ele>-24.38</ele>
  <time>2026-09-02T22:08:59Z</time>
  <course>53.52</course>
  <speed>1.0</speed>
  <fix>3d</fix>
</trkpt>
<trkpt lat="33.8108521" lon="-118.3936136">
  <ele>-24.99</ele>
  <time>2026-09-02T22:08:59Z</time>
  <course>54.91</course>
  <speed>0.9765244492586962</speed>
  <fix>3d</fix>
</trkpt>
<trkpt lat="33.8108517" lon="-118.3936147">
  <ele>-24.38</ele>
  <time>2026-09-02T22:08:59Z</time>
  <course>53.56</course>
  <speed>1.0</speed>
  <fix>3d</fix>
</trkpt>
<trkpt lat="33.8108526" lon="-118.3936127">
  <ele>-24.989</ele>
  <time>2026-09-02T22:08:59Z</time>
  <course>54.92</course>
  <speed>0.9765244492586962</speed>
  <fix>3d</fix>
</trkpt>
<trkpt lat="33.8108517" lon="-118.3936147">
  <ele>-24.38</ele>
  <time>2026-09-02T22:08:59Z</time>
  <course>53.56</course>
  <speed>1.0</speed>
  <fix>3d</fix>
</trkpt>
<trkpt lat="33.8108532" lon="-118.3936119">
  <ele>-24.988</ele>
  <time>2026-09-02T22:08:59Z</time>
  <course>54.93</course>
  <speed>0.9765244492586962</speed>
  <fix>3d</fix>
</trkpt>
<trkpt lat="33.8108528" lon="-118.3936129">
  <ele>-24.38</ele>
  <time>2026-09-02T22:08:59Z</time>
  <course>53.58</course>
  <speed>1.0</speed>
  <fix>3d</fix>
</trkpt>
<trkpt lat="33.8108537" lon="-118.393611">
  <ele>-24.988</ele>
  <time>2026-09-02T22:08:59Z</time>
  <course>54.92</course>
  <speed>0.9765244492586962</speed>
  <fix>3d</fix>
</trkpt>
<trkpt lat="33.8108528" lon="-118.3936129">
  <ele>-24.38</ele>
  <time>2026-09-02T22:08:59Z</time>
  <course>53.58</course>
  <speed>1.0</speed>
  <fix>3d</fix>
</trkpt>
<trkpt lat="33.8108542" lon="-118.3936101">
  <ele>-24.989</ele>
  <time>2026-09-02T22:08:59Z</time>
  <course>54.92</course>
  <speed>0.9765244492586962</speed>
  <fix>3d</fix>
</trkpt>
<trkpt lat="33.8108539" lon="-118.3936112">
  <ele>-24.38</ele>
  <time>2026-09-02T22:08:59Z</time>
  <course>53.56</course>
  <speed>1.0</speed>
  <fix>3d</fix>
</trkpt>
<trkpt lat="33.8108548" lon="-118.3936093">
  <ele>-24.992</ele>
  <time>2026-09-02T22:08:59Z</time>
  <course>54.93</course>
  <speed>0.9765244492586962</speed>
  <fix>3d</fix>
</trkpt>
<trkpt lat="33.8108539" lon="-118.3936112">
  <ele>-24.38</ele>
  <time>2026-09-02T22:08:59Z</time>
  <course>53.56</course>
  <speed>1.0</speed>
  <fix>3d</fix>
</trkpt>
<trkpt lat="33.8108553" lon="-118.3936084">
  <ele>-24.995</ele>
  <time>2026-09-02T22:08:59Z</time>
  <course>54.94</course>
  <speed>0.9765244492586962</speed>
  <fix>3d</fix>
</trkpt>
<trkpt lat="33.8108549" lon="-118.3936095">
  <ele>-24.39</ele>
  <time>2026-09-02T22:08:59Z</time>
  <course>53.56</course>
  <speed>1.0</speed>
  <fix>3d</fix>
</trkpt>
<trkpt lat="33.8108559" lon="-118.3936075">
  <ele>-24.997</ele>
  <time>2026-09-02T22:08:59Z</time>
  <course>54.95</course>
  <speed>0.9765244492586962</speed>
  <fix>3d</fix>
</trkpt>
<trkpt lat="33.8108549" lon="-118.3936095">
  <ele>-24.39</ele>
  <time>2026-09-02T22:08:59Z</time>
  <course>53.56</course>
  <speed>1.0</speed>
  <fix>3d</fix>
</trkpt>
<trkpt lat="33.8108564" lon="-118.3936066">
  <ele>-24.998</ele>
  <time>2026-09-02T22:08:59Z</time>
  <course>54.96</course>
  <speed>0.9765244492586962</speed>
  <fix>3d</fix>
</trkpt>
<trkpt lat="33.810856" lon="-118.3936077">
  <ele>-24.39</ele>
  <time>2026-09-02T22:08:59Z</time>
  <course>53.57</course>
  <speed>1.0</speed>
  <fix>3d</fix>
</trkpt>
<trkpt lat="33.8108569" lon="-118.3936058">
  <ele>-24.998</ele>
  <time>2026-09-02T22:08:59Z</time>
  <course>54.97</course>
  <speed>0.9765244492586962</speed>
  <fix>3d</fix>
</trkpt>
<trkpt lat="33.810856" lon="-118.3936077">
  <ele>-24.39</ele>
  <time>2026-09-02T22:08:59Z</time>
  <course>53.57</course>
  <speed>1.0</speed>
  <fix>3d</fix>
</trkpt>
<trkpt lat="33.8108575" lon="-118.3936049">
  <ele>-24.997</ele>
  <time>2026-09-02T22:08:59Z</time>
  <course>54.97</course>
  <speed>0.9765244492586962</speed>
  <fix>3d</fix>
</trkpt>
<trkpt lat="33.8108571" lon="-118.393606">
  <ele>-24.39</ele>
  <time>2026-09-02T22:08:59Z</time>
  <course>53.58</course>
  <speed>1.0</speed>
  <fix>3d</fix>
</trkpt>
<trkpt lat="33.810858" lon="-118.393604">
  <ele>-24.995</ele>
  <time>2026-09-02T22:08:59Z</time>
  <course>54.96</course>
  <speed>0.9765244492586962</speed>
  <fix>3d</fix>
</trkpt>
<trkpt lat="33.8108571" lon="-118.393606">
  <ele>-24.39</ele>
  <time>2026-09-02T22:08:59Z</time>
  <course>53.58</course>
  <speed>1.0</speed>
  <fix>3d</fix>
</trkpt>
<trkpt lat="33.8108585" lon="-118.3936031">
  <ele>-24.993</ele>
  <time>2026-09-02T22:08:59Z</time>
  <course>54.97</course>
  <speed>0.9765244492586962</speed>
  <fix>3d</fix>
</trkpt>
<trkpt lat="33.8108581" lon="-118.3936042">
  <ele>-24.39</ele>
  <time>2026-09-02T22:08:59Z</time>
  <course>53.59</course>
  <speed>1.0</speed>
  <fix>3d</fix>
</trkpt>
<trkpt lat="33.8108591" lon="-118.3936023">
  <ele>-24.992</ele>
  <time>2026-09-02T22:08:59Z</time>
  <course>54.98</course>
  <speed>0.9765244492586962</speed>
  <fix>3d</fix>
</trkpt>
<trkpt lat="33.8108581" lon="-118.3936042">
  <ele>-24.39</ele>
  <time>2026-09-02T22:08:59Z</time>
  <course>53.59</course>
  <speed>1.0</speed>
  <fix>3d</fix>
</trkpt>
<trkpt lat="33.8108596" lon="-118.3936014">
  <ele>-24.992</ele>
  <time>2026-09-02T22:08:59Z</time>
  <course>54.97</course>
  <speed>0.9765244492586962</speed>
  <fix>3d</fix>
</trkpt>
<trkpt lat="33.8108592" lon="-118.3936025">
  <ele>-24.39</ele>
  <time>2026-09-02T22:08:59Z</time>
  <course>53.6</course>
  <speed>0.99</speed>
  <fix>3d</fix>
</trkpt>
<trkpt lat="33.8108601" lon="-118.3936005">
  <ele>-24.993</ele>
  <time>2026-09-02T22:08:59Z</time>
  <course>54.95</course>
  <speed>0.9765244492586962</speed>
  <fix>3d</fix>
</trkpt>
<trkpt lat="33.8108592" lon="-118.3936025">
  <ele>-24.39</ele>
  <time>2026-09-02T22:08:59Z</time>
  <course>53.6</course>
  <speed>0.99</speed>
  <fix>3d</fix>
</trkpt>
<trkpt lat="33.8108607" lon="-118.3935997">
  <ele>-24.994</ele>
  <time>2026-09-02T22:08:59Z</time>
  <course>54.94</course>
  <speed>0.9765244492586962</speed>
  <fix>3d</fix>
</trkpt>
<trkpt lat="33.8108603" lon="-118.3936008">
  <ele>-24.39</ele>
  <time>2026-09-02T22:08:59Z</time>
  <course>53.59</course>
  <speed>0.99</speed>
  <fix>3d</fix>
</trkpt>
<trkpt lat="33.8108612" lon="-118.3935988">
  <ele>-24.995</ele>
  <time>2026-09-02T22:08:59Z</time>
  <course>54.92</course>
  <speed>0.9765244492586962</speed>
  <fix>3d</fix>
</trkpt>
<trkpt lat="33.8108603" lon="-118.3936008">
  <ele>-24.39</ele>
  <time>2026-09-02T22:08:59Z</time>
  <course>53.59</course>
  <speed>0.99</speed>
  <fix>3d</fix>
</trkpt>
<trkpt lat="33.8108617" lon="-118.3935979">
  <ele>-24.995</ele>
  <time>2026-09-02T22:08:59Z</time>
  <course>54.92</course>
  <speed>0.9765244492586962</speed>
  <fix>3d</fix>
</trkpt>
<trkpt lat="33.8108613" lon="-118.393599">
  <ele>-24.39</ele>
  <time>2026-09-02T22:08:59Z</time>
  <course>53.6</course>
  <speed>0.99</speed>
  <fix>3d</fix>
</trkpt>
<trkpt lat="33.8108623" lon="-118.3935971">
  <ele>-24.994</ele>
  <time>2026-09-02T22:08:59Z</time>
  <course>54.93</course>
  <speed>0.9765244492586962</speed>
  <fix>3d</fix>
</trkpt>
<trkpt lat="33.8108613" lon="-118.393599">
  <ele>-24.39</ele>
  <time>2026-09-02T22:08:59Z</time>
  <course>53.6</course>
  <speed>0.99</speed>
  <fix>3d</fix>
</trkpt>
<trkpt lat="33.8108628" lon="-118.3935962">
  <ele>-24.994</ele>
  <time>2026-09-02T22:08:59Z</time>
  <course>54.92</course>
  <speed>0.9765244492586962</speed>
  <fix>3d</fix>
</trkpt>
<trkpt lat="33.8108624" lon="-118.3935973">
  <ele>-24.39</ele>
  <time>2026-09-02T22:08:59Z</time>
  <course>53.6</course>
  <speed>0.99</speed>
  <fix>3d</fix>
</trkpt>
<trkpt lat="33.8108633" lon="-118.3935953">
  <ele>-24.994</ele>
  <time>2026-09-02T22:08:59Z</time>
  <course>54.91</course>
  <speed>0.9765244492586962</speed>
  <fix>3d</fix>
</trkpt>
<trkpt lat="33.8108624" lon="-118.3935973">
  <ele>-24.39</ele>
  <time>2026-09-02T22:08:59Z</time>
  <course>53.6</course>
  <speed>0.99</speed>
  <fix>3d</fix>
</trkpt>
<trkpt lat="33.8108639" lon="-118.3935944">
  <ele>-24.993</ele>
  <time>2026-09-02T22:08:59Z</time>
  <course>54.89</course>
  <speed>0.9765244492586962</speed>
  <fix>3d</fix>
</trkpt>
<trkpt lat="33.8108634" lon="-118.3935955">
  <ele>-24.39</ele>
  <time>2026-09-02T22:08:59Z</time>
  <course>53.58</course>
  <speed>0.99</speed>
  <fix>3d</fix>
</trkpt>
<trkpt lat="33.8108644" lon="-118.3935936">
  <ele>-24.993</ele>
  <time>2026-09-02T22:08:59Z</time>
  <course>54.87</course>
  <speed>0.9683491106000975</speed>
  <fix>3d</fix>
</trkpt>
<trkpt lat="33.8108634" lon="-118.3935955">
  <ele>-24.39</ele>
  <time>2026-09-02T22:08:59Z</time>
  <course>53.58</course>
  <speed>0.99</speed>
  <fix>3d</fix>
</trkpt>
<trkpt lat="33.8108649" lon="-118.3935927">
  <ele>-24.992</ele>
  <time>2026-09-02T22:08:59Z</time>
  <course>54.84</course>
  <speed>0.9683491106000975</speed>
  <fix>3d</fix>
</trkpt>
<trkpt lat="33.8108645" lon="-118.3935938">
  <ele>-24.39</ele>
  <time>2026-09-02T22:08:59Z</time>
  <course>53.53</course>
  <speed>0.99</speed>
  <fix>3d</fix>
</trkpt>
<trkpt lat="33.8108655" lon="-118.3935918">
  <ele>-24.991</ele>
  <time>2026-09-02T22:08:59Z</time>
  <course>54.8</course>
  <speed>0.9765244492586962</speed>
  <fix>3d</fix>
</trkpt>
<trkpt lat="33.8108645" lon="-118.3935938">
  <ele>-24.39</ele>
  <time>2026-09-02T22:08:59Z</time>
  <course>53.53</course>
  <speed>0.99</speed>
  <fix>3d</fix>
</trkpt>
<trkpt lat="33.810866" lon="-118.393591">
  <ele>-24.991</ele>
  <time>2026-09-02T22:08:59Z</time>
  <course>54.77</course>
  <speed>0.9765244492586962</speed>
  <fix>3d</fix>
</trkpt>
<trkpt lat="33.8108656" lon="-118.3935921">
  <ele>-24.39</ele>
  <time>2026-09-02T22:08:59Z</time>
  <course>53.47</course>
  <speed>0.99</speed>
  <fix>3d</fix>
</trkpt>
<trkpt lat="33.8108665" lon="-118.3935901">
  <ele>-24.991</ele>
  <time>2026-09-02T22:08:59Z</time>
  <course>54.74</course>
  <speed>0.9765244492586962</speed>
  <fix>3d</fix>
</trkpt>
<trkpt lat="33.8108656" lon="-118.3935921">
  <ele>-24.39</ele>
  <time>2026-09-02T22:08:59Z</time>
  <course>53.47</course>
  <speed>0.99</speed>
  <fix>3d</fix>
</trkpt>
<trkpt lat="33.8108671" lon="-118.3935892">
  <ele>-24.992</ele>
  <time>2026-09-02T22:08:59Z</time>
  <course>54.73</course>
  <speed>0.9765244492586962</speed>
  <fix>3d</fix>
</trkpt>
<trkpt lat="33.8108667" lon="-118.3935903">
  <ele>-24.39</ele>
  <time>2026-09-02T22:08:59Z</time>
  <course>53.46</course>
  <speed>0.99</speed>
  <fix>3d</fix>
</trkpt>
<trkpt lat="33.8108676" lon="-118.3935883">
  <ele>-24.995</ele>
  <time>2026-09-02T22:08:59Z</time>
  <course>54.74</course>
  <speed>0.9765244492586962</speed>
  <fix>3d</fix>
</trkpt>
<trkpt lat="33.8108667" lon="-118.3935903">
  <ele>-24.39</ele>
  <time>2026-09-02T22:08:59Z</time>
  <course>53.46</course>
  <speed>0.99</speed>
  <fix>3d</fix>
</trkpt>
<trkpt lat="33.8108682" lon="-118.3935875">
  <ele>-24.997</ele>
  <time>2026-09-02T22:08:59Z</time>
  <course>54.75</course>
  <speed>0.9765244492586962</speed>
  <fix>3d</fix>
</trkpt>
<trkpt lat="33.8108677" lon="-118.3935886">
  <ele>-24.39</ele>
  <time>2026-09-02T22:08:59Z</time>
  <course>53.49</course>
  <speed>0.99</speed>
  <fix>3d</fix>
</trkpt>
<trkpt lat="33.8108687" lon="-118.3935866">
  <ele>-24.998</ele>
  <time>2026-09-02T22:08:59Z</time>
  <course>54.77</course>
  <speed>0.9765244492586962</speed>
  <fix>3d</fix>
</trkpt>
<trkpt lat="33.8108677" lon="-118.3935886">
  <ele>-24.39</ele>
  <time>2026-09-02T22:08:59Z</time>
  <course>53.49</course>
  <speed>0.99</speed>
  <fix>3d</fix>
</trkpt>
<trkpt lat="33.8108692" lon="-118.3935857">
  <ele>-24.998</ele>
  <time>2026-09-02T22:08:59Z</time>
  <course>54.77</course>
  <speed>0.9765244492586962</speed>
  <fix>3d</fix>
</trkpt>
<trkpt lat="33.8108688" lon="-118.3935869">
  <ele>-24.39</ele>
  <time>2026-09-02T22:08:59Z</time>
  <course>53.51</course>
  <speed>0.99</speed>
  <fix>3d</fix>
</trkpt>
<trkpt lat="33.8108698" lon="-118.3935849">
  <ele>-24.997</ele>
  <time>2026-09-02T22:08:59Z</time>
  <course>54.77</course>
  <speed>0.9765244492586962</speed>
  <fix>3d</fix>
</trkpt>
<trkpt lat="33.8108688" lon="-118.3935869">
  <ele>-24.39</ele>
  <time>2026-09-02T22:08:59Z</time>
  <course>53.51</course>
  <speed>0.99</speed>
  <fix>3d</fix>
</trkpt>
<trkpt lat="33.8108703" lon="-118.393584">
  <ele>-24.995</ele>
  <time>2026-09-02T22:08:59Z</time>
  <course>54.77</course>
  <speed>0.9765244492586962</speed>
  <fix>3d</fix>
</trkpt>
<trkpt lat="33.8108699" lon="-118.3935851">
  <ele>-24.38</ele>
  <time>2026-09-02T22:08:59Z</time>
  <course>53.51</course>
  <speed>0.99</speed>
  <fix>3d</fix>
</trkpt>
<trkpt lat="33.8108708" lon="-118.3935831">
  <ele>-24.992</ele>
  <time>2026-09-02T22:08:59Z</time>
  <course>54.79</course>
  <speed>0.9765244492586962</speed>
  <fix>3d</fix>
</trkpt>
<trkpt lat="33.8108699" lon="-118.3935851">
  <ele>-24.38</ele>
  <time>2026-09-02T22:08:59Z</time>
  <course>53.51</course>
  <speed>0.99</speed>
  <fix>3d</fix>
</trkpt>
<trkpt lat="33.8108714" lon="-118.3935823">
  <ele>-24.989</ele>
  <time>2026-09-02T22:08:59Z</time>
  <course>54.8</course>
  <speed>0.9765244492586962</speed>
  <fix>3d</fix>
</trkpt>
<trkpt lat="33.8108709" lon="-118.3935834">
  <ele>-24.38</ele>
  <time>2026-09-02T22:08:59Z</time>
  <course>53.53</course>
  <speed>0.99</speed>
  <fix>3d</fix>
</trkpt>
<trkpt lat="33.8108719" lon="-118.3935814">
  <ele>-24.987</ele>
  <time>2026-09-02T22:08:59Z</time>
  <course>54.81</course>
  <speed>0.9765244492586962</speed>
  <fix>3d</fix>
</trkpt>
<trkpt lat="33.8108709" lon="-118.3935834">
  <ele>-24.38</ele>
  <time>2026-09-02T22:08:59Z</time>
  <course>53.53</course>
  <speed>0.99</speed>
  <fix>3d</fix>
</trkpt>
<trkpt lat="33.8108724" lon="-118.3935805">
  <ele>-24.987</ele>
  <time>2026-09-02T22:08:59Z</time>
  <course>54.81</course>
  <speed>0.9765244492586962</speed>
  <fix>3d</fix>
</trkpt>
<trkpt lat="33.810872" lon="-118.3935817">
  <ele>-24.38</ele>
  <time>2026-09-02T22:08:59Z</time>
  <course>53.52</course>
  <speed>0.99</speed>
  <fix>3d</fix>
</trkpt>
<trkpt lat="33.810873" lon="-118.3935796">
  <ele>-24.987</ele>
  <time>2026-09-02T22:08:59Z</time>
  <course>54.81</course>
  <speed>0.9765244492586962</speed>
  <fix>3d</fix>
</trkpt>
<trkpt lat="33.810872" lon="-118.3935817">
  <ele>-24.38</ele>
  <time>2026-09-02T22:08:59Z</time>
  <course>53.52</course>
  <speed>0.99</speed>
  <fix>3d</fix>
</trkpt>
<trkpt lat="33.8108735" lon="-118.3935788">
  <ele>-24.988</ele>
  <time>2026-09-02T22:08:59Z</time>
  <course>54.81</course>
  <speed>0.9765244492586962</speed>
  <fix>3d</fix>
</trkpt>
<trkpt lat="33.810873" lon="-118.3935799">
  <ele>-24.38</ele>
  <time>2026-09-02T22:08:59Z</time>
  <course>53.51</course>
  <speed>0.99</speed>
  <fix>3d</fix>
</trkpt>
<trkpt lat="33.810874" lon="-118.3935779">
  <ele>-24.988</ele>
  <time>2026-09-02T22:08:59Z</time>
  <course>54.81</course>
  <speed>0.9765244492586962</speed>
  <fix>3d</fix>
</trkpt>
<trkpt lat="33.810873" lon="-118.3935799">
  <ele>-24.38</ele>
  <time>2026-09-02T22:08:59Z</time>
  <course>53.51</course>
  <speed>0.99</speed>
  <fix>3d</fix>
</trkpt>
<trkpt lat="33.8108746" lon="-118.393577">
  <ele>-24.988</ele>
  <time>2026-09-02T22:08:59Z</time>
  <course>54.81</course>
  <speed>0.9765244492586962</speed>
  <fix>3d</fix>
</trkpt>
<trkpt lat="33.8108741" lon="-118.3935782">
  <ele>-24.38</ele>
  <time>2026-09-02T22:08:59Z</time>
  <course>53.5</course>
  <speed>1.0</speed>
  <fix>3d</fix>
</trkpt>
<trkpt lat="33.8108751" lon="-118.3935762">
  <ele>-24.989</ele>
  <time>2026-09-02T22:08:59Z</time>
  <course>54.79</course>
  <speed>0.9765244492586962</speed>
  <fix>3d</fix>
</trkpt>
<trkpt lat="33.8108741" lon="-118.3935782">
  <ele>-24.38</ele>
  <time>2026-09-02T22:08:59Z</time>
  <course>53.5</course>
  <speed>1.0</speed>
  <fix>3d</fix>
</trkpt>
<trkpt lat="33.8108756" lon="-118.3935753">
  <ele>-24.991</ele>
  <time>2026-09-02T22:09:00Z</time>
  <course>54.77</course>
  <speed>0.9765244492586962</speed>
  <fix>3d</fix>
</trkpt>
<trkpt lat="33.8108752" lon="-118.3935764">
  <ele>-24.39</ele>
  <time>2026-09-02T22:09:00Z</time>
  <course>53.46</course>
  <speed>1.0</speed>
  <fix>3d</fix>
</trkpt>
<trkpt lat="33.8108762" lon="-118.3935744">
  <ele>-24.992</ele>
  <time>2026-09-02T22:09:00Z</time>
  <course>54.75</course>
  <speed>0.9765244492586962</speed>
  <fix>3d</fix>
</trkpt>
<trkpt lat="33.8108752" lon="-118.3935764">
  <ele>-24.39</ele>
  <time>2026-09-02T22:09:00Z</time>
  <course>53.46</course>
  <speed>1.0</speed>
  <fix>3d</fix>
</trkpt>
<trkpt lat="33.8108767" lon="-118.3935736">
  <ele>-24.992</ele>
  <time>2026-09-02T22:09:00Z</time>
  <course>54.74</course>
  <speed>0.9765244492586962</speed>
  <fix>3d</fix>
</trkpt>
<trkpt lat="33.8108763" lon="-118.3935747">
  <ele>-24.39</ele>
  <time>2026-09-02T22:09:00Z</time>
  <course>53.41</course>
  <speed>1.0</speed>
  <fix>3d</fix>
</trkpt>
<trkpt lat="33.8108772" lon="-118.3935727">
  <ele>-24.992</ele>
  <time>2026-09-02T22:09:00Z</time>
  <course>54.74</course>
  <speed>0.9765244492586962</speed>
  <fix>3d</fix>
</trkpt>
<trkpt lat="33.8108763" lon="-118.3935747">
  <ele>-24.39</ele>
  <time>2026-09-02T22:09:00Z</time>
  <course>53.41</course>
  <speed>1.0</speed>
  <fix>3d</fix>
</trkpt>
<trkpt lat="33.8108778" lon="-118.3935718">
  <ele>-24.993</ele>
  <time>2026-09-02T22:09:00Z</time>
  <course>54.75</course>
  <speed>0.9765244492586962</speed>
  <fix>3d</fix>
</trkpt>
<trkpt lat="33.8108773" lon="-118.393573">
  <ele>-24.39</ele>
  <time>2026-09-02T22:09:00Z</time>
  <course>53.43</course>
  <speed>1.0</speed>
  <fix>3d</fix>
</trkpt>
<trkpt lat="33.8108783" lon="-118.393571">
  <ele>-24.995</ele>
  <time>2026-09-02T22:09:00Z</time>
  <course>54.77</course>
  <speed>0.9765244492586962</speed>
  <fix>3d</fix>
</trkpt>
<trkpt lat="33.8108773" lon="-118.393573">
  <ele>-24.39</ele>
  <time>2026-09-02T22:09:00Z</time>
  <course>53.43</course>
  <speed>1.0</speed>
  <fix>3d</fix>
</trkpt>
<trkpt lat="33.8108788" lon="-118.3935701">
  <ele>-24.997</ele>
  <time>2026-09-02T22:09:00Z</time>
  <course>54.78</course>
  <speed>0.9765244492586962</speed>
  <fix>3d</fix>
</trkpt>
<trkpt lat="33.8108784" lon="-118.3935712">
  <ele>-24.39</ele>
  <time>2026-09-02T22:09:00Z</time>
  <course>53.46</course>
  <speed>1.0</speed>
  <fix>3d</fix>
</trkpt>
<trkpt lat="33.8108794" lon="-118.3935692">
  <ele>-24.998</ele>
  <time>2026-09-02T22:09:00Z</time>
  <course>54.79</course>
  <speed>0.9765244492586962</speed>
  <fix>3d</fix>
</trkpt>
<trkpt lat="33.8108784" lon="-118.3935712">
  <ele>-24.39</ele>
  <time>2026-09-02T22:09:00Z</time>
  <course>53.46</course>
  <speed>1.0</speed>
  <fix>3d</fix>
</trkpt>
<trkpt lat="33.8108799" lon="-118.3935683">
  <ele>-24.999</ele>
  <time>2026-09-02T22:09:00Z</time>
  <course>54.79</course>
  <speed>0.9765244492586962</speed>
  <fix>3d</fix>
</trkpt>
<trkpt lat="33.8108795" lon="-118.3935695">
  <ele>-24.39</ele>
  <time>2026-09-02T22:09:00Z</time>
  <course>53.45</course>
  <speed>1.0</speed>
  <fix>3d</fix>
</trkpt>
<trkpt lat="33.8108805" lon="-118.3935675">
  <ele>-24.999</ele>
  <time>2026-09-02T22:09:00Z</time>
  <course>54.79</course>
  <speed>0.9765244492586962</speed>
  <fix>3d</fix>
</trkpt>
<trkpt lat="33.8108795" lon="-118.3935695">
  <ele>-24.39</ele>
  <time>2026-09-02T22:09:00Z</time>
  <course>53.45</course>
  <speed>1.0</speed>
  <fix>3d</fix>
</trkpt>
<trkpt lat="33.810881" lon="-118.3935666">
  <ele>-24.999</ele>
  <time>2026-09-02T22:09:00Z</time>
  <course>54.81</course>
  <speed>0.9765244492586962</speed>
  <fix>3d</fix>
</trkpt>
<trkpt lat="33.8108806" lon="-118.3935677">
  <ele>-24.39</ele>
  <time>2026-09-02T22:09:00Z</time>
  <course>53.46</course>
  <speed>1.0</speed>
  <fix>3d</fix>
</trkpt>
<trkpt lat="33.8108815" lon="-118.3935657">
  <ele>-24.998</ele>
  <time>2026-09-02T22:09:00Z</time>
  <course>54.82</course>
  <speed>0.9765244492586962</speed>
  <fix>3d</fix>
</trkpt>
<trkpt lat="33.8108806" lon="-118.3935677">
  <ele>-24.39</ele>
  <time>2026-09-02T22:09:00Z</time>
  <course>53.46</course>
  <speed>1.0</speed>
  <fix>3d</fix>
</trkpt>
<trkpt lat="33.8108821" lon="-118.3935649">
  <ele>-24.996</ele>
  <time>2026-09-02T22:09:00Z</time>
  <course>54.84</course>
  <speed>0.9765244492586962</speed>
  <fix>3d</fix>
</trkpt>
<trkpt lat="33.8108816" lon="-118.393566">
  <ele>-24.39</ele>
  <time>2026-09-02T22:09:00Z</time>
  <course>53.5</course>
  <speed>0.99</speed>
  <fix>3d</fix>
</trkpt>
<trkpt lat="33.8108826" lon="-118.393564">
  <ele>-24.994</ele>
  <time>2026-09-02T22:09:00Z</time>
  <course>54.86</course>
  <speed>0.9765244492586962</speed>
  <fix>3d</fix>
</trkpt>
<trkpt lat="33.8108816" lon="-118.393566">
  <ele>-24.39</ele>
  <time>2026-09-02T22:09:00Z</time>
  <course>53.5</course>
  <speed>0.99</speed>
  <fix>3d</fix>
</trkpt>
<trkpt lat="33.8108831" lon="-118.3935631">
  <ele>-24.992</ele>
  <time>2026-09-02T22:09:00Z</time>
  <course>54.86</course>
  <speed>0.9765244492586962</speed>
  <fix>3d</fix>
</trkpt>
<trkpt lat="33.8108827" lon="-118.3935643">
  <ele>-24.38</ele>
  <time>2026-09-02T22:09:00Z</time>
  <course>53.53</course>
  <speed>0.99</speed>
  <fix>3d</fix>
</trkpt>
<trkpt lat="33.8108837" lon="-118.3935622">
  <ele>-24.991</ele>
  <time>2026-09-02T22:09:00Z</time>
  <course>54.85</course>
  <speed>0.9765244492586962</speed>
  <fix>3d</fix>
</trkpt>
<trkpt lat="33.8108827" lon="-118.3935643">
  <ele>-24.38</ele>
  <time>2026-09-02T22:09:00Z</time>
  <course>53.53</course>
  <speed>0.99</speed>
  <fix>3d</fix>
</trkpt>
<trkpt lat="33.8108842" lon="-118.3935614">
  <ele>-24.99</ele>
  <time>2026-09-02T22:09:00Z</time>
  <course>54.86</course>
  <speed>0.9765244492586962</speed>
  <fix>3d</fix>
</trkpt>
<trkpt lat="33.8108838" lon="-118.3935625">
  <ele>-24.38</ele>
  <time>2026-09-02T22:09:00Z</time>
  <course>53.52</course>
  <speed>0.99</speed>
  <fix>3d</fix>
</trkpt>
<trkpt lat="33.8108847" lon="-118.3935605">
  <ele>-24.989</ele>
  <time>2026-09-02T22:09:00Z</time>
  <course>54.86</course>
  <speed>0.9765244492586962</speed>
  <fix>3d</fix>
</trkpt>
<trkpt lat="33.8108838" lon="-118.3935625">
  <ele>-24.38</ele>
  <time>2026-09-02T22:09:00Z</time>
  <course>53.52</course>
  <speed>0.99</speed>
  <fix>3d</fix>
</trkpt>
<trkpt lat="33.8108853" lon="-118.3935596">
  <ele>-24.988</ele>
  <time>2026-09-02T22:09:00Z</time>
  <course>54.88</course>
  <speed>0.9765244492586962</speed>
  <fix>3d</fix>
</trkpt>
<trkpt lat="33.8108848" lon="-118.3935608">
  <ele>-24.38</ele>
  <time>2026-09-02T22:09:00Z</time>
  <course>53.53</course>
  <speed>0.99</speed>
  <fix>3d</fix>
</trkpt>
<trkpt lat="33.8108858" lon="-118.3935588">
  <ele>-24.988</ele>
  <time>2026-09-02T22:09:00Z</time>
  <course>54.88</course>
  <speed>0.9765244492586962</speed>
  <fix>3d</fix>
</trkpt>
<trkpt lat="33.8108848" lon="-118.3935608">
  <ele>-24.38</ele>
  <time>2026-09-02T22:09:00Z</time>
  <course>53.53</course>
  <speed>0.99</speed>
  <fix>3d</fix>
</trkpt>
<trkpt lat="33.8108863" lon="-118.3935579">
  <ele>-24.988</ele>
  <time>2026-09-02T22:09:00Z</time>
  <course>54.88</course>
  <speed>0.9765244492586962</speed>
  <fix>3d</fix>
</trkpt>
<trkpt lat="33.8108859" lon="-118.3935591">
  <ele>-24.38</ele>
  <time>2026-09-02T22:09:00Z</time>
  <course>53.54</course>
  <speed>0.99</speed>
  <fix>3d</fix>
</trkpt>
<trkpt lat="33.8108869" lon="-118.393557">
  <ele>-24.988</ele>
  <time>2026-09-02T22:09:00Z</time>
  <course>54.87</course>
  <speed>0.9765244492586962</speed>
  <fix>3d</fix>
</trkpt>
<trkpt lat="33.8108859" lon="-118.3935591">
  <ele>-24.38</ele>
  <time>2026-09-02T22:09:00Z</time>
  <course>53.54</course>
  <speed>0.99</speed>
  <fix>3d</fix>
</trkpt>
<trkpt lat="33.8108874" lon="-118.3935562">
  <ele>-24.988</ele>
  <time>2026-09-02T22:09:00Z</time>
  <course>54.88</course>
  <speed>0.9765244492586962</speed>
  <fix>3d</fix>
</trkpt>
<trkpt lat="33.8108869" lon="-118.3935573">
  <ele>-24.38</ele>
  <time>2026-09-02T22:09:00Z</time>
  <course>53.54</course>
  <speed>0.99</speed>
  <fix>3d</fix>
</trkpt>
<trkpt lat="33.8108879" lon="-118.3935553">
  <ele>-24.987</ele>
  <time>2026-09-02T22:09:00Z</time>
  <course>54.87</course>
  <speed>0.9765244492586962</speed>
  <fix>3d</fix>
</trkpt>
<trkpt lat="33.8108869" lon="-118.3935573">
  <ele>-24.38</ele>
  <time>2026-09-02T22:09:00Z</time>
  <course>53.54</course>
  <speed>0.99</speed>
  <fix>3d</fix>
</trkpt>
<trkpt lat="33.8108885" lon="-118.3935544">
  <ele>-24.988</ele>
  <time>2026-09-02T22:09:00Z</time>
  <course>54.85</course>
  <speed>0.9765244492586962</speed>
  <fix>3d</fix>
</trkpt>
<trkpt lat="33.810888" lon="-118.3935555">
  <ele>-24.38</ele>
  <time>2026-09-02T22:09:00Z</time>
  <course>53.51</course>
  <speed>0.99</speed>
  <fix>3d</fix>
</trkpt>
<trkpt lat="33.810889" lon="-118.3935535">
  <ele>-24.989</ele>
  <time>2026-09-02T22:09:00Z</time>
  <course>54.82</course>
  <speed>0.9765244492586962</speed>
  <fix>3d</fix>
</trkpt>
<trkpt lat="33.810888" lon="-118.3935555">
  <ele>-24.38</ele>
  <time>2026-09-02T22:09:00Z</time>
  <course>53.51</course>
  <speed>0.99</speed>
  <fix>3d</fix>
</trkpt>
<trkpt lat="33.8108895" lon="-118.3935527">
  <ele>-24.99</ele>
  <time>2026-09-02T22:09:00Z</time>
  <course>54.78</course>
  <speed>0.9765244492586962</speed>
  <fix>3d</fix>
</trkpt>
<trkpt lat="33.8108891" lon="-118.3935538">
  <ele>-24.39</ele>
  <time>2026-09-02T22:09:00Z</time>
  <course>53.44</course>
  <speed>0.99</speed>
  <fix>3d</fix>
</trkpt>
<trkpt lat="33.8108901" lon="-118.3935518">
  <ele>-24.991</ele>
  <time>2026-09-02T22:09:00Z</time>
  <course>54.75</course>
  <speed>0.9765244492586962</speed>
  <fix>3d</fix>
</trkpt>
<trkpt lat="33.8108891" lon="-118.3935538">
  <ele>-24.39</ele>
  <time>2026-09-02T22:09:00Z</time>
  <course>53.44</course>
  <speed>0.99</speed>
  <fix>3d</fix>
</trkpt>
<trkpt lat="33.8108906" lon="-118.3935509">
  <ele>-24.991</ele>
  <time>2026-09-02T22:09:00Z</time>
  <course>54.73</course>
  <speed>0.9765244492586962</speed>
  <fix>3d</fix>
</trkpt>
<trkpt lat="33.8108902" lon="-118.3935521">
  <ele>-24.39</ele>
  <time>2026-09-02T22:09:00Z</time>
  <course>53.4</course>
  <speed>0.99</speed>
  <fix>3d</fix>
</trkpt>
<trkpt lat="33.8108912" lon="-118.3935501">
  <ele>-24.993</ele>
  <time>2026-09-02T22:09:00Z</time>
  <course>54.71</course>
  <speed>0.9765244492586962</speed>
  <fix>3d</fix>
</trkpt>
<trkpt lat="33.8108902" lon="-118.3935521">
  <ele>-24.39</ele>
  <time>2026-09-02T22:09:00Z</time>
  <course>53.4</course>
  <speed>0.99</speed>
  <fix>3d</fix>
</trkpt>
<trkpt lat="33.8108917" lon="-118.3935492">
  <ele>-24.994</ele>
  <time>2026-09-02T22:09:00Z</time>
  <course>54.73</course>
  <speed>0.9765244492586962</speed>
  <fix>3d</fix>
</trkpt>
<trkpt lat="33.8108912" lon="-118.3935504">
  <ele>-24.39</ele>
  <time>2026-09-02T22:09:00Z</time>
  <course>53.42</course>
  <speed>0.99</speed>
  <fix>3d</fix>
</trkpt>
<trkpt lat="33.8108922" lon="-118.3935483">
  <ele>-24.995</ele>
  <time>2026-09-02T22:09:00Z</time>
  <course>54.74</course>
  <speed>0.9765244492586962</speed>
  <fix>3d</fix>
</trkpt>
<trkpt lat="33.8108912" lon="-118.3935504">
  <ele>-24.39</ele>
  <time>2026-09-02T22:09:00Z</time>
  <course>53.42</course>
  <speed>0.99</speed>
  <fix>3d</fix>
</trkpt>
<trkpt lat="33.8108928" lon="-118.3935474">
  <ele>-24.996</ele>
  <time>2026-09-02T22:09:00Z</time>
  <course>54.76</course>
  <speed>0.9765244492586962</speed>
  <fix>3d</fix>
</trkpt>
<trkpt lat="33.8108923" lon="-118.3935486">
  <ele>-24.4</ele>
  <time>2026-09-02T22:09:00Z</time>
  <course>53.44</course>
  <speed>0.99</speed>
  <fix>3d</fix>
</trkpt>
<trkpt lat="33.8108933" lon="-118.3935466">
  <ele>-24.997</ele>
  <time>2026-09-02T22:09:00Z</time>
  <course>54.77</course>
  <speed>0.9765244492586962</speed>
  <fix>3d</fix>
</trkpt>
<trkpt lat="33.8108923" lon="-118.3935486">
  <ele>-24.4</ele>
  <time>2026-09-02T22:09:00Z</time>
  <course>53.44</course>
  <speed>0.99</speed>
  <fix>3d</fix>
</trkpt>
<trkpt lat="33.8108938" lon="-118.3935457">
  <ele>-24.997</ele>
  <time>2026-09-02T22:09:00Z</time>
  <course>54.78</course>
  <speed>0.9765244492586962</speed>
  <fix>3d</fix>
</trkpt>
<trkpt lat="33.8108934" lon="-118.3935469">
  <ele>-24.4</ele>
  <time>2026-09-02T22:09:00Z</time>
  <course>53.44</course>
  <speed>0.99</speed>
  <fix>3d</fix>
</trkpt>
<trkpt lat="33.8108944" lon="-118.3935448">
  <ele>-24.998</ele>
  <time>2026-09-02T22:09:00Z</time>
  <course>54.79</course>
  <speed>0.9765244492586962</speed>
  <fix>3d</fix>
</trkpt>
<trkpt lat="33.8108934" lon="-118.3935469">
  <ele>-24.4</ele>
  <time>2026-09-02T22:09:00Z</time>
  <course>53.44</course>
  <speed>0.99</speed>
  <fix>3d</fix>
</trkpt>
<trkpt lat="33.8108949" lon="-118.393544">
  <ele>-24.998</ele>
  <time>2026-09-02T22:09:00Z</time>
  <course>54.81</course>
  <speed>0.9765244492586962</speed>
  <fix>3d</fix>
</trkpt>
<trkpt lat="33.8108944" lon="-118.3935452">
  <ele>-24.39</ele>
  <time>2026-09-02T22:09:00Z</time>
  <course>53.45</course>
  <speed>1.0</speed>
  <fix>3d</fix>
</trkpt>
<trkpt lat="33.8108954" lon="-118.3935431">
  <ele>-24.997</ele>
  <time>2026-09-02T22:09:00Z</time>
  <course>54.83</course>
  <speed>0.9765244492586962</speed>
  <fix>3d</fix>
</trkpt>
<trkpt lat="33.8108944" lon="-118.3935452">
  <ele>-24.39</ele>
  <time>2026-09-02T22:09:00Z</time>
  <course>53.45</course>
  <speed>1.0</speed>
  <fix>3d</fix>
</trkpt>
<trkpt lat="33.810896" lon="-118.3935422">
  <ele>-24.996</ele>
  <time>2026-09-02T22:09:00Z</time>
  <course>54.84</course>
  <speed>0.9765244492586962</speed>
  <fix>3d</fix>
</trkpt>
<trkpt lat="33.8108955" lon="-118.3935434">
  <ele>-24.39</ele>
  <time>2026-09-02T22:09:00Z</time>
  <course>53.47</course>
  <speed>1.0</speed>
  <fix>3d</fix>
</trkpt>
<trkpt lat="33.8108965" lon="-118.3935414">
  <ele>-24.993</ele>
  <time>2026-09-02T22:09:00Z</time>
  <course>54.84</course>
  <speed>0.9765244492586962</speed>
  <fix>3d</fix>
</trkpt>
<trkpt lat="33.8108955" lon="-118.3935434">
  <ele>-24.39</ele>
  <time>2026-09-02T22:09:00Z</time>
  <course>53.47</course>
  <speed>1.0</speed>
  <fix>3d</fix>
</trkpt>
<trkpt lat="33.810897" lon="-118.3935405">
  <ele>-24.991</ele>
  <time>2026-09-02T22:09:00Z</time>
  <course>54.85</course>
  <speed>0.9765244492586962</speed>
  <fix>3d</fix>
</trkpt>
<trkpt lat="33.8108966" lon="-118.3935417">
  <ele>-24.38</ele>
  <time>2026-09-02T22:09:00Z</time>
  <course>53.48</course>
  <speed>1.0</speed>
  <fix>3d</fix>
</trkpt>
<trkpt lat="33.8108976" lon="-118.3935396">
  <ele>-24.988</ele>
  <time>2026-09-02T22:09:00Z</time>
  <course>54.85</course>
  <speed>0.9765244492586962</speed>
  <fix>3d</fix>
</trkpt>
<trkpt lat="33.8108966" lon="-118.3935417">
  <ele>-24.38</ele>
  <time>2026-09-02T22:09:00Z</time>
  <course>53.48</course>
  <speed>1.0</speed>
  <fix>3d</fix>
</trkpt>
<trkpt lat="33.8108981" lon="-118.3935388">
  <ele>-24.987</ele>
  <time>2026-09-02T22:09:00Z</time>
  <course>54.86</course>
  <speed>0.9765244492586962</speed>
  <fix>3d</fix>
</trkpt>
<trkpt lat="33.8108977" lon="-118.39354">
  <ele>-24.38</ele>
  <time>2026-09-02T22:09:00Z</time>
  <course>53.5</course>
  <speed>1.0</speed>
  <fix>3d</fix>
</trkpt>
<trkpt lat="33.8108986" lon="-118.3935379">
  <ele>-24.986</ele>
  <time>2026-09-02T22:09:00Z</time>
  <course>54.89</course>
  <speed>0.9765244492586962</speed>
  <fix>3d</fix>
</trkpt>
<trkpt lat="33.8108977" lon="-118.39354">
  <ele>-24.38</ele>
  <time>2026-09-02T22:09:00Z</time>
  <course>53.5</course>
  <speed>1.0</speed>
  <fix>3d</fix>
</trkpt>
<trkpt lat="33.8108992" lon="-118.393537">
  <ele>-24.986</ele>
  <time>2026-09-02T22:09:00Z</time>
  <course>54.92</course>
  <speed>0.9765244492586962</speed>
  <fix>3d</fix>
</trkpt>
<trkpt lat="33.8108987" lon="-118.3935382">
  <ele>-24.38</ele>
  <time>2026-09-02T22:09:00Z</time>
  <course>53.55</course>
  <speed>1.0</speed>
  <fix>3d</fix>
</trkpt>
<trkpt lat="33.8108997" lon="-118.3935362">
  <ele>-24.986</ele>
  <time>2026-09-02T22:09:00Z</time>
  <course>54.95</course>
  <speed>0.9765244492586962</speed>
  <fix>3d</fix>
</trkpt>
<trkpt lat="33.8108987" lon="-118.3935382">
  <ele>-24.38</ele>
  <time>2026-09-02T22:09:00Z</time>
  <course>53.55</course>
  <speed>1.0</speed>
  <fix>3d</fix>
</trkpt>
<trkpt lat="33.8109002" lon="-118.3935353">
  <ele>-24.987</ele>
  <time>2026-09-02T22:09:00Z</time>
  <course>54.96</course>
  <speed>0.9765244492586962</speed>
  <fix>3d</fix>
</trkpt>
<trkpt lat="33.8108998" lon="-118.3935365">
  <ele>-24.38</ele>
  <time>2026-09-02T22:09:00Z</time>
  <course>53.59</course>
  <speed>1.0</speed>
  <fix>3d</fix>
</trkpt>
<trkpt lat="33.8109008" lon="-118.3935344">
  <ele>-24.988</ele>
  <time>2026-09-02T22:09:00Z</time>
  <course>54.97</course>
  <speed>0.9765244492586962</speed>
  <fix>3d</fix>
</trkpt>
<trkpt lat="33.8108998" lon="-118.3935365">
  <ele>-24.38</ele>
  <time>2026-09-02T22:09:00Z</time>
  <course>53.59</course>
  <speed>1.0</speed>
  <fix>3d</fix>
</trkpt>
<trkpt lat="33.8109013" lon="-118.3935335">
  <ele>-24.99</ele>
  <time>2026-09-02T22:09:00Z</time>
  <course>54.97</course>
  <speed>0.9765244492586962</speed>
  <fix>3d</fix>
</trkpt>
<trkpt lat="33.8109009" lon="-118.3935347">
  <ele>-24.39</ele>
  <time>2026-09-02T22:09:00Z</time>
  <course>53.59</course>
  <speed>1.0</speed>
  <fix>3d</fix>
</trkpt>
<trkpt lat="33.8109019" lon="-118.3935327">
  <ele>-24.992</ele>
  <time>2026-09-02T22:09:00Z</time>
  <course>54.98</course>
  <speed>0.9765244492586962</speed>
  <fix>3d</fix>
</trkpt>
<trkpt lat="33.8109009" lon="-118.3935347">
  <ele>-24.39</ele>
  <time>2026-09-02T22:09:00Z</time>
  <course>53.59</course>
  <speed>1.0</speed>
  <fix>3d</fix>
</trkpt>
<trkpt lat="33.8109024" lon="-118.3935318">
  <ele>-24.994</ele>
  <time>2026-09-02T22:09:00Z</time>
  <course>54.99</course>
  <speed>0.9765244492586962</speed>
  <fix>3d</fix>
</trkpt>
<trkpt lat="33.8109019" lon="-118.393533">
  <ele>-24.39</ele>
  <time>2026-09-02T22:09:00Z</time>
  <course>53.6</course>
  <speed>1.0</speed>
  <fix>3d</fix>
</trkpt>
<trkpt lat="33.8109029" lon="-118.3935309">
  <ele>-24.995</ele>
  <time>2026-09-02T22:09:00Z</time>
  <course>54.99</course>
  <speed>0.9765244492586962</speed>
  <fix>3d</fix>
</trkpt>
<trkpt lat="33.8109019" lon="-118.393533">
  <ele>-24.39</ele>
  <time>2026-09-02T22:09:00Z</time>
  <course>53.6</course>
  <speed>1.0</speed>
  <fix>3d</fix>
</trkpt>
<trkpt lat="33.8109035" lon="-118.3935301">
  <ele>-24.996</ele>
  <time>2026-09-02T22:09:00Z</time>
  <course>54.98</course>
  <speed>0.9765244492586962</speed>
  <fix>3d</fix>
</trkpt>
<trkpt lat="33.810903" lon="-118.3935312">
  <ele>-24.39</ele>
  <time>2026-09-02T22:09:00Z</time>
  <course>53.58</course>
  <speed>1.0</speed>
  <fix>3d</fix>
</trkpt>
<trkpt lat="33.810904" lon="-118.3935292">
  <ele>-24.996</ele>
  <time>2026-09-02T22:09:00Z</time>
  <course>54.96</course>
  <speed>0.9765244492586962</speed>
  <fix>3d</fix>
</trkpt>
<trkpt lat="33.810903" lon="-118.3935312">
  <ele>-24.39</ele>
  <time>2026-09-02T22:09:00Z</time>
  <course>53.58</course>
  <speed>1.0</speed>
  <fix>3d</fix>
</trkpt>
<trkpt lat="33.8109045" lon="-118.3935283">
  <ele>-24.996</ele>
  <time>2026-09-02T22:09:00Z</time>
  <course>54.95</course>
  <speed>0.9765244492586962</speed>
  <fix>3d</fix>
</trkpt>
<trkpt lat="33.8109041" lon="-118.3935295">
  <ele>-24.39</ele>
  <time>2026-09-02T22:09:00Z</time>
  <course>53.54</course>
  <speed>1.0</speed>
  <fix>3d</fix>
</trkpt>
<trkpt lat="33.8109051" lon="-118.3935274">
  <ele>-24.994</ele>
  <time>2026-09-02T22:09:00Z</time>
  <course>54.93</course>
  <speed>0.9765244492586962</speed>
  <fix>3d</fix>
</trkpt>
<trkpt lat="33.8109041" lon="-118.3935295">
  <ele>-24.39</ele>
  <time>2026-09-02T22:09:00Z</time>
  <course>53.54</course>
  <speed>1.0</speed>
  <fix>3d</fix>
</trkpt>
<trkpt lat="33.8109056" lon="-118.3935266">
  <ele>-24.993</ele>
  <time>2026-09-02T22:09:00Z</time>
  <course>54.93</course>
  <speed>0.9765244492586962</speed>
  <fix>3d</fix>
</trkpt>
<trkpt lat="33.8109051" lon="-118.3935277">
  <ele>-24.39</ele>
  <time>2026-09-02T22:09:00Z</time>
  <course>53.52</course>
  <speed>1.0</speed>
  <fix>3d</fix>
</trkpt>
<trkpt lat="33.8109061" lon="-118.3935257">
  <ele>-24.991</ele>
  <time>2026-09-02T22:09:00Z</time>
  <course>54.92</course>
  <speed>0.9765244492586962</speed>
  <fix>3d</fix>
</trkpt>
<trkpt lat="33.8109051" lon="-118.3935277">
  <ele>-24.39</ele>
  <time>2026-09-02T22:09:00Z</time>
  <course>53.52</course>
  <speed>1.0</speed>
  <fix>3d</fix>
</trkpt>
<trkpt lat="33.8109067" lon="-118.3935248">
  <ele>-24.989</ele>
  <time>2026-09-02T22:09:00Z</time>
  <course>54.91</course>
  <speed>0.9765244492586962</speed>
  <fix>3d</fix>
</trkpt>
<trkpt lat="33.8109062" lon="-118.393526">
  <ele>-24.39</ele>
  <time>2026-09-02T22:09:00Z</time>
  <course>53.5</course>
  <speed>1.0</speed>
  <fix>3d</fix>
</trkpt>
<trkpt lat="33.8109072" lon="-118.3935239">
  <ele>-24.988</ele>
  <time>2026-09-02T22:09:00Z</time>
  <course>54.89</course>
  <speed>0.9765244492586962</speed>
  <fix>3d</fix>
</trkpt>
<trkpt lat="33.8109062" lon="-118.393526">
  <ele>-24.39</ele>
  <time>2026-09-02T22:09:00Z</time>
  <course>53.5</course>
  <speed>1.0</speed>
  <fix>3d</fix>
</trkpt>
<trkpt lat="33.8109077" lon="-118.3935231">
  <ele>-24.987</ele>
  <time>2026-09-02T22:09:00Z</time>
  <course>54.87</course>
  <speed>0.9765244492586962</speed>
  <fix>3d</fix>
</trkpt>
<trkpt lat="33.8109072" lon="-118.3935243">
  <ele>-24.39</ele>
  <time>2026-09-02T22:09:00Z</time>
  <course>53.47</course>
  <speed>1.0</speed>
  <fix>3d</fix>
</trkpt>
<trkpt lat="33.8109083" lon="-118.3935222">
  <ele>-24.987</ele>
  <time>2026-09-02T22:09:00Z</time>
  <course>54.86</course>
  <speed>0.9765244492586962</speed>
  <fix>3d</fix>
</trkpt>
<trkpt lat="33.8109072" lon="-118.3935243">
  <ele>-24.39</ele>
  <time>2026-09-02T22:09:00Z</time>
  <course>53.47</course>
  <speed>1.0</speed>
  <fix>3d</fix>
</trkpt>
<trkpt lat="33.8109088" lon="-118.3935213">
  <ele>-24.987</ele>
  <time>2026-09-02T22:09:00Z</time>
  <course>54.83</course>
  <speed>0.9765244492586962</speed>
  <fix>3d</fix>
</trkpt>
<trkpt lat="33.8109083" lon="-118.3935225">
  <ele>-24.39</ele>
  <time>2026-09-02T22:09:00Z</time>
  <course>53.45</course>
  <speed>1.0</speed>
  <fix>3d</fix>
</trkpt>
<trkpt lat="33.8109093" lon="-118.3935205">
  <ele>-24.989</ele>
  <time>2026-09-02T22:09:00Z</time>
  <course>54.8</course>
  <speed>0.9765244492586962</speed>
  <fix>3d</fix>
</trkpt>
<trkpt lat="33.8109083" lon="-118.3935225">
  <ele>-24.39</ele>
  <time>2026-09-02T22:09:00Z</time>
  <course>53.45</course>
  <speed>1.0</speed>
  <fix>3d</fix>
</trkpt>
<trkpt lat="33.8109099" lon="-118.3935196">
  <ele>-24.991</ele>
  <time>2026-09-02T22:09:00Z</time>
  <course>54.78</course>
  <speed>0.9765244492586962</speed>
  <fix>3d</fix>
</trkpt>
<trkpt lat="33.8109094" lon="-118.3935208">
  <ele>-24.39</ele>
  <time>2026-09-02T22:09:00Z</time>
  <course>53.4</course>
  <speed>1.0</speed>
  <fix>3d</fix>
</trkpt>
<trkpt lat="33.8109104" lon="-118.3935187">
  <ele>-24.993</ele>
  <time>2026-09-02T22:09:00Z</time>
  <course>54.76</course>
  <speed>0.9765244492586962</speed>
  <fix>3d</fix>
</trkpt>
<trkpt lat="33.8109094" lon="-118.3935208">
  <ele>-24.39</ele>
  <time>2026-09-02T22:09:00Z</time>
  <course>53.4</course>
  <speed>1.0</speed>
  <fix>3d</fix>
</trkpt>
<trkpt lat="33.8109109" lon="-118.3935179">
  <ele>-24.994</ele>
  <time>2026-09-02T22:09:00Z</time>
  <course>54.75</course>
  <speed>0.9765244492586962</speed>
  <fix>3d</fix>
</trkpt>
<trkpt lat="33.8109105" lon="-118.3935191">
  <ele>-24.39</ele>
  <time>2026-09-02T22:09:00Z</time>
  <course>53.37</course>
  <speed>1.0</speed>
  <fix>3d</fix>
</trkpt>
<trkpt lat="33.8109115" lon="-118.393517">
  <ele>-24.995</ele>
  <time>2026-09-02T22:09:00Z</time>
  <course>54.76</course>
  <speed>0.9765244492586962</speed>
  <fix>3d</fix>
</trkpt>
<trkpt lat="33.8109105" lon="-118.3935191">
  <ele>-24.39</ele>
  <time>2026-09-02T22:09:00Z</time>
  <course>53.37</course>
  <speed>1.0</speed>
  <fix>3d</fix>
</trkpt>
<trkpt lat="33.810912" lon="-118.3935161">
  <ele>-24.994</ele>
  <time>2026-09-02T22:09:00Z</time>
  <course>54.78</course>
  <speed>0.9765244492586962</speed>
  <fix>3d</fix>
</trkpt>
<trkpt lat="33.8109116" lon="-118.3935173">
  <ele>-24.39</ele>
  <time>2026-09-02T22:09:00Z</time>
  <course>53.41</course>
  <speed>1.0</speed>
  <fix>3d</fix>
</trkpt>
<trkpt lat="33.8109126" lon="-118.3935152">
  <ele>-24.993</ele>
  <time>2026-09-02T22:09:00Z</time>
  <course>54.81</course>
  <speed>0.9765244492586962</speed>
  <fix>3d</fix>
</trkpt>
<trkpt lat="33.8109116" lon="-118.3935173">
  <ele>-24.39</ele>
  <time>2026-09-02T22:09:00Z</time>
  <course>53.41</course>
  <speed>1.0</speed>
  <fix>3d</fix>
</trkpt>
<trkpt lat="33.8109131" lon="-118.3935144">
  <ele>-24.992</ele>
  <time>2026-09-02T22:09:00Z</time>
  <course>54.84</course>
  <speed>0.9765244492586962</speed>
  <fix>3d</fix>
</trkpt>
<trkpt lat="33.8109126" lon="-118.3935156">
  <ele>-24.39</ele>
  <time>2026-09-02T22:09:00Z</time>
  <course>53.48</course>
  <speed>1.0</speed>
  <fix>3d</fix>
</trkpt>
<trkpt lat="33.8109136" lon="-118.3935135">
  <ele>-24.991</ele>
  <time>2026-09-02T22:09:00Z</time>
  <course>54.86</course>
  <speed>0.9765244492586962</speed>
  <fix>3d</fix>
</trkpt>
<trkpt lat="33.8109126" lon="-118.3935156">
  <ele>-24.39</ele>
  <time>2026-09-02T22:09:00Z</time>
  <course>53.48</course>
  <speed>1.0</speed>
  <fix>3d</fix>
</trkpt>
<trkpt lat="33.8109142" lon="-118.3935126">
  <ele>-24.992</ele>
  <time>2026-09-02T22:09:00Z</time>
  <course>54.87</course>
  <speed>0.9765244492586962</speed>
  <fix>3d</fix>
</trkpt>
<trkpt lat="33.8109137" lon="-118.3935138">
  <ele>-24.39</ele>
  <time>2026-09-02T22:09:00Z</time>
  <course>53.52</course>
  <speed>1.0</speed>
  <fix>3d</fix>
</trkpt>
<trkpt lat="33.8109147" lon="-118.3935118">
  <ele>-24.993</ele>
  <time>2026-09-02T22:09:00Z</time>
  <course>54.87</course>
  <speed>0.9765244492586962</speed>
  <fix>3d</fix>
</trkpt>
<trkpt lat="33.8109137" lon="-118.3935138">
  <ele>-24.39</ele>
  <time>2026-09-02T22:09:00Z</time>
  <course>53.52</course>
  <speed>1.0</speed>
  <fix>3d</fix>
</trkpt>
<trkpt lat="33.8109152" lon="-118.3935109">
  <ele>-24.994</ele>
  <time>2026-09-02T22:09:00Z</time>
  <course>54.87</course>
  <speed>0.9765244492586962</speed>
  <fix>3d</fix>
</trkpt>
<trkpt lat="33.8109148" lon="-118.3935121">
  <ele>-24.39</ele>
  <time>2026-09-02T22:09:00Z</time>
  <course>53.52</course>
  <speed>1.0</speed>
  <fix>3d</fix>
</trkpt>
<trkpt lat="33.8109158" lon="-118.39351">
  <ele>-24.993</ele>
  <time>2026-09-02T22:09:00Z</time>
  <course>54.86</course>
  <speed>0.9765244492586962</speed>
  <fix>3d</fix>
</trkpt>
<trkpt lat="33.8109148" lon="-118.3935121">
  <ele>-24.39</ele>
  <time>2026-09-02T22:09:00Z</time>
  <course>53.52</course>
  <speed>1.0</speed>
  <fix>3d</fix>
</trkpt>
<trkpt lat="33.8109163" lon="-118.3935092">
  <ele>-24.992</ele>
  <time>2026-09-02T22:09:00Z</time>
  <course>54.88</course>
  <speed>0.9765244492586962</speed>
  <fix>3d</fix>
</trkpt>
<trkpt lat="33.8109158" lon="-118.3935104">
  <ele>-24.39</ele>
  <time>2026-09-02T22:09:00Z</time>
  <course>53.51</course>
  <speed>1.0</speed>
  <fix>3d</fix>
</trkpt>
<trkpt lat="33.8109168" lon="-118.3935083">
  <ele>-24.992</ele>
  <time>2026-09-02T22:09:00Z</time>
  <course>54.89</course>
  <speed>0.9765244492586962</speed>
  <fix>3d</fix>
</trkpt>
<trkpt lat="33.8109158" lon="-118.3935104">
  <ele>-24.39</ele>
  <time>2026-09-02T22:09:00Z</time>
  <course>53.51</course>
  <speed>1.0</speed>
  <fix>3d</fix>
</trkpt>
<trkpt lat="33.8109174" lon="-118.3935074">
  <ele>-24.991</ele>
  <time>2026-09-02T22:09:00Z</time>
  <course>54.9</course>
  <speed>0.9765244492586962</speed>
  <fix>3d</fix>
</trkpt>
<trkpt lat="33.8109169" lon="-118.3935086">
  <ele>-24.39</ele>
  <time>2026-09-02T22:09:00Z</time>
  <course>53.52</course>
  <speed>1.0</speed>
  <fix>3d</fix>
</trkpt>
<trkpt lat="33.8109179" lon="-118.3935066">
  <ele>-24.99</ele>
  <time>2026-09-02T22:09:00Z</time>
  <course>54.9</course>
  <speed>0.9765244492586962</speed>
  <fix>3d</fix>
</trkpt>
<trkpt lat="33.8109169" lon="-118.3935086">
  <ele>-24.39</ele>
  <time>2026-09-02T22:09:00Z</time>
  <course>53.52</course>
  <speed>1.0</speed>
  <fix>3d</fix>
</trkpt>
<trkpt lat="33.8109184" lon="-118.3935057">
  <ele>-24.99</ele>
  <time>2026-09-02T22:09:00Z</time>
  <course>54.9</course>
  <speed>0.9765244492586962</speed>
  <fix>3d</fix>
</trkpt>
<trkpt lat="33.810918" lon="-118.3935069">
  <ele>-24.39</ele>
  <time>2026-09-02T22:09:00Z</time>
  <course>53.53</course>
  <speed>1.0</speed>
  <fix>3d</fix>
</trkpt>
<trkpt lat="33.810919" lon="-118.3935048">
  <ele>-24.99</ele>
  <time>2026-09-02T22:09:00Z</time>
  <course>54.89</course>
  <speed>0.9765244492586962</speed>
  <fix>3d</fix>
</trkpt>
<trkpt lat="33.810918" lon="-118.3935069">
  <ele>-24.39</ele>
  <time>2026-09-02T22:09:00Z</time>
  <course>53.53</course>
  <speed>1.0</speed>
  <fix>3d</fix>
</trkpt>
<trkpt lat="33.8109195" lon="-118.393504">
  <ele>-24.991</ele>
  <time>2026-09-02T22:09:00Z</time>
  <course>54.9</course>
  <speed>0.9765244492586962</speed>
  <fix>3d</fix>
</trkpt>
<trkpt lat="33.8109191" lon="-118.3935051">
  <ele>-24.39</ele>
  <time>2026-09-02T22:09:00Z</time>
  <course>53.55</course>
  <speed>1.0</speed>
  <fix>3d</fix>
</trkpt>
<trkpt lat="33.81092" lon="-118.3935031">
  <ele>-24.992</ele>
  <time>2026-09-02T22:09:00Z</time>
  <course>54.91</course>
  <speed>0.9765244492586962</speed>
  <fix>3d</fix>
</trkpt>
<trkpt lat="33.8109191" lon="-118.3935051">
  <ele>-24.39</ele>
  <time>2026-09-02T22:09:00Z</time>
  <course>53.55</course>
  <speed>1.0</speed>
  <fix>3d</fix>
</trkpt>
<trkpt lat="33.8109206" lon="-118.3935022">
  <ele>-24.994</ele>
  <time>2026-09-02T22:09:00Z</time>
  <course>54.93</course>
  <speed>0.9765244492586962</speed>
  <fix>3d</fix>
</trkpt>
<trkpt lat="33.8109201" lon="-118.3935033">
  <ele>-24.39</ele>
  <time>2026-09-02T22:09:00Z</time>
  <course>53.58</course>
  <speed>1.0</speed>
  <fix>3d</fix>
</trkpt>
<trkpt lat="33.8109211" lon="-118.3935013">
  <ele>-24.996</ele>
  <time>2026-09-02T22:09:00Z</time>
  <course>54.93</course>
  <speed>0.9765244492586962</speed>
  <fix>3d</fix>
</trkpt>
<trkpt lat="33.8109201" lon="-118.3935033">
  <ele>-24.39</ele>
  <time>2026-09-02T22:09:00Z</time>
  <course>53.58</course>
  <speed>1.0</speed>
  <fix>3d</fix>
</trkpt>
<trkpt lat="33.8109216" lon="-118.3935005">
  <ele>-24.996</ele>
  <time>2026-09-02T22:09:00Z</time>
  <course>54.92</course>
  <speed>0.9765244492586962</speed>
  <fix>3d</fix>
</trkpt>
<trkpt lat="33.8109212" lon="-118.3935016">
  <ele>-24.39</ele>
  <time>2026-09-02T22:09:00Z</time>
  <course>53.55</course>
  <speed>1.0</speed>
  <fix>3d</fix>
</trkpt>
<trkpt lat="33.8109222" lon="-118.3934996">
  <ele>-24.996</ele>
  <time>2026-09-02T22:09:00Z</time>
  <course>54.89</course>
  <speed>0.9765244492586962</speed>
  <fix>3d</fix>
</trkpt>
<trkpt lat="33.8109212" lon="-118.3935016">
  <ele>-24.39</ele>
  <time>2026-09-02T22:09:00Z</time>
  <course>53.55</course>
  <speed>1.0</speed>
  <fix>3d</fix>
</trkpt>
<trkpt lat="33.8109227" lon="-118.3934987">
  <ele>-24.995</ele>
  <time>2026-09-02T22:09:00Z</time>
  <course>54.87</course>
  <speed>0.9765244492586962</speed>
  <fix>3d</fix>
</trkpt>
<trkpt lat="33.8109223" lon="-118.3934998">
  <ele>-24.38</ele>
  <time>2026-09-02T22:09:00Z</time>
  <course>53.5</course>
  <speed>1.0</speed>
  <fix>3d</fix>
</trkpt>
<trkpt lat="33.8109232" lon="-118.3934978">
  <ele>-24.994</ele>
  <time>2026-09-02T22:09:00Z</time>
  <course>54.86</course>
  <speed>0.9765244492586962</speed>
  <fix>3d</fix>
</trkpt>
<trkpt lat="33.8109223" lon="-118.3934998">
  <ele>-24.38</ele>
  <time>2026-09-02T22:09:00Z</time>
  <course>53.5</course>
  <speed>1.0</speed>
  <fix>3d</fix>
</trkpt>
<trkpt lat="33.8109238" lon="-118.393497">
  <ele>-24.993</ele>
  <time>2026-09-02T22:09:00Z</time>
  <course>54.85</course>
  <speed>0.9765244492586962</speed>
  <fix>3d</fix>
</trkpt>
<trkpt lat="33.8109234" lon="-118.393498">
  <ele>-24.38</ele>
  <time>2026-09-02T22:09:00Z</time>
  <course>53.47</course>
  <speed>1.0</speed>
  <fix>3d</fix>
</trkpt>
<trkpt lat="33.8109243" lon="-118.3934961">
  <ele>-24.992</ele>
  <time>2026-09-02T22:09:00Z</time>
  <course>54.84</course>
  <speed>0.9765244492586962</speed>
  <fix>3d</fix>
</trkpt>
<trkpt lat="33.8109234" lon="-118.393498">
  <ele>-24.38</ele>
  <time>2026-09-02T22:09:00Z</time>
  <course>53.47</course>
  <speed>1.0</speed>
  <fix>3d</fix>
</trkpt>
<trkpt lat="33.8109249" lon="-118.3934952">
  <ele>-24.991</ele>
  <time>2026-09-02T22:09:00Z</time>
  <course>54.83</course>
  <speed>0.9765244492586962</speed>
  <fix>3d</fix>
</trkpt>
<trkpt lat="33.8109245" lon="-118.3934963">
  <ele>-24.37</ele>
  <time>2026-09-02T22:09:00Z</time>
  <course>53.47</course>
  <speed>1.0</speed>
  <fix>3d</fix>
</trkpt>
<trkpt lat="33.8109254" lon="-118.3934943">
  <ele>-24.989</ele>
  <time>2026-09-02T22:09:00Z</time>
  <course>54.83</course>
  <speed>0.9765244492586962</speed>
  <fix>3d</fix>
</trkpt>
<trkpt lat="33.8109245" lon="-118.3934963">
  <ele>-24.37</ele>
  <time>2026-09-02T22:09:00Z</time>
  <course>53.47</course>
  <speed>1.0</speed>
  <fix>3d</fix>
</trkpt>
<trkpt lat="33.8109259" lon="-118.3934935">
  <ele>-24.988</ele>
  <time>2026-09-02T22:09:00Z</time>
  <course>54.84</course>
  <speed>0.9765244492586962</speed>
  <fix>3d</fix>
</trkpt>
<trkpt lat="33.8109255" lon="-118.3934946">
  <ele>-24.37</ele>
  <time>2026-09-02T22:09:00Z</time>
  <course>53.48</course>
  <speed>1.0</speed>
  <fix>3d</fix>
</trkpt>
<trkpt lat="33.8109265" lon="-118.3934926">
  <ele>-24.987</ele>
  <time>2026-09-02T22:09:00Z</time>
  <course>54.85</course>
  <speed>0.9765244492586962</speed>
  <fix>3d</fix>
</trkpt>
<trkpt lat="33.8109255" lon="-118.3934946">
  <ele>-24.37</ele>
  <time>2026-09-02T22:09:00Z</time>
  <course>53.48</course>
  <speed>1.0</speed>
  <fix>3d</fix>
</trkpt>
<trkpt lat="33.810927" lon="-118.3934917">
  <ele>-24.986</ele>
  <time>2026-09-02T22:09:00Z</time>
  <course>54.86</course>
  <speed>0.9765244492586962</speed>
  <fix>3d</fix>
</trkpt>
<trkpt lat="33.8109266" lon="-118.3934929">
  <ele>-24.37</ele>
  <time>2026-09-02T22:09:00Z</time>
  <course>53.49</course>
  <speed>1.0</speed>
  <fix>3d</fix>
</trkpt>
<trkpt lat="33.8109275" lon="-118.3934909">
  <ele>-24.984</ele>
  <time>2026-09-02T22:09:00Z</time>
  <course>54.87</course>
  <speed>0.9765244492586962</speed>
  <fix>3d</fix>
</trkpt>
<trkpt lat="33.8109266" lon="-118.3934929">
  <ele>-24.37</ele>
  <time>2026-09-02T22:09:00Z</time>
  <course>53.49</course>
  <speed>1.0</speed>
  <fix>3d</fix>
</trkpt>
<trkpt lat="33.8109281" lon="-118.39349">
  <ele>-24.983</ele>
  <time>2026-09-02T22:09:00Z</time>
  <course>54.88</course>
  <speed>0.9765244492586962</speed>
  <fix>3d</fix>
</trkpt>
<trkpt lat="33.8109277" lon="-118.3934911">
  <ele>-24.37</ele>
  <time>2026-09-02T22:09:00Z</time>
  <course>53.51</course>
  <speed>1.0</speed>
  <fix>3d</fix>
</trkpt>
<trkpt lat="33.8109286" lon="-118.3934891">
  <ele>-24.982</ele>
  <time>2026-09-02T22:09:00Z</time>
  <course>54.9</course>
  <speed>0.9765244492586962</speed>
  <fix>3d</fix>
</trkpt>
<trkpt lat="33.8109277" lon="-118.3934911">
  <ele>-24.37</ele>
  <time>2026-09-02T22:09:00Z</time>
  <course>53.51</course>
  <speed>1.0</speed>
  <fix>3d</fix>
</trkpt>
<trkpt lat="33.8109291" lon="-118.3934883">
  <ele>-24.983</ele>
  <time>2026-09-02T22:09:00Z</time>
  <course>54.91</course>
  <speed>0.9765244492586962</speed>
  <fix>3d</fix>
</trkpt>
<trkpt lat="33.8109287" lon="-118.3934894">
  <ele>-24.37</ele>
  <time>2026-09-02T22:09:00Z</time>
  <course>53.55</course>
  <speed>1.0</speed>
  <fix>3d</fix>
</trkpt>
<trkpt lat="33.8109297" lon="-118.3934874">
  <ele>-24.985</ele>
  <time>2026-09-02T22:09:00Z</time>
  <course>54.92</course>
  <speed>0.9765244492586962</speed>
  <fix>3d</fix>
</trkpt>
<trkpt lat="33.8109287" lon="-118.3934894">
  <ele>-24.37</ele>
  <time>2026-09-02T22:09:00Z</time>
  <course>53.55</course>
  <speed>1.0</speed>
  <fix>3d</fix>
</trkpt>
<trkpt lat="33.8109302" lon="-118.3934865">
  <ele>-24.987</ele>
  <time>2026-09-02T22:09:00Z</time>
  <course>54.93</course>
  <speed>0.9765244492586962</speed>
  <fix>3d</fix>
</trkpt>
<trkpt lat="33.8109298" lon="-118.3934876">
  <ele>-24.37</ele>
  <time>2026-09-02T22:09:00Z</time>
  <course>53.57</course>
  <speed>1.0</speed>
  <fix>3d</fix>
</trkpt>
<trkpt lat="33.8109307" lon="-118.3934856">
  <ele>-24.99</ele>
  <time>2026-09-02T22:09:00Z</time>
  <course>54.93</course>
  <speed>0.9765244492586962</speed>
  <fix>3d</fix>
</trkpt>
<trkpt lat="33.8109298" lon="-118.3934876">
  <ele>-24.37</ele>
  <time>2026-09-02T22:09:00Z</time>
  <course>53.57</course>
  <speed>1.0</speed>
  <fix>3d</fix>
</trkpt>
<trkpt lat="33.8109313" lon="-118.3934848">
  <ele>-24.991</ele>
  <time>2026-09-02T22:09:00Z</time>
  <course>54.92</course>
  <speed>0.9765244492586962</speed>
  <fix>3d</fix>
</trkpt>
<trkpt lat="33.8109309" lon="-118.3934859">
  <ele>-24.38</ele>
  <time>2026-09-02T22:09:00Z</time>
  <course>53.55</course>
  <speed>1.0</speed>
  <fix>3d</fix>
</trkpt>
<trkpt lat="33.8109318" lon="-118.3934839">
  <ele>-24.991</ele>
  <time>2026-09-02T22:09:00Z</time>
  <course>54.91</course>
  <speed>0.9765244492586962</speed>
  <fix>3d</fix>
</trkpt>
<trkpt lat="33.8109309" lon="-118.3934859">
  <ele>-24.38</ele>
  <time>2026-09-02T22:09:00Z</time>
  <course>53.55</course>
  <speed>1.0</speed>
  <fix>3d</fix>
</trkpt>
<trkpt lat="33.8109324" lon="-118.393483">
  <ele>-24.991</ele>
  <time>2026-09-02T22:09:00Z</time>
  <course>54.91</course>
  <speed>0.9765244492586962</speed>
  <fix>3d</fix>
</trkpt>
<trkpt lat="33.8109319" lon="-118.3934841">
  <ele>-24.38</ele>
  <time>2026-09-02T22:09:00Z</time>
  <course>53.54</course>
  <speed>1.0</speed>
  <fix>3d</fix>
</trkpt>
<trkpt lat="33.8109329" lon="-118.3934822">
  <ele>-24.991</ele>
  <time>2026-09-02T22:09:00Z</time>
  <course>54.91</course>
  <speed>0.9765244492586962</speed>
  <fix>3d</fix>
</trkpt>
<trkpt lat="33.8109319" lon="-118.3934841">
  <ele>-24.38</ele>
  <time>2026-09-02T22:09:00Z</time>
  <course>53.54</course>
  <speed>1.0</speed>
  <fix>3d</fix>
</trkpt>
<trkpt lat="33.8109334" lon="-118.3934813">
  <ele>-24.992</ele>
  <time>2026-09-02T22:09:00Z</time>
  <course>54.9</course>
  <speed>0.9765244492586962</speed>
  <fix>3d</fix>
</trkpt>
<trkpt lat="33.810933" lon="-118.3934824">
  <ele>-24.39</ele>
  <time>2026-09-02T22:09:00Z</time>
  <course>53.51</course>
  <speed>1.0</speed>
  <fix>3d</fix>
</trkpt>
<trkpt lat="33.810934" lon="-118.3934804">
  <ele>-24.992</ele>
  <time>2026-09-02T22:09:00Z</time>
  <course>54.87</course>
  <speed>0.9765244492586962</speed>
  <fix>3d</fix>
</trkpt>
<trkpt lat="33.810933" lon="-118.3934824">
  <ele>-24.39</ele>
  <time>2026-09-02T22:09:00Z</time>
  <course>53.51</course>
  <speed>1.0</speed>
  <fix>3d</fix>
</trkpt>
<trkpt lat="33.8109345" lon="-118.3934795">
  <ele>-24.991</ele>
  <time>2026-09-02T22:09:00Z</time>
  <course>54.86</course>
  <speed>0.9765244492586962</speed>
  <fix>3d</fix>
</trkpt>
<trkpt lat="33.8109341" lon="-118.3934807">
  <ele>-24.38</ele>
  <time>2026-09-02T22:09:00Z</time>
  <course>53.47</course>
  <speed>1.0</speed>
  <fix>3d</fix>
</trkpt>
<trkpt lat="33.810935" lon="-118.3934787">
  <ele>-24.989</ele>
  <time>2026-09-02T22:09:00Z</time>
  <course>54.85</course>
  <speed>0.9765244492586962</speed>
  <fix>3d</fix>
</trkpt>
<trkpt lat="33.8109341" lon="-118.3934807">
  <ele>-24.38</ele>
  <time>2026-09-02T22:09:00Z</time>
  <course>53.47</course>
  <speed>1.0</speed>
  <fix>3d</fix>
</trkpt>
<trkpt lat="33.8109356" lon="-118.3934778">
  <ele>-24.989</ele>
  <time>2026-09-02T22:09:00Z</time>
  <course>54.86</course>
  <speed>0.9765244492586962</speed>
  <fix>3d</fix>
</trkpt>
<trkpt lat="33.8109352" lon="-118.3934789">
  <ele>-24.38</ele>
  <time>2026-09-02T22:09:00Z</time>
  <course>53.47</course>
  <speed>1.0</speed>
  <fix>3d</fix>
</trkpt>
<trkpt lat="33.8109361" lon="-118.3934769">
  <ele>-24.988</ele>
  <time>2026-09-02T22:09:00Z</time>
  <course>54.87</course>
  <speed>0.9765244492586962</speed>
  <fix>3d</fix>
</trkpt>
<trkpt lat="33.8109352" lon="-118.3934789">
  <ele>-24.38</ele>
  <time>2026-09-02T22:09:00Z</time>
  <course>53.47</course>
  <speed>1.0</speed>
  <fix>3d</fix>
</trkpt>
<trkpt lat="33.8109366" lon="-118.3934761">
  <ele>-24.988</ele>
  <time>2026-09-02T22:09:00Z</time>
  <course>54.89</course>
  <speed>0.9765244492586962</speed>
  <fix>3d</fix>
</trkpt>
<trkpt lat="33.8109362" lon="-118.3934772">
  <ele>-24.38</ele>
  <time>2026-09-02T22:09:00Z</time>
  <course>53.51</course>
  <speed>1.0</speed>
  <fix>3d</fix>
</trkpt>
<trkpt lat="33.8109372" lon="-118.3934752">
  <ele>-24.987</ele>
  <time>2026-09-02T22:09:00Z</time>
  <course>54.9</course>
  <speed>0.9765244492586962</speed>
  <fix>3d</fix>
</trkpt>
<trkpt lat="33.8109362" lon="-118.3934772">
  <ele>-24.38</ele>
  <time>2026-09-02T22:09:00Z</time>
  <course>53.51</course>
  <speed>1.0</speed>
  <fix>3d</fix>
</trkpt>
<trkpt lat="33.8109377" lon="-118.3934743">
  <ele>-24.986</ele>
  <time>2026-09-02T22:09:00Z</time>
  <course>54.92</course>
  <speed>0.9765244492586962</speed>
  <fix>3d</fix>
</trkpt>
<trkpt lat="33.8109373" lon="-118.3934754">
  <ele>-24.38</ele>
  <time>2026-09-02T22:09:00Z</time>
  <course>53.53</course>
  <speed>0.99</speed>
  <fix>3d</fix>
</trkpt>
<trkpt lat="33.8109382" lon="-118.3934735">
  <ele>-24.986</ele>
  <time>2026-09-02T22:09:00Z</time>
  <course>54.92</course>
  <speed>0.9765244492586962</speed>
  <fix>3d</fix>
</trkpt>
<trkpt lat="33.8109373" lon="-118.3934754">
  <ele>-24.38</ele>
  <time>2026-09-02T22:09:00Z</time>
  <course>53.53</course>
  <speed>0.99</speed>
  <fix>3d</fix>
</trkpt>
<trkpt lat="33.8109388" lon="-118.3934726">
  <ele>-24.988</ele>
  <time>2026-09-02T22:09:00Z</time>
  <course>54.92</course>
  <speed>0.9765244492586962</speed>
  <fix>3d</fix>
</trkpt>
<trkpt lat="33.8109384" lon="-118.3934737">
  <ele>-24.38</ele>
  <time>2026-09-02T22:09:00Z</time>
  <course>53.52</course>
  <speed>0.99</speed>
  <fix>3d</fix>
</trkpt>
<trkpt lat="33.8109393" lon="-118.3934717">
  <ele>-24.989</ele>
  <time>2026-09-02T22:09:00Z</time>
  <course>54.9</course>
  <speed>0.9765244492586962</speed>
  <fix>3d</fix>
</trkpt>
<trkpt lat="33.8109384" lon="-118.3934737">
  <ele>-24.38</ele>
  <time>2026-09-02T22:09:00Z</time>
  <course>53.52</course>
  <speed>0.99</speed>
  <fix>3d</fix>
</trkpt>
<trkpt lat="33.8109398" lon="-118.3934708">
  <ele>-24.991</ele>
  <time>2026-09-02T22:09:00Z</time>
  <course>54.91</course>
  <speed>0.9765244492586962</speed>
  <fix>3d</fix>
</trkpt>
<trkpt lat="33.8109394" lon="-118.393472">
  <ele>-24.39</ele>
  <time>2026-09-02T22:09:00Z</time>
  <course>53.52</course>
  <speed>0.99</speed>
  <fix>3d</fix>
</trkpt>
<trkpt lat="33.8109404" lon="-118.39347">
  <ele>-24.992</ele>
  <time>2026-09-02T22:09:00Z</time>
  <course>54.91</course>
  <speed>0.9765244492586962</speed>
  <fix>3d</fix>
</trkpt>
<trkpt lat="33.8109394" lon="-118.393472">
  <ele>-24.39</ele>
  <time>2026-09-02T22:09:00Z</time>
  <course>53.52</course>
  <speed>0.99</speed>
  <fix>3d</fix>
</trkpt>
<trkpt lat="33.8109409" lon="-118.3934691">
  <ele>-24.993</ele>
  <time>2026-09-02T22:09:00Z</time>
  <course>54.92</course>
  <speed>0.9765244492586962</speed>
  <fix>3d</fix>
</trkpt>
<trkpt lat="33.8109405" lon="-118.3934702">
  <ele>-24.39</ele>
  <time>2026-09-02T22:09:00Z</time>
  <course>53.52</course>
  <speed>0.99</speed>
  <fix>3d</fix>
</trkpt>
<trkpt lat="33.8109414" lon="-118.3934682">
  <ele>-24.994</ele>
  <time>2026-09-02T22:09:00Z</time>
  <course>54.91</course>
  <speed>0.9765244492586962</speed>
  <fix>3d</fix>
</trkpt>
<trkpt lat="33.8109405" lon="-118.3934702">
  <ele>-24.39</ele>
  <time>2026-09-02T22:09:00Z</time>
  <course>53.52</course>
  <speed>0.99</speed>
  <fix>3d</fix>
</trkpt>
<trkpt lat="33.810942" lon="-118.3934674">
  <ele>-24.994</ele>
  <time>2026-09-02T22:09:00Z</time>
  <course>54.91</course>
  <speed>0.9765244492586962</speed>
  <fix>3d</fix>
</trkpt>
<trkpt lat="33.8109416" lon="-118.3934685">
  <ele>-24.39</ele>
  <time>2026-09-02T22:09:00Z</time>
  <course>53.52</course>
  <speed>0.99</speed>
  <fix>3d</fix>
</trkpt>
<trkpt lat="33.8109425" lon="-118.3934665">
  <ele>-24.993</ele>
  <time>2026-09-02T22:09:00Z</time>
  <course>54.9</course>
  <speed>0.9765244492586962</speed>
  <fix>3d</fix>
</trkpt>
<trkpt lat="33.8109416" lon="-118.3934685">
  <ele>-24.39</ele>
  <time>2026-09-02T22:09:00Z</time>
  <course>53.52</course>
  <speed>0.99</speed>
  <fix>3d</fix>
</trkpt>
<trkpt lat="33.8109431" lon="-118.3934656">
  <ele>-24.991</ele>
  <time>2026-09-02T22:09:00Z</time>
  <course>54.91</course>
  <speed>0.9765244492586962</speed>
  <fix>3d</fix>
</trkpt>
<trkpt lat="33.8109426" lon="-118.3934668">
  <ele>-24.39</ele>
  <time>2026-09-02T22:09:00Z</time>
  <course>53.52</course>
  <speed>0.99</speed>
  <fix>3d</fix>
</trkpt>
<trkpt lat="33.8109436" lon="-118.3934648">
  <ele>-24.989</ele>
  <time>2026-09-02T22:09:00Z</time>
  <course>54.92</course>
  <speed>0.9765244492586962</speed>
  <fix>3d</fix>
</trkpt>
<trkpt lat="33.8109426" lon="-118.3934668">
  <ele>-24.39</ele>
  <time>2026-09-02T22:09:00Z</time>
  <course>53.52</course>
  <speed>0.99</speed>
  <fix>3d</fix>
</trkpt>
<trkpt lat="33.8109441" lon="-118.3934639">
  <ele>-24.988</ele>
  <time>2026-09-02T22:09:00Z</time>
  <course>54.93</course>
  <speed>0.9765244492586962</speed>
  <fix>3d</fix>
</trkpt>
<trkpt lat="33.8109437" lon="-118.393465">
  <ele>-24.39</ele>
  <time>2026-09-02T22:09:00Z</time>
  <course>53.53</course>
  <speed>0.99</speed>
  <fix>3d</fix>
</trkpt>
<trkpt lat="33.8109447" lon="-118.393463">
  <ele>-24.986</ele>
  <time>2026-09-02T22:09:00Z</time>
  <course>54.93</course>
  <speed>0.9765244492586962</speed>
  <fix>3d</fix>
</trkpt>
<trkpt lat="33.8109437" lon="-118.393465">
  <ele>-24.39</ele>
  <time>2026-09-02T22:09:00Z</time>
  <course>53.53</course>
  <speed>0.99</speed>
  <fix>3d</fix>
</trkpt>
<trkpt lat="33.8109452" lon="-118.3934622">
  <ele>-24.985</ele>
  <time>2026-09-02T22:09:00Z</time>
  <course>54.93</course>
  <speed>0.9765244492586962</speed>
  <fix>3d</fix>
</trkpt>
<trkpt lat="33.8109448" lon="-118.3934633">
  <ele>-24.39</ele>
  <time>2026-09-02T22:09:00Z</time>
  <course>53.52</course>
  <speed>1.0</speed>
  <fix>3d</fix>
</trkpt>
<trkpt lat="33.8109457" lon="-118.3934613">
  <ele>-24.986</ele>
  <time>2026-09-02T22:09:00Z</time>
  <course>54.92</course>
  <speed>0.9765244492586962</speed>
  <fix>3d</fix>
</trkpt>
<trkpt lat="33.8109448" lon="-118.3934633">
  <ele>-24.39</ele>
  <time>2026-09-02T22:09:00Z</time>
  <course>53.52</course>
  <speed>1.0</speed>
  <fix>3d</fix>
</trkpt>
<trkpt lat="33.8109463" lon="-118.3934604">
  <ele>-24.988</ele>
  <time>2026-09-02T22:09:00Z</time>
  <course>54.94</course>
  <speed>0.9765244492586962</speed>
  <fix>3d</fix>
</trkpt>
<trkpt lat="33.8109458" lon="-118.3934615">
  <ele>-24.39</ele>
  <time>2026-09-02T22:09:00Z</time>
  <course>53.53</course>
  <speed>1.0</speed>
  <fix>3d</fix>
</trkpt>
<trkpt lat="33.8109468" lon="-118.3934595">
  <ele>-24.989</ele>
  <time>2026-09-02T22:09:00Z</time>
  <course>54.94</course>
  <speed>0.9765244492586962</speed>
  <fix>3d</fix>
</trkpt>
<trkpt lat="33.8109458" lon="-118.3934615">
  <ele>-24.39</ele>
  <time>2026-09-02T22:09:00Z</time>
  <course>53.53</course>
  <speed>1.0</speed>
  <fix>3d</fix>
</trkpt>
<trkpt lat="33.8109473" lon="-118.3934587">
  <ele>-24.991</ele>
  <time>2026-09-02T22:09:00Z</time>
  <course>54.93</course>
  <speed>0.9765244492586962</speed>
  <fix>3d</fix>
</trkpt>
<trkpt lat="33.8109469" lon="-118.3934598">
  <ele>-24.39</ele>
  <time>2026-09-02T22:09:00Z</time>
  <course>53.52</course>
  <speed>1.0</speed>
  <fix>3d</fix>
</trkpt>
<trkpt lat="33.8109479" lon="-118.3934578">
  <ele>-24.992</ele>
  <time>2026-09-02T22:09:00Z</time>
  <course>54.9</course>
  <speed>0.9765244492586962</speed>
  <fix>3d</fix>
</trkpt>
<trkpt lat="33.8109469" lon="-118.3934598">
  <ele>-24.39</ele>
  <time>2026-09-02T22:09:00Z</time>
  <course>53.52</course>
  <speed>1.0</speed>
  <fix>3d</fix>
</trkpt>
<trkpt lat="33.8109484" lon="-118.3934569">
  <ele>-24.992</ele>
  <time>2026-09-02T22:09:00Z</time>
  <course>54.89</course>
  <speed>0.9765244492586962</speed>
  <fix>3d</fix>
</trkpt>
<trkpt lat="33.8109479" lon="-118.3934581">
  <ele>-24.39</ele>
  <time>2026-09-02T22:09:00Z</time>
  <course>53.49</course>
  <speed>1.0</speed>
  <fix>3d</fix>
</trkpt>
<trkpt lat="33.8109489" lon="-118.3934561">
  <ele>-24.991</ele>
  <time>2026-09-02T22:09:00Z</time>
  <course>54.88</course>
  <speed>0.9765244492586962</speed>
  <fix>3d</fix>
</trkpt>
<trkpt lat="33.8109479" lon="-118.3934581">
  <ele>-24.39</ele>
  <time>2026-09-02T22:09:00Z</time>
  <course>53.49</course>
  <speed>1.0</speed>
  <fix>3d</fix>
</trkpt>
<trkpt lat="33.8109495" lon="-118.3934552">
  <ele>-24.99</ele>
  <time>2026-09-02T22:09:00Z</time>
  <course>54.86</course>
  <speed>0.9765244492586962</speed>
  <fix>3d</fix>
</trkpt>
<trkpt lat="33.810949" lon="-118.3934563">
  <ele>-24.39</ele>
  <time>2026-09-02T22:09:00Z</time>
  <course>53.46</course>
  <speed>1.0</speed>
  <fix>3d</fix>
</trkpt>
<trkpt lat="33.81095" lon="-118.3934543">
  <ele>-24.989</ele>
  <time>2026-09-02T22:09:00Z</time>
  <course>54.83</course>
  <speed>0.9765244492586962</speed>
  <fix>3d</fix>
</trkpt>
<trkpt lat="33.810949" lon="-118.3934563">
  <ele>-24.39</ele>
  <time>2026-09-02T22:09:00Z</time>
  <course>53.46</course>
  <speed>1.0</speed>
  <fix>3d</fix>
</trkpt>
<trkpt lat="33.8109505" lon="-118.3934534">
  <ele>-24.989</ele>
  <time>2026-09-02T22:09:00Z</time>
  <course>54.81</course>
  <speed>0.9765244492586962</speed>
  <fix>3d</fix>
</trkpt>
<trkpt lat="33.8109501" lon="-118.3934546">
  <ele>-24.39</ele>
  <time>2026-09-02T22:09:00Z</time>
  <course>53.42</course>
  <speed>1.0</speed>
  <fix>3d</fix>
</trkpt>
<trkpt lat="33.8109511" lon="-118.3934526">
  <ele>-24.989</ele>
  <time>2026-09-02T22:09:00Z</time>
  <course>54.79</course>
  <speed>0.9765244492586962</speed>
  <fix>3d</fix>
</trkpt>
<trkpt lat="33.8109501" lon="-118.3934546">
  <ele>-24.39</ele>
  <time>2026-09-02T22:09:00Z</time>
  <course>53.42</course>
  <speed>1.0</speed>
  <fix>3d</fix>
</trkpt>
<trkpt lat="33.8109516" lon="-118.3934517">
  <ele>-24.989</ele>
  <time>2026-09-02T22:09:00Z</time>
  <course>54.79</course>
  <speed>0.9765244492586962</speed>
  <fix>3d</fix>
</trkpt>
<trkpt lat="33.8109512" lon="-118.3934529">
  <ele>-24.39</ele>
  <time>2026-09-02T22:09:00Z</time>
  <course>53.42</course>
  <speed>1.0</speed>
  <fix>3d</fix>
</trkpt>
<trkpt lat="33.8109521" lon="-118.3934508">
  <ele>-24.989</ele>
  <time>2026-09-02T22:09:00Z</time>
  <course>54.79</course>
  <speed>0.9765244492586962</speed>
  <fix>3d</fix>
</trkpt>
<trkpt lat="33.8109512" lon="-118.3934529">
  <ele>-24.39</ele>
  <time>2026-09-02T22:09:00Z</time>
  <course>53.42</course>
  <speed>1.0</speed>
  <fix>3d</fix>
</trkpt>
<trkpt lat="33.8109527" lon="-118.39345">
  <ele>-24.99</ele>
  <time>2026-09-02T22:09:00Z</time>
  <course>54.81</course>
  <speed>0.9765244492586962</speed>
  <fix>3d</fix>
</trkpt>
<trkpt lat="33.8109522" lon="-118.3934511">
  <ele>-24.39</ele>
  <time>2026-09-02T22:09:00Z</time>
  <course>53.47</course>
  <speed>1.0</speed>
  <fix>3d</fix>
</trkpt>
<trkpt lat="33.8109532" lon="-118.3934491">
  <ele>-24.992</ele>
  <time>2026-09-02T22:09:00Z</time>
  <course>54.83</course>
  <speed>0.9765244492586962</speed>
  <fix>3d</fix>
</trkpt>
<trkpt lat="33.8109522" lon="-118.3934511">
  <ele>-24.39</ele>
  <time>2026-09-02T22:09:00Z</time>
  <course>53.47</course>
  <speed>1.0</speed>
  <fix>3d</fix>
</trkpt>
<trkpt lat="33.8109537" lon="-118.3934482">
  <ele>-24.992</ele>
  <time>2026-09-02T22:09:00Z</time>
  <course>54.83</course>
  <speed>0.9765244492586962</speed>
  <fix>3d</fix>
</trkpt>
<trkpt lat="33.8109533" lon="-118.3934494">
  <ele>-24.4</ele>
  <time>2026-09-02T22:09:00Z</time>
  <course>53.5</course>
  <speed>1.0</speed>
  <fix>3d</fix>
</trkpt>
<trkpt lat="33.8109543" lon="-118.3934474">
  <ele>-24.993</ele>
  <time>2026-09-02T22:09:00Z</time>
  <course>54.83</course>
  <speed>0.9765244492586962</speed>
  <fix>3d</fix>
</trkpt>
<trkpt lat="33.8109533" lon="-118.3934494">
  <ele>-24.4</ele>
  <time>2026-09-02T22:09:00Z</time>
  <course>53.5</course>
  <speed>1.0</speed>
  <fix>3d</fix>
</trkpt>
<trkpt lat="33.8109548" lon="-118.3934465">
  <ele>-24.994</ele>
  <time>2026-09-02T22:09:00Z</time>
  <course>54.84</course>
  <speed>0.9765244492586962</speed>
  <fix>3d</fix>
</trkpt>
<trkpt lat="33.8109544" lon="-118.3934476">
  <ele>-24.4</ele>
  <time>2026-09-02T22:09:00Z</time>
  <course>53.5</course>
  <speed>1.0</speed>
  <fix>3d</fix>
</trkpt>
<trkpt lat="33.8109553" lon="-118.3934456">
  <ele>-24.995</ele>
  <time>2026-09-02T22:09:00Z</time>
  <course>54.83</course>
  <speed>0.9765244492586962</speed>
  <fix>3d</fix>
</trkpt>
<trkpt lat="33.8109544" lon="-118.3934476">
  <ele>-24.4</ele>
  <time>2026-09-02T22:09:00Z</time>
  <course>53.5</course>
  <speed>1.0</speed>
  <fix>3d</fix>
</trkpt>
<trkpt lat="33.8109559" lon="-118.3934447">
  <ele>-24.996</ele>
  <time>2026-09-02T22:09:00Z</time>
  <course>54.84</course>
  <speed>0.9765244492586962</speed>
  <fix>3d</fix>
</trkpt>
<trkpt lat="33.8109555" lon="-118.3934459">
  <ele>-24.39</ele>
  <time>2026-09-02T22:09:00Z</time>
  <course>53.5</course>
  <speed>1.0</speed>
  <fix>3d</fix>
</trkpt>
<trkpt lat="33.8109564" lon="-118.3934439">
  <ele>-24.996</ele>
  <time>2026-09-02T22:09:00Z</time>
  <course>54.85</course>
  <speed>0.9765244492586962</speed>
  <fix>3d</fix>
</trkpt>
<trkpt lat="33.8109555" lon="-118.3934459">
  <ele>-24.39</ele>
  <time>2026-09-02T22:09:00Z</time>
  <course>53.5</course>
  <speed>1.0</speed>
  <fix>3d</fix>
</trkpt>
<trkpt lat="33.810957" lon="-118.393443">
  <ele>-24.995</ele>
  <time>2026-09-02T22:09:00Z</time>
  <course>54.87</course>
  <speed>0.9765244492586962</speed>
  <fix>3d</fix>
</trkpt>
<trkpt lat="33.8109565" lon="-118.3934441">
  <ele>-24.39</ele>
  <time>2026-09-02T22:09:00Z</time>
  <course>53.52</course>
  <speed>1.0</speed>
  <fix>3d</fix>
</trkpt>
<trkpt lat="33.8109575" lon="-118.3934421">
  <ele>-24.993</ele>
  <time>2026-09-02T22:09:00Z</time>
  <course>54.88</course>
  <speed>0.9765244492586962</speed>
  <fix>3d</fix>
</trkpt>
<trkpt lat="33.8109565" lon="-118.3934441">
  <ele>-24.39</ele>
  <time>2026-09-02T22:09:00Z</time>
  <course>53.52</course>
  <speed>1.0</speed>
  <fix>3d</fix>
</trkpt>
<trkpt lat="33.810958" lon="-118.3934413">
  <ele>-24.992</ele>
  <time>2026-09-02T22:09:00Z</time>
  <course>54.88</course>
  <speed>0.9765244492586962</speed>
  <fix>3d</fix>
</trkpt>
<trkpt lat="33.8109576" lon="-118.3934424">
  <ele>-24.39</ele>
  <time>2026-09-02T22:09:00Z</time>
  <course>53.53</course>
  <speed>1.0</speed>
  <fix>3d</fix>
</trkpt>
<trkpt lat="33.8109586" lon="-118.3934404">
  <ele>-24.991</ele>
  <time>2026-09-02T22:09:00Z</time>
  <course>54.87</course>
  <speed>0.9765244492586962</speed>
  <fix>3d</fix>
</trkpt>
<trkpt lat="33.8109576" lon="-118.3934424">
  <ele>-24.39</ele>
  <time>2026-09-02T22:09:00Z</time>
  <course>53.53</course>
  <speed>1.0</speed>
  <fix>3d</fix>
</trkpt>
<trkpt lat="33.8109591" lon="-118.3934395">
  <ele>-24.989</ele>
  <time>2026-09-02T22:09:00Z</time>
  <course>54.86</course>
  <speed>0.9765244492586962</speed>
  <fix>3d</fix>
</trkpt>
<trkpt lat="33.8109587" lon="-118.3934406">
  <ele>-24.38</ele>
  <time>2026-09-02T22:09:00Z</time>
  <course>53.51</course>
  <speed>0.99</speed>
  <fix>3d</fix>
</trkpt>
<trkpt lat="33.8109596" lon="-118.3934386">
  <ele>-24.989</ele>
  <time>2026-09-02T22:09:00Z</time>
  <course>54.85</course>
  <speed>0.9765244492586962</speed>
  <fix>3d</fix>
</trkpt>
<trkpt lat="33.8109587" lon="-118.3934406">
  <ele>-24.38</ele>
  <time>2026-09-02T22:09:00Z</time>
  <course>53.51</course>
  <speed>0.99</speed>
  <fix>3d</fix>
</trkpt>
<trkpt lat="33.8109602" lon="-118.3934378">
  <ele>-24.989</ele>
  <time>2026-09-02T22:09:00Z</time>
  <course>54.84</course>
  <speed>0.9765244492586962</speed>
  <fix>3d</fix>
</trkpt>
<trkpt lat="33.8109597" lon="-118.3934389">
  <ele>-24.38</ele>
  <time>2026-09-02T22:09:00Z</time>
  <course>53.51</course>
  <speed>0.99</speed>
  <fix>3d</fix>
</trkpt>
<trkpt lat="33.8109607" lon="-118.3934369">
  <ele>-24.989</ele>
  <time>2026-09-02T22:09:00Z</time>
  <course>54.84</course>
  <speed>0.9765244492586962</speed>
  <fix>3d</fix>
</trkpt>
<trkpt lat="33.8109597" lon="-118.3934389">
  <ele>-24.38</ele>
  <time>2026-09-02T22:09:00Z</time>
  <course>53.51</course>
  <speed>0.99</speed>
  <fix>3d</fix>
</trkpt>
<trkpt lat="33.8109612" lon="-118.393436">
  <ele>-24.989</ele>
  <time>2026-09-02T22:09:00Z</time>
  <course>54.82</course>
  <speed>0.9765244492586962</speed>
  <fix>3d</fix>
</trkpt>
<trkpt lat="33.8109608" lon="-118.3934372">
  <ele>-24.38</ele>
  <time>2026-09-02T22:09:00Z</time>
  <course>53.48</course>
  <speed>0.99</speed>
  <fix>3d</fix>
</trkpt>
<trkpt lat="33.8109618" lon="-118.3934352">
  <ele>-24.989</ele>
  <time>2026-09-02T22:09:00Z</time>
  <course>54.81</course>
  <speed>0.9765244492586962</speed>
  <fix>3d</fix>
</trkpt>
<trkpt lat="33.8109608" lon="-118.3934372">
  <ele>-24.38</ele>
  <time>2026-09-02T22:09:00Z</time>
  <course>53.48</course>
  <speed>0.99</speed>
  <fix>3d</fix>
</trkpt>
<trkpt lat="33.8109623" lon="-118.3934343">
  <ele>-24.988</ele>
  <time>2026-09-02T22:09:00Z</time>
  <course>54.81</course>
  <speed>0.9765244492586962</speed>
  <fix>3d</fix>
</trkpt>
<trkpt lat="33.8109618" lon="-118.3934355">
  <ele>-24.38</ele>
  <time>2026-09-02T22:09:00Z</time>
  <course>53.47</course>
  <speed>0.99</speed>
  <fix>3d</fix>
</trkpt>
<trkpt lat="33.8109628" lon="-118.3934334">
  <ele>-24.989</ele>
  <time>2026-09-02T22:09:00Z</time>
  <course>54.8</course>
  <speed>0.9765244492586962</speed>
  <fix>3d</fix>
</trkpt>
<trkpt lat="33.8109618" lon="-118.3934355">
  <ele>-24.38</ele>
  <time>2026-09-02T22:09:00Z</time>
  <course>53.47</course>
  <speed>0.99</speed>
  <fix>3d</fix>
</trkpt>
<trkpt lat="33.8109634" lon="-118.3934325">
  <ele>-24.99</ele>
  <time>2026-09-02T22:09:00Z</time>
  <course>54.79</course>
  <speed>0.9765244492586962</speed>
  <fix>3d</fix>
</trkpt>
<trkpt lat="33.8109629" lon="-118.3934337">
  <ele>-24.38</ele>
  <time>2026-09-02T22:09:00Z</time>
  <course>53.46</course>
  <speed>0.99</speed>
  <fix>3d</fix>
</trkpt>
<trkpt lat="33.8109639" lon="-118.3934317">
  <ele>-24.991</ele>
  <time>2026-09-02T22:09:00Z</time>
  <course>54.78</course>
  <speed>0.9765244492586962</speed>
  <fix>3d</fix>
</trkpt>
<trkpt lat="33.8109629" lon="-118.3934337">
  <ele>-24.38</ele>
  <time>2026-09-02T22:09:00Z</time>
  <course>53.46</course>
  <speed>0.99</speed>
  <fix>3d</fix>
</trkpt>
<trkpt lat="33.8109644" lon="-118.3934308">
  <ele>-24.992</ele>
  <time>2026-09-02T22:09:00Z</time>
  <course>54.77</course>
  <speed>0.9765244492586962</speed>
  <fix>3d</fix>
</trkpt>
<trkpt lat="33.810964" lon="-118.393432">
  <ele>-24.38</ele>
  <time>2026-09-02T22:09:00Z</time>
  <course>53.42</course>
  <speed>0.99</speed>
  <fix>3d</fix>
</trkpt>
<trkpt lat="33.810965" lon="-118.3934299">
  <ele>-24.992</ele>
  <time>2026-09-02T22:09:00Z</time>
  <course>54.76</course>
  <speed>0.9765244492586962</speed>
  <fix>3d</fix>
</trkpt>
<trkpt lat="33.810964" lon="-118.393432">
  <ele>-24.38</ele>
  <time>2026-09-02T22:09:00Z</time>
  <course>53.42</course>
  <speed>0.99</speed>
  <fix>3d</fix>
</trkpt>
<trkpt lat="33.8109655" lon="-118.3934291">
  <ele>-24.992</ele>
  <time>2026-09-02T22:09:00Z</time>
  <course>54.76</course>
  <speed>0.9765244492586962</speed>
  <fix>3d</fix>
</trkpt>
<trkpt lat="33.8109651" lon="-118.3934303">
  <ele>-24.37</ele>
  <time>2026-09-02T22:09:00Z</time>
  <course>53.42</course>
  <speed>0.99</speed>
  <fix>3d</fix>
</trkpt>
<trkpt lat="33.810966" lon="-118.3934282">
  <ele>-24.991</ele>
  <time>2026-09-02T22:09:00Z</time>
  <course>54.78</course>
  <speed>0.9765244492586962</speed>
  <fix>3d</fix>
</trkpt>
<trkpt lat="33.8109651" lon="-118.3934303">
  <ele>-24.37</ele>
  <time>2026-09-02T22:09:00Z</time>
  <course>53.42</course>
  <speed>0.99</speed>
  <fix>3d</fix>
</trkpt>
<trkpt lat="33.8109666" lon="-118.3934273">
  <ele>-24.99</ele>
  <time>2026-09-02T22:09:00Z</time>
  <course>54.81</course>
  <speed>0.9765244492586962</speed>
  <fix>3d</fix>
</trkpt>
<trkpt lat="33.8109661" lon="-118.3934285">
  <ele>-24.37</ele>
  <time>2026-09-02T22:09:00Z</time>
  <course>53.46</course>
  <speed>0.99</speed>
  <fix>3d</fix>
</trkpt>
<trkpt lat="33.8109671" lon="-118.3934265">
  <ele>-24.988</ele>
  <time>2026-09-02T22:09:00Z</time>
  <course>54.84</course>
  <speed>0.9765244492586962</speed>
  <fix>3d</fix>
</trkpt>
<trkpt lat="33.8109661" lon="-118.3934285">
  <ele>-24.37</ele>
  <time>2026-09-02T22:09:00Z</time>
  <course>53.46</course>
  <speed>0.99</speed>
  <fix>3d</fix>
</trkpt>
<trkpt lat="33.8109677" lon="-118.3934256">
  <ele>-24.985</ele>
  <time>2026-09-02T22:09:00Z</time>
  <course>54.86</course>
  <speed>0.9765244492586962</speed>
  <fix>3d</fix>
</trkpt>
<trkpt lat="33.8109672" lon="-118.3934267">
  <ele>-24.37</ele>
  <time>2026-09-02T22:09:00Z</time>
  <course>53.48</course>
  <speed>1.0</speed>
  <fix>3d</fix>
</trkpt>
<trkpt lat="33.8109682" lon="-118.3934247">
  <ele>-24.982</ele>
  <time>2026-09-02T22:09:00Z</time>
  <course>54.86</course>
  <speed>0.9765244492586962</speed>
  <fix>3d</fix>
</trkpt>
<trkpt lat="33.8109672" lon="-118.3934267">
  <ele>-24.37</ele>
  <time>2026-09-02T22:09:00Z</time>
  <course>53.48</course>
  <speed>1.0</speed>
  <fix>3d</fix>
</trkpt>
<trkpt lat="33.8109687" lon="-118.3934238">
  <ele>-24.98</ele>
  <time>2026-09-02T22:09:00Z</time>
  <course>54.86</course>
  <speed>0.9765244492586962</speed>
  <fix>3d</fix>
</trkpt>
<trkpt lat="33.8109683" lon="-118.393425">
  <ele>-24.37</ele>
  <time>2026-09-02T22:09:00Z</time>
  <course>53.45</course>
  <speed>0.99</speed>
  <fix>3d</fix>
</trkpt>
<trkpt lat="33.8109693" lon="-118.393423">
  <ele>-24.98</ele>
  <time>2026-09-02T22:09:00Z</time>
  <course>54.84</course>
  <speed>0.9765244492586962</speed>
  <fix>3d</fix>
</trkpt>
<trkpt lat="33.8109683" lon="-118.393425">
  <ele>-24.37</ele>
  <time>2026-09-02T22:09:00Z</time>
  <course>53.45</course>
  <speed>0.99</speed>
  <fix>3d</fix>
</trkpt>
<trkpt lat="33.8109698" lon="-118.3934221">
  <ele>-24.981</ele>
  <time>2026-09-02T22:09:00Z</time>
  <course>54.83</course>
  <speed>0.9765244492586962</speed>
  <fix>3d</fix>
</trkpt>
<trkpt lat="33.8109694" lon="-118.3934233">
  <ele>-24.37</ele>
  <time>2026-09-02T22:09:00Z</time>
  <course>53.43</course>
  <speed>0.99</speed>
  <fix>3d</fix>
</trkpt>
<trkpt lat="33.8109703" lon="-118.3934212">
  <ele>-24.984</ele>
  <time>2026-09-02T22:09:00Z</time>
  <course>54.84</course>
  <speed>0.9765244492586962</speed>
  <fix>3d</fix>
</trkpt>
<trkpt lat="33.8109694" lon="-118.3934233">
  <ele>-24.37</ele>
  <time>2026-09-02T22:09:00Z</time>
  <course>53.43</course>
  <speed>0.99</speed>
  <fix>3d</fix>
</trkpt>
<trkpt lat="33.8109709" lon="-118.3934204">
  <ele>-24.987</ele>
  <time>2026-09-02T22:09:00Z</time>
  <course>54.86</course>
  <speed>0.9765244492586962</speed>
  <fix>3d</fix>
</trkpt>
<trkpt lat="33.8109704" lon="-118.3934216">
  <ele>-24.37</ele>
  <time>2026-09-02T22:09:00Z</time>
  <course>53.46</course>
  <speed>0.99</speed>
  <fix>3d</fix>
</trkpt>
<trkpt lat="33.8109714" lon="-118.3934195">
  <ele>-24.989</ele>
  <time>2026-09-02T22:09:00Z</time>
  <course>54.89</course>
  <speed>0.9765244492586962</speed>
  <fix>3d</fix>
</trkpt>
<trkpt lat="33.8109704" lon="-118.3934216">
  <ele>-24.37</ele>
  <time>2026-09-02T22:09:00Z</time>
  <course>53.46</course>
  <speed>0.99</speed>
  <fix>3d</fix>
</trkpt>
<trkpt lat="33.8109719" lon="-118.3934186">
  <ele>-24.99</ele>
  <time>2026-09-02T22:09:00Z</time>
  <course>54.91</course>
  <speed>0.9765244492586962</speed>
  <fix>3d</fix>
</trkpt>
<trkpt lat="33.8109715" lon="-118.3934198">
  <ele>-24.38</ele>
  <time>2026-09-02T22:09:00Z</time>
  <course>53.5</course>
  <speed>0.99</speed>
  <fix>3d</fix>
</trkpt>
<trkpt lat="33.8109725" lon="-118.3934178">
  <ele>-24.991</ele>
  <time>2026-09-02T22:09:01Z</time>
  <course>54.92</course>
  <speed>0.9765244492586962</speed>
  <fix>3d</fix>
</trkpt>
<trkpt lat="33.8109715" lon="-118.3934198">
  <ele>-24.38</ele>
  <time>2026-09-02T22:09:01Z</time>
  <course>53.5</course>
  <speed>0.99</speed>
  <fix>3d</fix>
</trkpt>
<trkpt lat="33.810973" lon="-118.3934169">
  <ele>-24.99</ele>
  <time>2026-09-02T22:09:01Z</time>
  <course>54.94</course>
  <speed>0.9765244492586962</speed>
  <fix>3d</fix>
</trkpt>
<trkpt lat="33.8109726" lon="-118.3934181">
  <ele>-24.38</ele>
  <time>2026-09-02T22:09:01Z</time>
  <course>53.53</course>
  <speed>0.99</speed>
  <fix>3d</fix>
</trkpt>
<trkpt lat="33.8109735" lon="-118.393416">
  <ele>-24.988</ele>
  <time>2026-09-02T22:09:01Z</time>
  <course>54.95</course>
  <speed>0.9765244492586962</speed>
  <fix>3d</fix>
</trkpt>
<trkpt lat="33.8109726" lon="-118.3934181">
  <ele>-24.38</ele>
  <time>2026-09-02T22:09:01Z</time>
  <course>53.53</course>
  <speed>0.99</speed>
  <fix>3d</fix>
</trkpt>
<trkpt lat="33.8109741" lon="-118.3934151">
  <ele>-24.986</ele>
  <time>2026-09-02T22:09:01Z</time>
  <course>54.97</course>
  <speed>0.9765244492586962</speed>
  <fix>3d</fix>
</trkpt>
<trkpt lat="33.8109736" lon="-118.3934164">
  <ele>-24.38</ele>
  <time>2026-09-02T22:09:01Z</time>
  <course>53.56</course>
  <speed>0.99</speed>
  <fix>3d</fix>
</trkpt>
<trkpt lat="33.8109746" lon="-118.3934143">
  <ele>-24.986</ele>
  <time>2026-09-02T22:09:01Z</time>
  <course>54.98</course>
  <speed>0.9765244492586962</speed>
  <fix>3d</fix>
</trkpt>
<trkpt lat="33.8109736" lon="-118.3934164">
  <ele>-24.38</ele>
  <time>2026-09-02T22:09:01Z</time>
  <course>53.56</course>
  <speed>0.99</speed>
  <fix>3d</fix>
</trkpt>
<trkpt lat="33.8109751" lon="-118.3934134">
  <ele>-24.987</ele>
  <time>2026-09-02T22:09:01Z</time>
  <course>55.0</course>
  <speed>0.9765244492586962</speed>
  <fix>3d</fix>
</trkpt>
<trkpt lat="33.8109747" lon="-118.3934146">
  <ele>-24.38</ele>
  <time>2026-09-02T22:09:01Z</time>
  <course>53.58</course>
  <speed>0.99</speed>
  <fix>3d</fix>
</trkpt>
<trkpt lat="33.8109757" lon="-118.3934125">
  <ele>-24.989</ele>
  <time>2026-09-02T22:09:01Z</time>
  <course>55.0</course>
  <speed>0.9765244492586962</speed>
  <fix>3d</fix>
</trkpt>
<trkpt lat="33.8109747" lon="-118.3934146">
  <ele>-24.38</ele>
  <time>2026-09-02T22:09:01Z</time>
  <course>53.58</course>
  <speed>0.99</speed>
  <fix>3d</fix>
</trkpt>
<trkpt lat="33.8109762" lon="-118.3934117">
  <ele>-24.99</ele>
  <time>2026-09-02T22:09:01Z</time>
  <course>55.0</course>
  <speed>0.9765244492586962</speed>
  <fix>3d</fix>
</trkpt>
<trkpt lat="33.8109757" lon="-118.3934129">
  <ele>-24.38</ele>
  <time>2026-09-02T22:09:01Z</time>
  <course>53.57</course>
  <speed>0.99</speed>
  <fix>3d</fix>
</trkpt>
<trkpt lat="33.8109767" lon="-118.3934108">
  <ele>-24.991</ele>
  <time>2026-09-02T22:09:01Z</time>
  <course>54.99</course>
  <speed>0.9765244492586962</speed>
  <fix>3d</fix>
</trkpt>
<trkpt lat="33.8109757" lon="-118.3934129">
  <ele>-24.38</ele>
  <time>2026-09-02T22:09:01Z</time>
  <course>53.57</course>
  <speed>0.99</speed>
  <fix>3d</fix>
</trkpt>
<trkpt lat="33.8109773" lon="-118.3934099">
  <ele>-24.99</ele>
  <time>2026-09-02T22:09:01Z</time>
  <course>54.97</course>
  <speed>0.9765244492586962</speed>
  <fix>3d</fix>
</trkpt>
<trkpt lat="33.8109768" lon="-118.3934112">
  <ele>-24.38</ele>
  <time>2026-09-02T22:09:01Z</time>
  <course>53.53</course>
  <speed>0.99</speed>
  <fix>3d</fix>
</trkpt>
<trkpt lat="33.8109778" lon="-118.3934091">
  <ele>-24.99</ele>
  <time>2026-09-02T22:09:01Z</time>
  <course>54.96</course>
  <speed>0.9765244492586962</speed>
  <fix>3d</fix>
</trkpt>
<trkpt lat="33.8109768" lon="-118.3934112">
  <ele>-24.38</ele>
  <time>2026-09-02T22:09:01Z</time>
  <course>53.53</course>
  <speed>0.99</speed>
  <fix>3d</fix>
</trkpt>
<trkpt lat="33.8109783" lon="-118.3934082">
  <ele>-24.989</ele>
  <time>2026-09-02T22:09:01Z</time>
  <course>54.95</course>
  <speed>0.9765244492586962</speed>
  <fix>3d</fix>
</trkpt>
<trkpt lat="33.8109779" lon="-118.3934094">
  <ele>-24.38</ele>
  <time>2026-09-02T22:09:01Z</time>
  <course>53.5</course>
  <speed>1.0</speed>
  <fix>3d</fix>
</trkpt>
<trkpt lat="33.8109789" lon="-118.3934073">
  <ele>-24.988</ele>
  <time>2026-09-02T22:09:01Z</time>
  <course>54.95</course>
  <speed>0.9765244492586962</speed>
  <fix>3d</fix>
</trkpt>
<trkpt lat="33.8109779" lon="-118.3934094">
  <ele>-24.38</ele>
  <time>2026-09-02T22:09:01Z</time>
  <course>53.5</course>
  <speed>1.0</speed>
  <fix>3d</fix>
</trkpt>
<trkpt lat="33.8109794" lon="-118.3934065">
  <ele>-24.988</ele>
  <time>2026-09-02T22:09:01Z</time>
  <course>54.95</course>
  <speed>0.9765244492586962</speed>
  <fix>3d</fix>
</trkpt>
<trkpt lat="33.810979" lon="-118.3934077">
  <ele>-24.38</ele>
  <time>2026-09-02T22:09:01Z</time>
  <course>53.51</course>
  <speed>1.0</speed>
  <fix>3d</fix>
</trkpt>
<trkpt lat="33.81098" lon="-118.3934056">
  <ele>-24.989</ele>
  <time>2026-09-02T22:09:01Z</time>
  <course>54.96</course>
  <speed>0.9765244492586962</speed>
  <fix>3d</fix>
</trkpt>
<trkpt lat="33.810979" lon="-118.3934077">
  <ele>-24.38</ele>
  <time>2026-09-02T22:09:01Z</time>
  <course>53.51</course>
  <speed>1.0</speed>
  <fix>3d</fix>
</trkpt>
<trkpt lat="33.8109805" lon="-118.3934047">
  <ele>-24.991</ele>
  <time>2026-09-02T22:09:01Z</time>
  <course>54.98</course>
  <speed>0.9765244492586962</speed>
  <fix>3d</fix>
</trkpt>
<trkpt lat="33.81098" lon="-118.3934059">
  <ele>-24.38</ele>
  <time>2026-09-02T22:09:01Z</time>
  <course>53.55</course>
  <speed>1.0</speed>
  <fix>3d</fix>
</trkpt>
<trkpt lat="33.810981" lon="-118.3934038">
  <ele>-24.992</ele>
  <time>2026-09-02T22:09:01Z</time>
  <course>55.0</course>
  <speed>0.9765244492586962</speed>
  <fix>3d</fix>
</trkpt>
<trkpt lat="33.81098" lon="-118.3934059">
  <ele>-24.38</ele>
  <time>2026-09-02T22:09:01Z</time>
  <course>53.55</course>
  <speed>1.0</speed>
  <fix>3d</fix>
</trkpt>
<trkpt lat="33.8109816" lon="-118.393403">
  <ele>-24.992</ele>
  <time>2026-09-02T22:09:01Z</time>
  <course>55.0</course>
  <speed>0.9765244492586962</speed>
  <fix>3d</fix>
</trkpt>
<trkpt lat="33.8109811" lon="-118.3934042">
  <ele>-24.38</ele>
  <time>2026-09-02T22:09:01Z</time>
  <course>53.56</course>
  <speed>1.0</speed>
  <fix>3d</fix>
</trkpt>
<trkpt lat="33.8109821" lon="-118.3934021">
  <ele>-24.991</ele>
  <time>2026-09-02T22:09:01Z</time>
  <course>54.99</course>
  <speed>0.9765244492586962</speed>
  <fix>3d</fix>
</trkpt>
<trkpt lat="33.8109811" lon="-118.3934042">
  <ele>-24.38</ele>
  <time>2026-09-02T22:09:01Z</time>
  <course>53.56</course>
  <speed>1.0</speed>
  <fix>3d</fix>
</trkpt>
<trkpt lat="33.8109826" lon="-118.3934012">
  <ele>-24.989</ele>
  <time>2026-09-02T22:09:01Z</time>
  <course>54.98</course>
  <speed>0.9765244492586962</speed>
  <fix>3d</fix>
</trkpt>
<trkpt lat="33.8109822" lon="-118.3934025">
  <ele>-24.38</ele>
  <time>2026-09-02T22:09:01Z</time>
  <course>53.54</course>
  <speed>1.0</speed>
  <fix>3d</fix>
</trkpt>
<trkpt lat="33.8109832" lon="-118.3934004">
  <ele>-24.986</ele>
  <time>2026-09-02T22:09:01Z</time>
  <course>54.98</course>
  <speed>0.9765244492586962</speed>
  <fix>3d</fix>
</trkpt>
<trkpt lat="33.8109822" lon="-118.3934025">
  <ele>-24.38</ele>
  <time>2026-09-02T22:09:01Z</time>
  <course>53.54</course>
  <speed>1.0</speed>
  <fix>3d</fix>
</trkpt>
<trkpt lat="33.8109837" lon="-118.3933995">
  <ele>-24.985</ele>
  <time>2026-09-02T22:09:01Z</time>
  <course>54.99</course>
  <speed>0.9765244492586962</speed>
  <fix>3d</fix>
</trkpt>
<trkpt lat="33.8109832" lon="-118.3934007">
  <ele>-24.38</ele>
  <time>2026-09-02T22:09:01Z</time>
  <course>53.57</course>
  <speed>1.0</speed>
  <fix>3d</fix>
</trkpt>
<trkpt lat="33.8109842" lon="-118.3933986">
  <ele>-24.985</ele>
  <time>2026-09-02T22:09:01Z</time>
  <course>55.0</course>
  <speed>0.9765244492586962</speed>
  <fix>3d</fix>
</trkpt>
<trkpt lat="33.8109832" lon="-118.3934007">
  <ele>-24.38</ele>
  <time>2026-09-02T22:09:01Z</time>
  <course>53.57</course>
  <speed>1.0</speed>
  <fix>3d</fix>
</trkpt>
<trkpt lat="33.8109848" lon="-118.3933978">
  <ele>-24.985</ele>
  <time>2026-09-02T22:09:01Z</time>
  <course>55.0</course>
  <speed>0.9765244492586962</speed>
  <fix>3d</fix>
</trkpt>
<trkpt lat="33.8109843" lon="-118.3933989">
  <ele>-24.38</ele>
  <time>2026-09-02T22:09:01Z</time>
  <course>53.59</course>
  <speed>1.0</speed>
  <fix>3d</fix>
</trkpt>
<trkpt lat="33.8109853" lon="-118.3933969">
  <ele>-24.985</ele>
  <time>2026-09-02T22:09:01Z</time>
  <course>54.98</course>
  <speed>0.9765244492586962</speed>
  <fix>3d</fix>
</trkpt>
<trkpt lat="33.8109843" lon="-118.3933989">
  <ele>-24.38</ele>
  <time>2026-09-02T22:09:01Z</time>
  <course>53.59</course>
  <speed>1.0</speed>
  <fix>3d</fix>
</trkpt>
<trkpt lat="33.8109858" lon="-118.393396">
  <ele>-24.986</ele>
  <time>2026-09-02T22:09:01Z</time>
  <course>54.95</course>
  <speed>0.9765244492586962</speed>
  <fix>3d</fix>
</trkpt>
<trkpt lat="33.8109854" lon="-118.3933972">
  <ele>-24.38</ele>
  <time>2026-09-02T22:09:01Z</time>
  <course>53.56</course>
  <speed>1.0</speed>
  <fix>3d</fix>
</trkpt>
<trkpt lat="33.8109864" lon="-118.3933951">
  <ele>-24.986</ele>
  <time>2026-09-02T22:09:01Z</time>
  <course>54.93</course>
  <speed>0.9765244492586962</speed>
  <fix>3d</fix>
</trkpt>
<trkpt lat="33.8109854" lon="-118.3933972">
  <ele>-24.38</ele>
  <time>2026-09-02T22:09:01Z</time>
  <course>53.56</course>
  <speed>1.0</speed>
  <fix>3d</fix>
</trkpt>
<trkpt lat="33.8109869" lon="-118.3933943">
  <ele>-24.987</ele>
  <time>2026-09-02T22:09:01Z</time>
  <course>54.92</course>
  <speed>0.9765244492586962</speed>
  <fix>3d</fix>
</trkpt>
<trkpt lat="33.8109864" lon="-118.3933955">
  <ele>-24.38</ele>
  <time>2026-09-02T22:09:01Z</time>
  <course>53.53</course>
  <speed>1.0</speed>
  <fix>3d</fix>
</trkpt>
<trkpt lat="33.8109874" lon="-118.3933934">
  <ele>-24.988</ele>
  <time>2026-09-02T22:09:01Z</time>
  <course>54.91</course>
  <speed>0.9765244492586962</speed>
  <fix>3d</fix>
</trkpt>
<trkpt lat="33.8109864" lon="-118.3933955">
  <ele>-24.38</ele>
  <time>2026-09-02T22:09:01Z</time>
  <course>53.53</course>
  <speed>1.0</speed>
  <fix>3d</fix>
</trkpt>
<trkpt lat="33.810988" lon="-118.3933925">
  <ele>-24.988</ele>
  <time>2026-09-02T22:09:01Z</time>
  <course>54.89</course>
  <speed>0.9765244492586962</speed>
  <fix>3d</fix>
</trkpt>
<trkpt lat="33.8109875" lon="-118.3933937">
  <ele>-24.38</ele>
  <time>2026-09-02T22:09:01Z</time>
  <course>53.52</course>
  <speed>1.0</speed>
  <fix>3d</fix>
</trkpt>
<trkpt lat="33.8109885" lon="-118.3933917">
  <ele>-24.988</ele>
  <time>2026-09-02T22:09:01Z</time>
  <course>54.88</course>
  <speed>0.9765244492586962</speed>
  <fix>3d</fix>
</trkpt>
<trkpt lat="33.8109875" lon="-118.3933937">
  <ele>-24.38</ele>
  <time>2026-09-02T22:09:01Z</time>
  <course>53.52</course>
  <speed>1.0</speed>
  <fix>3d</fix>
</trkpt>
<trkpt lat="33.810989" lon="-118.3933908">
  <ele>-24.986</ele>
  <time>2026-09-02T22:09:01Z</time>
  <course>54.86</course>
  <speed>0.9765244492586962</speed>
  <fix>3d</fix>
</trkpt>
<trkpt lat="33.8109886" lon="-118.393392">
  <ele>-24.38</ele>
  <time>2026-09-02T22:09:01Z</time>
  <course>53.5</course>
  <speed>1.0</speed>
  <fix>3d</fix>
</trkpt>
<trkpt lat="33.8109896" lon="-118.3933899">
  <ele>-24.985</ele>
  <time>2026-09-02T22:09:01Z</time>
  <course>54.86</course>
  <speed>0.9765244492586962</speed>
  <fix>3d</fix>
</trkpt>
<trkpt lat="33.8109886" lon="-118.393392">
  <ele>-24.38</ele>
  <time>2026-09-02T22:09:01Z</time>
  <course>53.5</course>
  <speed>1.0</speed>
  <fix>3d</fix>
</trkpt>
<trkpt lat="33.8109901" lon="-118.393389">
  <ele>-24.984</ele>
  <time>2026-09-02T22:09:01Z</time>
  <course>54.86</course>
  <speed>0.9765244492586962</speed>
  <fix>3d</fix>
</trkpt>
<trkpt lat="33.8109896" lon="-118.3933903">
  <ele>-24.38</ele>
  <time>2026-09-02T22:09:01Z</time>
  <course>53.49</course>
  <speed>1.0</speed>
  <fix>3d</fix>
</trkpt>
<trkpt lat="33.8109906" lon="-118.3933882">
  <ele>-24.986</ele>
  <time>2026-09-02T22:09:01Z</time>
  <course>54.86</course>
  <speed>0.9765244492586962</speed>
  <fix>3d</fix>
</trkpt>
<trkpt lat="33.8109896" lon="-118.3933903">
  <ele>-24.38</ele>
  <time>2026-09-02T22:09:01Z</time>
  <course>53.49</course>
  <speed>1.0</speed>
  <fix>3d</fix>
</trkpt>
<trkpt lat="33.8109912" lon="-118.3933873">
  <ele>-24.988</ele>
  <time>2026-09-02T22:09:01Z</time>
  <course>54.86</course>
  <speed>0.9765244492586962</speed>
  <fix>3d</fix>
</trkpt>
<trkpt lat="33.8109907" lon="-118.3933885">
  <ele>-24.39</ele>
  <time>2026-09-02T22:09:01Z</time>
  <course>53.51</course>
  <speed>1.0</speed>
  <fix>3d</fix>
</trkpt>
<trkpt lat="33.8109917" lon="-118.3933864">
  <ele>-24.992</ele>
  <time>2026-09-02T22:09:01Z</time>
  <course>54.85</course>
  <speed>0.9765244492586962</speed>
  <fix>3d</fix>
</trkpt>
<trkpt lat="33.8109907" lon="-118.3933885">
  <ele>-24.39</ele>
  <time>2026-09-02T22:09:01Z</time>
  <course>53.51</course>
  <speed>1.0</speed>
  <fix>3d</fix>
</trkpt>
<trkpt lat="33.8109922" lon="-118.3933856">
  <ele>-24.995</ele>
  <time>2026-09-02T22:09:01Z</time>
  <course>54.83</course>
  <speed>0.9765244492586962</speed>
  <fix>3d</fix>
</trkpt>
<trkpt lat="33.8109918" lon="-118.3933868">
  <ele>-24.39</ele>
  <time>2026-09-02T22:09:01Z</time>
  <course>53.5</course>
  <speed>1.0</speed>
  <fix>3d</fix>
</trkpt>
<trkpt lat="33.8109928" lon="-118.3933847">
  <ele>-24.996</ele>
  <time>2026-09-02T22:09:01Z</time>
  <course>54.81</course>
  <speed>0.9765244492586962</speed>
  <fix>3d</fix>
</trkpt>
<trkpt lat="33.8109918" lon="-118.3933868">
  <ele>-24.39</ele>
  <time>2026-09-02T22:09:01Z</time>
  <course>53.5</course>
  <speed>1.0</speed>
  <fix>3d</fix>
</trkpt>
<trkpt lat="33.8109933" lon="-118.3933838">
  <ele>-24.996</ele>
  <time>2026-09-02T22:09:01Z</time>
  <course>54.82</course>
  <speed>0.9765244492586962</speed>
  <fix>3d</fix>
</trkpt>
<trkpt lat="33.8109929" lon="-118.393385">
  <ele>-24.39</ele>
  <time>2026-09-02T22:09:01Z</time>
  <course>53.49</course>
  <speed>1.0</speed>
  <fix>3d</fix>
</trkpt>
<trkpt lat="33.8109938" lon="-118.393383">
  <ele>-24.996</ele>
  <time>2026-09-02T22:09:01Z</time>
  <course>54.82</course>
  <speed>0.9765244492586962</speed>
  <fix>3d</fix>
</trkpt>
<trkpt lat="33.8109929" lon="-118.393385">
  <ele>-24.39</ele>
  <time>2026-09-02T22:09:01Z</time>
  <course>53.49</course>
  <speed>1.0</speed>
  <fix>3d</fix>
</trkpt>
<trkpt lat="33.8109944" lon="-118.3933821">
  <ele>-24.994</ele>
  <time>2026-09-02T22:09:01Z</time>
  <course>54.84</course>
  <speed>0.9765244492586962</speed>
  <fix>3d</fix>
</trkpt>
<trkpt lat="33.8109939" lon="-118.3933833">
  <ele>-24.39</ele>
  <time>2026-09-02T22:09:01Z</time>
  <course>53.5</course>
  <speed>1.0</speed>
  <fix>3d</fix>
</trkpt>
<trkpt lat="33.8109949" lon="-118.3933812">
  <ele>-24.992</ele>
  <time>2026-09-02T22:09:01Z</time>
  <course>54.85</course>
  <speed>0.9765244492586962</speed>
  <fix>3d</fix>
</trkpt>
<trkpt lat="33.8109939" lon="-118.3933833">
  <ele>-24.39</ele>
  <time>2026-09-02T22:09:01Z</time>
  <course>53.5</course>
  <speed>1.0</speed>
  <fix>3d</fix>
</trkpt>
<trkpt lat="33.8109954" lon="-118.3933804">
  <ele>-24.99</ele>
  <time>2026-09-02T22:09:01Z</time>
  <course>54.86</course>
  <speed>0.9765244492586962</speed>
  <fix>3d</fix>
</trkpt>
<trkpt lat="33.810995" lon="-118.3933815">
  <ele>-24.38</ele>
  <time>2026-09-02T22:09:01Z</time>
  <course>53.53</course>
  <speed>1.0</speed>
  <fix>3d</fix>
</trkpt>
<trkpt lat="33.810996" lon="-118.3933795">
  <ele>-24.989</ele>
  <time>2026-09-02T22:09:01Z</time>
  <course>54.85</course>
  <speed>0.9765244492586962</speed>
  <fix>3d</fix>
</trkpt>
<trkpt lat="33.810995" lon="-118.3933815">
  <ele>-24.38</ele>
  <time>2026-09-02T22:09:01Z</time>
  <course>53.53</course>
  <speed>1.0</speed>
  <fix>3d</fix>
</trkpt>
<trkpt lat="33.8109965" lon="-118.3933786">
  <ele>-24.987</ele>
  <time>2026-09-02T22:09:01Z</time>
  <course>54.84</course>
  <speed>0.9765244492586962</speed>
  <fix>3d</fix>
</trkpt>
<trkpt lat="33.8109961" lon="-118.3933798">
  <ele>-24.38</ele>
  <time>2026-09-02T22:09:01Z</time>
  <course>53.53</course>
  <speed>1.0</speed>
  <fix>3d</fix>
</trkpt>
<trkpt lat="33.8109971" lon="-118.3933777">
  <ele>-24.986</ele>
  <time>2026-09-02T22:09:01Z</time>
  <course>54.82</course>
  <speed>0.9765244492586962</speed>
  <fix>3d</fix>
</trkpt>
<trkpt lat="33.8109961" lon="-118.3933798">
  <ele>-24.38</ele>
  <time>2026-09-02T22:09:01Z</time>
  <course>53.53</course>
  <speed>1.0</speed>
  <fix>3d</fix>
</trkpt>
<trkpt lat="33.8109976" lon="-118.3933769">
  <ele>-24.985</ele>
  <time>2026-09-02T22:09:01Z</time>
  <course>54.83</course>
  <speed>0.9765244492586962</speed>
  <fix>3d</fix>
</trkpt>
<trkpt lat="33.8109972" lon="-118.393378">
  <ele>-24.38</ele>
  <time>2026-09-02T22:09:01Z</time>
  <course>53.52</course>
  <speed>1.0</speed>
  <fix>3d</fix>
</trkpt>
<trkpt lat="33.8109981" lon="-118.393376">
  <ele>-24.985</ele>
  <time>2026-09-02T22:09:01Z</time>
  <course>54.84</course>
  <speed>0.9765244492586962</speed>
  <fix>3d</fix>
</trkpt>
<trkpt lat="33.8109972" lon="-118.393378">
  <ele>-24.38</ele>
  <time>2026-09-02T22:09:01Z</time>
  <course>53.52</course>
  <speed>1.0</speed>
  <fix>3d</fix>
</trkpt>
<trkpt lat="33.8109987" lon="-118.3933751">
  <ele>-24.986</ele>
  <time>2026-09-02T22:09:01Z</time>
  <course>54.85</course>
  <speed>0.9765244492586962</speed>
  <fix>3d</fix>
</trkpt>
<trkpt lat="33.8109982" lon="-118.3933763">
  <ele>-24.38</ele>
  <time>2026-09-02T22:09:01Z</time>
  <course>53.53</course>
  <speed>1.0</speed>
  <fix>3d</fix>
</trkpt>
<trkpt lat="33.8109992" lon="-118.3933743">
  <ele>-24.986</ele>
  <time>2026-09-02T22:09:01Z</time>
  <course>54.86</course>
  <speed>0.9765244492586962</speed>
  <fix>3d</fix>
</trkpt>
<trkpt lat="33.8109982" lon="-118.3933763">
  <ele>-24.38</ele>
  <time>2026-09-02T22:09:01Z</time>
  <course>53.53</course>
  <speed>1.0</speed>
  <fix>3d</fix>
</trkpt>
<trkpt lat="33.8109997" lon="-118.3933734">
  <ele>-24.987</ele>
  <time>2026-09-02T22:09:01Z</time>
  <course>54.87</course>
  <speed>0.9765244492586962</speed>
  <fix>3d</fix>
</trkpt>
<trkpt lat="33.8109993" lon="-118.3933745">
  <ele>-24.38</ele>
  <time>2026-09-02T22:09:01Z</time>
  <course>53.52</course>
  <speed>1.0</speed>
  <fix>3d</fix>
</trkpt>
<trkpt lat="33.8110003" lon="-118.3933725">
  <ele>-24.987</ele>
  <time>2026-09-02T22:09:01Z</time>
  <course>54.86</course>
  <speed>0.9765244492586962</speed>
  <fix>3d</fix>
</trkpt>
<trkpt lat="33.8109993" lon="-118.3933745">
  <ele>-24.38</ele>
  <time>2026-09-02T22:09:01Z</time>
  <course>53.52</course>
  <speed>1.0</speed>
  <fix>3d</fix>
</trkpt>
<trkpt lat="33.8110008" lon="-118.3933716">
  <ele>-24.986</ele>
  <time>2026-09-02T22:09:01Z</time>
  <course>54.84</course>
  <speed>0.9765244492586962</speed>
  <fix>3d</fix>
</trkpt>
<trkpt lat="33.8110004" lon="-118.3933728">
  <ele>-24.38</ele>
  <time>2026-09-02T22:09:01Z</time>
  <course>53.5</course>
  <speed>1.0</speed>
  <fix>3d</fix>
</trkpt>
<trkpt lat="33.8110013" lon="-118.3933708">
  <ele>-24.985</ele>
  <time>2026-09-02T22:09:01Z</time>
  <course>54.83</course>
  <speed>0.9765244492586962</speed>
  <fix>3d</fix>
</trkpt>
<trkpt lat="33.8110004" lon="-118.3933728">
  <ele>-24.38</ele>
  <time>2026-09-02T22:09:01Z</time>
  <course>53.5</course>
  <speed>1.0</speed>
  <fix>3d</fix>
</trkpt>
<trkpt lat="33.8110019" lon="-118.3933699">
  <ele>-24.984</ele>
  <time>2026-09-02T22:09:01Z</time>
  <course>54.84</course>
  <speed>0.9765244492586962</speed>
  <fix>3d</fix>
</trkpt>
<trkpt lat="33.8110015" lon="-118.393371">
  <ele>-24.38</ele>
  <time>2026-09-02T22:09:01Z</time>
  <course>53.49</course>
  <speed>1.0</speed>
  <fix>3d</fix>
</trkpt>
<trkpt lat="33.8110024" lon="-118.393369">
  <ele>-24.984</ele>
  <time>2026-09-02T22:09:01Z</time>
  <course>54.85</course>
  <speed>0.9765244492586962</speed>
  <fix>3d</fix>
</trkpt>
<trkpt lat="33.8110015" lon="-118.393371">
  <ele>-24.38</ele>
  <time>2026-09-02T22:09:01Z</time>
  <course>53.49</course>
  <speed>1.0</speed>
  <fix>3d</fix>
</trkpt>
<trkpt lat="33.811003" lon="-118.3933682">
  <ele>-24.985</ele>
  <time>2026-09-02T22:09:01Z</time>
  <course>54.87</course>
  <speed>0.9765244492586962</speed>
  <fix>3d</fix>
</trkpt>
<trkpt lat="33.8110025" lon="-118.3933693">
  <ele>-24.38</ele>
  <time>2026-09-02T22:09:01Z</time>
  <course>53.5</course>
  <speed>1.0</speed>
  <fix>3d</fix>
</trkpt>
<trkpt lat="33.8110035" lon="-118.3933673">
  <ele>-24.986</ele>
  <time>2026-09-02T22:09:01Z</time>
  <course>54.87</course>
  <speed>0.9765244492586962</speed>
  <fix>3d</fix>
</trkpt>
<trkpt lat="33.8110025" lon="-118.3933693">
  <ele>-24.38</ele>
  <time>2026-09-02T22:09:01Z</time>
  <course>53.5</course>
  <speed>1.0</speed>
  <fix>3d</fix>
</trkpt>
<trkpt lat="33.811004" lon="-118.3933664">
  <ele>-24.987</ele>
  <time>2026-09-02T22:09:01Z</time>
  <course>54.88</course>
  <speed>0.9765244492586962</speed>
  <fix>3d</fix>
</trkpt>
<trkpt lat="33.8110036" lon="-118.3933675">
  <ele>-24.38</ele>
  <time>2026-09-02T22:09:01Z</time>
  <course>53.51</course>
  <speed>1.0</speed>
  <fix>3d</fix>
</trkpt>
<trkpt lat="33.8110046" lon="-118.3933655">
  <ele>-24.987</ele>
  <time>2026-09-02T22:09:01Z</time>
  <course>54.88</course>
  <speed>0.9765244492586962</speed>
  <fix>3d</fix>
</trkpt>
<trkpt lat="33.8110036" lon="-118.3933675">
  <ele>-24.38</ele>
  <time>2026-09-02T22:09:01Z</time>
  <course>53.51</course>
  <speed>1.0</speed>
  <fix>3d</fix>
</trkpt>
<trkpt lat="33.8110051" lon="-118.3933647">
  <ele>-24.987</ele>
  <time>2026-09-02T22:09:01Z</time>
  <course>54.86</course>
  <speed>0.9765244492586962</speed>
  <fix>3d</fix>
</trkpt>
<trkpt lat="33.8110047" lon="-118.3933658">
  <ele>-24.38</ele>
  <time>2026-09-02T22:09:01Z</time>
  <course>53.5</course>
  <speed>1.0</speed>
  <fix>3d</fix>
</trkpt>
<trkpt lat="33.8110056" lon="-118.3933638">
  <ele>-24.987</ele>
  <time>2026-09-02T22:09:01Z</time>
  <course>54.85</course>
  <speed>0.9765244492586962</speed>
  <fix>3d</fix>
</trkpt>
<trkpt lat="33.8110047" lon="-118.3933658">
  <ele>-24.38</ele>
  <time>2026-09-02T22:09:01Z</time>
  <course>53.5</course>
  <speed>1.0</speed>
  <fix>3d</fix>
</trkpt>
<trkpt lat="33.8110062" lon="-118.3933629">
  <ele>-24.988</ele>
  <time>2026-09-02T22:09:01Z</time>
  <course>54.85</course>
  <speed>0.9765244492586962</speed>
  <fix>3d</fix>
</trkpt>
<trkpt lat="33.8110057" lon="-118.393364">
  <ele>-24.38</ele>
  <time>2026-09-02T22:09:01Z</time>
  <course>53.49</course>
  <speed>1.0</speed>
  <fix>3d</fix>
</trkpt>
<trkpt lat="33.8110067" lon="-118.393362">
  <ele>-24.989</ele>
  <time>2026-09-02T22:09:01Z</time>
  <course>54.84</course>
  <speed>0.9765244492586962</speed>
  <fix>3d</fix>
</trkpt>
<trkpt lat="33.8110057" lon="-118.393364">
  <ele>-24.38</ele>
  <time>2026-09-02T22:09:01Z</time>
  <course>53.49</course>
  <speed>1.0</speed>
  <fix>3d</fix>
</trkpt>
<trkpt lat="33.8110072" lon="-118.3933612">
  <ele>-24.99</ele>
  <time>2026-09-02T22:09:01Z</time>
  <course>54.82</course>
  <speed>0.9765244492586962</speed>
  <fix>3d</fix>
</trkpt>
<trkpt lat="33.8110068" lon="-118.3933623">
  <ele>-24.38</ele>
  <time>2026-09-02T22:09:01Z</time>
  <course>53.48</course>
  <speed>1.0</speed>
  <fix>3d</fix>
</trkpt>
<trkpt lat="33.8110078" lon="-118.3933603">
  <ele>-24.99</ele>
  <time>2026-09-02T22:09:01Z</time>
  <course>54.8</course>
  <speed>0.9765244492586962</speed>
  <fix>3d</fix>
</trkpt>
<trkpt lat="33.8110068" lon="-118.3933623">
  <ele>-24.38</ele>
  <time>2026-09-02T22:09:01Z</time>
  <course>53.48</course>
  <speed>1.0</speed>
  <fix>3d</fix>
</trkpt>
<trkpt lat="33.8110083" lon="-118.3933594">
  <ele>-24.989</ele>
  <time>2026-09-02T22:09:01Z</time>
  <course>54.78</course>
  <speed>0.9765244492586962</speed>
  <fix>3d</fix>
</trkpt>
<trkpt lat="33.8110079" lon="-118.3933605">
  <ele>-24.38</ele>
  <time>2026-09-02T22:09:01Z</time>
  <course>53.44</course>
  <speed>1.0</speed>
  <fix>3d</fix>
</trkpt>
<trkpt lat="33.8110088" lon="-118.3933586">
  <ele>-24.987</ele>
  <time>2026-09-02T22:09:01Z</time>
  <course>54.76</course>
  <speed>0.9765244492586962</speed>
  <fix>3d</fix>
</trkpt>
<trkpt lat="33.8110079" lon="-118.3933605">
  <ele>-24.38</ele>
  <time>2026-09-02T22:09:01Z</time>
  <course>53.44</course>
  <speed>1.0</speed>
  <fix>3d</fix>
</trkpt>
<trkpt lat="33.8110094" lon="-118.3933577">
  <ele>-24.985</ele>
  <time>2026-09-02T22:09:01Z</time>
  <course>54.75</course>
  <speed>0.9765244492586962</speed>
  <fix>3d</fix>
</trkpt>
<trkpt lat="33.811009" lon="-118.3933588">
  <ele>-24.38</ele>
  <time>2026-09-02T22:09:01Z</time>
  <course>53.41</course>
  <speed>1.0</speed>
  <fix>3d</fix>
</trkpt>
<trkpt lat="33.8110099" lon="-118.3933568">
  <ele>-24.984</ele>
  <time>2026-09-02T22:09:01Z</time>
  <course>54.75</course>
  <speed>0.9765244492586962</speed>
  <fix>3d</fix>
</trkpt>
<trkpt lat="33.811009" lon="-118.3933588">
  <ele>-24.38</ele>
  <time>2026-09-02T22:09:01Z</time>
  <course>53.41</course>
  <speed>1.0</speed>
  <fix>3d</fix>
</trkpt>
<trkpt lat="33.8110105" lon="-118.3933559">
  <ele>-24.984</ele>
  <time>2026-09-02T22:09:01Z</time>
  <course>54.77</course>
  <speed>0.9765244492586962</speed>
  <fix>3d</fix>
</trkpt>
<trkpt lat="33.8110101" lon="-118.3933571">
  <ele>-24.38</ele>
  <time>2026-09-02T22:09:01Z</time>
  <course>53.41</course>
  <speed>1.0</speed>
  <fix>3d</fix>
</trkpt>
<trkpt lat="33.811011" lon="-118.3933551">
  <ele>-24.985</ele>
  <time>2026-09-02T22:09:01Z</time>
  <course>54.79</course>
  <speed>0.9765244492586962</speed>
  <fix>3d</fix>
</trkpt>
<trkpt lat="33.8110101" lon="-118.3933571">
  <ele>-24.38</ele>
  <time>2026-09-02T22:09:01Z</time>
  <course>53.41</course>
  <speed>1.0</speed>
  <fix>3d</fix>
</trkpt>
<trkpt lat="33.8110115" lon="-118.3933542">
  <ele>-24.985</ele>
  <time>2026-09-02T22:09:01Z</time>
  <course>54.83</course>
  <speed>0.9765244492586962</speed>
  <fix>3d</fix>
</trkpt>
<trkpt lat="33.8110111" lon="-118.3933553">
  <ele>-24.38</ele>
  <time>2026-09-02T22:09:01Z</time>
  <course>53.47</course>
  <speed>1.0</speed>
  <fix>3d</fix>
</trkpt>
<trkpt lat="33.8110121" lon="-118.3933533">
  <ele>-24.985</ele>
  <time>2026-09-02T22:09:01Z</time>
  <course>54.86</course>
  <speed>0.9765244492586962</speed>
  <fix>3d</fix>
</trkpt>
<trkpt lat="33.8110111" lon="-118.3933553">
  <ele>-24.38</ele>
  <time>2026-09-02T22:09:01Z</time>
  <course>53.47</course>
  <speed>1.0</speed>
  <fix>3d</fix>
</trkpt>
<trkpt lat="33.8110126" lon="-118.3933525">
  <ele>-24.984</ele>
  <time>2026-09-02T22:09:01Z</time>
  <course>54.88</course>
  <speed>0.9765244492586962</speed>
  <fix>3d</fix>
</trkpt>
<trkpt lat="33.8110122" lon="-118.3933536">
  <ele>-24.38</ele>
  <time>2026-09-02T22:09:01Z</time>
  <course>53.52</course>
  <speed>1.0</speed>
  <fix>3d</fix>
</trkpt>
<trkpt lat="33.8110131" lon="-118.3933516">
  <ele>-24.984</ele>
  <time>2026-09-02T22:09:01Z</time>
  <course>54.89</course>
  <speed>0.9765244492586962</speed>
  <fix>3d</fix>
</trkpt>
<trkpt lat="33.8110122" lon="-118.3933536">
  <ele>-24.38</ele>
  <time>2026-09-02T22:09:01Z</time>
  <course>53.52</course>
  <speed>1.0</speed>
  <fix>3d</fix>
</trkpt>
<trkpt lat="33.8110137" lon="-118.3933507">
  <ele>-24.985</ele>
  <time>2026-09-02T22:09:01Z</time>
  <course>54.91</course>
  <speed>0.9765244492586962</speed>
  <fix>3d</fix>
</trkpt>
<trkpt lat="33.8110133" lon="-118.3933518">
  <ele>-24.39</ele>
  <time>2026-09-02T22:09:01Z</time>
  <course>53.52</course>
  <speed>1.0</speed>
  <fix>3d</fix>
</trkpt>
<trkpt lat="33.8110142" lon="-118.3933499">
  <ele>-24.987</ele>
  <time>2026-09-02T22:09:01Z</time>
  <course>54.92</course>
  <speed>0.9765244492586962</speed>
  <fix>3d</fix>
</trkpt>
<trkpt lat="33.8110133" lon="-118.3933518">
  <ele>-24.39</ele>
  <time>2026-09-02T22:09:01Z</time>
  <course>53.52</course>
  <speed>1.0</speed>
  <fix>3d</fix>
</trkpt>
<trkpt lat="33.8110147" lon="-118.393349">
  <ele>-24.989</ele>
  <time>2026-09-02T22:09:01Z</time>
  <course>54.93</course>
  <speed>0.9765244492586962</speed>
  <fix>3d</fix>
</trkpt>
<trkpt lat="33.8110143" lon="-118.3933501">
  <ele>-24.39</ele>
  <time>2026-09-02T22:09:01Z</time>
  <course>53.53</course>
  <speed>0.99</speed>
  <fix>3d</fix>
</trkpt>
<trkpt lat="33.8110153" lon="-118.3933481">
  <ele>-24.991</ele>
  <time>2026-09-02T22:09:01Z</time>
  <course>54.93</course>
  <speed>0.9765244492586962</speed>
  <fix>3d</fix>
</trkpt>
<trkpt lat="33.8110143" lon="-118.3933501">
  <ele>-24.39</ele>
  <time>2026-09-02T22:09:01Z</time>
  <course>53.53</course>
  <speed>0.99</speed>
  <fix>3d</fix>
</trkpt>
<trkpt lat="33.8110158" lon="-118.3933472">
  <ele>-24.993</ele>
  <time>2026-09-02T22:09:01Z</time>
  <course>54.92</course>
  <speed>0.9765244492586962</speed>
  <fix>3d</fix>
</trkpt>
<trkpt lat="33.8110154" lon="-118.3933484">
  <ele>-24.39</ele>
  <time>2026-09-02T22:09:01Z</time>
  <course>53.53</course>
  <speed>0.99</speed>
  <fix>3d</fix>
</trkpt>
<trkpt lat="33.8110163" lon="-118.3933464">
  <ele>-24.995</ele>
  <time>2026-09-02T22:09:01Z</time>
  <course>54.91</course>
  <speed>0.9765244492586962</speed>
  <fix>3d</fix>
</trkpt>
<trkpt lat="33.8110154" lon="-118.3933484">
  <ele>-24.39</ele>
  <time>2026-09-02T22:09:01Z</time>
  <course>53.53</course>
  <speed>0.99</speed>
  <fix>3d</fix>
</trkpt>
<trkpt lat="33.8110169" lon="-118.3933455">
  <ele>-24.996</ele>
  <time>2026-09-02T22:09:01Z</time>
  <course>54.91</course>
  <speed>0.9765244492586962</speed>
  <fix>3d</fix>
</trkpt>
<trkpt lat="33.8110164" lon="-118.3933466">
  <ele>-24.39</ele>
  <time>2026-09-02T22:09:01Z</time>
  <course>53.53</course>
  <speed>0.99</speed>
  <fix>3d</fix>
</trkpt>
<trkpt lat="33.8110174" lon="-118.3933446">
  <ele>-24.995</ele>
  <time>2026-09-02T22:09:01Z</time>
  <course>54.9</course>
  <speed>0.9765244492586962</speed>
  <fix>3d</fix>
</trkpt>
<trkpt lat="33.8110164" lon="-118.3933466">
  <ele>-24.39</ele>
  <time>2026-09-02T22:09:01Z</time>
  <course>53.53</course>
  <speed>0.99</speed>
  <fix>3d</fix>
</trkpt>
<trkpt lat="33.8110179" lon="-118.3933438">
  <ele>-24.993</ele>
  <time>2026-09-02T22:09:01Z</time>
  <course>54.88</course>
  <speed>0.9765244492586962</speed>
  <fix>3d</fix>
</trkpt>
<trkpt lat="33.8110175" lon="-118.3933449">
  <ele>-24.39</ele>
  <time>2026-09-02T22:09:01Z</time>
  <course>53.5</course>
  <speed>0.99</speed>
  <fix>3d</fix>
</trkpt>
<trkpt lat="33.8110185" lon="-118.3933429">
  <ele>-24.991</ele>
  <time>2026-09-02T22:09:01Z</time>
  <course>54.85</course>
  <speed>0.9765244492586962</speed>
  <fix>3d</fix>
</trkpt>
<trkpt lat="33.8110175" lon="-118.3933449">
  <ele>-24.39</ele>
  <time>2026-09-02T22:09:01Z</time>
  <course>53.5</course>
  <speed>0.99</speed>
  <fix>3d</fix>
</trkpt>
<trkpt lat="33.811019" lon="-118.393342">
  <ele>-24.989</ele>
  <time>2026-09-02T22:09:01Z</time>
  <course>54.83</course>
  <speed>0.9765244492586962</speed>
  <fix>3d</fix>
</trkpt>
<trkpt lat="33.8110186" lon="-118.3933432">
  <ele>-24.38</ele>
  <time>2026-09-02T22:09:01Z</time>
  <course>53.43</course>
  <speed>0.99</speed>
  <fix>3d</fix>
</trkpt>
<trkpt lat="33.8110195" lon="-118.3933412">
  <ele>-24.987</ele>
  <time>2026-09-02T22:09:01Z</time>
  <course>54.81</course>
  <speed>0.9765244492586962</speed>
  <fix>3d</fix>
</trkpt>
<trkpt lat="33.8110186" lon="-118.3933432">
  <ele>-24.38</ele>
  <time>2026-09-02T22:09:01Z</time>
  <course>53.43</course>
  <speed>0.99</speed>
  <fix>3d</fix>
</trkpt>
<trkpt lat="33.8110201" lon="-118.3933403">
  <ele>-24.985</ele>
  <time>2026-09-02T22:09:01Z</time>
  <course>54.82</course>
  <speed>0.9765244492586962</speed>
  <fix>3d</fix>
</trkpt>
<trkpt lat="33.8110197" lon="-118.3933414">
  <ele>-24.38</ele>
  <time>2026-09-02T22:09:01Z</time>
  <course>53.42</course>
  <speed>0.99</speed>
  <fix>3d</fix>
</trkpt>
<trkpt lat="33.8110206" lon="-118.3933394">
  <ele>-24.984</ele>
  <time>2026-09-02T22:09:01Z</time>
  <course>54.83</course>
  <speed>0.9765244492586962</speed>
  <fix>3d</fix>
</trkpt>
<trkpt lat="33.8110197" lon="-118.3933414">
  <ele>-24.38</ele>
  <time>2026-09-02T22:09:01Z</time>
  <course>53.42</course>
  <speed>0.99</speed>
  <fix>3d</fix>
</trkpt>
<trkpt lat="33.8110212" lon="-118.3933385">
  <ele>-24.984</ele>
  <time>2026-09-02T22:09:01Z</time>
  <course>54.85</course>
  <speed>0.9765244492586962</speed>
  <fix>3d</fix>
</trkpt>
<trkpt lat="33.8110207" lon="-118.3933396">
  <ele>-24.37</ele>
  <time>2026-09-02T22:09:01Z</time>
  <course>53.47</course>
  <speed>0.99</speed>
  <fix>3d</fix>
</trkpt>
<trkpt lat="33.8110217" lon="-118.3933377">
  <ele>-24.984</ele>
  <time>2026-09-02T22:09:01Z</time>
  <course>54.87</course>
  <speed>0.9765244492586962</speed>
  <fix>3d</fix>
</trkpt>
<trkpt lat="33.8110207" lon="-118.3933396">
  <ele>-24.37</ele>
  <time>2026-09-02T22:09:01Z</time>
  <course>53.47</course>
  <speed>0.99</speed>
  <fix>3d</fix>
</trkpt>
<trkpt lat="33.8110222" lon="-118.3933368">
  <ele>-24.984</ele>
  <time>2026-09-02T22:09:01Z</time>
  <course>54.86</course>
  <speed>0.9765244492586962</speed>
  <fix>3d</fix>
</trkpt>
<trkpt lat="33.8110218" lon="-118.3933379">
  <ele>-24.37</ele>
  <time>2026-09-02T22:09:01Z</time>
  <course>53.48</course>
  <speed>0.99</speed>
  <fix>3d</fix>
</trkpt>
<trkpt lat="33.8110228" lon="-118.3933359">
  <ele>-24.984</ele>
  <time>2026-09-02T22:09:01Z</time>
  <course>54.84</course>
  <speed>0.9765244492586962</speed>
  <fix>3d</fix>
</trkpt>
<trkpt lat="33.8110218" lon="-118.3933379">
  <ele>-24.37</ele>
  <time>2026-09-02T22:09:01Z</time>
  <course>53.48</course>
  <speed>0.99</speed>
  <fix>3d</fix>
</trkpt>
<trkpt lat="33.8110233" lon="-118.393335">
  <ele>-24.985</ele>
  <time>2026-09-02T22:09:01Z</time>
  <course>54.82</course>
  <speed>0.9765244492586962</speed>
  <fix>3d</fix>
</trkpt>
<trkpt lat="33.8110229" lon="-118.3933362">
  <ele>-24.37</ele>
  <time>2026-09-02T22:09:01Z</time>
  <course>53.43</course>
  <speed>0.99</speed>
  <fix>3d</fix>
</trkpt>
<trkpt lat="33.8110238" lon="-118.3933342">
  <ele>-24.986</ele>
  <time>2026-09-02T22:09:01Z</time>
  <course>54.81</course>
  <speed>0.9765244492586962</speed>
  <fix>3d</fix>
</trkpt>
<trkpt lat="33.8110229" lon="-118.3933362">
  <ele>-24.37</ele>
  <time>2026-09-02T22:09:01Z</time>
  <course>53.43</course>
  <speed>0.99</speed>
  <fix>3d</fix>
</trkpt>
<trkpt lat="33.8110244" lon="-118.3933333">
  <ele>-24.988</ele>
  <time>2026-09-02T22:09:01Z</time>
  <course>54.82</course>
  <speed>0.9765244492586962</speed>
  <fix>3d</fix>
</trkpt>
<trkpt lat="33.8110239" lon="-118.3933345">
  <ele>-24.38</ele>
  <time>2026-09-02T22:09:01Z</time>
  <course>53.42</course>
  <speed>0.99</speed>
  <fix>3d</fix>
</trkpt>
<trkpt lat="33.8110249" lon="-118.3933324">
  <ele>-24.988</ele>
  <time>2026-09-02T22:09:01Z</time>
  <course>54.83</course>
  <speed>0.9765244492586962</speed>
  <fix>3d</fix>
</trkpt>
<trkpt lat="33.8110239" lon="-118.3933345">
  <ele>-24.38</ele>
  <time>2026-09-02T22:09:01Z</time>
  <course>53.42</course>
  <speed>0.99</speed>
  <fix>3d</fix>
</trkpt>
<trkpt lat="33.8110254" lon="-118.3933316">
  <ele>-24.986</ele>
  <time>2026-09-02T22:09:01Z</time>
  <course>54.84</course>
  <speed>0.9765244492586962</speed>
  <fix>3d</fix>
</trkpt>
<trkpt lat="33.811025" lon="-118.3933327">
  <ele>-24.38</ele>
  <time>2026-09-02T22:09:01Z</time>
  <course>53.45</course>
  <speed>0.99</speed>
  <fix>3d</fix>
</trkpt>
<trkpt lat="33.811026" lon="-118.3933307">
  <ele>-24.984</ele>
  <time>2026-09-02T22:09:01Z</time>
  <course>54.84</course>
  <speed>0.9765244492586962</speed>
  <fix>3d</fix>
</trkpt>
<trkpt lat="33.811025" lon="-118.3933327">
  <ele>-24.38</ele>
  <time>2026-09-02T22:09:01Z</time>
  <course>53.45</course>
  <speed>0.99</speed>
  <fix>3d</fix>
</trkpt>
<trkpt lat="33.8110265" lon="-118.3933298">
  <ele>-24.982</ele>
  <time>2026-09-02T22:09:01Z</time>
  <course>54.85</course>
  <speed>0.9765244492586962</speed>
  <fix>3d</fix>
</trkpt>
<trkpt lat="33.8110261" lon="-118.393331">
  <ele>-24.38</ele>
  <time>2026-09-02T22:09:01Z</time>
  <course>53.47</course>
  <speed>0.99</speed>
  <fix>3d</fix>
</trkpt>
<trkpt lat="33.811027" lon="-118.393329">
  <ele>-24.981</ele>
  <time>2026-09-02T22:09:01Z</time>
  <course>54.84</course>
  <speed>0.9765244492586962</speed>
  <fix>3d</fix>
</trkpt>
<trkpt lat="33.8110261" lon="-118.393331">
  <ele>-24.38</ele>
  <time>2026-09-02T22:09:01Z</time>
  <course>53.47</course>
  <speed>0.99</speed>
  <fix>3d</fix>
</trkpt>
<trkpt lat="33.8110276" lon="-118.3933281">
  <ele>-24.98</ele>
  <time>2026-09-02T22:09:01Z</time>
  <course>54.86</course>
  <speed>0.9765244492586962</speed>
  <fix>3d</fix>
</trkpt>
<trkpt lat="33.8110272" lon="-118.3933293">
  <ele>-24.38</ele>
  <time>2026-09-02T22:09:01Z</time>
  <course>53.47</course>
  <speed>0.99</speed>
  <fix>3d</fix>
</trkpt>
<trkpt lat="33.8110281" lon="-118.3933272">
  <ele>-24.98</ele>
  <time>2026-09-02T22:09:01Z</time>
  <course>54.88</course>
  <speed>0.9765244492586962</speed>
  <fix>3d</fix>
</trkpt>
<trkpt lat="33.8110272" lon="-118.3933293">
  <ele>-24.38</ele>
  <time>2026-09-02T22:09:01Z</time>
  <course>53.47</course>
  <speed>0.99</speed>
  <fix>3d</fix>
</trkpt>
<trkpt lat="33.8110286" lon="-118.3933264">
  <ele>-24.982</ele>
  <time>2026-09-02T22:09:01Z</time>
  <course>54.92</course>
  <speed>0.9765244492586962</speed>
  <fix>3d</fix>
</trkpt>
<trkpt lat="33.8110282" lon="-118.3933275">
  <ele>-24.38</ele>
  <time>2026-09-02T22:09:01Z</time>
  <course>53.52</course>
  <speed>0.99</speed>
  <fix>3d</fix>
</trkpt>
<trkpt lat="33.8110292" lon="-118.3933255">
  <ele>-24.983</ele>
  <time>2026-09-02T22:09:01Z</time>
  <course>54.95</course>
  <speed>0.9765244492586962</speed>
  <fix>3d</fix>
</trkpt>
<trkpt lat="33.8110282" lon="-118.3933275">
  <ele>-24.38</ele>
  <time>2026-09-02T22:09:01Z</time>
  <course>53.52</course>
  <speed>0.99</speed>
  <fix>3d</fix>
</trkpt>
<trkpt lat="33.8110297" lon="-118.3933246">
  <ele>-24.984</ele>
  <time>2026-09-02T22:09:01Z</time>
  <course>54.97</course>
  <speed>0.9765244492586962</speed>
  <fix>3d</fix>
</trkpt>
<trkpt lat="33.8110293" lon="-118.3933258">
  <ele>-24.38</ele>
  <time>2026-09-02T22:09:01Z</time>
  <course>53.55</course>
  <speed>0.99</speed>
  <fix>3d</fix>
</trkpt>
<trkpt lat="33.8110302" lon="-118.3933238">
  <ele>-24.985</ele>
  <time>2026-09-02T22:09:01Z</time>
  <course>54.97</course>
  <speed>0.9765244492586962</speed>
  <fix>3d</fix>
</trkpt>
<trkpt lat="33.8110293" lon="-118.3933258">
  <ele>-24.38</ele>
  <time>2026-09-02T22:09:01Z</time>
  <course>53.55</course>
  <speed>0.99</speed>
  <fix>3d</fix>
</trkpt>
<trkpt lat="33.8110308" lon="-118.3933229">
  <ele>-24.987</ele>
  <time>2026-09-02T22:09:01Z</time>
  <course>54.98</course>
  <speed>0.9765244492586962</speed>
  <fix>3d</fix>
</trkpt>
<trkpt lat="33.8110304" lon="-118.3933241">
  <ele>-24.38</ele>
  <time>2026-09-02T22:09:01Z</time>
  <course>53.55</course>
  <speed>0.99</speed>
  <fix>3d</fix>
</trkpt>
<trkpt lat="33.8110313" lon="-118.393322">
  <ele>-24.989</ele>
  <time>2026-09-02T22:09:01Z</time>
  <course>54.98</course>
  <speed>0.9765244492586962</speed>
  <fix>3d</fix>
</trkpt>
<trkpt lat="33.8110304" lon="-118.3933241">
  <ele>-24.38</ele>
  <time>2026-09-02T22:09:01Z</time>
  <course>53.55</course>
  <speed>0.99</speed>
  <fix>3d</fix>
</trkpt>
<trkpt lat="33.8110319" lon="-118.3933212">
  <ele>-24.991</ele>
  <time>2026-09-02T22:09:01Z</time>
  <course>55.01</course>
  <speed>0.9765244492586962</speed>
  <fix>3d</fix>
</trkpt>
<trkpt lat="33.8110314" lon="-118.3933223">
  <ele>-24.39</ele>
  <time>2026-09-02T22:09:01Z</time>
  <course>53.58</course>
  <speed>0.99</speed>
  <fix>3d</fix>
</trkpt>
<trkpt lat="33.8110324" lon="-118.3933203">
  <ele>-24.992</ele>
  <time>2026-09-02T22:09:01Z</time>
  <course>55.03</course>
  <speed>0.9765244492586962</speed>
  <fix>3d</fix>
</trkpt>
<trkpt lat="33.8110314" lon="-118.3933223">
  <ele>-24.39</ele>
  <time>2026-09-02T22:09:01Z</time>
  <course>53.58</course>
  <speed>0.99</speed>
  <fix>3d</fix>
</trkpt>
<trkpt lat="33.8110329" lon="-118.3933194">
  <ele>-24.992</ele>
  <time>2026-09-02T22:09:01Z</time>
  <course>55.04</course>
  <speed>0.9765244492586962</speed>
  <fix>3d</fix>
</trkpt>
<trkpt lat="33.8110325" lon="-118.3933206">
  <ele>-24.39</ele>
  <time>2026-09-02T22:09:01Z</time>
  <course>53.59</course>
  <speed>0.99</speed>
  <fix>3d</fix>
</trkpt>
<trkpt lat="33.8110335" lon="-118.3933185">
  <ele>-24.99</ele>
  <time>2026-09-02T22:09:01Z</time>
  <course>55.03</course>
  <speed>0.9765244492586962</speed>
  <fix>3d</fix>
</trkpt>
<trkpt lat="33.8110325" lon="-118.3933206">
  <ele>-24.39</ele>
  <time>2026-09-02T22:09:01Z</time>
  <course>53.59</course>
  <speed>0.99</speed>
  <fix>3d</fix>
</trkpt>
<trkpt lat="33.811034" lon="-118.3933177">
  <ele>-24.989</ele>
  <time>2026-09-02T22:09:01Z</time>
  <course>55.04</course>
  <speed>0.9765244492586962</speed>
  <fix>3d</fix>
</trkpt>
<trkpt lat="33.8110336" lon="-118.3933188">
  <ele>-24.39</ele>
  <time>2026-09-02T22:09:01Z</time>
  <course>53.57</course>
  <speed>0.99</speed>
  <fix>3d</fix>
</trkpt>
<trkpt lat="33.8110345" lon="-118.3933168">
  <ele>-24.989</ele>
  <time>2026-09-02T22:09:01Z</time>
  <course>55.03</course>
  <speed>0.9765244492586962</speed>
  <fix>3d</fix>
</trkpt>
<trkpt lat="33.8110336" lon="-118.3933188">
  <ele>-24.39</ele>
  <time>2026-09-02T22:09:01Z</time>
  <course>53.57</course>
  <speed>0.99</speed>
  <fix>3d</fix>
</trkpt>
<trkpt lat="33.8110351" lon="-118.3933159">
  <ele>-24.989</ele>
  <time>2026-09-02T22:09:01Z</time>
  <course>55.04</course>
  <speed>0.9765244492586962</speed>
  <fix>3d</fix>
</trkpt>
<trkpt lat="33.8110346" lon="-118.3933171">
  <ele>-24.39</ele>
  <time>2026-09-02T22:09:01Z</time>
  <course>53.59</course>
  <speed>0.99</speed>
  <fix>3d</fix>
</trkpt>
<trkpt lat="33.8110356" lon="-118.3933151">
  <ele>-24.989</ele>
  <time>2026-09-02T22:09:01Z</time>
  <course>55.04</course>
  <speed>0.9765244492586962</speed>
  <fix>3d</fix>
</trkpt>
<trkpt lat="33.8110346" lon="-118.3933171">
  <ele>-24.39</ele>
  <time>2026-09-02T22:09:01Z</time>
  <course>53.59</course>
  <speed>0.99</speed>
  <fix>3d</fix>
</trkpt>
<trkpt lat="33.8110361" lon="-118.3933142">
  <ele>-24.988</ele>
  <time>2026-09-02T22:09:01Z</time>
  <course>55.03</course>
  <speed>0.9765244492586962</speed>
  <fix>3d</fix>
</trkpt>
<trkpt lat="33.8110357" lon="-118.3933154">
  <ele>-24.38</ele>
  <time>2026-09-02T22:09:01Z</time>
  <course>53.59</course>
  <speed>0.99</speed>
  <fix>3d</fix>
</trkpt>
<trkpt lat="33.8110367" lon="-118.3933133">
  <ele>-24.988</ele>
  <time>2026-09-02T22:09:01Z</time>
  <course>55.02</course>
  <speed>0.9765244492586962</speed>
  <fix>3d</fix>
</trkpt>
<trkpt lat="33.8110357" lon="-118.3933154">
  <ele>-24.38</ele>
  <time>2026-09-02T22:09:01Z</time>
  <course>53.59</course>
  <speed>0.99</speed>
  <fix>3d</fix>
</trkpt>
<trkpt lat="33.8110372" lon="-118.3933124">
  <ele>-24.988</ele>
  <time>2026-09-02T22:09:01Z</time>
  <course>55.02</course>
  <speed>0.9765244492586962</speed>
  <fix>3d</fix>
</trkpt>
<trkpt lat="33.8110367" lon="-118.3933136">
  <ele>-24.38</ele>
  <time>2026-09-02T22:09:01Z</time>
  <course>53.58</course>
  <speed>0.99</speed>
  <fix>3d</fix>
</trkpt>
<trkpt lat="33.8110377" lon="-118.3933116">
  <ele>-24.988</ele>
  <time>2026-09-02T22:09:01Z</time>
  <course>55.01</course>
  <speed>0.9765244492586962</speed>
  <fix>3d</fix>
</trkpt>
<trkpt lat="33.8110367" lon="-118.3933136">
  <ele>-24.38</ele>
  <time>2026-09-02T22:09:01Z</time>
  <course>53.58</course>
  <speed>0.99</speed>
  <fix>3d</fix>
</trkpt>
<trkpt lat="33.8110383" lon="-118.3933107">
  <ele>-24.988</ele>
  <time>2026-09-02T22:09:01Z</time>
  <course>54.99</course>
  <speed>0.9765244492586962</speed>
  <fix>3d</fix>
</trkpt>
<trkpt lat="33.8110378" lon="-118.3933119">
  <ele>-24.38</ele>
  <time>2026-09-02T22:09:01Z</time>
  <course>53.55</course>
  <speed>1.0</speed>
  <fix>3d</fix>
</trkpt>
<trkpt lat="33.8110388" lon="-118.3933098">
  <ele>-24.987</ele>
  <time>2026-09-02T22:09:01Z</time>
  <course>54.96</course>
  <speed>0.9765244492586962</speed>
  <fix>3d</fix>
</trkpt>
<trkpt lat="33.8110378" lon="-118.3933119">
  <ele>-24.38</ele>
  <time>2026-09-02T22:09:01Z</time>
  <course>53.55</course>
  <speed>1.0</speed>
  <fix>3d</fix>
</trkpt>
<trkpt lat="33.8110393" lon="-118.393309">
  <ele>-24.986</ele>
  <time>2026-09-02T22:09:01Z</time>
  <course>54.94</course>
  <speed>0.9765244492586962</speed>
  <fix>3d</fix>
</trkpt>
<trkpt lat="33.8110389" lon="-118.3933102">
  <ele>-24.38</ele>
  <time>2026-09-02T22:09:01Z</time>
  <course>53.51</course>
  <speed>1.0</speed>
  <fix>3d</fix>
</trkpt>
<trkpt lat="33.8110399" lon="-118.3933081">
  <ele>-24.985</ele>
  <time>2026-09-02T22:09:01Z</time>
  <course>54.92</course>
  <speed>0.9765244492586962</speed>
  <fix>3d</fix>
</trkpt>
<trkpt lat="33.8110389" lon="-118.3933102">
  <ele>-24.38</ele>
  <time>2026-09-02T22:09:01Z</time>
  <course>53.51</course>
  <speed>1.0</speed>
  <fix>3d</fix>
</trkpt>
<trkpt lat="33.8110404" lon="-118.3933072">
  <ele>-24.983</ele>
  <time>2026-09-02T22:09:01Z</time>
  <course>54.92</course>
  <speed>0.9765244492586962</speed>
  <fix>3d</fix>
</trkpt>
<trkpt lat="33.81104" lon="-118.3933084">
  <ele>-24.38</ele>
  <time>2026-09-02T22:09:01Z</time>
  <course>53.52</course>
  <speed>1.0</speed>
  <fix>3d</fix>
</trkpt>
<trkpt lat="33.8110409" lon="-118.3933064">
  <ele>-24.983</ele>
  <time>2026-09-02T22:09:01Z</time>
  <course>54.93</course>
  <speed>0.9765244492586962</speed>
  <fix>3d</fix>
</trkpt>
<trkpt lat="33.81104" lon="-118.3933084">
  <ele>-24.38</ele>
  <time>2026-09-02T22:09:01Z</time>
  <course>53.52</course>
  <speed>1.0</speed>
  <fix>3d</fix>
</trkpt>
<trkpt lat="33.8110415" lon="-118.3933055">
  <ele>-24.983</ele>
  <time>2026-09-02T22:09:01Z</time>
  <course>54.95</course>
  <speed>0.9765244492586962</speed>
  <fix>3d</fix>
</trkpt>
<trkpt lat="33.811041" lon="-118.3933067">
  <ele>-24.38</ele>
  <time>2026-09-02T22:09:01Z</time>
  <course>53.56</course>
  <speed>1.0</speed>
  <fix>3d</fix>
</trkpt>
<trkpt lat="33.811042" lon="-118.3933046">
  <ele>-24.983</ele>
  <time>2026-09-02T22:09:01Z</time>
  <course>54.96</course>
  <speed>0.9765244492586962</speed>
  <fix>3d</fix>
</trkpt>
<trkpt lat="33.811041" lon="-118.3933067">
  <ele>-24.38</ele>
  <time>2026-09-02T22:09:01Z</time>
  <course>53.56</course>
  <speed>1.0</speed>
  <fix>3d</fix>
</trkpt>
<trkpt lat="33.8110425" lon="-118.3933037">
  <ele>-24.983</ele>
  <time>2026-09-02T22:09:01Z</time>
  <course>54.96</course>
  <speed>0.9765244492586962</speed>
  <fix>3d</fix>
</trkpt>
<trkpt lat="33.8110421" lon="-118.3933049">
  <ele>-24.38</ele>
  <time>2026-09-02T22:09:01Z</time>
  <course>53.59</course>
  <speed>1.0</speed>
  <fix>3d</fix>
</trkpt>
<trkpt lat="33.8110431" lon="-118.3933029">
  <ele>-24.984</ele>
  <time>2026-09-02T22:09:01Z</time>
  <course>54.96</course>
  <speed>0.9765244492586962</speed>
  <fix>3d</fix>
</trkpt>
<trkpt lat="33.8110421" lon="-118.3933049">
  <ele>-24.38</ele>
  <time>2026-09-02T22:09:01Z</time>
  <course>53.59</course>
  <speed>1.0</speed>
  <fix>3d</fix>
</trkpt>
<trkpt lat="33.8110436" lon="-118.393302">
  <ele>-24.985</ele>
  <time>2026-09-02T22:09:01Z</time>
  <course>54.95</course>
  <speed>0.9765244492586962</speed>
  <fix>3d</fix>
</trkpt>
<trkpt lat="33.8110432" lon="-118.3933032">
  <ele>-24.38</ele>
  <time>2026-09-02T22:09:01Z</time>
  <course>53.57</course>
  <speed>1.0</speed>
  <fix>3d</fix>
</trkpt>
<trkpt lat="33.8110441" lon="-118.3933011">
  <ele>-24.986</ele>
  <time>2026-09-02T22:09:01Z</time>
  <course>54.95</course>
  <speed>0.9765244492586962</speed>
  <fix>3d</fix>
</trkpt>
<trkpt lat="33.8110432" lon="-118.3933032">
  <ele>-24.38</ele>
  <time>2026-09-02T22:09:01Z</time>
  <course>53.57</course>
  <speed>1.0</speed>
  <fix>3d</fix>
</trkpt>
<trkpt lat="33.8110447" lon="-118.3933003">
  <ele>-24.987</ele>
  <time>2026-09-02T22:09:01Z</time>
  <course>54.95</course>
  <speed>0.9765244492586962</speed>
  <fix>3d</fix>
</trkpt>
<trkpt lat="33.8110442" lon="-118.3933014">
  <ele>-24.38</ele>
  <time>2026-09-02T22:09:01Z</time>
  <course>53.57</course>
  <speed>1.0</speed>
  <fix>3d</fix>
</trkpt>
<trkpt lat="33.8110452" lon="-118.3932994">
  <ele>-24.988</ele>
  <time>2026-09-02T22:09:01Z</time>
  <course>54.94</course>
  <speed>0.9765244492586962</speed>
  <fix>3d</fix>
</trkpt>
<trkpt lat="33.8110442" lon="-118.3933014">
  <ele>-24.38</ele>
  <time>2026-09-02T22:09:01Z</time>
  <course>53.57</course>
  <speed>1.0</speed>
  <fix>3d</fix>
</trkpt>
<trkpt lat="33.8110458" lon="-118.3932985">
  <ele>-24.988</ele>
  <time>2026-09-02T22:09:01Z</time>
  <course>54.93</course>
  <speed>0.9765244492586962</speed>
  <fix>3d</fix>
</trkpt>
<trkpt lat="33.8110453" lon="-118.3932997">
  <ele>-24.38</ele>
  <time>2026-09-02T22:09:01Z</time>
  <course>53.55</course>
  <speed>1.0</speed>
  <fix>3d</fix>
</trkpt>
<trkpt lat="33.8110463" lon="-118.3932976">
  <ele>-24.986</ele>
  <time>2026-09-02T22:09:01Z</time>
  <course>54.91</course>
  <speed>0.9765244492586962</speed>
  <fix>3d</fix>
</trkpt>
<trkpt lat="33.8110453" lon="-118.3932997">
  <ele>-24.38</ele>
  <time>2026-09-02T22:09:01Z</time>
  <course>53.55</course>
  <speed>1.0</speed>
  <fix>3d</fix>
</trkpt>
<trkpt lat="33.8110468" lon="-118.3932968">
  <ele>-24.985</ele>
  <time>2026-09-02T22:09:01Z</time>
  <course>54.9</course>
  <speed>0.9765244492586962</speed>
  <fix>3d</fix>
</trkpt>
<trkpt lat="33.8110463" lon="-118.3932979">
  <ele>-24.38</ele>
  <time>2026-09-02T22:09:01Z</time>
  <course>53.52</course>
  <speed>1.0</speed>
  <fix>3d</fix>
</trkpt>
<trkpt lat="33.8110474" lon="-118.3932959">
  <ele>-24.984</ele>
  <time>2026-09-02T22:09:01Z</time>
  <course>54.88</course>
  <speed>0.9765244492586962</speed>
  <fix>3d</fix>
</trkpt>
<trkpt lat="33.8110463" lon="-118.3932979">
  <ele>-24.38</ele>
  <time>2026-09-02T22:09:01Z</time>
  <course>53.52</course>
  <speed>1.0</speed>
  <fix>3d</fix>
</trkpt>
<trkpt lat="33.8110479" lon="-118.393295">
  <ele>-24.984</ele>
  <time>2026-09-02T22:09:01Z</time>
  <course>54.84</course>
  <speed>0.9765244492586962</speed>
  <fix>3d</fix>
</trkpt>
<trkpt lat="33.8110474" lon="-118.3932962">
  <ele>-24.38</ele>
  <time>2026-09-02T22:09:01Z</time>
  <course>53.47</course>
  <speed>1.0</speed>
  <fix>3d</fix>
</trkpt>
<trkpt lat="33.8110484" lon="-118.3932942">
  <ele>-24.984</ele>
  <time>2026-09-02T22:09:01Z</time>
  <course>54.8</course>
  <speed>0.9765244492586962</speed>
  <fix>3d</fix>
</trkpt>
<trkpt lat="33.8110474" lon="-118.3932962">
  <ele>-24.38</ele>
  <time>2026-09-02T22:09:01Z</time>
  <course>53.47</course>
  <speed>1.0</speed>
  <fix>3d</fix>
</trkpt>
<trkpt lat="33.811049" lon="-118.3932933">
  <ele>-24.985</ele>
  <time>2026-09-02T22:09:01Z</time>
  <course>54.76</course>
  <speed>0.9765244492586962</speed>
  <fix>3d</fix>
</trkpt>
<trkpt lat="33.8110485" lon="-118.3932945">
  <ele>-24.38</ele>
  <time>2026-09-02T22:09:01Z</time>
  <course>53.4</course>
  <speed>1.0</speed>
  <fix>3d</fix>
</trkpt>
<trkpt lat="33.8110495" lon="-118.3932924">
  <ele>-24.986</ele>
  <time>2026-09-02T22:09:01Z</time>
  <course>54.74</course>
  <speed>0.9765244492586962</speed>
  <fix>3d</fix>
</trkpt>
<trkpt lat="33.8110485" lon="-118.3932945">
  <ele>-24.38</ele>
  <time>2026-09-02T22:09:01Z</time>
  <course>53.4</course>
  <speed>1.0</speed>
  <fix>3d</fix>
</trkpt>
<trkpt lat="33.81105" lon="-118.3932915">
  <ele>-24.987</ele>
  <time>2026-09-02T22:09:01Z</time>
  <course>54.73</course>
  <speed>0.9765244492586962</speed>
  <fix>3d</fix>
</trkpt>
<trkpt lat="33.8110495" lon="-118.3932927">
  <ele>-24.38</ele>
  <time>2026-09-02T22:09:01Z</time>
  <course>53.38</course>
  <speed>1.0</speed>
  <fix>3d</fix>
</trkpt>
<trkpt lat="33.8110506" lon="-118.3932907">
  <ele>-24.987</ele>
  <time>2026-09-02T22:09:01Z</time>
  <course>54.72</course>
  <speed>0.9765244492586962</speed>
  <fix>3d</fix>
</trkpt>
<trkpt lat="33.8110495" lon="-118.3932927">
  <ele>-24.38</ele>
  <time>2026-09-02T22:09:01Z</time>
  <course>53.38</course>
  <speed>1.0</speed>
  <fix>3d</fix>
</trkpt>
<trkpt lat="33.8110511" lon="-118.3932898">
  <ele>-24.986</ele>
  <time>2026-09-02T22:09:01Z</time>
  <course>54.71</course>
  <speed>0.9765244492586962</speed>
  <fix>3d</fix>
</trkpt>
<trkpt lat="33.8110506" lon="-118.393291">
  <ele>-24.38</ele>
  <time>2026-09-02T22:09:01Z</time>
  <course>53.36</course>
  <speed>1.0</speed>
  <fix>3d</fix>
</trkpt>
<trkpt lat="33.8110516" lon="-118.3932889">
  <ele>-24.985</ele>
  <time>2026-09-02T22:09:01Z</time>
  <course>54.69</course>
  <speed>0.9765244492586962</speed>
  <fix>3d</fix>
</trkpt>
<trkpt lat="33.8110506" lon="-118.393291">
  <ele>-24.38</ele>
  <time>2026-09-02T22:09:01Z</time>
  <course>53.36</course>
  <speed>1.0</speed>
  <fix>3d</fix>
</trkpt>
<trkpt lat="33.8110522" lon="-118.3932881">
  <ele>-24.986</ele>
  <time>2026-09-02T22:09:01Z</time>
  <course>54.68</course>
  <speed>0.9765244492586962</speed>
  <fix>3d</fix>
</trkpt>
<trkpt lat="33.8110517" lon="-118.3932893">
  <ele>-24.38</ele>
  <time>2026-09-02T22:09:01Z</time>
  <course>53.33</course>
  <speed>1.0</speed>
  <fix>3d</fix>
</trkpt>
<trkpt lat="33.8110527" lon="-118.3932872">
  <ele>-24.987</ele>
  <time>2026-09-02T22:09:01Z</time>
  <course>54.67</course>
  <speed>0.9765244492586962</speed>
  <fix>3d</fix>
</trkpt>
<trkpt lat="33.8110517" lon="-118.3932893">
  <ele>-24.38</ele>
  <time>2026-09-02T22:09:01Z</time>
  <course>53.33</course>
  <speed>1.0</speed>
  <fix>3d</fix>
</trkpt>
<trkpt lat="33.8110532" lon="-118.3932863">
  <ele>-24.988</ele>
  <time>2026-09-02T22:09:01Z</time>
  <course>54.68</course>
  <speed>0.9765244492586962</speed>
  <fix>3d</fix>
</trkpt>
<trkpt lat="33.8110528" lon="-118.3932875">
  <ele>-24.38</ele>
  <time>2026-09-02T22:09:01Z</time>
  <course>53.35</course>
  <speed>1.0</speed>
  <fix>3d</fix>
</trkpt>
<trkpt lat="33.8110538" lon="-118.3932855">
  <ele>-24.988</ele>
  <time>2026-09-02T22:09:01Z</time>
  <course>54.7</course>
  <speed>0.9765244492586962</speed>
  <fix>3d</fix>
</trkpt>
<trkpt lat="33.8110528" lon="-118.3932875">
  <ele>-24.38</ele>
  <time>2026-09-02T22:09:01Z</time>
  <course>53.35</course>
  <speed>1.0</speed>
  <fix>3d</fix>
</trkpt>
<trkpt lat="33.8110543" lon="-118.3932846">
  <ele>-24.988</ele>
  <time>2026-09-02T22:09:01Z</time>
  <course>54.72</course>
  <speed>0.9765244492586962</speed>
  <fix>3d</fix>
</trkpt>
<trkpt lat="33.8110539" lon="-118.3932858">
  <ele>-24.38</ele>
  <time>2026-09-02T22:09:01Z</time>
  <course>53.39</course>
  <speed>1.0</speed>
  <fix>3d</fix>
</trkpt>
<trkpt lat="33.8110548" lon="-118.3932837">
  <ele>-24.986</ele>
  <time>2026-09-02T22:09:01Z</time>
  <course>54.75</course>
  <speed>0.9765244492586962</speed>
  <fix>3d</fix>
</trkpt>
<trkpt lat="33.8110539" lon="-118.3932858">
  <ele>-24.38</ele>
  <time>2026-09-02T22:09:01Z</time>
  <course>53.39</course>
  <speed>1.0</speed>
  <fix>3d</fix>
</trkpt>
<trkpt lat="33.8110554" lon="-118.3932828">
  <ele>-24.983</ele>
  <time>2026-09-02T22:09:01Z</time>
  <course>54.79</course>
  <speed>0.9765244492586962</speed>
  <fix>3d</fix>
</trkpt>
<trkpt lat="33.8110549" lon="-118.3932841">
  <ele>-24.38</ele>
  <time>2026-09-02T22:09:01Z</time>
  <course>53.44</course>
  <speed>1.0</speed>
  <fix>3d</fix>
</trkpt>
<trkpt lat="33.8110559" lon="-118.393282">
  <ele>-24.982</ele>
  <time>2026-09-02T22:09:01Z</time>
  <course>54.83</course>
  <speed>0.9765244492586962</speed>
  <fix>3d</fix>
</trkpt>
<trkpt lat="33.8110549" lon="-118.3932841">
  <ele>-24.38</ele>
  <time>2026-09-02T22:09:01Z</time>
  <course>53.44</course>
  <speed>1.0</speed>
  <fix>3d</fix>
</trkpt>
<trkpt lat="33.8110564" lon="-118.3932811">
  <ele>-24.982</ele>
  <time>2026-09-02T22:09:01Z</time>
  <course>54.86</course>
  <speed>0.9765244492586962</speed>
  <fix>3d</fix>
</trkpt>
<trkpt lat="33.811056" lon="-118.3932823">
  <ele>-24.38</ele>
  <time>2026-09-02T22:09:01Z</time>
  <course>53.48</course>
  <speed>1.0</speed>
  <fix>3d</fix>
</trkpt>
<trkpt lat="33.811057" lon="-118.3932802">
  <ele>-24.983</ele>
  <time>2026-09-02T22:09:01Z</time>
  <course>54.88</course>
  <speed>0.9765244492586962</speed>
  <fix>3d</fix>
</trkpt>
<trkpt lat="33.811056" lon="-118.3932823">
  <ele>-24.38</ele>
  <time>2026-09-02T22:09:01Z</time>
  <course>53.48</course>
  <speed>1.0</speed>
  <fix>3d</fix>
</trkpt>
<trkpt lat="33.8110575" lon="-118.3932794">
  <ele>-24.985</ele>
  <time>2026-09-02T22:09:01Z</time>
  <course>54.9</course>
  <speed>0.9765244492586962</speed>
  <fix>3d</fix>
</trkpt>
<trkpt lat="33.8110571" lon="-118.3932806">
  <ele>-24.38</ele>
  <time>2026-09-02T22:09:01Z</time>
  <course>53.49</course>
  <speed>1.0</speed>
  <fix>3d</fix>
</trkpt>
<trkpt lat="33.8110581" lon="-118.3932785">
  <ele>-24.987</ele>
  <time>2026-09-02T22:09:01Z</time>
  <course>54.91</course>
  <speed>0.9765244492586962</speed>
  <fix>3d</fix>
</trkpt>
<trkpt lat="33.8110571" lon="-118.3932806">
  <ele>-24.38</ele>
  <time>2026-09-02T22:09:01Z</time>
  <course>53.49</course>
  <speed>1.0</speed>
  <fix>3d</fix>
</trkpt>
<trkpt lat="33.8110586" lon="-118.3932776">
  <ele>-24.989</ele>
  <time>2026-09-02T22:09:01Z</time>
  <course>54.92</course>
  <speed>0.9765244492586962</speed>
  <fix>3d</fix>
</trkpt>
<trkpt lat="33.8110581" lon="-118.3932788">
  <ele>-24.38</ele>
  <time>2026-09-02T22:09:01Z</time>
  <course>53.51</course>
  <speed>1.0</speed>
  <fix>3d</fix>
</trkpt>
<trkpt lat="33.8110591" lon="-118.3932768">
  <ele>-24.989</ele>
  <time>2026-09-02T22:09:01Z</time>
  <course>54.93</course>
  <speed>0.9765244492586962</speed>
  <fix>3d</fix>
</trkpt>
<trkpt lat="33.8110581" lon="-118.3932788">
  <ele>-24.38</ele>
  <time>2026-09-02T22:09:01Z</time>
  <course>53.51</course>
  <speed>1.0</speed>
  <fix>3d</fix>
</trkpt>
<trkpt lat="33.8110597" lon="-118.3932759">
  <ele>-24.988</ele>
  <time>2026-09-02T22:09:01Z</time>
  <course>54.93</course>
  <speed>0.9765244492586962</speed>
  <fix>3d</fix>
</trkpt>
<trkpt lat="33.8110592" lon="-118.3932771">
  <ele>-24.38</ele>
  <time>2026-09-02T22:09:01Z</time>
  <course>53.51</course>
  <speed>1.0</speed>
  <fix>3d</fix>
</trkpt>
<trkpt lat="33.8110602" lon="-118.393275">
  <ele>-24.988</ele>
  <time>2026-09-02T22:09:01Z</time>
  <course>54.91</course>
  <speed>0.9765244492586962</speed>
  <fix>3d</fix>
</trkpt>
<trkpt lat="33.8110592" lon="-118.3932771">
  <ele>-24.38</ele>
  <time>2026-09-02T22:09:01Z</time>
  <course>53.51</course>
  <speed>1.0</speed>
  <fix>3d</fix>
</trkpt>
<trkpt lat="33.8110607" lon="-118.3932742">
  <ele>-24.988</ele>
  <time>2026-09-02T22:09:01Z</time>
  <course>54.9</course>
  <speed>0.9765244492586962</speed>
  <fix>3d</fix>
</trkpt>
<trkpt lat="33.8110603" lon="-118.3932754">
  <ele>-24.38</ele>
  <time>2026-09-02T22:09:01Z</time>
  <course>53.47</course>
  <speed>1.0</speed>
  <fix>3d</fix>
</trkpt>
<trkpt lat="33.8110613" lon="-118.3932733">
  <ele>-24.989</ele>
  <time>2026-09-02T22:09:01Z</time>
  <course>54.9</course>
  <speed>0.9765244492586962</speed>
  <fix>3d</fix>
</trkpt>
<trkpt lat="33.8110603" lon="-118.3932754">
  <ele>-24.38</ele>
  <time>2026-09-02T22:09:01Z</time>
  <course>53.47</course>
  <speed>1.0</speed>
  <fix>3d</fix>
</trkpt>
<trkpt lat="33.8110618" lon="-118.3932724">
  <ele>-24.989</ele>
  <time>2026-09-02T22:09:01Z</time>
  <course>54.92</course>
  <speed>0.9765244492586962</speed>
  <fix>3d</fix>
</trkpt>
<trkpt lat="33.8110614" lon="-118.3932736">
  <ele>-24.38</ele>
  <time>2026-09-02T22:09:01Z</time>
  <course>53.48</course>
  <speed>1.0</speed>
  <fix>3d</fix>
</trkpt>
<trkpt lat="33.8110623" lon="-118.3932716">
  <ele>-24.988</ele>
  <time>2026-09-02T22:09:01Z</time>
  <course>54.94</course>
  <speed>0.9765244492586962</speed>
  <fix>3d</fix>
</trkpt>
<trkpt lat="33.8110614" lon="-118.3932736">
  <ele>-24.38</ele>
  <time>2026-09-02T22:09:01Z</time>
  <course>53.48</course>
  <speed>1.0</speed>
  <fix>3d</fix>
</trkpt>
<trkpt lat="33.8110629" lon="-118.3932707">
  <ele>-24.987</ele>
  <time>2026-09-02T22:09:01Z</time>
  <course>54.97</course>
  <speed>0.9765244492586962</speed>
  <fix>3d</fix>
</trkpt>
<trkpt lat="33.8110624" lon="-118.3932719">
  <ele>-24.38</ele>
  <time>2026-09-02T22:09:01Z</time>
  <course>53.53</course>
  <speed>1.0</speed>
  <fix>3d</fix>
</trkpt>
<trkpt lat="33.8110634" lon="-118.3932698">
  <ele>-24.985</ele>
  <time>2026-09-02T22:09:01Z</time>
  <course>54.98</course>
  <speed>0.9765244492586962</speed>
  <fix>3d</fix>
</trkpt>
<trkpt lat="33.8110624" lon="-118.3932719">
  <ele>-24.38</ele>
  <time>2026-09-02T22:09:01Z</time>
  <course>53.53</course>
  <speed>1.0</speed>
  <fix>3d</fix>
</trkpt>
<trkpt lat="33.8110639" lon="-118.393269">
  <ele>-24.983</ele>
  <time>2026-09-02T22:09:01Z</time>
  <course>55.0</course>
  <speed>0.9765244492586962</speed>
  <fix>3d</fix>
</trkpt>
<trkpt lat="33.8110635" lon="-118.3932701">
  <ele>-24.37</ele>
  <time>2026-09-02T22:09:01Z</time>
  <course>53.56</course>
  <speed>1.0</speed>
  <fix>3d</fix>
</trkpt>
<trkpt lat="33.8110645" lon="-118.3932681">
  <ele>-24.981</ele>
  <time>2026-09-02T22:09:01Z</time>
  <course>55.0</course>
  <speed>0.9765244492586962</speed>
  <fix>3d</fix>
</trkpt>
<trkpt lat="33.8110635" lon="-118.3932701">
  <ele>-24.37</ele>
  <time>2026-09-02T22:09:01Z</time>
  <course>53.56</course>
  <speed>1.0</speed>
  <fix>3d</fix>
</trkpt>
<trkpt lat="33.811065" lon="-118.3932672">
  <ele>-24.981</ele>
  <time>2026-09-02T22:09:01Z</time>
  <course>54.99</course>
  <speed>0.9765244492586962</speed>
  <fix>3d</fix>
</trkpt>
<trkpt lat="33.8110646" lon="-118.3932684">
  <ele>-24.37</ele>
  <time>2026-09-02T22:09:01Z</time>
  <course>53.55</course>
  <speed>1.0</speed>
  <fix>3d</fix>
</trkpt>
<trkpt lat="33.8110655" lon="-118.3932663">
  <ele>-24.981</ele>
  <time>2026-09-02T22:09:01Z</time>
  <course>54.99</course>
  <speed>0.9765244492586962</speed>
  <fix>3d</fix>
</trkpt>
<trkpt lat="33.8110646" lon="-118.3932684">
  <ele>-24.37</ele>
  <time>2026-09-02T22:09:01Z</time>
  <course>53.55</course>
  <speed>1.0</speed>
  <fix>3d</fix>
</trkpt>
<trkpt lat="33.8110661" lon="-118.3932655">
  <ele>-24.982</ele>
  <time>2026-09-02T22:09:01Z</time>
  <course>55.0</course>
  <speed>0.9765244492586962</speed>
  <fix>3d</fix>
</trkpt>
<trkpt lat="33.8110657" lon="-118.3932666">
  <ele>-24.37</ele>
  <time>2026-09-02T22:09:01Z</time>
  <course>53.55</course>
  <speed>1.0</speed>
  <fix>3d</fix>
</trkpt>
<trkpt lat="33.8110666" lon="-118.3932646">
  <ele>-24.982</ele>
  <time>2026-09-02T22:09:01Z</time>
  <course>55.01</course>
  <speed>0.9765244492586962</speed>
  <fix>3d</fix>
</trkpt>
<trkpt lat="33.8110657" lon="-118.3932666">
  <ele>-24.37</ele>
  <time>2026-09-02T22:09:01Z</time>
  <course>53.55</course>
  <speed>1.0</speed>
  <fix>3d</fix>
</trkpt>
<trkpt lat="33.8110671" lon="-118.3932637">
  <ele>-24.983</ele>
  <time>2026-09-02T22:09:01Z</time>
  <course>55.02</course>
  <speed>0.9765244492586962</speed>
  <fix>3d</fix>
</trkpt>
<trkpt lat="33.8110667" lon="-118.3932648">
  <ele>-24.37</ele>
  <time>2026-09-02T22:09:01Z</time>
  <course>53.57</course>
  <speed>1.0</speed>
  <fix>3d</fix>
</trkpt>
<trkpt lat="33.8110677" lon="-118.3932629">
  <ele>-24.985</ele>
  <time>2026-09-02T22:09:01Z</time>
  <course>55.03</course>
  <speed>0.9765244492586962</speed>
  <fix>3d</fix>
</trkpt>
<trkpt lat="33.8110667" lon="-118.3932648">
  <ele>-24.37</ele>
  <time>2026-09-02T22:09:01Z</time>
  <course>53.57</course>
  <speed>1.0</speed>
  <fix>3d</fix>
</trkpt>
<trkpt lat="33.8110682" lon="-118.393262">
  <ele>-24.986</ele>
  <time>2026-09-02T22:09:01Z</time>
  <course>55.02</course>
  <speed>0.9765244492586962</speed>
  <fix>3d</fix>
</trkpt>
<trkpt lat="33.8110678" lon="-118.393263">
  <ele>-24.38</ele>
  <time>2026-09-02T22:09:01Z</time>
  <course>53.55</course>
  <speed>1.0</speed>
  <fix>3d</fix>
</trkpt>
<trkpt lat="33.8110688" lon="-118.3932611">
  <ele>-24.987</ele>
  <time>2026-09-02T22:09:01Z</time>
  <course>55.0</course>
  <speed>0.9765244492586962</speed>
  <fix>3d</fix>
</trkpt>
<trkpt lat="33.8110678" lon="-118.393263">
  <ele>-24.38</ele>
  <time>2026-09-02T22:09:01Z</time>
  <course>53.55</course>
  <speed>1.0</speed>
  <fix>3d</fix>
</trkpt>
<trkpt lat="33.8110693" lon="-118.3932602">
  <ele>-24.987</ele>
  <time>2026-09-02T22:09:01Z</time>
  <course>54.96</course>
  <speed>0.9765244492586962</speed>
  <fix>3d</fix>
</trkpt>
<trkpt lat="33.8110689" lon="-118.3932613">
  <ele>-24.38</ele>
  <time>2026-09-02T22:09:01Z</time>
  <course>53.49</course>
  <speed>1.0</speed>
  <fix>3d</fix>
</trkpt>
<trkpt lat="33.8110698" lon="-118.3932593">
  <ele>-24.986</ele>
  <time>2026-09-02T22:09:01Z</time>
  <course>54.93</course>
  <speed>0.9765244492586962</speed>
  <fix>3d</fix>
</trkpt>
<trkpt lat="33.8110689" lon="-118.3932613">
  <ele>-24.38</ele>
  <time>2026-09-02T22:09:01Z</time>
  <course>53.49</course>
  <speed>1.0</speed>
  <fix>3d</fix>
</trkpt>
<trkpt lat="33.8110704" lon="-118.3932585">
  <ele>-24.984</ele>
  <time>2026-09-02T22:09:01Z</time>
  <course>54.9</course>
  <speed>0.9765244492586962</speed>
  <fix>3d</fix>
</trkpt>
<trkpt lat="33.81107" lon="-118.3932596">
  <ele>-24.38</ele>
  <time>2026-09-02T22:09:01Z</time>
  <course>53.45</course>
  <speed>1.0</speed>
  <fix>3d</fix>
</trkpt>
<trkpt lat="33.8110709" lon="-118.3932576">
  <ele>-24.984</ele>
  <time>2026-09-02T22:09:01Z</time>
  <course>54.89</course>
  <speed>0.9765244492586962</speed>
  <fix>3d</fix>
</trkpt>
<trkpt lat="33.81107" lon="-118.3932596">
  <ele>-24.38</ele>
  <time>2026-09-02T22:09:01Z</time>
  <course>53.45</course>
  <speed>1.0</speed>
  <fix>3d</fix>
</trkpt>
<trkpt lat="33.8110714" lon="-118.3932567">
  <ele>-24.983</ele>
  <time>2026-09-02T22:09:01Z</time>
  <course>54.89</course>
  <speed>0.9765244492586962</speed>
  <fix>3d</fix>
</trkpt>
<trkpt lat="33.811071" lon="-118.3932579">
  <ele>-24.37</ele>
  <time>2026-09-02T22:09:01Z</time>
  <course>53.46</course>
  <speed>1.0</speed>
  <fix>3d</fix>
</trkpt>
<trkpt lat="33.811072" lon="-118.3932559">
  <ele>-24.983</ele>
  <time>2026-09-02T22:09:01Z</time>
  <course>54.91</course>
  <speed>0.9765244492586962</speed>
  <fix>3d</fix>
</trkpt>
<trkpt lat="33.811071" lon="-118.3932579">
  <ele>-24.37</ele>
  <time>2026-09-02T22:09:01Z</time>
  <course>53.46</course>
  <speed>1.0</speed>
  <fix>3d</fix>
</trkpt>
<trkpt lat="33.8110725" lon="-118.393255">
  <ele>-24.983</ele>
  <time>2026-09-02T22:09:01Z</time>
  <course>54.92</course>
  <speed>0.9765244492586962</speed>
  <fix>3d</fix>
</trkpt>
<trkpt lat="33.8110721" lon="-118.3932561">
  <ele>-24.37</ele>
  <time>2026-09-02T22:09:01Z</time>
  <course>53.49</course>
  <speed>1.0</speed>
  <fix>3d</fix>
</trkpt>
<trkpt lat="33.811073" lon="-118.3932541">
  <ele>-24.982</ele>
  <time>2026-09-02T22:09:01Z</time>
  <course>54.92</course>
  <speed>0.9765244492586962</speed>
  <fix>3d</fix>
</trkpt>
<trkpt lat="33.8110721" lon="-118.3932561">
  <ele>-24.37</ele>
  <time>2026-09-02T22:09:01Z</time>
  <course>53.49</course>
  <speed>1.0</speed>
  <fix>3d</fix>
</trkpt>
<trkpt lat="33.8110736" lon="-118.3932533">
  <ele>-24.982</ele>
  <time>2026-09-02T22:09:01Z</time>
  <course>54.93</course>
  <speed>0.9765244492586962</speed>
  <fix>3d</fix>
</trkpt>
<trkpt lat="33.8110732" lon="-118.3932544">
  <ele>-24.38</ele>
  <time>2026-09-02T22:09:01Z</time>
  <course>53.51</course>
  <speed>1.0</speed>
  <fix>3d</fix>
</trkpt>
<trkpt lat="33.8110741" lon="-118.3932524">
  <ele>-24.983</ele>
  <time>2026-09-02T22:09:01Z</time>
  <course>54.93</course>
  <speed>0.9765244492586962</speed>
  <fix>3d</fix>
</trkpt>
<trkpt lat="33.8110732" lon="-118.3932544">
  <ele>-24.38</ele>
  <time>2026-09-02T22:09:01Z</time>
  <course>53.51</course>
  <speed>1.0</speed>
  <fix>3d</fix>
</trkpt>
<trkpt lat="33.8110746" lon="-118.3932515">
  <ele>-24.984</ele>
  <time>2026-09-02T22:09:01Z</time>
  <course>54.95</course>
  <speed>0.9765244492586962</speed>
  <fix>3d</fix>
</trkpt>
<trkpt lat="33.8110743" lon="-118.3932526">
  <ele>-24.38</ele>
  <time>2026-09-02T22:09:01Z</time>
  <course>53.53</course>
  <speed>1.0</speed>
  <fix>3d</fix>
</trkpt>
<trkpt lat="33.8110752" lon="-118.3932506">
  <ele>-24.984</ele>
  <time>2026-09-02T22:09:02Z</time>
  <course>54.96</course>
  <speed>0.9765244492586962</speed>
  <fix>3d</fix>
</trkpt>
<trkpt lat="33.8110743" lon="-118.3932526">
  <ele>-24.38</ele>
  <time>2026-09-02T22:09:02Z</time>
  <course>53.53</course>
  <speed>1.0</speed>
  <fix>3d</fix>
</trkpt>
<trkpt lat="33.8110757" lon="-118.3932498">
  <ele>-24.984</ele>
  <time>2026-09-02T22:09:02Z</time>
  <course>54.99</course>
  <speed>0.9765244492586962</speed>
  <fix>3d</fix>
</trkpt>
<trkpt lat="33.8110753" lon="-118.3932509">
  <ele>-24.38</ele>
  <time>2026-09-02T22:09:02Z</time>
  <course>53.55</course>
  <speed>1.0</speed>
  <fix>3d</fix>
</trkpt>
<trkpt lat="33.8110763" lon="-118.3932489">
  <ele>-24.985</ele>
  <time>2026-09-02T22:09:02Z</time>
  <course>55.0</course>
  <speed>0.9765244492586962</speed>
  <fix>3d</fix>
</trkpt>
<trkpt lat="33.8110753" lon="-118.3932509">
  <ele>-24.38</ele>
  <time>2026-09-02T22:09:02Z</time>
  <course>53.55</course>
  <speed>1.0</speed>
  <fix>3d</fix>
</trkpt>
<trkpt lat="33.8110768" lon="-118.393248">
  <ele>-24.985</ele>
  <time>2026-09-02T22:09:02Z</time>
  <course>55.0</course>
  <speed>0.9765244492586962</speed>
  <fix>3d</fix>
</trkpt>
<trkpt lat="33.8110764" lon="-118.3932491">
  <ele>-24.38</ele>
  <time>2026-09-02T22:09:02Z</time>
  <course>53.56</course>
  <speed>1.0</speed>
  <fix>3d</fix>
</trkpt>
<trkpt lat="33.8110773" lon="-118.3932472">
  <ele>-24.986</ele>
  <time>2026-09-02T22:09:02Z</time>
  <course>55.0</course>
  <speed>0.9765244492586962</speed>
  <fix>3d</fix>
</trkpt>
<trkpt lat="33.8110764" lon="-118.3932491">
  <ele>-24.38</ele>
  <time>2026-09-02T22:09:02Z</time>
  <course>53.56</course>
  <speed>1.0</speed>
  <fix>3d</fix>
</trkpt>
<trkpt lat="33.8110779" lon="-118.3932463">
  <ele>-24.988</ele>
  <time>2026-09-02T22:09:02Z</time>
  <course>55.0</course>
  <speed>0.9765244492586962</speed>
  <fix>3d</fix>
</trkpt>
<trkpt lat="33.8110774" lon="-118.3932474">
  <ele>-24.38</ele>
  <time>2026-09-02T22:09:02Z</time>
  <course>53.53</course>
  <speed>1.0</speed>
  <fix>3d</fix>
</trkpt>
<trkpt lat="33.8110784" lon="-118.3932454">
  <ele>-24.988</ele>
  <time>2026-09-02T22:09:02Z</time>
  <course>54.98</course>
  <speed>0.9765244492586962</speed>
  <fix>3d</fix>
</trkpt>
<trkpt lat="33.8110774" lon="-118.3932474">
  <ele>-24.38</ele>
  <time>2026-09-02T22:09:02Z</time>
  <course>53.53</course>
  <speed>1.0</speed>
  <fix>3d</fix>
</trkpt>
<trkpt lat="33.8110789" lon="-118.3932445">
  <ele>-24.988</ele>
  <time>2026-09-02T22:09:02Z</time>
  <course>54.96</course>
  <speed>0.9765244492586962</speed>
  <fix>3d</fix>
</trkpt>
<trkpt lat="33.8110785" lon="-118.3932456">
  <ele>-24.38</ele>
  <time>2026-09-02T22:09:02Z</time>
  <course>53.49</course>
  <speed>1.0</speed>
  <fix>3d</fix>
</trkpt>
<trkpt lat="33.8110795" lon="-118.3932437">
  <ele>-24.988</ele>
  <time>2026-09-02T22:09:02Z</time>
  <course>54.93</course>
  <speed>0.9765244492586962</speed>
  <fix>3d</fix>
</trkpt>
<trkpt lat="33.8110785" lon="-118.3932456">
  <ele>-24.38</ele>
  <time>2026-09-02T22:09:02Z</time>
  <course>53.49</course>
  <speed>1.0</speed>
  <fix>3d</fix>
</trkpt>
<trkpt lat="33.81108" lon="-118.3932428">
  <ele>-24.988</ele>
  <time>2026-09-02T22:09:02Z</time>
  <course>54.9</course>
  <speed>0.9765244492586962</speed>
  <fix>3d</fix>
</trkpt>
<trkpt lat="33.8110796" lon="-118.3932439">
  <ele>-24.38</ele>
  <time>2026-09-02T22:09:02Z</time>
  <course>53.43</course>
  <speed>1.0</speed>
  <fix>3d</fix>
</trkpt>
<trkpt lat="33.8110805" lon="-118.3932419">
  <ele>-24.987</ele>
  <time>2026-09-02T22:09:02Z</time>
  <course>54.88</course>
  <speed>0.9765244492586962</speed>
  <fix>3d</fix>
</trkpt>
<trkpt lat="33.8110796" lon="-118.3932439">
  <ele>-24.38</ele>
  <time>2026-09-02T22:09:02Z</time>
  <course>53.43</course>
  <speed>1.0</speed>
  <fix>3d</fix>
</trkpt>
<trkpt lat="33.8110811" lon="-118.3932411">
  <ele>-24.985</ele>
  <time>2026-09-02T22:09:02Z</time>
  <course>54.86</course>
  <speed>0.9765244492586962</speed>
  <fix>3d</fix>
</trkpt>
<trkpt lat="33.8110807" lon="-118.3932422">
  <ele>-24.38</ele>
  <time>2026-09-02T22:09:02Z</time>
  <course>53.39</course>
  <speed>1.0</speed>
  <fix>3d</fix>
</trkpt>
<trkpt lat="33.8110816" lon="-118.3932402">
  <ele>-24.984</ele>
  <time>2026-09-02T22:09:02Z</time>
  <course>54.86</course>
  <speed>0.9765244492586962</speed>
  <fix>3d</fix>
</trkpt>
<trkpt lat="33.8110807" lon="-118.3932422">
  <ele>-24.38</ele>
  <time>2026-09-02T22:09:02Z</time>
  <course>53.39</course>
  <speed>1.0</speed>
  <fix>3d</fix>
</trkpt>
<trkpt lat="33.8110821" lon="-118.3932393">
  <ele>-24.982</ele>
  <time>2026-09-02T22:09:02Z</time>
  <course>54.88</course>
  <speed>0.9765244492586962</speed>
  <fix>3d</fix>
</trkpt>
<trkpt lat="33.8110817" lon="-118.3932404">
  <ele>-24.37</ele>
  <time>2026-09-02T22:09:02Z</time>
  <course>53.42</course>
  <speed>1.0</speed>
  <fix>3d</fix>
</trkpt>
<trkpt lat="33.8110827" lon="-118.3932384">
  <ele>-24.981</ele>
  <time>2026-09-02T22:09:02Z</time>
  <course>54.89</course>
  <speed>0.9765244492586962</speed>
  <fix>3d</fix>
</trkpt>
<trkpt lat="33.8110817" lon="-118.3932404">
  <ele>-24.37</ele>
  <time>2026-09-02T22:09:02Z</time>
  <course>53.42</course>
  <speed>1.0</speed>
  <fix>3d</fix>
</trkpt>
<trkpt lat="33.8110832" lon="-118.3932376">
  <ele>-24.981</ele>
  <time>2026-09-02T22:09:02Z</time>
  <course>54.9</course>
  <speed>0.9765244492586962</speed>
  <fix>3d</fix>
</trkpt>
<trkpt lat="33.8110828" lon="-118.3932387">
  <ele>-24.37</ele>
  <time>2026-09-02T22:09:02Z</time>
  <course>53.45</course>
  <speed>1.0</speed>
  <fix>3d</fix>
</trkpt>
<trkpt lat="33.8110837" lon="-118.3932367">
  <ele>-24.982</ele>
  <time>2026-09-02T22:09:02Z</time>
  <course>54.9</course>
  <speed>0.9765244492586962</speed>
  <fix>3d</fix>
</trkpt>
<trkpt lat="33.8110828" lon="-118.3932387">
  <ele>-24.37</ele>
  <time>2026-09-02T22:09:02Z</time>
  <course>53.45</course>
  <speed>1.0</speed>
  <fix>3d</fix>
</trkpt>
<trkpt lat="33.8110843" lon="-118.3932358">
  <ele>-24.981</ele>
  <time>2026-09-02T22:09:02Z</time>
  <course>54.9</course>
  <speed>0.9765244492586962</speed>
  <fix>3d</fix>
</trkpt>
<trkpt lat="33.8110839" lon="-118.393237">
  <ele>-24.37</ele>
  <time>2026-09-02T22:09:02Z</time>
  <course>53.44</course>
  <speed>1.0</speed>
  <fix>3d</fix>
</trkpt>
<trkpt lat="33.8110848" lon="-118.393235">
  <ele>-24.981</ele>
  <time>2026-09-02T22:09:02Z</time>
  <course>54.9</course>
  <speed>0.9765244492586962</speed>
  <fix>3d</fix>
</trkpt>
<trkpt lat="33.8110839" lon="-118.393237">
  <ele>-24.37</ele>
  <time>2026-09-02T22:09:02Z</time>
  <course>53.44</course>
  <speed>1.0</speed>
  <fix>3d</fix>
</trkpt>
<trkpt lat="33.8110854" lon="-118.3932341">
  <ele>-24.981</ele>
  <time>2026-09-02T22:09:02Z</time>
  <course>54.92</course>
  <speed>0.9765244492586962</speed>
  <fix>3d</fix>
</trkpt>
<trkpt lat="33.811085" lon="-118.3932352">
  <ele>-24.37</ele>
  <time>2026-09-02T22:09:02Z</time>
  <course>53.46</course>
  <speed>1.0</speed>
  <fix>3d</fix>
</trkpt>
<trkpt lat="33.8110859" lon="-118.3932332">
  <ele>-24.982</ele>
  <time>2026-09-02T22:09:02Z</time>
  <course>54.95</course>
  <speed>0.9765244492586962</speed>
  <fix>3d</fix>
</trkpt>
<trkpt lat="33.811085" lon="-118.3932352">
  <ele>-24.37</ele>
  <time>2026-09-02T22:09:02Z</time>
  <course>53.46</course>
  <speed>1.0</speed>
  <fix>3d</fix>
</trkpt>
<trkpt lat="33.8110864" lon="-118.3932324">
  <ele>-24.983</ele>
  <time>2026-09-02T22:09:02Z</time>
  <course>54.98</course>
  <speed>0.9765244492586962</speed>
  <fix>3d</fix>
</trkpt>
<trkpt lat="33.811086" lon="-118.3932335">
  <ele>-24.38</ele>
  <time>2026-09-02T22:09:02Z</time>
  <course>53.53</course>
  <speed>1.0</speed>
  <fix>3d</fix>
</trkpt>
<trkpt lat="33.811087" lon="-118.3932315">
  <ele>-24.985</ele>
  <time>2026-09-02T22:09:02Z</time>
  <course>55.0</course>
  <speed>0.9765244492586962</speed>
  <fix>3d</fix>
</trkpt>
<trkpt lat="33.811086" lon="-118.3932335">
  <ele>-24.38</ele>
  <time>2026-09-02T22:09:02Z</time>
  <course>53.53</course>
  <speed>1.0</speed>
  <fix>3d</fix>
</trkpt>
<trkpt lat="33.8110875" lon="-118.3932306">
  <ele>-24.987</ele>
  <time>2026-09-02T22:09:02Z</time>
  <course>55.02</course>
  <speed>0.9765244492586962</speed>
  <fix>3d</fix>
</trkpt>
<trkpt lat="33.8110871" lon="-118.3932317">
  <ele>-24.38</ele>
  <time>2026-09-02T22:09:02Z</time>
  <course>53.57</course>
  <speed>0.99</speed>
  <fix>3d</fix>
</trkpt>
<trkpt lat="33.811088" lon="-118.3932297">
  <ele>-24.987</ele>
  <time>2026-09-02T22:09:02Z</time>
  <course>55.02</course>
  <speed>0.9765244492586962</speed>
  <fix>3d</fix>
</trkpt>
<trkpt lat="33.8110871" lon="-118.3932317">
  <ele>-24.38</ele>
  <time>2026-09-02T22:09:02Z</time>
  <course>53.57</course>
  <speed>0.99</speed>
  <fix>3d</fix>
</trkpt>
<trkpt lat="33.8110886" lon="-118.3932289">
  <ele>-24.987</ele>
  <time>2026-09-02T22:09:02Z</time>
  <course>55.01</course>
  <speed>0.9765244492586962</speed>
  <fix>3d</fix>
</trkpt>
<trkpt lat="33.8110882" lon="-118.39323">
  <ele>-24.38</ele>
  <time>2026-09-02T22:09:02Z</time>
  <course>53.55</course>
  <speed>0.99</speed>
  <fix>3d</fix>
</trkpt>
<trkpt lat="33.8110891" lon="-118.393228">
  <ele>-24.985</ele>
  <time>2026-09-02T22:09:02Z</time>
  <course>55.0</course>
  <speed>0.9765244492586962</speed>
  <fix>3d</fix>
</trkpt>
<trkpt lat="33.8110882" lon="-118.39323">
  <ele>-24.38</ele>
  <time>2026-09-02T22:09:02Z</time>
  <course>53.55</course>
  <speed>0.99</speed>
  <fix>3d</fix>
</trkpt>
<trkpt lat="33.8110896" lon="-118.3932271">
  <ele>-24.985</ele>
  <time>2026-09-02T22:09:02Z</time>
  <course>55.0</course>
  <speed>0.9765244492586962</speed>
  <fix>3d</fix>
</trkpt>
<trkpt lat="33.8110892" lon="-118.3932283">
  <ele>-24.38</ele>
  <time>2026-09-02T22:09:02Z</time>
  <course>53.56</course>
  <speed>0.99</speed>
  <fix>3d</fix>
</trkpt>
<trkpt lat="33.8110902" lon="-118.3932263">
  <ele>-24.984</ele>
  <time>2026-09-02T22:09:02Z</time>
  <course>55.01</course>
  <speed>0.9765244492586962</speed>
  <fix>3d</fix>
</trkpt>
<trkpt lat="33.8110892" lon="-118.3932283">
  <ele>-24.38</ele>
  <time>2026-09-02T22:09:02Z</time>
  <course>53.56</course>
  <speed>0.99</speed>
  <fix>3d</fix>
</trkpt>
<trkpt lat="33.8110907" lon="-118.3932254">
  <ele>-24.983</ele>
  <time>2026-09-02T22:09:02Z</time>
  <course>55.02</course>
  <speed>0.9765244492586962</speed>
  <fix>3d</fix>
</trkpt>
<trkpt lat="33.8110903" lon="-118.3932265">
  <ele>-24.38</ele>
  <time>2026-09-02T22:09:02Z</time>
  <course>53.57</course>
  <speed>0.99</speed>
  <fix>3d</fix>
</trkpt>
<trkpt lat="33.8110912" lon="-118.3932245">
  <ele>-24.983</ele>
  <time>2026-09-02T22:09:02Z</time>
  <course>55.02</course>
  <speed>0.9765244492586962</speed>
  <fix>3d</fix>
</trkpt>
<trkpt lat="33.8110903" lon="-118.3932265">
  <ele>-24.38</ele>
  <time>2026-09-02T22:09:02Z</time>
  <course>53.57</course>
  <speed>0.99</speed>
  <fix>3d</fix>
</trkpt>
<trkpt lat="33.8110918" lon="-118.3932236">
  <ele>-24.983</ele>
  <time>2026-09-02T22:09:02Z</time>
  <course>55.01</course>
  <speed>0.9765244492586962</speed>
  <fix>3d</fix>
</trkpt>
<trkpt lat="33.8110913" lon="-118.3932247">
  <ele>-24.38</ele>
  <time>2026-09-02T22:09:02Z</time>
  <course>53.55</course>
  <speed>0.99</speed>
  <fix>3d</fix>
</trkpt>
<trkpt lat="33.8110923" lon="-118.3932228">
  <ele>-24.983</ele>
  <time>2026-09-02T22:09:02Z</time>
  <course>54.98</course>
  <speed>0.9765244492586962</speed>
  <fix>3d</fix>
</trkpt>
<trkpt lat="33.8110913" lon="-118.3932247">
  <ele>-24.38</ele>
  <time>2026-09-02T22:09:02Z</time>
  <course>53.55</course>
  <speed>0.99</speed>
  <fix>3d</fix>
</trkpt>
<trkpt lat="33.8110928" lon="-118.3932219">
  <ele>-24.983</ele>
  <time>2026-09-02T22:09:02Z</time>
  <course>54.95</course>
  <speed>0.9765244492586962</speed>
  <fix>3d</fix>
</trkpt>
<trkpt lat="33.8110924" lon="-118.393223">
  <ele>-24.38</ele>
  <time>2026-09-02T22:09:02Z</time>
  <course>53.49</course>
  <speed>0.99</speed>
  <fix>3d</fix>
</trkpt>
<trkpt lat="33.8110934" lon="-118.393221">
  <ele>-24.984</ele>
  <time>2026-09-02T22:09:02Z</time>
  <course>54.9</course>
  <speed>0.9765244492586962</speed>
  <fix>3d</fix>
</trkpt>
<trkpt lat="33.8110924" lon="-118.393223">
  <ele>-24.38</ele>
  <time>2026-09-02T22:09:02Z</time>
  <course>53.49</course>
  <speed>0.99</speed>
  <fix>3d</fix>
</trkpt>
<trkpt lat="33.8110939" lon="-118.3932202">
  <ele>-24.984</ele>
  <time>2026-09-02T22:09:02Z</time>
  <course>54.86</course>
  <speed>0.9765244492586962</speed>
  <fix>3d</fix>
</trkpt>
<trkpt lat="33.8110935" lon="-118.3932213">
  <ele>-24.38</ele>
  <time>2026-09-02T22:09:02Z</time>
  <course>53.42</course>
  <speed>0.99</speed>
  <fix>3d</fix>
</trkpt>
<trkpt lat="33.8110944" lon="-118.3932193">
  <ele>-24.984</ele>
  <time>2026-09-02T22:09:02Z</time>
  <course>54.83</course>
  <speed>0.9765244492586962</speed>
  <fix>3d</fix>
</trkpt>
<trkpt lat="33.8110935" lon="-118.3932213">
  <ele>-24.38</ele>
  <time>2026-09-02T22:09:02Z</time>
  <course>53.42</course>
  <speed>0.99</speed>
  <fix>3d</fix>
</trkpt>
<trkpt lat="33.811095" lon="-118.3932184">
  <ele>-24.984</ele>
  <time>2026-09-02T22:09:02Z</time>
  <course>54.82</course>
  <speed>0.9765244492586962</speed>
  <fix>3d</fix>
</trkpt>
<trkpt lat="33.8110945" lon="-118.3932196">
  <ele>-24.38</ele>
  <time>2026-09-02T22:09:02Z</time>
  <course>53.4</course>
  <speed>0.99</speed>
  <fix>3d</fix>
</trkpt>
<trkpt lat="33.8110955" lon="-118.3932176">
  <ele>-24.984</ele>
  <time>2026-09-02T22:09:02Z</time>
  <course>54.81</course>
  <speed>0.9765244492586962</speed>
  <fix>3d</fix>
</trkpt>
<trkpt lat="33.8110945" lon="-118.3932196">
  <ele>-24.38</ele>
  <time>2026-09-02T22:09:02Z</time>
  <course>53.4</course>
  <speed>0.99</speed>
  <fix>3d</fix>
</trkpt>
<trkpt lat="33.811096" lon="-118.3932167">
  <ele>-24.984</ele>
  <time>2026-09-02T22:09:02Z</time>
  <course>54.81</course>
  <speed>0.9765244492586962</speed>
  <fix>3d</fix>
</trkpt>
<trkpt lat="33.8110956" lon="-118.3932178">
  <ele>-24.38</ele>
  <time>2026-09-02T22:09:02Z</time>
  <course>53.4</course>
  <speed>0.99</speed>
  <fix>3d</fix>
</trkpt>
<trkpt lat="33.8110966" lon="-118.3932158">
  <ele>-24.984</ele>
  <time>2026-09-02T22:09:02Z</time>
  <course>54.8</course>
  <speed>0.9765244492586962</speed>
  <fix>3d</fix>
</trkpt>
<trkpt lat="33.8110956" lon="-118.3932178">
  <ele>-24.38</ele>
  <time>2026-09-02T22:09:02Z</time>
  <course>53.4</course>
  <speed>0.99</speed>
  <fix>3d</fix>
</trkpt>
<trkpt lat="33.8110971" lon="-118.3932149">
  <ele>-24.984</ele>
  <time>2026-09-02T22:09:02Z</time>
  <course>54.8</course>
  <speed>0.9765244492586962</speed>
  <fix>3d</fix>
</trkpt>
<trkpt lat="33.8110967" lon="-118.3932161">
  <ele>-24.38</ele>
  <time>2026-09-02T22:09:02Z</time>
  <course>53.39</course>
  <speed>0.99</speed>
  <fix>3d</fix>
</trkpt>
<trkpt lat="33.8110976" lon="-118.3932141">
  <ele>-24.984</ele>
  <time>2026-09-02T22:09:02Z</time>
  <course>54.78</course>
  <speed>0.9765244492586962</speed>
  <fix>3d</fix>
</trkpt>
<trkpt lat="33.8110967" lon="-118.3932161">
  <ele>-24.38</ele>
  <time>2026-09-02T22:09:02Z</time>
  <course>53.39</course>
  <speed>0.99</speed>
  <fix>3d</fix>
</trkpt>
<trkpt lat="33.8110982" lon="-118.3932132">
  <ele>-24.983</ele>
  <time>2026-09-02T22:09:02Z</time>
  <course>54.79</course>
  <speed>0.9765244492586962</speed>
  <fix>3d</fix>
</trkpt>
<trkpt lat="33.8110978" lon="-118.3932144">
  <ele>-24.38</ele>
  <time>2026-09-02T22:09:02Z</time>
  <course>53.39</course>
  <speed>0.99</speed>
  <fix>3d</fix>
</trkpt>
<trkpt lat="33.8110987" lon="-118.3932123">
  <ele>-24.983</ele>
  <time>2026-09-02T22:09:02Z</time>
  <course>54.81</course>
  <speed>0.9765244492586962</speed>
  <fix>3d</fix>
</trkpt>
<trkpt lat="33.8110978" lon="-118.3932144">
  <ele>-24.38</ele>
  <time>2026-09-02T22:09:02Z</time>
  <course>53.39</course>
  <speed>0.99</speed>
  <fix>3d</fix>
</trkpt>
<trkpt lat="33.8110993" lon="-118.3932115">
  <ele>-24.982</ele>
  <time>2026-09-02T22:09:02Z</time>
  <course>54.85</course>
  <speed>0.9765244492586962</speed>
  <fix>3d</fix>
</trkpt>
<trkpt lat="33.8110988" lon="-118.3932126">
  <ele>-24.38</ele>
  <time>2026-09-02T22:09:02Z</time>
  <course>53.44</course>
  <speed>0.99</speed>
  <fix>3d</fix>
</trkpt>
<trkpt lat="33.8110998" lon="-118.3932106">
  <ele>-24.982</ele>
  <time>2026-09-02T22:09:02Z</time>
  <course>54.89</course>
  <speed>0.9765244492586962</speed>
  <fix>3d</fix>
</trkpt>
<trkpt lat="33.8110988" lon="-118.3932126">
  <ele>-24.38</ele>
  <time>2026-09-02T22:09:02Z</time>
  <course>53.44</course>
  <speed>0.99</speed>
  <fix>3d</fix>
</trkpt>
<trkpt lat="33.8111003" lon="-118.3932097">
  <ele>-24.983</ele>
  <time>2026-09-02T22:09:02Z</time>
  <course>54.91</course>
  <speed>0.9765244492586962</speed>
  <fix>3d</fix>
</trkpt>
<trkpt lat="33.8110999" lon="-118.3932109">
  <ele>-24.38</ele>
  <time>2026-09-02T22:09:02Z</time>
  <course>53.48</course>
  <speed>0.99</speed>
  <fix>3d</fix>
</trkpt>
<trkpt lat="33.8111009" lon="-118.3932089">
  <ele>-24.984</ele>
  <time>2026-09-02T22:09:02Z</time>
  <course>54.91</course>
  <speed>0.9765244492586962</speed>
  <fix>3d</fix>
</trkpt>
<trkpt lat="33.8110999" lon="-118.3932109">
  <ele>-24.38</ele>
  <time>2026-09-02T22:09:02Z</time>
  <course>53.48</course>
  <speed>0.99</speed>
  <fix>3d</fix>
</trkpt>
<trkpt lat="33.8111014" lon="-118.393208">
  <ele>-24.985</ele>
  <time>2026-09-02T22:09:02Z</time>
  <course>54.91</course>
  <speed>0.9765244492586962</speed>
  <fix>3d</fix>
</trkpt>
<trkpt lat="33.811101" lon="-118.3932092">
  <ele>-24.38</ele>
  <time>2026-09-02T22:09:02Z</time>
  <course>53.47</course>
  <speed>0.99</speed>
  <fix>3d</fix>
</trkpt>
<trkpt lat="33.8111019" lon="-118.3932071">
  <ele>-24.986</ele>
  <time>2026-09-02T22:09:02Z</time>
  <course>54.92</course>
  <speed>0.9765244492586962</speed>
  <fix>3d</fix>
</trkpt>
<trkpt lat="33.811101" lon="-118.3932092">
  <ele>-24.38</ele>
  <time>2026-09-02T22:09:02Z</time>
  <course>53.47</course>
  <speed>0.99</speed>
  <fix>3d</fix>
</trkpt>
<trkpt lat="33.8111025" lon="-118.3932062">
  <ele>-24.987</ele>
  <time>2026-09-02T22:09:02Z</time>
  <course>54.95</course>
  <speed>0.9765244492586962</speed>
  <fix>3d</fix>
</trkpt>
<trkpt lat="33.8111021" lon="-118.3932074">
  <ele>-24.38</ele>
  <time>2026-09-02T22:09:02Z</time>
  <course>53.5</course>
  <speed>0.99</speed>
  <fix>3d</fix>
</trkpt>
<trkpt lat="33.811103" lon="-118.3932054">
  <ele>-24.987</ele>
  <time>2026-09-02T22:09:02Z</time>
  <course>54.97</course>
  <speed>0.9765244492586962</speed>
  <fix>3d</fix>
</trkpt>
<trkpt lat="33.8111021" lon="-118.3932074">
  <ele>-24.38</ele>
  <time>2026-09-02T22:09:02Z</time>
  <course>53.5</course>
  <speed>0.99</speed>
  <fix>3d</fix>
</trkpt>
<trkpt lat="33.8111035" lon="-118.3932045">
  <ele>-24.986</ele>
  <time>2026-09-02T22:09:02Z</time>
  <course>55.01</course>
  <speed>0.9765244492586962</speed>
  <fix>3d</fix>
</trkpt>
<trkpt lat="33.8111031" lon="-118.3932057">
  <ele>-24.38</ele>
  <time>2026-09-02T22:09:02Z</time>
  <course>53.56</course>
  <speed>0.99</speed>
  <fix>3d</fix>
</trkpt>
<trkpt lat="33.8111041" lon="-118.3932036">
  <ele>-24.986</ele>
  <time>2026-09-02T22:09:02Z</time>
  <course>55.03</course>
  <speed>0.9765244492586962</speed>
  <fix>3d</fix>
</trkpt>
<trkpt lat="33.8111031" lon="-118.3932057">
  <ele>-24.38</ele>
  <time>2026-09-02T22:09:02Z</time>
  <course>53.56</course>
  <speed>0.99</speed>
  <fix>3d</fix>
</trkpt>
<trkpt lat="33.8111046" lon="-118.3932028">
  <ele>-24.986</ele>
  <time>2026-09-02T22:09:02Z</time>
  <course>55.05</course>
  <speed>0.9765244492586962</speed>
  <fix>3d</fix>
</trkpt>
<trkpt lat="33.8111042" lon="-118.393204">
  <ele>-24.38</ele>
  <time>2026-09-02T22:09:02Z</time>
  <course>53.59</course>
  <speed>0.99</speed>
  <fix>3d</fix>
</trkpt>
<trkpt lat="33.8111051" lon="-118.3932019">
  <ele>-24.987</ele>
  <time>2026-09-02T22:09:02Z</time>
  <course>55.06</course>
  <speed>0.9765244492586962</speed>
  <fix>3d</fix>
</trkpt>
<trkpt lat="33.8111042" lon="-118.393204">
  <ele>-24.38</ele>
  <time>2026-09-02T22:09:02Z</time>
  <course>53.59</course>
  <speed>0.99</speed>
  <fix>3d</fix>
</trkpt>
<trkpt lat="33.8111057" lon="-118.393201">
  <ele>-24.988</ele>
  <time>2026-09-02T22:09:02Z</time>
  <course>55.08</course>
  <speed>0.9765244492586962</speed>
  <fix>3d</fix>
</trkpt>
<trkpt lat="33.8111052" lon="-118.3932022">
  <ele>-24.38</ele>
  <time>2026-09-02T22:09:02Z</time>
  <course>53.6</course>
  <speed>0.99</speed>
  <fix>3d</fix>
</trkpt>
<trkpt lat="33.8111062" lon="-118.3932002">
  <ele>-24.988</ele>
  <time>2026-09-02T22:09:02Z</time>
  <course>55.08</course>
  <speed>0.9765244492586962</speed>
  <fix>3d</fix>
</trkpt>
<trkpt lat="33.8111052" lon="-118.3932022">
  <ele>-24.38</ele>
  <time>2026-09-02T22:09:02Z</time>
  <course>53.6</course>
  <speed>0.99</speed>
  <fix>3d</fix>
</trkpt>
<trkpt lat="33.8111067" lon="-118.3931993">
  <ele>-24.988</ele>
  <time>2026-09-02T22:09:02Z</time>
  <course>55.08</course>
  <speed>0.9765244492586962</speed>
  <fix>3d</fix>
</trkpt>
<trkpt lat="33.8111063" lon="-118.3932005">
  <ele>-24.38</ele>
  <time>2026-09-02T22:09:02Z</time>
  <course>53.59</course>
  <speed>0.99</speed>
  <fix>3d</fix>
</trkpt>
<trkpt lat="33.8111073" lon="-118.3931984">
  <ele>-24.988</ele>
  <time>2026-09-02T22:09:02Z</time>
  <course>55.06</course>
  <speed>0.9765244492586962</speed>
  <fix>3d</fix>
</trkpt>
<trkpt lat="33.8111063" lon="-118.3932005">
  <ele>-24.38</ele>
  <time>2026-09-02T22:09:02Z</time>
  <course>53.59</course>
  <speed>0.99</speed>
  <fix>3d</fix>
</trkpt>
<trkpt lat="33.8111078" lon="-118.3931976">
  <ele>-24.986</ele>
  <time>2026-09-02T22:09:02Z</time>
  <course>55.04</course>
  <speed>0.9765244492586962</speed>
  <fix>3d</fix>
</trkpt>
<trkpt lat="33.8111074" lon="-118.3931987">
  <ele>-24.37</ele>
  <time>2026-09-02T22:09:02Z</time>
  <course>53.55</course>
  <speed>1.0</speed>
  <fix>3d</fix>
</trkpt>
<trkpt lat="33.8111083" lon="-118.3931967">
  <ele>-24.984</ele>
  <time>2026-09-02T22:09:02Z</time>
  <course>55.03</course>
  <speed>0.9765244492586962</speed>
  <fix>3d</fix>
</trkpt>
<trkpt lat="33.8111074" lon="-118.3931987">
  <ele>-24.37</ele>
  <time>2026-09-02T22:09:02Z</time>
  <course>53.55</course>
  <speed>1.0</speed>
  <fix>3d</fix>
</trkpt>
<trkpt lat="33.8111089" lon="-118.3931958">
  <ele>-24.981</ele>
  <time>2026-09-02T22:09:02Z</time>
  <course>55.02</course>
  <speed>0.9765244492586962</speed>
  <fix>3d</fix>
</trkpt>
<trkpt lat="33.8111085" lon="-118.393197">
  <ele>-24.37</ele>
  <time>2026-09-02T22:09:02Z</time>
  <course>53.56</course>
  <speed>1.0</speed>
  <fix>3d</fix>
</trkpt>
<trkpt lat="33.8111094" lon="-118.3931949">
  <ele>-24.979</ele>
  <time>2026-09-02T22:09:02Z</time>
  <course>55.02</course>
  <speed>0.9765244492586962</speed>
  <fix>3d</fix>
</trkpt>
<trkpt lat="33.8111085" lon="-118.393197">
  <ele>-24.37</ele>
  <time>2026-09-02T22:09:02Z</time>
  <course>53.56</course>
  <speed>1.0</speed>
  <fix>3d</fix>
</trkpt>
<trkpt lat="33.81111" lon="-118.3931941">
  <ele>-24.978</ele>
  <time>2026-09-02T22:09:02Z</time>
  <course>55.03</course>
  <speed>0.9765244492586962</speed>
  <fix>3d</fix>
</trkpt>
<trkpt lat="33.8111095" lon="-118.3931953">
  <ele>-24.37</ele>
  <time>2026-09-02T22:09:02Z</time>
  <course>53.6</course>
  <speed>0.99</speed>
  <fix>3d</fix>
</trkpt>
<trkpt lat="33.8111105" lon="-118.3931932">
  <ele>-24.979</ele>
  <time>2026-09-02T22:09:02Z</time>
  <course>55.04</course>
  <speed>0.9765244492586962</speed>
  <fix>3d</fix>
</trkpt>
<trkpt lat="33.8111095" lon="-118.3931953">
  <ele>-24.37</ele>
  <time>2026-09-02T22:09:02Z</time>
  <course>53.6</course>
  <speed>0.99</speed>
  <fix>3d</fix>
</trkpt>
<trkpt lat="33.811111" lon="-118.3931923">
  <ele>-24.98</ele>
  <time>2026-09-02T22:09:02Z</time>
  <course>55.06</course>
  <speed>0.9765244492586962</speed>
  <fix>3d</fix>
</trkpt>
<trkpt lat="33.8111106" lon="-118.3931935">
  <ele>-24.37</ele>
  <time>2026-09-02T22:09:02Z</time>
  <course>53.63</course>
  <speed>0.99</speed>
  <fix>3d</fix>
</trkpt>
<trkpt lat="33.8111116" lon="-118.3931915">
  <ele>-24.981</ele>
  <time>2026-09-02T22:09:02Z</time>
  <course>55.06</course>
  <speed>0.9765244492586962</speed>
  <fix>3d</fix>
</trkpt>
<trkpt lat="33.8111106" lon="-118.3931935">
  <ele>-24.37</ele>
  <time>2026-09-02T22:09:02Z</time>
  <course>53.63</course>
  <speed>0.99</speed>
  <fix>3d</fix>
</trkpt>
<trkpt lat="33.8111121" lon="-118.3931906">
  <ele>-24.981</ele>
  <time>2026-09-02T22:09:02Z</time>
  <course>55.07</course>
  <speed>0.9765244492586962</speed>
  <fix>3d</fix>
</trkpt>
<trkpt lat="33.8111117" lon="-118.3931918">
  <ele>-24.37</ele>
  <time>2026-09-02T22:09:02Z</time>
  <course>53.63</course>
  <speed>0.99</speed>
  <fix>3d</fix>
</trkpt>
<trkpt lat="33.8111126" lon="-118.3931897">
  <ele>-24.981</ele>
  <time>2026-09-02T22:09:02Z</time>
  <course>55.06</course>
  <speed>0.9765244492586962</speed>
  <fix>3d</fix>
</trkpt>
<trkpt lat="33.8111117" lon="-118.3931918">
  <ele>-24.37</ele>
  <time>2026-09-02T22:09:02Z</time>
  <course>53.63</course>
  <speed>0.99</speed>
  <fix>3d</fix>
</trkpt>
<trkpt lat="33.8111132" lon="-118.3931888">
  <ele>-24.981</ele>
  <time>2026-09-02T22:09:02Z</time>
  <course>55.07</course>
  <speed>0.9765244492586962</speed>
  <fix>3d</fix>
</trkpt>
<trkpt lat="33.8111127" lon="-118.39319">
  <ele>-24.37</ele>
  <time>2026-09-02T22:09:02Z</time>
  <course>53.65</course>
  <speed>0.99</speed>
  <fix>3d</fix>
</trkpt>
<trkpt lat="33.8111137" lon="-118.393188">
  <ele>-24.981</ele>
  <time>2026-09-02T22:09:02Z</time>
  <course>55.07</course>
  <speed>0.9765244492586962</speed>
  <fix>3d</fix>
</trkpt>
<trkpt lat="33.8111127" lon="-118.39319">
  <ele>-24.37</ele>
  <time>2026-09-02T22:09:02Z</time>
  <course>53.65</course>
  <speed>0.99</speed>
  <fix>3d</fix>
</trkpt>
<trkpt lat="33.8111142" lon="-118.3931871">
  <ele>-24.981</ele>
  <time>2026-09-02T22:09:02Z</time>
  <course>55.06</course>
  <speed>0.9765244492586962</speed>
  <fix>3d</fix>
</trkpt>
<trkpt lat="33.8111138" lon="-118.3931883">
  <ele>-24.37</ele>
  <time>2026-09-02T22:09:02Z</time>
  <course>53.65</course>
  <speed>0.99</speed>
  <fix>3d</fix>
</trkpt>
<trkpt lat="33.8111148" lon="-118.3931862">
  <ele>-24.982</ele>
  <time>2026-09-02T22:09:02Z</time>
  <course>55.04</course>
  <speed>0.9765244492586962</speed>
  <fix>3d</fix>
</trkpt>
<trkpt lat="33.8111138" lon="-118.3931883">
  <ele>-24.37</ele>
  <time>2026-09-02T22:09:02Z</time>
  <course>53.65</course>
  <speed>0.99</speed>
  <fix>3d</fix>
</trkpt>
<trkpt lat="33.8111153" lon="-118.3931854">
  <ele>-24.982</ele>
  <time>2026-09-02T22:09:02Z</time>
  <course>55.03</course>
  <speed>0.9765244492586962</speed>
  <fix>3d</fix>
</trkpt>
<trkpt lat="33.8111148" lon="-118.3931866">
  <ele>-24.37</ele>
  <time>2026-09-02T22:09:02Z</time>
  <course>53.61</course>
  <speed>0.99</speed>
  <fix>3d</fix>
</trkpt>
<trkpt lat="33.8111158" lon="-118.3931845">
  <ele>-24.983</ele>
  <time>2026-09-02T22:09:02Z</time>
  <course>55.01</course>
  <speed>0.9765244492586962</speed>
  <fix>3d</fix>
</trkpt>
<trkpt lat="33.8111148" lon="-118.3931866">
  <ele>-24.37</ele>
  <time>2026-09-02T22:09:02Z</time>
  <course>53.61</course>
  <speed>0.99</speed>
  <fix>3d</fix>
</trkpt>
<trkpt lat="33.8111164" lon="-118.3931836">
  <ele>-24.984</ele>
  <time>2026-09-02T22:09:02Z</time>
  <course>54.99</course>
  <speed>0.9765244492586962</speed>
  <fix>3d</fix>
</trkpt>
<trkpt lat="33.8111159" lon="-118.3931848">
  <ele>-24.37</ele>
  <time>2026-09-02T22:09:02Z</time>
  <course>53.58</course>
  <speed>1.0</speed>
  <fix>3d</fix>
</trkpt>
<trkpt lat="33.8111169" lon="-118.3931828">
  <ele>-24.984</ele>
  <time>2026-09-02T22:09:02Z</time>
  <course>54.97</course>
  <speed>0.9765244492586962</speed>
  <fix>3d</fix>
</trkpt>
<trkpt lat="33.8111159" lon="-118.3931848">
  <ele>-24.37</ele>
  <time>2026-09-02T22:09:02Z</time>
  <course>53.58</course>
  <speed>1.0</speed>
  <fix>3d</fix>
</trkpt>
<trkpt lat="33.8111174" lon="-118.3931819">
  <ele>-24.984</ele>
  <time>2026-09-02T22:09:02Z</time>
  <course>54.95</course>
  <speed>0.9765244492586962</speed>
  <fix>3d</fix>
</trkpt>
<trkpt lat="33.8111169" lon="-118.393183">
  <ele>-24.38</ele>
  <time>2026-09-02T22:09:02Z</time>
  <course>53.56</course>
  <speed>1.0</speed>
  <fix>3d</fix>
</trkpt>
<trkpt lat="33.811118" lon="-118.393181">
  <ele>-24.986</ele>
  <time>2026-09-02T22:09:02Z</time>
  <course>54.91</course>
  <speed>0.9765244492586962</speed>
  <fix>3d</fix>
</trkpt>
<trkpt lat="33.8111169" lon="-118.393183">
  <ele>-24.38</ele>
  <time>2026-09-02T22:09:02Z</time>
  <course>53.56</course>
  <speed>1.0</speed>
  <fix>3d</fix>
</trkpt>
<trkpt lat="33.8111185" lon="-118.3931801">
  <ele>-24.987</ele>
  <time>2026-09-02T22:09:02Z</time>
  <course>54.85</course>
  <speed>0.9765244492586962</speed>
  <fix>3d</fix>
</trkpt>
<trkpt lat="33.811118" lon="-118.3931813">
  <ele>-24.38</ele>
  <time>2026-09-02T22:09:02Z</time>
  <course>53.5</course>
  <speed>1.0</speed>
  <fix>3d</fix>
</trkpt>
<trkpt lat="33.811119" lon="-118.3931793">
  <ele>-24.986</ele>
  <time>2026-09-02T22:09:02Z</time>
  <course>54.8</course>
  <speed>0.9765244492586962</speed>
  <fix>3d</fix>
</trkpt>
<trkpt lat="33.811118" lon="-118.3931813">
  <ele>-24.38</ele>
  <time>2026-09-02T22:09:02Z</time>
  <course>53.5</course>
  <speed>1.0</speed>
  <fix>3d</fix>
</trkpt>
<trkpt lat="33.8111196" lon="-118.3931784">
  <ele>-24.984</ele>
  <time>2026-09-02T22:09:02Z</time>
  <course>54.75</course>
  <speed>0.9765244492586962</speed>
  <fix>3d</fix>
</trkpt>
<trkpt lat="33.8111191" lon="-118.3931796">
  <ele>-24.37</ele>
  <time>2026-09-02T22:09:02Z</time>
  <course>53.41</course>
  <speed>1.0</speed>
  <fix>3d</fix>
</trkpt>
<trkpt lat="33.8111201" lon="-118.3931775">
  <ele>-24.981</ele>
  <time>2026-09-02T22:09:02Z</time>
  <course>54.71</course>
  <speed>0.9765244492586962</speed>
  <fix>3d</fix>
</trkpt>
<trkpt lat="33.8111191" lon="-118.3931796">
  <ele>-24.37</ele>
  <time>2026-09-02T22:09:02Z</time>
  <course>53.41</course>
  <speed>1.0</speed>
  <fix>3d</fix>
</trkpt>
<trkpt lat="33.8111206" lon="-118.3931767">
  <ele>-24.98</ele>
  <time>2026-09-02T22:09:02Z</time>
  <course>54.7</course>
  <speed>0.9765244492586962</speed>
  <fix>3d</fix>
</trkpt>
<trkpt lat="33.8111202" lon="-118.3931779">
  <ele>-24.37</ele>
  <time>2026-09-02T22:09:02Z</time>
  <course>53.39</course>
  <speed>1.0</speed>
  <fix>3d</fix>
</trkpt>
<trkpt lat="33.8111212" lon="-118.3931758">
  <ele>-24.979</ele>
  <time>2026-09-02T22:09:02Z</time>
  <course>54.69</course>
  <speed>0.9765244492586962</speed>
  <fix>3d</fix>
</trkpt>
<trkpt lat="33.8111202" lon="-118.3931779">
  <ele>-24.37</ele>
  <time>2026-09-02T22:09:02Z</time>
  <course>53.39</course>
  <speed>1.0</speed>
  <fix>3d</fix>
</trkpt>
<trkpt lat="33.8111217" lon="-118.3931749">
  <ele>-24.979</ele>
  <time>2026-09-02T22:09:02Z</time>
  <course>54.71</course>
  <speed>0.9765244492586962</speed>
  <fix>3d</fix>
</trkpt>
<trkpt lat="33.8111212" lon="-118.3931761">
  <ele>-24.37</ele>
  <time>2026-09-02T22:09:02Z</time>
  <course>53.43</course>
  <speed>1.0</speed>
  <fix>3d</fix>
</trkpt>
<trkpt lat="33.8111222" lon="-118.393174">
  <ele>-24.979</ele>
  <time>2026-09-02T22:09:02Z</time>
  <course>54.73</course>
  <speed>0.9765244492586962</speed>
  <fix>3d</fix>
</trkpt>
<trkpt lat="33.8111212" lon="-118.3931761">
  <ele>-24.37</ele>
  <time>2026-09-02T22:09:02Z</time>
  <course>53.43</course>
  <speed>1.0</speed>
  <fix>3d</fix>
</trkpt>
<trkpt lat="33.8111228" lon="-118.3931732">
  <ele>-24.979</ele>
  <time>2026-09-02T22:09:02Z</time>
  <course>54.74</course>
  <speed>0.9765244492586962</speed>
  <fix>3d</fix>
</trkpt>
<trkpt lat="33.8111223" lon="-118.3931744">
  <ele>-24.37</ele>
  <time>2026-09-02T22:09:02Z</time>
  <course>53.47</course>
  <speed>1.0</speed>
  <fix>3d</fix>
</trkpt>
<trkpt lat="33.8111233" lon="-118.3931723">
  <ele>-24.981</ele>
  <time>2026-09-02T22:09:02Z</time>
  <course>54.73</course>
  <speed>0.9765244492586962</speed>
  <fix>3d</fix>
</trkpt>
<trkpt lat="33.8111223" lon="-118.3931744">
  <ele>-24.37</ele>
  <time>2026-09-02T22:09:02Z</time>
  <course>53.47</course>
  <speed>1.0</speed>
  <fix>3d</fix>
</trkpt>
<trkpt lat="33.8111238" lon="-118.3931714">
  <ele>-24.982</ele>
  <time>2026-09-02T22:09:02Z</time>
  <course>54.73</course>
  <speed>0.9765244492586962</speed>
  <fix>3d</fix>
</trkpt>
<trkpt lat="33.8111234" lon="-118.3931726">
  <ele>-24.37</ele>
  <time>2026-09-02T22:09:02Z</time>
  <course>53.47</course>
  <speed>1.0</speed>
  <fix>3d</fix>
</trkpt>
<trkpt lat="33.8111244" lon="-118.3931706">
  <ele>-24.983</ele>
  <time>2026-09-02T22:09:02Z</time>
  <course>54.73</course>
  <speed>0.9765244492586962</speed>
  <fix>3d</fix>
</trkpt>
<trkpt lat="33.8111234" lon="-118.3931726">
  <ele>-24.37</ele>
  <time>2026-09-02T22:09:02Z</time>
  <course>53.47</course>
  <speed>1.0</speed>
  <fix>3d</fix>
</trkpt>
<trkpt lat="33.8111249" lon="-118.3931697">
  <ele>-24.984</ele>
  <time>2026-09-02T22:09:02Z</time>
  <course>54.73</course>
  <speed>0.9765244492586962</speed>
  <fix>3d</fix>
</trkpt>
<trkpt lat="33.8111245" lon="-118.3931709">
  <ele>-24.37</ele>
  <time>2026-09-02T22:09:02Z</time>
  <course>53.46</course>
  <speed>1.0</speed>
  <fix>3d</fix>
</trkpt>
<trkpt lat="33.8111255" lon="-118.3931688">
  <ele>-24.985</ele>
  <time>2026-09-02T22:09:02Z</time>
  <course>54.74</course>
  <speed>0.9765244492586962</speed>
  <fix>3d</fix>
</trkpt>
<trkpt lat="33.8111245" lon="-118.3931709">
  <ele>-24.37</ele>
  <time>2026-09-02T22:09:02Z</time>
  <course>53.46</course>
  <speed>1.0</speed>
  <fix>3d</fix>
</trkpt>
<trkpt lat="33.811126" lon="-118.3931679">
  <ele>-24.985</ele>
  <time>2026-09-02T22:09:02Z</time>
  <course>54.76</course>
  <speed>0.9765244492586962</speed>
  <fix>3d</fix>
</trkpt>
<trkpt lat="33.8111255" lon="-118.3931691">
  <ele>-24.38</ele>
  <time>2026-09-02T22:09:02Z</time>
  <course>53.47</course>
  <speed>1.0</speed>
  <fix>3d</fix>
</trkpt>
<trkpt lat="33.8111265" lon="-118.3931671">
  <ele>-24.986</ele>
  <time>2026-09-02T22:09:02Z</time>
  <course>54.77</course>
  <speed>0.9765244492586962</speed>
  <fix>3d</fix>
</trkpt>
<trkpt lat="33.8111255" lon="-118.3931691">
  <ele>-24.38</ele>
  <time>2026-09-02T22:09:02Z</time>
  <course>53.47</course>
  <speed>1.0</speed>
  <fix>3d</fix>
</trkpt>
<trkpt lat="33.8111271" lon="-118.3931662">
  <ele>-24.986</ele>
  <time>2026-09-02T22:09:02Z</time>
  <course>54.77</course>
  <speed>0.9765244492586962</speed>
  <fix>3d</fix>
</trkpt>
<trkpt lat="33.8111266" lon="-118.3931674">
  <ele>-24.38</ele>
  <time>2026-09-02T22:09:02Z</time>
  <course>53.46</course>
  <speed>1.0</speed>
  <fix>3d</fix>
</trkpt>
<trkpt lat="33.8111276" lon="-118.3931653">
  <ele>-24.984</ele>
  <time>2026-09-02T22:09:02Z</time>
  <course>54.77</course>
  <speed>0.9765244492586962</speed>
  <fix>3d</fix>
</trkpt>
<trkpt lat="33.8111266" lon="-118.3931674">
  <ele>-24.38</ele>
  <time>2026-09-02T22:09:02Z</time>
  <course>53.46</course>
  <speed>1.0</speed>
  <fix>3d</fix>
</trkpt>
<trkpt lat="33.8111281" lon="-118.3931645">
  <ele>-24.982</ele>
  <time>2026-09-02T22:09:02Z</time>
  <course>54.77</course>
  <speed>0.9765244492586962</speed>
  <fix>3d</fix>
</trkpt>
<trkpt lat="33.8111277" lon="-118.3931657">
  <ele>-24.37</ele>
  <time>2026-09-02T22:09:02Z</time>
  <course>53.43</course>
  <speed>1.0</speed>
  <fix>3d</fix>
</trkpt>
<trkpt lat="33.8111287" lon="-118.3931636">
  <ele>-24.979</ele>
  <time>2026-09-02T22:09:02Z</time>
  <course>54.77</course>
  <speed>0.9765244492586962</speed>
  <fix>3d</fix>
</trkpt>
<trkpt lat="33.8111277" lon="-118.3931657">
  <ele>-24.37</ele>
  <time>2026-09-02T22:09:02Z</time>
  <course>53.43</course>
  <speed>1.0</speed>
  <fix>3d</fix>
</trkpt>
<trkpt lat="33.8111292" lon="-118.3931627">
  <ele>-24.977</ele>
  <time>2026-09-02T22:09:02Z</time>
  <course>54.79</course>
  <speed>0.9765244492586962</speed>
  <fix>3d</fix>
</trkpt>
<trkpt lat="33.8111288" lon="-118.3931639">
  <ele>-24.37</ele>
  <time>2026-09-02T22:09:02Z</time>
  <course>53.45</course>
  <speed>1.0</speed>
  <fix>3d</fix>
</trkpt>
<trkpt lat="33.8111297" lon="-118.3931619">
  <ele>-24.975</ele>
  <time>2026-09-02T22:09:02Z</time>
  <course>54.82</course>
  <speed>0.9765244492586962</speed>
  <fix>3d</fix>
</trkpt>
<trkpt lat="33.8111288" lon="-118.3931639">
  <ele>-24.37</ele>
  <time>2026-09-02T22:09:02Z</time>
  <course>53.45</course>
  <speed>1.0</speed>
  <fix>3d</fix>
</trkpt>
<trkpt lat="33.8111303" lon="-118.393161">
  <ele>-24.975</ele>
  <time>2026-09-02T22:09:02Z</time>
  <course>54.85</course>
  <speed>0.9765244492586962</speed>
  <fix>3d</fix>
</trkpt>
<trkpt lat="33.8111298" lon="-118.3931622">
  <ele>-24.37</ele>
  <time>2026-09-02T22:09:02Z</time>
  <course>53.51</course>
  <speed>1.0</speed>
  <fix>3d</fix>
</trkpt>
<trkpt lat="33.8111308" lon="-118.3931601">
  <ele>-24.976</ele>
  <time>2026-09-02T22:09:02Z</time>
  <course>54.87</course>
  <speed>0.9765244492586962</speed>
  <fix>3d</fix>
</trkpt>
<trkpt lat="33.8111298" lon="-118.3931622">
  <ele>-24.37</ele>
  <time>2026-09-02T22:09:02Z</time>
  <course>53.51</course>
  <speed>1.0</speed>
  <fix>3d</fix>
</trkpt>
<trkpt lat="33.8111313" lon="-118.3931592">
  <ele>-24.978</ele>
  <time>2026-09-02T22:09:02Z</time>
  <course>54.89</course>
  <speed>0.9765244492586962</speed>
  <fix>3d</fix>
</trkpt>
<trkpt lat="33.8111309" lon="-118.3931604">
  <ele>-24.37</ele>
  <time>2026-09-02T22:09:02Z</time>
  <course>53.54</course>
  <speed>1.0</speed>
  <fix>3d</fix>
</trkpt>
<trkpt lat="33.8111319" lon="-118.3931584">
  <ele>-24.981</ele>
  <time>2026-09-02T22:09:02Z</time>
  <course>54.89</course>
  <speed>0.9765244492586962</speed>
  <fix>3d</fix>
</trkpt>
<trkpt lat="33.8111309" lon="-118.3931604">
  <ele>-24.37</ele>
  <time>2026-09-02T22:09:02Z</time>
  <course>53.54</course>
  <speed>1.0</speed>
  <fix>3d</fix>
</trkpt>
<trkpt lat="33.8111324" lon="-118.3931575">
  <ele>-24.983</ele>
  <time>2026-09-02T22:09:02Z</time>
  <course>54.89</course>
  <speed>0.9765244492586962</speed>
  <fix>3d</fix>
</trkpt>
<trkpt lat="33.811132" lon="-118.3931587">
  <ele>-24.38</ele>
  <time>2026-09-02T22:09:02Z</time>
  <course>53.52</course>
  <speed>1.0</speed>
  <fix>3d</fix>
</trkpt>
<trkpt lat="33.811133" lon="-118.3931566">
  <ele>-24.984</ele>
  <time>2026-09-02T22:09:02Z</time>
  <course>54.89</course>
  <speed>0.9765244492586962</speed>
  <fix>3d</fix>
</trkpt>
<trkpt lat="33.811132" lon="-118.3931587">
  <ele>-24.38</ele>
  <time>2026-09-02T22:09:02Z</time>
  <course>53.52</course>
  <speed>1.0</speed>
  <fix>3d</fix>
</trkpt>
<trkpt lat="33.8111335" lon="-118.3931558">
  <ele>-24.986</ele>
  <time>2026-09-02T22:09:02Z</time>
  <course>54.9</course>
  <speed>0.9765244492586962</speed>
  <fix>3d</fix>
</trkpt>
<trkpt lat="33.811133" lon="-118.393157">
  <ele>-24.38</ele>
  <time>2026-09-02T22:09:02Z</time>
  <course>53.52</course>
  <speed>1.0</speed>
  <fix>3d</fix>
</trkpt>
<trkpt lat="33.811134" lon="-118.3931549">
  <ele>-24.987</ele>
  <time>2026-09-02T22:09:02Z</time>
  <course>54.91</course>
  <speed>0.9765244492586962</speed>
  <fix>3d</fix>
</trkpt>
<trkpt lat="33.811133" lon="-118.393157">
  <ele>-24.38</ele>
  <time>2026-09-02T22:09:02Z</time>
  <course>53.52</course>
  <speed>1.0</speed>
  <fix>3d</fix>
</trkpt>
<trkpt lat="33.8111346" lon="-118.393154">
  <ele>-24.987</ele>
  <time>2026-09-02T22:09:02Z</time>
  <course>54.92</course>
  <speed>0.9765244492586962</speed>
  <fix>3d</fix>
</trkpt>
<trkpt lat="33.8111341" lon="-118.3931552">
  <ele>-24.39</ele>
  <time>2026-09-02T22:09:02Z</time>
  <course>53.52</course>
  <speed>1.0</speed>
  <fix>3d</fix>
</trkpt>
<trkpt lat="33.8111351" lon="-118.3931531">
  <ele>-24.987</ele>
  <time>2026-09-02T22:09:02Z</time>
  <course>54.92</course>
  <speed>0.9765244492586962</speed>
  <fix>3d</fix>
</trkpt>
<trkpt lat="33.8111341" lon="-118.3931552">
  <ele>-24.39</ele>
  <time>2026-09-02T22:09:02Z</time>
  <course>53.52</course>
  <speed>1.0</speed>
  <fix>3d</fix>
</trkpt>
<trkpt lat="33.8111356" lon="-118.3931523">
  <ele>-24.987</ele>
  <time>2026-09-02T22:09:02Z</time>
  <course>54.91</course>
  <speed>0.9765244492586962</speed>
  <fix>3d</fix>
</trkpt>
<trkpt lat="33.8111352" lon="-118.3931535">
  <ele>-24.39</ele>
  <time>2026-09-02T22:09:02Z</time>
  <course>53.5</course>
  <speed>1.0</speed>
  <fix>3d</fix>
</trkpt>
<trkpt lat="33.8111362" lon="-118.3931514">
  <ele>-24.986</ele>
  <time>2026-09-02T22:09:02Z</time>
  <course>54.9</course>
  <speed>0.9765244492586962</speed>
  <fix>3d</fix>
</trkpt>
<trkpt lat="33.8111352" lon="-118.3931535">
  <ele>-24.39</ele>
  <time>2026-09-02T22:09:02Z</time>
  <course>53.5</course>
  <speed>1.0</speed>
  <fix>3d</fix>
</trkpt>
<trkpt lat="33.8111367" lon="-118.3931505">
  <ele>-24.986</ele>
  <time>2026-09-02T22:09:02Z</time>
  <course>54.9</course>
  <speed>0.9765244492586962</speed>
  <fix>3d</fix>
</trkpt>
<trkpt lat="33.8111363" lon="-118.3931517">
  <ele>-24.38</ele>
  <time>2026-09-02T22:09:02Z</time>
  <course>53.51</course>
  <speed>1.0</speed>
  <fix>3d</fix>
</trkpt>
<trkpt lat="33.8111372" lon="-118.3931497">
  <ele>-24.985</ele>
  <time>2026-09-02T22:09:02Z</time>
  <course>54.91</course>
  <speed>0.9765244492586962</speed>
  <fix>3d</fix>
</trkpt>
<trkpt lat="33.8111363" lon="-118.3931517">
  <ele>-24.38</ele>
  <time>2026-09-02T22:09:02Z</time>
  <course>53.51</course>
  <speed>1.0</speed>
  <fix>3d</fix>
</trkpt>
<trkpt lat="33.8111378" lon="-118.3931488">
  <ele>-24.984</ele>
  <time>2026-09-02T22:09:02Z</time>
  <course>54.93</course>
  <speed>0.9765244492586962</speed>
  <fix>3d</fix>
</trkpt>
<trkpt lat="33.8111373" lon="-118.39315">
  <ele>-24.38</ele>
  <time>2026-09-02T22:09:02Z</time>
  <course>53.54</course>
  <speed>1.0</speed>
  <fix>3d</fix>
</trkpt>
<trkpt lat="33.8111383" lon="-118.3931479">
  <ele>-24.984</ele>
  <time>2026-09-02T22:09:02Z</time>
  <course>54.94</course>
  <speed>0.9765244492586962</speed>
  <fix>3d</fix>
</trkpt>
<trkpt lat="33.8111373" lon="-118.39315">
  <ele>-24.38</ele>
  <time>2026-09-02T22:09:02Z</time>
  <course>53.54</course>
  <speed>1.0</speed>
  <fix>3d</fix>
</trkpt>
<trkpt lat="33.8111388" lon="-118.3931471">
  <ele>-24.984</ele>
  <time>2026-09-02T22:09:02Z</time>
  <course>54.95</course>
  <speed>0.9765244492586962</speed>
  <fix>3d</fix>
</trkpt>
<trkpt lat="33.8111384" lon="-118.3931483">
  <ele>-24.38</ele>
  <time>2026-09-02T22:09:02Z</time>
  <course>53.57</course>
  <speed>1.0</speed>
  <fix>3d</fix>
</trkpt>
<trkpt lat="33.8111394" lon="-118.3931462">
  <ele>-24.985</ele>
  <time>2026-09-02T22:09:02Z</time>
  <course>54.94</course>
  <speed>0.9765244492586962</speed>
  <fix>3d</fix>
</trkpt>
<trkpt lat="33.8111384" lon="-118.3931483">
  <ele>-24.38</ele>
  <time>2026-09-02T22:09:02Z</time>
  <course>53.57</course>
  <speed>1.0</speed>
  <fix>3d</fix>
</trkpt>
<trkpt lat="33.8111399" lon="-118.3931453">
  <ele>-24.986</ele>
  <time>2026-09-02T22:09:02Z</time>
  <course>54.94</course>
  <speed>0.9765244492586962</speed>
  <fix>3d</fix>
</trkpt>
<trkpt lat="33.8111394" lon="-118.3931465">
  <ele>-24.38</ele>
  <time>2026-09-02T22:09:02Z</time>
  <course>53.56</course>
  <speed>1.0</speed>
  <fix>3d</fix>
</trkpt>
<trkpt lat="33.8111404" lon="-118.3931445">
  <ele>-24.986</ele>
  <time>2026-09-02T22:09:02Z</time>
  <course>54.94</course>
  <speed>0.9765244492586962</speed>
  <fix>3d</fix>
</trkpt>
<trkpt lat="33.8111394" lon="-118.3931465">
  <ele>-24.38</ele>
  <time>2026-09-02T22:09:02Z</time>
  <course>53.56</course>
  <speed>1.0</speed>
  <fix>3d</fix>
</trkpt>
<trkpt lat="33.811141" lon="-118.3931436">
  <ele>-24.984</ele>
  <time>2026-09-02T22:09:02Z</time>
  <course>54.93</course>
  <speed>0.9765244492586962</speed>
  <fix>3d</fix>
</trkpt>
<trkpt lat="33.8111405" lon="-118.3931447">
  <ele>-24.38</ele>
  <time>2026-09-02T22:09:02Z</time>
  <course>53.55</course>
  <speed>1.0</speed>
  <fix>3d</fix>
</trkpt>
<trkpt lat="33.8111415" lon="-118.3931427">
  <ele>-24.982</ele>
  <time>2026-09-02T22:09:02Z</time>
  <course>54.9</course>
  <speed>0.9765244492586962</speed>
  <fix>3d</fix>
</trkpt>
<trkpt lat="33.8111405" lon="-118.3931447">
  <ele>-24.38</ele>
  <time>2026-09-02T22:09:02Z</time>
  <course>53.55</course>
  <speed>1.0</speed>
  <fix>3d</fix>
</trkpt>
<trkpt lat="33.811142" lon="-118.3931419">
  <ele>-24.981</ele>
  <time>2026-09-02T22:09:02Z</time>
  <course>54.87</course>
  <speed>0.9765244492586962</speed>
  <fix>3d</fix>
</trkpt>
<trkpt lat="33.8111416" lon="-118.393143">
  <ele>-24.37</ele>
  <time>2026-09-02T22:09:02Z</time>
  <course>53.51</course>
  <speed>1.0</speed>
  <fix>3d</fix>
</trkpt>
<trkpt lat="33.8111426" lon="-118.393141">
  <ele>-24.98</ele>
  <time>2026-09-02T22:09:02Z</time>
  <course>54.84</course>
  <speed>0.9765244492586962</speed>
  <fix>3d</fix>
</trkpt>
<trkpt lat="33.8111416" lon="-118.393143">
  <ele>-24.37</ele>
  <time>2026-09-02T22:09:02Z</time>
  <course>53.51</course>
  <speed>1.0</speed>
  <fix>3d</fix>
</trkpt>
<trkpt lat="33.8111431" lon="-118.3931401">
  <ele>-24.979</ele>
  <time>2026-09-02T22:09:02Z</time>
  <course>54.82</course>
  <speed>0.9765244492586962</speed>
  <fix>3d</fix>
</trkpt>
<trkpt lat="33.8111427" lon="-118.3931413">
  <ele>-24.37</ele>
  <time>2026-09-02T22:09:02Z</time>
  <course>53.47</course>
  <speed>1.0</speed>
  <fix>3d</fix>
</trkpt>
<trkpt lat="33.8111436" lon="-118.3931392">
  <ele>-24.979</ele>
  <time>2026-09-02T22:09:02Z</time>
  <course>54.81</course>
  <speed>0.9765244492586962</speed>
  <fix>3d</fix>
</trkpt>
<trkpt lat="33.8111427" lon="-118.3931413">
  <ele>-24.37</ele>
  <time>2026-09-02T22:09:02Z</time>
  <course>53.47</course>
  <speed>1.0</speed>
  <fix>3d</fix>
</trkpt>
<trkpt lat="33.8111442" lon="-118.3931384">
  <ele>-24.978</ele>
  <time>2026-09-02T22:09:02Z</time>
  <course>54.82</course>
  <speed>0.9765244492586962</speed>
  <fix>3d</fix>
</trkpt>
<trkpt lat="33.8111437" lon="-118.3931395">
  <ele>-24.37</ele>
  <time>2026-09-02T22:09:02Z</time>
  <course>53.48</course>
  <speed>1.0</speed>
  <fix>3d</fix>
</trkpt>
<trkpt lat="33.8111447" lon="-118.3931375">
  <ele>-24.978</ele>
  <time>2026-09-02T22:09:02Z</time>
  <course>54.83</course>
  <speed>0.9765244492586962</speed>
  <fix>3d</fix>
</trkpt>
<trkpt lat="33.8111437" lon="-118.3931395">
  <ele>-24.37</ele>
  <time>2026-09-02T22:09:02Z</time>
  <course>53.48</course>
  <speed>1.0</speed>
  <fix>3d</fix>
</trkpt>
<trkpt lat="33.8111452" lon="-118.3931366">
  <ele>-24.978</ele>
  <time>2026-09-02T22:09:02Z</time>
  <course>54.83</course>
  <speed>0.9765244492586962</speed>
  <fix>3d</fix>
</trkpt>
<trkpt lat="33.8111448" lon="-118.3931378">
  <ele>-24.37</ele>
  <time>2026-09-02T22:09:02Z</time>
  <course>53.49</course>
  <speed>1.0</speed>
  <fix>3d</fix>
</trkpt>
<trkpt lat="33.8111458" lon="-118.3931358">
  <ele>-24.978</ele>
  <time>2026-09-02T22:09:02Z</time>
  <course>54.82</course>
  <speed>0.9765244492586962</speed>
  <fix>3d</fix>
</trkpt>
<trkpt lat="33.8111448" lon="-118.3931378">
  <ele>-24.37</ele>
  <time>2026-09-02T22:09:02Z</time>
  <course>53.49</course>
  <speed>1.0</speed>
  <fix>3d</fix>
</trkpt>
<trkpt lat="33.8111463" lon="-118.3931349">
  <ele>-24.979</ele>
  <time>2026-09-02T22:09:02Z</time>
  <course>54.82</course>
  <speed>0.9765244492586962</speed>
  <fix>3d</fix>
</trkpt>
<trkpt lat="33.8111459" lon="-118.393136">
  <ele>-24.37</ele>
  <time>2026-09-02T22:09:02Z</time>
  <course>53.46</course>
  <speed>1.0</speed>
  <fix>3d</fix>
</trkpt>
<trkpt lat="33.8111468" lon="-118.393134">
  <ele>-24.98</ele>
  <time>2026-09-02T22:09:02Z</time>
  <course>54.82</course>
  <speed>0.9765244492586962</speed>
  <fix>3d</fix>
</trkpt>
<trkpt lat="33.8111459" lon="-118.393136">
  <ele>-24.37</ele>
  <time>2026-09-02T22:09:02Z</time>
  <course>53.46</course>
  <speed>1.0</speed>
  <fix>3d</fix>
</trkpt>
<trkpt lat="33.8111474" lon="-118.3931331">
  <ele>-24.982</ele>
  <time>2026-09-02T22:09:02Z</time>
  <course>54.82</course>
  <speed>0.9765244492586962</speed>
  <fix>3d</fix>
</trkpt>
<trkpt lat="33.811147" lon="-118.3931342">
  <ele>-24.38</ele>
  <time>2026-09-02T22:09:02Z</time>
  <course>53.45</course>
  <speed>1.0</speed>
  <fix>3d</fix>
</trkpt>
<trkpt lat="33.8111479" lon="-118.3931323">
  <ele>-24.984</ele>
  <time>2026-09-02T22:09:02Z</time>
  <course>54.82</course>
  <speed>0.9765244492586962</speed>
  <fix>3d</fix>
</trkpt>
<trkpt lat="33.811147" lon="-118.3931342">
  <ele>-24.38</ele>
  <time>2026-09-02T22:09:02Z</time>
  <course>53.45</course>
  <speed>1.0</speed>
  <fix>3d</fix>
</trkpt>
<trkpt lat="33.8111485" lon="-118.3931314">
  <ele>-24.985</ele>
  <time>2026-09-02T22:09:02Z</time>
  <course>54.83</course>
  <speed>0.9765244492586962</speed>
  <fix>3d</fix>
</trkpt>
<trkpt lat="33.811148" lon="-118.3931325">
  <ele>-24.38</ele>
  <time>2026-09-02T22:09:02Z</time>
  <course>53.46</course>
  <speed>1.0</speed>
  <fix>3d</fix>
</trkpt>
<trkpt lat="33.811149" lon="-118.3931305">
  <ele>-24.985</ele>
  <time>2026-09-02T22:09:02Z</time>
  <course>54.82</course>
  <speed>0.9765244492586962</speed>
  <fix>3d</fix>
</trkpt>
<trkpt lat="33.811148" lon="-118.3931325">
  <ele>-24.38</ele>
  <time>2026-09-02T22:09:02Z</time>
  <course>53.46</course>
  <speed>1.0</speed>
  <fix>3d</fix>
</trkpt>
<trkpt lat="33.8111495" lon="-118.3931296">
  <ele>-24.984</ele>
  <time>2026-09-02T22:09:02Z</time>
  <course>54.8</course>
  <speed>0.9765244492586962</speed>
  <fix>3d</fix>
</trkpt>
<trkpt lat="33.8111491" lon="-118.3931308">
  <ele>-24.38</ele>
  <time>2026-09-02T22:09:02Z</time>
  <course>53.45</course>
  <speed>1.0</speed>
  <fix>3d</fix>
</trkpt>
<trkpt lat="33.8111501" lon="-118.3931288">
  <ele>-24.983</ele>
  <time>2026-09-02T22:09:02Z</time>
  <course>54.79</course>
  <speed>0.9765244492586962</speed>
  <fix>3d</fix>
</trkpt>
<trkpt lat="33.8111491" lon="-118.3931308">
  <ele>-24.38</ele>
  <time>2026-09-02T22:09:02Z</time>
  <course>53.45</course>
  <speed>1.0</speed>
  <fix>3d</fix>
</trkpt>
<trkpt lat="33.8111506" lon="-118.3931279">
  <ele>-24.983</ele>
  <time>2026-09-02T22:09:02Z</time>
  <course>54.78</course>
  <speed>0.9765244492586962</speed>
  <fix>3d</fix>
</trkpt>
<trkpt lat="33.8111502" lon="-118.393129">
  <ele>-24.38</ele>
  <time>2026-09-02T22:09:02Z</time>
  <course>53.42</course>
  <speed>1.0</speed>
  <fix>3d</fix>
</trkpt>
<trkpt lat="33.8111511" lon="-118.393127">
  <ele>-24.984</ele>
  <time>2026-09-02T22:09:02Z</time>
  <course>54.78</course>
  <speed>0.9765244492586962</speed>
  <fix>3d</fix>
</trkpt>
<trkpt lat="33.8111502" lon="-118.393129">
  <ele>-24.38</ele>
  <time>2026-09-02T22:09:02Z</time>
  <course>53.42</course>
  <speed>1.0</speed>
  <fix>3d</fix>
</trkpt>
<trkpt lat="33.8111517" lon="-118.3931262">
  <ele>-24.984</ele>
  <time>2026-09-02T22:09:02Z</time>
  <course>54.78</course>
  <speed>0.9765244492586962</speed>
  <fix>3d</fix>
</trkpt>
<trkpt lat="33.8111513" lon="-118.3931273">
  <ele>-24.38</ele>
  <time>2026-09-02T22:09:02Z</time>
  <course>53.41</course>
  <speed>1.0</speed>
  <fix>3d</fix>
</trkpt>
<trkpt lat="33.8111522" lon="-118.3931253">
  <ele>-24.984</ele>
  <time>2026-09-02T22:09:02Z</time>
  <course>54.79</course>
  <speed>0.9765244492586962</speed>
  <fix>3d</fix>
</trkpt>
<trkpt lat="33.8111513" lon="-118.3931273">
  <ele>-24.38</ele>
  <time>2026-09-02T22:09:02Z</time>
  <course>53.41</course>
  <speed>1.0</speed>
  <fix>3d</fix>
</trkpt>
<trkpt lat="33.8111527" lon="-118.3931244">
  <ele>-24.983</ele>
  <time>2026-09-02T22:09:02Z</time>
  <course>54.82</course>
  <speed>0.9765244492586962</speed>
  <fix>3d</fix>
</trkpt>
<trkpt lat="33.8111524" lon="-118.3931255">
  <ele>-24.38</ele>
  <time>2026-09-02T22:09:02Z</time>
  <course>53.45</course>
  <speed>1.0</speed>
  <fix>3d</fix>
</trkpt>
<trkpt lat="33.8111533" lon="-118.3931235">
  <ele>-24.983</ele>
  <time>2026-09-02T22:09:02Z</time>
  <course>54.84</course>
  <speed>0.9765244492586962</speed>
  <fix>3d</fix>
</trkpt>
<trkpt lat="33.8111524" lon="-118.3931255">
  <ele>-24.38</ele>
  <time>2026-09-02T22:09:02Z</time>
  <course>53.45</course>
  <speed>1.0</speed>
  <fix>3d</fix>
</trkpt>
<trkpt lat="33.8111538" lon="-118.3931227">
  <ele>-24.983</ele>
  <time>2026-09-02T22:09:02Z</time>
  <course>54.87</course>
  <speed>0.9765244492586962</speed>
  <fix>3d</fix>
</trkpt>
<trkpt lat="33.8111534" lon="-118.3931238">
  <ele>-24.37</ele>
  <time>2026-09-02T22:09:02Z</time>
  <course>53.51</course>
  <speed>1.0</speed>
  <fix>3d</fix>
</trkpt>
<trkpt lat="33.8111544" lon="-118.3931218">
  <ele>-24.982</ele>
  <time>2026-09-02T22:09:02Z</time>
  <course>54.9</course>
  <speed>0.9765244492586962</speed>
  <fix>3d</fix>
</trkpt>
<trkpt lat="33.8111534" lon="-118.3931238">
  <ele>-24.37</ele>
  <time>2026-09-02T22:09:02Z</time>
  <course>53.51</course>
  <speed>1.0</speed>
  <fix>3d</fix>
</trkpt>
<trkpt lat="33.8111549" lon="-118.3931209">
  <ele>-24.982</ele>
  <time>2026-09-02T22:09:02Z</time>
  <course>54.92</course>
  <speed>0.9765244492586962</speed>
  <fix>3d</fix>
</trkpt>
<trkpt lat="33.8111545" lon="-118.3931221">
  <ele>-24.37</ele>
  <time>2026-09-02T22:09:02Z</time>
  <course>53.54</course>
  <speed>0.99</speed>
  <fix>3d</fix>
</trkpt>
<trkpt lat="33.8111554" lon="-118.3931201">
  <ele>-24.982</ele>
  <time>2026-09-02T22:09:02Z</time>
  <course>54.92</course>
  <speed>0.9765244492586962</speed>
  <fix>3d</fix>
</trkpt>
<trkpt lat="33.8111545" lon="-118.3931221">
  <ele>-24.37</ele>
  <time>2026-09-02T22:09:02Z</time>
  <course>53.54</course>
  <speed>0.99</speed>
  <fix>3d</fix>
</trkpt>
<trkpt lat="33.811156" lon="-118.3931192">
  <ele>-24.981</ele>
  <time>2026-09-02T22:09:02Z</time>
  <course>54.94</course>
  <speed>0.9765244492586962</speed>
  <fix>3d</fix>
</trkpt>
<trkpt lat="33.8111556" lon="-118.3931203">
  <ele>-24.37</ele>
  <time>2026-09-02T22:09:02Z</time>
  <course>53.55</course>
  <speed>0.99</speed>
  <fix>3d</fix>
</trkpt>
<trkpt lat="33.8111565" lon="-118.3931183">
  <ele>-24.979</ele>
  <time>2026-09-02T22:09:02Z</time>
  <course>54.95</course>
  <speed>0.9765244492586962</speed>
  <fix>3d</fix>
</trkpt>
<trkpt lat="33.8111556" lon="-118.3931203">
  <ele>-24.37</ele>
  <time>2026-09-02T22:09:02Z</time>
  <course>53.55</course>
  <speed>0.99</speed>
  <fix>3d</fix>
</trkpt>
<trkpt lat="33.811157" lon="-118.3931175">
  <ele>-24.978</ele>
  <time>2026-09-02T22:09:02Z</time>
  <course>54.97</course>
  <speed>0.9765244492586962</speed>
  <fix>3d</fix>
</trkpt>
<trkpt lat="33.8111566" lon="-118.3931186">
  <ele>-24.37</ele>
  <time>2026-09-02T22:09:02Z</time>
  <course>53.57</course>
  <speed>0.99</speed>
  <fix>3d</fix>
</trkpt>
<trkpt lat="33.8111576" lon="-118.3931166">
  <ele>-24.977</ele>
  <time>2026-09-02T22:09:02Z</time>
  <course>54.99</course>
  <speed>0.9765244492586962</speed>
  <fix>3d</fix>
</trkpt>
<trkpt lat="33.8111566" lon="-118.3931186">
  <ele>-24.37</ele>
  <time>2026-09-02T22:09:02Z</time>
  <course>53.57</course>
  <speed>0.99</speed>
  <fix>3d</fix>
</trkpt>
<trkpt lat="33.8111581" lon="-118.3931157">
  <ele>-24.977</ele>
  <time>2026-09-02T22:09:02Z</time>
  <course>54.99</course>
  <speed>0.9765244492586962</speed>
  <fix>3d</fix>
</trkpt>
<trkpt lat="33.8111577" lon="-118.3931168">
  <ele>-24.37</ele>
  <time>2026-09-02T22:09:02Z</time>
  <course>53.58</course>
  <speed>0.99</speed>
  <fix>3d</fix>
</trkpt>
<trkpt lat="33.8111586" lon="-118.3931148">
  <ele>-24.978</ele>
  <time>2026-09-02T22:09:02Z</time>
  <course>54.98</course>
  <speed>0.9765244492586962</speed>
  <fix>3d</fix>
</trkpt>
<trkpt lat="33.8111577" lon="-118.3931168">
  <ele>-24.37</ele>
  <time>2026-09-02T22:09:02Z</time>
  <course>53.58</course>
  <speed>0.99</speed>
  <fix>3d</fix>
</trkpt>
<trkpt lat="33.8111592" lon="-118.393114">
  <ele>-24.979</ele>
  <time>2026-09-02T22:09:02Z</time>
  <course>54.96</course>
  <speed>0.9765244492586962</speed>
  <fix>3d</fix>
</trkpt>
<trkpt lat="33.8111588" lon="-118.3931151">
  <ele>-24.37</ele>
  <time>2026-09-02T22:09:02Z</time>
  <course>53.56</course>
  <speed>0.99</speed>
  <fix>3d</fix>
</trkpt>
<trkpt lat="33.8111597" lon="-118.3931131">
  <ele>-24.979</ele>
  <time>2026-09-02T22:09:02Z</time>
  <course>54.95</course>
  <speed>0.9765244492586962</speed>
  <fix>3d</fix>
</trkpt>
<trkpt lat="33.8111588" lon="-118.3931151">
  <ele>-24.37</ele>
  <time>2026-09-02T22:09:02Z</time>
  <course>53.56</course>
  <speed>0.99</speed>
  <fix>3d</fix>
</trkpt>
<trkpt lat="33.8111602" lon="-118.3931122">
  <ele>-24.979</ele>
  <time>2026-09-02T22:09:02Z</time>
  <course>54.95</course>
  <speed>0.9765244492586962</speed>
  <fix>3d</fix>
</trkpt>
<trkpt lat="33.8111598" lon="-118.3931134">
  <ele>-24.37</ele>
  <time>2026-09-02T22:09:02Z</time>
  <course>53.56</course>
  <speed>0.99</speed>
  <fix>3d</fix>
</trkpt>
<trkpt lat="33.8111608" lon="-118.3931114">
  <ele>-24.98</ele>
  <time>2026-09-02T22:09:02Z</time>
  <course>54.95</course>
  <speed>0.9765244492586962</speed>
  <fix>3d</fix>
</trkpt>
<trkpt lat="33.8111598" lon="-118.3931134">
  <ele>-24.37</ele>
  <time>2026-09-02T22:09:02Z</time>
  <course>53.56</course>
  <speed>0.99</speed>
  <fix>3d</fix>
</trkpt>
<trkpt lat="33.8111613" lon="-118.3931105">
  <ele>-24.98</ele>
  <time>2026-09-02T22:09:02Z</time>
  <course>54.95</course>
  <speed>0.9765244492586962</speed>
  <fix>3d</fix>
</trkpt>
<trkpt lat="33.8111609" lon="-118.3931116">
  <ele>-24.38</ele>
  <time>2026-09-02T22:09:02Z</time>
  <course>53.56</course>
  <speed>0.99</speed>
  <fix>3d</fix>
</trkpt>
<trkpt lat="33.8111618" lon="-118.3931096">
  <ele>-24.98</ele>
  <time>2026-09-02T22:09:02Z</time>
  <course>54.95</course>
  <speed>0.9765244492586962</speed>
  <fix>3d</fix>
</trkpt>
<trkpt lat="33.8111609" lon="-118.3931116">
  <ele>-24.38</ele>
  <time>2026-09-02T22:09:02Z</time>
  <course>53.56</course>
  <speed>0.99</speed>
  <fix>3d</fix>
</trkpt>
<trkpt lat="33.8111624" lon="-118.3931088">
  <ele>-24.982</ele>
  <time>2026-09-02T22:09:02Z</time>
  <course>54.94</course>
  <speed>0.9765244492586962</speed>
  <fix>3d</fix>
</trkpt>
<trkpt lat="33.8111619" lon="-118.3931099">
  <ele>-24.38</ele>
  <time>2026-09-02T22:09:02Z</time>
  <course>53.55</course>
  <speed>0.99</speed>
  <fix>3d</fix>
</trkpt>
<trkpt lat="33.8111629" lon="-118.3931079">
  <ele>-24.983</ele>
  <time>2026-09-02T22:09:02Z</time>
  <course>54.93</course>
  <speed>0.9765244492586962</speed>
  <fix>3d</fix>
</trkpt>
<trkpt lat="33.8111619" lon="-118.3931099">
  <ele>-24.38</ele>
  <time>2026-09-02T22:09:02Z</time>
  <course>53.55</course>
  <speed>0.99</speed>
  <fix>3d</fix>
</trkpt>
<trkpt lat="33.8111634" lon="-118.393107">
  <ele>-24.984</ele>
  <time>2026-09-02T22:09:02Z</time>
  <course>54.9</course>
  <speed>0.9765244492586962</speed>
  <fix>3d</fix>
</trkpt>
<trkpt lat="33.811163" lon="-118.3931082">
  <ele>-24.38</ele>
  <time>2026-09-02T22:09:02Z</time>
  <course>53.49</course>
  <speed>1.0</speed>
  <fix>3d</fix>
</trkpt>
<trkpt lat="33.811164" lon="-118.3931061">
  <ele>-24.984</ele>
  <time>2026-09-02T22:09:02Z</time>
  <course>54.87</course>
  <speed>0.9765244492586962</speed>
  <fix>3d</fix>
</trkpt>
<trkpt lat="33.811163" lon="-118.3931082">
  <ele>-24.38</ele>
  <time>2026-09-02T22:09:02Z</time>
  <course>53.49</course>
  <speed>1.0</speed>
  <fix>3d</fix>
</trkpt>
<trkpt lat="33.8111645" lon="-118.3931053">
  <ele>-24.984</ele>
  <time>2026-09-02T22:09:02Z</time>
  <course>54.86</course>
  <speed>0.9765244492586962</speed>
  <fix>3d</fix>
</trkpt>
<trkpt lat="33.8111641" lon="-118.3931064">
  <ele>-24.38</ele>
  <time>2026-09-02T22:09:02Z</time>
  <course>53.45</course>
  <speed>1.0</speed>
  <fix>3d</fix>
</trkpt>
<trkpt lat="33.811165" lon="-118.3931044">
  <ele>-24.982</ele>
  <time>2026-09-02T22:09:02Z</time>
  <course>54.86</course>
  <speed>0.9765244492586962</speed>
  <fix>3d</fix>
</trkpt>
<trkpt lat="33.8111641" lon="-118.3931064">
  <ele>-24.38</ele>
  <time>2026-09-02T22:09:02Z</time>
  <course>53.45</course>
  <speed>1.0</speed>
  <fix>3d</fix>
</trkpt>
<trkpt lat="33.8111656" lon="-118.3931035">
  <ele>-24.981</ele>
  <time>2026-09-02T22:09:02Z</time>
  <course>54.86</course>
  <speed>0.9765244492586962</speed>
  <fix>3d</fix>
</trkpt>
<trkpt lat="33.8111652" lon="-118.3931047">
  <ele>-24.38</ele>
  <time>2026-09-02T22:09:02Z</time>
  <course>53.45</course>
  <speed>1.0</speed>
  <fix>3d</fix>
</trkpt>
<trkpt lat="33.8111661" lon="-118.3931027">
  <ele>-24.98</ele>
  <time>2026-09-02T22:09:02Z</time>
  <course>54.87</course>
  <speed>0.9765244492586962</speed>
  <fix>3d</fix>
</trkpt>
<trkpt lat="33.8111652" lon="-118.3931047">
  <ele>-24.38</ele>
  <time>2026-09-02T22:09:02Z</time>
  <course>53.45</course>
  <speed>1.0</speed>
  <fix>3d</fix>
</trkpt>
<trkpt lat="33.8111667" lon="-118.3931018">
  <ele>-24.98</ele>
  <time>2026-09-02T22:09:02Z</time>
  <course>54.89</course>
  <speed>0.9765244492586962</speed>
  <fix>3d</fix>
</trkpt>
<trkpt lat="33.8111662" lon="-118.3931029">
  <ele>-24.38</ele>
  <time>2026-09-02T22:09:02Z</time>
  <course>53.48</course>
  <speed>1.0</speed>
  <fix>3d</fix>
</trkpt>
<trkpt lat="33.8111672" lon="-118.3931009">
  <ele>-24.98</ele>
  <time>2026-09-02T22:09:02Z</time>
  <course>54.9</course>
  <speed>0.9765244492586962</speed>
  <fix>3d</fix>
</trkpt>
<trkpt lat="33.8111662" lon="-118.3931029">
  <ele>-24.38</ele>
  <time>2026-09-02T22:09:02Z</time>
  <course>53.48</course>
  <speed>1.0</speed>
  <fix>3d</fix>
</trkpt>
<trkpt lat="33.8111677" lon="-118.3931001">
  <ele>-24.981</ele>
  <time>2026-09-02T22:09:02Z</time>
  <course>54.9</course>
  <speed>0.9765244492586962</speed>
  <fix>3d</fix>
</trkpt>
<trkpt lat="33.8111673" lon="-118.3931012">
  <ele>-24.38</ele>
  <time>2026-09-02T22:09:02Z</time>
  <course>53.48</course>
  <speed>1.0</speed>
  <fix>3d</fix>
</trkpt>
<trkpt lat="33.8111683" lon="-118.3930992">
  <ele>-24.983</ele>
  <time>2026-09-02T22:09:02Z</time>
  <course>54.89</course>
  <speed>0.9765244492586962</speed>
  <fix>3d</fix>
</trkpt>
<trkpt lat="33.8111673" lon="-118.3931012">
  <ele>-24.38</ele>
  <time>2026-09-02T22:09:02Z</time>
  <course>53.48</course>
  <speed>1.0</speed>
  <fix>3d</fix>
</trkpt>
<trkpt lat="33.8111688" lon="-118.3930983">
  <ele>-24.984</ele>
  <time>2026-09-02T22:09:02Z</time>
  <course>54.88</course>
  <speed>0.9765244492586962</speed>
  <fix>3d</fix>
</trkpt>
<trkpt lat="33.8111684" lon="-118.3930995">
  <ele>-24.38</ele>
  <time>2026-09-02T22:09:02Z</time>
  <course>53.47</course>
  <speed>1.0</speed>
  <fix>3d</fix>
</trkpt>
<trkpt lat="33.8111693" lon="-118.3930974">
  <ele>-24.985</ele>
  <time>2026-09-02T22:09:02Z</time>
  <course>54.89</course>
  <speed>0.9765244492586962</speed>
  <fix>3d</fix>
</trkpt>
<trkpt lat="33.8111684" lon="-118.3930995">
  <ele>-24.38</ele>
  <time>2026-09-02T22:09:02Z</time>
  <course>53.47</course>
  <speed>1.0</speed>
  <fix>3d</fix>
</trkpt>
<trkpt lat="33.8111699" lon="-118.3930966">
  <ele>-24.985</ele>
  <time>2026-09-02T22:09:02Z</time>
  <course>54.9</course>
  <speed>0.9765244492586962</speed>
  <fix>3d</fix>
</trkpt>
<trkpt lat="33.8111695" lon="-118.3930977">
  <ele>-24.38</ele>
  <time>2026-09-02T22:09:02Z</time>
  <course>53.49</course>
  <speed>1.0</speed>
  <fix>3d</fix>
</trkpt>
<trkpt lat="33.8111704" lon="-118.3930957">
  <ele>-24.984</ele>
  <time>2026-09-02T22:09:02Z</time>
  <course>54.92</course>
  <speed>0.9765244492586962</speed>
  <fix>3d</fix>
</trkpt>
<trkpt lat="33.8111695" lon="-118.3930977">
  <ele>-24.38</ele>
  <time>2026-09-02T22:09:02Z</time>
  <course>53.49</course>
  <speed>1.0</speed>
  <fix>3d</fix>
</trkpt>
<trkpt lat="33.8111709" lon="-118.3930948">
  <ele>-24.983</ele>
  <time>2026-09-02T22:09:02Z</time>
  <course>54.95</course>
  <speed>0.9765244492586962</speed>
  <fix>3d</fix>
</trkpt>
<trkpt lat="33.8111705" lon="-118.3930959">
  <ele>-24.38</ele>
  <time>2026-09-02T22:09:02Z</time>
  <course>53.53</course>
  <speed>1.0</speed>
  <fix>3d</fix>
</trkpt>
<trkpt lat="33.8111715" lon="-118.393094">
  <ele>-24.981</ele>
  <time>2026-09-02T22:09:02Z</time>
  <course>54.97</course>
  <speed>0.9765244492586962</speed>
  <fix>3d</fix>
</trkpt>
<trkpt lat="33.8111705" lon="-118.3930959">
  <ele>-24.38</ele>
  <time>2026-09-02T22:09:02Z</time>
  <course>53.53</course>
  <speed>1.0</speed>
  <fix>3d</fix>
</trkpt>
<trkpt lat="33.811172" lon="-118.3930931">
  <ele>-24.979</ele>
  <time>2026-09-02T22:09:02Z</time>
  <course>54.96</course>
  <speed>0.9765244492586962</speed>
  <fix>3d</fix>
</trkpt>
<trkpt lat="33.8111716" lon="-118.3930942">
  <ele>-24.37</ele>
  <time>2026-09-02T22:09:02Z</time>
  <course>53.55</course>
  <speed>0.99</speed>
  <fix>3d</fix>
</trkpt>
<trkpt lat="33.8111725" lon="-118.3930922">
  <ele>-24.977</ele>
  <time>2026-09-02T22:09:03Z</time>
  <course>54.95</course>
  <speed>0.9765244492586962</speed>
  <fix>3d</fix>
</trkpt>
<trkpt lat="33.8111716" lon="-118.3930942">
  <ele>-24.37</ele>
  <time>2026-09-02T22:09:03Z</time>
  <course>53.55</course>
  <speed>0.99</speed>
  <fix>3d</fix>
</trkpt>
<trkpt lat="33.8111731" lon="-118.3930913">
  <ele>-24.976</ele>
  <time>2026-09-02T22:09:03Z</time>
  <course>54.93</course>
  <speed>0.9765244492586962</speed>
  <fix>3d</fix>
</trkpt>
<trkpt lat="33.8111727" lon="-118.3930925">
  <ele>-24.37</ele>
  <time>2026-09-02T22:09:03Z</time>
  <course>53.51</course>
  <speed>0.99</speed>
  <fix>3d</fix>
</trkpt>
<trkpt lat="33.8111736" lon="-118.3930905">
  <ele>-24.975</ele>
  <time>2026-09-02T22:09:03Z</time>
  <course>54.92</course>
  <speed>0.9765244492586962</speed>
  <fix>3d</fix>
</trkpt>
<trkpt lat="33.8111727" lon="-118.3930925">
  <ele>-24.37</ele>
  <time>2026-09-02T22:09:03Z</time>
  <course>53.51</course>
  <speed>0.99</speed>
  <fix>3d</fix>
</trkpt>
<trkpt lat="33.8111742" lon="-118.3930896">
  <ele>-24.976</ele>
  <time>2026-09-02T22:09:03Z</time>
  <course>54.93</course>
  <speed>0.9765244492586962</speed>
  <fix>3d</fix>
</trkpt>
<trkpt lat="33.8111737" lon="-118.3930908">
  <ele>-24.37</ele>
  <time>2026-09-02T22:09:03Z</time>
  <course>53.51</course>
  <speed>0.99</speed>
  <fix>3d</fix>
</trkpt>
<trkpt lat="33.8111747" lon="-118.3930887">
  <ele>-24.977</ele>
  <time>2026-09-02T22:09:03Z</time>
  <course>54.94</course>
  <speed>0.9765244492586962</speed>
  <fix>3d</fix>
</trkpt>
<trkpt lat="33.8111737" lon="-118.3930908">
  <ele>-24.37</ele>
  <time>2026-09-02T22:09:03Z</time>
  <course>53.51</course>
  <speed>0.99</speed>
  <fix>3d</fix>
</trkpt>
<trkpt lat="33.8111752" lon="-118.3930879">
  <ele>-24.979</ele>
  <time>2026-09-02T22:09:03Z</time>
  <course>54.95</course>
  <speed>0.9765244492586962</speed>
  <fix>3d</fix>
</trkpt>
<trkpt lat="33.8111748" lon="-118.393089">
  <ele>-24.37</ele>
  <time>2026-09-02T22:09:03Z</time>
  <course>53.54</course>
  <speed>0.99</speed>
  <fix>3d</fix>
</trkpt>
<trkpt lat="33.8111758" lon="-118.393087">
  <ele>-24.98</ele>
  <time>2026-09-02T22:09:03Z</time>
  <course>54.95</course>
  <speed>0.9765244492586962</speed>
  <fix>3d</fix>
</trkpt>
<trkpt lat="33.8111748" lon="-118.393089">
  <ele>-24.37</ele>
  <time>2026-09-02T22:09:03Z</time>
  <course>53.54</course>
  <speed>0.99</speed>
  <fix>3d</fix>
</trkpt>
<trkpt lat="33.8111763" lon="-118.3930861">
  <ele>-24.981</ele>
  <time>2026-09-02T22:09:03Z</time>
  <course>54.96</course>
  <speed>0.9765244492586962</speed>
  <fix>3d</fix>
</trkpt>
<trkpt lat="33.8111758" lon="-118.3930873">
  <ele>-24.38</ele>
  <time>2026-09-02T22:09:03Z</time>
  <course>53.55</course>
  <speed>0.99</speed>
  <fix>3d</fix>
</trkpt>
<trkpt lat="33.8111768" lon="-118.3930853">
  <ele>-24.983</ele>
  <time>2026-09-02T22:09:03Z</time>
  <course>54.94</course>
  <speed>0.9765244492586962</speed>
  <fix>3d</fix>
</trkpt>
<trkpt lat="33.8111758" lon="-118.3930873">
  <ele>-24.38</ele>
  <time>2026-09-02T22:09:03Z</time>
  <course>53.55</course>
  <speed>0.99</speed>
  <fix>3d</fix>
</trkpt>
<trkpt lat="33.8111773" lon="-118.3930844">
  <ele>-24.983</ele>
  <time>2026-09-02T22:09:03Z</time>
  <course>54.93</course>
  <speed>0.9765244492586962</speed>
  <fix>3d</fix>
</trkpt>
<trkpt lat="33.8111769" lon="-118.3930856">
  <ele>-24.38</ele>
  <time>2026-09-02T22:09:03Z</time>
  <course>53.52</course>
  <speed>0.99</speed>
  <fix>3d</fix>
</trkpt>
<trkpt lat="33.8111779" lon="-118.3930835">
  <ele>-24.983</ele>
  <time>2026-09-02T22:09:03Z</time>
  <course>54.9</course>
  <speed>0.9765244492586962</speed>
  <fix>3d</fix>
</trkpt>
<trkpt lat="33.8111769" lon="-118.3930856">
  <ele>-24.38</ele>
  <time>2026-09-02T22:09:03Z</time>
  <course>53.52</course>
  <speed>0.99</speed>
  <fix>3d</fix>
</trkpt>
<trkpt lat="33.8111784" lon="-118.3930827">
  <ele>-24.982</ele>
  <time>2026-09-02T22:09:03Z</time>
  <course>54.89</course>
  <speed>0.9765244492586962</speed>
  <fix>3d</fix>
</trkpt>
<trkpt lat="33.811178" lon="-118.3930838">
  <ele>-24.38</ele>
  <time>2026-09-02T22:09:03Z</time>
  <course>53.48</course>
  <speed>0.99</speed>
  <fix>3d</fix>
</trkpt>
<trkpt lat="33.8111789" lon="-118.3930818">
  <ele>-24.982</ele>
  <time>2026-09-02T22:09:03Z</time>
  <course>54.88</course>
  <speed>0.9765244492586962</speed>
  <fix>3d</fix>
</trkpt>
<trkpt lat="33.811178" lon="-118.3930838">
  <ele>-24.38</ele>
  <time>2026-09-02T22:09:03Z</time>
  <course>53.48</course>
  <speed>0.99</speed>
  <fix>3d</fix>
</trkpt>
<trkpt lat="33.8111795" lon="-118.3930809">
  <ele>-24.983</ele>
  <time>2026-09-02T22:09:03Z</time>
  <course>54.89</course>
  <speed>0.9765244492586962</speed>
  <fix>3d</fix>
</trkpt>
<trkpt lat="33.811179" lon="-118.3930821">
  <ele>-24.38</ele>
  <time>2026-09-02T22:09:03Z</time>
  <course>53.47</course>
  <speed>1.0</speed>
  <fix>3d</fix>
</trkpt>
<trkpt lat="33.81118" lon="-118.39308">
  <ele>-24.984</ele>
  <time>2026-09-02T22:09:03Z</time>
  <course>54.89</course>
  <speed>0.9765244492586962</speed>
  <fix>3d</fix>
</trkpt>
<trkpt lat="33.811179" lon="-118.3930821">
  <ele>-24.38</ele>
  <time>2026-09-02T22:09:03Z</time>
  <course>53.47</course>
  <speed>1.0</speed>
  <fix>3d</fix>
</trkpt>
<trkpt lat="33.8111806" lon="-118.3930792">
  <ele>-24.984</ele>
  <time>2026-09-02T22:09:03Z</time>
  <course>54.89</course>
  <speed>0.9765244492586962</speed>
  <fix>3d</fix>
</trkpt>
<trkpt lat="33.8111801" lon="-118.3930804">
  <ele>-24.38</ele>
  <time>2026-09-02T22:09:03Z</time>
  <course>53.47</course>
  <speed>1.0</speed>
  <fix>3d</fix>
</trkpt>
<trkpt lat="33.8111811" lon="-118.3930783">
  <ele>-24.984</ele>
  <time>2026-09-02T22:09:03Z</time>
  <course>54.88</course>
  <speed>0.9765244492586962</speed>
  <fix>3d</fix>
</trkpt>
<trkpt lat="33.8111801" lon="-118.3930804">
  <ele>-24.38</ele>
  <time>2026-09-02T22:09:03Z</time>
  <course>53.47</course>
  <speed>1.0</speed>
  <fix>3d</fix>
</trkpt>
<trkpt lat="33.8111816" lon="-118.3930774">
  <ele>-24.985</ele>
  <time>2026-09-02T22:09:03Z</time>
  <course>54.88</course>
  <speed>0.9765244492586962</speed>
  <fix>3d</fix>
</trkpt>
<trkpt lat="33.8111812" lon="-118.3930786">
  <ele>-24.38</ele>
  <time>2026-09-02T22:09:03Z</time>
  <course>53.46</course>
  <speed>1.0</speed>
  <fix>3d</fix>
</trkpt>
<trkpt lat="33.8111822" lon="-118.3930766">
  <ele>-24.985</ele>
  <time>2026-09-02T22:09:03Z</time>
  <course>54.88</course>
  <speed>0.9765244492586962</speed>
  <fix>3d</fix>
</trkpt>
<trkpt lat="33.8111812" lon="-118.3930786">
  <ele>-24.38</ele>
  <time>2026-09-02T22:09:03Z</time>
  <course>53.46</course>
  <speed>1.0</speed>
  <fix>3d</fix>
</trkpt>
<trkpt lat="33.8111827" lon="-118.3930757">
  <ele>-24.983</ele>
  <time>2026-09-02T22:09:03Z</time>
  <course>54.89</course>
  <speed>0.9765244492586962</speed>
  <fix>3d</fix>
</trkpt>
<trkpt lat="33.8111823" lon="-118.3930769">
  <ele>-24.37</ele>
  <time>2026-09-02T22:09:03Z</time>
  <course>53.47</course>
  <speed>1.0</speed>
  <fix>3d</fix>
</trkpt>
<trkpt lat="33.8111832" lon="-118.3930748">
  <ele>-24.981</ele>
  <time>2026-09-02T22:09:03Z</time>
  <course>54.91</course>
  <speed>0.9765244492586962</speed>
  <fix>3d</fix>
</trkpt>
<trkpt lat="33.8111823" lon="-118.3930769">
  <ele>-24.37</ele>
  <time>2026-09-02T22:09:03Z</time>
  <course>53.47</course>
  <speed>1.0</speed>
  <fix>3d</fix>
</trkpt>
<trkpt lat="33.8111838" lon="-118.393074">
  <ele>-24.979</ele>
  <time>2026-09-02T22:09:03Z</time>
  <course>54.93</course>
  <speed>0.9765244492586962</speed>
  <fix>3d</fix>
</trkpt>
<trkpt lat="33.8111833" lon="-118.3930751">
  <ele>-24.37</ele>
  <time>2026-09-02T22:09:03Z</time>
  <course>53.51</course>
  <speed>1.0</speed>
  <fix>3d</fix>
</trkpt>
<trkpt lat="33.8111843" lon="-118.3930731">
  <ele>-24.978</ele>
  <time>2026-09-02T22:09:03Z</time>
  <course>54.95</course>
  <speed>0.9765244492586962</speed>
  <fix>3d</fix>
</trkpt>
<trkpt lat="33.8111833" lon="-118.3930751">
  <ele>-24.37</ele>
  <time>2026-09-02T22:09:03Z</time>
  <course>53.51</course>
  <speed>1.0</speed>
  <fix>3d</fix>
</trkpt>
<trkpt lat="33.8111848" lon="-118.3930722">
  <ele>-24.978</ele>
  <time>2026-09-02T22:09:03Z</time>
  <course>54.96</course>
  <speed>0.9765244492586962</speed>
  <fix>3d</fix>
</trkpt>
<trkpt lat="33.8111844" lon="-118.3930734">
  <ele>-24.37</ele>
  <time>2026-09-02T22:09:03Z</time>
  <course>53.53</course>
  <speed>1.0</speed>
  <fix>3d</fix>
</trkpt>
<trkpt lat="33.8111854" lon="-118.3930713">
  <ele>-24.978</ele>
  <time>2026-09-02T22:09:03Z</time>
  <course>54.95</course>
  <speed>0.9765244492586962</speed>
  <fix>3d</fix>
</trkpt>
<trkpt lat="33.8111844" lon="-118.3930734">
  <ele>-24.37</ele>
  <time>2026-09-02T22:09:03Z</time>
  <course>53.53</course>
  <speed>1.0</speed>
  <fix>3d</fix>
</trkpt>
<trkpt lat="33.8111859" lon="-118.3930705">
  <ele>-24.978</ele>
  <time>2026-09-02T22:09:03Z</time>
  <course>54.95</course>
  <speed>0.9765244492586962</speed>
  <fix>3d</fix>
</trkpt>
<trkpt lat="33.8111855" lon="-118.3930717">
  <ele>-24.37</ele>
  <time>2026-09-02T22:09:03Z</time>
  <course>53.51</course>
  <speed>1.0</speed>
  <fix>3d</fix>
</trkpt>
<trkpt lat="33.8111864" lon="-118.3930696">
  <ele>-24.978</ele>
  <time>2026-09-02T22:09:03Z</time>
  <course>54.95</course>
  <speed>0.9765244492586962</speed>
  <fix>3d</fix>
</trkpt>
<trkpt lat="33.8111855" lon="-118.3930717">
  <ele>-24.37</ele>
  <time>2026-09-02T22:09:03Z</time>
  <course>53.51</course>
  <speed>1.0</speed>
  <fix>3d</fix>
</trkpt>
<trkpt lat="33.811187" lon="-118.3930687">
  <ele>-24.978</ele>
  <time>2026-09-02T22:09:03Z</time>
  <course>54.97</course>
  <speed>0.9765244492586962</speed>
  <fix>3d</fix>
</trkpt>
<trkpt lat="33.8111866" lon="-118.3930699">
  <ele>-24.37</ele>
  <time>2026-09-02T22:09:03Z</time>
  <course>53.54</course>
  <speed>1.0</speed>
  <fix>3d</fix>
</trkpt>
<trkpt lat="33.8111875" lon="-118.3930679">
  <ele>-24.978</ele>
  <time>2026-09-02T22:09:03Z</time>
  <course>54.99</course>
  <speed>0.9765244492586962</speed>
  <fix>3d</fix>
</trkpt>
<trkpt lat="33.8111866" lon="-118.3930699">
  <ele>-24.37</ele>
  <time>2026-09-02T22:09:03Z</time>
  <course>53.54</course>
  <speed>1.0</speed>
  <fix>3d</fix>
</trkpt>
<trkpt lat="33.8111881" lon="-118.393067">
  <ele>-24.98</ele>
  <time>2026-09-02T22:09:03Z</time>
  <course>55.02</course>
  <speed>0.9765244492586962</speed>
  <fix>3d</fix>
</trkpt>
<trkpt lat="33.8111876" lon="-118.3930681">
  <ele>-24.37</ele>
  <time>2026-09-02T22:09:03Z</time>
  <course>53.6</course>
  <speed>1.0</speed>
  <fix>3d</fix>
</trkpt>
<trkpt lat="33.8111886" lon="-118.3930661">
  <ele>-24.981</ele>
  <time>2026-09-02T22:09:03Z</time>
  <course>55.04</course>
  <speed>0.9765244492586962</speed>
  <fix>3d</fix>
</trkpt>
<trkpt lat="33.8111876" lon="-118.3930681">
  <ele>-24.37</ele>
  <time>2026-09-02T22:09:03Z</time>
  <course>53.6</course>
  <speed>1.0</speed>
  <fix>3d</fix>
</trkpt>
<trkpt lat="33.8111891" lon="-118.3930652">
  <ele>-24.981</ele>
  <time>2026-09-02T22:09:03Z</time>
  <course>55.04</course>
  <speed>0.9765244492586962</speed>
  <fix>3d</fix>
</trkpt>
<trkpt lat="33.8111887" lon="-118.3930664">
  <ele>-24.37</ele>
  <time>2026-09-02T22:09:03Z</time>
  <course>53.61</course>
  <speed>0.99</speed>
  <fix>3d</fix>
</trkpt>
<trkpt lat="33.8111896" lon="-118.3930645">
  <ele>-24.982</ele>
  <time>2026-09-02T22:09:03Z</time>
  <course>55.02</course>
  <speed>0.6685057965343307</speed>
  <fix>3d</fix>
</trkpt>
<trkpt lat="33.8111887" lon="-118.3930664">
  <ele>-24.37</ele>
  <time>2026-09-02T22:09:03Z</time>
  <course>53.61</course>
  <speed>0.99</speed>
  <fix>3d</fix>
</trkpt>
<trkpt lat="33.8111899" lon="-118.393064">
  <ele>-24.982</ele>
  <time>2026-09-02T22:09:03Z</time>
  <course>55.0</course>
  <speed>0.5021951811795887</speed>
  <fix>3d</fix>
</trkpt>
<trkpt lat="33.8111897" lon="-118.3930648">
  <ele>-24.37</ele>
  <time>2026-09-02T22:09:03Z</time>
  <course>53.38</course>
  <speed>0.82</speed>
  <fix>3d</fix>
</trkpt>
<trkpt lat="33.8111902" lon="-118.3930636">
  <ele>-24.981</ele>
  <time>2026-09-02T22:09:03Z</time>
  <course>54.98</course>
  <speed>0.4022437072223753</speed>
  <fix>3d</fix>
</trkpt>
<trkpt lat="33.8111897" lon="-118.3930648">
  <ele>-24.37</ele>
  <time>2026-09-02T22:09:03Z</time>
  <course>53.38</course>
  <speed>0.82</speed>
  <fix>3d</fix>
</trkpt>
<trkpt lat="33.8111904" lon="-118.3930633">
  <ele>-24.978</ele>
  <time>2026-09-02T22:09:03Z</time>
  <course>54.97</course>
  <speed>0.3301514803843835</speed>
  <fix>3d</fix>
</trkpt>
<trkpt lat="33.8111904" lon="-118.3930636">
  <ele>-24.37</ele>
  <time>2026-09-02T22:09:03Z</time>
  <course>52.75</course>
  <speed>0.52</speed>
  <fix>3d</fix>
</trkpt>
<trkpt lat="33.8111906" lon="-118.393063">
  <ele>-24.975</ele>
  <time>2026-09-02T22:09:03Z</time>
  <course>54.96</course>
  <speed>0.280178514522438</speed>
  <fix>3d</fix>
</trkpt>
<trkpt lat="33.8111904" lon="-118.3930636">
  <ele>-24.37</ele>
  <time>2026-09-02T22:09:03Z</time>
  <course>52.75</course>
  <speed>0.52</speed>
  <fix>3d</fix>
</trkpt>
<trkpt lat="33.8111908" lon="-118.3930627">
  <ele>-24.971</ele>
  <time>2026-09-02T22:09:03Z</time>
  <course>54.94</course>
  <speed>0.24413111231467405</speed>
  <fix>3d</fix>
</trkpt>
<trkpt lat="33.8111909" lon="-118.3930629">
  <ele>-24.36</ele>
  <time>2026-09-02T22:09:03Z</time>
  <course>51.93</course>
  <speed>0.35</speed>
  <fix>3d</fix>
</trkpt>
<trkpt lat="33.8111909" lon="-118.3930625">
  <ele>-24.965</ele>
  <time>2026-09-02T22:09:03Z</time>
  <course>54.93</course>
  <speed>0.21633307652783937</speed>
  <fix>3d</fix>
</trkpt>
<trkpt lat="33.8111909" lon="-118.3930629">
  <ele>-24.36</ele>
  <time>2026-09-02T22:09:03Z</time>
  <course>51.93</course>
  <speed>0.35</speed>
  <fix>3d</fix>
</trkpt>
<trkpt lat="33.8111911" lon="-118.3930623">
  <ele>-24.959</ele>
  <time>2026-09-02T22:09:03Z</time>
  <course>54.91</course>
  <speed>0.194164878389476</speed>
  <fix>3d</fix>
</trkpt>
<trkpt lat="33.8111912" lon="-118.3930624">
  <ele>-24.36</ele>
  <time>2026-09-02T22:09:03Z</time>
  <course>51.16</course>
  <speed>0.26</speed>
  <fix>3d</fix>
</trkpt>
<trkpt lat="33.8111912" lon="-118.3930621">
  <ele>-24.953</ele>
  <time>2026-09-02T22:09:03Z</time>
  <course>54.9</course>
  <speed>0.17204650534085253</speed>
  <fix>3d</fix>
</trkpt>
<trkpt lat="33.8111912" lon="-118.3930624">
  <ele>-24.36</ele>
  <time>2026-09-02T22:09:03Z</time>
  <course>51.16</course>
  <speed>0.26</speed>
  <fix>3d</fix>
</trkpt>
<trkpt lat="33.8111913" lon="-118.3930619">
  <ele>-24.947</ele>
  <time>2026-09-02T22:09:03Z</time>
  <course>54.88</course>
  <speed>0.15811388300841897</speed>
  <fix>3d</fix>
</trkpt>
<trkpt lat="33.8111915" lon="-118.3930619">
  <ele>-24.35</ele>
  <time>2026-09-02T22:09:03Z</time>
  <course>50.44</course>
  <speed>0.21</speed>
  <fix>3d</fix>
</trkpt>
<trkpt lat="33.8111914" lon="-118.3930618">
  <ele>-24.941</ele>
  <time>2026-09-02T22:09:03Z</time>
  <course>54.87</course>
  <speed>0.14422205101855956</speed>
  <fix>3d</fix>
</trkpt>
<trkpt lat="33.8111915" lon="-118.3930619">
  <ele>-24.35</ele>
  <time>2026-09-02T22:09:03Z</time>
  <course>50.44</course>
  <speed>0.21</speed>
  <fix>3d</fix>
</trkpt>
<trkpt lat="33.8111915" lon="-118.3930616">
  <ele>-24.934</ele>
  <time>2026-09-02T22:09:03Z</time>
  <course>54.86</course>
  <speed>0.13601470508735444</speed>
  <fix>3d</fix>
</trkpt>
<trkpt lat="33.8111918" lon="-118.3930616">
  <ele>-24.34</ele>
  <time>2026-09-02T22:09:03Z</time>
  <course>49.74</course>
  <speed>0.17</speed>
  <fix>3d</fix>
</trkpt>
<trkpt lat="33.8111916" lon="-118.3930615">
  <ele>-24.927</ele>
  <time>2026-09-02T22:09:03Z</time>
  <course>54.84</course>
  <speed>0.130384048104053</speed>
  <fix>3d</fix>
</trkpt>
<trkpt lat="33.8111918" lon="-118.3930616">
  <ele>-24.34</ele>
  <time>2026-09-02T22:09:03Z</time>
  <course>49.74</course>
  <speed>0.17</speed>
  <fix>3d</fix>
</trkpt>
<trkpt lat="33.8111917" lon="-118.3930614">
  <ele>-24.921</ele>
  <time>2026-09-02T22:09:03Z</time>
  <course>54.83</course>
  <speed>0.11661903789690602</speed>
  <fix>3d</fix>
</trkpt>
<trkpt lat="33.8111919" lon="-118.3930614">
  <ele>-24.33</ele>
  <time>2026-09-02T22:09:03Z</time>
  <course>49.08</course>
  <speed>0.15</speed>
  <fix>3d</fix>
</trkpt>
<trkpt lat="33.8111918" lon="-118.3930612">
  <ele>-24.915</ele>
  <time>2026-09-02T22:09:03Z</time>
  <course>54.82</course>
  <speed>0.10816653826391968</speed>
  <fix>3d</fix>
</trkpt>
<trkpt lat="33.8111919" lon="-118.3930614">
  <ele>-24.33</ele>
  <time>2026-09-02T22:09:03Z</time>
  <course>49.08</course>
  <speed>0.15</speed>
  <fix>3d</fix>
</trkpt>
<trkpt lat="33.8111919" lon="-118.3930611">
  <ele>-24.909</ele>
  <time>2026-09-02T22:09:03Z</time>
  <course>54.8</course>
  <speed>0.10816653826391968</speed>
  <fix>3d</fix>
</trkpt>
<trkpt lat="33.8111921" lon="-118.3930612">
  <ele>-24.31</ele>
  <time>2026-09-02T22:09:03Z</time>
  <course>48.44</course>
  <speed>0.13</speed>
  <fix>3d</fix>
</trkpt>
<trkpt lat="33.811192" lon="-118.393061">
  <ele>-24.901</ele>
  <time>2026-09-02T22:09:03Z</time>
  <course>54.79</course>
  <speed>0.09433981132056603</speed>
  <fix>3d</fix>
</trkpt>
<trkpt lat="33.8111921" lon="-118.3930612">
  <ele>-24.31</ele>
  <time>2026-09-02T22:09:03Z</time>
  <course>48.44</course>
  <speed>0.13</speed>
  <fix>3d</fix>
</trkpt>
<trkpt lat="33.811192" lon="-118.3930609">
  <ele>-24.893</ele>
  <time>2026-09-02T22:09:03Z</time>
  <course>54.78</course>
  <speed>0.09433981132056603</speed>
  <fix>3d</fix>
</trkpt>
<trkpt lat="33.8111922" lon="-118.393061">
  <ele>-24.3</ele>
  <time>2026-09-02T22:09:03Z</time>
  <course>47.84</course>
  <speed>0.11</speed>
  <fix>3d</fix>
</trkpt>
<trkpt lat="33.8111921" lon="-118.3930608">
  <ele>-24.883</ele>
  <time>2026-09-02T22:09:03Z</time>
  <course>54.76</course>
  <speed>0.08602325267042626</speed>
  <fix>3d</fix>
</trkpt>
<trkpt lat="33.8111922" lon="-118.393061">
  <ele>-24.3</ele>
  <time>2026-09-02T22:09:03Z</time>
  <course>47.84</course>
  <speed>0.11</speed>
  <fix>3d</fix>
</trkpt>
<trkpt lat="33.8111922" lon="-118.3930607">
  <ele>-24.873</ele>
  <time>2026-09-02T22:09:03Z</time>
  <course>54.75</course>
  <speed>0.08062257748298549</speed>
  <fix>3d</fix>
</trkpt>
<trkpt lat="33.8111923" lon="-118.3930608">
  <ele>-24.29</ele>
  <time>2026-09-02T22:09:03Z</time>
  <course>47.26</course>
  <speed>0.1</speed>
  <fix>3d</fix>
</trkpt>
<trkpt lat="33.8111922" lon="-118.3930607">
  <ele>-24.864</ele>
  <time>2026-09-02T22:09:03Z</time>
  <course>54.74</course>
  <speed>0.08062257748298549</speed>
  <fix>3d</fix>
</trkpt>
<trkpt lat="33.8111923" lon="-118.3930608">
  <ele>-24.29</ele>
  <time>2026-09-02T22:09:03Z</time>
  <course>47.26</course>
  <speed>0.1</speed>
  <fix>3d</fix>
</trkpt>
<trkpt lat="33.8111923" lon="-118.3930606">
  <ele>-24.856</ele>
  <time>2026-09-02T22:09:03Z</time>
  <course>54.72</course>
  <speed>0.07211102550927978</speed>
  <fix>3d</fix>
</trkpt>
<trkpt lat="33.8111925" lon="-118.3930605">
  <ele>-24.27</ele>
  <time>2026-09-02T22:09:03Z</time>
  <course>46.7</course>
  <speed>0.09</speed>
  <fix>3d</fix>
</trkpt>
<trkpt lat="33.8111924" lon="-118.3930605">
  <ele>-24.849</ele>
  <time>2026-09-02T22:09:03Z</time>
  <course>54.71</course>
  <speed>0.07211102550927978</speed>
  <fix>3d</fix>
</trkpt>
<trkpt lat="33.8111925" lon="-118.3930605">
  <ele>-24.27</ele>
  <time>2026-09-02T22:09:03Z</time>
  <course>46.7</course>
  <speed>0.09</speed>
  <fix>3d</fix>
</trkpt>
<trkpt lat="33.8111924" lon="-118.3930604">
  <ele>-24.841</ele>
  <time>2026-09-02T22:09:03Z</time>
  <course>54.7</course>
  <speed>0.0670820393249937</speed>
  <fix>3d</fix>
</trkpt>
<trkpt lat="33.8111926" lon="-118.3930604">
  <ele>-24.25</ele>
  <time>2026-09-02T22:09:03Z</time>
  <course>46.15</course>
  <speed>0.09</speed>
  <fix>3d</fix>
</trkpt>
<trkpt lat="33.8111925" lon="-118.3930604">
  <ele>-24.832</ele>
  <time>2026-09-02T22:09:03Z</time>
  <course>54.68</course>
  <speed>0.0670820393249937</speed>
  <fix>3d</fix>
</trkpt>
<trkpt lat="33.8111926" lon="-118.3930604">
  <ele>-24.25</ele>
  <time>2026-09-02T22:09:03Z</time>
  <course>46.15</course>
  <speed>0.09</speed>
  <fix>3d</fix>
</trkpt>
<trkpt lat="33.8111925" lon="-118.3930603">
  <ele>-24.823</ele>
  <time>2026-09-02T22:09:03Z</time>
  <course>54.67</course>
  <speed>0.05830951894845301</speed>
  <fix>3d</fix>
</trkpt>
<trkpt lat="33.8111927" lon="-118.3930603">
  <ele>-24.24</ele>
  <time>2026-09-02T22:09:03Z</time>
  <course>45.62</course>
  <speed>0.08</speed>
  <fix>3d</fix>
</trkpt>
<trkpt lat="33.8111926" lon="-118.3930602">
  <ele>-24.814</ele>
  <time>2026-09-02T22:09:03Z</time>
  <course>54.66</course>
  <speed>0.05830951894845301</speed>
  <fix>3d</fix>
</trkpt>
<trkpt lat="33.8111927" lon="-118.3930603">
  <ele>-24.24</ele>
  <time>2026-09-02T22:09:03Z</time>
  <course>45.62</course>
  <speed>0.08</speed>
  <fix>3d</fix>
</trkpt>
<trkpt lat="33.8111926" lon="-118.3930602">
  <ele>-24.805</ele>
  <time>2026-09-02T22:09:03Z</time>
  <course>54.65</course>
  <speed>0.05830951894845301</speed>
  <fix>3d</fix>
</trkpt>
<trkpt lat="33.8111928" lon="-118.3930602">
  <ele>-24.22</ele>
  <time>2026-09-02T22:09:03Z</time>
  <course>45.1</course>
  <speed>0.07</speed>
  <fix>3d</fix>
</trkpt>
<trkpt lat="33.8111927" lon="-118.3930601">
  <ele>-24.795</ele>
  <time>2026-09-02T22:09:03Z</time>
  <course>54.63</course>
  <speed>0.053851648071345036</speed>
  <fix>3d</fix>
</trkpt>
<trkpt lat="33.8111928" lon="-118.3930602">
  <ele>-24.22</ele>
  <time>2026-09-02T22:09:03Z</time>
  <course>45.1</course>
  <speed>0.07</speed>
  <fix>3d</fix>
</trkpt>
<trkpt lat="33.8111929" lon="-118.3930599">
  <ele>-24.757</ele>
  <time>2026-09-02T22:09:03Z</time>
  <course>54.58</course>
  <speed>0.044721359549995794</speed>
  <fix>3d</fix>
</trkpt>
<trkpt lat="33.811193" lon="-118.3930599">
  <ele>-24.19</ele>
  <time>2026-09-02T22:09:03Z</time>
  <course>44.16</course>
  <speed>0.06</speed>
  <fix>3d</fix>
</trkpt>
<trkpt lat="33.811193" lon="-118.3930597">
  <ele>-24.728</ele>
  <time>2026-09-02T22:09:03Z</time>
  <course>54.55</course>
  <speed>0.0412310562561766</speed>
  <fix>3d</fix>
</trkpt>
<trkpt lat="33.8111932" lon="-118.3930598">
  <ele>-24.15</ele>
  <time>2026-09-02T22:09:03Z</time>
  <course>43.26</course>
  <speed>0.06</speed>
  <fix>3d</fix>
</trkpt>
<trkpt lat="33.811193" lon="-118.3930597">
  <ele>-24.718</ele>
  <time>2026-09-02T22:09:03Z</time>
  <course>54.54</course>
  <speed>0.0412310562561766</speed>
  <fix>3d</fix>
</trkpt>
<trkpt lat="33.8111932" lon="-118.3930598">
  <ele>-24.15</ele>
  <time>2026-09-02T22:09:03Z</time>
  <course>43.26</course>
  <speed>0.06</speed>
  <fix>3d</fix>
</trkpt>
<trkpt lat="33.8111931" lon="-118.3930596">
  <ele>-24.708</ele>
  <time>2026-09-02T22:09:03Z</time>
  <course>54.52</course>
  <speed>0.0412310562561766</speed>
  <fix>3d</fix>
</trkpt>
<trkpt lat="33.8111933" lon="-118.3930597">
  <ele>-24.13</ele>
  <time>2026-09-02T22:09:03Z</time>
  <course>42.82</course>
  <speed>0.05</speed>
  <fix>3d</fix>
</trkpt>
<trkpt lat="33.8111931" lon="-118.3930596">
  <ele>-24.698</ele>
  <time>2026-09-02T22:09:03Z</time>
  <course>54.51</course>
  <speed>0.0316227766016838</speed>
  <fix>3d</fix>
</trkpt>
<trkpt lat="33.8111933" lon="-118.3930597">
  <ele>-24.13</ele>
  <time>2026-09-02T22:09:03Z</time>
  <course>42.82</course>
  <speed>0.05</speed>
  <fix>3d</fix>
</trkpt>
<trkpt lat="33.8111931" lon="-118.3930596">
  <ele>-24.689</ele>
  <time>2026-09-02T22:09:03Z</time>
  <course>54.5</course>
  <speed>0.0316227766016838</speed>
  <fix>3d</fix>
</trkpt>
<trkpt lat="33.8111933" lon="-118.3930596">
  <ele>-24.11</ele>
  <time>2026-09-02T22:09:03Z</time>
  <course>42.39</course>
  <speed>0.05</speed>
  <fix>3d</fix>
</trkpt>
<trkpt lat="33.8111932" lon="-118.3930595">
  <ele>-24.679</ele>
  <time>2026-09-02T22:09:03Z</time>
  <course>54.49</course>
  <speed>0.0316227766016838</speed>
  <fix>3d</fix>
</trkpt>
<trkpt lat="33.8111933" lon="-118.3930596">
  <ele>-24.11</ele>
  <time>2026-09-02T22:09:03Z</time>
  <course>42.39</course>
  <speed>0.05</speed>
  <fix>3d</fix>
</trkpt>
<trkpt lat="33.8111932" lon="-118.3930595">
  <ele>-24.67</ele>
  <time>2026-09-02T22:09:03Z</time>
  <course>54.48</course>
  <speed>0.0316227766016838</speed>
  <fix>3d</fix>
</trkpt>
<trkpt lat="33.8111934" lon="-118.3930595">
  <ele>-24.09</ele>
  <time>2026-09-02T22:09:03Z</time>
  <course>41.98</course>
  <speed>0.05</speed>
  <fix>3d</fix>
</trkpt>
<trkpt lat="33.8111932" lon="-118.3930595">
  <ele>-24.661</ele>
  <time>2026-09-02T22:09:03Z</time>
  <course>54.47</course>
  <speed>0.0316227766016838</speed>
  <fix>3d</fix>
</trkpt>
<trkpt lat="33.8111934" lon="-118.3930595">
  <ele>-24.09</ele>
  <time>2026-09-02T22:09:03Z</time>
  <course>41.98</course>
  <speed>0.05</speed>
  <fix>3d</fix>
</trkpt>
<trkpt lat="33.8111933" lon="-118.3930594">
  <ele>-24.651</ele>
  <time>2026-09-02T22:09:03Z</time>
  <course>54.45</course>
  <speed>0.0316227766016838</speed>
  <fix>3d</fix>
</trkpt>
<trkpt lat="33.8111935" lon="-118.3930594">
  <ele>-24.07</ele>
  <time>2026-09-02T22:09:03Z</time>
  <course>41.6</course>
  <speed>0.05</speed>
  <fix>3d</fix>
</trkpt>
<trkpt lat="33.8111933" lon="-118.3930594">
  <ele>-24.642</ele>
  <time>2026-09-02T22:09:03Z</time>
  <course>54.44</course>
  <speed>0.0316227766016838</speed>
  <fix>3d</fix>
</trkpt>
<trkpt lat="33.8111935" lon="-118.3930594">
  <ele>-24.07</ele>
  <time>2026-09-02T22:09:03Z</time>
  <course>41.6</course>
  <speed>0.05</speed>
  <fix>3d</fix>
</trkpt>
<trkpt lat="33.8111933" lon="-118.3930593">
  <ele>-24.632</ele>
  <time>2026-09-02T22:09:03Z</time>
  <course>54.43</course>
  <speed>0.0316227766016838</speed>
  <fix>3d</fix>
</trkpt>
<trkpt lat="33.8111935" lon="-118.3930594">
  <ele>-24.05</ele>
  <time>2026-09-02T22:09:03Z</time>
  <course>41.24</course>
  <speed>0.04</speed>
  <fix>3d</fix>
</trkpt>
<trkpt lat="33.8111934" lon="-118.3930593">
  <ele>-24.622</ele>
  <time>2026-09-02T22:09:03Z</time>
  <course>54.42</course>
  <speed>0.03</speed>
  <fix>3d</fix>
</trkpt>
<trkpt lat="33.8111935" lon="-118.3930594">
  <ele>-24.05</ele>
  <time>2026-09-02T22:09:03Z</time>
  <course>41.24</course>
  <speed>0.04</speed>
  <fix>3d</fix>
</trkpt>
<trkpt lat="33.8111934" lon="-118.3930593">
  <ele>-24.612</ele>
  <time>2026-09-02T22:09:03Z</time>
  <course>54.41</course>
  <speed>0.02</speed>
  <fix>3d</fix>
</trkpt>
<trkpt lat="33.8111936" lon="-118.3930593">
  <ele>-24.04</ele>
  <time>2026-09-02T22:09:03Z</time>
  <course>40.87</course>
  <speed>0.04</speed>
  <fix>3d</fix>
</trkpt>
<trkpt lat="33.8111934" lon="-118.3930593">
  <ele>-24.602</ele>
  <time>2026-09-02T22:09:03Z</time>
  <course>54.4</course>
  <speed>0.02</speed>
  <fix>3d</fix>
</trkpt>
<trkpt lat="33.8111936" lon="-118.3930593">
  <ele>-24.04</ele>
  <time>2026-09-02T22:09:03Z</time>
  <course>40.87</course>
  <speed>0.04</speed>
  <fix>3d</fix>
</trkpt>
<trkpt lat="33.8111935" lon="-118.3930592">
  <ele>-24.592</ele>
  <time>2026-09-02T22:09:03Z</time>
  <course>54.39</course>
  <speed>0.02</speed>
  <fix>3d</fix>
</trkpt>
<trkpt lat="33.8111936" lon="-118.3930592">
  <ele>-24.02</ele>
  <time>2026-09-02T22:09:03Z</time>
  <course>40.5</course>
  <speed>0.04</speed>
  <fix>3d</fix>
</trkpt>
<trkpt lat="33.8111935" lon="-118.3930592">
  <ele>-24.583</ele>
  <time>2026-09-02T22:09:03Z</time>
  <course>54.38</course>
  <speed>0.02</speed>
  <fix>3d</fix>
</trkpt>
<trkpt lat="33.8111936" lon="-118.3930592">
  <ele>-24.02</ele>
  <time>2026-09-02T22:09:03Z</time>
  <course>40.5</course>
  <speed>0.04</speed>
  <fix>3d</fix>
</trkpt>
<trkpt lat="33.8111935" lon="-118.3930592">
  <ele>-24.573</ele>
  <time>2026-09-02T22:09:03Z</time>
  <course>54.37</course>
  <speed>0.02</speed>
  <fix>3d</fix>
</trkpt>
<trkpt lat="33.8111937" lon="-118.3930592">
  <ele>-24.0</ele>
  <time>2026-09-02T22:09:03Z</time>
  <course>40.14</course>
  <speed>0.04</speed>
  <fix>3d</fix>
</trkpt>
<trkpt lat="33.8111935" lon="-118.3930591">
  <ele>-24.562</ele>
  <time>2026-09-02T22:09:03Z</time>
  <course>54.35</course>
  <speed>0.02</speed>
  <fix>3d</fix>
</trkpt>
<trkpt lat="33.8111937" lon="-118.3930592">
  <ele>-24.0</ele>
  <time>2026-09-02T22:09:03Z</time>
  <course>40.14</course>
  <speed>0.04</speed>
  <fix>3d</fix>
</trkpt>
<trkpt lat="33.8111936" lon="-118.3930591">
  <ele>-24.551</ele>
  <time>2026-09-02T22:09:03Z</time>
  <course>54.34</course>
  <speed>0.02</speed>
  <fix>3d</fix>
</trkpt>
<trkpt lat="33.8111938" lon="-118.3930591">
  <ele>-23.98</ele>
  <time>2026-09-02T22:09:03Z</time>
  <course>39.78</course>
  <speed>0.04</speed>
  <fix>3d</fix>
</trkpt>
<trkpt lat="33.8111936" lon="-118.3930591">
  <ele>-24.541</ele>
  <time>2026-09-02T22:09:03Z</time>
  <course>54.33</course>
  <speed>0.02</speed>
  <fix>3d</fix>
</trkpt>
<trkpt lat="33.8111938" lon="-118.3930591">
  <ele>-23.98</ele>
  <time>2026-09-02T22:09:03Z</time>
  <course>39.78</course>
  <speed>0.04</speed>
  <fix>3d</fix>
</trkpt>
<trkpt lat="33.8111936" lon="-118.3930591">
  <ele>-24.53</ele>
  <time>2026-09-02T22:09:03Z</time>
  <course>54.32</course>
  <speed>0.02</speed>
  <fix>3d</fix>
</trkpt>
<trkpt lat="33.8111938" lon="-118.393059">
  <ele>-23.96</ele>
  <time>2026-09-02T22:09:03Z</time>
  <course>39.46</course>
  <speed>0.03</speed>
  <fix>3d</fix>
</trkpt>
<trkpt lat="33.8111936" lon="-118.393059">
  <ele>-24.519</ele>
  <time>2026-09-02T22:09:03Z</time>
  <course>54.31</course>
  <speed>0.02</speed>
  <fix>3d</fix>
</trkpt>
<trkpt lat="33.8111938" lon="-118.393059">
  <ele>-23.96</ele>
  <time>2026-09-02T22:09:03Z</time>
  <course>39.46</course>
  <speed>0.03</speed>
  <fix>3d</fix>
</trkpt>
<trkpt lat="33.8111936" lon="-118.393059">
  <ele>-24.509</ele>
  <time>2026-09-02T22:09:03Z</time>
  <course>54.3</course>
  <speed>0.02</speed>
  <fix>3d</fix>
</trkpt>
<trkpt lat="33.8111939" lon="-118.393059">
  <ele>-23.94</ele>
  <time>2026-09-02T22:09:03Z</time>
  <course>39.15</course>
  <speed>0.03</speed>
  <fix>3d</fix>
</trkpt>
<trkpt lat="33.8111937" lon="-118.393059">
  <ele>-24.499</ele>
  <time>2026-09-02T22:09:03Z</time>
  <course>54.29</course>
  <speed>0.02</speed>
  <fix>3d</fix>
</trkpt>
<trkpt lat="33.8111939" lon="-118.393059">
  <ele>-23.94</ele>
  <time>2026-09-02T22:09:03Z</time>
  <course>39.15</course>
  <speed>0.03</speed>
  <fix>3d</fix>
</trkpt>
<trkpt lat="33.8111937" lon="-118.393059">
  <ele>-24.489</ele>
  <time>2026-09-02T22:09:03Z</time>
  <course>54.28</course>
  <speed>0.02</speed>
  <fix>3d</fix>
</trkpt>
<trkpt lat="33.811194" lon="-118.393059">
  <ele>-23.92</ele>
  <time>2026-09-02T22:09:03Z</time>
  <course>38.86</course>
  <speed>0.03</speed>
  <fix>3d</fix>
</trkpt>
<trkpt lat="33.8111937" lon="-118.393059">
  <ele>-24.48</ele>
  <time>2026-09-02T22:09:03Z</time>
  <course>54.27</course>
  <speed>0.01</speed>
  <fix>3d</fix>
</trkpt>
<trkpt lat="33.811194" lon="-118.393059">
  <ele>-23.92</ele>
  <time>2026-09-02T22:09:03Z</time>
  <course>38.86</course>
  <speed>0.03</speed>
  <fix>3d</fix>
</trkpt>
<trkpt lat="33.8111937" lon="-118.3930589">
  <ele>-24.473</ele>
  <time>2026-09-02T22:09:03Z</time>
  <course>54.26</course>
  <speed>0.01</speed>
  <fix>3d</fix>
</trkpt>
<trkpt lat="33.811194" lon="-118.3930589">
  <ele>-23.9</ele>
  <time>2026-09-02T22:09:03Z</time>
  <course>38.55</course>
  <speed>0.03</speed>
  <fix>3d</fix>
</trkpt>
<trkpt lat="33.8111938" lon="-118.3930589">
  <ele>-24.465</ele>
  <time>2026-09-02T22:09:03Z</time>
  <course>54.25</course>
  <speed>0.01</speed>
  <fix>3d</fix>
</trkpt>
<trkpt lat="33.811194" lon="-118.3930589">
  <ele>-23.9</ele>
  <time>2026-09-02T22:09:03Z</time>
  <course>38.55</course>
  <speed>0.03</speed>
  <fix>3d</fix>
</trkpt>
<trkpt lat="33.8111938" lon="-118.3930589">
  <ele>-24.457</ele>
  <time>2026-09-02T22:09:03Z</time>
  <course>54.24</course>
  <speed>0.01</speed>
  <fix>3d</fix>
</trkpt>
<trkpt lat="33.8111941" lon="-118.3930589">
  <ele>-23.88</ele>
  <time>2026-09-02T22:09:03Z</time>
  <course>38.23</course>
  <speed>0.03</speed>
  <fix>3d</fix>
</trkpt>
<trkpt lat="33.8111938" lon="-118.3930589">
  <ele>-24.447</ele>
  <time>2026-09-02T22:09:03Z</time>
  <course>54.23</course>
  <speed>0.01</speed>
  <fix>3d</fix>
</trkpt>
<trkpt lat="33.8111941" lon="-118.3930589">
  <ele>-23.88</ele>
  <time>2026-09-02T22:09:03Z</time>
  <course>38.23</course>
  <speed>0.03</speed>
  <fix>3d</fix>
</trkpt>
<trkpt lat="33.8111939" lon="-118.3930589">
  <ele>-24.438</ele>
  <time>2026-09-02T22:09:03Z</time>
  <course>54.22</course>
  <speed>0.01</speed>
  <fix>3d</fix>
</trkpt>
<trkpt lat="33.8111941" lon="-118.3930588">
  <ele>-23.86</ele>
  <time>2026-09-02T22:09:03Z</time>
  <course>37.92</course>
  <speed>0.03</speed>
  <fix>3d</fix>
</trkpt>
<trkpt lat="33.8111939" lon="-118.3930588">
  <ele>-24.429</ele>
  <time>2026-09-02T22:09:03Z</time>
  <course>54.21</course>
  <speed>0.01</speed>
  <fix>3d</fix>
</trkpt>
<trkpt lat="33.8111941" lon="-118.3930588">
  <ele>-23.86</ele>
  <time>2026-09-02T22:09:03Z</time>
  <course>37.92</course>
  <speed>0.03</speed>
  <fix>3d</fix>
</trkpt>
<trkpt lat="33.8111939" lon="-118.3930588">
  <ele>-24.42</ele>
  <time>2026-09-02T22:09:03Z</time>
  <course>54.2</course>
  <speed>0.01</speed>
  <fix>3d</fix>
</trkpt>
<trkpt lat="33.8111941" lon="-118.3930588">
  <ele>-23.85</ele>
  <time>2026-09-02T22:09:03Z</time>
  <course>37.63</course>
  <speed>0.03</speed>
  <fix>3d</fix>
</trkpt>
<trkpt lat="33.8111939" lon="-118.3930588">
  <ele>-24.412</ele>
  <time>2026-09-02T22:09:03Z</time>
  <course>54.19</course>
  <speed>0.01</speed>
  <fix>3d</fix>
</trkpt>
<trkpt lat="33.8111941" lon="-118.3930588">
  <ele>-23.85</ele>
  <time>2026-09-02T22:09:03Z</time>
  <course>37.63</course>
  <speed>0.03</speed>
  <fix>3d</fix>
</trkpt>
<trkpt lat="33.8111939" lon="-118.3930588">
  <ele>-24.403</ele>
  <time>2026-09-02T22:09:03Z</time>
  <course>54.18</course>
  <speed>0.01</speed>
  <fix>3d</fix>
</trkpt>
<trkpt lat="33.8111942" lon="-118.3930587">
  <ele>-23.83</ele>
  <time>2026-09-02T22:09:03Z</time>
  <course>37.37</course>
  <speed>0.03</speed>
  <fix>3d</fix>
</trkpt>
<trkpt lat="33.811194" lon="-118.3930588">
  <ele>-24.394</ele>
  <time>2026-09-02T22:09:03Z</time>
  <course>54.17</course>
  <speed>0.01</speed>
  <fix>3d</fix>
</trkpt>
<trkpt lat="33.8111942" lon="-118.3930587">
  <ele>-23.83</ele>
  <time>2026-09-02T22:09:03Z</time>
  <course>37.37</course>
  <speed>0.03</speed>
  <fix>3d</fix>
</trkpt>
<trkpt lat="33.811194" lon="-118.3930587">
  <ele>-24.384</ele>
  <time>2026-09-02T22:09:03Z</time>
  <course>54.89</course>
  <speed>0.01</speed>
  <fix>3d</fix>
</trkpt>
<trkpt lat="33.8111942" lon="-118.3930587">
  <ele>-23.81</ele>
  <time>2026-09-02T22:09:03Z</time>
  <course>36.98</course>
  <speed>0.03</speed>
  <fix>3d</fix>
</trkpt>
<trkpt lat="33.811194" lon="-118.3930587">
  <ele>-24.376</ele>
  <time>2026-09-02T22:09:03Z</time>
  <course>57.22</course>
  <speed>0.0316227766016838</speed>
  <fix>3d</fix>
</trkpt>
<trkpt lat="33.8111942" lon="-118.3930587">
  <ele>-23.81</ele>
  <time>2026-09-02T22:09:03Z</time>
  <course>36.98</course>
  <speed>0.03</speed>
  <fix>3d</fix>
</trkpt>
<trkpt lat="33.811194" lon="-118.3930588">
  <ele>-24.369</ele>
  <time>2026-09-02T22:09:03Z</time>
  <course>60.34</course>
  <speed>0.05830951894845301</speed>
  <fix>3d</fix>
</trkpt>
<trkpt lat="33.8111942" lon="-118.3930587">
  <ele>-23.79</ele>
  <time>2026-09-02T22:09:03Z</time>
  <course>18.64</course>
  <speed>0.0</speed>
  <fix>3d</fix>
</trkpt>
<trkpt lat="33.8111939" lon="-118.3930588">
  <ele>-24.365</ele>
  <time>2026-09-02T22:09:03Z</time>
  <course>63.85</course>
  <speed>0.1</speed>
  <fix>3d</fix>
</trkpt>
<trkpt lat="33.8111942" lon="-118.3930587">
  <ele>-23.79</ele>
  <time>2026-09-02T22:09:03Z</time>
  <course>18.64</course>
  <speed>0.0</speed>
  <fix>3d</fix>
</trkpt>
<trkpt lat="33.8111939" lon="-118.3930588">
  <ele>-24.361</ele>
  <time>2026-09-02T22:09:03Z</time>
  <course>67.64</course>
  <speed>0.14866068747318506</speed>
  <fix>3d</fix>
</trkpt>
<trkpt lat="33.8111942" lon="-118.3930587">
  <ele>-23.77</ele>
  <time>2026-09-02T22:09:03Z</time>
  <course>232.3</course>
  <speed>0.04</speed>
  <fix>3d</fix>
</trkpt>
<trkpt lat="33.8111939" lon="-118.3930589">
  <ele>-24.356</ele>
  <time>2026-09-02T22:09:03Z</time>
  <course>71.65</course>
  <speed>0.20518284528683192</speed>
  <fix>3d</fix>
</trkpt>
<trkpt lat="33.8111942" lon="-118.3930587">
  <ele>-23.77</ele>
  <time>2026-09-02T22:09:03Z</time>
  <course>232.3</course>
  <speed>0.04</speed>
  <fix>3d</fix>
</trkpt>
<trkpt lat="33.8111937" lon="-118.3930591">
  <ele>-24.352</ele>
  <time>2026-09-02T22:09:03Z</time>
  <course>75.85</course>
  <speed>0.26870057685088805</speed>
  <fix>3d</fix>
</trkpt>
<trkpt lat="33.8111942" lon="-118.3930588">
  <ele>-23.76</ele>
  <time>2026-09-02T22:09:03Z</time>
  <course>229.39</course>
  <speed>0.14</speed>
  <fix>3d</fix>
</trkpt>
<trkpt lat="33.8111936" lon="-118.3930593">
  <ele>-24.347</ele>
  <time>2026-09-02T22:09:03Z</time>
  <course>80.25</course>
  <speed>0.34655446902326914</speed>
  <fix>3d</fix>
</trkpt>
<trkpt lat="33.8111942" lon="-118.3930588">
  <ele>-23.76</ele>
  <time>2026-09-02T22:09:03Z</time>
  <course>229.39</course>
  <speed>0.14</speed>
  <fix>3d</fix>
</trkpt>
<trkpt lat="33.8111934" lon="-118.3930596">
  <ele>-24.342</ele>
  <time>2026-09-02T22:09:03Z</time>
  <course>84.84</course>
  <speed>0.42449970553582245</speed>
  <fix>3d</fix>
</trkpt>
<trkpt lat="33.811194" lon="-118.393059">
  <ele>-23.76</ele>
  <time>2026-09-02T22:09:03Z</time>
  <course>228.7</course>
  <speed>0.26</speed>
  <fix>3d</fix>
</trkpt>
<trkpt lat="33.8111931" lon="-118.39306">
  <ele>-24.335</ele>
  <time>2026-09-02T22:09:03Z</time>
  <course>89.64</course>
  <speed>0.5024937810560445</speed>
  <fix>3d</fix>
</trkpt>
<trkpt lat="33.811194" lon="-118.393059">
  <ele>-23.76</ele>
  <time>2026-09-02T22:09:03Z</time>
  <course>228.7</course>
  <speed>0.26</speed>
  <fix>3d</fix>
</trkpt>
<trkpt lat="33.8111928" lon="-118.3930604">
  <ele>-24.325</ele>
  <time>2026-09-02T22:09:03Z</time>
  <course>94.62</course>
  <speed>0.5805170109479997</speed>
  <fix>3d</fix>
</trkpt>
<trkpt lat="33.8111936" lon="-118.3930596">
  <ele>-23.75</ele>
  <time>2026-09-02T22:09:03Z</time>
  <course>228.73</course>
  <speed>0.42</speed>
  <fix>3d</fix>
</trkpt>
<trkpt lat="33.8111925" lon="-118.3930609">
  <ele>-24.31</ele>
  <time>2026-09-02T22:09:03Z</time>
  <course>99.82</course>
  <speed>0.6519202405202649</speed>
  <fix>3d</fix>
</trkpt>
<trkpt lat="33.8111936" lon="-118.3930596">
  <ele>-23.75</ele>
  <time>2026-09-02T22:09:03Z</time>
  <course>228.73</course>
  <speed>0.42</speed>
  <fix>3d</fix>
</trkpt>
<trkpt lat="33.8111921" lon="-118.3930614">
  <ele>-24.293</ele>
  <time>2026-09-02T22:09:03Z</time>
  <course>105.23</course>
  <speed>0.70178344238091</speed>
  <fix>3d</fix>
</trkpt>
<trkpt lat="33.811193" lon="-118.3930605">
  <ele>-23.73</ele>
  <time>2026-09-02T22:09:03Z</time>
  <course>229.34</course>
  <speed>0.57</speed>
  <fix>3d</fix>
</trkpt>
<trkpt lat="33.8111917" lon="-118.393062">
  <ele>-24.273</ele>
  <time>2026-09-02T22:09:03Z</time>
  <course>110.91</course>
  <speed>0.7516648189186453</speed>
  <fix>3d</fix>
</trkpt>
<trkpt lat="33.811193" lon="-118.3930605">
  <ele>-23.73</ele>
  <time>2026-09-02T22:09:03Z</time>
  <course>229.34</course>
  <speed>0.57</speed>
  <fix>3d</fix>
</trkpt>
<trkpt lat="33.8111913" lon="-118.3930626">
  <ele>-24.251</ele>
  <time>2026-09-02T22:09:03Z</time>
  <course>116.92</course>
  <speed>0.7874642849044012</speed>
  <fix>3d</fix>
</trkpt>
<trkpt lat="33.8111923" lon="-118.3930615">
  <ele>-23.7</ele>
  <time>2026-09-02T22:09:03Z</time>
  <course>230.18</course>
  <speed>0.69</speed>
  <fix>3d</fix>
</trkpt>
<trkpt lat="33.8111909" lon="-118.3930632">
  <ele>-24.227</ele>
  <time>2026-09-02T22:09:03Z</time>
  <course>123.21</course>
  <speed>0.8091971329657563</speed>
  <fix>3d</fix>
</trkpt>
<trkpt lat="33.8111923" lon="-118.3930615">
  <ele>-23.7</ele>
  <time>2026-09-02T22:09:03Z</time>
  <course>230.18</course>
  <speed>0.69</speed>
  <fix>3d</fix>
</trkpt>
<trkpt lat="33.8111904" lon="-118.3930639">
  <ele>-24.203</ele>
  <time>2026-09-02T22:09:03Z</time>
  <course>129.8</course>
  <speed>0.8297590011563598</speed>
  <fix>3d</fix>
</trkpt>
<trkpt lat="33.8111914" lon="-118.3930627">
  <ele>-23.66</ele>
  <time>2026-09-02T22:09:03Z</time>
  <course>230.74</course>
  <speed>0.77</speed>
  <fix>3d</fix>
</trkpt>
<trkpt lat="33.81119" lon="-118.3930646">
  <ele>-24.18</ele>
  <time>2026-09-02T22:09:03Z</time>
  <course>136.56</course>
  <speed>0.8429116205154606</speed>
  <fix>3d</fix>
</trkpt>
<trkpt lat="33.8111914" lon="-118.3930627">
  <ele>-23.66</ele>
  <time>2026-09-02T22:09:03Z</time>
  <course>230.74</course>
  <speed>0.77</speed>
  <fix>3d</fix>
</trkpt>
<trkpt lat="33.8111895" lon="-118.3930652">
  <ele>-24.157</ele>
  <time>2026-09-02T22:09:03Z</time>
  <course>143.4</course>
  <speed>0.8558621384311844</speed>
  <fix>3d</fix>
</trkpt>
<trkpt lat="33.8111905" lon="-118.3930641">
  <ele>-23.61</ele>
  <time>2026-09-02T22:09:03Z</time>
  <course>229.83</course>
  <speed>0.81</speed>
  <fix>3d</fix>
</trkpt>
<trkpt lat="33.811189" lon="-118.3930659">
  <ele>-24.134</ele>
  <time>2026-09-02T22:09:03Z</time>
  <course>150.24</course>
  <speed>0.8768124086713189</speed>
  <fix>3d</fix>
</trkpt>
<trkpt lat="33.8111905" lon="-118.3930641">
  <ele>-23.61</ele>
  <time>2026-09-02T22:09:03Z</time>
  <course>229.83</course>
  <speed>0.81</speed>
  <fix>3d</fix>
</trkpt>
<trkpt lat="33.8111885" lon="-118.3930665">
  <ele>-24.111</ele>
  <time>2026-09-02T22:09:03Z</time>
  <course>157.01</course>
  <speed>0.8910667763978185</speed>
  <fix>3d</fix>
</trkpt>
<trkpt lat="33.8111895" lon="-118.3930655">
  <ele>-23.57</ele>
  <time>2026-09-02T22:09:03Z</time>
  <course>227.23</course>
  <speed>0.85</speed>
  <fix>3d</fix>
</trkpt>
<trkpt lat="33.8111879" lon="-118.3930672">
  <ele>-24.088</ele>
  <time>2026-09-02T22:09:03Z</time>
  <course>163.69</course>
  <speed>0.912414379544733</speed>
  <fix>3d</fix>
</trkpt>
<trkpt lat="33.8111895" lon="-118.3930655">
  <ele>-23.57</ele>
  <time>2026-09-02T22:09:03Z</time>
  <course>227.23</course>
  <speed>0.85</speed>
  <fix>3d</fix>
</trkpt>
<trkpt lat="33.8111873" lon="-118.3930679">
  <ele>-24.064</ele>
  <time>2026-09-02T22:09:03Z</time>
  <course>170.21</course>
  <speed>0.9334880824091971</speed>
  <fix>3d</fix>
</trkpt>
<trkpt lat="33.8111884" lon="-118.3930668">
  <ele>-23.52</ele>
  <time>2026-09-02T22:09:03Z</time>
  <course>225.13</course>
  <speed>0.88</speed>
  <fix>3d</fix>
</trkpt>
<trkpt lat="33.8111867" lon="-118.3930686">
  <ele>-24.04</ele>
  <time>2026-09-02T22:09:03Z</time>
  <course>176.51</course>
  <speed>0.9546203433826455</speed>
  <fix>3d</fix>
</trkpt>
<trkpt lat="33.8111884" lon="-118.3930668">
  <ele>-23.52</ele>
  <time>2026-09-02T22:09:03Z</time>
  <course>225.13</course>
  <speed>0.88</speed>
  <fix>3d</fix>
</trkpt>
<trkpt lat="33.8111862" lon="-118.3930694">
  <ele>-24.016</ele>
  <time>2026-09-02T22:09:03Z</time>
  <course>182.63</course>
  <speed>0.9689685237405805</speed>
  <fix>3d</fix>
</trkpt>
<trkpt lat="33.8111873" lon="-118.3930681">
  <ele>-23.48</ele>
  <time>2026-09-02T22:09:03Z</time>
  <course>225.4</course>
  <speed>0.92</speed>
  <fix>3d</fix>
</trkpt>
<trkpt lat="33.8111856" lon="-118.3930701">
  <ele>-23.992</ele>
  <time>2026-09-02T22:09:03Z</time>
  <course>188.62</course>
  <speed>0.9767292357659824</speed>
  <fix>3d</fix>
</trkpt>
<trkpt lat="33.8111873" lon="-118.3930681">
  <ele>-23.48</ele>
  <time>2026-09-02T22:09:03Z</time>
  <course>225.4</course>
  <speed>0.92</speed>
  <fix>3d</fix>
</trkpt>
<trkpt lat="33.811185" lon="-118.3930709">
  <ele>-23.968</ele>
  <time>2026-09-02T22:09:03Z</time>
  <course>194.57</course>
  <speed>0.97082439194738</speed>
  <fix>3d</fix>
</trkpt>
<trkpt lat="33.8111861" lon="-118.3930696">
  <ele>-23.43</ele>
  <time>2026-09-02T22:09:03Z</time>
  <course>227.45</course>
  <speed>0.95</speed>
  <fix>3d</fix>
</trkpt>
<trkpt lat="33.8111845" lon="-118.3930717">
  <ele>-23.945</ele>
  <time>2026-09-02T22:09:03Z</time>
  <course>200.55</course>
  <speed>0.9654014708917736</speed>
  <fix>3d</fix>
</trkpt>
<trkpt lat="33.8111861" lon="-118.3930696">
  <ele>-23.43</ele>
  <time>2026-09-02T22:09:03Z</time>
  <course>227.45</course>
  <speed>0.95</speed>
  <fix>3d</fix>
</trkpt>
<trkpt lat="33.811184" lon="-118.3930725">
  <ele>-23.921</ele>
  <time>2026-09-02T22:09:03Z</time>
  <course>206.45</course>
  <speed>0.9526804291051643</speed>
  <fix>3d</fix>
</trkpt>
<trkpt lat="33.811185" lon="-118.3930712">
  <ele>-23.39</ele>
  <time>2026-09-02T22:09:03Z</time>
  <course>229.77</course>
  <speed>0.95</speed>
  <fix>3d</fix>
</trkpt>
<trkpt lat="33.8111835" lon="-118.3930733">
  <ele>-23.898</ele>
  <time>2026-09-02T22:09:03Z</time>
  <course>211.99</course>
  <speed>0.918313671900838</speed>
  <fix>3d</fix>
</trkpt>
<trkpt lat="33.811185" lon="-118.3930712">
  <ele>-23.39</ele>
  <time>2026-09-02T22:09:03Z</time>
  <course>229.77</course>
  <speed>0.95</speed>
  <fix>3d</fix>
</trkpt>
<trkpt lat="33.811183" lon="-118.393074">
  <ele>-23.874</ele>
  <time>2026-09-02T22:09:03Z</time>
  <course>216.93</course>
  <speed>0.904267659490264</speed>
  <fix>3d</fix>
</trkpt>
<trkpt lat="33.8111839" lon="-118.3930728">
  <ele>-23.34</ele>
  <time>2026-09-02T22:09:03Z</time>
  <course>231.67</course>
  <speed>0.93</speed>
  <fix>3d</fix>
</trkpt>
<trkpt lat="33.8111825" lon="-118.3930748">
  <ele>-23.852</ele>
  <time>2026-09-02T22:09:03Z</time>
  <course>221.21</course>
  <speed>0.8886506625215557</speed>
  <fix>3d</fix>
</trkpt>
<trkpt lat="33.8111839" lon="-118.3930728">
  <ele>-23.34</ele>
  <time>2026-09-02T22:09:03Z</time>
  <course>231.67</course>
  <speed>0.93</speed>
  <fix>3d</fix>
</trkpt>
<trkpt lat="33.811182" lon="-118.3930755">
  <ele>-23.83</ele>
  <time>2026-09-02T22:09:03Z</time>
  <course>224.77</course>
  <speed>0.873212459828649</speed>
  <fix>3d</fix>
</trkpt>
<trkpt lat="33.8111829" lon="-118.3930744">
  <ele>-23.3</ele>
  <time>2026-09-02T22:09:03Z</time>
  <course>232.08</course>
  <speed>0.88</speed>
  <fix>3d</fix>
</trkpt>
<trkpt lat="33.8111815" lon="-118.3930762">
  <ele>-23.809</ele>
  <time>2026-09-02T22:09:03Z</time>
  <course>227.45</course>
  <speed>0.872066511224918</speed>
  <fix>3d</fix>
</trkpt>
<trkpt lat="33.8111829" lon="-118.3930744">
  <ele>-23.3</ele>
  <time>2026-09-02T22:09:03Z</time>
  <course>232.08</course>
  <speed>0.88</speed>
  <fix>3d</fix>
</trkpt>
<trkpt lat="33.811181" lon="-118.3930769">
  <ele>-23.788</ele>
  <time>2026-09-02T22:09:03Z</time>
  <course>229.13</course>
  <speed>0.8711486669908873</speed>
  <fix>3d</fix>
</trkpt>
<trkpt lat="33.8111818" lon="-118.3930759">
  <ele>-23.26</ele>
  <time>2026-09-02T22:09:03Z</time>
  <course>230.55</course>
  <speed>0.86</speed>
  <fix>3d</fix>
</trkpt>
<trkpt lat="33.8111805" lon="-118.3930776">
  <ele>-23.767</ele>
  <time>2026-09-02T22:09:03Z</time>
  <course>230.06</course>
  <speed>0.8704596486914256</speed>
  <fix>3d</fix>
</trkpt>
<trkpt lat="33.8111818" lon="-118.3930759">
  <ele>-23.26</ele>
  <time>2026-09-02T22:09:03Z</time>
  <course>230.55</course>
  <speed>0.86</speed>
  <fix>3d</fix>
</trkpt>
<trkpt lat="33.81118" lon="-118.3930783">
  <ele>-23.745</ele>
  <time>2026-09-02T22:09:03Z</time>
  <course>230.51</course>
  <speed>0.8704596486914256</speed>
  <fix>3d</fix>
</trkpt>
<trkpt lat="33.8111808" lon="-118.3930772">
  <ele>-23.22</ele>
  <time>2026-09-02T22:09:03Z</time>
  <course>228.76</course>
  <speed>0.85</speed>
  <fix>3d</fix>
</trkpt>
<trkpt lat="33.8111794" lon="-118.393079">
  <ele>-23.724</ele>
  <time>2026-09-02T22:09:03Z</time>
  <course>230.75</course>
  <speed>0.8704596486914256</speed>
  <fix>3d</fix>
</trkpt>
<trkpt lat="33.8111808" lon="-118.3930772">
  <ele>-23.22</ele>
  <time>2026-09-02T22:09:03Z</time>
  <course>228.76</course>
  <speed>0.85</speed>
  <fix>3d</fix>
</trkpt>
<trkpt lat="33.8111789" lon="-118.3930797">
  <ele>-23.703</ele>
  <time>2026-09-02T22:09:03Z</time>
  <course>230.97</course>
  <speed>0.8704596486914256</speed>
  <fix>3d</fix>
</trkpt>
<trkpt lat="33.8111799" lon="-118.3930786">
  <ele>-23.18</ele>
  <time>2026-09-02T22:09:03Z</time>
  <course>227.87</course>
  <speed>0.85</speed>
  <fix>3d</fix>
</trkpt>
<trkpt lat="33.8111784" lon="-118.3930804">
  <ele>-23.683</ele>
  <time>2026-09-02T22:09:03Z</time>
  <course>231.18</course>
  <speed>0.8704596486914256</speed>
  <fix>3d</fix>
</trkpt>
<trkpt lat="33.8111799" lon="-118.3930786">
  <ele>-23.18</ele>
  <time>2026-09-02T22:09:03Z</time>
  <course>227.87</course>
  <speed>0.85</speed>
  <fix>3d</fix>
</trkpt>
<trkpt lat="33.8111779" lon="-118.3930811">
  <ele>-23.663</ele>
  <time>2026-09-02T22:09:03Z</time>
  <course>231.38</course>
  <speed>0.8704596486914256</speed>
  <fix>3d</fix>
</trkpt>
<trkpt lat="33.8111789" lon="-118.39308">
  <ele>-23.14</ele>
  <time>2026-09-02T22:09:03Z</time>
  <course>227.69</course>
  <speed>0.84</speed>
  <fix>3d</fix>
</trkpt>
<trkpt lat="33.8111774" lon="-118.3930818">
  <ele>-23.642</ele>
  <time>2026-09-02T22:09:03Z</time>
  <course>231.56</course>
  <speed>0.8704596486914256</speed>
  <fix>3d</fix>
</trkpt>
<trkpt lat="33.8111789" lon="-118.39308">
  <ele>-23.14</ele>
  <time>2026-09-02T22:09:03Z</time>
  <course>227.69</course>
  <speed>0.84</speed>
  <fix>3d</fix>
</trkpt>
<trkpt lat="33.8111769" lon="-118.3930824">
  <ele>-23.622</ele>
  <time>2026-09-02T22:09:03Z</time>
  <course>231.71</course>
  <speed>0.8637129152675673</speed>
  <fix>3d</fix>
</trkpt>
<trkpt lat="33.8111778" lon="-118.3930814">
  <ele>-23.09</ele>
  <time>2026-09-02T22:09:03Z</time>
  <course>227.71</course>
  <speed>0.84</speed>
  <fix>3d</fix>
</trkpt>
<trkpt lat="33.8111764" lon="-118.3930831">
  <ele>-23.601</ele>
  <time>2026-09-02T22:09:03Z</time>
  <course>231.84</course>
  <speed>0.8637129152675673</speed>
  <fix>3d</fix>
</trkpt>
<trkpt lat="33.8111778" lon="-118.3930814">
  <ele>-23.09</ele>
  <time>2026-09-02T22:09:03Z</time>
  <course>227.71</course>
  <speed>0.84</speed>
  <fix>3d</fix>
</trkpt>
<trkpt lat="33.8111759" lon="-118.3930838">
  <ele>-23.58</ele>
  <time>2026-09-02T22:09:03Z</time>
  <course>231.95</course>
  <speed>0.8637129152675673</speed>
  <fix>3d</fix>
</trkpt>
<trkpt lat="33.8111768" lon="-118.3930827">
  <ele>-23.05</ele>
  <time>2026-09-02T22:09:03Z</time>
  <course>227.77</course>
  <speed>0.84</speed>
  <fix>3d</fix>
</trkpt>
<trkpt lat="33.8111754" lon="-118.3930845">
  <ele>-23.56</ele>
  <time>2026-09-02T22:09:03Z</time>
  <course>232.04</course>
  <speed>0.8637129152675673</speed>
  <fix>3d</fix>
</trkpt>
<trkpt lat="33.8111768" lon="-118.3930827">
  <ele>-23.05</ele>
  <time>2026-09-02T22:09:03Z</time>
  <course>227.77</course>
  <speed>0.84</speed>
  <fix>3d</fix>
</trkpt>
<trkpt lat="33.8111749" lon="-118.3930852">
  <ele>-23.539</ele>
  <time>2026-09-02T22:09:03Z</time>
  <course>232.14</course>
  <speed>0.8495881355103778</speed>
  <fix>3d</fix>
</trkpt>
<trkpt lat="33.8111758" lon="-118.3930841">
  <ele>-23.01</ele>
  <time>2026-09-02T22:09:03Z</time>
  <course>227.86</course>
  <speed>0.83</speed>
  <fix>3d</fix>
</trkpt>
<trkpt lat="33.8111744" lon="-118.3930858">
  <ele>-23.518</ele>
  <time>2026-09-02T22:09:03Z</time>
  <course>232.22</course>
  <speed>0.8495881355103778</speed>
  <fix>3d</fix>
</trkpt>
<trkpt lat="33.8111758" lon="-118.3930841">
  <ele>-23.01</ele>
  <time>2026-09-02T22:09:03Z</time>
  <course>227.86</course>
  <speed>0.83</speed>
  <fix>3d</fix>
</trkpt>
<trkpt lat="33.8111739" lon="-118.3930865">
  <ele>-23.497</ele>
  <time>2026-09-02T22:09:03Z</time>
  <course>232.29</course>
  <speed>0.8495881355103778</speed>
  <fix>3d</fix>
</trkpt>
<trkpt lat="33.8111747" lon="-118.3930854">
  <ele>-22.97</ele>
  <time>2026-09-02T22:09:03Z</time>
  <course>227.94</course>
  <speed>0.83</speed>
  <fix>3d</fix>
</trkpt>
<trkpt lat="33.8111734" lon="-118.3930872">
  <ele>-23.477</ele>
  <time>2026-09-02T22:09:03Z</time>
  <course>232.36</course>
  <speed>0.8429116205154606</speed>
  <fix>3d</fix>
</trkpt>
<trkpt lat="33.8111747" lon="-118.3930854">
  <ele>-22.97</ele>
  <time>2026-09-02T22:09:03Z</time>
  <course>227.94</course>
  <speed>0.83</speed>
  <fix>3d</fix>
</trkpt>
<trkpt lat="33.8111729" lon="-118.3930879">
  <ele>-23.457</ele>
  <time>2026-09-02T22:09:03Z</time>
  <course>232.44</course>
  <speed>0.8429116205154606</speed>
  <fix>3d</fix>
</trkpt>
<trkpt lat="33.8111738" lon="-118.3930867">
  <ele>-22.93</ele>
  <time>2026-09-02T22:09:03Z</time>
  <course>228.04</course>
  <speed>0.83</speed>
  <fix>3d</fix>
</trkpt>
<trkpt lat="33.8111724" lon="-118.3930885">
  <ele>-23.438</ele>
  <time>2026-09-02T22:09:03Z</time>
  <course>232.51</course>
  <speed>0.8429116205154606</speed>
  <fix>3d</fix>
</trkpt>
<trkpt lat="33.8111738" lon="-118.3930867">
  <ele>-22.93</ele>
  <time>2026-09-02T22:09:03Z</time>
  <course>228.04</course>
  <speed>0.83</speed>
  <fix>3d</fix>
</trkpt>
<trkpt lat="33.8111719" lon="-118.3930892">
  <ele>-23.419</ele>
  <time>2026-09-02T22:09:03Z</time>
  <course>232.58</course>
  <speed>0.8429116205154606</speed>
  <fix>3d</fix>
</trkpt>
<trkpt lat="33.8111727" lon="-118.3930881">
  <ele>-22.89</ele>
  <time>2026-09-02T22:09:03Z</time>
  <course>228.14</course>
  <speed>0.82</speed>
  <fix>3d</fix>
</trkpt>
<trkpt lat="33.8111714" lon="-118.3930899">
  <ele>-23.399</ele>
  <time>2026-09-02T22:09:03Z</time>
  <course>232.65</course>
  <speed>0.836301381082203</speed>
  <fix>3d</fix>
</trkpt>
<trkpt lat="33.8111727" lon="-118.3930881">
  <ele>-22.89</ele>
  <time>2026-09-02T22:09:03Z</time>
  <course>228.14</course>
  <speed>0.82</speed>
  <fix>3d</fix>
</trkpt>
<trkpt lat="33.8111709" lon="-118.3930905">
  <ele>-23.38</ele>
  <time>2026-09-02T22:09:03Z</time>
  <course>232.7</course>
  <speed>0.836301381082203</speed>
  <fix>3d</fix>
</trkpt>
<trkpt lat="33.8111717" lon="-118.3930894">
  <ele>-22.85</ele>
  <time>2026-09-02T22:09:03Z</time>
  <course>228.23</course>
  <speed>0.82</speed>
  <fix>3d</fix>
</trkpt>
<trkpt lat="33.8111705" lon="-118.3930912">
  <ele>-23.36</ele>
  <time>2026-09-02T22:09:03Z</time>
  <course>232.76</course>
  <speed>0.836301381082203</speed>
  <fix>3d</fix>
</trkpt>
<trkpt lat="33.8111717" lon="-118.3930894">
  <ele>-22.85</ele>
  <time>2026-09-02T22:09:03Z</time>
  <course>228.23</course>
  <speed>0.82</speed>
  <fix>3d</fix>
</trkpt>
<trkpt lat="33.81117" lon="-118.3930919">
  <ele>-23.34</ele>
  <time>2026-09-02T22:09:03Z</time>
  <course>232.83</course>
  <speed>0.836301381082203</speed>
  <fix>3d</fix>
</trkpt>
<trkpt lat="33.8111708" lon="-118.3930907">
  <ele>-22.82</ele>
  <time>2026-09-02T22:09:03Z</time>
  <course>228.34</course>
  <speed>0.81</speed>
  <fix>3d</fix>
</trkpt>
<trkpt lat="33.8111695" lon="-118.3930925">
  <ele>-23.32</ele>
  <time>2026-09-02T22:09:03Z</time>
  <course>232.89</course>
  <speed>0.8297590011563598</speed>
  <fix>3d</fix>
</trkpt>
<trkpt lat="33.8111708" lon="-118.3930907">
  <ele>-22.82</ele>
  <time>2026-09-02T22:09:03Z</time>
  <course>228.34</course>
  <speed>0.81</speed>
  <fix>3d</fix>
</trkpt>
<trkpt lat="33.811169" lon="-118.3930932">
  <ele>-23.3</ele>
  <time>2026-09-02T22:09:03Z</time>
  <course>232.93</course>
  <speed>0.8297590011563598</speed>
  <fix>3d</fix>
</trkpt>
<trkpt lat="33.8111698" lon="-118.393092">
  <ele>-22.77</ele>
  <time>2026-09-02T22:09:03Z</time>
  <course>228.42</course>
  <speed>0.81</speed>
  <fix>3d</fix>
</trkpt>
<trkpt lat="33.8111685" lon="-118.3930939">
  <ele>-23.28</ele>
  <time>2026-09-02T22:09:03Z</time>
  <course>232.97</course>
  <speed>0.8297590011563598</speed>
  <fix>3d</fix>
</trkpt>
<trkpt lat="33.8111698" lon="-118.393092">
  <ele>-22.77</ele>
  <time>2026-09-02T22:09:03Z</time>
  <course>228.42</course>
  <speed>0.81</speed>
  <fix>3d</fix>
</trkpt>
<trkpt lat="33.811168" lon="-118.3930945">
  <ele>-23.26</ele>
  <time>2026-09-02T22:09:04Z</time>
  <course>233.0</course>
  <speed>0.8297590011563598</speed>
  <fix>3d</fix>
</trkpt>
<trkpt lat="33.8111689" lon="-118.3930934">
  <ele>-22.74</ele>
  <time>2026-09-02T22:09:04Z</time>
  <course>228.47</course>
  <speed>0.81</speed>
  <fix>3d</fix>
</trkpt>
<trkpt lat="33.8111676" lon="-118.3930952">
  <ele>-23.239</ele>
  <time>2026-09-02T22:09:04Z</time>
  <course>233.02</course>
  <speed>0.8297590011563598</speed>
  <fix>3d</fix>
</trkpt>
<trkpt lat="33.8111689" lon="-118.3930934">
  <ele>-22.74</ele>
  <time>2026-09-02T22:09:04Z</time>
  <course>228.47</course>
  <speed>0.81</speed>
  <fix>3d</fix>
</trkpt>
<trkpt lat="33.8111671" lon="-118.3930958">
  <ele>-23.217</ele>
  <time>2026-09-02T22:09:04Z</time>
  <course>233.02</course>
  <speed>0.8221921916437787</speed>
  <fix>3d</fix>
</trkpt>
<trkpt lat="33.8111679" lon="-118.3930947">
  <ele>-22.7</ele>
  <time>2026-09-02T22:09:04Z</time>
  <course>228.43</course>
  <speed>0.81</speed>
  <fix>3d</fix>
</trkpt>
<trkpt lat="33.8111666" lon="-118.3930965">
  <ele>-23.196</ele>
  <time>2026-09-02T22:09:04Z</time>
  <course>233.01</course>
  <speed>0.8221921916437787</speed>
  <fix>3d</fix>
</trkpt>
<trkpt lat="33.8111679" lon="-118.3930947">
  <ele>-22.7</ele>
  <time>2026-09-02T22:09:04Z</time>
  <course>228.43</course>
  <speed>0.81</speed>
  <fix>3d</fix>
</trkpt>
<trkpt lat="33.8111661" lon="-118.3930972">
  <ele>-23.177</ele>
  <time>2026-09-02T22:09:04Z</time>
  <course>232.99</course>
  <speed>0.8221921916437787</speed>
  <fix>3d</fix>
</trkpt>
<trkpt lat="33.8111669" lon="-118.393096">
  <ele>-22.66</ele>
  <time>2026-09-02T22:09:04Z</time>
  <course>228.36</course>
  <speed>0.81</speed>
  <fix>3d</fix>
</trkpt>
<trkpt lat="33.8111657" lon="-118.3930978">
  <ele>-23.16</ele>
  <time>2026-09-02T22:09:04Z</time>
  <course>232.98</course>
  <speed>0.8221921916437787</speed>
  <fix>3d</fix>
</trkpt>
<trkpt lat="33.8111669" lon="-118.393096">
  <ele>-22.66</ele>
  <time>2026-09-02T22:09:04Z</time>
  <course>228.36</course>
  <speed>0.81</speed>
  <fix>3d</fix>
</trkpt>
<trkpt lat="33.8111652" lon="-118.3930985">
  <ele>-23.142</ele>
  <time>2026-09-02T22:09:04Z</time>
  <course>232.99</course>
  <speed>0.815659242576212</speed>
  <fix>3d</fix>
</trkpt>
<trkpt lat="33.811166" lon="-118.3930973">
  <ele>-22.62</ele>
  <time>2026-09-02T22:09:04Z</time>
  <course>228.33</course>
  <speed>0.81</speed>
  <fix>3d</fix>
</trkpt>
<trkpt lat="33.8111647" lon="-118.3930991">
  <ele>-23.123</ele>
  <time>2026-09-02T22:09:04Z</time>
  <course>233.0</course>
  <speed>0.815659242576212</speed>
  <fix>3d</fix>
</trkpt>
<trkpt lat="33.811166" lon="-118.3930973">
  <ele>-22.62</ele>
  <time>2026-09-02T22:09:04Z</time>
  <course>228.33</course>
  <speed>0.81</speed>
  <fix>3d</fix>
</trkpt>
<trkpt lat="33.8111642" lon="-118.3930998">
  <ele>-23.105</ele>
  <time>2026-09-02T22:09:04Z</time>
  <course>233.0</course>
  <speed>0.815659242576212</speed>
  <fix>3d</fix>
</trkpt>
<trkpt lat="33.811165" lon="-118.3930986">
  <ele>-22.59</ele>
  <time>2026-09-02T22:09:04Z</time>
  <course>228.31</course>
  <speed>0.81</speed>
  <fix>3d</fix>
</trkpt>
<trkpt lat="33.8111638" lon="-118.3931005">
  <ele>-23.087</ele>
  <time>2026-09-02T22:09:04Z</time>
  <course>233.0</course>
  <speed>0.815659242576212</speed>
  <fix>3d</fix>
</trkpt>
<trkpt lat="33.811165" lon="-118.3930986">
  <ele>-22.59</ele>
  <time>2026-09-02T22:09:04Z</time>
  <course>228.31</course>
  <speed>0.81</speed>
  <fix>3d</fix>
</trkpt>
<trkpt lat="33.8111633" lon="-118.3931011">
  <ele>-23.067</ele>
  <time>2026-09-02T22:09:04Z</time>
  <course>233.01</course>
  <speed>0.815659242576212</speed>
  <fix>3d</fix>
</trkpt>
<trkpt lat="33.811164" lon="-118.3931">
  <ele>-22.55</ele>
  <time>2026-09-02T22:09:04Z</time>
  <course>228.29</course>
  <speed>0.81</speed>
  <fix>3d</fix>
</trkpt>
<trkpt lat="33.8111628" lon="-118.3931018">
  <ele>-23.048</ele>
  <time>2026-09-02T22:09:04Z</time>
  <course>233.02</course>
  <speed>0.815659242576212</speed>
  <fix>3d</fix>
</trkpt>
<trkpt lat="33.811164" lon="-118.3931">
  <ele>-22.55</ele>
  <time>2026-09-02T22:09:04Z</time>
  <course>228.29</course>
  <speed>0.81</speed>
  <fix>3d</fix>
</trkpt>
<trkpt lat="33.8111623" lon="-118.3931024">
  <ele>-23.028</ele>
  <time>2026-09-02T22:09:04Z</time>
  <course>233.03</course>
  <speed>0.815659242576212</speed>
  <fix>3d</fix>
</trkpt>
<trkpt lat="33.811163" lon="-118.3931013">
  <ele>-22.52</ele>
  <time>2026-09-02T22:09:04Z</time>
  <course>228.28</course>
  <speed>0.82</speed>
  <fix>3d</fix>
</trkpt>
<trkpt lat="33.8111618" lon="-118.3931031">
  <ele>-23.009</ele>
  <time>2026-09-02T22:09:04Z</time>
  <course>233.05</course>
  <speed>0.815659242576212</speed>
  <fix>3d</fix>
</trkpt>
<trkpt lat="33.811163" lon="-118.3931013">
  <ele>-22.52</ele>
  <time>2026-09-02T22:09:04Z</time>
  <course>228.28</course>
  <speed>0.82</speed>
  <fix>3d</fix>
</trkpt>
<trkpt lat="33.8111614" lon="-118.3931038">
  <ele>-22.99</ele>
  <time>2026-09-02T22:09:04Z</time>
  <course>233.07</course>
  <speed>0.815659242576212</speed>
  <fix>3d</fix>
</trkpt>
<trkpt lat="33.8111621" lon="-118.3931026">
  <ele>-22.48</ele>
  <time>2026-09-02T22:09:04Z</time>
  <course>228.3</course>
  <speed>0.82</speed>
  <fix>3d</fix>
</trkpt>
<trkpt lat="33.8111609" lon="-118.3931044">
  <ele>-22.97</ele>
  <time>2026-09-02T22:09:04Z</time>
  <course>233.09</course>
  <speed>0.815659242576212</speed>
  <fix>3d</fix>
</trkpt>
<trkpt lat="33.8111621" lon="-118.3931026">
  <ele>-22.48</ele>
  <time>2026-09-02T22:09:04Z</time>
  <course>228.3</course>
  <speed>0.82</speed>
  <fix>3d</fix>
</trkpt>
<trkpt lat="33.8111604" lon="-118.3931051">
  <ele>-22.95</ele>
  <time>2026-09-02T22:09:04Z</time>
  <course>233.1</course>
  <speed>0.8232860985101109</speed>
  <fix>3d</fix>
</trkpt>
<trkpt lat="33.8111611" lon="-118.3931039">
  <ele>-22.43</ele>
  <time>2026-09-02T22:09:04Z</time>
  <course>228.31</course>
  <speed>0.82</speed>
  <fix>3d</fix>
</trkpt>
<trkpt lat="33.8111599" lon="-118.3931057">
  <ele>-22.929</ele>
  <time>2026-09-02T22:09:04Z</time>
  <course>233.11</course>
  <speed>0.8232860985101109</speed>
  <fix>3d</fix>
</trkpt>
<trkpt lat="33.8111611" lon="-118.3931039">
  <ele>-22.43</ele>
  <time>2026-09-02T22:09:04Z</time>
  <course>228.31</course>
  <speed>0.82</speed>
  <fix>3d</fix>
</trkpt>
<trkpt lat="33.8111594" lon="-118.3931064">
  <ele>-22.908</ele>
  <time>2026-09-02T22:09:04Z</time>
  <course>233.13</course>
  <speed>0.816884324736373</speed>
  <fix>3d</fix>
</trkpt>
<trkpt lat="33.81116" lon="-118.3931053">
  <ele>-22.4</ele>
  <time>2026-09-02T22:09:04Z</time>
  <course>228.31</course>
  <speed>0.82</speed>
  <fix>3d</fix>
</trkpt>
<trkpt lat="33.811159" lon="-118.3931071">
  <ele>-22.888</ele>
  <time>2026-09-02T22:09:04Z</time>
  <course>233.14</course>
  <speed>0.816884324736373</speed>
  <fix>3d</fix>
</trkpt>
<trkpt lat="33.81116" lon="-118.3931053">
  <ele>-22.4</ele>
  <time>2026-09-02T22:09:04Z</time>
  <course>228.31</course>
  <speed>0.82</speed>
  <fix>3d</fix>
</trkpt>
<trkpt lat="33.8111585" lon="-118.3931077">
  <ele>-22.868</ele>
  <time>2026-09-02T22:09:04Z</time>
  <course>233.18</course>
  <speed>0.816884324736373</speed>
  <fix>3d</fix>
</trkpt>
<trkpt lat="33.8111591" lon="-118.3931066">
  <ele>-22.36</ele>
  <time>2026-09-02T22:09:04Z</time>
  <course>228.36</course>
  <speed>0.82</speed>
  <fix>3d</fix>
</trkpt>
<trkpt lat="33.811158" lon="-118.3931084">
  <ele>-22.849</ele>
  <time>2026-09-02T22:09:04Z</time>
  <course>233.22</course>
  <speed>0.816884324736373</speed>
  <fix>3d</fix>
</trkpt>
<trkpt lat="33.8111591" lon="-118.3931066">
  <ele>-22.36</ele>
  <time>2026-09-02T22:09:04Z</time>
  <course>228.36</course>
  <speed>0.82</speed>
  <fix>3d</fix>
</trkpt>
<trkpt lat="33.8111575" lon="-118.3931091">
  <ele>-22.83</ele>
  <time>2026-09-02T22:09:04Z</time>
  <course>233.25</course>
  <speed>0.816884324736373</speed>
  <fix>3d</fix>
</trkpt>
<trkpt lat="33.8111581" lon="-118.3931079">
  <ele>-22.32</ele>
  <time>2026-09-02T22:09:04Z</time>
  <course>228.43</course>
  <speed>0.82</speed>
  <fix>3d</fix>
</trkpt>
<trkpt lat="33.811157" lon="-118.3931097">
  <ele>-22.811</ele>
  <time>2026-09-02T22:09:04Z</time>
  <course>233.29</course>
  <speed>0.816884324736373</speed>
  <fix>3d</fix>
</trkpt>
<trkpt lat="33.8111581" lon="-118.3931079">
  <ele>-22.32</ele>
  <time>2026-09-02T22:09:04Z</time>
  <course>228.43</course>
  <speed>0.82</speed>
  <fix>3d</fix>
</trkpt>
<trkpt lat="33.8111565" lon="-118.3931104">
  <ele>-22.791</ele>
  <time>2026-09-02T22:09:04Z</time>
  <course>233.32</course>
  <speed>0.816884324736373</speed>
  <fix>3d</fix>
</trkpt>
<trkpt lat="33.8111571" lon="-118.3931093">
  <ele>-22.27</ele>
  <time>2026-09-02T22:09:04Z</time>
  <course>228.48</course>
  <speed>0.83</speed>
  <fix>3d</fix>
</trkpt>
<trkpt lat="33.8111561" lon="-118.3931111">
  <ele>-22.771</ele>
  <time>2026-09-02T22:09:04Z</time>
  <course>233.36</course>
  <speed>0.816884324736373</speed>
  <fix>3d</fix>
</trkpt>
<trkpt lat="33.8111571" lon="-118.3931093">
  <ele>-22.27</ele>
  <time>2026-09-02T22:09:04Z</time>
  <course>228.48</course>
  <speed>0.83</speed>
  <fix>3d</fix>
</trkpt>
<trkpt lat="33.8111556" lon="-118.3931117">
  <ele>-22.751</ele>
  <time>2026-09-02T22:09:04Z</time>
  <course>233.38</course>
  <speed>0.816884324736373</speed>
  <fix>3d</fix>
</trkpt>
<trkpt lat="33.8111562" lon="-118.3931106">
  <ele>-22.24</ele>
  <time>2026-09-02T22:09:04Z</time>
  <course>228.53</course>
  <speed>0.83</speed>
  <fix>3d</fix>
</trkpt>
<trkpt lat="33.8111551" lon="-118.3931124">
  <ele>-22.73</ele>
  <time>2026-09-02T22:09:04Z</time>
  <course>233.4</course>
  <speed>0.816884324736373</speed>
  <fix>3d</fix>
</trkpt>
<trkpt lat="33.8111562" lon="-118.3931106">
  <ele>-22.24</ele>
  <time>2026-09-02T22:09:04Z</time>
  <course>228.53</course>
  <speed>0.83</speed>
  <fix>3d</fix>
</trkpt>
<trkpt lat="33.8111546" lon="-118.3931131">
  <ele>-22.709</ele>
  <time>2026-09-02T22:09:04Z</time>
  <course>233.41</course>
  <speed>0.816884324736373</speed>
  <fix>3d</fix>
</trkpt>
<trkpt lat="33.8111552" lon="-118.393112">
  <ele>-22.2</ele>
  <time>2026-09-02T22:09:04Z</time>
  <course>228.55</course>
  <speed>0.83</speed>
  <fix>3d</fix>
</trkpt>
<trkpt lat="33.8111541" lon="-118.3931137">
  <ele>-22.688</ele>
  <time>2026-09-02T22:09:04Z</time>
  <course>233.4</course>
  <speed>0.816884324736373</speed>
  <fix>3d</fix>
</trkpt>
<trkpt lat="33.8111552" lon="-118.393112">
  <ele>-22.2</ele>
  <time>2026-09-02T22:09:04Z</time>
  <course>228.55</course>
  <speed>0.83</speed>
  <fix>3d</fix>
</trkpt>
<trkpt lat="33.8111536" lon="-118.3931144">
  <ele>-22.669</ele>
  <time>2026-09-02T22:09:04Z</time>
  <course>233.39</course>
  <speed>0.816884324736373</speed>
  <fix>3d</fix>
</trkpt>
<trkpt lat="33.8111542" lon="-118.3931133">
  <ele>-22.16</ele>
  <time>2026-09-02T22:09:04Z</time>
  <course>228.5</course>
  <speed>0.83</speed>
  <fix>3d</fix>
</trkpt>
<trkpt lat="33.8111532" lon="-118.3931151">
  <ele>-22.65</ele>
  <time>2026-09-02T22:09:04Z</time>
  <course>233.36</course>
  <speed>0.816884324736373</speed>
  <fix>3d</fix>
</trkpt>
<trkpt lat="33.8111542" lon="-118.3931133">
  <ele>-22.16</ele>
  <time>2026-09-02T22:09:04Z</time>
  <course>228.5</course>
  <speed>0.83</speed>
  <fix>3d</fix>
</trkpt>
<trkpt lat="33.8111527" lon="-118.3931158">
  <ele>-22.63</ele>
  <time>2026-09-02T22:09:04Z</time>
  <course>233.35</course>
  <speed>0.816884324736373</speed>
  <fix>3d</fix>
</trkpt>
<trkpt lat="33.8111532" lon="-118.3931147">
  <ele>-22.11</ele>
  <time>2026-09-02T22:09:04Z</time>
  <course>228.47</course>
  <speed>0.84</speed>
  <fix>3d</fix>
</trkpt>
<trkpt lat="33.8111522" lon="-118.3931164">
  <ele>-22.609</ele>
  <time>2026-09-02T22:09:04Z</time>
  <course>233.35</course>
  <speed>0.8246211251235321</speed>
  <fix>3d</fix>
</trkpt>
<trkpt lat="33.8111532" lon="-118.3931147">
  <ele>-22.11</ele>
  <time>2026-09-02T22:09:04Z</time>
  <course>228.47</course>
  <speed>0.84</speed>
  <fix>3d</fix>
</trkpt>
<trkpt lat="33.8111517" lon="-118.3931171">
  <ele>-22.588</ele>
  <time>2026-09-02T22:09:04Z</time>
  <course>233.35</course>
  <speed>0.8246211251235321</speed>
  <fix>3d</fix>
</trkpt>
<trkpt lat="33.8111521" lon="-118.3931161">
  <ele>-22.08</ele>
  <time>2026-09-02T22:09:04Z</time>
  <course>228.45</course>
  <speed>0.84</speed>
  <fix>3d</fix>
</trkpt>
<trkpt lat="33.8111512" lon="-118.3931178">
  <ele>-22.567</ele>
  <time>2026-09-02T22:09:04Z</time>
  <course>233.35</course>
  <speed>0.8246211251235321</speed>
  <fix>3d</fix>
</trkpt>
<trkpt lat="33.8111521" lon="-118.3931161">
  <ele>-22.08</ele>
  <time>2026-09-02T22:09:04Z</time>
  <course>228.45</course>
  <speed>0.84</speed>
  <fix>3d</fix>
</trkpt>
<trkpt lat="33.8111507" lon="-118.3931185">
  <ele>-22.547</ele>
  <time>2026-09-02T22:09:04Z</time>
  <course>233.37</course>
  <speed>0.8246211251235321</speed>
  <fix>3d</fix>
</trkpt>
<trkpt lat="33.8111512" lon="-118.3931174">
  <ele>-22.04</ele>
  <time>2026-09-02T22:09:04Z</time>
  <course>228.47</course>
  <speed>0.84</speed>
  <fix>3d</fix>
</trkpt>
<trkpt lat="33.8111502" lon="-118.3931192">
  <ele>-22.527</ele>
  <time>2026-09-02T22:09:04Z</time>
  <course>233.4</course>
  <speed>0.8246211251235321</speed>
  <fix>3d</fix>
</trkpt>
<trkpt lat="33.8111512" lon="-118.3931174">
  <ele>-22.04</ele>
  <time>2026-09-02T22:09:04Z</time>
  <course>228.47</course>
  <speed>0.84</speed>
  <fix>3d</fix>
</trkpt>
<trkpt lat="33.8111497" lon="-118.3931198">
  <ele>-22.506</ele>
  <time>2026-09-02T22:09:04Z</time>
  <course>233.43</course>
  <speed>0.8246211251235321</speed>
  <fix>3d</fix>
</trkpt>
<trkpt lat="33.8111502" lon="-118.3931188">
  <ele>-22.0</ele>
  <time>2026-09-02T22:09:04Z</time>
  <course>228.54</course>
  <speed>0.84</speed>
  <fix>3d</fix>
</trkpt>
<trkpt lat="33.8111492" lon="-118.3931205">
  <ele>-22.484</ele>
  <time>2026-09-02T22:09:04Z</time>
  <course>233.44</course>
  <speed>0.8246211251235321</speed>
  <fix>3d</fix>
</trkpt>
<trkpt lat="33.8111502" lon="-118.3931188">
  <ele>-22.0</ele>
  <time>2026-09-02T22:09:04Z</time>
  <course>228.54</course>
  <speed>0.84</speed>
  <fix>3d</fix>
</trkpt>
<trkpt lat="33.8111487" lon="-118.3931212">
  <ele>-22.462</ele>
  <time>2026-09-02T22:09:04Z</time>
  <course>233.44</course>
  <speed>0.8246211251235321</speed>
  <fix>3d</fix>
</trkpt>
<trkpt lat="33.8111491" lon="-118.3931202">
  <ele>-21.96</ele>
  <time>2026-09-02T22:09:04Z</time>
  <course>228.59</course>
  <speed>0.84</speed>
  <fix>3d</fix>
</trkpt>
<trkpt lat="33.8111482" lon="-118.3931219">
  <ele>-22.442</ele>
  <time>2026-09-02T22:09:04Z</time>
  <course>233.44</course>
  <speed>0.8246211251235321</speed>
  <fix>3d</fix>
</trkpt>
<trkpt lat="33.8111491" lon="-118.3931202">
  <ele>-21.96</ele>
  <time>2026-09-02T22:09:04Z</time>
  <course>228.59</course>
  <speed>0.84</speed>
  <fix>3d</fix>
</trkpt>
<trkpt lat="33.8111477" lon="-118.3931226">
  <ele>-22.423</ele>
  <time>2026-09-02T22:09:04Z</time>
  <course>233.46</course>
  <speed>0.8246211251235321</speed>
  <fix>3d</fix>
</trkpt>
<trkpt lat="33.811148" lon="-118.3931216">
  <ele>-21.92</ele>
  <time>2026-09-02T22:09:04Z</time>
  <course>228.63</course>
  <speed>0.84</speed>
  <fix>3d</fix>
</trkpt>
<trkpt lat="33.8111472" lon="-118.3931233">
  <ele>-22.404</ele>
  <time>2026-09-02T22:09:04Z</time>
  <course>233.49</course>
  <speed>0.8183520025025907</speed>
  <fix>3d</fix>
</trkpt>
<trkpt lat="33.811148" lon="-118.3931216">
  <ele>-21.92</ele>
  <time>2026-09-02T22:09:04Z</time>
  <course>228.63</course>
  <speed>0.84</speed>
  <fix>3d</fix>
</trkpt>
<trkpt lat="33.8111467" lon="-118.393124">
  <ele>-22.385</ele>
  <time>2026-09-02T22:09:04Z</time>
  <course>233.54</course>
  <speed>0.8183520025025907</speed>
  <fix>3d</fix>
</trkpt>
<trkpt lat="33.8111471" lon="-118.3931229">
  <ele>-21.88</ele>
  <time>2026-09-02T22:09:04Z</time>
  <course>228.72</course>
  <speed>0.84</speed>
  <fix>3d</fix>
</trkpt>
<trkpt lat="33.8111462" lon="-118.3931247">
  <ele>-22.365</ele>
  <time>2026-09-02T22:09:04Z</time>
  <course>233.58</course>
  <speed>0.8183520025025907</speed>
  <fix>3d</fix>
</trkpt>
<trkpt lat="33.8111471" lon="-118.3931229">
  <ele>-21.88</ele>
  <time>2026-09-02T22:09:04Z</time>
  <course>228.72</course>
  <speed>0.84</speed>
  <fix>3d</fix>
</trkpt>
<trkpt lat="33.8111457" lon="-118.3931253">
  <ele>-22.345</ele>
  <time>2026-09-02T22:09:04Z</time>
  <course>233.63</course>
  <speed>0.8183520025025907</speed>
  <fix>3d</fix>
</trkpt>
<trkpt lat="33.8111461" lon="-118.3931243">
  <ele>-21.84</ele>
  <time>2026-09-02T22:09:04Z</time>
  <course>228.85</course>
  <speed>0.84</speed>
  <fix>3d</fix>
</trkpt>
<trkpt lat="33.8111452" lon="-118.393126">
  <ele>-22.324</ele>
  <time>2026-09-02T22:09:04Z</time>
  <course>233.67</course>
  <speed>0.8183520025025907</speed>
  <fix>3d</fix>
</trkpt>
<trkpt lat="33.8111461" lon="-118.3931243">
  <ele>-21.84</ele>
  <time>2026-09-02T22:09:04Z</time>
  <course>228.85</course>
  <speed>0.84</speed>
  <fix>3d</fix>
</trkpt>
<trkpt lat="33.8111447" lon="-118.3931267">
  <ele>-22.303</ele>
  <time>2026-09-02T22:09:04Z</time>
  <course>233.7</course>
  <speed>0.8183520025025907</speed>
  <fix>3d</fix>
</trkpt>
<trkpt lat="33.8111451" lon="-118.3931257">
  <ele>-21.8</ele>
  <time>2026-09-02T22:09:04Z</time>
  <course>228.93</course>
  <speed>0.84</speed>
  <fix>3d</fix>
</trkpt>
<trkpt lat="33.8111442" lon="-118.3931274">
  <ele>-22.282</ele>
  <time>2026-09-02T22:09:04Z</time>
  <course>233.71</course>
  <speed>0.8183520025025907</speed>
  <fix>3d</fix>
</trkpt>
<trkpt lat="33.8111451" lon="-118.3931257">
  <ele>-21.8</ele>
  <time>2026-09-02T22:09:04Z</time>
  <course>228.93</course>
  <speed>0.84</speed>
  <fix>3d</fix>
</trkpt>
<trkpt lat="33.8111437" lon="-118.3931281">
  <ele>-22.26</ele>
  <time>2026-09-02T22:09:04Z</time>
  <course>233.71</course>
  <speed>0.8183520025025907</speed>
  <fix>3d</fix>
</trkpt>
<trkpt lat="33.8111441" lon="-118.393127">
  <ele>-21.76</ele>
  <time>2026-09-02T22:09:04Z</time>
  <course>228.98</course>
  <speed>0.85</speed>
  <fix>3d</fix>
</trkpt>
<trkpt lat="33.8111432" lon="-118.3931288">
  <ele>-22.239</ele>
  <time>2026-09-02T22:09:04Z</time>
  <course>233.71</course>
  <speed>0.8183520025025907</speed>
  <fix>3d</fix>
</trkpt>
<trkpt lat="33.8111441" lon="-118.393127">
  <ele>-21.76</ele>
  <time>2026-09-02T22:09:04Z</time>
  <course>228.98</course>
  <speed>0.85</speed>
  <fix>3d</fix>
</trkpt>
<trkpt lat="33.8111427" lon="-118.3931295">
  <ele>-22.218</ele>
  <time>2026-09-02T22:09:04Z</time>
  <course>233.72</course>
  <speed>0.8261961026293939</speed>
  <fix>3d</fix>
</trkpt>
<trkpt lat="33.811143" lon="-118.3931285">
  <ele>-21.72</ele>
  <time>2026-09-02T22:09:04Z</time>
  <course>229.02</course>
  <speed>0.85</speed>
  <fix>3d</fix>
</trkpt>
<trkpt lat="33.8111422" lon="-118.3931302">
  <ele>-22.197</ele>
  <time>2026-09-02T22:09:04Z</time>
  <course>233.72</course>
  <speed>0.8261961026293939</speed>
  <fix>3d</fix>
</trkpt>
<trkpt lat="33.811143" lon="-118.3931285">
  <ele>-21.72</ele>
  <time>2026-09-02T22:09:04Z</time>
  <course>229.02</course>
  <speed>0.85</speed>
  <fix>3d</fix>
</trkpt>
<trkpt lat="33.8111417" lon="-118.3931309">
  <ele>-22.176</ele>
  <time>2026-09-02T22:09:04Z</time>
  <course>233.74</course>
  <speed>0.8261961026293939</speed>
  <fix>3d</fix>
</trkpt>
<trkpt lat="33.8111421" lon="-118.3931299">
  <ele>-21.68</ele>
  <time>2026-09-02T22:09:04Z</time>
  <course>229.09</course>
  <speed>0.85</speed>
  <fix>3d</fix>
</trkpt>
<trkpt lat="33.8111412" lon="-118.3931316">
  <ele>-22.155</ele>
  <time>2026-09-02T22:09:04Z</time>
  <course>233.74</course>
  <speed>0.8261961026293939</speed>
  <fix>3d</fix>
</trkpt>
<trkpt lat="33.8111421" lon="-118.3931299">
  <ele>-21.68</ele>
  <time>2026-09-02T22:09:04Z</time>
  <course>229.09</course>
  <speed>0.85</speed>
  <fix>3d</fix>
</trkpt>
<trkpt lat="33.8111407" lon="-118.3931323">
  <ele>-22.132</ele>
  <time>2026-09-02T22:09:04Z</time>
  <course>233.73</course>
  <speed>0.8324061508662703</speed>
  <fix>3d</fix>
</trkpt>
<trkpt lat="33.8111411" lon="-118.3931313">
  <ele>-21.64</ele>
  <time>2026-09-02T22:09:04Z</time>
  <course>229.13</course>
  <speed>0.85</speed>
  <fix>3d</fix>
</trkpt>
<trkpt lat="33.8111402" lon="-118.393133">
  <ele>-22.11</ele>
  <time>2026-09-02T22:09:04Z</time>
  <course>233.69</course>
  <speed>0.8324061508662703</speed>
  <fix>3d</fix>
</trkpt>
<trkpt lat="33.8111411" lon="-118.3931313">
  <ele>-21.64</ele>
  <time>2026-09-02T22:09:04Z</time>
  <course>229.13</course>
  <speed>0.85</speed>
  <fix>3d</fix>
</trkpt>
<trkpt lat="33.8111397" lon="-118.3931337">
  <ele>-22.088</ele>
  <time>2026-09-02T22:09:04Z</time>
  <course>233.64</course>
  <speed>0.8324061508662703</speed>
  <fix>3d</fix>
</trkpt>
<trkpt lat="33.8111401" lon="-118.3931327">
  <ele>-21.6</ele>
  <time>2026-09-02T22:09:04Z</time>
  <course>229.1</course>
  <speed>0.85</speed>
  <fix>3d</fix>
</trkpt>
<trkpt lat="33.8111392" lon="-118.3931344">
  <ele>-22.066</ele>
  <time>2026-09-02T22:09:04Z</time>
  <course>233.58</course>
  <speed>0.8324061508662703</speed>
  <fix>3d</fix>
</trkpt>
<trkpt lat="33.8111401" lon="-118.3931327">
  <ele>-21.6</ele>
  <time>2026-09-02T22:09:04Z</time>
  <course>229.1</course>
  <speed>0.85</speed>
  <fix>3d</fix>
</trkpt>
<trkpt lat="33.8111387" lon="-118.3931351">
  <ele>-22.046</ele>
  <time>2026-09-02T22:09:04Z</time>
  <course>233.52</course>
  <speed>0.8324061508662703</speed>
  <fix>3d</fix>
</trkpt>
<trkpt lat="33.8111391" lon="-118.3931341">
  <ele>-21.56</ele>
  <time>2026-09-02T22:09:04Z</time>
  <course>229.04</course>
  <speed>0.85</speed>
  <fix>3d</fix>
</trkpt>
<trkpt lat="33.8111382" lon="-118.3931358">
  <ele>-22.027</ele>
  <time>2026-09-02T22:09:04Z</time>
  <course>233.46</course>
  <speed>0.8324061508662703</speed>
  <fix>3d</fix>
</trkpt>
<trkpt lat="33.8111391" lon="-118.3931341">
  <ele>-21.56</ele>
  <time>2026-09-02T22:09:04Z</time>
  <course>229.04</course>
  <speed>0.85</speed>
  <fix>3d</fix>
</trkpt>
<trkpt lat="33.8111377" lon="-118.3931365">
  <ele>-22.008</ele>
  <time>2026-09-02T22:09:04Z</time>
  <course>233.41</course>
  <speed>0.8324061508662703</speed>
  <fix>3d</fix>
</trkpt>
<trkpt lat="33.811138" lon="-118.3931355">
  <ele>-21.52</ele>
  <time>2026-09-02T22:09:04Z</time>
  <course>228.99</course>
  <speed>0.86</speed>
  <fix>3d</fix>
</trkpt>
<trkpt lat="33.8111372" lon="-118.3931372">
  <ele>-21.988</ele>
  <time>2026-09-02T22:09:04Z</time>
  <course>233.37</course>
  <speed>0.8324061508662703</speed>
  <fix>3d</fix>
</trkpt>
<trkpt lat="33.811138" lon="-118.3931355">
  <ele>-21.52</ele>
  <time>2026-09-02T22:09:04Z</time>
  <course>228.99</course>
  <speed>0.86</speed>
  <fix>3d</fix>
</trkpt>
<trkpt lat="33.8111367" lon="-118.3931379">
  <ele>-21.967</ele>
  <time>2026-09-02T22:09:04Z</time>
  <course>233.34</course>
  <speed>0.8324061508662703</speed>
  <fix>3d</fix>
</trkpt>
<trkpt lat="33.811137" lon="-118.3931369">
  <ele>-21.48</ele>
  <time>2026-09-02T22:09:04Z</time>
  <course>228.98</course>
  <speed>0.86</speed>
  <fix>3d</fix>
</trkpt>
<trkpt lat="33.8111362" lon="-118.3931386">
  <ele>-21.947</ele>
  <time>2026-09-02T22:09:04Z</time>
  <course>233.32</course>
  <speed>0.8402380615040002</speed>
  <fix>3d</fix>
</trkpt>
<trkpt lat="33.811137" lon="-118.3931369">
  <ele>-21.48</ele>
  <time>2026-09-02T22:09:04Z</time>
  <course>228.98</course>
  <speed>0.86</speed>
  <fix>3d</fix>
</trkpt>
<trkpt lat="33.8111356" lon="-118.3931394">
  <ele>-21.926</ele>
  <time>2026-09-02T22:09:04Z</time>
  <course>233.31</course>
  <speed>0.8402380615040002</speed>
  <fix>3d</fix>
</trkpt>
<trkpt lat="33.811136" lon="-118.3931383">
  <ele>-21.45</ele>
  <time>2026-09-02T22:09:04Z</time>
  <course>229.04</course>
  <speed>0.86</speed>
  <fix>3d</fix>
</trkpt>
<trkpt lat="33.8111351" lon="-118.3931401">
  <ele>-21.904</ele>
  <time>2026-09-02T22:09:04Z</time>
  <course>233.31</course>
  <speed>0.8402380615040002</speed>
  <fix>3d</fix>
</trkpt>
<trkpt lat="33.811136" lon="-118.3931383">
  <ele>-21.45</ele>
  <time>2026-09-02T22:09:04Z</time>
  <course>229.04</course>
  <speed>0.86</speed>
  <fix>3d</fix>
</trkpt>
<trkpt lat="33.8111346" lon="-118.3931408">
  <ele>-21.883</ele>
  <time>2026-09-02T22:09:04Z</time>
  <course>233.31</course>
  <speed>0.8402380615040002</speed>
  <fix>3d</fix>
</trkpt>
<trkpt lat="33.811135" lon="-118.3931397">
  <ele>-21.4</ele>
  <time>2026-09-02T22:09:04Z</time>
  <course>229.11</course>
  <speed>0.86</speed>
  <fix>3d</fix>
</trkpt>
<trkpt lat="33.8111341" lon="-118.3931415">
  <ele>-21.863</ele>
  <time>2026-09-02T22:09:04Z</time>
  <course>233.29</course>
  <speed>0.8402380615040002</speed>
  <fix>3d</fix>
</trkpt>
<trkpt lat="33.811135" lon="-118.3931397">
  <ele>-21.4</ele>
  <time>2026-09-02T22:09:04Z</time>
  <course>229.11</course>
  <speed>0.86</speed>
  <fix>3d</fix>
</trkpt>
<trkpt lat="33.8111336" lon="-118.3931422">
  <ele>-21.843</ele>
  <time>2026-09-02T22:09:04Z</time>
  <course>233.28</course>
  <speed>0.8464632301523793</speed>
  <fix>3d</fix>
</trkpt>
<trkpt lat="33.8111339" lon="-118.3931411">
  <ele>-21.36</ele>
  <time>2026-09-02T22:09:04Z</time>
  <course>229.14</course>
  <speed>0.87</speed>
  <fix>3d</fix>
</trkpt>
<trkpt lat="33.8111331" lon="-118.3931429">
  <ele>-21.823</ele>
  <time>2026-09-02T22:09:04Z</time>
  <course>233.27</course>
  <speed>0.8402380615040002</speed>
  <fix>3d</fix>
</trkpt>
<trkpt lat="33.8111339" lon="-118.3931411">
  <ele>-21.36</ele>
  <time>2026-09-02T22:09:04Z</time>
  <course>229.14</course>
  <speed>0.87</speed>
  <fix>3d</fix>
</trkpt>
<trkpt lat="33.8111326" lon="-118.3931436">
  <ele>-21.802</ele>
  <time>2026-09-02T22:09:04Z</time>
  <course>233.28</course>
  <speed>0.8464632301523793</speed>
  <fix>3d</fix>
</trkpt>
<trkpt lat="33.811133" lon="-118.3931426">
  <ele>-21.32</ele>
  <time>2026-09-02T22:09:04Z</time>
  <course>229.2</course>
  <speed>0.87</speed>
  <fix>3d</fix>
</trkpt>
<trkpt lat="33.8111321" lon="-118.3931443">
  <ele>-21.78</ele>
  <time>2026-09-02T22:09:04Z</time>
  <course>233.27</course>
  <speed>0.8464632301523793</speed>
  <fix>3d</fix>
</trkpt>
<trkpt lat="33.811133" lon="-118.3931426">
  <ele>-21.32</ele>
  <time>2026-09-02T22:09:04Z</time>
  <course>229.2</course>
  <speed>0.87</speed>
  <fix>3d</fix>
</trkpt>
<trkpt lat="33.8111315" lon="-118.3931451">
  <ele>-21.757</ele>
  <time>2026-09-02T22:09:04Z</time>
  <course>233.24</course>
  <speed>0.8464632301523793</speed>
  <fix>3d</fix>
</trkpt>
<trkpt lat="33.8111319" lon="-118.393144">
  <ele>-21.27</ele>
  <time>2026-09-02T22:09:04Z</time>
  <course>229.23</course>
  <speed>0.87</speed>
  <fix>3d</fix>
</trkpt>
<trkpt lat="33.811131" lon="-118.3931458">
  <ele>-21.734</ele>
  <time>2026-09-02T22:09:04Z</time>
  <course>233.19</course>
  <speed>0.8464632301523793</speed>
  <fix>3d</fix>
</trkpt>
<trkpt lat="33.8111319" lon="-118.393144">
  <ele>-21.27</ele>
  <time>2026-09-02T22:09:04Z</time>
  <course>229.23</course>
  <speed>0.87</speed>
  <fix>3d</fix>
</trkpt>
<trkpt lat="33.8111305" lon="-118.3931465">
  <ele>-21.712</ele>
  <time>2026-09-02T22:09:04Z</time>
  <course>233.15</course>
  <speed>0.8542833253669417</speed>
  <fix>3d</fix>
</trkpt>
<trkpt lat="33.8111308" lon="-118.3931454">
  <ele>-21.23</ele>
  <time>2026-09-02T22:09:04Z</time>
  <course>229.2</course>
  <speed>0.87</speed>
  <fix>3d</fix>
</trkpt>
<trkpt lat="33.81113" lon="-118.3931472">
  <ele>-21.689</ele>
  <time>2026-09-02T22:09:04Z</time>
  <course>233.11</course>
  <speed>0.8542833253669417</speed>
  <fix>3d</fix>
</trkpt>
<trkpt lat="33.8111308" lon="-118.3931454">
  <ele>-21.23</ele>
  <time>2026-09-02T22:09:04Z</time>
  <course>229.2</course>
  <speed>0.87</speed>
  <fix>3d</fix>
</trkpt>
<trkpt lat="33.8111295" lon="-118.3931479">
  <ele>-21.665</ele>
  <time>2026-09-02T22:09:04Z</time>
  <course>233.1</course>
  <speed>0.8542833253669417</speed>
  <fix>3d</fix>
</trkpt>
<trkpt lat="33.8111299" lon="-118.3931469">
  <ele>-21.18</ele>
  <time>2026-09-02T22:09:04Z</time>
  <course>229.25</course>
  <speed>0.88</speed>
  <fix>3d</fix>
</trkpt>
<trkpt lat="33.811129" lon="-118.3931487">
  <ele>-21.642</ele>
  <time>2026-09-02T22:09:04Z</time>
  <course>233.1</course>
  <speed>0.8542833253669417</speed>
  <fix>3d</fix>
</trkpt>
<trkpt lat="33.8111299" lon="-118.3931469">
  <ele>-21.18</ele>
  <time>2026-09-02T22:09:04Z</time>
  <course>229.25</course>
  <speed>0.88</speed>
  <fix>3d</fix>
</trkpt>
<trkpt lat="33.8111284" lon="-118.3931494">
  <ele>-21.62</ele>
  <time>2026-09-02T22:09:04Z</time>
  <course>233.08</course>
  <speed>0.8542833253669417</speed>
  <fix>3d</fix>
</trkpt>
<trkpt lat="33.8111288" lon="-118.3931483">
  <ele>-21.14</ele>
  <time>2026-09-02T22:09:04Z</time>
  <course>229.29</course>
  <speed>0.88</speed>
  <fix>3d</fix>
</trkpt>
<trkpt lat="33.8111279" lon="-118.3931501">
  <ele>-21.598</ele>
  <time>2026-09-02T22:09:04Z</time>
  <course>233.04</course>
  <speed>0.8542833253669417</speed>
  <fix>3d</fix>
</trkpt>
<trkpt lat="33.8111288" lon="-118.3931483">
  <ele>-21.14</ele>
  <time>2026-09-02T22:09:04Z</time>
  <course>229.29</course>
  <speed>0.88</speed>
  <fix>3d</fix>
</trkpt>
<trkpt lat="33.8111274" lon="-118.3931508">
  <ele>-21.576</ele>
  <time>2026-09-02T22:09:04Z</time>
  <course>233.0</course>
  <speed>0.8542833253669417</speed>
  <fix>3d</fix>
</trkpt>
<trkpt lat="33.8111277" lon="-118.3931498">
  <ele>-21.1</ele>
  <time>2026-09-02T22:09:04Z</time>
  <course>229.28</course>
  <speed>0.88</speed>
  <fix>3d</fix>
</trkpt>
<trkpt lat="33.8111269" lon="-118.3931516">
  <ele>-21.555</ele>
  <time>2026-09-02T22:09:04Z</time>
  <course>232.96</course>
  <speed>0.8542833253669417</speed>
  <fix>3d</fix>
</trkpt>
<trkpt lat="33.8111277" lon="-118.3931498">
  <ele>-21.1</ele>
  <time>2026-09-02T22:09:04Z</time>
  <course>229.28</course>
  <speed>0.88</speed>
  <fix>3d</fix>
</trkpt>
<trkpt lat="33.8111263" lon="-118.3931523">
  <ele>-21.533</ele>
  <time>2026-09-02T22:09:04Z</time>
  <course>232.93</course>
  <speed>0.8542833253669417</speed>
  <fix>3d</fix>
</trkpt>
<trkpt lat="33.8111267" lon="-118.3931512">
  <ele>-21.06</ele>
  <time>2026-09-02T22:09:04Z</time>
  <course>229.31</course>
  <speed>0.88</speed>
  <fix>3d</fix>
</trkpt>
<trkpt lat="33.8111258" lon="-118.393153">
  <ele>-21.511</ele>
  <time>2026-09-02T22:09:04Z</time>
  <course>232.92</course>
  <speed>0.8542833253669417</speed>
  <fix>3d</fix>
</trkpt>
<trkpt lat="33.8111267" lon="-118.3931512">
  <ele>-21.06</ele>
  <time>2026-09-02T22:09:04Z</time>
  <course>229.31</course>
  <speed>0.88</speed>
  <fix>3d</fix>
</trkpt>
<trkpt lat="33.8111253" lon="-118.3931537">
  <ele>-21.491</ele>
  <time>2026-09-02T22:09:04Z</time>
  <course>232.91</course>
  <speed>0.8605230967266364</speed>
  <fix>3d</fix>
</trkpt>
<trkpt lat="33.8111257" lon="-118.3931527">
  <ele>-21.02</ele>
  <time>2026-09-02T22:09:04Z</time>
  <course>229.35</course>
  <speed>0.88</speed>
  <fix>3d</fix>
</trkpt>
<trkpt lat="33.8111248" lon="-118.3931545">
  <ele>-21.471</ele>
  <time>2026-09-02T22:09:04Z</time>
  <course>232.88</course>
  <speed>0.8605230967266364</speed>
  <fix>3d</fix>
</trkpt>
<trkpt lat="33.8111257" lon="-118.3931527">
  <ele>-21.02</ele>
  <time>2026-09-02T22:09:04Z</time>
  <course>229.35</course>
  <speed>0.88</speed>
  <fix>3d</fix>
</trkpt>
<trkpt lat="33.8111243" lon="-118.3931552">
  <ele>-21.45</ele>
  <time>2026-09-02T22:09:04Z</time>
  <course>232.85</course>
  <speed>0.8605230967266364</speed>
  <fix>3d</fix>
</trkpt>
<trkpt lat="33.8111247" lon="-118.3931541">
  <ele>-20.98</ele>
  <time>2026-09-02T22:09:04Z</time>
  <course>229.37</course>
  <speed>0.89</speed>
  <fix>3d</fix>
</trkpt>
<trkpt lat="33.8111237" lon="-118.3931559">
  <ele>-21.429</ele>
  <time>2026-09-02T22:09:04Z</time>
  <course>232.8</course>
  <speed>0.8683317338436964</speed>
  <fix>3d</fix>
</trkpt>
<trkpt lat="33.8111247" lon="-118.3931541">
  <ele>-20.98</ele>
  <time>2026-09-02T22:09:04Z</time>
  <course>229.37</course>
  <speed>0.89</speed>
  <fix>3d</fix>
</trkpt>
<trkpt lat="33.8111232" lon="-118.3931567">
  <ele>-21.407</ele>
  <time>2026-09-02T22:09:04Z</time>
  <course>232.75</course>
  <speed>0.8683317338436964</speed>
  <fix>3d</fix>
</trkpt>
<trkpt lat="33.8111236" lon="-118.3931556">
  <ele>-20.93</ele>
  <time>2026-09-02T22:09:04Z</time>
  <course>229.34</course>
  <speed>0.89</speed>
  <fix>3d</fix>
</trkpt>
<trkpt lat="33.8111227" lon="-118.3931574">
  <ele>-21.385</ele>
  <time>2026-09-02T22:09:04Z</time>
  <course>232.69</course>
  <speed>0.8683317338436964</speed>
  <fix>3d</fix>
</trkpt>
<trkpt lat="33.8111236" lon="-118.3931556">
  <ele>-20.93</ele>
  <time>2026-09-02T22:09:04Z</time>
  <course>229.34</course>
  <speed>0.89</speed>
  <fix>3d</fix>
</trkpt>
<trkpt lat="33.8111222" lon="-118.3931581">
  <ele>-21.363</ele>
  <time>2026-09-02T22:09:04Z</time>
  <course>232.64</course>
  <speed>0.8683317338436964</speed>
  <fix>3d</fix>
</trkpt>
<trkpt lat="33.8111226" lon="-118.393157">
  <ele>-20.9</ele>
  <time>2026-09-02T22:09:04Z</time>
  <course>229.31</course>
  <speed>0.89</speed>
  <fix>3d</fix>
</trkpt>
<trkpt lat="33.8111216" lon="-118.3931589">
  <ele>-21.34</ele>
  <time>2026-09-02T22:09:04Z</time>
  <course>232.59</course>
  <speed>0.8683317338436964</speed>
  <fix>3d</fix>
</trkpt>
<trkpt lat="33.8111226" lon="-118.393157">
  <ele>-20.9</ele>
  <time>2026-09-02T22:09:04Z</time>
  <course>229.31</course>
  <speed>0.89</speed>
  <fix>3d</fix>
</trkpt>
<trkpt lat="33.8111211" lon="-118.3931596">
  <ele>-21.318</ele>
  <time>2026-09-02T22:09:04Z</time>
  <course>232.55</course>
  <speed>0.8683317338436964</speed>
  <fix>3d</fix>
</trkpt>
<trkpt lat="33.8111215" lon="-118.3931585">
  <ele>-20.85</ele>
  <time>2026-09-02T22:09:04Z</time>
  <course>229.3</course>
  <speed>0.89</speed>
  <fix>3d</fix>
</trkpt>
<trkpt lat="33.8111206" lon="-118.3931603">
  <ele>-21.296</ele>
  <time>2026-09-02T22:09:04Z</time>
  <course>232.51</course>
  <speed>0.8683317338436964</speed>
  <fix>3d</fix>
</trkpt>
<trkpt lat="33.8111215" lon="-118.3931585">
  <ele>-20.85</ele>
  <time>2026-09-02T22:09:04Z</time>
  <course>229.3</course>
  <speed>0.89</speed>
  <fix>3d</fix>
</trkpt>
<trkpt lat="33.8111201" lon="-118.3931611">
  <ele>-21.274</ele>
  <time>2026-09-02T22:09:04Z</time>
  <course>232.48</course>
  <speed>0.8683317338436964</speed>
  <fix>3d</fix>
</trkpt>
<trkpt lat="33.8111205" lon="-118.39316">
  <ele>-20.81</ele>
  <time>2026-09-02T22:09:04Z</time>
  <course>229.32</course>
  <speed>0.9</speed>
  <fix>3d</fix>
</trkpt>
<trkpt lat="33.8111195" lon="-118.3931618">
  <ele>-21.252</ele>
  <time>2026-09-02T22:09:04Z</time>
  <course>232.44</course>
  <speed>0.8745856161634491</speed>
  <fix>3d</fix>
</trkpt>
<trkpt lat="33.8111205" lon="-118.39316">
  <ele>-20.81</ele>
  <time>2026-09-02T22:09:04Z</time>
  <course>229.32</course>
  <speed>0.9</speed>
  <fix>3d</fix>
</trkpt>
<trkpt lat="33.811119" lon="-118.3931626">
  <ele>-21.229</ele>
  <time>2026-09-02T22:09:04Z</time>
  <course>232.4</course>
  <speed>0.8745856161634491</speed>
  <fix>3d</fix>
</trkpt>
<trkpt lat="33.8111194" lon="-118.3931615">
  <ele>-20.77</ele>
  <time>2026-09-02T22:09:04Z</time>
  <course>229.31</course>
  <speed>0.9</speed>
  <fix>3d</fix>
</trkpt>
<trkpt lat="33.8111185" lon="-118.3931633">
  <ele>-21.207</ele>
  <time>2026-09-02T22:09:04Z</time>
  <course>232.35</course>
  <speed>0.8745856161634491</speed>
  <fix>3d</fix>
</trkpt>
<trkpt lat="33.8111194" lon="-118.3931615">
  <ele>-20.77</ele>
  <time>2026-09-02T22:09:04Z</time>
  <course>229.31</course>
  <speed>0.9</speed>
  <fix>3d</fix>
</trkpt>
<trkpt lat="33.8111179" lon="-118.393164">
  <ele>-21.185</ele>
  <time>2026-09-02T22:09:04Z</time>
  <course>232.31</course>
  <speed>0.8745856161634491</speed>
  <fix>3d</fix>
</trkpt>
<trkpt lat="33.8111184" lon="-118.3931629">
  <ele>-20.72</ele>
  <time>2026-09-02T22:09:04Z</time>
  <course>229.28</course>
  <speed>0.9</speed>
  <fix>3d</fix>
</trkpt>
<trkpt lat="33.8111174" lon="-118.3931648">
  <ele>-21.165</ele>
  <time>2026-09-02T22:09:04Z</time>
  <course>232.26</course>
  <speed>0.8745856161634491</speed>
  <fix>3d</fix>
</trkpt>
<trkpt lat="33.8111184" lon="-118.3931629">
  <ele>-20.72</ele>
  <time>2026-09-02T22:09:04Z</time>
  <course>229.28</course>
  <speed>0.9</speed>
  <fix>3d</fix>
</trkpt>
<trkpt lat="33.8111169" lon="-118.3931655">
  <ele>-21.143</ele>
  <time>2026-09-02T22:09:04Z</time>
  <course>232.21</course>
  <speed>0.8745856161634491</speed>
  <fix>3d</fix>
</trkpt>
<trkpt lat="33.8111173" lon="-118.3931644">
  <ele>-20.68</ele>
  <time>2026-09-02T22:09:04Z</time>
  <course>229.26</course>
  <speed>0.9</speed>
  <fix>3d</fix>
</trkpt>
<trkpt lat="33.8111163" lon="-118.3931663">
  <ele>-21.12</ele>
  <time>2026-09-02T22:09:04Z</time>
  <course>232.18</course>
  <speed>0.8745856161634491</speed>
  <fix>3d</fix>
</trkpt>
<trkpt lat="33.8111173" lon="-118.3931644">
  <ele>-20.68</ele>
  <time>2026-09-02T22:09:04Z</time>
  <course>229.26</course>
  <speed>0.9</speed>
  <fix>3d</fix>
</trkpt>
<trkpt lat="33.8111158" lon="-118.393167">
  <ele>-21.096</ele>
  <time>2026-09-02T22:09:04Z</time>
  <course>232.14</course>
  <speed>0.8823831367382311</speed>
  <fix>3d</fix>
</trkpt>
<trkpt lat="33.8111162" lon="-118.3931659">
  <ele>-20.63</ele>
  <time>2026-09-02T22:09:04Z</time>
  <course>229.26</course>
  <speed>0.9</speed>
  <fix>3d</fix>
</trkpt>
<trkpt lat="33.8111153" lon="-118.3931677">
  <ele>-21.073</ele>
  <time>2026-09-02T22:09:04Z</time>
  <course>232.12</course>
  <speed>0.8823831367382311</speed>
  <fix>3d</fix>
</trkpt>
<trkpt lat="33.8111162" lon="-118.3931659">
  <ele>-20.63</ele>
  <time>2026-09-02T22:09:04Z</time>
  <course>229.26</course>
  <speed>0.9</speed>
  <fix>3d</fix>
</trkpt>
<trkpt lat="33.8111147" lon="-118.3931685">
  <ele>-21.051</ele>
  <time>2026-09-02T22:09:04Z</time>
  <course>232.09</course>
  <speed>0.8823831367382311</speed>
  <fix>3d</fix>
</trkpt>
<trkpt lat="33.8111152" lon="-118.3931674">
  <ele>-20.59</ele>
  <time>2026-09-02T22:09:04Z</time>
  <course>229.28</course>
  <speed>0.9</speed>
  <fix>3d</fix>
</trkpt>
<trkpt lat="33.8111142" lon="-118.3931692">
  <ele>-21.029</ele>
  <time>2026-09-02T22:09:04Z</time>
  <course>232.07</course>
  <speed>0.8823831367382311</speed>
  <fix>3d</fix>
</trkpt>
<trkpt lat="33.8111152" lon="-118.3931674">
  <ele>-20.59</ele>
  <time>2026-09-02T22:09:04Z</time>
  <course>229.28</course>
  <speed>0.9</speed>
  <fix>3d</fix>
</trkpt>
<trkpt lat="33.8111137" lon="-118.39317">
  <ele>-21.007</ele>
  <time>2026-09-02T22:09:04Z</time>
  <course>232.04</course>
  <speed>0.8823831367382311</speed>
  <fix>3d</fix>
</trkpt>
<trkpt lat="33.8111141" lon="-118.3931689">
  <ele>-20.55</ele>
  <time>2026-09-02T22:09:04Z</time>
  <course>229.29</course>
  <speed>0.91</speed>
  <fix>3d</fix>
</trkpt>
<trkpt lat="33.8111131" lon="-118.3931707">
  <ele>-20.985</ele>
  <time>2026-09-02T22:09:04Z</time>
  <course>232.0</course>
  <speed>0.8823831367382311</speed>
  <fix>3d</fix>
</trkpt>
<trkpt lat="33.8111141" lon="-118.3931689">
  <ele>-20.55</ele>
  <time>2026-09-02T22:09:04Z</time>
  <course>229.29</course>
  <speed>0.91</speed>
  <fix>3d</fix>
</trkpt>
<trkpt lat="33.8111126" lon="-118.3931715">
  <ele>-20.963</ele>
  <time>2026-09-02T22:09:04Z</time>
  <course>231.96</course>
  <speed>0.8823831367382311</speed>
  <fix>3d</fix>
</trkpt>
<trkpt lat="33.811113" lon="-118.3931704">
  <ele>-20.5</ele>
  <time>2026-09-02T22:09:04Z</time>
  <course>229.27</course>
  <speed>0.91</speed>
  <fix>3d</fix>
</trkpt>
<trkpt lat="33.8111121" lon="-118.3931722">
  <ele>-20.942</ele>
  <time>2026-09-02T22:09:04Z</time>
  <course>231.93</course>
  <speed>0.8823831367382311</speed>
  <fix>3d</fix>
</trkpt>
<trkpt lat="33.811113" lon="-118.3931704">
  <ele>-20.5</ele>
  <time>2026-09-02T22:09:04Z</time>
  <course>229.27</course>
  <speed>0.91</speed>
  <fix>3d</fix>
</trkpt>
<trkpt lat="33.8111115" lon="-118.393173">
  <ele>-20.92</ele>
  <time>2026-09-02T22:09:04Z</time>
  <course>231.9</course>
  <speed>0.8823831367382311</speed>
  <fix>3d</fix>
</trkpt>
<trkpt lat="33.8111119" lon="-118.3931719">
  <ele>-20.46</ele>
  <time>2026-09-02T22:09:04Z</time>
  <course>229.27</course>
  <speed>0.91</speed>
  <fix>3d</fix>
</trkpt>
<trkpt lat="33.811111" lon="-118.3931737">
  <ele>-20.897</ele>
  <time>2026-09-02T22:09:04Z</time>
  <course>231.88</course>
  <speed>0.8823831367382311</speed>
  <fix>3d</fix>
</trkpt>
<trkpt lat="33.8111119" lon="-118.3931719">
  <ele>-20.46</ele>
  <time>2026-09-02T22:09:04Z</time>
  <course>229.27</course>
  <speed>0.91</speed>
  <fix>3d</fix>
</trkpt>
<trkpt lat="33.8111104" lon="-118.3931745">
  <ele>-20.874</ele>
  <time>2026-09-02T22:09:04Z</time>
  <course>231.86</course>
  <speed>0.8823831367382311</speed>
  <fix>3d</fix>
</trkpt>
<trkpt lat="33.8111109" lon="-118.3931734">
  <ele>-20.41</ele>
  <time>2026-09-02T22:09:04Z</time>
  <course>229.3</course>
  <speed>0.91</speed>
  <fix>3d</fix>
</trkpt>
<trkpt lat="33.8111099" lon="-118.3931752">
  <ele>-20.85</ele>
  <time>2026-09-02T22:09:04Z</time>
  <course>231.84</course>
  <speed>0.8886506625215557</speed>
  <fix>3d</fix>
</trkpt>
<trkpt lat="33.8111109" lon="-118.3931734">
  <ele>-20.41</ele>
  <time>2026-09-02T22:09:04Z</time>
  <course>229.3</course>
  <speed>0.91</speed>
  <fix>3d</fix>
</trkpt>
<trkpt lat="33.8111094" lon="-118.393176">
  <ele>-20.826</ele>
  <time>2026-09-02T22:09:04Z</time>
  <course>231.82</course>
  <speed>0.8886506625215557</speed>
  <fix>3d</fix>
</trkpt>
<trkpt lat="33.8111098" lon="-118.3931749">
  <ele>-20.36</ele>
  <time>2026-09-02T22:09:04Z</time>
  <course>229.31</course>
  <speed>0.91</speed>
  <fix>3d</fix>
</trkpt>
<trkpt lat="33.8111088" lon="-118.3931767">
  <ele>-20.802</ele>
  <time>2026-09-02T22:09:04Z</time>
  <course>231.78</course>
  <speed>0.8886506625215557</speed>
  <fix>3d</fix>
</trkpt>
<trkpt lat="33.8111098" lon="-118.3931749">
  <ele>-20.36</ele>
  <time>2026-09-02T22:09:04Z</time>
  <course>229.31</course>
  <speed>0.91</speed>
  <fix>3d</fix>
</trkpt>
<trkpt lat="33.8111083" lon="-118.3931775">
  <ele>-20.779</ele>
  <time>2026-09-02T22:09:04Z</time>
  <course>231.75</course>
  <speed>0.8886506625215557</speed>
  <fix>3d</fix>
</trkpt>
<trkpt lat="33.8111088" lon="-118.3931764">
  <ele>-20.32</ele>
  <time>2026-09-02T22:09:04Z</time>
  <course>229.29</course>
  <speed>0.91</speed>
  <fix>3d</fix>
</trkpt>
<trkpt lat="33.8111077" lon="-118.3931782">
  <ele>-20.756</ele>
  <time>2026-09-02T22:09:04Z</time>
  <course>231.71</course>
  <speed>0.8886506625215557</speed>
  <fix>3d</fix>
</trkpt>
<trkpt lat="33.8111088" lon="-118.3931764">
  <ele>-20.32</ele>
  <time>2026-09-02T22:09:04Z</time>
  <course>229.29</course>
  <speed>0.91</speed>
  <fix>3d</fix>
</trkpt>
<trkpt lat="33.8111072" lon="-118.393179">
  <ele>-20.732</ele>
  <time>2026-09-02T22:09:04Z</time>
  <course>231.65</course>
  <speed>0.8886506625215557</speed>
  <fix>3d</fix>
</trkpt>
<trkpt lat="33.8111077" lon="-118.3931779">
  <ele>-20.27</ele>
  <time>2026-09-02T22:09:04Z</time>
  <course>229.24</course>
  <speed>0.91</speed>
  <fix>3d</fix>
</trkpt>
<trkpt lat="33.8111067" lon="-118.3931798">
  <ele>-20.708</ele>
  <time>2026-09-02T22:09:04Z</time>
  <course>231.59</course>
  <speed>0.8886506625215557</speed>
  <fix>3d</fix>
</trkpt>
<trkpt lat="33.8111077" lon="-118.3931779">
  <ele>-20.27</ele>
  <time>2026-09-02T22:09:04Z</time>
  <course>229.24</course>
  <speed>0.91</speed>
  <fix>3d</fix>
</trkpt>
<trkpt lat="33.8111061" lon="-118.3931805">
  <ele>-20.685</ele>
  <time>2026-09-02T22:09:04Z</time>
  <course>231.54</course>
  <speed>0.8886506625215557</speed>
  <fix>3d</fix>
</trkpt>
<trkpt lat="33.8111066" lon="-118.3931794">
  <ele>-20.23</ele>
  <time>2026-09-02T22:09:04Z</time>
  <course>229.17</course>
  <speed>0.92</speed>
  <fix>3d</fix>
</trkpt>
<trkpt lat="33.8111056" lon="-118.3931813">
  <ele>-20.661</ele>
  <time>2026-09-02T22:09:04Z</time>
  <course>231.49</course>
  <speed>0.8886506625215557</speed>
  <fix>3d</fix>
</trkpt>
<trkpt lat="33.8111066" lon="-118.3931794">
  <ele>-20.23</ele>
  <time>2026-09-02T22:09:04Z</time>
  <course>229.17</course>
  <speed>0.92</speed>
  <fix>3d</fix>
</trkpt>
<trkpt lat="33.811105" lon="-118.393182">
  <ele>-20.638</ele>
  <time>2026-09-02T22:09:04Z</time>
  <course>231.44</course>
  <speed>0.8886506625215557</speed>
  <fix>3d</fix>
</trkpt>
<trkpt lat="33.8111055" lon="-118.3931809">
  <ele>-20.18</ele>
  <time>2026-09-02T22:09:04Z</time>
  <course>229.13</course>
  <speed>0.92</speed>
  <fix>3d</fix>
</trkpt>
<trkpt lat="33.8111045" lon="-118.3931828">
  <ele>-20.615</ele>
  <time>2026-09-02T22:09:04Z</time>
  <course>231.41</course>
  <speed>0.8964373932405988</speed>
  <fix>3d</fix>
</trkpt>
<trkpt lat="33.8111055" lon="-118.3931809">
  <ele>-20.18</ele>
  <time>2026-09-02T22:09:04Z</time>
  <course>229.13</course>
  <speed>0.92</speed>
  <fix>3d</fix>
</trkpt>
<trkpt lat="33.8111039" lon="-118.3931835">
  <ele>-20.593</ele>
  <time>2026-09-02T22:09:04Z</time>
  <course>231.39</course>
  <speed>0.8964373932405988</speed>
  <fix>3d</fix>
</trkpt>
<trkpt lat="33.8111044" lon="-118.3931824">
  <ele>-20.15</ele>
  <time>2026-09-02T22:09:04Z</time>
  <course>229.14</course>
  <speed>0.92</speed>
  <fix>3d</fix>
</trkpt>
<trkpt lat="33.8111034" lon="-118.3931843">
  <ele>-20.572</ele>
  <time>2026-09-02T22:09:04Z</time>
  <course>231.38</course>
  <speed>0.8964373932405988</speed>
  <fix>3d</fix>
</trkpt>
<trkpt lat="33.8111044" lon="-118.3931824">
  <ele>-20.15</ele>
  <time>2026-09-02T22:09:04Z</time>
  <course>229.14</course>
  <speed>0.92</speed>
  <fix>3d</fix>
</trkpt>
<trkpt lat="33.8111029" lon="-118.393185">
  <ele>-20.551</ele>
  <time>2026-09-02T22:09:04Z</time>
  <course>231.38</course>
  <speed>0.9027181176868004</speed>
  <fix>3d</fix>
</trkpt>
<trkpt lat="33.8111034" lon="-118.3931839">
  <ele>-20.11</ele>
  <time>2026-09-02T22:09:04Z</time>
  <course>229.18</course>
  <speed>0.92</speed>
  <fix>3d</fix>
</trkpt>
<trkpt lat="33.8111023" lon="-118.3931858">
  <ele>-20.53</ele>
  <time>2026-09-02T22:09:04Z</time>
  <course>231.36</course>
  <speed>0.9027181176868004</speed>
  <fix>3d</fix>
</trkpt>
<trkpt lat="33.8111034" lon="-118.3931839">
  <ele>-20.11</ele>
  <time>2026-09-02T22:09:04Z</time>
  <course>229.18</course>
  <speed>0.92</speed>
  <fix>3d</fix>
</trkpt>
<trkpt lat="33.8111018" lon="-118.3931866">
  <ele>-20.508</ele>
  <time>2026-09-02T22:09:04Z</time>
  <course>231.34</course>
  <speed>0.9027181176868004</speed>
  <fix>3d</fix>
</trkpt>
<trkpt lat="33.8111023" lon="-118.3931854">
  <ele>-20.07</ele>
  <time>2026-09-02T22:09:04Z</time>
  <course>229.19</course>
  <speed>0.92</speed>
  <fix>3d</fix>
</trkpt>
<trkpt lat="33.8111012" lon="-118.3931873">
  <ele>-20.487</ele>
  <time>2026-09-02T22:09:04Z</time>
  <course>231.31</course>
  <speed>0.9027181176868004</speed>
  <fix>3d</fix>
</trkpt>
<trkpt lat="33.8111023" lon="-118.3931854">
  <ele>-20.07</ele>
  <time>2026-09-02T22:09:04Z</time>
  <course>229.19</course>
  <speed>0.92</speed>
  <fix>3d</fix>
</trkpt>
<trkpt lat="33.8111007" lon="-118.3931881">
  <ele>-20.465</ele>
  <time>2026-09-02T22:09:04Z</time>
  <course>231.28</course>
  <speed>0.9027181176868004</speed>
  <fix>3d</fix>
</trkpt>
<trkpt lat="33.8111012" lon="-118.3931869">
  <ele>-20.02</ele>
  <time>2026-09-02T22:09:04Z</time>
  <course>229.15</course>
  <speed>0.93</speed>
  <fix>3d</fix>
</trkpt>
<trkpt lat="33.8111001" lon="-118.3931888">
  <ele>-20.444</ele>
  <time>2026-09-02T22:09:04Z</time>
  <course>231.25</course>
  <speed>0.9027181176868004</speed>
  <fix>3d</fix>
</trkpt>
<trkpt lat="33.8111012" lon="-118.3931869">
  <ele>-20.02</ele>
  <time>2026-09-02T22:09:04Z</time>
  <course>229.15</course>
  <speed>0.93</speed>
  <fix>3d</fix>
</trkpt>
<trkpt lat="33.8110996" lon="-118.3931896">
  <ele>-20.422</ele>
  <time>2026-09-02T22:09:04Z</time>
  <course>231.23</course>
  <speed>0.9027181176868004</speed>
  <fix>3d</fix>
</trkpt>
<trkpt lat="33.8111001" lon="-118.3931885">
  <ele>-19.98</ele>
  <time>2026-09-02T22:09:04Z</time>
  <course>229.14</course>
  <speed>0.93</speed>
  <fix>3d</fix>
</trkpt>
<trkpt lat="33.811099" lon="-118.3931904">
  <ele>-20.399</ele>
  <time>2026-09-02T22:09:04Z</time>
  <course>231.21</course>
  <speed>0.9027181176868004</speed>
  <fix>3d</fix>
</trkpt>
<trkpt lat="33.8111001" lon="-118.3931885">
  <ele>-19.98</ele>
  <time>2026-09-02T22:09:04Z</time>
  <course>229.14</course>
  <speed>0.93</speed>
  <fix>3d</fix>
</trkpt>
<trkpt lat="33.8110985" lon="-118.3931911">
  <ele>-20.376</ele>
  <time>2026-09-02T22:09:04Z</time>
  <course>231.19</course>
  <speed>0.9027181176868004</speed>
  <fix>3d</fix>
</trkpt>
<trkpt lat="33.811099" lon="-118.39319">
  <ele>-19.93</ele>
  <time>2026-09-02T22:09:04Z</time>
  <course>229.14</course>
  <speed>0.93</speed>
  <fix>3d</fix>
</trkpt>
<trkpt lat="33.8110979" lon="-118.3931919">
  <ele>-20.353</ele>
  <time>2026-09-02T22:09:04Z</time>
  <course>231.16</course>
  <speed>0.9027181176868004</speed>
  <fix>3d</fix>
</trkpt>
<trkpt lat="33.811099" lon="-118.39319">
  <ele>-19.93</ele>
  <time>2026-09-02T22:09:04Z</time>
  <course>229.14</course>
  <speed>0.93</speed>
  <fix>3d</fix>
</trkpt>
<trkpt lat="33.8110974" lon="-118.3931927">
  <ele>-20.33</ele>
  <time>2026-09-02T22:09:04Z</time>
  <course>231.13</course>
  <speed>0.9027181176868004</speed>
  <fix>3d</fix>
</trkpt>
<trkpt lat="33.8110979" lon="-118.3931915">
  <ele>-19.89</ele>
  <time>2026-09-02T22:09:04Z</time>
  <course>229.11</course>
  <speed>0.93</speed>
  <fix>3d</fix>
</trkpt>
<trkpt lat="33.8110968" lon="-118.3931934">
  <ele>-20.307</ele>
  <time>2026-09-02T22:09:04Z</time>
  <course>231.11</course>
  <speed>0.9027181176868004</speed>
  <fix>3d</fix>
</trkpt>
<trkpt lat="33.8110979" lon="-118.3931915">
  <ele>-19.89</ele>
  <time>2026-09-02T22:09:04Z</time>
  <course>229.11</course>
  <speed>0.93</speed>
  <fix>3d</fix>
</trkpt>
<trkpt lat="33.8110963" lon="-118.3931942">
  <ele>-20.285</ele>
  <time>2026-09-02T22:09:04Z</time>
  <course>231.09</course>
  <speed>0.9027181176868004</speed>
  <fix>3d</fix>
</trkpt>
<trkpt lat="33.8110968" lon="-118.3931931">
  <ele>-19.84</ele>
  <time>2026-09-02T22:09:04Z</time>
  <course>229.1</course>
  <speed>0.93</speed>
  <fix>3d</fix>
</trkpt>
<trkpt lat="33.8110957" lon="-118.393195">
  <ele>-20.263</ele>
  <time>2026-09-02T22:09:04Z</time>
  <course>231.07</course>
  <speed>0.9027181176868004</speed>
  <fix>3d</fix>
</trkpt>
<trkpt lat="33.8110968" lon="-118.3931931">
  <ele>-19.84</ele>
  <time>2026-09-02T22:09:04Z</time>
  <course>229.1</course>
  <speed>0.93</speed>
  <fix>3d</fix>
</trkpt>
<trkpt lat="33.8110952" lon="-118.3931957">
  <ele>-20.239</ele>
  <time>2026-09-02T22:09:04Z</time>
  <course>231.05</course>
  <speed>0.9027181176868004</speed>
  <fix>3d</fix>
</trkpt>
<trkpt lat="33.8110957" lon="-118.3931946">
  <ele>-19.8</ele>
  <time>2026-09-02T22:09:04Z</time>
  <course>229.08</course>
  <speed>0.93</speed>
  <fix>3d</fix>
</trkpt>
<trkpt lat="33.8110946" lon="-118.3931965">
  <ele>-20.215</ele>
  <time>2026-09-02T22:09:04Z</time>
  <course>231.04</course>
  <speed>0.9027181176868004</speed>
  <fix>3d</fix>
</trkpt>
<trkpt lat="33.8110957" lon="-118.3931946">
  <ele>-19.8</ele>
  <time>2026-09-02T22:09:04Z</time>
  <course>229.08</course>
  <speed>0.93</speed>
  <fix>3d</fix>
</trkpt>
<trkpt lat="33.8110941" lon="-118.3931973">
  <ele>-20.188</ele>
  <time>2026-09-02T22:09:04Z</time>
  <course>231.02</course>
  <speed>0.9167878707749137</speed>
  <fix>3d</fix>
</trkpt>
<trkpt lat="33.8110946" lon="-118.3931961">
  <ele>-19.75</ele>
  <time>2026-09-02T22:09:04Z</time>
  <course>229.06</course>
  <speed>0.93</speed>
  <fix>3d</fix>
</trkpt>
<trkpt lat="33.8110935" lon="-118.393198">
  <ele>-20.163</ele>
  <time>2026-09-02T22:09:04Z</time>
  <course>231.0</course>
  <speed>0.9167878707749137</speed>
  <fix>3d</fix>
</trkpt>
<trkpt lat="33.8110946" lon="-118.3931961">
  <ele>-19.75</ele>
  <time>2026-09-02T22:09:04Z</time>
  <course>229.06</course>
  <speed>0.93</speed>
  <fix>3d</fix>
</trkpt>
<trkpt lat="33.811093" lon="-118.3931988">
  <ele>-20.139</ele>
  <time>2026-09-02T22:09:04Z</time>
  <course>230.99</course>
  <speed>0.9167878707749137</speed>
  <fix>3d</fix>
</trkpt>
<trkpt lat="33.8110935" lon="-118.3931977">
  <ele>-19.7</ele>
  <time>2026-09-02T22:09:04Z</time>
  <course>229.08</course>
  <speed>0.93</speed>
  <fix>3d</fix>
</trkpt>
<trkpt lat="33.8110924" lon="-118.3931996">
  <ele>-20.116</ele>
  <time>2026-09-02T22:09:04Z</time>
  <course>230.98</course>
  <speed>0.9167878707749137</speed>
  <fix>3d</fix>
</trkpt>
<trkpt lat="33.8110935" lon="-118.3931977">
  <ele>-19.7</ele>
  <time>2026-09-02T22:09:04Z</time>
  <course>229.08</course>
  <speed>0.93</speed>
  <fix>3d</fix>
</trkpt>
<trkpt lat="33.8110919" lon="-118.3932003">
  <ele>-20.093</ele>
  <time>2026-09-02T22:09:04Z</time>
  <course>230.96</course>
  <speed>0.9167878707749137</speed>
  <fix>3d</fix>
</trkpt>
<trkpt lat="33.8110924" lon="-118.3931992">
  <ele>-19.65</ele>
  <time>2026-09-02T22:09:04Z</time>
  <course>229.08</course>
  <speed>0.94</speed>
  <fix>3d</fix>
</trkpt>
<trkpt lat="33.8110913" lon="-118.3932011">
  <ele>-20.071</ele>
  <time>2026-09-02T22:09:04Z</time>
  <course>230.94</course>
  <speed>0.9167878707749137</speed>
  <fix>3d</fix>
</trkpt>
<trkpt lat="33.8110924" lon="-118.3931992">
  <ele>-19.65</ele>
  <time>2026-09-02T22:09:04Z</time>
  <course>229.08</course>
  <speed>0.94</speed>
  <fix>3d</fix>
</trkpt>
<trkpt lat="33.8110908" lon="-118.3932019">
  <ele>-20.049</ele>
  <time>2026-09-02T22:09:04Z</time>
  <course>230.92</course>
  <speed>0.9167878707749137</speed>
  <fix>3d</fix>
</trkpt>
<trkpt lat="33.8110913" lon="-118.3932007">
  <ele>-19.61</ele>
  <time>2026-09-02T22:09:04Z</time>
  <course>229.04</course>
  <speed>0.94</speed>
  <fix>3d</fix>
</trkpt>
<trkpt lat="33.8110902" lon="-118.3932027">
  <ele>-20.024</ele>
  <time>2026-09-02T22:09:04Z</time>
  <course>230.9</course>
  <speed>0.9167878707749137</speed>
  <fix>3d</fix>
</trkpt>
<trkpt lat="33.8110913" lon="-118.3932007">
  <ele>-19.61</ele>
  <time>2026-09-02T22:09:04Z</time>
  <course>229.04</course>
  <speed>0.94</speed>
  <fix>3d</fix>
</trkpt>
<trkpt lat="33.8110896" lon="-118.3932034">
  <ele>-20.001</ele>
  <time>2026-09-02T22:09:04Z</time>
  <course>230.89</course>
  <speed>0.9167878707749137</speed>
  <fix>3d</fix>
</trkpt>
<trkpt lat="33.8110901" lon="-118.3932022">
  <ele>-19.56</ele>
  <time>2026-09-02T22:09:04Z</time>
  <course>229.04</course>
  <speed>0.94</speed>
  <fix>3d</fix>
</trkpt>
<trkpt lat="33.8110891" lon="-118.3932042">
  <ele>-19.977</ele>
  <time>2026-09-02T22:09:04Z</time>
  <course>230.89</course>
  <speed>0.9167878707749137</speed>
  <fix>3d</fix>
</trkpt>
<trkpt lat="33.8110901" lon="-118.3932022">
  <ele>-19.56</ele>
  <time>2026-09-02T22:09:04Z</time>
  <course>229.04</course>
  <speed>0.94</speed>
  <fix>3d</fix>
</trkpt>
<trkpt lat="33.8110885" lon="-118.393205">
  <ele>-19.953</ele>
  <time>2026-09-02T22:09:04Z</time>
  <course>230.92</course>
  <speed>0.9167878707749137</speed>
  <fix>3d</fix>
</trkpt>
<trkpt lat="33.811089" lon="-118.3932038">
  <ele>-19.52</ele>
  <time>2026-09-02T22:09:04Z</time>
  <course>229.12</course>
  <speed>0.94</speed>
  <fix>3d</fix>
</trkpt>
<trkpt lat="33.811088" lon="-118.3932057">
  <ele>-19.931</ele>
  <time>2026-09-02T22:09:04Z</time>
  <course>230.97</course>
  <speed>0.9167878707749137</speed>
  <fix>3d</fix>
</trkpt>
<trkpt lat="33.811089" lon="-118.3932038">
  <ele>-19.52</ele>
  <time>2026-09-02T22:09:04Z</time>
  <course>229.12</course>
  <speed>0.94</speed>
  <fix>3d</fix>
</trkpt>
<trkpt lat="33.8110874" lon="-118.3932065">
  <ele>-19.909</ele>
  <time>2026-09-02T22:09:04Z</time>
  <course>231.0</course>
  <speed>0.9167878707749137</speed>
  <fix>3d</fix>
</trkpt>
<trkpt lat="33.8110879" lon="-118.3932054">
  <ele>-19.47</ele>
  <time>2026-09-02T22:09:04Z</time>
  <course>229.21</course>
  <speed>0.94</speed>
  <fix>3d</fix>
</trkpt>
<trkpt lat="33.8110869" lon="-118.3932073">
  <ele>-19.886</ele>
  <time>2026-09-02T22:09:04Z</time>
  <course>231.03</course>
  <speed>0.9167878707749137</speed>
  <fix>3d</fix>
</trkpt>
<trkpt lat="33.8110879" lon="-118.3932054">
  <ele>-19.47</ele>
  <time>2026-09-02T22:09:04Z</time>
  <course>229.21</course>
  <speed>0.94</speed>
  <fix>3d</fix>
</trkpt>
<trkpt lat="33.8110863" lon="-118.3932081">
  <ele>-19.863</ele>
  <time>2026-09-02T22:09:04Z</time>
  <course>231.04</course>
  <speed>0.9167878707749137</speed>
  <fix>3d</fix>
</trkpt>
<trkpt lat="33.8110868" lon="-118.3932069">
  <ele>-19.43</ele>
  <time>2026-09-02T22:09:04Z</time>
  <course>229.24</course>
  <speed>0.94</speed>
  <fix>3d</fix>
</trkpt>
<trkpt lat="33.8110857" lon="-118.3932088">
  <ele>-19.84</ele>
  <time>2026-09-02T22:09:04Z</time>
  <course>231.04</course>
  <speed>0.9167878707749137</speed>
  <fix>3d</fix>
</trkpt>
<trkpt lat="33.8110868" lon="-118.3932069">
  <ele>-19.43</ele>
  <time>2026-09-02T22:09:04Z</time>
  <course>229.24</course>
  <speed>0.94</speed>
  <fix>3d</fix>
</trkpt>
<trkpt lat="33.8110852" lon="-118.3932096">
  <ele>-19.817</ele>
  <time>2026-09-02T22:09:04Z</time>
  <course>231.03</course>
  <speed>0.9167878707749137</speed>
  <fix>3d</fix>
</trkpt>
<trkpt lat="33.8110857" lon="-118.3932084">
  <ele>-19.38</ele>
  <time>2026-09-02T22:09:04Z</time>
  <course>229.24</course>
  <speed>0.94</speed>
  <fix>3d</fix>
</trkpt>
<trkpt lat="33.8110846" lon="-118.3932104">
  <ele>-19.793</ele>
  <time>2026-09-02T22:09:04Z</time>
  <course>231.03</course>
  <speed>0.9245539465060976</speed>
  <fix>3d</fix>
</trkpt>
<trkpt lat="33.8110857" lon="-118.3932084">
  <ele>-19.38</ele>
  <time>2026-09-02T22:09:04Z</time>
  <course>229.24</course>
  <speed>0.94</speed>
  <fix>3d</fix>
</trkpt>
<trkpt lat="33.8110841" lon="-118.3932112">
  <ele>-19.77</ele>
  <time>2026-09-02T22:09:04Z</time>
  <course>231.02</course>
  <speed>0.9245539465060976</speed>
  <fix>3d</fix>
</trkpt>
<trkpt lat="33.8110846" lon="-118.39321">
  <ele>-19.34</ele>
  <time>2026-09-02T22:09:04Z</time>
  <course>229.26</course>
  <speed>0.95</speed>
  <fix>3d</fix>
</trkpt>
<trkpt lat="33.8110835" lon="-118.393212">
  <ele>-19.746</ele>
  <time>2026-09-02T22:09:04Z</time>
  <course>231.01</course>
  <speed>0.9245539465060976</speed>
  <fix>3d</fix>
</trkpt>
<trkpt lat="33.8110846" lon="-118.39321">
  <ele>-19.34</ele>
  <time>2026-09-02T22:09:04Z</time>
  <course>229.26</course>
  <speed>0.95</speed>
  <fix>3d</fix>
</trkpt>
<trkpt lat="33.8110829" lon="-118.3932127">
  <ele>-19.723</ele>
  <time>2026-09-02T22:09:04Z</time>
  <course>231.0</course>
  <speed>0.9245539465060976</speed>
  <fix>3d</fix>
</trkpt>
<trkpt lat="33.8110835" lon="-118.3932116">
  <ele>-19.29</ele>
  <time>2026-09-02T22:09:04Z</time>
  <course>229.27</course>
  <speed>0.95</speed>
  <fix>3d</fix>
</trkpt>
<trkpt lat="33.8110824" lon="-118.3932135">
  <ele>-19.699</ele>
  <time>2026-09-02T22:09:04Z</time>
  <course>230.97</course>
  <speed>0.930859817588019</speed>
  <fix>3d</fix>
</trkpt>
<trkpt lat="33.8110835" lon="-118.3932116">
  <ele>-19.29</ele>
  <time>2026-09-02T22:09:04Z</time>
  <course>229.27</course>
  <speed>0.95</speed>
  <fix>3d</fix>
</trkpt>
<trkpt lat="33.8110818" lon="-118.3932143">
  <ele>-19.675</ele>
  <time>2026-09-02T22:09:04Z</time>
  <course>230.93</course>
  <speed>0.930859817588019</speed>
  <fix>3d</fix>
</trkpt>
<trkpt lat="33.8110823" lon="-118.3932132">
  <ele>-19.25</ele>
  <time>2026-09-02T22:09:04Z</time>
  <course>229.22</course>
  <speed>0.95</speed>
  <fix>3d</fix>
</trkpt>
<trkpt lat="33.8110813" lon="-118.3932151">
  <ele>-19.653</ele>
  <time>2026-09-02T22:09:04Z</time>
  <course>230.89</course>
  <speed>0.930859817588019</speed>
  <fix>3d</fix>
</trkpt>
<trkpt lat="33.8110823" lon="-118.3932132">
  <ele>-19.25</ele>
  <time>2026-09-02T22:09:04Z</time>
  <course>229.22</course>
  <speed>0.95</speed>
  <fix>3d</fix>
</trkpt>
<trkpt lat="33.8110807" lon="-118.3932158">
  <ele>-19.631</ele>
  <time>2026-09-02T22:09:04Z</time>
  <course>230.86</course>
  <speed>0.930859817588019</speed>
  <fix>3d</fix>
</trkpt>
<trkpt lat="33.8110812" lon="-118.3932147">
  <ele>-19.2</ele>
  <time>2026-09-02T22:09:04Z</time>
  <course>229.18</course>
  <speed>0.95</speed>
  <fix>3d</fix>
</trkpt>
<trkpt lat="33.8110802" lon="-118.3932166">
  <ele>-19.607</ele>
  <time>2026-09-02T22:09:04Z</time>
  <course>230.83</course>
  <speed>0.930859817588019</speed>
  <fix>3d</fix>
</trkpt>
<trkpt lat="33.8110812" lon="-118.3932147">
  <ele>-19.2</ele>
  <time>2026-09-02T22:09:04Z</time>
  <course>229.18</course>
  <speed>0.95</speed>
  <fix>3d</fix>
</trkpt>
<trkpt lat="33.8110796" lon="-118.3932174">
  <ele>-19.583</ele>
  <time>2026-09-02T22:09:04Z</time>
  <course>230.82</course>
  <speed>0.930859817588019</speed>
  <fix>3d</fix>
</trkpt>
<trkpt lat="33.8110801" lon="-118.3932163">
  <ele>-19.15</ele>
  <time>2026-09-02T22:09:04Z</time>
  <course>229.17</course>
  <speed>0.95</speed>
  <fix>3d</fix>
</trkpt>
<trkpt lat="33.811079" lon="-118.3932182">
  <ele>-19.559</ele>
  <time>2026-09-02T22:09:04Z</time>
  <course>230.81</course>
  <speed>0.930859817588019</speed>
  <fix>3d</fix>
</trkpt>
<trkpt lat="33.8110801" lon="-118.3932163">
  <ele>-19.15</ele>
  <time>2026-09-02T22:09:04Z</time>
  <course>229.17</course>
  <speed>0.95</speed>
  <fix>3d</fix>
</trkpt>
<trkpt lat="33.8110785" lon="-118.393219">
  <ele>-19.536</ele>
  <time>2026-09-02T22:09:04Z</time>
  <course>230.8</course>
  <speed>0.930859817588019</speed>
  <fix>3d</fix>
</trkpt>
<trkpt lat="33.811079" lon="-118.3932179">
  <ele>-19.11</ele>
  <time>2026-09-02T22:09:04Z</time>
  <course>229.17</course>
  <speed>0.95</speed>
  <fix>3d</fix>
</trkpt>
<trkpt lat="33.8110779" lon="-118.3932198">
  <ele>-19.513</ele>
  <time>2026-09-02T22:09:04Z</time>
  <course>230.78</course>
  <speed>0.930859817588019</speed>
  <fix>3d</fix>
</trkpt>
<trkpt lat="33.811079" lon="-118.3932179">
  <ele>-19.11</ele>
  <time>2026-09-02T22:09:04Z</time>
  <course>229.17</course>
  <speed>0.95</speed>
  <fix>3d</fix>
</trkpt>
<trkpt lat="33.8110773" lon="-118.3932205">
  <ele>-19.489</ele>
  <time>2026-09-02T22:09:04Z</time>
  <course>230.75</course>
  <speed>0.930859817588019</speed>
  <fix>3d</fix>
</trkpt>
<trkpt lat="33.8110779" lon="-118.3932194">
  <ele>-19.06</ele>
  <time>2026-09-02T22:09:04Z</time>
  <course>229.16</course>
  <speed>0.96</speed>
  <fix>3d</fix>
</trkpt>
<trkpt lat="33.8110768" lon="-118.3932213">
  <ele>-19.465</ele>
  <time>2026-09-02T22:09:04Z</time>
  <course>230.7</course>
  <speed>0.930859817588019</speed>
  <fix>3d</fix>
</trkpt>
<trkpt lat="33.8110779" lon="-118.3932194">
  <ele>-19.06</ele>
  <time>2026-09-02T22:09:04Z</time>
  <course>229.16</course>
  <speed>0.96</speed>
  <fix>3d</fix>
</trkpt>
<trkpt lat="33.8110762" lon="-118.3932221">
  <ele>-19.439</ele>
  <time>2026-09-02T22:09:04Z</time>
  <course>230.67</course>
  <speed>0.930859817588019</speed>
  <fix>3d</fix>
</trkpt>
<trkpt lat="33.8110767" lon="-118.3932209">
  <ele>-19.01</ele>
  <time>2026-09-02T22:09:04Z</time>
  <course>229.11</course>
  <speed>0.96</speed>
  <fix>3d</fix>
</trkpt>
<trkpt lat="33.8110757" lon="-118.3932229">
  <ele>-19.413</ele>
  <time>2026-09-02T22:09:04Z</time>
  <course>230.64</course>
  <speed>0.930859817588019</speed>
  <fix>3d</fix>
</trkpt>
<trkpt lat="33.8110767" lon="-118.3932209">
  <ele>-19.01</ele>
  <time>2026-09-02T22:09:04Z</time>
  <course>229.11</course>
  <speed>0.96</speed>
  <fix>3d</fix>
</trkpt>
<trkpt lat="33.8110751" lon="-118.3932237">
  <ele>-19.388</ele>
  <time>2026-09-02T22:09:04Z</time>
  <course>230.64</course>
  <speed>0.930859817588019</speed>
  <fix>3d</fix>
</trkpt>
<trkpt lat="33.8110756" lon="-118.3932226">
  <ele>-18.97</ele>
  <time>2026-09-02T22:09:04Z</time>
  <course>229.11</course>
  <speed>0.96</speed>
  <fix>3d</fix>
</trkpt>
<trkpt lat="33.8110745" lon="-118.3932244">
  <ele>-19.364</ele>
  <time>2026-09-02T22:09:04Z</time>
  <course>230.65</course>
  <speed>0.930859817588019</speed>
  <fix>3d</fix>
</trkpt>
<trkpt lat="33.8110756" lon="-118.3932226">
  <ele>-18.97</ele>
  <time>2026-09-02T22:09:04Z</time>
  <course>229.11</course>
  <speed>0.96</speed>
  <fix>3d</fix>
</trkpt>
<trkpt lat="33.811074" lon="-118.3932252">
  <ele>-19.34</ele>
  <time>2026-09-02T22:09:04Z</time>
  <course>230.65</course>
  <speed>0.930859817588019</speed>
  <fix>3d</fix>
</trkpt>
<trkpt lat="33.8110744" lon="-118.3932242">
  <ele>-18.92</ele>
  <time>2026-09-02T22:09:04Z</time>
  <course>229.15</course>
  <speed>0.96</speed>
  <fix>3d</fix>
</trkpt>
<trkpt lat="33.8110734" lon="-118.393226">
  <ele>-19.318</ele>
  <time>2026-09-02T22:09:04Z</time>
  <course>230.64</course>
  <speed>0.930859817588019</speed>
  <fix>3d</fix>
</trkpt>
<trkpt lat="33.8110744" lon="-118.3932242">
  <ele>-18.92</ele>
  <time>2026-09-02T22:09:04Z</time>
  <course>229.15</course>
  <speed>0.96</speed>
  <fix>3d</fix>
</trkpt>
<trkpt lat="33.8110728" lon="-118.3932268">
  <ele>-19.295</ele>
  <time>2026-09-02T22:09:04Z</time>
  <course>230.63</course>
  <speed>0.930859817588019</speed>
  <fix>3d</fix>
</trkpt>
<trkpt lat="33.8110733" lon="-118.3932258">
  <ele>-18.88</ele>
  <time>2026-09-02T22:09:04Z</time>
  <course>229.15</course>
  <speed>0.96</speed>
  <fix>3d</fix>
</trkpt>
<trkpt lat="33.8110723" lon="-118.3932276">
  <ele>-19.272</ele>
  <time>2026-09-02T22:09:04Z</time>
  <course>230.62</course>
  <speed>0.930859817588019</speed>
  <fix>3d</fix>
</trkpt>
<trkpt lat="33.8110733" lon="-118.3932258">
  <ele>-18.88</ele>
  <time>2026-09-02T22:09:04Z</time>
  <course>229.15</course>
  <speed>0.96</speed>
  <fix>3d</fix>
</trkpt>
<trkpt lat="33.8110717" lon="-118.3932284">
  <ele>-19.249</ele>
  <time>2026-09-02T22:09:04Z</time>
  <course>230.61</course>
  <speed>0.930859817588019</speed>
  <fix>3d</fix>
</trkpt>
<trkpt lat="33.8110722" lon="-118.3932273">
  <ele>-18.84</ele>
  <time>2026-09-02T22:09:04Z</time>
  <course>229.12</course>
  <speed>0.96</speed>
  <fix>3d</fix>
</trkpt>
<trkpt lat="33.8110711" lon="-118.3932292">
  <ele>-19.226</ele>
  <time>2026-09-02T22:09:04Z</time>
  <course>230.59</course>
  <speed>0.930859817588019</speed>
  <fix>3d</fix>
</trkpt>
<trkpt lat="33.8110722" lon="-118.3932273">
  <ele>-18.84</ele>
  <time>2026-09-02T22:09:04Z</time>
  <course>229.12</course>
  <speed>0.96</speed>
  <fix>3d</fix>
</trkpt>
<trkpt lat="33.8110705" lon="-118.39323">
  <ele>-19.203</ele>
  <time>2026-09-02T22:09:04Z</time>
  <course>230.57</course>
  <speed>0.930859817588019</speed>
  <fix>3d</fix>
</trkpt>
<trkpt lat="33.8110711" lon="-118.3932289">
  <ele>-18.79</ele>
  <time>2026-09-02T22:09:04Z</time>
  <course>229.09</course>
  <speed>0.96</speed>
  <fix>3d</fix>
</trkpt>
<trkpt lat="33.81107" lon="-118.3932308">
  <ele>-19.181</ele>
  <time>2026-09-02T22:09:04Z</time>
  <course>230.55</course>
  <speed>0.930859817588019</speed>
  <fix>3d</fix>
</trkpt>
<trkpt lat="33.8110711" lon="-118.3932289">
  <ele>-18.79</ele>
  <time>2026-09-02T22:09:04Z</time>
  <course>229.09</course>
  <speed>0.96</speed>
  <fix>3d</fix>
</trkpt>
<trkpt lat="33.8110694" lon="-118.3932316">
  <ele>-19.16</ele>
  <time>2026-09-02T22:09:04Z</time>
  <course>230.52</course>
  <speed>0.9372299611087985</speed>
  <fix>3d</fix>
</trkpt>
<trkpt lat="33.8110699" lon="-118.3932304">
  <ele>-18.75</ele>
  <time>2026-09-02T22:09:04Z</time>
  <course>229.06</course>
  <speed>0.96</speed>
  <fix>3d</fix>
</trkpt>
<trkpt lat="33.8110688" lon="-118.3932323">
  <ele>-19.137</ele>
  <time>2026-09-02T22:09:04Z</time>
  <course>230.5</course>
  <speed>0.930859817588019</speed>
  <fix>3d</fix>
</trkpt>
<trkpt lat="33.8110699" lon="-118.3932304">
  <ele>-18.75</ele>
  <time>2026-09-02T22:09:05Z</time>
  <course>229.06</course>
  <speed>0.96</speed>
  <fix>3d</fix>
</trkpt>
<trkpt lat="33.8110683" lon="-118.3932331">
  <ele>-19.113</ele>
  <time>2026-09-02T22:09:05Z</time>
  <course>230.5</course>
  <speed>0.9372299611087985</speed>
  <fix>3d</fix>
</trkpt>
<trkpt lat="33.8110688" lon="-118.3932321">
  <ele>-18.7</ele>
  <time>2026-09-02T22:09:05Z</time>
  <course>229.04</course>
  <speed>0.96</speed>
  <fix>3d</fix>
</trkpt>
<trkpt lat="33.8110677" lon="-118.3932339">
  <ele>-19.089</ele>
  <time>2026-09-02T22:09:05Z</time>
  <course>230.5</course>
  <speed>0.9372299611087985</speed>
  <fix>3d</fix>
</trkpt>
<trkpt lat="33.8110688" lon="-118.3932321">
  <ele>-18.7</ele>
  <time>2026-09-02T22:09:05Z</time>
  <course>229.04</course>
  <speed>0.96</speed>
  <fix>3d</fix>
</trkpt>
<trkpt lat="33.8110671" lon="-118.3932347">
  <ele>-19.065</ele>
  <time>2026-09-02T22:09:05Z</time>
  <course>230.49</course>
  <speed>0.9372299611087985</speed>
  <fix>3d</fix>
</trkpt>
<trkpt lat="33.8110676" lon="-118.3932337">
  <ele>-18.65</ele>
  <time>2026-09-02T22:09:05Z</time>
  <course>229.05</course>
  <speed>0.96</speed>
  <fix>3d</fix>
</trkpt>
<trkpt lat="33.8110666" lon="-118.3932355">
  <ele>-19.04</ele>
  <time>2026-09-02T22:09:05Z</time>
  <course>230.48</course>
  <speed>0.9372299611087985</speed>
  <fix>3d</fix>
</trkpt>
<trkpt lat="33.8110676" lon="-118.3932337">
  <ele>-18.65</ele>
  <time>2026-09-02T22:09:05Z</time>
  <course>229.05</course>
  <speed>0.96</speed>
  <fix>3d</fix>
</trkpt>
<trkpt lat="33.811066" lon="-118.3932363">
  <ele>-19.014</ele>
  <time>2026-09-02T22:09:05Z</time>
  <course>230.47</course>
  <speed>0.9372299611087985</speed>
  <fix>3d</fix>
</trkpt>
<trkpt lat="33.8110665" lon="-118.3932352">
  <ele>-18.61</ele>
  <time>2026-09-02T22:09:05Z</time>
  <course>229.02</course>
  <speed>0.96</speed>
  <fix>3d</fix>
</trkpt>
<trkpt lat="33.8110654" lon="-118.3932371">
  <ele>-18.989</ele>
  <time>2026-09-02T22:09:05Z</time>
  <course>230.46</course>
  <speed>0.9372299611087985</speed>
  <fix>3d</fix>
</trkpt>
<trkpt lat="33.8110665" lon="-118.3932352">
  <ele>-18.61</ele>
  <time>2026-09-02T22:09:05Z</time>
  <course>229.02</course>
  <speed>0.96</speed>
  <fix>3d</fix>
</trkpt>
<trkpt lat="33.8110649" lon="-118.3932379">
  <ele>-18.964</ele>
  <time>2026-09-02T22:09:05Z</time>
  <course>230.47</course>
  <speed>0.9372299611087985</speed>
  <fix>3d</fix>
</trkpt>
<trkpt lat="33.8110653" lon="-118.3932368">
  <ele>-18.56</ele>
  <time>2026-09-02T22:09:05Z</time>
  <course>229.02</course>
  <speed>0.96</speed>
  <fix>3d</fix>
</trkpt>
<trkpt lat="33.8110643" lon="-118.3932387">
  <ele>-18.939</ele>
  <time>2026-09-02T22:09:05Z</time>
  <course>230.48</course>
  <speed>0.9449338601193208</speed>
  <fix>3d</fix>
</trkpt>
<trkpt lat="33.8110653" lon="-118.3932368">
  <ele>-18.56</ele>
  <time>2026-09-02T22:09:05Z</time>
  <course>229.02</course>
  <speed>0.96</speed>
  <fix>3d</fix>
</trkpt>
<trkpt lat="33.8110637" lon="-118.3932395">
  <ele>-18.914</ele>
  <time>2026-09-02T22:09:05Z</time>
  <course>230.49</course>
  <speed>0.9449338601193208</speed>
  <fix>3d</fix>
</trkpt>
<trkpt lat="33.8110642" lon="-118.3932384">
  <ele>-18.51</ele>
  <time>2026-09-02T22:09:05Z</time>
  <course>229.06</course>
  <speed>0.96</speed>
  <fix>3d</fix>
</trkpt>
<trkpt lat="33.8110631" lon="-118.3932403">
  <ele>-18.891</ele>
  <time>2026-09-02T22:09:05Z</time>
  <course>230.51</course>
  <speed>0.9449338601193208</speed>
  <fix>3d</fix>
</trkpt>
<trkpt lat="33.8110642" lon="-118.3932384">
  <ele>-18.51</ele>
  <time>2026-09-02T22:09:05Z</time>
  <course>229.06</course>
  <speed>0.96</speed>
  <fix>3d</fix>
</trkpt>
<trkpt lat="33.8110626" lon="-118.3932411">
  <ele>-18.868</ele>
  <time>2026-09-02T22:09:05Z</time>
  <course>230.52</course>
  <speed>0.9449338601193208</speed>
  <fix>3d</fix>
</trkpt>
<trkpt lat="33.8110631" lon="-118.39324">
  <ele>-18.47</ele>
  <time>2026-09-02T22:09:05Z</time>
  <course>229.1</course>
  <speed>0.97</speed>
  <fix>3d</fix>
</trkpt>
<trkpt lat="33.811062" lon="-118.3932419">
  <ele>-18.846</ele>
  <time>2026-09-02T22:09:05Z</time>
  <course>230.53</course>
  <speed>0.9449338601193208</speed>
  <fix>3d</fix>
</trkpt>
<trkpt lat="33.8110631" lon="-118.39324">
  <ele>-18.47</ele>
  <time>2026-09-02T22:09:05Z</time>
  <course>229.1</course>
  <speed>0.97</speed>
  <fix>3d</fix>
</trkpt>
<trkpt lat="33.8110614" lon="-118.3932427">
  <ele>-18.823</ele>
  <time>2026-09-02T22:09:05Z</time>
  <course>230.51</course>
  <speed>0.9449338601193208</speed>
  <fix>3d</fix>
</trkpt>
<trkpt lat="33.8110619" lon="-118.3932416">
  <ele>-18.43</ele>
  <time>2026-09-02T22:09:05Z</time>
  <course>229.09</course>
  <speed>0.97</speed>
  <fix>3d</fix>
</trkpt>
<trkpt lat="33.8110609" lon="-118.3932435">
  <ele>-18.801</ele>
  <time>2026-09-02T22:09:05Z</time>
  <course>230.5</course>
  <speed>0.9449338601193208</speed>
  <fix>3d</fix>
</trkpt>
<trkpt lat="33.8110619" lon="-118.3932416">
  <ele>-18.43</ele>
  <time>2026-09-02T22:09:05Z</time>
  <course>229.09</course>
  <speed>0.97</speed>
  <fix>3d</fix>
</trkpt>
<trkpt lat="33.8110603" lon="-118.3932443">
  <ele>-18.779</ele>
  <time>2026-09-02T22:09:05Z</time>
  <course>230.48</course>
  <speed>0.9449338601193208</speed>
  <fix>3d</fix>
</trkpt>
<trkpt lat="33.8110608" lon="-118.3932432">
  <ele>-18.38</ele>
  <time>2026-09-02T22:09:05Z</time>
  <course>229.07</course>
  <speed>0.97</speed>
  <fix>3d</fix>
</trkpt>
<trkpt lat="33.8110597" lon="-118.3932451">
  <ele>-18.756</ele>
  <time>2026-09-02T22:09:05Z</time>
  <course>230.47</course>
  <speed>0.9449338601193208</speed>
  <fix>3d</fix>
</trkpt>
<trkpt lat="33.8110608" lon="-118.3932432">
  <ele>-18.38</ele>
  <time>2026-09-02T22:09:05Z</time>
  <course>229.07</course>
  <speed>0.97</speed>
  <fix>3d</fix>
</trkpt>
<trkpt lat="33.8110591" lon="-118.3932459">
  <ele>-18.733</ele>
  <time>2026-09-02T22:09:05Z</time>
  <course>230.45</course>
  <speed>0.9449338601193208</speed>
  <fix>3d</fix>
</trkpt>
<trkpt lat="33.8110597" lon="-118.3932448">
  <ele>-18.34</ele>
  <time>2026-09-02T22:09:05Z</time>
  <course>229.04</course>
  <speed>0.97</speed>
  <fix>3d</fix>
</trkpt>
<trkpt lat="33.8110586" lon="-118.3932467">
  <ele>-18.71</ele>
  <time>2026-09-02T22:09:05Z</time>
  <course>230.42</course>
  <speed>0.9449338601193208</speed>
  <fix>3d</fix>
</trkpt>
<trkpt lat="33.8110597" lon="-118.3932448">
  <ele>-18.34</ele>
  <time>2026-09-02T22:09:05Z</time>
  <course>229.04</course>
  <speed>0.97</speed>
  <fix>3d</fix>
</trkpt>
<trkpt lat="33.811058" lon="-118.3932474">
  <ele>-18.686</ele>
  <time>2026-09-02T22:09:05Z</time>
  <course>230.39</course>
  <speed>0.9449338601193208</speed>
  <fix>3d</fix>
</trkpt>
<trkpt lat="33.8110585" lon="-118.3932463">
  <ele>-18.29</ele>
  <time>2026-09-02T22:09:05Z</time>
  <course>228.97</course>
  <speed>0.97</speed>
  <fix>3d</fix>
</trkpt>
<trkpt lat="33.8110574" lon="-118.3932482">
  <ele>-18.661</ele>
  <time>2026-09-02T22:09:05Z</time>
  <course>230.36</course>
  <speed>0.9449338601193208</speed>
  <fix>3d</fix>
</trkpt>
<trkpt lat="33.8110585" lon="-118.3932463">
  <ele>-18.29</ele>
  <time>2026-09-02T22:09:05Z</time>
  <course>228.97</course>
  <speed>0.97</speed>
  <fix>3d</fix>
</trkpt>
<trkpt lat="33.8110568" lon="-118.393249">
  <ele>-18.636</ele>
  <time>2026-09-02T22:09:05Z</time>
  <course>230.34</course>
  <speed>0.9449338601193208</speed>
  <fix>3d</fix>
</trkpt>
<trkpt lat="33.8110573" lon="-118.3932479">
  <ele>-18.24</ele>
  <time>2026-09-02T22:09:05Z</time>
  <course>228.93</course>
  <speed>0.97</speed>
  <fix>3d</fix>
</trkpt>
<trkpt lat="33.8110563" lon="-118.3932498">
  <ele>-18.612</ele>
  <time>2026-09-02T22:09:05Z</time>
  <course>230.35</course>
  <speed>0.9449338601193208</speed>
  <fix>3d</fix>
</trkpt>
<trkpt lat="33.8110573" lon="-118.3932479">
  <ele>-18.24</ele>
  <time>2026-09-02T22:09:05Z</time>
  <course>228.93</course>
  <speed>0.97</speed>
  <fix>3d</fix>
</trkpt>
<trkpt lat="33.8110557" lon="-118.3932506">
  <ele>-18.587</ele>
  <time>2026-09-02T22:09:05Z</time>
  <course>230.38</course>
  <speed>0.9449338601193208</speed>
  <fix>3d</fix>
</trkpt>
<trkpt lat="33.8110562" lon="-118.3932495">
  <ele>-18.19</ele>
  <time>2026-09-02T22:09:05Z</time>
  <course>228.97</course>
  <speed>0.97</speed>
  <fix>3d</fix>
</trkpt>
<trkpt lat="33.8110551" lon="-118.3932514">
  <ele>-18.563</ele>
  <time>2026-09-02T22:09:05Z</time>
  <course>230.41</course>
  <speed>0.9449338601193208</speed>
  <fix>3d</fix>
</trkpt>
<trkpt lat="33.8110562" lon="-118.3932495">
  <ele>-18.19</ele>
  <time>2026-09-02T22:09:05Z</time>
  <course>228.97</course>
  <speed>0.97</speed>
  <fix>3d</fix>
</trkpt>
<trkpt lat="33.8110545" lon="-118.3932522">
  <ele>-18.537</ele>
  <time>2026-09-02T22:09:05Z</time>
  <course>230.44</course>
  <speed>0.9449338601193208</speed>
  <fix>3d</fix>
</trkpt>
<trkpt lat="33.8110551" lon="-118.393251">
  <ele>-18.14</ele>
  <time>2026-09-02T22:09:05Z</time>
  <course>229.04</course>
  <speed>0.97</speed>
  <fix>3d</fix>
</trkpt>
<trkpt lat="33.811054" lon="-118.393253">
  <ele>-18.511</ele>
  <time>2026-09-02T22:09:05Z</time>
  <course>230.46</course>
  <speed>0.9449338601193208</speed>
  <fix>3d</fix>
</trkpt>
<trkpt lat="33.8110551" lon="-118.393251">
  <ele>-18.14</ele>
  <time>2026-09-02T22:09:05Z</time>
  <course>229.04</course>
  <speed>0.97</speed>
  <fix>3d</fix>
</trkpt>
<trkpt lat="33.8110534" lon="-118.3932538">
  <ele>-18.485</ele>
  <time>2026-09-02T22:09:05Z</time>
  <course>230.48</course>
  <speed>0.9449338601193208</speed>
  <fix>3d</fix>
</trkpt>
<trkpt lat="33.8110539" lon="-118.3932527">
  <ele>-18.09</ele>
  <time>2026-09-02T22:09:05Z</time>
  <course>229.07</course>
  <speed>0.97</speed>
  <fix>3d</fix>
</trkpt>
<trkpt lat="33.8110528" lon="-118.3932546">
  <ele>-18.46</ele>
  <time>2026-09-02T22:09:05Z</time>
  <course>230.49</course>
  <speed>0.9526804291051643</speed>
  <fix>3d</fix>
</trkpt>
<trkpt lat="33.8110539" lon="-118.3932527">
  <ele>-18.09</ele>
  <time>2026-09-02T22:09:05Z</time>
  <course>229.07</course>
  <speed>0.97</speed>
  <fix>3d</fix>
</trkpt>
<trkpt lat="33.8110522" lon="-118.3932554">
  <ele>-18.437</ele>
  <time>2026-09-02T22:09:05Z</time>
  <course>230.5</course>
  <speed>0.9526804291051643</speed>
  <fix>3d</fix>
</trkpt>
<trkpt lat="33.8110528" lon="-118.3932543">
  <ele>-18.04</ele>
  <time>2026-09-02T22:09:05Z</time>
  <course>229.08</course>
  <speed>0.98</speed>
  <fix>3d</fix>
</trkpt>
<trkpt lat="33.8110517" lon="-118.3932562">
  <ele>-18.415</ele>
  <time>2026-09-02T22:09:05Z</time>
  <course>230.5</course>
  <speed>0.9590099061010788</speed>
  <fix>3d</fix>
</trkpt>
<trkpt lat="33.8110528" lon="-118.3932543">
  <ele>-18.04</ele>
  <time>2026-09-02T22:09:05Z</time>
  <course>229.08</course>
  <speed>0.98</speed>
  <fix>3d</fix>
</trkpt>
<trkpt lat="33.8110511" lon="-118.393257">
  <ele>-18.393</ele>
  <time>2026-09-02T22:09:05Z</time>
  <course>230.49</course>
  <speed>0.9590099061010788</speed>
  <fix>3d</fix>
</trkpt>
<trkpt lat="33.8110516" lon="-118.3932558">
  <ele>-17.99</ele>
  <time>2026-09-02T22:09:05Z</time>
  <course>229.06</course>
  <speed>0.98</speed>
  <fix>3d</fix>
</trkpt>
<trkpt lat="33.8110505" lon="-118.3932578">
  <ele>-18.371</ele>
  <time>2026-09-02T22:09:05Z</time>
  <course>230.48</course>
  <speed>0.9590099061010788</speed>
  <fix>3d</fix>
</trkpt>
<trkpt lat="33.8110516" lon="-118.3932558">
  <ele>-17.99</ele>
  <time>2026-09-02T22:09:05Z</time>
  <course>229.06</course>
  <speed>0.98</speed>
  <fix>3d</fix>
</trkpt>
<trkpt lat="33.8110499" lon="-118.3932586">
  <ele>-18.347</ele>
  <time>2026-09-02T22:09:05Z</time>
  <course>230.49</course>
  <speed>0.9590099061010788</speed>
  <fix>3d</fix>
</trkpt>
<trkpt lat="33.8110505" lon="-118.3932575">
  <ele>-17.95</ele>
  <time>2026-09-02T22:09:05Z</time>
  <course>229.06</course>
  <speed>0.98</speed>
  <fix>3d</fix>
</trkpt>
<trkpt lat="33.8110493" lon="-118.3932594">
  <ele>-18.322</ele>
  <time>2026-09-02T22:09:05Z</time>
  <course>230.5</course>
  <speed>0.9590099061010788</speed>
  <fix>3d</fix>
</trkpt>
<trkpt lat="33.8110505" lon="-118.3932575">
  <ele>-17.95</ele>
  <time>2026-09-02T22:09:05Z</time>
  <course>229.06</course>
  <speed>0.98</speed>
  <fix>3d</fix>
</trkpt>
<trkpt lat="33.8110488" lon="-118.3932602">
  <ele>-18.297</ele>
  <time>2026-09-02T22:09:05Z</time>
  <course>230.49</course>
  <speed>0.9590099061010788</speed>
  <fix>3d</fix>
</trkpt>
<trkpt lat="33.8110493" lon="-118.3932591">
  <ele>-17.9</ele>
  <time>2026-09-02T22:09:05Z</time>
  <course>229.05</course>
  <speed>0.98</speed>
  <fix>3d</fix>
</trkpt>
<trkpt lat="33.8110482" lon="-118.393261">
  <ele>-18.272</ele>
  <time>2026-09-02T22:09:05Z</time>
  <course>230.48</course>
  <speed>0.9590099061010788</speed>
  <fix>3d</fix>
</trkpt>
<trkpt lat="33.8110493" lon="-118.3932591">
  <ele>-17.9</ele>
  <time>2026-09-02T22:09:05Z</time>
  <course>229.05</course>
  <speed>0.98</speed>
  <fix>3d</fix>
</trkpt>
<trkpt lat="33.8110476" lon="-118.3932618">
  <ele>-18.247</ele>
  <time>2026-09-02T22:09:05Z</time>
  <course>230.47</course>
  <speed>0.9590099061010788</speed>
  <fix>3d</fix>
</trkpt>
<trkpt lat="33.8110481" lon="-118.3932606">
  <ele>-17.85</ele>
  <time>2026-09-02T22:09:05Z</time>
  <course>229.01</course>
  <speed>0.98</speed>
  <fix>3d</fix>
</trkpt>
<trkpt lat="33.811047" lon="-118.3932626">
  <ele>-18.222</ele>
  <time>2026-09-02T22:09:05Z</time>
  <course>230.48</course>
  <speed>0.9590099061010788</speed>
  <fix>3d</fix>
</trkpt>
<trkpt lat="33.8110481" lon="-118.3932606">
  <ele>-17.85</ele>
  <time>2026-09-02T22:09:05Z</time>
  <course>229.01</course>
  <speed>0.98</speed>
  <fix>3d</fix>
</trkpt>
<trkpt lat="33.8110464" lon="-118.3932634">
  <ele>-18.196</ele>
  <time>2026-09-02T22:09:05Z</time>
  <course>230.51</course>
  <speed>0.9590099061010788</speed>
  <fix>3d</fix>
</trkpt>
<trkpt lat="33.811047" lon="-118.3932623">
  <ele>-17.8</ele>
  <time>2026-09-02T22:09:05Z</time>
  <course>229.06</course>
  <speed>0.98</speed>
  <fix>3d</fix>
</trkpt>
<trkpt lat="33.8110459" lon="-118.3932643">
  <ele>-18.171</ele>
  <time>2026-09-02T22:09:05Z</time>
  <course>230.53</course>
  <speed>0.9590099061010788</speed>
  <fix>3d</fix>
</trkpt>
<trkpt lat="33.811047" lon="-118.3932623">
  <ele>-17.8</ele>
  <time>2026-09-02T22:09:05Z</time>
  <course>229.06</course>
  <speed>0.98</speed>
  <fix>3d</fix>
</trkpt>
<trkpt lat="33.8110453" lon="-118.3932651">
  <ele>-18.145</ele>
  <time>2026-09-02T22:09:05Z</time>
  <course>230.55</course>
  <speed>0.9590099061010788</speed>
  <fix>3d</fix>
</trkpt>
<trkpt lat="33.8110458" lon="-118.3932639">
  <ele>-17.75</ele>
  <time>2026-09-02T22:09:05Z</time>
  <course>229.12</course>
  <speed>0.98</speed>
  <fix>3d</fix>
</trkpt>
<trkpt lat="33.8110447" lon="-118.3932659">
  <ele>-18.12</ele>
  <time>2026-09-02T22:09:05Z</time>
  <course>230.55</course>
  <speed>0.9590099061010788</speed>
  <fix>3d</fix>
</trkpt>
<trkpt lat="33.8110458" lon="-118.3932639">
  <ele>-17.75</ele>
  <time>2026-09-02T22:09:05Z</time>
  <course>229.12</course>
  <speed>0.98</speed>
  <fix>3d</fix>
</trkpt>
<trkpt lat="33.8110441" lon="-118.3932667">
  <ele>-18.096</ele>
  <time>2026-09-02T22:09:05Z</time>
  <course>230.56</course>
  <speed>0.9590099061010788</speed>
  <fix>3d</fix>
</trkpt>
<trkpt lat="33.8110446" lon="-118.3932656">
  <ele>-17.7</ele>
  <time>2026-09-02T22:09:05Z</time>
  <course>229.14</course>
  <speed>0.98</speed>
  <fix>3d</fix>
</trkpt>
<trkpt lat="33.8110435" lon="-118.3932675">
  <ele>-18.072</ele>
  <time>2026-09-02T22:09:05Z</time>
  <course>230.56</course>
  <speed>0.9590099061010788</speed>
  <fix>3d</fix>
</trkpt>
<trkpt lat="33.8110446" lon="-118.3932656">
  <ele>-17.7</ele>
  <time>2026-09-02T22:09:05Z</time>
  <course>229.14</course>
  <speed>0.98</speed>
  <fix>3d</fix>
</trkpt>
<trkpt lat="33.8110429" lon="-118.3932683">
  <ele>-18.048</ele>
  <time>2026-09-02T22:09:05Z</time>
  <course>230.56</course>
  <speed>0.9590099061010788</speed>
  <fix>3d</fix>
</trkpt>
<trkpt lat="33.8110434" lon="-118.3932672">
  <ele>-17.66</ele>
  <time>2026-09-02T22:09:05Z</time>
  <course>229.14</course>
  <speed>0.98</speed>
  <fix>3d</fix>
</trkpt>
<trkpt lat="33.8110424" lon="-118.3932691">
  <ele>-18.023</ele>
  <time>2026-09-02T22:09:05Z</time>
  <course>230.56</course>
  <speed>0.9590099061010788</speed>
  <fix>3d</fix>
</trkpt>
<trkpt lat="33.8110434" lon="-118.3932672">
  <ele>-17.66</ele>
  <time>2026-09-02T22:09:05Z</time>
  <course>229.14</course>
  <speed>0.98</speed>
  <fix>3d</fix>
</trkpt>
<trkpt lat="33.8110418" lon="-118.3932699">
  <ele>-17.999</ele>
  <time>2026-09-02T22:09:05Z</time>
  <course>230.57</course>
  <speed>0.9590099061010788</speed>
  <fix>3d</fix>
</trkpt>
<trkpt lat="33.8110423" lon="-118.3932687">
  <ele>-17.61</ele>
  <time>2026-09-02T22:09:05Z</time>
  <course>229.15</course>
  <speed>0.98</speed>
  <fix>3d</fix>
</trkpt>
<trkpt lat="33.8110412" lon="-118.3932707">
  <ele>-17.976</ele>
  <time>2026-09-02T22:09:05Z</time>
  <course>230.59</course>
  <speed>0.9590099061010788</speed>
  <fix>3d</fix>
</trkpt>
<trkpt lat="33.8110423" lon="-118.3932687">
  <ele>-17.61</ele>
  <time>2026-09-02T22:09:05Z</time>
  <course>229.15</course>
  <speed>0.98</speed>
  <fix>3d</fix>
</trkpt>
<trkpt lat="33.8110406" lon="-118.3932715">
  <ele>-17.953</ele>
  <time>2026-09-02T22:09:05Z</time>
  <course>230.61</course>
  <speed>0.9590099061010788</speed>
  <fix>3d</fix>
</trkpt>
<trkpt lat="33.8110412" lon="-118.3932704">
  <ele>-17.57</ele>
  <time>2026-09-02T22:09:05Z</time>
  <course>229.21</course>
  <speed>0.98</speed>
  <fix>3d</fix>
</trkpt>
<trkpt lat="33.81104" lon="-118.3932723">
  <ele>-17.931</ele>
  <time>2026-09-02T22:09:05Z</time>
  <course>230.62</course>
  <speed>0.9590099061010788</speed>
  <fix>3d</fix>
</trkpt>
<trkpt lat="33.8110412" lon="-118.3932704">
  <ele>-17.57</ele>
  <time>2026-09-02T22:09:05Z</time>
  <course>229.21</course>
  <speed>0.98</speed>
  <fix>3d</fix>
</trkpt>
<trkpt lat="33.8110395" lon="-118.3932731">
  <ele>-17.907</ele>
  <time>2026-09-02T22:09:05Z</time>
  <course>230.61</course>
  <speed>0.9590099061010788</speed>
  <fix>3d</fix>
</trkpt>
<trkpt lat="33.81104" lon="-118.393272">
  <ele>-17.52</ele>
  <time>2026-09-02T22:09:05Z</time>
  <course>229.22</course>
  <speed>0.98</speed>
  <fix>3d</fix>
</trkpt>
<trkpt lat="33.8110389" lon="-118.393274">
  <ele>-17.883</ele>
  <time>2026-09-02T22:09:05Z</time>
  <course>230.58</course>
  <speed>0.9590099061010788</speed>
  <fix>3d</fix>
</trkpt>
<trkpt lat="33.81104" lon="-118.393272">
  <ele>-17.52</ele>
  <time>2026-09-02T22:09:05Z</time>
  <course>229.22</course>
  <speed>0.98</speed>
  <fix>3d</fix>
</trkpt>
<trkpt lat="33.8110383" lon="-118.3932748">
  <ele>-17.859</ele>
  <time>2026-09-02T22:09:05Z</time>
  <course>230.56</course>
  <speed>0.9590099061010788</speed>
  <fix>3d</fix>
</trkpt>
<trkpt lat="33.8110389" lon="-118.3932736">
  <ele>-17.48</ele>
  <time>2026-09-02T22:09:05Z</time>
  <course>229.17</course>
  <speed>0.98</speed>
  <fix>3d</fix>
</trkpt>
<trkpt lat="33.8110377" lon="-118.3932756">
  <ele>-17.834</ele>
  <time>2026-09-02T22:09:05Z</time>
  <course>230.54</course>
  <speed>0.9590099061010788</speed>
  <fix>3d</fix>
</trkpt>
<trkpt lat="33.8110389" lon="-118.3932736">
  <ele>-17.48</ele>
  <time>2026-09-02T22:09:05Z</time>
  <course>229.17</course>
  <speed>0.98</speed>
  <fix>3d</fix>
</trkpt>
<trkpt lat="33.8110371" lon="-118.3932764">
  <ele>-17.808</ele>
  <time>2026-09-02T22:09:05Z</time>
  <course>230.51</course>
  <speed>0.9590099061010788</speed>
  <fix>3d</fix>
</trkpt>
<trkpt lat="33.8110377" lon="-118.3932753">
  <ele>-17.43</ele>
  <time>2026-09-02T22:09:05Z</time>
  <course>229.11</course>
  <speed>0.98</speed>
  <fix>3d</fix>
</trkpt>
<trkpt lat="33.8110366" lon="-118.3932772">
  <ele>-17.783</ele>
  <time>2026-09-02T22:09:05Z</time>
  <course>230.47</course>
  <speed>0.9590099061010788</speed>
  <fix>3d</fix>
</trkpt>
<trkpt lat="33.8110377" lon="-118.3932753">
  <ele>-17.43</ele>
  <time>2026-09-02T22:09:05Z</time>
  <course>229.11</course>
  <speed>0.98</speed>
  <fix>3d</fix>
</trkpt>
<trkpt lat="33.811036" lon="-118.393278">
  <ele>-17.76</ele>
  <time>2026-09-02T22:09:05Z</time>
  <course>230.44</course>
  <speed>0.9590099061010788</speed>
  <fix>3d</fix>
</trkpt>
<trkpt lat="33.8110365" lon="-118.3932769">
  <ele>-17.38</ele>
  <time>2026-09-02T22:09:05Z</time>
  <course>229.04</course>
  <speed>0.99</speed>
  <fix>3d</fix>
</trkpt>
<trkpt lat="33.8110354" lon="-118.3932788">
  <ele>-17.737</ele>
  <time>2026-09-02T22:09:05Z</time>
  <course>230.41</course>
  <speed>0.9590099061010788</speed>
  <fix>3d</fix>
</trkpt>
<trkpt lat="33.8110365" lon="-118.3932769">
  <ele>-17.38</ele>
  <time>2026-09-02T22:09:05Z</time>
  <course>229.04</course>
  <speed>0.99</speed>
  <fix>3d</fix>
</trkpt>
<trkpt lat="33.8110348" lon="-118.3932796">
  <ele>-17.714</ele>
  <time>2026-09-02T22:09:05Z</time>
  <course>230.39</course>
  <speed>0.9590099061010788</speed>
  <fix>3d</fix>
</trkpt>
<trkpt lat="33.8110354" lon="-118.3932785">
  <ele>-17.33</ele>
  <time>2026-09-02T22:09:05Z</time>
  <course>229.0</course>
  <speed>0.99</speed>
  <fix>3d</fix>
</trkpt>
<trkpt lat="33.8110342" lon="-118.3932804">
  <ele>-17.689</ele>
  <time>2026-09-02T22:09:05Z</time>
  <course>230.37</course>
  <speed>0.9590099061010788</speed>
  <fix>3d</fix>
</trkpt>
<trkpt lat="33.8110354" lon="-118.3932785">
  <ele>-17.33</ele>
  <time>2026-09-02T22:09:05Z</time>
  <course>229.0</course>
  <speed>0.99</speed>
  <fix>3d</fix>
</trkpt>
<trkpt lat="33.8110336" lon="-118.3932813">
  <ele>-17.663</ele>
  <time>2026-09-02T22:09:05Z</time>
  <course>230.35</course>
  <speed>0.9590099061010788</speed>
  <fix>3d</fix>
</trkpt>
<trkpt lat="33.8110342" lon="-118.3932801">
  <ele>-17.28</ele>
  <time>2026-09-02T22:09:05Z</time>
  <course>228.97</course>
  <speed>0.99</speed>
  <fix>3d</fix>
</trkpt>
<trkpt lat="33.8110331" lon="-118.3932821">
  <ele>-17.638</ele>
  <time>2026-09-02T22:09:05Z</time>
  <course>230.33</course>
  <speed>0.9590099061010788</speed>
  <fix>3d</fix>
</trkpt>
<trkpt lat="33.8110342" lon="-118.3932801">
  <ele>-17.28</ele>
  <time>2026-09-02T22:09:05Z</time>
  <course>228.97</course>
  <speed>0.99</speed>
  <fix>3d</fix>
</trkpt>
<trkpt lat="33.8110325" lon="-118.3932829">
  <ele>-17.614</ele>
  <time>2026-09-02T22:09:05Z</time>
  <course>230.32</course>
  <speed>0.9590099061010788</speed>
  <fix>3d</fix>
</trkpt>
<trkpt lat="33.811033" lon="-118.3932817">
  <ele>-17.24</ele>
  <time>2026-09-02T22:09:05Z</time>
  <course>228.96</course>
  <speed>0.99</speed>
  <fix>3d</fix>
</trkpt>
<trkpt lat="33.8110319" lon="-118.3932837">
  <ele>-17.59</ele>
  <time>2026-09-02T22:09:05Z</time>
  <course>230.32</course>
  <speed>0.9590099061010788</speed>
  <fix>3d</fix>
</trkpt>
<trkpt lat="33.811033" lon="-118.3932817">
  <ele>-17.24</ele>
  <time>2026-09-02T22:09:05Z</time>
  <course>228.96</course>
  <speed>0.99</speed>
  <fix>3d</fix>
</trkpt>
<trkpt lat="33.8110313" lon="-118.3932845">
  <ele>-17.566</ele>
  <time>2026-09-02T22:09:05Z</time>
  <course>230.33</course>
  <speed>0.9667471230885561</speed>
  <fix>3d</fix>
</trkpt>
<trkpt lat="33.8110318" lon="-118.3932833">
  <ele>-17.19</ele>
  <time>2026-09-02T22:09:05Z</time>
  <course>228.99</course>
  <speed>0.99</speed>
  <fix>3d</fix>
</trkpt>
<trkpt lat="33.8110307" lon="-118.3932853">
  <ele>-17.541</ele>
  <time>2026-09-02T22:09:05Z</time>
  <course>230.35</course>
  <speed>0.9667471230885561</speed>
  <fix>3d</fix>
</trkpt>
<trkpt lat="33.8110318" lon="-118.3932833">
  <ele>-17.19</ele>
  <time>2026-09-02T22:09:05Z</time>
  <course>228.99</course>
  <speed>0.99</speed>
  <fix>3d</fix>
</trkpt>
<trkpt lat="33.8110301" lon="-118.3932861">
  <ele>-17.515</ele>
  <time>2026-09-02T22:09:05Z</time>
  <course>230.39</course>
  <speed>0.9667471230885561</speed>
  <fix>3d</fix>
</trkpt>
<trkpt lat="33.8110306" lon="-118.393285">
  <ele>-17.14</ele>
  <time>2026-09-02T22:09:05Z</time>
  <course>229.07</course>
  <speed>0.99</speed>
  <fix>3d</fix>
</trkpt>
<trkpt lat="33.8110295" lon="-118.3932869">
  <ele>-17.489</ele>
  <time>2026-09-02T22:09:05Z</time>
  <course>230.43</course>
  <speed>0.9667471230885561</speed>
  <fix>3d</fix>
</trkpt>
<trkpt lat="33.8110306" lon="-118.393285">
  <ele>-17.14</ele>
  <time>2026-09-02T22:09:05Z</time>
  <course>229.07</course>
  <speed>0.99</speed>
  <fix>3d</fix>
</trkpt>
<trkpt lat="33.8110289" lon="-118.3932878">
  <ele>-17.465</ele>
  <time>2026-09-02T22:09:05Z</time>
  <course>230.46</course>
  <speed>0.9667471230885561</speed>
  <fix>3d</fix>
</trkpt>
<trkpt lat="33.8110295" lon="-118.3932866">
  <ele>-17.09</ele>
  <time>2026-09-02T22:09:05Z</time>
  <course>229.14</course>
  <speed>0.99</speed>
  <fix>3d</fix>
</trkpt>
<trkpt lat="33.8110284" lon="-118.3932886">
  <ele>-17.442</ele>
  <time>2026-09-02T22:09:05Z</time>
  <course>230.48</course>
  <speed>0.9667471230885561</speed>
  <fix>3d</fix>
</trkpt>
<trkpt lat="33.8110295" lon="-118.3932866">
  <ele>-17.09</ele>
  <time>2026-09-02T22:09:05Z</time>
  <course>229.14</course>
  <speed>0.99</speed>
  <fix>3d</fix>
</trkpt>
<trkpt lat="33.8110278" lon="-118.3932894">
  <ele>-17.419</ele>
  <time>2026-09-02T22:09:05Z</time>
  <course>230.49</course>
  <speed>0.9667471230885561</speed>
  <fix>3d</fix>
</trkpt>
<trkpt lat="33.8110284" lon="-118.3932882">
  <ele>-17.05</ele>
  <time>2026-09-02T22:09:05Z</time>
  <course>229.16</course>
  <speed>0.99</speed>
  <fix>3d</fix>
</trkpt>
<trkpt lat="33.8110272" lon="-118.3932902">
  <ele>-17.396</ele>
  <time>2026-09-02T22:09:05Z</time>
  <course>230.49</course>
  <speed>0.9667471230885561</speed>
  <fix>3d</fix>
</trkpt>
<trkpt lat="33.8110284" lon="-118.3932882">
  <ele>-17.05</ele>
  <time>2026-09-02T22:09:05Z</time>
  <course>229.16</course>
  <speed>0.99</speed>
  <fix>3d</fix>
</trkpt>
<trkpt lat="33.8110266" lon="-118.393291">
  <ele>-17.372</ele>
  <time>2026-09-02T22:09:05Z</time>
  <course>230.47</course>
  <speed>0.9730878685915265</speed>
  <fix>3d</fix>
</trkpt>
<trkpt lat="33.8110272" lon="-118.3932898">
  <ele>-17.0</ele>
  <time>2026-09-02T22:09:05Z</time>
  <course>229.12</course>
  <speed>0.99</speed>
  <fix>3d</fix>
</trkpt>
<trkpt lat="33.811026" lon="-118.3932918">
  <ele>-17.347</ele>
  <time>2026-09-02T22:09:05Z</time>
  <course>230.45</course>
  <speed>0.9730878685915265</speed>
  <fix>3d</fix>
</trkpt>
<trkpt lat="33.8110272" lon="-118.3932898">
  <ele>-17.0</ele>
  <time>2026-09-02T22:09:05Z</time>
  <course>229.12</course>
  <speed>0.99</speed>
  <fix>3d</fix>
</trkpt>
<trkpt lat="33.8110254" lon="-118.3932926">
  <ele>-17.322</ele>
  <time>2026-09-02T22:09:05Z</time>
  <course>230.43</course>
  <speed>0.9730878685915265</speed>
  <fix>3d</fix>
</trkpt>
<trkpt lat="33.811026" lon="-118.3932915">
  <ele>-16.95</ele>
  <time>2026-09-02T22:09:05Z</time>
  <course>229.07</course>
  <speed>0.99</speed>
  <fix>3d</fix>
</trkpt>
<trkpt lat="33.8110249" lon="-118.3932934">
  <ele>-17.297</ele>
  <time>2026-09-02T22:09:05Z</time>
  <course>230.4</course>
  <speed>0.9730878685915265</speed>
  <fix>3d</fix>
</trkpt>
<trkpt lat="33.811026" lon="-118.3932915">
  <ele>-16.95</ele>
  <time>2026-09-02T22:09:05Z</time>
  <course>229.07</course>
  <speed>0.99</speed>
  <fix>3d</fix>
</trkpt>
<trkpt lat="33.8110243" lon="-118.3932943">
  <ele>-17.272</ele>
  <time>2026-09-02T22:09:05Z</time>
  <course>230.39</course>
  <speed>0.9730878685915265</speed>
  <fix>3d</fix>
</trkpt>
<trkpt lat="33.8110249" lon="-118.3932931">
  <ele>-16.9</ele>
  <time>2026-09-02T22:09:05Z</time>
  <course>229.03</course>
  <speed>0.99</speed>
  <fix>3d</fix>
</trkpt>
<trkpt lat="33.8110237" lon="-118.3932951">
  <ele>-17.246</ele>
  <time>2026-09-02T22:09:05Z</time>
  <course>230.37</course>
  <speed>0.9730878685915265</speed>
  <fix>3d</fix>
</trkpt>
<trkpt lat="33.8110249" lon="-118.3932931">
  <ele>-16.9</ele>
  <time>2026-09-02T22:09:05Z</time>
  <course>229.03</course>
  <speed>0.99</speed>
  <fix>3d</fix>
</trkpt>
<trkpt lat="33.8110231" lon="-118.3932959">
  <ele>-17.221</ele>
  <time>2026-09-02T22:09:05Z</time>
  <course>230.35</course>
  <speed>0.9730878685915265</speed>
  <fix>3d</fix>
</trkpt>
<trkpt lat="33.8110237" lon="-118.3932946">
  <ele>-16.85</ele>
  <time>2026-09-02T22:09:05Z</time>
  <course>228.99</course>
  <speed>0.99</speed>
  <fix>3d</fix>
</trkpt>
<trkpt lat="33.8110225" lon="-118.3932967">
  <ele>-17.195</ele>
  <time>2026-09-02T22:09:05Z</time>
  <course>230.34</course>
  <speed>0.9730878685915265</speed>
  <fix>3d</fix>
</trkpt>
<trkpt lat="33.8110237" lon="-118.3932946">
  <ele>-16.85</ele>
  <time>2026-09-02T22:09:05Z</time>
  <course>228.99</course>
  <speed>0.99</speed>
  <fix>3d</fix>
</trkpt>
<trkpt lat="33.8110219" lon="-118.3932975">
  <ele>-17.169</ele>
  <time>2026-09-02T22:09:05Z</time>
  <course>230.34</course>
  <speed>0.9730878685915265</speed>
  <fix>3d</fix>
</trkpt>
<trkpt lat="33.8110225" lon="-118.3932963">
  <ele>-16.8</ele>
  <time>2026-09-02T22:09:05Z</time>
  <course>228.99</course>
  <speed>0.99</speed>
  <fix>3d</fix>
</trkpt>
<trkpt lat="33.8110213" lon="-118.3932983">
  <ele>-17.143</ele>
  <time>2026-09-02T22:09:05Z</time>
  <course>230.34</course>
  <speed>0.9730878685915265</speed>
  <fix>3d</fix>
</trkpt>
<trkpt lat="33.8110225" lon="-118.3932963">
  <ele>-16.8</ele>
  <time>2026-09-02T22:09:05Z</time>
  <course>228.99</course>
  <speed>0.99</speed>
  <fix>3d</fix>
</trkpt>
<trkpt lat="33.8110207" lon="-118.3932991">
  <ele>-17.119</ele>
  <time>2026-09-02T22:09:05Z</time>
  <course>230.36</course>
  <speed>0.9730878685915265</speed>
  <fix>3d</fix>
</trkpt>
<trkpt lat="33.8110214" lon="-118.3932979">
  <ele>-16.76</ele>
  <time>2026-09-02T22:09:05Z</time>
  <course>229.04</course>
  <speed>0.99</speed>
  <fix>3d</fix>
</trkpt>
<trkpt lat="33.8110202" lon="-118.3933">
  <ele>-17.096</ele>
  <time>2026-09-02T22:09:05Z</time>
  <course>230.37</course>
  <speed>0.9730878685915265</speed>
  <fix>3d</fix>
</trkpt>
<trkpt lat="33.8110214" lon="-118.3932979">
  <ele>-16.76</ele>
  <time>2026-09-02T22:09:05Z</time>
  <course>229.04</course>
  <speed>0.99</speed>
  <fix>3d</fix>
</trkpt>
<trkpt lat="33.8110196" lon="-118.3933008">
  <ele>-17.074</ele>
  <time>2026-09-02T22:09:05Z</time>
  <course>230.37</course>
  <speed>0.9730878685915265</speed>
  <fix>3d</fix>
</trkpt>
<trkpt lat="33.8110202" lon="-118.3932996">
  <ele>-16.71</ele>
  <time>2026-09-02T22:09:05Z</time>
  <course>229.04</course>
  <speed>0.99</speed>
  <fix>3d</fix>
</trkpt>
<trkpt lat="33.811019" lon="-118.3933016">
  <ele>-17.05</ele>
  <time>2026-09-02T22:09:05Z</time>
  <course>230.36</course>
  <speed>0.9730878685915265</speed>
  <fix>3d</fix>
</trkpt>
<trkpt lat="33.8110202" lon="-118.3932996">
  <ele>-16.71</ele>
  <time>2026-09-02T22:09:05Z</time>
  <course>229.04</course>
  <speed>0.99</speed>
  <fix>3d</fix>
</trkpt>
<trkpt lat="33.8110184" lon="-118.3933024">
  <ele>-17.025</ele>
  <time>2026-09-02T22:09:05Z</time>
  <course>230.34</course>
  <speed>0.9730878685915265</speed>
  <fix>3d</fix>
</trkpt>
<trkpt lat="33.811019" lon="-118.3933012">
  <ele>-16.66</ele>
  <time>2026-09-02T22:09:05Z</time>
  <course>228.99</course>
  <speed>1.0</speed>
  <fix>3d</fix>
</trkpt>
<trkpt lat="33.8110178" lon="-118.3933032">
  <ele>-17.0</ele>
  <time>2026-09-02T22:09:05Z</time>
  <course>230.33</course>
  <speed>0.9730878685915265</speed>
  <fix>3d</fix>
</trkpt>
<trkpt lat="33.811019" lon="-118.3933012">
  <ele>-16.66</ele>
  <time>2026-09-02T22:09:05Z</time>
  <course>228.99</course>
  <speed>1.0</speed>
  <fix>3d</fix>
</trkpt>
<trkpt lat="33.8110172" lon="-118.393304">
  <ele>-16.975</ele>
  <time>2026-09-02T22:09:05Z</time>
  <course>230.32</course>
  <speed>0.9730878685915265</speed>
  <fix>3d</fix>
</trkpt>
<trkpt lat="33.8110178" lon="-118.3933028">
  <ele>-16.61</ele>
  <time>2026-09-02T22:09:05Z</time>
  <course>228.97</course>
  <speed>1.0</speed>
  <fix>3d</fix>
</trkpt>
<trkpt lat="33.8110166" lon="-118.3933049">
  <ele>-16.95</ele>
  <time>2026-09-02T22:09:05Z</time>
  <course>230.33</course>
  <speed>0.9730878685915265</speed>
  <fix>3d</fix>
</trkpt>
<trkpt lat="33.8110178" lon="-118.3933028">
  <ele>-16.61</ele>
  <time>2026-09-02T22:09:05Z</time>
  <course>228.97</course>
  <speed>1.0</speed>
  <fix>3d</fix>
</trkpt>
<trkpt lat="33.811016" lon="-118.3933057">
  <ele>-16.926</ele>
  <time>2026-09-02T22:09:05Z</time>
  <course>230.34</course>
  <speed>0.9730878685915265</speed>
  <fix>3d</fix>
</trkpt>
<trkpt lat="33.8110166" lon="-118.3933045">
  <ele>-16.57</ele>
  <time>2026-09-02T22:09:05Z</time>
  <course>229.0</course>
  <speed>1.0</speed>
  <fix>3d</fix>
</trkpt>
<trkpt lat="33.8110155" lon="-118.3933065">
  <ele>-16.902</ele>
  <time>2026-09-02T22:09:05Z</time>
  <course>230.36</course>
  <speed>0.9730878685915265</speed>
  <fix>3d</fix>
</trkpt>
<trkpt lat="33.8110166" lon="-118.3933045">
  <ele>-16.57</ele>
  <time>2026-09-02T22:09:05Z</time>
  <course>229.0</course>
  <speed>1.0</speed>
  <fix>3d</fix>
</trkpt>
<trkpt lat="33.8110149" lon="-118.3933073">
  <ele>-16.878</ele>
  <time>2026-09-02T22:09:05Z</time>
  <course>230.38</course>
  <speed>0.9730878685915265</speed>
  <fix>3d</fix>
</trkpt>
<trkpt lat="33.8110154" lon="-118.3933061">
  <ele>-16.52</ele>
  <time>2026-09-02T22:09:05Z</time>
  <course>229.05</course>
  <speed>1.0</speed>
  <fix>3d</fix>
</trkpt>
<trkpt lat="33.8110143" lon="-118.3933081">
  <ele>-16.854</ele>
  <time>2026-09-02T22:09:05Z</time>
  <course>230.4</course>
  <speed>0.9730878685915265</speed>
  <fix>3d</fix>
</trkpt>
<trkpt lat="33.8110154" lon="-118.3933061">
  <ele>-16.52</ele>
  <time>2026-09-02T22:09:05Z</time>
  <course>229.05</course>
  <speed>1.0</speed>
  <fix>3d</fix>
</trkpt>
<trkpt lat="33.8110137" lon="-118.3933089">
  <ele>-16.831</ele>
  <time>2026-09-02T22:09:05Z</time>
  <course>230.43</course>
  <speed>0.9730878685915265</speed>
  <fix>3d</fix>
</trkpt>
<trkpt lat="33.8110142" lon="-118.3933077">
  <ele>-16.48</ele>
  <time>2026-09-02T22:09:05Z</time>
  <course>229.09</course>
  <speed>0.99</speed>
  <fix>3d</fix>
</trkpt>
<trkpt lat="33.8110131" lon="-118.3933098">
  <ele>-16.808</ele>
  <time>2026-09-02T22:09:05Z</time>
  <course>230.46</course>
  <speed>0.9730878685915265</speed>
  <fix>3d</fix>
</trkpt>
<trkpt lat="33.8110142" lon="-118.3933077">
  <ele>-16.48</ele>
  <time>2026-09-02T22:09:05Z</time>
  <course>229.09</course>
  <speed>0.99</speed>
  <fix>3d</fix>
</trkpt>
<trkpt lat="33.8110125" lon="-118.3933106">
  <ele>-16.785</ele>
  <time>2026-09-02T22:09:05Z</time>
  <course>230.5</course>
  <speed>0.9730878685915265</speed>
  <fix>3d</fix>
</trkpt>
<trkpt lat="33.811013" lon="-118.3933094">
  <ele>-16.43</ele>
  <time>2026-09-02T22:09:05Z</time>
  <course>229.16</course>
  <speed>0.99</speed>
  <fix>3d</fix>
</trkpt>
<trkpt lat="33.8110119" lon="-118.3933114">
  <ele>-16.759</ele>
  <time>2026-09-02T22:09:05Z</time>
  <course>230.55</course>
  <speed>0.9667471230885561</speed>
  <fix>3d</fix>
</trkpt>
<trkpt lat="33.811013" lon="-118.3933094">
  <ele>-16.43</ele>
  <time>2026-09-02T22:09:05Z</time>
  <course>229.16</course>
  <speed>0.99</speed>
  <fix>3d</fix>
</trkpt>
<trkpt lat="33.8110113" lon="-118.3933122">
  <ele>-16.733</ele>
  <time>2026-09-02T22:09:05Z</time>
  <course>230.59</course>
  <speed>0.9730878685915265</speed>
  <fix>3d</fix>
</trkpt>
<trkpt lat="33.8110119" lon="-118.3933109">
  <ele>-16.38</ele>
  <time>2026-09-02T22:09:05Z</time>
  <course>229.23</course>
  <speed>0.99</speed>
  <fix>3d</fix>
</trkpt>
<trkpt lat="33.8110107" lon="-118.393313">
  <ele>-16.708</ele>
  <time>2026-09-02T22:09:05Z</time>
  <course>230.61</course>
  <speed>0.9730878685915265</speed>
  <fix>3d</fix>
</trkpt>
<trkpt lat="33.8110119" lon="-118.3933109">
  <ele>-16.38</ele>
  <time>2026-09-02T22:09:05Z</time>
  <course>229.23</course>
  <speed>0.99</speed>
  <fix>3d</fix>
</trkpt>
<trkpt lat="33.8110102" lon="-118.3933138">
  <ele>-16.683</ele>
  <time>2026-09-02T22:09:05Z</time>
  <course>230.64</course>
  <speed>0.9730878685915265</speed>
  <fix>3d</fix>
</trkpt>
<trkpt lat="33.8110108" lon="-118.3933126">
  <ele>-16.33</ele>
  <time>2026-09-02T22:09:05Z</time>
  <course>229.28</course>
  <speed>0.99</speed>
  <fix>3d</fix>
</trkpt>
<trkpt lat="33.8110096" lon="-118.3933146">
  <ele>-16.659</ele>
  <time>2026-09-02T22:09:05Z</time>
  <course>230.65</course>
  <speed>0.9730878685915265</speed>
  <fix>3d</fix>
</trkpt>
<trkpt lat="33.8110108" lon="-118.3933126">
  <ele>-16.33</ele>
  <time>2026-09-02T22:09:05Z</time>
  <course>229.28</course>
  <speed>0.99</speed>
  <fix>3d</fix>
</trkpt>
<trkpt lat="33.811009" lon="-118.3933155">
  <ele>-16.634</ele>
  <time>2026-09-02T22:09:05Z</time>
  <course>230.64</course>
  <speed>0.9730878685915265</speed>
  <fix>3d</fix>
</trkpt>
<trkpt lat="33.8110096" lon="-118.3933142">
  <ele>-16.28</ele>
  <time>2026-09-02T22:09:05Z</time>
  <course>229.28</course>
  <speed>1.0</speed>
  <fix>3d</fix>
</trkpt>
<trkpt lat="33.8110084" lon="-118.3933163">
  <ele>-16.609</ele>
  <time>2026-09-02T22:09:05Z</time>
  <course>230.62</course>
  <speed>0.9730878685915265</speed>
  <fix>3d</fix>
</trkpt>
<trkpt lat="33.8110096" lon="-118.3933142">
  <ele>-16.28</ele>
  <time>2026-09-02T22:09:05Z</time>
  <course>229.28</course>
  <speed>1.0</speed>
  <fix>3d</fix>
</trkpt>
<trkpt lat="33.8110078" lon="-118.3933171">
  <ele>-16.583</ele>
  <time>2026-09-02T22:09:05Z</time>
  <course>230.6</course>
  <speed>0.9730878685915265</speed>
  <fix>3d</fix>
</trkpt>
<trkpt lat="33.8110084" lon="-118.3933159">
  <ele>-16.23</ele>
  <time>2026-09-02T22:09:05Z</time>
  <course>229.24</course>
  <speed>1.0</speed>
  <fix>3d</fix>
</trkpt>
<trkpt lat="33.8110072" lon="-118.3933179">
  <ele>-16.558</ele>
  <time>2026-09-02T22:09:05Z</time>
  <course>230.58</course>
  <speed>0.9730878685915265</speed>
  <fix>3d</fix>
</trkpt>
<trkpt lat="33.8110084" lon="-118.3933159">
  <ele>-16.23</ele>
  <time>2026-09-02T22:09:05Z</time>
  <course>229.24</course>
  <speed>1.0</speed>
  <fix>3d</fix>
</trkpt>
<trkpt lat="33.8110066" lon="-118.3933187">
  <ele>-16.532</ele>
  <time>2026-09-02T22:09:05Z</time>
  <course>230.56</course>
  <speed>0.9730878685915265</speed>
  <fix>3d</fix>
</trkpt>
<trkpt lat="33.8110073" lon="-118.3933176">
  <ele>-16.18</ele>
  <time>2026-09-02T22:09:05Z</time>
  <course>229.2</course>
  <speed>1.0</speed>
  <fix>3d</fix>
</trkpt>
<trkpt lat="33.8110061" lon="-118.3933195">
  <ele>-16.507</ele>
  <time>2026-09-02T22:09:05Z</time>
  <course>230.53</course>
  <speed>0.9730878685915265</speed>
  <fix>3d</fix>
</trkpt>
<trkpt lat="33.8110073" lon="-118.3933176">
  <ele>-16.18</ele>
  <time>2026-09-02T22:09:05Z</time>
  <course>229.2</course>
  <speed>1.0</speed>
  <fix>3d</fix>
</trkpt>
<trkpt lat="33.8110055" lon="-118.3933204">
  <ele>-16.481</ele>
  <time>2026-09-02T22:09:05Z</time>
  <course>230.48</course>
  <speed>0.9730878685915265</speed>
  <fix>3d</fix>
</trkpt>
<trkpt lat="33.8110061" lon="-118.3933192">
  <ele>-16.14</ele>
  <time>2026-09-02T22:09:05Z</time>
  <course>229.14</course>
  <speed>1.0</speed>
  <fix>3d</fix>
</trkpt>
<trkpt lat="33.8110049" lon="-118.3933212">
  <ele>-16.457</ele>
  <time>2026-09-02T22:09:05Z</time>
  <course>230.42</course>
  <speed>0.9730878685915265</speed>
  <fix>3d</fix>
</trkpt>
<trkpt lat="33.8110061" lon="-118.3933192">
  <ele>-16.14</ele>
  <time>2026-09-02T22:09:05Z</time>
  <course>229.14</course>
  <speed>1.0</speed>
  <fix>3d</fix>
</trkpt>
<trkpt lat="33.8110043" lon="-118.393322">
  <ele>-16.433</ele>
  <time>2026-09-02T22:09:05Z</time>
  <course>230.36</course>
  <speed>0.9730878685915265</speed>
  <fix>3d</fix>
</trkpt>
<trkpt lat="33.8110049" lon="-118.3933209">
  <ele>-16.09</ele>
  <time>2026-09-02T22:09:05Z</time>
  <course>229.06</course>
  <speed>1.0</speed>
  <fix>3d</fix>
</trkpt>
<trkpt lat="33.8110037" lon="-118.3933228">
  <ele>-16.41</ele>
  <time>2026-09-02T22:09:05Z</time>
  <course>230.31</course>
  <speed>0.9730878685915265</speed>
  <fix>3d</fix>
</trkpt>
<trkpt lat="33.8110049" lon="-118.3933209">
  <ele>-16.09</ele>
  <time>2026-09-02T22:09:05Z</time>
  <course>229.06</course>
  <speed>1.0</speed>
  <fix>3d</fix>
</trkpt>
<trkpt lat="33.8110031" lon="-118.3933236">
  <ele>-16.386</ele>
  <time>2026-09-02T22:09:05Z</time>
  <course>230.26</course>
  <speed>0.9730878685915265</speed>
  <fix>3d</fix>
</trkpt>
<trkpt lat="33.8110037" lon="-118.3933225">
  <ele>-16.04</ele>
  <time>2026-09-02T22:09:05Z</time>
  <course>228.98</course>
  <speed>1.0</speed>
  <fix>3d</fix>
</trkpt>
<trkpt lat="33.8110025" lon="-118.3933245">
  <ele>-16.363</ele>
  <time>2026-09-02T22:09:05Z</time>
  <course>230.23</course>
  <speed>0.9730878685915265</speed>
  <fix>3d</fix>
</trkpt>
<trkpt lat="33.8110037" lon="-118.3933225">
  <ele>-16.04</ele>
  <time>2026-09-02T22:09:05Z</time>
  <course>228.98</course>
  <speed>1.0</speed>
  <fix>3d</fix>
</trkpt>
<trkpt lat="33.811002" lon="-118.3933253">
  <ele>-16.339</ele>
  <time>2026-09-02T22:09:05Z</time>
  <course>230.2</course>
  <speed>0.9730878685915265</speed>
  <fix>3d</fix>
</trkpt>
<trkpt lat="33.8110025" lon="-118.3933241">
  <ele>-16.0</ele>
  <time>2026-09-02T22:09:05Z</time>
  <course>228.93</course>
  <speed>1.0</speed>
  <fix>3d</fix>
</trkpt>
<trkpt lat="33.8110014" lon="-118.3933261">
  <ele>-16.315</ele>
  <time>2026-09-02T22:09:05Z</time>
  <course>230.19</course>
  <speed>0.9730878685915265</speed>
  <fix>3d</fix>
</trkpt>
<trkpt lat="33.8110025" lon="-118.3933241">
  <ele>-16.0</ele>
  <time>2026-09-02T22:09:05Z</time>
  <course>228.93</course>
  <speed>1.0</speed>
  <fix>3d</fix>
</trkpt>
<trkpt lat="33.8110008" lon="-118.3933269">
  <ele>-16.293</ele>
  <time>2026-09-02T22:09:05Z</time>
  <course>230.19</course>
  <speed>0.9730878685915265</speed>
  <fix>3d</fix>
</trkpt>
<trkpt lat="33.8110013" lon="-118.3933257">
  <ele>-15.95</ele>
  <time>2026-09-02T22:09:05Z</time>
  <course>228.94</course>
  <speed>1.0</speed>
  <fix>3d</fix>
</trkpt>
<trkpt lat="33.8110002" lon="-118.3933277">
  <ele>-16.27</ele>
  <time>2026-09-02T22:09:05Z</time>
  <course>230.2</course>
  <speed>0.9730878685915265</speed>
  <fix>3d</fix>
</trkpt>
<trkpt lat="33.8110013" lon="-118.3933257">
  <ele>-15.95</ele>
  <time>2026-09-02T22:09:05Z</time>
  <course>228.94</course>
  <speed>1.0</speed>
  <fix>3d</fix>
</trkpt>
<trkpt lat="33.8109996" lon="-118.3933285">
  <ele>-16.247</ele>
  <time>2026-09-02T22:09:05Z</time>
  <course>230.24</course>
  <speed>0.9730878685915265</speed>
  <fix>3d</fix>
</trkpt>
<trkpt lat="33.8110001" lon="-118.3933274">
  <ele>-15.91</ele>
  <time>2026-09-02T22:09:05Z</time>
  <course>229.0</course>
  <speed>1.0</speed>
  <fix>3d</fix>
</trkpt>
<trkpt lat="33.810999" lon="-118.3933294">
  <ele>-16.223</ele>
  <time>2026-09-02T22:09:05Z</time>
  <course>230.27</course>
  <speed>0.9730878685915265</speed>
  <fix>3d</fix>
</trkpt>
<trkpt lat="33.8110001" lon="-118.3933274">
  <ele>-15.91</ele>
  <time>2026-09-02T22:09:05Z</time>
  <course>229.0</course>
  <speed>1.0</speed>
  <fix>3d</fix>
</trkpt>
<trkpt lat="33.8109984" lon="-118.3933302">
  <ele>-16.198</ele>
  <time>2026-09-02T22:09:05Z</time>
  <course>230.31</course>
  <speed>0.9730878685915265</speed>
  <fix>3d</fix>
</trkpt>
<trkpt lat="33.8109989" lon="-118.3933291">
  <ele>-15.86</ele>
  <time>2026-09-02T22:09:05Z</time>
  <course>229.07</course>
  <speed>1.0</speed>
  <fix>3d</fix>
</trkpt>
<trkpt lat="33.8109978" lon="-118.393331">
  <ele>-16.171</ele>
  <time>2026-09-02T22:09:05Z</time>
  <course>230.33</course>
  <speed>0.9730878685915265</speed>
  <fix>3d</fix>
</trkpt>
<trkpt lat="33.8109989" lon="-118.3933291">
  <ele>-15.86</ele>
  <time>2026-09-02T22:09:05Z</time>
  <course>229.07</course>
  <speed>1.0</speed>
  <fix>3d</fix>
</trkpt>
<trkpt lat="33.8109972" lon="-118.3933318">
  <ele>-16.144</ele>
  <time>2026-09-02T22:09:05Z</time>
  <course>230.36</course>
  <speed>0.9730878685915265</speed>
  <fix>3d</fix>
</trkpt>
<trkpt lat="33.8109977" lon="-118.3933307">
  <ele>-15.8</ele>
  <time>2026-09-02T22:09:05Z</time>
  <course>229.09</course>
  <speed>1.0</speed>
  <fix>3d</fix>
</trkpt>
<trkpt lat="33.8109966" lon="-118.3933326">
  <ele>-16.117</ele>
  <time>2026-09-02T22:09:05Z</time>
  <course>230.37</course>
  <speed>0.9730878685915265</speed>
  <fix>3d</fix>
</trkpt>
<trkpt lat="33.8109977" lon="-118.3933307">
  <ele>-15.8</ele>
  <time>2026-09-02T22:09:05Z</time>
  <course>229.09</course>
  <speed>1.0</speed>
  <fix>3d</fix>
</trkpt>
<trkpt lat="33.810996" lon="-118.3933335">
  <ele>-16.091</ele>
  <time>2026-09-02T22:09:05Z</time>
  <course>230.4</course>
  <speed>0.9730878685915265</speed>
  <fix>3d</fix>
</trkpt>
<trkpt lat="33.8109965" lon="-118.3933324">
  <ele>-15.75</ele>
  <time>2026-09-02T22:09:05Z</time>
  <course>229.11</course>
  <speed>1.0</speed>
  <fix>3d</fix>
</trkpt>
<trkpt lat="33.8109954" lon="-118.3933343">
  <ele>-16.067</ele>
  <time>2026-09-02T22:09:05Z</time>
  <course>230.43</course>
  <speed>0.9730878685915265</speed>
  <fix>3d</fix>
</trkpt>
<trkpt lat="33.8109965" lon="-118.3933324">
  <ele>-15.75</ele>
  <time>2026-09-02T22:09:05Z</time>
  <course>229.11</course>
  <speed>1.0</speed>
  <fix>3d</fix>
</trkpt>
<trkpt lat="33.8109948" lon="-118.3933351">
  <ele>-16.043</ele>
  <time>2026-09-02T22:09:05Z</time>
  <course>230.45</course>
  <speed>0.9730878685915265</speed>
  <fix>3d</fix>
</trkpt>
<trkpt lat="33.8109953" lon="-118.393334">
  <ele>-15.7</ele>
  <time>2026-09-02T22:09:05Z</time>
  <course>229.14</course>
  <speed>1.0</speed>
  <fix>3d</fix>
</trkpt>
<trkpt lat="33.8109943" lon="-118.3933359">
  <ele>-16.019</ele>
  <time>2026-09-02T22:09:05Z</time>
  <course>230.47</course>
  <speed>0.9730878685915265</speed>
  <fix>3d</fix>
</trkpt>
<trkpt lat="33.8109953" lon="-118.393334">
  <ele>-15.7</ele>
  <time>2026-09-02T22:09:05Z</time>
  <course>229.14</course>
  <speed>1.0</speed>
  <fix>3d</fix>
</trkpt>
<trkpt lat="33.8109937" lon="-118.3933367">
  <ele>-15.995</ele>
  <time>2026-09-02T22:09:05Z</time>
  <course>230.49</course>
  <speed>0.9730878685915265</speed>
  <fix>3d</fix>
</trkpt>
<trkpt lat="33.8109941" lon="-118.3933357">
  <ele>-15.65</ele>
  <time>2026-09-02T22:09:05Z</time>
  <course>229.17</course>
  <speed>1.0</speed>
  <fix>3d</fix>
</trkpt>
<trkpt lat="33.8109931" lon="-118.3933376">
  <ele>-15.97</ele>
  <time>2026-09-02T22:09:05Z</time>
  <course>230.51</course>
  <speed>0.9667471230885561</speed>
  <fix>3d</fix>
</trkpt>
<trkpt lat="33.8109941" lon="-118.3933357">
  <ele>-15.65</ele>
  <time>2026-09-02T22:09:05Z</time>
  <course>229.17</course>
  <speed>1.0</speed>
  <fix>3d</fix>
</trkpt>
<trkpt lat="33.8109925" lon="-118.3933384">
  <ele>-15.945</ele>
  <time>2026-09-02T22:09:05Z</time>
  <course>230.54</course>
  <speed>0.9667471230885561</speed>
  <fix>3d</fix>
</trkpt>
<trkpt lat="33.810993" lon="-118.3933372">
  <ele>-15.6</ele>
  <time>2026-09-02T22:09:05Z</time>
  <course>229.21</course>
  <speed>1.0</speed>
  <fix>3d</fix>
</trkpt>
<trkpt lat="33.8109919" lon="-118.3933392">
  <ele>-15.92</ele>
  <time>2026-09-02T22:09:05Z</time>
  <course>230.56</course>
  <speed>0.9667471230885561</speed>
  <fix>3d</fix>
</trkpt>
<trkpt lat="33.810993" lon="-118.3933372">
  <ele>-15.6</ele>
  <time>2026-09-02T22:09:05Z</time>
  <course>229.21</course>
  <speed>1.0</speed>
  <fix>3d</fix>
</trkpt>
<trkpt lat="33.8109913" lon="-118.39334">
  <ele>-15.895</ele>
  <time>2026-09-02T22:09:05Z</time>
  <course>230.58</course>
  <speed>0.9730878685915265</speed>
  <fix>3d</fix>
</trkpt>
<trkpt lat="33.8109919" lon="-118.3933389">
  <ele>-15.55</ele>
  <time>2026-09-02T22:09:05Z</time>
  <course>229.25</course>
  <speed>0.99</speed>
  <fix>3d</fix>
</trkpt>
<trkpt lat="33.8109907" lon="-118.3933408">
  <ele>-15.87</ele>
  <time>2026-09-02T22:09:05Z</time>
  <course>230.58</course>
  <speed>0.9730878685915265</speed>
  <fix>3d</fix>
</trkpt>
<trkpt lat="33.8109919" lon="-118.3933389">
  <ele>-15.55</ele>
  <time>2026-09-02T22:09:05Z</time>
  <course>229.25</course>
  <speed>0.99</speed>
  <fix>3d</fix>
</trkpt>
<trkpt lat="33.8109901" lon="-118.3933416">
  <ele>-15.844</ele>
  <time>2026-09-02T22:09:05Z</time>
  <course>230.56</course>
  <speed>0.9730878685915265</speed>
  <fix>3d</fix>
</trkpt>
<trkpt lat="33.8109907" lon="-118.3933405">
  <ele>-15.5</ele>
  <time>2026-09-02T22:09:05Z</time>
  <course>229.22</course>
  <speed>0.99</speed>
  <fix>3d</fix>
</trkpt>
<trkpt lat="33.8109896" lon="-118.3933425">
  <ele>-15.818</ele>
  <time>2026-09-02T22:09:05Z</time>
  <course>230.53</course>
  <speed>0.9730878685915265</speed>
  <fix>3d</fix>
</trkpt>
<trkpt lat="33.8109907" lon="-118.3933405">
  <ele>-15.5</ele>
  <time>2026-09-02T22:09:05Z</time>
  <course>229.22</course>
  <speed>0.99</speed>
  <fix>3d</fix>
</trkpt>
<trkpt lat="33.810989" lon="-118.3933433">
  <ele>-15.791</ele>
  <time>2026-09-02T22:09:05Z</time>
  <course>230.5</course>
  <speed>0.9730878685915265</speed>
  <fix>3d</fix>
</trkpt>
<trkpt lat="33.8109895" lon="-118.3933422">
  <ele>-15.45</ele>
  <time>2026-09-02T22:09:05Z</time>
  <course>229.16</course>
  <speed>1.0</speed>
  <fix>3d</fix>
</trkpt>
<trkpt lat="33.8109884" lon="-118.3933441">
  <ele>-15.767</ele>
  <time>2026-09-02T22:09:05Z</time>
  <course>230.48</course>
  <speed>0.9730878685915265</speed>
  <fix>3d</fix>
</trkpt>
<trkpt lat="33.8109895" lon="-118.3933422">
  <ele>-15.45</ele>
  <time>2026-09-02T22:09:05Z</time>
  <course>229.16</course>
  <speed>1.0</speed>
  <fix>3d</fix>
</trkpt>
<trkpt lat="33.8109878" lon="-118.3933449">
  <ele>-15.742</ele>
  <time>2026-09-02T22:09:05Z</time>
  <course>230.45</course>
  <speed>0.9730878685915265</speed>
  <fix>3d</fix>
</trkpt>
<trkpt lat="33.8109883" lon="-118.3933438">
  <ele>-15.41</ele>
  <time>2026-09-02T22:09:05Z</time>
  <course>229.11</course>
  <speed>1.0</speed>
  <fix>3d</fix>
</trkpt>
<trkpt lat="33.8109872" lon="-118.3933457">
  <ele>-15.719</ele>
  <time>2026-09-02T22:09:05Z</time>
  <course>230.43</course>
  <speed>0.9730878685915265</speed>
  <fix>3d</fix>
</trkpt>
<trkpt lat="33.8109883" lon="-118.3933438">
  <ele>-15.41</ele>
  <time>2026-09-02T22:09:05Z</time>
  <course>229.11</course>
  <speed>1.0</speed>
  <fix>3d</fix>
</trkpt>
<trkpt lat="33.8109866" lon="-118.3933466">
  <ele>-15.694</ele>
  <time>2026-09-02T22:09:05Z</time>
  <course>230.41</course>
  <speed>0.9730878685915265</speed>
  <fix>3d</fix>
</trkpt>
<trkpt lat="33.8109872" lon="-118.3933455">
  <ele>-15.36</ele>
  <time>2026-09-02T22:09:05Z</time>
  <course>229.09</course>
  <speed>1.0</speed>
  <fix>3d</fix>
</trkpt>
<trkpt lat="33.810986" lon="-118.3933474">
  <ele>-15.67</ele>
  <time>2026-09-02T22:09:05Z</time>
  <course>230.4</course>
  <speed>0.9730878685915265</speed>
  <fix>3d</fix>
</trkpt>
<trkpt lat="33.8109872" lon="-118.3933455">
  <ele>-15.36</ele>
  <time>2026-09-02T22:09:05Z</time>
  <course>229.09</course>
  <speed>1.0</speed>
  <fix>3d</fix>
</trkpt>
<trkpt lat="33.8109854" lon="-118.3933482">
  <ele>-15.645</ele>
  <time>2026-09-02T22:09:05Z</time>
  <course>230.37</course>
  <speed>0.9730878685915265</speed>
  <fix>3d</fix>
</trkpt>
<trkpt lat="33.810986" lon="-118.3933471">
  <ele>-15.32</ele>
  <time>2026-09-02T22:09:05Z</time>
  <course>229.05</course>
  <speed>1.0</speed>
  <fix>3d</fix>
</trkpt>
<trkpt lat="33.8109848" lon="-118.393349">
  <ele>-15.622</ele>
  <time>2026-09-02T22:09:05Z</time>
  <course>230.33</course>
  <speed>0.9730878685915265</speed>
  <fix>3d</fix>
</trkpt>
<trkpt lat="33.810986" lon="-118.3933471">
  <ele>-15.32</ele>
  <time>2026-09-02T22:09:05Z</time>
  <course>229.05</course>
  <speed>1.0</speed>
  <fix>3d</fix>
</trkpt>
<trkpt lat="33.8109843" lon="-118.3933498">
  <ele>-15.598</ele>
  <time>2026-09-02T22:09:05Z</time>
  <course>230.3</course>
  <speed>0.9730878685915265</speed>
  <fix>3d</fix>
</trkpt>
<trkpt lat="33.8109848" lon="-118.3933487">
  <ele>-15.27</ele>
  <time>2026-09-02T22:09:05Z</time>
  <course>228.97</course>
  <speed>1.0</speed>
  <fix>3d</fix>
</trkpt>
<trkpt lat="33.8109837" lon="-118.3933506">
  <ele>-15.573</ele>
  <time>2026-09-02T22:09:05Z</time>
  <course>230.28</course>
  <speed>0.9730878685915265</speed>
  <fix>3d</fix>
</trkpt>
<trkpt lat="33.8109848" lon="-118.3933487">
  <ele>-15.27</ele>
  <time>2026-09-02T22:09:05Z</time>
  <course>228.97</course>
  <speed>1.0</speed>
  <fix>3d</fix>
</trkpt>
<trkpt lat="33.8109831" lon="-118.3933515">
  <ele>-15.548</ele>
  <time>2026-09-02T22:09:05Z</time>
  <course>230.27</course>
  <speed>0.9730878685915265</speed>
  <fix>3d</fix>
</trkpt>
<trkpt lat="33.8109836" lon="-118.3933504">
  <ele>-15.22</ele>
  <time>2026-09-02T22:09:05Z</time>
  <course>228.95</course>
  <speed>1.0</speed>
  <fix>3d</fix>
</trkpt>
<trkpt lat="33.8109825" lon="-118.3933523">
  <ele>-15.524</ele>
  <time>2026-09-02T22:09:05Z</time>
  <course>230.26</course>
  <speed>0.9730878685915265</speed>
  <fix>3d</fix>
</trkpt>
<trkpt lat="33.8109836" lon="-118.3933504">
  <ele>-15.22</ele>
  <time>2026-09-02T22:09:05Z</time>
  <course>228.95</course>
  <speed>1.0</speed>
  <fix>3d</fix>
</trkpt>
<trkpt lat="33.8109819" lon="-118.3933531">
  <ele>-15.501</ele>
  <time>2026-09-02T22:09:05Z</time>
  <course>230.27</course>
  <speed>0.9730878685915265</speed>
  <fix>3d</fix>
</trkpt>
<trkpt lat="33.8109824" lon="-118.393352">
  <ele>-15.18</ele>
  <time>2026-09-02T22:09:05Z</time>
  <course>228.97</course>
  <speed>1.0</speed>
  <fix>3d</fix>
</trkpt>
<trkpt lat="33.8109813" lon="-118.3933539">
  <ele>-15.477</ele>
  <time>2026-09-02T22:09:05Z</time>
  <course>230.27</course>
  <speed>0.9730878685915265</speed>
  <fix>3d</fix>
</trkpt>
<trkpt lat="33.8109824" lon="-118.393352">
  <ele>-15.18</ele>
  <time>2026-09-02T22:09:05Z</time>
  <course>228.97</course>
  <speed>1.0</speed>
  <fix>3d</fix>
</trkpt>
<trkpt lat="33.8109807" lon="-118.3933547">
  <ele>-15.453</ele>
  <time>2026-09-02T22:09:05Z</time>
  <course>230.29</course>
  <speed>0.9730878685915265</speed>
  <fix>3d</fix>
</trkpt>
<trkpt lat="33.8109813" lon="-118.3933536">
  <ele>-15.13</ele>
  <time>2026-09-02T22:09:05Z</time>
  <course>229.0</course>
  <speed>1.0</speed>
  <fix>3d</fix>
</trkpt>
<trkpt lat="33.8109801" lon="-118.3933556">
  <ele>-15.428</ele>
  <time>2026-09-02T22:09:05Z</time>
  <course>230.31</course>
  <speed>0.9730878685915265</speed>
  <fix>3d</fix>
</trkpt>
<trkpt lat="33.8109813" lon="-118.3933536">
  <ele>-15.13</ele>
  <time>2026-09-02T22:09:05Z</time>
  <course>229.0</course>
  <speed>1.0</speed>
  <fix>3d</fix>
</trkpt>
<trkpt lat="33.8109795" lon="-118.3933564">
  <ele>-15.403</ele>
  <time>2026-09-02T22:09:05Z</time>
  <course>230.32</course>
  <speed>0.9730878685915265</speed>
  <fix>3d</fix>
</trkpt>
<trkpt lat="33.8109801" lon="-118.3933553">
  <ele>-15.08</ele>
  <time>2026-09-02T22:09:05Z</time>
  <course>229.02</course>
  <speed>0.99</speed>
  <fix>3d</fix>
</trkpt>
<trkpt lat="33.810979" lon="-118.3933572">
  <ele>-15.379</ele>
  <time>2026-09-02T22:09:05Z</time>
  <course>230.32</course>
  <speed>0.9730878685915265</speed>
  <fix>3d</fix>
</trkpt>
<trkpt lat="33.8109801" lon="-118.3933553">
  <ele>-15.08</ele>
  <time>2026-09-02T22:09:05Z</time>
  <course>229.02</course>
  <speed>0.99</speed>
  <fix>3d</fix>
</trkpt>
<trkpt lat="33.8109784" lon="-118.393358">
  <ele>-15.355</ele>
  <time>2026-09-02T22:09:05Z</time>
  <course>230.31</course>
  <speed>0.9730878685915265</speed>
  <fix>3d</fix>
</trkpt>
<trkpt lat="33.8109788" lon="-118.3933568">
  <ele>-15.04</ele>
  <time>2026-09-02T22:09:05Z</time>
  <course>229.0</course>
  <speed>0.99</speed>
  <fix>3d</fix>
</trkpt>
<trkpt lat="33.8109778" lon="-118.3933588">
  <ele>-15.332</ele>
  <time>2026-09-02T22:09:05Z</time>
  <course>230.3</course>
  <speed>0.9730878685915265</speed>
  <fix>3d</fix>
</trkpt>
<trkpt lat="33.8109788" lon="-118.3933568">
  <ele>-15.04</ele>
  <time>2026-09-02T22:09:05Z</time>
  <course>229.0</course>
  <speed>0.99</speed>
  <fix>3d</fix>
</trkpt>
<trkpt lat="33.8109772" lon="-118.3933596">
  <ele>-15.308</ele>
  <time>2026-09-02T22:09:05Z</time>
  <course>230.34</course>
  <speed>0.9730878685915265</speed>
  <fix>3d</fix>
</trkpt>
<trkpt lat="33.8109777" lon="-118.3933585">
  <ele>-14.99</ele>
  <time>2026-09-02T22:09:05Z</time>
  <course>229.04</course>
  <speed>0.99</speed>
  <fix>3d</fix>
</trkpt>
<trkpt lat="33.8109766" lon="-118.3933605">
  <ele>-15.283</ele>
  <time>2026-09-02T22:09:05Z</time>
  <course>230.39</course>
  <speed>0.9730878685915265</speed>
  <fix>3d</fix>
</trkpt>
<trkpt lat="33.8109777" lon="-118.3933585">
  <ele>-14.99</ele>
  <time>2026-09-02T22:09:05Z</time>
  <course>229.04</course>
  <speed>0.99</speed>
  <fix>3d</fix>
</trkpt>
<trkpt lat="33.810976" lon="-118.3933613">
  <ele>-15.259</ele>
  <time>2026-09-02T22:09:05Z</time>
  <course>230.45</course>
  <speed>0.9730878685915265</speed>
  <fix>3d</fix>
</trkpt>
<trkpt lat="33.8109765" lon="-118.3933602">
  <ele>-14.94</ele>
  <time>2026-09-02T22:09:05Z</time>
  <course>229.13</course>
  <speed>0.99</speed>
  <fix>3d</fix>
</trkpt>
<trkpt lat="33.8109754" lon="-118.3933621">
  <ele>-15.234</ele>
  <time>2026-09-02T22:09:05Z</time>
  <course>230.48</course>
  <speed>0.9730878685915265</speed>
  <fix>3d</fix>
</trkpt>
<trkpt lat="33.8109765" lon="-118.3933602">
  <ele>-14.94</ele>
  <time>2026-09-02T22:09:05Z</time>
  <course>229.13</course>
  <speed>0.99</speed>
  <fix>3d</fix>
</trkpt>
<trkpt lat="33.8109748" lon="-118.3933629">
  <ele>-15.209</ele>
  <time>2026-09-02T22:09:05Z</time>
  <course>230.5</course>
  <speed>0.9730878685915265</speed>
  <fix>3d</fix>
</trkpt>
<trkpt lat="33.8109753" lon="-118.3933618">
  <ele>-14.89</ele>
  <time>2026-09-02T22:09:05Z</time>
  <course>229.16</course>
  <speed>0.99</speed>
  <fix>3d</fix>
</trkpt>
<trkpt lat="33.8109742" lon="-118.3933637">
  <ele>-15.184</ele>
  <time>2026-09-02T22:09:05Z</time>
  <course>230.51</course>
  <speed>0.9730878685915265</speed>
  <fix>3d</fix>
</trkpt>
<trkpt lat="33.8109753" lon="-118.3933618">
  <ele>-14.89</ele>
  <time>2026-09-02T22:09:05Z</time>
  <course>229.16</course>
  <speed>0.99</speed>
  <fix>3d</fix>
</trkpt>
<trkpt lat="33.8109736" lon="-118.3933646">
  <ele>-15.159</ele>
  <time>2026-09-02T22:09:05Z</time>
  <course>230.52</course>
  <speed>0.9730878685915265</speed>
  <fix>3d</fix>
</trkpt>
<trkpt lat="33.8109741" lon="-118.3933634">
  <ele>-14.84</ele>
  <time>2026-09-02T22:09:05Z</time>
  <course>229.17</course>
  <speed>0.99</speed>
  <fix>3d</fix>
</trkpt>
<trkpt lat="33.810973" lon="-118.3933654">
  <ele>-15.134</ele>
  <time>2026-09-02T22:09:05Z</time>
  <course>230.54</course>
  <speed>0.9667471230885561</speed>
  <fix>3d</fix>
</trkpt>
<trkpt lat="33.8109741" lon="-118.3933634">
  <ele>-14.84</ele>
  <time>2026-09-02T22:09:05Z</time>
  <course>229.17</course>
  <speed>0.99</speed>
  <fix>3d</fix>
</trkpt>
<trkpt lat="33.8109725" lon="-118.3933662">
  <ele>-15.108</ele>
  <time>2026-09-02T22:09:05Z</time>
  <course>230.57</course>
  <speed>0.9667471230885561</speed>
  <fix>3d</fix>
</trkpt>
<trkpt lat="33.810973" lon="-118.393365">
  <ele>-14.79</ele>
  <time>2026-09-02T22:09:05Z</time>
  <course>229.2</course>
  <speed>0.99</speed>
  <fix>3d</fix>
</trkpt>
<trkpt lat="33.8109719" lon="-118.393367">
  <ele>-15.082</ele>
  <time>2026-09-02T22:09:05Z</time>
  <course>230.6</course>
  <speed>0.9667471230885561</speed>
  <fix>3d</fix>
</trkpt>
<trkpt lat="33.810973" lon="-118.393365">
  <ele>-14.79</ele>
  <time>2026-09-02T22:09:05Z</time>
  <course>229.2</course>
  <speed>0.99</speed>
  <fix>3d</fix>
</trkpt>
<trkpt lat="33.8109713" lon="-118.3933678">
  <ele>-15.058</ele>
  <time>2026-09-02T22:09:05Z</time>
  <course>230.62</course>
  <speed>0.9730878685915265</speed>
  <fix>3d</fix>
</trkpt>
<trkpt lat="33.8109719" lon="-118.3933667">
  <ele>-14.74</ele>
  <time>2026-09-02T22:09:05Z</time>
  <course>229.25</course>
  <speed>0.99</speed>
  <fix>3d</fix>
</trkpt>
<trkpt lat="33.8109707" lon="-118.3933686">
  <ele>-15.033</ele>
  <time>2026-09-02T22:09:05Z</time>
  <course>230.62</course>
  <speed>0.9730878685915265</speed>
  <fix>3d</fix>
</trkpt>
<trkpt lat="33.8109719" lon="-118.3933667">
  <ele>-14.74</ele>
  <time>2026-09-02T22:09:05Z</time>
  <course>229.25</course>
  <speed>0.99</speed>
  <fix>3d</fix>
</trkpt>
<trkpt lat="33.8109701" lon="-118.3933695">
  <ele>-15.008</ele>
  <time>2026-09-02T22:09:05Z</time>
  <course>230.6</course>
  <speed>0.9730878685915265</speed>
  <fix>3d</fix>
</trkpt>
<trkpt lat="33.8109707" lon="-118.3933683">
  <ele>-14.69</ele>
  <time>2026-09-02T22:09:05Z</time>
  <course>229.23</course>
  <speed>0.99</speed>
  <fix>3d</fix>
</trkpt>
<trkpt lat="33.8109695" lon="-118.3933703">
  <ele>-14.983</ele>
  <time>2026-09-02T22:09:05Z</time>
  <course>230.56</course>
  <speed>0.9730878685915265</speed>
  <fix>3d</fix>
</trkpt>
<trkpt lat="33.8109707" lon="-118.3933683">
  <ele>-14.69</ele>
  <time>2026-09-02T22:09:05Z</time>
  <course>229.23</course>
  <speed>0.99</speed>
  <fix>3d</fix>
</trkpt>
<trkpt lat="33.8109689" lon="-118.3933711">
  <ele>-14.959</ele>
  <time>2026-09-02T22:09:05Z</time>
  <course>230.52</course>
  <speed>0.9730878685915265</speed>
  <fix>3d</fix>
</trkpt>
<trkpt lat="33.8109695" lon="-118.39337">
  <ele>-14.65</ele>
  <time>2026-09-02T22:09:05Z</time>
  <course>229.16</course>
  <speed>0.99</speed>
  <fix>3d</fix>
</trkpt>
<trkpt lat="33.8109684" lon="-118.3933719">
  <ele>-14.936</ele>
  <time>2026-09-02T22:09:05Z</time>
  <course>230.48</course>
  <speed>0.9730878685915265</speed>
  <fix>3d</fix>
</trkpt>
<trkpt lat="33.8109695" lon="-118.39337">
  <ele>-14.65</ele>
  <time>2026-09-02T22:09:05Z</time>
  <course>229.16</course>
  <speed>0.99</speed>
  <fix>3d</fix>
</trkpt>
<trkpt lat="33.8109678" lon="-118.3933727">
  <ele>-14.912</ele>
  <time>2026-09-02T22:09:05Z</time>
  <course>230.44</course>
  <speed>0.9730878685915265</speed>
  <fix>3d</fix>
</trkpt>
<trkpt lat="33.8109684" lon="-118.3933716">
  <ele>-14.6</ele>
  <time>2026-09-02T22:09:05Z</time>
  <course>229.1</course>
  <speed>0.99</speed>
  <fix>3d</fix>
</trkpt>
<trkpt lat="33.8109672" lon="-118.3933735">
  <ele>-14.887</ele>
  <time>2026-09-02T22:09:05Z</time>
  <course>230.4</course>
  <speed>0.9730878685915265</speed>
  <fix>3d</fix>
</trkpt>
<trkpt lat="33.8109684" lon="-118.3933716">
  <ele>-14.6</ele>
  <time>2026-09-02T22:09:05Z</time>
  <course>229.1</course>
  <speed>0.99</speed>
  <fix>3d</fix>
</trkpt>
<trkpt lat="33.8109666" lon="-118.3933744">
  <ele>-14.861</ele>
  <time>2026-09-02T22:09:05Z</time>
  <course>230.35</course>
  <speed>0.9730878685915265</speed>
  <fix>3d</fix>
</trkpt>
<trkpt lat="33.8109672" lon="-118.3933732">
  <ele>-14.55</ele>
  <time>2026-09-02T22:09:05Z</time>
  <course>229.04</course>
  <speed>0.99</speed>
  <fix>3d</fix>
</trkpt>
<trkpt lat="33.810966" lon="-118.3933752">
  <ele>-14.835</ele>
  <time>2026-09-02T22:09:05Z</time>
  <course>230.31</course>
  <speed>0.9730878685915265</speed>
  <fix>3d</fix>
</trkpt>
<trkpt lat="33.8109672" lon="-118.3933732">
  <ele>-14.55</ele>
  <time>2026-09-02T22:09:05Z</time>
  <course>229.04</course>
  <speed>0.99</speed>
  <fix>3d</fix>
</trkpt>
<trkpt lat="33.8109654" lon="-118.393376">
  <ele>-14.81</ele>
  <time>2026-09-02T22:09:05Z</time>
  <course>230.27</course>
  <speed>0.9730878685915265</speed>
  <fix>3d</fix>
</trkpt>
<trkpt lat="33.810966" lon="-118.3933749">
  <ele>-14.5</ele>
  <time>2026-09-02T22:09:05Z</time>
  <course>228.97</course>
  <speed>0.99</speed>
  <fix>3d</fix>
</trkpt>
<trkpt lat="33.8109648" lon="-118.3933768">
  <ele>-14.786</ele>
  <time>2026-09-02T22:09:05Z</time>
  <course>230.23</course>
  <speed>0.9730878685915265</speed>
  <fix>3d</fix>
</trkpt>
<trkpt lat="33.810966" lon="-118.3933749">
  <ele>-14.5</ele>
  <time>2026-09-02T22:09:05Z</time>
  <course>228.97</course>
  <speed>0.99</speed>
  <fix>3d</fix>
</trkpt>
<trkpt lat="33.8109642" lon="-118.3933776">
  <ele>-14.762</ele>
  <time>2026-09-02T22:09:05Z</time>
  <course>230.22</course>
  <speed>0.9730878685915265</speed>
  <fix>3d</fix>
</trkpt>
<trkpt lat="33.8109648" lon="-118.3933764">
  <ele>-14.45</ele>
  <time>2026-09-02T22:09:05Z</time>
  <course>228.94</course>
  <speed>0.99</speed>
  <fix>3d</fix>
</trkpt>
<trkpt lat="33.8109637" lon="-118.3933784">
  <ele>-14.739</ele>
  <time>2026-09-02T22:09:05Z</time>
  <course>230.21</course>
  <speed>0.9730878685915265</speed>
  <fix>3d</fix>
</trkpt>
<trkpt lat="33.8109648" lon="-118.3933764">
  <ele>-14.45</ele>
  <time>2026-09-02T22:09:05Z</time>
  <course>228.94</course>
  <speed>0.99</speed>
  <fix>3d</fix>
</trkpt>
<trkpt lat="33.8109631" lon="-118.3933793">
  <ele>-14.714</ele>
  <time>2026-09-02T22:09:05Z</time>
  <course>230.22</course>
  <speed>0.9730878685915265</speed>
  <fix>3d</fix>
</trkpt>
<trkpt lat="33.8109637" lon="-118.3933781">
  <ele>-14.41</ele>
  <time>2026-09-02T22:09:05Z</time>
  <course>228.96</course>
  <speed>0.99</speed>
  <fix>3d</fix>
</trkpt>
<trkpt lat="33.8109625" lon="-118.3933801">
  <ele>-14.689</ele>
  <time>2026-09-02T22:09:05Z</time>
  <course>230.24</course>
  <speed>0.9730878685915265</speed>
  <fix>3d</fix>
</trkpt>
<trkpt lat="33.8109637" lon="-118.3933781">
  <ele>-14.41</ele>
  <time>2026-09-02T22:09:05Z</time>
  <course>228.96</course>
  <speed>0.99</speed>
  <fix>3d</fix>
</trkpt>
<trkpt lat="33.8109619" lon="-118.3933809">
  <ele>-14.665</ele>
  <time>2026-09-02T22:09:05Z</time>
  <course>230.25</course>
  <speed>0.9730878685915265</speed>
  <fix>3d</fix>
</trkpt>
<trkpt lat="33.8109624" lon="-118.3933798">
  <ele>-14.36</ele>
  <time>2026-09-02T22:09:05Z</time>
  <course>228.97</course>
  <speed>1.0</speed>
  <fix>3d</fix>
</trkpt>
<trkpt lat="33.8109613" lon="-118.3933817">
  <ele>-14.641</ele>
  <time>2026-09-02T22:09:05Z</time>
  <course>230.25</course>
  <speed>0.9730878685915265</speed>
  <fix>3d</fix>
</trkpt>
<trkpt lat="33.8109624" lon="-118.3933798">
  <ele>-14.36</ele>
  <time>2026-09-02T22:09:05Z</time>
  <course>228.97</course>
  <speed>1.0</speed>
  <fix>3d</fix>
</trkpt>
<trkpt lat="33.8109607" lon="-118.3933825">
  <ele>-14.617</ele>
  <time>2026-09-02T22:09:05Z</time>
  <course>230.26</course>
  <speed>0.9730878685915265</speed>
  <fix>3d</fix>
</trkpt>
<trkpt lat="33.8109612" lon="-118.3933814">
  <ele>-14.31</ele>
  <time>2026-09-02T22:09:05Z</time>
  <course>228.98</course>
  <speed>1.0</speed>
  <fix>3d</fix>
</trkpt>
<trkpt lat="33.8109601" lon="-118.3933834">
  <ele>-14.593</ele>
  <time>2026-09-02T22:09:05Z</time>
  <course>230.28</course>
  <speed>0.9730878685915265</speed>
  <fix>3d</fix>
</trkpt>
<trkpt lat="33.8109612" lon="-118.3933814">
  <ele>-14.31</ele>
  <time>2026-09-02T22:09:05Z</time>
  <course>228.98</course>
  <speed>1.0</speed>
  <fix>3d</fix>
</trkpt>
<trkpt lat="33.8109595" lon="-118.3933842">
  <ele>-14.569</ele>
  <time>2026-09-02T22:09:05Z</time>
  <course>230.31</course>
  <speed>0.9730878685915265</speed>
  <fix>3d</fix>
</trkpt>
<trkpt lat="33.81096" lon="-118.393383">
  <ele>-14.26</ele>
  <time>2026-09-02T22:09:05Z</time>
  <course>229.03</course>
  <speed>0.99</speed>
  <fix>3d</fix>
</trkpt>
<trkpt lat="33.8109589" lon="-118.393385">
  <ele>-14.545</ele>
  <time>2026-09-02T22:09:05Z</time>
  <course>230.35</course>
  <speed>0.9730878685915265</speed>
  <fix>3d</fix>
</trkpt>
<trkpt lat="33.81096" lon="-118.393383">
  <ele>-14.26</ele>
  <time>2026-09-02T22:09:05Z</time>
  <course>229.03</course>
  <speed>0.99</speed>
  <fix>3d</fix>
</trkpt>
<trkpt lat="33.8109583" lon="-118.3933858">
  <ele>-14.521</ele>
  <time>2026-09-02T22:09:05Z</time>
  <course>230.4</course>
  <speed>0.9730878685915265</speed>
  <fix>3d</fix>
</trkpt>
<trkpt lat="33.8109589" lon="-118.3933846">
  <ele>-14.21</ele>
  <time>2026-09-02T22:09:05Z</time>
  <course>229.1</course>
  <speed>0.99</speed>
  <fix>3d</fix>
</trkpt>
<trkpt lat="33.8109578" lon="-118.3933866">
  <ele>-14.498</ele>
  <time>2026-09-02T22:09:06Z</time>
  <course>230.44</course>
  <speed>0.9730878685915265</speed>
  <fix>3d</fix>
</trkpt>
<trkpt lat="33.8109589" lon="-118.3933846">
  <ele>-14.21</ele>
  <time>2026-09-02T22:09:06Z</time>
  <course>229.1</course>
  <speed>0.99</speed>
  <fix>3d</fix>
</trkpt>
<trkpt lat="33.8109572" lon="-118.3933874">
  <ele>-14.473</ele>
  <time>2026-09-02T22:09:06Z</time>
  <course>230.48</course>
  <speed>0.9730878685915265</speed>
  <fix>3d</fix>
</trkpt>
<trkpt lat="33.8109578" lon="-118.3933863">
  <ele>-14.16</ele>
  <time>2026-09-02T22:09:06Z</time>
  <course>229.17</course>
  <speed>0.99</speed>
  <fix>3d</fix>
</trkpt>
<trkpt lat="33.8109566" lon="-118.3933883">
  <ele>-14.446</ele>
  <time>2026-09-02T22:09:06Z</time>
  <course>230.49</course>
  <speed>0.9730878685915265</speed>
  <fix>3d</fix>
</trkpt>
<trkpt lat="33.8109578" lon="-118.3933863">
  <ele>-14.16</ele>
  <time>2026-09-02T22:09:06Z</time>
  <course>229.17</course>
  <speed>0.99</speed>
  <fix>3d</fix>
</trkpt>
<trkpt lat="33.810956" lon="-118.3933891">
  <ele>-14.419</ele>
  <time>2026-09-02T22:09:06Z</time>
  <course>230.48</course>
  <speed>0.9730878685915265</speed>
  <fix>3d</fix>
</trkpt>
<trkpt lat="33.8109566" lon="-118.3933879">
  <ele>-14.11</ele>
  <time>2026-09-02T22:09:06Z</time>
  <course>229.17</course>
  <speed>0.99</speed>
  <fix>3d</fix>
</trkpt>
<trkpt lat="33.8109554" lon="-118.3933899">
  <ele>-14.393</ele>
  <time>2026-09-02T22:09:06Z</time>
  <course>230.45</course>
  <speed>0.9730878685915265</speed>
  <fix>3d</fix>
</trkpt>
<trkpt lat="33.8109566" lon="-118.3933879">
  <ele>-14.11</ele>
  <time>2026-09-02T22:09:06Z</time>
  <course>229.17</course>
  <speed>0.99</speed>
  <fix>3d</fix>
</trkpt>
<trkpt lat="33.8109548" lon="-118.3933907">
  <ele>-14.367</ele>
  <time>2026-09-02T22:09:06Z</time>
  <course>230.42</course>
  <speed>0.9730878685915265</speed>
  <fix>3d</fix>
</trkpt>
<trkpt lat="33.8109554" lon="-118.3933895">
  <ele>-14.06</ele>
  <time>2026-09-02T22:09:06Z</time>
  <course>229.11</course>
  <speed>0.99</speed>
  <fix>3d</fix>
</trkpt>
<trkpt lat="33.8109542" lon="-118.3933915">
  <ele>-14.342</ele>
  <time>2026-09-02T22:09:06Z</time>
  <course>230.39</course>
  <speed>0.9730878685915265</speed>
  <fix>3d</fix>
</trkpt>
<trkpt lat="33.8109554" lon="-118.3933895">
  <ele>-14.06</ele>
  <time>2026-09-02T22:09:06Z</time>
  <course>229.11</course>
  <speed>0.99</speed>
  <fix>3d</fix>
</trkpt>
<trkpt lat="33.8109536" lon="-118.3933923">
  <ele>-14.316</ele>
  <time>2026-09-02T22:09:06Z</time>
  <course>230.38</course>
  <speed>0.9730878685915265</speed>
  <fix>3d</fix>
</trkpt>
<trkpt lat="33.8109543" lon="-118.3933912">
  <ele>-14.01</ele>
  <time>2026-09-02T22:09:06Z</time>
  <course>229.08</course>
  <speed>0.99</speed>
  <fix>3d</fix>
</trkpt>
<trkpt lat="33.8109531" lon="-118.3933932">
  <ele>-14.291</ele>
  <time>2026-09-02T22:09:06Z</time>
  <course>230.37</course>
  <speed>0.9730878685915265</speed>
  <fix>3d</fix>
</trkpt>
<trkpt lat="33.8109543" lon="-118.3933912">
  <ele>-14.01</ele>
  <time>2026-09-02T22:09:06Z</time>
  <course>229.08</course>
  <speed>0.99</speed>
  <fix>3d</fix>
</trkpt>
<trkpt lat="33.8109525" lon="-118.393394">
  <ele>-14.267</ele>
  <time>2026-09-02T22:09:06Z</time>
  <course>230.34</course>
  <speed>0.9730878685915265</speed>
  <fix>3d</fix>
</trkpt>
<trkpt lat="33.8109531" lon="-118.3933927">
  <ele>-13.96</ele>
  <time>2026-09-02T22:09:06Z</time>
  <course>229.05</course>
  <speed>0.99</speed>
  <fix>3d</fix>
</trkpt>
<trkpt lat="33.8109519" lon="-118.3933948">
  <ele>-14.242</ele>
  <time>2026-09-02T22:09:06Z</time>
  <course>230.31</course>
  <speed>0.9730878685915265</speed>
  <fix>3d</fix>
</trkpt>
<trkpt lat="33.8109531" lon="-118.3933927">
  <ele>-13.96</ele>
  <time>2026-09-02T22:09:06Z</time>
  <course>229.05</course>
  <speed>0.99</speed>
  <fix>3d</fix>
</trkpt>
<trkpt lat="33.8109513" lon="-118.3933956">
  <ele>-14.218</ele>
  <time>2026-09-02T22:09:06Z</time>
  <course>230.3</course>
  <speed>0.9730878685915265</speed>
  <fix>3d</fix>
</trkpt>
<trkpt lat="33.8109519" lon="-118.3933944">
  <ele>-13.92</ele>
  <time>2026-09-02T22:09:06Z</time>
  <course>229.01</course>
  <speed>1.0</speed>
  <fix>3d</fix>
</trkpt>
<trkpt lat="33.8109507" lon="-118.3933964">
  <ele>-14.193</ele>
  <time>2026-09-02T22:09:06Z</time>
  <course>230.3</course>
  <speed>0.9730878685915265</speed>
  <fix>3d</fix>
</trkpt>
<trkpt lat="33.8109519" lon="-118.3933944">
  <ele>-13.92</ele>
  <time>2026-09-02T22:09:06Z</time>
  <course>229.01</course>
  <speed>1.0</speed>
  <fix>3d</fix>
</trkpt>
<trkpt lat="33.8109501" lon="-118.3933972">
  <ele>-14.169</ele>
  <time>2026-09-02T22:09:06Z</time>
  <course>230.3</course>
  <speed>0.9730878685915265</speed>
  <fix>3d</fix>
</trkpt>
<trkpt lat="33.8109507" lon="-118.3933961">
  <ele>-13.87</ele>
  <time>2026-09-02T22:09:06Z</time>
  <course>229.02</course>
  <speed>1.0</speed>
  <fix>3d</fix>
</trkpt>
<trkpt lat="33.8109495" lon="-118.3933981">
  <ele>-14.145</ele>
  <time>2026-09-02T22:09:06Z</time>
  <course>230.3</course>
  <speed>0.9730878685915265</speed>
  <fix>3d</fix>
</trkpt>
<trkpt lat="33.8109507" lon="-118.3933961">
  <ele>-13.87</ele>
  <time>2026-09-02T22:09:06Z</time>
  <course>229.02</course>
  <speed>1.0</speed>
  <fix>3d</fix>
</trkpt>
<trkpt lat="33.8109489" lon="-118.3933989">
  <ele>-14.122</ele>
  <time>2026-09-02T22:09:06Z</time>
  <course>230.3</course>
  <speed>0.9730878685915265</speed>
  <fix>3d</fix>
</trkpt>
<trkpt lat="33.8109495" lon="-118.3933977">
  <ele>-13.83</ele>
  <time>2026-09-02T22:09:06Z</time>
  <course>229.03</course>
  <speed>1.0</speed>
  <fix>3d</fix>
</trkpt>
<trkpt lat="33.8109484" lon="-118.3933997">
  <ele>-14.099</ele>
  <time>2026-09-02T22:09:06Z</time>
  <course>230.31</course>
  <speed>0.9730878685915265</speed>
  <fix>3d</fix>
</trkpt>
<trkpt lat="33.8109495" lon="-118.3933977">
  <ele>-13.83</ele>
  <time>2026-09-02T22:09:06Z</time>
  <course>229.03</course>
  <speed>1.0</speed>
  <fix>3d</fix>
</trkpt>
<trkpt lat="33.8109478" lon="-118.3934005">
  <ele>-14.076</ele>
  <time>2026-09-02T22:09:06Z</time>
  <course>230.31</course>
  <speed>0.9730878685915265</speed>
  <fix>3d</fix>
</trkpt>
<trkpt lat="33.8109484" lon="-118.3933993">
  <ele>-13.79</ele>
  <time>2026-09-02T22:09:06Z</time>
  <course>229.02</course>
  <speed>1.0</speed>
  <fix>3d</fix>
</trkpt>
<trkpt lat="33.8109472" lon="-118.3934013">
  <ele>-14.053</ele>
  <time>2026-09-02T22:09:06Z</time>
  <course>230.32</course>
  <speed>0.9730878685915265</speed>
  <fix>3d</fix>
</trkpt>
<trkpt lat="33.8109484" lon="-118.3933993">
  <ele>-13.79</ele>
  <time>2026-09-02T22:09:06Z</time>
  <course>229.02</course>
  <speed>1.0</speed>
  <fix>3d</fix>
</trkpt>
<trkpt lat="33.8109466" lon="-118.3934021">
  <ele>-14.029</ele>
  <time>2026-09-02T22:09:06Z</time>
  <course>230.32</course>
  <speed>0.9730878685915265</speed>
  <fix>3d</fix>
</trkpt>
<trkpt lat="33.8109472" lon="-118.3934009">
  <ele>-13.74</ele>
  <time>2026-09-02T22:09:06Z</time>
  <course>229.02</course>
  <speed>1.0</speed>
  <fix>3d</fix>
</trkpt>
<trkpt lat="33.810946" lon="-118.393403">
  <ele>-14.004</ele>
  <time>2026-09-02T22:09:06Z</time>
  <course>230.33</course>
  <speed>0.9730878685915265</speed>
  <fix>3d</fix>
</trkpt>
<trkpt lat="33.8109472" lon="-118.3934009">
  <ele>-13.74</ele>
  <time>2026-09-02T22:09:06Z</time>
  <course>229.02</course>
  <speed>1.0</speed>
  <fix>3d</fix>
</trkpt>
<trkpt lat="33.8109454" lon="-118.3934038">
  <ele>-13.979</ele>
  <time>2026-09-02T22:09:06Z</time>
  <course>230.34</course>
  <speed>0.9730878685915265</speed>
  <fix>3d</fix>
</trkpt>
<trkpt lat="33.810946" lon="-118.3934026">
  <ele>-13.69</ele>
  <time>2026-09-02T22:09:06Z</time>
  <course>229.03</course>
  <speed>1.0</speed>
  <fix>3d</fix>
</trkpt>
<trkpt lat="33.8109448" lon="-118.3934046">
  <ele>-13.954</ele>
  <time>2026-09-02T22:09:06Z</time>
  <course>230.34</course>
  <speed>0.9730878685915265</speed>
  <fix>3d</fix>
</trkpt>
<trkpt lat="33.810946" lon="-118.3934026">
  <ele>-13.69</ele>
  <time>2026-09-02T22:09:06Z</time>
  <course>229.03</course>
  <speed>1.0</speed>
  <fix>3d</fix>
</trkpt>
<trkpt lat="33.8109442" lon="-118.3934054">
  <ele>-13.927</ele>
  <time>2026-09-02T22:09:06Z</time>
  <course>230.35</course>
  <speed>0.9730878685915265</speed>
  <fix>3d</fix>
</trkpt>
<trkpt lat="33.8109448" lon="-118.3934042">
  <ele>-13.64</ele>
  <time>2026-09-02T22:09:06Z</time>
  <course>229.04</course>
  <speed>1.0</speed>
  <fix>3d</fix>
</trkpt>
<trkpt lat="33.8109436" lon="-118.3934062">
  <ele>-13.901</ele>
  <time>2026-09-02T22:09:06Z</time>
  <course>230.36</course>
  <speed>0.9730878685915265</speed>
  <fix>3d</fix>
</trkpt>
<trkpt lat="33.8109448" lon="-118.3934042">
  <ele>-13.64</ele>
  <time>2026-09-02T22:09:06Z</time>
  <course>229.04</course>
  <speed>1.0</speed>
  <fix>3d</fix>
</trkpt>
<trkpt lat="33.8109431" lon="-118.393407">
  <ele>-13.875</ele>
  <time>2026-09-02T22:09:06Z</time>
  <course>230.37</course>
  <speed>0.9730878685915265</speed>
  <fix>3d</fix>
</trkpt>
<trkpt lat="33.8109436" lon="-118.3934059">
  <ele>-13.59</ele>
  <time>2026-09-02T22:09:06Z</time>
  <course>229.07</course>
  <speed>1.0</speed>
  <fix>3d</fix>
</trkpt>
<trkpt lat="33.8109425" lon="-118.3934079">
  <ele>-13.85</ele>
  <time>2026-09-02T22:09:06Z</time>
  <course>230.39</course>
  <speed>0.9730878685915265</speed>
  <fix>3d</fix>
</trkpt>
<trkpt lat="33.8109436" lon="-118.3934059">
  <ele>-13.59</ele>
  <time>2026-09-02T22:09:06Z</time>
  <course>229.07</course>
  <speed>1.0</speed>
  <fix>3d</fix>
</trkpt>
<trkpt lat="33.8109419" lon="-118.3934087">
  <ele>-13.826</ele>
  <time>2026-09-02T22:09:06Z</time>
  <course>230.4</course>
  <speed>0.9730878685915265</speed>
  <fix>3d</fix>
</trkpt>
<trkpt lat="33.8109424" lon="-118.3934075">
  <ele>-13.54</ele>
  <time>2026-09-02T22:09:06Z</time>
  <course>229.09</course>
  <speed>1.0</speed>
  <fix>3d</fix>
</trkpt>
<trkpt lat="33.8109413" lon="-118.3934095">
  <ele>-13.802</ele>
  <time>2026-09-02T22:09:06Z</time>
  <course>230.42</course>
  <speed>0.9730878685915265</speed>
  <fix>3d</fix>
</trkpt>
<trkpt lat="33.8109424" lon="-118.3934075">
  <ele>-13.54</ele>
  <time>2026-09-02T22:09:06Z</time>
  <course>229.09</course>
  <speed>1.0</speed>
  <fix>3d</fix>
</trkpt>
<trkpt lat="33.8109407" lon="-118.3934103">
  <ele>-13.779</ele>
  <time>2026-09-02T22:09:06Z</time>
  <course>230.44</course>
  <speed>0.9730878685915265</speed>
  <fix>3d</fix>
</trkpt>
<trkpt lat="33.8109412" lon="-118.3934092">
  <ele>-13.5</ele>
  <time>2026-09-02T22:09:06Z</time>
  <course>229.12</course>
  <speed>1.0</speed>
  <fix>3d</fix>
</trkpt>
<trkpt lat="33.8109401" lon="-118.3934111">
  <ele>-13.756</ele>
  <time>2026-09-02T22:09:06Z</time>
  <course>230.46</course>
  <speed>0.9730878685915265</speed>
  <fix>3d</fix>
</trkpt>
<trkpt lat="33.8109412" lon="-118.3934092">
  <ele>-13.5</ele>
  <time>2026-09-02T22:09:06Z</time>
  <course>229.12</course>
  <speed>1.0</speed>
  <fix>3d</fix>
</trkpt>
<trkpt lat="33.8109395" lon="-118.393412">
  <ele>-13.731</ele>
  <time>2026-09-02T22:09:06Z</time>
  <course>230.49</course>
  <speed>0.9730878685915265</speed>
  <fix>3d</fix>
</trkpt>
<trkpt lat="33.81094" lon="-118.3934108">
  <ele>-13.45</ele>
  <time>2026-09-02T22:09:06Z</time>
  <course>229.16</course>
  <speed>0.99</speed>
  <fix>3d</fix>
</trkpt>
<trkpt lat="33.8109389" lon="-118.3934128">
  <ele>-13.706</ele>
  <time>2026-09-02T22:09:06Z</time>
  <course>230.51</course>
  <speed>0.9730878685915265</speed>
  <fix>3d</fix>
</trkpt>
<trkpt lat="33.81094" lon="-118.3934108">
  <ele>-13.45</ele>
  <time>2026-09-02T22:09:06Z</time>
  <course>229.16</course>
  <speed>0.99</speed>
  <fix>3d</fix>
</trkpt>
<trkpt lat="33.8109383" lon="-118.3934136">
  <ele>-13.682</ele>
  <time>2026-09-02T22:09:06Z</time>
  <course>230.53</course>
  <speed>0.9730878685915265</speed>
  <fix>3d</fix>
</trkpt>
<trkpt lat="33.8109389" lon="-118.3934124">
  <ele>-13.4</ele>
  <time>2026-09-02T22:09:06Z</time>
  <course>229.21</course>
  <speed>0.99</speed>
  <fix>3d</fix>
</trkpt>
<trkpt lat="33.8109377" lon="-118.3934144">
  <ele>-13.658</ele>
  <time>2026-09-02T22:09:06Z</time>
  <course>230.55</course>
  <speed>0.9730878685915265</speed>
  <fix>3d</fix>
</trkpt>
<trkpt lat="33.8109389" lon="-118.3934124">
  <ele>-13.4</ele>
  <time>2026-09-02T22:09:06Z</time>
  <course>229.21</course>
  <speed>0.99</speed>
  <fix>3d</fix>
</trkpt>
<trkpt lat="33.8109372" lon="-118.3934152">
  <ele>-13.634</ele>
  <time>2026-09-02T22:09:06Z</time>
  <course>230.56</course>
  <speed>0.9730878685915265</speed>
  <fix>3d</fix>
</trkpt>
<trkpt lat="33.8109378" lon="-118.3934141">
  <ele>-13.36</ele>
  <time>2026-09-02T22:09:06Z</time>
  <course>229.23</course>
  <speed>0.99</speed>
  <fix>3d</fix>
</trkpt>
<trkpt lat="33.8109366" lon="-118.393416">
  <ele>-13.61</ele>
  <time>2026-09-02T22:09:06Z</time>
  <course>230.55</course>
  <speed>0.9730878685915265</speed>
  <fix>3d</fix>
</trkpt>
<trkpt lat="33.8109378" lon="-118.3934141">
  <ele>-13.36</ele>
  <time>2026-09-02T22:09:06Z</time>
  <course>229.23</course>
  <speed>0.99</speed>
  <fix>3d</fix>
</trkpt>
<trkpt lat="33.810936" lon="-118.3934169">
  <ele>-13.586</ele>
  <time>2026-09-02T22:09:06Z</time>
  <course>230.52</course>
  <speed>0.9730878685915265</speed>
  <fix>3d</fix>
</trkpt>
<trkpt lat="33.8109366" lon="-118.3934157">
  <ele>-13.31</ele>
  <time>2026-09-02T22:09:06Z</time>
  <course>229.19</course>
  <speed>0.99</speed>
  <fix>3d</fix>
</trkpt>
<trkpt lat="33.8109354" lon="-118.3934177">
  <ele>-13.561</ele>
  <time>2026-09-02T22:09:06Z</time>
  <course>230.47</course>
  <speed>0.9730878685915265</speed>
  <fix>3d</fix>
</trkpt>
<trkpt lat="33.8109366" lon="-118.3934157">
  <ele>-13.31</ele>
  <time>2026-09-02T22:09:06Z</time>
  <course>229.19</course>
  <speed>0.99</speed>
  <fix>3d</fix>
</trkpt>
<trkpt lat="33.8109348" lon="-118.3934185">
  <ele>-13.536</ele>
  <time>2026-09-02T22:09:06Z</time>
  <course>230.43</course>
  <speed>0.9730878685915265</speed>
  <fix>3d</fix>
</trkpt>
<trkpt lat="33.8109354" lon="-118.3934173">
  <ele>-13.26</ele>
  <time>2026-09-02T22:09:06Z</time>
  <course>229.1</course>
  <speed>0.99</speed>
  <fix>3d</fix>
</trkpt>
<trkpt lat="33.8109342" lon="-118.3934193">
  <ele>-13.512</ele>
  <time>2026-09-02T22:09:06Z</time>
  <course>230.4</course>
  <speed>0.9730878685915265</speed>
  <fix>3d</fix>
</trkpt>
<trkpt lat="33.8109354" lon="-118.3934173">
  <ele>-13.26</ele>
  <time>2026-09-02T22:09:06Z</time>
  <course>229.1</course>
  <speed>0.99</speed>
  <fix>3d</fix>
</trkpt>
<trkpt lat="33.8109336" lon="-118.3934201">
  <ele>-13.487</ele>
  <time>2026-09-02T22:09:06Z</time>
  <course>230.37</course>
  <speed>0.9730878685915265</speed>
  <fix>3d</fix>
</trkpt>
<trkpt lat="33.8109343" lon="-118.393419">
  <ele>-13.21</ele>
  <time>2026-09-02T22:09:06Z</time>
  <course>229.07</course>
  <speed>0.99</speed>
  <fix>3d</fix>
</trkpt>
<trkpt lat="33.8109331" lon="-118.393421">
  <ele>-13.462</ele>
  <time>2026-09-02T22:09:06Z</time>
  <course>230.35</course>
  <speed>0.9730878685915265</speed>
  <fix>3d</fix>
</trkpt>
<trkpt lat="33.8109343" lon="-118.393419">
  <ele>-13.21</ele>
  <time>2026-09-02T22:09:06Z</time>
  <course>229.07</course>
  <speed>0.99</speed>
  <fix>3d</fix>
</trkpt>
<trkpt lat="33.8109325" lon="-118.3934218">
  <ele>-13.436</ele>
  <time>2026-09-02T22:09:06Z</time>
  <course>230.31</course>
  <speed>0.9730878685915265</speed>
  <fix>3d</fix>
</trkpt>
<trkpt lat="33.8109331" lon="-118.3934205">
  <ele>-13.16</ele>
  <time>2026-09-02T22:09:06Z</time>
  <course>229.02</course>
  <speed>0.99</speed>
  <fix>3d</fix>
</trkpt>
<trkpt lat="33.8109319" lon="-118.3934226">
  <ele>-13.41</ele>
  <time>2026-09-02T22:09:06Z</time>
  <course>230.28</course>
  <speed>0.9730878685915265</speed>
  <fix>3d</fix>
</trkpt>
<trkpt lat="33.8109331" lon="-118.3934205">
  <ele>-13.16</ele>
  <time>2026-09-02T22:09:06Z</time>
  <course>229.02</course>
  <speed>0.99</speed>
  <fix>3d</fix>
</trkpt>
<trkpt lat="33.8109313" lon="-118.3934234">
  <ele>-13.384</ele>
  <time>2026-09-02T22:09:06Z</time>
  <course>230.26</course>
  <speed>0.9730878685915265</speed>
  <fix>3d</fix>
</trkpt>
<trkpt lat="33.8109319" lon="-118.3934222">
  <ele>-13.11</ele>
  <time>2026-09-02T22:09:06Z</time>
  <course>228.97</course>
  <speed>1.0</speed>
  <fix>3d</fix>
</trkpt>
<trkpt lat="33.8109307" lon="-118.3934242">
  <ele>-13.359</ele>
  <time>2026-09-02T22:09:06Z</time>
  <course>230.25</course>
  <speed>0.9730878685915265</speed>
  <fix>3d</fix>
</trkpt>
<trkpt lat="33.8109319" lon="-118.3934222">
  <ele>-13.11</ele>
  <time>2026-09-02T22:09:06Z</time>
  <course>228.97</course>
  <speed>1.0</speed>
  <fix>3d</fix>
</trkpt>
<trkpt lat="33.8109301" lon="-118.393425">
  <ele>-13.334</ele>
  <time>2026-09-02T22:09:06Z</time>
  <course>230.25</course>
  <speed>0.9730878685915265</speed>
  <fix>3d</fix>
</trkpt>
<trkpt lat="33.8109307" lon="-118.3934238">
  <ele>-13.06</ele>
  <time>2026-09-02T22:09:06Z</time>
  <course>228.99</course>
  <speed>1.0</speed>
  <fix>3d</fix>
</trkpt>
<trkpt lat="33.8109295" lon="-118.3934258">
  <ele>-13.311</ele>
  <time>2026-09-02T22:09:06Z</time>
  <course>230.27</course>
  <speed>0.9730878685915265</speed>
  <fix>3d</fix>
</trkpt>
<trkpt lat="33.8109307" lon="-118.3934238">
  <ele>-13.06</ele>
  <time>2026-09-02T22:09:06Z</time>
  <course>228.99</course>
  <speed>1.0</speed>
  <fix>3d</fix>
</trkpt>
<trkpt lat="33.8109289" lon="-118.3934267">
  <ele>-13.287</ele>
  <time>2026-09-02T22:09:06Z</time>
  <course>230.28</course>
  <speed>0.9730878685915265</speed>
  <fix>3d</fix>
</trkpt>
<trkpt lat="33.8109296" lon="-118.3934255">
  <ele>-13.01</ele>
  <time>2026-09-02T22:09:06Z</time>
  <course>229.03</course>
  <speed>1.0</speed>
  <fix>3d</fix>
</trkpt>
<trkpt lat="33.8109284" lon="-118.3934275">
  <ele>-13.264</ele>
  <time>2026-09-02T22:09:06Z</time>
  <course>230.29</course>
  <speed>0.9730878685915265</speed>
  <fix>3d</fix>
</trkpt>
<trkpt lat="33.8109296" lon="-118.3934255">
  <ele>-13.01</ele>
  <time>2026-09-02T22:09:06Z</time>
  <course>229.03</course>
  <speed>1.0</speed>
  <fix>3d</fix>
</trkpt>
<trkpt lat="33.8109278" lon="-118.3934283">
  <ele>-13.24</ele>
  <time>2026-09-02T22:09:06Z</time>
  <course>230.28</course>
  <speed>0.9730878685915265</speed>
  <fix>3d</fix>
</trkpt>
<trkpt lat="33.8109284" lon="-118.3934271">
  <ele>-12.96</ele>
  <time>2026-09-02T22:09:06Z</time>
  <course>229.03</course>
  <speed>1.0</speed>
  <fix>3d</fix>
</trkpt>
<trkpt lat="33.8109272" lon="-118.3934291">
  <ele>-13.217</ele>
  <time>2026-09-02T22:09:06Z</time>
  <course>230.26</course>
  <speed>0.9730878685915265</speed>
  <fix>3d</fix>
</trkpt>
<trkpt lat="33.8109284" lon="-118.3934271">
  <ele>-12.96</ele>
  <time>2026-09-02T22:09:06Z</time>
  <course>229.03</course>
  <speed>1.0</speed>
  <fix>3d</fix>
</trkpt>
<trkpt lat="33.8109266" lon="-118.3934299">
  <ele>-13.192</ele>
  <time>2026-09-02T22:09:06Z</time>
  <course>230.24</course>
  <speed>0.9730878685915265</speed>
  <fix>3d</fix>
</trkpt>
<trkpt lat="33.8109272" lon="-118.3934288">
  <ele>-12.92</ele>
  <time>2026-09-02T22:09:06Z</time>
  <course>228.99</course>
  <speed>1.0</speed>
  <fix>3d</fix>
</trkpt>
<trkpt lat="33.810926" lon="-118.3934308">
  <ele>-13.165</ele>
  <time>2026-09-02T22:09:06Z</time>
  <course>230.23</course>
  <speed>0.9730878685915265</speed>
  <fix>3d</fix>
</trkpt>
<trkpt lat="33.8109272" lon="-118.3934288">
  <ele>-12.92</ele>
  <time>2026-09-02T22:09:06Z</time>
  <course>228.99</course>
  <speed>1.0</speed>
  <fix>3d</fix>
</trkpt>
<trkpt lat="33.8109254" lon="-118.3934316">
  <ele>-13.138</ele>
  <time>2026-09-02T22:09:06Z</time>
  <course>230.21</course>
  <speed>0.9730878685915265</speed>
  <fix>3d</fix>
</trkpt>
<trkpt lat="33.8109259" lon="-118.3934304">
  <ele>-12.87</ele>
  <time>2026-09-02T22:09:06Z</time>
  <course>228.95</course>
  <speed>1.0</speed>
  <fix>3d</fix>
</trkpt>
<trkpt lat="33.8109248" lon="-118.3934324">
  <ele>-13.111</ele>
  <time>2026-09-02T22:09:06Z</time>
  <course>230.2</course>
  <speed>0.9730878685915265</speed>
  <fix>3d</fix>
</trkpt>
<trkpt lat="33.8109259" lon="-118.3934304">
  <ele>-12.87</ele>
  <time>2026-09-02T22:09:06Z</time>
  <course>228.95</course>
  <speed>1.0</speed>
  <fix>3d</fix>
</trkpt>
<trkpt lat="33.8109242" lon="-118.3934332">
  <ele>-13.085</ele>
  <time>2026-09-02T22:09:06Z</time>
  <course>230.22</course>
  <speed>0.9730878685915265</speed>
  <fix>3d</fix>
</trkpt>
<trkpt lat="33.8109247" lon="-118.393432">
  <ele>-12.82</ele>
  <time>2026-09-02T22:09:06Z</time>
  <course>228.96</course>
  <speed>1.0</speed>
  <fix>3d</fix>
</trkpt>
<trkpt lat="33.8109236" lon="-118.393434">
  <ele>-13.059</ele>
  <time>2026-09-02T22:09:06Z</time>
  <course>230.26</course>
  <speed>0.9730878685915265</speed>
  <fix>3d</fix>
</trkpt>
<trkpt lat="33.8109247" lon="-118.393432">
  <ele>-12.82</ele>
  <time>2026-09-02T22:09:06Z</time>
  <course>228.96</course>
  <speed>1.0</speed>
  <fix>3d</fix>
</trkpt>
<trkpt lat="33.810923" lon="-118.3934348">
  <ele>-13.034</ele>
  <time>2026-09-02T22:09:06Z</time>
  <course>230.32</course>
  <speed>0.9730878685915265</speed>
  <fix>3d</fix>
</trkpt>
<trkpt lat="33.8109236" lon="-118.3934337">
  <ele>-12.77</ele>
  <time>2026-09-02T22:09:06Z</time>
  <course>229.08</course>
  <speed>1.0</speed>
  <fix>3d</fix>
</trkpt>
<trkpt lat="33.8109225" lon="-118.3934356">
  <ele>-13.01</ele>
  <time>2026-09-02T22:09:06Z</time>
  <course>230.38</course>
  <speed>0.9730878685915265</speed>
  <fix>3d</fix>
</trkpt>
<trkpt lat="33.8109236" lon="-118.3934337">
  <ele>-12.77</ele>
  <time>2026-09-02T22:09:06Z</time>
  <course>229.08</course>
  <speed>1.0</speed>
  <fix>3d</fix>
</trkpt>
<trkpt lat="33.8109219" lon="-118.3934365">
  <ele>-12.987</ele>
  <time>2026-09-02T22:09:06Z</time>
  <course>230.42</course>
  <speed>0.9730878685915265</speed>
  <fix>3d</fix>
</trkpt>
<trkpt lat="33.8109224" lon="-118.3934353">
  <ele>-12.73</ele>
  <time>2026-09-02T22:09:06Z</time>
  <course>229.16</course>
  <speed>1.0</speed>
  <fix>3d</fix>
</trkpt>
<trkpt lat="33.8109213" lon="-118.3934373">
  <ele>-12.964</ele>
  <time>2026-09-02T22:09:06Z</time>
  <course>230.45</course>
  <speed>0.9730878685915265</speed>
  <fix>3d</fix>
</trkpt>
<trkpt lat="33.8109224" lon="-118.3934353">
  <ele>-12.73</ele>
  <time>2026-09-02T22:09:06Z</time>
  <course>229.16</course>
  <speed>1.0</speed>
  <fix>3d</fix>
</trkpt>
<trkpt lat="33.8109207" lon="-118.3934381">
  <ele>-12.942</ele>
  <time>2026-09-02T22:09:06Z</time>
  <course>230.47</course>
  <speed>0.9730878685915265</speed>
  <fix>3d</fix>
</trkpt>
<trkpt lat="33.8109212" lon="-118.3934369">
  <ele>-12.69</ele>
  <time>2026-09-02T22:09:06Z</time>
  <course>229.18</course>
  <speed>1.0</speed>
  <fix>3d</fix>
</trkpt>
<trkpt lat="33.8109201" lon="-118.3934389">
  <ele>-12.92</ele>
  <time>2026-09-02T22:09:06Z</time>
  <course>230.49</course>
  <speed>0.9730878685915265</speed>
  <fix>3d</fix>
</trkpt>
<trkpt lat="33.8109212" lon="-118.3934369">
  <ele>-12.69</ele>
  <time>2026-09-02T22:09:06Z</time>
  <course>229.18</course>
  <speed>1.0</speed>
  <fix>3d</fix>
</trkpt>
<trkpt lat="33.8109195" lon="-118.3934397">
  <ele>-12.898</ele>
  <time>2026-09-02T22:09:06Z</time>
  <course>230.52</course>
  <speed>0.9730878685915265</speed>
  <fix>3d</fix>
</trkpt>
<trkpt lat="33.8109201" lon="-118.3934386">
  <ele>-12.64</ele>
  <time>2026-09-02T22:09:06Z</time>
  <course>229.21</course>
  <speed>1.0</speed>
  <fix>3d</fix>
</trkpt>
<trkpt lat="33.8109189" lon="-118.3934405">
  <ele>-12.874</ele>
  <time>2026-09-02T22:09:06Z</time>
  <course>230.54</course>
  <speed>0.9730878685915265</speed>
  <fix>3d</fix>
</trkpt>
<trkpt lat="33.8109201" lon="-118.3934386">
  <ele>-12.64</ele>
  <time>2026-09-02T22:09:06Z</time>
  <course>229.21</course>
  <speed>1.0</speed>
  <fix>3d</fix>
</trkpt>
<trkpt lat="33.8109183" lon="-118.3934414">
  <ele>-12.85</ele>
  <time>2026-09-02T22:09:06Z</time>
  <course>230.54</course>
  <speed>0.9730878685915265</speed>
  <fix>3d</fix>
</trkpt>
<trkpt lat="33.8109189" lon="-118.3934402">
  <ele>-12.59</ele>
  <time>2026-09-02T22:09:06Z</time>
  <course>229.22</course>
  <speed>1.0</speed>
  <fix>3d</fix>
</trkpt>
<trkpt lat="33.8109178" lon="-118.3934422">
  <ele>-12.825</ele>
  <time>2026-09-02T22:09:06Z</time>
  <course>230.52</course>
  <speed>0.9730878685915265</speed>
  <fix>3d</fix>
</trkpt>
<trkpt lat="33.8109189" lon="-118.3934402">
  <ele>-12.59</ele>
  <time>2026-09-02T22:09:06Z</time>
  <course>229.22</course>
  <speed>1.0</speed>
  <fix>3d</fix>
</trkpt>
<trkpt lat="33.8109172" lon="-118.393443">
  <ele>-12.8</ele>
  <time>2026-09-02T22:09:06Z</time>
  <course>230.51</course>
  <speed>0.9730878685915265</speed>
  <fix>3d</fix>
</trkpt>
<trkpt lat="33.8109178" lon="-118.3934419">
  <ele>-12.54</ele>
  <time>2026-09-02T22:09:06Z</time>
  <course>229.19</course>
  <speed>1.0</speed>
  <fix>3d</fix>
</trkpt>
<trkpt lat="33.8109166" lon="-118.3934438">
  <ele>-12.776</ele>
  <time>2026-09-02T22:09:06Z</time>
  <course>230.48</course>
  <speed>0.9730878685915265</speed>
  <fix>3d</fix>
</trkpt>
<trkpt lat="33.8109178" lon="-118.3934419">
  <ele>-12.54</ele>
  <time>2026-09-02T22:09:06Z</time>
  <course>229.19</course>
  <speed>1.0</speed>
  <fix>3d</fix>
</trkpt>
<trkpt lat="33.810916" lon="-118.3934446">
  <ele>-12.751</ele>
  <time>2026-09-02T22:09:06Z</time>
  <course>230.45</course>
  <speed>0.9730878685915265</speed>
  <fix>3d</fix>
</trkpt>
<trkpt lat="33.8109166" lon="-118.3934435">
  <ele>-12.49</ele>
  <time>2026-09-02T22:09:06Z</time>
  <course>229.13</course>
  <speed>1.0</speed>
  <fix>3d</fix>
</trkpt>
<trkpt lat="33.8109154" lon="-118.3934454">
  <ele>-12.727</ele>
  <time>2026-09-02T22:09:06Z</time>
  <course>230.39</course>
  <speed>0.9730878685915265</speed>
  <fix>3d</fix>
</trkpt>
<trkpt lat="33.8109166" lon="-118.3934435">
  <ele>-12.49</ele>
  <time>2026-09-02T22:09:06Z</time>
  <course>229.13</course>
  <speed>1.0</speed>
  <fix>3d</fix>
</trkpt>
<trkpt lat="33.8109148" lon="-118.3934463">
  <ele>-12.703</ele>
  <time>2026-09-02T22:09:06Z</time>
  <course>230.35</course>
  <speed>0.9730878685915265</speed>
  <fix>3d</fix>
</trkpt>
<trkpt lat="33.8109154" lon="-118.3934452">
  <ele>-12.44</ele>
  <time>2026-09-02T22:09:06Z</time>
  <course>229.03</course>
  <speed>1.0</speed>
  <fix>3d</fix>
</trkpt>
<trkpt lat="33.8109142" lon="-118.3934471">
  <ele>-12.678</ele>
  <time>2026-09-02T22:09:06Z</time>
  <course>230.31</course>
  <speed>0.9730878685915265</speed>
  <fix>3d</fix>
</trkpt>
<trkpt lat="33.8109154" lon="-118.3934452">
  <ele>-12.44</ele>
  <time>2026-09-02T22:09:06Z</time>
  <course>229.03</course>
  <speed>1.0</speed>
  <fix>3d</fix>
</trkpt>
<trkpt lat="33.8109136" lon="-118.3934479">
  <ele>-12.652</ele>
  <time>2026-09-02T22:09:06Z</time>
  <course>230.28</course>
  <speed>0.9730878685915265</speed>
  <fix>3d</fix>
</trkpt>
<trkpt lat="33.8109142" lon="-118.3934468">
  <ele>-12.39</ele>
  <time>2026-09-02T22:09:06Z</time>
  <course>228.96</course>
  <speed>1.0</speed>
  <fix>3d</fix>
</trkpt>
<trkpt lat="33.8109131" lon="-118.3934487">
  <ele>-12.624</ele>
  <time>2026-09-02T22:09:06Z</time>
  <course>230.25</course>
  <speed>0.9730878685915265</speed>
  <fix>3d</fix>
</trkpt>
<trkpt lat="33.8109142" lon="-118.3934468">
  <ele>-12.39</ele>
  <time>2026-09-02T22:09:06Z</time>
  <course>228.96</course>
  <speed>1.0</speed>
  <fix>3d</fix>
</trkpt>
<trkpt lat="33.8109125" lon="-118.3934495">
  <ele>-12.597</ele>
  <time>2026-09-02T22:09:06Z</time>
  <course>230.23</course>
  <speed>0.9730878685915265</speed>
  <fix>3d</fix>
</trkpt>
<trkpt lat="33.810913" lon="-118.3934484">
  <ele>-12.34</ele>
  <time>2026-09-02T22:09:06Z</time>
  <course>228.94</course>
  <speed>1.0</speed>
  <fix>3d</fix>
</trkpt>
<trkpt lat="33.8109119" lon="-118.3934504">
  <ele>-12.571</ele>
  <time>2026-09-02T22:09:06Z</time>
  <course>230.23</course>
  <speed>0.9730878685915265</speed>
  <fix>3d</fix>
</trkpt>
<trkpt lat="33.810913" lon="-118.3934484">
  <ele>-12.34</ele>
  <time>2026-09-02T22:09:06Z</time>
  <course>228.94</course>
  <speed>1.0</speed>
  <fix>3d</fix>
</trkpt>
<trkpt lat="33.8109113" lon="-118.3934512">
  <ele>-12.546</ele>
  <time>2026-09-02T22:09:06Z</time>
  <course>230.24</course>
  <speed>0.9730878685915265</speed>
  <fix>3d</fix>
</trkpt>
<trkpt lat="33.8109118" lon="-118.3934501">
  <ele>-12.29</ele>
  <time>2026-09-02T22:09:06Z</time>
  <course>228.97</course>
  <speed>1.0</speed>
  <fix>3d</fix>
</trkpt>
<trkpt lat="33.8109107" lon="-118.393452">
  <ele>-12.521</ele>
  <time>2026-09-02T22:09:06Z</time>
  <course>230.26</course>
  <speed>0.9730878685915265</speed>
  <fix>3d</fix>
</trkpt>
<trkpt lat="33.8109118" lon="-118.3934501">
  <ele>-12.29</ele>
  <time>2026-09-02T22:09:06Z</time>
  <course>228.97</course>
  <speed>1.0</speed>
  <fix>3d</fix>
</trkpt>
<trkpt lat="33.8109101" lon="-118.3934528">
  <ele>-12.497</ele>
  <time>2026-09-02T22:09:06Z</time>
  <course>230.28</course>
  <speed>0.9730878685915265</speed>
  <fix>3d</fix>
</trkpt>
<trkpt lat="33.8109107" lon="-118.3934516">
  <ele>-12.24</ele>
  <time>2026-09-02T22:09:06Z</time>
  <course>229.01</course>
  <speed>1.0</speed>
  <fix>3d</fix>
</trkpt>
<trkpt lat="33.8109095" lon="-118.3934536">
  <ele>-12.474</ele>
  <time>2026-09-02T22:09:06Z</time>
  <course>230.3</course>
  <speed>0.9730878685915265</speed>
  <fix>3d</fix>
</trkpt>
<trkpt lat="33.8109107" lon="-118.3934516">
  <ele>-12.24</ele>
  <time>2026-09-02T22:09:06Z</time>
  <course>229.01</course>
  <speed>1.0</speed>
  <fix>3d</fix>
</trkpt>
<trkpt lat="33.8109089" lon="-118.3934544">
  <ele>-12.452</ele>
  <time>2026-09-02T22:09:06Z</time>
  <course>230.32</course>
  <speed>0.9730878685915265</speed>
  <fix>3d</fix>
</trkpt>
<trkpt lat="33.8109095" lon="-118.3934533">
  <ele>-12.19</ele>
  <time>2026-09-02T22:09:06Z</time>
  <course>229.05</course>
  <speed>1.0</speed>
  <fix>3d</fix>
</trkpt>
<trkpt lat="33.8109083" lon="-118.3934553">
  <ele>-12.428</ele>
  <time>2026-09-02T22:09:06Z</time>
  <course>230.33</course>
  <speed>0.9730878685915265</speed>
  <fix>3d</fix>
</trkpt>
<trkpt lat="33.8109095" lon="-118.3934533">
  <ele>-12.19</ele>
  <time>2026-09-02T22:09:06Z</time>
  <course>229.05</course>
  <speed>1.0</speed>
  <fix>3d</fix>
</trkpt>
<trkpt lat="33.8109078" lon="-118.3934561">
  <ele>-12.403</ele>
  <time>2026-09-02T22:09:06Z</time>
  <course>230.34</course>
  <speed>0.9730878685915265</speed>
  <fix>3d</fix>
</trkpt>
<trkpt lat="33.8109083" lon="-118.393455">
  <ele>-12.14</ele>
  <time>2026-09-02T22:09:06Z</time>
  <course>229.07</course>
  <speed>1.0</speed>
  <fix>3d</fix>
</trkpt>
<trkpt lat="33.8109072" lon="-118.3934569">
  <ele>-12.378</ele>
  <time>2026-09-02T22:09:06Z</time>
  <course>230.34</course>
  <speed>0.9730878685915265</speed>
  <fix>3d</fix>
</trkpt>
<trkpt lat="33.8109083" lon="-118.393455">
  <ele>-12.14</ele>
  <time>2026-09-02T22:09:06Z</time>
  <course>229.07</course>
  <speed>1.0</speed>
  <fix>3d</fix>
</trkpt>
<trkpt lat="33.8109066" lon="-118.3934577">
  <ele>-12.353</ele>
  <time>2026-09-02T22:09:06Z</time>
  <course>230.34</course>
  <speed>0.9730878685915265</speed>
  <fix>3d</fix>
</trkpt>
<trkpt lat="33.8109071" lon="-118.3934566">
  <ele>-12.1</ele>
  <time>2026-09-02T22:09:06Z</time>
  <course>229.06</course>
  <speed>1.0</speed>
  <fix>3d</fix>
</trkpt>
<trkpt lat="33.810906" lon="-118.3934585">
  <ele>-12.328</ele>
  <time>2026-09-02T22:09:06Z</time>
  <course>230.34</course>
  <speed>0.9730878685915265</speed>
  <fix>3d</fix>
</trkpt>
<trkpt lat="33.8109071" lon="-118.3934566">
  <ele>-12.1</ele>
  <time>2026-09-02T22:09:06Z</time>
  <course>229.06</course>
  <speed>1.0</speed>
  <fix>3d</fix>
</trkpt>
<trkpt lat="33.8109054" lon="-118.3934594">
  <ele>-12.303</ele>
  <time>2026-09-02T22:09:06Z</time>
  <course>230.34</course>
  <speed>0.9730878685915265</speed>
  <fix>3d</fix>
</trkpt>
<trkpt lat="33.8109059" lon="-118.3934583">
  <ele>-12.05</ele>
  <time>2026-09-02T22:09:06Z</time>
  <course>229.05</course>
  <speed>1.0</speed>
  <fix>3d</fix>
</trkpt>
<trkpt lat="33.8109048" lon="-118.3934602">
  <ele>-12.277</ele>
  <time>2026-09-02T22:09:06Z</time>
  <course>230.34</course>
  <speed>0.9730878685915265</speed>
  <fix>3d</fix>
</trkpt>
<trkpt lat="33.8109059" lon="-118.3934583">
  <ele>-12.05</ele>
  <time>2026-09-02T22:09:06Z</time>
  <course>229.05</course>
  <speed>1.0</speed>
  <fix>3d</fix>
</trkpt>
<trkpt lat="33.8109042" lon="-118.393461">
  <ele>-12.252</ele>
  <time>2026-09-02T22:09:06Z</time>
  <course>230.35</course>
  <speed>0.9730878685915265</speed>
  <fix>3d</fix>
</trkpt>
<trkpt lat="33.8109047" lon="-118.3934599">
  <ele>-12.0</ele>
  <time>2026-09-02T22:09:06Z</time>
  <course>229.05</course>
  <speed>1.0</speed>
  <fix>3d</fix>
</trkpt>
<trkpt lat="33.8109036" lon="-118.3934618">
  <ele>-12.227</ele>
  <time>2026-09-02T22:09:06Z</time>
  <course>230.35</course>
  <speed>0.9730878685915265</speed>
  <fix>3d</fix>
</trkpt>
<trkpt lat="33.8109047" lon="-118.3934599">
  <ele>-12.0</ele>
  <time>2026-09-02T22:09:06Z</time>
  <course>229.05</course>
  <speed>1.0</speed>
  <fix>3d</fix>
</trkpt>
<trkpt lat="33.810903" lon="-118.3934626">
  <ele>-12.202</ele>
  <time>2026-09-02T22:09:06Z</time>
  <course>230.37</course>
  <speed>0.9730878685915265</speed>
  <fix>3d</fix>
</trkpt>
<trkpt lat="33.8109035" lon="-118.3934615">
  <ele>-11.95</ele>
  <time>2026-09-02T22:09:06Z</time>
  <course>229.07</course>
  <speed>1.0</speed>
  <fix>3d</fix>
</trkpt>
<trkpt lat="33.8109024" lon="-118.3934634">
  <ele>-12.177</ele>
  <time>2026-09-02T22:09:06Z</time>
  <course>230.4</course>
  <speed>0.9730878685915265</speed>
  <fix>3d</fix>
</trkpt>
<trkpt lat="33.8109035" lon="-118.3934615">
  <ele>-11.95</ele>
  <time>2026-09-02T22:09:06Z</time>
  <course>229.07</course>
  <speed>1.0</speed>
  <fix>3d</fix>
</trkpt>
<trkpt lat="33.8109019" lon="-118.3934643">
  <ele>-12.152</ele>
  <time>2026-09-02T22:09:06Z</time>
  <course>230.43</course>
  <speed>0.9667471230885561</speed>
  <fix>3d</fix>
</trkpt>
<trkpt lat="33.8109023" lon="-118.3934631">
  <ele>-11.9</ele>
  <time>2026-09-02T22:09:06Z</time>
  <course>229.13</course>
  <speed>0.99</speed>
  <fix>3d</fix>
</trkpt>
<trkpt lat="33.8109013" lon="-118.3934651">
  <ele>-12.126</ele>
  <time>2026-09-02T22:09:06Z</time>
  <course>230.48</course>
  <speed>0.9667471230885561</speed>
  <fix>3d</fix>
</trkpt>
<trkpt lat="33.8109023" lon="-118.3934631">
  <ele>-11.9</ele>
  <time>2026-09-02T22:09:06Z</time>
  <course>229.13</course>
  <speed>0.99</speed>
  <fix>3d</fix>
</trkpt>
<trkpt lat="33.8109007" lon="-118.3934659">
  <ele>-12.102</ele>
  <time>2026-09-02T22:09:06Z</time>
  <course>230.53</course>
  <speed>0.9667471230885561</speed>
  <fix>3d</fix>
</trkpt>
<trkpt lat="33.8109012" lon="-118.3934648">
  <ele>-11.86</ele>
  <time>2026-09-02T22:09:06Z</time>
  <course>229.22</course>
  <speed>0.99</speed>
  <fix>3d</fix>
</trkpt>
<trkpt lat="33.8109001" lon="-118.3934667">
  <ele>-12.077</ele>
  <time>2026-09-02T22:09:06Z</time>
  <course>230.57</course>
  <speed>0.9667471230885561</speed>
  <fix>3d</fix>
</trkpt>
<trkpt lat="33.8109012" lon="-118.3934648">
  <ele>-11.86</ele>
  <time>2026-09-02T22:09:06Z</time>
  <course>229.22</course>
  <speed>0.99</speed>
  <fix>3d</fix>
</trkpt>
<trkpt lat="33.8108995" lon="-118.3934675">
  <ele>-12.053</ele>
  <time>2026-09-02T22:09:06Z</time>
  <course>230.59</course>
  <speed>0.9667471230885561</speed>
  <fix>3d</fix>
</trkpt>
<trkpt lat="33.8109001" lon="-118.3934664">
  <ele>-11.81</ele>
  <time>2026-09-02T22:09:06Z</time>
  <course>229.27</course>
  <speed>0.99</speed>
  <fix>3d</fix>
</trkpt>
<trkpt lat="33.8108989" lon="-118.3934683">
  <ele>-12.029</ele>
  <time>2026-09-02T22:09:06Z</time>
  <course>230.59</course>
  <speed>0.9730878685915265</speed>
  <fix>3d</fix>
</trkpt>
<trkpt lat="33.8109001" lon="-118.3934664">
  <ele>-11.81</ele>
  <time>2026-09-02T22:09:06Z</time>
  <course>229.27</course>
  <speed>0.99</speed>
  <fix>3d</fix>
</trkpt>
<trkpt lat="33.8108983" lon="-118.3934692">
  <ele>-12.004</ele>
  <time>2026-09-02T22:09:06Z</time>
  <course>230.56</course>
  <speed>0.9730878685915265</speed>
  <fix>3d</fix>
</trkpt>
<trkpt lat="33.8108989" lon="-118.3934681">
  <ele>-11.77</ele>
  <time>2026-09-02T22:09:06Z</time>
  <course>229.23</course>
  <speed>0.99</speed>
  <fix>3d</fix>
</trkpt>
<trkpt lat="33.8108977" lon="-118.39347">
  <ele>-11.98</ele>
  <time>2026-09-02T22:09:06Z</time>
  <course>230.52</course>
  <speed>0.9730878685915265</speed>
  <fix>3d</fix>
</trkpt>
<trkpt lat="33.8108989" lon="-118.3934681">
  <ele>-11.77</ele>
  <time>2026-09-02T22:09:06Z</time>
  <course>229.23</course>
  <speed>0.99</speed>
  <fix>3d</fix>
</trkpt>
<trkpt lat="33.8108972" lon="-118.3934708">
  <ele>-11.956</ele>
  <time>2026-09-02T22:09:06Z</time>
  <course>230.47</course>
  <speed>0.9730878685915265</speed>
  <fix>3d</fix>
</trkpt>
<trkpt lat="33.8108977" lon="-118.3934697">
  <ele>-11.72</ele>
  <time>2026-09-02T22:09:06Z</time>
  <course>229.13</course>
  <speed>0.99</speed>
  <fix>3d</fix>
</trkpt>
<trkpt lat="33.8108966" lon="-118.3934716">
  <ele>-11.931</ele>
  <time>2026-09-02T22:09:06Z</time>
  <course>230.42</course>
  <speed>0.9730878685915265</speed>
  <fix>3d</fix>
</trkpt>
<trkpt lat="33.8108977" lon="-118.3934697">
  <ele>-11.72</ele>
  <time>2026-09-02T22:09:06Z</time>
  <course>229.13</course>
  <speed>0.99</speed>
  <fix>3d</fix>
</trkpt>
<trkpt lat="33.810896" lon="-118.3934724">
  <ele>-11.907</ele>
  <time>2026-09-02T22:09:06Z</time>
  <course>230.39</course>
  <speed>0.9730878685915265</speed>
  <fix>3d</fix>
</trkpt>
<trkpt lat="33.8108965" lon="-118.3934713">
  <ele>-11.67</ele>
  <time>2026-09-02T22:09:06Z</time>
  <course>229.06</course>
  <speed>0.99</speed>
  <fix>3d</fix>
</trkpt>
<trkpt lat="33.8108954" lon="-118.3934733">
  <ele>-11.883</ele>
  <time>2026-09-02T22:09:06Z</time>
  <course>230.37</course>
  <speed>0.9730878685915265</speed>
  <fix>3d</fix>
</trkpt>
<trkpt lat="33.8108965" lon="-118.3934713">
  <ele>-11.67</ele>
  <time>2026-09-02T22:09:06Z</time>
  <course>229.06</course>
  <speed>0.99</speed>
  <fix>3d</fix>
</trkpt>
<trkpt lat="33.8108948" lon="-118.3934741">
  <ele>-11.86</ele>
  <time>2026-09-02T22:09:06Z</time>
  <course>230.36</course>
  <speed>0.9730878685915265</speed>
  <fix>3d</fix>
</trkpt>
<trkpt lat="33.8108954" lon="-118.393473">
  <ele>-11.62</ele>
  <time>2026-09-02T22:09:06Z</time>
  <course>229.05</course>
  <speed>1.0</speed>
  <fix>3d</fix>
</trkpt>
<trkpt lat="33.8108942" lon="-118.3934749">
  <ele>-11.837</ele>
  <time>2026-09-02T22:09:06Z</time>
  <course>230.36</course>
  <speed>0.9730878685915265</speed>
  <fix>3d</fix>
</trkpt>
<trkpt lat="33.8108954" lon="-118.393473">
  <ele>-11.62</ele>
  <time>2026-09-02T22:09:06Z</time>
  <course>229.05</course>
  <speed>1.0</speed>
  <fix>3d</fix>
</trkpt>
<trkpt lat="33.8108936" lon="-118.3934757">
  <ele>-11.814</ele>
  <time>2026-09-02T22:09:06Z</time>
  <course>230.34</course>
  <speed>0.9730878685915265</speed>
  <fix>3d</fix>
</trkpt>
<trkpt lat="33.8108942" lon="-118.3934746">
  <ele>-11.58</ele>
  <time>2026-09-02T22:09:06Z</time>
  <course>229.05</course>
  <speed>0.99</speed>
  <fix>3d</fix>
</trkpt>
<trkpt lat="33.810893" lon="-118.3934765">
  <ele>-11.79</ele>
  <time>2026-09-02T22:09:06Z</time>
  <course>230.32</course>
  <speed>0.9730878685915265</speed>
  <fix>3d</fix>
</trkpt>
<trkpt lat="33.8108942" lon="-118.3934746">
  <ele>-11.58</ele>
  <time>2026-09-02T22:09:06Z</time>
  <course>229.05</course>
  <speed>0.99</speed>
  <fix>3d</fix>
</trkpt>
<trkpt lat="33.8108925" lon="-118.3934773">
  <ele>-11.767</ele>
  <time>2026-09-02T22:09:06Z</time>
  <course>230.29</course>
  <speed>0.9730878685915265</speed>
  <fix>3d</fix>
</trkpt>
<trkpt lat="33.810893" lon="-118.3934762">
  <ele>-11.54</ele>
  <time>2026-09-02T22:09:06Z</time>
  <course>229.0</course>
  <speed>0.99</speed>
  <fix>3d</fix>
</trkpt>
<trkpt lat="33.8108919" lon="-118.3934782">
  <ele>-11.742</ele>
  <time>2026-09-02T22:09:06Z</time>
  <course>230.28</course>
  <speed>0.9730878685915265</speed>
  <fix>3d</fix>
</trkpt>
<trkpt lat="33.810893" lon="-118.3934762">
  <ele>-11.54</ele>
  <time>2026-09-02T22:09:06Z</time>
  <course>229.0</course>
  <speed>0.99</speed>
  <fix>3d</fix>
</trkpt>
<trkpt lat="33.8108913" lon="-118.393479">
  <ele>-11.716</ele>
  <time>2026-09-02T22:09:06Z</time>
  <course>230.28</course>
  <speed>0.9730878685915265</speed>
  <fix>3d</fix>
</trkpt>
<trkpt lat="33.8108918" lon="-118.3934779">
  <ele>-11.49</ele>
  <time>2026-09-02T22:09:06Z</time>
  <course>228.98</course>
  <speed>0.99</speed>
  <fix>3d</fix>
</trkpt>
<trkpt lat="33.8108907" lon="-118.3934798">
  <ele>-11.69</ele>
  <time>2026-09-02T22:09:06Z</time>
  <course>230.27</course>
  <speed>0.9730878685915265</speed>
  <fix>3d</fix>
</trkpt>
<trkpt lat="33.8108918" lon="-118.3934779">
  <ele>-11.49</ele>
  <time>2026-09-02T22:09:06Z</time>
  <course>228.98</course>
  <speed>0.99</speed>
  <fix>3d</fix>
</trkpt>
<trkpt lat="33.8108901" lon="-118.3934806">
  <ele>-11.665</ele>
  <time>2026-09-02T22:09:06Z</time>
  <course>230.29</course>
  <speed>0.9730878685915265</speed>
  <fix>3d</fix>
</trkpt>
<trkpt lat="33.8108907" lon="-118.3934794">
  <ele>-11.44</ele>
  <time>2026-09-02T22:09:06Z</time>
  <course>229.0</course>
  <speed>0.99</speed>
  <fix>3d</fix>
</trkpt>
<trkpt lat="33.8108895" lon="-118.3934814">
  <ele>-11.639</ele>
  <time>2026-09-02T22:09:06Z</time>
  <course>230.29</course>
  <speed>0.9730878685915265</speed>
  <fix>3d</fix>
</trkpt>
<trkpt lat="33.8108907" lon="-118.3934794">
  <ele>-11.44</ele>
  <time>2026-09-02T22:09:06Z</time>
  <course>229.0</course>
  <speed>0.99</speed>
  <fix>3d</fix>
</trkpt>
<trkpt lat="33.8108889" lon="-118.3934822">
  <ele>-11.614</ele>
  <time>2026-09-02T22:09:06Z</time>
  <course>230.31</course>
  <speed>0.9730878685915265</speed>
  <fix>3d</fix>
</trkpt>
<trkpt lat="33.8108895" lon="-118.3934811">
  <ele>-11.39</ele>
  <time>2026-09-02T22:09:06Z</time>
  <course>229.03</course>
  <speed>1.0</speed>
  <fix>3d</fix>
</trkpt>
<trkpt lat="33.8108883" lon="-118.3934831">
  <ele>-11.589</ele>
  <time>2026-09-02T22:09:06Z</time>
  <course>230.31</course>
  <speed>0.9730878685915265</speed>
  <fix>3d</fix>
</trkpt>
<trkpt lat="33.8108895" lon="-118.3934811">
  <ele>-11.39</ele>
  <time>2026-09-02T22:09:06Z</time>
  <course>229.03</course>
  <speed>1.0</speed>
  <fix>3d</fix>
</trkpt>
<trkpt lat="33.8108877" lon="-118.3934839">
  <ele>-11.565</ele>
  <time>2026-09-02T22:09:06Z</time>
  <course>230.31</course>
  <speed>0.9730878685915265</speed>
  <fix>3d</fix>
</trkpt>
<trkpt lat="33.8108883" lon="-118.3934827">
  <ele>-11.34</ele>
  <time>2026-09-02T22:09:06Z</time>
  <course>229.03</course>
  <speed>1.0</speed>
  <fix>3d</fix>
</trkpt>
<trkpt lat="33.8108872" lon="-118.3934847">
  <ele>-11.541</ele>
  <time>2026-09-02T22:09:06Z</time>
  <course>230.32</course>
  <speed>0.9730878685915265</speed>
  <fix>3d</fix>
</trkpt>
<trkpt lat="33.8108883" lon="-118.3934827">
  <ele>-11.34</ele>
  <time>2026-09-02T22:09:06Z</time>
  <course>229.03</course>
  <speed>1.0</speed>
  <fix>3d</fix>
</trkpt>
<trkpt lat="33.8108866" lon="-118.3934855">
  <ele>-11.518</ele>
  <time>2026-09-02T22:09:06Z</time>
  <course>230.33</course>
  <speed>0.9730878685915265</speed>
  <fix>3d</fix>
</trkpt>
<trkpt lat="33.810887" lon="-118.3934844">
  <ele>-11.29</ele>
  <time>2026-09-02T22:09:06Z</time>
  <course>229.04</course>
  <speed>1.0</speed>
  <fix>3d</fix>
</trkpt>
<trkpt lat="33.810886" lon="-118.3934863">
  <ele>-11.494</ele>
  <time>2026-09-02T22:09:06Z</time>
  <course>230.35</course>
  <speed>0.9730878685915265</speed>
  <fix>3d</fix>
</trkpt>
<trkpt lat="33.810887" lon="-118.3934844">
  <ele>-11.29</ele>
  <time>2026-09-02T22:09:06Z</time>
  <course>229.04</course>
  <speed>1.0</speed>
  <fix>3d</fix>
</trkpt>
<trkpt lat="33.8108854" lon="-118.3934871">
  <ele>-11.47</ele>
  <time>2026-09-02T22:09:06Z</time>
  <course>230.39</course>
  <speed>0.9730878685915265</speed>
  <fix>3d</fix>
</trkpt>
<trkpt lat="33.8108859" lon="-118.393486">
  <ele>-11.25</ele>
  <time>2026-09-02T22:09:06Z</time>
  <course>229.1</course>
  <speed>1.0</speed>
  <fix>3d</fix>
</trkpt>
<trkpt lat="33.8108848" lon="-118.393488">
  <ele>-11.445</ele>
  <time>2026-09-02T22:09:06Z</time>
  <course>230.43</course>
  <speed>0.9730878685915265</speed>
  <fix>3d</fix>
</trkpt>
<trkpt lat="33.8108859" lon="-118.393486">
  <ele>-11.25</ele>
  <time>2026-09-02T22:09:06Z</time>
  <course>229.1</course>
  <speed>1.0</speed>
  <fix>3d</fix>
</trkpt>
<trkpt lat="33.8108842" lon="-118.3934888">
  <ele>-11.418</ele>
  <time>2026-09-02T22:09:06Z</time>
  <course>230.47</course>
  <speed>0.9730878685915265</speed>
  <fix>3d</fix>
</trkpt>
<trkpt lat="33.8108847" lon="-118.3934877">
  <ele>-11.2</ele>
  <time>2026-09-02T22:09:06Z</time>
  <course>229.18</course>
  <speed>0.99</speed>
  <fix>3d</fix>
</trkpt>
<trkpt lat="33.8108836" lon="-118.3934896">
  <ele>-11.393</ele>
  <time>2026-09-02T22:09:06Z</time>
  <course>230.5</course>
  <speed>0.9730878685915265</speed>
  <fix>3d</fix>
</trkpt>
<trkpt lat="33.8108847" lon="-118.3934877">
  <ele>-11.2</ele>
  <time>2026-09-02T22:09:06Z</time>
  <course>229.18</course>
  <speed>0.99</speed>
  <fix>3d</fix>
</trkpt>
<trkpt lat="33.810883" lon="-118.3934904">
  <ele>-11.368</ele>
  <time>2026-09-02T22:09:06Z</time>
  <course>230.51</course>
  <speed>0.9730878685915265</speed>
  <fix>3d</fix>
</trkpt>
<trkpt lat="33.8108835" lon="-118.3934893">
  <ele>-11.15</ele>
  <time>2026-09-02T22:09:06Z</time>
  <course>229.21</course>
  <speed>0.99</speed>
  <fix>3d</fix>
</trkpt>
<trkpt lat="33.8108824" lon="-118.3934912">
  <ele>-11.343</ele>
  <time>2026-09-02T22:09:06Z</time>
  <course>230.52</course>
  <speed>0.9667471230885561</speed>
  <fix>3d</fix>
</trkpt>
<trkpt lat="33.8108835" lon="-118.3934893">
  <ele>-11.15</ele>
  <time>2026-09-02T22:09:06Z</time>
  <course>229.21</course>
  <speed>0.99</speed>
  <fix>3d</fix>
</trkpt>
<trkpt lat="33.8108818" lon="-118.3934921">
  <ele>-11.318</ele>
  <time>2026-09-02T22:09:06Z</time>
  <course>230.54</course>
  <speed>0.9667471230885561</speed>
  <fix>3d</fix>
</trkpt>
<trkpt lat="33.8108823" lon="-118.3934909">
  <ele>-11.1</ele>
  <time>2026-09-02T22:09:06Z</time>
  <course>229.23</course>
  <speed>0.99</speed>
  <fix>3d</fix>
</trkpt>
<trkpt lat="33.8108812" lon="-118.3934929">
  <ele>-11.293</ele>
  <time>2026-09-02T22:09:06Z</time>
  <course>230.56</course>
  <speed>0.9667471230885561</speed>
  <fix>3d</fix>
</trkpt>
<trkpt lat="33.8108823" lon="-118.3934909">
  <ele>-11.1</ele>
  <time>2026-09-02T22:09:06Z</time>
  <course>229.23</course>
  <speed>0.99</speed>
  <fix>3d</fix>
</trkpt>
<trkpt lat="33.8108807" lon="-118.3934937">
  <ele>-11.269</ele>
  <time>2026-09-02T22:09:06Z</time>
  <course>230.59</course>
  <speed>0.9667471230885561</speed>
  <fix>3d</fix>
</trkpt>
<trkpt lat="33.8108812" lon="-118.3934926">
  <ele>-11.05</ele>
  <time>2026-09-02T22:09:06Z</time>
  <course>229.3</course>
  <speed>0.99</speed>
  <fix>3d</fix>
</trkpt>
<trkpt lat="33.8108801" lon="-118.3934945">
  <ele>-11.245</ele>
  <time>2026-09-02T22:09:06Z</time>
  <course>230.61</course>
  <speed>0.9667471230885561</speed>
  <fix>3d</fix>
</trkpt>
<trkpt lat="33.8108812" lon="-118.3934926">
  <ele>-11.05</ele>
  <time>2026-09-02T22:09:06Z</time>
  <course>229.3</course>
  <speed>0.99</speed>
  <fix>3d</fix>
</trkpt>
<trkpt lat="33.8108795" lon="-118.3934953">
  <ele>-11.222</ele>
  <time>2026-09-02T22:09:06Z</time>
  <course>230.63</course>
  <speed>0.9667471230885561</speed>
  <fix>3d</fix>
</trkpt>
<trkpt lat="33.8108801" lon="-118.3934942">
  <ele>-11.0</ele>
  <time>2026-09-02T22:09:06Z</time>
  <course>229.32</course>
  <speed>0.99</speed>
  <fix>3d</fix>
</trkpt>
<trkpt lat="33.8108789" lon="-118.3934961">
  <ele>-11.197</ele>
  <time>2026-09-02T22:09:06Z</time>
  <course>230.6</course>
  <speed>0.9730878685915265</speed>
  <fix>3d</fix>
</trkpt>
<trkpt lat="33.8108801" lon="-118.3934942">
  <ele>-11.0</ele>
  <time>2026-09-02T22:09:06Z</time>
  <course>229.32</course>
  <speed>0.99</speed>
  <fix>3d</fix>
</trkpt>
<trkpt lat="33.8108783" lon="-118.393497">
  <ele>-11.173</ele>
  <time>2026-09-02T22:09:06Z</time>
  <course>230.56</course>
  <speed>0.9730878685915265</speed>
  <fix>3d</fix>
</trkpt>
<trkpt lat="33.8108789" lon="-118.3934958">
  <ele>-10.95</ele>
  <time>2026-09-02T22:09:06Z</time>
  <course>229.26</course>
  <speed>0.99</speed>
  <fix>3d</fix>
</trkpt>
<trkpt lat="33.8108777" lon="-118.3934978">
  <ele>-11.147</ele>
  <time>2026-09-02T22:09:06Z</time>
  <course>230.52</course>
  <speed>0.9730878685915265</speed>
  <fix>3d</fix>
</trkpt>
<trkpt lat="33.8108789" lon="-118.3934958">
  <ele>-10.95</ele>
  <time>2026-09-02T22:09:06Z</time>
  <course>229.26</course>
  <speed>0.99</speed>
  <fix>3d</fix>
</trkpt>
<trkpt lat="33.8108771" lon="-118.3934986">
  <ele>-11.121</ele>
  <time>2026-09-02T22:09:06Z</time>
  <course>230.48</course>
  <speed>0.9730878685915265</speed>
  <fix>3d</fix>
</trkpt>
<trkpt lat="33.8108778" lon="-118.3934975">
  <ele>-10.91</ele>
  <time>2026-09-02T22:09:06Z</time>
  <course>229.19</course>
  <speed>0.99</speed>
  <fix>3d</fix>
</trkpt>
<trkpt lat="33.8108766" lon="-118.3934994">
  <ele>-11.096</ele>
  <time>2026-09-02T22:09:06Z</time>
  <course>230.43</course>
  <speed>0.9730878685915265</speed>
  <fix>3d</fix>
</trkpt>
<trkpt lat="33.8108778" lon="-118.3934975">
  <ele>-10.91</ele>
  <time>2026-09-02T22:09:06Z</time>
  <course>229.19</course>
  <speed>0.99</speed>
  <fix>3d</fix>
</trkpt>
<trkpt lat="33.810876" lon="-118.3935002">
  <ele>-11.073</ele>
  <time>2026-09-02T22:09:06Z</time>
  <course>230.37</course>
  <speed>0.9730878685915265</speed>
  <fix>3d</fix>
</trkpt>
<trkpt lat="33.8108766" lon="-118.393499">
  <ele>-10.86</ele>
  <time>2026-09-02T22:09:06Z</time>
  <course>229.12</course>
  <speed>0.99</speed>
  <fix>3d</fix>
</trkpt>
<trkpt lat="33.8108754" lon="-118.393501">
  <ele>-11.05</ele>
  <time>2026-09-02T22:09:06Z</time>
  <course>230.31</course>
  <speed>0.9730878685915265</speed>
  <fix>3d</fix>
</trkpt>
<trkpt lat="33.8108766" lon="-118.393499">
  <ele>-10.86</ele>
  <time>2026-09-02T22:09:06Z</time>
  <course>229.12</course>
  <speed>0.99</speed>
  <fix>3d</fix>
</trkpt>
<trkpt lat="33.8108748" lon="-118.3935019">
  <ele>-11.026</ele>
  <time>2026-09-02T22:09:06Z</time>
  <course>230.28</course>
  <speed>0.9730878685915265</speed>
  <fix>3d</fix>
</trkpt>
<trkpt lat="33.8108754" lon="-118.3935007">
  <ele>-10.81</ele>
  <time>2026-09-02T22:09:06Z</time>
  <course>229.05</course>
  <speed>0.99</speed>
  <fix>3d</fix>
</trkpt>
<trkpt lat="33.8108742" lon="-118.3935027">
  <ele>-11.003</ele>
  <time>2026-09-02T22:09:06Z</time>
  <course>230.25</course>
  <speed>0.9730878685915265</speed>
  <fix>3d</fix>
</trkpt>
<trkpt lat="33.8108754" lon="-118.3935007">
  <ele>-10.81</ele>
  <time>2026-09-02T22:09:06Z</time>
  <course>229.05</course>
  <speed>0.99</speed>
  <fix>3d</fix>
</trkpt>
<trkpt lat="33.8108736" lon="-118.3935035">
  <ele>-10.98</ele>
  <time>2026-09-02T22:09:06Z</time>
  <course>230.24</course>
  <speed>0.9730878685915265</speed>
  <fix>3d</fix>
</trkpt>
<trkpt lat="33.8108742" lon="-118.3935024">
  <ele>-10.77</ele>
  <time>2026-09-02T22:09:06Z</time>
  <course>229.03</course>
  <speed>0.99</speed>
  <fix>3d</fix>
</trkpt>
<trkpt lat="33.810873" lon="-118.3935043">
  <ele>-10.956</ele>
  <time>2026-09-02T22:09:06Z</time>
  <course>230.23</course>
  <speed>0.9730878685915265</speed>
  <fix>3d</fix>
</trkpt>
<trkpt lat="33.8108742" lon="-118.3935024">
  <ele>-10.77</ele>
  <time>2026-09-02T22:09:06Z</time>
  <course>229.03</course>
  <speed>0.99</speed>
  <fix>3d</fix>
</trkpt>
<trkpt lat="33.8108725" lon="-118.3935051">
  <ele>-10.931</ele>
  <time>2026-09-02T22:09:06Z</time>
  <course>230.21</course>
  <speed>0.9730878685915265</speed>
  <fix>3d</fix>
</trkpt>
<trkpt lat="33.810873" lon="-118.393504">
  <ele>-10.72</ele>
  <time>2026-09-02T22:09:06Z</time>
  <course>229.02</course>
  <speed>0.99</speed>
  <fix>3d</fix>
</trkpt>
<trkpt lat="33.8108719" lon="-118.3935059">
  <ele>-10.907</ele>
  <time>2026-09-02T22:09:06Z</time>
  <course>230.2</course>
  <speed>0.9730878685915265</speed>
  <fix>3d</fix>
</trkpt>
<trkpt lat="33.810873" lon="-118.393504">
  <ele>-10.72</ele>
  <time>2026-09-02T22:09:06Z</time>
  <course>229.02</course>
  <speed>0.99</speed>
  <fix>3d</fix>
</trkpt>
<trkpt lat="33.8108713" lon="-118.3935068">
  <ele>-10.882</ele>
  <time>2026-09-02T22:09:06Z</time>
  <course>230.2</course>
  <speed>0.9730878685915265</speed>
  <fix>3d</fix>
</trkpt>
<trkpt lat="33.8108718" lon="-118.3935056">
  <ele>-10.67</ele>
  <time>2026-09-02T22:09:06Z</time>
  <course>229.03</course>
  <speed>0.99</speed>
  <fix>3d</fix>
</trkpt>
<trkpt lat="33.8108707" lon="-118.3935076">
  <ele>-10.855</ele>
  <time>2026-09-02T22:09:06Z</time>
  <course>230.21</course>
  <speed>0.9730878685915265</speed>
  <fix>3d</fix>
</trkpt>
<trkpt lat="33.8108718" lon="-118.3935056">
  <ele>-10.67</ele>
  <time>2026-09-02T22:09:06Z</time>
  <course>229.03</course>
  <speed>0.99</speed>
  <fix>3d</fix>
</trkpt>
<trkpt lat="33.8108701" lon="-118.3935084">
  <ele>-10.828</ele>
  <time>2026-09-02T22:09:06Z</time>
  <course>230.23</course>
  <speed>0.9730878685915265</speed>
  <fix>3d</fix>
</trkpt>
<trkpt lat="33.8108706" lon="-118.3935072">
  <ele>-10.61</ele>
  <time>2026-09-02T22:09:06Z</time>
  <course>229.07</course>
  <speed>0.99</speed>
  <fix>3d</fix>
</trkpt>
<trkpt lat="33.8108695" lon="-118.3935092">
  <ele>-10.801</ele>
  <time>2026-09-02T22:09:06Z</time>
  <course>230.26</course>
  <speed>0.9730878685915265</speed>
  <fix>3d</fix>
</trkpt>
<trkpt lat="33.8108706" lon="-118.3935072">
  <ele>-10.61</ele>
  <time>2026-09-02T22:09:06Z</time>
  <course>229.07</course>
  <speed>0.99</speed>
  <fix>3d</fix>
</trkpt>
<trkpt lat="33.8108689" lon="-118.39351">
  <ele>-10.775</ele>
  <time>2026-09-02T22:09:06Z</time>
  <course>230.31</course>
  <speed>0.9730878685915265</speed>
  <fix>3d</fix>
</trkpt>
<trkpt lat="33.8108695" lon="-118.3935089">
  <ele>-10.56</ele>
  <time>2026-09-02T22:09:06Z</time>
  <course>229.14</course>
  <speed>0.99</speed>
  <fix>3d</fix>
</trkpt>
<trkpt lat="33.8108683" lon="-118.3935108">
  <ele>-10.75</ele>
  <time>2026-09-02T22:09:06Z</time>
  <course>230.34</course>
  <speed>0.9730878685915265</speed>
  <fix>3d</fix>
</trkpt>
<trkpt lat="33.8108695" lon="-118.3935089">
  <ele>-10.56</ele>
  <time>2026-09-02T22:09:06Z</time>
  <course>229.14</course>
  <speed>0.99</speed>
  <fix>3d</fix>
</trkpt>
<trkpt lat="33.8108677" lon="-118.3935117">
  <ele>-10.726</ele>
  <time>2026-09-02T22:09:06Z</time>
  <course>230.36</course>
  <speed>0.9730878685915265</speed>
  <fix>3d</fix>
</trkpt>
<trkpt lat="33.8108683" lon="-118.3935105">
  <ele>-10.51</ele>
  <time>2026-09-02T22:09:06Z</time>
  <course>229.17</course>
  <speed>0.99</speed>
  <fix>3d</fix>
</trkpt>
<trkpt lat="33.8108672" lon="-118.3935125">
  <ele>-10.702</ele>
  <time>2026-09-02T22:09:06Z</time>
  <course>230.36</course>
  <speed>0.9730878685915265</speed>
  <fix>3d</fix>
</trkpt>
<trkpt lat="33.8108683" lon="-118.3935105">
  <ele>-10.51</ele>
  <time>2026-09-02T22:09:06Z</time>
  <course>229.17</course>
  <speed>0.99</speed>
  <fix>3d</fix>
</trkpt>
<trkpt lat="33.8108666" lon="-118.3935133">
  <ele>-10.677</ele>
  <time>2026-09-02T22:09:06Z</time>
  <course>230.37</course>
  <speed>0.9730878685915265</speed>
  <fix>3d</fix>
</trkpt>
<trkpt lat="33.8108671" lon="-118.3935121">
  <ele>-10.46</ele>
  <time>2026-09-02T22:09:06Z</time>
  <course>229.15</course>
  <speed>0.99</speed>
  <fix>3d</fix>
</trkpt>
<trkpt lat="33.810866" lon="-118.3935141">
  <ele>-10.651</ele>
  <time>2026-09-02T22:09:06Z</time>
  <course>230.38</course>
  <speed>0.9730878685915265</speed>
  <fix>3d</fix>
</trkpt>
<trkpt lat="33.8108671" lon="-118.3935121">
  <ele>-10.46</ele>
  <time>2026-09-02T22:09:06Z</time>
  <course>229.15</course>
  <speed>0.99</speed>
  <fix>3d</fix>
</trkpt>
<trkpt lat="33.8108654" lon="-118.3935149">
  <ele>-10.626</ele>
  <time>2026-09-02T22:09:06Z</time>
  <course>230.39</course>
  <speed>0.9730878685915265</speed>
  <fix>3d</fix>
</trkpt>
<trkpt lat="33.810866" lon="-118.3935138">
  <ele>-10.42</ele>
  <time>2026-09-02T22:09:06Z</time>
  <course>229.16</course>
  <speed>0.99</speed>
  <fix>3d</fix>
</trkpt>
<trkpt lat="33.8108648" lon="-118.3935157">
  <ele>-10.602</ele>
  <time>2026-09-02T22:09:06Z</time>
  <course>230.4</course>
  <speed>0.9730878685915265</speed>
  <fix>3d</fix>
</trkpt>
<trkpt lat="33.810866" lon="-118.3935138">
  <ele>-10.42</ele>
  <time>2026-09-02T22:09:06Z</time>
  <course>229.16</course>
  <speed>0.99</speed>
  <fix>3d</fix>
</trkpt>
<trkpt lat="33.8108642" lon="-118.3935166">
  <ele>-10.577</ele>
  <time>2026-09-02T22:09:06Z</time>
  <course>230.39</course>
  <speed>0.9730878685915265</speed>
  <fix>3d</fix>
</trkpt>
<trkpt lat="33.8108648" lon="-118.3935153">
  <ele>-10.37</ele>
  <time>2026-09-02T22:09:06Z</time>
  <course>229.16</course>
  <speed>0.99</speed>
  <fix>3d</fix>
</trkpt>
<trkpt lat="33.8108636" lon="-118.3935174">
  <ele>-10.553</ele>
  <time>2026-09-02T22:09:06Z</time>
  <course>230.38</course>
  <speed>0.9730878685915265</speed>
  <fix>3d</fix>
</trkpt>
<trkpt lat="33.8108648" lon="-118.3935153">
  <ele>-10.37</ele>
  <time>2026-09-02T22:09:06Z</time>
  <course>229.16</course>
  <speed>0.99</speed>
  <fix>3d</fix>
</trkpt>
<trkpt lat="33.810863" lon="-118.3935182">
  <ele>-10.529</ele>
  <time>2026-09-02T22:09:06Z</time>
  <course>230.38</course>
  <speed>0.9730878685915265</speed>
  <fix>3d</fix>
</trkpt>
<trkpt lat="33.8108637" lon="-118.393517">
  <ele>-10.33</ele>
  <time>2026-09-02T22:09:06Z</time>
  <course>229.15</course>
  <speed>0.99</speed>
  <fix>3d</fix>
</trkpt>
<trkpt lat="33.8108625" lon="-118.393519">
  <ele>-10.505</ele>
  <time>2026-09-02T22:09:06Z</time>
  <course>230.37</course>
  <speed>0.9730878685915265</speed>
  <fix>3d</fix>
</trkpt>
<trkpt lat="33.8108637" lon="-118.393517">
  <ele>-10.33</ele>
  <time>2026-09-02T22:09:06Z</time>
  <course>229.15</course>
  <speed>0.99</speed>
  <fix>3d</fix>
</trkpt>
<trkpt lat="33.8108619" lon="-118.3935198">
  <ele>-10.482</ele>
  <time>2026-09-02T22:09:06Z</time>
  <course>230.35</course>
  <speed>0.9730878685915265</speed>
  <fix>3d</fix>
</trkpt>
<trkpt lat="33.8108625" lon="-118.3935186">
  <ele>-10.28</ele>
  <time>2026-09-02T22:09:06Z</time>
  <course>229.14</course>
  <speed>0.99</speed>
  <fix>3d</fix>
</trkpt>
<trkpt lat="33.8108613" lon="-118.3935206">
  <ele>-10.458</ele>
  <time>2026-09-02T22:09:06Z</time>
  <course>230.33</course>
  <speed>0.9730878685915265</speed>
  <fix>3d</fix>
</trkpt>
<trkpt lat="33.8108625" lon="-118.3935186">
  <ele>-10.28</ele>
  <time>2026-09-02T22:09:06Z</time>
  <course>229.14</course>
  <speed>0.99</speed>
  <fix>3d</fix>
</trkpt>
<trkpt lat="33.8108607" lon="-118.3935215">
  <ele>-10.433</ele>
  <time>2026-09-02T22:09:06Z</time>
  <course>230.31</course>
  <speed>0.9730878685915265</speed>
  <fix>3d</fix>
</trkpt>
<trkpt lat="33.8108613" lon="-118.3935203">
  <ele>-10.23</ele>
  <time>2026-09-02T22:09:06Z</time>
  <course>229.09</course>
  <speed>0.99</speed>
  <fix>3d</fix>
</trkpt>
<trkpt lat="33.8108601" lon="-118.3935223">
  <ele>-10.409</ele>
  <time>2026-09-02T22:09:06Z</time>
  <course>230.29</course>
  <speed>0.9730878685915265</speed>
  <fix>3d</fix>
</trkpt>
<trkpt lat="33.8108613" lon="-118.3935203">
  <ele>-10.23</ele>
  <time>2026-09-02T22:09:06Z</time>
  <course>229.09</course>
  <speed>0.99</speed>
  <fix>3d</fix>
</trkpt>
<trkpt lat="33.8108595" lon="-118.3935231">
  <ele>-10.386</ele>
  <time>2026-09-02T22:09:06Z</time>
  <course>230.28</course>
  <speed>0.9730878685915265</speed>
  <fix>3d</fix>
</trkpt>
<trkpt lat="33.8108602" lon="-118.3935219">
  <ele>-10.19</ele>
  <time>2026-09-02T22:09:06Z</time>
  <course>229.05</course>
  <speed>1.0</speed>
  <fix>3d</fix>
</trkpt>
<trkpt lat="33.8108589" lon="-118.3935239">
  <ele>-10.362</ele>
  <time>2026-09-02T22:09:06Z</time>
  <course>230.25</course>
  <speed>0.9730878685915265</speed>
  <fix>3d</fix>
</trkpt>
<trkpt lat="33.8108602" lon="-118.3935219">
  <ele>-10.19</ele>
  <time>2026-09-02T22:09:06Z</time>
  <course>229.05</course>
  <speed>1.0</speed>
  <fix>3d</fix>
</trkpt>
<trkpt lat="33.8108584" lon="-118.3935247">
  <ele>-10.337</ele>
  <time>2026-09-02T22:09:06Z</time>
  <course>230.22</course>
  <speed>0.9730878685915265</speed>
  <fix>3d</fix>
</trkpt>
<trkpt lat="33.810859" lon="-118.3935236">
  <ele>-10.14</ele>
  <time>2026-09-02T22:09:06Z</time>
  <course>229.01</course>
  <speed>1.0</speed>
  <fix>3d</fix>
</trkpt>
<trkpt lat="33.8108578" lon="-118.3935255">
  <ele>-10.312</ele>
  <time>2026-09-02T22:09:06Z</time>
  <course>230.19</course>
  <speed>0.9730878685915265</speed>
  <fix>3d</fix>
</trkpt>
<trkpt lat="33.810859" lon="-118.3935236">
  <ele>-10.14</ele>
  <time>2026-09-02T22:09:06Z</time>
  <course>229.01</course>
  <speed>1.0</speed>
  <fix>3d</fix>
</trkpt>
<trkpt lat="33.8108572" lon="-118.3935264">
  <ele>-10.287</ele>
  <time>2026-09-02T22:09:06Z</time>
  <course>230.15</course>
  <speed>0.9730878685915265</speed>
  <fix>3d</fix>
</trkpt>
<trkpt lat="33.8108578" lon="-118.3935252">
  <ele>-10.09</ele>
  <time>2026-09-02T22:09:06Z</time>
  <course>228.96</course>
  <speed>1.0</speed>
  <fix>3d</fix>
</trkpt>
<trkpt lat="33.8108566" lon="-118.3935272">
  <ele>-10.261</ele>
  <time>2026-09-02T22:09:06Z</time>
  <course>230.12</course>
  <speed>0.9730878685915265</speed>
  <fix>3d</fix>
</trkpt>
<trkpt lat="33.8108578" lon="-118.3935252">
  <ele>-10.09</ele>
  <time>2026-09-02T22:09:06Z</time>
  <course>228.96</course>
  <speed>1.0</speed>
  <fix>3d</fix>
</trkpt>
<trkpt lat="33.810856" lon="-118.393528">
  <ele>-10.236</ele>
  <time>2026-09-02T22:09:06Z</time>
  <course>230.1</course>
  <speed>0.9730878685915265</speed>
  <fix>3d</fix>
</trkpt>
<trkpt lat="33.8108566" lon="-118.3935268">
  <ele>-10.04</ele>
  <time>2026-09-02T22:09:06Z</time>
  <course>228.91</course>
  <speed>1.0</speed>
  <fix>3d</fix>
</trkpt>
<trkpt lat="33.8108554" lon="-118.3935288">
  <ele>-10.211</ele>
  <time>2026-09-02T22:09:06Z</time>
  <course>230.08</course>
  <speed>0.9730878685915265</speed>
  <fix>3d</fix>
</trkpt>
<trkpt lat="33.8108566" lon="-118.3935268">
  <ele>-10.04</ele>
  <time>2026-09-02T22:09:06Z</time>
  <course>228.91</course>
  <speed>1.0</speed>
  <fix>3d</fix>
</trkpt>
<trkpt lat="33.8108548" lon="-118.3935296">
  <ele>-10.187</ele>
  <time>2026-09-02T22:09:07Z</time>
  <course>230.09</course>
  <speed>0.9730878685915265</speed>
  <fix>3d</fix>
</trkpt>
<trkpt lat="33.8108554" lon="-118.3935285">
  <ele>-9.99</ele>
  <time>2026-09-02T22:09:07Z</time>
  <course>228.91</course>
  <speed>1.0</speed>
  <fix>3d</fix>
</trkpt>
<trkpt lat="33.8108542" lon="-118.3935304">
  <ele>-10.162</ele>
  <time>2026-09-02T22:09:07Z</time>
  <course>230.09</course>
  <speed>0.9730878685915265</speed>
  <fix>3d</fix>
</trkpt>
<trkpt lat="33.8108554" lon="-118.3935285">
  <ele>-9.99</ele>
  <time>2026-09-02T22:09:07Z</time>
  <course>228.91</course>
  <speed>1.0</speed>
  <fix>3d</fix>
</trkpt>
<trkpt lat="33.8108536" lon="-118.3935313">
  <ele>-10.136</ele>
  <time>2026-09-02T22:09:07Z</time>
  <course>230.11</course>
  <speed>0.9730878685915265</speed>
  <fix>3d</fix>
</trkpt>
<trkpt lat="33.8108542" lon="-118.3935301">
  <ele>-9.95</ele>
  <time>2026-09-02T22:09:07Z</time>
  <course>228.93</course>
  <speed>1.0</speed>
  <fix>3d</fix>
</trkpt>
<trkpt lat="33.8108531" lon="-118.3935321">
  <ele>-10.11</ele>
  <time>2026-09-02T22:09:07Z</time>
  <course>230.12</course>
  <speed>0.9730878685915265</speed>
  <fix>3d</fix>
</trkpt>
<trkpt lat="33.8108542" lon="-118.3935301">
  <ele>-9.95</ele>
  <time>2026-09-02T22:09:07Z</time>
  <course>228.93</course>
  <speed>1.0</speed>
  <fix>3d</fix>
</trkpt>
<trkpt lat="33.8108525" lon="-118.3935329">
  <ele>-10.084</ele>
  <time>2026-09-02T22:09:07Z</time>
  <course>230.14</course>
  <speed>0.9730878685915265</speed>
  <fix>3d</fix>
</trkpt>
<trkpt lat="33.810853" lon="-118.3935317">
  <ele>-9.9</ele>
  <time>2026-09-02T22:09:07Z</time>
  <course>228.96</course>
  <speed>0.99</speed>
  <fix>3d</fix>
</trkpt>
<trkpt lat="33.8108519" lon="-118.3935337">
  <ele>-10.06</ele>
  <time>2026-09-02T22:09:07Z</time>
  <course>230.17</course>
  <speed>0.9730878685915265</speed>
  <fix>3d</fix>
</trkpt>
<trkpt lat="33.810853" lon="-118.3935317">
  <ele>-9.9</ele>
  <time>2026-09-02T22:09:07Z</time>
  <course>228.96</course>
  <speed>0.99</speed>
  <fix>3d</fix>
</trkpt>
<trkpt lat="33.8108513" lon="-118.3935345">
  <ele>-10.038</ele>
  <time>2026-09-02T22:09:07Z</time>
  <course>230.22</course>
  <speed>0.9730878685915265</speed>
  <fix>3d</fix>
</trkpt>
<trkpt lat="33.8108518" lon="-118.3935334">
  <ele>-9.85</ele>
  <time>2026-09-02T22:09:07Z</time>
  <course>229.03</course>
  <speed>0.99</speed>
  <fix>3d</fix>
</trkpt>
<trkpt lat="33.8108507" lon="-118.3935354">
  <ele>-10.016</ele>
  <time>2026-09-02T22:09:07Z</time>
  <course>230.26</course>
  <speed>0.9730878685915265</speed>
  <fix>3d</fix>
</trkpt>
<trkpt lat="33.8108518" lon="-118.3935334">
  <ele>-9.85</ele>
  <time>2026-09-02T22:09:07Z</time>
  <course>229.03</course>
  <speed>0.99</speed>
  <fix>3d</fix>
</trkpt>
<trkpt lat="33.8108501" lon="-118.3935362">
  <ele>-9.993</ele>
  <time>2026-09-02T22:09:07Z</time>
  <course>230.3</course>
  <speed>0.9730878685915265</speed>
  <fix>3d</fix>
</trkpt>
<trkpt lat="33.8108506" lon="-118.3935349">
  <ele>-9.8</ele>
  <time>2026-09-02T22:09:07Z</time>
  <course>229.09</course>
  <speed>0.99</speed>
  <fix>3d</fix>
</trkpt>
<trkpt lat="33.8108495" lon="-118.393537">
  <ele>-9.97</ele>
  <time>2026-09-02T22:09:07Z</time>
  <course>230.35</course>
  <speed>0.9730878685915265</speed>
  <fix>3d</fix>
</trkpt>
<trkpt lat="33.8108506" lon="-118.3935349">
  <ele>-9.8</ele>
  <time>2026-09-02T22:09:07Z</time>
  <course>229.09</course>
  <speed>0.99</speed>
  <fix>3d</fix>
</trkpt>
<trkpt lat="33.8108489" lon="-118.3935378">
  <ele>-9.945</ele>
  <time>2026-09-02T22:09:07Z</time>
  <course>230.4</course>
  <speed>0.9730878685915265</speed>
  <fix>3d</fix>
</trkpt>
<trkpt lat="33.8108495" lon="-118.3935366">
  <ele>-9.76</ele>
  <time>2026-09-02T22:09:07Z</time>
  <course>229.17</course>
  <speed>0.99</speed>
  <fix>3d</fix>
</trkpt>
<trkpt lat="33.8108483" lon="-118.3935386">
  <ele>-9.919</ele>
  <time>2026-09-02T22:09:07Z</time>
  <course>230.45</course>
  <speed>0.9730878685915265</speed>
  <fix>3d</fix>
</trkpt>
<trkpt lat="33.8108495" lon="-118.3935366">
  <ele>-9.76</ele>
  <time>2026-09-02T22:09:07Z</time>
  <course>229.17</course>
  <speed>0.99</speed>
  <fix>3d</fix>
</trkpt>
<trkpt lat="33.8108477" lon="-118.3935394">
  <ele>-9.894</ele>
  <time>2026-09-02T22:09:07Z</time>
  <course>230.49</course>
  <speed>0.9730878685915265</speed>
  <fix>3d</fix>
</trkpt>
<trkpt lat="33.8108484" lon="-118.3935382">
  <ele>-9.71</ele>
  <time>2026-09-02T22:09:07Z</time>
  <course>229.23</course>
  <speed>0.99</speed>
  <fix>3d</fix>
</trkpt>
<trkpt lat="33.8108472" lon="-118.3935402">
  <ele>-9.869</ele>
  <time>2026-09-02T22:09:07Z</time>
  <course>230.5</course>
  <speed>0.9730878685915265</speed>
  <fix>3d</fix>
</trkpt>
<trkpt lat="33.8108484" lon="-118.3935382">
  <ele>-9.71</ele>
  <time>2026-09-02T22:09:07Z</time>
  <course>229.23</course>
  <speed>0.99</speed>
  <fix>3d</fix>
</trkpt>
<trkpt lat="33.8108466" lon="-118.3935411">
  <ele>-9.845</ele>
  <time>2026-09-02T22:09:07Z</time>
  <course>230.5</course>
  <speed>0.9730878685915265</speed>
  <fix>3d</fix>
</trkpt>
<trkpt lat="33.8108472" lon="-118.3935399">
  <ele>-9.66</ele>
  <time>2026-09-02T22:09:07Z</time>
  <course>229.2</course>
  <speed>0.99</speed>
  <fix>3d</fix>
</trkpt>
<trkpt lat="33.810846" lon="-118.3935419">
  <ele>-9.821</ele>
  <time>2026-09-02T22:09:07Z</time>
  <course>230.47</course>
  <speed>0.9730878685915265</speed>
  <fix>3d</fix>
</trkpt>
<trkpt lat="33.8108472" lon="-118.3935399">
  <ele>-9.66</ele>
  <time>2026-09-02T22:09:07Z</time>
  <course>229.2</course>
  <speed>0.99</speed>
  <fix>3d</fix>
</trkpt>
<trkpt lat="33.8108454" lon="-118.3935427">
  <ele>-9.796</ele>
  <time>2026-09-02T22:09:07Z</time>
  <course>230.44</course>
  <speed>0.9730878685915265</speed>
  <fix>3d</fix>
</trkpt>
<trkpt lat="33.810846" lon="-118.3935415">
  <ele>-9.61</ele>
  <time>2026-09-02T22:09:07Z</time>
  <course>229.12</course>
  <speed>0.99</speed>
  <fix>3d</fix>
</trkpt>
<trkpt lat="33.8108448" lon="-118.3935435">
  <ele>-9.771</ele>
  <time>2026-09-02T22:09:07Z</time>
  <course>230.4</course>
  <speed>0.9730878685915265</speed>
  <fix>3d</fix>
</trkpt>
<trkpt lat="33.810846" lon="-118.3935415">
  <ele>-9.61</ele>
  <time>2026-09-02T22:09:07Z</time>
  <course>229.12</course>
  <speed>0.99</speed>
  <fix>3d</fix>
</trkpt>
<trkpt lat="33.8108442" lon="-118.3935443">
  <ele>-9.746</ele>
  <time>2026-09-02T22:09:07Z</time>
  <course>230.38</course>
  <speed>0.9730878685915265</speed>
  <fix>3d</fix>
</trkpt>
<trkpt lat="33.8108449" lon="-118.3935431">
  <ele>-9.56</ele>
  <time>2026-09-02T22:09:07Z</time>
  <course>229.05</course>
  <speed>1.0</speed>
  <fix>3d</fix>
</trkpt>
<trkpt lat="33.8108436" lon="-118.3935451">
  <ele>-9.72</ele>
  <time>2026-09-02T22:09:07Z</time>
  <course>230.36</course>
  <speed>0.9730878685915265</speed>
  <fix>3d</fix>
</trkpt>
<trkpt lat="33.8108449" lon="-118.3935431">
  <ele>-9.56</ele>
  <time>2026-09-02T22:09:07Z</time>
  <course>229.05</course>
  <speed>1.0</speed>
  <fix>3d</fix>
</trkpt>
<trkpt lat="33.8108431" lon="-118.393546">
  <ele>-9.696</ele>
  <time>2026-09-02T22:09:07Z</time>
  <course>230.34</course>
  <speed>0.9730878685915265</speed>
  <fix>3d</fix>
</trkpt>
<trkpt lat="33.8108437" lon="-118.3935448">
  <ele>-9.52</ele>
  <time>2026-09-02T22:09:07Z</time>
  <course>229.03</course>
  <speed>1.0</speed>
  <fix>3d</fix>
</trkpt>
<trkpt lat="33.8108425" lon="-118.3935468">
  <ele>-9.672</ele>
  <time>2026-09-02T22:09:07Z</time>
  <course>230.32</course>
  <speed>0.9730878685915265</speed>
  <fix>3d</fix>
</trkpt>
<trkpt lat="33.8108437" lon="-118.3935448">
  <ele>-9.52</ele>
  <time>2026-09-02T22:09:07Z</time>
  <course>229.03</course>
  <speed>1.0</speed>
  <fix>3d</fix>
</trkpt>
<trkpt lat="33.8108419" lon="-118.3935476">
  <ele>-9.649</ele>
  <time>2026-09-02T22:09:07Z</time>
  <course>230.28</course>
  <speed>0.9730878685915265</speed>
  <fix>3d</fix>
</trkpt>
<trkpt lat="33.8108425" lon="-118.3935464">
  <ele>-9.47</ele>
  <time>2026-09-02T22:09:07Z</time>
  <course>228.99</course>
  <speed>1.0</speed>
  <fix>3d</fix>
</trkpt>
<trkpt lat="33.8108413" lon="-118.3935484">
  <ele>-9.625</ele>
  <time>2026-09-02T22:09:07Z</time>
  <course>230.26</course>
  <speed>0.9730878685915265</speed>
  <fix>3d</fix>
</trkpt>
<trkpt lat="33.8108425" lon="-118.3935464">
  <ele>-9.47</ele>
  <time>2026-09-02T22:09:07Z</time>
  <course>228.99</course>
  <speed>1.0</speed>
  <fix>3d</fix>
</trkpt>
<trkpt lat="33.8108407" lon="-118.3935492">
  <ele>-9.6</ele>
  <time>2026-09-02T22:09:07Z</time>
  <course>230.24</course>
  <speed>0.9730878685915265</speed>
  <fix>3d</fix>
</trkpt>
<trkpt lat="33.8108413" lon="-118.3935481">
  <ele>-9.42</ele>
  <time>2026-09-02T22:09:07Z</time>
  <course>228.95</course>
  <speed>1.0</speed>
  <fix>3d</fix>
</trkpt>
<trkpt lat="33.8108401" lon="-118.3935501">
  <ele>-9.574</ele>
  <time>2026-09-02T22:09:07Z</time>
  <course>230.23</course>
  <speed>0.9730878685915265</speed>
  <fix>3d</fix>
</trkpt>
<trkpt lat="33.8108413" lon="-118.3935481">
  <ele>-9.42</ele>
  <time>2026-09-02T22:09:07Z</time>
  <course>228.95</course>
  <speed>1.0</speed>
  <fix>3d</fix>
</trkpt>
<trkpt lat="33.8108395" lon="-118.3935509">
  <ele>-9.548</ele>
  <time>2026-09-02T22:09:07Z</time>
  <course>230.21</course>
  <speed>0.9730878685915265</speed>
  <fix>3d</fix>
</trkpt>
<trkpt lat="33.8108401" lon="-118.3935497">
  <ele>-9.37</ele>
  <time>2026-09-02T22:09:07Z</time>
  <course>228.93</course>
  <speed>1.0</speed>
  <fix>3d</fix>
</trkpt>
<trkpt lat="33.8108389" lon="-118.3935517">
  <ele>-9.523</ele>
  <time>2026-09-02T22:09:07Z</time>
  <course>230.21</course>
  <speed>0.9730878685915265</speed>
  <fix>3d</fix>
</trkpt>
<trkpt lat="33.8108401" lon="-118.3935497">
  <ele>-9.37</ele>
  <time>2026-09-02T22:09:07Z</time>
  <course>228.93</course>
  <speed>1.0</speed>
  <fix>3d</fix>
</trkpt>
<trkpt lat="33.8108383" lon="-118.3935525">
  <ele>-9.497</ele>
  <time>2026-09-02T22:09:07Z</time>
  <course>230.2</course>
  <speed>0.9730878685915265</speed>
  <fix>3d</fix>
</trkpt>
<trkpt lat="33.810839" lon="-118.3935513">
  <ele>-9.32</ele>
  <time>2026-09-02T22:09:07Z</time>
  <course>228.92</course>
  <speed>1.0</speed>
  <fix>3d</fix>
</trkpt>
<trkpt lat="33.8108378" lon="-118.3935533">
  <ele>-9.473</ele>
  <time>2026-09-02T22:09:07Z</time>
  <course>230.2</course>
  <speed>0.9730878685915265</speed>
  <fix>3d</fix>
</trkpt>
<trkpt lat="33.810839" lon="-118.3935513">
  <ele>-9.32</ele>
  <time>2026-09-02T22:09:07Z</time>
  <course>228.92</course>
  <speed>1.0</speed>
  <fix>3d</fix>
</trkpt>
<trkpt lat="33.8108372" lon="-118.3935541">
  <ele>-9.447</ele>
  <time>2026-09-02T22:09:07Z</time>
  <course>230.2</course>
  <speed>0.9730878685915265</speed>
  <fix>3d</fix>
</trkpt>
<trkpt lat="33.8108378" lon="-118.393553">
  <ele>-9.27</ele>
  <time>2026-09-02T22:09:07Z</time>
  <course>228.92</course>
  <speed>1.0</speed>
  <fix>3d</fix>
</trkpt>
<trkpt lat="33.8108366" lon="-118.3935549">
  <ele>-9.423</ele>
  <time>2026-09-02T22:09:07Z</time>
  <course>230.19</course>
  <speed>0.9730878685915265</speed>
  <fix>3d</fix>
</trkpt>
<trkpt lat="33.8108378" lon="-118.393553">
  <ele>-9.27</ele>
  <time>2026-09-02T22:09:07Z</time>
  <course>228.92</course>
  <speed>1.0</speed>
  <fix>3d</fix>
</trkpt>
<trkpt lat="33.810836" lon="-118.3935558">
  <ele>-9.398</ele>
  <time>2026-09-02T22:09:07Z</time>
  <course>230.18</course>
  <speed>0.9730878685915265</speed>
  <fix>3d</fix>
</trkpt>
<trkpt lat="33.8108366" lon="-118.3935545">
  <ele>-9.22</ele>
  <time>2026-09-02T22:09:07Z</time>
  <course>228.88</course>
  <speed>1.0</speed>
  <fix>3d</fix>
</trkpt>
<trkpt lat="33.8108354" lon="-118.3935566">
  <ele>-9.373</ele>
  <time>2026-09-02T22:09:07Z</time>
  <course>230.17</course>
  <speed>0.9730878685915265</speed>
  <fix>3d</fix>
</trkpt>
<trkpt lat="33.8108366" lon="-118.3935545">
  <ele>-9.22</ele>
  <time>2026-09-02T22:09:07Z</time>
  <course>228.88</course>
  <speed>1.0</speed>
  <fix>3d</fix>
</trkpt>
<trkpt lat="33.8108348" lon="-118.3935574">
  <ele>-9.348</ele>
  <time>2026-09-02T22:09:07Z</time>
  <course>230.19</course>
  <speed>0.9730878685915265</speed>
  <fix>3d</fix>
</trkpt>
<trkpt lat="33.8108354" lon="-118.3935562">
  <ele>-9.17</ele>
  <time>2026-09-02T22:09:07Z</time>
  <course>228.89</course>
  <speed>1.0</speed>
  <fix>3d</fix>
</trkpt>
<trkpt lat="33.8108342" lon="-118.3935582">
  <ele>-9.323</ele>
  <time>2026-09-02T22:09:07Z</time>
  <course>230.21</course>
  <speed>0.9730878685915265</speed>
  <fix>3d</fix>
</trkpt>
<trkpt lat="33.8108354" lon="-118.3935562">
  <ele>-9.17</ele>
  <time>2026-09-02T22:09:07Z</time>
  <course>228.89</course>
  <speed>1.0</speed>
  <fix>3d</fix>
</trkpt>
<trkpt lat="33.8108337" lon="-118.393559">
  <ele>-9.299</ele>
  <time>2026-09-02T22:09:07Z</time>
  <course>230.25</course>
  <speed>0.9730878685915265</speed>
  <fix>3d</fix>
</trkpt>
<trkpt lat="33.8108341" lon="-118.3935579">
  <ele>-9.12</ele>
  <time>2026-09-02T22:09:07Z</time>
  <course>228.95</course>
  <speed>1.0</speed>
  <fix>3d</fix>
</trkpt>
<trkpt lat="33.8108331" lon="-118.3935598">
  <ele>-9.275</ele>
  <time>2026-09-02T22:09:07Z</time>
  <course>230.28</course>
  <speed>0.9730878685915265</speed>
  <fix>3d</fix>
</trkpt>
<trkpt lat="33.8108341" lon="-118.3935579">
  <ele>-9.12</ele>
  <time>2026-09-02T22:09:07Z</time>
  <course>228.95</course>
  <speed>1.0</speed>
  <fix>3d</fix>
</trkpt>
<trkpt lat="33.8108325" lon="-118.3935606">
  <ele>-9.251</ele>
  <time>2026-09-02T22:09:07Z</time>
  <course>230.33</course>
  <speed>0.9730878685915265</speed>
  <fix>3d</fix>
</trkpt>
<trkpt lat="33.8108329" lon="-118.3935595">
  <ele>-9.08</ele>
  <time>2026-09-02T22:09:07Z</time>
  <course>229.01</course>
  <speed>1.0</speed>
  <fix>3d</fix>
</trkpt>
<trkpt lat="33.8108319" lon="-118.3935615">
  <ele>-9.228</ele>
  <time>2026-09-02T22:09:07Z</time>
  <course>230.39</course>
  <speed>0.9730878685915265</speed>
  <fix>3d</fix>
</trkpt>
<trkpt lat="33.8108329" lon="-118.3935595">
  <ele>-9.08</ele>
  <time>2026-09-02T22:09:07Z</time>
  <course>229.01</course>
  <speed>1.0</speed>
  <fix>3d</fix>
</trkpt>
<trkpt lat="33.8108313" lon="-118.3935623">
  <ele>-9.205</ele>
  <time>2026-09-02T22:09:07Z</time>
  <course>230.45</course>
  <speed>0.9730878685915265</speed>
  <fix>3d</fix>
</trkpt>
<trkpt lat="33.8108318" lon="-118.3935612">
  <ele>-9.04</ele>
  <time>2026-09-02T22:09:07Z</time>
  <course>229.11</course>
  <speed>1.0</speed>
  <fix>3d</fix>
</trkpt>
<trkpt lat="33.8108307" lon="-118.3935631">
  <ele>-9.182</ele>
  <time>2026-09-02T22:09:07Z</time>
  <course>230.51</course>
  <speed>0.9730878685915265</speed>
  <fix>3d</fix>
</trkpt>
<trkpt lat="33.8108318" lon="-118.3935612">
  <ele>-9.04</ele>
  <time>2026-09-02T22:09:07Z</time>
  <course>229.11</course>
  <speed>1.0</speed>
  <fix>3d</fix>
</trkpt>
<trkpt lat="33.8108301" lon="-118.3935639">
  <ele>-9.158</ele>
  <time>2026-09-02T22:09:07Z</time>
  <course>230.55</course>
  <speed>0.9730878685915265</speed>
  <fix>3d</fix>
</trkpt>
<trkpt lat="33.8108306" lon="-118.3935627">
  <ele>-8.99</ele>
  <time>2026-09-02T22:09:07Z</time>
  <course>229.18</course>
  <speed>1.0</speed>
  <fix>3d</fix>
</trkpt>
<trkpt lat="33.8108295" lon="-118.3935647">
  <ele>-9.133</ele>
  <time>2026-09-02T22:09:07Z</time>
  <course>230.57</course>
  <speed>0.9730878685915265</speed>
  <fix>3d</fix>
</trkpt>
<trkpt lat="33.8108306" lon="-118.3935627">
  <ele>-8.99</ele>
  <time>2026-09-02T22:09:07Z</time>
  <course>229.18</course>
  <speed>1.0</speed>
  <fix>3d</fix>
</trkpt>
<trkpt lat="33.8108289" lon="-118.3935655">
  <ele>-9.107</ele>
  <time>2026-09-02T22:09:07Z</time>
  <course>230.61</course>
  <speed>0.9730878685915265</speed>
  <fix>3d</fix>
</trkpt>
<trkpt lat="33.8108294" lon="-118.3935644">
  <ele>-8.94</ele>
  <time>2026-09-02T22:09:07Z</time>
  <course>229.21</course>
  <speed>1.0</speed>
  <fix>3d</fix>
</trkpt>
<trkpt lat="33.8108283" lon="-118.3935664">
  <ele>-9.082</ele>
  <time>2026-09-02T22:09:07Z</time>
  <course>230.64</course>
  <speed>0.9730878685915265</speed>
  <fix>3d</fix>
</trkpt>
<trkpt lat="33.8108294" lon="-118.3935644">
  <ele>-8.94</ele>
  <time>2026-09-02T22:09:07Z</time>
  <course>229.21</course>
  <speed>1.0</speed>
  <fix>3d</fix>
</trkpt>
<trkpt lat="33.8108277" lon="-118.3935672">
  <ele>-9.056</ele>
  <time>2026-09-02T22:09:07Z</time>
  <course>230.68</course>
  <speed>0.9730878685915265</speed>
  <fix>3d</fix>
</trkpt>
<trkpt lat="33.8108283" lon="-118.393566">
  <ele>-8.89</ele>
  <time>2026-09-02T22:09:07Z</time>
  <course>229.26</course>
  <speed>1.0</speed>
  <fix>3d</fix>
</trkpt>
<trkpt lat="33.8108271" lon="-118.393568">
  <ele>-9.031</ele>
  <time>2026-09-02T22:09:07Z</time>
  <course>230.71</course>
  <speed>0.9730878685915265</speed>
  <fix>3d</fix>
</trkpt>
<trkpt lat="33.8108283" lon="-118.393566">
  <ele>-8.89</ele>
  <time>2026-09-02T22:09:07Z</time>
  <course>229.26</course>
  <speed>1.0</speed>
  <fix>3d</fix>
</trkpt>
<trkpt lat="33.8108266" lon="-118.3935688">
  <ele>-9.006</ele>
  <time>2026-09-02T22:09:07Z</time>
  <course>230.72</course>
  <speed>0.9730878685915265</speed>
  <fix>3d</fix>
</trkpt>
<trkpt lat="33.8108271" lon="-118.3935677">
  <ele>-8.84</ele>
  <time>2026-09-02T22:09:07Z</time>
  <course>229.28</course>
  <speed>1.0</speed>
  <fix>3d</fix>
</trkpt>
<trkpt lat="33.810826" lon="-118.3935696">
  <ele>-8.981</ele>
  <time>2026-09-02T22:09:07Z</time>
  <course>230.72</course>
  <speed>0.9730878685915265</speed>
  <fix>3d</fix>
</trkpt>
<trkpt lat="33.8108271" lon="-118.3935677">
  <ele>-8.84</ele>
  <time>2026-09-02T22:09:07Z</time>
  <course>229.28</course>
  <speed>1.0</speed>
  <fix>3d</fix>
</trkpt>
<trkpt lat="33.8108254" lon="-118.3935705">
  <ele>-8.955</ele>
  <time>2026-09-02T22:09:07Z</time>
  <course>230.7</course>
  <speed>0.9730878685915265</speed>
  <fix>3d</fix>
</trkpt>
<trkpt lat="33.8108259" lon="-118.3935694">
  <ele>-8.79</ele>
  <time>2026-09-02T22:09:07Z</time>
  <course>229.27</course>
  <speed>1.0</speed>
  <fix>3d</fix>
</trkpt>
<trkpt lat="33.8108248" lon="-118.3935713">
  <ele>-8.93</ele>
  <time>2026-09-02T22:09:07Z</time>
  <course>230.68</course>
  <speed>0.9730878685915265</speed>
  <fix>3d</fix>
</trkpt>
<trkpt lat="33.8108259" lon="-118.3935694">
  <ele>-8.79</ele>
  <time>2026-09-02T22:09:07Z</time>
  <course>229.27</course>
  <speed>1.0</speed>
  <fix>3d</fix>
</trkpt>
<trkpt lat="33.8108242" lon="-118.3935721">
  <ele>-8.906</ele>
  <time>2026-09-02T22:09:07Z</time>
  <course>230.65</course>
  <speed>0.9730878685915265</speed>
  <fix>3d</fix>
</trkpt>
<trkpt lat="33.8108248" lon="-118.393571">
  <ele>-8.74</ele>
  <time>2026-09-02T22:09:07Z</time>
  <course>229.23</course>
  <speed>1.0</speed>
  <fix>3d</fix>
</trkpt>
<trkpt lat="33.8108236" lon="-118.3935729">
  <ele>-8.882</ele>
  <time>2026-09-02T22:09:07Z</time>
  <course>230.61</course>
  <speed>0.9730878685915265</speed>
  <fix>3d</fix>
</trkpt>
<trkpt lat="33.8108248" lon="-118.393571">
  <ele>-8.74</ele>
  <time>2026-09-02T22:09:07Z</time>
  <course>229.23</course>
  <speed>1.0</speed>
  <fix>3d</fix>
</trkpt>
<trkpt lat="33.810823" lon="-118.3935737">
  <ele>-8.859</ele>
  <time>2026-09-02T22:09:07Z</time>
  <course>230.57</course>
  <speed>0.9730878685915265</speed>
  <fix>3d</fix>
</trkpt>
<trkpt lat="33.8108236" lon="-118.3935727">
  <ele>-8.7</ele>
  <time>2026-09-02T22:09:07Z</time>
  <course>229.17</course>
  <speed>1.0</speed>
  <fix>3d</fix>
</trkpt>
<trkpt lat="33.8108224" lon="-118.3935746">
  <ele>-8.835</ele>
  <time>2026-09-02T22:09:07Z</time>
  <course>230.53</course>
  <speed>0.9730878685915265</speed>
  <fix>3d</fix>
</trkpt>
<trkpt lat="33.8108236" lon="-118.3935727">
  <ele>-8.7</ele>
  <time>2026-09-02T22:09:07Z</time>
  <course>229.17</course>
  <speed>1.0</speed>
  <fix>3d</fix>
</trkpt>
<trkpt lat="33.8108219" lon="-118.3935754">
  <ele>-8.811</ele>
  <time>2026-09-02T22:09:07Z</time>
  <course>230.47</course>
  <speed>0.9730878685915265</speed>
  <fix>3d</fix>
</trkpt>
<trkpt lat="33.8108224" lon="-118.3935742">
  <ele>-8.65</ele>
  <time>2026-09-02T22:09:07Z</time>
  <course>229.1</course>
  <speed>1.0</speed>
  <fix>3d</fix>
</trkpt>
<trkpt lat="33.8108213" lon="-118.3935762">
  <ele>-8.787</ele>
  <time>2026-09-02T22:09:07Z</time>
  <course>230.43</course>
  <speed>0.9730878685915265</speed>
  <fix>3d</fix>
</trkpt>
<trkpt lat="33.8108224" lon="-118.3935742">
  <ele>-8.65</ele>
  <time>2026-09-02T22:09:07Z</time>
  <course>229.1</course>
  <speed>1.0</speed>
  <fix>3d</fix>
</trkpt>
<trkpt lat="33.8108207" lon="-118.393577">
  <ele>-8.762</ele>
  <time>2026-09-02T22:09:07Z</time>
  <course>230.41</course>
  <speed>0.9730878685915265</speed>
  <fix>3d</fix>
</trkpt>
<trkpt lat="33.8108212" lon="-118.3935759">
  <ele>-8.6</ele>
  <time>2026-09-02T22:09:07Z</time>
  <course>229.08</course>
  <speed>1.0</speed>
  <fix>3d</fix>
</trkpt>
<trkpt lat="33.8108201" lon="-118.3935778">
  <ele>-8.736</ele>
  <time>2026-09-02T22:09:07Z</time>
  <course>230.41</course>
  <speed>0.9730878685915265</speed>
  <fix>3d</fix>
</trkpt>
<trkpt lat="33.8108212" lon="-118.3935759">
  <ele>-8.6</ele>
  <time>2026-09-02T22:09:07Z</time>
  <course>229.08</course>
  <speed>1.0</speed>
  <fix>3d</fix>
</trkpt>
<trkpt lat="33.8108195" lon="-118.3935787">
  <ele>-8.711</ele>
  <time>2026-09-02T22:09:07Z</time>
  <course>230.42</course>
  <speed>0.9730878685915265</speed>
  <fix>3d</fix>
</trkpt>
<trkpt lat="33.8108201" lon="-118.3935775">
  <ele>-8.55</ele>
  <time>2026-09-02T22:09:07Z</time>
  <course>229.11</course>
  <speed>1.0</speed>
  <fix>3d</fix>
</trkpt>
<trkpt lat="33.8108189" lon="-118.3935795">
  <ele>-8.687</ele>
  <time>2026-09-02T22:09:07Z</time>
  <course>230.42</course>
  <speed>0.9730878685915265</speed>
  <fix>3d</fix>
</trkpt>
<trkpt lat="33.8108201" lon="-118.3935775">
  <ele>-8.55</ele>
  <time>2026-09-02T22:09:07Z</time>
  <course>229.11</course>
  <speed>1.0</speed>
  <fix>3d</fix>
</trkpt>
<trkpt lat="33.8108183" lon="-118.3935803">
  <ele>-8.664</ele>
  <time>2026-09-02T22:09:07Z</time>
  <course>230.41</course>
  <speed>0.9730878685915265</speed>
  <fix>3d</fix>
</trkpt>
<trkpt lat="33.8108189" lon="-118.3935792">
  <ele>-8.51</ele>
  <time>2026-09-02T22:09:07Z</time>
  <course>229.13</course>
  <speed>1.0</speed>
  <fix>3d</fix>
</trkpt>
<trkpt lat="33.8108177" lon="-118.3935811">
  <ele>-8.64</ele>
  <time>2026-09-02T22:09:07Z</time>
  <course>230.39</course>
  <speed>0.9730878685915265</speed>
  <fix>3d</fix>
</trkpt>
<trkpt lat="33.8108189" lon="-118.3935792">
  <ele>-8.51</ele>
  <time>2026-09-02T22:09:07Z</time>
  <course>229.13</course>
  <speed>1.0</speed>
  <fix>3d</fix>
</trkpt>
<trkpt lat="33.8108172" lon="-118.3935819">
  <ele>-8.615</ele>
  <time>2026-09-02T22:09:07Z</time>
  <course>230.37</course>
  <speed>0.9730878685915265</speed>
  <fix>3d</fix>
</trkpt>
<trkpt lat="33.8108177" lon="-118.3935809">
  <ele>-8.46</ele>
  <time>2026-09-02T22:09:07Z</time>
  <course>229.11</course>
  <speed>1.0</speed>
  <fix>3d</fix>
</trkpt>
<trkpt lat="33.8108166" lon="-118.3935827">
  <ele>-8.589</ele>
  <time>2026-09-02T22:09:07Z</time>
  <course>230.34</course>
  <speed>0.9730878685915265</speed>
  <fix>3d</fix>
</trkpt>
<trkpt lat="33.8108177" lon="-118.3935809">
  <ele>-8.46</ele>
  <time>2026-09-02T22:09:07Z</time>
  <course>229.11</course>
  <speed>1.0</speed>
  <fix>3d</fix>
</trkpt>
<trkpt lat="33.810816" lon="-118.3935836">
  <ele>-8.563</ele>
  <time>2026-09-02T22:09:07Z</time>
  <course>230.3</course>
  <speed>0.9730878685915265</speed>
  <fix>3d</fix>
</trkpt>
<trkpt lat="33.8108165" lon="-118.3935825">
  <ele>-8.41</ele>
  <time>2026-09-02T22:09:07Z</time>
  <course>229.04</course>
  <speed>1.0</speed>
  <fix>3d</fix>
</trkpt>
<trkpt lat="33.8108154" lon="-118.3935844">
  <ele>-8.536</ele>
  <time>2026-09-02T22:09:07Z</time>
  <course>230.28</course>
  <speed>0.9730878685915265</speed>
  <fix>3d</fix>
</trkpt>
<trkpt lat="33.8108165" lon="-118.3935825">
  <ele>-8.41</ele>
  <time>2026-09-02T22:09:07Z</time>
  <course>229.04</course>
  <speed>1.0</speed>
  <fix>3d</fix>
</trkpt>
<trkpt lat="33.8108148" lon="-118.3935852">
  <ele>-8.511</ele>
  <time>2026-09-02T22:09:07Z</time>
  <course>230.26</course>
  <speed>0.9730878685915265</speed>
  <fix>3d</fix>
</trkpt>
<trkpt lat="33.8108153" lon="-118.3935841">
  <ele>-8.36</ele>
  <time>2026-09-02T22:09:07Z</time>
  <course>229.0</course>
  <speed>1.0</speed>
  <fix>3d</fix>
</trkpt>
<trkpt lat="33.8108142" lon="-118.393586">
  <ele>-8.487</ele>
  <time>2026-09-02T22:09:07Z</time>
  <course>230.25</course>
  <speed>0.9730878685915265</speed>
  <fix>3d</fix>
</trkpt>
<trkpt lat="33.8108153" lon="-118.3935841">
  <ele>-8.36</ele>
  <time>2026-09-02T22:09:07Z</time>
  <course>229.0</course>
  <speed>1.0</speed>
  <fix>3d</fix>
</trkpt>
<trkpt lat="33.8108136" lon="-118.3935869">
  <ele>-8.464</ele>
  <time>2026-09-02T22:09:07Z</time>
  <course>230.26</course>
  <speed>0.9730878685915265</speed>
  <fix>3d</fix>
</trkpt>
<trkpt lat="33.8108141" lon="-118.3935858">
  <ele>-8.31</ele>
  <time>2026-09-02T22:09:07Z</time>
  <course>229.01</course>
  <speed>1.0</speed>
  <fix>3d</fix>
</trkpt>
<trkpt lat="33.810813" lon="-118.3935877">
  <ele>-8.44</ele>
  <time>2026-09-02T22:09:07Z</time>
  <course>230.28</course>
  <speed>0.9730878685915265</speed>
  <fix>3d</fix>
</trkpt>
<trkpt lat="33.8108141" lon="-118.3935858">
  <ele>-8.31</ele>
  <time>2026-09-02T22:09:07Z</time>
  <course>229.01</course>
  <speed>1.0</speed>
  <fix>3d</fix>
</trkpt>
<trkpt lat="33.8108124" lon="-118.3935885">
  <ele>-8.415</ele>
  <time>2026-09-02T22:09:07Z</time>
  <course>230.3</course>
  <speed>0.9730878685915265</speed>
  <fix>3d</fix>
</trkpt>
<trkpt lat="33.8108129" lon="-118.3935874">
  <ele>-8.26</ele>
  <time>2026-09-02T22:09:07Z</time>
  <course>229.06</course>
  <speed>0.99</speed>
  <fix>3d</fix>
</trkpt>
<trkpt lat="33.8108118" lon="-118.3935893">
  <ele>-8.391</ele>
  <time>2026-09-02T22:09:07Z</time>
  <course>230.32</course>
  <speed>0.9730878685915265</speed>
  <fix>3d</fix>
</trkpt>
<trkpt lat="33.8108129" lon="-118.3935874">
  <ele>-8.26</ele>
  <time>2026-09-02T22:09:07Z</time>
  <course>229.06</course>
  <speed>0.99</speed>
  <fix>3d</fix>
</trkpt>
<trkpt lat="33.8108112" lon="-118.3935901">
  <ele>-8.367</ele>
  <time>2026-09-02T22:09:07Z</time>
  <course>230.34</course>
  <speed>0.9730878685915265</speed>
  <fix>3d</fix>
</trkpt>
<trkpt lat="33.8108117" lon="-118.393589">
  <ele>-8.21</ele>
  <time>2026-09-02T22:09:07Z</time>
  <course>229.1</course>
  <speed>0.99</speed>
  <fix>3d</fix>
</trkpt>
<trkpt lat="33.8108106" lon="-118.3935909">
  <ele>-8.343</ele>
  <time>2026-09-02T22:09:07Z</time>
  <course>230.37</course>
  <speed>0.9730878685915265</speed>
  <fix>3d</fix>
</trkpt>
<trkpt lat="33.8108117" lon="-118.393589">
  <ele>-8.21</ele>
  <time>2026-09-02T22:09:07Z</time>
  <course>229.1</course>
  <speed>0.99</speed>
  <fix>3d</fix>
</trkpt>
<trkpt lat="33.8108101" lon="-118.3935918">
  <ele>-8.318</ele>
  <time>2026-09-02T22:09:07Z</time>
  <course>230.41</course>
  <speed>0.9730878685915265</speed>
  <fix>3d</fix>
</trkpt>
<trkpt lat="33.8108106" lon="-118.3935907">
  <ele>-8.17</ele>
  <time>2026-09-02T22:09:07Z</time>
  <course>229.16</course>
  <speed>0.99</speed>
  <fix>3d</fix>
</trkpt>
<trkpt lat="33.8108095" lon="-118.3935926">
  <ele>-8.294</ele>
  <time>2026-09-02T22:09:07Z</time>
  <course>230.44</course>
  <speed>0.9730878685915265</speed>
  <fix>3d</fix>
</trkpt>
<trkpt lat="33.8108106" lon="-118.3935907">
  <ele>-8.17</ele>
  <time>2026-09-02T22:09:07Z</time>
  <course>229.16</course>
  <speed>0.99</speed>
  <fix>3d</fix>
</trkpt>
<trkpt lat="33.8108089" lon="-118.3935934">
  <ele>-8.269</ele>
  <time>2026-09-02T22:09:07Z</time>
  <course>230.45</course>
  <speed>0.9730878685915265</speed>
  <fix>3d</fix>
</trkpt>
<trkpt lat="33.8108095" lon="-118.3935923">
  <ele>-8.12</ele>
  <time>2026-09-02T22:09:07Z</time>
  <course>229.19</course>
  <speed>0.99</speed>
  <fix>3d</fix>
</trkpt>
<trkpt lat="33.8108083" lon="-118.3935942">
  <ele>-8.243</ele>
  <time>2026-09-02T22:09:07Z</time>
  <course>230.44</course>
  <speed>0.9654014708917736</speed>
  <fix>3d</fix>
</trkpt>
<trkpt lat="33.8108095" lon="-118.3935923">
  <ele>-8.12</ele>
  <time>2026-09-02T22:09:07Z</time>
  <course>229.19</course>
  <speed>0.99</speed>
  <fix>3d</fix>
</trkpt>
<trkpt lat="33.8108077" lon="-118.393595">
  <ele>-8.218</ele>
  <time>2026-09-02T22:09:07Z</time>
  <course>230.41</course>
  <speed>0.9730878685915265</speed>
  <fix>3d</fix>
</trkpt>
<trkpt lat="33.8108083" lon="-118.3935939">
  <ele>-8.07</ele>
  <time>2026-09-02T22:09:07Z</time>
  <course>229.15</course>
  <speed>0.99</speed>
  <fix>3d</fix>
</trkpt>
<trkpt lat="33.8108071" lon="-118.3935959">
  <ele>-8.194</ele>
  <time>2026-09-02T22:09:07Z</time>
  <course>230.38</course>
  <speed>0.9730878685915265</speed>
  <fix>3d</fix>
</trkpt>
<trkpt lat="33.8108083" lon="-118.3935939">
  <ele>-8.07</ele>
  <time>2026-09-02T22:09:07Z</time>
  <course>229.15</course>
  <speed>0.99</speed>
  <fix>3d</fix>
</trkpt>
<trkpt lat="33.8108065" lon="-118.3935967">
  <ele>-8.171</ele>
  <time>2026-09-02T22:09:07Z</time>
  <course>230.34</course>
  <speed>0.9730878685915265</speed>
  <fix>3d</fix>
</trkpt>
<trkpt lat="33.8108071" lon="-118.3935956">
  <ele>-8.02</ele>
  <time>2026-09-02T22:09:07Z</time>
  <course>229.1</course>
  <speed>0.99</speed>
  <fix>3d</fix>
</trkpt>
<trkpt lat="33.810806" lon="-118.3935975">
  <ele>-8.148</ele>
  <time>2026-09-02T22:09:07Z</time>
  <course>230.31</course>
  <speed>0.9730878685915265</speed>
  <fix>3d</fix>
</trkpt>
<trkpt lat="33.8108071" lon="-118.3935956">
  <ele>-8.02</ele>
  <time>2026-09-02T22:09:07Z</time>
  <course>229.1</course>
  <speed>0.99</speed>
  <fix>3d</fix>
</trkpt>
<trkpt lat="33.8108054" lon="-118.3935983">
  <ele>-8.124</ele>
  <time>2026-09-02T22:09:07Z</time>
  <course>230.28</course>
  <speed>0.9730878685915265</speed>
  <fix>3d</fix>
</trkpt>
<trkpt lat="33.810806" lon="-118.3935971">
  <ele>-7.97</ele>
  <time>2026-09-02T22:09:07Z</time>
  <course>229.06</course>
  <speed>0.99</speed>
  <fix>3d</fix>
</trkpt>
<trkpt lat="33.8108048" lon="-118.3935991">
  <ele>-8.099</ele>
  <time>2026-09-02T22:09:07Z</time>
  <course>230.26</course>
  <speed>0.9730878685915265</speed>
  <fix>3d</fix>
</trkpt>
<trkpt lat="33.810806" lon="-118.3935971">
  <ele>-7.97</ele>
  <time>2026-09-02T22:09:07Z</time>
  <course>229.06</course>
  <speed>0.99</speed>
  <fix>3d</fix>
</trkpt>
<trkpt lat="33.8108042" lon="-118.3935999">
  <ele>-8.073</ele>
  <time>2026-09-02T22:09:07Z</time>
  <course>230.24</course>
  <speed>0.9730878685915265</speed>
  <fix>3d</fix>
</trkpt>
<trkpt lat="33.8108048" lon="-118.3935988">
  <ele>-7.92</ele>
  <time>2026-09-02T22:09:07Z</time>
  <course>229.01</course>
  <speed>0.99</speed>
  <fix>3d</fix>
</trkpt>
<trkpt lat="33.8108036" lon="-118.3936008">
  <ele>-8.045</ele>
  <time>2026-09-02T22:09:07Z</time>
  <course>230.23</course>
  <speed>0.9730878685915265</speed>
  <fix>3d</fix>
</trkpt>
<trkpt lat="33.8108048" lon="-118.3935988">
  <ele>-7.92</ele>
  <time>2026-09-02T22:09:07Z</time>
  <course>229.01</course>
  <speed>0.99</speed>
  <fix>3d</fix>
</trkpt>
<trkpt lat="33.810803" lon="-118.3936016">
  <ele>-8.019</ele>
  <time>2026-09-02T22:09:07Z</time>
  <course>230.21</course>
  <speed>0.9730878685915265</speed>
  <fix>3d</fix>
</trkpt>
<trkpt lat="33.8108036" lon="-118.3936005">
  <ele>-7.87</ele>
  <time>2026-09-02T22:09:07Z</time>
  <course>228.98</course>
  <speed>1.0</speed>
  <fix>3d</fix>
</trkpt>
<trkpt lat="33.8108024" lon="-118.3936024">
  <ele>-7.994</ele>
  <time>2026-09-02T22:09:07Z</time>
  <course>230.2</course>
  <speed>0.9730878685915265</speed>
  <fix>3d</fix>
</trkpt>
<trkpt lat="33.8108036" lon="-118.3936005">
  <ele>-7.87</ele>
  <time>2026-09-02T22:09:07Z</time>
  <course>228.98</course>
  <speed>1.0</speed>
  <fix>3d</fix>
</trkpt>
<trkpt lat="33.8108018" lon="-118.3936032">
  <ele>-7.968</ele>
  <time>2026-09-02T22:09:07Z</time>
  <course>230.18</course>
  <speed>0.9730878685915265</speed>
  <fix>3d</fix>
</trkpt>
<trkpt lat="33.8108024" lon="-118.3936021">
  <ele>-7.82</ele>
  <time>2026-09-02T22:09:07Z</time>
  <course>228.95</course>
  <speed>1.0</speed>
  <fix>3d</fix>
</trkpt>
<trkpt lat="33.8108013" lon="-118.393604">
  <ele>-7.943</ele>
  <time>2026-09-02T22:09:07Z</time>
  <course>230.16</course>
  <speed>0.9730878685915265</speed>
  <fix>3d</fix>
</trkpt>
<trkpt lat="33.8108024" lon="-118.3936021">
  <ele>-7.82</ele>
  <time>2026-09-02T22:09:07Z</time>
  <course>228.95</course>
  <speed>1.0</speed>
  <fix>3d</fix>
</trkpt>
<trkpt lat="33.8108007" lon="-118.3936048">
  <ele>-7.918</ele>
  <time>2026-09-02T22:09:07Z</time>
  <course>230.16</course>
  <speed>0.9730878685915265</speed>
  <fix>3d</fix>
</trkpt>
<trkpt lat="33.8108012" lon="-118.3936037">
  <ele>-7.78</ele>
  <time>2026-09-02T22:09:07Z</time>
  <course>228.93</course>
  <speed>1.0</speed>
  <fix>3d</fix>
</trkpt>
<trkpt lat="33.8108001" lon="-118.3936057">
  <ele>-7.893</ele>
  <time>2026-09-02T22:09:07Z</time>
  <course>230.16</course>
  <speed>0.9730878685915265</speed>
  <fix>3d</fix>
</trkpt>
<trkpt lat="33.8108012" lon="-118.3936037">
  <ele>-7.78</ele>
  <time>2026-09-02T22:09:07Z</time>
  <course>228.93</course>
  <speed>1.0</speed>
  <fix>3d</fix>
</trkpt>
<trkpt lat="33.8107995" lon="-118.3936065">
  <ele>-7.87</ele>
  <time>2026-09-02T22:09:07Z</time>
  <course>230.19</course>
  <speed>0.9730878685915265</speed>
  <fix>3d</fix>
</trkpt>
<trkpt lat="33.8108001" lon="-118.3936053">
  <ele>-7.73</ele>
  <time>2026-09-02T22:09:07Z</time>
  <course>228.95</course>
  <speed>0.99</speed>
  <fix>3d</fix>
</trkpt>
<trkpt lat="33.8107989" lon="-118.3936073">
  <ele>-7.847</ele>
  <time>2026-09-02T22:09:07Z</time>
  <course>230.2</course>
  <speed>0.9730878685915265</speed>
  <fix>3d</fix>
</trkpt>
<trkpt lat="33.8108001" lon="-118.3936053">
  <ele>-7.73</ele>
  <time>2026-09-02T22:09:07Z</time>
  <course>228.95</course>
  <speed>0.99</speed>
  <fix>3d</fix>
</trkpt>
<trkpt lat="33.8107983" lon="-118.3936081">
  <ele>-7.824</ele>
  <time>2026-09-02T22:09:07Z</time>
  <course>230.22</course>
  <speed>0.9730878685915265</speed>
  <fix>3d</fix>
</trkpt>
<trkpt lat="33.8107989" lon="-118.393607">
  <ele>-7.69</ele>
  <time>2026-09-02T22:09:07Z</time>
  <course>228.98</course>
  <speed>1.0</speed>
  <fix>3d</fix>
</trkpt>
<trkpt lat="33.8107977" lon="-118.3936089">
  <ele>-7.799</ele>
  <time>2026-09-02T22:09:07Z</time>
  <course>230.23</course>
  <speed>0.9730878685915265</speed>
  <fix>3d</fix>
</trkpt>
<trkpt lat="33.8107989" lon="-118.393607">
  <ele>-7.69</ele>
  <time>2026-09-02T22:09:07Z</time>
  <course>228.98</course>
  <speed>1.0</speed>
  <fix>3d</fix>
</trkpt>
<trkpt lat="33.8107971" lon="-118.3936098">
  <ele>-7.775</ele>
  <time>2026-09-02T22:09:07Z</time>
  <course>230.23</course>
  <speed>0.9730878685915265</speed>
  <fix>3d</fix>
</trkpt>
<trkpt lat="33.8107976" lon="-118.3936086">
  <ele>-7.64</ele>
  <time>2026-09-02T22:09:07Z</time>
  <course>228.98</course>
  <speed>1.0</speed>
  <fix>3d</fix>
</trkpt>
<trkpt lat="33.8107965" lon="-118.3936106">
  <ele>-7.751</ele>
  <time>2026-09-02T22:09:07Z</time>
  <course>230.23</course>
  <speed>0.9730878685915265</speed>
  <fix>3d</fix>
</trkpt>
<trkpt lat="33.8107976" lon="-118.3936086">
  <ele>-7.64</ele>
  <time>2026-09-02T22:09:07Z</time>
  <course>228.98</course>
  <speed>1.0</speed>
  <fix>3d</fix>
</trkpt>
<trkpt lat="33.8107959" lon="-118.3936114">
  <ele>-7.728</ele>
  <time>2026-09-02T22:09:07Z</time>
  <course>230.26</course>
  <speed>0.9730878685915265</speed>
  <fix>3d</fix>
</trkpt>
<trkpt lat="33.8107964" lon="-118.3936102">
  <ele>-7.59</ele>
  <time>2026-09-02T22:09:07Z</time>
  <course>229.01</course>
  <speed>1.0</speed>
  <fix>3d</fix>
</trkpt>
<trkpt lat="33.8107953" lon="-118.3936122">
  <ele>-7.703</ele>
  <time>2026-09-02T22:09:07Z</time>
  <course>230.31</course>
  <speed>0.9730878685915265</speed>
  <fix>3d</fix>
</trkpt>
<trkpt lat="33.8107964" lon="-118.3936102">
  <ele>-7.59</ele>
  <time>2026-09-02T22:09:07Z</time>
  <course>229.01</course>
  <speed>1.0</speed>
  <fix>3d</fix>
</trkpt>
<trkpt lat="33.8107948" lon="-118.393613">
  <ele>-7.678</ele>
  <time>2026-09-02T22:09:07Z</time>
  <course>230.37</course>
  <speed>0.9730878685915265</speed>
  <fix>3d</fix>
</trkpt>
<trkpt lat="33.8107953" lon="-118.3936119">
  <ele>-7.54</ele>
  <time>2026-09-02T22:09:07Z</time>
  <course>229.12</course>
  <speed>1.0</speed>
  <fix>3d</fix>
</trkpt>
<trkpt lat="33.8107942" lon="-118.3936138">
  <ele>-7.652</ele>
  <time>2026-09-02T22:09:07Z</time>
  <course>230.43</course>
  <speed>0.9730878685915265</speed>
  <fix>3d</fix>
</trkpt>
<trkpt lat="33.8107953" lon="-118.3936119">
  <ele>-7.54</ele>
  <time>2026-09-02T22:09:07Z</time>
  <course>229.12</course>
  <speed>1.0</speed>
  <fix>3d</fix>
</trkpt>
<trkpt lat="33.8107936" lon="-118.3936147">
  <ele>-7.628</ele>
  <time>2026-09-02T22:09:07Z</time>
  <course>230.48</course>
  <speed>0.9730878685915265</speed>
  <fix>3d</fix>
</trkpt>
<trkpt lat="33.8107941" lon="-118.3936135">
  <ele>-7.49</ele>
  <time>2026-09-02T22:09:07Z</time>
  <course>229.2</course>
  <speed>0.99</speed>
  <fix>3d</fix>
</trkpt>
<trkpt lat="33.810793" lon="-118.3936155">
  <ele>-7.604</ele>
  <time>2026-09-02T22:09:07Z</time>
  <course>230.5</course>
  <speed>0.9730878685915265</speed>
  <fix>3d</fix>
</trkpt>
<trkpt lat="33.8107941" lon="-118.3936135">
  <ele>-7.49</ele>
  <time>2026-09-02T22:09:07Z</time>
  <course>229.2</course>
  <speed>0.99</speed>
  <fix>3d</fix>
</trkpt>
<trkpt lat="33.8107924" lon="-118.3936163">
  <ele>-7.579</ele>
  <time>2026-09-02T22:09:07Z</time>
  <course>230.51</course>
  <speed>0.9730878685915265</speed>
  <fix>3d</fix>
</trkpt>
<trkpt lat="33.8107929" lon="-118.3936152">
  <ele>-7.45</ele>
  <time>2026-09-02T22:09:07Z</time>
  <course>229.21</course>
  <speed>0.99</speed>
  <fix>3d</fix>
</trkpt>
<trkpt lat="33.8107918" lon="-118.3936171">
  <ele>-7.554</ele>
  <time>2026-09-02T22:09:07Z</time>
  <course>230.52</course>
  <speed>0.9730878685915265</speed>
  <fix>3d</fix>
</trkpt>
<trkpt lat="33.8107929" lon="-118.3936152">
  <ele>-7.45</ele>
  <time>2026-09-02T22:09:07Z</time>
  <course>229.21</course>
  <speed>0.99</speed>
  <fix>3d</fix>
</trkpt>
<trkpt lat="33.8107912" lon="-118.3936179">
  <ele>-7.529</ele>
  <time>2026-09-02T22:09:07Z</time>
  <course>230.52</course>
  <speed>0.9730878685915265</speed>
  <fix>3d</fix>
</trkpt>
<trkpt lat="33.8107917" lon="-118.3936168">
  <ele>-7.4</ele>
  <time>2026-09-02T22:09:07Z</time>
  <course>229.21</course>
  <speed>0.99</speed>
  <fix>3d</fix>
</trkpt>
<trkpt lat="33.8107906" lon="-118.3936188">
  <ele>-7.504</ele>
  <time>2026-09-02T22:09:07Z</time>
  <course>230.53</course>
  <speed>0.9730878685915265</speed>
  <fix>3d</fix>
</trkpt>
<trkpt lat="33.8107917" lon="-118.3936168">
  <ele>-7.4</ele>
  <time>2026-09-02T22:09:07Z</time>
  <course>229.21</course>
  <speed>0.99</speed>
  <fix>3d</fix>
</trkpt>
<trkpt lat="33.81079" lon="-118.3936196">
  <ele>-7.479</ele>
  <time>2026-09-02T22:09:07Z</time>
  <course>230.55</course>
  <speed>0.9730878685915265</speed>
  <fix>3d</fix>
</trkpt>
<trkpt lat="33.8107906" lon="-118.3936184">
  <ele>-7.35</ele>
  <time>2026-09-02T22:09:07Z</time>
  <course>229.22</course>
  <speed>0.99</speed>
  <fix>3d</fix>
</trkpt>
<trkpt lat="33.8107894" lon="-118.3936204">
  <ele>-7.454</ele>
  <time>2026-09-02T22:09:07Z</time>
  <course>230.56</course>
  <speed>0.9730878685915265</speed>
  <fix>3d</fix>
</trkpt>
<trkpt lat="33.8107906" lon="-118.3936184">
  <ele>-7.35</ele>
  <time>2026-09-02T22:09:07Z</time>
  <course>229.22</course>
  <speed>0.99</speed>
  <fix>3d</fix>
</trkpt>
<trkpt lat="33.8107889" lon="-118.3936212">
  <ele>-7.43</ele>
  <time>2026-09-02T22:09:07Z</time>
  <course>230.57</course>
  <speed>0.9730878685915265</speed>
  <fix>3d</fix>
</trkpt>
<trkpt lat="33.8107895" lon="-118.3936201">
  <ele>-7.3</ele>
  <time>2026-09-02T22:09:07Z</time>
  <course>229.23</course>
  <speed>0.99</speed>
  <fix>3d</fix>
</trkpt>
<trkpt lat="33.8107883" lon="-118.393622">
  <ele>-7.405</ele>
  <time>2026-09-02T22:09:07Z</time>
  <course>230.55</course>
  <speed>0.9730878685915265</speed>
  <fix>3d</fix>
</trkpt>
<trkpt lat="33.8107895" lon="-118.3936201">
  <ele>-7.3</ele>
  <time>2026-09-02T22:09:07Z</time>
  <course>229.23</course>
  <speed>0.99</speed>
  <fix>3d</fix>
</trkpt>
<trkpt lat="33.8107877" lon="-118.3936228">
  <ele>-7.379</ele>
  <time>2026-09-02T22:09:07Z</time>
  <course>230.51</course>
  <speed>0.9730878685915265</speed>
  <fix>3d</fix>
</trkpt>
<trkpt lat="33.8107883" lon="-118.3936216">
  <ele>-7.25</ele>
  <time>2026-09-02T22:09:07Z</time>
  <course>229.18</course>
  <speed>0.99</speed>
  <fix>3d</fix>
</trkpt>
<trkpt lat="33.8107871" lon="-118.3936237">
  <ele>-7.354</ele>
  <time>2026-09-02T22:09:07Z</time>
  <course>230.47</course>
  <speed>0.9730878685915265</speed>
  <fix>3d</fix>
</trkpt>
<trkpt lat="33.8107883" lon="-118.3936216">
  <ele>-7.25</ele>
  <time>2026-09-02T22:09:07Z</time>
  <course>229.18</course>
  <speed>0.99</speed>
  <fix>3d</fix>
</trkpt>
<trkpt lat="33.8107865" lon="-118.3936245">
  <ele>-7.329</ele>
  <time>2026-09-02T22:09:07Z</time>
  <course>230.44</course>
  <speed>0.9730878685915265</speed>
  <fix>3d</fix>
</trkpt>
<trkpt lat="33.8107871" lon="-118.3936233">
  <ele>-7.21</ele>
  <time>2026-09-02T22:09:07Z</time>
  <course>229.11</course>
  <speed>0.99</speed>
  <fix>3d</fix>
</trkpt>
<trkpt lat="33.8107859" lon="-118.3936253">
  <ele>-7.304</ele>
  <time>2026-09-02T22:09:07Z</time>
  <course>230.42</course>
  <speed>0.9730878685915265</speed>
  <fix>3d</fix>
</trkpt>
<trkpt lat="33.8107871" lon="-118.3936233">
  <ele>-7.21</ele>
  <time>2026-09-02T22:09:07Z</time>
  <course>229.11</course>
  <speed>0.99</speed>
  <fix>3d</fix>
</trkpt>
<trkpt lat="33.8107853" lon="-118.3936261">
  <ele>-7.28</ele>
  <time>2026-09-02T22:09:07Z</time>
  <course>230.4</course>
  <speed>0.9730878685915265</speed>
  <fix>3d</fix>
</trkpt>
<trkpt lat="33.810786" lon="-118.3936249">
  <ele>-7.16</ele>
  <time>2026-09-02T22:09:07Z</time>
  <course>229.09</course>
  <speed>1.0</speed>
  <fix>3d</fix>
</trkpt>
<trkpt lat="33.8107848" lon="-118.3936269">
  <ele>-7.257</ele>
  <time>2026-09-02T22:09:07Z</time>
  <course>230.39</course>
  <speed>0.9730878685915265</speed>
  <fix>3d</fix>
</trkpt>
<trkpt lat="33.810786" lon="-118.3936249">
  <ele>-7.16</ele>
  <time>2026-09-02T22:09:07Z</time>
  <course>229.09</course>
  <speed>1.0</speed>
  <fix>3d</fix>
</trkpt>
<trkpt lat="33.8107842" lon="-118.3936277">
  <ele>-7.234</ele>
  <time>2026-09-02T22:09:07Z</time>
  <course>230.37</course>
  <speed>0.9730878685915265</speed>
  <fix>3d</fix>
</trkpt>
<trkpt lat="33.8107848" lon="-118.3936266">
  <ele>-7.11</ele>
  <time>2026-09-02T22:09:07Z</time>
  <course>229.09</course>
  <speed>1.0</speed>
  <fix>3d</fix>
</trkpt>
<trkpt lat="33.8107836" lon="-118.3936286">
  <ele>-7.212</ele>
  <time>2026-09-02T22:09:07Z</time>
  <course>230.34</course>
  <speed>0.9730878685915265</speed>
  <fix>3d</fix>
</trkpt>
<trkpt lat="33.8107848" lon="-118.3936266">
  <ele>-7.11</ele>
  <time>2026-09-02T22:09:07Z</time>
  <course>229.09</course>
  <speed>1.0</speed>
  <fix>3d</fix>
</trkpt>
<trkpt lat="33.810783" lon="-118.3936294">
  <ele>-7.189</ele>
  <time>2026-09-02T22:09:07Z</time>
  <course>230.31</course>
  <speed>0.9730878685915265</speed>
  <fix>3d</fix>
</trkpt>
<trkpt lat="33.8107836" lon="-118.3936282">
  <ele>-7.06</ele>
  <time>2026-09-02T22:09:07Z</time>
  <course>229.06</course>
  <speed>1.0</speed>
  <fix>3d</fix>
</trkpt>
<trkpt lat="33.8107824" lon="-118.3936302">
  <ele>-7.166</ele>
  <time>2026-09-02T22:09:07Z</time>
  <course>230.28</course>
  <speed>0.9730878685915265</speed>
  <fix>3d</fix>
</trkpt>
<trkpt lat="33.8107836" lon="-118.3936282">
  <ele>-7.06</ele>
  <time>2026-09-02T22:09:07Z</time>
  <course>229.06</course>
  <speed>1.0</speed>
  <fix>3d</fix>
</trkpt>
<trkpt lat="33.8107818" lon="-118.393631">
  <ele>-7.141</ele>
  <time>2026-09-02T22:09:07Z</time>
  <course>230.25</course>
  <speed>0.9730878685915265</speed>
  <fix>3d</fix>
</trkpt>
<trkpt lat="33.8107824" lon="-118.3936299">
  <ele>-7.01</ele>
  <time>2026-09-02T22:09:07Z</time>
  <course>229.02</course>
  <speed>1.0</speed>
  <fix>3d</fix>
</trkpt>
<trkpt lat="33.8107812" lon="-118.3936318">
  <ele>-7.116</ele>
  <time>2026-09-02T22:09:07Z</time>
  <course>230.24</course>
  <speed>0.9730878685915265</speed>
  <fix>3d</fix>
</trkpt>
<trkpt lat="33.8107824" lon="-118.3936299">
  <ele>-7.01</ele>
  <time>2026-09-02T22:09:07Z</time>
  <course>229.02</course>
  <speed>1.0</speed>
  <fix>3d</fix>
</trkpt>
<trkpt lat="33.8107806" lon="-118.3936327">
  <ele>-7.089</ele>
  <time>2026-09-02T22:09:07Z</time>
  <course>230.22</course>
  <speed>0.9730878685915265</speed>
  <fix>3d</fix>
</trkpt>
<trkpt lat="33.8107812" lon="-118.3936315">
  <ele>-6.96</ele>
  <time>2026-09-02T22:09:07Z</time>
  <course>228.98</course>
  <speed>1.0</speed>
  <fix>3d</fix>
</trkpt>
<trkpt lat="33.81078" lon="-118.3936335">
  <ele>-7.063</ele>
  <time>2026-09-02T22:09:07Z</time>
  <course>230.21</course>
  <speed>0.9730878685915265</speed>
  <fix>3d</fix>
</trkpt>
<trkpt lat="33.8107812" lon="-118.3936315">
  <ele>-6.96</ele>
  <time>2026-09-02T22:09:07Z</time>
  <course>228.98</course>
  <speed>1.0</speed>
  <fix>3d</fix>
</trkpt>
<trkpt lat="33.8107795" lon="-118.3936343">
  <ele>-7.036</ele>
  <time>2026-09-02T22:09:07Z</time>
  <course>230.22</course>
  <speed>0.9730878685915265</speed>
  <fix>3d</fix>
</trkpt>
<trkpt lat="33.81078" lon="-118.3936331">
  <ele>-6.91</ele>
  <time>2026-09-02T22:09:07Z</time>
  <course>228.97</course>
  <speed>1.0</speed>
  <fix>3d</fix>
</trkpt>
<trkpt lat="33.8107789" lon="-118.3936351">
  <ele>-7.009</ele>
  <time>2026-09-02T22:09:07Z</time>
  <course>230.24</course>
  <speed>0.9730878685915265</speed>
  <fix>3d</fix>
</trkpt>
<trkpt lat="33.81078" lon="-118.3936331">
  <ele>-6.91</ele>
  <time>2026-09-02T22:09:07Z</time>
  <course>228.97</course>
  <speed>1.0</speed>
  <fix>3d</fix>
</trkpt>
<trkpt lat="33.8107783" lon="-118.3936359">
  <ele>-6.984</ele>
  <time>2026-09-02T22:09:07Z</time>
  <course>230.27</course>
  <speed>0.9730878685915265</speed>
  <fix>3d</fix>
</trkpt>
<trkpt lat="33.8107788" lon="-118.3936348">
  <ele>-6.86</ele>
  <time>2026-09-02T22:09:07Z</time>
  <course>229.02</course>
  <speed>1.0</speed>
  <fix>3d</fix>
</trkpt>
<trkpt lat="33.8107777" lon="-118.3936368">
  <ele>-6.96</ele>
  <time>2026-09-02T22:09:07Z</time>
  <course>230.29</course>
  <speed>0.9730878685915265</speed>
  <fix>3d</fix>
</trkpt>
<trkpt lat="33.8107788" lon="-118.3936348">
  <ele>-6.86</ele>
  <time>2026-09-02T22:09:07Z</time>
  <course>229.02</course>
  <speed>1.0</speed>
  <fix>3d</fix>
</trkpt>
<trkpt lat="33.8107771" lon="-118.3936376">
  <ele>-6.936</ele>
  <time>2026-09-02T22:09:07Z</time>
  <course>230.32</course>
  <speed>0.9730878685915265</speed>
  <fix>3d</fix>
</trkpt>
<trkpt lat="33.8107776" lon="-118.3936364">
  <ele>-6.81</ele>
  <time>2026-09-02T22:09:07Z</time>
  <course>229.06</course>
  <speed>1.0</speed>
  <fix>3d</fix>
</trkpt>
<trkpt lat="33.8107765" lon="-118.3936384">
  <ele>-6.912</ele>
  <time>2026-09-02T22:09:07Z</time>
  <course>230.35</course>
  <speed>0.9730878685915265</speed>
  <fix>3d</fix>
</trkpt>
<trkpt lat="33.8107776" lon="-118.3936364">
  <ele>-6.81</ele>
  <time>2026-09-02T22:09:07Z</time>
  <course>229.06</course>
  <speed>1.0</speed>
  <fix>3d</fix>
</trkpt>
<trkpt lat="33.8107759" lon="-118.3936392">
  <ele>-6.889</ele>
  <time>2026-09-02T22:09:07Z</time>
  <course>230.39</course>
  <speed>0.9730878685915265</speed>
  <fix>3d</fix>
</trkpt>
<trkpt lat="33.8107765" lon="-118.393638">
  <ele>-6.76</ele>
  <time>2026-09-02T22:09:07Z</time>
  <course>229.12</course>
  <speed>0.99</speed>
  <fix>3d</fix>
</trkpt>
<trkpt lat="33.8107753" lon="-118.39364">
  <ele>-6.865</ele>
  <time>2026-09-02T22:09:07Z</time>
  <course>230.43</course>
  <speed>0.9730878685915265</speed>
  <fix>3d</fix>
</trkpt>
<trkpt lat="33.8107765" lon="-118.393638">
  <ele>-6.76</ele>
  <time>2026-09-02T22:09:07Z</time>
  <course>229.12</course>
  <speed>0.99</speed>
  <fix>3d</fix>
</trkpt>
<trkpt lat="33.8107747" lon="-118.3936408">
  <ele>-6.842</ele>
  <time>2026-09-02T22:09:07Z</time>
  <course>230.45</course>
  <speed>0.9730878685915265</speed>
  <fix>3d</fix>
</trkpt>
<trkpt lat="33.8107754" lon="-118.3936397">
  <ele>-6.72</ele>
  <time>2026-09-02T22:09:07Z</time>
  <course>229.16</course>
  <speed>0.99</speed>
  <fix>3d</fix>
</trkpt>
<trkpt lat="33.8107741" lon="-118.3936417">
  <ele>-6.817</ele>
  <time>2026-09-02T22:09:07Z</time>
  <course>230.44</course>
  <speed>0.9730878685915265</speed>
  <fix>3d</fix>
</trkpt>
<trkpt lat="33.8107754" lon="-118.3936397">
  <ele>-6.72</ele>
  <time>2026-09-02T22:09:07Z</time>
  <course>229.16</course>
  <speed>0.99</speed>
  <fix>3d</fix>
</trkpt>
<trkpt lat="33.8107736" lon="-118.3936425">
  <ele>-6.791</ele>
  <time>2026-09-02T22:09:07Z</time>
  <course>230.41</course>
  <speed>0.9730878685915265</speed>
  <fix>3d</fix>
</trkpt>
<trkpt lat="33.8107742" lon="-118.3936412">
  <ele>-6.67</ele>
  <time>2026-09-02T22:09:07Z</time>
  <course>229.12</course>
  <speed>0.99</speed>
  <fix>3d</fix>
</trkpt>
<trkpt lat="33.810773" lon="-118.3936433">
  <ele>-6.764</ele>
  <time>2026-09-02T22:09:07Z</time>
  <course>230.38</course>
  <speed>0.9730878685915265</speed>
  <fix>3d</fix>
</trkpt>
<trkpt lat="33.8107742" lon="-118.3936412">
  <ele>-6.67</ele>
  <time>2026-09-02T22:09:07Z</time>
  <course>229.12</course>
  <speed>0.99</speed>
  <fix>3d</fix>
</trkpt>
<trkpt lat="33.8107724" lon="-118.3936441">
  <ele>-6.738</ele>
  <time>2026-09-02T22:09:07Z</time>
  <course>230.36</course>
  <speed>0.9730878685915265</speed>
  <fix>3d</fix>
</trkpt>
<trkpt lat="33.810773" lon="-118.3936429">
  <ele>-6.62</ele>
  <time>2026-09-02T22:09:07Z</time>
  <course>229.06</course>
  <speed>1.0</speed>
  <fix>3d</fix>
</trkpt>
<trkpt lat="33.8107718" lon="-118.3936449">
  <ele>-6.712</ele>
  <time>2026-09-02T22:09:07Z</time>
  <course>230.34</course>
  <speed>0.9730878685915265</speed>
  <fix>3d</fix>
</trkpt>
<trkpt lat="33.810773" lon="-118.3936429">
  <ele>-6.62</ele>
  <time>2026-09-02T22:09:07Z</time>
  <course>229.06</course>
  <speed>1.0</speed>
  <fix>3d</fix>
</trkpt>
<trkpt lat="33.8107712" lon="-118.3936457">
  <ele>-6.686</ele>
  <time>2026-09-02T22:09:07Z</time>
  <course>230.34</course>
  <speed>0.9730878685915265</speed>
  <fix>3d</fix>
</trkpt>
<trkpt lat="33.8107718" lon="-118.3936445">
  <ele>-6.57</ele>
  <time>2026-09-02T22:09:07Z</time>
  <course>229.05</course>
  <speed>1.0</speed>
  <fix>3d</fix>
</trkpt>
<trkpt lat="33.8107706" lon="-118.3936466">
  <ele>-6.661</ele>
  <time>2026-09-02T22:09:07Z</time>
  <course>230.34</course>
  <speed>0.9730878685915265</speed>
  <fix>3d</fix>
</trkpt>
<trkpt lat="33.8107718" lon="-118.3936445">
  <ele>-6.57</ele>
  <time>2026-09-02T22:09:07Z</time>
  <course>229.05</course>
  <speed>1.0</speed>
  <fix>3d</fix>
</trkpt>
<trkpt lat="33.81077" lon="-118.3936474">
  <ele>-6.638</ele>
  <time>2026-09-02T22:09:07Z</time>
  <course>230.35</course>
  <speed>0.9730878685915265</speed>
  <fix>3d</fix>
</trkpt>
<trkpt lat="33.8107707" lon="-118.3936462">
  <ele>-6.52</ele>
  <time>2026-09-02T22:09:07Z</time>
  <course>229.07</course>
  <speed>1.0</speed>
  <fix>3d</fix>
</trkpt>
<trkpt lat="33.8107694" lon="-118.3936482">
  <ele>-6.614</ele>
  <time>2026-09-02T22:09:07Z</time>
  <course>230.35</course>
  <speed>0.9730878685915265</speed>
  <fix>3d</fix>
</trkpt>
<trkpt lat="33.8107707" lon="-118.3936462">
  <ele>-6.52</ele>
  <time>2026-09-02T22:09:07Z</time>
  <course>229.07</course>
  <speed>1.0</speed>
  <fix>3d</fix>
</trkpt>
<trkpt lat="33.8107689" lon="-118.393649">
  <ele>-6.589</ele>
  <time>2026-09-02T22:09:07Z</time>
  <course>230.33</course>
  <speed>0.9730878685915265</speed>
  <fix>3d</fix>
</trkpt>
<trkpt lat="33.8107695" lon="-118.3936478">
  <ele>-6.47</ele>
  <time>2026-09-02T22:09:07Z</time>
  <course>229.06</course>
  <speed>1.0</speed>
  <fix>3d</fix>
</trkpt>
<trkpt lat="33.8107683" lon="-118.3936498">
  <ele>-6.563</ele>
  <time>2026-09-02T22:09:07Z</time>
  <course>230.31</course>
  <speed>0.9730878685915265</speed>
  <fix>3d</fix>
</trkpt>
<trkpt lat="33.8107695" lon="-118.3936478">
  <ele>-6.47</ele>
  <time>2026-09-02T22:09:07Z</time>
  <course>229.06</course>
  <speed>1.0</speed>
  <fix>3d</fix>
</trkpt>
<trkpt lat="33.8107677" lon="-118.3936506">
  <ele>-6.538</ele>
  <time>2026-09-02T22:09:07Z</time>
  <course>230.29</course>
  <speed>0.9730878685915265</speed>
  <fix>3d</fix>
</trkpt>
<trkpt lat="33.8107683" lon="-118.3936495">
  <ele>-6.43</ele>
  <time>2026-09-02T22:09:07Z</time>
  <course>229.01</course>
  <speed>1.0</speed>
  <fix>3d</fix>
</trkpt>
<trkpt lat="33.8107671" lon="-118.3936515">
  <ele>-6.514</ele>
  <time>2026-09-02T22:09:07Z</time>
  <course>230.26</course>
  <speed>0.9730878685915265</speed>
  <fix>3d</fix>
</trkpt>
<trkpt lat="33.8107683" lon="-118.3936495">
  <ele>-6.43</ele>
  <time>2026-09-02T22:09:07Z</time>
  <course>229.01</course>
  <speed>1.0</speed>
  <fix>3d</fix>
</trkpt>
<trkpt lat="33.8107665" lon="-118.3936523">
  <ele>-6.491</ele>
  <time>2026-09-02T22:09:07Z</time>
  <course>230.24</course>
  <speed>0.9730878685915265</speed>
  <fix>3d</fix>
</trkpt>
<trkpt lat="33.8107671" lon="-118.3936511">
  <ele>-6.38</ele>
  <time>2026-09-02T22:09:07Z</time>
  <course>228.97</course>
  <speed>1.0</speed>
  <fix>3d</fix>
</trkpt>
<trkpt lat="33.8107659" lon="-118.3936531">
  <ele>-6.468</ele>
  <time>2026-09-02T22:09:07Z</time>
  <course>230.22</course>
  <speed>0.9730878685915265</speed>
  <fix>3d</fix>
</trkpt>
<trkpt lat="33.8107671" lon="-118.3936511">
  <ele>-6.38</ele>
  <time>2026-09-02T22:09:07Z</time>
  <course>228.97</course>
  <speed>1.0</speed>
  <fix>3d</fix>
</trkpt>
<trkpt lat="33.8107653" lon="-118.3936539">
  <ele>-6.444</ele>
  <time>2026-09-02T22:09:07Z</time>
  <course>230.21</course>
  <speed>0.9730878685915265</speed>
  <fix>3d</fix>
</trkpt>
<trkpt lat="33.8107659" lon="-118.3936527">
  <ele>-6.33</ele>
  <time>2026-09-02T22:09:07Z</time>
  <course>228.94</course>
  <speed>1.0</speed>
  <fix>3d</fix>
</trkpt>
<trkpt lat="33.8107647" lon="-118.3936547">
  <ele>-6.42</ele>
  <time>2026-09-02T22:09:07Z</time>
  <course>230.21</course>
  <speed>0.9730878685915265</speed>
  <fix>3d</fix>
</trkpt>
<trkpt lat="33.8107659" lon="-118.3936527">
  <ele>-6.33</ele>
  <time>2026-09-02T22:09:07Z</time>
  <course>228.94</course>
  <speed>1.0</speed>
  <fix>3d</fix>
</trkpt>
<trkpt lat="33.8107642" lon="-118.3936555">
  <ele>-6.394</ele>
  <time>2026-09-02T22:09:07Z</time>
  <course>230.23</course>
  <speed>0.9730878685915265</speed>
  <fix>3d</fix>
</trkpt>
<trkpt lat="33.8107647" lon="-118.3936544">
  <ele>-6.29</ele>
  <time>2026-09-02T22:09:07Z</time>
  <course>228.96</course>
  <speed>1.0</speed>
  <fix>3d</fix>
</trkpt>
<trkpt lat="33.8107636" lon="-118.3936564">
  <ele>-6.369</ele>
  <time>2026-09-02T22:09:07Z</time>
  <course>230.26</course>
  <speed>0.9730878685915265</speed>
  <fix>3d</fix>
</trkpt>
<trkpt lat="33.8107647" lon="-118.3936544">
  <ele>-6.29</ele>
  <time>2026-09-02T22:09:07Z</time>
  <course>228.96</course>
  <speed>1.0</speed>
  <fix>3d</fix>
</trkpt>
<trkpt lat="33.810763" lon="-118.3936572">
  <ele>-6.345</ele>
  <time>2026-09-02T22:09:07Z</time>
  <course>230.29</course>
  <speed>0.9730878685915265</speed>
  <fix>3d</fix>
</trkpt>
<trkpt lat="33.8107636" lon="-118.393656">
  <ele>-6.24</ele>
  <time>2026-09-02T22:09:07Z</time>
  <course>229.02</course>
  <speed>1.0</speed>
  <fix>3d</fix>
</trkpt>
<trkpt lat="33.8107624" lon="-118.393658">
  <ele>-6.322</ele>
  <time>2026-09-02T22:09:07Z</time>
  <course>230.31</course>
  <speed>0.9730878685915265</speed>
  <fix>3d</fix>
</trkpt>
<trkpt lat="33.8107636" lon="-118.393656">
  <ele>-6.24</ele>
  <time>2026-09-02T22:09:07Z</time>
  <course>229.02</course>
  <speed>1.0</speed>
  <fix>3d</fix>
</trkpt>
<trkpt lat="33.8107618" lon="-118.3936588">
  <ele>-6.298</ele>
  <time>2026-09-02T22:09:07Z</time>
  <course>230.32</course>
  <speed>0.9730878685915265</speed>
  <fix>3d</fix>
</trkpt>
<trkpt lat="33.8107624" lon="-118.3936577">
  <ele>-6.19</ele>
  <time>2026-09-02T22:09:07Z</time>
  <course>229.03</course>
  <speed>1.0</speed>
  <fix>3d</fix>
</trkpt>
<trkpt lat="33.8107612" lon="-118.3936596">
  <ele>-6.274</ele>
  <time>2026-09-02T22:09:07Z</time>
  <course>230.31</course>
  <speed>0.9730878685915265</speed>
  <fix>3d</fix>
</trkpt>
<trkpt lat="33.8107624" lon="-118.3936577">
  <ele>-6.19</ele>
  <time>2026-09-02T22:09:07Z</time>
  <course>229.03</course>
  <speed>1.0</speed>
  <fix>3d</fix>
</trkpt>
<trkpt lat="33.8107606" lon="-118.3936605">
  <ele>-6.249</ele>
  <time>2026-09-02T22:09:07Z</time>
  <course>230.3</course>
  <speed>0.9730878685915265</speed>
  <fix>3d</fix>
</trkpt>
<trkpt lat="33.8107612" lon="-118.3936593">
  <ele>-6.14</ele>
  <time>2026-09-02T22:09:07Z</time>
  <course>229.0</course>
  <speed>1.0</speed>
  <fix>3d</fix>
</trkpt>
<trkpt lat="33.81076" lon="-118.3936613">
  <ele>-6.224</ele>
  <time>2026-09-02T22:09:07Z</time>
  <course>230.27</course>
  <speed>0.9730878685915265</speed>
  <fix>3d</fix>
</trkpt>
<trkpt lat="33.8107612" lon="-118.3936593">
  <ele>-6.14</ele>
  <time>2026-09-02T22:09:07Z</time>
  <course>229.0</course>
  <speed>1.0</speed>
  <fix>3d</fix>
</trkpt>
<trkpt lat="33.8107594" lon="-118.3936621">
  <ele>-6.2</ele>
  <time>2026-09-02T22:09:07Z</time>
  <course>230.27</course>
  <speed>0.9730878685915265</speed>
  <fix>3d</fix>
</trkpt>
<trkpt lat="33.81076" lon="-118.393661">
  <ele>-6.1</ele>
  <time>2026-09-02T22:09:07Z</time>
  <course>228.95</course>
  <speed>1.0</speed>
  <fix>3d</fix>
</trkpt>
<trkpt lat="33.8107589" lon="-118.3936629">
  <ele>-6.175</ele>
  <time>2026-09-02T22:09:07Z</time>
  <course>230.26</course>
  <speed>0.9730878685915265</speed>
  <fix>3d</fix>
</trkpt>
<trkpt lat="33.81076" lon="-118.393661">
  <ele>-6.1</ele>
  <time>2026-09-02T22:09:07Z</time>
  <course>228.95</course>
  <speed>1.0</speed>
  <fix>3d</fix>
</trkpt>
<trkpt lat="33.8107583" lon="-118.3936637">
  <ele>-6.151</ele>
  <time>2026-09-02T22:09:07Z</time>
  <course>230.26</course>
  <speed>0.9730878685915265</speed>
  <fix>3d</fix>
</trkpt>
<trkpt lat="33.8107588" lon="-118.3936626">
  <ele>-6.05</ele>
  <time>2026-09-02T22:09:07Z</time>
  <course>228.94</course>
  <speed>1.0</speed>
  <fix>3d</fix>
</trkpt>
<trkpt lat="33.8107577" lon="-118.3936646">
  <ele>-6.126</ele>
  <time>2026-09-02T22:09:07Z</time>
  <course>230.26</course>
  <speed>0.9730878685915265</speed>
  <fix>3d</fix>
</trkpt>
<trkpt lat="33.8107588" lon="-118.3936626">
  <ele>-6.05</ele>
  <time>2026-09-02T22:09:07Z</time>
  <course>228.94</course>
  <speed>1.0</speed>
  <fix>3d</fix>
</trkpt>
<trkpt lat="33.8107571" lon="-118.3936654">
  <ele>-6.101</ele>
  <time>2026-09-02T22:09:07Z</time>
  <course>230.27</course>
  <speed>0.9730878685915265</speed>
  <fix>3d</fix>
</trkpt>
<trkpt lat="33.8107575" lon="-118.3936642">
  <ele>-6.0</ele>
  <time>2026-09-02T22:09:07Z</time>
  <course>228.94</course>
  <speed>1.0</speed>
  <fix>3d</fix>
</trkpt>
<trkpt lat="33.8107565" lon="-118.3936662">
  <ele>-6.075</ele>
  <time>2026-09-02T22:09:07Z</time>
  <course>230.3</course>
  <speed>0.9730878685915265</speed>
  <fix>3d</fix>
</trkpt>
<trkpt lat="33.8107575" lon="-118.3936642">
  <ele>-6.0</ele>
  <time>2026-09-02T22:09:07Z</time>
  <course>228.94</course>
  <speed>1.0</speed>
  <fix>3d</fix>
</trkpt>
<trkpt lat="33.8107559" lon="-118.393667">
  <ele>-6.048</ele>
  <time>2026-09-02T22:09:07Z</time>
  <course>230.36</course>
  <speed>0.9730878685915265</speed>
  <fix>3d</fix>
</trkpt>
<trkpt lat="33.8107563" lon="-118.3936659">
  <ele>-5.95</ele>
  <time>2026-09-02T22:09:07Z</time>
  <course>229.02</course>
  <speed>1.0</speed>
  <fix>3d</fix>
</trkpt>
<trkpt lat="33.8107553" lon="-118.3936678">
  <ele>-6.022</ele>
  <time>2026-09-02T22:09:07Z</time>
  <course>230.42</course>
  <speed>0.9730878685915265</speed>
  <fix>3d</fix>
</trkpt>
<trkpt lat="33.8107563" lon="-118.3936659">
  <ele>-5.95</ele>
  <time>2026-09-02T22:09:07Z</time>
  <course>229.02</course>
  <speed>1.0</speed>
  <fix>3d</fix>
</trkpt>
<trkpt lat="33.8107547" lon="-118.3936686">
  <ele>-5.996</ele>
  <time>2026-09-02T22:09:07Z</time>
  <course>230.49</course>
  <speed>0.9730878685915265</speed>
  <fix>3d</fix>
</trkpt>
<trkpt lat="33.8107551" lon="-118.3936675">
  <ele>-5.9</ele>
  <time>2026-09-02T22:09:07Z</time>
  <course>229.15</course>
  <speed>1.0</speed>
  <fix>3d</fix>
</trkpt>
<trkpt lat="33.8107541" lon="-118.3936695">
  <ele>-5.97</ele>
  <time>2026-09-02T22:09:07Z</time>
  <course>230.58</course>
  <speed>0.9667471230885561</speed>
  <fix>3d</fix>
</trkpt>
<trkpt lat="33.8107551" lon="-118.3936675">
  <ele>-5.9</ele>
  <time>2026-09-02T22:09:07Z</time>
  <course>229.15</course>
  <speed>1.0</speed>
  <fix>3d</fix>
</trkpt>
<trkpt lat="33.8107535" lon="-118.3936703">
  <ele>-5.946</ele>
  <time>2026-09-02T22:09:07Z</time>
  <course>230.66</course>
  <speed>0.9667471230885561</speed>
  <fix>3d</fix>
</trkpt>
<trkpt lat="33.810754" lon="-118.3936692">
  <ele>-5.85</ele>
  <time>2026-09-02T22:09:07Z</time>
  <course>229.29</course>
  <speed>1.0</speed>
  <fix>3d</fix>
</trkpt>
<trkpt lat="33.8107529" lon="-118.3936711">
  <ele>-5.922</ele>
  <time>2026-09-02T22:09:07Z</time>
  <course>230.71</course>
  <speed>0.9667471230885561</speed>
  <fix>3d</fix>
</trkpt>
<trkpt lat="33.810754" lon="-118.3936692">
  <ele>-5.85</ele>
  <time>2026-09-02T22:09:07Z</time>
  <course>229.29</course>
  <speed>1.0</speed>
  <fix>3d</fix>
</trkpt>
<trkpt lat="33.8107523" lon="-118.3936719">
  <ele>-5.899</ele>
  <time>2026-09-02T22:09:07Z</time>
  <course>230.75</course>
  <speed>0.9730878685915265</speed>
  <fix>3d</fix>
</trkpt>
<trkpt lat="33.8107529" lon="-118.3936708">
  <ele>-5.81</ele>
  <time>2026-09-02T22:09:07Z</time>
  <course>229.35</course>
  <speed>1.0</speed>
  <fix>3d</fix>
</trkpt>
<trkpt lat="33.8107517" lon="-118.3936727">
  <ele>-5.875</ele>
  <time>2026-09-02T22:09:07Z</time>
  <course>230.77</course>
  <speed>0.9730878685915265</speed>
  <fix>3d</fix>
</trkpt>
<trkpt lat="33.8107529" lon="-118.3936708">
  <ele>-5.81</ele>
  <time>2026-09-02T22:09:07Z</time>
  <course>229.35</course>
  <speed>1.0</speed>
  <fix>3d</fix>
</trkpt>
<trkpt lat="33.8107512" lon="-118.3936736">
  <ele>-5.852</ele>
  <time>2026-09-02T22:09:07Z</time>
  <course>230.75</course>
  <speed>0.9730878685915265</speed>
  <fix>3d</fix>
</trkpt>
<trkpt lat="33.8107517" lon="-118.3936725">
  <ele>-5.77</ele>
  <time>2026-09-02T22:09:07Z</time>
  <course>229.32</course>
  <speed>1.0</speed>
  <fix>3d</fix>
</trkpt>
<trkpt lat="33.8107506" lon="-118.3936744">
  <ele>-5.827</ele>
  <time>2026-09-02T22:09:07Z</time>
  <course>230.72</course>
  <speed>0.9730878685915265</speed>
  <fix>3d</fix>
</trkpt>
<trkpt lat="33.8107517" lon="-118.3936725">
  <ele>-5.77</ele>
  <time>2026-09-02T22:09:07Z</time>
  <course>229.32</course>
  <speed>1.0</speed>
  <fix>3d</fix>
</trkpt>
<trkpt lat="33.81075" lon="-118.3936752">
  <ele>-5.803</ele>
  <time>2026-09-02T22:09:07Z</time>
  <course>230.68</course>
  <speed>0.9730878685915265</speed>
  <fix>3d</fix>
</trkpt>
<trkpt lat="33.8107505" lon="-118.3936741">
  <ele>-5.72</ele>
  <time>2026-09-02T22:09:07Z</time>
  <course>229.23</course>
  <speed>1.0</speed>
  <fix>3d</fix>
</trkpt>
<trkpt lat="33.8107494" lon="-118.393676">
  <ele>-5.779</ele>
  <time>2026-09-02T22:09:07Z</time>
  <course>230.63</course>
  <speed>0.9730878685915265</speed>
  <fix>3d</fix>
</trkpt>
<trkpt lat="33.8107505" lon="-118.3936741">
  <ele>-5.72</ele>
  <time>2026-09-02T22:09:07Z</time>
  <course>229.23</course>
  <speed>1.0</speed>
  <fix>3d</fix>
</trkpt>
<trkpt lat="33.8107488" lon="-118.3936768">
  <ele>-5.755</ele>
  <time>2026-09-02T22:09:07Z</time>
  <course>230.6</course>
  <speed>0.9730878685915265</speed>
  <fix>3d</fix>
</trkpt>
<trkpt lat="33.8107494" lon="-118.3936757">
  <ele>-5.67</ele>
  <time>2026-09-02T22:09:07Z</time>
  <course>229.17</course>
  <speed>1.0</speed>
  <fix>3d</fix>
</trkpt>
<trkpt lat="33.8107482" lon="-118.3936777">
  <ele>-5.731</ele>
  <time>2026-09-02T22:09:07Z</time>
  <course>230.57</course>
  <speed>0.9730878685915265</speed>
  <fix>3d</fix>
</trkpt>
<trkpt lat="33.8107494" lon="-118.3936757">
  <ele>-5.67</ele>
  <time>2026-09-02T22:09:07Z</time>
  <course>229.17</course>
  <speed>1.0</speed>
  <fix>3d</fix>
</trkpt>
<trkpt lat="33.8107476" lon="-118.3936785">
  <ele>-5.707</ele>
  <time>2026-09-02T22:09:07Z</time>
  <course>230.53</course>
  <speed>0.9730878685915265</speed>
  <fix>3d</fix>
</trkpt>
<trkpt lat="33.8107482" lon="-118.3936774">
  <ele>-5.63</ele>
  <time>2026-09-02T22:09:07Z</time>
  <course>229.15</course>
  <speed>1.0</speed>
  <fix>3d</fix>
</trkpt>
<trkpt lat="33.810747" lon="-118.3936793">
  <ele>-5.683</ele>
  <time>2026-09-02T22:09:07Z</time>
  <course>230.5</course>
  <speed>0.9730878685915265</speed>
  <fix>3d</fix>
</trkpt>
<trkpt lat="33.8107482" lon="-118.3936774">
  <ele>-5.63</ele>
  <time>2026-09-02T22:09:07Z</time>
  <course>229.15</course>
  <speed>1.0</speed>
  <fix>3d</fix>
</trkpt>
<trkpt lat="33.8107465" lon="-118.3936801">
  <ele>-5.659</ele>
  <time>2026-09-02T22:09:07Z</time>
  <course>230.46</course>
  <speed>0.9730878685915265</speed>
  <fix>3d</fix>
</trkpt>
<trkpt lat="33.810747" lon="-118.393679">
  <ele>-5.58</ele>
  <time>2026-09-02T22:09:07Z</time>
  <course>229.11</course>
  <speed>1.0</speed>
  <fix>3d</fix>
</trkpt>
<trkpt lat="33.8107459" lon="-118.3936809">
  <ele>-5.634</ele>
  <time>2026-09-02T22:09:07Z</time>
  <course>230.42</course>
  <speed>0.9730878685915265</speed>
  <fix>3d</fix>
</trkpt>
<trkpt lat="33.810747" lon="-118.393679">
  <ele>-5.58</ele>
  <time>2026-09-02T22:09:07Z</time>
  <course>229.11</course>
  <speed>1.0</speed>
  <fix>3d</fix>
</trkpt>
<trkpt lat="33.8107453" lon="-118.3936817">
  <ele>-5.61</ele>
  <time>2026-09-02T22:09:07Z</time>
  <course>230.39</course>
  <speed>0.9730878685915265</speed>
  <fix>3d</fix>
</trkpt>
<trkpt lat="33.8107458" lon="-118.3936807">
  <ele>-5.53</ele>
  <time>2026-09-02T22:09:07Z</time>
  <course>229.08</course>
  <speed>1.0</speed>
  <fix>3d</fix>
</trkpt>
<trkpt lat="33.8107447" lon="-118.3936826">
  <ele>-5.586</ele>
  <time>2026-09-02T22:09:07Z</time>
  <course>230.38</course>
  <speed>0.9730878685915265</speed>
  <fix>3d</fix>
</trkpt>
<trkpt lat="33.8107458" lon="-118.3936807">
  <ele>-5.53</ele>
  <time>2026-09-02T22:09:07Z</time>
  <course>229.08</course>
  <speed>1.0</speed>
  <fix>3d</fix>
</trkpt>
<trkpt lat="33.8107441" lon="-118.3936834">
  <ele>-5.563</ele>
  <time>2026-09-02T22:09:08Z</time>
  <course>230.36</course>
  <speed>0.9730878685915265</speed>
  <fix>3d</fix>
</trkpt>
<trkpt lat="33.8107446" lon="-118.3936823">
  <ele>-5.48</ele>
  <time>2026-09-02T22:09:08Z</time>
  <course>229.07</course>
  <speed>1.0</speed>
  <fix>3d</fix>
</trkpt>
<trkpt lat="33.8107435" lon="-118.3936842">
  <ele>-5.539</ele>
  <time>2026-09-02T22:09:08Z</time>
  <course>230.35</course>
  <speed>0.9730878685915265</speed>
  <fix>3d</fix>
</trkpt>
<trkpt lat="33.8107446" lon="-118.3936823">
  <ele>-5.48</ele>
  <time>2026-09-02T22:09:08Z</time>
  <course>229.07</course>
  <speed>1.0</speed>
  <fix>3d</fix>
</trkpt>
<trkpt lat="33.8107429" lon="-118.393685">
  <ele>-5.515</ele>
  <time>2026-09-02T22:09:08Z</time>
  <course>230.34</course>
  <speed>0.9730878685915265</speed>
  <fix>3d</fix>
</trkpt>
<trkpt lat="33.8107435" lon="-118.393684">
  <ele>-5.43</ele>
  <time>2026-09-02T22:09:08Z</time>
  <course>229.07</course>
  <speed>1.0</speed>
  <fix>3d</fix>
</trkpt>
<trkpt lat="33.8107423" lon="-118.3936859">
  <ele>-5.49</ele>
  <time>2026-09-02T22:09:08Z</time>
  <course>230.34</course>
  <speed>0.9730878685915265</speed>
  <fix>3d</fix>
</trkpt>
<trkpt lat="33.8107435" lon="-118.393684">
  <ele>-5.43</ele>
  <time>2026-09-02T22:09:08Z</time>
  <course>229.07</course>
  <speed>1.0</speed>
  <fix>3d</fix>
</trkpt>
<trkpt lat="33.8107417" lon="-118.3936867">
  <ele>-5.466</ele>
  <time>2026-09-02T22:09:08Z</time>
  <course>230.32</course>
  <speed>0.9730878685915265</speed>
  <fix>3d</fix>
</trkpt>
<trkpt lat="33.8107423" lon="-118.3936856">
  <ele>-5.38</ele>
  <time>2026-09-02T22:09:08Z</time>
  <course>229.04</course>
  <speed>1.0</speed>
  <fix>3d</fix>
</trkpt>
<trkpt lat="33.8107412" lon="-118.3936875">
  <ele>-5.44</ele>
  <time>2026-09-02T22:09:08Z</time>
  <course>230.3</course>
  <speed>0.9730878685915265</speed>
  <fix>3d</fix>
</trkpt>
<trkpt lat="33.8107423" lon="-118.3936856">
  <ele>-5.38</ele>
  <time>2026-09-02T22:09:08Z</time>
  <course>229.04</course>
  <speed>1.0</speed>
  <fix>3d</fix>
</trkpt>
<trkpt lat="33.8107406" lon="-118.3936883">
  <ele>-5.414</ele>
  <time>2026-09-02T22:09:08Z</time>
  <course>230.27</course>
  <speed>0.9730878685915265</speed>
  <fix>3d</fix>
</trkpt>
<trkpt lat="33.8107411" lon="-118.3936873">
  <ele>-5.33</ele>
  <time>2026-09-02T22:09:08Z</time>
  <course>228.98</course>
  <speed>1.0</speed>
  <fix>3d</fix>
</trkpt>
<trkpt lat="33.81074" lon="-118.3936891">
  <ele>-5.388</ele>
  <time>2026-09-02T22:09:08Z</time>
  <course>230.24</course>
  <speed>0.9730878685915265</speed>
  <fix>3d</fix>
</trkpt>
<trkpt lat="33.8107411" lon="-118.3936873">
  <ele>-5.33</ele>
  <time>2026-09-02T22:09:08Z</time>
  <course>228.98</course>
  <speed>1.0</speed>
  <fix>3d</fix>
</trkpt>
<trkpt lat="33.8107394" lon="-118.39369">
  <ele>-5.361</ele>
  <time>2026-09-02T22:09:08Z</time>
  <course>230.22</course>
  <speed>0.9730878685915265</speed>
  <fix>3d</fix>
</trkpt>
<trkpt lat="33.8107399" lon="-118.3936889">
  <ele>-5.28</ele>
  <time>2026-09-02T22:09:08Z</time>
  <course>228.93</course>
  <speed>1.0</speed>
  <fix>3d</fix>
</trkpt>
<trkpt lat="33.8107388" lon="-118.3936908">
  <ele>-5.335</ele>
  <time>2026-09-02T22:09:08Z</time>
  <course>230.2</course>
  <speed>0.9730878685915265</speed>
  <fix>3d</fix>
</trkpt>
<trkpt lat="33.8107399" lon="-118.3936889">
  <ele>-5.28</ele>
  <time>2026-09-02T22:09:08Z</time>
  <course>228.93</course>
  <speed>1.0</speed>
  <fix>3d</fix>
</trkpt>
<trkpt lat="33.8107382" lon="-118.3936916">
  <ele>-5.31</ele>
  <time>2026-09-02T22:09:08Z</time>
  <course>230.2</course>
  <speed>0.9730878685915265</speed>
  <fix>3d</fix>
</trkpt>
<trkpt lat="33.8107387" lon="-118.3936905">
  <ele>-5.23</ele>
  <time>2026-09-02T22:09:08Z</time>
  <course>228.92</course>
  <speed>0.99</speed>
  <fix>3d</fix>
</trkpt>
<trkpt lat="33.8107376" lon="-118.3936924">
  <ele>-5.284</ele>
  <time>2026-09-02T22:09:08Z</time>
  <course>230.2</course>
  <speed>0.9730878685915265</speed>
  <fix>3d</fix>
</trkpt>
<trkpt lat="33.8107387" lon="-118.3936905">
  <ele>-5.23</ele>
  <time>2026-09-02T22:09:08Z</time>
  <course>228.92</course>
  <speed>0.99</speed>
  <fix>3d</fix>
</trkpt>
<trkpt lat="33.810737" lon="-118.3936932">
  <ele>-5.259</ele>
  <time>2026-09-02T22:09:08Z</time>
  <course>230.22</course>
  <speed>0.9730878685915265</speed>
  <fix>3d</fix>
</trkpt>
<trkpt lat="33.8107375" lon="-118.3936921">
  <ele>-5.18</ele>
  <time>2026-09-02T22:09:08Z</time>
  <course>228.96</course>
  <speed>0.99</speed>
  <fix>3d</fix>
</trkpt>
<trkpt lat="33.8107364" lon="-118.393694">
  <ele>-5.234</ele>
  <time>2026-09-02T22:09:08Z</time>
  <course>230.24</course>
  <speed>0.9730878685915265</speed>
  <fix>3d</fix>
</trkpt>
<trkpt lat="33.8107375" lon="-118.3936921">
  <ele>-5.18</ele>
  <time>2026-09-02T22:09:08Z</time>
  <course>228.96</course>
  <speed>0.99</speed>
  <fix>3d</fix>
</trkpt>
<trkpt lat="33.8107358" lon="-118.3936949">
  <ele>-5.208</ele>
  <time>2026-09-02T22:09:08Z</time>
  <course>230.29</course>
  <speed>0.9730878685915265</speed>
  <fix>3d</fix>
</trkpt>
<trkpt lat="33.8107363" lon="-118.3936938">
  <ele>-5.13</ele>
  <time>2026-09-02T22:09:08Z</time>
  <course>229.03</course>
  <speed>0.99</speed>
  <fix>3d</fix>
</trkpt>
<trkpt lat="33.8107352" lon="-118.3936957">
  <ele>-5.183</ele>
  <time>2026-09-02T22:09:08Z</time>
  <course>230.33</course>
  <speed>0.9730878685915265</speed>
  <fix>3d</fix>
</trkpt>
<trkpt lat="33.8107363" lon="-118.3936938">
  <ele>-5.13</ele>
  <time>2026-09-02T22:09:08Z</time>
  <course>229.03</course>
  <speed>0.99</speed>
  <fix>3d</fix>
</trkpt>
<trkpt lat="33.8107347" lon="-118.3936965">
  <ele>-5.159</ele>
  <time>2026-09-02T22:09:08Z</time>
  <course>230.37</course>
  <speed>0.9730878685915265</speed>
  <fix>3d</fix>
</trkpt>
<trkpt lat="33.8107351" lon="-118.3936953">
  <ele>-5.08</ele>
  <time>2026-09-02T22:09:08Z</time>
  <course>229.09</course>
  <speed>0.99</speed>
  <fix>3d</fix>
</trkpt>
<trkpt lat="33.8107341" lon="-118.3936973">
  <ele>-5.135</ele>
  <time>2026-09-02T22:09:08Z</time>
  <course>230.42</course>
  <speed>0.9667471230885561</speed>
  <fix>3d</fix>
</trkpt>
<trkpt lat="33.8107351" lon="-118.3936953">
  <ele>-5.08</ele>
  <time>2026-09-02T22:09:08Z</time>
  <course>229.09</course>
  <speed>0.99</speed>
  <fix>3d</fix>
</trkpt>
<trkpt lat="33.8107335" lon="-118.3936981">
  <ele>-5.112</ele>
  <time>2026-09-02T22:09:08Z</time>
  <course>230.48</course>
  <speed>0.9667471230885561</speed>
  <fix>3d</fix>
</trkpt>
<trkpt lat="33.810734" lon="-118.393697">
  <ele>-5.04</ele>
  <time>2026-09-02T22:09:08Z</time>
  <course>229.18</course>
  <speed>0.99</speed>
  <fix>3d</fix>
</trkpt>
<trkpt lat="33.8107329" lon="-118.3936989">
  <ele>-5.088</ele>
  <time>2026-09-02T22:09:08Z</time>
  <course>230.53</course>
  <speed>0.9667471230885561</speed>
  <fix>3d</fix>
</trkpt>
<trkpt lat="33.810734" lon="-118.393697">
  <ele>-5.04</ele>
  <time>2026-09-02T22:09:08Z</time>
  <course>229.18</course>
  <speed>0.99</speed>
  <fix>3d</fix>
</trkpt>
<trkpt lat="33.8107323" lon="-118.3936998">
  <ele>-5.063</ele>
  <time>2026-09-02T22:09:08Z</time>
  <course>230.57</course>
  <speed>0.9730878685915265</speed>
  <fix>3d</fix>
</trkpt>
<trkpt lat="33.8107329" lon="-118.3936986">
  <ele>-4.99</ele>
  <time>2026-09-02T22:09:08Z</time>
  <course>229.25</course>
  <speed>0.99</speed>
  <fix>3d</fix>
</trkpt>
<trkpt lat="33.8107317" lon="-118.3937006">
  <ele>-5.038</ele>
  <time>2026-09-02T22:09:08Z</time>
  <course>230.59</course>
  <speed>0.9730878685915265</speed>
  <fix>3d</fix>
</trkpt>
<trkpt lat="33.8107329" lon="-118.3936986">
  <ele>-4.99</ele>
  <time>2026-09-02T22:09:08Z</time>
  <course>229.25</course>
  <speed>0.99</speed>
  <fix>3d</fix>
</trkpt>
<trkpt lat="33.8107311" lon="-118.3937014">
  <ele>-5.012</ele>
  <time>2026-09-02T22:09:08Z</time>
  <course>230.58</course>
  <speed>0.9730878685915265</speed>
  <fix>3d</fix>
</trkpt>
<trkpt lat="33.8107317" lon="-118.3937003">
  <ele>-4.94</ele>
  <time>2026-09-02T22:09:08Z</time>
  <course>229.24</course>
  <speed>0.99</speed>
  <fix>3d</fix>
</trkpt>
<trkpt lat="33.8107305" lon="-118.3937022">
  <ele>-4.986</ele>
  <time>2026-09-02T22:09:08Z</time>
  <course>230.56</course>
  <speed>0.9730878685915265</speed>
  <fix>3d</fix>
</trkpt>
<trkpt lat="33.8107317" lon="-118.3937003">
  <ele>-4.94</ele>
  <time>2026-09-02T22:09:08Z</time>
  <course>229.24</course>
  <speed>0.99</speed>
  <fix>3d</fix>
</trkpt>
<trkpt lat="33.8107299" lon="-118.393703">
  <ele>-4.961</ele>
  <time>2026-09-02T22:09:08Z</time>
  <course>230.53</course>
  <speed>0.9730878685915265</speed>
  <fix>3d</fix>
</trkpt>
<trkpt lat="33.8107305" lon="-118.3937019">
  <ele>-4.89</ele>
  <time>2026-09-02T22:09:08Z</time>
  <course>229.17</course>
  <speed>0.99</speed>
  <fix>3d</fix>
</trkpt>
<trkpt lat="33.8107294" lon="-118.3937038">
  <ele>-4.937</ele>
  <time>2026-09-02T22:09:08Z</time>
  <course>230.49</course>
  <speed>0.9730878685915265</speed>
  <fix>3d</fix>
</trkpt>
<trkpt lat="33.8107305" lon="-118.3937019">
  <ele>-4.89</ele>
  <time>2026-09-02T22:09:08Z</time>
  <course>229.17</course>
  <speed>0.99</speed>
  <fix>3d</fix>
</trkpt>
<trkpt lat="33.8107288" lon="-118.3937047">
  <ele>-4.913</ele>
  <time>2026-09-02T22:09:08Z</time>
  <course>230.46</course>
  <speed>0.9730878685915265</speed>
  <fix>3d</fix>
</trkpt>
<trkpt lat="33.8107293" lon="-118.3937036">
  <ele>-4.85</ele>
  <time>2026-09-02T22:09:08Z</time>
  <course>229.11</course>
  <speed>0.99</speed>
  <fix>3d</fix>
</trkpt>
<trkpt lat="33.8107282" lon="-118.3937055">
  <ele>-4.89</ele>
  <time>2026-09-02T22:09:08Z</time>
  <course>230.44</course>
  <speed>0.9730878685915265</speed>
  <fix>3d</fix>
</trkpt>
<trkpt lat="33.8107293" lon="-118.3937036">
  <ele>-4.85</ele>
  <time>2026-09-02T22:09:08Z</time>
  <course>229.11</course>
  <speed>0.99</speed>
  <fix>3d</fix>
</trkpt>
<trkpt lat="33.8107276" lon="-118.3937063">
  <ele>-4.868</ele>
  <time>2026-09-02T22:09:08Z</time>
  <course>230.43</course>
  <speed>0.9730878685915265</speed>
  <fix>3d</fix>
</trkpt>
<trkpt lat="33.8107282" lon="-118.3937052">
  <ele>-4.8</ele>
  <time>2026-09-02T22:09:08Z</time>
  <course>229.09</course>
  <speed>0.99</speed>
  <fix>3d</fix>
</trkpt>
<trkpt lat="33.810727" lon="-118.3937071">
  <ele>-4.845</ele>
  <time>2026-09-02T22:09:08Z</time>
  <course>230.41</course>
  <speed>0.9730878685915265</speed>
  <fix>3d</fix>
</trkpt>
<trkpt lat="33.8107282" lon="-118.3937052">
  <ele>-4.8</ele>
  <time>2026-09-02T22:09:08Z</time>
  <course>229.09</course>
  <speed>0.99</speed>
  <fix>3d</fix>
</trkpt>
<trkpt lat="33.8107264" lon="-118.3937079">
  <ele>-4.821</ele>
  <time>2026-09-02T22:09:08Z</time>
  <course>230.39</course>
  <speed>0.9730878685915265</speed>
  <fix>3d</fix>
</trkpt>
<trkpt lat="33.810727" lon="-118.3937068">
  <ele>-4.76</ele>
  <time>2026-09-02T22:09:08Z</time>
  <course>229.06</course>
  <speed>0.99</speed>
  <fix>3d</fix>
</trkpt>
<trkpt lat="33.8107258" lon="-118.3937088">
  <ele>-4.796</ele>
  <time>2026-09-02T22:09:08Z</time>
  <course>230.36</course>
  <speed>0.9730878685915265</speed>
  <fix>3d</fix>
</trkpt>
<trkpt lat="33.810727" lon="-118.3937068">
  <ele>-4.76</ele>
  <time>2026-09-02T22:09:08Z</time>
  <course>229.06</course>
  <speed>0.99</speed>
  <fix>3d</fix>
</trkpt>
<trkpt lat="33.8107252" lon="-118.3937096">
  <ele>-4.771</ele>
  <time>2026-09-02T22:09:08Z</time>
  <course>230.33</course>
  <speed>0.9730878685915265</speed>
  <fix>3d</fix>
</trkpt>
<trkpt lat="33.8107258" lon="-118.3937085">
  <ele>-4.71</ele>
  <time>2026-09-02T22:09:08Z</time>
  <course>229.02</course>
  <speed>0.99</speed>
  <fix>3d</fix>
</trkpt>
<trkpt lat="33.8107247" lon="-118.3937104">
  <ele>-4.746</ele>
  <time>2026-09-02T22:09:08Z</time>
  <course>230.32</course>
  <speed>0.9730878685915265</speed>
  <fix>3d</fix>
</trkpt>
<trkpt lat="33.8107258" lon="-118.3937085">
  <ele>-4.71</ele>
  <time>2026-09-02T22:09:08Z</time>
  <course>229.02</course>
  <speed>0.99</speed>
  <fix>3d</fix>
</trkpt>
<trkpt lat="33.8107241" lon="-118.3937112">
  <ele>-4.721</ele>
  <time>2026-09-02T22:09:08Z</time>
  <course>230.31</course>
  <speed>0.9730878685915265</speed>
  <fix>3d</fix>
</trkpt>
<trkpt lat="33.8107246" lon="-118.3937101">
  <ele>-4.66</ele>
  <time>2026-09-02T22:09:08Z</time>
  <course>229.01</course>
  <speed>0.99</speed>
  <fix>3d</fix>
</trkpt>
<trkpt lat="33.8107235" lon="-118.393712">
  <ele>-4.696</ele>
  <time>2026-09-02T22:09:08Z</time>
  <course>230.29</course>
  <speed>0.9730878685915265</speed>
  <fix>3d</fix>
</trkpt>
<trkpt lat="33.8107246" lon="-118.3937101">
  <ele>-4.66</ele>
  <time>2026-09-02T22:09:08Z</time>
  <course>229.01</course>
  <speed>0.99</speed>
  <fix>3d</fix>
</trkpt>
<trkpt lat="33.8107229" lon="-118.3937129">
  <ele>-4.671</ele>
  <time>2026-09-02T22:09:08Z</time>
  <course>230.29</course>
  <speed>0.9730878685915265</speed>
  <fix>3d</fix>
</trkpt>
<trkpt lat="33.8107235" lon="-118.3937117">
  <ele>-4.61</ele>
  <time>2026-09-02T22:09:08Z</time>
  <course>229.02</course>
  <speed>0.99</speed>
  <fix>3d</fix>
</trkpt>
<trkpt lat="33.8107223" lon="-118.3937137">
  <ele>-4.646</ele>
  <time>2026-09-02T22:09:08Z</time>
  <course>230.29</course>
  <speed>0.9730878685915265</speed>
  <fix>3d</fix>
</trkpt>
<trkpt lat="33.8107235" lon="-118.3937117">
  <ele>-4.61</ele>
  <time>2026-09-02T22:09:08Z</time>
  <course>229.02</course>
  <speed>0.99</speed>
  <fix>3d</fix>
</trkpt>
<trkpt lat="33.8107217" lon="-118.3937145">
  <ele>-4.621</ele>
  <time>2026-09-02T22:09:08Z</time>
  <course>230.29</course>
  <speed>0.9730878685915265</speed>
  <fix>3d</fix>
</trkpt>
<trkpt lat="33.8107223" lon="-118.3937134">
  <ele>-4.57</ele>
  <time>2026-09-02T22:09:08Z</time>
  <course>229.02</course>
  <speed>0.99</speed>
  <fix>3d</fix>
</trkpt>
<trkpt lat="33.8107211" lon="-118.3937153">
  <ele>-4.596</ele>
  <time>2026-09-02T22:09:08Z</time>
  <course>230.29</course>
  <speed>0.9730878685915265</speed>
  <fix>3d</fix>
</trkpt>
<trkpt lat="33.8107223" lon="-118.3937134">
  <ele>-4.57</ele>
  <time>2026-09-02T22:09:08Z</time>
  <course>229.02</course>
  <speed>0.99</speed>
  <fix>3d</fix>
</trkpt>
<trkpt lat="33.8107205" lon="-118.3937161">
  <ele>-4.572</ele>
  <time>2026-09-02T22:09:08Z</time>
  <course>230.27</course>
  <speed>0.9730878685915265</speed>
  <fix>3d</fix>
</trkpt>
<trkpt lat="33.810721" lon="-118.3937149">
  <ele>-4.52</ele>
  <time>2026-09-02T22:09:08Z</time>
  <course>228.98</course>
  <speed>0.99</speed>
  <fix>3d</fix>
</trkpt>
<trkpt lat="33.8107199" lon="-118.3937169">
  <ele>-4.549</ele>
  <time>2026-09-02T22:09:08Z</time>
  <course>230.26</course>
  <speed>0.9730878685915265</speed>
  <fix>3d</fix>
</trkpt>
<trkpt lat="33.810721" lon="-118.3937149">
  <ele>-4.52</ele>
  <time>2026-09-02T22:09:08Z</time>
  <course>228.98</course>
  <speed>0.99</speed>
  <fix>3d</fix>
</trkpt>
<trkpt lat="33.8107194" lon="-118.3937178">
  <ele>-4.526</ele>
  <time>2026-09-02T22:09:08Z</time>
  <course>230.3</course>
  <speed>0.9730878685915265</speed>
  <fix>3d</fix>
</trkpt>
<trkpt lat="33.8107199" lon="-118.3937166">
  <ele>-4.47</ele>
  <time>2026-09-02T22:09:08Z</time>
  <course>229.03</course>
  <speed>0.99</speed>
  <fix>3d</fix>
</trkpt>
<trkpt lat="33.8107188" lon="-118.3937186">
  <ele>-4.502</ele>
  <time>2026-09-02T22:09:08Z</time>
  <course>230.35</course>
  <speed>0.9730878685915265</speed>
  <fix>3d</fix>
</trkpt>
<trkpt lat="33.8107199" lon="-118.3937166">
  <ele>-4.47</ele>
  <time>2026-09-02T22:09:08Z</time>
  <course>229.03</course>
  <speed>0.99</speed>
  <fix>3d</fix>
</trkpt>
<trkpt lat="33.8107182" lon="-118.3937194">
  <ele>-4.478</ele>
  <time>2026-09-02T22:09:08Z</time>
  <course>230.4</course>
  <speed>0.9730878685915265</speed>
  <fix>3d</fix>
</trkpt>
<trkpt lat="33.8107187" lon="-118.3937183">
  <ele>-4.42</ele>
  <time>2026-09-02T22:09:08Z</time>
  <course>229.11</course>
  <speed>0.99</speed>
  <fix>3d</fix>
</trkpt>
<trkpt lat="33.8107176" lon="-118.3937202">
  <ele>-4.452</ele>
  <time>2026-09-02T22:09:08Z</time>
  <course>230.43</course>
  <speed>0.9730878685915265</speed>
  <fix>3d</fix>
</trkpt>
<trkpt lat="33.8107187" lon="-118.3937183">
  <ele>-4.42</ele>
  <time>2026-09-02T22:09:08Z</time>
  <course>229.11</course>
  <speed>0.99</speed>
  <fix>3d</fix>
</trkpt>
<trkpt lat="33.810717" lon="-118.393721">
  <ele>-4.426</ele>
  <time>2026-09-02T22:09:08Z</time>
  <course>230.46</course>
  <speed>0.9730878685915265</speed>
  <fix>3d</fix>
</trkpt>
<trkpt lat="33.8107175" lon="-118.3937199">
  <ele>-4.37</ele>
  <time>2026-09-02T22:09:08Z</time>
  <course>229.15</course>
  <speed>0.99</speed>
  <fix>3d</fix>
</trkpt>
<trkpt lat="33.8107164" lon="-118.3937219">
  <ele>-4.4</ele>
  <time>2026-09-02T22:09:08Z</time>
  <course>230.47</course>
  <speed>0.9730878685915265</speed>
  <fix>3d</fix>
</trkpt>
<trkpt lat="33.8107175" lon="-118.3937199">
  <ele>-4.37</ele>
  <time>2026-09-02T22:09:08Z</time>
  <course>229.15</course>
  <speed>0.99</speed>
  <fix>3d</fix>
</trkpt>
<trkpt lat="33.8107158" lon="-118.3937227">
  <ele>-4.375</ele>
  <time>2026-09-02T22:09:08Z</time>
  <course>230.48</course>
  <speed>0.9730878685915265</speed>
  <fix>3d</fix>
</trkpt>
<trkpt lat="33.8107163" lon="-118.3937215">
  <ele>-4.32</ele>
  <time>2026-09-02T22:09:08Z</time>
  <course>229.17</course>
  <speed>0.99</speed>
  <fix>3d</fix>
</trkpt>
<trkpt lat="33.8107152" lon="-118.3937235">
  <ele>-4.351</ele>
  <time>2026-09-02T22:09:08Z</time>
  <course>230.5</course>
  <speed>0.9730878685915265</speed>
  <fix>3d</fix>
</trkpt>
<trkpt lat="33.8107163" lon="-118.3937215">
  <ele>-4.32</ele>
  <time>2026-09-02T22:09:08Z</time>
  <course>229.17</course>
  <speed>0.99</speed>
  <fix>3d</fix>
</trkpt>
<trkpt lat="33.8107146" lon="-118.3937243">
  <ele>-4.326</ele>
  <time>2026-09-02T22:09:08Z</time>
  <course>230.52</course>
  <speed>0.9730878685915265</speed>
  <fix>3d</fix>
</trkpt>
<trkpt lat="33.8107152" lon="-118.3937232">
  <ele>-4.27</ele>
  <time>2026-09-02T22:09:08Z</time>
  <course>229.21</course>
  <speed>0.99</speed>
  <fix>3d</fix>
</trkpt>
<trkpt lat="33.810714" lon="-118.3937251">
  <ele>-4.301</ele>
  <time>2026-09-02T22:09:08Z</time>
  <course>230.54</course>
  <speed>0.9730878685915265</speed>
  <fix>3d</fix>
</trkpt>
<trkpt lat="33.8107152" lon="-118.3937232">
  <ele>-4.27</ele>
  <time>2026-09-02T22:09:08Z</time>
  <course>229.21</course>
  <speed>0.99</speed>
  <fix>3d</fix>
</trkpt>
<trkpt lat="33.8107135" lon="-118.3937259">
  <ele>-4.275</ele>
  <time>2026-09-02T22:09:08Z</time>
  <course>230.54</course>
  <speed>0.9730878685915265</speed>
  <fix>3d</fix>
</trkpt>
<trkpt lat="33.8107141" lon="-118.3937248">
  <ele>-4.22</ele>
  <time>2026-09-02T22:09:08Z</time>
  <course>229.21</course>
  <speed>0.99</speed>
  <fix>3d</fix>
</trkpt>
<trkpt lat="33.8107129" lon="-118.3937268">
  <ele>-4.25</ele>
  <time>2026-09-02T22:09:08Z</time>
  <course>230.52</course>
  <speed>0.9730878685915265</speed>
  <fix>3d</fix>
</trkpt>
<trkpt lat="33.8107141" lon="-118.3937248">
  <ele>-4.22</ele>
  <time>2026-09-02T22:09:08Z</time>
  <course>229.21</course>
  <speed>0.99</speed>
  <fix>3d</fix>
</trkpt>
<trkpt lat="33.8107123" lon="-118.3937276">
  <ele>-4.224</ele>
  <time>2026-09-02T22:09:08Z</time>
  <course>230.48</course>
  <speed>0.9730878685915265</speed>
  <fix>3d</fix>
</trkpt>
<trkpt lat="33.8107129" lon="-118.3937264">
  <ele>-4.17</ele>
  <time>2026-09-02T22:09:08Z</time>
  <course>229.14</course>
  <speed>0.99</speed>
  <fix>3d</fix>
</trkpt>
<trkpt lat="33.8107117" lon="-118.3937284">
  <ele>-4.199</ele>
  <time>2026-09-02T22:09:08Z</time>
  <course>230.44</course>
  <speed>0.9730878685915265</speed>
  <fix>3d</fix>
</trkpt>
<trkpt lat="33.8107129" lon="-118.3937264">
  <ele>-4.17</ele>
  <time>2026-09-02T22:09:08Z</time>
  <course>229.14</course>
  <speed>0.99</speed>
  <fix>3d</fix>
</trkpt>
<trkpt lat="33.8107111" lon="-118.3937292">
  <ele>-4.176</ele>
  <time>2026-09-02T22:09:08Z</time>
  <course>230.4</course>
  <speed>0.9730878685915265</speed>
  <fix>3d</fix>
</trkpt>
<trkpt lat="33.8107117" lon="-118.393728">
  <ele>-4.13</ele>
  <time>2026-09-02T22:09:08Z</time>
  <course>229.08</course>
  <speed>0.99</speed>
  <fix>3d</fix>
</trkpt>
<trkpt lat="33.8107105" lon="-118.39373">
  <ele>-4.153</ele>
  <time>2026-09-02T22:09:08Z</time>
  <course>230.38</course>
  <speed>0.9730878685915265</speed>
  <fix>3d</fix>
</trkpt>
<trkpt lat="33.8107117" lon="-118.393728">
  <ele>-4.13</ele>
  <time>2026-09-02T22:09:08Z</time>
  <course>229.08</course>
  <speed>0.99</speed>
  <fix>3d</fix>
</trkpt>
<trkpt lat="33.8107099" lon="-118.3937308">
  <ele>-4.131</ele>
  <time>2026-09-02T22:09:08Z</time>
  <course>230.36</course>
  <speed>0.9730878685915265</speed>
  <fix>3d</fix>
</trkpt>
<trkpt lat="33.8107106" lon="-118.3937297">
  <ele>-4.08</ele>
  <time>2026-09-02T22:09:08Z</time>
  <course>229.06</course>
  <speed>0.99</speed>
  <fix>3d</fix>
</trkpt>
<trkpt lat="33.8107094" lon="-118.3937317">
  <ele>-4.108</ele>
  <time>2026-09-02T22:09:08Z</time>
  <course>230.35</course>
  <speed>0.9730878685915265</speed>
  <fix>3d</fix>
</trkpt>
<trkpt lat="33.8107106" lon="-118.3937297">
  <ele>-4.08</ele>
  <time>2026-09-02T22:09:08Z</time>
  <course>229.06</course>
  <speed>0.99</speed>
  <fix>3d</fix>
</trkpt>
<trkpt lat="33.8107088" lon="-118.3937325">
  <ele>-4.083</ele>
  <time>2026-09-02T22:09:08Z</time>
  <course>230.32</course>
  <speed>0.9730878685915265</speed>
  <fix>3d</fix>
</trkpt>
<trkpt lat="33.8107094" lon="-118.3937312">
  <ele>-4.03</ele>
  <time>2026-09-02T22:09:08Z</time>
  <course>229.03</course>
  <speed>1.0</speed>
  <fix>3d</fix>
</trkpt>
<trkpt lat="33.8107082" lon="-118.3937333">
  <ele>-4.058</ele>
  <time>2026-09-02T22:09:08Z</time>
  <course>230.3</course>
  <speed>0.9730878685915265</speed>
  <fix>3d</fix>
</trkpt>
<trkpt lat="33.8107094" lon="-118.3937312">
  <ele>-4.03</ele>
  <time>2026-09-02T22:09:08Z</time>
  <course>229.03</course>
  <speed>1.0</speed>
  <fix>3d</fix>
</trkpt>
<trkpt lat="33.8107076" lon="-118.3937341">
  <ele>-4.032</ele>
  <time>2026-09-02T22:09:08Z</time>
  <course>230.28</course>
  <speed>0.9730878685915265</speed>
  <fix>3d</fix>
</trkpt>
<trkpt lat="33.8107082" lon="-118.3937329">
  <ele>-3.98</ele>
  <time>2026-09-02T22:09:08Z</time>
  <course>229.02</course>
  <speed>1.0</speed>
  <fix>3d</fix>
</trkpt>
<trkpt lat="33.810707" lon="-118.3937349">
  <ele>-4.006</ele>
  <time>2026-09-02T22:09:08Z</time>
  <course>230.27</course>
  <speed>0.9730878685915265</speed>
  <fix>3d</fix>
</trkpt>
<trkpt lat="33.8107082" lon="-118.3937329">
  <ele>-3.98</ele>
  <time>2026-09-02T22:09:08Z</time>
  <course>229.02</course>
  <speed>1.0</speed>
  <fix>3d</fix>
</trkpt>
<trkpt lat="33.8107064" lon="-118.3937357">
  <ele>-3.98</ele>
  <time>2026-09-02T22:09:08Z</time>
  <course>230.27</course>
  <speed>0.9730878685915265</speed>
  <fix>3d</fix>
</trkpt>
<trkpt lat="33.810707" lon="-118.3937345">
  <ele>-3.93</ele>
  <time>2026-09-02T22:09:08Z</time>
  <course>229.04</course>
  <speed>1.0</speed>
  <fix>3d</fix>
</trkpt>
<trkpt lat="33.8107058" lon="-118.3937366">
  <ele>-3.954</ele>
  <time>2026-09-02T22:09:08Z</time>
  <course>230.28</course>
  <speed>0.9730878685915265</speed>
  <fix>3d</fix>
</trkpt>
<trkpt lat="33.810707" lon="-118.3937345">
  <ele>-3.93</ele>
  <time>2026-09-02T22:09:08Z</time>
  <course>229.04</course>
  <speed>1.0</speed>
  <fix>3d</fix>
</trkpt>
<trkpt lat="33.8107052" lon="-118.3937374">
  <ele>-3.928</ele>
  <time>2026-09-02T22:09:08Z</time>
  <course>230.3</course>
  <speed>0.9730878685915265</speed>
  <fix>3d</fix>
</trkpt>
<trkpt lat="33.8107058" lon="-118.3937362">
  <ele>-3.88</ele>
  <time>2026-09-02T22:09:08Z</time>
  <course>229.07</course>
  <speed>1.0</speed>
  <fix>3d</fix>
</trkpt>
<trkpt lat="33.8107046" lon="-118.3937382">
  <ele>-3.903</ele>
  <time>2026-09-02T22:09:08Z</time>
  <course>230.32</course>
  <speed>0.9730878685915265</speed>
  <fix>3d</fix>
</trkpt>
<trkpt lat="33.8107058" lon="-118.3937362">
  <ele>-3.88</ele>
  <time>2026-09-02T22:09:08Z</time>
  <course>229.07</course>
  <speed>1.0</speed>
  <fix>3d</fix>
</trkpt>
<trkpt lat="33.8107041" lon="-118.393739">
  <ele>-3.88</ele>
  <time>2026-09-02T22:09:08Z</time>
  <course>230.35</course>
  <speed>0.9730878685915265</speed>
  <fix>3d</fix>
</trkpt>
<trkpt lat="33.8107046" lon="-118.3937379">
  <ele>-3.84</ele>
  <time>2026-09-02T22:09:08Z</time>
  <course>229.1</course>
  <speed>1.0</speed>
  <fix>3d</fix>
</trkpt>
<trkpt lat="33.8107035" lon="-118.3937398">
  <ele>-3.856</ele>
  <time>2026-09-02T22:09:08Z</time>
  <course>230.36</course>
  <speed>0.9730878685915265</speed>
  <fix>3d</fix>
</trkpt>
<trkpt lat="33.8107046" lon="-118.3937379">
  <ele>-3.84</ele>
  <time>2026-09-02T22:09:08Z</time>
  <course>229.1</course>
  <speed>1.0</speed>
  <fix>3d</fix>
</trkpt>
<trkpt lat="33.8107029" lon="-118.3937407">
  <ele>-3.833</ele>
  <time>2026-09-02T22:09:08Z</time>
  <course>230.37</course>
  <speed>0.9730878685915265</speed>
  <fix>3d</fix>
</trkpt>
<trkpt lat="33.8107034" lon="-118.3937395">
  <ele>-3.79</ele>
  <time>2026-09-02T22:09:08Z</time>
  <course>229.12</course>
  <speed>1.0</speed>
  <fix>3d</fix>
</trkpt>
<trkpt lat="33.8107023" lon="-118.3937415">
  <ele>-3.809</ele>
  <time>2026-09-02T22:09:08Z</time>
  <course>230.38</course>
  <speed>0.9730878685915265</speed>
  <fix>3d</fix>
</trkpt>
<trkpt lat="33.8107034" lon="-118.3937395">
  <ele>-3.79</ele>
  <time>2026-09-02T22:09:08Z</time>
  <course>229.12</course>
  <speed>1.0</speed>
  <fix>3d</fix>
</trkpt>
<trkpt lat="33.8107017" lon="-118.3937423">
  <ele>-3.785</ele>
  <time>2026-09-02T22:09:08Z</time>
  <course>230.39</course>
  <speed>0.9730878685915265</speed>
  <fix>3d</fix>
</trkpt>
<trkpt lat="33.8107022" lon="-118.3937411">
  <ele>-3.74</ele>
  <time>2026-09-02T22:09:08Z</time>
  <course>229.14</course>
  <speed>1.0</speed>
  <fix>3d</fix>
</trkpt>
<trkpt lat="33.8107011" lon="-118.3937431">
  <ele>-3.761</ele>
  <time>2026-09-02T22:09:08Z</time>
  <course>230.41</course>
  <speed>0.9730878685915265</speed>
  <fix>3d</fix>
</trkpt>
<trkpt lat="33.8107022" lon="-118.3937411">
  <ele>-3.74</ele>
  <time>2026-09-02T22:09:08Z</time>
  <course>229.14</course>
  <speed>1.0</speed>
  <fix>3d</fix>
</trkpt>
<trkpt lat="33.8107005" lon="-118.3937439">
  <ele>-3.736</ele>
  <time>2026-09-02T22:09:08Z</time>
  <course>230.44</course>
  <speed>0.9730878685915265</speed>
  <fix>3d</fix>
</trkpt>
<trkpt lat="33.810701" lon="-118.3937427">
  <ele>-3.69</ele>
  <time>2026-09-02T22:09:08Z</time>
  <course>229.17</course>
  <speed>1.0</speed>
  <fix>3d</fix>
</trkpt>
<trkpt lat="33.8106999" lon="-118.3937447">
  <ele>-3.711</ele>
  <time>2026-09-02T22:09:08Z</time>
  <course>230.47</course>
  <speed>0.9730878685915265</speed>
  <fix>3d</fix>
</trkpt>
<trkpt lat="33.810701" lon="-118.3937427">
  <ele>-3.69</ele>
  <time>2026-09-02T22:09:08Z</time>
  <course>229.17</course>
  <speed>1.0</speed>
  <fix>3d</fix>
</trkpt>
<trkpt lat="33.8106993" lon="-118.3937456">
  <ele>-3.686</ele>
  <time>2026-09-02T22:09:08Z</time>
  <course>230.52</course>
  <speed>0.9730878685915265</speed>
  <fix>3d</fix>
</trkpt>
<trkpt lat="33.8106999" lon="-118.3937444">
  <ele>-3.64</ele>
  <time>2026-09-02T22:09:08Z</time>
  <course>229.26</course>
  <speed>1.0</speed>
  <fix>3d</fix>
</trkpt>
<trkpt lat="33.8106987" lon="-118.3937464">
  <ele>-3.661</ele>
  <time>2026-09-02T22:09:08Z</time>
  <course>230.56</course>
  <speed>0.9730878685915265</speed>
  <fix>3d</fix>
</trkpt>
<trkpt lat="33.8106999" lon="-118.3937444">
  <ele>-3.64</ele>
  <time>2026-09-02T22:09:08Z</time>
  <course>229.26</course>
  <speed>1.0</speed>
  <fix>3d</fix>
</trkpt>
<trkpt lat="33.8106981" lon="-118.3937472">
  <ele>-3.637</ele>
  <time>2026-09-02T22:09:08Z</time>
  <course>230.58</course>
  <speed>0.9730878685915265</speed>
  <fix>3d</fix>
</trkpt>
<trkpt lat="33.8106988" lon="-118.393746">
  <ele>-3.59</ele>
  <time>2026-09-02T22:09:08Z</time>
  <course>229.32</course>
  <speed>1.0</speed>
  <fix>3d</fix>
</trkpt>
<trkpt lat="33.8106976" lon="-118.393748">
  <ele>-3.613</ele>
  <time>2026-09-02T22:09:08Z</time>
  <course>230.58</course>
  <speed>0.9730878685915265</speed>
  <fix>3d</fix>
</trkpt>
<trkpt lat="33.8106988" lon="-118.393746">
  <ele>-3.59</ele>
  <time>2026-09-02T22:09:08Z</time>
  <course>229.32</course>
  <speed>1.0</speed>
  <fix>3d</fix>
</trkpt>
<trkpt lat="33.810697" lon="-118.3937488">
  <ele>-3.589</ele>
  <time>2026-09-02T22:09:08Z</time>
  <course>230.56</course>
  <speed>0.9730878685915265</speed>
  <fix>3d</fix>
</trkpt>
<trkpt lat="33.8106976" lon="-118.3937477">
  <ele>-3.55</ele>
  <time>2026-09-02T22:09:08Z</time>
  <course>229.3</course>
  <speed>1.0</speed>
  <fix>3d</fix>
</trkpt>
<trkpt lat="33.8106964" lon="-118.3937497">
  <ele>-3.565</ele>
  <time>2026-09-02T22:09:08Z</time>
  <course>230.51</course>
  <speed>0.9730878685915265</speed>
  <fix>3d</fix>
</trkpt>
<trkpt lat="33.8106976" lon="-118.3937477">
  <ele>-3.55</ele>
  <time>2026-09-02T22:09:08Z</time>
  <course>229.3</course>
  <speed>1.0</speed>
  <fix>3d</fix>
</trkpt>
<trkpt lat="33.8106958" lon="-118.3937505">
  <ele>-3.539</ele>
  <time>2026-09-02T22:09:08Z</time>
  <course>230.46</course>
  <speed>0.9730878685915265</speed>
  <fix>3d</fix>
</trkpt>
<trkpt lat="33.8106964" lon="-118.3937493">
  <ele>-3.5</ele>
  <time>2026-09-02T22:09:08Z</time>
  <course>229.22</course>
  <speed>1.0</speed>
  <fix>3d</fix>
</trkpt>
<trkpt lat="33.8106952" lon="-118.3937513">
  <ele>-3.514</ele>
  <time>2026-09-02T22:09:08Z</time>
  <course>230.42</course>
  <speed>0.9730878685915265</speed>
  <fix>3d</fix>
</trkpt>
<trkpt lat="33.8106964" lon="-118.3937493">
  <ele>-3.5</ele>
  <time>2026-09-02T22:09:08Z</time>
  <course>229.22</course>
  <speed>1.0</speed>
  <fix>3d</fix>
</trkpt>
<trkpt lat="33.8106946" lon="-118.3937521">
  <ele>-3.488</ele>
  <time>2026-09-02T22:09:08Z</time>
  <course>230.38</course>
  <speed>0.9730878685915265</speed>
  <fix>3d</fix>
</trkpt>
<trkpt lat="33.8106952" lon="-118.393751">
  <ele>-3.45</ele>
  <time>2026-09-02T22:09:08Z</time>
  <course>229.16</course>
  <speed>1.0</speed>
  <fix>3d</fix>
</trkpt>
<trkpt lat="33.810694" lon="-118.3937529">
  <ele>-3.463</ele>
  <time>2026-09-02T22:09:08Z</time>
  <course>230.35</course>
  <speed>0.9730878685915265</speed>
  <fix>3d</fix>
</trkpt>
<trkpt lat="33.8106952" lon="-118.393751">
  <ele>-3.45</ele>
  <time>2026-09-02T22:09:08Z</time>
  <course>229.16</course>
  <speed>1.0</speed>
  <fix>3d</fix>
</trkpt>
<trkpt lat="33.8106934" lon="-118.3937538">
  <ele>-3.437</ele>
  <time>2026-09-02T22:09:08Z</time>
  <course>230.32</course>
  <speed>0.9730878685915265</speed>
  <fix>3d</fix>
</trkpt>
<trkpt lat="33.8106941" lon="-118.3937526">
  <ele>-3.39</ele>
  <time>2026-09-02T22:09:08Z</time>
  <course>229.12</course>
  <speed>1.0</speed>
  <fix>3d</fix>
</trkpt>
<trkpt lat="33.8106929" lon="-118.3937546">
  <ele>-3.41</ele>
  <time>2026-09-02T22:09:08Z</time>
  <course>230.29</course>
  <speed>0.9730878685915265</speed>
  <fix>3d</fix>
</trkpt>
<trkpt lat="33.8106941" lon="-118.3937526">
  <ele>-3.39</ele>
  <time>2026-09-02T22:09:08Z</time>
  <course>229.12</course>
  <speed>1.0</speed>
  <fix>3d</fix>
</trkpt>
<trkpt lat="33.8106923" lon="-118.3937554">
  <ele>-3.386</ele>
  <time>2026-09-02T22:09:08Z</time>
  <course>230.25</course>
  <speed>0.9730878685915265</speed>
  <fix>3d</fix>
</trkpt>
<trkpt lat="33.8106929" lon="-118.3937542">
  <ele>-3.35</ele>
  <time>2026-09-02T22:09:08Z</time>
  <course>229.08</course>
  <speed>1.0</speed>
  <fix>3d</fix>
</trkpt>
<trkpt lat="33.8106917" lon="-118.3937562">
  <ele>-3.361</ele>
  <time>2026-09-02T22:09:08Z</time>
  <course>230.22</course>
  <speed>0.9730878685915265</speed>
  <fix>3d</fix>
</trkpt>
<trkpt lat="33.8106929" lon="-118.3937542">
  <ele>-3.35</ele>
  <time>2026-09-02T22:09:08Z</time>
  <course>229.08</course>
  <speed>1.0</speed>
  <fix>3d</fix>
</trkpt>
<trkpt lat="33.8106911" lon="-118.393757">
  <ele>-3.338</ele>
  <time>2026-09-02T22:09:08Z</time>
  <course>230.19</course>
  <speed>0.9730878685915265</speed>
  <fix>3d</fix>
</trkpt>
<trkpt lat="33.8106917" lon="-118.3937559">
  <ele>-3.3</ele>
  <time>2026-09-02T22:09:08Z</time>
  <course>229.05</course>
  <speed>1.0</speed>
  <fix>3d</fix>
</trkpt>
<trkpt lat="33.8106905" lon="-118.3937579">
  <ele>-3.314</ele>
  <time>2026-09-02T22:09:08Z</time>
  <course>230.17</course>
  <speed>0.9730878685915265</speed>
  <fix>3d</fix>
</trkpt>
<trkpt lat="33.8106917" lon="-118.3937559">
  <ele>-3.3</ele>
  <time>2026-09-02T22:09:08Z</time>
  <course>229.05</course>
  <speed>1.0</speed>
  <fix>3d</fix>
</trkpt>
<trkpt lat="33.8106899" lon="-118.3937587">
  <ele>-3.291</ele>
  <time>2026-09-02T22:09:08Z</time>
  <course>230.15</course>
  <speed>0.9730878685915265</speed>
  <fix>3d</fix>
</trkpt>
<trkpt lat="33.8106905" lon="-118.3937575">
  <ele>-3.25</ele>
  <time>2026-09-02T22:09:08Z</time>
  <course>229.03</course>
  <speed>1.0</speed>
  <fix>3d</fix>
</trkpt>
<trkpt lat="33.8106893" lon="-118.3937595">
  <ele>-3.266</ele>
  <time>2026-09-02T22:09:08Z</time>
  <course>230.14</course>
  <speed>0.9730878685915265</speed>
  <fix>3d</fix>
</trkpt>
<trkpt lat="33.8106905" lon="-118.3937575">
  <ele>-3.25</ele>
  <time>2026-09-02T22:09:08Z</time>
  <course>229.03</course>
  <speed>1.0</speed>
  <fix>3d</fix>
</trkpt>
<trkpt lat="33.8106887" lon="-118.3937603">
  <ele>-3.24</ele>
  <time>2026-09-02T22:09:08Z</time>
  <course>230.14</course>
  <speed>0.9730878685915265</speed>
  <fix>3d</fix>
</trkpt>
<trkpt lat="33.8106893" lon="-118.3937592">
  <ele>-3.2</ele>
  <time>2026-09-02T22:09:08Z</time>
  <course>229.02</course>
  <speed>1.0</speed>
  <fix>3d</fix>
</trkpt>
<trkpt lat="33.8106881" lon="-118.3937611">
  <ele>-3.214</ele>
  <time>2026-09-02T22:09:08Z</time>
  <course>230.14</course>
  <speed>0.9730878685915265</speed>
  <fix>3d</fix>
</trkpt>
<trkpt lat="33.8106893" lon="-118.3937592">
  <ele>-3.2</ele>
  <time>2026-09-02T22:09:08Z</time>
  <course>229.02</course>
  <speed>1.0</speed>
  <fix>3d</fix>
</trkpt>
<trkpt lat="33.8106876" lon="-118.393762">
  <ele>-3.188</ele>
  <time>2026-09-02T22:09:08Z</time>
  <course>230.14</course>
  <speed>0.9730878685915265</speed>
  <fix>3d</fix>
</trkpt>
<trkpt lat="33.8106882" lon="-118.3937608">
  <ele>-3.16</ele>
  <time>2026-09-02T22:09:08Z</time>
  <course>229.02</course>
  <speed>1.0</speed>
  <fix>3d</fix>
</trkpt>
<trkpt lat="33.810687" lon="-118.3937628">
  <ele>-3.162</ele>
  <time>2026-09-02T22:09:08Z</time>
  <course>230.14</course>
  <speed>0.9730878685915265</speed>
  <fix>3d</fix>
</trkpt>
<trkpt lat="33.8106882" lon="-118.3937608">
  <ele>-3.16</ele>
  <time>2026-09-02T22:09:08Z</time>
  <course>229.02</course>
  <speed>1.0</speed>
  <fix>3d</fix>
</trkpt>
<trkpt lat="33.8106864" lon="-118.3937636">
  <ele>-3.137</ele>
  <time>2026-09-02T22:09:08Z</time>
  <course>230.14</course>
  <speed>0.9730878685915265</speed>
  <fix>3d</fix>
</trkpt>
<trkpt lat="33.810687" lon="-118.3937625">
  <ele>-3.11</ele>
  <time>2026-09-02T22:09:08Z</time>
  <course>229.01</course>
  <speed>1.0</speed>
  <fix>3d</fix>
</trkpt>
<trkpt lat="33.8106858" lon="-118.3937644">
  <ele>-3.112</ele>
  <time>2026-09-02T22:09:08Z</time>
  <course>230.12</course>
  <speed>0.9730878685915265</speed>
  <fix>3d</fix>
</trkpt>
<trkpt lat="33.810687" lon="-118.3937625">
  <ele>-3.11</ele>
  <time>2026-09-02T22:09:08Z</time>
  <course>229.01</course>
  <speed>1.0</speed>
  <fix>3d</fix>
</trkpt>
<trkpt lat="33.8106852" lon="-118.3937652">
  <ele>-3.088</ele>
  <time>2026-09-02T22:09:08Z</time>
  <course>230.09</course>
  <speed>0.9654014708917736</speed>
  <fix>3d</fix>
</trkpt>
<trkpt lat="33.8106858" lon="-118.3937641">
  <ele>-3.06</ele>
  <time>2026-09-02T22:09:08Z</time>
  <course>228.97</course>
  <speed>1.0</speed>
  <fix>3d</fix>
</trkpt>
<trkpt lat="33.8106846" lon="-118.3937661">
  <ele>-3.065</ele>
  <time>2026-09-02T22:09:08Z</time>
  <course>230.07</course>
  <speed>0.9654014708917736</speed>
  <fix>3d</fix>
</trkpt>
<trkpt lat="33.8106858" lon="-118.3937641">
  <ele>-3.06</ele>
  <time>2026-09-02T22:09:08Z</time>
  <course>228.97</course>
  <speed>1.0</speed>
  <fix>3d</fix>
</trkpt>
<trkpt lat="33.810684" lon="-118.3937669">
  <ele>-3.042</ele>
  <time>2026-09-02T22:09:08Z</time>
  <course>230.05</course>
  <speed>0.9730878685915265</speed>
  <fix>3d</fix>
</trkpt>
<trkpt lat="33.8106846" lon="-118.3937657">
  <ele>-3.02</ele>
  <time>2026-09-02T22:09:08Z</time>
  <course>228.92</course>
  <speed>1.0</speed>
  <fix>3d</fix>
</trkpt>
<trkpt lat="33.8106834" lon="-118.3937677">
  <ele>-3.019</ele>
  <time>2026-09-02T22:09:08Z</time>
  <course>230.05</course>
  <speed>0.9730878685915265</speed>
  <fix>3d</fix>
</trkpt>
<trkpt lat="33.8106846" lon="-118.3937657">
  <ele>-3.02</ele>
  <time>2026-09-02T22:09:08Z</time>
  <course>228.92</course>
  <speed>1.0</speed>
  <fix>3d</fix>
</trkpt>
<trkpt lat="33.8106828" lon="-118.3937685">
  <ele>-2.997</ele>
  <time>2026-09-02T22:09:08Z</time>
  <course>230.06</course>
  <speed>0.9730878685915265</speed>
  <fix>3d</fix>
</trkpt>
<trkpt lat="33.8106834" lon="-118.3937674">
  <ele>-2.97</ele>
  <time>2026-09-02T22:09:08Z</time>
  <course>228.91</course>
  <speed>1.0</speed>
  <fix>3d</fix>
</trkpt>
<trkpt lat="33.8106823" lon="-118.3937693">
  <ele>-2.974</ele>
  <time>2026-09-02T22:09:08Z</time>
  <course>230.07</course>
  <speed>0.9730878685915265</speed>
  <fix>3d</fix>
</trkpt>
<trkpt lat="33.8106834" lon="-118.3937674">
  <ele>-2.97</ele>
  <time>2026-09-02T22:09:08Z</time>
  <course>228.91</course>
  <speed>1.0</speed>
  <fix>3d</fix>
</trkpt>
<trkpt lat="33.8106817" lon="-118.3937701">
  <ele>-2.951</ele>
  <time>2026-09-02T22:09:08Z</time>
  <course>230.1</course>
  <speed>0.9730878685915265</speed>
  <fix>3d</fix>
</trkpt>
<trkpt lat="33.8106822" lon="-118.393769">
  <ele>-2.93</ele>
  <time>2026-09-02T22:09:08Z</time>
  <course>228.95</course>
  <speed>0.99</speed>
  <fix>3d</fix>
</trkpt>
<trkpt lat="33.8106811" lon="-118.393771">
  <ele>-2.927</ele>
  <time>2026-09-02T22:09:08Z</time>
  <course>230.12</course>
  <speed>0.9730878685915265</speed>
  <fix>3d</fix>
</trkpt>
<trkpt lat="33.8106822" lon="-118.393769">
  <ele>-2.93</ele>
  <time>2026-09-02T22:09:08Z</time>
  <course>228.95</course>
  <speed>0.99</speed>
  <fix>3d</fix>
</trkpt>
<trkpt lat="33.8106805" lon="-118.3937718">
  <ele>-2.902</ele>
  <time>2026-09-02T22:09:08Z</time>
  <course>230.15</course>
  <speed>0.9730878685915265</speed>
  <fix>3d</fix>
</trkpt>
<trkpt lat="33.810681" lon="-118.3937706">
  <ele>-2.88</ele>
  <time>2026-09-02T22:09:08Z</time>
  <course>229.0</course>
  <speed>0.99</speed>
  <fix>3d</fix>
</trkpt>
<trkpt lat="33.8106799" lon="-118.3937726">
  <ele>-2.877</ele>
  <time>2026-09-02T22:09:08Z</time>
  <course>230.17</course>
  <speed>0.9730878685915265</speed>
  <fix>3d</fix>
</trkpt>
<trkpt lat="33.810681" lon="-118.3937706">
  <ele>-2.88</ele>
  <time>2026-09-02T22:09:08Z</time>
  <course>229.0</course>
  <speed>0.99</speed>
  <fix>3d</fix>
</trkpt>
<trkpt lat="33.8106793" lon="-118.3937734">
  <ele>-2.852</ele>
  <time>2026-09-02T22:09:08Z</time>
  <course>230.2</course>
  <speed>0.9730878685915265</speed>
  <fix>3d</fix>
</trkpt>
<trkpt lat="33.8106798" lon="-118.3937722">
  <ele>-2.83</ele>
  <time>2026-09-02T22:09:08Z</time>
  <course>229.04</course>
  <speed>0.99</speed>
  <fix>3d</fix>
</trkpt>
<trkpt lat="33.8106787" lon="-118.3937742">
  <ele>-2.826</ele>
  <time>2026-09-02T22:09:08Z</time>
  <course>230.26</course>
  <speed>0.9730878685915265</speed>
  <fix>3d</fix>
</trkpt>
<trkpt lat="33.8106798" lon="-118.3937722">
  <ele>-2.83</ele>
  <time>2026-09-02T22:09:08Z</time>
  <course>229.04</course>
  <speed>0.99</speed>
  <fix>3d</fix>
</trkpt>
<trkpt lat="33.8106781" lon="-118.393775">
  <ele>-2.8</ele>
  <time>2026-09-02T22:09:08Z</time>
  <course>230.32</course>
  <speed>0.9730878685915265</speed>
  <fix>3d</fix>
</trkpt>
<trkpt lat="33.8106787" lon="-118.3937738">
  <ele>-2.78</ele>
  <time>2026-09-02T22:09:08Z</time>
  <course>229.11</course>
  <speed>0.99</speed>
  <fix>3d</fix>
</trkpt>
<trkpt lat="33.8106775" lon="-118.3937758">
  <ele>-2.775</ele>
  <time>2026-09-02T22:09:08Z</time>
  <course>230.37</course>
  <speed>0.9730878685915265</speed>
  <fix>3d</fix>
</trkpt>
<trkpt lat="33.8106787" lon="-118.3937738">
  <ele>-2.78</ele>
  <time>2026-09-02T22:09:08Z</time>
  <course>229.11</course>
  <speed>0.99</speed>
  <fix>3d</fix>
</trkpt>
<trkpt lat="33.8106769" lon="-118.3937767">
  <ele>-2.75</ele>
  <time>2026-09-02T22:09:08Z</time>
  <course>230.42</course>
  <speed>0.9730878685915265</speed>
  <fix>3d</fix>
</trkpt>
<trkpt lat="33.8106776" lon="-118.3937755">
  <ele>-2.73</ele>
  <time>2026-09-02T22:09:08Z</time>
  <course>229.2</course>
  <speed>1.0</speed>
  <fix>3d</fix>
</trkpt>
<trkpt lat="33.8106764" lon="-118.3937775">
  <ele>-2.725</ele>
  <time>2026-09-02T22:09:08Z</time>
  <course>230.44</course>
  <speed>0.9730878685915265</speed>
  <fix>3d</fix>
</trkpt>
<trkpt lat="33.8106776" lon="-118.3937755">
  <ele>-2.73</ele>
  <time>2026-09-02T22:09:08Z</time>
  <course>229.2</course>
  <speed>1.0</speed>
  <fix>3d</fix>
</trkpt>
<trkpt lat="33.8106758" lon="-118.3937783">
  <ele>-2.699</ele>
  <time>2026-09-02T22:09:08Z</time>
  <course>230.44</course>
  <speed>0.9730878685915265</speed>
  <fix>3d</fix>
</trkpt>
<trkpt lat="33.8106764" lon="-118.3937771">
  <ele>-2.68</ele>
  <time>2026-09-02T22:09:08Z</time>
  <course>229.18</course>
  <speed>1.0</speed>
  <fix>3d</fix>
</trkpt>
<trkpt lat="33.8106752" lon="-118.3937791">
  <ele>-2.673</ele>
  <time>2026-09-02T22:09:08Z</time>
  <course>230.41</course>
  <speed>0.9730878685915265</speed>
  <fix>3d</fix>
</trkpt>
<trkpt lat="33.8106764" lon="-118.3937771">
  <ele>-2.68</ele>
  <time>2026-09-02T22:09:08Z</time>
  <course>229.18</course>
  <speed>1.0</speed>
  <fix>3d</fix>
</trkpt>
<trkpt lat="33.8106746" lon="-118.3937799">
  <ele>-2.647</ele>
  <time>2026-09-02T22:09:08Z</time>
  <course>230.38</course>
  <speed>0.9730878685915265</speed>
  <fix>3d</fix>
</trkpt>
<trkpt lat="33.8106752" lon="-118.3937788">
  <ele>-2.63</ele>
  <time>2026-09-02T22:09:08Z</time>
  <course>229.12</course>
  <speed>1.0</speed>
  <fix>3d</fix>
</trkpt>
<trkpt lat="33.810674" lon="-118.3937807">
  <ele>-2.62</ele>
  <time>2026-09-02T22:09:08Z</time>
  <course>230.36</course>
  <speed>0.9730878685915265</speed>
  <fix>3d</fix>
</trkpt>
<trkpt lat="33.8106752" lon="-118.3937788">
  <ele>-2.63</ele>
  <time>2026-09-02T22:09:08Z</time>
  <course>229.12</course>
  <speed>1.0</speed>
  <fix>3d</fix>
</trkpt>
<trkpt lat="33.8106734" lon="-118.3937816">
  <ele>-2.594</ele>
  <time>2026-09-02T22:09:08Z</time>
  <course>230.33</course>
  <speed>0.9730878685915265</speed>
  <fix>3d</fix>
</trkpt>
<trkpt lat="33.810674" lon="-118.3937804">
  <ele>-2.58</ele>
  <time>2026-09-02T22:09:08Z</time>
  <course>229.09</course>
  <speed>1.0</speed>
  <fix>3d</fix>
</trkpt>
<trkpt lat="33.8106728" lon="-118.3937824">
  <ele>-2.568</ele>
  <time>2026-09-02T22:09:08Z</time>
  <course>230.3</course>
  <speed>0.9730878685915265</speed>
  <fix>3d</fix>
</trkpt>
<trkpt lat="33.810674" lon="-118.3937804">
  <ele>-2.58</ele>
  <time>2026-09-02T22:09:08Z</time>
  <course>229.09</course>
  <speed>1.0</speed>
  <fix>3d</fix>
</trkpt>
<trkpt lat="33.8106723" lon="-118.3937832">
  <ele>-2.544</ele>
  <time>2026-09-02T22:09:08Z</time>
  <course>230.29</course>
  <speed>0.9730878685915265</speed>
  <fix>3d</fix>
</trkpt>
<trkpt lat="33.8106728" lon="-118.3937821">
  <ele>-2.53</ele>
  <time>2026-09-02T22:09:08Z</time>
  <course>229.06</course>
  <speed>1.0</speed>
  <fix>3d</fix>
</trkpt>
<trkpt lat="33.8106717" lon="-118.393784">
  <ele>-2.522</ele>
  <time>2026-09-02T22:09:08Z</time>
  <course>230.28</course>
  <speed>0.9730878685915265</speed>
  <fix>3d</fix>
</trkpt>
<trkpt lat="33.8106728" lon="-118.3937821">
  <ele>-2.53</ele>
  <time>2026-09-02T22:09:08Z</time>
  <course>229.06</course>
  <speed>1.0</speed>
  <fix>3d</fix>
</trkpt>
<trkpt lat="33.8106711" lon="-118.3937848">
  <ele>-2.5</ele>
  <time>2026-09-02T22:09:08Z</time>
  <course>230.28</course>
  <speed>0.9730878685915265</speed>
  <fix>3d</fix>
</trkpt>
<trkpt lat="33.8106716" lon="-118.3937837">
  <ele>-2.49</ele>
  <time>2026-09-02T22:09:08Z</time>
  <course>229.05</course>
  <speed>1.0</speed>
  <fix>3d</fix>
</trkpt>
<trkpt lat="33.8106705" lon="-118.3937856">
  <ele>-2.478</ele>
  <time>2026-09-02T22:09:08Z</time>
  <course>230.28</course>
  <speed>0.9730878685915265</speed>
  <fix>3d</fix>
</trkpt>
<trkpt lat="33.8106716" lon="-118.3937837">
  <ele>-2.49</ele>
  <time>2026-09-02T22:09:08Z</time>
  <course>229.05</course>
  <speed>1.0</speed>
  <fix>3d</fix>
</trkpt>
<trkpt lat="33.8106699" lon="-118.3937865">
  <ele>-2.455</ele>
  <time>2026-09-02T22:09:08Z</time>
  <course>230.29</course>
  <speed>0.9730878685915265</speed>
  <fix>3d</fix>
</trkpt>
<trkpt lat="33.8106705" lon="-118.3937853">
  <ele>-2.44</ele>
  <time>2026-09-02T22:09:08Z</time>
  <course>229.05</course>
  <speed>1.0</speed>
  <fix>3d</fix>
</trkpt>
<trkpt lat="33.8106693" lon="-118.3937873">
  <ele>-2.431</ele>
  <time>2026-09-02T22:09:08Z</time>
  <course>230.3</course>
  <speed>0.9730878685915265</speed>
  <fix>3d</fix>
</trkpt>
<trkpt lat="33.8106705" lon="-118.3937853">
  <ele>-2.44</ele>
  <time>2026-09-02T22:09:08Z</time>
  <course>229.05</course>
  <speed>1.0</speed>
  <fix>3d</fix>
</trkpt>
<trkpt lat="33.8106687" lon="-118.3937881">
  <ele>-2.405</ele>
  <time>2026-09-02T22:09:08Z</time>
  <course>230.3</course>
  <speed>0.9730878685915265</speed>
  <fix>3d</fix>
</trkpt>
<trkpt lat="33.8106693" lon="-118.393787">
  <ele>-2.4</ele>
  <time>2026-09-02T22:09:08Z</time>
  <course>229.06</course>
  <speed>1.0</speed>
  <fix>3d</fix>
</trkpt>
<trkpt lat="33.8106681" lon="-118.3937889">
  <ele>-2.379</ele>
  <time>2026-09-02T22:09:08Z</time>
  <course>230.3</course>
  <speed>0.9730878685915265</speed>
  <fix>3d</fix>
</trkpt>
<trkpt lat="33.8106693" lon="-118.393787">
  <ele>-2.4</ele>
  <time>2026-09-02T22:09:08Z</time>
  <course>229.06</course>
  <speed>1.0</speed>
  <fix>3d</fix>
</trkpt>
<trkpt lat="33.8106675" lon="-118.3937897">
  <ele>-2.354</ele>
  <time>2026-09-02T22:09:08Z</time>
  <course>230.29</course>
  <speed>0.9730878685915265</speed>
  <fix>3d</fix>
</trkpt>
<trkpt lat="33.8106681" lon="-118.3937886">
  <ele>-2.35</ele>
  <time>2026-09-02T22:09:08Z</time>
  <course>229.04</course>
  <speed>1.0</speed>
  <fix>3d</fix>
</trkpt>
<trkpt lat="33.8106669" lon="-118.3937906">
  <ele>-2.33</ele>
  <time>2026-09-02T22:09:08Z</time>
  <course>230.28</course>
  <speed>0.9730878685915265</speed>
  <fix>3d</fix>
</trkpt>
<trkpt lat="33.8106681" lon="-118.3937886">
  <ele>-2.35</ele>
  <time>2026-09-02T22:09:08Z</time>
  <course>229.04</course>
  <speed>1.0</speed>
  <fix>3d</fix>
</trkpt>
<trkpt lat="33.8106664" lon="-118.3937914">
  <ele>-2.305</ele>
  <time>2026-09-02T22:09:08Z</time>
  <course>230.27</course>
  <speed>0.9730878685915265</speed>
  <fix>3d</fix>
</trkpt>
<trkpt lat="33.8106669" lon="-118.3937903">
  <ele>-2.3</ele>
  <time>2026-09-02T22:09:08Z</time>
  <course>229.02</course>
  <speed>1.0</speed>
  <fix>3d</fix>
</trkpt>
<trkpt lat="33.8106658" lon="-118.3937922">
  <ele>-2.281</ele>
  <time>2026-09-02T22:09:08Z</time>
  <course>230.27</course>
  <speed>0.9730878685915265</speed>
  <fix>3d</fix>
</trkpt>
<trkpt lat="33.8106669" lon="-118.3937903">
  <ele>-2.3</ele>
  <time>2026-09-02T22:09:08Z</time>
  <course>229.02</course>
  <speed>1.0</speed>
  <fix>3d</fix>
</trkpt>
<trkpt lat="33.8106652" lon="-118.393793">
  <ele>-2.256</ele>
  <time>2026-09-02T22:09:08Z</time>
  <course>230.27</course>
  <speed>0.9730878685915265</speed>
  <fix>3d</fix>
</trkpt>
<trkpt lat="33.8106657" lon="-118.393792">
  <ele>-2.25</ele>
  <time>2026-09-02T22:09:08Z</time>
  <course>229.0</course>
  <speed>1.0</speed>
  <fix>3d</fix>
</trkpt>
<trkpt lat="33.8106646" lon="-118.3937939">
  <ele>-2.232</ele>
  <time>2026-09-02T22:09:08Z</time>
  <course>230.27</course>
  <speed>0.9730878685915265</speed>
  <fix>3d</fix>
</trkpt>
<trkpt lat="33.8106657" lon="-118.393792">
  <ele>-2.25</ele>
  <time>2026-09-02T22:09:08Z</time>
  <course>229.0</course>
  <speed>1.0</speed>
  <fix>3d</fix>
</trkpt>
<trkpt lat="33.810664" lon="-118.3937947">
  <ele>-2.208</ele>
  <time>2026-09-02T22:09:08Z</time>
  <course>230.26</course>
  <speed>0.9730878685915265</speed>
  <fix>3d</fix>
</trkpt>
<trkpt lat="33.8106645" lon="-118.3937936">
  <ele>-2.21</ele>
  <time>2026-09-02T22:09:08Z</time>
  <course>228.99</course>
  <speed>1.0</speed>
  <fix>3d</fix>
</trkpt>
<trkpt lat="33.8106634" lon="-118.3937955">
  <ele>-2.183</ele>
  <time>2026-09-02T22:09:08Z</time>
  <course>230.26</course>
  <speed>0.9730878685915265</speed>
  <fix>3d</fix>
</trkpt>
<trkpt lat="33.8106645" lon="-118.3937936">
  <ele>-2.21</ele>
  <time>2026-09-02T22:09:08Z</time>
  <course>228.99</course>
  <speed>1.0</speed>
  <fix>3d</fix>
</trkpt>
<trkpt lat="33.8106628" lon="-118.3937963">
  <ele>-2.159</ele>
  <time>2026-09-02T22:09:08Z</time>
  <course>230.26</course>
  <speed>0.9730878685915265</speed>
  <fix>3d</fix>
</trkpt>
<trkpt lat="33.8106633" lon="-118.3937952">
  <ele>-2.16</ele>
  <time>2026-09-02T22:09:08Z</time>
  <course>229.0</course>
  <speed>1.0</speed>
  <fix>3d</fix>
</trkpt>
<trkpt lat="33.8106622" lon="-118.3937971">
  <ele>-2.134</ele>
  <time>2026-09-02T22:09:08Z</time>
  <course>230.27</course>
  <speed>0.9730878685915265</speed>
  <fix>3d</fix>
</trkpt>
<trkpt lat="33.8106633" lon="-118.3937952">
  <ele>-2.16</ele>
  <time>2026-09-02T22:09:08Z</time>
  <course>229.0</course>
  <speed>1.0</speed>
  <fix>3d</fix>
</trkpt>
<trkpt lat="33.8106616" lon="-118.393798">
  <ele>-2.11</ele>
  <time>2026-09-02T22:09:08Z</time>
  <course>230.3</course>
  <speed>0.9730878685915265</speed>
  <fix>3d</fix>
</trkpt>
<trkpt lat="33.8106621" lon="-118.3937968">
  <ele>-2.11</ele>
  <time>2026-09-02T22:09:08Z</time>
  <course>229.03</course>
  <speed>1.0</speed>
  <fix>3d</fix>
</trkpt>
<trkpt lat="33.810661" lon="-118.3937988">
  <ele>-2.086</ele>
  <time>2026-09-02T22:09:08Z</time>
  <course>230.32</course>
  <speed>0.9730878685915265</speed>
  <fix>3d</fix>
</trkpt>
<trkpt lat="33.8106621" lon="-118.3937968">
  <ele>-2.11</ele>
  <time>2026-09-02T22:09:08Z</time>
  <course>229.03</course>
  <speed>1.0</speed>
  <fix>3d</fix>
</trkpt>
<trkpt lat="33.8106604" lon="-118.3937996">
  <ele>-2.062</ele>
  <time>2026-09-02T22:09:08Z</time>
  <course>230.37</course>
  <speed>0.9730878685915265</speed>
  <fix>3d</fix>
</trkpt>
<trkpt lat="33.8106609" lon="-118.3937985">
  <ele>-2.06</ele>
  <time>2026-09-02T22:09:08Z</time>
  <course>229.11</course>
  <speed>1.0</speed>
  <fix>3d</fix>
</trkpt>
<trkpt lat="33.8106598" lon="-118.3938004">
  <ele>-2.037</ele>
  <time>2026-09-02T22:09:08Z</time>
  <course>230.41</course>
  <speed>0.9730878685915265</speed>
  <fix>3d</fix>
</trkpt>
<trkpt lat="33.8106609" lon="-118.3937985">
  <ele>-2.06</ele>
  <time>2026-09-02T22:09:08Z</time>
  <course>229.11</course>
  <speed>1.0</speed>
  <fix>3d</fix>
</trkpt>
<trkpt lat="33.8106593" lon="-118.3938012">
  <ele>-2.012</ele>
  <time>2026-09-02T22:09:08Z</time>
  <course>230.46</course>
  <speed>0.9730878685915265</speed>
  <fix>3d</fix>
</trkpt>
<trkpt lat="33.8106597" lon="-118.3938001">
  <ele>-2.01</ele>
  <time>2026-09-02T22:09:08Z</time>
  <course>229.19</course>
  <speed>1.0</speed>
  <fix>3d</fix>
</trkpt>
<trkpt lat="33.8106587" lon="-118.393802">
  <ele>-1.987</ele>
  <time>2026-09-02T22:09:08Z</time>
  <course>230.5</course>
  <speed>0.9667471230885561</speed>
  <fix>3d</fix>
</trkpt>
<trkpt lat="33.8106597" lon="-118.3938001">
  <ele>-2.01</ele>
  <time>2026-09-02T22:09:08Z</time>
  <course>229.19</course>
  <speed>1.0</speed>
  <fix>3d</fix>
</trkpt>
<trkpt lat="33.8106581" lon="-118.3938029">
  <ele>-1.962</ele>
  <time>2026-09-02T22:09:08Z</time>
  <course>230.54</course>
  <speed>0.9667471230885561</speed>
  <fix>3d</fix>
</trkpt>
<trkpt lat="33.8106586" lon="-118.3938018">
  <ele>-1.96</ele>
  <time>2026-09-02T22:09:08Z</time>
  <course>229.25</course>
  <speed>0.99</speed>
  <fix>3d</fix>
</trkpt>
<trkpt lat="33.8106575" lon="-118.3938037">
  <ele>-1.937</ele>
  <time>2026-09-02T22:09:08Z</time>
  <course>230.58</course>
  <speed>0.9667471230885561</speed>
  <fix>3d</fix>
</trkpt>
<trkpt lat="33.8106586" lon="-118.3938018">
  <ele>-1.96</ele>
  <time>2026-09-02T22:09:08Z</time>
  <course>229.25</course>
  <speed>0.99</speed>
  <fix>3d</fix>
</trkpt>
<trkpt lat="33.8106569" lon="-118.3938045">
  <ele>-1.913</ele>
  <time>2026-09-02T22:09:08Z</time>
  <course>230.59</course>
  <speed>0.9730878685915265</speed>
  <fix>3d</fix>
</trkpt>
<trkpt lat="33.8106575" lon="-118.3938034">
  <ele>-1.91</ele>
  <time>2026-09-02T22:09:08Z</time>
  <course>229.28</course>
  <speed>0.99</speed>
  <fix>3d</fix>
</trkpt>
<trkpt lat="33.8106563" lon="-118.3938053">
  <ele>-1.888</ele>
  <time>2026-09-02T22:09:08Z</time>
  <course>230.58</course>
  <speed>0.9730878685915265</speed>
  <fix>3d</fix>
</trkpt>
<trkpt lat="33.8106575" lon="-118.3938034">
  <ele>-1.91</ele>
  <time>2026-09-02T22:09:08Z</time>
  <course>229.28</course>
  <speed>0.99</speed>
  <fix>3d</fix>
</trkpt>
<trkpt lat="33.8106557" lon="-118.3938061">
  <ele>-1.862</ele>
  <time>2026-09-02T22:09:08Z</time>
  <course>230.54</course>
  <speed>0.9730878685915265</speed>
  <fix>3d</fix>
</trkpt>
<trkpt lat="33.8106563" lon="-118.3938051">
  <ele>-1.86</ele>
  <time>2026-09-02T22:09:08Z</time>
  <course>229.22</course>
  <speed>0.99</speed>
  <fix>3d</fix>
</trkpt>
<trkpt lat="33.8106551" lon="-118.393807">
  <ele>-1.835</ele>
  <time>2026-09-02T22:09:08Z</time>
  <course>230.49</course>
  <speed>0.9730878685915265</speed>
  <fix>3d</fix>
</trkpt>
<trkpt lat="33.8106563" lon="-118.3938051">
  <ele>-1.86</ele>
  <time>2026-09-02T22:09:08Z</time>
  <course>229.22</course>
  <speed>0.99</speed>
  <fix>3d</fix>
</trkpt>
<trkpt lat="33.8106546" lon="-118.3938078">
  <ele>-1.81</ele>
  <time>2026-09-02T22:09:08Z</time>
  <course>230.43</course>
  <speed>0.9730878685915265</speed>
  <fix>3d</fix>
</trkpt>
<trkpt lat="33.8106551" lon="-118.3938067">
  <ele>-1.81</ele>
  <time>2026-09-02T22:09:08Z</time>
  <course>229.11</course>
  <speed>0.99</speed>
  <fix>3d</fix>
</trkpt>
<trkpt lat="33.810654" lon="-118.3938086">
  <ele>-1.785</ele>
  <time>2026-09-02T22:09:08Z</time>
  <course>230.38</course>
  <speed>0.9730878685915265</speed>
  <fix>3d</fix>
</trkpt>
<trkpt lat="33.8106551" lon="-118.3938067">
  <ele>-1.81</ele>
  <time>2026-09-02T22:09:08Z</time>
  <course>229.11</course>
  <speed>0.99</speed>
  <fix>3d</fix>
</trkpt>
<trkpt lat="33.8106534" lon="-118.3938094">
  <ele>-1.761</ele>
  <time>2026-09-02T22:09:08Z</time>
  <course>230.34</course>
  <speed>0.9730878685915265</speed>
  <fix>3d</fix>
</trkpt>
<trkpt lat="33.8106539" lon="-118.3938083">
  <ele>-1.77</ele>
  <time>2026-09-02T22:09:08Z</time>
  <course>229.03</course>
  <speed>0.99</speed>
  <fix>3d</fix>
</trkpt>
<trkpt lat="33.8106528" lon="-118.3938102">
  <ele>-1.736</ele>
  <time>2026-09-02T22:09:08Z</time>
  <course>230.3</course>
  <speed>0.9730878685915265</speed>
  <fix>3d</fix>
</trkpt>
<trkpt lat="33.8106539" lon="-118.3938083">
  <ele>-1.77</ele>
  <time>2026-09-02T22:09:08Z</time>
  <course>229.03</course>
  <speed>0.99</speed>
  <fix>3d</fix>
</trkpt>
<trkpt lat="33.8106522" lon="-118.3938111">
  <ele>-1.711</ele>
  <time>2026-09-02T22:09:08Z</time>
  <course>230.29</course>
  <speed>0.9730878685915265</speed>
  <fix>3d</fix>
</trkpt>
<trkpt lat="33.8106528" lon="-118.39381">
  <ele>-1.72</ele>
  <time>2026-09-02T22:09:08Z</time>
  <course>229.02</course>
  <speed>0.99</speed>
  <fix>3d</fix>
</trkpt>
<trkpt lat="33.8106516" lon="-118.3938119">
  <ele>-1.685</ele>
  <time>2026-09-02T22:09:08Z</time>
  <course>230.28</course>
  <speed>0.9730878685915265</speed>
  <fix>3d</fix>
</trkpt>
<trkpt lat="33.8106528" lon="-118.39381">
  <ele>-1.72</ele>
  <time>2026-09-02T22:09:08Z</time>
  <course>229.02</course>
  <speed>0.99</speed>
  <fix>3d</fix>
</trkpt>
<trkpt lat="33.810651" lon="-118.3938127">
  <ele>-1.661</ele>
  <time>2026-09-02T22:09:08Z</time>
  <course>230.25</course>
  <speed>0.9730878685915265</speed>
  <fix>3d</fix>
</trkpt>
<trkpt lat="33.8106516" lon="-118.3938116">
  <ele>-1.67</ele>
  <time>2026-09-02T22:09:08Z</time>
  <course>228.99</course>
  <speed>0.99</speed>
  <fix>3d</fix>
</trkpt>
<trkpt lat="33.8106504" lon="-118.3938135">
  <ele>-1.636</ele>
  <time>2026-09-02T22:09:08Z</time>
  <course>230.23</course>
  <speed>0.9730878685915265</speed>
  <fix>3d</fix>
</trkpt>
<trkpt lat="33.8106516" lon="-118.3938116">
  <ele>-1.67</ele>
  <time>2026-09-02T22:09:08Z</time>
  <course>228.99</course>
  <speed>0.99</speed>
  <fix>3d</fix>
</trkpt>
<trkpt lat="33.8106499" lon="-118.3938143">
  <ele>-1.613</ele>
  <time>2026-09-02T22:09:08Z</time>
  <course>230.2</course>
  <speed>0.9730878685915265</speed>
  <fix>3d</fix>
</trkpt>
<trkpt lat="33.8106504" lon="-118.3938132">
  <ele>-1.63</ele>
  <time>2026-09-02T22:09:08Z</time>
  <course>228.93</course>
  <speed>0.99</speed>
  <fix>3d</fix>
</trkpt>
<trkpt lat="33.8106493" lon="-118.3938151">
  <ele>-1.589</ele>
  <time>2026-09-02T22:09:08Z</time>
  <course>230.18</course>
  <speed>0.9730878685915265</speed>
  <fix>3d</fix>
</trkpt>
<trkpt lat="33.8106504" lon="-118.3938132">
  <ele>-1.63</ele>
  <time>2026-09-02T22:09:08Z</time>
  <course>228.93</course>
  <speed>0.99</speed>
  <fix>3d</fix>
</trkpt>
<trkpt lat="33.8106487" lon="-118.393816">
  <ele>-1.566</ele>
  <time>2026-09-02T22:09:08Z</time>
  <course>230.18</course>
  <speed>0.9730878685915265</speed>
  <fix>3d</fix>
</trkpt>
<trkpt lat="33.8106492" lon="-118.3938149">
  <ele>-1.58</ele>
  <time>2026-09-02T22:09:08Z</time>
  <course>228.91</course>
  <speed>1.0</speed>
  <fix>3d</fix>
</trkpt>
<trkpt lat="33.8106481" lon="-118.3938168">
  <ele>-1.541</ele>
  <time>2026-09-02T22:09:08Z</time>
  <course>230.18</course>
  <speed>0.9730878685915265</speed>
  <fix>3d</fix>
</trkpt>
<trkpt lat="33.8106492" lon="-118.3938149">
  <ele>-1.58</ele>
  <time>2026-09-02T22:09:08Z</time>
  <course>228.91</course>
  <speed>1.0</speed>
  <fix>3d</fix>
</trkpt>
<trkpt lat="33.8106475" lon="-118.3938176">
  <ele>-1.517</ele>
  <time>2026-09-02T22:09:08Z</time>
  <course>230.19</course>
  <speed>0.9730878685915265</speed>
  <fix>3d</fix>
</trkpt>
<trkpt lat="33.810648" lon="-118.3938164">
  <ele>-1.53</ele>
  <time>2026-09-02T22:09:08Z</time>
  <course>228.94</course>
  <speed>0.99</speed>
  <fix>3d</fix>
</trkpt>
<trkpt lat="33.8106469" lon="-118.3938184">
  <ele>-1.495</ele>
  <time>2026-09-02T22:09:08Z</time>
  <course>230.21</course>
  <speed>0.9730878685915265</speed>
  <fix>3d</fix>
</trkpt>
<trkpt lat="33.810648" lon="-118.3938164">
  <ele>-1.53</ele>
  <time>2026-09-02T22:09:08Z</time>
  <course>228.94</course>
  <speed>0.99</speed>
  <fix>3d</fix>
</trkpt>
<trkpt lat="33.8106463" lon="-118.3938192">
  <ele>-1.471</ele>
  <time>2026-09-02T22:09:08Z</time>
  <course>230.25</course>
  <speed>0.9730878685915265</speed>
  <fix>3d</fix>
</trkpt>
<trkpt lat="33.8106469" lon="-118.3938181">
  <ele>-1.49</ele>
  <time>2026-09-02T22:09:08Z</time>
  <course>228.99</course>
  <speed>0.99</speed>
  <fix>3d</fix>
</trkpt>
<trkpt lat="33.8106457" lon="-118.39382">
  <ele>-1.448</ele>
  <time>2026-09-02T22:09:08Z</time>
  <course>230.28</course>
  <speed>0.9730878685915265</speed>
  <fix>3d</fix>
</trkpt>
<trkpt lat="33.8106469" lon="-118.3938181">
  <ele>-1.49</ele>
  <time>2026-09-02T22:09:08Z</time>
  <course>228.99</course>
  <speed>0.99</speed>
  <fix>3d</fix>
</trkpt>
<trkpt lat="33.8106451" lon="-118.3938209">
  <ele>-1.423</ele>
  <time>2026-09-02T22:09:08Z</time>
  <course>230.31</course>
  <speed>0.9730878685915265</speed>
  <fix>3d</fix>
</trkpt>
<trkpt lat="33.8106456" lon="-118.3938197">
  <ele>-1.44</ele>
  <time>2026-09-02T22:09:08Z</time>
  <course>229.02</course>
  <speed>0.99</speed>
  <fix>3d</fix>
</trkpt>
<trkpt lat="33.8106445" lon="-118.3938217">
  <ele>-1.398</ele>
  <time>2026-09-02T22:09:08Z</time>
  <course>230.33</course>
  <speed>0.9730878685915265</speed>
  <fix>3d</fix>
</trkpt>
<trkpt lat="33.8106456" lon="-118.3938197">
  <ele>-1.44</ele>
  <time>2026-09-02T22:09:08Z</time>
  <course>229.02</course>
  <speed>0.99</speed>
  <fix>3d</fix>
</trkpt>
<trkpt lat="33.8106439" lon="-118.3938225">
  <ele>-1.373</ele>
  <time>2026-09-02T22:09:08Z</time>
  <course>230.37</course>
  <speed>0.9730878685915265</speed>
  <fix>3d</fix>
</trkpt>
<trkpt lat="33.8106444" lon="-118.3938214">
  <ele>-1.39</ele>
  <time>2026-09-02T22:09:08Z</time>
  <course>229.05</course>
  <speed>1.0</speed>
  <fix>3d</fix>
</trkpt>
<trkpt lat="33.8106434" lon="-118.3938233">
  <ele>-1.347</ele>
  <time>2026-09-02T22:09:08Z</time>
  <course>230.41</course>
  <speed>0.9730878685915265</speed>
  <fix>3d</fix>
</trkpt>
<trkpt lat="33.8106444" lon="-118.3938214">
  <ele>-1.39</ele>
  <time>2026-09-02T22:09:08Z</time>
  <course>229.05</course>
  <speed>1.0</speed>
  <fix>3d</fix>
</trkpt>
<trkpt lat="33.8106428" lon="-118.3938241">
  <ele>-1.321</ele>
  <time>2026-09-02T22:09:08Z</time>
  <course>230.46</course>
  <speed>0.9730878685915265</speed>
  <fix>3d</fix>
</trkpt>
<trkpt lat="33.8106433" lon="-118.393823">
  <ele>-1.34</ele>
  <time>2026-09-02T22:09:08Z</time>
  <course>229.14</course>
  <speed>0.99</speed>
  <fix>3d</fix>
</trkpt>
<trkpt lat="33.8106422" lon="-118.3938249">
  <ele>-1.296</ele>
  <time>2026-09-02T22:09:08Z</time>
  <course>230.5</course>
  <speed>0.9730878685915265</speed>
  <fix>3d</fix>
</trkpt>
<trkpt lat="33.8106433" lon="-118.393823">
  <ele>-1.34</ele>
  <time>2026-09-02T22:09:08Z</time>
  <course>229.14</course>
  <speed>0.99</speed>
  <fix>3d</fix>
</trkpt>
<trkpt lat="33.8106416" lon="-118.3938258">
  <ele>-1.27</ele>
  <time>2026-09-02T22:09:09Z</time>
  <course>230.53</course>
  <speed>0.9730878685915265</speed>
  <fix>3d</fix>
</trkpt>
<trkpt lat="33.8106421" lon="-118.3938246">
  <ele>-1.29</ele>
  <time>2026-09-02T22:09:09Z</time>
  <course>229.19</course>
  <speed>0.99</speed>
  <fix>3d</fix>
</trkpt>
<trkpt lat="33.810641" lon="-118.3938266">
  <ele>-1.245</ele>
  <time>2026-09-02T22:09:09Z</time>
  <course>230.54</course>
  <speed>0.9730878685915265</speed>
  <fix>3d</fix>
</trkpt>
<trkpt lat="33.8106421" lon="-118.3938246">
  <ele>-1.29</ele>
  <time>2026-09-02T22:09:09Z</time>
  <course>229.19</course>
  <speed>0.99</speed>
  <fix>3d</fix>
</trkpt>
<trkpt lat="33.8106404" lon="-118.3938274">
  <ele>-1.221</ele>
  <time>2026-09-02T22:09:09Z</time>
  <course>230.56</course>
  <speed>0.9730878685915265</speed>
  <fix>3d</fix>
</trkpt>
<trkpt lat="33.8106409" lon="-118.3938263">
  <ele>-1.24</ele>
  <time>2026-09-02T22:09:09Z</time>
  <course>229.22</course>
  <speed>0.99</speed>
  <fix>3d</fix>
</trkpt>
<trkpt lat="33.8106398" lon="-118.3938282">
  <ele>-1.197</ele>
  <time>2026-09-02T22:09:09Z</time>
  <course>230.58</course>
  <speed>0.9730878685915265</speed>
  <fix>3d</fix>
</trkpt>
<trkpt lat="33.8106409" lon="-118.3938263">
  <ele>-1.24</ele>
  <time>2026-09-02T22:09:09Z</time>
  <course>229.22</course>
  <speed>0.99</speed>
  <fix>3d</fix>
</trkpt>
<trkpt lat="33.8106392" lon="-118.393829">
  <ele>-1.172</ele>
  <time>2026-09-02T22:09:09Z</time>
  <course>230.59</course>
  <speed>0.9730878685915265</speed>
  <fix>3d</fix>
</trkpt>
<trkpt lat="33.8106398" lon="-118.3938279">
  <ele>-1.19</ele>
  <time>2026-09-02T22:09:09Z</time>
  <course>229.23</course>
  <speed>0.99</speed>
  <fix>3d</fix>
</trkpt>
<trkpt lat="33.8106386" lon="-118.3938299">
  <ele>-1.148</ele>
  <time>2026-09-02T22:09:09Z</time>
  <course>230.59</course>
  <speed>0.9730878685915265</speed>
  <fix>3d</fix>
</trkpt>
<trkpt lat="33.8106398" lon="-118.3938279">
  <ele>-1.19</ele>
  <time>2026-09-02T22:09:09Z</time>
  <course>229.23</course>
  <speed>0.99</speed>
  <fix>3d</fix>
</trkpt>
<trkpt lat="33.810638" lon="-118.3938307">
  <ele>-1.123</ele>
  <time>2026-09-02T22:09:09Z</time>
  <course>230.58</course>
  <speed>0.9730878685915265</speed>
  <fix>3d</fix>
</trkpt>
<trkpt lat="33.8106386" lon="-118.3938295">
  <ele>-1.14</ele>
  <time>2026-09-02T22:09:09Z</time>
  <course>229.21</course>
  <speed>0.99</speed>
  <fix>3d</fix>
</trkpt>
<trkpt lat="33.8106375" lon="-118.3938315">
  <ele>-1.098</ele>
  <time>2026-09-02T22:09:09Z</time>
  <course>230.57</course>
  <speed>0.9730878685915265</speed>
  <fix>3d</fix>
</trkpt>
<trkpt lat="33.8106386" lon="-118.3938295">
  <ele>-1.14</ele>
  <time>2026-09-02T22:09:09Z</time>
  <course>229.21</course>
  <speed>0.99</speed>
  <fix>3d</fix>
</trkpt>
<trkpt lat="33.8106369" lon="-118.3938323">
  <ele>-1.072</ele>
  <time>2026-09-02T22:09:09Z</time>
  <course>230.56</course>
  <speed>0.9730878685915265</speed>
  <fix>3d</fix>
</trkpt>
<trkpt lat="33.8106375" lon="-118.3938312">
  <ele>-1.09</ele>
  <time>2026-09-02T22:09:09Z</time>
  <course>229.2</course>
  <speed>0.99</speed>
  <fix>3d</fix>
</trkpt>
<trkpt lat="33.8106363" lon="-118.3938331">
  <ele>-1.047</ele>
  <time>2026-09-02T22:09:09Z</time>
  <course>230.54</course>
  <speed>0.9730878685915265</speed>
  <fix>3d</fix>
</trkpt>
<trkpt lat="33.8106375" lon="-118.3938312">
  <ele>-1.09</ele>
  <time>2026-09-02T22:09:09Z</time>
  <course>229.2</course>
  <speed>0.99</speed>
  <fix>3d</fix>
</trkpt>
<trkpt lat="33.8106357" lon="-118.3938339">
  <ele>-1.023</ele>
  <time>2026-09-02T22:09:09Z</time>
  <course>230.5</course>
  <speed>0.9730878685915265</speed>
  <fix>3d</fix>
</trkpt>
<trkpt lat="33.8106363" lon="-118.3938327">
  <ele>-1.04</ele>
  <time>2026-09-02T22:09:09Z</time>
  <course>229.15</course>
  <speed>0.99</speed>
  <fix>3d</fix>
</trkpt>
<trkpt lat="33.8106351" lon="-118.3938348">
  <ele>-0.998</ele>
  <time>2026-09-02T22:09:09Z</time>
  <course>230.47</course>
  <speed>0.9730878685915265</speed>
  <fix>3d</fix>
</trkpt>
<trkpt lat="33.8106363" lon="-118.3938327">
  <ele>-1.04</ele>
  <time>2026-09-02T22:09:09Z</time>
  <course>229.15</course>
  <speed>0.99</speed>
  <fix>3d</fix>
</trkpt>
<trkpt lat="33.8106345" lon="-118.3938356">
  <ele>-0.972</ele>
  <time>2026-09-02T22:09:09Z</time>
  <course>230.45</course>
  <speed>0.9730878685915265</speed>
  <fix>3d</fix>
</trkpt>
<trkpt lat="33.8106351" lon="-118.3938344">
  <ele>-0.99</ele>
  <time>2026-09-02T22:09:09Z</time>
  <course>229.1</course>
  <speed>1.0</speed>
  <fix>3d</fix>
</trkpt>
<trkpt lat="33.8106339" lon="-118.3938364">
  <ele>-0.946</ele>
  <time>2026-09-02T22:09:09Z</time>
  <course>230.44</course>
  <speed>0.9730878685915265</speed>
  <fix>3d</fix>
</trkpt>
<trkpt lat="33.8106351" lon="-118.3938344">
  <ele>-0.99</ele>
  <time>2026-09-02T22:09:09Z</time>
  <course>229.1</course>
  <speed>1.0</speed>
  <fix>3d</fix>
</trkpt>
<trkpt lat="33.8106334" lon="-118.3938372">
  <ele>-0.92</ele>
  <time>2026-09-02T22:09:09Z</time>
  <course>230.44</course>
  <speed>0.9730878685915265</speed>
  <fix>3d</fix>
</trkpt>
<trkpt lat="33.810634" lon="-118.393836">
  <ele>-0.95</ele>
  <time>2026-09-02T22:09:09Z</time>
  <course>229.1</course>
  <speed>1.0</speed>
  <fix>3d</fix>
</trkpt>
<trkpt lat="33.8106328" lon="-118.393838">
  <ele>-0.895</ele>
  <time>2026-09-02T22:09:09Z</time>
  <course>230.43</course>
  <speed>0.9730878685915265</speed>
  <fix>3d</fix>
</trkpt>
<trkpt lat="33.810634" lon="-118.393836">
  <ele>-0.95</ele>
  <time>2026-09-02T22:09:09Z</time>
  <course>229.1</course>
  <speed>1.0</speed>
  <fix>3d</fix>
</trkpt>
<trkpt lat="33.8106322" lon="-118.3938388">
  <ele>-0.87</ele>
  <time>2026-09-02T22:09:09Z</time>
  <course>230.42</course>
  <speed>0.9730878685915265</speed>
  <fix>3d</fix>
</trkpt>
<trkpt lat="33.8106328" lon="-118.3938377">
  <ele>-0.9</ele>
  <time>2026-09-02T22:09:09Z</time>
  <course>229.11</course>
  <speed>1.0</speed>
  <fix>3d</fix>
</trkpt>
<trkpt lat="33.8106316" lon="-118.3938397">
  <ele>-0.846</ele>
  <time>2026-09-02T22:09:09Z</time>
  <course>230.4</course>
  <speed>0.9730878685915265</speed>
  <fix>3d</fix>
</trkpt>
<trkpt lat="33.8106328" lon="-118.3938377">
  <ele>-0.9</ele>
  <time>2026-09-02T22:09:09Z</time>
  <course>229.11</course>
  <speed>1.0</speed>
  <fix>3d</fix>
</trkpt>
<trkpt lat="33.810631" lon="-118.3938405">
  <ele>-0.822</ele>
  <time>2026-09-02T22:09:09Z</time>
  <course>230.37</course>
  <speed>0.9730878685915265</speed>
  <fix>3d</fix>
</trkpt>
<trkpt lat="33.8106316" lon="-118.3938394">
  <ele>-0.85</ele>
  <time>2026-09-02T22:09:09Z</time>
  <course>229.07</course>
  <speed>1.0</speed>
  <fix>3d</fix>
</trkpt>
<trkpt lat="33.8106304" lon="-118.3938413">
  <ele>-0.799</ele>
  <time>2026-09-02T22:09:09Z</time>
  <course>230.34</course>
  <speed>0.9730878685915265</speed>
  <fix>3d</fix>
</trkpt>
<trkpt lat="33.8106316" lon="-118.3938394">
  <ele>-0.85</ele>
  <time>2026-09-02T22:09:09Z</time>
  <course>229.07</course>
  <speed>1.0</speed>
  <fix>3d</fix>
</trkpt>
<trkpt lat="33.8106298" lon="-118.3938421">
  <ele>-0.775</ele>
  <time>2026-09-02T22:09:09Z</time>
  <course>230.3</course>
  <speed>0.9730878685915265</speed>
  <fix>3d</fix>
</trkpt>
<trkpt lat="33.8106304" lon="-118.393841">
  <ele>-0.81</ele>
  <time>2026-09-02T22:09:09Z</time>
  <course>229.01</course>
  <speed>1.0</speed>
  <fix>3d</fix>
</trkpt>
<trkpt lat="33.8106292" lon="-118.3938429">
  <ele>-0.75</ele>
  <time>2026-09-02T22:09:09Z</time>
  <course>230.27</course>
  <speed>0.9730878685915265</speed>
  <fix>3d</fix>
</trkpt>
<trkpt lat="33.8106304" lon="-118.393841">
  <ele>-0.81</ele>
  <time>2026-09-02T22:09:09Z</time>
  <course>229.01</course>
  <speed>1.0</speed>
  <fix>3d</fix>
</trkpt>
<trkpt lat="33.8106286" lon="-118.3938438">
  <ele>-0.726</ele>
  <time>2026-09-02T22:09:09Z</time>
  <course>230.25</course>
  <speed>0.9730878685915265</speed>
  <fix>3d</fix>
</trkpt>
<trkpt lat="33.8106292" lon="-118.3938426">
  <ele>-0.76</ele>
  <time>2026-09-02T22:09:09Z</time>
  <course>228.95</course>
  <speed>1.0</speed>
  <fix>3d</fix>
</trkpt>
<trkpt lat="33.8106281" lon="-118.3938446">
  <ele>-0.702</ele>
  <time>2026-09-02T22:09:09Z</time>
  <course>230.24</course>
  <speed>0.9730878685915265</speed>
  <fix>3d</fix>
</trkpt>
<trkpt lat="33.8106292" lon="-118.3938426">
  <ele>-0.76</ele>
  <time>2026-09-02T22:09:09Z</time>
  <course>228.95</course>
  <speed>1.0</speed>
  <fix>3d</fix>
</trkpt>
<trkpt lat="33.8106275" lon="-118.3938454">
  <ele>-0.68</ele>
  <time>2026-09-02T22:09:09Z</time>
  <course>230.25</course>
  <speed>0.9730878685915265</speed>
  <fix>3d</fix>
</trkpt>
<trkpt lat="33.810628" lon="-118.3938442">
  <ele>-0.72</ele>
  <time>2026-09-02T22:09:09Z</time>
  <course>228.95</course>
  <speed>1.0</speed>
  <fix>3d</fix>
</trkpt>
<trkpt lat="33.8106269" lon="-118.3938462">
  <ele>-0.657</ele>
  <time>2026-09-02T22:09:09Z</time>
  <course>230.27</course>
  <speed>0.9730878685915265</speed>
  <fix>3d</fix>
</trkpt>
<trkpt lat="33.810628" lon="-118.3938442">
  <ele>-0.72</ele>
  <time>2026-09-02T22:09:09Z</time>
  <course>228.95</course>
  <speed>1.0</speed>
  <fix>3d</fix>
</trkpt>
<trkpt lat="33.8106263" lon="-118.393847">
  <ele>-0.633</ele>
  <time>2026-09-02T22:09:09Z</time>
  <course>230.31</course>
  <speed>0.9730878685915265</speed>
  <fix>3d</fix>
</trkpt>
<trkpt lat="33.8106268" lon="-118.3938459">
  <ele>-0.67</ele>
  <time>2026-09-02T22:09:09Z</time>
  <course>229.02</course>
  <speed>1.0</speed>
  <fix>3d</fix>
</trkpt>
<trkpt lat="33.8106257" lon="-118.3938479">
  <ele>-0.61</ele>
  <time>2026-09-02T22:09:09Z</time>
  <course>230.34</course>
  <speed>0.9730878685915265</speed>
  <fix>3d</fix>
</trkpt>
<trkpt lat="33.8106268" lon="-118.3938459">
  <ele>-0.67</ele>
  <time>2026-09-02T22:09:09Z</time>
  <course>229.02</course>
  <speed>1.0</speed>
  <fix>3d</fix>
</trkpt>
<trkpt lat="33.8106251" lon="-118.3938487">
  <ele>-0.586</ele>
  <time>2026-09-02T22:09:09Z</time>
  <course>230.39</course>
  <speed>0.9730878685915265</speed>
  <fix>3d</fix>
</trkpt>
<trkpt lat="33.8106256" lon="-118.3938475">
  <ele>-0.62</ele>
  <time>2026-09-02T22:09:09Z</time>
  <course>229.09</course>
  <speed>1.0</speed>
  <fix>3d</fix>
</trkpt>
<trkpt lat="33.8106245" lon="-118.3938495">
  <ele>-0.56</ele>
  <time>2026-09-02T22:09:09Z</time>
  <course>230.42</course>
  <speed>0.9730878685915265</speed>
  <fix>3d</fix>
</trkpt>
<trkpt lat="33.8106256" lon="-118.3938475">
  <ele>-0.62</ele>
  <time>2026-09-02T22:09:09Z</time>
  <course>229.09</course>
  <speed>1.0</speed>
  <fix>3d</fix>
</trkpt>
<trkpt lat="33.8106239" lon="-118.3938503">
  <ele>-0.535</ele>
  <time>2026-09-02T22:09:09Z</time>
  <course>230.46</course>
  <speed>0.9730878685915265</speed>
  <fix>3d</fix>
</trkpt>
<trkpt lat="33.8106244" lon="-118.3938492">
  <ele>-0.57</ele>
  <time>2026-09-02T22:09:09Z</time>
  <course>229.15</course>
  <speed>0.99</speed>
  <fix>3d</fix>
</trkpt>
<trkpt lat="33.8106233" lon="-118.3938511">
  <ele>-0.51</ele>
  <time>2026-09-02T22:09:09Z</time>
  <course>230.5</course>
  <speed>0.9730878685915265</speed>
  <fix>3d</fix>
</trkpt>
<trkpt lat="33.8106244" lon="-118.3938492">
  <ele>-0.57</ele>
  <time>2026-09-02T22:09:09Z</time>
  <course>229.15</course>
  <speed>0.99</speed>
  <fix>3d</fix>
</trkpt>
<trkpt lat="33.8106227" lon="-118.3938519">
  <ele>-0.486</ele>
  <time>2026-09-02T22:09:09Z</time>
  <course>230.53</course>
  <speed>0.9730878685915265</speed>
  <fix>3d</fix>
</trkpt>
<trkpt lat="33.8106233" lon="-118.3938508">
  <ele>-0.52</ele>
  <time>2026-09-02T22:09:09Z</time>
  <course>229.21</course>
  <speed>0.99</speed>
  <fix>3d</fix>
</trkpt>
<trkpt lat="33.8106221" lon="-118.3938528">
  <ele>-0.462</ele>
  <time>2026-09-02T22:09:09Z</time>
  <course>230.55</course>
  <speed>0.9730878685915265</speed>
  <fix>3d</fix>
</trkpt>
<trkpt lat="33.8106233" lon="-118.3938508">
  <ele>-0.52</ele>
  <time>2026-09-02T22:09:09Z</time>
  <course>229.21</course>
  <speed>0.99</speed>
  <fix>3d</fix>
</trkpt>
<trkpt lat="33.8106216" lon="-118.3938536">
  <ele>-0.437</ele>
  <time>2026-09-02T22:09:09Z</time>
  <course>230.56</course>
  <speed>0.9730878685915265</speed>
  <fix>3d</fix>
</trkpt>
<trkpt lat="33.8106222" lon="-118.3938524">
  <ele>-0.47</ele>
  <time>2026-09-02T22:09:09Z</time>
  <course>229.22</course>
  <speed>0.99</speed>
  <fix>3d</fix>
</trkpt>
<trkpt lat="33.810621" lon="-118.3938544">
  <ele>-0.412</ele>
  <time>2026-09-02T22:09:09Z</time>
  <course>230.55</course>
  <speed>0.9730878685915265</speed>
  <fix>3d</fix>
</trkpt>
<trkpt lat="33.8106222" lon="-118.3938524">
  <ele>-0.47</ele>
  <time>2026-09-02T22:09:09Z</time>
  <course>229.22</course>
  <speed>0.99</speed>
  <fix>3d</fix>
</trkpt>
<trkpt lat="33.8106204" lon="-118.3938552">
  <ele>-0.386</ele>
  <time>2026-09-02T22:09:09Z</time>
  <course>230.52</course>
  <speed>0.9730878685915265</speed>
  <fix>3d</fix>
</trkpt>
<trkpt lat="33.810621" lon="-118.3938541">
  <ele>-0.42</ele>
  <time>2026-09-02T22:09:09Z</time>
  <course>229.17</course>
  <speed>0.99</speed>
  <fix>3d</fix>
</trkpt>
<trkpt lat="33.8106198" lon="-118.393856">
  <ele>-0.36</ele>
  <time>2026-09-02T22:09:09Z</time>
  <course>230.48</course>
  <speed>0.9730878685915265</speed>
  <fix>3d</fix>
</trkpt>
<trkpt lat="33.810621" lon="-118.3938541">
  <ele>-0.42</ele>
  <time>2026-09-02T22:09:09Z</time>
  <course>229.17</course>
  <speed>0.99</speed>
  <fix>3d</fix>
</trkpt>
<trkpt lat="33.8106192" lon="-118.3938569">
  <ele>-0.334</ele>
  <time>2026-09-02T22:09:09Z</time>
  <course>230.44</course>
  <speed>0.9730878685915265</speed>
  <fix>3d</fix>
</trkpt>
<trkpt lat="33.8106198" lon="-118.3938557">
  <ele>-0.37</ele>
  <time>2026-09-02T22:09:09Z</time>
  <course>229.1</course>
  <speed>0.99</speed>
  <fix>3d</fix>
</trkpt>
<trkpt lat="33.8106186" lon="-118.3938577">
  <ele>-0.309</ele>
  <time>2026-09-02T22:09:09Z</time>
  <course>230.4</course>
  <speed>0.9730878685915265</speed>
  <fix>3d</fix>
</trkpt>
<trkpt lat="33.8106198" lon="-118.3938557">
  <ele>-0.37</ele>
  <time>2026-09-02T22:09:09Z</time>
  <course>229.1</course>
  <speed>0.99</speed>
  <fix>3d</fix>
</trkpt>
<trkpt lat="33.810618" lon="-118.3938585">
  <ele>-0.284</ele>
  <time>2026-09-02T22:09:09Z</time>
  <course>230.37</course>
  <speed>0.9730878685915265</speed>
  <fix>3d</fix>
</trkpt>
<trkpt lat="33.8106187" lon="-118.3938573">
  <ele>-0.32</ele>
  <time>2026-09-02T22:09:09Z</time>
  <course>229.04</course>
  <speed>0.99</speed>
  <fix>3d</fix>
</trkpt>
<trkpt lat="33.8106175" lon="-118.3938593">
  <ele>-0.259</ele>
  <time>2026-09-02T22:09:09Z</time>
  <course>230.34</course>
  <speed>0.9654014708917736</speed>
  <fix>3d</fix>
</trkpt>
<trkpt lat="33.8106187" lon="-118.3938573">
  <ele>-0.32</ele>
  <time>2026-09-02T22:09:09Z</time>
  <course>229.04</course>
  <speed>0.99</speed>
  <fix>3d</fix>
</trkpt>
<trkpt lat="33.8106169" lon="-118.3938601">
  <ele>-0.234</ele>
  <time>2026-09-02T22:09:09Z</time>
  <course>230.31</course>
  <speed>0.9513148795220223</speed>
  <fix>3d</fix>
</trkpt>
<trkpt lat="33.8106175" lon="-118.393859">
  <ele>-0.27</ele>
  <time>2026-09-02T22:09:09Z</time>
  <course>229.01</course>
  <speed>0.99</speed>
  <fix>3d</fix>
</trkpt>
<trkpt lat="33.8106163" lon="-118.3938609">
  <ele>-0.211</ele>
  <time>2026-09-02T22:09:09Z</time>
  <course>230.28</course>
  <speed>0.9231467922275417</speed>
  <fix>3d</fix>
</trkpt>
<trkpt lat="33.8106175" lon="-118.393859">
  <ele>-0.27</ele>
  <time>2026-09-02T22:09:09Z</time>
  <course>229.01</course>
  <speed>0.99</speed>
  <fix>3d</fix>
</trkpt>
<trkpt lat="33.8106158" lon="-118.3938617">
  <ele>-0.187</ele>
  <time>2026-09-02T22:09:09Z</time>
  <course>230.26</course>
  <speed>0.8949860334105779</speed>
  <fix>3d</fix>
</trkpt>
<trkpt lat="33.8106163" lon="-118.3938606">
  <ele>-0.22</ele>
  <time>2026-09-02T22:09:09Z</time>
  <course>228.99</course>
  <speed>0.96</speed>
  <fix>3d</fix>
</trkpt>
<trkpt lat="33.8106152" lon="-118.3938624">
  <ele>-0.164</ele>
  <time>2026-09-02T22:09:09Z</time>
  <course>230.25</course>
  <speed>0.8527602242131137</speed>
  <fix>3d</fix>
</trkpt>
<trkpt lat="33.8106163" lon="-118.3938606">
  <ele>-0.22</ele>
  <time>2026-09-02T22:09:09Z</time>
  <course>228.99</course>
  <speed>0.96</speed>
  <fix>3d</fix>
</trkpt>
<trkpt lat="33.8106147" lon="-118.3938631">
  <ele>-0.141</ele>
  <time>2026-09-02T22:09:09Z</time>
  <course>230.26</course>
  <speed>0.816884324736373</speed>
  <fix>3d</fix>
</trkpt>
<trkpt lat="33.8106152" lon="-118.3938621">
  <ele>-0.18</ele>
  <time>2026-09-02T22:09:09Z</time>
  <course>229.01</course>
  <speed>0.91</speed>
  <fix>3d</fix>
</trkpt>
<trkpt lat="33.8106142" lon="-118.3938638">
  <ele>-0.12</ele>
  <time>2026-09-02T22:09:09Z</time>
  <course>230.3</course>
  <speed>0.7605918747922567</speed>
  <fix>3d</fix>
</trkpt>
<trkpt lat="33.8106152" lon="-118.3938621">
  <ele>-0.18</ele>
  <time>2026-09-02T22:09:09Z</time>
  <course>229.01</course>
  <speed>0.91</speed>
  <fix>3d</fix>
</trkpt>
<trkpt lat="33.8106138" lon="-118.3938644">
  <ele>-0.101</ele>
  <time>2026-09-02T22:09:09Z</time>
  <course>230.37</course>
  <speed>0.6965629906907199</speed>
  <fix>3d</fix>
</trkpt>
<trkpt lat="33.8106141" lon="-118.3938635">
  <ele>-0.14</ele>
  <time>2026-09-02T22:09:09Z</time>
  <course>229.13</course>
  <speed>0.82</speed>
  <fix>3d</fix>
</trkpt>
<trkpt lat="33.8106134" lon="-118.393865">
  <ele>-0.088</ele>
  <time>2026-09-02T22:09:09Z</time>
  <course>230.49</course>
  <speed>0.6262587324740471</speed>
  <fix>3d</fix>
</trkpt>
<trkpt lat="33.8106141" lon="-118.3938635">
  <ele>-0.14</ele>
  <time>2026-09-02T22:09:09Z</time>
  <course>229.13</course>
  <speed>0.82</speed>
  <fix>3d</fix>
</trkpt>
<trkpt lat="33.810613" lon="-118.3938655">
  <ele>-0.078</ele>
  <time>2026-09-02T22:09:09Z</time>
  <course>230.67</course>
  <speed>0.5622277118748239</speed>
  <fix>3d</fix>
</trkpt>
<trkpt lat="33.8106133" lon="-118.3938648">
  <ele>-0.1</ele>
  <time>2026-09-02T22:09:09Z</time>
  <course>229.39</course>
  <speed>0.7</speed>
  <fix>3d</fix>
</trkpt>
<trkpt lat="33.8106127" lon="-118.3938659">
  <ele>-0.072</ele>
  <time>2026-09-02T22:09:09Z</time>
  <course>230.93</course>
  <speed>0.4841487374764082</speed>
  <fix>3d</fix>
</trkpt>
<trkpt lat="33.8106133" lon="-118.3938648">
  <ele>-0.1</ele>
  <time>2026-09-02T22:09:09Z</time>
  <course>229.39</course>
  <speed>0.7</speed>
  <fix>3d</fix>
</trkpt>
<trkpt lat="33.8106124" lon="-118.3938663">
  <ele>-0.067</ele>
  <time>2026-09-02T22:09:09Z</time>
  <course>231.27</course>
  <speed>0.4201190307520001</speed>
  <fix>3d</fix>
</trkpt>
<trkpt lat="33.8106125" lon="-118.3938658">
  <ele>-0.08</ele>
  <time>2026-09-02T22:09:09Z</time>
  <course>229.77</course>
  <speed>0.57</speed>
  <fix>3d</fix>
</trkpt>
<trkpt lat="33.8106121" lon="-118.3938667">
  <ele>-0.062</ele>
  <time>2026-09-02T22:09:09Z</time>
  <course>231.74</course>
  <speed>0.3640054944640259</speed>
  <fix>3d</fix>
</trkpt>
<trkpt lat="33.8106125" lon="-118.3938658">
  <ele>-0.08</ele>
  <time>2026-09-02T22:09:09Z</time>
  <course>229.77</course>
  <speed>0.57</speed>
  <fix>3d</fix>
</trkpt>
<trkpt lat="33.8106119" lon="-118.393867">
  <ele>-0.057</ele>
  <time>2026-09-02T22:09:09Z</time>
  <course>232.51</course>
  <speed>0.31400636936215165</speed>
  <fix>3d</fix>
</trkpt>
<trkpt lat="33.8106119" lon="-118.3938666">
  <ele>-0.07</ele>
  <time>2026-09-02T22:09:09Z</time>
  <course>230.19</course>
  <speed>0.43</speed>
  <fix>3d</fix>
</trkpt>
<trkpt lat="33.8106117" lon="-118.3938673">
  <ele>-0.053</ele>
  <time>2026-09-02T22:09:09Z</time>
  <course>233.42</course>
  <speed>0.2720294101747089</speed>
  <fix>3d</fix>
</trkpt>
<trkpt lat="33.8106119" lon="-118.3938666">
  <ele>-0.07</ele>
  <time>2026-09-02T22:09:09Z</time>
  <course>230.19</course>
  <speed>0.43</speed>
  <fix>3d</fix>
</trkpt>
<trkpt lat="33.8106116" lon="-118.3938675">
  <ele>-0.05</ele>
  <time>2026-09-02T22:09:09Z</time>
  <course>233.97</course>
  <speed>0.23600847442411893</speed>
  <fix>3d</fix>
</trkpt>
<trkpt lat="33.8106115" lon="-118.3938673">
  <ele>-0.06</ele>
  <time>2026-09-02T22:09:09Z</time>
  <course>230.46</course>
  <speed>0.33</speed>
  <fix>3d</fix>
</trkpt>
<trkpt lat="33.8106114" lon="-118.3938677">
  <ele>-0.048</ele>
  <time>2026-09-02T22:09:09Z</time>
  <course>233.96</course>
  <speed>0.20808652046684814</speed>
  <fix>3d</fix>
</trkpt>
<trkpt lat="33.8106115" lon="-118.3938673">
  <ele>-0.06</ele>
  <time>2026-09-02T22:09:09Z</time>
  <course>230.46</course>
  <speed>0.33</speed>
  <fix>3d</fix>
</trkpt>
<trkpt lat="33.8106113" lon="-118.3938679">
  <ele>-0.047</ele>
  <time>2026-09-02T22:09:09Z</time>
  <course>234.44</course>
  <speed>0.15811388300841897</speed>
  <fix>3d</fix>
</trkpt>
<trkpt lat="33.8106112" lon="-118.3938678">
  <ele>-0.05</ele>
  <time>2026-09-02T22:09:09Z</time>
  <course>230.96</course>
  <speed>0.25</speed>
  <fix>3d</fix>
</trkpt>
<trkpt lat="33.8106112" lon="-118.393868">
  <ele>-0.045</ele>
  <time>2026-09-02T22:09:09Z</time>
  <course>236.49</course>
  <speed>0.11661903789690602</speed>
  <fix>3d</fix>
</trkpt>
<trkpt lat="33.8106112" lon="-118.3938678">
  <ele>-0.05</ele>
  <time>2026-09-02T22:09:09Z</time>
  <course>230.96</course>
  <speed>0.25</speed>
  <fix>3d</fix>
</trkpt>
<trkpt lat="33.8106111" lon="-118.3938682">
  <ele>-0.043</ele>
  <time>2026-09-02T22:09:09Z</time>
  <course>239.43</course>
  <speed>0.08944271909999159</speed>
  <fix>3d</fix>
</trkpt>
<trkpt lat="33.8106109" lon="-118.3938681">
  <ele>-0.05</ele>
  <time>2026-09-02T22:09:09Z</time>
  <course>232.67</course>
  <speed>0.17</speed>
  <fix>3d</fix>
</trkpt>
<trkpt lat="33.810611" lon="-118.3938683">
  <ele>-0.043</ele>
  <time>2026-09-02T22:09:09Z</time>
  <course>242.8</course>
  <speed>0.0670820393249937</speed>
  <fix>3d</fix>
</trkpt>
<trkpt lat="33.8106109" lon="-118.3938681">
  <ele>-0.05</ele>
  <time>2026-09-02T22:09:09Z</time>
  <course>232.67</course>
  <speed>0.17</speed>
  <fix>3d</fix>
</trkpt>
<trkpt lat="33.810611" lon="-118.3938683">
  <ele>-0.043</ele>
  <time>2026-09-02T22:09:09Z</time>
  <course>246.44</course>
  <speed>0.05099019513592785</speed>
  <fix>3d</fix>
</trkpt>
<trkpt lat="33.8106108" lon="-118.3938684">
  <ele>-0.04</ele>
  <time>2026-09-02T22:09:09Z</time>
  <course>235.55</course>
  <speed>0.11</speed>
  <fix>3d</fix>
</trkpt>
<trkpt lat="33.810611" lon="-118.3938684">
  <ele>-0.043</ele>
  <time>2026-09-02T22:09:09Z</time>
  <course>250.3</course>
  <speed>0.03</speed>
  <fix>3d</fix>
</trkpt>
<trkpt lat="33.8106108" lon="-118.3938684">
  <ele>-0.04</ele>
  <time>2026-09-02T22:09:09Z</time>
  <course>235.55</course>
  <speed>0.11</speed>
  <fix>3d</fix>
</trkpt>
<trkpt lat="33.8106109" lon="-118.3938684">
  <ele>-0.042</ele>
  <time>2026-09-02T22:09:09Z</time>
  <course>254.33</course>
  <speed>0.0</speed>
  <fix>3d</fix>
</trkpt>
<trkpt lat="33.8106107" lon="-118.3938685">
  <ele>-0.04</ele>
  <time>2026-09-02T22:09:09Z</time>
  <course>237.77</course>
  <speed>0.06</speed>
  <fix>3d</fix>
</trkpt>
<trkpt lat="33.8106109" lon="-118.3938684">
  <ele>-0.042</ele>
  <time>2026-09-02T22:09:09Z</time>
  <course>258.53</course>
  <speed>0.022360679774997897</speed>
  <fix>3d</fix>
</trkpt>
<trkpt lat="33.8106107" lon="-118.3938685">
  <ele>-0.04</ele>
  <time>2026-09-02T22:09:09Z</time>
  <course>237.77</course>
  <speed>0.06</speed>
  <fix>3d</fix>
</trkpt>
<trkpt lat="33.8106109" lon="-118.3938685">
  <ele>-0.042</ele>
  <time>2026-09-02T22:09:09Z</time>
  <course>262.87</course>
  <speed>0.06082762530298219</speed>
  <fix>3d</fix>
</trkpt>
<trkpt lat="33.8106107" lon="-118.3938686">
  <ele>-0.03</ele>
  <time>2026-09-02T22:09:09Z</time>
  <course>197.05</course>
  <speed>0.01</speed>
  <fix>3d</fix>
</trkpt>
<trkpt lat="33.8106109" lon="-118.3938684">
  <ele>-0.041</ele>
  <time>2026-09-02T22:09:09Z</time>
  <course>267.34</course>
  <speed>0.1019803902718557</speed>
  <fix>3d</fix>
</trkpt>
<trkpt lat="33.8106107" lon="-118.3938686">
  <ele>-0.03</ele>
  <time>2026-09-02T22:09:09Z</time>
  <course>197.05</course>
  <speed>0.01</speed>
  <fix>3d</fix>
</trkpt>
<trkpt lat="33.8106109" lon="-118.3938683">
  <ele>-0.041</ele>
  <time>2026-09-02T22:09:09Z</time>
  <course>271.93</course>
  <speed>0.1414213562373095</speed>
  <fix>3d</fix>
</trkpt>
<trkpt lat="33.8106107" lon="-118.3938686">
  <ele>-0.03</ele>
  <time>2026-09-02T22:09:09Z</time>
  <course>88.8</course>
  <speed>0.06</speed>
  <fix>3d</fix>
</trkpt>
<trkpt lat="33.8106109" lon="-118.3938681">
  <ele>-0.041</ele>
  <time>2026-09-02T22:09:09Z</time>
  <course>276.63</course>
  <speed>0.191049731745428</speed>
  <fix>3d</fix>
</trkpt>
<trkpt lat="33.8106107" lon="-118.3938686">
  <ele>-0.03</ele>
  <time>2026-09-02T22:09:09Z</time>
  <course>88.8</course>
  <speed>0.06</speed>
  <fix>3d</fix>
</trkpt>
<trkpt lat="33.8106109" lon="-118.3938679">
  <ele>-0.04</ele>
  <time>2026-09-02T22:09:09Z</time>
  <course>281.43</course>
  <speed>0.23194827009486402</speed>
  <fix>3d</fix>
</trkpt>
<trkpt lat="33.8106107" lon="-118.3938684">
  <ele>-0.02</ele>
  <time>2026-09-02T22:09:09Z</time>
  <course>86.39</course>
  <speed>0.15</speed>
  <fix>3d</fix>
</trkpt>
<trkpt lat="33.8106109" lon="-118.3938676">
  <ele>-0.04</ele>
  <time>2026-09-02T22:09:09Z</time>
  <course>286.33</course>
  <speed>0.27166155414412246</speed>
  <fix>3d</fix>
</trkpt>
<trkpt lat="33.8106107" lon="-118.3938684">
  <ele>-0.02</ele>
  <time>2026-09-02T22:09:09Z</time>
  <course>86.39</course>
  <speed>0.15</speed>
  <fix>3d</fix>
</trkpt>
<trkpt lat="33.8106109" lon="-118.3938673">
  <ele>-0.041</ele>
  <time>2026-09-02T22:09:09Z</time>
  <course>291.33</course>
  <speed>0.32140317359976395</speed>
  <fix>3d</fix>
</trkpt>
<trkpt lat="33.8106107" lon="-118.393868">
  <ele>-0.01</ele>
  <time>2026-09-02T22:09:09Z</time>
  <course>86.59</course>
  <speed>0.24</speed>
  <fix>3d</fix>
</trkpt>
<trkpt lat="33.8106109" lon="-118.393867">
  <ele>-0.043</ele>
  <time>2026-09-02T22:09:09Z</time>
  <course>296.41</course>
  <speed>0.36124783736376886</speed>
  <fix>3d</fix>
</trkpt>
<trkpt lat="33.8106107" lon="-118.393868">
  <ele>-0.01</ele>
  <time>2026-09-02T22:09:09Z</time>
  <course>86.59</course>
  <speed>0.24</speed>
  <fix>3d</fix>
</trkpt>
<trkpt lat="33.8106109" lon="-118.3938666">
  <ele>-0.043</ele>
  <time>2026-09-02T22:09:09Z</time>
  <course>301.58</course>
  <speed>0.4011234224026316</speed>
  <fix>3d</fix>
</trkpt>
<trkpt lat="33.8106107" lon="-118.3938673">
  <ele>-0.01</ele>
  <time>2026-09-02T22:09:09Z</time>
  <course>87.07</course>
  <speed>0.33</speed>
  <fix>3d</fix>
</trkpt>
<trkpt lat="33.8106109" lon="-118.3938662">
  <ele>-0.043</ele>
  <time>2026-09-02T22:09:09Z</time>
  <course>306.83</course>
  <speed>0.4410215414239989</speed>
  <fix>3d</fix>
</trkpt>
<trkpt lat="33.8106107" lon="-118.3938673">
  <ele>-0.01</ele>
  <time>2026-09-02T22:09:09Z</time>
  <course>87.07</course>
  <speed>0.33</speed>
  <fix>3d</fix>
</trkpt>
<trkpt lat="33.8106109" lon="-118.3938657">
  <ele>-0.042</ele>
  <time>2026-09-02T22:09:09Z</time>
  <course>312.15</course>
  <speed>0.470425339453563</speed>
  <fix>3d</fix>
</trkpt>
<trkpt lat="33.8106107" lon="-118.3938665">
  <ele>0.0</ele>
  <time>2026-09-02T22:09:09Z</time>
  <course>87.73</course>
  <speed>0.41</speed>
  <fix>3d</fix>
</trkpt>
<trkpt lat="33.8106109" lon="-118.3938652">
  <ele>-0.041</ele>
  <time>2026-09-02T22:09:09Z</time>
  <course>317.55</course>
  <speed>0.5003998401278722</speed>
  <fix>3d</fix>
</trkpt>
<trkpt lat="33.8106107" lon="-118.3938665">
  <ele>0.0</ele>
  <time>2026-09-02T22:09:09Z</time>
  <course>87.73</course>
  <speed>0.41</speed>
  <fix>3d</fix>
</trkpt>
<trkpt lat="33.8106109" lon="-118.3938646">
  <ele>-0.041</ele>
  <time>2026-09-02T22:09:09Z</time>
  <course>323.03</course>
  <speed>0.5203844732503076</speed>
  <fix>3d</fix>
</trkpt>
<trkpt lat="33.8106107" lon="-118.3938656">
  <ele>0.0</ele>
  <time>2026-09-02T22:09:09Z</time>
  <course>88.52</course>
  <speed>0.48</speed>
  <fix>3d</fix>
</trkpt>
<trkpt lat="33.8106109" lon="-118.393864">
  <ele>-0.041</ele>
  <time>2026-09-02T22:09:09Z</time>
  <course>328.63</course>
  <speed>0.5403702434442519</speed>
  <fix>3d</fix>
</trkpt>
<trkpt lat="33.8106107" lon="-118.3938656">
  <ele>0.0</ele>
  <time>2026-09-02T22:09:09Z</time>
  <course>88.52</course>
  <speed>0.48</speed>
  <fix>3d</fix>
</trkpt>
<trkpt lat="33.8106109" lon="-118.3938635">
  <ele>-0.042</ele>
  <time>2026-09-02T22:09:09Z</time>
  <course>334.27</course>
  <speed>0.5600892785976178</speed>
  <fix>3d</fix>
</trkpt>
<trkpt lat="33.8106107" lon="-118.3938645">
  <ele>0.0</ele>
  <time>2026-09-02T22:09:09Z</time>
  <course>89.25</course>
  <speed>0.53</speed>
  <fix>3d</fix>
</trkpt>
<trkpt lat="33.8106109" lon="-118.3938629">
  <ele>-0.044</ele>
  <time>2026-09-02T22:09:09Z</time>
  <course>340.0</course>
  <speed>0.570087712549569</speed>
  <fix>3d</fix>
</trkpt>
<trkpt lat="33.8106107" lon="-118.3938645">
  <ele>0.0</ele>
  <time>2026-09-02T22:09:09Z</time>
  <course>89.25</course>
  <speed>0.53</speed>
  <fix>3d</fix>
</trkpt>
<trkpt lat="33.8106109" lon="-118.3938622">
  <ele>-0.045</ele>
  <time>2026-09-02T22:09:09Z</time>
  <course>345.81</course>
  <speed>0.5803447251418763</speed>
  <fix>3d</fix>
</trkpt>
<trkpt lat="33.8106107" lon="-118.3938633">
  <ele>0.01</ele>
  <time>2026-09-02T22:09:09Z</time>
  <course>89.65</course>
  <speed>0.57</speed>
  <fix>3d</fix>
</trkpt>
<trkpt lat="33.8106109" lon="-118.3938616">
  <ele>-0.044</ele>
  <time>2026-09-02T22:09:09Z</time>
  <course>351.72</course>
  <speed>0.5903388857258176</speed>
  <fix>3d</fix>
</trkpt>
<trkpt lat="33.8106107" lon="-118.3938633">
  <ele>0.01</ele>
  <time>2026-09-02T22:09:09Z</time>
  <course>89.65</course>
  <speed>0.57</speed>
  <fix>3d</fix>
</trkpt>
<trkpt lat="33.8106109" lon="-118.393861">
  <ele>-0.043</ele>
  <time>2026-09-02T22:09:09Z</time>
  <course>357.7</course>
  <speed>0.6007495318350236</speed>
  <fix>3d</fix>
</trkpt>
<trkpt lat="33.8106107" lon="-118.393862">
  <ele>0.02</ele>
  <time>2026-09-02T22:09:09Z</time>
  <course>89.35</course>
  <speed>0.59</speed>
  <fix>3d</fix>
</trkpt>
<trkpt lat="33.8106109" lon="-118.3938603">
  <ele>-0.042</ele>
  <time>2026-09-02T22:09:09Z</time>
  <course>3.73</course>
  <speed>0.611310068623117</speed>
  <fix>3d</fix>
</trkpt>
<trkpt lat="33.8106107" lon="-118.393862">
  <ele>0.02</ele>
  <time>2026-09-02T22:09:09Z</time>
  <course>89.35</course>
  <speed>0.59</speed>
  <fix>3d</fix>
</trkpt>
<trkpt lat="33.8106109" lon="-118.3938597">
  <ele>-0.041</ele>
  <time>2026-09-02T22:09:09Z</time>
  <course>9.8</course>
  <speed>0.6220128616033594</speed>
  <fix>3d</fix>
</trkpt>
<trkpt lat="33.8106107" lon="-118.3938607">
  <ele>0.03</ele>
  <time>2026-09-02T22:09:09Z</time>
  <course>88.18</course>
  <speed>0.61</speed>
  <fix>3d</fix>
</trkpt>
<trkpt lat="33.810611" lon="-118.393859">
  <ele>-0.04</ele>
  <time>2026-09-02T22:09:09Z</time>
  <course>15.89</course>
  <speed>0.6419501538281613</speed>
  <fix>3d</fix>
</trkpt>
<trkpt lat="33.8106107" lon="-118.3938607">
  <ele>0.03</ele>
  <time>2026-09-02T22:09:09Z</time>
  <course>88.18</course>
  <speed>0.61</speed>
  <fix>3d</fix>
</trkpt>
<trkpt lat="33.810611" lon="-118.3938583">
  <ele>-0.04</ele>
  <time>2026-09-02T22:09:09Z</time>
  <course>21.96</course>
  <speed>0.6527633568147035</speed>
  <fix>3d</fix>
</trkpt>
<trkpt lat="33.8106108" lon="-118.3938594">
  <ele>0.04</ele>
  <time>2026-09-02T22:09:09Z</time>
  <course>86.81</course>
  <speed>0.63</speed>
  <fix>3d</fix>
</trkpt>
<trkpt lat="33.810611" lon="-118.3938576">
  <ele>-0.041</ele>
  <time>2026-09-02T22:09:09Z</time>
  <course>28.02</course>
  <speed>0.6618912297349165</speed>
  <fix>3d</fix>
</trkpt>
<trkpt lat="33.8106108" lon="-118.3938594">
  <ele>0.04</ele>
  <time>2026-09-02T22:09:09Z</time>
  <course>86.81</course>
  <speed>0.63</speed>
  <fix>3d</fix>
</trkpt>
<trkpt lat="33.810611" lon="-118.3938569">
  <ele>-0.042</ele>
  <time>2026-09-02T22:09:09Z</time>
  <course>34.04</course>
  <speed>0.6618912297349165</speed>
  <fix>3d</fix>
</trkpt>
<trkpt lat="33.8106108" lon="-118.393858">
  <ele>0.05</ele>
  <time>2026-09-02T22:09:09Z</time>
  <course>86.35</course>
  <speed>0.65</speed>
  <fix>3d</fix>
</trkpt>
<trkpt lat="33.8106111" lon="-118.3938562">
  <ele>-0.042</ele>
  <time>2026-09-02T22:09:09Z</time>
  <course>39.72</course>
  <speed>0.6612110101926616</speed>
  <fix>3d</fix>
</trkpt>
<trkpt lat="33.8106108" lon="-118.393858">
  <ele>0.05</ele>
  <time>2026-09-02T22:09:09Z</time>
  <course>86.35</course>
  <speed>0.65</speed>
  <fix>3d</fix>
</trkpt>
<trkpt lat="33.8106111" lon="-118.3938555">
  <ele>-0.041</ele>
  <time>2026-09-02T22:09:09Z</time>
  <course>44.83</course>
  <speed>0.6512296062065974</speed>
  <fix>3d</fix>
</trkpt>
<trkpt lat="33.8106109" lon="-118.3938565">
  <ele>0.06</ele>
  <time>2026-09-02T22:09:09Z</time>
  <course>86.88</course>
  <speed>0.66</speed>
  <fix>3d</fix>
</trkpt>
<trkpt lat="33.8106111" lon="-118.3938548">
  <ele>-0.041</ele>
  <time>2026-09-02T22:09:09Z</time>
  <course>49.47</course>
  <speed>0.6506919393998976</speed>
  <fix>3d</fix>
</trkpt>
<trkpt lat="33.8106109" lon="-118.3938565">
  <ele>0.06</ele>
  <time>2026-09-02T22:09:09Z</time>
  <course>86.88</course>
  <speed>0.66</speed>
  <fix>3d</fix>
</trkpt>
<trkpt lat="33.8106111" lon="-118.3938541">
  <ele>-0.041</ele>
  <time>2026-09-02T22:09:09Z</time>
  <course>53.74</course>
  <speed>0.6400781202322103</speed>
  <fix>3d</fix>
</trkpt>
<trkpt lat="33.810611" lon="-118.3938551">
  <ele>0.07</ele>
  <time>2026-09-02T22:09:09Z</time>
  <course>88.04</course>
  <speed>0.66</speed>
  <fix>3d</fix>
</trkpt>
<trkpt lat="33.8106111" lon="-118.3938534">
  <ele>-0.04</ele>
  <time>2026-09-02T22:09:09Z</time>
  <course>57.74</course>
  <speed>0.63</speed>
  <fix>3d</fix>
</trkpt>
<trkpt lat="33.810611" lon="-118.3938551">
  <ele>0.07</ele>
  <time>2026-09-02T22:09:09Z</time>
  <course>88.04</course>
  <speed>0.66</speed>
  <fix>3d</fix>
</trkpt>
<trkpt lat="33.8106111" lon="-118.3938527">
  <ele>-0.039</ele>
  <time>2026-09-02T22:09:09Z</time>
  <course>61.56</course>
  <speed>0.6200806399170998</speed>
  <fix>3d</fix>
</trkpt>
<trkpt lat="33.810611" lon="-118.3938537">
  <ele>0.08</ele>
  <time>2026-09-02T22:09:09Z</time>
  <course>90.03</course>
  <speed>0.64</speed>
  <fix>3d</fix>
</trkpt>
<trkpt lat="33.8106111" lon="-118.393852">
  <ele>-0.041</ele>
  <time>2026-09-02T22:09:09Z</time>
  <course>65.27</course>
  <speed>0.6007495318350236</speed>
  <fix>3d</fix>
</trkpt>
<trkpt lat="33.810611" lon="-118.3938537">
  <ele>0.08</ele>
  <time>2026-09-02T22:09:09Z</time>
  <course>90.03</course>
  <speed>0.64</speed>
  <fix>3d</fix>
</trkpt>
<trkpt lat="33.8106111" lon="-118.3938514">
  <ele>-0.042</ele>
  <time>2026-09-02T22:09:09Z</time>
  <course>68.76</course>
  <speed>0.5913543776789008</speed>
  <fix>3d</fix>
</trkpt>
<trkpt lat="33.810611" lon="-118.3938523">
  <ele>0.1</ele>
  <time>2026-09-02T22:09:09Z</time>
  <course>93.03</course>
  <speed>0.62</speed>
  <fix>3d</fix>
</trkpt>
<trkpt lat="33.810611" lon="-118.3938508">
  <ele>-0.043</ele>
  <time>2026-09-02T22:09:09Z</time>
  <course>71.86</course>
  <speed>0.5714017850864661</speed>
  <fix>3d</fix>
</trkpt>
<trkpt lat="33.810611" lon="-118.3938523">
  <ele>0.1</ele>
  <time>2026-09-02T22:09:09Z</time>
  <course>93.03</course>
  <speed>0.62</speed>
  <fix>3d</fix>
</trkpt>
<trkpt lat="33.810611" lon="-118.3938501">
  <ele>-0.043</ele>
  <time>2026-09-02T22:09:09Z</time>
  <course>74.41</course>
  <speed>0.5508175741568164</speed>
  <fix>3d</fix>
</trkpt>
<trkpt lat="33.810611" lon="-118.3938509">
  <ele>0.11</ele>
  <time>2026-09-02T22:09:09Z</time>
  <course>95.13</course>
  <speed>0.59</speed>
  <fix>3d</fix>
</trkpt>
<trkpt lat="33.810611" lon="-118.3938495">
  <ele>-0.043</ele>
  <time>2026-09-02T22:09:09Z</time>
  <course>76.27</course>
  <speed>0.5300943312279428</speed>
  <fix>3d</fix>
</trkpt>
<trkpt lat="33.810611" lon="-118.3938509">
  <ele>0.11</ele>
  <time>2026-09-02T22:09:09Z</time>
  <course>95.13</course>
  <speed>0.59</speed>
  <fix>3d</fix>
</trkpt>
<trkpt lat="33.8106109" lon="-118.393849">
  <ele>-0.043</ele>
  <time>2026-09-02T22:09:09Z</time>
  <course>77.52</course>
  <speed>0.52</speed>
  <fix>3d</fix>
</trkpt>
<trkpt lat="33.8106109" lon="-118.3938497">
  <ele>0.12</ele>
  <time>2026-09-02T22:09:09Z</time>
  <course>94.32</course>
  <speed>0.56</speed>
  <fix>3d</fix>
</trkpt>
<trkpt lat="33.8106109" lon="-118.3938484">
  <ele>-0.044</ele>
  <time>2026-09-02T22:09:09Z</time>
  <course>78.23</course>
  <speed>0.51</speed>
  <fix>3d</fix>
</trkpt>
<trkpt lat="33.8106109" lon="-118.3938497">
  <ele>0.12</ele>
  <time>2026-09-02T22:09:09Z</time>
  <course>94.32</course>
  <speed>0.56</speed>
  <fix>3d</fix>
</trkpt>
<trkpt lat="33.8106109" lon="-118.3938478">
  <ele>-0.045</ele>
  <time>2026-09-02T22:09:09Z</time>
  <course>78.69</course>
  <speed>0.5000999900019995</speed>
  <fix>3d</fix>
</trkpt>
<trkpt lat="33.8106109" lon="-118.3938485">
  <ele>0.14</ele>
  <time>2026-09-02T22:09:09Z</time>
  <course>91.94</course>
  <speed>0.52</speed>
  <fix>3d</fix>
</trkpt>
<trkpt lat="33.810611" lon="-118.3938473">
  <ele>-0.046</ele>
  <time>2026-09-02T22:09:09Z</time>
  <course>79.03</course>
  <speed>0.5003998401278722</speed>
  <fix>3d</fix>
</trkpt>
<trkpt lat="33.8106109" lon="-118.3938485">
  <ele>0.14</ele>
  <time>2026-09-02T22:09:09Z</time>
  <course>91.94</course>
  <speed>0.52</speed>
  <fix>3d</fix>
</trkpt>
<trkpt lat="33.810611" lon="-118.3938467">
  <ele>-0.048</ele>
  <time>2026-09-02T22:09:09Z</time>
  <course>79.37</course>
  <speed>0.49040799340956914</speed>
  <fix>3d</fix>
</trkpt>
<trkpt lat="33.8106109" lon="-118.3938474">
  <ele>0.15</ele>
  <time>2026-09-02T22:09:09Z</time>
  <course>90.0</course>
  <speed>0.5</speed>
  <fix>3d</fix>
</trkpt>
<trkpt lat="33.810611" lon="-118.3938462">
  <ele>-0.05</ele>
  <time>2026-09-02T22:09:09Z</time>
  <course>79.71</course>
  <speed>0.49040799340956914</speed>
  <fix>3d</fix>
</trkpt>
<trkpt lat="33.8106109" lon="-118.3938474">
  <ele>0.15</ele>
  <time>2026-09-02T22:09:09Z</time>
  <course>90.0</course>
  <speed>0.5</speed>
  <fix>3d</fix>
</trkpt>
<trkpt lat="33.810611" lon="-118.3938456">
  <ele>-0.052</ele>
  <time>2026-09-02T22:09:09Z</time>
  <course>80.09</course>
  <speed>0.49040799340956914</speed>
  <fix>3d</fix>
</trkpt>
<trkpt lat="33.8106109" lon="-118.3938463">
  <ele>0.16</ele>
  <time>2026-09-02T22:09:09Z</time>
  <course>88.87</course>
  <speed>0.49</speed>
  <fix>3d</fix>
</trkpt>
<trkpt lat="33.810611" lon="-118.3938451">
  <ele>-0.054</ele>
  <time>2026-09-02T22:09:09Z</time>
  <course>80.47</course>
  <speed>0.49040799340956914</speed>
  <fix>3d</fix>
</trkpt>
<trkpt lat="33.8106109" lon="-118.3938463">
  <ele>0.16</ele>
  <time>2026-09-02T22:09:09Z</time>
  <course>88.87</course>
  <speed>0.49</speed>
  <fix>3d</fix>
</trkpt>
<trkpt lat="33.810611" lon="-118.3938446">
  <ele>-0.056</ele>
  <time>2026-09-02T22:09:09Z</time>
  <course>80.87</course>
  <speed>0.4909175083453431</speed>
  <fix>3d</fix>
</trkpt>
<trkpt lat="33.8106109" lon="-118.3938453">
  <ele>0.17</ele>
  <time>2026-09-02T22:09:09Z</time>
  <course>88.21</course>
  <speed>0.49</speed>
  <fix>3d</fix>
</trkpt>
<trkpt lat="33.810611" lon="-118.393844">
  <ele>-0.059</ele>
  <time>2026-09-02T22:09:09Z</time>
  <course>81.24</course>
  <speed>0.4909175083453431</speed>
  <fix>3d</fix>
</trkpt>
<trkpt lat="33.8106109" lon="-118.3938453">
  <ele>0.17</ele>
  <time>2026-09-02T22:09:09Z</time>
  <course>88.21</course>
  <speed>0.49</speed>
  <fix>3d</fix>
</trkpt>
<trkpt lat="33.810611" lon="-118.3938435">
  <ele>-0.061</ele>
  <time>2026-09-02T22:09:09Z</time>
  <course>81.6</course>
  <speed>0.4909175083453431</speed>
  <fix>3d</fix>
</trkpt>
<trkpt lat="33.8106109" lon="-118.3938442">
  <ele>0.18</ele>
  <time>2026-09-02T22:09:09Z</time>
  <course>87.74</course>
  <speed>0.49</speed>
  <fix>3d</fix>
</trkpt>
<trkpt lat="33.810611" lon="-118.3938429">
  <ele>-0.063</ele>
  <time>2026-09-02T22:09:09Z</time>
  <course>81.91</course>
  <speed>0.4909175083453431</speed>
  <fix>3d</fix>
</trkpt>
<trkpt lat="33.8106109" lon="-118.3938442">
  <ele>0.18</ele>
  <time>2026-09-02T22:09:09Z</time>
  <course>87.74</course>
  <speed>0.49</speed>
  <fix>3d</fix>
</trkpt>
<trkpt lat="33.810611" lon="-118.3938424">
  <ele>-0.065</ele>
  <time>2026-09-02T22:09:09Z</time>
  <course>82.2</course>
  <speed>0.4909175083453431</speed>
  <fix>3d</fix>
</trkpt>
<trkpt lat="33.8106109" lon="-118.3938431">
  <ele>0.19</ele>
  <time>2026-09-02T22:09:09Z</time>
  <course>87.35</course>
  <speed>0.49</speed>
  <fix>3d</fix>
</trkpt>
<trkpt lat="33.810611" lon="-118.3938419">
  <ele>-0.067</ele>
  <time>2026-09-02T22:09:09Z</time>
  <course>82.44</course>
  <speed>0.480936586256442</speed>
  <fix>3d</fix>
</trkpt>
<trkpt lat="33.8106109" lon="-118.3938431">
  <ele>0.19</ele>
  <time>2026-09-02T22:09:09Z</time>
  <course>87.35</course>
  <speed>0.49</speed>
  <fix>3d</fix>
</trkpt>
<trkpt lat="33.810611" lon="-118.3938413">
  <ele>-0.068</ele>
  <time>2026-09-02T22:09:09Z</time>
  <course>82.66</course>
  <speed>0.480936586256442</speed>
  <fix>3d</fix>
</trkpt>
<trkpt lat="33.8106109" lon="-118.3938421">
  <ele>0.2</ele>
  <time>2026-09-02T22:09:09Z</time>
  <course>86.99</course>
  <speed>0.49</speed>
  <fix>3d</fix>
</trkpt>
<trkpt lat="33.8106111" lon="-118.3938408">
  <ele>-0.069</ele>
  <time>2026-09-02T22:09:09Z</time>
  <course>82.83</course>
  <speed>0.480936586256442</speed>
  <fix>3d</fix>
</trkpt>
<trkpt lat="33.8106109" lon="-118.3938421">
  <ele>0.2</ele>
  <time>2026-09-02T22:09:09Z</time>
  <course>86.99</course>
  <speed>0.49</speed>
  <fix>3d</fix>
</trkpt>
<trkpt lat="33.8106111" lon="-118.3938403">
  <ele>-0.069</ele>
  <time>2026-09-02T22:09:09Z</time>
  <course>82.98</course>
  <speed>0.480936586256442</speed>
  <fix>3d</fix>
</trkpt>
<trkpt lat="33.8106109" lon="-118.393841">
  <ele>0.2</ele>
  <time>2026-09-02T22:09:09Z</time>
  <course>86.64</course>
  <speed>0.49</speed>
  <fix>3d</fix>
</trkpt>
<trkpt lat="33.8106111" lon="-118.3938398">
  <ele>-0.07</ele>
  <time>2026-09-02T22:09:09Z</time>
  <course>83.1</course>
  <speed>0.480936586256442</speed>
  <fix>3d</fix>
</trkpt>
<trkpt lat="33.8106109" lon="-118.393841">
  <ele>0.2</ele>
  <time>2026-09-02T22:09:09Z</time>
  <course>86.64</course>
  <speed>0.49</speed>
  <fix>3d</fix>
</trkpt>
<trkpt lat="33.8106111" lon="-118.3938392">
  <ele>-0.07</ele>
  <time>2026-09-02T22:09:09Z</time>
  <course>83.19</course>
  <speed>0.480936586256442</speed>
  <fix>3d</fix>
</trkpt>
<trkpt lat="33.810611" lon="-118.3938399">
  <ele>0.21</ele>
  <time>2026-09-02T22:09:09Z</time>
  <course>86.3</course>
  <speed>0.48</speed>
  <fix>3d</fix>
</trkpt>
<trkpt lat="33.8106111" lon="-118.3938387">
  <ele>-0.071</ele>
  <time>2026-09-02T22:09:09Z</time>
  <course>83.27</course>
  <speed>0.480936586256442</speed>
  <fix>3d</fix>
</trkpt>
<trkpt lat="33.810611" lon="-118.3938399">
  <ele>0.21</ele>
  <time>2026-09-02T22:09:09Z</time>
  <course>86.3</course>
  <speed>0.48</speed>
  <fix>3d</fix>
</trkpt>
<trkpt lat="33.8106111" lon="-118.3938382">
  <ele>-0.073</ele>
  <time>2026-09-02T22:09:09Z</time>
  <course>83.37</course>
  <speed>0.480936586256442</speed>
  <fix>3d</fix>
</trkpt>
<trkpt lat="33.810611" lon="-118.3938389">
  <ele>0.22</ele>
  <time>2026-09-02T22:09:09Z</time>
  <course>86.04</course>
  <speed>0.48</speed>
  <fix>3d</fix>
</trkpt>
<trkpt lat="33.8106111" lon="-118.3938377">
  <ele>-0.074</ele>
  <time>2026-09-02T22:09:09Z</time>
  <course>83.44</course>
  <speed>0.48041648597857256</speed>
  <fix>3d</fix>
</trkpt>
<trkpt lat="33.810611" lon="-118.3938389">
  <ele>0.22</ele>
  <time>2026-09-02T22:09:09Z</time>
  <course>86.04</course>
  <speed>0.48</speed>
  <fix>3d</fix>
</trkpt>
<trkpt lat="33.8106112" lon="-118.3938371">
  <ele>-0.075</ele>
  <time>2026-09-02T22:09:09Z</time>
  <course>83.52</course>
  <speed>0.48041648597857256</speed>
  <fix>3d</fix>
</trkpt>
<trkpt lat="33.8106111" lon="-118.3938378">
  <ele>0.23</ele>
  <time>2026-09-02T22:09:09Z</time>
  <course>85.86</course>
  <speed>0.48</speed>
  <fix>3d</fix>
</trkpt>
<trkpt lat="33.8106112" lon="-118.3938366">
  <ele>-0.075</ele>
  <time>2026-09-02T22:09:09Z</time>
  <course>83.6</course>
  <speed>0.48041648597857256</speed>
  <fix>3d</fix>
</trkpt>
<trkpt lat="33.8106111" lon="-118.3938378">
  <ele>0.23</ele>
  <time>2026-09-02T22:09:09Z</time>
  <course>85.86</course>
  <speed>0.48</speed>
  <fix>3d</fix>
</trkpt>
<trkpt lat="33.8106112" lon="-118.3938361">
  <ele>-0.075</ele>
  <time>2026-09-02T22:09:09Z</time>
  <course>83.7</course>
  <speed>0.48041648597857256</speed>
  <fix>3d</fix>
</trkpt>
<trkpt lat="33.8106111" lon="-118.3938368">
  <ele>0.23</ele>
  <time>2026-09-02T22:09:09Z</time>
  <course>85.76</course>
  <speed>0.48</speed>
  <fix>3d</fix>
</trkpt>
<trkpt lat="33.8106112" lon="-118.3938355">
  <ele>-0.075</ele>
  <time>2026-09-02T22:09:09Z</time>
  <course>83.78</course>
  <speed>0.48041648597857256</speed>
  <fix>3d</fix>
</trkpt>
<trkpt lat="33.8106111" lon="-118.3938368">
  <ele>0.23</ele>
  <time>2026-09-02T22:09:09Z</time>
  <course>85.76</course>
  <speed>0.48</speed>
  <fix>3d</fix>
</trkpt>
<trkpt lat="33.8106112" lon="-118.393835">
  <ele>-0.073</ele>
  <time>2026-09-02T22:09:09Z</time>
  <course>83.87</course>
  <speed>0.48041648597857256</speed>
  <fix>3d</fix>
</trkpt>
<trkpt lat="33.8106112" lon="-118.3938357">
  <ele>0.24</ele>
  <time>2026-09-02T22:09:09Z</time>
  <course>85.7</course>
  <speed>0.48</speed>
  <fix>3d</fix>
</trkpt>
<trkpt lat="33.8106113" lon="-118.3938345">
  <ele>-0.073</ele>
  <time>2026-09-02T22:09:09Z</time>
  <course>83.96</course>
  <speed>0.48041648597857256</speed>
  <fix>3d</fix>
</trkpt>
<trkpt lat="33.8106112" lon="-118.3938357">
  <ele>0.24</ele>
  <time>2026-09-02T22:09:09Z</time>
  <course>85.7</course>
  <speed>0.48</speed>
  <fix>3d</fix>
</trkpt>
<trkpt lat="33.8106113" lon="-118.393834">
  <ele>-0.073</ele>
  <time>2026-09-02T22:09:09Z</time>
  <course>84.07</course>
  <speed>0.470425339453563</speed>
  <fix>3d</fix>
</trkpt>
<trkpt lat="33.8106113" lon="-118.3938347">
  <ele>0.25</ele>
  <time>2026-09-02T22:09:09Z</time>
  <course>85.64</course>
  <speed>0.48</speed>
  <fix>3d</fix>
</trkpt>
<trkpt lat="33.8106113" lon="-118.3938335">
  <ele>-0.074</ele>
  <time>2026-09-02T22:09:09Z</time>
  <course>84.21</course>
  <speed>0.470425339453563</speed>
  <fix>3d</fix>
</trkpt>
<trkpt lat="33.8106113" lon="-118.3938347">
  <ele>0.25</ele>
  <time>2026-09-02T22:09:09Z</time>
  <course>85.64</course>
  <speed>0.48</speed>
  <fix>3d</fix>
</trkpt>
<trkpt lat="33.8106113" lon="-118.3938329">
  <ele>-0.076</ele>
  <time>2026-09-02T22:09:09Z</time>
  <course>84.39</course>
  <speed>0.47010637094172636</speed>
  <fix>3d</fix>
</trkpt>
<trkpt lat="33.8106114" lon="-118.3938336">
  <ele>0.25</ele>
  <time>2026-09-02T22:09:09Z</time>
  <course>85.68</course>
  <speed>0.48</speed>
  <fix>3d</fix>
</trkpt>
<trkpt lat="33.8106113" lon="-118.3938324">
  <ele>-0.077</ele>
  <time>2026-09-02T22:09:09Z</time>
  <course>84.6</course>
  <speed>0.47010637094172636</speed>
  <fix>3d</fix>
</trkpt>
<trkpt lat="33.8106114" lon="-118.3938336">
  <ele>0.25</ele>
  <time>2026-09-02T22:09:09Z</time>
  <course>85.68</course>
  <speed>0.48</speed>
  <fix>3d</fix>
</trkpt>
<trkpt lat="33.8106114" lon="-118.3938319">
  <ele>-0.076</ele>
  <time>2026-09-02T22:09:09Z</time>
  <course>84.85</course>
  <speed>0.47010637094172636</speed>
  <fix>3d</fix>
</trkpt>
<trkpt lat="33.8106114" lon="-118.3938326">
  <ele>0.26</ele>
  <time>2026-09-02T22:09:09Z</time>
  <course>85.77</course>
  <speed>0.48</speed>
  <fix>3d</fix>
</trkpt>
<trkpt lat="33.8106114" lon="-118.3938314">
  <ele>-0.075</ele>
  <time>2026-09-02T22:09:09Z</time>
  <course>85.1</course>
  <speed>0.47010637094172636</speed>
  <fix>3d</fix>
</trkpt>
<trkpt lat="33.8106114" lon="-118.3938326">
  <ele>0.26</ele>
  <time>2026-09-02T22:09:09Z</time>
  <course>85.77</course>
  <speed>0.48</speed>
  <fix>3d</fix>
</trkpt>
<trkpt lat="33.8106114" lon="-118.3938308">
  <ele>-0.074</ele>
  <time>2026-09-02T22:09:09Z</time>
  <course>85.36</course>
  <speed>0.47010637094172636</speed>
  <fix>3d</fix>
</trkpt>
<trkpt lat="33.8106115" lon="-118.3938315">
  <ele>0.26</ele>
  <time>2026-09-02T22:09:09Z</time>
  <course>85.89</course>
  <speed>0.48</speed>
  <fix>3d</fix>
</trkpt>
<trkpt lat="33.8106114" lon="-118.3938303">
  <ele>-0.072</ele>
  <time>2026-09-02T22:09:09Z</time>
  <course>85.63</course>
  <speed>0.47010637094172636</speed>
  <fix>3d</fix>
</trkpt>
<trkpt lat="33.8106115" lon="-118.3938315">
  <ele>0.26</ele>
  <time>2026-09-02T22:09:09Z</time>
  <course>85.89</course>
  <speed>0.48</speed>
  <fix>3d</fix>
</trkpt>
<trkpt lat="33.8106114" lon="-118.3938298">
  <ele>-0.071</ele>
  <time>2026-09-02T22:09:09Z</time>
  <course>85.9</course>
  <speed>0.47010637094172636</speed>
  <fix>3d</fix>
</trkpt>
<trkpt lat="33.8106116" lon="-118.3938305">
  <ele>0.27</ele>
  <time>2026-09-02T22:09:09Z</time>
  <course>86.01</course>
  <speed>0.48</speed>
  <fix>3d</fix>
</trkpt>
<trkpt lat="33.8106115" lon="-118.3938293">
  <ele>-0.07</ele>
  <time>2026-09-02T22:09:09Z</time>
  <course>86.2</course>
  <speed>0.47010637094172636</speed>
  <fix>3d</fix>
</trkpt>
<trkpt lat="33.8106116" lon="-118.3938305">
  <ele>0.27</ele>
  <time>2026-09-02T22:09:09Z</time>
  <course>86.01</course>
  <speed>0.48</speed>
  <fix>3d</fix>
</trkpt>
<trkpt lat="33.8106115" lon="-118.3938288">
  <ele>-0.069</ele>
  <time>2026-09-02T22:09:09Z</time>
  <course>86.5</course>
  <speed>0.47</speed>
  <fix>3d</fix>
</trkpt>
<trkpt lat="33.8106116" lon="-118.3938294">
  <ele>0.27</ele>
  <time>2026-09-02T22:09:09Z</time>
  <course>86.19</course>
  <speed>0.48</speed>
  <fix>3d</fix>
</trkpt>
<trkpt lat="33.8106115" lon="-118.3938283">
  <ele>-0.068</ele>
  <time>2026-09-02T22:09:09Z</time>
  <course>86.81</course>
  <speed>0.47</speed>
  <fix>3d</fix>
</trkpt>
<trkpt lat="33.8106116" lon="-118.3938294">
  <ele>0.27</ele>
  <time>2026-09-02T22:09:09Z</time>
  <course>86.19</course>
  <speed>0.48</speed>
  <fix>3d</fix>
</trkpt>
<trkpt lat="33.8106115" lon="-118.3938277">
  <ele>-0.066</ele>
  <time>2026-09-02T22:09:09Z</time>
  <course>87.09</course>
  <speed>0.46</speed>
  <fix>3d</fix>
</trkpt>
<trkpt lat="33.8106116" lon="-118.3938284">
  <ele>0.28</ele>
  <time>2026-09-02T22:09:09Z</time>
  <course>86.38</course>
  <speed>0.48</speed>
  <fix>3d</fix>
</trkpt>
<trkpt lat="33.8106115" lon="-118.3938272">
  <ele>-0.064</ele>
  <time>2026-09-02T22:09:09Z</time>
  <course>87.36</course>
  <speed>0.46</speed>
  <fix>3d</fix>
</trkpt>
<trkpt lat="33.8106116" lon="-118.3938284">
  <ele>0.28</ele>
  <time>2026-09-02T22:09:09Z</time>
  <course>86.38</course>
  <speed>0.48</speed>
  <fix>3d</fix>
</trkpt>
<trkpt lat="33.8106116" lon="-118.3938267">
  <ele>-0.063</ele>
  <time>2026-09-02T22:09:09Z</time>
  <course>87.58</course>
  <speed>0.46</speed>
  <fix>3d</fix>
</trkpt>
<trkpt lat="33.8106117" lon="-118.3938273">
  <ele>0.28</ele>
  <time>2026-09-02T22:09:09Z</time>
  <course>86.48</course>
  <speed>0.48</speed>
  <fix>3d</fix>
</trkpt>
<trkpt lat="33.8106116" lon="-118.3938262">
  <ele>-0.063</ele>
  <time>2026-09-02T22:09:09Z</time>
  <course>87.82</course>
  <speed>0.46</speed>
  <fix>3d</fix>
</trkpt>
<trkpt lat="33.8106117" lon="-118.3938273">
  <ele>0.28</ele>
  <time>2026-09-02T22:09:09Z</time>
  <course>86.48</course>
  <speed>0.48</speed>
  <fix>3d</fix>
</trkpt>
<trkpt lat="33.8106116" lon="-118.3938257">
  <ele>-0.064</ele>
  <time>2026-09-02T22:09:09Z</time>
  <course>88.05</course>
  <speed>0.46</speed>
  <fix>3d</fix>
</trkpt>
<trkpt lat="33.8106117" lon="-118.3938262">
  <ele>0.29</ele>
  <time>2026-09-02T22:09:09Z</time>
  <course>86.52</course>
  <speed>0.48</speed>
  <fix>3d</fix>
</trkpt>
<trkpt lat="33.8106116" lon="-118.3938251">
  <ele>-0.065</ele>
  <time>2026-09-02T22:09:09Z</time>
  <course>88.29</course>
  <speed>0.46</speed>
  <fix>3d</fix>
</trkpt>
<trkpt lat="33.8106117" lon="-118.3938262">
  <ele>0.29</ele>
  <time>2026-09-02T22:09:09Z</time>
  <course>86.52</course>
  <speed>0.48</speed>
  <fix>3d</fix>
</trkpt>
<trkpt lat="33.8106116" lon="-118.3938246">
  <ele>-0.066</ele>
  <time>2026-09-02T22:09:09Z</time>
  <course>88.51</course>
  <speed>0.46</speed>
  <fix>3d</fix>
</trkpt>
<trkpt lat="33.8106118" lon="-118.3938252">
  <ele>0.29</ele>
  <time>2026-09-02T22:09:09Z</time>
  <course>86.54</course>
  <speed>0.48</speed>
  <fix>3d</fix>
</trkpt>
<trkpt lat="33.8106117" lon="-118.3938241">
  <ele>-0.067</ele>
  <time>2026-09-02T22:09:09Z</time>
  <course>88.75</course>
  <speed>0.46</speed>
  <fix>3d</fix>
</trkpt>
<trkpt lat="33.8106118" lon="-118.3938252">
  <ele>0.29</ele>
  <time>2026-09-02T22:09:09Z</time>
  <course>86.54</course>
  <speed>0.48</speed>
  <fix>3d</fix>
</trkpt>
<trkpt lat="33.8106117" lon="-118.3938236">
  <ele>-0.067</ele>
  <time>2026-09-02T22:09:09Z</time>
  <course>89.01</course>
  <speed>0.46</speed>
  <fix>3d</fix>
</trkpt>
<trkpt lat="33.8106119" lon="-118.3938241">
  <ele>0.29</ele>
  <time>2026-09-02T22:09:09Z</time>
  <course>86.56</course>
  <speed>0.48</speed>
  <fix>3d</fix>
</trkpt>
<trkpt lat="33.8106117" lon="-118.3938231">
  <ele>-0.067</ele>
  <time>2026-09-02T22:09:09Z</time>
  <course>89.31</course>
  <speed>0.46</speed>
  <fix>3d</fix>
</trkpt>
<trkpt lat="33.8106119" lon="-118.3938241">
  <ele>0.29</ele>
  <time>2026-09-02T22:09:09Z</time>
  <course>86.56</course>
  <speed>0.48</speed>
  <fix>3d</fix>
</trkpt>
<trkpt lat="33.8106117" lon="-118.3938225">
  <ele>-0.067</ele>
  <time>2026-09-02T22:09:09Z</time>
  <course>89.62</course>
  <speed>0.46</speed>
  <fix>3d</fix>
</trkpt>
<trkpt lat="33.8106119" lon="-118.3938231">
  <ele>0.3</ele>
  <time>2026-09-02T22:09:09Z</time>
  <course>86.64</course>
  <speed>0.48</speed>
  <fix>3d</fix>
</trkpt>
<trkpt lat="33.8106117" lon="-118.393822">
  <ele>-0.066</ele>
  <time>2026-09-02T22:09:09Z</time>
  <course>89.96</course>
  <speed>0.46</speed>
  <fix>3d</fix>
</trkpt>
<trkpt lat="33.8106119" lon="-118.3938231">
  <ele>0.3</ele>
  <time>2026-09-02T22:09:09Z</time>
  <course>86.64</course>
  <speed>0.48</speed>
  <fix>3d</fix>
</trkpt>
<trkpt lat="33.8106118" lon="-118.3938215">
  <ele>-0.065</ele>
  <time>2026-09-02T22:09:09Z</time>
  <course>90.29</course>
  <speed>0.46</speed>
  <fix>3d</fix>
</trkpt>
<trkpt lat="33.810612" lon="-118.393822">
  <ele>0.3</ele>
  <time>2026-09-02T22:09:09Z</time>
  <course>86.74</course>
  <speed>0.48</speed>
  <fix>3d</fix>
</trkpt>
<trkpt lat="33.8106118" lon="-118.393821">
  <ele>-0.064</ele>
  <time>2026-09-02T22:09:09Z</time>
  <course>90.65</course>
  <speed>0.46</speed>
  <fix>3d</fix>
</trkpt>
<trkpt lat="33.810612" lon="-118.393822">
  <ele>0.3</ele>
  <time>2026-09-02T22:09:09Z</time>
  <course>86.74</course>
  <speed>0.48</speed>
  <fix>3d</fix>
</trkpt>
<trkpt lat="33.8106118" lon="-118.3938204">
  <ele>-0.064</ele>
  <time>2026-09-02T22:09:09Z</time>
  <course>91.0</course>
  <speed>0.46</speed>
  <fix>3d</fix>
</trkpt>
<trkpt lat="33.810612" lon="-118.393821">
  <ele>0.31</ele>
  <time>2026-09-02T22:09:09Z</time>
  <course>86.83</course>
  <speed>0.48</speed>
  <fix>3d</fix>
</trkpt>
<trkpt lat="33.8106118" lon="-118.3938199">
  <ele>-0.064</ele>
  <time>2026-09-02T22:09:09Z</time>
  <course>91.36</course>
  <speed>0.46</speed>
  <fix>3d</fix>
</trkpt>
<trkpt lat="33.810612" lon="-118.393821">
  <ele>0.31</ele>
  <time>2026-09-02T22:09:09Z</time>
  <course>86.83</course>
  <speed>0.48</speed>
  <fix>3d</fix>
</trkpt>
<trkpt lat="33.8106118" lon="-118.3938194">
  <ele>-0.063</ele>
  <time>2026-09-02T22:09:09Z</time>
  <course>91.69</course>
  <speed>0.46</speed>
  <fix>3d</fix>
</trkpt>
<trkpt lat="33.8106121" lon="-118.3938199">
  <ele>0.31</ele>
  <time>2026-09-02T22:09:09Z</time>
  <course>86.89</course>
  <speed>0.48</speed>
  <fix>3d</fix>
</trkpt>
<trkpt lat="33.8106119" lon="-118.3938189">
  <ele>-0.063</ele>
  <time>2026-09-02T22:09:09Z</time>
  <course>92.05</course>
  <speed>0.46</speed>
  <fix>3d</fix>
</trkpt>
<trkpt lat="33.8106121" lon="-118.3938199">
  <ele>0.31</ele>
  <time>2026-09-02T22:09:09Z</time>
  <course>86.89</course>
  <speed>0.48</speed>
  <fix>3d</fix>
</trkpt>
<trkpt lat="33.8106119" lon="-118.3938184">
  <ele>-0.064</ele>
  <time>2026-09-02T22:09:09Z</time>
  <course>92.39</course>
  <speed>0.45</speed>
  <fix>3d</fix>
</trkpt>
<trkpt lat="33.8106121" lon="-118.3938189">
  <ele>0.31</ele>
  <time>2026-09-02T22:09:09Z</time>
  <course>86.94</course>
  <speed>0.48</speed>
  <fix>3d</fix>
</trkpt>
<trkpt lat="33.8106119" lon="-118.3938178">
  <ele>-0.064</ele>
  <time>2026-09-02T22:09:09Z</time>
  <course>92.74</course>
  <speed>0.45</speed>
  <fix>3d</fix>
</trkpt>
<trkpt lat="33.8106121" lon="-118.3938189">
  <ele>0.31</ele>
  <time>2026-09-02T22:09:09Z</time>
  <course>86.94</course>
  <speed>0.48</speed>
  <fix>3d</fix>
</trkpt>
<trkpt lat="33.8106119" lon="-118.3938173">
  <ele>-0.064</ele>
  <time>2026-09-02T22:09:09Z</time>
  <course>93.06</course>
  <speed>0.45</speed>
  <fix>3d</fix>
</trkpt>
<trkpt lat="33.8106122" lon="-118.3938178">
  <ele>0.31</ele>
  <time>2026-09-02T22:09:09Z</time>
  <course>87.01</course>
  <speed>0.48</speed>
  <fix>3d</fix>
</trkpt>
<trkpt lat="33.8106119" lon="-118.3938168">
  <ele>-0.063</ele>
  <time>2026-09-02T22:09:09Z</time>
  <course>93.4</course>
  <speed>0.45</speed>
  <fix>3d</fix>
</trkpt>
<trkpt lat="33.8106122" lon="-118.3938178">
  <ele>0.31</ele>
  <time>2026-09-02T22:09:09Z</time>
  <course>87.01</course>
  <speed>0.48</speed>
  <fix>3d</fix>
</trkpt>
<trkpt lat="33.810612" lon="-118.3938163">
  <ele>-0.063</ele>
  <time>2026-09-02T22:09:09Z</time>
  <course>93.72</course>
  <speed>0.45</speed>
  <fix>3d</fix>
</trkpt>
<trkpt lat="33.8106122" lon="-118.3938168">
  <ele>0.32</ele>
  <time>2026-09-02T22:09:09Z</time>
  <course>87.11</course>
  <speed>0.48</speed>
  <fix>3d</fix>
</trkpt>
<trkpt lat="33.810612" lon="-118.3938158">
  <ele>-0.063</ele>
  <time>2026-09-02T22:09:09Z</time>
  <course>94.02</course>
  <speed>0.45</speed>
  <fix>3d</fix>
</trkpt>
<trkpt lat="33.8106122" lon="-118.3938168">
  <ele>0.32</ele>
  <time>2026-09-02T22:09:09Z</time>
  <course>87.11</course>
  <speed>0.48</speed>
  <fix>3d</fix>
</trkpt>
<trkpt lat="33.810612" lon="-118.3938152">
  <ele>-0.062</ele>
  <time>2026-09-02T22:09:09Z</time>
  <course>94.29</course>
  <speed>0.45</speed>
  <fix>3d</fix>
</trkpt>
<trkpt lat="33.8106122" lon="-118.3938157">
  <ele>0.32</ele>
  <time>2026-09-02T22:09:09Z</time>
  <course>87.27</course>
  <speed>0.48</speed>
  <fix>3d</fix>
</trkpt>
<trkpt lat="33.810612" lon="-118.3938147">
  <ele>-0.063</ele>
  <time>2026-09-02T22:09:09Z</time>
  <course>94.54</course>
  <speed>0.45</speed>
  <fix>3d</fix>
</trkpt>
<trkpt lat="33.8106122" lon="-118.3938157">
  <ele>0.32</ele>
  <time>2026-09-02T22:09:09Z</time>
  <course>87.27</course>
  <speed>0.48</speed>
  <fix>3d</fix>
</trkpt>
<trkpt lat="33.810612" lon="-118.3938142">
  <ele>-0.063</ele>
  <time>2026-09-02T22:09:09Z</time>
  <course>94.76</course>
  <speed>0.45</speed>
  <fix>3d</fix>
</trkpt>
<trkpt lat="33.8106123" lon="-118.3938147">
  <ele>0.32</ele>
  <time>2026-09-02T22:09:09Z</time>
  <course>87.42</course>
  <speed>0.48</speed>
  <fix>3d</fix>
</trkpt>
<trkpt lat="33.810612" lon="-118.3938137">
  <ele>-0.063</ele>
  <time>2026-09-02T22:09:09Z</time>
  <course>94.96</course>
  <speed>0.450111097397076</speed>
  <fix>3d</fix>
</trkpt>
<trkpt lat="33.8106123" lon="-118.3938147">
  <ele>0.32</ele>
  <time>2026-09-02T22:09:09Z</time>
  <course>87.42</course>
  <speed>0.48</speed>
  <fix>3d</fix>
</trkpt>
<trkpt lat="33.8106121" lon="-118.3938131">
  <ele>-0.064</ele>
  <time>2026-09-02T22:09:09Z</time>
  <course>95.15</course>
  <speed>0.450111097397076</speed>
  <fix>3d</fix>
</trkpt>
<trkpt lat="33.8106123" lon="-118.3938136">
  <ele>0.32</ele>
  <time>2026-09-02T22:09:09Z</time>
  <course>87.59</course>
  <speed>0.48</speed>
  <fix>3d</fix>
</trkpt>
<trkpt lat="33.8106121" lon="-118.3938126">
  <ele>-0.064</ele>
  <time>2026-09-02T22:09:09Z</time>
  <course>95.33</course>
  <speed>0.450111097397076</speed>
  <fix>3d</fix>
</trkpt>
<trkpt lat="33.8106123" lon="-118.3938136">
  <ele>0.32</ele>
  <time>2026-09-02T22:09:09Z</time>
  <course>87.59</course>
  <speed>0.48</speed>
  <fix>3d</fix>
</trkpt>
<trkpt lat="33.8106121" lon="-118.3938121">
  <ele>-0.063</ele>
  <time>2026-09-02T22:09:09Z</time>
  <course>95.5</course>
  <speed>0.450111097397076</speed>
  <fix>3d</fix>
</trkpt>
<trkpt lat="33.8106123" lon="-118.3938126">
  <ele>0.33</ele>
  <time>2026-09-02T22:09:09Z</time>
  <course>87.81</course>
  <speed>0.48</speed>
  <fix>3d</fix>
</trkpt>
<trkpt lat="33.8106121" lon="-118.3938116">
  <ele>-0.064</ele>
  <time>2026-09-02T22:09:09Z</time>
  <course>95.66</course>
  <speed>0.450111097397076</speed>
  <fix>3d</fix>
</trkpt>
<trkpt lat="33.8106123" lon="-118.3938126">
  <ele>0.33</ele>
  <time>2026-09-02T22:09:09Z</time>
  <course>87.81</course>
  <speed>0.48</speed>
  <fix>3d</fix>
</trkpt>
<trkpt lat="33.8106121" lon="-118.3938111">
  <ele>-0.064</ele>
  <time>2026-09-02T22:09:09Z</time>
  <course>95.79</course>
  <speed>0.450111097397076</speed>
  <fix>3d</fix>
</trkpt>
<trkpt lat="33.8106124" lon="-118.3938115">
  <ele>0.33</ele>
  <time>2026-09-02T22:09:09Z</time>
  <course>87.98</course>
  <speed>0.48</speed>
  <fix>3d</fix>
</trkpt>
<trkpt lat="33.8106121" lon="-118.3938105">
  <ele>-0.065</ele>
  <time>2026-09-02T22:09:09Z</time>
  <course>95.91</course>
  <speed>0.450111097397076</speed>
  <fix>3d</fix>
</trkpt>
<trkpt lat="33.8106124" lon="-118.3938115">
  <ele>0.33</ele>
  <time>2026-09-02T22:09:09Z</time>
  <course>87.98</course>
  <speed>0.48</speed>
  <fix>3d</fix>
</trkpt>
<trkpt lat="33.8106122" lon="-118.39381">
  <ele>-0.067</ele>
  <time>2026-09-02T22:09:09Z</time>
  <course>96.04</course>
  <speed>0.450111097397076</speed>
  <fix>3d</fix>
</trkpt>
<trkpt lat="33.8106125" lon="-118.3938105">
  <ele>0.33</ele>
  <time>2026-09-02T22:09:09Z</time>
  <course>88.15</course>
  <speed>0.48</speed>
  <fix>3d</fix>
</trkpt>
<trkpt lat="33.8106122" lon="-118.3938095">
  <ele>-0.068</ele>
  <time>2026-09-02T22:09:09Z</time>
  <course>96.18</course>
  <speed>0.450111097397076</speed>
  <fix>3d</fix>
</trkpt>
<trkpt lat="33.8106125" lon="-118.3938105">
  <ele>0.33</ele>
  <time>2026-09-02T22:09:09Z</time>
  <course>88.15</course>
  <speed>0.48</speed>
  <fix>3d</fix>
</trkpt>
<trkpt lat="33.8106122" lon="-118.393809">
  <ele>-0.069</ele>
  <time>2026-09-02T22:09:09Z</time>
  <course>96.33</course>
  <speed>0.450111097397076</speed>
  <fix>3d</fix>
</trkpt>
<trkpt lat="33.8106125" lon="-118.3938094">
  <ele>0.33</ele>
  <time>2026-09-02T22:09:09Z</time>
  <course>88.46</course>
  <speed>0.48</speed>
  <fix>3d</fix>
</trkpt>
<trkpt lat="33.8106122" lon="-118.3938085">
  <ele>-0.071</ele>
  <time>2026-09-02T22:09:09Z</time>
  <course>96.49</course>
  <speed>0.45044422518220834</speed>
  <fix>3d</fix>
</trkpt>
<trkpt lat="33.8106125" lon="-118.3938094">
  <ele>0.33</ele>
  <time>2026-09-02T22:09:09Z</time>
  <course>88.46</course>
  <speed>0.48</speed>
  <fix>3d</fix>
</trkpt>
<trkpt lat="33.8106122" lon="-118.3938079">
  <ele>-0.072</ele>
  <time>2026-09-02T22:09:09Z</time>
  <course>96.65</course>
  <speed>0.45044422518220834</speed>
  <fix>3d</fix>
</trkpt>
<trkpt lat="33.8106125" lon="-118.3938084">
  <ele>0.33</ele>
  <time>2026-09-02T22:09:10Z</time>
  <course>88.87</course>
  <speed>0.48</speed>
  <fix>3d</fix>
</trkpt>
<trkpt lat="33.8106122" lon="-118.3938074">
  <ele>-0.071</ele>
  <time>2026-09-02T22:09:10Z</time>
  <course>96.8</course>
  <speed>0.45044422518220834</speed>
  <fix>3d</fix>
</trkpt>
<trkpt lat="33.8106125" lon="-118.3938084">
  <ele>0.33</ele>
  <time>2026-09-02T22:09:10Z</time>
  <course>88.87</course>
  <speed>0.48</speed>
  <fix>3d</fix>
</trkpt>
<trkpt lat="33.8106122" lon="-118.3938069">
  <ele>-0.071</ele>
  <time>2026-09-02T22:09:10Z</time>
  <course>96.93</course>
  <speed>0.45044422518220834</speed>
  <fix>3d</fix>
</trkpt>
<trkpt lat="33.8106125" lon="-118.3938073">
  <ele>0.33</ele>
  <time>2026-09-02T22:09:10Z</time>
  <course>89.19</course>
  <speed>0.48</speed>
  <fix>3d</fix>
</trkpt>
<trkpt lat="33.8106122" lon="-118.3938064">
  <ele>-0.071</ele>
  <time>2026-09-02T22:09:10Z</time>
  <course>97.03</course>
  <speed>0.45044422518220834</speed>
  <fix>3d</fix>
</trkpt>
<trkpt lat="33.8106125" lon="-118.3938073">
  <ele>0.33</ele>
  <time>2026-09-02T22:09:10Z</time>
  <course>89.19</course>
  <speed>0.48</speed>
  <fix>3d</fix>
</trkpt>
<trkpt lat="33.8106122" lon="-118.3938058">
  <ele>-0.07</ele>
  <time>2026-09-02T22:09:10Z</time>
  <course>97.12</course>
  <speed>0.45044422518220834</speed>
  <fix>3d</fix>
</trkpt>
<trkpt lat="33.8106125" lon="-118.3938062">
  <ele>0.33</ele>
  <time>2026-09-02T22:09:10Z</time>
  <course>89.41</course>
  <speed>0.48</speed>
  <fix>3d</fix>
</trkpt>
<trkpt lat="33.8106122" lon="-118.3938053">
  <ele>-0.071</ele>
  <time>2026-09-02T22:09:10Z</time>
  <course>97.19</course>
  <speed>0.45044422518220834</speed>
  <fix>3d</fix>
</trkpt>
<trkpt lat="33.8106125" lon="-118.3938062">
  <ele>0.33</ele>
  <time>2026-09-02T22:09:10Z</time>
  <course>89.41</course>
  <speed>0.48</speed>
  <fix>3d</fix>
</trkpt>
<trkpt lat="33.8106123" lon="-118.3938048">
  <ele>-0.071</ele>
  <time>2026-09-02T22:09:10Z</time>
  <course>97.25</course>
  <speed>0.45044422518220834</speed>
  <fix>3d</fix>
</trkpt>
<trkpt lat="33.8106125" lon="-118.3938052">
  <ele>0.33</ele>
  <time>2026-09-02T22:09:10Z</time>
  <course>89.53</course>
  <speed>0.48</speed>
  <fix>3d</fix>
</trkpt>
<trkpt lat="33.8106123" lon="-118.3938043">
  <ele>-0.071</ele>
  <time>2026-09-02T22:09:10Z</time>
  <course>97.31</course>
  <speed>0.45044422518220834</speed>
  <fix>3d</fix>
</trkpt>
<trkpt lat="33.8106125" lon="-118.3938052">
  <ele>0.33</ele>
  <time>2026-09-02T22:09:10Z</time>
  <course>89.53</course>
  <speed>0.48</speed>
  <fix>3d</fix>
</trkpt>
<trkpt lat="33.8106123" lon="-118.3938037">
  <ele>-0.072</ele>
  <time>2026-09-02T22:09:10Z</time>
  <course>97.34</course>
  <speed>0.45044422518220834</speed>
  <fix>3d</fix>
</trkpt>
<trkpt lat="33.8106125" lon="-118.3938041">
  <ele>0.33</ele>
  <time>2026-09-02T22:09:10Z</time>
  <course>89.59</course>
  <speed>0.48</speed>
  <fix>3d</fix>
</trkpt>
<trkpt lat="33.8106123" lon="-118.3938032">
  <ele>-0.073</ele>
  <time>2026-09-02T22:09:10Z</time>
  <course>97.39</course>
  <speed>0.45044422518220834</speed>
  <fix>3d</fix>
</trkpt>
<trkpt lat="33.8106125" lon="-118.3938041">
  <ele>0.33</ele>
  <time>2026-09-02T22:09:10Z</time>
  <course>89.59</course>
  <speed>0.48</speed>
  <fix>3d</fix>
</trkpt>
<trkpt lat="33.8106123" lon="-118.3938027">
  <ele>-0.074</ele>
  <time>2026-09-02T22:09:10Z</time>
  <course>97.42</course>
  <speed>0.45044422518220834</speed>
  <fix>3d</fix>
</trkpt>
<trkpt lat="33.8106126" lon="-118.3938031">
  <ele>0.33</ele>
  <time>2026-09-02T22:09:10Z</time>
  <course>89.62</course>
  <speed>0.48</speed>
  <fix>3d</fix>
</trkpt>
<trkpt lat="33.8106123" lon="-118.3938021">
  <ele>-0.075</ele>
  <time>2026-09-02T22:09:10Z</time>
  <course>97.47</course>
  <speed>0.45044422518220834</speed>
  <fix>3d</fix>
</trkpt>
<trkpt lat="33.8106126" lon="-118.3938031">
  <ele>0.33</ele>
  <time>2026-09-02T22:09:10Z</time>
  <course>89.62</course>
  <speed>0.48</speed>
  <fix>3d</fix>
</trkpt>
<trkpt lat="33.8106123" lon="-118.3938016">
  <ele>-0.076</ele>
  <time>2026-09-02T22:09:10Z</time>
  <course>97.53</course>
  <speed>0.45044422518220834</speed>
  <fix>3d</fix>
</trkpt>
<trkpt lat="33.8106126" lon="-118.393802">
  <ele>0.33</ele>
  <time>2026-09-02T22:09:10Z</time>
  <course>89.73</course>
  <speed>0.48</speed>
  <fix>3d</fix>
</trkpt>
<trkpt lat="33.8106123" lon="-118.3938011">
  <ele>-0.077</ele>
  <time>2026-09-02T22:09:10Z</time>
  <course>97.61</course>
  <speed>0.45044422518220834</speed>
  <fix>3d</fix>
</trkpt>
<trkpt lat="33.8106126" lon="-118.393802">
  <ele>0.33</ele>
  <time>2026-09-02T22:09:10Z</time>
  <course>89.73</course>
  <speed>0.48</speed>
  <fix>3d</fix>
</trkpt>
<trkpt lat="33.8106123" lon="-118.3938006">
  <ele>-0.078</ele>
  <time>2026-09-02T22:09:10Z</time>
  <course>97.69</course>
  <speed>0.45044422518220834</speed>
  <fix>3d</fix>
</trkpt>
<trkpt lat="33.8106126" lon="-118.393801">
  <ele>0.33</ele>
  <time>2026-09-02T22:09:10Z</time>
  <course>89.95</course>
  <speed>0.48</speed>
  <fix>3d</fix>
</trkpt>
<trkpt lat="33.8106123" lon="-118.3938">
  <ele>-0.079</ele>
  <time>2026-09-02T22:09:10Z</time>
  <course>97.78</course>
  <speed>0.45044422518220834</speed>
  <fix>3d</fix>
</trkpt>
<trkpt lat="33.8106126" lon="-118.393801">
  <ele>0.33</ele>
  <time>2026-09-02T22:09:10Z</time>
  <course>89.95</course>
  <speed>0.48</speed>
  <fix>3d</fix>
</trkpt>
<trkpt lat="33.8106123" lon="-118.3937995">
  <ele>-0.079</ele>
  <time>2026-09-02T22:09:10Z</time>
  <course>97.86</course>
  <speed>0.45044422518220834</speed>
  <fix>3d</fix>
</trkpt>
<trkpt lat="33.8106126" lon="-118.3937999">
  <ele>0.33</ele>
  <time>2026-09-02T22:09:10Z</time>
  <course>90.18</course>
  <speed>0.48</speed>
  <fix>3d</fix>
</trkpt>
<trkpt lat="33.8106123" lon="-118.393799">
  <ele>-0.079</ele>
  <time>2026-09-02T22:09:10Z</time>
  <course>97.92</course>
  <speed>0.45044422518220834</speed>
  <fix>3d</fix>
</trkpt>
<trkpt lat="33.8106126" lon="-118.3937999">
  <ele>0.33</ele>
  <time>2026-09-02T22:09:10Z</time>
  <course>90.18</course>
  <speed>0.48</speed>
  <fix>3d</fix>
</trkpt>
<trkpt lat="33.8106123" lon="-118.3937985">
  <ele>-0.078</ele>
  <time>2026-09-02T22:09:10Z</time>
  <course>97.97</course>
  <speed>0.45044422518220834</speed>
  <fix>3d</fix>
</trkpt>
<trkpt lat="33.8106126" lon="-118.3937989">
  <ele>0.33</ele>
  <time>2026-09-02T22:09:10Z</time>
  <course>90.36</course>
  <speed>0.48</speed>
  <fix>3d</fix>
</trkpt>
<trkpt lat="33.8106123" lon="-118.3937979">
  <ele>-0.078</ele>
  <time>2026-09-02T22:09:10Z</time>
  <course>98.02</course>
  <speed>0.45044422518220834</speed>
  <fix>3d</fix>
</trkpt>
<trkpt lat="33.8106126" lon="-118.3937989">
  <ele>0.33</ele>
  <time>2026-09-02T22:09:10Z</time>
  <course>90.36</course>
  <speed>0.48</speed>
  <fix>3d</fix>
</trkpt>
<trkpt lat="33.8106123" lon="-118.3937974">
  <ele>-0.078</ele>
  <time>2026-09-02T22:09:10Z</time>
  <course>98.05</course>
  <speed>0.45044422518220834</speed>
  <fix>3d</fix>
</trkpt>
<trkpt lat="33.8106126" lon="-118.3937978">
  <ele>0.33</ele>
  <time>2026-09-02T22:09:10Z</time>
  <course>90.51</course>
  <speed>0.48</speed>
  <fix>3d</fix>
</trkpt>
<trkpt lat="33.8106123" lon="-118.3937969">
  <ele>-0.078</ele>
  <time>2026-09-02T22:09:10Z</time>
  <course>98.08</course>
  <speed>0.45044422518220834</speed>
  <fix>3d</fix>
</trkpt>
<trkpt lat="33.8106126" lon="-118.3937978">
  <ele>0.33</ele>
  <time>2026-09-02T22:09:10Z</time>
  <course>90.51</course>
  <speed>0.48</speed>
  <fix>3d</fix>
</trkpt>
<trkpt lat="33.8106123" lon="-118.3937964">
  <ele>-0.078</ele>
  <time>2026-09-02T22:09:10Z</time>
  <course>98.09</course>
  <speed>0.45044422518220834</speed>
  <fix>3d</fix>
</trkpt>
<trkpt lat="33.8106126" lon="-118.3937967">
  <ele>0.33</ele>
  <time>2026-09-02T22:09:10Z</time>
  <course>90.62</course>
  <speed>0.48</speed>
  <fix>3d</fix>
</trkpt>
<trkpt lat="33.8106123" lon="-118.3937958">
  <ele>-0.078</ele>
  <time>2026-09-02T22:09:10Z</time>
  <course>98.1</course>
  <speed>0.45044422518220834</speed>
  <fix>3d</fix>
</trkpt>
<trkpt lat="33.8106126" lon="-118.3937967">
  <ele>0.33</ele>
  <time>2026-09-02T22:09:10Z</time>
  <course>90.62</course>
  <speed>0.48</speed>
  <fix>3d</fix>
</trkpt>
<trkpt lat="33.8106123" lon="-118.3937953">
  <ele>-0.079</ele>
  <time>2026-09-02T22:09:10Z</time>
  <course>98.1</course>
  <speed>0.45044422518220834</speed>
  <fix>3d</fix>
</trkpt>
<trkpt lat="33.8106126" lon="-118.3937957">
  <ele>0.32</ele>
  <time>2026-09-02T22:09:10Z</time>
  <course>90.71</course>
  <speed>0.48</speed>
  <fix>3d</fix>
</trkpt>
<trkpt lat="33.8106123" lon="-118.3937948">
  <ele>-0.079</ele>
  <time>2026-09-02T22:09:10Z</time>
  <course>98.11</course>
  <speed>0.45044422518220834</speed>
  <fix>3d</fix>
</trkpt>
<trkpt lat="33.8106126" lon="-118.3937957">
  <ele>0.32</ele>
  <time>2026-09-02T22:09:10Z</time>
  <course>90.71</course>
  <speed>0.48</speed>
  <fix>3d</fix>
</trkpt>
<trkpt lat="33.8106123" lon="-118.3937942">
  <ele>-0.079</ele>
  <time>2026-09-02T22:09:10Z</time>
  <course>98.09</course>
  <speed>0.45044422518220834</speed>
  <fix>3d</fix>
</trkpt>
<trkpt lat="33.8106126" lon="-118.3937946">
  <ele>0.32</ele>
  <time>2026-09-02T22:09:10Z</time>
  <course>90.8</course>
  <speed>0.48</speed>
  <fix>3d</fix>
</trkpt>
<trkpt lat="33.8106123" lon="-118.3937937">
  <ele>-0.08</ele>
  <time>2026-09-02T22:09:10Z</time>
  <course>98.09</course>
  <speed>0.45044422518220834</speed>
  <fix>3d</fix>
</trkpt>
<trkpt lat="33.8106126" lon="-118.3937946">
  <ele>0.32</ele>
  <time>2026-09-02T22:09:10Z</time>
  <course>90.8</course>
  <speed>0.48</speed>
  <fix>3d</fix>
</trkpt>
<trkpt lat="33.8106123" lon="-118.3937932">
  <ele>-0.081</ele>
  <time>2026-09-02T22:09:10Z</time>
  <course>98.07</course>
  <speed>0.45044422518220834</speed>
  <fix>3d</fix>
</trkpt>
<trkpt lat="33.8106126" lon="-118.3937936">
  <ele>0.32</ele>
  <time>2026-09-02T22:09:10Z</time>
  <course>90.86</course>
  <speed>0.48</speed>
  <fix>3d</fix>
</trkpt>
<trkpt lat="33.8106123" lon="-118.3937927">
  <ele>-0.08</ele>
  <time>2026-09-02T22:09:10Z</time>
  <course>98.05</course>
  <speed>0.45044422518220834</speed>
  <fix>3d</fix>
</trkpt>
<trkpt lat="33.8106126" lon="-118.3937936">
  <ele>0.32</ele>
  <time>2026-09-02T22:09:10Z</time>
  <course>90.86</course>
  <speed>0.48</speed>
  <fix>3d</fix>
</trkpt>
<trkpt lat="33.8106123" lon="-118.3937921">
  <ele>-0.08</ele>
  <time>2026-09-02T22:09:10Z</time>
  <course>98.02</course>
  <speed>0.45044422518220834</speed>
  <fix>3d</fix>
</trkpt>
<trkpt lat="33.8106126" lon="-118.3937925">
  <ele>0.32</ele>
  <time>2026-09-02T22:09:10Z</time>
  <course>90.91</course>
  <speed>0.48</speed>
  <fix>3d</fix>
</trkpt>
<trkpt lat="33.8106123" lon="-118.3937916">
  <ele>-0.08</ele>
  <time>2026-09-02T22:09:10Z</time>
  <course>97.99</course>
  <speed>0.44045431091090476</speed>
  <fix>3d</fix>
</trkpt>
<trkpt lat="33.8106126" lon="-118.3937925">
  <ele>0.32</ele>
  <time>2026-09-02T22:09:10Z</time>
  <course>90.91</course>
  <speed>0.48</speed>
  <fix>3d</fix>
</trkpt>
<trkpt lat="33.8106123" lon="-118.3937911">
  <ele>-0.081</ele>
  <time>2026-09-02T22:09:10Z</time>
  <course>97.96</course>
  <speed>0.45044422518220834</speed>
  <fix>3d</fix>
</trkpt>
<trkpt lat="33.8106126" lon="-118.3937915">
  <ele>0.32</ele>
  <time>2026-09-02T22:09:10Z</time>
  <course>91.0</course>
  <speed>0.48</speed>
  <fix>3d</fix>
</trkpt>
<trkpt lat="33.8106123" lon="-118.3937906">
  <ele>-0.081</ele>
  <time>2026-09-02T22:09:10Z</time>
  <course>97.93</course>
  <speed>0.44045431091090476</speed>
  <fix>3d</fix>
</trkpt>
<trkpt lat="33.8106126" lon="-118.3937915">
  <ele>0.32</ele>
  <time>2026-09-02T22:09:10Z</time>
  <course>91.0</course>
  <speed>0.48</speed>
  <fix>3d</fix>
</trkpt>
<trkpt lat="33.8106123" lon="-118.3937901">
  <ele>-0.081</ele>
  <time>2026-09-02T22:09:10Z</time>
  <course>97.9</course>
  <speed>0.44045431091090476</speed>
  <fix>3d</fix>
</trkpt>
<trkpt lat="33.8106126" lon="-118.3937904">
  <ele>0.31</ele>
  <time>2026-09-02T22:09:10Z</time>
  <course>91.09</course>
  <speed>0.48</speed>
  <fix>3d</fix>
</trkpt>
<trkpt lat="33.8106123" lon="-118.3937895">
  <ele>-0.083</ele>
  <time>2026-09-02T22:09:10Z</time>
  <course>97.86</course>
  <speed>0.44045431091090476</speed>
  <fix>3d</fix>
</trkpt>
<trkpt lat="33.8106126" lon="-118.3937904">
  <ele>0.31</ele>
  <time>2026-09-02T22:09:10Z</time>
  <course>91.09</course>
  <speed>0.48</speed>
  <fix>3d</fix>
</trkpt>
<trkpt lat="33.8106123" lon="-118.393789">
  <ele>-0.084</ele>
  <time>2026-09-02T22:09:10Z</time>
  <course>97.82</course>
  <speed>0.45044422518220834</speed>
  <fix>3d</fix>
</trkpt>
<trkpt lat="33.8106125" lon="-118.3937894">
  <ele>0.31</ele>
  <time>2026-09-02T22:09:10Z</time>
  <course>91.18</course>
  <speed>0.48</speed>
  <fix>3d</fix>
</trkpt>
<trkpt lat="33.8106123" lon="-118.3937885">
  <ele>-0.085</ele>
  <time>2026-09-02T22:09:10Z</time>
  <course>97.78</course>
  <speed>0.45044422518220834</speed>
  <fix>3d</fix>
</trkpt>
<trkpt lat="33.8106125" lon="-118.3937894">
  <ele>0.31</ele>
  <time>2026-09-02T22:09:10Z</time>
  <course>91.18</course>
  <speed>0.48</speed>
  <fix>3d</fix>
</trkpt>
<trkpt lat="33.8106123" lon="-118.393788">
  <ele>-0.087</ele>
  <time>2026-09-02T22:09:10Z</time>
  <course>97.7</course>
  <speed>0.45044422518220834</speed>
  <fix>3d</fix>
</trkpt>
<trkpt lat="33.8106125" lon="-118.3937883">
  <ele>0.31</ele>
  <time>2026-09-02T22:09:10Z</time>
  <course>91.15</course>
  <speed>0.48</speed>
  <fix>3d</fix>
</trkpt>
<trkpt lat="33.8106123" lon="-118.3937874">
  <ele>-0.088</ele>
  <time>2026-09-02T22:09:10Z</time>
  <course>97.61</course>
  <speed>0.45044422518220834</speed>
  <fix>3d</fix>
</trkpt>
<trkpt lat="33.8106125" lon="-118.3937883">
  <ele>0.31</ele>
  <time>2026-09-02T22:09:10Z</time>
  <course>91.15</course>
  <speed>0.48</speed>
  <fix>3d</fix>
</trkpt>
<trkpt lat="33.8106123" lon="-118.3937869">
  <ele>-0.089</ele>
  <time>2026-09-02T22:09:10Z</time>
  <course>97.49</course>
  <speed>0.45044422518220834</speed>
  <fix>3d</fix>
</trkpt>
<trkpt lat="33.8106125" lon="-118.3937872">
  <ele>0.31</ele>
  <time>2026-09-02T22:09:10Z</time>
  <course>91.01</course>
  <speed>0.48</speed>
  <fix>3d</fix>
</trkpt>
<trkpt lat="33.8106123" lon="-118.3937864">
  <ele>-0.091</ele>
  <time>2026-09-02T22:09:10Z</time>
  <course>97.39</course>
  <speed>0.45044422518220834</speed>
  <fix>3d</fix>
</trkpt>
<trkpt lat="33.8106125" lon="-118.3937872">
  <ele>0.31</ele>
  <time>2026-09-02T22:09:10Z</time>
  <course>91.01</course>
  <speed>0.48</speed>
  <fix>3d</fix>
</trkpt>
<trkpt lat="33.8106123" lon="-118.3937858">
  <ele>-0.093</ele>
  <time>2026-09-02T22:09:10Z</time>
  <course>97.28</course>
  <speed>0.45044422518220834</speed>
  <fix>3d</fix>
</trkpt>
<trkpt lat="33.8106125" lon="-118.3937862">
  <ele>0.3</ele>
  <time>2026-09-02T22:09:10Z</time>
  <course>90.87</course>
  <speed>0.48</speed>
  <fix>3d</fix>
</trkpt>
<trkpt lat="33.8106123" lon="-118.3937853">
  <ele>-0.096</ele>
  <time>2026-09-02T22:09:10Z</time>
  <course>97.2</course>
  <speed>0.45044422518220834</speed>
  <fix>3d</fix>
</trkpt>
<trkpt lat="33.8106125" lon="-118.3937862">
  <ele>0.3</ele>
  <time>2026-09-02T22:09:10Z</time>
  <course>90.87</course>
  <speed>0.48</speed>
  <fix>3d</fix>
</trkpt>
<trkpt lat="33.8106123" lon="-118.3937848">
  <ele>-0.099</ele>
  <time>2026-09-02T22:09:10Z</time>
  <course>97.11</course>
  <speed>0.45044422518220834</speed>
  <fix>3d</fix>
</trkpt>
<trkpt lat="33.8106125" lon="-118.3937851">
  <ele>0.3</ele>
  <time>2026-09-02T22:09:10Z</time>
  <course>90.79</course>
  <speed>0.48</speed>
  <fix>3d</fix>
</trkpt>
<trkpt lat="33.8106123" lon="-118.3937843">
  <ele>-0.1</ele>
  <time>2026-09-02T22:09:10Z</time>
  <course>97.04</course>
  <speed>0.45044422518220834</speed>
  <fix>3d</fix>
</trkpt>
<trkpt lat="33.8106125" lon="-118.3937851">
  <ele>0.3</ele>
  <time>2026-09-02T22:09:10Z</time>
  <course>90.79</course>
  <speed>0.48</speed>
  <fix>3d</fix>
</trkpt>
<trkpt lat="33.8106123" lon="-118.3937837">
  <ele>-0.101</ele>
  <time>2026-09-02T22:09:10Z</time>
  <course>96.98</course>
  <speed>0.45044422518220834</speed>
  <fix>3d</fix>
</trkpt>
<trkpt lat="33.8106125" lon="-118.3937841">
  <ele>0.3</ele>
  <time>2026-09-02T22:09:10Z</time>
  <course>90.74</course>
  <speed>0.48</speed>
  <fix>3d</fix>
</trkpt>
<trkpt lat="33.8106123" lon="-118.3937832">
  <ele>-0.103</ele>
  <time>2026-09-02T22:09:10Z</time>
  <course>96.91</course>
  <speed>0.44045431091090476</speed>
  <fix>3d</fix>
</trkpt>
<trkpt lat="33.8106125" lon="-118.3937841">
  <ele>0.3</ele>
  <time>2026-09-02T22:09:10Z</time>
  <course>90.74</course>
  <speed>0.48</speed>
  <fix>3d</fix>
</trkpt>
<trkpt lat="33.8106123" lon="-118.3937827">
  <ele>-0.106</ele>
  <time>2026-09-02T22:09:10Z</time>
  <course>96.85</course>
  <speed>0.45044422518220834</speed>
  <fix>3d</fix>
</trkpt>
<trkpt lat="33.8106125" lon="-118.393783">
  <ele>0.29</ele>
  <time>2026-09-02T22:09:10Z</time>
  <course>90.72</course>
  <speed>0.48</speed>
  <fix>3d</fix>
</trkpt>
<trkpt lat="33.8106123" lon="-118.3937822">
  <ele>-0.108</ele>
  <time>2026-09-02T22:09:10Z</time>
  <course>96.8</course>
  <speed>0.45044422518220834</speed>
  <fix>3d</fix>
</trkpt>
<trkpt lat="33.8106125" lon="-118.393783">
  <ele>0.29</ele>
  <time>2026-09-02T22:09:10Z</time>
  <course>90.72</course>
  <speed>0.48</speed>
  <fix>3d</fix>
</trkpt>
<trkpt lat="33.8106123" lon="-118.3937816">
  <ele>-0.111</ele>
  <time>2026-09-02T22:09:10Z</time>
  <course>96.75</course>
  <speed>0.45044422518220834</speed>
  <fix>3d</fix>
</trkpt>
<trkpt lat="33.8106124" lon="-118.3937819">
  <ele>0.29</ele>
  <time>2026-09-02T22:09:10Z</time>
  <course>90.72</course>
  <speed>0.48</speed>
  <fix>3d</fix>
</trkpt>
<trkpt lat="33.8106123" lon="-118.3937811">
  <ele>-0.114</ele>
  <time>2026-09-02T22:09:10Z</time>
  <course>96.7</course>
  <speed>0.45044422518220834</speed>
  <fix>3d</fix>
</trkpt>
<trkpt lat="33.8106124" lon="-118.3937819">
  <ele>0.29</ele>
  <time>2026-09-02T22:09:10Z</time>
  <course>90.72</course>
  <speed>0.48</speed>
  <fix>3d</fix>
</trkpt>
<trkpt lat="33.8106123" lon="-118.3937806">
  <ele>-0.116</ele>
  <time>2026-09-02T22:09:10Z</time>
  <course>96.63</course>
  <speed>0.45044422518220834</speed>
  <fix>3d</fix>
</trkpt>
<trkpt lat="33.8106123" lon="-118.3937809">
  <ele>0.29</ele>
  <time>2026-09-02T22:09:10Z</time>
  <course>90.64</course>
  <speed>0.48</speed>
  <fix>3d</fix>
</trkpt>
<trkpt lat="33.8106123" lon="-118.39378">
  <ele>-0.118</ele>
  <time>2026-09-02T22:09:10Z</time>
  <course>96.5</course>
  <speed>0.45044422518220834</speed>
  <fix>3d</fix>
</trkpt>
<trkpt lat="33.8106123" lon="-118.3937809">
  <ele>0.29</ele>
  <time>2026-09-02T22:09:10Z</time>
  <course>90.64</course>
  <speed>0.48</speed>
  <fix>3d</fix>
</trkpt>
<trkpt lat="33.8106123" lon="-118.3937795">
  <ele>-0.121</ele>
  <time>2026-09-02T22:09:10Z</time>
  <course>96.33</course>
  <speed>0.450111097397076</speed>
  <fix>3d</fix>
</trkpt>
<trkpt lat="33.8106123" lon="-118.3937799">
  <ele>0.28</ele>
  <time>2026-09-02T22:09:10Z</time>
  <course>90.4</course>
  <speed>0.48</speed>
  <fix>3d</fix>
</trkpt>
<trkpt lat="33.8106123" lon="-118.393779">
  <ele>-0.123</ele>
  <time>2026-09-02T22:09:10Z</time>
  <course>96.14</course>
  <speed>0.450111097397076</speed>
  <fix>3d</fix>
</trkpt>
<trkpt lat="33.8106123" lon="-118.3937799">
  <ele>0.28</ele>
  <time>2026-09-02T22:09:10Z</time>
  <course>90.4</course>
  <speed>0.48</speed>
  <fix>3d</fix>
</trkpt>
<trkpt lat="33.8106123" lon="-118.3937785">
  <ele>-0.125</ele>
  <time>2026-09-02T22:09:10Z</time>
  <course>95.93</course>
  <speed>0.450111097397076</speed>
  <fix>3d</fix>
</trkpt>
<trkpt lat="33.8106123" lon="-118.3937788">
  <ele>0.28</ele>
  <time>2026-09-02T22:09:10Z</time>
  <course>90.09</course>
  <speed>0.48</speed>
  <fix>3d</fix>
</trkpt>
<trkpt lat="33.8106123" lon="-118.3937779">
  <ele>-0.127</ele>
  <time>2026-09-02T22:09:10Z</time>
  <course>95.74</course>
  <speed>0.450111097397076</speed>
  <fix>3d</fix>
</trkpt>
<trkpt lat="33.8106123" lon="-118.3937788">
  <ele>0.28</ele>
  <time>2026-09-02T22:09:10Z</time>
  <course>90.09</course>
  <speed>0.48</speed>
  <fix>3d</fix>
</trkpt>
<trkpt lat="33.8106123" lon="-118.3937774">
  <ele>-0.129</ele>
  <time>2026-09-02T22:09:10Z</time>
  <course>95.54</course>
  <speed>0.450111097397076</speed>
  <fix>3d</fix>
</trkpt>
<trkpt lat="33.8106123" lon="-118.3937777">
  <ele>0.27</ele>
  <time>2026-09-02T22:09:10Z</time>
  <course>89.85</course>
  <speed>0.48</speed>
  <fix>3d</fix>
</trkpt>
<trkpt lat="33.8106123" lon="-118.3937769">
  <ele>-0.13</ele>
  <time>2026-09-02T22:09:10Z</time>
  <course>95.38</course>
  <speed>0.450111097397076</speed>
  <fix>3d</fix>
</trkpt>
<trkpt lat="33.8106123" lon="-118.3937777">
  <ele>0.27</ele>
  <time>2026-09-02T22:09:10Z</time>
  <course>89.85</course>
  <speed>0.48</speed>
  <fix>3d</fix>
</trkpt>
<trkpt lat="33.8106123" lon="-118.3937763">
  <ele>-0.131</ele>
  <time>2026-09-02T22:09:10Z</time>
  <course>95.23</course>
  <speed>0.450111097397076</speed>
  <fix>3d</fix>
</trkpt>
<trkpt lat="33.8106123" lon="-118.3937767">
  <ele>0.27</ele>
  <time>2026-09-02T22:09:10Z</time>
  <course>89.69</course>
  <speed>0.48</speed>
  <fix>3d</fix>
</trkpt>
<trkpt lat="33.8106123" lon="-118.3937758">
  <ele>-0.133</ele>
  <time>2026-09-02T22:09:10Z</time>
  <course>95.1</course>
  <speed>0.450111097397076</speed>
  <fix>3d</fix>
</trkpt>
<trkpt lat="33.8106123" lon="-118.3937767">
  <ele>0.27</ele>
  <time>2026-09-02T22:09:10Z</time>
  <course>89.69</course>
  <speed>0.48</speed>
  <fix>3d</fix>
</trkpt>
<trkpt lat="33.8106123" lon="-118.3937753">
  <ele>-0.135</ele>
  <time>2026-09-02T22:09:10Z</time>
  <course>94.97</course>
  <speed>0.450111097397076</speed>
  <fix>3d</fix>
</trkpt>
<trkpt lat="33.8106123" lon="-118.3937756">
  <ele>0.27</ele>
  <time>2026-09-02T22:09:10Z</time>
  <course>89.56</course>
  <speed>0.48</speed>
  <fix>3d</fix>
</trkpt>
<trkpt lat="33.8106123" lon="-118.3937748">
  <ele>-0.137</ele>
  <time>2026-09-02T22:09:10Z</time>
  <course>94.88</course>
  <speed>0.450111097397076</speed>
  <fix>3d</fix>
</trkpt>
<trkpt lat="33.8106123" lon="-118.3937756">
  <ele>0.27</ele>
  <time>2026-09-02T22:09:10Z</time>
  <course>89.56</course>
  <speed>0.48</speed>
  <fix>3d</fix>
</trkpt>
<trkpt lat="33.8106123" lon="-118.3937742">
  <ele>-0.14</ele>
  <time>2026-09-02T22:09:10Z</time>
  <course>94.78</course>
  <speed>0.450111097397076</speed>
  <fix>3d</fix>
</trkpt>
<trkpt lat="33.8106123" lon="-118.3937746">
  <ele>0.26</ele>
  <time>2026-09-02T22:09:10Z</time>
  <course>89.42</course>
  <speed>0.48</speed>
  <fix>3d</fix>
</trkpt>
<trkpt lat="33.8106123" lon="-118.3937737">
  <ele>-0.144</ele>
  <time>2026-09-02T22:09:10Z</time>
  <course>94.72</course>
  <speed>0.450111097397076</speed>
  <fix>3d</fix>
</trkpt>
<trkpt lat="33.8106123" lon="-118.3937746">
  <ele>0.26</ele>
  <time>2026-09-02T22:09:10Z</time>
  <course>89.42</course>
  <speed>0.48</speed>
  <fix>3d</fix>
</trkpt>
<trkpt lat="33.8106123" lon="-118.3937732">
  <ele>-0.147</ele>
  <time>2026-09-02T22:09:10Z</time>
  <course>94.65</course>
  <speed>0.450111097397076</speed>
  <fix>3d</fix>
</trkpt>
<trkpt lat="33.8106123" lon="-118.3937735">
  <ele>0.26</ele>
  <time>2026-09-02T22:09:10Z</time>
  <course>89.29</course>
  <speed>0.48</speed>
  <fix>3d</fix>
</trkpt>
<trkpt lat="33.8106122" lon="-118.3937726">
  <ele>-0.15</ele>
  <time>2026-09-02T22:09:10Z</time>
  <course>94.63</course>
  <speed>0.450111097397076</speed>
  <fix>3d</fix>
</trkpt>
<trkpt lat="33.8106123" lon="-118.3937735">
  <ele>0.26</ele>
  <time>2026-09-02T22:09:10Z</time>
  <course>89.29</course>
  <speed>0.48</speed>
  <fix>3d</fix>
</trkpt>
<trkpt lat="33.8106122" lon="-118.3937721">
  <ele>-0.153</ele>
  <time>2026-09-02T22:09:10Z</time>
  <course>94.59</course>
  <speed>0.450111097397076</speed>
  <fix>3d</fix>
</trkpt>
<trkpt lat="33.8106123" lon="-118.3937725">
  <ele>0.25</ele>
  <time>2026-09-02T22:09:10Z</time>
  <course>89.16</course>
  <speed>0.48</speed>
  <fix>3d</fix>
</trkpt>
<trkpt lat="33.8106122" lon="-118.3937716">
  <ele>-0.155</ele>
  <time>2026-09-02T22:09:10Z</time>
  <course>94.59</course>
  <speed>0.450111097397076</speed>
  <fix>3d</fix>
</trkpt>
<trkpt lat="33.8106123" lon="-118.3937725">
  <ele>0.25</ele>
  <time>2026-09-02T22:09:10Z</time>
  <course>89.16</course>
  <speed>0.48</speed>
  <fix>3d</fix>
</trkpt>
<trkpt lat="33.8106122" lon="-118.3937711">
  <ele>-0.157</ele>
  <time>2026-09-02T22:09:10Z</time>
  <course>94.57</course>
  <speed>0.450111097397076</speed>
  <fix>3d</fix>
</trkpt>
<trkpt lat="33.8106123" lon="-118.3937714">
  <ele>0.25</ele>
  <time>2026-09-02T22:09:10Z</time>
  <course>89.03</course>
  <speed>0.48</speed>
  <fix>3d</fix>
</trkpt>
<trkpt lat="33.8106123" lon="-118.3937705">
  <ele>-0.16</ele>
  <time>2026-09-02T22:09:10Z</time>
  <course>94.59</course>
  <speed>0.450111097397076</speed>
  <fix>3d</fix>
</trkpt>
<trkpt lat="33.8106123" lon="-118.3937714">
  <ele>0.25</ele>
  <time>2026-09-02T22:09:10Z</time>
  <course>89.03</course>
  <speed>0.48</speed>
  <fix>3d</fix>
</trkpt>
<trkpt lat="33.8106123" lon="-118.39377">
  <ele>-0.163</ele>
  <time>2026-09-02T22:09:10Z</time>
  <course>94.6</course>
  <speed>0.450111097397076</speed>
  <fix>3d</fix>
</trkpt>
<trkpt lat="33.8106123" lon="-118.3937703">
  <ele>0.24</ele>
  <time>2026-09-02T22:09:10Z</time>
  <course>88.9</course>
  <speed>0.48</speed>
  <fix>3d</fix>
</trkpt>
<trkpt lat="33.8106123" lon="-118.3937695">
  <ele>-0.166</ele>
  <time>2026-09-02T22:09:10Z</time>
  <course>94.64</course>
  <speed>0.450111097397076</speed>
  <fix>3d</fix>
</trkpt>
<trkpt lat="33.8106123" lon="-118.3937703">
  <ele>0.24</ele>
  <time>2026-09-02T22:09:10Z</time>
  <course>88.9</course>
  <speed>0.48</speed>
  <fix>3d</fix>
</trkpt>
<trkpt lat="33.8106123" lon="-118.3937689">
  <ele>-0.169</ele>
  <time>2026-09-02T22:09:10Z</time>
  <course>94.66</course>
  <speed>0.450111097397076</speed>
  <fix>3d</fix>
</trkpt>
<trkpt lat="33.8106123" lon="-118.3937693">
  <ele>0.24</ele>
  <time>2026-09-02T22:09:10Z</time>
  <course>88.78</course>
  <speed>0.48</speed>
  <fix>3d</fix>
</trkpt>
<trkpt lat="33.8106123" lon="-118.3937684">
  <ele>-0.171</ele>
  <time>2026-09-02T22:09:10Z</time>
  <course>94.71</course>
  <speed>0.450111097397076</speed>
  <fix>3d</fix>
</trkpt>
<trkpt lat="33.8106123" lon="-118.3937693">
  <ele>0.24</ele>
  <time>2026-09-02T22:09:10Z</time>
  <course>88.78</course>
  <speed>0.48</speed>
  <fix>3d</fix>
</trkpt>
<trkpt lat="33.8106123" lon="-118.3937679">
  <ele>-0.173</ele>
  <time>2026-09-02T22:09:10Z</time>
  <course>94.75</course>
  <speed>0.450111097397076</speed>
  <fix>3d</fix>
</trkpt>
<trkpt lat="33.8106123" lon="-118.3937682">
  <ele>0.24</ele>
  <time>2026-09-02T22:09:10Z</time>
  <course>88.68</course>
  <speed>0.48</speed>
  <fix>3d</fix>
</trkpt>
<trkpt lat="33.8106123" lon="-118.3937673">
  <ele>-0.174</ele>
  <time>2026-09-02T22:09:10Z</time>
  <course>94.8</course>
  <speed>0.450111097397076</speed>
  <fix>3d</fix>
</trkpt>
<trkpt lat="33.8106123" lon="-118.3937682">
  <ele>0.24</ele>
  <time>2026-09-02T22:09:10Z</time>
  <course>88.68</course>
  <speed>0.48</speed>
  <fix>3d</fix>
</trkpt>
<trkpt lat="33.8106123" lon="-118.3937668">
  <ele>-0.176</ele>
  <time>2026-09-02T22:09:10Z</time>
  <course>94.84</course>
  <speed>0.450111097397076</speed>
  <fix>3d</fix>
</trkpt>
<trkpt lat="33.8106124" lon="-118.3937672">
  <ele>0.23</ele>
  <time>2026-09-02T22:09:10Z</time>
  <course>88.58</course>
  <speed>0.48</speed>
  <fix>3d</fix>
</trkpt>
<trkpt lat="33.8106123" lon="-118.3937663">
  <ele>-0.178</ele>
  <time>2026-09-02T22:09:10Z</time>
  <course>94.93</course>
  <speed>0.450111097397076</speed>
  <fix>3d</fix>
</trkpt>
<trkpt lat="33.8106124" lon="-118.3937672">
  <ele>0.23</ele>
  <time>2026-09-02T22:09:10Z</time>
  <course>88.58</course>
  <speed>0.48</speed>
  <fix>3d</fix>
</trkpt>
<trkpt lat="33.8106123" lon="-118.3937658">
  <ele>-0.18</ele>
  <time>2026-09-02T22:09:10Z</time>
  <course>95.04</course>
  <speed>0.450111097397076</speed>
  <fix>3d</fix>
</trkpt>
<trkpt lat="33.8106125" lon="-118.3937661">
  <ele>0.23</ele>
  <time>2026-09-02T22:09:10Z</time>
  <course>88.53</course>
  <speed>0.48</speed>
  <fix>3d</fix>
</trkpt>
<trkpt lat="33.8106123" lon="-118.3937652">
  <ele>-0.182</ele>
  <time>2026-09-02T22:09:10Z</time>
  <course>95.15</course>
  <speed>0.450111097397076</speed>
  <fix>3d</fix>
</trkpt>
<trkpt lat="33.8106125" lon="-118.3937661">
  <ele>0.23</ele>
  <time>2026-09-02T22:09:10Z</time>
  <course>88.53</course>
  <speed>0.48</speed>
  <fix>3d</fix>
</trkpt>
<trkpt lat="33.8106123" lon="-118.3937647">
  <ele>-0.183</ele>
  <time>2026-09-02T22:09:10Z</time>
  <course>95.29</course>
  <speed>0.450111097397076</speed>
  <fix>3d</fix>
</trkpt>
<trkpt lat="33.8106125" lon="-118.3937651">
  <ele>0.22</ele>
  <time>2026-09-02T22:09:10Z</time>
  <course>88.72</course>
  <speed>0.48</speed>
  <fix>3d</fix>
</trkpt>
<trkpt lat="33.8106123" lon="-118.3937642">
  <ele>-0.184</ele>
  <time>2026-09-02T22:09:10Z</time>
  <course>95.43</course>
  <speed>0.450111097397076</speed>
  <fix>3d</fix>
</trkpt>
<trkpt lat="33.8106125" lon="-118.3937651">
  <ele>0.22</ele>
  <time>2026-09-02T22:09:10Z</time>
  <course>88.72</course>
  <speed>0.48</speed>
  <fix>3d</fix>
</trkpt>
<trkpt lat="33.8106123" lon="-118.3937636">
  <ele>-0.185</ele>
  <time>2026-09-02T22:09:10Z</time>
  <course>95.57</course>
  <speed>0.450111097397076</speed>
  <fix>3d</fix>
</trkpt>
<trkpt lat="33.8106125" lon="-118.393764">
  <ele>0.22</ele>
  <time>2026-09-02T22:09:10Z</time>
  <course>89.1</course>
  <speed>0.48</speed>
  <fix>3d</fix>
</trkpt>
<trkpt lat="33.8106123" lon="-118.3937631">
  <ele>-0.188</ele>
  <time>2026-09-02T22:09:10Z</time>
  <course>95.69</course>
  <speed>0.45044422518220834</speed>
  <fix>3d</fix>
</trkpt>
<trkpt lat="33.8106125" lon="-118.393764">
  <ele>0.22</ele>
  <time>2026-09-02T22:09:10Z</time>
  <course>89.1</course>
  <speed>0.48</speed>
  <fix>3d</fix>
</trkpt>
<trkpt lat="33.8106123" lon="-118.3937626">
  <ele>-0.191</ele>
  <time>2026-09-02T22:09:10Z</time>
  <course>95.81</course>
  <speed>0.45044422518220834</speed>
  <fix>3d</fix>
</trkpt>
<trkpt lat="33.8106125" lon="-118.393763">
  <ele>0.21</ele>
  <time>2026-09-02T22:09:10Z</time>
  <course>89.47</course>
  <speed>0.48</speed>
  <fix>3d</fix>
</trkpt>
<trkpt lat="33.8106123" lon="-118.3937621">
  <ele>-0.194</ele>
  <time>2026-09-02T22:09:10Z</time>
  <course>95.89</course>
  <speed>0.45044422518220834</speed>
  <fix>3d</fix>
</trkpt>
<trkpt lat="33.8106125" lon="-118.393763">
  <ele>0.21</ele>
  <time>2026-09-02T22:09:10Z</time>
  <course>89.47</course>
  <speed>0.48</speed>
  <fix>3d</fix>
</trkpt>
<trkpt lat="33.8106123" lon="-118.3937615">
  <ele>-0.195</ele>
  <time>2026-09-02T22:09:10Z</time>
  <course>95.96</course>
  <speed>0.45044422518220834</speed>
  <fix>3d</fix>
</trkpt>
<trkpt lat="33.8106125" lon="-118.3937619">
  <ele>0.21</ele>
  <time>2026-09-02T22:09:10Z</time>
  <course>89.76</course>
  <speed>0.48</speed>
  <fix>3d</fix>
</trkpt>
<trkpt lat="33.8106123" lon="-118.393761">
  <ele>-0.197</ele>
  <time>2026-09-02T22:09:10Z</time>
  <course>96.0</course>
  <speed>0.45044422518220834</speed>
  <fix>3d</fix>
</trkpt>
<trkpt lat="33.8106125" lon="-118.3937619">
  <ele>0.21</ele>
  <time>2026-09-02T22:09:10Z</time>
  <course>89.76</course>
  <speed>0.48</speed>
  <fix>3d</fix>
</trkpt>
<trkpt lat="33.8106123" lon="-118.3937605">
  <ele>-0.2</ele>
  <time>2026-09-02T22:09:10Z</time>
  <course>96.04</course>
  <speed>0.45044422518220834</speed>
  <fix>3d</fix>
</trkpt>
<trkpt lat="33.8106125" lon="-118.3937609">
  <ele>0.2</ele>
  <time>2026-09-02T22:09:10Z</time>
  <course>89.94</course>
  <speed>0.48</speed>
  <fix>3d</fix>
</trkpt>
<trkpt lat="33.8106123" lon="-118.39376">
  <ele>-0.202</ele>
  <time>2026-09-02T22:09:10Z</time>
  <course>96.05</course>
  <speed>0.45044422518220834</speed>
  <fix>3d</fix>
</trkpt>
<trkpt lat="33.8106125" lon="-118.3937609">
  <ele>0.2</ele>
  <time>2026-09-02T22:09:10Z</time>
  <course>89.94</course>
  <speed>0.48</speed>
  <fix>3d</fix>
</trkpt>
<trkpt lat="33.8106123" lon="-118.3937594">
  <ele>-0.206</ele>
  <time>2026-09-02T22:09:10Z</time>
  <course>96.07</course>
  <speed>0.45044422518220834</speed>
  <fix>3d</fix>
</trkpt>
<trkpt lat="33.8106125" lon="-118.3937598">
  <ele>0.2</ele>
  <time>2026-09-02T22:09:10Z</time>
  <course>90.06</course>
  <speed>0.48</speed>
  <fix>3d</fix>
</trkpt>
<trkpt lat="33.8106123" lon="-118.3937589">
  <ele>-0.208</ele>
  <time>2026-09-02T22:09:10Z</time>
  <course>96.06</course>
  <speed>0.45044422518220834</speed>
  <fix>3d</fix>
</trkpt>
<trkpt lat="33.8106125" lon="-118.3937598">
  <ele>0.2</ele>
  <time>2026-09-02T22:09:10Z</time>
  <course>90.06</course>
  <speed>0.48</speed>
  <fix>3d</fix>
</trkpt>
<trkpt lat="33.8106123" lon="-118.3937584">
  <ele>-0.212</ele>
  <time>2026-09-02T22:09:10Z</time>
  <course>96.06</course>
  <speed>0.45044422518220834</speed>
  <fix>3d</fix>
</trkpt>
<trkpt lat="33.8106125" lon="-118.3937588">
  <ele>0.19</ele>
  <time>2026-09-02T22:09:10Z</time>
  <course>90.15</course>
  <speed>0.48</speed>
  <fix>3d</fix>
</trkpt>
<trkpt lat="33.8106123" lon="-118.3937578">
  <ele>-0.216</ele>
  <time>2026-09-02T22:09:10Z</time>
  <course>96.04</course>
  <speed>0.45044422518220834</speed>
  <fix>3d</fix>
</trkpt>
<trkpt lat="33.8106125" lon="-118.3937588">
  <ele>0.19</ele>
  <time>2026-09-02T22:09:10Z</time>
  <course>90.15</course>
  <speed>0.48</speed>
  <fix>3d</fix>
</trkpt>
<trkpt lat="33.8106123" lon="-118.3937573">
  <ele>-0.221</ele>
  <time>2026-09-02T22:09:10Z</time>
  <course>96.03</course>
  <speed>0.45044422518220834</speed>
  <fix>3d</fix>
</trkpt>
<trkpt lat="33.8106125" lon="-118.3937577">
  <ele>0.19</ele>
  <time>2026-09-02T22:09:10Z</time>
  <course>90.22</course>
  <speed>0.48</speed>
  <fix>3d</fix>
</trkpt>
<trkpt lat="33.8106123" lon="-118.3937568">
  <ele>-0.226</ele>
  <time>2026-09-02T22:09:10Z</time>
  <course>96.01</course>
  <speed>0.45044422518220834</speed>
  <fix>3d</fix>
</trkpt>
<trkpt lat="33.8106125" lon="-118.3937577">
  <ele>0.19</ele>
  <time>2026-09-02T22:09:10Z</time>
  <course>90.22</course>
  <speed>0.48</speed>
  <fix>3d</fix>
</trkpt>
<trkpt lat="33.8106123" lon="-118.3937563">
  <ele>-0.23</ele>
  <time>2026-09-02T22:09:10Z</time>
  <course>95.99</course>
  <speed>0.45044422518220834</speed>
  <fix>3d</fix>
</trkpt>
<trkpt lat="33.8106125" lon="-118.3937567">
  <ele>0.18</ele>
  <time>2026-09-02T22:09:10Z</time>
  <course>90.28</course>
  <speed>0.48</speed>
  <fix>3d</fix>
</trkpt>
<trkpt lat="33.8106123" lon="-118.3937557">
  <ele>-0.234</ele>
  <time>2026-09-02T22:09:10Z</time>
  <course>95.96</course>
  <speed>0.45044422518220834</speed>
  <fix>3d</fix>
</trkpt>
<trkpt lat="33.8106125" lon="-118.3937567">
  <ele>0.18</ele>
  <time>2026-09-02T22:09:10Z</time>
  <course>90.28</course>
  <speed>0.48</speed>
  <fix>3d</fix>
</trkpt>
<trkpt lat="33.8106123" lon="-118.3937552">
  <ele>-0.238</ele>
  <time>2026-09-02T22:09:10Z</time>
  <course>95.94</course>
  <speed>0.45044422518220834</speed>
  <fix>3d</fix>
</trkpt>
<trkpt lat="33.8106125" lon="-118.3937556">
  <ele>0.18</ele>
  <time>2026-09-02T22:09:10Z</time>
  <course>90.33</course>
  <speed>0.48</speed>
  <fix>3d</fix>
</trkpt>
<trkpt lat="33.8106123" lon="-118.3937547">
  <ele>-0.241</ele>
  <time>2026-09-02T22:09:10Z</time>
  <course>95.91</course>
  <speed>0.45044422518220834</speed>
  <fix>3d</fix>
</trkpt>
<trkpt lat="33.8106125" lon="-118.3937556">
  <ele>0.18</ele>
  <time>2026-09-02T22:09:10Z</time>
  <course>90.33</course>
  <speed>0.48</speed>
  <fix>3d</fix>
</trkpt>
<trkpt lat="33.8106123" lon="-118.3937542">
  <ele>-0.243</ele>
  <time>2026-09-02T22:09:10Z</time>
  <course>95.89</course>
  <speed>0.45044422518220834</speed>
  <fix>3d</fix>
</trkpt>
<trkpt lat="33.8106125" lon="-118.3937546">
  <ele>0.17</ele>
  <time>2026-09-02T22:09:10Z</time>
  <course>90.39</course>
  <speed>0.48</speed>
  <fix>3d</fix>
</trkpt>
<trkpt lat="33.8106123" lon="-118.3937536">
  <ele>-0.246</ele>
  <time>2026-09-02T22:09:10Z</time>
  <course>95.86</course>
  <speed>0.45044422518220834</speed>
  <fix>3d</fix>
</trkpt>
<trkpt lat="33.8106125" lon="-118.3937546">
  <ele>0.17</ele>
  <time>2026-09-02T22:09:10Z</time>
  <course>90.39</course>
  <speed>0.48</speed>
  <fix>3d</fix>
</trkpt>
<trkpt lat="33.8106123" lon="-118.3937531">
  <ele>-0.249</ele>
  <time>2026-09-02T22:09:10Z</time>
  <course>95.84</course>
  <speed>0.45044422518220834</speed>
  <fix>3d</fix>
</trkpt>
<trkpt lat="33.8106125" lon="-118.3937535">
  <ele>0.17</ele>
  <time>2026-09-02T22:09:10Z</time>
  <course>90.43</course>
  <speed>0.48</speed>
  <fix>3d</fix>
</trkpt>
<trkpt lat="33.8106123" lon="-118.3937526">
  <ele>-0.252</ele>
  <time>2026-09-02T22:09:10Z</time>
  <course>95.81</course>
  <speed>0.45044422518220834</speed>
  <fix>3d</fix>
</trkpt>
<trkpt lat="33.8106125" lon="-118.3937535">
  <ele>0.17</ele>
  <time>2026-09-02T22:09:10Z</time>
  <course>90.43</course>
  <speed>0.48</speed>
  <fix>3d</fix>
</trkpt>
<trkpt lat="33.8106123" lon="-118.3937521">
  <ele>-0.253</ele>
  <time>2026-09-02T22:09:10Z</time>
  <course>95.78</course>
  <speed>0.45044422518220834</speed>
  <fix>3d</fix>
</trkpt>
<trkpt lat="33.8106125" lon="-118.3937525">
  <ele>0.16</ele>
  <time>2026-09-02T22:09:10Z</time>
  <course>90.48</course>
  <speed>0.48</speed>
  <fix>3d</fix>
</trkpt>
<trkpt lat="33.8106123" lon="-118.3937515">
  <ele>-0.255</ele>
  <time>2026-09-02T22:09:10Z</time>
  <course>95.76</course>
  <speed>0.45044422518220834</speed>
  <fix>3d</fix>
</trkpt>
<trkpt lat="33.8106125" lon="-118.3937525">
  <ele>0.16</ele>
  <time>2026-09-02T22:09:10Z</time>
  <course>90.48</course>
  <speed>0.48</speed>
  <fix>3d</fix>
</trkpt>
<trkpt lat="33.8106123" lon="-118.393751">
  <ele>-0.256</ele>
  <time>2026-09-02T22:09:10Z</time>
  <course>95.74</course>
  <speed>0.45044422518220834</speed>
  <fix>3d</fix>
</trkpt>
<trkpt lat="33.8106125" lon="-118.3937514">
  <ele>0.16</ele>
  <time>2026-09-02T22:09:10Z</time>
  <course>90.52</course>
  <speed>0.48</speed>
  <fix>3d</fix>
</trkpt>
<trkpt lat="33.8106123" lon="-118.3937505">
  <ele>-0.257</ele>
  <time>2026-09-02T22:09:10Z</time>
  <course>95.71</course>
  <speed>0.45044422518220834</speed>
  <fix>3d</fix>
</trkpt>
<trkpt lat="33.8106125" lon="-118.3937514">
  <ele>0.16</ele>
  <time>2026-09-02T22:09:10Z</time>
  <course>90.52</course>
  <speed>0.48</speed>
  <fix>3d</fix>
</trkpt>
<trkpt lat="33.8106123" lon="-118.3937499">
  <ele>-0.258</ele>
  <time>2026-09-02T22:09:10Z</time>
  <course>95.69</course>
  <speed>0.45044422518220834</speed>
  <fix>3d</fix>
</trkpt>
<trkpt lat="33.8106125" lon="-118.3937503">
  <ele>0.15</ele>
  <time>2026-09-02T22:09:10Z</time>
  <course>90.55</course>
  <speed>0.48</speed>
  <fix>3d</fix>
</trkpt>
<trkpt lat="33.8106123" lon="-118.3937494">
  <ele>-0.259</ele>
  <time>2026-09-02T22:09:10Z</time>
  <course>95.66</course>
  <speed>0.45044422518220834</speed>
  <fix>3d</fix>
</trkpt>
<trkpt lat="33.8106125" lon="-118.3937503">
  <ele>0.15</ele>
  <time>2026-09-02T22:09:10Z</time>
  <course>90.55</course>
  <speed>0.48</speed>
  <fix>3d</fix>
</trkpt>
<trkpt lat="33.8106123" lon="-118.3937489">
  <ele>-0.259</ele>
  <time>2026-09-02T22:09:10Z</time>
  <course>95.64</course>
  <speed>0.45044422518220834</speed>
  <fix>3d</fix>
</trkpt>
<trkpt lat="33.8106125" lon="-118.3937493">
  <ele>0.15</ele>
  <time>2026-09-02T22:09:10Z</time>
  <course>90.59</course>
  <speed>0.48</speed>
  <fix>3d</fix>
</trkpt>
<trkpt lat="33.8106123" lon="-118.3937484">
  <ele>-0.259</ele>
  <time>2026-09-02T22:09:10Z</time>
  <course>95.62</course>
  <speed>0.45044422518220834</speed>
  <fix>3d</fix>
</trkpt>
<trkpt lat="33.8106125" lon="-118.3937493">
  <ele>0.15</ele>
  <time>2026-09-02T22:09:10Z</time>
  <course>90.59</course>
  <speed>0.48</speed>
  <fix>3d</fix>
</trkpt>
<trkpt lat="33.8106123" lon="-118.3937478">
  <ele>-0.26</ele>
  <time>2026-09-02T22:09:10Z</time>
  <course>95.61</course>
  <speed>0.45044422518220834</speed>
  <fix>3d</fix>
</trkpt>
<trkpt lat="33.8106125" lon="-118.3937483">
  <ele>0.14</ele>
  <time>2026-09-02T22:09:10Z</time>
  <course>90.62</course>
  <speed>0.48</speed>
  <fix>3d</fix>
</trkpt>
<trkpt lat="33.8106123" lon="-118.3937473">
  <ele>-0.261</ele>
  <time>2026-09-02T22:09:10Z</time>
  <course>95.59</course>
  <speed>0.45044422518220834</speed>
  <fix>3d</fix>
</trkpt>
<trkpt lat="33.8106125" lon="-118.3937483">
  <ele>0.14</ele>
  <time>2026-09-02T22:09:10Z</time>
  <course>90.62</course>
  <speed>0.48</speed>
  <fix>3d</fix>
</trkpt>
<trkpt lat="33.8106123" lon="-118.3937468">
  <ele>-0.263</ele>
  <time>2026-09-02T22:09:10Z</time>
  <course>95.57</course>
  <speed>0.45044422518220834</speed>
  <fix>3d</fix>
</trkpt>
<trkpt lat="33.8106125" lon="-118.3937472">
  <ele>0.14</ele>
  <time>2026-09-02T22:09:10Z</time>
  <course>90.66</course>
  <speed>0.48</speed>
  <fix>3d</fix>
</trkpt>
<trkpt lat="33.8106123" lon="-118.3937463">
  <ele>-0.266</ele>
  <time>2026-09-02T22:09:10Z</time>
  <course>95.54</course>
  <speed>0.45044422518220834</speed>
  <fix>3d</fix>
</trkpt>
<trkpt lat="33.8106125" lon="-118.3937472">
  <ele>0.14</ele>
  <time>2026-09-02T22:09:10Z</time>
  <course>90.66</course>
  <speed>0.48</speed>
  <fix>3d</fix>
</trkpt>
<trkpt lat="33.8106123" lon="-118.3937457">
  <ele>-0.27</ele>
  <time>2026-09-02T22:09:10Z</time>
  <course>95.52</course>
  <speed>0.45044422518220834</speed>
  <fix>3d</fix>
</trkpt>
<trkpt lat="33.8106125" lon="-118.3937462">
  <ele>0.13</ele>
  <time>2026-09-02T22:09:10Z</time>
  <course>90.7</course>
  <speed>0.48</speed>
  <fix>3d</fix>
</trkpt>
<trkpt lat="33.8106123" lon="-118.3937452">
  <ele>-0.273</ele>
  <time>2026-09-02T22:09:10Z</time>
  <course>95.5</course>
  <speed>0.45044422518220834</speed>
  <fix>3d</fix>
</trkpt>
<trkpt lat="33.8106125" lon="-118.3937462">
  <ele>0.13</ele>
  <time>2026-09-02T22:09:10Z</time>
  <course>90.7</course>
  <speed>0.48</speed>
  <fix>3d</fix>
</trkpt>
<trkpt lat="33.8106123" lon="-118.3937447">
  <ele>-0.275</ele>
  <time>2026-09-02T22:09:10Z</time>
  <course>95.48</course>
  <speed>0.45044422518220834</speed>
  <fix>3d</fix>
</trkpt>
<trkpt lat="33.8106125" lon="-118.3937451">
  <ele>0.13</ele>
  <time>2026-09-02T22:09:10Z</time>
  <course>90.75</course>
  <speed>0.48</speed>
  <fix>3d</fix>
</trkpt>
<trkpt lat="33.8106123" lon="-118.3937441">
  <ele>-0.278</ele>
  <time>2026-09-02T22:09:10Z</time>
  <course>95.45</course>
  <speed>0.45044422518220834</speed>
  <fix>3d</fix>
</trkpt>
<trkpt lat="33.8106125" lon="-118.3937451">
  <ele>0.13</ele>
  <time>2026-09-02T22:09:10Z</time>
  <course>90.75</course>
  <speed>0.48</speed>
  <fix>3d</fix>
</trkpt>
<trkpt lat="33.8106123" lon="-118.3937436">
  <ele>-0.28</ele>
  <time>2026-09-02T22:09:10Z</time>
  <course>95.44</course>
  <speed>0.45044422518220834</speed>
  <fix>3d</fix>
</trkpt>
<trkpt lat="33.8106125" lon="-118.3937441">
  <ele>0.12</ele>
  <time>2026-09-02T22:09:10Z</time>
  <course>90.79</course>
  <speed>0.48</speed>
  <fix>3d</fix>
</trkpt>
<trkpt lat="33.8106123" lon="-118.3937431">
  <ele>-0.283</ele>
  <time>2026-09-02T22:09:10Z</time>
  <course>95.42</course>
  <speed>0.45044422518220834</speed>
  <fix>3d</fix>
</trkpt>
<trkpt lat="33.8106125" lon="-118.3937441">
  <ele>0.12</ele>
  <time>2026-09-02T22:09:10Z</time>
  <course>90.79</course>
  <speed>0.48</speed>
  <fix>3d</fix>
</trkpt>
<trkpt lat="33.8106123" lon="-118.3937426">
  <ele>-0.284</ele>
  <time>2026-09-02T22:09:10Z</time>
  <course>95.4</course>
  <speed>0.45044422518220834</speed>
  <fix>3d</fix>
</trkpt>
<trkpt lat="33.8106125" lon="-118.393743">
  <ele>0.12</ele>
  <time>2026-09-02T22:09:10Z</time>
  <course>90.83</course>
  <speed>0.48</speed>
  <fix>3d</fix>
</trkpt>
<trkpt lat="33.8106123" lon="-118.3937421">
  <ele>-0.284</ele>
  <time>2026-09-02T22:09:10Z</time>
  <course>95.37</course>
  <speed>0.45044422518220834</speed>
  <fix>3d</fix>
</trkpt>
<trkpt lat="33.8106125" lon="-118.393743">
  <ele>0.12</ele>
  <time>2026-09-02T22:09:10Z</time>
  <course>90.83</course>
  <speed>0.48</speed>
  <fix>3d</fix>
</trkpt>
<trkpt lat="33.8106123" lon="-118.3937415">
  <ele>-0.283</ele>
  <time>2026-09-02T22:09:10Z</time>
  <course>95.35</course>
  <speed>0.45044422518220834</speed>
  <fix>3d</fix>
</trkpt>
<trkpt lat="33.8106125" lon="-118.3937419">
  <ele>0.12</ele>
  <time>2026-09-02T22:09:10Z</time>
  <course>90.86</course>
  <speed>0.48</speed>
  <fix>3d</fix>
</trkpt>
<trkpt lat="33.8106123" lon="-118.393741">
  <ele>-0.281</ele>
  <time>2026-09-02T22:09:10Z</time>
  <course>95.34</course>
  <speed>0.45044422518220834</speed>
  <fix>3d</fix>
</trkpt>
<trkpt lat="33.8106125" lon="-118.3937419">
  <ele>0.12</ele>
  <time>2026-09-02T22:09:10Z</time>
  <course>90.86</course>
  <speed>0.48</speed>
  <fix>3d</fix>
</trkpt>
<trkpt lat="33.8106123" lon="-118.3937405">
  <ele>-0.279</ele>
  <time>2026-09-02T22:09:10Z</time>
  <course>95.32</course>
  <speed>0.45044422518220834</speed>
  <fix>3d</fix>
</trkpt>
<trkpt lat="33.8106125" lon="-118.3937409">
  <ele>0.12</ele>
  <time>2026-09-02T22:09:10Z</time>
  <course>90.9</course>
  <speed>0.48</speed>
  <fix>3d</fix>
</trkpt>
<trkpt lat="33.8106123" lon="-118.3937399">
  <ele>-0.277</ele>
  <time>2026-09-02T22:09:10Z</time>
  <course>95.3</course>
  <speed>0.45044422518220834</speed>
  <fix>3d</fix>
</trkpt>
<trkpt lat="33.8106125" lon="-118.3937409">
  <ele>0.12</ele>
  <time>2026-09-02T22:09:10Z</time>
  <course>90.9</course>
  <speed>0.48</speed>
  <fix>3d</fix>
</trkpt>
<trkpt lat="33.8106123" lon="-118.3937394">
  <ele>-0.275</ele>
  <time>2026-09-02T22:09:10Z</time>
  <course>95.29</course>
  <speed>0.45044422518220834</speed>
  <fix>3d</fix>
</trkpt>
<trkpt lat="33.8106125" lon="-118.3937399">
  <ele>0.12</ele>
  <time>2026-09-02T22:09:10Z</time>
  <course>90.93</course>
  <speed>0.48</speed>
  <fix>3d</fix>
</trkpt>
<trkpt lat="33.8106123" lon="-118.3937389">
  <ele>-0.273</ele>
  <time>2026-09-02T22:09:10Z</time>
  <course>95.27</course>
  <speed>0.45044422518220834</speed>
  <fix>3d</fix>
</trkpt>
<trkpt lat="33.8106125" lon="-118.3937399">
  <ele>0.12</ele>
  <time>2026-09-02T22:09:10Z</time>
  <course>90.93</course>
  <speed>0.48</speed>
  <fix>3d</fix>
</trkpt>
<trkpt lat="33.8106123" lon="-118.3937384">
  <ele>-0.27</ele>
  <time>2026-09-02T22:09:10Z</time>
  <course>95.26</course>
  <speed>0.45044422518220834</speed>
  <fix>3d</fix>
</trkpt>
<trkpt lat="33.8106124" lon="-118.3937388">
  <ele>0.13</ele>
  <time>2026-09-02T22:09:10Z</time>
  <course>90.98</course>
  <speed>0.48</speed>
  <fix>3d</fix>
</trkpt>
<trkpt lat="33.8106123" lon="-118.3937378">
  <ele>-0.268</ele>
  <time>2026-09-02T22:09:10Z</time>
  <course>95.24</course>
  <speed>0.45044422518220834</speed>
  <fix>3d</fix>
</trkpt>
<trkpt lat="33.8106124" lon="-118.3937388">
  <ele>0.13</ele>
  <time>2026-09-02T22:09:10Z</time>
  <course>90.98</course>
  <speed>0.48</speed>
  <fix>3d</fix>
</trkpt>
<trkpt lat="33.8106123" lon="-118.3937373">
  <ele>-0.267</ele>
  <time>2026-09-02T22:09:10Z</time>
  <course>95.2</course>
  <speed>0.45044422518220834</speed>
  <fix>3d</fix>
</trkpt>
<trkpt lat="33.8106123" lon="-118.3937378">
  <ele>0.13</ele>
  <time>2026-09-02T22:09:10Z</time>
  <course>90.92</course>
  <speed>0.48</speed>
  <fix>3d</fix>
</trkpt>
<trkpt lat="33.8106123" lon="-118.3937368">
  <ele>-0.265</ele>
  <time>2026-09-02T22:09:10Z</time>
  <course>95.12</course>
  <speed>0.450111097397076</speed>
  <fix>3d</fix>
</trkpt>
<trkpt lat="33.8106123" lon="-118.3937378">
  <ele>0.13</ele>
  <time>2026-09-02T22:09:10Z</time>
  <course>90.92</course>
  <speed>0.48</speed>
  <fix>3d</fix>
</trkpt>
<trkpt lat="33.8106123" lon="-118.3937363">
  <ele>-0.263</ele>
  <time>2026-09-02T22:09:10Z</time>
  <course>94.99</course>
  <speed>0.450111097397076</speed>
  <fix>3d</fix>
</trkpt>
<trkpt lat="33.8106123" lon="-118.3937367">
  <ele>0.14</ele>
  <time>2026-09-02T22:09:10Z</time>
  <course>90.66</course>
  <speed>0.48</speed>
  <fix>3d</fix>
</trkpt>
<trkpt lat="33.8106123" lon="-118.3937357">
  <ele>-0.261</ele>
  <time>2026-09-02T22:09:10Z</time>
  <course>94.84</course>
  <speed>0.450111097397076</speed>
  <fix>3d</fix>
</trkpt>
<trkpt lat="33.8106123" lon="-118.3937367">
  <ele>0.14</ele>
  <time>2026-09-02T22:09:10Z</time>
  <course>90.66</course>
  <speed>0.48</speed>
  <fix>3d</fix>
</trkpt>
<trkpt lat="33.8106123" lon="-118.3937352">
  <ele>-0.259</ele>
  <time>2026-09-02T22:09:10Z</time>
  <course>94.67</course>
  <speed>0.450111097397076</speed>
  <fix>3d</fix>
</trkpt>
<trkpt lat="33.8106123" lon="-118.3937356">
  <ele>0.14</ele>
  <time>2026-09-02T22:09:10Z</time>
  <course>90.31</course>
  <speed>0.48</speed>
  <fix>3d</fix>
</trkpt>
<trkpt lat="33.8106123" lon="-118.3937347">
  <ele>-0.256</ele>
  <time>2026-09-02T22:09:10Z</time>
  <course>94.53</course>
  <speed>0.450111097397076</speed>
  <fix>3d</fix>
</trkpt>
<trkpt lat="33.8106123" lon="-118.3937356">
  <ele>0.14</ele>
  <time>2026-09-02T22:09:10Z</time>
  <course>90.31</course>
  <speed>0.48</speed>
  <fix>3d</fix>
</trkpt>
<trkpt lat="33.8106123" lon="-118.3937341">
  <ele>-0.255</ele>
  <time>2026-09-02T22:09:10Z</time>
  <course>94.38</course>
  <speed>0.450111097397076</speed>
  <fix>3d</fix>
</trkpt>
<trkpt lat="33.8106123" lon="-118.3937345">
  <ele>0.14</ele>
  <time>2026-09-02T22:09:10Z</time>
  <course>90.05</course>
  <speed>0.48</speed>
  <fix>3d</fix>
</trkpt>
<trkpt lat="33.8106123" lon="-118.3937336">
  <ele>-0.252</ele>
  <time>2026-09-02T22:09:10Z</time>
  <course>94.26</course>
  <speed>0.450111097397076</speed>
  <fix>3d</fix>
</trkpt>
<trkpt lat="33.8106123" lon="-118.3937345">
  <ele>0.14</ele>
  <time>2026-09-02T22:09:10Z</time>
  <course>90.05</course>
  <speed>0.48</speed>
  <fix>3d</fix>
</trkpt>
<trkpt lat="33.8106123" lon="-118.3937331">
  <ele>-0.25</ele>
  <time>2026-09-02T22:09:10Z</time>
  <course>94.15</course>
  <speed>0.450111097397076</speed>
  <fix>3d</fix>
</trkpt>
<trkpt lat="33.8106123" lon="-118.3937335">
  <ele>0.15</ele>
  <time>2026-09-02T22:09:10Z</time>
  <course>89.89</course>
  <speed>0.48</speed>
  <fix>3d</fix>
</trkpt>
<trkpt lat="33.8106123" lon="-118.3937326">
  <ele>-0.247</ele>
  <time>2026-09-02T22:09:10Z</time>
  <course>94.06</course>
  <speed>0.450111097397076</speed>
  <fix>3d</fix>
</trkpt>
<trkpt lat="33.8106123" lon="-118.3937335">
  <ele>0.15</ele>
  <time>2026-09-02T22:09:10Z</time>
  <course>89.89</course>
  <speed>0.48</speed>
  <fix>3d</fix>
</trkpt>
<trkpt lat="33.8106123" lon="-118.393732">
  <ele>-0.246</ele>
  <time>2026-09-02T22:09:10Z</time>
  <course>93.98</course>
  <speed>0.450111097397076</speed>
  <fix>3d</fix>
</trkpt>
<trkpt lat="33.8106123" lon="-118.3937325">
  <ele>0.15</ele>
  <time>2026-09-02T22:09:10Z</time>
  <course>89.74</course>
  <speed>0.48</speed>
  <fix>3d</fix>
</trkpt>
<trkpt lat="33.8106123" lon="-118.3937315">
  <ele>-0.245</ele>
  <time>2026-09-02T22:09:10Z</time>
  <course>93.93</course>
  <speed>0.450111097397076</speed>
  <fix>3d</fix>
</trkpt>
<trkpt lat="33.8106123" lon="-118.3937325">
  <ele>0.15</ele>
  <time>2026-09-02T22:09:10Z</time>
  <course>89.74</course>
  <speed>0.48</speed>
  <fix>3d</fix>
</trkpt>
<trkpt lat="33.8106123" lon="-118.393731">
  <ele>-0.244</ele>
  <time>2026-09-02T22:09:10Z</time>
  <course>93.88</course>
  <speed>0.450111097397076</speed>
  <fix>3d</fix>
</trkpt>
<trkpt lat="33.8106123" lon="-118.3937314">
  <ele>0.15</ele>
  <time>2026-09-02T22:09:10Z</time>
  <course>89.6</course>
  <speed>0.48</speed>
  <fix>3d</fix>
</trkpt>
<trkpt lat="33.8106122" lon="-118.3937304">
  <ele>-0.243</ele>
  <time>2026-09-02T22:09:10Z</time>
  <course>93.86</course>
  <speed>0.450111097397076</speed>
  <fix>3d</fix>
</trkpt>
<trkpt lat="33.8106123" lon="-118.3937314">
  <ele>0.15</ele>
  <time>2026-09-02T22:09:10Z</time>
  <course>89.6</course>
  <speed>0.48</speed>
  <fix>3d</fix>
</trkpt>
<trkpt lat="33.8106122" lon="-118.3937299">
  <ele>-0.241</ele>
  <time>2026-09-02T22:09:10Z</time>
  <course>93.84</course>
  <speed>0.450111097397076</speed>
  <fix>3d</fix>
</trkpt>
<trkpt lat="33.8106123" lon="-118.3937304">
  <ele>0.15</ele>
  <time>2026-09-02T22:09:10Z</time>
  <course>89.45</course>
  <speed>0.48</speed>
  <fix>3d</fix>
</trkpt>
<trkpt lat="33.8106122" lon="-118.3937294">
  <ele>-0.238</ele>
  <time>2026-09-02T22:09:10Z</time>
  <course>93.84</course>
  <speed>0.450111097397076</speed>
  <fix>3d</fix>
</trkpt>
<trkpt lat="33.8106123" lon="-118.3937304">
  <ele>0.15</ele>
  <time>2026-09-02T22:09:10Z</time>
  <course>89.45</course>
  <speed>0.48</speed>
  <fix>3d</fix>
</trkpt>
<trkpt lat="33.8106122" lon="-118.3937289">
  <ele>-0.236</ele>
  <time>2026-09-02T22:09:10Z</time>
  <course>93.84</course>
  <speed>0.450111097397076</speed>
  <fix>3d</fix>
</trkpt>
<trkpt lat="33.8106123" lon="-118.3937293">
  <ele>0.16</ele>
  <time>2026-09-02T22:09:10Z</time>
  <course>89.31</course>
  <speed>0.48</speed>
  <fix>3d</fix>
</trkpt>
<trkpt lat="33.8106122" lon="-118.3937283">
  <ele>-0.236</ele>
  <time>2026-09-02T22:09:10Z</time>
  <course>93.87</course>
  <speed>0.450111097397076</speed>
  <fix>3d</fix>
</trkpt>
<trkpt lat="33.8106123" lon="-118.3937293">
  <ele>0.16</ele>
  <time>2026-09-02T22:09:10Z</time>
  <course>89.31</course>
  <speed>0.48</speed>
  <fix>3d</fix>
</trkpt>
<trkpt lat="33.8106122" lon="-118.3937278">
  <ele>-0.236</ele>
  <time>2026-09-02T22:09:10Z</time>
  <course>93.89</course>
  <speed>0.450111097397076</speed>
  <fix>3d</fix>
</trkpt>
<trkpt lat="33.8106123" lon="-118.3937283">
  <ele>0.16</ele>
  <time>2026-09-02T22:09:10Z</time>
  <course>89.17</course>
  <speed>0.48</speed>
  <fix>3d</fix>
</trkpt>
<trkpt lat="33.8106122" lon="-118.3937273">
  <ele>-0.235</ele>
  <time>2026-09-02T22:09:10Z</time>
  <course>93.93</course>
  <speed>0.450111097397076</speed>
  <fix>3d</fix>
</trkpt>
<trkpt lat="33.8106123" lon="-118.3937283">
  <ele>0.16</ele>
  <time>2026-09-02T22:09:10Z</time>
  <course>89.17</course>
  <speed>0.48</speed>
  <fix>3d</fix>
</trkpt>
<trkpt lat="33.8106122" lon="-118.3937267">
  <ele>-0.234</ele>
  <time>2026-09-02T22:09:10Z</time>
  <course>93.97</course>
  <speed>0.450111097397076</speed>
  <fix>3d</fix>
</trkpt>
<trkpt lat="33.8106123" lon="-118.3937272">
  <ele>0.16</ele>
  <time>2026-09-02T22:09:10Z</time>
  <course>89.02</course>
  <speed>0.48</speed>
  <fix>3d</fix>
</trkpt>
<trkpt lat="33.8106122" lon="-118.3937262">
  <ele>-0.235</ele>
  <time>2026-09-02T22:09:10Z</time>
  <course>93.99</course>
  <speed>0.450111097397076</speed>
  <fix>3d</fix>
</trkpt>
<trkpt lat="33.8106123" lon="-118.3937272">
  <ele>0.16</ele>
  <time>2026-09-02T22:09:10Z</time>
  <course>89.02</course>
  <speed>0.48</speed>
  <fix>3d</fix>
</trkpt>
<trkpt lat="33.8106122" lon="-118.3937257">
  <ele>-0.234</ele>
  <time>2026-09-02T22:09:10Z</time>
  <course>94.01</course>
  <speed>0.450111097397076</speed>
  <fix>3d</fix>
</trkpt>
<trkpt lat="33.8106123" lon="-118.3937262">
  <ele>0.16</ele>
  <time>2026-09-02T22:09:10Z</time>
  <course>88.93</course>
  <speed>0.48</speed>
  <fix>3d</fix>
</trkpt>
<trkpt lat="33.8106122" lon="-118.3937252">
  <ele>-0.233</ele>
  <time>2026-09-02T22:09:10Z</time>
  <course>94.03</course>
  <speed>0.450111097397076</speed>
  <fix>3d</fix>
</trkpt>
<trkpt lat="33.8106123" lon="-118.3937262">
  <ele>0.16</ele>
  <time>2026-09-02T22:09:10Z</time>
  <course>88.93</course>
  <speed>0.48</speed>
  <fix>3d</fix>
</trkpt>
<trkpt lat="33.8106122" lon="-118.3937246">
  <ele>-0.231</ele>
  <time>2026-09-02T22:09:10Z</time>
  <course>94.05</course>
  <speed>0.450111097397076</speed>
  <fix>3d</fix>
</trkpt>
<trkpt lat="33.8106123" lon="-118.3937251">
  <ele>0.17</ele>
  <time>2026-09-02T22:09:10Z</time>
  <course>88.88</course>
  <speed>0.48</speed>
  <fix>3d</fix>
</trkpt>
<trkpt lat="33.8106122" lon="-118.3937241">
  <ele>-0.229</ele>
  <time>2026-09-02T22:09:10Z</time>
  <course>94.07</course>
  <speed>0.450111097397076</speed>
  <fix>3d</fix>
</trkpt>
<trkpt lat="33.8106123" lon="-118.3937251">
  <ele>0.17</ele>
  <time>2026-09-02T22:09:10Z</time>
  <course>88.88</course>
  <speed>0.48</speed>
  <fix>3d</fix>
</trkpt>
<trkpt lat="33.8106122" lon="-118.3937236">
  <ele>-0.228</ele>
  <time>2026-09-02T22:09:10Z</time>
  <course>94.08</course>
  <speed>0.450111097397076</speed>
  <fix>3d</fix>
</trkpt>
<trkpt lat="33.8106123" lon="-118.3937241">
  <ele>0.17</ele>
  <time>2026-09-02T22:09:10Z</time>
  <course>88.87</course>
  <speed>0.48</speed>
  <fix>3d</fix>
</trkpt>
<trkpt lat="33.8106122" lon="-118.3937231">
  <ele>-0.228</ele>
  <time>2026-09-02T22:09:10Z</time>
  <course>94.09</course>
  <speed>0.450111097397076</speed>
  <fix>3d</fix>
</trkpt>
<trkpt lat="33.8106123" lon="-118.3937241">
  <ele>0.17</ele>
  <time>2026-09-02T22:09:10Z</time>
  <course>88.87</course>
  <speed>0.48</speed>
  <fix>3d</fix>
</trkpt>
<trkpt lat="33.8106122" lon="-118.3937225">
  <ele>-0.228</ele>
  <time>2026-09-02T22:09:10Z</time>
  <course>94.1</course>
  <speed>0.450111097397076</speed>
  <fix>3d</fix>
</trkpt>
<trkpt lat="33.8106123" lon="-118.393723">
  <ele>0.17</ele>
  <time>2026-09-02T22:09:10Z</time>
  <course>88.86</course>
  <speed>0.48</speed>
  <fix>3d</fix>
</trkpt>
<trkpt lat="33.8106122" lon="-118.393722">
  <ele>-0.229</ele>
  <time>2026-09-02T22:09:10Z</time>
  <course>94.1</course>
  <speed>0.450111097397076</speed>
  <fix>3d</fix>
</trkpt>
<trkpt lat="33.8106123" lon="-118.393723">
  <ele>0.17</ele>
  <time>2026-09-02T22:09:10Z</time>
  <course>88.86</course>
  <speed>0.48</speed>
  <fix>3d</fix>
</trkpt>
<trkpt lat="33.8106122" lon="-118.3937215">
  <ele>-0.229</ele>
  <time>2026-09-02T22:09:10Z</time>
  <course>94.1</course>
  <speed>0.450111097397076</speed>
  <fix>3d</fix>
</trkpt>
<trkpt lat="33.8106124" lon="-118.393722">
  <ele>0.17</ele>
  <time>2026-09-02T22:09:10Z</time>
  <course>88.83</course>
  <speed>0.48</speed>
  <fix>3d</fix>
</trkpt>
<trkpt lat="33.8106122" lon="-118.393721">
  <ele>-0.228</ele>
  <time>2026-09-02T22:09:10Z</time>
  <course>94.11</course>
  <speed>0.450111097397076</speed>
  <fix>3d</fix>
</trkpt>
<trkpt lat="33.8106124" lon="-118.393722">
  <ele>0.17</ele>
  <time>2026-09-02T22:09:10Z</time>
  <course>88.83</course>
  <speed>0.48</speed>
  <fix>3d</fix>
</trkpt>
<trkpt lat="33.8106122" lon="-118.3937204">
  <ele>-0.228</ele>
  <time>2026-09-02T22:09:10Z</time>
  <course>94.14</course>
  <speed>0.450111097397076</speed>
  <fix>3d</fix>
</trkpt>
<trkpt lat="33.8106125" lon="-118.3937209">
  <ele>0.17</ele>
  <time>2026-09-02T22:09:10Z</time>
  <course>88.9</course>
  <speed>0.48</speed>
  <fix>3d</fix>
</trkpt>
<trkpt lat="33.8106122" lon="-118.3937199">
  <ele>-0.228</ele>
  <time>2026-09-02T22:09:10Z</time>
  <course>94.19</course>
  <speed>0.450111097397076</speed>
  <fix>3d</fix>
</trkpt>
<trkpt lat="33.8106125" lon="-118.3937209">
  <ele>0.17</ele>
  <time>2026-09-02T22:09:10Z</time>
  <course>88.9</course>
  <speed>0.48</speed>
  <fix>3d</fix>
</trkpt>
<trkpt lat="33.8106122" lon="-118.3937194">
  <ele>-0.227</ele>
  <time>2026-09-02T22:09:10Z</time>
  <course>94.28</course>
  <speed>0.450111097397076</speed>
  <fix>3d</fix>
</trkpt>
<trkpt lat="33.8106125" lon="-118.3937198">
  <ele>0.17</ele>
  <time>2026-09-02T22:09:10Z</time>
  <course>89.19</course>
  <speed>0.48</speed>
  <fix>3d</fix>
</trkpt>
<trkpt lat="33.8106122" lon="-118.3937189">
  <ele>-0.227</ele>
  <time>2026-09-02T22:09:10Z</time>
  <course>94.37</course>
  <speed>0.45044422518220834</speed>
  <fix>3d</fix>
</trkpt>
<trkpt lat="33.8106125" lon="-118.3937198">
  <ele>0.17</ele>
  <time>2026-09-02T22:09:10Z</time>
  <course>89.19</course>
  <speed>0.48</speed>
  <fix>3d</fix>
</trkpt>
<trkpt lat="33.8106122" lon="-118.3937183">
  <ele>-0.228</ele>
  <time>2026-09-02T22:09:10Z</time>
  <course>94.48</course>
  <speed>0.45044422518220834</speed>
  <fix>3d</fix>
</trkpt>
<trkpt lat="33.8106125" lon="-118.3937187">
  <ele>0.17</ele>
  <time>2026-09-02T22:09:10Z</time>
  <course>89.58</course>
  <speed>0.48</speed>
  <fix>3d</fix>
</trkpt>
<trkpt lat="33.8106122" lon="-118.3937178">
  <ele>-0.228</ele>
  <time>2026-09-02T22:09:10Z</time>
  <course>94.56</course>
  <speed>0.45044422518220834</speed>
  <fix>3d</fix>
</trkpt>
<trkpt lat="33.8106125" lon="-118.3937187">
  <ele>0.17</ele>
  <time>2026-09-02T22:09:10Z</time>
  <course>89.58</course>
  <speed>0.48</speed>
  <fix>3d</fix>
</trkpt>
<trkpt lat="33.8106122" lon="-118.3937173">
  <ele>-0.227</ele>
  <time>2026-09-02T22:09:10Z</time>
  <course>94.66</course>
  <speed>0.45044422518220834</speed>
  <fix>3d</fix>
</trkpt>
<trkpt lat="33.8106125" lon="-118.3937178">
  <ele>0.17</ele>
  <time>2026-09-02T22:09:10Z</time>
  <course>89.91</course>
  <speed>0.48</speed>
  <fix>3d</fix>
</trkpt>
<trkpt lat="33.8106122" lon="-118.3937168">
  <ele>-0.227</ele>
  <time>2026-09-02T22:09:10Z</time>
  <course>94.71</course>
  <speed>0.45044422518220834</speed>
  <fix>3d</fix>
</trkpt>
<trkpt lat="33.8106125" lon="-118.3937178">
  <ele>0.17</ele>
  <time>2026-09-02T22:09:10Z</time>
  <course>89.91</course>
  <speed>0.48</speed>
  <fix>3d</fix>
</trkpt>
<trkpt lat="33.8106122" lon="-118.3937162">
  <ele>-0.227</ele>
  <time>2026-09-02T22:09:10Z</time>
  <course>94.76</course>
  <speed>0.45044422518220834</speed>
  <fix>3d</fix>
</trkpt>
<trkpt lat="33.8106125" lon="-118.3937167">
  <ele>0.17</ele>
  <time>2026-09-02T22:09:10Z</time>
  <course>90.13</course>
  <speed>0.48</speed>
  <fix>3d</fix>
</trkpt>
<trkpt lat="33.8106122" lon="-118.3937157">
  <ele>-0.228</ele>
  <time>2026-09-02T22:09:10Z</time>
  <course>94.79</course>
  <speed>0.45044422518220834</speed>
  <fix>3d</fix>
</trkpt>
<trkpt lat="33.8106125" lon="-118.3937167">
  <ele>0.17</ele>
  <time>2026-09-02T22:09:10Z</time>
  <course>90.13</course>
  <speed>0.48</speed>
  <fix>3d</fix>
</trkpt>
<trkpt lat="33.8106122" lon="-118.3937152">
  <ele>-0.229</ele>
  <time>2026-09-02T22:09:10Z</time>
  <course>94.82</course>
  <speed>0.45044422518220834</speed>
  <fix>3d</fix>
</trkpt>
<trkpt lat="33.8106125" lon="-118.3937157">
  <ele>0.17</ele>
  <time>2026-09-02T22:09:10Z</time>
  <course>90.28</course>
  <speed>0.48</speed>
  <fix>3d</fix>
</trkpt>
<trkpt lat="33.8106122" lon="-118.3937147">
  <ele>-0.229</ele>
  <time>2026-09-02T22:09:10Z</time>
  <course>94.83</course>
  <speed>0.45044422518220834</speed>
  <fix>3d</fix>
</trkpt>
<trkpt lat="33.8106125" lon="-118.3937157">
  <ele>0.17</ele>
  <time>2026-09-02T22:09:10Z</time>
  <course>90.28</course>
  <speed>0.48</speed>
  <fix>3d</fix>
</trkpt>
<trkpt lat="33.8106122" lon="-118.3937142">
  <ele>-0.23</ele>
  <time>2026-09-02T22:09:10Z</time>
  <course>94.85</course>
  <speed>0.45044422518220834</speed>
  <fix>3d</fix>
</trkpt>
<trkpt lat="33.8106125" lon="-118.3937146">
  <ele>0.17</ele>
  <time>2026-09-02T22:09:10Z</time>
  <course>90.41</course>
  <speed>0.48</speed>
  <fix>3d</fix>
</trkpt>
<trkpt lat="33.8106122" lon="-118.3937136">
  <ele>-0.231</ele>
  <time>2026-09-02T22:09:10Z</time>
  <course>94.85</course>
  <speed>0.45044422518220834</speed>
  <fix>3d</fix>
</trkpt>
<trkpt lat="33.8106125" lon="-118.3937146">
  <ele>0.17</ele>
  <time>2026-09-02T22:09:10Z</time>
  <course>90.41</course>
  <speed>0.48</speed>
  <fix>3d</fix>
</trkpt>
<trkpt lat="33.8106122" lon="-118.3937131">
  <ele>-0.232</ele>
  <time>2026-09-02T22:09:10Z</time>
  <course>94.86</course>
  <speed>0.45044422518220834</speed>
  <fix>3d</fix>
</trkpt>
<trkpt lat="33.8106125" lon="-118.3937136">
  <ele>0.17</ele>
  <time>2026-09-02T22:09:10Z</time>
  <course>90.51</course>
  <speed>0.48</speed>
  <fix>3d</fix>
</trkpt>
<trkpt lat="33.8106122" lon="-118.3937126">
  <ele>-0.233</ele>
  <time>2026-09-02T22:09:10Z</time>
  <course>94.85</course>
  <speed>0.45044422518220834</speed>
  <fix>3d</fix>
</trkpt>
<trkpt lat="33.8106125" lon="-118.3937136">
  <ele>0.17</ele>
  <time>2026-09-02T22:09:10Z</time>
  <course>90.51</course>
  <speed>0.48</speed>
  <fix>3d</fix>
</trkpt>
<trkpt lat="33.8106122" lon="-118.3937121">
  <ele>-0.233</ele>
  <time>2026-09-02T22:09:10Z</time>
  <course>94.85</course>
  <speed>0.45044422518220834</speed>
  <fix>3d</fix>
</trkpt>
<trkpt lat="33.8106125" lon="-118.3937125">
  <ele>0.17</ele>
  <time>2026-09-02T22:09:10Z</time>
  <course>90.58</course>
  <speed>0.48</speed>
  <fix>3d</fix>
</trkpt>
<trkpt lat="33.8106122" lon="-118.3937116">
  <ele>-0.234</ele>
  <time>2026-09-02T22:09:10Z</time>
  <course>94.83</course>
  <speed>0.45044422518220834</speed>
  <fix>3d</fix>
</trkpt>
<trkpt lat="33.8106125" lon="-118.3937125">
  <ele>0.17</ele>
  <time>2026-09-02T22:09:10Z</time>
  <course>90.58</course>
  <speed>0.48</speed>
  <fix>3d</fix>
</trkpt>
<trkpt lat="33.8106122" lon="-118.393711">
  <ele>-0.235</ele>
  <time>2026-09-02T22:09:10Z</time>
  <course>94.83</course>
  <speed>0.45044422518220834</speed>
  <fix>3d</fix>
</trkpt>
<trkpt lat="33.8106125" lon="-118.3937115">
  <ele>0.17</ele>
  <time>2026-09-02T22:09:10Z</time>
  <course>90.64</course>
  <speed>0.48</speed>
  <fix>3d</fix>
</trkpt>
<trkpt lat="33.8106122" lon="-118.3937105">
  <ele>-0.236</ele>
  <time>2026-09-02T22:09:10Z</time>
  <course>94.82</course>
  <speed>0.45044422518220834</speed>
  <fix>3d</fix>
</trkpt>
<trkpt lat="33.8106125" lon="-118.3937115">
  <ele>0.17</ele>
  <time>2026-09-02T22:09:10Z</time>
  <course>90.64</course>
  <speed>0.48</speed>
  <fix>3d</fix>
</trkpt>
<trkpt lat="33.8106122" lon="-118.39371">
  <ele>-0.236</ele>
  <time>2026-09-02T22:09:10Z</time>
  <course>94.81</course>
  <speed>0.45044422518220834</speed>
  <fix>3d</fix>
</trkpt>
<trkpt lat="33.8106125" lon="-118.3937104">
  <ele>0.17</ele>
  <time>2026-09-02T22:09:10Z</time>
  <course>90.69</course>
  <speed>0.48</speed>
  <fix>3d</fix>
</trkpt>
<trkpt lat="33.8106122" lon="-118.3937095">
  <ele>-0.236</ele>
  <time>2026-09-02T22:09:10Z</time>
  <course>94.8</course>
  <speed>0.45044422518220834</speed>
  <fix>3d</fix>
</trkpt>
<trkpt lat="33.8106125" lon="-118.3937104">
  <ele>0.17</ele>
  <time>2026-09-02T22:09:10Z</time>
  <course>90.69</course>
  <speed>0.48</speed>
  <fix>3d</fix>
</trkpt>
<trkpt lat="33.8106122" lon="-118.3937089">
  <ele>-0.236</ele>
  <time>2026-09-02T22:09:10Z</time>
  <course>94.79</course>
  <speed>0.45044422518220834</speed>
  <fix>3d</fix>
</trkpt>
<trkpt lat="33.8106125" lon="-118.3937094">
  <ele>0.17</ele>
  <time>2026-09-02T22:09:10Z</time>
  <course>90.75</course>
  <speed>0.48</speed>
  <fix>3d</fix>
</trkpt>
<trkpt lat="33.8106122" lon="-118.3937084">
  <ele>-0.235</ele>
  <time>2026-09-02T22:09:10Z</time>
  <course>94.78</course>
  <speed>0.45044422518220834</speed>
  <fix>3d</fix>
</trkpt>
<trkpt lat="33.8106125" lon="-118.3937094">
  <ele>0.17</ele>
  <time>2026-09-02T22:09:10Z</time>
  <course>90.75</course>
  <speed>0.48</speed>
  <fix>3d</fix>
</trkpt>
<trkpt lat="33.8106122" lon="-118.3937079">
  <ele>-0.235</ele>
  <time>2026-09-02T22:09:10Z</time>
  <course>94.77</course>
  <speed>0.45044422518220834</speed>
  <fix>3d</fix>
</trkpt>
<trkpt lat="33.8106125" lon="-118.3937083">
  <ele>0.17</ele>
  <time>2026-09-02T22:09:10Z</time>
  <course>90.79</course>
  <speed>0.48</speed>
  <fix>3d</fix>
</trkpt>
<trkpt lat="33.8106122" lon="-118.3937074">
  <ele>-0.236</ele>
  <time>2026-09-02T22:09:10Z</time>
  <course>94.76</course>
  <speed>0.45044422518220834</speed>
  <fix>3d</fix>
</trkpt>
<trkpt lat="33.8106125" lon="-118.3937083">
  <ele>0.17</ele>
  <time>2026-09-02T22:09:10Z</time>
  <course>90.79</course>
  <speed>0.48</speed>
  <fix>3d</fix>
</trkpt>
<trkpt lat="33.8106122" lon="-118.3937069">
  <ele>-0.236</ele>
  <time>2026-09-02T22:09:10Z</time>
  <course>94.75</course>
  <speed>0.45044422518220834</speed>
  <fix>3d</fix>
</trkpt>
<trkpt lat="33.8106125" lon="-118.3937073">
  <ele>0.17</ele>
  <time>2026-09-02T22:09:11Z</time>
  <course>90.84</course>
  <speed>0.48</speed>
  <fix>3d</fix>
</trkpt>
<trkpt lat="33.8106122" lon="-118.3937063">
  <ele>-0.236</ele>
  <time>2026-09-02T22:09:11Z</time>
  <course>94.74</course>
  <speed>0.45044422518220834</speed>
  <fix>3d</fix>
</trkpt>
<trkpt lat="33.8106125" lon="-118.3937073">
  <ele>0.17</ele>
  <time>2026-09-02T22:09:11Z</time>
  <course>90.84</course>
  <speed>0.48</speed>
  <fix>3d</fix>
</trkpt>
<trkpt lat="33.8106122" lon="-118.3937058">
  <ele>-0.237</ele>
  <time>2026-09-02T22:09:11Z</time>
  <course>94.73</course>
  <speed>0.45044422518220834</speed>
  <fix>3d</fix>
</trkpt>
<trkpt lat="33.8106125" lon="-118.3937062">
  <ele>0.17</ele>
  <time>2026-09-02T22:09:11Z</time>
  <course>90.89</course>
  <speed>0.48</speed>
  <fix>3d</fix>
</trkpt>
<trkpt lat="33.8106122" lon="-118.3937053">
  <ele>-0.237</ele>
  <time>2026-09-02T22:09:11Z</time>
  <course>94.72</course>
  <speed>0.45044422518220834</speed>
  <fix>3d</fix>
</trkpt>
<trkpt lat="33.8106125" lon="-118.3937062">
  <ele>0.17</ele>
  <time>2026-09-02T22:09:11Z</time>
  <course>90.89</course>
  <speed>0.48</speed>
  <fix>3d</fix>
</trkpt>
<trkpt lat="33.8106122" lon="-118.3937048">
  <ele>-0.238</ele>
  <time>2026-09-02T22:09:11Z</time>
  <course>94.71</course>
  <speed>0.45044422518220834</speed>
  <fix>3d</fix>
</trkpt>
<trkpt lat="33.8106125" lon="-118.3937052">
  <ele>0.16</ele>
  <time>2026-09-02T22:09:11Z</time>
  <course>90.92</course>
  <speed>0.48</speed>
  <fix>3d</fix>
</trkpt>
<trkpt lat="33.8106122" lon="-118.3937042">
  <ele>-0.239</ele>
  <time>2026-09-02T22:09:11Z</time>
  <course>94.7</course>
  <speed>0.45044422518220834</speed>
  <fix>3d</fix>
</trkpt>
<trkpt lat="33.8106125" lon="-118.3937052">
  <ele>0.16</ele>
  <time>2026-09-02T22:09:11Z</time>
  <course>90.92</course>
  <speed>0.48</speed>
  <fix>3d</fix>
</trkpt>
<trkpt lat="33.8106122" lon="-118.3937037">
  <ele>-0.242</ele>
  <time>2026-09-02T22:09:11Z</time>
  <course>94.7</course>
  <speed>0.45044422518220834</speed>
  <fix>3d</fix>
</trkpt>
<trkpt lat="33.8106125" lon="-118.3937041">
  <ele>0.16</ele>
  <time>2026-09-02T22:09:11Z</time>
  <course>90.96</course>
  <speed>0.48</speed>
  <fix>3d</fix>
</trkpt>
<trkpt lat="33.8106122" lon="-118.3937032">
  <ele>-0.245</ele>
  <time>2026-09-02T22:09:11Z</time>
  <course>94.69</course>
  <speed>0.45044422518220834</speed>
  <fix>3d</fix>
</trkpt>
<trkpt lat="33.8106125" lon="-118.3937041">
  <ele>0.16</ele>
  <time>2026-09-02T22:09:11Z</time>
  <course>90.96</course>
  <speed>0.48</speed>
  <fix>3d</fix>
</trkpt>
<trkpt lat="33.8106122" lon="-118.3937027">
  <ele>-0.249</ele>
  <time>2026-09-02T22:09:11Z</time>
  <course>94.69</course>
  <speed>0.45044422518220834</speed>
  <fix>3d</fix>
</trkpt>
<trkpt lat="33.8106124" lon="-118.3937031">
  <ele>0.16</ele>
  <time>2026-09-02T22:09:11Z</time>
  <course>90.99</course>
  <speed>0.48</speed>
  <fix>3d</fix>
</trkpt>
<trkpt lat="33.8106122" lon="-118.3937021">
  <ele>-0.251</ele>
  <time>2026-09-02T22:09:11Z</time>
  <course>94.68</course>
  <speed>0.45044422518220834</speed>
  <fix>3d</fix>
</trkpt>
<trkpt lat="33.8106124" lon="-118.3937031">
  <ele>0.16</ele>
  <time>2026-09-02T22:09:11Z</time>
  <course>90.99</course>
  <speed>0.48</speed>
  <fix>3d</fix>
</trkpt>
<trkpt lat="33.8106122" lon="-118.3937016">
  <ele>-0.252</ele>
  <time>2026-09-02T22:09:11Z</time>
  <course>94.65</course>
  <speed>0.45044422518220834</speed>
  <fix>3d</fix>
</trkpt>
<trkpt lat="33.8106123" lon="-118.393702">
  <ele>0.16</ele>
  <time>2026-09-02T22:09:11Z</time>
  <course>90.94</course>
  <speed>0.48</speed>
  <fix>3d</fix>
</trkpt>
<trkpt lat="33.8106122" lon="-118.3937011">
  <ele>-0.253</ele>
  <time>2026-09-02T22:09:11Z</time>
  <course>94.58</course>
  <speed>0.45044422518220834</speed>
  <fix>3d</fix>
</trkpt>
<trkpt lat="33.8106123" lon="-118.393702">
  <ele>0.16</ele>
  <time>2026-09-02T22:09:11Z</time>
  <course>90.94</course>
  <speed>0.48</speed>
  <fix>3d</fix>
</trkpt>
<trkpt lat="33.8106122" lon="-118.3937006">
  <ele>-0.255</ele>
  <time>2026-09-02T22:09:11Z</time>
  <course>94.47</course>
  <speed>0.450111097397076</speed>
  <fix>3d</fix>
</trkpt>
<trkpt lat="33.8106123" lon="-118.393701">
  <ele>0.16</ele>
  <time>2026-09-02T22:09:11Z</time>
  <course>90.69</course>
  <speed>0.48</speed>
  <fix>3d</fix>
</trkpt>
<trkpt lat="33.8106122" lon="-118.3937">
  <ele>-0.255</ele>
  <time>2026-09-02T22:09:11Z</time>
  <course>94.33</course>
  <speed>0.450111097397076</speed>
  <fix>3d</fix>
</trkpt>
<trkpt lat="33.8106123" lon="-118.393701">
  <ele>0.16</ele>
  <time>2026-09-02T22:09:11Z</time>
  <course>90.69</course>
  <speed>0.48</speed>
  <fix>3d</fix>
</trkpt>
<trkpt lat="33.8106122" lon="-118.3936995">
  <ele>-0.255</ele>
  <time>2026-09-02T22:09:11Z</time>
  <course>94.17</course>
  <speed>0.450111097397076</speed>
  <fix>3d</fix>
</trkpt>
<trkpt lat="33.8106123" lon="-118.3936999">
  <ele>0.15</ele>
  <time>2026-09-02T22:09:11Z</time>
  <course>90.33</course>
  <speed>0.48</speed>
  <fix>3d</fix>
</trkpt>
<trkpt lat="33.8106122" lon="-118.393699">
  <ele>-0.255</ele>
  <time>2026-09-02T22:09:11Z</time>
  <course>94.04</course>
  <speed>0.450111097397076</speed>
  <fix>3d</fix>
</trkpt>
<trkpt lat="33.8106123" lon="-118.3936999">
  <ele>0.15</ele>
  <time>2026-09-02T22:09:11Z</time>
  <course>90.33</course>
  <speed>0.48</speed>
  <fix>3d</fix>
</trkpt>
<trkpt lat="33.8106122" lon="-118.3936984">
  <ele>-0.254</ele>
  <time>2026-09-02T22:09:11Z</time>
  <course>93.9</course>
  <speed>0.450111097397076</speed>
  <fix>3d</fix>
</trkpt>
<trkpt lat="33.8106123" lon="-118.3936989">
  <ele>0.15</ele>
  <time>2026-09-02T22:09:11Z</time>
  <course>90.07</course>
  <speed>0.48</speed>
  <fix>3d</fix>
</trkpt>
<trkpt lat="33.8106122" lon="-118.3936979">
  <ele>-0.254</ele>
  <time>2026-09-02T22:09:11Z</time>
  <course>93.8</course>
  <speed>0.450111097397076</speed>
  <fix>3d</fix>
</trkpt>
<trkpt lat="33.8106123" lon="-118.3936989">
  <ele>0.15</ele>
  <time>2026-09-02T22:09:11Z</time>
  <course>90.07</course>
  <speed>0.48</speed>
  <fix>3d</fix>
</trkpt>
<trkpt lat="33.8106122" lon="-118.3936974">
  <ele>-0.255</ele>
  <time>2026-09-02T22:09:11Z</time>
  <course>93.7</course>
  <speed>0.450111097397076</speed>
  <fix>3d</fix>
</trkpt>
<trkpt lat="33.8106123" lon="-118.3936978">
  <ele>0.15</ele>
  <time>2026-09-02T22:09:11Z</time>
  <course>89.9</course>
  <speed>0.48</speed>
  <fix>3d</fix>
</trkpt>
<trkpt lat="33.8106122" lon="-118.3936969">
  <ele>-0.256</ele>
  <time>2026-09-02T22:09:11Z</time>
  <course>93.62</course>
  <speed>0.450111097397076</speed>
  <fix>3d</fix>
</trkpt>
<trkpt lat="33.8106123" lon="-118.3936978">
  <ele>0.15</ele>
  <time>2026-09-02T22:09:11Z</time>
  <course>89.9</course>
  <speed>0.48</speed>
  <fix>3d</fix>
</trkpt>
<trkpt lat="33.8106122" lon="-118.3936963">
  <ele>-0.257</ele>
  <time>2026-09-02T22:09:11Z</time>
  <course>93.56</course>
  <speed>0.450111097397076</speed>
  <fix>3d</fix>
</trkpt>
<trkpt lat="33.8106123" lon="-118.3936967">
  <ele>0.15</ele>
  <time>2026-09-02T22:09:11Z</time>
  <course>89.74</course>
  <speed>0.48</speed>
  <fix>3d</fix>
</trkpt>
<trkpt lat="33.8106122" lon="-118.3936958">
  <ele>-0.258</ele>
  <time>2026-09-02T22:09:11Z</time>
  <course>93.51</course>
  <speed>0.46010868281309364</speed>
  <fix>3d</fix>
</trkpt>
<trkpt lat="33.8106123" lon="-118.3936967">
  <ele>0.15</ele>
  <time>2026-09-02T22:09:11Z</time>
  <course>89.74</course>
  <speed>0.48</speed>
  <fix>3d</fix>
</trkpt>
<trkpt lat="33.8106122" lon="-118.3936953">
  <ele>-0.258</ele>
  <time>2026-09-02T22:09:11Z</time>
  <course>93.48</course>
  <speed>0.46010868281309364</speed>
  <fix>3d</fix>
</trkpt>
<trkpt lat="33.8106123" lon="-118.3936957">
  <ele>0.15</ele>
  <time>2026-09-02T22:09:11Z</time>
  <course>89.59</course>
  <speed>0.48</speed>
  <fix>3d</fix>
</trkpt>
<trkpt lat="33.8106122" lon="-118.3936947">
  <ele>-0.258</ele>
  <time>2026-09-02T22:09:11Z</time>
  <course>93.46</course>
  <speed>0.46010868281309364</speed>
  <fix>3d</fix>
</trkpt>
<trkpt lat="33.8106123" lon="-118.3936957">
  <ele>0.15</ele>
  <time>2026-09-02T22:09:11Z</time>
  <course>89.59</course>
  <speed>0.48</speed>
  <fix>3d</fix>
</trkpt>
<trkpt lat="33.8106122" lon="-118.3936942">
  <ele>-0.258</ele>
  <time>2026-09-02T22:09:11Z</time>
  <course>93.46</course>
  <speed>0.46010868281309364</speed>
  <fix>3d</fix>
</trkpt>
<trkpt lat="33.8106123" lon="-118.3936946">
  <ele>0.14</ele>
  <time>2026-09-02T22:09:11Z</time>
  <course>89.44</course>
  <speed>0.48</speed>
  <fix>3d</fix>
</trkpt>
<trkpt lat="33.8106122" lon="-118.3936937">
  <ele>-0.259</ele>
  <time>2026-09-02T22:09:11Z</time>
  <course>93.47</course>
  <speed>0.46010868281309364</speed>
  <fix>3d</fix>
</trkpt>
<trkpt lat="33.8106123" lon="-118.3936946">
  <ele>0.14</ele>
  <time>2026-09-02T22:09:11Z</time>
  <course>89.44</course>
  <speed>0.48</speed>
  <fix>3d</fix>
</trkpt>
<trkpt lat="33.8106122" lon="-118.3936931">
  <ele>-0.26</ele>
  <time>2026-09-02T22:09:11Z</time>
  <course>93.48</course>
  <speed>0.46010868281309364</speed>
  <fix>3d</fix>
</trkpt>
<trkpt lat="33.8106123" lon="-118.3936936">
  <ele>0.14</ele>
  <time>2026-09-02T22:09:11Z</time>
  <course>89.3</course>
  <speed>0.48</speed>
  <fix>3d</fix>
</trkpt>
<trkpt lat="33.8106122" lon="-118.3936926">
  <ele>-0.261</ele>
  <time>2026-09-02T22:09:11Z</time>
  <course>93.52</course>
  <speed>0.46010868281309364</speed>
  <fix>3d</fix>
</trkpt>
<trkpt lat="33.8106123" lon="-118.3936936">
  <ele>0.14</ele>
  <time>2026-09-02T22:09:11Z</time>
  <course>89.3</course>
  <speed>0.48</speed>
  <fix>3d</fix>
</trkpt>
<trkpt lat="33.8106122" lon="-118.3936921">
  <ele>-0.262</ele>
  <time>2026-09-02T22:09:11Z</time>
  <course>93.55</course>
  <speed>0.46010868281309364</speed>
  <fix>3d</fix>
</trkpt>
<trkpt lat="33.8106123" lon="-118.3936925">
  <ele>0.14</ele>
  <time>2026-09-02T22:09:11Z</time>
  <course>89.14</course>
  <speed>0.48</speed>
  <fix>3d</fix>
</trkpt>
<trkpt lat="33.8106122" lon="-118.3936916">
  <ele>-0.263</ele>
  <time>2026-09-02T22:09:11Z</time>
  <course>93.57</course>
  <speed>0.46010868281309364</speed>
  <fix>3d</fix>
</trkpt>
<trkpt lat="33.8106123" lon="-118.3936925">
  <ele>0.14</ele>
  <time>2026-09-02T22:09:11Z</time>
  <course>89.14</course>
  <speed>0.48</speed>
  <fix>3d</fix>
</trkpt>
<trkpt lat="33.8106122" lon="-118.393691">
  <ele>-0.264</ele>
  <time>2026-09-02T22:09:11Z</time>
  <course>93.59</course>
  <speed>0.450111097397076</speed>
  <fix>3d</fix>
</trkpt>
<trkpt lat="33.8106123" lon="-118.3936915">
  <ele>0.13</ele>
  <time>2026-09-02T22:09:11Z</time>
  <course>89.04</course>
  <speed>0.48</speed>
  <fix>3d</fix>
</trkpt>
<trkpt lat="33.8106122" lon="-118.3936905">
  <ele>-0.267</ele>
  <time>2026-09-02T22:09:11Z</time>
  <course>93.61</course>
  <speed>0.46010868281309364</speed>
  <fix>3d</fix>
</trkpt>
<trkpt lat="33.8106123" lon="-118.3936915">
  <ele>0.13</ele>
  <time>2026-09-02T22:09:11Z</time>
  <course>89.04</course>
  <speed>0.48</speed>
  <fix>3d</fix>
</trkpt>
<trkpt lat="33.8106122" lon="-118.39369">
  <ele>-0.269</ele>
  <time>2026-09-02T22:09:11Z</time>
  <course>93.63</course>
  <speed>0.450111097397076</speed>
  <fix>3d</fix>
</trkpt>
<trkpt lat="33.8106123" lon="-118.3936904">
  <ele>0.13</ele>
  <time>2026-09-02T22:09:11Z</time>
  <course>89.0</course>
  <speed>0.48</speed>
  <fix>3d</fix>
</trkpt>
<trkpt lat="33.8106122" lon="-118.3936895">
  <ele>-0.272</ele>
  <time>2026-09-02T22:09:11Z</time>
  <course>93.64</course>
  <speed>0.46010868281309364</speed>
  <fix>3d</fix>
</trkpt>
<trkpt lat="33.8106123" lon="-118.3936904">
  <ele>0.13</ele>
  <time>2026-09-02T22:09:11Z</time>
  <course>89.0</course>
  <speed>0.48</speed>
  <fix>3d</fix>
</trkpt>
<trkpt lat="33.8106122" lon="-118.3936889">
  <ele>-0.276</ele>
  <time>2026-09-02T22:09:11Z</time>
  <course>93.65</course>
  <speed>0.46010868281309364</speed>
  <fix>3d</fix>
</trkpt>
<trkpt lat="33.8106123" lon="-118.3936894">
  <ele>0.13</ele>
  <time>2026-09-02T22:09:11Z</time>
  <course>88.98</course>
  <speed>0.48</speed>
  <fix>3d</fix>
</trkpt>
<trkpt lat="33.8106122" lon="-118.3936884">
  <ele>-0.279</ele>
  <time>2026-09-02T22:09:11Z</time>
  <course>93.66</course>
  <speed>0.46010868281309364</speed>
  <fix>3d</fix>
</trkpt>
<trkpt lat="33.8106123" lon="-118.3936894">
  <ele>0.13</ele>
  <time>2026-09-02T22:09:11Z</time>
  <course>88.98</course>
  <speed>0.48</speed>
  <fix>3d</fix>
</trkpt>
<trkpt lat="33.8106122" lon="-118.3936879">
  <ele>-0.281</ele>
  <time>2026-09-02T22:09:11Z</time>
  <course>93.67</course>
  <speed>0.450111097397076</speed>
  <fix>3d</fix>
</trkpt>
<trkpt lat="33.8106123" lon="-118.3936883">
  <ele>0.12</ele>
  <time>2026-09-02T22:09:11Z</time>
  <course>88.95</course>
  <speed>0.48</speed>
  <fix>3d</fix>
</trkpt>
<trkpt lat="33.8106122" lon="-118.3936874">
  <ele>-0.284</ele>
  <time>2026-09-02T22:09:11Z</time>
  <course>93.67</course>
  <speed>0.46010868281309364</speed>
  <fix>3d</fix>
</trkpt>
<trkpt lat="33.8106123" lon="-118.3936883">
  <ele>0.12</ele>
  <time>2026-09-02T22:09:11Z</time>
  <course>88.95</course>
  <speed>0.48</speed>
  <fix>3d</fix>
</trkpt>
<trkpt lat="33.8106122" lon="-118.3936868">
  <ele>-0.286</ele>
  <time>2026-09-02T22:09:11Z</time>
  <course>93.67</course>
  <speed>0.46010868281309364</speed>
  <fix>3d</fix>
</trkpt>
<trkpt lat="33.8106123" lon="-118.3936873">
  <ele>0.12</ele>
  <time>2026-09-02T22:09:11Z</time>
  <course>88.92</course>
  <speed>0.48</speed>
  <fix>3d</fix>
</trkpt>
<trkpt lat="33.8106122" lon="-118.3936863">
  <ele>-0.288</ele>
  <time>2026-09-02T22:09:11Z</time>
  <course>93.67</course>
  <speed>0.46010868281309364</speed>
  <fix>3d</fix>
</trkpt>
<trkpt lat="33.8106123" lon="-118.3936873">
  <ele>0.12</ele>
  <time>2026-09-02T22:09:11Z</time>
  <course>88.92</course>
  <speed>0.48</speed>
  <fix>3d</fix>
</trkpt>
<trkpt lat="33.8106122" lon="-118.3936858">
  <ele>-0.288</ele>
  <time>2026-09-02T22:09:11Z</time>
  <course>93.66</course>
  <speed>0.46010868281309364</speed>
  <fix>3d</fix>
</trkpt>
<trkpt lat="33.8106123" lon="-118.3936862">
  <ele>0.12</ele>
  <time>2026-09-02T22:09:11Z</time>
  <course>88.89</course>
  <speed>0.48</speed>
  <fix>3d</fix>
</trkpt>
<trkpt lat="33.8106122" lon="-118.3936852">
  <ele>-0.287</ele>
  <time>2026-09-02T22:09:11Z</time>
  <course>93.65</course>
  <speed>0.46010868281309364</speed>
  <fix>3d</fix>
</trkpt>
<trkpt lat="33.8106123" lon="-118.3936862">
  <ele>0.12</ele>
  <time>2026-09-02T22:09:11Z</time>
  <course>88.89</course>
  <speed>0.48</speed>
  <fix>3d</fix>
</trkpt>
<trkpt lat="33.8106122" lon="-118.3936847">
  <ele>-0.286</ele>
  <time>2026-09-02T22:09:11Z</time>
  <course>93.65</course>
  <speed>0.46010868281309364</speed>
  <fix>3d</fix>
</trkpt>
<trkpt lat="33.8106124" lon="-118.3936852">
  <ele>0.12</ele>
  <time>2026-09-02T22:09:11Z</time>
  <course>88.85</course>
  <speed>0.48</speed>
  <fix>3d</fix>
</trkpt>
<trkpt lat="33.8106122" lon="-118.3936842">
  <ele>-0.285</ele>
  <time>2026-09-02T22:09:11Z</time>
  <course>93.66</course>
  <speed>0.46010868281309364</speed>
  <fix>3d</fix>
</trkpt>
<trkpt lat="33.8106124" lon="-118.3936852">
  <ele>0.12</ele>
  <time>2026-09-02T22:09:11Z</time>
  <course>88.85</course>
  <speed>0.48</speed>
  <fix>3d</fix>
</trkpt>
<trkpt lat="33.8106122" lon="-118.3936837">
  <ele>-0.284</ele>
  <time>2026-09-02T22:09:11Z</time>
  <course>93.69</course>
  <speed>0.46010868281309364</speed>
  <fix>3d</fix>
</trkpt>
<trkpt lat="33.8106125" lon="-118.3936841">
  <ele>0.12</ele>
  <time>2026-09-02T22:09:11Z</time>
  <course>88.9</course>
  <speed>0.48</speed>
  <fix>3d</fix>
</trkpt>
<trkpt lat="33.8106122" lon="-118.3936831">
  <ele>-0.282</ele>
  <time>2026-09-02T22:09:11Z</time>
  <course>93.74</course>
  <speed>0.450111097397076</speed>
  <fix>3d</fix>
</trkpt>
<trkpt lat="33.8106125" lon="-118.3936841">
  <ele>0.12</ele>
  <time>2026-09-02T22:09:11Z</time>
  <course>88.9</course>
  <speed>0.48</speed>
  <fix>3d</fix>
</trkpt>
<trkpt lat="33.8106122" lon="-118.3936826">
  <ele>-0.279</ele>
  <time>2026-09-02T22:09:11Z</time>
  <course>93.83</course>
  <speed>0.450111097397076</speed>
  <fix>3d</fix>
</trkpt>
<trkpt lat="33.8106125" lon="-118.3936831">
  <ele>0.12</ele>
  <time>2026-09-02T22:09:11Z</time>
  <course>89.18</course>
  <speed>0.48</speed>
  <fix>3d</fix>
</trkpt>
<trkpt lat="33.8106122" lon="-118.3936821">
  <ele>-0.276</ele>
  <time>2026-09-02T22:09:11Z</time>
  <course>93.92</course>
  <speed>0.45044422518220834</speed>
  <fix>3d</fix>
</trkpt>
<trkpt lat="33.8106125" lon="-118.3936831">
  <ele>0.12</ele>
  <time>2026-09-02T22:09:11Z</time>
  <course>89.18</course>
  <speed>0.48</speed>
  <fix>3d</fix>
</trkpt>
<trkpt lat="33.8106122" lon="-118.3936816">
  <ele>-0.274</ele>
  <time>2026-09-02T22:09:11Z</time>
  <course>94.03</course>
  <speed>0.45044422518220834</speed>
  <fix>3d</fix>
</trkpt>
<trkpt lat="33.8106125" lon="-118.393682">
  <ele>0.13</ele>
  <time>2026-09-02T22:09:11Z</time>
  <course>89.58</course>
  <speed>0.48</speed>
  <fix>3d</fix>
</trkpt>
<trkpt lat="33.8106122" lon="-118.393681">
  <ele>-0.273</ele>
  <time>2026-09-02T22:09:11Z</time>
  <course>94.11</course>
  <speed>0.45044422518220834</speed>
  <fix>3d</fix>
</trkpt>
<trkpt lat="33.8106125" lon="-118.393682">
  <ele>0.13</ele>
  <time>2026-09-02T22:09:11Z</time>
  <course>89.58</course>
  <speed>0.48</speed>
  <fix>3d</fix>
</trkpt>
<trkpt lat="33.8106122" lon="-118.3936805">
  <ele>-0.272</ele>
  <time>2026-09-02T22:09:11Z</time>
  <course>94.2</course>
  <speed>0.45044422518220834</speed>
  <fix>3d</fix>
</trkpt>
<trkpt lat="33.8106125" lon="-118.3936809">
  <ele>0.13</ele>
  <time>2026-09-02T22:09:11Z</time>
  <course>89.91</course>
  <speed>0.48</speed>
  <fix>3d</fix>
</trkpt>
<trkpt lat="33.8106122" lon="-118.39368">
  <ele>-0.27</ele>
  <time>2026-09-02T22:09:11Z</time>
  <course>94.26</course>
  <speed>0.45044422518220834</speed>
  <fix>3d</fix>
</trkpt>
<trkpt lat="33.8106125" lon="-118.3936809">
  <ele>0.13</ele>
  <time>2026-09-02T22:09:11Z</time>
  <course>89.91</course>
  <speed>0.48</speed>
  <fix>3d</fix>
</trkpt>
<trkpt lat="33.8106122" lon="-118.3936795">
  <ele>-0.269</ele>
  <time>2026-09-02T22:09:11Z</time>
  <course>94.31</course>
  <speed>0.45044422518220834</speed>
  <fix>3d</fix>
</trkpt>
<trkpt lat="33.8106125" lon="-118.3936799">
  <ele>0.13</ele>
  <time>2026-09-02T22:09:11Z</time>
  <course>90.14</course>
  <speed>0.48</speed>
  <fix>3d</fix>
</trkpt>
<trkpt lat="33.8106122" lon="-118.3936789">
  <ele>-0.268</ele>
  <time>2026-09-02T22:09:11Z</time>
  <course>94.35</course>
  <speed>0.45044422518220834</speed>
  <fix>3d</fix>
</trkpt>
<trkpt lat="33.8106125" lon="-118.3936799">
  <ele>0.13</ele>
  <time>2026-09-02T22:09:11Z</time>
  <course>90.14</course>
  <speed>0.48</speed>
  <fix>3d</fix>
</trkpt>
<trkpt lat="33.8106122" lon="-118.3936784">
  <ele>-0.266</ele>
  <time>2026-09-02T22:09:11Z</time>
  <course>94.39</course>
  <speed>0.45044422518220834</speed>
  <fix>3d</fix>
</trkpt>
<trkpt lat="33.8106125" lon="-118.3936789">
  <ele>0.14</ele>
  <time>2026-09-02T22:09:11Z</time>
  <course>90.29</course>
  <speed>0.48</speed>
  <fix>3d</fix>
</trkpt>
<trkpt lat="33.8106122" lon="-118.3936779">
  <ele>-0.266</ele>
  <time>2026-09-02T22:09:11Z</time>
  <course>94.41</course>
  <speed>0.45044422518220834</speed>
  <fix>3d</fix>
</trkpt>
<trkpt lat="33.8106125" lon="-118.3936789">
  <ele>0.14</ele>
  <time>2026-09-02T22:09:11Z</time>
  <course>90.29</course>
  <speed>0.48</speed>
  <fix>3d</fix>
</trkpt>
<trkpt lat="33.8106122" lon="-118.3936774">
  <ele>-0.265</ele>
  <time>2026-09-02T22:09:11Z</time>
  <course>94.43</course>
  <speed>0.4604345773288535</speed>
  <fix>3d</fix>
</trkpt>
<trkpt lat="33.8106125" lon="-118.3936778">
  <ele>0.14</ele>
  <time>2026-09-02T22:09:11Z</time>
  <course>90.39</course>
  <speed>0.48</speed>
  <fix>3d</fix>
</trkpt>
<trkpt lat="33.8106122" lon="-118.3936768">
  <ele>-0.264</ele>
  <time>2026-09-02T22:09:11Z</time>
  <course>94.44</course>
  <speed>0.4604345773288535</speed>
  <fix>3d</fix>
</trkpt>
<trkpt lat="33.8106125" lon="-118.3936778">
  <ele>0.14</ele>
  <time>2026-09-02T22:09:11Z</time>
  <course>90.39</course>
  <speed>0.48</speed>
  <fix>3d</fix>
</trkpt>
<trkpt lat="33.8106122" lon="-118.3936763">
  <ele>-0.265</ele>
  <time>2026-09-02T22:09:11Z</time>
  <course>94.45</course>
  <speed>0.4604345773288535</speed>
  <fix>3d</fix>
</trkpt>
<trkpt lat="33.8106125" lon="-118.3936768">
  <ele>0.14</ele>
  <time>2026-09-02T22:09:11Z</time>
  <course>90.48</course>
  <speed>0.48</speed>
  <fix>3d</fix>
</trkpt>
<trkpt lat="33.8106122" lon="-118.3936758">
  <ele>-0.265</ele>
  <time>2026-09-02T22:09:11Z</time>
  <course>94.45</course>
  <speed>0.4604345773288535</speed>
  <fix>3d</fix>
</trkpt>
<trkpt lat="33.8106125" lon="-118.3936768">
  <ele>0.14</ele>
  <time>2026-09-02T22:09:11Z</time>
  <course>90.48</course>
  <speed>0.48</speed>
  <fix>3d</fix>
</trkpt>
<trkpt lat="33.8106122" lon="-118.3936753">
  <ele>-0.265</ele>
  <time>2026-09-02T22:09:11Z</time>
  <course>94.46</course>
  <speed>0.4604345773288535</speed>
  <fix>3d</fix>
</trkpt>
<trkpt lat="33.8106125" lon="-118.3936757">
  <ele>0.14</ele>
  <time>2026-09-02T22:09:11Z</time>
  <course>90.55</course>
  <speed>0.48</speed>
  <fix>3d</fix>
</trkpt>
<trkpt lat="33.8106122" lon="-118.3936747">
  <ele>-0.265</ele>
  <time>2026-09-02T22:09:11Z</time>
  <course>94.46</course>
  <speed>0.4604345773288535</speed>
  <fix>3d</fix>
</trkpt>
<trkpt lat="33.8106125" lon="-118.3936757">
  <ele>0.14</ele>
  <time>2026-09-02T22:09:11Z</time>
  <course>90.55</course>
  <speed>0.48</speed>
  <fix>3d</fix>
</trkpt>
<trkpt lat="33.8106122" lon="-118.3936742">
  <ele>-0.264</ele>
  <time>2026-09-02T22:09:11Z</time>
  <course>94.45</course>
  <speed>0.4604345773288535</speed>
  <fix>3d</fix>
</trkpt>
<trkpt lat="33.8106125" lon="-118.3936747">
  <ele>0.14</ele>
  <time>2026-09-02T22:09:11Z</time>
  <course>90.6</course>
  <speed>0.48</speed>
  <fix>3d</fix>
</trkpt>
<trkpt lat="33.8106122" lon="-118.3936737">
  <ele>-0.264</ele>
  <time>2026-09-02T22:09:11Z</time>
  <course>94.45</course>
  <speed>0.4604345773288535</speed>
  <fix>3d</fix>
</trkpt>
<trkpt lat="33.8106125" lon="-118.3936747">
  <ele>0.14</ele>
  <time>2026-09-02T22:09:11Z</time>
  <course>90.6</course>
  <speed>0.48</speed>
  <fix>3d</fix>
</trkpt>
<trkpt lat="33.8106122" lon="-118.3936731">
  <ele>-0.263</ele>
  <time>2026-09-02T22:09:11Z</time>
  <course>94.45</course>
  <speed>0.4604345773288535</speed>
  <fix>3d</fix>
</trkpt>
<trkpt lat="33.8106125" lon="-118.3936736">
  <ele>0.14</ele>
  <time>2026-09-02T22:09:11Z</time>
  <course>90.65</course>
  <speed>0.48</speed>
  <fix>3d</fix>
</trkpt>
<trkpt lat="33.8106122" lon="-118.3936726">
  <ele>-0.263</ele>
  <time>2026-09-02T22:09:11Z</time>
  <course>94.44</course>
  <speed>0.4604345773288535</speed>
  <fix>3d</fix>
</trkpt>
<trkpt lat="33.8106125" lon="-118.3936736">
  <ele>0.14</ele>
  <time>2026-09-02T22:09:11Z</time>
  <course>90.65</course>
  <speed>0.48</speed>
  <fix>3d</fix>
</trkpt>
<trkpt lat="33.8106122" lon="-118.3936721">
  <ele>-0.263</ele>
  <time>2026-09-02T22:09:11Z</time>
  <course>94.44</course>
  <speed>0.4604345773288535</speed>
  <fix>3d</fix>
</trkpt>
<trkpt lat="33.8106125" lon="-118.3936726">
  <ele>0.15</ele>
  <time>2026-09-02T22:09:11Z</time>
  <course>90.7</course>
  <speed>0.48</speed>
  <fix>3d</fix>
</trkpt>
<trkpt lat="33.8106122" lon="-118.3936716">
  <ele>-0.262</ele>
  <time>2026-09-02T22:09:11Z</time>
  <course>94.43</course>
  <speed>0.4604345773288535</speed>
  <fix>3d</fix>
</trkpt>
<trkpt lat="33.8106125" lon="-118.3936726">
  <ele>0.15</ele>
  <time>2026-09-02T22:09:11Z</time>
  <course>90.7</course>
  <speed>0.48</speed>
  <fix>3d</fix>
</trkpt>
<trkpt lat="33.8106122" lon="-118.393671">
  <ele>-0.262</ele>
  <time>2026-09-02T22:09:11Z</time>
  <course>94.43</course>
  <speed>0.4604345773288535</speed>
  <fix>3d</fix>
</trkpt>
<trkpt lat="33.8106125" lon="-118.3936715">
  <ele>0.15</ele>
  <time>2026-09-02T22:09:11Z</time>
  <course>90.74</course>
  <speed>0.48</speed>
  <fix>3d</fix>
</trkpt>
<trkpt lat="33.8106122" lon="-118.3936705">
  <ele>-0.261</ele>
  <time>2026-09-02T22:09:11Z</time>
  <course>94.42</course>
  <speed>0.4604345773288535</speed>
  <fix>3d</fix>
</trkpt>
<trkpt lat="33.8106125" lon="-118.3936715">
  <ele>0.15</ele>
  <time>2026-09-02T22:09:11Z</time>
  <course>90.74</course>
  <speed>0.48</speed>
  <fix>3d</fix>
</trkpt>
<trkpt lat="33.8106122" lon="-118.39367">
  <ele>-0.26</ele>
  <time>2026-09-02T22:09:11Z</time>
  <course>94.41</course>
  <speed>0.4604345773288535</speed>
  <fix>3d</fix>
</trkpt>
<trkpt lat="33.8106125" lon="-118.3936705">
  <ele>0.15</ele>
  <time>2026-09-02T22:09:11Z</time>
  <course>90.78</course>
  <speed>0.48</speed>
  <fix>3d</fix>
</trkpt>
<trkpt lat="33.8106122" lon="-118.3936695">
  <ele>-0.259</ele>
  <time>2026-09-02T22:09:11Z</time>
  <course>94.41</course>
  <speed>0.4604345773288535</speed>
  <fix>3d</fix>
</trkpt>
<trkpt lat="33.8106125" lon="-118.3936705">
  <ele>0.15</ele>
  <time>2026-09-02T22:09:11Z</time>
  <course>90.78</course>
  <speed>0.48</speed>
  <fix>3d</fix>
</trkpt>
<trkpt lat="33.8106122" lon="-118.3936689">
  <ele>-0.258</ele>
  <time>2026-09-02T22:09:11Z</time>
  <course>94.41</course>
  <speed>0.4604345773288535</speed>
  <fix>3d</fix>
</trkpt>
<trkpt lat="33.8106125" lon="-118.3936694">
  <ele>0.15</ele>
  <time>2026-09-02T22:09:11Z</time>
  <course>90.82</course>
  <speed>0.48</speed>
  <fix>3d</fix>
</trkpt>
<trkpt lat="33.8106122" lon="-118.3936684">
  <ele>-0.257</ele>
  <time>2026-09-02T22:09:11Z</time>
  <course>94.41</course>
  <speed>0.4604345773288535</speed>
  <fix>3d</fix>
</trkpt>
<trkpt lat="33.8106125" lon="-118.3936694">
  <ele>0.15</ele>
  <time>2026-09-02T22:09:11Z</time>
  <course>90.82</course>
  <speed>0.48</speed>
  <fix>3d</fix>
</trkpt>
<trkpt lat="33.8106122" lon="-118.3936679">
  <ele>-0.257</ele>
  <time>2026-09-02T22:09:11Z</time>
  <course>94.4</course>
  <speed>0.4604345773288535</speed>
  <fix>3d</fix>
</trkpt>
<trkpt lat="33.8106125" lon="-118.3936684">
  <ele>0.15</ele>
  <time>2026-09-02T22:09:11Z</time>
  <course>90.85</course>
  <speed>0.48</speed>
  <fix>3d</fix>
</trkpt>
<trkpt lat="33.8106122" lon="-118.3936674">
  <ele>-0.257</ele>
  <time>2026-09-02T22:09:11Z</time>
  <course>94.4</course>
  <speed>0.4604345773288535</speed>
  <fix>3d</fix>
</trkpt>
<trkpt lat="33.8106125" lon="-118.3936684">
  <ele>0.15</ele>
  <time>2026-09-02T22:09:11Z</time>
  <course>90.85</course>
  <speed>0.48</speed>
  <fix>3d</fix>
</trkpt>
<trkpt lat="33.8106122" lon="-118.3936668">
  <ele>-0.255</ele>
  <time>2026-09-02T22:09:11Z</time>
  <course>94.4</course>
  <speed>0.4604345773288535</speed>
  <fix>3d</fix>
</trkpt>
<trkpt lat="33.8106125" lon="-118.3936674">
  <ele>0.15</ele>
  <time>2026-09-02T22:09:11Z</time>
  <course>90.89</course>
  <speed>0.48</speed>
  <fix>3d</fix>
</trkpt>
<trkpt lat="33.8106122" lon="-118.3936663">
  <ele>-0.254</ele>
  <time>2026-09-02T22:09:11Z</time>
  <course>94.39</course>
  <speed>0.4604345773288535</speed>
  <fix>3d</fix>
</trkpt>
<trkpt lat="33.8106125" lon="-118.3936674">
  <ele>0.15</ele>
  <time>2026-09-02T22:09:11Z</time>
  <course>90.89</course>
  <speed>0.48</speed>
  <fix>3d</fix>
</trkpt>
<trkpt lat="33.8106122" lon="-118.3936658">
  <ele>-0.252</ele>
  <time>2026-09-02T22:09:11Z</time>
  <course>94.39</course>
  <speed>0.45044422518220834</speed>
  <fix>3d</fix>
</trkpt>
<trkpt lat="33.8106125" lon="-118.3936663">
  <ele>0.15</ele>
  <time>2026-09-02T22:09:11Z</time>
  <course>90.92</course>
  <speed>0.48</speed>
  <fix>3d</fix>
</trkpt>
<trkpt lat="33.8106122" lon="-118.3936653">
  <ele>-0.25</ele>
  <time>2026-09-02T22:09:11Z</time>
  <course>94.38</course>
  <speed>0.45044422518220834</speed>
  <fix>3d</fix>
</trkpt>
<trkpt lat="33.8106125" lon="-118.3936663">
  <ele>0.15</ele>
  <time>2026-09-02T22:09:11Z</time>
  <course>90.92</course>
  <speed>0.48</speed>
  <fix>3d</fix>
</trkpt>
<trkpt lat="33.8106122" lon="-118.3936648">
  <ele>-0.247</ele>
  <time>2026-09-02T22:09:11Z</time>
  <course>94.37</course>
  <speed>0.45044422518220834</speed>
  <fix>3d</fix>
</trkpt>
<trkpt lat="33.8106124" lon="-118.3936653">
  <ele>0.15</ele>
  <time>2026-09-02T22:09:11Z</time>
  <course>90.96</course>
  <speed>0.48</speed>
  <fix>3d</fix>
</trkpt>
<trkpt lat="33.8106122" lon="-118.3936642">
  <ele>-0.245</ele>
  <time>2026-09-02T22:09:11Z</time>
  <course>94.35</course>
  <speed>0.4604345773288535</speed>
  <fix>3d</fix>
</trkpt>
<trkpt lat="33.8106124" lon="-118.3936653">
  <ele>0.15</ele>
  <time>2026-09-02T22:09:11Z</time>
  <course>90.96</course>
  <speed>0.48</speed>
  <fix>3d</fix>
</trkpt>
<trkpt lat="33.8106122" lon="-118.3936637">
  <ele>-0.243</ele>
  <time>2026-09-02T22:09:11Z</time>
  <course>94.31</course>
  <speed>0.4604345773288535</speed>
  <fix>3d</fix>
</trkpt>
<trkpt lat="33.8106123" lon="-118.3936642">
  <ele>0.15</ele>
  <time>2026-09-02T22:09:11Z</time>
  <course>90.92</course>
  <speed>0.48</speed>
  <fix>3d</fix>
</trkpt>
<trkpt lat="33.8106122" lon="-118.3936632">
  <ele>-0.242</ele>
  <time>2026-09-02T22:09:11Z</time>
  <course>94.25</course>
  <speed>0.4604345773288535</speed>
  <fix>3d</fix>
</trkpt>
<trkpt lat="33.8106123" lon="-118.3936642">
  <ele>0.15</ele>
  <time>2026-09-02T22:09:11Z</time>
  <course>90.92</course>
  <speed>0.48</speed>
  <fix>3d</fix>
</trkpt>
<trkpt lat="33.8106122" lon="-118.3936627">
  <ele>-0.242</ele>
  <time>2026-09-02T22:09:11Z</time>
  <course>94.13</course>
  <speed>0.46010868281309364</speed>
  <fix>3d</fix>
</trkpt>
<trkpt lat="33.8106123" lon="-118.3936632">
  <ele>0.15</ele>
  <time>2026-09-02T22:09:11Z</time>
  <course>90.66</course>
  <speed>0.48</speed>
  <fix>3d</fix>
</trkpt>
<trkpt lat="33.8106122" lon="-118.3936621">
  <ele>-0.242</ele>
  <time>2026-09-02T22:09:11Z</time>
  <course>94.0</course>
  <speed>0.46010868281309364</speed>
  <fix>3d</fix>
</trkpt>
<trkpt lat="33.8106123" lon="-118.3936632">
  <ele>0.15</ele>
  <time>2026-09-02T22:09:11Z</time>
  <course>90.66</course>
  <speed>0.48</speed>
  <fix>3d</fix>
</trkpt>
<trkpt lat="33.8106122" lon="-118.3936616">
  <ele>-0.243</ele>
  <time>2026-09-02T22:09:11Z</time>
  <course>93.84</course>
  <speed>0.46010868281309364</speed>
  <fix>3d</fix>
</trkpt>
<trkpt lat="33.8106123" lon="-118.3936621">
  <ele>0.15</ele>
  <time>2026-09-02T22:09:11Z</time>
  <course>90.29</course>
  <speed>0.48</speed>
  <fix>3d</fix>
</trkpt>
<trkpt lat="33.8106122" lon="-118.3936611">
  <ele>-0.245</ele>
  <time>2026-09-02T22:09:11Z</time>
  <course>93.71</course>
  <speed>0.46010868281309364</speed>
  <fix>3d</fix>
</trkpt>
<trkpt lat="33.8106123" lon="-118.3936621">
  <ele>0.15</ele>
  <time>2026-09-02T22:09:11Z</time>
  <course>90.29</course>
  <speed>0.48</speed>
  <fix>3d</fix>
</trkpt>
<trkpt lat="33.8106122" lon="-118.3936606">
  <ele>-0.246</ele>
  <time>2026-09-02T22:09:11Z</time>
  <course>93.57</course>
  <speed>0.46010868281309364</speed>
  <fix>3d</fix>
</trkpt>
<trkpt lat="33.8106123" lon="-118.393661">
  <ele>0.15</ele>
  <time>2026-09-02T22:09:11Z</time>
  <course>90.01</course>
  <speed>0.48</speed>
  <fix>3d</fix>
</trkpt>
<trkpt lat="33.8106122" lon="-118.39366">
  <ele>-0.247</ele>
  <time>2026-09-02T22:09:11Z</time>
  <course>93.47</course>
  <speed>0.46010868281309364</speed>
  <fix>3d</fix>
</trkpt>
<trkpt lat="33.8106123" lon="-118.393661">
  <ele>0.15</ele>
  <time>2026-09-02T22:09:11Z</time>
  <course>90.01</course>
  <speed>0.48</speed>
  <fix>3d</fix>
</trkpt>
<trkpt lat="33.8106122" lon="-118.3936595">
  <ele>-0.248</ele>
  <time>2026-09-02T22:09:11Z</time>
  <course>93.37</course>
  <speed>0.46010868281309364</speed>
  <fix>3d</fix>
</trkpt>
<trkpt lat="33.8106123" lon="-118.39366">
  <ele>0.15</ele>
  <time>2026-09-02T22:09:11Z</time>
  <course>89.83</course>
  <speed>0.48</speed>
  <fix>3d</fix>
</trkpt>
<trkpt lat="33.8106122" lon="-118.393659">
  <ele>-0.248</ele>
  <time>2026-09-02T22:09:11Z</time>
  <course>93.31</course>
  <speed>0.46010868281309364</speed>
  <fix>3d</fix>
</trkpt>
<trkpt lat="33.8106123" lon="-118.39366">
  <ele>0.15</ele>
  <time>2026-09-02T22:09:11Z</time>
  <course>89.83</course>
  <speed>0.48</speed>
  <fix>3d</fix>
</trkpt>
<trkpt lat="33.8106122" lon="-118.3936584">
  <ele>-0.249</ele>
  <time>2026-09-02T22:09:11Z</time>
  <course>93.24</course>
  <speed>0.46010868281309364</speed>
  <fix>3d</fix>
</trkpt>
<trkpt lat="33.8106123" lon="-118.3936589">
  <ele>0.15</ele>
  <time>2026-09-02T22:09:11Z</time>
  <course>89.67</course>
  <speed>0.48</speed>
  <fix>3d</fix>
</trkpt>
<trkpt lat="33.8106122" lon="-118.3936579">
  <ele>-0.249</ele>
  <time>2026-09-02T22:09:11Z</time>
  <course>93.21</course>
  <speed>0.46010868281309364</speed>
  <fix>3d</fix>
</trkpt>
<trkpt lat="33.8106123" lon="-118.3936589">
  <ele>0.15</ele>
  <time>2026-09-02T22:09:11Z</time>
  <course>89.67</course>
  <speed>0.48</speed>
  <fix>3d</fix>
</trkpt>
<trkpt lat="33.8106122" lon="-118.3936574">
  <ele>-0.249</ele>
  <time>2026-09-02T22:09:11Z</time>
  <course>93.18</course>
  <speed>0.46010868281309364</speed>
  <fix>3d</fix>
</trkpt>
<trkpt lat="33.8106123" lon="-118.3936579">
  <ele>0.15</ele>
  <time>2026-09-02T22:09:11Z</time>
  <course>89.5</course>
  <speed>0.48</speed>
  <fix>3d</fix>
</trkpt>
<trkpt lat="33.8106122" lon="-118.3936569">
  <ele>-0.25</ele>
  <time>2026-09-02T22:09:11Z</time>
  <course>93.18</course>
  <speed>0.46010868281309364</speed>
  <fix>3d</fix>
</trkpt>
<trkpt lat="33.8106123" lon="-118.3936579">
  <ele>0.15</ele>
  <time>2026-09-02T22:09:11Z</time>
  <course>89.5</course>
  <speed>0.48</speed>
  <fix>3d</fix>
</trkpt>
<trkpt lat="33.8106122" lon="-118.3936563">
  <ele>-0.252</ele>
  <time>2026-09-02T22:09:11Z</time>
  <course>93.18</course>
  <speed>0.46010868281309364</speed>
  <fix>3d</fix>
</trkpt>
<trkpt lat="33.8106123" lon="-118.3936568">
  <ele>0.15</ele>
  <time>2026-09-02T22:09:11Z</time>
  <course>89.35</course>
  <speed>0.48</speed>
  <fix>3d</fix>
</trkpt>
<trkpt lat="33.8106122" lon="-118.3936558">
  <ele>-0.254</ele>
  <time>2026-09-02T22:09:11Z</time>
  <course>93.2</course>
  <speed>0.46010868281309364</speed>
  <fix>3d</fix>
</trkpt>
<trkpt lat="33.8106123" lon="-118.3936568">
  <ele>0.15</ele>
  <time>2026-09-02T22:09:11Z</time>
  <course>89.35</course>
  <speed>0.48</speed>
  <fix>3d</fix>
</trkpt>
<trkpt lat="33.8106122" lon="-118.3936553">
  <ele>-0.257</ele>
  <time>2026-09-02T22:09:11Z</time>
  <course>93.23</course>
  <speed>0.46010868281309364</speed>
  <fix>3d</fix>
</trkpt>
<trkpt lat="33.8106123" lon="-118.3936558">
  <ele>0.14</ele>
  <time>2026-09-02T22:09:11Z</time>
  <course>89.19</course>
  <speed>0.48</speed>
  <fix>3d</fix>
</trkpt>
<trkpt lat="33.8106122" lon="-118.3936548">
  <ele>-0.259</ele>
  <time>2026-09-02T22:09:11Z</time>
  <course>93.25</course>
  <speed>0.46010868281309364</speed>
  <fix>3d</fix>
</trkpt>
<trkpt lat="33.8106123" lon="-118.3936558">
  <ele>0.14</ele>
  <time>2026-09-02T22:09:11Z</time>
  <course>89.19</course>
  <speed>0.48</speed>
  <fix>3d</fix>
</trkpt>
<trkpt lat="33.8106122" lon="-118.3936542">
  <ele>-0.261</ele>
  <time>2026-09-02T22:09:11Z</time>
  <course>93.27</course>
  <speed>0.46010868281309364</speed>
  <fix>3d</fix>
</trkpt>
<trkpt lat="33.8106123" lon="-118.3936547">
  <ele>0.14</ele>
  <time>2026-09-02T22:09:11Z</time>
  <course>89.05</course>
  <speed>0.48</speed>
  <fix>3d</fix>
</trkpt>
<trkpt lat="33.8106122" lon="-118.3936537">
  <ele>-0.263</ele>
  <time>2026-09-02T22:09:11Z</time>
  <course>93.3</course>
  <speed>0.46010868281309364</speed>
  <fix>3d</fix>
</trkpt>
<trkpt lat="33.8106123" lon="-118.3936547">
  <ele>0.14</ele>
  <time>2026-09-02T22:09:11Z</time>
  <course>89.05</course>
  <speed>0.48</speed>
  <fix>3d</fix>
</trkpt>
<trkpt lat="33.8106122" lon="-118.3936532">
  <ele>-0.264</ele>
  <time>2026-09-02T22:09:11Z</time>
  <course>93.32</course>
  <speed>0.46010868281309364</speed>
  <fix>3d</fix>
</trkpt>
<trkpt lat="33.8106123" lon="-118.3936536">
  <ele>0.14</ele>
  <time>2026-09-02T22:09:11Z</time>
  <course>88.96</course>
  <speed>0.48</speed>
  <fix>3d</fix>
</trkpt>
<trkpt lat="33.8106122" lon="-118.3936526">
  <ele>-0.266</ele>
  <time>2026-09-02T22:09:11Z</time>
  <course>93.35</course>
  <speed>0.46010868281309364</speed>
  <fix>3d</fix>
</trkpt>
<trkpt lat="33.8106123" lon="-118.3936536">
  <ele>0.14</ele>
  <time>2026-09-02T22:09:11Z</time>
  <course>88.96</course>
  <speed>0.48</speed>
  <fix>3d</fix>
</trkpt>
<trkpt lat="33.8106122" lon="-118.3936521">
  <ele>-0.268</ele>
  <time>2026-09-02T22:09:11Z</time>
  <course>93.37</course>
  <speed>0.46010868281309364</speed>
  <fix>3d</fix>
</trkpt>
<trkpt lat="33.8106123" lon="-118.3936526">
  <ele>0.14</ele>
  <time>2026-09-02T22:09:11Z</time>
  <course>88.91</course>
  <speed>0.48</speed>
  <fix>3d</fix>
</trkpt>
<trkpt lat="33.8106122" lon="-118.3936516">
  <ele>-0.27</ele>
  <time>2026-09-02T22:09:11Z</time>
  <course>93.38</course>
  <speed>0.46010868281309364</speed>
  <fix>3d</fix>
</trkpt>
<trkpt lat="33.8106123" lon="-118.3936526">
  <ele>0.14</ele>
  <time>2026-09-02T22:09:11Z</time>
  <course>88.91</course>
  <speed>0.48</speed>
  <fix>3d</fix>
</trkpt>
<trkpt lat="33.8106122" lon="-118.3936511">
  <ele>-0.271</ele>
  <time>2026-09-02T22:09:11Z</time>
  <course>93.4</course>
  <speed>0.46010868281309364</speed>
  <fix>3d</fix>
</trkpt>
<trkpt lat="33.8106123" lon="-118.3936516">
  <ele>0.14</ele>
  <time>2026-09-02T22:09:11Z</time>
  <course>88.88</course>
  <speed>0.48</speed>
  <fix>3d</fix>
</trkpt>
<trkpt lat="33.8106122" lon="-118.3936505">
  <ele>-0.272</ele>
  <time>2026-09-02T22:09:11Z</time>
  <course>93.42</course>
  <speed>0.46010868281309364</speed>
  <fix>3d</fix>
</trkpt>
<trkpt lat="33.8106123" lon="-118.3936516">
  <ele>0.14</ele>
  <time>2026-09-02T22:09:11Z</time>
  <course>88.88</course>
  <speed>0.48</speed>
  <fix>3d</fix>
</trkpt>
<trkpt lat="33.8106122" lon="-118.39365">
  <ele>-0.272</ele>
  <time>2026-09-02T22:09:11Z</time>
  <course>93.44</course>
  <speed>0.46010868281309364</speed>
  <fix>3d</fix>
</trkpt>
<trkpt lat="33.8106123" lon="-118.3936505">
  <ele>0.14</ele>
  <time>2026-09-02T22:09:11Z</time>
  <course>88.85</course>
  <speed>0.48</speed>
  <fix>3d</fix>
</trkpt>
<trkpt lat="33.8106122" lon="-118.3936495">
  <ele>-0.273</ele>
  <time>2026-09-02T22:09:11Z</time>
  <course>93.45</course>
  <speed>0.46010868281309364</speed>
  <fix>3d</fix>
</trkpt>
<trkpt lat="33.8106123" lon="-118.3936505">
  <ele>0.14</ele>
  <time>2026-09-02T22:09:11Z</time>
  <course>88.85</course>
  <speed>0.48</speed>
  <fix>3d</fix>
</trkpt>
<trkpt lat="33.8106122" lon="-118.393649">
  <ele>-0.274</ele>
  <time>2026-09-02T22:09:11Z</time>
  <course>93.45</course>
  <speed>0.46010868281309364</speed>
  <fix>3d</fix>
</trkpt>
<trkpt lat="33.8106123" lon="-118.3936495">
  <ele>0.13</ele>
  <time>2026-09-02T22:09:11Z</time>
  <course>88.81</course>
  <speed>0.48</speed>
  <fix>3d</fix>
</trkpt>
<trkpt lat="33.8106122" lon="-118.3936484">
  <ele>-0.275</ele>
  <time>2026-09-02T22:09:11Z</time>
  <course>93.45</course>
  <speed>0.46010868281309364</speed>
  <fix>3d</fix>
</trkpt>
<trkpt lat="33.8106123" lon="-118.3936495">
  <ele>0.13</ele>
  <time>2026-09-02T22:09:11Z</time>
  <course>88.81</course>
  <speed>0.48</speed>
  <fix>3d</fix>
</trkpt>
<trkpt lat="33.8106122" lon="-118.3936479">
  <ele>-0.276</ele>
  <time>2026-09-02T22:09:11Z</time>
  <course>93.45</course>
  <speed>0.46010868281309364</speed>
  <fix>3d</fix>
</trkpt>
<trkpt lat="33.8106124" lon="-118.3936484">
  <ele>0.13</ele>
  <time>2026-09-02T22:09:11Z</time>
  <course>88.77</course>
  <speed>0.48</speed>
  <fix>3d</fix>
</trkpt>
<trkpt lat="33.8106122" lon="-118.3936474">
  <ele>-0.277</ele>
  <time>2026-09-02T22:09:11Z</time>
  <course>93.46</course>
  <speed>0.46010868281309364</speed>
  <fix>3d</fix>
</trkpt>
<trkpt lat="33.8106124" lon="-118.3936484">
  <ele>0.13</ele>
  <time>2026-09-02T22:09:11Z</time>
  <course>88.77</course>
  <speed>0.48</speed>
  <fix>3d</fix>
</trkpt>
<trkpt lat="33.8106122" lon="-118.3936469">
  <ele>-0.277</ele>
  <time>2026-09-02T22:09:11Z</time>
  <course>93.5</course>
  <speed>0.46010868281309364</speed>
  <fix>3d</fix>
</trkpt>
<trkpt lat="33.8106125" lon="-118.3936474">
  <ele>0.13</ele>
  <time>2026-09-02T22:09:11Z</time>
  <course>88.83</course>
  <speed>0.48</speed>
  <fix>3d</fix>
</trkpt>
<trkpt lat="33.8106122" lon="-118.3936463">
  <ele>-0.278</ele>
  <time>2026-09-02T22:09:11Z</time>
  <course>93.55</course>
  <speed>0.450111097397076</speed>
  <fix>3d</fix>
</trkpt>
<trkpt lat="33.8106125" lon="-118.3936474">
  <ele>0.13</ele>
  <time>2026-09-02T22:09:11Z</time>
  <course>88.83</course>
  <speed>0.48</speed>
  <fix>3d</fix>
</trkpt>
<trkpt lat="33.8106122" lon="-118.3936458">
  <ele>-0.28</ele>
  <time>2026-09-02T22:09:11Z</time>
  <course>93.65</course>
  <speed>0.45044422518220834</speed>
  <fix>3d</fix>
</trkpt>
<trkpt lat="33.8106125" lon="-118.3936463">
  <ele>0.13</ele>
  <time>2026-09-02T22:09:11Z</time>
  <course>89.12</course>
  <speed>0.48</speed>
  <fix>3d</fix>
</trkpt>
<trkpt lat="33.8106122" lon="-118.3936453">
  <ele>-0.282</ele>
  <time>2026-09-02T22:09:11Z</time>
  <course>93.74</course>
  <speed>0.45044422518220834</speed>
  <fix>3d</fix>
</trkpt>
<trkpt lat="33.8106125" lon="-118.3936463">
  <ele>0.13</ele>
  <time>2026-09-02T22:09:11Z</time>
  <course>89.12</course>
  <speed>0.48</speed>
  <fix>3d</fix>
</trkpt>
<trkpt lat="33.8106122" lon="-118.3936448">
  <ele>-0.285</ele>
  <time>2026-09-02T22:09:11Z</time>
  <course>93.85</course>
  <speed>0.45044422518220834</speed>
  <fix>3d</fix>
</trkpt>
<trkpt lat="33.8106125" lon="-118.3936453">
  <ele>0.12</ele>
  <time>2026-09-02T22:09:11Z</time>
  <course>89.51</course>
  <speed>0.48</speed>
  <fix>3d</fix>
</trkpt>
<trkpt lat="33.8106122" lon="-118.3936442">
  <ele>-0.289</ele>
  <time>2026-09-02T22:09:11Z</time>
  <course>93.94</course>
  <speed>0.45044422518220834</speed>
  <fix>3d</fix>
</trkpt>
<trkpt lat="33.8106125" lon="-118.3936453">
  <ele>0.12</ele>
  <time>2026-09-02T22:09:11Z</time>
  <course>89.51</course>
  <speed>0.48</speed>
  <fix>3d</fix>
</trkpt>
<trkpt lat="33.8106122" lon="-118.3936437">
  <ele>-0.292</ele>
  <time>2026-09-02T22:09:11Z</time>
  <course>94.02</course>
  <speed>0.45044422518220834</speed>
  <fix>3d</fix>
</trkpt>
<trkpt lat="33.8106125" lon="-118.3936442">
  <ele>0.12</ele>
  <time>2026-09-02T22:09:11Z</time>
  <course>89.83</course>
  <speed>0.48</speed>
  <fix>3d</fix>
</trkpt>
<trkpt lat="33.8106122" lon="-118.3936432">
  <ele>-0.293</ele>
  <time>2026-09-02T22:09:11Z</time>
  <course>94.08</course>
  <speed>0.45044422518220834</speed>
  <fix>3d</fix>
</trkpt>
<trkpt lat="33.8106125" lon="-118.3936442">
  <ele>0.12</ele>
  <time>2026-09-02T22:09:11Z</time>
  <course>89.83</course>
  <speed>0.48</speed>
  <fix>3d</fix>
</trkpt>
<trkpt lat="33.8106122" lon="-118.3936427">
  <ele>-0.292</ele>
  <time>2026-09-02T22:09:11Z</time>
  <course>94.14</course>
  <speed>0.45044422518220834</speed>
  <fix>3d</fix>
</trkpt>
<trkpt lat="33.8106125" lon="-118.3936432">
  <ele>0.12</ele>
  <time>2026-09-02T22:09:11Z</time>
  <course>90.06</course>
  <speed>0.48</speed>
  <fix>3d</fix>
</trkpt>
<trkpt lat="33.8106122" lon="-118.3936422">
  <ele>-0.29</ele>
  <time>2026-09-02T22:09:11Z</time>
  <course>94.18</course>
  <speed>0.45044422518220834</speed>
  <fix>3d</fix>
</trkpt>
<trkpt lat="33.8106125" lon="-118.3936432">
  <ele>0.12</ele>
  <time>2026-09-02T22:09:11Z</time>
  <course>90.06</course>
  <speed>0.48</speed>
  <fix>3d</fix>
</trkpt>
<trkpt lat="33.8106122" lon="-118.3936416">
  <ele>-0.287</ele>
  <time>2026-09-02T22:09:11Z</time>
  <course>94.22</course>
  <speed>0.45044422518220834</speed>
  <fix>3d</fix>
</trkpt>
<trkpt lat="33.8106125" lon="-118.3936421">
  <ele>0.12</ele>
  <time>2026-09-02T22:09:11Z</time>
  <course>90.21</course>
  <speed>0.48</speed>
  <fix>3d</fix>
</trkpt>
<trkpt lat="33.8106122" lon="-118.3936411">
  <ele>-0.284</ele>
  <time>2026-09-02T22:09:11Z</time>
  <course>94.23</course>
  <speed>0.45044422518220834</speed>
  <fix>3d</fix>
</trkpt>
<trkpt lat="33.8106125" lon="-118.3936421">
  <ele>0.12</ele>
  <time>2026-09-02T22:09:11Z</time>
  <course>90.21</course>
  <speed>0.48</speed>
  <fix>3d</fix>
</trkpt>
<trkpt lat="33.8106122" lon="-118.3936406">
  <ele>-0.282</ele>
  <time>2026-09-02T22:09:11Z</time>
  <course>94.24</course>
  <speed>0.45044422518220834</speed>
  <fix>3d</fix>
</trkpt>
<trkpt lat="33.8106125" lon="-118.3936411">
  <ele>0.12</ele>
  <time>2026-09-02T22:09:11Z</time>
  <course>90.32</course>
  <speed>0.48</speed>
  <fix>3d</fix>
</trkpt>
<trkpt lat="33.8106122" lon="-118.3936401">
  <ele>-0.28</ele>
  <time>2026-09-02T22:09:11Z</time>
  <course>94.25</course>
  <speed>0.45044422518220834</speed>
  <fix>3d</fix>
</trkpt>
<trkpt lat="33.8106125" lon="-118.3936411">
  <ele>0.12</ele>
  <time>2026-09-02T22:09:11Z</time>
  <course>90.32</course>
  <speed>0.48</speed>
  <fix>3d</fix>
</trkpt>
<trkpt lat="33.8106122" lon="-118.3936396">
  <ele>-0.277</ele>
  <time>2026-09-02T22:09:11Z</time>
  <course>94.26</course>
  <speed>0.45044422518220834</speed>
  <fix>3d</fix>
</trkpt>
<trkpt lat="33.8106125" lon="-118.39364">
  <ele>0.12</ele>
  <time>2026-09-02T22:09:11Z</time>
  <course>90.4</course>
  <speed>0.48</speed>
  <fix>3d</fix>
</trkpt>
<trkpt lat="33.8106122" lon="-118.393639">
  <ele>-0.275</ele>
  <time>2026-09-02T22:09:11Z</time>
  <course>94.26</course>
  <speed>0.45044422518220834</speed>
  <fix>3d</fix>
</trkpt>
<trkpt lat="33.8106125" lon="-118.39364">
  <ele>0.12</ele>
  <time>2026-09-02T22:09:11Z</time>
  <course>90.4</course>
  <speed>0.48</speed>
  <fix>3d</fix>
</trkpt>
<trkpt lat="33.8106122" lon="-118.3936385">
  <ele>-0.272</ele>
  <time>2026-09-02T22:09:11Z</time>
  <course>94.26</course>
  <speed>0.45044422518220834</speed>
  <fix>3d</fix>
</trkpt>
<trkpt lat="33.8106125" lon="-118.393639">
  <ele>0.13</ele>
  <time>2026-09-02T22:09:11Z</time>
  <course>90.49</course>
  <speed>0.48</speed>
  <fix>3d</fix>
</trkpt>
<trkpt lat="33.8106122" lon="-118.393638">
  <ele>-0.27</ele>
  <time>2026-09-02T22:09:11Z</time>
  <course>94.26</course>
  <speed>0.45044422518220834</speed>
  <fix>3d</fix>
</trkpt>
<trkpt lat="33.8106125" lon="-118.393639">
  <ele>0.13</ele>
  <time>2026-09-02T22:09:11Z</time>
  <course>90.49</course>
  <speed>0.48</speed>
  <fix>3d</fix>
</trkpt>
<trkpt lat="33.8106122" lon="-118.3936375">
  <ele>-0.268</ele>
  <time>2026-09-02T22:09:11Z</time>
  <course>94.26</course>
  <speed>0.45044422518220834</speed>
  <fix>3d</fix>
</trkpt>
<trkpt lat="33.8106125" lon="-118.3936379">
  <ele>0.13</ele>
  <time>2026-09-02T22:09:11Z</time>
  <course>90.55</course>
  <speed>0.48</speed>
  <fix>3d</fix>
</trkpt>
<trkpt lat="33.8106122" lon="-118.3936369">
  <ele>-0.266</ele>
  <time>2026-09-02T22:09:11Z</time>
  <course>94.26</course>
  <speed>0.45044422518220834</speed>
  <fix>3d</fix>
</trkpt>
<trkpt lat="33.8106125" lon="-118.3936379">
  <ele>0.13</ele>
  <time>2026-09-02T22:09:11Z</time>
  <course>90.55</course>
  <speed>0.48</speed>
  <fix>3d</fix>
</trkpt>
<trkpt lat="33.8106122" lon="-118.3936364">
  <ele>-0.264</ele>
  <time>2026-09-02T22:09:11Z</time>
  <course>94.26</course>
  <speed>0.45044422518220834</speed>
  <fix>3d</fix>
</trkpt>
<trkpt lat="33.8106125" lon="-118.3936369">
  <ele>0.13</ele>
  <time>2026-09-02T22:09:11Z</time>
  <course>90.6</course>
  <speed>0.48</speed>
  <fix>3d</fix>
</trkpt>
<trkpt lat="33.8106122" lon="-118.3936359">
  <ele>-0.262</ele>
  <time>2026-09-02T22:09:11Z</time>
  <course>94.25</course>
  <speed>0.45044422518220834</speed>
  <fix>3d</fix>
</trkpt>
<trkpt lat="33.8106125" lon="-118.3936369">
  <ele>0.13</ele>
  <time>2026-09-02T22:09:11Z</time>
  <course>90.6</course>
  <speed>0.48</speed>
  <fix>3d</fix>
</trkpt>
<trkpt lat="33.8106122" lon="-118.3936354">
  <ele>-0.262</ele>
  <time>2026-09-02T22:09:11Z</time>
  <course>94.25</course>
  <speed>0.45044422518220834</speed>
  <fix>3d</fix>
</trkpt>
<trkpt lat="33.8106125" lon="-118.3936358">
  <ele>0.13</ele>
  <time>2026-09-02T22:09:11Z</time>
  <course>90.65</course>
  <speed>0.48</speed>
  <fix>3d</fix>
</trkpt>
<trkpt lat="33.8106122" lon="-118.3936349">
  <ele>-0.262</ele>
  <time>2026-09-02T22:09:11Z</time>
  <course>94.24</course>
  <speed>0.45044422518220834</speed>
  <fix>3d</fix>
</trkpt>
<trkpt lat="33.8106125" lon="-118.3936358">
  <ele>0.13</ele>
  <time>2026-09-02T22:09:11Z</time>
  <course>90.65</course>
  <speed>0.48</speed>
  <fix>3d</fix>
</trkpt>
<trkpt lat="33.8106122" lon="-118.3936343">
  <ele>-0.261</ele>
  <time>2026-09-02T22:09:11Z</time>
  <course>94.24</course>
  <speed>0.45044422518220834</speed>
  <fix>3d</fix>
</trkpt>
<trkpt lat="33.8106125" lon="-118.3936348">
  <ele>0.13</ele>
  <time>2026-09-02T22:09:11Z</time>
  <course>90.71</course>
  <speed>0.48</speed>
  <fix>3d</fix>
</trkpt>
<trkpt lat="33.8106122" lon="-118.3936338">
  <ele>-0.259</ele>
  <time>2026-09-02T22:09:11Z</time>
  <course>94.24</course>
  <speed>0.45044422518220834</speed>
  <fix>3d</fix>
</trkpt>
<trkpt lat="33.8106125" lon="-118.3936348">
  <ele>0.13</ele>
  <time>2026-09-02T22:09:11Z</time>
  <course>90.71</course>
  <speed>0.48</speed>
  <fix>3d</fix>
</trkpt>
<trkpt lat="33.8106122" lon="-118.3936333">
  <ele>-0.258</ele>
  <time>2026-09-02T22:09:11Z</time>
  <course>94.24</course>
  <speed>0.45044422518220834</speed>
  <fix>3d</fix>
</trkpt>
<trkpt lat="33.8106125" lon="-118.3936337">
  <ele>0.14</ele>
  <time>2026-09-02T22:09:11Z</time>
  <course>90.75</course>
  <speed>0.48</speed>
  <fix>3d</fix>
</trkpt>
<trkpt lat="33.8106122" lon="-118.3936328">
  <ele>-0.257</ele>
  <time>2026-09-02T22:09:11Z</time>
  <course>94.23</course>
  <speed>0.45044422518220834</speed>
  <fix>3d</fix>
</trkpt>
<trkpt lat="33.8106125" lon="-118.3936337">
  <ele>0.14</ele>
  <time>2026-09-02T22:09:11Z</time>
  <course>90.75</course>
  <speed>0.48</speed>
  <fix>3d</fix>
</trkpt>
<trkpt lat="33.8106122" lon="-118.3936322">
  <ele>-0.256</ele>
  <time>2026-09-02T22:09:11Z</time>
  <course>94.23</course>
  <speed>0.45044422518220834</speed>
  <fix>3d</fix>
</trkpt>
<trkpt lat="33.8106125" lon="-118.3936327">
  <ele>0.14</ele>
  <time>2026-09-02T22:09:11Z</time>
  <course>90.79</course>
  <speed>0.48</speed>
  <fix>3d</fix>
</trkpt>
<trkpt lat="33.8106122" lon="-118.3936317">
  <ele>-0.255</ele>
  <time>2026-09-02T22:09:11Z</time>
  <course>94.23</course>
  <speed>0.45044422518220834</speed>
  <fix>3d</fix>
</trkpt>
<trkpt lat="33.8106125" lon="-118.3936327">
  <ele>0.14</ele>
  <time>2026-09-02T22:09:11Z</time>
  <course>90.79</course>
  <speed>0.48</speed>
  <fix>3d</fix>
</trkpt>
<trkpt lat="33.8106122" lon="-118.3936312">
  <ele>-0.254</ele>
  <time>2026-09-02T22:09:11Z</time>
  <course>94.23</course>
  <speed>0.45044422518220834</speed>
  <fix>3d</fix>
</trkpt>
<trkpt lat="33.8106125" lon="-118.3936316">
  <ele>0.14</ele>
  <time>2026-09-02T22:09:11Z</time>
  <course>90.83</course>
  <speed>0.48</speed>
  <fix>3d</fix>
</trkpt>
<trkpt lat="33.8106122" lon="-118.3936307">
  <ele>-0.253</ele>
  <time>2026-09-02T22:09:11Z</time>
  <course>94.22</course>
  <speed>0.45044422518220834</speed>
  <fix>3d</fix>
</trkpt>
<trkpt lat="33.8106125" lon="-118.3936316">
  <ele>0.14</ele>
  <time>2026-09-02T22:09:11Z</time>
  <course>90.83</course>
  <speed>0.48</speed>
  <fix>3d</fix>
</trkpt>
<trkpt lat="33.8106123" lon="-118.3936301">
  <ele>-0.252</ele>
  <time>2026-09-02T22:09:11Z</time>
  <course>94.23</course>
  <speed>0.45044422518220834</speed>
  <fix>3d</fix>
</trkpt>
<trkpt lat="33.8106125" lon="-118.3936306">
  <ele>0.14</ele>
  <time>2026-09-02T22:09:11Z</time>
  <course>90.87</course>
  <speed>0.48</speed>
  <fix>3d</fix>
</trkpt>
<trkpt lat="33.8106123" lon="-118.3936296">
  <ele>-0.252</ele>
  <time>2026-09-02T22:09:11Z</time>
  <course>94.23</course>
  <speed>0.45044422518220834</speed>
  <fix>3d</fix>
</trkpt>
<trkpt lat="33.8106125" lon="-118.3936306">
  <ele>0.14</ele>
  <time>2026-09-02T22:09:11Z</time>
  <course>90.87</course>
  <speed>0.48</speed>
  <fix>3d</fix>
</trkpt>
<trkpt lat="33.8106123" lon="-118.3936291">
  <ele>-0.253</ele>
  <time>2026-09-02T22:09:11Z</time>
  <course>94.23</course>
  <speed>0.45044422518220834</speed>
  <fix>3d</fix>
</trkpt>
<trkpt lat="33.8106125" lon="-118.3936295">
  <ele>0.14</ele>
  <time>2026-09-02T22:09:11Z</time>
  <course>90.91</course>
  <speed>0.48</speed>
  <fix>3d</fix>
</trkpt>
<trkpt lat="33.8106123" lon="-118.3936286">
  <ele>-0.254</ele>
  <time>2026-09-02T22:09:11Z</time>
  <course>94.22</course>
  <speed>0.45044422518220834</speed>
  <fix>3d</fix>
</trkpt>
<trkpt lat="33.8106125" lon="-118.3936295">
  <ele>0.14</ele>
  <time>2026-09-02T22:09:11Z</time>
  <course>90.91</course>
  <speed>0.48</speed>
  <fix>3d</fix>
</trkpt>
<trkpt lat="33.8106123" lon="-118.393628">
  <ele>-0.255</ele>
  <time>2026-09-02T22:09:11Z</time>
  <course>94.22</course>
  <speed>0.45044422518220834</speed>
  <fix>3d</fix>
</trkpt>
<trkpt lat="33.8106125" lon="-118.3936285">
  <ele>0.14</ele>
  <time>2026-09-02T22:09:11Z</time>
  <course>90.94</course>
  <speed>0.48</speed>
  <fix>3d</fix>
</trkpt>
<trkpt lat="33.8106123" lon="-118.3936275">
  <ele>-0.258</ele>
  <time>2026-09-02T22:09:11Z</time>
  <course>94.22</course>
  <speed>0.45044422518220834</speed>
  <fix>3d</fix>
</trkpt>
<trkpt lat="33.8106125" lon="-118.3936285">
  <ele>0.14</ele>
  <time>2026-09-02T22:09:11Z</time>
  <course>90.94</course>
  <speed>0.48</speed>
  <fix>3d</fix>
</trkpt>
<trkpt lat="33.8106123" lon="-118.393627">
  <ele>-0.261</ele>
  <time>2026-09-02T22:09:11Z</time>
  <course>94.22</course>
  <speed>0.45044422518220834</speed>
  <fix>3d</fix>
</trkpt>
<trkpt lat="33.8106124" lon="-118.3936274">
  <ele>0.14</ele>
  <time>2026-09-02T22:09:11Z</time>
  <course>90.97</course>
  <speed>0.48</speed>
  <fix>3d</fix>
</trkpt>
<trkpt lat="33.8106123" lon="-118.3936265">
  <ele>-0.263</ele>
  <time>2026-09-02T22:09:11Z</time>
  <course>94.21</course>
  <speed>0.45044422518220834</speed>
  <fix>3d</fix>
</trkpt>
<trkpt lat="33.8106124" lon="-118.3936274">
  <ele>0.14</ele>
  <time>2026-09-02T22:09:11Z</time>
  <course>90.97</course>
  <speed>0.48</speed>
  <fix>3d</fix>
</trkpt>
<trkpt lat="33.8106123" lon="-118.3936259">
  <ele>-0.266</ele>
  <time>2026-09-02T22:09:11Z</time>
  <course>94.19</course>
  <speed>0.4604345773288535</speed>
  <fix>3d</fix>
</trkpt>
<trkpt lat="33.8106123" lon="-118.3936263">
  <ele>0.14</ele>
  <time>2026-09-02T22:09:11Z</time>
  <course>90.92</course>
  <speed>0.48</speed>
  <fix>3d</fix>
</trkpt>
<trkpt lat="33.8106123" lon="-118.3936254">
  <ele>-0.268</ele>
  <time>2026-09-02T22:09:11Z</time>
  <course>94.13</course>
  <speed>0.4604345773288535</speed>
  <fix>3d</fix>
</trkpt>
<trkpt lat="33.8106123" lon="-118.3936263">
  <ele>0.14</ele>
  <time>2026-09-02T22:09:11Z</time>
  <course>90.92</course>
  <speed>0.48</speed>
  <fix>3d</fix>
</trkpt>
<trkpt lat="33.8106123" lon="-118.3936249">
  <ele>-0.269</ele>
  <time>2026-09-02T22:09:11Z</time>
  <course>94.02</course>
  <speed>0.46010868281309364</speed>
  <fix>3d</fix>
</trkpt>
<trkpt lat="33.8106123" lon="-118.3936253">
  <ele>0.14</ele>
  <time>2026-09-02T22:09:11Z</time>
  <course>90.66</course>
  <speed>0.48</speed>
  <fix>3d</fix>
</trkpt>
<trkpt lat="33.8106123" lon="-118.3936243">
  <ele>-0.269</ele>
  <time>2026-09-02T22:09:11Z</time>
  <course>93.9</course>
  <speed>0.46010868281309364</speed>
  <fix>3d</fix>
</trkpt>
<trkpt lat="33.8106123" lon="-118.3936253">
  <ele>0.14</ele>
  <time>2026-09-02T22:09:11Z</time>
  <course>90.66</course>
  <speed>0.48</speed>
  <fix>3d</fix>
</trkpt>
<trkpt lat="33.8106123" lon="-118.3936238">
  <ele>-0.269</ele>
  <time>2026-09-02T22:09:11Z</time>
  <course>93.75</course>
  <speed>0.46010868281309364</speed>
  <fix>3d</fix>
</trkpt>
<trkpt lat="33.8106123" lon="-118.3936243">
  <ele>0.14</ele>
  <time>2026-09-02T22:09:11Z</time>
  <course>90.29</course>
  <speed>0.48</speed>
  <fix>3d</fix>
</trkpt>
<trkpt lat="33.8106123" lon="-118.3936233">
  <ele>-0.27</ele>
  <time>2026-09-02T22:09:11Z</time>
  <course>93.62</course>
  <speed>0.46010868281309364</speed>
  <fix>3d</fix>
</trkpt>
<trkpt lat="33.8106123" lon="-118.3936243">
  <ele>0.14</ele>
  <time>2026-09-02T22:09:11Z</time>
  <course>90.29</course>
  <speed>0.48</speed>
  <fix>3d</fix>
</trkpt>
<trkpt lat="33.8106123" lon="-118.3936228">
  <ele>-0.27</ele>
  <time>2026-09-02T22:09:11Z</time>
  <course>93.5</course>
  <speed>0.46010868281309364</speed>
  <fix>3d</fix>
</trkpt>
<trkpt lat="33.8106123" lon="-118.3936232">
  <ele>0.14</ele>
  <time>2026-09-02T22:09:11Z</time>
  <course>90.01</course>
  <speed>0.48</speed>
  <fix>3d</fix>
</trkpt>
<trkpt lat="33.8106123" lon="-118.3936222">
  <ele>-0.271</ele>
  <time>2026-09-02T22:09:11Z</time>
  <course>93.4</course>
  <speed>0.46010868281309364</speed>
  <fix>3d</fix>
</trkpt>
<trkpt lat="33.8106123" lon="-118.3936232">
  <ele>0.14</ele>
  <time>2026-09-02T22:09:11Z</time>
  <course>90.01</course>
  <speed>0.48</speed>
  <fix>3d</fix>
</trkpt>
<trkpt lat="33.8106123" lon="-118.3936217">
  <ele>-0.272</ele>
  <time>2026-09-02T22:09:11Z</time>
  <course>93.31</course>
  <speed>0.46010868281309364</speed>
  <fix>3d</fix>
</trkpt>
<trkpt lat="33.8106123" lon="-118.3936222">
  <ele>0.14</ele>
  <time>2026-09-02T22:09:11Z</time>
  <course>89.82</course>
  <speed>0.48</speed>
  <fix>3d</fix>
</trkpt>
<trkpt lat="33.8106122" lon="-118.3936212">
  <ele>-0.273</ele>
  <time>2026-09-02T22:09:11Z</time>
  <course>93.25</course>
  <speed>0.46010868281309364</speed>
  <fix>3d</fix>
</trkpt>
<trkpt lat="33.8106123" lon="-118.3936222">
  <ele>0.14</ele>
  <time>2026-09-02T22:09:11Z</time>
  <course>89.82</course>
  <speed>0.48</speed>
  <fix>3d</fix>
</trkpt>
<trkpt lat="33.8106122" lon="-118.3936207">
  <ele>-0.273</ele>
  <time>2026-09-02T22:09:11Z</time>
  <course>93.19</course>
  <speed>0.46010868281309364</speed>
  <fix>3d</fix>
</trkpt>
<trkpt lat="33.8106123" lon="-118.3936211">
  <ele>0.14</ele>
  <time>2026-09-02T22:09:11Z</time>
  <course>89.65</course>
  <speed>0.48</speed>
  <fix>3d</fix>
</trkpt>
<trkpt lat="33.8106122" lon="-118.3936201">
  <ele>-0.273</ele>
  <time>2026-09-02T22:09:11Z</time>
  <course>93.16</course>
  <speed>0.46010868281309364</speed>
  <fix>3d</fix>
</trkpt>
<trkpt lat="33.8106123" lon="-118.3936211">
  <ele>0.14</ele>
  <time>2026-09-02T22:09:11Z</time>
  <course>89.65</course>
  <speed>0.48</speed>
  <fix>3d</fix>
</trkpt>
<trkpt lat="33.8106122" lon="-118.3936196">
  <ele>-0.275</ele>
  <time>2026-09-02T22:09:11Z</time>
  <course>93.14</course>
  <speed>0.46010868281309364</speed>
  <fix>3d</fix>
</trkpt>
<trkpt lat="33.8106123" lon="-118.3936201">
  <ele>0.14</ele>
  <time>2026-09-02T22:09:11Z</time>
  <course>89.49</course>
  <speed>0.48</speed>
  <fix>3d</fix>
</trkpt>
<trkpt lat="33.8106122" lon="-118.3936191">
  <ele>-0.275</ele>
  <time>2026-09-02T22:09:11Z</time>
  <course>93.13</course>
  <speed>0.46010868281309364</speed>
  <fix>3d</fix>
</trkpt>
<trkpt lat="33.8106123" lon="-118.3936201">
  <ele>0.14</ele>
  <time>2026-09-02T22:09:11Z</time>
  <course>89.49</course>
  <speed>0.48</speed>
  <fix>3d</fix>
</trkpt>
<trkpt lat="33.8106122" lon="-118.3936185">
  <ele>-0.275</ele>
  <time>2026-09-02T22:09:11Z</time>
  <course>93.14</course>
  <speed>0.46010868281309364</speed>
  <fix>3d</fix>
</trkpt>
<trkpt lat="33.8106123" lon="-118.393619">
  <ele>0.14</ele>
  <time>2026-09-02T22:09:11Z</time>
  <course>89.33</course>
  <speed>0.48</speed>
  <fix>3d</fix>
</trkpt>
<trkpt lat="33.8106122" lon="-118.393618">
  <ele>-0.276</ele>
  <time>2026-09-02T22:09:11Z</time>
  <course>93.16</course>
  <speed>0.46010868281309364</speed>
  <fix>3d</fix>
</trkpt>
<trkpt lat="33.8106123" lon="-118.393619">
  <ele>0.14</ele>
  <time>2026-09-02T22:09:11Z</time>
  <course>89.33</course>
  <speed>0.48</speed>
  <fix>3d</fix>
</trkpt>
<trkpt lat="33.8106122" lon="-118.3936175">
  <ele>-0.276</ele>
  <time>2026-09-02T22:09:11Z</time>
  <course>93.18</course>
  <speed>0.46010868281309364</speed>
  <fix>3d</fix>
</trkpt>
<trkpt lat="33.8106123" lon="-118.393618">
  <ele>0.14</ele>
  <time>2026-09-02T22:09:11Z</time>
  <course>89.17</course>
  <speed>0.48</speed>
  <fix>3d</fix>
</trkpt>
<trkpt lat="33.8106122" lon="-118.393617">
  <ele>-0.277</ele>
  <time>2026-09-02T22:09:11Z</time>
  <course>93.19</course>
  <speed>0.46010868281309364</speed>
  <fix>3d</fix>
</trkpt>
<trkpt lat="33.8106123" lon="-118.393618">
  <ele>0.14</ele>
  <time>2026-09-02T22:09:11Z</time>
  <course>89.17</course>
  <speed>0.48</speed>
  <fix>3d</fix>
</trkpt>
<trkpt lat="33.8106123" lon="-118.3936164">
  <ele>-0.277</ele>
  <time>2026-09-02T22:09:11Z</time>
  <course>93.2</course>
  <speed>0.46010868281309364</speed>
  <fix>3d</fix>
</trkpt>
<trkpt lat="33.8106123" lon="-118.3936169">
  <ele>0.14</ele>
  <time>2026-09-02T22:09:11Z</time>
  <course>89.06</course>
  <speed>0.48</speed>
  <fix>3d</fix>
</trkpt>
<trkpt lat="33.8106123" lon="-118.3936159">
  <ele>-0.278</ele>
  <time>2026-09-02T22:09:11Z</time>
  <course>93.21</course>
  <speed>0.46010868281309364</speed>
  <fix>3d</fix>
</trkpt>
<trkpt lat="33.8106123" lon="-118.3936169">
  <ele>0.14</ele>
  <time>2026-09-02T22:09:11Z</time>
  <course>89.06</course>
  <speed>0.48</speed>
  <fix>3d</fix>
</trkpt>
<trkpt lat="33.8106123" lon="-118.3936154">
  <ele>-0.278</ele>
  <time>2026-09-02T22:09:11Z</time>
  <course>93.22</course>
  <speed>0.46010868281309364</speed>
  <fix>3d</fix>
</trkpt>
<trkpt lat="33.8106123" lon="-118.3936159">
  <ele>0.14</ele>
  <time>2026-09-02T22:09:11Z</time>
  <course>89.0</course>
  <speed>0.48</speed>
  <fix>3d</fix>
</trkpt>
<trkpt lat="33.8106123" lon="-118.3936149">
  <ele>-0.279</ele>
  <time>2026-09-02T22:09:11Z</time>
  <course>93.23</course>
  <speed>0.46010868281309364</speed>
  <fix>3d</fix>
</trkpt>
<trkpt lat="33.8106123" lon="-118.3936159">
  <ele>0.14</ele>
  <time>2026-09-02T22:09:11Z</time>
  <course>89.0</course>
  <speed>0.48</speed>
  <fix>3d</fix>
</trkpt>
<trkpt lat="33.8106123" lon="-118.3936143">
  <ele>-0.278</ele>
  <time>2026-09-02T22:09:11Z</time>
  <course>93.25</course>
  <speed>0.46010868281309364</speed>
  <fix>3d</fix>
</trkpt>
<trkpt lat="33.8106123" lon="-118.3936148">
  <ele>0.14</ele>
  <time>2026-09-02T22:09:11Z</time>
  <course>88.97</course>
  <speed>0.48</speed>
  <fix>3d</fix>
</trkpt>
<trkpt lat="33.8106123" lon="-118.3936138">
  <ele>-0.277</ele>
  <time>2026-09-02T22:09:11Z</time>
  <course>93.25</course>
  <speed>0.46010868281309364</speed>
  <fix>3d</fix>
</trkpt>
<trkpt lat="33.8106123" lon="-118.3936148">
  <ele>0.14</ele>
  <time>2026-09-02T22:09:11Z</time>
  <course>88.97</course>
  <speed>0.48</speed>
  <fix>3d</fix>
</trkpt>
<trkpt lat="33.8106123" lon="-118.3936133">
  <ele>-0.277</ele>
  <time>2026-09-02T22:09:11Z</time>
  <course>93.26</course>
  <speed>0.46010868281309364</speed>
  <fix>3d</fix>
</trkpt>
<trkpt lat="33.8106123" lon="-118.3936138">
  <ele>0.13</ele>
  <time>2026-09-02T22:09:11Z</time>
  <course>88.94</course>
  <speed>0.48</speed>
  <fix>3d</fix>
</trkpt>
<trkpt lat="33.8106123" lon="-118.3936128">
  <ele>-0.277</ele>
  <time>2026-09-02T22:09:11Z</time>
  <course>93.26</course>
  <speed>0.46010868281309364</speed>
  <fix>3d</fix>
</trkpt>
<trkpt lat="33.8106123" lon="-118.3936138">
  <ele>0.13</ele>
  <time>2026-09-02T22:09:11Z</time>
  <course>88.94</course>
  <speed>0.48</speed>
  <fix>3d</fix>
</trkpt>
<trkpt lat="33.8106123" lon="-118.3936122">
  <ele>-0.277</ele>
  <time>2026-09-02T22:09:11Z</time>
  <course>93.27</course>
  <speed>0.46010868281309364</speed>
  <fix>3d</fix>
</trkpt>
<trkpt lat="33.8106123" lon="-118.3936127">
  <ele>0.13</ele>
  <time>2026-09-02T22:09:11Z</time>
  <course>88.91</course>
  <speed>0.48</speed>
  <fix>3d</fix>
</trkpt>
<trkpt lat="33.8106123" lon="-118.3936117">
  <ele>-0.276</ele>
  <time>2026-09-02T22:09:11Z</time>
  <course>93.27</course>
  <speed>0.46010868281309364</speed>
  <fix>3d</fix>
</trkpt>
<trkpt lat="33.8106123" lon="-118.3936127">
  <ele>0.13</ele>
  <time>2026-09-02T22:09:11Z</time>
  <course>88.91</course>
  <speed>0.48</speed>
  <fix>3d</fix>
</trkpt>
<trkpt lat="33.8106123" lon="-118.3936112">
  <ele>-0.276</ele>
  <time>2026-09-02T22:09:11Z</time>
  <course>93.27</course>
  <speed>0.46010868281309364</speed>
  <fix>3d</fix>
</trkpt>
<trkpt lat="33.8106124" lon="-118.3936117">
  <ele>0.13</ele>
  <time>2026-09-02T22:09:11Z</time>
  <course>88.87</course>
  <speed>0.48</speed>
  <fix>3d</fix>
</trkpt>
<trkpt lat="33.8106123" lon="-118.3936107">
  <ele>-0.276</ele>
  <time>2026-09-02T22:09:11Z</time>
  <course>93.28</course>
  <speed>0.46010868281309364</speed>
  <fix>3d</fix>
</trkpt>
<trkpt lat="33.8106124" lon="-118.3936117">
  <ele>0.13</ele>
  <time>2026-09-02T22:09:11Z</time>
  <course>88.87</course>
  <speed>0.48</speed>
  <fix>3d</fix>
</trkpt>
<trkpt lat="33.8106123" lon="-118.3936101">
  <ele>-0.276</ele>
  <time>2026-09-02T22:09:11Z</time>
  <course>93.32</course>
  <speed>0.46010868281309364</speed>
  <fix>3d</fix>
</trkpt>
<trkpt lat="33.8106125" lon="-118.3936106">
  <ele>0.13</ele>
  <time>2026-09-02T22:09:11Z</time>
  <course>88.93</course>
  <speed>0.48</speed>
  <fix>3d</fix>
</trkpt>
<trkpt lat="33.8106123" lon="-118.3936096">
  <ele>-0.276</ele>
  <time>2026-09-02T22:09:11Z</time>
  <course>93.37</course>
  <speed>0.450111097397076</speed>
  <fix>3d</fix>
</trkpt>
<trkpt lat="33.8106125" lon="-118.3936106">
  <ele>0.13</ele>
  <time>2026-09-02T22:09:11Z</time>
  <course>88.93</course>
  <speed>0.48</speed>
  <fix>3d</fix>
</trkpt>
<trkpt lat="33.8106123" lon="-118.3936091">
  <ele>-0.275</ele>
  <time>2026-09-02T22:09:11Z</time>
  <course>93.47</course>
  <speed>0.450111097397076</speed>
  <fix>3d</fix>
</trkpt>
<trkpt lat="33.8106125" lon="-118.3936096">
  <ele>0.13</ele>
  <time>2026-09-02T22:09:11Z</time>
  <course>89.2</course>
  <speed>0.48</speed>
  <fix>3d</fix>
</trkpt>
<trkpt lat="33.8106123" lon="-118.3936086">
  <ele>-0.275</ele>
  <time>2026-09-02T22:09:11Z</time>
  <course>93.56</course>
  <speed>0.45044422518220834</speed>
  <fix>3d</fix>
</trkpt>
<trkpt lat="33.8106125" lon="-118.3936096">
  <ele>0.13</ele>
  <time>2026-09-02T22:09:11Z</time>
  <course>89.2</course>
  <speed>0.48</speed>
  <fix>3d</fix>
</trkpt>
<trkpt lat="33.8106123" lon="-118.393608">
  <ele>-0.277</ele>
  <time>2026-09-02T22:09:11Z</time>
  <course>93.67</course>
  <speed>0.45044422518220834</speed>
  <fix>3d</fix>
</trkpt>
<trkpt lat="33.8106125" lon="-118.3936085">
  <ele>0.12</ele>
  <time>2026-09-02T22:09:11Z</time>
  <course>89.6</course>
  <speed>0.48</speed>
  <fix>3d</fix>
</trkpt>
<trkpt lat="33.8106123" lon="-118.3936075">
  <ele>-0.279</ele>
  <time>2026-09-02T22:09:11Z</time>
  <course>93.76</course>
  <speed>0.45044422518220834</speed>
  <fix>3d</fix>
</trkpt>
<trkpt lat="33.8106125" lon="-118.3936085">
  <ele>0.12</ele>
  <time>2026-09-02T22:09:11Z</time>
  <course>89.6</course>
  <speed>0.48</speed>
  <fix>3d</fix>
</trkpt>
<trkpt lat="33.8106123" lon="-118.393607">
  <ele>-0.281</ele>
  <time>2026-09-02T22:09:11Z</time>
  <course>93.85</course>
  <speed>0.45044422518220834</speed>
  <fix>3d</fix>
</trkpt>
<trkpt lat="33.8106125" lon="-118.3936075">
  <ele>0.12</ele>
  <time>2026-09-02T22:09:11Z</time>
  <course>89.94</course>
  <speed>0.48</speed>
  <fix>3d</fix>
</trkpt>
<trkpt lat="33.8106123" lon="-118.3936065">
  <ele>-0.283</ele>
  <time>2026-09-02T22:09:11Z</time>
  <course>93.92</course>
  <speed>0.45044422518220834</speed>
  <fix>3d</fix>
</trkpt>
<trkpt lat="33.8106125" lon="-118.3936075">
  <ele>0.12</ele>
  <time>2026-09-02T22:09:11Z</time>
  <course>89.94</course>
  <speed>0.48</speed>
  <fix>3d</fix>
</trkpt>
<trkpt lat="33.8106123" lon="-118.393606">
  <ele>-0.284</ele>
  <time>2026-09-02T22:09:11Z</time>
  <course>93.98</course>
  <speed>0.45044422518220834</speed>
  <fix>3d</fix>
</trkpt>
<trkpt lat="33.8106125" lon="-118.3936064">
  <ele>0.12</ele>
  <time>2026-09-02T22:09:11Z</time>
  <course>90.17</course>
  <speed>0.48</speed>
  <fix>3d</fix>
</trkpt>
<trkpt lat="33.8106123" lon="-118.3936054">
  <ele>-0.283</ele>
  <time>2026-09-02T22:09:11Z</time>
  <course>94.02</course>
  <speed>0.45044422518220834</speed>
  <fix>3d</fix>
</trkpt>
<trkpt lat="33.8106125" lon="-118.3936064">
  <ele>0.12</ele>
  <time>2026-09-02T22:09:11Z</time>
  <course>90.17</course>
  <speed>0.48</speed>
  <fix>3d</fix>
</trkpt>
<trkpt lat="33.8106123" lon="-118.3936049">
  <ele>-0.281</ele>
  <time>2026-09-02T22:09:11Z</time>
  <course>94.06</course>
  <speed>0.45044422518220834</speed>
  <fix>3d</fix>
</trkpt>
<trkpt lat="33.8106125" lon="-118.3936054">
  <ele>0.12</ele>
  <time>2026-09-02T22:09:11Z</time>
  <course>90.32</course>
  <speed>0.48</speed>
  <fix>3d</fix>
</trkpt>
<trkpt lat="33.8106123" lon="-118.3936044">
  <ele>-0.279</ele>
  <time>2026-09-02T22:09:11Z</time>
  <course>94.08</course>
  <speed>0.45044422518220834</speed>
  <fix>3d</fix>
</trkpt>
<trkpt lat="33.8106125" lon="-118.3936054">
  <ele>0.12</ele>
  <time>2026-09-02T22:09:11Z</time>
  <course>90.32</course>
  <speed>0.48</speed>
  <fix>3d</fix>
</trkpt>
<trkpt lat="33.8106123" lon="-118.3936039">
  <ele>-0.277</ele>
  <time>2026-09-02T22:09:11Z</time>
  <course>94.11</course>
  <speed>0.45044422518220834</speed>
  <fix>3d</fix>
</trkpt>
<trkpt lat="33.8106125" lon="-118.3936043">
  <ele>0.12</ele>
  <time>2026-09-02T22:09:11Z</time>
  <course>90.43</course>
  <speed>0.48</speed>
  <fix>3d</fix>
</trkpt>
<trkpt lat="33.8106123" lon="-118.3936033">
  <ele>-0.275</ele>
  <time>2026-09-02T22:09:11Z</time>
  <course>94.12</course>
  <speed>0.45044422518220834</speed>
  <fix>3d</fix>
</trkpt>
<trkpt lat="33.8106125" lon="-118.3936043">
  <ele>0.12</ele>
  <time>2026-09-02T22:09:11Z</time>
  <course>90.43</course>
  <speed>0.48</speed>
  <fix>3d</fix>
</trkpt>
<trkpt lat="33.8106123" lon="-118.3936028">
  <ele>-0.274</ele>
  <time>2026-09-02T22:09:11Z</time>
  <course>94.14</course>
  <speed>0.45044422518220834</speed>
  <fix>3d</fix>
</trkpt>
<trkpt lat="33.8106125" lon="-118.3936033">
  <ele>0.12</ele>
  <time>2026-09-02T22:09:11Z</time>
  <course>90.53</course>
  <speed>0.48</speed>
  <fix>3d</fix>
</trkpt>
<trkpt lat="33.8106123" lon="-118.3936023">
  <ele>-0.273</ele>
  <time>2026-09-02T22:09:12Z</time>
  <course>94.14</course>
  <speed>0.45044422518220834</speed>
  <fix>3d</fix>
</trkpt>
<trkpt lat="33.8106125" lon="-118.3936033">
  <ele>0.12</ele>
  <time>2026-09-02T22:09:12Z</time>
  <course>90.53</course>
  <speed>0.48</speed>
  <fix>3d</fix>
</trkpt>
<trkpt lat="33.8106123" lon="-118.3936018">
  <ele>-0.271</ele>
  <time>2026-09-02T22:09:12Z</time>
  <course>94.16</course>
  <speed>0.45044422518220834</speed>
  <fix>3d</fix>
</trkpt>
<trkpt lat="33.8106125" lon="-118.3936022">
  <ele>0.12</ele>
  <time>2026-09-02T22:09:12Z</time>
  <course>90.59</course>
  <speed>0.48</speed>
  <fix>3d</fix>
</trkpt>
<trkpt lat="33.8106123" lon="-118.3936012">
  <ele>-0.27</ele>
  <time>2026-09-02T22:09:12Z</time>
  <course>94.16</course>
  <speed>0.4604345773288535</speed>
  <fix>3d</fix>
</trkpt>
<trkpt lat="33.8106125" lon="-118.3936022">
  <ele>0.12</ele>
  <time>2026-09-02T22:09:12Z</time>
  <course>90.59</course>
  <speed>0.48</speed>
  <fix>3d</fix>
</trkpt>
<trkpt lat="33.8106123" lon="-118.3936007">
  <ele>-0.269</ele>
  <time>2026-09-02T22:09:12Z</time>
  <course>94.17</course>
  <speed>0.4604345773288535</speed>
  <fix>3d</fix>
</trkpt>
<trkpt lat="33.8106125" lon="-118.3936012">
  <ele>0.13</ele>
  <time>2026-09-02T22:09:12Z</time>
  <course>90.64</course>
  <speed>0.48</speed>
  <fix>3d</fix>
</trkpt>
<trkpt lat="33.8106123" lon="-118.3936002">
  <ele>-0.269</ele>
  <time>2026-09-02T22:09:12Z</time>
  <course>94.17</course>
  <speed>0.4604345773288535</speed>
  <fix>3d</fix>
</trkpt>
<trkpt lat="33.8106125" lon="-118.3936012">
  <ele>0.13</ele>
  <time>2026-09-02T22:09:12Z</time>
  <course>90.64</course>
  <speed>0.48</speed>
  <fix>3d</fix>
</trkpt>
<trkpt lat="33.8106123" lon="-118.3935997">
  <ele>-0.268</ele>
  <time>2026-09-02T22:09:12Z</time>
  <course>94.17</course>
  <speed>0.4604345773288535</speed>
  <fix>3d</fix>
</trkpt>
<trkpt lat="33.8106125" lon="-118.3936001">
  <ele>0.13</ele>
  <time>2026-09-02T22:09:12Z</time>
  <course>90.69</course>
  <speed>0.48</speed>
  <fix>3d</fix>
</trkpt>
<trkpt lat="33.8106123" lon="-118.3935991">
  <ele>-0.266</ele>
  <time>2026-09-02T22:09:12Z</time>
  <course>94.17</course>
  <speed>0.4604345773288535</speed>
  <fix>3d</fix>
</trkpt>
<trkpt lat="33.8106125" lon="-118.3936001">
  <ele>0.13</ele>
  <time>2026-09-02T22:09:12Z</time>
  <course>90.69</course>
  <speed>0.48</speed>
  <fix>3d</fix>
</trkpt>
<trkpt lat="33.8106123" lon="-118.3935986">
  <ele>-0.266</ele>
  <time>2026-09-02T22:09:12Z</time>
  <course>94.17</course>
  <speed>0.4604345773288535</speed>
  <fix>3d</fix>
</trkpt>
<trkpt lat="33.8106125" lon="-118.3935991">
  <ele>0.13</ele>
  <time>2026-09-02T22:09:12Z</time>
  <course>90.75</course>
  <speed>0.48</speed>
  <fix>3d</fix>
</trkpt>
<trkpt lat="33.8106123" lon="-118.3935981">
  <ele>-0.265</ele>
  <time>2026-09-02T22:09:12Z</time>
  <course>94.17</course>
  <speed>0.4604345773288535</speed>
  <fix>3d</fix>
</trkpt>
<trkpt lat="33.8106125" lon="-118.3935991">
  <ele>0.13</ele>
  <time>2026-09-02T22:09:12Z</time>
  <course>90.75</course>
  <speed>0.48</speed>
  <fix>3d</fix>
</trkpt>
<trkpt lat="33.8106123" lon="-118.3935976">
  <ele>-0.265</ele>
  <time>2026-09-02T22:09:12Z</time>
  <course>94.18</course>
  <speed>0.4604345773288535</speed>
  <fix>3d</fix>
</trkpt>
<trkpt lat="33.8106125" lon="-118.393598">
  <ele>0.13</ele>
  <time>2026-09-02T22:09:12Z</time>
  <course>90.8</course>
  <speed>0.48</speed>
  <fix>3d</fix>
</trkpt>
<trkpt lat="33.8106123" lon="-118.393597">
  <ele>-0.265</ele>
  <time>2026-09-02T22:09:12Z</time>
  <course>94.18</course>
  <speed>0.4604345773288535</speed>
  <fix>3d</fix>
</trkpt>
<trkpt lat="33.8106125" lon="-118.393598">
  <ele>0.13</ele>
  <time>2026-09-02T22:09:12Z</time>
  <course>90.8</course>
  <speed>0.48</speed>
  <fix>3d</fix>
</trkpt>
<trkpt lat="33.8106123" lon="-118.3935965">
  <ele>-0.266</ele>
  <time>2026-09-02T22:09:12Z</time>
  <course>94.18</course>
  <speed>0.4604345773288535</speed>
  <fix>3d</fix>
</trkpt>
<trkpt lat="33.8106125" lon="-118.393597">
  <ele>0.13</ele>
  <time>2026-09-02T22:09:12Z</time>
  <course>90.84</course>
  <speed>0.48</speed>
  <fix>3d</fix>
</trkpt>
<trkpt lat="33.8106123" lon="-118.393596">
  <ele>-0.268</ele>
  <time>2026-09-02T22:09:12Z</time>
  <course>94.18</course>
  <speed>0.4604345773288535</speed>
  <fix>3d</fix>
</trkpt>
<trkpt lat="33.8106125" lon="-118.393597">
  <ele>0.13</ele>
  <time>2026-09-02T22:09:12Z</time>
  <course>90.84</course>
  <speed>0.48</speed>
  <fix>3d</fix>
</trkpt>
<trkpt lat="33.8106123" lon="-118.3935954">
  <ele>-0.271</ele>
  <time>2026-09-02T22:09:12Z</time>
  <course>94.18</course>
  <speed>0.4604345773288535</speed>
  <fix>3d</fix>
</trkpt>
<trkpt lat="33.8106125" lon="-118.3935959">
  <ele>0.13</ele>
  <time>2026-09-02T22:09:12Z</time>
  <course>90.89</course>
  <speed>0.48</speed>
  <fix>3d</fix>
</trkpt>
<trkpt lat="33.8106123" lon="-118.3935949">
  <ele>-0.272</ele>
  <time>2026-09-02T22:09:12Z</time>
  <course>94.18</course>
  <speed>0.4604345773288535</speed>
  <fix>3d</fix>
</trkpt>
<trkpt lat="33.8106125" lon="-118.3935959">
  <ele>0.13</ele>
  <time>2026-09-02T22:09:12Z</time>
  <course>90.89</course>
  <speed>0.48</speed>
  <fix>3d</fix>
</trkpt>
<trkpt lat="33.8106123" lon="-118.3935944">
  <ele>-0.272</ele>
  <time>2026-09-02T22:09:12Z</time>
  <course>94.17</course>
  <speed>0.4604345773288535</speed>
  <fix>3d</fix>
</trkpt>
<trkpt lat="33.8106125" lon="-118.3935949">
  <ele>0.14</ele>
  <time>2026-09-02T22:09:12Z</time>
  <course>90.92</course>
  <speed>0.48</speed>
  <fix>3d</fix>
</trkpt>
<trkpt lat="33.8106123" lon="-118.3935939">
  <ele>-0.27</ele>
  <time>2026-09-02T22:09:12Z</time>
  <course>94.17</course>
  <speed>0.4604345773288535</speed>
  <fix>3d</fix>
</trkpt>
<trkpt lat="33.8106125" lon="-118.3935949">
  <ele>0.14</ele>
  <time>2026-09-02T22:09:12Z</time>
  <course>90.92</course>
  <speed>0.48</speed>
  <fix>3d</fix>
</trkpt>
<trkpt lat="33.8106123" lon="-118.3935933">
  <ele>-0.268</ele>
  <time>2026-09-02T22:09:12Z</time>
  <course>94.17</course>
  <speed>0.4604345773288535</speed>
  <fix>3d</fix>
</trkpt>
<trkpt lat="33.8106124" lon="-118.3935938">
  <ele>0.14</ele>
  <time>2026-09-02T22:09:12Z</time>
  <course>90.97</course>
  <speed>0.48</speed>
  <fix>3d</fix>
</trkpt>
<trkpt lat="33.8106123" lon="-118.3935928">
  <ele>-0.266</ele>
  <time>2026-09-02T22:09:12Z</time>
  <course>94.16</course>
  <speed>0.4604345773288535</speed>
  <fix>3d</fix>
</trkpt>
<trkpt lat="33.8106124" lon="-118.3935938">
  <ele>0.14</ele>
  <time>2026-09-02T22:09:12Z</time>
  <course>90.97</course>
  <speed>0.48</speed>
  <fix>3d</fix>
</trkpt>
<trkpt lat="33.8106123" lon="-118.3935923">
  <ele>-0.265</ele>
  <time>2026-09-02T22:09:12Z</time>
  <course>94.13</course>
  <speed>0.4604345773288535</speed>
  <fix>3d</fix>
</trkpt>
<trkpt lat="33.8106123" lon="-118.3935928">
  <ele>0.14</ele>
  <time>2026-09-02T22:09:12Z</time>
  <course>90.93</course>
  <speed>0.48</speed>
  <fix>3d</fix>
</trkpt>
<trkpt lat="33.8106123" lon="-118.3935918">
  <ele>-0.264</ele>
  <time>2026-09-02T22:09:12Z</time>
  <course>94.07</course>
  <speed>0.4604345773288535</speed>
  <fix>3d</fix>
</trkpt>
<trkpt lat="33.8106123" lon="-118.3935928">
  <ele>0.14</ele>
  <time>2026-09-02T22:09:12Z</time>
  <course>90.93</course>
  <speed>0.48</speed>
  <fix>3d</fix>
</trkpt>
<trkpt lat="33.8106123" lon="-118.3935912">
  <ele>-0.263</ele>
  <time>2026-09-02T22:09:12Z</time>
  <course>93.96</course>
  <speed>0.46010868281309364</speed>
  <fix>3d</fix>
</trkpt>
<trkpt lat="33.8106123" lon="-118.3935917">
  <ele>0.14</ele>
  <time>2026-09-02T22:09:12Z</time>
  <course>90.68</course>
  <speed>0.48</speed>
  <fix>3d</fix>
</trkpt>
<trkpt lat="33.8106123" lon="-118.3935907">
  <ele>-0.262</ele>
  <time>2026-09-02T22:09:12Z</time>
  <course>93.83</course>
  <speed>0.46010868281309364</speed>
  <fix>3d</fix>
</trkpt>
<trkpt lat="33.8106123" lon="-118.3935917">
  <ele>0.14</ele>
  <time>2026-09-02T22:09:12Z</time>
  <course>90.68</course>
  <speed>0.48</speed>
  <fix>3d</fix>
</trkpt>
<trkpt lat="33.8106123" lon="-118.3935902">
  <ele>-0.262</ele>
  <time>2026-09-02T22:09:12Z</time>
  <course>93.68</course>
  <speed>0.46010868281309364</speed>
  <fix>3d</fix>
</trkpt>
<trkpt lat="33.8106123" lon="-118.3935907">
  <ele>0.14</ele>
  <time>2026-09-02T22:09:12Z</time>
  <course>90.32</course>
  <speed>0.48</speed>
  <fix>3d</fix>
</trkpt>
<trkpt lat="33.8106123" lon="-118.3935897">
  <ele>-0.263</ele>
  <time>2026-09-02T22:09:12Z</time>
  <course>93.56</course>
  <speed>0.46010868281309364</speed>
  <fix>3d</fix>
</trkpt>
<trkpt lat="33.8106123" lon="-118.3935907">
  <ele>0.14</ele>
  <time>2026-09-02T22:09:12Z</time>
  <course>90.32</course>
  <speed>0.48</speed>
  <fix>3d</fix>
</trkpt>
<trkpt lat="33.8106123" lon="-118.3935891">
  <ele>-0.263</ele>
  <time>2026-09-02T22:09:12Z</time>
  <course>93.43</course>
  <speed>0.46010868281309364</speed>
  <fix>3d</fix>
</trkpt>
<trkpt lat="33.8106123" lon="-118.3935896">
  <ele>0.14</ele>
  <time>2026-09-02T22:09:12Z</time>
  <course>90.03</course>
  <speed>0.48</speed>
  <fix>3d</fix>
</trkpt>
<trkpt lat="33.8106123" lon="-118.3935886">
  <ele>-0.264</ele>
  <time>2026-09-02T22:09:12Z</time>
  <course>93.33</course>
  <speed>0.46010868281309364</speed>
  <fix>3d</fix>
</trkpt>
<trkpt lat="33.8106123" lon="-118.3935896">
  <ele>0.14</ele>
  <time>2026-09-02T22:09:12Z</time>
  <course>90.03</course>
  <speed>0.48</speed>
  <fix>3d</fix>
</trkpt>
<trkpt lat="33.8106123" lon="-118.3935881">
  <ele>-0.264</ele>
  <time>2026-09-02T22:09:12Z</time>
  <course>93.24</course>
  <speed>0.46010868281309364</speed>
  <fix>3d</fix>
</trkpt>
<trkpt lat="33.8106123" lon="-118.3935885">
  <ele>0.14</ele>
  <time>2026-09-02T22:09:12Z</time>
  <course>89.83</course>
  <speed>0.48</speed>
  <fix>3d</fix>
</trkpt>
<trkpt lat="33.8106122" lon="-118.3935875">
  <ele>-0.265</ele>
  <time>2026-09-02T22:09:12Z</time>
  <course>93.18</course>
  <speed>0.46010868281309364</speed>
  <fix>3d</fix>
</trkpt>
<trkpt lat="33.8106123" lon="-118.3935885">
  <ele>0.14</ele>
  <time>2026-09-02T22:09:12Z</time>
  <course>89.83</course>
  <speed>0.48</speed>
  <fix>3d</fix>
</trkpt>
<trkpt lat="33.8106122" lon="-118.393587">
  <ele>-0.265</ele>
  <time>2026-09-02T22:09:12Z</time>
  <course>93.13</course>
  <speed>0.46010868281309364</speed>
  <fix>3d</fix>
</trkpt>
<trkpt lat="33.8106123" lon="-118.3935875">
  <ele>0.14</ele>
  <time>2026-09-02T22:09:12Z</time>
  <course>89.67</course>
  <speed>0.48</speed>
  <fix>3d</fix>
</trkpt>
<trkpt lat="33.8106122" lon="-118.3935865">
  <ele>-0.265</ele>
  <time>2026-09-02T22:09:12Z</time>
  <course>93.11</course>
  <speed>0.46010868281309364</speed>
  <fix>3d</fix>
</trkpt>
<trkpt lat="33.8106123" lon="-118.3935875">
  <ele>0.14</ele>
  <time>2026-09-02T22:09:12Z</time>
  <course>89.67</course>
  <speed>0.48</speed>
  <fix>3d</fix>
</trkpt>
<trkpt lat="33.8106122" lon="-118.3935859">
  <ele>-0.264</ele>
  <time>2026-09-02T22:09:12Z</time>
  <course>93.09</course>
  <speed>0.46010868281309364</speed>
  <fix>3d</fix>
</trkpt>
<trkpt lat="33.8106123" lon="-118.3935865">
  <ele>0.14</ele>
  <time>2026-09-02T22:09:12Z</time>
  <course>89.53</course>
  <speed>0.48</speed>
  <fix>3d</fix>
</trkpt>
<trkpt lat="33.8106122" lon="-118.3935854">
  <ele>-0.264</ele>
  <time>2026-09-02T22:09:12Z</time>
  <course>93.12</course>
  <speed>0.46010868281309364</speed>
  <fix>3d</fix>
</trkpt>
<trkpt lat="33.8106123" lon="-118.3935865">
  <ele>0.14</ele>
  <time>2026-09-02T22:09:12Z</time>
  <course>89.53</course>
  <speed>0.48</speed>
  <fix>3d</fix>
</trkpt>
<trkpt lat="33.8106122" lon="-118.3935849">
  <ele>-0.264</ele>
  <time>2026-09-02T22:09:12Z</time>
  <course>93.15</course>
  <speed>0.46010868281309364</speed>
  <fix>3d</fix>
</trkpt>
<trkpt lat="33.8106123" lon="-118.3935854">
  <ele>0.14</ele>
  <time>2026-09-02T22:09:12Z</time>
  <course>89.4</course>
  <speed>0.48</speed>
  <fix>3d</fix>
</trkpt>
<trkpt lat="33.8106122" lon="-118.3935844">
  <ele>-0.264</ele>
  <time>2026-09-02T22:09:12Z</time>
  <course>93.21</course>
  <speed>0.46010868281309364</speed>
  <fix>3d</fix>
</trkpt>
<trkpt lat="33.8106123" lon="-118.3935854">
  <ele>0.14</ele>
  <time>2026-09-02T22:09:12Z</time>
  <course>89.4</course>
  <speed>0.48</speed>
  <fix>3d</fix>
</trkpt>
<trkpt lat="33.8106122" lon="-118.3935838">
  <ele>-0.264</ele>
  <time>2026-09-02T22:09:12Z</time>
  <course>93.29</course>
  <speed>0.46010868281309364</speed>
  <fix>3d</fix>
</trkpt>
<trkpt lat="33.8106123" lon="-118.3935844">
  <ele>0.14</ele>
  <time>2026-09-02T22:09:12Z</time>
  <course>89.27</course>
  <speed>0.48</speed>
  <fix>3d</fix>
</trkpt>
<trkpt lat="33.8106122" lon="-118.3935833">
  <ele>-0.265</ele>
  <time>2026-09-02T22:09:12Z</time>
  <course>93.39</course>
  <speed>0.46010868281309364</speed>
  <fix>3d</fix>
</trkpt>
<trkpt lat="33.8106123" lon="-118.3935844">
  <ele>0.14</ele>
  <time>2026-09-02T22:09:12Z</time>
  <course>89.27</course>
  <speed>0.48</speed>
  <fix>3d</fix>
</trkpt>
<trkpt lat="33.8106122" lon="-118.3935828">
  <ele>-0.266</ele>
  <time>2026-09-02T22:09:12Z</time>
  <course>93.53</course>
  <speed>0.450111097397076</speed>
  <fix>3d</fix>
</trkpt>
<trkpt lat="33.8106123" lon="-118.3935833">
  <ele>0.14</ele>
  <time>2026-09-02T22:09:12Z</time>
  <course>89.17</course>
  <speed>0.48</speed>
  <fix>3d</fix>
</trkpt>
<trkpt lat="33.8106122" lon="-118.3935823">
  <ele>-0.266</ele>
  <time>2026-09-02T22:09:12Z</time>
  <course>93.74</course>
  <speed>0.4301162633521314</speed>
  <fix>3d</fix>
</trkpt>
<trkpt lat="33.8106123" lon="-118.3935833">
  <ele>0.14</ele>
  <time>2026-09-02T22:09:12Z</time>
  <course>89.17</course>
  <speed>0.48</speed>
  <fix>3d</fix>
</trkpt>
<trkpt lat="33.8106122" lon="-118.3935818">
  <ele>-0.266</ele>
  <time>2026-09-02T22:09:12Z</time>
  <course>93.99</course>
  <speed>0.4001249804748511</speed>
  <fix>3d</fix>
</trkpt>
<trkpt lat="33.8106123" lon="-118.3935823">
  <ele>0.13</ele>
  <time>2026-09-02T22:09:12Z</time>
  <course>89.08</course>
  <speed>0.46</speed>
  <fix>3d</fix>
</trkpt>
<trkpt lat="33.8106122" lon="-118.3935814">
  <ele>-0.268</ele>
  <time>2026-09-02T22:09:12Z</time>
  <course>94.23</course>
  <speed>0.38013155617496425</speed>
  <fix>3d</fix>
</trkpt>
<trkpt lat="33.8106123" lon="-118.3935823">
  <ele>0.13</ele>
  <time>2026-09-02T22:09:12Z</time>
  <course>89.08</course>
  <speed>0.46</speed>
  <fix>3d</fix>
</trkpt>
<trkpt lat="33.8106122" lon="-118.3935809">
  <ele>-0.27</ele>
  <time>2026-09-02T22:09:12Z</time>
  <course>94.5</course>
  <speed>0.35014282800023194</speed>
  <fix>3d</fix>
</trkpt>
<trkpt lat="33.8106123" lon="-118.3935813">
  <ele>0.13</ele>
  <time>2026-09-02T22:09:12Z</time>
  <course>89.06</course>
  <speed>0.42</speed>
  <fix>3d</fix>
</trkpt>
<trkpt lat="33.8106122" lon="-118.3935805">
  <ele>-0.271</ele>
  <time>2026-09-02T22:09:12Z</time>
  <course>94.79</course>
  <speed>0.3301514803843835</speed>
  <fix>3d</fix>
</trkpt>
<trkpt lat="33.8106123" lon="-118.3935813">
  <ele>0.13</ele>
  <time>2026-09-02T22:09:12Z</time>
  <course>89.06</course>
  <speed>0.42</speed>
  <fix>3d</fix>
</trkpt>
<trkpt lat="33.8106122" lon="-118.3935802">
  <ele>-0.271</ele>
  <time>2026-09-02T22:09:12Z</time>
  <course>95.13</course>
  <speed>0.30016662039607267</speed>
  <fix>3d</fix>
</trkpt>
<trkpt lat="33.8106123" lon="-118.3935804">
  <ele>0.13</ele>
  <time>2026-09-02T22:09:12Z</time>
  <course>89.14</course>
  <speed>0.37</speed>
  <fix>3d</fix>
</trkpt>
<trkpt lat="33.8106122" lon="-118.3935798">
  <ele>-0.272</ele>
  <time>2026-09-02T22:09:12Z</time>
  <course>95.5</course>
  <speed>0.27018512172212594</speed>
  <fix>3d</fix>
</trkpt>
<trkpt lat="33.8106123" lon="-118.3935804">
  <ele>0.13</ele>
  <time>2026-09-02T22:09:12Z</time>
  <course>89.14</course>
  <speed>0.37</speed>
  <fix>3d</fix>
</trkpt>
<trkpt lat="33.8106122" lon="-118.3935795">
  <ele>-0.273</ele>
  <time>2026-09-02T22:09:12Z</time>
  <course>95.94</course>
  <speed>0.2501999200639361</speed>
  <fix>3d</fix>
</trkpt>
<trkpt lat="33.8106123" lon="-118.3935797">
  <ele>0.13</ele>
  <time>2026-09-02T22:09:12Z</time>
  <course>89.24</course>
  <speed>0.32</speed>
  <fix>3d</fix>
</trkpt>
<trkpt lat="33.8106122" lon="-118.3935792">
  <ele>-0.274</ele>
  <time>2026-09-02T22:09:12Z</time>
  <course>96.44</course>
  <speed>0.22022715545545238</speed>
  <fix>3d</fix>
</trkpt>
<trkpt lat="33.8106123" lon="-118.3935797">
  <ele>0.13</ele>
  <time>2026-09-02T22:09:12Z</time>
  <course>89.24</course>
  <speed>0.32</speed>
  <fix>3d</fix>
</trkpt>
<trkpt lat="33.8106122" lon="-118.393579">
  <ele>-0.274</ele>
  <time>2026-09-02T22:09:12Z</time>
  <course>97.03</course>
  <speed>0.2002498439450079</speed>
  <fix>3d</fix>
</trkpt>
<trkpt lat="33.8106123" lon="-118.3935791">
  <ele>0.13</ele>
  <time>2026-09-02T22:09:12Z</time>
  <course>89.38</course>
  <speed>0.26</speed>
  <fix>3d</fix>
</trkpt>
<trkpt lat="33.8106122" lon="-118.3935787">
  <ele>-0.274</ele>
  <time>2026-09-02T22:09:12Z</time>
  <course>97.63</course>
  <speed>0.18027756377319945</speed>
  <fix>3d</fix>
</trkpt>
<trkpt lat="33.8106123" lon="-118.3935791">
  <ele>0.13</ele>
  <time>2026-09-02T22:09:12Z</time>
  <course>89.38</course>
  <speed>0.26</speed>
  <fix>3d</fix>
</trkpt>
<trkpt lat="33.8106122" lon="-118.3935785">
  <ele>-0.274</ele>
  <time>2026-09-02T22:09:12Z</time>
  <course>98.21</course>
  <speed>0.16031219541881397</speed>
  <fix>3d</fix>
</trkpt>
<trkpt lat="33.8106123" lon="-118.3935785">
  <ele>0.13</ele>
  <time>2026-09-02T22:09:12Z</time>
  <course>89.42</course>
  <speed>0.22</speed>
  <fix>3d</fix>
</trkpt>
<trkpt lat="33.8106122" lon="-118.3935783">
  <ele>-0.275</ele>
  <time>2026-09-02T22:09:12Z</time>
  <course>98.92</course>
  <speed>0.15132745950421556</speed>
  <fix>3d</fix>
</trkpt>
<trkpt lat="33.8106123" lon="-118.3935785">
  <ele>0.13</ele>
  <time>2026-09-02T22:09:12Z</time>
  <course>89.42</course>
  <speed>0.22</speed>
  <fix>3d</fix>
</trkpt>
<trkpt lat="33.8106122" lon="-118.3935781">
  <ele>-0.276</ele>
  <time>2026-09-02T22:09:12Z</time>
  <course>99.94</course>
  <speed>0.13152946437965907</speed>
  <fix>3d</fix>
</trkpt>
<trkpt lat="33.8106123" lon="-118.3935781">
  <ele>0.13</ele>
  <time>2026-09-02T22:09:12Z</time>
  <course>90.29</course>
  <speed>0.18</speed>
  <fix>3d</fix>
</trkpt>
<trkpt lat="33.8106122" lon="-118.3935779">
  <ele>-0.276</ele>
  <time>2026-09-02T22:09:12Z</time>
  <course>101.63</course>
  <speed>0.11401754250991379</speed>
  <fix>3d</fix>
</trkpt>
<trkpt lat="33.8106123" lon="-118.3935781">
  <ele>0.13</ele>
  <time>2026-09-02T22:09:12Z</time>
  <course>90.29</course>
  <speed>0.18</speed>
  <fix>3d</fix>
</trkpt>
<trkpt lat="33.8106122" lon="-118.3935778">
  <ele>-0.277</ele>
  <time>2026-09-02T22:09:12Z</time>
  <course>103.52</course>
  <speed>0.1044030650891055</speed>
  <fix>3d</fix>
</trkpt>
<trkpt lat="33.8106123" lon="-118.3935777">
  <ele>0.12</ele>
  <time>2026-09-02T22:09:12Z</time>
  <course>93.83</course>
  <speed>0.15</speed>
  <fix>3d</fix>
</trkpt>
<trkpt lat="33.8106122" lon="-118.3935777">
  <ele>-0.279</ele>
  <time>2026-09-02T22:09:12Z</time>
  <course>104.42</course>
  <speed>0.0854400374531753</speed>
  <fix>3d</fix>
</trkpt>
<trkpt lat="33.8106123" lon="-118.3935777">
  <ele>0.12</ele>
  <time>2026-09-02T22:09:12Z</time>
  <course>93.83</course>
  <speed>0.15</speed>
  <fix>3d</fix>
</trkpt>
<trkpt lat="33.8106121" lon="-118.3935776">
  <ele>-0.281</ele>
  <time>2026-09-02T22:09:12Z</time>
  <course>103.57</course>
  <speed>0.06403124237432849</speed>
  <fix>3d</fix>
</trkpt>
<trkpt lat="33.8106123" lon="-118.3935774">
  <ele>0.12</ele>
  <time>2026-09-02T22:09:12Z</time>
  <course>99.15</course>
  <speed>0.11</speed>
  <fix>3d</fix>
</trkpt>
<trkpt lat="33.8106121" lon="-118.3935775">
  <ele>-0.282</ele>
  <time>2026-09-02T22:09:12Z</time>
  <course>101.1</course>
  <speed>0.05</speed>
  <fix>3d</fix>
</trkpt>
<trkpt lat="33.8106123" lon="-118.3935774">
  <ele>0.12</ele>
  <time>2026-09-02T22:09:12Z</time>
  <course>99.15</course>
  <speed>0.11</speed>
  <fix>3d</fix>
</trkpt>
<trkpt lat="33.8106121" lon="-118.3935774">
  <ele>-0.284</ele>
  <time>2026-09-02T22:09:12Z</time>
  <course>98.6</course>
  <speed>0.0316227766016838</speed>
  <fix>3d</fix>
</trkpt>
<trkpt lat="33.8106123" lon="-118.3935772">
  <ele>0.12</ele>
  <time>2026-09-02T22:09:12Z</time>
  <course>105.57</course>
  <speed>0.07</speed>
  <fix>3d</fix>
</trkpt>
<trkpt lat="33.8106121" lon="-118.3935774">
  <ele>-0.285</ele>
  <time>2026-09-02T22:09:12Z</time>
  <course>96.97</course>
  <speed>0.0316227766016838</speed>
  <fix>3d</fix>
</trkpt>
<trkpt lat="33.8106123" lon="-118.3935772">
  <ele>0.12</ele>
  <time>2026-09-02T22:09:12Z</time>
  <course>105.57</course>
  <speed>0.07</speed>
  <fix>3d</fix>
</trkpt>
<trkpt lat="33.8106121" lon="-118.3935774">
  <ele>-0.286</ele>
  <time>2026-09-02T22:09:12Z</time>
  <course>96.61</course>
  <speed>0.03</speed>
  <fix>3d</fix>
</trkpt>
<trkpt lat="33.8106123" lon="-118.3935771">
  <ele>0.12</ele>
  <time>2026-09-02T22:09:12Z</time>
  <course>112.28</course>
  <speed>0.04</speed>
  <fix>3d</fix>
</trkpt>
<trkpt lat="33.8106121" lon="-118.3935773">
  <ele>-0.287</ele>
  <time>2026-09-02T22:09:12Z</time>
  <course>98.35</course>
  <speed>0.02</speed>
  <fix>3d</fix>
</trkpt>
<trkpt lat="33.8106123" lon="-118.3935771">
  <ele>0.12</ele>
  <time>2026-09-02T22:09:12Z</time>
  <course>112.28</course>
  <speed>0.04</speed>
  <fix>3d</fix>
</trkpt>
<trkpt lat="33.8106121" lon="-118.3935773">
  <ele>-0.287</ele>
  <time>2026-09-02T22:09:12Z</time>
  <course>101.14</course>
  <speed>0.022360679774997897</speed>
  <fix>3d</fix>
</trkpt>
<trkpt lat="33.8106123" lon="-118.393577">
  <ele>0.12</ele>
  <time>2026-09-02T22:09:12Z</time>
  <course>116.45</course>
  <speed>0.02</speed>
  <fix>3d</fix>
</trkpt>
<trkpt lat="33.8106121" lon="-118.3935773">
  <ele>-0.286</ele>
  <time>2026-09-02T22:09:12Z</time>
  <course>104.35</course>
  <speed>0.022360679774997897</speed>
  <fix>3d</fix>
</trkpt>
<trkpt lat="33.8106123" lon="-118.393577">
  <ele>0.12</ele>
  <time>2026-09-02T22:09:12Z</time>
  <course>116.45</course>
  <speed>0.02</speed>
  <fix>3d</fix>
</trkpt>
<trkpt lat="33.8106121" lon="-118.3935773">
  <ele>-0.285</ele>
  <time>2026-09-02T22:09:12Z</time>
  <course>107.84</course>
  <speed>0.0282842712474619</speed>
  <fix>3d</fix>
</trkpt>
<trkpt lat="33.8106123" lon="-118.393577">
  <ele>0.12</ele>
  <time>2026-09-02T22:09:12Z</time>
  <course>136.53</course>
  <speed>0.01</speed>
  <fix>3d</fix>
</trkpt>
<trkpt lat="33.8106121" lon="-118.3935773">
  <ele>-0.284</ele>
  <time>2026-09-02T22:09:12Z</time>
  <course>111.53</course>
  <speed>0.03605551275463989</speed>
  <fix>3d</fix>
</trkpt>
<trkpt lat="33.8106123" lon="-118.393577">
  <ele>0.12</ele>
  <time>2026-09-02T22:09:12Z</time>
  <course>136.53</course>
  <speed>0.01</speed>
  <fix>3d</fix>
</trkpt>
<trkpt lat="33.8106121" lon="-118.3935773">
  <ele>-0.282</ele>
  <time>2026-09-02T22:09:12Z</time>
  <course>115.42</course>
  <speed>0.044721359549995794</speed>
  <fix>3d</fix>
</trkpt>
<trkpt lat="33.8106123" lon="-118.393577">
  <ele>0.12</ele>
  <time>2026-09-02T22:09:12Z</time>
  <course>219.1</course>
  <speed>0.0</speed>
  <fix>3d</fix>
</trkpt>
<trkpt lat="33.8106121" lon="-118.3935773">
  <ele>-0.279</ele>
  <time>2026-09-02T22:09:12Z</time>
  <course>119.46</course>
  <speed>0.053851648071345036</speed>
  <fix>3d</fix>
</trkpt>
<trkpt lat="33.8106123" lon="-118.393577">
  <ele>0.12</ele>
  <time>2026-09-02T22:09:12Z</time>
  <course>219.1</course>
  <speed>0.0</speed>
  <fix>3d</fix>
</trkpt>
<trkpt lat="33.8106121" lon="-118.3935774">
  <ele>-0.276</ele>
  <time>2026-09-02T22:09:12Z</time>
  <course>123.65</course>
  <speed>0.07280109889280519</speed>
  <fix>3d</fix>
</trkpt>
<trkpt lat="33.8106123" lon="-118.393577">
  <ele>0.13</ele>
  <time>2026-09-02T22:09:12Z</time>
  <course>252.97</course>
  <speed>0.02</speed>
  <fix>3d</fix>
</trkpt>
<trkpt lat="33.8106121" lon="-118.3935774">
  <ele>-0.275</ele>
  <time>2026-09-02T22:09:12Z</time>
  <course>127.97</course>
  <speed>0.1019803902718557</speed>
  <fix>3d</fix>
</trkpt>
<trkpt lat="33.8106123" lon="-118.393577">
  <ele>0.13</ele>
  <time>2026-09-02T22:09:12Z</time>
  <course>252.97</course>
  <speed>0.02</speed>
  <fix>3d</fix>
</trkpt>
<trkpt lat="33.8106121" lon="-118.3935774">
  <ele>-0.274</ele>
  <time>2026-09-02T22:09:12Z</time>
  <course>132.41</course>
  <speed>0.12165525060596438</speed>
  <fix>3d</fix>
</trkpt>
<trkpt lat="33.8106122" lon="-118.393577">
  <ele>0.13</ele>
  <time>2026-09-02T22:09:12Z</time>
  <course>259.71</course>
  <speed>0.06</speed>
  <fix>3d</fix>
</trkpt>
<trkpt lat="33.8106121" lon="-118.3935776">
  <ele>-0.272</ele>
  <time>2026-09-02T22:09:12Z</time>
  <course>136.96</course>
  <speed>0.1414213562373095</speed>
  <fix>3d</fix>
</trkpt>
<trkpt lat="33.8106122" lon="-118.393577">
  <ele>0.13</ele>
  <time>2026-09-02T22:09:12Z</time>
  <course>259.71</course>
  <speed>0.06</speed>
  <fix>3d</fix>
</trkpt>
<trkpt lat="33.8106121" lon="-118.3935777">
  <ele>-0.271</ele>
  <time>2026-09-02T22:09:12Z</time>
  <course>141.66</course>
  <speed>0.1711724276862369</speed>
  <fix>3d</fix>
</trkpt>
<trkpt lat="33.8106122" lon="-118.3935772">
  <ele>0.13</ele>
  <time>2026-09-02T22:09:12Z</time>
  <course>262.89</course>
  <speed>0.1</speed>
  <fix>3d</fix>
</trkpt>
<trkpt lat="33.8106121" lon="-118.3935778">
  <ele>-0.307</ele>
  <time>2026-09-02T22:09:12Z</time>
  <course>144.47</course>
  <speed>0.16124515496597097</speed>
  <fix>3d</fix>
</trkpt>
<trkpt lat="33.8106122" lon="-118.3935772">
  <ele>0.13</ele>
  <time>2026-09-02T22:09:12Z</time>
  <course>262.89</course>
  <speed>0.1</speed>
  <fix>3d</fix>
</trkpt>
<trkpt lat="33.8106121" lon="-118.393578">
  <ele>-0.397</ele>
  <time>2026-09-02T22:09:12Z</time>
  <course>145.66</course>
  <speed>0.15132745950421556</speed>
  <fix>3d</fix>
</trkpt>
<trkpt lat="33.8106122" lon="-118.3935774">
  <ele>0.1</ele>
  <time>2026-09-02T22:09:12Z</time>
  <course>265.14</course>
  <speed>0.13</speed>
  <fix>3d</fix>
</trkpt>
<trkpt lat="33.8106121" lon="-118.3935781">
  <ele>-0.489</ele>
  <time>2026-09-02T22:09:12Z</time>
  <course>146.43</course>
  <speed>0.1414213562373095</speed>
  <fix>3d</fix>
</trkpt>
<trkpt lat="33.8106122" lon="-118.3935774">
  <ele>0.1</ele>
  <time>2026-09-02T22:09:12Z</time>
  <course>265.14</course>
  <speed>0.13</speed>
  <fix>3d</fix>
</trkpt>
<trkpt lat="33.8106121" lon="-118.3935782">
  <ele>-0.56</ele>
  <time>2026-09-02T22:09:12Z</time>
  <course>146.99</course>
  <speed>0.140356688476182</speed>
  <fix>3d</fix>
</trkpt>
<trkpt lat="33.8106122" lon="-118.3935777">
  <ele>0.0</ele>
  <time>2026-09-02T22:09:12Z</time>
  <course>267.05</course>
  <speed>0.13</speed>
  <fix>3d</fix>
</trkpt>
<trkpt lat="33.8106121" lon="-118.3935783">
  <ele>-0.613</ele>
  <time>2026-09-02T22:09:12Z</time>
  <course>147.44</course>
  <speed>0.130384048104053</speed>
  <fix>3d</fix>
</trkpt>
<trkpt lat="33.8106122" lon="-118.3935777">
  <ele>0.0</ele>
  <time>2026-09-02T22:09:12Z</time>
  <course>267.05</course>
  <speed>0.13</speed>
  <fix>3d</fix>
</trkpt>
<trkpt lat="33.8106121" lon="-118.3935785">
  <ele>-0.654</ele>
  <time>2026-09-02T22:09:12Z</time>
  <course>147.81</course>
  <speed>0.130384048104053</speed>
  <fix>3d</fix>
</trkpt>
<trkpt lat="33.8106122" lon="-118.393578">
  <ele>-0.14</ele>
  <time>2026-09-02T22:09:12Z</time>
  <course>268.76</course>
  <speed>0.12</speed>
  <fix>3d</fix>
</trkpt>
<trkpt lat="33.8106121" lon="-118.3935786">
  <ele>-0.687</ele>
  <time>2026-09-02T22:09:12Z</time>
  <course>148.13</course>
  <speed>0.12041594578792296</speed>
  <fix>3d</fix>
</trkpt>
<trkpt lat="33.8106122" lon="-118.393578">
  <ele>-0.14</ele>
  <time>2026-09-02T22:09:12Z</time>
  <course>268.76</course>
  <speed>0.12</speed>
  <fix>3d</fix>
</trkpt>
<trkpt lat="33.8106121" lon="-118.3935787">
  <ele>-0.713</ele>
  <time>2026-09-02T22:09:12Z</time>
  <course>148.4</course>
  <speed>0.12041594578792296</speed>
  <fix>3d</fix>
</trkpt>
<trkpt lat="33.8106122" lon="-118.3935783">
  <ele>-0.22</ele>
  <time>2026-09-02T22:09:12Z</time>
  <course>270.21</course>
  <speed>0.1</speed>
  <fix>3d</fix>
</trkpt>
<trkpt lat="33.8106121" lon="-118.3935788">
  <ele>-0.735</ele>
  <time>2026-09-02T22:09:12Z</time>
  <course>148.65</course>
  <speed>0.11045361017187261</speed>
  <fix>3d</fix>
</trkpt>
<trkpt lat="33.8106122" lon="-118.3935783">
  <ele>-0.22</ele>
  <time>2026-09-02T22:09:12Z</time>
  <course>270.21</course>
  <speed>0.1</speed>
  <fix>3d</fix>
</trkpt>
<trkpt lat="33.8106121" lon="-118.3935789">
  <ele>-0.753</ele>
  <time>2026-09-02T22:09:12Z</time>
  <course>148.87</course>
  <speed>0.11045361017187261</speed>
  <fix>3d</fix>
</trkpt>
<trkpt lat="33.8106122" lon="-118.3935785">
  <ele>-0.26</ele>
  <time>2026-09-02T22:09:12Z</time>
  <course>271.51</course>
  <speed>0.1</speed>
  <fix>3d</fix>
</trkpt>
<trkpt lat="33.8106121" lon="-118.393579">
  <ele>-0.768</ele>
  <time>2026-09-02T22:09:12Z</time>
  <course>149.07</course>
  <speed>0.11045361017187261</speed>
  <fix>3d</fix>
</trkpt>
<trkpt lat="33.8106122" lon="-118.3935785">
  <ele>-0.26</ele>
  <time>2026-09-02T22:09:12Z</time>
  <course>271.51</course>
  <speed>0.1</speed>
  <fix>3d</fix>
</trkpt>
<trkpt lat="33.8106121" lon="-118.3935791">
  <ele>-0.78</ele>
  <time>2026-09-02T22:09:12Z</time>
  <course>149.25</course>
  <speed>0.1004987562112089</speed>
  <fix>3d</fix>
</trkpt>
<trkpt lat="33.8106122" lon="-118.3935788">
  <ele>-0.31</ele>
  <time>2026-09-02T22:09:12Z</time>
  <course>272.69</course>
  <speed>0.09</speed>
  <fix>3d</fix>
</trkpt>
<trkpt lat="33.8106121" lon="-118.3935791">
  <ele>-0.79</ele>
  <time>2026-09-02T22:09:12Z</time>
  <course>149.42</course>
  <speed>0.1004987562112089</speed>
  <fix>3d</fix>
</trkpt>
<trkpt lat="33.8106122" lon="-118.3935788">
  <ele>-0.31</ele>
  <time>2026-09-02T22:09:12Z</time>
  <course>272.69</course>
  <speed>0.09</speed>
  <fix>3d</fix>
</trkpt>
<trkpt lat="33.8106121" lon="-118.3935792">
  <ele>-0.799</ele>
  <time>2026-09-02T22:09:12Z</time>
  <course>149.58</course>
  <speed>0.1004987562112089</speed>
  <fix>3d</fix>
</trkpt>
<trkpt lat="33.8106122" lon="-118.3935789">
  <ele>-0.34</ele>
  <time>2026-09-02T22:09:12Z</time>
  <course>273.75</course>
  <speed>0.08</speed>
  <fix>3d</fix>
</trkpt>
<trkpt lat="33.8106121" lon="-118.3935793">
  <ele>-0.806</ele>
  <time>2026-09-02T22:09:12Z</time>
  <course>149.72</course>
  <speed>0.1004987562112089</speed>
  <fix>3d</fix>
</trkpt>
<trkpt lat="33.8106122" lon="-118.3935789">
  <ele>-0.34</ele>
  <time>2026-09-02T22:09:12Z</time>
  <course>273.75</course>
  <speed>0.08</speed>
  <fix>3d</fix>
</trkpt>
<trkpt lat="33.8106121" lon="-118.3935794">
  <ele>-0.812</ele>
  <time>2026-09-02T22:09:12Z</time>
  <course>149.86</course>
  <speed>0.09055385138137417</speed>
  <fix>3d</fix>
</trkpt>
<trkpt lat="33.8106122" lon="-118.393579">
  <ele>-0.36</ele>
  <time>2026-09-02T22:09:12Z</time>
  <course>274.7</course>
  <speed>0.08</speed>
  <fix>3d</fix>
</trkpt>
<trkpt lat="33.8106121" lon="-118.3935795">
  <ele>-0.815</ele>
  <time>2026-09-02T22:09:12Z</time>
  <course>149.99</course>
  <speed>0.09</speed>
  <fix>3d</fix>
</trkpt>
<trkpt lat="33.8106122" lon="-118.393579">
  <ele>-0.36</ele>
  <time>2026-09-02T22:09:12Z</time>
  <course>274.7</course>
  <speed>0.08</speed>
  <fix>3d</fix>
</trkpt>
<trkpt lat="33.8106121" lon="-118.3935796">
  <ele>-0.817</ele>
  <time>2026-09-02T22:09:12Z</time>
  <course>150.11</course>
  <speed>0.09</speed>
  <fix>3d</fix>
</trkpt>
<trkpt lat="33.8106122" lon="-118.3935793">
  <ele>-0.37</ele>
  <time>2026-09-02T22:09:12Z</time>
  <course>275.56</course>
  <speed>0.07</speed>
  <fix>3d</fix>
</trkpt>
<trkpt lat="33.8106121" lon="-118.3935796">
  <ele>-0.818</ele>
  <time>2026-09-02T22:09:12Z</time>
  <course>150.22</course>
  <speed>0.09</speed>
  <fix>3d</fix>
</trkpt>
<trkpt lat="33.8106122" lon="-118.3935793">
  <ele>-0.37</ele>
  <time>2026-09-02T22:09:12Z</time>
  <course>275.56</course>
  <speed>0.07</speed>
  <fix>3d</fix>
</trkpt>
<trkpt lat="33.8106121" lon="-118.3935797">
  <ele>-0.82</ele>
  <time>2026-09-02T22:09:12Z</time>
  <course>150.33</course>
  <speed>0.09</speed>
  <fix>3d</fix>
</trkpt>
<trkpt lat="33.8106122" lon="-118.3935794">
  <ele>-0.38</ele>
  <time>2026-09-02T22:09:12Z</time>
  <course>276.34</course>
  <speed>0.07</speed>
  <fix>3d</fix>
</trkpt>
<trkpt lat="33.8106121" lon="-118.3935798">
  <ele>-0.821</ele>
  <time>2026-09-02T22:09:12Z</time>
  <course>150.43</course>
  <speed>0.08</speed>
  <fix>3d</fix>
</trkpt>
<trkpt lat="33.8106122" lon="-118.3935794">
  <ele>-0.38</ele>
  <time>2026-09-02T22:09:12Z</time>
  <course>276.34</course>
  <speed>0.07</speed>
  <fix>3d</fix>
</trkpt>
<trkpt lat="33.8106121" lon="-118.3935798">
  <ele>-0.823</ele>
  <time>2026-09-02T22:09:12Z</time>
  <course>150.53</course>
  <speed>0.08</speed>
  <fix>3d</fix>
</trkpt>
<trkpt lat="33.8106122" lon="-118.3935796">
  <ele>-0.39</ele>
  <time>2026-09-02T22:09:12Z</time>
  <course>277.07</course>
  <speed>0.06</speed>
  <fix>3d</fix>
</trkpt>
<trkpt lat="33.8106121" lon="-118.3935799">
  <ele>-0.824</ele>
  <time>2026-09-02T22:09:12Z</time>
  <course>150.63</course>
  <speed>0.08</speed>
  <fix>3d</fix>
</trkpt>
<trkpt lat="33.8106122" lon="-118.3935796">
  <ele>-0.39</ele>
  <time>2026-09-02T22:09:12Z</time>
  <course>277.07</course>
  <speed>0.06</speed>
  <fix>3d</fix>
</trkpt>
<trkpt lat="33.8106121" lon="-118.39358">
  <ele>-0.825</ele>
  <time>2026-09-02T22:09:12Z</time>
  <course>150.72</course>
  <speed>0.08</speed>
  <fix>3d</fix>
</trkpt>
<trkpt lat="33.8106122" lon="-118.3935797">
  <ele>-0.4</ele>
  <time>2026-09-02T22:09:12Z</time>
  <course>277.74</course>
  <speed>0.06</speed>
  <fix>3d</fix>
</trkpt>
<trkpt lat="33.8106121" lon="-118.3935801">
  <ele>-0.826</ele>
  <time>2026-09-02T22:09:12Z</time>
  <course>150.8</course>
  <speed>0.08</speed>
  <fix>3d</fix>
</trkpt>
<trkpt lat="33.8106122" lon="-118.3935797">
  <ele>-0.4</ele>
  <time>2026-09-02T22:09:12Z</time>
  <course>277.74</course>
  <speed>0.06</speed>
  <fix>3d</fix>
</trkpt>
<trkpt lat="33.8106121" lon="-118.3935801">
  <ele>-0.825</ele>
  <time>2026-09-02T22:09:12Z</time>
  <course>150.89</course>
  <speed>0.08</speed>
  <fix>3d</fix>
</trkpt>
<trkpt lat="33.8106122" lon="-118.3935798">
  <ele>-0.4</ele>
  <time>2026-09-02T22:09:12Z</time>
  <course>278.36</course>
  <speed>0.06</speed>
  <fix>3d</fix>
</trkpt>
<trkpt lat="33.8106121" lon="-118.3935802">
  <ele>-0.823</ele>
  <time>2026-09-02T22:09:12Z</time>
  <course>150.97</course>
  <speed>0.08</speed>
  <fix>3d</fix>
</trkpt>
<trkpt lat="33.8106122" lon="-118.3935798">
  <ele>-0.4</ele>
  <time>2026-09-02T22:09:12Z</time>
  <course>278.36</course>
  <speed>0.06</speed>
  <fix>3d</fix>
</trkpt>
<trkpt lat="33.8106121" lon="-118.3935802">
  <ele>-0.82</ele>
  <time>2026-09-02T22:09:12Z</time>
  <course>151.05</course>
  <speed>0.08</speed>
  <fix>3d</fix>
</trkpt>
<trkpt lat="33.8106122" lon="-118.3935799">
  <ele>-0.41</ele>
  <time>2026-09-02T22:09:12Z</time>
  <course>278.93</course>
  <speed>0.05</speed>
  <fix>3d</fix>
</trkpt>
<trkpt lat="33.8106121" lon="-118.3935803">
  <ele>-0.818</ele>
  <time>2026-09-02T22:09:12Z</time>
  <course>151.12</course>
  <speed>0.08</speed>
  <fix>3d</fix>
</trkpt>
<trkpt lat="33.8106122" lon="-118.3935799">
  <ele>-0.41</ele>
  <time>2026-09-02T22:09:12Z</time>
  <course>278.93</course>
  <speed>0.05</speed>
  <fix>3d</fix>
</trkpt>
<trkpt lat="33.8106121" lon="-118.3935805">
  <ele>-0.804</ele>
  <time>2026-09-02T22:09:12Z</time>
  <course>151.39</course>
  <speed>0.07</speed>
  <fix>3d</fix>
</trkpt>
<trkpt lat="33.8106122" lon="-118.3935802">
  <ele>-0.4</ele>
  <time>2026-09-02T22:09:12Z</time>
  <course>279.95</course>
  <speed>0.05</speed>
  <fix>3d</fix>
</trkpt>
<trkpt lat="33.8106121" lon="-118.3935807">
  <ele>-0.788</ele>
  <time>2026-09-02T22:09:12Z</time>
  <course>151.58</course>
  <speed>0.07</speed>
  <fix>3d</fix>
</trkpt>
<trkpt lat="33.8106122" lon="-118.3935804">
  <ele>-0.38</ele>
  <time>2026-09-02T22:09:12Z</time>
  <course>280.85</course>
  <speed>0.04</speed>
  <fix>3d</fix>
</trkpt>
<trkpt lat="33.8106121" lon="-118.3935807">
  <ele>-0.784</ele>
  <time>2026-09-02T22:09:12Z</time>
  <course>151.64</course>
  <speed>0.07</speed>
  <fix>3d</fix>
</trkpt>
<trkpt lat="33.8106122" lon="-118.3935804">
  <ele>-0.38</ele>
  <time>2026-09-02T22:09:12Z</time>
  <course>280.85</course>
  <speed>0.04</speed>
  <fix>3d</fix>
</trkpt>
<trkpt lat="33.8106121" lon="-118.3935808">
  <ele>-0.779</ele>
  <time>2026-09-02T22:09:12Z</time>
  <course>151.69</course>
  <speed>0.07</speed>
  <fix>3d</fix>
</trkpt>
<trkpt lat="33.8106123" lon="-118.3935805">
  <ele>-0.37</ele>
  <time>2026-09-02T22:09:12Z</time>
  <course>281.26</course>
  <speed>0.04</speed>
  <fix>3d</fix>
</trkpt>
<trkpt lat="33.8106121" lon="-118.3935808">
  <ele>-0.773</ele>
  <time>2026-09-02T22:09:12Z</time>
  <course>151.75</course>
  <speed>0.07</speed>
  <fix>3d</fix>
</trkpt>
<trkpt lat="33.8106123" lon="-118.3935805">
  <ele>-0.37</ele>
  <time>2026-09-02T22:09:12Z</time>
  <course>281.26</course>
  <speed>0.04</speed>
  <fix>3d</fix>
</trkpt>
<trkpt lat="33.8106121" lon="-118.3935809">
  <ele>-0.767</ele>
  <time>2026-09-02T22:09:12Z</time>
  <course>151.8</course>
  <speed>0.07</speed>
  <fix>3d</fix>
</trkpt>
<trkpt lat="33.8106123" lon="-118.3935806">
  <ele>-0.36</ele>
  <time>2026-09-02T22:09:12Z</time>
  <course>281.65</course>
  <speed>0.04</speed>
  <fix>3d</fix>
</trkpt>
<trkpt lat="33.8106122" lon="-118.3935809">
  <ele>-0.76</ele>
  <time>2026-09-02T22:09:12Z</time>
  <course>151.86</course>
  <speed>0.07</speed>
  <fix>3d</fix>
</trkpt>
<trkpt lat="33.8106123" lon="-118.3935806">
  <ele>-0.36</ele>
  <time>2026-09-02T22:09:12Z</time>
  <course>281.65</course>
  <speed>0.04</speed>
  <fix>3d</fix>
</trkpt>
<trkpt lat="33.8106122" lon="-118.393581">
  <ele>-0.752</ele>
  <time>2026-09-02T22:09:12Z</time>
  <course>151.91</course>
  <speed>0.07</speed>
  <fix>3d</fix>
</trkpt>
<trkpt lat="33.8106123" lon="-118.3935807">
  <ele>-0.35</ele>
  <time>2026-09-02T22:09:12Z</time>
  <course>282.02</course>
  <speed>0.04</speed>
  <fix>3d</fix>
</trkpt>
<trkpt lat="33.8106122" lon="-118.393581">
  <ele>-0.744</ele>
  <time>2026-09-02T22:09:12Z</time>
  <course>151.96</course>
  <speed>0.07</speed>
  <fix>3d</fix>
</trkpt>
<trkpt lat="33.8106123" lon="-118.3935807">
  <ele>-0.35</ele>
  <time>2026-09-02T22:09:12Z</time>
  <course>282.02</course>
  <speed>0.04</speed>
  <fix>3d</fix>
</trkpt>
<trkpt lat="33.8106122" lon="-118.3935811">
  <ele>-0.735</ele>
  <time>2026-09-02T22:09:12Z</time>
  <course>152.0</course>
  <speed>0.07</speed>
  <fix>3d</fix>
</trkpt>
<trkpt lat="33.8106123" lon="-118.3935808">
  <ele>-0.34</ele>
  <time>2026-09-02T22:09:12Z</time>
  <course>282.36</course>
  <speed>0.04</speed>
  <fix>3d</fix>
</trkpt>
<trkpt lat="33.8106122" lon="-118.3935811">
  <ele>-0.728</ele>
  <time>2026-09-02T22:09:12Z</time>
  <course>152.05</course>
  <speed>0.06</speed>
  <fix>3d</fix>
</trkpt>
<trkpt lat="33.8106123" lon="-118.3935808">
  <ele>-0.34</ele>
  <time>2026-09-02T22:09:12Z</time>
  <course>282.36</course>
  <speed>0.04</speed>
  <fix>3d</fix>
</trkpt>
<trkpt lat="33.8106122" lon="-118.3935812">
  <ele>-0.72</ele>
  <time>2026-09-02T22:09:12Z</time>
  <course>152.1</course>
  <speed>0.06</speed>
  <fix>3d</fix>
</trkpt>
<trkpt lat="33.8106123" lon="-118.3935809">
  <ele>-0.32</ele>
  <time>2026-09-02T22:09:12Z</time>
  <course>282.68</course>
  <speed>0.04</speed>
  <fix>3d</fix>
</trkpt>
<trkpt lat="33.8106122" lon="-118.3935812">
  <ele>-0.712</ele>
  <time>2026-09-02T22:09:12Z</time>
  <course>152.14</course>
  <speed>0.06</speed>
  <fix>3d</fix>
</trkpt>
<trkpt lat="33.8106123" lon="-118.3935809">
  <ele>-0.32</ele>
  <time>2026-09-02T22:09:12Z</time>
  <course>282.68</course>
  <speed>0.04</speed>
  <fix>3d</fix>
</trkpt>
<trkpt lat="33.8106122" lon="-118.3935813">
  <ele>-0.702</ele>
  <time>2026-09-02T22:09:12Z</time>
  <course>152.19</course>
  <speed>0.06</speed>
  <fix>3d</fix>
</trkpt>
<trkpt lat="33.8106123" lon="-118.393581">
  <ele>-0.31</ele>
  <time>2026-09-02T22:09:12Z</time>
  <course>282.99</course>
  <speed>0.04</speed>
  <fix>3d</fix>
</trkpt>
<trkpt lat="33.8106122" lon="-118.3935813">
  <ele>-0.693</ele>
  <time>2026-09-02T22:09:12Z</time>
  <course>152.23</course>
  <speed>0.06</speed>
  <fix>3d</fix>
</trkpt>
<trkpt lat="33.8106123" lon="-118.393581">
  <ele>-0.31</ele>
  <time>2026-09-02T22:09:12Z</time>
  <course>282.99</course>
  <speed>0.04</speed>
  <fix>3d</fix>
</trkpt>
<trkpt lat="33.8106122" lon="-118.3935814">
  <ele>-0.684</ele>
  <time>2026-09-02T22:09:12Z</time>
  <course>152.28</course>
  <speed>0.06</speed>
  <fix>3d</fix>
</trkpt>
<trkpt lat="33.8106124" lon="-118.3935811">
  <ele>-0.29</ele>
  <time>2026-09-02T22:09:12Z</time>
  <course>283.29</course>
  <speed>0.03</speed>
  <fix>3d</fix>
</trkpt>
<trkpt lat="33.8106122" lon="-118.3935814">
  <ele>-0.675</ele>
  <time>2026-09-02T22:09:12Z</time>
  <course>152.32</course>
  <speed>0.06</speed>
  <fix>3d</fix>
</trkpt>
<trkpt lat="33.8106124" lon="-118.3935811">
  <ele>-0.29</ele>
  <time>2026-09-02T22:09:12Z</time>
  <course>283.29</course>
  <speed>0.03</speed>
  <fix>3d</fix>
</trkpt>
<trkpt lat="33.8106123" lon="-118.3935814">
  <ele>-0.665</ele>
  <time>2026-09-02T22:09:12Z</time>
  <course>152.36</course>
  <speed>0.06</speed>
  <fix>3d</fix>
</trkpt>
<trkpt lat="33.8106125" lon="-118.3935811">
  <ele>-0.28</ele>
  <time>2026-09-02T22:09:12Z</time>
  <course>283.57</course>
  <speed>0.03</speed>
  <fix>3d</fix>
</trkpt>
<trkpt lat="33.8106123" lon="-118.3935815">
  <ele>-0.655</ele>
  <time>2026-09-02T22:09:12Z</time>
  <course>152.4</course>
  <speed>0.06</speed>
  <fix>3d</fix>
</trkpt>
<trkpt lat="33.8106125" lon="-118.3935811">
  <ele>-0.28</ele>
  <time>2026-09-02T22:09:12Z</time>
  <course>283.57</course>
  <speed>0.03</speed>
  <fix>3d</fix>
</trkpt>
<trkpt lat="33.8106123" lon="-118.3935815">
  <ele>-0.647</ele>
  <time>2026-09-02T22:09:12Z</time>
  <course>152.44</course>
  <speed>0.06</speed>
  <fix>3d</fix>
</trkpt>
<trkpt lat="33.8106125" lon="-118.3935812">
  <ele>-0.26</ele>
  <time>2026-09-02T22:09:12Z</time>
  <course>283.84</course>
  <speed>0.03</speed>
  <fix>3d</fix>
</trkpt>
<trkpt lat="33.8106123" lon="-118.3935816">
  <ele>-0.637</ele>
  <time>2026-09-02T22:09:12Z</time>
  <course>152.48</course>
  <speed>0.06</speed>
  <fix>3d</fix>
</trkpt>
<trkpt lat="33.8106125" lon="-118.3935812">
  <ele>-0.26</ele>
  <time>2026-09-02T22:09:12Z</time>
  <course>283.84</course>
  <speed>0.03</speed>
  <fix>3d</fix>
</trkpt>
<trkpt lat="33.8106123" lon="-118.3935816">
  <ele>-0.628</ele>
  <time>2026-09-02T22:09:12Z</time>
  <course>152.52</course>
  <speed>0.06</speed>
  <fix>3d</fix>
</trkpt>
<trkpt lat="33.8106125" lon="-118.3935813">
  <ele>-0.24</ele>
  <time>2026-09-02T22:09:12Z</time>
  <course>284.1</course>
  <speed>0.03</speed>
  <fix>3d</fix>
</trkpt>
<trkpt lat="33.8106123" lon="-118.3935816">
  <ele>-0.619</ele>
  <time>2026-09-02T22:09:12Z</time>
  <course>152.55</course>
  <speed>0.06</speed>
  <fix>3d</fix>
</trkpt>
<trkpt lat="33.8106125" lon="-118.3935813">
  <ele>-0.24</ele>
  <time>2026-09-02T22:09:12Z</time>
  <course>284.1</course>
  <speed>0.03</speed>
  <fix>3d</fix>
</trkpt>
<trkpt lat="33.8106124" lon="-118.3935817">
  <ele>-0.611</ele>
  <time>2026-09-02T22:09:12Z</time>
  <course>152.59</course>
  <speed>0.06</speed>
  <fix>3d</fix>
</trkpt>
<trkpt lat="33.8106125" lon="-118.3935813">
  <ele>-0.22</ele>
  <time>2026-09-02T22:09:12Z</time>
  <course>284.33</course>
  <speed>0.03</speed>
  <fix>3d</fix>
</trkpt>
<trkpt lat="33.8106124" lon="-118.3935817">
  <ele>-0.602</ele>
  <time>2026-09-02T22:09:12Z</time>
  <course>152.63</course>
  <speed>0.06</speed>
  <fix>3d</fix>
</trkpt>
<trkpt lat="33.8106125" lon="-118.3935813">
  <ele>-0.22</ele>
  <time>2026-09-02T22:09:12Z</time>
  <course>284.33</course>
  <speed>0.03</speed>
  <fix>3d</fix>
</trkpt>
<trkpt lat="33.8106124" lon="-118.3935817">
  <ele>-0.593</ele>
  <time>2026-09-02T22:09:12Z</time>
  <course>152.66</course>
  <speed>0.06</speed>
  <fix>3d</fix>
</trkpt>
<trkpt lat="33.8106125" lon="-118.3935814">
  <ele>-0.2</ele>
  <time>2026-09-02T22:09:12Z</time>
  <course>284.56</course>
  <speed>0.03</speed>
  <fix>3d</fix>
</trkpt>
<trkpt lat="33.8106124" lon="-118.3935818">
  <ele>-0.583</ele>
  <time>2026-09-02T22:09:12Z</time>
  <course>152.7</course>
  <speed>0.06</speed>
  <fix>3d</fix>
</trkpt>
<trkpt lat="33.8106125" lon="-118.3935814">
  <ele>-0.2</ele>
  <time>2026-09-02T22:09:12Z</time>
  <course>284.56</course>
  <speed>0.03</speed>
  <fix>3d</fix>
</trkpt>
<trkpt lat="33.8106124" lon="-118.3935818">
  <ele>-0.573</ele>
  <time>2026-09-02T22:09:12Z</time>
  <course>152.73</course>
  <speed>0.06</speed>
  <fix>3d</fix>
</trkpt>
<trkpt lat="33.8106125" lon="-118.3935815">
  <ele>-0.19</ele>
  <time>2026-09-02T22:09:12Z</time>
  <course>284.79</course>
  <speed>0.03</speed>
  <fix>3d</fix>
</trkpt>
<trkpt lat="33.8106124" lon="-118.3935818">
  <ele>-0.564</ele>
  <time>2026-09-02T22:09:12Z</time>
  <course>152.77</course>
  <speed>0.06</speed>
  <fix>3d</fix>
</trkpt>
<trkpt lat="33.8106125" lon="-118.3935815">
  <ele>-0.19</ele>
  <time>2026-09-02T22:09:12Z</time>
  <course>284.79</course>
  <speed>0.03</speed>
  <fix>3d</fix>
</trkpt>
<trkpt lat="33.8106125" lon="-118.3935819">
  <ele>-0.553</ele>
  <time>2026-09-02T22:09:12Z</time>
  <course>152.8</course>
  <speed>0.06</speed>
  <fix>3d</fix>
</trkpt>
<trkpt lat="33.8106126" lon="-118.3935816">
  <ele>-0.17</ele>
  <time>2026-09-02T22:09:12Z</time>
  <course>285.02</course>
  <speed>0.03</speed>
  <fix>3d</fix>
</trkpt>
<trkpt lat="33.8106125" lon="-118.3935819">
  <ele>-0.543</ele>
  <time>2026-09-02T22:09:12Z</time>
  <course>152.83</course>
  <speed>0.06</speed>
  <fix>3d</fix>
</trkpt>
<trkpt lat="33.8106126" lon="-118.3935816">
  <ele>-0.17</ele>
  <time>2026-09-02T22:09:12Z</time>
  <course>285.02</course>
  <speed>0.03</speed>
  <fix>3d</fix>
</trkpt>
<trkpt lat="33.8106125" lon="-118.393582">
  <ele>-0.533</ele>
  <time>2026-09-02T22:09:12Z</time>
  <course>152.86</course>
  <speed>0.06082762530298219</speed>
  <fix>3d</fix>
</trkpt>
<trkpt lat="33.8106126" lon="-118.3935817">
  <ele>-0.15</ele>
  <time>2026-09-02T22:09:12Z</time>
  <course>285.23</course>
  <speed>0.03</speed>
  <fix>3d</fix>
</trkpt>
<trkpt lat="33.8106125" lon="-118.393582">
  <ele>-0.523</ele>
  <time>2026-09-02T22:09:12Z</time>
  <course>152.9</course>
  <speed>0.06082762530298219</speed>
  <fix>3d</fix>
</trkpt>
<trkpt lat="33.8106126" lon="-118.3935817">
  <ele>-0.15</ele>
  <time>2026-09-02T22:09:12Z</time>
  <course>285.23</course>
  <speed>0.03</speed>
  <fix>3d</fix>
</trkpt>
<trkpt lat="33.8106125" lon="-118.393582">
  <ele>-0.514</ele>
  <time>2026-09-02T22:09:12Z</time>
  <course>152.93</course>
  <speed>0.06082762530298219</speed>
  <fix>3d</fix>
</trkpt>
<trkpt lat="33.8106126" lon="-118.3935817">
  <ele>-0.13</ele>
  <time>2026-09-02T22:09:12Z</time>
  <course>285.43</course>
  <speed>0.03</speed>
  <fix>3d</fix>
</trkpt>
<trkpt lat="33.8106125" lon="-118.3935821">
  <ele>-0.508</ele>
  <time>2026-09-02T22:09:12Z</time>
  <course>152.96</course>
  <speed>0.06082762530298219</speed>
  <fix>3d</fix>
</trkpt>
<trkpt lat="33.8106126" lon="-118.3935817">
  <ele>-0.13</ele>
  <time>2026-09-02T22:09:12Z</time>
  <course>285.43</course>
  <speed>0.03</speed>
  <fix>3d</fix>
</trkpt>
<trkpt lat="33.8106125" lon="-118.3935821">
  <ele>-0.505</ele>
  <time>2026-09-02T22:09:12Z</time>
  <course>152.99</course>
  <speed>0.06082762530298219</speed>
  <fix>3d</fix>
</trkpt>
<trkpt lat="33.8106126" lon="-118.3935818">
  <ele>-0.11</ele>
  <time>2026-09-02T22:09:12Z</time>
  <course>285.61</course>
  <speed>0.03</speed>
  <fix>3d</fix>
</trkpt>
<trkpt lat="33.8106126" lon="-118.3935821">
  <ele>-0.509</ele>
  <time>2026-09-02T22:09:12Z</time>
  <course>153.02</course>
  <speed>0.06082762530298219</speed>
  <fix>3d</fix>
</trkpt>
<trkpt lat="33.8106126" lon="-118.3935818">
  <ele>-0.11</ele>
  <time>2026-09-02T22:09:12Z</time>
  <course>285.61</course>
  <speed>0.03</speed>
  <fix>3d</fix>
</trkpt>
<trkpt lat="33.8106126" lon="-118.3935822">
  <ele>-0.517</ele>
  <time>2026-09-02T22:09:12Z</time>
  <course>153.05</course>
  <speed>0.06082762530298219</speed>
  <fix>3d</fix>
</trkpt>
<trkpt lat="33.8106126" lon="-118.3935818">
  <ele>-0.11</ele>
  <time>2026-09-02T22:09:12Z</time>
  <course>285.79</course>
  <speed>0.02</speed>
  <fix>3d</fix>
</trkpt>
<trkpt lat="33.8106126" lon="-118.3935822">
  <ele>-0.528</ele>
  <time>2026-09-02T22:09:12Z</time>
  <course>153.08</course>
  <speed>0.06082762530298219</speed>
  <fix>3d</fix>
</trkpt>
<trkpt lat="33.8106126" lon="-118.3935818">
  <ele>-0.11</ele>
  <time>2026-09-02T22:09:12Z</time>
  <course>285.79</course>
  <speed>0.02</speed>
  <fix>3d</fix>
</trkpt>
<trkpt lat="33.8106126" lon="-118.3935822">
  <ele>-0.539</ele>
  <time>2026-09-02T22:09:12Z</time>
  <course>153.11</course>
  <speed>0.06082762530298219</speed>
  <fix>3d</fix>
</trkpt>
<trkpt lat="33.8106126" lon="-118.3935819">
  <ele>-0.12</ele>
  <time>2026-09-02T22:09:12Z</time>
  <course>285.96</course>
  <speed>0.02</speed>
  <fix>3d</fix>
</trkpt>
<trkpt lat="33.8106126" lon="-118.3935823">
  <ele>-0.548</ele>
  <time>2026-09-02T22:09:12Z</time>
  <course>153.14</course>
  <speed>0.06082762530298219</speed>
  <fix>3d</fix>
</trkpt>
<trkpt lat="33.8106126" lon="-118.3935819">
  <ele>-0.12</ele>
  <time>2026-09-02T22:09:12Z</time>
  <course>285.96</course>
  <speed>0.02</speed>
  <fix>3d</fix>
</trkpt>
<trkpt lat="33.8106126" lon="-118.3935823">
  <ele>-0.556</ele>
  <time>2026-09-02T22:09:12Z</time>
  <course>153.16</course>
  <speed>0.06082762530298219</speed>
  <fix>3d</fix>
</trkpt>
<trkpt lat="33.8106126" lon="-118.393582">
  <ele>-0.13</ele>
  <time>2026-09-02T22:09:12Z</time>
  <course>286.13</course>
  <speed>0.02</speed>
  <fix>3d</fix>
</trkpt>
<trkpt lat="33.8106126" lon="-118.3935823">
  <ele>-0.563</ele>
  <time>2026-09-02T22:09:12Z</time>
  <course>153.17</course>
  <speed>0.02</speed>
  <fix>3d</fix>
</trkpt>
<trkpt lat="33.8106126" lon="-118.393582">
  <ele>-0.13</ele>
  <time>2026-09-02T22:09:12Z</time>
  <course>286.13</course>
  <speed>0.02</speed>
  <fix>3d</fix>
</trkpt>
<trkpt lat="33.8106127" lon="-118.3935822">
  <ele>-0.567</ele>
  <time>2026-09-02T22:09:12Z</time>
  <course>153.13</course>
  <speed>0.04242640687119285</speed>
  <fix>3d</fix>
</trkpt>
<trkpt lat="33.8106127" lon="-118.393582">
  <ele>-0.14</ele>
  <time>2026-09-02T22:09:12Z</time>
  <course>15.51</course>
  <speed>0.01</speed>
  <fix>3d</fix>
</trkpt>
<trkpt lat="33.8106127" lon="-118.3935822">
  <ele>-0.561</ele>
  <time>2026-09-02T22:09:12Z</time>
  <course>153.12</course>
  <speed>0.07810249675906654</speed>
  <fix>3d</fix>
</trkpt>
<trkpt lat="33.8106127" lon="-118.393582">
  <ele>-0.14</ele>
  <time>2026-09-02T22:09:12Z</time>
  <course>15.51</course>
  <speed>0.01</speed>
  <fix>3d</fix>
</trkpt>
<trkpt lat="33.8106127" lon="-118.3935821">
  <ele>-0.552</ele>
  <time>2026-09-02T22:09:12Z</time>
  <course>153.15</course>
  <speed>0.10816653826391968</speed>
  <fix>3d</fix>
</trkpt>
<trkpt lat="33.8106127" lon="-118.3935819">
  <ele>-0.14</ele>
  <time>2026-09-02T22:09:12Z</time>
  <course>62.19</course>
  <speed>0.08</speed>
  <fix>3d</fix>
</trkpt>
<trkpt lat="33.8106128" lon="-118.393582">
  <ele>-0.542</ele>
  <time>2026-09-02T22:09:12Z</time>
  <course>153.2</course>
  <speed>0.09433981132056603</speed>
  <fix>3d</fix>
</trkpt>
<trkpt lat="33.8106127" lon="-118.3935819">
  <ele>-0.14</ele>
  <time>2026-09-02T22:09:12Z</time>
  <course>62.19</course>
  <speed>0.08</speed>
  <fix>3d</fix>
</trkpt>
<trkpt lat="33.8106128" lon="-118.3935819">
  <ele>-0.53</ele>
  <time>2026-09-02T22:09:12Z</time>
  <course>153.25</course>
  <speed>0.08602325267042626</speed>
  <fix>3d</fix>
</trkpt>
<trkpt lat="33.8106127" lon="-118.3935818">
  <ele>-0.13</ele>
  <time>2026-09-02T22:09:12Z</time>
  <course>65.39</course>
  <speed>0.12</speed>
  <fix>3d</fix>
</trkpt>
<trkpt lat="33.8106129" lon="-118.3935818">
  <ele>-0.522</ele>
  <time>2026-09-02T22:09:12Z</time>
  <course>153.31</course>
  <speed>0.08602325267042626</speed>
  <fix>3d</fix>
</trkpt>
<trkpt lat="33.8106127" lon="-118.3935818">
  <ele>-0.13</ele>
  <time>2026-09-02T22:09:12Z</time>
  <course>65.39</course>
  <speed>0.12</speed>
  <fix>3d</fix>
</trkpt>
<trkpt lat="33.8106129" lon="-118.3935817">
  <ele>-0.52</ele>
  <time>2026-09-02T22:09:12Z</time>
  <course>153.36</course>
  <speed>0.07211102550927978</speed>
  <fix>3d</fix>
</trkpt>
<trkpt lat="33.8106128" lon="-118.3935816">
  <ele>-0.11</ele>
  <time>2026-09-02T22:09:12Z</time>
  <course>66.16</course>
  <speed>0.12</speed>
  <fix>3d</fix>
</trkpt>
<trkpt lat="33.810613" lon="-118.3935816">
  <ele>-0.522</ele>
  <time>2026-09-02T22:09:12Z</time>
  <course>153.4</course>
  <speed>0.06403124237432849</speed>
  <fix>3d</fix>
</trkpt>
<trkpt lat="33.8106128" lon="-118.3935816">
  <ele>-0.11</ele>
  <time>2026-09-02T22:09:12Z</time>
  <course>66.16</course>
  <speed>0.12</speed>
  <fix>3d</fix>
</trkpt>
<trkpt lat="33.810613" lon="-118.3935815">
  <ele>-0.529</ele>
  <time>2026-09-02T22:09:12Z</time>
  <course>153.45</course>
  <speed>0.06403124237432849</speed>
  <fix>3d</fix>
</trkpt>
<trkpt lat="33.8106129" lon="-118.3935813">
  <ele>-0.11</ele>
  <time>2026-09-02T22:09:12Z</time>
  <course>66.69</course>
  <speed>0.1</speed>
  <fix>3d</fix>
</trkpt>
<trkpt lat="33.810613" lon="-118.3935814">
  <ele>-0.538</ele>
  <time>2026-09-02T22:09:12Z</time>
  <course>153.5</course>
  <speed>0.05</speed>
  <fix>3d</fix>
</trkpt>
<trkpt lat="33.8106129" lon="-118.3935813">
  <ele>-0.11</ele>
  <time>2026-09-02T22:09:12Z</time>
  <course>66.69</course>
  <speed>0.1</speed>
  <fix>3d</fix>
</trkpt>
<trkpt lat="33.810613" lon="-118.3935813">
  <ele>-0.546</ele>
  <time>2026-09-02T22:09:12Z</time>
  <course>153.54</course>
  <speed>0.05</speed>
  <fix>3d</fix>
</trkpt>
<trkpt lat="33.810613" lon="-118.3935812">
  <ele>-0.12</ele>
  <time>2026-09-02T22:09:12Z</time>
  <course>67.2</course>
  <speed>0.09</speed>
  <fix>3d</fix>
</trkpt>
<trkpt lat="33.8106131" lon="-118.3935812">
  <ele>-0.554</ele>
  <time>2026-09-02T22:09:12Z</time>
  <course>153.59</course>
  <speed>0.04242640687119285</speed>
  <fix>3d</fix>
</trkpt>
<trkpt lat="33.810613" lon="-118.3935812">
  <ele>-0.12</ele>
  <time>2026-09-02T22:09:12Z</time>
  <course>67.2</course>
  <speed>0.09</speed>
  <fix>3d</fix>
</trkpt>
<trkpt lat="33.8106131" lon="-118.3935812">
  <ele>-0.561</ele>
  <time>2026-09-02T22:09:12Z</time>
  <course>153.63</course>
  <speed>0.04242640687119285</speed>
  <fix>3d</fix>
</trkpt>
<trkpt lat="33.8106131" lon="-118.3935809">
  <ele>-0.13</ele>
  <time>2026-09-02T22:09:12Z</time>
  <course>67.7</course>
  <speed>0.08</speed>
  <fix>3d</fix>
</trkpt>
<trkpt lat="33.8106131" lon="-118.3935811">
  <ele>-0.567</ele>
  <time>2026-09-02T22:09:12Z</time>
  <course>153.67</course>
  <speed>0.04242640687119285</speed>
  <fix>3d</fix>
</trkpt>
<trkpt lat="33.8106131" lon="-118.3935809">
  <ele>-0.13</ele>
  <time>2026-09-02T22:09:12Z</time>
  <course>67.7</course>
  <speed>0.08</speed>
  <fix>3d</fix>
</trkpt>
<trkpt lat="33.8106131" lon="-118.393581">
  <ele>-0.572</ele>
  <time>2026-09-02T22:09:12Z</time>
  <course>153.71</course>
  <speed>0.04242640687119285</speed>
  <fix>3d</fix>
</trkpt>
<trkpt lat="33.8106131" lon="-118.3935808">
  <ele>-0.14</ele>
  <time>2026-09-02T22:09:12Z</time>
  <course>68.18</course>
  <speed>0.07</speed>
  <fix>3d</fix>
</trkpt>
<trkpt lat="33.8106132" lon="-118.393581">
  <ele>-0.576</ele>
  <time>2026-09-02T22:09:13Z</time>
  <course>153.75</course>
  <speed>0.03605551275463989</speed>
  <fix>3d</fix>
</trkpt>
<trkpt lat="33.8106131" lon="-118.3935808">
  <ele>-0.14</ele>
  <time>2026-09-02T22:09:13Z</time>
  <course>68.18</course>
  <speed>0.07</speed>
  <fix>3d</fix>
</trkpt>
<trkpt lat="33.8106132" lon="-118.3935809">
  <ele>-0.58</ele>
  <time>2026-09-02T22:09:13Z</time>
  <course>153.78</course>
  <speed>0.03605551275463989</speed>
  <fix>3d</fix>
</trkpt>
<trkpt lat="33.8106132" lon="-118.3935806">
  <ele>-0.15</ele>
  <time>2026-09-02T22:09:13Z</time>
  <course>68.64</course>
  <speed>0.07</speed>
  <fix>3d</fix>
</trkpt>
<trkpt lat="33.8106132" lon="-118.3935808">
  <ele>-0.582</ele>
  <time>2026-09-02T22:09:13Z</time>
  <course>153.72</course>
  <speed>0.04242640687119285</speed>
  <fix>3d</fix>
</trkpt>
<trkpt lat="33.8106132" lon="-118.3935806">
  <ele>-0.15</ele>
  <time>2026-09-02T22:09:13Z</time>
  <course>68.64</course>
  <speed>0.07</speed>
  <fix>3d</fix>
</trkpt>
<trkpt lat="33.8106133" lon="-118.3935808">
  <ele>-0.582</ele>
  <time>2026-09-02T22:09:13Z</time>
  <course>153.66</course>
  <speed>0.0565685424949238</speed>
  <fix>3d</fix>
</trkpt>
<trkpt lat="33.8106132" lon="-118.3935805">
  <ele>-0.16</ele>
  <time>2026-09-02T22:09:13Z</time>
  <course>68.06</course>
  <speed>0.07</speed>
  <fix>3d</fix>
</trkpt>
<trkpt lat="33.8106133" lon="-118.3935807">
  <ele>-0.581</ele>
  <time>2026-09-02T22:09:13Z</time>
  <course>153.63</course>
  <speed>0.07211102550927978</speed>
  <fix>3d</fix>
</trkpt>
<trkpt lat="33.8106132" lon="-118.3935805">
  <ele>-0.16</ele>
  <time>2026-09-02T22:09:13Z</time>
  <course>68.06</course>
  <speed>0.07</speed>
  <fix>3d</fix>
</trkpt>
<trkpt lat="33.8106133" lon="-118.3935806">
  <ele>-0.578</ele>
  <time>2026-09-02T22:09:13Z</time>
  <course>153.65</course>
  <speed>0.08602325267042626</speed>
  <fix>3d</fix>
</trkpt>
<trkpt lat="33.8106133" lon="-118.3935804">
  <ele>-0.16</ele>
  <time>2026-09-02T22:09:13Z</time>
  <course>66.43</course>
  <speed>0.09</speed>
  <fix>3d</fix>
</trkpt>
<trkpt lat="33.8106134" lon="-118.3935804">
  <ele>-0.574</ele>
  <time>2026-09-02T22:09:13Z</time>
  <course>153.7</course>
  <speed>0.10816653826391968</speed>
  <fix>3d</fix>
</trkpt>
<trkpt lat="33.8106133" lon="-118.3935804">
  <ele>-0.16</ele>
  <time>2026-09-02T22:09:13Z</time>
  <course>66.43</course>
  <speed>0.09</speed>
  <fix>3d</fix>
</trkpt>
<trkpt lat="33.8106134" lon="-118.3935803">
  <ele>-0.571</ele>
  <time>2026-09-02T22:09:13Z</time>
  <course>153.79</course>
  <speed>0.130384048104053</speed>
  <fix>3d</fix>
</trkpt>
<trkpt lat="33.8106134" lon="-118.3935801">
  <ele>-0.16</ele>
  <time>2026-09-02T22:09:13Z</time>
  <course>65.4</course>
  <speed>0.12</speed>
  <fix>3d</fix>
</trkpt>
<trkpt lat="33.8106135" lon="-118.3935801">
  <ele>-0.568</ele>
  <time>2026-09-02T22:09:13Z</time>
  <course>153.89</course>
  <speed>0.11661903789690602</speed>
  <fix>3d</fix>
</trkpt>
<trkpt lat="33.8106134" lon="-118.3935801">
  <ele>-0.16</ele>
  <time>2026-09-02T22:09:13Z</time>
  <course>65.4</course>
  <speed>0.12</speed>
  <fix>3d</fix>
</trkpt>
<trkpt lat="33.8106136" lon="-118.39358">
  <ele>-0.566</ele>
  <time>2026-09-02T22:09:13Z</time>
  <course>153.99</course>
  <speed>0.10816653826391968</speed>
  <fix>3d</fix>
</trkpt>
<trkpt lat="33.8106135" lon="-118.3935798">
  <ele>-0.16</ele>
  <time>2026-09-02T22:09:13Z</time>
  <course>65.23</course>
  <speed>0.14</speed>
  <fix>3d</fix>
</trkpt>
<trkpt lat="33.8106136" lon="-118.3935799">
  <ele>-0.563</ele>
  <time>2026-09-02T22:09:13Z</time>
  <course>154.08</course>
  <speed>0.09433981132056603</speed>
  <fix>3d</fix>
</trkpt>
<trkpt lat="33.8106135" lon="-118.3935798">
  <ele>-0.16</ele>
  <time>2026-09-02T22:09:13Z</time>
  <course>65.23</course>
  <speed>0.14</speed>
  <fix>3d</fix>
</trkpt>
<trkpt lat="33.8106137" lon="-118.3935797">
  <ele>-0.56</ele>
  <time>2026-09-02T22:09:13Z</time>
  <course>154.17</course>
  <speed>0.08602325267042626</speed>
  <fix>3d</fix>
</trkpt>
<trkpt lat="33.8106136" lon="-118.3935796">
  <ele>-0.16</ele>
  <time>2026-09-02T22:09:13Z</time>
  <course>65.51</course>
  <speed>0.13</speed>
  <fix>3d</fix>
</trkpt>
<trkpt lat="33.8106137" lon="-118.3935796">
  <ele>-0.557</ele>
  <time>2026-09-02T22:09:13Z</time>
  <course>154.25</course>
  <speed>0.07810249675906654</speed>
  <fix>3d</fix>
</trkpt>
<trkpt lat="33.8106136" lon="-118.3935796">
  <ele>-0.16</ele>
  <time>2026-09-02T22:09:13Z</time>
  <course>65.51</course>
  <speed>0.13</speed>
  <fix>3d</fix>
</trkpt>
<trkpt lat="33.8106137" lon="-118.3935795">
  <ele>-0.553</ele>
  <time>2026-09-02T22:09:13Z</time>
  <course>154.33</course>
  <speed>0.07211102550927978</speed>
  <fix>3d</fix>
</trkpt>
<trkpt lat="33.8106137" lon="-118.3935793">
  <ele>-0.15</ele>
  <time>2026-09-02T22:09:13Z</time>
  <course>65.9</course>
  <speed>0.11</speed>
  <fix>3d</fix>
</trkpt>
<trkpt lat="33.8106138" lon="-118.3935794">
  <ele>-0.548</ele>
  <time>2026-09-02T22:09:13Z</time>
  <course>154.41</course>
  <speed>0.06403124237432849</speed>
  <fix>3d</fix>
</trkpt>
<trkpt lat="33.8106137" lon="-118.3935793">
  <ele>-0.15</ele>
  <time>2026-09-02T22:09:13Z</time>
  <course>65.9</course>
  <speed>0.11</speed>
  <fix>3d</fix>
</trkpt>
<trkpt lat="33.8106138" lon="-118.3935793">
  <ele>-0.544</ele>
  <time>2026-09-02T22:09:13Z</time>
  <course>154.49</course>
  <speed>0.06403124237432849</speed>
  <fix>3d</fix>
</trkpt>
<trkpt lat="33.8106137" lon="-118.393579">
  <ele>-0.14</ele>
  <time>2026-09-02T22:09:13Z</time>
  <course>66.25</course>
  <speed>0.1</speed>
  <fix>3d</fix>
</trkpt>
<trkpt lat="33.8106138" lon="-118.3935792">
  <ele>-0.54</ele>
  <time>2026-09-02T22:09:13Z</time>
  <course>154.56</course>
  <speed>0.0565685424949238</speed>
  <fix>3d</fix>
</trkpt>
<trkpt lat="33.8106137" lon="-118.393579">
  <ele>-0.14</ele>
  <time>2026-09-02T22:09:13Z</time>
  <course>66.25</course>
  <speed>0.1</speed>
  <fix>3d</fix>
</trkpt>
<trkpt lat="33.8106139" lon="-118.3935792">
  <ele>-0.536</ele>
  <time>2026-09-02T22:09:13Z</time>
  <course>154.63</course>
  <speed>0.0565685424949238</speed>
  <fix>3d</fix>
</trkpt>
<trkpt lat="33.8106138" lon="-118.3935789">
  <ele>-0.13</ele>
  <time>2026-09-02T22:09:13Z</time>
  <course>66.58</course>
  <speed>0.09</speed>
  <fix>3d</fix>
</trkpt>
<trkpt lat="33.8106139" lon="-118.3935791">
  <ele>-0.531</ele>
  <time>2026-09-02T22:09:13Z</time>
  <course>154.7</course>
  <speed>0.05</speed>
  <fix>3d</fix>
</trkpt>
<trkpt lat="33.8106138" lon="-118.3935789">
  <ele>-0.13</ele>
  <time>2026-09-02T22:09:13Z</time>
  <course>66.58</course>
  <speed>0.09</speed>
  <fix>3d</fix>
</trkpt>
<trkpt lat="33.8106139" lon="-118.393579">
  <ele>-0.525</ele>
  <time>2026-09-02T22:09:13Z</time>
  <course>154.76</course>
  <speed>0.04242640687119285</speed>
  <fix>3d</fix>
</trkpt>
<trkpt lat="33.8106139" lon="-118.3935787">
  <ele>-0.12</ele>
  <time>2026-09-02T22:09:13Z</time>
  <course>66.9</course>
  <speed>0.08</speed>
  <fix>3d</fix>
</trkpt>
<trkpt lat="33.810614" lon="-118.3935789">
  <ele>-0.521</ele>
  <time>2026-09-02T22:09:13Z</time>
  <course>154.83</course>
  <speed>0.04242640687119285</speed>
  <fix>3d</fix>
</trkpt>
<trkpt lat="33.8106139" lon="-118.3935787">
  <ele>-0.12</ele>
  <time>2026-09-02T22:09:13Z</time>
  <course>66.9</course>
  <speed>0.08</speed>
  <fix>3d</fix>
</trkpt>
<trkpt lat="33.810614" lon="-118.3935788">
  <ele>-0.519</ele>
  <time>2026-09-02T22:09:13Z</time>
  <course>154.89</course>
  <speed>0.04242640687119285</speed>
  <fix>3d</fix>
</trkpt>
<trkpt lat="33.8106139" lon="-118.3935785">
  <ele>-0.11</ele>
  <time>2026-09-02T22:09:13Z</time>
  <course>67.2</course>
  <speed>0.07</speed>
  <fix>3d</fix>
</trkpt>
<trkpt lat="33.810614" lon="-118.3935788">
  <ele>-0.521</ele>
  <time>2026-09-02T22:09:13Z</time>
  <course>154.95</course>
  <speed>0.04242640687119285</speed>
  <fix>3d</fix>
</trkpt>
<trkpt lat="33.8106139" lon="-118.3935785">
  <ele>-0.11</ele>
  <time>2026-09-02T22:09:13Z</time>
  <course>67.2</course>
  <speed>0.07</speed>
  <fix>3d</fix>
</trkpt>
<trkpt lat="33.810614" lon="-118.3935787">
  <ele>-0.525</ele>
  <time>2026-09-02T22:09:13Z</time>
  <course>155.01</course>
  <speed>0.03605551275463989</speed>
  <fix>3d</fix>
</trkpt>
<trkpt lat="33.810614" lon="-118.3935784">
  <ele>-0.11</ele>
  <time>2026-09-02T22:09:13Z</time>
  <course>67.48</course>
  <speed>0.06</speed>
  <fix>3d</fix>
</trkpt>
<trkpt lat="33.8106141" lon="-118.3935786">
  <ele>-0.532</ele>
  <time>2026-09-02T22:09:13Z</time>
  <course>155.07</course>
  <speed>0.03605551275463989</speed>
  <fix>3d</fix>
</trkpt>
<trkpt lat="33.810614" lon="-118.3935784">
  <ele>-0.11</ele>
  <time>2026-09-02T22:09:13Z</time>
  <course>67.48</course>
  <speed>0.06</speed>
  <fix>3d</fix>
</trkpt>
<trkpt lat="33.8106141" lon="-118.3935786">
  <ele>-0.538</ele>
  <time>2026-09-02T22:09:13Z</time>
  <course>155.12</course>
  <speed>0.03605551275463989</speed>
  <fix>3d</fix>
</trkpt>
<trkpt lat="33.810614" lon="-118.3935783">
  <ele>-0.11</ele>
  <time>2026-09-02T22:09:13Z</time>
  <course>67.76</course>
  <speed>0.06</speed>
  <fix>3d</fix>
</trkpt>
<trkpt lat="33.8106141" lon="-118.3935785">
  <ele>-0.543</ele>
  <time>2026-09-02T22:09:13Z</time>
  <course>155.17</course>
  <speed>0.0282842712474619</speed>
  <fix>3d</fix>
</trkpt>
<trkpt lat="33.810614" lon="-118.3935783">
  <ele>-0.11</ele>
  <time>2026-09-02T22:09:13Z</time>
  <course>67.76</course>
  <speed>0.06</speed>
  <fix>3d</fix>
</trkpt>
<trkpt lat="33.8106141" lon="-118.3935784">
  <ele>-0.547</ele>
  <time>2026-09-02T22:09:13Z</time>
  <course>155.23</course>
  <speed>0.0282842712474619</speed>
  <fix>3d</fix>
</trkpt>
<trkpt lat="33.810614" lon="-118.3935782">
  <ele>-0.12</ele>
  <time>2026-09-02T22:09:13Z</time>
  <course>68.03</course>
  <speed>0.05</speed>
  <fix>3d</fix>
</trkpt>
<trkpt lat="33.8106141" lon="-118.3935784">
  <ele>-0.551</ele>
  <time>2026-09-02T22:09:13Z</time>
  <course>155.28</course>
  <speed>0.0282842712474619</speed>
  <fix>3d</fix>
</trkpt>
<trkpt lat="33.810614" lon="-118.3935782">
  <ele>-0.12</ele>
  <time>2026-09-02T22:09:13Z</time>
  <course>68.03</course>
  <speed>0.05</speed>
  <fix>3d</fix>
</trkpt>
<trkpt lat="33.8106141" lon="-118.3935783">
  <ele>-0.554</ele>
  <time>2026-09-02T22:09:13Z</time>
  <course>155.33</course>
  <speed>0.0282842712474619</speed>
  <fix>3d</fix>
</trkpt>
<trkpt lat="33.8106141" lon="-118.393578">
  <ele>-0.13</ele>
  <time>2026-09-02T22:09:13Z</time>
  <course>68.28</course>
  <speed>0.05</speed>
  <fix>3d</fix>
</trkpt>
<trkpt lat="33.8106142" lon="-118.3935783">
  <ele>-0.558</ele>
  <time>2026-09-02T22:09:13Z</time>
  <course>155.38</course>
  <speed>0.022360679774997897</speed>
  <fix>3d</fix>
</trkpt>
<trkpt lat="33.8106141" lon="-118.393578">
  <ele>-0.13</ele>
  <time>2026-09-02T22:09:13Z</time>
  <course>68.28</course>
  <speed>0.05</speed>
  <fix>3d</fix>
</trkpt>
<trkpt lat="33.8106142" lon="-118.3935782">
  <ele>-0.56</ele>
  <time>2026-09-02T22:09:13Z</time>
  <course>155.42</course>
  <speed>0.022360679774997897</speed>
  <fix>3d</fix>
</trkpt>
<trkpt lat="33.8106141" lon="-118.3935779">
  <ele>-0.14</ele>
  <time>2026-09-02T22:09:13Z</time>
  <course>68.53</course>
  <speed>0.05</speed>
  <fix>3d</fix>
</trkpt>
<trkpt lat="33.8106142" lon="-118.3935782">
  <ele>-0.56</ele>
  <time>2026-09-02T22:09:13Z</time>
  <course>155.47</course>
  <speed>0.022360679774997897</speed>
  <fix>3d</fix>
</trkpt>
<trkpt lat="33.8106141" lon="-118.3935779">
  <ele>-0.14</ele>
  <time>2026-09-02T22:09:13Z</time>
  <course>68.53</course>
  <speed>0.05</speed>
  <fix>3d</fix>
</trkpt>
<trkpt lat="33.8106142" lon="-118.3935781">
  <ele>-0.559</ele>
  <time>2026-09-02T22:09:13Z</time>
  <course>155.52</course>
  <speed>0.022360679774997897</speed>
  <fix>3d</fix>
</trkpt>
<trkpt lat="33.8106141" lon="-118.3935778">
  <ele>-0.14</ele>
  <time>2026-09-02T22:09:13Z</time>
  <course>68.77</course>
  <speed>0.04</speed>
  <fix>3d</fix>
</trkpt>
<trkpt lat="33.8106142" lon="-118.3935781">
  <ele>-0.558</ele>
  <time>2026-09-02T22:09:13Z</time>
  <course>155.56</course>
  <speed>0.022360679774997897</speed>
  <fix>3d</fix>
</trkpt>
<trkpt lat="33.8106141" lon="-118.3935778">
  <ele>-0.14</ele>
  <time>2026-09-02T22:09:13Z</time>
  <course>68.77</course>
  <speed>0.04</speed>
  <fix>3d</fix>
</trkpt>
<trkpt lat="33.8106142" lon="-118.393578">
  <ele>-0.557</ele>
  <time>2026-09-02T22:09:13Z</time>
  <course>155.6</course>
  <speed>0.022360679774997897</speed>
  <fix>3d</fix>
</trkpt>
<trkpt lat="33.8106142" lon="-118.3935777">
  <ele>-0.14</ele>
  <time>2026-09-02T22:09:13Z</time>
  <course>69.0</course>
  <speed>0.04</speed>
  <fix>3d</fix>
</trkpt>
<trkpt lat="33.8106142" lon="-118.393578">
  <ele>-0.555</ele>
  <time>2026-09-02T22:09:13Z</time>
  <course>155.65</course>
  <speed>0.022360679774997897</speed>
  <fix>3d</fix>
</trkpt>
<trkpt lat="33.8106142" lon="-118.3935777">
  <ele>-0.14</ele>
  <time>2026-09-02T22:09:13Z</time>
  <course>69.0</course>
  <speed>0.04</speed>
  <fix>3d</fix>
</trkpt>
<trkpt lat="33.8106143" lon="-118.3935778">
  <ele>-0.54</ele>
  <time>2026-09-02T22:09:13Z</time>
  <course>155.81</course>
  <speed>0.01414213562373095</speed>
  <fix>3d</fix>
</trkpt>
<trkpt lat="33.8106143" lon="-118.3935776">
  <ele>-0.13</ele>
  <time>2026-09-02T22:09:13Z</time>
  <course>69.45</course>
  <speed>0.04</speed>
  <fix>3d</fix>
</trkpt>
<trkpt lat="33.8106143" lon="-118.3935777">
  <ele>-0.526</ele>
  <time>2026-09-02T22:09:13Z</time>
  <course>155.92</course>
  <speed>0.01414213562373095</speed>
  <fix>3d</fix>
</trkpt>
<trkpt lat="33.8106143" lon="-118.3935774">
  <ele>-0.12</ele>
  <time>2026-09-02T22:09:13Z</time>
  <course>69.88</course>
  <speed>0.03</speed>
  <fix>3d</fix>
</trkpt>
<trkpt lat="33.8106143" lon="-118.3935776">
  <ele>-0.525</ele>
  <time>2026-09-02T22:09:13Z</time>
  <course>155.96</course>
  <speed>0.01414213562373095</speed>
  <fix>3d</fix>
</trkpt>
<trkpt lat="33.8106143" lon="-118.3935774">
  <ele>-0.12</ele>
  <time>2026-09-02T22:09:13Z</time>
  <course>69.88</course>
  <speed>0.03</speed>
  <fix>3d</fix>
</trkpt>
<trkpt lat="33.8106144" lon="-118.3935775">
  <ele>-0.531</ele>
  <time>2026-09-02T22:09:13Z</time>
  <course>156.03</course>
  <speed>0.01414213562373095</speed>
  <fix>3d</fix>
</trkpt>
<trkpt lat="33.8106144" lon="-118.3935773">
  <ele>-0.11</ele>
  <time>2026-09-02T22:09:13Z</time>
  <course>70.09</course>
  <speed>0.03</speed>
  <fix>3d</fix>
</trkpt>
<trkpt lat="33.8106144" lon="-118.3935775">
  <ele>-0.535</ele>
  <time>2026-09-02T22:09:13Z</time>
  <course>156.07</course>
  <speed>0.01</speed>
  <fix>3d</fix>
</trkpt>
<trkpt lat="33.8106144" lon="-118.3935773">
  <ele>-0.11</ele>
  <time>2026-09-02T22:09:13Z</time>
  <course>70.29</course>
  <speed>0.03</speed>
  <fix>3d</fix>
</trkpt>
<trkpt lat="33.8106144" lon="-118.3935775">
  <ele>-0.539</ele>
  <time>2026-09-02T22:09:13Z</time>
  <course>156.1</course>
  <speed>0.01</speed>
  <fix>3d</fix>
</trkpt>
<trkpt lat="33.8106144" lon="-118.3935773">
  <ele>-0.11</ele>
  <time>2026-09-02T22:09:13Z</time>
  <course>70.29</course>
  <speed>0.03</speed>
  <fix>3d</fix>
</trkpt>
<trkpt lat="33.8106144" lon="-118.3935774">
  <ele>-0.541</ele>
  <time>2026-09-02T22:09:13Z</time>
  <course>156.13</course>
  <speed>0.01</speed>
  <fix>3d</fix>
</trkpt>
<trkpt lat="33.8106144" lon="-118.3935772">
  <ele>-0.12</ele>
  <time>2026-09-02T22:09:13Z</time>
  <course>70.49</course>
  <speed>0.03</speed>
  <fix>3d</fix>
</trkpt>
<trkpt lat="33.8106144" lon="-118.3935774">
  <ele>-0.543</ele>
  <time>2026-09-02T22:09:13Z</time>
  <course>156.17</course>
  <speed>0.01</speed>
  <fix>3d</fix>
</trkpt>
<trkpt lat="33.8106144" lon="-118.3935772">
  <ele>-0.12</ele>
  <time>2026-09-02T22:09:13Z</time>
  <course>70.49</course>
  <speed>0.03</speed>
  <fix>3d</fix>
</trkpt>
<trkpt lat="33.8106144" lon="-118.3935774">
  <ele>-0.544</ele>
  <time>2026-09-02T22:09:13Z</time>
  <course>156.2</course>
  <speed>0.01</speed>
  <fix>3d</fix>
</trkpt>
<trkpt lat="33.8106144" lon="-118.3935771">
  <ele>-0.13</ele>
  <time>2026-09-02T22:09:13Z</time>
  <course>70.68</course>
  <speed>0.03</speed>
  <fix>3d</fix>
</trkpt>
<trkpt lat="33.8106144" lon="-118.3935773">
  <ele>-0.545</ele>
  <time>2026-09-02T22:09:13Z</time>
  <course>156.23</course>
  <speed>0.01</speed>
  <fix>3d</fix>
</trkpt>
<trkpt lat="33.8106144" lon="-118.3935771">
  <ele>-0.13</ele>
  <time>2026-09-02T22:09:13Z</time>
  <course>70.68</course>
  <speed>0.03</speed>
  <fix>3d</fix>
</trkpt>
<trkpt lat="33.8106144" lon="-118.3935773">
  <ele>-0.545</ele>
  <time>2026-09-02T22:09:13Z</time>
  <course>156.26</course>
  <speed>0.01</speed>
  <fix>3d</fix>
</trkpt>
<trkpt lat="33.8106144" lon="-118.3935771">
  <ele>-0.13</ele>
  <time>2026-09-02T22:09:13Z</time>
  <course>70.88</course>
  <speed>0.03</speed>
  <fix>3d</fix>
</trkpt>
<trkpt lat="33.8106145" lon="-118.3935773">
  <ele>-0.546</ele>
  <time>2026-09-02T22:09:13Z</time>
  <course>156.29</course>
  <speed>0.01</speed>
  <fix>3d</fix>
</trkpt>
<trkpt lat="33.8106144" lon="-118.3935771">
  <ele>-0.13</ele>
  <time>2026-09-02T22:09:13Z</time>
  <course>70.88</course>
  <speed>0.03</speed>
  <fix>3d</fix>
</trkpt>
<trkpt lat="33.8106145" lon="-118.3935772">
  <ele>-0.546</ele>
  <time>2026-09-02T22:09:13Z</time>
  <course>156.32</course>
  <speed>0.01</speed>
  <fix>3d</fix>
</trkpt>
<trkpt lat="33.8106145" lon="-118.393577">
  <ele>-0.14</ele>
  <time>2026-09-02T22:09:13Z</time>
  <course>71.07</course>
  <speed>0.03</speed>
  <fix>3d</fix>
</trkpt>
<trkpt lat="33.8106145" lon="-118.3935772">
  <ele>-0.546</ele>
  <time>2026-09-02T22:09:13Z</time>
  <course>156.35</course>
  <speed>0.01</speed>
  <fix>3d</fix>
</trkpt>
<trkpt lat="33.8106145" lon="-118.393577">
  <ele>-0.14</ele>
  <time>2026-09-02T22:09:13Z</time>
  <course>71.07</course>
  <speed>0.03</speed>
  <fix>3d</fix>
</trkpt>
<trkpt lat="33.8106145" lon="-118.3935772">
  <ele>-0.546</ele>
  <time>2026-09-02T22:09:13Z</time>
  <course>156.38</course>
  <speed>0.01</speed>
  <fix>3d</fix>
</trkpt>
<trkpt lat="33.8106145" lon="-118.3935769">
  <ele>-0.13</ele>
  <time>2026-09-02T22:09:13Z</time>
  <course>71.26</course>
  <speed>0.02</speed>
  <fix>3d</fix>
</trkpt>
<trkpt lat="33.8106145" lon="-118.3935771">
  <ele>-0.544</ele>
  <time>2026-09-02T22:09:13Z</time>
  <course>156.41</course>
  <speed>0.01</speed>
  <fix>3d</fix>
</trkpt>
<trkpt lat="33.8106145" lon="-118.3935769">
  <ele>-0.13</ele>
  <time>2026-09-02T22:09:13Z</time>
  <course>71.26</course>
  <speed>0.02</speed>
  <fix>3d</fix>
</trkpt>
<trkpt lat="33.8106145" lon="-118.3935771">
  <ele>-0.541</ele>
  <time>2026-09-02T22:09:13Z</time>
  <course>156.44</course>
  <speed>0.01</speed>
  <fix>3d</fix>
</trkpt>
<trkpt lat="33.8106145" lon="-118.3935769">
  <ele>-0.13</ele>
  <time>2026-09-02T22:09:13Z</time>
  <course>71.44</course>
  <speed>0.02</speed>
  <fix>3d</fix>
</trkpt>
<trkpt lat="33.8106145" lon="-118.3935771">
  <ele>-0.537</ele>
  <time>2026-09-02T22:09:13Z</time>
  <course>156.47</course>
  <speed>0.01</speed>
  <fix>3d</fix>
</trkpt>
<trkpt lat="33.8106145" lon="-118.3935769">
  <ele>-0.13</ele>
  <time>2026-09-02T22:09:13Z</time>
  <course>71.44</course>
  <speed>0.02</speed>
  <fix>3d</fix>
</trkpt>
<trkpt lat="33.8106145" lon="-118.393577">
  <ele>-0.533</ele>
  <time>2026-09-02T22:09:13Z</time>
  <course>156.5</course>
  <speed>0.01</speed>
  <fix>3d</fix>
</trkpt>
<trkpt lat="33.8106145" lon="-118.3935768">
  <ele>-0.12</ele>
  <time>2026-09-02T22:09:13Z</time>
  <course>71.62</course>
  <speed>0.02</speed>
  <fix>3d</fix>
</trkpt>
<trkpt lat="33.8106145" lon="-118.393577">
  <ele>-0.53</ele>
  <time>2026-09-02T22:09:13Z</time>
  <course>156.52</course>
  <speed>0.01</speed>
  <fix>3d</fix>
</trkpt>
<trkpt lat="33.8106145" lon="-118.3935768">
  <ele>-0.12</ele>
  <time>2026-09-02T22:09:13Z</time>
  <course>71.62</course>
  <speed>0.02</speed>
  <fix>3d</fix>
</trkpt>
<trkpt lat="33.8106145" lon="-118.393577">
  <ele>-0.528</ele>
  <time>2026-09-02T22:09:13Z</time>
  <course>156.55</course>
  <speed>0.01</speed>
  <fix>3d</fix>
</trkpt>
<trkpt lat="33.8106145" lon="-118.3935768">
  <ele>-0.12</ele>
  <time>2026-09-02T22:09:13Z</time>
  <course>71.79</course>
  <speed>0.02</speed>
  <fix>3d</fix>
</trkpt>
<trkpt lat="33.8106145" lon="-118.393577">
  <ele>-0.53</ele>
  <time>2026-09-02T22:09:13Z</time>
  <course>156.58</course>
  <speed>0.01</speed>
  <fix>3d</fix>
</trkpt>
<trkpt lat="33.8106145" lon="-118.3935768">
  <ele>-0.12</ele>
  <time>2026-09-02T22:09:13Z</time>
  <course>71.79</course>
  <speed>0.02</speed>
  <fix>3d</fix>
</trkpt>
<trkpt lat="33.8106145" lon="-118.3935769">
  <ele>-0.533</ele>
  <time>2026-09-02T22:09:13Z</time>
  <course>156.6</course>
  <speed>0.01</speed>
  <fix>3d</fix>
</trkpt>
<trkpt lat="33.8106145" lon="-118.3935767">
  <ele>-0.12</ele>
  <time>2026-09-02T22:09:13Z</time>
  <course>71.97</course>
  <speed>0.02</speed>
  <fix>3d</fix>
</trkpt>
<trkpt lat="33.8106145" lon="-118.3935769">
  <ele>-0.536</ele>
  <time>2026-09-02T22:09:13Z</time>
  <course>156.63</course>
  <speed>0.01</speed>
  <fix>3d</fix>
</trkpt>
<trkpt lat="33.8106145" lon="-118.3935767">
  <ele>-0.12</ele>
  <time>2026-09-02T22:09:13Z</time>
  <course>71.97</course>
  <speed>0.02</speed>
  <fix>3d</fix>
</trkpt>
<trkpt lat="33.8106145" lon="-118.3935769">
  <ele>-0.539</ele>
  <time>2026-09-02T22:09:13Z</time>
  <course>156.66</course>
  <speed>0.01</speed>
  <fix>3d</fix>
</trkpt>
<trkpt lat="33.8106146" lon="-118.3935767">
  <ele>-0.12</ele>
  <time>2026-09-02T22:09:13Z</time>
  <course>72.15</course>
  <speed>0.02</speed>
  <fix>3d</fix>
</trkpt>
<trkpt lat="33.8106146" lon="-118.3935768">
  <ele>-0.54</ele>
  <time>2026-09-02T22:09:13Z</time>
  <course>156.68</course>
  <speed>0.01</speed>
  <fix>3d</fix>
</trkpt>
<trkpt lat="33.8106146" lon="-118.3935767">
  <ele>-0.12</ele>
  <time>2026-09-02T22:09:13Z</time>
  <course>72.15</course>
  <speed>0.02</speed>
  <fix>3d</fix>
</trkpt>
<trkpt lat="33.8106146" lon="-118.3935768">
  <ele>-0.541</ele>
  <time>2026-09-02T22:09:13Z</time>
  <course>156.71</course>
  <speed>0.01</speed>
  <fix>3d</fix>
</trkpt>
<trkpt lat="33.8106146" lon="-118.3935766">
  <ele>-0.12</ele>
  <time>2026-09-02T22:09:13Z</time>
  <course>72.32</course>
  <speed>0.02</speed>
  <fix>3d</fix>
</trkpt>
<trkpt lat="33.8106146" lon="-118.3935768">
  <ele>-0.541</ele>
  <time>2026-09-02T22:09:13Z</time>
  <course>156.73</course>
  <speed>0.01</speed>
  <fix>3d</fix>
</trkpt>
<trkpt lat="33.8106146" lon="-118.3935766">
  <ele>-0.12</ele>
  <time>2026-09-02T22:09:13Z</time>
  <course>72.32</course>
  <speed>0.02</speed>
  <fix>3d</fix>
</trkpt>
<trkpt lat="33.8106146" lon="-118.3935768">
  <ele>-0.542</ele>
  <time>2026-09-02T22:09:13Z</time>
  <course>156.76</course>
  <speed>0.01</speed>
  <fix>3d</fix>
</trkpt>
<trkpt lat="33.8106146" lon="-118.3935766">
  <ele>-0.13</ele>
  <time>2026-09-02T22:09:13Z</time>
  <course>72.49</course>
  <speed>0.02</speed>
  <fix>3d</fix>
</trkpt>
<trkpt lat="33.8106146" lon="-118.3935767">
  <ele>-0.541</ele>
  <time>2026-09-02T22:09:13Z</time>
  <course>156.78</course>
  <speed>0.01</speed>
  <fix>3d</fix>
</trkpt>
<trkpt lat="33.8106146" lon="-118.3935766">
  <ele>-0.13</ele>
  <time>2026-09-02T22:09:13Z</time>
  <course>72.49</course>
  <speed>0.02</speed>
  <fix>3d</fix>
</trkpt>
<trkpt lat="33.8106146" lon="-118.3935767">
  <ele>-0.54</ele>
  <time>2026-09-02T22:09:13Z</time>
  <course>156.8</course>
  <speed>0.01</speed>
  <fix>3d</fix>
</trkpt>
<trkpt lat="33.8106146" lon="-118.3935765">
  <ele>-0.13</ele>
  <time>2026-09-02T22:09:13Z</time>
  <course>72.65</course>
  <speed>0.02</speed>
  <fix>3d</fix>
</trkpt>
<trkpt lat="33.8106146" lon="-118.3935767">
  <ele>-0.538</ele>
  <time>2026-09-02T22:09:13Z</time>
  <course>156.83</course>
  <speed>0.0</speed>
  <fix>3d</fix>
</trkpt>
<trkpt lat="33.8106146" lon="-118.3935765">
  <ele>-0.13</ele>
  <time>2026-09-02T22:09:13Z</time>
  <course>72.65</course>
  <speed>0.02</speed>
  <fix>3d</fix>
</trkpt>
<trkpt lat="33.8106146" lon="-118.3935767">
  <ele>-0.536</ele>
  <time>2026-09-02T22:09:13Z</time>
  <course>156.85</course>
  <speed>0.0</speed>
  <fix>3d</fix>
</trkpt>
<trkpt lat="33.8106146" lon="-118.3935765">
  <ele>-0.13</ele>
  <time>2026-09-02T22:09:13Z</time>
  <course>72.81</course>
  <speed>0.02</speed>
  <fix>3d</fix>
</trkpt>
<trkpt lat="33.8106146" lon="-118.3935766">
  <ele>-0.534</ele>
  <time>2026-09-02T22:09:13Z</time>
  <course>156.87</course>
  <speed>0.0</speed>
  <fix>3d</fix>
</trkpt>
<trkpt lat="33.8106146" lon="-118.3935765">
  <ele>-0.13</ele>
  <time>2026-09-02T22:09:13Z</time>
  <course>72.81</course>
  <speed>0.02</speed>
  <fix>3d</fix>
</trkpt>
<trkpt lat="33.8106146" lon="-118.3935766">
  <ele>-0.532</ele>
  <time>2026-09-02T22:09:13Z</time>
  <course>156.9</course>
  <speed>0.0</speed>
  <fix>3d</fix>
</trkpt>
<trkpt lat="33.8106146" lon="-118.3935764">
  <ele>-0.13</ele>
  <time>2026-09-02T22:09:13Z</time>
  <course>72.98</course>
  <speed>0.02</speed>
  <fix>3d</fix>
</trkpt>
<trkpt lat="33.8106146" lon="-118.3935766">
  <ele>-0.529</ele>
  <time>2026-09-02T22:09:13Z</time>
  <course>156.92</course>
  <speed>0.0</speed>
  <fix>3d</fix>
</trkpt>
<trkpt lat="33.8106146" lon="-118.3935764">
  <ele>-0.13</ele>
  <time>2026-09-02T22:09:13Z</time>
  <course>72.98</course>
  <speed>0.02</speed>
  <fix>3d</fix>
</trkpt>
<trkpt lat="33.8106146" lon="-118.3935766">
  <ele>-0.527</ele>
  <time>2026-09-02T22:09:13Z</time>
  <course>156.94</course>
  <speed>0.0</speed>
  <fix>3d</fix>
</trkpt>
<trkpt lat="33.8106146" lon="-118.3935764">
  <ele>-0.12</ele>
  <time>2026-09-02T22:09:13Z</time>
  <course>73.14</course>
  <speed>0.02</speed>
  <fix>3d</fix>
</trkpt>
<trkpt lat="33.8106146" lon="-118.3935765">
  <ele>-0.524</ele>
  <time>2026-09-02T22:09:13Z</time>
  <course>156.96</course>
  <speed>0.0</speed>
  <fix>3d</fix>
</trkpt>
<trkpt lat="33.8106146" lon="-118.3935764">
  <ele>-0.12</ele>
  <time>2026-09-02T22:09:13Z</time>
  <course>73.14</course>
  <speed>0.02</speed>
  <fix>3d</fix>
</trkpt>
<trkpt lat="33.8106146" lon="-118.3935765">
  <ele>-0.523</ele>
  <time>2026-09-02T22:09:13Z</time>
  <course>156.99</course>
  <speed>0.0</speed>
  <fix>3d</fix>
</trkpt>
<trkpt lat="33.8106146" lon="-118.3935763">
  <ele>-0.12</ele>
  <time>2026-09-02T22:09:13Z</time>
  <course>73.31</course>
  <speed>0.02</speed>
  <fix>3d</fix>
</trkpt>
<trkpt lat="33.8106146" lon="-118.3935765">
  <ele>-0.524</ele>
  <time>2026-09-02T22:09:13Z</time>
  <course>157.01</course>
  <speed>0.0</speed>
  <fix>3d</fix>
</trkpt>
<trkpt lat="33.8106146" lon="-118.3935763">
  <ele>-0.12</ele>
  <time>2026-09-02T22:09:13Z</time>
  <course>73.31</course>
  <speed>0.02</speed>
  <fix>3d</fix>
</trkpt>
<trkpt lat="33.8106146" lon="-118.3935765">
  <ele>-0.528</ele>
  <time>2026-09-02T22:09:13Z</time>
  <course>157.03</course>
  <speed>0.0</speed>
  <fix>3d</fix>
</trkpt>
<trkpt lat="33.8106146" lon="-118.3935763">
  <ele>-0.12</ele>
  <time>2026-09-02T22:09:13Z</time>
  <course>73.46</course>
  <speed>0.02</speed>
  <fix>3d</fix>
</trkpt>
<trkpt lat="33.8106146" lon="-118.3935764">
  <ele>-0.533</ele>
  <time>2026-09-02T22:09:13Z</time>
  <course>157.05</course>
  <speed>0.0</speed>
  <fix>3d</fix>
</trkpt>
<trkpt lat="33.8106146" lon="-118.3935763">
  <ele>-0.12</ele>
  <time>2026-09-02T22:09:13Z</time>
  <course>73.46</course>
  <speed>0.02</speed>
  <fix>3d</fix>
</trkpt>
<trkpt lat="33.8106146" lon="-118.3935764">
  <ele>-0.535</ele>
  <time>2026-09-02T22:09:13Z</time>
  <course>157.07</course>
  <speed>0.0</speed>
  <fix>3d</fix>
</trkpt>
<trkpt lat="33.8106146" lon="-118.3935763">
  <ele>-0.12</ele>
  <time>2026-09-02T22:09:13Z</time>
  <course>73.62</course>
  <speed>0.01</speed>
  <fix>3d</fix>
</trkpt>
<trkpt lat="33.8106146" lon="-118.3935764">
  <ele>-0.534</ele>
  <time>2026-09-02T22:09:13Z</time>
  <course>157.09</course>
  <speed>0.0</speed>
  <fix>3d</fix>
</trkpt>
<trkpt lat="33.8106146" lon="-118.3935763">
  <ele>-0.12</ele>
  <time>2026-09-02T22:09:13Z</time>
  <course>73.62</course>
  <speed>0.01</speed>
  <fix>3d</fix>
</trkpt>
<trkpt lat="33.8106146" lon="-118.3935764">
  <ele>-0.532</ele>
  <time>2026-09-02T22:09:13Z</time>
  <course>157.11</course>
  <speed>0.0</speed>
  <fix>3d</fix>
</trkpt>
<trkpt lat="33.8106146" lon="-118.3935762">
  <ele>-0.12</ele>
  <time>2026-09-02T22:09:13Z</time>
  <course>73.76</course>
  <speed>0.01</speed>
  <fix>3d</fix>
</trkpt>
<trkpt lat="33.8106146" lon="-118.3935764">
  <ele>-0.531</ele>
  <time>2026-09-02T22:09:13Z</time>
  <course>157.11</course>
  <speed>0.0</speed>
  <fix>3d</fix>
</trkpt>
<trkpt lat="33.8106146" lon="-118.3935763">
  <ele>-0.53</ele>
  <time>2026-09-02T22:09:13Z</time>
  <course>157.13</course>
  <speed>0.0</speed>
  <fix>3d</fix>
</trkpt>
<trkpt lat="33.8106146" lon="-118.3935762">
  <ele>-0.12</ele>
  <time>2026-09-02T22:09:13Z</time>
  <course>73.76</course>
  <speed>0.01</speed>
  <fix>3d</fix>
</trkpt>
<trkpt lat="33.8106146" lon="-118.3935763">
  <ele>-0.53</ele>
  <time>2026-09-02T22:09:13Z</time>
  <course>157.15</course>
  <speed>0.0</speed>
  <fix>3d</fix>
</trkpt>
<trkpt lat="33.8106146" lon="-118.3935762">
  <ele>-0.12</ele>
  <time>2026-09-02T22:09:13Z</time>
  <course>73.9</course>
  <speed>0.01</speed>
  <fix>3d</fix>
</trkpt>
<trkpt lat="33.8106146" lon="-118.3935763">
  <ele>-0.545</ele>
  <time>2026-09-02T22:09:13Z</time>
  <course>157.17</course>
  <speed>0.0</speed>
  <fix>3d</fix>
</trkpt>
<trkpt lat="33.8106146" lon="-118.3935762">
  <ele>-0.12</ele>
  <time>2026-09-02T22:09:13Z</time>
  <course>73.9</course>
  <speed>0.01</speed>
  <fix>3d</fix>
</trkpt>
<trkpt lat="33.8106146" lon="-118.3935763">
  <ele>-0.581</ele>
  <time>2026-09-02T22:09:13Z</time>
  <course>157.19</course>
  <speed>0.0</speed>
  <fix>3d</fix>
</trkpt>
<trkpt lat="33.8106146" lon="-118.3935761">
  <ele>-0.13</ele>
  <time>2026-09-02T22:09:13Z</time>
  <course>74.14</course>
  <speed>0.01</speed>
  <fix>3d</fix>
</trkpt>
<trkpt lat="33.8106146" lon="-118.3935763">
  <ele>-0.583</ele>
  <time>2026-09-02T22:09:13Z</time>
  <course>157.19</course>
  <speed>0.0</speed>
  <fix>3d</fix>
</trkpt>
<trkpt lat="33.8106146" lon="-118.3935763">
  <ele>-0.636</ele>
  <time>2026-09-02T22:09:13Z</time>
  <course>157.21</course>
  <speed>0.0</speed>
  <fix>3d</fix>
</trkpt>
<trkpt lat="33.8106146" lon="-118.3935761">
  <ele>-0.13</ele>
  <time>2026-09-02T22:09:13Z</time>
  <course>74.14</course>
  <speed>0.01</speed>
  <fix>3d</fix>
</trkpt>
<trkpt lat="33.8106146" lon="-118.3935763">
  <ele>-0.638</ele>
  <time>2026-09-02T22:09:13Z</time>
  <course>157.21</course>
  <speed>0.0</speed>
  <fix>3d</fix>
</trkpt>
<trkpt lat="33.8106146" lon="-118.3935762">
  <ele>-0.705</ele>
  <time>2026-09-02T22:09:13Z</time>
  <course>157.23</course>
  <speed>0.0</speed>
  <fix>3d</fix>
</trkpt>
<trkpt lat="33.8106146" lon="-118.3935761">
  <ele>-0.19</ele>
  <time>2026-09-02T22:09:13Z</time>
  <course>74.41</course>
  <speed>0.01</speed>
  <fix>3d</fix>
</trkpt>
<trkpt lat="33.8106146" lon="-118.3935762">
  <ele>-0.728</ele>
  <time>2026-09-02T22:09:13Z</time>
  <course>157.23</course>
  <speed>0.0</speed>
  <fix>3d</fix>
</trkpt>
<trkpt lat="33.8106146" lon="-118.3935762">
  <ele>-0.785</ele>
  <time>2026-09-02T22:09:13Z</time>
  <course>157.25</course>
  <speed>0.0</speed>
  <fix>3d</fix>
</trkpt>
<trkpt lat="33.8106146" lon="-118.3935761">
  <ele>-0.19</ele>
  <time>2026-09-02T22:09:13Z</time>
  <course>74.41</course>
  <speed>0.01</speed>
  <fix>3d</fix>
</trkpt>
<trkpt lat="33.8106146" lon="-118.3935762">
  <ele>-0.81</ele>
  <time>2026-09-02T22:09:13Z</time>
  <course>157.25</course>
  <speed>0.0</speed>
  <fix>3d</fix>
</trkpt>
<trkpt lat="33.8106146" lon="-118.3935762">
  <ele>-0.87</ele>
  <time>2026-09-02T22:09:13Z</time>
  <course>157.27</course>
  <speed>0.0</speed>
  <fix>3d</fix>
</trkpt>
<trkpt lat="33.8106146" lon="-118.3935761">
  <ele>-0.31</ele>
  <time>2026-09-02T22:09:13Z</time>
  <course>74.55</course>
  <speed>0.01</speed>
  <fix>3d</fix>
</trkpt>
<trkpt lat="33.8106146" lon="-118.3935762">
  <ele>-0.896</ele>
  <time>2026-09-02T22:09:13Z</time>
  <course>157.27</course>
  <speed>0.0</speed>
  <fix>3d</fix>
</trkpt>
<trkpt lat="33.8106146" lon="-118.3935762">
  <ele>-0.96</ele>
  <time>2026-09-02T22:09:13Z</time>
  <course>157.28</course>
  <speed>0.0</speed>
  <fix>3d</fix>
</trkpt>
<trkpt lat="33.8106146" lon="-118.3935761">
  <ele>-0.31</ele>
  <time>2026-09-02T22:09:13Z</time>
  <course>74.55</course>
  <speed>0.01</speed>
  <fix>3d</fix>
</trkpt>
<trkpt lat="33.8106146" lon="-118.3935762">
  <ele>-0.992</ele>
  <time>2026-09-02T22:09:13Z</time>
  <course>157.29</course>
  <speed>0.0</speed>
  <fix>3d</fix>
</trkpt>
<trkpt lat="33.8106146" lon="-118.3935761">
  <ele>-1.054</ele>
  <time>2026-09-02T22:09:13Z</time>
  <course>157.3</course>
  <speed>0.0</speed>
  <fix>3d</fix>
</trkpt>
<trkpt lat="33.8106146" lon="-118.393576">
  <ele>-0.46</ele>
  <time>2026-09-02T22:09:13Z</time>
  <course>74.66</course>
  <speed>0.01</speed>
  <fix>3d</fix>
</trkpt>
<trkpt lat="33.8106146" lon="-118.3935761">
  <ele>-1.084</ele>
  <time>2026-09-02T22:09:13Z</time>
  <course>157.31</course>
  <speed>0.01</speed>
  <fix>3d</fix>
</trkpt>
<trkpt lat="33.8106146" lon="-118.3935761">
  <ele>-1.149</ele>
  <time>2026-09-02T22:09:13Z</time>
  <course>157.32</course>
  <speed>0.01</speed>
  <fix>3d</fix>
</trkpt>
<trkpt lat="33.8106146" lon="-118.393576">
  <ele>-0.46</ele>
  <time>2026-09-02T22:09:13Z</time>
  <course>74.66</course>
  <speed>0.01</speed>
  <fix>3d</fix>
</trkpt>
<trkpt lat="33.8106146" lon="-118.3935761">
  <ele>-1.177</ele>
  <time>2026-09-02T22:09:13Z</time>
  <course>157.33</course>
  <speed>0.01</speed>
  <fix>3d</fix>
</trkpt>
<trkpt lat="33.8106146" lon="-118.3935761">
  <ele>-1.245</ele>
  <time>2026-09-02T22:09:13Z</time>
  <course>156.35</course>
  <speed>0.01</speed>
  <fix>3d</fix>
</trkpt>
<trkpt lat="33.8106146" lon="-118.393576">
  <ele>-0.63</ele>
  <time>2026-09-02T22:09:13Z</time>
  <course>74.79</course>
  <speed>0.01</speed>
  <fix>3d</fix>
</trkpt>
<trkpt lat="33.8106146" lon="-118.3935761">
  <ele>-1.248</ele>
  <time>2026-09-02T22:09:13Z</time>
  <course>156.35</course>
  <speed>0.01</speed>
  <fix>3d</fix>
</trkpt>
<trkpt lat="33.8106146" lon="-118.3935761">
  <ele>-1.343</ele>
  <time>2026-09-02T22:09:13Z</time>
  <course>156.37</course>
  <speed>0.01</speed>
  <fix>3d</fix>
</trkpt>
<trkpt lat="33.8106146" lon="-118.393576">
  <ele>-0.63</ele>
  <time>2026-09-02T22:09:13Z</time>
  <course>74.79</course>
  <speed>0.01</speed>
  <fix>3d</fix>
</trkpt>
<trkpt lat="33.8106146" lon="-118.3935761">
  <ele>-1.345</ele>
  <time>2026-09-02T22:09:13Z</time>
  <course>156.37</course>
  <speed>0.01</speed>
  <fix>3d</fix>
</trkpt>
<trkpt lat="33.8106146" lon="-118.3935761">
  <ele>-1.441</ele>
  <time>2026-09-02T22:09:13Z</time>
  <course>156.38</course>
  <speed>0.01</speed>
  <fix>3d</fix>
</trkpt>
<trkpt lat="33.8106146" lon="-118.393576">
  <ele>-0.81</ele>
  <time>2026-09-02T22:09:13Z</time>
  <course>74.96</course>
  <speed>0.01</speed>
  <fix>3d</fix>
</trkpt>
<trkpt lat="33.8106146" lon="-118.3935761">
  <ele>-1.444</ele>
  <time>2026-09-02T22:09:13Z</time>
  <course>156.38</course>
  <speed>0.01</speed>
  <fix>3d</fix>
</trkpt>
<trkpt lat="33.8106146" lon="-118.393576">
  <ele>-1.541</ele>
  <time>2026-09-02T22:09:13Z</time>
  <course>156.4</course>
  <speed>0.01</speed>
  <fix>3d</fix>
</trkpt>
<trkpt lat="33.8106146" lon="-118.393576">
  <ele>-0.81</ele>
  <time>2026-09-02T22:09:13Z</time>
  <course>74.96</course>
  <speed>0.01</speed>
  <fix>3d</fix>
</trkpt>
<trkpt lat="33.8106146" lon="-118.393576">
  <ele>-1.543</ele>
  <time>2026-09-02T22:09:13Z</time>
  <course>156.4</course>
  <speed>0.01</speed>
  <fix>3d</fix>
</trkpt>
<trkpt lat="33.8106146" lon="-118.393576">
  <ele>-1.641</ele>
  <time>2026-09-02T22:09:13Z</time>
  <course>156.42</course>
  <speed>0.01</speed>
  <fix>3d</fix>
</trkpt>
<trkpt lat="33.8106147" lon="-118.3935759">
  <ele>-0.99</ele>
  <time>2026-09-02T22:09:13Z</time>
  <course>75.13</course>
  <speed>0.01</speed>
  <fix>3d</fix>
</trkpt>
<trkpt lat="33.8106146" lon="-118.393576">
  <ele>-1.646</ele>
  <time>2026-09-02T22:09:13Z</time>
  <course>156.42</course>
  <speed>0.01</speed>
  <fix>3d</fix>
</trkpt>
<trkpt lat="33.8106146" lon="-118.393576">
  <ele>-1.741</ele>
  <time>2026-09-02T22:09:13Z</time>
  <course>156.44</course>
  <speed>0.01</speed>
  <fix>3d</fix>
</trkpt>
<trkpt lat="33.8106147" lon="-118.3935759">
  <ele>-0.99</ele>
  <time>2026-09-02T22:09:13Z</time>
  <course>75.13</course>
  <speed>0.01</speed>
  <fix>3d</fix>
</trkpt>
<trkpt lat="33.8106146" lon="-118.393576">
  <ele>-1.745</ele>
  <time>2026-09-02T22:09:13Z</time>
  <course>156.44</course>
  <speed>0.01</speed>
  <fix>3d</fix>
</trkpt>
<trkpt lat="33.8106146" lon="-118.393576">
  <ele>-1.839</ele>
  <time>2026-09-02T22:09:13Z</time>
  <course>156.46</course>
  <speed>0.01</speed>
  <fix>3d</fix>
</trkpt>
<trkpt lat="33.8106147" lon="-118.3935758">
  <ele>-1.18</ele>
  <time>2026-09-02T22:09:13Z</time>
  <course>75.29</course>
  <speed>0.01</speed>
  <fix>3d</fix>
</trkpt>
<trkpt lat="33.8106146" lon="-118.393576">
  <ele>-1.841</ele>
  <time>2026-09-02T22:09:13Z</time>
  <course>156.46</course>
  <speed>0.01</speed>
  <fix>3d</fix>
</trkpt>
<trkpt lat="33.8106146" lon="-118.393576">
  <ele>-1.938</ele>
  <time>2026-09-02T22:09:13Z</time>
  <course>156.48</course>
  <speed>0.01</speed>
  <fix>3d</fix>
</trkpt>
<trkpt lat="33.8106147" lon="-118.3935758">
  <ele>-1.18</ele>
  <time>2026-09-02T22:09:13Z</time>
  <course>75.29</course>
  <speed>0.01</speed>
  <fix>3d</fix>
</trkpt>
<trkpt lat="33.8106146" lon="-118.393576">
  <ele>-1.939</ele>
  <time>2026-09-02T22:09:13Z</time>
  <course>156.48</course>
  <speed>0.01</speed>
  <fix>3d</fix>
</trkpt>
<trkpt lat="33.8106146" lon="-118.3935759">
  <ele>-2.035</ele>
  <time>2026-09-02T22:09:13Z</time>
  <course>156.5</course>
  <speed>0.01</speed>
  <fix>3d</fix>
</trkpt>
<trkpt lat="33.8106147" lon="-118.3935758">
  <ele>-1.36</ele>
  <time>2026-09-02T22:09:13Z</time>
  <course>75.45</course>
  <speed>0.01</speed>
  <fix>3d</fix>
</trkpt>
<trkpt lat="33.8106146" lon="-118.3935759">
  <ele>-2.037</ele>
  <time>2026-09-02T22:09:13Z</time>
  <course>156.5</course>
  <speed>0.01</speed>
  <fix>3d</fix>
</trkpt>
<trkpt lat="33.8106146" lon="-118.3935759">
  <ele>-2.131</ele>
  <time>2026-09-02T22:09:13Z</time>
  <course>156.51</course>
  <speed>0.01</speed>
  <fix>3d</fix>
</trkpt>
<trkpt lat="33.8106147" lon="-118.3935758">
  <ele>-1.36</ele>
  <time>2026-09-02T22:09:13Z</time>
  <course>75.45</course>
  <speed>0.01</speed>
  <fix>3d</fix>
</trkpt>
<trkpt lat="33.8106146" lon="-118.3935759">
  <ele>-2.133</ele>
  <time>2026-09-02T22:09:13Z</time>
  <course>156.51</course>
  <speed>0.01</speed>
  <fix>3d</fix>
</trkpt>
<trkpt lat="33.8106146" lon="-118.3935759">
  <ele>-2.227</ele>
  <time>2026-09-02T22:09:13Z</time>
  <course>156.53</course>
  <speed>0.01</speed>
  <fix>3d</fix>
</trkpt>
<trkpt lat="33.8106147" lon="-118.3935758">
  <ele>-1.54</ele>
  <time>2026-09-02T22:09:13Z</time>
  <course>75.59</course>
  <speed>0.01</speed>
  <fix>3d</fix>
</trkpt>
<trkpt lat="33.8106146" lon="-118.3935759">
  <ele>-2.229</ele>
  <time>2026-09-02T22:09:13Z</time>
  <course>156.53</course>
  <speed>0.01</speed>
  <fix>3d</fix>
</trkpt>
<trkpt lat="33.8106146" lon="-118.3935759">
  <ele>-2.323</ele>
  <time>2026-09-02T22:09:13Z</time>
  <course>156.55</course>
  <speed>0.01</speed>
  <fix>3d</fix>
</trkpt>
<trkpt lat="33.8106147" lon="-118.3935758">
  <ele>-1.54</ele>
  <time>2026-09-02T22:09:13Z</time>
  <course>75.59</course>
  <speed>0.01</speed>
  <fix>3d</fix>
</trkpt>
<trkpt lat="33.8106146" lon="-118.3935759">
  <ele>-2.35</ele>
  <time>2026-09-02T22:09:13Z</time>
  <course>156.56</course>
  <speed>0.01</speed>
  <fix>3d</fix>
</trkpt>
<trkpt lat="33.8106146" lon="-118.3935759">
  <ele>-2.418</ele>
  <time>2026-09-02T22:09:13Z</time>
  <course>156.58</course>
  <speed>0.01</speed>
  <fix>3d</fix>
</trkpt>
<trkpt lat="33.8106147" lon="-118.3935758">
  <ele>-1.72</ele>
  <time>2026-09-02T22:09:13Z</time>
  <course>75.73</course>
  <speed>0.01</speed>
  <fix>3d</fix>
</trkpt>
<trkpt lat="33.8106146" lon="-118.3935759">
  <ele>-2.446</ele>
  <time>2026-09-02T22:09:13Z</time>
  <course>156.59</course>
  <speed>0.01</speed>
  <fix>3d</fix>
</trkpt>
<trkpt lat="33.8106146" lon="-118.3935759">
  <ele>-2.512</ele>
  <time>2026-09-02T22:09:13Z</time>
  <course>156.6</course>
  <speed>0.01</speed>
  <fix>3d</fix>
</trkpt>
<trkpt lat="33.8106147" lon="-118.3935758">
  <ele>-1.72</ele>
  <time>2026-09-02T22:09:13Z</time>
  <course>75.73</course>
  <speed>0.01</speed>
  <fix>3d</fix>
</trkpt>
<trkpt lat="33.8106146" lon="-118.3935758">
  <ele>-2.54</ele>
  <time>2026-09-02T22:09:13Z</time>
  <course>156.61</course>
  <speed>0.01</speed>
  <fix>3d</fix>
</trkpt>
<trkpt lat="33.8106146" lon="-118.3935758">
  <ele>-2.606</ele>
  <time>2026-09-02T22:09:13Z</time>
  <course>156.62</course>
  <speed>0.01</speed>
  <fix>3d</fix>
</trkpt>
<trkpt lat="33.8106147" lon="-118.3935758">
  <ele>-1.9</ele>
  <time>2026-09-02T22:09:13Z</time>
  <course>75.87</course>
  <speed>0.01</speed>
  <fix>3d</fix>
</trkpt>
<trkpt lat="33.8106146" lon="-118.3935758">
  <ele>-2.635</ele>
  <time>2026-09-02T22:09:13Z</time>
  <course>156.63</course>
  <speed>0.01</speed>
  <fix>3d</fix>
</trkpt>
<trkpt lat="33.8106146" lon="-118.3935758">
  <ele>-2.702</ele>
  <time>2026-09-02T22:09:13Z</time>
  <course>156.64</course>
  <speed>0.0</speed>
  <fix>3d</fix>
</trkpt>
<trkpt lat="33.8106147" lon="-118.3935758">
  <ele>-1.9</ele>
  <time>2026-09-02T22:09:13Z</time>
  <course>75.87</course>
  <speed>0.01</speed>
  <fix>3d</fix>
</trkpt>
<trkpt lat="33.8106146" lon="-118.3935758">
  <ele>-2.704</ele>
  <time>2026-09-02T22:09:13Z</time>
  <course>156.64</course>
  <speed>0.0</speed>
  <fix>3d</fix>
</trkpt>
<trkpt lat="33.8106146" lon="-118.3935758">
  <ele>-2.798</ele>
  <time>2026-09-02T22:09:13Z</time>
  <course>156.66</course>
  <speed>0.0</speed>
  <fix>3d</fix>
</trkpt>
<trkpt lat="33.8106147" lon="-118.3935757">
  <ele>-2.08</ele>
  <time>2026-09-02T22:09:13Z</time>
  <course>76.04</course>
  <speed>0.01</speed>
  <fix>3d</fix>
</trkpt>
<trkpt lat="33.8106146" lon="-118.3935758">
  <ele>-2.83</ele>
  <time>2026-09-02T22:09:13Z</time>
  <course>156.66</course>
  <speed>0.0</speed>
  <fix>3d</fix>
</trkpt>
<trkpt lat="33.8106146" lon="-118.3935758">
  <ele>-2.894</ele>
  <time>2026-09-02T22:09:13Z</time>
  <course>156.68</course>
  <speed>0.0</speed>
  <fix>3d</fix>
</trkpt>
<trkpt lat="33.8106147" lon="-118.3935757">
  <ele>-2.08</ele>
  <time>2026-09-02T22:09:13Z</time>
  <course>76.04</course>
  <speed>0.01</speed>
  <fix>3d</fix>
</trkpt>
<trkpt lat="33.8106146" lon="-118.3935758">
  <ele>-2.923</ele>
  <time>2026-09-02T22:09:13Z</time>
  <course>156.68</course>
  <speed>0.0</speed>
  <fix>3d</fix>
</trkpt>
<trkpt lat="33.8106146" lon="-118.3935758">
  <ele>-2.99</ele>
  <time>2026-09-02T22:09:13Z</time>
  <course>156.69</course>
  <speed>0.0</speed>
  <fix>3d</fix>
</trkpt>
<trkpt lat="33.8106147" lon="-118.3935757">
  <ele>-2.27</ele>
  <time>2026-09-02T22:09:13Z</time>
  <course>76.22</course>
  <speed>0.01</speed>
  <fix>3d</fix>
</trkpt>
<trkpt lat="33.8106146" lon="-118.3935758">
  <ele>-3.019</ele>
  <time>2026-09-02T22:09:13Z</time>
  <course>156.7</course>
  <speed>0.0</speed>
  <fix>3d</fix>
</trkpt>
<trkpt lat="33.8106146" lon="-118.3935758">
  <ele>-3.086</ele>
  <time>2026-09-02T22:09:13Z</time>
  <course>156.71</course>
  <speed>0.0</speed>
  <fix>3d</fix>
</trkpt>
<trkpt lat="33.8106147" lon="-118.3935757">
  <ele>-2.27</ele>
  <time>2026-09-02T22:09:13Z</time>
  <course>76.22</course>
  <speed>0.01</speed>
  <fix>3d</fix>
</trkpt>
<trkpt lat="33.8106146" lon="-118.3935758">
  <ele>-3.116</ele>
  <time>2026-09-02T22:09:13Z</time>
  <course>156.72</course>
  <speed>0.0</speed>
  <fix>3d</fix>
</trkpt>
<trkpt lat="33.8106146" lon="-118.3935757">
  <ele>-3.184</ele>
  <time>2026-09-02T22:09:13Z</time>
  <course>156.73</course>
  <speed>0.0</speed>
  <fix>3d</fix>
</trkpt>
<trkpt lat="33.8106147" lon="-118.3935757">
  <ele>-2.46</ele>
  <time>2026-09-02T22:09:13Z</time>
  <course>76.38</course>
  <speed>0.01</speed>
  <fix>3d</fix>
</trkpt>
<trkpt lat="33.8106146" lon="-118.3935757">
  <ele>-3.213</ele>
  <time>2026-09-02T22:09:13Z</time>
  <course>156.74</course>
  <speed>0.0</speed>
  <fix>3d</fix>
</trkpt>
<trkpt lat="33.8106146" lon="-118.3935757">
  <ele>-3.281</ele>
  <time>2026-09-02T22:09:13Z</time>
  <course>156.75</course>
  <speed>0.0</speed>
  <fix>3d</fix>
</trkpt>
<trkpt lat="33.8106147" lon="-118.3935757">
  <ele>-2.46</ele>
  <time>2026-09-02T22:09:13Z</time>
  <course>76.38</course>
  <speed>0.01</speed>
  <fix>3d</fix>
</trkpt>
<trkpt lat="33.8106146" lon="-118.3935757">
  <ele>-3.31</ele>
  <time>2026-09-02T22:09:13Z</time>
  <course>156.75</course>
  <speed>0.0</speed>
  <fix>3d</fix>
</trkpt>
<trkpt lat="33.8106146" lon="-118.3935757">
  <ele>-3.378</ele>
  <time>2026-09-02T22:09:13Z</time>
  <course>156.77</course>
  <speed>0.0</speed>
  <fix>3d</fix>
</trkpt>
<trkpt lat="33.8106147" lon="-118.3935757">
  <ele>-2.66</ele>
  <time>2026-09-02T22:09:13Z</time>
  <course>76.53</course>
  <speed>0.01</speed>
  <fix>3d</fix>
</trkpt>
<trkpt lat="33.8106146" lon="-118.3935757">
  <ele>-3.407</ele>
  <time>2026-09-02T22:09:13Z</time>
  <course>156.77</course>
  <speed>0.0</speed>
  <fix>3d</fix>
</trkpt>
<trkpt lat="33.8106146" lon="-118.3935757">
  <ele>-3.476</ele>
  <time>2026-09-02T22:09:13Z</time>
  <course>156.78</course>
  <speed>0.0</speed>
  <fix>3d</fix>
</trkpt>
<trkpt lat="33.8106147" lon="-118.3935757">
  <ele>-2.66</ele>
  <time>2026-09-02T22:09:13Z</time>
  <course>76.53</course>
  <speed>0.01</speed>
  <fix>3d</fix>
</trkpt>
<trkpt lat="33.8106146" lon="-118.3935757">
  <ele>-3.506</ele>
  <time>2026-09-02T22:09:13Z</time>
  <course>156.79</course>
  <speed>0.0</speed>
  <fix>3d</fix>
</trkpt>
<trkpt lat="33.8106146" lon="-118.3935757">
  <ele>-3.575</ele>
  <time>2026-09-02T22:09:13Z</time>
  <course>156.8</course>
  <speed>0.0</speed>
  <fix>3d</fix>
</trkpt>
<trkpt lat="33.8106147" lon="-118.3935756">
  <ele>-2.86</ele>
  <time>2026-09-02T22:09:13Z</time>
  <course>76.66</course>
  <speed>0.01</speed>
  <fix>3d</fix>
</trkpt>
<trkpt lat="33.8106146" lon="-118.3935757">
  <ele>-3.596</ele>
  <time>2026-09-02T22:09:13Z</time>
  <course>156.81</course>
  <speed>0.0</speed>
  <fix>3d</fix>
</trkpt>
<trkpt lat="33.8106146" lon="-118.3935757">
  <ele>-3.674</ele>
  <time>2026-09-02T22:09:13Z</time>
  <course>156.82</course>
  <speed>0.0</speed>
  <fix>3d</fix>
</trkpt>
<trkpt lat="33.8106147" lon="-118.3935756">
  <ele>-2.86</ele>
  <time>2026-09-02T22:09:13Z</time>
  <course>76.66</course>
  <speed>0.01</speed>
  <fix>3d</fix>
</trkpt>
<trkpt lat="33.8106146" lon="-118.3935757">
  <ele>-3.695</ele>
  <time>2026-09-02T22:09:13Z</time>
  <course>156.82</course>
  <speed>0.0</speed>
  <fix>3d</fix>
</trkpt>
<trkpt lat="33.8106146" lon="-118.3935757">
  <ele>-3.773</ele>
  <time>2026-09-02T22:09:13Z</time>
  <course>156.84</course>
  <speed>0.0</speed>
  <fix>3d</fix>
</trkpt>
<trkpt lat="33.8106147" lon="-118.3935756">
  <ele>-3.06</ele>
  <time>2026-09-02T22:09:13Z</time>
  <course>76.79</course>
  <speed>0.01</speed>
  <fix>3d</fix>
</trkpt>
<trkpt lat="33.8106146" lon="-118.3935757">
  <ele>-3.775</ele>
  <time>2026-09-02T22:09:13Z</time>
  <course>156.84</course>
  <speed>0.0</speed>
  <fix>3d</fix>
</trkpt>
<trkpt lat="33.8106146" lon="-118.3935757">
  <ele>-3.873</ele>
  <time>2026-09-02T22:09:13Z</time>
  <course>156.86</course>
  <speed>0.0</speed>
  <fix>3d</fix>
</trkpt>
<trkpt lat="33.8106147" lon="-118.3935756">
  <ele>-3.06</ele>
  <time>2026-09-02T22:09:13Z</time>
  <course>76.79</course>
  <speed>0.01</speed>
  <fix>3d</fix>
</trkpt>
<trkpt lat="33.8106146" lon="-118.3935757">
  <ele>-3.893</ele>
  <time>2026-09-02T22:09:13Z</time>
  <course>156.86</course>
  <speed>0.0</speed>
  <fix>3d</fix>
</trkpt>
<trkpt lat="33.8106146" lon="-118.3935756">
  <ele>-3.973</ele>
  <time>2026-09-02T22:09:13Z</time>
  <course>156.87</course>
  <speed>0.0</speed>
  <fix>3d</fix>
</trkpt>
<trkpt lat="33.8106147" lon="-118.3935756">
  <ele>-3.26</ele>
  <time>2026-09-02T22:09:13Z</time>
  <course>76.92</course>
  <speed>0.01</speed>
  <fix>3d</fix>
</trkpt>
<trkpt lat="33.8106146" lon="-118.3935756">
  <ele>-3.991</ele>
  <time>2026-09-02T22:09:13Z</time>
  <course>156.88</course>
  <speed>0.0</speed>
  <fix>3d</fix>
</trkpt>
<trkpt lat="33.8106146" lon="-118.3935756">
  <ele>-4.073</ele>
  <time>2026-09-02T22:09:13Z</time>
  <course>156.89</course>
  <speed>0.0</speed>
  <fix>3d</fix>
</trkpt>
<trkpt lat="33.8106147" lon="-118.3935756">
  <ele>-3.26</ele>
  <time>2026-09-02T22:09:13Z</time>
  <course>76.92</course>
  <speed>0.01</speed>
  <fix>3d</fix>
</trkpt>
<trkpt lat="33.8106146" lon="-118.3935756">
  <ele>-4.093</ele>
  <time>2026-09-02T22:09:13Z</time>
  <course>156.89</course>
  <speed>0.0</speed>
  <fix>3d</fix>
</trkpt>
<trkpt lat="33.8106146" lon="-118.3935756">
  <ele>-4.173</ele>
  <time>2026-09-02T22:09:13Z</time>
  <course>156.91</course>
  <speed>0.0</speed>
  <fix>3d</fix>
</trkpt>
<trkpt lat="33.8106147" lon="-118.3935755">
  <ele>-3.46</ele>
  <time>2026-09-02T22:09:13Z</time>
  <course>77.06</course>
  <speed>0.01</speed>
  <fix>3d</fix>
</trkpt>
<trkpt lat="33.8106146" lon="-118.3935756">
  <ele>-4.175</ele>
  <time>2026-09-02T22:09:13Z</time>
  <course>156.91</course>
  <speed>0.0</speed>
  <fix>3d</fix>
</trkpt>
<trkpt lat="33.8106146" lon="-118.3935756">
  <ele>-4.272</ele>
  <time>2026-09-02T22:09:13Z</time>
  <course>156.92</course>
  <speed>0.0</speed>
  <fix>3d</fix>
</trkpt>
<trkpt lat="33.8106147" lon="-118.3935755">
  <ele>-3.46</ele>
  <time>2026-09-02T22:09:13Z</time>
  <course>77.06</course>
  <speed>0.01</speed>
  <fix>3d</fix>
</trkpt>
<trkpt lat="33.8106146" lon="-118.3935756">
  <ele>-4.292</ele>
  <time>2026-09-02T22:09:13Z</time>
  <course>156.93</course>
  <speed>0.0</speed>
  <fix>3d</fix>
</trkpt>
<trkpt lat="33.8106146" lon="-118.3935756">
  <ele>-4.37</ele>
  <time>2026-09-02T22:09:13Z</time>
  <course>156.94</course>
  <speed>0.0</speed>
  <fix>3d</fix>
</trkpt>
<trkpt lat="33.8106147" lon="-118.3935755">
  <ele>-3.65</ele>
  <time>2026-09-02T22:09:13Z</time>
  <course>77.2</course>
  <speed>0.01</speed>
  <fix>3d</fix>
</trkpt>
<trkpt lat="33.8106146" lon="-118.3935756">
  <ele>-4.4</ele>
  <time>2026-09-02T22:09:13Z</time>
  <course>156.95</course>
  <speed>0.0</speed>
  <fix>3d</fix>
</trkpt>
<trkpt lat="33.8106146" lon="-118.3935756">
  <ele>-4.469</ele>
  <time>2026-09-02T22:09:13Z</time>
  <course>156.96</course>
  <speed>0.0</speed>
  <fix>3d</fix>
</trkpt>
<trkpt lat="33.8106147" lon="-118.3935755">
  <ele>-3.65</ele>
  <time>2026-09-02T22:09:13Z</time>
  <course>77.2</course>
  <speed>0.01</speed>
  <fix>3d</fix>
</trkpt>
<trkpt lat="33.8106146" lon="-118.3935756">
  <ele>-4.501</ele>
  <time>2026-09-02T22:09:13Z</time>
  <course>156.96</course>
  <speed>0.0</speed>
  <fix>3d</fix>
</trkpt>
<trkpt lat="33.8106146" lon="-118.3935756">
  <ele>-4.567</ele>
  <time>2026-09-02T22:09:13Z</time>
  <course>156.97</course>
  <speed>0.0</speed>
  <fix>3d</fix>
</trkpt>
<trkpt lat="33.8106147" lon="-118.3935755">
  <ele>-3.86</ele>
  <time>2026-09-02T22:09:13Z</time>
  <course>77.35</course>
  <speed>0.01</speed>
  <fix>3d</fix>
</trkpt>
<trkpt lat="33.8106146" lon="-118.3935756">
  <ele>-4.599</ele>
  <time>2026-09-02T22:09:13Z</time>
  <course>156.98</course>
  <speed>0.0</speed>
  <fix>3d</fix>
</trkpt>
<trkpt lat="33.8106146" lon="-118.3935755">
  <ele>-4.665</ele>
  <time>2026-09-02T22:09:13Z</time>
  <course>156.99</course>
  <speed>0.0</speed>
  <fix>3d</fix>
</trkpt>
<trkpt lat="33.8106147" lon="-118.3935755">
  <ele>-3.86</ele>
  <time>2026-09-02T22:09:13Z</time>
  <course>77.35</course>
  <speed>0.01</speed>
  <fix>3d</fix>
</trkpt>
<trkpt lat="33.8106146" lon="-118.3935755">
  <ele>-4.695</ele>
  <time>2026-09-02T22:09:13Z</time>
  <course>157.0</course>
  <speed>0.0</speed>
  <fix>3d</fix>
</trkpt>
<trkpt lat="33.8106146" lon="-118.3935755">
  <ele>-4.763</ele>
  <time>2026-09-02T22:09:13Z</time>
  <course>157.01</course>
  <speed>0.0</speed>
  <fix>3d</fix>
</trkpt>
<trkpt lat="33.8106147" lon="-118.3935755">
  <ele>-4.05</ele>
  <time>2026-09-02T22:09:13Z</time>
  <course>77.48</course>
  <speed>0.01</speed>
  <fix>3d</fix>
</trkpt>
<trkpt lat="33.8106146" lon="-118.3935755">
  <ele>-4.794</ele>
  <time>2026-09-02T22:09:13Z</time>
  <course>157.01</course>
  <speed>0.0</speed>
  <fix>3d</fix>
</trkpt>
<trkpt lat="33.8106146" lon="-118.3935755">
  <ele>-4.863</ele>
  <time>2026-09-02T22:09:13Z</time>
  <course>157.02</course>
  <speed>0.0</speed>
  <fix>3d</fix>
</trkpt>
<trkpt lat="33.8106147" lon="-118.3935755">
  <ele>-4.05</ele>
  <time>2026-09-02T22:09:13Z</time>
  <course>77.48</course>
  <speed>0.01</speed>
  <fix>3d</fix>
</trkpt>
<trkpt lat="33.8106146" lon="-118.3935755">
  <ele>-4.865</ele>
  <time>2026-09-02T22:09:13Z</time>
  <course>157.02</course>
  <speed>0.0</speed>
  <fix>3d</fix>
</trkpt>
<trkpt lat="33.8106146" lon="-118.3935755">
  <ele>-4.963</ele>
  <time>2026-09-02T22:09:13Z</time>
  <course>157.04</course>
  <speed>0.01</speed>
  <fix>3d</fix>
</trkpt>
<trkpt lat="33.8106148" lon="-118.3935754">
  <ele>-4.24</ele>
  <time>2026-09-02T22:09:13Z</time>
  <course>77.6</course>
  <speed>0.01</speed>
  <fix>3d</fix>
</trkpt>
<trkpt lat="33.8106146" lon="-118.3935755">
  <ele>-4.993</ele>
  <time>2026-09-02T22:09:13Z</time>
  <course>157.04</course>
  <speed>0.01</speed>
  <fix>3d</fix>
</trkpt>
<trkpt lat="33.8106146" lon="-118.3935755">
  <ele>-5.062</ele>
  <time>2026-09-02T22:09:13Z</time>
  <course>157.06</course>
  <speed>0.01</speed>
  <fix>3d</fix>
</trkpt>
<trkpt lat="33.8106148" lon="-118.3935754">
  <ele>-4.24</ele>
  <time>2026-09-02T22:09:13Z</time>
  <course>77.6</course>
  <speed>0.01</speed>
  <fix>3d</fix>
</trkpt>
<trkpt lat="33.8106146" lon="-118.3935755">
  <ele>-5.092</ele>
  <time>2026-09-02T22:09:13Z</time>
  <course>157.06</course>
  <speed>0.01</speed>
  <fix>3d</fix>
</trkpt>
<trkpt lat="33.8106147" lon="-118.3935755">
  <ele>-5.161</ele>
  <time>2026-09-02T22:09:13Z</time>
  <course>157.07</course>
  <speed>0.01</speed>
  <fix>3d</fix>
</trkpt>
<trkpt lat="33.8106149" lon="-118.3935754">
  <ele>-4.44</ele>
  <time>2026-09-02T22:09:13Z</time>
  <course>77.71</course>
  <speed>0.01</speed>
  <fix>3d</fix>
</trkpt>
<trkpt lat="33.8106147" lon="-118.3935755">
  <ele>-5.256</ele>
  <time>2026-09-02T22:09:13Z</time>
  <course>157.09</course>
  <speed>0.01</speed>
  <fix>3d</fix>
</trkpt>
<trkpt lat="33.8106149" lon="-118.3935754">
  <ele>-4.44</ele>
  <time>2026-09-02T22:09:13Z</time>
  <course>77.71</course>
  <speed>0.01</speed>
  <fix>3d</fix>
</trkpt>
<trkpt lat="33.8106147" lon="-118.3935754">
  <ele>-5.34</ele>
  <time>2026-09-02T22:09:13Z</time>
  <course>157.1</course>
  <speed>0.01</speed>
  <fix>3d</fix>
</trkpt>
<trkpt lat="33.8106149" lon="-118.3935754">
  <ele>-4.63</ele>
  <time>2026-09-02T22:09:13Z</time>
  <course>77.78</course>
  <speed>0.01</speed>
  <fix>3d</fix>
</trkpt>
<trkpt lat="33.8106147" lon="-118.3935754">
  <ele>-5.408</ele>
  <time>2026-09-02T22:09:13Z</time>
  <course>157.12</course>
  <speed>0.01</speed>
  <fix>3d</fix>
</trkpt>
<trkpt lat="33.8106149" lon="-118.3935754">
  <ele>-4.63</ele>
  <time>2026-09-02T22:09:13Z</time>
  <course>77.78</course>
  <speed>0.01</speed>
  <fix>3d</fix>
</trkpt>
<trkpt lat="33.8106147" lon="-118.3935754">
  <ele>-5.46</ele>
  <time>2026-09-02T22:09:13Z</time>
  <course>157.13</course>
  <speed>0.01</speed>
  <fix>3d</fix>
</trkpt>
<trkpt lat="33.8106149" lon="-118.3935754">
  <ele>-4.79</ele>
  <time>2026-09-02T22:09:13Z</time>
  <course>77.68</course>
  <speed>0.01</speed>
  <fix>3d</fix>
</trkpt>
<trkpt lat="33.8106147" lon="-118.3935754">
  <ele>-5.499</ele>
  <time>2026-09-02T22:09:13Z</time>
  <course>157.15</course>
  <speed>0.01</speed>
  <fix>3d</fix>
</trkpt>
<trkpt lat="33.8106149" lon="-118.3935754">
  <ele>-4.79</ele>
  <time>2026-09-02T22:09:13Z</time>
  <course>77.68</course>
  <speed>0.01</speed>
  <fix>3d</fix>
</trkpt>
<trkpt lat="33.8106147" lon="-118.3935754">
  <ele>-5.527</ele>
  <time>2026-09-02T22:09:13Z</time>
  <course>157.16</course>
  <speed>0.01</speed>
  <fix>3d</fix>
</trkpt>
<trkpt lat="33.8106149" lon="-118.3935753">
  <ele>-4.9</ele>
  <time>2026-09-02T22:09:13Z</time>
  <course>77.58</course>
  <speed>0.01</speed>
  <fix>3d</fix>
</trkpt>
<trkpt lat="33.8106147" lon="-118.3935754">
  <ele>-5.544</ele>
  <time>2026-09-02T22:09:13Z</time>
  <course>157.18</course>
  <speed>0.01</speed>
  <fix>3d</fix>
</trkpt>
<trkpt lat="33.8106149" lon="-118.3935753">
  <ele>-4.9</ele>
  <time>2026-09-02T22:09:13Z</time>
  <course>77.58</course>
  <speed>0.01</speed>
  <fix>3d</fix>
</trkpt>
<trkpt lat="33.8106148" lon="-118.3935754">
  <ele>-5.552</ele>
  <time>2026-09-02T22:09:13Z</time>
  <course>157.19</course>
  <speed>0.01</speed>
  <fix>3d</fix>
</trkpt>
<trkpt lat="33.8106149" lon="-118.3935753">
  <ele>-4.96</ele>
  <time>2026-09-02T22:09:13Z</time>
  <course>77.71</course>
  <speed>0.01</speed>
  <fix>3d</fix>
</trkpt>
<trkpt lat="33.8106148" lon="-118.3935753">
  <ele>-5.554</ele>
  <time>2026-09-02T22:09:13Z</time>
  <course>157.21</course>
  <speed>0.01</speed>
  <fix>3d</fix>
</trkpt>
<trkpt lat="33.8106149" lon="-118.3935753">
  <ele>-4.96</ele>
  <time>2026-09-02T22:09:13Z</time>
  <course>77.71</course>
  <speed>0.01</speed>
  <fix>3d</fix>
</trkpt>
<trkpt lat="33.8106148" lon="-118.3935753">
  <ele>-5.551</ele>
  <time>2026-09-02T22:09:13Z</time>
  <course>157.22</course>
  <speed>0.01</speed>
  <fix>3d</fix>
</trkpt>
<trkpt lat="33.8106149" lon="-118.3935753">
  <ele>-4.98</ele>
  <time>2026-09-02T22:09:13Z</time>
  <course>77.91</course>
  <speed>0.01</speed>
  <fix>3d</fix>
</trkpt>
<trkpt lat="33.8106148" lon="-118.3935753">
  <ele>-5.546</ele>
  <time>2026-09-02T22:09:13Z</time>
  <course>157.24</course>
  <speed>0.01</speed>
  <fix>3d</fix>
</trkpt>
<trkpt lat="33.8106149" lon="-118.3935753">
  <ele>-4.98</ele>
  <time>2026-09-02T22:09:13Z</time>
  <course>77.91</course>
  <speed>0.01</speed>
  <fix>3d</fix>
</trkpt>
<trkpt lat="33.8106148" lon="-118.3935753">
  <ele>-5.54</ele>
  <time>2026-09-02T22:09:13Z</time>
  <course>157.25</course>
  <speed>0.01</speed>
  <fix>3d</fix>
</trkpt>
<trkpt lat="33.8106149" lon="-118.3935753">
  <ele>-4.99</ele>
  <time>2026-09-02T22:09:13Z</time>
  <course>78.07</course>
  <speed>0.01</speed>
  <fix>3d</fix>
</trkpt>
<trkpt lat="33.8106148" lon="-118.3935753">
  <ele>-5.535</ele>
  <time>2026-09-02T22:09:13Z</time>
  <course>157.27</course>
  <speed>0.01</speed>
  <fix>3d</fix>
</trkpt>
<trkpt lat="33.8106149" lon="-118.3935753">
  <ele>-4.99</ele>
  <time>2026-09-02T22:09:13Z</time>
  <course>78.07</course>
  <speed>0.01</speed>
  <fix>3d</fix>
</trkpt>
<trkpt lat="33.8106148" lon="-118.3935753">
  <ele>-5.532</ele>
  <time>2026-09-02T22:09:13Z</time>
  <course>157.28</course>
  <speed>0.01</speed>
  <fix>3d</fix>
</trkpt>
<trkpt lat="33.8106149" lon="-118.3935753">
  <ele>-4.99</ele>
  <time>2026-09-02T22:09:13Z</time>
  <course>78.19</course>
  <speed>0.01</speed>
  <fix>3d</fix>
</trkpt>
<trkpt lat="33.8106148" lon="-118.3935753">
  <ele>-5.53</ele>
  <time>2026-09-02T22:09:13Z</time>
  <course>157.3</course>
  <speed>0.01</speed>
  <fix>3d</fix>
</trkpt>
<trkpt lat="33.8106149" lon="-118.3935753">
  <ele>-4.99</ele>
  <time>2026-09-02T22:09:13Z</time>
  <course>78.19</course>
  <speed>0.01</speed>
  <fix>3d</fix>
</trkpt>
<trkpt lat="33.8106148" lon="-118.3935753">
  <ele>-5.529</ele>
  <time>2026-09-02T22:09:13Z</time>
  <course>157.31</course>
  <speed>0.01</speed>
  <fix>3d</fix>
</trkpt>
<trkpt lat="33.8106149" lon="-118.3935752">
  <ele>-4.99</ele>
  <time>2026-09-02T22:09:13Z</time>
  <course>78.32</course>
  <speed>0.01</speed>
  <fix>3d</fix>
</trkpt>
<trkpt lat="33.8106148" lon="-118.3935752">
  <ele>-5.529</ele>
  <time>2026-09-02T22:09:13Z</time>
  <course>157.33</course>
  <speed>0.01</speed>
  <fix>3d</fix>
</trkpt>
<trkpt lat="33.8106149" lon="-118.3935752">
  <ele>-4.99</ele>
  <time>2026-09-02T22:09:13Z</time>
  <course>78.32</course>
  <speed>0.01</speed>
  <fix>3d</fix>
</trkpt>
<trkpt lat="33.8106148" lon="-118.3935752">
  <ele>-5.53</ele>
  <time>2026-09-02T22:09:13Z</time>
  <course>157.34</course>
  <speed>0.01</speed>
  <fix>3d</fix>
</trkpt>
<trkpt lat="33.8106149" lon="-118.3935752">
  <ele>-4.99</ele>
  <time>2026-09-02T22:09:13Z</time>
  <course>78.47</course>
  <speed>0.01</speed>
  <fix>3d</fix>
</trkpt>
<trkpt lat="33.8106148" lon="-118.3935752">
  <ele>-5.532</ele>
  <time>2026-09-02T22:09:13Z</time>
  <course>157.35</course>
  <speed>0.01</speed>
  <fix>3d</fix>
</trkpt>
<trkpt lat="33.8106149" lon="-118.3935752">
  <ele>-4.99</ele>
  <time>2026-09-02T22:09:13Z</time>
  <course>78.47</course>
  <speed>0.01</speed>
  <fix>3d</fix>
</trkpt>
<trkpt lat="33.8106148" lon="-118.3935752">
  <ele>-5.534</ele>
  <time>2026-09-02T22:09:13Z</time>
  <course>157.37</course>
  <speed>0.01</speed>
  <fix>3d</fix>
</trkpt>
<trkpt lat="33.8106149" lon="-118.3935752">
  <ele>-5.0</ele>
  <time>2026-09-02T22:09:13Z</time>
  <course>78.6</course>
  <speed>0.01</speed>
  <fix>3d</fix>
</trkpt>
<trkpt lat="33.8106148" lon="-118.3935752">
  <ele>-5.535</ele>
  <time>2026-09-02T22:09:13Z</time>
  <course>157.38</course>
  <speed>0.01</speed>
  <fix>3d</fix>
</trkpt>
<trkpt lat="33.8106149" lon="-118.3935752">
  <ele>-5.0</ele>
  <time>2026-09-02T22:09:13Z</time>
  <course>78.6</course>
  <speed>0.01</speed>
  <fix>3d</fix>
</trkpt>
<trkpt lat="33.8106149" lon="-118.3935752">
  <ele>-5.536</ele>
  <time>2026-09-02T22:09:13Z</time>
  <course>157.4</course>
  <speed>0.01</speed>
  <fix>3d</fix>
</trkpt>
<trkpt lat="33.8106149" lon="-118.3935752">
  <ele>-5.0</ele>
  <time>2026-09-02T22:09:13Z</time>
  <course>78.72</course>
  <speed>0.01</speed>
  <fix>3d</fix>
</trkpt>
<trkpt lat="33.8106149" lon="-118.3935752">
  <ele>-5.537</ele>
  <time>2026-09-02T22:09:13Z</time>
  <course>157.41</course>
  <speed>0.01</speed>
  <fix>3d</fix>
</trkpt>
<trkpt lat="33.8106149" lon="-118.3935752">
  <ele>-5.0</ele>
  <time>2026-09-02T22:09:13Z</time>
  <course>78.72</course>
  <speed>0.01</speed>
  <fix>3d</fix>
</trkpt>
<trkpt lat="33.8106149" lon="-118.3935752">
  <ele>-5.538</ele>
  <time>2026-09-02T22:09:13Z</time>
  <course>157.42</course>
  <speed>0.01</speed>
  <fix>3d</fix>
</trkpt>
<trkpt lat="33.8106149" lon="-118.3935751">
  <ele>-5.01</ele>
  <time>2026-09-02T22:09:13Z</time>
  <course>78.84</course>
  <speed>0.01</speed>
  <fix>3d</fix>
</trkpt>
<trkpt lat="33.8106149" lon="-118.3935751">
  <ele>-5.539</ele>
  <time>2026-09-02T22:09:13Z</time>
  <course>157.44</course>
  <speed>0.01</speed>
  <fix>3d</fix>
</trkpt>
<trkpt lat="33.8106149" lon="-118.3935751">
  <ele>-5.01</ele>
  <time>2026-09-02T22:09:13Z</time>
  <course>78.84</course>
  <speed>0.01</speed>
  <fix>3d</fix>
</trkpt>
<trkpt lat="33.8106149" lon="-118.3935751">
  <ele>-5.541</ele>
  <time>2026-09-02T22:09:13Z</time>
  <course>157.45</course>
  <speed>0.01</speed>
  <fix>3d</fix>
</trkpt>
<trkpt lat="33.8106149" lon="-118.3935751">
  <ele>-5.02</ele>
  <time>2026-09-02T22:09:13Z</time>
  <course>78.94</course>
  <speed>0.01</speed>
  <fix>3d</fix>
</trkpt>
<trkpt lat="33.8106149" lon="-118.3935751">
  <ele>-5.542</ele>
  <time>2026-09-02T22:09:13Z</time>
  <course>157.46</course>
  <speed>0.01</speed>
  <fix>3d</fix>
</trkpt>
<trkpt lat="33.8106149" lon="-118.3935751">
  <ele>-5.02</ele>
  <time>2026-09-02T22:09:13Z</time>
  <course>78.94</course>
  <speed>0.01</speed>
  <fix>3d</fix>
</trkpt>
<trkpt lat="33.8106149" lon="-118.3935751">
  <ele>-5.543</ele>
  <time>2026-09-02T22:09:13Z</time>
  <course>157.48</course>
  <speed>0.01</speed>
  <fix>3d</fix>
</trkpt>
<trkpt lat="33.8106149" lon="-118.3935751">
  <ele>-5.02</ele>
  <time>2026-09-02T22:09:13Z</time>
  <course>79.04</course>
  <speed>0.0</speed>
  <fix>3d</fix>
</trkpt>
<trkpt lat="33.8106149" lon="-118.3935751">
  <ele>-5.543</ele>
  <time>2026-09-02T22:09:13Z</time>
  <course>157.49</course>
  <speed>0.01</speed>
  <fix>3d</fix>
</trkpt>
<trkpt lat="33.8106149" lon="-118.3935751">
  <ele>-5.02</ele>
  <time>2026-09-02T22:09:13Z</time>
  <course>79.04</course>
  <speed>0.0</speed>
  <fix>3d</fix>
</trkpt>
<trkpt lat="33.8106149" lon="-118.3935751">
  <ele>-5.543</ele>
  <time>2026-09-02T22:09:13Z</time>
  <course>157.5</course>
  <speed>0.01</speed>
  <fix>3d</fix>
</trkpt>
<trkpt lat="33.8106149" lon="-118.3935751">
  <ele>-5.02</ele>
  <time>2026-09-02T22:09:13Z</time>
  <course>79.15</course>
  <speed>0.0</speed>
  <fix>3d</fix>
</trkpt>
<trkpt lat="33.8106149" lon="-118.3935751">
  <ele>-5.543</ele>
  <time>2026-09-02T22:09:13Z</time>
  <course>157.52</course>
  <speed>0.01</speed>
  <fix>3d</fix>
</trkpt>
<trkpt lat="33.8106149" lon="-118.3935751">
  <ele>-5.02</ele>
  <time>2026-09-02T22:09:13Z</time>
  <course>79.15</course>
  <speed>0.0</speed>
  <fix>3d</fix>
</trkpt>
<trkpt lat="33.8106149" lon="-118.3935751">
  <ele>-5.543</ele>
  <time>2026-09-02T22:09:13Z</time>
  <course>157.53</course>
  <speed>0.01</speed>
  <fix>3d</fix>
</trkpt>
<trkpt lat="33.8106149" lon="-118.3935751">
  <ele>-5.02</ele>
  <time>2026-09-02T22:09:13Z</time>
  <course>79.26</course>
  <speed>0.0</speed>
  <fix>3d</fix>
</trkpt>
<trkpt lat="33.8106149" lon="-118.393575">
  <ele>-5.542</ele>
  <time>2026-09-02T22:09:13Z</time>
  <course>157.54</course>
  <speed>0.01</speed>
  <fix>3d</fix>
</trkpt>
<trkpt lat="33.8106149" lon="-118.3935751">
  <ele>-5.02</ele>
  <time>2026-09-02T22:09:13Z</time>
  <course>79.26</course>
  <speed>0.0</speed>
  <fix>3d</fix>
</trkpt>
<trkpt lat="33.8106149" lon="-118.393575">
  <ele>-5.539</ele>
  <time>2026-09-02T22:09:13Z</time>
  <course>157.56</course>
  <speed>0.01</speed>
  <fix>3d</fix>
</trkpt>
<trkpt lat="33.8106149" lon="-118.393575">
  <ele>-5.01</ele>
  <time>2026-09-02T22:09:13Z</time>
  <course>79.38</course>
  <speed>0.0</speed>
  <fix>3d</fix>
</trkpt>
<trkpt lat="33.8106149" lon="-118.393575">
  <ele>-5.538</ele>
  <time>2026-09-02T22:09:13Z</time>
  <course>157.57</course>
  <speed>0.01</speed>
  <fix>3d</fix>
</trkpt>
<trkpt lat="33.8106149" lon="-118.393575">
  <ele>-5.01</ele>
  <time>2026-09-02T22:09:13Z</time>
  <course>79.38</course>
  <speed>0.0</speed>
  <fix>3d</fix>
</trkpt>
<trkpt lat="33.8106149" lon="-118.393575">
  <ele>-5.537</ele>
  <time>2026-09-02T22:09:13Z</time>
  <course>157.58</course>
  <speed>0.01</speed>
  <fix>3d</fix>
</trkpt>
<trkpt lat="33.8106149" lon="-118.393575">
  <ele>-5.01</ele>
  <time>2026-09-02T22:09:13Z</time>
  <course>79.48</course>
  <speed>0.0</speed>
  <fix>3d</fix>
</trkpt>
<trkpt lat="33.8106149" lon="-118.393575">
  <ele>-5.536</ele>
  <time>2026-09-02T22:09:13Z</time>
  <course>157.59</course>
  <speed>0.01</speed>
  <fix>3d</fix>
</trkpt>
<trkpt lat="33.8106149" lon="-118.393575">
  <ele>-5.01</ele>
  <time>2026-09-02T22:09:13Z</time>
  <course>79.48</course>
  <speed>0.0</speed>
  <fix>3d</fix>
</trkpt>
<trkpt lat="33.8106149" lon="-118.393575">
  <ele>-5.536</ele>
  <time>2026-09-02T22:09:13Z</time>
  <course>157.61</course>
  <speed>0.01</speed>
  <fix>3d</fix>
</trkpt>
<trkpt lat="33.8106149" lon="-118.393575">
  <ele>-5.01</ele>
  <time>2026-09-02T22:09:13Z</time>
  <course>79.57</course>
  <speed>0.0</speed>
  <fix>3d</fix>
</trkpt>
<trkpt lat="33.8106149" lon="-118.393575">
  <ele>-5.537</ele>
  <time>2026-09-02T22:09:13Z</time>
  <course>157.62</course>
  <speed>0.01</speed>
  <fix>3d</fix>
</trkpt>
<trkpt lat="33.8106149" lon="-118.393575">
  <ele>-5.01</ele>
  <time>2026-09-02T22:09:13Z</time>
  <course>79.57</course>
  <speed>0.0</speed>
  <fix>3d</fix>
</trkpt>
<trkpt lat="33.8106149" lon="-118.393575">
  <ele>-5.538</ele>
  <time>2026-09-02T22:09:13Z</time>
  <course>157.63</course>
  <speed>0.01</speed>
  <fix>3d</fix>
</trkpt>
<trkpt lat="33.8106149" lon="-118.393575">
  <ele>-5.01</ele>
  <time>2026-09-02T22:09:13Z</time>
  <course>79.66</course>
  <speed>0.0</speed>
  <fix>3d</fix>
</trkpt>
<trkpt lat="33.8106149" lon="-118.3935749">
  <ele>-5.54</ele>
  <time>2026-09-02T22:09:13Z</time>
  <course>157.64</course>
  <speed>0.01</speed>
  <fix>3d</fix>
</trkpt>
<trkpt lat="33.8106149" lon="-118.393575">
  <ele>-5.01</ele>
  <time>2026-09-02T22:09:13Z</time>
  <course>79.66</course>
  <speed>0.0</speed>
  <fix>3d</fix>
</trkpt>
<trkpt lat="33.8106149" lon="-118.3935749">
  <ele>-5.54</ele>
  <time>2026-09-02T22:09:13Z</time>
  <course>157.66</course>
  <speed>0.01</speed>
  <fix>3d</fix>
</trkpt>
<trkpt lat="33.8106149" lon="-118.393575">
  <ele>-5.01</ele>
  <time>2026-09-02T22:09:13Z</time>
  <course>79.76</course>
  <speed>0.0</speed>
  <fix>3d</fix>
</trkpt>
<trkpt lat="33.8106149" lon="-118.3935749">
  <ele>-5.54</ele>
  <time>2026-09-02T22:09:13Z</time>
  <course>157.67</course>
  <speed>0.01</speed>
  <fix>3d</fix>
</trkpt>
<trkpt lat="33.8106149" lon="-118.393575">
  <ele>-5.01</ele>
  <time>2026-09-02T22:09:13Z</time>
  <course>79.76</course>
  <speed>0.0</speed>
  <fix>3d</fix>
</trkpt>
<trkpt lat="33.8106149" lon="-118.3935749">
  <ele>-5.539</ele>
  <time>2026-09-02T22:09:13Z</time>
  <course>157.68</course>
  <speed>0.01</speed>
  <fix>3d</fix>
</trkpt>
<trkpt lat="33.8106149" lon="-118.3935749">
  <ele>-5.01</ele>
  <time>2026-09-02T22:09:13Z</time>
  <course>79.87</course>
  <speed>0.0</speed>
  <fix>3d</fix>
</trkpt>
<trkpt lat="33.8106149" lon="-118.3935749">
  <ele>-5.538</ele>
  <time>2026-09-02T22:09:14Z</time>
  <course>157.69</course>
  <speed>0.01</speed>
  <fix>3d</fix>
</trkpt>
<trkpt lat="33.8106149" lon="-118.3935749">
  <ele>-5.01</ele>
  <time>2026-09-02T22:09:14Z</time>
  <course>79.87</course>
  <speed>0.0</speed>
  <fix>3d</fix>
</trkpt>
<trkpt lat="33.8106149" lon="-118.3935749">
  <ele>-5.537</ele>
  <time>2026-09-02T22:09:14Z</time>
  <course>157.7</course>
  <speed>0.01</speed>
  <fix>3d</fix>
</trkpt>
<trkpt lat="33.8106149" lon="-118.3935749">
  <ele>-5.0</ele>
  <time>2026-09-02T22:09:14Z</time>
  <course>79.98</course>
  <speed>0.0</speed>
  <fix>3d</fix>
</trkpt>
<trkpt lat="33.8106149" lon="-118.3935749">
  <ele>-5.536</ele>
  <time>2026-09-02T22:09:14Z</time>
  <course>157.72</course>
  <speed>0.01</speed>
  <fix>3d</fix>
</trkpt>
<trkpt lat="33.8106149" lon="-118.3935749">
  <ele>-5.0</ele>
  <time>2026-09-02T22:09:14Z</time>
  <course>79.98</course>
  <speed>0.0</speed>
  <fix>3d</fix>
</trkpt>
<trkpt lat="33.8106149" lon="-118.3935749">
  <ele>-5.535</ele>
  <time>2026-09-02T22:09:14Z</time>
  <course>157.73</course>
  <speed>0.01</speed>
  <fix>3d</fix>
</trkpt>
<trkpt lat="33.8106149" lon="-118.3935749">
  <ele>-5.0</ele>
  <time>2026-09-02T22:09:14Z</time>
  <course>80.09</course>
  <speed>0.0</speed>
  <fix>3d</fix>
</trkpt>
<trkpt lat="33.8106149" lon="-118.3935748">
  <ele>-5.533</ele>
  <time>2026-09-02T22:09:14Z</time>
  <course>157.74</course>
  <speed>0.01</speed>
  <fix>3d</fix>
</trkpt>
<trkpt lat="33.8106149" lon="-118.3935749">
  <ele>-5.0</ele>
  <time>2026-09-02T22:09:14Z</time>
  <course>80.09</course>
  <speed>0.0</speed>
  <fix>3d</fix>
</trkpt>
<trkpt lat="33.8106149" lon="-118.3935748">
  <ele>-5.533</ele>
  <time>2026-09-02T22:09:14Z</time>
  <course>157.75</course>
  <speed>0.01</speed>
  <fix>3d</fix>
</trkpt>
<trkpt lat="33.8106149" lon="-118.3935749">
  <ele>-5.0</ele>
  <time>2026-09-02T22:09:14Z</time>
  <course>80.18</course>
  <speed>0.0</speed>
  <fix>3d</fix>
</trkpt>
<trkpt lat="33.8106149" lon="-118.3935748">
  <ele>-5.533</ele>
  <time>2026-09-02T22:09:14Z</time>
  <course>157.76</course>
  <speed>0.01</speed>
  <fix>3d</fix>
</trkpt>
<trkpt lat="33.8106149" lon="-118.3935749">
  <ele>-5.0</ele>
  <time>2026-09-02T22:09:14Z</time>
  <course>80.18</course>
  <speed>0.0</speed>
  <fix>3d</fix>
</trkpt>
<trkpt lat="33.8106149" lon="-118.3935748">
  <ele>-5.534</ele>
  <time>2026-09-02T22:09:14Z</time>
  <course>157.77</course>
  <speed>0.01</speed>
  <fix>3d</fix>
</trkpt>
<trkpt lat="33.8106149" lon="-118.3935749">
  <ele>-5.0</ele>
  <time>2026-09-02T22:09:14Z</time>
  <course>80.25</course>
  <speed>0.0</speed>
  <fix>3d</fix>
</trkpt>
<trkpt lat="33.8106149" lon="-118.3935748">
  <ele>-5.535</ele>
  <time>2026-09-02T22:09:14Z</time>
  <course>157.79</course>
  <speed>0.01</speed>
  <fix>3d</fix>
</trkpt>
<trkpt lat="33.8106149" lon="-118.3935749">
  <ele>-5.0</ele>
  <time>2026-09-02T22:09:14Z</time>
  <course>80.25</course>
  <speed>0.0</speed>
  <fix>3d</fix>
</trkpt>
<trkpt lat="33.8106149" lon="-118.3935748">
  <ele>-5.536</ele>
  <time>2026-09-02T22:09:14Z</time>
  <course>157.8</course>
  <speed>0.01</speed>
  <fix>3d</fix>
</trkpt>
<trkpt lat="33.8106149" lon="-118.3935748">
  <ele>-5.0</ele>
  <time>2026-09-02T22:09:14Z</time>
  <course>80.34</course>
  <speed>0.0</speed>
  <fix>3d</fix>
</trkpt>
<trkpt lat="33.8106149" lon="-118.3935748">
  <ele>-5.537</ele>
  <time>2026-09-02T22:09:14Z</time>
  <course>157.81</course>
  <speed>0.01</speed>
  <fix>3d</fix>
</trkpt>
<trkpt lat="33.8106149" lon="-118.3935748">
  <ele>-5.0</ele>
  <time>2026-09-02T22:09:14Z</time>
  <course>80.34</course>
  <speed>0.0</speed>
  <fix>3d</fix>
</trkpt>
<trkpt lat="33.8106149" lon="-118.3935748">
  <ele>-5.538</ele>
  <time>2026-09-02T22:09:14Z</time>
  <course>157.82</course>
  <speed>0.01</speed>
  <fix>3d</fix>
</trkpt>
<trkpt lat="33.8106149" lon="-118.3935748">
  <ele>-5.01</ele>
  <time>2026-09-02T22:09:14Z</time>
  <course>80.44</course>
  <speed>0.0</speed>
  <fix>3d</fix>
</trkpt>
<trkpt lat="33.8106149" lon="-118.3935748">
  <ele>-5.539</ele>
  <time>2026-09-02T22:09:14Z</time>
  <course>157.83</course>
  <speed>0.01</speed>
  <fix>3d</fix>
</trkpt>
<trkpt lat="33.8106149" lon="-118.3935748">
  <ele>-5.01</ele>
  <time>2026-09-02T22:09:14Z</time>
  <course>80.44</course>
  <speed>0.0</speed>
  <fix>3d</fix>
</trkpt>
<trkpt lat="33.8106149" lon="-118.3935747">
  <ele>-5.539</ele>
  <time>2026-09-02T22:09:14Z</time>
  <course>157.84</course>
  <speed>0.01</speed>
  <fix>3d</fix>
</trkpt>
<trkpt lat="33.810615" lon="-118.3935748">
  <ele>-5.01</ele>
  <time>2026-09-02T22:09:14Z</time>
  <course>80.55</course>
  <speed>0.0</speed>
  <fix>3d</fix>
</trkpt>
<trkpt lat="33.8106149" lon="-118.3935747">
  <ele>-5.539</ele>
  <time>2026-09-02T22:09:14Z</time>
  <course>157.85</course>
  <speed>0.02</speed>
  <fix>3d</fix>
</trkpt>
<trkpt lat="33.810615" lon="-118.3935748">
  <ele>-5.01</ele>
  <time>2026-09-02T22:09:14Z</time>
  <course>80.55</course>
  <speed>0.0</speed>
  <fix>3d</fix>
</trkpt>
<trkpt lat="33.8106149" lon="-118.3935747">
  <ele>-5.54</ele>
  <time>2026-09-02T22:09:14Z</time>
  <course>157.86</course>
  <speed>0.02</speed>
  <fix>3d</fix>
</trkpt>
<trkpt lat="33.810615" lon="-118.3935748">
  <ele>-5.01</ele>
  <time>2026-09-02T22:09:14Z</time>
  <course>80.66</course>
  <speed>0.0</speed>
  <fix>3d</fix>
</trkpt>
<trkpt lat="33.8106149" lon="-118.3935747">
  <ele>-5.541</ele>
  <time>2026-09-02T22:09:14Z</time>
  <course>157.87</course>
  <speed>0.02</speed>
  <fix>3d</fix>
</trkpt>
<trkpt lat="33.810615" lon="-118.3935748">
  <ele>-5.01</ele>
  <time>2026-09-02T22:09:14Z</time>
  <course>80.66</course>
  <speed>0.0</speed>
  <fix>3d</fix>
</trkpt>
<trkpt lat="33.8106149" lon="-118.3935747">
  <ele>-5.54</ele>
  <time>2026-09-02T22:09:14Z</time>
  <course>157.88</course>
  <speed>0.02</speed>
  <fix>3d</fix>
</trkpt>
<trkpt lat="33.810615" lon="-118.3935748">
  <ele>-5.0</ele>
  <time>2026-09-02T22:09:14Z</time>
  <course>80.76</course>
  <speed>0.0</speed>
  <fix>3d</fix>
</trkpt>
<trkpt lat="33.8106149" lon="-118.3935747">
  <ele>-5.539</ele>
  <time>2026-09-02T22:09:14Z</time>
  <course>157.89</course>
  <speed>0.02</speed>
  <fix>3d</fix>
</trkpt>
<trkpt lat="33.810615" lon="-118.3935748">
  <ele>-5.0</ele>
  <time>2026-09-02T22:09:14Z</time>
  <course>80.76</course>
  <speed>0.0</speed>
  <fix>3d</fix>
</trkpt>
<trkpt lat="33.8106149" lon="-118.3935747">
  <ele>-5.537</ele>
  <time>2026-09-02T22:09:14Z</time>
  <course>157.9</course>
  <speed>0.02</speed>
  <fix>3d</fix>
</trkpt>
<trkpt lat="33.810615" lon="-118.3935748">
  <ele>-5.0</ele>
  <time>2026-09-02T22:09:14Z</time>
  <course>80.85</course>
  <speed>0.0</speed>
  <fix>3d</fix>
</trkpt>
<trkpt lat="33.8106149" lon="-118.3935747">
  <ele>-5.54</ele>
  <time>2026-09-02T22:09:14Z</time>
  <course>157.92</course>
  <speed>0.02</speed>
  <fix>3d</fix>
</trkpt>
<trkpt lat="33.810615" lon="-118.3935748">
  <ele>-5.0</ele>
  <time>2026-09-02T22:09:14Z</time>
  <course>80.85</course>
  <speed>0.0</speed>
  <fix>3d</fix>
</trkpt>
<trkpt lat="33.8106149" lon="-118.3935747">
  <ele>-5.559</ele>
  <time>2026-09-02T22:09:14Z</time>
  <course>157.93</course>
  <speed>0.02</speed>
  <fix>3d</fix>
</trkpt>
<trkpt lat="33.810615" lon="-118.3935747">
  <ele>-5.0</ele>
  <time>2026-09-02T22:09:14Z</time>
  <course>80.91</course>
  <speed>0.0</speed>
  <fix>3d</fix>
</trkpt>
<trkpt lat="33.8106149" lon="-118.3935747">
  <ele>-5.598</ele>
  <time>2026-09-02T22:09:14Z</time>
  <course>157.94</course>
  <speed>0.02</speed>
  <fix>3d</fix>
</trkpt>
<trkpt lat="33.810615" lon="-118.3935747">
  <ele>-5.0</ele>
  <time>2026-09-02T22:09:14Z</time>
  <course>80.91</course>
  <speed>0.0</speed>
  <fix>3d</fix>
</trkpt>
<trkpt lat="33.8106149" lon="-118.3935747">
  <ele>-5.599</ele>
  <time>2026-09-02T22:09:14Z</time>
  <course>157.94</course>
  <speed>0.02</speed>
  <fix>3d</fix>
</trkpt>
<trkpt lat="33.8106149" lon="-118.3935746">
  <ele>-5.657</ele>
  <time>2026-09-02T22:09:14Z</time>
  <course>157.95</course>
  <speed>0.02</speed>
  <fix>3d</fix>
</trkpt>
<trkpt lat="33.810615" lon="-118.3935746">
  <ele>-5.03</ele>
  <time>2026-09-02T22:09:14Z</time>
  <course>81.09</course>
  <speed>0.0</speed>
  <fix>3d</fix>
</trkpt>
<trkpt lat="33.8106149" lon="-118.3935746">
  <ele>-5.661</ele>
  <time>2026-09-02T22:09:14Z</time>
  <course>157.95</course>
  <speed>0.02</speed>
  <fix>3d</fix>
</trkpt>
<trkpt lat="33.8106149" lon="-118.3935746">
  <ele>-5.736</ele>
  <time>2026-09-02T22:09:14Z</time>
  <course>157.96</course>
  <speed>0.02</speed>
  <fix>3d</fix>
</trkpt>
<trkpt lat="33.810615" lon="-118.3935746">
  <ele>-5.03</ele>
  <time>2026-09-02T22:09:14Z</time>
  <course>81.09</course>
  <speed>0.0</speed>
  <fix>3d</fix>
</trkpt>
<trkpt lat="33.8106149" lon="-118.3935746">
  <ele>-5.763</ele>
  <time>2026-09-02T22:09:14Z</time>
  <course>157.96</course>
  <speed>0.02</speed>
  <fix>3d</fix>
</trkpt>
<trkpt lat="33.8106149" lon="-118.3935746">
  <ele>-5.834</ele>
  <time>2026-09-02T22:09:14Z</time>
  <course>157.97</course>
  <speed>0.02</speed>
  <fix>3d</fix>
</trkpt>
<trkpt lat="33.810615" lon="-118.3935746">
  <ele>-5.14</ele>
  <time>2026-09-02T22:09:14Z</time>
  <course>81.43</course>
  <speed>0.0</speed>
  <fix>3d</fix>
</trkpt>
<trkpt lat="33.8106149" lon="-118.3935746">
  <ele>-5.868</ele>
  <time>2026-09-02T22:09:14Z</time>
  <course>157.97</course>
  <speed>0.02</speed>
  <fix>3d</fix>
</trkpt>
<trkpt lat="33.8106149" lon="-118.3935746">
  <ele>-5.952</ele>
  <time>2026-09-02T22:09:14Z</time>
  <course>157.98</course>
  <speed>0.02</speed>
  <fix>3d</fix>
</trkpt>
<trkpt lat="33.810615" lon="-118.3935746">
  <ele>-5.14</ele>
  <time>2026-09-02T22:09:14Z</time>
  <course>81.43</course>
  <speed>0.0</speed>
  <fix>3d</fix>
</trkpt>
<trkpt lat="33.8106149" lon="-118.3935746">
  <ele>-5.989</ele>
  <time>2026-09-02T22:09:14Z</time>
  <course>157.98</course>
  <speed>0.02</speed>
  <fix>3d</fix>
</trkpt>
<trkpt lat="33.8106149" lon="-118.3935746">
  <ele>-6.079</ele>
  <time>2026-09-02T22:09:14Z</time>
  <course>157.99</course>
  <speed>0.02</speed>
  <fix>3d</fix>
</trkpt>
<trkpt lat="33.810615" lon="-118.3935746">
  <ele>-5.32</ele>
  <time>2026-09-02T22:09:14Z</time>
  <course>81.68</course>
  <speed>0.0</speed>
  <fix>3d</fix>
</trkpt>
<trkpt lat="33.8106149" lon="-118.3935746">
  <ele>-6.108</ele>
  <time>2026-09-02T22:09:14Z</time>
  <course>157.99</course>
  <speed>0.02</speed>
  <fix>3d</fix>
</trkpt>
<trkpt lat="33.8106149" lon="-118.3935746">
  <ele>-6.21</ele>
  <time>2026-09-02T22:09:14Z</time>
  <course>158.0</course>
  <speed>0.02</speed>
  <fix>3d</fix>
</trkpt>
<trkpt lat="33.810615" lon="-118.3935746">
  <ele>-5.32</ele>
  <time>2026-09-02T22:09:14Z</time>
  <course>81.68</course>
  <speed>0.0</speed>
  <fix>3d</fix>
</trkpt>
<trkpt lat="33.8106149" lon="-118.3935746">
  <ele>-6.249</ele>
  <time>2026-09-02T22:09:14Z</time>
  <course>158.0</course>
  <speed>0.02</speed>
  <fix>3d</fix>
</trkpt>
<trkpt lat="33.8106149" lon="-118.3935745">
  <ele>-6.341</ele>
  <time>2026-09-02T22:09:14Z</time>
  <course>158.01</course>
  <speed>0.02</speed>
  <fix>3d</fix>
</trkpt>
<trkpt lat="33.810615" lon="-118.3935746">
  <ele>-5.55</ele>
  <time>2026-09-02T22:09:14Z</time>
  <course>81.76</course>
  <speed>0.0</speed>
  <fix>3d</fix>
</trkpt>
<trkpt lat="33.8106149" lon="-118.3935745">
  <ele>-6.381</ele>
  <time>2026-09-02T22:09:14Z</time>
  <course>158.01</course>
  <speed>0.02</speed>
  <fix>3d</fix>
</trkpt>
<trkpt lat="33.8106149" lon="-118.3935745">
  <ele>-6.473</ele>
  <time>2026-09-02T22:09:14Z</time>
  <course>158.02</course>
  <speed>0.02</speed>
  <fix>3d</fix>
</trkpt>
<trkpt lat="33.810615" lon="-118.3935746">
  <ele>-5.55</ele>
  <time>2026-09-02T22:09:14Z</time>
  <course>81.76</course>
  <speed>0.0</speed>
  <fix>3d</fix>
</trkpt>
<trkpt lat="33.8106149" lon="-118.3935745">
  <ele>-6.506</ele>
  <time>2026-09-02T22:09:14Z</time>
  <course>158.02</course>
  <speed>0.02</speed>
  <fix>3d</fix>
</trkpt>
<trkpt lat="33.8106149" lon="-118.3935745">
  <ele>-6.605</ele>
  <time>2026-09-02T22:09:14Z</time>
  <course>158.03</course>
  <speed>0.02</speed>
  <fix>3d</fix>
</trkpt>
<trkpt lat="33.810615" lon="-118.3935746">
  <ele>-5.79</ele>
  <time>2026-09-02T22:09:14Z</time>
  <course>81.82</course>
  <speed>0.0</speed>
  <fix>3d</fix>
</trkpt>
<trkpt lat="33.8106149" lon="-118.3935745">
  <ele>-6.645</ele>
  <time>2026-09-02T22:09:14Z</time>
  <course>158.03</course>
  <speed>0.02</speed>
  <fix>3d</fix>
</trkpt>
<trkpt lat="33.8106149" lon="-118.3935745">
  <ele>-6.738</ele>
  <time>2026-09-02T22:09:14Z</time>
  <course>158.04</course>
  <speed>0.02</speed>
  <fix>3d</fix>
</trkpt>
<trkpt lat="33.810615" lon="-118.3935746">
  <ele>-5.79</ele>
  <time>2026-09-02T22:09:14Z</time>
  <course>81.82</course>
  <speed>0.0</speed>
  <fix>3d</fix>
</trkpt>
<trkpt lat="33.8106149" lon="-118.3935745">
  <ele>-6.781</ele>
  <time>2026-09-02T22:09:14Z</time>
  <course>158.04</course>
  <speed>0.02</speed>
  <fix>3d</fix>
</trkpt>
<trkpt lat="33.8106149" lon="-118.3935745">
  <ele>-6.871</ele>
  <time>2026-09-02T22:09:14Z</time>
  <course>158.05</course>
  <speed>0.02</speed>
  <fix>3d</fix>
</trkpt>
<trkpt lat="33.810615" lon="-118.3935746">
  <ele>-6.04</ele>
  <time>2026-09-02T22:09:14Z</time>
  <course>81.88</course>
  <speed>0.0</speed>
  <fix>3d</fix>
</trkpt>
<trkpt lat="33.8106149" lon="-118.3935745">
  <ele>-6.908</ele>
  <time>2026-09-02T22:09:14Z</time>
  <course>158.05</course>
  <speed>0.02</speed>
  <fix>3d</fix>
</trkpt>
<trkpt lat="33.8106149" lon="-118.3935745">
  <ele>-7.003</ele>
  <time>2026-09-02T22:09:14Z</time>
  <course>158.06</course>
  <speed>0.02</speed>
  <fix>3d</fix>
</trkpt>
<trkpt lat="33.810615" lon="-118.3935746">
  <ele>-6.04</ele>
  <time>2026-09-02T22:09:14Z</time>
  <course>81.88</course>
  <speed>0.0</speed>
  <fix>3d</fix>
</trkpt>
<trkpt lat="33.8106149" lon="-118.3935745">
  <ele>-7.007</ele>
  <time>2026-09-02T22:09:14Z</time>
  <course>158.06</course>
  <speed>0.02</speed>
  <fix>3d</fix>
</trkpt>
<trkpt lat="33.8106149" lon="-118.3935745">
  <ele>-7.135</ele>
  <time>2026-09-02T22:09:14Z</time>
  <course>158.07</course>
  <speed>0.02</speed>
  <fix>3d</fix>
</trkpt>
<trkpt lat="33.810615" lon="-118.3935746">
  <ele>-6.28</ele>
  <time>2026-09-02T22:09:14Z</time>
  <course>81.94</course>
  <speed>0.0</speed>
  <fix>3d</fix>
</trkpt>
<trkpt lat="33.8106149" lon="-118.3935745">
  <ele>-7.174</ele>
  <time>2026-09-02T22:09:14Z</time>
  <course>158.07</course>
  <speed>0.02</speed>
  <fix>3d</fix>
</trkpt>
<trkpt lat="33.8106149" lon="-118.3935745">
  <ele>-7.265</ele>
  <time>2026-09-02T22:09:14Z</time>
  <course>158.08</course>
  <speed>0.02</speed>
  <fix>3d</fix>
</trkpt>
<trkpt lat="33.810615" lon="-118.3935746">
  <ele>-6.28</ele>
  <time>2026-09-02T22:09:14Z</time>
  <course>81.94</course>
  <speed>0.0</speed>
  <fix>3d</fix>
</trkpt>
<trkpt lat="33.8106149" lon="-118.3935745">
  <ele>-7.297</ele>
  <time>2026-09-02T22:09:14Z</time>
  <course>158.08</course>
  <speed>0.02</speed>
  <fix>3d</fix>
</trkpt>
<trkpt lat="33.8106149" lon="-118.3935744">
  <ele>-7.394</ele>
  <time>2026-09-02T22:09:14Z</time>
  <course>158.09</course>
  <speed>0.02</speed>
  <fix>3d</fix>
</trkpt>
<trkpt lat="33.810615" lon="-118.3935746">
  <ele>-6.52</ele>
  <time>2026-09-02T22:09:14Z</time>
  <course>82.02</course>
  <speed>0.0</speed>
  <fix>3d</fix>
</trkpt>
<trkpt lat="33.8106149" lon="-118.3935744">
  <ele>-7.397</ele>
  <time>2026-09-02T22:09:14Z</time>
  <course>158.09</course>
  <speed>0.02</speed>
  <fix>3d</fix>
</trkpt>
<trkpt lat="33.8106149" lon="-118.3935744">
  <ele>-7.522</ele>
  <time>2026-09-02T22:09:14Z</time>
  <course>158.1</course>
  <speed>0.02</speed>
  <fix>3d</fix>
</trkpt>
<trkpt lat="33.810615" lon="-118.3935746">
  <ele>-6.52</ele>
  <time>2026-09-02T22:09:14Z</time>
  <course>82.02</course>
  <speed>0.0</speed>
  <fix>3d</fix>
</trkpt>
<trkpt lat="33.8106149" lon="-118.3935744">
  <ele>-7.557</ele>
  <time>2026-09-02T22:09:14Z</time>
  <course>158.1</course>
  <speed>0.02</speed>
  <fix>3d</fix>
</trkpt>
<trkpt lat="33.8106149" lon="-118.3935744">
  <ele>-7.65</ele>
  <time>2026-09-02T22:09:14Z</time>
  <course>158.11</course>
  <speed>0.02</speed>
  <fix>3d</fix>
</trkpt>
<trkpt lat="33.810615" lon="-118.3935746">
  <ele>-6.77</ele>
  <time>2026-09-02T22:09:14Z</time>
  <course>82.11</course>
  <speed>0.0</speed>
  <fix>3d</fix>
</trkpt>
<trkpt lat="33.8106149" lon="-118.3935744">
  <ele>-7.682</ele>
  <time>2026-09-02T22:09:14Z</time>
  <course>158.11</course>
  <speed>0.02</speed>
  <fix>3d</fix>
</trkpt>
<trkpt lat="33.8106149" lon="-118.3935744">
  <ele>-7.777</ele>
  <time>2026-09-02T22:09:14Z</time>
  <course>158.12</course>
  <speed>0.02</speed>
  <fix>3d</fix>
</trkpt>
<trkpt lat="33.810615" lon="-118.3935746">
  <ele>-6.77</ele>
  <time>2026-09-02T22:09:14Z</time>
  <course>82.11</course>
  <speed>0.0</speed>
  <fix>3d</fix>
</trkpt>
<trkpt lat="33.8106149" lon="-118.3935744">
  <ele>-7.815</ele>
  <time>2026-09-02T22:09:14Z</time>
  <course>158.12</course>
  <speed>0.02</speed>
  <fix>3d</fix>
</trkpt>
<trkpt lat="33.8106149" lon="-118.3935744">
  <ele>-7.903</ele>
  <time>2026-09-02T22:09:14Z</time>
  <course>158.13</course>
  <speed>0.02</speed>
  <fix>3d</fix>
</trkpt>
<trkpt lat="33.810615" lon="-118.3935746">
  <ele>-7.01</ele>
  <time>2026-09-02T22:09:14Z</time>
  <course>82.2</course>
  <speed>0.0</speed>
  <fix>3d</fix>
</trkpt>
<trkpt lat="33.8106149" lon="-118.3935744">
  <ele>-7.941</ele>
  <time>2026-09-02T22:09:14Z</time>
  <course>158.13</course>
  <speed>0.02</speed>
  <fix>3d</fix>
</trkpt>
<trkpt lat="33.8106149" lon="-118.3935744">
  <ele>-8.029</ele>
  <time>2026-09-02T22:09:14Z</time>
  <course>158.13</course>
  <speed>0.02</speed>
  <fix>3d</fix>
</trkpt>
<trkpt lat="33.810615" lon="-118.3935746">
  <ele>-7.01</ele>
  <time>2026-09-02T22:09:14Z</time>
  <course>82.2</course>
  <speed>0.0</speed>
  <fix>3d</fix>
</trkpt>
<trkpt lat="33.8106149" lon="-118.3935744">
  <ele>-8.061</ele>
  <time>2026-09-02T22:09:14Z</time>
  <course>158.14</course>
  <speed>0.02</speed>
  <fix>3d</fix>
</trkpt>
<trkpt lat="33.8106149" lon="-118.3935744">
  <ele>-8.155</ele>
  <time>2026-09-02T22:09:14Z</time>
  <course>158.14</course>
  <speed>0.02</speed>
  <fix>3d</fix>
</trkpt>
<trkpt lat="33.810615" lon="-118.3935745">
  <ele>-7.25</ele>
  <time>2026-09-02T22:09:14Z</time>
  <course>82.28</course>
  <speed>0.0</speed>
  <fix>3d</fix>
</trkpt>
<trkpt lat="33.8106149" lon="-118.3935744">
  <ele>-8.193</ele>
  <time>2026-09-02T22:09:14Z</time>
  <course>158.15</course>
  <speed>0.02</speed>
  <fix>3d</fix>
</trkpt>
<trkpt lat="33.8106149" lon="-118.3935744">
  <ele>-8.281</ele>
  <time>2026-09-02T22:09:14Z</time>
  <course>158.15</course>
  <speed>0.02</speed>
  <fix>3d</fix>
</trkpt>
<trkpt lat="33.810615" lon="-118.3935745">
  <ele>-7.25</ele>
  <time>2026-09-02T22:09:14Z</time>
  <course>82.28</course>
  <speed>0.0</speed>
  <fix>3d</fix>
</trkpt>
<trkpt lat="33.8106149" lon="-118.3935744">
  <ele>-8.307</ele>
  <time>2026-09-02T22:09:14Z</time>
  <course>158.16</course>
  <speed>0.02</speed>
  <fix>3d</fix>
</trkpt>
<trkpt lat="33.8106149" lon="-118.3935744">
  <ele>-8.408</ele>
  <time>2026-09-02T22:09:14Z</time>
  <course>158.16</course>
  <speed>0.02</speed>
  <fix>3d</fix>
</trkpt>
<trkpt lat="33.810615" lon="-118.3935745">
  <ele>-7.5</ele>
  <time>2026-09-02T22:09:14Z</time>
  <course>82.34</course>
  <speed>0.0</speed>
  <fix>3d</fix>
</trkpt>
<trkpt lat="33.8106149" lon="-118.3935744">
  <ele>-8.41</ele>
  <time>2026-09-02T22:09:14Z</time>
  <course>158.16</course>
  <speed>0.02</speed>
  <fix>3d</fix>
</trkpt>
<trkpt lat="33.8106149" lon="-118.3935744">
  <ele>-8.534</ele>
  <time>2026-09-02T22:09:14Z</time>
  <course>158.17</course>
  <speed>0.02</speed>
  <fix>3d</fix>
</trkpt>
<trkpt lat="33.810615" lon="-118.3935745">
  <ele>-7.5</ele>
  <time>2026-09-02T22:09:14Z</time>
  <course>82.34</course>
  <speed>0.0</speed>
  <fix>3d</fix>
</trkpt>
<trkpt lat="33.8106149" lon="-118.3935744">
  <ele>-8.566</ele>
  <time>2026-09-02T22:09:14Z</time>
  <course>158.17</course>
  <speed>0.02</speed>
  <fix>3d</fix>
</trkpt>
<trkpt lat="33.8106149" lon="-118.3935744">
  <ele>-8.66</ele>
  <time>2026-09-02T22:09:14Z</time>
  <course>158.18</course>
  <speed>0.02</speed>
  <fix>3d</fix>
</trkpt>
<trkpt lat="33.810615" lon="-118.3935745">
  <ele>-7.74</ele>
  <time>2026-09-02T22:09:14Z</time>
  <course>82.39</course>
  <speed>0.0</speed>
  <fix>3d</fix>
</trkpt>
<trkpt lat="33.8106149" lon="-118.3935744">
  <ele>-8.697</ele>
  <time>2026-09-02T22:09:14Z</time>
  <course>158.18</course>
  <speed>0.02</speed>
  <fix>3d</fix>
</trkpt>
<trkpt lat="33.8106149" lon="-118.3935744">
  <ele>-8.784</ele>
  <time>2026-09-02T22:09:14Z</time>
  <course>158.19</course>
  <speed>0.02</speed>
  <fix>3d</fix>
</trkpt>
<trkpt lat="33.810615" lon="-118.3935745">
  <ele>-7.74</ele>
  <time>2026-09-02T22:09:14Z</time>
  <course>82.39</course>
  <speed>0.0</speed>
  <fix>3d</fix>
</trkpt>
<trkpt lat="33.8106149" lon="-118.3935744">
  <ele>-8.821</ele>
  <time>2026-09-02T22:09:14Z</time>
  <course>158.19</course>
  <speed>0.02</speed>
  <fix>3d</fix>
</trkpt>
<trkpt lat="33.8106149" lon="-118.3935744">
  <ele>-8.908</ele>
  <time>2026-09-02T22:09:14Z</time>
  <course>158.2</course>
  <speed>0.02</speed>
  <fix>3d</fix>
</trkpt>
<trkpt lat="33.810615" lon="-118.3935745">
  <ele>-7.98</ele>
  <time>2026-09-02T22:09:14Z</time>
  <course>82.46</course>
  <speed>0.0</speed>
  <fix>3d</fix>
</trkpt>
<trkpt lat="33.8106149" lon="-118.3935744">
  <ele>-8.936</ele>
  <time>2026-09-02T22:09:14Z</time>
  <course>158.2</course>
  <speed>0.02</speed>
  <fix>3d</fix>
</trkpt>
<trkpt lat="33.8106149" lon="-118.3935744">
  <ele>-9.031</ele>
  <time>2026-09-02T22:09:14Z</time>
  <course>158.21</course>
  <speed>0.02</speed>
  <fix>3d</fix>
</trkpt>
<trkpt lat="33.810615" lon="-118.3935745">
  <ele>-7.98</ele>
  <time>2026-09-02T22:09:14Z</time>
  <course>82.46</course>
  <speed>0.0</speed>
  <fix>3d</fix>
</trkpt>
<trkpt lat="33.8106149" lon="-118.3935743">
  <ele>-9.069</ele>
  <time>2026-09-02T22:09:14Z</time>
  <course>158.21</course>
  <speed>0.02</speed>
  <fix>3d</fix>
</trkpt>
<trkpt lat="33.8106149" lon="-118.3935743">
  <ele>-9.154</ele>
  <time>2026-09-02T22:09:14Z</time>
  <course>158.22</course>
  <speed>0.02</speed>
  <fix>3d</fix>
</trkpt>
<trkpt lat="33.810615" lon="-118.3935745">
  <ele>-8.23</ele>
  <time>2026-09-02T22:09:14Z</time>
  <course>82.54</course>
  <speed>0.0</speed>
  <fix>3d</fix>
</trkpt>
<trkpt lat="33.8106149" lon="-118.3935743">
  <ele>-9.184</ele>
  <time>2026-09-02T22:09:14Z</time>
  <course>158.22</course>
  <speed>0.02</speed>
  <fix>3d</fix>
</trkpt>
<trkpt lat="33.8106149" lon="-118.3935743">
  <ele>-9.277</ele>
  <time>2026-09-02T22:09:14Z</time>
  <course>158.23</course>
  <speed>0.02</speed>
  <fix>3d</fix>
</trkpt>
<trkpt lat="33.810615" lon="-118.3935745">
  <ele>-8.23</ele>
  <time>2026-09-02T22:09:14Z</time>
  <course>82.54</course>
  <speed>0.0</speed>
  <fix>3d</fix>
</trkpt>
<trkpt lat="33.8106149" lon="-118.3935743">
  <ele>-9.317</ele>
  <time>2026-09-02T22:09:14Z</time>
  <course>158.23</course>
  <speed>0.02</speed>
  <fix>3d</fix>
</trkpt>
<trkpt lat="33.8106149" lon="-118.3935743">
  <ele>-9.399</ele>
  <time>2026-09-02T22:09:14Z</time>
  <course>158.23</course>
  <speed>0.02</speed>
  <fix>3d</fix>
</trkpt>
<trkpt lat="33.810615" lon="-118.3935745">
  <ele>-8.47</ele>
  <time>2026-09-02T22:09:14Z</time>
  <course>82.63</course>
  <speed>0.0</speed>
  <fix>3d</fix>
</trkpt>
<trkpt lat="33.8106149" lon="-118.3935743">
  <ele>-9.433</ele>
  <time>2026-09-02T22:09:14Z</time>
  <course>158.24</course>
  <speed>0.02</speed>
  <fix>3d</fix>
</trkpt>
<trkpt lat="33.8106149" lon="-118.3935743">
  <ele>-9.523</ele>
  <time>2026-09-02T22:09:14Z</time>
  <course>158.24</course>
  <speed>0.02</speed>
  <fix>3d</fix>
</trkpt>
<trkpt lat="33.810615" lon="-118.3935745">
  <ele>-8.47</ele>
  <time>2026-09-02T22:09:14Z</time>
  <course>82.63</course>
  <speed>0.0</speed>
  <fix>3d</fix>
</trkpt>
<trkpt lat="33.8106149" lon="-118.3935743">
  <ele>-9.56</ele>
  <time>2026-09-02T22:09:14Z</time>
  <course>158.25</course>
  <speed>0.02</speed>
  <fix>3d</fix>
</trkpt>
<trkpt lat="33.8106149" lon="-118.3935743">
  <ele>-9.646</ele>
  <time>2026-09-02T22:09:14Z</time>
  <course>158.25</course>
  <speed>0.02</speed>
  <fix>3d</fix>
</trkpt>
<trkpt lat="33.810615" lon="-118.3935744">
  <ele>-8.71</ele>
  <time>2026-09-02T22:09:14Z</time>
  <course>82.71</course>
  <speed>0.0</speed>
  <fix>3d</fix>
</trkpt>
<trkpt lat="33.8106149" lon="-118.3935743">
  <ele>-9.683</ele>
  <time>2026-09-02T22:09:14Z</time>
  <course>158.26</course>
  <speed>0.02</speed>
  <fix>3d</fix>
</trkpt>
<trkpt lat="33.8106149" lon="-118.3935743">
  <ele>-9.77</ele>
  <time>2026-09-02T22:09:14Z</time>
  <course>158.26</course>
  <speed>0.02</speed>
  <fix>3d</fix>
</trkpt>
<trkpt lat="33.810615" lon="-118.3935744">
  <ele>-8.71</ele>
  <time>2026-09-02T22:09:14Z</time>
  <course>82.71</course>
  <speed>0.0</speed>
  <fix>3d</fix>
</trkpt>
<trkpt lat="33.8106149" lon="-118.3935743">
  <ele>-9.773</ele>
  <time>2026-09-02T22:09:14Z</time>
  <course>158.26</course>
  <speed>0.02</speed>
  <fix>3d</fix>
</trkpt>
<trkpt lat="33.8106149" lon="-118.3935743">
  <ele>-9.893</ele>
  <time>2026-09-02T22:09:14Z</time>
  <course>158.27</course>
  <speed>0.02</speed>
  <fix>3d</fix>
</trkpt>
<trkpt lat="33.810615" lon="-118.3935744">
  <ele>-8.96</ele>
  <time>2026-09-02T22:09:14Z</time>
  <course>82.78</course>
  <speed>0.0</speed>
  <fix>3d</fix>
</trkpt>
<trkpt lat="33.8106149" lon="-118.3935743">
  <ele>-9.93</ele>
  <time>2026-09-02T22:09:14Z</time>
  <course>158.27</course>
  <speed>0.02</speed>
  <fix>3d</fix>
</trkpt>
<trkpt lat="33.8106149" lon="-118.3935743">
  <ele>-10.017</ele>
  <time>2026-09-02T22:09:14Z</time>
  <course>158.28</course>
  <speed>0.02</speed>
  <fix>3d</fix>
</trkpt>
<trkpt lat="33.810615" lon="-118.3935744">
  <ele>-8.96</ele>
  <time>2026-09-02T22:09:14Z</time>
  <course>82.78</course>
  <speed>0.0</speed>
  <fix>3d</fix>
</trkpt>
<trkpt lat="33.8106149" lon="-118.3935743">
  <ele>-10.054</ele>
  <time>2026-09-02T22:09:14Z</time>
  <course>158.28</course>
  <speed>0.02</speed>
  <fix>3d</fix>
</trkpt>
<trkpt lat="33.8106149" lon="-118.3935743">
  <ele>-10.141</ele>
  <time>2026-09-02T22:09:14Z</time>
  <course>158.29</course>
  <speed>0.02</speed>
  <fix>3d</fix>
</trkpt>
<trkpt lat="33.810615" lon="-118.3935744">
  <ele>-9.2</ele>
  <time>2026-09-02T22:09:14Z</time>
  <course>82.83</course>
  <speed>0.0</speed>
  <fix>3d</fix>
</trkpt>
<trkpt lat="33.8106149" lon="-118.3935743">
  <ele>-10.178</ele>
  <time>2026-09-02T22:09:14Z</time>
  <course>158.29</course>
  <speed>0.02</speed>
  <fix>3d</fix>
</trkpt>
<trkpt lat="33.8106149" lon="-118.3935743">
  <ele>-10.264</ele>
  <time>2026-09-02T22:09:14Z</time>
  <course>158.3</course>
  <speed>0.02</speed>
  <fix>3d</fix>
</trkpt>
<trkpt lat="33.810615" lon="-118.3935744">
  <ele>-9.2</ele>
  <time>2026-09-02T22:09:14Z</time>
  <course>82.83</course>
  <speed>0.0</speed>
  <fix>3d</fix>
</trkpt>
<trkpt lat="33.8106149" lon="-118.3935743">
  <ele>-10.289</ele>
  <time>2026-09-02T22:09:14Z</time>
  <course>158.3</course>
  <speed>0.02</speed>
  <fix>3d</fix>
</trkpt>
<trkpt lat="33.8106149" lon="-118.3935743">
  <ele>-10.388</ele>
  <time>2026-09-02T22:09:14Z</time>
  <course>158.31</course>
  <speed>0.02</speed>
  <fix>3d</fix>
</trkpt>
<trkpt lat="33.810615" lon="-118.3935744">
  <ele>-9.44</ele>
  <time>2026-09-02T22:09:14Z</time>
  <course>82.88</course>
  <speed>0.0</speed>
  <fix>3d</fix>
</trkpt>
<trkpt lat="33.8106149" lon="-118.3935743">
  <ele>-10.429</ele>
  <time>2026-09-02T22:09:14Z</time>
  <course>158.31</course>
  <speed>0.02</speed>
  <fix>3d</fix>
</trkpt>
<trkpt lat="33.8106149" lon="-118.3935743">
  <ele>-10.512</ele>
  <time>2026-09-02T22:09:14Z</time>
  <course>158.31</course>
  <speed>0.02</speed>
  <fix>3d</fix>
</trkpt>
<trkpt lat="33.810615" lon="-118.3935744">
  <ele>-9.44</ele>
  <time>2026-09-02T22:09:14Z</time>
  <course>82.88</course>
  <speed>0.0</speed>
  <fix>3d</fix>
</trkpt>
<trkpt lat="33.8106149" lon="-118.3935743">
  <ele>-10.546</ele>
  <time>2026-09-02T22:09:14Z</time>
  <course>158.32</course>
  <speed>0.02</speed>
  <fix>3d</fix>
</trkpt>
<trkpt lat="33.8106149" lon="-118.3935743">
  <ele>-10.637</ele>
  <time>2026-09-02T22:09:14Z</time>
  <course>158.32</course>
  <speed>0.02</speed>
  <fix>3d</fix>
</trkpt>
<trkpt lat="33.810615" lon="-118.3935744">
  <ele>-9.69</ele>
  <time>2026-09-02T22:09:14Z</time>
  <course>82.95</course>
  <speed>0.0</speed>
  <fix>3d</fix>
</trkpt>
<trkpt lat="33.8106149" lon="-118.3935743">
  <ele>-10.668</ele>
  <time>2026-09-02T22:09:14Z</time>
  <course>158.32</course>
  <speed>0.02</speed>
  <fix>3d</fix>
</trkpt>
<trkpt lat="33.8106149" lon="-118.3935742">
  <ele>-10.762</ele>
  <time>2026-09-02T22:09:14Z</time>
  <course>158.33</course>
  <speed>0.02</speed>
  <fix>3d</fix>
</trkpt>
<trkpt lat="33.810615" lon="-118.3935744">
  <ele>-9.69</ele>
  <time>2026-09-02T22:09:14Z</time>
  <course>82.95</course>
  <speed>0.0</speed>
  <fix>3d</fix>
</trkpt>
<trkpt lat="33.8106149" lon="-118.3935742">
  <ele>-10.799</ele>
  <time>2026-09-02T22:09:14Z</time>
  <course>158.33</course>
  <speed>0.02</speed>
  <fix>3d</fix>
</trkpt>
<trkpt lat="33.8106149" lon="-118.3935742">
  <ele>-10.886</ele>
  <time>2026-09-02T22:09:14Z</time>
  <course>158.34</course>
  <speed>0.02</speed>
  <fix>3d</fix>
</trkpt>
<trkpt lat="33.810615" lon="-118.3935744">
  <ele>-9.93</ele>
  <time>2026-09-02T22:09:14Z</time>
  <course>83.04</course>
  <speed>0.0</speed>
  <fix>3d</fix>
</trkpt>
<trkpt lat="33.8106149" lon="-118.3935742">
  <ele>-10.923</ele>
  <time>2026-09-02T22:09:14Z</time>
  <course>158.34</course>
  <speed>0.02</speed>
  <fix>3d</fix>
</trkpt>
<trkpt lat="33.8106149" lon="-118.3935742">
  <ele>-11.01</ele>
  <time>2026-09-02T22:09:14Z</time>
  <course>158.35</course>
  <speed>0.02</speed>
  <fix>3d</fix>
</trkpt>
<trkpt lat="33.810615" lon="-118.3935744">
  <ele>-9.93</ele>
  <time>2026-09-02T22:09:14Z</time>
  <course>83.04</course>
  <speed>0.0</speed>
  <fix>3d</fix>
</trkpt>
<trkpt lat="33.8106149" lon="-118.3935742">
  <ele>-11.043</ele>
  <time>2026-09-02T22:09:14Z</time>
  <course>158.35</course>
  <speed>0.02</speed>
  <fix>3d</fix>
</trkpt>
<trkpt lat="33.8106149" lon="-118.3935742">
  <ele>-11.134</ele>
  <time>2026-09-02T22:09:14Z</time>
  <course>158.36</course>
  <speed>0.02</speed>
  <fix>3d</fix>
</trkpt>
<trkpt lat="33.810615" lon="-118.3935744">
  <ele>-10.17</ele>
  <time>2026-09-02T22:09:14Z</time>
  <course>83.12</course>
  <speed>0.0</speed>
  <fix>3d</fix>
</trkpt>
<trkpt lat="33.8106149" lon="-118.3935742">
  <ele>-11.137</ele>
  <time>2026-09-02T22:09:14Z</time>
  <course>158.36</course>
  <speed>0.02</speed>
  <fix>3d</fix>
</trkpt>
<trkpt lat="33.8106149" lon="-118.3935742">
  <ele>-11.258</ele>
  <time>2026-09-02T22:09:14Z</time>
  <course>158.36</course>
  <speed>0.02</speed>
  <fix>3d</fix>
</trkpt>
<trkpt lat="33.810615" lon="-118.3935744">
  <ele>-10.17</ele>
  <time>2026-09-02T22:09:14Z</time>
  <course>83.12</course>
  <speed>0.0</speed>
  <fix>3d</fix>
</trkpt>
<trkpt lat="33.8106149" lon="-118.3935742">
  <ele>-11.295</ele>
  <time>2026-09-02T22:09:14Z</time>
  <course>158.37</course>
  <speed>0.02</speed>
  <fix>3d</fix>
</trkpt>
<trkpt lat="33.8106149" lon="-118.3935742">
  <ele>-11.383</ele>
  <time>2026-09-02T22:09:14Z</time>
  <course>158.37</course>
  <speed>0.02</speed>
  <fix>3d</fix>
</trkpt>
<trkpt lat="33.810615" lon="-118.3935743">
  <ele>-10.42</ele>
  <time>2026-09-02T22:09:14Z</time>
  <course>83.2</course>
  <speed>0.0</speed>
  <fix>3d</fix>
</trkpt>
<trkpt lat="33.8106149" lon="-118.3935742">
  <ele>-11.411</ele>
  <time>2026-09-02T22:09:14Z</time>
  <course>158.37</course>
  <speed>0.02</speed>
  <fix>3d</fix>
</trkpt>
<trkpt lat="33.8106149" lon="-118.3935742">
  <ele>-11.507</ele>
  <time>2026-09-02T22:09:14Z</time>
  <course>158.38</course>
  <speed>0.02</speed>
  <fix>3d</fix>
</trkpt>
<trkpt lat="33.810615" lon="-118.3935743">
  <ele>-10.42</ele>
  <time>2026-09-02T22:09:14Z</time>
  <course>83.2</course>
  <speed>0.0</speed>
  <fix>3d</fix>
</trkpt>
<trkpt lat="33.8106149" lon="-118.3935742">
  <ele>-11.545</ele>
  <time>2026-09-02T22:09:14Z</time>
  <course>158.38</course>
  <speed>0.02</speed>
  <fix>3d</fix>
</trkpt>
<trkpt lat="33.8106149" lon="-118.3935742">
  <ele>-11.633</ele>
  <time>2026-09-02T22:09:14Z</time>
  <course>158.39</course>
  <speed>0.02</speed>
  <fix>3d</fix>
</trkpt>
<trkpt lat="33.810615" lon="-118.3935743">
  <ele>-10.66</ele>
  <time>2026-09-02T22:09:14Z</time>
  <course>83.25</course>
  <speed>0.0</speed>
  <fix>3d</fix>
</trkpt>
<trkpt lat="33.8106149" lon="-118.3935742">
  <ele>-11.674</ele>
  <time>2026-09-02T22:09:14Z</time>
  <course>158.39</course>
  <speed>0.02</speed>
  <fix>3d</fix>
</trkpt>
<trkpt lat="33.8106149" lon="-118.3935742">
  <ele>-11.758</ele>
  <time>2026-09-02T22:09:14Z</time>
  <course>158.4</course>
  <speed>0.02</speed>
  <fix>3d</fix>
</trkpt>
<trkpt lat="33.810615" lon="-118.3935743">
  <ele>-10.66</ele>
  <time>2026-09-02T22:09:14Z</time>
  <course>83.25</course>
  <speed>0.0</speed>
  <fix>3d</fix>
</trkpt>
<trkpt lat="33.8106149" lon="-118.3935742">
  <ele>-11.798</ele>
  <time>2026-09-02T22:09:14Z</time>
  <course>158.4</course>
  <speed>0.02</speed>
  <fix>3d</fix>
</trkpt>
<trkpt lat="33.8106149" lon="-118.3935742">
  <ele>-11.882</ele>
  <time>2026-09-02T22:09:14Z</time>
  <course>158.41</course>
  <speed>0.02</speed>
  <fix>3d</fix>
</trkpt>
<trkpt lat="33.810615" lon="-118.3935743">
  <ele>-10.9</ele>
  <time>2026-09-02T22:09:14Z</time>
  <course>83.29</course>
  <speed>0.0</speed>
  <fix>3d</fix>
</trkpt>
<trkpt lat="33.8106149" lon="-118.3935742">
  <ele>-11.913</ele>
  <time>2026-09-02T22:09:14Z</time>
  <course>158.41</course>
  <speed>0.02</speed>
  <fix>3d</fix>
</trkpt>
<trkpt lat="33.8106149" lon="-118.3935742">
  <ele>-12.007</ele>
  <time>2026-09-02T22:09:14Z</time>
  <course>158.41</course>
  <speed>0.02</speed>
  <fix>3d</fix>
</trkpt>
<trkpt lat="33.810615" lon="-118.3935743">
  <ele>-10.9</ele>
  <time>2026-09-02T22:09:14Z</time>
  <course>83.29</course>
  <speed>0.0</speed>
  <fix>3d</fix>
</trkpt>
<trkpt lat="33.8106149" lon="-118.3935742">
  <ele>-12.044</ele>
  <time>2026-09-02T22:09:14Z</time>
  <course>158.42</course>
  <speed>0.02</speed>
  <fix>3d</fix>
</trkpt>
<trkpt lat="33.8106149" lon="-118.3935742">
  <ele>-12.131</ele>
  <time>2026-09-02T22:09:14Z</time>
  <course>158.42</course>
  <speed>0.02</speed>
  <fix>3d</fix>
</trkpt>
<trkpt lat="33.810615" lon="-118.3935743">
  <ele>-11.15</ele>
  <time>2026-09-02T22:09:14Z</time>
  <course>83.35</course>
  <speed>0.0</speed>
  <fix>3d</fix>
</trkpt>
<trkpt lat="33.8106149" lon="-118.3935742">
  <ele>-12.134</ele>
  <time>2026-09-02T22:09:14Z</time>
  <course>158.42</course>
  <speed>0.02</speed>
  <fix>3d</fix>
</trkpt>
<trkpt lat="33.8106149" lon="-118.3935742">
  <ele>-12.254</ele>
  <time>2026-09-02T22:09:14Z</time>
  <course>158.43</course>
  <speed>0.02</speed>
  <fix>3d</fix>
</trkpt>
<trkpt lat="33.810615" lon="-118.3935743">
  <ele>-11.15</ele>
  <time>2026-09-02T22:09:14Z</time>
  <course>83.35</course>
  <speed>0.0</speed>
  <fix>3d</fix>
</trkpt>
<trkpt lat="33.8106149" lon="-118.3935742">
  <ele>-12.289</ele>
  <time>2026-09-02T22:09:14Z</time>
  <course>158.43</course>
  <speed>0.02</speed>
  <fix>3d</fix>
</trkpt>
<trkpt lat="33.8106149" lon="-118.3935742">
  <ele>-12.378</ele>
  <time>2026-09-02T22:09:14Z</time>
  <course>158.44</course>
  <speed>0.02</speed>
  <fix>3d</fix>
</trkpt>
<trkpt lat="33.810615" lon="-118.3935743">
  <ele>-11.39</ele>
  <time>2026-09-02T22:09:14Z</time>
  <course>83.42</course>
  <speed>0.0</speed>
  <fix>3d</fix>
</trkpt>
<trkpt lat="33.8106149" lon="-118.3935742">
  <ele>-12.415</ele>
  <time>2026-09-02T22:09:14Z</time>
  <course>158.44</course>
  <speed>0.02</speed>
  <fix>3d</fix>
</trkpt>
<trkpt lat="33.8106149" lon="-118.3935741">
  <ele>-12.501</ele>
  <time>2026-09-02T22:09:14Z</time>
  <course>158.45</course>
  <speed>0.02</speed>
  <fix>3d</fix>
</trkpt>
<trkpt lat="33.810615" lon="-118.3935743">
  <ele>-11.39</ele>
  <time>2026-09-02T22:09:14Z</time>
  <course>83.42</course>
  <speed>0.0</speed>
  <fix>3d</fix>
</trkpt>
<trkpt lat="33.8106149" lon="-118.3935741">
  <ele>-12.504</ele>
  <time>2026-09-02T22:09:14Z</time>
  <course>158.45</course>
  <speed>0.02</speed>
  <fix>3d</fix>
</trkpt>
<trkpt lat="33.8106149" lon="-118.3935741">
  <ele>-12.623</ele>
  <time>2026-09-02T22:09:14Z</time>
  <course>158.45</course>
  <speed>0.02</speed>
  <fix>3d</fix>
</trkpt>
<trkpt lat="33.810615" lon="-118.3935743">
  <ele>-11.63</ele>
  <time>2026-09-02T22:09:14Z</time>
  <course>83.5</course>
  <speed>0.0</speed>
  <fix>3d</fix>
</trkpt>
<trkpt lat="33.8106149" lon="-118.3935741">
  <ele>-12.659</ele>
  <time>2026-09-02T22:09:14Z</time>
  <course>158.46</course>
  <speed>0.02</speed>
  <fix>3d</fix>
</trkpt>
<trkpt lat="33.8106149" lon="-118.3935741">
  <ele>-12.744</ele>
  <time>2026-09-02T22:09:14Z</time>
  <course>158.46</course>
  <speed>0.02</speed>
  <fix>3d</fix>
</trkpt>
<trkpt lat="33.810615" lon="-118.3935743">
  <ele>-11.63</ele>
  <time>2026-09-02T22:09:14Z</time>
  <course>83.5</course>
  <speed>0.0</speed>
  <fix>3d</fix>
</trkpt>
<trkpt lat="33.8106149" lon="-118.3935741">
  <ele>-12.781</ele>
  <time>2026-09-02T22:09:14Z</time>
  <course>158.46</course>
  <speed>0.02</speed>
  <fix>3d</fix>
</trkpt>
<trkpt lat="33.8106149" lon="-118.3935741">
  <ele>-12.865</ele>
  <time>2026-09-02T22:09:14Z</time>
  <course>158.47</course>
  <speed>0.02</speed>
  <fix>3d</fix>
</trkpt>
<trkpt lat="33.810615" lon="-118.3935742">
  <ele>-11.88</ele>
  <time>2026-09-02T22:09:14Z</time>
  <course>83.58</course>
  <speed>0.0</speed>
  <fix>3d</fix>
</trkpt>
<trkpt lat="33.8106149" lon="-118.3935741">
  <ele>-12.901</ele>
  <time>2026-09-02T22:09:14Z</time>
  <course>158.47</course>
  <speed>0.02</speed>
  <fix>3d</fix>
</trkpt>
<trkpt lat="33.8106149" lon="-118.3935741">
  <ele>-12.985</ele>
  <time>2026-09-02T22:09:14Z</time>
  <course>158.48</course>
  <speed>0.02</speed>
  <fix>3d</fix>
</trkpt>
<trkpt lat="33.810615" lon="-118.3935742">
  <ele>-11.88</ele>
  <time>2026-09-02T22:09:14Z</time>
  <course>83.58</course>
  <speed>0.0</speed>
  <fix>3d</fix>
</trkpt>
<trkpt lat="33.8106149" lon="-118.3935741">
  <ele>-13.024</ele>
  <time>2026-09-02T22:09:14Z</time>
  <course>158.48</course>
  <speed>0.02</speed>
  <fix>3d</fix>
</trkpt>
<trkpt lat="33.8106149" lon="-118.3935741">
  <ele>-13.105</ele>
  <time>2026-09-02T22:09:14Z</time>
  <course>158.49</course>
  <speed>0.02</speed>
  <fix>3d</fix>
</trkpt>
<trkpt lat="33.810615" lon="-118.3935742">
  <ele>-12.12</ele>
  <time>2026-09-02T22:09:14Z</time>
  <course>83.64</course>
  <speed>0.0</speed>
  <fix>3d</fix>
</trkpt>
<trkpt lat="33.8106149" lon="-118.3935741">
  <ele>-13.141</ele>
  <time>2026-09-02T22:09:14Z</time>
  <course>158.49</course>
  <speed>0.02</speed>
  <fix>3d</fix>
</trkpt>
<trkpt lat="33.8106149" lon="-118.3935741">
  <ele>-13.226</ele>
  <time>2026-09-02T22:09:14Z</time>
  <course>158.49</course>
  <speed>0.02</speed>
  <fix>3d</fix>
</trkpt>
<trkpt lat="33.810615" lon="-118.3935742">
  <ele>-12.12</ele>
  <time>2026-09-02T22:09:14Z</time>
  <course>83.64</course>
  <speed>0.0</speed>
  <fix>3d</fix>
</trkpt>
<trkpt lat="33.8106149" lon="-118.3935741">
  <ele>-13.262</ele>
  <time>2026-09-02T22:09:14Z</time>
  <course>158.5</course>
  <speed>0.02</speed>
  <fix>3d</fix>
</trkpt>
<trkpt lat="33.8106149" lon="-118.3935741">
  <ele>-13.348</ele>
  <time>2026-09-02T22:09:14Z</time>
  <course>158.5</course>
  <speed>0.02</speed>
  <fix>3d</fix>
</trkpt>
<trkpt lat="33.810615" lon="-118.3935742">
  <ele>-12.36</ele>
  <time>2026-09-02T22:09:14Z</time>
  <course>83.69</course>
  <speed>0.0</speed>
  <fix>3d</fix>
</trkpt>
<trkpt lat="33.8106149" lon="-118.3935741">
  <ele>-13.38</ele>
  <time>2026-09-02T22:09:14Z</time>
  <course>158.5</course>
  <speed>0.02</speed>
  <fix>3d</fix>
</trkpt>
<trkpt lat="33.8106149" lon="-118.3935741">
  <ele>-13.47</ele>
  <time>2026-09-02T22:09:14Z</time>
  <course>158.51</course>
  <speed>0.02</speed>
  <fix>3d</fix>
</trkpt>
<trkpt lat="33.810615" lon="-118.3935742">
  <ele>-12.36</ele>
  <time>2026-09-02T22:09:14Z</time>
  <course>83.69</course>
  <speed>0.0</speed>
  <fix>3d</fix>
</trkpt>
<trkpt lat="33.8106149" lon="-118.3935741">
  <ele>-13.507</ele>
  <time>2026-09-02T22:09:14Z</time>
  <course>158.51</course>
  <speed>0.02</speed>
  <fix>3d</fix>
</trkpt>
<trkpt lat="33.8106149" lon="-118.3935741">
  <ele>-13.593</ele>
  <time>2026-09-02T22:09:14Z</time>
  <course>158.52</course>
  <speed>0.02</speed>
  <fix>3d</fix>
</trkpt>
<trkpt lat="33.810615" lon="-118.3935742">
  <ele>-12.61</ele>
  <time>2026-09-02T22:09:14Z</time>
  <course>83.72</course>
  <speed>0.0</speed>
  <fix>3d</fix>
</trkpt>
<trkpt lat="33.8106149" lon="-118.3935741">
  <ele>-13.632</ele>
  <time>2026-09-02T22:09:14Z</time>
  <course>158.52</course>
  <speed>0.02</speed>
  <fix>3d</fix>
</trkpt>
<trkpt lat="33.8106149" lon="-118.3935741">
  <ele>-13.716</ele>
  <time>2026-09-02T22:09:14Z</time>
  <course>158.53</course>
  <speed>0.02</speed>
  <fix>3d</fix>
</trkpt>
<trkpt lat="33.810615" lon="-118.3935742">
  <ele>-12.61</ele>
  <time>2026-09-02T22:09:14Z</time>
  <course>83.72</course>
  <speed>0.0</speed>
  <fix>3d</fix>
</trkpt>
<trkpt lat="33.8106149" lon="-118.3935741">
  <ele>-13.749</ele>
  <time>2026-09-02T22:09:14Z</time>
  <course>158.53</course>
  <speed>0.02</speed>
  <fix>3d</fix>
</trkpt>
<trkpt lat="33.8106149" lon="-118.3935741">
  <ele>-13.839</ele>
  <time>2026-09-02T22:09:14Z</time>
  <course>158.53</course>
  <speed>0.02</speed>
  <fix>3d</fix>
</trkpt>
<trkpt lat="33.810615" lon="-118.3935742">
  <ele>-12.85</ele>
  <time>2026-09-02T22:09:14Z</time>
  <course>83.78</course>
  <speed>0.0</speed>
  <fix>3d</fix>
</trkpt>
<trkpt lat="33.8106149" lon="-118.3935741">
  <ele>-13.842</ele>
  <time>2026-09-02T22:09:14Z</time>
  <course>158.53</course>
  <speed>0.02</speed>
  <fix>3d</fix>
</trkpt>
<trkpt lat="33.8106149" lon="-118.393574">
  <ele>-13.962</ele>
  <time>2026-09-02T22:09:14Z</time>
  <course>158.54</course>
  <speed>0.02</speed>
  <fix>3d</fix>
</trkpt>
<trkpt lat="33.810615" lon="-118.3935742">
  <ele>-12.85</ele>
  <time>2026-09-02T22:09:14Z</time>
  <course>83.78</course>
  <speed>0.0</speed>
  <fix>3d</fix>
</trkpt>
<trkpt lat="33.8106149" lon="-118.393574">
  <ele>-13.999</ele>
  <time>2026-09-02T22:09:14Z</time>
  <course>158.54</course>
  <speed>0.02</speed>
  <fix>3d</fix>
</trkpt>
<trkpt lat="33.8106149" lon="-118.393574">
  <ele>-14.084</ele>
  <time>2026-09-02T22:09:14Z</time>
  <course>158.55</course>
  <speed>0.02</speed>
  <fix>3d</fix>
</trkpt>
<trkpt lat="33.810615" lon="-118.3935742">
  <ele>-13.09</ele>
  <time>2026-09-02T22:09:14Z</time>
  <course>83.85</course>
  <speed>0.0</speed>
  <fix>3d</fix>
</trkpt>
<trkpt lat="33.8106149" lon="-118.393574">
  <ele>-14.118</ele>
  <time>2026-09-02T22:09:14Z</time>
  <course>158.55</course>
  <speed>0.02</speed>
  <fix>3d</fix>
</trkpt>
<trkpt lat="33.8106149" lon="-118.393574">
  <ele>-14.207</ele>
  <time>2026-09-02T22:09:14Z</time>
  <course>158.56</course>
  <speed>0.02</speed>
  <fix>3d</fix>
</trkpt>
<trkpt lat="33.810615" lon="-118.3935742">
  <ele>-13.09</ele>
  <time>2026-09-02T22:09:14Z</time>
  <course>83.85</course>
  <speed>0.0</speed>
  <fix>3d</fix>
</trkpt>
<trkpt lat="33.8106149" lon="-118.393574">
  <ele>-14.247</ele>
  <time>2026-09-02T22:09:14Z</time>
  <course>158.56</course>
  <speed>0.02</speed>
  <fix>3d</fix>
</trkpt>
<trkpt lat="33.8106149" lon="-118.393574">
  <ele>-14.329</ele>
  <time>2026-09-02T22:09:14Z</time>
  <course>158.56</course>
  <speed>0.02</speed>
  <fix>3d</fix>
</trkpt>
<trkpt lat="33.810615" lon="-118.3935742">
  <ele>-13.34</ele>
  <time>2026-09-02T22:09:14Z</time>
  <course>83.92</course>
  <speed>0.0</speed>
  <fix>3d</fix>
</trkpt>
<trkpt lat="33.8106149" lon="-118.393574">
  <ele>-14.366</ele>
  <time>2026-09-02T22:09:14Z</time>
  <course>158.57</course>
  <speed>0.02</speed>
  <fix>3d</fix>
</trkpt>
<trkpt lat="33.8106149" lon="-118.393574">
  <ele>-14.451</ele>
  <time>2026-09-02T22:09:14Z</time>
  <course>158.57</course>
  <speed>0.02</speed>
  <fix>3d</fix>
</trkpt>
<trkpt lat="33.810615" lon="-118.3935742">
  <ele>-13.34</ele>
  <time>2026-09-02T22:09:14Z</time>
  <course>83.92</course>
  <speed>0.0</speed>
  <fix>3d</fix>
</trkpt>
<trkpt lat="33.8106149" lon="-118.393574">
  <ele>-14.455</ele>
  <time>2026-09-02T22:09:14Z</time>
  <course>158.57</course>
  <speed>0.02</speed>
  <fix>3d</fix>
</trkpt>
<trkpt lat="33.8106149" lon="-118.393574">
  <ele>-14.574</ele>
  <time>2026-09-02T22:09:14Z</time>
  <course>158.58</course>
  <speed>0.02</speed>
  <fix>3d</fix>
</trkpt>
<trkpt lat="33.810615" lon="-118.3935741">
  <ele>-13.58</ele>
  <time>2026-09-02T22:09:14Z</time>
  <course>83.99</course>
  <speed>0.0</speed>
  <fix>3d</fix>
</trkpt>
<trkpt lat="33.8106149" lon="-118.393574">
  <ele>-14.605</ele>
  <time>2026-09-02T22:09:14Z</time>
  <course>158.58</course>
  <speed>0.02</speed>
  <fix>3d</fix>
</trkpt>
<trkpt lat="33.8106149" lon="-118.393574">
  <ele>-14.698</ele>
  <time>2026-09-02T22:09:14Z</time>
  <course>158.59</course>
  <speed>0.02</speed>
  <fix>3d</fix>
</trkpt>
<trkpt lat="33.810615" lon="-118.3935741">
  <ele>-13.58</ele>
  <time>2026-09-02T22:09:14Z</time>
  <course>83.99</course>
  <speed>0.0</speed>
  <fix>3d</fix>
</trkpt>
<trkpt lat="33.8106149" lon="-118.393574">
  <ele>-14.735</ele>
  <time>2026-09-02T22:09:14Z</time>
  <course>158.59</course>
  <speed>0.02</speed>
  <fix>3d</fix>
</trkpt>
<trkpt lat="33.8106149" lon="-118.393574">
  <ele>-14.821</ele>
  <time>2026-09-02T22:09:14Z</time>
  <course>158.59</course>
  <speed>0.02</speed>
  <fix>3d</fix>
</trkpt>
<trkpt lat="33.810615" lon="-118.3935741">
  <ele>-13.82</ele>
  <time>2026-09-02T22:09:14Z</time>
  <course>84.04</course>
  <speed>0.0</speed>
  <fix>3d</fix>
</trkpt>
<trkpt lat="33.8106149" lon="-118.393574">
  <ele>-14.854</ele>
  <time>2026-09-02T22:09:14Z</time>
  <course>158.6</course>
  <speed>0.02</speed>
  <fix>3d</fix>
</trkpt>
<trkpt lat="33.8106149" lon="-118.393574">
  <ele>-14.948</ele>
  <time>2026-09-02T22:09:14Z</time>
  <course>158.6</course>
  <speed>0.02</speed>
  <fix>3d</fix>
</trkpt>
<trkpt lat="33.810615" lon="-118.3935741">
  <ele>-13.82</ele>
  <time>2026-09-02T22:09:14Z</time>
  <course>84.04</course>
  <speed>0.0</speed>
  <fix>3d</fix>
</trkpt>
<trkpt lat="33.8106149" lon="-118.393574">
  <ele>-14.986</ele>
  <time>2026-09-02T22:09:14Z</time>
  <course>158.6</course>
  <speed>0.02</speed>
  <fix>3d</fix>
</trkpt>
<trkpt lat="33.8106149" lon="-118.393574">
  <ele>-15.074</ele>
  <time>2026-09-02T22:09:14Z</time>
  <course>158.61</course>
  <speed>0.02</speed>
  <fix>3d</fix>
</trkpt>
<trkpt lat="33.810615" lon="-118.3935741">
  <ele>-14.07</ele>
  <time>2026-09-02T22:09:14Z</time>
  <course>84.07</course>
  <speed>0.0</speed>
  <fix>3d</fix>
</trkpt>
<trkpt lat="33.8106149" lon="-118.393574">
  <ele>-15.077</ele>
  <time>2026-09-02T22:09:14Z</time>
  <course>158.61</course>
  <speed>0.02</speed>
  <fix>3d</fix>
</trkpt>
<trkpt lat="33.8106149" lon="-118.393574">
  <ele>-15.2</ele>
  <time>2026-09-02T22:09:14Z</time>
  <course>158.62</course>
  <speed>0.02</speed>
  <fix>3d</fix>
</trkpt>
<trkpt lat="33.810615" lon="-118.3935741">
  <ele>-14.07</ele>
  <time>2026-09-02T22:09:14Z</time>
  <course>84.07</course>
  <speed>0.0</speed>
  <fix>3d</fix>
</trkpt>
<trkpt lat="33.8106149" lon="-118.393574">
  <ele>-15.231</ele>
  <time>2026-09-02T22:09:14Z</time>
  <course>158.62</course>
  <speed>0.02</speed>
  <fix>3d</fix>
</trkpt>
<trkpt lat="33.8106149" lon="-118.393574">
  <ele>-15.326</ele>
  <time>2026-09-02T22:09:14Z</time>
  <course>158.62</course>
  <speed>0.02</speed>
  <fix>3d</fix>
</trkpt>
<trkpt lat="33.810615" lon="-118.3935741">
  <ele>-14.3</ele>
  <time>2026-09-02T22:09:14Z</time>
  <course>84.11</course>
  <speed>0.0</speed>
  <fix>3d</fix>
</trkpt>
<trkpt lat="33.8106149" lon="-118.393574">
  <ele>-15.364</ele>
  <time>2026-09-02T22:09:14Z</time>
  <course>158.63</course>
  <speed>0.02</speed>
  <fix>3d</fix>
</trkpt>
<trkpt lat="33.8106149" lon="-118.393574">
  <ele>-15.453</ele>
  <time>2026-09-02T22:09:14Z</time>
  <course>158.63</course>
  <speed>0.02</speed>
  <fix>3d</fix>
</trkpt>
<trkpt lat="33.810615" lon="-118.3935741">
  <ele>-14.3</ele>
  <time>2026-09-02T22:09:14Z</time>
  <course>84.11</course>
  <speed>0.0</speed>
  <fix>3d</fix>
</trkpt>
<trkpt lat="33.8106149" lon="-118.3935739">
  <ele>-15.495</ele>
  <time>2026-09-02T22:09:14Z</time>
  <course>158.63</course>
  <speed>0.02</speed>
  <fix>3d</fix>
</trkpt>
<trkpt lat="33.8106149" lon="-118.3935739">
  <ele>-15.581</ele>
  <time>2026-09-02T22:09:14Z</time>
  <course>158.64</course>
  <speed>0.02</speed>
  <fix>3d</fix>
</trkpt>
<trkpt lat="33.810615" lon="-118.3935741">
  <ele>-14.55</ele>
  <time>2026-09-02T22:09:14Z</time>
  <course>84.16</course>
  <speed>0.0</speed>
  <fix>3d</fix>
</trkpt>
<trkpt lat="33.8106149" lon="-118.3935739">
  <ele>-15.613</ele>
  <time>2026-09-02T22:09:14Z</time>
  <course>158.64</course>
  <speed>0.02</speed>
  <fix>3d</fix>
</trkpt>
<trkpt lat="33.8106149" lon="-118.3935739">
  <ele>-15.709</ele>
  <time>2026-09-02T22:09:14Z</time>
  <course>158.64</course>
  <speed>0.02</speed>
  <fix>3d</fix>
</trkpt>
<trkpt lat="33.810615" lon="-118.3935741">
  <ele>-14.55</ele>
  <time>2026-09-02T22:09:14Z</time>
  <course>84.16</course>
  <speed>0.0</speed>
  <fix>3d</fix>
</trkpt>
<trkpt lat="33.8106149" lon="-118.3935739">
  <ele>-15.747</ele>
  <time>2026-09-02T22:09:14Z</time>
  <course>158.65</course>
  <speed>0.02</speed>
  <fix>3d</fix>
</trkpt>
<trkpt lat="33.8106149" lon="-118.3935739">
  <ele>-15.836</ele>
  <time>2026-09-02T22:09:14Z</time>
  <course>158.65</course>
  <speed>0.02</speed>
  <fix>3d</fix>
</trkpt>
<trkpt lat="33.810615" lon="-118.3935741">
  <ele>-14.8</ele>
  <time>2026-09-02T22:09:14Z</time>
  <course>84.23</course>
  <speed>0.0</speed>
  <fix>3d</fix>
</trkpt>
<trkpt lat="33.8106149" lon="-118.3935739">
  <ele>-15.861</ele>
  <time>2026-09-02T22:09:14Z</time>
  <course>158.65</course>
  <speed>0.02</speed>
  <fix>3d</fix>
</trkpt>
<trkpt lat="33.8106149" lon="-118.3935739">
  <ele>-15.962</ele>
  <time>2026-09-02T22:09:14Z</time>
  <course>158.66</course>
  <speed>0.02</speed>
  <fix>3d</fix>
</trkpt>
<trkpt lat="33.810615" lon="-118.3935741">
  <ele>-14.8</ele>
  <time>2026-09-02T22:09:14Z</time>
  <course>84.23</course>
  <speed>0.0</speed>
  <fix>3d</fix>
</trkpt>
<trkpt lat="33.8106149" lon="-118.3935739">
  <ele>-16.0</ele>
  <time>2026-09-02T22:09:14Z</time>
  <course>158.65</course>
  <speed>0.02</speed>
  <fix>3d</fix>
</trkpt>
<trkpt lat="33.8106149" lon="-118.3935739">
  <ele>-16.09</ele>
  <time>2026-09-02T22:09:14Z</time>
  <course>158.65</course>
  <speed>0.02</speed>
  <fix>3d</fix>
</trkpt>
<trkpt lat="33.810615" lon="-118.3935741">
  <ele>-15.04</ele>
  <time>2026-09-02T22:09:14Z</time>
  <course>84.31</course>
  <speed>0.0</speed>
  <fix>3d</fix>
</trkpt>
<trkpt lat="33.8106149" lon="-118.3935739">
  <ele>-16.118</ele>
  <time>2026-09-02T22:09:14Z</time>
  <course>158.64</course>
  <speed>0.02</speed>
  <fix>3d</fix>
</trkpt>
<trkpt lat="33.8106149" lon="-118.3935739">
  <ele>-16.218</ele>
  <time>2026-09-02T22:09:14Z</time>
  <course>158.64</course>
  <speed>0.02</speed>
  <fix>3d</fix>
</trkpt>
<trkpt lat="33.810615" lon="-118.3935741">
  <ele>-15.04</ele>
  <time>2026-09-02T22:09:14Z</time>
  <course>84.31</course>
  <speed>0.0</speed>
  <fix>3d</fix>
</trkpt>
<trkpt lat="33.8106149" lon="-118.3935739">
  <ele>-16.25</ele>
  <time>2026-09-02T22:09:14Z</time>
  <course>158.63</course>
  <speed>0.02</speed>
  <fix>3d</fix>
</trkpt>
<trkpt lat="33.8106149" lon="-118.3935739">
  <ele>-16.345</ele>
  <time>2026-09-02T22:09:14Z</time>
  <course>158.62</course>
  <speed>0.02</speed>
  <fix>3d</fix>
</trkpt>
<trkpt lat="33.810615" lon="-118.393574">
  <ele>-15.28</ele>
  <time>2026-09-02T22:09:14Z</time>
  <course>84.36</course>
  <speed>0.0</speed>
  <fix>3d</fix>
</trkpt>
<trkpt lat="33.8106149" lon="-118.3935739">
  <ele>-16.383</ele>
  <time>2026-09-02T22:09:14Z</time>
  <course>158.62</course>
  <speed>0.02</speed>
  <fix>3d</fix>
</trkpt>
<trkpt lat="33.8106149" lon="-118.3935739">
  <ele>-16.472</ele>
  <time>2026-09-02T22:09:14Z</time>
  <course>158.61</course>
  <speed>0.02</speed>
  <fix>3d</fix>
</trkpt>
<trkpt lat="33.810615" lon="-118.393574">
  <ele>-15.28</ele>
  <time>2026-09-02T22:09:14Z</time>
  <course>84.36</course>
  <speed>0.0</speed>
  <fix>3d</fix>
</trkpt>
<trkpt lat="33.8106149" lon="-118.3935739">
  <ele>-16.475</ele>
  <time>2026-09-02T22:09:14Z</time>
  <course>158.61</course>
  <speed>0.02</speed>
  <fix>3d</fix>
</trkpt>
<trkpt lat="33.8106149" lon="-118.3935739">
  <ele>-16.597</ele>
  <time>2026-09-02T22:09:14Z</time>
  <course>158.59</course>
  <speed>0.02</speed>
  <fix>3d</fix>
</trkpt>
<trkpt lat="33.810615" lon="-118.393574">
  <ele>-15.53</ele>
  <time>2026-09-02T22:09:14Z</time>
  <course>84.4</course>
  <speed>0.0</speed>
  <fix>3d</fix>
</trkpt>
<trkpt lat="33.8106149" lon="-118.3935739">
  <ele>-16.635</ele>
  <time>2026-09-02T22:09:14Z</time>
  <course>158.59</course>
  <speed>0.02</speed>
  <fix>3d</fix>
</trkpt>
<trkpt lat="33.8106149" lon="-118.3935739">
  <ele>-16.722</ele>
  <time>2026-09-02T22:09:14Z</time>
  <course>158.58</course>
  <speed>0.02</speed>
  <fix>3d</fix>
</trkpt>
<trkpt lat="33.810615" lon="-118.393574">
  <ele>-15.53</ele>
  <time>2026-09-02T22:09:14Z</time>
  <course>84.4</course>
  <speed>0.0</speed>
  <fix>3d</fix>
</trkpt>
<trkpt lat="33.8106149" lon="-118.3935739">
  <ele>-16.725</ele>
  <time>2026-09-02T22:09:14Z</time>
  <course>158.58</course>
  <speed>0.02</speed>
  <fix>3d</fix>
</trkpt>
<trkpt lat="33.8106149" lon="-118.3935739">
  <ele>-16.847</ele>
  <time>2026-09-02T22:09:14Z</time>
  <course>158.56</course>
  <speed>0.02</speed>
  <fix>3d</fix>
</trkpt>
<trkpt lat="33.810615" lon="-118.393574">
  <ele>-15.77</ele>
  <time>2026-09-02T22:09:14Z</time>
  <course>84.43</course>
  <speed>0.0</speed>
  <fix>3d</fix>
</trkpt>
<trkpt lat="33.8106149" lon="-118.3935739">
  <ele>-16.85</ele>
  <time>2026-09-02T22:09:14Z</time>
  <course>158.56</course>
  <speed>0.02</speed>
  <fix>3d</fix>
</trkpt>
<trkpt lat="33.8106149" lon="-118.3935739">
  <ele>-16.973</ele>
  <time>2026-09-02T22:09:14Z</time>
  <course>158.55</course>
  <speed>0.02</speed>
  <fix>3d</fix>
</trkpt>
<trkpt lat="33.810615" lon="-118.393574">
  <ele>-15.77</ele>
  <time>2026-09-02T22:09:14Z</time>
  <course>84.43</course>
  <speed>0.0</speed>
  <fix>3d</fix>
</trkpt>
<trkpt lat="33.8106149" lon="-118.3935739">
  <ele>-17.01</ele>
  <time>2026-09-02T22:09:14Z</time>
  <course>158.54</course>
  <speed>0.02</speed>
  <fix>3d</fix>
</trkpt>
<trkpt lat="33.8106149" lon="-118.3935739">
  <ele>-17.098</ele>
  <time>2026-09-02T22:09:14Z</time>
  <course>158.53</course>
  <speed>0.02</speed>
  <fix>3d</fix>
</trkpt>
<trkpt lat="33.810615" lon="-118.393574">
  <ele>-16.01</ele>
  <time>2026-09-02T22:09:14Z</time>
  <course>84.46</course>
  <speed>0.0</speed>
  <fix>3d</fix>
</trkpt>
<trkpt lat="33.8106149" lon="-118.3935738">
  <ele>-17.135</ele>
  <time>2026-09-02T22:09:14Z</time>
  <course>158.53</course>
  <speed>0.02</speed>
  <fix>3d</fix>
</trkpt>
<trkpt lat="33.8106149" lon="-118.3935738">
  <ele>-17.222</ele>
  <time>2026-09-02T22:09:14Z</time>
  <course>158.52</course>
  <speed>0.02</speed>
  <fix>3d</fix>
</trkpt>
<trkpt lat="33.810615" lon="-118.393574">
  <ele>-16.01</ele>
  <time>2026-09-02T22:09:14Z</time>
  <course>84.46</course>
  <speed>0.0</speed>
  <fix>3d</fix>
</trkpt>
<trkpt lat="33.8106149" lon="-118.3935738">
  <ele>-17.253</ele>
  <time>2026-09-02T22:09:14Z</time>
  <course>158.51</course>
  <speed>0.02</speed>
  <fix>3d</fix>
</trkpt>
<trkpt lat="33.8106149" lon="-118.3935738">
  <ele>-17.345</ele>
  <time>2026-09-02T22:09:14Z</time>
  <course>158.5</course>
  <speed>0.02</speed>
  <fix>3d</fix>
</trkpt>
<trkpt lat="33.810615" lon="-118.393574">
  <ele>-16.25</ele>
  <time>2026-09-02T22:09:14Z</time>
  <course>84.52</course>
  <speed>0.0</speed>
  <fix>3d</fix>
</trkpt>
<trkpt lat="33.8106149" lon="-118.3935738">
  <ele>-17.376</ele>
  <time>2026-09-02T22:09:14Z</time>
  <course>158.5</course>
  <speed>0.02</speed>
  <fix>3d</fix>
</trkpt>
<trkpt lat="33.8106149" lon="-118.3935738">
  <ele>-17.47</ele>
  <time>2026-09-02T22:09:14Z</time>
  <course>158.49</course>
  <speed>0.02</speed>
  <fix>3d</fix>
</trkpt>
<trkpt lat="33.810615" lon="-118.393574">
  <ele>-16.25</ele>
  <time>2026-09-02T22:09:14Z</time>
  <course>84.52</course>
  <speed>0.0</speed>
  <fix>3d</fix>
</trkpt>
<trkpt lat="33.8106149" lon="-118.3935738">
  <ele>-17.507</ele>
  <time>2026-09-02T22:09:14Z</time>
  <course>158.48</course>
  <speed>0.02</speed>
  <fix>3d</fix>
</trkpt>
<trkpt lat="33.8106149" lon="-118.3935738">
  <ele>-17.594</ele>
  <time>2026-09-02T22:09:14Z</time>
  <course>158.47</course>
  <speed>0.02</speed>
  <fix>3d</fix>
</trkpt>
<trkpt lat="33.810615" lon="-118.393574">
  <ele>-16.5</ele>
  <time>2026-09-02T22:09:14Z</time>
  <course>84.58</course>
  <speed>0.0</speed>
  <fix>3d</fix>
</trkpt>
<trkpt lat="33.8106149" lon="-118.3935738">
  <ele>-17.619</ele>
  <time>2026-09-02T22:09:14Z</time>
  <course>158.47</course>
  <speed>0.02</speed>
  <fix>3d</fix>
</trkpt>
<trkpt lat="33.8106149" lon="-118.3935738">
  <ele>-17.719</ele>
  <time>2026-09-02T22:09:14Z</time>
  <course>158.46</course>
  <speed>0.02</speed>
  <fix>3d</fix>
</trkpt>
<trkpt lat="33.810615" lon="-118.393574">
  <ele>-16.5</ele>
  <time>2026-09-02T22:09:14Z</time>
  <course>84.58</course>
  <speed>0.0</speed>
  <fix>3d</fix>
</trkpt>
<trkpt lat="33.8106149" lon="-118.3935738">
  <ele>-17.722</ele>
  <time>2026-09-02T22:09:14Z</time>
  <course>158.46</course>
  <speed>0.02</speed>
  <fix>3d</fix>
</trkpt>
<trkpt lat="33.8106149" lon="-118.3935738">
  <ele>-17.844</ele>
  <time>2026-09-02T22:09:14Z</time>
  <course>158.43</course>
  <speed>0.02</speed>
  <fix>3d</fix>
</trkpt>
<trkpt lat="33.810615" lon="-118.393574">
  <ele>-16.74</ele>
  <time>2026-09-02T22:09:14Z</time>
  <course>84.65</course>
  <speed>0.0</speed>
  <fix>3d</fix>
</trkpt>
<trkpt lat="33.8106149" lon="-118.3935738">
  <ele>-17.872</ele>
  <time>2026-09-02T22:09:14Z</time>
  <course>158.43</course>
  <speed>0.02</speed>
  <fix>3d</fix>
</trkpt>
<trkpt lat="33.8106149" lon="-118.3935738">
  <ele>-17.969</ele>
  <time>2026-09-02T22:09:14Z</time>
  <course>158.41</course>
  <speed>0.02</speed>
  <fix>3d</fix>
</trkpt>
<trkpt lat="33.810615" lon="-118.393574">
  <ele>-16.74</ele>
  <time>2026-09-02T22:09:14Z</time>
  <course>84.65</course>
  <speed>0.0</speed>
  <fix>3d</fix>
</trkpt>
<trkpt lat="33.8106149" lon="-118.3935738">
  <ele>-18.01</ele>
  <time>2026-09-02T22:09:14Z</time>
  <course>158.4</course>
  <speed>0.02</speed>
  <fix>3d</fix>
</trkpt>
<trkpt lat="33.8106149" lon="-118.3935738">
  <ele>-18.096</ele>
  <time>2026-09-02T22:09:14Z</time>
  <course>158.38</course>
  <speed>0.02</speed>
  <fix>3d</fix>
</trkpt>
<trkpt lat="33.810615" lon="-118.3935739">
  <ele>-16.99</ele>
  <time>2026-09-02T22:09:14Z</time>
  <course>84.69</course>
  <speed>0.0</speed>
  <fix>3d</fix>
</trkpt>
<trkpt lat="33.8106149" lon="-118.3935738">
  <ele>-18.134</ele>
  <time>2026-09-02T22:09:14Z</time>
  <course>158.37</course>
  <speed>0.02</speed>
  <fix>3d</fix>
</trkpt>
<trkpt lat="33.8106149" lon="-118.3935738">
  <ele>-18.223</ele>
  <time>2026-09-02T22:09:14Z</time>
  <course>158.36</course>
  <speed>0.02</speed>
  <fix>3d</fix>
</trkpt>
<trkpt lat="33.810615" lon="-118.3935739">
  <ele>-16.99</ele>
  <time>2026-09-02T22:09:14Z</time>
  <course>84.69</course>
  <speed>0.0</speed>
  <fix>3d</fix>
</trkpt>
<trkpt lat="33.8106149" lon="-118.3935738">
  <ele>-18.254</ele>
  <time>2026-09-02T22:09:14Z</time>
  <course>158.35</course>
  <speed>0.02</speed>
  <fix>3d</fix>
</trkpt>
<trkpt lat="33.8106149" lon="-118.3935738">
  <ele>-18.349</ele>
  <time>2026-09-02T22:09:14Z</time>
  <course>158.33</course>
  <speed>0.02</speed>
  <fix>3d</fix>
</trkpt>
<trkpt lat="33.810615" lon="-118.3935739">
  <ele>-17.23</ele>
  <time>2026-09-02T22:09:14Z</time>
  <course>84.71</course>
  <speed>0.0</speed>
  <fix>3d</fix>
</trkpt>
<trkpt lat="33.8106149" lon="-118.3935738">
  <ele>-18.386</ele>
  <time>2026-09-02T22:09:14Z</time>
  <course>158.32</course>
  <speed>0.02</speed>
  <fix>3d</fix>
</trkpt>
<trkpt lat="33.8106149" lon="-118.3935738">
  <ele>-18.474</ele>
  <time>2026-09-02T22:09:14Z</time>
  <course>158.31</course>
  <speed>0.02</speed>
  <fix>3d</fix>
</trkpt>
<trkpt lat="33.810615" lon="-118.3935739">
  <ele>-17.23</ele>
  <time>2026-09-02T22:09:14Z</time>
  <course>84.71</course>
  <speed>0.0</speed>
  <fix>3d</fix>
</trkpt>
<trkpt lat="33.8106149" lon="-118.3935738">
  <ele>-18.512</ele>
  <time>2026-09-02T22:09:14Z</time>
  <course>158.3</course>
  <speed>0.02</speed>
  <fix>3d</fix>
</trkpt>
<trkpt lat="33.8106149" lon="-118.3935738">
  <ele>-18.599</ele>
  <time>2026-09-02T22:09:14Z</time>
  <course>158.28</course>
  <speed>0.02</speed>
  <fix>3d</fix>
</trkpt>
<trkpt lat="33.810615" lon="-118.3935739">
  <ele>-17.47</ele>
  <time>2026-09-02T22:09:14Z</time>
  <course>84.73</course>
  <speed>0.0</speed>
  <fix>3d</fix>
</trkpt>
<trkpt lat="33.8106149" lon="-118.3935738">
  <ele>-18.637</ele>
  <time>2026-09-02T22:09:14Z</time>
  <course>158.27</course>
  <speed>0.02</speed>
  <fix>3d</fix>
</trkpt>
<trkpt lat="33.8106149" lon="-118.3935738">
  <ele>-18.724</ele>
  <time>2026-09-02T22:09:14Z</time>
  <course>158.26</course>
  <speed>0.02</speed>
  <fix>3d</fix>
</trkpt>
<trkpt lat="33.810615" lon="-118.3935739">
  <ele>-17.47</ele>
  <time>2026-09-02T22:09:14Z</time>
  <course>84.73</course>
  <speed>0.0</speed>
  <fix>3d</fix>
</trkpt>
<trkpt lat="33.8106149" lon="-118.3935737">
  <ele>-18.755</ele>
  <time>2026-09-02T22:09:14Z</time>
  <course>158.25</course>
  <speed>0.02</speed>
  <fix>3d</fix>
</trkpt>
<trkpt lat="33.8106149" lon="-118.3935737">
  <ele>-18.849</ele>
  <time>2026-09-02T22:09:14Z</time>
  <course>158.23</course>
  <speed>0.02</speed>
  <fix>3d</fix>
</trkpt>
<trkpt lat="33.810615" lon="-118.3935739">
  <ele>-17.72</ele>
  <time>2026-09-02T22:09:14Z</time>
  <course>84.77</course>
  <speed>0.0</speed>
  <fix>3d</fix>
</trkpt>
<trkpt lat="33.8106149" lon="-118.3935737">
  <ele>-18.886</ele>
  <time>2026-09-02T22:09:14Z</time>
  <course>158.23</course>
  <speed>0.02</speed>
  <fix>3d</fix>
</trkpt>
<trkpt lat="33.8106149" lon="-118.3935737">
  <ele>-18.972</ele>
  <time>2026-09-02T22:09:14Z</time>
  <course>158.21</course>
  <speed>0.02</speed>
  <fix>3d</fix>
</trkpt>
<trkpt lat="33.810615" lon="-118.3935739">
  <ele>-17.72</ele>
  <time>2026-09-02T22:09:14Z</time>
  <course>84.77</course>
  <speed>0.0</speed>
  <fix>3d</fix>
</trkpt>
<trkpt lat="33.8106149" lon="-118.3935737">
  <ele>-18.997</ele>
  <time>2026-09-02T22:09:14Z</time>
  <course>158.21</course>
  <speed>0.02</speed>
  <fix>3d</fix>
</trkpt>
<trkpt lat="33.8106149" lon="-118.3935737">
  <ele>-19.097</ele>
  <time>2026-09-02T22:09:14Z</time>
  <course>158.19</course>
  <speed>0.02</speed>
  <fix>3d</fix>
</trkpt>
<trkpt lat="33.810615" lon="-118.3935739">
  <ele>-17.96</ele>
  <time>2026-09-02T22:09:14Z</time>
  <course>84.82</course>
  <speed>0.0</speed>
  <fix>3d</fix>
</trkpt>
<trkpt lat="33.8106149" lon="-118.3935737">
  <ele>-19.1</ele>
  <time>2026-09-02T22:09:14Z</time>
  <course>158.19</course>
  <speed>0.02</speed>
  <fix>3d</fix>
</trkpt>
<trkpt lat="33.8106149" lon="-118.3935737">
  <ele>-19.221</ele>
  <time>2026-09-02T22:09:14Z</time>
  <course>158.16</course>
  <speed>0.02</speed>
  <fix>3d</fix>
</trkpt>
<trkpt lat="33.810615" lon="-118.3935739">
  <ele>-17.96</ele>
  <time>2026-09-02T22:09:14Z</time>
  <course>84.82</course>
  <speed>0.0</speed>
  <fix>3d</fix>
</trkpt>
<trkpt lat="33.8106149" lon="-118.3935737">
  <ele>-19.345</ele>
  <time>2026-09-02T22:09:14Z</time>
  <course>158.14</course>
  <speed>0.02</speed>
  <fix>3d</fix>
</trkpt>
<trkpt lat="33.810615" lon="-118.3935739">
  <ele>-18.2</ele>
  <time>2026-09-02T22:09:14Z</time>
  <course>84.89</course>
  <speed>0.0</speed>
  <fix>3d</fix>
</trkpt>
<trkpt lat="33.8106149" lon="-118.3935737">
  <ele>-19.469</ele>
  <time>2026-09-02T22:09:14Z</time>
  <course>158.12</course>
  <speed>0.02</speed>
  <fix>3d</fix>
</trkpt>
<trkpt lat="33.810615" lon="-118.3935739">
  <ele>-18.2</ele>
  <time>2026-09-02T22:09:14Z</time>
  <course>84.89</course>
  <speed>0.0</speed>
  <fix>3d</fix>
</trkpt>
<trkpt lat="33.8106149" lon="-118.3935737">
  <ele>-19.591</ele>
  <time>2026-09-02T22:09:14Z</time>
  <course>158.09</course>
  <speed>0.02</speed>
  <fix>3d</fix>
</trkpt>
<trkpt lat="33.810615" lon="-118.3935739">
  <ele>-18.45</ele>
  <time>2026-09-02T22:09:14Z</time>
  <course>84.96</course>
  <speed>0.0</speed>
  <fix>3d</fix>
</trkpt>
<trkpt lat="33.8106149" lon="-118.3935737">
  <ele>-19.706</ele>
  <time>2026-09-02T22:09:14Z</time>
  <course>158.07</course>
  <speed>0.02</speed>
  <fix>3d</fix>
</trkpt>
<trkpt lat="33.810615" lon="-118.3935739">
  <ele>-18.45</ele>
  <time>2026-09-02T22:09:14Z</time>
  <course>84.96</course>
  <speed>0.0</speed>
  <fix>3d</fix>
</trkpt>
<trkpt lat="33.8106149" lon="-118.3935737">
  <ele>-19.809</ele>
  <time>2026-09-02T22:09:14Z</time>
  <course>158.05</course>
  <speed>0.02</speed>
  <fix>3d</fix>
</trkpt>
<trkpt lat="33.810615" lon="-118.3935738">
  <ele>-18.68</ele>
  <time>2026-09-02T22:09:14Z</time>
  <course>85.25</course>
  <speed>0.0</speed>
  <fix>3d</fix>
</trkpt>
<trkpt lat="33.8106149" lon="-118.3935737">
  <ele>-19.896</ele>
  <time>2026-09-02T22:09:14Z</time>
  <course>158.03</course>
  <speed>0.02</speed>
  <fix>3d</fix>
</trkpt>
<trkpt lat="33.810615" lon="-118.3935738">
  <ele>-18.68</ele>
  <time>2026-09-02T22:09:14Z</time>
  <course>85.25</course>
  <speed>0.0</speed>
  <fix>3d</fix>
</trkpt>
<trkpt lat="33.8106149" lon="-118.3935737">
  <ele>-19.969</ele>
  <time>2026-09-02T22:09:14Z</time>
  <course>158.01</course>
  <speed>0.02</speed>
  <fix>3d</fix>
</trkpt>
<trkpt lat="33.8106151" lon="-118.3935738">
  <ele>-18.89</ele>
  <time>2026-09-02T22:09:14Z</time>
  <course>85.95</course>
  <speed>0.0</speed>
  <fix>3d</fix>
</trkpt>
<trkpt lat="33.8106149" lon="-118.3935737">
  <ele>-20.025</ele>
  <time>2026-09-02T22:09:14Z</time>
  <course>157.98</course>
  <speed>0.02</speed>
  <fix>3d</fix>
</trkpt>
<trkpt lat="33.8106151" lon="-118.3935738">
  <ele>-18.89</ele>
  <time>2026-09-02T22:09:14Z</time>
  <course>85.95</course>
  <speed>0.0</speed>
  <fix>3d</fix>
</trkpt>
<trkpt lat="33.8106149" lon="-118.3935737">
  <ele>-20.066</ele>
  <time>2026-09-02T22:09:14Z</time>
  <course>157.96</course>
  <speed>0.02</speed>
  <fix>3d</fix>
</trkpt>
<trkpt lat="33.8106151" lon="-118.3935738">
  <ele>-19.03</ele>
  <time>2026-09-02T22:09:14Z</time>
  <course>86.68</course>
  <speed>0.0</speed>
  <fix>3d</fix>
</trkpt>
<trkpt lat="33.8106149" lon="-118.3935736">
  <ele>-20.097</ele>
  <time>2026-09-02T22:09:14Z</time>
  <course>157.94</course>
  <speed>0.02</speed>
  <fix>3d</fix>
</trkpt>
<trkpt lat="33.8106151" lon="-118.3935738">
  <ele>-19.03</ele>
  <time>2026-09-02T22:09:14Z</time>
  <course>86.68</course>
  <speed>0.0</speed>
  <fix>3d</fix>
</trkpt>
<trkpt lat="33.8106149" lon="-118.3935736">
  <ele>-20.116</ele>
  <time>2026-09-02T22:09:14Z</time>
  <course>157.92</course>
  <speed>0.02</speed>
  <fix>3d</fix>
</trkpt>
<trkpt lat="33.8106151" lon="-118.3935738">
  <ele>-19.12</ele>
  <time>2026-09-02T22:09:14Z</time>
  <course>87.0</course>
  <speed>0.0</speed>
  <fix>3d</fix>
</trkpt>
<trkpt lat="33.8106149" lon="-118.3935736">
  <ele>-20.127</ele>
  <time>2026-09-02T22:09:14Z</time>
  <course>157.9</course>
  <speed>0.02</speed>
  <fix>3d</fix>
</trkpt>
<trkpt lat="33.8106151" lon="-118.3935738">
  <ele>-19.12</ele>
  <time>2026-09-02T22:09:14Z</time>
  <course>87.0</course>
  <speed>0.0</speed>
  <fix>3d</fix>
</trkpt>
<trkpt lat="33.8106149" lon="-118.3935736">
  <ele>-20.132</ele>
  <time>2026-09-02T22:09:14Z</time>
  <course>157.88</course>
  <speed>0.02</speed>
  <fix>3d</fix>
</trkpt>
<trkpt lat="33.8106151" lon="-118.3935738">
  <ele>-19.18</ele>
  <time>2026-09-02T22:09:14Z</time>
  <course>87.05</course>
  <speed>0.0</speed>
  <fix>3d</fix>
</trkpt>
<trkpt lat="33.8106149" lon="-118.3935736">
  <ele>-20.133</ele>
  <time>2026-09-02T22:09:14Z</time>
  <course>157.86</course>
  <speed>0.02</speed>
  <fix>3d</fix>
</trkpt>
<trkpt lat="33.8106151" lon="-118.3935738">
  <ele>-19.18</ele>
  <time>2026-09-02T22:09:14Z</time>
  <course>87.05</course>
  <speed>0.0</speed>
  <fix>3d</fix>
</trkpt>
<trkpt lat="33.8106149" lon="-118.3935736">
  <ele>-20.131</ele>
  <time>2026-09-02T22:09:14Z</time>
  <course>157.84</course>
  <speed>0.02</speed>
  <fix>3d</fix>
</trkpt>
<trkpt lat="33.8106151" lon="-118.3935738">
  <ele>-19.2</ele>
  <time>2026-09-02T22:09:14Z</time>
  <course>87.13</course>
  <speed>0.0</speed>
  <fix>3d</fix>
</trkpt>
<trkpt lat="33.8106149" lon="-118.3935736">
  <ele>-20.128</ele>
  <time>2026-09-02T22:09:14Z</time>
  <course>157.82</course>
  <speed>0.02</speed>
  <fix>3d</fix>
</trkpt>
<trkpt lat="33.8106151" lon="-118.3935738">
  <ele>-19.2</ele>
  <time>2026-09-02T22:09:14Z</time>
  <course>87.13</course>
  <speed>0.0</speed>
  <fix>3d</fix>
</trkpt>
<trkpt lat="33.8106149" lon="-118.3935736">
  <ele>-20.124</ele>
  <time>2026-09-02T22:09:14Z</time>
  <course>157.8</course>
  <speed>0.02</speed>
  <fix>3d</fix>
</trkpt>
<trkpt lat="33.8106151" lon="-118.3935738">
  <ele>-19.21</ele>
  <time>2026-09-02T22:09:14Z</time>
  <course>87.26</course>
  <speed>0.0</speed>
  <fix>3d</fix>
</trkpt>
<trkpt lat="33.8106149" lon="-118.3935736">
  <ele>-20.121</ele>
  <time>2026-09-02T22:09:14Z</time>
  <course>157.78</course>
  <speed>0.02</speed>
  <fix>3d</fix>
</trkpt>
<trkpt lat="33.8106151" lon="-118.3935738">
  <ele>-19.21</ele>
  <time>2026-09-02T22:09:14Z</time>
  <course>87.26</course>
  <speed>0.0</speed>
  <fix>3d</fix>
</trkpt>
<trkpt lat="33.810615" lon="-118.3935736">
  <ele>-20.119</ele>
  <time>2026-09-02T22:09:14Z</time>
  <course>157.76</course>
  <speed>0.02</speed>
  <fix>3d</fix>
</trkpt>
<trkpt lat="33.8106151" lon="-118.3935738">
  <ele>-19.22</ele>
  <time>2026-09-02T22:09:14Z</time>
  <course>87.34</course>
  <speed>0.0</speed>
  <fix>3d</fix>
</trkpt>
<trkpt lat="33.810615" lon="-118.3935736">
  <ele>-20.118</ele>
  <time>2026-09-02T22:09:14Z</time>
  <course>157.74</course>
  <speed>0.02</speed>
  <fix>3d</fix>
</trkpt>
<trkpt lat="33.8106151" lon="-118.3935738">
  <ele>-19.22</ele>
  <time>2026-09-02T22:09:14Z</time>
  <course>87.34</course>
  <speed>0.0</speed>
  <fix>3d</fix>
</trkpt>
<trkpt lat="33.810615" lon="-118.3935736">
  <ele>-20.118</ele>
  <time>2026-09-02T22:09:14Z</time>
  <course>157.72</course>
  <speed>0.02</speed>
  <fix>3d</fix>
</trkpt>
<trkpt lat="33.8106151" lon="-118.3935738">
  <ele>-19.22</ele>
  <time>2026-09-02T22:09:14Z</time>
  <course>87.37</course>
  <speed>0.0</speed>
  <fix>3d</fix>
</trkpt>
<trkpt lat="33.810615" lon="-118.3935736">
  <ele>-20.12</ele>
  <time>2026-09-02T22:09:14Z</time>
  <course>157.7</course>
  <speed>0.02</speed>
  <fix>3d</fix>
</trkpt>
<trkpt lat="33.8106151" lon="-118.3935738">
  <ele>-19.22</ele>
  <time>2026-09-02T22:09:14Z</time>
  <course>87.37</course>
  <speed>0.0</speed>
  <fix>3d</fix>
</trkpt>
<trkpt lat="33.810615" lon="-118.3935736">
  <ele>-20.123</ele>
  <time>2026-09-02T22:09:14Z</time>
  <course>157.68</course>
  <speed>0.02</speed>
  <fix>3d</fix>
</trkpt>
<trkpt lat="33.8106151" lon="-118.3935737">
  <ele>-19.23</ele>
  <time>2026-09-02T22:09:14Z</time>
  <course>87.41</course>
  <speed>0.0</speed>
  <fix>3d</fix>
</trkpt>
<trkpt lat="33.810615" lon="-118.3935736">
  <ele>-20.126</ele>
  <time>2026-09-02T22:09:14Z</time>
  <course>157.66</course>
  <speed>0.02</speed>
  <fix>3d</fix>
</trkpt>
<trkpt lat="33.8106151" lon="-118.3935737">
  <ele>-19.23</ele>
  <time>2026-09-02T22:09:14Z</time>
  <course>87.41</course>
  <speed>0.0</speed>
  <fix>3d</fix>
</trkpt>
<trkpt lat="33.810615" lon="-118.3935736">
  <ele>-20.129</ele>
  <time>2026-09-02T22:09:14Z</time>
  <course>157.64</course>
  <speed>0.02</speed>
  <fix>3d</fix>
</trkpt>
<trkpt lat="33.8106151" lon="-118.3935737">
  <ele>-19.24</ele>
  <time>2026-09-02T22:09:14Z</time>
  <course>87.47</course>
  <speed>0.0</speed>
  <fix>3d</fix>
</trkpt>
<trkpt lat="33.810615" lon="-118.3935736">
  <ele>-20.131</ele>
  <time>2026-09-02T22:09:14Z</time>
  <course>157.63</course>
  <speed>0.02</speed>
  <fix>3d</fix>
</trkpt>
<trkpt lat="33.8106151" lon="-118.3935737">
  <ele>-19.24</ele>
  <time>2026-09-02T22:09:14Z</time>
  <course>87.47</course>
  <speed>0.0</speed>
  <fix>3d</fix>
</trkpt>
<trkpt lat="33.810615" lon="-118.3935735">
  <ele>-20.133</ele>
  <time>2026-09-02T22:09:14Z</time>
  <course>157.61</course>
  <speed>0.02</speed>
  <fix>3d</fix>
</trkpt>
<trkpt lat="33.8106151" lon="-118.3935737">
  <ele>-19.25</ele>
  <time>2026-09-02T22:09:14Z</time>
  <course>87.54</course>
  <speed>0.0</speed>
  <fix>3d</fix>
</trkpt>
<trkpt lat="33.810615" lon="-118.3935735">
  <ele>-20.135</ele>
  <time>2026-09-02T22:09:14Z</time>
  <course>157.59</course>
  <speed>0.02</speed>
  <fix>3d</fix>
</trkpt>
<trkpt lat="33.8106151" lon="-118.3935737">
  <ele>-19.25</ele>
  <time>2026-09-02T22:09:14Z</time>
  <course>87.54</course>
  <speed>0.0</speed>
  <fix>3d</fix>
</trkpt>
<trkpt lat="33.810615" lon="-118.3935735">
  <ele>-20.137</ele>
  <time>2026-09-02T22:09:14Z</time>
  <course>157.57</course>
  <speed>0.02</speed>
  <fix>3d</fix>
</trkpt>
<trkpt lat="33.8106151" lon="-118.3935737">
  <ele>-19.25</ele>
  <time>2026-09-02T22:09:14Z</time>
  <course>87.62</course>
  <speed>0.0</speed>
  <fix>3d</fix>
</trkpt>
<trkpt lat="33.810615" lon="-118.3935735">
  <ele>-20.138</ele>
  <time>2026-09-02T22:09:14Z</time>
  <course>157.55</course>
  <speed>0.02</speed>
  <fix>3d</fix>
</trkpt>
<trkpt lat="33.8106151" lon="-118.3935737">
  <ele>-19.25</ele>
  <time>2026-09-02T22:09:14Z</time>
  <course>87.62</course>
  <speed>0.0</speed>
  <fix>3d</fix>
</trkpt>
<trkpt lat="33.810615" lon="-118.3935735">
  <ele>-20.138</ele>
  <time>2026-09-02T22:09:14Z</time>
  <course>157.54</course>
  <speed>0.02</speed>
  <fix>3d</fix>
</trkpt>
<trkpt lat="33.8106151" lon="-118.3935737">
  <ele>-19.26</ele>
  <time>2026-09-02T22:09:14Z</time>
  <course>87.69</course>
  <speed>0.0</speed>
  <fix>3d</fix>
</trkpt>
<trkpt lat="33.810615" lon="-118.3935735">
  <ele>-20.137</ele>
  <time>2026-09-02T22:09:14Z</time>
  <course>157.52</course>
  <speed>0.02</speed>
  <fix>3d</fix>
</trkpt>
<trkpt lat="33.8106151" lon="-118.3935737">
  <ele>-19.26</ele>
  <time>2026-09-02T22:09:14Z</time>
  <course>87.69</course>
  <speed>0.0</speed>
  <fix>3d</fix>
</trkpt>
<trkpt lat="33.810615" lon="-118.3935735">
  <ele>-20.136</ele>
  <time>2026-09-02T22:09:14Z</time>
  <course>157.5</course>
  <speed>0.02</speed>
  <fix>3d</fix>
</trkpt>
<trkpt lat="33.8106151" lon="-118.3935737">
  <ele>-19.26</ele>
  <time>2026-09-02T22:09:14Z</time>
  <course>87.77</course>
  <speed>0.0</speed>
  <fix>3d</fix>
</trkpt>
<trkpt lat="33.810615" lon="-118.3935735">
  <ele>-20.134</ele>
  <time>2026-09-02T22:09:14Z</time>
  <course>157.48</course>
  <speed>0.02</speed>
  <fix>3d</fix>
</trkpt>
<trkpt lat="33.8106151" lon="-118.3935737">
  <ele>-19.26</ele>
  <time>2026-09-02T22:09:14Z</time>
  <course>87.77</course>
  <speed>0.0</speed>
  <fix>3d</fix>
</trkpt>
<trkpt lat="33.810615" lon="-118.3935735">
  <ele>-20.131</ele>
  <time>2026-09-02T22:09:14Z</time>
  <course>157.47</course>
  <speed>0.02</speed>
  <fix>3d</fix>
</trkpt>
<trkpt lat="33.8106151" lon="-118.3935737">
  <ele>-19.26</ele>
  <time>2026-09-02T22:09:14Z</time>
  <course>87.85</course>
  <speed>0.0</speed>
  <fix>3d</fix>
</trkpt>
<trkpt lat="33.810615" lon="-118.3935735">
  <ele>-20.13</ele>
  <time>2026-09-02T22:09:14Z</time>
  <course>157.45</course>
  <speed>0.02</speed>
  <fix>3d</fix>
</trkpt>
<trkpt lat="33.8106151" lon="-118.3935737">
  <ele>-19.26</ele>
  <time>2026-09-02T22:09:14Z</time>
  <course>87.85</course>
  <speed>0.0</speed>
  <fix>3d</fix>
</trkpt>
<trkpt lat="33.810615" lon="-118.3935735">
  <ele>-20.13</ele>
  <time>2026-09-02T22:09:14Z</time>
  <course>157.43</course>
  <speed>0.02</speed>
  <fix>3d</fix>
</trkpt>
<trkpt lat="33.8106151" lon="-118.3935737">
  <ele>-19.25</ele>
  <time>2026-09-02T22:09:14Z</time>
  <course>87.92</course>
  <speed>0.0</speed>
  <fix>3d</fix>
</trkpt>
<trkpt lat="33.810615" lon="-118.3935735">
  <ele>-20.13</ele>
  <time>2026-09-02T22:09:14Z</time>
  <course>157.41</course>
  <speed>0.02</speed>
  <fix>3d</fix>
</trkpt>
<trkpt lat="33.8106151" lon="-118.3935737">
  <ele>-19.25</ele>
  <time>2026-09-02T22:09:14Z</time>
  <course>87.92</course>
  <speed>0.0</speed>
  <fix>3d</fix>
</trkpt>
<trkpt lat="33.810615" lon="-118.3935735">
  <ele>-20.13</ele>
  <time>2026-09-02T22:09:14Z</time>
  <course>157.4</course>
  <speed>0.02</speed>
  <fix>3d</fix>
</trkpt>
<trkpt lat="33.8106151" lon="-118.3935736">
  <ele>-19.25</ele>
  <time>2026-09-02T22:09:14Z</time>
  <course>87.97</course>
  <speed>0.0</speed>
  <fix>3d</fix>
</trkpt>
<trkpt lat="33.810615" lon="-118.3935735">
  <ele>-20.13</ele>
  <time>2026-09-02T22:09:14Z</time>
  <course>157.38</course>
  <speed>0.02</speed>
  <fix>3d</fix>
</trkpt>
<trkpt lat="33.8106151" lon="-118.3935736">
  <ele>-19.25</ele>
  <time>2026-09-02T22:09:14Z</time>
  <course>87.97</course>
  <speed>0.0</speed>
  <fix>3d</fix>
</trkpt>
<trkpt lat="33.810615" lon="-118.3935735">
  <ele>-20.131</ele>
  <time>2026-09-02T22:09:14Z</time>
  <course>157.36</course>
  <speed>0.02</speed>
  <fix>3d</fix>
</trkpt>
<trkpt lat="33.8106151" lon="-118.3935736">
  <ele>-19.25</ele>
  <time>2026-09-02T22:09:14Z</time>
  <course>88.01</course>
  <speed>0.0</speed>
  <fix>3d</fix>
</trkpt>
<trkpt lat="33.810615" lon="-118.3935735">
  <ele>-20.131</ele>
  <time>2026-09-02T22:09:14Z</time>
  <course>157.35</course>
  <speed>0.02</speed>
  <fix>3d</fix>
</trkpt>
<trkpt lat="33.8106151" lon="-118.3935736">
  <ele>-19.25</ele>
  <time>2026-09-02T22:09:14Z</time>
  <course>88.01</course>
  <speed>0.0</speed>
  <fix>3d</fix>
</trkpt>
<trkpt lat="33.810615" lon="-118.3935734">
  <ele>-20.132</ele>
  <time>2026-09-02T22:09:14Z</time>
  <course>157.33</course>
  <speed>0.02</speed>
  <fix>3d</fix>
</trkpt>
<trkpt lat="33.8106151" lon="-118.3935736">
  <ele>-19.26</ele>
  <time>2026-09-02T22:09:14Z</time>
  <course>88.05</course>
  <speed>0.0</speed>
  <fix>3d</fix>
</trkpt>
<trkpt lat="33.810615" lon="-118.3935734">
  <ele>-20.133</ele>
  <time>2026-09-02T22:09:14Z</time>
  <course>157.32</course>
  <speed>0.02</speed>
  <fix>3d</fix>
</trkpt>
<trkpt lat="33.8106151" lon="-118.3935736">
  <ele>-19.26</ele>
  <time>2026-09-02T22:09:14Z</time>
  <course>88.05</course>
  <speed>0.0</speed>
  <fix>3d</fix>
</trkpt>
<trkpt lat="33.810615" lon="-118.3935734">
  <ele>-20.135</ele>
  <time>2026-09-02T22:09:14Z</time>
  <course>157.3</course>
  <speed>0.02</speed>
  <fix>3d</fix>
</trkpt>
<trkpt lat="33.8106151" lon="-118.3935736">
  <ele>-19.26</ele>
  <time>2026-09-02T22:09:14Z</time>
  <course>88.11</course>
  <speed>0.0</speed>
  <fix>3d</fix>
</trkpt>
<trkpt lat="33.810615" lon="-118.3935734">
  <ele>-20.135</ele>
  <time>2026-09-02T22:09:14Z</time>
  <course>157.28</course>
  <speed>0.02</speed>
  <fix>3d</fix>
</trkpt>
<trkpt lat="33.8106151" lon="-118.3935736">
  <ele>-19.26</ele>
  <time>2026-09-02T22:09:14Z</time>
  <course>88.11</course>
  <speed>0.0</speed>
  <fix>3d</fix>
</trkpt>
<trkpt lat="33.810615" lon="-118.3935734">
  <ele>-20.135</ele>
  <time>2026-09-02T22:09:14Z</time>
  <course>157.27</course>
  <speed>0.02</speed>
  <fix>3d</fix>
</trkpt>
<trkpt lat="33.8106151" lon="-118.3935736">
  <ele>-19.26</ele>
  <time>2026-09-02T22:09:14Z</time>
  <course>88.18</course>
  <speed>0.0</speed>
  <fix>3d</fix>
</trkpt>
<trkpt lat="33.810615" lon="-118.3935734">
  <ele>-20.136</ele>
  <time>2026-09-02T22:09:14Z</time>
  <course>157.25</course>
  <speed>0.02</speed>
  <fix>3d</fix>
</trkpt>
<trkpt lat="33.8106151" lon="-118.3935736">
  <ele>-19.26</ele>
  <time>2026-09-02T22:09:14Z</time>
  <course>88.18</course>
  <speed>0.0</speed>
  <fix>3d</fix>
</trkpt>
<trkpt lat="33.810615" lon="-118.3935734">
  <ele>-20.135</ele>
  <time>2026-09-02T22:09:14Z</time>
  <course>157.24</course>
  <speed>0.02</speed>
  <fix>3d</fix>
</trkpt>
<trkpt lat="33.8106151" lon="-118.3935736">
  <ele>-19.25</ele>
  <time>2026-09-02T22:09:14Z</time>
  <course>88.23</course>
  <speed>0.0</speed>
  <fix>3d</fix>
</trkpt>
<trkpt lat="33.810615" lon="-118.3935734">
  <ele>-20.134</ele>
  <time>2026-09-02T22:09:14Z</time>
  <course>157.22</course>
  <speed>0.02</speed>
  <fix>3d</fix>
</trkpt>
<trkpt lat="33.8106151" lon="-118.3935736">
  <ele>-19.25</ele>
  <time>2026-09-02T22:09:14Z</time>
  <course>88.23</course>
  <speed>0.0</speed>
  <fix>3d</fix>
</trkpt>
<trkpt lat="33.810615" lon="-118.3935734">
  <ele>-20.132</ele>
  <time>2026-09-02T22:09:14Z</time>
  <course>157.2</course>
  <speed>0.02</speed>
  <fix>3d</fix>
</trkpt>
<trkpt lat="33.8106151" lon="-118.3935736">
  <ele>-19.25</ele>
  <time>2026-09-02T22:09:14Z</time>
  <course>88.26</course>
  <speed>0.0</speed>
  <fix>3d</fix>
</trkpt>
<trkpt lat="33.810615" lon="-118.3935734">
  <ele>-20.132</ele>
  <time>2026-09-02T22:09:14Z</time>
  <course>157.19</course>
  <speed>0.02</speed>
  <fix>3d</fix>
</trkpt>
<trkpt lat="33.8106151" lon="-118.3935736">
  <ele>-19.25</ele>
  <time>2026-09-02T22:09:14Z</time>
  <course>88.26</course>
  <speed>0.0</speed>
  <fix>3d</fix>
</trkpt>
<trkpt lat="33.810615" lon="-118.3935734">
  <ele>-20.132</ele>
  <time>2026-09-02T22:09:14Z</time>
  <course>157.17</course>
  <speed>0.02</speed>
  <fix>3d</fix>
</trkpt>
<trkpt lat="33.8106151" lon="-118.3935736">
  <ele>-19.25</ele>
  <time>2026-09-02T22:09:14Z</time>
  <course>88.29</course>
  <speed>0.0</speed>
  <fix>3d</fix>
</trkpt>
<trkpt lat="33.810615" lon="-118.3935734">
  <ele>-20.133</ele>
  <time>2026-09-02T22:09:14Z</time>
  <course>157.16</course>
  <speed>0.02</speed>
  <fix>3d</fix>
</trkpt>
<trkpt lat="33.8106151" lon="-118.3935736">
  <ele>-19.25</ele>
  <time>2026-09-02T22:09:14Z</time>
  <course>88.29</course>
  <speed>0.0</speed>
  <fix>3d</fix>
</trkpt>
<trkpt lat="33.810615" lon="-118.3935734">
  <ele>-20.134</ele>
  <time>2026-09-02T22:09:14Z</time>
  <course>157.14</course>
  <speed>0.02</speed>
  <fix>3d</fix>
</trkpt>
<trkpt lat="33.8106151" lon="-118.3935736">
  <ele>-19.25</ele>
  <time>2026-09-02T22:09:14Z</time>
  <course>88.34</course>
  <speed>0.0</speed>
  <fix>3d</fix>
</trkpt>
<trkpt lat="33.810615" lon="-118.3935734">
  <ele>-20.135</ele>
  <time>2026-09-02T22:09:14Z</time>
  <course>157.13</course>
  <speed>0.02</speed>
  <fix>3d</fix>
</trkpt>
<trkpt lat="33.8106151" lon="-118.3935736">
  <ele>-19.25</ele>
  <time>2026-09-02T22:09:14Z</time>
  <course>88.34</course>
  <speed>0.0</speed>
  <fix>3d</fix>
</trkpt>
<trkpt lat="33.810615" lon="-118.3935734">
  <ele>-20.134</ele>
  <time>2026-09-02T22:09:14Z</time>
  <course>157.11</course>
  <speed>0.02</speed>
  <fix>3d</fix>
</trkpt>
<trkpt lat="33.8106151" lon="-118.3935735">
  <ele>-19.24</ele>
  <time>2026-09-02T22:09:14Z</time>
  <course>88.42</course>
  <speed>0.0</speed>
  <fix>3d</fix>
</trkpt>
<trkpt lat="33.810615" lon="-118.3935734">
  <ele>-20.132</ele>
  <time>2026-09-02T22:09:14Z</time>
  <course>157.1</course>
  <speed>0.02</speed>
  <fix>3d</fix>
</trkpt>
<trkpt lat="33.8106151" lon="-118.3935735">
  <ele>-19.24</ele>
  <time>2026-09-02T22:09:14Z</time>
  <course>88.42</course>
  <speed>0.0</speed>
  <fix>3d</fix>
</trkpt>
<trkpt lat="33.810615" lon="-118.3935733">
  <ele>-20.13</ele>
  <time>2026-09-02T22:09:14Z</time>
  <course>157.08</course>
  <speed>0.02</speed>
  <fix>3d</fix>
</trkpt>
<trkpt lat="33.8106151" lon="-118.3935734">
  <ele>-19.24</ele>
  <time>2026-09-02T22:09:14Z</time>
  <course>88.48</course>
  <speed>0.0</speed>
  <fix>3d</fix>
</trkpt>
<trkpt lat="33.810615" lon="-118.3935733">
  <ele>-20.127</ele>
  <time>2026-09-02T22:09:14Z</time>
  <course>157.07</course>
  <speed>0.02</speed>
  <fix>3d</fix>
</trkpt>
<trkpt lat="33.8106151" lon="-118.3935734">
  <ele>-19.24</ele>
  <time>2026-09-02T22:09:14Z</time>
  <course>88.48</course>
  <speed>0.0</speed>
  <fix>3d</fix>
</trkpt>
<trkpt lat="33.810615" lon="-118.3935733">
  <ele>-20.124</ele>
  <time>2026-09-02T22:09:14Z</time>
  <course>157.05</course>
  <speed>0.02</speed>
  <fix>3d</fix>
</trkpt>
<trkpt lat="33.8106151" lon="-118.3935734">
  <ele>-19.24</ele>
  <time>2026-09-02T22:09:14Z</time>
  <course>88.47</course>
  <speed>0.0</speed>
  <fix>3d</fix>
</trkpt>
<trkpt lat="33.810615" lon="-118.3935733">
  <ele>-20.121</ele>
  <time>2026-09-02T22:09:14Z</time>
  <course>157.04</course>
  <speed>0.02</speed>
  <fix>3d</fix>
</trkpt>
<trkpt lat="33.8106151" lon="-118.3935734">
  <ele>-19.24</ele>
  <time>2026-09-02T22:09:14Z</time>
  <course>88.47</course>
  <speed>0.0</speed>
  <fix>3d</fix>
</trkpt>
<trkpt lat="33.810615" lon="-118.3935733">
  <ele>-20.12</ele>
  <time>2026-09-02T22:09:14Z</time>
  <course>157.03</course>
  <speed>0.02</speed>
  <fix>3d</fix>
</trkpt>
<trkpt lat="33.8106151" lon="-118.3935734">
  <ele>-19.24</ele>
  <time>2026-09-02T22:09:14Z</time>
  <course>88.44</course>
  <speed>0.0</speed>
  <fix>3d</fix>
</trkpt>
<trkpt lat="33.810615" lon="-118.3935733">
  <ele>-20.12</ele>
  <time>2026-09-02T22:09:14Z</time>
  <course>157.01</course>
  <speed>0.02</speed>
  <fix>3d</fix>
</trkpt>
<trkpt lat="33.8106151" lon="-118.3935734">
  <ele>-19.24</ele>
  <time>2026-09-02T22:09:14Z</time>
  <course>88.44</course>
  <speed>0.0</speed>
  <fix>3d</fix>
</trkpt>
<trkpt lat="33.810615" lon="-118.3935733">
  <ele>-20.121</ele>
  <time>2026-09-02T22:09:14Z</time>
  <course>157.0</course>
  <speed>0.02</speed>
  <fix>3d</fix>
</trkpt>
<trkpt lat="33.8106151" lon="-118.3935734">
  <ele>-19.24</ele>
  <time>2026-09-02T22:09:14Z</time>
  <course>88.46</course>
  <speed>0.0</speed>
  <fix>3d</fix>
</trkpt>
<trkpt lat="33.810615" lon="-118.3935733">
  <ele>-20.122</ele>
  <time>2026-09-02T22:09:14Z</time>
  <course>156.98</course>
  <speed>0.02</speed>
  <fix>3d</fix>
</trkpt>
<trkpt lat="33.8106151" lon="-118.3935734">
  <ele>-19.24</ele>
  <time>2026-09-02T22:09:14Z</time>
  <course>88.46</course>
  <speed>0.0</speed>
  <fix>3d</fix>
</trkpt>
<trkpt lat="33.810615" lon="-118.3935732">
  <ele>-20.11</ele>
  <time>2026-09-02T22:09:14Z</time>
  <course>156.97</course>
  <speed>0.03</speed>
  <fix>3d</fix>
</trkpt>
<trkpt lat="33.8106151" lon="-118.3935734">
  <ele>-19.24</ele>
  <time>2026-09-02T22:09:14Z</time>
  <course>88.64</course>
  <speed>0.0</speed>
  <fix>3d</fix>
</trkpt>
<trkpt lat="33.810615" lon="-118.3935732">
  <ele>-20.073</ele>
  <time>2026-09-02T22:09:14Z</time>
  <course>156.96</course>
  <speed>0.03</speed>
  <fix>3d</fix>
</trkpt>
<trkpt lat="33.8106151" lon="-118.3935734">
  <ele>-19.24</ele>
  <time>2026-09-02T22:09:14Z</time>
  <course>88.64</course>
  <speed>0.0</speed>
  <fix>3d</fix>
</trkpt>
<trkpt lat="33.810615" lon="-118.3935732">
  <ele>-20.072</ele>
  <time>2026-09-02T22:09:14Z</time>
  <course>156.95</course>
  <speed>0.03</speed>
  <fix>3d</fix>
</trkpt>
<trkpt lat="33.810615" lon="-118.3935732">
  <ele>-20.014</ele>
  <time>2026-09-02T22:09:14Z</time>
  <course>156.94</course>
  <speed>0.03</speed>
  <fix>3d</fix>
</trkpt>
<trkpt lat="33.8106151" lon="-118.3935734">
  <ele>-19.21</ele>
  <time>2026-09-02T22:09:14Z</time>
  <course>89.81</course>
  <speed>0.0</speed>
  <fix>3d</fix>
</trkpt>
<trkpt lat="33.810615" lon="-118.3935732">
  <ele>-20.012</ele>
  <time>2026-09-02T22:09:14Z</time>
  <course>156.94</course>
  <speed>0.03</speed>
  <fix>3d</fix>
</trkpt>
<trkpt lat="33.810615" lon="-118.3935732">
  <ele>-19.934</ele>
  <time>2026-09-02T22:09:14Z</time>
  <course>156.93</course>
  <speed>0.03</speed>
  <fix>3d</fix>
</trkpt>
<trkpt lat="33.8106151" lon="-118.3935734">
  <ele>-19.21</ele>
  <time>2026-09-02T22:09:14Z</time>
  <course>89.81</course>
  <speed>0.0</speed>
  <fix>3d</fix>
</trkpt>
<trkpt lat="33.810615" lon="-118.3935732">
  <ele>-19.911</ele>
  <time>2026-09-02T22:09:14Z</time>
  <course>156.92</course>
  <speed>0.03</speed>
  <fix>3d</fix>
</trkpt>
<trkpt lat="33.810615" lon="-118.3935732">
  <ele>-19.834</ele>
  <time>2026-09-02T22:09:14Z</time>
  <course>156.91</course>
  <speed>0.03</speed>
  <fix>3d</fix>
</trkpt>
<trkpt lat="33.8106151" lon="-118.3935734">
  <ele>-19.11</ele>
  <time>2026-09-02T22:09:14Z</time>
  <course>92.6</course>
  <speed>0.0</speed>
  <fix>3d</fix>
</trkpt>
<trkpt lat="33.810615" lon="-118.3935732">
  <ele>-19.801</ele>
  <time>2026-09-02T22:09:14Z</time>
  <course>156.91</course>
  <speed>0.0316227766016838</speed>
  <fix>3d</fix>
</trkpt>
<trkpt lat="33.810615" lon="-118.3935732">
  <ele>-19.715</ele>
  <time>2026-09-02T22:09:14Z</time>
  <course>156.9</course>
  <speed>0.0316227766016838</speed>
  <fix>3d</fix>
</trkpt>
<trkpt lat="33.8106151" lon="-118.3935734">
  <ele>-19.11</ele>
  <time>2026-09-02T22:09:14Z</time>
  <course>92.6</course>
  <speed>0.0</speed>
  <fix>3d</fix>
</trkpt>
<trkpt lat="33.810615" lon="-118.3935732">
  <ele>-19.681</ele>
  <time>2026-09-02T22:09:14Z</time>
  <course>156.9</course>
  <speed>0.0316227766016838</speed>
  <fix>3d</fix>
</trkpt>
<trkpt lat="33.810615" lon="-118.3935732">
  <ele>-19.588</ele>
  <time>2026-09-02T22:09:14Z</time>
  <course>156.89</course>
  <speed>0.0316227766016838</speed>
  <fix>3d</fix>
</trkpt>
<trkpt lat="33.8106151" lon="-118.3935734">
  <ele>-18.93</ele>
  <time>2026-09-02T22:09:14Z</time>
  <course>95.96</course>
  <speed>0.0</speed>
  <fix>3d</fix>
</trkpt>
<trkpt lat="33.810615" lon="-118.3935732">
  <ele>-19.585</ele>
  <time>2026-09-02T22:09:14Z</time>
  <course>156.89</course>
  <speed>0.0316227766016838</speed>
  <fix>3d</fix>
</trkpt>
<trkpt lat="33.810615" lon="-118.3935732">
  <ele>-19.459</ele>
  <time>2026-09-02T22:09:14Z</time>
  <course>156.87</course>
  <speed>0.0316227766016838</speed>
  <fix>3d</fix>
</trkpt>
<trkpt lat="33.8106151" lon="-118.3935734">
  <ele>-18.93</ele>
  <time>2026-09-02T22:09:14Z</time>
  <course>95.96</course>
  <speed>0.0</speed>
  <fix>3d</fix>
</trkpt>
<trkpt lat="33.810615" lon="-118.3935732">
  <ele>-19.433</ele>
  <time>2026-09-02T22:09:14Z</time>
  <course>156.87</course>
  <speed>0.0316227766016838</speed>
  <fix>3d</fix>
</trkpt>
<trkpt lat="33.810615" lon="-118.3935732">
  <ele>-19.328</ele>
  <time>2026-09-02T22:09:14Z</time>
  <course>156.86</course>
  <speed>0.0316227766016838</speed>
  <fix>3d</fix>
</trkpt>
<trkpt lat="33.8106151" lon="-118.3935734">
  <ele>-18.7</ele>
  <time>2026-09-02T22:09:14Z</time>
  <course>97.69</course>
  <speed>0.0</speed>
  <fix>3d</fix>
</trkpt>
<trkpt lat="33.810615" lon="-118.3935732">
  <ele>-19.29</ele>
  <time>2026-09-02T22:09:14Z</time>
  <course>156.85</course>
  <speed>0.0316227766016838</speed>
  <fix>3d</fix>
</trkpt>
<trkpt lat="33.810615" lon="-118.3935732">
  <ele>-19.198</ele>
  <time>2026-09-02T22:09:14Z</time>
  <course>156.84</course>
  <speed>0.0316227766016838</speed>
  <fix>3d</fix>
</trkpt>
<trkpt lat="33.8106151" lon="-118.3935734">
  <ele>-18.7</ele>
  <time>2026-09-02T22:09:14Z</time>
  <course>97.69</course>
  <speed>0.0</speed>
  <fix>3d</fix>
</trkpt>
<trkpt lat="33.810615" lon="-118.3935732">
  <ele>-19.159</ele>
  <time>2026-09-02T22:09:14Z</time>
  <course>156.84</course>
  <speed>0.0316227766016838</speed>
  <fix>3d</fix>
</trkpt>
<trkpt lat="33.810615" lon="-118.3935732">
  <ele>-19.068</ele>
  <time>2026-09-02T22:09:14Z</time>
  <course>156.83</course>
  <speed>0.022360679774997897</speed>
  <fix>3d</fix>
</trkpt>
<trkpt lat="33.8106151" lon="-118.3935734">
  <ele>-18.46</ele>
  <time>2026-09-02T22:09:14Z</time>
  <course>97.77</course>
  <speed>0.0</speed>
  <fix>3d</fix>
</trkpt>
<trkpt lat="33.810615" lon="-118.3935732">
  <ele>-19.035</ele>
  <time>2026-09-02T22:09:14Z</time>
  <course>156.83</course>
  <speed>0.022360679774997897</speed>
  <fix>3d</fix>
</trkpt>
<trkpt lat="33.810615" lon="-118.3935732">
  <ele>-18.937</ele>
  <time>2026-09-02T22:09:15Z</time>
  <course>156.82</course>
  <speed>0.022360679774997897</speed>
  <fix>3d</fix>
</trkpt>
<trkpt lat="33.8106151" lon="-118.3935734">
  <ele>-18.46</ele>
  <time>2026-09-02T22:09:15Z</time>
  <course>97.77</course>
  <speed>0.0</speed>
  <fix>3d</fix>
</trkpt>
<trkpt lat="33.810615" lon="-118.3935732">
  <ele>-18.898</ele>
  <time>2026-09-02T22:09:15Z</time>
  <course>156.81</course>
  <speed>0.022360679774997897</speed>
  <fix>3d</fix>
</trkpt>
<trkpt lat="33.810615" lon="-118.3935732">
  <ele>-18.807</ele>
  <time>2026-09-02T22:09:15Z</time>
  <course>156.8</course>
  <speed>0.022360679774997897</speed>
  <fix>3d</fix>
</trkpt>
<trkpt lat="33.8106151" lon="-118.3935734">
  <ele>-18.21</ele>
  <time>2026-09-02T22:09:15Z</time>
  <course>97.82</course>
  <speed>0.0</speed>
  <fix>3d</fix>
</trkpt>
<trkpt lat="33.810615" lon="-118.3935732">
  <ele>-18.769</ele>
  <time>2026-09-02T22:09:15Z</time>
  <course>156.8</course>
  <speed>0.022360679774997897</speed>
  <fix>3d</fix>
</trkpt>
<trkpt lat="33.810615" lon="-118.3935732">
  <ele>-18.678</ele>
  <time>2026-09-02T22:09:15Z</time>
  <course>156.79</course>
  <speed>0.022360679774997897</speed>
  <fix>3d</fix>
</trkpt>
<trkpt lat="33.8106151" lon="-118.3935734">
  <ele>-18.21</ele>
  <time>2026-09-02T22:09:15Z</time>
  <course>97.82</course>
  <speed>0.0</speed>
  <fix>3d</fix>
</trkpt>
<trkpt lat="33.810615" lon="-118.3935732">
  <ele>-18.676</ele>
  <time>2026-09-02T22:09:15Z</time>
  <course>156.79</course>
  <speed>0.022360679774997897</speed>
  <fix>3d</fix>
</trkpt>
<trkpt lat="33.810615" lon="-118.3935732">
  <ele>-18.549</ele>
  <time>2026-09-02T22:09:15Z</time>
  <course>156.78</course>
  <speed>0.022360679774997897</speed>
  <fix>3d</fix>
</trkpt>
<trkpt lat="33.8106151" lon="-118.3935734">
  <ele>-17.97</ele>
  <time>2026-09-02T22:09:15Z</time>
  <course>97.93</course>
  <speed>0.0</speed>
  <fix>3d</fix>
</trkpt>
<trkpt lat="33.810615" lon="-118.3935732">
  <ele>-18.509</ele>
  <time>2026-09-02T22:09:15Z</time>
  <course>156.77</course>
  <speed>0.022360679774997897</speed>
  <fix>3d</fix>
</trkpt>
<trkpt lat="33.810615" lon="-118.3935732">
  <ele>-18.421</ele>
  <time>2026-09-02T22:09:15Z</time>
  <course>156.77</course>
  <speed>0.022360679774997897</speed>
  <fix>3d</fix>
</trkpt>
<trkpt lat="33.8106151" lon="-118.3935734">
  <ele>-17.97</ele>
  <time>2026-09-02T22:09:15Z</time>
  <course>97.93</course>
  <speed>0.0</speed>
  <fix>3d</fix>
</trkpt>
<trkpt lat="33.810615" lon="-118.3935732">
  <ele>-18.389</ele>
  <time>2026-09-02T22:09:15Z</time>
  <course>156.76</course>
  <speed>0.022360679774997897</speed>
  <fix>3d</fix>
</trkpt>
<trkpt lat="33.810615" lon="-118.3935732">
  <ele>-18.294</ele>
  <time>2026-09-02T22:09:15Z</time>
  <course>156.75</course>
  <speed>0.022360679774997897</speed>
  <fix>3d</fix>
</trkpt>
<trkpt lat="33.8106151" lon="-118.3935734">
  <ele>-17.72</ele>
  <time>2026-09-02T22:09:15Z</time>
  <course>98.05</course>
  <speed>0.0</speed>
  <fix>3d</fix>
</trkpt>
<trkpt lat="33.810615" lon="-118.3935732">
  <ele>-18.252</ele>
  <time>2026-09-02T22:09:15Z</time>
  <course>156.75</course>
  <speed>0.022360679774997897</speed>
  <fix>3d</fix>
</trkpt>
<trkpt lat="33.810615" lon="-118.3935732">
  <ele>-18.166</ele>
  <time>2026-09-02T22:09:15Z</time>
  <course>156.74</course>
  <speed>0.022360679774997897</speed>
  <fix>3d</fix>
</trkpt>
<trkpt lat="33.8106151" lon="-118.3935734">
  <ele>-17.72</ele>
  <time>2026-09-02T22:09:15Z</time>
  <course>98.05</course>
  <speed>0.0</speed>
  <fix>3d</fix>
</trkpt>
<trkpt lat="33.810615" lon="-118.3935731">
  <ele>-18.128</ele>
  <time>2026-09-02T22:09:15Z</time>
  <course>156.74</course>
  <speed>0.022360679774997897</speed>
  <fix>3d</fix>
</trkpt>
<trkpt lat="33.810615" lon="-118.3935732">
  <ele>-18.039</ele>
  <time>2026-09-02T22:09:15Z</time>
  <course>156.73</course>
  <speed>0.022360679774997897</speed>
  <fix>3d</fix>
</trkpt>
<trkpt lat="33.8106151" lon="-118.3935734">
  <ele>-17.48</ele>
  <time>2026-09-02T22:09:15Z</time>
  <course>98.12</course>
  <speed>0.0</speed>
  <fix>3d</fix>
</trkpt>
<trkpt lat="33.810615" lon="-118.3935732">
  <ele>-18.036</ele>
  <time>2026-09-02T22:09:15Z</time>
  <course>156.73</course>
  <speed>0.022360679774997897</speed>
  <fix>3d</fix>
</trkpt>
<trkpt lat="33.810615" lon="-118.3935732">
  <ele>-17.911</ele>
  <time>2026-09-02T22:09:15Z</time>
  <course>156.71</course>
  <speed>0.022360679774997897</speed>
  <fix>3d</fix>
</trkpt>
<trkpt lat="33.8106151" lon="-118.3935734">
  <ele>-17.48</ele>
  <time>2026-09-02T22:09:15Z</time>
  <course>98.12</course>
  <speed>0.0</speed>
  <fix>3d</fix>
</trkpt>
<trkpt lat="33.810615" lon="-118.3935731">
  <ele>-17.873</ele>
  <time>2026-09-02T22:09:15Z</time>
  <course>156.71</course>
  <speed>0.022360679774997897</speed>
  <fix>3d</fix>
</trkpt>
<trkpt lat="33.810615" lon="-118.3935732">
  <ele>-17.784</ele>
  <time>2026-09-02T22:09:15Z</time>
  <course>156.7</course>
  <speed>0.022360679774997897</speed>
  <fix>3d</fix>
</trkpt>
<trkpt lat="33.8106151" lon="-118.3935734">
  <ele>-17.23</ele>
  <time>2026-09-02T22:09:15Z</time>
  <course>98.13</course>
  <speed>0.0</speed>
  <fix>3d</fix>
</trkpt>
<trkpt lat="33.810615" lon="-118.3935732">
  <ele>-17.745</ele>
  <time>2026-09-02T22:09:15Z</time>
  <course>156.7</course>
  <speed>0.022360679774997897</speed>
  <fix>3d</fix>
</trkpt>
<trkpt lat="33.810615" lon="-118.3935732">
  <ele>-17.656</ele>
  <time>2026-09-02T22:09:15Z</time>
  <course>156.69</course>
  <speed>0.022360679774997897</speed>
  <fix>3d</fix>
</trkpt>
<trkpt lat="33.8106151" lon="-118.3935734">
  <ele>-17.23</ele>
  <time>2026-09-02T22:09:15Z</time>
  <course>98.13</course>
  <speed>0.0</speed>
  <fix>3d</fix>
</trkpt>
<trkpt lat="33.810615" lon="-118.3935731">
  <ele>-17.618</ele>
  <time>2026-09-02T22:09:15Z</time>
  <course>156.68</course>
  <speed>0.022360679774997897</speed>
  <fix>3d</fix>
</trkpt>
<trkpt lat="33.810615" lon="-118.3935732">
  <ele>-17.53</ele>
  <time>2026-09-02T22:09:15Z</time>
  <course>156.68</course>
  <speed>0.022360679774997897</speed>
  <fix>3d</fix>
</trkpt>
<trkpt lat="33.8106151" lon="-118.3935734">
  <ele>-16.98</ele>
  <time>2026-09-02T22:09:15Z</time>
  <course>98.12</course>
  <speed>0.0</speed>
  <fix>3d</fix>
</trkpt>
<trkpt lat="33.810615" lon="-118.3935731">
  <ele>-17.505</ele>
  <time>2026-09-02T22:09:15Z</time>
  <course>156.67</course>
  <speed>0.022360679774997897</speed>
  <fix>3d</fix>
</trkpt>
<trkpt lat="33.810615" lon="-118.3935732">
  <ele>-17.403</ele>
  <time>2026-09-02T22:09:15Z</time>
  <course>156.66</course>
  <speed>0.022360679774997897</speed>
  <fix>3d</fix>
</trkpt>
<trkpt lat="33.8106151" lon="-118.3935734">
  <ele>-16.98</ele>
  <time>2026-09-02T22:09:15Z</time>
  <course>98.12</course>
  <speed>0.0</speed>
  <fix>3d</fix>
</trkpt>
<trkpt lat="33.810615" lon="-118.3935731">
  <ele>-17.362</ele>
  <time>2026-09-02T22:09:15Z</time>
  <course>156.66</course>
  <speed>0.022360679774997897</speed>
  <fix>3d</fix>
</trkpt>
<trkpt lat="33.810615" lon="-118.3935732">
  <ele>-17.277</ele>
  <time>2026-09-02T22:09:15Z</time>
  <course>156.65</course>
  <speed>0.02</speed>
  <fix>3d</fix>
</trkpt>
<trkpt lat="33.8106151" lon="-118.3935734">
  <ele>-16.74</ele>
  <time>2026-09-02T22:09:15Z</time>
  <course>98.14</course>
  <speed>0.0</speed>
  <fix>3d</fix>
</trkpt>
<trkpt lat="33.810615" lon="-118.3935732">
  <ele>-17.273</ele>
  <time>2026-09-02T22:09:15Z</time>
  <course>156.65</course>
  <speed>0.02</speed>
  <fix>3d</fix>
</trkpt>
<trkpt lat="33.810615" lon="-118.3935732">
  <ele>-17.151</ele>
  <time>2026-09-02T22:09:15Z</time>
  <course>156.64</course>
  <speed>0.02</speed>
  <fix>3d</fix>
</trkpt>
<trkpt lat="33.8106151" lon="-118.3935734">
  <ele>-16.74</ele>
  <time>2026-09-02T22:09:15Z</time>
  <course>98.14</course>
  <speed>0.0</speed>
  <fix>3d</fix>
</trkpt>
<trkpt lat="33.810615" lon="-118.3935731">
  <ele>-17.126</ele>
  <time>2026-09-02T22:09:15Z</time>
  <course>156.64</course>
  <speed>0.022360679774997897</speed>
  <fix>3d</fix>
</trkpt>
<trkpt lat="33.810615" lon="-118.3935732">
  <ele>-17.026</ele>
  <time>2026-09-02T22:09:15Z</time>
  <course>156.63</course>
  <speed>0.022360679774997897</speed>
  <fix>3d</fix>
</trkpt>
<trkpt lat="33.8106151" lon="-118.3935734">
  <ele>-16.49</ele>
  <time>2026-09-02T22:09:15Z</time>
  <course>98.23</course>
  <speed>0.0</speed>
  <fix>3d</fix>
</trkpt>
<trkpt lat="33.810615" lon="-118.3935732">
  <ele>-16.989</ele>
  <time>2026-09-02T22:09:15Z</time>
  <course>156.62</course>
  <speed>0.022360679774997897</speed>
  <fix>3d</fix>
</trkpt>
<trkpt lat="33.810615" lon="-118.3935732">
  <ele>-16.901</ele>
  <time>2026-09-02T22:09:15Z</time>
  <course>156.61</course>
  <speed>0.022360679774997897</speed>
  <fix>3d</fix>
</trkpt>
<trkpt lat="33.8106151" lon="-118.3935734">
  <ele>-16.49</ele>
  <time>2026-09-02T22:09:15Z</time>
  <course>98.23</course>
  <speed>0.0</speed>
  <fix>3d</fix>
</trkpt>
<trkpt lat="33.810615" lon="-118.3935732">
  <ele>-16.87</ele>
  <time>2026-09-02T22:09:15Z</time>
  <course>156.61</course>
  <speed>0.022360679774997897</speed>
  <fix>3d</fix>
</trkpt>
<trkpt lat="33.810615" lon="-118.3935732">
  <ele>-16.775</ele>
  <time>2026-09-02T22:09:15Z</time>
  <course>156.6</course>
  <speed>0.022360679774997897</speed>
  <fix>3d</fix>
</trkpt>
<trkpt lat="33.8106151" lon="-118.3935734">
  <ele>-16.25</ele>
  <time>2026-09-02T22:09:15Z</time>
  <course>98.33</course>
  <speed>0.0</speed>
  <fix>3d</fix>
</trkpt>
<trkpt lat="33.810615" lon="-118.3935732">
  <ele>-16.737</ele>
  <time>2026-09-02T22:09:15Z</time>
  <course>156.6</course>
  <speed>0.022360679774997897</speed>
  <fix>3d</fix>
</trkpt>
<trkpt lat="33.810615" lon="-118.3935732">
  <ele>-16.649</ele>
  <time>2026-09-02T22:09:15Z</time>
  <course>156.59</course>
  <speed>0.022360679774997897</speed>
  <fix>3d</fix>
</trkpt>
<trkpt lat="33.8106151" lon="-118.3935734">
  <ele>-16.25</ele>
  <time>2026-09-02T22:09:15Z</time>
  <course>98.33</course>
  <speed>0.0</speed>
  <fix>3d</fix>
</trkpt>
<trkpt lat="33.810615" lon="-118.3935732">
  <ele>-16.601</ele>
  <time>2026-09-02T22:09:15Z</time>
  <course>156.58</course>
  <speed>0.022360679774997897</speed>
  <fix>3d</fix>
</trkpt>
<trkpt lat="33.810615" lon="-118.3935732">
  <ele>-16.523</ele>
  <time>2026-09-02T22:09:15Z</time>
  <course>156.58</course>
  <speed>0.022360679774997897</speed>
  <fix>3d</fix>
</trkpt>
<trkpt lat="33.8106151" lon="-118.3935734">
  <ele>-16.0</ele>
  <time>2026-09-02T22:09:15Z</time>
  <course>98.4</course>
  <speed>0.0</speed>
  <fix>3d</fix>
</trkpt>
<trkpt lat="33.810615" lon="-118.3935732">
  <ele>-16.479</ele>
  <time>2026-09-02T22:09:15Z</time>
  <course>156.57</course>
  <speed>0.02</speed>
  <fix>3d</fix>
</trkpt>
<trkpt lat="33.810615" lon="-118.3935732">
  <ele>-16.398</ele>
  <time>2026-09-02T22:09:15Z</time>
  <course>156.56</course>
  <speed>0.022360679774997897</speed>
  <fix>3d</fix>
</trkpt>
<trkpt lat="33.8106151" lon="-118.3935734">
  <ele>-16.0</ele>
  <time>2026-09-02T22:09:15Z</time>
  <course>98.4</course>
  <speed>0.0</speed>
  <fix>3d</fix>
</trkpt>
<trkpt lat="33.810615" lon="-118.3935732">
  <ele>-16.36</ele>
  <time>2026-09-02T22:09:15Z</time>
  <course>156.56</course>
  <speed>0.022360679774997897</speed>
  <fix>3d</fix>
</trkpt>
<trkpt lat="33.810615" lon="-118.3935732">
  <ele>-16.274</ele>
  <time>2026-09-02T22:09:15Z</time>
  <course>156.55</course>
  <speed>0.022360679774997897</speed>
  <fix>3d</fix>
</trkpt>
<trkpt lat="33.8106151" lon="-118.3935734">
  <ele>-15.76</ele>
  <time>2026-09-02T22:09:15Z</time>
  <course>98.43</course>
  <speed>0.0</speed>
  <fix>3d</fix>
</trkpt>
<trkpt lat="33.810615" lon="-118.3935732">
  <ele>-16.241</ele>
  <time>2026-09-02T22:09:15Z</time>
  <course>156.55</course>
  <speed>0.022360679774997897</speed>
  <fix>3d</fix>
</trkpt>
<trkpt lat="33.810615" lon="-118.3935732">
  <ele>-16.15</ele>
  <time>2026-09-02T22:09:15Z</time>
  <course>156.54</course>
  <speed>0.022360679774997897</speed>
  <fix>3d</fix>
</trkpt>
<trkpt lat="33.8106151" lon="-118.3935734">
  <ele>-15.76</ele>
  <time>2026-09-02T22:09:15Z</time>
  <course>98.43</course>
  <speed>0.0</speed>
  <fix>3d</fix>
</trkpt>
<trkpt lat="33.810615" lon="-118.3935732">
  <ele>-16.111</ele>
  <time>2026-09-02T22:09:15Z</time>
  <course>156.54</course>
  <speed>0.022360679774997897</speed>
  <fix>3d</fix>
</trkpt>
<trkpt lat="33.810615" lon="-118.3935732">
  <ele>-16.025</ele>
  <time>2026-09-02T22:09:15Z</time>
  <course>156.53</course>
  <speed>0.02</speed>
  <fix>3d</fix>
</trkpt>
<trkpt lat="33.8106151" lon="-118.3935734">
  <ele>-15.51</ele>
  <time>2026-09-02T22:09:15Z</time>
  <course>98.44</course>
  <speed>0.0</speed>
  <fix>3d</fix>
</trkpt>
<trkpt lat="33.810615" lon="-118.3935732">
  <ele>-16.0</ele>
  <time>2026-09-02T22:09:15Z</time>
  <course>156.53</course>
  <speed>0.022360679774997897</speed>
  <fix>3d</fix>
</trkpt>
<trkpt lat="33.810615" lon="-118.3935732">
  <ele>-15.9</ele>
  <time>2026-09-02T22:09:15Z</time>
  <course>156.52</course>
  <speed>0.02</speed>
  <fix>3d</fix>
</trkpt>
<trkpt lat="33.8106151" lon="-118.3935734">
  <ele>-15.51</ele>
  <time>2026-09-02T22:09:15Z</time>
  <course>98.44</course>
  <speed>0.0</speed>
  <fix>3d</fix>
</trkpt>
<trkpt lat="33.810615" lon="-118.3935732">
  <ele>-15.898</ele>
  <time>2026-09-02T22:09:15Z</time>
  <course>156.52</course>
  <speed>0.02</speed>
  <fix>3d</fix>
</trkpt>
<trkpt lat="33.810615" lon="-118.3935732">
  <ele>-15.774</ele>
  <time>2026-09-02T22:09:15Z</time>
  <course>156.5</course>
  <speed>0.02</speed>
  <fix>3d</fix>
</trkpt>
<trkpt lat="33.8106151" lon="-118.3935734">
  <ele>-15.27</ele>
  <time>2026-09-02T22:09:15Z</time>
  <course>98.45</course>
  <speed>0.0</speed>
  <fix>3d</fix>
</trkpt>
<trkpt lat="33.810615" lon="-118.3935732">
  <ele>-15.733</ele>
  <time>2026-09-02T22:09:15Z</time>
  <course>156.5</course>
  <speed>0.022360679774997897</speed>
  <fix>3d</fix>
</trkpt>
<trkpt lat="33.810615" lon="-118.3935732">
  <ele>-15.648</ele>
  <time>2026-09-02T22:09:15Z</time>
  <course>156.49</course>
  <speed>0.02</speed>
  <fix>3d</fix>
</trkpt>
<trkpt lat="33.8106151" lon="-118.3935734">
  <ele>-15.27</ele>
  <time>2026-09-02T22:09:15Z</time>
  <course>98.45</course>
  <speed>0.0</speed>
  <fix>3d</fix>
</trkpt>
<trkpt lat="33.810615" lon="-118.3935732">
  <ele>-15.61</ele>
  <time>2026-09-02T22:09:15Z</time>
  <course>156.49</course>
  <speed>0.022360679774997897</speed>
  <fix>3d</fix>
</trkpt>
<trkpt lat="33.810615" lon="-118.3935732">
  <ele>-15.522</ele>
  <time>2026-09-02T22:09:15Z</time>
  <course>156.48</course>
  <speed>0.02</speed>
  <fix>3d</fix>
</trkpt>
<trkpt lat="33.8106151" lon="-118.3935733">
  <ele>-15.02</ele>
  <time>2026-09-02T22:09:15Z</time>
  <course>98.51</course>
  <speed>0.0</speed>
  <fix>3d</fix>
</trkpt>
<trkpt lat="33.810615" lon="-118.3935732">
  <ele>-15.488</ele>
  <time>2026-09-02T22:09:15Z</time>
  <course>156.48</course>
  <speed>0.02</speed>
  <fix>3d</fix>
</trkpt>
<trkpt lat="33.810615" lon="-118.3935732">
  <ele>-15.398</ele>
  <time>2026-09-02T22:09:15Z</time>
  <course>156.47</course>
  <speed>0.02</speed>
  <fix>3d</fix>
</trkpt>
<trkpt lat="33.8106151" lon="-118.3935733">
  <ele>-15.02</ele>
  <time>2026-09-02T22:09:15Z</time>
  <course>98.51</course>
  <speed>0.0</speed>
  <fix>3d</fix>
</trkpt>
<trkpt lat="33.810615" lon="-118.3935732">
  <ele>-15.363</ele>
  <time>2026-09-02T22:09:15Z</time>
  <course>156.47</course>
  <speed>0.02</speed>
  <fix>3d</fix>
</trkpt>
<trkpt lat="33.810615" lon="-118.3935732">
  <ele>-15.274</ele>
  <time>2026-09-02T22:09:15Z</time>
  <course>156.46</course>
  <speed>0.02</speed>
  <fix>3d</fix>
</trkpt>
<trkpt lat="33.8106151" lon="-118.3935733">
  <ele>-14.78</ele>
  <time>2026-09-02T22:09:15Z</time>
  <course>98.58</course>
  <speed>0.0</speed>
  <fix>3d</fix>
</trkpt>
<trkpt lat="33.810615" lon="-118.3935732">
  <ele>-15.237</ele>
  <time>2026-09-02T22:09:15Z</time>
  <course>156.45</course>
  <speed>0.02</speed>
  <fix>3d</fix>
</trkpt>
<trkpt lat="33.810615" lon="-118.3935732">
  <ele>-15.15</ele>
  <time>2026-09-02T22:09:15Z</time>
  <course>156.45</course>
  <speed>0.02</speed>
  <fix>3d</fix>
</trkpt>
<trkpt lat="33.8106151" lon="-118.3935733">
  <ele>-14.78</ele>
  <time>2026-09-02T22:09:15Z</time>
  <course>98.58</course>
  <speed>0.0</speed>
  <fix>3d</fix>
</trkpt>
<trkpt lat="33.810615" lon="-118.3935731">
  <ele>-15.112</ele>
  <time>2026-09-02T22:09:15Z</time>
  <course>156.44</course>
  <speed>0.02</speed>
  <fix>3d</fix>
</trkpt>
<trkpt lat="33.810615" lon="-118.3935731">
  <ele>-15.025</ele>
  <time>2026-09-02T22:09:15Z</time>
  <course>156.43</course>
  <speed>0.02</speed>
  <fix>3d</fix>
</trkpt>
<trkpt lat="33.8106151" lon="-118.3935733">
  <ele>-14.53</ele>
  <time>2026-09-02T22:09:15Z</time>
  <course>98.65</course>
  <speed>0.0</speed>
  <fix>3d</fix>
</trkpt>
<trkpt lat="33.810615" lon="-118.3935731">
  <ele>-14.987</ele>
  <time>2026-09-02T22:09:15Z</time>
  <course>156.43</course>
  <speed>0.02</speed>
  <fix>3d</fix>
</trkpt>
<trkpt lat="33.810615" lon="-118.3935731">
  <ele>-14.9</ele>
  <time>2026-09-02T22:09:15Z</time>
  <course>156.42</course>
  <speed>0.02</speed>
  <fix>3d</fix>
</trkpt>
<trkpt lat="33.8106151" lon="-118.3935733">
  <ele>-14.53</ele>
  <time>2026-09-02T22:09:15Z</time>
  <course>98.65</course>
  <speed>0.0</speed>
  <fix>3d</fix>
</trkpt>
<trkpt lat="33.810615" lon="-118.3935731">
  <ele>-14.859</ele>
  <time>2026-09-02T22:09:15Z</time>
  <course>156.42</course>
  <speed>0.02</speed>
  <fix>3d</fix>
</trkpt>
<trkpt lat="33.810615" lon="-118.3935731">
  <ele>-14.775</ele>
  <time>2026-09-02T22:09:15Z</time>
  <course>156.41</course>
  <speed>0.02</speed>
  <fix>3d</fix>
</trkpt>
<trkpt lat="33.8106151" lon="-118.3935733">
  <ele>-14.29</ele>
  <time>2026-09-02T22:09:15Z</time>
  <course>98.7</course>
  <speed>0.0</speed>
  <fix>3d</fix>
</trkpt>
<trkpt lat="33.810615" lon="-118.3935731">
  <ele>-14.771</ele>
  <time>2026-09-02T22:09:15Z</time>
  <course>156.41</course>
  <speed>0.02</speed>
  <fix>3d</fix>
</trkpt>
<trkpt lat="33.810615" lon="-118.3935731">
  <ele>-14.65</ele>
  <time>2026-09-02T22:09:15Z</time>
  <course>156.4</course>
  <speed>0.02</speed>
  <fix>3d</fix>
</trkpt>
<trkpt lat="33.8106151" lon="-118.3935733">
  <ele>-14.29</ele>
  <time>2026-09-02T22:09:15Z</time>
  <course>98.7</course>
  <speed>0.0</speed>
  <fix>3d</fix>
</trkpt>
<trkpt lat="33.810615" lon="-118.3935731">
  <ele>-14.647</ele>
  <time>2026-09-02T22:09:15Z</time>
  <course>156.4</course>
  <speed>0.02</speed>
  <fix>3d</fix>
</trkpt>
<trkpt lat="33.810615" lon="-118.3935731">
  <ele>-14.524</ele>
  <time>2026-09-02T22:09:15Z</time>
  <course>156.39</course>
  <speed>0.02</speed>
  <fix>3d</fix>
</trkpt>
<trkpt lat="33.8106151" lon="-118.3935733">
  <ele>-14.04</ele>
  <time>2026-09-02T22:09:15Z</time>
  <course>98.73</course>
  <speed>0.0</speed>
  <fix>3d</fix>
</trkpt>
<trkpt lat="33.810615" lon="-118.3935731">
  <ele>-14.495</ele>
  <time>2026-09-02T22:09:15Z</time>
  <course>156.39</course>
  <speed>0.02</speed>
  <fix>3d</fix>
</trkpt>
<trkpt lat="33.810615" lon="-118.3935731">
  <ele>-14.398</ele>
  <time>2026-09-02T22:09:15Z</time>
  <course>156.38</course>
  <speed>0.02</speed>
  <fix>3d</fix>
</trkpt>
<trkpt lat="33.8106151" lon="-118.3935733">
  <ele>-14.04</ele>
  <time>2026-09-02T22:09:15Z</time>
  <course>98.73</course>
  <speed>0.0</speed>
  <fix>3d</fix>
</trkpt>
<trkpt lat="33.810615" lon="-118.3935731">
  <ele>-14.36</ele>
  <time>2026-09-02T22:09:15Z</time>
  <course>156.37</course>
  <speed>0.02</speed>
  <fix>3d</fix>
</trkpt>
<trkpt lat="33.810615" lon="-118.3935731">
  <ele>-14.272</ele>
  <time>2026-09-02T22:09:15Z</time>
  <course>156.37</course>
  <speed>0.02</speed>
  <fix>3d</fix>
</trkpt>
<trkpt lat="33.8106151" lon="-118.3935733">
  <ele>-13.8</ele>
  <time>2026-09-02T22:09:15Z</time>
  <course>98.76</course>
  <speed>0.0</speed>
  <fix>3d</fix>
</trkpt>
<trkpt lat="33.810615" lon="-118.3935731">
  <ele>-14.234</ele>
  <time>2026-09-02T22:09:15Z</time>
  <course>156.36</course>
  <speed>0.02</speed>
  <fix>3d</fix>
</trkpt>
<trkpt lat="33.810615" lon="-118.3935731">
  <ele>-14.147</ele>
  <time>2026-09-02T22:09:15Z</time>
  <course>156.35</course>
  <speed>0.02</speed>
  <fix>3d</fix>
</trkpt>
<trkpt lat="33.8106151" lon="-118.3935733">
  <ele>-13.8</ele>
  <time>2026-09-02T22:09:15Z</time>
  <course>98.76</course>
  <speed>0.0</speed>
  <fix>3d</fix>
</trkpt>
<trkpt lat="33.810615" lon="-118.3935731">
  <ele>-14.116</ele>
  <time>2026-09-02T22:09:15Z</time>
  <course>156.35</course>
  <speed>0.02</speed>
  <fix>3d</fix>
</trkpt>
<trkpt lat="33.810615" lon="-118.3935731">
  <ele>-14.022</ele>
  <time>2026-09-02T22:09:15Z</time>
  <course>156.34</course>
  <speed>0.02</speed>
  <fix>3d</fix>
</trkpt>
<trkpt lat="33.8106151" lon="-118.3935733">
  <ele>-13.55</ele>
  <time>2026-09-02T22:09:15Z</time>
  <course>98.79</course>
  <speed>0.0</speed>
  <fix>3d</fix>
</trkpt>
<trkpt lat="33.810615" lon="-118.3935731">
  <ele>-13.984</ele>
  <time>2026-09-02T22:09:15Z</time>
  <course>156.34</course>
  <speed>0.02</speed>
  <fix>3d</fix>
</trkpt>
<trkpt lat="33.810615" lon="-118.3935731">
  <ele>-13.895</ele>
  <time>2026-09-02T22:09:15Z</time>
  <course>156.33</course>
  <speed>0.02</speed>
  <fix>3d</fix>
</trkpt>
<trkpt lat="33.8106151" lon="-118.3935733">
  <ele>-13.55</ele>
  <time>2026-09-02T22:09:15Z</time>
  <course>98.79</course>
  <speed>0.0</speed>
  <fix>3d</fix>
</trkpt>
<trkpt lat="33.810615" lon="-118.3935731">
  <ele>-13.769</ele>
  <time>2026-09-02T22:09:15Z</time>
  <course>156.32</course>
  <speed>0.02</speed>
  <fix>3d</fix>
</trkpt>
<trkpt lat="33.8106151" lon="-118.3935733">
  <ele>-13.3</ele>
  <time>2026-09-02T22:09:15Z</time>
  <course>98.84</course>
  <speed>0.0</speed>
  <fix>3d</fix>
</trkpt>
<trkpt lat="33.810615" lon="-118.3935731">
  <ele>-13.642</ele>
  <time>2026-09-02T22:09:15Z</time>
  <course>156.31</course>
  <speed>0.02</speed>
  <fix>3d</fix>
</trkpt>
<trkpt lat="33.8106151" lon="-118.3935733">
  <ele>-13.3</ele>
  <time>2026-09-02T22:09:15Z</time>
  <course>98.84</course>
  <speed>0.0</speed>
  <fix>3d</fix>
</trkpt>
<trkpt lat="33.810615" lon="-118.3935731">
  <ele>-13.518</ele>
  <time>2026-09-02T22:09:15Z</time>
  <course>156.3</course>
  <speed>0.02</speed>
  <fix>3d</fix>
</trkpt>
<trkpt lat="33.8106151" lon="-118.3935733">
  <ele>-13.06</ele>
  <time>2026-09-02T22:09:15Z</time>
  <course>98.89</course>
  <speed>0.0</speed>
  <fix>3d</fix>
</trkpt>
<trkpt lat="33.810615" lon="-118.3935731">
  <ele>-13.398</ele>
  <time>2026-09-02T22:09:15Z</time>
  <course>156.29</course>
  <speed>0.02</speed>
  <fix>3d</fix>
</trkpt>
<trkpt lat="33.8106151" lon="-118.3935733">
  <ele>-13.06</ele>
  <time>2026-09-02T22:09:15Z</time>
  <course>98.89</course>
  <speed>0.0</speed>
  <fix>3d</fix>
</trkpt>
<trkpt lat="33.810615" lon="-118.3935731">
  <ele>-13.288</ele>
  <time>2026-09-02T22:09:15Z</time>
  <course>156.28</course>
  <speed>0.02</speed>
  <fix>3d</fix>
</trkpt>
<trkpt lat="33.8106151" lon="-118.3935733">
  <ele>-12.82</ele>
  <time>2026-09-02T22:09:15Z</time>
  <course>97.8</course>
  <speed>0.0</speed>
  <fix>3d</fix>
</trkpt>
<trkpt lat="33.810615" lon="-118.3935731">
  <ele>-13.193</ele>
  <time>2026-09-02T22:09:15Z</time>
  <course>156.27</course>
  <speed>0.02</speed>
  <fix>3d</fix>
</trkpt>
<trkpt lat="33.8106151" lon="-118.3935733">
  <ele>-12.82</ele>
  <time>2026-09-02T22:09:15Z</time>
  <course>97.8</course>
  <speed>0.0</speed>
  <fix>3d</fix>
</trkpt>
<trkpt lat="33.810615" lon="-118.3935731">
  <ele>-13.114</ele>
  <time>2026-09-02T22:09:15Z</time>
  <course>156.25</course>
  <speed>0.02</speed>
  <fix>3d</fix>
</trkpt>
<trkpt lat="33.8106151" lon="-118.3935733">
  <ele>-12.61</ele>
  <time>2026-09-02T22:09:15Z</time>
  <course>93.71</course>
  <speed>0.0</speed>
  <fix>3d</fix>
</trkpt>
<trkpt lat="33.810615" lon="-118.3935731">
  <ele>-13.051</ele>
  <time>2026-09-02T22:09:15Z</time>
  <course>156.24</course>
  <speed>0.02</speed>
  <fix>3d</fix>
</trkpt>
<trkpt lat="33.8106151" lon="-118.3935733">
  <ele>-12.61</ele>
  <time>2026-09-02T22:09:15Z</time>
  <course>93.71</course>
  <speed>0.0</speed>
  <fix>3d</fix>
</trkpt>
<trkpt lat="33.810615" lon="-118.3935731">
  <ele>-13.004</ele>
  <time>2026-09-02T22:09:15Z</time>
  <course>156.23</course>
  <speed>0.02</speed>
  <fix>3d</fix>
</trkpt>
<trkpt lat="33.8106151" lon="-118.3935733">
  <ele>-12.45</ele>
  <time>2026-09-02T22:09:15Z</time>
  <course>89.1</course>
  <speed>0.0</speed>
  <fix>3d</fix>
</trkpt>
<trkpt lat="33.810615" lon="-118.3935731">
  <ele>-12.969</ele>
  <time>2026-09-02T22:09:15Z</time>
  <course>156.22</course>
  <speed>0.02</speed>
  <fix>3d</fix>
</trkpt>
<trkpt lat="33.8106151" lon="-118.3935733">
  <ele>-12.45</ele>
  <time>2026-09-02T22:09:15Z</time>
  <course>89.1</course>
  <speed>0.0</speed>
  <fix>3d</fix>
</trkpt>
<trkpt lat="33.810615" lon="-118.3935731">
  <ele>-12.944</ele>
  <time>2026-09-02T22:09:15Z</time>
  <course>156.21</course>
  <speed>0.02</speed>
  <fix>3d</fix>
</trkpt>
<trkpt lat="33.8106151" lon="-118.3935732">
  <ele>-12.35</ele>
  <time>2026-09-02T22:09:15Z</time>
  <course>86.76</course>
  <speed>0.0</speed>
  <fix>3d</fix>
</trkpt>
<trkpt lat="33.810615" lon="-118.3935731">
  <ele>-12.928</ele>
  <time>2026-09-02T22:09:15Z</time>
  <course>156.2</course>
  <speed>0.02</speed>
  <fix>3d</fix>
</trkpt>
<trkpt lat="33.8106151" lon="-118.3935732">
  <ele>-12.35</ele>
  <time>2026-09-02T22:09:15Z</time>
  <course>86.76</course>
  <speed>0.0</speed>
  <fix>3d</fix>
</trkpt>
<trkpt lat="33.810615" lon="-118.393573">
  <ele>-12.92</ele>
  <time>2026-09-02T22:09:15Z</time>
  <course>156.19</course>
  <speed>0.02</speed>
  <fix>3d</fix>
</trkpt>
<trkpt lat="33.8106151" lon="-118.3935732">
  <ele>-12.29</ele>
  <time>2026-09-02T22:09:15Z</time>
  <course>86.12</course>
  <speed>0.0</speed>
  <fix>3d</fix>
</trkpt>
<trkpt lat="33.810615" lon="-118.393573">
  <ele>-12.916</ele>
  <time>2026-09-02T22:09:15Z</time>
  <course>156.18</course>
  <speed>0.02</speed>
  <fix>3d</fix>
</trkpt>
<trkpt lat="33.8106151" lon="-118.3935732">
  <ele>-12.29</ele>
  <time>2026-09-02T22:09:15Z</time>
  <course>86.12</course>
  <speed>0.0</speed>
  <fix>3d</fix>
</trkpt>
<trkpt lat="33.810615" lon="-118.393573">
  <ele>-12.917</ele>
  <time>2026-09-02T22:09:15Z</time>
  <course>156.17</course>
  <speed>0.02</speed>
  <fix>3d</fix>
</trkpt>
<trkpt lat="33.8106151" lon="-118.3935732">
  <ele>-12.26</ele>
  <time>2026-09-02T22:09:15Z</time>
  <course>85.91</course>
  <speed>0.0</speed>
  <fix>3d</fix>
</trkpt>
<trkpt lat="33.810615" lon="-118.393573">
  <ele>-12.919</ele>
  <time>2026-09-02T22:09:15Z</time>
  <course>156.16</course>
  <speed>0.02</speed>
  <fix>3d</fix>
</trkpt>
<trkpt lat="33.8106151" lon="-118.3935732">
  <ele>-12.26</ele>
  <time>2026-09-02T22:09:15Z</time>
  <course>85.91</course>
  <speed>0.0</speed>
  <fix>3d</fix>
</trkpt>
<trkpt lat="33.810615" lon="-118.393573">
  <ele>-12.922</ele>
  <time>2026-09-02T22:09:15Z</time>
  <course>156.15</course>
  <speed>0.02</speed>
  <fix>3d</fix>
</trkpt>
<trkpt lat="33.8106151" lon="-118.3935732">
  <ele>-12.24</ele>
  <time>2026-09-02T22:09:15Z</time>
  <course>85.75</course>
  <speed>0.0</speed>
  <fix>3d</fix>
</trkpt>
<trkpt lat="33.810615" lon="-118.393573">
  <ele>-12.924</ele>
  <time>2026-09-02T22:09:15Z</time>
  <course>156.14</course>
  <speed>0.02</speed>
  <fix>3d</fix>
</trkpt>
<trkpt lat="33.8106151" lon="-118.3935732">
  <ele>-12.24</ele>
  <time>2026-09-02T22:09:15Z</time>
  <course>85.75</course>
  <speed>0.0</speed>
  <fix>3d</fix>
</trkpt>
<trkpt lat="33.810615" lon="-118.393573">
  <ele>-12.925</ele>
  <time>2026-09-02T22:09:15Z</time>
  <course>156.13</course>
  <speed>0.02</speed>
  <fix>3d</fix>
</trkpt>
<trkpt lat="33.8106151" lon="-118.3935732">
  <ele>-12.23</ele>
  <time>2026-09-02T22:09:15Z</time>
  <course>85.72</course>
  <speed>0.0</speed>
  <fix>3d</fix>
</trkpt>
<trkpt lat="33.810615" lon="-118.393573">
  <ele>-12.925</ele>
  <time>2026-09-02T22:09:15Z</time>
  <course>156.12</course>
  <speed>0.03</speed>
  <fix>3d</fix>
</trkpt>
<trkpt lat="33.8106151" lon="-118.3935732">
  <ele>-12.23</ele>
  <time>2026-09-02T22:09:15Z</time>
  <course>85.72</course>
  <speed>0.0</speed>
  <fix>3d</fix>
</trkpt>
<trkpt lat="33.810615" lon="-118.393573">
  <ele>-12.923</ele>
  <time>2026-09-02T22:09:15Z</time>
  <course>156.11</course>
  <speed>0.03</speed>
  <fix>3d</fix>
</trkpt>
<trkpt lat="33.8106151" lon="-118.3935732">
  <ele>-12.22</ele>
  <time>2026-09-02T22:09:15Z</time>
  <course>85.76</course>
  <speed>0.0</speed>
  <fix>3d</fix>
</trkpt>
<trkpt lat="33.810615" lon="-118.393573">
  <ele>-12.922</ele>
  <time>2026-09-02T22:09:15Z</time>
  <course>156.1</course>
  <speed>0.03</speed>
  <fix>3d</fix>
</trkpt>
<trkpt lat="33.8106151" lon="-118.3935732">
  <ele>-12.22</ele>
  <time>2026-09-02T22:09:15Z</time>
  <course>85.76</course>
  <speed>0.0</speed>
  <fix>3d</fix>
</trkpt>
<trkpt lat="33.810615" lon="-118.393573">
  <ele>-12.919</ele>
  <time>2026-09-02T22:09:15Z</time>
  <course>156.09</course>
  <speed>0.03</speed>
  <fix>3d</fix>
</trkpt>
<trkpt lat="33.8106151" lon="-118.3935732">
  <ele>-12.21</ele>
  <time>2026-09-02T22:09:15Z</time>
  <course>85.81</course>
  <speed>0.0</speed>
  <fix>3d</fix>
</trkpt>
<trkpt lat="33.810615" lon="-118.393573">
  <ele>-12.916</ele>
  <time>2026-09-02T22:09:15Z</time>
  <course>156.08</course>
  <speed>0.03</speed>
  <fix>3d</fix>
</trkpt>
<trkpt lat="33.8106151" lon="-118.3935732">
  <ele>-12.21</ele>
  <time>2026-09-02T22:09:15Z</time>
  <course>85.81</course>
  <speed>0.0</speed>
  <fix>3d</fix>
</trkpt>
<trkpt lat="33.810615" lon="-118.393573">
  <ele>-12.913</ele>
  <time>2026-09-02T22:09:15Z</time>
  <course>156.07</course>
  <speed>0.03</speed>
  <fix>3d</fix>
</trkpt>
<trkpt lat="33.8106151" lon="-118.3935732">
  <ele>-12.2</ele>
  <time>2026-09-02T22:09:15Z</time>
  <course>85.92</course>
  <speed>0.0</speed>
  <fix>3d</fix>
</trkpt>
<trkpt lat="33.810615" lon="-118.3935729">
  <ele>-12.91</ele>
  <time>2026-09-02T22:09:15Z</time>
  <course>156.06</course>
  <speed>0.03</speed>
  <fix>3d</fix>
</trkpt>
<trkpt lat="33.8106151" lon="-118.3935732">
  <ele>-12.2</ele>
  <time>2026-09-02T22:09:15Z</time>
  <course>85.92</course>
  <speed>0.0</speed>
  <fix>3d</fix>
</trkpt>
<trkpt lat="33.810615" lon="-118.3935729">
  <ele>-12.908</ele>
  <time>2026-09-02T22:09:15Z</time>
  <course>156.05</course>
  <speed>0.03</speed>
  <fix>3d</fix>
</trkpt>
<trkpt lat="33.8106151" lon="-118.3935732">
  <ele>-12.19</ele>
  <time>2026-09-02T22:09:15Z</time>
  <course>86.0</course>
  <speed>0.0</speed>
  <fix>3d</fix>
</trkpt>
<trkpt lat="33.810615" lon="-118.3935729">
  <ele>-12.908</ele>
  <time>2026-09-02T22:09:15Z</time>
  <course>156.04</course>
  <speed>0.03</speed>
  <fix>3d</fix>
</trkpt>
<trkpt lat="33.8106151" lon="-118.3935732">
  <ele>-12.19</ele>
  <time>2026-09-02T22:09:15Z</time>
  <course>86.0</course>
  <speed>0.0</speed>
  <fix>3d</fix>
</trkpt>
<trkpt lat="33.810615" lon="-118.3935729">
  <ele>-12.908</ele>
  <time>2026-09-02T22:09:15Z</time>
  <course>156.03</course>
  <speed>0.03</speed>
  <fix>3d</fix>
</trkpt>
<trkpt lat="33.8106151" lon="-118.3935731">
  <ele>-12.19</ele>
  <time>2026-09-02T22:09:15Z</time>
  <course>85.93</course>
  <speed>0.0</speed>
  <fix>3d</fix>
</trkpt>
<trkpt lat="33.810615" lon="-118.3935729">
  <ele>-12.909</ele>
  <time>2026-09-02T22:09:15Z</time>
  <course>156.02</course>
  <speed>0.03</speed>
  <fix>3d</fix>
</trkpt>
<trkpt lat="33.8106151" lon="-118.3935731">
  <ele>-12.19</ele>
  <time>2026-09-02T22:09:15Z</time>
  <course>85.93</course>
  <speed>0.0</speed>
  <fix>3d</fix>
</trkpt>
<trkpt lat="33.810615" lon="-118.3935729">
  <ele>-12.909</ele>
  <time>2026-09-02T22:09:15Z</time>
  <course>156.01</course>
  <speed>0.03</speed>
  <fix>3d</fix>
</trkpt>
<trkpt lat="33.8106151" lon="-118.3935731">
  <ele>-12.19</ele>
  <time>2026-09-02T22:09:15Z</time>
  <course>85.84</course>
  <speed>0.0</speed>
  <fix>3d</fix>
</trkpt>
<trkpt lat="33.810615" lon="-118.3935729">
  <ele>-12.909</ele>
  <time>2026-09-02T22:09:15Z</time>
  <course>156.0</course>
  <speed>0.03</speed>
  <fix>3d</fix>
</trkpt>
<trkpt lat="33.8106151" lon="-118.3935731">
  <ele>-12.19</ele>
  <time>2026-09-02T22:09:15Z</time>
  <course>85.84</course>
  <speed>0.0</speed>
  <fix>3d</fix>
</trkpt>
<trkpt lat="33.810615" lon="-118.3935729">
  <ele>-12.909</ele>
  <time>2026-09-02T22:09:15Z</time>
  <course>155.99</course>
  <speed>0.03</speed>
  <fix>3d</fix>
</trkpt>
<trkpt lat="33.8106151" lon="-118.3935731">
  <ele>-12.19</ele>
  <time>2026-09-02T22:09:15Z</time>
  <course>85.81</course>
  <speed>0.0</speed>
  <fix>3d</fix>
</trkpt>
<trkpt lat="33.810615" lon="-118.3935729">
  <ele>-12.909</ele>
  <time>2026-09-02T22:09:15Z</time>
  <course>155.98</course>
  <speed>0.03</speed>
  <fix>3d</fix>
</trkpt>
<trkpt lat="33.8106151" lon="-118.3935731">
  <ele>-12.19</ele>
  <time>2026-09-02T22:09:15Z</time>
  <course>85.81</course>
  <speed>0.0</speed>
  <fix>3d</fix>
</trkpt>
<trkpt lat="33.810615" lon="-118.3935729">
  <ele>-12.91</ele>
  <time>2026-09-02T22:09:15Z</time>
  <course>155.97</course>
  <speed>0.03</speed>
  <fix>3d</fix>
</trkpt>
<trkpt lat="33.8106151" lon="-118.3935731">
  <ele>-12.19</ele>
  <time>2026-09-02T22:09:15Z</time>
  <course>85.84</course>
  <speed>0.0</speed>
  <fix>3d</fix>
</trkpt>
<trkpt lat="33.810615" lon="-118.3935729">
  <ele>-12.911</ele>
  <time>2026-09-02T22:09:15Z</time>
  <course>155.96</course>
  <speed>0.0316227766016838</speed>
  <fix>3d</fix>
</trkpt>
<trkpt lat="33.8106151" lon="-118.3935731">
  <ele>-12.19</ele>
  <time>2026-09-02T22:09:15Z</time>
  <course>85.84</course>
  <speed>0.0</speed>
  <fix>3d</fix>
</trkpt>
<trkpt lat="33.810615" lon="-118.3935729">
  <ele>-12.91</ele>
  <time>2026-09-02T22:09:15Z</time>
  <course>155.95</course>
  <speed>0.0316227766016838</speed>
  <fix>3d</fix>
</trkpt>
<trkpt lat="33.8106151" lon="-118.3935731">
  <ele>-12.19</ele>
  <time>2026-09-02T22:09:15Z</time>
  <course>85.88</course>
  <speed>0.0</speed>
  <fix>3d</fix>
</trkpt>
<trkpt lat="33.810615" lon="-118.3935729">
  <ele>-12.908</ele>
  <time>2026-09-02T22:09:15Z</time>
  <course>155.94</course>
  <speed>0.0316227766016838</speed>
  <fix>3d</fix>
</trkpt>
<trkpt lat="33.8106151" lon="-118.3935731">
  <ele>-12.19</ele>
  <time>2026-09-02T22:09:15Z</time>
  <course>85.88</course>
  <speed>0.0</speed>
  <fix>3d</fix>
</trkpt>
<trkpt lat="33.810615" lon="-118.3935729">
  <ele>-12.906</ele>
  <time>2026-09-02T22:09:15Z</time>
  <course>155.93</course>
  <speed>0.0316227766016838</speed>
  <fix>3d</fix>
</trkpt>
<trkpt lat="33.8106151" lon="-118.3935731">
  <ele>-12.19</ele>
  <time>2026-09-02T22:09:15Z</time>
  <course>85.93</course>
  <speed>0.0</speed>
  <fix>3d</fix>
</trkpt>
<trkpt lat="33.810615" lon="-118.3935729">
  <ele>-12.906</ele>
  <time>2026-09-02T22:09:15Z</time>
  <course>155.92</course>
  <speed>0.0316227766016838</speed>
  <fix>3d</fix>
</trkpt>
<trkpt lat="33.8106151" lon="-118.3935731">
  <ele>-12.19</ele>
  <time>2026-09-02T22:09:15Z</time>
  <course>85.93</course>
  <speed>0.0</speed>
  <fix>3d</fix>
</trkpt>
<trkpt lat="33.810615" lon="-118.3935728">
  <ele>-12.907</ele>
  <time>2026-09-02T22:09:15Z</time>
  <course>155.91</course>
  <speed>0.0316227766016838</speed>
  <fix>3d</fix>
</trkpt>
<trkpt lat="33.8106151" lon="-118.3935731">
  <ele>-12.19</ele>
  <time>2026-09-02T22:09:15Z</time>
  <course>85.95</course>
  <speed>0.0</speed>
  <fix>3d</fix>
</trkpt>
<trkpt lat="33.810615" lon="-118.3935728">
  <ele>-12.91</ele>
  <time>2026-09-02T22:09:15Z</time>
  <course>155.9</course>
  <speed>0.0316227766016838</speed>
  <fix>3d</fix>
</trkpt>
<trkpt lat="33.8106151" lon="-118.3935731">
  <ele>-12.19</ele>
  <time>2026-09-02T22:09:15Z</time>
  <course>85.95</course>
  <speed>0.0</speed>
  <fix>3d</fix>
</trkpt>
<trkpt lat="33.810615" lon="-118.3935728">
  <ele>-12.912</ele>
  <time>2026-09-02T22:09:15Z</time>
  <course>155.89</course>
  <speed>0.0316227766016838</speed>
  <fix>3d</fix>
</trkpt>
<trkpt lat="33.8106151" lon="-118.3935731">
  <ele>-12.2</ele>
  <time>2026-09-02T22:09:15Z</time>
  <course>85.97</course>
  <speed>0.0</speed>
  <fix>3d</fix>
</trkpt>
<trkpt lat="33.810615" lon="-118.3935728">
  <ele>-12.913</ele>
  <time>2026-09-02T22:09:15Z</time>
  <course>155.88</course>
  <speed>0.0316227766016838</speed>
  <fix>3d</fix>
</trkpt>
<trkpt lat="33.8106151" lon="-118.3935731">
  <ele>-12.2</ele>
  <time>2026-09-02T22:09:15Z</time>
  <course>85.97</course>
  <speed>0.0</speed>
  <fix>3d</fix>
</trkpt>
<trkpt lat="33.810615" lon="-118.3935728">
  <ele>-12.913</ele>
  <time>2026-09-02T22:09:15Z</time>
  <course>155.87</course>
  <speed>0.0316227766016838</speed>
  <fix>3d</fix>
</trkpt>
<trkpt lat="33.8106151" lon="-118.393573">
  <ele>-12.2</ele>
  <time>2026-09-02T22:09:15Z</time>
  <course>86.02</course>
  <speed>0.0</speed>
  <fix>3d</fix>
</trkpt>
<trkpt lat="33.810615" lon="-118.3935728">
  <ele>-12.913</ele>
  <time>2026-09-02T22:09:15Z</time>
  <course>155.86</course>
  <speed>0.0316227766016838</speed>
  <fix>3d</fix>
</trkpt>
<trkpt lat="33.8106151" lon="-118.393573">
  <ele>-12.2</ele>
  <time>2026-09-02T22:09:15Z</time>
  <course>86.02</course>
  <speed>0.0</speed>
  <fix>3d</fix>
</trkpt>
<trkpt lat="33.810615" lon="-118.3935728">
  <ele>-12.913</ele>
  <time>2026-09-02T22:09:15Z</time>
  <course>155.85</course>
  <speed>0.0316227766016838</speed>
  <fix>3d</fix>
</trkpt>
<trkpt lat="33.8106151" lon="-118.393573">
  <ele>-12.2</ele>
  <time>2026-09-02T22:09:15Z</time>
  <course>86.08</course>
  <speed>0.0</speed>
  <fix>3d</fix>
</trkpt>
<trkpt lat="33.810615" lon="-118.3935728">
  <ele>-12.914</ele>
  <time>2026-09-02T22:09:15Z</time>
  <course>155.84</course>
  <speed>0.0316227766016838</speed>
  <fix>3d</fix>
</trkpt>
<trkpt lat="33.8106151" lon="-118.393573">
  <ele>-12.2</ele>
  <time>2026-09-02T22:09:15Z</time>
  <course>86.08</course>
  <speed>0.0</speed>
  <fix>3d</fix>
</trkpt>
<trkpt lat="33.810615" lon="-118.3935728">
  <ele>-12.915</ele>
  <time>2026-09-02T22:09:15Z</time>
  <course>155.83</course>
  <speed>0.0316227766016838</speed>
  <fix>3d</fix>
</trkpt>
<trkpt lat="33.8106151" lon="-118.393573">
  <ele>-12.2</ele>
  <time>2026-09-02T22:09:15Z</time>
  <course>86.12</course>
  <speed>0.0</speed>
  <fix>3d</fix>
</trkpt>
<trkpt lat="33.810615" lon="-118.3935728">
  <ele>-12.915</ele>
  <time>2026-09-02T22:09:15Z</time>
  <course>155.82</course>
  <speed>0.0316227766016838</speed>
  <fix>3d</fix>
</trkpt>
<trkpt lat="33.8106151" lon="-118.393573">
  <ele>-12.2</ele>
  <time>2026-09-02T22:09:15Z</time>
  <course>86.12</course>
  <speed>0.0</speed>
  <fix>3d</fix>
</trkpt>
<trkpt lat="33.810615" lon="-118.3935728">
  <ele>-12.915</ele>
  <time>2026-09-02T22:09:15Z</time>
  <course>155.81</course>
  <speed>0.0316227766016838</speed>
  <fix>3d</fix>
</trkpt>
<trkpt lat="33.8106151" lon="-118.393573">
  <ele>-12.2</ele>
  <time>2026-09-02T22:09:15Z</time>
  <course>86.15</course>
  <speed>0.0</speed>
  <fix>3d</fix>
</trkpt>
<trkpt lat="33.810615" lon="-118.3935728">
  <ele>-12.916</ele>
  <time>2026-09-02T22:09:15Z</time>
  <course>155.81</course>
  <speed>0.0316227766016838</speed>
  <fix>3d</fix>
</trkpt>
<trkpt lat="33.8106151" lon="-118.393573">
  <ele>-12.2</ele>
  <time>2026-09-02T22:09:15Z</time>
  <course>86.15</course>
  <speed>0.0</speed>
  <fix>3d</fix>
</trkpt>
<trkpt lat="33.810615" lon="-118.3935728">
  <ele>-12.915</ele>
  <time>2026-09-02T22:09:15Z</time>
  <course>155.8</course>
  <speed>0.0316227766016838</speed>
  <fix>3d</fix>
</trkpt>
<trkpt lat="33.8106151" lon="-118.393573">
  <ele>-12.2</ele>
  <time>2026-09-02T22:09:15Z</time>
  <course>86.18</course>
  <speed>0.0</speed>
  <fix>3d</fix>
</trkpt>
<trkpt lat="33.810615" lon="-118.3935728">
  <ele>-12.914</ele>
  <time>2026-09-02T22:09:15Z</time>
  <course>155.79</course>
  <speed>0.0316227766016838</speed>
  <fix>3d</fix>
</trkpt>
<trkpt lat="33.8106151" lon="-118.393573">
  <ele>-12.2</ele>
  <time>2026-09-02T22:09:15Z</time>
  <course>86.18</course>
  <speed>0.0</speed>
  <fix>3d</fix>
</trkpt>
<trkpt lat="33.810615" lon="-118.3935728">
  <ele>-12.914</ele>
  <time>2026-09-02T22:09:15Z</time>
  <course>155.78</course>
  <speed>0.0316227766016838</speed>
  <fix>3d</fix>
</trkpt>
<trkpt lat="33.8106151" lon="-118.393573">
  <ele>-12.2</ele>
  <time>2026-09-02T22:09:15Z</time>
  <course>86.21</course>
  <speed>0.0</speed>
  <fix>3d</fix>
</trkpt>
<trkpt lat="33.810615" lon="-118.3935727">
  <ele>-12.913</ele>
  <time>2026-09-02T22:09:15Z</time>
  <course>155.77</course>
  <speed>0.0316227766016838</speed>
  <fix>3d</fix>
</trkpt>
<trkpt lat="33.8106151" lon="-118.393573">
  <ele>-12.2</ele>
  <time>2026-09-02T22:09:15Z</time>
  <course>86.21</course>
  <speed>0.0</speed>
  <fix>3d</fix>
</trkpt>
<trkpt lat="33.810615" lon="-118.3935727">
  <ele>-12.914</ele>
  <time>2026-09-02T22:09:15Z</time>
  <course>155.76</course>
  <speed>0.0316227766016838</speed>
  <fix>3d</fix>
</trkpt>
<trkpt lat="33.8106151" lon="-118.393573">
  <ele>-12.2</ele>
  <time>2026-09-02T22:09:15Z</time>
  <course>86.25</course>
  <speed>0.0</speed>
  <fix>3d</fix>
</trkpt>
<trkpt lat="33.810615" lon="-118.3935727">
  <ele>-12.915</ele>
  <time>2026-09-02T22:09:15Z</time>
  <course>155.75</course>
  <speed>0.0316227766016838</speed>
  <fix>3d</fix>
</trkpt>
<trkpt lat="33.8106151" lon="-118.393573">
  <ele>-12.2</ele>
  <time>2026-09-02T22:09:15Z</time>
  <course>86.25</course>
  <speed>0.0</speed>
  <fix>3d</fix>
</trkpt>
<trkpt lat="33.810615" lon="-118.3935727">
  <ele>-12.915</ele>
  <time>2026-09-02T22:09:15Z</time>
  <course>155.74</course>
  <speed>0.0316227766016838</speed>
  <fix>3d</fix>
</trkpt>
<trkpt lat="33.8106151" lon="-118.393573">
  <ele>-12.2</ele>
  <time>2026-09-02T22:09:15Z</time>
  <course>86.3</course>
  <speed>0.0</speed>
  <fix>3d</fix>
</trkpt>
<trkpt lat="33.810615" lon="-118.3935727">
  <ele>-12.914</ele>
  <time>2026-09-02T22:09:15Z</time>
  <course>155.73</course>
  <speed>0.0316227766016838</speed>
  <fix>3d</fix>
</trkpt>
<trkpt lat="33.8106151" lon="-118.393573">
  <ele>-12.2</ele>
  <time>2026-09-02T22:09:15Z</time>
  <course>86.3</course>
  <speed>0.0</speed>
  <fix>3d</fix>
</trkpt>
<trkpt lat="33.810615" lon="-118.3935727">
  <ele>-12.913</ele>
  <time>2026-09-02T22:09:15Z</time>
  <course>155.72</course>
  <speed>0.0316227766016838</speed>
  <fix>3d</fix>
</trkpt>
<trkpt lat="33.8106151" lon="-118.393573">
  <ele>-12.2</ele>
  <time>2026-09-02T22:09:15Z</time>
  <course>86.34</course>
  <speed>0.0</speed>
  <fix>3d</fix>
</trkpt>
<trkpt lat="33.810615" lon="-118.3935727">
  <ele>-12.912</ele>
  <time>2026-09-02T22:09:15Z</time>
  <course>155.72</course>
  <speed>0.0316227766016838</speed>
  <fix>3d</fix>
</trkpt>
<trkpt lat="33.8106151" lon="-118.393573">
  <ele>-12.2</ele>
  <time>2026-09-02T22:09:15Z</time>
  <course>86.34</course>
  <speed>0.0</speed>
  <fix>3d</fix>
</trkpt>
<trkpt lat="33.810615" lon="-118.3935727">
  <ele>-12.911</ele>
  <time>2026-09-02T22:09:15Z</time>
  <course>155.71</course>
  <speed>0.0316227766016838</speed>
  <fix>3d</fix>
</trkpt>
<trkpt lat="33.8106151" lon="-118.3935729">
  <ele>-12.2</ele>
  <time>2026-09-02T22:09:15Z</time>
  <course>86.35</course>
  <speed>0.0</speed>
  <fix>3d</fix>
</trkpt>
<trkpt lat="33.810615" lon="-118.3935727">
  <ele>-12.911</ele>
  <time>2026-09-02T22:09:15Z</time>
  <course>155.7</course>
  <speed>0.0316227766016838</speed>
  <fix>3d</fix>
</trkpt>
<trkpt lat="33.8106151" lon="-118.3935729">
  <ele>-12.2</ele>
  <time>2026-09-02T22:09:15Z</time>
  <course>86.35</course>
  <speed>0.0</speed>
  <fix>3d</fix>
</trkpt>
<trkpt lat="33.810615" lon="-118.3935727">
  <ele>-12.912</ele>
  <time>2026-09-02T22:09:15Z</time>
  <course>155.69</course>
  <speed>0.0316227766016838</speed>
  <fix>3d</fix>
</trkpt>
<trkpt lat="33.8106151" lon="-118.3935729">
  <ele>-12.2</ele>
  <time>2026-09-02T22:09:15Z</time>
  <course>86.35</course>
  <speed>0.0</speed>
  <fix>3d</fix>
</trkpt>
<trkpt lat="33.810615" lon="-118.3935727">
  <ele>-12.91</ele>
  <time>2026-09-02T22:09:15Z</time>
  <course>155.68</course>
  <speed>0.0316227766016838</speed>
  <fix>3d</fix>
</trkpt>
<trkpt lat="33.8106151" lon="-118.3935729">
  <ele>-12.2</ele>
  <time>2026-09-02T22:09:15Z</time>
  <course>86.35</course>
  <speed>0.0</speed>
  <fix>3d</fix>
</trkpt>
<trkpt lat="33.810615" lon="-118.3935727">
  <ele>-12.893</ele>
  <time>2026-09-02T22:09:15Z</time>
  <course>155.67</course>
  <speed>0.0316227766016838</speed>
  <fix>3d</fix>
</trkpt>
<trkpt lat="33.8106151" lon="-118.3935729">
  <ele>-12.2</ele>
  <time>2026-09-02T22:09:15Z</time>
  <course>86.5</course>
  <speed>0.0</speed>
  <fix>3d</fix>
</trkpt>
<trkpt lat="33.810615" lon="-118.3935727">
  <ele>-12.852</ele>
  <time>2026-09-02T22:09:15Z</time>
  <course>155.66</course>
  <speed>0.0316227766016838</speed>
  <fix>3d</fix>
</trkpt>
<trkpt lat="33.8106151" lon="-118.3935729">
  <ele>-12.2</ele>
  <time>2026-09-02T22:09:15Z</time>
  <course>86.5</course>
  <speed>0.0</speed>
  <fix>3d</fix>
</trkpt>
<trkpt lat="33.810615" lon="-118.3935727">
  <ele>-12.851</ele>
  <time>2026-09-02T22:09:15Z</time>
  <course>155.66</course>
  <speed>0.0316227766016838</speed>
  <fix>3d</fix>
</trkpt>
<trkpt lat="33.810615" lon="-118.3935727">
  <ele>-12.791</ele>
  <time>2026-09-02T22:09:15Z</time>
  <course>155.65</course>
  <speed>0.0316227766016838</speed>
  <fix>3d</fix>
</trkpt>
<trkpt lat="33.8106151" lon="-118.3935729">
  <ele>-12.16</ele>
  <time>2026-09-02T22:09:15Z</time>
  <course>87.7</course>
  <speed>0.0</speed>
  <fix>3d</fix>
</trkpt>
<trkpt lat="33.810615" lon="-118.3935727">
  <ele>-12.789</ele>
  <time>2026-09-02T22:09:15Z</time>
  <course>155.65</course>
  <speed>0.0316227766016838</speed>
  <fix>3d</fix>
</trkpt>
<trkpt lat="33.810615" lon="-118.3935727">
  <ele>-12.71</ele>
  <time>2026-09-02T22:09:15Z</time>
  <course>155.65</course>
  <speed>0.0316227766016838</speed>
  <fix>3d</fix>
</trkpt>
<trkpt lat="33.8106151" lon="-118.3935729">
  <ele>-12.16</ele>
  <time>2026-09-02T22:09:15Z</time>
  <course>87.7</course>
  <speed>0.0</speed>
  <fix>3d</fix>
</trkpt>
<trkpt lat="33.810615" lon="-118.3935727">
  <ele>-12.682</ele>
  <time>2026-09-02T22:09:15Z</time>
  <course>155.64</course>
  <speed>0.0316227766016838</speed>
  <fix>3d</fix>
</trkpt>
<trkpt lat="33.810615" lon="-118.3935727">
  <ele>-12.609</ele>
  <time>2026-09-02T22:09:15Z</time>
  <course>155.64</course>
  <speed>0.0316227766016838</speed>
  <fix>3d</fix>
</trkpt>
<trkpt lat="33.8106151" lon="-118.3935729">
  <ele>-12.05</ele>
  <time>2026-09-02T22:09:15Z</time>
  <course>90.79</course>
  <speed>0.0</speed>
  <fix>3d</fix>
</trkpt>
<trkpt lat="33.810615" lon="-118.3935727">
  <ele>-12.606</ele>
  <time>2026-09-02T22:09:15Z</time>
  <course>155.64</course>
  <speed>0.0316227766016838</speed>
  <fix>3d</fix>
</trkpt>
<trkpt lat="33.810615" lon="-118.3935727">
  <ele>-12.489</ele>
  <time>2026-09-02T22:09:15Z</time>
  <course>155.63</course>
  <speed>0.0316227766016838</speed>
  <fix>3d</fix>
</trkpt>
<trkpt lat="33.8106151" lon="-118.3935729">
  <ele>-12.05</ele>
  <time>2026-09-02T22:09:15Z</time>
  <course>90.79</course>
  <speed>0.0</speed>
  <fix>3d</fix>
</trkpt>
<trkpt lat="33.810615" lon="-118.3935727">
  <ele>-12.45</ele>
  <time>2026-09-02T22:09:15Z</time>
  <course>155.63</course>
  <speed>0.0316227766016838</speed>
  <fix>3d</fix>
</trkpt>
<trkpt lat="33.810615" lon="-118.3935727">
  <ele>-12.36</ele>
  <time>2026-09-02T22:09:15Z</time>
  <course>155.62</course>
  <speed>0.0316227766016838</speed>
  <fix>3d</fix>
</trkpt>
<trkpt lat="33.8106151" lon="-118.3935729">
  <ele>-11.88</ele>
  <time>2026-09-02T22:09:15Z</time>
  <course>95.04</course>
  <speed>0.0</speed>
  <fix>3d</fix>
</trkpt>
<trkpt lat="33.810615" lon="-118.3935727">
  <ele>-12.32</ele>
  <time>2026-09-02T22:09:15Z</time>
  <course>155.62</course>
  <speed>0.0316227766016838</speed>
  <fix>3d</fix>
</trkpt>
<trkpt lat="33.810615" lon="-118.3935727">
  <ele>-12.228</ele>
  <time>2026-09-02T22:09:15Z</time>
  <course>155.61</course>
  <speed>0.0316227766016838</speed>
  <fix>3d</fix>
</trkpt>
<trkpt lat="33.8106151" lon="-118.3935729">
  <ele>-11.88</ele>
  <time>2026-09-02T22:09:15Z</time>
  <course>95.04</course>
  <speed>0.0</speed>
  <fix>3d</fix>
</trkpt>
<trkpt lat="33.810615" lon="-118.3935727">
  <ele>-12.195</ele>
  <time>2026-09-02T22:09:15Z</time>
  <course>155.61</course>
  <speed>0.0316227766016838</speed>
  <fix>3d</fix>
</trkpt>
<trkpt lat="33.810615" lon="-118.3935727">
  <ele>-12.095</ele>
  <time>2026-09-02T22:09:15Z</time>
  <course>155.6</course>
  <speed>0.0316227766016838</speed>
  <fix>3d</fix>
</trkpt>
<trkpt lat="33.8106151" lon="-118.3935729">
  <ele>-11.64</ele>
  <time>2026-09-02T22:09:15Z</time>
  <course>97.43</course>
  <speed>0.0</speed>
  <fix>3d</fix>
</trkpt>
<trkpt lat="33.810615" lon="-118.3935727">
  <ele>-12.055</ele>
  <time>2026-09-02T22:09:15Z</time>
  <course>155.6</course>
  <speed>0.0316227766016838</speed>
  <fix>3d</fix>
</trkpt>
<trkpt lat="33.810615" lon="-118.3935727">
  <ele>-11.962</ele>
  <time>2026-09-02T22:09:15Z</time>
  <course>155.59</course>
  <speed>0.0316227766016838</speed>
  <fix>3d</fix>
</trkpt>
<trkpt lat="33.8106151" lon="-118.3935729">
  <ele>-11.64</ele>
  <time>2026-09-02T22:09:15Z</time>
  <course>97.43</course>
  <speed>0.0</speed>
  <fix>3d</fix>
</trkpt>
<trkpt lat="33.810615" lon="-118.3935727">
  <ele>-11.924</ele>
  <time>2026-09-02T22:09:15Z</time>
  <course>155.59</course>
  <speed>0.0316227766016838</speed>
  <fix>3d</fix>
</trkpt>
<trkpt lat="33.810615" lon="-118.3935727">
  <ele>-11.826</ele>
  <time>2026-09-02T22:09:15Z</time>
  <course>155.59</course>
  <speed>0.022360679774997897</speed>
  <fix>3d</fix>
</trkpt>
<trkpt lat="33.8106151" lon="-118.3935729">
  <ele>-11.4</ele>
  <time>2026-09-02T22:09:15Z</time>
  <course>97.52</course>
  <speed>0.0</speed>
  <fix>3d</fix>
</trkpt>
<trkpt lat="33.810615" lon="-118.3935727">
  <ele>-11.773</ele>
  <time>2026-09-02T22:09:15Z</time>
  <course>155.58</course>
  <speed>0.022360679774997897</speed>
  <fix>3d</fix>
</trkpt>
<trkpt lat="33.810615" lon="-118.3935727">
  <ele>-11.693</ele>
  <time>2026-09-02T22:09:15Z</time>
  <course>155.58</course>
  <speed>0.022360679774997897</speed>
  <fix>3d</fix>
</trkpt>
<trkpt lat="33.8106151" lon="-118.3935729">
  <ele>-11.4</ele>
  <time>2026-09-02T22:09:15Z</time>
  <course>97.52</course>
  <speed>0.0</speed>
  <fix>3d</fix>
</trkpt>
<trkpt lat="33.810615" lon="-118.3935726">
  <ele>-11.651</ele>
  <time>2026-09-02T22:09:15Z</time>
  <course>155.57</course>
  <speed>0.022360679774997897</speed>
  <fix>3d</fix>
</trkpt>
<trkpt lat="33.810615" lon="-118.3935727">
  <ele>-11.56</ele>
  <time>2026-09-02T22:09:15Z</time>
  <course>155.57</course>
  <speed>0.022360679774997897</speed>
  <fix>3d</fix>
</trkpt>
<trkpt lat="33.8106151" lon="-118.3935729">
  <ele>-11.15</ele>
  <time>2026-09-02T22:09:15Z</time>
  <course>97.55</course>
  <speed>0.0</speed>
  <fix>3d</fix>
</trkpt>
<trkpt lat="33.810615" lon="-118.3935726">
  <ele>-11.557</ele>
  <time>2026-09-02T22:09:15Z</time>
  <course>155.57</course>
  <speed>0.022360679774997897</speed>
  <fix>3d</fix>
</trkpt>
<trkpt lat="33.810615" lon="-118.3935726">
  <ele>-11.427</ele>
  <time>2026-09-02T22:09:15Z</time>
  <course>155.56</course>
  <speed>0.022360679774997897</speed>
  <fix>3d</fix>
</trkpt>
<trkpt lat="33.8106151" lon="-118.3935729">
  <ele>-11.15</ele>
  <time>2026-09-02T22:09:15Z</time>
  <course>97.55</course>
  <speed>0.0</speed>
  <fix>3d</fix>
</trkpt>
<trkpt lat="33.810615" lon="-118.3935726">
  <ele>-11.368</ele>
  <time>2026-09-02T22:09:15Z</time>
  <course>155.56</course>
  <speed>0.022360679774997897</speed>
  <fix>3d</fix>
</trkpt>
<trkpt lat="33.810615" lon="-118.3935726">
  <ele>-11.295</ele>
  <time>2026-09-02T22:09:15Z</time>
  <course>155.55</course>
  <speed>0.022360679774997897</speed>
  <fix>3d</fix>
</trkpt>
<trkpt lat="33.8106151" lon="-118.3935729">
  <ele>-10.91</ele>
  <time>2026-09-02T22:09:15Z</time>
  <course>97.63</course>
  <speed>0.0</speed>
  <fix>3d</fix>
</trkpt>
<trkpt lat="33.810615" lon="-118.3935726">
  <ele>-11.256</ele>
  <time>2026-09-02T22:09:15Z</time>
  <course>155.55</course>
  <speed>0.022360679774997897</speed>
  <fix>3d</fix>
</trkpt>
<trkpt lat="33.810615" lon="-118.3935726">
  <ele>-11.164</ele>
  <time>2026-09-02T22:09:15Z</time>
  <course>155.54</course>
  <speed>0.022360679774997897</speed>
  <fix>3d</fix>
</trkpt>
<trkpt lat="33.8106151" lon="-118.3935729">
  <ele>-10.91</ele>
  <time>2026-09-02T22:09:15Z</time>
  <course>97.63</course>
  <speed>0.0</speed>
  <fix>3d</fix>
</trkpt>
<trkpt lat="33.810615" lon="-118.3935726">
  <ele>-11.122</ele>
  <time>2026-09-02T22:09:15Z</time>
  <course>155.54</course>
  <speed>0.022360679774997897</speed>
  <fix>3d</fix>
</trkpt>
<trkpt lat="33.810615" lon="-118.3935726">
  <ele>-11.034</ele>
  <time>2026-09-02T22:09:15Z</time>
  <course>155.54</course>
  <speed>0.022360679774997897</speed>
  <fix>3d</fix>
</trkpt>
<trkpt lat="33.8106151" lon="-118.3935729">
  <ele>-10.66</ele>
  <time>2026-09-02T22:09:15Z</time>
  <course>97.73</course>
  <speed>0.0</speed>
  <fix>3d</fix>
</trkpt>
<trkpt lat="33.810615" lon="-118.3935726">
  <ele>-10.995</ele>
  <time>2026-09-02T22:09:15Z</time>
  <course>155.53</course>
  <speed>0.022360679774997897</speed>
  <fix>3d</fix>
</trkpt>
<trkpt lat="33.810615" lon="-118.3935726">
  <ele>-10.903</ele>
  <time>2026-09-02T22:09:15Z</time>
  <course>155.53</course>
  <speed>0.022360679774997897</speed>
  <fix>3d</fix>
</trkpt>
<trkpt lat="33.8106151" lon="-118.3935729">
  <ele>-10.66</ele>
  <time>2026-09-02T22:09:15Z</time>
  <course>97.73</course>
  <speed>0.0</speed>
  <fix>3d</fix>
</trkpt>
<trkpt lat="33.810615" lon="-118.3935726">
  <ele>-10.864</ele>
  <time>2026-09-02T22:09:15Z</time>
  <course>155.52</course>
  <speed>0.022360679774997897</speed>
  <fix>3d</fix>
</trkpt>
<trkpt lat="33.810615" lon="-118.3935726">
  <ele>-10.773</ele>
  <time>2026-09-02T22:09:15Z</time>
  <course>155.52</course>
  <speed>0.022360679774997897</speed>
  <fix>3d</fix>
</trkpt>
<trkpt lat="33.8106151" lon="-118.3935729">
  <ele>-10.42</ele>
  <time>2026-09-02T22:09:15Z</time>
  <course>97.8</course>
  <speed>0.0</speed>
  <fix>3d</fix>
</trkpt>
<trkpt lat="33.810615" lon="-118.3935726">
  <ele>-10.643</ele>
  <time>2026-09-02T22:09:15Z</time>
  <course>155.51</course>
  <speed>0.022360679774997897</speed>
  <fix>3d</fix>
</trkpt>
<trkpt lat="33.8106151" lon="-118.3935729">
  <ele>-10.42</ele>
  <time>2026-09-02T22:09:15Z</time>
  <course>97.8</course>
  <speed>0.0</speed>
  <fix>3d</fix>
</trkpt>
<trkpt lat="33.810615" lon="-118.3935726">
  <ele>-10.641</ele>
  <time>2026-09-02T22:09:15Z</time>
  <course>155.51</course>
  <speed>0.022360679774997897</speed>
  <fix>3d</fix>
</trkpt>
<trkpt lat="33.810615" lon="-118.3935726">
  <ele>-10.514</ele>
  <time>2026-09-02T22:09:15Z</time>
  <course>155.5</course>
  <speed>0.022360679774997897</speed>
  <fix>3d</fix>
</trkpt>
<trkpt lat="33.8106151" lon="-118.3935728">
  <ele>-10.17</ele>
  <time>2026-09-02T22:09:15Z</time>
  <course>97.82</course>
  <speed>0.0</speed>
  <fix>3d</fix>
</trkpt>
<trkpt lat="33.810615" lon="-118.3935726">
  <ele>-10.468</ele>
  <time>2026-09-02T22:09:15Z</time>
  <course>155.5</course>
  <speed>0.022360679774997897</speed>
  <fix>3d</fix>
</trkpt>
<trkpt lat="33.810615" lon="-118.3935726">
  <ele>-10.387</ele>
  <time>2026-09-02T22:09:15Z</time>
  <course>155.49</course>
  <speed>0.022360679774997897</speed>
  <fix>3d</fix>
</trkpt>
<trkpt lat="33.8106151" lon="-118.3935728">
  <ele>-10.17</ele>
  <time>2026-09-02T22:09:15Z</time>
  <course>97.82</course>
  <speed>0.0</speed>
  <fix>3d</fix>
</trkpt>
<trkpt lat="33.810615" lon="-118.3935726">
  <ele>-10.322</ele>
  <time>2026-09-02T22:09:15Z</time>
  <course>155.49</course>
  <speed>0.022360679774997897</speed>
  <fix>3d</fix>
</trkpt>
<trkpt lat="33.810615" lon="-118.3935726">
  <ele>-10.261</ele>
  <time>2026-09-02T22:09:15Z</time>
  <course>155.49</course>
  <speed>0.022360679774997897</speed>
  <fix>3d</fix>
</trkpt>
<trkpt lat="33.8106151" lon="-118.3935728">
  <ele>-9.93</ele>
  <time>2026-09-02T22:09:15Z</time>
  <course>97.82</course>
  <speed>0.0</speed>
  <fix>3d</fix>
</trkpt>
<trkpt lat="33.810615" lon="-118.3935726">
  <ele>-10.223</ele>
  <time>2026-09-02T22:09:15Z</time>
  <course>155.48</course>
  <speed>0.022360679774997897</speed>
  <fix>3d</fix>
</trkpt>
<trkpt lat="33.810615" lon="-118.3935726">
  <ele>-10.135</ele>
  <time>2026-09-02T22:09:15Z</time>
  <course>155.48</course>
  <speed>0.022360679774997897</speed>
  <fix>3d</fix>
</trkpt>
<trkpt lat="33.8106151" lon="-118.3935728">
  <ele>-9.93</ele>
  <time>2026-09-02T22:09:15Z</time>
  <course>97.82</course>
  <speed>0.0</speed>
  <fix>3d</fix>
</trkpt>
<trkpt lat="33.810615" lon="-118.3935726">
  <ele>-10.132</ele>
  <time>2026-09-02T22:09:15Z</time>
  <course>155.48</course>
  <speed>0.022360679774997897</speed>
  <fix>3d</fix>
</trkpt>
<trkpt lat="33.810615" lon="-118.3935726">
  <ele>-10.009</ele>
  <time>2026-09-02T22:09:15Z</time>
  <course>155.47</course>
  <speed>0.022360679774997897</speed>
  <fix>3d</fix>
</trkpt>
<trkpt lat="33.8106151" lon="-118.3935728">
  <ele>-9.68</ele>
  <time>2026-09-02T22:09:15Z</time>
  <course>97.84</course>
  <speed>0.0</speed>
  <fix>3d</fix>
</trkpt>
<trkpt lat="33.810615" lon="-118.3935726">
  <ele>-9.971</ele>
  <time>2026-09-02T22:09:15Z</time>
  <course>155.47</course>
  <speed>0.022360679774997897</speed>
  <fix>3d</fix>
</trkpt>
<trkpt lat="33.810615" lon="-118.3935726">
  <ele>-9.883</ele>
  <time>2026-09-02T22:09:15Z</time>
  <course>155.46</course>
  <speed>0.022360679774997897</speed>
  <fix>3d</fix>
</trkpt>
<trkpt lat="33.8106151" lon="-118.3935728">
  <ele>-9.68</ele>
  <time>2026-09-02T22:09:15Z</time>
  <course>97.84</course>
  <speed>0.0</speed>
  <fix>3d</fix>
</trkpt>
<trkpt lat="33.810615" lon="-118.3935726">
  <ele>-9.786</ele>
  <time>2026-09-02T22:09:15Z</time>
  <course>155.46</course>
  <speed>0.022360679774997897</speed>
  <fix>3d</fix>
</trkpt>
<trkpt lat="33.810615" lon="-118.3935726">
  <ele>-9.758</ele>
  <time>2026-09-02T22:09:15Z</time>
  <course>155.45</course>
  <speed>0.022360679774997897</speed>
  <fix>3d</fix>
</trkpt>
<trkpt lat="33.8106151" lon="-118.3935728">
  <ele>-9.44</ele>
  <time>2026-09-02T22:09:15Z</time>
  <course>97.89</course>
  <speed>0.0</speed>
  <fix>3d</fix>
</trkpt>
<trkpt lat="33.810615" lon="-118.3935726">
  <ele>-9.633</ele>
  <time>2026-09-02T22:09:15Z</time>
  <course>155.45</course>
  <speed>0.02</speed>
  <fix>3d</fix>
</trkpt>
<trkpt lat="33.8106151" lon="-118.3935728">
  <ele>-9.44</ele>
  <time>2026-09-02T22:09:15Z</time>
  <course>97.89</course>
  <speed>0.0</speed>
  <fix>3d</fix>
</trkpt>
<trkpt lat="33.810615" lon="-118.3935726">
  <ele>-9.63</ele>
  <time>2026-09-02T22:09:15Z</time>
  <course>155.45</course>
  <speed>0.022360679774997897</speed>
  <fix>3d</fix>
</trkpt>
<trkpt lat="33.810615" lon="-118.3935726">
  <ele>-9.506</ele>
  <time>2026-09-02T22:09:15Z</time>
  <course>155.44</course>
  <speed>0.02</speed>
  <fix>3d</fix>
</trkpt>
<trkpt lat="33.8106151" lon="-118.3935728">
  <ele>-9.19</ele>
  <time>2026-09-02T22:09:15Z</time>
  <course>97.96</course>
  <speed>0.0</speed>
  <fix>3d</fix>
</trkpt>
<trkpt lat="33.810615" lon="-118.3935726">
  <ele>-9.468</ele>
  <time>2026-09-02T22:09:15Z</time>
  <course>155.44</course>
  <speed>0.02</speed>
  <fix>3d</fix>
</trkpt>
<trkpt lat="33.810615" lon="-118.3935726">
  <ele>-9.38</ele>
  <time>2026-09-02T22:09:15Z</time>
  <course>155.43</course>
  <speed>0.02</speed>
  <fix>3d</fix>
</trkpt>
<trkpt lat="33.8106151" lon="-118.3935728">
  <ele>-9.19</ele>
  <time>2026-09-02T22:09:15Z</time>
  <course>97.96</course>
  <speed>0.0</speed>
  <fix>3d</fix>
</trkpt>
<trkpt lat="33.810615" lon="-118.3935726">
  <ele>-9.327</ele>
  <time>2026-09-02T22:09:15Z</time>
  <course>155.43</course>
  <speed>0.022360679774997897</speed>
  <fix>3d</fix>
</trkpt>
<trkpt lat="33.810615" lon="-118.3935726">
  <ele>-9.254</ele>
  <time>2026-09-02T22:09:15Z</time>
  <course>155.42</course>
  <speed>0.02</speed>
  <fix>3d</fix>
</trkpt>
<trkpt lat="33.8106151" lon="-118.3935728">
  <ele>-8.95</ele>
  <time>2026-09-02T22:09:15Z</time>
  <course>98.01</course>
  <speed>0.0</speed>
  <fix>3d</fix>
</trkpt>
<trkpt lat="33.810615" lon="-118.3935726">
  <ele>-9.217</ele>
  <time>2026-09-02T22:09:15Z</time>
  <course>155.42</course>
  <speed>0.02</speed>
  <fix>3d</fix>
</trkpt>
<trkpt lat="33.810615" lon="-118.3935726">
  <ele>-9.13</ele>
  <time>2026-09-02T22:09:15Z</time>
  <course>155.41</course>
  <speed>0.02</speed>
  <fix>3d</fix>
</trkpt>
<trkpt lat="33.8106151" lon="-118.3935728">
  <ele>-8.95</ele>
  <time>2026-09-02T22:09:15Z</time>
  <course>98.01</course>
  <speed>0.0</speed>
  <fix>3d</fix>
</trkpt>
<trkpt lat="33.810615" lon="-118.3935726">
  <ele>-9.08</ele>
  <time>2026-09-02T22:09:15Z</time>
  <course>155.41</course>
  <speed>0.02</speed>
  <fix>3d</fix>
</trkpt>
<trkpt lat="33.810615" lon="-118.3935726">
  <ele>-9.007</ele>
  <time>2026-09-02T22:09:15Z</time>
  <course>155.41</course>
  <speed>0.02</speed>
  <fix>3d</fix>
</trkpt>
<trkpt lat="33.8106151" lon="-118.3935728">
  <ele>-8.7</ele>
  <time>2026-09-02T22:09:15Z</time>
  <course>98.06</course>
  <speed>0.0</speed>
  <fix>3d</fix>
</trkpt>
<trkpt lat="33.810615" lon="-118.3935726">
  <ele>-8.97</ele>
  <time>2026-09-02T22:09:15Z</time>
  <course>155.4</course>
  <speed>0.02</speed>
  <fix>3d</fix>
</trkpt>
<trkpt lat="33.810615" lon="-118.3935726">
  <ele>-8.885</ele>
  <time>2026-09-02T22:09:15Z</time>
  <course>155.4</course>
  <speed>0.02</speed>
  <fix>3d</fix>
</trkpt>
<trkpt lat="33.8106151" lon="-118.3935728">
  <ele>-8.7</ele>
  <time>2026-09-02T22:09:15Z</time>
  <course>98.06</course>
  <speed>0.0</speed>
  <fix>3d</fix>
</trkpt>
<trkpt lat="33.810615" lon="-118.3935726">
  <ele>-8.882</ele>
  <time>2026-09-02T22:09:15Z</time>
  <course>155.4</course>
  <speed>0.02</speed>
  <fix>3d</fix>
</trkpt>
<trkpt lat="33.810615" lon="-118.3935726">
  <ele>-8.765</ele>
  <time>2026-09-02T22:09:15Z</time>
  <course>155.39</course>
  <speed>0.02</speed>
  <fix>3d</fix>
</trkpt>
<trkpt lat="33.8106151" lon="-118.3935728">
  <ele>-8.46</ele>
  <time>2026-09-02T22:09:15Z</time>
  <course>98.08</course>
  <speed>0.0</speed>
  <fix>3d</fix>
</trkpt>
<trkpt lat="33.810615" lon="-118.3935726">
  <ele>-8.725</ele>
  <time>2026-09-02T22:09:15Z</time>
  <course>155.39</course>
  <speed>0.02</speed>
  <fix>3d</fix>
</trkpt>
<trkpt lat="33.810615" lon="-118.3935726">
  <ele>-8.644</ele>
  <time>2026-09-02T22:09:15Z</time>
  <course>155.38</course>
  <speed>0.02</speed>
  <fix>3d</fix>
</trkpt>
<trkpt lat="33.8106151" lon="-118.3935728">
  <ele>-8.46</ele>
  <time>2026-09-02T22:09:15Z</time>
  <course>98.08</course>
  <speed>0.0</speed>
  <fix>3d</fix>
</trkpt>
<trkpt lat="33.810615" lon="-118.3935726">
  <ele>-8.605</ele>
  <time>2026-09-02T22:09:15Z</time>
  <course>155.38</course>
  <speed>0.02</speed>
  <fix>3d</fix>
</trkpt>
<trkpt lat="33.810615" lon="-118.3935726">
  <ele>-8.523</ele>
  <time>2026-09-02T22:09:15Z</time>
  <course>155.37</course>
  <speed>0.02</speed>
  <fix>3d</fix>
</trkpt>
<trkpt lat="33.8106151" lon="-118.3935728">
  <ele>-8.21</ele>
  <time>2026-09-02T22:09:15Z</time>
  <course>98.09</course>
  <speed>0.0</speed>
  <fix>3d</fix>
</trkpt>
<trkpt lat="33.810615" lon="-118.3935726">
  <ele>-8.487</ele>
  <time>2026-09-02T22:09:15Z</time>
  <course>155.37</course>
  <speed>0.02</speed>
  <fix>3d</fix>
</trkpt>
<trkpt lat="33.810615" lon="-118.3935726">
  <ele>-8.402</ele>
  <time>2026-09-02T22:09:15Z</time>
  <course>155.37</course>
  <speed>0.02</speed>
  <fix>3d</fix>
</trkpt>
<trkpt lat="33.8106151" lon="-118.3935728">
  <ele>-8.21</ele>
  <time>2026-09-02T22:09:15Z</time>
  <course>98.09</course>
  <speed>0.0</speed>
  <fix>3d</fix>
</trkpt>
<trkpt lat="33.810615" lon="-118.3935726">
  <ele>-8.312</ele>
  <time>2026-09-02T22:09:15Z</time>
  <course>155.36</course>
  <speed>0.02</speed>
  <fix>3d</fix>
</trkpt>
<trkpt lat="33.810615" lon="-118.3935726">
  <ele>-8.281</ele>
  <time>2026-09-02T22:09:15Z</time>
  <course>155.36</course>
  <speed>0.02</speed>
  <fix>3d</fix>
</trkpt>
<trkpt lat="33.8106151" lon="-118.3935728">
  <ele>-7.97</ele>
  <time>2026-09-02T22:09:15Z</time>
  <course>98.12</course>
  <speed>0.0</speed>
  <fix>3d</fix>
</trkpt>
<trkpt lat="33.810615" lon="-118.3935726">
  <ele>-8.159</ele>
  <time>2026-09-02T22:09:15Z</time>
  <course>155.35</course>
  <speed>0.02</speed>
  <fix>3d</fix>
</trkpt>
<trkpt lat="33.8106151" lon="-118.3935728">
  <ele>-7.97</ele>
  <time>2026-09-02T22:09:15Z</time>
  <course>98.12</course>
  <speed>0.0</speed>
  <fix>3d</fix>
</trkpt>
<trkpt lat="33.810615" lon="-118.3935726">
  <ele>-8.157</ele>
  <time>2026-09-02T22:09:15Z</time>
  <course>155.35</course>
  <speed>0.02</speed>
  <fix>3d</fix>
</trkpt>
<trkpt lat="33.810615" lon="-118.3935726">
  <ele>-8.036</ele>
  <time>2026-09-02T22:09:15Z</time>
  <course>155.34</course>
  <speed>0.02</speed>
  <fix>3d</fix>
</trkpt>
<trkpt lat="33.8106151" lon="-118.3935728">
  <ele>-7.72</ele>
  <time>2026-09-02T22:09:15Z</time>
  <course>98.16</course>
  <speed>0.0</speed>
  <fix>3d</fix>
</trkpt>
<trkpt lat="33.810615" lon="-118.3935726">
  <ele>-7.937</ele>
  <time>2026-09-02T22:09:15Z</time>
  <course>155.34</course>
  <speed>0.02</speed>
  <fix>3d</fix>
</trkpt>
<trkpt lat="33.810615" lon="-118.3935726">
  <ele>-7.913</ele>
  <time>2026-09-02T22:09:15Z</time>
  <course>155.33</course>
  <speed>0.02</speed>
  <fix>3d</fix>
</trkpt>
<trkpt lat="33.8106151" lon="-118.3935728">
  <ele>-7.72</ele>
  <time>2026-09-02T22:09:15Z</time>
  <course>98.16</course>
  <speed>0.0</speed>
  <fix>3d</fix>
</trkpt>
<trkpt lat="33.810615" lon="-118.3935725">
  <ele>-7.789</ele>
  <time>2026-09-02T22:09:15Z</time>
  <course>155.33</course>
  <speed>0.02</speed>
  <fix>3d</fix>
</trkpt>
<trkpt lat="33.8106151" lon="-118.3935728">
  <ele>-7.48</ele>
  <time>2026-09-02T22:09:15Z</time>
  <course>98.21</course>
  <speed>0.0</speed>
  <fix>3d</fix>
</trkpt>
<trkpt lat="33.810615" lon="-118.3935725">
  <ele>-7.787</ele>
  <time>2026-09-02T22:09:15Z</time>
  <course>155.33</course>
  <speed>0.02</speed>
  <fix>3d</fix>
</trkpt>
<trkpt lat="33.810615" lon="-118.3935725">
  <ele>-7.666</ele>
  <time>2026-09-02T22:09:15Z</time>
  <course>155.32</course>
  <speed>0.02</speed>
  <fix>3d</fix>
</trkpt>
<trkpt lat="33.8106151" lon="-118.3935728">
  <ele>-7.48</ele>
  <time>2026-09-02T22:09:15Z</time>
  <course>98.21</course>
  <speed>0.0</speed>
  <fix>3d</fix>
</trkpt>
<trkpt lat="33.810615" lon="-118.3935725">
  <ele>-7.663</ele>
  <time>2026-09-02T22:09:15Z</time>
  <course>155.32</course>
  <speed>0.02</speed>
  <fix>3d</fix>
</trkpt>
<trkpt lat="33.810615" lon="-118.3935725">
  <ele>-7.542</ele>
  <time>2026-09-02T22:09:15Z</time>
  <course>155.31</course>
  <speed>0.02</speed>
  <fix>3d</fix>
</trkpt>
<trkpt lat="33.8106151" lon="-118.3935728">
  <ele>-7.23</ele>
  <time>2026-09-02T22:09:15Z</time>
  <course>98.25</course>
  <speed>0.0</speed>
  <fix>3d</fix>
</trkpt>
<trkpt lat="33.810615" lon="-118.3935725">
  <ele>-7.539</ele>
  <time>2026-09-02T22:09:15Z</time>
  <course>155.31</course>
  <speed>0.02</speed>
  <fix>3d</fix>
</trkpt>
<trkpt lat="33.810615" lon="-118.3935725">
  <ele>-7.418</ele>
  <time>2026-09-02T22:09:15Z</time>
  <course>155.3</course>
  <speed>0.02</speed>
  <fix>3d</fix>
</trkpt>
<trkpt lat="33.8106151" lon="-118.3935728">
  <ele>-7.23</ele>
  <time>2026-09-02T22:09:15Z</time>
  <course>98.25</course>
  <speed>0.0</speed>
  <fix>3d</fix>
</trkpt>
<trkpt lat="33.810615" lon="-118.3935725">
  <ele>-7.378</ele>
  <time>2026-09-02T22:09:15Z</time>
  <course>155.3</course>
  <speed>0.02</speed>
  <fix>3d</fix>
</trkpt>
<trkpt lat="33.810615" lon="-118.3935725">
  <ele>-7.294</ele>
  <time>2026-09-02T22:09:15Z</time>
  <course>155.3</course>
  <speed>0.02</speed>
  <fix>3d</fix>
</trkpt>
<trkpt lat="33.8106151" lon="-118.3935728">
  <ele>-6.99</ele>
  <time>2026-09-02T22:09:15Z</time>
  <course>98.28</course>
  <speed>0.0</speed>
  <fix>3d</fix>
</trkpt>
<trkpt lat="33.810615" lon="-118.3935725">
  <ele>-7.257</ele>
  <time>2026-09-02T22:09:15Z</time>
  <course>155.29</course>
  <speed>0.02</speed>
  <fix>3d</fix>
</trkpt>
<trkpt lat="33.810615" lon="-118.3935725">
  <ele>-7.169</ele>
  <time>2026-09-02T22:09:15Z</time>
  <course>155.29</course>
  <speed>0.02</speed>
  <fix>3d</fix>
</trkpt>
<trkpt lat="33.8106151" lon="-118.3935728">
  <ele>-6.99</ele>
  <time>2026-09-02T22:09:15Z</time>
  <course>98.28</course>
  <speed>0.0</speed>
  <fix>3d</fix>
</trkpt>
<trkpt lat="33.810615" lon="-118.3935725">
  <ele>-7.132</ele>
  <time>2026-09-02T22:09:15Z</time>
  <course>155.29</course>
  <speed>0.02</speed>
  <fix>3d</fix>
</trkpt>
<trkpt lat="33.810615" lon="-118.3935725">
  <ele>-7.044</ele>
  <time>2026-09-02T22:09:15Z</time>
  <course>155.28</course>
  <speed>0.02</speed>
  <fix>3d</fix>
</trkpt>
<trkpt lat="33.8106151" lon="-118.3935728">
  <ele>-6.74</ele>
  <time>2026-09-02T22:09:15Z</time>
  <course>98.28</course>
  <speed>0.0</speed>
  <fix>3d</fix>
</trkpt>
<trkpt lat="33.810615" lon="-118.3935725">
  <ele>-7.007</ele>
  <time>2026-09-02T22:09:15Z</time>
  <course>155.28</course>
  <speed>0.02</speed>
  <fix>3d</fix>
</trkpt>
<trkpt lat="33.810615" lon="-118.3935725">
  <ele>-6.92</ele>
  <time>2026-09-02T22:09:15Z</time>
  <course>155.27</course>
  <speed>0.02</speed>
  <fix>3d</fix>
</trkpt>
<trkpt lat="33.8106151" lon="-118.3935728">
  <ele>-6.74</ele>
  <time>2026-09-02T22:09:15Z</time>
  <course>98.28</course>
  <speed>0.0</speed>
  <fix>3d</fix>
</trkpt>
<trkpt lat="33.810615" lon="-118.3935725">
  <ele>-6.883</ele>
  <time>2026-09-02T22:09:15Z</time>
  <course>155.27</course>
  <speed>0.02</speed>
  <fix>3d</fix>
</trkpt>
<trkpt lat="33.810615" lon="-118.3935725">
  <ele>-6.796</ele>
  <time>2026-09-02T22:09:15Z</time>
  <course>155.27</course>
  <speed>0.02</speed>
  <fix>3d</fix>
</trkpt>
<trkpt lat="33.8106151" lon="-118.3935727">
  <ele>-6.5</ele>
  <time>2026-09-02T22:09:15Z</time>
  <course>98.29</course>
  <speed>0.0</speed>
  <fix>3d</fix>
</trkpt>
<trkpt lat="33.810615" lon="-118.3935725">
  <ele>-6.759</ele>
  <time>2026-09-02T22:09:15Z</time>
  <course>155.26</course>
  <speed>0.02</speed>
  <fix>3d</fix>
</trkpt>
<trkpt lat="33.810615" lon="-118.3935725">
  <ele>-6.671</ele>
  <time>2026-09-02T22:09:15Z</time>
  <course>155.26</course>
  <speed>0.02</speed>
  <fix>3d</fix>
</trkpt>
<trkpt lat="33.8106151" lon="-118.3935727">
  <ele>-6.5</ele>
  <time>2026-09-02T22:09:15Z</time>
  <course>98.29</course>
  <speed>0.0</speed>
  <fix>3d</fix>
</trkpt>
<trkpt lat="33.810615" lon="-118.3935725">
  <ele>-6.633</ele>
  <time>2026-09-02T22:09:15Z</time>
  <course>155.26</course>
  <speed>0.02</speed>
  <fix>3d</fix>
</trkpt>
<trkpt lat="33.810615" lon="-118.3935725">
  <ele>-6.546</ele>
  <time>2026-09-02T22:09:15Z</time>
  <course>155.25</course>
  <speed>0.02</speed>
  <fix>3d</fix>
</trkpt>
<trkpt lat="33.8106151" lon="-118.3935727">
  <ele>-6.25</ele>
  <time>2026-09-02T22:09:15Z</time>
  <course>98.31</course>
  <speed>0.0</speed>
  <fix>3d</fix>
</trkpt>
<trkpt lat="33.810615" lon="-118.3935725">
  <ele>-6.505</ele>
  <time>2026-09-02T22:09:15Z</time>
  <course>155.25</course>
  <speed>0.02</speed>
  <fix>3d</fix>
</trkpt>
<trkpt lat="33.810615" lon="-118.3935725">
  <ele>-6.42</ele>
  <time>2026-09-02T22:09:15Z</time>
  <course>155.24</course>
  <speed>0.02</speed>
  <fix>3d</fix>
</trkpt>
<trkpt lat="33.8106151" lon="-118.3935727">
  <ele>-6.25</ele>
  <time>2026-09-02T22:09:15Z</time>
  <course>98.31</course>
  <speed>0.0</speed>
  <fix>3d</fix>
</trkpt>
<trkpt lat="33.810615" lon="-118.3935725">
  <ele>-6.383</ele>
  <time>2026-09-02T22:09:15Z</time>
  <course>155.24</course>
  <speed>0.02</speed>
  <fix>3d</fix>
</trkpt>
<trkpt lat="33.810615" lon="-118.3935725">
  <ele>-6.295</ele>
  <time>2026-09-02T22:09:15Z</time>
  <course>155.24</course>
  <speed>0.02</speed>
  <fix>3d</fix>
</trkpt>
<trkpt lat="33.8106151" lon="-118.3935727">
  <ele>-6.01</ele>
  <time>2026-09-02T22:09:15Z</time>
  <course>98.35</course>
  <speed>0.0</speed>
  <fix>3d</fix>
</trkpt>
<trkpt lat="33.810615" lon="-118.3935725">
  <ele>-6.291</ele>
  <time>2026-09-02T22:09:15Z</time>
  <course>155.24</course>
  <speed>0.02</speed>
  <fix>3d</fix>
</trkpt>
<trkpt lat="33.810615" lon="-118.3935725">
  <ele>-6.168</ele>
  <time>2026-09-02T22:09:15Z</time>
  <course>155.23</course>
  <speed>0.02</speed>
  <fix>3d</fix>
</trkpt>
<trkpt lat="33.8106151" lon="-118.3935727">
  <ele>-6.01</ele>
  <time>2026-09-02T22:09:15Z</time>
  <course>98.35</course>
  <speed>0.0</speed>
  <fix>3d</fix>
</trkpt>
<trkpt lat="33.810615" lon="-118.3935725">
  <ele>-6.165</ele>
  <time>2026-09-02T22:09:15Z</time>
  <course>155.23</course>
  <speed>0.02</speed>
  <fix>3d</fix>
</trkpt>
<trkpt lat="33.810615" lon="-118.3935725">
  <ele>-6.042</ele>
  <time>2026-09-02T22:09:15Z</time>
  <course>155.22</course>
  <speed>0.02</speed>
  <fix>3d</fix>
</trkpt>
<trkpt lat="33.8106151" lon="-118.3935727">
  <ele>-5.76</ele>
  <time>2026-09-02T22:09:15Z</time>
  <course>98.39</course>
  <speed>0.0</speed>
  <fix>3d</fix>
</trkpt>
<trkpt lat="33.810615" lon="-118.3935725">
  <ele>-6.039</ele>
  <time>2026-09-02T22:09:15Z</time>
  <course>155.22</course>
  <speed>0.02</speed>
  <fix>3d</fix>
</trkpt>
<trkpt lat="33.810615" lon="-118.3935725">
  <ele>-5.916</ele>
  <time>2026-09-02T22:09:15Z</time>
  <course>155.21</course>
  <speed>0.02</speed>
  <fix>3d</fix>
</trkpt>
<trkpt lat="33.8106151" lon="-118.3935727">
  <ele>-5.76</ele>
  <time>2026-09-02T22:09:15Z</time>
  <course>98.39</course>
  <speed>0.0</speed>
  <fix>3d</fix>
</trkpt>
<trkpt lat="33.810615" lon="-118.3935725">
  <ele>-5.878</ele>
  <time>2026-09-02T22:09:15Z</time>
  <course>155.21</course>
  <speed>0.03</speed>
  <fix>3d</fix>
</trkpt>
<trkpt lat="33.810615" lon="-118.3935725">
  <ele>-5.79</ele>
  <time>2026-09-02T22:09:15Z</time>
  <course>155.21</course>
  <speed>0.02</speed>
  <fix>3d</fix>
</trkpt>
<trkpt lat="33.8106151" lon="-118.3935727">
  <ele>-5.52</ele>
  <time>2026-09-02T22:09:15Z</time>
  <course>98.42</course>
  <speed>0.0</speed>
  <fix>3d</fix>
</trkpt>
<trkpt lat="33.810615" lon="-118.3935725">
  <ele>-5.753</ele>
  <time>2026-09-02T22:09:15Z</time>
  <course>155.2</course>
  <speed>0.03</speed>
  <fix>3d</fix>
</trkpt>
<trkpt lat="33.810615" lon="-118.3935725">
  <ele>-5.664</ele>
  <time>2026-09-02T22:09:15Z</time>
  <course>155.2</course>
  <speed>0.03</speed>
  <fix>3d</fix>
</trkpt>
<trkpt lat="33.8106151" lon="-118.3935727">
  <ele>-5.52</ele>
  <time>2026-09-02T22:09:15Z</time>
  <course>98.42</course>
  <speed>0.0</speed>
  <fix>3d</fix>
</trkpt>
<trkpt lat="33.810615" lon="-118.3935725">
  <ele>-5.626</ele>
  <time>2026-09-02T22:09:15Z</time>
  <course>155.2</course>
  <speed>0.0316227766016838</speed>
  <fix>3d</fix>
</trkpt>
<trkpt lat="33.810615" lon="-118.3935725">
  <ele>-5.538</ele>
  <time>2026-09-02T22:09:15Z</time>
  <course>155.19</course>
  <speed>0.03</speed>
  <fix>3d</fix>
</trkpt>
<trkpt lat="33.8106151" lon="-118.3935727">
  <ele>-5.27</ele>
  <time>2026-09-02T22:09:15Z</time>
  <course>98.43</course>
  <speed>0.0</speed>
  <fix>3d</fix>
</trkpt>
<trkpt lat="33.810615" lon="-118.3935725">
  <ele>-5.5</ele>
  <time>2026-09-02T22:09:15Z</time>
  <course>155.19</course>
  <speed>0.03</speed>
  <fix>3d</fix>
</trkpt>
<trkpt lat="33.810615" lon="-118.3935725">
  <ele>-5.413</ele>
  <time>2026-09-02T22:09:15Z</time>
  <course>155.18</course>
  <speed>0.03</speed>
  <fix>3d</fix>
</trkpt>
<trkpt lat="33.8106151" lon="-118.3935727">
  <ele>-5.27</ele>
  <time>2026-09-02T22:09:15Z</time>
  <course>98.43</course>
  <speed>0.0</speed>
  <fix>3d</fix>
</trkpt>
<trkpt lat="33.810615" lon="-118.3935725">
  <ele>-5.375</ele>
  <time>2026-09-02T22:09:15Z</time>
  <course>155.18</course>
  <speed>0.0316227766016838</speed>
  <fix>3d</fix>
</trkpt>
<trkpt lat="33.810615" lon="-118.3935725">
  <ele>-5.287</ele>
  <time>2026-09-02T22:09:15Z</time>
  <course>155.18</course>
  <speed>0.03</speed>
  <fix>3d</fix>
</trkpt>
<trkpt lat="33.8106151" lon="-118.3935727">
  <ele>-5.02</ele>
  <time>2026-09-02T22:09:15Z</time>
  <course>98.43</course>
  <speed>0.0</speed>
  <fix>3d</fix>
</trkpt>
<trkpt lat="33.810615" lon="-118.3935725">
  <ele>-5.249</ele>
  <time>2026-09-02T22:09:15Z</time>
  <course>155.17</course>
  <speed>0.0316227766016838</speed>
  <fix>3d</fix>
</trkpt>
<trkpt lat="33.810615" lon="-118.3935725">
  <ele>-5.162</ele>
  <time>2026-09-02T22:09:15Z</time>
  <course>155.17</course>
  <speed>0.03</speed>
  <fix>3d</fix>
</trkpt>
<trkpt lat="33.8106151" lon="-118.3935727">
  <ele>-5.02</ele>
  <time>2026-09-02T22:09:15Z</time>
  <course>98.43</course>
  <speed>0.0</speed>
  <fix>3d</fix>
</trkpt>
<trkpt lat="33.810615" lon="-118.3935725">
  <ele>-5.124</ele>
  <time>2026-09-02T22:09:15Z</time>
  <course>155.17</course>
  <speed>0.0316227766016838</speed>
  <fix>3d</fix>
</trkpt>
<trkpt lat="33.810615" lon="-118.3935725">
  <ele>-5.036</ele>
  <time>2026-09-02T22:09:15Z</time>
  <course>155.16</course>
  <speed>0.03</speed>
  <fix>3d</fix>
</trkpt>
<trkpt lat="33.8106151" lon="-118.3935727">
  <ele>-4.78</ele>
  <time>2026-09-02T22:09:15Z</time>
  <course>98.44</course>
  <speed>0.0</speed>
  <fix>3d</fix>
</trkpt>
<trkpt lat="33.810615" lon="-118.3935725">
  <ele>-4.998</ele>
  <time>2026-09-02T22:09:15Z</time>
  <course>155.16</course>
  <speed>0.03</speed>
  <fix>3d</fix>
</trkpt>
<trkpt lat="33.810615" lon="-118.3935725">
  <ele>-4.91</ele>
  <time>2026-09-02T22:09:15Z</time>
  <course>155.15</course>
  <speed>0.03</speed>
  <fix>3d</fix>
</trkpt>
<trkpt lat="33.8106151" lon="-118.3935727">
  <ele>-4.78</ele>
  <time>2026-09-02T22:09:15Z</time>
  <course>98.44</course>
  <speed>0.0</speed>
  <fix>3d</fix>
</trkpt>
<trkpt lat="33.810615" lon="-118.3935725">
  <ele>-4.785</ele>
  <time>2026-09-02T22:09:15Z</time>
  <course>155.15</course>
  <speed>0.03</speed>
  <fix>3d</fix>
</trkpt>
<trkpt lat="33.8106151" lon="-118.3935727">
  <ele>-4.54</ele>
  <time>2026-09-02T22:09:15Z</time>
  <course>98.46</course>
  <speed>0.0</speed>
  <fix>3d</fix>
</trkpt>
<trkpt lat="33.810615" lon="-118.3935725">
  <ele>-4.66</ele>
  <time>2026-09-02T22:09:15Z</time>
  <course>155.14</course>
  <speed>0.0316227766016838</speed>
  <fix>3d</fix>
</trkpt>
<trkpt lat="33.8106151" lon="-118.3935727">
  <ele>-4.54</ele>
  <time>2026-09-02T22:09:15Z</time>
  <course>98.46</course>
  <speed>0.0</speed>
  <fix>3d</fix>
</trkpt>
<trkpt lat="33.810615" lon="-118.3935724">
  <ele>-4.538</ele>
  <time>2026-09-02T22:09:15Z</time>
  <course>155.13</course>
  <speed>0.0316227766016838</speed>
  <fix>3d</fix>
</trkpt>
<trkpt lat="33.8106151" lon="-118.3935727">
  <ele>-4.29</ele>
  <time>2026-09-02T22:09:15Z</time>
  <course>98.44</course>
  <speed>0.0</speed>
  <fix>3d</fix>
</trkpt>
<trkpt lat="33.810615" lon="-118.3935724">
  <ele>-4.42</ele>
  <time>2026-09-02T22:09:15Z</time>
  <course>155.12</course>
  <speed>0.03</speed>
  <fix>3d</fix>
</trkpt>
<trkpt lat="33.8106151" lon="-118.3935727">
  <ele>-4.29</ele>
  <time>2026-09-02T22:09:15Z</time>
  <course>98.44</course>
  <speed>0.0</speed>
  <fix>3d</fix>
</trkpt>
<trkpt lat="33.810615" lon="-118.3935724">
  <ele>-4.31</ele>
  <time>2026-09-02T22:09:15Z</time>
  <course>155.12</course>
  <speed>0.03</speed>
  <fix>3d</fix>
</trkpt>
<trkpt lat="33.8106151" lon="-118.3935727">
  <ele>-4.05</ele>
  <time>2026-09-02T22:09:15Z</time>
  <course>97.1</course>
  <speed>0.0</speed>
  <fix>3d</fix>
</trkpt>
<trkpt lat="33.810615" lon="-118.3935724">
  <ele>-4.216</ele>
  <time>2026-09-02T22:09:15Z</time>
  <course>155.11</course>
  <speed>0.03</speed>
  <fix>3d</fix>
</trkpt>
<trkpt lat="33.8106151" lon="-118.3935727">
  <ele>-4.05</ele>
  <time>2026-09-02T22:09:15Z</time>
  <course>97.1</course>
  <speed>0.0</speed>
  <fix>3d</fix>
</trkpt>
<trkpt lat="33.810615" lon="-118.3935724">
  <ele>-4.137</ele>
  <time>2026-09-02T22:09:15Z</time>
  <course>155.1</course>
  <speed>0.03</speed>
  <fix>3d</fix>
</trkpt>
<trkpt lat="33.8106151" lon="-118.3935727">
  <ele>-3.84</ele>
  <time>2026-09-02T22:09:15Z</time>
  <course>92.31</course>
  <speed>0.0</speed>
  <fix>3d</fix>
</trkpt>
<trkpt lat="33.810615" lon="-118.3935724">
  <ele>-4.076</ele>
  <time>2026-09-02T22:09:15Z</time>
  <course>155.09</course>
  <speed>0.03</speed>
  <fix>3d</fix>
</trkpt>
<trkpt lat="33.8106151" lon="-118.3935727">
  <ele>-3.84</ele>
  <time>2026-09-02T22:09:15Z</time>
  <course>92.31</course>
  <speed>0.0</speed>
  <fix>3d</fix>
</trkpt>
<trkpt lat="33.810615" lon="-118.3935724">
  <ele>-4.031</ele>
  <time>2026-09-02T22:09:15Z</time>
  <course>155.09</course>
  <speed>0.03</speed>
  <fix>3d</fix>
</trkpt>
<trkpt lat="33.8106151" lon="-118.3935727">
  <ele>-3.68</ele>
  <time>2026-09-02T22:09:15Z</time>
  <course>87.1</course>
  <speed>0.0</speed>
  <fix>3d</fix>
</trkpt>
<trkpt lat="33.810615" lon="-118.3935724">
  <ele>-3.998</ele>
  <time>2026-09-02T22:09:15Z</time>
  <course>155.08</course>
  <speed>0.03</speed>
  <fix>3d</fix>
</trkpt>
<trkpt lat="33.8106151" lon="-118.3935727">
  <ele>-3.68</ele>
  <time>2026-09-02T22:09:15Z</time>
  <course>87.1</course>
  <speed>0.0</speed>
  <fix>3d</fix>
</trkpt>
<trkpt lat="33.810615" lon="-118.3935724">
  <ele>-3.974</ele>
  <time>2026-09-02T22:09:15Z</time>
  <course>155.07</course>
  <speed>0.03</speed>
  <fix>3d</fix>
</trkpt>
<trkpt lat="33.8106151" lon="-118.3935726">
  <ele>-3.58</ele>
  <time>2026-09-02T22:09:15Z</time>
  <course>84.53</course>
  <speed>0.0</speed>
  <fix>3d</fix>
</trkpt>
<trkpt lat="33.810615" lon="-118.3935724">
  <ele>-3.959</ele>
  <time>2026-09-02T22:09:15Z</time>
  <course>155.07</course>
  <speed>0.03</speed>
  <fix>3d</fix>
</trkpt>
<trkpt lat="33.8106151" lon="-118.3935726">
  <ele>-3.58</ele>
  <time>2026-09-02T22:09:15Z</time>
  <course>84.53</course>
  <speed>0.0</speed>
  <fix>3d</fix>
</trkpt>
<trkpt lat="33.810615" lon="-118.3935724">
  <ele>-3.951</ele>
  <time>2026-09-02T22:09:15Z</time>
  <course>155.06</course>
  <speed>0.03</speed>
  <fix>3d</fix>
</trkpt>
<trkpt lat="33.8106151" lon="-118.3935726">
  <ele>-3.53</ele>
  <time>2026-09-02T22:09:15Z</time>
  <course>83.8</course>
  <speed>0.0</speed>
  <fix>3d</fix>
</trkpt>
<trkpt lat="33.810615" lon="-118.3935724">
  <ele>-3.948</ele>
  <time>2026-09-02T22:09:15Z</time>
  <course>155.05</course>
  <speed>0.03</speed>
  <fix>3d</fix>
</trkpt>
<trkpt lat="33.8106151" lon="-118.3935726">
  <ele>-3.53</ele>
  <time>2026-09-02T22:09:15Z</time>
  <course>83.8</course>
  <speed>0.0</speed>
  <fix>3d</fix>
</trkpt>
<trkpt lat="33.810615" lon="-118.3935724">
  <ele>-3.947</ele>
  <time>2026-09-02T22:09:15Z</time>
  <course>155.05</course>
  <speed>0.03</speed>
  <fix>3d</fix>
</trkpt>
<trkpt lat="33.8106151" lon="-118.3935726">
  <ele>-3.5</ele>
  <time>2026-09-02T22:09:15Z</time>
  <course>83.54</course>
  <speed>0.0</speed>
  <fix>3d</fix>
</trkpt>
<trkpt lat="33.810615" lon="-118.3935724">
  <ele>-3.946</ele>
  <time>2026-09-02T22:09:15Z</time>
  <course>155.04</course>
  <speed>0.03</speed>
  <fix>3d</fix>
</trkpt>
<trkpt lat="33.8106151" lon="-118.3935726">
  <ele>-3.5</ele>
  <time>2026-09-02T22:09:15Z</time>
  <course>83.54</course>
  <speed>0.0</speed>
  <fix>3d</fix>
</trkpt>
<trkpt lat="33.810615" lon="-118.3935724">
  <ele>-3.947</ele>
  <time>2026-09-02T22:09:15Z</time>
  <course>155.03</course>
  <speed>0.03</speed>
  <fix>3d</fix>
</trkpt>
<trkpt lat="33.8106151" lon="-118.3935726">
  <ele>-3.48</ele>
  <time>2026-09-02T22:09:15Z</time>
  <course>83.36</course>
  <speed>0.0</speed>
  <fix>3d</fix>
</trkpt>
<trkpt lat="33.810615" lon="-118.3935724">
  <ele>-3.948</ele>
  <time>2026-09-02T22:09:15Z</time>
  <course>155.02</course>
  <speed>0.03</speed>
  <fix>3d</fix>
</trkpt>
<trkpt lat="33.8106151" lon="-118.3935726">
  <ele>-3.48</ele>
  <time>2026-09-02T22:09:15Z</time>
  <course>83.36</course>
  <speed>0.0</speed>
  <fix>3d</fix>
</trkpt>
<trkpt lat="33.810615" lon="-118.3935724">
  <ele>-3.951</ele>
  <time>2026-09-02T22:09:15Z</time>
  <course>155.02</course>
  <speed>0.03</speed>
  <fix>3d</fix>
</trkpt>
<trkpt lat="33.8106151" lon="-118.3935726">
  <ele>-3.47</ele>
  <time>2026-09-02T22:09:15Z</time>
  <course>83.28</course>
  <speed>0.0</speed>
  <fix>3d</fix>
</trkpt>
<trkpt lat="33.810615" lon="-118.3935724">
  <ele>-3.953</ele>
  <time>2026-09-02T22:09:15Z</time>
  <course>155.01</course>
  <speed>0.03</speed>
  <fix>3d</fix>
</trkpt>
<trkpt lat="33.8106151" lon="-118.3935726">
  <ele>-3.47</ele>
  <time>2026-09-02T22:09:15Z</time>
  <course>83.28</course>
  <speed>0.0</speed>
  <fix>3d</fix>
</trkpt>
<trkpt lat="33.810615" lon="-118.3935724">
  <ele>-3.954</ele>
  <time>2026-09-02T22:09:15Z</time>
  <course>155.0</course>
  <speed>0.03</speed>
  <fix>3d</fix>
</trkpt>
<trkpt lat="33.8106151" lon="-118.3935726">
  <ele>-3.47</ele>
  <time>2026-09-02T22:09:15Z</time>
  <course>83.28</course>
  <speed>0.0</speed>
  <fix>3d</fix>
</trkpt>
<trkpt lat="33.810615" lon="-118.3935723">
  <ele>-3.954</ele>
  <time>2026-09-02T22:09:15Z</time>
  <course>155.0</course>
  <speed>0.03</speed>
  <fix>3d</fix>
</trkpt>
<trkpt lat="33.8106151" lon="-118.3935726">
  <ele>-3.47</ele>
  <time>2026-09-02T22:09:15Z</time>
  <course>83.28</course>
  <speed>0.0</speed>
  <fix>3d</fix>
</trkpt>
<trkpt lat="33.810615" lon="-118.3935723">
  <ele>-3.953</ele>
  <time>2026-09-02T22:09:15Z</time>
  <course>154.99</course>
  <speed>0.03</speed>
  <fix>3d</fix>
</trkpt>
<trkpt lat="33.8106151" lon="-118.3935726">
  <ele>-3.46</ele>
  <time>2026-09-02T22:09:15Z</time>
  <course>83.33</course>
  <speed>0.0</speed>
  <fix>3d</fix>
</trkpt>
<trkpt lat="33.810615" lon="-118.3935723">
  <ele>-3.951</ele>
  <time>2026-09-02T22:09:15Z</time>
  <course>154.98</course>
  <speed>0.03</speed>
  <fix>3d</fix>
</trkpt>
<trkpt lat="33.8106151" lon="-118.3935726">
  <ele>-3.46</ele>
  <time>2026-09-02T22:09:15Z</time>
  <course>83.33</course>
  <speed>0.0</speed>
  <fix>3d</fix>
</trkpt>
<trkpt lat="33.810615" lon="-118.3935723">
  <ele>-3.949</ele>
  <time>2026-09-02T22:09:15Z</time>
  <course>154.97</course>
  <speed>0.03</speed>
  <fix>3d</fix>
</trkpt>
<trkpt lat="33.8106151" lon="-118.3935726">
  <ele>-3.45</ele>
  <time>2026-09-02T22:09:15Z</time>
  <course>83.39</course>
  <speed>0.0</speed>
  <fix>3d</fix>
</trkpt>
<trkpt lat="33.810615" lon="-118.3935723">
  <ele>-3.948</ele>
  <time>2026-09-02T22:09:15Z</time>
  <course>154.97</course>
  <speed>0.03</speed>
  <fix>3d</fix>
</trkpt>
<trkpt lat="33.8106151" lon="-118.3935726">
  <ele>-3.45</ele>
  <time>2026-09-02T22:09:15Z</time>
  <course>83.39</course>
  <speed>0.0</speed>
  <fix>3d</fix>
</trkpt>
<trkpt lat="33.810615" lon="-118.3935723">
  <ele>-3.947</ele>
  <time>2026-09-02T22:09:15Z</time>
  <course>154.96</course>
  <speed>0.03</speed>
  <fix>3d</fix>
</trkpt>
<trkpt lat="33.8106151" lon="-118.3935726">
  <ele>-3.45</ele>
  <time>2026-09-02T22:09:15Z</time>
  <course>83.46</course>
  <speed>0.0</speed>
  <fix>3d</fix>
</trkpt>
<trkpt lat="33.810615" lon="-118.3935723">
  <ele>-3.946</ele>
  <time>2026-09-02T22:09:15Z</time>
  <course>154.95</course>
  <speed>0.03</speed>
  <fix>3d</fix>
</trkpt>
<trkpt lat="33.8106151" lon="-118.3935726">
  <ele>-3.45</ele>
  <time>2026-09-02T22:09:15Z</time>
  <course>83.46</course>
  <speed>0.0</speed>
  <fix>3d</fix>
</trkpt>
<trkpt lat="33.810615" lon="-118.3935723">
  <ele>-3.945</ele>
  <time>2026-09-02T22:09:16Z</time>
  <course>154.95</course>
  <speed>0.03</speed>
  <fix>3d</fix>
</trkpt>
<trkpt lat="33.8106151" lon="-118.3935725">
  <ele>-3.44</ele>
  <time>2026-09-02T22:09:16Z</time>
  <course>83.49</course>
  <speed>0.0</speed>
  <fix>3d</fix>
</trkpt>
<trkpt lat="33.810615" lon="-118.3935723">
  <ele>-3.944</ele>
  <time>2026-09-02T22:09:16Z</time>
  <course>154.94</course>
  <speed>0.03</speed>
  <fix>3d</fix>
</trkpt>
<trkpt lat="33.8106151" lon="-118.3935725">
  <ele>-3.44</ele>
  <time>2026-09-02T22:09:16Z</time>
  <course>83.49</course>
  <speed>0.0</speed>
  <fix>3d</fix>
</trkpt>
<trkpt lat="33.810615" lon="-118.3935723">
  <ele>-3.945</ele>
  <time>2026-09-02T22:09:16Z</time>
  <course>154.93</course>
  <speed>0.03</speed>
  <fix>3d</fix>
</trkpt>
<trkpt lat="33.8106151" lon="-118.3935725">
  <ele>-3.44</ele>
  <time>2026-09-02T22:09:16Z</time>
  <course>83.47</course>
  <speed>0.0</speed>
  <fix>3d</fix>
</trkpt>
<trkpt lat="33.810615" lon="-118.3935723">
  <ele>-3.946</ele>
  <time>2026-09-02T22:09:16Z</time>
  <course>154.93</course>
  <speed>0.03</speed>
  <fix>3d</fix>
</trkpt>
<trkpt lat="33.8106151" lon="-118.3935725">
  <ele>-3.44</ele>
  <time>2026-09-02T22:09:16Z</time>
  <course>83.47</course>
  <speed>0.0</speed>
  <fix>3d</fix>
</trkpt>
<trkpt lat="33.810615" lon="-118.3935723">
  <ele>-3.946</ele>
  <time>2026-09-02T22:09:16Z</time>
  <course>154.92</course>
  <speed>0.03</speed>
  <fix>3d</fix>
</trkpt>
<trkpt lat="33.8106151" lon="-118.3935725">
  <ele>-3.43</ele>
  <time>2026-09-02T22:09:16Z</time>
  <course>83.45</course>
  <speed>0.0</speed>
  <fix>3d</fix>
</trkpt>
<trkpt lat="33.810615" lon="-118.3935723">
  <ele>-3.945</ele>
  <time>2026-09-02T22:09:16Z</time>
  <course>154.91</course>
  <speed>0.03</speed>
  <fix>3d</fix>
</trkpt>
<trkpt lat="33.8106151" lon="-118.3935725">
  <ele>-3.43</ele>
  <time>2026-09-02T22:09:16Z</time>
  <course>83.45</course>
  <speed>0.0</speed>
  <fix>3d</fix>
</trkpt>
<trkpt lat="33.810615" lon="-118.3935723">
  <ele>-3.943</ele>
  <time>2026-09-02T22:09:16Z</time>
  <course>154.91</course>
  <speed>0.03</speed>
  <fix>3d</fix>
</trkpt>
<trkpt lat="33.8106151" lon="-118.3935725">
  <ele>-3.43</ele>
  <time>2026-09-02T22:09:16Z</time>
  <course>83.45</course>
  <speed>0.0</speed>
  <fix>3d</fix>
</trkpt>
<trkpt lat="33.810615" lon="-118.3935723">
  <ele>-3.941</ele>
  <time>2026-09-02T22:09:16Z</time>
  <course>154.9</course>
  <speed>0.03</speed>
  <fix>3d</fix>
</trkpt>
<trkpt lat="33.8106151" lon="-118.3935725">
  <ele>-3.43</ele>
  <time>2026-09-02T22:09:16Z</time>
  <course>83.45</course>
  <speed>0.0</speed>
  <fix>3d</fix>
</trkpt>
<trkpt lat="33.810615" lon="-118.3935723">
  <ele>-3.939</ele>
  <time>2026-09-02T22:09:16Z</time>
  <course>154.89</course>
  <speed>0.03</speed>
  <fix>3d</fix>
</trkpt>
<trkpt lat="33.8106151" lon="-118.3935725">
  <ele>-3.43</ele>
  <time>2026-09-02T22:09:16Z</time>
  <course>83.48</course>
  <speed>0.0</speed>
  <fix>3d</fix>
</trkpt>
<trkpt lat="33.810615" lon="-118.3935722">
  <ele>-3.938</ele>
  <time>2026-09-02T22:09:16Z</time>
  <course>154.89</course>
  <speed>0.03</speed>
  <fix>3d</fix>
</trkpt>
<trkpt lat="33.8106151" lon="-118.3935725">
  <ele>-3.43</ele>
  <time>2026-09-02T22:09:16Z</time>
  <course>83.48</course>
  <speed>0.0</speed>
  <fix>3d</fix>
</trkpt>
<trkpt lat="33.810615" lon="-118.3935722">
  <ele>-3.938</ele>
  <time>2026-09-02T22:09:16Z</time>
  <course>154.88</course>
  <speed>0.03</speed>
  <fix>3d</fix>
</trkpt>
<trkpt lat="33.8106151" lon="-118.3935725">
  <ele>-3.43</ele>
  <time>2026-09-02T22:09:16Z</time>
  <course>83.5</course>
  <speed>0.0</speed>
  <fix>3d</fix>
</trkpt>
<trkpt lat="33.810615" lon="-118.3935722">
  <ele>-3.937</ele>
  <time>2026-09-02T22:09:16Z</time>
  <course>154.87</course>
  <speed>0.03</speed>
  <fix>3d</fix>
</trkpt>
<trkpt lat="33.8106151" lon="-118.3935725">
  <ele>-3.43</ele>
  <time>2026-09-02T22:09:16Z</time>
  <course>83.5</course>
  <speed>0.0</speed>
  <fix>3d</fix>
</trkpt>
<trkpt lat="33.810615" lon="-118.3935722">
  <ele>-3.938</ele>
  <time>2026-09-02T22:09:16Z</time>
  <course>154.87</course>
  <speed>0.03</speed>
  <fix>3d</fix>
</trkpt>
<trkpt lat="33.8106151" lon="-118.3935725">
  <ele>-3.43</ele>
  <time>2026-09-02T22:09:16Z</time>
  <course>83.5</course>
  <speed>0.0</speed>
  <fix>3d</fix>
</trkpt>
<trkpt lat="33.810615" lon="-118.3935722">
  <ele>-3.939</ele>
  <time>2026-09-02T22:09:16Z</time>
  <course>154.86</course>
  <speed>0.03</speed>
  <fix>3d</fix>
</trkpt>
<trkpt lat="33.8106151" lon="-118.3935725">
  <ele>-3.43</ele>
  <time>2026-09-02T22:09:16Z</time>
  <course>83.5</course>
  <speed>0.0</speed>
  <fix>3d</fix>
</trkpt>
<trkpt lat="33.810615" lon="-118.3935722">
  <ele>-3.94</ele>
  <time>2026-09-02T22:09:16Z</time>
  <course>154.85</course>
  <speed>0.0316227766016838</speed>
  <fix>3d</fix>
</trkpt>
<trkpt lat="33.8106151" lon="-118.3935725">
  <ele>-3.43</ele>
  <time>2026-09-02T22:09:16Z</time>
  <course>83.51</course>
  <speed>0.0</speed>
  <fix>3d</fix>
</trkpt>
<trkpt lat="33.810615" lon="-118.3935722">
  <ele>-3.941</ele>
  <time>2026-09-02T22:09:16Z</time>
  <course>154.85</course>
  <speed>0.0316227766016838</speed>
  <fix>3d</fix>
</trkpt>
<trkpt lat="33.8106151" lon="-118.3935725">
  <ele>-3.43</ele>
  <time>2026-09-02T22:09:16Z</time>
  <course>83.51</course>
  <speed>0.0</speed>
  <fix>3d</fix>
</trkpt>
<trkpt lat="33.810615" lon="-118.3935722">
  <ele>-3.942</ele>
  <time>2026-09-02T22:09:16Z</time>
  <course>154.84</course>
  <speed>0.0316227766016838</speed>
  <fix>3d</fix>
</trkpt>
<trkpt lat="33.8106151" lon="-118.3935725">
  <ele>-3.44</ele>
  <time>2026-09-02T22:09:16Z</time>
  <course>83.53</course>
  <speed>0.0</speed>
  <fix>3d</fix>
</trkpt>
<trkpt lat="33.810615" lon="-118.3935722">
  <ele>-3.943</ele>
  <time>2026-09-02T22:09:16Z</time>
  <course>154.83</course>
  <speed>0.0316227766016838</speed>
  <fix>3d</fix>
</trkpt>
<trkpt lat="33.8106151" lon="-118.3935725">
  <ele>-3.44</ele>
  <time>2026-09-02T22:09:16Z</time>
  <course>83.53</course>
  <speed>0.0</speed>
  <fix>3d</fix>
</trkpt>
<trkpt lat="33.810615" lon="-118.3935722">
  <ele>-3.943</ele>
  <time>2026-09-02T22:09:16Z</time>
  <course>154.83</course>
  <speed>0.0316227766016838</speed>
  <fix>3d</fix>
</trkpt>
<trkpt lat="33.8106151" lon="-118.3935724">
  <ele>-3.44</ele>
  <time>2026-09-02T22:09:16Z</time>
  <course>83.57</course>
  <speed>0.0</speed>
  <fix>3d</fix>
</trkpt>
<trkpt lat="33.810615" lon="-118.3935722">
  <ele>-3.944</ele>
  <time>2026-09-02T22:09:16Z</time>
  <course>154.82</course>
  <speed>0.0316227766016838</speed>
  <fix>3d</fix>
</trkpt>
<trkpt lat="33.8106151" lon="-118.3935724">
  <ele>-3.44</ele>
  <time>2026-09-02T22:09:16Z</time>
  <course>83.57</course>
  <speed>0.0</speed>
  <fix>3d</fix>
</trkpt>
<trkpt lat="33.810615" lon="-118.3935722">
  <ele>-3.944</ele>
  <time>2026-09-02T22:09:16Z</time>
  <course>154.81</course>
  <speed>0.0316227766016838</speed>
  <fix>3d</fix>
</trkpt>
<trkpt lat="33.8106151" lon="-118.3935724">
  <ele>-3.44</ele>
  <time>2026-09-02T22:09:16Z</time>
  <course>83.62</course>
  <speed>0.0</speed>
  <fix>3d</fix>
</trkpt>
<trkpt lat="33.810615" lon="-118.3935722">
  <ele>-3.944</ele>
  <time>2026-09-02T22:09:16Z</time>
  <course>154.81</course>
  <speed>0.0316227766016838</speed>
  <fix>3d</fix>
</trkpt>
<trkpt lat="33.8106151" lon="-118.3935724">
  <ele>-3.44</ele>
  <time>2026-09-02T22:09:16Z</time>
  <course>83.62</course>
  <speed>0.0</speed>
  <fix>3d</fix>
</trkpt>
<trkpt lat="33.810615" lon="-118.3935722">
  <ele>-3.945</ele>
  <time>2026-09-02T22:09:16Z</time>
  <course>154.8</course>
  <speed>0.0316227766016838</speed>
  <fix>3d</fix>
</trkpt>
<trkpt lat="33.8106151" lon="-118.3935724">
  <ele>-3.45</ele>
  <time>2026-09-02T22:09:16Z</time>
  <course>83.64</course>
  <speed>0.0</speed>
  <fix>3d</fix>
</trkpt>
<trkpt lat="33.810615" lon="-118.3935722">
  <ele>-3.946</ele>
  <time>2026-09-02T22:09:16Z</time>
  <course>154.79</course>
  <speed>0.0316227766016838</speed>
  <fix>3d</fix>
</trkpt>
<trkpt lat="33.8106151" lon="-118.3935724">
  <ele>-3.45</ele>
  <time>2026-09-02T22:09:16Z</time>
  <course>83.64</course>
  <speed>0.0</speed>
  <fix>3d</fix>
</trkpt>
<trkpt lat="33.810615" lon="-118.3935722">
  <ele>-3.947</ele>
  <time>2026-09-02T22:09:16Z</time>
  <course>154.79</course>
  <speed>0.0316227766016838</speed>
  <fix>3d</fix>
</trkpt>
<trkpt lat="33.8106151" lon="-118.3935724">
  <ele>-3.45</ele>
  <time>2026-09-02T22:09:16Z</time>
  <course>83.66</course>
  <speed>0.0</speed>
  <fix>3d</fix>
</trkpt>
<trkpt lat="33.810615" lon="-118.3935722">
  <ele>-3.948</ele>
  <time>2026-09-02T22:09:16Z</time>
  <course>154.78</course>
  <speed>0.0316227766016838</speed>
  <fix>3d</fix>
</trkpt>
<trkpt lat="33.8106151" lon="-118.3935724">
  <ele>-3.45</ele>
  <time>2026-09-02T22:09:16Z</time>
  <course>83.66</course>
  <speed>0.0</speed>
  <fix>3d</fix>
</trkpt>
<trkpt lat="33.810615" lon="-118.3935722">
  <ele>-3.948</ele>
  <time>2026-09-02T22:09:16Z</time>
  <course>154.78</course>
  <speed>0.0316227766016838</speed>
  <fix>3d</fix>
</trkpt>
<trkpt lat="33.8106151" lon="-118.3935724">
  <ele>-3.45</ele>
  <time>2026-09-02T22:09:16Z</time>
  <course>83.72</course>
  <speed>0.0</speed>
  <fix>3d</fix>
</trkpt>
<trkpt lat="33.810615" lon="-118.3935721">
  <ele>-3.947</ele>
  <time>2026-09-02T22:09:16Z</time>
  <course>154.77</course>
  <speed>0.0316227766016838</speed>
  <fix>3d</fix>
</trkpt>
<trkpt lat="33.8106151" lon="-118.3935724">
  <ele>-3.45</ele>
  <time>2026-09-02T22:09:16Z</time>
  <course>83.72</course>
  <speed>0.0</speed>
  <fix>3d</fix>
</trkpt>
<trkpt lat="33.810615" lon="-118.3935721">
  <ele>-3.947</ele>
  <time>2026-09-02T22:09:16Z</time>
  <course>154.76</course>
  <speed>0.0316227766016838</speed>
  <fix>3d</fix>
</trkpt>
<trkpt lat="33.8106151" lon="-118.3935724">
  <ele>-3.45</ele>
  <time>2026-09-02T22:09:16Z</time>
  <course>83.79</course>
  <speed>0.0</speed>
  <fix>3d</fix>
</trkpt>
<trkpt lat="33.810615" lon="-118.3935721">
  <ele>-3.948</ele>
  <time>2026-09-02T22:09:16Z</time>
  <course>154.76</course>
  <speed>0.0316227766016838</speed>
  <fix>3d</fix>
</trkpt>
<trkpt lat="33.8106151" lon="-118.3935724">
  <ele>-3.45</ele>
  <time>2026-09-02T22:09:16Z</time>
  <course>83.79</course>
  <speed>0.0</speed>
  <fix>3d</fix>
</trkpt>
<trkpt lat="33.810615" lon="-118.3935721">
  <ele>-3.949</ele>
  <time>2026-09-02T22:09:16Z</time>
  <course>154.75</course>
  <speed>0.0316227766016838</speed>
  <fix>3d</fix>
</trkpt>
<trkpt lat="33.8106151" lon="-118.3935724">
  <ele>-3.46</ele>
  <time>2026-09-02T22:09:16Z</time>
  <course>83.8</course>
  <speed>0.0</speed>
  <fix>3d</fix>
</trkpt>
<trkpt lat="33.810615" lon="-118.3935721">
  <ele>-3.95</ele>
  <time>2026-09-02T22:09:16Z</time>
  <course>154.74</course>
  <speed>0.0316227766016838</speed>
  <fix>3d</fix>
</trkpt>
<trkpt lat="33.8106151" lon="-118.3935724">
  <ele>-3.46</ele>
  <time>2026-09-02T22:09:16Z</time>
  <course>83.8</course>
  <speed>0.0</speed>
  <fix>3d</fix>
</trkpt>
<trkpt lat="33.810615" lon="-118.3935721">
  <ele>-3.95</ele>
  <time>2026-09-02T22:09:16Z</time>
  <course>154.74</course>
  <speed>0.0316227766016838</speed>
  <fix>3d</fix>
</trkpt>
<trkpt lat="33.8106151" lon="-118.3935724">
  <ele>-3.46</ele>
  <time>2026-09-02T22:09:16Z</time>
  <course>83.81</course>
  <speed>0.0</speed>
  <fix>3d</fix>
</trkpt>
<trkpt lat="33.810615" lon="-118.3935721">
  <ele>-3.949</ele>
  <time>2026-09-02T22:09:16Z</time>
  <course>154.73</course>
  <speed>0.0316227766016838</speed>
  <fix>3d</fix>
</trkpt>
<trkpt lat="33.8106151" lon="-118.3935724">
  <ele>-3.46</ele>
  <time>2026-09-02T22:09:16Z</time>
  <course>83.81</course>
  <speed>0.0</speed>
  <fix>3d</fix>
</trkpt>
<trkpt lat="33.810615" lon="-118.3935721">
  <ele>-3.947</ele>
  <time>2026-09-02T22:09:16Z</time>
  <course>154.72</course>
  <speed>0.0316227766016838</speed>
  <fix>3d</fix>
</trkpt>
<trkpt lat="33.8106151" lon="-118.3935724">
  <ele>-3.45</ele>
  <time>2026-09-02T22:09:16Z</time>
  <course>83.84</course>
  <speed>0.0</speed>
  <fix>3d</fix>
</trkpt>
<trkpt lat="33.810615" lon="-118.3935721">
  <ele>-3.945</ele>
  <time>2026-09-02T22:09:16Z</time>
  <course>154.72</course>
  <speed>0.0316227766016838</speed>
  <fix>3d</fix>
</trkpt>
<trkpt lat="33.8106151" lon="-118.3935724">
  <ele>-3.45</ele>
  <time>2026-09-02T22:09:16Z</time>
  <course>83.84</course>
  <speed>0.0</speed>
  <fix>3d</fix>
</trkpt>
<trkpt lat="33.810615" lon="-118.3935721">
  <ele>-3.943</ele>
  <time>2026-09-02T22:09:16Z</time>
  <course>154.71</course>
  <speed>0.0316227766016838</speed>
  <fix>3d</fix>
</trkpt>
<trkpt lat="33.8106151" lon="-118.3935723">
  <ele>-3.45</ele>
  <time>2026-09-02T22:09:16Z</time>
  <course>83.84</course>
  <speed>0.0</speed>
  <fix>3d</fix>
</trkpt>
<trkpt lat="33.810615" lon="-118.3935721">
  <ele>-3.94</ele>
  <time>2026-09-02T22:09:16Z</time>
  <course>154.71</course>
  <speed>0.0316227766016838</speed>
  <fix>3d</fix>
</trkpt>
<trkpt lat="33.8106151" lon="-118.3935723">
  <ele>-3.45</ele>
  <time>2026-09-02T22:09:16Z</time>
  <course>83.84</course>
  <speed>0.0</speed>
  <fix>3d</fix>
</trkpt>
<trkpt lat="33.810615" lon="-118.3935721">
  <ele>-3.936</ele>
  <time>2026-09-02T22:09:16Z</time>
  <course>154.7</course>
  <speed>0.0316227766016838</speed>
  <fix>3d</fix>
</trkpt>
<trkpt lat="33.8106151" lon="-118.3935723">
  <ele>-3.45</ele>
  <time>2026-09-02T22:09:16Z</time>
  <course>83.83</course>
  <speed>0.0</speed>
  <fix>3d</fix>
</trkpt>
<trkpt lat="33.810615" lon="-118.3935721">
  <ele>-3.933</ele>
  <time>2026-09-02T22:09:16Z</time>
  <course>154.69</course>
  <speed>0.0316227766016838</speed>
  <fix>3d</fix>
</trkpt>
<trkpt lat="33.8106151" lon="-118.3935723">
  <ele>-3.45</ele>
  <time>2026-09-02T22:09:16Z</time>
  <course>83.83</course>
  <speed>0.0</speed>
  <fix>3d</fix>
</trkpt>
<trkpt lat="33.810615" lon="-118.3935721">
  <ele>-3.933</ele>
  <time>2026-09-02T22:09:16Z</time>
  <course>154.69</course>
  <speed>0.0316227766016838</speed>
  <fix>3d</fix>
</trkpt>
<trkpt lat="33.8106151" lon="-118.3935723">
  <ele>-3.45</ele>
  <time>2026-09-02T22:09:16Z</time>
  <course>83.72</course>
  <speed>0.0</speed>
  <fix>3d</fix>
</trkpt>
<trkpt lat="33.810615" lon="-118.3935721">
  <ele>-3.936</ele>
  <time>2026-09-02T22:09:16Z</time>
  <course>154.68</course>
  <speed>0.0316227766016838</speed>
  <fix>3d</fix>
</trkpt>
<trkpt lat="33.8106151" lon="-118.3935723">
  <ele>-3.45</ele>
  <time>2026-09-02T22:09:16Z</time>
  <course>83.72</course>
  <speed>0.0</speed>
  <fix>3d</fix>
</trkpt>
<trkpt lat="33.810615" lon="-118.3935721">
  <ele>-3.939</ele>
  <time>2026-09-02T22:09:16Z</time>
  <course>154.67</course>
  <speed>0.0316227766016838</speed>
  <fix>3d</fix>
</trkpt>
<trkpt lat="33.8106151" lon="-118.3935723">
  <ele>-3.45</ele>
  <time>2026-09-02T22:09:16Z</time>
  <course>83.35</course>
  <speed>0.0</speed>
  <fix>3d</fix>
</trkpt>
<trkpt lat="33.810615" lon="-118.3935721">
  <ele>-3.942</ele>
  <time>2026-09-02T22:09:16Z</time>
  <course>154.67</course>
  <speed>0.0316227766016838</speed>
  <fix>3d</fix>
</trkpt>
<trkpt lat="33.8106151" lon="-118.3935723">
  <ele>-3.45</ele>
  <time>2026-09-02T22:09:16Z</time>
  <course>83.35</course>
  <speed>0.0</speed>
  <fix>3d</fix>
</trkpt>
<trkpt lat="33.810615" lon="-118.3935721">
  <ele>-3.944</ele>
  <time>2026-09-02T22:09:16Z</time>
  <course>154.66</course>
  <speed>0.0316227766016838</speed>
  <fix>3d</fix>
</trkpt>
<trkpt lat="33.8106151" lon="-118.3935723">
  <ele>-3.46</ele>
  <time>2026-09-02T22:09:16Z</time>
  <course>82.83</course>
  <speed>0.0</speed>
  <fix>3d</fix>
</trkpt>
<trkpt lat="33.810615" lon="-118.3935721">
  <ele>-3.945</ele>
  <time>2026-09-02T22:09:16Z</time>
  <course>154.66</course>
  <speed>0.0316227766016838</speed>
  <fix>3d</fix>
</trkpt>
<trkpt lat="33.8106151" lon="-118.3935723">
  <ele>-3.46</ele>
  <time>2026-09-02T22:09:16Z</time>
  <course>82.83</course>
  <speed>0.0</speed>
  <fix>3d</fix>
</trkpt>
<trkpt lat="33.810615" lon="-118.3935721">
  <ele>-3.946</ele>
  <time>2026-09-02T22:09:16Z</time>
  <course>154.65</course>
  <speed>0.0316227766016838</speed>
  <fix>3d</fix>
</trkpt>
<trkpt lat="33.8106151" lon="-118.3935723">
  <ele>-3.46</ele>
  <time>2026-09-02T22:09:16Z</time>
  <course>82.32</course>
  <speed>0.0</speed>
  <fix>3d</fix>
</trkpt>
<trkpt lat="33.810615" lon="-118.393572">
  <ele>-3.946</ele>
  <time>2026-09-02T22:09:16Z</time>
  <course>154.64</course>
  <speed>0.0316227766016838</speed>
  <fix>3d</fix>
</trkpt>
<trkpt lat="33.8106151" lon="-118.3935723">
  <ele>-3.46</ele>
  <time>2026-09-02T22:09:16Z</time>
  <course>82.32</course>
  <speed>0.0</speed>
  <fix>3d</fix>
</trkpt>
<trkpt lat="33.810615" lon="-118.393572">
  <ele>-3.946</ele>
  <time>2026-09-02T22:09:16Z</time>
  <course>154.64</course>
  <speed>0.0316227766016838</speed>
  <fix>3d</fix>
</trkpt>
<trkpt lat="33.8106151" lon="-118.3935723">
  <ele>-3.46</ele>
  <time>2026-09-02T22:09:16Z</time>
  <course>81.88</course>
  <speed>0.0</speed>
  <fix>3d</fix>
</trkpt>
<trkpt lat="33.810615" lon="-118.393572">
  <ele>-3.947</ele>
  <time>2026-09-02T22:09:16Z</time>
  <course>154.66</course>
  <speed>0.0316227766016838</speed>
  <fix>3d</fix>
</trkpt>
<trkpt lat="33.8106151" lon="-118.3935723">
  <ele>-3.46</ele>
  <time>2026-09-02T22:09:16Z</time>
  <course>81.88</course>
  <speed>0.0</speed>
  <fix>3d</fix>
</trkpt>
<trkpt lat="33.810615" lon="-118.393572">
  <ele>-3.947</ele>
  <time>2026-09-02T22:09:16Z</time>
  <course>154.68</course>
  <speed>0.0316227766016838</speed>
  <fix>3d</fix>
</trkpt>
<trkpt lat="33.8106151" lon="-118.3935723">
  <ele>-3.47</ele>
  <time>2026-09-02T22:09:16Z</time>
  <course>81.59</course>
  <speed>0.0</speed>
  <fix>3d</fix>
</trkpt>
<trkpt lat="33.810615" lon="-118.393572">
  <ele>-3.948</ele>
  <time>2026-09-02T22:09:16Z</time>
  <course>154.69</course>
  <speed>0.0316227766016838</speed>
  <fix>3d</fix>
</trkpt>
<trkpt lat="33.8106151" lon="-118.3935723">
  <ele>-3.47</ele>
  <time>2026-09-02T22:09:16Z</time>
  <course>81.59</course>
  <speed>0.0</speed>
  <fix>3d</fix>
</trkpt>
<trkpt lat="33.810615" lon="-118.393572">
  <ele>-3.95</ele>
  <time>2026-09-02T22:09:16Z</time>
  <course>154.71</course>
  <speed>0.0316227766016838</speed>
  <fix>3d</fix>
</trkpt>
<trkpt lat="33.8106151" lon="-118.3935723">
  <ele>-3.47</ele>
  <time>2026-09-02T22:09:16Z</time>
  <course>81.39</course>
  <speed>0.0</speed>
  <fix>3d</fix>
</trkpt>
<trkpt lat="33.810615" lon="-118.393572">
  <ele>-3.95</ele>
  <time>2026-09-02T22:09:16Z</time>
  <course>154.73</course>
  <speed>0.0316227766016838</speed>
  <fix>3d</fix>
</trkpt>
<trkpt lat="33.8106151" lon="-118.3935723">
  <ele>-3.47</ele>
  <time>2026-09-02T22:09:16Z</time>
  <course>81.39</course>
  <speed>0.0</speed>
  <fix>3d</fix>
</trkpt>
<trkpt lat="33.810615" lon="-118.393572">
  <ele>-3.95</ele>
  <time>2026-09-02T22:09:16Z</time>
  <course>154.76</course>
  <speed>0.03</speed>
  <fix>3d</fix>
</trkpt>
<trkpt lat="33.8106151" lon="-118.3935722">
  <ele>-3.47</ele>
  <time>2026-09-02T22:09:16Z</time>
  <course>81.18</course>
  <speed>0.0</speed>
  <fix>3d</fix>
</trkpt>
<trkpt lat="33.810615" lon="-118.393572">
  <ele>-3.95</ele>
  <time>2026-09-02T22:09:16Z</time>
  <course>154.78</course>
  <speed>0.03</speed>
  <fix>3d</fix>
</trkpt>
<trkpt lat="33.8106151" lon="-118.3935722">
  <ele>-3.47</ele>
  <time>2026-09-02T22:09:16Z</time>
  <course>81.18</course>
  <speed>0.0</speed>
  <fix>3d</fix>
</trkpt>
<trkpt lat="33.810615" lon="-118.393572">
  <ele>-3.949</ele>
  <time>2026-09-02T22:09:16Z</time>
  <course>154.81</course>
  <speed>0.03</speed>
  <fix>3d</fix>
</trkpt>
<trkpt lat="33.8106151" lon="-118.3935722">
  <ele>-3.46</ele>
  <time>2026-09-02T22:09:16Z</time>
  <course>80.93</course>
  <speed>0.0</speed>
  <fix>3d</fix>
</trkpt>
<trkpt lat="33.810615" lon="-118.393572">
  <ele>-3.948</ele>
  <time>2026-09-02T22:09:16Z</time>
  <course>154.84</course>
  <speed>0.03</speed>
  <fix>3d</fix>
</trkpt>
<trkpt lat="33.8106151" lon="-118.3935722">
  <ele>-3.46</ele>
  <time>2026-09-02T22:09:16Z</time>
  <course>80.93</course>
  <speed>0.0</speed>
  <fix>3d</fix>
</trkpt>
<trkpt lat="33.810615" lon="-118.393572">
  <ele>-3.948</ele>
  <time>2026-09-02T22:09:16Z</time>
  <course>154.86</course>
  <speed>0.03</speed>
  <fix>3d</fix>
</trkpt>
<trkpt lat="33.8106151" lon="-118.3935722">
  <ele>-3.46</ele>
  <time>2026-09-02T22:09:16Z</time>
  <course>80.61</course>
  <speed>0.0</speed>
  <fix>3d</fix>
</trkpt>
<trkpt lat="33.810615" lon="-118.393572">
  <ele>-3.949</ele>
  <time>2026-09-02T22:09:16Z</time>
  <course>154.89</course>
  <speed>0.03</speed>
  <fix>3d</fix>
</trkpt>
<trkpt lat="33.8106151" lon="-118.3935722">
  <ele>-3.46</ele>
  <time>2026-09-02T22:09:16Z</time>
  <course>80.61</course>
  <speed>0.0</speed>
  <fix>3d</fix>
</trkpt>
<trkpt lat="33.810615" lon="-118.393572">
  <ele>-3.949</ele>
  <time>2026-09-02T22:09:16Z</time>
  <course>154.92</course>
  <speed>0.03</speed>
  <fix>3d</fix>
</trkpt>
<trkpt lat="33.8106151" lon="-118.3935722">
  <ele>-3.46</ele>
  <time>2026-09-02T22:09:16Z</time>
  <course>80.25</course>
  <speed>0.0</speed>
  <fix>3d</fix>
</trkpt>
<trkpt lat="33.810615" lon="-118.393572">
  <ele>-3.95</ele>
  <time>2026-09-02T22:09:16Z</time>
  <course>154.94</course>
  <speed>0.03</speed>
  <fix>3d</fix>
</trkpt>
<trkpt lat="33.8106151" lon="-118.3935722">
  <ele>-3.46</ele>
  <time>2026-09-02T22:09:16Z</time>
  <course>80.25</course>
  <speed>0.0</speed>
  <fix>3d</fix>
</trkpt>
<trkpt lat="33.810615" lon="-118.393572">
  <ele>-3.949</ele>
  <time>2026-09-02T22:09:16Z</time>
  <course>154.97</course>
  <speed>0.03</speed>
  <fix>3d</fix>
</trkpt>
<trkpt lat="33.8106151" lon="-118.3935722">
  <ele>-3.46</ele>
  <time>2026-09-02T22:09:16Z</time>
  <course>79.96</course>
  <speed>0.0</speed>
  <fix>3d</fix>
</trkpt>
<trkpt lat="33.810615" lon="-118.393572">
  <ele>-3.949</ele>
  <time>2026-09-02T22:09:16Z</time>
  <course>154.99</course>
  <speed>0.03</speed>
  <fix>3d</fix>
</trkpt>
<trkpt lat="33.8106151" lon="-118.3935722">
  <ele>-3.46</ele>
  <time>2026-09-02T22:09:16Z</time>
  <course>79.96</course>
  <speed>0.0</speed>
  <fix>3d</fix>
</trkpt>
<trkpt lat="33.810615" lon="-118.393572">
  <ele>-3.949</ele>
  <time>2026-09-02T22:09:16Z</time>
  <course>155.02</course>
  <speed>0.03</speed>
  <fix>3d</fix>
</trkpt>
<trkpt lat="33.8106151" lon="-118.3935722">
  <ele>-3.46</ele>
  <time>2026-09-02T22:09:16Z</time>
  <course>79.8</course>
  <speed>0.0</speed>
  <fix>3d</fix>
</trkpt>
<trkpt lat="33.810615" lon="-118.3935719">
  <ele>-3.95</ele>
  <time>2026-09-02T22:09:16Z</time>
  <course>155.04</course>
  <speed>0.03</speed>
  <fix>3d</fix>
</trkpt>
<trkpt lat="33.8106151" lon="-118.3935722">
  <ele>-3.46</ele>
  <time>2026-09-02T22:09:16Z</time>
  <course>79.8</course>
  <speed>0.0</speed>
  <fix>3d</fix>
</trkpt>
<trkpt lat="33.810615" lon="-118.3935719">
  <ele>-3.95</ele>
  <time>2026-09-02T22:09:16Z</time>
  <course>155.06</course>
  <speed>0.03</speed>
  <fix>3d</fix>
</trkpt>
<trkpt lat="33.8106151" lon="-118.3935722">
  <ele>-3.46</ele>
  <time>2026-09-02T22:09:16Z</time>
  <course>79.73</course>
  <speed>0.0</speed>
  <fix>3d</fix>
</trkpt>
<trkpt lat="33.810615" lon="-118.3935719">
  <ele>-3.95</ele>
  <time>2026-09-02T22:09:16Z</time>
  <course>155.09</course>
  <speed>0.03</speed>
  <fix>3d</fix>
</trkpt>
<trkpt lat="33.8106151" lon="-118.3935722">
  <ele>-3.46</ele>
  <time>2026-09-02T22:09:16Z</time>
  <course>79.73</course>
  <speed>0.0</speed>
  <fix>3d</fix>
</trkpt>
<trkpt lat="33.810615" lon="-118.3935719">
  <ele>-3.949</ele>
  <time>2026-09-02T22:09:16Z</time>
  <course>155.11</course>
  <speed>0.03</speed>
  <fix>3d</fix>
</trkpt>
<trkpt lat="33.8106151" lon="-118.3935722">
  <ele>-3.45</ele>
  <time>2026-09-02T22:09:16Z</time>
  <course>79.63</course>
  <speed>0.0</speed>
  <fix>3d</fix>
</trkpt>
<trkpt lat="33.810615" lon="-118.3935719">
  <ele>-3.948</ele>
  <time>2026-09-02T22:09:16Z</time>
  <course>155.13</course>
  <speed>0.03</speed>
  <fix>3d</fix>
</trkpt>
<trkpt lat="33.8106151" lon="-118.3935722">
  <ele>-3.45</ele>
  <time>2026-09-02T22:09:16Z</time>
  <course>79.63</course>
  <speed>0.0</speed>
  <fix>3d</fix>
</trkpt>
<trkpt lat="33.810615" lon="-118.3935719">
  <ele>-3.946</ele>
  <time>2026-09-02T22:09:16Z</time>
  <course>155.15</course>
  <speed>0.03</speed>
  <fix>3d</fix>
</trkpt>
<trkpt lat="33.8106151" lon="-118.3935721">
  <ele>-3.45</ele>
  <time>2026-09-02T22:09:16Z</time>
  <course>79.42</course>
  <speed>0.0</speed>
  <fix>3d</fix>
</trkpt>
<trkpt lat="33.810615" lon="-118.3935719">
  <ele>-3.944</ele>
  <time>2026-09-02T22:09:16Z</time>
  <course>155.18</course>
  <speed>0.03</speed>
  <fix>3d</fix>
</trkpt>
<trkpt lat="33.8106151" lon="-118.3935721">
  <ele>-3.45</ele>
  <time>2026-09-02T22:09:16Z</time>
  <course>79.42</course>
  <speed>0.0</speed>
  <fix>3d</fix>
</trkpt>
<trkpt lat="33.810615" lon="-118.3935719">
  <ele>-3.943</ele>
  <time>2026-09-02T22:09:16Z</time>
  <course>155.2</course>
  <speed>0.03</speed>
  <fix>3d</fix>
</trkpt>
<trkpt lat="33.8106151" lon="-118.3935721">
  <ele>-3.45</ele>
  <time>2026-09-02T22:09:16Z</time>
  <course>79.14</course>
  <speed>0.0</speed>
  <fix>3d</fix>
</trkpt>
<trkpt lat="33.810615" lon="-118.3935719">
  <ele>-3.943</ele>
  <time>2026-09-02T22:09:16Z</time>
  <course>155.22</course>
  <speed>0.03</speed>
  <fix>3d</fix>
</trkpt>
<trkpt lat="33.8106151" lon="-118.3935721">
  <ele>-3.45</ele>
  <time>2026-09-02T22:09:16Z</time>
  <course>79.14</course>
  <speed>0.0</speed>
  <fix>3d</fix>
</trkpt>
<trkpt lat="33.810615" lon="-118.3935719">
  <ele>-3.943</ele>
  <time>2026-09-02T22:09:16Z</time>
  <course>155.24</course>
  <speed>0.03</speed>
  <fix>3d</fix>
</trkpt>
<trkpt lat="33.8106151" lon="-118.3935721">
  <ele>-3.45</ele>
  <time>2026-09-02T22:09:16Z</time>
  <course>78.83</course>
  <speed>0.0</speed>
  <fix>3d</fix>
</trkpt>
<trkpt lat="33.810615" lon="-118.3935719">
  <ele>-3.943</ele>
  <time>2026-09-02T22:09:16Z</time>
  <course>155.26</course>
  <speed>0.03</speed>
  <fix>3d</fix>
</trkpt>
<trkpt lat="33.8106151" lon="-118.3935721">
  <ele>-3.45</ele>
  <time>2026-09-02T22:09:16Z</time>
  <course>78.83</course>
  <speed>0.0</speed>
  <fix>3d</fix>
</trkpt>
<trkpt lat="33.810615" lon="-118.3935719">
  <ele>-3.944</ele>
  <time>2026-09-02T22:09:16Z</time>
  <course>155.29</course>
  <speed>0.03</speed>
  <fix>3d</fix>
</trkpt>
<trkpt lat="33.8106151" lon="-118.3935721">
  <ele>-3.45</ele>
  <time>2026-09-02T22:09:16Z</time>
  <course>78.62</course>
  <speed>0.0</speed>
  <fix>3d</fix>
</trkpt>
<trkpt lat="33.810615" lon="-118.3935719">
  <ele>-3.945</ele>
  <time>2026-09-02T22:09:16Z</time>
  <course>155.31</course>
  <speed>0.03</speed>
  <fix>3d</fix>
</trkpt>
<trkpt lat="33.8106151" lon="-118.3935721">
  <ele>-3.45</ele>
  <time>2026-09-02T22:09:16Z</time>
  <course>78.62</course>
  <speed>0.0</speed>
  <fix>3d</fix>
</trkpt>
<trkpt lat="33.810615" lon="-118.3935719">
  <ele>-3.946</ele>
  <time>2026-09-02T22:09:16Z</time>
  <course>155.33</course>
  <speed>0.03</speed>
  <fix>3d</fix>
</trkpt>
<trkpt lat="33.8106151" lon="-118.3935721">
  <ele>-3.46</ele>
  <time>2026-09-02T22:09:16Z</time>
  <course>78.54</course>
  <speed>0.0</speed>
  <fix>3d</fix>
</trkpt>
<trkpt lat="33.810615" lon="-118.3935718">
  <ele>-3.948</ele>
  <time>2026-09-02T22:09:16Z</time>
  <course>155.35</course>
  <speed>0.03</speed>
  <fix>3d</fix>
</trkpt>
<trkpt lat="33.8106151" lon="-118.3935721">
  <ele>-3.46</ele>
  <time>2026-09-02T22:09:16Z</time>
  <course>78.54</course>
  <speed>0.0</speed>
  <fix>3d</fix>
</trkpt>
<trkpt lat="33.810615" lon="-118.3935718">
  <ele>-3.948</ele>
  <time>2026-09-02T22:09:16Z</time>
  <course>155.37</course>
  <speed>0.03</speed>
  <fix>3d</fix>
</trkpt>
<trkpt lat="33.8106151" lon="-118.3935721">
  <ele>-3.46</ele>
  <time>2026-09-02T22:09:16Z</time>
  <course>78.5</course>
  <speed>0.0</speed>
  <fix>3d</fix>
</trkpt>
<trkpt lat="33.810615" lon="-118.3935718">
  <ele>-3.95</ele>
  <time>2026-09-02T22:09:16Z</time>
  <course>155.39</course>
  <speed>0.03</speed>
  <fix>3d</fix>
</trkpt>
<trkpt lat="33.8106151" lon="-118.3935721">
  <ele>-3.46</ele>
  <time>2026-09-02T22:09:16Z</time>
  <course>78.5</course>
  <speed>0.0</speed>
  <fix>3d</fix>
</trkpt>
<trkpt lat="33.810615" lon="-118.3935718">
  <ele>-3.95</ele>
  <time>2026-09-02T22:09:16Z</time>
  <course>155.41</course>
  <speed>0.03</speed>
  <fix>3d</fix>
</trkpt>
<trkpt lat="33.8106151" lon="-118.3935721">
  <ele>-3.46</ele>
  <time>2026-09-02T22:09:16Z</time>
  <course>78.43</course>
  <speed>0.0</speed>
  <fix>3d</fix>
</trkpt>
<trkpt lat="33.810615" lon="-118.3935718">
  <ele>-3.951</ele>
  <time>2026-09-02T22:09:16Z</time>
  <course>155.43</course>
  <speed>0.03</speed>
  <fix>3d</fix>
</trkpt>
<trkpt lat="33.8106151" lon="-118.3935721">
  <ele>-3.46</ele>
  <time>2026-09-02T22:09:16Z</time>
  <course>78.43</course>
  <speed>0.0</speed>
  <fix>3d</fix>
</trkpt>
<trkpt lat="33.810615" lon="-118.3935718">
  <ele>-3.951</ele>
  <time>2026-09-02T22:09:16Z</time>
  <course>155.45</course>
  <speed>0.03</speed>
  <fix>3d</fix>
</trkpt>
<trkpt lat="33.8106151" lon="-118.393572">
  <ele>-3.46</ele>
  <time>2026-09-02T22:09:16Z</time>
  <course>78.28</course>
  <speed>0.0</speed>
  <fix>3d</fix>
</trkpt>
<trkpt lat="33.810615" lon="-118.3935718">
  <ele>-3.951</ele>
  <time>2026-09-02T22:09:16Z</time>
  <course>155.47</course>
  <speed>0.03</speed>
  <fix>3d</fix>
</trkpt>
<trkpt lat="33.8106151" lon="-118.393572">
  <ele>-3.46</ele>
  <time>2026-09-02T22:09:16Z</time>
  <course>78.28</course>
  <speed>0.0</speed>
  <fix>3d</fix>
</trkpt>
<trkpt lat="33.810615" lon="-118.3935718">
  <ele>-3.95</ele>
  <time>2026-09-02T22:09:16Z</time>
  <course>155.49</course>
  <speed>0.03</speed>
  <fix>3d</fix>
</trkpt>
<trkpt lat="33.8106151" lon="-118.393572">
  <ele>-3.46</ele>
  <time>2026-09-02T22:09:16Z</time>
  <course>78.08</course>
  <speed>0.0</speed>
  <fix>3d</fix>
</trkpt>
<trkpt lat="33.810615" lon="-118.3935718">
  <ele>-3.948</ele>
  <time>2026-09-02T22:09:16Z</time>
  <course>155.51</course>
  <speed>0.03</speed>
  <fix>3d</fix>
</trkpt>
<trkpt lat="33.8106151" lon="-118.393572">
  <ele>-3.46</ele>
  <time>2026-09-02T22:09:16Z</time>
  <course>78.08</course>
  <speed>0.0</speed>
  <fix>3d</fix>
</trkpt>
<trkpt lat="33.810615" lon="-118.3935718">
  <ele>-3.948</ele>
  <time>2026-09-02T22:09:16Z</time>
  <course>155.52</course>
  <speed>0.03</speed>
  <fix>3d</fix>
</trkpt>
<trkpt lat="33.8106151" lon="-118.393572">
  <ele>-3.45</ele>
  <time>2026-09-02T22:09:16Z</time>
  <course>77.91</course>
  <speed>0.0</speed>
  <fix>3d</fix>
</trkpt>
<trkpt lat="33.810615" lon="-118.3935718">
  <ele>-3.947</ele>
  <time>2026-09-02T22:09:16Z</time>
  <course>155.54</course>
  <speed>0.03</speed>
  <fix>3d</fix>
</trkpt>
<trkpt lat="33.8106151" lon="-118.393572">
  <ele>-3.45</ele>
  <time>2026-09-02T22:09:16Z</time>
  <course>77.91</course>
  <speed>0.0</speed>
  <fix>3d</fix>
</trkpt>
<trkpt lat="33.810615" lon="-118.3935718">
  <ele>-3.946</ele>
  <time>2026-09-02T22:09:16Z</time>
  <course>155.56</course>
  <speed>0.03</speed>
  <fix>3d</fix>
</trkpt>
<trkpt lat="33.8106151" lon="-118.393572">
  <ele>-3.45</ele>
  <time>2026-09-02T22:09:16Z</time>
  <course>77.84</course>
  <speed>0.0</speed>
  <fix>3d</fix>
</trkpt>
<trkpt lat="33.810615" lon="-118.3935718">
  <ele>-3.949</ele>
  <time>2026-09-02T22:09:16Z</time>
  <course>155.58</course>
  <speed>0.03</speed>
  <fix>3d</fix>
</trkpt>
<trkpt lat="33.8106151" lon="-118.393572">
  <ele>-3.45</ele>
  <time>2026-09-02T22:09:16Z</time>
  <course>77.84</course>
  <speed>0.0</speed>
  <fix>3d</fix>
</trkpt>
<trkpt lat="33.810615" lon="-118.3935718">
  <ele>-3.958</ele>
  <time>2026-09-02T22:09:16Z</time>
  <course>155.6</course>
  <speed>0.03</speed>
  <fix>3d</fix>
</trkpt>
<trkpt lat="33.8106151" lon="-118.393572">
  <ele>-3.45</ele>
  <time>2026-09-02T22:09:16Z</time>
  <course>77.85</course>
  <speed>0.0</speed>
  <fix>3d</fix>
</trkpt>
<trkpt lat="33.810615" lon="-118.3935717">
  <ele>-3.967</ele>
  <time>2026-09-02T22:09:16Z</time>
  <course>155.62</course>
  <speed>0.03</speed>
  <fix>3d</fix>
</trkpt>
<trkpt lat="33.8106151" lon="-118.393572">
  <ele>-3.45</ele>
  <time>2026-09-02T22:09:16Z</time>
  <course>77.85</course>
  <speed>0.0</speed>
  <fix>3d</fix>
</trkpt>
<trkpt lat="33.810615" lon="-118.3935717">
  <ele>-3.971</ele>
  <time>2026-09-02T22:09:16Z</time>
  <course>155.63</course>
  <speed>0.03</speed>
  <fix>3d</fix>
</trkpt>
<trkpt lat="33.8106151" lon="-118.393572">
  <ele>-3.46</ele>
  <time>2026-09-02T22:09:16Z</time>
  <course>77.98</course>
  <speed>0.0</speed>
  <fix>3d</fix>
</trkpt>
<trkpt lat="33.810615" lon="-118.3935717">
  <ele>-3.971</ele>
  <time>2026-09-02T22:09:16Z</time>
  <course>155.65</course>
  <speed>0.03</speed>
  <fix>3d</fix>
</trkpt>
<trkpt lat="33.8106151" lon="-118.393572">
  <ele>-3.46</ele>
  <time>2026-09-02T22:09:16Z</time>
  <course>77.98</course>
  <speed>0.0</speed>
  <fix>3d</fix>
</trkpt>
<trkpt lat="33.810615" lon="-118.3935717">
  <ele>-3.97</ele>
  <time>2026-09-02T22:09:16Z</time>
  <course>155.67</course>
  <speed>0.03</speed>
  <fix>3d</fix>
</trkpt>
<trkpt lat="33.8106151" lon="-118.3935719">
  <ele>-3.47</ele>
  <time>2026-09-02T22:09:16Z</time>
  <course>78.3</course>
  <speed>0.0</speed>
  <fix>3d</fix>
</trkpt>
<trkpt lat="33.810615" lon="-118.3935717">
  <ele>-3.969</ele>
  <time>2026-09-02T22:09:16Z</time>
  <course>155.69</course>
  <speed>0.03</speed>
  <fix>3d</fix>
</trkpt>
<trkpt lat="33.8106151" lon="-118.3935719">
  <ele>-3.47</ele>
  <time>2026-09-02T22:09:16Z</time>
  <course>78.3</course>
  <speed>0.0</speed>
  <fix>3d</fix>
</trkpt>
<trkpt lat="33.810615" lon="-118.3935717">
  <ele>-3.966</ele>
  <time>2026-09-02T22:09:16Z</time>
  <course>155.7</course>
  <speed>0.03</speed>
  <fix>3d</fix>
</trkpt>
<trkpt lat="33.8106151" lon="-118.3935719">
  <ele>-3.47</ele>
  <time>2026-09-02T22:09:16Z</time>
  <course>78.74</course>
  <speed>0.0</speed>
  <fix>3d</fix>
</trkpt>
<trkpt lat="33.810615" lon="-118.3935717">
  <ele>-3.963</ele>
  <time>2026-09-02T22:09:16Z</time>
  <course>155.72</course>
  <speed>0.03</speed>
  <fix>3d</fix>
</trkpt>
<trkpt lat="33.8106151" lon="-118.3935719">
  <ele>-3.47</ele>
  <time>2026-09-02T22:09:16Z</time>
  <course>78.74</course>
  <speed>0.0</speed>
  <fix>3d</fix>
</trkpt>
<trkpt lat="33.810615" lon="-118.3935717">
  <ele>-3.961</ele>
  <time>2026-09-02T22:09:16Z</time>
  <course>155.74</course>
  <speed>0.03</speed>
  <fix>3d</fix>
</trkpt>
<trkpt lat="33.8106151" lon="-118.3935719">
  <ele>-3.47</ele>
  <time>2026-09-02T22:09:16Z</time>
  <course>79.16</course>
  <speed>0.0</speed>
  <fix>3d</fix>
</trkpt>
<trkpt lat="33.810615" lon="-118.3935717">
  <ele>-3.958</ele>
  <time>2026-09-02T22:09:16Z</time>
  <course>155.76</course>
  <speed>0.03</speed>
  <fix>3d</fix>
</trkpt>
<trkpt lat="33.8106151" lon="-118.3935719">
  <ele>-3.47</ele>
  <time>2026-09-02T22:09:16Z</time>
  <course>79.16</course>
  <speed>0.0</speed>
  <fix>3d</fix>
</trkpt>
<trkpt lat="33.810615" lon="-118.3935717">
  <ele>-3.956</ele>
  <time>2026-09-02T22:09:16Z</time>
  <course>155.77</course>
  <speed>0.0316227766016838</speed>
  <fix>3d</fix>
</trkpt>
<trkpt lat="33.8106151" lon="-118.3935719">
  <ele>-3.46</ele>
  <time>2026-09-02T22:09:16Z</time>
  <course>79.5</course>
  <speed>0.0</speed>
  <fix>3d</fix>
</trkpt>
<trkpt lat="33.810615" lon="-118.3935717">
  <ele>-3.954</ele>
  <time>2026-09-02T22:09:16Z</time>
  <course>155.79</course>
  <speed>0.0316227766016838</speed>
  <fix>3d</fix>
</trkpt>
<trkpt lat="33.8106151" lon="-118.3935719">
  <ele>-3.46</ele>
  <time>2026-09-02T22:09:16Z</time>
  <course>79.5</course>
  <speed>0.0</speed>
  <fix>3d</fix>
</trkpt>
<trkpt lat="33.810615" lon="-118.3935717">
  <ele>-3.952</ele>
  <time>2026-09-02T22:09:16Z</time>
  <course>155.81</course>
  <speed>0.0316227766016838</speed>
  <fix>3d</fix>
</trkpt>
<trkpt lat="33.8106151" lon="-118.3935719">
  <ele>-3.46</ele>
  <time>2026-09-02T22:09:16Z</time>
  <course>79.74</course>
  <speed>0.0</speed>
  <fix>3d</fix>
</trkpt>
<trkpt lat="33.810615" lon="-118.3935717">
  <ele>-3.951</ele>
  <time>2026-09-02T22:09:16Z</time>
  <course>155.82</course>
  <speed>0.0316227766016838</speed>
  <fix>3d</fix>
</trkpt>
<trkpt lat="33.8106151" lon="-118.3935719">
  <ele>-3.46</ele>
  <time>2026-09-02T22:09:16Z</time>
  <course>79.74</course>
  <speed>0.0</speed>
  <fix>3d</fix>
</trkpt>
<trkpt lat="33.810615" lon="-118.3935716">
  <ele>-3.951</ele>
  <time>2026-09-02T22:09:16Z</time>
  <course>155.84</course>
  <speed>0.0316227766016838</speed>
  <fix>3d</fix>
</trkpt>
<trkpt lat="33.8106151" lon="-118.3935719">
  <ele>-3.46</ele>
  <time>2026-09-02T22:09:16Z</time>
  <course>79.96</course>
  <speed>0.0</speed>
  <fix>3d</fix>
</trkpt>
<trkpt lat="33.810615" lon="-118.3935716">
  <ele>-3.951</ele>
  <time>2026-09-02T22:09:16Z</time>
  <course>155.85</course>
  <speed>0.0316227766016838</speed>
  <fix>3d</fix>
</trkpt>
<trkpt lat="33.8106151" lon="-118.3935719">
  <ele>-3.46</ele>
  <time>2026-09-02T22:09:16Z</time>
  <course>79.96</course>
  <speed>0.0</speed>
  <fix>3d</fix>
</trkpt>
<trkpt lat="33.810615" lon="-118.3935716">
  <ele>-3.952</ele>
  <time>2026-09-02T22:09:16Z</time>
  <course>155.87</course>
  <speed>0.0316227766016838</speed>
  <fix>3d</fix>
</trkpt>
<trkpt lat="33.8106151" lon="-118.3935719">
  <ele>-3.46</ele>
  <time>2026-09-02T22:09:16Z</time>
  <course>80.22</course>
  <speed>0.0</speed>
  <fix>3d</fix>
</trkpt>
<trkpt lat="33.810615" lon="-118.3935716">
  <ele>-3.952</ele>
  <time>2026-09-02T22:09:16Z</time>
  <course>155.89</course>
  <speed>0.0316227766016838</speed>
  <fix>3d</fix>
</trkpt>
<trkpt lat="33.8106151" lon="-118.3935719">
  <ele>-3.46</ele>
  <time>2026-09-02T22:09:16Z</time>
  <course>80.22</course>
  <speed>0.0</speed>
  <fix>3d</fix>
</trkpt>
<trkpt lat="33.810615" lon="-118.3935716">
  <ele>-3.952</ele>
  <time>2026-09-02T22:09:16Z</time>
  <course>155.9</course>
  <speed>0.0316227766016838</speed>
  <fix>3d</fix>
</trkpt>
<trkpt lat="33.8106151" lon="-118.3935719">
  <ele>-3.46</ele>
  <time>2026-09-02T22:09:16Z</time>
  <course>80.62</course>
  <speed>0.0</speed>
  <fix>3d</fix>
</trkpt>
<trkpt lat="33.810615" lon="-118.3935716">
  <ele>-3.952</ele>
  <time>2026-09-02T22:09:16Z</time>
  <course>155.92</course>
  <speed>0.0316227766016838</speed>
  <fix>3d</fix>
</trkpt>
<trkpt lat="33.8106151" lon="-118.3935719">
  <ele>-3.46</ele>
  <time>2026-09-02T22:09:16Z</time>
  <course>80.62</course>
  <speed>0.0</speed>
  <fix>3d</fix>
</trkpt>
<trkpt lat="33.810615" lon="-118.3935716">
  <ele>-3.951</ele>
  <time>2026-09-02T22:09:16Z</time>
  <course>155.93</course>
  <speed>0.0316227766016838</speed>
  <fix>3d</fix>
</trkpt>
<trkpt lat="33.8106151" lon="-118.3935718">
  <ele>-3.46</ele>
  <time>2026-09-02T22:09:16Z</time>
  <course>81.13</course>
  <speed>0.0</speed>
  <fix>3d</fix>
</trkpt>
<trkpt lat="33.810615" lon="-118.3935716">
  <ele>-3.951</ele>
  <time>2026-09-02T22:09:16Z</time>
  <course>155.95</course>
  <speed>0.0316227766016838</speed>
  <fix>3d</fix>
</trkpt>
<trkpt lat="33.8106151" lon="-118.3935718">
  <ele>-3.46</ele>
  <time>2026-09-02T22:09:16Z</time>
  <course>81.13</course>
  <speed>0.0</speed>
  <fix>3d</fix>
</trkpt>
<trkpt lat="33.810615" lon="-118.3935716">
  <ele>-3.951</ele>
  <time>2026-09-02T22:09:16Z</time>
  <course>155.96</course>
  <speed>0.0316227766016838</speed>
  <fix>3d</fix>
</trkpt>
<trkpt lat="33.8106151" lon="-118.3935718">
  <ele>-3.46</ele>
  <time>2026-09-02T22:09:16Z</time>
  <course>81.6</course>
  <speed>0.0</speed>
  <fix>3d</fix>
</trkpt>
<trkpt lat="33.810615" lon="-118.3935716">
  <ele>-3.951</ele>
  <time>2026-09-02T22:09:16Z</time>
  <course>155.98</course>
  <speed>0.0316227766016838</speed>
  <fix>3d</fix>
</trkpt>
<trkpt lat="33.8106151" lon="-118.3935718">
  <ele>-3.46</ele>
  <time>2026-09-02T22:09:16Z</time>
  <course>81.6</course>
  <speed>0.0</speed>
  <fix>3d</fix>
</trkpt>
<trkpt lat="33.810615" lon="-118.3935716">
  <ele>-3.951</ele>
  <time>2026-09-02T22:09:16Z</time>
  <course>156.0</course>
  <speed>0.0316227766016838</speed>
  <fix>3d</fix>
</trkpt>
<trkpt lat="33.8106151" lon="-118.3935718">
  <ele>-3.46</ele>
  <time>2026-09-02T22:09:16Z</time>
  <course>81.94</course>
  <speed>0.0</speed>
  <fix>3d</fix>
</trkpt>
<trkpt lat="33.810615" lon="-118.3935716">
  <ele>-3.951</ele>
  <time>2026-09-02T22:09:16Z</time>
  <course>156.01</course>
  <speed>0.0316227766016838</speed>
  <fix>3d</fix>
</trkpt>
<trkpt lat="33.8106151" lon="-118.3935718">
  <ele>-3.46</ele>
  <time>2026-09-02T22:09:16Z</time>
  <course>81.94</course>
  <speed>0.0</speed>
  <fix>3d</fix>
</trkpt>
<trkpt lat="33.810615" lon="-118.3935716">
  <ele>-3.95</ele>
  <time>2026-09-02T22:09:16Z</time>
  <course>156.03</course>
  <speed>0.0316227766016838</speed>
  <fix>3d</fix>
</trkpt>
<trkpt lat="33.8106151" lon="-118.3935718">
  <ele>-3.46</ele>
  <time>2026-09-02T22:09:16Z</time>
  <course>82.24</course>
  <speed>0.0</speed>
  <fix>3d</fix>
</trkpt>
<trkpt lat="33.810615" lon="-118.3935716">
  <ele>-3.949</ele>
  <time>2026-09-02T22:09:16Z</time>
  <course>156.04</course>
  <speed>0.0316227766016838</speed>
  <fix>3d</fix>
</trkpt>
<trkpt lat="33.8106151" lon="-118.3935718">
  <ele>-3.46</ele>
  <time>2026-09-02T22:09:16Z</time>
  <course>82.24</course>
  <speed>0.0</speed>
  <fix>3d</fix>
</trkpt>
<trkpt lat="33.810615" lon="-118.3935716">
  <ele>-3.948</ele>
  <time>2026-09-02T22:09:16Z</time>
  <course>156.06</course>
  <speed>0.0316227766016838</speed>
  <fix>3d</fix>
</trkpt>
<trkpt lat="33.8106151" lon="-118.3935718">
  <ele>-3.46</ele>
  <time>2026-09-02T22:09:16Z</time>
  <course>82.57</course>
  <speed>0.0</speed>
  <fix>3d</fix>
</trkpt>
<trkpt lat="33.810615" lon="-118.3935716">
  <ele>-3.948</ele>
  <time>2026-09-02T22:09:16Z</time>
  <course>156.07</course>
  <speed>0.0316227766016838</speed>
  <fix>3d</fix>
</trkpt>
<trkpt lat="33.8106151" lon="-118.3935718">
  <ele>-3.46</ele>
  <time>2026-09-02T22:09:16Z</time>
  <course>82.57</course>
  <speed>0.0</speed>
  <fix>3d</fix>
</trkpt>
<trkpt lat="33.810615" lon="-118.3935716">
  <ele>-3.948</ele>
  <time>2026-09-02T22:09:16Z</time>
  <course>156.09</course>
  <speed>0.0316227766016838</speed>
  <fix>3d</fix>
</trkpt>
<trkpt lat="33.8106151" lon="-118.3935718">
  <ele>-3.46</ele>
  <time>2026-09-02T22:09:16Z</time>
  <course>82.99</course>
  <speed>0.0</speed>
  <fix>3d</fix>
</trkpt>
<trkpt lat="33.810615" lon="-118.3935716">
  <ele>-3.949</ele>
  <time>2026-09-02T22:09:16Z</time>
  <course>156.1</course>
  <speed>0.0316227766016838</speed>
  <fix>3d</fix>
</trkpt>
<trkpt lat="33.8106151" lon="-118.3935718">
  <ele>-3.46</ele>
  <time>2026-09-02T22:09:16Z</time>
  <course>82.99</course>
  <speed>0.0</speed>
  <fix>3d</fix>
</trkpt>
<trkpt lat="33.810615" lon="-118.3935715">
  <ele>-3.949</ele>
  <time>2026-09-02T22:09:16Z</time>
  <course>156.11</course>
  <speed>0.0316227766016838</speed>
  <fix>3d</fix>
</trkpt>
<trkpt lat="33.8106151" lon="-118.3935718">
  <ele>-3.46</ele>
  <time>2026-09-02T22:09:16Z</time>
  <course>83.5</course>
  <speed>0.0</speed>
  <fix>3d</fix>
</trkpt>
<trkpt lat="33.810615" lon="-118.3935715">
  <ele>-3.948</ele>
  <time>2026-09-02T22:09:16Z</time>
  <course>156.13</course>
  <speed>0.0316227766016838</speed>
  <fix>3d</fix>
</trkpt>
<trkpt lat="33.8106151" lon="-118.3935718">
  <ele>-3.46</ele>
  <time>2026-09-02T22:09:16Z</time>
  <course>83.5</course>
  <speed>0.0</speed>
  <fix>3d</fix>
</trkpt>
<trkpt lat="33.810615" lon="-118.3935715">
  <ele>-3.947</ele>
  <time>2026-09-02T22:09:16Z</time>
  <course>156.14</course>
  <speed>0.0316227766016838</speed>
  <fix>3d</fix>
</trkpt>
<trkpt lat="33.8106151" lon="-118.3935718">
  <ele>-3.45</ele>
  <time>2026-09-02T22:09:16Z</time>
  <course>84.04</course>
  <speed>0.0</speed>
  <fix>3d</fix>
</trkpt>
<trkpt lat="33.810615" lon="-118.3935715">
  <ele>-3.947</ele>
  <time>2026-09-02T22:09:16Z</time>
  <course>156.16</course>
  <speed>0.0316227766016838</speed>
  <fix>3d</fix>
</trkpt>
<trkpt lat="33.8106151" lon="-118.3935718">
  <ele>-3.45</ele>
  <time>2026-09-02T22:09:16Z</time>
  <course>84.04</course>
  <speed>0.0</speed>
  <fix>3d</fix>
</trkpt>
<trkpt lat="33.810615" lon="-118.3935715">
  <ele>-3.946</ele>
  <time>2026-09-02T22:09:16Z</time>
  <course>156.17</course>
  <speed>0.0316227766016838</speed>
  <fix>3d</fix>
</trkpt>
<trkpt lat="33.8106151" lon="-118.3935718">
  <ele>-3.45</ele>
  <time>2026-09-02T22:09:16Z</time>
  <course>84.5</course>
  <speed>0.0</speed>
  <fix>3d</fix>
</trkpt>
<trkpt lat="33.810615" lon="-118.3935715">
  <ele>-3.946</ele>
  <time>2026-09-02T22:09:16Z</time>
  <course>156.18</course>
  <speed>0.0316227766016838</speed>
  <fix>3d</fix>
</trkpt>
<trkpt lat="33.8106151" lon="-118.3935718">
  <ele>-3.45</ele>
  <time>2026-09-02T22:09:16Z</time>
  <course>84.5</course>
  <speed>0.0</speed>
  <fix>3d</fix>
</trkpt>
<trkpt lat="33.810615" lon="-118.3935715">
  <ele>-3.945</ele>
  <time>2026-09-02T22:09:16Z</time>
  <course>156.2</course>
  <speed>0.0316227766016838</speed>
  <fix>3d</fix>
</trkpt>
<trkpt lat="33.8106151" lon="-118.3935718">
  <ele>-3.45</ele>
  <time>2026-09-02T22:09:16Z</time>
  <course>84.88</course>
  <speed>0.0</speed>
  <fix>3d</fix>
</trkpt>
<trkpt lat="33.810615" lon="-118.3935715">
  <ele>-3.945</ele>
  <time>2026-09-02T22:09:16Z</time>
  <course>156.21</course>
  <speed>0.0316227766016838</speed>
  <fix>3d</fix>
</trkpt>
<trkpt lat="33.8106151" lon="-118.3935718">
  <ele>-3.45</ele>
  <time>2026-09-02T22:09:16Z</time>
  <course>84.88</course>
  <speed>0.0</speed>
  <fix>3d</fix>
</trkpt>
<trkpt lat="33.810615" lon="-118.3935715">
  <ele>-3.947</ele>
  <time>2026-09-02T22:09:16Z</time>
  <course>156.23</course>
  <speed>0.0316227766016838</speed>
  <fix>3d</fix>
</trkpt>
<trkpt lat="33.8106151" lon="-118.3935717">
  <ele>-3.45</ele>
  <time>2026-09-02T22:09:16Z</time>
  <course>85.18</course>
  <speed>0.0</speed>
  <fix>3d</fix>
</trkpt>
<trkpt lat="33.810615" lon="-118.3935715">
  <ele>-3.949</ele>
  <time>2026-09-02T22:09:16Z</time>
  <course>156.24</course>
  <speed>0.0316227766016838</speed>
  <fix>3d</fix>
</trkpt>
<trkpt lat="33.8106151" lon="-118.3935717">
  <ele>-3.45</ele>
  <time>2026-09-02T22:09:16Z</time>
  <course>85.18</course>
  <speed>0.0</speed>
  <fix>3d</fix>
</trkpt>
<trkpt lat="33.810615" lon="-118.3935715">
  <ele>-3.951</ele>
  <time>2026-09-02T22:09:16Z</time>
  <course>156.25</course>
  <speed>0.0316227766016838</speed>
  <fix>3d</fix>
</trkpt>
<trkpt lat="33.8106151" lon="-118.3935717">
  <ele>-3.46</ele>
  <time>2026-09-02T22:09:16Z</time>
  <course>85.46</course>
  <speed>0.0</speed>
  <fix>3d</fix>
</trkpt>
<trkpt lat="33.810615" lon="-118.3935715">
  <ele>-3.952</ele>
  <time>2026-09-02T22:09:16Z</time>
  <course>156.27</course>
  <speed>0.0316227766016838</speed>
  <fix>3d</fix>
</trkpt>
<trkpt lat="33.8106151" lon="-118.3935717">
  <ele>-3.46</ele>
  <time>2026-09-02T22:09:16Z</time>
  <course>85.46</course>
  <speed>0.0</speed>
  <fix>3d</fix>
</trkpt>
<trkpt lat="33.810615" lon="-118.3935715">
  <ele>-3.954</ele>
  <time>2026-09-02T22:09:16Z</time>
  <course>156.28</course>
  <speed>0.0316227766016838</speed>
  <fix>3d</fix>
</trkpt>
<trkpt lat="33.8106151" lon="-118.3935717">
  <ele>-3.46</ele>
  <time>2026-09-02T22:09:16Z</time>
  <course>85.95</course>
  <speed>0.0</speed>
  <fix>3d</fix>
</trkpt>
<trkpt lat="33.810615" lon="-118.3935715">
  <ele>-3.953</ele>
  <time>2026-09-02T22:09:16Z</time>
  <course>156.29</course>
  <speed>0.0316227766016838</speed>
  <fix>3d</fix>
</trkpt>
<trkpt lat="33.8106151" lon="-118.3935717">
  <ele>-3.46</ele>
  <time>2026-09-02T22:09:16Z</time>
  <course>85.95</course>
  <speed>0.0</speed>
  <fix>3d</fix>
</trkpt>
<trkpt lat="33.810615" lon="-118.3935715">
  <ele>-3.952</ele>
  <time>2026-09-02T22:09:16Z</time>
  <course>156.31</course>
  <speed>0.0316227766016838</speed>
  <fix>3d</fix>
</trkpt>
<trkpt lat="33.8106151" lon="-118.3935717">
  <ele>-3.45</ele>
  <time>2026-09-02T22:09:16Z</time>
  <course>86.73</course>
  <speed>0.0</speed>
  <fix>3d</fix>
</trkpt>
<trkpt lat="33.810615" lon="-118.3935715">
  <ele>-3.951</ele>
  <time>2026-09-02T22:09:16Z</time>
  <course>156.32</course>
  <speed>0.0316227766016838</speed>
  <fix>3d</fix>
</trkpt>
<trkpt lat="33.8106151" lon="-118.3935717">
  <ele>-3.45</ele>
  <time>2026-09-02T22:09:16Z</time>
  <course>86.73</course>
  <speed>0.0</speed>
  <fix>3d</fix>
</trkpt>
<trkpt lat="33.810615" lon="-118.3935715">
  <ele>-3.949</ele>
  <time>2026-09-02T22:09:16Z</time>
  <course>156.33</course>
  <speed>0.0316227766016838</speed>
  <fix>3d</fix>
</trkpt>
<trkpt lat="33.8106151" lon="-118.3935717">
  <ele>-3.45</ele>
  <time>2026-09-02T22:09:16Z</time>
  <course>87.53</course>
  <speed>0.0</speed>
  <fix>3d</fix>
</trkpt>
<trkpt lat="33.810615" lon="-118.3935715">
  <ele>-3.948</ele>
  <time>2026-09-02T22:09:16Z</time>
  <course>156.35</course>
  <speed>0.0316227766016838</speed>
  <fix>3d</fix>
</trkpt>
<trkpt lat="33.8106151" lon="-118.3935717">
  <ele>-3.45</ele>
  <time>2026-09-02T22:09:16Z</time>
  <course>87.53</course>
  <speed>0.0</speed>
  <fix>3d</fix>
</trkpt>
<trkpt lat="33.810615" lon="-118.3935715">
  <ele>-3.948</ele>
  <time>2026-09-02T22:09:16Z</time>
  <course>156.36</course>
  <speed>0.0316227766016838</speed>
  <fix>3d</fix>
</trkpt>
<trkpt lat="33.8106151" lon="-118.3935717">
  <ele>-3.45</ele>
  <time>2026-09-02T22:09:16Z</time>
  <course>88.12</course>
  <speed>0.0</speed>
  <fix>3d</fix>
</trkpt>
<trkpt lat="33.810615" lon="-118.3935715">
  <ele>-3.948</ele>
  <time>2026-09-02T22:09:16Z</time>
  <course>156.37</course>
  <speed>0.0316227766016838</speed>
  <fix>3d</fix>
</trkpt>
<trkpt lat="33.8106151" lon="-118.3935717">
  <ele>-3.45</ele>
  <time>2026-09-02T22:09:16Z</time>
  <course>88.12</course>
  <speed>0.0</speed>
  <fix>3d</fix>
</trkpt>
<trkpt lat="33.810615" lon="-118.3935715">
  <ele>-3.947</ele>
  <time>2026-09-02T22:09:16Z</time>
  <course>156.39</course>
  <speed>0.0316227766016838</speed>
  <fix>3d</fix>
</trkpt>
<trkpt lat="33.8106151" lon="-118.3935717">
  <ele>-3.45</ele>
  <time>2026-09-02T22:09:16Z</time>
  <course>88.55</course>
  <speed>0.0</speed>
  <fix>3d</fix>
</trkpt>
<trkpt lat="33.810615" lon="-118.3935715">
  <ele>-3.943</ele>
  <time>2026-09-02T22:09:16Z</time>
  <course>156.4</course>
  <speed>0.0316227766016838</speed>
  <fix>3d</fix>
</trkpt>
<trkpt lat="33.8106151" lon="-118.3935717">
  <ele>-3.45</ele>
  <time>2026-09-02T22:09:16Z</time>
  <course>88.55</course>
  <speed>0.0</speed>
  <fix>3d</fix>
</trkpt>
<trkpt lat="33.810615" lon="-118.3935715">
  <ele>-3.932</ele>
  <time>2026-09-02T22:09:16Z</time>
  <course>156.41</course>
  <speed>0.0316227766016838</speed>
  <fix>3d</fix>
</trkpt>
<trkpt lat="33.8106151" lon="-118.3935717">
  <ele>-3.44</ele>
  <time>2026-09-02T22:09:16Z</time>
  <course>88.86</course>
  <speed>0.0</speed>
  <fix>3d</fix>
</trkpt>
<trkpt lat="33.810615" lon="-118.3935715">
  <ele>-3.928</ele>
  <time>2026-09-02T22:09:16Z</time>
  <course>156.42</course>
  <speed>0.0316227766016838</speed>
  <fix>3d</fix>
</trkpt>
<trkpt lat="33.8106151" lon="-118.3935717">
  <ele>-3.44</ele>
  <time>2026-09-02T22:09:16Z</time>
  <course>88.86</course>
  <speed>0.0</speed>
  <fix>3d</fix>
</trkpt>
<trkpt lat="33.810615" lon="-118.3935715">
  <ele>-3.941</ele>
  <time>2026-09-02T22:09:16Z</time>
  <course>156.44</course>
  <speed>0.0316227766016838</speed>
  <fix>3d</fix>
</trkpt>
<trkpt lat="33.8106151" lon="-118.3935717">
  <ele>-3.43</ele>
  <time>2026-09-02T22:09:16Z</time>
  <course>88.41</course>
  <speed>0.0</speed>
  <fix>3d</fix>
</trkpt>
<trkpt lat="33.810615" lon="-118.3935715">
  <ele>-3.973</ele>
  <time>2026-09-02T22:09:16Z</time>
  <course>156.45</course>
  <speed>0.022360679774997897</speed>
  <fix>3d</fix>
</trkpt>
<trkpt lat="33.8106151" lon="-118.3935717">
  <ele>-3.43</ele>
  <time>2026-09-02T22:09:16Z</time>
  <course>88.41</course>
  <speed>0.0</speed>
  <fix>3d</fix>
</trkpt>
<trkpt lat="33.810615" lon="-118.3935714">
  <ele>-3.974</ele>
  <time>2026-09-02T22:09:16Z</time>
  <course>156.45</course>
  <speed>0.0316227766016838</speed>
  <fix>3d</fix>
</trkpt>
<trkpt lat="33.810615" lon="-118.3935714">
  <ele>-4.017</ele>
  <time>2026-09-02T22:09:16Z</time>
  <course>156.46</course>
  <speed>0.022360679774997897</speed>
  <fix>3d</fix>
</trkpt>
<trkpt lat="33.8106151" lon="-118.3935717">
  <ele>-3.46</ele>
  <time>2026-09-02T22:09:16Z</time>
  <course>86.47</course>
  <speed>0.0</speed>
  <fix>3d</fix>
</trkpt>
<trkpt lat="33.810615" lon="-118.3935714">
  <ele>-4.018</ele>
  <time>2026-09-02T22:09:16Z</time>
  <course>156.46</course>
  <speed>0.022360679774997897</speed>
  <fix>3d</fix>
</trkpt>
<trkpt lat="33.810615" lon="-118.3935714">
  <ele>-4.07</ele>
  <time>2026-09-02T22:09:16Z</time>
  <course>156.47</course>
  <speed>0.022360679774997897</speed>
  <fix>3d</fix>
</trkpt>
<trkpt lat="33.8106151" lon="-118.3935717">
  <ele>-3.46</ele>
  <time>2026-09-02T22:09:16Z</time>
  <course>86.47</course>
  <speed>0.0</speed>
  <fix>3d</fix>
</trkpt>
<trkpt lat="33.810615" lon="-118.3935714">
  <ele>-4.088</ele>
  <time>2026-09-02T22:09:16Z</time>
  <course>156.48</course>
  <speed>0.022360679774997897</speed>
  <fix>3d</fix>
</trkpt>
<trkpt lat="33.810615" lon="-118.3935714">
  <ele>-4.128</ele>
  <time>2026-09-02T22:09:16Z</time>
  <course>156.49</course>
  <speed>0.022360679774997897</speed>
  <fix>3d</fix>
</trkpt>
<trkpt lat="33.8106151" lon="-118.3935717">
  <ele>-3.54</ele>
  <time>2026-09-02T22:09:16Z</time>
  <course>84.47</course>
  <speed>0.0</speed>
  <fix>3d</fix>
</trkpt>
<trkpt lat="33.810615" lon="-118.3935714">
  <ele>-4.146</ele>
  <time>2026-09-02T22:09:16Z</time>
  <course>156.49</course>
  <speed>0.022360679774997897</speed>
  <fix>3d</fix>
</trkpt>
<trkpt lat="33.810615" lon="-118.3935714">
  <ele>-4.19</ele>
  <time>2026-09-02T22:09:16Z</time>
  <course>156.5</course>
  <speed>0.022360679774997897</speed>
  <fix>3d</fix>
</trkpt>
<trkpt lat="33.8106151" lon="-118.3935717">
  <ele>-3.54</ele>
  <time>2026-09-02T22:09:16Z</time>
  <course>84.47</course>
  <speed>0.0</speed>
  <fix>3d</fix>
</trkpt>
<trkpt lat="33.810615" lon="-118.3935714">
  <ele>-4.211</ele>
  <time>2026-09-02T22:09:16Z</time>
  <course>156.5</course>
  <speed>0.022360679774997897</speed>
  <fix>3d</fix>
</trkpt>
<trkpt lat="33.810615" lon="-118.3935714">
  <ele>-4.256</ele>
  <time>2026-09-02T22:09:16Z</time>
  <course>156.51</course>
  <speed>0.022360679774997897</speed>
  <fix>3d</fix>
</trkpt>
<trkpt lat="33.8106151" lon="-118.3935716">
  <ele>-3.65</ele>
  <time>2026-09-02T22:09:16Z</time>
  <course>83.38</course>
  <speed>0.0</speed>
  <fix>3d</fix>
</trkpt>
<trkpt lat="33.810615" lon="-118.3935714">
  <ele>-4.28</ele>
  <time>2026-09-02T22:09:16Z</time>
  <course>156.51</course>
  <speed>0.022360679774997897</speed>
  <fix>3d</fix>
</trkpt>
<trkpt lat="33.810615" lon="-118.3935714">
  <ele>-4.324</ele>
  <time>2026-09-02T22:09:16Z</time>
  <course>156.52</course>
  <speed>0.0316227766016838</speed>
  <fix>3d</fix>
</trkpt>
<trkpt lat="33.8106151" lon="-118.3935716">
  <ele>-3.65</ele>
  <time>2026-09-02T22:09:16Z</time>
  <course>83.38</course>
  <speed>0.0</speed>
  <fix>3d</fix>
</trkpt>
<trkpt lat="33.810615" lon="-118.3935714">
  <ele>-4.346</ele>
  <time>2026-09-02T22:09:16Z</time>
  <course>156.53</course>
  <speed>0.0316227766016838</speed>
  <fix>3d</fix>
</trkpt>
<trkpt lat="33.810615" lon="-118.3935714">
  <ele>-4.393</ele>
  <time>2026-09-02T22:09:16Z</time>
  <course>156.53</course>
  <speed>0.0316227766016838</speed>
  <fix>3d</fix>
</trkpt>
<trkpt lat="33.8106151" lon="-118.3935716">
  <ele>-3.77</ele>
  <time>2026-09-02T22:09:16Z</time>
  <course>82.82</course>
  <speed>0.0</speed>
  <fix>3d</fix>
</trkpt>
<trkpt lat="33.810615" lon="-118.3935714">
  <ele>-4.415</ele>
  <time>2026-09-02T22:09:16Z</time>
  <course>156.54</course>
  <speed>0.0316227766016838</speed>
  <fix>3d</fix>
</trkpt>
<trkpt lat="33.810615" lon="-118.3935714">
  <ele>-4.463</ele>
  <time>2026-09-02T22:09:16Z</time>
  <course>156.55</course>
  <speed>0.0316227766016838</speed>
  <fix>3d</fix>
</trkpt>
<trkpt lat="33.8106151" lon="-118.3935716">
  <ele>-3.77</ele>
  <time>2026-09-02T22:09:16Z</time>
  <course>82.82</course>
  <speed>0.0</speed>
  <fix>3d</fix>
</trkpt>
<trkpt lat="33.810615" lon="-118.3935714">
  <ele>-4.488</ele>
  <time>2026-09-02T22:09:16Z</time>
  <course>156.55</course>
  <speed>0.0316227766016838</speed>
  <fix>3d</fix>
</trkpt>
<trkpt lat="33.810615" lon="-118.3935714">
  <ele>-4.534</ele>
  <time>2026-09-02T22:09:16Z</time>
  <course>156.56</course>
  <speed>0.0316227766016838</speed>
  <fix>3d</fix>
</trkpt>
<trkpt lat="33.8106151" lon="-118.3935716">
  <ele>-3.9</ele>
  <time>2026-09-02T22:09:16Z</time>
  <course>82.54</course>
  <speed>0.0</speed>
  <fix>3d</fix>
</trkpt>
<trkpt lat="33.810615" lon="-118.3935714">
  <ele>-4.555</ele>
  <time>2026-09-02T22:09:16Z</time>
  <course>156.56</course>
  <speed>0.0316227766016838</speed>
  <fix>3d</fix>
</trkpt>
<trkpt lat="33.810615" lon="-118.3935714">
  <ele>-4.605</ele>
  <time>2026-09-02T22:09:16Z</time>
  <course>156.57</course>
  <speed>0.0316227766016838</speed>
  <fix>3d</fix>
</trkpt>
<trkpt lat="33.8106151" lon="-118.3935716">
  <ele>-3.9</ele>
  <time>2026-09-02T22:09:16Z</time>
  <course>82.54</course>
  <speed>0.0</speed>
  <fix>3d</fix>
</trkpt>
<trkpt lat="33.810615" lon="-118.3935714">
  <ele>-4.633</ele>
  <time>2026-09-02T22:09:16Z</time>
  <course>156.58</course>
  <speed>0.0316227766016838</speed>
  <fix>3d</fix>
</trkpt>
<trkpt lat="33.810615" lon="-118.3935714">
  <ele>-4.675</ele>
  <time>2026-09-02T22:09:16Z</time>
  <course>156.58</course>
  <speed>0.0316227766016838</speed>
  <fix>3d</fix>
</trkpt>
<trkpt lat="33.8106151" lon="-118.3935716">
  <ele>-4.03</ele>
  <time>2026-09-02T22:09:16Z</time>
  <course>82.34</course>
  <speed>0.0</speed>
  <fix>3d</fix>
</trkpt>
<trkpt lat="33.810615" lon="-118.3935714">
  <ele>-4.698</ele>
  <time>2026-09-02T22:09:16Z</time>
  <course>156.59</course>
  <speed>0.0316227766016838</speed>
  <fix>3d</fix>
</trkpt>
<trkpt lat="33.810615" lon="-118.3935714">
  <ele>-4.744</ele>
  <time>2026-09-02T22:09:16Z</time>
  <course>156.59</course>
  <speed>0.0316227766016838</speed>
  <fix>3d</fix>
</trkpt>
<trkpt lat="33.8106151" lon="-118.3935716">
  <ele>-4.03</ele>
  <time>2026-09-02T22:09:16Z</time>
  <course>82.34</course>
  <speed>0.0</speed>
  <fix>3d</fix>
</trkpt>
<trkpt lat="33.810615" lon="-118.3935714">
  <ele>-4.746</ele>
  <time>2026-09-02T22:09:16Z</time>
  <course>156.59</course>
  <speed>0.0316227766016838</speed>
  <fix>3d</fix>
</trkpt>
<trkpt lat="33.810615" lon="-118.3935714">
  <ele>-4.812</ele>
  <time>2026-09-02T22:09:16Z</time>
  <course>156.61</course>
  <speed>0.0316227766016838</speed>
  <fix>3d</fix>
</trkpt>
<trkpt lat="33.8106152" lon="-118.3935716">
  <ele>-4.16</ele>
  <time>2026-09-02T22:09:16Z</time>
  <course>82.08</course>
  <speed>0.0</speed>
  <fix>3d</fix>
</trkpt>
<trkpt lat="33.810615" lon="-118.3935714">
  <ele>-4.832</ele>
  <time>2026-09-02T22:09:16Z</time>
  <course>156.61</course>
  <speed>0.0316227766016838</speed>
  <fix>3d</fix>
</trkpt>
<trkpt lat="33.810615" lon="-118.3935714">
  <ele>-4.878</ele>
  <time>2026-09-02T22:09:16Z</time>
  <course>156.62</course>
  <speed>0.0316227766016838</speed>
  <fix>3d</fix>
</trkpt>
<trkpt lat="33.8106152" lon="-118.3935716">
  <ele>-4.16</ele>
  <time>2026-09-02T22:09:16Z</time>
  <course>82.08</course>
  <speed>0.0</speed>
  <fix>3d</fix>
</trkpt>
<trkpt lat="33.810615" lon="-118.3935714">
  <ele>-4.901</ele>
  <time>2026-09-02T22:09:16Z</time>
  <course>156.62</course>
  <speed>0.0316227766016838</speed>
  <fix>3d</fix>
</trkpt>
<trkpt lat="33.810615" lon="-118.3935714">
  <ele>-4.944</ele>
  <time>2026-09-02T22:09:16Z</time>
  <course>156.63</course>
  <speed>0.03</speed>
  <fix>3d</fix>
</trkpt>
<trkpt lat="33.8106152" lon="-118.3935716">
  <ele>-4.28</ele>
  <time>2026-09-02T22:09:16Z</time>
  <course>81.71</course>
  <speed>0.0</speed>
  <fix>3d</fix>
</trkpt>
<trkpt lat="33.810615" lon="-118.3935714">
  <ele>-4.96</ele>
  <time>2026-09-02T22:09:16Z</time>
  <course>156.63</course>
  <speed>0.03</speed>
  <fix>3d</fix>
</trkpt>
<trkpt lat="33.810615" lon="-118.3935714">
  <ele>-5.01</ele>
  <time>2026-09-02T22:09:16Z</time>
  <course>156.64</course>
  <speed>0.03</speed>
  <fix>3d</fix>
</trkpt>
<trkpt lat="33.8106152" lon="-118.3935716">
  <ele>-4.28</ele>
  <time>2026-09-02T22:09:16Z</time>
  <course>81.71</course>
  <speed>0.0</speed>
  <fix>3d</fix>
</trkpt>
<trkpt lat="33.810615" lon="-118.3935714">
  <ele>-5.03</ele>
  <time>2026-09-02T22:09:16Z</time>
  <course>156.64</course>
  <speed>0.03</speed>
  <fix>3d</fix>
</trkpt>
<trkpt lat="33.810615" lon="-118.3935714">
  <ele>-5.077</ele>
  <time>2026-09-02T22:09:16Z</time>
  <course>156.65</course>
  <speed>0.03</speed>
  <fix>3d</fix>
</trkpt>
<trkpt lat="33.8106152" lon="-118.3935716">
  <ele>-4.41</ele>
  <time>2026-09-02T22:09:16Z</time>
  <course>81.28</course>
  <speed>0.0</speed>
  <fix>3d</fix>
</trkpt>
<trkpt lat="33.810615" lon="-118.3935714">
  <ele>-5.102</ele>
  <time>2026-09-02T22:09:16Z</time>
  <course>156.65</course>
  <speed>0.03</speed>
  <fix>3d</fix>
</trkpt>
<trkpt lat="33.810615" lon="-118.3935714">
  <ele>-5.144</ele>
  <time>2026-09-02T22:09:16Z</time>
  <course>156.66</course>
  <speed>0.03</speed>
  <fix>3d</fix>
</trkpt>
<trkpt lat="33.8106152" lon="-118.3935716">
  <ele>-4.41</ele>
  <time>2026-09-02T22:09:16Z</time>
  <course>81.28</course>
  <speed>0.0</speed>
  <fix>3d</fix>
</trkpt>
<trkpt lat="33.810615" lon="-118.3935713">
  <ele>-5.165</ele>
  <time>2026-09-02T22:09:16Z</time>
  <course>156.66</course>
  <speed>0.03</speed>
  <fix>3d</fix>
</trkpt>
<trkpt lat="33.810615" lon="-118.3935713">
  <ele>-5.211</ele>
  <time>2026-09-02T22:09:16Z</time>
  <course>156.67</course>
  <speed>0.03</speed>
  <fix>3d</fix>
</trkpt>
<trkpt lat="33.8106152" lon="-118.3935716">
  <ele>-4.54</ele>
  <time>2026-09-02T22:09:16Z</time>
  <course>80.91</course>
  <speed>0.0</speed>
  <fix>3d</fix>
</trkpt>
<trkpt lat="33.810615" lon="-118.3935713">
  <ele>-5.232</ele>
  <time>2026-09-02T22:09:16Z</time>
  <course>156.68</course>
  <speed>0.03</speed>
  <fix>3d</fix>
</trkpt>
<trkpt lat="33.810615" lon="-118.3935713">
  <ele>-5.279</ele>
  <time>2026-09-02T22:09:16Z</time>
  <course>156.68</course>
  <speed>0.03</speed>
  <fix>3d</fix>
</trkpt>
<trkpt lat="33.8106152" lon="-118.3935716">
  <ele>-4.54</ele>
  <time>2026-09-02T22:09:16Z</time>
  <course>80.91</course>
  <speed>0.0</speed>
  <fix>3d</fix>
</trkpt>
<trkpt lat="33.810615" lon="-118.3935713">
  <ele>-5.304</ele>
  <time>2026-09-02T22:09:16Z</time>
  <course>156.69</course>
  <speed>0.03</speed>
  <fix>3d</fix>
</trkpt>
<trkpt lat="33.810615" lon="-118.3935713">
  <ele>-5.347</ele>
  <time>2026-09-02T22:09:16Z</time>
  <course>156.69</course>
  <speed>0.03</speed>
  <fix>3d</fix>
</trkpt>
<trkpt lat="33.8106152" lon="-118.3935716">
  <ele>-4.66</ele>
  <time>2026-09-02T22:09:16Z</time>
  <course>80.67</course>
  <speed>0.0</speed>
  <fix>3d</fix>
</trkpt>
<trkpt lat="33.810615" lon="-118.3935713">
  <ele>-5.369</ele>
  <time>2026-09-02T22:09:16Z</time>
  <course>156.7</course>
  <speed>0.03</speed>
  <fix>3d</fix>
</trkpt>
<trkpt lat="33.810615" lon="-118.3935713">
  <ele>-5.415</ele>
  <time>2026-09-02T22:09:16Z</time>
  <course>156.71</course>
  <speed>0.03</speed>
  <fix>3d</fix>
</trkpt>
<trkpt lat="33.8106152" lon="-118.3935716">
  <ele>-4.66</ele>
  <time>2026-09-02T22:09:16Z</time>
  <course>80.67</course>
  <speed>0.0</speed>
  <fix>3d</fix>
</trkpt>
<trkpt lat="33.810615" lon="-118.3935713">
  <ele>-5.438</ele>
  <time>2026-09-02T22:09:16Z</time>
  <course>156.71</course>
  <speed>0.03</speed>
  <fix>3d</fix>
</trkpt>
<trkpt lat="33.810615" lon="-118.3935713">
  <ele>-5.484</ele>
  <time>2026-09-02T22:09:16Z</time>
  <course>156.72</course>
  <speed>0.03</speed>
  <fix>3d</fix>
</trkpt>
<trkpt lat="33.8106152" lon="-118.3935716">
  <ele>-4.79</ele>
  <time>2026-09-02T22:09:16Z</time>
  <course>80.54</course>
  <speed>0.0</speed>
  <fix>3d</fix>
</trkpt>
<trkpt lat="33.810615" lon="-118.3935713">
  <ele>-5.488</ele>
  <time>2026-09-02T22:09:16Z</time>
  <course>156.72</course>
  <speed>0.03</speed>
  <fix>3d</fix>
</trkpt>
<trkpt lat="33.810615" lon="-118.3935713">
  <ele>-5.552</ele>
  <time>2026-09-02T22:09:16Z</time>
  <course>156.73</course>
  <speed>0.03</speed>
  <fix>3d</fix>
</trkpt>
<trkpt lat="33.8106152" lon="-118.3935716">
  <ele>-4.79</ele>
  <time>2026-09-02T22:09:16Z</time>
  <course>80.54</course>
  <speed>0.0</speed>
  <fix>3d</fix>
</trkpt>
<trkpt lat="33.810615" lon="-118.3935713">
  <ele>-5.554</ele>
  <time>2026-09-02T22:09:16Z</time>
  <course>156.73</course>
  <speed>0.03</speed>
  <fix>3d</fix>
</trkpt>
<trkpt lat="33.810615" lon="-118.3935713">
  <ele>-5.619</ele>
  <time>2026-09-02T22:09:16Z</time>
  <course>156.74</course>
  <speed>0.03</speed>
  <fix>3d</fix>
</trkpt>
<trkpt lat="33.8106152" lon="-118.3935715">
  <ele>-4.92</ele>
  <time>2026-09-02T22:09:16Z</time>
  <course>80.43</course>
  <speed>0.0</speed>
  <fix>3d</fix>
</trkpt>
<trkpt lat="33.810615" lon="-118.3935713">
  <ele>-5.683</ele>
  <time>2026-09-02T22:09:16Z</time>
  <course>156.75</course>
  <speed>0.03</speed>
  <fix>3d</fix>
</trkpt>
<trkpt lat="33.8106152" lon="-118.3935715">
  <ele>-4.92</ele>
  <time>2026-09-02T22:09:16Z</time>
  <course>80.43</course>
  <speed>0.0</speed>
  <fix>3d</fix>
</trkpt>
<trkpt lat="33.810615" lon="-118.3935713">
  <ele>-5.735</ele>
  <time>2026-09-02T22:09:16Z</time>
  <course>156.76</course>
  <speed>0.03</speed>
  <fix>3d</fix>
</trkpt>
<trkpt lat="33.8106152" lon="-118.3935715">
  <ele>-5.05</ele>
  <time>2026-09-02T22:09:16Z</time>
  <course>80.38</course>
  <speed>0.0</speed>
  <fix>3d</fix>
</trkpt>
<trkpt lat="33.810615" lon="-118.3935713">
  <ele>-5.774</ele>
  <time>2026-09-02T22:09:16Z</time>
  <course>156.77</course>
  <speed>0.03</speed>
  <fix>3d</fix>
</trkpt>
<trkpt lat="33.8106152" lon="-118.3935715">
  <ele>-5.05</ele>
  <time>2026-09-02T22:09:16Z</time>
  <course>80.38</course>
  <speed>0.0</speed>
  <fix>3d</fix>
</trkpt>
<trkpt lat="33.810615" lon="-118.3935713">
  <ele>-5.799</ele>
  <time>2026-09-02T22:09:16Z</time>
  <course>156.78</course>
  <speed>0.03</speed>
  <fix>3d</fix>
</trkpt>
<trkpt lat="33.8106152" lon="-118.3935715">
  <ele>-5.15</ele>
  <time>2026-09-02T22:09:16Z</time>
  <course>80.64</course>
  <speed>0.0</speed>
  <fix>3d</fix>
</trkpt>
<trkpt lat="33.8106151" lon="-118.3935713">
  <ele>-5.815</ele>
  <time>2026-09-02T22:09:16Z</time>
  <course>156.79</course>
  <speed>0.03</speed>
  <fix>3d</fix>
</trkpt>
<trkpt lat="33.8106152" lon="-118.3935715">
  <ele>-5.15</ele>
  <time>2026-09-02T22:09:16Z</time>
  <course>80.64</course>
  <speed>0.0</speed>
  <fix>3d</fix>
</trkpt>
<trkpt lat="33.8106151" lon="-118.3935713">
  <ele>-5.825</ele>
  <time>2026-09-02T22:09:16Z</time>
  <course>156.8</course>
  <speed>0.03</speed>
  <fix>3d</fix>
</trkpt>
<trkpt lat="33.8106152" lon="-118.3935715">
  <ele>-5.21</ele>
  <time>2026-09-02T22:09:16Z</time>
  <course>80.97</course>
  <speed>0.0</speed>
  <fix>3d</fix>
</trkpt>
<trkpt lat="33.8106151" lon="-118.3935713">
  <ele>-5.829</ele>
  <time>2026-09-02T22:09:16Z</time>
  <course>156.81</course>
  <speed>0.03</speed>
  <fix>3d</fix>
</trkpt>
<trkpt lat="33.8106152" lon="-118.3935715">
  <ele>-5.21</ele>
  <time>2026-09-02T22:09:16Z</time>
  <course>80.97</course>
  <speed>0.0</speed>
  <fix>3d</fix>
</trkpt>
<trkpt lat="33.8106151" lon="-118.3935713">
  <ele>-5.831</ele>
  <time>2026-09-02T22:09:16Z</time>
  <course>156.82</course>
  <speed>0.03</speed>
  <fix>3d</fix>
</trkpt>
<trkpt lat="33.8106152" lon="-118.3935715">
  <ele>-5.24</ele>
  <time>2026-09-02T22:09:16Z</time>
  <course>81.05</course>
  <speed>0.0</speed>
  <fix>3d</fix>
</trkpt>
<trkpt lat="33.8106151" lon="-118.3935713">
  <ele>-5.831</ele>
  <time>2026-09-02T22:09:16Z</time>
  <course>156.83</course>
  <speed>0.03</speed>
  <fix>3d</fix>
</trkpt>
<trkpt lat="33.8106152" lon="-118.3935715">
  <ele>-5.24</ele>
  <time>2026-09-02T22:09:16Z</time>
  <course>81.05</course>
  <speed>0.0</speed>
  <fix>3d</fix>
</trkpt>
<trkpt lat="33.8106151" lon="-118.3935713">
  <ele>-5.83</ele>
  <time>2026-09-02T22:09:16Z</time>
  <course>156.84</course>
  <speed>0.03</speed>
  <fix>3d</fix>
</trkpt>
<trkpt lat="33.8106152" lon="-118.3935715">
  <ele>-5.25</ele>
  <time>2026-09-02T22:09:16Z</time>
  <course>81.07</course>
  <speed>0.0</speed>
  <fix>3d</fix>
</trkpt>
<trkpt lat="33.8106151" lon="-118.3935713">
  <ele>-5.829</ele>
  <time>2026-09-02T22:09:16Z</time>
  <course>156.85</course>
  <speed>0.03</speed>
  <fix>3d</fix>
</trkpt>
<trkpt lat="33.8106152" lon="-118.3935715">
  <ele>-5.25</ele>
  <time>2026-09-02T22:09:16Z</time>
  <course>81.07</course>
  <speed>0.0</speed>
  <fix>3d</fix>
</trkpt>
<trkpt lat="33.8106151" lon="-118.3935713">
  <ele>-5.828</ele>
  <time>2026-09-02T22:09:16Z</time>
  <course>156.86</course>
  <speed>0.03</speed>
  <fix>3d</fix>
</trkpt>
<trkpt lat="33.8106152" lon="-118.3935715">
  <ele>-5.26</ele>
  <time>2026-09-02T22:09:16Z</time>
  <course>81.03</course>
  <speed>0.0</speed>
  <fix>3d</fix>
</trkpt>
<trkpt lat="33.8106151" lon="-118.3935712">
  <ele>-5.829</ele>
  <time>2026-09-02T22:09:16Z</time>
  <course>156.87</course>
  <speed>0.03</speed>
  <fix>3d</fix>
</trkpt>
<trkpt lat="33.8106152" lon="-118.3935715">
  <ele>-5.26</ele>
  <time>2026-09-02T22:09:16Z</time>
  <course>81.03</course>
  <speed>0.0</speed>
  <fix>3d</fix>
</trkpt>
<trkpt lat="33.8106151" lon="-118.3935712">
  <ele>-5.83</ele>
  <time>2026-09-02T22:09:16Z</time>
  <course>156.89</course>
  <speed>0.03</speed>
  <fix>3d</fix>
</trkpt>
<trkpt lat="33.8106152" lon="-118.3935715">
  <ele>-5.26</ele>
  <time>2026-09-02T22:09:16Z</time>
  <course>80.88</course>
  <speed>0.0</speed>
  <fix>3d</fix>
</trkpt>
<trkpt lat="33.8106151" lon="-118.3935712">
  <ele>-5.832</ele>
  <time>2026-09-02T22:09:16Z</time>
  <course>156.89</course>
  <speed>0.03</speed>
  <fix>3d</fix>
</trkpt>
<trkpt lat="33.8106152" lon="-118.3935715">
  <ele>-5.26</ele>
  <time>2026-09-02T22:09:16Z</time>
  <course>80.88</course>
  <speed>0.0</speed>
  <fix>3d</fix>
</trkpt>
<trkpt lat="33.8106151" lon="-118.3935712">
  <ele>-5.834</ele>
  <time>2026-09-02T22:09:16Z</time>
  <course>156.91</course>
  <speed>0.03</speed>
  <fix>3d</fix>
</trkpt>
<trkpt lat="33.8106152" lon="-118.3935714">
  <ele>-5.27</ele>
  <time>2026-09-02T22:09:16Z</time>
  <course>80.63</course>
  <speed>0.0</speed>
  <fix>3d</fix>
</trkpt>
<trkpt lat="33.8106151" lon="-118.3935712">
  <ele>-5.835</ele>
  <time>2026-09-02T22:09:16Z</time>
  <course>156.92</course>
  <speed>0.03</speed>
  <fix>3d</fix>
</trkpt>
<trkpt lat="33.8106152" lon="-118.3935714">
  <ele>-5.27</ele>
  <time>2026-09-02T22:09:16Z</time>
  <course>80.63</course>
  <speed>0.0</speed>
  <fix>3d</fix>
</trkpt>
<trkpt lat="33.8106151" lon="-118.3935712">
  <ele>-5.836</ele>
  <time>2026-09-02T22:09:16Z</time>
  <course>156.93</course>
  <speed>0.03</speed>
  <fix>3d</fix>
</trkpt>
<trkpt lat="33.8106152" lon="-118.3935714">
  <ele>-5.28</ele>
  <time>2026-09-02T22:09:16Z</time>
  <course>80.36</course>
  <speed>0.0</speed>
  <fix>3d</fix>
</trkpt>
<trkpt lat="33.8106151" lon="-118.3935712">
  <ele>-5.837</ele>
  <time>2026-09-02T22:09:16Z</time>
  <course>156.94</course>
  <speed>0.03</speed>
  <fix>3d</fix>
</trkpt>
<trkpt lat="33.8106152" lon="-118.3935714">
  <ele>-5.28</ele>
  <time>2026-09-02T22:09:16Z</time>
  <course>80.36</course>
  <speed>0.0</speed>
  <fix>3d</fix>
</trkpt>
<trkpt lat="33.8106151" lon="-118.3935712">
  <ele>-5.839</ele>
  <time>2026-09-02T22:09:17Z</time>
  <course>156.95</course>
  <speed>0.03</speed>
  <fix>3d</fix>
</trkpt>
<trkpt lat="33.8106152" lon="-118.3935714">
  <ele>-5.29</ele>
  <time>2026-09-02T22:09:17Z</time>
  <course>80.13</course>
  <speed>0.0</speed>
  <fix>3d</fix>
</trkpt>
<trkpt lat="33.8106151" lon="-118.3935712">
  <ele>-5.841</ele>
  <time>2026-09-02T22:09:17Z</time>
  <course>156.96</course>
  <speed>0.03</speed>
  <fix>3d</fix>
</trkpt>
<trkpt lat="33.8106152" lon="-118.3935714">
  <ele>-5.29</ele>
  <time>2026-09-02T22:09:17Z</time>
  <course>80.13</course>
  <speed>0.0</speed>
  <fix>3d</fix>
</trkpt>
<trkpt lat="33.8106151" lon="-118.3935712">
  <ele>-5.842</ele>
  <time>2026-09-02T22:09:17Z</time>
  <course>156.97</course>
  <speed>0.03</speed>
  <fix>3d</fix>
</trkpt>
<trkpt lat="33.8106152" lon="-118.3935714">
  <ele>-5.29</ele>
  <time>2026-09-02T22:09:17Z</time>
  <course>79.99</course>
  <speed>0.0</speed>
  <fix>3d</fix>
</trkpt>
<trkpt lat="33.8106151" lon="-118.3935712">
  <ele>-5.844</ele>
  <time>2026-09-02T22:09:17Z</time>
  <course>156.98</course>
  <speed>0.03</speed>
  <fix>3d</fix>
</trkpt>
<trkpt lat="33.8106152" lon="-118.3935714">
  <ele>-5.29</ele>
  <time>2026-09-02T22:09:17Z</time>
  <course>79.99</course>
  <speed>0.0</speed>
  <fix>3d</fix>
</trkpt>
<trkpt lat="33.8106151" lon="-118.3935712">
  <ele>-5.845</ele>
  <time>2026-09-02T22:09:17Z</time>
  <course>156.99</course>
  <speed>0.03</speed>
  <fix>3d</fix>
</trkpt>
<trkpt lat="33.8106152" lon="-118.3935714">
  <ele>-5.3</ele>
  <time>2026-09-02T22:09:17Z</time>
  <course>79.93</course>
  <speed>0.0</speed>
  <fix>3d</fix>
</trkpt>
<trkpt lat="33.8106151" lon="-118.3935712">
  <ele>-5.845</ele>
  <time>2026-09-02T22:09:17Z</time>
  <course>156.99</course>
  <speed>0.03</speed>
  <fix>3d</fix>
</trkpt>
<trkpt lat="33.8106152" lon="-118.3935714">
  <ele>-5.3</ele>
  <time>2026-09-02T22:09:17Z</time>
  <course>79.93</course>
  <speed>0.0</speed>
  <fix>3d</fix>
</trkpt>
<trkpt lat="33.8106151" lon="-118.3935712">
  <ele>-5.845</ele>
  <time>2026-09-02T22:09:17Z</time>
  <course>157.0</course>
  <speed>0.03</speed>
  <fix>3d</fix>
</trkpt>
<trkpt lat="33.8106152" lon="-118.3935714">
  <ele>-5.3</ele>
  <time>2026-09-02T22:09:17Z</time>
  <course>79.86</course>
  <speed>0.0</speed>
  <fix>3d</fix>
</trkpt>
<trkpt lat="33.8106151" lon="-118.3935712">
  <ele>-5.843</ele>
  <time>2026-09-02T22:09:17Z</time>
  <course>157.01</course>
  <speed>0.03</speed>
  <fix>3d</fix>
</trkpt>
<trkpt lat="33.8106152" lon="-118.3935714">
  <ele>-5.3</ele>
  <time>2026-09-02T22:09:17Z</time>
  <course>79.86</course>
  <speed>0.0</speed>
  <fix>3d</fix>
</trkpt>
<trkpt lat="33.8106151" lon="-118.3935712">
  <ele>-5.841</ele>
  <time>2026-09-02T22:09:17Z</time>
  <course>157.02</course>
  <speed>0.03</speed>
  <fix>3d</fix>
</trkpt>
<trkpt lat="33.8106152" lon="-118.3935714">
  <ele>-5.3</ele>
  <time>2026-09-02T22:09:17Z</time>
  <course>79.74</course>
  <speed>0.0</speed>
  <fix>3d</fix>
</trkpt>
<trkpt lat="33.8106151" lon="-118.3935711">
  <ele>-5.839</ele>
  <time>2026-09-02T22:09:17Z</time>
  <course>157.03</course>
  <speed>0.03</speed>
  <fix>3d</fix>
</trkpt>
<trkpt lat="33.8106152" lon="-118.3935714">
  <ele>-5.3</ele>
  <time>2026-09-02T22:09:17Z</time>
  <course>79.74</course>
  <speed>0.0</speed>
  <fix>3d</fix>
</trkpt>
<trkpt lat="33.8106151" lon="-118.3935711">
  <ele>-5.839</ele>
  <time>2026-09-02T22:09:17Z</time>
  <course>157.04</course>
  <speed>0.03</speed>
  <fix>3d</fix>
</trkpt>
<trkpt lat="33.8106152" lon="-118.3935714">
  <ele>-5.3</ele>
  <time>2026-09-02T22:09:17Z</time>
  <course>79.52</course>
  <speed>0.0</speed>
  <fix>3d</fix>
</trkpt>
<trkpt lat="33.8106151" lon="-118.3935711">
  <ele>-5.839</ele>
  <time>2026-09-02T22:09:17Z</time>
  <course>157.05</course>
  <speed>0.03</speed>
  <fix>3d</fix>
</trkpt>
<trkpt lat="33.8106152" lon="-118.3935714">
  <ele>-5.3</ele>
  <time>2026-09-02T22:09:17Z</time>
  <course>79.52</course>
  <speed>0.0</speed>
  <fix>3d</fix>
</trkpt>
<trkpt lat="33.8106151" lon="-118.3935711">
  <ele>-5.839</ele>
  <time>2026-09-02T22:09:17Z</time>
  <course>157.06</course>
  <speed>0.03</speed>
  <fix>3d</fix>
</trkpt>
<trkpt lat="33.8106152" lon="-118.3935713">
  <ele>-5.3</ele>
  <time>2026-09-02T22:09:17Z</time>
  <course>79.24</course>
  <speed>0.0</speed>
  <fix>3d</fix>
</trkpt>
<trkpt lat="33.8106151" lon="-118.3935711">
  <ele>-5.84</ele>
  <time>2026-09-02T22:09:17Z</time>
  <course>157.07</course>
  <speed>0.03</speed>
  <fix>3d</fix>
</trkpt>
<trkpt lat="33.8106152" lon="-118.3935713">
  <ele>-5.3</ele>
  <time>2026-09-02T22:09:17Z</time>
  <course>79.24</course>
  <speed>0.0</speed>
  <fix>3d</fix>
</trkpt>
<trkpt lat="33.8106151" lon="-118.3935711">
  <ele>-5.842</ele>
  <time>2026-09-02T22:09:17Z</time>
  <course>157.08</course>
  <speed>0.03</speed>
  <fix>3d</fix>
</trkpt>
<trkpt lat="33.8106152" lon="-118.3935713">
  <ele>-5.3</ele>
  <time>2026-09-02T22:09:17Z</time>
  <course>79.04</course>
  <speed>0.0</speed>
  <fix>3d</fix>
</trkpt>
<trkpt lat="33.8106151" lon="-118.3935711">
  <ele>-5.843</ele>
  <time>2026-09-02T22:09:17Z</time>
  <course>157.09</course>
  <speed>0.03</speed>
  <fix>3d</fix>
</trkpt>
<trkpt lat="33.8106152" lon="-118.3935713">
  <ele>-5.3</ele>
  <time>2026-09-02T22:09:17Z</time>
  <course>79.04</course>
  <speed>0.0</speed>
  <fix>3d</fix>
</trkpt>
<trkpt lat="33.8106151" lon="-118.3935711">
  <ele>-5.842</ele>
  <time>2026-09-02T22:09:17Z</time>
  <course>157.1</course>
  <speed>0.03</speed>
  <fix>3d</fix>
</trkpt>
<trkpt lat="33.8106152" lon="-118.3935713">
  <ele>-5.31</ele>
  <time>2026-09-02T22:09:17Z</time>
  <course>78.98</course>
  <speed>0.0</speed>
  <fix>3d</fix>
</trkpt>
<trkpt lat="33.8106151" lon="-118.3935711">
  <ele>-5.842</ele>
  <time>2026-09-02T22:09:17Z</time>
  <course>157.11</course>
  <speed>0.03</speed>
  <fix>3d</fix>
</trkpt>
<trkpt lat="33.8106152" lon="-118.3935713">
  <ele>-5.31</ele>
  <time>2026-09-02T22:09:17Z</time>
  <course>78.98</course>
  <speed>0.0</speed>
  <fix>3d</fix>
</trkpt>
<trkpt lat="33.8106151" lon="-118.3935711">
  <ele>-5.842</ele>
  <time>2026-09-02T22:09:17Z</time>
  <course>157.12</course>
  <speed>0.03</speed>
  <fix>3d</fix>
</trkpt>
<trkpt lat="33.8106152" lon="-118.3935713">
  <ele>-5.31</ele>
  <time>2026-09-02T22:09:17Z</time>
  <course>78.99</course>
  <speed>0.0</speed>
  <fix>3d</fix>
</trkpt>
<trkpt lat="33.8106151" lon="-118.3935711">
  <ele>-5.842</ele>
  <time>2026-09-02T22:09:17Z</time>
  <course>157.13</course>
  <speed>0.03</speed>
  <fix>3d</fix>
</trkpt>
<trkpt lat="33.8106152" lon="-118.3935713">
  <ele>-5.31</ele>
  <time>2026-09-02T22:09:17Z</time>
  <course>78.99</course>
  <speed>0.0</speed>
  <fix>3d</fix>
</trkpt>
<trkpt lat="33.8106151" lon="-118.3935711">
  <ele>-5.841</ele>
  <time>2026-09-02T22:09:17Z</time>
  <course>157.14</course>
  <speed>0.03</speed>
  <fix>3d</fix>
</trkpt>
<trkpt lat="33.8106152" lon="-118.3935713">
  <ele>-5.31</ele>
  <time>2026-09-02T22:09:17Z</time>
  <course>78.98</course>
  <speed>0.0</speed>
  <fix>3d</fix>
</trkpt>
<trkpt lat="33.8106151" lon="-118.3935711">
  <ele>-5.841</ele>
  <time>2026-09-02T22:09:17Z</time>
  <course>157.15</course>
  <speed>0.03</speed>
  <fix>3d</fix>
</trkpt>
<trkpt lat="33.8106152" lon="-118.3935713">
  <ele>-5.31</ele>
  <time>2026-09-02T22:09:17Z</time>
  <course>78.98</course>
  <speed>0.0</speed>
  <fix>3d</fix>
</trkpt>
<trkpt lat="33.8106151" lon="-118.3935711">
  <ele>-5.84</ele>
  <time>2026-09-02T22:09:17Z</time>
  <course>157.16</course>
  <speed>0.03</speed>
  <fix>3d</fix>
</trkpt>
<trkpt lat="33.8106152" lon="-118.3935713">
  <ele>-5.31</ele>
  <time>2026-09-02T22:09:17Z</time>
  <course>78.85</course>
  <speed>0.0</speed>
  <fix>3d</fix>
</trkpt>
<trkpt lat="33.8106151" lon="-118.3935711">
  <ele>-5.84</ele>
  <time>2026-09-02T22:09:17Z</time>
  <course>157.16</course>
  <speed>0.03</speed>
  <fix>3d</fix>
</trkpt>
<trkpt lat="33.8106152" lon="-118.3935713">
  <ele>-5.31</ele>
  <time>2026-09-02T22:09:17Z</time>
  <course>78.85</course>
  <speed>0.0</speed>
  <fix>3d</fix>
</trkpt>
<trkpt lat="33.8106151" lon="-118.393571">
  <ele>-5.84</ele>
  <time>2026-09-02T22:09:17Z</time>
  <course>157.17</course>
  <speed>0.03</speed>
  <fix>3d</fix>
</trkpt>
<trkpt lat="33.8106152" lon="-118.3935713">
  <ele>-5.31</ele>
  <time>2026-09-02T22:09:17Z</time>
  <course>78.62</course>
  <speed>0.0</speed>
  <fix>3d</fix>
</trkpt>
<trkpt lat="33.8106151" lon="-118.393571">
  <ele>-5.84</ele>
  <time>2026-09-02T22:09:17Z</time>
  <course>157.18</course>
  <speed>0.0316227766016838</speed>
  <fix>3d</fix>
</trkpt>
<trkpt lat="33.8106152" lon="-118.3935713">
  <ele>-5.31</ele>
  <time>2026-09-02T22:09:17Z</time>
  <course>78.62</course>
  <speed>0.0</speed>
  <fix>3d</fix>
</trkpt>
<trkpt lat="33.8106151" lon="-118.393571">
  <ele>-5.843</ele>
  <time>2026-09-02T22:09:17Z</time>
  <course>157.19</course>
  <speed>0.0316227766016838</speed>
  <fix>3d</fix>
</trkpt>
<trkpt lat="33.8106152" lon="-118.3935713">
  <ele>-5.32</ele>
  <time>2026-09-02T22:09:17Z</time>
  <course>78.43</course>
  <speed>0.0</speed>
  <fix>3d</fix>
</trkpt>
<trkpt lat="33.8106151" lon="-118.393571">
  <ele>-5.845</ele>
  <time>2026-09-02T22:09:17Z</time>
  <course>157.2</course>
  <speed>0.0316227766016838</speed>
  <fix>3d</fix>
</trkpt>
<trkpt lat="33.8106152" lon="-118.3935713">
  <ele>-5.32</ele>
  <time>2026-09-02T22:09:17Z</time>
  <course>78.43</course>
  <speed>0.0</speed>
  <fix>3d</fix>
</trkpt>
<trkpt lat="33.8106151" lon="-118.393571">
  <ele>-5.846</ele>
  <time>2026-09-02T22:09:17Z</time>
  <course>157.21</course>
  <speed>0.0316227766016838</speed>
  <fix>3d</fix>
</trkpt>
<trkpt lat="33.8106152" lon="-118.3935712">
  <ele>-5.32</ele>
  <time>2026-09-02T22:09:17Z</time>
  <course>78.38</course>
  <speed>0.0</speed>
  <fix>3d</fix>
</trkpt>
<trkpt lat="33.8106151" lon="-118.393571">
  <ele>-5.847</ele>
  <time>2026-09-02T22:09:17Z</time>
  <course>157.22</course>
  <speed>0.0316227766016838</speed>
  <fix>3d</fix>
</trkpt>
<trkpt lat="33.8106152" lon="-118.3935712">
  <ele>-5.32</ele>
  <time>2026-09-02T22:09:17Z</time>
  <course>78.38</course>
  <speed>0.0</speed>
  <fix>3d</fix>
</trkpt>
<trkpt lat="33.8106151" lon="-118.393571">
  <ele>-5.848</ele>
  <time>2026-09-02T22:09:17Z</time>
  <course>157.23</course>
  <speed>0.0316227766016838</speed>
  <fix>3d</fix>
</trkpt>
<trkpt lat="33.8106152" lon="-118.3935712">
  <ele>-5.32</ele>
  <time>2026-09-02T22:09:17Z</time>
  <course>78.4</course>
  <speed>0.0</speed>
  <fix>3d</fix>
</trkpt>
<trkpt lat="33.8106151" lon="-118.393571">
  <ele>-5.849</ele>
  <time>2026-09-02T22:09:17Z</time>
  <course>157.24</course>
  <speed>0.0316227766016838</speed>
  <fix>3d</fix>
</trkpt>
<trkpt lat="33.8106152" lon="-118.3935712">
  <ele>-5.32</ele>
  <time>2026-09-02T22:09:17Z</time>
  <course>78.4</course>
  <speed>0.0</speed>
  <fix>3d</fix>
</trkpt>
<trkpt lat="33.8106151" lon="-118.393571">
  <ele>-5.848</ele>
  <time>2026-09-02T22:09:17Z</time>
  <course>157.25</course>
  <speed>0.0316227766016838</speed>
  <fix>3d</fix>
</trkpt>
<trkpt lat="33.8106152" lon="-118.3935712">
  <ele>-5.32</ele>
  <time>2026-09-02T22:09:17Z</time>
  <course>78.4</course>
  <speed>0.0</speed>
  <fix>3d</fix>
</trkpt>
<trkpt lat="33.8106151" lon="-118.393571">
  <ele>-5.847</ele>
  <time>2026-09-02T22:09:17Z</time>
  <course>157.26</course>
  <speed>0.0316227766016838</speed>
  <fix>3d</fix>
</trkpt>
<trkpt lat="33.8106152" lon="-118.3935712">
  <ele>-5.32</ele>
  <time>2026-09-02T22:09:17Z</time>
  <course>78.4</course>
  <speed>0.0</speed>
  <fix>3d</fix>
</trkpt>
<trkpt lat="33.8106151" lon="-118.393571">
  <ele>-5.845</ele>
  <time>2026-09-02T22:09:17Z</time>
  <course>157.27</course>
  <speed>0.0316227766016838</speed>
  <fix>3d</fix>
</trkpt>
<trkpt lat="33.8106152" lon="-118.3935712">
  <ele>-5.31</ele>
  <time>2026-09-02T22:09:17Z</time>
  <course>78.36</course>
  <speed>0.0</speed>
  <fix>3d</fix>
</trkpt>
<trkpt lat="33.8106151" lon="-118.393571">
  <ele>-5.836</ele>
  <time>2026-09-02T22:09:17Z</time>
  <course>157.3</course>
  <speed>0.0316227766016838</speed>
  <fix>3d</fix>
</trkpt>
<trkpt lat="33.8106152" lon="-118.3935712">
  <ele>-5.31</ele>
  <time>2026-09-02T22:09:17Z</time>
  <course>78.36</course>
  <speed>0.0</speed>
  <fix>3d</fix>
</trkpt>
<trkpt lat="33.8106151" lon="-118.393571">
  <ele>-5.822</ele>
  <time>2026-09-02T22:09:17Z</time>
  <course>157.33</course>
  <speed>0.0316227766016838</speed>
  <fix>3d</fix>
</trkpt>
<trkpt lat="33.8106152" lon="-118.3935712">
  <ele>-5.3</ele>
  <time>2026-09-02T22:09:17Z</time>
  <course>78.36</course>
  <speed>0.0</speed>
  <fix>3d</fix>
</trkpt>
<trkpt lat="33.8106151" lon="-118.393571">
  <ele>-5.803</ele>
  <time>2026-09-02T22:09:17Z</time>
  <course>157.36</course>
  <speed>0.0316227766016838</speed>
  <fix>3d</fix>
</trkpt>
<trkpt lat="33.8106152" lon="-118.3935712">
  <ele>-5.3</ele>
  <time>2026-09-02T22:09:17Z</time>
  <course>78.36</course>
  <speed>0.0</speed>
  <fix>3d</fix>
</trkpt>
<trkpt lat="33.8106151" lon="-118.393571">
  <ele>-5.78</ele>
  <time>2026-09-02T22:09:17Z</time>
  <course>157.39</course>
  <speed>0.0316227766016838</speed>
  <fix>3d</fix>
</trkpt>
<trkpt lat="33.8106152" lon="-118.3935712">
  <ele>-5.28</ele>
  <time>2026-09-02T22:09:17Z</time>
  <course>78.39</course>
  <speed>0.0</speed>
  <fix>3d</fix>
</trkpt>
<trkpt lat="33.8106151" lon="-118.3935709">
  <ele>-5.754</ele>
  <time>2026-09-02T22:09:17Z</time>
  <course>157.41</course>
  <speed>0.0316227766016838</speed>
  <fix>3d</fix>
</trkpt>
<trkpt lat="33.8106152" lon="-118.3935712">
  <ele>-5.28</ele>
  <time>2026-09-02T22:09:17Z</time>
  <course>78.39</course>
  <speed>0.0</speed>
  <fix>3d</fix>
</trkpt>
<trkpt lat="33.8106151" lon="-118.3935709">
  <ele>-5.727</ele>
  <time>2026-09-02T22:09:17Z</time>
  <course>157.43</course>
  <speed>0.0316227766016838</speed>
  <fix>3d</fix>
</trkpt>
<trkpt lat="33.8106152" lon="-118.3935712">
  <ele>-5.23</ele>
  <time>2026-09-02T22:09:17Z</time>
  <course>78.45</course>
  <speed>0.0</speed>
  <fix>3d</fix>
</trkpt>
<trkpt lat="33.8106151" lon="-118.3935709">
  <ele>-5.698</ele>
  <time>2026-09-02T22:09:17Z</time>
  <course>157.45</course>
  <speed>0.0316227766016838</speed>
  <fix>3d</fix>
</trkpt>
<trkpt lat="33.8106152" lon="-118.3935712">
  <ele>-5.23</ele>
  <time>2026-09-02T22:09:17Z</time>
  <course>78.45</course>
  <speed>0.0</speed>
  <fix>3d</fix>
</trkpt>
<trkpt lat="33.8106151" lon="-118.3935709">
  <ele>-5.668</ele>
  <time>2026-09-02T22:09:17Z</time>
  <course>157.46</course>
  <speed>0.0316227766016838</speed>
  <fix>3d</fix>
</trkpt>
<trkpt lat="33.8106152" lon="-118.3935711">
  <ele>-5.18</ele>
  <time>2026-09-02T22:09:17Z</time>
  <course>78.62</course>
  <speed>0.0</speed>
  <fix>3d</fix>
</trkpt>
<trkpt lat="33.8106151" lon="-118.3935709">
  <ele>-5.638</ele>
  <time>2026-09-02T22:09:17Z</time>
  <course>157.48</course>
  <speed>0.0316227766016838</speed>
  <fix>3d</fix>
</trkpt>
<trkpt lat="33.8106152" lon="-118.3935711">
  <ele>-5.18</ele>
  <time>2026-09-02T22:09:17Z</time>
  <course>78.62</course>
  <speed>0.0</speed>
  <fix>3d</fix>
</trkpt>
<trkpt lat="33.8106151" lon="-118.3935709">
  <ele>-5.606</ele>
  <time>2026-09-02T22:09:17Z</time>
  <course>157.49</course>
  <speed>0.0316227766016838</speed>
  <fix>3d</fix>
</trkpt>
<trkpt lat="33.8106152" lon="-118.3935711">
  <ele>-5.13</ele>
  <time>2026-09-02T22:09:17Z</time>
  <course>78.86</course>
  <speed>0.0</speed>
  <fix>3d</fix>
</trkpt>
<trkpt lat="33.8106151" lon="-118.3935709">
  <ele>-5.576</ele>
  <time>2026-09-02T22:09:17Z</time>
  <course>157.51</course>
  <speed>0.0316227766016838</speed>
  <fix>3d</fix>
</trkpt>
<trkpt lat="33.8106152" lon="-118.3935711">
  <ele>-5.13</ele>
  <time>2026-09-02T22:09:17Z</time>
  <course>78.86</course>
  <speed>0.0</speed>
  <fix>3d</fix>
</trkpt>
<trkpt lat="33.8106151" lon="-118.3935709">
  <ele>-5.544</ele>
  <time>2026-09-02T22:09:17Z</time>
  <course>157.52</course>
  <speed>0.0316227766016838</speed>
  <fix>3d</fix>
</trkpt>
<trkpt lat="33.8106152" lon="-118.3935711">
  <ele>-5.06</ele>
  <time>2026-09-02T22:09:17Z</time>
  <course>79.01</course>
  <speed>0.0</speed>
  <fix>3d</fix>
</trkpt>
<trkpt lat="33.8106151" lon="-118.3935709">
  <ele>-5.513</ele>
  <time>2026-09-02T22:09:17Z</time>
  <course>157.54</course>
  <speed>0.0316227766016838</speed>
  <fix>3d</fix>
</trkpt>
<trkpt lat="33.8106152" lon="-118.3935711">
  <ele>-5.06</ele>
  <time>2026-09-02T22:09:17Z</time>
  <course>79.01</course>
  <speed>0.0</speed>
  <fix>3d</fix>
</trkpt>
<trkpt lat="33.8106151" lon="-118.3935709">
  <ele>-5.481</ele>
  <time>2026-09-02T22:09:17Z</time>
  <course>157.55</course>
  <speed>0.0316227766016838</speed>
  <fix>3d</fix>
</trkpt>
<trkpt lat="33.8106152" lon="-118.3935711">
  <ele>-5.01</ele>
  <time>2026-09-02T22:09:17Z</time>
  <course>78.98</course>
  <speed>0.0</speed>
  <fix>3d</fix>
</trkpt>
<trkpt lat="33.8106151" lon="-118.3935709">
  <ele>-5.45</ele>
  <time>2026-09-02T22:09:17Z</time>
  <course>157.56</course>
  <speed>0.0316227766016838</speed>
  <fix>3d</fix>
</trkpt>
<trkpt lat="33.8106152" lon="-118.3935711">
  <ele>-5.01</ele>
  <time>2026-09-02T22:09:17Z</time>
  <course>78.98</course>
  <speed>0.0</speed>
  <fix>3d</fix>
</trkpt>
<trkpt lat="33.8106151" lon="-118.3935709">
  <ele>-5.418</ele>
  <time>2026-09-02T22:09:17Z</time>
  <course>157.57</course>
  <speed>0.0316227766016838</speed>
  <fix>3d</fix>
</trkpt>
<trkpt lat="33.8106152" lon="-118.3935711">
  <ele>-4.95</ele>
  <time>2026-09-02T22:09:17Z</time>
  <course>78.85</course>
  <speed>0.0</speed>
  <fix>3d</fix>
</trkpt>
<trkpt lat="33.8106151" lon="-118.3935708">
  <ele>-5.386</ele>
  <time>2026-09-02T22:09:17Z</time>
  <course>157.58</course>
  <speed>0.0316227766016838</speed>
  <fix>3d</fix>
</trkpt>
<trkpt lat="33.8106152" lon="-118.3935711">
  <ele>-4.95</ele>
  <time>2026-09-02T22:09:17Z</time>
  <course>78.85</course>
  <speed>0.0</speed>
  <fix>3d</fix>
</trkpt>
<trkpt lat="33.8106151" lon="-118.3935708">
  <ele>-5.354</ele>
  <time>2026-09-02T22:09:17Z</time>
  <course>157.59</course>
  <speed>0.0316227766016838</speed>
  <fix>3d</fix>
</trkpt>
<trkpt lat="33.8106152" lon="-118.3935711">
  <ele>-4.89</ele>
  <time>2026-09-02T22:09:17Z</time>
  <course>78.78</course>
  <speed>0.0</speed>
  <fix>3d</fix>
</trkpt>
<trkpt lat="33.8106151" lon="-118.3935708">
  <ele>-5.322</ele>
  <time>2026-09-02T22:09:17Z</time>
  <course>157.6</course>
  <speed>0.0316227766016838</speed>
  <fix>3d</fix>
</trkpt>
<trkpt lat="33.8106152" lon="-118.3935711">
  <ele>-4.89</ele>
  <time>2026-09-02T22:09:17Z</time>
  <course>78.78</course>
  <speed>0.0</speed>
  <fix>3d</fix>
</trkpt>
<trkpt lat="33.8106151" lon="-118.3935708">
  <ele>-5.29</ele>
  <time>2026-09-02T22:09:17Z</time>
  <course>157.61</course>
  <speed>0.0316227766016838</speed>
  <fix>3d</fix>
</trkpt>
<trkpt lat="33.8106152" lon="-118.3935711">
  <ele>-4.83</ele>
  <time>2026-09-02T22:09:17Z</time>
  <course>78.88</course>
  <speed>0.0</speed>
  <fix>3d</fix>
</trkpt>
<trkpt lat="33.8106151" lon="-118.3935708">
  <ele>-5.259</ele>
  <time>2026-09-02T22:09:17Z</time>
  <course>157.62</course>
  <speed>0.0316227766016838</speed>
  <fix>3d</fix>
</trkpt>
<trkpt lat="33.8106152" lon="-118.3935711">
  <ele>-4.83</ele>
  <time>2026-09-02T22:09:17Z</time>
  <course>78.88</course>
  <speed>0.0</speed>
  <fix>3d</fix>
</trkpt>
<trkpt lat="33.8106151" lon="-118.3935708">
  <ele>-5.228</ele>
  <time>2026-09-02T22:09:17Z</time>
  <course>157.63</course>
  <speed>0.0316227766016838</speed>
  <fix>3d</fix>
</trkpt>
<trkpt lat="33.8106152" lon="-118.3935711">
  <ele>-4.77</ele>
  <time>2026-09-02T22:09:17Z</time>
  <course>79.12</course>
  <speed>0.0</speed>
  <fix>3d</fix>
</trkpt>
<trkpt lat="33.8106151" lon="-118.3935708">
  <ele>-5.197</ele>
  <time>2026-09-02T22:09:17Z</time>
  <course>157.64</course>
  <speed>0.0316227766016838</speed>
  <fix>3d</fix>
</trkpt>
<trkpt lat="33.8106152" lon="-118.3935711">
  <ele>-4.77</ele>
  <time>2026-09-02T22:09:17Z</time>
  <course>79.12</course>
  <speed>0.0</speed>
  <fix>3d</fix>
</trkpt>
<trkpt lat="33.8106151" lon="-118.3935708">
  <ele>-5.167</ele>
  <time>2026-09-02T22:09:17Z</time>
  <course>157.65</course>
  <speed>0.0316227766016838</speed>
  <fix>3d</fix>
</trkpt>
<trkpt lat="33.8106152" lon="-118.393571">
  <ele>-4.71</ele>
  <time>2026-09-02T22:09:17Z</time>
  <course>79.37</course>
  <speed>0.0</speed>
  <fix>3d</fix>
</trkpt>
<trkpt lat="33.8106151" lon="-118.3935708">
  <ele>-5.137</ele>
  <time>2026-09-02T22:09:17Z</time>
  <course>157.66</course>
  <speed>0.0316227766016838</speed>
  <fix>3d</fix>
</trkpt>
<trkpt lat="33.8106152" lon="-118.393571">
  <ele>-4.71</ele>
  <time>2026-09-02T22:09:17Z</time>
  <course>79.37</course>
  <speed>0.0</speed>
  <fix>3d</fix>
</trkpt>
<trkpt lat="33.8106151" lon="-118.3935708">
  <ele>-5.107</ele>
  <time>2026-09-02T22:09:17Z</time>
  <course>157.67</course>
  <speed>0.0316227766016838</speed>
  <fix>3d</fix>
</trkpt>
<trkpt lat="33.8106152" lon="-118.393571">
  <ele>-4.64</ele>
  <time>2026-09-02T22:09:17Z</time>
  <course>79.46</course>
  <speed>0.0</speed>
  <fix>3d</fix>
</trkpt>
<trkpt lat="33.8106151" lon="-118.3935708">
  <ele>-5.076</ele>
  <time>2026-09-02T22:09:17Z</time>
  <course>157.67</course>
  <speed>0.0316227766016838</speed>
  <fix>3d</fix>
</trkpt>
<trkpt lat="33.8106152" lon="-118.393571">
  <ele>-4.64</ele>
  <time>2026-09-02T22:09:17Z</time>
  <course>79.46</course>
  <speed>0.0</speed>
  <fix>3d</fix>
</trkpt>
<trkpt lat="33.8106151" lon="-118.3935708">
  <ele>-5.045</ele>
  <time>2026-09-02T22:09:17Z</time>
  <course>157.68</course>
  <speed>0.0316227766016838</speed>
  <fix>3d</fix>
</trkpt>
<trkpt lat="33.8106152" lon="-118.393571">
  <ele>-4.59</ele>
  <time>2026-09-02T22:09:17Z</time>
  <course>79.38</course>
  <speed>0.0</speed>
  <fix>3d</fix>
</trkpt>
<trkpt lat="33.8106151" lon="-118.3935708">
  <ele>-5.014</ele>
  <time>2026-09-02T22:09:17Z</time>
  <course>157.69</course>
  <speed>0.0316227766016838</speed>
  <fix>3d</fix>
</trkpt>
<trkpt lat="33.8106152" lon="-118.393571">
  <ele>-4.59</ele>
  <time>2026-09-02T22:09:17Z</time>
  <course>79.38</course>
  <speed>0.0</speed>
  <fix>3d</fix>
</trkpt>
<trkpt lat="33.8106151" lon="-118.3935708">
  <ele>-4.983</ele>
  <time>2026-09-02T22:09:17Z</time>
  <course>157.7</course>
  <speed>0.0316227766016838</speed>
  <fix>3d</fix>
</trkpt>
<trkpt lat="33.8106152" lon="-118.393571">
  <ele>-4.52</ele>
  <time>2026-09-02T22:09:17Z</time>
  <course>79.24</course>
  <speed>0.0</speed>
  <fix>3d</fix>
</trkpt>
<trkpt lat="33.8106151" lon="-118.3935708">
  <ele>-4.952</ele>
  <time>2026-09-02T22:09:17Z</time>
  <course>157.71</course>
  <speed>0.0316227766016838</speed>
  <fix>3d</fix>
</trkpt>
<trkpt lat="33.8106152" lon="-118.393571">
  <ele>-4.52</ele>
  <time>2026-09-02T22:09:17Z</time>
  <course>79.24</course>
  <speed>0.0</speed>
  <fix>3d</fix>
</trkpt>
<trkpt lat="33.8106151" lon="-118.3935708">
  <ele>-4.921</ele>
  <time>2026-09-02T22:09:17Z</time>
  <course>157.71</course>
  <speed>0.0316227766016838</speed>
  <fix>3d</fix>
</trkpt>
<trkpt lat="33.8106152" lon="-118.393571">
  <ele>-4.47</ele>
  <time>2026-09-02T22:09:17Z</time>
  <course>79.21</course>
  <speed>0.0</speed>
  <fix>3d</fix>
</trkpt>
<trkpt lat="33.8106151" lon="-118.3935708">
  <ele>-4.889</ele>
  <time>2026-09-02T22:09:17Z</time>
  <course>157.72</course>
  <speed>0.0316227766016838</speed>
  <fix>3d</fix>
</trkpt>
<trkpt lat="33.8106152" lon="-118.393571">
  <ele>-4.47</ele>
  <time>2026-09-02T22:09:17Z</time>
  <course>79.21</course>
  <speed>0.0</speed>
  <fix>3d</fix>
</trkpt>
<trkpt lat="33.8106151" lon="-118.3935708">
  <ele>-4.857</ele>
  <time>2026-09-02T22:09:17Z</time>
  <course>157.73</course>
  <speed>0.0316227766016838</speed>
  <fix>3d</fix>
</trkpt>
<trkpt lat="33.8106152" lon="-118.393571">
  <ele>-4.41</ele>
  <time>2026-09-02T22:09:17Z</time>
  <course>79.38</course>
  <speed>0.0</speed>
  <fix>3d</fix>
</trkpt>
<trkpt lat="33.8106151" lon="-118.3935708">
  <ele>-4.826</ele>
  <time>2026-09-02T22:09:17Z</time>
  <course>157.74</course>
  <speed>0.0316227766016838</speed>
  <fix>3d</fix>
</trkpt>
<trkpt lat="33.8106152" lon="-118.393571">
  <ele>-4.41</ele>
  <time>2026-09-02T22:09:17Z</time>
  <course>79.38</course>
  <speed>0.0</speed>
  <fix>3d</fix>
</trkpt>
<trkpt lat="33.8106151" lon="-118.3935708">
  <ele>-4.796</ele>
  <time>2026-09-02T22:09:17Z</time>
  <course>157.75</course>
  <speed>0.0316227766016838</speed>
  <fix>3d</fix>
</trkpt>
<trkpt lat="33.8106152" lon="-118.393571">
  <ele>-4.35</ele>
  <time>2026-09-02T22:09:17Z</time>
  <course>79.65</course>
  <speed>0.0</speed>
  <fix>3d</fix>
</trkpt>
<trkpt lat="33.8106151" lon="-118.3935708">
  <ele>-4.765</ele>
  <time>2026-09-02T22:09:17Z</time>
  <course>157.75</course>
  <speed>0.0316227766016838</speed>
  <fix>3d</fix>
</trkpt>
<trkpt lat="33.8106152" lon="-118.393571">
  <ele>-4.35</ele>
  <time>2026-09-02T22:09:17Z</time>
  <course>79.65</course>
  <speed>0.0</speed>
  <fix>3d</fix>
</trkpt>
<trkpt lat="33.8106151" lon="-118.3935708">
  <ele>-4.735</ele>
  <time>2026-09-02T22:09:17Z</time>
  <course>157.76</course>
  <speed>0.0316227766016838</speed>
  <fix>3d</fix>
</trkpt>
<trkpt lat="33.8106152" lon="-118.393571">
  <ele>-4.29</ele>
  <time>2026-09-02T22:09:17Z</time>
  <course>79.86</course>
  <speed>0.0</speed>
  <fix>3d</fix>
</trkpt>
<trkpt lat="33.8106151" lon="-118.3935707">
  <ele>-4.705</ele>
  <time>2026-09-02T22:09:17Z</time>
  <course>157.77</course>
  <speed>0.0316227766016838</speed>
  <fix>3d</fix>
</trkpt>
<trkpt lat="33.8106152" lon="-118.393571">
  <ele>-4.29</ele>
  <time>2026-09-02T22:09:17Z</time>
  <course>79.86</course>
  <speed>0.0</speed>
  <fix>3d</fix>
</trkpt>
<trkpt lat="33.8106151" lon="-118.3935707">
  <ele>-4.675</ele>
  <time>2026-09-02T22:09:17Z</time>
  <course>157.77</course>
  <speed>0.022360679774997897</speed>
  <fix>3d</fix>
</trkpt>
<trkpt lat="33.8106152" lon="-118.3935709">
  <ele>-4.23</ele>
  <time>2026-09-02T22:09:17Z</time>
  <course>79.88</course>
  <speed>0.0</speed>
  <fix>3d</fix>
</trkpt>
<trkpt lat="33.8106151" lon="-118.3935707">
  <ele>-4.665</ele>
  <time>2026-09-02T22:09:17Z</time>
  <course>157.78</course>
  <speed>0.022360679774997897</speed>
  <fix>3d</fix>
</trkpt>
<trkpt lat="33.8106152" lon="-118.3935709">
  <ele>-4.23</ele>
  <time>2026-09-02T22:09:17Z</time>
  <course>79.88</course>
  <speed>0.0</speed>
  <fix>3d</fix>
</trkpt>
<trkpt lat="33.8106151" lon="-118.3935707">
  <ele>-4.672</ele>
  <time>2026-09-02T22:09:17Z</time>
  <course>157.79</course>
  <speed>0.022360679774997897</speed>
  <fix>3d</fix>
</trkpt>
<trkpt lat="33.8106152" lon="-118.3935709">
  <ele>-4.18</ele>
  <time>2026-09-02T22:09:17Z</time>
  <course>79.39</course>
  <speed>0.0</speed>
  <fix>3d</fix>
</trkpt>
<trkpt lat="33.8106151" lon="-118.3935707">
  <ele>-4.684</ele>
  <time>2026-09-02T22:09:17Z</time>
  <course>157.79</course>
  <speed>0.0316227766016838</speed>
  <fix>3d</fix>
</trkpt>
<trkpt lat="33.8106152" lon="-118.3935709">
  <ele>-4.18</ele>
  <time>2026-09-02T22:09:17Z</time>
  <course>79.39</course>
  <speed>0.0</speed>
  <fix>3d</fix>
</trkpt>
<trkpt lat="33.8106151" lon="-118.3935707">
  <ele>-4.695</ele>
  <time>2026-09-02T22:09:17Z</time>
  <course>157.8</course>
  <speed>0.0316227766016838</speed>
  <fix>3d</fix>
</trkpt>
<trkpt lat="33.8106152" lon="-118.3935709">
  <ele>-4.18</ele>
  <time>2026-09-02T22:09:17Z</time>
  <course>78.77</course>
  <speed>0.0</speed>
  <fix>3d</fix>
</trkpt>
<trkpt lat="33.8106151" lon="-118.3935707">
  <ele>-4.695</ele>
  <time>2026-09-02T22:09:17Z</time>
  <course>157.8</course>
  <speed>0.0316227766016838</speed>
  <fix>3d</fix>
</trkpt>
<trkpt lat="33.8106151" lon="-118.3935707">
  <ele>-4.705</ele>
  <time>2026-09-02T22:09:17Z</time>
  <course>157.81</course>
  <speed>0.0316227766016838</speed>
  <fix>3d</fix>
</trkpt>
<trkpt lat="33.8106152" lon="-118.3935709">
  <ele>-4.18</ele>
  <time>2026-09-02T22:09:17Z</time>
  <course>78.77</course>
  <speed>0.0</speed>
  <fix>3d</fix>
</trkpt>
<trkpt lat="33.8106151" lon="-118.3935707">
  <ele>-4.715</ele>
  <time>2026-09-02T22:09:17Z</time>
  <course>157.81</course>
  <speed>0.0316227766016838</speed>
  <fix>3d</fix>
</trkpt>
<trkpt lat="33.8106152" lon="-118.3935709">
  <ele>-4.19</ele>
  <time>2026-09-02T22:09:17Z</time>
  <course>78.57</course>
  <speed>0.0</speed>
  <fix>3d</fix>
</trkpt>
<trkpt lat="33.8106151" lon="-118.3935707">
  <ele>-4.733</ele>
  <time>2026-09-02T22:09:17Z</time>
  <course>157.82</course>
  <speed>0.0316227766016838</speed>
  <fix>3d</fix>
</trkpt>
<trkpt lat="33.8106152" lon="-118.3935709">
  <ele>-4.19</ele>
  <time>2026-09-02T22:09:17Z</time>
  <course>78.57</course>
  <speed>0.0</speed>
  <fix>3d</fix>
</trkpt>
<trkpt lat="33.8106151" lon="-118.3935707">
  <ele>-4.767</ele>
  <time>2026-09-02T22:09:17Z</time>
  <course>157.83</course>
  <speed>0.0316227766016838</speed>
  <fix>3d</fix>
</trkpt>
<trkpt lat="33.8106152" lon="-118.3935709">
  <ele>-4.21</ele>
  <time>2026-09-02T22:09:17Z</time>
  <course>78.52</course>
  <speed>0.0</speed>
  <fix>3d</fix>
</trkpt>
<trkpt lat="33.8106151" lon="-118.3935707">
  <ele>-4.768</ele>
  <time>2026-09-02T22:09:17Z</time>
  <course>157.83</course>
  <speed>0.0316227766016838</speed>
  <fix>3d</fix>
</trkpt>
<trkpt lat="33.8106151" lon="-118.3935707">
  <ele>-4.82</ele>
  <time>2026-09-02T22:09:17Z</time>
  <course>157.83</course>
  <speed>0.0316227766016838</speed>
  <fix>3d</fix>
</trkpt>
<trkpt lat="33.8106152" lon="-118.3935709">
  <ele>-4.21</ele>
  <time>2026-09-02T22:09:17Z</time>
  <course>78.52</course>
  <speed>0.0</speed>
  <fix>3d</fix>
</trkpt>
<trkpt lat="33.8106151" lon="-118.3935707">
  <ele>-4.822</ele>
  <time>2026-09-02T22:09:17Z</time>
  <course>157.83</course>
  <speed>0.0316227766016838</speed>
  <fix>3d</fix>
</trkpt>
<trkpt lat="33.8106151" lon="-118.3935707">
  <ele>-4.887</ele>
  <time>2026-09-02T22:09:17Z</time>
  <course>157.84</course>
  <speed>0.0316227766016838</speed>
  <fix>3d</fix>
</trkpt>
<trkpt lat="33.8106152" lon="-118.3935709">
  <ele>-4.27</ele>
  <time>2026-09-02T22:09:17Z</time>
  <course>78.45</course>
  <speed>0.0</speed>
  <fix>3d</fix>
</trkpt>
<trkpt lat="33.8106151" lon="-118.3935707">
  <ele>-4.888</ele>
  <time>2026-09-02T22:09:17Z</time>
  <course>157.84</course>
  <speed>0.0316227766016838</speed>
  <fix>3d</fix>
</trkpt>
<trkpt lat="33.8106151" lon="-118.3935707">
  <ele>-4.966</ele>
  <time>2026-09-02T22:09:17Z</time>
  <course>157.85</course>
  <speed>0.03</speed>
  <fix>3d</fix>
</trkpt>
<trkpt lat="33.8106152" lon="-118.3935709">
  <ele>-4.27</ele>
  <time>2026-09-02T22:09:17Z</time>
  <course>78.45</course>
  <speed>0.0</speed>
  <fix>3d</fix>
</trkpt>
<trkpt lat="33.8106151" lon="-118.3935707">
  <ele>-4.992</ele>
  <time>2026-09-02T22:09:17Z</time>
  <course>157.85</course>
  <speed>0.03</speed>
  <fix>3d</fix>
</trkpt>
<trkpt lat="33.8106151" lon="-118.3935707">
  <ele>-5.052</ele>
  <time>2026-09-02T22:09:17Z</time>
  <course>157.85</course>
  <speed>0.03</speed>
  <fix>3d</fix>
</trkpt>
<trkpt lat="33.8106152" lon="-118.3935709">
  <ele>-4.39</ele>
  <time>2026-09-02T22:09:17Z</time>
  <course>78.3</course>
  <speed>0.0</speed>
  <fix>3d</fix>
</trkpt>
<trkpt lat="33.8106151" lon="-118.3935707">
  <ele>-5.079</ele>
  <time>2026-09-02T22:09:17Z</time>
  <course>157.86</course>
  <speed>0.03</speed>
  <fix>3d</fix>
</trkpt>
<trkpt lat="33.8106151" lon="-118.3935707">
  <ele>-5.142</ele>
  <time>2026-09-02T22:09:17Z</time>
  <course>157.86</course>
  <speed>0.03</speed>
  <fix>3d</fix>
</trkpt>
<trkpt lat="33.8106152" lon="-118.3935709">
  <ele>-4.39</ele>
  <time>2026-09-02T22:09:17Z</time>
  <course>78.3</course>
  <speed>0.0</speed>
  <fix>3d</fix>
</trkpt>
<trkpt lat="33.8106151" lon="-118.3935707">
  <ele>-5.234</ele>
  <time>2026-09-02T22:09:17Z</time>
  <course>157.87</course>
  <speed>0.03</speed>
  <fix>3d</fix>
</trkpt>
<trkpt lat="33.8106152" lon="-118.3935709">
  <ele>-4.55</ele>
  <time>2026-09-02T22:09:17Z</time>
  <course>78.07</course>
  <speed>0.0</speed>
  <fix>3d</fix>
</trkpt>
<trkpt lat="33.8106151" lon="-118.3935707">
  <ele>-5.32</ele>
  <time>2026-09-02T22:09:17Z</time>
  <course>157.87</course>
  <speed>0.03</speed>
  <fix>3d</fix>
</trkpt>
<trkpt lat="33.8106152" lon="-118.3935709">
  <ele>-4.55</ele>
  <time>2026-09-02T22:09:17Z</time>
  <course>78.07</course>
  <speed>0.0</speed>
  <fix>3d</fix>
</trkpt>
<trkpt lat="33.8106151" lon="-118.3935706">
  <ele>-5.393</ele>
  <time>2026-09-02T22:09:17Z</time>
  <course>157.88</course>
  <speed>0.0316227766016838</speed>
  <fix>3d</fix>
</trkpt>
<trkpt lat="33.8106152" lon="-118.3935708">
  <ele>-4.71</ele>
  <time>2026-09-02T22:09:17Z</time>
  <course>78.01</course>
  <speed>0.0</speed>
  <fix>3d</fix>
</trkpt>
<trkpt lat="33.8106151" lon="-118.3935706">
  <ele>-5.448</ele>
  <time>2026-09-02T22:09:17Z</time>
  <course>158.05</course>
  <speed>0.0316227766016838</speed>
  <fix>3d</fix>
</trkpt>
<trkpt lat="33.8106152" lon="-118.3935708">
  <ele>-4.71</ele>
  <time>2026-09-02T22:09:17Z</time>
  <course>78.01</course>
  <speed>0.0</speed>
  <fix>3d</fix>
</trkpt>
<trkpt lat="33.8106151" lon="-118.3935706">
  <ele>-5.486</ele>
  <time>2026-09-02T22:09:17Z</time>
  <course>158.06</course>
  <speed>0.0316227766016838</speed>
  <fix>3d</fix>
</trkpt>
<trkpt lat="33.8106152" lon="-118.3935708">
  <ele>-4.84</ele>
  <time>2026-09-02T22:09:17Z</time>
  <course>78.3</course>
  <speed>0.0</speed>
  <fix>3d</fix>
</trkpt>
<trkpt lat="33.8106151" lon="-118.3935706">
  <ele>-5.513</ele>
  <time>2026-09-02T22:09:17Z</time>
  <course>158.07</course>
  <speed>0.0316227766016838</speed>
  <fix>3d</fix>
</trkpt>
<trkpt lat="33.8106152" lon="-118.3935708">
  <ele>-4.84</ele>
  <time>2026-09-02T22:09:17Z</time>
  <course>78.3</course>
  <speed>0.0</speed>
  <fix>3d</fix>
</trkpt>
<trkpt lat="33.8106151" lon="-118.3935706">
  <ele>-5.53</ele>
  <time>2026-09-02T22:09:17Z</time>
  <course>158.08</course>
  <speed>0.0316227766016838</speed>
  <fix>3d</fix>
</trkpt>
<trkpt lat="33.8106152" lon="-118.3935708">
  <ele>-4.92</ele>
  <time>2026-09-02T22:09:17Z</time>
  <course>78.6</course>
  <speed>0.0</speed>
  <fix>3d</fix>
</trkpt>
<trkpt lat="33.8106151" lon="-118.3935706">
  <ele>-5.54</ele>
  <time>2026-09-02T22:09:17Z</time>
  <course>158.09</course>
  <speed>0.0316227766016838</speed>
  <fix>3d</fix>
</trkpt>
<trkpt lat="33.8106152" lon="-118.3935708">
  <ele>-4.92</ele>
  <time>2026-09-02T22:09:17Z</time>
  <course>78.6</course>
  <speed>0.0</speed>
  <fix>3d</fix>
</trkpt>
<trkpt lat="33.8106151" lon="-118.3935706">
  <ele>-5.543</ele>
  <time>2026-09-02T22:09:17Z</time>
  <course>158.1</course>
  <speed>0.0316227766016838</speed>
  <fix>3d</fix>
</trkpt>
<trkpt lat="33.8106152" lon="-118.3935708">
  <ele>-4.96</ele>
  <time>2026-09-02T22:09:17Z</time>
  <course>78.7</course>
  <speed>0.0</speed>
  <fix>3d</fix>
</trkpt>
<trkpt lat="33.8106151" lon="-118.3935706">
  <ele>-5.542</ele>
  <time>2026-09-02T22:09:17Z</time>
  <course>158.11</course>
  <speed>0.0316227766016838</speed>
  <fix>3d</fix>
</trkpt>
<trkpt lat="33.8106152" lon="-118.3935708">
  <ele>-4.96</ele>
  <time>2026-09-02T22:09:17Z</time>
  <course>78.7</course>
  <speed>0.0</speed>
  <fix>3d</fix>
</trkpt>
<trkpt lat="33.8106151" lon="-118.3935706">
  <ele>-5.538</ele>
  <time>2026-09-02T22:09:17Z</time>
  <course>158.12</course>
  <speed>0.0316227766016838</speed>
  <fix>3d</fix>
</trkpt>
<trkpt lat="33.8106152" lon="-118.3935708">
  <ele>-4.97</ele>
  <time>2026-09-02T22:09:17Z</time>
  <course>78.79</course>
  <speed>0.0</speed>
  <fix>3d</fix>
</trkpt>
<trkpt lat="33.8106151" lon="-118.3935706">
  <ele>-5.534</ele>
  <time>2026-09-02T22:09:17Z</time>
  <course>158.13</course>
  <speed>0.0316227766016838</speed>
  <fix>3d</fix>
</trkpt>
<trkpt lat="33.8106152" lon="-118.3935708">
  <ele>-4.97</ele>
  <time>2026-09-02T22:09:17Z</time>
  <course>78.79</course>
  <speed>0.0</speed>
  <fix>3d</fix>
</trkpt>
<trkpt lat="33.8106151" lon="-118.3935706">
  <ele>-5.532</ele>
  <time>2026-09-02T22:09:17Z</time>
  <course>158.14</course>
  <speed>0.0316227766016838</speed>
  <fix>3d</fix>
</trkpt>
<trkpt lat="33.8106152" lon="-118.3935708">
  <ele>-4.97</ele>
  <time>2026-09-02T22:09:17Z</time>
  <course>78.81</course>
  <speed>0.0</speed>
  <fix>3d</fix>
</trkpt>
<trkpt lat="33.8106151" lon="-118.3935705">
  <ele>-5.531</ele>
  <time>2026-09-02T22:09:17Z</time>
  <course>158.15</course>
  <speed>0.0316227766016838</speed>
  <fix>3d</fix>
</trkpt>
<trkpt lat="33.8106152" lon="-118.3935708">
  <ele>-4.97</ele>
  <time>2026-09-02T22:09:17Z</time>
  <course>78.81</course>
  <speed>0.0</speed>
  <fix>3d</fix>
</trkpt>
<trkpt lat="33.8106151" lon="-118.3935705">
  <ele>-5.53</ele>
  <time>2026-09-02T22:09:17Z</time>
  <course>158.16</course>
  <speed>0.0316227766016838</speed>
  <fix>3d</fix>
</trkpt>
<trkpt lat="33.8106152" lon="-118.3935708">
  <ele>-4.97</ele>
  <time>2026-09-02T22:09:17Z</time>
  <course>78.61</course>
  <speed>0.0</speed>
  <fix>3d</fix>
</trkpt>
<trkpt lat="33.8106151" lon="-118.3935705">
  <ele>-5.531</ele>
  <time>2026-09-02T22:09:17Z</time>
  <course>158.17</course>
  <speed>0.0316227766016838</speed>
  <fix>3d</fix>
</trkpt>
<trkpt lat="33.8106152" lon="-118.3935708">
  <ele>-4.97</ele>
  <time>2026-09-02T22:09:17Z</time>
  <course>78.61</course>
  <speed>0.0</speed>
  <fix>3d</fix>
</trkpt>
<trkpt lat="33.8106151" lon="-118.3935705">
  <ele>-5.531</ele>
  <time>2026-09-02T22:09:17Z</time>
  <course>158.19</course>
  <speed>0.0316227766016838</speed>
  <fix>3d</fix>
</trkpt>
<trkpt lat="33.8106152" lon="-118.3935707">
  <ele>-4.97</ele>
  <time>2026-09-02T22:09:17Z</time>
  <course>78.3</course>
  <speed>0.0</speed>
  <fix>3d</fix>
</trkpt>
<trkpt lat="33.8106151" lon="-118.3935705">
  <ele>-5.531</ele>
  <time>2026-09-02T22:09:17Z</time>
  <course>158.2</course>
  <speed>0.0316227766016838</speed>
  <fix>3d</fix>
</trkpt>
<trkpt lat="33.8106152" lon="-118.3935707">
  <ele>-4.97</ele>
  <time>2026-09-02T22:09:17Z</time>
  <course>78.3</course>
  <speed>0.0</speed>
  <fix>3d</fix>
</trkpt>
<trkpt lat="33.8106151" lon="-118.3935705">
  <ele>-5.532</ele>
  <time>2026-09-02T22:09:17Z</time>
  <course>158.21</course>
  <speed>0.0316227766016838</speed>
  <fix>3d</fix>
</trkpt>
<trkpt lat="33.8106152" lon="-118.3935707">
  <ele>-4.98</ele>
  <time>2026-09-02T22:09:17Z</time>
  <course>78.05</course>
  <speed>0.0</speed>
  <fix>3d</fix>
</trkpt>
<trkpt lat="33.8106151" lon="-118.3935705">
  <ele>-5.534</ele>
  <time>2026-09-02T22:09:17Z</time>
  <course>158.22</course>
  <speed>0.0316227766016838</speed>
  <fix>3d</fix>
</trkpt>
<trkpt lat="33.8106152" lon="-118.3935707">
  <ele>-4.98</ele>
  <time>2026-09-02T22:09:17Z</time>
  <course>78.05</course>
  <speed>0.0</speed>
  <fix>3d</fix>
</trkpt>
<trkpt lat="33.8106151" lon="-118.3935705">
  <ele>-5.534</ele>
  <time>2026-09-02T22:09:17Z</time>
  <course>158.23</course>
  <speed>0.0316227766016838</speed>
  <fix>3d</fix>
</trkpt>
<trkpt lat="33.8106152" lon="-118.3935707">
  <ele>-4.98</ele>
  <time>2026-09-02T22:09:17Z</time>
  <course>77.9</course>
  <speed>0.0</speed>
  <fix>3d</fix>
</trkpt>
<trkpt lat="33.8106151" lon="-118.3935704">
  <ele>-5.535</ele>
  <time>2026-09-02T22:09:17Z</time>
  <course>158.24</course>
  <speed>0.0412310562561766</speed>
  <fix>3d</fix>
</trkpt>
<trkpt lat="33.8106152" lon="-118.3935707">
  <ele>-4.98</ele>
  <time>2026-09-02T22:09:17Z</time>
  <course>77.9</course>
  <speed>0.0</speed>
  <fix>3d</fix>
</trkpt>
<trkpt lat="33.8106151" lon="-118.3935704">
  <ele>-5.536</ele>
  <time>2026-09-02T22:09:17Z</time>
  <course>158.25</course>
  <speed>0.0412310562561766</speed>
  <fix>3d</fix>
</trkpt>
<trkpt lat="33.8106152" lon="-118.3935707">
  <ele>-4.99</ele>
  <time>2026-09-02T22:09:17Z</time>
  <course>77.8</course>
  <speed>0.0</speed>
  <fix>3d</fix>
</trkpt>
<trkpt lat="33.8106151" lon="-118.3935704">
  <ele>-5.537</ele>
  <time>2026-09-02T22:09:17Z</time>
  <course>158.26</course>
  <speed>0.0412310562561766</speed>
  <fix>3d</fix>
</trkpt>
<trkpt lat="33.8106152" lon="-118.3935707">
  <ele>-4.99</ele>
  <time>2026-09-02T22:09:17Z</time>
  <course>77.8</course>
  <speed>0.0</speed>
  <fix>3d</fix>
</trkpt>
<trkpt lat="33.8106151" lon="-118.3935704">
  <ele>-5.538</ele>
  <time>2026-09-02T22:09:17Z</time>
  <course>158.27</course>
  <speed>0.0412310562561766</speed>
  <fix>3d</fix>
</trkpt>
<trkpt lat="33.8106152" lon="-118.3935707">
  <ele>-5.0</ele>
  <time>2026-09-02T22:09:17Z</time>
  <course>77.73</course>
  <speed>0.0</speed>
  <fix>3d</fix>
</trkpt>
<trkpt lat="33.8106151" lon="-118.3935704">
  <ele>-5.539</ele>
  <time>2026-09-02T22:09:17Z</time>
  <course>158.28</course>
  <speed>0.0412310562561766</speed>
  <fix>3d</fix>
</trkpt>
<trkpt lat="33.8106152" lon="-118.3935707">
  <ele>-5.0</ele>
  <time>2026-09-02T22:09:17Z</time>
  <course>77.73</course>
  <speed>0.0</speed>
  <fix>3d</fix>
</trkpt>
<trkpt lat="33.8106151" lon="-118.3935704">
  <ele>-5.54</ele>
  <time>2026-09-02T22:09:17Z</time>
  <course>158.29</course>
  <speed>0.0412310562561766</speed>
  <fix>3d</fix>
</trkpt>
<trkpt lat="33.8106152" lon="-118.3935707">
  <ele>-5.0</ele>
  <time>2026-09-02T22:09:17Z</time>
  <course>77.61</course>
  <speed>0.0</speed>
  <fix>3d</fix>
</trkpt>
<trkpt lat="33.8106151" lon="-118.3935703">
  <ele>-5.541</ele>
  <time>2026-09-02T22:09:17Z</time>
  <course>158.3</course>
  <speed>0.0412310562561766</speed>
  <fix>3d</fix>
</trkpt>
<trkpt lat="33.8106152" lon="-118.3935707">
  <ele>-5.0</ele>
  <time>2026-09-02T22:09:17Z</time>
  <course>77.61</course>
  <speed>0.0</speed>
  <fix>3d</fix>
</trkpt>
<trkpt lat="33.8106151" lon="-118.3935703">
  <ele>-5.541</ele>
  <time>2026-09-02T22:09:17Z</time>
  <course>158.31</course>
  <speed>0.0412310562561766</speed>
  <fix>3d</fix>
</trkpt>
<trkpt lat="33.8106152" lon="-118.3935707">
  <ele>-5.01</ele>
  <time>2026-09-02T22:09:17Z</time>
  <course>77.4</course>
  <speed>0.0</speed>
  <fix>3d</fix>
</trkpt>
<trkpt lat="33.8106151" lon="-118.3935703">
  <ele>-5.541</ele>
  <time>2026-09-02T22:09:17Z</time>
  <course>158.32</course>
  <speed>0.0412310562561766</speed>
  <fix>3d</fix>
</trkpt>
<trkpt lat="33.8106152" lon="-118.3935707">
  <ele>-5.01</ele>
  <time>2026-09-02T22:09:17Z</time>
  <course>77.4</course>
  <speed>0.0</speed>
  <fix>3d</fix>
</trkpt>
<trkpt lat="33.8106151" lon="-118.3935703">
  <ele>-5.541</ele>
  <time>2026-09-02T22:09:17Z</time>
  <course>158.33</course>
  <speed>0.0412310562561766</speed>
  <fix>3d</fix>
</trkpt>
<trkpt lat="33.8106152" lon="-118.3935706">
  <ele>-5.01</ele>
  <time>2026-09-02T22:09:17Z</time>
  <course>77.15</course>
  <speed>0.0</speed>
  <fix>3d</fix>
</trkpt>
<trkpt lat="33.8106151" lon="-118.3935703">
  <ele>-5.54</ele>
  <time>2026-09-02T22:09:17Z</time>
  <course>158.35</course>
  <speed>0.0412310562561766</speed>
  <fix>3d</fix>
</trkpt>
<trkpt lat="33.8106152" lon="-118.3935706">
  <ele>-5.01</ele>
  <time>2026-09-02T22:09:17Z</time>
  <course>77.15</course>
  <speed>0.0</speed>
  <fix>3d</fix>
</trkpt>
<trkpt lat="33.8106151" lon="-118.3935703">
  <ele>-5.541</ele>
  <time>2026-09-02T22:09:17Z</time>
  <course>158.36</course>
  <speed>0.0412310562561766</speed>
  <fix>3d</fix>
</trkpt>
<trkpt lat="33.8106152" lon="-118.3935706">
  <ele>-5.01</ele>
  <time>2026-09-02T22:09:17Z</time>
  <course>76.95</course>
  <speed>0.0</speed>
  <fix>3d</fix>
</trkpt>
<trkpt lat="33.8106151" lon="-118.3935702">
  <ele>-5.541</ele>
  <time>2026-09-02T22:09:17Z</time>
  <course>158.37</course>
  <speed>0.0412310562561766</speed>
  <fix>3d</fix>
</trkpt>
<trkpt lat="33.8106152" lon="-118.3935706">
  <ele>-5.01</ele>
  <time>2026-09-02T22:09:17Z</time>
  <course>76.95</course>
  <speed>0.0</speed>
  <fix>3d</fix>
</trkpt>
<trkpt lat="33.8106151" lon="-118.3935702">
  <ele>-5.543</ele>
  <time>2026-09-02T22:09:17Z</time>
  <course>158.38</course>
  <speed>0.05099019513592785</speed>
  <fix>3d</fix>
</trkpt>
<trkpt lat="33.8106152" lon="-118.3935706">
  <ele>-5.02</ele>
  <time>2026-09-02T22:09:17Z</time>
  <course>76.86</course>
  <speed>0.0</speed>
  <fix>3d</fix>
</trkpt>
<trkpt lat="33.8106151" lon="-118.3935702">
  <ele>-5.545</ele>
  <time>2026-09-02T22:09:17Z</time>
  <course>158.39</course>
  <speed>0.05099019513592785</speed>
  <fix>3d</fix>
</trkpt>
<trkpt lat="33.8106152" lon="-118.3935706">
  <ele>-5.02</ele>
  <time>2026-09-02T22:09:17Z</time>
  <course>76.86</course>
  <speed>0.0</speed>
  <fix>3d</fix>
</trkpt>
<trkpt lat="33.8106151" lon="-118.3935702">
  <ele>-5.546</ele>
  <time>2026-09-02T22:09:17Z</time>
  <course>158.4</course>
  <speed>0.05099019513592785</speed>
  <fix>3d</fix>
</trkpt>
<trkpt lat="33.8106152" lon="-118.3935706">
  <ele>-5.02</ele>
  <time>2026-09-02T22:09:17Z</time>
  <course>76.81</course>
  <speed>0.0</speed>
  <fix>3d</fix>
</trkpt>
<trkpt lat="33.8106151" lon="-118.3935702">
  <ele>-5.547</ele>
  <time>2026-09-02T22:09:17Z</time>
  <course>158.41</course>
  <speed>0.05099019513592785</speed>
  <fix>3d</fix>
</trkpt>
<trkpt lat="33.8106152" lon="-118.3935706">
  <ele>-5.02</ele>
  <time>2026-09-02T22:09:17Z</time>
  <course>76.81</course>
  <speed>0.0</speed>
  <fix>3d</fix>
</trkpt>
<trkpt lat="33.8106151" lon="-118.3935701">
  <ele>-5.549</ele>
  <time>2026-09-02T22:09:17Z</time>
  <course>158.44</course>
  <speed>0.05099019513592785</speed>
  <fix>3d</fix>
</trkpt>
<trkpt lat="33.8106152" lon="-118.3935706">
  <ele>-5.02</ele>
  <time>2026-09-02T22:09:17Z</time>
  <course>76.73</course>
  <speed>0.0</speed>
  <fix>3d</fix>
</trkpt>
<trkpt lat="33.8106151" lon="-118.3935701">
  <ele>-5.551</ele>
  <time>2026-09-02T22:09:17Z</time>
  <course>158.48</course>
  <speed>0.05099019513592785</speed>
  <fix>3d</fix>
</trkpt>
<trkpt lat="33.8106152" lon="-118.3935706">
  <ele>-5.02</ele>
  <time>2026-09-02T22:09:17Z</time>
  <course>76.73</course>
  <speed>0.0</speed>
  <fix>3d</fix>
</trkpt>
<trkpt lat="33.8106151" lon="-118.3935701">
  <ele>-5.551</ele>
  <time>2026-09-02T22:09:17Z</time>
  <course>158.51</course>
  <speed>0.05099019513592785</speed>
  <fix>3d</fix>
</trkpt>
<trkpt lat="33.8106152" lon="-118.3935706">
  <ele>-5.02</ele>
  <time>2026-09-02T22:09:17Z</time>
  <course>76.59</course>
  <speed>0.0</speed>
  <fix>3d</fix>
</trkpt>
<trkpt lat="33.8106151" lon="-118.3935701">
  <ele>-5.549</ele>
  <time>2026-09-02T22:09:17Z</time>
  <course>158.51</course>
  <speed>0.05099019513592785</speed>
  <fix>3d</fix>
</trkpt>
<trkpt lat="33.8106152" lon="-118.3935706">
  <ele>-5.02</ele>
  <time>2026-09-02T22:09:17Z</time>
  <course>76.59</course>
  <speed>0.0</speed>
  <fix>3d</fix>
</trkpt>
<trkpt lat="33.8106151" lon="-118.3935701">
  <ele>-5.548</ele>
  <time>2026-09-02T22:09:17Z</time>
  <course>158.51</course>
  <speed>0.05099019513592785</speed>
  <fix>3d</fix>
</trkpt>
<trkpt lat="33.8106152" lon="-118.3935706">
  <ele>-5.02</ele>
  <time>2026-09-02T22:09:17Z</time>
  <course>76.4</course>
  <speed>0.0</speed>
  <fix>3d</fix>
</trkpt>
<trkpt lat="33.8106151" lon="-118.3935701">
  <ele>-5.547</ele>
  <time>2026-09-02T22:09:17Z</time>
  <course>158.51</course>
  <speed>0.053851648071345036</speed>
  <fix>3d</fix>
</trkpt>
<trkpt lat="33.8106152" lon="-118.3935706">
  <ele>-5.02</ele>
  <time>2026-09-02T22:09:17Z</time>
  <course>76.4</course>
  <speed>0.0</speed>
  <fix>3d</fix>
</trkpt>
<trkpt lat="33.8106151" lon="-118.3935701">
  <ele>-5.548</ele>
  <time>2026-09-02T22:09:17Z</time>
  <course>158.51</course>
  <speed>0.053851648071345036</speed>
  <fix>3d</fix>
</trkpt>
<trkpt lat="33.8106152" lon="-118.3935705">
  <ele>-5.02</ele>
  <time>2026-09-02T22:09:17Z</time>
  <course>76.18</course>
  <speed>0.0</speed>
  <fix>3d</fix>
</trkpt>
<trkpt lat="33.8106151" lon="-118.39357">
  <ele>-5.548</ele>
  <time>2026-09-02T22:09:17Z</time>
  <course>158.51</course>
  <speed>0.053851648071345036</speed>
  <fix>3d</fix>
</trkpt>
<trkpt lat="33.8106152" lon="-118.3935705">
  <ele>-5.02</ele>
  <time>2026-09-02T22:09:17Z</time>
  <course>76.18</course>
  <speed>0.0</speed>
  <fix>3d</fix>
</trkpt>
<trkpt lat="33.8106151" lon="-118.39357">
  <ele>-5.548</ele>
  <time>2026-09-02T22:09:17Z</time>
  <course>158.51</course>
  <speed>0.053851648071345036</speed>
  <fix>3d</fix>
</trkpt>
<trkpt lat="33.8106152" lon="-118.3935705">
  <ele>-5.02</ele>
  <time>2026-09-02T22:09:17Z</time>
  <course>75.99</course>
  <speed>0.0</speed>
  <fix>3d</fix>
</trkpt>
<trkpt lat="33.8106151" lon="-118.39357">
  <ele>-5.548</ele>
  <time>2026-09-02T22:09:17Z</time>
  <course>158.51</course>
  <speed>0.053851648071345036</speed>
  <fix>3d</fix>
</trkpt>
<trkpt lat="33.8106152" lon="-118.3935705">
  <ele>-5.02</ele>
  <time>2026-09-02T22:09:17Z</time>
  <course>75.99</course>
  <speed>0.0</speed>
  <fix>3d</fix>
</trkpt>
<trkpt lat="33.8106151" lon="-118.39357">
  <ele>-5.545</ele>
  <time>2026-09-02T22:09:17Z</time>
  <course>158.51</course>
  <speed>0.053851648071345036</speed>
  <fix>3d</fix>
</trkpt>
<trkpt lat="33.8106152" lon="-118.3935705">
  <ele>-5.01</ele>
  <time>2026-09-02T22:09:17Z</time>
  <course>75.88</course>
  <speed>0.0</speed>
  <fix>3d</fix>
</trkpt>
<trkpt lat="33.8106151" lon="-118.39357">
  <ele>-5.543</ele>
  <time>2026-09-02T22:09:17Z</time>
  <course>158.51</course>
  <speed>0.053851648071345036</speed>
  <fix>3d</fix>
</trkpt>
<trkpt lat="33.8106152" lon="-118.3935705">
  <ele>-5.01</ele>
  <time>2026-09-02T22:09:17Z</time>
  <course>75.88</course>
  <speed>0.0</speed>
  <fix>3d</fix>
</trkpt>
<trkpt lat="33.8106151" lon="-118.39357">
  <ele>-5.541</ele>
  <time>2026-09-02T22:09:17Z</time>
  <course>158.51</course>
  <speed>0.053851648071345036</speed>
  <fix>3d</fix>
</trkpt>
<trkpt lat="33.8106152" lon="-118.3935705">
  <ele>-5.01</ele>
  <time>2026-09-02T22:09:17Z</time>
  <course>75.83</course>
  <speed>0.0</speed>
  <fix>3d</fix>
</trkpt>
<trkpt lat="33.8106151" lon="-118.39357">
  <ele>-5.54</ele>
  <time>2026-09-02T22:09:17Z</time>
  <course>158.51</course>
  <speed>0.053851648071345036</speed>
  <fix>3d</fix>
</trkpt>
<trkpt lat="33.8106152" lon="-118.3935705">
  <ele>-5.01</ele>
  <time>2026-09-02T22:09:17Z</time>
  <course>75.83</course>
  <speed>0.0</speed>
  <fix>3d</fix>
</trkpt>
<trkpt lat="33.8106151" lon="-118.39357">
  <ele>-5.539</ele>
  <time>2026-09-02T22:09:17Z</time>
  <course>158.5</course>
  <speed>0.05099019513592785</speed>
  <fix>3d</fix>
</trkpt>
<trkpt lat="33.8106152" lon="-118.3935705">
  <ele>-5.01</ele>
  <time>2026-09-02T22:09:17Z</time>
  <course>75.72</course>
  <speed>0.0</speed>
  <fix>3d</fix>
</trkpt>
<trkpt lat="33.8106151" lon="-118.3935699">
  <ele>-5.539</ele>
  <time>2026-09-02T22:09:17Z</time>
  <course>158.5</course>
  <speed>0.05099019513592785</speed>
  <fix>3d</fix>
</trkpt>
<trkpt lat="33.8106152" lon="-118.3935705">
  <ele>-5.01</ele>
  <time>2026-09-02T22:09:17Z</time>
  <course>75.72</course>
  <speed>0.0</speed>
  <fix>3d</fix>
</trkpt>
<trkpt lat="33.8106151" lon="-118.3935699">
  <ele>-5.54</ele>
  <time>2026-09-02T22:09:17Z</time>
  <course>158.5</course>
  <speed>0.05099019513592785</speed>
  <fix>3d</fix>
</trkpt>
<trkpt lat="33.8106152" lon="-118.3935704">
  <ele>-5.01</ele>
  <time>2026-09-02T22:09:17Z</time>
  <course>75.54</course>
  <speed>0.0</speed>
  <fix>3d</fix>
</trkpt>
<trkpt lat="33.8106151" lon="-118.3935699">
  <ele>-5.541</ele>
  <time>2026-09-02T22:09:17Z</time>
  <course>158.49</course>
  <speed>0.05099019513592785</speed>
  <fix>3d</fix>
</trkpt>
<trkpt lat="33.8106152" lon="-118.3935704">
  <ele>-5.01</ele>
  <time>2026-09-02T22:09:17Z</time>
  <course>75.54</course>
  <speed>0.0</speed>
  <fix>3d</fix>
</trkpt>
<trkpt lat="33.8106151" lon="-118.3935699">
  <ele>-5.541</ele>
  <time>2026-09-02T22:09:17Z</time>
  <course>158.49</course>
  <speed>0.05099019513592785</speed>
  <fix>3d</fix>
</trkpt>
<trkpt lat="33.8106153" lon="-118.3935704">
  <ele>-5.01</ele>
  <time>2026-09-02T22:09:17Z</time>
  <course>75.33</course>
  <speed>0.0</speed>
  <fix>3d</fix>
</trkpt>
<trkpt lat="33.8106151" lon="-118.3935699">
  <ele>-5.541</ele>
  <time>2026-09-02T22:09:17Z</time>
  <course>158.49</course>
  <speed>0.05099019513592785</speed>
  <fix>3d</fix>
</trkpt>
<trkpt lat="33.8106153" lon="-118.3935704">
  <ele>-5.01</ele>
  <time>2026-09-02T22:09:17Z</time>
  <course>75.33</course>
  <speed>0.0</speed>
  <fix>3d</fix>
</trkpt>
<trkpt lat="33.8106151" lon="-118.3935699">
  <ele>-5.543</ele>
  <time>2026-09-02T22:09:17Z</time>
  <course>158.48</course>
  <speed>0.05099019513592785</speed>
  <fix>3d</fix>
</trkpt>
<trkpt lat="33.8106153" lon="-118.3935704">
  <ele>-5.01</ele>
  <time>2026-09-02T22:09:17Z</time>
  <course>75.16</course>
  <speed>0.0</speed>
  <fix>3d</fix>
</trkpt>
<trkpt lat="33.8106151" lon="-118.3935699">
  <ele>-5.544</ele>
  <time>2026-09-02T22:09:17Z</time>
  <course>158.48</course>
  <speed>0.05099019513592785</speed>
  <fix>3d</fix>
</trkpt>
<trkpt lat="33.8106153" lon="-118.3935704">
  <ele>-5.01</ele>
  <time>2026-09-02T22:09:17Z</time>
  <course>75.16</course>
  <speed>0.0</speed>
  <fix>3d</fix>
</trkpt>
<trkpt lat="33.8106151" lon="-118.3935699">
  <ele>-5.546</ele>
  <time>2026-09-02T22:09:17Z</time>
  <course>158.48</course>
  <speed>0.05099019513592785</speed>
  <fix>3d</fix>
</trkpt>
<trkpt lat="33.8106153" lon="-118.3935704">
  <ele>-5.02</ele>
  <time>2026-09-02T22:09:17Z</time>
  <course>75.06</course>
  <speed>0.0</speed>
  <fix>3d</fix>
</trkpt>
<trkpt lat="33.8106151" lon="-118.3935699">
  <ele>-5.546</ele>
  <time>2026-09-02T22:09:17Z</time>
  <course>158.47</course>
  <speed>0.0412310562561766</speed>
  <fix>3d</fix>
</trkpt>
<trkpt lat="33.8106153" lon="-118.3935704">
  <ele>-5.02</ele>
  <time>2026-09-02T22:09:17Z</time>
  <course>75.06</course>
  <speed>0.0</speed>
  <fix>3d</fix>
</trkpt>
<trkpt lat="33.8106151" lon="-118.3935699">
  <ele>-5.546</ele>
  <time>2026-09-02T22:09:17Z</time>
  <course>158.47</course>
  <speed>0.0412310562561766</speed>
  <fix>3d</fix>
</trkpt>
<trkpt lat="33.8106153" lon="-118.3935704">
  <ele>-5.02</ele>
  <time>2026-09-02T22:09:17Z</time>
  <course>75.03</course>
  <speed>0.0</speed>
  <fix>3d</fix>
</trkpt>
<trkpt lat="33.8106151" lon="-118.3935699">
  <ele>-5.545</ele>
  <time>2026-09-02T22:09:17Z</time>
  <course>158.46</course>
  <speed>0.0412310562561766</speed>
  <fix>3d</fix>
</trkpt>
<trkpt lat="33.8106153" lon="-118.3935704">
  <ele>-5.02</ele>
  <time>2026-09-02T22:09:17Z</time>
  <course>75.03</course>
  <speed>0.0</speed>
  <fix>3d</fix>
</trkpt>
<trkpt lat="33.8106151" lon="-118.3935699">
  <ele>-5.545</ele>
  <time>2026-09-02T22:09:17Z</time>
  <course>158.46</course>
  <speed>0.0412310562561766</speed>
  <fix>3d</fix>
</trkpt>
<trkpt lat="33.8106153" lon="-118.3935703">
  <ele>-5.02</ele>
  <time>2026-09-02T22:09:17Z</time>
  <course>75.0</course>
  <speed>0.0</speed>
  <fix>3d</fix>
</trkpt>
<trkpt lat="33.8106151" lon="-118.3935699">
  <ele>-5.55</ele>
  <time>2026-09-02T22:09:17Z</time>
  <course>158.46</course>
  <speed>0.0412310562561766</speed>
  <fix>3d</fix>
</trkpt>
<trkpt lat="33.8106153" lon="-118.3935703">
  <ele>-5.02</ele>
  <time>2026-09-02T22:09:17Z</time>
  <course>75.0</course>
  <speed>0.0</speed>
  <fix>3d</fix>
</trkpt>
<trkpt lat="33.8106151" lon="-118.3935699">
  <ele>-5.571</ele>
  <time>2026-09-02T22:09:17Z</time>
  <course>158.45</course>
  <speed>0.0412310562561766</speed>
  <fix>3d</fix>
</trkpt>
<trkpt lat="33.8106153" lon="-118.3935703">
  <ele>-5.02</ele>
  <time>2026-09-02T22:09:17Z</time>
  <course>74.78</course>
  <speed>0.0</speed>
  <fix>3d</fix>
</trkpt>
<trkpt lat="33.8106151" lon="-118.3935699">
  <ele>-5.614</ele>
  <time>2026-09-02T22:09:17Z</time>
  <course>158.45</course>
  <speed>0.04</speed>
  <fix>3d</fix>
</trkpt>
<trkpt lat="33.8106153" lon="-118.3935703">
  <ele>-5.02</ele>
  <time>2026-09-02T22:09:17Z</time>
  <course>74.78</course>
  <speed>0.0</speed>
  <fix>3d</fix>
</trkpt>
<trkpt lat="33.8106151" lon="-118.3935699">
  <ele>-5.615</ele>
  <time>2026-09-02T22:09:17Z</time>
  <course>158.45</course>
  <speed>0.04</speed>
  <fix>3d</fix>
</trkpt>
<trkpt lat="33.8106151" lon="-118.3935699">
  <ele>-5.676</ele>
  <time>2026-09-02T22:09:17Z</time>
  <course>158.45</course>
  <speed>0.04</speed>
  <fix>3d</fix>
</trkpt>
<trkpt lat="33.8106153" lon="-118.3935703">
  <ele>-5.06</ele>
  <time>2026-09-02T22:09:17Z</time>
  <course>74.13</course>
  <speed>0.01</speed>
  <fix>3d</fix>
</trkpt>
<trkpt lat="33.8106151" lon="-118.3935699">
  <ele>-5.678</ele>
  <time>2026-09-02T22:09:17Z</time>
  <course>158.45</course>
  <speed>0.04</speed>
  <fix>3d</fix>
</trkpt>
<trkpt lat="33.8106151" lon="-118.3935699">
  <ele>-5.757</ele>
  <time>2026-09-02T22:09:17Z</time>
  <course>158.45</course>
  <speed>0.04</speed>
  <fix>3d</fix>
</trkpt>
<trkpt lat="33.8106153" lon="-118.3935703">
  <ele>-5.06</ele>
  <time>2026-09-02T22:09:17Z</time>
  <course>74.13</course>
  <speed>0.01</speed>
  <fix>3d</fix>
</trkpt>
<trkpt lat="33.8106151" lon="-118.3935699">
  <ele>-5.79</ele>
  <time>2026-09-02T22:09:17Z</time>
  <course>158.45</course>
  <speed>0.04</speed>
  <fix>3d</fix>
</trkpt>
<trkpt lat="33.8106151" lon="-118.3935699">
  <ele>-5.859</ele>
  <time>2026-09-02T22:09:17Z</time>
  <course>158.44</course>
  <speed>0.03</speed>
  <fix>3d</fix>
</trkpt>
<trkpt lat="33.8106153" lon="-118.3935703">
  <ele>-5.17</ele>
  <time>2026-09-02T22:09:17Z</time>
  <course>73.38</course>
  <speed>0.01</speed>
  <fix>3d</fix>
</trkpt>
<trkpt lat="33.8106151" lon="-118.3935699">
  <ele>-5.892</ele>
  <time>2026-09-02T22:09:17Z</time>
  <course>158.44</course>
  <speed>0.03</speed>
  <fix>3d</fix>
</trkpt>
<trkpt lat="33.8106151" lon="-118.3935699">
  <ele>-5.978</ele>
  <time>2026-09-02T22:09:17Z</time>
  <course>158.44</course>
  <speed>0.03</speed>
  <fix>3d</fix>
</trkpt>
<trkpt lat="33.8106153" lon="-118.3935703">
  <ele>-5.17</ele>
  <time>2026-09-02T22:09:17Z</time>
  <course>73.38</course>
  <speed>0.01</speed>
  <fix>3d</fix>
</trkpt>
<trkpt lat="33.8106151" lon="-118.3935699">
  <ele>-5.981</ele>
  <time>2026-09-02T22:09:17Z</time>
  <course>158.44</course>
  <speed>0.03</speed>
  <fix>3d</fix>
</trkpt>
<trkpt lat="33.8106151" lon="-118.3935699">
  <ele>-6.104</ele>
  <time>2026-09-02T22:09:17Z</time>
  <course>158.44</course>
  <speed>0.03</speed>
  <fix>3d</fix>
</trkpt>
<trkpt lat="33.8106153" lon="-118.3935703">
  <ele>-5.35</ele>
  <time>2026-09-02T22:09:17Z</time>
  <course>72.91</course>
  <speed>0.01</speed>
  <fix>3d</fix>
</trkpt>
<trkpt lat="33.8106151" lon="-118.3935699">
  <ele>-6.107</ele>
  <time>2026-09-02T22:09:17Z</time>
  <course>158.44</course>
  <speed>0.03</speed>
  <fix>3d</fix>
</trkpt>
<trkpt lat="33.8106151" lon="-118.3935699">
  <ele>-6.232</ele>
  <time>2026-09-02T22:09:17Z</time>
  <course>158.44</course>
  <speed>0.03</speed>
  <fix>3d</fix>
</trkpt>
<trkpt lat="33.8106153" lon="-118.3935703">
  <ele>-5.35</ele>
  <time>2026-09-02T22:09:17Z</time>
  <course>72.91</course>
  <speed>0.01</speed>
  <fix>3d</fix>
</trkpt>
<trkpt lat="33.8106151" lon="-118.3935699">
  <ele>-6.273</ele>
  <time>2026-09-02T22:09:17Z</time>
  <course>158.44</course>
  <speed>0.03</speed>
  <fix>3d</fix>
</trkpt>
<trkpt lat="33.8106151" lon="-118.3935699">
  <ele>-6.36</ele>
  <time>2026-09-02T22:09:17Z</time>
  <course>158.44</course>
  <speed>0.03</speed>
  <fix>3d</fix>
</trkpt>
<trkpt lat="33.8106153" lon="-118.3935702">
  <ele>-5.58</ele>
  <time>2026-09-02T22:09:17Z</time>
  <course>72.74</course>
  <speed>0.01</speed>
  <fix>3d</fix>
</trkpt>
<trkpt lat="33.8106151" lon="-118.3935699">
  <ele>-6.398</ele>
  <time>2026-09-02T22:09:17Z</time>
  <course>158.44</course>
  <speed>0.03</speed>
  <fix>3d</fix>
</trkpt>
<trkpt lat="33.8106152" lon="-118.3935699">
  <ele>-6.487</ele>
  <time>2026-09-02T22:09:17Z</time>
  <course>158.44</course>
  <speed>0.03</speed>
  <fix>3d</fix>
</trkpt>
<trkpt lat="33.8106153" lon="-118.3935702">
  <ele>-5.58</ele>
  <time>2026-09-02T22:09:17Z</time>
  <course>72.74</course>
  <speed>0.01</speed>
  <fix>3d</fix>
</trkpt>
<trkpt lat="33.8106152" lon="-118.3935699">
  <ele>-6.528</ele>
  <time>2026-09-02T22:09:17Z</time>
  <course>158.44</course>
  <speed>0.03</speed>
  <fix>3d</fix>
</trkpt>
<trkpt lat="33.8106152" lon="-118.3935699">
  <ele>-6.614</ele>
  <time>2026-09-02T22:09:17Z</time>
  <course>158.44</course>
  <speed>0.03</speed>
  <fix>3d</fix>
</trkpt>
<trkpt lat="33.8106153" lon="-118.3935702">
  <ele>-5.81</ele>
  <time>2026-09-02T22:09:17Z</time>
  <course>72.72</course>
  <speed>0.01</speed>
  <fix>3d</fix>
</trkpt>
<trkpt lat="33.8106152" lon="-118.3935699">
  <ele>-6.651</ele>
  <time>2026-09-02T22:09:17Z</time>
  <course>158.44</course>
  <speed>0.03</speed>
  <fix>3d</fix>
</trkpt>
<trkpt lat="33.8106152" lon="-118.3935699">
  <ele>-6.74</ele>
  <time>2026-09-02T22:09:17Z</time>
  <course>158.44</course>
  <speed>0.03</speed>
  <fix>3d</fix>
</trkpt>
<trkpt lat="33.8106153" lon="-118.3935702">
  <ele>-5.81</ele>
  <time>2026-09-02T22:09:17Z</time>
  <course>72.72</course>
  <speed>0.01</speed>
  <fix>3d</fix>
</trkpt>
<trkpt lat="33.8106152" lon="-118.3935699">
  <ele>-6.777</ele>
  <time>2026-09-02T22:09:17Z</time>
  <course>158.44</course>
  <speed>0.03</speed>
  <fix>3d</fix>
</trkpt>
<trkpt lat="33.8106152" lon="-118.3935699">
  <ele>-6.865</ele>
  <time>2026-09-02T22:09:17Z</time>
  <course>158.44</course>
  <speed>0.03</speed>
  <fix>3d</fix>
</trkpt>
<trkpt lat="33.8106153" lon="-118.3935702">
  <ele>-6.05</ele>
  <time>2026-09-02T22:09:17Z</time>
  <course>72.7</course>
  <speed>0.01</speed>
  <fix>3d</fix>
</trkpt>
<trkpt lat="33.8106152" lon="-118.3935699">
  <ele>-6.908</ele>
  <time>2026-09-02T22:09:17Z</time>
  <course>158.44</course>
  <speed>0.03</speed>
  <fix>3d</fix>
</trkpt>
<trkpt lat="33.8106152" lon="-118.3935699">
  <ele>-6.99</ele>
  <time>2026-09-02T22:09:17Z</time>
  <course>158.44</course>
  <speed>0.03</speed>
  <fix>3d</fix>
</trkpt>
<trkpt lat="33.8106153" lon="-118.3935702">
  <ele>-6.05</ele>
  <time>2026-09-02T22:09:17Z</time>
  <course>72.7</course>
  <speed>0.01</speed>
  <fix>3d</fix>
</trkpt>
<trkpt lat="33.8106152" lon="-118.3935699">
  <ele>-6.992</ele>
  <time>2026-09-02T22:09:17Z</time>
  <course>158.44</course>
  <speed>0.03</speed>
  <fix>3d</fix>
</trkpt>
<trkpt lat="33.8106152" lon="-118.3935699">
  <ele>-7.115</ele>
  <time>2026-09-02T22:09:17Z</time>
  <course>158.44</course>
  <speed>0.03</speed>
  <fix>3d</fix>
</trkpt>
<trkpt lat="33.8106153" lon="-118.3935701">
  <ele>-6.29</ele>
  <time>2026-09-02T22:09:17Z</time>
  <course>72.64</course>
  <speed>0.01</speed>
  <fix>3d</fix>
</trkpt>
<trkpt lat="33.8106152" lon="-118.3935699">
  <ele>-7.161</ele>
  <time>2026-09-02T22:09:17Z</time>
  <course>158.44</course>
  <speed>0.03</speed>
  <fix>3d</fix>
</trkpt>
<trkpt lat="33.8106152" lon="-118.3935699">
  <ele>-7.241</ele>
  <time>2026-09-02T22:09:17Z</time>
  <course>158.44</course>
  <speed>0.03</speed>
  <fix>3d</fix>
</trkpt>
<trkpt lat="33.8106153" lon="-118.3935701">
  <ele>-6.29</ele>
  <time>2026-09-02T22:09:17Z</time>
  <course>72.64</course>
  <speed>0.01</speed>
  <fix>3d</fix>
</trkpt>
<trkpt lat="33.8106152" lon="-118.3935699">
  <ele>-7.28</ele>
  <time>2026-09-02T22:09:17Z</time>
  <course>158.44</course>
  <speed>0.03</speed>
  <fix>3d</fix>
</trkpt>
<trkpt lat="33.8106152" lon="-118.3935699">
  <ele>-7.365</ele>
  <time>2026-09-02T22:09:17Z</time>
  <course>158.44</course>
  <speed>0.03</speed>
  <fix>3d</fix>
</trkpt>
<trkpt lat="33.8106153" lon="-118.3935701">
  <ele>-6.52</ele>
  <time>2026-09-02T22:09:17Z</time>
  <course>72.55</course>
  <speed>0.01</speed>
  <fix>3d</fix>
</trkpt>
<trkpt lat="33.8106152" lon="-118.3935699">
  <ele>-7.403</ele>
  <time>2026-09-02T22:09:17Z</time>
  <course>158.44</course>
  <speed>0.03</speed>
  <fix>3d</fix>
</trkpt>
<trkpt lat="33.8106152" lon="-118.3935699">
  <ele>-7.489</ele>
  <time>2026-09-02T22:09:17Z</time>
  <course>158.44</course>
  <speed>0.03</speed>
  <fix>3d</fix>
</trkpt>
<trkpt lat="33.8106153" lon="-118.3935701">
  <ele>-6.52</ele>
  <time>2026-09-02T22:09:17Z</time>
  <course>72.55</course>
  <speed>0.01</speed>
  <fix>3d</fix>
</trkpt>
<trkpt lat="33.8106152" lon="-118.3935699">
  <ele>-7.531</ele>
  <time>2026-09-02T22:09:17Z</time>
  <course>158.44</course>
  <speed>0.03</speed>
  <fix>3d</fix>
</trkpt>
<trkpt lat="33.8106152" lon="-118.3935699">
  <ele>-7.611</ele>
  <time>2026-09-02T22:09:17Z</time>
  <course>158.44</course>
  <speed>0.03</speed>
  <fix>3d</fix>
</trkpt>
<trkpt lat="33.8106153" lon="-118.3935701">
  <ele>-6.76</ele>
  <time>2026-09-02T22:09:17Z</time>
  <course>72.46</course>
  <speed>0.01</speed>
  <fix>3d</fix>
</trkpt>
<trkpt lat="33.8106152" lon="-118.3935699">
  <ele>-7.651</ele>
  <time>2026-09-02T22:09:17Z</time>
  <course>158.44</course>
  <speed>0.03</speed>
  <fix>3d</fix>
</trkpt>
<trkpt lat="33.8106152" lon="-118.3935699">
  <ele>-7.733</ele>
  <time>2026-09-02T22:09:17Z</time>
  <course>158.44</course>
  <speed>0.03</speed>
  <fix>3d</fix>
</trkpt>
<trkpt lat="33.8106153" lon="-118.3935701">
  <ele>-6.76</ele>
  <time>2026-09-02T22:09:17Z</time>
  <course>72.46</course>
  <speed>0.01</speed>
  <fix>3d</fix>
</trkpt>
<trkpt lat="33.8106152" lon="-118.3935699">
  <ele>-7.772</ele>
  <time>2026-09-02T22:09:17Z</time>
  <course>158.44</course>
  <speed>0.03</speed>
  <fix>3d</fix>
</trkpt>
<trkpt lat="33.8106152" lon="-118.3935699">
  <ele>-7.855</ele>
  <time>2026-09-02T22:09:17Z</time>
  <course>158.44</course>
  <speed>0.03</speed>
  <fix>3d</fix>
</trkpt>
<trkpt lat="33.8106153" lon="-118.3935701">
  <ele>-7.0</ele>
  <time>2026-09-02T22:09:17Z</time>
  <course>72.41</course>
  <speed>0.01</speed>
  <fix>3d</fix>
</trkpt>
<trkpt lat="33.8106152" lon="-118.3935699">
  <ele>-7.901</ele>
  <time>2026-09-02T22:09:17Z</time>
  <course>158.44</course>
  <speed>0.03</speed>
  <fix>3d</fix>
</trkpt>
<trkpt lat="33.8106152" lon="-118.3935698">
  <ele>-7.978</ele>
  <time>2026-09-02T22:09:17Z</time>
  <course>158.44</course>
  <speed>0.03</speed>
  <fix>3d</fix>
</trkpt>
<trkpt lat="33.8106153" lon="-118.3935701">
  <ele>-7.0</ele>
  <time>2026-09-02T22:09:17Z</time>
  <course>72.41</course>
  <speed>0.01</speed>
  <fix>3d</fix>
</trkpt>
<trkpt lat="33.8106152" lon="-118.3935698">
  <ele>-8.018</ele>
  <time>2026-09-02T22:09:17Z</time>
  <course>158.44</course>
  <speed>0.03</speed>
  <fix>3d</fix>
</trkpt>
<trkpt lat="33.8106152" lon="-118.3935698">
  <ele>-8.1</ele>
  <time>2026-09-02T22:09:17Z</time>
  <course>158.44</course>
  <speed>0.03</speed>
  <fix>3d</fix>
</trkpt>
<trkpt lat="33.8106153" lon="-118.39357">
  <ele>-7.23</ele>
  <time>2026-09-02T22:09:17Z</time>
  <course>72.4</course>
  <speed>0.01</speed>
  <fix>3d</fix>
</trkpt>
<trkpt lat="33.8106152" lon="-118.3935698">
  <ele>-8.143</ele>
  <time>2026-09-02T22:09:17Z</time>
  <course>158.44</course>
  <speed>0.03</speed>
  <fix>3d</fix>
</trkpt>
<trkpt lat="33.8106152" lon="-118.3935698">
  <ele>-8.221</ele>
  <time>2026-09-02T22:09:17Z</time>
  <course>158.44</course>
  <speed>0.03</speed>
  <fix>3d</fix>
</trkpt>
<trkpt lat="33.8106153" lon="-118.39357">
  <ele>-7.23</ele>
  <time>2026-09-02T22:09:17Z</time>
  <course>72.4</course>
  <speed>0.01</speed>
  <fix>3d</fix>
</trkpt>
<trkpt lat="33.8106152" lon="-118.3935698">
  <ele>-8.266</ele>
  <time>2026-09-02T22:09:17Z</time>
  <course>158.44</course>
  <speed>0.03</speed>
  <fix>3d</fix>
</trkpt>
<trkpt lat="33.8106152" lon="-118.3935698">
  <ele>-8.342</ele>
  <time>2026-09-02T22:09:17Z</time>
  <course>158.44</course>
  <speed>0.03</speed>
  <fix>3d</fix>
</trkpt>
<trkpt lat="33.8106154" lon="-118.39357">
  <ele>-7.47</ele>
  <time>2026-09-02T22:09:17Z</time>
  <course>72.41</course>
  <speed>0.01</speed>
  <fix>3d</fix>
</trkpt>
<trkpt lat="33.8106152" lon="-118.3935698">
  <ele>-8.345</ele>
  <time>2026-09-02T22:09:17Z</time>
  <course>158.44</course>
  <speed>0.03</speed>
  <fix>3d</fix>
</trkpt>
<trkpt lat="33.8106152" lon="-118.3935698">
  <ele>-8.463</ele>
  <time>2026-09-02T22:09:17Z</time>
  <course>158.44</course>
  <speed>0.03</speed>
  <fix>3d</fix>
</trkpt>
<trkpt lat="33.8106154" lon="-118.39357">
  <ele>-7.47</ele>
  <time>2026-09-02T22:09:17Z</time>
  <course>72.41</course>
  <speed>0.01</speed>
  <fix>3d</fix>
</trkpt>
<trkpt lat="33.8106152" lon="-118.3935698">
  <ele>-8.503</ele>
  <time>2026-09-02T22:09:17Z</time>
  <course>158.44</course>
  <speed>0.03</speed>
  <fix>3d</fix>
</trkpt>
<trkpt lat="33.8106152" lon="-118.3935698">
  <ele>-8.585</ele>
  <time>2026-09-02T22:09:17Z</time>
  <course>158.44</course>
  <speed>0.03</speed>
  <fix>3d</fix>
</trkpt>
<trkpt lat="33.8106155" lon="-118.39357">
  <ele>-7.71</ele>
  <time>2026-09-02T22:09:17Z</time>
  <course>72.4</course>
  <speed>0.01</speed>
  <fix>3d</fix>
</trkpt>
<trkpt lat="33.8106152" lon="-118.3935698">
  <ele>-8.624</ele>
  <time>2026-09-02T22:09:17Z</time>
  <course>158.44</course>
  <speed>0.03</speed>
  <fix>3d</fix>
</trkpt>
<trkpt lat="33.8106152" lon="-118.3935698">
  <ele>-8.706</ele>
  <time>2026-09-02T22:09:17Z</time>
  <course>158.44</course>
  <speed>0.03</speed>
  <fix>3d</fix>
</trkpt>
<trkpt lat="33.8106155" lon="-118.39357">
  <ele>-7.71</ele>
  <time>2026-09-02T22:09:17Z</time>
  <course>72.4</course>
  <speed>0.01</speed>
  <fix>3d</fix>
</trkpt>
<trkpt lat="33.8106152" lon="-118.3935698">
  <ele>-8.749</ele>
  <time>2026-09-02T22:09:17Z</time>
  <course>158.44</course>
  <speed>0.03</speed>
  <fix>3d</fix>
</trkpt>
<trkpt lat="33.8106153" lon="-118.3935698">
  <ele>-8.827</ele>
  <time>2026-09-02T22:09:17Z</time>
  <course>158.44</course>
  <speed>0.03</speed>
  <fix>3d</fix>
</trkpt>
<trkpt lat="33.8106155" lon="-118.3935699">
  <ele>-7.94</ele>
  <time>2026-09-02T22:09:17Z</time>
  <course>72.35</course>
  <speed>0.01</speed>
  <fix>3d</fix>
</trkpt>
<trkpt lat="33.8106153" lon="-118.3935698">
  <ele>-8.863</ele>
  <time>2026-09-02T22:09:17Z</time>
  <course>158.44</course>
  <speed>0.03</speed>
  <fix>3d</fix>
</trkpt>
<trkpt lat="33.8106153" lon="-118.3935697">
  <ele>-8.948</ele>
  <time>2026-09-02T22:09:17Z</time>
  <course>158.44</course>
  <speed>0.03</speed>
  <fix>3d</fix>
</trkpt>
<trkpt lat="33.8106155" lon="-118.3935699">
  <ele>-7.94</ele>
  <time>2026-09-02T22:09:17Z</time>
  <course>72.35</course>
  <speed>0.01</speed>
  <fix>3d</fix>
</trkpt>
<trkpt lat="33.8106153" lon="-118.3935697">
  <ele>-8.99</ele>
  <time>2026-09-02T22:09:17Z</time>
  <course>158.45</course>
  <speed>0.03</speed>
  <fix>3d</fix>
</trkpt>
<trkpt lat="33.8106153" lon="-118.3935697">
  <ele>-9.068</ele>
  <time>2026-09-02T22:09:17Z</time>
  <course>158.45</course>
  <speed>0.03</speed>
  <fix>3d</fix>
</trkpt>
<trkpt lat="33.8106155" lon="-118.3935699">
  <ele>-8.18</ele>
  <time>2026-09-02T22:09:17Z</time>
  <course>72.27</course>
  <speed>0.01</speed>
  <fix>3d</fix>
</trkpt>
<trkpt lat="33.8106153" lon="-118.3935697">
  <ele>-9.107</ele>
  <time>2026-09-02T22:09:17Z</time>
  <course>158.45</course>
  <speed>0.03</speed>
  <fix>3d</fix>
</trkpt>
<trkpt lat="33.8106153" lon="-118.3935697">
  <ele>-9.188</ele>
  <time>2026-09-02T22:09:17Z</time>
  <course>158.45</course>
  <speed>0.03</speed>
  <fix>3d</fix>
</trkpt>
<trkpt lat="33.8106155" lon="-118.3935699">
  <ele>-8.18</ele>
  <time>2026-09-02T22:09:17Z</time>
  <course>72.27</course>
  <speed>0.01</speed>
  <fix>3d</fix>
</trkpt>
<trkpt lat="33.8106153" lon="-118.3935697">
  <ele>-9.191</ele>
  <time>2026-09-02T22:09:17Z</time>
  <course>158.45</course>
  <speed>0.03</speed>
  <fix>3d</fix>
</trkpt>
<trkpt lat="33.8106153" lon="-118.3935697">
  <ele>-9.307</ele>
  <time>2026-09-02T22:09:17Z</time>
  <course>158.45</course>
  <speed>0.03</speed>
  <fix>3d</fix>
</trkpt>
<trkpt lat="33.8106155" lon="-118.3935699">
  <ele>-8.41</ele>
  <time>2026-09-02T22:09:17Z</time>
  <course>72.21</course>
  <speed>0.01</speed>
  <fix>3d</fix>
</trkpt>
<trkpt lat="33.8106153" lon="-118.3935697">
  <ele>-9.313</ele>
  <time>2026-09-02T22:09:17Z</time>
  <course>158.45</course>
  <speed>0.03</speed>
  <fix>3d</fix>
</trkpt>
<trkpt lat="33.8106153" lon="-118.3935697">
  <ele>-9.427</ele>
  <time>2026-09-02T22:09:17Z</time>
  <course>158.45</course>
  <speed>0.03</speed>
  <fix>3d</fix>
</trkpt>
<trkpt lat="33.8106155" lon="-118.3935699">
  <ele>-8.41</ele>
  <time>2026-09-02T22:09:17Z</time>
  <course>72.21</course>
  <speed>0.01</speed>
  <fix>3d</fix>
</trkpt>
<trkpt lat="33.8106153" lon="-118.3935697">
  <ele>-9.472</ele>
  <time>2026-09-02T22:09:17Z</time>
  <course>158.45</course>
  <speed>0.03</speed>
  <fix>3d</fix>
</trkpt>
<trkpt lat="33.8106153" lon="-118.3935697">
  <ele>-9.547</ele>
  <time>2026-09-02T22:09:17Z</time>
  <course>158.45</course>
  <speed>0.03</speed>
  <fix>3d</fix>
</trkpt>
<trkpt lat="33.8106155" lon="-118.3935699">
  <ele>-8.65</ele>
  <time>2026-09-02T22:09:17Z</time>
  <course>72.19</course>
  <speed>0.01</speed>
  <fix>3d</fix>
</trkpt>
<trkpt lat="33.8106153" lon="-118.3935697">
  <ele>-9.585</ele>
  <time>2026-09-02T22:09:17Z</time>
  <course>158.45</course>
  <speed>0.03</speed>
  <fix>3d</fix>
</trkpt>
<trkpt lat="33.8106153" lon="-118.3935696">
  <ele>-9.668</ele>
  <time>2026-09-02T22:09:17Z</time>
  <course>158.45</course>
  <speed>0.03</speed>
  <fix>3d</fix>
</trkpt>
<trkpt lat="33.8106155" lon="-118.3935699">
  <ele>-8.65</ele>
  <time>2026-09-02T22:09:17Z</time>
  <course>72.19</course>
  <speed>0.01</speed>
  <fix>3d</fix>
</trkpt>
<trkpt lat="33.8106153" lon="-118.3935696">
  <ele>-9.674</ele>
  <time>2026-09-02T22:09:17Z</time>
  <course>158.45</course>
  <speed>0.03</speed>
  <fix>3d</fix>
</trkpt>
<trkpt lat="33.8106153" lon="-118.3935696">
  <ele>-9.789</ele>
  <time>2026-09-02T22:09:17Z</time>
  <course>158.45</course>
  <speed>0.04</speed>
  <fix>3d</fix>
</trkpt>
<trkpt lat="33.8106155" lon="-118.3935698">
  <ele>-8.89</ele>
  <time>2026-09-02T22:09:17Z</time>
  <course>72.2</course>
  <speed>0.01</speed>
  <fix>3d</fix>
</trkpt>
<trkpt lat="33.8106154" lon="-118.3935696">
  <ele>-9.827</ele>
  <time>2026-09-02T22:09:17Z</time>
  <course>158.45</course>
  <speed>0.04</speed>
  <fix>3d</fix>
</trkpt>
<trkpt lat="33.8106154" lon="-118.3935696">
  <ele>-9.909</ele>
  <time>2026-09-02T22:09:17Z</time>
  <course>158.45</course>
  <speed>0.04</speed>
  <fix>3d</fix>
</trkpt>
<trkpt lat="33.8106155" lon="-118.3935698">
  <ele>-8.89</ele>
  <time>2026-09-02T22:09:17Z</time>
  <course>72.2</course>
  <speed>0.01</speed>
  <fix>3d</fix>
</trkpt>
<trkpt lat="33.8106154" lon="-118.3935696">
  <ele>-9.953</ele>
  <time>2026-09-02T22:09:17Z</time>
  <course>158.46</course>
  <speed>0.04</speed>
  <fix>3d</fix>
</trkpt>
<trkpt lat="33.8106154" lon="-118.3935696">
  <ele>-10.029</ele>
  <time>2026-09-02T22:09:17Z</time>
  <course>158.46</course>
  <speed>0.04</speed>
  <fix>3d</fix>
</trkpt>
<trkpt lat="33.8106155" lon="-118.3935698">
  <ele>-9.12</ele>
  <time>2026-09-02T22:09:17Z</time>
  <course>72.21</course>
  <speed>0.01</speed>
  <fix>3d</fix>
</trkpt>
<trkpt lat="33.8106154" lon="-118.3935696">
  <ele>-10.068</ele>
  <time>2026-09-02T22:09:17Z</time>
  <course>158.46</course>
  <speed>0.04</speed>
  <fix>3d</fix>
</trkpt>
<trkpt lat="33.8106154" lon="-118.3935696">
  <ele>-10.15</ele>
  <time>2026-09-02T22:09:17Z</time>
  <course>158.46</course>
  <speed>0.04</speed>
  <fix>3d</fix>
</trkpt>
<trkpt lat="33.8106155" lon="-118.3935698">
  <ele>-9.12</ele>
  <time>2026-09-02T22:09:17Z</time>
  <course>72.21</course>
  <speed>0.01</speed>
  <fix>3d</fix>
</trkpt>
<trkpt lat="33.8106154" lon="-118.3935696">
  <ele>-10.198</ele>
  <time>2026-09-02T22:09:17Z</time>
  <course>158.46</course>
  <speed>0.04</speed>
  <fix>3d</fix>
</trkpt>
<trkpt lat="33.8106154" lon="-118.3935696">
  <ele>-10.27</ele>
  <time>2026-09-02T22:09:17Z</time>
  <course>158.46</course>
  <speed>0.04</speed>
  <fix>3d</fix>
</trkpt>
<trkpt lat="33.8106155" lon="-118.3935698">
  <ele>-9.36</ele>
  <time>2026-09-02T22:09:17Z</time>
  <course>72.2</course>
  <speed>0.01</speed>
  <fix>3d</fix>
</trkpt>
<trkpt lat="33.8106154" lon="-118.3935696">
  <ele>-10.309</ele>
  <time>2026-09-02T22:09:17Z</time>
  <course>158.46</course>
  <speed>0.04</speed>
  <fix>3d</fix>
</trkpt>
<trkpt lat="33.8106154" lon="-118.3935695">
  <ele>-10.39</ele>
  <time>2026-09-02T22:09:17Z</time>
  <course>158.46</course>
  <speed>0.04</speed>
  <fix>3d</fix>
</trkpt>
<trkpt lat="33.8106155" lon="-118.3935698">
  <ele>-9.36</ele>
  <time>2026-09-02T22:09:17Z</time>
  <course>72.2</course>
  <speed>0.01</speed>
  <fix>3d</fix>
</trkpt>
<trkpt lat="33.8106154" lon="-118.3935695">
  <ele>-10.435</ele>
  <time>2026-09-02T22:09:17Z</time>
  <course>158.46</course>
  <speed>0.04</speed>
  <fix>3d</fix>
</trkpt>
<trkpt lat="33.8106154" lon="-118.3935695">
  <ele>-10.511</ele>
  <time>2026-09-02T22:09:17Z</time>
  <course>158.46</course>
  <speed>0.04</speed>
  <fix>3d</fix>
</trkpt>
<trkpt lat="33.8106155" lon="-118.3935697">
  <ele>-9.6</ele>
  <time>2026-09-02T22:09:17Z</time>
  <course>72.14</course>
  <speed>0.01</speed>
  <fix>3d</fix>
</trkpt>
<trkpt lat="33.8106154" lon="-118.3935695">
  <ele>-10.55</ele>
  <time>2026-09-02T22:09:17Z</time>
  <course>158.46</course>
  <speed>0.04</speed>
  <fix>3d</fix>
</trkpt>
<trkpt lat="33.8106154" lon="-118.3935695">
  <ele>-10.632</ele>
  <time>2026-09-02T22:09:17Z</time>
  <course>158.47</course>
  <speed>0.04</speed>
  <fix>3d</fix>
</trkpt>
<trkpt lat="33.8106155" lon="-118.3935697">
  <ele>-9.6</ele>
  <time>2026-09-02T22:09:17Z</time>
  <course>72.14</course>
  <speed>0.01</speed>
  <fix>3d</fix>
</trkpt>
<trkpt lat="33.8106154" lon="-118.3935695">
  <ele>-10.635</ele>
  <time>2026-09-02T22:09:17Z</time>
  <course>158.47</course>
  <speed>0.04</speed>
  <fix>3d</fix>
</trkpt>
<trkpt lat="33.8106154" lon="-118.3935695">
  <ele>-10.753</ele>
  <time>2026-09-02T22:09:17Z</time>
  <course>158.47</course>
  <speed>0.04</speed>
  <fix>3d</fix>
</trkpt>
<trkpt lat="33.8106155" lon="-118.3935697">
  <ele>-9.83</ele>
  <time>2026-09-02T22:09:17Z</time>
  <course>72.08</course>
  <speed>0.01</speed>
  <fix>3d</fix>
</trkpt>
<trkpt lat="33.8106154" lon="-118.3935695">
  <ele>-10.756</ele>
  <time>2026-09-02T22:09:17Z</time>
  <course>158.47</course>
  <speed>0.04</speed>
  <fix>3d</fix>
</trkpt>
<trkpt lat="33.8106154" lon="-118.3935695">
  <ele>-10.874</ele>
  <time>2026-09-02T22:09:17Z</time>
  <course>158.47</course>
  <speed>0.04</speed>
  <fix>3d</fix>
</trkpt>
<trkpt lat="33.8106155" lon="-118.3935697">
  <ele>-9.83</ele>
  <time>2026-09-02T22:09:17Z</time>
  <course>72.08</course>
  <speed>0.01</speed>
  <fix>3d</fix>
</trkpt>
<trkpt lat="33.8106154" lon="-118.3935695">
  <ele>-10.913</ele>
  <time>2026-09-02T22:09:17Z</time>
  <course>158.47</course>
  <speed>0.04</speed>
  <fix>3d</fix>
</trkpt>
<trkpt lat="33.8106154" lon="-118.3935694">
  <ele>-10.993</ele>
  <time>2026-09-02T22:09:17Z</time>
  <course>158.47</course>
  <speed>0.04</speed>
  <fix>3d</fix>
</trkpt>
<trkpt lat="33.8106155" lon="-118.3935697">
  <ele>-10.07</ele>
  <time>2026-09-02T22:09:17Z</time>
  <course>72.03</course>
  <speed>0.01</speed>
  <fix>3d</fix>
</trkpt>
<trkpt lat="33.8106154" lon="-118.3935694">
  <ele>-10.996</ele>
  <time>2026-09-02T22:09:17Z</time>
  <course>158.47</course>
  <speed>0.04</speed>
  <fix>3d</fix>
</trkpt>
<trkpt lat="33.8106154" lon="-118.3935694">
  <ele>-11.114</ele>
  <time>2026-09-02T22:09:17Z</time>
  <course>158.47</course>
  <speed>0.04</speed>
  <fix>3d</fix>
</trkpt>
<trkpt lat="33.8106155" lon="-118.3935697">
  <ele>-10.07</ele>
  <time>2026-09-02T22:09:17Z</time>
  <course>72.03</course>
  <speed>0.01</speed>
  <fix>3d</fix>
</trkpt>
<trkpt lat="33.8106154" lon="-118.3935694">
  <ele>-11.153</ele>
  <time>2026-09-02T22:09:17Z</time>
  <course>158.47</course>
  <speed>0.04</speed>
  <fix>3d</fix>
</trkpt>
<trkpt lat="33.8106154" lon="-118.3935694">
  <ele>-11.234</ele>
  <time>2026-09-02T22:09:17Z</time>
  <course>158.48</course>
  <speed>0.04</speed>
  <fix>3d</fix>
</trkpt>
<trkpt lat="33.8106155" lon="-118.3935696">
  <ele>-10.3</ele>
  <time>2026-09-02T22:09:17Z</time>
  <course>72.03</course>
  <speed>0.01</speed>
  <fix>3d</fix>
</trkpt>
<trkpt lat="33.8106154" lon="-118.3935694">
  <ele>-11.274</ele>
  <time>2026-09-02T22:09:17Z</time>
  <course>158.48</course>
  <speed>0.04</speed>
  <fix>3d</fix>
</trkpt>
<trkpt lat="33.8106154" lon="-118.3935694">
  <ele>-11.355</ele>
  <time>2026-09-02T22:09:17Z</time>
  <course>158.48</course>
  <speed>0.04</speed>
  <fix>3d</fix>
</trkpt>
<trkpt lat="33.8106155" lon="-118.3935696">
  <ele>-10.3</ele>
  <time>2026-09-02T22:09:17Z</time>
  <course>72.03</course>
  <speed>0.01</speed>
  <fix>3d</fix>
</trkpt>
<trkpt lat="33.8106154" lon="-118.3935694">
  <ele>-11.395</ele>
  <time>2026-09-02T22:09:17Z</time>
  <course>158.48</course>
  <speed>0.04</speed>
  <fix>3d</fix>
</trkpt>
<trkpt lat="33.8106154" lon="-118.3935694">
  <ele>-11.477</ele>
  <time>2026-09-02T22:09:17Z</time>
  <course>158.48</course>
  <speed>0.04</speed>
  <fix>3d</fix>
</trkpt>
<trkpt lat="33.8106156" lon="-118.3935696">
  <ele>-10.54</ele>
  <time>2026-09-02T22:09:17Z</time>
  <course>72.05</course>
  <speed>0.01</speed>
  <fix>3d</fix>
</trkpt>
<trkpt lat="33.8106154" lon="-118.3935694">
  <ele>-11.516</ele>
  <time>2026-09-02T22:09:17Z</time>
  <course>158.48</course>
  <speed>0.04</speed>
  <fix>3d</fix>
</trkpt>
<trkpt lat="33.8106154" lon="-118.3935693">
  <ele>-11.599</ele>
  <time>2026-09-02T22:09:17Z</time>
  <course>158.48</course>
  <speed>0.04</speed>
  <fix>3d</fix>
</trkpt>
<trkpt lat="33.8106156" lon="-118.3935696">
  <ele>-10.54</ele>
  <time>2026-09-02T22:09:17Z</time>
  <course>72.05</course>
  <speed>0.01</speed>
  <fix>3d</fix>
</trkpt>
<trkpt lat="33.8106154" lon="-118.3935693">
  <ele>-11.645</ele>
  <time>2026-09-02T22:09:17Z</time>
  <course>158.48</course>
  <speed>0.04</speed>
  <fix>3d</fix>
</trkpt>
<trkpt lat="33.8106154" lon="-118.3935693">
  <ele>-11.721</ele>
  <time>2026-09-02T22:09:17Z</time>
  <course>158.48</course>
  <speed>0.04</speed>
  <fix>3d</fix>
</trkpt>
<trkpt lat="33.8106156" lon="-118.3935696">
  <ele>-10.78</ele>
  <time>2026-09-02T22:09:17Z</time>
  <course>72.06</course>
  <speed>0.01</speed>
  <fix>3d</fix>
</trkpt>
<trkpt lat="33.8106154" lon="-118.3935693">
  <ele>-11.76</ele>
  <time>2026-09-02T22:09:17Z</time>
  <course>158.48</course>
  <speed>0.04</speed>
  <fix>3d</fix>
</trkpt>
<trkpt lat="33.8106154" lon="-118.3935693">
  <ele>-11.842</ele>
  <time>2026-09-02T22:09:17Z</time>
  <course>158.48</course>
  <speed>0.04</speed>
  <fix>3d</fix>
</trkpt>
<trkpt lat="33.8106156" lon="-118.3935696">
  <ele>-10.78</ele>
  <time>2026-09-02T22:09:17Z</time>
  <course>72.06</course>
  <speed>0.01</speed>
  <fix>3d</fix>
</trkpt>
<trkpt lat="33.8106154" lon="-118.3935693">
  <ele>-11.887</ele>
  <time>2026-09-02T22:09:17Z</time>
  <course>158.49</course>
  <speed>0.04</speed>
  <fix>3d</fix>
</trkpt>
<trkpt lat="33.8106154" lon="-118.3935693">
  <ele>-11.963</ele>
  <time>2026-09-02T22:09:17Z</time>
  <course>158.49</course>
  <speed>0.04</speed>
  <fix>3d</fix>
</trkpt>
<trkpt lat="33.8106156" lon="-118.3935695">
  <ele>-11.02</ele>
  <time>2026-09-02T22:09:17Z</time>
  <course>72.03</course>
  <speed>0.01</speed>
  <fix>3d</fix>
</trkpt>
<trkpt lat="33.8106154" lon="-118.3935693">
  <ele>-12.003</ele>
  <time>2026-09-02T22:09:17Z</time>
  <course>158.49</course>
  <speed>0.04</speed>
  <fix>3d</fix>
</trkpt>
<trkpt lat="33.8106154" lon="-118.3935693">
  <ele>-12.084</ele>
  <time>2026-09-02T22:09:17Z</time>
  <course>158.49</course>
  <speed>0.04</speed>
  <fix>3d</fix>
</trkpt>
<trkpt lat="33.8106156" lon="-118.3935695">
  <ele>-11.02</ele>
  <time>2026-09-02T22:09:17Z</time>
  <course>72.03</course>
  <speed>0.01</speed>
  <fix>3d</fix>
</trkpt>
<trkpt lat="33.8106154" lon="-118.3935692">
  <ele>-12.129</ele>
  <time>2026-09-02T22:09:17Z</time>
  <course>158.49</course>
  <speed>0.04</speed>
  <fix>3d</fix>
</trkpt>
<trkpt lat="33.8106154" lon="-118.3935692">
  <ele>-12.205</ele>
  <time>2026-09-02T22:09:17Z</time>
  <course>158.49</course>
  <speed>0.04</speed>
  <fix>3d</fix>
</trkpt>
<trkpt lat="33.8106156" lon="-118.3935695">
  <ele>-11.25</ele>
  <time>2026-09-02T22:09:17Z</time>
  <course>71.97</course>
  <speed>0.01</speed>
  <fix>3d</fix>
</trkpt>
<trkpt lat="33.8106154" lon="-118.3935692">
  <ele>-12.247</ele>
  <time>2026-09-02T22:09:17Z</time>
  <course>158.49</course>
  <speed>0.04</speed>
  <fix>3d</fix>
</trkpt>
<trkpt lat="33.8106155" lon="-118.3935692">
  <ele>-12.326</ele>
  <time>2026-09-02T22:09:17Z</time>
  <course>158.49</course>
  <speed>0.04</speed>
  <fix>3d</fix>
</trkpt>
<trkpt lat="33.8106156" lon="-118.3935695">
  <ele>-11.25</ele>
  <time>2026-09-02T22:09:17Z</time>
  <course>71.97</course>
  <speed>0.01</speed>
  <fix>3d</fix>
</trkpt>
<trkpt lat="33.8106155" lon="-118.3935692">
  <ele>-12.328</ele>
  <time>2026-09-02T22:09:17Z</time>
  <course>158.49</course>
  <speed>0.04</speed>
  <fix>3d</fix>
</trkpt>
<trkpt lat="33.8106155" lon="-118.3935692">
  <ele>-12.446</ele>
  <time>2026-09-02T22:09:17Z</time>
  <course>158.5</course>
  <speed>0.04</speed>
  <fix>3d</fix>
</trkpt>
<trkpt lat="33.8106156" lon="-118.3935695">
  <ele>-11.49</ele>
  <time>2026-09-02T22:09:17Z</time>
  <course>71.92</course>
  <speed>0.01</speed>
  <fix>3d</fix>
</trkpt>
<trkpt lat="33.8106155" lon="-118.3935692">
  <ele>-12.491</ele>
  <time>2026-09-02T22:09:17Z</time>
  <course>158.5</course>
  <speed>0.04</speed>
  <fix>3d</fix>
</trkpt>
<trkpt lat="33.8106155" lon="-118.3935692">
  <ele>-12.567</ele>
  <time>2026-09-02T22:09:17Z</time>
  <course>158.5</course>
  <speed>0.04</speed>
  <fix>3d</fix>
</trkpt>
<trkpt lat="33.8106156" lon="-118.3935695">
  <ele>-11.49</ele>
  <time>2026-09-02T22:09:17Z</time>
  <course>71.92</course>
  <speed>0.01</speed>
  <fix>3d</fix>
</trkpt>
<trkpt lat="33.8106155" lon="-118.3935692">
  <ele>-12.607</ele>
  <time>2026-09-02T22:09:17Z</time>
  <course>158.5</course>
  <speed>0.04</speed>
  <fix>3d</fix>
</trkpt>
<trkpt lat="33.8106155" lon="-118.3935692">
  <ele>-12.689</ele>
  <time>2026-09-02T22:09:18Z</time>
  <course>158.5</course>
  <speed>0.04</speed>
  <fix>3d</fix>
</trkpt>
<trkpt lat="33.8106156" lon="-118.3935694">
  <ele>-11.73</ele>
  <time>2026-09-02T22:09:18Z</time>
  <course>71.9</course>
  <speed>0.01</speed>
  <fix>3d</fix>
</trkpt>
<trkpt lat="33.8106155" lon="-118.3935692">
  <ele>-12.731</ele>
  <time>2026-09-02T22:09:18Z</time>
  <course>158.5</course>
  <speed>0.04</speed>
  <fix>3d</fix>
</trkpt>
<trkpt lat="33.8106155" lon="-118.3935691">
  <ele>-12.811</ele>
  <time>2026-09-02T22:09:18Z</time>
  <course>158.5</course>
  <speed>0.05</speed>
  <fix>3d</fix>
</trkpt>
<trkpt lat="33.8106156" lon="-118.3935694">
  <ele>-11.73</ele>
  <time>2026-09-02T22:09:18Z</time>
  <course>71.9</course>
  <speed>0.01</speed>
  <fix>3d</fix>
</trkpt>
<trkpt lat="33.8106155" lon="-118.3935691">
  <ele>-12.85</ele>
  <time>2026-09-02T22:09:18Z</time>
  <course>158.5</course>
  <speed>0.05</speed>
  <fix>3d</fix>
</trkpt>
<trkpt lat="33.8106155" lon="-118.3935691">
  <ele>-12.932</ele>
  <time>2026-09-02T22:09:18Z</time>
  <course>158.5</course>
  <speed>0.05</speed>
  <fix>3d</fix>
</trkpt>
<trkpt lat="33.8106156" lon="-118.3935694">
  <ele>-11.96</ele>
  <time>2026-09-02T22:09:18Z</time>
  <course>71.91</course>
  <speed>0.01</speed>
  <fix>3d</fix>
</trkpt>
<trkpt lat="33.8106155" lon="-118.3935691">
  <ele>-12.977</ele>
  <time>2026-09-02T22:09:18Z</time>
  <course>158.5</course>
  <speed>0.05</speed>
  <fix>3d</fix>
</trkpt>
<trkpt lat="33.8106155" lon="-118.3935691">
  <ele>-13.052</ele>
  <time>2026-09-02T22:09:18Z</time>
  <course>158.51</course>
  <speed>0.05</speed>
  <fix>3d</fix>
</trkpt>
<trkpt lat="33.8106156" lon="-118.3935694">
  <ele>-11.96</ele>
  <time>2026-09-02T22:09:18Z</time>
  <course>71.91</course>
  <speed>0.01</speed>
  <fix>3d</fix>
</trkpt>
<trkpt lat="33.8106155" lon="-118.3935691">
  <ele>-13.091</ele>
  <time>2026-09-02T22:09:18Z</time>
  <course>158.51</course>
  <speed>0.05</speed>
  <fix>3d</fix>
</trkpt>
<trkpt lat="33.8106155" lon="-118.3935691">
  <ele>-13.172</ele>
  <time>2026-09-02T22:09:18Z</time>
  <course>158.51</course>
  <speed>0.05</speed>
  <fix>3d</fix>
</trkpt>
<trkpt lat="33.8106156" lon="-118.3935694">
  <ele>-12.2</ele>
  <time>2026-09-02T22:09:18Z</time>
  <course>71.93</course>
  <speed>0.01</speed>
  <fix>3d</fix>
</trkpt>
<trkpt lat="33.8106155" lon="-118.3935691">
  <ele>-13.217</ele>
  <time>2026-09-02T22:09:18Z</time>
  <course>158.51</course>
  <speed>0.05</speed>
  <fix>3d</fix>
</trkpt>
<trkpt lat="33.8106155" lon="-118.3935691">
  <ele>-13.292</ele>
  <time>2026-09-02T22:09:18Z</time>
  <course>158.51</course>
  <speed>0.05</speed>
  <fix>3d</fix>
</trkpt>
<trkpt lat="33.8106156" lon="-118.3935694">
  <ele>-12.2</ele>
  <time>2026-09-02T22:09:18Z</time>
  <course>71.93</course>
  <speed>0.01</speed>
  <fix>3d</fix>
</trkpt>
<trkpt lat="33.8106155" lon="-118.393569">
  <ele>-13.328</ele>
  <time>2026-09-02T22:09:18Z</time>
  <course>158.51</course>
  <speed>0.05</speed>
  <fix>3d</fix>
</trkpt>
<trkpt lat="33.8106155" lon="-118.393569">
  <ele>-13.412</ele>
  <time>2026-09-02T22:09:18Z</time>
  <course>158.51</course>
  <speed>0.05</speed>
  <fix>3d</fix>
</trkpt>
<trkpt lat="33.8106156" lon="-118.3935693">
  <ele>-12.44</ele>
  <time>2026-09-02T22:09:18Z</time>
  <course>71.93</course>
  <speed>0.01</speed>
  <fix>3d</fix>
</trkpt>
<trkpt lat="33.8106155" lon="-118.393569">
  <ele>-13.452</ele>
  <time>2026-09-02T22:09:18Z</time>
  <course>158.51</course>
  <speed>0.05</speed>
  <fix>3d</fix>
</trkpt>
<trkpt lat="33.8106155" lon="-118.393569">
  <ele>-13.534</ele>
  <time>2026-09-02T22:09:18Z</time>
  <course>158.52</course>
  <speed>0.05</speed>
  <fix>3d</fix>
</trkpt>
<trkpt lat="33.8106156" lon="-118.3935693">
  <ele>-12.44</ele>
  <time>2026-09-02T22:09:18Z</time>
  <course>71.93</course>
  <speed>0.01</speed>
  <fix>3d</fix>
</trkpt>
<trkpt lat="33.8106155" lon="-118.393569">
  <ele>-13.576</ele>
  <time>2026-09-02T22:09:18Z</time>
  <course>158.52</course>
  <speed>0.05</speed>
  <fix>3d</fix>
</trkpt>
<trkpt lat="33.8106155" lon="-118.393569">
  <ele>-13.654</ele>
  <time>2026-09-02T22:09:18Z</time>
  <course>158.52</course>
  <speed>0.05</speed>
  <fix>3d</fix>
</trkpt>
<trkpt lat="33.8106156" lon="-118.3935693">
  <ele>-12.67</ele>
  <time>2026-09-02T22:09:18Z</time>
  <course>71.9</course>
  <speed>0.01</speed>
  <fix>3d</fix>
</trkpt>
<trkpt lat="33.8106155" lon="-118.393569">
  <ele>-13.657</ele>
  <time>2026-09-02T22:09:18Z</time>
  <course>158.52</course>
  <speed>0.05</speed>
  <fix>3d</fix>
</trkpt>
<trkpt lat="33.8106155" lon="-118.393569">
  <ele>-13.774</ele>
  <time>2026-09-02T22:09:18Z</time>
  <course>158.52</course>
  <speed>0.05</speed>
  <fix>3d</fix>
</trkpt>
<trkpt lat="33.8106156" lon="-118.3935693">
  <ele>-12.67</ele>
  <time>2026-09-02T22:09:18Z</time>
  <course>71.9</course>
  <speed>0.01</speed>
  <fix>3d</fix>
</trkpt>
<trkpt lat="33.8106155" lon="-118.393569">
  <ele>-13.816</ele>
  <time>2026-09-02T22:09:18Z</time>
  <course>158.52</course>
  <speed>0.05</speed>
  <fix>3d</fix>
</trkpt>
<trkpt lat="33.8106155" lon="-118.393569">
  <ele>-13.894</ele>
  <time>2026-09-02T22:09:18Z</time>
  <course>158.52</course>
  <speed>0.05</speed>
  <fix>3d</fix>
</trkpt>
<trkpt lat="33.8106156" lon="-118.3935693">
  <ele>-12.91</ele>
  <time>2026-09-02T22:09:18Z</time>
  <course>71.84</course>
  <speed>0.01</speed>
  <fix>3d</fix>
</trkpt>
<trkpt lat="33.8106155" lon="-118.393569">
  <ele>-13.897</ele>
  <time>2026-09-02T22:09:18Z</time>
  <course>158.52</course>
  <speed>0.05</speed>
  <fix>3d</fix>
</trkpt>
<trkpt lat="33.8106155" lon="-118.3935689">
  <ele>-14.014</ele>
  <time>2026-09-02T22:09:18Z</time>
  <course>158.53</course>
  <speed>0.05099019513592785</speed>
  <fix>3d</fix>
</trkpt>
<trkpt lat="33.8106156" lon="-118.3935693">
  <ele>-12.91</ele>
  <time>2026-09-02T22:09:18Z</time>
  <course>71.84</course>
  <speed>0.01</speed>
  <fix>3d</fix>
</trkpt>
<trkpt lat="33.8106155" lon="-118.3935689">
  <ele>-14.05</ele>
  <time>2026-09-02T22:09:18Z</time>
  <course>158.53</course>
  <speed>0.05099019513592785</speed>
  <fix>3d</fix>
</trkpt>
<trkpt lat="33.8106155" lon="-118.3935689">
  <ele>-14.135</ele>
  <time>2026-09-02T22:09:18Z</time>
  <course>158.53</course>
  <speed>0.05099019513592785</speed>
  <fix>3d</fix>
</trkpt>
<trkpt lat="33.8106157" lon="-118.3935692">
  <ele>-13.14</ele>
  <time>2026-09-02T22:09:18Z</time>
  <course>71.81</course>
  <speed>0.01</speed>
  <fix>3d</fix>
</trkpt>
<trkpt lat="33.8106155" lon="-118.3935689">
  <ele>-14.18</ele>
  <time>2026-09-02T22:09:18Z</time>
  <course>158.53</course>
  <speed>0.05099019513592785</speed>
  <fix>3d</fix>
</trkpt>
<trkpt lat="33.8106155" lon="-118.3935689">
  <ele>-14.256</ele>
  <time>2026-09-02T22:09:18Z</time>
  <course>158.53</course>
  <speed>0.05099019513592785</speed>
  <fix>3d</fix>
</trkpt>
<trkpt lat="33.8106157" lon="-118.3935692">
  <ele>-13.14</ele>
  <time>2026-09-02T22:09:18Z</time>
  <course>71.81</course>
  <speed>0.01</speed>
  <fix>3d</fix>
</trkpt>
<trkpt lat="33.8106155" lon="-118.3935689">
  <ele>-14.296</ele>
  <time>2026-09-02T22:09:18Z</time>
  <course>158.53</course>
  <speed>0.05099019513592785</speed>
  <fix>3d</fix>
</trkpt>
<trkpt lat="33.8106155" lon="-118.3935689">
  <ele>-14.378</ele>
  <time>2026-09-02T22:09:18Z</time>
  <course>158.53</course>
  <speed>0.05099019513592785</speed>
  <fix>3d</fix>
</trkpt>
<trkpt lat="33.8106157" lon="-118.3935692">
  <ele>-13.38</ele>
  <time>2026-09-02T22:09:18Z</time>
  <course>71.8</course>
  <speed>0.01</speed>
  <fix>3d</fix>
</trkpt>
<trkpt lat="33.8106155" lon="-118.3935689">
  <ele>-14.418</ele>
  <time>2026-09-02T22:09:18Z</time>
  <course>158.53</course>
  <speed>0.05099019513592785</speed>
  <fix>3d</fix>
</trkpt>
<trkpt lat="33.8106155" lon="-118.3935689">
  <ele>-14.501</ele>
  <time>2026-09-02T22:09:18Z</time>
  <course>158.53</course>
  <speed>0.05099019513592785</speed>
  <fix>3d</fix>
</trkpt>
<trkpt lat="33.8106157" lon="-118.3935692">
  <ele>-13.38</ele>
  <time>2026-09-02T22:09:18Z</time>
  <course>71.8</course>
  <speed>0.01</speed>
  <fix>3d</fix>
</trkpt>
<trkpt lat="33.8106155" lon="-118.3935688">
  <ele>-14.543</ele>
  <time>2026-09-02T22:09:18Z</time>
  <course>158.53</course>
  <speed>0.05099019513592785</speed>
  <fix>3d</fix>
</trkpt>
<trkpt lat="33.8106155" lon="-118.3935688">
  <ele>-14.623</ele>
  <time>2026-09-02T22:09:18Z</time>
  <course>158.53</course>
  <speed>0.05099019513592785</speed>
  <fix>3d</fix>
</trkpt>
<trkpt lat="33.8106157" lon="-118.3935692">
  <ele>-13.62</ele>
  <time>2026-09-02T22:09:18Z</time>
  <course>71.82</course>
  <speed>0.01</speed>
  <fix>3d</fix>
</trkpt>
<trkpt lat="33.8106155" lon="-118.3935688">
  <ele>-14.661</ele>
  <time>2026-09-02T22:09:18Z</time>
  <course>158.53</course>
  <speed>0.05099019513592785</speed>
  <fix>3d</fix>
</trkpt>
<trkpt lat="33.8106155" lon="-118.3935688">
  <ele>-14.745</ele>
  <time>2026-09-02T22:09:18Z</time>
  <course>158.54</course>
  <speed>0.05099019513592785</speed>
  <fix>3d</fix>
</trkpt>
<trkpt lat="33.8106157" lon="-118.3935692">
  <ele>-13.62</ele>
  <time>2026-09-02T22:09:18Z</time>
  <course>71.82</course>
  <speed>0.01</speed>
  <fix>3d</fix>
</trkpt>
<trkpt lat="33.8106155" lon="-118.3935688">
  <ele>-14.797</ele>
  <time>2026-09-02T22:09:18Z</time>
  <course>158.54</course>
  <speed>0.05099019513592785</speed>
  <fix>3d</fix>
</trkpt>
<trkpt lat="33.8106155" lon="-118.3935688">
  <ele>-14.868</ele>
  <time>2026-09-02T22:09:18Z</time>
  <course>158.54</course>
  <speed>0.05099019513592785</speed>
  <fix>3d</fix>
</trkpt>
<trkpt lat="33.8106157" lon="-118.3935691">
  <ele>-13.85</ele>
  <time>2026-09-02T22:09:18Z</time>
  <course>71.85</course>
  <speed>0.01</speed>
  <fix>3d</fix>
</trkpt>
<trkpt lat="33.8106155" lon="-118.3935688">
  <ele>-14.905</ele>
  <time>2026-09-02T22:09:18Z</time>
  <course>158.54</course>
  <speed>0.05099019513592785</speed>
  <fix>3d</fix>
</trkpt>
<trkpt lat="33.8106155" lon="-118.3935688">
  <ele>-14.992</ele>
  <time>2026-09-02T22:09:18Z</time>
  <course>158.54</course>
  <speed>0.05099019513592785</speed>
  <fix>3d</fix>
</trkpt>
<trkpt lat="33.8106157" lon="-118.3935691">
  <ele>-13.85</ele>
  <time>2026-09-02T22:09:18Z</time>
  <course>71.85</course>
  <speed>0.01</speed>
  <fix>3d</fix>
</trkpt>
<trkpt lat="33.8106155" lon="-118.3935688">
  <ele>-14.994</ele>
  <time>2026-09-02T22:09:18Z</time>
  <course>158.54</course>
  <speed>0.05099019513592785</speed>
  <fix>3d</fix>
</trkpt>
<trkpt lat="33.8106155" lon="-118.3935688">
  <ele>-15.115</ele>
  <time>2026-09-02T22:09:18Z</time>
  <course>158.54</course>
  <speed>0.05099019513592785</speed>
  <fix>3d</fix>
</trkpt>
<trkpt lat="33.8106157" lon="-118.3935691">
  <ele>-14.09</ele>
  <time>2026-09-02T22:09:18Z</time>
  <course>71.84</course>
  <speed>0.01</speed>
  <fix>3d</fix>
</trkpt>
<trkpt lat="33.8106155" lon="-118.3935688">
  <ele>-15.151</ele>
  <time>2026-09-02T22:09:18Z</time>
  <course>158.54</course>
  <speed>0.05099019513592785</speed>
  <fix>3d</fix>
</trkpt>
<trkpt lat="33.8106155" lon="-118.3935687">
  <ele>-15.237</ele>
  <time>2026-09-02T22:09:18Z</time>
  <course>158.54</course>
  <speed>0.05099019513592785</speed>
  <fix>3d</fix>
</trkpt>
<trkpt lat="33.8106157" lon="-118.3935691">
  <ele>-14.09</ele>
  <time>2026-09-02T22:09:18Z</time>
  <course>71.84</course>
  <speed>0.01</speed>
  <fix>3d</fix>
</trkpt>
<trkpt lat="33.8106155" lon="-118.3935687">
  <ele>-15.24</ele>
  <time>2026-09-02T22:09:18Z</time>
  <course>158.54</course>
  <speed>0.05099019513592785</speed>
  <fix>3d</fix>
</trkpt>
<trkpt lat="33.8106155" lon="-118.3935687">
  <ele>-15.358</ele>
  <time>2026-09-02T22:09:18Z</time>
  <course>158.55</course>
  <speed>0.05099019513592785</speed>
  <fix>3d</fix>
</trkpt>
<trkpt lat="33.8106157" lon="-118.3935691">
  <ele>-14.33</ele>
  <time>2026-09-02T22:09:18Z</time>
  <course>71.8</course>
  <speed>0.01</speed>
  <fix>3d</fix>
</trkpt>
<trkpt lat="33.8106155" lon="-118.3935687">
  <ele>-15.361</ele>
  <time>2026-09-02T22:09:18Z</time>
  <course>158.55</course>
  <speed>0.05099019513592785</speed>
  <fix>3d</fix>
</trkpt>
<trkpt lat="33.8106155" lon="-118.3935687">
  <ele>-15.48</ele>
  <time>2026-09-02T22:09:18Z</time>
  <course>158.55</course>
  <speed>0.05099019513592785</speed>
  <fix>3d</fix>
</trkpt>
<trkpt lat="33.8106157" lon="-118.3935691">
  <ele>-14.33</ele>
  <time>2026-09-02T22:09:18Z</time>
  <course>71.8</course>
  <speed>0.01</speed>
  <fix>3d</fix>
</trkpt>
<trkpt lat="33.8106155" lon="-118.3935687">
  <ele>-15.52</ele>
  <time>2026-09-02T22:09:18Z</time>
  <course>158.55</course>
  <speed>0.05099019513592785</speed>
  <fix>3d</fix>
</trkpt>
<trkpt lat="33.8106155" lon="-118.3935687">
  <ele>-15.604</ele>
  <time>2026-09-02T22:09:18Z</time>
  <course>158.55</course>
  <speed>0.05099019513592785</speed>
  <fix>3d</fix>
</trkpt>
<trkpt lat="33.8106157" lon="-118.393569">
  <ele>-14.56</ele>
  <time>2026-09-02T22:09:18Z</time>
  <course>71.76</course>
  <speed>0.01</speed>
  <fix>3d</fix>
</trkpt>
<trkpt lat="33.8106155" lon="-118.3935687">
  <ele>-15.644</ele>
  <time>2026-09-02T22:09:18Z</time>
  <course>158.55</course>
  <speed>0.05099019513592785</speed>
  <fix>3d</fix>
</trkpt>
<trkpt lat="33.8106155" lon="-118.3935687">
  <ele>-15.727</ele>
  <time>2026-09-02T22:09:18Z</time>
  <course>158.55</course>
  <speed>0.05099019513592785</speed>
  <fix>3d</fix>
</trkpt>
<trkpt lat="33.8106157" lon="-118.393569">
  <ele>-14.56</ele>
  <time>2026-09-02T22:09:18Z</time>
  <course>71.76</course>
  <speed>0.01</speed>
  <fix>3d</fix>
</trkpt>
<trkpt lat="33.8106156" lon="-118.3935687">
  <ele>-15.77</ele>
  <time>2026-09-02T22:09:18Z</time>
  <course>158.56</course>
  <speed>0.05099019513592785</speed>
  <fix>3d</fix>
</trkpt>
<trkpt lat="33.8106156" lon="-118.3935687">
  <ele>-15.849</ele>
  <time>2026-09-02T22:09:18Z</time>
  <course>158.56</course>
  <speed>0.05099019513592785</speed>
  <fix>3d</fix>
</trkpt>
<trkpt lat="33.8106157" lon="-118.393569">
  <ele>-14.8</ele>
  <time>2026-09-02T22:09:18Z</time>
  <course>71.73</course>
  <speed>0.01</speed>
  <fix>3d</fix>
</trkpt>
<trkpt lat="33.8106156" lon="-118.3935687">
  <ele>-15.888</ele>
  <time>2026-09-02T22:09:18Z</time>
  <course>158.56</course>
  <speed>0.05099019513592785</speed>
  <fix>3d</fix>
</trkpt>
<trkpt lat="33.8106156" lon="-118.3935686">
  <ele>-15.97</ele>
  <time>2026-09-02T22:09:18Z</time>
  <course>158.56</course>
  <speed>0.05099019513592785</speed>
  <fix>3d</fix>
</trkpt>
<trkpt lat="33.8106157" lon="-118.393569">
  <ele>-14.8</ele>
  <time>2026-09-02T22:09:18Z</time>
  <course>71.73</course>
  <speed>0.01</speed>
  <fix>3d</fix>
</trkpt>
<trkpt lat="33.8106156" lon="-118.3935686">
  <ele>-16.022</ele>
  <time>2026-09-02T22:09:18Z</time>
  <course>158.56</course>
  <speed>0.05099019513592785</speed>
  <fix>3d</fix>
</trkpt>
<trkpt lat="33.8106156" lon="-118.3935686">
  <ele>-16.093</ele>
  <time>2026-09-02T22:09:18Z</time>
  <course>158.56</course>
  <speed>0.05099019513592785</speed>
  <fix>3d</fix>
</trkpt>
<trkpt lat="33.8106157" lon="-118.393569">
  <ele>-15.04</ele>
  <time>2026-09-02T22:09:18Z</time>
  <course>71.74</course>
  <speed>0.01</speed>
  <fix>3d</fix>
</trkpt>
<trkpt lat="33.8106156" lon="-118.3935686">
  <ele>-16.132</ele>
  <time>2026-09-02T22:09:18Z</time>
  <course>158.56</course>
  <speed>0.05099019513592785</speed>
  <fix>3d</fix>
</trkpt>
<trkpt lat="33.8106156" lon="-118.3935686">
  <ele>-16.214</ele>
  <time>2026-09-02T22:09:18Z</time>
  <course>158.56</course>
  <speed>0.05099019513592785</speed>
  <fix>3d</fix>
</trkpt>
<trkpt lat="33.8106157" lon="-118.393569">
  <ele>-15.04</ele>
  <time>2026-09-02T22:09:18Z</time>
  <course>71.74</course>
  <speed>0.01</speed>
  <fix>3d</fix>
</trkpt>
<trkpt lat="33.8106156" lon="-118.3935686">
  <ele>-16.217</ele>
  <time>2026-09-02T22:09:18Z</time>
  <course>158.56</course>
  <speed>0.05099019513592785</speed>
  <fix>3d</fix>
</trkpt>
<trkpt lat="33.8106156" lon="-118.3935686">
  <ele>-16.337</ele>
  <time>2026-09-02T22:09:18Z</time>
  <course>158.57</course>
  <speed>0.05099019513592785</speed>
  <fix>3d</fix>
</trkpt>
<trkpt lat="33.8106157" lon="-118.3935689">
  <ele>-15.27</ele>
  <time>2026-09-02T22:09:18Z</time>
  <course>71.77</course>
  <speed>0.01</speed>
  <fix>3d</fix>
</trkpt>
<trkpt lat="33.8106156" lon="-118.3935686">
  <ele>-16.373</ele>
  <time>2026-09-02T22:09:18Z</time>
  <course>158.57</course>
  <speed>0.05099019513592785</speed>
  <fix>3d</fix>
</trkpt>
<trkpt lat="33.8106156" lon="-118.3935686">
  <ele>-16.459</ele>
  <time>2026-09-02T22:09:18Z</time>
  <course>158.57</course>
  <speed>0.05099019513592785</speed>
  <fix>3d</fix>
</trkpt>
<trkpt lat="33.8106157" lon="-118.3935689">
  <ele>-15.27</ele>
  <time>2026-09-02T22:09:18Z</time>
  <course>71.77</course>
  <speed>0.01</speed>
  <fix>3d</fix>
</trkpt>
<trkpt lat="33.8106156" lon="-118.3935686">
  <ele>-16.502</ele>
  <time>2026-09-02T22:09:18Z</time>
  <course>158.57</course>
  <speed>0.05099019513592785</speed>
  <fix>3d</fix>
</trkpt>
<trkpt lat="33.8106156" lon="-118.3935686">
  <ele>-16.582</ele>
  <time>2026-09-02T22:09:18Z</time>
  <course>158.57</course>
  <speed>0.05099019513592785</speed>
  <fix>3d</fix>
</trkpt>
<trkpt lat="33.8106157" lon="-118.3935689">
  <ele>-15.51</ele>
  <time>2026-09-02T22:09:18Z</time>
  <course>71.79</course>
  <speed>0.01</speed>
  <fix>3d</fix>
</trkpt>
<trkpt lat="33.8106156" lon="-118.3935686">
  <ele>-16.622</ele>
  <time>2026-09-02T22:09:18Z</time>
  <course>158.57</course>
  <speed>0.05099019513592785</speed>
  <fix>3d</fix>
</trkpt>
<trkpt lat="33.8106156" lon="-118.3935685">
  <ele>-16.705</ele>
  <time>2026-09-02T22:09:18Z</time>
  <course>158.57</course>
  <speed>0.05099019513592785</speed>
  <fix>3d</fix>
</trkpt>
<trkpt lat="33.8106157" lon="-118.3935689">
  <ele>-15.51</ele>
  <time>2026-09-02T22:09:18Z</time>
  <course>71.79</course>
  <speed>0.01</speed>
  <fix>3d</fix>
</trkpt>
<trkpt lat="33.8106156" lon="-118.3935685">
  <ele>-16.754</ele>
  <time>2026-09-02T22:09:18Z</time>
  <course>158.57</course>
  <speed>0.05099019513592785</speed>
  <fix>3d</fix>
</trkpt>
<trkpt lat="33.8106156" lon="-118.3935685">
  <ele>-16.827</ele>
  <time>2026-09-02T22:09:18Z</time>
  <course>158.58</course>
  <speed>0.05099019513592785</speed>
  <fix>3d</fix>
</trkpt>
<trkpt lat="33.8106158" lon="-118.3935689">
  <ele>-15.75</ele>
  <time>2026-09-02T22:09:18Z</time>
  <course>71.78</course>
  <speed>0.01</speed>
  <fix>3d</fix>
</trkpt>
<trkpt lat="33.8106156" lon="-118.3935685">
  <ele>-16.867</ele>
  <time>2026-09-02T22:09:18Z</time>
  <course>158.58</course>
  <speed>0.05099019513592785</speed>
  <fix>3d</fix>
</trkpt>
<trkpt lat="33.8106156" lon="-118.3935685">
  <ele>-16.95</ele>
  <time>2026-09-02T22:09:18Z</time>
  <course>158.58</course>
  <speed>0.05099019513592785</speed>
  <fix>3d</fix>
</trkpt>
<trkpt lat="33.8106158" lon="-118.3935689">
  <ele>-15.75</ele>
  <time>2026-09-02T22:09:18Z</time>
  <course>71.78</course>
  <speed>0.01</speed>
  <fix>3d</fix>
</trkpt>
<trkpt lat="33.8106156" lon="-118.3935685">
  <ele>-16.993</ele>
  <time>2026-09-02T22:09:18Z</time>
  <course>158.58</course>
  <speed>0.05099019513592785</speed>
  <fix>3d</fix>
</trkpt>
<trkpt lat="33.8106156" lon="-118.3935685">
  <ele>-17.073</ele>
  <time>2026-09-02T22:09:18Z</time>
  <course>158.58</course>
  <speed>0.05099019513592785</speed>
  <fix>3d</fix>
</trkpt>
<trkpt lat="33.8106158" lon="-118.3935688">
  <ele>-15.98</ele>
  <time>2026-09-02T22:09:18Z</time>
  <course>71.74</course>
  <speed>0.01</speed>
  <fix>3d</fix>
</trkpt>
<trkpt lat="33.8106156" lon="-118.3935685">
  <ele>-17.112</ele>
  <time>2026-09-02T22:09:18Z</time>
  <course>158.58</course>
  <speed>0.05099019513592785</speed>
  <fix>3d</fix>
</trkpt>
<trkpt lat="33.8106156" lon="-118.3935685">
  <ele>-17.195</ele>
  <time>2026-09-02T22:09:18Z</time>
  <course>158.58</course>
  <speed>0.05099019513592785</speed>
  <fix>3d</fix>
</trkpt>
<trkpt lat="33.8106158" lon="-118.3935688">
  <ele>-15.98</ele>
  <time>2026-09-02T22:09:18Z</time>
  <course>71.74</course>
  <speed>0.01</speed>
  <fix>3d</fix>
</trkpt>
<trkpt lat="33.8106156" lon="-118.3935685">
  <ele>-17.234</ele>
  <time>2026-09-02T22:09:18Z</time>
  <course>158.58</course>
  <speed>0.05099019513592785</speed>
  <fix>3d</fix>
</trkpt>
<trkpt lat="33.8106156" lon="-118.3935685">
  <ele>-17.318</ele>
  <time>2026-09-02T22:09:18Z</time>
  <course>158.58</course>
  <speed>0.05099019513592785</speed>
  <fix>3d</fix>
</trkpt>
<trkpt lat="33.8106158" lon="-118.3935688">
  <ele>-16.22</ele>
  <time>2026-09-02T22:09:18Z</time>
  <course>71.7</course>
  <speed>0.01</speed>
  <fix>3d</fix>
</trkpt>
<trkpt lat="33.8106156" lon="-118.3935685">
  <ele>-17.364</ele>
  <time>2026-09-02T22:09:18Z</time>
  <course>158.58</course>
  <speed>0.05099019513592785</speed>
  <fix>3d</fix>
</trkpt>
<trkpt lat="33.8106156" lon="-118.3935684">
  <ele>-17.441</ele>
  <time>2026-09-02T22:09:18Z</time>
  <course>158.59</course>
  <speed>0.05099019513592785</speed>
  <fix>3d</fix>
</trkpt>
<trkpt lat="33.8106158" lon="-118.3935688">
  <ele>-16.22</ele>
  <time>2026-09-02T22:09:18Z</time>
  <course>71.7</course>
  <speed>0.01</speed>
  <fix>3d</fix>
</trkpt>
<trkpt lat="33.8106156" lon="-118.3935684">
  <ele>-17.478</ele>
  <time>2026-09-02T22:09:18Z</time>
  <course>158.59</course>
  <speed>0.05099019513592785</speed>
  <fix>3d</fix>
</trkpt>
<trkpt lat="33.8106156" lon="-118.3935684">
  <ele>-17.564</ele>
  <time>2026-09-02T22:09:18Z</time>
  <course>158.59</course>
  <speed>0.05099019513592785</speed>
  <fix>3d</fix>
</trkpt>
<trkpt lat="33.8106158" lon="-118.3935688">
  <ele>-16.45</ele>
  <time>2026-09-02T22:09:18Z</time>
  <course>71.69</course>
  <speed>0.01</speed>
  <fix>3d</fix>
</trkpt>
<trkpt lat="33.8106156" lon="-118.3935684">
  <ele>-17.567</ele>
  <time>2026-09-02T22:09:18Z</time>
  <course>158.59</course>
  <speed>0.05099019513592785</speed>
  <fix>3d</fix>
</trkpt>
<trkpt lat="33.8106156" lon="-118.3935684">
  <ele>-17.688</ele>
  <time>2026-09-02T22:09:18Z</time>
  <course>158.59</course>
  <speed>0.05099019513592785</speed>
  <fix>3d</fix>
</trkpt>
<trkpt lat="33.8106158" lon="-118.3935688">
  <ele>-16.45</ele>
  <time>2026-09-02T22:09:18Z</time>
  <course>71.69</course>
  <speed>0.01</speed>
  <fix>3d</fix>
</trkpt>
<trkpt lat="33.8106156" lon="-118.3935684">
  <ele>-17.728</ele>
  <time>2026-09-02T22:09:18Z</time>
  <course>158.59</course>
  <speed>0.05099019513592785</speed>
  <fix>3d</fix>
</trkpt>
<trkpt lat="33.8106156" lon="-118.3935684">
  <ele>-17.809</ele>
  <time>2026-09-02T22:09:18Z</time>
  <course>158.59</course>
  <speed>0.05099019513592785</speed>
  <fix>3d</fix>
</trkpt>
<trkpt lat="33.8106158" lon="-118.3935687">
  <ele>-16.68</ele>
  <time>2026-09-02T22:09:18Z</time>
  <course>71.72</course>
  <speed>0.01</speed>
  <fix>3d</fix>
</trkpt>
<trkpt lat="33.8106156" lon="-118.3935684">
  <ele>-17.849</ele>
  <time>2026-09-02T22:09:18Z</time>
  <course>158.59</course>
  <speed>0.05099019513592785</speed>
  <fix>3d</fix>
</trkpt>
<trkpt lat="33.8106156" lon="-118.3935684">
  <ele>-17.931</ele>
  <time>2026-09-02T22:09:18Z</time>
  <course>158.59</course>
  <speed>0.05099019513592785</speed>
  <fix>3d</fix>
</trkpt>
<trkpt lat="33.8106158" lon="-118.3935687">
  <ele>-16.68</ele>
  <time>2026-09-02T22:09:18Z</time>
  <course>71.72</course>
  <speed>0.01</speed>
  <fix>3d</fix>
</trkpt>
<trkpt lat="33.8106156" lon="-118.3935684">
  <ele>-17.976</ele>
  <time>2026-09-02T22:09:18Z</time>
  <course>158.6</course>
  <speed>0.05099019513592785</speed>
  <fix>3d</fix>
</trkpt>
<trkpt lat="33.8106156" lon="-118.3935684">
  <ele>-18.051</ele>
  <time>2026-09-02T22:09:18Z</time>
  <course>158.6</course>
  <speed>0.05099019513592785</speed>
  <fix>3d</fix>
</trkpt>
<trkpt lat="33.8106158" lon="-118.3935687">
  <ele>-16.93</ele>
  <time>2026-09-02T22:09:18Z</time>
  <course>71.75</course>
  <speed>0.01</speed>
  <fix>3d</fix>
</trkpt>
<trkpt lat="33.8106156" lon="-118.3935684">
  <ele>-18.087</ele>
  <time>2026-09-02T22:09:18Z</time>
  <course>158.6</course>
  <speed>0.05099019513592785</speed>
  <fix>3d</fix>
</trkpt>
<trkpt lat="33.8106156" lon="-118.3935684">
  <ele>-18.171</ele>
  <time>2026-09-02T22:09:18Z</time>
  <course>158.6</course>
  <speed>0.05099019513592785</speed>
  <fix>3d</fix>
</trkpt>
<trkpt lat="33.8106158" lon="-118.3935687">
  <ele>-16.93</ele>
  <time>2026-09-02T22:09:18Z</time>
  <course>71.75</course>
  <speed>0.01</speed>
  <fix>3d</fix>
</trkpt>
<trkpt lat="33.8106156" lon="-118.3935683">
  <ele>-18.213</ele>
  <time>2026-09-02T22:09:18Z</time>
  <course>158.6</course>
  <speed>0.05099019513592785</speed>
  <fix>3d</fix>
</trkpt>
<trkpt lat="33.8106156" lon="-118.3935683">
  <ele>-18.291</ele>
  <time>2026-09-02T22:09:18Z</time>
  <course>158.6</course>
  <speed>0.05099019513592785</speed>
  <fix>3d</fix>
</trkpt>
<trkpt lat="33.8106158" lon="-118.3935687">
  <ele>-17.16</ele>
  <time>2026-09-02T22:09:18Z</time>
  <course>71.76</course>
  <speed>0.01</speed>
  <fix>3d</fix>
</trkpt>
<trkpt lat="33.8106156" lon="-118.3935683">
  <ele>-18.326</ele>
  <time>2026-09-02T22:09:18Z</time>
  <course>158.6</course>
  <speed>0.0412310562561766</speed>
  <fix>3d</fix>
</trkpt>
<trkpt lat="33.8106156" lon="-118.3935683">
  <ele>-18.411</ele>
  <time>2026-09-02T22:09:18Z</time>
  <course>158.6</course>
  <speed>0.0412310562561766</speed>
  <fix>3d</fix>
</trkpt>
<trkpt lat="33.8106158" lon="-118.3935687">
  <ele>-17.16</ele>
  <time>2026-09-02T22:09:18Z</time>
  <course>71.76</course>
  <speed>0.01</speed>
  <fix>3d</fix>
</trkpt>
<trkpt lat="33.8106156" lon="-118.3935683">
  <ele>-18.45</ele>
  <time>2026-09-02T22:09:18Z</time>
  <course>158.6</course>
  <speed>0.0412310562561766</speed>
  <fix>3d</fix>
</trkpt>
<trkpt lat="33.8106156" lon="-118.3935683">
  <ele>-18.532</ele>
  <time>2026-09-02T22:09:18Z</time>
  <course>158.61</course>
  <speed>0.0412310562561766</speed>
  <fix>3d</fix>
</trkpt>
<trkpt lat="33.8106158" lon="-118.3935686">
  <ele>-17.4</ele>
  <time>2026-09-02T22:09:18Z</time>
  <course>71.74</course>
  <speed>0.01</speed>
  <fix>3d</fix>
</trkpt>
<trkpt lat="33.8106156" lon="-118.3935683">
  <ele>-18.538</ele>
  <time>2026-09-02T22:09:18Z</time>
  <course>158.61</course>
  <speed>0.0412310562561766</speed>
  <fix>3d</fix>
</trkpt>
<trkpt lat="33.8106156" lon="-118.3935683">
  <ele>-18.653</ele>
  <time>2026-09-02T22:09:18Z</time>
  <course>158.61</course>
  <speed>0.0412310562561766</speed>
  <fix>3d</fix>
</trkpt>
<trkpt lat="33.8106158" lon="-118.3935686">
  <ele>-17.4</ele>
  <time>2026-09-02T22:09:18Z</time>
  <course>71.74</course>
  <speed>0.01</speed>
  <fix>3d</fix>
</trkpt>
<trkpt lat="33.8106156" lon="-118.3935683">
  <ele>-18.698</ele>
  <time>2026-09-02T22:09:18Z</time>
  <course>158.61</course>
  <speed>0.0412310562561766</speed>
  <fix>3d</fix>
</trkpt>
<trkpt lat="33.8106157" lon="-118.3935683">
  <ele>-18.773</ele>
  <time>2026-09-02T22:09:18Z</time>
  <course>158.61</course>
  <speed>0.0412310562561766</speed>
  <fix>3d</fix>
</trkpt>
<trkpt lat="33.8106158" lon="-118.3935686">
  <ele>-17.64</ele>
  <time>2026-09-02T22:09:18Z</time>
  <course>71.7</course>
  <speed>0.01</speed>
  <fix>3d</fix>
</trkpt>
<trkpt lat="33.8106157" lon="-118.3935683">
  <ele>-18.776</ele>
  <time>2026-09-02T22:09:18Z</time>
  <course>158.61</course>
  <speed>0.0412310562561766</speed>
  <fix>3d</fix>
</trkpt>
<trkpt lat="33.8106157" lon="-118.3935683">
  <ele>-18.893</ele>
  <time>2026-09-02T22:09:18Z</time>
  <course>158.61</course>
  <speed>0.0412310562561766</speed>
  <fix>3d</fix>
</trkpt>
<trkpt lat="33.8106158" lon="-118.3935686">
  <ele>-17.64</ele>
  <time>2026-09-02T22:09:18Z</time>
  <course>71.7</course>
  <speed>0.01</speed>
  <fix>3d</fix>
</trkpt>
<trkpt lat="33.8106157" lon="-118.3935683">
  <ele>-18.932</ele>
  <time>2026-09-02T22:09:18Z</time>
  <course>158.61</course>
  <speed>0.0412310562561766</speed>
  <fix>3d</fix>
</trkpt>
<trkpt lat="33.8106157" lon="-118.3935683">
  <ele>-19.014</ele>
  <time>2026-09-02T22:09:18Z</time>
  <course>158.62</course>
  <speed>0.0412310562561766</speed>
  <fix>3d</fix>
</trkpt>
<trkpt lat="33.8106158" lon="-118.3935686">
  <ele>-17.87</ele>
  <time>2026-09-02T22:09:18Z</time>
  <course>71.67</course>
  <speed>0.01</speed>
  <fix>3d</fix>
</trkpt>
<trkpt lat="33.8106157" lon="-118.3935682">
  <ele>-19.06</ele>
  <time>2026-09-02T22:09:18Z</time>
  <course>158.62</course>
  <speed>0.0412310562561766</speed>
  <fix>3d</fix>
</trkpt>
<trkpt lat="33.8106157" lon="-118.3935682">
  <ele>-19.136</ele>
  <time>2026-09-02T22:09:18Z</time>
  <course>158.62</course>
  <speed>0.0412310562561766</speed>
  <fix>3d</fix>
</trkpt>
<trkpt lat="33.8106158" lon="-118.3935686">
  <ele>-17.87</ele>
  <time>2026-09-02T22:09:18Z</time>
  <course>71.67</course>
  <speed>0.01</speed>
  <fix>3d</fix>
</trkpt>
<trkpt lat="33.8106157" lon="-118.3935682">
  <ele>-19.258</ele>
  <time>2026-09-02T22:09:18Z</time>
  <course>158.62</course>
  <speed>0.0412310562561766</speed>
  <fix>3d</fix>
</trkpt>
<trkpt lat="33.8106158" lon="-118.3935685">
  <ele>-18.11</ele>
  <time>2026-09-02T22:09:18Z</time>
  <course>71.68</course>
  <speed>0.01</speed>
  <fix>3d</fix>
</trkpt>
<trkpt lat="33.8106157" lon="-118.3935682">
  <ele>-19.38</ele>
  <time>2026-09-02T22:09:18Z</time>
  <course>158.62</course>
  <speed>0.0412310562561766</speed>
  <fix>3d</fix>
</trkpt>
<trkpt lat="33.8106158" lon="-118.3935685">
  <ele>-18.11</ele>
  <time>2026-09-02T22:09:18Z</time>
  <course>71.68</course>
  <speed>0.01</speed>
  <fix>3d</fix>
</trkpt>
<trkpt lat="33.8106157" lon="-118.3935682">
  <ele>-19.5</ele>
  <time>2026-09-02T22:09:18Z</time>
  <course>158.62</course>
  <speed>0.0412310562561766</speed>
  <fix>3d</fix>
</trkpt>
<trkpt lat="33.8106159" lon="-118.3935685">
  <ele>-18.34</ele>
  <time>2026-09-02T22:09:18Z</time>
  <course>71.71</course>
  <speed>0.01</speed>
  <fix>3d</fix>
</trkpt>
<trkpt lat="33.8106157" lon="-118.3935682">
  <ele>-19.617</ele>
  <time>2026-09-02T22:09:18Z</time>
  <course>158.63</course>
  <speed>0.0412310562561766</speed>
  <fix>3d</fix>
</trkpt>
<trkpt lat="33.8106159" lon="-118.3935685">
  <ele>-18.34</ele>
  <time>2026-09-02T22:09:18Z</time>
  <course>71.71</course>
  <speed>0.01</speed>
  <fix>3d</fix>
</trkpt>
<trkpt lat="33.8106157" lon="-118.3935682">
  <ele>-19.723</ele>
  <time>2026-09-02T22:09:18Z</time>
  <course>158.63</course>
  <speed>0.0412310562561766</speed>
  <fix>3d</fix>
</trkpt>
<trkpt lat="33.8106159" lon="-118.3935685">
  <ele>-18.58</ele>
  <time>2026-09-02T22:09:18Z</time>
  <course>71.76</course>
  <speed>0.01</speed>
  <fix>3d</fix>
</trkpt>
<trkpt lat="33.8106157" lon="-118.3935681">
  <ele>-19.814</ele>
  <time>2026-09-02T22:09:18Z</time>
  <course>158.63</course>
  <speed>0.0412310562561766</speed>
  <fix>3d</fix>
</trkpt>
<trkpt lat="33.8106159" lon="-118.3935685">
  <ele>-18.58</ele>
  <time>2026-09-02T22:09:18Z</time>
  <course>71.76</course>
  <speed>0.01</speed>
  <fix>3d</fix>
</trkpt>
<trkpt lat="33.8106157" lon="-118.3935681">
  <ele>-19.888</ele>
  <time>2026-09-02T22:09:18Z</time>
  <course>158.63</course>
  <speed>0.0412310562561766</speed>
  <fix>3d</fix>
</trkpt>
<trkpt lat="33.8106159" lon="-118.3935684">
  <ele>-18.78</ele>
  <time>2026-09-02T22:09:18Z</time>
  <course>71.84</course>
  <speed>0.01</speed>
  <fix>3d</fix>
</trkpt>
<trkpt lat="33.8106157" lon="-118.3935681">
  <ele>-19.944</ele>
  <time>2026-09-02T22:09:18Z</time>
  <course>158.63</course>
  <speed>0.0412310562561766</speed>
  <fix>3d</fix>
</trkpt>
<trkpt lat="33.8106159" lon="-118.3935684">
  <ele>-18.78</ele>
  <time>2026-09-02T22:09:18Z</time>
  <course>71.84</course>
  <speed>0.01</speed>
  <fix>3d</fix>
</trkpt>
<trkpt lat="33.8106157" lon="-118.3935681">
  <ele>-19.984</ele>
  <time>2026-09-02T22:09:18Z</time>
  <course>158.64</course>
  <speed>0.0412310562561766</speed>
  <fix>3d</fix>
</trkpt>
<trkpt lat="33.8106159" lon="-118.3935684">
  <ele>-18.93</ele>
  <time>2026-09-02T22:09:18Z</time>
  <course>72.0</course>
  <speed>0.01</speed>
  <fix>3d</fix>
</trkpt>
<trkpt lat="33.8106157" lon="-118.3935681">
  <ele>-20.01</ele>
  <time>2026-09-02T22:09:18Z</time>
  <course>158.64</course>
  <speed>0.0412310562561766</speed>
  <fix>3d</fix>
</trkpt>
<trkpt lat="33.8106159" lon="-118.3935684">
  <ele>-18.93</ele>
  <time>2026-09-02T22:09:18Z</time>
  <course>72.0</course>
  <speed>0.01</speed>
  <fix>3d</fix>
</trkpt>
<trkpt lat="33.8106157" lon="-118.3935681">
  <ele>-20.026</ele>
  <time>2026-09-02T22:09:18Z</time>
  <course>158.64</course>
  <speed>0.0412310562561766</speed>
  <fix>3d</fix>
</trkpt>
<trkpt lat="33.8106159" lon="-118.3935684">
  <ele>-19.02</ele>
  <time>2026-09-02T22:09:18Z</time>
  <course>72.14</course>
  <speed>0.01</speed>
  <fix>3d</fix>
</trkpt>
<trkpt lat="33.8106157" lon="-118.3935681">
  <ele>-20.035</ele>
  <time>2026-09-02T22:09:18Z</time>
  <course>158.64</course>
  <speed>0.0412310562561766</speed>
  <fix>3d</fix>
</trkpt>
<trkpt lat="33.8106159" lon="-118.3935684">
  <ele>-19.02</ele>
  <time>2026-09-02T22:09:18Z</time>
  <course>72.14</course>
  <speed>0.01</speed>
  <fix>3d</fix>
</trkpt>
<trkpt lat="33.8106157" lon="-118.393568">
  <ele>-20.038</ele>
  <time>2026-09-02T22:09:18Z</time>
  <course>158.64</course>
  <speed>0.0412310562561766</speed>
  <fix>3d</fix>
</trkpt>
<trkpt lat="33.8106159" lon="-118.3935683">
  <ele>-19.07</ele>
  <time>2026-09-02T22:09:18Z</time>
  <course>72.22</course>
  <speed>0.01</speed>
  <fix>3d</fix>
</trkpt>
<trkpt lat="33.8106157" lon="-118.393568">
  <ele>-20.039</ele>
  <time>2026-09-02T22:09:18Z</time>
  <course>158.65</course>
  <speed>0.0412310562561766</speed>
  <fix>3d</fix>
</trkpt>
<trkpt lat="33.8106159" lon="-118.3935683">
  <ele>-19.07</ele>
  <time>2026-09-02T22:09:18Z</time>
  <course>72.22</course>
  <speed>0.01</speed>
  <fix>3d</fix>
</trkpt>
<trkpt lat="33.8106157" lon="-118.393568">
  <ele>-20.039</ele>
  <time>2026-09-02T22:09:18Z</time>
  <course>158.65</course>
  <speed>0.0412310562561766</speed>
  <fix>3d</fix>
</trkpt>
<trkpt lat="33.8106159" lon="-118.3935683">
  <ele>-19.1</ele>
  <time>2026-09-02T22:09:18Z</time>
  <course>72.28</course>
  <speed>0.01</speed>
  <fix>3d</fix>
</trkpt>
<trkpt lat="33.8106157" lon="-118.393568">
  <ele>-20.04</ele>
  <time>2026-09-02T22:09:18Z</time>
  <course>158.65</course>
  <speed>0.0412310562561766</speed>
  <fix>3d</fix>
</trkpt>
<trkpt lat="33.8106159" lon="-118.3935683">
  <ele>-19.1</ele>
  <time>2026-09-02T22:09:18Z</time>
  <course>72.28</course>
  <speed>0.01</speed>
  <fix>3d</fix>
</trkpt>
<trkpt lat="33.8106157" lon="-118.393568">
  <ele>-20.04</ele>
  <time>2026-09-02T22:09:18Z</time>
  <course>158.65</course>
  <speed>0.0412310562561766</speed>
  <fix>3d</fix>
</trkpt>
<trkpt lat="33.8106159" lon="-118.3935683">
  <ele>-19.11</ele>
  <time>2026-09-02T22:09:18Z</time>
  <course>72.33</course>
  <speed>0.01</speed>
  <fix>3d</fix>
</trkpt>
<trkpt lat="33.8106157" lon="-118.393568">
  <ele>-20.042</ele>
  <time>2026-09-02T22:09:18Z</time>
  <course>158.66</course>
  <speed>0.0412310562561766</speed>
  <fix>3d</fix>
</trkpt>
<trkpt lat="33.8106159" lon="-118.3935683">
  <ele>-19.11</ele>
  <time>2026-09-02T22:09:18Z</time>
  <course>72.33</course>
  <speed>0.01</speed>
  <fix>3d</fix>
</trkpt>
<trkpt lat="33.8106157" lon="-118.393568">
  <ele>-20.044</ele>
  <time>2026-09-02T22:09:18Z</time>
  <course>158.66</course>
  <speed>0.0412310562561766</speed>
  <fix>3d</fix>
</trkpt>
<trkpt lat="33.8106159" lon="-118.3935683">
  <ele>-19.13</ele>
  <time>2026-09-02T22:09:18Z</time>
  <course>72.37</course>
  <speed>0.01</speed>
  <fix>3d</fix>
</trkpt>
<trkpt lat="33.8106158" lon="-118.393568">
  <ele>-20.046</ele>
  <time>2026-09-02T22:09:18Z</time>
  <course>158.66</course>
  <speed>0.0412310562561766</speed>
  <fix>3d</fix>
</trkpt>
<trkpt lat="33.8106159" lon="-118.3935683">
  <ele>-19.13</ele>
  <time>2026-09-02T22:09:18Z</time>
  <course>72.37</course>
  <speed>0.01</speed>
  <fix>3d</fix>
</trkpt>
<trkpt lat="33.8106158" lon="-118.3935679">
  <ele>-20.049</ele>
  <time>2026-09-02T22:09:18Z</time>
  <course>158.66</course>
  <speed>0.0412310562561766</speed>
  <fix>3d</fix>
</trkpt>
<trkpt lat="33.8106159" lon="-118.3935682">
  <ele>-19.15</ele>
  <time>2026-09-02T22:09:18Z</time>
  <course>72.37</course>
  <speed>0.01</speed>
  <fix>3d</fix>
</trkpt>
<trkpt lat="33.8106158" lon="-118.3935679">
  <ele>-20.053</ele>
  <time>2026-09-02T22:09:18Z</time>
  <course>158.66</course>
  <speed>0.0412310562561766</speed>
  <fix>3d</fix>
</trkpt>
<trkpt lat="33.8106159" lon="-118.3935682">
  <ele>-19.15</ele>
  <time>2026-09-02T22:09:18Z</time>
  <course>72.37</course>
  <speed>0.01</speed>
  <fix>3d</fix>
</trkpt>
<trkpt lat="33.8106158" lon="-118.3935679">
  <ele>-20.056</ele>
  <time>2026-09-02T22:09:18Z</time>
  <course>158.67</course>
  <speed>0.0412310562561766</speed>
  <fix>3d</fix>
</trkpt>
<trkpt lat="33.8106159" lon="-118.3935682">
  <ele>-19.16</ele>
  <time>2026-09-02T22:09:18Z</time>
  <course>72.34</course>
  <speed>0.01</speed>
  <fix>3d</fix>
</trkpt>
<trkpt lat="33.8106158" lon="-118.3935679">
  <ele>-20.059</ele>
  <time>2026-09-02T22:09:18Z</time>
  <course>158.67</course>
  <speed>0.0412310562561766</speed>
  <fix>3d</fix>
</trkpt>
<trkpt lat="33.8106159" lon="-118.3935682">
  <ele>-19.16</ele>
  <time>2026-09-02T22:09:18Z</time>
  <course>72.34</course>
  <speed>0.01</speed>
  <fix>3d</fix>
</trkpt>
<trkpt lat="33.8106158" lon="-118.3935679">
  <ele>-20.061</ele>
  <time>2026-09-02T22:09:18Z</time>
  <course>158.67</course>
  <speed>0.0412310562561766</speed>
  <fix>3d</fix>
</trkpt>
<trkpt lat="33.8106159" lon="-118.3935682">
  <ele>-19.18</ele>
  <time>2026-09-02T22:09:18Z</time>
  <course>72.32</course>
  <speed>0.01</speed>
  <fix>3d</fix>
</trkpt>
<trkpt lat="33.8106158" lon="-118.3935679">
  <ele>-20.063</ele>
  <time>2026-09-02T22:09:18Z</time>
  <course>158.67</course>
  <speed>0.0412310562561766</speed>
  <fix>3d</fix>
</trkpt>
<trkpt lat="33.8106159" lon="-118.3935682">
  <ele>-19.18</ele>
  <time>2026-09-02T22:09:18Z</time>
  <course>72.32</course>
  <speed>0.01</speed>
  <fix>3d</fix>
</trkpt>
<trkpt lat="33.8106158" lon="-118.3935679">
  <ele>-20.065</ele>
  <time>2026-09-02T22:09:18Z</time>
  <course>158.68</course>
  <speed>0.0412310562561766</speed>
  <fix>3d</fix>
</trkpt>
<trkpt lat="33.8106159" lon="-118.3935681">
  <ele>-19.19</ele>
  <time>2026-09-02T22:09:18Z</time>
  <course>72.34</course>
  <speed>0.01</speed>
  <fix>3d</fix>
</trkpt>
<trkpt lat="33.8106158" lon="-118.3935679">
  <ele>-20.066</ele>
  <time>2026-09-02T22:09:18Z</time>
  <course>158.68</course>
  <speed>0.0412310562561766</speed>
  <fix>3d</fix>
</trkpt>
<trkpt lat="33.8106159" lon="-118.3935681">
  <ele>-19.19</ele>
  <time>2026-09-02T22:09:18Z</time>
  <course>72.34</course>
  <speed>0.01</speed>
  <fix>3d</fix>
</trkpt>
<trkpt lat="33.8106158" lon="-118.3935678">
  <ele>-20.066</ele>
  <time>2026-09-02T22:09:18Z</time>
  <course>158.68</course>
  <speed>0.0412310562561766</speed>
  <fix>3d</fix>
</trkpt>
<trkpt lat="33.8106159" lon="-118.3935681">
  <ele>-19.19</ele>
  <time>2026-09-02T22:09:18Z</time>
  <course>72.38</course>
  <speed>0.01</speed>
  <fix>3d</fix>
</trkpt>
<trkpt lat="33.8106158" lon="-118.3935678">
  <ele>-20.066</ele>
  <time>2026-09-02T22:09:18Z</time>
  <course>158.68</course>
  <speed>0.0412310562561766</speed>
  <fix>3d</fix>
</trkpt>
<trkpt lat="33.8106159" lon="-118.3935681">
  <ele>-19.19</ele>
  <time>2026-09-02T22:09:18Z</time>
  <course>72.38</course>
  <speed>0.01</speed>
  <fix>3d</fix>
</trkpt>
<trkpt lat="33.8106158" lon="-118.3935678">
  <ele>-20.066</ele>
  <time>2026-09-02T22:09:18Z</time>
  <course>158.68</course>
  <speed>0.0412310562561766</speed>
  <fix>3d</fix>
</trkpt>
<trkpt lat="33.8106159" lon="-118.3935681">
  <ele>-19.2</ele>
  <time>2026-09-02T22:09:18Z</time>
  <course>72.42</course>
  <speed>0.01</speed>
  <fix>3d</fix>
</trkpt>
<trkpt lat="33.8106158" lon="-118.3935678">
  <ele>-20.067</ele>
  <time>2026-09-02T22:09:18Z</time>
  <course>158.69</course>
  <speed>0.0412310562561766</speed>
  <fix>3d</fix>
</trkpt>
<trkpt lat="33.8106159" lon="-118.3935681">
  <ele>-19.2</ele>
  <time>2026-09-02T22:09:18Z</time>
  <course>72.42</course>
  <speed>0.01</speed>
  <fix>3d</fix>
</trkpt>
<trkpt lat="33.8106158" lon="-118.3935678">
  <ele>-20.069</ele>
  <time>2026-09-02T22:09:18Z</time>
  <course>158.69</course>
  <speed>0.0412310562561766</speed>
  <fix>3d</fix>
</trkpt>
<trkpt lat="33.8106159" lon="-118.393568">
  <ele>-19.2</ele>
  <time>2026-09-02T22:09:18Z</time>
  <course>72.44</course>
  <speed>0.01</speed>
  <fix>3d</fix>
</trkpt>
<trkpt lat="33.8106158" lon="-118.3935678">
  <ele>-20.07</ele>
  <time>2026-09-02T22:09:18Z</time>
  <course>158.69</course>
  <speed>0.0412310562561766</speed>
  <fix>3d</fix>
</trkpt>
<trkpt lat="33.8106159" lon="-118.393568">
  <ele>-19.2</ele>
  <time>2026-09-02T22:09:18Z</time>
  <course>72.44</course>
  <speed>0.01</speed>
  <fix>3d</fix>
</trkpt>
<trkpt lat="33.8106158" lon="-118.3935678">
  <ele>-20.071</ele>
  <time>2026-09-02T22:09:18Z</time>
  <course>158.69</course>
  <speed>0.0412310562561766</speed>
  <fix>3d</fix>
</trkpt>
<trkpt lat="33.8106159" lon="-118.3935679">
  <ele>-19.2</ele>
  <time>2026-09-02T22:09:18Z</time>
  <course>72.43</course>
  <speed>0.01</speed>
  <fix>3d</fix>
</trkpt>
<trkpt lat="33.8106158" lon="-118.3935677">
  <ele>-20.071</ele>
  <time>2026-09-02T22:09:18Z</time>
  <course>158.69</course>
  <speed>0.0412310562561766</speed>
  <fix>3d</fix>
</trkpt>
<trkpt lat="33.8106159" lon="-118.3935679">
  <ele>-19.2</ele>
  <time>2026-09-02T22:09:18Z</time>
  <course>72.43</course>
  <speed>0.01</speed>
  <fix>3d</fix>
</trkpt>
<trkpt lat="33.8106158" lon="-118.3935677">
  <ele>-20.072</ele>
  <time>2026-09-02T22:09:18Z</time>
  <course>158.7</course>
  <speed>0.0412310562561766</speed>
  <fix>3d</fix>
</trkpt>
<trkpt lat="33.8106159" lon="-118.3935679">
  <ele>-19.2</ele>
  <time>2026-09-02T22:09:18Z</time>
  <course>72.4</course>
  <speed>0.01</speed>
  <fix>3d</fix>
</trkpt>
<trkpt lat="33.8106158" lon="-118.3935677">
  <ele>-20.073</ele>
  <time>2026-09-02T22:09:18Z</time>
  <course>158.7</course>
  <speed>0.0412310562561766</speed>
  <fix>3d</fix>
</trkpt>
<trkpt lat="33.8106159" lon="-118.3935679">
  <ele>-19.2</ele>
  <time>2026-09-02T22:09:18Z</time>
  <course>72.4</course>
  <speed>0.01</speed>
  <fix>3d</fix>
</trkpt>
<trkpt lat="33.8106158" lon="-118.3935677">
  <ele>-20.072</ele>
  <time>2026-09-02T22:09:18Z</time>
  <course>158.7</course>
  <speed>0.0412310562561766</speed>
  <fix>3d</fix>
</trkpt>
<trkpt lat="33.8106159" lon="-118.3935679">
  <ele>-19.2</ele>
  <time>2026-09-02T22:09:18Z</time>
  <course>72.38</course>
  <speed>0.01</speed>
  <fix>3d</fix>
</trkpt>
<trkpt lat="33.8106158" lon="-118.3935677">
  <ele>-20.07</ele>
  <time>2026-09-02T22:09:18Z</time>
  <course>158.7</course>
  <speed>0.0412310562561766</speed>
  <fix>3d</fix>
</trkpt>
<trkpt lat="33.8106159" lon="-118.3935679">
  <ele>-19.2</ele>
  <time>2026-09-02T22:09:18Z</time>
  <course>72.38</course>
  <speed>0.01</speed>
  <fix>3d</fix>
</trkpt>
<trkpt lat="33.8106158" lon="-118.3935676">
  <ele>-20.068</ele>
  <time>2026-09-02T22:09:18Z</time>
  <course>158.7</course>
  <speed>0.0412310562561766</speed>
  <fix>3d</fix>
</trkpt>
<trkpt lat="33.8106159" lon="-118.3935679">
  <ele>-19.2</ele>
  <time>2026-09-02T22:09:18Z</time>
  <course>72.41</course>
  <speed>0.01</speed>
  <fix>3d</fix>
</trkpt>
<trkpt lat="33.8106158" lon="-118.3935676">
  <ele>-20.066</ele>
  <time>2026-09-02T22:09:18Z</time>
  <course>158.71</course>
  <speed>0.0412310562561766</speed>
  <fix>3d</fix>
</trkpt>
<trkpt lat="33.8106159" lon="-118.3935679">
  <ele>-19.2</ele>
  <time>2026-09-02T22:09:18Z</time>
  <course>72.41</course>
  <speed>0.01</speed>
  <fix>3d</fix>
</trkpt>
<trkpt lat="33.8106158" lon="-118.3935676">
  <ele>-20.064</ele>
  <time>2026-09-02T22:09:18Z</time>
  <course>158.71</course>
  <speed>0.0412310562561766</speed>
  <fix>3d</fix>
</trkpt>
<trkpt lat="33.8106159" lon="-118.3935679">
  <ele>-19.19</ele>
  <time>2026-09-02T22:09:18Z</time>
  <course>72.45</course>
  <speed>0.01</speed>
  <fix>3d</fix>
</trkpt>
<trkpt lat="33.8106158" lon="-118.3935676">
  <ele>-20.062</ele>
  <time>2026-09-02T22:09:18Z</time>
  <course>158.71</course>
  <speed>0.0412310562561766</speed>
  <fix>3d</fix>
</trkpt>
<trkpt lat="33.8106159" lon="-118.3935679">
  <ele>-19.19</ele>
  <time>2026-09-02T22:09:18Z</time>
  <course>72.45</course>
  <speed>0.01</speed>
  <fix>3d</fix>
</trkpt>
<trkpt lat="33.8106158" lon="-118.3935676">
  <ele>-20.061</ele>
  <time>2026-09-02T22:09:18Z</time>
  <course>158.71</course>
  <speed>0.0412310562561766</speed>
  <fix>3d</fix>
</trkpt>
<trkpt lat="33.8106159" lon="-118.3935679">
  <ele>-19.19</ele>
  <time>2026-09-02T22:09:18Z</time>
  <course>72.48</course>
  <speed>0.01</speed>
  <fix>3d</fix>
</trkpt>
<trkpt lat="33.8106158" lon="-118.3935676">
  <ele>-20.06</ele>
  <time>2026-09-02T22:09:18Z</time>
  <course>158.71</course>
  <speed>0.0412310562561766</speed>
  <fix>3d</fix>
</trkpt>
<trkpt lat="33.8106159" lon="-118.3935679">
  <ele>-19.19</ele>
  <time>2026-09-02T22:09:18Z</time>
  <course>72.48</course>
  <speed>0.01</speed>
  <fix>3d</fix>
</trkpt>
<trkpt lat="33.8106158" lon="-118.3935676">
  <ele>-20.059</ele>
  <time>2026-09-02T22:09:18Z</time>
  <course>158.72</course>
  <speed>0.0412310562561766</speed>
  <fix>3d</fix>
</trkpt>
<trkpt lat="33.8106159" lon="-118.3935678">
  <ele>-19.19</ele>
  <time>2026-09-02T22:09:18Z</time>
  <course>72.47</course>
  <speed>0.01</speed>
  <fix>3d</fix>
</trkpt>
<trkpt lat="33.8106158" lon="-118.3935675">
  <ele>-20.059</ele>
  <time>2026-09-02T22:09:18Z</time>
  <course>158.72</course>
  <speed>0.0412310562561766</speed>
  <fix>3d</fix>
</trkpt>
<trkpt lat="33.8106159" lon="-118.3935678">
  <ele>-19.19</ele>
  <time>2026-09-02T22:09:18Z</time>
  <course>72.47</course>
  <speed>0.01</speed>
  <fix>3d</fix>
</trkpt>
<trkpt lat="33.8106158" lon="-118.3935675">
  <ele>-20.06</ele>
  <time>2026-09-02T22:09:18Z</time>
  <course>158.72</course>
  <speed>0.0412310562561766</speed>
  <fix>3d</fix>
</trkpt>
<trkpt lat="33.8106159" lon="-118.3935678">
  <ele>-19.19</ele>
  <time>2026-09-02T22:09:18Z</time>
  <course>72.42</course>
  <speed>0.01</speed>
  <fix>3d</fix>
</trkpt>
<trkpt lat="33.8106158" lon="-118.3935675">
  <ele>-20.061</ele>
  <time>2026-09-02T22:09:18Z</time>
  <course>158.72</course>
  <speed>0.0412310562561766</speed>
  <fix>3d</fix>
</trkpt>
<trkpt lat="33.8106159" lon="-118.3935678">
  <ele>-19.19</ele>
  <time>2026-09-02T22:09:18Z</time>
  <course>72.42</course>
  <speed>0.01</speed>
  <fix>3d</fix>
</trkpt>
<trkpt lat="33.8106158" lon="-118.3935675">
  <ele>-20.062</ele>
  <time>2026-09-02T22:09:18Z</time>
  <course>158.72</course>
  <speed>0.0412310562561766</speed>
  <fix>3d</fix>
</trkpt>
<trkpt lat="33.810616" lon="-118.3935678">
  <ele>-19.2</ele>
  <time>2026-09-02T22:09:18Z</time>
  <course>72.38</course>
  <speed>0.01</speed>
  <fix>3d</fix>
</trkpt>
<trkpt lat="33.8106158" lon="-118.3935675">
  <ele>-20.063</ele>
  <time>2026-09-02T22:09:18Z</time>
  <course>158.73</course>
  <speed>0.0412310562561766</speed>
  <fix>3d</fix>
</trkpt>
<trkpt lat="33.810616" lon="-118.3935678">
  <ele>-19.2</ele>
  <time>2026-09-02T22:09:18Z</time>
  <course>72.38</course>
  <speed>0.01</speed>
  <fix>3d</fix>
</trkpt>
<trkpt lat="33.8106158" lon="-118.3935675">
  <ele>-20.065</ele>
  <time>2026-09-02T22:09:18Z</time>
  <course>158.73</course>
  <speed>0.0412310562561766</speed>
  <fix>3d</fix>
</trkpt>
<trkpt lat="33.8106161" lon="-118.3935678">
  <ele>-19.2</ele>
  <time>2026-09-02T22:09:18Z</time>
  <course>72.38</course>
  <speed>0.01</speed>
  <fix>3d</fix>
</trkpt>
<trkpt lat="33.8106158" lon="-118.3935675">
  <ele>-20.067</ele>
  <time>2026-09-02T22:09:18Z</time>
  <course>158.73</course>
  <speed>0.0412310562561766</speed>
  <fix>3d</fix>
</trkpt>
<trkpt lat="33.8106161" lon="-118.3935678">
  <ele>-19.2</ele>
  <time>2026-09-02T22:09:18Z</time>
  <course>72.38</course>
  <speed>0.01</speed>
  <fix>3d</fix>
</trkpt>
<trkpt lat="33.8106158" lon="-118.3935675">
  <ele>-20.068</ele>
  <time>2026-09-02T22:09:18Z</time>
  <course>158.73</course>
  <speed>0.0412310562561766</speed>
  <fix>3d</fix>
</trkpt>
<trkpt lat="33.8106161" lon="-118.3935677">
  <ele>-19.2</ele>
  <time>2026-09-02T22:09:18Z</time>
  <course>72.41</course>
  <speed>0.01</speed>
  <fix>3d</fix>
</trkpt>
<trkpt lat="33.8106158" lon="-118.3935674">
  <ele>-20.069</ele>
  <time>2026-09-02T22:09:18Z</time>
  <course>158.73</course>
  <speed>0.0412310562561766</speed>
  <fix>3d</fix>
</trkpt>
<trkpt lat="33.8106161" lon="-118.3935677">
  <ele>-19.2</ele>
  <time>2026-09-02T22:09:18Z</time>
  <course>72.41</course>
  <speed>0.01</speed>
  <fix>3d</fix>
</trkpt>
<trkpt lat="33.8106158" lon="-118.3935674">
  <ele>-20.068</ele>
  <time>2026-09-02T22:09:18Z</time>
  <course>158.73</course>
  <speed>0.04</speed>
  <fix>3d</fix>
</trkpt>
<trkpt lat="33.8106161" lon="-118.3935677">
  <ele>-19.2</ele>
  <time>2026-09-02T22:09:18Z</time>
  <course>72.45</course>
  <speed>0.01</speed>
  <fix>3d</fix>
</trkpt>
<trkpt lat="33.8106158" lon="-118.3935674">
  <ele>-20.067</ele>
  <time>2026-09-02T22:09:18Z</time>
  <course>158.74</course>
  <speed>0.04</speed>
  <fix>3d</fix>
</trkpt>
<trkpt lat="33.8106161" lon="-118.3935677">
  <ele>-19.2</ele>
  <time>2026-09-02T22:09:18Z</time>
  <course>72.45</course>
  <speed>0.01</speed>
  <fix>3d</fix>
</trkpt>
<trkpt lat="33.8106159" lon="-118.3935674">
  <ele>-20.066</ele>
  <time>2026-09-02T22:09:18Z</time>
  <course>158.74</course>
  <speed>0.04</speed>
  <fix>3d</fix>
</trkpt>
<trkpt lat="33.8106161" lon="-118.3935677">
  <ele>-19.2</ele>
  <time>2026-09-02T22:09:18Z</time>
  <course>72.48</course>
  <speed>0.01</speed>
  <fix>3d</fix>
</trkpt>
<trkpt lat="33.8106159" lon="-118.3935674">
  <ele>-20.066</ele>
  <time>2026-09-02T22:09:18Z</time>
  <course>158.74</course>
  <speed>0.04</speed>
  <fix>3d</fix>
</trkpt>
<trkpt lat="33.8106161" lon="-118.3935677">
  <ele>-19.2</ele>
  <time>2026-09-02T22:09:18Z</time>
  <course>72.48</course>
  <speed>0.01</speed>
  <fix>3d</fix>
</trkpt>
<trkpt lat="33.8106159" lon="-118.3935674">
  <ele>-20.067</ele>
  <time>2026-09-02T22:09:18Z</time>
  <course>158.74</course>
  <speed>0.04</speed>
  <fix>3d</fix>
</trkpt>
<trkpt lat="33.8106161" lon="-118.3935676">
  <ele>-19.19</ele>
  <time>2026-09-02T22:09:18Z</time>
  <course>72.46</course>
  <speed>0.01</speed>
  <fix>3d</fix>
</trkpt>
<trkpt lat="33.8106159" lon="-118.3935674">
  <ele>-20.068</ele>
  <time>2026-09-02T22:09:18Z</time>
  <course>158.74</course>
  <speed>0.04</speed>
  <fix>3d</fix>
</trkpt>
<trkpt lat="33.8106161" lon="-118.3935676">
  <ele>-19.19</ele>
  <time>2026-09-02T22:09:18Z</time>
  <course>72.46</course>
  <speed>0.01</speed>
  <fix>3d</fix>
</trkpt>
<trkpt lat="33.8106159" lon="-118.3935674">
  <ele>-20.068</ele>
  <time>2026-09-02T22:09:18Z</time>
  <course>158.74</course>
  <speed>0.04</speed>
  <fix>3d</fix>
</trkpt>
<trkpt lat="33.8106161" lon="-118.3935676">
  <ele>-19.19</ele>
  <time>2026-09-02T22:09:18Z</time>
  <course>72.42</course>
  <speed>0.01</speed>
  <fix>3d</fix>
</trkpt>
<trkpt lat="33.8106159" lon="-118.3935673">
  <ele>-20.067</ele>
  <time>2026-09-02T22:09:18Z</time>
  <course>158.75</course>
  <speed>0.04</speed>
  <fix>3d</fix>
</trkpt>
<trkpt lat="33.8106161" lon="-118.3935676">
  <ele>-19.19</ele>
  <time>2026-09-02T22:09:18Z</time>
  <course>72.42</course>
  <speed>0.01</speed>
  <fix>3d</fix>
</trkpt>
<trkpt lat="33.8106159" lon="-118.3935673">
  <ele>-20.066</ele>
  <time>2026-09-02T22:09:18Z</time>
  <course>158.75</course>
  <speed>0.04</speed>
  <fix>3d</fix>
</trkpt>
<trkpt lat="33.8106161" lon="-118.3935676">
  <ele>-19.19</ele>
  <time>2026-09-02T22:09:18Z</time>
  <course>72.39</course>
  <speed>0.01</speed>
  <fix>3d</fix>
</trkpt>
<trkpt lat="33.8106159" lon="-118.3935673">
  <ele>-20.06</ele>
  <time>2026-09-02T22:09:18Z</time>
  <course>158.75</course>
  <speed>0.04</speed>
  <fix>3d</fix>
</trkpt>
<trkpt lat="33.8106161" lon="-118.3935676">
  <ele>-19.19</ele>
  <time>2026-09-02T22:09:18Z</time>
  <course>72.39</course>
  <speed>0.01</speed>
  <fix>3d</fix>
</trkpt>
<trkpt lat="33.8106159" lon="-118.3935673">
  <ele>-20.044</ele>
  <time>2026-09-02T22:09:18Z</time>
  <course>158.75</course>
  <speed>0.04</speed>
  <fix>3d</fix>
</trkpt>
<trkpt lat="33.8106161" lon="-118.3935676">
  <ele>-19.18</ele>
  <time>2026-09-02T22:09:18Z</time>
  <course>72.4</course>
  <speed>0.01</speed>
  <fix>3d</fix>
</trkpt>
<trkpt lat="33.8106159" lon="-118.3935673">
  <ele>-20.007</ele>
  <time>2026-09-02T22:09:18Z</time>
  <course>158.75</course>
  <speed>0.04</speed>
  <fix>3d</fix>
</trkpt>
<trkpt lat="33.8106161" lon="-118.3935676">
  <ele>-19.18</ele>
  <time>2026-09-02T22:09:18Z</time>
  <course>72.4</course>
  <speed>0.01</speed>
  <fix>3d</fix>
</trkpt>
<trkpt lat="33.8106159" lon="-118.3935673">
  <ele>-20.006</ele>
  <time>2026-09-02T22:09:18Z</time>
  <course>158.75</course>
  <speed>0.04</speed>
  <fix>3d</fix>
</trkpt>
<trkpt lat="33.8106159" lon="-118.3935673">
  <ele>-19.948</ele>
  <time>2026-09-02T22:09:18Z</time>
  <course>158.75</course>
  <speed>0.04</speed>
  <fix>3d</fix>
</trkpt>
<trkpt lat="33.8106161" lon="-118.3935675">
  <ele>-19.14</ele>
  <time>2026-09-02T22:09:18Z</time>
  <course>72.44</course>
  <speed>0.01</speed>
  <fix>3d</fix>
</trkpt>
<trkpt lat="33.8106159" lon="-118.3935673">
  <ele>-19.947</ele>
  <time>2026-09-02T22:09:18Z</time>
  <course>158.75</course>
  <speed>0.04</speed>
  <fix>3d</fix>
</trkpt>
<trkpt lat="33.810616" lon="-118.3935673">
  <ele>-19.869</ele>
  <time>2026-09-02T22:09:18Z</time>
  <course>158.76</course>
  <speed>0.04</speed>
  <fix>3d</fix>
</trkpt>
<trkpt lat="33.8106161" lon="-118.3935675">
  <ele>-19.14</ele>
  <time>2026-09-02T22:09:18Z</time>
  <course>72.44</course>
  <speed>0.01</speed>
  <fix>3d</fix>
</trkpt>
<trkpt lat="33.810616" lon="-118.3935673">
  <ele>-19.836</ele>
  <time>2026-09-02T22:09:18Z</time>
  <course>158.76</course>
  <speed>0.04</speed>
  <fix>3d</fix>
</trkpt>
<trkpt lat="33.810616" lon="-118.3935673">
  <ele>-19.77</ele>
  <time>2026-09-02T22:09:18Z</time>
  <course>158.76</course>
  <speed>0.04</speed>
  <fix>3d</fix>
</trkpt>
<trkpt lat="33.8106161" lon="-118.3935675">
  <ele>-19.04</ele>
  <time>2026-09-02T22:09:18Z</time>
  <course>72.53</course>
  <speed>0.01</speed>
  <fix>3d</fix>
</trkpt>
<trkpt lat="33.810616" lon="-118.3935673">
  <ele>-19.733</ele>
  <time>2026-09-02T22:09:18Z</time>
  <course>158.76</course>
  <speed>0.04</speed>
  <fix>3d</fix>
</trkpt>
<trkpt lat="33.810616" lon="-118.3935672">
  <ele>-19.651</ele>
  <time>2026-09-02T22:09:18Z</time>
  <course>158.76</course>
  <speed>0.04</speed>
  <fix>3d</fix>
</trkpt>
<trkpt lat="33.8106161" lon="-118.3935675">
  <ele>-19.04</ele>
  <time>2026-09-02T22:09:18Z</time>
  <course>72.53</course>
  <speed>0.01</speed>
  <fix>3d</fix>
</trkpt>
<trkpt lat="33.810616" lon="-118.3935672">
  <ele>-19.603</ele>
  <time>2026-09-02T22:09:18Z</time>
  <course>158.76</course>
  <speed>0.04</speed>
  <fix>3d</fix>
</trkpt>
<trkpt lat="33.810616" lon="-118.3935672">
  <ele>-19.52</ele>
  <time>2026-09-02T22:09:18Z</time>
  <course>158.76</course>
  <speed>0.03</speed>
  <fix>3d</fix>
</trkpt>
<trkpt lat="33.8106161" lon="-118.3935675">
  <ele>-18.86</ele>
  <time>2026-09-02T22:09:18Z</time>
  <course>72.7</course>
  <speed>0.01</speed>
  <fix>3d</fix>
</trkpt>
<trkpt lat="33.810616" lon="-118.3935672">
  <ele>-19.481</ele>
  <time>2026-09-02T22:09:18Z</time>
  <course>158.76</course>
  <speed>0.03</speed>
  <fix>3d</fix>
</trkpt>
<trkpt lat="33.810616" lon="-118.3935672">
  <ele>-19.387</ele>
  <time>2026-09-02T22:09:18Z</time>
  <course>158.76</course>
  <speed>0.03</speed>
  <fix>3d</fix>
</trkpt>
<trkpt lat="33.8106161" lon="-118.3935675">
  <ele>-18.86</ele>
  <time>2026-09-02T22:09:18Z</time>
  <course>72.7</course>
  <speed>0.01</speed>
  <fix>3d</fix>
</trkpt>
<trkpt lat="33.810616" lon="-118.3935672">
  <ele>-19.384</ele>
  <time>2026-09-02T22:09:18Z</time>
  <course>158.76</course>
  <speed>0.03</speed>
  <fix>3d</fix>
</trkpt>
<trkpt lat="33.810616" lon="-118.3935672">
  <ele>-19.253</ele>
  <time>2026-09-02T22:09:18Z</time>
  <course>158.77</course>
  <speed>0.03</speed>
  <fix>3d</fix>
</trkpt>
<trkpt lat="33.8106161" lon="-118.3935675">
  <ele>-18.62</ele>
  <time>2026-09-02T22:09:18Z</time>
  <course>72.81</course>
  <speed>0.01</speed>
  <fix>3d</fix>
</trkpt>
<trkpt lat="33.810616" lon="-118.3935672">
  <ele>-19.21</ele>
  <time>2026-09-02T22:09:18Z</time>
  <course>158.77</course>
  <speed>0.03</speed>
  <fix>3d</fix>
</trkpt>
<trkpt lat="33.810616" lon="-118.3935672">
  <ele>-19.12</ele>
  <time>2026-09-02T22:09:18Z</time>
  <course>158.77</course>
  <speed>0.03</speed>
  <fix>3d</fix>
</trkpt>
<trkpt lat="33.8106161" lon="-118.3935675">
  <ele>-18.62</ele>
  <time>2026-09-02T22:09:18Z</time>
  <course>72.81</course>
  <speed>0.01</speed>
  <fix>3d</fix>
</trkpt>
<trkpt lat="33.810616" lon="-118.3935672">
  <ele>-19.07</ele>
  <time>2026-09-02T22:09:18Z</time>
  <course>158.77</course>
  <speed>0.03</speed>
  <fix>3d</fix>
</trkpt>
<trkpt lat="33.810616" lon="-118.3935672">
  <ele>-18.986</ele>
  <time>2026-09-02T22:09:18Z</time>
  <course>158.77</course>
  <speed>0.03</speed>
  <fix>3d</fix>
</trkpt>
<trkpt lat="33.8106161" lon="-118.3935674">
  <ele>-18.37</ele>
  <time>2026-09-02T22:09:18Z</time>
  <course>72.79</course>
  <speed>0.01</speed>
  <fix>3d</fix>
</trkpt>
<trkpt lat="33.810616" lon="-118.3935672">
  <ele>-18.946</ele>
  <time>2026-09-02T22:09:18Z</time>
  <course>158.77</course>
  <speed>0.03</speed>
  <fix>3d</fix>
</trkpt>
<trkpt lat="33.810616" lon="-118.3935672">
  <ele>-18.853</ele>
  <time>2026-09-02T22:09:18Z</time>
  <course>158.77</course>
  <speed>0.03</speed>
  <fix>3d</fix>
</trkpt>
<trkpt lat="33.8106161" lon="-118.3935674">
  <ele>-18.37</ele>
  <time>2026-09-02T22:09:18Z</time>
  <course>72.79</course>
  <speed>0.01</speed>
  <fix>3d</fix>
</trkpt>
<trkpt lat="33.810616" lon="-118.3935672">
  <ele>-18.813</ele>
  <time>2026-09-02T22:09:18Z</time>
  <course>158.77</course>
  <speed>0.03</speed>
  <fix>3d</fix>
</trkpt>
<trkpt lat="33.810616" lon="-118.3935672">
  <ele>-18.719</ele>
  <time>2026-09-02T22:09:18Z</time>
  <course>158.77</course>
  <speed>0.03</speed>
  <fix>3d</fix>
</trkpt>
<trkpt lat="33.8106161" lon="-118.3935674">
  <ele>-18.12</ele>
  <time>2026-09-02T22:09:18Z</time>
  <course>72.8</course>
  <speed>0.01</speed>
  <fix>3d</fix>
</trkpt>
<trkpt lat="33.810616" lon="-118.3935672">
  <ele>-18.669</ele>
  <time>2026-09-02T22:09:18Z</time>
  <course>158.78</course>
  <speed>0.03</speed>
  <fix>3d</fix>
</trkpt>
<trkpt lat="33.810616" lon="-118.3935672">
  <ele>-18.586</ele>
  <time>2026-09-02T22:09:18Z</time>
  <course>158.78</course>
  <speed>0.03</speed>
  <fix>3d</fix>
</trkpt>
<trkpt lat="33.8106161" lon="-118.3935674">
  <ele>-18.12</ele>
  <time>2026-09-02T22:09:18Z</time>
  <course>72.8</course>
  <speed>0.01</speed>
  <fix>3d</fix>
</trkpt>
<trkpt lat="33.810616" lon="-118.3935672">
  <ele>-18.583</ele>
  <time>2026-09-02T22:09:18Z</time>
  <course>158.78</course>
  <speed>0.03</speed>
  <fix>3d</fix>
</trkpt>
<trkpt lat="33.810616" lon="-118.3935671">
  <ele>-18.454</ele>
  <time>2026-09-02T22:09:18Z</time>
  <course>158.78</course>
  <speed>0.03</speed>
  <fix>3d</fix>
</trkpt>
<trkpt lat="33.8106162" lon="-118.3935674">
  <ele>-17.87</ele>
  <time>2026-09-02T22:09:18Z</time>
  <course>72.86</course>
  <speed>0.01</speed>
  <fix>3d</fix>
</trkpt>
<trkpt lat="33.810616" lon="-118.3935671">
  <ele>-18.407</ele>
  <time>2026-09-02T22:09:18Z</time>
  <course>158.78</course>
  <speed>0.03</speed>
  <fix>3d</fix>
</trkpt>
<trkpt lat="33.810616" lon="-118.3935671">
  <ele>-18.321</ele>
  <time>2026-09-02T22:09:18Z</time>
  <course>158.78</course>
  <speed>0.03</speed>
  <fix>3d</fix>
</trkpt>
<trkpt lat="33.8106162" lon="-118.3935674">
  <ele>-17.87</ele>
  <time>2026-09-02T22:09:18Z</time>
  <course>72.86</course>
  <speed>0.01</speed>
  <fix>3d</fix>
</trkpt>
<trkpt lat="33.810616" lon="-118.3935671">
  <ele>-18.277</ele>
  <time>2026-09-02T22:09:18Z</time>
  <course>158.78</course>
  <speed>0.03</speed>
  <fix>3d</fix>
</trkpt>
<trkpt lat="33.810616" lon="-118.3935671">
  <ele>-18.188</ele>
  <time>2026-09-02T22:09:18Z</time>
  <course>158.78</course>
  <speed>0.03</speed>
  <fix>3d</fix>
</trkpt>
<trkpt lat="33.8106162" lon="-118.3935674">
  <ele>-17.62</ele>
  <time>2026-09-02T22:09:18Z</time>
  <course>72.94</course>
  <speed>0.01</speed>
  <fix>3d</fix>
</trkpt>
<trkpt lat="33.810616" lon="-118.3935671">
  <ele>-18.138</ele>
  <time>2026-09-02T22:09:18Z</time>
  <course>158.78</course>
  <speed>0.03</speed>
  <fix>3d</fix>
</trkpt>
<trkpt lat="33.810616" lon="-118.3935671">
  <ele>-18.054</ele>
  <time>2026-09-02T22:09:18Z</time>
  <course>158.78</course>
  <speed>0.03</speed>
  <fix>3d</fix>
</trkpt>
<trkpt lat="33.8106162" lon="-118.3935674">
  <ele>-17.62</ele>
  <time>2026-09-02T22:09:18Z</time>
  <course>72.94</course>
  <speed>0.01</speed>
  <fix>3d</fix>
</trkpt>
<trkpt lat="33.810616" lon="-118.3935671">
  <ele>-18.011</ele>
  <time>2026-09-02T22:09:18Z</time>
  <course>158.79</course>
  <speed>0.03</speed>
  <fix>3d</fix>
</trkpt>
<trkpt lat="33.810616" lon="-118.3935671">
  <ele>-17.921</ele>
  <time>2026-09-02T22:09:18Z</time>
  <course>158.79</course>
  <speed>0.03</speed>
  <fix>3d</fix>
</trkpt>
<trkpt lat="33.8106162" lon="-118.3935673">
  <ele>-17.36</ele>
  <time>2026-09-02T22:09:18Z</time>
  <course>73.01</course>
  <speed>0.01</speed>
  <fix>3d</fix>
</trkpt>
<trkpt lat="33.810616" lon="-118.3935671">
  <ele>-17.875</ele>
  <time>2026-09-02T22:09:18Z</time>
  <course>158.79</course>
  <speed>0.03</speed>
  <fix>3d</fix>
</trkpt>
<trkpt lat="33.810616" lon="-118.3935671">
  <ele>-17.79</ele>
  <time>2026-09-02T22:09:18Z</time>
  <course>158.79</course>
  <speed>0.03</speed>
  <fix>3d</fix>
</trkpt>
<trkpt lat="33.8106162" lon="-118.3935673">
  <ele>-17.36</ele>
  <time>2026-09-02T22:09:18Z</time>
  <course>73.01</course>
  <speed>0.01</speed>
  <fix>3d</fix>
</trkpt>
<trkpt lat="33.810616" lon="-118.3935671">
  <ele>-17.747</ele>
  <time>2026-09-02T22:09:18Z</time>
  <course>158.79</course>
  <speed>0.03</speed>
  <fix>3d</fix>
</trkpt>
<trkpt lat="33.810616" lon="-118.3935671">
  <ele>-17.659</ele>
  <time>2026-09-02T22:09:18Z</time>
  <course>158.79</course>
  <speed>0.03</speed>
  <fix>3d</fix>
</trkpt>
<trkpt lat="33.8106162" lon="-118.3935673">
  <ele>-17.11</ele>
  <time>2026-09-02T22:09:18Z</time>
  <course>73.03</course>
  <speed>0.01</speed>
  <fix>3d</fix>
</trkpt>
<trkpt lat="33.810616" lon="-118.3935671">
  <ele>-17.617</ele>
  <time>2026-09-02T22:09:18Z</time>
  <course>158.79</course>
  <speed>0.03</speed>
  <fix>3d</fix>
</trkpt>
<trkpt lat="33.810616" lon="-118.3935671">
  <ele>-17.528</ele>
  <time>2026-09-02T22:09:18Z</time>
  <course>158.79</course>
  <speed>0.03</speed>
  <fix>3d</fix>
</trkpt>
<trkpt lat="33.8106162" lon="-118.3935673">
  <ele>-17.11</ele>
  <time>2026-09-02T22:09:18Z</time>
  <course>73.03</course>
  <speed>0.01</speed>
  <fix>3d</fix>
</trkpt>
<trkpt lat="33.810616" lon="-118.3935671">
  <ele>-17.487</ele>
  <time>2026-09-02T22:09:18Z</time>
  <course>158.79</course>
  <speed>0.03</speed>
  <fix>3d</fix>
</trkpt>
<trkpt lat="33.810616" lon="-118.3935671">
  <ele>-17.399</ele>
  <time>2026-09-02T22:09:18Z</time>
  <course>158.8</course>
  <speed>0.03</speed>
  <fix>3d</fix>
</trkpt>
<trkpt lat="33.8106162" lon="-118.3935673">
  <ele>-16.86</ele>
  <time>2026-09-02T22:09:18Z</time>
  <course>73.01</course>
  <speed>0.01</speed>
  <fix>3d</fix>
</trkpt>
<trkpt lat="33.810616" lon="-118.3935671">
  <ele>-17.358</ele>
  <time>2026-09-02T22:09:18Z</time>
  <course>158.8</course>
  <speed>0.03</speed>
  <fix>3d</fix>
</trkpt>
<trkpt lat="33.810616" lon="-118.3935671">
  <ele>-17.27</ele>
  <time>2026-09-02T22:09:18Z</time>
  <course>158.8</course>
  <speed>0.03</speed>
  <fix>3d</fix>
</trkpt>
<trkpt lat="33.8106162" lon="-118.3935673">
  <ele>-16.86</ele>
  <time>2026-09-02T22:09:18Z</time>
  <course>73.01</course>
  <speed>0.01</speed>
  <fix>3d</fix>
</trkpt>
<trkpt lat="33.810616" lon="-118.393567">
  <ele>-17.225</ele>
  <time>2026-09-02T22:09:18Z</time>
  <course>158.8</course>
  <speed>0.03</speed>
  <fix>3d</fix>
</trkpt>
<trkpt lat="33.810616" lon="-118.393567">
  <ele>-17.141</ele>
  <time>2026-09-02T22:09:18Z</time>
  <course>158.8</course>
  <speed>0.03</speed>
  <fix>3d</fix>
</trkpt>
<trkpt lat="33.8106162" lon="-118.3935673">
  <ele>-16.61</ele>
  <time>2026-09-02T22:09:18Z</time>
  <course>72.98</course>
  <speed>0.01</speed>
  <fix>3d</fix>
</trkpt>
<trkpt lat="33.810616" lon="-118.393567">
  <ele>-17.138</ele>
  <time>2026-09-02T22:09:18Z</time>
  <course>158.8</course>
  <speed>0.03</speed>
  <fix>3d</fix>
</trkpt>
<trkpt lat="33.8106161" lon="-118.393567">
  <ele>-17.011</ele>
  <time>2026-09-02T22:09:18Z</time>
  <course>158.8</course>
  <speed>0.03</speed>
  <fix>3d</fix>
</trkpt>
<trkpt lat="33.8106162" lon="-118.3935673">
  <ele>-16.61</ele>
  <time>2026-09-02T22:09:18Z</time>
  <course>72.98</course>
  <speed>0.01</speed>
  <fix>3d</fix>
</trkpt>
<trkpt lat="33.8106161" lon="-118.393567">
  <ele>-16.969</ele>
  <time>2026-09-02T22:09:18Z</time>
  <course>158.8</course>
  <speed>0.03</speed>
  <fix>3d</fix>
</trkpt>
<trkpt lat="33.8106161" lon="-118.393567">
  <ele>-16.882</ele>
  <time>2026-09-02T22:09:18Z</time>
  <course>158.8</course>
  <speed>0.03</speed>
  <fix>3d</fix>
</trkpt>
<trkpt lat="33.8106162" lon="-118.3935673">
  <ele>-16.36</ele>
  <time>2026-09-02T22:09:18Z</time>
  <course>72.98</course>
  <speed>0.01</speed>
  <fix>3d</fix>
</trkpt>
<trkpt lat="33.8106161" lon="-118.393567">
  <ele>-16.84</ele>
  <time>2026-09-02T22:09:18Z</time>
  <course>158.8</course>
  <speed>0.03</speed>
  <fix>3d</fix>
</trkpt>
<trkpt lat="33.8106161" lon="-118.393567">
  <ele>-16.753</ele>
  <time>2026-09-02T22:09:18Z</time>
  <course>158.81</course>
  <speed>0.03</speed>
  <fix>3d</fix>
</trkpt>
<trkpt lat="33.8106162" lon="-118.3935673">
  <ele>-16.36</ele>
  <time>2026-09-02T22:09:18Z</time>
  <course>72.98</course>
  <speed>0.01</speed>
  <fix>3d</fix>
</trkpt>
<trkpt lat="33.8106161" lon="-118.393567">
  <ele>-16.711</ele>
  <time>2026-09-02T22:09:18Z</time>
  <course>158.81</course>
  <speed>0.03</speed>
  <fix>3d</fix>
</trkpt>
<trkpt lat="33.8106161" lon="-118.393567">
  <ele>-16.625</ele>
  <time>2026-09-02T22:09:18Z</time>
  <course>158.81</course>
  <speed>0.03</speed>
  <fix>3d</fix>
</trkpt>
<trkpt lat="33.8106162" lon="-118.3935672">
  <ele>-16.11</ele>
  <time>2026-09-02T22:09:18Z</time>
  <course>73.03</course>
  <speed>0.01</speed>
  <fix>3d</fix>
</trkpt>
<trkpt lat="33.8106161" lon="-118.393567">
  <ele>-16.573</ele>
  <time>2026-09-02T22:09:18Z</time>
  <course>158.81</course>
  <speed>0.03</speed>
  <fix>3d</fix>
</trkpt>
<trkpt lat="33.8106161" lon="-118.393567">
  <ele>-16.496</ele>
  <time>2026-09-02T22:09:18Z</time>
  <course>158.81</course>
  <speed>0.03</speed>
  <fix>3d</fix>
</trkpt>
<trkpt lat="33.8106162" lon="-118.3935672">
  <ele>-16.11</ele>
  <time>2026-09-02T22:09:18Z</time>
  <course>73.03</course>
  <speed>0.01</speed>
  <fix>3d</fix>
</trkpt>
<trkpt lat="33.8106161" lon="-118.393567">
  <ele>-16.458</ele>
  <time>2026-09-02T22:09:18Z</time>
  <course>158.81</course>
  <speed>0.03</speed>
  <fix>3d</fix>
</trkpt>
<trkpt lat="33.8106161" lon="-118.393567">
  <ele>-16.368</ele>
  <time>2026-09-02T22:09:18Z</time>
  <course>158.81</course>
  <speed>0.03</speed>
  <fix>3d</fix>
</trkpt>
<trkpt lat="33.8106162" lon="-118.3935672">
  <ele>-15.86</ele>
  <time>2026-09-02T22:09:18Z</time>
  <course>73.09</course>
  <speed>0.01</speed>
  <fix>3d</fix>
</trkpt>
<trkpt lat="33.8106161" lon="-118.393567">
  <ele>-16.327</ele>
  <time>2026-09-02T22:09:18Z</time>
  <course>158.81</course>
  <speed>0.03</speed>
  <fix>3d</fix>
</trkpt>
<trkpt lat="33.8106161" lon="-118.393567">
  <ele>-16.241</ele>
  <time>2026-09-02T22:09:18Z</time>
  <course>158.82</course>
  <speed>0.03</speed>
  <fix>3d</fix>
</trkpt>
<trkpt lat="33.8106162" lon="-118.3935672">
  <ele>-15.86</ele>
  <time>2026-09-02T22:09:18Z</time>
  <course>73.09</course>
  <speed>0.01</speed>
  <fix>3d</fix>
</trkpt>
<trkpt lat="33.8106161" lon="-118.393567">
  <ele>-16.199</ele>
  <time>2026-09-02T22:09:18Z</time>
  <course>158.82</course>
  <speed>0.03</speed>
  <fix>3d</fix>
</trkpt>
<trkpt lat="33.8106161" lon="-118.393567">
  <ele>-16.113</ele>
  <time>2026-09-02T22:09:18Z</time>
  <course>158.82</course>
  <speed>0.03</speed>
  <fix>3d</fix>
</trkpt>
<trkpt lat="33.8106162" lon="-118.3935672">
  <ele>-15.6</ele>
  <time>2026-09-02T22:09:18Z</time>
  <course>73.12</course>
  <speed>0.01</speed>
  <fix>3d</fix>
</trkpt>
<trkpt lat="33.8106161" lon="-118.393567">
  <ele>-16.075</ele>
  <time>2026-09-02T22:09:18Z</time>
  <course>158.82</course>
  <speed>0.03</speed>
  <fix>3d</fix>
</trkpt>
<trkpt lat="33.8106161" lon="-118.393567">
  <ele>-15.985</ele>
  <time>2026-09-02T22:09:18Z</time>
  <course>158.81</course>
  <speed>0.03</speed>
  <fix>3d</fix>
</trkpt>
<trkpt lat="33.8106162" lon="-118.3935672">
  <ele>-15.6</ele>
  <time>2026-09-02T22:09:18Z</time>
  <course>73.12</course>
  <speed>0.01</speed>
  <fix>3d</fix>
</trkpt>
<trkpt lat="33.8106161" lon="-118.393567">
  <ele>-15.943</ele>
  <time>2026-09-02T22:09:18Z</time>
  <course>158.8</course>
  <speed>0.03</speed>
  <fix>3d</fix>
</trkpt>
<trkpt lat="33.8106161" lon="-118.3935669">
  <ele>-15.857</ele>
  <time>2026-09-02T22:09:18Z</time>
  <course>158.79</course>
  <speed>0.03</speed>
  <fix>3d</fix>
</trkpt>
<trkpt lat="33.8106162" lon="-118.3935672">
  <ele>-15.35</ele>
  <time>2026-09-02T22:09:18Z</time>
  <course>73.1</course>
  <speed>0.01</speed>
  <fix>3d</fix>
</trkpt>
<trkpt lat="33.8106161" lon="-118.3935669">
  <ele>-15.854</ele>
  <time>2026-09-02T22:09:18Z</time>
  <course>158.79</course>
  <speed>0.03</speed>
  <fix>3d</fix>
</trkpt>
<trkpt lat="33.8106161" lon="-118.3935669">
  <ele>-15.73</ele>
  <time>2026-09-02T22:09:18Z</time>
  <course>158.78</course>
  <speed>0.03</speed>
  <fix>3d</fix>
</trkpt>
<trkpt lat="33.8106162" lon="-118.3935672">
  <ele>-15.35</ele>
  <time>2026-09-02T22:09:18Z</time>
  <course>73.1</course>
  <speed>0.01</speed>
  <fix>3d</fix>
</trkpt>
<trkpt lat="33.8106161" lon="-118.3935669">
  <ele>-15.698</ele>
  <time>2026-09-02T22:09:18Z</time>
  <course>158.77</course>
  <speed>0.03</speed>
  <fix>3d</fix>
</trkpt>
<trkpt lat="33.8106161" lon="-118.3935669">
  <ele>-15.601</ele>
  <time>2026-09-02T22:09:18Z</time>
  <course>158.76</course>
  <speed>0.03</speed>
  <fix>3d</fix>
</trkpt>
<trkpt lat="33.8106162" lon="-118.3935672">
  <ele>-15.1</ele>
  <time>2026-09-02T22:09:18Z</time>
  <course>73.05</course>
  <speed>0.01</speed>
  <fix>3d</fix>
</trkpt>
<trkpt lat="33.8106161" lon="-118.3935669">
  <ele>-15.562</ele>
  <time>2026-09-02T22:09:18Z</time>
  <course>158.76</course>
  <speed>0.03</speed>
  <fix>3d</fix>
</trkpt>
<trkpt lat="33.8106161" lon="-118.3935669">
  <ele>-15.471</ele>
  <time>2026-09-02T22:09:18Z</time>
  <course>158.75</course>
  <speed>0.03</speed>
  <fix>3d</fix>
</trkpt>
<trkpt lat="33.8106162" lon="-118.3935672">
  <ele>-15.1</ele>
  <time>2026-09-02T22:09:18Z</time>
  <course>73.05</course>
  <speed>0.01</speed>
  <fix>3d</fix>
</trkpt>
<trkpt lat="33.8106161" lon="-118.3935669">
  <ele>-15.429</ele>
  <time>2026-09-02T22:09:18Z</time>
  <course>158.74</course>
  <speed>0.03</speed>
  <fix>3d</fix>
</trkpt>
<trkpt lat="33.8106161" lon="-118.3935669">
  <ele>-15.342</ele>
  <time>2026-09-02T22:09:18Z</time>
  <course>158.73</course>
  <speed>0.03</speed>
  <fix>3d</fix>
</trkpt>
<trkpt lat="33.8106162" lon="-118.3935671">
  <ele>-14.85</ele>
  <time>2026-09-02T22:09:18Z</time>
  <course>73.01</course>
  <speed>0.01</speed>
  <fix>3d</fix>
</trkpt>
<trkpt lat="33.8106161" lon="-118.3935669">
  <ele>-15.303</ele>
  <time>2026-09-02T22:09:18Z</time>
  <course>158.73</course>
  <speed>0.03</speed>
  <fix>3d</fix>
</trkpt>
<trkpt lat="33.8106161" lon="-118.3935669">
  <ele>-15.212</ele>
  <time>2026-09-02T22:09:18Z</time>
  <course>158.72</course>
  <speed>0.03</speed>
  <fix>3d</fix>
</trkpt>
<trkpt lat="33.8106162" lon="-118.3935671">
  <ele>-14.85</ele>
  <time>2026-09-02T22:09:18Z</time>
  <course>73.01</course>
  <speed>0.01</speed>
  <fix>3d</fix>
</trkpt>
<trkpt lat="33.8106161" lon="-118.3935669">
  <ele>-15.17</ele>
  <time>2026-09-02T22:09:18Z</time>
  <course>158.71</course>
  <speed>0.03</speed>
  <fix>3d</fix>
</trkpt>
<trkpt lat="33.8106161" lon="-118.3935669">
  <ele>-15.082</ele>
  <time>2026-09-02T22:09:18Z</time>
  <course>158.7</course>
  <speed>0.03</speed>
  <fix>3d</fix>
</trkpt>
<trkpt lat="33.8106162" lon="-118.3935671">
  <ele>-14.6</ele>
  <time>2026-09-02T22:09:18Z</time>
  <course>73.02</course>
  <speed>0.01</speed>
  <fix>3d</fix>
</trkpt>
<trkpt lat="33.8106161" lon="-118.3935669">
  <ele>-15.043</ele>
  <time>2026-09-02T22:09:18Z</time>
  <course>158.7</course>
  <speed>0.03</speed>
  <fix>3d</fix>
</trkpt>
<trkpt lat="33.8106161" lon="-118.3935669">
  <ele>-14.953</ele>
  <time>2026-09-02T22:09:18Z</time>
  <course>158.69</course>
  <speed>0.03</speed>
  <fix>3d</fix>
</trkpt>
<trkpt lat="33.8106162" lon="-118.3935671">
  <ele>-14.6</ele>
  <time>2026-09-02T22:09:18Z</time>
  <course>73.02</course>
  <speed>0.01</speed>
  <fix>3d</fix>
</trkpt>
<trkpt lat="33.8106161" lon="-118.3935669">
  <ele>-14.914</ele>
  <time>2026-09-02T22:09:18Z</time>
  <course>158.68</course>
  <speed>0.03</speed>
  <fix>3d</fix>
</trkpt>
<trkpt lat="33.8106161" lon="-118.3935669">
  <ele>-14.823</ele>
  <time>2026-09-02T22:09:18Z</time>
  <course>158.67</course>
  <speed>0.03</speed>
  <fix>3d</fix>
</trkpt>
<trkpt lat="33.8106162" lon="-118.3935671">
  <ele>-14.35</ele>
  <time>2026-09-02T22:09:18Z</time>
  <course>73.07</course>
  <speed>0.01</speed>
  <fix>3d</fix>
</trkpt>
<trkpt lat="33.8106161" lon="-118.3935669">
  <ele>-14.783</ele>
  <time>2026-09-02T22:09:18Z</time>
  <course>158.67</course>
  <speed>0.03</speed>
  <fix>3d</fix>
</trkpt>
<trkpt lat="33.8106161" lon="-118.3935669">
  <ele>-14.693</ele>
  <time>2026-09-02T22:09:18Z</time>
  <course>158.66</course>
  <speed>0.03</speed>
  <fix>3d</fix>
</trkpt>
<trkpt lat="33.8106162" lon="-118.3935671">
  <ele>-14.35</ele>
  <time>2026-09-02T22:09:18Z</time>
  <course>73.07</course>
  <speed>0.01</speed>
  <fix>3d</fix>
</trkpt>
<trkpt lat="33.8106161" lon="-118.3935669">
  <ele>-14.651</ele>
  <time>2026-09-02T22:09:18Z</time>
  <course>158.66</course>
  <speed>0.03</speed>
  <fix>3d</fix>
</trkpt>
<trkpt lat="33.8106161" lon="-118.3935669">
  <ele>-14.563</ele>
  <time>2026-09-02T22:09:18Z</time>
  <course>158.65</course>
  <speed>0.03</speed>
  <fix>3d</fix>
</trkpt>
<trkpt lat="33.8106162" lon="-118.3935671">
  <ele>-14.09</ele>
  <time>2026-09-02T22:09:18Z</time>
  <course>73.11</course>
  <speed>0.01</speed>
  <fix>3d</fix>
</trkpt>
<trkpt lat="33.8106161" lon="-118.3935669">
  <ele>-14.518</ele>
  <time>2026-09-02T22:09:18Z</time>
  <course>158.64</course>
  <speed>0.03</speed>
  <fix>3d</fix>
</trkpt>
<trkpt lat="33.8106161" lon="-118.3935668">
  <ele>-14.433</ele>
  <time>2026-09-02T22:09:18Z</time>
  <course>158.63</course>
  <speed>0.03</speed>
  <fix>3d</fix>
</trkpt>
<trkpt lat="33.8106162" lon="-118.3935671">
  <ele>-14.09</ele>
  <time>2026-09-02T22:09:18Z</time>
  <course>73.11</course>
  <speed>0.01</speed>
  <fix>3d</fix>
</trkpt>
<trkpt lat="33.8106161" lon="-118.3935668">
  <ele>-14.431</ele>
  <time>2026-09-02T22:09:18Z</time>
  <course>158.63</course>
  <speed>0.03</speed>
  <fix>3d</fix>
</trkpt>
<trkpt lat="33.8106161" lon="-118.3935668">
  <ele>-14.304</ele>
  <time>2026-09-02T22:09:18Z</time>
  <course>158.62</course>
  <speed>0.03</speed>
  <fix>3d</fix>
</trkpt>
<trkpt lat="33.8106162" lon="-118.393567">
  <ele>-13.84</ele>
  <time>2026-09-02T22:09:18Z</time>
  <course>73.12</course>
  <speed>0.01</speed>
  <fix>3d</fix>
</trkpt>
<trkpt lat="33.8106161" lon="-118.3935668">
  <ele>-14.262</ele>
  <time>2026-09-02T22:09:18Z</time>
  <course>158.61</course>
  <speed>0.03</speed>
  <fix>3d</fix>
</trkpt>
<trkpt lat="33.8106161" lon="-118.3935668">
  <ele>-14.174</ele>
  <time>2026-09-02T22:09:18Z</time>
  <course>158.61</course>
  <speed>0.03</speed>
  <fix>3d</fix>
</trkpt>
<trkpt lat="33.8106162" lon="-118.393567">
  <ele>-13.84</ele>
  <time>2026-09-02T22:09:18Z</time>
  <course>73.12</course>
  <speed>0.01</speed>
  <fix>3d</fix>
</trkpt>
<trkpt lat="33.8106161" lon="-118.3935668">
  <ele>-14.134</ele>
  <time>2026-09-02T22:09:18Z</time>
  <course>158.6</course>
  <speed>0.03</speed>
  <fix>3d</fix>
</trkpt>
<trkpt lat="33.8106161" lon="-118.3935668">
  <ele>-14.043</ele>
  <time>2026-09-02T22:09:18Z</time>
  <course>158.59</course>
  <speed>0.03</speed>
  <fix>3d</fix>
</trkpt>
<trkpt lat="33.8106162" lon="-118.393567">
  <ele>-13.59</ele>
  <time>2026-09-02T22:09:18Z</time>
  <course>73.08</course>
  <speed>0.01</speed>
  <fix>3d</fix>
</trkpt>
<trkpt lat="33.8106161" lon="-118.3935668">
  <ele>-14.0</ele>
  <time>2026-09-02T22:09:18Z</time>
  <course>158.59</course>
  <speed>0.03</speed>
  <fix>3d</fix>
</trkpt>
<trkpt lat="33.8106161" lon="-118.3935668">
  <ele>-13.912</ele>
  <time>2026-09-02T22:09:18Z</time>
  <course>158.58</course>
  <speed>0.03</speed>
  <fix>3d</fix>
</trkpt>
<trkpt lat="33.8106162" lon="-118.393567">
  <ele>-13.59</ele>
  <time>2026-09-02T22:09:18Z</time>
  <course>73.08</course>
  <speed>0.01</speed>
  <fix>3d</fix>
</trkpt>
<trkpt lat="33.8106161" lon="-118.3935668">
  <ele>-13.781</ele>
  <time>2026-09-02T22:09:18Z</time>
  <course>158.56</course>
  <speed>0.03</speed>
  <fix>3d</fix>
</trkpt>
<trkpt lat="33.8106163" lon="-118.393567">
  <ele>-13.34</ele>
  <time>2026-09-02T22:09:18Z</time>
  <course>73.02</course>
  <speed>0.01</speed>
  <fix>3d</fix>
</trkpt>
<trkpt lat="33.8106161" lon="-118.3935668">
  <ele>-13.651</ele>
  <time>2026-09-02T22:09:18Z</time>
  <course>158.55</course>
  <speed>0.03</speed>
  <fix>3d</fix>
</trkpt>
<trkpt lat="33.8106163" lon="-118.393567">
  <ele>-13.34</ele>
  <time>2026-09-02T22:09:18Z</time>
  <course>73.02</course>
  <speed>0.01</speed>
  <fix>3d</fix>
</trkpt>
<trkpt lat="33.8106161" lon="-118.3935668">
  <ele>-13.525</ele>
  <time>2026-09-02T22:09:18Z</time>
  <course>158.54</course>
  <speed>0.03</speed>
  <fix>3d</fix>
</trkpt>
<trkpt lat="33.8106163" lon="-118.393567">
  <ele>-13.09</ele>
  <time>2026-09-02T22:09:18Z</time>
  <course>72.99</course>
  <speed>0.01</speed>
  <fix>3d</fix>
</trkpt>
<trkpt lat="33.8106161" lon="-118.3935668">
  <ele>-13.403</ele>
  <time>2026-09-02T22:09:18Z</time>
  <course>158.52</course>
  <speed>0.03</speed>
  <fix>3d</fix>
</trkpt>
<trkpt lat="33.8106163" lon="-118.393567">
  <ele>-13.09</ele>
  <time>2026-09-02T22:09:18Z</time>
  <course>72.99</course>
  <speed>0.01</speed>
  <fix>3d</fix>
</trkpt>
<trkpt lat="33.8106161" lon="-118.3935667">
  <ele>-13.291</ele>
  <time>2026-09-02T22:09:18Z</time>
  <course>158.51</course>
  <speed>0.03</speed>
  <fix>3d</fix>
</trkpt>
<trkpt lat="33.8106163" lon="-118.393567">
  <ele>-12.85</ele>
  <time>2026-09-02T22:09:18Z</time>
  <course>72.94</course>
  <speed>0.01</speed>
  <fix>3d</fix>
</trkpt>
<trkpt lat="33.8106161" lon="-118.3935667">
  <ele>-13.195</ele>
  <time>2026-09-02T22:09:18Z</time>
  <course>158.5</course>
  <speed>0.03</speed>
  <fix>3d</fix>
</trkpt>
<trkpt lat="33.8106163" lon="-118.393567">
  <ele>-12.85</ele>
  <time>2026-09-02T22:09:18Z</time>
  <course>72.94</course>
  <speed>0.01</speed>
  <fix>3d</fix>
</trkpt>
<trkpt lat="33.8106161" lon="-118.3935667">
  <ele>-13.115</ele>
  <time>2026-09-02T22:09:18Z</time>
  <course>158.48</course>
  <speed>0.03</speed>
  <fix>3d</fix>
</trkpt>
<trkpt lat="33.8106163" lon="-118.3935669">
  <ele>-12.62</ele>
  <time>2026-09-02T22:09:18Z</time>
  <course>72.8</course>
  <speed>0.01</speed>
  <fix>3d</fix>
</trkpt>
<trkpt lat="33.8106161" lon="-118.3935667">
  <ele>-13.051</ele>
  <time>2026-09-02T22:09:18Z</time>
  <course>158.47</course>
  <speed>0.03</speed>
  <fix>3d</fix>
</trkpt>
<trkpt lat="33.8106163" lon="-118.3935669">
  <ele>-12.62</ele>
  <time>2026-09-02T22:09:18Z</time>
  <course>72.8</course>
  <speed>0.01</speed>
  <fix>3d</fix>
</trkpt>
<trkpt lat="33.8106161" lon="-118.3935667">
  <ele>-13.001</ele>
  <time>2026-09-02T22:09:18Z</time>
  <course>158.46</course>
  <speed>0.03</speed>
  <fix>3d</fix>
</trkpt>
<trkpt lat="33.8106163" lon="-118.3935669">
  <ele>-12.46</ele>
  <time>2026-09-02T22:09:18Z</time>
  <course>72.57</course>
  <speed>0.01</speed>
  <fix>3d</fix>
</trkpt>
<trkpt lat="33.8106161" lon="-118.3935667">
  <ele>-12.962</ele>
  <time>2026-09-02T22:09:18Z</time>
  <course>158.44</course>
  <speed>0.03</speed>
  <fix>3d</fix>
</trkpt>
<trkpt lat="33.8106163" lon="-118.3935669">
  <ele>-12.46</ele>
  <time>2026-09-02T22:09:18Z</time>
  <course>72.57</course>
  <speed>0.01</speed>
  <fix>3d</fix>
</trkpt>
<trkpt lat="33.8106161" lon="-118.3935667">
  <ele>-12.935</ele>
  <time>2026-09-02T22:09:18Z</time>
  <course>158.43</course>
  <speed>0.03</speed>
  <fix>3d</fix>
</trkpt>
<trkpt lat="33.8106163" lon="-118.3935669">
  <ele>-12.35</ele>
  <time>2026-09-02T22:09:18Z</time>
  <course>72.34</course>
  <speed>0.01</speed>
  <fix>3d</fix>
</trkpt>
<trkpt lat="33.8106162" lon="-118.3935667">
  <ele>-12.918</ele>
  <time>2026-09-02T22:09:18Z</time>
  <course>158.42</course>
  <speed>0.03</speed>
  <fix>3d</fix>
</trkpt>
<trkpt lat="33.8106163" lon="-118.3935669">
  <ele>-12.35</ele>
  <time>2026-09-02T22:09:18Z</time>
  <course>72.34</course>
  <speed>0.01</speed>
  <fix>3d</fix>
</trkpt>
<trkpt lat="33.8106162" lon="-118.3935666">
  <ele>-12.91</ele>
  <time>2026-09-02T22:09:18Z</time>
  <course>158.41</course>
  <speed>0.03</speed>
  <fix>3d</fix>
</trkpt>
<trkpt lat="33.8106163" lon="-118.3935669">
  <ele>-12.28</ele>
  <time>2026-09-02T22:09:18Z</time>
  <course>72.14</course>
  <speed>0.01</speed>
  <fix>3d</fix>
</trkpt>
<trkpt lat="33.8106162" lon="-118.3935666">
  <ele>-12.908</ele>
  <time>2026-09-02T22:09:18Z</time>
  <course>158.39</course>
  <speed>0.03</speed>
  <fix>3d</fix>
</trkpt>
<trkpt lat="33.8106163" lon="-118.3935669">
  <ele>-12.28</ele>
  <time>2026-09-02T22:09:18Z</time>
  <course>72.14</course>
  <speed>0.01</speed>
  <fix>3d</fix>
</trkpt>
<trkpt lat="33.8106162" lon="-118.3935666">
  <ele>-12.909</ele>
  <time>2026-09-02T22:09:18Z</time>
  <course>158.38</course>
  <speed>0.03</speed>
  <fix>3d</fix>
</trkpt>
<trkpt lat="33.8106163" lon="-118.3935668">
  <ele>-12.25</ele>
  <time>2026-09-02T22:09:18Z</time>
  <course>71.99</course>
  <speed>0.01</speed>
  <fix>3d</fix>
</trkpt>
<trkpt lat="33.8106162" lon="-118.3935666">
  <ele>-12.909</ele>
  <time>2026-09-02T22:09:18Z</time>
  <course>158.37</course>
  <speed>0.03</speed>
  <fix>3d</fix>
</trkpt>
<trkpt lat="33.8106163" lon="-118.3935668">
  <ele>-12.25</ele>
  <time>2026-09-02T22:09:18Z</time>
  <course>71.99</course>
  <speed>0.01</speed>
  <fix>3d</fix>
</trkpt>
<trkpt lat="33.8106162" lon="-118.3935666">
  <ele>-12.91</ele>
  <time>2026-09-02T22:09:18Z</time>
  <course>158.36</course>
  <speed>0.03</speed>
  <fix>3d</fix>
</trkpt>
<trkpt lat="33.8106163" lon="-118.3935667">
  <ele>-12.23</ele>
  <time>2026-09-02T22:09:18Z</time>
  <course>71.94</course>
  <speed>0.01</speed>
  <fix>3d</fix>
</trkpt>
<trkpt lat="33.8106162" lon="-118.3935666">
  <ele>-12.911</ele>
  <time>2026-09-02T22:09:18Z</time>
  <course>158.34</course>
  <speed>0.03</speed>
  <fix>3d</fix>
</trkpt>
<trkpt lat="33.8106163" lon="-118.3935667">
  <ele>-12.23</ele>
  <time>2026-09-02T22:09:18Z</time>
  <course>71.94</course>
  <speed>0.01</speed>
  <fix>3d</fix>
</trkpt>
<trkpt lat="33.8106162" lon="-118.3935666">
  <ele>-12.912</ele>
  <time>2026-09-02T22:09:18Z</time>
  <course>158.33</course>
  <speed>0.03</speed>
  <fix>3d</fix>
</trkpt>
<trkpt lat="33.8106163" lon="-118.3935667">
  <ele>-12.23</ele>
  <time>2026-09-02T22:09:18Z</time>
  <course>71.96</course>
  <speed>0.01</speed>
  <fix>3d</fix>
</trkpt>
<trkpt lat="33.8106162" lon="-118.3935665">
  <ele>-12.913</ele>
  <time>2026-09-02T22:09:18Z</time>
  <course>158.32</course>
  <speed>0.03</speed>
  <fix>3d</fix>
</trkpt>
<trkpt lat="33.8106163" lon="-118.3935667">
  <ele>-12.23</ele>
  <time>2026-09-02T22:09:18Z</time>
  <course>71.96</course>
  <speed>0.01</speed>
  <fix>3d</fix>
</trkpt>
<trkpt lat="33.8106162" lon="-118.3935665">
  <ele>-12.913</ele>
  <time>2026-09-02T22:09:18Z</time>
  <course>158.31</course>
  <speed>0.03</speed>
  <fix>3d</fix>
</trkpt>
<trkpt lat="33.8106163" lon="-118.3935667">
  <ele>-12.22</ele>
  <time>2026-09-02T22:09:18Z</time>
  <course>71.99</course>
  <speed>0.01</speed>
  <fix>3d</fix>
</trkpt>
<trkpt lat="33.8106162" lon="-118.3935665">
  <ele>-12.912</ele>
  <time>2026-09-02T22:09:18Z</time>
  <course>158.29</course>
  <speed>0.03</speed>
  <fix>3d</fix>
</trkpt>
<trkpt lat="33.8106163" lon="-118.3935667">
  <ele>-12.22</ele>
  <time>2026-09-02T22:09:18Z</time>
  <course>71.99</course>
  <speed>0.01</speed>
  <fix>3d</fix>
</trkpt>
<trkpt lat="33.8106162" lon="-118.3935665">
  <ele>-12.911</ele>
  <time>2026-09-02T22:09:18Z</time>
  <course>158.28</course>
  <speed>0.03</speed>
  <fix>3d</fix>
</trkpt>
<trkpt lat="33.8106163" lon="-118.3935667">
  <ele>-12.21</ele>
  <time>2026-09-02T22:09:18Z</time>
  <course>72.01</course>
  <speed>0.01</speed>
  <fix>3d</fix>
</trkpt>
<trkpt lat="33.8106162" lon="-118.3935665">
  <ele>-12.91</ele>
  <time>2026-09-02T22:09:18Z</time>
  <course>158.27</course>
  <speed>0.03</speed>
  <fix>3d</fix>
</trkpt>
<trkpt lat="33.8106163" lon="-118.3935667">
  <ele>-12.21</ele>
  <time>2026-09-02T22:09:18Z</time>
  <course>72.01</course>
  <speed>0.01</speed>
  <fix>3d</fix>
</trkpt>
<trkpt lat="33.8106162" lon="-118.3935664">
  <ele>-12.91</ele>
  <time>2026-09-02T22:09:18Z</time>
  <course>158.26</course>
  <speed>0.03</speed>
  <fix>3d</fix>
</trkpt>
<trkpt lat="33.8106163" lon="-118.3935667">
  <ele>-12.2</ele>
  <time>2026-09-02T22:09:18Z</time>
  <course>71.98</course>
  <speed>0.01</speed>
  <fix>3d</fix>
</trkpt>
<trkpt lat="33.8106162" lon="-118.3935664">
  <ele>-12.909</ele>
  <time>2026-09-02T22:09:18Z</time>
  <course>158.25</course>
  <speed>0.03</speed>
  <fix>3d</fix>
</trkpt>
<trkpt lat="33.8106163" lon="-118.3935667">
  <ele>-12.2</ele>
  <time>2026-09-02T22:09:18Z</time>
  <course>71.98</course>
  <speed>0.01</speed>
  <fix>3d</fix>
</trkpt>
<trkpt lat="33.8106162" lon="-118.3935664">
  <ele>-12.908</ele>
  <time>2026-09-02T22:09:18Z</time>
  <course>158.23</course>
  <speed>0.03</speed>
  <fix>3d</fix>
</trkpt>
<trkpt lat="33.8106163" lon="-118.3935666">
  <ele>-12.2</ele>
  <time>2026-09-02T22:09:18Z</time>
  <course>71.93</course>
  <speed>0.01</speed>
  <fix>3d</fix>
</trkpt>
<trkpt lat="33.8106162" lon="-118.3935664">
  <ele>-12.907</ele>
  <time>2026-09-02T22:09:18Z</time>
  <course>158.22</course>
  <speed>0.03</speed>
  <fix>3d</fix>
</trkpt>
<trkpt lat="33.8106163" lon="-118.3935666">
  <ele>-12.2</ele>
  <time>2026-09-02T22:09:18Z</time>
  <course>71.93</course>
  <speed>0.01</speed>
  <fix>3d</fix>
</trkpt>
<trkpt lat="33.8106162" lon="-118.3935664">
  <ele>-12.907</ele>
  <time>2026-09-02T22:09:18Z</time>
  <course>158.21</course>
  <speed>0.03</speed>
  <fix>3d</fix>
</trkpt>
<trkpt lat="33.8106164" lon="-118.3935666">
  <ele>-12.2</ele>
  <time>2026-09-02T22:09:18Z</time>
  <course>71.9</course>
  <speed>0.01</speed>
  <fix>3d</fix>
</trkpt>
<trkpt lat="33.8106162" lon="-118.3935664">
  <ele>-12.907</ele>
  <time>2026-09-02T22:09:18Z</time>
  <course>158.2</course>
  <speed>0.03</speed>
  <fix>3d</fix>
</trkpt>
<trkpt lat="33.8106164" lon="-118.3935666">
  <ele>-12.2</ele>
  <time>2026-09-02T22:09:18Z</time>
  <course>71.9</course>
  <speed>0.01</speed>
  <fix>3d</fix>
</trkpt>
<trkpt lat="33.8106162" lon="-118.3935664">
  <ele>-12.907</ele>
  <time>2026-09-02T22:09:18Z</time>
  <course>158.19</course>
  <speed>0.03</speed>
  <fix>3d</fix>
</trkpt>
<trkpt lat="33.8106164" lon="-118.3935666">
  <ele>-12.2</ele>
  <time>2026-09-02T22:09:18Z</time>
  <course>71.9</course>
  <speed>0.01</speed>
  <fix>3d</fix>
</trkpt>
<trkpt lat="33.8106162" lon="-118.3935663">
  <ele>-12.907</ele>
  <time>2026-09-02T22:09:18Z</time>
  <course>158.17</course>
  <speed>0.03</speed>
  <fix>3d</fix>
</trkpt>
<trkpt lat="33.8106164" lon="-118.3935666">
  <ele>-12.2</ele>
  <time>2026-09-02T22:09:18Z</time>
  <course>71.9</course>
  <speed>0.01</speed>
  <fix>3d</fix>
</trkpt>
<trkpt lat="33.8106162" lon="-118.3935663">
  <ele>-12.909</ele>
  <time>2026-09-02T22:09:18Z</time>
  <course>158.16</course>
  <speed>0.03</speed>
  <fix>3d</fix>
</trkpt>
<trkpt lat="33.8106164" lon="-118.3935666">
  <ele>-12.2</ele>
  <time>2026-09-02T22:09:18Z</time>
  <course>71.94</course>
  <speed>0.01</speed>
  <fix>3d</fix>
</trkpt>
<trkpt lat="33.8106162" lon="-118.3935663">
  <ele>-12.911</ele>
  <time>2026-09-02T22:09:18Z</time>
  <course>158.15</course>
  <speed>0.03</speed>
  <fix>3d</fix>
</trkpt>
<trkpt lat="33.8106164" lon="-118.3935666">
  <ele>-12.2</ele>
  <time>2026-09-02T22:09:18Z</time>
  <course>71.94</course>
  <speed>0.01</speed>
  <fix>3d</fix>
</trkpt>
<trkpt lat="33.8106162" lon="-118.3935663">
  <ele>-12.912</ele>
  <time>2026-09-02T22:09:18Z</time>
  <course>158.14</course>
  <speed>0.03</speed>
  <fix>3d</fix>
</trkpt>
<trkpt lat="33.8106164" lon="-118.3935665">
  <ele>-12.2</ele>
  <time>2026-09-02T22:09:18Z</time>
  <course>71.97</course>
  <speed>0.01</speed>
  <fix>3d</fix>
</trkpt>
<trkpt lat="33.8106162" lon="-118.3935663">
  <ele>-12.913</ele>
  <time>2026-09-02T22:09:18Z</time>
  <course>158.13</course>
  <speed>0.03</speed>
  <fix>3d</fix>
</trkpt>
<trkpt lat="33.8106164" lon="-118.3935665">
  <ele>-12.2</ele>
  <time>2026-09-02T22:09:18Z</time>
  <course>71.97</course>
  <speed>0.01</speed>
  <fix>3d</fix>
</trkpt>
<trkpt lat="33.8106163" lon="-118.3935663">
  <ele>-12.912</ele>
  <time>2026-09-02T22:09:18Z</time>
  <course>158.12</course>
  <speed>0.03</speed>
  <fix>3d</fix>
</trkpt>
<trkpt lat="33.8106164" lon="-118.3935665">
  <ele>-12.19</ele>
  <time>2026-09-02T22:09:18Z</time>
  <course>71.99</course>
  <speed>0.01</speed>
  <fix>3d</fix>
</trkpt>
<trkpt lat="33.8106163" lon="-118.3935663">
  <ele>-12.91</ele>
  <time>2026-09-02T22:09:18Z</time>
  <course>158.1</course>
  <speed>0.03</speed>
  <fix>3d</fix>
</trkpt>
<trkpt lat="33.8106164" lon="-118.3935665">
  <ele>-12.19</ele>
  <time>2026-09-02T22:09:18Z</time>
  <course>71.99</course>
  <speed>0.01</speed>
  <fix>3d</fix>
</trkpt>
<trkpt lat="33.8106163" lon="-118.3935662">
  <ele>-12.908</ele>
  <time>2026-09-02T22:09:18Z</time>
  <course>158.09</course>
  <speed>0.03</speed>
  <fix>3d</fix>
</trkpt>
<trkpt lat="33.8106164" lon="-118.3935665">
  <ele>-12.19</ele>
  <time>2026-09-02T22:09:18Z</time>
  <course>71.96</course>
  <speed>0.01</speed>
  <fix>3d</fix>
</trkpt>
<trkpt lat="33.8106163" lon="-118.3935662">
  <ele>-12.907</ele>
  <time>2026-09-02T22:09:18Z</time>
  <course>158.08</course>
  <speed>0.03</speed>
  <fix>3d</fix>
</trkpt>
<trkpt lat="33.8106164" lon="-118.3935665">
  <ele>-12.19</ele>
  <time>2026-09-02T22:09:18Z</time>
  <course>71.96</course>
  <speed>0.01</speed>
  <fix>3d</fix>
</trkpt>
<trkpt lat="33.8106163" lon="-118.3935662">
  <ele>-12.908</ele>
  <time>2026-09-02T22:09:18Z</time>
  <course>158.07</course>
  <speed>0.03</speed>
  <fix>3d</fix>
</trkpt>
<trkpt lat="33.8106164" lon="-118.3935664">
  <ele>-12.19</ele>
  <time>2026-09-02T22:09:18Z</time>
  <course>71.92</course>
  <speed>0.01</speed>
  <fix>3d</fix>
</trkpt>
<trkpt lat="33.8106163" lon="-118.3935662">
  <ele>-12.908</ele>
  <time>2026-09-02T22:09:18Z</time>
  <course>158.06</course>
  <speed>0.03</speed>
  <fix>3d</fix>
</trkpt>
<trkpt lat="33.8106164" lon="-118.3935664">
  <ele>-12.19</ele>
  <time>2026-09-02T22:09:18Z</time>
  <course>71.92</course>
  <speed>0.01</speed>
  <fix>3d</fix>
</trkpt>
<trkpt lat="33.8106163" lon="-118.3935662">
  <ele>-12.908</ele>
  <time>2026-09-02T22:09:18Z</time>
  <course>158.05</course>
  <speed>0.03</speed>
  <fix>3d</fix>
</trkpt>
<trkpt lat="33.8106164" lon="-118.3935664">
  <ele>-12.19</ele>
  <time>2026-09-02T22:09:18Z</time>
  <course>71.9</course>
  <speed>0.01</speed>
  <fix>3d</fix>
</trkpt>
<trkpt lat="33.8106163" lon="-118.3935662">
  <ele>-12.909</ele>
  <time>2026-09-02T22:09:18Z</time>
  <course>158.04</course>
  <speed>0.03</speed>
  <fix>3d</fix>
</trkpt>
<trkpt lat="33.8106164" lon="-118.3935664">
  <ele>-12.19</ele>
  <time>2026-09-02T22:09:18Z</time>
  <course>71.9</course>
  <speed>0.01</speed>
  <fix>3d</fix>
</trkpt>
<trkpt lat="33.8106163" lon="-118.3935662">
  <ele>-12.909</ele>
  <time>2026-09-02T22:09:18Z</time>
  <course>158.03</course>
  <speed>0.03</speed>
  <fix>3d</fix>
</trkpt>
<trkpt lat="33.8106164" lon="-118.3935664">
  <ele>-12.19</ele>
  <time>2026-09-02T22:09:18Z</time>
  <course>71.92</course>
  <speed>0.01</speed>
  <fix>3d</fix>
</trkpt>
<trkpt lat="33.8106163" lon="-118.3935661">
  <ele>-12.908</ele>
  <time>2026-09-02T22:09:18Z</time>
  <course>158.01</course>
  <speed>0.03</speed>
  <fix>3d</fix>
</trkpt>
<trkpt lat="33.8106164" lon="-118.3935664">
  <ele>-12.19</ele>
  <time>2026-09-02T22:09:18Z</time>
  <course>71.92</course>
  <speed>0.01</speed>
  <fix>3d</fix>
</trkpt>
<trkpt lat="33.8106163" lon="-118.3935661">
  <ele>-12.908</ele>
  <time>2026-09-02T22:09:18Z</time>
  <course>158.0</course>
  <speed>0.03</speed>
  <fix>3d</fix>
</trkpt>
<trkpt lat="33.8106164" lon="-118.3935663">
  <ele>-12.19</ele>
  <time>2026-09-02T22:09:18Z</time>
  <course>71.96</course>
  <speed>0.01</speed>
  <fix>3d</fix>
</trkpt>
<trkpt lat="33.8106163" lon="-118.3935661">
  <ele>-12.909</ele>
  <time>2026-09-02T22:09:18Z</time>
  <course>157.99</course>
  <speed>0.03</speed>
  <fix>3d</fix>
</trkpt>
<trkpt lat="33.8106164" lon="-118.3935663">
  <ele>-12.19</ele>
  <time>2026-09-02T22:09:18Z</time>
  <course>71.96</course>
  <speed>0.01</speed>
  <fix>3d</fix>
</trkpt>
<trkpt lat="33.8106163" lon="-118.3935661">
  <ele>-12.91</ele>
  <time>2026-09-02T22:09:18Z</time>
  <course>157.98</course>
  <speed>0.03</speed>
  <fix>3d</fix>
</trkpt>
<trkpt lat="33.8106164" lon="-118.3935663">
  <ele>-12.19</ele>
  <time>2026-09-02T22:09:18Z</time>
  <course>71.98</course>
  <speed>0.01</speed>
  <fix>3d</fix>
</trkpt>
<trkpt lat="33.8106163" lon="-118.3935661">
  <ele>-12.91</ele>
  <time>2026-09-02T22:09:18Z</time>
  <course>157.97</course>
  <speed>0.03</speed>
  <fix>3d</fix>
</trkpt>
<trkpt lat="33.8106164" lon="-118.3935663">
  <ele>-12.19</ele>
  <time>2026-09-02T22:09:18Z</time>
  <course>71.98</course>
  <speed>0.01</speed>
  <fix>3d</fix>
</trkpt>
<trkpt lat="33.8106163" lon="-118.3935661">
  <ele>-12.909</ele>
  <time>2026-09-02T22:09:18Z</time>
  <course>157.96</course>
  <speed>0.03</speed>
  <fix>3d</fix>
</trkpt>
<trkpt lat="33.8106164" lon="-118.3935663">
  <ele>-12.19</ele>
  <time>2026-09-02T22:09:18Z</time>
  <course>71.97</course>
  <speed>0.01</speed>
  <fix>3d</fix>
</trkpt>
<trkpt lat="33.8106163" lon="-118.3935661">
  <ele>-12.909</ele>
  <time>2026-09-02T22:09:18Z</time>
  <course>157.95</course>
  <speed>0.03</speed>
  <fix>3d</fix>
</trkpt>
<trkpt lat="33.8106164" lon="-118.3935663">
  <ele>-12.19</ele>
  <time>2026-09-02T22:09:18Z</time>
  <course>71.97</course>
  <speed>0.01</speed>
  <fix>3d</fix>
</trkpt>
<trkpt lat="33.8106163" lon="-118.393566">
  <ele>-12.91</ele>
  <time>2026-09-02T22:09:18Z</time>
  <course>157.94</course>
  <speed>0.03</speed>
  <fix>3d</fix>
</trkpt>
<trkpt lat="33.8106164" lon="-118.3935663">
  <ele>-12.19</ele>
  <time>2026-09-02T22:09:18Z</time>
  <course>71.94</course>
  <speed>0.01</speed>
  <fix>3d</fix>
</trkpt>
<trkpt lat="33.8106163" lon="-118.393566">
  <ele>-12.912</ele>
  <time>2026-09-02T22:09:18Z</time>
  <course>157.93</course>
  <speed>0.03</speed>
  <fix>3d</fix>
</trkpt>
<trkpt lat="33.8106164" lon="-118.3935663">
  <ele>-12.19</ele>
  <time>2026-09-02T22:09:18Z</time>
  <course>71.94</course>
  <speed>0.01</speed>
  <fix>3d</fix>
</trkpt>
<trkpt lat="33.8106163" lon="-118.393566">
  <ele>-12.912</ele>
  <time>2026-09-02T22:09:18Z</time>
  <course>157.92</course>
  <speed>0.03</speed>
  <fix>3d</fix>
</trkpt>
<trkpt lat="33.8106165" lon="-118.3935662">
  <ele>-12.2</ele>
  <time>2026-09-02T22:09:18Z</time>
  <course>71.91</course>
  <speed>0.01</speed>
  <fix>3d</fix>
</trkpt>
<trkpt lat="33.8106163" lon="-118.393566">
  <ele>-12.913</ele>
  <time>2026-09-02T22:09:18Z</time>
  <course>157.91</course>
  <speed>0.03</speed>
  <fix>3d</fix>
</trkpt>
<trkpt lat="33.8106165" lon="-118.3935662">
  <ele>-12.2</ele>
  <time>2026-09-02T22:09:18Z</time>
  <course>71.91</course>
  <speed>0.01</speed>
  <fix>3d</fix>
</trkpt>
<trkpt lat="33.8106163" lon="-118.393566">
  <ele>-12.913</ele>
  <time>2026-09-02T22:09:18Z</time>
  <course>157.9</course>
  <speed>0.03</speed>
  <fix>3d</fix>
</trkpt>
<trkpt lat="33.8106165" lon="-118.3935662">
  <ele>-12.2</ele>
  <time>2026-09-02T22:09:18Z</time>
  <course>71.92</course>
  <speed>0.01</speed>
  <fix>3d</fix>
</trkpt>
<trkpt lat="33.8106163" lon="-118.393566">
  <ele>-12.912</ele>
  <time>2026-09-02T22:09:19Z</time>
  <course>157.89</course>
  <speed>0.03</speed>
  <fix>3d</fix>
</trkpt>
<trkpt lat="33.8106165" lon="-118.3935662">
  <ele>-12.2</ele>
  <time>2026-09-02T22:09:19Z</time>
  <course>71.92</course>
  <speed>0.01</speed>
  <fix>3d</fix>
</trkpt>
<trkpt lat="33.8106163" lon="-118.393566">
  <ele>-12.912</ele>
  <time>2026-09-02T22:09:19Z</time>
  <course>157.88</course>
  <speed>0.03</speed>
  <fix>3d</fix>
</trkpt>
<trkpt lat="33.8106165" lon="-118.3935662">
  <ele>-12.2</ele>
  <time>2026-09-02T22:09:19Z</time>
  <course>71.95</course>
  <speed>0.01</speed>
  <fix>3d</fix>
</trkpt>
<trkpt lat="33.8106163" lon="-118.3935659">
  <ele>-12.911</ele>
  <time>2026-09-02T22:09:19Z</time>
  <course>157.87</course>
  <speed>0.03</speed>
  <fix>3d</fix>
</trkpt>
<trkpt lat="33.8106165" lon="-118.3935662">
  <ele>-12.2</ele>
  <time>2026-09-02T22:09:19Z</time>
  <course>71.95</course>
  <speed>0.01</speed>
  <fix>3d</fix>
</trkpt>
<trkpt lat="33.8106163" lon="-118.3935659">
  <ele>-12.91</ele>
  <time>2026-09-02T22:09:19Z</time>
  <course>157.86</course>
  <speed>0.03</speed>
  <fix>3d</fix>
</trkpt>
<trkpt lat="33.8106165" lon="-118.3935661">
  <ele>-12.2</ele>
  <time>2026-09-02T22:09:19Z</time>
  <course>72.0</course>
  <speed>0.01</speed>
  <fix>3d</fix>
</trkpt>
<trkpt lat="33.8106163" lon="-118.3935659">
  <ele>-12.909</ele>
  <time>2026-09-02T22:09:19Z</time>
  <course>157.85</course>
  <speed>0.03</speed>
  <fix>3d</fix>
</trkpt>
<trkpt lat="33.8106165" lon="-118.3935661">
  <ele>-12.2</ele>
  <time>2026-09-02T22:09:19Z</time>
  <course>72.0</course>
  <speed>0.01</speed>
  <fix>3d</fix>
</trkpt>
<trkpt lat="33.8106163" lon="-118.3935659">
  <ele>-12.908</ele>
  <time>2026-09-02T22:09:19Z</time>
  <course>157.84</course>
  <speed>0.03</speed>
  <fix>3d</fix>
</trkpt>
<trkpt lat="33.8106165" lon="-118.3935661">
  <ele>-12.2</ele>
  <time>2026-09-02T22:09:19Z</time>
  <course>72.02</course>
  <speed>0.01</speed>
  <fix>3d</fix>
</trkpt>
<trkpt lat="33.8106163" lon="-118.3935659">
  <ele>-12.909</ele>
  <time>2026-09-02T22:09:19Z</time>
  <course>157.82</course>
  <speed>0.03</speed>
  <fix>3d</fix>
</trkpt>
<trkpt lat="33.8106165" lon="-118.3935661">
  <ele>-12.2</ele>
  <time>2026-09-02T22:09:19Z</time>
  <course>72.02</course>
  <speed>0.01</speed>
  <fix>3d</fix>
</trkpt>
<trkpt lat="33.8106163" lon="-118.3935659">
  <ele>-12.911</ele>
  <time>2026-09-02T22:09:19Z</time>
  <course>157.81</course>
  <speed>0.03</speed>
  <fix>3d</fix>
</trkpt>
<trkpt lat="33.8106165" lon="-118.3935661">
  <ele>-12.2</ele>
  <time>2026-09-02T22:09:19Z</time>
  <course>71.99</course>
  <speed>0.01</speed>
  <fix>3d</fix>
</trkpt>
<trkpt lat="33.8106164" lon="-118.3935659">
  <ele>-12.908</ele>
  <time>2026-09-02T22:09:19Z</time>
  <course>157.8</course>
  <speed>0.03</speed>
  <fix>3d</fix>
</trkpt>
<trkpt lat="33.8106165" lon="-118.3935661">
  <ele>-12.2</ele>
  <time>2026-09-02T22:09:19Z</time>
  <course>71.99</course>
  <speed>0.01</speed>
  <fix>3d</fix>
</trkpt>
<trkpt lat="33.8106164" lon="-118.3935658">
  <ele>-12.891</ele>
  <time>2026-09-02T22:09:19Z</time>
  <course>157.79</course>
  <speed>0.03</speed>
  <fix>3d</fix>
</trkpt>
<trkpt lat="33.8106165" lon="-118.3935661">
  <ele>-12.2</ele>
  <time>2026-09-02T22:09:19Z</time>
  <course>72.0</course>
  <speed>0.01</speed>
  <fix>3d</fix>
</trkpt>
<trkpt lat="33.8106164" lon="-118.3935658">
  <ele>-12.853</ele>
  <time>2026-09-02T22:09:19Z</time>
  <course>157.78</course>
  <speed>0.03</speed>
  <fix>3d</fix>
</trkpt>
<trkpt lat="33.8106165" lon="-118.3935661">
  <ele>-12.2</ele>
  <time>2026-09-02T22:09:19Z</time>
  <course>72.0</course>
  <speed>0.01</speed>
  <fix>3d</fix>
</trkpt>
<trkpt lat="33.8106164" lon="-118.3935658">
  <ele>-12.851</ele>
  <time>2026-09-02T22:09:19Z</time>
  <course>157.78</course>
  <speed>0.03</speed>
  <fix>3d</fix>
</trkpt>
<trkpt lat="33.8106164" lon="-118.3935658">
  <ele>-12.792</ele>
  <time>2026-09-02T22:09:19Z</time>
  <course>157.77</course>
  <speed>0.03</speed>
  <fix>3d</fix>
</trkpt>
<trkpt lat="33.8106165" lon="-118.393566">
  <ele>-12.16</ele>
  <time>2026-09-02T22:09:19Z</time>
  <course>72.13</course>
  <speed>0.01</speed>
  <fix>3d</fix>
</trkpt>
<trkpt lat="33.8106164" lon="-118.3935658">
  <ele>-12.79</ele>
  <time>2026-09-02T22:09:19Z</time>
  <course>157.77</course>
  <speed>0.03</speed>
  <fix>3d</fix>
</trkpt>
<trkpt lat="33.8106164" lon="-118.3935658">
  <ele>-12.711</ele>
  <time>2026-09-02T22:09:19Z</time>
  <course>157.76</course>
  <speed>0.03</speed>
  <fix>3d</fix>
</trkpt>
<trkpt lat="33.8106165" lon="-118.393566">
  <ele>-12.16</ele>
  <time>2026-09-02T22:09:19Z</time>
  <course>72.13</course>
  <speed>0.01</speed>
  <fix>3d</fix>
</trkpt>
<trkpt lat="33.8106164" lon="-118.3935658">
  <ele>-12.68</ele>
  <time>2026-09-02T22:09:19Z</time>
  <course>157.76</course>
  <speed>0.03</speed>
  <fix>3d</fix>
</trkpt>
<trkpt lat="33.8106164" lon="-118.3935658">
  <ele>-12.61</ele>
  <time>2026-09-02T22:09:19Z</time>
  <course>157.75</course>
  <speed>0.03</speed>
  <fix>3d</fix>
</trkpt>
<trkpt lat="33.8106165" lon="-118.393566">
  <ele>-12.05</ele>
  <time>2026-09-02T22:09:19Z</time>
  <course>72.33</course>
  <speed>0.01</speed>
  <fix>3d</fix>
</trkpt>
<trkpt lat="33.8106164" lon="-118.3935658">
  <ele>-12.576</ele>
  <time>2026-09-02T22:09:19Z</time>
  <course>157.75</course>
  <speed>0.03</speed>
  <fix>3d</fix>
</trkpt>
<trkpt lat="33.8106164" lon="-118.3935658">
  <ele>-12.489</ele>
  <time>2026-09-02T22:09:19Z</time>
  <course>157.74</course>
  <speed>0.03</speed>
  <fix>3d</fix>
</trkpt>
<trkpt lat="33.8106165" lon="-118.393566">
  <ele>-12.05</ele>
  <time>2026-09-02T22:09:19Z</time>
  <course>72.33</course>
  <speed>0.01</speed>
  <fix>3d</fix>
</trkpt>
<trkpt lat="33.8106164" lon="-118.3935658">
  <ele>-12.451</ele>
  <time>2026-09-02T22:09:19Z</time>
  <course>157.74</course>
  <speed>0.03</speed>
  <fix>3d</fix>
</trkpt>
<trkpt lat="33.8106164" lon="-118.3935658">
  <ele>-12.36</ele>
  <time>2026-09-02T22:09:19Z</time>
  <course>157.73</course>
  <speed>0.03</speed>
  <fix>3d</fix>
</trkpt>
<trkpt lat="33.8106165" lon="-118.393566">
  <ele>-11.87</ele>
  <time>2026-09-02T22:09:19Z</time>
  <course>72.48</course>
  <speed>0.01</speed>
  <fix>3d</fix>
</trkpt>
<trkpt lat="33.8106164" lon="-118.3935658">
  <ele>-12.313</ele>
  <time>2026-09-02T22:09:19Z</time>
  <course>157.73</course>
  <speed>0.03</speed>
  <fix>3d</fix>
</trkpt>
<trkpt lat="33.8106164" lon="-118.3935657">
  <ele>-12.227</ele>
  <time>2026-09-02T22:09:19Z</time>
  <course>157.72</course>
  <speed>0.03</speed>
  <fix>3d</fix>
</trkpt>
<trkpt lat="33.8106165" lon="-118.393566">
  <ele>-11.87</ele>
  <time>2026-09-02T22:09:19Z</time>
  <course>72.48</course>
  <speed>0.01</speed>
  <fix>3d</fix>
</trkpt>
<trkpt lat="33.8106164" lon="-118.3935657">
  <ele>-12.184</ele>
  <time>2026-09-02T22:09:19Z</time>
  <course>157.72</course>
  <speed>0.03</speed>
  <fix>3d</fix>
</trkpt>
<trkpt lat="33.8106164" lon="-118.3935657">
  <ele>-12.093</ele>
  <time>2026-09-02T22:09:19Z</time>
  <course>157.71</course>
  <speed>0.03</speed>
  <fix>3d</fix>
</trkpt>
<trkpt lat="33.8106165" lon="-118.393566">
  <ele>-11.63</ele>
  <time>2026-09-02T22:09:19Z</time>
  <course>72.58</course>
  <speed>0.01</speed>
  <fix>3d</fix>
</trkpt>
<trkpt lat="33.8106164" lon="-118.3935657">
  <ele>-12.09</ele>
  <time>2026-09-02T22:09:19Z</time>
  <course>157.71</course>
  <speed>0.03</speed>
  <fix>3d</fix>
</trkpt>
<trkpt lat="33.8106164" lon="-118.3935657">
  <ele>-11.959</ele>
  <time>2026-09-02T22:09:19Z</time>
  <course>157.7</course>
  <speed>0.03</speed>
  <fix>3d</fix>
</trkpt>
<trkpt lat="33.8106165" lon="-118.393566">
  <ele>-11.63</ele>
  <time>2026-09-02T22:09:19Z</time>
  <course>72.58</course>
  <speed>0.01</speed>
  <fix>3d</fix>
</trkpt>
<trkpt lat="33.8106164" lon="-118.3935657">
  <ele>-11.919</ele>
  <time>2026-09-02T22:09:19Z</time>
  <course>157.7</course>
  <speed>0.03</speed>
  <fix>3d</fix>
</trkpt>
<trkpt lat="33.8106164" lon="-118.3935657">
  <ele>-11.826</ele>
  <time>2026-09-02T22:09:19Z</time>
  <course>157.69</course>
  <speed>0.03</speed>
  <fix>3d</fix>
</trkpt>
<trkpt lat="33.8106165" lon="-118.3935659">
  <ele>-11.38</ele>
  <time>2026-09-02T22:09:19Z</time>
  <course>72.6</course>
  <speed>0.01</speed>
  <fix>3d</fix>
</trkpt>
<trkpt lat="33.8106164" lon="-118.3935657">
  <ele>-11.784</ele>
  <time>2026-09-02T22:09:19Z</time>
  <course>157.69</course>
  <speed>0.03</speed>
  <fix>3d</fix>
</trkpt>
<trkpt lat="33.8106164" lon="-118.3935657">
  <ele>-11.693</ele>
  <time>2026-09-02T22:09:19Z</time>
  <course>157.68</course>
  <speed>0.03</speed>
  <fix>3d</fix>
</trkpt>
<trkpt lat="33.8106165" lon="-118.3935659">
  <ele>-11.38</ele>
  <time>2026-09-02T22:09:19Z</time>
  <course>72.6</course>
  <speed>0.01</speed>
  <fix>3d</fix>
</trkpt>
<trkpt lat="33.8106164" lon="-118.3935657">
  <ele>-11.651</ele>
  <time>2026-09-02T22:09:19Z</time>
  <course>157.68</course>
  <speed>0.03</speed>
  <fix>3d</fix>
</trkpt>
<trkpt lat="33.8106164" lon="-118.3935657">
  <ele>-11.56</ele>
  <time>2026-09-02T22:09:19Z</time>
  <course>157.68</course>
  <speed>0.03</speed>
  <fix>3d</fix>
</trkpt>
<trkpt lat="33.8106165" lon="-118.3935659">
  <ele>-11.13</ele>
  <time>2026-09-02T22:09:19Z</time>
  <course>72.61</course>
  <speed>0.01</speed>
  <fix>3d</fix>
</trkpt>
<trkpt lat="33.8106164" lon="-118.3935657">
  <ele>-11.518</ele>
  <time>2026-09-02T22:09:19Z</time>
  <course>157.67</course>
  <speed>0.03</speed>
  <fix>3d</fix>
</trkpt>
<trkpt lat="33.8106164" lon="-118.3935657">
  <ele>-11.427</ele>
  <time>2026-09-02T22:09:19Z</time>
  <course>157.67</course>
  <speed>0.03</speed>
  <fix>3d</fix>
</trkpt>
<trkpt lat="33.8106165" lon="-118.3935659">
  <ele>-11.13</ele>
  <time>2026-09-02T22:09:19Z</time>
  <course>72.61</course>
  <speed>0.01</speed>
  <fix>3d</fix>
</trkpt>
<trkpt lat="33.8106164" lon="-118.3935657">
  <ele>-11.424</ele>
  <time>2026-09-02T22:09:19Z</time>
  <course>157.66</course>
  <speed>0.03</speed>
  <fix>3d</fix>
</trkpt>
<trkpt lat="33.8106164" lon="-118.3935657">
  <ele>-11.295</ele>
  <time>2026-09-02T22:09:19Z</time>
  <course>157.66</course>
  <speed>0.03</speed>
  <fix>3d</fix>
</trkpt>
<trkpt lat="33.8106165" lon="-118.3935659">
  <ele>-10.88</ele>
  <time>2026-09-02T22:09:19Z</time>
  <course>72.61</course>
  <speed>0.01</speed>
  <fix>3d</fix>
</trkpt>
<trkpt lat="33.8106164" lon="-118.3935657">
  <ele>-11.253</ele>
  <time>2026-09-02T22:09:19Z</time>
  <course>157.65</course>
  <speed>0.03</speed>
  <fix>3d</fix>
</trkpt>
<trkpt lat="33.8106164" lon="-118.3935657">
  <ele>-11.163</ele>
  <time>2026-09-02T22:09:19Z</time>
  <course>157.65</course>
  <speed>0.03</speed>
  <fix>3d</fix>
</trkpt>
<trkpt lat="33.8106165" lon="-118.3935659">
  <ele>-10.88</ele>
  <time>2026-09-02T22:09:19Z</time>
  <course>72.61</course>
  <speed>0.01</speed>
  <fix>3d</fix>
</trkpt>
<trkpt lat="33.8106164" lon="-118.3935657">
  <ele>-11.124</ele>
  <time>2026-09-02T22:09:19Z</time>
  <course>157.64</course>
  <speed>0.0316227766016838</speed>
  <fix>3d</fix>
</trkpt>
<trkpt lat="33.8106164" lon="-118.3935657">
  <ele>-11.031</ele>
  <time>2026-09-02T22:09:19Z</time>
  <course>157.64</course>
  <speed>0.03</speed>
  <fix>3d</fix>
</trkpt>
<trkpt lat="33.8106165" lon="-118.3935659">
  <ele>-10.63</ele>
  <time>2026-09-02T22:09:19Z</time>
  <course>72.64</course>
  <speed>0.01</speed>
  <fix>3d</fix>
</trkpt>
<trkpt lat="33.8106164" lon="-118.3935656">
  <ele>-10.989</ele>
  <time>2026-09-02T22:09:19Z</time>
  <course>157.63</course>
  <speed>0.0316227766016838</speed>
  <fix>3d</fix>
</trkpt>
<trkpt lat="33.8106164" lon="-118.3935656">
  <ele>-10.899</ele>
  <time>2026-09-02T22:09:19Z</time>
  <course>157.63</course>
  <speed>0.0316227766016838</speed>
  <fix>3d</fix>
</trkpt>
<trkpt lat="33.8106165" lon="-118.3935659">
  <ele>-10.63</ele>
  <time>2026-09-02T22:09:19Z</time>
  <course>72.64</course>
  <speed>0.01</speed>
  <fix>3d</fix>
</trkpt>
<trkpt lat="33.8106164" lon="-118.3935656">
  <ele>-10.853</ele>
  <time>2026-09-02T22:09:19Z</time>
  <course>157.62</course>
  <speed>0.0316227766016838</speed>
  <fix>3d</fix>
</trkpt>
<trkpt lat="33.8106164" lon="-118.3935656">
  <ele>-10.767</ele>
  <time>2026-09-02T22:09:19Z</time>
  <course>157.62</course>
  <speed>0.0316227766016838</speed>
  <fix>3d</fix>
</trkpt>
<trkpt lat="33.8106165" lon="-118.3935658">
  <ele>-10.38</ele>
  <time>2026-09-02T22:09:19Z</time>
  <course>72.71</course>
  <speed>0.01</speed>
  <fix>3d</fix>
</trkpt>
<trkpt lat="33.8106164" lon="-118.3935656">
  <ele>-10.725</ele>
  <time>2026-09-02T22:09:19Z</time>
  <course>157.61</course>
  <speed>0.0316227766016838</speed>
  <fix>3d</fix>
</trkpt>
<trkpt lat="33.8106164" lon="-118.3935656">
  <ele>-10.637</ele>
  <time>2026-09-02T22:09:19Z</time>
  <course>157.61</course>
  <speed>0.0316227766016838</speed>
  <fix>3d</fix>
</trkpt>
<trkpt lat="33.8106165" lon="-118.3935658">
  <ele>-10.38</ele>
  <time>2026-09-02T22:09:19Z</time>
  <course>72.71</course>
  <speed>0.01</speed>
  <fix>3d</fix>
</trkpt>
<trkpt lat="33.8106164" lon="-118.3935656">
  <ele>-10.598</ele>
  <time>2026-09-02T22:09:19Z</time>
  <course>157.6</course>
  <speed>0.0316227766016838</speed>
  <fix>3d</fix>
</trkpt>
<trkpt lat="33.8106164" lon="-118.3935656">
  <ele>-10.506</ele>
  <time>2026-09-02T22:09:19Z</time>
  <course>157.6</course>
  <speed>0.0316227766016838</speed>
  <fix>3d</fix>
</trkpt>
<trkpt lat="33.8106165" lon="-118.3935658">
  <ele>-10.12</ele>
  <time>2026-09-02T22:09:19Z</time>
  <course>72.8</course>
  <speed>0.01</speed>
  <fix>3d</fix>
</trkpt>
<trkpt lat="33.8106164" lon="-118.3935656">
  <ele>-10.464</ele>
  <time>2026-09-02T22:09:19Z</time>
  <course>157.59</course>
  <speed>0.0316227766016838</speed>
  <fix>3d</fix>
</trkpt>
<trkpt lat="33.8106164" lon="-118.3935656">
  <ele>-10.374</ele>
  <time>2026-09-02T22:09:19Z</time>
  <course>157.59</course>
  <speed>0.0316227766016838</speed>
  <fix>3d</fix>
</trkpt>
<trkpt lat="33.8106165" lon="-118.3935658">
  <ele>-10.12</ele>
  <time>2026-09-02T22:09:19Z</time>
  <course>72.8</course>
  <speed>0.01</speed>
  <fix>3d</fix>
</trkpt>
<trkpt lat="33.8106164" lon="-118.3935656">
  <ele>-10.335</ele>
  <time>2026-09-02T22:09:19Z</time>
  <course>157.58</course>
  <speed>0.0316227766016838</speed>
  <fix>3d</fix>
</trkpt>
<trkpt lat="33.8106164" lon="-118.3935656">
  <ele>-10.244</ele>
  <time>2026-09-02T22:09:19Z</time>
  <course>157.58</course>
  <speed>0.0316227766016838</speed>
  <fix>3d</fix>
</trkpt>
<trkpt lat="33.8106165" lon="-118.3935658">
  <ele>-9.87</ele>
  <time>2026-09-02T22:09:19Z</time>
  <course>72.86</course>
  <speed>0.01</speed>
  <fix>3d</fix>
</trkpt>
<trkpt lat="33.8106164" lon="-118.3935656">
  <ele>-10.205</ele>
  <time>2026-09-02T22:09:19Z</time>
  <course>157.58</course>
  <speed>0.0316227766016838</speed>
  <fix>3d</fix>
</trkpt>
<trkpt lat="33.8106164" lon="-118.3935656">
  <ele>-10.114</ele>
  <time>2026-09-02T22:09:19Z</time>
  <course>157.57</course>
  <speed>0.0316227766016838</speed>
  <fix>3d</fix>
</trkpt>
<trkpt lat="33.8106165" lon="-118.3935658">
  <ele>-9.87</ele>
  <time>2026-09-02T22:09:19Z</time>
  <course>72.86</course>
  <speed>0.01</speed>
  <fix>3d</fix>
</trkpt>
<trkpt lat="33.8106164" lon="-118.3935656">
  <ele>-10.111</ele>
  <time>2026-09-02T22:09:19Z</time>
  <course>157.57</course>
  <speed>0.0316227766016838</speed>
  <fix>3d</fix>
</trkpt>
<trkpt lat="33.8106164" lon="-118.3935656">
  <ele>-9.983</ele>
  <time>2026-09-02T22:09:19Z</time>
  <course>157.56</course>
  <speed>0.0316227766016838</speed>
  <fix>3d</fix>
</trkpt>
<trkpt lat="33.8106165" lon="-118.3935658">
  <ele>-9.62</ele>
  <time>2026-09-02T22:09:19Z</time>
  <course>72.87</course>
  <speed>0.01</speed>
  <fix>3d</fix>
</trkpt>
<trkpt lat="33.8106164" lon="-118.3935656">
  <ele>-9.943</ele>
  <time>2026-09-02T22:09:19Z</time>
  <course>157.56</course>
  <speed>0.0316227766016838</speed>
  <fix>3d</fix>
</trkpt>
<trkpt lat="33.8106164" lon="-118.3935656">
  <ele>-9.852</ele>
  <time>2026-09-02T22:09:19Z</time>
  <course>157.55</course>
  <speed>0.0316227766016838</speed>
  <fix>3d</fix>
</trkpt>
<trkpt lat="33.8106165" lon="-118.3935658">
  <ele>-9.62</ele>
  <time>2026-09-02T22:09:19Z</time>
  <course>72.87</course>
  <speed>0.01</speed>
  <fix>3d</fix>
</trkpt>
<trkpt lat="33.8106164" lon="-118.3935656">
  <ele>-9.81</ele>
  <time>2026-09-02T22:09:19Z</time>
  <course>157.55</course>
  <speed>0.0316227766016838</speed>
  <fix>3d</fix>
</trkpt>
<trkpt lat="33.8106164" lon="-118.3935655">
  <ele>-9.722</ele>
  <time>2026-09-02T22:09:19Z</time>
  <course>157.54</course>
  <speed>0.0316227766016838</speed>
  <fix>3d</fix>
</trkpt>
<trkpt lat="33.8106165" lon="-118.3935658">
  <ele>-9.37</ele>
  <time>2026-09-02T22:09:19Z</time>
  <course>72.84</course>
  <speed>0.01</speed>
  <fix>3d</fix>
</trkpt>
<trkpt lat="33.8106164" lon="-118.3935655">
  <ele>-9.683</ele>
  <time>2026-09-02T22:09:19Z</time>
  <course>157.54</course>
  <speed>0.0316227766016838</speed>
  <fix>3d</fix>
</trkpt>
<trkpt lat="33.8106164" lon="-118.3935655">
  <ele>-9.593</ele>
  <time>2026-09-02T22:09:19Z</time>
  <course>157.53</course>
  <speed>0.0316227766016838</speed>
  <fix>3d</fix>
</trkpt>
<trkpt lat="33.8106165" lon="-118.3935658">
  <ele>-9.37</ele>
  <time>2026-09-02T22:09:19Z</time>
  <course>72.84</course>
  <speed>0.01</speed>
  <fix>3d</fix>
</trkpt>
<trkpt lat="33.8106164" lon="-118.3935655">
  <ele>-9.547</ele>
  <time>2026-09-02T22:09:19Z</time>
  <course>157.53</course>
  <speed>0.0316227766016838</speed>
  <fix>3d</fix>
</trkpt>
<trkpt lat="33.8106164" lon="-118.3935655">
  <ele>-9.463</ele>
  <time>2026-09-02T22:09:19Z</time>
  <course>157.52</course>
  <speed>0.0316227766016838</speed>
  <fix>3d</fix>
</trkpt>
<trkpt lat="33.8106165" lon="-118.3935657">
  <ele>-9.12</ele>
  <time>2026-09-02T22:09:19Z</time>
  <course>72.82</course>
  <speed>0.01</speed>
  <fix>3d</fix>
</trkpt>
<trkpt lat="33.8106164" lon="-118.3935655">
  <ele>-9.417</ele>
  <time>2026-09-02T22:09:19Z</time>
  <course>157.52</course>
  <speed>0.0316227766016838</speed>
  <fix>3d</fix>
</trkpt>
<trkpt lat="33.8106164" lon="-118.3935655">
  <ele>-9.333</ele>
  <time>2026-09-02T22:09:19Z</time>
  <course>157.51</course>
  <speed>0.0316227766016838</speed>
  <fix>3d</fix>
</trkpt>
<trkpt lat="33.8106165" lon="-118.3935657">
  <ele>-9.12</ele>
  <time>2026-09-02T22:09:19Z</time>
  <course>72.82</course>
  <speed>0.01</speed>
  <fix>3d</fix>
</trkpt>
<trkpt lat="33.8106164" lon="-118.3935655">
  <ele>-9.294</ele>
  <time>2026-09-02T22:09:19Z</time>
  <course>157.51</course>
  <speed>0.0316227766016838</speed>
  <fix>3d</fix>
</trkpt>
<trkpt lat="33.8106164" lon="-118.3935655">
  <ele>-9.204</ele>
  <time>2026-09-02T22:09:19Z</time>
  <course>157.5</course>
  <speed>0.0316227766016838</speed>
  <fix>3d</fix>
</trkpt>
<trkpt lat="33.8106165" lon="-118.3935657">
  <ele>-8.87</ele>
  <time>2026-09-02T22:09:19Z</time>
  <course>72.83</course>
  <speed>0.01</speed>
  <fix>3d</fix>
</trkpt>
<trkpt lat="33.8106164" lon="-118.3935655">
  <ele>-9.159</ele>
  <time>2026-09-02T22:09:19Z</time>
  <course>157.5</course>
  <speed>0.0316227766016838</speed>
  <fix>3d</fix>
</trkpt>
<trkpt lat="33.8106164" lon="-118.3935655">
  <ele>-9.075</ele>
  <time>2026-09-02T22:09:19Z</time>
  <course>157.49</course>
  <speed>0.0316227766016838</speed>
  <fix>3d</fix>
</trkpt>
<trkpt lat="33.8106165" lon="-118.3935657">
  <ele>-8.87</ele>
  <time>2026-09-02T22:09:19Z</time>
  <course>72.83</course>
  <speed>0.01</speed>
  <fix>3d</fix>
</trkpt>
<trkpt lat="33.8106164" lon="-118.3935655">
  <ele>-9.035</ele>
  <time>2026-09-02T22:09:19Z</time>
  <course>157.49</course>
  <speed>0.0316227766016838</speed>
  <fix>3d</fix>
</trkpt>
<trkpt lat="33.8106164" lon="-118.3935655">
  <ele>-8.947</ele>
  <time>2026-09-02T22:09:19Z</time>
  <course>157.48</course>
  <speed>0.0316227766016838</speed>
  <fix>3d</fix>
</trkpt>
<trkpt lat="33.8106165" lon="-118.3935657">
  <ele>-8.62</ele>
  <time>2026-09-02T22:09:19Z</time>
  <course>72.89</course>
  <speed>0.01</speed>
  <fix>3d</fix>
</trkpt>
<trkpt lat="33.8106164" lon="-118.3935655">
  <ele>-8.908</ele>
  <time>2026-09-02T22:09:19Z</time>
  <course>157.48</course>
  <speed>0.0316227766016838</speed>
  <fix>3d</fix>
</trkpt>
<trkpt lat="33.8106164" lon="-118.3935655">
  <ele>-8.818</ele>
  <time>2026-09-02T22:09:19Z</time>
  <course>157.47</course>
  <speed>0.0316227766016838</speed>
  <fix>3d</fix>
</trkpt>
<trkpt lat="33.8106165" lon="-118.3935657">
  <ele>-8.62</ele>
  <time>2026-09-02T22:09:19Z</time>
  <course>72.89</course>
  <speed>0.01</speed>
  <fix>3d</fix>
</trkpt>
<trkpt lat="33.8106164" lon="-118.3935655">
  <ele>-8.776</ele>
  <time>2026-09-02T22:09:19Z</time>
  <course>157.47</course>
  <speed>0.0316227766016838</speed>
  <fix>3d</fix>
</trkpt>
<trkpt lat="33.8106164" lon="-118.3935655">
  <ele>-8.688</ele>
  <time>2026-09-02T22:09:19Z</time>
  <course>157.47</course>
  <speed>0.0316227766016838</speed>
  <fix>3d</fix>
</trkpt>
<trkpt lat="33.8106165" lon="-118.3935657">
  <ele>-8.36</ele>
  <time>2026-09-02T22:09:19Z</time>
  <course>72.94</course>
  <speed>0.01</speed>
  <fix>3d</fix>
</trkpt>
<trkpt lat="33.8106164" lon="-118.3935655">
  <ele>-8.685</ele>
  <time>2026-09-02T22:09:19Z</time>
  <course>157.47</course>
  <speed>0.0316227766016838</speed>
  <fix>3d</fix>
</trkpt>
<trkpt lat="33.8106164" lon="-118.3935655">
  <ele>-8.558</ele>
  <time>2026-09-02T22:09:19Z</time>
  <course>157.46</course>
  <speed>0.0316227766016838</speed>
  <fix>3d</fix>
</trkpt>
<trkpt lat="33.8106165" lon="-118.3935657">
  <ele>-8.36</ele>
  <time>2026-09-02T22:09:19Z</time>
  <course>72.94</course>
  <speed>0.01</speed>
  <fix>3d</fix>
</trkpt>
<trkpt lat="33.8106164" lon="-118.3935655">
  <ele>-8.519</ele>
  <time>2026-09-02T22:09:19Z</time>
  <course>157.45</course>
  <speed>0.0316227766016838</speed>
  <fix>3d</fix>
</trkpt>
<trkpt lat="33.8106164" lon="-118.3935654">
  <ele>-8.428</ele>
  <time>2026-09-02T22:09:19Z</time>
  <course>157.45</course>
  <speed>0.0316227766016838</speed>
  <fix>3d</fix>
</trkpt>
<trkpt lat="33.8106165" lon="-118.3935656">
  <ele>-8.11</ele>
  <time>2026-09-02T22:09:19Z</time>
  <course>72.96</course>
  <speed>0.01</speed>
  <fix>3d</fix>
</trkpt>
<trkpt lat="33.8106164" lon="-118.3935654">
  <ele>-8.386</ele>
  <time>2026-09-02T22:09:19Z</time>
  <course>157.44</course>
  <speed>0.0316227766016838</speed>
  <fix>3d</fix>
</trkpt>
<trkpt lat="33.8106164" lon="-118.3935654">
  <ele>-8.299</ele>
  <time>2026-09-02T22:09:19Z</time>
  <course>157.44</course>
  <speed>0.0316227766016838</speed>
  <fix>3d</fix>
</trkpt>
<trkpt lat="33.8106165" lon="-118.3935656">
  <ele>-8.11</ele>
  <time>2026-09-02T22:09:19Z</time>
  <course>72.96</course>
  <speed>0.01</speed>
  <fix>3d</fix>
</trkpt>
<trkpt lat="33.8106164" lon="-118.3935654">
  <ele>-8.257</ele>
  <time>2026-09-02T22:09:19Z</time>
  <course>157.43</course>
  <speed>0.0316227766016838</speed>
  <fix>3d</fix>
</trkpt>
<trkpt lat="33.8106164" lon="-118.3935654">
  <ele>-8.17</ele>
  <time>2026-09-02T22:09:19Z</time>
  <course>157.43</course>
  <speed>0.0316227766016838</speed>
  <fix>3d</fix>
</trkpt>
<trkpt lat="33.8106165" lon="-118.3935656">
  <ele>-7.86</ele>
  <time>2026-09-02T22:09:19Z</time>
  <course>72.94</course>
  <speed>0.01</speed>
  <fix>3d</fix>
</trkpt>
<trkpt lat="33.8106164" lon="-118.3935654">
  <ele>-8.128</ele>
  <time>2026-09-02T22:09:19Z</time>
  <course>157.42</course>
  <speed>0.0316227766016838</speed>
  <fix>3d</fix>
</trkpt>
<trkpt lat="33.8106164" lon="-118.3935654">
  <ele>-8.041</ele>
  <time>2026-09-02T22:09:19Z</time>
  <course>157.42</course>
  <speed>0.0316227766016838</speed>
  <fix>3d</fix>
</trkpt>
<trkpt lat="33.8106165" lon="-118.3935656">
  <ele>-7.86</ele>
  <time>2026-09-02T22:09:19Z</time>
  <course>72.94</course>
  <speed>0.01</speed>
  <fix>3d</fix>
</trkpt>
<trkpt lat="33.8106164" lon="-118.3935654">
  <ele>-8.038</ele>
  <time>2026-09-02T22:09:19Z</time>
  <course>157.42</course>
  <speed>0.0316227766016838</speed>
  <fix>3d</fix>
</trkpt>
<trkpt lat="33.8106164" lon="-118.3935654">
  <ele>-7.912</ele>
  <time>2026-09-02T22:09:19Z</time>
  <course>157.41</course>
  <speed>0.0316227766016838</speed>
  <fix>3d</fix>
</trkpt>
<trkpt lat="33.8106165" lon="-118.3935656">
  <ele>-7.61</ele>
  <time>2026-09-02T22:09:19Z</time>
  <course>72.89</course>
  <speed>0.01</speed>
  <fix>3d</fix>
</trkpt>
<trkpt lat="33.8106164" lon="-118.3935654">
  <ele>-7.87</ele>
  <time>2026-09-02T22:09:19Z</time>
  <course>157.41</course>
  <speed>0.0316227766016838</speed>
  <fix>3d</fix>
</trkpt>
<trkpt lat="33.8106164" lon="-118.3935654">
  <ele>-7.782</ele>
  <time>2026-09-02T22:09:19Z</time>
  <course>157.4</course>
  <speed>0.0316227766016838</speed>
  <fix>3d</fix>
</trkpt>
<trkpt lat="33.8106165" lon="-118.3935656">
  <ele>-7.61</ele>
  <time>2026-09-02T22:09:19Z</time>
  <course>72.89</course>
  <speed>0.01</speed>
  <fix>3d</fix>
</trkpt>
<trkpt lat="33.8106164" lon="-118.3935654">
  <ele>-7.74</ele>
  <time>2026-09-02T22:09:19Z</time>
  <course>157.4</course>
  <speed>0.0316227766016838</speed>
  <fix>3d</fix>
</trkpt>
<trkpt lat="33.8106164" lon="-118.3935654">
  <ele>-7.652</ele>
  <time>2026-09-02T22:09:19Z</time>
  <course>157.39</course>
  <speed>0.0316227766016838</speed>
  <fix>3d</fix>
</trkpt>
<trkpt lat="33.8106165" lon="-118.3935656">
  <ele>-7.35</ele>
  <time>2026-09-02T22:09:19Z</time>
  <course>72.86</course>
  <speed>0.01</speed>
  <fix>3d</fix>
</trkpt>
<trkpt lat="33.8106164" lon="-118.3935654">
  <ele>-7.61</ele>
  <time>2026-09-02T22:09:19Z</time>
  <course>157.39</course>
  <speed>0.0316227766016838</speed>
  <fix>3d</fix>
</trkpt>
<trkpt lat="33.8106164" lon="-118.3935654">
  <ele>-7.523</ele>
  <time>2026-09-02T22:09:19Z</time>
  <course>157.38</course>
  <speed>0.0316227766016838</speed>
  <fix>3d</fix>
</trkpt>
<trkpt lat="33.8106165" lon="-118.3935656">
  <ele>-7.35</ele>
  <time>2026-09-02T22:09:19Z</time>
  <course>72.86</course>
  <speed>0.01</speed>
  <fix>3d</fix>
</trkpt>
<trkpt lat="33.8106164" lon="-118.3935654">
  <ele>-7.485</ele>
  <time>2026-09-02T22:09:19Z</time>
  <course>157.38</course>
  <speed>0.0316227766016838</speed>
  <fix>3d</fix>
</trkpt>
<trkpt lat="33.8106164" lon="-118.3935654">
  <ele>-7.394</ele>
  <time>2026-09-02T22:09:19Z</time>
  <course>157.37</course>
  <speed>0.0316227766016838</speed>
  <fix>3d</fix>
</trkpt>
<trkpt lat="33.8106165" lon="-118.3935656">
  <ele>-7.1</ele>
  <time>2026-09-02T22:09:19Z</time>
  <course>72.88</course>
  <speed>0.01</speed>
  <fix>3d</fix>
</trkpt>
<trkpt lat="33.8106164" lon="-118.3935654">
  <ele>-7.391</ele>
  <time>2026-09-02T22:09:19Z</time>
  <course>157.37</course>
  <speed>0.0316227766016838</speed>
  <fix>3d</fix>
</trkpt>
<trkpt lat="33.8106164" lon="-118.3935653">
  <ele>-7.265</ele>
  <time>2026-09-02T22:09:19Z</time>
  <course>157.36</course>
  <speed>0.0316227766016838</speed>
  <fix>3d</fix>
</trkpt>
<trkpt lat="33.8106165" lon="-118.3935656">
  <ele>-7.1</ele>
  <time>2026-09-02T22:09:19Z</time>
  <course>72.88</course>
  <speed>0.01</speed>
  <fix>3d</fix>
</trkpt>
<trkpt lat="33.8106164" lon="-118.3935653">
  <ele>-7.226</ele>
  <time>2026-09-02T22:09:19Z</time>
  <course>157.36</course>
  <speed>0.0316227766016838</speed>
  <fix>3d</fix>
</trkpt>
<trkpt lat="33.8106164" lon="-118.3935653">
  <ele>-7.136</ele>
  <time>2026-09-02T22:09:19Z</time>
  <course>157.35</course>
  <speed>0.0316227766016838</speed>
  <fix>3d</fix>
</trkpt>
<trkpt lat="33.8106165" lon="-118.3935655">
  <ele>-6.85</ele>
  <time>2026-09-02T22:09:19Z</time>
  <course>72.93</course>
  <speed>0.01</speed>
  <fix>3d</fix>
</trkpt>
<trkpt lat="33.8106164" lon="-118.3935653">
  <ele>-7.133</ele>
  <time>2026-09-02T22:09:19Z</time>
  <course>157.35</course>
  <speed>0.0316227766016838</speed>
  <fix>3d</fix>
</trkpt>
<trkpt lat="33.8106164" lon="-118.3935653">
  <ele>-7.007</ele>
  <time>2026-09-02T22:09:19Z</time>
  <course>157.34</course>
  <speed>0.0316227766016838</speed>
  <fix>3d</fix>
</trkpt>
<trkpt lat="33.8106165" lon="-118.3935655">
  <ele>-6.85</ele>
  <time>2026-09-02T22:09:19Z</time>
  <course>72.93</course>
  <speed>0.01</speed>
  <fix>3d</fix>
</trkpt>
<trkpt lat="33.8106164" lon="-118.3935653">
  <ele>-6.965</ele>
  <time>2026-09-02T22:09:19Z</time>
  <course>157.34</course>
  <speed>0.0316227766016838</speed>
  <fix>3d</fix>
</trkpt>
<trkpt lat="33.8106164" lon="-118.3935653">
  <ele>-6.879</ele>
  <time>2026-09-02T22:09:19Z</time>
  <course>157.33</course>
  <speed>0.0316227766016838</speed>
  <fix>3d</fix>
</trkpt>
<trkpt lat="33.8106165" lon="-118.3935655">
  <ele>-6.6</ele>
  <time>2026-09-02T22:09:19Z</time>
  <course>72.97</course>
  <speed>0.01</speed>
  <fix>3d</fix>
</trkpt>
<trkpt lat="33.8106164" lon="-118.3935653">
  <ele>-6.841</ele>
  <time>2026-09-02T22:09:19Z</time>
  <course>157.33</course>
  <speed>0.0316227766016838</speed>
  <fix>3d</fix>
</trkpt>
<trkpt lat="33.8106164" lon="-118.3935653">
  <ele>-6.751</ele>
  <time>2026-09-02T22:09:19Z</time>
  <course>157.32</course>
  <speed>0.0316227766016838</speed>
  <fix>3d</fix>
</trkpt>
<trkpt lat="33.8106165" lon="-118.3935655">
  <ele>-6.6</ele>
  <time>2026-09-02T22:09:19Z</time>
  <course>72.97</course>
  <speed>0.01</speed>
  <fix>3d</fix>
</trkpt>
<trkpt lat="33.8106164" lon="-118.3935653">
  <ele>-6.7</ele>
  <time>2026-09-02T22:09:19Z</time>
  <course>157.32</course>
  <speed>0.0316227766016838</speed>
  <fix>3d</fix>
</trkpt>
<trkpt lat="33.8106164" lon="-118.3935653">
  <ele>-6.624</ele>
  <time>2026-09-02T22:09:19Z</time>
  <course>157.32</course>
  <speed>0.0316227766016838</speed>
  <fix>3d</fix>
</trkpt>
<trkpt lat="33.8106166" lon="-118.3935655">
  <ele>-6.35</ele>
  <time>2026-09-02T22:09:19Z</time>
  <course>72.96</course>
  <speed>0.01</speed>
  <fix>3d</fix>
</trkpt>
<trkpt lat="33.8106164" lon="-118.3935653">
  <ele>-6.586</ele>
  <time>2026-09-02T22:09:19Z</time>
  <course>157.31</course>
  <speed>0.0316227766016838</speed>
  <fix>3d</fix>
</trkpt>
<trkpt lat="33.8106164" lon="-118.3935653">
  <ele>-6.497</ele>
  <time>2026-09-02T22:09:19Z</time>
  <course>157.31</course>
  <speed>0.0316227766016838</speed>
  <fix>3d</fix>
</trkpt>
<trkpt lat="33.8106166" lon="-118.3935655">
  <ele>-6.35</ele>
  <time>2026-09-02T22:09:19Z</time>
  <course>72.96</course>
  <speed>0.01</speed>
  <fix>3d</fix>
</trkpt>
<trkpt lat="33.8106164" lon="-118.3935653">
  <ele>-6.456</ele>
  <time>2026-09-02T22:09:19Z</time>
  <course>157.3</course>
  <speed>0.0316227766016838</speed>
  <fix>3d</fix>
</trkpt>
<trkpt lat="33.8106164" lon="-118.3935653">
  <ele>-6.369</ele>
  <time>2026-09-02T22:09:19Z</time>
  <course>157.3</course>
  <speed>0.0316227766016838</speed>
  <fix>3d</fix>
</trkpt>
<trkpt lat="33.8106167" lon="-118.3935655">
  <ele>-6.1</ele>
  <time>2026-09-02T22:09:19Z</time>
  <course>72.91</course>
  <speed>0.01</speed>
  <fix>3d</fix>
</trkpt>
<trkpt lat="33.8106164" lon="-118.3935653">
  <ele>-6.329</ele>
  <time>2026-09-02T22:09:19Z</time>
  <course>157.29</course>
  <speed>0.0316227766016838</speed>
  <fix>3d</fix>
</trkpt>
<trkpt lat="33.8106164" lon="-118.3935653">
  <ele>-6.241</ele>
  <time>2026-09-02T22:09:19Z</time>
  <course>157.29</course>
  <speed>0.03</speed>
  <fix>3d</fix>
</trkpt>
<trkpt lat="33.8106167" lon="-118.3935655">
  <ele>-6.1</ele>
  <time>2026-09-02T22:09:19Z</time>
  <course>72.91</course>
  <speed>0.01</speed>
  <fix>3d</fix>
</trkpt>
<trkpt lat="33.8106164" lon="-118.3935653">
  <ele>-6.194</ele>
  <time>2026-09-02T22:09:19Z</time>
  <course>157.28</course>
  <speed>0.03</speed>
  <fix>3d</fix>
</trkpt>
<trkpt lat="33.8106164" lon="-118.3935653">
  <ele>-6.113</ele>
  <time>2026-09-02T22:09:19Z</time>
  <course>157.28</course>
  <speed>0.03</speed>
  <fix>3d</fix>
</trkpt>
<trkpt lat="33.8106167" lon="-118.3935655">
  <ele>-5.85</ele>
  <time>2026-09-02T22:09:19Z</time>
  <course>72.86</course>
  <speed>0.01</speed>
  <fix>3d</fix>
</trkpt>
<trkpt lat="33.8106164" lon="-118.3935653">
  <ele>-6.071</ele>
  <time>2026-09-02T22:09:19Z</time>
  <course>157.27</course>
  <speed>0.03</speed>
  <fix>3d</fix>
</trkpt>
<trkpt lat="33.8106164" lon="-118.3935652">
  <ele>-5.984</ele>
  <time>2026-09-02T22:09:19Z</time>
  <course>157.27</course>
  <speed>0.03</speed>
  <fix>3d</fix>
</trkpt>
<trkpt lat="33.8106167" lon="-118.3935655">
  <ele>-5.85</ele>
  <time>2026-09-02T22:09:19Z</time>
  <course>72.86</course>
  <speed>0.01</speed>
  <fix>3d</fix>
</trkpt>
<trkpt lat="33.8106164" lon="-118.3935652">
  <ele>-5.981</ele>
  <time>2026-09-02T22:09:19Z</time>
  <course>157.27</course>
  <speed>0.03</speed>
  <fix>3d</fix>
</trkpt>
<trkpt lat="33.8106164" lon="-118.3935652">
  <ele>-5.856</ele>
  <time>2026-09-02T22:09:19Z</time>
  <course>157.26</course>
  <speed>0.03</speed>
  <fix>3d</fix>
</trkpt>
<trkpt lat="33.8106167" lon="-118.3935654">
  <ele>-5.6</ele>
  <time>2026-09-02T22:09:19Z</time>
  <course>72.84</course>
  <speed>0.01</speed>
  <fix>3d</fix>
</trkpt>
<trkpt lat="33.8106164" lon="-118.3935652">
  <ele>-5.814</ele>
  <time>2026-09-02T22:09:19Z</time>
  <course>157.25</course>
  <speed>0.03</speed>
  <fix>3d</fix>
</trkpt>
<trkpt lat="33.8106164" lon="-118.3935652">
  <ele>-5.727</ele>
  <time>2026-09-02T22:09:19Z</time>
  <course>157.25</course>
  <speed>0.03</speed>
  <fix>3d</fix>
</trkpt>
<trkpt lat="33.8106167" lon="-118.3935654">
  <ele>-5.6</ele>
  <time>2026-09-02T22:09:19Z</time>
  <course>72.84</course>
  <speed>0.01</speed>
  <fix>3d</fix>
</trkpt>
<trkpt lat="33.8106164" lon="-118.3935652">
  <ele>-5.686</ele>
  <time>2026-09-02T22:09:19Z</time>
  <course>157.24</course>
  <speed>0.03</speed>
  <fix>3d</fix>
</trkpt>
<trkpt lat="33.8106165" lon="-118.3935652">
  <ele>-5.599</ele>
  <time>2026-09-02T22:09:19Z</time>
  <course>157.24</course>
  <speed>0.03</speed>
  <fix>3d</fix>
</trkpt>
<trkpt lat="33.8106167" lon="-118.3935654">
  <ele>-5.34</ele>
  <time>2026-09-02T22:09:19Z</time>
  <course>72.87</course>
  <speed>0.01</speed>
  <fix>3d</fix>
</trkpt>
<trkpt lat="33.8106165" lon="-118.3935652">
  <ele>-5.532</ele>
  <time>2026-09-02T22:09:19Z</time>
  <course>157.23</course>
  <speed>0.03</speed>
  <fix>3d</fix>
</trkpt>
<trkpt lat="33.8106165" lon="-118.3935652">
  <ele>-5.471</ele>
  <time>2026-09-02T22:09:19Z</time>
  <course>157.23</course>
  <speed>0.03</speed>
  <fix>3d</fix>
</trkpt>
<trkpt lat="33.8106167" lon="-118.3935654">
  <ele>-5.34</ele>
  <time>2026-09-02T22:09:19Z</time>
  <course>72.87</course>
  <speed>0.01</speed>
  <fix>3d</fix>
</trkpt>
<trkpt lat="33.8106165" lon="-118.3935652">
  <ele>-5.432</ele>
  <time>2026-09-02T22:09:19Z</time>
  <course>157.23</course>
  <speed>0.03</speed>
  <fix>3d</fix>
</trkpt>
<trkpt lat="33.8106165" lon="-118.3935652">
  <ele>-5.343</ele>
  <time>2026-09-02T22:09:19Z</time>
  <course>157.22</course>
  <speed>0.03</speed>
  <fix>3d</fix>
</trkpt>
<trkpt lat="33.8106167" lon="-118.3935654">
  <ele>-5.09</ele>
  <time>2026-09-02T22:09:19Z</time>
  <course>72.91</course>
  <speed>0.01</speed>
  <fix>3d</fix>
</trkpt>
<trkpt lat="33.8106165" lon="-118.3935652">
  <ele>-5.305</ele>
  <time>2026-09-02T22:09:19Z</time>
  <course>157.22</course>
  <speed>0.03</speed>
  <fix>3d</fix>
</trkpt>
<trkpt lat="33.8106165" lon="-118.3935652">
  <ele>-5.214</ele>
  <time>2026-09-02T22:09:19Z</time>
  <course>157.21</course>
  <speed>0.03</speed>
  <fix>3d</fix>
</trkpt>
<trkpt lat="33.8106167" lon="-118.3935654">
  <ele>-5.09</ele>
  <time>2026-09-02T22:09:19Z</time>
  <course>72.91</course>
  <speed>0.01</speed>
  <fix>3d</fix>
</trkpt>
<trkpt lat="33.8106165" lon="-118.3935652">
  <ele>-5.182</ele>
  <time>2026-09-02T22:09:19Z</time>
  <course>157.21</course>
  <speed>0.03</speed>
  <fix>3d</fix>
</trkpt>
<trkpt lat="33.8106165" lon="-118.3935652">
  <ele>-5.085</ele>
  <time>2026-09-02T22:09:19Z</time>
  <course>157.2</course>
  <speed>0.03</speed>
  <fix>3d</fix>
</trkpt>
<trkpt lat="33.8106167" lon="-118.3935654">
  <ele>-4.84</ele>
  <time>2026-09-02T22:09:19Z</time>
  <course>72.93</course>
  <speed>0.01</speed>
  <fix>3d</fix>
</trkpt>
<trkpt lat="33.8106165" lon="-118.3935652">
  <ele>-5.044</ele>
  <time>2026-09-02T22:09:19Z</time>
  <course>157.2</course>
  <speed>0.03</speed>
  <fix>3d</fix>
</trkpt>
<trkpt lat="33.8106165" lon="-118.3935652">
  <ele>-4.956</ele>
  <time>2026-09-02T22:09:19Z</time>
  <course>157.19</course>
  <speed>0.03</speed>
  <fix>3d</fix>
</trkpt>
<trkpt lat="33.8106167" lon="-118.3935654">
  <ele>-4.84</ele>
  <time>2026-09-02T22:09:19Z</time>
  <course>72.93</course>
  <speed>0.01</speed>
  <fix>3d</fix>
</trkpt>
<trkpt lat="33.8106165" lon="-118.3935652">
  <ele>-4.917</ele>
  <time>2026-09-02T22:09:19Z</time>
  <course>157.19</course>
  <speed>0.03</speed>
  <fix>3d</fix>
</trkpt>
<trkpt lat="33.8106165" lon="-118.3935651">
  <ele>-4.826</ele>
  <time>2026-09-02T22:09:19Z</time>
  <course>157.18</course>
  <speed>0.03</speed>
  <fix>3d</fix>
</trkpt>
<trkpt lat="33.8106167" lon="-118.3935653">
  <ele>-4.59</ele>
  <time>2026-09-02T22:09:19Z</time>
  <course>72.9</course>
  <speed>0.01</speed>
  <fix>3d</fix>
</trkpt>
<trkpt lat="33.8106165" lon="-118.3935651">
  <ele>-4.695</ele>
  <time>2026-09-02T22:09:19Z</time>
  <course>157.17</course>
  <speed>0.03</speed>
  <fix>3d</fix>
</trkpt>
<trkpt lat="33.8106167" lon="-118.3935653">
  <ele>-4.59</ele>
  <time>2026-09-02T22:09:19Z</time>
  <course>72.9</course>
  <speed>0.01</speed>
  <fix>3d</fix>
</trkpt>
<trkpt lat="33.8106165" lon="-118.3935651">
  <ele>-4.564</ele>
  <time>2026-09-02T22:09:19Z</time>
  <course>157.16</course>
  <speed>0.03</speed>
  <fix>3d</fix>
</trkpt>
<trkpt lat="33.8106167" lon="-118.3935653">
  <ele>-4.34</ele>
  <time>2026-09-02T22:09:19Z</time>
  <course>72.84</course>
  <speed>0.01</speed>
  <fix>3d</fix>
</trkpt>
<trkpt lat="33.8106165" lon="-118.3935651">
  <ele>-4.435</ele>
  <time>2026-09-02T22:09:19Z</time>
  <course>157.15</course>
  <speed>0.03</speed>
  <fix>3d</fix>
</trkpt>
<trkpt lat="33.8106167" lon="-118.3935653">
  <ele>-4.34</ele>
  <time>2026-09-02T22:09:19Z</time>
  <course>72.84</course>
  <speed>0.01</speed>
  <fix>3d</fix>
</trkpt>
<trkpt lat="33.8106166" lon="-118.3935651">
  <ele>-4.311</ele>
  <time>2026-09-02T22:09:19Z</time>
  <course>157.14</course>
  <speed>0.03</speed>
  <fix>3d</fix>
</trkpt>
<trkpt lat="33.8106167" lon="-118.3935653">
  <ele>-4.09</ele>
  <time>2026-09-02T22:09:19Z</time>
  <course>72.76</course>
  <speed>0.01</speed>
  <fix>3d</fix>
</trkpt>
<trkpt lat="33.8106166" lon="-118.3935651">
  <ele>-4.198</ele>
  <time>2026-09-02T22:09:19Z</time>
  <course>157.13</course>
  <speed>0.03</speed>
  <fix>3d</fix>
</trkpt>
<trkpt lat="33.8106167" lon="-118.3935653">
  <ele>-4.09</ele>
  <time>2026-09-02T22:09:19Z</time>
  <course>72.76</course>
  <speed>0.01</speed>
  <fix>3d</fix>
</trkpt>
<trkpt lat="33.8106166" lon="-118.3935651">
  <ele>-4.101</ele>
  <time>2026-09-02T22:09:19Z</time>
  <course>157.13</course>
  <speed>0.03</speed>
  <fix>3d</fix>
</trkpt>
<trkpt lat="33.8106167" lon="-118.3935653">
  <ele>-3.86</ele>
  <time>2026-09-02T22:09:19Z</time>
  <course>72.55</course>
  <speed>0.01</speed>
  <fix>3d</fix>
</trkpt>
<trkpt lat="33.8106166" lon="-118.3935651">
  <ele>-4.018</ele>
  <time>2026-09-02T22:09:19Z</time>
  <course>157.12</course>
  <speed>0.03</speed>
  <fix>3d</fix>
</trkpt>
<trkpt lat="33.8106167" lon="-118.3935653">
  <ele>-3.86</ele>
  <time>2026-09-02T22:09:19Z</time>
  <course>72.55</course>
  <speed>0.01</speed>
  <fix>3d</fix>
</trkpt>
<trkpt lat="33.8106166" lon="-118.3935651">
  <ele>-3.952</ele>
  <time>2026-09-02T22:09:19Z</time>
  <course>157.11</course>
  <speed>0.03</speed>
  <fix>3d</fix>
</trkpt>
<trkpt lat="33.8106167" lon="-118.3935653">
  <ele>-3.66</ele>
  <time>2026-09-02T22:09:19Z</time>
  <course>72.28</course>
  <speed>0.01</speed>
  <fix>3d</fix>
</trkpt>
<trkpt lat="33.8106166" lon="-118.393565">
  <ele>-3.9</ele>
  <time>2026-09-02T22:09:19Z</time>
  <course>157.1</course>
  <speed>0.03</speed>
  <fix>3d</fix>
</trkpt>
<trkpt lat="33.8106167" lon="-118.3935653">
  <ele>-3.66</ele>
  <time>2026-09-02T22:09:19Z</time>
  <course>72.28</course>
  <speed>0.01</speed>
  <fix>3d</fix>
</trkpt>
<trkpt lat="33.8106166" lon="-118.393565">
  <ele>-3.862</ele>
  <time>2026-09-02T22:09:19Z</time>
  <course>157.09</course>
  <speed>0.03</speed>
  <fix>3d</fix>
</trkpt>
<trkpt lat="33.8106167" lon="-118.3935652">
  <ele>-3.52</ele>
  <time>2026-09-02T22:09:19Z</time>
  <course>72.07</course>
  <speed>0.01</speed>
  <fix>3d</fix>
</trkpt>
<trkpt lat="33.8106166" lon="-118.393565">
  <ele>-3.837</ele>
  <time>2026-09-02T22:09:19Z</time>
  <course>157.08</course>
  <speed>0.03</speed>
  <fix>3d</fix>
</trkpt>
<trkpt lat="33.8106167" lon="-118.3935652">
  <ele>-3.52</ele>
  <time>2026-09-02T22:09:19Z</time>
  <course>72.07</course>
  <speed>0.01</speed>
  <fix>3d</fix>
</trkpt>
<trkpt lat="33.8106166" lon="-118.393565">
  <ele>-3.822</ele>
  <time>2026-09-02T22:09:19Z</time>
  <course>157.07</course>
  <speed>0.03</speed>
  <fix>3d</fix>
</trkpt>
<trkpt lat="33.8106167" lon="-118.3935652">
  <ele>-3.44</ele>
  <time>2026-09-02T22:09:19Z</time>
  <course>71.89</course>
  <speed>0.01</speed>
  <fix>3d</fix>
</trkpt>
<trkpt lat="33.8106166" lon="-118.393565">
  <ele>-3.816</ele>
  <time>2026-09-02T22:09:19Z</time>
  <course>157.06</course>
  <speed>0.03</speed>
  <fix>3d</fix>
</trkpt>
<trkpt lat="33.8106167" lon="-118.3935652">
  <ele>-3.44</ele>
  <time>2026-09-02T22:09:19Z</time>
  <course>71.89</course>
  <speed>0.01</speed>
  <fix>3d</fix>
</trkpt>
<trkpt lat="33.8106166" lon="-118.393565">
  <ele>-3.815</ele>
  <time>2026-09-02T22:09:19Z</time>
  <course>157.05</course>
  <speed>0.03</speed>
  <fix>3d</fix>
</trkpt>
<trkpt lat="33.8106167" lon="-118.3935652">
  <ele>-3.4</ele>
  <time>2026-09-02T22:09:19Z</time>
  <course>71.72</course>
  <speed>0.01</speed>
  <fix>3d</fix>
</trkpt>
<trkpt lat="33.8106166" lon="-118.393565">
  <ele>-3.818</ele>
  <time>2026-09-02T22:09:19Z</time>
  <course>157.04</course>
  <speed>0.03</speed>
  <fix>3d</fix>
</trkpt>
<trkpt lat="33.8106167" lon="-118.3935652">
  <ele>-3.4</ele>
  <time>2026-09-02T22:09:19Z</time>
  <course>71.72</course>
  <speed>0.01</speed>
  <fix>3d</fix>
</trkpt>
<trkpt lat="33.8106166" lon="-118.3935649">
  <ele>-3.821</ele>
  <time>2026-09-02T22:09:19Z</time>
  <course>157.03</course>
  <speed>0.03</speed>
  <fix>3d</fix>
</trkpt>
<trkpt lat="33.8106167" lon="-118.3935651">
  <ele>-3.38</ele>
  <time>2026-09-02T22:09:19Z</time>
  <course>71.59</course>
  <speed>0.01</speed>
  <fix>3d</fix>
</trkpt>
<trkpt lat="33.8106166" lon="-118.3935649">
  <ele>-3.823</ele>
  <time>2026-09-02T22:09:19Z</time>
  <course>157.03</course>
  <speed>0.03</speed>
  <fix>3d</fix>
</trkpt>
<trkpt lat="33.8106167" lon="-118.3935651">
  <ele>-3.38</ele>
  <time>2026-09-02T22:09:19Z</time>
  <course>71.59</course>
  <speed>0.01</speed>
  <fix>3d</fix>
</trkpt>
<trkpt lat="33.8106166" lon="-118.3935649">
  <ele>-3.823</ele>
  <time>2026-09-02T22:09:19Z</time>
  <course>157.02</course>
  <speed>0.03</speed>
  <fix>3d</fix>
</trkpt>
<trkpt lat="33.8106167" lon="-118.3935651">
  <ele>-3.37</ele>
  <time>2026-09-02T22:09:19Z</time>
  <course>71.55</course>
  <speed>0.01</speed>
  <fix>3d</fix>
</trkpt>
<trkpt lat="33.8106166" lon="-118.3935649">
  <ele>-3.823</ele>
  <time>2026-09-02T22:09:19Z</time>
  <course>157.01</course>
  <speed>0.03</speed>
  <fix>3d</fix>
</trkpt>
<trkpt lat="33.8106167" lon="-118.3935651">
  <ele>-3.37</ele>
  <time>2026-09-02T22:09:19Z</time>
  <course>71.55</course>
  <speed>0.01</speed>
  <fix>3d</fix>
</trkpt>
<trkpt lat="33.8106166" lon="-118.3935649">
  <ele>-3.823</ele>
  <time>2026-09-02T22:09:19Z</time>
  <course>157.0</course>
  <speed>0.03</speed>
  <fix>3d</fix>
</trkpt>
<trkpt lat="33.8106168" lon="-118.3935651">
  <ele>-3.36</ele>
  <time>2026-09-02T22:09:19Z</time>
  <course>71.56</course>
  <speed>0.01</speed>
  <fix>3d</fix>
</trkpt>
<trkpt lat="33.8106166" lon="-118.3935649">
  <ele>-3.822</ele>
  <time>2026-09-02T22:09:19Z</time>
  <course>156.99</course>
  <speed>0.03</speed>
  <fix>3d</fix>
</trkpt>
<trkpt lat="33.8106168" lon="-118.3935651">
  <ele>-3.36</ele>
  <time>2026-09-02T22:09:19Z</time>
  <course>71.56</course>
  <speed>0.01</speed>
  <fix>3d</fix>
</trkpt>
<trkpt lat="33.8106166" lon="-118.3935649">
  <ele>-3.821</ele>
  <time>2026-09-02T22:09:19Z</time>
  <course>156.98</course>
  <speed>0.03</speed>
  <fix>3d</fix>
</trkpt>
<trkpt lat="33.8106168" lon="-118.3935651">
  <ele>-3.35</ele>
  <time>2026-09-02T22:09:19Z</time>
  <course>71.59</course>
  <speed>0.01</speed>
  <fix>3d</fix>
</trkpt>
<trkpt lat="33.8106166" lon="-118.3935648">
  <ele>-3.82</ele>
  <time>2026-09-02T22:09:19Z</time>
  <course>156.97</course>
  <speed>0.03</speed>
  <fix>3d</fix>
</trkpt>
<trkpt lat="33.8106168" lon="-118.3935651">
  <ele>-3.35</ele>
  <time>2026-09-02T22:09:19Z</time>
  <course>71.59</course>
  <speed>0.01</speed>
  <fix>3d</fix>
</trkpt>
<trkpt lat="33.8106167" lon="-118.3935648">
  <ele>-3.819</ele>
  <time>2026-09-02T22:09:19Z</time>
  <course>156.96</course>
  <speed>0.03</speed>
  <fix>3d</fix>
</trkpt>
<trkpt lat="33.8106168" lon="-118.393565">
  <ele>-3.34</ele>
  <time>2026-09-02T22:09:19Z</time>
  <course>71.61</course>
  <speed>0.01</speed>
  <fix>3d</fix>
</trkpt>
<trkpt lat="33.8106167" lon="-118.3935648">
  <ele>-3.82</ele>
  <time>2026-09-02T22:09:19Z</time>
  <course>156.95</course>
  <speed>0.03</speed>
  <fix>3d</fix>
</trkpt>
<trkpt lat="33.8106168" lon="-118.393565">
  <ele>-3.34</ele>
  <time>2026-09-02T22:09:19Z</time>
  <course>71.61</course>
  <speed>0.01</speed>
  <fix>3d</fix>
</trkpt>
<trkpt lat="33.8106167" lon="-118.3935648">
  <ele>-3.821</ele>
  <time>2026-09-02T22:09:19Z</time>
  <course>156.94</course>
  <speed>0.03</speed>
  <fix>3d</fix>
</trkpt>
<trkpt lat="33.8106168" lon="-118.393565">
  <ele>-3.33</ele>
  <time>2026-09-02T22:09:19Z</time>
  <course>71.6</course>
  <speed>0.01</speed>
  <fix>3d</fix>
</trkpt>
<trkpt lat="33.8106167" lon="-118.3935648">
  <ele>-3.821</ele>
  <time>2026-09-02T22:09:19Z</time>
  <course>156.93</course>
  <speed>0.03</speed>
  <fix>3d</fix>
</trkpt>
<trkpt lat="33.8106168" lon="-118.393565">
  <ele>-3.33</ele>
  <time>2026-09-02T22:09:19Z</time>
  <course>71.6</course>
  <speed>0.01</speed>
  <fix>3d</fix>
</trkpt>
<trkpt lat="33.8106167" lon="-118.3935648">
  <ele>-3.819</ele>
  <time>2026-09-02T22:09:19Z</time>
  <course>156.93</course>
  <speed>0.03</speed>
  <fix>3d</fix>
</trkpt>
<trkpt lat="33.8106168" lon="-118.393565">
  <ele>-3.32</ele>
  <time>2026-09-02T22:09:19Z</time>
  <course>71.57</course>
  <speed>0.01</speed>
  <fix>3d</fix>
</trkpt>
<trkpt lat="33.8106167" lon="-118.3935648">
  <ele>-3.817</ele>
  <time>2026-09-02T22:09:19Z</time>
  <course>156.92</course>
  <speed>0.03</speed>
  <fix>3d</fix>
</trkpt>
<trkpt lat="33.8106168" lon="-118.393565">
  <ele>-3.32</ele>
  <time>2026-09-02T22:09:19Z</time>
  <course>71.57</course>
  <speed>0.01</speed>
  <fix>3d</fix>
</trkpt>
<trkpt lat="33.8106167" lon="-118.3935647">
  <ele>-3.816</ele>
  <time>2026-09-02T22:09:19Z</time>
  <course>156.91</course>
  <speed>0.03</speed>
  <fix>3d</fix>
</trkpt>
<trkpt lat="33.8106168" lon="-118.3935649">
  <ele>-3.32</ele>
  <time>2026-09-02T22:09:19Z</time>
  <course>71.53</course>
  <speed>0.01</speed>
  <fix>3d</fix>
</trkpt>
<trkpt lat="33.8106167" lon="-118.3935647">
  <ele>-3.816</ele>
  <time>2026-09-02T22:09:19Z</time>
  <course>156.9</course>
  <speed>0.03</speed>
  <fix>3d</fix>
</trkpt>
<trkpt lat="33.8106168" lon="-118.3935649">
  <ele>-3.32</ele>
  <time>2026-09-02T22:09:19Z</time>
  <course>71.53</course>
  <speed>0.01</speed>
  <fix>3d</fix>
</trkpt>
<trkpt lat="33.8106167" lon="-118.3935647">
  <ele>-3.816</ele>
  <time>2026-09-02T22:09:19Z</time>
  <course>156.89</course>
  <speed>0.03</speed>
  <fix>3d</fix>
</trkpt>
<trkpt lat="33.8106168" lon="-118.3935649">
  <ele>-3.31</ele>
  <time>2026-09-02T22:09:19Z</time>
  <course>71.52</course>
  <speed>0.01</speed>
  <fix>3d</fix>
</trkpt>
<trkpt lat="33.8106167" lon="-118.3935647">
  <ele>-3.815</ele>
  <time>2026-09-02T22:09:19Z</time>
  <course>156.88</course>
  <speed>0.03</speed>
  <fix>3d</fix>
</trkpt>
<trkpt lat="33.8106168" lon="-118.3935649">
  <ele>-3.31</ele>
  <time>2026-09-02T22:09:19Z</time>
  <course>71.52</course>
  <speed>0.01</speed>
  <fix>3d</fix>
</trkpt>
<trkpt lat="33.8106167" lon="-118.3935647">
  <ele>-3.814</ele>
  <time>2026-09-02T22:09:19Z</time>
  <course>156.87</course>
  <speed>0.03</speed>
  <fix>3d</fix>
</trkpt>
<trkpt lat="33.8106168" lon="-118.3935649">
  <ele>-3.31</ele>
  <time>2026-09-02T22:09:19Z</time>
  <course>71.54</course>
  <speed>0.01</speed>
  <fix>3d</fix>
</trkpt>
<trkpt lat="33.8106167" lon="-118.3935647">
  <ele>-3.814</ele>
  <time>2026-09-02T22:09:19Z</time>
  <course>156.86</course>
  <speed>0.03</speed>
  <fix>3d</fix>
</trkpt>
<trkpt lat="33.8106168" lon="-118.3935649">
  <ele>-3.31</ele>
  <time>2026-09-02T22:09:19Z</time>
  <course>71.54</course>
  <speed>0.01</speed>
  <fix>3d</fix>
</trkpt>
<trkpt lat="33.8106167" lon="-118.3935646">
  <ele>-3.814</ele>
  <time>2026-09-02T22:09:19Z</time>
  <course>156.86</course>
  <speed>0.03</speed>
  <fix>3d</fix>
</trkpt>
<trkpt lat="33.8106168" lon="-118.3935648">
  <ele>-3.31</ele>
  <time>2026-09-02T22:09:19Z</time>
  <course>71.58</course>
  <speed>0.01</speed>
  <fix>3d</fix>
</trkpt>
<trkpt lat="33.8106167" lon="-118.3935646">
  <ele>-3.814</ele>
  <time>2026-09-02T22:09:19Z</time>
  <course>156.85</course>
  <speed>0.03</speed>
  <fix>3d</fix>
</trkpt>
<trkpt lat="33.8106168" lon="-118.3935648">
  <ele>-3.31</ele>
  <time>2026-09-02T22:09:19Z</time>
  <course>71.58</course>
  <speed>0.01</speed>
  <fix>3d</fix>
</trkpt>
<trkpt lat="33.8106167" lon="-118.3935646">
  <ele>-3.813</ele>
  <time>2026-09-02T22:09:19Z</time>
  <course>156.84</course>
  <speed>0.03</speed>
  <fix>3d</fix>
</trkpt>
<trkpt lat="33.8106168" lon="-118.3935648">
  <ele>-3.31</ele>
  <time>2026-09-02T22:09:19Z</time>
  <course>71.59</course>
  <speed>0.01</speed>
  <fix>3d</fix>
</trkpt>
<trkpt lat="33.8106167" lon="-118.3935646">
  <ele>-3.812</ele>
  <time>2026-09-02T22:09:19Z</time>
  <course>156.83</course>
  <speed>0.03</speed>
  <fix>3d</fix>
</trkpt>
<trkpt lat="33.8106168" lon="-118.3935648">
  <ele>-3.31</ele>
  <time>2026-09-02T22:09:19Z</time>
  <course>71.59</course>
  <speed>0.01</speed>
  <fix>3d</fix>
</trkpt>
<trkpt lat="33.8106167" lon="-118.3935646">
  <ele>-3.811</ele>
  <time>2026-09-02T22:09:19Z</time>
  <course>156.82</course>
  <speed>0.03</speed>
  <fix>3d</fix>
</trkpt>
<trkpt lat="33.8106168" lon="-118.3935648">
  <ele>-3.31</ele>
  <time>2026-09-02T22:09:19Z</time>
  <course>71.58</course>
  <speed>0.01</speed>
  <fix>3d</fix>
</trkpt>
<trkpt lat="33.8106167" lon="-118.3935646">
  <ele>-3.81</ele>
  <time>2026-09-02T22:09:19Z</time>
  <course>156.81</course>
  <speed>0.03</speed>
  <fix>3d</fix>
</trkpt>
<trkpt lat="33.8106168" lon="-118.3935648">
  <ele>-3.31</ele>
  <time>2026-09-02T22:09:19Z</time>
  <course>71.58</course>
  <speed>0.01</speed>
  <fix>3d</fix>
</trkpt>
<trkpt lat="33.8106167" lon="-118.3935645">
  <ele>-3.81</ele>
  <time>2026-09-02T22:09:19Z</time>
  <course>156.8</course>
  <speed>0.03</speed>
  <fix>3d</fix>
</trkpt>
<trkpt lat="33.8106168" lon="-118.3935648">
  <ele>-3.31</ele>
  <time>2026-09-02T22:09:19Z</time>
  <course>71.54</course>
  <speed>0.01</speed>
  <fix>3d</fix>
</trkpt>
<trkpt lat="33.8106167" lon="-118.3935645">
  <ele>-3.81</ele>
  <time>2026-09-02T22:09:19Z</time>
  <course>156.8</course>
  <speed>0.03</speed>
  <fix>3d</fix>
</trkpt>
<trkpt lat="33.8106168" lon="-118.3935648">
  <ele>-3.31</ele>
  <time>2026-09-02T22:09:19Z</time>
  <course>71.54</course>
  <speed>0.01</speed>
  <fix>3d</fix>
</trkpt>
<trkpt lat="33.8106167" lon="-118.3935645">
  <ele>-3.811</ele>
  <time>2026-09-02T22:09:19Z</time>
  <course>156.79</course>
  <speed>0.03</speed>
  <fix>3d</fix>
</trkpt>
<trkpt lat="33.8106169" lon="-118.3935647">
  <ele>-3.31</ele>
  <time>2026-09-02T22:09:19Z</time>
  <course>71.51</course>
  <speed>0.01</speed>
  <fix>3d</fix>
</trkpt>
<trkpt lat="33.8106167" lon="-118.3935645">
  <ele>-3.812</ele>
  <time>2026-09-02T22:09:19Z</time>
  <course>156.78</course>
  <speed>0.03</speed>
  <fix>3d</fix>
</trkpt>
<trkpt lat="33.8106169" lon="-118.3935647">
  <ele>-3.31</ele>
  <time>2026-09-02T22:09:19Z</time>
  <course>71.51</course>
  <speed>0.01</speed>
  <fix>3d</fix>
</trkpt>
<trkpt lat="33.8106167" lon="-118.3935645">
  <ele>-3.815</ele>
  <time>2026-09-02T22:09:19Z</time>
  <course>156.77</course>
  <speed>0.03</speed>
  <fix>3d</fix>
</trkpt>
<trkpt lat="33.8106169" lon="-118.3935647">
  <ele>-3.31</ele>
  <time>2026-09-02T22:09:19Z</time>
  <course>71.52</course>
  <speed>0.01</speed>
  <fix>3d</fix>
</trkpt>
<trkpt lat="33.8106167" lon="-118.3935645">
  <ele>-3.818</ele>
  <time>2026-09-02T22:09:19Z</time>
  <course>156.76</course>
  <speed>0.03</speed>
  <fix>3d</fix>
</trkpt>
<trkpt lat="33.8106169" lon="-118.3935647">
  <ele>-3.31</ele>
  <time>2026-09-02T22:09:19Z</time>
  <course>71.52</course>
  <speed>0.01</speed>
  <fix>3d</fix>
</trkpt>
<trkpt lat="33.8106167" lon="-118.3935645">
  <ele>-3.821</ele>
  <time>2026-09-02T22:09:19Z</time>
  <course>156.75</course>
  <speed>0.03</speed>
  <fix>3d</fix>
</trkpt>
<trkpt lat="33.8106169" lon="-118.3935647">
  <ele>-3.32</ele>
  <time>2026-09-02T22:09:19Z</time>
  <course>71.56</course>
  <speed>0.01</speed>
  <fix>3d</fix>
</trkpt>
<trkpt lat="33.8106167" lon="-118.3935644">
  <ele>-3.822</ele>
  <time>2026-09-02T22:09:19Z</time>
  <course>156.74</course>
  <speed>0.03</speed>
  <fix>3d</fix>
</trkpt>
<trkpt lat="33.8106169" lon="-118.3935647">
  <ele>-3.32</ele>
  <time>2026-09-02T22:09:19Z</time>
  <course>71.56</course>
  <speed>0.01</speed>
  <fix>3d</fix>
</trkpt>
<trkpt lat="33.8106168" lon="-118.3935644">
  <ele>-3.822</ele>
  <time>2026-09-02T22:09:19Z</time>
  <course>156.74</course>
  <speed>0.03</speed>
  <fix>3d</fix>
</trkpt>
<trkpt lat="33.8106169" lon="-118.3935646">
  <ele>-3.32</ele>
  <time>2026-09-02T22:09:19Z</time>
  <course>71.61</course>
  <speed>0.01</speed>
  <fix>3d</fix>
</trkpt>
<trkpt lat="33.8106168" lon="-118.3935644">
  <ele>-3.821</ele>
  <time>2026-09-02T22:09:19Z</time>
  <course>156.73</course>
  <speed>0.03</speed>
  <fix>3d</fix>
</trkpt>
<trkpt lat="33.8106169" lon="-118.3935646">
  <ele>-3.32</ele>
  <time>2026-09-02T22:09:19Z</time>
  <course>71.61</course>
  <speed>0.01</speed>
  <fix>3d</fix>
</trkpt>
<trkpt lat="33.8106168" lon="-118.3935644">
  <ele>-3.818</ele>
  <time>2026-09-02T22:09:19Z</time>
  <course>156.72</course>
  <speed>0.03</speed>
  <fix>3d</fix>
</trkpt>
<trkpt lat="33.8106169" lon="-118.3935646">
  <ele>-3.32</ele>
  <time>2026-09-02T22:09:19Z</time>
  <course>71.62</course>
  <speed>0.01</speed>
  <fix>3d</fix>
</trkpt>
<trkpt lat="33.8106168" lon="-118.3935644">
  <ele>-3.817</ele>
  <time>2026-09-02T22:09:19Z</time>
  <course>156.71</course>
  <speed>0.03</speed>
  <fix>3d</fix>
</trkpt>
<trkpt lat="33.8106169" lon="-118.3935646">
  <ele>-3.32</ele>
  <time>2026-09-02T22:09:19Z</time>
  <course>71.62</course>
  <speed>0.01</speed>
  <fix>3d</fix>
</trkpt>
<trkpt lat="33.8106168" lon="-118.3935644">
  <ele>-3.816</ele>
  <time>2026-09-02T22:09:19Z</time>
  <course>156.7</course>
  <speed>0.03</speed>
  <fix>3d</fix>
</trkpt>
<trkpt lat="33.8106169" lon="-118.3935646">
  <ele>-3.32</ele>
  <time>2026-09-02T22:09:19Z</time>
  <course>71.59</course>
  <speed>0.01</speed>
  <fix>3d</fix>
</trkpt>
<trkpt lat="33.8106168" lon="-118.3935644">
  <ele>-3.814</ele>
  <time>2026-09-02T22:09:19Z</time>
  <course>156.69</course>
  <speed>0.03</speed>
  <fix>3d</fix>
</trkpt>
<trkpt lat="33.8106169" lon="-118.3935646">
  <ele>-3.32</ele>
  <time>2026-09-02T22:09:19Z</time>
  <course>71.59</course>
  <speed>0.01</speed>
  <fix>3d</fix>
</trkpt>
<trkpt lat="33.8106168" lon="-118.3935643">
  <ele>-3.813</ele>
  <time>2026-09-02T22:09:19Z</time>
  <course>156.69</course>
  <speed>0.03</speed>
  <fix>3d</fix>
</trkpt>
<trkpt lat="33.8106169" lon="-118.3935646">
  <ele>-3.32</ele>
  <time>2026-09-02T22:09:19Z</time>
  <course>71.55</course>
  <speed>0.01</speed>
  <fix>3d</fix>
</trkpt>
<trkpt lat="33.8106168" lon="-118.3935643">
  <ele>-3.813</ele>
  <time>2026-09-02T22:09:19Z</time>
  <course>156.68</course>
  <speed>0.03</speed>
  <fix>3d</fix>
</trkpt>
<trkpt lat="33.8106169" lon="-118.3935646">
  <ele>-3.32</ele>
  <time>2026-09-02T22:09:19Z</time>
  <course>71.55</course>
  <speed>0.01</speed>
  <fix>3d</fix>
</trkpt>
<trkpt lat="33.8106168" lon="-118.3935643">
  <ele>-3.813</ele>
  <time>2026-09-02T22:09:19Z</time>
  <course>156.67</course>
  <speed>0.03</speed>
  <fix>3d</fix>
</trkpt>
<trkpt lat="33.8106169" lon="-118.3935645">
  <ele>-3.32</ele>
  <time>2026-09-02T22:09:19Z</time>
  <course>71.53</course>
  <speed>0.01</speed>
  <fix>3d</fix>
</trkpt>
<trkpt lat="33.8106168" lon="-118.3935643">
  <ele>-3.814</ele>
  <time>2026-09-02T22:09:19Z</time>
  <course>156.66</course>
  <speed>0.03</speed>
  <fix>3d</fix>
</trkpt>
<trkpt lat="33.8106169" lon="-118.3935645">
  <ele>-3.32</ele>
  <time>2026-09-02T22:09:19Z</time>
  <course>71.53</course>
  <speed>0.01</speed>
  <fix>3d</fix>
</trkpt>
<trkpt lat="33.8106168" lon="-118.3935643">
  <ele>-3.815</ele>
  <time>2026-09-02T22:09:19Z</time>
  <course>156.65</course>
  <speed>0.03</speed>
  <fix>3d</fix>
</trkpt>
<trkpt lat="33.8106169" lon="-118.3935645">
  <ele>-3.32</ele>
  <time>2026-09-02T22:09:19Z</time>
  <course>71.55</course>
  <speed>0.01</speed>
  <fix>3d</fix>
</trkpt>
<trkpt lat="33.8106168" lon="-118.3935643">
  <ele>-3.815</ele>
  <time>2026-09-02T22:09:19Z</time>
  <course>156.65</course>
  <speed>0.03</speed>
  <fix>3d</fix>
</trkpt>
<trkpt lat="33.8106169" lon="-118.3935645">
  <ele>-3.32</ele>
  <time>2026-09-02T22:09:19Z</time>
  <course>71.55</course>
  <speed>0.01</speed>
  <fix>3d</fix>
</trkpt>
<trkpt lat="33.8106168" lon="-118.3935643">
  <ele>-3.816</ele>
  <time>2026-09-02T22:09:19Z</time>
  <course>156.64</course>
  <speed>0.03</speed>
  <fix>3d</fix>
</trkpt>
<trkpt lat="33.8106169" lon="-118.3935645">
  <ele>-3.33</ele>
  <time>2026-09-02T22:09:19Z</time>
  <course>71.59</course>
  <speed>0.01</speed>
  <fix>3d</fix>
</trkpt>
<trkpt lat="33.8106168" lon="-118.3935642">
  <ele>-3.816</ele>
  <time>2026-09-02T22:09:19Z</time>
  <course>156.63</course>
  <speed>0.03</speed>
  <fix>3d</fix>
</trkpt>
<trkpt lat="33.8106169" lon="-118.3935645">
  <ele>-3.33</ele>
  <time>2026-09-02T22:09:19Z</time>
  <course>71.59</course>
  <speed>0.01</speed>
  <fix>3d</fix>
</trkpt>
<trkpt lat="33.8106168" lon="-118.3935642">
  <ele>-3.817</ele>
  <time>2026-09-02T22:09:19Z</time>
  <course>156.62</course>
  <speed>0.03</speed>
  <fix>3d</fix>
</trkpt>
<trkpt lat="33.8106169" lon="-118.3935644">
  <ele>-3.33</ele>
  <time>2026-09-02T22:09:19Z</time>
  <course>71.61</course>
  <speed>0.01</speed>
  <fix>3d</fix>
</trkpt>
<trkpt lat="33.8106168" lon="-118.3935642">
  <ele>-3.819</ele>
  <time>2026-09-02T22:09:19Z</time>
  <course>156.61</course>
  <speed>0.03</speed>
  <fix>3d</fix>
</trkpt>
<trkpt lat="33.8106169" lon="-118.3935644">
  <ele>-3.33</ele>
  <time>2026-09-02T22:09:19Z</time>
  <course>71.61</course>
  <speed>0.01</speed>
  <fix>3d</fix>
</trkpt>
<trkpt lat="33.8106168" lon="-118.3935642">
  <ele>-3.821</ele>
  <time>2026-09-02T22:09:19Z</time>
  <course>156.61</course>
  <speed>0.03</speed>
  <fix>3d</fix>
</trkpt>
<trkpt lat="33.8106169" lon="-118.3935644">
  <ele>-3.33</ele>
  <time>2026-09-02T22:09:19Z</time>
  <course>71.61</course>
  <speed>0.01</speed>
  <fix>3d</fix>
</trkpt>
<trkpt lat="33.8106168" lon="-118.3935642">
  <ele>-3.824</ele>
  <time>2026-09-02T22:09:19Z</time>
  <course>156.6</course>
  <speed>0.03</speed>
  <fix>3d</fix>
</trkpt>
<trkpt lat="33.8106169" lon="-118.3935644">
  <ele>-3.33</ele>
  <time>2026-09-02T22:09:19Z</time>
  <course>71.61</course>
  <speed>0.01</speed>
  <fix>3d</fix>
</trkpt>
<trkpt lat="33.8106168" lon="-118.3935642">
  <ele>-3.826</ele>
  <time>2026-09-02T22:09:19Z</time>
  <course>156.59</course>
  <speed>0.03</speed>
  <fix>3d</fix>
</trkpt>
<trkpt lat="33.810617" lon="-118.3935644">
  <ele>-3.34</ele>
  <time>2026-09-02T22:09:19Z</time>
  <course>71.59</course>
  <speed>0.01</speed>
  <fix>3d</fix>
</trkpt>
<trkpt lat="33.8106168" lon="-118.3935642">
  <ele>-3.827</ele>
  <time>2026-09-02T22:09:19Z</time>
  <course>156.58</course>
  <speed>0.03</speed>
  <fix>3d</fix>
</trkpt>
<trkpt lat="33.810617" lon="-118.3935644">
  <ele>-3.34</ele>
  <time>2026-09-02T22:09:19Z</time>
  <course>71.59</course>
  <speed>0.01</speed>
  <fix>3d</fix>
</trkpt>
<trkpt lat="33.8106168" lon="-118.3935641">
  <ele>-3.826</ele>
  <time>2026-09-02T22:09:19Z</time>
  <course>156.57</course>
  <speed>0.03</speed>
  <fix>3d</fix>
</trkpt>
<trkpt lat="33.810617" lon="-118.3935643">
  <ele>-3.34</ele>
  <time>2026-09-02T22:09:19Z</time>
  <course>71.58</course>
  <speed>0.01</speed>
  <fix>3d</fix>
</trkpt>
<trkpt lat="33.8106168" lon="-118.3935641">
  <ele>-3.825</ele>
  <time>2026-09-02T22:09:19Z</time>
  <course>156.57</course>
  <speed>0.03</speed>
  <fix>3d</fix>
</trkpt>
<trkpt lat="33.810617" lon="-118.3935643">
  <ele>-3.34</ele>
  <time>2026-09-02T22:09:19Z</time>
  <course>71.58</course>
  <speed>0.01</speed>
  <fix>3d</fix>
</trkpt>
<trkpt lat="33.8106168" lon="-118.3935641">
  <ele>-3.822</ele>
  <time>2026-09-02T22:09:19Z</time>
  <course>156.56</course>
  <speed>0.03</speed>
  <fix>3d</fix>
</trkpt>
<trkpt lat="33.810617" lon="-118.3935643">
  <ele>-3.33</ele>
  <time>2026-09-02T22:09:19Z</time>
  <course>71.59</course>
  <speed>0.01</speed>
  <fix>3d</fix>
</trkpt>
<trkpt lat="33.8106168" lon="-118.3935641">
  <ele>-3.82</ele>
  <time>2026-09-02T22:09:19Z</time>
  <course>156.55</course>
  <speed>0.03</speed>
  <fix>3d</fix>
</trkpt>
<trkpt lat="33.810617" lon="-118.3935643">
  <ele>-3.33</ele>
  <time>2026-09-02T22:09:19Z</time>
  <course>71.59</course>
  <speed>0.01</speed>
  <fix>3d</fix>
</trkpt>
<trkpt lat="33.8106168" lon="-118.3935641">
  <ele>-3.819</ele>
  <time>2026-09-02T22:09:19Z</time>
  <course>156.54</course>
  <speed>0.03</speed>
  <fix>3d</fix>
</trkpt>
<trkpt lat="33.810617" lon="-118.3935643">
  <ele>-3.33</ele>
  <time>2026-09-02T22:09:19Z</time>
  <course>71.62</course>
  <speed>0.01</speed>
  <fix>3d</fix>
</trkpt>
<trkpt lat="33.8106168" lon="-118.3935641">
  <ele>-3.818</ele>
  <time>2026-09-02T22:09:19Z</time>
  <course>156.53</course>
  <speed>0.03</speed>
  <fix>3d</fix>
</trkpt>
<trkpt lat="33.810617" lon="-118.3935643">
  <ele>-3.33</ele>
  <time>2026-09-02T22:09:19Z</time>
  <course>71.62</course>
  <speed>0.01</speed>
  <fix>3d</fix>
</trkpt>
<trkpt lat="33.8106169" lon="-118.393564">
  <ele>-3.819</ele>
  <time>2026-09-02T22:09:19Z</time>
  <course>156.53</course>
  <speed>0.03</speed>
  <fix>3d</fix>
</trkpt>
<trkpt lat="33.810617" lon="-118.3935643">
  <ele>-3.33</ele>
  <time>2026-09-02T22:09:19Z</time>
  <course>71.66</course>
  <speed>0.01</speed>
  <fix>3d</fix>
</trkpt>
<trkpt lat="33.8106169" lon="-118.393564">
  <ele>-3.819</ele>
  <time>2026-09-02T22:09:19Z</time>
  <course>156.52</course>
  <speed>0.03</speed>
  <fix>3d</fix>
</trkpt>
<trkpt lat="33.810617" lon="-118.3935643">
  <ele>-3.33</ele>
  <time>2026-09-02T22:09:19Z</time>
  <course>71.66</course>
  <speed>0.01</speed>
  <fix>3d</fix>
</trkpt>
<trkpt lat="33.8106169" lon="-118.393564">
  <ele>-3.818</ele>
  <time>2026-09-02T22:09:19Z</time>
  <course>156.51</course>
  <speed>0.03</speed>
  <fix>3d</fix>
</trkpt>
<trkpt lat="33.810617" lon="-118.3935642">
  <ele>-3.33</ele>
  <time>2026-09-02T22:09:19Z</time>
  <course>71.67</course>
  <speed>0.01</speed>
  <fix>3d</fix>
</trkpt>
<trkpt lat="33.8106169" lon="-118.393564">
  <ele>-3.818</ele>
  <time>2026-09-02T22:09:19Z</time>
  <course>156.5</course>
  <speed>0.03</speed>
  <fix>3d</fix>
</trkpt>
<trkpt lat="33.810617" lon="-118.3935642">
  <ele>-3.33</ele>
  <time>2026-09-02T22:09:19Z</time>
  <course>71.67</course>
  <speed>0.01</speed>
  <fix>3d</fix>
</trkpt>
<trkpt lat="33.8106169" lon="-118.393564">
  <ele>-3.819</ele>
  <time>2026-09-02T22:09:19Z</time>
  <course>156.5</course>
  <speed>0.03</speed>
  <fix>3d</fix>
</trkpt>
<trkpt lat="33.810617" lon="-118.3935642">
  <ele>-3.33</ele>
  <time>2026-09-02T22:09:19Z</time>
  <course>71.65</course>
  <speed>0.01</speed>
  <fix>3d</fix>
</trkpt>
<trkpt lat="33.8106169" lon="-118.393564">
  <ele>-3.821</ele>
  <time>2026-09-02T22:09:19Z</time>
  <course>156.49</course>
  <speed>0.03</speed>
  <fix>3d</fix>
</trkpt>
<trkpt lat="33.810617" lon="-118.3935642">
  <ele>-3.33</ele>
  <time>2026-09-02T22:09:19Z</time>
  <course>71.65</course>
  <speed>0.01</speed>
  <fix>3d</fix>
</trkpt>
<trkpt lat="33.8106169" lon="-118.393564">
  <ele>-3.822</ele>
  <time>2026-09-02T22:09:19Z</time>
  <course>156.48</course>
  <speed>0.03</speed>
  <fix>3d</fix>
</trkpt>
<trkpt lat="33.810617" lon="-118.3935642">
  <ele>-3.33</ele>
  <time>2026-09-02T22:09:19Z</time>
  <course>71.61</course>
  <speed>0.01</speed>
  <fix>3d</fix>
</trkpt>
<trkpt lat="33.8106169" lon="-118.3935639">
  <ele>-3.822</ele>
  <time>2026-09-02T22:09:19Z</time>
  <course>156.47</course>
  <speed>0.03</speed>
  <fix>3d</fix>
</trkpt>
<trkpt lat="33.810617" lon="-118.3935642">
  <ele>-3.33</ele>
  <time>2026-09-02T22:09:19Z</time>
  <course>71.61</course>
  <speed>0.01</speed>
  <fix>3d</fix>
</trkpt>
<trkpt lat="33.8106169" lon="-118.3935639">
  <ele>-3.822</ele>
  <time>2026-09-02T22:09:19Z</time>
  <course>156.47</course>
  <speed>0.03</speed>
  <fix>3d</fix>
</trkpt>
<trkpt lat="33.810617" lon="-118.3935642">
  <ele>-3.33</ele>
  <time>2026-09-02T22:09:19Z</time>
  <course>71.6</course>
  <speed>0.01</speed>
  <fix>3d</fix>
</trkpt>
<trkpt lat="33.8106169" lon="-118.3935639">
  <ele>-3.822</ele>
  <time>2026-09-02T22:09:19Z</time>
  <course>156.46</course>
  <speed>0.03</speed>
  <fix>3d</fix>
</trkpt>
<trkpt lat="33.810617" lon="-118.3935642">
  <ele>-3.33</ele>
  <time>2026-09-02T22:09:19Z</time>
  <course>71.6</course>
  <speed>0.01</speed>
  <fix>3d</fix>
</trkpt>
<trkpt lat="33.8106169" lon="-118.3935639">
  <ele>-3.822</ele>
  <time>2026-09-02T22:09:19Z</time>
  <course>156.45</course>
  <speed>0.03</speed>
  <fix>3d</fix>
</trkpt>
<trkpt lat="33.810617" lon="-118.3935641">
  <ele>-3.33</ele>
  <time>2026-09-02T22:09:19Z</time>
  <course>71.62</course>
  <speed>0.01</speed>
  <fix>3d</fix>
</trkpt>
<trkpt lat="33.8106169" lon="-118.3935639">
  <ele>-3.822</ele>
  <time>2026-09-02T22:09:19Z</time>
  <course>156.44</course>
  <speed>0.03</speed>
  <fix>3d</fix>
</trkpt>
<trkpt lat="33.810617" lon="-118.3935641">
  <ele>-3.33</ele>
  <time>2026-09-02T22:09:19Z</time>
  <course>71.62</course>
  <speed>0.01</speed>
  <fix>3d</fix>
</trkpt>
<trkpt lat="33.8106169" lon="-118.3935639">
  <ele>-3.822</ele>
  <time>2026-09-02T22:09:19Z</time>
  <course>156.44</course>
  <speed>0.03</speed>
  <fix>3d</fix>
</trkpt>
<trkpt lat="33.810617" lon="-118.3935641">
  <ele>-3.33</ele>
  <time>2026-09-02T22:09:19Z</time>
  <course>71.66</course>
  <speed>0.01</speed>
  <fix>3d</fix>
</trkpt>
<trkpt lat="33.8106169" lon="-118.3935639">
  <ele>-3.822</ele>
  <time>2026-09-02T22:09:19Z</time>
  <course>156.43</course>
  <speed>0.03</speed>
  <fix>3d</fix>
</trkpt>
<trkpt lat="33.810617" lon="-118.3935641">
  <ele>-3.33</ele>
  <time>2026-09-02T22:09:19Z</time>
  <course>71.66</course>
  <speed>0.01</speed>
  <fix>3d</fix>
</trkpt>
<trkpt lat="33.8106169" lon="-118.3935639">
  <ele>-3.822</ele>
  <time>2026-09-02T22:09:19Z</time>
  <course>156.42</course>
  <speed>0.03</speed>
  <fix>3d</fix>
</trkpt>
<trkpt lat="33.810617" lon="-118.3935641">
  <ele>-3.33</ele>
  <time>2026-09-02T22:09:19Z</time>
  <course>71.71</course>
  <speed>0.01</speed>
  <fix>3d</fix>
</trkpt>
<trkpt lat="33.8106169" lon="-118.3935638">
  <ele>-3.822</ele>
  <time>2026-09-02T22:09:19Z</time>
  <course>156.41</course>
  <speed>0.03</speed>
  <fix>3d</fix>
</trkpt>
<trkpt lat="33.810617" lon="-118.3935641">
  <ele>-3.33</ele>
  <time>2026-09-02T22:09:19Z</time>
  <course>71.71</course>
  <speed>0.01</speed>
  <fix>3d</fix>
</trkpt>
<trkpt lat="33.8106169" lon="-118.3935638">
  <ele>-3.822</ele>
  <time>2026-09-02T22:09:19Z</time>
  <course>156.41</course>
  <speed>0.03</speed>
  <fix>3d</fix>
</trkpt>
<trkpt lat="33.810617" lon="-118.393564">
  <ele>-3.33</ele>
  <time>2026-09-02T22:09:19Z</time>
  <course>71.72</course>
  <speed>0.01</speed>
  <fix>3d</fix>
</trkpt>
<trkpt lat="33.8106169" lon="-118.3935638">
  <ele>-3.821</ele>
  <time>2026-09-02T22:09:19Z</time>
  <course>156.4</course>
  <speed>0.03</speed>
  <fix>3d</fix>
</trkpt>
<trkpt lat="33.810617" lon="-118.393564">
  <ele>-3.33</ele>
  <time>2026-09-02T22:09:19Z</time>
  <course>71.72</course>
  <speed>0.01</speed>
  <fix>3d</fix>
</trkpt>
<trkpt lat="33.8106169" lon="-118.3935638">
  <ele>-3.822</ele>
  <time>2026-09-02T22:09:19Z</time>
  <course>156.39</course>
  <speed>0.03</speed>
  <fix>3d</fix>
</trkpt>
<trkpt lat="33.8106171" lon="-118.393564">
  <ele>-3.33</ele>
  <time>2026-09-02T22:09:19Z</time>
  <course>71.7</course>
  <speed>0.01</speed>
  <fix>3d</fix>
</trkpt>
<trkpt lat="33.8106169" lon="-118.3935638">
  <ele>-3.822</ele>
  <time>2026-09-02T22:09:19Z</time>
  <course>156.38</course>
  <speed>0.03</speed>
  <fix>3d</fix>
</trkpt>
<trkpt lat="33.8106171" lon="-118.393564">
  <ele>-3.33</ele>
  <time>2026-09-02T22:09:19Z</time>
  <course>71.7</course>
  <speed>0.01</speed>
  <fix>3d</fix>
</trkpt>
<trkpt lat="33.8106169" lon="-118.3935638">
  <ele>-3.821</ele>
  <time>2026-09-02T22:09:19Z</time>
  <course>156.38</course>
  <speed>0.03</speed>
  <fix>3d</fix>
</trkpt>
<trkpt lat="33.8106171" lon="-118.393564">
  <ele>-3.33</ele>
  <time>2026-09-02T22:09:19Z</time>
  <course>71.67</course>
  <speed>0.01</speed>
  <fix>3d</fix>
</trkpt>
<trkpt lat="33.8106169" lon="-118.3935638">
  <ele>-3.82</ele>
  <time>2026-09-02T22:09:19Z</time>
  <course>156.37</course>
  <speed>0.03</speed>
  <fix>3d</fix>
</trkpt>
<trkpt lat="33.8106171" lon="-118.393564">
  <ele>-3.33</ele>
  <time>2026-09-02T22:09:19Z</time>
  <course>71.67</course>
  <speed>0.01</speed>
  <fix>3d</fix>
</trkpt>
<trkpt lat="33.8106169" lon="-118.3935637">
  <ele>-3.819</ele>
  <time>2026-09-02T22:09:19Z</time>
  <course>156.36</course>
  <speed>0.03</speed>
  <fix>3d</fix>
</trkpt>
<trkpt lat="33.8106171" lon="-118.393564">
  <ele>-3.32</ele>
  <time>2026-09-02T22:09:19Z</time>
  <course>71.66</course>
  <speed>0.01</speed>
  <fix>3d</fix>
</trkpt>
<trkpt lat="33.8106169" lon="-118.3935637">
  <ele>-3.818</ele>
  <time>2026-09-02T22:09:19Z</time>
  <course>156.35</course>
  <speed>0.03</speed>
  <fix>3d</fix>
</trkpt>
<trkpt lat="33.8106171" lon="-118.393564">
  <ele>-3.32</ele>
  <time>2026-09-02T22:09:19Z</time>
  <course>71.66</course>
  <speed>0.01</speed>
  <fix>3d</fix>
</trkpt>
<trkpt lat="33.8106169" lon="-118.3935637">
  <ele>-3.817</ele>
  <time>2026-09-02T22:09:19Z</time>
  <course>156.35</course>
  <speed>0.03</speed>
  <fix>3d</fix>
</trkpt>
<trkpt lat="33.8106171" lon="-118.3935639">
  <ele>-3.32</ele>
  <time>2026-09-02T22:09:19Z</time>
  <course>71.68</course>
  <speed>0.01</speed>
  <fix>3d</fix>
</trkpt>
<trkpt lat="33.8106169" lon="-118.3935637">
  <ele>-3.817</ele>
  <time>2026-09-02T22:09:19Z</time>
  <course>156.34</course>
  <speed>0.03</speed>
  <fix>3d</fix>
</trkpt>
<trkpt lat="33.8106171" lon="-118.3935639">
  <ele>-3.32</ele>
  <time>2026-09-02T22:09:19Z</time>
  <course>71.68</course>
  <speed>0.01</speed>
  <fix>3d</fix>
</trkpt>
<trkpt lat="33.8106169" lon="-118.3935637">
  <ele>-3.817</ele>
  <time>2026-09-02T22:09:19Z</time>
  <course>156.33</course>
  <speed>0.03</speed>
  <fix>3d</fix>
</trkpt>
<trkpt lat="33.8106171" lon="-118.3935639">
  <ele>-3.32</ele>
  <time>2026-09-02T22:09:19Z</time>
  <course>71.72</course>
  <speed>0.01</speed>
  <fix>3d</fix>
</trkpt>
<trkpt lat="33.810617" lon="-118.3935637">
  <ele>-3.818</ele>
  <time>2026-09-02T22:09:19Z</time>
  <course>156.32</course>
  <speed>0.03</speed>
  <fix>3d</fix>
</trkpt>
<trkpt lat="33.8106171" lon="-118.3935639">
  <ele>-3.32</ele>
  <time>2026-09-02T22:09:19Z</time>
  <course>71.72</course>
  <speed>0.01</speed>
  <fix>3d</fix>
</trkpt>
<trkpt lat="33.810617" lon="-118.3935637">
  <ele>-3.82</ele>
  <time>2026-09-02T22:09:19Z</time>
  <course>156.32</course>
  <speed>0.03</speed>
  <fix>3d</fix>
</trkpt>
<trkpt lat="33.8106171" lon="-118.3935639">
  <ele>-3.33</ele>
  <time>2026-09-02T22:09:19Z</time>
  <course>71.73</course>
  <speed>0.01</speed>
  <fix>3d</fix>
</trkpt>
<trkpt lat="33.810617" lon="-118.3935637">
  <ele>-3.821</ele>
  <time>2026-09-02T22:09:19Z</time>
  <course>156.31</course>
  <speed>0.03</speed>
  <fix>3d</fix>
</trkpt>
<trkpt lat="33.8106171" lon="-118.3935639">
  <ele>-3.33</ele>
  <time>2026-09-02T22:09:19Z</time>
  <course>71.73</course>
  <speed>0.01</speed>
  <fix>3d</fix>
</trkpt>
<trkpt lat="33.810617" lon="-118.3935636">
  <ele>-3.821</ele>
  <time>2026-09-02T22:09:19Z</time>
  <course>156.3</course>
  <speed>0.03</speed>
  <fix>3d</fix>
</trkpt>
<trkpt lat="33.8106171" lon="-118.3935638">
  <ele>-3.33</ele>
  <time>2026-09-02T22:09:19Z</time>
  <course>71.72</course>
  <speed>0.01</speed>
  <fix>3d</fix>
</trkpt>
<trkpt lat="33.810617" lon="-118.3935636">
  <ele>-3.821</ele>
  <time>2026-09-02T22:09:19Z</time>
  <course>156.3</course>
  <speed>0.03</speed>
  <fix>3d</fix>
</trkpt>
<trkpt lat="33.8106171" lon="-118.3935638">
  <ele>-3.33</ele>
  <time>2026-09-02T22:09:19Z</time>
  <course>71.72</course>
  <speed>0.01</speed>
  <fix>3d</fix>
</trkpt>
<trkpt lat="33.810617" lon="-118.3935636">
  <ele>-3.821</ele>
  <time>2026-09-02T22:09:19Z</time>
  <course>156.29</course>
  <speed>0.03</speed>
  <fix>3d</fix>
</trkpt>
<trkpt lat="33.8106171" lon="-118.3935638">
  <ele>-3.33</ele>
  <time>2026-09-02T22:09:19Z</time>
  <course>71.7</course>
  <speed>0.01</speed>
  <fix>3d</fix>
</trkpt>
<trkpt lat="33.810617" lon="-118.3935636">
  <ele>-3.82</ele>
  <time>2026-09-02T22:09:19Z</time>
  <course>156.28</course>
  <speed>0.03</speed>
  <fix>3d</fix>
</trkpt>
<trkpt lat="33.8106171" lon="-118.3935638">
  <ele>-3.33</ele>
  <time>2026-09-02T22:09:19Z</time>
  <course>71.7</course>
  <speed>0.01</speed>
  <fix>3d</fix>
</trkpt>
<trkpt lat="33.810617" lon="-118.3935636">
  <ele>-3.82</ele>
  <time>2026-09-02T22:09:19Z</time>
  <course>156.27</course>
  <speed>0.03</speed>
  <fix>3d</fix>
</trkpt>
<trkpt lat="33.8106171" lon="-118.3935638">
  <ele>-3.33</ele>
  <time>2026-09-02T22:09:19Z</time>
  <course>71.68</course>
  <speed>0.01</speed>
  <fix>3d</fix>
</trkpt>
<trkpt lat="33.810617" lon="-118.3935636">
  <ele>-3.819</ele>
  <time>2026-09-02T22:09:19Z</time>
  <course>156.27</course>
  <speed>0.03</speed>
  <fix>3d</fix>
</trkpt>
<trkpt lat="33.8106171" lon="-118.3935638">
  <ele>-3.33</ele>
  <time>2026-09-02T22:09:19Z</time>
  <course>71.68</course>
  <speed>0.01</speed>
  <fix>3d</fix>
</trkpt>
<trkpt lat="33.810617" lon="-118.3935636">
  <ele>-3.817</ele>
  <time>2026-09-02T22:09:19Z</time>
  <course>156.26</course>
  <speed>0.03</speed>
  <fix>3d</fix>
</trkpt>
<trkpt lat="33.8106171" lon="-118.3935638">
  <ele>-3.33</ele>
  <time>2026-09-02T22:09:19Z</time>
  <course>71.68</course>
  <speed>0.01</speed>
  <fix>3d</fix>
</trkpt>
<trkpt lat="33.810617" lon="-118.3935635">
  <ele>-3.817</ele>
  <time>2026-09-02T22:09:19Z</time>
  <course>156.25</course>
  <speed>0.03</speed>
  <fix>3d</fix>
</trkpt>
<trkpt lat="33.8106171" lon="-118.3935638">
  <ele>-3.33</ele>
  <time>2026-09-02T22:09:19Z</time>
  <course>71.68</course>
  <speed>0.01</speed>
  <fix>3d</fix>
</trkpt>
<trkpt lat="33.810617" lon="-118.3935635">
  <ele>-3.816</ele>
  <time>2026-09-02T22:09:19Z</time>
  <course>156.25</course>
  <speed>0.03</speed>
  <fix>3d</fix>
</trkpt>
<trkpt lat="33.8106171" lon="-118.3935637">
  <ele>-3.33</ele>
  <time>2026-09-02T22:09:19Z</time>
  <course>71.71</course>
  <speed>0.01</speed>
  <fix>3d</fix>
</trkpt>
<trkpt lat="33.810617" lon="-118.3935635">
  <ele>-3.817</ele>
  <time>2026-09-02T22:09:19Z</time>
  <course>156.24</course>
  <speed>0.03</speed>
  <fix>3d</fix>
</trkpt>
<trkpt lat="33.8106171" lon="-118.3935637">
  <ele>-3.33</ele>
  <time>2026-09-02T22:09:19Z</time>
  <course>71.71</course>
  <speed>0.01</speed>
  <fix>3d</fix>
</trkpt>
<trkpt lat="33.810617" lon="-118.3935635">
  <ele>-3.818</ele>
  <time>2026-09-02T22:09:19Z</time>
  <course>156.23</course>
  <speed>0.03</speed>
  <fix>3d</fix>
</trkpt>
<trkpt lat="33.8106171" lon="-118.3935637">
  <ele>-3.33</ele>
  <time>2026-09-02T22:09:19Z</time>
  <course>71.74</course>
  <speed>0.01</speed>
  <fix>3d</fix>
</trkpt>
<trkpt lat="33.810617" lon="-118.3935635">
  <ele>-3.819</ele>
  <time>2026-09-02T22:09:19Z</time>
  <course>156.22</course>
  <speed>0.03</speed>
  <fix>3d</fix>
</trkpt>
<trkpt lat="33.8106171" lon="-118.3935637">
  <ele>-3.33</ele>
  <time>2026-09-02T22:09:19Z</time>
  <course>71.74</course>
  <speed>0.01</speed>
  <fix>3d</fix>
</trkpt>
<trkpt lat="33.810617" lon="-118.3935635">
  <ele>-3.823</ele>
  <time>2026-09-02T22:09:19Z</time>
  <course>156.22</course>
  <speed>0.03</speed>
  <fix>3d</fix>
</trkpt>
<trkpt lat="33.8106171" lon="-118.3935637">
  <ele>-3.33</ele>
  <time>2026-09-02T22:09:19Z</time>
  <course>71.76</course>
  <speed>0.01</speed>
  <fix>3d</fix>
</trkpt>
<trkpt lat="33.810617" lon="-118.3935635">
  <ele>-3.834</ele>
  <time>2026-09-02T22:09:19Z</time>
  <course>156.21</course>
  <speed>0.03</speed>
  <fix>3d</fix>
</trkpt>
<trkpt lat="33.8106171" lon="-118.3935637">
  <ele>-3.33</ele>
  <time>2026-09-02T22:09:19Z</time>
  <course>71.76</course>
  <speed>0.01</speed>
  <fix>3d</fix>
</trkpt>
<trkpt lat="33.810617" lon="-118.3935634">
  <ele>-3.843</ele>
  <time>2026-09-02T22:09:19Z</time>
  <course>156.2</course>
  <speed>0.03</speed>
  <fix>3d</fix>
</trkpt>
<trkpt lat="33.8106171" lon="-118.3935637">
  <ele>-3.34</ele>
  <time>2026-09-02T22:09:19Z</time>
  <course>71.8</course>
  <speed>0.01</speed>
  <fix>3d</fix>
</trkpt>
<trkpt lat="33.810617" lon="-118.3935634">
  <ele>-3.847</ele>
  <time>2026-09-02T22:09:19Z</time>
  <course>156.2</course>
  <speed>0.03</speed>
  <fix>3d</fix>
</trkpt>
<trkpt lat="33.8106171" lon="-118.3935637">
  <ele>-3.34</ele>
  <time>2026-09-02T22:09:19Z</time>
  <course>71.8</course>
  <speed>0.01</speed>
  <fix>3d</fix>
</trkpt>
<trkpt lat="33.810617" lon="-118.3935634">
  <ele>-3.848</ele>
  <time>2026-09-02T22:09:19Z</time>
  <course>156.19</course>
  <speed>0.03</speed>
  <fix>3d</fix>
</trkpt>
<trkpt lat="33.8106171" lon="-118.3935636">
  <ele>-3.35</ele>
  <time>2026-09-02T22:09:19Z</time>
  <course>71.97</course>
  <speed>0.01</speed>
  <fix>3d</fix>
</trkpt>
<trkpt lat="33.810617" lon="-118.3935634">
  <ele>-3.846</ele>
  <time>2026-09-02T22:09:19Z</time>
  <course>156.18</course>
  <speed>0.03</speed>
  <fix>3d</fix>
</trkpt>
<trkpt lat="33.8106171" lon="-118.3935636">
  <ele>-3.35</ele>
  <time>2026-09-02T22:09:19Z</time>
  <course>71.97</course>
  <speed>0.01</speed>
  <fix>3d</fix>
</trkpt>
<trkpt lat="33.810617" lon="-118.3935634">
  <ele>-3.843</ele>
  <time>2026-09-02T22:09:19Z</time>
  <course>156.18</course>
  <speed>0.03</speed>
  <fix>3d</fix>
</trkpt>
<trkpt lat="33.8106171" lon="-118.3935636">
  <ele>-3.36</ele>
  <time>2026-09-02T22:09:19Z</time>
  <course>72.17</course>
  <speed>0.01</speed>
  <fix>3d</fix>
</trkpt>
<trkpt lat="33.810617" lon="-118.3935634">
  <ele>-3.841</ele>
  <time>2026-09-02T22:09:19Z</time>
  <course>156.17</course>
  <speed>0.03</speed>
  <fix>3d</fix>
</trkpt>
<trkpt lat="33.8106171" lon="-118.3935636">
  <ele>-3.36</ele>
  <time>2026-09-02T22:09:19Z</time>
  <course>72.17</course>
  <speed>0.01</speed>
  <fix>3d</fix>
</trkpt>
<trkpt lat="33.810617" lon="-118.3935634">
  <ele>-3.838</ele>
  <time>2026-09-02T22:09:19Z</time>
  <course>156.16</course>
  <speed>0.03</speed>
  <fix>3d</fix>
</trkpt>
<trkpt lat="33.8106171" lon="-118.3935636">
  <ele>-3.35</ele>
  <time>2026-09-02T22:09:19Z</time>
  <course>72.32</course>
  <speed>0.01</speed>
  <fix>3d</fix>
</trkpt>
<trkpt lat="33.810617" lon="-118.3935634">
  <ele>-3.835</ele>
  <time>2026-09-02T22:09:19Z</time>
  <course>156.16</course>
  <speed>0.03</speed>
  <fix>3d</fix>
</trkpt>
<trkpt lat="33.8106171" lon="-118.3935636">
  <ele>-3.35</ele>
  <time>2026-09-02T22:09:19Z</time>
  <course>72.32</course>
  <speed>0.01</speed>
  <fix>3d</fix>
</trkpt>
<trkpt lat="33.810617" lon="-118.3935634">
  <ele>-3.833</ele>
  <time>2026-09-02T22:09:19Z</time>
  <course>156.15</course>
  <speed>0.03</speed>
  <fix>3d</fix>
</trkpt>
<trkpt lat="33.8106171" lon="-118.3935636">
  <ele>-3.35</ele>
  <time>2026-09-02T22:09:19Z</time>
  <course>72.43</course>
  <speed>0.01</speed>
  <fix>3d</fix>
</trkpt>
<trkpt lat="33.810617" lon="-118.3935633">
  <ele>-3.83</ele>
  <time>2026-09-02T22:09:19Z</time>
  <course>156.14</course>
  <speed>0.03</speed>
  <fix>3d</fix>
</trkpt>
<trkpt lat="33.8106171" lon="-118.3935636">
  <ele>-3.35</ele>
  <time>2026-09-02T22:09:19Z</time>
  <course>72.43</course>
  <speed>0.01</speed>
  <fix>3d</fix>
</trkpt>
<trkpt lat="33.810617" lon="-118.3935633">
  <ele>-3.829</ele>
  <time>2026-09-02T22:09:19Z</time>
  <course>156.14</course>
  <speed>0.03</speed>
  <fix>3d</fix>
</trkpt>
<trkpt lat="33.8106171" lon="-118.3935635">
  <ele>-3.34</ele>
  <time>2026-09-02T22:09:19Z</time>
  <course>72.55</course>
  <speed>0.01</speed>
  <fix>3d</fix>
</trkpt>
<trkpt lat="33.810617" lon="-118.3935633">
  <ele>-3.829</ele>
  <time>2026-09-02T22:09:19Z</time>
  <course>156.13</course>
  <speed>0.03</speed>
  <fix>3d</fix>
</trkpt>
<trkpt lat="33.8106171" lon="-118.3935635">
  <ele>-3.34</ele>
  <time>2026-09-02T22:09:19Z</time>
  <course>72.55</course>
  <speed>0.01</speed>
  <fix>3d</fix>
</trkpt>
<trkpt lat="33.810617" lon="-118.3935633">
  <ele>-3.829</ele>
  <time>2026-09-02T22:09:19Z</time>
  <course>156.12</course>
  <speed>0.03</speed>
  <fix>3d</fix>
</trkpt>
<trkpt lat="33.8106171" lon="-118.3935635">
  <ele>-3.34</ele>
  <time>2026-09-02T22:09:19Z</time>
  <course>72.7</course>
  <speed>0.01</speed>
  <fix>3d</fix>
</trkpt>
<trkpt lat="33.810617" lon="-118.3935633">
  <ele>-3.829</ele>
  <time>2026-09-02T22:09:19Z</time>
  <course>156.12</course>
  <speed>0.03</speed>
  <fix>3d</fix>
</trkpt>
<trkpt lat="33.8106171" lon="-118.3935635">
  <ele>-3.34</ele>
  <time>2026-09-02T22:09:19Z</time>
  <course>72.7</course>
  <speed>0.01</speed>
  <fix>3d</fix>
</trkpt>
<trkpt lat="33.810617" lon="-118.3935633">
  <ele>-3.828</ele>
  <time>2026-09-02T22:09:19Z</time>
  <course>156.11</course>
  <speed>0.03</speed>
  <fix>3d</fix>
</trkpt>
<trkpt lat="33.8106171" lon="-118.3935635">
  <ele>-3.34</ele>
  <time>2026-09-02T22:09:19Z</time>
  <course>72.9</course>
  <speed>0.01</speed>
  <fix>3d</fix>
</trkpt>
<trkpt lat="33.810617" lon="-118.3935633">
  <ele>-3.826</ele>
  <time>2026-09-02T22:09:19Z</time>
  <course>156.1</course>
  <speed>0.0316227766016838</speed>
  <fix>3d</fix>
</trkpt>
<trkpt lat="33.8106171" lon="-118.3935635">
  <ele>-3.34</ele>
  <time>2026-09-02T22:09:19Z</time>
  <course>72.9</course>
  <speed>0.01</speed>
  <fix>3d</fix>
</trkpt>
<trkpt lat="33.810617" lon="-118.3935633">
  <ele>-3.824</ele>
  <time>2026-09-02T22:09:19Z</time>
  <course>156.1</course>
  <speed>0.0316227766016838</speed>
  <fix>3d</fix>
</trkpt>
<trkpt lat="33.8106171" lon="-118.3935635">
  <ele>-3.34</ele>
  <time>2026-09-02T22:09:19Z</time>
  <course>73.11</course>
  <speed>0.01</speed>
  <fix>3d</fix>
</trkpt>
<trkpt lat="33.810617" lon="-118.3935633">
  <ele>-3.824</ele>
  <time>2026-09-02T22:09:19Z</time>
  <course>156.09</course>
  <speed>0.0316227766016838</speed>
  <fix>3d</fix>
</trkpt>
<trkpt lat="33.8106171" lon="-118.3935635">
  <ele>-3.34</ele>
  <time>2026-09-02T22:09:19Z</time>
  <course>73.11</course>
  <speed>0.01</speed>
  <fix>3d</fix>
</trkpt>
<trkpt lat="33.810617" lon="-118.3935632">
  <ele>-3.824</ele>
  <time>2026-09-02T22:09:19Z</time>
  <course>156.08</course>
  <speed>0.0316227766016838</speed>
  <fix>3d</fix>
</trkpt>
<trkpt lat="33.8106171" lon="-118.3935634">
  <ele>-3.33</ele>
  <time>2026-09-02T22:09:19Z</time>
  <course>73.29</course>
  <speed>0.01</speed>
  <fix>3d</fix>
</trkpt>
<trkpt lat="33.810617" lon="-118.3935632">
  <ele>-3.825</ele>
  <time>2026-09-02T22:09:19Z</time>
  <course>156.08</course>
  <speed>0.0316227766016838</speed>
  <fix>3d</fix>
</trkpt>
<trkpt lat="33.8106171" lon="-118.3935634">
  <ele>-3.33</ele>
  <time>2026-09-02T22:09:19Z</time>
  <course>73.29</course>
  <speed>0.01</speed>
  <fix>3d</fix>
</trkpt>
<trkpt lat="33.810617" lon="-118.3935632">
  <ele>-3.825</ele>
  <time>2026-09-02T22:09:19Z</time>
  <course>156.07</course>
  <speed>0.0316227766016838</speed>
  <fix>3d</fix>
</trkpt>
<trkpt lat="33.8106171" lon="-118.3935634">
  <ele>-3.33</ele>
  <time>2026-09-02T22:09:19Z</time>
  <course>73.44</course>
  <speed>0.0</speed>
  <fix>3d</fix>
</trkpt>
<trkpt lat="33.810617" lon="-118.3935632">
  <ele>-3.825</ele>
  <time>2026-09-02T22:09:20Z</time>
  <course>156.06</course>
  <speed>0.0316227766016838</speed>
  <fix>3d</fix>
</trkpt>
<trkpt lat="33.8106171" lon="-118.3935634">
  <ele>-3.33</ele>
  <time>2026-09-02T22:09:20Z</time>
  <course>73.44</course>
  <speed>0.0</speed>
  <fix>3d</fix>
</trkpt>
<trkpt lat="33.810617" lon="-118.3935632">
  <ele>-3.824</ele>
  <time>2026-09-02T22:09:20Z</time>
  <course>156.06</course>
  <speed>0.0316227766016838</speed>
  <fix>3d</fix>
</trkpt>
<trkpt lat="33.8106171" lon="-118.3935634">
  <ele>-3.33</ele>
  <time>2026-09-02T22:09:20Z</time>
  <course>73.58</course>
  <speed>0.0</speed>
  <fix>3d</fix>
</trkpt>
<trkpt lat="33.810617" lon="-118.3935632">
  <ele>-3.824</ele>
  <time>2026-09-02T22:09:20Z</time>
  <course>156.05</course>
  <speed>0.0316227766016838</speed>
  <fix>3d</fix>
</trkpt>
<trkpt lat="33.8106171" lon="-118.3935634">
  <ele>-3.33</ele>
  <time>2026-09-02T22:09:20Z</time>
  <course>73.58</course>
  <speed>0.0</speed>
  <fix>3d</fix>
</trkpt>
<trkpt lat="33.810617" lon="-118.3935632">
  <ele>-3.823</ele>
  <time>2026-09-02T22:09:20Z</time>
  <course>156.05</course>
  <speed>0.0316227766016838</speed>
  <fix>3d</fix>
</trkpt>
<trkpt lat="33.8106171" lon="-118.3935634">
  <ele>-3.33</ele>
  <time>2026-09-02T22:09:20Z</time>
  <course>73.76</course>
  <speed>0.0</speed>
  <fix>3d</fix>
</trkpt>
<trkpt lat="33.810617" lon="-118.3935632">
  <ele>-3.822</ele>
  <time>2026-09-02T22:09:20Z</time>
  <course>156.04</course>
  <speed>0.0316227766016838</speed>
  <fix>3d</fix>
</trkpt>
<trkpt lat="33.8106171" lon="-118.3935634">
  <ele>-3.33</ele>
  <time>2026-09-02T22:09:20Z</time>
  <course>73.76</course>
  <speed>0.0</speed>
  <fix>3d</fix>
</trkpt>
<trkpt lat="33.810617" lon="-118.3935632">
  <ele>-3.82</ele>
  <time>2026-09-02T22:09:20Z</time>
  <course>156.03</course>
  <speed>0.0316227766016838</speed>
  <fix>3d</fix>
</trkpt>
<trkpt lat="33.8106171" lon="-118.3935634">
  <ele>-3.33</ele>
  <time>2026-09-02T22:09:20Z</time>
  <course>73.99</course>
  <speed>0.0</speed>
  <fix>3d</fix>
</trkpt>
<trkpt lat="33.810617" lon="-118.3935632">
  <ele>-3.818</ele>
  <time>2026-09-02T22:09:20Z</time>
  <course>156.03</course>
  <speed>0.0316227766016838</speed>
  <fix>3d</fix>
</trkpt>
<trkpt lat="33.8106171" lon="-118.3935634">
  <ele>-3.33</ele>
  <time>2026-09-02T22:09:20Z</time>
  <course>73.99</course>
  <speed>0.0</speed>
  <fix>3d</fix>
</trkpt>
<trkpt lat="33.810617" lon="-118.3935631">
  <ele>-3.816</ele>
  <time>2026-09-02T22:09:20Z</time>
  <course>156.02</course>
  <speed>0.0316227766016838</speed>
  <fix>3d</fix>
</trkpt>
<trkpt lat="33.8106171" lon="-118.3935633">
  <ele>-3.32</ele>
  <time>2026-09-02T22:09:20Z</time>
  <course>74.25</course>
  <speed>0.0</speed>
  <fix>3d</fix>
</trkpt>
<trkpt lat="33.810617" lon="-118.3935631">
  <ele>-3.815</ele>
  <time>2026-09-02T22:09:20Z</time>
  <course>156.01</course>
  <speed>0.0316227766016838</speed>
  <fix>3d</fix>
</trkpt>
<trkpt lat="33.8106171" lon="-118.3935633">
  <ele>-3.32</ele>
  <time>2026-09-02T22:09:20Z</time>
  <course>74.25</course>
  <speed>0.0</speed>
  <fix>3d</fix>
</trkpt>
<trkpt lat="33.810617" lon="-118.3935631">
  <ele>-3.815</ele>
  <time>2026-09-02T22:09:20Z</time>
  <course>156.01</course>
  <speed>0.0316227766016838</speed>
  <fix>3d</fix>
</trkpt>
<trkpt lat="33.8106171" lon="-118.3935633">
  <ele>-3.32</ele>
  <time>2026-09-02T22:09:20Z</time>
  <course>74.5</course>
  <speed>0.0</speed>
  <fix>3d</fix>
</trkpt>
<trkpt lat="33.810617" lon="-118.3935631">
  <ele>-3.816</ele>
  <time>2026-09-02T22:09:20Z</time>
  <course>156.0</course>
  <speed>0.0316227766016838</speed>
  <fix>3d</fix>
</trkpt>
<trkpt lat="33.8106171" lon="-118.3935633">
  <ele>-3.32</ele>
  <time>2026-09-02T22:09:20Z</time>
  <course>74.5</course>
  <speed>0.0</speed>
  <fix>3d</fix>
</trkpt>
<trkpt lat="33.810617" lon="-118.3935631">
  <ele>-3.816</ele>
  <time>2026-09-02T22:09:20Z</time>
  <course>155.99</course>
  <speed>0.0316227766016838</speed>
  <fix>3d</fix>
</trkpt>
<trkpt lat="33.8106171" lon="-118.3935633">
  <ele>-3.33</ele>
  <time>2026-09-02T22:09:20Z</time>
  <course>74.72</course>
  <speed>0.0</speed>
  <fix>3d</fix>
</trkpt>
<trkpt lat="33.810617" lon="-118.3935631">
  <ele>-3.816</ele>
  <time>2026-09-02T22:09:20Z</time>
  <course>155.99</course>
  <speed>0.0316227766016838</speed>
  <fix>3d</fix>
</trkpt>
<trkpt lat="33.8106171" lon="-118.3935633">
  <ele>-3.33</ele>
  <time>2026-09-02T22:09:20Z</time>
  <course>74.72</course>
  <speed>0.0</speed>
  <fix>3d</fix>
</trkpt>
<trkpt lat="33.810617" lon="-118.3935631">
  <ele>-3.816</ele>
  <time>2026-09-02T22:09:20Z</time>
  <course>155.98</course>
  <speed>0.0316227766016838</speed>
  <fix>3d</fix>
</trkpt>
<trkpt lat="33.8106171" lon="-118.3935633">
  <ele>-3.33</ele>
  <time>2026-09-02T22:09:20Z</time>
  <course>74.89</course>
  <speed>0.0</speed>
  <fix>3d</fix>
</trkpt>
<trkpt lat="33.810617" lon="-118.3935631">
  <ele>-3.816</ele>
  <time>2026-09-02T22:09:20Z</time>
  <course>155.97</course>
  <speed>0.0316227766016838</speed>
  <fix>3d</fix>
</trkpt>
<trkpt lat="33.8106171" lon="-118.3935633">
  <ele>-3.33</ele>
  <time>2026-09-02T22:09:20Z</time>
  <course>74.89</course>
  <speed>0.0</speed>
  <fix>3d</fix>
</trkpt>
<trkpt lat="33.810617" lon="-118.3935631">
  <ele>-3.818</ele>
  <time>2026-09-02T22:09:20Z</time>
  <course>155.97</course>
  <speed>0.0316227766016838</speed>
  <fix>3d</fix>
</trkpt>
<trkpt lat="33.8106172" lon="-118.3935633">
  <ele>-3.33</ele>
  <time>2026-09-02T22:09:20Z</time>
  <course>75.08</course>
  <speed>0.0</speed>
  <fix>3d</fix>
</trkpt>
<trkpt lat="33.810617" lon="-118.3935631">
  <ele>-3.82</ele>
  <time>2026-09-02T22:09:20Z</time>
  <course>155.96</course>
  <speed>0.0316227766016838</speed>
  <fix>3d</fix>
</trkpt>
<trkpt lat="33.8106172" lon="-118.3935633">
  <ele>-3.33</ele>
  <time>2026-09-02T22:09:20Z</time>
  <course>75.08</course>
  <speed>0.0</speed>
  <fix>3d</fix>
</trkpt>
<trkpt lat="33.810617" lon="-118.3935631">
  <ele>-3.821</ele>
  <time>2026-09-02T22:09:20Z</time>
  <course>155.95</course>
  <speed>0.0316227766016838</speed>
  <fix>3d</fix>
</trkpt>
<trkpt lat="33.8106172" lon="-118.3935633">
  <ele>-3.34</ele>
  <time>2026-09-02T22:09:20Z</time>
  <course>75.31</course>
  <speed>0.0</speed>
  <fix>3d</fix>
</trkpt>
<trkpt lat="33.810617" lon="-118.3935631">
  <ele>-3.822</ele>
  <time>2026-09-02T22:09:20Z</time>
  <course>155.95</course>
  <speed>0.0316227766016838</speed>
  <fix>3d</fix>
</trkpt>
<trkpt lat="33.8106172" lon="-118.3935633">
  <ele>-3.34</ele>
  <time>2026-09-02T22:09:20Z</time>
  <course>75.31</course>
  <speed>0.0</speed>
  <fix>3d</fix>
</trkpt>
<trkpt lat="33.810617" lon="-118.393563">
  <ele>-3.823</ele>
  <time>2026-09-02T22:09:20Z</time>
  <course>155.94</course>
  <speed>0.0316227766016838</speed>
  <fix>3d</fix>
</trkpt>
<trkpt lat="33.8106172" lon="-118.3935632">
  <ele>-3.34</ele>
  <time>2026-09-02T22:09:20Z</time>
  <course>75.64</course>
  <speed>0.0</speed>
  <fix>3d</fix>
</trkpt>
<trkpt lat="33.810617" lon="-118.393563">
  <ele>-3.824</ele>
  <time>2026-09-02T22:09:20Z</time>
  <course>155.93</course>
  <speed>0.0316227766016838</speed>
  <fix>3d</fix>
</trkpt>
<trkpt lat="33.8106172" lon="-118.3935632">
  <ele>-3.34</ele>
  <time>2026-09-02T22:09:20Z</time>
  <course>75.64</course>
  <speed>0.0</speed>
  <fix>3d</fix>
</trkpt>
<trkpt lat="33.810617" lon="-118.393563">
  <ele>-3.825</ele>
  <time>2026-09-02T22:09:20Z</time>
  <course>155.93</course>
  <speed>0.0316227766016838</speed>
  <fix>3d</fix>
</trkpt>
<trkpt lat="33.8106172" lon="-118.3935632">
  <ele>-3.34</ele>
  <time>2026-09-02T22:09:20Z</time>
  <course>76.04</course>
  <speed>0.0</speed>
  <fix>3d</fix>
</trkpt>
<trkpt lat="33.810617" lon="-118.393563">
  <ele>-3.825</ele>
  <time>2026-09-02T22:09:20Z</time>
  <course>155.92</course>
  <speed>0.0316227766016838</speed>
  <fix>3d</fix>
</trkpt>
<trkpt lat="33.8106172" lon="-118.3935632">
  <ele>-3.34</ele>
  <time>2026-09-02T22:09:20Z</time>
  <course>76.04</course>
  <speed>0.0</speed>
  <fix>3d</fix>
</trkpt>
<trkpt lat="33.810617" lon="-118.393563">
  <ele>-3.824</ele>
  <time>2026-09-02T22:09:20Z</time>
  <course>155.91</course>
  <speed>0.03</speed>
  <fix>3d</fix>
</trkpt>
<trkpt lat="33.8106172" lon="-118.3935632">
  <ele>-3.34</ele>
  <time>2026-09-02T22:09:20Z</time>
  <course>76.39</course>
  <speed>0.0</speed>
  <fix>3d</fix>
</trkpt>
<trkpt lat="33.810617" lon="-118.393563">
  <ele>-3.823</ele>
  <time>2026-09-02T22:09:20Z</time>
  <course>155.91</course>
  <speed>0.03</speed>
  <fix>3d</fix>
</trkpt>
<trkpt lat="33.8106172" lon="-118.3935632">
  <ele>-3.34</ele>
  <time>2026-09-02T22:09:20Z</time>
  <course>76.39</course>
  <speed>0.0</speed>
  <fix>3d</fix>
</trkpt>
<trkpt lat="33.810617" lon="-118.393563">
  <ele>-3.821</ele>
  <time>2026-09-02T22:09:20Z</time>
  <course>155.9</course>
  <speed>0.03</speed>
  <fix>3d</fix>
</trkpt>
<trkpt lat="33.8106172" lon="-118.3935632">
  <ele>-3.34</ele>
  <time>2026-09-02T22:09:20Z</time>
  <course>76.66</course>
  <speed>0.0</speed>
  <fix>3d</fix>
</trkpt>
<trkpt lat="33.810617" lon="-118.393563">
  <ele>-3.82</ele>
  <time>2026-09-02T22:09:20Z</time>
  <course>155.9</course>
  <speed>0.03</speed>
  <fix>3d</fix>
</trkpt>
<trkpt lat="33.8106172" lon="-118.3935632">
  <ele>-3.34</ele>
  <time>2026-09-02T22:09:20Z</time>
  <course>76.66</course>
  <speed>0.0</speed>
  <fix>3d</fix>
</trkpt>
<trkpt lat="33.810617" lon="-118.393563">
  <ele>-3.82</ele>
  <time>2026-09-02T22:09:20Z</time>
  <course>155.89</course>
  <speed>0.03</speed>
  <fix>3d</fix>
</trkpt>
<trkpt lat="33.8106172" lon="-118.3935632">
  <ele>-3.34</ele>
  <time>2026-09-02T22:09:20Z</time>
  <course>76.92</course>
  <speed>0.0</speed>
  <fix>3d</fix>
</trkpt>
<trkpt lat="33.810617" lon="-118.393563">
  <ele>-3.821</ele>
  <time>2026-09-02T22:09:20Z</time>
  <course>155.88</course>
  <speed>0.03</speed>
  <fix>3d</fix>
</trkpt>
<trkpt lat="33.8106172" lon="-118.3935632">
  <ele>-3.34</ele>
  <time>2026-09-02T22:09:20Z</time>
  <course>76.92</course>
  <speed>0.0</speed>
  <fix>3d</fix>
</trkpt>
<trkpt lat="33.810617" lon="-118.393563">
  <ele>-3.823</ele>
  <time>2026-09-02T22:09:20Z</time>
  <course>155.88</course>
  <speed>0.03</speed>
  <fix>3d</fix>
</trkpt>
<trkpt lat="33.8106172" lon="-118.3935632">
  <ele>-3.34</ele>
  <time>2026-09-02T22:09:20Z</time>
  <course>77.22</course>
  <speed>0.0</speed>
  <fix>3d</fix>
</trkpt>
<trkpt lat="33.810617" lon="-118.393563">
  <ele>-3.819</ele>
  <time>2026-09-02T22:09:20Z</time>
  <course>155.87</course>
  <speed>0.03</speed>
  <fix>3d</fix>
</trkpt>
<trkpt lat="33.8106172" lon="-118.3935632">
  <ele>-3.34</ele>
  <time>2026-09-02T22:09:20Z</time>
  <course>77.22</course>
  <speed>0.0</speed>
  <fix>3d</fix>
</trkpt>
<trkpt lat="33.810617" lon="-118.393563">
  <ele>-3.81</ele>
  <time>2026-09-02T22:09:20Z</time>
  <course>155.86</course>
  <speed>0.03</speed>
  <fix>3d</fix>
</trkpt>
<trkpt lat="33.8106172" lon="-118.3935632">
  <ele>-3.33</ele>
  <time>2026-09-02T22:09:20Z</time>
  <course>77.54</course>
  <speed>0.0</speed>
  <fix>3d</fix>
</trkpt>
<trkpt lat="33.8106171" lon="-118.393563">
  <ele>-3.806</ele>
  <time>2026-09-02T22:09:20Z</time>
  <course>155.86</course>
  <speed>0.02</speed>
  <fix>3d</fix>
</trkpt>
<trkpt lat="33.8106172" lon="-118.3935632">
  <ele>-3.33</ele>
  <time>2026-09-02T22:09:20Z</time>
  <course>77.54</course>
  <speed>0.0</speed>
  <fix>3d</fix>
</trkpt>
<trkpt lat="33.8106171" lon="-118.393563">
  <ele>-3.819</ele>
  <time>2026-09-02T22:09:20Z</time>
  <course>155.85</course>
  <speed>0.02</speed>
  <fix>3d</fix>
</trkpt>
<trkpt lat="33.8106172" lon="-118.3935632">
  <ele>-3.32</ele>
  <time>2026-09-02T22:09:20Z</time>
  <course>77.24</course>
  <speed>0.0</speed>
  <fix>3d</fix>
</trkpt>
<trkpt lat="33.8106171" lon="-118.393563">
  <ele>-3.851</ele>
  <time>2026-09-02T22:09:20Z</time>
  <course>155.84</course>
  <speed>0.02</speed>
  <fix>3d</fix>
</trkpt>
<trkpt lat="33.8106172" lon="-118.3935632">
  <ele>-3.32</ele>
  <time>2026-09-02T22:09:20Z</time>
  <course>77.24</course>
  <speed>0.0</speed>
  <fix>3d</fix>
</trkpt>
<trkpt lat="33.8106171" lon="-118.393563">
  <ele>-3.852</ele>
  <time>2026-09-02T22:09:20Z</time>
  <course>155.84</course>
  <speed>0.02</speed>
  <fix>3d</fix>
</trkpt>
<trkpt lat="33.8106171" lon="-118.393563">
  <ele>-3.896</ele>
  <time>2026-09-02T22:09:20Z</time>
  <course>155.84</course>
  <speed>0.02</speed>
  <fix>3d</fix>
</trkpt>
<trkpt lat="33.8106172" lon="-118.3935631">
  <ele>-3.34</ele>
  <time>2026-09-02T22:09:20Z</time>
  <course>76.13</course>
  <speed>0.0</speed>
  <fix>3d</fix>
</trkpt>
<trkpt lat="33.8106171" lon="-118.393563">
  <ele>-3.897</ele>
  <time>2026-09-02T22:09:20Z</time>
  <course>155.84</course>
  <speed>0.02</speed>
  <fix>3d</fix>
</trkpt>
<trkpt lat="33.8106171" lon="-118.3935629">
  <ele>-3.949</ele>
  <time>2026-09-02T22:09:20Z</time>
  <course>155.83</course>
  <speed>0.03</speed>
  <fix>3d</fix>
</trkpt>
<trkpt lat="33.8106172" lon="-118.3935631">
  <ele>-3.34</ele>
  <time>2026-09-02T22:09:20Z</time>
  <course>76.13</course>
  <speed>0.0</speed>
  <fix>3d</fix>
</trkpt>
<trkpt lat="33.8106171" lon="-118.3935629">
  <ele>-3.966</ele>
  <time>2026-09-02T22:09:20Z</time>
  <course>155.83</course>
  <speed>0.03</speed>
  <fix>3d</fix>
</trkpt>
<trkpt lat="33.8106171" lon="-118.3935629">
  <ele>-4.008</ele>
  <time>2026-09-02T22:09:20Z</time>
  <course>155.83</course>
  <speed>0.03</speed>
  <fix>3d</fix>
</trkpt>
<trkpt lat="33.8106172" lon="-118.3935631">
  <ele>-3.42</ele>
  <time>2026-09-02T22:09:20Z</time>
  <course>75.26</course>
  <speed>0.0</speed>
  <fix>3d</fix>
</trkpt>
<trkpt lat="33.8106171" lon="-118.3935629">
  <ele>-4.028</ele>
  <time>2026-09-02T22:09:20Z</time>
  <course>155.82</course>
  <speed>0.03</speed>
  <fix>3d</fix>
</trkpt>
<trkpt lat="33.8106171" lon="-118.3935629">
  <ele>-4.071</ele>
  <time>2026-09-02T22:09:20Z</time>
  <course>155.82</course>
  <speed>0.03</speed>
  <fix>3d</fix>
</trkpt>
<trkpt lat="33.8106172" lon="-118.3935631">
  <ele>-3.42</ele>
  <time>2026-09-02T22:09:20Z</time>
  <course>75.26</course>
  <speed>0.0</speed>
  <fix>3d</fix>
</trkpt>
<trkpt lat="33.8106171" lon="-118.3935629">
  <ele>-4.089</ele>
  <time>2026-09-02T22:09:20Z</time>
  <course>155.82</course>
  <speed>0.03</speed>
  <fix>3d</fix>
</trkpt>
<trkpt lat="33.8106171" lon="-118.3935629">
  <ele>-4.139</ele>
  <time>2026-09-02T22:09:20Z</time>
  <course>155.81</course>
  <speed>0.03</speed>
  <fix>3d</fix>
</trkpt>
<trkpt lat="33.8106172" lon="-118.3935631">
  <ele>-3.53</ele>
  <time>2026-09-02T22:09:20Z</time>
  <course>74.9</course>
  <speed>0.0</speed>
  <fix>3d</fix>
</trkpt>
<trkpt lat="33.8106171" lon="-118.3935629">
  <ele>-4.159</ele>
  <time>2026-09-02T22:09:20Z</time>
  <course>155.81</course>
  <speed>0.03</speed>
  <fix>3d</fix>
</trkpt>
<trkpt lat="33.8106171" lon="-118.3935629">
  <ele>-4.207</ele>
  <time>2026-09-02T22:09:20Z</time>
  <course>155.81</course>
  <speed>0.03</speed>
  <fix>3d</fix>
</trkpt>
<trkpt lat="33.8106172" lon="-118.3935631">
  <ele>-3.53</ele>
  <time>2026-09-02T22:09:20Z</time>
  <course>74.9</course>
  <speed>0.0</speed>
  <fix>3d</fix>
</trkpt>
<trkpt lat="33.8106171" lon="-118.3935629">
  <ele>-4.227</ele>
  <time>2026-09-02T22:09:20Z</time>
  <course>155.81</course>
  <speed>0.03</speed>
  <fix>3d</fix>
</trkpt>
<trkpt lat="33.8106171" lon="-118.3935629">
  <ele>-4.276</ele>
  <time>2026-09-02T22:09:20Z</time>
  <course>155.8</course>
  <speed>0.03</speed>
  <fix>3d</fix>
</trkpt>
<trkpt lat="33.8106172" lon="-118.3935631">
  <ele>-3.65</ele>
  <time>2026-09-02T22:09:20Z</time>
  <course>74.71</course>
  <speed>0.0</speed>
  <fix>3d</fix>
</trkpt>
<trkpt lat="33.8106171" lon="-118.3935629">
  <ele>-4.296</ele>
  <time>2026-09-02T22:09:20Z</time>
  <course>155.8</course>
  <speed>0.03</speed>
  <fix>3d</fix>
</trkpt>
<trkpt lat="33.8106171" lon="-118.3935629">
  <ele>-4.345</ele>
  <time>2026-09-02T22:09:20Z</time>
  <course>155.8</course>
  <speed>0.03</speed>
  <fix>3d</fix>
</trkpt>
<trkpt lat="33.8106172" lon="-118.3935631">
  <ele>-3.65</ele>
  <time>2026-09-02T22:09:20Z</time>
  <course>74.71</course>
  <speed>0.0</speed>
  <fix>3d</fix>
</trkpt>
<trkpt lat="33.8106171" lon="-118.3935629">
  <ele>-4.366</ele>
  <time>2026-09-02T22:09:20Z</time>
  <course>155.79</course>
  <speed>0.03</speed>
  <fix>3d</fix>
</trkpt>
<trkpt lat="33.8106171" lon="-118.3935629">
  <ele>-4.414</ele>
  <time>2026-09-02T22:09:20Z</time>
  <course>155.79</course>
  <speed>0.03</speed>
  <fix>3d</fix>
</trkpt>
<trkpt lat="33.8106172" lon="-118.3935631">
  <ele>-3.77</ele>
  <time>2026-09-02T22:09:20Z</time>
  <course>74.56</course>
  <speed>0.0</speed>
  <fix>3d</fix>
</trkpt>
<trkpt lat="33.8106171" lon="-118.3935629">
  <ele>-4.435</ele>
  <time>2026-09-02T22:09:20Z</time>
  <course>155.79</course>
  <speed>0.03</speed>
  <fix>3d</fix>
</trkpt>
<trkpt lat="33.8106171" lon="-118.3935629">
  <ele>-4.483</ele>
  <time>2026-09-02T22:09:20Z</time>
  <course>155.78</course>
  <speed>0.03</speed>
  <fix>3d</fix>
</trkpt>
<trkpt lat="33.8106172" lon="-118.3935631">
  <ele>-3.77</ele>
  <time>2026-09-02T22:09:20Z</time>
  <course>74.56</course>
  <speed>0.0</speed>
  <fix>3d</fix>
</trkpt>
<trkpt lat="33.8106171" lon="-118.3935629">
  <ele>-4.504</ele>
  <time>2026-09-02T22:09:20Z</time>
  <course>155.78</course>
  <speed>0.03</speed>
  <fix>3d</fix>
</trkpt>
<trkpt lat="33.8106171" lon="-118.3935629">
  <ele>-4.553</ele>
  <time>2026-09-02T22:09:20Z</time>
  <course>155.78</course>
  <speed>0.03</speed>
  <fix>3d</fix>
</trkpt>
<trkpt lat="33.8106172" lon="-118.3935631">
  <ele>-3.9</ele>
  <time>2026-09-02T22:09:20Z</time>
  <course>74.37</course>
  <speed>0.0</speed>
  <fix>3d</fix>
</trkpt>
<trkpt lat="33.8106171" lon="-118.3935629">
  <ele>-4.575</ele>
  <time>2026-09-02T22:09:20Z</time>
  <course>155.78</course>
  <speed>0.03</speed>
  <fix>3d</fix>
</trkpt>
<trkpt lat="33.8106171" lon="-118.3935629">
  <ele>-4.62</ele>
  <time>2026-09-02T22:09:20Z</time>
  <course>155.77</course>
  <speed>0.03</speed>
  <fix>3d</fix>
</trkpt>
<trkpt lat="33.8106172" lon="-118.3935631">
  <ele>-3.9</ele>
  <time>2026-09-02T22:09:20Z</time>
  <course>74.37</course>
  <speed>0.0</speed>
  <fix>3d</fix>
</trkpt>
<trkpt lat="33.8106171" lon="-118.3935629">
  <ele>-4.622</ele>
  <time>2026-09-02T22:09:20Z</time>
  <course>155.77</course>
  <speed>0.03</speed>
  <fix>3d</fix>
</trkpt>
<trkpt lat="33.8106171" lon="-118.3935629">
  <ele>-4.687</ele>
  <time>2026-09-02T22:09:20Z</time>
  <course>155.77</course>
  <speed>0.03</speed>
  <fix>3d</fix>
</trkpt>
<trkpt lat="33.8106172" lon="-118.393563">
  <ele>-4.02</ele>
  <time>2026-09-02T22:09:20Z</time>
  <course>74.17</course>
  <speed>0.0</speed>
  <fix>3d</fix>
</trkpt>
<trkpt lat="33.8106171" lon="-118.3935629">
  <ele>-4.706</ele>
  <time>2026-09-02T22:09:20Z</time>
  <course>155.76</course>
  <speed>0.03</speed>
  <fix>3d</fix>
</trkpt>
<trkpt lat="33.8106171" lon="-118.3935628">
  <ele>-4.753</ele>
  <time>2026-09-02T22:09:20Z</time>
  <course>155.76</course>
  <speed>0.03</speed>
  <fix>3d</fix>
</trkpt>
<trkpt lat="33.8106172" lon="-118.393563">
  <ele>-4.02</ele>
  <time>2026-09-02T22:09:20Z</time>
  <course>74.17</course>
  <speed>0.0</speed>
  <fix>3d</fix>
</trkpt>
<trkpt lat="33.8106171" lon="-118.3935628">
  <ele>-4.773</ele>
  <time>2026-09-02T22:09:20Z</time>
  <course>155.76</course>
  <speed>0.03</speed>
  <fix>3d</fix>
</trkpt>
<trkpt lat="33.8106171" lon="-118.3935628">
  <ele>-4.82</ele>
  <time>2026-09-02T22:09:20Z</time>
  <course>155.75</course>
  <speed>0.03</speed>
  <fix>3d</fix>
</trkpt>
<trkpt lat="33.8106172" lon="-118.393563">
  <ele>-4.14</ele>
  <time>2026-09-02T22:09:20Z</time>
  <course>73.99</course>
  <speed>0.0</speed>
  <fix>3d</fix>
</trkpt>
<trkpt lat="33.8106171" lon="-118.3935628">
  <ele>-4.84</ele>
  <time>2026-09-02T22:09:20Z</time>
  <course>155.75</course>
  <speed>0.03</speed>
  <fix>3d</fix>
</trkpt>
<trkpt lat="33.8106171" lon="-118.3935628">
  <ele>-4.885</ele>
  <time>2026-09-02T22:09:20Z</time>
  <course>155.75</course>
  <speed>0.03</speed>
  <fix>3d</fix>
</trkpt>
<trkpt lat="33.8106172" lon="-118.393563">
  <ele>-4.14</ele>
  <time>2026-09-02T22:09:20Z</time>
  <course>73.99</course>
  <speed>0.0</speed>
  <fix>3d</fix>
</trkpt>
<trkpt lat="33.8106171" lon="-118.3935628">
  <ele>-4.906</ele>
  <time>2026-09-02T22:09:20Z</time>
  <course>155.75</course>
  <speed>0.03</speed>
  <fix>3d</fix>
</trkpt>
<trkpt lat="33.8106171" lon="-118.3935628">
  <ele>-4.951</ele>
  <time>2026-09-02T22:09:20Z</time>
  <course>155.74</course>
  <speed>0.03</speed>
  <fix>3d</fix>
</trkpt>
<trkpt lat="33.8106172" lon="-118.393563">
  <ele>-4.27</ele>
  <time>2026-09-02T22:09:20Z</time>
  <course>73.87</course>
  <speed>0.0</speed>
  <fix>3d</fix>
</trkpt>
<trkpt lat="33.8106171" lon="-118.3935628">
  <ele>-4.97</ele>
  <time>2026-09-02T22:09:20Z</time>
  <course>155.74</course>
  <speed>0.03</speed>
  <fix>3d</fix>
</trkpt>
<trkpt lat="33.8106171" lon="-118.3935628">
  <ele>-5.016</ele>
  <time>2026-09-02T22:09:20Z</time>
  <course>155.74</course>
  <speed>0.03</speed>
  <fix>3d</fix>
</trkpt>
<trkpt lat="33.8106172" lon="-118.393563">
  <ele>-4.27</ele>
  <time>2026-09-02T22:09:20Z</time>
  <course>73.87</course>
  <speed>0.0</speed>
  <fix>3d</fix>
</trkpt>
<trkpt lat="33.8106171" lon="-118.3935628">
  <ele>-5.037</ele>
  <time>2026-09-02T22:09:20Z</time>
  <course>155.73</course>
  <speed>0.03</speed>
  <fix>3d</fix>
</trkpt>
<trkpt lat="33.8106171" lon="-118.3935628">
  <ele>-5.081</ele>
  <time>2026-09-02T22:09:20Z</time>
  <course>155.73</course>
  <speed>0.03</speed>
  <fix>3d</fix>
</trkpt>
<trkpt lat="33.8106172" lon="-118.393563">
  <ele>-4.39</ele>
  <time>2026-09-02T22:09:20Z</time>
  <course>73.79</course>
  <speed>0.0</speed>
  <fix>3d</fix>
</trkpt>
<trkpt lat="33.8106171" lon="-118.3935628">
  <ele>-5.101</ele>
  <time>2026-09-02T22:09:20Z</time>
  <course>155.73</course>
  <speed>0.03</speed>
  <fix>3d</fix>
</trkpt>
<trkpt lat="33.8106171" lon="-118.3935628">
  <ele>-5.148</ele>
  <time>2026-09-02T22:09:20Z</time>
  <course>155.72</course>
  <speed>0.03</speed>
  <fix>3d</fix>
</trkpt>
<trkpt lat="33.8106172" lon="-118.393563">
  <ele>-4.39</ele>
  <time>2026-09-02T22:09:20Z</time>
  <course>73.79</course>
  <speed>0.0</speed>
  <fix>3d</fix>
</trkpt>
<trkpt lat="33.8106171" lon="-118.3935628">
  <ele>-5.168</ele>
  <time>2026-09-02T22:09:20Z</time>
  <course>155.72</course>
  <speed>0.03</speed>
  <fix>3d</fix>
</trkpt>
<trkpt lat="33.8106171" lon="-118.3935628">
  <ele>-5.214</ele>
  <time>2026-09-02T22:09:20Z</time>
  <course>155.72</course>
  <speed>0.03</speed>
  <fix>3d</fix>
</trkpt>
<trkpt lat="33.8106172" lon="-118.393563">
  <ele>-4.51</ele>
  <time>2026-09-02T22:09:20Z</time>
  <course>73.7</course>
  <speed>0.0</speed>
  <fix>3d</fix>
</trkpt>
<trkpt lat="33.8106171" lon="-118.3935628">
  <ele>-5.235</ele>
  <time>2026-09-02T22:09:20Z</time>
  <course>155.72</course>
  <speed>0.03</speed>
  <fix>3d</fix>
</trkpt>
<trkpt lat="33.8106171" lon="-118.3935628">
  <ele>-5.282</ele>
  <time>2026-09-02T22:09:20Z</time>
  <course>155.71</course>
  <speed>0.03</speed>
  <fix>3d</fix>
</trkpt>
<trkpt lat="33.8106172" lon="-118.393563">
  <ele>-4.51</ele>
  <time>2026-09-02T22:09:20Z</time>
  <course>73.7</course>
  <speed>0.0</speed>
  <fix>3d</fix>
</trkpt>
<trkpt lat="33.8106171" lon="-118.3935628">
  <ele>-5.302</ele>
  <time>2026-09-02T22:09:20Z</time>
  <course>155.71</course>
  <speed>0.03</speed>
  <fix>3d</fix>
</trkpt>
<trkpt lat="33.8106171" lon="-118.3935628">
  <ele>-5.35</ele>
  <time>2026-09-02T22:09:20Z</time>
  <course>155.71</course>
  <speed>0.03</speed>
  <fix>3d</fix>
</trkpt>
<trkpt lat="33.8106172" lon="-118.393563">
  <ele>-4.64</ele>
  <time>2026-09-02T22:09:20Z</time>
  <course>73.58</course>
  <speed>0.0</speed>
  <fix>3d</fix>
</trkpt>
<trkpt lat="33.8106171" lon="-118.3935628">
  <ele>-5.351</ele>
  <time>2026-09-02T22:09:20Z</time>
  <course>155.71</course>
  <speed>0.03</speed>
  <fix>3d</fix>
</trkpt>
<trkpt lat="33.8106171" lon="-118.3935628">
  <ele>-5.419</ele>
  <time>2026-09-02T22:09:20Z</time>
  <course>155.7</course>
  <speed>0.03</speed>
  <fix>3d</fix>
</trkpt>
<trkpt lat="33.8106172" lon="-118.393563">
  <ele>-4.64</ele>
  <time>2026-09-02T22:09:20Z</time>
  <course>73.58</course>
  <speed>0.0</speed>
  <fix>3d</fix>
</trkpt>
<trkpt lat="33.8106171" lon="-118.3935627">
  <ele>-5.441</ele>
  <time>2026-09-02T22:09:20Z</time>
  <course>155.7</course>
  <speed>0.03</speed>
  <fix>3d</fix>
</trkpt>
<trkpt lat="33.8106171" lon="-118.3935627">
  <ele>-5.487</ele>
  <time>2026-09-02T22:09:20Z</time>
  <course>155.7</course>
  <speed>0.03</speed>
  <fix>3d</fix>
</trkpt>
<trkpt lat="33.8106172" lon="-118.3935629">
  <ele>-4.77</ele>
  <time>2026-09-02T22:09:20Z</time>
  <course>73.45</course>
  <speed>0.0</speed>
  <fix>3d</fix>
</trkpt>
<trkpt lat="33.8106171" lon="-118.3935627">
  <ele>-5.507</ele>
  <time>2026-09-02T22:09:20Z</time>
  <course>155.69</course>
  <speed>0.03</speed>
  <fix>3d</fix>
</trkpt>
<trkpt lat="33.8106171" lon="-118.3935627">
  <ele>-5.555</ele>
  <time>2026-09-02T22:09:20Z</time>
  <course>155.69</course>
  <speed>0.03</speed>
  <fix>3d</fix>
</trkpt>
<trkpt lat="33.8106172" lon="-118.3935629">
  <ele>-4.77</ele>
  <time>2026-09-02T22:09:20Z</time>
  <course>73.45</course>
  <speed>0.0</speed>
  <fix>3d</fix>
</trkpt>
<trkpt lat="33.8106171" lon="-118.3935627">
  <ele>-5.619</ele>
  <time>2026-09-02T22:09:20Z</time>
  <course>155.68</course>
  <speed>0.03</speed>
  <fix>3d</fix>
</trkpt>
<trkpt lat="33.8106172" lon="-118.3935629">
  <ele>-4.91</ele>
  <time>2026-09-02T22:09:20Z</time>
  <course>73.32</course>
  <speed>0.0</speed>
  <fix>3d</fix>
</trkpt>
<trkpt lat="33.8106171" lon="-118.3935627">
  <ele>-5.674</ele>
  <time>2026-09-02T22:09:20Z</time>
  <course>155.68</course>
  <speed>0.03</speed>
  <fix>3d</fix>
</trkpt>
<trkpt lat="33.8106172" lon="-118.3935629">
  <ele>-4.91</ele>
  <time>2026-09-02T22:09:20Z</time>
  <course>73.32</course>
  <speed>0.0</speed>
  <fix>3d</fix>
</trkpt>
<trkpt lat="33.8106171" lon="-118.3935627">
  <ele>-5.714</ele>
  <time>2026-09-02T22:09:20Z</time>
  <course>155.67</course>
  <speed>0.03</speed>
  <fix>3d</fix>
</trkpt>
<trkpt lat="33.8106172" lon="-118.3935629">
  <ele>-5.03</ele>
  <time>2026-09-02T22:09:20Z</time>
  <course>73.33</course>
  <speed>0.0</speed>
  <fix>3d</fix>
</trkpt>
<trkpt lat="33.8106171" lon="-118.3935627">
  <ele>-5.741</ele>
  <time>2026-09-02T22:09:20Z</time>
  <course>155.67</course>
  <speed>0.03</speed>
  <fix>3d</fix>
</trkpt>
<trkpt lat="33.8106172" lon="-118.3935629">
  <ele>-5.03</ele>
  <time>2026-09-02T22:09:20Z</time>
  <course>73.33</course>
  <speed>0.0</speed>
  <fix>3d</fix>
</trkpt>
<trkpt lat="33.8106171" lon="-118.3935627">
  <ele>-5.758</ele>
  <time>2026-09-02T22:09:20Z</time>
  <course>155.66</course>
  <speed>0.03</speed>
  <fix>3d</fix>
</trkpt>
<trkpt lat="33.8106172" lon="-118.3935629">
  <ele>-5.12</ele>
  <time>2026-09-02T22:09:20Z</time>
  <course>73.46</course>
  <speed>0.0</speed>
  <fix>3d</fix>
</trkpt>
<trkpt lat="33.8106171" lon="-118.3935627">
  <ele>-5.769</ele>
  <time>2026-09-02T22:09:20Z</time>
  <course>155.66</course>
  <speed>0.03</speed>
  <fix>3d</fix>
</trkpt>
<trkpt lat="33.8106172" lon="-118.3935629">
  <ele>-5.12</ele>
  <time>2026-09-02T22:09:20Z</time>
  <course>73.46</course>
  <speed>0.0</speed>
  <fix>3d</fix>
</trkpt>
<trkpt lat="33.8106171" lon="-118.3935627">
  <ele>-5.775</ele>
  <time>2026-09-02T22:09:20Z</time>
  <course>155.65</course>
  <speed>0.03</speed>
  <fix>3d</fix>
</trkpt>
<trkpt lat="33.8106172" lon="-118.3935629">
  <ele>-5.16</ele>
  <time>2026-09-02T22:09:20Z</time>
  <course>73.55</course>
  <speed>0.0</speed>
  <fix>3d</fix>
</trkpt>
<trkpt lat="33.8106171" lon="-118.3935627">
  <ele>-5.778</ele>
  <time>2026-09-02T22:09:20Z</time>
  <course>155.64</course>
  <speed>0.03</speed>
  <fix>3d</fix>
</trkpt>
<trkpt lat="33.8106172" lon="-118.3935629">
  <ele>-5.16</ele>
  <time>2026-09-02T22:09:20Z</time>
  <course>73.55</course>
  <speed>0.0</speed>
  <fix>3d</fix>
</trkpt>
<trkpt lat="33.8106171" lon="-118.3935626">
  <ele>-5.779</ele>
  <time>2026-09-02T22:09:20Z</time>
  <course>155.64</course>
  <speed>0.03</speed>
  <fix>3d</fix>
</trkpt>
<trkpt lat="33.8106173" lon="-118.3935628">
  <ele>-5.18</ele>
  <time>2026-09-02T22:09:20Z</time>
  <course>73.59</course>
  <speed>0.0</speed>
  <fix>3d</fix>
</trkpt>
<trkpt lat="33.8106171" lon="-118.3935626">
  <ele>-5.78</ele>
  <time>2026-09-02T22:09:20Z</time>
  <course>155.63</course>
  <speed>0.03</speed>
  <fix>3d</fix>
</trkpt>
<trkpt lat="33.8106173" lon="-118.3935628">
  <ele>-5.18</ele>
  <time>2026-09-02T22:09:20Z</time>
  <course>73.59</course>
  <speed>0.0</speed>
  <fix>3d</fix>
</trkpt>
<trkpt lat="33.8106171" lon="-118.3935626">
  <ele>-5.781</ele>
  <time>2026-09-02T22:09:20Z</time>
  <course>155.63</course>
  <speed>0.03</speed>
  <fix>3d</fix>
</trkpt>
<trkpt lat="33.8106174" lon="-118.3935628">
  <ele>-5.2</ele>
  <time>2026-09-02T22:09:20Z</time>
  <course>73.55</course>
  <speed>0.0</speed>
  <fix>3d</fix>
</trkpt>
<trkpt lat="33.8106171" lon="-118.3935626">
  <ele>-5.783</ele>
  <time>2026-09-02T22:09:20Z</time>
  <course>155.62</course>
  <speed>0.03</speed>
  <fix>3d</fix>
</trkpt>
<trkpt lat="33.8106174" lon="-118.3935628">
  <ele>-5.2</ele>
  <time>2026-09-02T22:09:20Z</time>
  <course>73.55</course>
  <speed>0.0</speed>
  <fix>3d</fix>
</trkpt>
<trkpt lat="33.8106171" lon="-118.3935626">
  <ele>-5.784</ele>
  <time>2026-09-02T22:09:20Z</time>
  <course>155.61</course>
  <speed>0.03</speed>
  <fix>3d</fix>
</trkpt>
<trkpt lat="33.8106174" lon="-118.3935628">
  <ele>-5.21</ele>
  <time>2026-09-02T22:09:20Z</time>
  <course>73.43</course>
  <speed>0.0</speed>
  <fix>3d</fix>
</trkpt>
<trkpt lat="33.8106171" lon="-118.3935626">
  <ele>-5.784</ele>
  <time>2026-09-02T22:09:20Z</time>
  <course>155.61</course>
  <speed>0.03</speed>
  <fix>3d</fix>
</trkpt>
<trkpt lat="33.8106174" lon="-118.3935628">
  <ele>-5.21</ele>
  <time>2026-09-02T22:09:20Z</time>
  <course>73.43</course>
  <speed>0.0</speed>
  <fix>3d</fix>
</trkpt>
<trkpt lat="33.8106172" lon="-118.3935626">
  <ele>-5.783</ele>
  <time>2026-09-02T22:09:20Z</time>
  <course>155.6</course>
  <speed>0.03</speed>
  <fix>3d</fix>
</trkpt>
<trkpt lat="33.8106174" lon="-118.3935628">
  <ele>-5.22</ele>
  <time>2026-09-02T22:09:20Z</time>
  <course>73.31</course>
  <speed>0.0</speed>
  <fix>3d</fix>
</trkpt>
<trkpt lat="33.8106172" lon="-118.3935626">
  <ele>-5.782</ele>
  <time>2026-09-02T22:09:20Z</time>
  <course>155.59</course>
  <speed>0.03</speed>
  <fix>3d</fix>
</trkpt>
<trkpt lat="33.8106174" lon="-118.3935628">
  <ele>-5.22</ele>
  <time>2026-09-02T22:09:20Z</time>
  <course>73.31</course>
  <speed>0.0</speed>
  <fix>3d</fix>
</trkpt>
<trkpt lat="33.8106172" lon="-118.3935626">
  <ele>-5.782</ele>
  <time>2026-09-02T22:09:20Z</time>
  <course>155.59</course>
  <speed>0.03</speed>
  <fix>3d</fix>
</trkpt>
<trkpt lat="33.8106174" lon="-118.3935628">
  <ele>-5.23</ele>
  <time>2026-09-02T22:09:20Z</time>
  <course>73.24</course>
  <speed>0.0</speed>
  <fix>3d</fix>
</trkpt>
<trkpt lat="33.8106172" lon="-118.3935626">
  <ele>-5.784</ele>
  <time>2026-09-02T22:09:20Z</time>
  <course>155.58</course>
  <speed>0.03</speed>
  <fix>3d</fix>
</trkpt>
<trkpt lat="33.8106174" lon="-118.3935628">
  <ele>-5.23</ele>
  <time>2026-09-02T22:09:20Z</time>
  <course>73.24</course>
  <speed>0.0</speed>
  <fix>3d</fix>
</trkpt>
<trkpt lat="33.8106172" lon="-118.3935625">
  <ele>-5.786</ele>
  <time>2026-09-02T22:09:20Z</time>
  <course>155.58</course>
  <speed>0.03</speed>
  <fix>3d</fix>
</trkpt>
<trkpt lat="33.8106174" lon="-118.3935627">
  <ele>-5.23</ele>
  <time>2026-09-02T22:09:20Z</time>
  <course>73.21</course>
  <speed>0.0</speed>
  <fix>3d</fix>
</trkpt>
<trkpt lat="33.8106172" lon="-118.3935625">
  <ele>-5.788</ele>
  <time>2026-09-02T22:09:20Z</time>
  <course>155.57</course>
  <speed>0.03</speed>
  <fix>3d</fix>
</trkpt>
<trkpt lat="33.8106174" lon="-118.3935627">
  <ele>-5.23</ele>
  <time>2026-09-02T22:09:20Z</time>
  <course>73.21</course>
  <speed>0.0</speed>
  <fix>3d</fix>
</trkpt>
<trkpt lat="33.8106172" lon="-118.3935625">
  <ele>-5.79</ele>
  <time>2026-09-02T22:09:20Z</time>
  <course>155.56</course>
  <speed>0.03</speed>
  <fix>3d</fix>
</trkpt>
<trkpt lat="33.8106174" lon="-118.3935627">
  <ele>-5.24</ele>
  <time>2026-09-02T22:09:20Z</time>
  <course>73.19</course>
  <speed>0.0</speed>
  <fix>3d</fix>
</trkpt>
<trkpt lat="33.8106172" lon="-118.3935625">
  <ele>-5.791</ele>
  <time>2026-09-02T22:09:20Z</time>
  <course>155.56</course>
  <speed>0.03</speed>
  <fix>3d</fix>
</trkpt>
<trkpt lat="33.8106174" lon="-118.3935627">
  <ele>-5.24</ele>
  <time>2026-09-02T22:09:20Z</time>
  <course>73.19</course>
  <speed>0.0</speed>
  <fix>3d</fix>
</trkpt>
<trkpt lat="33.8106172" lon="-118.3935625">
  <ele>-5.793</ele>
  <time>2026-09-02T22:09:20Z</time>
  <course>155.55</course>
  <speed>0.03</speed>
  <fix>3d</fix>
</trkpt>
<trkpt lat="33.8106174" lon="-118.3935627">
  <ele>-5.25</ele>
  <time>2026-09-02T22:09:20Z</time>
  <course>73.15</course>
  <speed>0.0</speed>
  <fix>3d</fix>
</trkpt>
<trkpt lat="33.8106173" lon="-118.3935625">
  <ele>-5.794</ele>
  <time>2026-09-02T22:09:20Z</time>
  <course>155.55</course>
  <speed>0.03</speed>
  <fix>3d</fix>
</trkpt>
<trkpt lat="33.8106174" lon="-118.3935627">
  <ele>-5.25</ele>
  <time>2026-09-02T22:09:20Z</time>
  <course>73.15</course>
  <speed>0.0</speed>
  <fix>3d</fix>
</trkpt>
<trkpt lat="33.8106173" lon="-118.3935625">
  <ele>-5.794</ele>
  <time>2026-09-02T22:09:20Z</time>
  <course>155.54</course>
  <speed>0.03</speed>
  <fix>3d</fix>
</trkpt>
<trkpt lat="33.8106174" lon="-118.3935627">
  <ele>-5.26</ele>
  <time>2026-09-02T22:09:20Z</time>
  <course>73.09</course>
  <speed>0.0</speed>
  <fix>3d</fix>
</trkpt>
<trkpt lat="33.8106173" lon="-118.3935625">
  <ele>-5.794</ele>
  <time>2026-09-02T22:09:20Z</time>
  <course>155.54</course>
  <speed>0.03</speed>
  <fix>3d</fix>
</trkpt>
<trkpt lat="33.8106174" lon="-118.3935627">
  <ele>-5.26</ele>
  <time>2026-09-02T22:09:20Z</time>
  <course>73.09</course>
  <speed>0.0</speed>
  <fix>3d</fix>
</trkpt>
<trkpt lat="33.8106173" lon="-118.3935625">
  <ele>-5.794</ele>
  <time>2026-09-02T22:09:20Z</time>
  <course>155.53</course>
  <speed>0.03</speed>
  <fix>3d</fix>
</trkpt>
<trkpt lat="33.8106174" lon="-118.3935627">
  <ele>-5.27</ele>
  <time>2026-09-02T22:09:20Z</time>
  <course>72.99</course>
  <speed>0.0</speed>
  <fix>3d</fix>
</trkpt>
<trkpt lat="33.8106173" lon="-118.3935625">
  <ele>-5.794</ele>
  <time>2026-09-02T22:09:20Z</time>
  <course>155.53</course>
  <speed>0.03</speed>
  <fix>3d</fix>
</trkpt>
<trkpt lat="33.8106174" lon="-118.3935627">
  <ele>-5.27</ele>
  <time>2026-09-02T22:09:20Z</time>
  <course>72.99</course>
  <speed>0.0</speed>
  <fix>3d</fix>
</trkpt>
<trkpt lat="33.8106173" lon="-118.3935624">
  <ele>-5.795</ele>
  <time>2026-09-02T22:09:20Z</time>
  <course>155.52</course>
  <speed>0.03</speed>
  <fix>3d</fix>
</trkpt>
<trkpt lat="33.8106174" lon="-118.3935626">
  <ele>-5.27</ele>
  <time>2026-09-02T22:09:20Z</time>
  <course>72.9</course>
  <speed>0.0</speed>
  <fix>3d</fix>
</trkpt>
<trkpt lat="33.8106173" lon="-118.3935624">
  <ele>-5.795</ele>
  <time>2026-09-02T22:09:20Z</time>
  <course>155.52</course>
  <speed>0.03</speed>
  <fix>3d</fix>
</trkpt>
<trkpt lat="33.8106174" lon="-118.3935626">
  <ele>-5.27</ele>
  <time>2026-09-02T22:09:20Z</time>
  <course>72.9</course>
  <speed>0.0</speed>
  <fix>3d</fix>
</trkpt>
<trkpt lat="33.8106173" lon="-118.3935624">
  <ele>-5.796</ele>
  <time>2026-09-02T22:09:20Z</time>
  <course>155.51</course>
  <speed>0.03</speed>
  <fix>3d</fix>
</trkpt>
<trkpt lat="33.8106174" lon="-118.3935626">
  <ele>-5.27</ele>
  <time>2026-09-02T22:09:20Z</time>
  <course>72.86</course>
  <speed>0.0</speed>
  <fix>3d</fix>
</trkpt>
<trkpt lat="33.8106173" lon="-118.3935624">
  <ele>-5.797</ele>
  <time>2026-09-02T22:09:20Z</time>
  <course>155.51</course>
  <speed>0.03</speed>
  <fix>3d</fix>
</trkpt>
<trkpt lat="33.8106174" lon="-118.3935626">
  <ele>-5.27</ele>
  <time>2026-09-02T22:09:20Z</time>
  <course>72.86</course>
  <speed>0.0</speed>
  <fix>3d</fix>
</trkpt>
<trkpt lat="33.8106173" lon="-118.3935624">
  <ele>-5.797</ele>
  <time>2026-09-02T22:09:20Z</time>
  <course>155.5</course>
  <speed>0.03</speed>
  <fix>3d</fix>
</trkpt>
<trkpt lat="33.8106174" lon="-118.3935626">
  <ele>-5.27</ele>
  <time>2026-09-02T22:09:20Z</time>
  <course>72.85</course>
  <speed>0.0</speed>
  <fix>3d</fix>
</trkpt>
<trkpt lat="33.8106173" lon="-118.3935624">
  <ele>-5.798</ele>
  <time>2026-09-02T22:09:20Z</time>
  <course>155.5</course>
  <speed>0.03</speed>
  <fix>3d</fix>
</trkpt>
<trkpt lat="33.8106174" lon="-118.3935626">
  <ele>-5.27</ele>
  <time>2026-09-02T22:09:20Z</time>
  <course>72.85</course>
  <speed>0.0</speed>
  <fix>3d</fix>
</trkpt>
<trkpt lat="33.8106173" lon="-118.3935624">
  <ele>-5.799</ele>
  <time>2026-09-02T22:09:20Z</time>
  <course>155.49</course>
  <speed>0.03</speed>
  <fix>3d</fix>
</trkpt>
<trkpt lat="33.8106174" lon="-118.3935626">
  <ele>-5.28</ele>
  <time>2026-09-02T22:09:20Z</time>
  <course>72.85</course>
  <speed>0.0</speed>
  <fix>3d</fix>
</trkpt>
<trkpt lat="33.8106173" lon="-118.3935624">
  <ele>-5.801</ele>
  <time>2026-09-02T22:09:20Z</time>
  <course>155.49</course>
  <speed>0.03</speed>
  <fix>3d</fix>
</trkpt>
<trkpt lat="33.8106174" lon="-118.3935626">
  <ele>-5.28</ele>
  <time>2026-09-02T22:09:20Z</time>
  <course>72.85</course>
  <speed>0.0</speed>
  <fix>3d</fix>
</trkpt>
<trkpt lat="33.8106173" lon="-118.3935624">
  <ele>-5.802</ele>
  <time>2026-09-02T22:09:20Z</time>
  <course>155.5</course>
  <speed>0.03</speed>
  <fix>3d</fix>
</trkpt>
<trkpt lat="33.8106174" lon="-118.3935626">
  <ele>-5.28</ele>
  <time>2026-09-02T22:09:20Z</time>
  <course>72.82</course>
  <speed>0.0</speed>
  <fix>3d</fix>
</trkpt>
<trkpt lat="33.8106173" lon="-118.3935623">
  <ele>-5.803</ele>
  <time>2026-09-02T22:09:20Z</time>
  <course>155.52</course>
  <speed>0.03</speed>
  <fix>3d</fix>
</trkpt>
<trkpt lat="33.8106174" lon="-118.3935626">
  <ele>-5.28</ele>
  <time>2026-09-02T22:09:20Z</time>
  <course>72.82</course>
  <speed>0.0</speed>
  <fix>3d</fix>
</trkpt>
<trkpt lat="33.8106173" lon="-118.3935623">
  <ele>-5.803</ele>
  <time>2026-09-02T22:09:20Z</time>
  <course>155.54</course>
  <speed>0.03</speed>
  <fix>3d</fix>
</trkpt>
<trkpt lat="33.8106174" lon="-118.3935625">
  <ele>-5.28</ele>
  <time>2026-09-02T22:09:20Z</time>
  <course>72.75</course>
  <speed>0.0</speed>
  <fix>3d</fix>
</trkpt>
<trkpt lat="33.8106173" lon="-118.3935623">
  <ele>-5.802</ele>
  <time>2026-09-02T22:09:20Z</time>
  <course>155.56</course>
  <speed>0.03</speed>
  <fix>3d</fix>
</trkpt>
<trkpt lat="33.8106174" lon="-118.3935625">
  <ele>-5.28</ele>
  <time>2026-09-02T22:09:20Z</time>
  <course>72.75</course>
  <speed>0.0</speed>
  <fix>3d</fix>
</trkpt>
<trkpt lat="33.8106173" lon="-118.3935623">
  <ele>-5.8</ele>
  <time>2026-09-02T22:09:20Z</time>
  <course>155.58</course>
  <speed>0.03</speed>
  <fix>3d</fix>
</trkpt>
<trkpt lat="33.8106174" lon="-118.3935625">
  <ele>-5.27</ele>
  <time>2026-09-02T22:09:20Z</time>
  <course>72.66</course>
  <speed>0.0</speed>
  <fix>3d</fix>
</trkpt>
<trkpt lat="33.8106173" lon="-118.3935623">
  <ele>-5.799</ele>
  <time>2026-09-02T22:09:20Z</time>
  <course>155.59</course>
  <speed>0.03</speed>
  <fix>3d</fix>
</trkpt>
<trkpt lat="33.8106174" lon="-118.3935625">
  <ele>-5.27</ele>
  <time>2026-09-02T22:09:20Z</time>
  <course>72.66</course>
  <speed>0.0</speed>
  <fix>3d</fix>
</trkpt>
<trkpt lat="33.8106173" lon="-118.3935623">
  <ele>-5.799</ele>
  <time>2026-09-02T22:09:20Z</time>
  <course>155.61</course>
  <speed>0.03</speed>
  <fix>3d</fix>
</trkpt>
<trkpt lat="33.8106174" lon="-118.3935625">
  <ele>-5.27</ele>
  <time>2026-09-02T22:09:20Z</time>
  <course>72.59</course>
  <speed>0.0</speed>
  <fix>3d</fix>
</trkpt>
<trkpt lat="33.8106173" lon="-118.3935623">
  <ele>-5.798</ele>
  <time>2026-09-02T22:09:20Z</time>
  <course>155.63</course>
  <speed>0.03</speed>
  <fix>3d</fix>
</trkpt>
<trkpt lat="33.8106174" lon="-118.3935625">
  <ele>-5.27</ele>
  <time>2026-09-02T22:09:20Z</time>
  <course>72.59</course>
  <speed>0.0</speed>
  <fix>3d</fix>
</trkpt>
<trkpt lat="33.8106173" lon="-118.3935623">
  <ele>-5.797</ele>
  <time>2026-09-02T22:09:20Z</time>
  <course>155.66</course>
  <speed>0.03</speed>
  <fix>3d</fix>
</trkpt>
<trkpt lat="33.8106174" lon="-118.3935625">
  <ele>-5.26</ele>
  <time>2026-09-02T22:09:20Z</time>
  <course>72.56</course>
  <speed>0.01</speed>
  <fix>3d</fix>
</trkpt>
<trkpt lat="33.8106173" lon="-118.3935623">
  <ele>-5.795</ele>
  <time>2026-09-02T22:09:20Z</time>
  <course>155.68</course>
  <speed>0.03</speed>
  <fix>3d</fix>
</trkpt>
<trkpt lat="33.8106174" lon="-118.3935625">
  <ele>-5.26</ele>
  <time>2026-09-02T22:09:20Z</time>
  <course>72.56</course>
  <speed>0.01</speed>
  <fix>3d</fix>
</trkpt>
<trkpt lat="33.8106173" lon="-118.3935623">
  <ele>-5.795</ele>
  <time>2026-09-02T22:09:20Z</time>
  <course>155.7</course>
  <speed>0.03</speed>
  <fix>3d</fix>
</trkpt>
<trkpt lat="33.8106174" lon="-118.3935625">
  <ele>-5.26</ele>
  <time>2026-09-02T22:09:20Z</time>
  <course>72.56</course>
  <speed>0.01</speed>
  <fix>3d</fix>
</trkpt>
<trkpt lat="33.8106173" lon="-118.3935622">
  <ele>-5.795</ele>
  <time>2026-09-02T22:09:20Z</time>
  <course>155.72</course>
  <speed>0.03</speed>
  <fix>3d</fix>
</trkpt>
<trkpt lat="33.8106174" lon="-118.3935625">
  <ele>-5.26</ele>
  <time>2026-09-02T22:09:20Z</time>
  <course>72.56</course>
  <speed>0.01</speed>
  <fix>3d</fix>
</trkpt>
<trkpt lat="33.8106173" lon="-118.3935622">
  <ele>-5.796</ele>
  <time>2026-09-02T22:09:20Z</time>
  <course>155.75</course>
  <speed>0.03</speed>
  <fix>3d</fix>
</trkpt>
<trkpt lat="33.8106174" lon="-118.3935624">
  <ele>-5.26</ele>
  <time>2026-09-02T22:09:20Z</time>
  <course>72.55</course>
  <speed>0.01</speed>
  <fix>3d</fix>
</trkpt>
<trkpt lat="33.8106173" lon="-118.3935622">
  <ele>-5.796</ele>
  <time>2026-09-02T22:09:20Z</time>
  <course>155.77</course>
  <speed>0.03</speed>
  <fix>3d</fix>
</trkpt>
<trkpt lat="33.8106174" lon="-118.3935624">
  <ele>-5.26</ele>
  <time>2026-09-02T22:09:20Z</time>
  <course>72.55</course>
  <speed>0.01</speed>
  <fix>3d</fix>
</trkpt>
<trkpt lat="33.8106173" lon="-118.3935622">
  <ele>-5.796</ele>
  <time>2026-09-02T22:09:20Z</time>
  <course>155.79</course>
  <speed>0.03</speed>
  <fix>3d</fix>
</trkpt>
<trkpt lat="33.8106175" lon="-118.3935624">
  <ele>-5.26</ele>
  <time>2026-09-02T22:09:20Z</time>
  <course>72.49</course>
  <speed>0.01</speed>
  <fix>3d</fix>
</trkpt>
<trkpt lat="33.8106173" lon="-118.3935622">
  <ele>-5.797</ele>
  <time>2026-09-02T22:09:20Z</time>
  <course>155.81</course>
  <speed>0.03</speed>
  <fix>3d</fix>
</trkpt>
<trkpt lat="33.8106175" lon="-118.3935624">
  <ele>-5.26</ele>
  <time>2026-09-02T22:09:20Z</time>
  <course>72.49</course>
  <speed>0.01</speed>
  <fix>3d</fix>
</trkpt>
<trkpt lat="33.8106173" lon="-118.3935622">
  <ele>-5.794</ele>
  <time>2026-09-02T22:09:20Z</time>
  <course>155.87</course>
  <speed>0.03</speed>
  <fix>3d</fix>
</trkpt>
<trkpt lat="33.8106175" lon="-118.3935624">
  <ele>-5.26</ele>
  <time>2026-09-02T22:09:20Z</time>
  <course>72.41</course>
  <speed>0.01</speed>
  <fix>3d</fix>
</trkpt>
<trkpt lat="33.8106173" lon="-118.3935622">
  <ele>-5.785</ele>
  <time>2026-09-02T22:09:20Z</time>
  <course>155.98</course>
  <speed>0.03</speed>
  <fix>3d</fix>
</trkpt>
<trkpt lat="33.8106175" lon="-118.3935624">
  <ele>-5.26</ele>
  <time>2026-09-02T22:09:20Z</time>
  <course>72.41</course>
  <speed>0.01</speed>
  <fix>3d</fix>
</trkpt>
<trkpt lat="33.8106173" lon="-118.3935622">
  <ele>-5.77</ele>
  <time>2026-09-02T22:09:20Z</time>
  <course>156.1</course>
  <speed>0.03</speed>
  <fix>3d</fix>
</trkpt>
<trkpt lat="33.8106175" lon="-118.3935624">
  <ele>-5.25</ele>
  <time>2026-09-02T22:09:20Z</time>
  <course>72.4</course>
  <speed>0.01</speed>
  <fix>3d</fix>
</trkpt>
<trkpt lat="33.8106173" lon="-118.3935622">
  <ele>-5.751</ele>
  <time>2026-09-02T22:09:20Z</time>
  <course>156.22</course>
  <speed>0.03</speed>
  <fix>3d</fix>
</trkpt>
<trkpt lat="33.8106175" lon="-118.3935624">
  <ele>-5.25</ele>
  <time>2026-09-02T22:09:20Z</time>
  <course>72.4</course>
  <speed>0.01</speed>
  <fix>3d</fix>
</trkpt>
<trkpt lat="33.8106174" lon="-118.3935621">
  <ele>-5.728</ele>
  <time>2026-09-02T22:09:20Z</time>
  <course>156.32</course>
  <speed>0.03</speed>
  <fix>3d</fix>
</trkpt>
<trkpt lat="33.8106175" lon="-118.3935624">
  <ele>-5.22</ele>
  <time>2026-09-02T22:09:20Z</time>
  <course>72.45</course>
  <speed>0.01</speed>
  <fix>3d</fix>
</trkpt>
<trkpt lat="33.8106174" lon="-118.3935621">
  <ele>-5.702</ele>
  <time>2026-09-02T22:09:20Z</time>
  <course>156.4</course>
  <speed>0.03</speed>
  <fix>3d</fix>
</trkpt>
<trkpt lat="33.8106175" lon="-118.3935624">
  <ele>-5.22</ele>
  <time>2026-09-02T22:09:20Z</time>
  <course>72.45</course>
  <speed>0.01</speed>
  <fix>3d</fix>
</trkpt>
<trkpt lat="33.8106174" lon="-118.3935621">
  <ele>-5.674</ele>
  <time>2026-09-02T22:09:20Z</time>
  <course>156.47</course>
  <speed>0.03</speed>
  <fix>3d</fix>
</trkpt>
<trkpt lat="33.8106175" lon="-118.3935623">
  <ele>-5.18</ele>
  <time>2026-09-02T22:09:20Z</time>
  <course>72.55</course>
  <speed>0.01</speed>
  <fix>3d</fix>
</trkpt>
<trkpt lat="33.8106174" lon="-118.3935621">
  <ele>-5.644</ele>
  <time>2026-09-02T22:09:20Z</time>
  <course>156.54</course>
  <speed>0.03</speed>
  <fix>3d</fix>
</trkpt>
<trkpt lat="33.8106175" lon="-118.3935623">
  <ele>-5.18</ele>
  <time>2026-09-02T22:09:20Z</time>
  <course>72.55</course>
  <speed>0.01</speed>
  <fix>3d</fix>
</trkpt>
<trkpt lat="33.8106174" lon="-118.3935621">
  <ele>-5.614</ele>
  <time>2026-09-02T22:09:20Z</time>
  <course>156.6</course>
  <speed>0.03</speed>
  <fix>3d</fix>
</trkpt>
<trkpt lat="33.8106175" lon="-118.3935623">
  <ele>-5.13</ele>
  <time>2026-09-02T22:09:20Z</time>
  <course>72.7</course>
  <speed>0.0</speed>
  <fix>3d</fix>
</trkpt>
<trkpt lat="33.8106174" lon="-118.3935621">
  <ele>-5.584</ele>
  <time>2026-09-02T22:09:20Z</time>
  <course>156.66</course>
  <speed>0.03</speed>
  <fix>3d</fix>
</trkpt>
<trkpt lat="33.8106175" lon="-118.3935623">
  <ele>-5.13</ele>
  <time>2026-09-02T22:09:20Z</time>
  <course>72.7</course>
  <speed>0.0</speed>
  <fix>3d</fix>
</trkpt>
<trkpt lat="33.8106174" lon="-118.3935621">
  <ele>-5.552</ele>
  <time>2026-09-02T22:09:20Z</time>
  <course>156.71</course>
  <speed>0.03</speed>
  <fix>3d</fix>
</trkpt>
<trkpt lat="33.8106175" lon="-118.3935623">
  <ele>-5.07</ele>
  <time>2026-09-02T22:09:20Z</time>
  <course>72.83</course>
  <speed>0.0</speed>
  <fix>3d</fix>
</trkpt>
<trkpt lat="33.8106174" lon="-118.3935621">
  <ele>-5.521</ele>
  <time>2026-09-02T22:09:20Z</time>
  <course>156.76</course>
  <speed>0.03</speed>
  <fix>3d</fix>
</trkpt>
<trkpt lat="33.8106175" lon="-118.3935623">
  <ele>-5.07</ele>
  <time>2026-09-02T22:09:20Z</time>
  <course>72.83</course>
  <speed>0.0</speed>
  <fix>3d</fix>
</trkpt>
<trkpt lat="33.8106174" lon="-118.3935621">
  <ele>-5.49</ele>
  <time>2026-09-02T22:09:20Z</time>
  <course>156.81</course>
  <speed>0.03</speed>
  <fix>3d</fix>
</trkpt>
<trkpt lat="33.8106175" lon="-118.3935623">
  <ele>-5.02</ele>
  <time>2026-09-02T22:09:20Z</time>
  <course>72.85</course>
  <speed>0.0</speed>
  <fix>3d</fix>
</trkpt>
<trkpt lat="33.8106174" lon="-118.393562">
  <ele>-5.458</ele>
  <time>2026-09-02T22:09:20Z</time>
  <course>156.85</course>
  <speed>0.03</speed>
  <fix>3d</fix>
</trkpt>
<trkpt lat="33.8106175" lon="-118.3935623">
  <ele>-5.02</ele>
  <time>2026-09-02T22:09:20Z</time>
  <course>72.85</course>
  <speed>0.0</speed>
  <fix>3d</fix>
</trkpt>
<trkpt lat="33.8106174" lon="-118.393562">
  <ele>-5.427</ele>
  <time>2026-09-02T22:09:20Z</time>
  <course>156.89</course>
  <speed>0.03</speed>
  <fix>3d</fix>
</trkpt>
<trkpt lat="33.8106175" lon="-118.3935623">
  <ele>-4.96</ele>
  <time>2026-09-02T22:09:20Z</time>
  <course>72.78</course>
  <speed>0.0</speed>
  <fix>3d</fix>
</trkpt>
<trkpt lat="33.8106174" lon="-118.393562">
  <ele>-5.395</ele>
  <time>2026-09-02T22:09:20Z</time>
  <course>156.93</course>
  <speed>0.03</speed>
  <fix>3d</fix>
</trkpt>
<trkpt lat="33.8106175" lon="-118.3935623">
  <ele>-4.96</ele>
  <time>2026-09-02T22:09:20Z</time>
  <course>72.78</course>
  <speed>0.0</speed>
  <fix>3d</fix>
</trkpt>
<trkpt lat="33.8106174" lon="-118.393562">
  <ele>-5.363</ele>
  <time>2026-09-02T22:09:20Z</time>
  <course>156.97</course>
  <speed>0.03</speed>
  <fix>3d</fix>
</trkpt>
<trkpt lat="33.8106175" lon="-118.3935622">
  <ele>-4.89</ele>
  <time>2026-09-02T22:09:20Z</time>
  <course>72.74</course>
  <speed>0.0</speed>
  <fix>3d</fix>
</trkpt>
<trkpt lat="33.8106174" lon="-118.393562">
  <ele>-5.332</ele>
  <time>2026-09-02T22:09:20Z</time>
  <course>157.01</course>
  <speed>0.03</speed>
  <fix>3d</fix>
</trkpt>
<trkpt lat="33.8106175" lon="-118.3935622">
  <ele>-4.89</ele>
  <time>2026-09-02T22:09:20Z</time>
  <course>72.74</course>
  <speed>0.0</speed>
  <fix>3d</fix>
</trkpt>
<trkpt lat="33.8106174" lon="-118.393562">
  <ele>-5.3</ele>
  <time>2026-09-02T22:09:20Z</time>
  <course>157.04</course>
  <speed>0.03</speed>
  <fix>3d</fix>
</trkpt>
<trkpt lat="33.8106175" lon="-118.3935622">
  <ele>-4.84</ele>
  <time>2026-09-02T22:09:20Z</time>
  <course>72.79</course>
  <speed>0.0</speed>
  <fix>3d</fix>
</trkpt>
<trkpt lat="33.8106174" lon="-118.393562">
  <ele>-5.268</ele>
  <time>2026-09-02T22:09:20Z</time>
  <course>157.07</course>
  <speed>0.03</speed>
  <fix>3d</fix>
</trkpt>
<trkpt lat="33.8106175" lon="-118.3935622">
  <ele>-4.84</ele>
  <time>2026-09-02T22:09:20Z</time>
  <course>72.79</course>
  <speed>0.0</speed>
  <fix>3d</fix>
</trkpt>
<trkpt lat="33.8106174" lon="-118.393562">
  <ele>-5.236</ele>
  <time>2026-09-02T22:09:20Z</time>
  <course>157.1</course>
  <speed>0.03</speed>
  <fix>3d</fix>
</trkpt>
<trkpt lat="33.8106175" lon="-118.3935622">
  <ele>-4.77</ele>
  <time>2026-09-02T22:09:20Z</time>
  <course>72.95</course>
  <speed>0.0</speed>
  <fix>3d</fix>
</trkpt>
<trkpt lat="33.8106174" lon="-118.393562">
  <ele>-5.204</ele>
  <time>2026-09-02T22:09:20Z</time>
  <course>157.13</course>
  <speed>0.03</speed>
  <fix>3d</fix>
</trkpt>
<trkpt lat="33.8106175" lon="-118.3935622">
  <ele>-4.77</ele>
  <time>2026-09-02T22:09:20Z</time>
  <course>72.95</course>
  <speed>0.0</speed>
  <fix>3d</fix>
</trkpt>
<trkpt lat="33.8106174" lon="-118.393562">
  <ele>-5.177</ele>
  <time>2026-09-02T22:09:20Z</time>
  <course>157.16</course>
  <speed>0.03</speed>
  <fix>3d</fix>
</trkpt>
<trkpt lat="33.8106175" lon="-118.3935622">
  <ele>-4.72</ele>
  <time>2026-09-02T22:09:20Z</time>
  <course>73.13</course>
  <speed>0.0</speed>
  <fix>3d</fix>
</trkpt>
<trkpt lat="33.8106174" lon="-118.3935619">
  <ele>-5.152</ele>
  <time>2026-09-02T22:09:20Z</time>
  <course>157.19</course>
  <speed>0.03</speed>
  <fix>3d</fix>
</trkpt>
<trkpt lat="33.8106175" lon="-118.3935622">
  <ele>-4.72</ele>
  <time>2026-09-02T22:09:20Z</time>
  <course>73.13</course>
  <speed>0.0</speed>
  <fix>3d</fix>
</trkpt>
<trkpt lat="33.8106174" lon="-118.3935619">
  <ele>-5.13</ele>
  <time>2026-09-02T22:09:20Z</time>
  <course>157.22</course>
  <speed>0.03</speed>
  <fix>3d</fix>
</trkpt>
<trkpt lat="33.8106175" lon="-118.3935622">
  <ele>-4.67</ele>
  <time>2026-09-02T22:09:20Z</time>
  <course>73.24</course>
  <speed>0.0</speed>
  <fix>3d</fix>
</trkpt>
<trkpt lat="33.8106174" lon="-118.3935619">
  <ele>-5.111</ele>
  <time>2026-09-02T22:09:20Z</time>
  <course>157.25</course>
  <speed>0.03</speed>
  <fix>3d</fix>
</trkpt>
<trkpt lat="33.8106175" lon="-118.3935622">
  <ele>-4.67</ele>
  <time>2026-09-02T22:09:20Z</time>
  <course>73.24</course>
  <speed>0.0</speed>
  <fix>3d</fix>
</trkpt>
<trkpt lat="33.8106174" lon="-118.3935619">
  <ele>-5.094</ele>
  <time>2026-09-02T22:09:20Z</time>
  <course>157.27</course>
  <speed>0.03</speed>
  <fix>3d</fix>
</trkpt>
<trkpt lat="33.8106175" lon="-118.3935621">
  <ele>-4.63</ele>
  <time>2026-09-02T22:09:20Z</time>
  <course>73.27</course>
  <speed>0.0</speed>
  <fix>3d</fix>
</trkpt>
<trkpt lat="33.8106174" lon="-118.3935619">
  <ele>-5.08</ele>
  <time>2026-09-02T22:09:20Z</time>
  <course>157.3</course>
  <speed>0.03</speed>
  <fix>3d</fix>
</trkpt>
<trkpt lat="33.8106175" lon="-118.3935621">
  <ele>-4.63</ele>
  <time>2026-09-02T22:09:20Z</time>
  <course>73.27</course>
  <speed>0.0</speed>
  <fix>3d</fix>
</trkpt>
<trkpt lat="33.8106174" lon="-118.3935619">
  <ele>-5.066</ele>
  <time>2026-09-02T22:09:20Z</time>
  <course>157.32</course>
  <speed>0.03</speed>
  <fix>3d</fix>
</trkpt>
<trkpt lat="33.8106175" lon="-118.3935621">
  <ele>-4.59</ele>
  <time>2026-09-02T22:09:20Z</time>
  <course>73.28</course>
  <speed>0.0</speed>
  <fix>3d</fix>
</trkpt>
<trkpt lat="33.8106174" lon="-118.3935619">
  <ele>-5.053</ele>
  <time>2026-09-02T22:09:20Z</time>
  <course>157.34</course>
  <speed>0.03</speed>
  <fix>3d</fix>
</trkpt>
<trkpt lat="33.8106175" lon="-118.3935621">
  <ele>-4.59</ele>
  <time>2026-09-02T22:09:20Z</time>
  <course>73.28</course>
  <speed>0.0</speed>
  <fix>3d</fix>
</trkpt>
<trkpt lat="33.8106174" lon="-118.3935619">
  <ele>-5.005</ele>
  <time>2026-09-02T22:09:20Z</time>
  <course>157.43</course>
  <speed>0.03</speed>
  <fix>3d</fix>
</trkpt>
<trkpt lat="33.8106175" lon="-118.3935621">
  <ele>-4.53</ele>
  <time>2026-09-02T22:09:20Z</time>
  <course>73.36</course>
  <speed>0.0</speed>
  <fix>3d</fix>
</trkpt>
<trkpt lat="33.8106174" lon="-118.3935618">
  <ele>-4.971</ele>
  <time>2026-09-02T22:09:20Z</time>
  <course>157.5</course>
  <speed>0.03</speed>
  <fix>3d</fix>
</trkpt>
<trkpt lat="33.8106175" lon="-118.3935621">
  <ele>-4.49</ele>
  <time>2026-09-02T22:09:20Z</time>
  <course>73.51</course>
  <speed>0.0</speed>
  <fix>3d</fix>
</trkpt>
<trkpt lat="33.8106174" lon="-118.3935618">
  <ele>-4.961</ele>
  <time>2026-09-02T22:09:20Z</time>
  <course>157.52</course>
  <speed>0.03</speed>
  <fix>3d</fix>
</trkpt>
<trkpt lat="33.8106175" lon="-118.3935621">
  <ele>-4.49</ele>
  <time>2026-09-02T22:09:20Z</time>
  <course>73.51</course>
  <speed>0.0</speed>
  <fix>3d</fix>
</trkpt>
<trkpt lat="33.8106174" lon="-118.3935618">
  <ele>-4.952</ele>
  <time>2026-09-02T22:09:20Z</time>
  <course>157.54</course>
  <speed>0.03</speed>
  <fix>3d</fix>
</trkpt>
<trkpt lat="33.8106176" lon="-118.393562">
  <ele>-4.47</ele>
  <time>2026-09-02T22:09:20Z</time>
  <course>73.57</course>
  <speed>0.0</speed>
  <fix>3d</fix>
</trkpt>
<trkpt lat="33.8106174" lon="-118.3935618">
  <ele>-4.944</ele>
  <time>2026-09-02T22:09:20Z</time>
  <course>157.55</course>
  <speed>0.03</speed>
  <fix>3d</fix>
</trkpt>
<trkpt lat="33.8106176" lon="-118.393562">
  <ele>-4.47</ele>
  <time>2026-09-02T22:09:20Z</time>
  <course>73.57</course>
  <speed>0.0</speed>
  <fix>3d</fix>
</trkpt>
<trkpt lat="33.8106174" lon="-118.3935618">
  <ele>-4.936</ele>
  <time>2026-09-02T22:09:20Z</time>
  <course>157.57</course>
  <speed>0.03</speed>
  <fix>3d</fix>
</trkpt>
<trkpt lat="33.8106176" lon="-118.393562">
  <ele>-4.44</ele>
  <time>2026-09-02T22:09:20Z</time>
  <course>73.61</course>
  <speed>0.0</speed>
  <fix>3d</fix>
</trkpt>
<trkpt lat="33.8106174" lon="-118.3935618">
  <ele>-4.928</ele>
  <time>2026-09-02T22:09:20Z</time>
  <course>157.59</course>
  <speed>0.03</speed>
  <fix>3d</fix>
</trkpt>
<trkpt lat="33.8106176" lon="-118.393562">
  <ele>-4.44</ele>
  <time>2026-09-02T22:09:20Z</time>
  <course>73.61</course>
  <speed>0.0</speed>
  <fix>3d</fix>
</trkpt>
<trkpt lat="33.8106174" lon="-118.3935618">
  <ele>-4.921</ele>
  <time>2026-09-02T22:09:20Z</time>
  <course>157.61</course>
  <speed>0.03</speed>
  <fix>3d</fix>
</trkpt>
<trkpt lat="33.8106176" lon="-118.393562">
  <ele>-4.42</ele>
  <time>2026-09-02T22:09:20Z</time>
  <course>73.64</course>
  <speed>0.0</speed>
  <fix>3d</fix>
</trkpt>
<trkpt lat="33.8106174" lon="-118.3935618">
  <ele>-4.912</ele>
  <time>2026-09-02T22:09:20Z</time>
  <course>157.63</course>
  <speed>0.03</speed>
  <fix>3d</fix>
</trkpt>
<trkpt lat="33.8106176" lon="-118.393562">
  <ele>-4.42</ele>
  <time>2026-09-02T22:09:20Z</time>
  <course>73.64</course>
  <speed>0.0</speed>
  <fix>3d</fix>
</trkpt>
<trkpt lat="33.8106174" lon="-118.3935618">
  <ele>-4.904</ele>
  <time>2026-09-02T22:09:20Z</time>
  <course>157.65</course>
  <speed>0.03</speed>
  <fix>3d</fix>
</trkpt>
<trkpt lat="33.8106176" lon="-118.393562">
  <ele>-4.39</ele>
  <time>2026-09-02T22:09:20Z</time>
  <course>73.68</course>
  <speed>0.0</speed>
  <fix>3d</fix>
</trkpt>
<trkpt lat="33.8106174" lon="-118.3935618">
  <ele>-4.895</ele>
  <time>2026-09-02T22:09:20Z</time>
  <course>157.66</course>
  <speed>0.03</speed>
  <fix>3d</fix>
</trkpt>
<trkpt lat="33.8106176" lon="-118.393562">
  <ele>-4.39</ele>
  <time>2026-09-02T22:09:20Z</time>
  <course>73.68</course>
  <speed>0.0</speed>
  <fix>3d</fix>
</trkpt>
<trkpt lat="33.8106174" lon="-118.3935618">
  <ele>-4.886</ele>
  <time>2026-09-02T22:09:20Z</time>
  <course>157.68</course>
  <speed>0.03</speed>
  <fix>3d</fix>
</trkpt>
<trkpt lat="33.8106176" lon="-118.393562">
  <ele>-4.38</ele>
  <time>2026-09-02T22:09:20Z</time>
  <course>73.74</course>
  <speed>0.0</speed>
  <fix>3d</fix>
</trkpt>
<trkpt lat="33.8106174" lon="-118.3935618">
  <ele>-4.877</ele>
  <time>2026-09-02T22:09:20Z</time>
  <course>157.7</course>
  <speed>0.03</speed>
  <fix>3d</fix>
</trkpt>
<trkpt lat="33.8106176" lon="-118.393562">
  <ele>-4.38</ele>
  <time>2026-09-02T22:09:20Z</time>
  <course>73.74</course>
  <speed>0.0</speed>
  <fix>3d</fix>
</trkpt>
<trkpt lat="33.8106174" lon="-118.3935617">
  <ele>-4.869</ele>
  <time>2026-09-02T22:09:20Z</time>
  <course>157.72</course>
  <speed>0.03</speed>
  <fix>3d</fix>
</trkpt>
<trkpt lat="33.8106176" lon="-118.393562">
  <ele>-4.35</ele>
  <time>2026-09-02T22:09:20Z</time>
  <course>73.8</course>
  <speed>0.0</speed>
  <fix>3d</fix>
</trkpt>
<trkpt lat="33.8106174" lon="-118.3935617">
  <ele>-4.86</ele>
  <time>2026-09-02T22:09:20Z</time>
  <course>157.73</course>
  <speed>0.03</speed>
  <fix>3d</fix>
</trkpt>
<trkpt lat="33.8106176" lon="-118.393562">
  <ele>-4.35</ele>
  <time>2026-09-02T22:09:20Z</time>
  <course>73.8</course>
  <speed>0.0</speed>
  <fix>3d</fix>
</trkpt>
<trkpt lat="33.8106174" lon="-118.3935617">
  <ele>-4.851</ele>
  <time>2026-09-02T22:09:20Z</time>
  <course>157.75</course>
  <speed>0.03</speed>
  <fix>3d</fix>
</trkpt>
<trkpt lat="33.8106176" lon="-118.3935619">
  <ele>-4.34</ele>
  <time>2026-09-02T22:09:20Z</time>
  <course>73.87</course>
  <speed>0.0</speed>
  <fix>3d</fix>
</trkpt>
<trkpt lat="33.8106175" lon="-118.3935617">
  <ele>-4.842</ele>
  <time>2026-09-02T22:09:20Z</time>
  <course>157.76</course>
  <speed>0.03</speed>
  <fix>3d</fix>
</trkpt>
<trkpt lat="33.8106176" lon="-118.3935619">
  <ele>-4.34</ele>
  <time>2026-09-02T22:09:20Z</time>
  <course>73.87</course>
  <speed>0.0</speed>
  <fix>3d</fix>
</trkpt>
<trkpt lat="33.8106175" lon="-118.3935617">
  <ele>-4.832</ele>
  <time>2026-09-02T22:09:20Z</time>
  <course>157.78</course>
  <speed>0.03</speed>
  <fix>3d</fix>
</trkpt>
<trkpt lat="33.8106176" lon="-118.3935619">
  <ele>-4.31</ele>
  <time>2026-09-02T22:09:20Z</time>
  <course>73.92</course>
  <speed>0.0</speed>
  <fix>3d</fix>
</trkpt>
<trkpt lat="33.8106175" lon="-118.3935617">
  <ele>-4.821</ele>
  <time>2026-09-02T22:09:20Z</time>
  <course>157.8</course>
  <speed>0.03</speed>
  <fix>3d</fix>
</trkpt>
<trkpt lat="33.8106176" lon="-118.3935619">
  <ele>-4.31</ele>
  <time>2026-09-02T22:09:20Z</time>
  <course>73.92</course>
  <speed>0.0</speed>
  <fix>3d</fix>
</trkpt>
<trkpt lat="33.8106175" lon="-118.3935617">
  <ele>-4.809</ele>
  <time>2026-09-02T22:09:20Z</time>
  <course>157.81</course>
  <speed>0.03</speed>
  <fix>3d</fix>
</trkpt>
<trkpt lat="33.8106176" lon="-118.3935619">
  <ele>-4.3</ele>
  <time>2026-09-02T22:09:20Z</time>
  <course>73.96</course>
  <speed>0.0</speed>
  <fix>3d</fix>
</trkpt>
<trkpt lat="33.8106175" lon="-118.3935617">
  <ele>-4.798</ele>
  <time>2026-09-02T22:09:20Z</time>
  <course>157.83</course>
  <speed>0.03</speed>
  <fix>3d</fix>
</trkpt>
<trkpt lat="33.8106176" lon="-118.3935619">
  <ele>-4.3</ele>
  <time>2026-09-02T22:09:20Z</time>
  <course>73.96</course>
  <speed>0.0</speed>
  <fix>3d</fix>
</trkpt>
<trkpt lat="33.8106175" lon="-118.3935617">
  <ele>-4.788</ele>
  <time>2026-09-02T22:09:20Z</time>
  <course>157.84</course>
  <speed>0.03</speed>
  <fix>3d</fix>
</trkpt>
<trkpt lat="33.8106176" lon="-118.3935619">
  <ele>-4.28</ele>
  <time>2026-09-02T22:09:20Z</time>
  <course>73.99</course>
  <speed>0.0</speed>
  <fix>3d</fix>
</trkpt>
<trkpt lat="33.8106175" lon="-118.3935617">
  <ele>-4.777</ele>
  <time>2026-09-02T22:09:20Z</time>
  <course>157.86</course>
  <speed>0.03</speed>
  <fix>3d</fix>
</trkpt>
<trkpt lat="33.8106176" lon="-118.3935619">
  <ele>-4.28</ele>
  <time>2026-09-02T22:09:20Z</time>
  <course>73.99</course>
  <speed>0.0</speed>
  <fix>3d</fix>
</trkpt>
<trkpt lat="33.8106175" lon="-118.3935617">
  <ele>-4.766</ele>
  <time>2026-09-02T22:09:20Z</time>
  <course>157.87</course>
  <speed>0.03</speed>
  <fix>3d</fix>
</trkpt>
<trkpt lat="33.8106176" lon="-118.3935619">
  <ele>-4.27</ele>
  <time>2026-09-02T22:09:20Z</time>
  <course>74.03</course>
  <speed>0.0</speed>
  <fix>3d</fix>
</trkpt>
<trkpt lat="33.8106175" lon="-118.3935617">
  <ele>-4.755</ele>
  <time>2026-09-02T22:09:20Z</time>
  <course>157.89</course>
  <speed>0.03</speed>
  <fix>3d</fix>
</trkpt>
<trkpt lat="33.8106176" lon="-118.3935619">
  <ele>-4.27</ele>
  <time>2026-09-02T22:09:20Z</time>
  <course>74.03</course>
  <speed>0.0</speed>
  <fix>3d</fix>
</trkpt>
<trkpt lat="33.8106175" lon="-118.3935616">
  <ele>-4.744</ele>
  <time>2026-09-02T22:09:20Z</time>
  <course>157.9</course>
  <speed>0.03</speed>
  <fix>3d</fix>
</trkpt>
<trkpt lat="33.8106176" lon="-118.3935619">
  <ele>-4.25</ele>
  <time>2026-09-02T22:09:21Z</time>
  <course>74.09</course>
  <speed>0.0</speed>
  <fix>3d</fix>
</trkpt>
<trkpt lat="33.8106175" lon="-118.3935616">
  <ele>-4.734</ele>
  <time>2026-09-02T22:09:21Z</time>
  <course>157.91</course>
  <speed>0.03</speed>
  <fix>3d</fix>
</trkpt>
<trkpt lat="33.8106176" lon="-118.3935619">
  <ele>-4.25</ele>
  <time>2026-09-02T22:09:21Z</time>
  <course>74.09</course>
  <speed>0.0</speed>
  <fix>3d</fix>
</trkpt>
<trkpt lat="33.8106175" lon="-118.3935616">
  <ele>-4.723</ele>
  <time>2026-09-02T22:09:21Z</time>
  <course>157.93</course>
  <speed>0.03</speed>
  <fix>3d</fix>
</trkpt>
<trkpt lat="33.8106176" lon="-118.3935618">
  <ele>-4.22</ele>
  <time>2026-09-02T22:09:21Z</time>
  <course>74.16</course>
  <speed>0.0</speed>
  <fix>3d</fix>
</trkpt>
<trkpt lat="33.8106175" lon="-118.3935616">
  <ele>-4.712</ele>
  <time>2026-09-02T22:09:21Z</time>
  <course>157.94</course>
  <speed>0.03</speed>
  <fix>3d</fix>
</trkpt>
<trkpt lat="33.8106176" lon="-118.3935618">
  <ele>-4.22</ele>
  <time>2026-09-02T22:09:21Z</time>
  <course>74.16</course>
  <speed>0.0</speed>
  <fix>3d</fix>
</trkpt>
<trkpt lat="33.8106175" lon="-118.3935616">
  <ele>-4.701</ele>
  <time>2026-09-02T22:09:21Z</time>
  <course>157.96</course>
  <speed>0.03</speed>
  <fix>3d</fix>
</trkpt>
<trkpt lat="33.8106176" lon="-118.3935618">
  <ele>-4.21</ele>
  <time>2026-09-02T22:09:21Z</time>
  <course>74.22</course>
  <speed>0.0</speed>
  <fix>3d</fix>
</trkpt>
<trkpt lat="33.8106175" lon="-118.3935616">
  <ele>-4.69</ele>
  <time>2026-09-02T22:09:21Z</time>
  <course>157.97</course>
  <speed>0.03</speed>
  <fix>3d</fix>
</trkpt>
<trkpt lat="33.8106176" lon="-118.3935618">
  <ele>-4.21</ele>
  <time>2026-09-02T22:09:21Z</time>
  <course>74.22</course>
  <speed>0.0</speed>
  <fix>3d</fix>
</trkpt>
<trkpt lat="33.8106175" lon="-118.3935616">
  <ele>-4.679</ele>
  <time>2026-09-02T22:09:21Z</time>
  <course>157.98</course>
  <speed>0.03</speed>
  <fix>3d</fix>
</trkpt>
<trkpt lat="33.8106176" lon="-118.3935618">
  <ele>-4.18</ele>
  <time>2026-09-02T22:09:21Z</time>
  <course>74.26</course>
  <speed>0.0</speed>
  <fix>3d</fix>
</trkpt>
<trkpt lat="33.8106175" lon="-118.3935616">
  <ele>-4.669</ele>
  <time>2026-09-02T22:09:21Z</time>
  <course>158.0</course>
  <speed>0.03</speed>
  <fix>3d</fix>
</trkpt>
<trkpt lat="33.8106176" lon="-118.3935618">
  <ele>-4.18</ele>
  <time>2026-09-02T22:09:21Z</time>
  <course>74.26</course>
  <speed>0.0</speed>
  <fix>3d</fix>
</trkpt>
<trkpt lat="33.8106175" lon="-118.3935616">
  <ele>-4.659</ele>
  <time>2026-09-02T22:09:21Z</time>
  <course>158.01</course>
  <speed>0.03</speed>
  <fix>3d</fix>
</trkpt>
<trkpt lat="33.8106176" lon="-118.3935618">
  <ele>-4.17</ele>
  <time>2026-09-02T22:09:21Z</time>
  <course>74.3</course>
  <speed>0.0</speed>
  <fix>3d</fix>
</trkpt>
<trkpt lat="33.8106175" lon="-118.3935616">
  <ele>-4.649</ele>
  <time>2026-09-02T22:09:21Z</time>
  <course>158.02</course>
  <speed>0.03</speed>
  <fix>3d</fix>
</trkpt>
<trkpt lat="33.8106176" lon="-118.3935618">
  <ele>-4.17</ele>
  <time>2026-09-02T22:09:21Z</time>
  <course>74.3</course>
  <speed>0.0</speed>
  <fix>3d</fix>
</trkpt>
<trkpt lat="33.8106175" lon="-118.3935615">
  <ele>-4.639</ele>
  <time>2026-09-02T22:09:21Z</time>
  <course>158.04</course>
  <speed>0.03</speed>
  <fix>3d</fix>
</trkpt>
<trkpt lat="33.8106176" lon="-118.3935618">
  <ele>-4.14</ele>
  <time>2026-09-02T22:09:21Z</time>
  <course>74.33</course>
  <speed>0.0</speed>
  <fix>3d</fix>
</trkpt>
<trkpt lat="33.8106175" lon="-118.3935615">
  <ele>-4.63</ele>
  <time>2026-09-02T22:09:21Z</time>
  <course>158.05</course>
  <speed>0.03</speed>
  <fix>3d</fix>
</trkpt>
<trkpt lat="33.8106176" lon="-118.3935618">
  <ele>-4.14</ele>
  <time>2026-09-02T22:09:21Z</time>
  <course>74.33</course>
  <speed>0.0</speed>
  <fix>3d</fix>
</trkpt>
<trkpt lat="33.8106175" lon="-118.3935615">
  <ele>-4.619</ele>
  <time>2026-09-02T22:09:21Z</time>
  <course>158.06</course>
  <speed>0.0316227766016838</speed>
  <fix>3d</fix>
</trkpt>
<trkpt lat="33.8106176" lon="-118.3935618">
  <ele>-4.13</ele>
  <time>2026-09-02T22:09:21Z</time>
  <course>74.37</course>
  <speed>0.0</speed>
  <fix>3d</fix>
</trkpt>
<trkpt lat="33.8106175" lon="-118.3935615">
  <ele>-4.608</ele>
  <time>2026-09-02T22:09:21Z</time>
  <course>158.07</course>
  <speed>0.0316227766016838</speed>
  <fix>3d</fix>
</trkpt>
<trkpt lat="33.8106176" lon="-118.3935618">
  <ele>-4.13</ele>
  <time>2026-09-02T22:09:21Z</time>
  <course>74.37</course>
  <speed>0.0</speed>
  <fix>3d</fix>
</trkpt>
<trkpt lat="33.8106175" lon="-118.3935615">
  <ele>-4.597</ele>
  <time>2026-09-02T22:09:21Z</time>
  <course>158.09</course>
  <speed>0.0316227766016838</speed>
  <fix>3d</fix>
</trkpt>
<trkpt lat="33.8106176" lon="-118.3935618">
  <ele>-4.1</ele>
  <time>2026-09-02T22:09:21Z</time>
  <course>74.43</course>
  <speed>0.0</speed>
  <fix>3d</fix>
</trkpt>
<trkpt lat="33.8106175" lon="-118.3935615">
  <ele>-4.587</ele>
  <time>2026-09-02T22:09:21Z</time>
  <course>158.1</course>
  <speed>0.0316227766016838</speed>
  <fix>3d</fix>
</trkpt>
<trkpt lat="33.8106176" lon="-118.3935618">
  <ele>-4.1</ele>
  <time>2026-09-02T22:09:21Z</time>
  <course>74.43</course>
  <speed>0.0</speed>
  <fix>3d</fix>
</trkpt>
<trkpt lat="33.8106175" lon="-118.3935615">
  <ele>-4.576</ele>
  <time>2026-09-02T22:09:21Z</time>
  <course>158.11</course>
  <speed>0.0316227766016838</speed>
  <fix>3d</fix>
</trkpt>
<trkpt lat="33.8106176" lon="-118.3935617">
  <ele>-4.09</ele>
  <time>2026-09-02T22:09:21Z</time>
  <course>74.5</course>
  <speed>0.0</speed>
  <fix>3d</fix>
</trkpt>
<trkpt lat="33.8106175" lon="-118.3935615">
  <ele>-4.565</ele>
  <time>2026-09-02T22:09:21Z</time>
  <course>158.12</course>
  <speed>0.0316227766016838</speed>
  <fix>3d</fix>
</trkpt>
<trkpt lat="33.8106176" lon="-118.3935617">
  <ele>-4.09</ele>
  <time>2026-09-02T22:09:21Z</time>
  <course>74.5</course>
  <speed>0.0</speed>
  <fix>3d</fix>
</trkpt>
<trkpt lat="33.8106175" lon="-118.3935615">
  <ele>-4.568</ele>
  <time>2026-09-02T22:09:21Z</time>
  <course>158.14</course>
  <speed>0.0316227766016838</speed>
  <fix>3d</fix>
</trkpt>
<trkpt lat="33.8106176" lon="-118.3935617">
  <ele>-4.07</ele>
  <time>2026-09-02T22:09:21Z</time>
  <course>74.48</course>
  <speed>0.0</speed>
  <fix>3d</fix>
</trkpt>
<trkpt lat="33.8106175" lon="-118.3935615">
  <ele>-4.575</ele>
  <time>2026-09-02T22:09:21Z</time>
  <course>158.15</course>
  <speed>0.0316227766016838</speed>
  <fix>3d</fix>
</trkpt>
<trkpt lat="33.8106176" lon="-118.3935617">
  <ele>-4.07</ele>
  <time>2026-09-02T22:09:21Z</time>
  <course>74.48</course>
  <speed>0.0</speed>
  <fix>3d</fix>
</trkpt>
<trkpt lat="33.8106175" lon="-118.3935615">
  <ele>-4.582</ele>
  <time>2026-09-02T22:09:21Z</time>
  <course>158.16</course>
  <speed>0.0316227766016838</speed>
  <fix>3d</fix>
</trkpt>
<trkpt lat="33.8106176" lon="-118.3935617">
  <ele>-4.07</ele>
  <time>2026-09-02T22:09:21Z</time>
  <course>74.39</course>
  <speed>0.0</speed>
  <fix>3d</fix>
</trkpt>
<trkpt lat="33.8106175" lon="-118.3935615">
  <ele>-4.589</ele>
  <time>2026-09-02T22:09:21Z</time>
  <course>158.17</course>
  <speed>0.0316227766016838</speed>
  <fix>3d</fix>
</trkpt>
<trkpt lat="33.8106176" lon="-118.3935617">
  <ele>-4.07</ele>
  <time>2026-09-02T22:09:21Z</time>
  <course>74.39</course>
  <speed>0.0</speed>
  <fix>3d</fix>
</trkpt>
<trkpt lat="33.8106175" lon="-118.3935614">
  <ele>-4.596</ele>
  <time>2026-09-02T22:09:21Z</time>
  <course>158.18</course>
  <speed>0.0316227766016838</speed>
  <fix>3d</fix>
</trkpt>
<trkpt lat="33.8106176" lon="-118.3935617">
  <ele>-4.08</ele>
  <time>2026-09-02T22:09:21Z</time>
  <course>74.38</course>
  <speed>0.0</speed>
  <fix>3d</fix>
</trkpt>
<trkpt lat="33.8106175" lon="-118.3935614">
  <ele>-4.6</ele>
  <time>2026-09-02T22:09:21Z</time>
  <course>158.16</course>
  <speed>0.05099019513592785</speed>
  <fix>3d</fix>
</trkpt>
<trkpt lat="33.8106176" lon="-118.3935617">
  <ele>-4.08</ele>
  <time>2026-09-02T22:09:21Z</time>
  <course>74.38</course>
  <speed>0.0</speed>
  <fix>3d</fix>
</trkpt>
<trkpt lat="33.8106175" lon="-118.3935614">
  <ele>-4.602</ele>
  <time>2026-09-02T22:09:21Z</time>
  <course>158.1</course>
  <speed>0.07615773105863909</speed>
  <fix>3d</fix>
</trkpt>
<trkpt lat="33.8106176" lon="-118.3935617">
  <ele>-4.09</ele>
  <time>2026-09-02T22:09:21Z</time>
  <course>98.58</course>
  <speed>0.01</speed>
  <fix>3d</fix>
</trkpt>
<trkpt lat="33.8106175" lon="-118.3935613">
  <ele>-4.603</ele>
  <time>2026-09-02T22:09:21Z</time>
  <course>158.04</course>
  <speed>0.11704699910719625</speed>
  <fix>3d</fix>
</trkpt>
<trkpt lat="33.8106176" lon="-118.3935617">
  <ele>-4.09</ele>
  <time>2026-09-02T22:09:21Z</time>
  <course>98.58</course>
  <speed>0.01</speed>
  <fix>3d</fix>
</trkpt>
<trkpt lat="33.8106175" lon="-118.3935612">
  <ele>-4.603</ele>
  <time>2026-09-02T22:09:21Z</time>
  <course>158.0</course>
  <speed>0.1708800749063506</speed>
  <fix>3d</fix>
</trkpt>
<trkpt lat="33.8106176" lon="-118.3935616">
  <ele>-4.1</ele>
  <time>2026-09-02T22:09:21Z</time>
  <course>109.89</course>
  <speed>0.06</speed>
  <fix>3d</fix>
</trkpt>
<trkpt lat="33.8106174" lon="-118.393561">
  <ele>-4.601</ele>
  <time>2026-09-02T22:09:21Z</time>
  <course>158.0</course>
  <speed>0.2340939982143925</speed>
  <fix>3d</fix>
</trkpt>
<trkpt lat="33.8106176" lon="-118.3935616">
  <ele>-4.1</ele>
  <time>2026-09-02T22:09:21Z</time>
  <course>109.89</course>
  <speed>0.06</speed>
  <fix>3d</fix>
</trkpt>
<trkpt lat="33.8106173" lon="-118.3935608">
  <ele>-4.599</ele>
  <time>2026-09-02T22:09:21Z</time>
  <course>158.01</course>
  <speed>0.3101612483854165</speed>
  <fix>3d</fix>
</trkpt>
<trkpt lat="33.8106176" lon="-118.3935613">
  <ele>-4.09</ele>
  <time>2026-09-02T22:09:21Z</time>
  <course>110.98</course>
  <speed>0.16</speed>
  <fix>3d</fix>
</trkpt>
<trkpt lat="33.8106172" lon="-118.3935604">
  <ele>-4.595</ele>
  <time>2026-09-02T22:09:21Z</time>
  <course>158.02</course>
  <speed>0.3921734310225516</speed>
  <fix>3d</fix>
</trkpt>
<trkpt lat="33.8106176" lon="-118.3935613">
  <ele>-4.09</ele>
  <time>2026-09-02T22:09:21Z</time>
  <course>110.98</course>
  <speed>0.16</speed>
  <fix>3d</fix>
</trkpt>
<trkpt lat="33.8106171" lon="-118.39356">
  <ele>-4.591</ele>
  <time>2026-09-02T22:09:21Z</time>
  <course>158.02</course>
  <speed>0.468187996428785</speed>
  <fix>3d</fix>
</trkpt>
<trkpt lat="33.8106175" lon="-118.3935609">
  <ele>-4.09</ele>
  <time>2026-09-02T22:09:21Z</time>
  <course>110.55</course>
  <speed>0.3</speed>
  <fix>3d</fix>
</trkpt>
<trkpt lat="33.810617" lon="-118.3935595">
  <ele>-4.589</ele>
  <time>2026-09-02T22:09:21Z</time>
  <course>158.02</course>
  <speed>0.5536244214266564</speed>
  <fix>3d</fix>
</trkpt>
<trkpt lat="33.8106175" lon="-118.3935609">
  <ele>-4.09</ele>
  <time>2026-09-02T22:09:21Z</time>
  <course>110.55</course>
  <speed>0.3</speed>
  <fix>3d</fix>
</trkpt>
<trkpt lat="33.8106168" lon="-118.393559">
  <ele>-4.587</ele>
  <time>2026-09-02T22:09:21Z</time>
  <course>158.02</course>
  <speed>0.6168468205316454</speed>
  <fix>3d</fix>
</trkpt>
<trkpt lat="33.8106172" lon="-118.3935601">
  <ele>-4.08</ele>
  <time>2026-09-02T22:09:21Z</time>
  <course>110.31</course>
  <speed>0.45</speed>
  <fix>3d</fix>
</trkpt>
<trkpt lat="33.8106166" lon="-118.3935583">
  <ele>-4.587</ele>
  <time>2026-09-02T22:09:21Z</time>
  <course>158.02</course>
  <speed>0.6800735254367721</speed>
  <fix>3d</fix>
</trkpt>
<trkpt lat="33.8106172" lon="-118.3935601">
  <ele>-4.08</ele>
  <time>2026-09-02T22:09:21Z</time>
  <course>110.31</course>
  <speed>0.45</speed>
  <fix>3d</fix>
</trkpt>
<trkpt lat="33.8106164" lon="-118.3935577">
  <ele>-4.589</ele>
  <time>2026-09-02T22:09:21Z</time>
  <course>158.02</course>
  <speed>0.7338937252763509</speed>
  <fix>3d</fix>
</trkpt>
<trkpt lat="33.8106169" lon="-118.393559">
  <ele>-4.08</ele>
  <time>2026-09-02T22:09:21Z</time>
  <course>110.13</course>
  <speed>0.6</speed>
  <fix>3d</fix>
</trkpt>
<trkpt lat="33.8106162" lon="-118.3935569">
  <ele>-4.591</ele>
  <time>2026-09-02T22:09:21Z</time>
  <course>158.03</course>
  <speed>0.7749193506423749</speed>
  <fix>3d</fix>
</trkpt>
<trkpt lat="33.8106169" lon="-118.393559">
  <ele>-4.08</ele>
  <time>2026-09-02T22:09:21Z</time>
  <course>110.13</course>
  <speed>0.6</speed>
  <fix>3d</fix>
</trkpt>
<trkpt lat="33.810616" lon="-118.3935562">
  <ele>-4.594</ele>
  <time>2026-09-02T22:09:21Z</time>
  <course>158.03</course>
  <speed>0.8159656855530139</speed>
  <fix>3d</fix>
</trkpt>
<trkpt lat="33.8106164" lon="-118.3935577">
  <ele>-4.08</ele>
  <time>2026-09-02T22:09:21Z</time>
  <course>109.88</course>
  <speed>0.71</speed>
  <fix>3d</fix>
</trkpt>
<trkpt lat="33.8106158" lon="-118.3935553">
  <ele>-4.596</ele>
  <time>2026-09-02T22:09:21Z</time>
  <course>158.03</course>
  <speed>0.8475848040166837</speed>
  <fix>3d</fix>
</trkpt>
<trkpt lat="33.8106164" lon="-118.3935577">
  <ele>-4.08</ele>
  <time>2026-09-02T22:09:21Z</time>
  <course>109.88</course>
  <speed>0.71</speed>
  <fix>3d</fix>
</trkpt>
<trkpt lat="33.8106155" lon="-118.3935545">
  <ele>-4.597</ele>
  <time>2026-09-02T22:09:21Z</time>
  <course>158.03</course>
  <speed>0.8664871608973788</speed>
  <fix>3d</fix>
</trkpt>
<trkpt lat="33.810616" lon="-118.3935561">
  <ele>-4.08</ele>
  <time>2026-09-02T22:09:21Z</time>
  <course>109.5</course>
  <speed>0.79</speed>
  <fix>3d</fix>
</trkpt>
<trkpt lat="33.8106153" lon="-118.3935537">
  <ele>-4.598</ele>
  <time>2026-09-02T22:09:21Z</time>
  <course>158.03</course>
  <speed>0.875956619930462</speed>
  <fix>3d</fix>
</trkpt>
<trkpt lat="33.810616" lon="-118.3935561">
  <ele>-4.08</ele>
  <time>2026-09-02T22:09:21Z</time>
  <course>109.5</course>
  <speed>0.79</speed>
  <fix>3d</fix>
</trkpt>
<trkpt lat="33.810615" lon="-118.3935528">
  <ele>-4.597</ele>
  <time>2026-09-02T22:09:21Z</time>
  <course>158.03</course>
  <speed>0.8854377448471462</speed>
  <fix>3d</fix>
</trkpt>
<trkpt lat="33.8106155" lon="-118.3935544">
  <ele>-4.09</ele>
  <time>2026-09-02T22:09:21Z</time>
  <course>109.05</course>
  <speed>0.84</speed>
  <fix>3d</fix>
</trkpt>
<trkpt lat="33.8106148" lon="-118.3935519">
  <ele>-4.596</ele>
  <time>2026-09-02T22:09:21Z</time>
  <course>158.03</course>
  <speed>0.8949301648732151</speed>
  <fix>3d</fix>
</trkpt>
<trkpt lat="33.8106155" lon="-118.3935544">
  <ele>-4.09</ele>
  <time>2026-09-02T22:09:21Z</time>
  <course>109.05</course>
  <speed>0.84</speed>
  <fix>3d</fix>
</trkpt>
<trkpt lat="33.8106146" lon="-118.393551">
  <ele>-4.595</ele>
  <time>2026-09-02T22:09:21Z</time>
  <course>158.03</course>
  <speed>0.8949301648732151</speed>
  <fix>3d</fix>
</trkpt>
<trkpt lat="33.810615" lon="-118.3935526">
  <ele>-4.08</ele>
  <time>2026-09-02T22:09:21Z</time>
  <course>108.59</course>
  <speed>0.86</speed>
  <fix>3d</fix>
</trkpt>
<trkpt lat="33.8106143" lon="-118.3935501">
  <ele>-4.594</ele>
  <time>2026-09-02T22:09:21Z</time>
  <course>158.03</course>
  <speed>0.9013878188659973</speed>
  <fix>3d</fix>
</trkpt>
<trkpt lat="33.810615" lon="-118.3935526">
  <ele>-4.08</ele>
  <time>2026-09-02T22:09:21Z</time>
  <course>108.59</course>
  <speed>0.86</speed>
  <fix>3d</fix>
</trkpt>
<trkpt lat="33.8106141" lon="-118.3935492">
  <ele>-4.592</ele>
  <time>2026-09-02T22:09:21Z</time>
  <course>158.03</course>
  <speed>0.9013878188659973</speed>
  <fix>3d</fix>
</trkpt>
<trkpt lat="33.8106145" lon="-118.3935509">
  <ele>-4.08</ele>
  <time>2026-09-02T22:09:21Z</time>
  <course>108.15</course>
  <speed>0.87</speed>
  <fix>3d</fix>
</trkpt>
<trkpt lat="33.8106138" lon="-118.3935483">
  <ele>-4.591</ele>
  <time>2026-09-02T22:09:21Z</time>
  <course>158.03</course>
  <speed>0.9013878188659973</speed>
  <fix>3d</fix>
</trkpt>
<trkpt lat="33.8106145" lon="-118.3935509">
  <ele>-4.08</ele>
  <time>2026-09-02T22:09:21Z</time>
  <course>108.15</course>
  <speed>0.87</speed>
  <fix>3d</fix>
</trkpt>
<trkpt lat="33.8106136" lon="-118.3935474">
  <ele>-4.59</ele>
  <time>2026-09-02T22:09:21Z</time>
  <course>158.04</course>
  <speed>0.9109335870413386</speed>
  <fix>3d</fix>
</trkpt>
<trkpt lat="33.810614" lon="-118.3935491">
  <ele>-4.08</ele>
  <time>2026-09-02T22:09:21Z</time>
  <course>107.76</course>
  <speed>0.88</speed>
  <fix>3d</fix>
</trkpt>
<trkpt lat="33.8106134" lon="-118.3935465">
  <ele>-4.59</ele>
  <time>2026-09-02T22:09:21Z</time>
  <course>158.04</course>
  <speed>0.9109335870413386</speed>
  <fix>3d</fix>
</trkpt>
<trkpt lat="33.810614" lon="-118.3935491">
  <ele>-4.08</ele>
  <time>2026-09-02T22:09:21Z</time>
  <course>107.76</course>
  <speed>0.88</speed>
  <fix>3d</fix>
</trkpt>
<trkpt lat="33.8106131" lon="-118.3935456">
  <ele>-4.591</ele>
  <time>2026-09-02T22:09:21Z</time>
  <course>158.03</course>
  <speed>0.9109335870413386</speed>
  <fix>3d</fix>
</trkpt>
<trkpt lat="33.8106135" lon="-118.3935473">
  <ele>-4.08</ele>
  <time>2026-09-02T22:09:21Z</time>
  <course>107.41</course>
  <speed>0.89</speed>
  <fix>3d</fix>
</trkpt>
<trkpt lat="33.8106129" lon="-118.3935447">
  <ele>-4.593</ele>
  <time>2026-09-02T22:09:21Z</time>
  <course>158.04</course>
  <speed>0.9080198235721508</speed>
  <fix>3d</fix>
</trkpt>
<trkpt lat="33.8106135" lon="-118.3935473">
  <ele>-4.08</ele>
  <time>2026-09-02T22:09:21Z</time>
  <course>107.41</course>
  <speed>0.89</speed>
  <fix>3d</fix>
</trkpt>
<trkpt lat="33.8106127" lon="-118.3935438">
  <ele>-4.595</ele>
  <time>2026-09-02T22:09:21Z</time>
  <course>158.04</course>
  <speed>0.9080198235721508</speed>
  <fix>3d</fix>
</trkpt>
<trkpt lat="33.8106131" lon="-118.3935454">
  <ele>-4.08</ele>
  <time>2026-09-02T22:09:21Z</time>
  <course>107.1</course>
  <speed>0.89</speed>
  <fix>3d</fix>
</trkpt>
<trkpt lat="33.8106124" lon="-118.3935428">
  <ele>-4.598</ele>
  <time>2026-09-02T22:09:21Z</time>
  <course>158.05</course>
  <speed>0.9080198235721508</speed>
  <fix>3d</fix>
</trkpt>
<trkpt lat="33.8106131" lon="-118.3935454">
  <ele>-4.08</ele>
  <time>2026-09-02T22:09:21Z</time>
  <course>107.1</course>
  <speed>0.89</speed>
  <fix>3d</fix>
</trkpt>
<trkpt lat="33.8106122" lon="-118.3935419">
  <ele>-4.599</ele>
  <time>2026-09-02T22:09:21Z</time>
  <course>158.05</course>
  <speed>0.8984430978086481</speed>
  <fix>3d</fix>
</trkpt>
<trkpt lat="33.8106126" lon="-118.3935435">
  <ele>-4.09</ele>
  <time>2026-09-02T22:09:21Z</time>
  <course>106.85</course>
  <speed>0.88</speed>
  <fix>3d</fix>
</trkpt>
<trkpt lat="33.810612" lon="-118.393541">
  <ele>-4.6</ele>
  <time>2026-09-02T22:09:21Z</time>
  <course>158.05</course>
  <speed>0.8956003573022958</speed>
  <fix>3d</fix>
</trkpt>
<trkpt lat="33.8106126" lon="-118.3935435">
  <ele>-4.09</ele>
  <time>2026-09-02T22:09:21Z</time>
  <course>106.85</course>
  <speed>0.88</speed>
  <fix>3d</fix>
</trkpt>
<trkpt lat="33.8106118" lon="-118.3935401">
  <ele>-4.601</ele>
  <time>2026-09-02T22:09:21Z</time>
  <course>158.04</course>
  <speed>0.8956003573022958</speed>
  <fix>3d</fix>
</trkpt>
<trkpt lat="33.8106121" lon="-118.3935417">
  <ele>-4.09</ele>
  <time>2026-09-02T22:09:21Z</time>
  <course>106.68</course>
  <speed>0.88</speed>
  <fix>3d</fix>
</trkpt>
<trkpt lat="33.8106115" lon="-118.3935392">
  <ele>-4.601</ele>
  <time>2026-09-02T22:09:21Z</time>
  <course>158.04</course>
  <speed>0.8860022573334675</speed>
  <fix>3d</fix>
</trkpt>
<trkpt lat="33.8106121" lon="-118.3935417">
  <ele>-4.09</ele>
  <time>2026-09-02T22:09:21Z</time>
  <course>106.68</course>
  <speed>0.88</speed>
  <fix>3d</fix>
</trkpt>
<trkpt lat="33.8106113" lon="-118.3935383">
  <ele>-4.6</ele>
  <time>2026-09-02T22:09:21Z</time>
  <course>158.04</course>
  <speed>0.8860022573334675</speed>
  <fix>3d</fix>
</trkpt>
<trkpt lat="33.8106117" lon="-118.3935399">
  <ele>-4.09</ele>
  <time>2026-09-02T22:09:21Z</time>
  <course>106.53</course>
  <speed>0.87</speed>
  <fix>3d</fix>
</trkpt>
<trkpt lat="33.8106111" lon="-118.3935374">
  <ele>-4.599</ele>
  <time>2026-09-02T22:09:21Z</time>
  <course>158.04</course>
  <speed>0.8860022573334675</speed>
  <fix>3d</fix>
</trkpt>
<trkpt lat="33.8106117" lon="-118.3935399">
  <ele>-4.09</ele>
  <time>2026-09-02T22:09:21Z</time>
  <course>106.53</course>
  <speed>0.87</speed>
  <fix>3d</fix>
</trkpt>
<trkpt lat="33.8106109" lon="-118.3935365">
  <ele>-4.597</ele>
  <time>2026-09-02T22:09:21Z</time>
  <course>158.04</course>
  <speed>0.8764131445842195</speed>
  <fix>3d</fix>
</trkpt>
<trkpt lat="33.8106113" lon="-118.3935381">
  <ele>-4.09</ele>
  <time>2026-09-02T22:09:21Z</time>
  <course>106.4</course>
  <speed>0.86</speed>
  <fix>3d</fix>
</trkpt>
<trkpt lat="33.8106107" lon="-118.3935356">
  <ele>-4.595</ele>
  <time>2026-09-02T22:09:21Z</time>
  <course>158.04</course>
  <speed>0.8736131867136622</speed>
  <fix>3d</fix>
</trkpt>
<trkpt lat="33.8106113" lon="-118.3935381">
  <ele>-4.09</ele>
  <time>2026-09-02T22:09:21Z</time>
  <course>106.4</course>
  <speed>0.86</speed>
  <fix>3d</fix>
</trkpt>
<trkpt lat="33.8106105" lon="-118.3935348">
  <ele>-4.594</ele>
  <time>2026-09-02T22:09:21Z</time>
  <course>158.04</course>
  <speed>0.8736131867136622</speed>
  <fix>3d</fix>
</trkpt>
<trkpt lat="33.8106108" lon="-118.3935363">
  <ele>-4.08</ele>
  <time>2026-09-02T22:09:21Z</time>
  <course>106.33</course>
  <speed>0.86</speed>
  <fix>3d</fix>
</trkpt>
<trkpt lat="33.8106102" lon="-118.3935339">
  <ele>-4.593</ele>
  <time>2026-09-02T22:09:21Z</time>
  <course>158.05</course>
  <speed>0.8640023148117139</speed>
  <fix>3d</fix>
</trkpt>
<trkpt lat="33.8106108" lon="-118.3935363">
  <ele>-4.08</ele>
  <time>2026-09-02T22:09:21Z</time>
  <course>106.33</course>
  <speed>0.86</speed>
  <fix>3d</fix>
</trkpt>
<trkpt lat="33.81061" lon="-118.393533">
  <ele>-4.593</ele>
  <time>2026-09-02T22:09:21Z</time>
  <course>158.04</course>
  <speed>0.8640023148117139</speed>
  <fix>3d</fix>
</trkpt>
<trkpt lat="33.8106104" lon="-118.3935344">
  <ele>-4.08</ele>
  <time>2026-09-02T22:09:21Z</time>
  <course>106.3</course>
  <speed>0.85</speed>
  <fix>3d</fix>
</trkpt>
<trkpt lat="33.8106098" lon="-118.3935321">
  <ele>-4.593</ele>
  <time>2026-09-02T22:09:21Z</time>
  <course>158.05</course>
  <speed>0.8640023148117139</speed>
  <fix>3d</fix>
</trkpt>
<trkpt lat="33.8106104" lon="-118.3935344">
  <ele>-4.08</ele>
  <time>2026-09-02T22:09:21Z</time>
  <course>106.3</course>
  <speed>0.85</speed>
  <fix>3d</fix>
</trkpt>
<trkpt lat="33.8106096" lon="-118.3935312">
  <ele>-4.593</ele>
  <time>2026-09-02T22:09:21Z</time>
  <course>158.04</course>
  <speed>0.8640023148117139</speed>
  <fix>3d</fix>
</trkpt>
<trkpt lat="33.8106099" lon="-118.3935327">
  <ele>-4.08</ele>
  <time>2026-09-02T22:09:21Z</time>
  <course>106.28</course>
  <speed>0.84</speed>
  <fix>3d</fix>
</trkpt>
<trkpt lat="33.8106094" lon="-118.3935303">
  <ele>-4.593</ele>
  <time>2026-09-02T22:09:21Z</time>
  <course>158.03</course>
  <speed>0.8544003745317531</speed>
  <fix>3d</fix>
</trkpt>
<trkpt lat="33.8106099" lon="-118.3935327">
  <ele>-4.08</ele>
  <time>2026-09-02T22:09:21Z</time>
  <course>106.28</course>
  <speed>0.84</speed>
  <fix>3d</fix>
</trkpt>
<trkpt lat="33.8106092" lon="-118.3935295">
  <ele>-4.592</ele>
  <time>2026-09-02T22:09:21Z</time>
  <course>158.04</course>
  <speed>0.8544003745317531</speed>
  <fix>3d</fix>
</trkpt>
<trkpt lat="33.8106096" lon="-118.393531">
  <ele>-4.08</ele>
  <time>2026-09-02T22:09:21Z</time>
  <course>106.25</course>
  <speed>0.84</speed>
  <fix>3d</fix>
</trkpt>
<trkpt lat="33.810609" lon="-118.3935286">
  <ele>-4.593</ele>
  <time>2026-09-02T22:09:21Z</time>
  <course>158.04</course>
  <speed>0.8544003745317531</speed>
  <fix>3d</fix>
</trkpt>
<trkpt lat="33.8106096" lon="-118.393531">
  <ele>-4.08</ele>
  <time>2026-09-02T22:09:21Z</time>
  <course>106.25</course>
  <speed>0.84</speed>
  <fix>3d</fix>
</trkpt>
<trkpt lat="33.8106088" lon="-118.3935277">
  <ele>-4.594</ele>
  <time>2026-09-02T22:09:21Z</time>
  <course>158.04</course>
  <speed>0.8544003745317531</speed>
  <fix>3d</fix>
</trkpt>
<trkpt lat="33.8106091" lon="-118.3935292">
  <ele>-4.08</ele>
  <time>2026-09-02T22:09:21Z</time>
  <course>106.23</course>
  <speed>0.83</speed>
  <fix>3d</fix>
</trkpt>
<trkpt lat="33.8106086" lon="-118.3935269">
  <ele>-4.596</ele>
  <time>2026-09-02T22:09:21Z</time>
  <course>158.05</course>
  <speed>0.8544003745317531</speed>
  <fix>3d</fix>
</trkpt>
<trkpt lat="33.8106091" lon="-118.3935292">
  <ele>-4.08</ele>
  <time>2026-09-02T22:09:21Z</time>
  <course>106.23</course>
  <speed>0.83</speed>
  <fix>3d</fix>
</trkpt>
<trkpt lat="33.8106083" lon="-118.393526">
  <ele>-4.596</ele>
  <time>2026-09-02T22:09:21Z</time>
  <course>158.05</course>
  <speed>0.8544003745317531</speed>
  <fix>3d</fix>
</trkpt>
<trkpt lat="33.8106087" lon="-118.3935275">
  <ele>-4.09</ele>
  <time>2026-09-02T22:09:21Z</time>
  <course>106.26</course>
  <speed>0.83</speed>
  <fix>3d</fix>
</trkpt>
<trkpt lat="33.8106081" lon="-118.3935251">
  <ele>-4.596</ele>
  <time>2026-09-02T22:09:21Z</time>
  <course>158.05</course>
  <speed>0.8448076704197234</speed>
  <fix>3d</fix>
</trkpt>
<trkpt lat="33.8106087" lon="-118.3935275">
  <ele>-4.09</ele>
  <time>2026-09-02T22:09:21Z</time>
  <course>106.26</course>
  <speed>0.83</speed>
  <fix>3d</fix>
</trkpt>
<trkpt lat="33.8106079" lon="-118.3935243">
  <ele>-4.596</ele>
  <time>2026-09-02T22:09:21Z</time>
  <course>158.05</course>
  <speed>0.8448076704197234</speed>
  <fix>3d</fix>
</trkpt>
<trkpt lat="33.8106083" lon="-118.3935258">
  <ele>-4.09</ele>
  <time>2026-09-02T22:09:21Z</time>
  <course>106.28</course>
  <speed>0.82</speed>
  <fix>3d</fix>
</trkpt>
<trkpt lat="33.8106077" lon="-118.3935234">
  <ele>-4.596</ele>
  <time>2026-09-02T22:09:21Z</time>
  <course>158.04</course>
  <speed>0.8448076704197234</speed>
  <fix>3d</fix>
</trkpt>
<trkpt lat="33.8106083" lon="-118.3935258">
  <ele>-4.09</ele>
  <time>2026-09-02T22:09:21Z</time>
  <course>106.28</course>
  <speed>0.82</speed>
  <fix>3d</fix>
</trkpt>
<trkpt lat="33.8106075" lon="-118.3935225">
  <ele>-4.596</ele>
  <time>2026-09-02T22:09:21Z</time>
  <course>158.04</course>
  <speed>0.8448076704197234</speed>
  <fix>3d</fix>
</trkpt>
<trkpt lat="33.8106078" lon="-118.3935241">
  <ele>-4.09</ele>
  <time>2026-09-02T22:09:21Z</time>
  <course>106.3</course>
  <speed>0.82</speed>
  <fix>3d</fix>
</trkpt>
<trkpt lat="33.8106073" lon="-118.3935217">
  <ele>-4.597</ele>
  <time>2026-09-02T22:09:21Z</time>
  <course>158.04</course>
  <speed>0.8448076704197234</speed>
  <fix>3d</fix>
</trkpt>
<trkpt lat="33.8106078" lon="-118.3935241">
  <ele>-4.09</ele>
  <time>2026-09-02T22:09:21Z</time>
  <course>106.3</course>
  <speed>0.82</speed>
  <fix>3d</fix>
</trkpt>
<trkpt lat="33.8106071" lon="-118.3935208">
  <ele>-4.597</ele>
  <time>2026-09-02T22:09:21Z</time>
  <course>158.05</course>
  <speed>0.8448076704197234</speed>
  <fix>3d</fix>
</trkpt>
<trkpt lat="33.8106075" lon="-118.3935223">
  <ele>-4.09</ele>
  <time>2026-09-02T22:09:21Z</time>
  <course>106.28</course>
  <speed>0.82</speed>
  <fix>3d</fix>
</trkpt>
<trkpt lat="33.8106069" lon="-118.39352">
  <ele>-4.597</ele>
  <time>2026-09-02T22:09:21Z</time>
  <course>158.05</course>
  <speed>0.8448076704197234</speed>
  <fix>3d</fix>
</trkpt>
<trkpt lat="33.8106075" lon="-118.3935223">
  <ele>-4.09</ele>
  <time>2026-09-02T22:09:21Z</time>
  <course>106.28</course>
  <speed>0.82</speed>
  <fix>3d</fix>
</trkpt>
<trkpt lat="33.8106067" lon="-118.3935191">
  <ele>-4.596</ele>
  <time>2026-09-02T22:09:21Z</time>
  <course>158.05</course>
  <speed>0.8448076704197234</speed>
  <fix>3d</fix>
</trkpt>
<trkpt lat="33.8106071" lon="-118.3935206">
  <ele>-4.09</ele>
  <time>2026-09-02T22:09:21Z</time>
  <course>106.28</course>
  <speed>0.82</speed>
  <fix>3d</fix>
</trkpt>
<trkpt lat="33.8106065" lon="-118.3935182">
  <ele>-4.596</ele>
  <time>2026-09-02T22:09:21Z</time>
  <course>158.05</course>
  <speed>0.8448076704197234</speed>
  <fix>3d</fix>
</trkpt>
<trkpt lat="33.8106071" lon="-118.3935206">
  <ele>-4.09</ele>
  <time>2026-09-02T22:09:21Z</time>
  <course>106.28</course>
  <speed>0.82</speed>
  <fix>3d</fix>
</trkpt>
<trkpt lat="33.8106063" lon="-118.3935174">
  <ele>-4.595</ele>
  <time>2026-09-02T22:09:21Z</time>
  <course>158.04</course>
  <speed>0.8448076704197234</speed>
  <fix>3d</fix>
</trkpt>
<trkpt lat="33.8106066" lon="-118.3935189">
  <ele>-4.09</ele>
  <time>2026-09-02T22:09:21Z</time>
  <course>106.35</course>
  <speed>0.82</speed>
  <fix>3d</fix>
</trkpt>
<trkpt lat="33.8106061" lon="-118.3935165">
  <ele>-4.595</ele>
  <time>2026-09-02T22:09:21Z</time>
  <course>158.05</course>
  <speed>0.8448076704197234</speed>
  <fix>3d</fix>
</trkpt>
<trkpt lat="33.8106066" lon="-118.3935189">
  <ele>-4.09</ele>
  <time>2026-09-02T22:09:21Z</time>
  <course>106.35</course>
  <speed>0.82</speed>
  <fix>3d</fix>
</trkpt>
<trkpt lat="33.8106058" lon="-118.3935157">
  <ele>-4.595</ele>
  <time>2026-09-02T22:09:21Z</time>
  <course>158.05</course>
  <speed>0.8448076704197234</speed>
  <fix>3d</fix>
</trkpt>
<trkpt lat="33.8106061" lon="-118.3935172">
  <ele>-4.09</ele>
  <time>2026-09-02T22:09:21Z</time>
  <course>106.41</course>
  <speed>0.82</speed>
  <fix>3d</fix>
</trkpt>
<trkpt lat="33.8106056" lon="-118.3935148">
  <ele>-4.595</ele>
  <time>2026-09-02T22:09:21Z</time>
  <course>158.04</course>
  <speed>0.8544003745317531</speed>
  <fix>3d</fix>
</trkpt>
<trkpt lat="33.8106061" lon="-118.3935172">
  <ele>-4.09</ele>
  <time>2026-09-02T22:09:21Z</time>
  <course>106.41</course>
  <speed>0.82</speed>
  <fix>3d</fix>
</trkpt>
<trkpt lat="33.8106054" lon="-118.3935139">
  <ele>-4.595</ele>
  <time>2026-09-02T22:09:21Z</time>
  <course>158.04</course>
  <speed>0.8544003745317531</speed>
  <fix>3d</fix>
</trkpt>
<trkpt lat="33.8106058" lon="-118.3935155">
  <ele>-4.09</ele>
  <time>2026-09-02T22:09:21Z</time>
  <course>106.38</course>
  <speed>0.82</speed>
  <fix>3d</fix>
</trkpt>
<trkpt lat="33.8106052" lon="-118.3935131">
  <ele>-4.595</ele>
  <time>2026-09-02T22:09:21Z</time>
  <course>158.05</course>
  <speed>0.8544003745317531</speed>
  <fix>3d</fix>
</trkpt>
<trkpt lat="33.8106058" lon="-118.3935155">
  <ele>-4.09</ele>
  <time>2026-09-02T22:09:21Z</time>
  <course>106.38</course>
  <speed>0.82</speed>
  <fix>3d</fix>
</trkpt>
<trkpt lat="33.810605" lon="-118.3935122">
  <ele>-4.595</ele>
  <time>2026-09-02T22:09:21Z</time>
  <course>158.04</course>
  <speed>0.8544003745317531</speed>
  <fix>3d</fix>
</trkpt>
<trkpt lat="33.8106054" lon="-118.3935138">
  <ele>-4.1</ele>
  <time>2026-09-02T22:09:21Z</time>
  <course>106.33</course>
  <speed>0.82</speed>
  <fix>3d</fix>
</trkpt>
<trkpt lat="33.8106048" lon="-118.3935114">
  <ele>-4.597</ele>
  <time>2026-09-02T22:09:21Z</time>
  <course>158.04</course>
  <speed>0.8544003745317531</speed>
  <fix>3d</fix>
</trkpt>
<trkpt lat="33.8106054" lon="-118.3935138">
  <ele>-4.1</ele>
  <time>2026-09-02T22:09:21Z</time>
  <course>106.33</course>
  <speed>0.82</speed>
  <fix>3d</fix>
</trkpt>
<trkpt lat="33.8106046" lon="-118.3935105">
  <ele>-4.599</ele>
  <time>2026-09-02T22:09:21Z</time>
  <course>158.04</course>
  <speed>0.8544003745317531</speed>
  <fix>3d</fix>
</trkpt>
<trkpt lat="33.8106049" lon="-118.3935121">
  <ele>-4.1</ele>
  <time>2026-09-02T22:09:21Z</time>
  <course>106.35</course>
  <speed>0.82</speed>
  <fix>3d</fix>
</trkpt>
<trkpt lat="33.8106044" lon="-118.3935097">
  <ele>-4.601</ele>
  <time>2026-09-02T22:09:21Z</time>
  <course>158.04</course>
  <speed>0.8544003745317531</speed>
  <fix>3d</fix>
</trkpt>
<trkpt lat="33.8106049" lon="-118.3935121">
  <ele>-4.1</ele>
  <time>2026-09-02T22:09:21Z</time>
  <course>106.35</course>
  <speed>0.82</speed>
  <fix>3d</fix>
</trkpt>
<trkpt lat="33.8106042" lon="-118.3935088">
  <ele>-4.602</ele>
  <time>2026-09-02T22:09:21Z</time>
  <course>158.05</course>
  <speed>0.8544003745317531</speed>
  <fix>3d</fix>
</trkpt>
<trkpt lat="33.8106045" lon="-118.3935103">
  <ele>-4.1</ele>
  <time>2026-09-02T22:09:21Z</time>
  <course>106.37</course>
  <speed>0.83</speed>
  <fix>3d</fix>
</trkpt>
<trkpt lat="33.810604" lon="-118.3935079">
  <ele>-4.602</ele>
  <time>2026-09-02T22:09:21Z</time>
  <course>158.04</course>
  <speed>0.8640023148117139</speed>
  <fix>3d</fix>
</trkpt>
<trkpt lat="33.8106045" lon="-118.3935103">
  <ele>-4.1</ele>
  <time>2026-09-02T22:09:21Z</time>
  <course>106.37</course>
  <speed>0.83</speed>
  <fix>3d</fix>
</trkpt>
<trkpt lat="33.8106037" lon="-118.3935071">
  <ele>-4.601</ele>
  <time>2026-09-02T22:09:21Z</time>
  <course>158.04</course>
  <speed>0.8640023148117139</speed>
  <fix>3d</fix>
</trkpt>
<trkpt lat="33.8106041" lon="-118.3935086">
  <ele>-4.1</ele>
  <time>2026-09-02T22:09:21Z</time>
  <course>106.35</course>
  <speed>0.83</speed>
  <fix>3d</fix>
</trkpt>
<trkpt lat="33.8106035" lon="-118.3935062">
  <ele>-4.6</ele>
  <time>2026-09-02T22:09:21Z</time>
  <course>158.04</course>
  <speed>0.8640023148117139</speed>
  <fix>3d</fix>
</trkpt>
<trkpt lat="33.8106041" lon="-118.3935086">
  <ele>-4.1</ele>
  <time>2026-09-02T22:09:21Z</time>
  <course>106.35</course>
  <speed>0.83</speed>
  <fix>3d</fix>
</trkpt>
<trkpt lat="33.8106033" lon="-118.3935053">
  <ele>-4.6</ele>
  <time>2026-09-02T22:09:21Z</time>
  <course>158.04</course>
  <speed>0.8640023148117139</speed>
  <fix>3d</fix>
</trkpt>
<trkpt lat="33.8106037" lon="-118.3935069">
  <ele>-4.09</ele>
  <time>2026-09-02T22:09:21Z</time>
  <course>106.35</course>
  <speed>0.83</speed>
  <fix>3d</fix>
</trkpt>
<trkpt lat="33.8106031" lon="-118.3935045">
  <ele>-4.598</ele>
  <time>2026-09-02T22:09:21Z</time>
  <course>158.04</course>
  <speed>0.8640023148117139</speed>
  <fix>3d</fix>
</trkpt>
<trkpt lat="33.8106037" lon="-118.3935069">
  <ele>-4.09</ele>
  <time>2026-09-02T22:09:21Z</time>
  <course>106.35</course>
  <speed>0.83</speed>
  <fix>3d</fix>
</trkpt>
<trkpt lat="33.8106029" lon="-118.3935036">
  <ele>-4.597</ele>
  <time>2026-09-02T22:09:21Z</time>
  <course>158.04</course>
  <speed>0.8640023148117139</speed>
  <fix>3d</fix>
</trkpt>
<trkpt lat="33.8106032" lon="-118.3935051">
  <ele>-4.09</ele>
  <time>2026-09-02T22:09:21Z</time>
  <course>106.37</course>
  <speed>0.83</speed>
  <fix>3d</fix>
</trkpt>
<trkpt lat="33.8106027" lon="-118.3935027">
  <ele>-4.596</ele>
  <time>2026-09-02T22:09:21Z</time>
  <course>158.05</course>
  <speed>0.8640023148117139</speed>
  <fix>3d</fix>
</trkpt>
<trkpt lat="33.8106032" lon="-118.3935051">
  <ele>-4.09</ele>
  <time>2026-09-02T22:09:21Z</time>
  <course>106.37</course>
  <speed>0.83</speed>
  <fix>3d</fix>
</trkpt>
<trkpt lat="33.8106025" lon="-118.3935019">
  <ele>-4.595</ele>
  <time>2026-09-02T22:09:21Z</time>
  <course>158.05</course>
  <speed>0.8640023148117139</speed>
  <fix>3d</fix>
</trkpt>
<trkpt lat="33.8106028" lon="-118.3935034">
  <ele>-4.09</ele>
  <time>2026-09-02T22:09:21Z</time>
  <course>106.37</course>
  <speed>0.84</speed>
  <fix>3d</fix>
</trkpt>
<trkpt lat="33.8106022" lon="-118.393501">
  <ele>-4.595</ele>
  <time>2026-09-02T22:09:21Z</time>
  <course>158.05</course>
  <speed>0.8640023148117139</speed>
  <fix>3d</fix>
</trkpt>
<trkpt lat="33.8106028" lon="-118.3935034">
  <ele>-4.09</ele>
  <time>2026-09-02T22:09:21Z</time>
  <course>106.37</course>
  <speed>0.84</speed>
  <fix>3d</fix>
</trkpt>
<trkpt lat="33.810602" lon="-118.3935001">
  <ele>-4.596</ele>
  <time>2026-09-02T22:09:21Z</time>
  <course>158.05</course>
  <speed>0.8640023148117139</speed>
  <fix>3d</fix>
</trkpt>
<trkpt lat="33.8106023" lon="-118.3935017">
  <ele>-4.09</ele>
  <time>2026-09-02T22:09:21Z</time>
  <course>106.34</course>
  <speed>0.84</speed>
  <fix>3d</fix>
</trkpt>
<trkpt lat="33.8106018" lon="-118.3934992">
  <ele>-4.597</ele>
  <time>2026-09-02T22:09:21Z</time>
  <course>158.04</course>
  <speed>0.8736131867136622</speed>
  <fix>3d</fix>
</trkpt>
<trkpt lat="33.8106023" lon="-118.3935017">
  <ele>-4.09</ele>
  <time>2026-09-02T22:09:21Z</time>
  <course>106.34</course>
  <speed>0.84</speed>
  <fix>3d</fix>
</trkpt>
<trkpt lat="33.8106016" lon="-118.3934984">
  <ele>-4.599</ele>
  <time>2026-09-02T22:09:21Z</time>
  <course>158.04</course>
  <speed>0.8736131867136622</speed>
  <fix>3d</fix>
</trkpt>
<trkpt lat="33.810602" lon="-118.3934999">
  <ele>-4.09</ele>
  <time>2026-09-02T22:09:21Z</time>
  <course>106.29</course>
  <speed>0.84</speed>
  <fix>3d</fix>
</trkpt>
<trkpt lat="33.8106014" lon="-118.3934975">
  <ele>-4.6</ele>
  <time>2026-09-02T22:09:21Z</time>
  <course>158.05</course>
  <speed>0.8736131867136622</speed>
  <fix>3d</fix>
</trkpt>
<trkpt lat="33.810602" lon="-118.3934999">
  <ele>-4.09</ele>
  <time>2026-09-02T22:09:21Z</time>
  <course>106.29</course>
  <speed>0.84</speed>
  <fix>3d</fix>
</trkpt>
<trkpt lat="33.8106012" lon="-118.3934966">
  <ele>-4.601</ele>
  <time>2026-09-02T22:09:21Z</time>
  <course>158.05</course>
  <speed>0.8764131445842195</speed>
  <fix>3d</fix>
</trkpt>
<trkpt lat="33.8106016" lon="-118.3934982">
  <ele>-4.09</ele>
  <time>2026-09-02T22:09:21Z</time>
  <course>106.25</course>
  <speed>0.84</speed>
  <fix>3d</fix>
</trkpt>
<trkpt lat="33.810601" lon="-118.3934957">
  <ele>-4.602</ele>
  <time>2026-09-02T22:09:21Z</time>
  <course>158.06</course>
  <speed>0.8764131445842195</speed>
  <fix>3d</fix>
</trkpt>
<trkpt lat="33.8106016" lon="-118.3934982">
  <ele>-4.09</ele>
  <time>2026-09-02T22:09:21Z</time>
  <course>106.25</course>
  <speed>0.84</speed>
  <fix>3d</fix>
</trkpt>
<trkpt lat="33.8106007" lon="-118.3934948">
  <ele>-4.601</ele>
  <time>2026-09-02T22:09:21Z</time>
  <course>158.06</course>
  <speed>0.8764131445842195</speed>
  <fix>3d</fix>
</trkpt>
<trkpt lat="33.8106011" lon="-118.3934964">
  <ele>-4.08</ele>
  <time>2026-09-02T22:09:21Z</time>
  <course>106.3</course>
  <speed>0.84</speed>
  <fix>3d</fix>
</trkpt>
<trkpt lat="33.8106005" lon="-118.393494">
  <ele>-4.6</ele>
  <time>2026-09-02T22:09:21Z</time>
  <course>158.06</course>
  <speed>0.8764131445842195</speed>
  <fix>3d</fix>
</trkpt>
<trkpt lat="33.8106011" lon="-118.3934964">
  <ele>-4.08</ele>
  <time>2026-09-02T22:09:21Z</time>
  <course>106.3</course>
  <speed>0.84</speed>
  <fix>3d</fix>
</trkpt>
<trkpt lat="33.8106003" lon="-118.3934931">
  <ele>-4.597</ele>
  <time>2026-09-02T22:09:21Z</time>
  <course>158.05</course>
  <speed>0.8764131445842195</speed>
  <fix>3d</fix>
</trkpt>
<trkpt lat="33.8106006" lon="-118.3934947">
  <ele>-4.08</ele>
  <time>2026-09-02T22:09:21Z</time>
  <course>106.36</course>
  <speed>0.84</speed>
  <fix>3d</fix>
</trkpt>
<trkpt lat="33.8106001" lon="-118.3934922">
  <ele>-4.593</ele>
  <time>2026-09-02T22:09:21Z</time>
  <course>158.05</course>
  <speed>0.8764131445842195</speed>
  <fix>3d</fix>
</trkpt>
<trkpt lat="33.8106006" lon="-118.3934947">
  <ele>-4.08</ele>
  <time>2026-09-02T22:09:21Z</time>
  <course>106.36</course>
  <speed>0.84</speed>
  <fix>3d</fix>
</trkpt>
<trkpt lat="33.8105999" lon="-118.3934913">
  <ele>-4.591</ele>
  <time>2026-09-02T22:09:21Z</time>
  <course>158.05</course>
  <speed>0.8860022573334675</speed>
  <fix>3d</fix>
</trkpt>
<trkpt lat="33.8106003" lon="-118.3934929">
  <ele>-4.08</ele>
  <time>2026-09-02T22:09:21Z</time>
  <course>106.35</course>
  <speed>0.85</speed>
  <fix>3d</fix>
</trkpt>
<trkpt lat="33.8105997" lon="-118.3934904">
  <ele>-4.59</ele>
  <time>2026-09-02T22:09:21Z</time>
  <course>158.06</course>
  <speed>0.8860022573334675</speed>
  <fix>3d</fix>
</trkpt>
<trkpt lat="33.8106003" lon="-118.3934929">
  <ele>-4.08</ele>
  <time>2026-09-02T22:09:21Z</time>
  <course>106.35</course>
  <speed>0.85</speed>
  <fix>3d</fix>
</trkpt>
<trkpt lat="33.8105994" lon="-118.3934895">
  <ele>-4.592</ele>
  <time>2026-09-02T22:09:21Z</time>
  <course>158.06</course>
  <speed>0.8860022573334675</speed>
  <fix>3d</fix>
</trkpt>
<trkpt lat="33.8105999" lon="-118.3934911">
  <ele>-4.08</ele>
  <time>2026-09-02T22:09:21Z</time>
  <course>106.34</course>
  <speed>0.85</speed>
  <fix>3d</fix>
</trkpt>
<trkpt lat="33.8105992" lon="-118.3934887">
  <ele>-4.593</ele>
  <time>2026-09-02T22:09:21Z</time>
  <course>158.04</course>
  <speed>0.8860022573334675</speed>
  <fix>3d</fix>
</trkpt>
<trkpt lat="33.8105999" lon="-118.3934911">
  <ele>-4.08</ele>
  <time>2026-09-02T22:09:21Z</time>
  <course>106.34</course>
  <speed>0.85</speed>
  <fix>3d</fix>
</trkpt>
<trkpt lat="33.810599" lon="-118.3934878">
  <ele>-4.594</ele>
  <time>2026-09-02T22:09:21Z</time>
  <course>158.04</course>
  <speed>0.8860022573334675</speed>
  <fix>3d</fix>
</trkpt>
<trkpt lat="33.8105994" lon="-118.3934894">
  <ele>-4.08</ele>
  <time>2026-09-02T22:09:21Z</time>
  <course>106.41</course>
  <speed>0.85</speed>
  <fix>3d</fix>
</trkpt>
<trkpt lat="33.8105988" lon="-118.3934869">
  <ele>-4.595</ele>
  <time>2026-09-02T22:09:21Z</time>
  <course>158.04</course>
  <speed>0.8860022573334675</speed>
  <fix>3d</fix>
</trkpt>
<trkpt lat="33.8105994" lon="-118.3934894">
  <ele>-4.08</ele>
  <time>2026-09-02T22:09:21Z</time>
  <course>106.41</course>
  <speed>0.85</speed>
  <fix>3d</fix>
</trkpt>
<trkpt lat="33.8105986" lon="-118.393486">
  <ele>-4.595</ele>
  <time>2026-09-02T22:09:21Z</time>
  <course>158.05</course>
  <speed>0.8860022573334675</speed>
  <fix>3d</fix>
</trkpt>
<trkpt lat="33.8105989" lon="-118.3934875">
  <ele>-4.08</ele>
  <time>2026-09-02T22:09:21Z</time>
  <course>106.49</course>
  <speed>0.85</speed>
  <fix>3d</fix>
</trkpt>
<trkpt lat="33.8105984" lon="-118.3934851">
  <ele>-4.595</ele>
  <time>2026-09-02T22:09:21Z</time>
  <course>158.05</course>
  <speed>0.8860022573334675</speed>
  <fix>3d</fix>
</trkpt>
<trkpt lat="33.8105989" lon="-118.3934875">
  <ele>-4.08</ele>
  <time>2026-09-02T22:09:21Z</time>
  <course>106.49</course>
  <speed>0.85</speed>
  <fix>3d</fix>
</trkpt>
<trkpt lat="33.8105981" lon="-118.3934842">
  <ele>-4.593</ele>
  <time>2026-09-02T22:09:21Z</time>
  <course>158.05</course>
  <speed>0.8860022573334675</speed>
  <fix>3d</fix>
</trkpt>
<trkpt lat="33.8105985" lon="-118.3934858">
  <ele>-4.08</ele>
  <time>2026-09-02T22:09:21Z</time>
  <course>106.49</course>
  <speed>0.86</speed>
  <fix>3d</fix>
</trkpt>
<trkpt lat="33.8105979" lon="-118.3934833">
  <ele>-4.593</ele>
  <time>2026-09-02T22:09:21Z</time>
  <course>158.04</course>
  <speed>0.8860022573334675</speed>
  <fix>3d</fix>
</trkpt>
<trkpt lat="33.8105985" lon="-118.3934858">
  <ele>-4.08</ele>
  <time>2026-09-02T22:09:21Z</time>
  <course>106.49</course>
  <speed>0.86</speed>
  <fix>3d</fix>
</trkpt>
<trkpt lat="33.8105977" lon="-118.3934824">
  <ele>-4.594</ele>
  <time>2026-09-02T22:09:21Z</time>
  <course>158.05</course>
  <speed>0.8860022573334675</speed>
  <fix>3d</fix>
</trkpt>
<trkpt lat="33.810598" lon="-118.393484">
  <ele>-4.08</ele>
  <time>2026-09-02T22:09:21Z</time>
  <course>106.45</course>
  <speed>0.86</speed>
  <fix>3d</fix>
</trkpt>
<trkpt lat="33.8105975" lon="-118.3934815">
  <ele>-4.595</ele>
  <time>2026-09-02T22:09:21Z</time>
  <course>158.05</course>
  <speed>0.8956003573022958</speed>
  <fix>3d</fix>
</trkpt>
<trkpt lat="33.810598" lon="-118.393484">
  <ele>-4.08</ele>
  <time>2026-09-02T22:09:21Z</time>
  <course>106.45</course>
  <speed>0.86</speed>
  <fix>3d</fix>
</trkpt>
<trkpt lat="33.8105972" lon="-118.3934806">
  <ele>-4.597</ele>
  <time>2026-09-02T22:09:21Z</time>
  <course>158.04</course>
  <speed>0.8956003573022958</speed>
  <fix>3d</fix>
</trkpt>
<trkpt lat="33.8105977" lon="-118.3934822">
  <ele>-4.08</ele>
  <time>2026-09-02T22:09:21Z</time>
  <course>106.4</course>
  <speed>0.86</speed>
  <fix>3d</fix>
</trkpt>
<trkpt lat="33.810597" lon="-118.3934797">
  <ele>-4.598</ele>
  <time>2026-09-02T22:09:21Z</time>
  <course>158.04</course>
  <speed>0.8956003573022958</speed>
  <fix>3d</fix>
</trkpt>
<trkpt lat="33.8105977" lon="-118.3934822">
  <ele>-4.08</ele>
  <time>2026-09-02T22:09:21Z</time>
  <course>106.4</course>
  <speed>0.86</speed>
  <fix>3d</fix>
</trkpt>
<trkpt lat="33.8105968" lon="-118.3934788">
  <ele>-4.598</ele>
  <time>2026-09-02T22:09:21Z</time>
  <course>158.05</course>
  <speed>0.8956003573022958</speed>
  <fix>3d</fix>
</trkpt>
<trkpt lat="33.8105972" lon="-118.3934803">
  <ele>-4.08</ele>
  <time>2026-09-02T22:09:21Z</time>
  <course>106.38</course>
  <speed>0.86</speed>
  <fix>3d</fix>
</trkpt>
<trkpt lat="33.8105966" lon="-118.3934779">
  <ele>-4.596</ele>
  <time>2026-09-02T22:09:21Z</time>
  <course>158.05</course>
  <speed>0.8956003573022958</speed>
  <fix>3d</fix>
</trkpt>
<trkpt lat="33.8105972" lon="-118.3934803">
  <ele>-4.08</ele>
  <time>2026-09-02T22:09:21Z</time>
  <course>106.38</course>
  <speed>0.86</speed>
  <fix>3d</fix>
</trkpt>
<trkpt lat="33.8105964" lon="-118.393477">
  <ele>-4.593</ele>
  <time>2026-09-02T22:09:21Z</time>
  <course>158.05</course>
  <speed>0.8984430978086481</speed>
  <fix>3d</fix>
</trkpt>
<trkpt lat="33.8105968" lon="-118.3934786">
  <ele>-4.08</ele>
  <time>2026-09-02T22:09:21Z</time>
  <course>106.43</course>
  <speed>0.86</speed>
  <fix>3d</fix>
</trkpt>
<trkpt lat="33.8105961" lon="-118.3934761">
  <ele>-4.59</ele>
  <time>2026-09-02T22:09:21Z</time>
  <course>158.06</course>
  <speed>0.8984430978086481</speed>
  <fix>3d</fix>
</trkpt>
<trkpt lat="33.8105968" lon="-118.3934786">
  <ele>-4.08</ele>
  <time>2026-09-02T22:09:21Z</time>
  <course>106.43</course>
  <speed>0.86</speed>
  <fix>3d</fix>
</trkpt>
<trkpt lat="33.8105959" lon="-118.3934752">
  <ele>-4.59</ele>
  <time>2026-09-02T22:09:21Z</time>
  <course>158.06</course>
  <speed>0.8984430978086481</speed>
  <fix>3d</fix>
</trkpt>
<trkpt lat="33.8105963" lon="-118.3934768">
  <ele>-4.08</ele>
  <time>2026-09-02T22:09:21Z</time>
  <course>106.49</course>
  <speed>0.87</speed>
  <fix>3d</fix>
</trkpt>
<trkpt lat="33.8105957" lon="-118.3934743">
  <ele>-4.591</ele>
  <time>2026-09-02T22:09:21Z</time>
  <course>158.05</course>
  <speed>0.9080198235721508</speed>
  <fix>3d</fix>
</trkpt>
<trkpt lat="33.8105963" lon="-118.3934768">
  <ele>-4.08</ele>
  <time>2026-09-02T22:09:21Z</time>
  <course>106.49</course>
  <speed>0.87</speed>
  <fix>3d</fix>
</trkpt>
<trkpt lat="33.8105955" lon="-118.3934734">
  <ele>-4.592</ele>
  <time>2026-09-02T22:09:21Z</time>
  <course>158.04</course>
  <speed>0.9080198235721508</speed>
  <fix>3d</fix>
</trkpt>
<trkpt lat="33.8105958" lon="-118.393475">
  <ele>-4.08</ele>
  <time>2026-09-02T22:09:21Z</time>
  <course>106.54</course>
  <speed>0.87</speed>
  <fix>3d</fix>
</trkpt>
<trkpt lat="33.8105953" lon="-118.3934725">
  <ele>-4.593</ele>
  <time>2026-09-02T22:09:21Z</time>
  <course>158.04</course>
  <speed>0.9080198235721508</speed>
  <fix>3d</fix>
</trkpt>
<trkpt lat="33.8105958" lon="-118.393475">
  <ele>-4.08</ele>
  <time>2026-09-02T22:09:21Z</time>
  <course>106.54</course>
  <speed>0.87</speed>
  <fix>3d</fix>
</trkpt>
<trkpt lat="33.810595" lon="-118.3934715">
  <ele>-4.594</ele>
  <time>2026-09-02T22:09:21Z</time>
  <course>158.04</course>
  <speed>0.9080198235721508</speed>
  <fix>3d</fix>
</trkpt>
<trkpt lat="33.8105954" lon="-118.3934732">
  <ele>-4.08</ele>
  <time>2026-09-02T22:09:21Z</time>
  <course>106.52</course>
  <speed>0.87</speed>
  <fix>3d</fix>
</trkpt>
<trkpt lat="33.8105948" lon="-118.3934706">
  <ele>-4.596</ele>
  <time>2026-09-02T22:09:21Z</time>
  <course>158.05</course>
  <speed>0.9080198235721508</speed>
  <fix>3d</fix>
</trkpt>
<trkpt lat="33.8105954" lon="-118.3934732">
  <ele>-4.08</ele>
  <time>2026-09-02T22:09:21Z</time>
  <course>106.52</course>
  <speed>0.87</speed>
  <fix>3d</fix>
</trkpt>
<trkpt lat="33.8105946" lon="-118.3934697">
  <ele>-4.599</ele>
  <time>2026-09-02T22:09:21Z</time>
  <course>158.06</course>
  <speed>0.9080198235721508</speed>
  <fix>3d</fix>
</trkpt>
<trkpt lat="33.810595" lon="-118.3934714">
  <ele>-4.09</ele>
  <time>2026-09-02T22:09:21Z</time>
  <course>106.46</course>
  <speed>0.87</speed>
  <fix>3d</fix>
</trkpt>
<trkpt lat="33.8105943" lon="-118.3934688">
  <ele>-4.601</ele>
  <time>2026-09-02T22:09:21Z</time>
  <course>158.06</course>
  <speed>0.9080198235721508</speed>
  <fix>3d</fix>
</trkpt>
<trkpt lat="33.810595" lon="-118.3934714">
  <ele>-4.09</ele>
  <time>2026-09-02T22:09:21Z</time>
  <course>106.46</course>
  <speed>0.87</speed>
  <fix>3d</fix>
</trkpt>
<trkpt lat="33.8105941" lon="-118.3934679">
  <ele>-4.602</ele>
  <time>2026-09-02T22:09:21Z</time>
  <course>158.05</course>
  <speed>0.9080198235721508</speed>
  <fix>3d</fix>
</trkpt>
<trkpt lat="33.8105945" lon="-118.3934695">
  <ele>-4.09</ele>
  <time>2026-09-02T22:09:21Z</time>
  <course>106.44</course>
  <speed>0.88</speed>
  <fix>3d</fix>
</trkpt>
<trkpt lat="33.8105939" lon="-118.393467">
  <ele>-4.602</ele>
  <time>2026-09-02T22:09:21Z</time>
  <course>158.05</course>
  <speed>0.9176055797563569</speed>
  <fix>3d</fix>
</trkpt>
<trkpt lat="33.8105945" lon="-118.3934695">
  <ele>-4.09</ele>
  <time>2026-09-02T22:09:21Z</time>
  <course>106.44</course>
  <speed>0.88</speed>
  <fix>3d</fix>
</trkpt>
<trkpt lat="33.8105937" lon="-118.3934661">
  <ele>-4.602</ele>
  <time>2026-09-02T22:09:21Z</time>
  <course>158.04</course>
  <speed>0.9176055797563569</speed>
  <fix>3d</fix>
</trkpt>
<trkpt lat="33.8105941" lon="-118.3934677">
  <ele>-4.09</ele>
  <time>2026-09-02T22:09:21Z</time>
  <course>106.44</course>
  <speed>0.88</speed>
  <fix>3d</fix>
</trkpt>
<trkpt lat="33.8105934" lon="-118.3934651">
  <ele>-4.601</ele>
  <time>2026-09-02T22:09:21Z</time>
  <course>158.04</course>
  <speed>0.9176055797563569</speed>
  <fix>3d</fix>
</trkpt>
<trkpt lat="33.8105941" lon="-118.3934677">
  <ele>-4.09</ele>
  <time>2026-09-02T22:09:21Z</time>
  <course>106.44</course>
  <speed>0.88</speed>
  <fix>3d</fix>
</trkpt>
<trkpt lat="33.8105932" lon="-118.3934642">
  <ele>-4.599</ele>
  <time>2026-09-02T22:09:21Z</time>
  <course>158.04</course>
  <speed>0.9176055797563569</speed>
  <fix>3d</fix>
</trkpt>
<trkpt lat="33.8105936" lon="-118.3934659">
  <ele>-4.09</ele>
  <time>2026-09-02T22:09:21Z</time>
  <course>106.47</course>
  <speed>0.88</speed>
  <fix>3d</fix>
</trkpt>
<trkpt lat="33.810593" lon="-118.3934633">
  <ele>-4.597</ele>
  <time>2026-09-02T22:09:21Z</time>
  <course>158.05</course>
  <speed>0.9176055797563569</speed>
  <fix>3d</fix>
</trkpt>
<trkpt lat="33.8105936" lon="-118.3934659">
  <ele>-4.09</ele>
  <time>2026-09-02T22:09:21Z</time>
  <course>106.47</course>
  <speed>0.88</speed>
  <fix>3d</fix>
</trkpt>
<trkpt lat="33.8105928" lon="-118.3934624">
  <ele>-4.596</ele>
  <time>2026-09-02T22:09:21Z</time>
  <course>158.05</course>
  <speed>0.9176055797563569</speed>
  <fix>3d</fix>
</trkpt>
<trkpt lat="33.8105932" lon="-118.393464">
  <ele>-4.09</ele>
  <time>2026-09-02T22:09:21Z</time>
  <course>106.48</course>
  <speed>0.88</speed>
  <fix>3d</fix>
</trkpt>
<trkpt lat="33.8105925" lon="-118.3934615">
  <ele>-4.596</ele>
  <time>2026-09-02T22:09:21Z</time>
  <course>158.06</course>
  <speed>0.9176055797563569</speed>
  <fix>3d</fix>
</trkpt>
<trkpt lat="33.8105932" lon="-118.393464">
  <ele>-4.09</ele>
  <time>2026-09-02T22:09:21Z</time>
  <course>106.48</course>
  <speed>0.88</speed>
  <fix>3d</fix>
</trkpt>
<trkpt lat="33.8105923" lon="-118.3934605">
  <ele>-4.596</ele>
  <time>2026-09-02T22:09:21Z</time>
  <course>158.06</course>
  <speed>0.9176055797563569</speed>
  <fix>3d</fix>
</trkpt>
<trkpt lat="33.8105927" lon="-118.3934621">
  <ele>-4.08</ele>
  <time>2026-09-02T22:09:21Z</time>
  <course>106.5</course>
  <speed>0.89</speed>
  <fix>3d</fix>
</trkpt>
<trkpt lat="33.8105921" lon="-118.3934596">
  <ele>-4.598</ele>
  <time>2026-09-02T22:09:21Z</time>
  <course>158.06</course>
  <speed>0.9176055797563569</speed>
  <fix>3d</fix>
</trkpt>
<trkpt lat="33.8105927" lon="-118.3934621">
  <ele>-4.08</ele>
  <time>2026-09-02T22:09:21Z</time>
  <course>106.5</course>
  <speed>0.89</speed>
  <fix>3d</fix>
</trkpt>
<trkpt lat="33.8105919" lon="-118.3934587">
  <ele>-4.599</ele>
  <time>2026-09-02T22:09:21Z</time>
  <course>158.06</course>
  <speed>0.9176055797563569</speed>
  <fix>3d</fix>
</trkpt>
<trkpt lat="33.8105922" lon="-118.3934603">
  <ele>-4.08</ele>
  <time>2026-09-02T22:09:21Z</time>
  <course>106.53</course>
  <speed>0.89</speed>
  <fix>3d</fix>
</trkpt>
<trkpt lat="33.8105916" lon="-118.3934577">
  <ele>-4.599</ele>
  <time>2026-09-02T22:09:21Z</time>
  <course>158.05</course>
  <speed>0.9176055797563569</speed>
  <fix>3d</fix>
</trkpt>
<trkpt lat="33.8105922" lon="-118.3934603">
  <ele>-4.08</ele>
  <time>2026-09-02T22:09:21Z</time>
  <course>106.53</course>
  <speed>0.89</speed>
  <fix>3d</fix>
</trkpt>
<trkpt lat="33.8105914" lon="-118.3934568">
  <ele>-4.598</ele>
  <time>2026-09-02T22:09:21Z</time>
  <course>158.04</course>
  <speed>0.9176055797563569</speed>
  <fix>3d</fix>
</trkpt>
<trkpt lat="33.8105918" lon="-118.3934585">
  <ele>-4.08</ele>
  <time>2026-09-02T22:09:21Z</time>
  <course>106.51</course>
  <speed>0.89</speed>
  <fix>3d</fix>
</trkpt>
<trkpt lat="33.8105912" lon="-118.393456">
  <ele>-4.596</ele>
  <time>2026-09-02T22:09:21Z</time>
  <course>158.03</course>
  <speed>0.7022819946431775</speed>
  <fix>3d</fix>
</trkpt>
<trkpt lat="33.8105918" lon="-118.3934585">
  <ele>-4.08</ele>
  <time>2026-09-02T22:09:21Z</time>
  <course>106.51</course>
  <speed>0.89</speed>
  <fix>3d</fix>
</trkpt>
<trkpt lat="33.810591" lon="-118.3934554">
  <ele>-4.594</ele>
  <time>2026-09-02T22:09:21Z</time>
  <course>158.03</course>
  <speed>0.570087712549569</speed>
  <fix>3d</fix>
</trkpt>
<trkpt lat="33.8105913" lon="-118.3934567">
  <ele>-4.08</ele>
  <time>2026-09-02T22:09:21Z</time>
  <course>108.06</course>
  <speed>0.76</speed>
  <fix>3d</fix>
</trkpt>
<trkpt lat="33.8105908" lon="-118.3934549">
  <ele>-4.591</ele>
  <time>2026-09-02T22:09:21Z</time>
  <course>158.03</course>
  <speed>0.47927027865287036</speed>
  <fix>3d</fix>
</trkpt>
<trkpt lat="33.8105913" lon="-118.3934567">
  <ele>-4.08</ele>
  <time>2026-09-02T22:09:21Z</time>
  <course>108.06</course>
  <speed>0.76</speed>
  <fix>3d</fix>
</trkpt>
<trkpt lat="33.8105907" lon="-118.3934545">
  <ele>-4.589</ele>
  <time>2026-09-02T22:09:21Z</time>
  <course>158.02</course>
  <speed>0.416293165929973</speed>
  <fix>3d</fix>
</trkpt>
<trkpt lat="33.810591" lon="-118.3934554">
  <ele>-4.08</ele>
  <time>2026-09-02T22:09:21Z</time>
  <course>111.59</course>
  <speed>0.53</speed>
  <fix>3d</fix>
</trkpt>
<trkpt lat="33.8105905" lon="-118.3934541">
  <ele>-4.587</ele>
  <time>2026-09-02T22:09:21Z</time>
  <course>158.02</course>
  <speed>0.3624913792078372</speed>
  <fix>3d</fix>
</trkpt>
<trkpt lat="33.810591" lon="-118.3934554">
  <ele>-4.08</ele>
  <time>2026-09-02T22:09:21Z</time>
  <course>111.59</course>
  <speed>0.53</speed>
  <fix>3d</fix>
</trkpt>
<trkpt lat="33.8105904" lon="-118.3934538">
  <ele>-4.585</ele>
  <time>2026-09-02T22:09:21Z</time>
  <course>158.02</course>
  <speed>0.33105890714493696</speed>
  <fix>3d</fix>
</trkpt>
<trkpt lat="33.8105907" lon="-118.3934545">
  <ele>-4.07</ele>
  <time>2026-09-02T22:09:21Z</time>
  <course>114.29</course>
  <speed>0.38</speed>
  <fix>3d</fix>
</trkpt>
<trkpt lat="33.8105903" lon="-118.3934535">
  <ele>-4.581</ele>
  <time>2026-09-02T22:09:21Z</time>
  <course>158.01</course>
  <speed>0.29966648127543394</speed>
  <fix>3d</fix>
</trkpt>
<trkpt lat="33.8105907" lon="-118.3934545">
  <ele>-4.07</ele>
  <time>2026-09-02T22:09:21Z</time>
  <course>114.29</course>
  <speed>0.38</speed>
  <fix>3d</fix>
</trkpt>
<trkpt lat="33.8105902" lon="-118.3934533">
  <ele>-4.575</ele>
  <time>2026-09-02T22:09:21Z</time>
  <course>158.01</course>
  <speed>0.27730849247724093</speed>
  <fix>3d</fix>
</trkpt>
<trkpt lat="33.8105904" lon="-118.3934538">
  <ele>-4.06</ele>
  <time>2026-09-02T22:09:21Z</time>
  <course>115.71</course>
  <speed>0.29</speed>
  <fix>3d</fix>
</trkpt>
<trkpt lat="33.8105901" lon="-118.393453">
  <ele>-4.57</ele>
  <time>2026-09-02T22:09:21Z</time>
  <course>158.01</course>
  <speed>0.25495097567963926</speed>
  <fix>3d</fix>
</trkpt>
<trkpt lat="33.8105904" lon="-118.3934538">
  <ele>-4.06</ele>
  <time>2026-09-02T22:09:21Z</time>
  <course>115.71</course>
  <speed>0.29</speed>
  <fix>3d</fix>
</trkpt>
<trkpt lat="33.81059" lon="-118.3934528">
  <ele>-4.564</ele>
  <time>2026-09-02T22:09:21Z</time>
  <course>158.01</course>
  <speed>0.24596747752497689</speed>
  <fix>3d</fix>
</trkpt>
<trkpt lat="33.8105902" lon="-118.3934533">
  <ele>-4.05</ele>
  <time>2026-09-02T22:09:21Z</time>
  <course>116.59</course>
  <speed>0.24</speed>
  <fix>3d</fix>
</trkpt>
<trkpt lat="33.8105899" lon="-118.3934526">
  <ele>-4.558</ele>
  <time>2026-09-02T22:09:21Z</time>
  <course>158.0</course>
  <speed>0.223606797749979</speed>
  <fix>3d</fix>
</trkpt>
<trkpt lat="33.8105902" lon="-118.3934533">
  <ele>-4.05</ele>
  <time>2026-09-02T22:09:21Z</time>
  <course>116.59</course>
  <speed>0.24</speed>
  <fix>3d</fix>
</trkpt>
<trkpt lat="33.8105898" lon="-118.3934524">
  <ele>-4.55</ele>
  <time>2026-09-02T22:09:21Z</time>
  <course>158.0</course>
  <speed>0.21470910553583888</speed>
  <fix>3d</fix>
</trkpt>
<trkpt lat="33.81059" lon="-118.3934529">
  <ele>-4.04</ele>
  <time>2026-09-02T22:09:21Z</time>
  <course>117.19</course>
  <speed>0.2</speed>
  <fix>3d</fix>
</trkpt>
<trkpt lat="33.8105897" lon="-118.3934522">
  <ele>-4.543</ele>
  <time>2026-09-02T22:09:21Z</time>
  <course>158.0</course>
  <speed>0.20124611797498107</speed>
  <fix>3d</fix>
</trkpt>
<trkpt lat="33.81059" lon="-118.3934529">
  <ele>-4.04</ele>
  <time>2026-09-02T22:09:21Z</time>
  <course>117.19</course>
  <speed>0.2</speed>
  <fix>3d</fix>
</trkpt>
<trkpt lat="33.8105897" lon="-118.393452">
  <ele>-4.535</ele>
  <time>2026-09-02T22:09:21Z</time>
  <course>157.99</course>
  <speed>0.19235384061671343</speed>
  <fix>3d</fix>
</trkpt>
<trkpt lat="33.8105898" lon="-118.3934525">
  <ele>-4.03</ele>
  <time>2026-09-02T22:09:21Z</time>
  <course>117.64</course>
  <speed>0.17</speed>
  <fix>3d</fix>
</trkpt>
<trkpt lat="33.8105896" lon="-118.3934519">
  <ele>-4.527</ele>
  <time>2026-09-02T22:09:21Z</time>
  <course>157.99</course>
  <speed>0.18788294228055935</speed>
  <fix>3d</fix>
</trkpt>
<trkpt lat="33.8105898" lon="-118.3934525">
  <ele>-4.03</ele>
  <time>2026-09-02T22:09:21Z</time>
  <course>117.64</course>
  <speed>0.17</speed>
  <fix>3d</fix>
</trkpt>
<trkpt lat="33.8105895" lon="-118.3934517">
  <ele>-4.518</ele>
  <time>2026-09-02T22:09:21Z</time>
  <course>157.99</course>
  <speed>0.17888543819998318</speed>
  <fix>3d</fix>
</trkpt>
<trkpt lat="33.8105897" lon="-118.3934521">
  <ele>-4.02</ele>
  <time>2026-09-02T22:09:21Z</time>
  <course>117.98</course>
  <speed>0.15</speed>
  <fix>3d</fix>
</trkpt>
<trkpt lat="33.8105895" lon="-118.3934516">
  <ele>-4.51</ele>
  <time>2026-09-02T22:09:21Z</time>
  <course>157.98</course>
  <speed>0.17</speed>
  <fix>3d</fix>
</trkpt>
<trkpt lat="33.8105897" lon="-118.3934521">
  <ele>-4.02</ele>
  <time>2026-09-02T22:09:21Z</time>
  <course>117.98</course>
  <speed>0.15</speed>
  <fix>3d</fix>
</trkpt>
<trkpt lat="33.8105894" lon="-118.3934514">
  <ele>-4.501</ele>
  <time>2026-09-02T22:09:21Z</time>
  <course>157.98</course>
  <speed>0.16552945357246848</speed>
  <fix>3d</fix>
</trkpt>
<trkpt lat="33.8105896" lon="-118.3934519">
  <ele>-4.01</ele>
  <time>2026-09-02T22:09:21Z</time>
  <course>118.25</course>
  <speed>0.14</speed>
  <fix>3d</fix>
</trkpt>
<trkpt lat="33.8105894" lon="-118.3934513">
  <ele>-4.492</ele>
  <time>2026-09-02T22:09:21Z</time>
  <course>157.98</course>
  <speed>0.15652475842498528</speed>
  <fix>3d</fix>
</trkpt>
<trkpt lat="33.8105896" lon="-118.3934519">
  <ele>-4.01</ele>
  <time>2026-09-02T22:09:21Z</time>
  <course>118.25</course>
  <speed>0.14</speed>
  <fix>3d</fix>
</trkpt>
<trkpt lat="33.8105893" lon="-118.3934512">
  <ele>-4.484</ele>
  <time>2026-09-02T22:09:21Z</time>
  <course>157.97</course>
  <speed>0.15652475842498528</speed>
  <fix>3d</fix>
</trkpt>
<trkpt lat="33.8105895" lon="-118.3934516">
  <ele>-3.99</ele>
  <time>2026-09-02T22:09:21Z</time>
  <course>118.45</course>
  <speed>0.12</speed>
  <fix>3d</fix>
</trkpt>
<trkpt lat="33.8105893" lon="-118.3934511">
  <ele>-4.475</ele>
  <time>2026-09-02T22:09:21Z</time>
  <course>157.97</course>
  <speed>0.147648230602334</speed>
  <fix>3d</fix>
</trkpt>
<trkpt lat="33.8105895" lon="-118.3934516">
  <ele>-3.99</ele>
  <time>2026-09-02T22:09:21Z</time>
  <course>118.45</course>
  <speed>0.12</speed>
  <fix>3d</fix>
</trkpt>
<trkpt lat="33.8105892" lon="-118.393451">
  <ele>-4.466</ele>
  <time>2026-09-02T22:09:21Z</time>
  <course>157.97</course>
  <speed>0.14317821063276354</speed>
  <fix>3d</fix>
</trkpt>
<trkpt lat="33.8105893" lon="-118.3934514">
  <ele>-3.97</ele>
  <time>2026-09-02T22:09:21Z</time>
  <course>118.62</course>
  <speed>0.11</speed>
  <fix>3d</fix>
</trkpt>
<trkpt lat="33.8105892" lon="-118.3934509">
  <ele>-4.456</ele>
  <time>2026-09-02T22:09:21Z</time>
  <course>157.96</course>
  <speed>0.1341640786499874</speed>
  <fix>3d</fix>
</trkpt>
<trkpt lat="33.8105893" lon="-118.3934514">
  <ele>-3.97</ele>
  <time>2026-09-02T22:09:21Z</time>
  <course>118.62</course>
  <speed>0.11</speed>
  <fix>3d</fix>
</trkpt>
<trkpt lat="33.8105891" lon="-118.3934507">
  <ele>-4.446</ele>
  <time>2026-09-02T22:09:21Z</time>
  <course>157.96</course>
  <speed>0.1341640786499874</speed>
  <fix>3d</fix>
</trkpt>
<trkpt lat="33.8105892" lon="-118.3934511">
  <ele>-3.96</ele>
  <time>2026-09-02T22:09:21Z</time>
  <course>118.76</course>
  <speed>0.1</speed>
  <fix>3d</fix>
</trkpt>
<trkpt lat="33.8105891" lon="-118.3934506">
  <ele>-4.436</ele>
  <time>2026-09-02T22:09:21Z</time>
  <course>157.96</course>
  <speed>0.1341640786499874</speed>
  <fix>3d</fix>
</trkpt>
<trkpt lat="33.8105892" lon="-118.3934511">
  <ele>-3.96</ele>
  <time>2026-09-02T22:09:21Z</time>
  <course>118.76</course>
  <speed>0.1</speed>
  <fix>3d</fix>
</trkpt>
<trkpt lat="33.810589" lon="-118.3934505">
  <ele>-4.425</ele>
  <time>2026-09-02T22:09:21Z</time>
  <course>157.95</course>
  <speed>0.12529964086141668</speed>
  <fix>3d</fix>
</trkpt>
<trkpt lat="33.8105892" lon="-118.393451">
  <ele>-3.94</ele>
  <time>2026-09-02T22:09:21Z</time>
  <course>118.9</course>
  <speed>0.1</speed>
  <fix>3d</fix>
</trkpt>
<trkpt lat="33.810589" lon="-118.3934505">
  <ele>-4.415</ele>
  <time>2026-09-02T22:09:21Z</time>
  <course>157.95</course>
  <speed>0.12083045973594572</speed>
  <fix>3d</fix>
</trkpt>
<trkpt lat="33.8105892" lon="-118.393451">
  <ele>-3.94</ele>
  <time>2026-09-02T22:09:21Z</time>
  <course>118.9</course>
  <speed>0.1</speed>
  <fix>3d</fix>
</trkpt>
<trkpt lat="33.8105889" lon="-118.3934504">
  <ele>-4.405</ele>
  <time>2026-09-02T22:09:21Z</time>
  <course>157.95</course>
  <speed>0.12083045973594572</speed>
  <fix>3d</fix>
</trkpt>
<trkpt lat="33.8105891" lon="-118.3934507">
  <ele>-3.92</ele>
  <time>2026-09-02T22:09:21Z</time>
  <course>119.01</course>
  <speed>0.09</speed>
  <fix>3d</fix>
</trkpt>
<trkpt lat="33.8105889" lon="-118.3934503">
  <ele>-4.395</ele>
  <time>2026-09-02T22:09:21Z</time>
  <course>157.94</course>
  <speed>0.12083045973594572</speed>
  <fix>3d</fix>
</trkpt>
<trkpt lat="33.8105891" lon="-118.3934507">
  <ele>-3.92</ele>
  <time>2026-09-02T22:09:21Z</time>
  <course>119.01</course>
  <speed>0.09</speed>
  <fix>3d</fix>
</trkpt>
<trkpt lat="33.8105889" lon="-118.3934502">
  <ele>-4.385</ele>
  <time>2026-09-02T22:09:21Z</time>
  <course>157.94</course>
  <speed>0.1118033988749895</speed>
  <fix>3d</fix>
</trkpt>
<trkpt lat="33.810589" lon="-118.3934506">
  <ele>-3.91</ele>
  <time>2026-09-02T22:09:21Z</time>
  <course>119.1</course>
  <speed>0.08</speed>
  <fix>3d</fix>
</trkpt>
<trkpt lat="33.8105888" lon="-118.3934501">
  <ele>-4.376</ele>
  <time>2026-09-02T22:09:21Z</time>
  <course>157.93</course>
  <speed>0.1118033988749895</speed>
  <fix>3d</fix>
</trkpt>
<trkpt lat="33.810589" lon="-118.3934506">
  <ele>-3.91</ele>
  <time>2026-09-02T22:09:21Z</time>
  <course>119.1</course>
  <speed>0.08</speed>
  <fix>3d</fix>
</trkpt>
<trkpt lat="33.8105887" lon="-118.3934498">
  <ele>-4.341</ele>
  <time>2026-09-02T22:09:21Z</time>
  <course>157.92</course>
  <speed>0.09848857801796104</speed>
  <fix>3d</fix>
</trkpt>
<trkpt lat="33.8105889" lon="-118.3934503">
  <ele>-3.87</ele>
  <time>2026-09-02T22:09:21Z</time>
  <course>119.24</course>
  <speed>0.07</speed>
  <fix>3d</fix>
</trkpt>
<trkpt lat="33.8105886" lon="-118.3934496">
  <ele>-4.311</ele>
  <time>2026-09-02T22:09:22Z</time>
  <course>157.91</course>
  <speed>0.09848857801796104</speed>
  <fix>3d</fix>
</trkpt>
<trkpt lat="33.8105887" lon="-118.39345">
  <ele>-3.83</ele>
  <time>2026-09-02T22:09:22Z</time>
  <course>119.37</course>
  <speed>0.06</speed>
  <fix>3d</fix>
</trkpt>
<trkpt lat="33.8105886" lon="-118.3934496">
  <ele>-4.302</ele>
  <time>2026-09-02T22:09:22Z</time>
  <course>157.9</course>
  <speed>0.08944271909999159</speed>
  <fix>3d</fix>
</trkpt>
<trkpt lat="33.8105887" lon="-118.39345">
  <ele>-3.83</ele>
  <time>2026-09-02T22:09:22Z</time>
  <course>119.37</course>
  <speed>0.06</speed>
  <fix>3d</fix>
</trkpt>
<trkpt lat="33.8105886" lon="-118.3934495">
  <ele>-4.293</ele>
  <time>2026-09-02T22:09:22Z</time>
  <course>157.9</course>
  <speed>0.08944271909999159</speed>
  <fix>3d</fix>
</trkpt>
<trkpt lat="33.8105886" lon="-118.3934499">
  <ele>-3.81</ele>
  <time>2026-09-02T22:09:22Z</time>
  <course>119.43</course>
  <speed>0.06</speed>
  <fix>3d</fix>
</trkpt>
<trkpt lat="33.8105885" lon="-118.3934495">
  <ele>-4.284</ele>
  <time>2026-09-02T22:09:22Z</time>
  <course>157.89</course>
  <speed>0.08944271909999159</speed>
  <fix>3d</fix>
</trkpt>
<trkpt lat="33.8105886" lon="-118.3934499">
  <ele>-3.81</ele>
  <time>2026-09-02T22:09:22Z</time>
  <course>119.43</course>
  <speed>0.06</speed>
  <fix>3d</fix>
</trkpt>
<trkpt lat="33.8105885" lon="-118.3934494">
  <ele>-4.273</ele>
  <time>2026-09-02T22:09:22Z</time>
  <course>157.89</course>
  <speed>0.08944271909999159</speed>
  <fix>3d</fix>
</trkpt>
<trkpt lat="33.8105886" lon="-118.3934498">
  <ele>-3.79</ele>
  <time>2026-09-02T22:09:22Z</time>
  <course>119.48</course>
  <speed>0.06</speed>
  <fix>3d</fix>
</trkpt>
<trkpt lat="33.8105885" lon="-118.3934494">
  <ele>-4.264</ele>
  <time>2026-09-02T22:09:22Z</time>
  <course>157.89</course>
  <speed>0.08944271909999159</speed>
  <fix>3d</fix>
</trkpt>
<trkpt lat="33.8105886" lon="-118.3934498">
  <ele>-3.79</ele>
  <time>2026-09-02T22:09:22Z</time>
  <course>119.48</course>
  <speed>0.06</speed>
  <fix>3d</fix>
</trkpt>
<trkpt lat="33.8105885" lon="-118.3934493">
  <ele>-4.255</ele>
  <time>2026-09-02T22:09:22Z</time>
  <course>157.88</course>
  <speed>0.08944271909999159</speed>
  <fix>3d</fix>
</trkpt>
<trkpt lat="33.8105885" lon="-118.3934497">
  <ele>-3.78</ele>
  <time>2026-09-02T22:09:22Z</time>
  <course>119.51</course>
  <speed>0.06</speed>
  <fix>3d</fix>
</trkpt>
<trkpt lat="33.8105884" lon="-118.3934493">
  <ele>-4.247</ele>
  <time>2026-09-02T22:09:22Z</time>
  <course>157.88</course>
  <speed>0.08062257748298549</speed>
  <fix>3d</fix>
</trkpt>
<trkpt lat="33.8105885" lon="-118.3934497">
  <ele>-3.78</ele>
  <time>2026-09-02T22:09:22Z</time>
  <course>119.51</course>
  <speed>0.06</speed>
  <fix>3d</fix>
</trkpt>
<trkpt lat="33.8105884" lon="-118.3934492">
  <ele>-4.238</ele>
  <time>2026-09-02T22:09:22Z</time>
  <course>157.87</course>
  <speed>0.07615773105863909</speed>
  <fix>3d</fix>
</trkpt>
<trkpt lat="33.8105885" lon="-118.3934495">
  <ele>-3.76</ele>
  <time>2026-09-02T22:09:22Z</time>
  <course>119.54</course>
  <speed>0.05</speed>
  <fix>3d</fix>
</trkpt>
<trkpt lat="33.8105884" lon="-118.3934492">
  <ele>-4.229</ele>
  <time>2026-09-02T22:09:22Z</time>
  <course>157.87</course>
  <speed>0.07615773105863909</speed>
  <fix>3d</fix>
</trkpt>
<trkpt lat="33.8105885" lon="-118.3934495">
  <ele>-3.76</ele>
  <time>2026-09-02T22:09:22Z</time>
  <course>119.54</course>
  <speed>0.05</speed>
  <fix>3d</fix>
</trkpt>
<trkpt lat="33.8105884" lon="-118.3934491">
  <ele>-4.221</ele>
  <time>2026-09-02T22:09:22Z</time>
  <course>157.86</course>
  <speed>0.07615773105863909</speed>
  <fix>3d</fix>
</trkpt>
<trkpt lat="33.8105885" lon="-118.3934494">
  <ele>-3.74</ele>
  <time>2026-09-02T22:09:22Z</time>
  <course>119.57</course>
  <speed>0.05</speed>
  <fix>3d</fix>
</trkpt>
<trkpt lat="33.8105883" lon="-118.3934491">
  <ele>-4.211</ele>
  <time>2026-09-02T22:09:22Z</time>
  <course>157.86</course>
  <speed>0.07615773105863909</speed>
  <fix>3d</fix>
</trkpt>
<trkpt lat="33.8105885" lon="-118.3934494">
  <ele>-3.74</ele>
  <time>2026-09-02T22:09:22Z</time>
  <course>119.57</course>
  <speed>0.05</speed>
  <fix>3d</fix>
</trkpt>
<trkpt lat="33.8105883" lon="-118.393449">
  <ele>-4.201</ele>
  <time>2026-09-02T22:09:22Z</time>
  <course>157.86</course>
  <speed>0.07615773105863909</speed>
  <fix>3d</fix>
</trkpt>
<trkpt lat="33.8105884" lon="-118.3934493">
  <ele>-3.72</ele>
  <time>2026-09-02T22:09:22Z</time>
  <course>119.61</course>
  <speed>0.05</speed>
  <fix>3d</fix>
</trkpt>
<trkpt lat="33.8105883" lon="-118.393449">
  <ele>-4.191</ele>
  <time>2026-09-02T22:09:22Z</time>
  <course>157.85</course>
  <speed>0.07615773105863909</speed>
  <fix>3d</fix>
</trkpt>
<trkpt lat="33.8105884" lon="-118.3934493">
  <ele>-3.72</ele>
  <time>2026-09-02T22:09:22Z</time>
  <course>119.61</course>
  <speed>0.05</speed>
  <fix>3d</fix>
</trkpt>
<trkpt lat="33.8105883" lon="-118.3934489">
  <ele>-4.18</ele>
  <time>2026-09-02T22:09:22Z</time>
  <course>157.85</course>
  <speed>0.07615773105863909</speed>
  <fix>3d</fix>
</trkpt>
<trkpt lat="33.8105884" lon="-118.3934492">
  <ele>-3.7</ele>
  <time>2026-09-02T22:09:22Z</time>
  <course>119.65</course>
  <speed>0.05</speed>
  <fix>3d</fix>
</trkpt>
<trkpt lat="33.8105882" lon="-118.3934489">
  <ele>-4.17</ele>
  <time>2026-09-02T22:09:22Z</time>
  <course>157.84</course>
  <speed>0.07615773105863909</speed>
  <fix>3d</fix>
</trkpt>
<trkpt lat="33.8105884" lon="-118.3934492">
  <ele>-3.7</ele>
  <time>2026-09-02T22:09:22Z</time>
  <course>119.65</course>
  <speed>0.05</speed>
  <fix>3d</fix>
</trkpt>
<trkpt lat="33.8105882" lon="-118.3934488">
  <ele>-4.159</ele>
  <time>2026-09-02T22:09:22Z</time>
  <course>157.84</course>
  <speed>0.07615773105863909</speed>
  <fix>3d</fix>
</trkpt>
<trkpt lat="33.8105883" lon="-118.3934491">
  <ele>-3.68</ele>
  <time>2026-09-02T22:09:22Z</time>
  <course>119.69</course>
  <speed>0.04</speed>
  <fix>3d</fix>
</trkpt>
<trkpt lat="33.8105882" lon="-118.3934488">
  <ele>-4.148</ele>
  <time>2026-09-02T22:09:22Z</time>
  <course>157.83</course>
  <speed>0.0670820393249937</speed>
  <fix>3d</fix>
</trkpt>
<trkpt lat="33.8105883" lon="-118.3934491">
  <ele>-3.68</ele>
  <time>2026-09-02T22:09:22Z</time>
  <course>119.69</course>
  <speed>0.04</speed>
  <fix>3d</fix>
</trkpt>
<trkpt lat="33.8105882" lon="-118.3934487">
  <ele>-4.137</ele>
  <time>2026-09-02T22:09:22Z</time>
  <course>157.83</course>
  <speed>0.0670820393249937</speed>
  <fix>3d</fix>
</trkpt>
<trkpt lat="33.8105883" lon="-118.393449">
  <ele>-3.66</ele>
  <time>2026-09-02T22:09:22Z</time>
  <course>119.71</course>
  <speed>0.04</speed>
  <fix>3d</fix>
</trkpt>
<trkpt lat="33.8105882" lon="-118.3934487">
  <ele>-4.125</ele>
  <time>2026-09-02T22:09:22Z</time>
  <course>157.83</course>
  <speed>0.0670820393249937</speed>
  <fix>3d</fix>
</trkpt>
<trkpt lat="33.8105883" lon="-118.393449">
  <ele>-3.66</ele>
  <time>2026-09-02T22:09:22Z</time>
  <course>119.71</course>
  <speed>0.04</speed>
  <fix>3d</fix>
</trkpt>
<trkpt lat="33.8105882" lon="-118.3934486">
  <ele>-4.115</ele>
  <time>2026-09-02T22:09:22Z</time>
  <course>157.82</course>
  <speed>0.0670820393249937</speed>
  <fix>3d</fix>
</trkpt>
<trkpt lat="33.8105883" lon="-118.393449">
  <ele>-3.64</ele>
  <time>2026-09-02T22:09:22Z</time>
  <course>119.72</course>
  <speed>0.04</speed>
  <fix>3d</fix>
</trkpt>
<trkpt lat="33.8105881" lon="-118.3934486">
  <ele>-4.106</ele>
  <time>2026-09-02T22:09:22Z</time>
  <course>157.82</course>
  <speed>0.0670820393249937</speed>
  <fix>3d</fix>
</trkpt>
<trkpt lat="33.8105883" lon="-118.393449">
  <ele>-3.64</ele>
  <time>2026-09-02T22:09:22Z</time>
  <course>119.72</course>
  <speed>0.04</speed>
  <fix>3d</fix>
</trkpt>
<trkpt lat="33.8105881" lon="-118.3934486">
  <ele>-4.096</ele>
  <time>2026-09-02T22:09:22Z</time>
  <course>157.81</course>
  <speed>0.0670820393249937</speed>
  <fix>3d</fix>
</trkpt>
<trkpt lat="33.8105882" lon="-118.3934489">
  <ele>-3.62</ele>
  <time>2026-09-02T22:09:22Z</time>
  <course>119.73</course>
  <speed>0.04</speed>
  <fix>3d</fix>
</trkpt>
<trkpt lat="33.8105881" lon="-118.3934485">
  <ele>-4.087</ele>
  <time>2026-09-02T22:09:22Z</time>
  <course>157.81</course>
  <speed>0.0670820393249937</speed>
  <fix>3d</fix>
</trkpt>
<trkpt lat="33.8105882" lon="-118.3934489">
  <ele>-3.62</ele>
  <time>2026-09-02T22:09:22Z</time>
  <course>119.73</course>
  <speed>0.04</speed>
  <fix>3d</fix>
</trkpt>
<trkpt lat="33.8105881" lon="-118.3934485">
  <ele>-4.077</ele>
  <time>2026-09-02T22:09:22Z</time>
  <course>157.8</course>
  <speed>0.0670820393249937</speed>
  <fix>3d</fix>
</trkpt>
<trkpt lat="33.8105882" lon="-118.3934488">
  <ele>-3.6</ele>
  <time>2026-09-02T22:09:22Z</time>
  <course>119.75</course>
  <speed>0.04</speed>
  <fix>3d</fix>
</trkpt>
<trkpt lat="33.8105881" lon="-118.3934484">
  <ele>-4.067</ele>
  <time>2026-09-02T22:09:22Z</time>
  <course>157.8</course>
  <speed>0.0670820393249937</speed>
  <fix>3d</fix>
</trkpt>
<trkpt lat="33.8105882" lon="-118.3934488">
  <ele>-3.6</ele>
  <time>2026-09-02T22:09:22Z</time>
  <course>119.75</course>
  <speed>0.04</speed>
  <fix>3d</fix>
</trkpt>
<trkpt lat="33.8105881" lon="-118.3934484">
  <ele>-4.058</ele>
  <time>2026-09-02T22:09:22Z</time>
  <course>157.8</course>
  <speed>0.0670820393249937</speed>
  <fix>3d</fix>
</trkpt>
<trkpt lat="33.8105881" lon="-118.3934487">
  <ele>-3.59</ele>
  <time>2026-09-02T22:09:22Z</time>
  <course>119.79</course>
  <speed>0.04</speed>
  <fix>3d</fix>
</trkpt>
<trkpt lat="33.810588" lon="-118.3934484">
  <ele>-4.048</ele>
  <time>2026-09-02T22:09:22Z</time>
  <course>157.79</course>
  <speed>0.0670820393249937</speed>
  <fix>3d</fix>
</trkpt>
<trkpt lat="33.8105881" lon="-118.3934487">
  <ele>-3.59</ele>
  <time>2026-09-02T22:09:22Z</time>
  <course>119.79</course>
  <speed>0.04</speed>
  <fix>3d</fix>
</trkpt>
<trkpt lat="33.810588" lon="-118.3934483">
  <ele>-4.038</ele>
  <time>2026-09-02T22:09:22Z</time>
  <course>157.79</course>
  <speed>0.0632455532033676</speed>
  <fix>3d</fix>
</trkpt>
<trkpt lat="33.810588" lon="-118.3934486">
  <ele>-3.57</ele>
  <time>2026-09-02T22:09:22Z</time>
  <course>119.82</course>
  <speed>0.04</speed>
  <fix>3d</fix>
</trkpt>
<trkpt lat="33.810588" lon="-118.3934483">
  <ele>-4.027</ele>
  <time>2026-09-02T22:09:22Z</time>
  <course>157.78</course>
  <speed>0.0632455532033676</speed>
  <fix>3d</fix>
</trkpt>
<trkpt lat="33.810588" lon="-118.3934486">
  <ele>-3.57</ele>
  <time>2026-09-02T22:09:22Z</time>
  <course>119.82</course>
  <speed>0.04</speed>
  <fix>3d</fix>
</trkpt>
<trkpt lat="33.810588" lon="-118.3934483">
  <ele>-4.016</ele>
  <time>2026-09-02T22:09:22Z</time>
  <course>157.78</course>
  <speed>0.0632455532033676</speed>
  <fix>3d</fix>
</trkpt>
<trkpt lat="33.810588" lon="-118.3934486">
  <ele>-3.55</ele>
  <time>2026-09-02T22:09:22Z</time>
  <course>119.84</course>
  <speed>0.03</speed>
  <fix>3d</fix>
</trkpt>
<trkpt lat="33.810588" lon="-118.3934482">
  <ele>-4.006</ele>
  <time>2026-09-02T22:09:22Z</time>
  <course>157.78</course>
  <speed>0.0632455532033676</speed>
  <fix>3d</fix>
</trkpt>
<trkpt lat="33.810588" lon="-118.3934486">
  <ele>-3.55</ele>
  <time>2026-09-02T22:09:22Z</time>
  <course>119.84</course>
  <speed>0.03</speed>
  <fix>3d</fix>
</trkpt>
<trkpt lat="33.8105879" lon="-118.3934482">
  <ele>-3.996</ele>
  <time>2026-09-02T22:09:22Z</time>
  <course>157.77</course>
  <speed>0.053851648071345036</speed>
  <fix>3d</fix>
</trkpt>
<trkpt lat="33.810588" lon="-118.3934485">
  <ele>-3.53</ele>
  <time>2026-09-02T22:09:22Z</time>
  <course>119.84</course>
  <speed>0.03</speed>
  <fix>3d</fix>
</trkpt>
<trkpt lat="33.8105879" lon="-118.3934482">
  <ele>-3.988</ele>
  <time>2026-09-02T22:09:22Z</time>
  <course>157.77</course>
  <speed>0.053851648071345036</speed>
  <fix>3d</fix>
</trkpt>
<trkpt lat="33.810588" lon="-118.3934485">
  <ele>-3.53</ele>
  <time>2026-09-02T22:09:22Z</time>
  <course>119.84</course>
  <speed>0.03</speed>
  <fix>3d</fix>
</trkpt>
<trkpt lat="33.8105879" lon="-118.3934481">
  <ele>-3.979</ele>
  <time>2026-09-02T22:09:22Z</time>
  <course>157.76</course>
  <speed>0.053851648071345036</speed>
  <fix>3d</fix>
</trkpt>
<trkpt lat="33.8105879" lon="-118.3934484">
  <ele>-3.51</ele>
  <time>2026-09-02T22:09:22Z</time>
  <course>119.84</course>
  <speed>0.03</speed>
  <fix>3d</fix>
</trkpt>
<trkpt lat="33.8105879" lon="-118.3934481">
  <ele>-3.97</ele>
  <time>2026-09-02T22:09:22Z</time>
  <course>157.76</course>
  <speed>0.053851648071345036</speed>
  <fix>3d</fix>
</trkpt>
<trkpt lat="33.8105879" lon="-118.3934484">
  <ele>-3.51</ele>
  <time>2026-09-02T22:09:22Z</time>
  <course>119.84</course>
  <speed>0.03</speed>
  <fix>3d</fix>
</trkpt>
<trkpt lat="33.8105879" lon="-118.3934481">
  <ele>-3.961</ele>
  <time>2026-09-02T22:09:22Z</time>
  <course>157.75</course>
  <speed>0.053851648071345036</speed>
  <fix>3d</fix>
</trkpt>
<trkpt lat="33.8105879" lon="-118.3934484">
  <ele>-3.49</ele>
  <time>2026-09-02T22:09:22Z</time>
  <course>119.85</course>
  <speed>0.03</speed>
  <fix>3d</fix>
</trkpt>
<trkpt lat="33.8105878" lon="-118.393448">
  <ele>-3.951</ele>
  <time>2026-09-02T22:09:22Z</time>
  <course>157.75</course>
  <speed>0.053851648071345036</speed>
  <fix>3d</fix>
</trkpt>
<trkpt lat="33.8105879" lon="-118.3934484">
  <ele>-3.49</ele>
  <time>2026-09-02T22:09:22Z</time>
  <course>119.85</course>
  <speed>0.03</speed>
  <fix>3d</fix>
</trkpt>
<trkpt lat="33.8105878" lon="-118.393448">
  <ele>-3.941</ele>
  <time>2026-09-02T22:09:22Z</time>
  <course>157.75</course>
  <speed>0.053851648071345036</speed>
  <fix>3d</fix>
</trkpt>
<trkpt lat="33.8105879" lon="-118.3934483">
  <ele>-3.47</ele>
  <time>2026-09-02T22:09:22Z</time>
  <course>119.87</course>
  <speed>0.03</speed>
  <fix>3d</fix>
</trkpt>
<trkpt lat="33.8105878" lon="-118.393448">
  <ele>-3.93</ele>
  <time>2026-09-02T22:09:22Z</time>
  <course>157.74</course>
  <speed>0.053851648071345036</speed>
  <fix>3d</fix>
</trkpt>
<trkpt lat="33.8105879" lon="-118.3934483">
  <ele>-3.47</ele>
  <time>2026-09-02T22:09:22Z</time>
  <course>119.87</course>
  <speed>0.03</speed>
  <fix>3d</fix>
</trkpt>
<trkpt lat="33.8105878" lon="-118.3934479">
  <ele>-3.92</ele>
  <time>2026-09-02T22:09:22Z</time>
  <course>157.74</course>
  <speed>0.053851648071345036</speed>
  <fix>3d</fix>
</trkpt>
<trkpt lat="33.8105879" lon="-118.3934482">
  <ele>-3.45</ele>
  <time>2026-09-02T22:09:22Z</time>
  <course>119.9</course>
  <speed>0.03</speed>
  <fix>3d</fix>
</trkpt>
<trkpt lat="33.8105878" lon="-118.3934479">
  <ele>-3.91</ele>
  <time>2026-09-02T22:09:22Z</time>
  <course>157.73</course>
  <speed>0.053851648071345036</speed>
  <fix>3d</fix>
</trkpt>
<trkpt lat="33.8105879" lon="-118.3934482">
  <ele>-3.45</ele>
  <time>2026-09-02T22:09:22Z</time>
  <course>119.9</course>
  <speed>0.03</speed>
  <fix>3d</fix>
</trkpt>
<trkpt lat="33.8105878" lon="-118.3934479">
  <ele>-3.901</ele>
  <time>2026-09-02T22:09:22Z</time>
  <course>157.73</course>
  <speed>0.053851648071345036</speed>
  <fix>3d</fix>
</trkpt>
<trkpt lat="33.8105879" lon="-118.3934482">
  <ele>-3.43</ele>
  <time>2026-09-02T22:09:22Z</time>
  <course>119.92</course>
  <speed>0.03</speed>
  <fix>3d</fix>
</trkpt>
<trkpt lat="33.8105877" lon="-118.3934479">
  <ele>-3.892</ele>
  <time>2026-09-02T22:09:22Z</time>
  <course>157.72</course>
  <speed>0.053851648071345036</speed>
  <fix>3d</fix>
</trkpt>
<trkpt lat="33.8105879" lon="-118.3934482">
  <ele>-3.43</ele>
  <time>2026-09-02T22:09:22Z</time>
  <course>119.92</course>
  <speed>0.03</speed>
  <fix>3d</fix>
</trkpt>
<trkpt lat="33.8105877" lon="-118.3934478">
  <ele>-3.883</ele>
  <time>2026-09-02T22:09:23Z</time>
  <course>157.72</course>
  <speed>0.053851648071345036</speed>
  <fix>3d</fix>
</trkpt>
<trkpt lat="33.8105878" lon="-118.3934481">
  <ele>-3.41</ele>
  <time>2026-09-02T22:09:23Z</time>
  <course>119.93</course>
  <speed>0.03</speed>
  <fix>3d</fix>
</trkpt>
<trkpt lat="33.8105877" lon="-118.3934478">
  <ele>-3.875</ele>
  <time>2026-09-02T22:09:23Z</time>
  <course>157.72</course>
  <speed>0.053851648071345036</speed>
  <fix>3d</fix>
</trkpt>
<trkpt lat="33.8105878" lon="-118.3934481">
  <ele>-3.41</ele>
  <time>2026-09-02T22:09:23Z</time>
  <course>119.93</course>
  <speed>0.03</speed>
  <fix>3d</fix>
</trkpt>
<trkpt lat="33.8105877" lon="-118.3934478">
  <ele>-3.866</ele>
  <time>2026-09-02T22:09:23Z</time>
  <course>157.71</course>
  <speed>0.053851648071345036</speed>
  <fix>3d</fix>
</trkpt>
<trkpt lat="33.8105878" lon="-118.393448">
  <ele>-3.39</ele>
  <time>2026-09-02T22:09:23Z</time>
  <course>119.92</course>
  <speed>0.03</speed>
  <fix>3d</fix>
</trkpt>
<trkpt lat="33.8105877" lon="-118.3934477">
  <ele>-3.858</ele>
  <time>2026-09-02T22:09:23Z</time>
  <course>157.71</course>
  <speed>0.053851648071345036</speed>
  <fix>3d</fix>
</trkpt>
<trkpt lat="33.8105878" lon="-118.393448">
  <ele>-3.39</ele>
  <time>2026-09-02T22:09:23Z</time>
  <course>119.92</course>
  <speed>0.03</speed>
  <fix>3d</fix>
</trkpt>
<trkpt lat="33.8105877" lon="-118.3934477">
  <ele>-3.848</ele>
  <time>2026-09-02T22:09:23Z</time>
  <course>157.7</course>
  <speed>0.053851648071345036</speed>
  <fix>3d</fix>
</trkpt>
<trkpt lat="33.8105878" lon="-118.393448">
  <ele>-3.38</ele>
  <time>2026-09-02T22:09:23Z</time>
  <course>119.91</course>
  <speed>0.03</speed>
  <fix>3d</fix>
</trkpt>
<trkpt lat="33.8105877" lon="-118.3934477">
  <ele>-3.838</ele>
  <time>2026-09-02T22:09:23Z</time>
  <course>157.7</course>
  <speed>0.053851648071345036</speed>
  <fix>3d</fix>
</trkpt>
<trkpt lat="33.8105878" lon="-118.393448">
  <ele>-3.38</ele>
  <time>2026-09-02T22:09:23Z</time>
  <course>119.91</course>
  <speed>0.03</speed>
  <fix>3d</fix>
</trkpt>
<trkpt lat="33.8105877" lon="-118.3934476">
  <ele>-3.828</ele>
  <time>2026-09-02T22:09:23Z</time>
  <course>157.69</course>
  <speed>0.053851648071345036</speed>
  <fix>3d</fix>
</trkpt>
<trkpt lat="33.8105878" lon="-118.3934479">
  <ele>-3.36</ele>
  <time>2026-09-02T22:09:23Z</time>
  <course>119.93</course>
  <speed>0.03</speed>
  <fix>3d</fix>
</trkpt>
<trkpt lat="33.8105877" lon="-118.3934476">
  <ele>-3.818</ele>
  <time>2026-09-02T22:09:23Z</time>
  <course>157.69</course>
  <speed>0.053851648071345036</speed>
  <fix>3d</fix>
</trkpt>
<trkpt lat="33.8105878" lon="-118.3934479">
  <ele>-3.36</ele>
  <time>2026-09-02T22:09:23Z</time>
  <course>119.93</course>
  <speed>0.03</speed>
  <fix>3d</fix>
</trkpt>
<trkpt lat="33.8105876" lon="-118.3934476">
  <ele>-3.808</ele>
  <time>2026-09-02T22:09:23Z</time>
  <course>157.69</course>
  <speed>0.053851648071345036</speed>
  <fix>3d</fix>
</trkpt>
<trkpt lat="33.8105877" lon="-118.3934479">
  <ele>-3.34</ele>
  <time>2026-09-02T22:09:23Z</time>
  <course>119.95</course>
  <speed>0.03</speed>
  <fix>3d</fix>
</trkpt>
<trkpt lat="33.8105876" lon="-118.3934476">
  <ele>-3.797</ele>
  <time>2026-09-02T22:09:23Z</time>
  <course>157.68</course>
  <speed>0.053851648071345036</speed>
  <fix>3d</fix>
</trkpt>
<trkpt lat="33.8105877" lon="-118.3934479">
  <ele>-3.34</ele>
  <time>2026-09-02T22:09:23Z</time>
  <course>119.95</course>
  <speed>0.03</speed>
  <fix>3d</fix>
</trkpt>
<trkpt lat="33.8105876" lon="-118.3934475">
  <ele>-3.785</ele>
  <time>2026-09-02T22:09:24Z</time>
  <course>157.68</course>
  <speed>0.053851648071345036</speed>
  <fix>3d</fix>
</trkpt>
<trkpt lat="33.8105877" lon="-118.3934478">
  <ele>-3.32</ele>
  <time>2026-09-02T22:09:24Z</time>
  <course>119.98</course>
  <speed>0.02</speed>
  <fix>3d</fix>
</trkpt>
<trkpt lat="33.8105876" lon="-118.3934475">
  <ele>-3.774</ele>
  <time>2026-09-02T22:09:24Z</time>
  <course>157.67</course>
  <speed>0.053851648071345036</speed>
  <fix>3d</fix>
</trkpt>
<trkpt lat="33.8105877" lon="-118.3934478">
  <ele>-3.32</ele>
  <time>2026-09-02T22:09:24Z</time>
  <course>119.98</course>
  <speed>0.02</speed>
  <fix>3d</fix>
</trkpt>
<trkpt lat="33.8105876" lon="-118.3934475">
  <ele>-3.764</ele>
  <time>2026-09-02T22:09:24Z</time>
  <course>157.67</course>
  <speed>0.053851648071345036</speed>
  <fix>3d</fix>
</trkpt>
<trkpt lat="33.8105877" lon="-118.3934478">
  <ele>-3.3</ele>
  <time>2026-09-02T22:09:24Z</time>
  <course>119.99</course>
  <speed>0.02</speed>
  <fix>3d</fix>
</trkpt>
<trkpt lat="33.8105876" lon="-118.3934475">
  <ele>-3.754</ele>
  <time>2026-09-02T22:09:24Z</time>
  <course>157.67</course>
  <speed>0.053851648071345036</speed>
  <fix>3d</fix>
</trkpt>
<trkpt lat="33.8105877" lon="-118.3934478">
  <ele>-3.3</ele>
  <time>2026-09-02T22:09:24Z</time>
  <course>119.99</course>
  <speed>0.02</speed>
  <fix>3d</fix>
</trkpt>
<trkpt lat="33.8105876" lon="-118.3934474">
  <ele>-3.744</ele>
  <time>2026-09-02T22:09:24Z</time>
  <course>157.66</course>
  <speed>0.053851648071345036</speed>
  <fix>3d</fix>
</trkpt>
<trkpt lat="33.8105877" lon="-118.3934477">
  <ele>-3.28</ele>
  <time>2026-09-02T22:09:24Z</time>
  <course>119.98</course>
  <speed>0.02</speed>
  <fix>3d</fix>
</trkpt>
<trkpt lat="33.8105876" lon="-118.3934474">
  <ele>-3.734</ele>
  <time>2026-09-02T22:09:24Z</time>
  <course>157.66</course>
  <speed>0.053851648071345036</speed>
  <fix>3d</fix>
</trkpt>
<trkpt lat="33.8105877" lon="-118.3934477">
  <ele>-3.28</ele>
  <time>2026-09-02T22:09:24Z</time>
  <course>119.98</course>
  <speed>0.02</speed>
  <fix>3d</fix>
</trkpt>
<trkpt lat="33.8105876" lon="-118.3934474">
  <ele>-3.723</ele>
  <time>2026-09-02T22:09:24Z</time>
  <course>157.65</course>
  <speed>0.053851648071345036</speed>
  <fix>3d</fix>
</trkpt>
<trkpt lat="33.8105876" lon="-118.3934476">
  <ele>-3.26</ele>
  <time>2026-09-02T22:09:24Z</time>
  <course>119.97</course>
  <speed>0.02</speed>
  <fix>3d</fix>
</trkpt>
<trkpt lat="33.8105875" lon="-118.3934474">
  <ele>-3.713</ele>
  <time>2026-09-02T22:09:24Z</time>
  <course>157.65</course>
  <speed>0.053851648071345036</speed>
  <fix>3d</fix>
</trkpt>
<trkpt lat="33.8105876" lon="-118.3934476">
  <ele>-3.26</ele>
  <time>2026-09-02T22:09:24Z</time>
  <course>119.97</course>
  <speed>0.02</speed>
  <fix>3d</fix>
</trkpt>
<trkpt lat="33.8105875" lon="-118.3934473">
  <ele>-3.704</ele>
  <time>2026-09-02T22:09:24Z</time>
  <course>157.65</course>
  <speed>0.053851648071345036</speed>
  <fix>3d</fix>
</trkpt>
<trkpt lat="33.8105876" lon="-118.3934475">
  <ele>-3.24</ele>
  <time>2026-09-02T22:09:24Z</time>
  <course>119.97</course>
  <speed>0.02</speed>
  <fix>3d</fix>
</trkpt>
<trkpt lat="33.8105875" lon="-118.3934473">
  <ele>-3.695</ele>
  <time>2026-09-02T22:09:24Z</time>
  <course>157.64</course>
  <speed>0.053851648071345036</speed>
  <fix>3d</fix>
</trkpt>
<trkpt lat="33.8105876" lon="-118.3934475">
  <ele>-3.24</ele>
  <time>2026-09-02T22:09:24Z</time>
  <course>119.97</course>
  <speed>0.02</speed>
  <fix>3d</fix>
</trkpt>
<trkpt lat="33.8105875" lon="-118.3934473">
  <ele>-3.685</ele>
  <time>2026-09-02T22:09:25Z</time>
  <course>157.64</course>
  <speed>0.053851648071345036</speed>
  <fix>3d</fix>
</trkpt>
<trkpt lat="33.8105876" lon="-118.3934475">
  <ele>-3.22</ele>
  <time>2026-09-02T22:09:25Z</time>
  <course>119.98</course>
  <speed>0.02</speed>
  <fix>3d</fix>
</trkpt>
<trkpt lat="33.8105875" lon="-118.3934472">
  <ele>-3.676</ele>
  <time>2026-09-02T22:09:25Z</time>
  <course>157.63</course>
  <speed>0.053851648071345036</speed>
  <fix>3d</fix>
</trkpt>
<trkpt lat="33.8105876" lon="-118.3934475">
  <ele>-3.22</ele>
  <time>2026-09-02T22:09:25Z</time>
  <course>119.98</course>
  <speed>0.02</speed>
  <fix>3d</fix>
</trkpt>
<trkpt lat="33.8105875" lon="-118.3934472">
  <ele>-3.667</ele>
  <time>2026-09-02T22:09:25Z</time>
  <course>157.63</course>
  <speed>0.053851648071345036</speed>
  <fix>3d</fix>
</trkpt>
<trkpt lat="33.8105876" lon="-118.3934475">
  <ele>-3.2</ele>
  <time>2026-09-02T22:09:25Z</time>
  <course>120.01</course>
  <speed>0.02</speed>
  <fix>3d</fix>
</trkpt>
<trkpt lat="33.8105875" lon="-118.3934472">
  <ele>-3.658</ele>
  <time>2026-09-02T22:09:25Z</time>
  <course>157.63</course>
  <speed>0.053851648071345036</speed>
  <fix>3d</fix>
</trkpt>
<trkpt lat="33.8105876" lon="-118.3934475">
  <ele>-3.2</ele>
  <time>2026-09-02T22:09:25Z</time>
  <course>120.01</course>
  <speed>0.02</speed>
  <fix>3d</fix>
</trkpt>
<trkpt lat="33.8105875" lon="-118.3934472">
  <ele>-3.648</ele>
  <time>2026-09-02T22:09:25Z</time>
  <course>157.62</course>
  <speed>0.053851648071345036</speed>
  <fix>3d</fix>
</trkpt>
<trkpt lat="33.8105875" lon="-118.3934475">
  <ele>-3.19</ele>
  <time>2026-09-02T22:09:25Z</time>
  <course>120.03</course>
  <speed>0.02</speed>
  <fix>3d</fix>
</trkpt>
<trkpt lat="33.8105875" lon="-118.3934471">
  <ele>-3.64</ele>
  <time>2026-09-02T22:09:25Z</time>
  <course>157.62</course>
  <speed>0.053851648071345036</speed>
  <fix>3d</fix>
</trkpt>
<trkpt lat="33.8105875" lon="-118.3934475">
  <ele>-3.19</ele>
  <time>2026-09-02T22:09:25Z</time>
  <course>120.03</course>
  <speed>0.02</speed>
  <fix>3d</fix>
</trkpt>
<trkpt lat="33.8105874" lon="-118.3934471">
  <ele>-3.631</ele>
  <time>2026-09-02T22:09:25Z</time>
  <course>157.61</course>
  <speed>0.053851648071345036</speed>
  <fix>3d</fix>
</trkpt>
<trkpt lat="33.8105874" lon="-118.3934474">
  <ele>-3.17</ele>
  <time>2026-09-02T22:09:25Z</time>
  <course>120.03</course>
  <speed>0.02</speed>
  <fix>3d</fix>
</trkpt>
<trkpt lat="33.8105874" lon="-118.3934471">
  <ele>-3.621</ele>
  <time>2026-09-02T22:09:25Z</time>
  <course>157.61</course>
  <speed>0.053851648071345036</speed>
  <fix>3d</fix>
</trkpt>
<trkpt lat="33.8105874" lon="-118.3934474">
  <ele>-3.17</ele>
  <time>2026-09-02T22:09:25Z</time>
  <course>120.03</course>
  <speed>0.02</speed>
  <fix>3d</fix>
</trkpt>
<trkpt lat="33.8105874" lon="-118.3934471">
  <ele>-3.61</ele>
  <time>2026-09-02T22:09:25Z</time>
  <course>157.61</course>
  <speed>0.053851648071345036</speed>
  <fix>3d</fix>
</trkpt>
<trkpt lat="33.8105874" lon="-118.3934474">
  <ele>-3.15</ele>
  <time>2026-09-02T22:09:25Z</time>
  <course>120.02</course>
  <speed>0.02</speed>
  <fix>3d</fix>
</trkpt>
<trkpt lat="33.8105874" lon="-118.393447">
  <ele>-3.6</ele>
  <time>2026-09-02T22:09:25Z</time>
  <course>157.6</course>
  <speed>0.053851648071345036</speed>
  <fix>3d</fix>
</trkpt>
<trkpt lat="33.8105874" lon="-118.3934474">
  <ele>-3.15</ele>
  <time>2026-09-02T22:09:25Z</time>
  <course>120.02</course>
  <speed>0.02</speed>
  <fix>3d</fix>
</trkpt>
<trkpt lat="33.8105874" lon="-118.393447">
  <ele>-3.591</ele>
  <time>2026-09-02T22:09:25Z</time>
  <course>157.6</course>
  <speed>0.053851648071345036</speed>
  <fix>3d</fix>
</trkpt>
<trkpt lat="33.8105874" lon="-118.3934473">
  <ele>-3.13</ele>
  <time>2026-09-02T22:09:25Z</time>
  <course>120.01</course>
  <speed>0.02</speed>
  <fix>3d</fix>
</trkpt>
<trkpt lat="33.8105874" lon="-118.393447">
  <ele>-3.582</ele>
  <time>2026-09-02T22:09:26Z</time>
  <course>157.59</course>
  <speed>0.053851648071345036</speed>
  <fix>3d</fix>
</trkpt>
<trkpt lat="33.8105874" lon="-118.3934473">
  <ele>-3.13</ele>
  <time>2026-09-02T22:09:26Z</time>
  <course>120.01</course>
  <speed>0.02</speed>
  <fix>3d</fix>
</trkpt>
<trkpt lat="33.8105873" lon="-118.393447">
  <ele>-3.573</ele>
  <time>2026-09-02T22:09:26Z</time>
  <course>157.59</course>
  <speed>0.044721359549995794</speed>
  <fix>3d</fix>
</trkpt>
<trkpt lat="33.8105874" lon="-118.3934473">
  <ele>-3.11</ele>
  <time>2026-09-02T22:09:26Z</time>
  <course>120.01</course>
  <speed>0.02</speed>
  <fix>3d</fix>
</trkpt>
<trkpt lat="33.8105873" lon="-118.393447">
  <ele>-3.564</ele>
  <time>2026-09-02T22:09:26Z</time>
  <course>157.59</course>
  <speed>0.044721359549995794</speed>
  <fix>3d</fix>
</trkpt>
<trkpt lat="33.8105874" lon="-118.3934473">
  <ele>-3.11</ele>
  <time>2026-09-02T22:09:26Z</time>
  <course>120.01</course>
  <speed>0.02</speed>
  <fix>3d</fix>
</trkpt>
<trkpt lat="33.8105873" lon="-118.3934469">
  <ele>-3.553</ele>
  <time>2026-09-02T22:09:26Z</time>
  <course>157.58</course>
  <speed>0.044721359549995794</speed>
  <fix>3d</fix>
</trkpt>
<trkpt lat="33.8105873" lon="-118.3934472">
  <ele>-3.09</ele>
  <time>2026-09-02T22:09:26Z</time>
  <course>120.03</course>
  <speed>0.02</speed>
  <fix>3d</fix>
</trkpt>
<trkpt lat="33.8105873" lon="-118.3934469">
  <ele>-3.542</ele>
  <time>2026-09-02T22:09:26Z</time>
  <course>157.58</course>
  <speed>0.044721359549995794</speed>
  <fix>3d</fix>
</trkpt>
<trkpt lat="33.8105873" lon="-118.3934472">
  <ele>-3.09</ele>
  <time>2026-09-02T22:09:26Z</time>
  <course>120.03</course>
  <speed>0.02</speed>
  <fix>3d</fix>
</trkpt>
<trkpt lat="33.8105873" lon="-118.3934469">
  <ele>-3.531</ele>
  <time>2026-09-02T22:09:26Z</time>
  <course>157.58</course>
  <speed>0.044721359549995794</speed>
  <fix>3d</fix>
</trkpt>
<trkpt lat="33.8105873" lon="-118.3934472">
  <ele>-3.07</ele>
  <time>2026-09-02T22:09:26Z</time>
  <course>120.06</course>
  <speed>0.02</speed>
  <fix>3d</fix>
</trkpt>
<trkpt lat="33.8105873" lon="-118.3934469">
  <ele>-3.52</ele>
  <time>2026-09-02T22:09:26Z</time>
  <course>157.57</course>
  <speed>0.044721359549995794</speed>
  <fix>3d</fix>
</trkpt>
<trkpt lat="33.8105873" lon="-118.3934472">
  <ele>-3.07</ele>
  <time>2026-09-02T22:09:26Z</time>
  <course>120.06</course>
  <speed>0.02</speed>
  <fix>3d</fix>
</trkpt>
<trkpt lat="33.8105873" lon="-118.3934469">
  <ele>-3.511</ele>
  <time>2026-09-02T22:09:26Z</time>
  <course>157.57</course>
  <speed>0.044721359549995794</speed>
  <fix>3d</fix>
</trkpt>
<trkpt lat="33.8105873" lon="-118.3934471">
  <ele>-3.05</ele>
  <time>2026-09-02T22:09:26Z</time>
  <course>120.07</course>
  <speed>0.02</speed>
  <fix>3d</fix>
</trkpt>
<trkpt lat="33.8105872" lon="-118.3934468">
  <ele>-3.501</ele>
  <time>2026-09-02T22:09:26Z</time>
  <course>157.56</course>
  <speed>0.044721359549995794</speed>
  <fix>3d</fix>
</trkpt>
<trkpt lat="33.8105873" lon="-118.3934471">
  <ele>-3.05</ele>
  <time>2026-09-02T22:09:26Z</time>
  <course>120.07</course>
  <speed>0.02</speed>
  <fix>3d</fix>
</trkpt>
<trkpt lat="33.8105872" lon="-118.3934468">
  <ele>-3.492</ele>
  <time>2026-09-02T22:09:26Z</time>
  <course>157.56</course>
  <speed>0.044721359549995794</speed>
  <fix>3d</fix>
</trkpt>
<trkpt lat="33.8105873" lon="-118.3934471">
  <ele>-3.03</ele>
  <time>2026-09-02T22:09:26Z</time>
  <course>120.06</course>
  <speed>0.02</speed>
  <fix>3d</fix>
</trkpt>
<trkpt lat="33.8105872" lon="-118.3934468">
  <ele>-3.483</ele>
  <time>2026-09-02T22:09:27Z</time>
  <course>157.56</course>
  <speed>0.044721359549995794</speed>
  <fix>3d</fix>
</trkpt>
<trkpt lat="33.8105873" lon="-118.3934471">
  <ele>-3.03</ele>
  <time>2026-09-02T22:09:27Z</time>
  <course>120.06</course>
  <speed>0.02</speed>
  <fix>3d</fix>
</trkpt>
<trkpt lat="33.8105872" lon="-118.3934468">
  <ele>-3.473</ele>
  <time>2026-09-02T22:09:27Z</time>
  <course>157.55</course>
  <speed>0.044721359549995794</speed>
  <fix>3d</fix>
</trkpt>
<trkpt lat="33.8105873" lon="-118.3934471">
  <ele>-3.01</ele>
  <time>2026-09-02T22:09:27Z</time>
  <course>120.04</course>
  <speed>0.02</speed>
  <fix>3d</fix>
</trkpt>
<trkpt lat="33.8105872" lon="-118.3934467">
  <ele>-3.464</ele>
  <time>2026-09-02T22:09:27Z</time>
  <course>157.55</course>
  <speed>0.044721359549995794</speed>
  <fix>3d</fix>
</trkpt>
<trkpt lat="33.8105873" lon="-118.3934471">
  <ele>-3.01</ele>
  <time>2026-09-02T22:09:27Z</time>
  <course>120.04</course>
  <speed>0.02</speed>
  <fix>3d</fix>
</trkpt>
<trkpt lat="33.8105872" lon="-118.3934467">
  <ele>-3.455</ele>
  <time>2026-09-02T22:09:27Z</time>
  <course>157.54</course>
  <speed>0.044721359549995794</speed>
  <fix>3d</fix>
</trkpt>
<trkpt lat="33.8105873" lon="-118.393447">
  <ele>-2.99</ele>
  <time>2026-09-02T22:09:27Z</time>
  <course>120.03</course>
  <speed>0.02</speed>
  <fix>3d</fix>
</trkpt>
<trkpt lat="33.8105872" lon="-118.3934467">
  <ele>-3.445</ele>
  <time>2026-09-02T22:09:27Z</time>
  <course>157.54</course>
  <speed>0.044721359549995794</speed>
  <fix>3d</fix>
</trkpt>
<trkpt lat="33.8105873" lon="-118.393447">
  <ele>-2.99</ele>
  <time>2026-09-02T22:09:27Z</time>
  <course>120.03</course>
  <speed>0.02</speed>
  <fix>3d</fix>
</trkpt>
<trkpt lat="33.8105872" lon="-118.3934467">
  <ele>-3.435</ele>
  <time>2026-09-02T22:09:27Z</time>
  <course>157.54</course>
  <speed>0.044721359549995794</speed>
  <fix>3d</fix>
</trkpt>
<trkpt lat="33.8105873" lon="-118.393447">
  <ele>-2.98</ele>
  <time>2026-09-02T22:09:27Z</time>
  <course>120.04</course>
  <speed>0.02</speed>
  <fix>3d</fix>
</trkpt>
<trkpt lat="33.8105872" lon="-118.3934467">
  <ele>-3.426</ele>
  <time>2026-09-02T22:09:27Z</time>
  <course>157.53</course>
  <speed>0.044721359549995794</speed>
  <fix>3d</fix>
</trkpt>
<trkpt lat="33.8105873" lon="-118.393447">
  <ele>-2.98</ele>
  <time>2026-09-02T22:09:27Z</time>
  <course>120.04</course>
  <speed>0.02</speed>
  <fix>3d</fix>
</trkpt>
<trkpt lat="33.8105872" lon="-118.3934467">
  <ele>-3.417</ele>
  <time>2026-09-02T22:09:27Z</time>
  <course>157.53</course>
  <speed>0.044721359549995794</speed>
  <fix>3d</fix>
</trkpt>
<trkpt lat="33.8105873" lon="-118.3934469">
  <ele>-2.96</ele>
  <time>2026-09-02T22:09:27Z</time>
  <course>120.07</course>
  <speed>0.02</speed>
  <fix>3d</fix>
</trkpt>
<trkpt lat="33.8105871" lon="-118.3934466">
  <ele>-3.408</ele>
  <time>2026-09-02T22:09:27Z</time>
  <course>157.53</course>
  <speed>0.044721359549995794</speed>
  <fix>3d</fix>
</trkpt>
<trkpt lat="33.8105873" lon="-118.3934469">
  <ele>-2.96</ele>
  <time>2026-09-02T22:09:27Z</time>
  <course>120.07</course>
  <speed>0.02</speed>
  <fix>3d</fix>
</trkpt>
<trkpt lat="33.8105871" lon="-118.3934466">
  <ele>-3.399</ele>
  <time>2026-09-02T22:09:27Z</time>
  <course>157.52</course>
  <speed>0.044721359549995794</speed>
  <fix>3d</fix>
</trkpt>
<trkpt lat="33.8105873" lon="-118.3934469">
  <ele>-2.94</ele>
  <time>2026-09-02T22:09:27Z</time>
  <course>120.09</course>
  <speed>0.02</speed>
  <fix>3d</fix>
</trkpt>
<trkpt lat="33.8105871" lon="-118.3934466">
  <ele>-3.388</ele>
  <time>2026-09-02T22:09:28Z</time>
  <course>157.52</course>
  <speed>0.044721359549995794</speed>
  <fix>3d</fix>
</trkpt>
<trkpt lat="33.8105873" lon="-118.3934469">
  <ele>-2.94</ele>
  <time>2026-09-02T22:09:28Z</time>
  <course>120.09</course>
  <speed>0.02</speed>
  <fix>3d</fix>
</trkpt>
<trkpt lat="33.8105871" lon="-118.3934466">
  <ele>-3.377</ele>
  <time>2026-09-02T22:09:28Z</time>
  <course>157.51</course>
  <speed>0.044721359549995794</speed>
  <fix>3d</fix>
</trkpt>
<trkpt lat="33.8105872" lon="-118.3934469">
  <ele>-2.92</ele>
  <time>2026-09-02T22:09:28Z</time>
  <course>120.1</course>
  <speed>0.02</speed>
  <fix>3d</fix>
</trkpt>
<trkpt lat="33.8105871" lon="-118.3934466">
  <ele>-3.367</ele>
  <time>2026-09-02T22:09:28Z</time>
  <course>157.51</course>
  <speed>0.044721359549995794</speed>
  <fix>3d</fix>
</trkpt>
<trkpt lat="33.8105872" lon="-118.3934469">
  <ele>-2.92</ele>
  <time>2026-09-02T22:09:28Z</time>
  <course>120.1</course>
  <speed>0.02</speed>
  <fix>3d</fix>
</trkpt>
<trkpt lat="33.8105871" lon="-118.3934465">
  <ele>-3.357</ele>
  <time>2026-09-02T22:09:28Z</time>
  <course>157.51</course>
  <speed>0.044721359549995794</speed>
  <fix>3d</fix>
</trkpt>
<trkpt lat="33.8105872" lon="-118.3934468">
  <ele>-2.9</ele>
  <time>2026-09-02T22:09:28Z</time>
  <course>120.08</course>
  <speed>0.02</speed>
  <fix>3d</fix>
</trkpt>
<trkpt lat="33.8105871" lon="-118.3934465">
  <ele>-3.348</ele>
  <time>2026-09-02T22:09:28Z</time>
  <course>157.5</course>
  <speed>0.044721359549995794</speed>
  <fix>3d</fix>
</trkpt>
<trkpt lat="33.8105872" lon="-118.3934468">
  <ele>-2.9</ele>
  <time>2026-09-02T22:09:28Z</time>
  <course>120.08</course>
  <speed>0.02</speed>
  <fix>3d</fix>
</trkpt>
<trkpt lat="33.8105871" lon="-118.3934465">
  <ele>-3.339</ele>
  <time>2026-09-02T22:09:28Z</time>
  <course>157.5</course>
  <speed>0.044721359549995794</speed>
  <fix>3d</fix>
</trkpt>
<trkpt lat="33.8105872" lon="-118.3934468">
  <ele>-2.88</ele>
  <time>2026-09-02T22:09:28Z</time>
  <course>120.06</course>
  <speed>0.01</speed>
  <fix>3d</fix>
</trkpt>
<trkpt lat="33.8105871" lon="-118.3934465">
  <ele>-3.33</ele>
  <time>2026-09-02T22:09:28Z</time>
  <course>157.5</course>
  <speed>0.044721359549995794</speed>
  <fix>3d</fix>
</trkpt>
<trkpt lat="33.8105872" lon="-118.3934468">
  <ele>-2.88</ele>
  <time>2026-09-02T22:09:28Z</time>
  <course>120.06</course>
  <speed>0.01</speed>
  <fix>3d</fix>
</trkpt>
<trkpt lat="33.8105871" lon="-118.3934465">
  <ele>-3.321</ele>
  <time>2026-09-02T22:09:28Z</time>
  <course>157.49</course>
  <speed>0.044721359549995794</speed>
  <fix>3d</fix>
</trkpt>
<trkpt lat="33.8105872" lon="-118.3934467">
  <ele>-2.86</ele>
  <time>2026-09-02T22:09:28Z</time>
  <course>120.05</course>
  <speed>0.01</speed>
  <fix>3d</fix>
</trkpt>
<trkpt lat="33.8105871" lon="-118.3934464">
  <ele>-3.311</ele>
  <time>2026-09-02T22:09:28Z</time>
  <course>157.49</course>
  <speed>0.044721359549995794</speed>
  <fix>3d</fix>
</trkpt>
<trkpt lat="33.8105872" lon="-118.3934467">
  <ele>-2.86</ele>
  <time>2026-09-02T22:09:28Z</time>
  <course>120.05</course>
  <speed>0.01</speed>
  <fix>3d</fix>
</trkpt>
<trkpt lat="33.8105871" lon="-118.3934464">
  <ele>-3.301</ele>
  <time>2026-09-02T22:09:28Z</time>
  <course>157.48</course>
  <speed>0.044721359549995794</speed>
  <fix>3d</fix>
</trkpt>
<trkpt lat="33.8105872" lon="-118.3934467">
  <ele>-2.84</ele>
  <time>2026-09-02T22:09:28Z</time>
  <course>120.07</course>
  <speed>0.01</speed>
  <fix>3d</fix>
</trkpt>
<trkpt lat="33.8105871" lon="-118.3934464">
  <ele>-3.292</ele>
  <time>2026-09-02T22:09:29Z</time>
  <course>157.48</course>
  <speed>0.044721359549995794</speed>
  <fix>3d</fix>
</trkpt>
<trkpt lat="33.8105872" lon="-118.3934467">
  <ele>-2.84</ele>
  <time>2026-09-02T22:09:29Z</time>
  <course>120.07</course>
  <speed>0.01</speed>
  <fix>3d</fix>
</trkpt>
<trkpt lat="33.8105871" lon="-118.3934464">
  <ele>-3.282</ele>
  <time>2026-09-02T22:09:29Z</time>
  <course>157.48</course>
  <speed>0.044721359549995794</speed>
  <fix>3d</fix>
</trkpt>
<trkpt lat="33.8105872" lon="-118.3934467">
  <ele>-2.82</ele>
  <time>2026-09-02T22:09:29Z</time>
  <course>120.1</course>
  <speed>0.01</speed>
  <fix>3d</fix>
</trkpt>
<trkpt lat="33.8105871" lon="-118.3934464">
  <ele>-3.273</ele>
  <time>2026-09-02T22:09:29Z</time>
  <course>157.47</course>
  <speed>0.044721359549995794</speed>
  <fix>3d</fix>
</trkpt>
<trkpt lat="33.8105872" lon="-118.3934467">
  <ele>-2.82</ele>
  <time>2026-09-02T22:09:29Z</time>
  <course>120.1</course>
  <speed>0.01</speed>
  <fix>3d</fix>
</trkpt>
<trkpt lat="33.8105871" lon="-118.3934463">
  <ele>-3.264</ele>
  <time>2026-09-02T22:09:29Z</time>
  <course>157.47</course>
  <speed>0.044721359549995794</speed>
  <fix>3d</fix>
</trkpt>
<trkpt lat="33.8105871" lon="-118.3934466">
  <ele>-2.8</ele>
  <time>2026-09-02T22:09:29Z</time>
  <course>120.12</course>
  <speed>0.01</speed>
  <fix>3d</fix>
</trkpt>
<trkpt lat="33.8105871" lon="-118.3934463">
  <ele>-3.255</ele>
  <time>2026-09-02T22:09:29Z</time>
  <course>157.47</course>
  <speed>0.044721359549995794</speed>
  <fix>3d</fix>
</trkpt>
<trkpt lat="33.8105871" lon="-118.3934466">
  <ele>-2.8</ele>
  <time>2026-09-02T22:09:29Z</time>
  <course>120.12</course>
  <speed>0.01</speed>
  <fix>3d</fix>
</trkpt>
<trkpt lat="33.810587" lon="-118.3934463">
  <ele>-3.244</ele>
  <time>2026-09-02T22:09:29Z</time>
  <course>157.46</course>
  <speed>0.044721359549995794</speed>
  <fix>3d</fix>
</trkpt>
<trkpt lat="33.8105871" lon="-118.3934466">
  <ele>-2.78</ele>
  <time>2026-09-02T22:09:29Z</time>
  <course>120.11</course>
  <speed>0.01</speed>
  <fix>3d</fix>
</trkpt>
<trkpt lat="33.810587" lon="-118.3934463">
  <ele>-3.234</ele>
  <time>2026-09-02T22:09:29Z</time>
  <course>157.46</course>
  <speed>0.044721359549995794</speed>
  <fix>3d</fix>
</trkpt>
<trkpt lat="33.8105871" lon="-118.3934466">
  <ele>-2.78</ele>
  <time>2026-09-02T22:09:29Z</time>
  <course>120.11</course>
  <speed>0.01</speed>
  <fix>3d</fix>
</trkpt>
<trkpt lat="33.810587" lon="-118.3934463">
  <ele>-3.223</ele>
  <time>2026-09-02T22:09:29Z</time>
  <course>157.46</course>
  <speed>0.044721359549995794</speed>
  <fix>3d</fix>
</trkpt>
<trkpt lat="33.8105871" lon="-118.3934466">
  <ele>-2.77</ele>
  <time>2026-09-02T22:09:29Z</time>
  <course>120.09</course>
  <speed>0.01</speed>
  <fix>3d</fix>
</trkpt>
<trkpt lat="33.810587" lon="-118.3934463">
  <ele>-3.212</ele>
  <time>2026-09-02T22:09:29Z</time>
  <course>157.45</course>
  <speed>0.044721359549995794</speed>
  <fix>3d</fix>
</trkpt>
<trkpt lat="33.8105871" lon="-118.3934466">
  <ele>-2.77</ele>
  <time>2026-09-02T22:09:29Z</time>
  <course>120.09</course>
  <speed>0.01</speed>
  <fix>3d</fix>
</trkpt>
<trkpt lat="33.810587" lon="-118.3934462">
  <ele>-3.2</ele>
  <time>2026-09-02T22:09:29Z</time>
  <course>157.45</course>
  <speed>0.044721359549995794</speed>
  <fix>3d</fix>
</trkpt>
<trkpt lat="33.8105871" lon="-118.3934465">
  <ele>-2.75</ele>
  <time>2026-09-02T22:09:29Z</time>
  <course>120.07</course>
  <speed>0.01</speed>
  <fix>3d</fix>
</trkpt>
<trkpt lat="33.810587" lon="-118.3934462">
  <ele>-3.187</ele>
  <time>2026-09-02T22:09:30Z</time>
  <course>157.44</course>
  <speed>0.044721359549995794</speed>
  <fix>3d</fix>
</trkpt>
<trkpt lat="33.8105871" lon="-118.3934465">
  <ele>-2.75</ele>
  <time>2026-09-02T22:09:30Z</time>
  <course>120.07</course>
  <speed>0.01</speed>
  <fix>3d</fix>
</trkpt>
<trkpt lat="33.810587" lon="-118.3934462">
  <ele>-3.175</ele>
  <time>2026-09-02T22:09:30Z</time>
  <course>157.44</course>
  <speed>0.044721359549995794</speed>
  <fix>3d</fix>
</trkpt>
<trkpt lat="33.8105871" lon="-118.3934465">
  <ele>-2.73</ele>
  <time>2026-09-02T22:09:30Z</time>
  <course>120.07</course>
  <speed>0.01</speed>
  <fix>3d</fix>
</trkpt>
<trkpt lat="33.810587" lon="-118.3934462">
  <ele>-3.163</ele>
  <time>2026-09-02T22:09:30Z</time>
  <course>157.44</course>
  <speed>0.044721359549995794</speed>
  <fix>3d</fix>
</trkpt>
<trkpt lat="33.8105871" lon="-118.3934465">
  <ele>-2.73</ele>
  <time>2026-09-02T22:09:30Z</time>
  <course>120.07</course>
  <speed>0.01</speed>
  <fix>3d</fix>
</trkpt>
<trkpt lat="33.810587" lon="-118.3934462">
  <ele>-3.153</ele>
  <time>2026-09-02T22:09:30Z</time>
  <course>157.43</course>
  <speed>0.044721359549995794</speed>
  <fix>3d</fix>
</trkpt>
<trkpt lat="33.8105871" lon="-118.3934465">
  <ele>-2.71</ele>
  <time>2026-09-02T22:09:30Z</time>
  <course>120.09</course>
  <speed>0.01</speed>
  <fix>3d</fix>
</trkpt>
<trkpt lat="33.810587" lon="-118.3934462">
  <ele>-3.142</ele>
  <time>2026-09-02T22:09:30Z</time>
  <course>157.43</course>
  <speed>0.044721359549995794</speed>
  <fix>3d</fix>
</trkpt>
<trkpt lat="33.8105871" lon="-118.3934465">
  <ele>-2.71</ele>
  <time>2026-09-02T22:09:30Z</time>
  <course>120.09</course>
  <speed>0.01</speed>
  <fix>3d</fix>
</trkpt>
<trkpt lat="33.810587" lon="-118.3934461">
  <ele>-3.132</ele>
  <time>2026-09-02T22:09:30Z</time>
  <course>157.43</course>
  <speed>0.0412310562561766</speed>
  <fix>3d</fix>
</trkpt>
<trkpt lat="33.810587" lon="-118.3934464">
  <ele>-2.69</ele>
  <time>2026-09-02T22:09:30Z</time>
  <course>120.12</course>
  <speed>0.01</speed>
  <fix>3d</fix>
</trkpt>
<trkpt lat="33.810587" lon="-118.3934461">
  <ele>-3.122</ele>
  <time>2026-09-02T22:09:30Z</time>
  <course>157.42</course>
  <speed>0.0412310562561766</speed>
  <fix>3d</fix>
</trkpt>
<trkpt lat="33.810587" lon="-118.3934464">
  <ele>-2.69</ele>
  <time>2026-09-02T22:09:30Z</time>
  <course>120.12</course>
  <speed>0.01</speed>
  <fix>3d</fix>
</trkpt>
<trkpt lat="33.810587" lon="-118.3934461">
  <ele>-3.112</ele>
  <time>2026-09-02T22:09:30Z</time>
  <course>157.42</course>
  <speed>0.0412310562561766</speed>
  <fix>3d</fix>
</trkpt>
<trkpt lat="33.810587" lon="-118.3934463">
  <ele>-2.67</ele>
  <time>2026-09-02T22:09:30Z</time>
  <course>120.13</course>
  <speed>0.01</speed>
  <fix>3d</fix>
</trkpt>
<trkpt lat="33.810587" lon="-118.3934461">
  <ele>-3.103</ele>
  <time>2026-09-02T22:09:30Z</time>
  <course>157.42</course>
  <speed>0.0412310562561766</speed>
  <fix>3d</fix>
</trkpt>
<trkpt lat="33.810587" lon="-118.3934463">
  <ele>-2.67</ele>
  <time>2026-09-02T22:09:30Z</time>
  <course>120.13</course>
  <speed>0.01</speed>
  <fix>3d</fix>
</trkpt>
<trkpt lat="33.8105869" lon="-118.3934461">
  <ele>-3.094</ele>
  <time>2026-09-02T22:09:30Z</time>
  <course>157.41</course>
  <speed>0.0412310562561766</speed>
  <fix>3d</fix>
</trkpt>
<trkpt lat="33.810587" lon="-118.3934463">
  <ele>-2.65</ele>
  <time>2026-09-02T22:09:30Z</time>
  <course>120.12</course>
  <speed>0.01</speed>
  <fix>3d</fix>
</trkpt>
<trkpt lat="33.8105869" lon="-118.393446">
  <ele>-3.084</ele>
  <time>2026-09-02T22:09:31Z</time>
  <course>157.41</course>
  <speed>0.0412310562561766</speed>
  <fix>3d</fix>
</trkpt>
<trkpt lat="33.810587" lon="-118.3934463">
  <ele>-2.65</ele>
  <time>2026-09-02T22:09:31Z</time>
  <course>120.12</course>
  <speed>0.01</speed>
  <fix>3d</fix>
</trkpt>
<trkpt lat="33.8105869" lon="-118.393446">
  <ele>-3.075</ele>
  <time>2026-09-02T22:09:31Z</time>
  <course>157.4</course>
  <speed>0.0412310562561766</speed>
  <fix>3d</fix>
</trkpt>
<trkpt lat="33.810587" lon="-118.3934463">
  <ele>-2.63</ele>
  <time>2026-09-02T22:09:31Z</time>
  <course>120.1</course>
  <speed>0.01</speed>
  <fix>3d</fix>
</trkpt>
<trkpt lat="33.8105869" lon="-118.393446">
  <ele>-3.066</ele>
  <time>2026-09-02T22:09:31Z</time>
  <course>157.4</course>
  <speed>0.0412310562561766</speed>
  <fix>3d</fix>
</trkpt>
<trkpt lat="33.810587" lon="-118.3934463">
  <ele>-2.63</ele>
  <time>2026-09-02T22:09:31Z</time>
  <course>120.1</course>
  <speed>0.01</speed>
  <fix>3d</fix>
</trkpt>
<trkpt lat="33.8105869" lon="-118.393446">
  <ele>-3.057</ele>
  <time>2026-09-02T22:09:31Z</time>
  <course>157.4</course>
  <speed>0.0412310562561766</speed>
  <fix>3d</fix>
</trkpt>
<trkpt lat="33.810587" lon="-118.3934463">
  <ele>-2.61</ele>
  <time>2026-09-02T22:09:31Z</time>
  <course>120.08</course>
  <speed>0.01</speed>
  <fix>3d</fix>
</trkpt>
<trkpt lat="33.8105869" lon="-118.393446">
  <ele>-3.048</ele>
  <time>2026-09-02T22:09:31Z</time>
  <course>157.39</course>
  <speed>0.0412310562561766</speed>
  <fix>3d</fix>
</trkpt>
<trkpt lat="33.810587" lon="-118.3934463">
  <ele>-2.61</ele>
  <time>2026-09-02T22:09:31Z</time>
  <course>120.08</course>
  <speed>0.01</speed>
  <fix>3d</fix>
</trkpt>
<trkpt lat="33.8105869" lon="-118.393446">
  <ele>-3.039</ele>
  <time>2026-09-02T22:09:31Z</time>
  <course>157.39</course>
  <speed>0.0412310562561766</speed>
  <fix>3d</fix>
</trkpt>
<trkpt lat="33.810587" lon="-118.3934463">
  <ele>-2.59</ele>
  <time>2026-09-02T22:09:31Z</time>
  <course>120.09</course>
  <speed>0.01</speed>
  <fix>3d</fix>
</trkpt>
<trkpt lat="33.8105869" lon="-118.3934459">
  <ele>-3.03</ele>
  <time>2026-09-02T22:09:31Z</time>
  <course>157.39</course>
  <speed>0.0412310562561766</speed>
  <fix>3d</fix>
</trkpt>
<trkpt lat="33.810587" lon="-118.3934463">
  <ele>-2.59</ele>
  <time>2026-09-02T22:09:31Z</time>
  <course>120.09</course>
  <speed>0.01</speed>
  <fix>3d</fix>
</trkpt>
<trkpt lat="33.8105869" lon="-118.3934459">
  <ele>-3.021</ele>
  <time>2026-09-02T22:09:31Z</time>
  <course>157.38</course>
  <speed>0.0412310562561766</speed>
  <fix>3d</fix>
</trkpt>
<trkpt lat="33.810587" lon="-118.3934463">
  <ele>-2.58</ele>
  <time>2026-09-02T22:09:31Z</time>
  <course>120.12</course>
  <speed>0.01</speed>
  <fix>3d</fix>
</trkpt>
<trkpt lat="33.8105869" lon="-118.3934459">
  <ele>-3.011</ele>
  <time>2026-09-02T22:09:31Z</time>
  <course>157.38</course>
  <speed>0.0412310562561766</speed>
  <fix>3d</fix>
</trkpt>
<trkpt lat="33.810587" lon="-118.3934463">
  <ele>-2.58</ele>
  <time>2026-09-02T22:09:31Z</time>
  <course>120.12</course>
  <speed>0.01</speed>
  <fix>3d</fix>
</trkpt>
<trkpt lat="33.8105869" lon="-118.3934459">
  <ele>-3.001</ele>
  <time>2026-09-02T22:09:31Z</time>
  <course>157.38</course>
  <speed>0.0412310562561766</speed>
  <fix>3d</fix>
</trkpt>
<trkpt lat="33.8105869" lon="-118.3934462">
  <ele>-2.56</ele>
  <time>2026-09-02T22:09:31Z</time>
  <course>120.14</course>
  <speed>0.01</speed>
  <fix>3d</fix>
</trkpt>
<trkpt lat="33.8105869" lon="-118.3934459">
  <ele>-2.991</ele>
  <time>2026-09-02T22:09:31Z</time>
  <course>157.37</course>
  <speed>0.0412310562561766</speed>
  <fix>3d</fix>
</trkpt>
<trkpt lat="33.8105869" lon="-118.3934462">
  <ele>-2.56</ele>
  <time>2026-09-02T22:09:31Z</time>
  <course>120.14</course>
  <speed>0.01</speed>
  <fix>3d</fix>
</trkpt>
<trkpt lat="33.8105869" lon="-118.3934459">
  <ele>-2.981</ele>
  <time>2026-09-02T22:09:32Z</time>
  <course>157.37</course>
  <speed>0.0412310562561766</speed>
  <fix>3d</fix>
</trkpt>
<trkpt lat="33.8105868" lon="-118.3934462">
  <ele>-2.54</ele>
  <time>2026-09-02T22:09:32Z</time>
  <course>120.14</course>
  <speed>0.01</speed>
  <fix>3d</fix>
</trkpt>
<trkpt lat="33.8105869" lon="-118.3934459">
  <ele>-2.972</ele>
  <time>2026-09-02T22:09:32Z</time>
  <course>157.37</course>
  <speed>0.0412310562561766</speed>
  <fix>3d</fix>
</trkpt>
<trkpt lat="33.8105868" lon="-118.3934462">
  <ele>-2.54</ele>
  <time>2026-09-02T22:09:32Z</time>
  <course>120.14</course>
  <speed>0.01</speed>
  <fix>3d</fix>
</trkpt>
<trkpt lat="33.8105868" lon="-118.3934459">
  <ele>-2.962</ele>
  <time>2026-09-02T22:09:32Z</time>
  <course>157.36</course>
  <speed>0.044721359549995794</speed>
  <fix>3d</fix>
</trkpt>
<trkpt lat="33.8105868" lon="-118.3934462">
  <ele>-2.52</ele>
  <time>2026-09-02T22:09:32Z</time>
  <course>120.12</course>
  <speed>0.01</speed>
  <fix>3d</fix>
</trkpt>
<trkpt lat="33.8105868" lon="-118.3934458">
  <ele>-2.952</ele>
  <time>2026-09-02T22:09:32Z</time>
  <course>157.36</course>
  <speed>0.044721359549995794</speed>
  <fix>3d</fix>
</trkpt>
<trkpt lat="33.8105868" lon="-118.3934462">
  <ele>-2.52</ele>
  <time>2026-09-02T22:09:32Z</time>
  <course>120.12</course>
  <speed>0.01</speed>
  <fix>3d</fix>
</trkpt>
<trkpt lat="33.8105868" lon="-118.3934458">
  <ele>-2.942</ele>
  <time>2026-09-02T22:09:32Z</time>
  <course>157.36</course>
  <speed>0.044721359549995794</speed>
  <fix>3d</fix>
</trkpt>
<trkpt lat="33.8105868" lon="-118.3934461">
  <ele>-2.5</ele>
  <time>2026-09-02T22:09:32Z</time>
  <course>120.1</course>
  <speed>0.01</speed>
  <fix>3d</fix>
</trkpt>
<trkpt lat="33.8105868" lon="-118.3934458">
  <ele>-2.933</ele>
  <time>2026-09-02T22:09:32Z</time>
  <course>157.35</course>
  <speed>0.044721359549995794</speed>
  <fix>3d</fix>
</trkpt>
<trkpt lat="33.8105868" lon="-118.3934461">
  <ele>-2.5</ele>
  <time>2026-09-02T22:09:32Z</time>
  <course>120.1</course>
  <speed>0.01</speed>
  <fix>3d</fix>
</trkpt>
<trkpt lat="33.8105868" lon="-118.3934458">
  <ele>-2.924</ele>
  <time>2026-09-02T22:09:32Z</time>
  <course>157.35</course>
  <speed>0.044721359549995794</speed>
  <fix>3d</fix>
</trkpt>
<trkpt lat="33.8105868" lon="-118.3934461">
  <ele>-2.48</ele>
  <time>2026-09-02T22:09:32Z</time>
  <course>120.09</course>
  <speed>0.01</speed>
  <fix>3d</fix>
</trkpt>
<trkpt lat="33.8105868" lon="-118.3934458">
  <ele>-2.915</ele>
  <time>2026-09-02T22:09:32Z</time>
  <course>157.35</course>
  <speed>0.044721359549995794</speed>
  <fix>3d</fix>
</trkpt>
<trkpt lat="33.8105868" lon="-118.3934461">
  <ele>-2.48</ele>
  <time>2026-09-02T22:09:32Z</time>
  <course>120.09</course>
  <speed>0.01</speed>
  <fix>3d</fix>
</trkpt>
<trkpt lat="33.8105868" lon="-118.3934458">
  <ele>-2.907</ele>
  <time>2026-09-02T22:09:32Z</time>
  <course>157.34</course>
  <speed>0.044721359549995794</speed>
  <fix>3d</fix>
</trkpt>
<trkpt lat="33.8105868" lon="-118.3934461">
  <ele>-2.46</ele>
  <time>2026-09-02T22:09:32Z</time>
  <course>120.11</course>
  <speed>0.01</speed>
  <fix>3d</fix>
</trkpt>
<trkpt lat="33.8105867" lon="-118.3934458">
  <ele>-2.897</ele>
  <time>2026-09-02T22:09:32Z</time>
  <course>157.34</course>
  <speed>0.044721359549995794</speed>
  <fix>3d</fix>
</trkpt>
<trkpt lat="33.8105868" lon="-118.3934461">
  <ele>-2.46</ele>
  <time>2026-09-02T22:09:32Z</time>
  <course>120.11</course>
  <speed>0.01</speed>
  <fix>3d</fix>
</trkpt>
<trkpt lat="33.8105867" lon="-118.3934458">
  <ele>-2.887</ele>
  <time>2026-09-02T22:09:33Z</time>
  <course>157.33</course>
  <speed>0.044721359549995794</speed>
  <fix>3d</fix>
</trkpt>
<trkpt lat="33.8105868" lon="-118.3934461">
  <ele>-2.44</ele>
  <time>2026-09-02T22:09:33Z</time>
  <course>120.14</course>
  <speed>0.01</speed>
  <fix>3d</fix>
</trkpt>
<trkpt lat="33.8105867" lon="-118.3934458">
  <ele>-2.875</ele>
  <time>2026-09-02T22:09:33Z</time>
  <course>157.33</course>
  <speed>0.044721359549995794</speed>
  <fix>3d</fix>
</trkpt>
<trkpt lat="33.8105868" lon="-118.3934461">
  <ele>-2.44</ele>
  <time>2026-09-02T22:09:33Z</time>
  <course>120.14</course>
  <speed>0.01</speed>
  <fix>3d</fix>
</trkpt>
<trkpt lat="33.8105867" lon="-118.3934457">
  <ele>-2.864</ele>
  <time>2026-09-02T22:09:33Z</time>
  <course>157.33</course>
  <speed>0.044721359549995794</speed>
  <fix>3d</fix>
</trkpt>
<trkpt lat="33.8105868" lon="-118.393446">
  <ele>-2.42</ele>
  <time>2026-09-02T22:09:33Z</time>
  <course>120.15</course>
  <speed>0.01</speed>
  <fix>3d</fix>
</trkpt>
<trkpt lat="33.8105867" lon="-118.3934457">
  <ele>-2.854</ele>
  <time>2026-09-02T22:09:33Z</time>
  <course>157.32</course>
  <speed>0.044721359549995794</speed>
  <fix>3d</fix>
</trkpt>
<trkpt lat="33.8105868" lon="-118.393446">
  <ele>-2.42</ele>
  <time>2026-09-02T22:09:33Z</time>
  <course>120.15</course>
  <speed>0.01</speed>
  <fix>3d</fix>
</trkpt>
<trkpt lat="33.8105867" lon="-118.3934457">
  <ele>-2.844</ele>
  <time>2026-09-02T22:09:33Z</time>
  <course>157.32</course>
  <speed>0.044721359549995794</speed>
  <fix>3d</fix>
</trkpt>
<trkpt lat="33.8105867" lon="-118.393446">
  <ele>-2.4</ele>
  <time>2026-09-02T22:09:33Z</time>
  <course>120.14</course>
  <speed>0.01</speed>
  <fix>3d</fix>
</trkpt>
<trkpt lat="33.8105867" lon="-118.3934457">
  <ele>-2.834</ele>
  <time>2026-09-02T22:09:33Z</time>
  <course>157.32</course>
  <speed>0.044721359549995794</speed>
  <fix>3d</fix>
</trkpt>
<trkpt lat="33.8105867" lon="-118.393446">
  <ele>-2.4</ele>
  <time>2026-09-02T22:09:33Z</time>
  <course>120.14</course>
  <speed>0.01</speed>
  <fix>3d</fix>
</trkpt>
<trkpt lat="33.8105867" lon="-118.3934457">
  <ele>-2.825</ele>
  <time>2026-09-02T22:09:33Z</time>
  <course>157.31</course>
  <speed>0.044721359549995794</speed>
  <fix>3d</fix>
</trkpt>
<trkpt lat="33.8105867" lon="-118.393446">
  <ele>-2.38</ele>
  <time>2026-09-02T22:09:33Z</time>
  <course>120.12</course>
  <speed>0.01</speed>
  <fix>3d</fix>
</trkpt>
<trkpt lat="33.8105867" lon="-118.3934457">
  <ele>-2.815</ele>
  <time>2026-09-02T22:09:33Z</time>
  <course>157.31</course>
  <speed>0.044721359549995794</speed>
  <fix>3d</fix>
</trkpt>
<trkpt lat="33.8105867" lon="-118.393446">
  <ele>-2.38</ele>
  <time>2026-09-02T22:09:33Z</time>
  <course>120.12</course>
  <speed>0.01</speed>
  <fix>3d</fix>
</trkpt>
<trkpt lat="33.8105867" lon="-118.3934457">
  <ele>-2.807</ele>
  <time>2026-09-02T22:09:33Z</time>
  <course>157.31</course>
  <speed>0.044721359549995794</speed>
  <fix>3d</fix>
</trkpt>
<trkpt lat="33.8105867" lon="-118.3934459">
  <ele>-2.37</ele>
  <time>2026-09-02T22:09:33Z</time>
  <course>120.1</course>
  <speed>0.01</speed>
  <fix>3d</fix>
</trkpt>
<trkpt lat="33.8105866" lon="-118.3934456">
  <ele>-2.799</ele>
  <time>2026-09-02T22:09:33Z</time>
  <course>157.3</course>
  <speed>0.044721359549995794</speed>
  <fix>3d</fix>
</trkpt>
<trkpt lat="33.8105867" lon="-118.3934459">
  <ele>-2.37</ele>
  <time>2026-09-02T22:09:33Z</time>
  <course>120.1</course>
  <speed>0.01</speed>
  <fix>3d</fix>
</trkpt>
<trkpt lat="33.8105866" lon="-118.3934456">
  <ele>-2.791</ele>
  <time>2026-09-02T22:09:34Z</time>
  <course>157.3</course>
  <speed>0.044721359549995794</speed>
  <fix>3d</fix>
</trkpt>
<trkpt lat="33.8105867" lon="-118.3934459">
  <ele>-2.35</ele>
  <time>2026-09-02T22:09:34Z</time>
  <course>120.1</course>
  <speed>0.01</speed>
  <fix>3d</fix>
</trkpt>
<trkpt lat="33.8105866" lon="-118.3934456">
  <ele>-2.783</ele>
  <time>2026-09-02T22:09:34Z</time>
  <course>157.3</course>
  <speed>0.044721359549995794</speed>
  <fix>3d</fix>
</trkpt>
<trkpt lat="33.8105867" lon="-118.3934459">
  <ele>-2.35</ele>
  <time>2026-09-02T22:09:34Z</time>
  <course>120.1</course>
  <speed>0.01</speed>
  <fix>3d</fix>
</trkpt>
<trkpt lat="33.8105866" lon="-118.3934456">
  <ele>-2.773</ele>
  <time>2026-09-02T22:09:34Z</time>
  <course>157.29</course>
  <speed>0.044721359549995794</speed>
  <fix>3d</fix>
</trkpt>
<trkpt lat="33.8105867" lon="-118.3934459">
  <ele>-2.33</ele>
  <time>2026-09-02T22:09:34Z</time>
  <course>120.12</course>
  <speed>0.01</speed>
  <fix>3d</fix>
</trkpt>
<trkpt lat="33.8105866" lon="-118.3934456">
  <ele>-2.763</ele>
  <time>2026-09-02T22:09:34Z</time>
  <course>157.29</course>
  <speed>0.044721359549995794</speed>
  <fix>3d</fix>
</trkpt>
<trkpt lat="33.8105867" lon="-118.3934459">
  <ele>-2.33</ele>
  <time>2026-09-02T22:09:34Z</time>
  <course>120.12</course>
  <speed>0.01</speed>
  <fix>3d</fix>
</trkpt>
<trkpt lat="33.8105866" lon="-118.3934456">
  <ele>-2.754</ele>
  <time>2026-09-02T22:09:34Z</time>
  <course>157.29</course>
  <speed>0.044721359549995794</speed>
  <fix>3d</fix>
</trkpt>
<trkpt lat="33.8105867" lon="-118.3934459">
  <ele>-2.31</ele>
  <time>2026-09-02T22:09:34Z</time>
  <course>120.15</course>
  <speed>0.01</speed>
  <fix>3d</fix>
</trkpt>
<trkpt lat="33.8105866" lon="-118.3934456">
  <ele>-2.744</ele>
  <time>2026-09-02T22:09:34Z</time>
  <course>157.28</course>
  <speed>0.044721359549995794</speed>
  <fix>3d</fix>
</trkpt>
<trkpt lat="33.8105867" lon="-118.3934459">
  <ele>-2.31</ele>
  <time>2026-09-02T22:09:34Z</time>
  <course>120.15</course>
  <speed>0.01</speed>
  <fix>3d</fix>
</trkpt>
<trkpt lat="33.8105866" lon="-118.3934456">
  <ele>-2.734</ele>
  <time>2026-09-02T22:09:34Z</time>
  <course>157.28</course>
  <speed>0.044721359549995794</speed>
  <fix>3d</fix>
</trkpt>
<trkpt lat="33.8105867" lon="-118.3934458">
  <ele>-2.29</ele>
  <time>2026-09-02T22:09:34Z</time>
  <course>120.16</course>
  <speed>0.01</speed>
  <fix>3d</fix>
</trkpt>
<trkpt lat="33.8105866" lon="-118.3934455">
  <ele>-2.723</ele>
  <time>2026-09-02T22:09:34Z</time>
  <course>157.28</course>
  <speed>0.044721359549995794</speed>
  <fix>3d</fix>
</trkpt>
<trkpt lat="33.8105867" lon="-118.3934458">
  <ele>-2.29</ele>
  <time>2026-09-02T22:09:34Z</time>
  <course>120.16</course>
  <speed>0.01</speed>
  <fix>3d</fix>
</trkpt>
<trkpt lat="33.8105866" lon="-118.3934455">
  <ele>-2.713</ele>
  <time>2026-09-02T22:09:34Z</time>
  <course>157.27</course>
  <speed>0.044721359549995794</speed>
  <fix>3d</fix>
</trkpt>
<trkpt lat="33.8105867" lon="-118.3934458">
  <ele>-2.27</ele>
  <time>2026-09-02T22:09:34Z</time>
  <course>120.14</course>
  <speed>0.01</speed>
  <fix>3d</fix>
</trkpt>
<trkpt lat="33.8105866" lon="-118.3934455">
  <ele>-2.704</ele>
  <time>2026-09-02T22:09:34Z</time>
  <course>157.27</course>
  <speed>0.044721359549995794</speed>
  <fix>3d</fix>
</trkpt>
<trkpt lat="33.8105867" lon="-118.3934458">
  <ele>-2.27</ele>
  <time>2026-09-02T22:09:34Z</time>
  <course>120.14</course>
  <speed>0.01</speed>
  <fix>3d</fix>
</trkpt>
<trkpt lat="33.8105866" lon="-118.3934455">
  <ele>-2.695</ele>
  <time>2026-09-02T22:09:35Z</time>
  <course>157.27</course>
  <speed>0.044721359549995794</speed>
  <fix>3d</fix>
</trkpt>
<trkpt lat="33.8105867" lon="-118.3934458">
  <ele>-2.25</ele>
  <time>2026-09-02T22:09:35Z</time>
  <course>120.11</course>
  <speed>0.01</speed>
  <fix>3d</fix>
</trkpt>
<trkpt lat="33.8105866" lon="-118.3934455">
  <ele>-2.685</ele>
  <time>2026-09-02T22:09:35Z</time>
  <course>157.26</course>
  <speed>0.044721359549995794</speed>
  <fix>3d</fix>
</trkpt>
<trkpt lat="33.8105867" lon="-118.3934458">
  <ele>-2.25</ele>
  <time>2026-09-02T22:09:35Z</time>
  <course>120.11</course>
  <speed>0.01</speed>
  <fix>3d</fix>
</trkpt>
<trkpt lat="33.8105866" lon="-118.3934455">
  <ele>-2.676</ele>
  <time>2026-09-02T22:09:35Z</time>
  <course>157.26</course>
  <speed>0.044721359549995794</speed>
  <fix>3d</fix>
</trkpt>
<trkpt lat="33.8105867" lon="-118.3934458">
  <ele>-2.23</ele>
  <time>2026-09-02T22:09:35Z</time>
  <course>120.1</course>
  <speed>0.01</speed>
  <fix>3d</fix>
</trkpt>
<trkpt lat="33.8105866" lon="-118.3934455">
  <ele>-2.666</ele>
  <time>2026-09-02T22:09:35Z</time>
  <course>157.26</course>
  <speed>0.044721359549995794</speed>
  <fix>3d</fix>
</trkpt>
<trkpt lat="33.8105867" lon="-118.3934458">
  <ele>-2.23</ele>
  <time>2026-09-02T22:09:35Z</time>
  <course>120.1</course>
  <speed>0.01</speed>
  <fix>3d</fix>
</trkpt>
<trkpt lat="33.8105866" lon="-118.3934455">
  <ele>-2.655</ele>
  <time>2026-09-02T22:09:35Z</time>
  <course>157.25</course>
  <speed>0.0412310562561766</speed>
  <fix>3d</fix>
</trkpt>
<trkpt lat="33.8105867" lon="-118.3934457">
  <ele>-2.21</ele>
  <time>2026-09-02T22:09:35Z</time>
  <course>120.11</course>
  <speed>0.01</speed>
  <fix>3d</fix>
</trkpt>
<trkpt lat="33.8105866" lon="-118.3934454">
  <ele>-2.646</ele>
  <time>2026-09-02T22:09:35Z</time>
  <course>157.25</course>
  <speed>0.0412310562561766</speed>
  <fix>3d</fix>
</trkpt>
<trkpt lat="33.8105867" lon="-118.3934457">
  <ele>-2.21</ele>
  <time>2026-09-02T22:09:35Z</time>
  <course>120.11</course>
  <speed>0.01</speed>
  <fix>3d</fix>
</trkpt>
<trkpt lat="33.8105866" lon="-118.3934454">
  <ele>-2.636</ele>
  <time>2026-09-02T22:09:35Z</time>
  <course>157.25</course>
  <speed>0.0412310562561766</speed>
  <fix>3d</fix>
</trkpt>
<trkpt lat="33.8105867" lon="-118.3934457">
  <ele>-2.19</ele>
  <time>2026-09-02T22:09:35Z</time>
  <course>120.14</course>
  <speed>0.01</speed>
  <fix>3d</fix>
</trkpt>
<trkpt lat="33.8105866" lon="-118.3934454">
  <ele>-2.626</ele>
  <time>2026-09-02T22:09:35Z</time>
  <course>157.24</course>
  <speed>0.0412310562561766</speed>
  <fix>3d</fix>
</trkpt>
<trkpt lat="33.8105867" lon="-118.3934457">
  <ele>-2.19</ele>
  <time>2026-09-02T22:09:35Z</time>
  <course>120.14</course>
  <speed>0.01</speed>
  <fix>3d</fix>
</trkpt>
<trkpt lat="33.8105866" lon="-118.3934454">
  <ele>-2.616</ele>
  <time>2026-09-02T22:09:35Z</time>
  <course>157.24</course>
  <speed>0.0412310562561766</speed>
  <fix>3d</fix>
</trkpt>
<trkpt lat="33.8105867" lon="-118.3934457">
  <ele>-2.17</ele>
  <time>2026-09-02T22:09:35Z</time>
  <course>120.16</course>
  <speed>0.01</speed>
  <fix>3d</fix>
</trkpt>
<trkpt lat="33.8105866" lon="-118.3934454">
  <ele>-2.605</ele>
  <time>2026-09-02T22:09:35Z</time>
  <course>157.24</course>
  <speed>0.0412310562561766</speed>
  <fix>3d</fix>
</trkpt>
<trkpt lat="33.8105867" lon="-118.3934457">
  <ele>-2.17</ele>
  <time>2026-09-02T22:09:35Z</time>
  <course>120.16</course>
  <speed>0.01</speed>
  <fix>3d</fix>
</trkpt>
<trkpt lat="33.8105866" lon="-118.3934454">
  <ele>-2.594</ele>
  <time>2026-09-02T22:09:36Z</time>
  <course>157.23</course>
  <speed>0.0412310562561766</speed>
  <fix>3d</fix>
</trkpt>
<trkpt lat="33.8105867" lon="-118.3934457">
  <ele>-2.16</ele>
  <time>2026-09-02T22:09:36Z</time>
  <course>120.16</course>
  <speed>0.01</speed>
  <fix>3d</fix>
</trkpt>
<trkpt lat="33.8105866" lon="-118.3934454">
  <ele>-2.584</ele>
  <time>2026-09-02T22:09:36Z</time>
  <course>157.23</course>
  <speed>0.0412310562561766</speed>
  <fix>3d</fix>
</trkpt>
<trkpt lat="33.8105867" lon="-118.3934457">
  <ele>-2.16</ele>
  <time>2026-09-02T22:09:36Z</time>
  <course>120.16</course>
  <speed>0.01</speed>
  <fix>3d</fix>
</trkpt>
<trkpt lat="33.8105866" lon="-118.3934454">
  <ele>-2.573</ele>
  <time>2026-09-02T22:09:36Z</time>
  <course>157.23</course>
  <speed>0.0412310562561766</speed>
  <fix>3d</fix>
</trkpt>
<trkpt lat="33.8105867" lon="-118.3934456">
  <ele>-2.14</ele>
  <time>2026-09-02T22:09:36Z</time>
  <course>120.14</course>
  <speed>0.01</speed>
  <fix>3d</fix>
</trkpt>
<trkpt lat="33.8105866" lon="-118.3934454">
  <ele>-2.563</ele>
  <time>2026-09-02T22:09:36Z</time>
  <course>157.22</course>
  <speed>0.0412310562561766</speed>
  <fix>3d</fix>
</trkpt>
<trkpt lat="33.8105867" lon="-118.3934456">
  <ele>-2.14</ele>
  <time>2026-09-02T22:09:36Z</time>
  <course>120.14</course>
  <speed>0.01</speed>
  <fix>3d</fix>
</trkpt>
<trkpt lat="33.8105866" lon="-118.3934453">
  <ele>-2.554</ele>
  <time>2026-09-02T22:09:36Z</time>
  <course>157.22</course>
  <speed>0.0412310562561766</speed>
  <fix>3d</fix>
</trkpt>
<trkpt lat="33.8105867" lon="-118.3934456">
  <ele>-2.12</ele>
  <time>2026-09-02T22:09:36Z</time>
  <course>120.11</course>
  <speed>0.01</speed>
  <fix>3d</fix>
</trkpt>
<trkpt lat="33.8105866" lon="-118.3934453">
  <ele>-2.546</ele>
  <time>2026-09-02T22:09:36Z</time>
  <course>157.22</course>
  <speed>0.0412310562561766</speed>
  <fix>3d</fix>
</trkpt>
<trkpt lat="33.8105867" lon="-118.3934456">
  <ele>-2.12</ele>
  <time>2026-09-02T22:09:36Z</time>
  <course>120.11</course>
  <speed>0.01</speed>
  <fix>3d</fix>
</trkpt>
<trkpt lat="33.8105866" lon="-118.3934453">
  <ele>-2.536</ele>
  <time>2026-09-02T22:09:36Z</time>
  <course>157.21</course>
  <speed>0.0412310562561766</speed>
  <fix>3d</fix>
</trkpt>
<trkpt lat="33.8105866" lon="-118.3934456">
  <ele>-2.1</ele>
  <time>2026-09-02T22:09:36Z</time>
  <course>120.1</course>
  <speed>0.01</speed>
  <fix>3d</fix>
</trkpt>
<trkpt lat="33.8105866" lon="-118.3934453">
  <ele>-2.527</ele>
  <time>2026-09-02T22:09:36Z</time>
  <course>157.21</course>
  <speed>0.0412310562561766</speed>
  <fix>3d</fix>
</trkpt>
<trkpt lat="33.8105866" lon="-118.3934456">
  <ele>-2.1</ele>
  <time>2026-09-02T22:09:36Z</time>
  <course>120.1</course>
  <speed>0.01</speed>
  <fix>3d</fix>
</trkpt>
<trkpt lat="33.8105866" lon="-118.3934453">
  <ele>-2.516</ele>
  <time>2026-09-02T22:09:36Z</time>
  <course>157.21</course>
  <speed>0.0412310562561766</speed>
  <fix>3d</fix>
</trkpt>
<trkpt lat="33.8105866" lon="-118.3934456">
  <ele>-2.08</ele>
  <time>2026-09-02T22:09:36Z</time>
  <course>120.12</course>
  <speed>0.01</speed>
  <fix>3d</fix>
</trkpt>
<trkpt lat="33.8105866" lon="-118.3934453">
  <ele>-2.505</ele>
  <time>2026-09-02T22:09:36Z</time>
  <course>157.2</course>
  <speed>0.0412310562561766</speed>
  <fix>3d</fix>
</trkpt>
<trkpt lat="33.8105866" lon="-118.3934456">
  <ele>-2.08</ele>
  <time>2026-09-02T22:09:36Z</time>
  <course>120.12</course>
  <speed>0.01</speed>
  <fix>3d</fix>
</trkpt>
<trkpt lat="33.8105866" lon="-118.3934453">
  <ele>-2.496</ele>
  <time>2026-09-02T22:09:37Z</time>
  <course>157.2</course>
  <speed>0.0412310562561766</speed>
  <fix>3d</fix>
</trkpt>
<trkpt lat="33.8105866" lon="-118.3934456">
  <ele>-2.06</ele>
  <time>2026-09-02T22:09:37Z</time>
  <course>120.15</course>
  <speed>0.01</speed>
  <fix>3d</fix>
</trkpt>
<trkpt lat="33.8105865" lon="-118.3934453">
  <ele>-2.487</ele>
  <time>2026-09-02T22:09:37Z</time>
  <course>157.2</course>
  <speed>0.0412310562561766</speed>
  <fix>3d</fix>
</trkpt>
<trkpt lat="33.8105866" lon="-118.3934456">
  <ele>-2.06</ele>
  <time>2026-09-02T22:09:37Z</time>
  <course>120.15</course>
  <speed>0.01</speed>
  <fix>3d</fix>
</trkpt>
<trkpt lat="33.8105865" lon="-118.3934453">
  <ele>-2.478</ele>
  <time>2026-09-02T22:09:37Z</time>
  <course>157.19</course>
  <speed>0.0412310562561766</speed>
  <fix>3d</fix>
</trkpt>
<trkpt lat="33.8105866" lon="-118.3934455">
  <ele>-2.04</ele>
  <time>2026-09-02T22:09:37Z</time>
  <course>120.17</course>
  <speed>0.01</speed>
  <fix>3d</fix>
</trkpt>
<trkpt lat="33.8105865" lon="-118.3934452">
  <ele>-2.468</ele>
  <time>2026-09-02T22:09:37Z</time>
  <course>157.19</course>
  <speed>0.0412310562561766</speed>
  <fix>3d</fix>
</trkpt>
<trkpt lat="33.8105866" lon="-118.3934455">
  <ele>-2.04</ele>
  <time>2026-09-02T22:09:37Z</time>
  <course>120.17</course>
  <speed>0.01</speed>
  <fix>3d</fix>
</trkpt>
<trkpt lat="33.8105865" lon="-118.3934452">
  <ele>-2.459</ele>
  <time>2026-09-02T22:09:37Z</time>
  <course>157.19</course>
  <speed>0.0412310562561766</speed>
  <fix>3d</fix>
</trkpt>
<trkpt lat="33.8105866" lon="-118.3934455">
  <ele>-2.02</ele>
  <time>2026-09-02T22:09:37Z</time>
  <course>120.16</course>
  <speed>0.01</speed>
  <fix>3d</fix>
</trkpt>
<trkpt lat="33.8105865" lon="-118.3934452">
  <ele>-2.451</ele>
  <time>2026-09-02T22:09:37Z</time>
  <course>157.19</course>
  <speed>0.0412310562561766</speed>
  <fix>3d</fix>
</trkpt>
<trkpt lat="33.8105866" lon="-118.3934455">
  <ele>-2.02</ele>
  <time>2026-09-02T22:09:37Z</time>
  <course>120.16</course>
  <speed>0.01</speed>
  <fix>3d</fix>
</trkpt>
<trkpt lat="33.8105865" lon="-118.3934452">
  <ele>-2.442</ele>
  <time>2026-09-02T22:09:37Z</time>
  <course>157.18</course>
  <speed>0.0412310562561766</speed>
  <fix>3d</fix>
</trkpt>
<trkpt lat="33.8105866" lon="-118.3934455">
  <ele>-2.0</ele>
  <time>2026-09-02T22:09:37Z</time>
  <course>120.13</course>
  <speed>0.01</speed>
  <fix>3d</fix>
</trkpt>
<trkpt lat="33.8105865" lon="-118.3934452">
  <ele>-2.433</ele>
  <time>2026-09-02T22:09:37Z</time>
  <course>157.18</course>
  <speed>0.0412310562561766</speed>
  <fix>3d</fix>
</trkpt>
<trkpt lat="33.8105866" lon="-118.3934455">
  <ele>-2.0</ele>
  <time>2026-09-02T22:09:37Z</time>
  <course>120.13</course>
  <speed>0.01</speed>
  <fix>3d</fix>
</trkpt>
<trkpt lat="33.8105865" lon="-118.3934452">
  <ele>-2.423</ele>
  <time>2026-09-02T22:09:37Z</time>
  <course>157.18</course>
  <speed>0.0412310562561766</speed>
  <fix>3d</fix>
</trkpt>
<trkpt lat="33.8105866" lon="-118.3934455">
  <ele>-1.98</ele>
  <time>2026-09-02T22:09:37Z</time>
  <course>120.11</course>
  <speed>0.01</speed>
  <fix>3d</fix>
</trkpt>
<trkpt lat="33.8105865" lon="-118.3934452">
  <ele>-2.414</ele>
  <time>2026-09-02T22:09:37Z</time>
  <course>157.17</course>
  <speed>0.0412310562561766</speed>
  <fix>3d</fix>
</trkpt>
<trkpt lat="33.8105866" lon="-118.3934455">
  <ele>-1.98</ele>
  <time>2026-09-02T22:09:37Z</time>
  <course>120.11</course>
  <speed>0.01</speed>
  <fix>3d</fix>
</trkpt>
<trkpt lat="33.8105865" lon="-118.3934452">
  <ele>-2.405</ele>
  <time>2026-09-02T22:09:38Z</time>
  <course>157.17</course>
  <speed>0.0316227766016838</speed>
  <fix>3d</fix>
</trkpt>
<trkpt lat="33.8105866" lon="-118.3934454">
  <ele>-1.97</ele>
  <time>2026-09-02T22:09:38Z</time>
  <course>120.11</course>
  <speed>0.01</speed>
  <fix>3d</fix>
</trkpt>
<trkpt lat="33.8105865" lon="-118.3934452">
  <ele>-2.396</ele>
  <time>2026-09-02T22:09:38Z</time>
  <course>157.17</course>
  <speed>0.0316227766016838</speed>
  <fix>3d</fix>
</trkpt>
<trkpt lat="33.8105866" lon="-118.3934454">
  <ele>-1.97</ele>
  <time>2026-09-02T22:09:38Z</time>
  <course>120.11</course>
  <speed>0.01</speed>
  <fix>3d</fix>
</trkpt>
<trkpt lat="33.8105865" lon="-118.3934451">
  <ele>-2.388</ele>
  <time>2026-09-02T22:09:38Z</time>
  <course>157.16</course>
  <speed>0.0316227766016838</speed>
  <fix>3d</fix>
</trkpt>
<trkpt lat="33.8105866" lon="-118.3934454">
  <ele>-1.95</ele>
  <time>2026-09-02T22:09:38Z</time>
  <course>120.14</course>
  <speed>0.01</speed>
  <fix>3d</fix>
</trkpt>
<trkpt lat="33.8105865" lon="-118.3934451">
  <ele>-2.378</ele>
  <time>2026-09-02T22:09:38Z</time>
  <course>157.16</course>
  <speed>0.0316227766016838</speed>
  <fix>3d</fix>
</trkpt>
<trkpt lat="33.8105866" lon="-118.3934454">
  <ele>-1.95</ele>
  <time>2026-09-02T22:09:38Z</time>
  <course>120.14</course>
  <speed>0.01</speed>
  <fix>3d</fix>
</trkpt>
<trkpt lat="33.8105865" lon="-118.3934451">
  <ele>-2.368</ele>
  <time>2026-09-02T22:09:38Z</time>
  <course>157.16</course>
  <speed>0.0316227766016838</speed>
  <fix>3d</fix>
</trkpt>
<trkpt lat="33.8105865" lon="-118.3934454">
  <ele>-1.93</ele>
  <time>2026-09-02T22:09:38Z</time>
  <course>120.16</course>
  <speed>0.01</speed>
  <fix>3d</fix>
</trkpt>
<trkpt lat="33.8105865" lon="-118.3934451">
  <ele>-2.358</ele>
  <time>2026-09-02T22:09:38Z</time>
  <course>157.15</course>
  <speed>0.0316227766016838</speed>
  <fix>3d</fix>
</trkpt>
<trkpt lat="33.8105865" lon="-118.3934454">
  <ele>-1.93</ele>
  <time>2026-09-02T22:09:38Z</time>
  <course>120.16</course>
  <speed>0.01</speed>
  <fix>3d</fix>
</trkpt>
<trkpt lat="33.8105865" lon="-118.3934451">
  <ele>-2.347</ele>
  <time>2026-09-02T22:09:38Z</time>
  <course>157.15</course>
  <speed>0.0316227766016838</speed>
  <fix>3d</fix>
</trkpt>
<trkpt lat="33.8105865" lon="-118.3934454">
  <ele>-1.91</ele>
  <time>2026-09-02T22:09:38Z</time>
  <course>120.17</course>
  <speed>0.01</speed>
  <fix>3d</fix>
</trkpt>
<trkpt lat="33.8105865" lon="-118.3934451">
  <ele>-2.336</ele>
  <time>2026-09-02T22:09:38Z</time>
  <course>157.15</course>
  <speed>0.0316227766016838</speed>
  <fix>3d</fix>
</trkpt>
<trkpt lat="33.8105865" lon="-118.3934454">
  <ele>-1.91</ele>
  <time>2026-09-02T22:09:38Z</time>
  <course>120.17</course>
  <speed>0.01</speed>
  <fix>3d</fix>
</trkpt>
<trkpt lat="33.8105865" lon="-118.3934451">
  <ele>-2.325</ele>
  <time>2026-09-02T22:09:38Z</time>
  <course>157.14</course>
  <speed>0.0316227766016838</speed>
  <fix>3d</fix>
</trkpt>
<trkpt lat="33.8105865" lon="-118.3934454">
  <ele>-1.89</ele>
  <time>2026-09-02T22:09:38Z</time>
  <course>120.15</course>
  <speed>0.01</speed>
  <fix>3d</fix>
</trkpt>
<trkpt lat="33.8105865" lon="-118.3934451">
  <ele>-2.315</ele>
  <time>2026-09-02T22:09:38Z</time>
  <course>157.14</course>
  <speed>0.0316227766016838</speed>
  <fix>3d</fix>
</trkpt>
<trkpt lat="33.8105865" lon="-118.3934454">
  <ele>-1.89</ele>
  <time>2026-09-02T22:09:38Z</time>
  <course>120.15</course>
  <speed>0.01</speed>
  <fix>3d</fix>
</trkpt>
<trkpt lat="33.8105865" lon="-118.3934451">
  <ele>-2.304</ele>
  <time>2026-09-02T22:09:38Z</time>
  <course>157.14</course>
  <speed>0.0316227766016838</speed>
  <fix>3d</fix>
</trkpt>
<trkpt lat="33.8105865" lon="-118.3934453">
  <ele>-1.87</ele>
  <time>2026-09-02T22:09:38Z</time>
  <course>120.12</course>
  <speed>0.01</speed>
  <fix>3d</fix>
</trkpt>
<trkpt lat="33.8105865" lon="-118.3934451">
  <ele>-2.295</ele>
  <time>2026-09-02T22:09:39Z</time>
  <course>157.14</course>
  <speed>0.0316227766016838</speed>
  <fix>3d</fix>
</trkpt>
<trkpt lat="33.8105865" lon="-118.3934453">
  <ele>-1.87</ele>
  <time>2026-09-02T22:09:39Z</time>
  <course>120.12</course>
  <speed>0.01</speed>
  <fix>3d</fix>
</trkpt>
<trkpt lat="33.8105865" lon="-118.393445">
  <ele>-2.285</ele>
  <time>2026-09-02T22:09:39Z</time>
  <course>157.13</course>
  <speed>0.0316227766016838</speed>
  <fix>3d</fix>
</trkpt>
<trkpt lat="33.8105865" lon="-118.3934453">
  <ele>-1.85</ele>
  <time>2026-09-02T22:09:39Z</time>
  <course>120.1</course>
  <speed>0.01</speed>
  <fix>3d</fix>
</trkpt>
<trkpt lat="33.8105864" lon="-118.393445">
  <ele>-2.275</ele>
  <time>2026-09-02T22:09:39Z</time>
  <course>157.13</course>
  <speed>0.0316227766016838</speed>
  <fix>3d</fix>
</trkpt>
<trkpt lat="33.8105865" lon="-118.3934453">
  <ele>-1.85</ele>
  <time>2026-09-02T22:09:39Z</time>
  <course>120.1</course>
  <speed>0.01</speed>
  <fix>3d</fix>
</trkpt>
<trkpt lat="33.8105864" lon="-118.393445">
  <ele>-2.263</ele>
  <time>2026-09-02T22:09:39Z</time>
  <course>157.13</course>
  <speed>0.0316227766016838</speed>
  <fix>3d</fix>
</trkpt>
<trkpt lat="33.8105865" lon="-118.3934453">
  <ele>-1.83</ele>
  <time>2026-09-02T22:09:39Z</time>
  <course>120.12</course>
  <speed>0.01</speed>
  <fix>3d</fix>
</trkpt>
<trkpt lat="33.8105864" lon="-118.393445">
  <ele>-2.252</ele>
  <time>2026-09-02T22:09:39Z</time>
  <course>157.12</course>
  <speed>0.0316227766016838</speed>
  <fix>3d</fix>
</trkpt>
<trkpt lat="33.8105865" lon="-118.3934453">
  <ele>-1.83</ele>
  <time>2026-09-02T22:09:39Z</time>
  <course>120.12</course>
  <speed>0.01</speed>
  <fix>3d</fix>
</trkpt>
<trkpt lat="33.8105864" lon="-118.393445">
  <ele>-2.24</ele>
  <time>2026-09-02T22:09:39Z</time>
  <course>157.12</course>
  <speed>0.0316227766016838</speed>
  <fix>3d</fix>
</trkpt>
<trkpt lat="33.8105865" lon="-118.3934453">
  <ele>-1.81</ele>
  <time>2026-09-02T22:09:39Z</time>
  <course>120.15</course>
  <speed>0.01</speed>
  <fix>3d</fix>
</trkpt>
<trkpt lat="33.8105864" lon="-118.393445">
  <ele>-2.23</ele>
  <time>2026-09-02T22:09:39Z</time>
  <course>157.12</course>
  <speed>0.0316227766016838</speed>
  <fix>3d</fix>
</trkpt>
<trkpt lat="33.8105865" lon="-118.3934453">
  <ele>-1.81</ele>
  <time>2026-09-02T22:09:39Z</time>
  <course>120.15</course>
  <speed>0.01</speed>
  <fix>3d</fix>
</trkpt>
<trkpt lat="33.8105864" lon="-118.393445">
  <ele>-2.219</ele>
  <time>2026-09-02T22:09:39Z</time>
  <course>157.11</course>
  <speed>0.0316227766016838</speed>
  <fix>3d</fix>
</trkpt>
<trkpt lat="33.8105865" lon="-118.3934453">
  <ele>-1.79</ele>
  <time>2026-09-02T22:09:39Z</time>
  <course>120.17</course>
  <speed>0.01</speed>
  <fix>3d</fix>
</trkpt>
<trkpt lat="33.8105864" lon="-118.393445">
  <ele>-2.211</ele>
  <time>2026-09-02T22:09:39Z</time>
  <course>157.11</course>
  <speed>0.0316227766016838</speed>
  <fix>3d</fix>
</trkpt>
<trkpt lat="33.8105865" lon="-118.3934453">
  <ele>-1.79</ele>
  <time>2026-09-02T22:09:39Z</time>
  <course>120.17</course>
  <speed>0.01</speed>
  <fix>3d</fix>
</trkpt>
<trkpt lat="33.8105864" lon="-118.393445">
  <ele>-2.202</ele>
  <time>2026-09-02T22:09:39Z</time>
  <course>157.11</course>
  <speed>0.0316227766016838</speed>
  <fix>3d</fix>
</trkpt>
<trkpt lat="33.8105865" lon="-118.3934452">
  <ele>-1.77</ele>
  <time>2026-09-02T22:09:39Z</time>
  <course>120.16</course>
  <speed>0.01</speed>
  <fix>3d</fix>
</trkpt>
<trkpt lat="33.8105864" lon="-118.393445">
  <ele>-2.194</ele>
  <time>2026-09-02T22:09:40Z</time>
  <course>157.1</course>
  <speed>0.0316227766016838</speed>
  <fix>3d</fix>
</trkpt>
<trkpt lat="33.8105865" lon="-118.3934452">
  <ele>-1.77</ele>
  <time>2026-09-02T22:09:40Z</time>
  <course>120.16</course>
  <speed>0.01</speed>
  <fix>3d</fix>
</trkpt>
<trkpt lat="33.8105864" lon="-118.3934449">
  <ele>-2.186</ele>
  <time>2026-09-02T22:09:40Z</time>
  <course>157.1</course>
  <speed>0.0316227766016838</speed>
  <fix>3d</fix>
</trkpt>
<trkpt lat="33.8105865" lon="-118.3934451">
  <ele>-1.76</ele>
  <time>2026-09-02T22:09:40Z</time>
  <course>120.14</course>
  <speed>0.01</speed>
  <fix>3d</fix>
</trkpt>
<trkpt lat="33.8105864" lon="-118.3934449">
  <ele>-2.176</ele>
  <time>2026-09-02T22:09:40Z</time>
  <course>157.1</course>
  <speed>0.0316227766016838</speed>
  <fix>3d</fix>
</trkpt>
<trkpt lat="33.8105865" lon="-118.3934451">
  <ele>-1.76</ele>
  <time>2026-09-02T22:09:40Z</time>
  <course>120.14</course>
  <speed>0.01</speed>
  <fix>3d</fix>
</trkpt>
<trkpt lat="33.8105864" lon="-118.3934449">
  <ele>-2.167</ele>
  <time>2026-09-02T22:09:40Z</time>
  <course>157.1</course>
  <speed>0.0316227766016838</speed>
  <fix>3d</fix>
</trkpt>
<trkpt lat="33.8105864" lon="-118.3934451">
  <ele>-1.74</ele>
  <time>2026-09-02T22:09:40Z</time>
  <course>120.11</course>
  <speed>0.01</speed>
  <fix>3d</fix>
</trkpt>
<trkpt lat="33.8105864" lon="-118.3934449">
  <ele>-2.156</ele>
  <time>2026-09-02T22:09:40Z</time>
  <course>157.09</course>
  <speed>0.0316227766016838</speed>
  <fix>3d</fix>
</trkpt>
<trkpt lat="33.8105864" lon="-118.3934451">
  <ele>-1.74</ele>
  <time>2026-09-02T22:09:40Z</time>
  <course>120.11</course>
  <speed>0.01</speed>
  <fix>3d</fix>
</trkpt>
<trkpt lat="33.8105864" lon="-118.3934449">
  <ele>-2.146</ele>
  <time>2026-09-02T22:09:40Z</time>
  <course>157.09</course>
  <speed>0.0316227766016838</speed>
  <fix>3d</fix>
</trkpt>
<trkpt lat="33.8105864" lon="-118.3934451">
  <ele>-1.72</ele>
  <time>2026-09-02T22:09:40Z</time>
  <course>120.11</course>
  <speed>0.01</speed>
  <fix>3d</fix>
</trkpt>
<trkpt lat="33.8105864" lon="-118.3934449">
  <ele>-2.135</ele>
  <time>2026-09-02T22:09:40Z</time>
  <course>157.09</course>
  <speed>0.0412310562561766</speed>
  <fix>3d</fix>
</trkpt>
<trkpt lat="33.8105864" lon="-118.3934451">
  <ele>-1.72</ele>
  <time>2026-09-02T22:09:40Z</time>
  <course>120.11</course>
  <speed>0.01</speed>
  <fix>3d</fix>
</trkpt>
<trkpt lat="33.8105864" lon="-118.3934448">
  <ele>-2.124</ele>
  <time>2026-09-02T22:09:40Z</time>
  <course>157.08</course>
  <speed>0.0412310562561766</speed>
  <fix>3d</fix>
</trkpt>
<trkpt lat="33.8105864" lon="-118.3934451">
  <ele>-1.7</ele>
  <time>2026-09-02T22:09:40Z</time>
  <course>120.13</course>
  <speed>0.01</speed>
  <fix>3d</fix>
</trkpt>
<trkpt lat="33.8105864" lon="-118.3934448">
  <ele>-2.115</ele>
  <time>2026-09-02T22:09:40Z</time>
  <course>157.08</course>
  <speed>0.0412310562561766</speed>
  <fix>3d</fix>
</trkpt>
<trkpt lat="33.8105864" lon="-118.3934451">
  <ele>-1.7</ele>
  <time>2026-09-02T22:09:40Z</time>
  <course>120.13</course>
  <speed>0.01</speed>
  <fix>3d</fix>
</trkpt>
<trkpt lat="33.8105864" lon="-118.3934448">
  <ele>-2.105</ele>
  <time>2026-09-02T22:09:40Z</time>
  <course>157.08</course>
  <speed>0.0412310562561766</speed>
  <fix>3d</fix>
</trkpt>
<trkpt lat="33.8105864" lon="-118.3934451">
  <ele>-1.68</ele>
  <time>2026-09-02T22:09:40Z</time>
  <course>120.16</course>
  <speed>0.01</speed>
  <fix>3d</fix>
</trkpt>
<trkpt lat="33.8105864" lon="-118.3934448">
  <ele>-2.096</ele>
  <time>2026-09-02T22:09:41Z</time>
  <course>157.08</course>
  <speed>0.0412310562561766</speed>
  <fix>3d</fix>
</trkpt>
<trkpt lat="33.8105864" lon="-118.3934451">
  <ele>-1.68</ele>
  <time>2026-09-02T22:09:41Z</time>
  <course>120.16</course>
  <speed>0.01</speed>
  <fix>3d</fix>
</trkpt>
<trkpt lat="33.8105864" lon="-118.3934448">
  <ele>-2.085</ele>
  <time>2026-09-02T22:09:41Z</time>
  <course>157.07</course>
  <speed>0.0412310562561766</speed>
  <fix>3d</fix>
</trkpt>
<trkpt lat="33.8105864" lon="-118.3934451">
  <ele>-1.66</ele>
  <time>2026-09-02T22:09:41Z</time>
  <course>120.17</course>
  <speed>0.01</speed>
  <fix>3d</fix>
</trkpt>
<trkpt lat="33.8105863" lon="-118.3934448">
  <ele>-2.074</ele>
  <time>2026-09-02T22:09:41Z</time>
  <course>157.07</course>
  <speed>0.0412310562561766</speed>
  <fix>3d</fix>
</trkpt>
<trkpt lat="33.8105864" lon="-118.3934451">
  <ele>-1.66</ele>
  <time>2026-09-02T22:09:41Z</time>
  <course>120.17</course>
  <speed>0.01</speed>
  <fix>3d</fix>
</trkpt>
<trkpt lat="33.8105863" lon="-118.3934448">
  <ele>-2.063</ele>
  <time>2026-09-02T22:09:41Z</time>
  <course>157.07</course>
  <speed>0.0412310562561766</speed>
  <fix>3d</fix>
</trkpt>
<trkpt lat="33.8105864" lon="-118.3934451">
  <ele>-1.64</ele>
  <time>2026-09-02T22:09:41Z</time>
  <course>120.16</course>
  <speed>0.01</speed>
  <fix>3d</fix>
</trkpt>
<trkpt lat="33.8105863" lon="-118.3934448">
  <ele>-2.05</ele>
  <time>2026-09-02T22:09:41Z</time>
  <course>157.06</course>
  <speed>0.0412310562561766</speed>
  <fix>3d</fix>
</trkpt>
<trkpt lat="33.8105864" lon="-118.3934451">
  <ele>-1.64</ele>
  <time>2026-09-02T22:09:41Z</time>
  <course>120.16</course>
  <speed>0.01</speed>
  <fix>3d</fix>
</trkpt>
<trkpt lat="33.8105863" lon="-118.3934448">
  <ele>-2.039</ele>
  <time>2026-09-02T22:09:41Z</time>
  <course>157.06</course>
  <speed>0.0412310562561766</speed>
  <fix>3d</fix>
</trkpt>
<trkpt lat="33.8105864" lon="-118.3934451">
  <ele>-1.62</ele>
  <time>2026-09-02T22:09:41Z</time>
  <course>120.13</course>
  <speed>0.01</speed>
  <fix>3d</fix>
</trkpt>
<trkpt lat="33.8105863" lon="-118.3934448">
  <ele>-2.027</ele>
  <time>2026-09-02T22:09:41Z</time>
  <course>157.06</course>
  <speed>0.0316227766016838</speed>
  <fix>3d</fix>
</trkpt>
<trkpt lat="33.8105864" lon="-118.3934451">
  <ele>-1.62</ele>
  <time>2026-09-02T22:09:41Z</time>
  <course>120.13</course>
  <speed>0.01</speed>
  <fix>3d</fix>
</trkpt>
<trkpt lat="33.8105863" lon="-118.3934448">
  <ele>-2.017</ele>
  <time>2026-09-02T22:09:41Z</time>
  <course>157.06</course>
  <speed>0.0316227766016838</speed>
  <fix>3d</fix>
</trkpt>
<trkpt lat="33.8105864" lon="-118.3934451">
  <ele>-1.6</ele>
  <time>2026-09-02T22:09:41Z</time>
  <course>120.1</course>
  <speed>0.01</speed>
  <fix>3d</fix>
</trkpt>
<trkpt lat="33.8105863" lon="-118.3934447">
  <ele>-2.008</ele>
  <time>2026-09-02T22:09:41Z</time>
  <course>157.05</course>
  <speed>0.0316227766016838</speed>
  <fix>3d</fix>
</trkpt>
<trkpt lat="33.8105864" lon="-118.3934451">
  <ele>-1.6</ele>
  <time>2026-09-02T22:09:41Z</time>
  <course>120.1</course>
  <speed>0.01</speed>
  <fix>3d</fix>
</trkpt>
<trkpt lat="33.8105863" lon="-118.3934447">
  <ele>-1.997</ele>
  <time>2026-09-02T22:09:41Z</time>
  <course>157.05</course>
  <speed>0.0316227766016838</speed>
  <fix>3d</fix>
</trkpt>
<trkpt lat="33.8105864" lon="-118.393445">
  <ele>-1.58</ele>
  <time>2026-09-02T22:09:41Z</time>
  <course>120.11</course>
  <speed>0.01</speed>
  <fix>3d</fix>
</trkpt>
<trkpt lat="33.8105863" lon="-118.3934447">
  <ele>-1.988</ele>
  <time>2026-09-02T22:09:42Z</time>
  <course>157.05</course>
  <speed>0.0316227766016838</speed>
  <fix>3d</fix>
</trkpt>
<trkpt lat="33.8105864" lon="-118.393445">
  <ele>-1.58</ele>
  <time>2026-09-02T22:09:42Z</time>
  <course>120.11</course>
  <speed>0.01</speed>
  <fix>3d</fix>
</trkpt>
<trkpt lat="33.8105863" lon="-118.3934447">
  <ele>-1.98</ele>
  <time>2026-09-02T22:09:42Z</time>
  <course>157.04</course>
  <speed>0.0316227766016838</speed>
  <fix>3d</fix>
</trkpt>
<trkpt lat="33.8105864" lon="-118.393445">
  <ele>-1.56</ele>
  <time>2026-09-02T22:09:42Z</time>
  <course>120.14</course>
  <speed>0.0</speed>
  <fix>3d</fix>
</trkpt>
<trkpt lat="33.8105863" lon="-118.3934447">
  <ele>-1.972</ele>
  <time>2026-09-02T22:09:42Z</time>
  <course>157.04</course>
  <speed>0.0316227766016838</speed>
  <fix>3d</fix>
</trkpt>
<trkpt lat="33.8105864" lon="-118.393445">
  <ele>-1.56</ele>
  <time>2026-09-02T22:09:42Z</time>
  <course>120.14</course>
  <speed>0.0</speed>
  <fix>3d</fix>
</trkpt>
<trkpt lat="33.8105863" lon="-118.3934447">
  <ele>-1.963</ele>
  <time>2026-09-02T22:09:42Z</time>
  <course>157.04</course>
  <speed>0.0316227766016838</speed>
  <fix>3d</fix>
</trkpt>
<trkpt lat="33.8105864" lon="-118.393445">
  <ele>-1.55</ele>
  <time>2026-09-02T22:09:42Z</time>
  <course>120.17</course>
  <speed>0.0</speed>
  <fix>3d</fix>
</trkpt>
<trkpt lat="33.8105863" lon="-118.3934447">
  <ele>-1.954</ele>
  <time>2026-09-02T22:09:42Z</time>
  <course>157.04</course>
  <speed>0.0316227766016838</speed>
  <fix>3d</fix>
</trkpt>
<trkpt lat="33.8105864" lon="-118.393445">
  <ele>-1.55</ele>
  <time>2026-09-02T22:09:42Z</time>
  <course>120.17</course>
  <speed>0.0</speed>
  <fix>3d</fix>
</trkpt>
<trkpt lat="33.8105863" lon="-118.3934447">
  <ele>-1.946</ele>
  <time>2026-09-02T22:09:42Z</time>
  <course>157.03</course>
  <speed>0.0316227766016838</speed>
  <fix>3d</fix>
</trkpt>
<trkpt lat="33.8105863" lon="-118.393445">
  <ele>-1.53</ele>
  <time>2026-09-02T22:09:42Z</time>
  <course>120.17</course>
  <speed>0.0</speed>
  <fix>3d</fix>
</trkpt>
<trkpt lat="33.8105863" lon="-118.3934447">
  <ele>-1.937</ele>
  <time>2026-09-02T22:09:42Z</time>
  <course>157.03</course>
  <speed>0.0316227766016838</speed>
  <fix>3d</fix>
</trkpt>
<trkpt lat="33.8105863" lon="-118.393445">
  <ele>-1.53</ele>
  <time>2026-09-02T22:09:42Z</time>
  <course>120.17</course>
  <speed>0.0</speed>
  <fix>3d</fix>
</trkpt>
<trkpt lat="33.8105863" lon="-118.3934447">
  <ele>-1.927</ele>
  <time>2026-09-02T22:09:42Z</time>
  <course>157.03</course>
  <speed>0.0316227766016838</speed>
  <fix>3d</fix>
</trkpt>
<trkpt lat="33.8105863" lon="-118.393445">
  <ele>-1.51</ele>
  <time>2026-09-02T22:09:42Z</time>
  <course>120.14</course>
  <speed>0.0</speed>
  <fix>3d</fix>
</trkpt>
<trkpt lat="33.8105863" lon="-118.3934447">
  <ele>-1.916</ele>
  <time>2026-09-02T22:09:42Z</time>
  <course>157.02</course>
  <speed>0.0316227766016838</speed>
  <fix>3d</fix>
</trkpt>
<trkpt lat="33.8105863" lon="-118.393445">
  <ele>-1.51</ele>
  <time>2026-09-02T22:09:42Z</time>
  <course>120.14</course>
  <speed>0.0</speed>
  <fix>3d</fix>
</trkpt>
<trkpt lat="33.8105863" lon="-118.3934447">
  <ele>-1.905</ele>
  <time>2026-09-02T22:09:42Z</time>
  <course>157.02</course>
  <speed>0.0316227766016838</speed>
  <fix>3d</fix>
</trkpt>
<trkpt lat="33.8105863" lon="-118.3934449">
  <ele>-1.49</ele>
  <time>2026-09-02T22:09:42Z</time>
  <course>120.11</course>
  <speed>0.0</speed>
  <fix>3d</fix>
</trkpt>
<trkpt lat="33.8105863" lon="-118.3934447">
  <ele>-1.895</ele>
  <time>2026-09-02T22:09:43Z</time>
  <course>157.02</course>
  <speed>0.0316227766016838</speed>
  <fix>3d</fix>
</trkpt>
<trkpt lat="33.8105863" lon="-118.3934449">
  <ele>-1.49</ele>
  <time>2026-09-02T22:09:43Z</time>
  <course>120.11</course>
  <speed>0.0</speed>
  <fix>3d</fix>
</trkpt>
<trkpt lat="33.8105863" lon="-118.3934446">
  <ele>-1.886</ele>
  <time>2026-09-02T22:09:43Z</time>
  <course>157.02</course>
  <speed>0.0316227766016838</speed>
  <fix>3d</fix>
</trkpt>
<trkpt lat="33.8105863" lon="-118.3934449">
  <ele>-1.47</ele>
  <time>2026-09-02T22:09:43Z</time>
  <course>120.1</course>
  <speed>0.0</speed>
  <fix>3d</fix>
</trkpt>
<trkpt lat="33.8105863" lon="-118.3934446">
  <ele>-1.877</ele>
  <time>2026-09-02T22:09:43Z</time>
  <course>157.01</course>
  <speed>0.0316227766016838</speed>
  <fix>3d</fix>
</trkpt>
<trkpt lat="33.8105863" lon="-118.3934449">
  <ele>-1.47</ele>
  <time>2026-09-02T22:09:43Z</time>
  <course>120.1</course>
  <speed>0.0</speed>
  <fix>3d</fix>
</trkpt>
<trkpt lat="33.8105862" lon="-118.3934446">
  <ele>-1.867</ele>
  <time>2026-09-02T22:09:43Z</time>
  <course>157.01</course>
  <speed>0.0316227766016838</speed>
  <fix>3d</fix>
</trkpt>
<trkpt lat="33.8105863" lon="-118.3934449">
  <ele>-1.45</ele>
  <time>2026-09-02T22:09:43Z</time>
  <course>120.12</course>
  <speed>0.0</speed>
  <fix>3d</fix>
</trkpt>
<trkpt lat="33.8105862" lon="-118.3934446">
  <ele>-1.858</ele>
  <time>2026-09-02T22:09:43Z</time>
  <course>157.01</course>
  <speed>0.0316227766016838</speed>
  <fix>3d</fix>
</trkpt>
<trkpt lat="33.8105863" lon="-118.3934449">
  <ele>-1.45</ele>
  <time>2026-09-02T22:09:43Z</time>
  <course>120.12</course>
  <speed>0.0</speed>
  <fix>3d</fix>
</trkpt>
<trkpt lat="33.8105862" lon="-118.3934446">
  <ele>-1.849</ele>
  <time>2026-09-02T22:09:43Z</time>
  <course>157.01</course>
  <speed>0.0316227766016838</speed>
  <fix>3d</fix>
</trkpt>
<trkpt lat="33.8105863" lon="-118.3934449">
  <ele>-1.43</ele>
  <time>2026-09-02T22:09:43Z</time>
  <course>120.15</course>
  <speed>0.0</speed>
  <fix>3d</fix>
</trkpt>
<trkpt lat="33.8105862" lon="-118.3934446">
  <ele>-1.84</ele>
  <time>2026-09-02T22:09:43Z</time>
  <course>157.0</course>
  <speed>0.0316227766016838</speed>
  <fix>3d</fix>
</trkpt>
<trkpt lat="33.8105863" lon="-118.3934449">
  <ele>-1.43</ele>
  <time>2026-09-02T22:09:43Z</time>
  <course>120.15</course>
  <speed>0.0</speed>
  <fix>3d</fix>
</trkpt>
<trkpt lat="33.8105862" lon="-118.3934446">
  <ele>-1.831</ele>
  <time>2026-09-02T22:09:43Z</time>
  <course>157.0</course>
  <speed>0.0316227766016838</speed>
  <fix>3d</fix>
</trkpt>
<trkpt lat="33.8105863" lon="-118.3934449">
  <ele>-1.41</ele>
  <time>2026-09-02T22:09:43Z</time>
  <course>120.17</course>
  <speed>0.0</speed>
  <fix>3d</fix>
</trkpt>
<trkpt lat="33.8105862" lon="-118.3934446">
  <ele>-1.822</ele>
  <time>2026-09-02T22:09:43Z</time>
  <course>157.0</course>
  <speed>0.0316227766016838</speed>
  <fix>3d</fix>
</trkpt>
<trkpt lat="33.8105863" lon="-118.3934449">
  <ele>-1.41</ele>
  <time>2026-09-02T22:09:43Z</time>
  <course>120.17</course>
  <speed>0.0</speed>
  <fix>3d</fix>
</trkpt>
<trkpt lat="33.8105862" lon="-118.3934446">
  <ele>-1.812</ele>
  <time>2026-09-02T22:09:43Z</time>
  <course>157.0</course>
  <speed>0.0316227766016838</speed>
  <fix>3d</fix>
</trkpt>
<trkpt lat="33.8105863" lon="-118.3934449">
  <ele>-1.39</ele>
  <time>2026-09-02T22:09:43Z</time>
  <course>120.16</course>
  <speed>0.0</speed>
  <fix>3d</fix>
</trkpt>
<trkpt lat="33.8105862" lon="-118.3934446">
  <ele>-1.803</ele>
  <time>2026-09-02T22:09:44Z</time>
  <course>156.99</course>
  <speed>0.0316227766016838</speed>
  <fix>3d</fix>
</trkpt>
<trkpt lat="33.8105863" lon="-118.3934449">
  <ele>-1.39</ele>
  <time>2026-09-02T22:09:44Z</time>
  <course>120.16</course>
  <speed>0.0</speed>
  <fix>3d</fix>
</trkpt>
<trkpt lat="33.8105862" lon="-118.3934446">
  <ele>-1.795</ele>
  <time>2026-09-02T22:09:44Z</time>
  <course>156.99</course>
  <speed>0.0316227766016838</speed>
  <fix>3d</fix>
</trkpt>
<trkpt lat="33.8105863" lon="-118.3934448">
  <ele>-1.37</ele>
  <time>2026-09-02T22:09:44Z</time>
  <course>120.13</course>
  <speed>0.0</speed>
  <fix>3d</fix>
</trkpt>
<trkpt lat="33.8105862" lon="-118.3934446">
  <ele>-1.787</ele>
  <time>2026-09-02T22:09:44Z</time>
  <course>156.99</course>
  <speed>0.0316227766016838</speed>
  <fix>3d</fix>
</trkpt>
<trkpt lat="33.8105863" lon="-118.3934448">
  <ele>-1.37</ele>
  <time>2026-09-02T22:09:44Z</time>
  <course>120.13</course>
  <speed>0.0</speed>
  <fix>3d</fix>
</trkpt>
<trkpt lat="33.8105862" lon="-118.3934445">
  <ele>-1.779</ele>
  <time>2026-09-02T22:09:44Z</time>
  <course>156.98</course>
  <speed>0.0316227766016838</speed>
  <fix>3d</fix>
</trkpt>
<trkpt lat="33.8105863" lon="-118.3934448">
  <ele>-1.36</ele>
  <time>2026-09-02T22:09:44Z</time>
  <course>120.1</course>
  <speed>0.0</speed>
  <fix>3d</fix>
</trkpt>
<trkpt lat="33.8105862" lon="-118.3934445">
  <ele>-1.771</ele>
  <time>2026-09-02T22:09:44Z</time>
  <course>156.98</course>
  <speed>0.0316227766016838</speed>
  <fix>3d</fix>
</trkpt>
<trkpt lat="33.8105863" lon="-118.3934448">
  <ele>-1.36</ele>
  <time>2026-09-02T22:09:44Z</time>
  <course>120.1</course>
  <speed>0.0</speed>
  <fix>3d</fix>
</trkpt>
<trkpt lat="33.8105862" lon="-118.3934445">
  <ele>-1.761</ele>
  <time>2026-09-02T22:09:44Z</time>
  <course>156.98</course>
  <speed>0.0316227766016838</speed>
  <fix>3d</fix>
</trkpt>
<trkpt lat="33.8105863" lon="-118.3934448">
  <ele>-1.34</ele>
  <time>2026-09-02T22:09:44Z</time>
  <course>120.1</course>
  <speed>0.0</speed>
  <fix>3d</fix>
</trkpt>
<trkpt lat="33.8105862" lon="-118.3934445">
  <ele>-1.751</ele>
  <time>2026-09-02T22:09:44Z</time>
  <course>156.98</course>
  <speed>0.0316227766016838</speed>
  <fix>3d</fix>
</trkpt>
<trkpt lat="33.8105863" lon="-118.3934448">
  <ele>-1.34</ele>
  <time>2026-09-02T22:09:44Z</time>
  <course>120.1</course>
  <speed>0.0</speed>
  <fix>3d</fix>
</trkpt>
<trkpt lat="33.8105862" lon="-118.3934445">
  <ele>-1.741</ele>
  <time>2026-09-02T22:09:44Z</time>
  <course>156.97</course>
  <speed>0.0316227766016838</speed>
  <fix>3d</fix>
</trkpt>
<trkpt lat="33.8105863" lon="-118.3934448">
  <ele>-1.31</ele>
  <time>2026-09-02T22:09:44Z</time>
  <course>120.12</course>
  <speed>0.0</speed>
  <fix>3d</fix>
</trkpt>
<trkpt lat="33.8105862" lon="-118.3934445">
  <ele>-1.731</ele>
  <time>2026-09-02T22:09:44Z</time>
  <course>156.97</course>
  <speed>0.0316227766016838</speed>
  <fix>3d</fix>
</trkpt>
<trkpt lat="33.8105863" lon="-118.3934448">
  <ele>-1.31</ele>
  <time>2026-09-02T22:09:44Z</time>
  <course>120.12</course>
  <speed>0.0</speed>
  <fix>3d</fix>
</trkpt>
<trkpt lat="33.8105862" lon="-118.3934445">
  <ele>-1.721</ele>
  <time>2026-09-02T22:09:44Z</time>
  <course>156.97</course>
  <speed>0.0316227766016838</speed>
  <fix>3d</fix>
</trkpt>
<trkpt lat="33.8105862" lon="-118.3934448">
  <ele>-1.3</ele>
  <time>2026-09-02T22:09:44Z</time>
  <course>120.16</course>
  <speed>0.0</speed>
  <fix>3d</fix>
</trkpt>
<trkpt lat="33.8105862" lon="-118.3934445">
  <ele>-1.709</ele>
  <time>2026-09-02T22:09:44Z</time>
  <course>156.97</course>
  <speed>0.0316227766016838</speed>
  <fix>3d</fix>
</trkpt>
<trkpt lat="33.8105862" lon="-118.3934448">
  <ele>-1.3</ele>
  <time>2026-09-02T22:09:44Z</time>
  <course>120.16</course>
  <speed>0.0</speed>
  <fix>3d</fix>
</trkpt>
<trkpt lat="33.8105862" lon="-118.3934445">
  <ele>-1.697</ele>
  <time>2026-09-02T22:09:45Z</time>
  <course>156.96</course>
  <speed>0.0316227766016838</speed>
  <fix>3d</fix>
</trkpt>
<trkpt lat="33.8105861" lon="-118.3934448">
  <ele>-1.28</ele>
  <time>2026-09-02T22:09:45Z</time>
  <course>120.17</course>
  <speed>0.0</speed>
  <fix>3d</fix>
</trkpt>
<trkpt lat="33.8105862" lon="-118.3934445">
  <ele>-1.686</ele>
  <time>2026-09-02T22:09:45Z</time>
  <course>156.96</course>
  <speed>0.0316227766016838</speed>
  <fix>3d</fix>
</trkpt>
<trkpt lat="33.8105861" lon="-118.3934448">
  <ele>-1.28</ele>
  <time>2026-09-02T22:09:45Z</time>
  <course>120.17</course>
  <speed>0.0</speed>
  <fix>3d</fix>
</trkpt>
<trkpt lat="33.8105862" lon="-118.3934445">
  <ele>-1.676</ele>
  <time>2026-09-02T22:09:45Z</time>
  <course>156.96</course>
  <speed>0.0316227766016838</speed>
  <fix>3d</fix>
</trkpt>
<trkpt lat="33.8105861" lon="-118.3934447">
  <ele>-1.26</ele>
  <time>2026-09-02T22:09:45Z</time>
  <course>120.15</course>
  <speed>0.0</speed>
  <fix>3d</fix>
</trkpt>
<trkpt lat="33.8105862" lon="-118.3934445">
  <ele>-1.665</ele>
  <time>2026-09-02T22:09:45Z</time>
  <course>156.96</course>
  <speed>0.0316227766016838</speed>
  <fix>3d</fix>
</trkpt>
<trkpt lat="33.8105861" lon="-118.3934447">
  <ele>-1.26</ele>
  <time>2026-09-02T22:09:45Z</time>
  <course>120.15</course>
  <speed>0.0</speed>
  <fix>3d</fix>
</trkpt>
<trkpt lat="33.8105861" lon="-118.3934445">
  <ele>-1.654</ele>
  <time>2026-09-02T22:09:45Z</time>
  <course>156.95</course>
  <speed>0.0316227766016838</speed>
  <fix>3d</fix>
</trkpt>
<trkpt lat="33.8105861" lon="-118.3934447">
  <ele>-1.24</ele>
  <time>2026-09-02T22:09:45Z</time>
  <course>120.12</course>
  <speed>0.0</speed>
  <fix>3d</fix>
</trkpt>
<trkpt lat="33.8105861" lon="-118.3934444">
  <ele>-1.644</ele>
  <time>2026-09-02T22:09:45Z</time>
  <course>156.95</course>
  <speed>0.0316227766016838</speed>
  <fix>3d</fix>
</trkpt>
<trkpt lat="33.8105861" lon="-118.3934447">
  <ele>-1.24</ele>
  <time>2026-09-02T22:09:45Z</time>
  <course>120.12</course>
  <speed>0.0</speed>
  <fix>3d</fix>
</trkpt>
<trkpt lat="33.8105861" lon="-118.3934444">
  <ele>-1.633</ele>
  <time>2026-09-02T22:09:45Z</time>
  <course>156.95</course>
  <speed>0.0316227766016838</speed>
  <fix>3d</fix>
</trkpt>
<trkpt lat="33.8105861" lon="-118.3934447">
  <ele>-1.22</ele>
  <time>2026-09-02T22:09:45Z</time>
  <course>120.1</course>
  <speed>0.0</speed>
  <fix>3d</fix>
</trkpt>
<trkpt lat="33.8105861" lon="-118.3934444">
  <ele>-1.624</ele>
  <time>2026-09-02T22:09:45Z</time>
  <course>156.95</course>
  <speed>0.0316227766016838</speed>
  <fix>3d</fix>
</trkpt>
<trkpt lat="33.8105861" lon="-118.3934447">
  <ele>-1.22</ele>
  <time>2026-09-02T22:09:45Z</time>
  <course>120.1</course>
  <speed>0.0</speed>
  <fix>3d</fix>
</trkpt>
<trkpt lat="33.8105861" lon="-118.3934444">
  <ele>-1.615</ele>
  <time>2026-09-02T22:09:45Z</time>
  <course>156.94</course>
  <speed>0.0316227766016838</speed>
  <fix>3d</fix>
</trkpt>
<trkpt lat="33.8105861" lon="-118.3934447">
  <ele>-1.2</ele>
  <time>2026-09-02T22:09:45Z</time>
  <course>120.1</course>
  <speed>0.0</speed>
  <fix>3d</fix>
</trkpt>
<trkpt lat="33.8105861" lon="-118.3934444">
  <ele>-1.606</ele>
  <time>2026-09-02T22:09:45Z</time>
  <course>156.94</course>
  <speed>0.0316227766016838</speed>
  <fix>3d</fix>
</trkpt>
<trkpt lat="33.8105861" lon="-118.3934447">
  <ele>-1.2</ele>
  <time>2026-09-02T22:09:45Z</time>
  <course>120.1</course>
  <speed>0.0</speed>
  <fix>3d</fix>
</trkpt>
<trkpt lat="33.8105861" lon="-118.3934444">
  <ele>-1.597</ele>
  <time>2026-09-02T22:09:47Z</time>
  <course>156.94</course>
  <speed>0.0316227766016838</speed>
  <fix>3d</fix>
</trkpt>
<trkpt lat="33.8105861" lon="-118.3934447">
  <ele>-1.18</ele>
  <time>2026-09-02T22:09:47Z</time>
  <course>120.13</course>
  <speed>0.0</speed>
  <fix>3d</fix>
</trkpt>
<trkpt lat="33.8105861" lon="-118.3934444">
  <ele>-1.589</ele>
  <time>2026-09-02T22:09:47Z</time>
  <course>156.94</course>
  <speed>0.0316227766016838</speed>
  <fix>3d</fix>
</trkpt>
<trkpt lat="33.8105861" lon="-118.3934447">
  <ele>-1.18</ele>
  <time>2026-09-02T22:09:47Z</time>
  <course>120.13</course>
  <speed>0.0</speed>
  <fix>3d</fix>
</trkpt>
<trkpt lat="33.8105861" lon="-118.3934444">
  <ele>-1.581</ele>
  <time>2026-09-02T22:09:47Z</time>
  <course>156.93</course>
  <speed>0.0316227766016838</speed>
  <fix>3d</fix>
</trkpt>
<trkpt lat="33.8105861" lon="-118.3934447">
  <ele>-1.16</ele>
  <time>2026-09-02T22:09:47Z</time>
  <course>120.16</course>
  <speed>0.0</speed>
  <fix>3d</fix>
</trkpt>
<trkpt lat="33.810586" lon="-118.3934444">
  <ele>-1.572</ele>
  <time>2026-09-02T22:09:47Z</time>
  <course>156.93</course>
  <speed>0.0316227766016838</speed>
  <fix>3d</fix>
</trkpt>
<trkpt lat="33.8105861" lon="-118.3934447">
  <ele>-1.16</ele>
  <time>2026-09-02T22:09:47Z</time>
  <course>120.16</course>
  <speed>0.0</speed>
  <fix>3d</fix>
</trkpt>
<trkpt lat="33.810586" lon="-118.3934444">
  <ele>-1.564</ele>
  <time>2026-09-02T22:09:47Z</time>
  <course>156.93</course>
  <speed>0.0316227766016838</speed>
  <fix>3d</fix>
</trkpt>
<trkpt lat="33.8105861" lon="-118.3934446">
  <ele>-1.15</ele>
  <time>2026-09-02T22:09:47Z</time>
  <course>120.16</course>
  <speed>0.0</speed>
  <fix>3d</fix>
</trkpt>
<trkpt lat="33.810586" lon="-118.3934444">
  <ele>-1.555</ele>
  <time>2026-09-02T22:09:47Z</time>
  <course>156.92</course>
  <speed>0.0316227766016838</speed>
  <fix>3d</fix>
</trkpt>
<trkpt lat="33.8105861" lon="-118.3934446">
  <ele>-1.15</ele>
  <time>2026-09-02T22:09:47Z</time>
  <course>120.16</course>
  <speed>0.0</speed>
  <fix>3d</fix>
</trkpt>
<trkpt lat="33.810586" lon="-118.3934444">
  <ele>-1.547</ele>
  <time>2026-09-02T22:09:47Z</time>
  <course>156.92</course>
  <speed>0.0316227766016838</speed>
  <fix>3d</fix>
</trkpt>
<trkpt lat="33.8105861" lon="-118.3934446">
  <ele>-1.13</ele>
  <time>2026-09-02T22:09:47Z</time>
  <course>120.13</course>
  <speed>0.0</speed>
  <fix>3d</fix>
</trkpt>
<trkpt lat="33.810586" lon="-118.3934443">
  <ele>-1.539</ele>
  <time>2026-09-02T22:09:47Z</time>
  <course>156.92</course>
  <speed>0.0316227766016838</speed>
  <fix>3d</fix>
</trkpt>
<trkpt lat="33.8105861" lon="-118.3934446">
  <ele>-1.13</ele>
  <time>2026-09-02T22:09:47Z</time>
  <course>120.13</course>
  <speed>0.0</speed>
  <fix>3d</fix>
</trkpt>
<trkpt lat="33.810586" lon="-118.3934443">
  <ele>-1.529</ele>
  <time>2026-09-02T22:09:47Z</time>
  <course>156.92</course>
  <speed>0.0316227766016838</speed>
  <fix>3d</fix>
</trkpt>
<trkpt lat="33.8105861" lon="-118.3934446">
  <ele>-1.11</ele>
  <time>2026-09-02T22:09:47Z</time>
  <course>120.1</course>
  <speed>0.0</speed>
  <fix>3d</fix>
</trkpt>
<trkpt lat="33.810586" lon="-118.3934443">
  <ele>-1.519</ele>
  <time>2026-09-02T22:09:47Z</time>
  <course>156.92</course>
  <speed>0.0316227766016838</speed>
  <fix>3d</fix>
</trkpt>
<trkpt lat="33.8105861" lon="-118.3934446">
  <ele>-1.11</ele>
  <time>2026-09-02T22:09:47Z</time>
  <course>120.1</course>
  <speed>0.0</speed>
  <fix>3d</fix>
</trkpt>
<trkpt lat="33.810586" lon="-118.3934443">
  <ele>-1.507</ele>
  <time>2026-09-02T22:09:47Z</time>
  <course>156.91</course>
  <speed>0.0316227766016838</speed>
  <fix>3d</fix>
</trkpt>
<trkpt lat="33.8105861" lon="-118.3934446">
  <ele>-1.09</ele>
  <time>2026-09-02T22:09:47Z</time>
  <course>120.09</course>
  <speed>0.0</speed>
  <fix>3d</fix>
</trkpt>
<trkpt lat="33.810586" lon="-118.3934443">
  <ele>-1.496</ele>
  <time>2026-09-02T22:09:47Z</time>
  <course>156.91</course>
  <speed>0.0316227766016838</speed>
  <fix>3d</fix>
</trkpt>
<trkpt lat="33.8105861" lon="-118.3934446">
  <ele>-1.09</ele>
  <time>2026-09-02T22:09:47Z</time>
  <course>120.09</course>
  <speed>0.0</speed>
  <fix>3d</fix>
</trkpt>
<trkpt lat="33.810586" lon="-118.3934443">
  <ele>-1.486</ele>
  <time>2026-09-02T22:09:47Z</time>
  <course>156.91</course>
  <speed>0.0316227766016838</speed>
  <fix>3d</fix>
</trkpt>
<trkpt lat="33.8105861" lon="-118.3934446">
  <ele>-1.06</ele>
  <time>2026-09-02T22:09:47Z</time>
  <course>120.11</course>
  <speed>0.0</speed>
  <fix>3d</fix>
</trkpt>
<trkpt lat="33.810586" lon="-118.3934443">
  <ele>-1.476</ele>
  <time>2026-09-02T22:09:47Z</time>
  <course>156.91</course>
  <speed>0.0316227766016838</speed>
  <fix>3d</fix>
</trkpt>
<trkpt lat="33.8105861" lon="-118.3934446">
  <ele>-1.06</ele>
  <time>2026-09-02T22:09:47Z</time>
  <course>120.11</course>
  <speed>0.0</speed>
  <fix>3d</fix>
</trkpt>
<trkpt lat="33.810586" lon="-118.3934443">
  <ele>-1.465</ele>
  <time>2026-09-02T22:09:47Z</time>
  <course>156.9</course>
  <speed>0.0316227766016838</speed>
  <fix>3d</fix>
</trkpt>
<trkpt lat="33.8105861" lon="-118.3934446">
  <ele>-1.05</ele>
  <time>2026-09-02T22:09:47Z</time>
  <course>120.14</course>
  <speed>0.0</speed>
  <fix>3d</fix>
</trkpt>
<trkpt lat="33.810586" lon="-118.3934443">
  <ele>-1.455</ele>
  <time>2026-09-02T22:09:47Z</time>
  <course>156.9</course>
  <speed>0.0316227766016838</speed>
  <fix>3d</fix>
</trkpt>
<trkpt lat="33.8105861" lon="-118.3934446">
  <ele>-1.05</ele>
  <time>2026-09-02T22:09:47Z</time>
  <course>120.14</course>
  <speed>0.0</speed>
  <fix>3d</fix>
</trkpt>
<trkpt lat="33.810586" lon="-118.3934443">
  <ele>-1.444</ele>
  <time>2026-09-02T22:09:47Z</time>
  <course>156.9</course>
  <speed>0.0316227766016838</speed>
  <fix>3d</fix>
</trkpt>
<trkpt lat="33.8105861" lon="-118.3934446">
  <ele>-1.03</ele>
  <time>2026-09-02T22:09:47Z</time>
  <course>120.16</course>
  <speed>0.0</speed>
  <fix>3d</fix>
</trkpt>
<trkpt lat="33.810586" lon="-118.3934443">
  <ele>-1.433</ele>
  <time>2026-09-02T22:09:47Z</time>
  <course>156.9</course>
  <speed>0.0316227766016838</speed>
  <fix>3d</fix>
</trkpt>
<trkpt lat="33.8105861" lon="-118.3934446">
  <ele>-1.03</ele>
  <time>2026-09-02T22:09:47Z</time>
  <course>120.16</course>
  <speed>0.0</speed>
  <fix>3d</fix>
</trkpt>
<trkpt lat="33.810586" lon="-118.3934443">
  <ele>-1.423</ele>
  <time>2026-09-02T22:09:47Z</time>
  <course>156.89</course>
  <speed>0.0316227766016838</speed>
  <fix>3d</fix>
</trkpt>
<trkpt lat="33.8105861" lon="-118.3934445">
  <ele>-1.01</ele>
  <time>2026-09-02T22:09:47Z</time>
  <course>120.15</course>
  <speed>0.0</speed>
  <fix>3d</fix>
</trkpt>
<trkpt lat="33.810586" lon="-118.3934443">
  <ele>-1.413</ele>
  <time>2026-09-02T22:09:47Z</time>
  <course>156.89</course>
  <speed>0.0316227766016838</speed>
  <fix>3d</fix>
</trkpt>
<trkpt lat="33.8105861" lon="-118.3934445">
  <ele>-1.01</ele>
  <time>2026-09-02T22:09:47Z</time>
  <course>120.15</course>
  <speed>0.0</speed>
  <fix>3d</fix>
</trkpt>
<trkpt lat="33.810586" lon="-118.3934443">
  <ele>-1.403</ele>
  <time>2026-09-02T22:09:47Z</time>
  <course>156.89</course>
  <speed>0.0316227766016838</speed>
  <fix>3d</fix>
</trkpt>
<trkpt lat="33.8105861" lon="-118.3934445">
  <ele>-0.99</ele>
  <time>2026-09-02T22:09:47Z</time>
  <course>120.12</course>
  <speed>0.0</speed>
  <fix>3d</fix>
</trkpt>
<trkpt lat="33.810586" lon="-118.3934442">
  <ele>-1.394</ele>
  <time>2026-09-02T22:09:48Z</time>
  <course>156.89</course>
  <speed>0.0316227766016838</speed>
  <fix>3d</fix>
</trkpt>
<trkpt lat="33.8105861" lon="-118.3934445">
  <ele>-0.99</ele>
  <time>2026-09-02T22:09:48Z</time>
  <course>120.12</course>
  <speed>0.0</speed>
  <fix>3d</fix>
</trkpt>
<trkpt lat="33.810586" lon="-118.3934442">
  <ele>-1.384</ele>
  <time>2026-09-02T22:09:48Z</time>
  <course>156.88</course>
  <speed>0.0316227766016838</speed>
  <fix>3d</fix>
</trkpt>
<trkpt lat="33.8105861" lon="-118.3934445">
  <ele>-0.97</ele>
  <time>2026-09-02T22:09:48Z</time>
  <course>120.09</course>
  <speed>0.0</speed>
  <fix>3d</fix>
</trkpt>
<trkpt lat="33.810586" lon="-118.3934442">
  <ele>-1.374</ele>
  <time>2026-09-02T22:09:48Z</time>
  <course>156.88</course>
  <speed>0.0316227766016838</speed>
  <fix>3d</fix>
</trkpt>
<trkpt lat="33.8105861" lon="-118.3934445">
  <ele>-0.97</ele>
  <time>2026-09-02T22:09:48Z</time>
  <course>120.09</course>
  <speed>0.0</speed>
  <fix>3d</fix>
</trkpt>
<trkpt lat="33.810586" lon="-118.3934442">
  <ele>-1.364</ele>
  <time>2026-09-02T22:09:48Z</time>
  <course>156.88</course>
  <speed>0.0316227766016838</speed>
  <fix>3d</fix>
</trkpt>
<trkpt lat="33.8105861" lon="-118.3934445">
  <ele>-0.95</ele>
  <time>2026-09-02T22:09:48Z</time>
  <course>120.09</course>
  <speed>0.0</speed>
  <fix>3d</fix>
</trkpt>
<trkpt lat="33.810586" lon="-118.3934442">
  <ele>-1.354</ele>
  <time>2026-09-02T22:09:48Z</time>
  <course>156.88</course>
  <speed>0.0316227766016838</speed>
  <fix>3d</fix>
</trkpt>
<trkpt lat="33.8105861" lon="-118.3934445">
  <ele>-0.95</ele>
  <time>2026-09-02T22:09:48Z</time>
  <course>120.09</course>
  <speed>0.0</speed>
  <fix>3d</fix>
</trkpt>
<trkpt lat="33.810586" lon="-118.3934442">
  <ele>-1.346</ele>
  <time>2026-09-02T22:09:48Z</time>
  <course>156.88</course>
  <speed>0.0316227766016838</speed>
  <fix>3d</fix>
</trkpt>
<trkpt lat="33.8105861" lon="-118.3934445">
  <ele>-0.94</ele>
  <time>2026-09-02T22:09:48Z</time>
  <course>120.12</course>
  <speed>0.0</speed>
  <fix>3d</fix>
</trkpt>
<trkpt lat="33.810586" lon="-118.3934442">
  <ele>-1.336</ele>
  <time>2026-09-02T22:09:48Z</time>
  <course>156.87</course>
  <speed>0.0316227766016838</speed>
  <fix>3d</fix>
</trkpt>
<trkpt lat="33.8105861" lon="-118.3934445">
  <ele>-0.94</ele>
  <time>2026-09-02T22:09:48Z</time>
  <course>120.12</course>
  <speed>0.0</speed>
  <fix>3d</fix>
</trkpt>
<trkpt lat="33.810586" lon="-118.3934442">
  <ele>-1.327</ele>
  <time>2026-09-02T22:09:48Z</time>
  <course>156.87</course>
  <speed>0.0316227766016838</speed>
  <fix>3d</fix>
</trkpt>
<trkpt lat="33.8105861" lon="-118.3934445">
  <ele>-0.92</ele>
  <time>2026-09-02T22:09:48Z</time>
  <course>120.15</course>
  <speed>0.0</speed>
  <fix>3d</fix>
</trkpt>
<trkpt lat="33.810586" lon="-118.3934442">
  <ele>-1.316</ele>
  <time>2026-09-02T22:09:48Z</time>
  <course>156.87</course>
  <speed>0.0316227766016838</speed>
  <fix>3d</fix>
</trkpt>
<trkpt lat="33.8105861" lon="-118.3934445">
  <ele>-0.92</ele>
  <time>2026-09-02T22:09:48Z</time>
  <course>120.15</course>
  <speed>0.0</speed>
  <fix>3d</fix>
</trkpt>
<trkpt lat="33.810586" lon="-118.3934442">
  <ele>-1.304</ele>
  <time>2026-09-02T22:09:48Z</time>
  <course>156.87</course>
  <speed>0.0316227766016838</speed>
  <fix>3d</fix>
</trkpt>
<trkpt lat="33.8105861" lon="-118.3934444">
  <ele>-0.9</ele>
  <time>2026-09-02T22:09:48Z</time>
  <course>120.16</course>
  <speed>0.0</speed>
  <fix>3d</fix>
</trkpt>
<trkpt lat="33.810586" lon="-118.3934442">
  <ele>-1.293</ele>
  <time>2026-09-02T22:09:48Z</time>
  <course>156.86</course>
  <speed>0.0316227766016838</speed>
  <fix>3d</fix>
</trkpt>
<trkpt lat="33.8105861" lon="-118.3934444">
  <ele>-0.9</ele>
  <time>2026-09-02T22:09:48Z</time>
  <course>120.16</course>
  <speed>0.0</speed>
  <fix>3d</fix>
</trkpt>
<trkpt lat="33.810586" lon="-118.3934442">
  <ele>-1.282</ele>
  <time>2026-09-02T22:09:48Z</time>
  <course>156.86</course>
  <speed>0.0316227766016838</speed>
  <fix>3d</fix>
</trkpt>
<trkpt lat="33.8105861" lon="-118.3934444">
  <ele>-0.88</ele>
  <time>2026-09-02T22:09:48Z</time>
  <course>120.14</course>
  <speed>0.0</speed>
  <fix>3d</fix>
</trkpt>
<trkpt lat="33.810586" lon="-118.3934442">
  <ele>-1.272</ele>
  <time>2026-09-02T22:09:48Z</time>
  <course>156.86</course>
  <speed>0.0316227766016838</speed>
  <fix>3d</fix>
</trkpt>
<trkpt lat="33.8105861" lon="-118.3934444">
  <ele>-0.88</ele>
  <time>2026-09-02T22:09:48Z</time>
  <course>120.14</course>
  <speed>0.0</speed>
  <fix>3d</fix>
</trkpt>
<trkpt lat="33.810586" lon="-118.3934441">
  <ele>-1.261</ele>
  <time>2026-09-02T22:09:48Z</time>
  <course>156.86</course>
  <speed>0.0316227766016838</speed>
  <fix>3d</fix>
</trkpt>
<trkpt lat="33.8105861" lon="-118.3934444">
  <ele>-0.86</ele>
  <time>2026-09-02T22:09:48Z</time>
  <course>120.1</course>
  <speed>0.0</speed>
  <fix>3d</fix>
</trkpt>
<trkpt lat="33.810586" lon="-118.3934441">
  <ele>-1.25</ele>
  <time>2026-09-02T22:09:48Z</time>
  <course>156.86</course>
  <speed>0.0316227766016838</speed>
  <fix>3d</fix>
</trkpt>
<trkpt lat="33.8105861" lon="-118.3934444">
  <ele>-0.86</ele>
  <time>2026-09-02T22:09:48Z</time>
  <course>120.1</course>
  <speed>0.0</speed>
  <fix>3d</fix>
</trkpt>
<trkpt lat="33.810586" lon="-118.3934441">
  <ele>-1.208</ele>
  <time>2026-09-02T22:09:48Z</time>
  <course>156.85</course>
  <speed>0.0316227766016838</speed>
  <fix>3d</fix>
</trkpt>
<trkpt lat="33.8105861" lon="-118.3934444">
  <ele>-0.82</ele>
  <time>2026-09-02T22:09:48Z</time>
  <course>120.09</course>
  <speed>0.0</speed>
  <fix>3d</fix>
</trkpt>
<trkpt lat="33.810586" lon="-118.3934441">
  <ele>-1.18</ele>
  <time>2026-09-02T22:09:48Z</time>
  <course>156.84</course>
  <speed>0.0316227766016838</speed>
  <fix>3d</fix>
</trkpt>
<trkpt lat="33.810586" lon="-118.3934444">
  <ele>-0.78</ele>
  <time>2026-09-02T22:09:48Z</time>
  <course>120.15</course>
  <speed>0.0</speed>
  <fix>3d</fix>
</trkpt>
<trkpt lat="33.810586" lon="-118.3934441">
  <ele>-1.172</ele>
  <time>2026-09-02T22:09:48Z</time>
  <course>156.84</course>
  <speed>0.0316227766016838</speed>
  <fix>3d</fix>
</trkpt>
<trkpt lat="33.810586" lon="-118.3934444">
  <ele>-0.78</ele>
  <time>2026-09-02T22:09:48Z</time>
  <course>120.15</course>
  <speed>0.0</speed>
  <fix>3d</fix>
</trkpt>
<trkpt lat="33.810586" lon="-118.3934441">
  <ele>-1.165</ele>
  <time>2026-09-02T22:09:48Z</time>
  <course>156.84</course>
  <speed>0.0316227766016838</speed>
  <fix>3d</fix>
</trkpt>
<trkpt lat="33.810586" lon="-118.3934443">
  <ele>-0.76</ele>
  <time>2026-09-02T22:09:48Z</time>
  <course>120.15</course>
  <speed>0.0</speed>
  <fix>3d</fix>
</trkpt>
<trkpt lat="33.810586" lon="-118.3934441">
  <ele>-1.158</ele>
  <time>2026-09-02T22:09:48Z</time>
  <course>156.83</course>
  <speed>0.0316227766016838</speed>
  <fix>3d</fix>
</trkpt>
<trkpt lat="33.810586" lon="-118.3934443">
  <ele>-0.76</ele>
  <time>2026-09-02T22:09:48Z</time>
  <course>120.15</course>
  <speed>0.0</speed>
  <fix>3d</fix>
</trkpt>
<trkpt lat="33.810586" lon="-118.3934441">
  <ele>-1.151</ele>
  <time>2026-09-02T22:09:48Z</time>
  <course>156.83</course>
  <speed>0.0316227766016838</speed>
  <fix>3d</fix>
</trkpt>
<trkpt lat="33.810586" lon="-118.3934443">
  <ele>-0.75</ele>
  <time>2026-09-02T22:09:48Z</time>
  <course>120.12</course>
  <speed>0.0</speed>
  <fix>3d</fix>
</trkpt>
<trkpt lat="33.810586" lon="-118.3934441">
  <ele>-1.143</ele>
  <time>2026-09-02T22:09:48Z</time>
  <course>156.83</course>
  <speed>0.0316227766016838</speed>
  <fix>3d</fix>
</trkpt>
<trkpt lat="33.810586" lon="-118.3934443">
  <ele>-0.75</ele>
  <time>2026-09-02T22:09:48Z</time>
  <course>120.12</course>
  <speed>0.0</speed>
  <fix>3d</fix>
</trkpt>
<trkpt lat="33.810586" lon="-118.393444">
  <ele>-1.134</ele>
  <time>2026-09-02T22:09:48Z</time>
  <course>156.83</course>
  <speed>0.0316227766016838</speed>
  <fix>3d</fix>
</trkpt>
<trkpt lat="33.810586" lon="-118.3934443">
  <ele>-0.73</ele>
  <time>2026-09-02T22:09:48Z</time>
  <course>120.09</course>
  <speed>0.0</speed>
  <fix>3d</fix>
</trkpt>
<trkpt lat="33.810586" lon="-118.393444">
  <ele>-1.125</ele>
  <time>2026-09-02T22:09:48Z</time>
  <course>156.82</course>
  <speed>0.0316227766016838</speed>
  <fix>3d</fix>
</trkpt>
<trkpt lat="33.810586" lon="-118.3934443">
  <ele>-0.73</ele>
  <time>2026-09-02T22:09:48Z</time>
  <course>120.09</course>
  <speed>0.0</speed>
  <fix>3d</fix>
</trkpt>
<trkpt lat="33.810586" lon="-118.393444">
  <ele>-1.115</ele>
  <time>2026-09-02T22:09:48Z</time>
  <course>156.82</course>
  <speed>0.0316227766016838</speed>
  <fix>3d</fix>
</trkpt>
<trkpt lat="33.810586" lon="-118.3934443">
  <ele>-0.71</ele>
  <time>2026-09-02T22:09:48Z</time>
  <course>120.08</course>
  <speed>0.0</speed>
  <fix>3d</fix>
</trkpt>
<trkpt lat="33.810586" lon="-118.393444">
  <ele>-1.104</ele>
  <time>2026-09-02T22:09:48Z</time>
  <course>156.82</course>
  <speed>0.0316227766016838</speed>
  <fix>3d</fix>
</trkpt>
<trkpt lat="33.810586" lon="-118.3934443">
  <ele>-0.71</ele>
  <time>2026-09-02T22:09:48Z</time>
  <course>120.08</course>
  <speed>0.0</speed>
  <fix>3d</fix>
</trkpt>
<trkpt lat="33.810586" lon="-118.393444">
  <ele>-1.093</ele>
  <time>2026-09-02T22:09:48Z</time>
  <course>156.82</course>
  <speed>0.0316227766016838</speed>
  <fix>3d</fix>
</trkpt>
<trkpt lat="33.810586" lon="-118.3934443">
  <ele>-0.69</ele>
  <time>2026-09-02T22:09:48Z</time>
  <course>120.1</course>
  <speed>0.0</speed>
  <fix>3d</fix>
</trkpt>
<trkpt lat="33.810586" lon="-118.393444">
  <ele>-1.082</ele>
  <time>2026-09-02T22:09:48Z</time>
  <course>156.82</course>
  <speed>0.0316227766016838</speed>
  <fix>3d</fix>
</trkpt>
<trkpt lat="33.810586" lon="-118.3934443">
  <ele>-0.69</ele>
  <time>2026-09-02T22:09:48Z</time>
  <course>120.1</course>
  <speed>0.0</speed>
  <fix>3d</fix>
</trkpt>
<trkpt lat="33.810586" lon="-118.393444">
  <ele>-1.072</ele>
  <time>2026-09-02T22:09:48Z</time>
  <course>156.81</course>
  <speed>0.0316227766016838</speed>
  <fix>3d</fix>
</trkpt>
<trkpt lat="33.810586" lon="-118.3934443">
  <ele>-0.67</ele>
  <time>2026-09-02T22:09:48Z</time>
  <course>120.13</course>
  <speed>0.0</speed>
  <fix>3d</fix>
</trkpt>
<trkpt lat="33.8105859" lon="-118.393444">
  <ele>-1.062</ele>
  <time>2026-09-02T22:09:48Z</time>
  <course>156.81</course>
  <speed>0.0316227766016838</speed>
  <fix>3d</fix>
</trkpt>
<trkpt lat="33.810586" lon="-118.3934443">
  <ele>-0.67</ele>
  <time>2026-09-02T22:09:48Z</time>
  <course>120.13</course>
  <speed>0.0</speed>
  <fix>3d</fix>
</trkpt>
<trkpt lat="33.8105859" lon="-118.393444">
  <ele>-1.05</ele>
  <time>2026-09-02T22:09:48Z</time>
  <course>156.81</course>
  <speed>0.0316227766016838</speed>
  <fix>3d</fix>
</trkpt>
<trkpt lat="33.810586" lon="-118.3934443">
  <ele>-0.65</ele>
  <time>2026-09-02T22:09:48Z</time>
  <course>120.15</course>
  <speed>0.0</speed>
  <fix>3d</fix>
</trkpt>
<trkpt lat="33.8105859" lon="-118.393444">
  <ele>-1.04</ele>
  <time>2026-09-02T22:09:48Z</time>
  <course>156.81</course>
  <speed>0.0316227766016838</speed>
  <fix>3d</fix>
</trkpt>
<trkpt lat="33.810586" lon="-118.3934443">
  <ele>-0.65</ele>
  <time>2026-09-02T22:09:48Z</time>
  <course>120.15</course>
  <speed>0.0</speed>
  <fix>3d</fix>
</trkpt>
<trkpt lat="33.8105859" lon="-118.393444">
  <ele>-1.03</ele>
  <time>2026-09-02T22:09:48Z</time>
  <course>156.81</course>
  <speed>0.0316227766016838</speed>
  <fix>3d</fix>
</trkpt>
<trkpt lat="33.810586" lon="-118.3934442">
  <ele>-0.63</ele>
  <time>2026-09-02T22:09:48Z</time>
  <course>120.14</course>
  <speed>0.0</speed>
  <fix>3d</fix>
</trkpt>
<trkpt lat="33.8105859" lon="-118.393444">
  <ele>-1.019</ele>
  <time>2026-09-02T22:09:48Z</time>
  <course>156.8</course>
  <speed>0.0316227766016838</speed>
  <fix>3d</fix>
</trkpt>
<trkpt lat="33.810586" lon="-118.3934442">
  <ele>-0.63</ele>
  <time>2026-09-02T22:09:48Z</time>
  <course>120.14</course>
  <speed>0.0</speed>
  <fix>3d</fix>
</trkpt>
<trkpt lat="33.8105859" lon="-118.393444">
  <ele>-1.009</ele>
  <time>2026-09-02T22:09:48Z</time>
  <course>156.8</course>
  <speed>0.0316227766016838</speed>
  <fix>3d</fix>
</trkpt>
<trkpt lat="33.810586" lon="-118.3934442">
  <ele>-0.61</ele>
  <time>2026-09-02T22:09:48Z</time>
  <course>120.1</course>
  <speed>0.0</speed>
  <fix>3d</fix>
</trkpt>
<trkpt lat="33.8105859" lon="-118.393444">
  <ele>-1.0</ele>
  <time>2026-09-02T22:09:48Z</time>
  <course>156.8</course>
  <speed>0.0316227766016838</speed>
  <fix>3d</fix>
</trkpt>
<trkpt lat="33.810586" lon="-118.3934442">
  <ele>-0.61</ele>
  <time>2026-09-02T22:09:48Z</time>
  <course>120.1</course>
  <speed>0.0</speed>
  <fix>3d</fix>
</trkpt>
<trkpt lat="33.8105859" lon="-118.393444">
  <ele>-0.991</ele>
  <time>2026-09-02T22:09:48Z</time>
  <course>156.8</course>
  <speed>0.0316227766016838</speed>
  <fix>3d</fix>
</trkpt>
<trkpt lat="33.810586" lon="-118.3934442">
  <ele>-0.59</ele>
  <time>2026-09-02T22:09:48Z</time>
  <course>120.08</course>
  <speed>0.0</speed>
  <fix>3d</fix>
</trkpt>
<trkpt lat="33.8105859" lon="-118.3934439">
  <ele>-0.981</ele>
  <time>2026-09-02T22:09:48Z</time>
  <course>156.8</course>
  <speed>0.0316227766016838</speed>
  <fix>3d</fix>
</trkpt>
<trkpt lat="33.810586" lon="-118.3934442">
  <ele>-0.59</ele>
  <time>2026-09-02T22:09:48Z</time>
  <course>120.08</course>
  <speed>0.0</speed>
  <fix>3d</fix>
</trkpt>
<trkpt lat="33.8105859" lon="-118.3934439">
  <ele>-0.972</ele>
  <time>2026-09-02T22:09:48Z</time>
  <course>156.79</course>
  <speed>0.0316227766016838</speed>
  <fix>3d</fix>
</trkpt>
<trkpt lat="33.810586" lon="-118.3934442">
  <ele>-0.57</ele>
  <time>2026-09-02T22:09:48Z</time>
  <course>120.08</course>
  <speed>0.0</speed>
  <fix>3d</fix>
</trkpt>
<trkpt lat="33.8105859" lon="-118.3934439">
  <ele>-0.962</ele>
  <time>2026-09-02T22:09:48Z</time>
  <course>156.79</course>
  <speed>0.0316227766016838</speed>
  <fix>3d</fix>
</trkpt>
<trkpt lat="33.810586" lon="-118.3934442">
  <ele>-0.57</ele>
  <time>2026-09-02T22:09:48Z</time>
  <course>120.08</course>
  <speed>0.0</speed>
  <fix>3d</fix>
</trkpt>
<trkpt lat="33.8105859" lon="-118.3934439">
  <ele>-0.951</ele>
  <time>2026-09-02T22:09:48Z</time>
  <course>156.79</course>
  <speed>0.0316227766016838</speed>
  <fix>3d</fix>
</trkpt>
<trkpt lat="33.810586" lon="-118.3934442">
  <ele>-0.55</ele>
  <time>2026-09-02T22:09:48Z</time>
  <course>120.11</course>
  <speed>0.0</speed>
  <fix>3d</fix>
</trkpt>
<trkpt lat="33.8105859" lon="-118.3934439">
  <ele>-0.941</ele>
  <time>2026-09-02T22:09:48Z</time>
  <course>156.79</course>
  <speed>0.0316227766016838</speed>
  <fix>3d</fix>
</trkpt>
<trkpt lat="33.810586" lon="-118.3934442">
  <ele>-0.55</ele>
  <time>2026-09-02T22:09:48Z</time>
  <course>120.11</course>
  <speed>0.0</speed>
  <fix>3d</fix>
</trkpt>
<trkpt lat="33.8105859" lon="-118.3934439">
  <ele>-0.93</ele>
  <time>2026-09-02T22:09:48Z</time>
  <course>156.79</course>
  <speed>0.0316227766016838</speed>
  <fix>3d</fix>
</trkpt>
<trkpt lat="33.810586" lon="-118.3934442">
  <ele>-0.53</ele>
  <time>2026-09-02T22:09:48Z</time>
  <course>120.14</course>
  <speed>0.0</speed>
  <fix>3d</fix>
</trkpt>
<trkpt lat="33.8105859" lon="-118.3934439">
  <ele>-0.919</ele>
  <time>2026-09-02T22:09:48Z</time>
  <course>156.78</course>
  <speed>0.0316227766016838</speed>
  <fix>3d</fix>
</trkpt>
<trkpt lat="33.810586" lon="-118.3934442">
  <ele>-0.53</ele>
  <time>2026-09-02T22:09:48Z</time>
  <course>120.14</course>
  <speed>0.0</speed>
  <fix>3d</fix>
</trkpt>
<trkpt lat="33.8105859" lon="-118.3934439">
  <ele>-0.91</ele>
  <time>2026-09-02T22:09:48Z</time>
  <course>156.78</course>
  <speed>0.0316227766016838</speed>
  <fix>3d</fix>
</trkpt>
<trkpt lat="33.8105859" lon="-118.3934442">
  <ele>-0.52</ele>
  <time>2026-09-02T22:09:48Z</time>
  <course>120.14</course>
  <speed>0.0</speed>
  <fix>3d</fix>
</trkpt>
<trkpt lat="33.8105859" lon="-118.3934439">
  <ele>-0.9</ele>
  <time>2026-09-02T22:09:48Z</time>
  <course>156.78</course>
  <speed>0.0316227766016838</speed>
  <fix>3d</fix>
</trkpt>
<trkpt lat="33.8105859" lon="-118.3934442">
  <ele>-0.52</ele>
  <time>2026-09-02T22:09:48Z</time>
  <course>120.14</course>
  <speed>0.0</speed>
  <fix>3d</fix>
</trkpt>
<trkpt lat="33.8105859" lon="-118.3934439">
  <ele>-0.89</ele>
  <time>2026-09-02T22:09:48Z</time>
  <course>156.78</course>
  <speed>0.0316227766016838</speed>
  <fix>3d</fix>
</trkpt>
<trkpt lat="33.8105859" lon="-118.3934442">
  <ele>-0.5</ele>
  <time>2026-09-02T22:09:48Z</time>
  <course>120.12</course>
  <speed>0.0</speed>
  <fix>3d</fix>
</trkpt>
<trkpt lat="33.8105859" lon="-118.3934439">
  <ele>-0.88</ele>
  <time>2026-09-02T22:09:48Z</time>
  <course>156.78</course>
  <speed>0.0316227766016838</speed>
  <fix>3d</fix>
</trkpt>
<trkpt lat="33.8105859" lon="-118.3934442">
  <ele>-0.5</ele>
  <time>2026-09-02T22:09:48Z</time>
  <course>120.12</course>
  <speed>0.0</speed>
  <fix>3d</fix>
</trkpt>
<trkpt lat="33.8105859" lon="-118.3934439">
  <ele>-0.869</ele>
  <time>2026-09-02T22:09:49Z</time>
  <course>156.77</course>
  <speed>0.0316227766016838</speed>
  <fix>3d</fix>
</trkpt>
<trkpt lat="33.8105859" lon="-118.3934441">
  <ele>-0.48</ele>
  <time>2026-09-02T22:09:49Z</time>
  <course>120.09</course>
  <speed>0.0</speed>
  <fix>3d</fix>
</trkpt>
<trkpt lat="33.8105859" lon="-118.3934439">
  <ele>-0.857</ele>
  <time>2026-09-02T22:09:49Z</time>
  <course>156.77</course>
  <speed>0.0316227766016838</speed>
  <fix>3d</fix>
</trkpt>
<trkpt lat="33.8105859" lon="-118.3934441">
  <ele>-0.48</ele>
  <time>2026-09-02T22:09:49Z</time>
  <course>120.09</course>
  <speed>0.0</speed>
  <fix>3d</fix>
</trkpt>
<trkpt lat="33.8105859" lon="-118.3934439">
  <ele>-0.846</ele>
  <time>2026-09-02T22:09:49Z</time>
  <course>156.77</course>
  <speed>0.0316227766016838</speed>
  <fix>3d</fix>
</trkpt>
<trkpt lat="33.8105859" lon="-118.3934441">
  <ele>-0.45</ele>
  <time>2026-09-02T22:09:49Z</time>
  <course>120.07</course>
  <speed>0.0</speed>
  <fix>3d</fix>
</trkpt>
<trkpt lat="33.8105859" lon="-118.3934439">
  <ele>-0.836</ele>
  <time>2026-09-02T22:09:49Z</time>
  <course>156.77</course>
  <speed>0.0316227766016838</speed>
  <fix>3d</fix>
</trkpt>
<trkpt lat="33.8105859" lon="-118.3934441">
  <ele>-0.45</ele>
  <time>2026-09-02T22:09:49Z</time>
  <course>120.07</course>
  <speed>0.0</speed>
  <fix>3d</fix>
</trkpt>
<trkpt lat="33.8105859" lon="-118.3934438">
  <ele>-0.827</ele>
  <time>2026-09-02T22:09:49Z</time>
  <course>156.77</course>
  <speed>0.0316227766016838</speed>
  <fix>3d</fix>
</trkpt>
<trkpt lat="33.8105859" lon="-118.3934441">
  <ele>-0.44</ele>
  <time>2026-09-02T22:09:49Z</time>
  <course>120.08</course>
  <speed>0.0</speed>
  <fix>3d</fix>
</trkpt>
<trkpt lat="33.4370077" lon="-117.0866608">
  <ele>-0.11</ele>
  <time>2026-09-02T22:09:49Z</time>
  <course>0.0</course>
  <speed>0.0</speed>
  <fix>3d</fix>
</trkpt>
<trkpt lat="33.4370077" lon="-117.0866608">
  <ele>-0.11</ele>
  <time>2026-09-02T22:09:49Z</time>
  <course>0.0</course>
  <speed>0.0</speed>
  <fix>3d</fix>
</trkpt>
<trkpt lat="33.810313" lon="-118.393867">
  <ele>0.0</ele>
  <time>2026-09-02T22:09:49Z</time>
  <course>173.5</course>
  <speed>0.0</speed>
  <fix>3d</fix>
</trkpt>
<trkpt lat="33.810313" lon="-118.393867">
  <ele>-0.11</ele>
  <time>2026-09-02T22:09:49Z</time>
  <course>0.0</course>
  <speed>0.0</speed>
  <fix>3d</fix>
</trkpt>
<trkpt lat="33.810313" lon="-118.393867">
  <ele>0.0</ele>
  <time>2026-09-02T22:09:49Z</time>
  <course>173.5</course>
  <speed>0.0</speed>
  <fix>3d</fix>
</trkpt>
<trkpt lat="33.810313" lon="-118.393867">
  <ele>-0.11</ele>
  <time>2026-09-02T22:09:49Z</time>
  <course>0.0</course>
  <speed>0.0</speed>
  <fix>3d</fix>
</trkpt>
<trkpt lat="33.810313" lon="-118.393867">
  <ele>0.0</ele>
  <time>2026-09-02T22:09:49Z</time>
  <course>173.78</course>
  <speed>0.0</speed>
  <fix>3d</fix>
</trkpt>
<trkpt lat="33.810313" lon="-118.393867">
  <ele>-0.11</ele>
  <time>2026-09-02T22:09:49Z</time>
  <course>0.0</course>
  <speed>0.0</speed>
  <fix>3d</fix>
</trkpt>
<trkpt lat="33.810313" lon="-118.393867">
  <ele>0.0</ele>
  <time>2026-09-02T22:09:49Z</time>
  <course>174.28</course>
  <speed>0.0</speed>
  <fix>3d</fix>
</trkpt>
<trkpt lat="33.810313" lon="-118.393867">
  <ele>-0.11</ele>
  <time>2026-09-02T22:09:49Z</time>
  <course>0.0</course>
  <speed>0.0</speed>
  <fix>3d</fix>
</trkpt>
<trkpt lat="33.810313" lon="-118.393867">
  <ele>0.0</ele>
  <time>2026-09-02T22:09:49Z</time>
  <course>174.84</course>
  <speed>0.0</speed>
  <fix>3d</fix>
</trkpt>
<trkpt lat="33.810313" lon="-118.393867">
  <ele>-0.12</ele>
  <time>2026-09-02T22:09:49Z</time>
  <course>0.0</course>
  <speed>0.0</speed>
  <fix>3d</fix>
</trkpt>
<trkpt lat="33.810313" lon="-118.393867">
  <ele>0.0</ele>
  <time>2026-09-02T22:09:49Z</time>
  <course>175.39</course>
  <speed>0.0</speed>
  <fix>3d</fix>
</trkpt>
<trkpt lat="33.810313" lon="-118.393867">
  <ele>-0.12</ele>
  <time>2026-09-02T22:09:49Z</time>
  <course>0.0</course>
  <speed>0.0</speed>
  <fix>3d</fix>
</trkpt>
<trkpt lat="33.810313" lon="-118.393867">
  <ele>0.0</ele>
  <time>2026-09-02T22:09:49Z</time>
  <course>175.91</course>
  <speed>0.0</speed>
  <fix>3d</fix>
</trkpt>
<trkpt lat="33.810313" lon="-118.393867">
  <ele>-0.13</ele>
  <time>2026-09-02T22:09:49Z</time>
  <course>0.0</course>
  <speed>0.0</speed>
  <fix>3d</fix>
</trkpt>
<trkpt lat="33.810313" lon="-118.393867">
  <ele>0.0</ele>
  <time>2026-09-02T22:09:49Z</time>
  <course>176.4</course>
  <speed>0.0</speed>
  <fix>3d</fix>
</trkpt>
<trkpt lat="33.810313" lon="-118.393867">
  <ele>-0.13</ele>
  <time>2026-09-02T22:09:49Z</time>
  <course>0.0</course>
  <speed>0.0</speed>
  <fix>3d</fix>
</trkpt>
<trkpt lat="33.810313" lon="-118.393867">
  <ele>0.0</ele>
  <time>2026-09-02T22:09:49Z</time>
  <course>176.87</course>
  <speed>0.0</speed>
  <fix>3d</fix>
</trkpt>
<trkpt lat="33.810313" lon="-118.393867">
  <ele>-0.13</ele>
  <time>2026-09-02T22:09:49Z</time>
  <course>0.0</course>
  <speed>0.0</speed>
  <fix>3d</fix>
</trkpt>
<trkpt lat="33.810313" lon="-118.393867">
  <ele>0.0</ele>
  <time>2026-09-02T22:09:49Z</time>
  <course>177.34</course>
  <speed>0.0</speed>
  <fix>3d</fix>
</trkpt>
<trkpt lat="33.810313" lon="-118.393867">
  <ele>-0.13</ele>
  <time>2026-09-02T22:09:49Z</time>
  <course>0.0</course>
  <speed>0.0</speed>
  <fix>3d</fix>
</trkpt>
<trkpt lat="33.810313" lon="-118.393867">
  <ele>0.0</ele>
  <time>2026-09-02T22:09:49Z</time>
  <course>177.79</course>
  <speed>0.0</speed>
  <fix>3d</fix>
</trkpt>
<trkpt lat="33.810313" lon="-118.393867">
  <ele>-0.14</ele>
  <time>2026-09-02T22:09:49Z</time>
  <course>0.0</course>
  <speed>0.0</speed>
  <fix>3d</fix>
</trkpt>
<trkpt lat="33.810313" lon="-118.393867">
  <ele>0.0</ele>
  <time>2026-09-02T22:09:49Z</time>
  <course>178.23</course>
  <speed>0.0</speed>
  <fix>3d</fix>
</trkpt>
<trkpt lat="33.810313" lon="-118.393867">
  <ele>-0.14</ele>
  <time>2026-09-02T22:09:49Z</time>
  <course>0.0</course>
  <speed>0.0</speed>
  <fix>3d</fix>
</trkpt>
<trkpt lat="33.810313" lon="-118.393867">
  <ele>0.0</ele>
  <time>2026-09-02T22:09:49Z</time>
  <course>178.65</course>
  <speed>0.0</speed>
  <fix>3d</fix>
</trkpt>
<trkpt lat="33.810313" lon="-118.393867">
  <ele>-0.14</ele>
  <time>2026-09-02T22:09:49Z</time>
  <course>0.0</course>
  <speed>0.0</speed>
  <fix>3d</fix>
</trkpt>
<trkpt lat="33.810313" lon="-118.393867">
  <ele>0.0</ele>
  <time>2026-09-02T22:09:49Z</time>
  <course>179.06</course>
  <speed>0.0</speed>
  <fix>3d</fix>
</trkpt>
<trkpt lat="33.810313" lon="-118.393867">
  <ele>-0.14</ele>
  <time>2026-09-02T22:09:49Z</time>
  <course>0.0</course>
  <speed>0.0</speed>
  <fix>3d</fix>
</trkpt>
<trkpt lat="33.810313" lon="-118.393867">
  <ele>0.0</ele>
  <time>2026-09-02T22:09:49Z</time>
  <course>179.46</course>
  <speed>0.0</speed>
  <fix>3d</fix>
</trkpt>
<trkpt lat="33.810313" lon="-118.393867">
  <ele>-0.14</ele>
  <time>2026-09-02T22:09:49Z</time>
  <course>0.0</course>
  <speed>0.0</speed>
  <fix>3d</fix>
</trkpt>
<trkpt lat="33.810313" lon="-118.393867">
  <ele>0.0</ele>
  <time>2026-09-02T22:09:49Z</time>
  <course>179.84</course>
  <speed>0.0</speed>
  <fix>3d</fix>
</trkpt>
<trkpt lat="33.810313" lon="-118.393867">
  <ele>-0.14</ele>
  <time>2026-09-02T22:09:49Z</time>
  <course>0.0</course>
  <speed>0.0</speed>
  <fix>3d</fix>
</trkpt>
<trkpt lat="33.810313" lon="-118.393867">
  <ele>0.0</ele>
  <time>2026-09-02T22:09:49Z</time>
  <course>180.23</course>
  <speed>0.0</speed>
  <fix>3d</fix>
</trkpt>
<trkpt lat="33.810313" lon="-118.393867">
  <ele>-0.14</ele>
  <time>2026-09-02T22:09:49Z</time>
  <course>0.0</course>
  <speed>0.0</speed>
  <fix>3d</fix>
</trkpt>
<trkpt lat="33.810313" lon="-118.393867">
  <ele>0.0</ele>
  <time>2026-09-02T22:09:49Z</time>
  <course>180.58</course>
  <speed>0.0</speed>
  <fix>3d</fix>
</trkpt>
<trkpt lat="33.810313" lon="-118.393867">
  <ele>-0.14</ele>
  <time>2026-09-02T22:09:49Z</time>
  <course>0.0</course>
  <speed>0.0</speed>
  <fix>3d</fix>
</trkpt>
<trkpt lat="33.810313" lon="-118.393867">
  <ele>0.0</ele>
  <time>2026-09-02T22:09:49Z</time>
  <course>180.93</course>
  <speed>0.0</speed>
  <fix>3d</fix>
</trkpt>
<trkpt lat="33.810313" lon="-118.393867">
  <ele>-0.13</ele>
  <time>2026-09-02T22:09:49Z</time>
  <course>0.0</course>
  <speed>0.0</speed>
  <fix>3d</fix>
</trkpt>
<trkpt lat="33.810313" lon="-118.393867">
  <ele>0.0</ele>
  <time>2026-09-02T22:09:49Z</time>
  <course>181.27</course>
  <speed>0.0</speed>
  <fix>3d</fix>
</trkpt>
<trkpt lat="33.810313" lon="-118.393867">
  <ele>-0.13</ele>
  <time>2026-09-02T22:09:49Z</time>
  <course>0.0</course>
  <speed>0.0</speed>
  <fix>3d</fix>
</trkpt>
<trkpt lat="33.810313" lon="-118.393867">
  <ele>0.0</ele>
  <time>2026-09-02T22:09:49Z</time>
  <course>181.59</course>
  <speed>0.0</speed>
  <fix>3d</fix>
</trkpt>
<trkpt lat="33.810313" lon="-118.393867">
  <ele>-0.12</ele>
  <time>2026-09-02T22:09:49Z</time>
  <course>0.0</course>
  <speed>0.0</speed>
  <fix>3d</fix>
</trkpt>
<trkpt lat="33.810313" lon="-118.393867">
  <ele>0.0</ele>
  <time>2026-09-02T22:09:49Z</time>
  <course>181.9</course>
  <speed>0.0</speed>
  <fix>3d</fix>
</trkpt>
<trkpt lat="33.810313" lon="-118.393867">
  <ele>-0.12</ele>
  <time>2026-09-02T22:09:49Z</time>
  <course>0.0</course>
  <speed>0.0</speed>
  <fix>3d</fix>
</trkpt>
<trkpt lat="33.810313" lon="-118.393867">
  <ele>0.0</ele>
  <time>2026-09-02T22:09:49Z</time>
  <course>182.2</course>
  <speed>0.0</speed>
  <fix>3d</fix>
</trkpt>
<trkpt lat="33.810313" lon="-118.393867">
  <ele>-0.12</ele>
  <time>2026-09-02T22:09:49Z</time>
  <course>0.0</course>
  <speed>0.0</speed>
  <fix>3d</fix>
</trkpt>
<trkpt lat="33.810313" lon="-118.393867">
  <ele>0.0</ele>
  <time>2026-09-02T22:09:49Z</time>
  <course>182.49</course>
  <speed>0.0</speed>
  <fix>3d</fix>
</trkpt>
<trkpt lat="33.810313" lon="-118.393867">
  <ele>-0.12</ele>
  <time>2026-09-02T22:09:49Z</time>
  <course>0.0</course>
  <speed>0.0</speed>
  <fix>3d</fix>
</trkpt>
<trkpt lat="33.810313" lon="-118.393867">
  <ele>0.0</ele>
  <time>2026-09-02T22:09:49Z</time>
  <course>182.77</course>
  <speed>0.0</speed>
  <fix>3d</fix>
</trkpt>
<trkpt lat="33.810313" lon="-118.393867">
  <ele>-0.11</ele>
  <time>2026-09-02T22:09:49Z</time>
  <course>0.0</course>
  <speed>0.0</speed>
  <fix>3d</fix>
</trkpt>
<trkpt lat="33.810313" lon="-118.393867">
  <ele>0.0</ele>
  <time>2026-09-02T22:09:49Z</time>
  <course>183.04</course>
  <speed>0.0</speed>
  <fix>3d</fix>
</trkpt>
<trkpt lat="33.810313" lon="-118.393867">
  <ele>-0.11</ele>
  <time>2026-09-02T22:09:49Z</time>
  <course>0.0</course>
  <speed>0.0</speed>
  <fix>3d</fix>
</trkpt>
<trkpt lat="33.810313" lon="-118.393867">
  <ele>0.0</ele>
  <time>2026-09-02T22:09:49Z</time>
  <course>183.3</course>
  <speed>0.0</speed>
  <fix>3d</fix>
</trkpt>
<trkpt lat="33.810313" lon="-118.393867">
  <ele>-0.11</ele>
  <time>2026-09-02T22:09:49Z</time>
  <course>0.0</course>
  <speed>0.0</speed>
  <fix>3d</fix>
</trkpt>
<trkpt lat="33.810313" lon="-118.393867">
  <ele>0.0</ele>
  <time>2026-09-02T22:09:49Z</time>
  <course>183.54</course>
  <speed>0.0</speed>
  <fix>3d</fix>
</trkpt>
<trkpt lat="33.810313" lon="-118.393867">
  <ele>-0.11</ele>
  <time>2026-09-02T22:09:49Z</time>
  <course>0.0</course>
  <speed>0.0</speed>
  <fix>3d</fix>
</trkpt>
<trkpt lat="33.810313" lon="-118.393867">
  <ele>0.0</ele>
  <time>2026-09-02T22:09:49Z</time>
  <course>183.78</course>
  <speed>0.0</speed>
  <fix>3d</fix>
</trkpt>
<trkpt lat="33.810313" lon="-118.393867">
  <ele>-0.12</ele>
  <time>2026-09-02T22:09:49Z</time>
  <course>0.0</course>
  <speed>0.0</speed>
  <fix>3d</fix>
</trkpt>
<trkpt lat="33.810313" lon="-118.393867">
  <ele>0.0</ele>
  <time>2026-09-02T22:09:49Z</time>
  <course>184.0</course>
  <speed>0.0</speed>
  <fix>3d</fix>
</trkpt>
<trkpt lat="33.810313" lon="-118.393867">
  <ele>-0.12</ele>
  <time>2026-09-02T22:09:49Z</time>
  <course>0.0</course>
  <speed>0.0</speed>
  <fix>3d</fix>
</trkpt>
<trkpt lat="33.810313" lon="-118.393867">
  <ele>0.0</ele>
  <time>2026-09-02T22:09:49Z</time>
  <course>184.22</course>
  <speed>0.0</speed>
  <fix>3d</fix>
</trkpt>
<trkpt lat="33.810313" lon="-118.393867">
  <ele>-0.13</ele>
  <time>2026-09-02T22:09:49Z</time>
  <course>0.0</course>
  <speed>0.0</speed>
  <fix>3d</fix>
</trkpt>
<trkpt lat="33.810313" lon="-118.393867">
  <ele>0.0</ele>
  <time>2026-09-02T22:09:49Z</time>
  <course>184.43</course>
  <speed>0.0</speed>
  <fix>3d</fix>
</trkpt>
<trkpt lat="33.810313" lon="-118.393867">
  <ele>-0.13</ele>
  <time>2026-09-02T22:09:49Z</time>
  <course>0.0</course>
  <speed>0.0</speed>
  <fix>3d</fix>
</trkpt>
<trkpt lat="33.810313" lon="-118.393867">
  <ele>0.0</ele>
  <time>2026-09-02T22:09:49Z</time>
  <course>184.63</course>
  <speed>0.0</speed>
  <fix>3d</fix>
</trkpt>
<trkpt lat="33.810313" lon="-118.393867">
  <ele>-0.13</ele>
  <time>2026-09-02T22:09:49Z</time>
  <course>0.0</course>
  <speed>0.0</speed>
  <fix>3d</fix>
</trkpt>
<trkpt lat="33.810313" lon="-118.393867">
  <ele>0.0</ele>
  <time>2026-09-02T22:09:49Z</time>
  <course>184.82</course>
  <speed>0.0</speed>
  <fix>3d</fix>
</trkpt>
<trkpt lat="33.810313" lon="-118.393867">
  <ele>-0.13</ele>
  <time>2026-09-02T22:09:49Z</time>
  <course>0.0</course>
  <speed>0.0</speed>
  <fix>3d</fix>
</trkpt>
<trkpt lat="33.810313" lon="-118.393867">
  <ele>0.0</ele>
  <time>2026-09-02T22:09:49Z</time>
  <course>185.0</course>
  <speed>0.0</speed>
  <fix>3d</fix>
</trkpt>
<trkpt lat="33.810313" lon="-118.393867">
  <ele>-0.14</ele>
  <time>2026-09-02T22:09:49Z</time>
  <course>0.0</course>
  <speed>0.0</speed>
  <fix>3d</fix>
</trkpt>
<trkpt lat="33.810313" lon="-118.393867">
  <ele>0.0</ele>
  <time>2026-09-02T22:09:49Z</time>
  <course>185.18</course>
  <speed>0.0</speed>
  <fix>3d</fix>
</trkpt>
<trkpt lat="33.810313" lon="-118.393867">
  <ele>-0.14</ele>
  <time>2026-09-02T22:09:49Z</time>
  <course>0.0</course>
  <speed>0.0</speed>
  <fix>3d</fix>
</trkpt>
<trkpt lat="33.810313" lon="-118.393867">
  <ele>0.0</ele>
  <time>2026-09-02T22:09:49Z</time>
  <course>185.35</course>
  <speed>0.0</speed>
  <fix>3d</fix>
</trkpt>
<trkpt lat="33.810313" lon="-118.393867">
  <ele>-0.13</ele>
  <time>2026-09-02T22:09:49Z</time>
  <course>0.0</course>
  <speed>0.0</speed>
  <fix>3d</fix>
</trkpt>
<trkpt lat="33.810313" lon="-118.393867">
  <ele>0.0</ele>
  <time>2026-09-02T22:09:49Z</time>
  <course>185.51</course>
  <speed>0.0</speed>
  <fix>3d</fix>
</trkpt>
<trkpt lat="33.810313" lon="-118.393867">
  <ele>-0.13</ele>
  <time>2026-09-02T22:09:49Z</time>
  <course>0.0</course>
  <speed>0.0</speed>
  <fix>3d</fix>
</trkpt>
<trkpt lat="33.810313" lon="-118.393867">
  <ele>0.0</ele>
  <time>2026-09-02T22:09:49Z</time>
  <course>185.66</course>
  <speed>0.0</speed>
  <fix>3d</fix>
</trkpt>
<trkpt lat="33.810313" lon="-118.393867">
  <ele>-0.13</ele>
  <time>2026-09-02T22:09:49Z</time>
  <course>0.0</course>
  <speed>0.0</speed>
  <fix>3d</fix>
</trkpt>
<trkpt lat="33.810313" lon="-118.393867">
  <ele>0.0</ele>
  <time>2026-09-02T22:09:49Z</time>
  <course>185.81</course>
  <speed>0.0</speed>
  <fix>3d</fix>
</trkpt>
<trkpt lat="33.810313" lon="-118.393867">
  <ele>-0.13</ele>
  <time>2026-09-02T22:09:49Z</time>
  <course>0.0</course>
  <speed>0.0</speed>
  <fix>3d</fix>
</trkpt>
<trkpt lat="33.810313" lon="-118.393867">
  <ele>0.0</ele>
  <time>2026-09-02T22:09:49Z</time>
  <course>185.95</course>
  <speed>0.0</speed>
  <fix>3d</fix>
</trkpt>
<trkpt lat="33.810313" lon="-118.393867">
  <ele>-0.12</ele>
  <time>2026-09-02T22:09:49Z</time>
  <course>0.0</course>
  <speed>0.0</speed>
  <fix>3d</fix>
</trkpt>
<trkpt lat="33.810313" lon="-118.393867">
  <ele>0.0</ele>
  <time>2026-09-02T22:09:49Z</time>
  <course>186.09</course>
  <speed>0.0</speed>
  <fix>3d</fix>
</trkpt>
<trkpt lat="33.810313" lon="-118.393867">
  <ele>-0.12</ele>
  <time>2026-09-02T22:09:49Z</time>
  <course>0.0</course>
  <speed>0.0</speed>
  <fix>3d</fix>
</trkpt>
<trkpt lat="33.810313" lon="-118.393867">
  <ele>0.0</ele>
  <time>2026-09-02T22:09:49Z</time>
  <course>186.22</course>
  <speed>0.0</speed>
  <fix>3d</fix>
</trkpt>
<trkpt lat="33.810313" lon="-118.393867">
  <ele>-0.12</ele>
  <time>2026-09-02T22:09:49Z</time>
  <course>0.0</course>
  <speed>0.0</speed>
  <fix>3d</fix>
</trkpt>
<trkpt lat="33.810313" lon="-118.393867">
  <ele>0.0</ele>
  <time>2026-09-02T22:09:49Z</time>
  <course>186.34</course>
  <speed>0.0</speed>
  <fix>3d</fix>
</trkpt>
<trkpt lat="33.810313" lon="-118.393867">
  <ele>-0.12</ele>
  <time>2026-09-02T22:09:49Z</time>
  <course>0.0</course>
  <speed>0.0</speed>
  <fix>3d</fix>
</trkpt>
<trkpt lat="33.810313" lon="-118.393867">
  <ele>0.0</ele>
  <time>2026-09-02T22:09:49Z</time>
  <course>186.46</course>
  <speed>0.0</speed>
  <fix>3d</fix>
</trkpt>
<trkpt lat="33.810313" lon="-118.393867">
  <ele>-0.12</ele>
  <time>2026-09-02T22:09:49Z</time>
  <course>0.0</course>
  <speed>0.0</speed>
  <fix>3d</fix>
</trkpt>
<trkpt lat="33.810313" lon="-118.393867">
  <ele>0.0</ele>
  <time>2026-09-02T22:09:49Z</time>
  <course>186.57</course>
  <speed>0.0</speed>
  <fix>3d</fix>
</trkpt>
<trkpt lat="33.810313" lon="-118.393867">
  <ele>-0.12</ele>
  <time>2026-09-02T22:09:49Z</time>
  <course>0.0</course>
  <speed>0.0</speed>
  <fix>3d</fix>
</trkpt>
<trkpt lat="33.810313" lon="-118.393867">
  <ele>0.0</ele>
  <time>2026-09-02T22:09:49Z</time>
  <course>186.68</course>
  <speed>0.0</speed>
  <fix>3d</fix>
</trkpt>
<trkpt lat="33.810313" lon="-118.393867">
  <ele>-0.12</ele>
  <time>2026-09-02T22:09:49Z</time>
  <course>0.0</course>
  <speed>0.0</speed>
  <fix>3d</fix>
</trkpt>
<trkpt lat="33.810313" lon="-118.393867">
  <ele>0.0</ele>
  <time>2026-09-02T22:09:49Z</time>
  <course>186.78</course>
  <speed>0.0</speed>
  <fix>3d</fix>
</trkpt>
<trkpt lat="33.810313" lon="-118.393867">
  <ele>-0.12</ele>
  <time>2026-09-02T22:09:49Z</time>
  <course>0.0</course>
  <speed>0.0</speed>
  <fix>3d</fix>
</trkpt>
<trkpt lat="33.810313" lon="-118.393867">
  <ele>0.0</ele>
  <time>2026-09-02T22:09:49Z</time>
  <course>186.88</course>
  <speed>0.0</speed>
  <fix>3d</fix>
</trkpt>
<trkpt lat="33.810313" lon="-118.393867">
  <ele>-0.12</ele>
  <time>2026-09-02T22:09:49Z</time>
  <course>0.0</course>
  <speed>0.0</speed>
  <fix>3d</fix>
</trkpt>
<trkpt lat="33.810313" lon="-118.393867">
  <ele>0.0</ele>
  <time>2026-09-02T22:09:49Z</time>
  <course>186.97</course>
  <speed>0.0</speed>
  <fix>3d</fix>
</trkpt>
<trkpt lat="33.810313" lon="-118.393867">
  <ele>-0.12</ele>
  <time>2026-09-02T22:09:49Z</time>
  <course>0.0</course>
  <speed>0.0</speed>
  <fix>3d</fix>
</trkpt>
<trkpt lat="33.810313" lon="-118.393867">
  <ele>0.0</ele>
  <time>2026-09-02T22:09:49Z</time>
  <course>187.06</course>
  <speed>0.0</speed>
  <fix>3d</fix>
</trkpt>
<trkpt lat="33.810313" lon="-118.393867">
  <ele>-0.13</ele>
  <time>2026-09-02T22:09:49Z</time>
  <course>0.0</course>
  <speed>0.0</speed>
  <fix>3d</fix>
</trkpt>
<trkpt lat="33.810313" lon="-118.393867">
  <ele>0.0</ele>
  <time>2026-09-02T22:09:49Z</time>
  <course>187.14</course>
  <speed>0.0</speed>
  <fix>3d</fix>
</trkpt>
<trkpt lat="33.810313" lon="-118.393867">
  <ele>-0.13</ele>
  <time>2026-09-02T22:09:49Z</time>
  <course>0.0</course>
  <speed>0.0</speed>
  <fix>3d</fix>
</trkpt>
<trkpt lat="33.810313" lon="-118.393867">
  <ele>0.0</ele>
  <time>2026-09-02T22:09:49Z</time>
  <course>187.22</course>
  <speed>0.0</speed>
  <fix>3d</fix>
</trkpt>
<trkpt lat="33.810313" lon="-118.393867">
  <ele>-0.13</ele>
  <time>2026-09-02T22:09:49Z</time>
  <course>0.0</course>
  <speed>0.0</speed>
  <fix>3d</fix>
</trkpt>
<trkpt lat="33.810313" lon="-118.393867">
  <ele>0.0</ele>
  <time>2026-09-02T22:09:49Z</time>
  <course>187.3</course>
  <speed>0.0</speed>
  <fix>3d</fix>
</trkpt>
<trkpt lat="33.810313" lon="-118.393867">
  <ele>-0.13</ele>
  <time>2026-09-02T22:09:49Z</time>
  <course>0.0</course>
  <speed>0.0</speed>
  <fix>3d</fix>
</trkpt>
<trkpt lat="33.810313" lon="-118.393867">
  <ele>0.0</ele>
  <time>2026-09-02T22:09:49Z</time>
  <course>187.37</course>
  <speed>0.0</speed>
  <fix>3d</fix>
</trkpt>
<trkpt lat="33.810313" lon="-118.393867">
  <ele>-0.13</ele>
  <time>2026-09-02T22:09:49Z</time>
  <course>0.0</course>
  <speed>0.0</speed>
  <fix>3d</fix>
</trkpt>
<trkpt lat="33.810313" lon="-118.393867">
  <ele>0.0</ele>
  <time>2026-09-02T22:09:49Z</time>
  <course>187.44</course>
  <speed>0.0</speed>
  <fix>3d</fix>
</trkpt>
<trkpt lat="33.810313" lon="-118.393867">
  <ele>-0.13</ele>
  <time>2026-09-02T22:09:49Z</time>
  <course>0.0</course>
  <speed>0.0</speed>
  <fix>3d</fix>
</trkpt>
<trkpt lat="33.810313" lon="-118.393867">
  <ele>0.0</ele>
  <time>2026-09-02T22:09:49Z</time>
  <course>187.51</course>
  <speed>0.0</speed>
  <fix>3d</fix>
</trkpt>
<trkpt lat="33.810313" lon="-118.393867">
  <ele>-0.13</ele>
  <time>2026-09-02T22:09:49Z</time>
  <course>0.0</course>
  <speed>0.0</speed>
  <fix>3d</fix>
</trkpt>
<trkpt lat="33.810313" lon="-118.393867">
  <ele>0.0</ele>
  <time>2026-09-02T22:09:49Z</time>
  <course>187.57</course>
  <speed>0.0</speed>
  <fix>3d</fix>
</trkpt>
<trkpt lat="33.810313" lon="-118.393867">
  <ele>-0.13</ele>
  <time>2026-09-02T22:09:49Z</time>
  <course>0.0</course>
  <speed>0.0</speed>
  <fix>3d</fix>
</trkpt>
<trkpt lat="33.810313" lon="-118.393867">
  <ele>0.0</ele>
  <time>2026-09-02T22:09:49Z</time>
  <course>187.63</course>
  <speed>0.0</speed>
  <fix>3d</fix>
</trkpt>
<trkpt lat="33.810313" lon="-118.393867">
  <ele>-0.12</ele>
  <time>2026-09-02T22:09:49Z</time>
  <course>0.0</course>
  <speed>0.0</speed>
  <fix>3d</fix>
</trkpt>
<trkpt lat="33.810313" lon="-118.393867">
  <ele>0.0</ele>
  <time>2026-09-02T22:09:49Z</time>
  <course>187.69</course>
  <speed>0.0</speed>
  <fix>3d</fix>
</trkpt>
<trkpt lat="33.810313" lon="-118.393867">
  <ele>-0.12</ele>
  <time>2026-09-02T22:09:49Z</time>
  <course>0.0</course>
  <speed>0.0</speed>
  <fix>3d</fix>
</trkpt>
<trkpt lat="33.810313" lon="-118.393867">
  <ele>0.0</ele>
  <time>2026-09-02T22:09:49Z</time>
  <course>187.74</course>
  <speed>0.0</speed>
  <fix>3d</fix>
</trkpt>
<trkpt lat="33.810313" lon="-118.393867">
  <ele>-0.12</ele>
  <time>2026-09-02T22:09:49Z</time>
  <course>0.0</course>
  <speed>0.0</speed>
  <fix>3d</fix>
</trkpt>
<trkpt lat="33.810313" lon="-118.393867">
  <ele>0.0</ele>
  <time>2026-09-02T22:09:49Z</time>
  <course>187.79</course>
  <speed>0.0</speed>
  <fix>3d</fix>
</trkpt>
<trkpt lat="33.810313" lon="-118.393867">
  <ele>-0.12</ele>
  <time>2026-09-02T22:09:49Z</time>
  <course>0.0</course>
  <speed>0.0</speed>
  <fix>3d</fix>
</trkpt>
<trkpt lat="33.810313" lon="-118.393867">
  <ele>0.0</ele>
  <time>2026-09-02T22:09:49Z</time>
  <course>187.84</course>
  <speed>0.0</speed>
  <fix>3d</fix>
</trkpt>
<trkpt lat="33.810313" lon="-118.393867">
  <ele>-0.12</ele>
  <time>2026-09-02T22:09:49Z</time>
  <course>0.0</course>
  <speed>0.0</speed>
  <fix>3d</fix>
</trkpt>
<trkpt lat="33.810313" lon="-118.393867">
  <ele>0.0</ele>
  <time>2026-09-02T22:09:49Z</time>
  <course>187.89</course>
  <speed>0.0</speed>
  <fix>3d</fix>
</trkpt>
<trkpt lat="33.810313" lon="-118.393867">
  <ele>-0.12</ele>
  <time>2026-09-02T22:09:49Z</time>
  <course>0.0</course>
  <speed>0.0</speed>
  <fix>3d</fix>
</trkpt>
<trkpt lat="33.810313" lon="-118.393867">
  <ele>0.0</ele>
  <time>2026-09-02T22:09:49Z</time>
  <course>187.93</course>
  <speed>0.0</speed>
  <fix>3d</fix>
</trkpt>
<trkpt lat="33.810313" lon="-118.393867">
  <ele>-0.12</ele>
  <time>2026-09-02T22:09:49Z</time>
  <course>0.0</course>
  <speed>0.0</speed>
  <fix>3d</fix>
</trkpt>
<trkpt lat="33.810313" lon="-118.393867">
  <ele>0.0</ele>
  <time>2026-09-02T22:09:49Z</time>
  <course>187.98</course>
  <speed>0.0</speed>
  <fix>3d</fix>
</trkpt>
<trkpt lat="33.810313" lon="-118.393867">
  <ele>-0.12</ele>
  <time>2026-09-02T22:09:49Z</time>
  <course>0.0</course>
  <speed>0.0</speed>
  <fix>3d</fix>
</trkpt>
<trkpt lat="33.810313" lon="-118.393867">
  <ele>0.0</ele>
  <time>2026-09-02T22:09:49Z</time>
  <course>188.02</course>
  <speed>0.0</speed>
  <fix>3d</fix>
</trkpt>
<trkpt lat="33.810313" lon="-118.393867">
  <ele>-0.12</ele>
  <time>2026-09-02T22:09:49Z</time>
  <course>0.0</course>
  <speed>0.0</speed>
  <fix>3d</fix>
</trkpt>
<trkpt lat="33.810313" lon="-118.393867">
  <ele>0.0</ele>
  <time>2026-09-02T22:09:49Z</time>
  <course>188.05</course>
  <speed>0.0</speed>
  <fix>3d</fix>
</trkpt>
<trkpt lat="33.810313" lon="-118.393867">
  <ele>-0.12</ele>
  <time>2026-09-02T22:09:49Z</time>
  <course>0.0</course>
  <speed>0.0</speed>
  <fix>3d</fix>
</trkpt>
<trkpt lat="33.810313" lon="-118.393867">
  <ele>0.0</ele>
  <time>2026-09-02T22:09:49Z</time>
  <course>188.09</course>
  <speed>0.0</speed>
  <fix>3d</fix>
</trkpt>
<trkpt lat="33.810313" lon="-118.393867">
  <ele>-0.13</ele>
  <time>2026-09-02T22:09:49Z</time>
  <course>0.0</course>
  <speed>0.0</speed>
  <fix>3d</fix>
</trkpt>
<trkpt lat="33.810313" lon="-118.393867">
  <ele>0.0</ele>
  <time>2026-09-02T22:09:49Z</time>
  <course>188.12</course>
  <speed>0.0</speed>
  <fix>3d</fix>
</trkpt>
<trkpt lat="33.810313" lon="-118.393867">
  <ele>-0.13</ele>
  <time>2026-09-02T22:09:49Z</time>
  <course>0.0</course>
  <speed>0.0</speed>
  <fix>3d</fix>
</trkpt>
<trkpt lat="33.810313" lon="-118.393867">
  <ele>0.0</ele>
  <time>2026-09-02T22:09:49Z</time>
  <course>188.16</course>
  <speed>0.0</speed>
  <fix>3d</fix>
</trkpt>
<trkpt lat="33.810313" lon="-118.393867">
  <ele>-0.13</ele>
  <time>2026-09-02T22:09:49Z</time>
  <course>0.0</course>
  <speed>0.0</speed>
  <fix>3d</fix>
</trkpt>
<trkpt lat="33.810313" lon="-118.393867">
  <ele>0.0</ele>
  <time>2026-09-02T22:09:49Z</time>
  <course>188.18</course>
  <speed>0.0</speed>
  <fix>3d</fix>
</trkpt>
<trkpt lat="33.810313" lon="-118.393867">
  <ele>-0.13</ele>
  <time>2026-09-02T22:09:49Z</time>
  <course>0.0</course>
  <speed>0.0</speed>
  <fix>3d</fix>
</trkpt>
<trkpt lat="33.810313" lon="-118.393867">
  <ele>0.0</ele>
  <time>2026-09-02T22:09:49Z</time>
  <course>188.21</course>
  <speed>0.0</speed>
  <fix>3d</fix>
</trkpt>
<trkpt lat="33.810313" lon="-118.393867">
  <ele>-0.13</ele>
  <time>2026-09-02T22:09:49Z</time>
  <course>0.0</course>
  <speed>0.0</speed>
  <fix>3d</fix>
</trkpt>
<trkpt lat="33.810313" lon="-118.393867">
  <ele>0.0</ele>
  <time>2026-09-02T22:09:49Z</time>
  <course>188.24</course>
  <speed>0.0</speed>
  <fix>3d</fix>
</trkpt>
<trkpt lat="33.810313" lon="-118.393867">
  <ele>-0.13</ele>
  <time>2026-09-02T22:09:49Z</time>
  <course>0.0</course>
  <speed>0.0</speed>
  <fix>3d</fix>
</trkpt>
<trkpt lat="33.810313" lon="-118.393867">
  <ele>0.0</ele>
  <time>2026-09-02T22:09:49Z</time>
  <course>188.26</course>
  <speed>0.0</speed>
  <fix>3d</fix>
</trkpt>
<trkpt lat="33.810313" lon="-118.393867">
  <ele>-0.12</ele>
  <time>2026-09-02T22:09:49Z</time>
  <course>0.0</course>
  <speed>0.0</speed>
  <fix>3d</fix>
</trkpt>
<trkpt lat="33.810313" lon="-118.393867">
  <ele>0.0</ele>
  <time>2026-09-02T22:09:49Z</time>
  <course>188.29</course>
  <speed>0.0</speed>
  <fix>3d</fix>
</trkpt>
<trkpt lat="33.810313" lon="-118.393867">
  <ele>-0.12</ele>
  <time>2026-09-02T22:09:49Z</time>
  <course>0.0</course>
  <speed>0.0</speed>
  <fix>3d</fix>
</trkpt>
<trkpt lat="33.810313" lon="-118.393867">
  <ele>0.0</ele>
  <time>2026-09-02T22:09:49Z</time>
  <course>188.31</course>
  <speed>0.0</speed>
  <fix>3d</fix>
</trkpt>
<trkpt lat="33.810313" lon="-118.393867">
  <ele>-0.12</ele>
  <time>2026-09-02T22:09:49Z</time>
  <course>0.0</course>
  <speed>0.0</speed>
  <fix>3d</fix>
</trkpt>
<trkpt lat="33.810313" lon="-118.393867">
  <ele>0.0</ele>
  <time>2026-09-02T22:09:49Z</time>
  <course>188.33</course>
  <speed>0.0</speed>
  <fix>3d</fix>
</trkpt>
<trkpt lat="33.810313" lon="-118.393867">
  <ele>-0.12</ele>
  <time>2026-09-02T22:09:49Z</time>
  <course>0.0</course>
  <speed>0.0</speed>
  <fix>3d</fix>
</trkpt>
<trkpt lat="33.810313" lon="-118.393867">
  <ele>0.0</ele>
  <time>2026-09-02T22:09:49Z</time>
  <course>188.35</course>
  <speed>0.0</speed>
  <fix>3d</fix>
</trkpt>
<trkpt lat="33.810313" lon="-118.393867">
  <ele>-0.12</ele>
  <time>2026-09-02T22:09:49Z</time>
  <course>0.0</course>
  <speed>0.0</speed>
  <fix>3d</fix>
</trkpt>
<trkpt lat="33.810313" lon="-118.393867">
  <ele>0.0</ele>
  <time>2026-09-02T22:09:49Z</time>
  <course>188.37</course>
  <speed>0.0</speed>
  <fix>3d</fix>
</trkpt>
<trkpt lat="33.810313" lon="-118.393867">
  <ele>-0.12</ele>
  <time>2026-09-02T22:09:49Z</time>
  <course>0.0</course>
  <speed>0.0</speed>
  <fix>3d</fix>
</trkpt>
<trkpt lat="33.810313" lon="-118.393867">
  <ele>0.0</ele>
  <time>2026-09-02T22:09:49Z</time>
  <course>188.39</course>
  <speed>0.0</speed>
  <fix>3d</fix>
</trkpt>
<trkpt lat="33.810313" lon="-118.393867">
  <ele>-0.12</ele>
  <time>2026-09-02T22:09:49Z</time>
  <course>0.0</course>
  <speed>0.0</speed>
  <fix>3d</fix>
</trkpt>
<trkpt lat="33.810313" lon="-118.393867">
  <ele>0.0</ele>
  <time>2026-09-02T22:09:49Z</time>
  <course>188.41</course>
  <speed>0.0</speed>
  <fix>3d</fix>
</trkpt>
<trkpt lat="33.810313" lon="-118.393867">
  <ele>-0.12</ele>
  <time>2026-09-02T22:09:49Z</time>
  <course>0.0</course>
  <speed>0.0</speed>
  <fix>3d</fix>
</trkpt>
<trkpt lat="33.810313" lon="-118.393867">
  <ele>0.0</ele>
  <time>2026-09-02T22:09:49Z</time>
  <course>188.43</course>
  <speed>0.0</speed>
  <fix>3d</fix>
</trkpt>
<trkpt lat="33.810313" lon="-118.393867">
  <ele>-0.12</ele>
  <time>2026-09-02T22:09:49Z</time>
  <course>0.0</course>
  <speed>0.0</speed>
  <fix>3d</fix>
</trkpt>
<trkpt lat="33.810313" lon="-118.393867">
  <ele>0.0</ele>
  <time>2026-09-02T22:09:49Z</time>
  <course>188.45</course>
  <speed>0.0</speed>
  <fix>3d</fix>
</trkpt>
<trkpt lat="33.810313" lon="-118.393867">
  <ele>-0.12</ele>
  <time>2026-09-02T22:09:49Z</time>
  <course>0.0</course>
  <speed>0.0</speed>
  <fix>3d</fix>
</trkpt>
<trkpt lat="33.810313" lon="-118.393867">
  <ele>0.0</ele>
  <time>2026-09-02T22:09:49Z</time>
  <course>188.46</course>
  <speed>0.0</speed>
  <fix>3d</fix>
</trkpt>
<trkpt lat="33.810313" lon="-118.393867">
  <ele>-0.13</ele>
  <time>2026-09-02T22:09:49Z</time>
  <course>0.0</course>
  <speed>0.0</speed>
  <fix>3d</fix>
</trkpt>
<trkpt lat="33.810313" lon="-118.393867">
  <ele>0.0</ele>
  <time>2026-09-02T22:09:49Z</time>
  <course>188.47</course>
  <speed>0.0</speed>
  <fix>3d</fix>
</trkpt>
<trkpt lat="33.810313" lon="-118.393867">
  <ele>-0.13</ele>
  <time>2026-09-02T22:09:49Z</time>
  <course>0.0</course>
  <speed>0.0</speed>
  <fix>3d</fix>
</trkpt>
<trkpt lat="33.810313" lon="-118.393867">
  <ele>0.0</ele>
  <time>2026-09-02T22:09:49Z</time>
  <course>188.48</course>
  <speed>0.0</speed>
  <fix>3d</fix>
</trkpt>
<trkpt lat="33.810313" lon="-118.393867">
  <ele>-0.13</ele>
  <time>2026-09-02T22:09:49Z</time>
  <course>0.0</course>
  <speed>0.0</speed>
  <fix>3d</fix>
</trkpt>
<trkpt lat="33.810313" lon="-118.393867">
  <ele>0.0</ele>
  <time>2026-09-02T22:09:49Z</time>
  <course>188.49</course>
  <speed>0.0</speed>
  <fix>3d</fix>
</trkpt>
<trkpt lat="33.810313" lon="-118.393867">
  <ele>-0.13</ele>
  <time>2026-09-02T22:09:49Z</time>
  <course>0.0</course>
  <speed>0.0</speed>
  <fix>3d</fix>
</trkpt>
<trkpt lat="33.810313" lon="-118.393867">
  <ele>0.0</ele>
  <time>2026-09-02T22:09:49Z</time>
  <course>188.5</course>
  <speed>0.0</speed>
  <fix>3d</fix>
</trkpt>
<trkpt lat="33.810313" lon="-118.393867">
  <ele>-0.13</ele>
  <time>2026-09-02T22:09:49Z</time>
  <course>0.0</course>
  <speed>0.0</speed>
  <fix>3d</fix>
</trkpt>
<trkpt lat="33.810313" lon="-118.393867">
  <ele>0.0</ele>
  <time>2026-09-02T22:09:49Z</time>
  <course>188.51</course>
  <speed>0.0</speed>
  <fix>3d</fix>
</trkpt>
<trkpt lat="33.810313" lon="-118.393867">
  <ele>-0.13</ele>
  <time>2026-09-02T22:09:49Z</time>
  <course>0.0</course>
  <speed>0.0</speed>
  <fix>3d</fix>
</trkpt>
<trkpt lat="33.810313" lon="-118.393867">
  <ele>0.0</ele>
  <time>2026-09-02T22:09:49Z</time>
  <course>188.52</course>
  <speed>0.0</speed>
  <fix>3d</fix>
</trkpt>
<trkpt lat="33.810313" lon="-118.393867">
  <ele>-0.12</ele>
  <time>2026-09-02T22:09:49Z</time>
  <course>0.0</course>
  <speed>0.0</speed>
  <fix>3d</fix>
</trkpt>
<trkpt lat="33.810313" lon="-118.393867">
  <ele>0.0</ele>
  <time>2026-09-02T22:09:49Z</time>
  <course>188.53</course>
  <speed>0.0</speed>
  <fix>3d</fix>
</trkpt>
<trkpt lat="33.810313" lon="-118.393867">
  <ele>-0.12</ele>
  <time>2026-09-02T22:09:49Z</time>
  <course>0.0</course>
  <speed>0.0</speed>
  <fix>3d</fix>
</trkpt>
<trkpt lat="33.810313" lon="-118.393867">
  <ele>0.0</ele>
  <time>2026-09-02T22:09:49Z</time>
  <course>188.53</course>
  <speed>0.0</speed>
  <fix>3d</fix>
</trkpt>
<trkpt lat="33.810313" lon="-118.393867">
  <ele>-0.12</ele>
  <time>2026-09-02T22:09:49Z</time>
  <course>0.0</course>
  <speed>0.0</speed>
  <fix>3d</fix>
</trkpt>
<trkpt lat="33.810313" lon="-118.393867">
  <ele>0.0</ele>
  <time>2026-09-02T22:09:49Z</time>
  <course>188.54</course>
  <speed>0.0</speed>
  <fix>3d</fix>
</trkpt>
<trkpt lat="33.810313" lon="-118.393867">
  <ele>-0.12</ele>
  <time>2026-09-02T22:09:49Z</time>
  <course>0.0</course>
  <speed>0.0</speed>
  <fix>3d</fix>
</trkpt>
<trkpt lat="33.810313" lon="-118.393867">
  <ele>0.0</ele>
  <time>2026-09-02T22:09:49Z</time>
  <course>188.54</course>
  <speed>0.0</speed>
  <fix>3d</fix>
</trkpt>
<trkpt lat="33.810313" lon="-118.393867">
  <ele>-0.12</ele>
  <time>2026-09-02T22:09:49Z</time>
  <course>0.0</course>
  <speed>0.0</speed>
  <fix>3d</fix>
</trkpt>
<trkpt lat="33.810313" lon="-118.393867">
  <ele>0.0</ele>
  <time>2026-09-02T22:09:49Z</time>
  <course>188.55</course>
  <speed>0.0</speed>
  <fix>3d</fix>
</trkpt>
<trkpt lat="33.810313" lon="-118.393867">
  <ele>-0.12</ele>
  <time>2026-09-02T22:09:49Z</time>
  <course>0.0</course>
  <speed>0.0</speed>
  <fix>3d</fix>
</trkpt>
<trkpt lat="33.810313" lon="-118.393867">
  <ele>0.0</ele>
  <time>2026-09-02T22:09:49Z</time>
  <course>188.55</course>
  <speed>0.0</speed>
  <fix>3d</fix>
</trkpt>
<trkpt lat="33.810313" lon="-118.393867">
  <ele>-0.12</ele>
  <time>2026-09-02T22:09:49Z</time>
  <course>0.0</course>
  <speed>0.0</speed>
  <fix>3d</fix>
</trkpt>
<trkpt lat="33.810313" lon="-118.393867">
  <ele>0.0</ele>
  <time>2026-09-02T22:09:49Z</time>
  <course>188.55</course>
  <speed>0.0</speed>
  <fix>3d</fix>
</trkpt>
<trkpt lat="33.810313" lon="-118.393867">
  <ele>-0.12</ele>
  <time>2026-09-02T22:09:49Z</time>
  <course>0.0</course>
  <speed>0.0</speed>
  <fix>3d</fix>
</trkpt>
<trkpt lat="33.810313" lon="-118.393867">
  <ele>0.0</ele>
  <time>2026-09-02T22:09:49Z</time>
  <course>188.56</course>
  <speed>0.0</speed>
  <fix>3d</fix>
</trkpt>
<trkpt lat="33.810313" lon="-118.393867">
  <ele>-0.12</ele>
  <time>2026-09-02T22:09:49Z</time>
  <course>0.0</course>
  <speed>0.0</speed>
  <fix>3d</fix>
</trkpt>
<trkpt lat="33.810313" lon="-118.393867">
  <ele>0.0</ele>
  <time>2026-09-02T22:09:49Z</time>
  <course>188.56</course>
  <speed>0.0</speed>
  <fix>3d</fix>
</trkpt>
<trkpt lat="33.810313" lon="-118.393867">
  <ele>-0.12</ele>
  <time>2026-09-02T22:09:49Z</time>
  <course>0.0</course>
  <speed>0.0</speed>
  <fix>3d</fix>
</trkpt>
<trkpt lat="33.810313" lon="-118.393867">
  <ele>0.0</ele>
  <time>2026-09-02T22:09:50Z</time>
  <course>188.56</course>
  <speed>0.0</speed>
  <fix>3d</fix>
</trkpt>
<trkpt lat="33.810313" lon="-118.393867">
  <ele>-0.13</ele>
  <time>2026-09-02T22:09:50Z</time>
  <course>0.0</course>
  <speed>0.0</speed>
  <fix>3d</fix>
</trkpt>
<trkpt lat="33.810313" lon="-118.393867">
  <ele>0.0</ele>
  <time>2026-09-02T22:09:50Z</time>
  <course>188.56</course>
  <speed>0.0</speed>
  <fix>3d</fix>
</trkpt>
<trkpt lat="33.810313" lon="-118.393867">
  <ele>-0.13</ele>
  <time>2026-09-02T22:09:50Z</time>
  <course>0.0</course>
  <speed>0.0</speed>
  <fix>3d</fix>
</trkpt>
<trkpt lat="33.810313" lon="-118.393867">
  <ele>-0.123</ele>
  <time>2026-09-02T22:09:50Z</time>
  <course>188.56</course>
  <speed>0.0</speed>
  <fix>3d</fix>
</trkpt>
<trkpt lat="33.810313" lon="-118.393867">
  <ele>-0.13</ele>
  <time>2026-09-02T22:09:50Z</time>
  <course>0.0</course>
  <speed>0.0</speed>
  <fix>3d</fix>
</trkpt>
<trkpt lat="33.810313" lon="-118.393867">
  <ele>-0.121</ele>
  <time>2026-09-02T22:09:50Z</time>
  <course>188.56</course>
  <speed>0.0</speed>
  <fix>3d</fix>
</trkpt>
<trkpt lat="33.810313" lon="-118.393867">
  <ele>-0.13</ele>
  <time>2026-09-02T22:09:50Z</time>
  <course>0.0</course>
  <speed>0.0</speed>
  <fix>3d</fix>
</trkpt>
<trkpt lat="33.810313" lon="-118.393867">
  <ele>-0.118</ele>
  <time>2026-09-02T22:09:50Z</time>
  <course>188.56</course>
  <speed>0.0</speed>
  <fix>3d</fix>
</trkpt>
<trkpt lat="33.810313" lon="-118.393867">
  <ele>-0.12</ele>
  <time>2026-09-02T22:09:50Z</time>
  <course>0.0</course>
  <speed>0.0</speed>
  <fix>3d</fix>
</trkpt>
<trkpt lat="33.810313" lon="-118.393867">
  <ele>-0.115</ele>
  <time>2026-09-02T22:09:50Z</time>
  <course>188.56</course>
  <speed>0.0</speed>
  <fix>3d</fix>
</trkpt>
<trkpt lat="33.810313" lon="-118.393867">
  <ele>-0.12</ele>
  <time>2026-09-02T22:09:50Z</time>
  <course>0.0</course>
  <speed>0.0</speed>
  <fix>3d</fix>
</trkpt>
<trkpt lat="33.810313" lon="-118.393867">
  <ele>-0.113</ele>
  <time>2026-09-02T22:09:50Z</time>
  <course>188.56</course>
  <speed>0.0</speed>
  <fix>3d</fix>
</trkpt>
<trkpt lat="33.810313" lon="-118.393867">
  <ele>-0.12</ele>
  <time>2026-09-02T22:09:50Z</time>
  <course>0.0</course>
  <speed>0.0</speed>
  <fix>3d</fix>
</trkpt>
<trkpt lat="33.810313" lon="-118.393867">
  <ele>-0.113</ele>
  <time>2026-09-02T22:09:50Z</time>
  <course>188.56</course>
  <speed>0.0</speed>
  <fix>3d</fix>
</trkpt>
<trkpt lat="33.810313" lon="-118.393867">
  <ele>-0.12</ele>
  <time>2026-09-02T22:09:50Z</time>
  <course>0.0</course>
  <speed>0.0</speed>
  <fix>3d</fix>
</trkpt>
<trkpt lat="33.810313" lon="-118.393867">
  <ele>-0.114</ele>
  <time>2026-09-02T22:09:50Z</time>
  <course>188.56</course>
  <speed>0.0</speed>
  <fix>3d</fix>
</trkpt>
<trkpt lat="33.810313" lon="-118.393867">
  <ele>-0.12</ele>
  <time>2026-09-02T22:09:50Z</time>
  <course>0.0</course>
  <speed>0.0</speed>
  <fix>3d</fix>
</trkpt>
<trkpt lat="33.810313" lon="-118.393867">
  <ele>-0.117</ele>
  <time>2026-09-02T22:09:50Z</time>
  <course>188.56</course>
  <speed>0.0</speed>
  <fix>3d</fix>
</trkpt>
<trkpt lat="33.810313" lon="-118.393867">
  <ele>-0.12</ele>
  <time>2026-09-02T22:09:50Z</time>
  <course>0.0</course>
  <speed>0.0</speed>
  <fix>3d</fix>
</trkpt>
<trkpt lat="33.810313" lon="-118.393867">
  <ele>-0.12</ele>
  <time>2026-09-02T22:09:50Z</time>
  <course>188.56</course>
  <speed>0.0</speed>
  <fix>3d</fix>
</trkpt>
<trkpt lat="33.810313" lon="-118.393867">
  <ele>-0.12</ele>
  <time>2026-09-02T22:09:50Z</time>
  <course>0.0</course>
  <speed>0.0</speed>
  <fix>3d</fix>
</trkpt>
<trkpt lat="33.810313" lon="-118.393867">
  <ele>-0.123</ele>
  <time>2026-09-02T22:09:50Z</time>
  <course>188.55</course>
  <speed>0.0</speed>
  <fix>3d</fix>
</trkpt>
<trkpt lat="33.810313" lon="-118.393867">
  <ele>-0.12</ele>
  <time>2026-09-02T22:09:50Z</time>
  <course>0.0</course>
  <speed>0.0</speed>
  <fix>3d</fix>
</trkpt>
<trkpt lat="33.810313" lon="-118.393867">
  <ele>-0.125</ele>
  <time>2026-09-02T22:09:50Z</time>
  <course>188.55</course>
  <speed>0.0</speed>
  <fix>3d</fix>
</trkpt>
<trkpt lat="33.810313" lon="-118.393867">
  <ele>-0.12</ele>
  <time>2026-09-02T22:09:50Z</time>
  <course>0.0</course>
  <speed>0.0</speed>
  <fix>3d</fix>
</trkpt>
<trkpt lat="33.810313" lon="-118.393867">
  <ele>-0.125</ele>
  <time>2026-09-02T22:09:50Z</time>
  <course>188.55</course>
  <speed>0.0</speed>
  <fix>3d</fix>
</trkpt>
<trkpt lat="33.810313" lon="-118.393867">
  <ele>-0.12</ele>
  <time>2026-09-02T22:09:50Z</time>
  <course>0.0</course>
  <speed>0.0</speed>
  <fix>3d</fix>
</trkpt>
<trkpt lat="33.810313" lon="-118.393867">
  <ele>-0.125</ele>
  <time>2026-09-02T22:09:50Z</time>
  <course>188.54</course>
  <speed>0.0</speed>
  <fix>3d</fix>
</trkpt>
<trkpt lat="33.810313" lon="-118.393867">
  <ele>-0.12</ele>
  <time>2026-09-02T22:09:50Z</time>
  <course>0.0</course>
  <speed>0.0</speed>
  <fix>3d</fix>
</trkpt>
<trkpt lat="33.810313" lon="-118.393867">
  <ele>-0.125</ele>
  <time>2026-09-02T22:09:50Z</time>
  <course>188.54</course>
  <speed>0.0</speed>
  <fix>3d</fix>
</trkpt>
<trkpt lat="33.810313" lon="-118.393867">
  <ele>-0.12</ele>
  <time>2026-09-02T22:09:50Z</time>
  <course>0.0</course>
  <speed>0.0</speed>
  <fix>3d</fix>
</trkpt>
<trkpt lat="33.810313" lon="-118.393867">
  <ele>-0.125</ele>
  <time>2026-09-02T22:09:50Z</time>
  <course>188.54</course>
  <speed>0.0</speed>
  <fix>3d</fix>
</trkpt>
<trkpt lat="33.810313" lon="-118.393867">
  <ele>-0.13</ele>
  <time>2026-09-02T22:09:50Z</time>
  <course>0.0</course>
  <speed>0.0</speed>
  <fix>3d</fix>
</trkpt>
<trkpt lat="33.810313" lon="-118.393867">
  <ele>-0.124</ele>
  <time>2026-09-02T22:09:50Z</time>
  <course>188.53</course>
  <speed>0.0</speed>
  <fix>3d</fix>
</trkpt>
<trkpt lat="33.810313" lon="-118.393867">
  <ele>-0.13</ele>
  <time>2026-09-02T22:09:50Z</time>
  <course>0.0</course>
  <speed>0.0</speed>
  <fix>3d</fix>
</trkpt>
<trkpt lat="33.810313" lon="-118.393867">
  <ele>-0.122</ele>
  <time>2026-09-02T22:09:50Z</time>
  <course>188.53</course>
  <speed>0.0</speed>
  <fix>3d</fix>
</trkpt>
<trkpt lat="33.810313" lon="-118.393867">
  <ele>-0.12</ele>
  <time>2026-09-02T22:09:50Z</time>
  <course>0.0</course>
  <speed>0.0</speed>
  <fix>3d</fix>
</trkpt>
<trkpt lat="33.810313" lon="-118.393867">
  <ele>-0.118</ele>
  <time>2026-09-02T22:09:50Z</time>
  <course>188.52</course>
  <speed>0.0</speed>
  <fix>3d</fix>
</trkpt>
<trkpt lat="33.810313" lon="-118.393867">
  <ele>-0.12</ele>
  <time>2026-09-02T22:09:50Z</time>
  <course>0.0</course>
  <speed>0.0</speed>
  <fix>3d</fix>
</trkpt>
<trkpt lat="33.810313" lon="-118.393867">
  <ele>-0.116</ele>
  <time>2026-09-02T22:09:50Z</time>
  <course>188.52</course>
  <speed>0.0</speed>
  <fix>3d</fix>
</trkpt>
<trkpt lat="33.810313" lon="-118.393867">
  <ele>-0.12</ele>
  <time>2026-09-02T22:09:50Z</time>
  <course>0.0</course>
  <speed>0.0</speed>
  <fix>3d</fix>
</trkpt>
<trkpt lat="33.810313" lon="-118.393867">
  <ele>-0.115</ele>
  <time>2026-09-02T22:09:50Z</time>
  <course>188.51</course>
  <speed>0.0</speed>
  <fix>3d</fix>
</trkpt>
<trkpt lat="33.810313" lon="-118.393867">
  <ele>-0.12</ele>
  <time>2026-09-02T22:09:50Z</time>
  <course>0.0</course>
  <speed>0.0</speed>
  <fix>3d</fix>
</trkpt>
<trkpt lat="33.810313" lon="-118.393867">
  <ele>-0.116</ele>
  <time>2026-09-02T22:09:50Z</time>
  <course>188.51</course>
  <speed>0.0</speed>
  <fix>3d</fix>
</trkpt>
<trkpt lat="33.810313" lon="-118.393867">
  <ele>-0.12</ele>
  <time>2026-09-02T22:09:50Z</time>
  <course>0.0</course>
  <speed>0.0</speed>
  <fix>3d</fix>
</trkpt>
<trkpt lat="33.810313" lon="-118.393867">
  <ele>-0.118</ele>
  <time>2026-09-02T22:09:50Z</time>
  <course>188.5</course>
  <speed>0.0</speed>
  <fix>3d</fix>
</trkpt>
<trkpt lat="33.810313" lon="-118.393867">
  <ele>-0.12</ele>
  <time>2026-09-02T22:09:50Z</time>
  <course>0.0</course>
  <speed>0.0</speed>
  <fix>3d</fix>
</trkpt>
<trkpt lat="33.810313" lon="-118.393867">
  <ele>-0.12</ele>
  <time>2026-09-02T22:09:50Z</time>
  <course>188.5</course>
  <speed>0.0</speed>
  <fix>3d</fix>
</trkpt>
<trkpt lat="33.810313" lon="-118.393867">
  <ele>-0.12</ele>
  <time>2026-09-02T22:09:50Z</time>
  <course>0.0</course>
  <speed>0.0</speed>
  <fix>3d</fix>
</trkpt>
<trkpt lat="33.810313" lon="-118.393867">
  <ele>-0.122</ele>
  <time>2026-09-02T22:09:50Z</time>
  <course>188.49</course>
  <speed>0.0</speed>
  <fix>3d</fix>
</trkpt>
<trkpt lat="33.810313" lon="-118.393867">
  <ele>-0.12</ele>
  <time>2026-09-02T22:09:50Z</time>
  <course>0.0</course>
  <speed>0.0</speed>
  <fix>3d</fix>
</trkpt>
<trkpt lat="33.810313" lon="-118.393867">
  <ele>-0.123</ele>
  <time>2026-09-02T22:09:50Z</time>
  <course>188.49</course>
  <speed>0.0</speed>
  <fix>3d</fix>
</trkpt>
<trkpt lat="33.810313" lon="-118.393867">
  <ele>-0.12</ele>
  <time>2026-09-02T22:09:50Z</time>
  <course>0.0</course>
  <speed>0.0</speed>
  <fix>3d</fix>
</trkpt>
<trkpt lat="33.810313" lon="-118.393867">
  <ele>-0.124</ele>
  <time>2026-09-02T22:09:50Z</time>
  <course>188.48</course>
  <speed>0.01</speed>
  <fix>3d</fix>
</trkpt>
<trkpt lat="33.810313" lon="-118.393867">
  <ele>-0.12</ele>
  <time>2026-09-02T22:09:50Z</time>
  <course>0.0</course>
  <speed>0.0</speed>
  <fix>3d</fix>
</trkpt>
<trkpt lat="33.810313" lon="-118.393867">
  <ele>-0.124</ele>
  <time>2026-09-02T22:09:50Z</time>
  <course>188.48</course>
  <speed>0.01</speed>
  <fix>3d</fix>
</trkpt>
<trkpt lat="33.810313" lon="-118.393867">
  <ele>-0.12</ele>
  <time>2026-09-02T22:09:50Z</time>
  <course>0.0</course>
  <speed>0.0</speed>
  <fix>3d</fix>
</trkpt>
<trkpt lat="33.810313" lon="-118.393867">
  <ele>-0.125</ele>
  <time>2026-09-02T22:09:50Z</time>
  <course>188.47</course>
  <speed>0.01</speed>
  <fix>3d</fix>
</trkpt>
<trkpt lat="33.810313" lon="-118.393867">
  <ele>-0.12</ele>
  <time>2026-09-02T22:09:50Z</time>
  <course>0.0</course>
  <speed>0.0</speed>
  <fix>3d</fix>
</trkpt>
<trkpt lat="33.810313" lon="-118.393867">
  <ele>-0.125</ele>
  <time>2026-09-02T22:09:50Z</time>
  <course>188.46</course>
  <speed>0.01</speed>
  <fix>3d</fix>
</trkpt>
<trkpt lat="33.810313" lon="-118.393867">
  <ele>-0.12</ele>
  <time>2026-09-02T22:09:50Z</time>
  <course>0.0</course>
  <speed>0.0</speed>
  <fix>3d</fix>
</trkpt>
<trkpt lat="33.810313" lon="-118.393867">
  <ele>-0.124</ele>
  <time>2026-09-02T22:09:50Z</time>
  <course>188.46</course>
  <speed>0.01</speed>
  <fix>3d</fix>
</trkpt>
<trkpt lat="33.810313" lon="-118.393867">
  <ele>-0.12</ele>
  <time>2026-09-02T22:09:50Z</time>
  <course>0.0</course>
  <speed>0.0</speed>
  <fix>3d</fix>
</trkpt>
<trkpt lat="33.810313" lon="-118.393867">
  <ele>-0.122</ele>
  <time>2026-09-02T22:09:50Z</time>
  <course>188.45</course>
  <speed>0.01</speed>
  <fix>3d</fix>
</trkpt>
<trkpt lat="33.810313" lon="-118.393867">
  <ele>-0.12</ele>
  <time>2026-09-02T22:09:50Z</time>
  <course>0.0</course>
  <speed>0.0</speed>
  <fix>3d</fix>
</trkpt>
<trkpt lat="33.810313" lon="-118.393867">
  <ele>-0.12</ele>
  <time>2026-09-02T22:09:51Z</time>
  <course>188.44</course>
  <speed>0.01</speed>
  <fix>3d</fix>
</trkpt>
<trkpt lat="33.810313" lon="-118.393867">
  <ele>-0.12</ele>
  <time>2026-09-02T22:09:51Z</time>
  <course>0.0</course>
  <speed>0.0</speed>
  <fix>3d</fix>
</trkpt>
<trkpt lat="33.810313" lon="-118.393867">
  <ele>-0.118</ele>
  <time>2026-09-02T22:09:51Z</time>
  <course>188.44</course>
  <speed>0.01</speed>
  <fix>3d</fix>
</trkpt>
<trkpt lat="33.810313" lon="-118.393867">
  <ele>-0.12</ele>
  <time>2026-09-02T22:09:51Z</time>
  <course>0.0</course>
  <speed>0.0</speed>
  <fix>3d</fix>
</trkpt>
<trkpt lat="33.810313" lon="-118.393867">
  <ele>-0.118</ele>
  <time>2026-09-02T22:09:51Z</time>
  <course>188.44</course>
  <speed>0.01</speed>
  <fix>3d</fix>
</trkpt>
<trkpt lat="33.810313" lon="-118.393867">
  <ele>-0.12</ele>
  <time>2026-09-02T22:09:51Z</time>
  <course>0.0</course>
  <speed>0.0</speed>
  <fix>3d</fix>
</trkpt>
<trkpt lat="33.810313" lon="-118.393867">
  <ele>-0.119</ele>
  <time>2026-09-02T22:09:51Z</time>
  <course>188.43</course>
  <speed>0.01</speed>
  <fix>3d</fix>
</trkpt>
<trkpt lat="33.810313" lon="-118.393867">
  <ele>-0.12</ele>
  <time>2026-09-02T22:09:51Z</time>
  <course>0.0</course>
  <speed>0.0</speed>
  <fix>3d</fix>
</trkpt>
<trkpt lat="33.810313" lon="-118.393867">
  <ele>-0.12</ele>
  <time>2026-09-02T22:09:51Z</time>
  <course>188.43</course>
  <speed>0.01</speed>
  <fix>3d</fix>
</trkpt>
<trkpt lat="33.810313" lon="-118.393867">
  <ele>-0.12</ele>
  <time>2026-09-02T22:09:51Z</time>
  <course>0.0</course>
  <speed>0.0</speed>
  <fix>3d</fix>
</trkpt>
<trkpt lat="33.810313" lon="-118.393867">
  <ele>-0.122</ele>
  <time>2026-09-02T22:09:52Z</time>
  <course>188.42</course>
  <speed>0.01</speed>
  <fix>3d</fix>
</trkpt>
<trkpt lat="33.810313" lon="-118.393867">
  <ele>-0.12</ele>
  <time>2026-09-02T22:09:52Z</time>
  <course>0.0</course>
  <speed>0.0</speed>
  <fix>3d</fix>
</trkpt>
<trkpt lat="33.810313" lon="-118.393867">
  <ele>-0.123</ele>
  <time>2026-09-02T22:09:52Z</time>
  <course>188.41</course>
  <speed>0.01</speed>
  <fix>3d</fix>
</trkpt>
<trkpt lat="33.810313" lon="-118.393867">
  <ele>-0.12</ele>
  <time>2026-09-02T22:09:52Z</time>
  <course>0.0</course>
  <speed>0.0</speed>
  <fix>3d</fix>
</trkpt>
<trkpt lat="33.810313" lon="-118.393867">
  <ele>-0.122</ele>
  <time>2026-09-02T22:09:52Z</time>
  <course>188.4</course>
  <speed>0.01414213562373095</speed>
  <fix>3d</fix>
</trkpt>
<trkpt lat="33.810313" lon="-118.393867">
  <ele>-0.12</ele>
  <time>2026-09-02T22:09:52Z</time>
  <course>0.0</course>
  <speed>0.0</speed>
  <fix>3d</fix>
</trkpt>
<trkpt lat="33.810313" lon="-118.393867">
  <ele>-0.119</ele>
  <time>2026-09-02T22:09:52Z</time>
  <course>188.4</course>
  <speed>0.01414213562373095</speed>
  <fix>3d</fix>
</trkpt>
<trkpt lat="33.810313" lon="-118.393867">
  <ele>-0.12</ele>
  <time>2026-09-02T22:09:52Z</time>
  <course>0.0</course>
  <speed>0.0</speed>
  <fix>3d</fix>
</trkpt>
<trkpt lat="33.810313" lon="-118.393867">
  <ele>-0.117</ele>
  <time>2026-09-02T22:09:52Z</time>
  <course>188.39</course>
  <speed>0.01414213562373095</speed>
  <fix>3d</fix>
</trkpt>
<trkpt lat="33.810313" lon="-118.393867">
  <ele>-0.12</ele>
  <time>2026-09-02T22:09:52Z</time>
  <course>0.0</course>
  <speed>0.0</speed>
  <fix>3d</fix>
</trkpt>
<trkpt lat="33.810313" lon="-118.393867">
  <ele>-0.115</ele>
  <time>2026-09-02T22:09:52Z</time>
  <course>188.38</course>
  <speed>0.01414213562373095</speed>
  <fix>3d</fix>
</trkpt>
<trkpt lat="33.810313" lon="-118.393867">
  <ele>-0.12</ele>
  <time>2026-09-02T22:09:52Z</time>
  <course>0.0</course>
  <speed>0.0</speed>
  <fix>3d</fix>
</trkpt>
<trkpt lat="33.810313" lon="-118.393867">
  <ele>-0.111</ele>
  <time>2026-09-02T22:09:52Z</time>
  <course>188.37</course>
  <speed>0.01414213562373095</speed>
  <fix>3d</fix>
</trkpt>
<trkpt lat="33.810313" lon="-118.393867">
  <ele>-0.12</ele>
  <time>2026-09-02T22:09:52Z</time>
  <course>0.0</course>
  <speed>0.0</speed>
  <fix>3d</fix>
</trkpt>
<trkpt lat="33.810313" lon="-118.393867">
  <ele>-0.106</ele>
  <time>2026-09-02T22:09:52Z</time>
  <course>188.37</course>
  <speed>0.01414213562373095</speed>
  <fix>3d</fix>
</trkpt>
<trkpt lat="33.810313" lon="-118.393867">
  <ele>-0.12</ele>
  <time>2026-09-02T22:09:52Z</time>
  <course>0.0</course>
  <speed>0.0</speed>
  <fix>3d</fix>
</trkpt>
<trkpt lat="33.810313" lon="-118.393867">
  <ele>-0.103</ele>
  <time>2026-09-02T22:09:52Z</time>
  <course>188.36</course>
  <speed>0.01414213562373095</speed>
  <fix>3d</fix>
</trkpt>
<trkpt lat="33.810313" lon="-118.393867">
  <ele>-0.12</ele>
  <time>2026-09-02T22:09:52Z</time>
  <course>0.0</course>
  <speed>0.0</speed>
  <fix>3d</fix>
</trkpt>
<trkpt lat="33.810313" lon="-118.393867">
  <ele>-0.103</ele>
  <time>2026-09-02T22:09:52Z</time>
  <course>188.35</course>
  <speed>0.01414213562373095</speed>
  <fix>3d</fix>
</trkpt>
<trkpt lat="33.810313" lon="-118.393867">
  <ele>-0.12</ele>
  <time>2026-09-02T22:09:52Z</time>
  <course>0.0</course>
  <speed>0.0</speed>
  <fix>3d</fix>
</trkpt>
<trkpt lat="33.810313" lon="-118.393867">
  <ele>-0.103</ele>
  <time>2026-09-02T22:09:53Z</time>
  <course>188.34</course>
  <speed>0.01414213562373095</speed>
  <fix>3d</fix>
</trkpt>
<trkpt lat="33.810313" lon="-118.393867">
  <ele>-0.12</ele>
  <time>2026-09-02T22:09:53Z</time>
  <course>0.0</course>
  <speed>0.0</speed>
  <fix>3d</fix>
</trkpt>
<trkpt lat="33.810313" lon="-118.393867">
  <ele>-0.106</ele>
  <time>2026-09-02T22:09:53Z</time>
  <course>188.33</course>
  <speed>0.01414213562373095</speed>
  <fix>3d</fix>
</trkpt>
<trkpt lat="33.810313" lon="-118.393867">
  <ele>-0.12</ele>
  <time>2026-09-02T22:09:53Z</time>
  <course>0.0</course>
  <speed>0.0</speed>
  <fix>3d</fix>
</trkpt>
<trkpt lat="33.810313" lon="-118.393867">
  <ele>-0.11</ele>
  <time>2026-09-02T22:09:53Z</time>
  <course>188.33</course>
  <speed>0.01414213562373095</speed>
  <fix>3d</fix>
</trkpt>
<trkpt lat="33.810313" lon="-118.393867">
  <ele>-0.12</ele>
  <time>2026-09-02T22:09:53Z</time>
  <course>0.0</course>
  <speed>0.0</speed>
  <fix>3d</fix>
</trkpt>
<trkpt lat="33.810313" lon="-118.393867">
  <ele>-0.112</ele>
  <time>2026-09-02T22:09:53Z</time>
  <course>188.32</course>
  <speed>0.01414213562373095</speed>
  <fix>3d</fix>
</trkpt>
<trkpt lat="33.810313" lon="-118.393867">
  <ele>-0.12</ele>
  <time>2026-09-02T22:09:53Z</time>
  <course>0.0</course>
  <speed>0.0</speed>
  <fix>3d</fix>
</trkpt>
<trkpt lat="33.810313" lon="-118.393867">
  <ele>-0.113</ele>
  <time>2026-09-02T22:09:53Z</time>
  <course>188.31</course>
  <speed>0.01414213562373095</speed>
  <fix>3d</fix>
</trkpt>
<trkpt lat="33.810313" lon="-118.393867">
  <ele>-0.12</ele>
  <time>2026-09-02T22:09:53Z</time>
  <course>0.0</course>
  <speed>0.0</speed>
  <fix>3d</fix>
</trkpt>
<trkpt lat="33.810313" lon="-118.393867">
  <ele>-0.113</ele>
  <time>2026-09-02T22:09:53Z</time>
  <course>188.3</course>
  <speed>0.01414213562373095</speed>
  <fix>3d</fix>
</trkpt>
<trkpt lat="33.810313" lon="-118.393867">
  <ele>-0.12</ele>
  <time>2026-09-02T22:09:53Z</time>
  <course>0.0</course>
  <speed>0.0</speed>
  <fix>3d</fix>
</trkpt>
<trkpt lat="33.810313" lon="-118.393867">
  <ele>-0.112</ele>
  <time>2026-09-02T22:09:53Z</time>
  <course>188.29</course>
  <speed>0.01414213562373095</speed>
  <fix>3d</fix>
</trkpt>
<trkpt lat="33.810313" lon="-118.393867">
  <ele>-0.12</ele>
  <time>2026-09-02T22:09:53Z</time>
  <course>0.0</course>
  <speed>0.0</speed>
  <fix>3d</fix>
</trkpt>
<trkpt lat="33.810313" lon="-118.393867">
  <ele>-0.111</ele>
  <time>2026-09-02T22:09:53Z</time>
  <course>188.28</course>
  <speed>0.01414213562373095</speed>
  <fix>3d</fix>
</trkpt>
<trkpt lat="33.810313" lon="-118.393867">
  <ele>-0.12</ele>
  <time>2026-09-02T22:09:53Z</time>
  <course>0.0</course>
  <speed>0.0</speed>
  <fix>3d</fix>
</trkpt>
<trkpt lat="33.810313" lon="-118.393867">
  <ele>-0.111</ele>
  <time>2026-09-02T22:09:53Z</time>
  <course>188.28</course>
  <speed>0.01414213562373095</speed>
  <fix>3d</fix>
</trkpt>
<trkpt lat="33.810313" lon="-118.393867">
  <ele>-0.12</ele>
  <time>2026-09-02T22:09:53Z</time>
  <course>0.0</course>
  <speed>0.0</speed>
  <fix>3d</fix>
</trkpt>
<trkpt lat="33.810313" lon="-118.393867">
  <ele>-0.111</ele>
  <time>2026-09-02T22:09:53Z</time>
  <course>188.27</course>
  <speed>0.01414213562373095</speed>
  <fix>3d</fix>
</trkpt>
<trkpt lat="33.810313" lon="-118.393867">
  <ele>-0.12</ele>
  <time>2026-09-02T22:09:53Z</time>
  <course>0.0</course>
  <speed>0.0</speed>
  <fix>3d</fix>
</trkpt>
<trkpt lat="33.810313" lon="-118.393867">
  <ele>-0.111</ele>
  <time>2026-09-02T22:09:53Z</time>
  <course>188.26</course>
  <speed>0.01414213562373095</speed>
  <fix>3d</fix>
</trkpt>
<trkpt lat="33.810313" lon="-118.393867">
  <ele>-0.12</ele>
  <time>2026-09-02T22:09:53Z</time>
  <course>0.0</course>
  <speed>0.0</speed>
  <fix>3d</fix>
</trkpt>
<trkpt lat="33.810313" lon="-118.393867">
  <ele>-0.112</ele>
  <time>2026-09-02T22:09:54Z</time>
  <course>188.25</course>
  <speed>0.01414213562373095</speed>
  <fix>3d</fix>
</trkpt>
<trkpt lat="33.810313" lon="-118.393867">
  <ele>-0.12</ele>
  <time>2026-09-02T22:09:54Z</time>
  <course>0.0</course>
  <speed>0.0</speed>
  <fix>3d</fix>
</trkpt>
<trkpt lat="33.810313" lon="-118.393867">
  <ele>-0.114</ele>
  <time>2026-09-02T22:09:54Z</time>
  <course>188.24</course>
  <speed>0.01414213562373095</speed>
  <fix>3d</fix>
</trkpt>
<trkpt lat="33.810313" lon="-118.393867">
  <ele>-0.12</ele>
  <time>2026-09-02T22:09:54Z</time>
  <course>0.0</course>
  <speed>0.0</speed>
  <fix>3d</fix>
</trkpt>
<trkpt lat="33.810313" lon="-118.393867">
  <ele>-0.116</ele>
  <time>2026-09-02T22:09:54Z</time>
  <course>188.24</course>
  <speed>0.01414213562373095</speed>
  <fix>3d</fix>
</trkpt>
<trkpt lat="33.810313" lon="-118.393867">
  <ele>-0.12</ele>
  <time>2026-09-02T22:09:54Z</time>
  <course>0.0</course>
  <speed>0.0</speed>
  <fix>3d</fix>
</trkpt>
<trkpt lat="33.810313" lon="-118.393867">
  <ele>-0.12</ele>
  <time>2026-09-02T22:09:54Z</time>
  <course>188.23</course>
  <speed>0.01414213562373095</speed>
  <fix>3d</fix>
</trkpt>
<trkpt lat="33.810313" lon="-118.393867">
  <ele>-0.12</ele>
  <time>2026-09-02T22:09:54Z</time>
  <course>0.0</course>
  <speed>0.0</speed>
  <fix>3d</fix>
</trkpt>
<trkpt lat="33.810313" lon="-118.393867">
  <ele>-0.122</ele>
  <time>2026-09-02T22:09:54Z</time>
  <course>188.22</course>
  <speed>0.01414213562373095</speed>
  <fix>3d</fix>
</trkpt>
<trkpt lat="33.810313" lon="-118.393867">
  <ele>-0.12</ele>
  <time>2026-09-02T22:09:54Z</time>
  <course>0.0</course>
  <speed>0.0</speed>
  <fix>3d</fix>
</trkpt>
<trkpt lat="33.810313" lon="-118.393867">
  <ele>-0.123</ele>
  <time>2026-09-02T22:09:54Z</time>
  <course>188.21</course>
  <speed>0.01414213562373095</speed>
  <fix>3d</fix>
</trkpt>
<trkpt lat="33.810313" lon="-118.393867">
  <ele>-0.12</ele>
  <time>2026-09-02T22:09:54Z</time>
  <course>0.0</course>
  <speed>0.0</speed>
  <fix>3d</fix>
</trkpt>
<trkpt lat="33.810313" lon="-118.393867">
  <ele>-0.123</ele>
  <time>2026-09-02T22:09:54Z</time>
  <course>188.2</course>
  <speed>0.01414213562373095</speed>
  <fix>3d</fix>
</trkpt>
<trkpt lat="33.810313" lon="-118.393867">
  <ele>-0.12</ele>
  <time>2026-09-02T22:09:54Z</time>
  <course>0.0</course>
  <speed>0.0</speed>
  <fix>3d</fix>
</trkpt>
<trkpt lat="33.810313" lon="-118.393867">
  <ele>-0.124</ele>
  <time>2026-09-02T22:09:54Z</time>
  <course>188.19</course>
  <speed>0.01414213562373095</speed>
  <fix>3d</fix>
</trkpt>
<trkpt lat="33.810313" lon="-118.393867">
  <ele>-0.12</ele>
  <time>2026-09-02T22:09:54Z</time>
  <course>0.0</course>
  <speed>0.0</speed>
  <fix>3d</fix>
</trkpt>
<trkpt lat="33.810313" lon="-118.393867">
  <ele>-0.123</ele>
  <time>2026-09-02T22:09:54Z</time>
  <course>188.19</course>
  <speed>0.01414213562373095</speed>
  <fix>3d</fix>
</trkpt>
<trkpt lat="33.810313" lon="-118.393867">
  <ele>-0.12</ele>
  <time>2026-09-02T22:09:54Z</time>
  <course>0.0</course>
  <speed>0.0</speed>
  <fix>3d</fix>
</trkpt>
<trkpt lat="33.810313" lon="-118.393867">
  <ele>-0.121</ele>
  <time>2026-09-02T22:09:54Z</time>
  <course>188.18</course>
  <speed>0.01414213562373095</speed>
  <fix>3d</fix>
</trkpt>
<trkpt lat="33.810313" lon="-118.393867">
  <ele>-0.12</ele>
  <time>2026-09-02T22:09:54Z</time>
  <course>0.0</course>
  <speed>0.0</speed>
  <fix>3d</fix>
</trkpt>
<trkpt lat="33.810313" lon="-118.393867">
  <ele>-0.118</ele>
  <time>2026-09-02T22:09:55Z</time>
  <course>188.17</course>
  <speed>0.01414213562373095</speed>
  <fix>3d</fix>
</trkpt>
<trkpt lat="33.810313" lon="-118.393867">
  <ele>-0.12</ele>
  <time>2026-09-02T22:09:55Z</time>
  <course>0.0</course>
  <speed>0.0</speed>
  <fix>3d</fix>
</trkpt>
<trkpt lat="33.810313" lon="-118.393867">
  <ele>-0.115</ele>
  <time>2026-09-02T22:09:55Z</time>
  <course>188.16</course>
  <speed>0.01414213562373095</speed>
  <fix>3d</fix>
</trkpt>
<trkpt lat="33.810313" lon="-118.393867">
  <ele>-0.12</ele>
  <time>2026-09-02T22:09:55Z</time>
  <course>0.0</course>
  <speed>0.0</speed>
  <fix>3d</fix>
</trkpt>
<trkpt lat="33.810313" lon="-118.393867">
  <ele>-0.114</ele>
  <time>2026-09-02T22:09:55Z</time>
  <course>188.15</course>
  <speed>0.01414213562373095</speed>
  <fix>3d</fix>
</trkpt>
<trkpt lat="33.810313" lon="-118.393867">
  <ele>-0.12</ele>
  <time>2026-09-02T22:09:55Z</time>
  <course>0.0</course>
  <speed>0.0</speed>
  <fix>3d</fix>
</trkpt>
<trkpt lat="33.810313" lon="-118.393867">
  <ele>-0.114</ele>
  <time>2026-09-02T22:09:55Z</time>
  <course>188.14</course>
  <speed>0.01414213562373095</speed>
  <fix>3d</fix>
</trkpt>
<trkpt lat="33.810313" lon="-118.393867">
  <ele>-0.12</ele>
  <time>2026-09-02T22:09:55Z</time>
  <course>0.0</course>
  <speed>0.0</speed>
  <fix>3d</fix>
</trkpt>
<trkpt lat="33.810313" lon="-118.393867">
  <ele>-0.115</ele>
  <time>2026-09-02T22:09:55Z</time>
  <course>188.14</course>
  <speed>0.01414213562373095</speed>
  <fix>3d</fix>
</trkpt>
<trkpt lat="33.810313" lon="-118.393867">
  <ele>-0.12</ele>
  <time>2026-09-02T22:09:55Z</time>
  <course>0.0</course>
  <speed>0.0</speed>
  <fix>3d</fix>
</trkpt>
<trkpt lat="33.810313" lon="-118.393867">
  <ele>-0.118</ele>
  <time>2026-09-02T22:09:55Z</time>
  <course>188.13</course>
  <speed>0.01414213562373095</speed>
  <fix>3d</fix>
</trkpt>
<trkpt lat="33.810313" lon="-118.393867">
  <ele>-0.12</ele>
  <time>2026-09-02T22:09:55Z</time>
  <course>0.0</course>
  <speed>0.0</speed>
  <fix>3d</fix>
</trkpt>
<trkpt lat="33.810313" lon="-118.393867">
  <ele>-0.12</ele>
  <time>2026-09-02T22:09:55Z</time>
  <course>188.12</course>
  <speed>0.01414213562373095</speed>
  <fix>3d</fix>
</trkpt>
<trkpt lat="33.810313" lon="-118.393867">
  <ele>-0.12</ele>
  <time>2026-09-02T22:09:55Z</time>
  <course>0.0</course>
  <speed>0.0</speed>
  <fix>3d</fix>
</trkpt>
<trkpt lat="33.810313" lon="-118.393867">
  <ele>-0.121</ele>
  <time>2026-09-02T22:09:55Z</time>
  <course>188.11</course>
  <speed>0.01414213562373095</speed>
  <fix>3d</fix>
</trkpt>
<trkpt lat="33.810313" lon="-118.393867">
  <ele>-0.12</ele>
  <time>2026-09-02T22:09:55Z</time>
  <course>0.0</course>
  <speed>0.0</speed>
  <fix>3d</fix>
</trkpt>
<trkpt lat="33.810313" lon="-118.393867">
  <ele>-0.12</ele>
  <time>2026-09-02T22:09:55Z</time>
  <course>188.1</course>
  <speed>0.01414213562373095</speed>
  <fix>3d</fix>
</trkpt>
<trkpt lat="33.810313" lon="-118.393867">
  <ele>-0.12</ele>
  <time>2026-09-02T22:09:55Z</time>
  <course>0.0</course>
  <speed>0.0</speed>
  <fix>3d</fix>
</trkpt>
<trkpt lat="33.810313" lon="-118.393867">
  <ele>-0.118</ele>
  <time>2026-09-02T22:09:55Z</time>
  <course>188.09</course>
  <speed>0.01414213562373095</speed>
  <fix>3d</fix>
</trkpt>
<trkpt lat="33.810313" lon="-118.393867">
  <ele>-0.12</ele>
  <time>2026-09-02T22:09:55Z</time>
  <course>0.0</course>
  <speed>0.0</speed>
  <fix>3d</fix>
</trkpt>
<trkpt lat="33.810313" lon="-118.393867">
  <ele>-0.115</ele>
  <time>2026-09-02T22:09:56Z</time>
  <course>188.08</course>
  <speed>0.01414213562373095</speed>
  <fix>3d</fix>
</trkpt>
<trkpt lat="33.810313" lon="-118.393867">
  <ele>-0.12</ele>
  <time>2026-09-02T22:09:56Z</time>
  <course>0.0</course>
  <speed>0.0</speed>
  <fix>3d</fix>
</trkpt>
<trkpt lat="33.810313" lon="-118.393867">
  <ele>-0.114</ele>
  <time>2026-09-02T22:09:56Z</time>
  <course>188.08</course>
  <speed>0.01414213562373095</speed>
  <fix>3d</fix>
</trkpt>
<trkpt lat="33.810313" lon="-118.393867">
  <ele>-0.12</ele>
  <time>2026-09-02T22:09:56Z</time>
  <course>0.0</course>
  <speed>0.0</speed>
  <fix>3d</fix>
</trkpt>
<trkpt lat="33.810313" lon="-118.393867">
  <ele>-0.112</ele>
  <time>2026-09-02T22:09:56Z</time>
  <course>188.07</course>
  <speed>0.01414213562373095</speed>
  <fix>3d</fix>
</trkpt>
<trkpt lat="33.810313" lon="-118.393867">
  <ele>-0.12</ele>
  <time>2026-09-02T22:09:56Z</time>
  <course>0.0</course>
  <speed>0.0</speed>
  <fix>3d</fix>
</trkpt>
<trkpt lat="33.810313" lon="-118.393867">
  <ele>-0.109</ele>
  <time>2026-09-02T22:09:56Z</time>
  <course>188.06</course>
  <speed>0.022360679774997897</speed>
  <fix>3d</fix>
</trkpt>
<trkpt lat="33.810313" lon="-118.393867">
  <ele>-0.12</ele>
  <time>2026-09-02T22:09:56Z</time>
  <course>0.0</course>
  <speed>0.0</speed>
  <fix>3d</fix>
</trkpt>
<trkpt lat="33.810313" lon="-118.393867">
  <ele>-0.109</ele>
  <time>2026-09-02T22:09:56Z</time>
  <course>188.05</course>
  <speed>0.022360679774997897</speed>
  <fix>3d</fix>
</trkpt>
<trkpt lat="33.810313" lon="-118.393867">
  <ele>-0.12</ele>
  <time>2026-09-02T22:09:56Z</time>
  <course>0.0</course>
  <speed>0.0</speed>
  <fix>3d</fix>
</trkpt>
<trkpt lat="33.810313" lon="-118.393867">
  <ele>-0.109</ele>
  <time>2026-09-02T22:09:56Z</time>
  <course>188.04</course>
  <speed>0.022360679774997897</speed>
  <fix>3d</fix>
</trkpt>
<trkpt lat="33.810313" lon="-118.393867">
  <ele>-0.12</ele>
  <time>2026-09-02T22:09:56Z</time>
  <course>0.0</course>
  <speed>0.0</speed>
  <fix>3d</fix>
</trkpt>
<trkpt lat="33.810313" lon="-118.393867">
  <ele>-0.109</ele>
  <time>2026-09-02T22:09:56Z</time>
  <course>188.04</course>
  <speed>0.022360679774997897</speed>
  <fix>3d</fix>
</trkpt>
<trkpt lat="33.810313" lon="-118.393867">
  <ele>-0.12</ele>
  <time>2026-09-02T22:09:56Z</time>
  <course>0.0</course>
  <speed>0.0</speed>
  <fix>3d</fix>
</trkpt>
<trkpt lat="33.810313" lon="-118.393867">
  <ele>-0.11</ele>
  <time>2026-09-02T22:09:56Z</time>
  <course>188.03</course>
  <speed>0.022360679774997897</speed>
  <fix>3d</fix>
</trkpt>
<trkpt lat="33.810313" lon="-118.393867">
  <ele>-0.12</ele>
  <time>2026-09-02T22:09:56Z</time>
  <course>0.0</course>
  <speed>0.0</speed>
  <fix>3d</fix>
</trkpt>
<trkpt lat="33.810313" lon="-118.393867">
  <ele>-0.11</ele>
  <time>2026-09-02T22:09:56Z</time>
  <course>188.02</course>
  <speed>0.022360679774997897</speed>
  <fix>3d</fix>
</trkpt>
<trkpt lat="33.810313" lon="-118.393867">
  <ele>-0.12</ele>
  <time>2026-09-02T22:09:56Z</time>
  <course>0.0</course>
  <speed>0.0</speed>
  <fix>3d</fix>
</trkpt>
<trkpt lat="33.810313" lon="-118.393867">
  <ele>-0.111</ele>
  <time>2026-09-02T22:09:56Z</time>
  <course>188.01</course>
  <speed>0.022360679774997897</speed>
  <fix>3d</fix>
</trkpt>
<trkpt lat="33.810313" lon="-118.393867">
  <ele>-0.12</ele>
  <time>2026-09-02T22:09:56Z</time>
  <course>0.0</course>
  <speed>0.0</speed>
  <fix>3d</fix>
</trkpt>
<trkpt lat="33.810313" lon="-118.393867">
  <ele>-0.111</ele>
  <time>2026-09-02T22:09:58Z</time>
  <course>188.0</course>
  <speed>0.022360679774997897</speed>
  <fix>3d</fix>
</trkpt>
<trkpt lat="33.810313" lon="-118.393867">
  <ele>-0.12</ele>
  <time>2026-09-02T22:09:58Z</time>
  <course>0.0</course>
  <speed>0.0</speed>
  <fix>3d</fix>
</trkpt>
<trkpt lat="33.810313" lon="-118.393867">
  <ele>-0.111</ele>
  <time>2026-09-02T22:09:58Z</time>
  <course>187.99</course>
  <speed>0.022360679774997897</speed>
  <fix>3d</fix>
</trkpt>
<trkpt lat="33.810313" lon="-118.393867">
  <ele>-0.12</ele>
  <time>2026-09-02T22:09:58Z</time>
  <course>0.0</course>
  <speed>0.0</speed>
  <fix>3d</fix>
</trkpt>
<trkpt lat="33.810313" lon="-118.393867">
  <ele>-0.109</ele>
  <time>2026-09-02T22:09:58Z</time>
  <course>187.99</course>
  <speed>0.022360679774997897</speed>
  <fix>3d</fix>
</trkpt>
<trkpt lat="33.810313" lon="-118.393867">
  <ele>-0.12</ele>
  <time>2026-09-02T22:09:58Z</time>
  <course>0.0</course>
  <speed>0.0</speed>
  <fix>3d</fix>
</trkpt>
<trkpt lat="33.810313" lon="-118.393867">
  <ele>-0.107</ele>
  <time>2026-09-02T22:09:58Z</time>
  <course>187.98</course>
  <speed>0.022360679774997897</speed>
  <fix>3d</fix>
</trkpt>
<trkpt lat="33.810313" lon="-118.393867">
  <ele>-0.12</ele>
  <time>2026-09-02T22:09:58Z</time>
  <course>0.0</course>
  <speed>0.0</speed>
  <fix>3d</fix>
</trkpt>
<trkpt lat="33.810313" lon="-118.393867">
  <ele>-0.105</ele>
  <time>2026-09-02T22:09:58Z</time>
  <course>187.97</course>
  <speed>0.022360679774997897</speed>
  <fix>3d</fix>
</trkpt>
<trkpt lat="33.810313" lon="-118.393867">
  <ele>-0.12</ele>
  <time>2026-09-02T22:09:58Z</time>
  <course>0.0</course>
  <speed>0.0</speed>
  <fix>3d</fix>
</trkpt>
<trkpt lat="33.810313" lon="-118.393867">
  <ele>-0.104</ele>
  <time>2026-09-02T22:09:58Z</time>
  <course>187.96</course>
  <speed>0.022360679774997897</speed>
  <fix>3d</fix>
</trkpt>
<trkpt lat="33.810313" lon="-118.393867">
  <ele>-0.12</ele>
  <time>2026-09-02T22:09:58Z</time>
  <course>0.0</course>
  <speed>0.0</speed>
  <fix>3d</fix>
</trkpt>
<trkpt lat="33.810313" lon="-118.393867">
  <ele>-0.104</ele>
  <time>2026-09-02T22:09:58Z</time>
  <course>187.95</course>
  <speed>0.022360679774997897</speed>
  <fix>3d</fix>
</trkpt>
<trkpt lat="33.810313" lon="-118.393867">
  <ele>-0.12</ele>
  <time>2026-09-02T22:09:58Z</time>
  <course>0.0</course>
  <speed>0.0</speed>
  <fix>3d</fix>
</trkpt>
<trkpt lat="33.810313" lon="-118.393867">
  <ele>-0.106</ele>
  <time>2026-09-02T22:09:58Z</time>
  <course>187.95</course>
  <speed>0.022360679774997897</speed>
  <fix>3d</fix>
</trkpt>
<trkpt lat="33.810313" lon="-118.393867">
  <ele>-0.12</ele>
  <time>2026-09-02T22:09:58Z</time>
  <course>0.0</course>
  <speed>0.0</speed>
  <fix>3d</fix>
</trkpt>
<trkpt lat="33.810313" lon="-118.393867">
  <ele>-0.11</ele>
  <time>2026-09-02T22:09:58Z</time>
  <course>187.94</course>
  <speed>0.022360679774997897</speed>
  <fix>3d</fix>
</trkpt>
<trkpt lat="33.810313" lon="-118.393867">
  <ele>-0.12</ele>
  <time>2026-09-02T22:09:58Z</time>
  <course>0.0</course>
  <speed>0.0</speed>
  <fix>3d</fix>
</trkpt>
<trkpt lat="33.810313" lon="-118.393867">
  <ele>-0.114</ele>
  <time>2026-09-02T22:09:58Z</time>
  <course>187.94</course>
  <speed>0.022360679774997897</speed>
  <fix>3d</fix>
</trkpt>
<trkpt lat="33.810313" lon="-118.393867">
  <ele>-0.12</ele>
  <time>2026-09-02T22:09:58Z</time>
  <course>0.0</course>
  <speed>0.0</speed>
  <fix>3d</fix>
</trkpt>
<trkpt lat="33.810313" lon="-118.393867">
  <ele>-0.117</ele>
  <time>2026-09-02T22:09:58Z</time>
  <course>187.93</course>
  <speed>0.022360679774997897</speed>
  <fix>3d</fix>
</trkpt>
<trkpt lat="33.810313" lon="-118.393867">
  <ele>-0.12</ele>
  <time>2026-09-02T22:09:58Z</time>
  <course>0.0</course>
  <speed>0.0</speed>
  <fix>3d</fix>
</trkpt>
<trkpt lat="33.810313" lon="-118.393867">
  <ele>-0.119</ele>
  <time>2026-09-02T22:09:58Z</time>
  <course>187.92</course>
  <speed>0.022360679774997897</speed>
  <fix>3d</fix>
</trkpt>
<trkpt lat="33.810313" lon="-118.393867">
  <ele>-0.12</ele>
  <time>2026-09-02T22:09:58Z</time>
  <course>0.0</course>
  <speed>0.0</speed>
  <fix>3d</fix>
</trkpt>
<trkpt lat="33.810313" lon="-118.393867">
  <ele>-0.121</ele>
  <time>2026-09-02T22:09:58Z</time>
  <course>187.91</course>
  <speed>0.022360679774997897</speed>
  <fix>3d</fix>
</trkpt>
<trkpt lat="33.810313" lon="-118.393867">
  <ele>-0.12</ele>
  <time>2026-09-02T22:09:58Z</time>
  <course>0.0</course>
  <speed>0.0</speed>
  <fix>3d</fix>
</trkpt>
<trkpt lat="33.810313" lon="-118.393867">
  <ele>-0.122</ele>
  <time>2026-09-02T22:09:58Z</time>
  <course>187.9</course>
  <speed>0.022360679774997897</speed>
  <fix>3d</fix>
</trkpt>
<trkpt lat="33.810313" lon="-118.393867">
  <ele>-0.12</ele>
  <time>2026-09-02T22:09:58Z</time>
  <course>0.0</course>
  <speed>0.0</speed>
  <fix>3d</fix>
</trkpt>
<trkpt lat="33.810313" lon="-118.393867">
  <ele>-0.121</ele>
  <time>2026-09-02T22:09:58Z</time>
  <course>187.9</course>
  <speed>0.022360679774997897</speed>
  <fix>3d</fix>
</trkpt>
<trkpt lat="33.810313" lon="-118.393867">
  <ele>-0.12</ele>
  <time>2026-09-02T22:09:58Z</time>
  <course>0.0</course>
  <speed>0.0</speed>
  <fix>3d</fix>
</trkpt>
<trkpt lat="33.810313" lon="-118.393867">
  <ele>-0.119</ele>
  <time>2026-09-02T22:09:58Z</time>
  <course>187.89</course>
  <speed>0.022360679774997897</speed>
  <fix>3d</fix>
</trkpt>
<trkpt lat="33.810313" lon="-118.393867">
  <ele>-0.12</ele>
  <time>2026-09-02T22:09:58Z</time>
  <course>0.0</course>
  <speed>0.0</speed>
  <fix>3d</fix>
</trkpt>
<trkpt lat="33.810313" lon="-118.393867">
  <ele>-0.118</ele>
  <time>2026-09-02T22:09:58Z</time>
  <course>187.88</course>
  <speed>0.022360679774997897</speed>
  <fix>3d</fix>
</trkpt>
<trkpt lat="33.810313" lon="-118.393867">
  <ele>-0.12</ele>
  <time>2026-09-02T22:09:58Z</time>
  <course>0.0</course>
  <speed>0.0</speed>
  <fix>3d</fix>
</trkpt>
<trkpt lat="33.810313" lon="-118.393867">
  <ele>-0.117</ele>
  <time>2026-09-02T22:09:58Z</time>
  <course>187.87</course>
  <speed>0.022360679774997897</speed>
  <fix>3d</fix>
</trkpt>
<trkpt lat="33.810313" lon="-118.393867">
  <ele>-0.12</ele>
  <time>2026-09-02T22:09:58Z</time>
  <course>0.0</course>
  <speed>0.0</speed>
  <fix>3d</fix>
</trkpt>
<trkpt lat="33.810313" lon="-118.393867">
  <ele>-0.118</ele>
  <time>2026-09-02T22:09:58Z</time>
  <course>187.86</course>
  <speed>0.022360679774997897</speed>
  <fix>3d</fix>
</trkpt>
<trkpt lat="33.810313" lon="-118.393867">
  <ele>-0.12</ele>
  <time>2026-09-02T22:09:58Z</time>
  <course>0.0</course>
  <speed>0.0</speed>
  <fix>3d</fix>
</trkpt>
<trkpt lat="33.810313" lon="-118.393867">
  <ele>-0.121</ele>
  <time>2026-09-02T22:09:59Z</time>
  <course>187.86</course>
  <speed>0.022360679774997897</speed>
  <fix>3d</fix>
</trkpt>
<trkpt lat="33.810313" lon="-118.393867">
  <ele>-0.12</ele>
  <time>2026-09-02T22:09:59Z</time>
  <course>0.0</course>
  <speed>0.0</speed>
  <fix>3d</fix>
</trkpt>
<trkpt lat="33.810313" lon="-118.393867">
  <ele>-0.124</ele>
  <time>2026-09-02T22:09:59Z</time>
  <course>187.85</course>
  <speed>0.022360679774997897</speed>
  <fix>3d</fix>
</trkpt>
<trkpt lat="33.810313" lon="-118.393867">
  <ele>-0.12</ele>
  <time>2026-09-02T22:09:59Z</time>
  <course>0.0</course>
  <speed>0.0</speed>
  <fix>3d</fix>
</trkpt>
<trkpt lat="33.810313" lon="-118.393867">
  <ele>-0.126</ele>
  <time>2026-09-02T22:09:59Z</time>
  <course>187.84</course>
  <speed>0.022360679774997897</speed>
  <fix>3d</fix>
</trkpt>
<trkpt lat="33.810313" lon="-118.393867">
  <ele>-0.12</ele>
  <time>2026-09-02T22:09:59Z</time>
  <course>0.0</course>
  <speed>0.0</speed>
  <fix>3d</fix>
</trkpt>
<trkpt lat="33.810313" lon="-118.393867">
  <ele>-0.128</ele>
  <time>2026-09-02T22:09:59Z</time>
  <course>187.83</course>
  <speed>0.022360679774997897</speed>
  <fix>3d</fix>
</trkpt>
<trkpt lat="33.810313" lon="-118.393867">
  <ele>-0.12</ele>
  <time>2026-09-02T22:09:59Z</time>
  <course>0.0</course>
  <speed>0.0</speed>
  <fix>3d</fix>
</trkpt>
<trkpt lat="33.810313" lon="-118.393867">
  <ele>-0.129</ele>
  <time>2026-09-02T22:09:59Z</time>
  <course>187.82</course>
  <speed>0.022360679774997897</speed>
  <fix>3d</fix>
</trkpt>
<trkpt lat="33.810313" lon="-118.393867">
  <ele>-0.12</ele>
  <time>2026-09-02T22:09:59Z</time>
  <course>0.0</course>
  <speed>0.0</speed>
  <fix>3d</fix>
</trkpt>
<trkpt lat="33.810313" lon="-118.393867">
  <ele>-0.129</ele>
  <time>2026-09-02T22:09:59Z</time>
  <course>187.82</course>
  <speed>0.022360679774997897</speed>
  <fix>3d</fix>
</trkpt>
<trkpt lat="33.810313" lon="-118.393867">
  <ele>-0.12</ele>
  <time>2026-09-02T22:09:59Z</time>
  <course>0.0</course>
  <speed>0.0</speed>
  <fix>3d</fix>
</trkpt>
<trkpt lat="33.810313" lon="-118.393867">
  <ele>-0.128</ele>
  <time>2026-09-02T22:09:59Z</time>
  <course>187.81</course>
  <speed>0.022360679774997897</speed>
  <fix>3d</fix>
</trkpt>
<trkpt lat="33.810313" lon="-118.393867">
  <ele>-0.12</ele>
  <time>2026-09-02T22:09:59Z</time>
  <course>0.0</course>
  <speed>0.0</speed>
  <fix>3d</fix>
</trkpt>
<trkpt lat="33.810313" lon="-118.393867">
  <ele>-0.127</ele>
  <time>2026-09-02T22:09:59Z</time>
  <course>187.8</course>
  <speed>0.022360679774997897</speed>
  <fix>3d</fix>
</trkpt>
<trkpt lat="33.810313" lon="-118.393867">
  <ele>-0.12</ele>
  <time>2026-09-02T22:09:59Z</time>
  <course>0.0</course>
  <speed>0.0</speed>
  <fix>3d</fix>
</trkpt>
<trkpt lat="33.810313" lon="-118.393867">
  <ele>-0.126</ele>
  <time>2026-09-02T22:09:59Z</time>
  <course>187.79</course>
  <speed>0.022360679774997897</speed>
  <fix>3d</fix>
</trkpt>
<trkpt lat="33.810313" lon="-118.393867">
  <ele>-0.12</ele>
  <time>2026-09-02T22:09:59Z</time>
  <course>0.0</course>
  <speed>0.0</speed>
  <fix>3d</fix>
</trkpt>
<trkpt lat="33.810313" lon="-118.393867">
  <ele>-0.125</ele>
  <time>2026-09-02T22:09:59Z</time>
  <course>187.79</course>
  <speed>0.022360679774997897</speed>
  <fix>3d</fix>
</trkpt>
<trkpt lat="33.810313" lon="-118.393867">
  <ele>-0.12</ele>
  <time>2026-09-02T22:09:59Z</time>
  <course>0.0</course>
  <speed>0.0</speed>
  <fix>3d</fix>
</trkpt>
<trkpt lat="33.810313" lon="-118.393867">
  <ele>-0.124</ele>
  <time>2026-09-02T22:10:00Z</time>
  <course>187.78</course>
  <speed>0.022360679774997897</speed>
  <fix>3d</fix>
</trkpt>
<trkpt lat="33.810313" lon="-118.393867">
  <ele>-0.12</ele>
  <time>2026-09-02T22:10:00Z</time>
  <course>0.0</course>
  <speed>0.0</speed>
  <fix>3d</fix>
</trkpt>
<trkpt lat="33.810313" lon="-118.393867">
  <ele>-0.124</ele>
  <time>2026-09-02T22:10:00Z</time>
  <course>187.77</course>
  <speed>0.022360679774997897</speed>
  <fix>3d</fix>
</trkpt>
<trkpt lat="33.810313" lon="-118.393867">
  <ele>-0.12</ele>
  <time>2026-09-02T22:10:00Z</time>
  <course>0.0</course>
  <speed>0.0</speed>
  <fix>3d</fix>
</trkpt>
<trkpt lat="33.810313" lon="-118.393867">
  <ele>-0.124</ele>
  <time>2026-09-02T22:10:00Z</time>
  <course>187.76</course>
  <speed>0.022360679774997897</speed>
  <fix>3d</fix>
</trkpt>
<trkpt lat="33.810313" lon="-118.393867">
  <ele>-0.12</ele>
  <time>2026-09-02T22:10:00Z</time>
  <course>0.0</course>
  <speed>0.0</speed>
  <fix>3d</fix>
</trkpt>
<trkpt lat="33.810313" lon="-118.393867">
  <ele>-0.125</ele>
  <time>2026-09-02T22:10:00Z</time>
  <course>187.76</course>
  <speed>0.0282842712474619</speed>
  <fix>3d</fix>
</trkpt>
<trkpt lat="33.810313" lon="-118.393867">
  <ele>-0.12</ele>
  <time>2026-09-02T22:10:00Z</time>
  <course>0.0</course>
  <speed>0.0</speed>
  <fix>3d</fix>
</trkpt>
<trkpt lat="33.810313" lon="-118.393867">
  <ele>-0.124</ele>
  <time>2026-09-02T22:10:00Z</time>
  <course>187.75</course>
  <speed>0.0282842712474619</speed>
  <fix>3d</fix>
</trkpt>
<trkpt lat="33.810313" lon="-118.393867">
  <ele>-0.12</ele>
  <time>2026-09-02T22:10:00Z</time>
  <course>0.0</course>
  <speed>0.0</speed>
  <fix>3d</fix>
</trkpt>
<trkpt lat="33.810313" lon="-118.393867">
  <ele>-0.121</ele>
  <time>2026-09-02T22:10:00Z</time>
  <course>187.74</course>
  <speed>0.0282842712474619</speed>
  <fix>3d</fix>
</trkpt>
<trkpt lat="33.810313" lon="-118.393867">
  <ele>-0.12</ele>
  <time>2026-09-02T22:10:00Z</time>
  <course>0.0</course>
  <speed>0.0</speed>
  <fix>3d</fix>
</trkpt>
<trkpt lat="33.810313" lon="-118.393867">
  <ele>-0.119</ele>
  <time>2026-09-02T22:10:00Z</time>
  <course>187.73</course>
  <speed>0.0282842712474619</speed>
  <fix>3d</fix>
</trkpt>
<trkpt lat="33.810313" lon="-118.393867">
  <ele>-0.12</ele>
  <time>2026-09-02T22:10:00Z</time>
  <course>0.0</course>
  <speed>0.0</speed>
  <fix>3d</fix>
</trkpt>
<trkpt lat="33.810313" lon="-118.393867">
  <ele>-0.117</ele>
  <time>2026-09-02T22:10:00Z</time>
  <course>187.73</course>
  <speed>0.0282842712474619</speed>
  <fix>3d</fix>
</trkpt>
<trkpt lat="33.810313" lon="-118.393867">
  <ele>-0.12</ele>
  <time>2026-09-02T22:10:00Z</time>
  <course>0.0</course>
  <speed>0.0</speed>
  <fix>3d</fix>
</trkpt>
<trkpt lat="33.810313" lon="-118.393867">
  <ele>-0.114</ele>
  <time>2026-09-02T22:10:00Z</time>
  <course>187.72</course>
  <speed>0.0282842712474619</speed>
  <fix>3d</fix>
</trkpt>
<trkpt lat="33.810313" lon="-118.393867">
  <ele>-0.12</ele>
  <time>2026-09-02T22:10:00Z</time>
  <course>0.0</course>
  <speed>0.0</speed>
  <fix>3d</fix>
</trkpt>
<trkpt lat="33.810313" lon="-118.393867">
  <ele>-0.112</ele>
  <time>2026-09-02T22:10:00Z</time>
  <course>187.71</course>
  <speed>0.0282842712474619</speed>
  <fix>3d</fix>
</trkpt>
<trkpt lat="33.810313" lon="-118.393867">
  <ele>-0.12</ele>
  <time>2026-09-02T22:10:00Z</time>
  <course>0.0</course>
  <speed>0.0</speed>
  <fix>3d</fix>
</trkpt>
<trkpt lat="33.810313" lon="-118.393867">
  <ele>-0.111</ele>
  <time>2026-09-02T22:10:00Z</time>
  <course>187.7</course>
  <speed>0.0282842712474619</speed>
  <fix>3d</fix>
</trkpt>
<trkpt lat="33.810313" lon="-118.393867">
  <ele>-0.12</ele>
  <time>2026-09-02T22:10:00Z</time>
  <course>0.0</course>
  <speed>0.0</speed>
  <fix>3d</fix>
</trkpt>
<trkpt lat="33.810313" lon="-118.393867">
  <ele>-0.11</ele>
  <time>2026-09-02T22:10:01Z</time>
  <course>187.7</course>
  <speed>0.0282842712474619</speed>
  <fix>3d</fix>
</trkpt>
<trkpt lat="33.810313" lon="-118.393867">
  <ele>-0.12</ele>
  <time>2026-09-02T22:10:01Z</time>
  <course>0.0</course>
  <speed>0.0</speed>
  <fix>3d</fix>
</trkpt>
<trkpt lat="33.810313" lon="-118.393867">
  <ele>-0.111</ele>
  <time>2026-09-02T22:10:01Z</time>
  <course>187.69</course>
  <speed>0.0282842712474619</speed>
  <fix>3d</fix>
</trkpt>
<trkpt lat="33.810313" lon="-118.393867">
  <ele>-0.12</ele>
  <time>2026-09-02T22:10:01Z</time>
  <course>0.0</course>
  <speed>0.0</speed>
  <fix>3d</fix>
</trkpt>
<trkpt lat="33.810313" lon="-118.393867">
  <ele>-0.113</ele>
  <time>2026-09-02T22:10:01Z</time>
  <course>187.68</course>
  <speed>0.0282842712474619</speed>
  <fix>3d</fix>
</trkpt>
<trkpt lat="33.810313" lon="-118.393867">
  <ele>-0.12</ele>
  <time>2026-09-02T22:10:01Z</time>
  <course>0.0</course>
  <speed>0.0</speed>
  <fix>3d</fix>
</trkpt>
<trkpt lat="33.810313" lon="-118.393867">
  <ele>-0.115</ele>
  <time>2026-09-02T22:10:01Z</time>
  <course>187.68</course>
  <speed>0.0282842712474619</speed>
  <fix>3d</fix>
</trkpt>
<trkpt lat="33.810313" lon="-118.393867">
  <ele>-0.12</ele>
  <time>2026-09-02T22:10:01Z</time>
  <course>0.0</course>
  <speed>0.0</speed>
  <fix>3d</fix>
</trkpt>
<trkpt lat="33.810313" lon="-118.393867">
  <ele>-0.117</ele>
  <time>2026-09-02T22:10:01Z</time>
  <course>187.67</course>
  <speed>0.0282842712474619</speed>
  <fix>3d</fix>
</trkpt>
<trkpt lat="33.810313" lon="-118.393867">
  <ele>-0.12</ele>
  <time>2026-09-02T22:10:01Z</time>
  <course>0.0</course>
  <speed>0.0</speed>
  <fix>3d</fix>
</trkpt>
<trkpt lat="33.810313" lon="-118.393867">
  <ele>-0.117</ele>
  <time>2026-09-02T22:10:01Z</time>
  <course>187.66</course>
  <speed>0.0282842712474619</speed>
  <fix>3d</fix>
</trkpt>
<trkpt lat="33.810313" lon="-118.393867">
  <ele>-0.12</ele>
  <time>2026-09-02T22:10:01Z</time>
  <course>0.0</course>
  <speed>0.0</speed>
  <fix>3d</fix>
</trkpt>
<trkpt lat="33.810313" lon="-118.393867">
  <ele>-0.117</ele>
  <time>2026-09-02T22:10:01Z</time>
  <course>187.65</course>
  <speed>0.0282842712474619</speed>
  <fix>3d</fix>
</trkpt>
<trkpt lat="33.810313" lon="-118.393867">
  <ele>-0.12</ele>
  <time>2026-09-02T22:10:01Z</time>
  <course>0.0</course>
  <speed>0.0</speed>
  <fix>3d</fix>
</trkpt>
<trkpt lat="33.810313" lon="-118.393867">
  <ele>-0.116</ele>
  <time>2026-09-02T22:10:01Z</time>
  <course>187.65</course>
  <speed>0.0282842712474619</speed>
  <fix>3d</fix>
</trkpt>
<trkpt lat="33.810313" lon="-118.393867">
  <ele>-0.12</ele>
  <time>2026-09-02T22:10:01Z</time>
  <course>0.0</course>
  <speed>0.0</speed>
  <fix>3d</fix>
</trkpt>
<trkpt lat="33.810313" lon="-118.393867">
  <ele>-0.113</ele>
  <time>2026-09-02T22:10:01Z</time>
  <course>187.64</course>
  <speed>0.0282842712474619</speed>
  <fix>3d</fix>
</trkpt>
<trkpt lat="33.810313" lon="-118.393867">
  <ele>-0.12</ele>
  <time>2026-09-02T22:10:01Z</time>
  <course>0.0</course>
  <speed>0.0</speed>
  <fix>3d</fix>
</trkpt>
<trkpt lat="33.810313" lon="-118.393867">
  <ele>-0.111</ele>
  <time>2026-09-02T22:10:01Z</time>
  <course>187.63</course>
  <speed>0.0282842712474619</speed>
  <fix>3d</fix>
</trkpt>
<trkpt lat="33.810313" lon="-118.393867">
  <ele>-0.12</ele>
  <time>2026-09-02T22:10:01Z</time>
  <course>0.0</course>
  <speed>0.0</speed>
  <fix>3d</fix>
</trkpt>
<trkpt lat="33.810313" lon="-118.393867">
  <ele>-0.108</ele>
  <time>2026-09-02T22:10:02Z</time>
  <course>187.63</course>
  <speed>0.0282842712474619</speed>
  <fix>3d</fix>
</trkpt>
<trkpt lat="33.810313" lon="-118.393867">
  <ele>-0.12</ele>
  <time>2026-09-02T22:10:02Z</time>
  <course>0.0</course>
  <speed>0.0</speed>
  <fix>3d</fix>
</trkpt>
<trkpt lat="33.810313" lon="-118.393867">
  <ele>-0.107</ele>
  <time>2026-09-02T22:10:02Z</time>
  <course>187.62</course>
  <speed>0.0282842712474619</speed>
  <fix>3d</fix>
</trkpt>
<trkpt lat="33.810313" lon="-118.393867">
  <ele>-0.12</ele>
  <time>2026-09-02T22:10:02Z</time>
  <course>0.0</course>
  <speed>0.0</speed>
  <fix>3d</fix>
</trkpt>
<trkpt lat="33.810313" lon="-118.393867">
  <ele>-0.106</ele>
  <time>2026-09-02T22:10:02Z</time>
  <course>187.62</course>
  <speed>0.0282842712474619</speed>
  <fix>3d</fix>
</trkpt>
<trkpt lat="33.810313" lon="-118.393867">
  <ele>-0.12</ele>
  <time>2026-09-02T22:10:02Z</time>
  <course>0.0</course>
  <speed>0.0</speed>
  <fix>3d</fix>
</trkpt>
<trkpt lat="33.810313" lon="-118.393867">
  <ele>-0.107</ele>
  <time>2026-09-02T22:10:02Z</time>
  <course>187.61</course>
  <speed>0.0282842712474619</speed>
  <fix>3d</fix>
</trkpt>
<trkpt lat="33.810313" lon="-118.393867">
  <ele>-0.12</ele>
  <time>2026-09-02T22:10:02Z</time>
  <course>0.0</course>
  <speed>0.0</speed>
  <fix>3d</fix>
</trkpt>
<trkpt lat="33.810313" lon="-118.393867">
  <ele>-0.109</ele>
  <time>2026-09-02T22:10:02Z</time>
  <course>187.6</course>
  <speed>0.03605551275463989</speed>
  <fix>3d</fix>
</trkpt>
<trkpt lat="33.810313" lon="-118.393867">
  <ele>-0.12</ele>
  <time>2026-09-02T22:10:02Z</time>
  <course>0.0</course>
  <speed>0.0</speed>
  <fix>3d</fix>
</trkpt>
<trkpt lat="33.810313" lon="-118.393867">
  <ele>-0.11</ele>
  <time>2026-09-02T22:10:02Z</time>
  <course>187.6</course>
  <speed>0.03605551275463989</speed>
  <fix>3d</fix>
</trkpt>
<trkpt lat="33.810313" lon="-118.393867">
  <ele>-0.12</ele>
  <time>2026-09-02T22:10:02Z</time>
  <course>0.0</course>
  <speed>0.0</speed>
  <fix>3d</fix>
</trkpt>
<trkpt lat="33.810313" lon="-118.393867">
  <ele>-0.112</ele>
  <time>2026-09-02T22:10:02Z</time>
  <course>187.59</course>
  <speed>0.03605551275463989</speed>
  <fix>3d</fix>
</trkpt>
<trkpt lat="33.810313" lon="-118.393867">
  <ele>-0.12</ele>
  <time>2026-09-02T22:10:02Z</time>
  <course>0.0</course>
  <speed>0.0</speed>
  <fix>3d</fix>
</trkpt>
<trkpt lat="33.810313" lon="-118.393867">
  <ele>-0.114</ele>
  <time>2026-09-02T22:10:02Z</time>
  <course>187.58</course>
  <speed>0.03605551275463989</speed>
  <fix>3d</fix>
</trkpt>
<trkpt lat="33.810313" lon="-118.393867">
  <ele>-0.12</ele>
  <time>2026-09-02T22:10:02Z</time>
  <course>0.0</course>
  <speed>0.0</speed>
  <fix>3d</fix>
</trkpt>
<trkpt lat="33.810313" lon="-118.393867">
  <ele>-0.115</ele>
  <time>2026-09-02T22:10:02Z</time>
  <course>187.57</course>
  <speed>0.03605551275463989</speed>
  <fix>3d</fix>
</trkpt>
<trkpt lat="33.810313" lon="-118.393867">
  <ele>-0.12</ele>
  <time>2026-09-02T22:10:02Z</time>
  <course>0.0</course>
  <speed>0.0</speed>
  <fix>3d</fix>
</trkpt>
<trkpt lat="33.810313" lon="-118.393867">
  <ele>-0.115</ele>
  <time>2026-09-02T22:10:02Z</time>
  <course>187.57</course>
  <speed>0.03605551275463989</speed>
  <fix>3d</fix>
</trkpt>
<trkpt lat="33.810313" lon="-118.393867">
  <ele>-0.12</ele>
  <time>2026-09-02T22:10:02Z</time>
  <course>0.0</course>
  <speed>0.0</speed>
  <fix>3d</fix>
</trkpt>
<trkpt lat="33.810313" lon="-118.393867">
  <ele>-0.115</ele>
  <time>2026-09-02T22:10:03Z</time>
  <course>187.56</course>
  <speed>0.03605551275463989</speed>
  <fix>3d</fix>
</trkpt>
<trkpt lat="33.810313" lon="-118.393867">
  <ele>-0.12</ele>
  <time>2026-09-02T22:10:03Z</time>
  <course>0.0</course>
  <speed>0.0</speed>
  <fix>3d</fix>
</trkpt>
<trkpt lat="33.810313" lon="-118.393867">
  <ele>-0.117</ele>
  <time>2026-09-02T22:10:03Z</time>
  <course>187.55</course>
  <speed>0.03605551275463989</speed>
  <fix>3d</fix>
</trkpt>
<trkpt lat="33.810313" lon="-118.393867">
  <ele>-0.12</ele>
  <time>2026-09-02T22:10:03Z</time>
  <course>0.0</course>
  <speed>0.0</speed>
  <fix>3d</fix>
</trkpt>
<trkpt lat="33.810313" lon="-118.393867">
  <ele>-0.119</ele>
  <time>2026-09-02T22:10:03Z</time>
  <course>187.55</course>
  <speed>0.03605551275463989</speed>
  <fix>3d</fix>
</trkpt>
<trkpt lat="33.810313" lon="-118.393867">
  <ele>-0.12</ele>
  <time>2026-09-02T22:10:03Z</time>
  <course>0.0</course>
  <speed>0.0</speed>
  <fix>3d</fix>
</trkpt>
<trkpt lat="33.810313" lon="-118.393867">
  <ele>-0.122</ele>
  <time>2026-09-02T22:10:03Z</time>
  <course>187.54</course>
  <speed>0.03605551275463989</speed>
  <fix>3d</fix>
</trkpt>
<trkpt lat="33.810313" lon="-118.393867">
  <ele>-0.12</ele>
  <time>2026-09-02T22:10:03Z</time>
  <course>0.0</course>
  <speed>0.0</speed>
  <fix>3d</fix>
</trkpt>
<trkpt lat="33.810313" lon="-118.393867">
  <ele>-0.126</ele>
  <time>2026-09-02T22:10:03Z</time>
  <course>187.53</course>
  <speed>0.03605551275463989</speed>
  <fix>3d</fix>
</trkpt>
<trkpt lat="33.810313" lon="-118.393867">
  <ele>-0.12</ele>
  <time>2026-09-02T22:10:03Z</time>
  <course>0.0</course>
  <speed>0.0</speed>
  <fix>3d</fix>
</trkpt>
<trkpt lat="33.810313" lon="-118.393867">
  <ele>-0.129</ele>
  <time>2026-09-02T22:10:03Z</time>
  <course>187.53</course>
  <speed>0.03605551275463989</speed>
  <fix>3d</fix>
</trkpt>
<trkpt lat="33.810313" lon="-118.393867">
  <ele>-0.12</ele>
  <time>2026-09-02T22:10:03Z</time>
  <course>0.0</course>
  <speed>0.0</speed>
  <fix>3d</fix>
</trkpt>
<trkpt lat="33.810313" lon="-118.393867">
  <ele>-0.132</ele>
  <time>2026-09-02T22:10:03Z</time>
  <course>187.52</course>
  <speed>0.03605551275463989</speed>
  <fix>3d</fix>
</trkpt>
<trkpt lat="33.810313" lon="-118.393867">
  <ele>-0.12</ele>
  <time>2026-09-02T22:10:03Z</time>
  <course>0.0</course>
  <speed>0.0</speed>
  <fix>3d</fix>
</trkpt>
<trkpt lat="33.810313" lon="-118.393867">
  <ele>-0.133</ele>
  <time>2026-09-02T22:10:03Z</time>
  <course>187.52</course>
  <speed>0.03605551275463989</speed>
  <fix>3d</fix>
</trkpt>
<trkpt lat="33.810313" lon="-118.393867">
  <ele>-0.12</ele>
  <time>2026-09-02T22:10:03Z</time>
  <course>0.0</course>
  <speed>0.0</speed>
  <fix>3d</fix>
</trkpt>
<trkpt lat="33.810313" lon="-118.393867">
  <ele>-0.132</ele>
  <time>2026-09-02T22:10:03Z</time>
  <course>187.51</course>
  <speed>0.03605551275463989</speed>
  <fix>3d</fix>
</trkpt>
<trkpt lat="33.810313" lon="-118.393867">
  <ele>-0.12</ele>
  <time>2026-09-02T22:10:03Z</time>
  <course>0.0</course>
  <speed>0.0</speed>
  <fix>3d</fix>
</trkpt>
<trkpt lat="33.810313" lon="-118.393867">
  <ele>-0.13</ele>
  <time>2026-09-02T22:10:03Z</time>
  <course>187.5</course>
  <speed>0.03605551275463989</speed>
  <fix>3d</fix>
</trkpt>
<trkpt lat="33.810313" lon="-118.393867">
  <ele>-0.12</ele>
  <time>2026-09-02T22:10:03Z</time>
  <course>0.0</course>
  <speed>0.0</speed>
  <fix>3d</fix>
</trkpt>
<trkpt lat="33.810313" lon="-118.393867">
  <ele>-0.126</ele>
  <time>2026-09-02T22:10:06Z</time>
  <course>187.5</course>
  <speed>0.03605551275463989</speed>
  <fix>3d</fix>
</trkpt>
<trkpt lat="33.810313" lon="-118.393867">
  <ele>-0.12</ele>
  <time>2026-09-02T22:10:06Z</time>
  <course>0.0</course>
  <speed>0.0</speed>
  <fix>3d</fix>
</trkpt>
<trkpt lat="33.810313" lon="-118.393867">
  <ele>-0.123</ele>
  <time>2026-09-02T22:10:06Z</time>
  <course>187.49</course>
  <speed>0.03605551275463989</speed>
  <fix>3d</fix>
</trkpt>
<trkpt lat="33.810313" lon="-118.393867">
  <ele>-0.12</ele>
  <time>2026-09-02T22:10:06Z</time>
  <course>0.0</course>
  <speed>0.0</speed>
  <fix>3d</fix>
</trkpt>
<trkpt lat="33.810313" lon="-118.393867">
  <ele>-0.121</ele>
  <time>2026-09-02T22:10:06Z</time>
  <course>187.48</course>
  <speed>0.03605551275463989</speed>
  <fix>3d</fix>
</trkpt>
<trkpt lat="33.810313" lon="-118.393867">
  <ele>-0.12</ele>
  <time>2026-09-02T22:10:06Z</time>
  <course>0.0</course>
  <speed>0.0</speed>
  <fix>3d</fix>
</trkpt>
<trkpt lat="33.810313" lon="-118.393867">
  <ele>-0.12</ele>
  <time>2026-09-02T22:10:06Z</time>
  <course>187.48</course>
  <speed>0.03605551275463989</speed>
  <fix>3d</fix>
</trkpt>
<trkpt lat="33.810313" lon="-118.393867">
  <ele>-0.12</ele>
  <time>2026-09-02T22:10:06Z</time>
  <course>0.0</course>
  <speed>0.0</speed>
  <fix>3d</fix>
</trkpt>
<trkpt lat="33.810313" lon="-118.393867">
  <ele>-0.12</ele>
  <time>2026-09-02T22:10:06Z</time>
  <course>187.47</course>
  <speed>0.03605551275463989</speed>
  <fix>3d</fix>
</trkpt>
<trkpt lat="33.810313" lon="-118.393867">
  <ele>-0.12</ele>
  <time>2026-09-02T22:10:06Z</time>
  <course>0.0</course>
  <speed>0.0</speed>
  <fix>3d</fix>
</trkpt>
<trkpt lat="33.810313" lon="-118.393867">
  <ele>-0.121</ele>
  <time>2026-09-02T22:10:06Z</time>
  <course>187.46</course>
  <speed>0.03605551275463989</speed>
  <fix>3d</fix>
</trkpt>
<trkpt lat="33.810313" lon="-118.393867">
  <ele>-0.12</ele>
  <time>2026-09-02T22:10:06Z</time>
  <course>0.0</course>
  <speed>0.0</speed>
  <fix>3d</fix>
</trkpt>
<trkpt lat="33.810313" lon="-118.393867">
  <ele>-0.123</ele>
  <time>2026-09-02T22:10:06Z</time>
  <course>187.46</course>
  <speed>0.03605551275463989</speed>
  <fix>3d</fix>
</trkpt>
<trkpt lat="33.810313" lon="-118.393867">
  <ele>-0.12</ele>
  <time>2026-09-02T22:10:06Z</time>
  <course>0.0</course>
  <speed>0.0</speed>
  <fix>3d</fix>
</trkpt>
<trkpt lat="33.810313" lon="-118.393867">
  <ele>-0.123</ele>
  <time>2026-09-02T22:10:06Z</time>
  <course>187.45</course>
  <speed>0.03605551275463989</speed>
  <fix>3d</fix>
</trkpt>
<trkpt lat="33.810313" lon="-118.393867">
  <ele>-0.12</ele>
  <time>2026-09-02T22:10:06Z</time>
  <course>0.0</course>
  <speed>0.0</speed>
  <fix>3d</fix>
</trkpt>
<trkpt lat="33.810313" lon="-118.393867">
  <ele>-0.122</ele>
  <time>2026-09-02T22:10:06Z</time>
  <course>187.45</course>
  <speed>0.03605551275463989</speed>
  <fix>3d</fix>
</trkpt>
<trkpt lat="33.810313" lon="-118.393867">
  <ele>-0.12</ele>
  <time>2026-09-02T22:10:06Z</time>
  <course>0.0</course>
  <speed>0.0</speed>
  <fix>3d</fix>
</trkpt>
<trkpt lat="33.810313" lon="-118.393867">
  <ele>-0.119</ele>
  <time>2026-09-02T22:10:06Z</time>
  <course>187.44</course>
  <speed>0.03605551275463989</speed>
  <fix>3d</fix>
</trkpt>
<trkpt lat="33.810313" lon="-118.393867">
  <ele>-0.12</ele>
  <time>2026-09-02T22:10:06Z</time>
  <course>0.0</course>
  <speed>0.0</speed>
  <fix>3d</fix>
</trkpt>
<trkpt lat="33.810313" lon="-118.393867">
  <ele>-0.115</ele>
  <time>2026-09-02T22:10:06Z</time>
  <course>187.43</course>
  <speed>0.03605551275463989</speed>
  <fix>3d</fix>
</trkpt>
<trkpt lat="33.810313" lon="-118.393867">
  <ele>-0.12</ele>
  <time>2026-09-02T22:10:06Z</time>
  <course>0.0</course>
  <speed>0.0</speed>
  <fix>3d</fix>
</trkpt>
<trkpt lat="33.810313" lon="-118.393867">
  <ele>-0.112</ele>
  <time>2026-09-02T22:10:06Z</time>
  <course>187.43</course>
  <speed>0.03605551275463989</speed>
  <fix>3d</fix>
</trkpt>
<trkpt lat="33.810313" lon="-118.393867">
  <ele>-0.12</ele>
  <time>2026-09-02T22:10:06Z</time>
  <course>0.0</course>
  <speed>0.0</speed>
  <fix>3d</fix>
</trkpt>
<trkpt lat="33.810313" lon="-118.393867">
  <ele>-0.109</ele>
  <time>2026-09-02T22:10:06Z</time>
  <course>187.42</course>
  <speed>0.03605551275463989</speed>
  <fix>3d</fix>
</trkpt>
<trkpt lat="33.810313" lon="-118.393867">
  <ele>-0.12</ele>
  <time>2026-09-02T22:10:06Z</time>
  <course>0.0</course>
  <speed>0.0</speed>
  <fix>3d</fix>
</trkpt>
<trkpt lat="33.810313" lon="-118.393867">
  <ele>-0.107</ele>
  <time>2026-09-02T22:10:06Z</time>
  <course>187.41</course>
  <speed>0.03605551275463989</speed>
  <fix>3d</fix>
</trkpt>
<trkpt lat="33.810313" lon="-118.393867">
  <ele>-0.12</ele>
  <time>2026-09-02T22:10:06Z</time>
  <course>0.0</course>
  <speed>0.0</speed>
  <fix>3d</fix>
</trkpt>
<trkpt lat="33.810313" lon="-118.393867">
  <ele>-0.107</ele>
  <time>2026-09-02T22:10:06Z</time>
  <course>187.41</course>
  <speed>0.03605551275463989</speed>
  <fix>3d</fix>
</trkpt>
<trkpt lat="33.810313" lon="-118.393867">
  <ele>-0.12</ele>
  <time>2026-09-02T22:10:06Z</time>
  <course>0.0</course>
  <speed>0.0</speed>
  <fix>3d</fix>
</trkpt>
<trkpt lat="33.810313" lon="-118.393867">
  <ele>-0.109</ele>
  <time>2026-09-02T22:10:06Z</time>
  <course>187.4</course>
  <speed>0.03605551275463989</speed>
  <fix>3d</fix>
</trkpt>
<trkpt lat="33.810313" lon="-118.393867">
  <ele>-0.12</ele>
  <time>2026-09-02T22:10:06Z</time>
  <course>0.0</course>
  <speed>0.0</speed>
  <fix>3d</fix>
</trkpt>
<trkpt lat="33.810313" lon="-118.393867">
  <ele>-0.111</ele>
  <time>2026-09-02T22:10:06Z</time>
  <course>187.4</course>
  <speed>0.03605551275463989</speed>
  <fix>3d</fix>
</trkpt>
<trkpt lat="33.810313" lon="-118.393867">
  <ele>-0.12</ele>
  <time>2026-09-02T22:10:06Z</time>
  <course>0.0</course>
  <speed>0.0</speed>
  <fix>3d</fix>
</trkpt>
<trkpt lat="33.810313" lon="-118.393867">
  <ele>-0.113</ele>
  <time>2026-09-02T22:10:06Z</time>
  <course>187.39</course>
  <speed>0.03605551275463989</speed>
  <fix>3d</fix>
</trkpt>
<trkpt lat="33.810313" lon="-118.393867">
  <ele>-0.12</ele>
  <time>2026-09-02T22:10:06Z</time>
  <course>0.0</course>
  <speed>0.0</speed>
  <fix>3d</fix>
</trkpt>
<trkpt lat="33.810313" lon="-118.393867">
  <ele>-0.113</ele>
  <time>2026-09-02T22:10:06Z</time>
  <course>187.38</course>
  <speed>0.03605551275463989</speed>
  <fix>3d</fix>
</trkpt>
<trkpt lat="33.810313" lon="-118.393867">
  <ele>-0.12</ele>
  <time>2026-09-02T22:10:06Z</time>
  <course>0.0</course>
  <speed>0.0</speed>
  <fix>3d</fix>
</trkpt>
<trkpt lat="33.810313" lon="-118.393867">
  <ele>-0.113</ele>
  <time>2026-09-02T22:10:06Z</time>
  <course>187.38</course>
  <speed>0.03605551275463989</speed>
  <fix>3d</fix>
</trkpt>
<trkpt lat="33.810313" lon="-118.393867">
  <ele>-0.12</ele>
  <time>2026-09-02T22:10:06Z</time>
  <course>0.0</course>
  <speed>0.0</speed>
  <fix>3d</fix>
</trkpt>
<trkpt lat="33.810313" lon="-118.393867">
  <ele>-0.112</ele>
  <time>2026-09-02T22:10:06Z</time>
  <course>187.37</course>
  <speed>0.03605551275463989</speed>
  <fix>3d</fix>
</trkpt>
<trkpt lat="33.810313" lon="-118.393867">
  <ele>-0.12</ele>
  <time>2026-09-02T22:10:06Z</time>
  <course>0.0</course>
  <speed>0.0</speed>
  <fix>3d</fix>
</trkpt>
<trkpt lat="33.810313" lon="-118.393867">
  <ele>-0.11</ele>
  <time>2026-09-02T22:10:06Z</time>
  <course>187.37</course>
  <speed>0.03605551275463989</speed>
  <fix>3d</fix>
</trkpt>
<trkpt lat="33.810313" lon="-118.393867">
  <ele>-0.12</ele>
  <time>2026-09-02T22:10:06Z</time>
  <course>0.0</course>
  <speed>0.0</speed>
  <fix>3d</fix>
</trkpt>
<trkpt lat="33.810313" lon="-118.393867">
  <ele>-0.108</ele>
  <time>2026-09-02T22:10:06Z</time>
  <course>187.36</course>
  <speed>0.03605551275463989</speed>
  <fix>3d</fix>
</trkpt>
<trkpt lat="33.810313" lon="-118.393867">
  <ele>-0.12</ele>
  <time>2026-09-02T22:10:06Z</time>
  <course>0.0</course>
  <speed>0.0</speed>
  <fix>3d</fix>
</trkpt>
<trkpt lat="33.810313" lon="-118.393867">
  <ele>-0.106</ele>
  <time>2026-09-02T22:10:06Z</time>
  <course>187.35</course>
  <speed>0.03605551275463989</speed>
  <fix>3d</fix>
</trkpt>
<trkpt lat="33.810313" lon="-118.393867">
  <ele>-0.12</ele>
  <time>2026-09-02T22:10:06Z</time>
  <course>0.0</course>
  <speed>0.0</speed>
  <fix>3d</fix>
</trkpt>
<trkpt lat="33.810313" lon="-118.393867">
  <ele>-0.106</ele>
  <time>2026-09-02T22:10:06Z</time>
  <course>187.35</course>
  <speed>0.03605551275463989</speed>
  <fix>3d</fix>
</trkpt>
<trkpt lat="33.810313" lon="-118.393867">
  <ele>-0.12</ele>
  <time>2026-09-02T22:10:06Z</time>
  <course>0.0</course>
  <speed>0.0</speed>
  <fix>3d</fix>
</trkpt>
<trkpt lat="33.810313" lon="-118.393867">
  <ele>-0.106</ele>
  <time>2026-09-02T22:10:06Z</time>
  <course>187.34</course>
  <speed>0.03605551275463989</speed>
  <fix>3d</fix>
</trkpt>
<trkpt lat="33.810313" lon="-118.393867">
  <ele>-0.12</ele>
  <time>2026-09-02T22:10:06Z</time>
  <course>0.0</course>
  <speed>0.0</speed>
  <fix>3d</fix>
</trkpt>
<trkpt lat="33.810313" lon="-118.393867">
  <ele>-0.108</ele>
  <time>2026-09-02T22:10:06Z</time>
  <course>187.34</course>
  <speed>0.03605551275463989</speed>
  <fix>3d</fix>
</trkpt>
<trkpt lat="33.810313" lon="-118.393867">
  <ele>-0.12</ele>
  <time>2026-09-02T22:10:06Z</time>
  <course>0.0</course>
  <speed>0.0</speed>
  <fix>3d</fix>
</trkpt>
<trkpt lat="33.810313" lon="-118.393867">
  <ele>-0.109</ele>
  <time>2026-09-02T22:10:06Z</time>
  <course>187.33</course>
  <speed>0.03605551275463989</speed>
  <fix>3d</fix>
</trkpt>
<trkpt lat="33.810313" lon="-118.393867">
  <ele>-0.12</ele>
  <time>2026-09-02T22:10:06Z</time>
  <course>0.0</course>
  <speed>0.0</speed>
  <fix>3d</fix>
</trkpt>
<trkpt lat="33.810313" lon="-118.393867">
  <ele>-0.11</ele>
  <time>2026-09-02T22:10:06Z</time>
  <course>187.33</course>
  <speed>0.03605551275463989</speed>
  <fix>3d</fix>
</trkpt>
<trkpt lat="33.810313" lon="-118.393867">
  <ele>-0.12</ele>
  <time>2026-09-02T22:10:06Z</time>
  <course>0.0</course>
  <speed>0.0</speed>
  <fix>3d</fix>
</trkpt>
<trkpt lat="33.810313" lon="-118.393867">
  <ele>-0.11</ele>
  <time>2026-09-02T22:10:08Z</time>
  <course>187.32</course>
  <speed>0.03605551275463989</speed>
  <fix>3d</fix>
</trkpt>
<trkpt lat="33.810313" lon="-118.393867">
  <ele>-0.12</ele>
  <time>2026-09-02T22:10:08Z</time>
  <course>0.0</course>
  <speed>0.0</speed>
  <fix>3d</fix>
</trkpt>
<trkpt lat="33.810313" lon="-118.393867">
  <ele>-0.11</ele>
  <time>2026-09-02T22:10:08Z</time>
  <course>187.32</course>
  <speed>0.03605551275463989</speed>
  <fix>3d</fix>
</trkpt>
<trkpt lat="33.810313" lon="-118.393867">
  <ele>-0.12</ele>
  <time>2026-09-02T22:10:08Z</time>
  <course>0.0</course>
  <speed>0.0</speed>
  <fix>3d</fix>
</trkpt>
<trkpt lat="33.810313" lon="-118.393867">
  <ele>-0.109</ele>
  <time>2026-09-02T22:10:08Z</time>
  <course>187.31</course>
  <speed>0.03605551275463989</speed>
  <fix>3d</fix>
</trkpt>
<trkpt lat="33.810313" lon="-118.393867">
  <ele>-0.12</ele>
  <time>2026-09-02T22:10:08Z</time>
  <course>0.0</course>
  <speed>0.0</speed>
  <fix>3d</fix>
</trkpt>
<trkpt lat="33.810313" lon="-118.393867">
  <ele>-0.107</ele>
  <time>2026-09-02T22:10:08Z</time>
  <course>187.31</course>
  <speed>0.03605551275463989</speed>
  <fix>3d</fix>
</trkpt>
<trkpt lat="33.810313" lon="-118.393867">
  <ele>-0.12</ele>
  <time>2026-09-02T22:10:08Z</time>
  <course>0.0</course>
  <speed>0.0</speed>
  <fix>3d</fix>
</trkpt>
<trkpt lat="33.810313" lon="-118.393867">
  <ele>-0.106</ele>
  <time>2026-09-02T22:10:08Z</time>
  <course>187.3</course>
  <speed>0.03605551275463989</speed>
  <fix>3d</fix>
</trkpt>
<trkpt lat="33.810313" lon="-118.393867">
  <ele>-0.12</ele>
  <time>2026-09-02T22:10:08Z</time>
  <course>0.0</course>
  <speed>0.0</speed>
  <fix>3d</fix>
</trkpt>
<trkpt lat="33.810313" lon="-118.393867">
  <ele>-0.106</ele>
  <time>2026-09-02T22:10:08Z</time>
  <course>187.29</course>
  <speed>0.03605551275463989</speed>
  <fix>3d</fix>
</trkpt>
<trkpt lat="33.810313" lon="-118.393867">
  <ele>-0.12</ele>
  <time>2026-09-02T22:10:08Z</time>
  <course>0.0</course>
  <speed>0.0</speed>
  <fix>3d</fix>
</trkpt>
<trkpt lat="33.810313" lon="-118.393867">
  <ele>-0.107</ele>
  <time>2026-09-02T22:10:08Z</time>
  <course>187.29</course>
  <speed>0.03605551275463989</speed>
  <fix>3d</fix>
</trkpt>
<trkpt lat="33.810313" lon="-118.393867">
  <ele>-0.12</ele>
  <time>2026-09-02T22:10:08Z</time>
  <course>0.0</course>
  <speed>0.0</speed>
  <fix>3d</fix>
</trkpt>
<trkpt lat="33.810313" lon="-118.393867">
  <ele>-0.109</ele>
  <time>2026-09-02T22:10:08Z</time>
  <course>187.28</course>
  <speed>0.03605551275463989</speed>
  <fix>3d</fix>
</trkpt>
<trkpt lat="33.810313" lon="-118.393867">
  <ele>-0.12</ele>
  <time>2026-09-02T22:10:08Z</time>
  <course>0.0</course>
  <speed>0.0</speed>
  <fix>3d</fix>
</trkpt>
<trkpt lat="33.810313" lon="-118.393867">
  <ele>-0.112</ele>
  <time>2026-09-02T22:10:08Z</time>
  <course>187.28</course>
  <speed>0.03605551275463989</speed>
  <fix>3d</fix>
</trkpt>
<trkpt lat="33.810313" lon="-118.393867">
  <ele>-0.12</ele>
  <time>2026-09-02T22:10:08Z</time>
  <course>0.0</course>
  <speed>0.0</speed>
  <fix>3d</fix>
</trkpt>
<trkpt lat="33.810313" lon="-118.393867">
  <ele>-0.114</ele>
  <time>2026-09-02T22:10:08Z</time>
  <course>187.27</course>
  <speed>0.03605551275463989</speed>
  <fix>3d</fix>
</trkpt>
<trkpt lat="33.810313" lon="-118.393867">
  <ele>-0.12</ele>
  <time>2026-09-02T22:10:08Z</time>
  <course>0.0</course>
  <speed>0.0</speed>
  <fix>3d</fix>
</trkpt>
<trkpt lat="33.810313" lon="-118.393867">
  <ele>-0.115</ele>
  <time>2026-09-02T22:10:08Z</time>
  <course>187.27</course>
  <speed>0.03605551275463989</speed>
  <fix>3d</fix>
</trkpt>
<trkpt lat="33.810313" lon="-118.393867">
  <ele>-0.12</ele>
  <time>2026-09-02T22:10:08Z</time>
  <course>0.0</course>
  <speed>0.0</speed>
  <fix>3d</fix>
</trkpt>
<trkpt lat="33.810313" lon="-118.393867">
  <ele>-0.115</ele>
  <time>2026-09-02T22:10:08Z</time>
  <course>187.26</course>
  <speed>0.03605551275463989</speed>
  <fix>3d</fix>
</trkpt>
<trkpt lat="33.810313" lon="-118.393867">
  <ele>-0.12</ele>
  <time>2026-09-02T22:10:08Z</time>
  <course>0.0</course>
  <speed>0.0</speed>
  <fix>3d</fix>
</trkpt>
<trkpt lat="33.810313" lon="-118.393867">
  <ele>-0.114</ele>
  <time>2026-09-02T22:10:08Z</time>
  <course>187.26</course>
  <speed>0.03605551275463989</speed>
  <fix>3d</fix>
</trkpt>
<trkpt lat="33.810313" lon="-118.393867">
  <ele>-0.12</ele>
  <time>2026-09-02T22:10:08Z</time>
  <course>0.0</course>
  <speed>0.0</speed>
  <fix>3d</fix>
</trkpt>
<trkpt lat="33.810313" lon="-118.393867">
  <ele>-0.112</ele>
  <time>2026-09-02T22:10:08Z</time>
  <course>187.25</course>
  <speed>0.03605551275463989</speed>
  <fix>3d</fix>
</trkpt>
<trkpt lat="33.810313" lon="-118.393867">
  <ele>-0.12</ele>
  <time>2026-09-02T22:10:08Z</time>
  <course>0.0</course>
  <speed>0.0</speed>
  <fix>3d</fix>
</trkpt>
<trkpt lat="33.810313" lon="-118.393867">
  <ele>-0.112</ele>
  <time>2026-09-02T22:10:08Z</time>
  <course>187.25</course>
  <speed>0.03605551275463989</speed>
  <fix>3d</fix>
</trkpt>
<trkpt lat="33.810313" lon="-118.393867">
  <ele>-0.12</ele>
  <time>2026-09-02T22:10:08Z</time>
  <course>0.0</course>
  <speed>0.0</speed>
  <fix>3d</fix>
</trkpt>
<trkpt lat="33.810313" lon="-118.393867">
  <ele>-0.112</ele>
  <time>2026-09-02T22:10:08Z</time>
  <course>187.24</course>
  <speed>0.03605551275463989</speed>
  <fix>3d</fix>
</trkpt>
<trkpt lat="33.810313" lon="-118.393867">
  <ele>-0.12</ele>
  <time>2026-09-02T22:10:08Z</time>
  <course>0.0</course>
  <speed>0.0</speed>
  <fix>3d</fix>
</trkpt>
<trkpt lat="33.810313" lon="-118.393867">
  <ele>-0.112</ele>
  <time>2026-09-02T22:10:08Z</time>
  <course>187.23</course>
  <speed>0.03605551275463989</speed>
  <fix>3d</fix>
</trkpt>
<trkpt lat="33.810313" lon="-118.393867">
  <ele>-0.12</ele>
  <time>2026-09-02T22:10:08Z</time>
  <course>0.0</course>
  <speed>0.0</speed>
  <fix>3d</fix>
</trkpt>
<trkpt lat="33.810313" lon="-118.393867">
  <ele>-0.112</ele>
  <time>2026-09-02T22:10:08Z</time>
  <course>187.23</course>
  <speed>0.03605551275463989</speed>
  <fix>3d</fix>
</trkpt>
<trkpt lat="33.810313" lon="-118.393867">
  <ele>-0.12</ele>
  <time>2026-09-02T22:10:08Z</time>
  <course>0.0</course>
  <speed>0.0</speed>
  <fix>3d</fix>
</trkpt>
<trkpt lat="33.810313" lon="-118.393867">
  <ele>-0.114</ele>
  <time>2026-09-02T22:10:08Z</time>
  <course>187.22</course>
  <speed>0.03605551275463989</speed>
  <fix>3d</fix>
</trkpt>
<trkpt lat="33.810313" lon="-118.393867">
  <ele>-0.12</ele>
  <time>2026-09-02T22:10:08Z</time>
  <course>0.0</course>
  <speed>0.0</speed>
  <fix>3d</fix>
</trkpt>
<trkpt lat="33.810313" lon="-118.393867">
  <ele>-0.117</ele>
  <time>2026-09-02T22:10:08Z</time>
  <course>187.22</course>
  <speed>0.03605551275463989</speed>
  <fix>3d</fix>
</trkpt>
<trkpt lat="33.810313" lon="-118.393867">
  <ele>-0.12</ele>
  <time>2026-09-02T22:10:08Z</time>
  <course>0.0</course>
  <speed>0.0</speed>
  <fix>3d</fix>
</trkpt>
<trkpt lat="33.810313" lon="-118.393867">
  <ele>-0.119</ele>
  <time>2026-09-02T22:10:10Z</time>
  <course>187.21</course>
  <speed>0.03605551275463989</speed>
  <fix>3d</fix>
</trkpt>
<trkpt lat="33.810313" lon="-118.393867">
  <ele>-0.12</ele>
  <time>2026-09-02T22:10:10Z</time>
  <course>0.0</course>
  <speed>0.0</speed>
  <fix>3d</fix>
</trkpt>
<trkpt lat="33.810313" lon="-118.393867">
  <ele>-0.119</ele>
  <time>2026-09-02T22:10:10Z</time>
  <course>187.21</course>
  <speed>0.03605551275463989</speed>
  <fix>3d</fix>
</trkpt>
<trkpt lat="33.810313" lon="-118.393867">
  <ele>-0.12</ele>
  <time>2026-09-02T22:10:10Z</time>
  <course>0.0</course>
  <speed>0.0</speed>
  <fix>3d</fix>
</trkpt>
<trkpt lat="33.810313" lon="-118.393867">
  <ele>-0.12</ele>
  <time>2026-09-02T22:10:10Z</time>
  <course>187.2</course>
  <speed>0.03605551275463989</speed>
  <fix>3d</fix>
</trkpt>
<trkpt lat="33.810313" lon="-118.393867">
  <ele>-0.12</ele>
  <time>2026-09-02T22:10:10Z</time>
  <course>0.0</course>
  <speed>0.0</speed>
  <fix>3d</fix>
</trkpt>
<trkpt lat="33.810313" lon="-118.393867">
  <ele>-0.12</ele>
  <time>2026-09-02T22:10:10Z</time>
  <course>187.2</course>
  <speed>0.03605551275463989</speed>
  <fix>3d</fix>
</trkpt>
<trkpt lat="33.810313" lon="-118.393867">
  <ele>-0.12</ele>
  <time>2026-09-02T22:10:10Z</time>
  <course>0.0</course>
  <speed>0.0</speed>
  <fix>3d</fix>
</trkpt>
<trkpt lat="33.810313" lon="-118.393867">
  <ele>-0.119</ele>
  <time>2026-09-02T22:10:10Z</time>
  <course>187.19</course>
  <speed>0.03605551275463989</speed>
  <fix>3d</fix>
</trkpt>
<trkpt lat="33.810313" lon="-118.393867">
  <ele>-0.12</ele>
  <time>2026-09-02T22:10:10Z</time>
  <course>0.0</course>
  <speed>0.0</speed>
  <fix>3d</fix>
</trkpt>
<trkpt lat="33.810313" lon="-118.393867">
  <ele>-0.119</ele>
  <time>2026-09-02T22:10:10Z</time>
  <course>187.19</course>
  <speed>0.03605551275463989</speed>
  <fix>3d</fix>
</trkpt>
<trkpt lat="33.810313" lon="-118.393867">
  <ele>-0.12</ele>
  <time>2026-09-02T22:10:10Z</time>
  <course>0.0</course>
  <speed>0.0</speed>
  <fix>3d</fix>
</trkpt>
<trkpt lat="33.810313" lon="-118.393867">
  <ele>-0.12</ele>
  <time>2026-09-02T22:10:10Z</time>
  <course>187.18</course>
  <speed>0.03605551275463989</speed>
  <fix>3d</fix>
</trkpt>
<trkpt lat="33.810313" lon="-118.393867">
  <ele>-0.12</ele>
  <time>2026-09-02T22:10:10Z</time>
  <course>0.0</course>
  <speed>0.0</speed>
  <fix>3d</fix>
</trkpt>
<trkpt lat="33.810313" lon="-118.393867">
  <ele>-0.12</ele>
  <time>2026-09-02T22:10:10Z</time>
  <course>187.18</course>
  <speed>0.03605551275463989</speed>
  <fix>3d</fix>
</trkpt>
<trkpt lat="33.810313" lon="-118.393867">
  <ele>-0.12</ele>
  <time>2026-09-02T22:10:10Z</time>
  <course>0.0</course>
  <speed>0.0</speed>
  <fix>3d</fix>
</trkpt>
<trkpt lat="33.810313" lon="-118.393867">
  <ele>-0.121</ele>
  <time>2026-09-02T22:10:10Z</time>
  <course>187.17</course>
  <speed>0.03605551275463989</speed>
  <fix>3d</fix>
</trkpt>
<trkpt lat="33.810313" lon="-118.393867">
  <ele>-0.12</ele>
  <time>2026-09-02T22:10:10Z</time>
  <course>0.0</course>
  <speed>0.0</speed>
  <fix>3d</fix>
</trkpt>
<trkpt lat="33.810313" lon="-118.393867">
  <ele>-0.122</ele>
  <time>2026-09-02T22:10:10Z</time>
  <course>187.17</course>
  <speed>0.03605551275463989</speed>
  <fix>3d</fix>
</trkpt>
<trkpt lat="33.810313" lon="-118.393867">
  <ele>-0.12</ele>
  <time>2026-09-02T22:10:10Z</time>
  <course>0.0</course>
  <speed>0.0</speed>
  <fix>3d</fix>
</trkpt>
<trkpt lat="33.810313" lon="-118.393867">
  <ele>-0.123</ele>
  <time>2026-09-02T22:10:10Z</time>
  <course>187.16</course>
  <speed>0.0</speed>
  <fix>3d</fix>
</trkpt>
<trkpt lat="33.810313" lon="-118.393867">
  <ele>-0.12</ele>
  <time>2026-09-02T22:10:10Z</time>
  <course>0.0</course>
  <speed>0.0</speed>
  <fix>3d</fix>
</trkpt>
<trkpt lat="33.810313" lon="-118.393867">
  <ele>-0.124</ele>
  <time>2026-09-02T22:10:10Z</time>
  <course>187.16</course>
  <speed>0.0</speed>
  <fix>3d</fix>
</trkpt>
<trkpt lat="33.810313" lon="-118.393867">
  <ele>-0.12</ele>
  <time>2026-09-02T22:10:10Z</time>
  <course>0.0</course>
  <speed>0.0</speed>
  <fix>3d</fix>
</trkpt>
<trkpt lat="33.810313" lon="-118.393867">
  <ele>-0.125</ele>
  <time>2026-09-02T22:10:10Z</time>
  <course>187.15</course>
  <speed>0.0</speed>
  <fix>3d</fix>
</trkpt>
<trkpt lat="33.810313" lon="-118.393867">
  <ele>-0.12</ele>
  <time>2026-09-02T22:10:10Z</time>
  <course>0.0</course>
  <speed>0.0</speed>
  <fix>3d</fix>
</trkpt>
<trkpt lat="33.810313" lon="-118.393867">
  <ele>-0.125</ele>
  <time>2026-09-02T22:10:10Z</time>
  <course>187.15</course>
  <speed>0.0</speed>
  <fix>3d</fix>
</trkpt>
<trkpt lat="33.810313" lon="-118.393867">
  <ele>-0.12</ele>
  <time>2026-09-02T22:10:10Z</time>
  <course>0.0</course>
  <speed>0.0</speed>
  <fix>3d</fix>
</trkpt>
<trkpt lat="33.810313" lon="-118.393867">
  <ele>-0.126</ele>
  <time>2026-09-02T22:10:10Z</time>
  <course>187.14</course>
  <speed>0.0</speed>
  <fix>3d</fix>
</trkpt>
<trkpt lat="33.810313" lon="-118.393867">
  <ele>-0.12</ele>
  <time>2026-09-02T22:10:10Z</time>
  <course>0.0</course>
  <speed>0.0</speed>
  <fix>3d</fix>
</trkpt>
<trkpt lat="33.810313" lon="-118.393867">
  <ele>-0.125</ele>
  <time>2026-09-02T22:10:10Z</time>
  <course>187.14</course>
  <speed>0.0</speed>
  <fix>3d</fix>
</trkpt>
<trkpt lat="33.810313" lon="-118.393867">
  <ele>-0.12</ele>
  <time>2026-09-02T22:10:10Z</time>
  <course>0.0</course>
  <speed>0.0</speed>
  <fix>3d</fix>
</trkpt>
<trkpt lat="33.810313" lon="-118.393867">
  <ele>-0.124</ele>
  <time>2026-09-02T22:10:10Z</time>
  <course>187.13</course>
  <speed>0.0</speed>
  <fix>3d</fix>
</trkpt>
<trkpt lat="33.810313" lon="-118.393867">
  <ele>-0.12</ele>
  <time>2026-09-02T22:10:10Z</time>
  <course>0.0</course>
  <speed>0.0</speed>
  <fix>3d</fix>
</trkpt>
<trkpt lat="33.810313" lon="-118.393867">
  <ele>-0.123</ele>
  <time>2026-09-02T22:10:10Z</time>
  <course>187.13</course>
  <speed>0.0</speed>
  <fix>3d</fix>
</trkpt>
<trkpt lat="33.810313" lon="-118.393867">
  <ele>-0.12</ele>
  <time>2026-09-02T22:10:10Z</time>
  <course>0.0</course>
  <speed>0.0</speed>
  <fix>3d</fix>
</trkpt>
<trkpt lat="33.810313" lon="-118.393867">
  <ele>-0.123</ele>
  <time>2026-09-02T22:10:10Z</time>
  <course>187.12</course>
  <speed>0.0</speed>
  <fix>3d</fix>
</trkpt>
<trkpt lat="33.810313" lon="-118.393867">
  <ele>-0.12</ele>
  <time>2026-09-02T22:10:10Z</time>
  <course>0.0</course>
  <speed>0.0</speed>
  <fix>3d</fix>
</trkpt>
<trkpt lat="33.810313" lon="-118.393867">
  <ele>-0.124</ele>
  <time>2026-09-02T22:10:10Z</time>
  <course>187.12</course>
  <speed>0.0</speed>
  <fix>3d</fix>
</trkpt>
<trkpt lat="33.810313" lon="-118.393867">
  <ele>-0.12</ele>
  <time>2026-09-02T22:10:10Z</time>
  <course>0.0</course>
  <speed>0.0</speed>
  <fix>3d</fix>
</trkpt>
<trkpt lat="33.810313" lon="-118.393867">
  <ele>-0.124</ele>
  <time>2026-09-02T22:10:10Z</time>
  <course>187.11</course>
  <speed>0.0</speed>
  <fix>3d</fix>
</trkpt>
<trkpt lat="33.810313" lon="-118.393867">
  <ele>-0.12</ele>
  <time>2026-09-02T22:10:10Z</time>
  <course>0.0</course>
  <speed>0.0</speed>
  <fix>3d</fix>
</trkpt>
<trkpt lat="33.436387" lon="-117.0844873">
  <ele>-0.11</ele>
  <time>2026-09-02T22:10:19Z</time>
  <course>0.0</course>
  <speed>0.0</speed>
  <fix>3d</fix>
</trkpt>
<trkpt lat="33.436387" lon="-117.0844873">
  <ele>-0.11</ele>
  <time>2026-09-02T22:10:21Z</time>
  <course>0.0</course>
  <speed>0.0</speed>
  <fix>3d</fix>
</trkpt>
<trkpt lat="33.810313" lon="-118.393867">
  <ele>0.0</ele>
  <time>2026-09-02T22:10:21Z</time>
  <course>173.5</course>
  <speed>0.0</speed>
  <fix>3d</fix>
</trkpt>
<trkpt lat="33.810313" lon="-118.393867">
  <ele>-0.11</ele>
  <time>2026-09-02T22:10:21Z</time>
  <course>0.0</course>
  <speed>0.0</speed>
  <fix>3d</fix>
</trkpt>
<trkpt lat="33.810313" lon="-118.393867">
  <ele>0.0</ele>
  <time>2026-09-02T22:10:21Z</time>
  <course>173.56</course>
  <speed>0.0</speed>
  <fix>3d</fix>
</trkpt>
<trkpt lat="33.810313" lon="-118.393867">
  <ele>-0.11</ele>
  <time>2026-09-02T22:10:21Z</time>
  <course>0.0</course>
  <speed>0.0</speed>
  <fix>3d</fix>
</trkpt>
<trkpt lat="33.810313" lon="-118.393867">
  <ele>0.0</ele>
  <time>2026-09-02T22:10:21Z</time>
  <course>173.9</course>
  <speed>0.0</speed>
  <fix>3d</fix>
</trkpt>
<trkpt lat="33.810313" lon="-118.393867">
  <ele>-0.11</ele>
  <time>2026-09-02T22:10:21Z</time>
  <course>0.0</course>
  <speed>0.0</speed>
  <fix>3d</fix>
</trkpt>
<trkpt lat="33.810313" lon="-118.393867">
  <ele>0.0</ele>
  <time>2026-09-02T22:10:21Z</time>
  <course>174.41</course>
  <speed>0.0</speed>
  <fix>3d</fix>
</trkpt>
<trkpt lat="33.810313" lon="-118.393867">
  <ele>-0.11</ele>
  <time>2026-09-02T22:10:21Z</time>
  <course>0.0</course>
  <speed>0.0</speed>
  <fix>3d</fix>
</trkpt>
<trkpt lat="33.810313" lon="-118.393867">
  <ele>0.0</ele>
  <time>2026-09-02T22:10:21Z</time>
  <course>174.97</course>
  <speed>0.0</speed>
  <fix>3d</fix>
</trkpt>
<trkpt lat="33.810313" lon="-118.393867">
  <ele>-0.12</ele>
  <time>2026-09-02T22:10:21Z</time>
  <course>0.0</course>
  <speed>0.0</speed>
  <fix>3d</fix>
</trkpt>
<trkpt lat="33.810313" lon="-118.393867">
  <ele>0.0</ele>
  <time>2026-09-02T22:10:21Z</time>
  <course>175.51</course>
  <speed>0.0</speed>
  <fix>3d</fix>
</trkpt>
<trkpt lat="33.810313" lon="-118.393867">
  <ele>-0.12</ele>
  <time>2026-09-02T22:10:21Z</time>
  <course>0.0</course>
  <speed>0.0</speed>
  <fix>3d</fix>
</trkpt>
<trkpt lat="33.810313" lon="-118.393867">
  <ele>0.0</ele>
  <time>2026-09-02T22:10:21Z</time>
  <course>176.03</course>
  <speed>0.0</speed>
  <fix>3d</fix>
</trkpt>
<trkpt lat="33.810313" lon="-118.393867">
  <ele>-0.13</ele>
  <time>2026-09-02T22:10:21Z</time>
  <course>0.0</course>
  <speed>0.0</speed>
  <fix>3d</fix>
</trkpt>
<trkpt lat="33.810313" lon="-118.393867">
  <ele>0.0</ele>
  <time>2026-09-02T22:10:21Z</time>
  <course>176.52</course>
  <speed>0.0</speed>
  <fix>3d</fix>
</trkpt>
<trkpt lat="33.810313" lon="-118.393867">
  <ele>-0.13</ele>
  <time>2026-09-02T22:10:21Z</time>
  <course>0.0</course>
  <speed>0.0</speed>
  <fix>3d</fix>
</trkpt>
<trkpt lat="33.810313" lon="-118.393867">
  <ele>0.0</ele>
  <time>2026-09-02T22:10:21Z</time>
  <course>176.99</course>
  <speed>0.0</speed>
  <fix>3d</fix>
</trkpt>
<trkpt lat="33.810313" lon="-118.393867">
  <ele>-0.13</ele>
  <time>2026-09-02T22:10:21Z</time>
  <course>0.0</course>
  <speed>0.0</speed>
  <fix>3d</fix>
</trkpt>
<trkpt lat="33.810313" lon="-118.393867">
  <ele>0.0</ele>
  <time>2026-09-02T22:10:22Z</time>
  <course>177.46</course>
  <speed>0.0</speed>
  <fix>3d</fix>
</trkpt>
<trkpt lat="33.810313" lon="-118.393867">
  <ele>-0.13</ele>
  <time>2026-09-02T22:10:22Z</time>
  <course>0.0</course>
  <speed>0.0</speed>
  <fix>3d</fix>
</trkpt>
<trkpt lat="33.810313" lon="-118.393867">
  <ele>0.0</ele>
  <time>2026-09-02T22:10:22Z</time>
  <course>177.9</course>
  <speed>0.0</speed>
  <fix>3d</fix>
</trkpt>
<trkpt lat="33.810313" lon="-118.393867">
  <ele>-0.14</ele>
  <time>2026-09-02T22:10:22Z</time>
  <course>0.0</course>
  <speed>0.0</speed>
  <fix>3d</fix>
</trkpt>
<trkpt lat="33.810313" lon="-118.393867">
  <ele>0.0</ele>
  <time>2026-09-02T22:10:22Z</time>
  <course>178.34</course>
  <speed>0.0</speed>
  <fix>3d</fix>
</trkpt>
<trkpt lat="33.810313" lon="-118.393867">
  <ele>-0.14</ele>
  <time>2026-09-02T22:10:22Z</time>
  <course>0.0</course>
  <speed>0.0</speed>
  <fix>3d</fix>
</trkpt>
<trkpt lat="33.810313" lon="-118.393867">
  <ele>0.0</ele>
  <time>2026-09-02T22:10:22Z</time>
  <course>178.76</course>
  <speed>0.0</speed>
  <fix>3d</fix>
</trkpt>
<trkpt lat="33.810313" lon="-118.393867">
  <ele>-0.14</ele>
  <time>2026-09-02T22:10:22Z</time>
  <course>0.0</course>
  <speed>0.0</speed>
  <fix>3d</fix>
</trkpt>
<trkpt lat="33.810313" lon="-118.393867">
  <ele>0.0</ele>
  <time>2026-09-02T22:10:22Z</time>
  <course>179.16</course>
  <speed>0.0</speed>
  <fix>3d</fix>
</trkpt>
<trkpt lat="33.810313" lon="-118.393867">
  <ele>-0.14</ele>
  <time>2026-09-02T22:10:22Z</time>
  <course>0.0</course>
  <speed>0.0</speed>
  <fix>3d</fix>
</trkpt>
<trkpt lat="33.810313" lon="-118.393867">
  <ele>0.0</ele>
  <time>2026-09-02T22:10:22Z</time>
  <course>179.56</course>
  <speed>0.0</speed>
  <fix>3d</fix>
</trkpt>
<trkpt lat="33.810313" lon="-118.393867">
  <ele>-0.14</ele>
  <time>2026-09-02T22:10:22Z</time>
  <course>0.0</course>
  <speed>0.0</speed>
  <fix>3d</fix>
</trkpt>
<trkpt lat="33.810313" lon="-118.393867">
  <ele>0.0</ele>
  <time>2026-09-02T22:10:22Z</time>
  <course>179.94</course>
  <speed>0.0</speed>
  <fix>3d</fix>
</trkpt>
<trkpt lat="33.810313" lon="-118.393867">
  <ele>-0.14</ele>
  <time>2026-09-02T22:10:22Z</time>
  <course>0.0</course>
  <speed>0.0</speed>
  <fix>3d</fix>
</trkpt>
<trkpt lat="33.810313" lon="-118.393867">
  <ele>0.0</ele>
  <time>2026-09-02T22:10:22Z</time>
  <course>180.32</course>
  <speed>0.0</speed>
  <fix>3d</fix>
</trkpt>
<trkpt lat="33.810313" lon="-118.393867">
  <ele>-0.14</ele>
  <time>2026-09-02T22:10:22Z</time>
  <course>0.0</course>
  <speed>0.0</speed>
  <fix>3d</fix>
</trkpt>
<trkpt lat="33.810313" lon="-118.393867">
  <ele>0.0</ele>
  <time>2026-09-02T22:10:22Z</time>
  <course>180.67</course>
  <speed>0.0</speed>
  <fix>3d</fix>
</trkpt>
<trkpt lat="33.810313" lon="-118.393867">
  <ele>-0.14</ele>
  <time>2026-09-02T22:10:22Z</time>
  <course>0.0</course>
  <speed>0.0</speed>
  <fix>3d</fix>
</trkpt>
<trkpt lat="33.810313" lon="-118.393867">
  <ele>0.0</ele>
  <time>2026-09-02T22:10:22Z</time>
  <course>181.02</course>
  <speed>0.0</speed>
  <fix>3d</fix>
</trkpt>
<trkpt lat="33.810313" lon="-118.393867">
  <ele>-0.13</ele>
  <time>2026-09-02T22:10:22Z</time>
  <course>0.0</course>
  <speed>0.0</speed>
  <fix>3d</fix>
</trkpt>
<trkpt lat="33.810313" lon="-118.393867">
  <ele>0.0</ele>
  <time>2026-09-02T22:10:23Z</time>
  <course>181.35</course>
  <speed>0.0</speed>
  <fix>3d</fix>
</trkpt>
<trkpt lat="33.810313" lon="-118.393867">
  <ele>-0.13</ele>
  <time>2026-09-02T22:10:23Z</time>
  <course>0.0</course>
  <speed>0.0</speed>
  <fix>3d</fix>
</trkpt>
<trkpt lat="33.810313" lon="-118.393867">
  <ele>0.0</ele>
  <time>2026-09-02T22:10:23Z</time>
  <course>181.67</course>
  <speed>0.0</speed>
  <fix>3d</fix>
</trkpt>
<trkpt lat="33.810313" lon="-118.393867">
  <ele>-0.13</ele>
  <time>2026-09-02T22:10:23Z</time>
  <course>0.0</course>
  <speed>0.0</speed>
  <fix>3d</fix>
</trkpt>
<trkpt lat="33.810313" lon="-118.393867">
  <ele>0.0</ele>
  <time>2026-09-02T22:10:23Z</time>
  <course>181.97</course>
  <speed>0.0</speed>
  <fix>3d</fix>
</trkpt>
<trkpt lat="33.810313" lon="-118.393867">
  <ele>-0.13</ele>
  <time>2026-09-02T22:10:23Z</time>
  <course>0.0</course>
  <speed>0.0</speed>
  <fix>3d</fix>
</trkpt>
<trkpt lat="33.810313" lon="-118.393867">
  <ele>0.0</ele>
  <time>2026-09-02T22:10:23Z</time>
  <course>182.27</course>
  <speed>0.0</speed>
  <fix>3d</fix>
</trkpt>
<trkpt lat="33.810313" lon="-118.393867">
  <ele>-0.12</ele>
  <time>2026-09-02T22:10:23Z</time>
  <course>0.0</course>
  <speed>0.0</speed>
  <fix>3d</fix>
</trkpt>
<trkpt lat="33.810313" lon="-118.393867">
  <ele>0.0</ele>
  <time>2026-09-02T22:10:23Z</time>
  <course>182.56</course>
  <speed>0.0</speed>
  <fix>3d</fix>
</trkpt>
<trkpt lat="33.810313" lon="-118.393867">
  <ele>-0.12</ele>
  <time>2026-09-02T22:10:23Z</time>
  <course>0.0</course>
  <speed>0.0</speed>
  <fix>3d</fix>
</trkpt>
<trkpt lat="33.810313" lon="-118.393867">
  <ele>0.0</ele>
  <time>2026-09-02T22:10:23Z</time>
  <course>182.83</course>
  <speed>0.0</speed>
  <fix>3d</fix>
</trkpt>
<trkpt lat="33.810313" lon="-118.393867">
  <ele>-0.11</ele>
  <time>2026-09-02T22:10:23Z</time>
  <course>0.0</course>
  <speed>0.0</speed>
  <fix>3d</fix>
</trkpt>
<trkpt lat="33.810313" lon="-118.393867">
  <ele>0.0</ele>
  <time>2026-09-02T22:10:23Z</time>
  <course>183.09</course>
  <speed>0.0</speed>
  <fix>3d</fix>
</trkpt>
<trkpt lat="33.810313" lon="-118.393867">
  <ele>-0.11</ele>
  <time>2026-09-02T22:10:23Z</time>
  <course>0.0</course>
  <speed>0.0</speed>
  <fix>3d</fix>
</trkpt>
<trkpt lat="33.810313" lon="-118.393867">
  <ele>0.0</ele>
  <time>2026-09-02T22:10:23Z</time>
  <course>183.35</course>
  <speed>0.0</speed>
  <fix>3d</fix>
</trkpt>
<trkpt lat="33.810313" lon="-118.393867">
  <ele>-0.11</ele>
  <time>2026-09-02T22:10:23Z</time>
  <course>0.0</course>
  <speed>0.0</speed>
  <fix>3d</fix>
</trkpt>
<trkpt lat="33.810313" lon="-118.393867">
  <ele>0.0</ele>
  <time>2026-09-02T22:10:23Z</time>
  <course>183.59</course>
  <speed>0.0</speed>
  <fix>3d</fix>
</trkpt>
<trkpt lat="33.810313" lon="-118.393867">
  <ele>-0.11</ele>
  <time>2026-09-02T22:10:23Z</time>
  <course>0.0</course>
  <speed>0.0</speed>
  <fix>3d</fix>
</trkpt>
<trkpt lat="33.810313" lon="-118.393867">
  <ele>0.0</ele>
  <time>2026-09-02T22:10:23Z</time>
  <course>183.82</course>
  <speed>0.0</speed>
  <fix>3d</fix>
</trkpt>
<trkpt lat="33.810313" lon="-118.393867">
  <ele>-0.12</ele>
  <time>2026-09-02T22:10:23Z</time>
  <course>0.0</course>
  <speed>0.0</speed>
  <fix>3d</fix>
</trkpt>
<trkpt lat="33.810313" lon="-118.393867">
  <ele>0.0</ele>
  <time>2026-09-02T22:10:24Z</time>
  <course>184.05</course>
  <speed>0.0</speed>
  <fix>3d</fix>
</trkpt>
<trkpt lat="33.810313" lon="-118.393867">
  <ele>-0.12</ele>
  <time>2026-09-02T22:10:24Z</time>
  <course>0.0</course>
  <speed>0.0</speed>
  <fix>3d</fix>
</trkpt>
<trkpt lat="33.810313" lon="-118.393867">
  <ele>0.0</ele>
  <time>2026-09-02T22:10:24Z</time>
  <course>184.27</course>
  <speed>0.0</speed>
  <fix>3d</fix>
</trkpt>
<trkpt lat="33.810313" lon="-118.393867">
  <ele>-0.13</ele>
  <time>2026-09-02T22:10:24Z</time>
  <course>0.0</course>
  <speed>0.0</speed>
  <fix>3d</fix>
</trkpt>
<trkpt lat="33.810313" lon="-118.393867">
  <ele>0.0</ele>
  <time>2026-09-02T22:10:24Z</time>
  <course>184.47</course>
  <speed>0.0</speed>
  <fix>3d</fix>
</trkpt>
<trkpt lat="33.810313" lon="-118.393867">
  <ele>-0.13</ele>
  <time>2026-09-02T22:10:24Z</time>
  <course>0.0</course>
  <speed>0.0</speed>
  <fix>3d</fix>
</trkpt>
<trkpt lat="33.810313" lon="-118.393867">
  <ele>0.0</ele>
  <time>2026-09-02T22:10:24Z</time>
  <course>184.67</course>
  <speed>0.0</speed>
  <fix>3d</fix>
</trkpt>
<trkpt lat="33.810313" lon="-118.393867">
  <ele>-0.13</ele>
  <time>2026-09-02T22:10:24Z</time>
  <course>0.0</course>
  <speed>0.0</speed>
  <fix>3d</fix>
</trkpt>
<trkpt lat="33.810313" lon="-118.393867">
  <ele>0.0</ele>
  <time>2026-09-02T22:10:24Z</time>
  <course>184.86</course>
  <speed>0.0</speed>
  <fix>3d</fix>
</trkpt>
<trkpt lat="33.810313" lon="-118.393867">
  <ele>-0.13</ele>
  <time>2026-09-02T22:10:24Z</time>
  <course>0.0</course>
  <speed>0.0</speed>
  <fix>3d</fix>
</trkpt>
<trkpt lat="33.810313" lon="-118.393867">
  <ele>0.0</ele>
  <time>2026-09-02T22:10:24Z</time>
  <course>185.04</course>
  <speed>0.0</speed>
  <fix>3d</fix>
</trkpt>
<trkpt lat="33.810313" lon="-118.393867">
  <ele>-0.14</ele>
  <time>2026-09-02T22:10:24Z</time>
  <course>0.0</course>
  <speed>0.0</speed>
  <fix>3d</fix>
</trkpt>
<trkpt lat="33.810313" lon="-118.393867">
  <ele>0.0</ele>
  <time>2026-09-02T22:10:24Z</time>
  <course>185.21</course>
  <speed>0.0</speed>
  <fix>3d</fix>
</trkpt>
<trkpt lat="33.810313" lon="-118.393867">
  <ele>-0.14</ele>
  <time>2026-09-02T22:10:24Z</time>
  <course>0.0</course>
  <speed>0.0</speed>
  <fix>3d</fix>
</trkpt>
<trkpt lat="33.810313" lon="-118.393867">
  <ele>0.0</ele>
  <time>2026-09-02T22:10:24Z</time>
  <course>185.38</course>
  <speed>0.0</speed>
  <fix>3d</fix>
</trkpt>
<trkpt lat="33.810313" lon="-118.393867">
  <ele>-0.13</ele>
  <time>2026-09-02T22:10:24Z</time>
  <course>0.0</course>
  <speed>0.0</speed>
  <fix>3d</fix>
</trkpt>
<trkpt lat="33.810313" lon="-118.393867">
  <ele>0.0</ele>
  <time>2026-09-02T22:10:24Z</time>
  <course>185.54</course>
  <speed>0.0</speed>
  <fix>3d</fix>
</trkpt>
<trkpt lat="33.810313" lon="-118.393867">
  <ele>-0.13</ele>
  <time>2026-09-02T22:10:24Z</time>
  <course>0.0</course>
  <speed>0.0</speed>
  <fix>3d</fix>
</trkpt>
<trkpt lat="33.810313" lon="-118.393867">
  <ele>0.0</ele>
  <time>2026-09-02T22:10:24Z</time>
  <course>185.69</course>
  <speed>0.0</speed>
  <fix>3d</fix>
</trkpt>
<trkpt lat="33.810313" lon="-118.393867">
  <ele>-0.13</ele>
  <time>2026-09-02T22:10:24Z</time>
  <course>0.0</course>
  <speed>0.0</speed>
  <fix>3d</fix>
</trkpt>
<trkpt lat="33.810313" lon="-118.393867">
  <ele>0.0</ele>
  <time>2026-09-02T22:10:25Z</time>
  <course>185.84</course>
  <speed>0.0</speed>
  <fix>3d</fix>
</trkpt>
<trkpt lat="33.810313" lon="-118.393867">
  <ele>-0.13</ele>
  <time>2026-09-02T22:10:25Z</time>
  <course>0.0</course>
  <speed>0.0</speed>
  <fix>3d</fix>
</trkpt>
<trkpt lat="33.810313" lon="-118.393867">
  <ele>0.0</ele>
  <time>2026-09-02T22:10:25Z</time>
  <course>185.98</course>
  <speed>0.0</speed>
  <fix>3d</fix>
</trkpt>
<trkpt lat="33.810313" lon="-118.393867">
  <ele>-0.12</ele>
  <time>2026-09-02T22:10:25Z</time>
  <course>0.0</course>
  <speed>0.0</speed>
  <fix>3d</fix>
</trkpt>
<trkpt lat="33.810313" lon="-118.393867">
  <ele>0.0</ele>
  <time>2026-09-02T22:10:25Z</time>
  <course>186.11</course>
  <speed>0.0</speed>
  <fix>3d</fix>
</trkpt>
<trkpt lat="33.810313" lon="-118.393867">
  <ele>-0.12</ele>
  <time>2026-09-02T22:10:25Z</time>
  <course>0.0</course>
  <speed>0.0</speed>
  <fix>3d</fix>
</trkpt>
<trkpt lat="33.810313" lon="-118.393867">
  <ele>0.0</ele>
  <time>2026-09-02T22:10:25Z</time>
  <course>186.24</course>
  <speed>0.0</speed>
  <fix>3d</fix>
</trkpt>
<trkpt lat="33.810313" lon="-118.393867">
  <ele>-0.12</ele>
  <time>2026-09-02T22:10:25Z</time>
  <course>0.0</course>
  <speed>0.0</speed>
  <fix>3d</fix>
</trkpt>
<trkpt lat="33.810313" lon="-118.393867">
  <ele>0.0</ele>
  <time>2026-09-02T22:10:25Z</time>
  <course>186.36</course>
  <speed>0.0</speed>
  <fix>3d</fix>
</trkpt>
<trkpt lat="33.810313" lon="-118.393867">
  <ele>-0.12</ele>
  <time>2026-09-02T22:10:25Z</time>
  <course>0.0</course>
  <speed>0.0</speed>
  <fix>3d</fix>
</trkpt>
<trkpt lat="33.810313" lon="-118.393867">
  <ele>0.0</ele>
  <time>2026-09-02T22:10:25Z</time>
  <course>186.48</course>
  <speed>0.0</speed>
  <fix>3d</fix>
</trkpt>
<trkpt lat="33.810313" lon="-118.393867">
  <ele>-0.11</ele>
  <time>2026-09-02T22:10:25Z</time>
  <course>0.0</course>
  <speed>0.0</speed>
  <fix>3d</fix>
</trkpt>
<trkpt lat="33.810313" lon="-118.393867">
  <ele>0.0</ele>
  <time>2026-09-02T22:10:25Z</time>
  <course>186.59</course>
  <speed>0.0</speed>
  <fix>3d</fix>
</trkpt>
<trkpt lat="33.810313" lon="-118.393867">
  <ele>-0.11</ele>
  <time>2026-09-02T22:10:25Z</time>
  <course>0.0</course>
  <speed>0.0</speed>
  <fix>3d</fix>
</trkpt>
<trkpt lat="33.810313" lon="-118.393867">
  <ele>0.0</ele>
  <time>2026-09-02T22:10:25Z</time>
  <course>186.69</course>
  <speed>0.0</speed>
  <fix>3d</fix>
</trkpt>
<trkpt lat="33.810313" lon="-118.393867">
  <ele>-0.11</ele>
  <time>2026-09-02T22:10:25Z</time>
  <course>0.0</course>
  <speed>0.0</speed>
  <fix>3d</fix>
</trkpt>
<trkpt lat="33.810313" lon="-118.393867">
  <ele>0.0</ele>
  <time>2026-09-02T22:10:25Z</time>
  <course>186.8</course>
  <speed>0.0</speed>
  <fix>3d</fix>
</trkpt>
<trkpt lat="33.810313" lon="-118.393867">
  <ele>-0.11</ele>
  <time>2026-09-02T22:10:25Z</time>
  <course>0.0</course>
  <speed>0.0</speed>
  <fix>3d</fix>
</trkpt>
<trkpt lat="33.810313" lon="-118.393867">
  <ele>0.0</ele>
  <time>2026-09-02T22:10:25Z</time>
  <course>186.89</course>
  <speed>0.0</speed>
  <fix>3d</fix>
</trkpt>
<trkpt lat="33.810313" lon="-118.393867">
  <ele>-0.12</ele>
  <time>2026-09-02T22:10:25Z</time>
  <course>0.0</course>
  <speed>0.0</speed>
  <fix>3d</fix>
</trkpt>
<trkpt lat="33.810313" lon="-118.393867">
  <ele>0.0</ele>
  <time>2026-09-02T22:10:25Z</time>
  <course>186.98</course>
  <speed>0.0</speed>
  <fix>3d</fix>
</trkpt>
<trkpt lat="33.810313" lon="-118.393867">
  <ele>-0.12</ele>
  <time>2026-09-02T22:10:25Z</time>
  <course>0.0</course>
  <speed>0.0</speed>
  <fix>3d</fix>
</trkpt>
<trkpt lat="33.810313" lon="-118.393867">
  <ele>0.0</ele>
  <time>2026-09-02T22:10:26Z</time>
  <course>187.07</course>
  <speed>0.0</speed>
  <fix>3d</fix>
</trkpt>
<trkpt lat="33.810313" lon="-118.393867">
  <ele>-0.13</ele>
  <time>2026-09-02T22:10:26Z</time>
  <course>0.0</course>
  <speed>0.0</speed>
  <fix>3d</fix>
</trkpt>
<trkpt lat="33.810313" lon="-118.393867">
  <ele>0.0</ele>
  <time>2026-09-02T22:10:26Z</time>
  <course>187.15</course>
  <speed>0.0</speed>
  <fix>3d</fix>
</trkpt>
<trkpt lat="33.810313" lon="-118.393867">
  <ele>-0.13</ele>
  <time>2026-09-02T22:10:26Z</time>
  <course>0.0</course>
  <speed>0.0</speed>
  <fix>3d</fix>
</trkpt>
<trkpt lat="33.810313" lon="-118.393867">
  <ele>0.0</ele>
  <time>2026-09-02T22:10:26Z</time>
  <course>187.23</course>
  <speed>0.0</speed>
  <fix>3d</fix>
</trkpt>
<trkpt lat="33.810313" lon="-118.393867">
  <ele>-0.13</ele>
  <time>2026-09-02T22:10:26Z</time>
  <course>0.0</course>
  <speed>0.0</speed>
  <fix>3d</fix>
</trkpt>
<trkpt lat="33.810313" lon="-118.393867">
  <ele>0.0</ele>
  <time>2026-09-02T22:10:26Z</time>
  <course>187.31</course>
  <speed>0.0</speed>
  <fix>3d</fix>
</trkpt>
<trkpt lat="33.810313" lon="-118.393867">
  <ele>-0.13</ele>
  <time>2026-09-02T22:10:26Z</time>
  <course>0.0</course>
  <speed>0.0</speed>
  <fix>3d</fix>
</trkpt>
<trkpt lat="33.810313" lon="-118.393867">
  <ele>0.0</ele>
  <time>2026-09-02T22:10:26Z</time>
  <course>187.38</course>
  <speed>0.0</speed>
  <fix>3d</fix>
</trkpt>
<trkpt lat="33.810313" lon="-118.393867">
  <ele>-0.13</ele>
  <time>2026-09-02T22:10:26Z</time>
  <course>0.0</course>
  <speed>0.0</speed>
  <fix>3d</fix>
</trkpt>
<trkpt lat="33.810313" lon="-118.393867">
  <ele>0.0</ele>
  <time>2026-09-02T22:10:26Z</time>
  <course>187.45</course>
  <speed>0.0</speed>
  <fix>3d</fix>
</trkpt>
<trkpt lat="33.810313" lon="-118.393867">
  <ele>-0.13</ele>
  <time>2026-09-02T22:10:26Z</time>
  <course>0.0</course>
  <speed>0.0</speed>
  <fix>3d</fix>
</trkpt>
<trkpt lat="33.810313" lon="-118.393867">
  <ele>0.0</ele>
  <time>2026-09-02T22:10:26Z</time>
  <course>187.52</course>
  <speed>0.0</speed>
  <fix>3d</fix>
</trkpt>
<trkpt lat="33.810313" lon="-118.393867">
  <ele>-0.13</ele>
  <time>2026-09-02T22:10:26Z</time>
  <course>0.0</course>
  <speed>0.0</speed>
  <fix>3d</fix>
</trkpt>
<trkpt lat="33.810313" lon="-118.393867">
  <ele>0.0</ele>
  <time>2026-09-02T22:10:26Z</time>
  <course>187.58</course>
  <speed>0.0</speed>
  <fix>3d</fix>
</trkpt>
<trkpt lat="33.810313" lon="-118.393867">
  <ele>-0.13</ele>
  <time>2026-09-02T22:10:26Z</time>
  <course>0.0</course>
  <speed>0.0</speed>
  <fix>3d</fix>
</trkpt>
<trkpt lat="33.810313" lon="-118.393867">
  <ele>0.0</ele>
  <time>2026-09-02T22:10:26Z</time>
  <course>187.64</course>
  <speed>0.0</speed>
  <fix>3d</fix>
</trkpt>
<trkpt lat="33.810313" lon="-118.393867">
  <ele>-0.12</ele>
  <time>2026-09-02T22:10:26Z</time>
  <course>0.0</course>
  <speed>0.0</speed>
  <fix>3d</fix>
</trkpt>
<trkpt lat="33.810313" lon="-118.393867">
  <ele>0.0</ele>
  <time>2026-09-02T22:10:26Z</time>
  <course>187.69</course>
  <speed>0.0</speed>
  <fix>3d</fix>
</trkpt>
<trkpt lat="33.810313" lon="-118.393867">
  <ele>-0.12</ele>
  <time>2026-09-02T22:10:26Z</time>
  <course>0.0</course>
  <speed>0.0</speed>
  <fix>3d</fix>
</trkpt>
<trkpt lat="33.810313" lon="-118.393867">
  <ele>0.0</ele>
  <time>2026-09-02T22:10:27Z</time>
  <course>187.75</course>
  <speed>0.0</speed>
  <fix>3d</fix>
</trkpt>
<trkpt lat="33.810313" lon="-118.393867">
  <ele>-0.12</ele>
  <time>2026-09-02T22:10:27Z</time>
  <course>0.0</course>
  <speed>0.0</speed>
  <fix>3d</fix>
</trkpt>
<trkpt lat="33.810313" lon="-118.393867">
  <ele>0.0</ele>
  <time>2026-09-02T22:10:27Z</time>
  <course>187.8</course>
  <speed>0.0</speed>
  <fix>3d</fix>
</trkpt>
<trkpt lat="33.810313" lon="-118.393867">
  <ele>-0.12</ele>
  <time>2026-09-02T22:10:27Z</time>
  <course>0.0</course>
  <speed>0.0</speed>
  <fix>3d</fix>
</trkpt>
<trkpt lat="33.810313" lon="-118.393867">
  <ele>0.0</ele>
  <time>2026-09-02T22:10:27Z</time>
  <course>187.85</course>
  <speed>0.0</speed>
  <fix>3d</fix>
</trkpt>
<trkpt lat="33.810313" lon="-118.393867">
  <ele>-0.12</ele>
  <time>2026-09-02T22:10:27Z</time>
  <course>0.0</course>
  <speed>0.0</speed>
  <fix>3d</fix>
</trkpt>
<trkpt lat="33.810313" lon="-118.393867">
  <ele>0.0</ele>
  <time>2026-09-02T22:10:27Z</time>
  <course>187.89</course>
  <speed>0.0</speed>
  <fix>3d</fix>
</trkpt>
<trkpt lat="33.810313" lon="-118.393867">
  <ele>-0.12</ele>
  <time>2026-09-02T22:10:27Z</time>
  <course>0.0</course>
  <speed>0.0</speed>
  <fix>3d</fix>
</trkpt>
<trkpt lat="33.810313" lon="-118.393867">
  <ele>0.0</ele>
  <time>2026-09-02T22:10:27Z</time>
  <course>187.94</course>
  <speed>0.0</speed>
  <fix>3d</fix>
</trkpt>
<trkpt lat="33.810313" lon="-118.393867">
  <ele>-0.12</ele>
  <time>2026-09-02T22:10:27Z</time>
  <course>0.0</course>
  <speed>0.0</speed>
  <fix>3d</fix>
</trkpt>
<trkpt lat="33.810313" lon="-118.393867">
  <ele>0.0</ele>
  <time>2026-09-02T22:10:27Z</time>
  <course>187.98</course>
  <speed>0.0</speed>
  <fix>3d</fix>
</trkpt>
<trkpt lat="33.810313" lon="-118.393867">
  <ele>-0.12</ele>
  <time>2026-09-02T22:10:27Z</time>
  <course>0.0</course>
  <speed>0.0</speed>
  <fix>3d</fix>
</trkpt>
<trkpt lat="33.810313" lon="-118.393867">
  <ele>0.0</ele>
  <time>2026-09-02T22:10:27Z</time>
  <course>188.02</course>
  <speed>0.0</speed>
  <fix>3d</fix>
</trkpt>
<trkpt lat="33.810313" lon="-118.393867">
  <ele>-0.12</ele>
  <time>2026-09-02T22:10:27Z</time>
  <course>0.0</course>
  <speed>0.0</speed>
  <fix>3d</fix>
</trkpt>
<trkpt lat="33.810313" lon="-118.393867">
  <ele>0.0</ele>
  <time>2026-09-02T22:10:27Z</time>
  <course>188.05</course>
  <speed>0.0</speed>
  <fix>3d</fix>
</trkpt>
<trkpt lat="33.810313" lon="-118.393867">
  <ele>-0.12</ele>
  <time>2026-09-02T22:10:27Z</time>
  <course>0.0</course>
  <speed>0.0</speed>
  <fix>3d</fix>
</trkpt>
<trkpt lat="33.810313" lon="-118.393867">
  <ele>0.0</ele>
  <time>2026-09-02T22:10:27Z</time>
  <course>188.09</course>
  <speed>0.0</speed>
  <fix>3d</fix>
</trkpt>
<trkpt lat="33.810313" lon="-118.393867">
  <ele>-0.13</ele>
  <time>2026-09-02T22:10:27Z</time>
  <course>0.0</course>
  <speed>0.0</speed>
  <fix>3d</fix>
</trkpt>
<trkpt lat="33.810313" lon="-118.393867">
  <ele>0.0</ele>
  <time>2026-09-02T22:10:27Z</time>
  <course>188.12</course>
  <speed>0.0</speed>
  <fix>3d</fix>
</trkpt>
<trkpt lat="33.810313" lon="-118.393867">
  <ele>-0.13</ele>
  <time>2026-09-02T22:10:27Z</time>
  <course>0.0</course>
  <speed>0.0</speed>
  <fix>3d</fix>
</trkpt>
<trkpt lat="33.810313" lon="-118.393867">
  <ele>0.0</ele>
  <time>2026-09-02T22:10:28Z</time>
  <course>188.15</course>
  <speed>0.0</speed>
  <fix>3d</fix>
</trkpt>
<trkpt lat="33.810313" lon="-118.393867">
  <ele>-0.13</ele>
  <time>2026-09-02T22:10:28Z</time>
  <course>0.0</course>
  <speed>0.0</speed>
  <fix>3d</fix>
</trkpt>
<trkpt lat="33.810313" lon="-118.393867">
  <ele>0.0</ele>
  <time>2026-09-02T22:10:28Z</time>
  <course>188.18</course>
  <speed>0.0</speed>
  <fix>3d</fix>
</trkpt>
<trkpt lat="33.810313" lon="-118.393867">
  <ele>-0.13</ele>
  <time>2026-09-02T22:10:28Z</time>
  <course>0.0</course>
  <speed>0.0</speed>
  <fix>3d</fix>
</trkpt>
<trkpt lat="33.810313" lon="-118.393867">
  <ele>0.0</ele>
  <time>2026-09-02T22:10:28Z</time>
  <course>188.21</course>
  <speed>0.0</speed>
  <fix>3d</fix>
</trkpt>
<trkpt lat="33.810313" lon="-118.393867">
  <ele>-0.13</ele>
  <time>2026-09-02T22:10:28Z</time>
  <course>0.0</course>
  <speed>0.0</speed>
  <fix>3d</fix>
</trkpt>
<trkpt lat="33.810313" lon="-118.393867">
  <ele>0.0</ele>
  <time>2026-09-02T22:10:28Z</time>
  <course>188.24</course>
  <speed>0.0</speed>
  <fix>3d</fix>
</trkpt>
<trkpt lat="33.810313" lon="-118.393867">
  <ele>-0.13</ele>
  <time>2026-09-02T22:10:28Z</time>
  <course>0.0</course>
  <speed>0.0</speed>
  <fix>3d</fix>
</trkpt>
<trkpt lat="33.810313" lon="-118.393867">
  <ele>0.0</ele>
  <time>2026-09-02T22:10:28Z</time>
  <course>188.26</course>
  <speed>0.0</speed>
  <fix>3d</fix>
</trkpt>
<trkpt lat="33.810313" lon="-118.393867">
  <ele>-0.12</ele>
  <time>2026-09-02T22:10:28Z</time>
  <course>0.0</course>
  <speed>0.0</speed>
  <fix>3d</fix>
</trkpt>
<trkpt lat="33.810313" lon="-118.393867">
  <ele>0.0</ele>
  <time>2026-09-02T22:10:28Z</time>
  <course>188.29</course>
  <speed>0.0</speed>
  <fix>3d</fix>
</trkpt>
<trkpt lat="33.810313" lon="-118.393867">
  <ele>-0.12</ele>
  <time>2026-09-02T22:10:28Z</time>
  <course>0.0</course>
  <speed>0.0</speed>
  <fix>3d</fix>
</trkpt>
<trkpt lat="33.810313" lon="-118.393867">
  <ele>0.0</ele>
  <time>2026-09-02T22:10:28Z</time>
  <course>188.31</course>
  <speed>0.0</speed>
  <fix>3d</fix>
</trkpt>
<trkpt lat="33.810313" lon="-118.393867">
  <ele>-0.12</ele>
  <time>2026-09-02T22:10:28Z</time>
  <course>0.0</course>
  <speed>0.0</speed>
  <fix>3d</fix>
</trkpt>
<trkpt lat="33.810313" lon="-118.393867">
  <ele>0.0</ele>
  <time>2026-09-02T22:10:28Z</time>
  <course>188.33</course>
  <speed>0.0</speed>
  <fix>3d</fix>
</trkpt>
<trkpt lat="33.810313" lon="-118.393867">
  <ele>-0.12</ele>
  <time>2026-09-02T22:10:28Z</time>
  <course>0.0</course>
  <speed>0.0</speed>
  <fix>3d</fix>
</trkpt>
<trkpt lat="33.810313" lon="-118.393867">
  <ele>0.0</ele>
  <time>2026-09-02T22:10:28Z</time>
  <course>188.35</course>
  <speed>0.0</speed>
  <fix>3d</fix>
</trkpt>
<trkpt lat="33.810313" lon="-118.393867">
  <ele>-0.12</ele>
  <time>2026-09-02T22:10:28Z</time>
  <course>0.0</course>
  <speed>0.0</speed>
  <fix>3d</fix>
</trkpt>
<trkpt lat="33.810313" lon="-118.393867">
  <ele>0.0</ele>
  <time>2026-09-02T22:10:28Z</time>
  <course>188.37</course>
  <speed>0.0</speed>
  <fix>3d</fix>
</trkpt>
<trkpt lat="33.810313" lon="-118.393867">
  <ele>-0.12</ele>
  <time>2026-09-02T22:10:28Z</time>
  <course>0.0</course>
  <speed>0.0</speed>
  <fix>3d</fix>
</trkpt>
<trkpt lat="33.810313" lon="-118.393867">
  <ele>0.0</ele>
  <time>2026-09-02T22:10:29Z</time>
  <course>188.39</course>
  <speed>0.0</speed>
  <fix>3d</fix>
</trkpt>
<trkpt lat="33.810313" lon="-118.393867">
  <ele>-0.12</ele>
  <time>2026-09-02T22:10:29Z</time>
  <course>0.0</course>
  <speed>0.0</speed>
  <fix>3d</fix>
</trkpt>
<trkpt lat="33.810313" lon="-118.393867">
  <ele>0.0</ele>
  <time>2026-09-02T22:10:29Z</time>
  <course>188.41</course>
  <speed>0.0</speed>
  <fix>3d</fix>
</trkpt>
<trkpt lat="33.810313" lon="-118.393867">
  <ele>-0.12</ele>
  <time>2026-09-02T22:10:29Z</time>
  <course>0.0</course>
  <speed>0.0</speed>
  <fix>3d</fix>
</trkpt>
<trkpt lat="33.810313" lon="-118.393867">
  <ele>0.0</ele>
  <time>2026-09-02T22:10:29Z</time>
  <course>188.43</course>
  <speed>0.0</speed>
  <fix>3d</fix>
</trkpt>
<trkpt lat="33.810313" lon="-118.393867">
  <ele>-0.12</ele>
  <time>2026-09-02T22:10:29Z</time>
  <course>0.0</course>
  <speed>0.0</speed>
  <fix>3d</fix>
</trkpt>
<trkpt lat="33.810313" lon="-118.393867">
  <ele>0.0</ele>
  <time>2026-09-02T22:10:29Z</time>
  <course>188.44</course>
  <speed>0.0</speed>
  <fix>3d</fix>
</trkpt>
<trkpt lat="33.810313" lon="-118.393867">
  <ele>-0.12</ele>
  <time>2026-09-02T22:10:29Z</time>
  <course>0.0</course>
  <speed>0.0</speed>
  <fix>3d</fix>
</trkpt>
<trkpt lat="33.810313" lon="-118.393867">
  <ele>0.0</ele>
  <time>2026-09-02T22:10:29Z</time>
  <course>188.46</course>
  <speed>0.0</speed>
  <fix>3d</fix>
</trkpt>
<trkpt lat="33.810313" lon="-118.393867">
  <ele>-0.13</ele>
  <time>2026-09-02T22:10:29Z</time>
  <course>0.0</course>
  <speed>0.0</speed>
  <fix>3d</fix>
</trkpt>
<trkpt lat="33.810313" lon="-118.393867">
  <ele>0.0</ele>
  <time>2026-09-02T22:10:29Z</time>
  <course>188.47</course>
  <speed>0.0</speed>
  <fix>3d</fix>
</trkpt>
<trkpt lat="33.810313" lon="-118.393867">
  <ele>-0.13</ele>
  <time>2026-09-02T22:10:29Z</time>
  <course>0.0</course>
  <speed>0.0</speed>
  <fix>3d</fix>
</trkpt>
<trkpt lat="33.810313" lon="-118.393867">
  <ele>0.0</ele>
  <time>2026-09-02T22:10:29Z</time>
  <course>188.48</course>
  <speed>0.0</speed>
  <fix>3d</fix>
</trkpt>
<trkpt lat="33.810313" lon="-118.393867">
  <ele>-0.13</ele>
  <time>2026-09-02T22:10:29Z</time>
  <course>0.0</course>
  <speed>0.0</speed>
  <fix>3d</fix>
</trkpt>
<trkpt lat="33.810313" lon="-118.393867">
  <ele>0.0</ele>
  <time>2026-09-02T22:10:29Z</time>
  <course>188.49</course>
  <speed>0.0</speed>
  <fix>3d</fix>
</trkpt>
<trkpt lat="33.810313" lon="-118.393867">
  <ele>-0.13</ele>
  <time>2026-09-02T22:10:29Z</time>
  <course>0.0</course>
  <speed>0.0</speed>
  <fix>3d</fix>
</trkpt>
<trkpt lat="33.810313" lon="-118.393867">
  <ele>0.0</ele>
  <time>2026-09-02T22:10:29Z</time>
  <course>188.5</course>
  <speed>0.0</speed>
  <fix>3d</fix>
</trkpt>
<trkpt lat="33.810313" lon="-118.393867">
  <ele>-0.13</ele>
  <time>2026-09-02T22:10:29Z</time>
  <course>0.0</course>
  <speed>0.0</speed>
  <fix>3d</fix>
</trkpt>
<trkpt lat="33.810313" lon="-118.393867">
  <ele>0.0</ele>
  <time>2026-09-02T22:10:29Z</time>
  <course>188.51</course>
  <speed>0.0</speed>
  <fix>3d</fix>
</trkpt>
<trkpt lat="33.810313" lon="-118.393867">
  <ele>-0.13</ele>
  <time>2026-09-02T22:10:29Z</time>
  <course>0.0</course>
  <speed>0.0</speed>
  <fix>3d</fix>
</trkpt>
<trkpt lat="33.810313" lon="-118.393867">
  <ele>0.0</ele>
  <time>2026-09-02T22:10:30Z</time>
  <course>188.51</course>
  <speed>0.0</speed>
  <fix>3d</fix>
</trkpt>
<trkpt lat="33.810313" lon="-118.393867">
  <ele>-0.12</ele>
  <time>2026-09-02T22:10:30Z</time>
  <course>0.0</course>
  <speed>0.0</speed>
  <fix>3d</fix>
</trkpt>
<trkpt lat="33.810313" lon="-118.393867">
  <ele>0.0</ele>
  <time>2026-09-02T22:10:30Z</time>
  <course>188.52</course>
  <speed>0.0</speed>
  <fix>3d</fix>
</trkpt>
<trkpt lat="33.810313" lon="-118.393867">
  <ele>-0.12</ele>
  <time>2026-09-02T22:10:30Z</time>
  <course>0.0</course>
  <speed>0.0</speed>
  <fix>3d</fix>
</trkpt>
<trkpt lat="33.810313" lon="-118.393867">
  <ele>0.0</ele>
  <time>2026-09-02T22:10:30Z</time>
  <course>188.53</course>
  <speed>0.0</speed>
  <fix>3d</fix>
</trkpt>
<trkpt lat="33.810313" lon="-118.393867">
  <ele>-0.12</ele>
  <time>2026-09-02T22:10:30Z</time>
  <course>0.0</course>
  <speed>0.0</speed>
  <fix>3d</fix>
</trkpt>
<trkpt lat="33.810313" lon="-118.393867">
  <ele>0.0</ele>
  <time>2026-09-02T22:10:30Z</time>
  <course>188.53</course>
  <speed>0.0</speed>
  <fix>3d</fix>
</trkpt>
<trkpt lat="33.810313" lon="-118.393867">
  <ele>-0.12</ele>
  <time>2026-09-02T22:10:30Z</time>
  <course>0.0</course>
  <speed>0.0</speed>
  <fix>3d</fix>
</trkpt>
<trkpt lat="33.810313" lon="-118.393867">
  <ele>0.0</ele>
  <time>2026-09-02T22:10:30Z</time>
  <course>188.54</course>
  <speed>0.0</speed>
  <fix>3d</fix>
</trkpt>
<trkpt lat="33.810313" lon="-118.393867">
  <ele>-0.12</ele>
  <time>2026-09-02T22:10:30Z</time>
  <course>0.0</course>
  <speed>0.0</speed>
  <fix>3d</fix>
</trkpt>
<trkpt lat="33.810313" lon="-118.393867">
  <ele>0.0</ele>
  <time>2026-09-02T22:10:30Z</time>
  <course>188.54</course>
  <speed>0.0</speed>
  <fix>3d</fix>
</trkpt>
<trkpt lat="33.810313" lon="-118.393867">
  <ele>-0.12</ele>
  <time>2026-09-02T22:10:30Z</time>
  <course>0.0</course>
  <speed>0.0</speed>
  <fix>3d</fix>
</trkpt>
<trkpt lat="33.810313" lon="-118.393867">
  <ele>0.0</ele>
  <time>2026-09-02T22:10:30Z</time>
  <course>188.54</course>
  <speed>0.0</speed>
  <fix>3d</fix>
</trkpt>
<trkpt lat="33.810313" lon="-118.393867">
  <ele>-0.12</ele>
  <time>2026-09-02T22:10:30Z</time>
  <course>0.0</course>
  <speed>0.0</speed>
  <fix>3d</fix>
</trkpt>
<trkpt lat="33.810313" lon="-118.393867">
  <ele>0.0</ele>
  <time>2026-09-02T22:10:30Z</time>
  <course>188.55</course>
  <speed>0.0</speed>
  <fix>3d</fix>
</trkpt>
<trkpt lat="33.810313" lon="-118.393867">
  <ele>-0.12</ele>
  <time>2026-09-02T22:10:30Z</time>
  <course>0.0</course>
  <speed>0.0</speed>
  <fix>3d</fix>
</trkpt>
<trkpt lat="33.810313" lon="-118.393867">
  <ele>0.0</ele>
  <time>2026-09-02T22:10:30Z</time>
  <course>188.55</course>
  <speed>0.0</speed>
  <fix>3d</fix>
</trkpt>
<trkpt lat="33.810313" lon="-118.393867">
  <ele>-0.12</ele>
  <time>2026-09-02T22:10:30Z</time>
  <course>0.0</course>
  <speed>0.0</speed>
  <fix>3d</fix>
</trkpt>
<trkpt lat="33.810313" lon="-118.393867">
  <ele>0.0</ele>
  <time>2026-09-02T22:10:30Z</time>
  <course>188.55</course>
  <speed>0.0</speed>
  <fix>3d</fix>
</trkpt>
<trkpt lat="33.810313" lon="-118.393867">
  <ele>-0.12</ele>
  <time>2026-09-02T22:10:30Z</time>
  <course>0.0</course>
  <speed>0.0</speed>
  <fix>3d</fix>
</trkpt>
<trkpt lat="33.810313" lon="-118.393867">
  <ele>0.0</ele>
  <time>2026-09-02T22:10:31Z</time>
  <course>188.56</course>
  <speed>0.0</speed>
  <fix>3d</fix>
</trkpt>
<trkpt lat="33.810313" lon="-118.393867">
  <ele>-0.13</ele>
  <time>2026-09-02T22:10:31Z</time>
  <course>0.0</course>
  <speed>0.0</speed>
  <fix>3d</fix>
</trkpt>
<trkpt lat="33.810313" lon="-118.393867">
  <ele>0.0</ele>
  <time>2026-09-02T22:10:31Z</time>
  <course>188.56</course>
  <speed>0.0</speed>
  <fix>3d</fix>
</trkpt>
<trkpt lat="33.810313" lon="-118.393867">
  <ele>-0.13</ele>
  <time>2026-09-02T22:10:31Z</time>
  <course>0.0</course>
  <speed>0.0</speed>
  <fix>3d</fix>
</trkpt>
<trkpt lat="33.810313" lon="-118.393867">
  <ele>-0.126</ele>
  <time>2026-09-02T22:10:31Z</time>
  <course>188.56</course>
  <speed>0.0</speed>
  <fix>3d</fix>
</trkpt>
<trkpt lat="33.810313" lon="-118.393867">
  <ele>-0.13</ele>
  <time>2026-09-02T22:10:31Z</time>
  <course>0.0</course>
  <speed>0.0</speed>
  <fix>3d</fix>
</trkpt>
<trkpt lat="33.810313" lon="-118.393867">
  <ele>-0.123</ele>
  <time>2026-09-02T22:10:31Z</time>
  <course>188.56</course>
  <speed>0.0</speed>
  <fix>3d</fix>
</trkpt>
<trkpt lat="33.810313" lon="-118.393867">
  <ele>-0.13</ele>
  <time>2026-09-02T22:10:31Z</time>
  <course>0.0</course>
  <speed>0.0</speed>
  <fix>3d</fix>
</trkpt>
<trkpt lat="33.810313" lon="-118.393867">
  <ele>-0.119</ele>
  <time>2026-09-02T22:10:31Z</time>
  <course>188.56</course>
  <speed>0.0</speed>
  <fix>3d</fix>
</trkpt>
<trkpt lat="33.810313" lon="-118.393867">
  <ele>-0.12</ele>
  <time>2026-09-02T22:10:31Z</time>
  <course>0.0</course>
  <speed>0.0</speed>
  <fix>3d</fix>
</trkpt>
<trkpt lat="33.810313" lon="-118.393867">
  <ele>-0.116</ele>
  <time>2026-09-02T22:10:31Z</time>
  <course>188.56</course>
  <speed>0.0</speed>
  <fix>3d</fix>
</trkpt>
<trkpt lat="33.810313" lon="-118.393867">
  <ele>-0.12</ele>
  <time>2026-09-02T22:10:31Z</time>
  <course>0.0</course>
  <speed>0.0</speed>
  <fix>3d</fix>
</trkpt>
<trkpt lat="33.810313" lon="-118.393867">
  <ele>-0.113</ele>
  <time>2026-09-02T22:10:31Z</time>
  <course>188.56</course>
  <speed>0.0</speed>
  <fix>3d</fix>
</trkpt>
<trkpt lat="33.810313" lon="-118.393867">
  <ele>-0.12</ele>
  <time>2026-09-02T22:10:31Z</time>
  <course>0.0</course>
  <speed>0.0</speed>
  <fix>3d</fix>
</trkpt>
<trkpt lat="33.810313" lon="-118.393867">
  <ele>-0.112</ele>
  <time>2026-09-02T22:10:31Z</time>
  <course>188.56</course>
  <speed>0.0</speed>
  <fix>3d</fix>
</trkpt>
<trkpt lat="33.810313" lon="-118.393867">
  <ele>-0.12</ele>
  <time>2026-09-02T22:10:31Z</time>
  <course>0.0</course>
  <speed>0.0</speed>
  <fix>3d</fix>
</trkpt>
<trkpt lat="33.810313" lon="-118.393867">
  <ele>-0.112</ele>
  <time>2026-09-02T22:10:31Z</time>
  <course>188.55</course>
  <speed>0.0</speed>
  <fix>3d</fix>
</trkpt>
<trkpt lat="33.810313" lon="-118.393867">
  <ele>-0.12</ele>
  <time>2026-09-02T22:10:31Z</time>
  <course>0.0</course>
  <speed>0.0</speed>
  <fix>3d</fix>
</trkpt>
<trkpt lat="33.810313" lon="-118.393867">
  <ele>-0.113</ele>
  <time>2026-09-02T22:10:31Z</time>
  <course>188.55</course>
  <speed>0.0</speed>
  <fix>3d</fix>
</trkpt>
<trkpt lat="33.810313" lon="-118.393867">
  <ele>-0.12</ele>
  <time>2026-09-02T22:10:31Z</time>
  <course>0.0</course>
  <speed>0.0</speed>
  <fix>3d</fix>
</trkpt>
<trkpt lat="33.810313" lon="-118.393867">
  <ele>-0.114</ele>
  <time>2026-09-02T22:10:31Z</time>
  <course>188.55</course>
  <speed>0.0</speed>
  <fix>3d</fix>
</trkpt>
<trkpt lat="33.810313" lon="-118.393867">
  <ele>-0.12</ele>
  <time>2026-09-02T22:10:31Z</time>
  <course>0.0</course>
  <speed>0.0</speed>
  <fix>3d</fix>
</trkpt>
<trkpt lat="33.810313" lon="-118.393867">
  <ele>-0.113</ele>
  <time>2026-09-02T22:10:32Z</time>
  <course>188.55</course>
  <speed>0.0</speed>
  <fix>3d</fix>
</trkpt>
<trkpt lat="33.810313" lon="-118.393867">
  <ele>-0.12</ele>
  <time>2026-09-02T22:10:32Z</time>
  <course>0.0</course>
  <speed>0.0</speed>
  <fix>3d</fix>
</trkpt>
<trkpt lat="33.810313" lon="-118.393867">
  <ele>-0.112</ele>
  <time>2026-09-02T22:10:32Z</time>
  <course>188.55</course>
  <speed>0.0</speed>
  <fix>3d</fix>
</trkpt>
<trkpt lat="33.810313" lon="-118.393867">
  <ele>-0.12</ele>
  <time>2026-09-02T22:10:32Z</time>
  <course>0.0</course>
  <speed>0.0</speed>
  <fix>3d</fix>
</trkpt>
<trkpt lat="33.810313" lon="-118.393867">
  <ele>-0.112</ele>
  <time>2026-09-02T22:10:32Z</time>
  <course>188.54</course>
  <speed>0.0</speed>
  <fix>3d</fix>
</trkpt>
<trkpt lat="33.810313" lon="-118.393867">
  <ele>-0.12</ele>
  <time>2026-09-02T22:10:32Z</time>
  <course>0.0</course>
  <speed>0.0</speed>
  <fix>3d</fix>
</trkpt>
<trkpt lat="33.810313" lon="-118.393867">
  <ele>-0.112</ele>
  <time>2026-09-02T22:10:32Z</time>
  <course>188.54</course>
  <speed>0.0</speed>
  <fix>3d</fix>
</trkpt>
<trkpt lat="33.810313" lon="-118.393867">
  <ele>-0.12</ele>
  <time>2026-09-02T22:10:32Z</time>
  <course>0.0</course>
  <speed>0.0</speed>
  <fix>3d</fix>
</trkpt>
<trkpt lat="33.810313" lon="-118.393867">
  <ele>-0.112</ele>
  <time>2026-09-02T22:10:32Z</time>
  <course>188.53</course>
  <speed>0.0</speed>
  <fix>3d</fix>
</trkpt>
<trkpt lat="33.810313" lon="-118.393867">
  <ele>-0.12</ele>
  <time>2026-09-02T22:10:32Z</time>
  <course>0.0</course>
  <speed>0.0</speed>
  <fix>3d</fix>
</trkpt>
<trkpt lat="33.810313" lon="-118.393867">
  <ele>-0.111</ele>
  <time>2026-09-02T22:10:32Z</time>
  <course>188.53</course>
  <speed>0.0</speed>
  <fix>3d</fix>
</trkpt>
<trkpt lat="33.810313" lon="-118.393867">
  <ele>-0.13</ele>
  <time>2026-09-02T22:10:32Z</time>
  <course>0.0</course>
  <speed>0.0</speed>
  <fix>3d</fix>
</trkpt>
<trkpt lat="33.810313" lon="-118.393867">
  <ele>-0.111</ele>
  <time>2026-09-02T22:10:32Z</time>
  <course>188.53</course>
  <speed>0.0</speed>
  <fix>3d</fix>
</trkpt>
<trkpt lat="33.810313" lon="-118.393867">
  <ele>-0.13</ele>
  <time>2026-09-02T22:10:32Z</time>
  <course>0.0</course>
  <speed>0.0</speed>
  <fix>3d</fix>
</trkpt>
<trkpt lat="33.810313" lon="-118.393867">
  <ele>-0.109</ele>
  <time>2026-09-02T22:10:32Z</time>
  <course>188.52</course>
  <speed>0.0</speed>
  <fix>3d</fix>
</trkpt>
<trkpt lat="33.810313" lon="-118.393867">
  <ele>-0.12</ele>
  <time>2026-09-02T22:10:32Z</time>
  <course>0.0</course>
  <speed>0.0</speed>
  <fix>3d</fix>
</trkpt>
<trkpt lat="33.810313" lon="-118.393867">
  <ele>-0.107</ele>
  <time>2026-09-02T22:10:32Z</time>
  <course>188.52</course>
  <speed>0.0</speed>
  <fix>3d</fix>
</trkpt>
<trkpt lat="33.810313" lon="-118.393867">
  <ele>-0.12</ele>
  <time>2026-09-02T22:10:32Z</time>
  <course>0.0</course>
  <speed>0.0</speed>
  <fix>3d</fix>
</trkpt>
<trkpt lat="33.810313" lon="-118.393867">
  <ele>-0.106</ele>
  <time>2026-09-02T22:10:32Z</time>
  <course>188.51</course>
  <speed>0.0</speed>
  <fix>3d</fix>
</trkpt>
<trkpt lat="33.810313" lon="-118.393867">
  <ele>-0.12</ele>
  <time>2026-09-02T22:10:32Z</time>
  <course>0.0</course>
  <speed>0.0</speed>
  <fix>3d</fix>
</trkpt>
<trkpt lat="33.810313" lon="-118.393867">
  <ele>-0.106</ele>
  <time>2026-09-02T22:10:33Z</time>
  <course>188.51</course>
  <speed>0.0</speed>
  <fix>3d</fix>
</trkpt>
<trkpt lat="33.810313" lon="-118.393867">
  <ele>-0.12</ele>
  <time>2026-09-02T22:10:33Z</time>
  <course>0.0</course>
  <speed>0.0</speed>
  <fix>3d</fix>
</trkpt>
<trkpt lat="33.810313" lon="-118.393867">
  <ele>-0.107</ele>
  <time>2026-09-02T22:10:33Z</time>
  <course>188.5</course>
  <speed>0.0</speed>
  <fix>3d</fix>
</trkpt>
<trkpt lat="33.810313" lon="-118.393867">
  <ele>-0.12</ele>
  <time>2026-09-02T22:10:33Z</time>
  <course>0.0</course>
  <speed>0.0</speed>
  <fix>3d</fix>
</trkpt>
<trkpt lat="33.810313" lon="-118.393867">
  <ele>-0.109</ele>
  <time>2026-09-02T22:10:33Z</time>
  <course>188.5</course>
  <speed>0.0</speed>
  <fix>3d</fix>
</trkpt>
<trkpt lat="33.810313" lon="-118.393867">
  <ele>-0.12</ele>
  <time>2026-09-02T22:10:33Z</time>
  <course>0.0</course>
  <speed>0.0</speed>
  <fix>3d</fix>
</trkpt>
<trkpt lat="33.810313" lon="-118.393867">
  <ele>-0.111</ele>
  <time>2026-09-02T22:10:33Z</time>
  <course>188.49</course>
  <speed>0.0</speed>
  <fix>3d</fix>
</trkpt>
<trkpt lat="33.810313" lon="-118.393867">
  <ele>-0.12</ele>
  <time>2026-09-02T22:10:33Z</time>
  <course>0.0</course>
  <speed>0.0</speed>
  <fix>3d</fix>
</trkpt>
<trkpt lat="33.810313" lon="-118.393867">
  <ele>-0.111</ele>
  <time>2026-09-02T22:10:33Z</time>
  <course>188.49</course>
  <speed>0.0</speed>
  <fix>3d</fix>
</trkpt>
<trkpt lat="33.810313" lon="-118.393867">
  <ele>-0.12</ele>
  <time>2026-09-02T22:10:33Z</time>
  <course>0.0</course>
  <speed>0.0</speed>
  <fix>3d</fix>
</trkpt>
<trkpt lat="33.810313" lon="-118.393867">
  <ele>-0.112</ele>
  <time>2026-09-02T22:10:33Z</time>
  <course>188.48</course>
  <speed>0.0</speed>
  <fix>3d</fix>
</trkpt>
<trkpt lat="33.810313" lon="-118.393867">
  <ele>-0.12</ele>
  <time>2026-09-02T22:10:33Z</time>
  <course>0.0</course>
  <speed>0.0</speed>
  <fix>3d</fix>
</trkpt>
<trkpt lat="33.810313" lon="-118.393867">
  <ele>-0.113</ele>
  <time>2026-09-02T22:10:33Z</time>
  <course>188.48</course>
  <speed>0.01</speed>
  <fix>3d</fix>
</trkpt>
<trkpt lat="33.810313" lon="-118.393867">
  <ele>-0.12</ele>
  <time>2026-09-02T22:10:33Z</time>
  <course>0.0</course>
  <speed>0.0</speed>
  <fix>3d</fix>
</trkpt>
<trkpt lat="33.810313" lon="-118.393867">
  <ele>-0.113</ele>
  <time>2026-09-02T22:10:33Z</time>
  <course>188.47</course>
  <speed>0.01</speed>
  <fix>3d</fix>
</trkpt>
<trkpt lat="33.810313" lon="-118.393867">
  <ele>-0.12</ele>
  <time>2026-09-02T22:10:33Z</time>
  <course>0.0</course>
  <speed>0.0</speed>
  <fix>3d</fix>
</trkpt>
<trkpt lat="33.810313" lon="-118.393867">
  <ele>-0.113</ele>
  <time>2026-09-02T22:10:33Z</time>
  <course>188.46</course>
  <speed>0.01</speed>
  <fix>3d</fix>
</trkpt>
<trkpt lat="33.810313" lon="-118.393867">
  <ele>-0.12</ele>
  <time>2026-09-02T22:10:33Z</time>
  <course>0.0</course>
  <speed>0.0</speed>
  <fix>3d</fix>
</trkpt>
<trkpt lat="33.810313" lon="-118.393867">
  <ele>-0.114</ele>
  <time>2026-09-02T22:10:33Z</time>
  <course>188.46</course>
  <speed>0.01</speed>
  <fix>3d</fix>
</trkpt>
<trkpt lat="33.810313" lon="-118.393867">
  <ele>-0.12</ele>
  <time>2026-09-02T22:10:33Z</time>
  <course>0.0</course>
  <speed>0.0</speed>
  <fix>3d</fix>
</trkpt>
<trkpt lat="33.810313" lon="-118.393867">
  <ele>-0.114</ele>
  <time>2026-09-02T22:10:34Z</time>
  <course>188.45</course>
  <speed>0.01</speed>
  <fix>3d</fix>
</trkpt>
<trkpt lat="33.810313" lon="-118.393867">
  <ele>-0.12</ele>
  <time>2026-09-02T22:10:34Z</time>
  <course>0.0</course>
  <speed>0.0</speed>
  <fix>3d</fix>
</trkpt>
<trkpt lat="33.810313" lon="-118.393867">
  <ele>-0.113</ele>
  <time>2026-09-02T22:10:34Z</time>
  <course>188.45</course>
  <speed>0.01</speed>
  <fix>3d</fix>
</trkpt>
<trkpt lat="33.810313" lon="-118.393867">
  <ele>-0.12</ele>
  <time>2026-09-02T22:10:34Z</time>
  <course>0.0</course>
  <speed>0.0</speed>
  <fix>3d</fix>
</trkpt>
<trkpt lat="33.810313" lon="-118.393867">
  <ele>-0.112</ele>
  <time>2026-09-02T22:10:34Z</time>
  <course>188.44</course>
  <speed>0.01</speed>
  <fix>3d</fix>
</trkpt>
<trkpt lat="33.810313" lon="-118.393867">
  <ele>-0.12</ele>
  <time>2026-09-02T22:10:34Z</time>
  <course>0.0</course>
  <speed>0.0</speed>
  <fix>3d</fix>
</trkpt>
<trkpt lat="33.810313" lon="-118.393867">
  <ele>-0.112</ele>
  <time>2026-09-02T22:10:34Z</time>
  <course>188.44</course>
  <speed>0.01</speed>
  <fix>3d</fix>
</trkpt>
<trkpt lat="33.810313" lon="-118.393867">
  <ele>-0.12</ele>
  <time>2026-09-02T22:10:34Z</time>
  <course>0.0</course>
  <speed>0.0</speed>
  <fix>3d</fix>
</trkpt>
<trkpt lat="33.810313" lon="-118.393867">
  <ele>-0.112</ele>
  <time>2026-09-02T22:10:34Z</time>
  <course>188.43</course>
  <speed>0.01</speed>
  <fix>3d</fix>
</trkpt>
<trkpt lat="33.810313" lon="-118.393867">
  <ele>-0.12</ele>
  <time>2026-09-02T22:10:34Z</time>
  <course>0.0</course>
  <speed>0.0</speed>
  <fix>3d</fix>
</trkpt>
<trkpt lat="33.810313" lon="-118.393867">
  <ele>-0.113</ele>
  <time>2026-09-02T22:10:34Z</time>
  <course>188.43</course>
  <speed>0.01</speed>
  <fix>3d</fix>
</trkpt>
<trkpt lat="33.810313" lon="-118.393867">
  <ele>-0.12</ele>
  <time>2026-09-02T22:10:34Z</time>
  <course>0.0</course>
  <speed>0.0</speed>
  <fix>3d</fix>
</trkpt>
<trkpt lat="33.810313" lon="-118.393867">
  <ele>-0.115</ele>
  <time>2026-09-02T22:10:34Z</time>
  <course>188.42</course>
  <speed>0.01414213562373095</speed>
  <fix>3d</fix>
</trkpt>
<trkpt lat="33.810313" lon="-118.393867">
  <ele>-0.12</ele>
  <time>2026-09-02T22:10:34Z</time>
  <course>0.0</course>
  <speed>0.0</speed>
  <fix>3d</fix>
</trkpt>
<trkpt lat="33.810313" lon="-118.393867">
  <ele>-0.116</ele>
  <time>2026-09-02T22:10:34Z</time>
  <course>188.41</course>
  <speed>0.01414213562373095</speed>
  <fix>3d</fix>
</trkpt>
<trkpt lat="33.810313" lon="-118.393867">
  <ele>-0.12</ele>
  <time>2026-09-02T22:10:34Z</time>
  <course>0.0</course>
  <speed>0.0</speed>
  <fix>3d</fix>
</trkpt>
<trkpt lat="33.810313" lon="-118.393867">
  <ele>-0.117</ele>
  <time>2026-09-02T22:10:34Z</time>
  <course>188.41</course>
  <speed>0.01414213562373095</speed>
  <fix>3d</fix>
</trkpt>
<trkpt lat="33.810313" lon="-118.393867">
  <ele>-0.12</ele>
  <time>2026-09-02T22:10:34Z</time>
  <course>0.0</course>
  <speed>0.0</speed>
  <fix>3d</fix>
</trkpt>
<trkpt lat="33.810313" lon="-118.393867">
  <ele>-0.117</ele>
  <time>2026-09-02T22:10:34Z</time>
  <course>188.4</course>
  <speed>0.01414213562373095</speed>
  <fix>3d</fix>
</trkpt>
<trkpt lat="33.810313" lon="-118.393867">
  <ele>-0.12</ele>
  <time>2026-09-02T22:10:34Z</time>
  <course>0.0</course>
  <speed>0.0</speed>
  <fix>3d</fix>
</trkpt>
<trkpt lat="33.810313" lon="-118.393867">
  <ele>-0.116</ele>
  <time>2026-09-02T22:10:35Z</time>
  <course>188.39</course>
  <speed>0.01414213562373095</speed>
  <fix>3d</fix>
</trkpt>
<trkpt lat="33.810313" lon="-118.393867">
  <ele>-0.12</ele>
  <time>2026-09-02T22:10:35Z</time>
  <course>0.0</course>
  <speed>0.0</speed>
  <fix>3d</fix>
</trkpt>
<trkpt lat="33.810313" lon="-118.393867">
  <ele>-0.115</ele>
  <time>2026-09-02T22:10:35Z</time>
  <course>188.38</course>
  <speed>0.01414213562373095</speed>
  <fix>3d</fix>
</trkpt>
<trkpt lat="33.810313" lon="-118.393867">
  <ele>-0.12</ele>
  <time>2026-09-02T22:10:35Z</time>
  <course>0.0</course>
  <speed>0.0</speed>
  <fix>3d</fix>
</trkpt>
<trkpt lat="33.810313" lon="-118.393867">
  <ele>-0.114</ele>
  <time>2026-09-02T22:10:35Z</time>
  <course>188.38</course>
  <speed>0.01414213562373095</speed>
  <fix>3d</fix>
</trkpt>
<trkpt lat="33.810313" lon="-118.393867">
  <ele>-0.12</ele>
  <time>2026-09-02T22:10:35Z</time>
  <course>0.0</course>
  <speed>0.0</speed>
  <fix>3d</fix>
</trkpt>
<trkpt lat="33.810313" lon="-118.393867">
  <ele>-0.112</ele>
  <time>2026-09-02T22:10:35Z</time>
  <course>188.37</course>
  <speed>0.01414213562373095</speed>
  <fix>3d</fix>
</trkpt>
<trkpt lat="33.810313" lon="-118.393867">
  <ele>-0.12</ele>
  <time>2026-09-02T22:10:35Z</time>
  <course>0.0</course>
  <speed>0.0</speed>
  <fix>3d</fix>
</trkpt>
<trkpt lat="33.810313" lon="-118.393867">
  <ele>-0.11</ele>
  <time>2026-09-02T22:10:35Z</time>
  <course>188.36</course>
  <speed>0.01414213562373095</speed>
  <fix>3d</fix>
</trkpt>
<trkpt lat="33.810313" lon="-118.393867">
  <ele>-0.12</ele>
  <time>2026-09-02T22:10:35Z</time>
  <course>0.0</course>
  <speed>0.0</speed>
  <fix>3d</fix>
</trkpt>
<trkpt lat="33.810313" lon="-118.393867">
  <ele>-0.107</ele>
  <time>2026-09-02T22:10:35Z</time>
  <course>188.35</course>
  <speed>0.01414213562373095</speed>
  <fix>3d</fix>
</trkpt>
<trkpt lat="33.810313" lon="-118.393867">
  <ele>-0.12</ele>
  <time>2026-09-02T22:10:35Z</time>
  <course>0.0</course>
  <speed>0.0</speed>
  <fix>3d</fix>
</trkpt>
<trkpt lat="33.810313" lon="-118.393867">
  <ele>-0.106</ele>
  <time>2026-09-02T22:10:35Z</time>
  <course>188.34</course>
  <speed>0.01414213562373095</speed>
  <fix>3d</fix>
</trkpt>
<trkpt lat="33.810313" lon="-118.393867">
  <ele>-0.12</ele>
  <time>2026-09-02T22:10:35Z</time>
  <course>0.0</course>
  <speed>0.0</speed>
  <fix>3d</fix>
</trkpt>
<trkpt lat="33.810313" lon="-118.393867">
  <ele>-0.106</ele>
  <time>2026-09-02T22:10:35Z</time>
  <course>188.34</course>
  <speed>0.01414213562373095</speed>
  <fix>3d</fix>
</trkpt>
<trkpt lat="33.810313" lon="-118.393867">
  <ele>-0.12</ele>
  <time>2026-09-02T22:10:35Z</time>
  <course>0.0</course>
  <speed>0.0</speed>
  <fix>3d</fix>
</trkpt>
<trkpt lat="33.810313" lon="-118.393867">
  <ele>-0.107</ele>
  <time>2026-09-02T22:10:35Z</time>
  <course>188.33</course>
  <speed>0.01414213562373095</speed>
  <fix>3d</fix>
</trkpt>
<trkpt lat="33.810313" lon="-118.393867">
  <ele>-0.12</ele>
  <time>2026-09-02T22:10:35Z</time>
  <course>0.0</course>
  <speed>0.0</speed>
  <fix>3d</fix>
</trkpt>
<trkpt lat="33.810313" lon="-118.393867">
  <ele>-0.109</ele>
  <time>2026-09-02T22:10:35Z</time>
  <course>188.32</course>
  <speed>0.01414213562373095</speed>
  <fix>3d</fix>
</trkpt>
<trkpt lat="33.810313" lon="-118.393867">
  <ele>-0.12</ele>
  <time>2026-09-02T22:10:35Z</time>
  <course>0.0</course>
  <speed>0.0</speed>
  <fix>3d</fix>
</trkpt>
<trkpt lat="33.810313" lon="-118.393867">
  <ele>-0.111</ele>
  <time>2026-09-02T22:10:35Z</time>
  <course>188.31</course>
  <speed>0.01414213562373095</speed>
  <fix>3d</fix>
</trkpt>
<trkpt lat="33.810313" lon="-118.393867">
  <ele>-0.12</ele>
  <time>2026-09-02T22:10:35Z</time>
  <course>0.0</course>
  <speed>0.0</speed>
  <fix>3d</fix>
</trkpt>
<trkpt lat="33.810313" lon="-118.393867">
  <ele>-0.112</ele>
  <time>2026-09-02T22:10:36Z</time>
  <course>188.3</course>
  <speed>0.01414213562373095</speed>
  <fix>3d</fix>
</trkpt>
<trkpt lat="33.810313" lon="-118.393867">
  <ele>-0.12</ele>
  <time>2026-09-02T22:10:36Z</time>
  <course>0.0</course>
  <speed>0.0</speed>
  <fix>3d</fix>
</trkpt>
<trkpt lat="33.810313" lon="-118.393867">
  <ele>-0.113</ele>
  <time>2026-09-02T22:10:36Z</time>
  <course>188.3</course>
  <speed>0.01414213562373095</speed>
  <fix>3d</fix>
</trkpt>
<trkpt lat="33.810313" lon="-118.393867">
  <ele>-0.12</ele>
  <time>2026-09-02T22:10:36Z</time>
  <course>0.0</course>
  <speed>0.0</speed>
  <fix>3d</fix>
</trkpt>
<trkpt lat="33.810313" lon="-118.393867">
  <ele>-0.113</ele>
  <time>2026-09-02T22:10:36Z</time>
  <course>188.29</course>
  <speed>0.01414213562373095</speed>
  <fix>3d</fix>
</trkpt>
<trkpt lat="33.810313" lon="-118.393867">
  <ele>-0.12</ele>
  <time>2026-09-02T22:10:36Z</time>
  <course>0.0</course>
  <speed>0.0</speed>
  <fix>3d</fix>
</trkpt>
<trkpt lat="33.810313" lon="-118.393867">
  <ele>-0.112</ele>
  <time>2026-09-02T22:10:36Z</time>
  <course>188.28</course>
  <speed>0.01414213562373095</speed>
  <fix>3d</fix>
</trkpt>
<trkpt lat="33.810313" lon="-118.393867">
  <ele>-0.12</ele>
  <time>2026-09-02T22:10:36Z</time>
  <course>0.0</course>
  <speed>0.0</speed>
  <fix>3d</fix>
</trkpt>
<trkpt lat="33.810313" lon="-118.393867">
  <ele>-0.11</ele>
  <time>2026-09-02T22:10:36Z</time>
  <course>188.27</course>
  <speed>0.01414213562373095</speed>
  <fix>3d</fix>
</trkpt>
<trkpt lat="33.810313" lon="-118.393867">
  <ele>-0.12</ele>
  <time>2026-09-02T22:10:36Z</time>
  <course>0.0</course>
  <speed>0.0</speed>
  <fix>3d</fix>
</trkpt>
<trkpt lat="33.810313" lon="-118.393867">
  <ele>-0.107</ele>
  <time>2026-09-02T22:10:36Z</time>
  <course>188.26</course>
  <speed>0.01414213562373095</speed>
  <fix>3d</fix>
</trkpt>
<trkpt lat="33.810313" lon="-118.393867">
  <ele>-0.12</ele>
  <time>2026-09-02T22:10:36Z</time>
  <course>0.0</course>
  <speed>0.0</speed>
  <fix>3d</fix>
</trkpt>
<trkpt lat="33.810313" lon="-118.393867">
  <ele>-0.104</ele>
  <time>2026-09-02T22:10:36Z</time>
  <course>188.25</course>
  <speed>0.01414213562373095</speed>
  <fix>3d</fix>
</trkpt>
<trkpt lat="33.810313" lon="-118.393867">
  <ele>-0.12</ele>
  <time>2026-09-02T22:10:36Z</time>
  <course>0.0</course>
  <speed>0.0</speed>
  <fix>3d</fix>
</trkpt>
<trkpt lat="33.810313" lon="-118.393867">
  <ele>-0.102</ele>
  <time>2026-09-02T22:10:36Z</time>
  <course>188.24</course>
  <speed>0.01414213562373095</speed>
  <fix>3d</fix>
</trkpt>
<trkpt lat="33.810313" lon="-118.393867">
  <ele>-0.12</ele>
  <time>2026-09-02T22:10:36Z</time>
  <course>0.0</course>
  <speed>0.0</speed>
  <fix>3d</fix>
</trkpt>
<trkpt lat="33.810313" lon="-118.393867">
  <ele>-0.101</ele>
  <time>2026-09-02T22:10:36Z</time>
  <course>188.24</course>
  <speed>0.01414213562373095</speed>
  <fix>3d</fix>
</trkpt>
<trkpt lat="33.810313" lon="-118.393867">
  <ele>-0.12</ele>
  <time>2026-09-02T22:10:36Z</time>
  <course>0.0</course>
  <speed>0.0</speed>
  <fix>3d</fix>
</trkpt>
<trkpt lat="33.810313" lon="-118.393867">
  <ele>-0.103</ele>
  <time>2026-09-02T22:10:36Z</time>
  <course>188.23</course>
  <speed>0.01414213562373095</speed>
  <fix>3d</fix>
</trkpt>
<trkpt lat="33.810313" lon="-118.393867">
  <ele>-0.12</ele>
  <time>2026-09-02T22:10:36Z</time>
  <course>0.0</course>
  <speed>0.0</speed>
  <fix>3d</fix>
</trkpt>
<trkpt lat="33.810313" lon="-118.393867">
  <ele>-0.106</ele>
  <time>2026-09-02T22:10:37Z</time>
  <course>188.22</course>
  <speed>0.01414213562373095</speed>
  <fix>3d</fix>
</trkpt>
<trkpt lat="33.810313" lon="-118.393867">
  <ele>-0.12</ele>
  <time>2026-09-02T22:10:37Z</time>
  <course>0.0</course>
  <speed>0.0</speed>
  <fix>3d</fix>
</trkpt>
<trkpt lat="33.810313" lon="-118.393867">
  <ele>-0.107</ele>
  <time>2026-09-02T22:10:37Z</time>
  <course>188.21</course>
  <speed>0.01414213562373095</speed>
  <fix>3d</fix>
</trkpt>
<trkpt lat="33.810313" lon="-118.393867">
  <ele>-0.12</ele>
  <time>2026-09-02T22:10:37Z</time>
  <course>0.0</course>
  <speed>0.0</speed>
  <fix>3d</fix>
</trkpt>
<trkpt lat="33.810313" lon="-118.393867">
  <ele>-0.108</ele>
  <time>2026-09-02T22:10:37Z</time>
  <course>188.2</course>
  <speed>0.01414213562373095</speed>
  <fix>3d</fix>
</trkpt>
<trkpt lat="33.810313" lon="-118.393867">
  <ele>-0.12</ele>
  <time>2026-09-02T22:10:37Z</time>
  <course>0.0</course>
  <speed>0.0</speed>
  <fix>3d</fix>
</trkpt>
<trkpt lat="33.810313" lon="-118.393867">
  <ele>-0.109</ele>
  <time>2026-09-02T22:10:37Z</time>
  <course>188.19</course>
  <speed>0.01414213562373095</speed>
  <fix>3d</fix>
</trkpt>
<trkpt lat="33.810313" lon="-118.393867">
  <ele>-0.12</ele>
  <time>2026-09-02T22:10:37Z</time>
  <course>0.0</course>
  <speed>0.0</speed>
  <fix>3d</fix>
</trkpt>
<trkpt lat="33.810313" lon="-118.393867">
  <ele>-0.109</ele>
  <time>2026-09-02T22:10:37Z</time>
  <course>188.19</course>
  <speed>0.01414213562373095</speed>
  <fix>3d</fix>
</trkpt>
<trkpt lat="33.810313" lon="-118.393867">
  <ele>-0.12</ele>
  <time>2026-09-02T22:10:37Z</time>
  <course>0.0</course>
  <speed>0.0</speed>
  <fix>3d</fix>
</trkpt>
<trkpt lat="33.810313" lon="-118.393867">
  <ele>-0.11</ele>
  <time>2026-09-02T22:10:37Z</time>
  <course>188.18</course>
  <speed>0.01414213562373095</speed>
  <fix>3d</fix>
</trkpt>
<trkpt lat="33.810313" lon="-118.393867">
  <ele>-0.12</ele>
  <time>2026-09-02T22:10:37Z</time>
  <course>0.0</course>
  <speed>0.0</speed>
  <fix>3d</fix>
</trkpt>
<trkpt lat="33.810313" lon="-118.393867">
  <ele>-0.111</ele>
  <time>2026-09-02T22:10:37Z</time>
  <course>188.17</course>
  <speed>0.01414213562373095</speed>
  <fix>3d</fix>
</trkpt>
<trkpt lat="33.810313" lon="-118.393867">
  <ele>-0.12</ele>
  <time>2026-09-02T22:10:37Z</time>
  <course>0.0</course>
  <speed>0.0</speed>
  <fix>3d</fix>
</trkpt>
<trkpt lat="33.810313" lon="-118.393867">
  <ele>-0.11</ele>
  <time>2026-09-02T22:10:37Z</time>
  <course>188.16</course>
  <speed>0.01414213562373095</speed>
  <fix>3d</fix>
</trkpt>
<trkpt lat="33.810313" lon="-118.393867">
  <ele>-0.12</ele>
  <time>2026-09-02T22:10:37Z</time>
  <course>0.0</course>
  <speed>0.0</speed>
  <fix>3d</fix>
</trkpt>
<trkpt lat="33.810313" lon="-118.393867">
  <ele>-0.108</ele>
  <time>2026-09-02T22:10:37Z</time>
  <course>188.15</course>
  <speed>0.01414213562373095</speed>
  <fix>3d</fix>
</trkpt>
<trkpt lat="33.810313" lon="-118.393867">
  <ele>-0.12</ele>
  <time>2026-09-02T22:10:37Z</time>
  <course>0.0</course>
  <speed>0.0</speed>
  <fix>3d</fix>
</trkpt>
<trkpt lat="33.810313" lon="-118.393867">
  <ele>-0.107</ele>
  <time>2026-09-02T22:10:37Z</time>
  <course>188.14</course>
  <speed>0.01414213562373095</speed>
  <fix>3d</fix>
</trkpt>
<trkpt lat="33.810313" lon="-118.393867">
  <ele>-0.12</ele>
  <time>2026-09-02T22:10:37Z</time>
  <course>0.0</course>
  <speed>0.0</speed>
  <fix>3d</fix>
</trkpt>
<trkpt lat="33.810313" lon="-118.393867">
  <ele>-0.106</ele>
  <time>2026-09-02T22:10:38Z</time>
  <course>188.14</course>
  <speed>0.01414213562373095</speed>
  <fix>3d</fix>
</trkpt>
<trkpt lat="33.810313" lon="-118.393867">
  <ele>-0.12</ele>
  <time>2026-09-02T22:10:38Z</time>
  <course>0.0</course>
  <speed>0.0</speed>
  <fix>3d</fix>
</trkpt>
<trkpt lat="33.810313" lon="-118.393867">
  <ele>-0.108</ele>
  <time>2026-09-02T22:10:38Z</time>
  <course>188.13</course>
  <speed>0.01414213562373095</speed>
  <fix>3d</fix>
</trkpt>
<trkpt lat="33.810313" lon="-118.393867">
  <ele>-0.12</ele>
  <time>2026-09-02T22:10:38Z</time>
  <course>0.0</course>
  <speed>0.0</speed>
  <fix>3d</fix>
</trkpt>
<trkpt lat="33.810313" lon="-118.393867">
  <ele>-0.111</ele>
  <time>2026-09-02T22:10:38Z</time>
  <course>188.12</course>
  <speed>0.01414213562373095</speed>
  <fix>3d</fix>
</trkpt>
<trkpt lat="33.810313" lon="-118.393867">
  <ele>-0.12</ele>
  <time>2026-09-02T22:10:38Z</time>
  <course>0.0</course>
  <speed>0.0</speed>
  <fix>3d</fix>
</trkpt>
<trkpt lat="33.810313" lon="-118.393867">
  <ele>-0.114</ele>
  <time>2026-09-02T22:10:38Z</time>
  <course>188.11</course>
  <speed>0.01414213562373095</speed>
  <fix>3d</fix>
</trkpt>
<trkpt lat="33.810313" lon="-118.393867">
  <ele>-0.12</ele>
  <time>2026-09-02T22:10:38Z</time>
  <course>0.0</course>
  <speed>0.0</speed>
  <fix>3d</fix>
</trkpt>
<trkpt lat="33.810313" lon="-118.393867">
  <ele>-0.117</ele>
  <time>2026-09-02T22:10:38Z</time>
  <course>188.1</course>
  <speed>0.01414213562373095</speed>
  <fix>3d</fix>
</trkpt>
<trkpt lat="33.810313" lon="-118.393867">
  <ele>-0.12</ele>
  <time>2026-09-02T22:10:38Z</time>
  <course>0.0</course>
  <speed>0.0</speed>
  <fix>3d</fix>
</trkpt>
<trkpt lat="33.810313" lon="-118.393867">
  <ele>-0.118</ele>
  <time>2026-09-02T22:10:38Z</time>
  <course>188.09</course>
  <speed>0.01414213562373095</speed>
  <fix>3d</fix>
</trkpt>
<trkpt lat="33.810313" lon="-118.393867">
  <ele>-0.12</ele>
  <time>2026-09-02T22:10:38Z</time>
  <course>0.0</course>
  <speed>0.0</speed>
  <fix>3d</fix>
</trkpt>
<trkpt lat="33.810313" lon="-118.393867">
  <ele>-0.117</ele>
  <time>2026-09-02T22:10:38Z</time>
  <course>188.09</course>
  <speed>0.01414213562373095</speed>
  <fix>3d</fix>
</trkpt>
<trkpt lat="33.810313" lon="-118.393867">
  <ele>-0.12</ele>
  <time>2026-09-02T22:10:38Z</time>
  <course>0.0</course>
  <speed>0.0</speed>
  <fix>3d</fix>
</trkpt>
<trkpt lat="33.810313" lon="-118.393867">
  <ele>-0.115</ele>
  <time>2026-09-02T22:10:38Z</time>
  <course>188.08</course>
  <speed>0.01414213562373095</speed>
  <fix>3d</fix>
</trkpt>
<trkpt lat="33.810313" lon="-118.393867">
  <ele>-0.12</ele>
  <time>2026-09-02T22:10:38Z</time>
  <course>0.0</course>
  <speed>0.0</speed>
  <fix>3d</fix>
</trkpt>
<trkpt lat="33.810313" lon="-118.393867">
  <ele>-0.114</ele>
  <time>2026-09-02T22:10:38Z</time>
  <course>188.07</course>
  <speed>0.022360679774997897</speed>
  <fix>3d</fix>
</trkpt>
<trkpt lat="33.810313" lon="-118.393867">
  <ele>-0.12</ele>
  <time>2026-09-02T22:10:38Z</time>
  <course>0.0</course>
  <speed>0.0</speed>
  <fix>3d</fix>
</trkpt>
<trkpt lat="33.810313" lon="-118.393867">
  <ele>-0.113</ele>
  <time>2026-09-02T22:10:38Z</time>
  <course>188.06</course>
  <speed>0.022360679774997897</speed>
  <fix>3d</fix>
</trkpt>
<trkpt lat="33.810313" lon="-118.393867">
  <ele>-0.12</ele>
  <time>2026-09-02T22:10:38Z</time>
  <course>0.0</course>
  <speed>0.0</speed>
  <fix>3d</fix>
</trkpt>
<trkpt lat="33.810313" lon="-118.393867">
  <ele>-0.111</ele>
  <time>2026-09-02T22:10:39Z</time>
  <course>188.05</course>
  <speed>0.022360679774997897</speed>
  <fix>3d</fix>
</trkpt>
<trkpt lat="33.810313" lon="-118.393867">
  <ele>-0.12</ele>
  <time>2026-09-02T22:10:39Z</time>
  <course>0.0</course>
  <speed>0.0</speed>
  <fix>3d</fix>
</trkpt>
<trkpt lat="33.810313" lon="-118.393867">
  <ele>-0.109</ele>
  <time>2026-09-02T22:10:39Z</time>
  <course>188.05</course>
  <speed>0.022360679774997897</speed>
  <fix>3d</fix>
</trkpt>
<trkpt lat="33.810313" lon="-118.393867">
  <ele>-0.12</ele>
  <time>2026-09-02T22:10:39Z</time>
  <course>0.0</course>
  <speed>0.0</speed>
  <fix>3d</fix>
</trkpt>
<trkpt lat="33.810313" lon="-118.393867">
  <ele>-0.108</ele>
  <time>2026-09-02T22:10:39Z</time>
  <course>188.04</course>
  <speed>0.022360679774997897</speed>
  <fix>3d</fix>
</trkpt>
<trkpt lat="33.810313" lon="-118.393867">
  <ele>-0.12</ele>
  <time>2026-09-02T22:10:39Z</time>
  <course>0.0</course>
  <speed>0.0</speed>
  <fix>3d</fix>
</trkpt>
<trkpt lat="33.810313" lon="-118.393867">
  <ele>-0.109</ele>
  <time>2026-09-02T22:10:39Z</time>
  <course>188.03</course>
  <speed>0.022360679774997897</speed>
  <fix>3d</fix>
</trkpt>
<trkpt lat="33.810313" lon="-118.393867">
  <ele>-0.12</ele>
  <time>2026-09-02T22:10:39Z</time>
  <course>0.0</course>
  <speed>0.0</speed>
  <fix>3d</fix>
</trkpt>
<trkpt lat="33.810313" lon="-118.393867">
  <ele>-0.111</ele>
  <time>2026-09-02T22:10:39Z</time>
  <course>188.02</course>
  <speed>0.022360679774997897</speed>
  <fix>3d</fix>
</trkpt>
<trkpt lat="33.810313" lon="-118.393867">
  <ele>-0.12</ele>
  <time>2026-09-02T22:10:39Z</time>
  <course>0.0</course>
  <speed>0.0</speed>
  <fix>3d</fix>
</trkpt>
<trkpt lat="33.810313" lon="-118.393867">
  <ele>-0.114</ele>
  <time>2026-09-02T22:10:39Z</time>
  <course>188.01</course>
  <speed>0.022360679774997897</speed>
  <fix>3d</fix>
</trkpt>
<trkpt lat="33.810313" lon="-118.393867">
  <ele>-0.12</ele>
  <time>2026-09-02T22:10:39Z</time>
  <course>0.0</course>
  <speed>0.0</speed>
  <fix>3d</fix>
</trkpt>
<trkpt lat="33.810313" lon="-118.393867">
  <ele>-0.118</ele>
  <time>2026-09-02T22:10:39Z</time>
  <course>188.01</course>
  <speed>0.022360679774997897</speed>
  <fix>3d</fix>
</trkpt>
<trkpt lat="33.810313" lon="-118.393867">
  <ele>-0.12</ele>
  <time>2026-09-02T22:10:39Z</time>
  <course>0.0</course>
  <speed>0.0</speed>
  <fix>3d</fix>
</trkpt>
<trkpt lat="33.810313" lon="-118.393867">
  <ele>-0.12</ele>
  <time>2026-09-02T22:10:39Z</time>
  <course>188.0</course>
  <speed>0.022360679774997897</speed>
  <fix>3d</fix>
</trkpt>
<trkpt lat="33.810313" lon="-118.393867">
  <ele>-0.12</ele>
  <time>2026-09-02T22:10:39Z</time>
  <course>0.0</course>
  <speed>0.0</speed>
  <fix>3d</fix>
</trkpt>
<trkpt lat="33.810313" lon="-118.393867">
  <ele>-0.121</ele>
  <time>2026-09-02T22:10:39Z</time>
  <course>187.99</course>
  <speed>0.022360679774997897</speed>
  <fix>3d</fix>
</trkpt>
<trkpt lat="33.810313" lon="-118.393867">
  <ele>-0.12</ele>
  <time>2026-09-02T22:10:39Z</time>
  <course>0.0</course>
  <speed>0.0</speed>
  <fix>3d</fix>
</trkpt>
<trkpt lat="33.810313" lon="-118.393867">
  <ele>-0.12</ele>
  <time>2026-09-02T22:10:39Z</time>
  <course>187.98</course>
  <speed>0.022360679774997897</speed>
  <fix>3d</fix>
</trkpt>
<trkpt lat="33.810313" lon="-118.393867">
  <ele>-0.12</ele>
  <time>2026-09-02T22:10:39Z</time>
  <course>0.0</course>
  <speed>0.0</speed>
  <fix>3d</fix>
</trkpt>
<trkpt lat="33.810313" lon="-118.393867">
  <ele>-0.119</ele>
  <time>2026-09-02T22:10:40Z</time>
  <course>187.97</course>
  <speed>0.022360679774997897</speed>
  <fix>3d</fix>
</trkpt>
<trkpt lat="33.810313" lon="-118.393867">
  <ele>-0.12</ele>
  <time>2026-09-02T22:10:40Z</time>
  <course>0.0</course>
  <speed>0.0</speed>
  <fix>3d</fix>
</trkpt>
<trkpt lat="33.810313" lon="-118.393867">
  <ele>-0.118</ele>
  <time>2026-09-02T22:10:40Z</time>
  <course>187.96</course>
  <speed>0.022360679774997897</speed>
  <fix>3d</fix>
</trkpt>
<trkpt lat="33.810313" lon="-118.393867">
  <ele>-0.12</ele>
  <time>2026-09-02T22:10:40Z</time>
  <course>0.0</course>
  <speed>0.0</speed>
  <fix>3d</fix>
</trkpt>
<trkpt lat="33.810313" lon="-118.393867">
  <ele>-0.116</ele>
  <time>2026-09-02T22:10:40Z</time>
  <course>187.96</course>
  <speed>0.022360679774997897</speed>
  <fix>3d</fix>
</trkpt>
<trkpt lat="33.810313" lon="-118.393867">
  <ele>-0.12</ele>
  <time>2026-09-02T22:10:40Z</time>
  <course>0.0</course>
  <speed>0.0</speed>
  <fix>3d</fix>
</trkpt>
<trkpt lat="33.810313" lon="-118.393867">
  <ele>-0.115</ele>
  <time>2026-09-02T22:10:40Z</time>
  <course>187.95</course>
  <speed>0.022360679774997897</speed>
  <fix>3d</fix>
</trkpt>
<trkpt lat="33.810313" lon="-118.393867">
  <ele>-0.12</ele>
  <time>2026-09-02T22:10:40Z</time>
  <course>0.0</course>
  <speed>0.0</speed>
  <fix>3d</fix>
</trkpt>
<trkpt lat="33.810313" lon="-118.393867">
  <ele>-0.116</ele>
  <time>2026-09-02T22:10:40Z</time>
  <course>187.94</course>
  <speed>0.022360679774997897</speed>
  <fix>3d</fix>
</trkpt>
<trkpt lat="33.810313" lon="-118.393867">
  <ele>-0.12</ele>
  <time>2026-09-02T22:10:40Z</time>
  <course>0.0</course>
  <speed>0.0</speed>
  <fix>3d</fix>
</trkpt>
<trkpt lat="33.810313" lon="-118.393867">
  <ele>-0.117</ele>
  <time>2026-09-02T22:10:40Z</time>
  <course>187.94</course>
  <speed>0.022360679774997897</speed>
  <fix>3d</fix>
</trkpt>
<trkpt lat="33.810313" lon="-118.393867">
  <ele>-0.12</ele>
  <time>2026-09-02T22:10:40Z</time>
  <course>0.0</course>
  <speed>0.0</speed>
  <fix>3d</fix>
</trkpt>
<trkpt lat="33.810313" lon="-118.393867">
  <ele>-0.119</ele>
  <time>2026-09-02T22:10:40Z</time>
  <course>187.93</course>
  <speed>0.022360679774997897</speed>
  <fix>3d</fix>
</trkpt>
<trkpt lat="33.810313" lon="-118.393867">
  <ele>-0.12</ele>
  <time>2026-09-02T22:10:40Z</time>
  <course>0.0</course>
  <speed>0.0</speed>
  <fix>3d</fix>
</trkpt>
<trkpt lat="33.810313" lon="-118.393867">
  <ele>-0.121</ele>
  <time>2026-09-02T22:10:40Z</time>
  <course>187.92</course>
  <speed>0.022360679774997897</speed>
  <fix>3d</fix>
</trkpt>
<trkpt lat="33.810313" lon="-118.393867">
  <ele>-0.12</ele>
  <time>2026-09-02T22:10:40Z</time>
  <course>0.0</course>
  <speed>0.0</speed>
  <fix>3d</fix>
</trkpt>
<trkpt lat="33.810313" lon="-118.393867">
  <ele>-0.122</ele>
  <time>2026-09-02T22:10:40Z</time>
  <course>187.91</course>
  <speed>0.022360679774997897</speed>
  <fix>3d</fix>
</trkpt>
<trkpt lat="33.810313" lon="-118.393867">
  <ele>-0.12</ele>
  <time>2026-09-02T22:10:40Z</time>
  <course>0.0</course>
  <speed>0.0</speed>
  <fix>3d</fix>
</trkpt>
<trkpt lat="33.810313" lon="-118.393867">
  <ele>-0.122</ele>
  <time>2026-09-02T22:10:40Z</time>
  <course>187.91</course>
  <speed>0.022360679774997897</speed>
  <fix>3d</fix>
</trkpt>
<trkpt lat="33.810313" lon="-118.393867">
  <ele>-0.12</ele>
  <time>2026-09-02T22:10:40Z</time>
  <course>0.0</course>
  <speed>0.0</speed>
  <fix>3d</fix>
</trkpt>
<trkpt lat="33.810313" lon="-118.393867">
  <ele>-0.12</ele>
  <time>2026-09-02T22:10:40Z</time>
  <course>187.9</course>
  <speed>0.022360679774997897</speed>
  <fix>3d</fix>
</trkpt>
<trkpt lat="33.810313" lon="-118.393867">
  <ele>-0.12</ele>
  <time>2026-09-02T22:10:40Z</time>
  <course>0.0</course>
  <speed>0.0</speed>
  <fix>3d</fix>
</trkpt>
<trkpt lat="33.810313" lon="-118.393867">
  <ele>-0.118</ele>
  <time>2026-09-02T22:10:41Z</time>
  <course>187.89</course>
  <speed>0.022360679774997897</speed>
  <fix>3d</fix>
</trkpt>
<trkpt lat="33.810313" lon="-118.393867">
  <ele>-0.12</ele>
  <time>2026-09-02T22:10:41Z</time>
  <course>0.0</course>
  <speed>0.0</speed>
  <fix>3d</fix>
</trkpt>
<trkpt lat="33.810313" lon="-118.393867">
  <ele>-0.116</ele>
  <time>2026-09-02T22:10:41Z</time>
  <course>187.88</course>
  <speed>0.022360679774997897</speed>
  <fix>3d</fix>
</trkpt>
<trkpt lat="33.810313" lon="-118.393867">
  <ele>-0.12</ele>
  <time>2026-09-02T22:10:41Z</time>
  <course>0.0</course>
  <speed>0.0</speed>
  <fix>3d</fix>
</trkpt>
<trkpt lat="33.810313" lon="-118.393867">
  <ele>-0.115</ele>
  <time>2026-09-02T22:10:41Z</time>
  <course>187.87</course>
  <speed>0.022360679774997897</speed>
  <fix>3d</fix>
</trkpt>
<trkpt lat="33.810313" lon="-118.393867">
  <ele>-0.12</ele>
  <time>2026-09-02T22:10:41Z</time>
  <course>0.0</course>
  <speed>0.0</speed>
  <fix>3d</fix>
</trkpt>
<trkpt lat="33.810313" lon="-118.393867">
  <ele>-0.113</ele>
  <time>2026-09-02T22:10:41Z</time>
  <course>187.87</course>
  <speed>0.022360679774997897</speed>
  <fix>3d</fix>
</trkpt>
<trkpt lat="33.810313" lon="-118.393867">
  <ele>-0.12</ele>
  <time>2026-09-02T22:10:41Z</time>
  <course>0.0</course>
  <speed>0.0</speed>
  <fix>3d</fix>
</trkpt>
<trkpt lat="33.810313" lon="-118.393867">
  <ele>-0.111</ele>
  <time>2026-09-02T22:10:41Z</time>
  <course>187.86</course>
  <speed>0.022360679774997897</speed>
  <fix>3d</fix>
</trkpt>
<trkpt lat="33.810313" lon="-118.393867">
  <ele>-0.12</ele>
  <time>2026-09-02T22:10:41Z</time>
  <course>0.0</course>
  <speed>0.0</speed>
  <fix>3d</fix>
</trkpt>
<trkpt lat="33.810313" lon="-118.393867">
  <ele>-0.11</ele>
  <time>2026-09-02T22:10:41Z</time>
  <course>187.85</course>
  <speed>0.022360679774997897</speed>
  <fix>3d</fix>
</trkpt>
<trkpt lat="33.810313" lon="-118.393867">
  <ele>-0.12</ele>
  <time>2026-09-02T22:10:41Z</time>
  <course>0.0</course>
  <speed>0.0</speed>
  <fix>3d</fix>
</trkpt>
<trkpt lat="33.810313" lon="-118.393867">
  <ele>-0.109</ele>
  <time>2026-09-02T22:10:41Z</time>
  <course>187.84</course>
  <speed>0.022360679774997897</speed>
  <fix>3d</fix>
</trkpt>
<trkpt lat="33.810313" lon="-118.393867">
  <ele>-0.12</ele>
  <time>2026-09-02T22:10:41Z</time>
  <course>0.0</course>
  <speed>0.0</speed>
  <fix>3d</fix>
</trkpt>
<trkpt lat="33.810313" lon="-118.393867">
  <ele>-0.109</ele>
  <time>2026-09-02T22:10:41Z</time>
  <course>187.84</course>
  <speed>0.022360679774997897</speed>
  <fix>3d</fix>
</trkpt>
<trkpt lat="33.810313" lon="-118.393867">
  <ele>-0.12</ele>
  <time>2026-09-02T22:10:41Z</time>
  <course>0.0</course>
  <speed>0.0</speed>
  <fix>3d</fix>
</trkpt>
<trkpt lat="33.810313" lon="-118.393867">
  <ele>-0.109</ele>
  <time>2026-09-02T22:10:41Z</time>
  <course>187.83</course>
  <speed>0.022360679774997897</speed>
  <fix>3d</fix>
</trkpt>
<trkpt lat="33.810313" lon="-118.393867">
  <ele>-0.12</ele>
  <time>2026-09-02T22:10:41Z</time>
  <course>0.0</course>
  <speed>0.0</speed>
  <fix>3d</fix>
</trkpt>
<trkpt lat="33.810313" lon="-118.393867">
  <ele>-0.109</ele>
  <time>2026-09-02T22:10:41Z</time>
  <course>187.82</course>
  <speed>0.022360679774997897</speed>
  <fix>3d</fix>
</trkpt>
<trkpt lat="33.810313" lon="-118.393867">
  <ele>-0.12</ele>
  <time>2026-09-02T22:10:41Z</time>
  <course>0.0</course>
  <speed>0.0</speed>
  <fix>3d</fix>
</trkpt>
<trkpt lat="33.810313" lon="-118.393867">
  <ele>-0.108</ele>
  <time>2026-09-02T22:10:42Z</time>
  <course>187.81</course>
  <speed>0.022360679774997897</speed>
  <fix>3d</fix>
</trkpt>
<trkpt lat="33.810313" lon="-118.393867">
  <ele>-0.12</ele>
  <time>2026-09-02T22:10:42Z</time>
  <course>0.0</course>
  <speed>0.0</speed>
  <fix>3d</fix>
</trkpt>
<trkpt lat="33.810313" lon="-118.393867">
  <ele>-0.106</ele>
  <time>2026-09-02T22:10:42Z</time>
  <course>187.8</course>
  <speed>0.022360679774997897</speed>
  <fix>3d</fix>
</trkpt>
<trkpt lat="33.810313" lon="-118.393867">
  <ele>-0.12</ele>
  <time>2026-09-02T22:10:42Z</time>
  <course>0.0</course>
  <speed>0.0</speed>
  <fix>3d</fix>
</trkpt>
<trkpt lat="33.810313" lon="-118.393867">
  <ele>-0.104</ele>
  <time>2026-09-02T22:10:42Z</time>
  <course>187.8</course>
  <speed>0.022360679774997897</speed>
  <fix>3d</fix>
</trkpt>
<trkpt lat="33.810313" lon="-118.393867">
  <ele>-0.12</ele>
  <time>2026-09-02T22:10:42Z</time>
  <course>0.0</course>
  <speed>0.0</speed>
  <fix>3d</fix>
</trkpt>
<trkpt lat="33.810313" lon="-118.393867">
  <ele>-0.101</ele>
  <time>2026-09-02T22:10:42Z</time>
  <course>187.79</course>
  <speed>0.022360679774997897</speed>
  <fix>3d</fix>
</trkpt>
<trkpt lat="33.810313" lon="-118.393867">
  <ele>-0.12</ele>
  <time>2026-09-02T22:10:42Z</time>
  <course>0.0</course>
  <speed>0.0</speed>
  <fix>3d</fix>
</trkpt>
<trkpt lat="33.810313" lon="-118.393867">
  <ele>-0.1</ele>
  <time>2026-09-02T22:10:42Z</time>
  <course>187.78</course>
  <speed>0.022360679774997897</speed>
  <fix>3d</fix>
</trkpt>
<trkpt lat="33.810313" lon="-118.393867">
  <ele>-0.12</ele>
  <time>2026-09-02T22:10:42Z</time>
  <course>0.0</course>
  <speed>0.0</speed>
  <fix>3d</fix>
</trkpt>
<trkpt lat="33.810313" lon="-118.393867">
  <ele>-0.099</ele>
  <time>2026-09-02T22:10:42Z</time>
  <course>187.77</course>
  <speed>0.0282842712474619</speed>
  <fix>3d</fix>
</trkpt>
<trkpt lat="33.810313" lon="-118.393867">
  <ele>-0.12</ele>
  <time>2026-09-02T22:10:42Z</time>
  <course>0.0</course>
  <speed>0.0</speed>
  <fix>3d</fix>
</trkpt>
<trkpt lat="33.810313" lon="-118.393867">
  <ele>-0.099</ele>
  <time>2026-09-02T22:10:42Z</time>
  <course>187.77</course>
  <speed>0.0282842712474619</speed>
  <fix>3d</fix>
</trkpt>
<trkpt lat="33.810313" lon="-118.393867">
  <ele>-0.12</ele>
  <time>2026-09-02T22:10:42Z</time>
  <course>0.0</course>
  <speed>0.0</speed>
  <fix>3d</fix>
</trkpt>
<trkpt lat="33.810313" lon="-118.393867">
  <ele>-0.1</ele>
  <time>2026-09-02T22:10:42Z</time>
  <course>187.76</course>
  <speed>0.0282842712474619</speed>
  <fix>3d</fix>
</trkpt>
<trkpt lat="33.810313" lon="-118.393867">
  <ele>-0.12</ele>
  <time>2026-09-02T22:10:42Z</time>
  <course>0.0</course>
  <speed>0.0</speed>
  <fix>3d</fix>
</trkpt>
<trkpt lat="33.810313" lon="-118.393867">
  <ele>-0.101</ele>
  <time>2026-09-02T22:10:42Z</time>
  <course>187.75</course>
  <speed>0.0282842712474619</speed>
  <fix>3d</fix>
</trkpt>
<trkpt lat="33.810313" lon="-118.393867">
  <ele>-0.12</ele>
  <time>2026-09-02T22:10:42Z</time>
  <course>0.0</course>
  <speed>0.0</speed>
  <fix>3d</fix>
</trkpt>
<trkpt lat="33.810313" lon="-118.393867">
  <ele>-0.103</ele>
  <time>2026-09-02T22:10:42Z</time>
  <course>187.74</course>
  <speed>0.0282842712474619</speed>
  <fix>3d</fix>
</trkpt>
<trkpt lat="33.810313" lon="-118.393867">
  <ele>-0.12</ele>
  <time>2026-09-02T22:10:42Z</time>
  <course>0.0</course>
  <speed>0.0</speed>
  <fix>3d</fix>
</trkpt>
<trkpt lat="33.810313" lon="-118.393867">
  <ele>-0.104</ele>
  <time>2026-09-02T22:10:43Z</time>
  <course>187.74</course>
  <speed>0.0282842712474619</speed>
  <fix>3d</fix>
</trkpt>
<trkpt lat="33.810313" lon="-118.393867">
  <ele>-0.12</ele>
  <time>2026-09-02T22:10:43Z</time>
  <course>0.0</course>
  <speed>0.0</speed>
  <fix>3d</fix>
</trkpt>
<trkpt lat="33.810313" lon="-118.393867">
  <ele>-0.104</ele>
  <time>2026-09-02T22:10:43Z</time>
  <course>187.73</course>
  <speed>0.0282842712474619</speed>
  <fix>3d</fix>
</trkpt>
<trkpt lat="33.810313" lon="-118.393867">
  <ele>-0.12</ele>
  <time>2026-09-02T22:10:43Z</time>
  <course>0.0</course>
  <speed>0.0</speed>
  <fix>3d</fix>
</trkpt>
<trkpt lat="33.810313" lon="-118.393867">
  <ele>-0.103</ele>
  <time>2026-09-02T22:10:43Z</time>
  <course>187.72</course>
  <speed>0.0282842712474619</speed>
  <fix>3d</fix>
</trkpt>
<trkpt lat="33.810313" lon="-118.393867">
  <ele>-0.12</ele>
  <time>2026-09-02T22:10:43Z</time>
  <course>0.0</course>
  <speed>0.0</speed>
  <fix>3d</fix>
</trkpt>
<trkpt lat="33.810313" lon="-118.393867">
  <ele>-0.102</ele>
  <time>2026-09-02T22:10:43Z</time>
  <course>187.71</course>
  <speed>0.0282842712474619</speed>
  <fix>3d</fix>
</trkpt>
<trkpt lat="33.810313" lon="-118.393867">
  <ele>-0.12</ele>
  <time>2026-09-02T22:10:43Z</time>
  <course>0.0</course>
  <speed>0.0</speed>
  <fix>3d</fix>
</trkpt>
<trkpt lat="33.810313" lon="-118.393867">
  <ele>-0.102</ele>
  <time>2026-09-02T22:10:43Z</time>
  <course>187.71</course>
  <speed>0.0282842712474619</speed>
  <fix>3d</fix>
</trkpt>
<trkpt lat="33.810313" lon="-118.393867">
  <ele>-0.12</ele>
  <time>2026-09-02T22:10:43Z</time>
  <course>0.0</course>
  <speed>0.0</speed>
  <fix>3d</fix>
</trkpt>
<trkpt lat="33.810313" lon="-118.393867">
  <ele>-0.102</ele>
  <time>2026-09-02T22:10:43Z</time>
  <course>187.7</course>
  <speed>0.0282842712474619</speed>
  <fix>3d</fix>
</trkpt>
<trkpt lat="33.810313" lon="-118.393867">
  <ele>-0.12</ele>
  <time>2026-09-02T22:10:43Z</time>
  <course>0.0</course>
  <speed>0.0</speed>
  <fix>3d</fix>
</trkpt>
<trkpt lat="33.810313" lon="-118.393867">
  <ele>-0.102</ele>
  <time>2026-09-02T22:10:43Z</time>
  <course>187.69</course>
  <speed>0.0282842712474619</speed>
  <fix>3d</fix>
</trkpt>
<trkpt lat="33.810313" lon="-118.393867">
  <ele>-0.12</ele>
  <time>2026-09-02T22:10:43Z</time>
  <course>0.0</course>
  <speed>0.0</speed>
  <fix>3d</fix>
</trkpt>
<trkpt lat="33.810313" lon="-118.393867">
  <ele>-0.104</ele>
  <time>2026-09-02T22:10:43Z</time>
  <course>187.69</course>
  <speed>0.0282842712474619</speed>
  <fix>3d</fix>
</trkpt>
<trkpt lat="33.810313" lon="-118.393867">
  <ele>-0.12</ele>
  <time>2026-09-02T22:10:43Z</time>
  <course>0.0</course>
  <speed>0.0</speed>
  <fix>3d</fix>
</trkpt>
<trkpt lat="33.810313" lon="-118.393867">
  <ele>-0.107</ele>
  <time>2026-09-02T22:10:43Z</time>
  <course>187.68</course>
  <speed>0.0282842712474619</speed>
  <fix>3d</fix>
</trkpt>
<trkpt lat="33.810313" lon="-118.393867">
  <ele>-0.12</ele>
  <time>2026-09-02T22:10:43Z</time>
  <course>0.0</course>
  <speed>0.0</speed>
  <fix>3d</fix>
</trkpt>
<trkpt lat="33.810313" lon="-118.393867">
  <ele>-0.11</ele>
  <time>2026-09-02T22:10:43Z</time>
  <course>187.67</course>
  <speed>0.0282842712474619</speed>
  <fix>3d</fix>
</trkpt>
<trkpt lat="33.810313" lon="-118.393867">
  <ele>-0.12</ele>
  <time>2026-09-02T22:10:43Z</time>
  <course>0.0</course>
  <speed>0.0</speed>
  <fix>3d</fix>
</trkpt>
<trkpt lat="33.810313" lon="-118.393867">
  <ele>-0.112</ele>
  <time>2026-09-02T22:10:44Z</time>
  <course>187.66</course>
  <speed>0.0282842712474619</speed>
  <fix>3d</fix>
</trkpt>
<trkpt lat="33.810313" lon="-118.393867">
  <ele>-0.12</ele>
  <time>2026-09-02T22:10:44Z</time>
  <course>0.0</course>
  <speed>0.0</speed>
  <fix>3d</fix>
</trkpt>
<trkpt lat="33.810313" lon="-118.393867">
  <ele>-0.112</ele>
  <time>2026-09-02T22:10:44Z</time>
  <course>187.66</course>
  <speed>0.0282842712474619</speed>
  <fix>3d</fix>
</trkpt>
<trkpt lat="33.810313" lon="-118.393867">
  <ele>-0.12</ele>
  <time>2026-09-02T22:10:44Z</time>
  <course>0.0</course>
  <speed>0.0</speed>
  <fix>3d</fix>
</trkpt>
<trkpt lat="33.810313" lon="-118.393867">
  <ele>-0.111</ele>
  <time>2026-09-02T22:10:44Z</time>
  <course>187.65</course>
  <speed>0.0282842712474619</speed>
  <fix>3d</fix>
</trkpt>
<trkpt lat="33.810313" lon="-118.393867">
  <ele>-0.12</ele>
  <time>2026-09-02T22:10:44Z</time>
  <course>0.0</course>
  <speed>0.0</speed>
  <fix>3d</fix>
</trkpt>
<trkpt lat="33.810313" lon="-118.393867">
  <ele>-0.11</ele>
  <time>2026-09-02T22:10:44Z</time>
  <course>187.64</course>
  <speed>0.0282842712474619</speed>
  <fix>3d</fix>
</trkpt>
<trkpt lat="33.810313" lon="-118.393867">
  <ele>-0.12</ele>
  <time>2026-09-02T22:10:44Z</time>
  <course>0.0</course>
  <speed>0.0</speed>
  <fix>3d</fix>
</trkpt>
<trkpt lat="33.810313" lon="-118.393867">
  <ele>-0.11</ele>
  <time>2026-09-02T22:10:44Z</time>
  <course>187.64</course>
  <speed>0.0282842712474619</speed>
  <fix>3d</fix>
</trkpt>
<trkpt lat="33.810313" lon="-118.393867">
  <ele>-0.12</ele>
  <time>2026-09-02T22:10:44Z</time>
  <course>0.0</course>
  <speed>0.0</speed>
  <fix>3d</fix>
</trkpt>
<trkpt lat="33.810313" lon="-118.393867">
  <ele>-0.109</ele>
  <time>2026-09-02T22:10:44Z</time>
  <course>187.63</course>
  <speed>0.0282842712474619</speed>
  <fix>3d</fix>
</trkpt>
<trkpt lat="33.810313" lon="-118.393867">
  <ele>-0.12</ele>
  <time>2026-09-02T22:10:44Z</time>
  <course>0.0</course>
  <speed>0.0</speed>
  <fix>3d</fix>
</trkpt>
<trkpt lat="33.810313" lon="-118.393867">
  <ele>-0.109</ele>
  <time>2026-09-02T22:10:44Z</time>
  <course>187.63</course>
  <speed>0.0282842712474619</speed>
  <fix>3d</fix>
</trkpt>
<trkpt lat="33.810313" lon="-118.393867">
  <ele>-0.12</ele>
  <time>2026-09-02T22:10:44Z</time>
  <course>0.0</course>
  <speed>0.0</speed>
  <fix>3d</fix>
</trkpt>
<trkpt lat="33.810313" lon="-118.393867">
  <ele>-0.11</ele>
  <time>2026-09-02T22:10:44Z</time>
  <course>187.62</course>
  <speed>0.0282842712474619</speed>
  <fix>3d</fix>
</trkpt>
<trkpt lat="33.810313" lon="-118.393867">
  <ele>-0.12</ele>
  <time>2026-09-02T22:10:44Z</time>
  <course>0.0</course>
  <speed>0.0</speed>
  <fix>3d</fix>
</trkpt>
<trkpt lat="33.810313" lon="-118.393867">
  <ele>-0.11</ele>
  <time>2026-09-02T22:10:44Z</time>
  <course>187.61</course>
  <speed>0.0282842712474619</speed>
  <fix>3d</fix>
</trkpt>
<trkpt lat="33.810313" lon="-118.393867">
  <ele>-0.12</ele>
  <time>2026-09-02T22:10:44Z</time>
  <course>0.0</course>
  <speed>0.0</speed>
  <fix>3d</fix>
</trkpt>
<trkpt lat="33.810313" lon="-118.393867">
  <ele>-0.11</ele>
  <time>2026-09-02T22:10:44Z</time>
  <course>187.61</course>
  <speed>0.03605551275463989</speed>
  <fix>3d</fix>
</trkpt>
<trkpt lat="33.810313" lon="-118.393867">
  <ele>-0.12</ele>
  <time>2026-09-02T22:10:44Z</time>
  <course>0.0</course>
  <speed>0.0</speed>
  <fix>3d</fix>
</trkpt>
<trkpt lat="33.810313" lon="-118.393867">
  <ele>-0.111</ele>
  <time>2026-09-02T22:10:45Z</time>
  <course>187.6</course>
  <speed>0.03605551275463989</speed>
  <fix>3d</fix>
</trkpt>
<trkpt lat="33.810313" lon="-118.393867">
  <ele>-0.12</ele>
  <time>2026-09-02T22:10:45Z</time>
  <course>0.0</course>
  <speed>0.0</speed>
  <fix>3d</fix>
</trkpt>
<trkpt lat="33.810313" lon="-118.393867">
  <ele>-0.112</ele>
  <time>2026-09-02T22:10:45Z</time>
  <course>187.59</course>
  <speed>0.03605551275463989</speed>
  <fix>3d</fix>
</trkpt>
<trkpt lat="33.810313" lon="-118.393867">
  <ele>-0.12</ele>
  <time>2026-09-02T22:10:45Z</time>
  <course>0.0</course>
  <speed>0.0</speed>
  <fix>3d</fix>
</trkpt>
<trkpt lat="33.810313" lon="-118.393867">
  <ele>-0.111</ele>
  <time>2026-09-02T22:10:45Z</time>
  <course>187.58</course>
  <speed>0.03605551275463989</speed>
  <fix>3d</fix>
</trkpt>
<trkpt lat="33.810313" lon="-118.393867">
  <ele>-0.12</ele>
  <time>2026-09-02T22:10:45Z</time>
  <course>0.0</course>
  <speed>0.0</speed>
  <fix>3d</fix>
</trkpt>
<trkpt lat="33.810313" lon="-118.393867">
  <ele>-0.11</ele>
  <time>2026-09-02T22:10:45Z</time>
  <course>187.58</course>
  <speed>0.03605551275463989</speed>
  <fix>3d</fix>
</trkpt>
<trkpt lat="33.810313" lon="-118.393867">
  <ele>-0.12</ele>
  <time>2026-09-02T22:10:45Z</time>
  <course>0.0</course>
  <speed>0.0</speed>
  <fix>3d</fix>
</trkpt>
<trkpt lat="33.810313" lon="-118.393867">
  <ele>-0.109</ele>
  <time>2026-09-02T22:10:45Z</time>
  <course>187.57</course>
  <speed>0.03605551275463989</speed>
  <fix>3d</fix>
</trkpt>
<trkpt lat="33.810313" lon="-118.393867">
  <ele>-0.12</ele>
  <time>2026-09-02T22:10:45Z</time>
  <course>0.0</course>
  <speed>0.0</speed>
  <fix>3d</fix>
</trkpt>
<trkpt lat="33.810313" lon="-118.393867">
  <ele>-0.109</ele>
  <time>2026-09-02T22:10:45Z</time>
  <course>187.56</course>
  <speed>0.03605551275463989</speed>
  <fix>3d</fix>
</trkpt>
<trkpt lat="33.810313" lon="-118.393867">
  <ele>-0.12</ele>
  <time>2026-09-02T22:10:45Z</time>
  <course>0.0</course>
  <speed>0.0</speed>
  <fix>3d</fix>
</trkpt>
<trkpt lat="33.810313" lon="-118.393867">
  <ele>-0.109</ele>
  <time>2026-09-02T22:10:45Z</time>
  <course>187.56</course>
  <speed>0.03605551275463989</speed>
  <fix>3d</fix>
</trkpt>
<trkpt lat="33.810313" lon="-118.393867">
  <ele>-0.12</ele>
  <time>2026-09-02T22:10:45Z</time>
  <course>0.0</course>
  <speed>0.0</speed>
  <fix>3d</fix>
</trkpt>
<trkpt lat="33.810313" lon="-118.393867">
  <ele>-0.108</ele>
  <time>2026-09-02T22:10:45Z</time>
  <course>187.55</course>
  <speed>0.03605551275463989</speed>
  <fix>3d</fix>
</trkpt>
<trkpt lat="33.810313" lon="-118.393867">
  <ele>-0.12</ele>
  <time>2026-09-02T22:10:45Z</time>
  <course>0.0</course>
  <speed>0.0</speed>
  <fix>3d</fix>
</trkpt>
<trkpt lat="33.810313" lon="-118.393867">
  <ele>-0.109</ele>
  <time>2026-09-02T22:10:45Z</time>
  <course>187.54</course>
  <speed>0.03605551275463989</speed>
  <fix>3d</fix>
</trkpt>
<trkpt lat="33.810313" lon="-118.393867">
  <ele>-0.12</ele>
  <time>2026-09-02T22:10:45Z</time>
  <course>0.0</course>
  <speed>0.0</speed>
  <fix>3d</fix>
</trkpt>
<trkpt lat="33.810313" lon="-118.393867">
  <ele>-0.11</ele>
  <time>2026-09-02T22:10:45Z</time>
  <course>187.54</course>
  <speed>0.03605551275463989</speed>
  <fix>3d</fix>
</trkpt>
<trkpt lat="33.810313" lon="-118.393867">
  <ele>-0.12</ele>
  <time>2026-09-02T22:10:45Z</time>
  <course>0.0</course>
  <speed>0.0</speed>
  <fix>3d</fix>
</trkpt>
<trkpt lat="33.810313" lon="-118.393867">
  <ele>-0.112</ele>
  <time>2026-09-02T22:10:46Z</time>
  <course>187.53</course>
  <speed>0.03605551275463989</speed>
  <fix>3d</fix>
</trkpt>
<trkpt lat="33.810313" lon="-118.393867">
  <ele>-0.12</ele>
  <time>2026-09-02T22:10:46Z</time>
  <course>0.0</course>
  <speed>0.0</speed>
  <fix>3d</fix>
</trkpt>
<trkpt lat="33.810313" lon="-118.393867">
  <ele>-0.114</ele>
  <time>2026-09-02T22:10:46Z</time>
  <course>187.52</course>
  <speed>0.03605551275463989</speed>
  <fix>3d</fix>
</trkpt>
<trkpt lat="33.810313" lon="-118.393867">
  <ele>-0.12</ele>
  <time>2026-09-02T22:10:46Z</time>
  <course>0.0</course>
  <speed>0.0</speed>
  <fix>3d</fix>
</trkpt>
<trkpt lat="33.810313" lon="-118.393867">
  <ele>-0.114</ele>
  <time>2026-09-02T22:10:46Z</time>
  <course>187.52</course>
  <speed>0.03605551275463989</speed>
  <fix>3d</fix>
</trkpt>
<trkpt lat="33.810313" lon="-118.393867">
  <ele>-0.12</ele>
  <time>2026-09-02T22:10:46Z</time>
  <course>0.0</course>
  <speed>0.0</speed>
  <fix>3d</fix>
</trkpt>
<trkpt lat="33.810313" lon="-118.393867">
  <ele>-0.114</ele>
  <time>2026-09-02T22:10:46Z</time>
  <course>187.51</course>
  <speed>0.03605551275463989</speed>
  <fix>3d</fix>
</trkpt>
<trkpt lat="33.810313" lon="-118.393867">
  <ele>-0.12</ele>
  <time>2026-09-02T22:10:46Z</time>
  <course>0.0</course>
  <speed>0.0</speed>
  <fix>3d</fix>
</trkpt>
<trkpt lat="33.810313" lon="-118.393867">
  <ele>-0.113</ele>
  <time>2026-09-02T22:10:46Z</time>
  <course>187.51</course>
  <speed>0.03605551275463989</speed>
  <fix>3d</fix>
</trkpt>
<trkpt lat="33.810313" lon="-118.393867">
  <ele>-0.12</ele>
  <time>2026-09-02T22:10:46Z</time>
  <course>0.0</course>
  <speed>0.0</speed>
  <fix>3d</fix>
</trkpt>
<trkpt lat="33.810313" lon="-118.393867">
  <ele>-0.112</ele>
  <time>2026-09-02T22:10:46Z</time>
  <course>187.5</course>
  <speed>0.03605551275463989</speed>
  <fix>3d</fix>
</trkpt>
<trkpt lat="33.810313" lon="-118.393867">
  <ele>-0.12</ele>
  <time>2026-09-02T22:10:46Z</time>
  <course>0.0</course>
  <speed>0.0</speed>
  <fix>3d</fix>
</trkpt>
<trkpt lat="33.810313" lon="-118.393867">
  <ele>-0.111</ele>
  <time>2026-09-02T22:10:46Z</time>
  <course>187.49</course>
  <speed>0.03605551275463989</speed>
  <fix>3d</fix>
</trkpt>
<trkpt lat="33.810313" lon="-118.393867">
  <ele>-0.12</ele>
  <time>2026-09-02T22:10:46Z</time>
  <course>0.0</course>
  <speed>0.0</speed>
  <fix>3d</fix>
</trkpt>
<trkpt lat="33.810313" lon="-118.393867">
  <ele>-0.11</ele>
  <time>2026-09-02T22:10:46Z</time>
  <course>187.49</course>
  <speed>0.03605551275463989</speed>
  <fix>3d</fix>
</trkpt>
<trkpt lat="33.810313" lon="-118.393867">
  <ele>-0.12</ele>
  <time>2026-09-02T22:10:46Z</time>
  <course>0.0</course>
  <speed>0.0</speed>
  <fix>3d</fix>
</trkpt>
<trkpt lat="33.810313" lon="-118.393867">
  <ele>-0.109</ele>
  <time>2026-09-02T22:10:46Z</time>
  <course>187.48</course>
  <speed>0.03605551275463989</speed>
  <fix>3d</fix>
</trkpt>
<trkpt lat="33.810313" lon="-118.393867">
  <ele>-0.12</ele>
  <time>2026-09-02T22:10:46Z</time>
  <course>0.0</course>
  <speed>0.0</speed>
  <fix>3d</fix>
</trkpt>
<trkpt lat="33.810313" lon="-118.393867">
  <ele>-0.108</ele>
  <time>2026-09-02T22:10:46Z</time>
  <course>187.47</course>
  <speed>0.03605551275463989</speed>
  <fix>3d</fix>
</trkpt>
<trkpt lat="33.810313" lon="-118.393867">
  <ele>-0.12</ele>
  <time>2026-09-02T22:10:46Z</time>
  <course>0.0</course>
  <speed>0.0</speed>
  <fix>3d</fix>
</trkpt>
<trkpt lat="33.810313" lon="-118.393867">
  <ele>-0.108</ele>
  <time>2026-09-02T22:10:46Z</time>
  <course>187.47</course>
  <speed>0.03605551275463989</speed>
  <fix>3d</fix>
</trkpt>
<trkpt lat="33.810313" lon="-118.393867">
  <ele>-0.12</ele>
  <time>2026-09-02T22:10:46Z</time>
  <course>0.0</course>
  <speed>0.0</speed>
  <fix>3d</fix>
</trkpt>
<trkpt lat="33.810313" lon="-118.393867">
  <ele>-0.109</ele>
  <time>2026-09-02T22:10:47Z</time>
  <course>187.46</course>
  <speed>0.03605551275463989</speed>
  <fix>3d</fix>
</trkpt>
<trkpt lat="33.810313" lon="-118.393867">
  <ele>-0.12</ele>
  <time>2026-09-02T22:10:47Z</time>
  <course>0.0</course>
  <speed>0.0</speed>
  <fix>3d</fix>
</trkpt>
<trkpt lat="33.810313" lon="-118.393867">
  <ele>-0.109</ele>
  <time>2026-09-02T22:10:47Z</time>
  <course>187.45</course>
  <speed>0.03605551275463989</speed>
  <fix>3d</fix>
</trkpt>
<trkpt lat="33.810313" lon="-118.393867">
  <ele>-0.12</ele>
  <time>2026-09-02T22:10:47Z</time>
  <course>0.0</course>
  <speed>0.0</speed>
  <fix>3d</fix>
</trkpt>
<trkpt lat="33.810313" lon="-118.393867">
  <ele>-0.109</ele>
  <time>2026-09-02T22:10:47Z</time>
  <course>187.45</course>
  <speed>0.03605551275463989</speed>
  <fix>3d</fix>
</trkpt>
<trkpt lat="33.810313" lon="-118.393867">
  <ele>-0.12</ele>
  <time>2026-09-02T22:10:47Z</time>
  <course>0.0</course>
  <speed>0.0</speed>
  <fix>3d</fix>
</trkpt>
<trkpt lat="33.810313" lon="-118.393867">
  <ele>-0.11</ele>
  <time>2026-09-02T22:10:47Z</time>
  <course>187.44</course>
  <speed>0.03605551275463989</speed>
  <fix>3d</fix>
</trkpt>
<trkpt lat="33.810313" lon="-118.393867">
  <ele>-0.12</ele>
  <time>2026-09-02T22:10:47Z</time>
  <course>0.0</course>
  <speed>0.0</speed>
  <fix>3d</fix>
</trkpt>
<trkpt lat="33.810313" lon="-118.393867">
  <ele>-0.11</ele>
  <time>2026-09-02T22:10:47Z</time>
  <course>187.43</course>
  <speed>0.03605551275463989</speed>
  <fix>3d</fix>
</trkpt>
<trkpt lat="33.810313" lon="-118.393867">
  <ele>-0.12</ele>
  <time>2026-09-02T22:10:47Z</time>
  <course>0.0</course>
  <speed>0.0</speed>
  <fix>3d</fix>
</trkpt>
<trkpt lat="33.810313" lon="-118.393867">
  <ele>-0.109</ele>
  <time>2026-09-02T22:10:47Z</time>
  <course>187.43</course>
  <speed>0.03605551275463989</speed>
  <fix>3d</fix>
</trkpt>
<trkpt lat="33.810313" lon="-118.393867">
  <ele>-0.12</ele>
  <time>2026-09-02T22:10:47Z</time>
  <course>0.0</course>
  <speed>0.0</speed>
  <fix>3d</fix>
</trkpt>
<trkpt lat="33.810313" lon="-118.393867">
  <ele>-0.107</ele>
  <time>2026-09-02T22:10:47Z</time>
  <course>187.42</course>
  <speed>0.03605551275463989</speed>
  <fix>3d</fix>
</trkpt>
<trkpt lat="33.810313" lon="-118.393867">
  <ele>-0.12</ele>
  <time>2026-09-02T22:10:47Z</time>
  <course>0.0</course>
  <speed>0.0</speed>
  <fix>3d</fix>
</trkpt>
<trkpt lat="33.810313" lon="-118.393867">
  <ele>-0.105</ele>
  <time>2026-09-02T22:10:47Z</time>
  <course>187.42</course>
  <speed>0.03605551275463989</speed>
  <fix>3d</fix>
</trkpt>
<trkpt lat="33.810313" lon="-118.393867">
  <ele>-0.12</ele>
  <time>2026-09-02T22:10:47Z</time>
  <course>0.0</course>
  <speed>0.0</speed>
  <fix>3d</fix>
</trkpt>
<trkpt lat="33.810313" lon="-118.393867">
  <ele>-0.105</ele>
  <time>2026-09-02T22:10:47Z</time>
  <course>187.41</course>
  <speed>0.03605551275463989</speed>
  <fix>3d</fix>
</trkpt>
<trkpt lat="33.810313" lon="-118.393867">
  <ele>-0.12</ele>
  <time>2026-09-02T22:10:47Z</time>
  <course>0.0</course>
  <speed>0.0</speed>
  <fix>3d</fix>
</trkpt>
<trkpt lat="33.810313" lon="-118.393867">
  <ele>-0.106</ele>
  <time>2026-09-02T22:10:47Z</time>
  <course>187.4</course>
  <speed>0.03605551275463989</speed>
  <fix>3d</fix>
</trkpt>
<trkpt lat="33.810313" lon="-118.393867">
  <ele>-0.12</ele>
  <time>2026-09-02T22:10:47Z</time>
  <course>0.0</course>
  <speed>0.0</speed>
  <fix>3d</fix>
</trkpt>
<trkpt lat="33.810313" lon="-118.393867">
  <ele>-0.108</ele>
  <time>2026-09-02T22:10:48Z</time>
  <course>187.4</course>
  <speed>0.03605551275463989</speed>
  <fix>3d</fix>
</trkpt>
<trkpt lat="33.810313" lon="-118.393867">
  <ele>-0.12</ele>
  <time>2026-09-02T22:10:48Z</time>
  <course>0.0</course>
  <speed>0.0</speed>
  <fix>3d</fix>
</trkpt>
<trkpt lat="33.810313" lon="-118.393867">
  <ele>-0.111</ele>
  <time>2026-09-02T22:10:48Z</time>
  <course>187.39</course>
  <speed>0.03605551275463989</speed>
  <fix>3d</fix>
</trkpt>
<trkpt lat="33.810313" lon="-118.393867">
  <ele>-0.12</ele>
  <time>2026-09-02T22:10:48Z</time>
  <course>0.0</course>
  <speed>0.0</speed>
  <fix>3d</fix>
</trkpt>
<trkpt lat="33.810313" lon="-118.393867">
  <ele>-0.114</ele>
  <time>2026-09-02T22:10:48Z</time>
  <course>187.39</course>
  <speed>0.03605551275463989</speed>
  <fix>3d</fix>
</trkpt>
<trkpt lat="33.810313" lon="-118.393867">
  <ele>-0.12</ele>
  <time>2026-09-02T22:10:48Z</time>
  <course>0.0</course>
  <speed>0.0</speed>
  <fix>3d</fix>
</trkpt>
<trkpt lat="33.810313" lon="-118.393867">
  <ele>-0.115</ele>
  <time>2026-09-02T22:10:48Z</time>
  <course>187.38</course>
  <speed>0.03605551275463989</speed>
  <fix>3d</fix>
</trkpt>
<trkpt lat="33.810313" lon="-118.393867">
  <ele>-0.12</ele>
  <time>2026-09-02T22:10:48Z</time>
  <course>0.0</course>
  <speed>0.0</speed>
  <fix>3d</fix>
</trkpt>
<trkpt lat="33.810313" lon="-118.393867">
  <ele>-0.115</ele>
  <time>2026-09-02T22:10:48Z</time>
  <course>187.37</course>
  <speed>0.03605551275463989</speed>
  <fix>3d</fix>
</trkpt>
<trkpt lat="33.810313" lon="-118.393867">
  <ele>-0.12</ele>
  <time>2026-09-02T22:10:48Z</time>
  <course>0.0</course>
  <speed>0.0</speed>
  <fix>3d</fix>
</trkpt>
<trkpt lat="33.810313" lon="-118.393867">
  <ele>-0.116</ele>
  <time>2026-09-02T22:10:48Z</time>
  <course>187.37</course>
  <speed>0.03605551275463989</speed>
  <fix>3d</fix>
</trkpt>
<trkpt lat="33.810313" lon="-118.393867">
  <ele>-0.12</ele>
  <time>2026-09-02T22:10:48Z</time>
  <course>0.0</course>
  <speed>0.0</speed>
  <fix>3d</fix>
</trkpt>
<trkpt lat="33.810313" lon="-118.393867">
  <ele>-0.115</ele>
  <time>2026-09-02T22:10:48Z</time>
  <course>187.36</course>
  <speed>0.03605551275463989</speed>
  <fix>3d</fix>
</trkpt>
<trkpt lat="33.810313" lon="-118.393867">
  <ele>-0.12</ele>
  <time>2026-09-02T22:10:48Z</time>
  <course>0.0</course>
  <speed>0.0</speed>
  <fix>3d</fix>
</trkpt>
<trkpt lat="33.810313" lon="-118.393867">
  <ele>-0.114</ele>
  <time>2026-09-02T22:10:48Z</time>
  <course>187.36</course>
  <speed>0.03605551275463989</speed>
  <fix>3d</fix>
</trkpt>
<trkpt lat="33.810313" lon="-118.393867">
  <ele>-0.12</ele>
  <time>2026-09-02T22:10:48Z</time>
  <course>0.0</course>
  <speed>0.0</speed>
  <fix>3d</fix>
</trkpt>
<trkpt lat="33.810313" lon="-118.393867">
  <ele>-0.113</ele>
  <time>2026-09-02T22:10:48Z</time>
  <course>187.35</course>
  <speed>0.03605551275463989</speed>
  <fix>3d</fix>
</trkpt>
<trkpt lat="33.810313" lon="-118.393867">
  <ele>-0.12</ele>
  <time>2026-09-02T22:10:48Z</time>
  <course>0.0</course>
  <speed>0.0</speed>
  <fix>3d</fix>
</trkpt>
<trkpt lat="33.810313" lon="-118.393867">
  <ele>-0.114</ele>
  <time>2026-09-02T22:10:48Z</time>
  <course>187.34</course>
  <speed>0.03605551275463989</speed>
  <fix>3d</fix>
</trkpt>
<trkpt lat="33.810313" lon="-118.393867">
  <ele>-0.12</ele>
  <time>2026-09-02T22:10:48Z</time>
  <course>0.0</course>
  <speed>0.0</speed>
  <fix>3d</fix>
</trkpt>
<trkpt lat="33.810313" lon="-118.393867">
  <ele>-0.116</ele>
  <time>2026-09-02T22:10:49Z</time>
  <course>187.34</course>
  <speed>0.03605551275463989</speed>
  <fix>3d</fix>
</trkpt>
<trkpt lat="33.810313" lon="-118.393867">
  <ele>-0.12</ele>
  <time>2026-09-02T22:10:49Z</time>
  <course>0.0</course>
  <speed>0.0</speed>
  <fix>3d</fix>
</trkpt>
<trkpt lat="33.810313" lon="-118.393867">
  <ele>-0.118</ele>
  <time>2026-09-02T22:10:49Z</time>
  <course>187.33</course>
  <speed>0.03605551275463989</speed>
  <fix>3d</fix>
</trkpt>
<trkpt lat="33.810313" lon="-118.393867">
  <ele>-0.12</ele>
  <time>2026-09-02T22:10:49Z</time>
  <course>0.0</course>
  <speed>0.0</speed>
  <fix>3d</fix>
</trkpt>
<trkpt lat="33.810313" lon="-118.393867">
  <ele>-0.119</ele>
  <time>2026-09-02T22:10:49Z</time>
  <course>187.33</course>
  <speed>0.03605551275463989</speed>
  <fix>3d</fix>
</trkpt>
<trkpt lat="33.810313" lon="-118.393867">
  <ele>-0.12</ele>
  <time>2026-09-02T22:10:49Z</time>
  <course>0.0</course>
  <speed>0.0</speed>
  <fix>3d</fix>
</trkpt>
<trkpt lat="33.810313" lon="-118.393867">
  <ele>-0.119</ele>
  <time>2026-09-02T22:10:49Z</time>
  <course>187.32</course>
  <speed>0.03605551275463989</speed>
  <fix>3d</fix>
</trkpt>
<trkpt lat="33.810313" lon="-118.393867">
  <ele>-0.12</ele>
  <time>2026-09-02T22:10:49Z</time>
  <course>0.0</course>
  <speed>0.0</speed>
  <fix>3d</fix>
</trkpt>
<trkpt lat="33.810313" lon="-118.393867">
  <ele>-0.118</ele>
  <time>2026-09-02T22:10:49Z</time>
  <course>187.32</course>
  <speed>0.03605551275463989</speed>
  <fix>3d</fix>
</trkpt>
<trkpt lat="33.810313" lon="-118.393867">
  <ele>-0.12</ele>
  <time>2026-09-02T22:10:49Z</time>
  <course>0.0</course>
  <speed>0.0</speed>
  <fix>3d</fix>
</trkpt>
<trkpt lat="33.810313" lon="-118.393867">
  <ele>-0.117</ele>
  <time>2026-09-02T22:10:49Z</time>
  <course>187.31</course>
  <speed>0.03605551275463989</speed>
  <fix>3d</fix>
</trkpt>
<trkpt lat="33.810313" lon="-118.393867">
  <ele>-0.12</ele>
  <time>2026-09-02T22:10:49Z</time>
  <course>0.0</course>
  <speed>0.0</speed>
  <fix>3d</fix>
</trkpt>
<trkpt lat="33.810313" lon="-118.393867">
  <ele>-0.113</ele>
  <time>2026-09-02T22:10:49Z</time>
  <course>187.31</course>
  <speed>0.03605551275463989</speed>
  <fix>3d</fix>
</trkpt>
<trkpt lat="33.810313" lon="-118.393867">
  <ele>-0.12</ele>
  <time>2026-09-02T22:10:49Z</time>
  <course>0.0</course>
  <speed>0.0</speed>
  <fix>3d</fix>
</trkpt>
<trkpt lat="33.810313" lon="-118.393867">
  <ele>-0.11</ele>
  <time>2026-09-02T22:10:49Z</time>
  <course>187.3</course>
  <speed>0.03605551275463989</speed>
  <fix>3d</fix>
</trkpt>
<trkpt lat="33.810313" lon="-118.393867">
  <ele>-0.12</ele>
  <time>2026-09-02T22:10:49Z</time>
  <course>0.0</course>
  <speed>0.0</speed>
  <fix>3d</fix>
</trkpt>
<trkpt lat="33.810313" lon="-118.393867">
  <ele>-0.107</ele>
  <time>2026-09-02T22:10:49Z</time>
  <course>187.3</course>
  <speed>0.03605551275463989</speed>
  <fix>3d</fix>
</trkpt>
<trkpt lat="33.810313" lon="-118.393867">
  <ele>-0.12</ele>
  <time>2026-09-02T22:10:49Z</time>
  <course>0.0</course>
  <speed>0.0</speed>
  <fix>3d</fix>
</trkpt>
<trkpt lat="33.810313" lon="-118.393867">
  <ele>-0.106</ele>
  <time>2026-09-02T22:10:49Z</time>
  <course>187.29</course>
  <speed>0.03605551275463989</speed>
  <fix>3d</fix>
</trkpt>
<trkpt lat="33.810313" lon="-118.393867">
  <ele>-0.12</ele>
  <time>2026-09-02T22:10:49Z</time>
  <course>0.0</course>
  <speed>0.0</speed>
  <fix>3d</fix>
</trkpt>
<trkpt lat="33.810313" lon="-118.393867">
  <ele>-0.107</ele>
  <time>2026-09-02T22:10:50Z</time>
  <course>187.29</course>
  <speed>0.03605551275463989</speed>
  <fix>3d</fix>
</trkpt>
<trkpt lat="33.810313" lon="-118.393867">
  <ele>-0.12</ele>
  <time>2026-09-02T22:10:50Z</time>
  <course>0.0</course>
  <speed>0.0</speed>
  <fix>3d</fix>
</trkpt>
<trkpt lat="33.810313" lon="-118.393867">
  <ele>-0.107</ele>
  <time>2026-09-02T22:10:50Z</time>
  <course>187.28</course>
  <speed>0.03605551275463989</speed>
  <fix>3d</fix>
</trkpt>
<trkpt lat="33.810313" lon="-118.393867">
  <ele>-0.12</ele>
  <time>2026-09-02T22:10:50Z</time>
  <course>0.0</course>
  <speed>0.0</speed>
  <fix>3d</fix>
</trkpt>
<trkpt lat="33.810313" lon="-118.393867">
  <ele>-0.109</ele>
  <time>2026-09-02T22:10:50Z</time>
  <course>187.27</course>
  <speed>0.03605551275463989</speed>
  <fix>3d</fix>
</trkpt>
<trkpt lat="33.810313" lon="-118.393867">
  <ele>-0.12</ele>
  <time>2026-09-02T22:10:50Z</time>
  <course>0.0</course>
  <speed>0.0</speed>
  <fix>3d</fix>
</trkpt>
<trkpt lat="33.810313" lon="-118.393867">
  <ele>-0.111</ele>
  <time>2026-09-02T22:10:50Z</time>
  <course>187.27</course>
  <speed>0.03605551275463989</speed>
  <fix>3d</fix>
</trkpt>
<trkpt lat="33.810313" lon="-118.393867">
  <ele>-0.12</ele>
  <time>2026-09-02T22:10:50Z</time>
  <course>0.0</course>
  <speed>0.0</speed>
  <fix>3d</fix>
</trkpt>
<trkpt lat="33.810313" lon="-118.393867">
  <ele>-0.113</ele>
  <time>2026-09-02T22:10:50Z</time>
  <course>187.26</course>
  <speed>0.03605551275463989</speed>
  <fix>3d</fix>
</trkpt>
<trkpt lat="33.810313" lon="-118.393867">
  <ele>-0.12</ele>
  <time>2026-09-02T22:10:50Z</time>
  <course>0.0</course>
  <speed>0.0</speed>
  <fix>3d</fix>
</trkpt>
<trkpt lat="33.810313" lon="-118.393867">
  <ele>-0.113</ele>
  <time>2026-09-02T22:10:50Z</time>
  <course>187.26</course>
  <speed>0.03605551275463989</speed>
  <fix>3d</fix>
</trkpt>
<trkpt lat="33.810313" lon="-118.393867">
  <ele>-0.12</ele>
  <time>2026-09-02T22:10:50Z</time>
  <course>0.0</course>
  <speed>0.0</speed>
  <fix>3d</fix>
</trkpt>
<trkpt lat="33.810313" lon="-118.393867">
  <ele>-0.113</ele>
  <time>2026-09-02T22:10:50Z</time>
  <course>187.25</course>
  <speed>0.03605551275463989</speed>
  <fix>3d</fix>
</trkpt>
<trkpt lat="33.810313" lon="-118.393867">
  <ele>-0.12</ele>
  <time>2026-09-02T22:10:50Z</time>
  <course>0.0</course>
  <speed>0.0</speed>
  <fix>3d</fix>
</trkpt>
<trkpt lat="33.810313" lon="-118.393867">
  <ele>-0.112</ele>
  <time>2026-09-02T22:10:50Z</time>
  <course>187.25</course>
  <speed>0.03605551275463989</speed>
  <fix>3d</fix>
</trkpt>
<trkpt lat="33.810313" lon="-118.393867">
  <ele>-0.12</ele>
  <time>2026-09-02T22:10:50Z</time>
  <course>0.0</course>
  <speed>0.0</speed>
  <fix>3d</fix>
</trkpt>
<trkpt lat="33.810313" lon="-118.393867">
  <ele>-0.111</ele>
  <time>2026-09-02T22:10:50Z</time>
  <course>187.24</course>
  <speed>0.03605551275463989</speed>
  <fix>3d</fix>
</trkpt>
<trkpt lat="33.810313" lon="-118.393867">
  <ele>-0.12</ele>
  <time>2026-09-02T22:10:50Z</time>
  <course>0.0</course>
  <speed>0.0</speed>
  <fix>3d</fix>
</trkpt>
<trkpt lat="33.810313" lon="-118.393867">
  <ele>-0.11</ele>
  <time>2026-09-02T22:10:50Z</time>
  <course>187.24</course>
  <speed>0.03605551275463989</speed>
  <fix>3d</fix>
</trkpt>
<trkpt lat="33.810313" lon="-118.393867">
  <ele>-0.12</ele>
  <time>2026-09-02T22:10:50Z</time>
  <course>0.0</course>
  <speed>0.0</speed>
  <fix>3d</fix>
</trkpt>
<trkpt lat="33.810313" lon="-118.393867">
  <ele>-0.11</ele>
  <time>2026-09-02T22:10:51Z</time>
  <course>187.23</course>
  <speed>0.03605551275463989</speed>
  <fix>3d</fix>
</trkpt>
<trkpt lat="33.810313" lon="-118.393867">
  <ele>-0.12</ele>
  <time>2026-09-02T22:10:51Z</time>
  <course>0.0</course>
  <speed>0.0</speed>
  <fix>3d</fix>
</trkpt>
<trkpt lat="33.810313" lon="-118.393867">
  <ele>-0.111</ele>
  <time>2026-09-02T22:10:51Z</time>
  <course>187.23</course>
  <speed>0.03605551275463989</speed>
  <fix>3d</fix>
</trkpt>
<trkpt lat="33.810313" lon="-118.393867">
  <ele>-0.12</ele>
  <time>2026-09-02T22:10:51Z</time>
  <course>0.0</course>
  <speed>0.0</speed>
  <fix>3d</fix>
</trkpt>
<trkpt lat="33.810313" lon="-118.393867">
  <ele>-0.112</ele>
  <time>2026-09-02T22:10:51Z</time>
  <course>187.22</course>
  <speed>0.03605551275463989</speed>
  <fix>3d</fix>
</trkpt>
<trkpt lat="33.810313" lon="-118.393867">
  <ele>-0.12</ele>
  <time>2026-09-02T22:10:51Z</time>
  <course>0.0</course>
  <speed>0.0</speed>
  <fix>3d</fix>
</trkpt>
<trkpt lat="33.810313" lon="-118.393867">
  <ele>-0.112</ele>
  <time>2026-09-02T22:10:51Z</time>
  <course>187.22</course>
  <speed>0.03605551275463989</speed>
  <fix>3d</fix>
</trkpt>
<trkpt lat="33.810313" lon="-118.393867">
  <ele>-0.12</ele>
  <time>2026-09-02T22:10:51Z</time>
  <course>0.0</course>
  <speed>0.0</speed>
  <fix>3d</fix>
</trkpt>
<trkpt lat="33.810313" lon="-118.393867">
  <ele>-0.112</ele>
  <time>2026-09-02T22:10:51Z</time>
  <course>187.21</course>
  <speed>0.03605551275463989</speed>
  <fix>3d</fix>
</trkpt>
<trkpt lat="33.810313" lon="-118.393867">
  <ele>-0.12</ele>
  <time>2026-09-02T22:10:51Z</time>
  <course>0.0</course>
  <speed>0.0</speed>
  <fix>3d</fix>
</trkpt>
<trkpt lat="33.810313" lon="-118.393867">
  <ele>-0.112</ele>
  <time>2026-09-02T22:10:51Z</time>
  <course>187.21</course>
  <speed>0.03605551275463989</speed>
  <fix>3d</fix>
</trkpt>
<trkpt lat="33.810313" lon="-118.393867">
  <ele>-0.12</ele>
  <time>2026-09-02T22:10:51Z</time>
  <course>0.0</course>
  <speed>0.0</speed>
  <fix>3d</fix>
</trkpt>
<trkpt lat="33.810313" lon="-118.393867">
  <ele>-0.111</ele>
  <time>2026-09-02T22:10:51Z</time>
  <course>187.2</course>
  <speed>0.03605551275463989</speed>
  <fix>3d</fix>
</trkpt>
<trkpt lat="33.810313" lon="-118.393867">
  <ele>-0.12</ele>
  <time>2026-09-02T22:10:51Z</time>
  <course>0.0</course>
  <speed>0.0</speed>
  <fix>3d</fix>
</trkpt>
<trkpt lat="33.810313" lon="-118.393867">
  <ele>-0.111</ele>
  <time>2026-09-02T22:10:51Z</time>
  <course>187.19</course>
  <speed>0.03605551275463989</speed>
  <fix>3d</fix>
</trkpt>
<trkpt lat="33.810313" lon="-118.393867">
  <ele>-0.12</ele>
  <time>2026-09-02T22:10:51Z</time>
  <course>0.0</course>
  <speed>0.0</speed>
  <fix>3d</fix>
</trkpt>
<trkpt lat="33.810313" lon="-118.393867">
  <ele>-0.11</ele>
  <time>2026-09-02T22:10:51Z</time>
  <course>187.19</course>
  <speed>0.03605551275463989</speed>
  <fix>3d</fix>
</trkpt>
<trkpt lat="33.810313" lon="-118.393867">
  <ele>-0.12</ele>
  <time>2026-09-02T22:10:51Z</time>
  <course>0.0</course>
  <speed>0.0</speed>
  <fix>3d</fix>
</trkpt>
<trkpt lat="33.810313" lon="-118.393867">
  <ele>-0.111</ele>
  <time>2026-09-02T22:10:51Z</time>
  <course>187.18</course>
  <speed>0.03605551275463989</speed>
  <fix>3d</fix>
</trkpt>
<trkpt lat="33.810313" lon="-118.393867">
  <ele>-0.12</ele>
  <time>2026-09-02T22:10:51Z</time>
  <course>0.0</course>
  <speed>0.0</speed>
  <fix>3d</fix>
</trkpt>
<trkpt lat="33.810313" lon="-118.393867">
  <ele>-0.113</ele>
  <time>2026-09-02T22:10:52Z</time>
  <course>187.18</course>
  <speed>0.03605551275463989</speed>
  <fix>3d</fix>
</trkpt>
<trkpt lat="33.810313" lon="-118.393867">
  <ele>-0.12</ele>
  <time>2026-09-02T22:10:52Z</time>
  <course>0.0</course>
  <speed>0.0</speed>
  <fix>3d</fix>
</trkpt>
<trkpt lat="33.810313" lon="-118.393867">
  <ele>-0.115</ele>
  <time>2026-09-02T22:10:52Z</time>
  <course>187.17</course>
  <speed>0.03605551275463989</speed>
  <fix>3d</fix>
</trkpt>
<trkpt lat="33.810313" lon="-118.393867">
  <ele>-0.12</ele>
  <time>2026-09-02T22:10:52Z</time>
  <course>0.0</course>
  <speed>0.0</speed>
  <fix>3d</fix>
</trkpt>
<trkpt lat="33.810313" lon="-118.393867">
  <ele>-0.115</ele>
  <time>2026-09-02T22:10:52Z</time>
  <course>187.17</course>
  <speed>0.03605551275463989</speed>
  <fix>3d</fix>
</trkpt>
<trkpt lat="33.810313" lon="-118.393867">
  <ele>-0.12</ele>
  <time>2026-09-02T22:10:52Z</time>
  <course>0.0</course>
  <speed>0.0</speed>
  <fix>3d</fix>
</trkpt>
<trkpt lat="33.810313" lon="-118.393867">
  <ele>-0.115</ele>
  <time>2026-09-02T22:10:52Z</time>
  <course>187.16</course>
  <speed>0.03605551275463989</speed>
  <fix>3d</fix>
</trkpt>
<trkpt lat="33.810313" lon="-118.393867">
  <ele>-0.12</ele>
  <time>2026-09-02T22:10:52Z</time>
  <course>0.0</course>
  <speed>0.0</speed>
  <fix>3d</fix>
</trkpt>
<trkpt lat="33.810313" lon="-118.393867">
  <ele>-0.114</ele>
  <time>2026-09-02T22:10:52Z</time>
  <course>187.16</course>
  <speed>0.0</speed>
  <fix>3d</fix>
</trkpt>
<trkpt lat="33.810313" lon="-118.393867">
  <ele>-0.12</ele>
  <time>2026-09-02T22:10:52Z</time>
  <course>0.0</course>
  <speed>0.0</speed>
  <fix>3d</fix>
</trkpt>
<trkpt lat="33.810313" lon="-118.393867">
  <ele>-0.113</ele>
  <time>2026-09-02T22:10:52Z</time>
  <course>187.15</course>
  <speed>0.0</speed>
  <fix>3d</fix>
</trkpt>
<trkpt lat="33.810313" lon="-118.393867">
  <ele>-0.12</ele>
  <time>2026-09-02T22:10:52Z</time>
  <course>0.0</course>
  <speed>0.0</speed>
  <fix>3d</fix>
</trkpt>
<trkpt lat="33.810313" lon="-118.393867">
  <ele>-0.111</ele>
  <time>2026-09-02T22:10:52Z</time>
  <course>187.15</course>
  <speed>0.0</speed>
  <fix>3d</fix>
</trkpt>
<trkpt lat="33.810313" lon="-118.393867">
  <ele>-0.12</ele>
  <time>2026-09-02T22:10:52Z</time>
  <course>0.0</course>
  <speed>0.0</speed>
  <fix>3d</fix>
</trkpt>
<trkpt lat="33.810313" lon="-118.393867">
  <ele>-0.109</ele>
  <time>2026-09-02T22:10:52Z</time>
  <course>187.14</course>
  <speed>0.0</speed>
  <fix>3d</fix>
</trkpt>
<trkpt lat="33.810313" lon="-118.393867">
  <ele>-0.12</ele>
  <time>2026-09-02T22:10:52Z</time>
  <course>0.0</course>
  <speed>0.0</speed>
  <fix>3d</fix>
</trkpt>
<trkpt lat="33.810313" lon="-118.393867">
  <ele>-0.106</ele>
  <time>2026-09-02T22:10:52Z</time>
  <course>187.14</course>
  <speed>0.0</speed>
  <fix>3d</fix>
</trkpt>
<trkpt lat="33.810313" lon="-118.393867">
  <ele>-0.12</ele>
  <time>2026-09-02T22:10:52Z</time>
  <course>0.0</course>
  <speed>0.0</speed>
  <fix>3d</fix>
</trkpt>
<trkpt lat="33.810313" lon="-118.393867">
  <ele>-0.105</ele>
  <time>2026-09-02T22:10:52Z</time>
  <course>187.13</course>
  <speed>0.0</speed>
  <fix>3d</fix>
</trkpt>
<trkpt lat="33.810313" lon="-118.393867">
  <ele>-0.12</ele>
  <time>2026-09-02T22:10:52Z</time>
  <course>0.0</course>
  <speed>0.0</speed>
  <fix>3d</fix>
</trkpt>
<trkpt lat="33.810313" lon="-118.393867">
  <ele>-0.104</ele>
  <time>2026-09-02T22:10:52Z</time>
  <course>187.13</course>
  <speed>0.0</speed>
  <fix>3d</fix>
</trkpt>
<trkpt lat="33.810313" lon="-118.393867">
  <ele>-0.12</ele>
  <time>2026-09-02T22:10:52Z</time>
  <course>0.0</course>
  <speed>0.0</speed>
  <fix>3d</fix>
</trkpt>
<trkpt lat="33.810313" lon="-118.393867">
  <ele>-0.105</ele>
  <time>2026-09-02T22:10:53Z</time>
  <course>187.12</course>
  <speed>0.0</speed>
  <fix>3d</fix>
</trkpt>
<trkpt lat="33.810313" lon="-118.393867">
  <ele>-0.12</ele>
  <time>2026-09-02T22:10:53Z</time>
  <course>0.0</course>
  <speed>0.0</speed>
  <fix>3d</fix>
</trkpt>
<trkpt lat="33.810313" lon="-118.393867">
  <ele>-0.106</ele>
  <time>2026-09-02T22:10:53Z</time>
  <course>187.12</course>
  <speed>0.0</speed>
  <fix>3d</fix>
</trkpt>
<trkpt lat="33.810313" lon="-118.393867">
  <ele>-0.12</ele>
  <time>2026-09-02T22:10:53Z</time>
  <course>0.0</course>
  <speed>0.0</speed>
  <fix>3d</fix>
</trkpt>
<trkpt lat="33.810313" lon="-118.393867">
  <ele>-0.107</ele>
  <time>2026-09-02T22:10:53Z</time>
  <course>187.11</course>
  <speed>0.0</speed>
  <fix>3d</fix>
</trkpt>
<trkpt lat="33.810313" lon="-118.393867">
  <ele>-0.12</ele>
  <time>2026-09-02T22:10:53Z</time>
  <course>0.0</course>
  <speed>0.0</speed>
  <fix>3d</fix>
</trkpt>
<trkpt lat="33.810313" lon="-118.393867">
  <ele>-0.108</ele>
  <time>2026-09-02T22:10:53Z</time>
  <course>187.11</course>
  <speed>0.0</speed>
  <fix>3d</fix>
</trkpt>
<trkpt lat="33.810313" lon="-118.393867">
  <ele>-0.12</ele>
  <time>2026-09-02T22:10:53Z</time>
  <course>0.0</course>
  <speed>0.0</speed>
  <fix>3d</fix>
</trkpt>
<trkpt lat="33.810313" lon="-118.393867">
  <ele>-0.108</ele>
  <time>2026-09-02T22:10:53Z</time>
  <course>187.1</course>
  <speed>0.01</speed>
  <fix>3d</fix>
</trkpt>
<trkpt lat="33.810313" lon="-118.393867">
  <ele>-0.12</ele>
  <time>2026-09-02T22:10:53Z</time>
  <course>0.0</course>
  <speed>0.0</speed>
  <fix>3d</fix>
</trkpt>
<trkpt lat="33.810313" lon="-118.393867">
  <ele>-0.106</ele>
  <time>2026-09-02T22:10:53Z</time>
  <course>187.1</course>
  <speed>0.01</speed>
  <fix>3d</fix>
</trkpt>
<trkpt lat="33.810313" lon="-118.393867">
  <ele>-0.12</ele>
  <time>2026-09-02T22:10:53Z</time>
  <course>0.0</course>
  <speed>0.0</speed>
  <fix>3d</fix>
</trkpt>
<trkpt lat="33.810313" lon="-118.393867">
  <ele>-0.104</ele>
  <time>2026-09-02T22:10:53Z</time>
  <course>187.09</course>
  <speed>0.01</speed>
  <fix>3d</fix>
</trkpt>
<trkpt lat="33.810313" lon="-118.393867">
  <ele>-0.12</ele>
  <time>2026-09-02T22:10:53Z</time>
  <course>0.0</course>
  <speed>0.0</speed>
  <fix>3d</fix>
</trkpt>
<trkpt lat="33.810313" lon="-118.393867">
  <ele>-0.102</ele>
  <time>2026-09-02T22:10:53Z</time>
  <course>187.09</course>
  <speed>0.01414213562373095</speed>
  <fix>3d</fix>
</trkpt>
<trkpt lat="33.810313" lon="-118.393867">
  <ele>-0.12</ele>
  <time>2026-09-02T22:10:53Z</time>
  <course>0.0</course>
  <speed>0.0</speed>
  <fix>3d</fix>
</trkpt>
<trkpt lat="33.810313" lon="-118.393867">
  <ele>-0.102</ele>
  <time>2026-09-02T22:10:53Z</time>
  <course>187.08</course>
  <speed>0.01414213562373095</speed>
  <fix>3d</fix>
</trkpt>
<trkpt lat="33.810313" lon="-118.393867">
  <ele>-0.12</ele>
  <time>2026-09-02T22:10:53Z</time>
  <course>0.0</course>
  <speed>0.0</speed>
  <fix>3d</fix>
</trkpt>
<trkpt lat="33.810313" lon="-118.393867">
  <ele>-0.103</ele>
  <time>2026-09-02T22:10:53Z</time>
  <course>187.08</course>
  <speed>0.01414213562373095</speed>
  <fix>3d</fix>
</trkpt>
<trkpt lat="33.810313" lon="-118.393867">
  <ele>-0.12</ele>
  <time>2026-09-02T22:10:53Z</time>
  <course>0.0</course>
  <speed>0.0</speed>
  <fix>3d</fix>
</trkpt>
<trkpt lat="33.810313" lon="-118.393867">
  <ele>-0.104</ele>
  <time>2026-09-02T22:10:54Z</time>
  <course>187.07</course>
  <speed>0.01414213562373095</speed>
  <fix>3d</fix>
</trkpt>
<trkpt lat="33.810313" lon="-118.393867">
  <ele>-0.12</ele>
  <time>2026-09-02T22:10:54Z</time>
  <course>0.0</course>
  <speed>0.0</speed>
  <fix>3d</fix>
</trkpt>
<trkpt lat="33.810313" lon="-118.393867">
  <ele>-0.105</ele>
  <time>2026-09-02T22:10:54Z</time>
  <course>187.07</course>
  <speed>0.01414213562373095</speed>
  <fix>3d</fix>
</trkpt>
<trkpt lat="33.810313" lon="-118.393867">
  <ele>-0.12</ele>
  <time>2026-09-02T22:10:54Z</time>
  <course>0.0</course>
  <speed>0.0</speed>
  <fix>3d</fix>
</trkpt>
<trkpt lat="33.810313" lon="-118.393867">
  <ele>-0.106</ele>
  <time>2026-09-02T22:10:54Z</time>
  <course>187.07</course>
  <speed>0.01414213562373095</speed>
  <fix>3d</fix>
</trkpt>
<trkpt lat="33.810313" lon="-118.393867">
  <ele>-0.12</ele>
  <time>2026-09-02T22:10:54Z</time>
  <course>0.0</course>
  <speed>0.0</speed>
  <fix>3d</fix>
</trkpt>
<trkpt lat="33.810313" lon="-118.393867">
  <ele>-0.106</ele>
  <time>2026-09-02T22:10:54Z</time>
  <course>187.06</course>
  <speed>0.01414213562373095</speed>
  <fix>3d</fix>
</trkpt>
<trkpt lat="33.810313" lon="-118.393867">
  <ele>-0.12</ele>
  <time>2026-09-02T22:10:54Z</time>
  <course>0.0</course>
  <speed>0.0</speed>
  <fix>3d</fix>
</trkpt>
<trkpt lat="33.810313" lon="-118.393867">
  <ele>-0.106</ele>
  <time>2026-09-02T22:10:54Z</time>
  <course>187.06</course>
  <speed>0.022360679774997897</speed>
  <fix>3d</fix>
</trkpt>
<trkpt lat="33.810313" lon="-118.393867">
  <ele>-0.12</ele>
  <time>2026-09-02T22:10:54Z</time>
  <course>0.0</course>
  <speed>0.0</speed>
  <fix>3d</fix>
</trkpt>
<trkpt lat="33.810313" lon="-118.393867">
  <ele>-0.105</ele>
  <time>2026-09-02T22:10:54Z</time>
  <course>187.05</course>
  <speed>0.022360679774997897</speed>
  <fix>3d</fix>
</trkpt>
<trkpt lat="33.810313" lon="-118.393867">
  <ele>-0.12</ele>
  <time>2026-09-02T22:10:54Z</time>
  <course>0.0</course>
  <speed>0.0</speed>
  <fix>3d</fix>
</trkpt>
<trkpt lat="33.810313" lon="-118.393867">
  <ele>-0.105</ele>
  <time>2026-09-02T22:10:54Z</time>
  <course>187.05</course>
  <speed>0.022360679774997897</speed>
  <fix>3d</fix>
</trkpt>
<trkpt lat="33.810313" lon="-118.393867">
  <ele>-0.12</ele>
  <time>2026-09-02T22:10:54Z</time>
  <course>0.0</course>
  <speed>0.0</speed>
  <fix>3d</fix>
</trkpt>
<trkpt lat="33.810313" lon="-118.393867">
  <ele>-0.104</ele>
  <time>2026-09-02T22:10:54Z</time>
  <course>187.04</course>
  <speed>0.022360679774997897</speed>
  <fix>3d</fix>
</trkpt>
<trkpt lat="33.810313" lon="-118.393867">
  <ele>-0.12</ele>
  <time>2026-09-02T22:10:54Z</time>
  <course>0.0</course>
  <speed>0.0</speed>
  <fix>3d</fix>
</trkpt>
<trkpt lat="33.810313" lon="-118.393867">
  <ele>-0.103</ele>
  <time>2026-09-02T22:10:54Z</time>
  <course>187.04</course>
  <speed>0.022360679774997897</speed>
  <fix>3d</fix>
</trkpt>
<trkpt lat="33.810313" lon="-118.393867">
  <ele>-0.12</ele>
  <time>2026-09-02T22:10:54Z</time>
  <course>0.0</course>
  <speed>0.0</speed>
  <fix>3d</fix>
</trkpt>
<trkpt lat="33.8103131" lon="-118.393867">
  <ele>-0.103</ele>
  <time>2026-09-02T22:10:54Z</time>
  <course>187.03</course>
  <speed>0.022360679774997897</speed>
  <fix>3d</fix>
</trkpt>
<trkpt lat="33.810313" lon="-118.393867">
  <ele>-0.12</ele>
  <time>2026-09-02T22:10:54Z</time>
  <course>0.0</course>
  <speed>0.0</speed>
  <fix>3d</fix>
</trkpt>
<trkpt lat="33.8103131" lon="-118.3938671">
  <ele>-0.104</ele>
  <time>2026-09-02T22:10:55Z</time>
  <course>187.03</course>
  <speed>0.022360679774997897</speed>
  <fix>3d</fix>
</trkpt>
<trkpt lat="33.810313" lon="-118.393867">
  <ele>-0.12</ele>
  <time>2026-09-02T22:10:55Z</time>
  <course>0.0</course>
  <speed>0.0</speed>
  <fix>3d</fix>
</trkpt>
<trkpt lat="33.8103131" lon="-118.3938671">
  <ele>-0.106</ele>
  <time>2026-09-02T22:10:55Z</time>
  <course>187.02</course>
  <speed>0.0282842712474619</speed>
  <fix>3d</fix>
</trkpt>
<trkpt lat="33.810313" lon="-118.393867">
  <ele>-0.12</ele>
  <time>2026-09-02T22:10:55Z</time>
  <course>0.0</course>
  <speed>0.0</speed>
  <fix>3d</fix>
</trkpt>
<trkpt lat="33.8103131" lon="-118.3938671">
  <ele>-0.109</ele>
  <time>2026-09-02T22:10:55Z</time>
  <course>187.02</course>
  <speed>0.0282842712474619</speed>
  <fix>3d</fix>
</trkpt>
<trkpt lat="33.810313" lon="-118.393867">
  <ele>-0.12</ele>
  <time>2026-09-02T22:10:55Z</time>
  <course>0.0</course>
  <speed>0.0</speed>
  <fix>3d</fix>
</trkpt>
<trkpt lat="33.8103131" lon="-118.3938671">
  <ele>-0.111</ele>
  <time>2026-09-02T22:10:55Z</time>
  <course>187.01</course>
  <speed>0.0282842712474619</speed>
  <fix>3d</fix>
</trkpt>
<trkpt lat="33.810313" lon="-118.393867">
  <ele>-0.12</ele>
  <time>2026-09-02T22:10:55Z</time>
  <course>0.0</course>
  <speed>0.0</speed>
  <fix>3d</fix>
</trkpt>
<trkpt lat="33.8103131" lon="-118.3938671">
  <ele>-0.111</ele>
  <time>2026-09-02T22:10:55Z</time>
  <course>187.01</course>
  <speed>0.0282842712474619</speed>
  <fix>3d</fix>
</trkpt>
<trkpt lat="33.810313" lon="-118.393867">
  <ele>-0.12</ele>
  <time>2026-09-02T22:10:55Z</time>
  <course>0.0</course>
  <speed>0.0</speed>
  <fix>3d</fix>
</trkpt>
<trkpt lat="33.8103131" lon="-118.3938671">
  <ele>-0.112</ele>
  <time>2026-09-02T22:10:55Z</time>
  <course>187.01</course>
  <speed>0.0282842712474619</speed>
  <fix>3d</fix>
</trkpt>
<trkpt lat="33.810313" lon="-118.393867">
  <ele>-0.12</ele>
  <time>2026-09-02T22:10:55Z</time>
  <course>0.0</course>
  <speed>0.0</speed>
  <fix>3d</fix>
</trkpt>
<trkpt lat="33.8103131" lon="-118.3938671">
  <ele>-0.114</ele>
  <time>2026-09-02T22:10:55Z</time>
  <course>187.0</course>
  <speed>0.0282842712474619</speed>
  <fix>3d</fix>
</trkpt>
<trkpt lat="33.810313" lon="-118.393867">
  <ele>-0.12</ele>
  <time>2026-09-02T22:10:55Z</time>
  <course>0.0</course>
  <speed>0.0</speed>
  <fix>3d</fix>
</trkpt>
<trkpt lat="33.8103131" lon="-118.3938671">
  <ele>-0.115</ele>
  <time>2026-09-02T22:10:55Z</time>
  <course>187.0</course>
  <speed>0.0282842712474619</speed>
  <fix>3d</fix>
</trkpt>
<trkpt lat="33.810313" lon="-118.393867">
  <ele>-0.12</ele>
  <time>2026-09-02T22:10:55Z</time>
  <course>0.0</course>
  <speed>0.0</speed>
  <fix>3d</fix>
</trkpt>
<trkpt lat="33.8103131" lon="-118.3938671">
  <ele>-0.117</ele>
  <time>2026-09-02T22:10:55Z</time>
  <course>186.99</course>
  <speed>0.03605551275463989</speed>
  <fix>3d</fix>
</trkpt>
<trkpt lat="33.810313" lon="-118.393867">
  <ele>-0.12</ele>
  <time>2026-09-02T22:10:55Z</time>
  <course>0.0</course>
  <speed>0.0</speed>
  <fix>3d</fix>
</trkpt>
<trkpt lat="33.8103131" lon="-118.3938671">
  <ele>-0.118</ele>
  <time>2026-09-02T22:10:55Z</time>
  <course>186.99</course>
  <speed>0.03605551275463989</speed>
  <fix>3d</fix>
</trkpt>
<trkpt lat="33.810313" lon="-118.393867">
  <ele>-0.12</ele>
  <time>2026-09-02T22:10:55Z</time>
  <course>0.0</course>
  <speed>0.0</speed>
  <fix>3d</fix>
</trkpt>
<trkpt lat="33.8103131" lon="-118.3938671">
  <ele>-0.119</ele>
  <time>2026-09-02T22:10:56Z</time>
  <course>186.98</course>
  <speed>0.03605551275463989</speed>
  <fix>3d</fix>
</trkpt>
<trkpt lat="33.810313" lon="-118.393867">
  <ele>-0.12</ele>
  <time>2026-09-02T22:10:56Z</time>
  <course>0.0</course>
  <speed>0.0</speed>
  <fix>3d</fix>
</trkpt>
<trkpt lat="33.8103131" lon="-118.3938671">
  <ele>-0.12</ele>
  <time>2026-09-02T22:10:56Z</time>
  <course>186.98</course>
  <speed>0.03605551275463989</speed>
  <fix>3d</fix>
</trkpt>
<trkpt lat="33.810313" lon="-118.393867">
  <ele>-0.12</ele>
  <time>2026-09-02T22:10:56Z</time>
  <course>0.0</course>
  <speed>0.0</speed>
  <fix>3d</fix>
</trkpt>
<trkpt lat="33.8103131" lon="-118.3938671">
  <ele>-0.121</ele>
  <time>2026-09-02T22:10:56Z</time>
  <course>186.97</course>
  <speed>0.03605551275463989</speed>
  <fix>3d</fix>
</trkpt>
<trkpt lat="33.810313" lon="-118.393867">
  <ele>-0.12</ele>
  <time>2026-09-02T22:10:56Z</time>
  <course>0.0</course>
  <speed>0.0</speed>
  <fix>3d</fix>
</trkpt>
<trkpt lat="33.8103131" lon="-118.3938671">
  <ele>-0.122</ele>
  <time>2026-09-02T22:10:56Z</time>
  <course>186.97</course>
  <speed>0.03605551275463989</speed>
  <fix>3d</fix>
</trkpt>
<trkpt lat="33.810313" lon="-118.393867">
  <ele>-0.12</ele>
  <time>2026-09-02T22:10:56Z</time>
  <course>0.0</course>
  <speed>0.0</speed>
  <fix>3d</fix>
</trkpt>
<trkpt lat="33.8103132" lon="-118.3938671">
  <ele>-0.123</ele>
  <time>2026-09-02T22:10:56Z</time>
  <course>186.97</course>
  <speed>0.03605551275463989</speed>
  <fix>3d</fix>
</trkpt>
<trkpt lat="33.810313" lon="-118.393867">
  <ele>-0.12</ele>
  <time>2026-09-02T22:10:56Z</time>
  <course>0.0</course>
  <speed>0.0</speed>
  <fix>3d</fix>
</trkpt>
<trkpt lat="33.8103132" lon="-118.3938671">
  <ele>-0.123</ele>
  <time>2026-09-02T22:10:56Z</time>
  <course>186.96</course>
  <speed>0.03605551275463989</speed>
  <fix>3d</fix>
</trkpt>
<trkpt lat="33.810313" lon="-118.393867">
  <ele>-0.12</ele>
  <time>2026-09-02T22:10:56Z</time>
  <course>0.0</course>
  <speed>0.0</speed>
  <fix>3d</fix>
</trkpt>
<trkpt lat="33.8103132" lon="-118.3938671">
  <ele>-0.122</ele>
  <time>2026-09-02T22:10:56Z</time>
  <course>186.96</course>
  <speed>0.03605551275463989</speed>
  <fix>3d</fix>
</trkpt>
<trkpt lat="33.810313" lon="-118.393867">
  <ele>-0.12</ele>
  <time>2026-09-02T22:10:56Z</time>
  <course>0.0</course>
  <speed>0.0</speed>
  <fix>3d</fix>
</trkpt>
<trkpt lat="33.8103132" lon="-118.3938671">
  <ele>-0.122</ele>
  <time>2026-09-02T22:10:56Z</time>
  <course>186.95</course>
  <speed>0.03605551275463989</speed>
  <fix>3d</fix>
</trkpt>
<trkpt lat="33.810313" lon="-118.393867">
  <ele>-0.12</ele>
  <time>2026-09-02T22:10:56Z</time>
  <course>0.0</course>
  <speed>0.0</speed>
  <fix>3d</fix>
</trkpt>
<trkpt lat="33.8103132" lon="-118.3938671">
  <ele>-0.122</ele>
  <time>2026-09-02T22:10:56Z</time>
  <course>186.95</course>
  <speed>0.03605551275463989</speed>
  <fix>3d</fix>
</trkpt>
<trkpt lat="33.810313" lon="-118.393867">
  <ele>-0.12</ele>
  <time>2026-09-02T22:10:56Z</time>
  <course>0.0</course>
  <speed>0.0</speed>
  <fix>3d</fix>
</trkpt>
<trkpt lat="33.8103132" lon="-118.3938671">
  <ele>-0.122</ele>
  <time>2026-09-02T22:10:56Z</time>
  <course>186.94</course>
  <speed>0.03605551275463989</speed>
  <fix>3d</fix>
</trkpt>
<trkpt lat="33.810313" lon="-118.393867">
  <ele>-0.12</ele>
  <time>2026-09-02T22:10:56Z</time>
  <course>0.0</course>
  <speed>0.0</speed>
  <fix>3d</fix>
</trkpt>
<trkpt lat="33.8103132" lon="-118.3938671">
  <ele>-0.122</ele>
  <time>2026-09-02T22:10:57Z</time>
  <course>186.94</course>
  <speed>0.03605551275463989</speed>
  <fix>3d</fix>
</trkpt>
<trkpt lat="33.810313" lon="-118.393867">
  <ele>-0.12</ele>
  <time>2026-09-02T22:10:57Z</time>
  <course>0.0</course>
  <speed>0.0</speed>
  <fix>3d</fix>
</trkpt>
<trkpt lat="33.8103132" lon="-118.3938672">
  <ele>-0.121</ele>
  <time>2026-09-02T22:10:57Z</time>
  <course>186.94</course>
  <speed>0.03605551275463989</speed>
  <fix>3d</fix>
</trkpt>
<trkpt lat="33.810313" lon="-118.393867">
  <ele>-0.12</ele>
  <time>2026-09-02T22:10:57Z</time>
  <course>0.0</course>
  <speed>0.0</speed>
  <fix>3d</fix>
</trkpt>
<trkpt lat="33.8103132" lon="-118.3938672">
  <ele>-0.12</ele>
  <time>2026-09-02T22:10:57Z</time>
  <course>186.93</course>
  <speed>0.03605551275463989</speed>
  <fix>3d</fix>
</trkpt>
<trkpt lat="33.810313" lon="-118.393867">
  <ele>-0.12</ele>
  <time>2026-09-02T22:10:57Z</time>
  <course>0.0</course>
  <speed>0.0</speed>
  <fix>3d</fix>
</trkpt>
<trkpt lat="33.8103132" lon="-118.3938672">
  <ele>-0.118</ele>
  <time>2026-09-02T22:10:57Z</time>
  <course>186.93</course>
  <speed>0.03605551275463989</speed>
  <fix>3d</fix>
</trkpt>
<trkpt lat="33.810313" lon="-118.393867">
  <ele>-0.12</ele>
  <time>2026-09-02T22:10:57Z</time>
  <course>0.0</course>
  <speed>0.0</speed>
  <fix>3d</fix>
</trkpt>
<trkpt lat="33.8103132" lon="-118.3938672">
  <ele>-0.117</ele>
  <time>2026-09-02T22:10:57Z</time>
  <course>186.92</course>
  <speed>0.0282842712474619</speed>
  <fix>3d</fix>
</trkpt>
<trkpt lat="33.810313" lon="-118.393867">
  <ele>-0.12</ele>
  <time>2026-09-02T22:10:57Z</time>
  <course>0.0</course>
  <speed>0.0</speed>
  <fix>3d</fix>
</trkpt>
<trkpt lat="33.8103132" lon="-118.3938671">
  <ele>-0.116</ele>
  <time>2026-09-02T22:10:57Z</time>
  <course>186.92</course>
  <speed>0.0282842712474619</speed>
  <fix>3d</fix>
</trkpt>
<trkpt lat="33.810313" lon="-118.393867">
  <ele>-0.12</ele>
  <time>2026-09-02T22:10:57Z</time>
  <course>0.0</course>
  <speed>0.0</speed>
  <fix>3d</fix>
</trkpt>
<trkpt lat="33.8103132" lon="-118.3938671">
  <ele>-0.114</ele>
  <time>2026-09-02T22:10:57Z</time>
  <course>186.92</course>
  <speed>0.0282842712474619</speed>
  <fix>3d</fix>
</trkpt>
<trkpt lat="33.810313" lon="-118.393867">
  <ele>-0.12</ele>
  <time>2026-09-02T22:10:57Z</time>
  <course>0.0</course>
  <speed>0.0</speed>
  <fix>3d</fix>
</trkpt>
<trkpt lat="33.8103132" lon="-118.3938671">
  <ele>-0.112</ele>
  <time>2026-09-02T22:10:57Z</time>
  <course>186.91</course>
  <speed>0.0282842712474619</speed>
  <fix>3d</fix>
</trkpt>
<trkpt lat="33.810313" lon="-118.393867">
  <ele>-0.12</ele>
  <time>2026-09-02T22:10:57Z</time>
  <course>0.0</course>
  <speed>0.0</speed>
  <fix>3d</fix>
</trkpt>
<trkpt lat="33.8103132" lon="-118.3938671">
  <ele>-0.111</ele>
  <time>2026-09-02T22:10:57Z</time>
  <course>186.91</course>
  <speed>0.0282842712474619</speed>
  <fix>3d</fix>
</trkpt>
<trkpt lat="33.810313" lon="-118.393867">
  <ele>-0.12</ele>
  <time>2026-09-02T22:10:57Z</time>
  <course>0.0</course>
  <speed>0.0</speed>
  <fix>3d</fix>
</trkpt>
<trkpt lat="33.8103132" lon="-118.3938671">
  <ele>-0.11</ele>
  <time>2026-09-02T22:10:57Z</time>
  <course>186.91</course>
  <speed>0.0282842712474619</speed>
  <fix>3d</fix>
</trkpt>
<trkpt lat="33.810313" lon="-118.393867">
  <ele>-0.12</ele>
  <time>2026-09-02T22:10:57Z</time>
  <course>0.0</course>
  <speed>0.0</speed>
  <fix>3d</fix>
</trkpt>
<trkpt lat="33.8103132" lon="-118.3938671">
  <ele>-0.11</ele>
  <time>2026-09-02T22:10:57Z</time>
  <course>186.9</course>
  <speed>0.0282842712474619</speed>
  <fix>3d</fix>
</trkpt>
<trkpt lat="33.810313" lon="-118.393867">
  <ele>-0.12</ele>
  <time>2026-09-02T22:10:57Z</time>
  <course>0.0</course>
  <speed>0.0</speed>
  <fix>3d</fix>
</trkpt>
<trkpt lat="33.8103132" lon="-118.3938671">
  <ele>-0.111</ele>
  <time>2026-09-02T22:10:58Z</time>
  <course>186.9</course>
  <speed>0.0282842712474619</speed>
  <fix>3d</fix>
</trkpt>
<trkpt lat="33.810313" lon="-118.393867">
  <ele>-0.12</ele>
  <time>2026-09-02T22:10:58Z</time>
  <course>0.0</course>
  <speed>0.0</speed>
  <fix>3d</fix>
</trkpt>
<trkpt lat="33.8103132" lon="-118.3938671">
  <ele>-0.111</ele>
  <time>2026-09-02T22:10:58Z</time>
  <course>186.89</course>
  <speed>0.0282842712474619</speed>
  <fix>3d</fix>
</trkpt>
<trkpt lat="33.810313" lon="-118.393867">
  <ele>-0.12</ele>
  <time>2026-09-02T22:10:58Z</time>
  <course>0.0</course>
  <speed>0.0</speed>
  <fix>3d</fix>
</trkpt>
<trkpt lat="33.8103132" lon="-118.3938671">
  <ele>-0.112</ele>
  <time>2026-09-02T22:10:58Z</time>
  <course>186.89</course>
  <speed>0.022360679774997897</speed>
  <fix>3d</fix>
</trkpt>
<trkpt lat="33.810313" lon="-118.393867">
  <ele>-0.12</ele>
  <time>2026-09-02T22:10:58Z</time>
  <course>0.0</course>
  <speed>0.0</speed>
  <fix>3d</fix>
</trkpt>
<trkpt lat="33.8103132" lon="-118.3938671">
  <ele>-0.113</ele>
  <time>2026-09-02T22:10:58Z</time>
  <course>186.89</course>
  <speed>0.022360679774997897</speed>
  <fix>3d</fix>
</trkpt>
<trkpt lat="33.810313" lon="-118.393867">
  <ele>-0.12</ele>
  <time>2026-09-02T22:10:58Z</time>
  <course>0.0</course>
  <speed>0.0</speed>
  <fix>3d</fix>
</trkpt>
<trkpt lat="33.8103132" lon="-118.3938671">
  <ele>-0.113</ele>
  <time>2026-09-02T22:10:58Z</time>
  <course>186.88</course>
  <speed>0.022360679774997897</speed>
  <fix>3d</fix>
</trkpt>
<trkpt lat="33.810313" lon="-118.393867">
  <ele>-0.12</ele>
  <time>2026-09-02T22:10:58Z</time>
  <course>0.0</course>
  <speed>0.0</speed>
  <fix>3d</fix>
</trkpt>
<trkpt lat="33.8103131" lon="-118.3938671">
  <ele>-0.111</ele>
  <time>2026-09-02T22:10:58Z</time>
  <course>186.88</course>
  <speed>0.022360679774997897</speed>
  <fix>3d</fix>
</trkpt>
<trkpt lat="33.810313" lon="-118.393867">
  <ele>-0.12</ele>
  <time>2026-09-02T22:10:58Z</time>
  <course>0.0</course>
  <speed>0.0</speed>
  <fix>3d</fix>
</trkpt>
<trkpt lat="33.8103131" lon="-118.3938671">
  <ele>-0.111</ele>
  <time>2026-09-02T22:10:58Z</time>
  <course>186.88</course>
  <speed>0.022360679774997897</speed>
  <fix>3d</fix>
</trkpt>
<trkpt lat="33.810313" lon="-118.393867">
  <ele>-0.12</ele>
  <time>2026-09-02T22:10:58Z</time>
  <course>0.0</course>
  <speed>0.0</speed>
  <fix>3d</fix>
</trkpt>
<trkpt lat="33.8103131" lon="-118.3938671">
  <ele>-0.111</ele>
  <time>2026-09-02T22:10:58Z</time>
  <course>186.87</course>
  <speed>0.022360679774997897</speed>
  <fix>3d</fix>
</trkpt>
<trkpt lat="33.810313" lon="-118.393867">
  <ele>-0.12</ele>
  <time>2026-09-02T22:10:58Z</time>
  <course>0.0</course>
  <speed>0.0</speed>
  <fix>3d</fix>
</trkpt>
<trkpt lat="33.8103131" lon="-118.3938671">
  <ele>-0.112</ele>
  <time>2026-09-02T22:10:58Z</time>
  <course>186.87</course>
  <speed>0.022360679774997897</speed>
  <fix>3d</fix>
</trkpt>
<trkpt lat="33.810313" lon="-118.393867">
  <ele>-0.12</ele>
  <time>2026-09-02T22:10:58Z</time>
  <course>0.0</course>
  <speed>0.0</speed>
  <fix>3d</fix>
</trkpt>
<trkpt lat="33.8103131" lon="-118.3938671">
  <ele>-0.114</ele>
  <time>2026-09-02T22:10:58Z</time>
  <course>186.87</course>
  <speed>0.022360679774997897</speed>
  <fix>3d</fix>
</trkpt>
<trkpt lat="33.810313" lon="-118.393867">
  <ele>-0.12</ele>
  <time>2026-09-02T22:10:58Z</time>
  <course>0.0</course>
  <speed>0.0</speed>
  <fix>3d</fix>
</trkpt>
<trkpt lat="33.8103131" lon="-118.3938671">
  <ele>-0.116</ele>
  <time>2026-09-02T22:10:59Z</time>
  <course>186.86</course>
  <speed>0.022360679774997897</speed>
  <fix>3d</fix>
</trkpt>
<trkpt lat="33.810313" lon="-118.393867">
  <ele>-0.12</ele>
  <time>2026-09-02T22:10:59Z</time>
  <course>0.0</course>
  <speed>0.0</speed>
  <fix>3d</fix>
</trkpt>
<trkpt lat="33.8103131" lon="-118.3938671">
  <ele>-0.118</ele>
  <time>2026-09-02T22:10:59Z</time>
  <course>186.86</course>
  <speed>0.022360679774997897</speed>
  <fix>3d</fix>
</trkpt>
<trkpt lat="33.810313" lon="-118.393867">
  <ele>-0.12</ele>
  <time>2026-09-02T22:10:59Z</time>
  <course>0.0</course>
  <speed>0.0</speed>
  <fix>3d</fix>
</trkpt>
<trkpt lat="33.8103131" lon="-118.3938671">
  <ele>-0.119</ele>
  <time>2026-09-02T22:10:59Z</time>
  <course>186.86</course>
  <speed>0.022360679774997897</speed>
  <fix>3d</fix>
</trkpt>
<trkpt lat="33.810313" lon="-118.393867">
  <ele>-0.12</ele>
  <time>2026-09-02T22:10:59Z</time>
  <course>0.0</course>
  <speed>0.0</speed>
  <fix>3d</fix>
</trkpt>
<trkpt lat="33.8103131" lon="-118.3938671">
  <ele>-0.119</ele>
  <time>2026-09-02T22:10:59Z</time>
  <course>186.85</course>
  <speed>0.022360679774997897</speed>
  <fix>3d</fix>
</trkpt>
<trkpt lat="33.810313" lon="-118.393867">
  <ele>-0.12</ele>
  <time>2026-09-02T22:10:59Z</time>
  <course>0.0</course>
  <speed>0.0</speed>
  <fix>3d</fix>
</trkpt>
<trkpt lat="33.8103131" lon="-118.3938671">
  <ele>-0.118</ele>
  <time>2026-09-02T22:10:59Z</time>
  <course>186.85</course>
  <speed>0.022360679774997897</speed>
  <fix>3d</fix>
</trkpt>
<trkpt lat="33.810313" lon="-118.393867">
  <ele>-0.12</ele>
  <time>2026-09-02T22:10:59Z</time>
  <course>0.0</course>
  <speed>0.0</speed>
  <fix>3d</fix>
</trkpt>
<trkpt lat="33.8103131" lon="-118.3938671">
  <ele>-0.115</ele>
  <time>2026-09-02T22:10:59Z</time>
  <course>186.85</course>
  <speed>0.022360679774997897</speed>
  <fix>3d</fix>
</trkpt>
<trkpt lat="33.810313" lon="-118.393867">
  <ele>-0.12</ele>
  <time>2026-09-02T22:10:59Z</time>
  <course>0.0</course>
  <speed>0.0</speed>
  <fix>3d</fix>
</trkpt>
<trkpt lat="33.8103131" lon="-118.3938671">
  <ele>-0.112</ele>
  <time>2026-09-02T22:10:59Z</time>
  <course>186.84</course>
  <speed>0.022360679774997897</speed>
  <fix>3d</fix>
</trkpt>
<trkpt lat="33.810313" lon="-118.393867">
  <ele>-0.12</ele>
  <time>2026-09-02T22:10:59Z</time>
  <course>0.0</course>
  <speed>0.0</speed>
  <fix>3d</fix>
</trkpt>
<trkpt lat="33.8103131" lon="-118.3938671">
  <ele>-0.11</ele>
  <time>2026-09-02T22:10:59Z</time>
  <course>186.84</course>
  <speed>0.022360679774997897</speed>
  <fix>3d</fix>
</trkpt>
<trkpt lat="33.810313" lon="-118.393867">
  <ele>-0.12</ele>
  <time>2026-09-02T22:10:59Z</time>
  <course>0.0</course>
  <speed>0.0</speed>
  <fix>3d</fix>
</trkpt>
<trkpt lat="33.8103131" lon="-118.3938671">
  <ele>-0.109</ele>
  <time>2026-09-02T22:10:59Z</time>
  <course>186.84</course>
  <speed>0.022360679774997897</speed>
  <fix>3d</fix>
</trkpt>
<trkpt lat="33.810313" lon="-118.393867">
  <ele>-0.12</ele>
  <time>2026-09-02T22:10:59Z</time>
  <course>0.0</course>
  <speed>0.0</speed>
  <fix>3d</fix>
</trkpt>
<trkpt lat="33.8103131" lon="-118.3938671">
  <ele>-0.11</ele>
  <time>2026-09-02T22:10:59Z</time>
  <course>186.83</course>
  <speed>0.022360679774997897</speed>
  <fix>3d</fix>
</trkpt>
<trkpt lat="33.810313" lon="-118.393867">
  <ele>-0.12</ele>
  <time>2026-09-02T22:10:59Z</time>
  <course>0.0</course>
  <speed>0.0</speed>
  <fix>3d</fix>
</trkpt>
<trkpt lat="33.8103131" lon="-118.3938671">
  <ele>-0.112</ele>
  <time>2026-09-02T22:11:00Z</time>
  <course>186.83</course>
  <speed>0.022360679774997897</speed>
  <fix>3d</fix>
</trkpt>
<trkpt lat="33.810313" lon="-118.393867">
  <ele>-0.12</ele>
  <time>2026-09-02T22:11:00Z</time>
  <course>0.0</course>
  <speed>0.0</speed>
  <fix>3d</fix>
</trkpt>
<trkpt lat="33.8103131" lon="-118.3938671">
  <ele>-0.113</ele>
  <time>2026-09-02T22:11:00Z</time>
  <course>186.83</course>
  <speed>0.022360679774997897</speed>
  <fix>3d</fix>
</trkpt>
<trkpt lat="33.810313" lon="-118.393867">
  <ele>-0.12</ele>
  <time>2026-09-02T22:11:00Z</time>
  <course>0.0</course>
  <speed>0.0</speed>
  <fix>3d</fix>
</trkpt>
<trkpt lat="33.8103131" lon="-118.3938671">
  <ele>-0.114</ele>
  <time>2026-09-02T22:11:00Z</time>
  <course>186.83</course>
  <speed>0.022360679774997897</speed>
  <fix>3d</fix>
</trkpt>
<trkpt lat="33.810313" lon="-118.393867">
  <ele>-0.12</ele>
  <time>2026-09-02T22:11:00Z</time>
  <course>0.0</course>
  <speed>0.0</speed>
  <fix>3d</fix>
</trkpt>
<trkpt lat="33.8103131" lon="-118.3938671">
  <ele>-0.114</ele>
  <time>2026-09-02T22:11:00Z</time>
  <course>186.82</course>
  <speed>0.022360679774997897</speed>
  <fix>3d</fix>
</trkpt>
<trkpt lat="33.810313" lon="-118.393867">
  <ele>-0.12</ele>
  <time>2026-09-02T22:11:00Z</time>
  <course>0.0</course>
  <speed>0.0</speed>
  <fix>3d</fix>
</trkpt>
<trkpt lat="33.8103131" lon="-118.3938671">
  <ele>-0.113</ele>
  <time>2026-09-02T22:11:00Z</time>
  <course>186.82</course>
  <speed>0.022360679774997897</speed>
  <fix>3d</fix>
</trkpt>
<trkpt lat="33.810313" lon="-118.393867">
  <ele>-0.12</ele>
  <time>2026-09-02T22:11:00Z</time>
  <course>0.0</course>
  <speed>0.0</speed>
  <fix>3d</fix>
</trkpt>
<trkpt lat="33.8103131" lon="-118.3938671">
  <ele>-0.112</ele>
  <time>2026-09-02T22:11:00Z</time>
  <course>186.82</course>
  <speed>0.022360679774997897</speed>
  <fix>3d</fix>
</trkpt>
<trkpt lat="33.810313" lon="-118.393867">
  <ele>-0.12</ele>
  <time>2026-09-02T22:11:00Z</time>
  <course>0.0</course>
  <speed>0.0</speed>
  <fix>3d</fix>
</trkpt>
<trkpt lat="33.8103131" lon="-118.3938671">
  <ele>-0.111</ele>
  <time>2026-09-02T22:11:00Z</time>
  <course>186.81</course>
  <speed>0.022360679774997897</speed>
  <fix>3d</fix>
</trkpt>
<trkpt lat="33.810313" lon="-118.393867">
  <ele>-0.12</ele>
  <time>2026-09-02T22:11:00Z</time>
  <course>0.0</course>
  <speed>0.0</speed>
  <fix>3d</fix>
</trkpt>
<trkpt lat="33.8103131" lon="-118.3938671">
  <ele>-0.11</ele>
  <time>2026-09-02T22:11:00Z</time>
  <course>186.81</course>
  <speed>0.022360679774997897</speed>
  <fix>3d</fix>
</trkpt>
<trkpt lat="33.810313" lon="-118.393867">
  <ele>-0.12</ele>
  <time>2026-09-02T22:11:00Z</time>
  <course>0.0</course>
  <speed>0.0</speed>
  <fix>3d</fix>
</trkpt>
<trkpt lat="33.8103131" lon="-118.3938671">
  <ele>-0.109</ele>
  <time>2026-09-02T22:11:00Z</time>
  <course>186.81</course>
  <speed>0.022360679774997897</speed>
  <fix>3d</fix>
</trkpt>
<trkpt lat="33.810313" lon="-118.393867">
  <ele>-0.12</ele>
  <time>2026-09-02T22:11:00Z</time>
  <course>0.0</course>
  <speed>0.0</speed>
  <fix>3d</fix>
</trkpt>
<trkpt lat="33.8103131" lon="-118.3938671">
  <ele>-0.108</ele>
  <time>2026-09-02T22:11:00Z</time>
  <course>186.81</course>
  <speed>0.022360679774997897</speed>
  <fix>3d</fix>
</trkpt>
<trkpt lat="33.810313" lon="-118.393867">
  <ele>-0.12</ele>
  <time>2026-09-02T22:11:00Z</time>
  <course>0.0</course>
  <speed>0.0</speed>
  <fix>3d</fix>
</trkpt>
<trkpt lat="33.8103131" lon="-118.3938671">
  <ele>-0.109</ele>
  <time>2026-09-02T22:11:01Z</time>
  <course>186.8</course>
  <speed>0.022360679774997897</speed>
  <fix>3d</fix>
</trkpt>
<trkpt lat="33.810313" lon="-118.393867">
  <ele>-0.12</ele>
  <time>2026-09-02T22:11:01Z</time>
  <course>0.0</course>
  <speed>0.0</speed>
  <fix>3d</fix>
</trkpt>
<trkpt lat="33.8103131" lon="-118.3938671">
  <ele>-0.111</ele>
  <time>2026-09-02T22:11:01Z</time>
  <course>186.8</course>
  <speed>0.022360679774997897</speed>
  <fix>3d</fix>
</trkpt>
<trkpt lat="33.810313" lon="-118.393867">
  <ele>-0.12</ele>
  <time>2026-09-02T22:11:01Z</time>
  <course>0.0</course>
  <speed>0.0</speed>
  <fix>3d</fix>
</trkpt>
<trkpt lat="33.8103131" lon="-118.3938671">
  <ele>-0.111</ele>
  <time>2026-09-02T22:11:01Z</time>
  <course>186.8</course>
  <speed>0.022360679774997897</speed>
  <fix>3d</fix>
</trkpt>
<trkpt lat="33.810313" lon="-118.393867">
  <ele>-0.12</ele>
  <time>2026-09-02T22:11:01Z</time>
  <course>0.0</course>
  <speed>0.0</speed>
  <fix>3d</fix>
</trkpt>
<trkpt lat="33.8103131" lon="-118.3938671">
  <ele>-0.111</ele>
  <time>2026-09-02T22:11:01Z</time>
  <course>186.79</course>
  <speed>0.022360679774997897</speed>
  <fix>3d</fix>
</trkpt>
<trkpt lat="33.810313" lon="-118.393867">
  <ele>-0.12</ele>
  <time>2026-09-02T22:11:01Z</time>
  <course>0.0</course>
  <speed>0.0</speed>
  <fix>3d</fix>
</trkpt>
<trkpt lat="33.8103131" lon="-118.3938671">
  <ele>-0.109</ele>
  <time>2026-09-02T22:11:01Z</time>
  <course>186.79</course>
  <speed>0.022360679774997897</speed>
  <fix>3d</fix>
</trkpt>
<trkpt lat="33.810313" lon="-118.393867">
  <ele>-0.12</ele>
  <time>2026-09-02T22:11:01Z</time>
  <course>0.0</course>
  <speed>0.0</speed>
  <fix>3d</fix>
</trkpt>
<trkpt lat="33.8103131" lon="-118.3938671">
  <ele>-0.107</ele>
  <time>2026-09-02T22:11:01Z</time>
  <course>186.79</course>
  <speed>0.022360679774997897</speed>
  <fix>3d</fix>
</trkpt>
<trkpt lat="33.810313" lon="-118.393867">
  <ele>-0.12</ele>
  <time>2026-09-02T22:11:01Z</time>
  <course>0.0</course>
  <speed>0.0</speed>
  <fix>3d</fix>
</trkpt>
<trkpt lat="33.8103131" lon="-118.3938671">
  <ele>-0.105</ele>
  <time>2026-09-02T22:11:01Z</time>
  <course>186.79</course>
  <speed>0.022360679774997897</speed>
  <fix>3d</fix>
</trkpt>
<trkpt lat="33.810313" lon="-118.393867">
  <ele>-0.12</ele>
  <time>2026-09-02T22:11:01Z</time>
  <course>0.0</course>
  <speed>0.0</speed>
  <fix>3d</fix>
</trkpt>
<trkpt lat="33.8103131" lon="-118.3938671">
  <ele>-0.102</ele>
  <time>2026-09-02T22:11:01Z</time>
  <course>186.78</course>
  <speed>0.022360679774997897</speed>
  <fix>3d</fix>
</trkpt>
<trkpt lat="33.810313" lon="-118.393867">
  <ele>-0.12</ele>
  <time>2026-09-02T22:11:01Z</time>
  <course>0.0</course>
  <speed>0.0</speed>
  <fix>3d</fix>
</trkpt>
<trkpt lat="33.8103131" lon="-118.3938671">
  <ele>-0.1</ele>
  <time>2026-09-02T22:11:01Z</time>
  <course>186.78</course>
  <speed>0.022360679774997897</speed>
  <fix>3d</fix>
</trkpt>
<trkpt lat="33.810313" lon="-118.393867">
  <ele>-0.12</ele>
  <time>2026-09-02T22:11:01Z</time>
  <course>0.0</course>
  <speed>0.0</speed>
  <fix>3d</fix>
</trkpt>
<trkpt lat="33.8103131" lon="-118.3938671">
  <ele>-0.099</ele>
  <time>2026-09-02T22:11:01Z</time>
  <course>186.78</course>
  <speed>0.022360679774997897</speed>
  <fix>3d</fix>
</trkpt>
<trkpt lat="33.810313" lon="-118.393867">
  <ele>-0.12</ele>
  <time>2026-09-02T22:11:01Z</time>
  <course>0.0</course>
  <speed>0.0</speed>
  <fix>3d</fix>
</trkpt>
<trkpt lat="33.8103131" lon="-118.3938671">
  <ele>-0.099</ele>
  <time>2026-09-02T22:11:02Z</time>
  <course>186.77</course>
  <speed>0.022360679774997897</speed>
  <fix>3d</fix>
</trkpt>
<trkpt lat="33.810313" lon="-118.393867">
  <ele>-0.12</ele>
  <time>2026-09-02T22:11:02Z</time>
  <course>0.0</course>
  <speed>0.0</speed>
  <fix>3d</fix>
</trkpt>
<trkpt lat="33.8103131" lon="-118.3938671">
  <ele>-0.1</ele>
  <time>2026-09-02T22:11:02Z</time>
  <course>186.77</course>
  <speed>0.022360679774997897</speed>
  <fix>3d</fix>
</trkpt>
<trkpt lat="33.810313" lon="-118.393867">
  <ele>-0.12</ele>
  <time>2026-09-02T22:11:02Z</time>
  <course>0.0</course>
  <speed>0.0</speed>
  <fix>3d</fix>
</trkpt>
<trkpt lat="33.8103131" lon="-118.3938671">
  <ele>-0.101</ele>
  <time>2026-09-02T22:11:02Z</time>
  <course>186.77</course>
  <speed>0.022360679774997897</speed>
  <fix>3d</fix>
</trkpt>
<trkpt lat="33.810313" lon="-118.393867">
  <ele>-0.12</ele>
  <time>2026-09-02T22:11:02Z</time>
  <course>0.0</course>
  <speed>0.0</speed>
  <fix>3d</fix>
</trkpt>
<trkpt lat="33.8103131" lon="-118.3938671">
  <ele>-0.103</ele>
  <time>2026-09-02T22:11:02Z</time>
  <course>186.77</course>
  <speed>0.022360679774997897</speed>
  <fix>3d</fix>
</trkpt>
<trkpt lat="33.810313" lon="-118.393867">
  <ele>-0.12</ele>
  <time>2026-09-02T22:11:02Z</time>
  <course>0.0</course>
  <speed>0.0</speed>
  <fix>3d</fix>
</trkpt>
<trkpt lat="33.8103131" lon="-118.3938671">
  <ele>-0.105</ele>
  <time>2026-09-02T22:11:02Z</time>
  <course>186.76</course>
  <speed>0.022360679774997897</speed>
  <fix>3d</fix>
</trkpt>
<trkpt lat="33.810313" lon="-118.393867">
  <ele>-0.12</ele>
  <time>2026-09-02T22:11:02Z</time>
  <course>0.0</course>
  <speed>0.0</speed>
  <fix>3d</fix>
</trkpt>
<trkpt lat="33.8103131" lon="-118.3938671">
  <ele>-0.106</ele>
  <time>2026-09-02T22:11:02Z</time>
  <course>186.76</course>
  <speed>0.022360679774997897</speed>
  <fix>3d</fix>
</trkpt>
<trkpt lat="33.810313" lon="-118.393867">
  <ele>-0.12</ele>
  <time>2026-09-02T22:11:02Z</time>
  <course>0.0</course>
  <speed>0.0</speed>
  <fix>3d</fix>
</trkpt>
<trkpt lat="33.8103131" lon="-118.3938671">
  <ele>-0.106</ele>
  <time>2026-09-02T22:11:02Z</time>
  <course>186.76</course>
  <speed>0.022360679774997897</speed>
  <fix>3d</fix>
</trkpt>
<trkpt lat="33.810313" lon="-118.393867">
  <ele>-0.12</ele>
  <time>2026-09-02T22:11:02Z</time>
  <course>0.0</course>
  <speed>0.0</speed>
  <fix>3d</fix>
</trkpt>
<trkpt lat="33.8103131" lon="-118.3938671">
  <ele>-0.104</ele>
  <time>2026-09-02T22:11:02Z</time>
  <course>186.76</course>
  <speed>0.022360679774997897</speed>
  <fix>3d</fix>
</trkpt>
<trkpt lat="33.810313" lon="-118.393867">
  <ele>-0.12</ele>
  <time>2026-09-02T22:11:02Z</time>
  <course>0.0</course>
  <speed>0.0</speed>
  <fix>3d</fix>
</trkpt>
<trkpt lat="33.8103131" lon="-118.3938671">
  <ele>-0.103</ele>
  <time>2026-09-02T22:11:02Z</time>
  <course>186.75</course>
  <speed>0.022360679774997897</speed>
  <fix>3d</fix>
</trkpt>
<trkpt lat="33.810313" lon="-118.393867">
  <ele>-0.12</ele>
  <time>2026-09-02T22:11:02Z</time>
  <course>0.0</course>
  <speed>0.0</speed>
  <fix>3d</fix>
</trkpt>
<trkpt lat="33.8103131" lon="-118.3938671">
  <ele>-0.103</ele>
  <time>2026-09-02T22:11:02Z</time>
  <course>186.75</course>
  <speed>0.022360679774997897</speed>
  <fix>3d</fix>
</trkpt>
<trkpt lat="33.810313" lon="-118.393867">
  <ele>-0.12</ele>
  <time>2026-09-02T22:11:02Z</time>
  <course>0.0</course>
  <speed>0.0</speed>
  <fix>3d</fix>
</trkpt>
<trkpt lat="33.8103131" lon="-118.3938671">
  <ele>-0.104</ele>
  <time>2026-09-02T22:11:03Z</time>
  <course>186.75</course>
  <speed>0.022360679774997897</speed>
  <fix>3d</fix>
</trkpt>
<trkpt lat="33.810313" lon="-118.393867">
  <ele>-0.12</ele>
  <time>2026-09-02T22:11:03Z</time>
  <course>0.0</course>
  <speed>0.0</speed>
  <fix>3d</fix>
</trkpt>
<trkpt lat="33.8103131" lon="-118.3938671">
  <ele>-0.106</ele>
  <time>2026-09-02T22:11:03Z</time>
  <course>186.74</course>
  <speed>0.022360679774997897</speed>
  <fix>3d</fix>
</trkpt>
<trkpt lat="33.810313" lon="-118.393867">
  <ele>-0.12</ele>
  <time>2026-09-02T22:11:03Z</time>
  <course>0.0</course>
  <speed>0.0</speed>
  <fix>3d</fix>
</trkpt>
<trkpt lat="33.8103131" lon="-118.3938671">
  <ele>-0.108</ele>
  <time>2026-09-02T22:11:03Z</time>
  <course>186.74</course>
  <speed>0.022360679774997897</speed>
  <fix>3d</fix>
</trkpt>
<trkpt lat="33.810313" lon="-118.393867">
  <ele>-0.12</ele>
  <time>2026-09-02T22:11:03Z</time>
  <course>0.0</course>
  <speed>0.0</speed>
  <fix>3d</fix>
</trkpt>
<trkpt lat="33.8103131" lon="-118.3938671">
  <ele>-0.11</ele>
  <time>2026-09-02T22:11:03Z</time>
  <course>186.74</course>
  <speed>0.022360679774997897</speed>
  <fix>3d</fix>
</trkpt>
<trkpt lat="33.810313" lon="-118.393867">
  <ele>-0.12</ele>
  <time>2026-09-02T22:11:03Z</time>
  <course>0.0</course>
  <speed>0.0</speed>
  <fix>3d</fix>
</trkpt>
<trkpt lat="33.8103131" lon="-118.3938671">
  <ele>-0.111</ele>
  <time>2026-09-02T22:11:03Z</time>
  <course>186.74</course>
  <speed>0.022360679774997897</speed>
  <fix>3d</fix>
</trkpt>
<trkpt lat="33.810313" lon="-118.393867">
  <ele>-0.12</ele>
  <time>2026-09-02T22:11:03Z</time>
  <course>0.0</course>
  <speed>0.0</speed>
  <fix>3d</fix>
</trkpt>
<trkpt lat="33.8103131" lon="-118.3938671">
  <ele>-0.111</ele>
  <time>2026-09-02T22:11:03Z</time>
  <course>186.73</course>
  <speed>0.022360679774997897</speed>
  <fix>3d</fix>
</trkpt>
<trkpt lat="33.810313" lon="-118.393867">
  <ele>-0.12</ele>
  <time>2026-09-02T22:11:03Z</time>
  <course>0.0</course>
  <speed>0.0</speed>
  <fix>3d</fix>
</trkpt>
<trkpt lat="33.8103131" lon="-118.3938671">
  <ele>-0.111</ele>
  <time>2026-09-02T22:11:03Z</time>
  <course>186.73</course>
  <speed>0.022360679774997897</speed>
  <fix>3d</fix>
</trkpt>
<trkpt lat="33.810313" lon="-118.393867">
  <ele>-0.12</ele>
  <time>2026-09-02T22:11:03Z</time>
  <course>0.0</course>
  <speed>0.0</speed>
  <fix>3d</fix>
</trkpt>
<trkpt lat="33.8103131" lon="-118.3938671">
  <ele>-0.11</ele>
  <time>2026-09-02T22:11:03Z</time>
  <course>186.73</course>
  <speed>0.022360679774997897</speed>
  <fix>3d</fix>
</trkpt>
<trkpt lat="33.810313" lon="-118.393867">
  <ele>-0.12</ele>
  <time>2026-09-02T22:11:03Z</time>
  <course>0.0</course>
  <speed>0.0</speed>
  <fix>3d</fix>
</trkpt>
<trkpt lat="33.8103131" lon="-118.3938671">
  <ele>-0.11</ele>
  <time>2026-09-02T22:11:03Z</time>
  <course>186.73</course>
  <speed>0.022360679774997897</speed>
  <fix>3d</fix>
</trkpt>
<trkpt lat="33.810313" lon="-118.393867">
  <ele>-0.12</ele>
  <time>2026-09-02T22:11:03Z</time>
  <course>0.0</course>
  <speed>0.0</speed>
  <fix>3d</fix>
</trkpt>
<trkpt lat="33.8103131" lon="-118.3938671">
  <ele>-0.111</ele>
  <time>2026-09-02T22:11:03Z</time>
  <course>186.72</course>
  <speed>0.022360679774997897</speed>
  <fix>3d</fix>
</trkpt>
<trkpt lat="33.810313" lon="-118.393867">
  <ele>-0.12</ele>
  <time>2026-09-02T22:11:03Z</time>
  <course>0.0</course>
  <speed>0.0</speed>
  <fix>3d</fix>
</trkpt>
<trkpt lat="33.8103131" lon="-118.3938671">
  <ele>-0.112</ele>
  <time>2026-09-02T22:11:03Z</time>
  <course>186.72</course>
  <speed>0.022360679774997897</speed>
  <fix>3d</fix>
</trkpt>
<trkpt lat="33.810313" lon="-118.393867">
  <ele>-0.12</ele>
  <time>2026-09-02T22:11:03Z</time>
  <course>0.0</course>
  <speed>0.0</speed>
  <fix>3d</fix>
</trkpt>
<trkpt lat="33.8103131" lon="-118.3938671">
  <ele>-0.114</ele>
  <time>2026-09-02T22:11:04Z</time>
  <course>186.72</course>
  <speed>0.022360679774997897</speed>
  <fix>3d</fix>
</trkpt>
<trkpt lat="33.810313" lon="-118.393867">
  <ele>-0.12</ele>
  <time>2026-09-02T22:11:04Z</time>
  <course>0.0</course>
  <speed>0.0</speed>
  <fix>3d</fix>
</trkpt>
<trkpt lat="33.8103131" lon="-118.3938671">
  <ele>-0.116</ele>
  <time>2026-09-02T22:11:04Z</time>
  <course>186.72</course>
  <speed>0.022360679774997897</speed>
  <fix>3d</fix>
</trkpt>
<trkpt lat="33.810313" lon="-118.393867">
  <ele>-0.12</ele>
  <time>2026-09-02T22:11:04Z</time>
  <course>0.0</course>
  <speed>0.0</speed>
  <fix>3d</fix>
</trkpt>
<trkpt lat="33.8103131" lon="-118.3938671">
  <ele>-0.117</ele>
  <time>2026-09-02T22:11:04Z</time>
  <course>186.71</course>
  <speed>0.022360679774997897</speed>
  <fix>3d</fix>
</trkpt>
<trkpt lat="33.810313" lon="-118.393867">
  <ele>-0.12</ele>
  <time>2026-09-02T22:11:04Z</time>
  <course>0.0</course>
  <speed>0.0</speed>
  <fix>3d</fix>
</trkpt>
<trkpt lat="33.8103131" lon="-118.3938671">
  <ele>-0.116</ele>
  <time>2026-09-02T22:11:04Z</time>
  <course>186.71</course>
  <speed>0.022360679774997897</speed>
  <fix>3d</fix>
</trkpt>
<trkpt lat="33.810313" lon="-118.393867">
  <ele>-0.12</ele>
  <time>2026-09-02T22:11:04Z</time>
  <course>0.0</course>
  <speed>0.0</speed>
  <fix>3d</fix>
</trkpt>
<trkpt lat="33.8103131" lon="-118.3938671">
  <ele>-0.115</ele>
  <time>2026-09-02T22:11:04Z</time>
  <course>186.71</course>
  <speed>0.022360679774997897</speed>
  <fix>3d</fix>
</trkpt>
<trkpt lat="33.810313" lon="-118.393867">
  <ele>-0.12</ele>
  <time>2026-09-02T22:11:04Z</time>
  <course>0.0</course>
  <speed>0.0</speed>
  <fix>3d</fix>
</trkpt>
<trkpt lat="33.8103131" lon="-118.3938671">
  <ele>-0.115</ele>
  <time>2026-09-02T22:11:04Z</time>
  <course>186.71</course>
  <speed>0.022360679774997897</speed>
  <fix>3d</fix>
</trkpt>
<trkpt lat="33.810313" lon="-118.393867">
  <ele>-0.12</ele>
  <time>2026-09-02T22:11:04Z</time>
  <course>0.0</course>
  <speed>0.0</speed>
  <fix>3d</fix>
</trkpt>
<trkpt lat="33.8103131" lon="-118.3938671">
  <ele>-0.115</ele>
  <time>2026-09-02T22:11:04Z</time>
  <course>186.7</course>
  <speed>0.022360679774997897</speed>
  <fix>3d</fix>
</trkpt>
<trkpt lat="33.810313" lon="-118.393867">
  <ele>-0.12</ele>
  <time>2026-09-02T22:11:04Z</time>
  <course>0.0</course>
  <speed>0.0</speed>
  <fix>3d</fix>
</trkpt>
<trkpt lat="33.8103131" lon="-118.3938671">
  <ele>-0.115</ele>
  <time>2026-09-02T22:11:04Z</time>
  <course>186.7</course>
  <speed>0.022360679774997897</speed>
  <fix>3d</fix>
</trkpt>
<trkpt lat="33.810313" lon="-118.393867">
  <ele>-0.12</ele>
  <time>2026-09-02T22:11:04Z</time>
  <course>0.0</course>
  <speed>0.0</speed>
  <fix>3d</fix>
</trkpt>
<trkpt lat="33.8103131" lon="-118.3938671">
  <ele>-0.117</ele>
  <time>2026-09-02T22:11:04Z</time>
  <course>186.7</course>
  <speed>0.022360679774997897</speed>
  <fix>3d</fix>
</trkpt>
<trkpt lat="33.810313" lon="-118.393867">
  <ele>-0.12</ele>
  <time>2026-09-02T22:11:04Z</time>
  <course>0.0</course>
  <speed>0.0</speed>
  <fix>3d</fix>
</trkpt>
<trkpt lat="33.8103131" lon="-118.3938671">
  <ele>-0.118</ele>
  <time>2026-09-02T22:11:04Z</time>
  <course>186.7</course>
  <speed>0.022360679774997897</speed>
  <fix>3d</fix>
</trkpt>
<trkpt lat="33.810313" lon="-118.393867">
  <ele>-0.12</ele>
  <time>2026-09-02T22:11:04Z</time>
  <course>0.0</course>
  <speed>0.0</speed>
  <fix>3d</fix>
</trkpt>
<trkpt lat="33.8103131" lon="-118.3938671">
  <ele>-0.118</ele>
  <time>2026-09-02T22:11:05Z</time>
  <course>186.69</course>
  <speed>0.022360679774997897</speed>
  <fix>3d</fix>
</trkpt>
<trkpt lat="33.810313" lon="-118.393867">
  <ele>-0.12</ele>
  <time>2026-09-02T22:11:05Z</time>
  <course>0.0</course>
  <speed>0.0</speed>
  <fix>3d</fix>
</trkpt>
<trkpt lat="33.8103131" lon="-118.3938671">
  <ele>-0.118</ele>
  <time>2026-09-02T22:11:05Z</time>
  <course>186.69</course>
  <speed>0.022360679774997897</speed>
  <fix>3d</fix>
</trkpt>
<trkpt lat="33.810313" lon="-118.393867">
  <ele>-0.12</ele>
  <time>2026-09-02T22:11:05Z</time>
  <course>0.0</course>
  <speed>0.0</speed>
  <fix>3d</fix>
</trkpt>
<trkpt lat="33.8103131" lon="-118.3938671">
  <ele>-0.117</ele>
  <time>2026-09-02T22:11:05Z</time>
  <course>186.69</course>
  <speed>0.022360679774997897</speed>
  <fix>3d</fix>
</trkpt>
<trkpt lat="33.810313" lon="-118.393867">
  <ele>-0.12</ele>
  <time>2026-09-02T22:11:05Z</time>
  <course>0.0</course>
  <speed>0.0</speed>
  <fix>3d</fix>
</trkpt>
<trkpt lat="33.8103131" lon="-118.3938671">
  <ele>-0.115</ele>
  <time>2026-09-02T22:11:05Z</time>
  <course>186.69</course>
  <speed>0.022360679774997897</speed>
  <fix>3d</fix>
</trkpt>
<trkpt lat="33.810313" lon="-118.393867">
  <ele>-0.12</ele>
  <time>2026-09-02T22:11:05Z</time>
  <course>0.0</course>
  <speed>0.0</speed>
  <fix>3d</fix>
</trkpt>
<trkpt lat="33.8103131" lon="-118.3938671">
  <ele>-0.113</ele>
  <time>2026-09-02T22:11:05Z</time>
  <course>186.68</course>
  <speed>0.022360679774997897</speed>
  <fix>3d</fix>
</trkpt>
<trkpt lat="33.810313" lon="-118.393867">
  <ele>-0.12</ele>
  <time>2026-09-02T22:11:05Z</time>
  <course>0.0</course>
  <speed>0.0</speed>
  <fix>3d</fix>
</trkpt>
<trkpt lat="33.8103131" lon="-118.3938671">
  <ele>-0.111</ele>
  <time>2026-09-02T22:11:05Z</time>
  <course>186.68</course>
  <speed>0.022360679774997897</speed>
  <fix>3d</fix>
</trkpt>
<trkpt lat="33.810313" lon="-118.393867">
  <ele>-0.12</ele>
  <time>2026-09-02T22:11:05Z</time>
  <course>0.0</course>
  <speed>0.0</speed>
  <fix>3d</fix>
</trkpt>
<trkpt lat="33.8103131" lon="-118.3938671">
  <ele>-0.11</ele>
  <time>2026-09-02T22:11:05Z</time>
  <course>186.68</course>
  <speed>0.022360679774997897</speed>
  <fix>3d</fix>
</trkpt>
<trkpt lat="33.810313" lon="-118.393867">
  <ele>-0.12</ele>
  <time>2026-09-02T22:11:05Z</time>
  <course>0.0</course>
  <speed>0.0</speed>
  <fix>3d</fix>
</trkpt>
<trkpt lat="33.8103131" lon="-118.3938671">
  <ele>-0.109</ele>
  <time>2026-09-02T22:11:05Z</time>
  <course>186.68</course>
  <speed>0.022360679774997897</speed>
  <fix>3d</fix>
</trkpt>
<trkpt lat="33.810313" lon="-118.393867">
  <ele>-0.12</ele>
  <time>2026-09-02T22:11:05Z</time>
  <course>0.0</course>
  <speed>0.0</speed>
  <fix>3d</fix>
</trkpt>
<trkpt lat="33.8103131" lon="-118.3938671">
  <ele>-0.109</ele>
  <time>2026-09-02T22:11:05Z</time>
  <course>186.67</course>
  <speed>0.022360679774997897</speed>
  <fix>3d</fix>
</trkpt>
<trkpt lat="33.810313" lon="-118.393867">
  <ele>-0.12</ele>
  <time>2026-09-02T22:11:05Z</time>
  <course>0.0</course>
  <speed>0.0</speed>
  <fix>3d</fix>
</trkpt>
<trkpt lat="33.8103131" lon="-118.3938671">
  <ele>-0.109</ele>
  <time>2026-09-02T22:11:05Z</time>
  <course>186.67</course>
  <speed>0.022360679774997897</speed>
  <fix>3d</fix>
</trkpt>
<trkpt lat="33.810313" lon="-118.393867">
  <ele>-0.12</ele>
  <time>2026-09-02T22:11:05Z</time>
  <course>0.0</course>
  <speed>0.0</speed>
  <fix>3d</fix>
</trkpt>
<trkpt lat="33.8103131" lon="-118.3938671">
  <ele>-0.109</ele>
  <time>2026-09-02T22:11:06Z</time>
  <course>186.67</course>
  <speed>0.022360679774997897</speed>
  <fix>3d</fix>
</trkpt>
<trkpt lat="33.810313" lon="-118.393867">
  <ele>-0.12</ele>
  <time>2026-09-02T22:11:06Z</time>
  <course>0.0</course>
  <speed>0.0</speed>
  <fix>3d</fix>
</trkpt>
<trkpt lat="33.8103131" lon="-118.3938671">
  <ele>-0.11</ele>
  <time>2026-09-02T22:11:06Z</time>
  <course>186.67</course>
  <speed>0.022360679774997897</speed>
  <fix>3d</fix>
</trkpt>
<trkpt lat="33.810313" lon="-118.393867">
  <ele>-0.12</ele>
  <time>2026-09-02T22:11:06Z</time>
  <course>0.0</course>
  <speed>0.0</speed>
  <fix>3d</fix>
</trkpt>
<trkpt lat="33.8103131" lon="-118.3938671">
  <ele>-0.111</ele>
  <time>2026-09-02T22:11:06Z</time>
  <course>186.66</course>
  <speed>0.022360679774997897</speed>
  <fix>3d</fix>
</trkpt>
<trkpt lat="33.810313" lon="-118.393867">
  <ele>-0.12</ele>
  <time>2026-09-02T22:11:06Z</time>
  <course>0.0</course>
  <speed>0.0</speed>
  <fix>3d</fix>
</trkpt>
<trkpt lat="33.8103131" lon="-118.3938671">
  <ele>-0.112</ele>
  <time>2026-09-02T22:11:06Z</time>
  <course>186.66</course>
  <speed>0.022360679774997897</speed>
  <fix>3d</fix>
</trkpt>
<trkpt lat="33.810313" lon="-118.393867">
  <ele>-0.12</ele>
  <time>2026-09-02T22:11:06Z</time>
  <course>0.0</course>
  <speed>0.0</speed>
  <fix>3d</fix>
</trkpt>
<trkpt lat="33.8103131" lon="-118.3938671">
  <ele>-0.112</ele>
  <time>2026-09-02T22:11:06Z</time>
  <course>186.66</course>
  <speed>0.022360679774997897</speed>
  <fix>3d</fix>
</trkpt>
<trkpt lat="33.810313" lon="-118.393867">
  <ele>-0.12</ele>
  <time>2026-09-02T22:11:06Z</time>
  <course>0.0</course>
  <speed>0.0</speed>
  <fix>3d</fix>
</trkpt>
<trkpt lat="33.8103131" lon="-118.3938671">
  <ele>-0.11</ele>
  <time>2026-09-02T22:11:06Z</time>
  <course>186.66</course>
  <speed>0.022360679774997897</speed>
  <fix>3d</fix>
</trkpt>
<trkpt lat="33.810313" lon="-118.393867">
  <ele>-0.12</ele>
  <time>2026-09-02T22:11:06Z</time>
  <course>0.0</course>
  <speed>0.0</speed>
  <fix>3d</fix>
</trkpt>
<trkpt lat="33.8103131" lon="-118.3938671">
  <ele>-0.108</ele>
  <time>2026-09-02T22:11:06Z</time>
  <course>186.66</course>
  <speed>0.022360679774997897</speed>
  <fix>3d</fix>
</trkpt>
<trkpt lat="33.810313" lon="-118.393867">
  <ele>-0.12</ele>
  <time>2026-09-02T22:11:06Z</time>
  <course>0.0</course>
  <speed>0.0</speed>
  <fix>3d</fix>
</trkpt>
<trkpt lat="33.8103131" lon="-118.3938671">
  <ele>-0.107</ele>
  <time>2026-09-02T22:11:06Z</time>
  <course>186.65</course>
  <speed>0.022360679774997897</speed>
  <fix>3d</fix>
</trkpt>
<trkpt lat="33.810313" lon="-118.393867">
  <ele>-0.12</ele>
  <time>2026-09-02T22:11:06Z</time>
  <course>0.0</course>
  <speed>0.0</speed>
  <fix>3d</fix>
</trkpt>
<trkpt lat="33.8103131" lon="-118.3938671">
  <ele>-0.107</ele>
  <time>2026-09-02T22:11:06Z</time>
  <course>186.65</course>
  <speed>0.022360679774997897</speed>
  <fix>3d</fix>
</trkpt>
<trkpt lat="33.810313" lon="-118.393867">
  <ele>-0.12</ele>
  <time>2026-09-02T22:11:06Z</time>
  <course>0.0</course>
  <speed>0.0</speed>
  <fix>3d</fix>
</trkpt>
<trkpt lat="33.8103131" lon="-118.3938671">
  <ele>-0.108</ele>
  <time>2026-09-02T22:11:06Z</time>
  <course>186.65</course>
  <speed>0.022360679774997897</speed>
  <fix>3d</fix>
</trkpt>
<trkpt lat="33.810313" lon="-118.393867">
  <ele>-0.12</ele>
  <time>2026-09-02T22:11:06Z</time>
  <course>0.0</course>
  <speed>0.0</speed>
  <fix>3d</fix>
</trkpt>
<trkpt lat="33.8103131" lon="-118.3938671">
  <ele>-0.109</ele>
  <time>2026-09-02T22:11:07Z</time>
  <course>186.65</course>
  <speed>0.022360679774997897</speed>
  <fix>3d</fix>
</trkpt>
<trkpt lat="33.810313" lon="-118.393867">
  <ele>-0.12</ele>
  <time>2026-09-02T22:11:07Z</time>
  <course>0.0</course>
  <speed>0.0</speed>
  <fix>3d</fix>
</trkpt>
<trkpt lat="33.8103131" lon="-118.3938671">
  <ele>-0.11</ele>
  <time>2026-09-02T22:11:07Z</time>
  <course>186.64</course>
  <speed>0.022360679774997897</speed>
  <fix>3d</fix>
</trkpt>
<trkpt lat="33.810313" lon="-118.393867">
  <ele>-0.12</ele>
  <time>2026-09-02T22:11:07Z</time>
  <course>0.0</course>
  <speed>0.0</speed>
  <fix>3d</fix>
</trkpt>
<trkpt lat="33.8103131" lon="-118.3938671">
  <ele>-0.111</ele>
  <time>2026-09-02T22:11:07Z</time>
  <course>186.64</course>
  <speed>0.022360679774997897</speed>
  <fix>3d</fix>
</trkpt>
<trkpt lat="33.810313" lon="-118.393867">
  <ele>-0.12</ele>
  <time>2026-09-02T22:11:07Z</time>
  <course>0.0</course>
  <speed>0.0</speed>
  <fix>3d</fix>
</trkpt>
<trkpt lat="33.8103131" lon="-118.3938671">
  <ele>-0.112</ele>
  <time>2026-09-02T22:11:07Z</time>
  <course>186.64</course>
  <speed>0.022360679774997897</speed>
  <fix>3d</fix>
</trkpt>
<trkpt lat="33.810313" lon="-118.393867">
  <ele>-0.12</ele>
  <time>2026-09-02T22:11:07Z</time>
  <course>0.0</course>
  <speed>0.0</speed>
  <fix>3d</fix>
</trkpt>
<trkpt lat="33.8103131" lon="-118.3938671">
  <ele>-0.112</ele>
  <time>2026-09-02T22:11:07Z</time>
  <course>186.64</course>
  <speed>0.022360679774997897</speed>
  <fix>3d</fix>
</trkpt>
<trkpt lat="33.810313" lon="-118.393867">
  <ele>-0.12</ele>
  <time>2026-09-02T22:11:07Z</time>
  <course>0.0</course>
  <speed>0.0</speed>
  <fix>3d</fix>
</trkpt>
<trkpt lat="33.8103131" lon="-118.3938671">
  <ele>-0.112</ele>
  <time>2026-09-02T22:11:07Z</time>
  <course>186.63</course>
  <speed>0.022360679774997897</speed>
  <fix>3d</fix>
</trkpt>
<trkpt lat="33.810313" lon="-118.393867">
  <ele>-0.12</ele>
  <time>2026-09-02T22:11:07Z</time>
  <course>0.0</course>
  <speed>0.0</speed>
  <fix>3d</fix>
</trkpt>
<trkpt lat="33.8103131" lon="-118.3938671">
  <ele>-0.112</ele>
  <time>2026-09-02T22:11:07Z</time>
  <course>186.63</course>
  <speed>0.022360679774997897</speed>
  <fix>3d</fix>
</trkpt>
<trkpt lat="33.810313" lon="-118.393867">
  <ele>-0.12</ele>
  <time>2026-09-02T22:11:07Z</time>
  <course>0.0</course>
  <speed>0.0</speed>
  <fix>3d</fix>
</trkpt>
<trkpt lat="33.8103131" lon="-118.3938671">
  <ele>-0.112</ele>
  <time>2026-09-02T22:11:07Z</time>
  <course>186.63</course>
  <speed>0.022360679774997897</speed>
  <fix>3d</fix>
</trkpt>
<trkpt lat="33.810313" lon="-118.393867">
  <ele>-0.12</ele>
  <time>2026-09-02T22:11:07Z</time>
  <course>0.0</course>
  <speed>0.0</speed>
  <fix>3d</fix>
</trkpt>
<trkpt lat="33.8103131" lon="-118.3938671">
  <ele>-0.112</ele>
  <time>2026-09-02T22:11:07Z</time>
  <course>186.63</course>
  <speed>0.022360679774997897</speed>
  <fix>3d</fix>
</trkpt>
<trkpt lat="33.810313" lon="-118.393867">
  <ele>-0.12</ele>
  <time>2026-09-02T22:11:07Z</time>
  <course>0.0</course>
  <speed>0.0</speed>
  <fix>3d</fix>
</trkpt>
<trkpt lat="33.8103131" lon="-118.3938671">
  <ele>-0.113</ele>
  <time>2026-09-02T22:11:07Z</time>
  <course>186.62</course>
  <speed>0.022360679774997897</speed>
  <fix>3d</fix>
</trkpt>
<trkpt lat="33.810313" lon="-118.393867">
  <ele>-0.12</ele>
  <time>2026-09-02T22:11:07Z</time>
  <course>0.0</course>
  <speed>0.0</speed>
  <fix>3d</fix>
</trkpt>
<trkpt lat="33.8103131" lon="-118.3938671">
  <ele>-0.115</ele>
  <time>2026-09-02T22:11:08Z</time>
  <course>186.62</course>
  <speed>0.022360679774997897</speed>
  <fix>3d</fix>
</trkpt>
<trkpt lat="33.810313" lon="-118.393867">
  <ele>-0.12</ele>
  <time>2026-09-02T22:11:08Z</time>
  <course>0.0</course>
  <speed>0.0</speed>
  <fix>3d</fix>
</trkpt>
<trkpt lat="33.8103131" lon="-118.3938671">
  <ele>-0.115</ele>
  <time>2026-09-02T22:11:08Z</time>
  <course>186.62</course>
  <speed>0.022360679774997897</speed>
  <fix>3d</fix>
</trkpt>
<trkpt lat="33.810313" lon="-118.393867">
  <ele>-0.12</ele>
  <time>2026-09-02T22:11:08Z</time>
  <course>0.0</course>
  <speed>0.0</speed>
  <fix>3d</fix>
</trkpt>
<trkpt lat="33.8103131" lon="-118.3938671">
  <ele>-0.116</ele>
  <time>2026-09-02T22:11:08Z</time>
  <course>186.62</course>
  <speed>0.022360679774997897</speed>
  <fix>3d</fix>
</trkpt>
<trkpt lat="33.810313" lon="-118.393867">
  <ele>-0.12</ele>
  <time>2026-09-02T22:11:08Z</time>
  <course>0.0</course>
  <speed>0.0</speed>
  <fix>3d</fix>
</trkpt>
<trkpt lat="33.8103131" lon="-118.3938671">
  <ele>-0.117</ele>
  <time>2026-09-02T22:11:08Z</time>
  <course>186.62</course>
  <speed>0.022360679774997897</speed>
  <fix>3d</fix>
</trkpt>
<trkpt lat="33.810313" lon="-118.393867">
  <ele>-0.12</ele>
  <time>2026-09-02T22:11:08Z</time>
  <course>0.0</course>
  <speed>0.0</speed>
  <fix>3d</fix>
</trkpt>
<trkpt lat="33.8103131" lon="-118.3938671">
  <ele>-0.117</ele>
  <time>2026-09-02T22:11:08Z</time>
  <course>186.61</course>
  <speed>0.022360679774997897</speed>
  <fix>3d</fix>
</trkpt>
<trkpt lat="33.810313" lon="-118.393867">
  <ele>-0.12</ele>
  <time>2026-09-02T22:11:08Z</time>
  <course>0.0</course>
  <speed>0.0</speed>
  <fix>3d</fix>
</trkpt>
<trkpt lat="33.8103131" lon="-118.3938671">
  <ele>-0.116</ele>
  <time>2026-09-02T22:11:08Z</time>
  <course>186.61</course>
  <speed>0.022360679774997897</speed>
  <fix>3d</fix>
</trkpt>
<trkpt lat="33.810313" lon="-118.393867">
  <ele>-0.12</ele>
  <time>2026-09-02T22:11:08Z</time>
  <course>0.0</course>
  <speed>0.0</speed>
  <fix>3d</fix>
</trkpt>
<trkpt lat="33.8103131" lon="-118.3938671">
  <ele>-0.114</ele>
  <time>2026-09-02T22:11:08Z</time>
  <course>186.61</course>
  <speed>0.022360679774997897</speed>
  <fix>3d</fix>
</trkpt>
<trkpt lat="33.810313" lon="-118.393867">
  <ele>-0.12</ele>
  <time>2026-09-02T22:11:08Z</time>
  <course>0.0</course>
  <speed>0.0</speed>
  <fix>3d</fix>
</trkpt>
<trkpt lat="33.8103131" lon="-118.3938671">
  <ele>-0.114</ele>
  <time>2026-09-02T22:11:08Z</time>
  <course>186.61</course>
  <speed>0.022360679774997897</speed>
  <fix>3d</fix>
</trkpt>
<trkpt lat="33.810313" lon="-118.393867">
  <ele>-0.12</ele>
  <time>2026-09-02T22:11:08Z</time>
  <course>0.0</course>
  <speed>0.0</speed>
  <fix>3d</fix>
</trkpt>
<trkpt lat="33.8103131" lon="-118.3938671">
  <ele>-0.114</ele>
  <time>2026-09-02T22:11:08Z</time>
  <course>186.61</course>
  <speed>0.022360679774997897</speed>
  <fix>3d</fix>
</trkpt>
<trkpt lat="33.810313" lon="-118.393867">
  <ele>-0.12</ele>
  <time>2026-09-02T22:11:08Z</time>
  <course>0.0</course>
  <speed>0.0</speed>
  <fix>3d</fix>
</trkpt>
<trkpt lat="33.8103131" lon="-118.3938671">
  <ele>-0.113</ele>
  <time>2026-09-02T22:11:08Z</time>
  <course>186.6</course>
  <speed>0.022360679774997897</speed>
  <fix>3d</fix>
</trkpt>
<trkpt lat="33.810313" lon="-118.393867">
  <ele>-0.12</ele>
  <time>2026-09-02T22:11:08Z</time>
  <course>0.0</course>
  <speed>0.0</speed>
  <fix>3d</fix>
</trkpt>
<trkpt lat="33.8103131" lon="-118.3938671">
  <ele>-0.114</ele>
  <time>2026-09-02T22:11:09Z</time>
  <course>186.6</course>
  <speed>0.022360679774997897</speed>
  <fix>3d</fix>
</trkpt>
<trkpt lat="33.810313" lon="-118.393867">
  <ele>-0.12</ele>
  <time>2026-09-02T22:11:09Z</time>
  <course>0.0</course>
  <speed>0.0</speed>
  <fix>3d</fix>
</trkpt>
<trkpt lat="33.8103131" lon="-118.3938671">
  <ele>-0.115</ele>
  <time>2026-09-02T22:11:09Z</time>
  <course>186.6</course>
  <speed>0.022360679774997897</speed>
  <fix>3d</fix>
</trkpt>
<trkpt lat="33.810313" lon="-118.393867">
  <ele>-0.12</ele>
  <time>2026-09-02T22:11:09Z</time>
  <course>0.0</course>
  <speed>0.0</speed>
  <fix>3d</fix>
</trkpt>
<trkpt lat="33.8103131" lon="-118.3938671">
  <ele>-0.115</ele>
  <time>2026-09-02T22:11:09Z</time>
  <course>186.6</course>
  <speed>0.022360679774997897</speed>
  <fix>3d</fix>
</trkpt>
<trkpt lat="33.810313" lon="-118.393867">
  <ele>-0.12</ele>
  <time>2026-09-02T22:11:09Z</time>
  <course>0.0</course>
  <speed>0.0</speed>
  <fix>3d</fix>
</trkpt>
<trkpt lat="33.8103131" lon="-118.3938671">
  <ele>-0.115</ele>
  <time>2026-09-02T22:11:09Z</time>
  <course>186.59</course>
  <speed>0.022360679774997897</speed>
  <fix>3d</fix>
</trkpt>
<trkpt lat="33.810313" lon="-118.393867">
  <ele>-0.12</ele>
  <time>2026-09-02T22:11:09Z</time>
  <course>0.0</course>
  <speed>0.0</speed>
  <fix>3d</fix>
</trkpt>
<trkpt lat="33.8103131" lon="-118.3938671">
  <ele>-0.115</ele>
  <time>2026-09-02T22:11:09Z</time>
  <course>186.59</course>
  <speed>0.022360679774997897</speed>
  <fix>3d</fix>
</trkpt>
<trkpt lat="33.810313" lon="-118.393867">
  <ele>-0.12</ele>
  <time>2026-09-02T22:11:09Z</time>
  <course>0.0</course>
  <speed>0.0</speed>
  <fix>3d</fix>
</trkpt>
<trkpt lat="33.8103131" lon="-118.3938671">
  <ele>-0.115</ele>
  <time>2026-09-02T22:11:09Z</time>
  <course>186.59</course>
  <speed>0.022360679774997897</speed>
  <fix>3d</fix>
</trkpt>
<trkpt lat="33.810313" lon="-118.393867">
  <ele>-0.12</ele>
  <time>2026-09-02T22:11:09Z</time>
  <course>0.0</course>
  <speed>0.0</speed>
  <fix>3d</fix>
</trkpt>
<trkpt lat="33.8103131" lon="-118.3938671">
  <ele>-0.114</ele>
  <time>2026-09-02T22:11:09Z</time>
  <course>186.59</course>
  <speed>0.022360679774997897</speed>
  <fix>3d</fix>
</trkpt>
<trkpt lat="33.810313" lon="-118.393867">
  <ele>-0.12</ele>
  <time>2026-09-02T22:11:09Z</time>
  <course>0.0</course>
  <speed>0.0</speed>
  <fix>3d</fix>
</trkpt>
<trkpt lat="33.8103131" lon="-118.3938671">
  <ele>-0.113</ele>
  <time>2026-09-02T22:11:09Z</time>
  <course>186.59</course>
  <speed>0.022360679774997897</speed>
  <fix>3d</fix>
</trkpt>
<trkpt lat="33.810313" lon="-118.393867">
  <ele>-0.12</ele>
  <time>2026-09-02T22:11:09Z</time>
  <course>0.0</course>
  <speed>0.0</speed>
  <fix>3d</fix>
</trkpt>
<trkpt lat="33.8103131" lon="-118.3938671">
  <ele>-0.113</ele>
  <time>2026-09-02T22:11:09Z</time>
  <course>186.58</course>
  <speed>0.022360679774997897</speed>
  <fix>3d</fix>
</trkpt>
<trkpt lat="33.810313" lon="-118.393867">
  <ele>-0.12</ele>
  <time>2026-09-02T22:11:09Z</time>
  <course>0.0</course>
  <speed>0.0</speed>
  <fix>3d</fix>
</trkpt>
<trkpt lat="33.8103131" lon="-118.3938671">
  <ele>-0.112</ele>
  <time>2026-09-02T22:11:09Z</time>
  <course>186.58</course>
  <speed>0.022360679774997897</speed>
  <fix>3d</fix>
</trkpt>
<trkpt lat="33.810313" lon="-118.393867">
  <ele>-0.12</ele>
  <time>2026-09-02T22:11:09Z</time>
  <course>0.0</course>
  <speed>0.0</speed>
  <fix>3d</fix>
</trkpt>
<trkpt lat="33.8103131" lon="-118.3938671">
  <ele>-0.113</ele>
  <time>2026-09-02T22:11:09Z</time>
  <course>186.58</course>
  <speed>0.022360679774997897</speed>
  <fix>3d</fix>
</trkpt>
<trkpt lat="33.810313" lon="-118.393867">
  <ele>-0.12</ele>
  <time>2026-09-02T22:11:09Z</time>
  <course>0.0</course>
  <speed>0.0</speed>
  <fix>3d</fix>
</trkpt>
<trkpt lat="33.8103131" lon="-118.3938671">
  <ele>-0.113</ele>
  <time>2026-09-02T22:11:10Z</time>
  <course>186.58</course>
  <speed>0.022360679774997897</speed>
  <fix>3d</fix>
</trkpt>
<trkpt lat="33.810313" lon="-118.393867">
  <ele>-0.12</ele>
  <time>2026-09-02T22:11:10Z</time>
  <course>0.0</course>
  <speed>0.0</speed>
  <fix>3d</fix>
</trkpt>
<trkpt lat="33.8103131" lon="-118.3938671">
  <ele>-0.115</ele>
  <time>2026-09-02T22:11:10Z</time>
  <course>186.58</course>
  <speed>0.022360679774997897</speed>
  <fix>3d</fix>
</trkpt>
<trkpt lat="33.810313" lon="-118.393867">
  <ele>-0.12</ele>
  <time>2026-09-02T22:11:10Z</time>
  <course>0.0</course>
  <speed>0.0</speed>
  <fix>3d</fix>
</trkpt>
<trkpt lat="33.8103131" lon="-118.3938671">
  <ele>-0.115</ele>
  <time>2026-09-02T22:11:10Z</time>
  <course>186.58</course>
  <speed>0.022360679774997897</speed>
  <fix>3d</fix>
</trkpt>
<trkpt lat="33.810313" lon="-118.393867">
  <ele>-0.12</ele>
  <time>2026-09-02T22:11:10Z</time>
  <course>0.0</course>
  <speed>0.0</speed>
  <fix>3d</fix>
</trkpt>
<trkpt lat="33.8103131" lon="-118.3938671">
  <ele>-0.116</ele>
  <time>2026-09-02T22:11:10Z</time>
  <course>186.57</course>
  <speed>0.022360679774997897</speed>
  <fix>3d</fix>
</trkpt>
<trkpt lat="33.810313" lon="-118.393867">
  <ele>-0.12</ele>
  <time>2026-09-02T22:11:10Z</time>
  <course>0.0</course>
  <speed>0.0</speed>
  <fix>3d</fix>
</trkpt>
<trkpt lat="33.8103131" lon="-118.3938671">
  <ele>-0.116</ele>
  <time>2026-09-02T22:11:10Z</time>
  <course>186.57</course>
  <speed>0.022360679774997897</speed>
  <fix>3d</fix>
</trkpt>
<trkpt lat="33.810313" lon="-118.393867">
  <ele>-0.12</ele>
  <time>2026-09-02T22:11:10Z</time>
  <course>0.0</course>
  <speed>0.0</speed>
  <fix>3d</fix>
</trkpt>
<trkpt lat="33.8103131" lon="-118.3938671">
  <ele>-0.117</ele>
  <time>2026-09-02T22:11:10Z</time>
  <course>186.57</course>
  <speed>0.022360679774997897</speed>
  <fix>3d</fix>
</trkpt>
<trkpt lat="33.810313" lon="-118.393867">
  <ele>-0.12</ele>
  <time>2026-09-02T22:11:10Z</time>
  <course>0.0</course>
  <speed>0.0</speed>
  <fix>3d</fix>
</trkpt>
<trkpt lat="33.8103131" lon="-118.3938671">
  <ele>-0.117</ele>
  <time>2026-09-02T22:11:10Z</time>
  <course>186.57</course>
  <speed>0.022360679774997897</speed>
  <fix>3d</fix>
</trkpt>
<trkpt lat="33.810313" lon="-118.393867">
  <ele>-0.12</ele>
  <time>2026-09-02T22:11:10Z</time>
  <course>0.0</course>
  <speed>0.0</speed>
  <fix>3d</fix>
</trkpt>
<trkpt lat="33.8103131" lon="-118.3938671">
  <ele>-0.116</ele>
  <time>2026-09-02T22:11:10Z</time>
  <course>186.57</course>
  <speed>0.022360679774997897</speed>
  <fix>3d</fix>
</trkpt>
<trkpt lat="33.810313" lon="-118.393867">
  <ele>-0.12</ele>
  <time>2026-09-02T22:11:10Z</time>
  <course>0.0</course>
  <speed>0.0</speed>
  <fix>3d</fix>
</trkpt>
<trkpt lat="33.8103131" lon="-118.3938671">
  <ele>-0.115</ele>
  <time>2026-09-02T22:11:10Z</time>
  <course>186.56</course>
  <speed>0.022360679774997897</speed>
  <fix>3d</fix>
</trkpt>
<trkpt lat="33.810313" lon="-118.393867">
  <ele>-0.12</ele>
  <time>2026-09-02T22:11:10Z</time>
  <course>0.0</course>
  <speed>0.0</speed>
  <fix>3d</fix>
</trkpt>
<trkpt lat="33.8103131" lon="-118.3938671">
  <ele>-0.113</ele>
  <time>2026-09-02T22:11:10Z</time>
  <course>186.56</course>
  <speed>0.022360679774997897</speed>
  <fix>3d</fix>
</trkpt>
<trkpt lat="33.810313" lon="-118.393867">
  <ele>-0.12</ele>
  <time>2026-09-02T22:11:10Z</time>
  <course>0.0</course>
  <speed>0.0</speed>
  <fix>3d</fix>
</trkpt>
<trkpt lat="33.8103131" lon="-118.3938671">
  <ele>-0.113</ele>
  <time>2026-09-02T22:11:10Z</time>
  <course>186.56</course>
  <speed>0.022360679774997897</speed>
  <fix>3d</fix>
</trkpt>
<trkpt lat="33.810313" lon="-118.393867">
  <ele>-0.12</ele>
  <time>2026-09-02T22:11:10Z</time>
  <course>0.0</course>
  <speed>0.0</speed>
  <fix>3d</fix>
</trkpt>
<trkpt lat="33.8103131" lon="-118.3938671">
  <ele>-0.113</ele>
  <time>2026-09-02T22:11:11Z</time>
  <course>186.56</course>
  <speed>0.022360679774997897</speed>
  <fix>3d</fix>
</trkpt>
<trkpt lat="33.810313" lon="-118.393867">
  <ele>-0.12</ele>
  <time>2026-09-02T22:11:11Z</time>
  <course>0.0</course>
  <speed>0.0</speed>
  <fix>3d</fix>
</trkpt>
<trkpt lat="33.8103131" lon="-118.3938671">
  <ele>-0.111</ele>
  <time>2026-09-02T22:11:11Z</time>
  <course>186.56</course>
  <speed>0.022360679774997897</speed>
  <fix>3d</fix>
</trkpt>
<trkpt lat="33.810313" lon="-118.393867">
  <ele>-0.12</ele>
  <time>2026-09-02T22:11:11Z</time>
  <course>0.0</course>
  <speed>0.0</speed>
  <fix>3d</fix>
</trkpt>
<trkpt lat="33.8103131" lon="-118.3938671">
  <ele>-0.109</ele>
  <time>2026-09-02T22:11:11Z</time>
  <course>186.55</course>
  <speed>0.022360679774997897</speed>
  <fix>3d</fix>
</trkpt>
<trkpt lat="33.810313" lon="-118.393867">
  <ele>-0.12</ele>
  <time>2026-09-02T22:11:11Z</time>
  <course>0.0</course>
  <speed>0.0</speed>
  <fix>3d</fix>
</trkpt>
<trkpt lat="33.8103131" lon="-118.3938671">
  <ele>-0.107</ele>
  <time>2026-09-02T22:11:11Z</time>
  <course>186.55</course>
  <speed>0.022360679774997897</speed>
  <fix>3d</fix>
</trkpt>
<trkpt lat="33.810313" lon="-118.393867">
  <ele>-0.12</ele>
  <time>2026-09-02T22:11:11Z</time>
  <course>0.0</course>
  <speed>0.0</speed>
  <fix>3d</fix>
</trkpt>
<trkpt lat="33.8103131" lon="-118.3938671">
  <ele>-0.105</ele>
  <time>2026-09-02T22:11:11Z</time>
  <course>186.55</course>
  <speed>0.022360679774997897</speed>
  <fix>3d</fix>
</trkpt>
<trkpt lat="33.810313" lon="-118.393867">
  <ele>-0.12</ele>
  <time>2026-09-02T22:11:11Z</time>
  <course>0.0</course>
  <speed>0.0</speed>
  <fix>3d</fix>
</trkpt>
<trkpt lat="33.8103131" lon="-118.3938671">
  <ele>-0.105</ele>
  <time>2026-09-02T22:11:11Z</time>
  <course>186.55</course>
  <speed>0.022360679774997897</speed>
  <fix>3d</fix>
</trkpt>
<trkpt lat="33.810313" lon="-118.393867">
  <ele>-0.12</ele>
  <time>2026-09-02T22:11:12Z</time>
  <course>0.0</course>
  <speed>0.0</speed>
  <fix>3d</fix>
</trkpt>
<trkpt lat="33.8103131" lon="-118.3938671">
  <ele>-0.104</ele>
  <time>2026-09-02T22:11:12Z</time>
  <course>186.55</course>
  <speed>0.022360679774997897</speed>
  <fix>3d</fix>
</trkpt>
<trkpt lat="33.810313" lon="-118.393867">
  <ele>-0.12</ele>
  <time>2026-09-02T22:11:12Z</time>
  <course>0.0</course>
  <speed>0.0</speed>
  <fix>3d</fix>
</trkpt>
<trkpt lat="33.8103131" lon="-118.3938671">
  <ele>-0.104</ele>
  <time>2026-09-02T22:11:12Z</time>
  <course>186.55</course>
  <speed>0.022360679774997897</speed>
  <fix>3d</fix>
</trkpt>
<trkpt lat="33.810313" lon="-118.393867">
  <ele>-0.12</ele>
  <time>2026-09-02T22:11:12Z</time>
  <course>0.0</course>
  <speed>0.0</speed>
  <fix>3d</fix>
</trkpt>
<trkpt lat="33.8103131" lon="-118.3938671">
  <ele>-0.105</ele>
  <time>2026-09-02T22:11:12Z</time>
  <course>186.54</course>
  <speed>0.022360679774997897</speed>
  <fix>3d</fix>
</trkpt>
<trkpt lat="33.810313" lon="-118.393867">
  <ele>-0.12</ele>
  <time>2026-09-02T22:11:12Z</time>
  <course>0.0</course>
  <speed>0.0</speed>
  <fix>3d</fix>
</trkpt>
<trkpt lat="33.8103131" lon="-118.3938671">
  <ele>-0.107</ele>
  <time>2026-09-02T22:11:12Z</time>
  <course>186.54</course>
  <speed>0.022360679774997897</speed>
  <fix>3d</fix>
</trkpt>
<trkpt lat="33.810313" lon="-118.393867">
  <ele>-0.12</ele>
  <time>2026-09-02T22:11:12Z</time>
  <course>0.0</course>
  <speed>0.0</speed>
  <fix>3d</fix>
</trkpt>
<trkpt lat="33.8103131" lon="-118.3938671">
  <ele>-0.107</ele>
  <time>2026-09-02T22:11:13Z</time>
  <course>186.54</course>
  <speed>0.022360679774997897</speed>
  <fix>3d</fix>
</trkpt>
<trkpt lat="33.810313" lon="-118.393867">
  <ele>-0.12</ele>
  <time>2026-09-02T22:11:13Z</time>
  <course>0.0</course>
  <speed>0.0</speed>
  <fix>3d</fix>
</trkpt>
<trkpt lat="33.8103131" lon="-118.3938671">
  <ele>-0.108</ele>
  <time>2026-09-02T22:11:13Z</time>
  <course>186.54</course>
  <speed>0.022360679774997897</speed>
  <fix>3d</fix>
</trkpt>
<trkpt lat="33.810313" lon="-118.393867">
  <ele>-0.12</ele>
  <time>2026-09-02T22:11:13Z</time>
  <course>0.0</course>
  <speed>0.0</speed>
  <fix>3d</fix>
</trkpt>
<trkpt lat="33.8103131" lon="-118.3938671">
  <ele>-0.109</ele>
  <time>2026-09-02T22:11:13Z</time>
  <course>186.54</course>
  <speed>0.022360679774997897</speed>
  <fix>3d</fix>
</trkpt>
<trkpt lat="33.810313" lon="-118.393867">
  <ele>-0.12</ele>
  <time>2026-09-02T22:11:13Z</time>
  <course>0.0</course>
  <speed>0.0</speed>
  <fix>3d</fix>
</trkpt>
<trkpt lat="33.8103131" lon="-118.3938671">
  <ele>-0.11</ele>
  <time>2026-09-02T22:11:13Z</time>
  <course>186.53</course>
  <speed>0.022360679774997897</speed>
  <fix>3d</fix>
</trkpt>
<trkpt lat="33.810313" lon="-118.393867">
  <ele>-0.12</ele>
  <time>2026-09-02T22:11:13Z</time>
  <course>0.0</course>
  <speed>0.0</speed>
  <fix>3d</fix>
</trkpt>
<trkpt lat="33.8103131" lon="-118.3938671">
  <ele>-0.11</ele>
  <time>2026-09-02T22:11:13Z</time>
  <course>186.53</course>
  <speed>0.022360679774997897</speed>
  <fix>3d</fix>
</trkpt>
<trkpt lat="33.810313" lon="-118.393867">
  <ele>-0.12</ele>
  <time>2026-09-02T22:11:13Z</time>
  <course>0.0</course>
  <speed>0.0</speed>
  <fix>3d</fix>
</trkpt>
<trkpt lat="33.8103131" lon="-118.3938671">
  <ele>-0.109</ele>
  <time>2026-09-02T22:11:13Z</time>
  <course>186.53</course>
  <speed>0.022360679774997897</speed>
  <fix>3d</fix>
</trkpt>
<trkpt lat="33.810313" lon="-118.393867">
  <ele>-0.12</ele>
  <time>2026-09-02T22:11:13Z</time>
  <course>0.0</course>
  <speed>0.0</speed>
  <fix>3d</fix>
</trkpt>
<trkpt lat="33.8103131" lon="-118.3938671">
  <ele>-0.109</ele>
  <time>2026-09-02T22:11:13Z</time>
  <course>186.53</course>
  <speed>0.022360679774997897</speed>
  <fix>3d</fix>
</trkpt>
<trkpt lat="33.810313" lon="-118.393867">
  <ele>-0.12</ele>
  <time>2026-09-02T22:11:13Z</time>
  <course>0.0</course>
  <speed>0.0</speed>
  <fix>3d</fix>
</trkpt>
<trkpt lat="33.8103131" lon="-118.3938671">
  <ele>-0.11</ele>
  <time>2026-09-02T22:11:13Z</time>
  <course>186.53</course>
  <speed>0.022360679774997897</speed>
  <fix>3d</fix>
</trkpt>
<trkpt lat="33.810313" lon="-118.393867">
  <ele>-0.12</ele>
  <time>2026-09-02T22:11:13Z</time>
  <course>0.0</course>
  <speed>0.0</speed>
  <fix>3d</fix>
</trkpt>
<trkpt lat="33.8103131" lon="-118.3938671">
  <ele>-0.112</ele>
  <time>2026-09-02T22:11:13Z</time>
  <course>186.53</course>
  <speed>0.022360679774997897</speed>
  <fix>3d</fix>
</trkpt>
<trkpt lat="33.810313" lon="-118.393867">
  <ele>-0.12</ele>
  <time>2026-09-02T22:11:13Z</time>
  <course>0.0</course>
  <speed>0.0</speed>
  <fix>3d</fix>
</trkpt>
<trkpt lat="33.8103131" lon="-118.3938671">
  <ele>-0.113</ele>
  <time>2026-09-02T22:11:13Z</time>
  <course>186.52</course>
  <speed>0.022360679774997897</speed>
  <fix>3d</fix>
</trkpt>
<trkpt lat="33.810313" lon="-118.393867">
  <ele>-0.12</ele>
  <time>2026-09-02T22:11:13Z</time>
  <course>0.0</course>
  <speed>0.0</speed>
  <fix>3d</fix>
</trkpt>
<trkpt lat="33.8103131" lon="-118.3938671">
  <ele>-0.114</ele>
  <time>2026-09-02T22:11:14Z</time>
  <course>186.52</course>
  <speed>0.022360679774997897</speed>
  <fix>3d</fix>
</trkpt>
<trkpt lat="33.810313" lon="-118.393867">
  <ele>-0.12</ele>
  <time>2026-09-02T22:11:14Z</time>
  <course>0.0</course>
  <speed>0.0</speed>
  <fix>3d</fix>
</trkpt>
<trkpt lat="33.8103131" lon="-118.3938671">
  <ele>-0.116</ele>
  <time>2026-09-02T22:11:14Z</time>
  <course>186.52</course>
  <speed>0.022360679774997897</speed>
  <fix>3d</fix>
</trkpt>
<trkpt lat="33.810313" lon="-118.393867">
  <ele>-0.12</ele>
  <time>2026-09-02T22:11:14Z</time>
  <course>0.0</course>
  <speed>0.0</speed>
  <fix>3d</fix>
</trkpt>
<trkpt lat="33.8103131" lon="-118.3938671">
  <ele>-0.118</ele>
  <time>2026-09-02T22:11:14Z</time>
  <course>186.52</course>
  <speed>0.022360679774997897</speed>
  <fix>3d</fix>
</trkpt>
<trkpt lat="33.810313" lon="-118.393867">
  <ele>-0.12</ele>
  <time>2026-09-02T22:11:14Z</time>
  <course>0.0</course>
  <speed>0.0</speed>
  <fix>3d</fix>
</trkpt>
<trkpt lat="33.8103131" lon="-118.3938671">
  <ele>-0.119</ele>
  <time>2026-09-02T22:11:14Z</time>
  <course>186.52</course>
  <speed>0.022360679774997897</speed>
  <fix>3d</fix>
</trkpt>
<trkpt lat="33.810313" lon="-118.393867">
  <ele>-0.12</ele>
  <time>2026-09-02T22:11:14Z</time>
  <course>0.0</course>
  <speed>0.0</speed>
  <fix>3d</fix>
</trkpt>
<trkpt lat="33.8103131" lon="-118.3938671">
  <ele>-0.12</ele>
  <time>2026-09-02T22:11:14Z</time>
  <course>186.51</course>
  <speed>0.022360679774997897</speed>
  <fix>3d</fix>
</trkpt>
<trkpt lat="33.810313" lon="-118.393867">
  <ele>-0.12</ele>
  <time>2026-09-02T22:11:14Z</time>
  <course>0.0</course>
  <speed>0.0</speed>
  <fix>3d</fix>
</trkpt>
<trkpt lat="33.8103131" lon="-118.3938671">
  <ele>-0.119</ele>
  <time>2026-09-02T22:11:14Z</time>
  <course>186.51</course>
  <speed>0.022360679774997897</speed>
  <fix>3d</fix>
</trkpt>
<trkpt lat="33.810313" lon="-118.393867">
  <ele>-0.12</ele>
  <time>2026-09-02T22:11:14Z</time>
  <course>0.0</course>
  <speed>0.0</speed>
  <fix>3d</fix>
</trkpt>
<trkpt lat="33.8103131" lon="-118.3938671">
  <ele>-0.118</ele>
  <time>2026-09-02T22:11:14Z</time>
  <course>186.51</course>
  <speed>0.022360679774997897</speed>
  <fix>3d</fix>
</trkpt>
<trkpt lat="33.810313" lon="-118.393867">
  <ele>-0.12</ele>
  <time>2026-09-02T22:11:14Z</time>
  <course>0.0</course>
  <speed>0.0</speed>
  <fix>3d</fix>
</trkpt>
<trkpt lat="33.8103131" lon="-118.3938671">
  <ele>-0.119</ele>
  <time>2026-09-02T22:11:14Z</time>
  <course>186.51</course>
  <speed>0.022360679774997897</speed>
  <fix>3d</fix>
</trkpt>
<trkpt lat="33.810313" lon="-118.393867">
  <ele>-0.12</ele>
  <time>2026-09-02T22:11:14Z</time>
  <course>0.0</course>
  <speed>0.0</speed>
  <fix>3d</fix>
</trkpt>
<trkpt lat="33.8103131" lon="-118.3938671">
  <ele>-0.12</ele>
  <time>2026-09-02T22:11:14Z</time>
  <course>186.51</course>
  <speed>0.022360679774997897</speed>
  <fix>3d</fix>
</trkpt>
<trkpt lat="33.810313" lon="-118.393867">
  <ele>-0.12</ele>
  <time>2026-09-02T22:11:14Z</time>
  <course>0.0</course>
  <speed>0.0</speed>
  <fix>3d</fix>
</trkpt>
<trkpt lat="33.8103131" lon="-118.3938671">
  <ele>-0.121</ele>
  <time>2026-09-02T22:11:14Z</time>
  <course>186.51</course>
  <speed>0.022360679774997897</speed>
  <fix>3d</fix>
</trkpt>
<trkpt lat="33.810313" lon="-118.393867">
  <ele>-0.12</ele>
  <time>2026-09-02T22:11:14Z</time>
  <course>0.0</course>
  <speed>0.0</speed>
  <fix>3d</fix>
</trkpt>
<trkpt lat="33.8103131" lon="-118.3938671">
  <ele>-0.121</ele>
  <time>2026-09-02T22:11:14Z</time>
  <course>186.5</course>
  <speed>0.022360679774997897</speed>
  <fix>3d</fix>
</trkpt>
<trkpt lat="33.810313" lon="-118.393867">
  <ele>-0.12</ele>
  <time>2026-09-02T22:11:14Z</time>
  <course>0.0</course>
  <speed>0.0</speed>
  <fix>3d</fix>
</trkpt>
<trkpt lat="33.8103131" lon="-118.3938671">
  <ele>-0.121</ele>
  <time>2026-09-02T22:11:14Z</time>
  <course>186.5</course>
  <speed>0.022360679774997897</speed>
  <fix>3d</fix>
</trkpt>
<trkpt lat="33.810313" lon="-118.393867">
  <ele>-0.12</ele>
  <time>2026-09-02T22:11:14Z</time>
  <course>0.0</course>
  <speed>0.0</speed>
  <fix>3d</fix>
</trkpt>
<trkpt lat="33.8103131" lon="-118.3938671">
  <ele>-0.121</ele>
  <time>2026-09-02T22:11:14Z</time>
  <course>186.5</course>
  <speed>0.022360679774997897</speed>
  <fix>3d</fix>
</trkpt>
<trkpt lat="33.810313" lon="-118.393867">
  <ele>-0.12</ele>
  <time>2026-09-02T22:11:14Z</time>
  <course>0.0</course>
  <speed>0.0</speed>
  <fix>3d</fix>
</trkpt>
<trkpt lat="33.8103131" lon="-118.3938671">
  <ele>-0.119</ele>
  <time>2026-09-02T22:11:14Z</time>
  <course>186.5</course>
  <speed>0.022360679774997897</speed>
  <fix>3d</fix>
</trkpt>
<trkpt lat="33.810313" lon="-118.393867">
  <ele>-0.12</ele>
  <time>2026-09-02T22:11:14Z</time>
  <course>0.0</course>
  <speed>0.0</speed>
  <fix>3d</fix>
</trkpt>
<trkpt lat="33.8103131" lon="-118.3938671">
  <ele>-0.118</ele>
  <time>2026-09-02T22:11:14Z</time>
  <course>186.5</course>
  <speed>0.022360679774997897</speed>
  <fix>3d</fix>
</trkpt>
<trkpt lat="33.810313" lon="-118.393867">
  <ele>-0.12</ele>
  <time>2026-09-02T22:11:14Z</time>
  <course>0.0</course>
  <speed>0.0</speed>
  <fix>3d</fix>
</trkpt>
<trkpt lat="33.8103131" lon="-118.3938671">
  <ele>-0.116</ele>
  <time>2026-09-02T22:11:14Z</time>
  <course>186.5</course>
  <speed>0.022360679774997897</speed>
  <fix>3d</fix>
</trkpt>
<trkpt lat="33.810313" lon="-118.393867">
  <ele>-0.12</ele>
  <time>2026-09-02T22:11:14Z</time>
  <course>0.0</course>
  <speed>0.0</speed>
  <fix>3d</fix>
</trkpt>
<trkpt lat="33.8103131" lon="-118.3938671">
  <ele>-0.114</ele>
  <time>2026-09-02T22:11:14Z</time>
  <course>186.49</course>
  <speed>0.022360679774997897</speed>
  <fix>3d</fix>
</trkpt>
<trkpt lat="33.810313" lon="-118.393867">
  <ele>-0.12</ele>
  <time>2026-09-02T22:11:14Z</time>
  <course>0.0</course>
  <speed>0.0</speed>
  <fix>3d</fix>
</trkpt>
<trkpt lat="33.8103131" lon="-118.3938671">
  <ele>-0.114</ele>
  <time>2026-09-02T22:11:14Z</time>
  <course>186.49</course>
  <speed>0.022360679774997897</speed>
  <fix>3d</fix>
</trkpt>
<trkpt lat="33.810313" lon="-118.393867">
  <ele>-0.12</ele>
  <time>2026-09-02T22:11:14Z</time>
  <course>0.0</course>
  <speed>0.0</speed>
  <fix>3d</fix>
</trkpt>
<trkpt lat="33.8103131" lon="-118.3938671">
  <ele>-0.114</ele>
  <time>2026-09-02T22:11:14Z</time>
  <course>186.49</course>
  <speed>0.022360679774997897</speed>
  <fix>3d</fix>
</trkpt>
<trkpt lat="33.810313" lon="-118.393867">
  <ele>-0.12</ele>
  <time>2026-09-02T22:11:14Z</time>
  <course>0.0</course>
  <speed>0.0</speed>
  <fix>3d</fix>
</trkpt>
<trkpt lat="33.8103131" lon="-118.3938671">
  <ele>-0.114</ele>
  <time>2026-09-02T22:11:15Z</time>
  <course>186.49</course>
  <speed>0.022360679774997897</speed>
  <fix>3d</fix>
</trkpt>
<trkpt lat="33.810313" lon="-118.393867">
  <ele>-0.12</ele>
  <time>2026-09-02T22:11:15Z</time>
  <course>0.0</course>
  <speed>0.0</speed>
  <fix>3d</fix>
</trkpt>
<trkpt lat="33.8103131" lon="-118.3938671">
  <ele>-0.114</ele>
  <time>2026-09-02T22:11:15Z</time>
  <course>186.49</course>
  <speed>0.022360679774997897</speed>
  <fix>3d</fix>
</trkpt>
<trkpt lat="33.810313" lon="-118.393867">
  <ele>-0.12</ele>
  <time>2026-09-02T22:11:15Z</time>
  <course>0.0</course>
  <speed>0.0</speed>
  <fix>3d</fix>
</trkpt>
<trkpt lat="33.8103131" lon="-118.3938671">
  <ele>-0.114</ele>
  <time>2026-09-02T22:11:15Z</time>
  <course>186.49</course>
  <speed>0.022360679774997897</speed>
  <fix>3d</fix>
</trkpt>
<trkpt lat="33.810313" lon="-118.393867">
  <ele>-0.12</ele>
  <time>2026-09-02T22:11:15Z</time>
  <course>0.0</course>
  <speed>0.0</speed>
  <fix>3d</fix>
</trkpt>
<trkpt lat="33.8103131" lon="-118.3938671">
  <ele>-0.113</ele>
  <time>2026-09-02T22:11:15Z</time>
  <course>186.49</course>
  <speed>0.022360679774997897</speed>
  <fix>3d</fix>
</trkpt>
<trkpt lat="33.810313" lon="-118.393867">
  <ele>-0.12</ele>
  <time>2026-09-02T22:11:15Z</time>
  <course>0.0</course>
  <speed>0.0</speed>
  <fix>3d</fix>
</trkpt>
<trkpt lat="33.8103131" lon="-118.3938671">
  <ele>-0.111</ele>
  <time>2026-09-02T22:11:15Z</time>
  <course>186.49</course>
  <speed>0.022360679774997897</speed>
  <fix>3d</fix>
</trkpt>
<trkpt lat="33.810313" lon="-118.393867">
  <ele>-0.12</ele>
  <time>2026-09-02T22:11:15Z</time>
  <course>0.0</course>
  <speed>0.0</speed>
  <fix>3d</fix>
</trkpt>
<trkpt lat="33.8103131" lon="-118.3938671">
  <ele>-0.11</ele>
  <time>2026-09-02T22:11:15Z</time>
  <course>186.48</course>
  <speed>0.022360679774997897</speed>
  <fix>3d</fix>
</trkpt>
<trkpt lat="33.810313" lon="-118.393867">
  <ele>-0.12</ele>
  <time>2026-09-02T22:11:15Z</time>
  <course>0.0</course>
  <speed>0.0</speed>
  <fix>3d</fix>
</trkpt>
<trkpt lat="33.8103131" lon="-118.3938671">
  <ele>-0.109</ele>
  <time>2026-09-02T22:11:15Z</time>
  <course>186.48</course>
  <speed>0.022360679774997897</speed>
  <fix>3d</fix>
</trkpt>
<trkpt lat="33.810313" lon="-118.393867">
  <ele>-0.12</ele>
  <time>2026-09-02T22:11:15Z</time>
  <course>0.0</course>
  <speed>0.0</speed>
  <fix>3d</fix>
</trkpt>
<trkpt lat="33.8103131" lon="-118.3938671">
  <ele>-0.109</ele>
  <time>2026-09-02T22:11:15Z</time>
  <course>186.48</course>
  <speed>0.022360679774997897</speed>
  <fix>3d</fix>
</trkpt>
<trkpt lat="33.810313" lon="-118.393867">
  <ele>-0.12</ele>
  <time>2026-09-02T22:11:15Z</time>
  <course>0.0</course>
  <speed>0.0</speed>
  <fix>3d</fix>
</trkpt>
<trkpt lat="33.8103131" lon="-118.3938671">
  <ele>-0.109</ele>
  <time>2026-09-02T22:11:15Z</time>
  <course>186.48</course>
  <speed>0.022360679774997897</speed>
  <fix>3d</fix>
</trkpt>
<trkpt lat="33.810313" lon="-118.393867">
  <ele>-0.12</ele>
  <time>2026-09-02T22:11:15Z</time>
  <course>0.0</course>
  <speed>0.0</speed>
  <fix>3d</fix>
</trkpt>
<trkpt lat="33.8103131" lon="-118.3938671">
  <ele>-0.11</ele>
  <time>2026-09-02T22:11:15Z</time>
  <course>186.48</course>
  <speed>0.022360679774997897</speed>
  <fix>3d</fix>
</trkpt>
<trkpt lat="33.810313" lon="-118.393867">
  <ele>-0.12</ele>
  <time>2026-09-02T22:11:15Z</time>
  <course>0.0</course>
  <speed>0.0</speed>
  <fix>3d</fix>
</trkpt>
<trkpt lat="33.8103131" lon="-118.3938671">
  <ele>-0.112</ele>
  <time>2026-09-02T22:11:15Z</time>
  <course>186.48</course>
  <speed>0.022360679774997897</speed>
  <fix>3d</fix>
</trkpt>
<trkpt lat="33.810313" lon="-118.393867">
  <ele>-0.12</ele>
  <time>2026-09-02T22:11:15Z</time>
  <course>0.0</course>
  <speed>0.0</speed>
  <fix>3d</fix>
</trkpt>
<trkpt lat="33.8103132" lon="-118.3938671">
  <ele>-0.113</ele>
  <time>2026-09-02T22:11:16Z</time>
  <course>186.47</course>
  <speed>0.022360679774997897</speed>
  <fix>3d</fix>
</trkpt>
<trkpt lat="33.810313" lon="-118.393867">
  <ele>-0.12</ele>
  <time>2026-09-02T22:11:16Z</time>
  <course>0.0</course>
  <speed>0.0</speed>
  <fix>3d</fix>
</trkpt>
<trkpt lat="33.8103132" lon="-118.3938671">
  <ele>-0.114</ele>
  <time>2026-09-02T22:11:16Z</time>
  <course>186.47</course>
  <speed>0.022360679774997897</speed>
  <fix>3d</fix>
</trkpt>
<trkpt lat="33.810313" lon="-118.393867">
  <ele>-0.12</ele>
  <time>2026-09-02T22:11:16Z</time>
  <course>0.0</course>
  <speed>0.0</speed>
  <fix>3d</fix>
</trkpt>
<trkpt lat="33.8103132" lon="-118.3938671">
  <ele>-0.115</ele>
  <time>2026-09-02T22:11:16Z</time>
  <course>186.47</course>
  <speed>0.022360679774997897</speed>
  <fix>3d</fix>
</trkpt>
<trkpt lat="33.810313" lon="-118.393867">
  <ele>-0.12</ele>
  <time>2026-09-02T22:11:16Z</time>
  <course>0.0</course>
  <speed>0.0</speed>
  <fix>3d</fix>
</trkpt>
<trkpt lat="33.8103132" lon="-118.3938671">
  <ele>-0.116</ele>
  <time>2026-09-02T22:11:16Z</time>
  <course>186.47</course>
  <speed>0.022360679774997897</speed>
  <fix>3d</fix>
</trkpt>
<trkpt lat="33.810313" lon="-118.393867">
  <ele>-0.12</ele>
  <time>2026-09-02T22:11:16Z</time>
  <course>0.0</course>
  <speed>0.0</speed>
  <fix>3d</fix>
</trkpt>
<trkpt lat="33.8103132" lon="-118.3938671">
  <ele>-0.116</ele>
  <time>2026-09-02T22:11:16Z</time>
  <course>186.47</course>
  <speed>0.022360679774997897</speed>
  <fix>3d</fix>
</trkpt>
<trkpt lat="33.810313" lon="-118.393867">
  <ele>-0.12</ele>
  <time>2026-09-02T22:11:16Z</time>
  <course>0.0</course>
  <speed>0.0</speed>
  <fix>3d</fix>
</trkpt>
<trkpt lat="33.8103132" lon="-118.3938671">
  <ele>-0.115</ele>
  <time>2026-09-02T22:11:16Z</time>
  <course>186.47</course>
  <speed>0.022360679774997897</speed>
  <fix>3d</fix>
</trkpt>
<trkpt lat="33.810313" lon="-118.393867">
  <ele>-0.12</ele>
  <time>2026-09-02T22:11:16Z</time>
  <course>0.0</course>
  <speed>0.0</speed>
  <fix>3d</fix>
</trkpt>
<trkpt lat="33.8103132" lon="-118.3938671">
  <ele>-0.114</ele>
  <time>2026-09-02T22:11:16Z</time>
  <course>186.47</course>
  <speed>0.022360679774997897</speed>
  <fix>3d</fix>
</trkpt>
<trkpt lat="33.810313" lon="-118.393867">
  <ele>-0.12</ele>
  <time>2026-09-02T22:11:16Z</time>
  <course>0.0</course>
  <speed>0.0</speed>
  <fix>3d</fix>
</trkpt>
<trkpt lat="33.8103132" lon="-118.3938671">
  <ele>-0.114</ele>
  <time>2026-09-02T22:11:16Z</time>
  <course>186.46</course>
  <speed>0.022360679774997897</speed>
  <fix>3d</fix>
</trkpt>
<trkpt lat="33.810313" lon="-118.393867">
  <ele>-0.12</ele>
  <time>2026-09-02T22:11:16Z</time>
  <course>0.0</course>
  <speed>0.0</speed>
  <fix>3d</fix>
</trkpt>
<trkpt lat="33.8103132" lon="-118.3938671">
  <ele>-0.114</ele>
  <time>2026-09-02T22:11:16Z</time>
  <course>186.46</course>
  <speed>0.022360679774997897</speed>
  <fix>3d</fix>
</trkpt>
<trkpt lat="33.810313" lon="-118.393867">
  <ele>-0.12</ele>
  <time>2026-09-02T22:11:16Z</time>
  <course>0.0</course>
  <speed>0.0</speed>
  <fix>3d</fix>
</trkpt>
<trkpt lat="33.8103132" lon="-118.3938671">
  <ele>-0.114</ele>
  <time>2026-09-02T22:11:16Z</time>
  <course>186.46</course>
  <speed>0.022360679774997897</speed>
  <fix>3d</fix>
</trkpt>
<trkpt lat="33.810313" lon="-118.393867">
  <ele>-0.12</ele>
  <time>2026-09-02T22:11:16Z</time>
  <course>0.0</course>
  <speed>0.0</speed>
  <fix>3d</fix>
</trkpt>
<trkpt lat="33.8103132" lon="-118.3938671">
  <ele>-0.114</ele>
  <time>2026-09-02T22:11:16Z</time>
  <course>186.46</course>
  <speed>0.022360679774997897</speed>
  <fix>3d</fix>
</trkpt>
<trkpt lat="33.810313" lon="-118.393867">
  <ele>-0.12</ele>
  <time>2026-09-02T22:11:16Z</time>
  <course>0.0</course>
  <speed>0.0</speed>
  <fix>3d</fix>
</trkpt>
<trkpt lat="33.8103132" lon="-118.3938671">
  <ele>-0.113</ele>
  <time>2026-09-02T22:11:17Z</time>
  <course>186.46</course>
  <speed>0.022360679774997897</speed>
  <fix>3d</fix>
</trkpt>
<trkpt lat="33.810313" lon="-118.393867">
  <ele>-0.12</ele>
  <time>2026-09-02T22:11:17Z</time>
  <course>0.0</course>
  <speed>0.0</speed>
  <fix>3d</fix>
</trkpt>
<trkpt lat="33.8103132" lon="-118.3938671">
  <ele>-0.112</ele>
  <time>2026-09-02T22:11:17Z</time>
  <course>186.46</course>
  <speed>0.022360679774997897</speed>
  <fix>3d</fix>
</trkpt>
<trkpt lat="33.810313" lon="-118.393867">
  <ele>-0.12</ele>
  <time>2026-09-02T22:11:17Z</time>
  <course>0.0</course>
  <speed>0.0</speed>
  <fix>3d</fix>
</trkpt>
<trkpt lat="33.8103132" lon="-118.3938671">
  <ele>-0.11</ele>
  <time>2026-09-02T22:11:17Z</time>
  <course>186.46</course>
  <speed>0.022360679774997897</speed>
  <fix>3d</fix>
</trkpt>
<trkpt lat="33.810313" lon="-118.393867">
  <ele>-0.12</ele>
  <time>2026-09-02T22:11:17Z</time>
  <course>0.0</course>
  <speed>0.0</speed>
  <fix>3d</fix>
</trkpt>
<trkpt lat="33.8103132" lon="-118.3938671">
  <ele>-0.109</ele>
  <time>2026-09-02T22:11:17Z</time>
  <course>186.45</course>
  <speed>0.022360679774997897</speed>
  <fix>3d</fix>
</trkpt>
<trkpt lat="33.810313" lon="-118.393867">
  <ele>-0.12</ele>
  <time>2026-09-02T22:11:17Z</time>
  <course>0.0</course>
  <speed>0.0</speed>
  <fix>3d</fix>
</trkpt>
<trkpt lat="33.8103132" lon="-118.3938671">
  <ele>-0.106</ele>
  <time>2026-09-02T22:11:17Z</time>
  <course>186.45</course>
  <speed>0.022360679774997897</speed>
  <fix>3d</fix>
</trkpt>
<trkpt lat="33.810313" lon="-118.393867">
  <ele>-0.12</ele>
  <time>2026-09-02T22:11:17Z</time>
  <course>0.0</course>
  <speed>0.0</speed>
  <fix>3d</fix>
</trkpt>
<trkpt lat="33.8103132" lon="-118.3938671">
  <ele>-0.103</ele>
  <time>2026-09-02T22:11:17Z</time>
  <course>186.45</course>
  <speed>0.022360679774997897</speed>
  <fix>3d</fix>
</trkpt>
<trkpt lat="33.810313" lon="-118.393867">
  <ele>-0.12</ele>
  <time>2026-09-02T22:11:17Z</time>
  <course>0.0</course>
  <speed>0.0</speed>
  <fix>3d</fix>
</trkpt>
<trkpt lat="33.8103132" lon="-118.3938671">
  <ele>-0.101</ele>
  <time>2026-09-02T22:11:17Z</time>
  <course>186.45</course>
  <speed>0.022360679774997897</speed>
  <fix>3d</fix>
</trkpt>
<trkpt lat="33.810313" lon="-118.393867">
  <ele>-0.12</ele>
  <time>2026-09-02T22:11:17Z</time>
  <course>0.0</course>
  <speed>0.0</speed>
  <fix>3d</fix>
</trkpt>
<trkpt lat="33.8103132" lon="-118.3938671">
  <ele>-0.101</ele>
  <time>2026-09-02T22:11:17Z</time>
  <course>186.45</course>
  <speed>0.022360679774997897</speed>
  <fix>3d</fix>
</trkpt>
<trkpt lat="33.810313" lon="-118.393867">
  <ele>-0.12</ele>
  <time>2026-09-02T22:11:17Z</time>
  <course>0.0</course>
  <speed>0.0</speed>
  <fix>3d</fix>
</trkpt>
<trkpt lat="33.8103132" lon="-118.3938671">
  <ele>-0.103</ele>
  <time>2026-09-02T22:11:17Z</time>
  <course>186.45</course>
  <speed>0.022360679774997897</speed>
  <fix>3d</fix>
</trkpt>
<trkpt lat="33.810313" lon="-118.393867">
  <ele>-0.12</ele>
  <time>2026-09-02T22:11:17Z</time>
  <course>0.0</course>
  <speed>0.0</speed>
  <fix>3d</fix>
</trkpt>
<trkpt lat="33.8103132" lon="-118.3938671">
  <ele>-0.105</ele>
  <time>2026-09-02T22:11:17Z</time>
  <course>186.45</course>
  <speed>0.022360679774997897</speed>
  <fix>3d</fix>
</trkpt>
<trkpt lat="33.810313" lon="-118.393867">
  <ele>-0.12</ele>
  <time>2026-09-02T22:11:17Z</time>
  <course>0.0</course>
  <speed>0.0</speed>
  <fix>3d</fix>
</trkpt>
<trkpt lat="33.4368002" lon="-117.0859339">
  <ele>-0.11</ele>
  <time>2026-09-02T22:11:18Z</time>
  <course>0.0</course>
  <speed>0.0</speed>
  <fix>3d</fix>
</trkpt>
<trkpt lat="33.4368002" lon="-117.0859339">
  <ele>-0.11</ele>
  <time>2026-09-02T22:11:18Z</time>
  <course>0.0</course>
  <speed>0.0</speed>
  <fix>3d</fix>
</trkpt>
<trkpt lat="33.810313" lon="-118.393867">
  <ele>0.0</ele>
  <time>2026-09-02T22:11:18Z</time>
  <course>173.5</course>
  <speed>0.0</speed>
  <fix>3d</fix>
</trkpt>
<trkpt lat="33.810313" lon="-118.393867">
  <ele>-0.11</ele>
  <time>2026-09-02T22:11:18Z</time>
  <course>0.0</course>
  <speed>0.0</speed>
  <fix>3d</fix>
</trkpt>
<trkpt lat="33.810313" lon="-118.393867">
  <ele>0.0</ele>
  <time>2026-09-02T22:11:18Z</time>
  <course>173.61</course>
  <speed>0.0</speed>
  <fix>3d</fix>
</trkpt>
<trkpt lat="33.810313" lon="-118.393867">
  <ele>-0.11</ele>
  <time>2026-09-02T22:11:18Z</time>
  <course>0.0</course>
  <speed>0.0</speed>
  <fix>3d</fix>
</trkpt>
<trkpt lat="33.810313" lon="-118.393867">
  <ele>0.0</ele>
  <time>2026-09-02T22:11:18Z</time>
  <course>173.98</course>
  <speed>0.0</speed>
  <fix>3d</fix>
</trkpt>
<trkpt lat="33.810313" lon="-118.393867">
  <ele>-0.11</ele>
  <time>2026-09-02T22:11:18Z</time>
  <course>0.0</course>
  <speed>0.0</speed>
  <fix>3d</fix>
</trkpt>
<trkpt lat="33.810313" lon="-118.393867">
  <ele>0.0</ele>
  <time>2026-09-02T22:11:18Z</time>
  <course>174.51</course>
  <speed>0.0</speed>
  <fix>3d</fix>
</trkpt>
<trkpt lat="33.810313" lon="-118.393867">
  <ele>-0.11</ele>
  <time>2026-09-02T22:11:18Z</time>
  <course>0.0</course>
  <speed>0.0</speed>
  <fix>3d</fix>
</trkpt>
<trkpt lat="33.810313" lon="-118.393867">
  <ele>0.0</ele>
  <time>2026-09-02T22:11:18Z</time>
  <course>175.07</course>
  <speed>0.0</speed>
  <fix>3d</fix>
</trkpt>
<trkpt lat="33.810313" lon="-118.393867">
  <ele>-0.12</ele>
  <time>2026-09-02T22:11:18Z</time>
  <course>0.0</course>
  <speed>0.0</speed>
  <fix>3d</fix>
</trkpt>
<trkpt lat="33.810313" lon="-118.393867">
  <ele>0.0</ele>
  <time>2026-09-02T22:11:18Z</time>
  <course>175.61</course>
  <speed>0.0</speed>
  <fix>3d</fix>
</trkpt>
<trkpt lat="33.810313" lon="-118.393867">
  <ele>-0.12</ele>
  <time>2026-09-02T22:11:18Z</time>
  <course>0.0</course>
  <speed>0.0</speed>
  <fix>3d</fix>
</trkpt>
<trkpt lat="33.810313" lon="-118.393867">
  <ele>0.0</ele>
  <time>2026-09-02T22:11:18Z</time>
  <course>176.12</course>
  <speed>0.0</speed>
  <fix>3d</fix>
</trkpt>
<trkpt lat="33.810313" lon="-118.393867">
  <ele>-0.13</ele>
  <time>2026-09-02T22:11:18Z</time>
  <course>0.0</course>
  <speed>0.0</speed>
  <fix>3d</fix>
</trkpt>
<trkpt lat="33.810313" lon="-118.393867">
  <ele>0.0</ele>
  <time>2026-09-02T22:11:18Z</time>
  <course>176.6</course>
  <speed>0.0</speed>
  <fix>3d</fix>
</trkpt>
<trkpt lat="33.810313" lon="-118.393867">
  <ele>-0.13</ele>
  <time>2026-09-02T22:11:18Z</time>
  <course>0.0</course>
  <speed>0.0</speed>
  <fix>3d</fix>
</trkpt>
<trkpt lat="33.810313" lon="-118.393867">
  <ele>0.0</ele>
  <time>2026-09-02T22:11:18Z</time>
  <course>177.07</course>
  <speed>0.0</speed>
  <fix>3d</fix>
</trkpt>
<trkpt lat="33.810313" lon="-118.393867">
  <ele>-0.13</ele>
  <time>2026-09-02T22:11:18Z</time>
  <course>0.0</course>
  <speed>0.0</speed>
  <fix>3d</fix>
</trkpt>
<trkpt lat="33.810313" lon="-118.393867">
  <ele>0.0</ele>
  <time>2026-09-02T22:11:18Z</time>
  <course>177.53</course>
  <speed>0.0</speed>
  <fix>3d</fix>
</trkpt>
<trkpt lat="33.810313" lon="-118.393867">
  <ele>-0.13</ele>
  <time>2026-09-02T22:11:18Z</time>
  <course>0.0</course>
  <speed>0.0</speed>
  <fix>3d</fix>
</trkpt>
<trkpt lat="33.4368002" lon="-117.0859339">
  <ele>-0.11</ele>
  <time>2026-09-02T22:11:19Z</time>
  <course>0.0</course>
  <speed>0.0</speed>
  <fix>3d</fix>
</trkpt>
<trkpt lat="33.4368002" lon="-117.0859339">
  <ele>-0.11</ele>
  <time>2026-09-02T22:11:19Z</time>
  <course>0.0</course>
  <speed>0.0</speed>
  <fix>3d</fix>
</trkpt>
<trkpt lat="33.810313" lon="-118.393867">
  <ele>0.0</ele>
  <time>2026-09-02T22:11:19Z</time>
  <course>173.5</course>
  <speed>0.0</speed>
  <fix>3d</fix>
</trkpt>
<trkpt lat="33.810313" lon="-118.393867">
  <ele>-0.11</ele>
  <time>2026-09-02T22:11:19Z</time>
  <course>0.0</course>
  <speed>0.0</speed>
  <fix>3d</fix>
</trkpt>
<trkpt lat="33.4368002" lon="-117.0859339">
  <ele>-0.11</ele>
  <time>2026-09-02T22:11:20Z</time>
  <course>0.0</course>
  <speed>0.0</speed>
  <fix>3d</fix>
</trkpt>
<trkpt lat="33.4368002" lon="-117.0859339">
  <ele>-0.11</ele>
  <time>2026-09-02T22:11:20Z</time>
  <course>0.0</course>
  <speed>0.0</speed>
  <fix>3d</fix>
</trkpt>
<trkpt lat="33.810313" lon="-118.393867">
  <ele>0.0</ele>
  <time>2026-09-02T22:11:20Z</time>
  <course>173.5</course>
  <speed>0.0</speed>
  <fix>3d</fix>
</trkpt>
<trkpt lat="33.810313" lon="-118.393867">
  <ele>-0.11</ele>
  <time>2026-09-02T22:11:20Z</time>
  <course>0.0</course>
  <speed>0.0</speed>
  <fix>3d</fix>
</trkpt>
<trkpt lat="33.810313" lon="-118.393867">
  <ele>0.0</ele>
  <time>2026-09-02T22:11:20Z</time>
  <course>173.64</course>
  <speed>0.0</speed>
  <fix>3d</fix>
</trkpt>
<trkpt lat="33.810313" lon="-118.393867">
  <ele>-0.11</ele>
  <time>2026-09-02T22:11:20Z</time>
  <course>0.0</course>
  <speed>0.0</speed>
  <fix>3d</fix>
</trkpt>
<trkpt lat="33.810313" lon="-118.393867">
  <ele>0.0</ele>
  <time>2026-09-02T22:11:20Z</time>
  <course>174.05</course>
  <speed>0.0</speed>
  <fix>3d</fix>
</trkpt>
<trkpt lat="33.810313" lon="-118.393867">
  <ele>-0.11</ele>
  <time>2026-09-02T22:11:20Z</time>
  <course>0.0</course>
  <speed>0.0</speed>
  <fix>3d</fix>
</trkpt>
<trkpt lat="33.810313" lon="-118.393867">
  <ele>0.0</ele>
  <time>2026-09-02T22:11:20Z</time>
  <course>174.58</course>
  <speed>0.0</speed>
  <fix>3d</fix>
</trkpt>
<trkpt lat="33.810313" lon="-118.393867">
  <ele>-0.11</ele>
  <time>2026-09-02T22:11:20Z</time>
  <course>0.0</course>
  <speed>0.0</speed>
  <fix>3d</fix>
</trkpt>
<trkpt lat="33.810313" lon="-118.393867">
  <ele>0.0</ele>
  <time>2026-09-02T22:11:20Z</time>
  <course>175.14</course>
  <speed>0.0</speed>
  <fix>3d</fix>
</trkpt>
<trkpt lat="33.810313" lon="-118.393867">
  <ele>-0.12</ele>
  <time>2026-09-02T22:11:20Z</time>
  <course>0.0</course>
  <speed>0.0</speed>
  <fix>3d</fix>
</trkpt>
<trkpt lat="33.810313" lon="-118.393867">
  <ele>0.0</ele>
  <time>2026-09-02T22:11:20Z</time>
  <course>175.68</course>
  <speed>0.0</speed>
  <fix>3d</fix>
</trkpt>
<trkpt lat="33.810313" lon="-118.393867">
  <ele>-0.12</ele>
  <time>2026-09-02T22:11:20Z</time>
  <course>0.0</course>
  <speed>0.0</speed>
  <fix>3d</fix>
</trkpt>
<trkpt lat="33.810313" lon="-118.393867">
  <ele>0.0</ele>
  <time>2026-09-02T22:11:20Z</time>
  <course>176.18</course>
  <speed>0.0</speed>
  <fix>3d</fix>
</trkpt>
<trkpt lat="33.810313" lon="-118.393867">
  <ele>-0.13</ele>
  <time>2026-09-02T22:11:20Z</time>
  <course>0.0</course>
  <speed>0.0</speed>
  <fix>3d</fix>
</trkpt>
<trkpt lat="33.810313" lon="-118.393867">
  <ele>0.0</ele>
  <time>2026-09-02T22:11:20Z</time>
  <course>176.66</course>
  <speed>0.0</speed>
  <fix>3d</fix>
</trkpt>
<trkpt lat="33.810313" lon="-118.393867">
  <ele>-0.13</ele>
  <time>2026-09-02T22:11:20Z</time>
  <course>0.0</course>
  <speed>0.0</speed>
  <fix>3d</fix>
</trkpt>
<trkpt lat="33.810313" lon="-118.393867">
  <ele>0.0</ele>
  <time>2026-09-02T22:11:20Z</time>
  <course>177.12</course>
  <speed>0.0</speed>
  <fix>3d</fix>
</trkpt>
<trkpt lat="33.810313" lon="-118.393867">
  <ele>-0.13</ele>
  <time>2026-09-02T22:11:20Z</time>
  <course>0.0</course>
  <speed>0.0</speed>
  <fix>3d</fix>
</trkpt>
<trkpt lat="33.810313" lon="-118.393867">
  <ele>0.0</ele>
  <time>2026-09-02T22:11:20Z</time>
  <course>177.57</course>
  <speed>0.0</speed>
  <fix>3d</fix>
</trkpt>
<trkpt lat="33.810313" lon="-118.393867">
  <ele>-0.13</ele>
  <time>2026-09-02T22:11:20Z</time>
  <course>0.0</course>
  <speed>0.0</speed>
  <fix>3d</fix>
</trkpt>
<trkpt lat="33.810313" lon="-118.393867">
  <ele>0.0</ele>
  <time>2026-09-02T22:11:20Z</time>
  <course>178.02</course>
  <speed>0.0</speed>
  <fix>3d</fix>
</trkpt>
<trkpt lat="33.810313" lon="-118.393867">
  <ele>-0.14</ele>
  <time>2026-09-02T22:11:20Z</time>
  <course>0.0</course>
  <speed>0.0</speed>
  <fix>3d</fix>
</trkpt>
<trkpt lat="33.810313" lon="-118.393867">
  <ele>0.0</ele>
  <time>2026-09-02T22:11:20Z</time>
  <course>178.46</course>
  <speed>0.0</speed>
  <fix>3d</fix>
</trkpt>
<trkpt lat="33.810313" lon="-118.393867">
  <ele>-0.14</ele>
  <time>2026-09-02T22:11:20Z</time>
  <course>0.0</course>
  <speed>0.0</speed>
  <fix>3d</fix>
</trkpt>
<trkpt lat="33.810313" lon="-118.393867">
  <ele>0.0</ele>
  <time>2026-09-02T22:11:20Z</time>
  <course>178.88</course>
  <speed>0.0</speed>
  <fix>3d</fix>
</trkpt>
<trkpt lat="33.810313" lon="-118.393867">
  <ele>-0.14</ele>
  <time>2026-09-02T22:11:20Z</time>
  <course>0.0</course>
  <speed>0.0</speed>
  <fix>3d</fix>
</trkpt>
<trkpt lat="33.810313" lon="-118.393867">
  <ele>0.0</ele>
  <time>2026-09-02T22:11:20Z</time>
  <course>179.28</course>
  <speed>0.0</speed>
  <fix>3d</fix>
</trkpt>
<trkpt lat="33.810313" lon="-118.393867">
  <ele>-0.14</ele>
  <time>2026-09-02T22:11:20Z</time>
  <course>0.0</course>
  <speed>0.0</speed>
  <fix>3d</fix>
</trkpt>
<trkpt lat="33.810313" lon="-118.393867">
  <ele>0.0</ele>
  <time>2026-09-02T22:11:20Z</time>
  <course>179.67</course>
  <speed>0.0</speed>
  <fix>3d</fix>
</trkpt>
<trkpt lat="33.810313" lon="-118.393867">
  <ele>-0.14</ele>
  <time>2026-09-02T22:11:20Z</time>
  <course>0.0</course>
  <speed>0.0</speed>
  <fix>3d</fix>
</trkpt>
<trkpt lat="33.810313" lon="-118.393867">
  <ele>0.0</ele>
  <time>2026-09-02T22:11:20Z</time>
  <course>180.06</course>
  <speed>0.0</speed>
  <fix>3d</fix>
</trkpt>
<trkpt lat="33.810313" lon="-118.393867">
  <ele>-0.14</ele>
  <time>2026-09-02T22:11:20Z</time>
  <course>0.0</course>
  <speed>0.0</speed>
  <fix>3d</fix>
</trkpt>
<trkpt lat="33.810313" lon="-118.393867">
  <ele>0.0</ele>
  <time>2026-09-02T22:11:20Z</time>
  <course>180.42</course>
  <speed>0.0</speed>
  <fix>3d</fix>
</trkpt>
<trkpt lat="33.810313" lon="-118.393867">
  <ele>-0.14</ele>
  <time>2026-09-02T22:11:20Z</time>
  <course>0.0</course>
  <speed>0.0</speed>
  <fix>3d</fix>
</trkpt>
<trkpt lat="33.810313" lon="-118.393867">
  <ele>0.0</ele>
  <time>2026-09-02T22:11:20Z</time>
  <course>180.77</course>
  <speed>0.0</speed>
  <fix>3d</fix>
</trkpt>
<trkpt lat="33.810313" lon="-118.393867">
  <ele>-0.14</ele>
  <time>2026-09-02T22:11:20Z</time>
  <course>0.0</course>
  <speed>0.0</speed>
  <fix>3d</fix>
</trkpt>
<trkpt lat="33.810313" lon="-118.393867">
  <ele>0.0</ele>
  <time>2026-09-02T22:11:20Z</time>
  <course>181.11</course>
  <speed>0.0</speed>
  <fix>3d</fix>
</trkpt>
<trkpt lat="33.810313" lon="-118.393867">
  <ele>-0.13</ele>
  <time>2026-09-02T22:11:20Z</time>
  <course>0.0</course>
  <speed>0.0</speed>
  <fix>3d</fix>
</trkpt>
<trkpt lat="33.810313" lon="-118.393867">
  <ele>0.0</ele>
  <time>2026-09-02T22:11:20Z</time>
  <course>181.44</course>
  <speed>0.0</speed>
  <fix>3d</fix>
</trkpt>
<trkpt lat="33.810313" lon="-118.393867">
  <ele>-0.13</ele>
  <time>2026-09-02T22:11:20Z</time>
  <course>0.0</course>
  <speed>0.0</speed>
  <fix>3d</fix>
</trkpt>
<trkpt lat="33.810313" lon="-118.393867">
  <ele>0.0</ele>
  <time>2026-09-02T22:11:20Z</time>
  <course>181.76</course>
  <speed>0.0</speed>
  <fix>3d</fix>
</trkpt>
<trkpt lat="33.810313" lon="-118.393867">
  <ele>-0.12</ele>
  <time>2026-09-02T22:11:20Z</time>
  <course>0.0</course>
  <speed>0.0</speed>
  <fix>3d</fix>
</trkpt>
<trkpt lat="33.810313" lon="-118.393867">
  <ele>0.0</ele>
  <time>2026-09-02T22:11:20Z</time>
  <course>182.06</course>
  <speed>0.0</speed>
  <fix>3d</fix>
</trkpt>
<trkpt lat="33.810313" lon="-118.393867">
  <ele>-0.12</ele>
  <time>2026-09-02T22:11:20Z</time>
  <course>0.0</course>
  <speed>0.0</speed>
  <fix>3d</fix>
</trkpt>
<trkpt lat="33.810313" lon="-118.393867">
  <ele>0.0</ele>
  <time>2026-09-02T22:11:20Z</time>
  <course>182.35</course>
  <speed>0.0</speed>
  <fix>3d</fix>
</trkpt>
<trkpt lat="33.810313" lon="-118.393867">
  <ele>-0.12</ele>
  <time>2026-09-02T22:11:20Z</time>
  <course>0.0</course>
  <speed>0.0</speed>
  <fix>3d</fix>
</trkpt>
<trkpt lat="33.810313" lon="-118.393867">
  <ele>0.0</ele>
  <time>2026-09-02T22:11:20Z</time>
  <course>182.64</course>
  <speed>0.0</speed>
  <fix>3d</fix>
</trkpt>
<trkpt lat="33.810313" lon="-118.393867">
  <ele>-0.12</ele>
  <time>2026-09-02T22:11:20Z</time>
  <course>0.0</course>
  <speed>0.0</speed>
  <fix>3d</fix>
</trkpt>
<trkpt lat="33.810313" lon="-118.393867">
  <ele>0.0</ele>
  <time>2026-09-02T22:11:20Z</time>
  <course>182.91</course>
  <speed>0.0</speed>
  <fix>3d</fix>
</trkpt>
<trkpt lat="33.810313" lon="-118.393867">
  <ele>-0.11</ele>
  <time>2026-09-02T22:11:20Z</time>
  <course>0.0</course>
  <speed>0.0</speed>
  <fix>3d</fix>
</trkpt>
<trkpt lat="33.810313" lon="-118.393867">
  <ele>0.0</ele>
  <time>2026-09-02T22:11:20Z</time>
  <course>183.17</course>
  <speed>0.0</speed>
  <fix>3d</fix>
</trkpt>
<trkpt lat="33.810313" lon="-118.393867">
  <ele>-0.11</ele>
  <time>2026-09-02T22:11:20Z</time>
  <course>0.0</course>
  <speed>0.0</speed>
  <fix>3d</fix>
</trkpt>
<trkpt lat="33.810313" lon="-118.393867">
  <ele>0.0</ele>
  <time>2026-09-02T22:11:20Z</time>
  <course>183.42</course>
  <speed>0.0</speed>
  <fix>3d</fix>
</trkpt>
<trkpt lat="33.810313" lon="-118.393867">
  <ele>-0.11</ele>
  <time>2026-09-02T22:11:20Z</time>
  <course>0.0</course>
  <speed>0.0</speed>
  <fix>3d</fix>
</trkpt>
<trkpt lat="33.810313" lon="-118.393867">
  <ele>0.0</ele>
  <time>2026-09-02T22:11:20Z</time>
  <course>183.66</course>
  <speed>0.0</speed>
  <fix>3d</fix>
</trkpt>
<trkpt lat="33.810313" lon="-118.393867">
  <ele>-0.11</ele>
  <time>2026-09-02T22:11:20Z</time>
  <course>0.0</course>
  <speed>0.0</speed>
  <fix>3d</fix>
</trkpt>
<trkpt lat="33.810313" lon="-118.393867">
  <ele>0.0</ele>
  <time>2026-09-02T22:11:20Z</time>
  <course>183.89</course>
  <speed>0.0</speed>
  <fix>3d</fix>
</trkpt>
<trkpt lat="33.810313" lon="-118.393867">
  <ele>-0.12</ele>
  <time>2026-09-02T22:11:20Z</time>
  <course>0.0</course>
  <speed>0.0</speed>
  <fix>3d</fix>
</trkpt>
<trkpt lat="33.810313" lon="-118.393867">
  <ele>0.0</ele>
  <time>2026-09-02T22:11:20Z</time>
  <course>184.11</course>
  <speed>0.0</speed>
  <fix>3d</fix>
</trkpt>
<trkpt lat="33.810313" lon="-118.393867">
  <ele>-0.12</ele>
  <time>2026-09-02T22:11:20Z</time>
  <course>0.0</course>
  <speed>0.0</speed>
  <fix>3d</fix>
</trkpt>
<trkpt lat="33.810313" lon="-118.393867">
  <ele>0.0</ele>
  <time>2026-09-02T22:11:20Z</time>
  <course>184.32</course>
  <speed>0.0</speed>
  <fix>3d</fix>
</trkpt>
<trkpt lat="33.810313" lon="-118.393867">
  <ele>-0.13</ele>
  <time>2026-09-02T22:11:20Z</time>
  <course>0.0</course>
  <speed>0.0</speed>
  <fix>3d</fix>
</trkpt>
<trkpt lat="33.810313" lon="-118.393867">
  <ele>0.0</ele>
  <time>2026-09-02T22:11:20Z</time>
  <course>184.52</course>
  <speed>0.0</speed>
  <fix>3d</fix>
</trkpt>
<trkpt lat="33.810313" lon="-118.393867">
  <ele>-0.13</ele>
  <time>2026-09-02T22:11:20Z</time>
  <course>0.0</course>
  <speed>0.0</speed>
  <fix>3d</fix>
</trkpt>
<trkpt lat="33.810313" lon="-118.393867">
  <ele>0.0</ele>
  <time>2026-09-02T22:11:20Z</time>
  <course>184.72</course>
  <speed>0.0</speed>
  <fix>3d</fix>
</trkpt>
<trkpt lat="33.810313" lon="-118.393867">
  <ele>-0.13</ele>
  <time>2026-09-02T22:11:20Z</time>
  <course>0.0</course>
  <speed>0.0</speed>
  <fix>3d</fix>
</trkpt>
<trkpt lat="33.810313" lon="-118.393867">
  <ele>0.0</ele>
  <time>2026-09-02T22:11:20Z</time>
  <course>184.91</course>
  <speed>0.0</speed>
  <fix>3d</fix>
</trkpt>
<trkpt lat="33.810313" lon="-118.393867">
  <ele>-0.13</ele>
  <time>2026-09-02T22:11:20Z</time>
  <course>0.0</course>
  <speed>0.0</speed>
  <fix>3d</fix>
</trkpt>
<trkpt lat="33.810313" lon="-118.393867">
  <ele>0.0</ele>
  <time>2026-09-02T22:11:20Z</time>
  <course>185.09</course>
  <speed>0.0</speed>
  <fix>3d</fix>
</trkpt>
<trkpt lat="33.810313" lon="-118.393867">
  <ele>-0.14</ele>
  <time>2026-09-02T22:11:20Z</time>
  <course>0.0</course>
  <speed>0.0</speed>
  <fix>3d</fix>
</trkpt>
<trkpt lat="33.810313" lon="-118.393867">
  <ele>0.0</ele>
  <time>2026-09-02T22:11:20Z</time>
  <course>185.26</course>
  <speed>0.0</speed>
  <fix>3d</fix>
</trkpt>
<trkpt lat="33.810313" lon="-118.393867">
  <ele>-0.14</ele>
  <time>2026-09-02T22:11:20Z</time>
  <course>0.0</course>
  <speed>0.0</speed>
  <fix>3d</fix>
</trkpt>
<trkpt lat="33.810313" lon="-118.393867">
  <ele>0.0</ele>
  <time>2026-09-02T22:11:20Z</time>
  <course>185.43</course>
  <speed>0.0</speed>
  <fix>3d</fix>
</trkpt>
<trkpt lat="33.810313" lon="-118.393867">
  <ele>-0.13</ele>
  <time>2026-09-02T22:11:20Z</time>
  <course>0.0</course>
  <speed>0.0</speed>
  <fix>3d</fix>
</trkpt>
<trkpt lat="33.810313" lon="-118.393867">
  <ele>0.0</ele>
  <time>2026-09-02T22:11:20Z</time>
  <course>185.58</course>
  <speed>0.0</speed>
  <fix>3d</fix>
</trkpt>
<trkpt lat="33.810313" lon="-118.393867">
  <ele>-0.13</ele>
  <time>2026-09-02T22:11:20Z</time>
  <course>0.0</course>
  <speed>0.0</speed>
  <fix>3d</fix>
</trkpt>
<trkpt lat="33.810313" lon="-118.393867">
  <ele>0.0</ele>
  <time>2026-09-02T22:11:20Z</time>
  <course>185.73</course>
  <speed>0.0</speed>
  <fix>3d</fix>
</trkpt>
<trkpt lat="33.810313" lon="-118.393867">
  <ele>-0.13</ele>
  <time>2026-09-02T22:11:20Z</time>
  <course>0.0</course>
  <speed>0.0</speed>
  <fix>3d</fix>
</trkpt>
<trkpt lat="33.810313" lon="-118.393867">
  <ele>0.0</ele>
  <time>2026-09-02T22:11:20Z</time>
  <course>185.88</course>
  <speed>0.0</speed>
  <fix>3d</fix>
</trkpt>
<trkpt lat="33.810313" lon="-118.393867">
  <ele>-0.13</ele>
  <time>2026-09-02T22:11:20Z</time>
  <course>0.0</course>
  <speed>0.0</speed>
  <fix>3d</fix>
</trkpt>
<trkpt lat="33.810313" lon="-118.393867">
  <ele>0.0</ele>
  <time>2026-09-02T22:11:20Z</time>
  <course>186.01</course>
  <speed>0.0</speed>
  <fix>3d</fix>
</trkpt>
<trkpt lat="33.810313" lon="-118.393867">
  <ele>-0.12</ele>
  <time>2026-09-02T22:11:20Z</time>
  <course>0.0</course>
  <speed>0.0</speed>
  <fix>3d</fix>
</trkpt>
<trkpt lat="33.810313" lon="-118.393867">
  <ele>0.0</ele>
  <time>2026-09-02T22:11:20Z</time>
  <course>186.15</course>
  <speed>0.0</speed>
  <fix>3d</fix>
</trkpt>
<trkpt lat="33.810313" lon="-118.393867">
  <ele>-0.12</ele>
  <time>2026-09-02T22:11:20Z</time>
  <course>0.0</course>
  <speed>0.0</speed>
  <fix>3d</fix>
</trkpt>
<trkpt lat="33.810313" lon="-118.393867">
  <ele>0.0</ele>
  <time>2026-09-02T22:11:20Z</time>
  <course>186.27</course>
  <speed>0.0</speed>
  <fix>3d</fix>
</trkpt>
<trkpt lat="33.810313" lon="-118.393867">
  <ele>-0.12</ele>
  <time>2026-09-02T22:11:20Z</time>
  <course>0.0</course>
  <speed>0.0</speed>
  <fix>3d</fix>
</trkpt>
<trkpt lat="33.810313" lon="-118.393867">
  <ele>0.0</ele>
  <time>2026-09-02T22:11:20Z</time>
  <course>186.39</course>
  <speed>0.0</speed>
  <fix>3d</fix>
</trkpt>
<trkpt lat="33.810313" lon="-118.393867">
  <ele>-0.12</ele>
  <time>2026-09-02T22:11:20Z</time>
  <course>0.0</course>
  <speed>0.0</speed>
  <fix>3d</fix>
</trkpt>
<trkpt lat="33.810313" lon="-118.393867">
  <ele>0.0</ele>
  <time>2026-09-02T22:11:20Z</time>
  <course>186.51</course>
  <speed>0.0</speed>
  <fix>3d</fix>
</trkpt>
<trkpt lat="33.810313" lon="-118.393867">
  <ele>-0.12</ele>
  <time>2026-09-02T22:11:20Z</time>
  <course>0.0</course>
  <speed>0.0</speed>
  <fix>3d</fix>
</trkpt>
<trkpt lat="33.810313" lon="-118.393867">
  <ele>0.0</ele>
  <time>2026-09-02T22:11:20Z</time>
  <course>186.62</course>
  <speed>0.0</speed>
  <fix>3d</fix>
</trkpt>
<trkpt lat="33.810313" lon="-118.393867">
  <ele>-0.12</ele>
  <time>2026-09-02T22:11:20Z</time>
  <course>0.0</course>
  <speed>0.0</speed>
  <fix>3d</fix>
</trkpt>
<trkpt lat="33.810313" lon="-118.393867">
  <ele>0.0</ele>
  <time>2026-09-02T22:11:20Z</time>
  <course>186.72</course>
  <speed>0.0</speed>
  <fix>3d</fix>
</trkpt>
<trkpt lat="33.810313" lon="-118.393867">
  <ele>-0.12</ele>
  <time>2026-09-02T22:11:20Z</time>
  <course>0.0</course>
  <speed>0.0</speed>
  <fix>3d</fix>
</trkpt>
<trkpt lat="33.810313" lon="-118.393867">
  <ele>0.0</ele>
  <time>2026-09-02T22:11:20Z</time>
  <course>186.82</course>
  <speed>0.0</speed>
  <fix>3d</fix>
</trkpt>
<trkpt lat="33.810313" lon="-118.393867">
  <ele>-0.12</ele>
  <time>2026-09-02T22:11:20Z</time>
  <course>0.0</course>
  <speed>0.0</speed>
  <fix>3d</fix>
</trkpt>
<trkpt lat="33.810313" lon="-118.393867">
  <ele>0.0</ele>
  <time>2026-09-02T22:11:20Z</time>
  <course>186.92</course>
  <speed>0.0</speed>
  <fix>3d</fix>
</trkpt>
<trkpt lat="33.810313" lon="-118.393867">
  <ele>-0.12</ele>
  <time>2026-09-02T22:11:20Z</time>
  <course>0.0</course>
  <speed>0.0</speed>
  <fix>3d</fix>
</trkpt>
<trkpt lat="33.810313" lon="-118.393867">
  <ele>0.0</ele>
  <time>2026-09-02T22:11:20Z</time>
  <course>187.01</course>
  <speed>0.0</speed>
  <fix>3d</fix>
</trkpt>
<trkpt lat="33.810313" lon="-118.393867">
  <ele>-0.12</ele>
  <time>2026-09-02T22:11:20Z</time>
  <course>0.0</course>
  <speed>0.0</speed>
  <fix>3d</fix>
</trkpt>
<trkpt lat="33.810313" lon="-118.393867">
  <ele>0.0</ele>
  <time>2026-09-02T22:11:20Z</time>
  <course>187.09</course>
  <speed>0.0</speed>
  <fix>3d</fix>
</trkpt>
<trkpt lat="33.810313" lon="-118.393867">
  <ele>-0.13</ele>
  <time>2026-09-02T22:11:20Z</time>
  <course>0.0</course>
  <speed>0.0</speed>
  <fix>3d</fix>
</trkpt>
<trkpt lat="33.810313" lon="-118.393867">
  <ele>0.0</ele>
  <time>2026-09-02T22:11:20Z</time>
  <course>187.17</course>
  <speed>0.0</speed>
  <fix>3d</fix>
</trkpt>
<trkpt lat="33.810313" lon="-118.393867">
  <ele>-0.13</ele>
  <time>2026-09-02T22:11:20Z</time>
  <course>0.0</course>
  <speed>0.0</speed>
  <fix>3d</fix>
</trkpt>
<trkpt lat="33.810313" lon="-118.393867">
  <ele>0.0</ele>
  <time>2026-09-02T22:11:20Z</time>
  <course>187.25</course>
  <speed>0.0</speed>
  <fix>3d</fix>
</trkpt>
<trkpt lat="33.810313" lon="-118.393867">
  <ele>-0.13</ele>
  <time>2026-09-02T22:11:20Z</time>
  <course>0.0</course>
  <speed>0.0</speed>
  <fix>3d</fix>
</trkpt>
<trkpt lat="33.810313" lon="-118.393867">
  <ele>0.0</ele>
  <time>2026-09-02T22:11:20Z</time>
  <course>187.33</course>
  <speed>0.0</speed>
  <fix>3d</fix>
</trkpt>
<trkpt lat="33.810313" lon="-118.393867">
  <ele>-0.13</ele>
  <time>2026-09-02T22:11:20Z</time>
  <course>0.0</course>
  <speed>0.0</speed>
  <fix>3d</fix>
</trkpt>
<trkpt lat="33.810313" lon="-118.393867">
  <ele>0.0</ele>
  <time>2026-09-02T22:11:20Z</time>
  <course>187.4</course>
  <speed>0.0</speed>
  <fix>3d</fix>
</trkpt>
<trkpt lat="33.810313" lon="-118.393867">
  <ele>-0.13</ele>
  <time>2026-09-02T22:11:20Z</time>
  <course>0.0</course>
  <speed>0.0</speed>
  <fix>3d</fix>
</trkpt>
<trkpt lat="33.810313" lon="-118.393867">
  <ele>0.0</ele>
  <time>2026-09-02T22:11:20Z</time>
  <course>187.47</course>
  <speed>0.0</speed>
  <fix>3d</fix>
</trkpt>
<trkpt lat="33.810313" lon="-118.393867">
  <ele>-0.13</ele>
  <time>2026-09-02T22:11:20Z</time>
  <course>0.0</course>
  <speed>0.0</speed>
  <fix>3d</fix>
</trkpt>
<trkpt lat="33.810313" lon="-118.393867">
  <ele>0.0</ele>
  <time>2026-09-02T22:11:20Z</time>
  <course>187.53</course>
  <speed>0.0</speed>
  <fix>3d</fix>
</trkpt>
<trkpt lat="33.810313" lon="-118.393867">
  <ele>-0.13</ele>
  <time>2026-09-02T22:11:20Z</time>
  <course>0.0</course>
  <speed>0.0</speed>
  <fix>3d</fix>
</trkpt>
<trkpt lat="33.810313" lon="-118.393867">
  <ele>0.0</ele>
  <time>2026-09-02T22:11:20Z</time>
  <course>187.6</course>
  <speed>0.0</speed>
  <fix>3d</fix>
</trkpt>
<trkpt lat="33.810313" lon="-118.393867">
  <ele>-0.13</ele>
  <time>2026-09-02T22:11:20Z</time>
  <course>0.0</course>
  <speed>0.0</speed>
  <fix>3d</fix>
</trkpt>
<trkpt lat="33.810313" lon="-118.393867">
  <ele>0.0</ele>
  <time>2026-09-02T22:11:20Z</time>
  <course>187.65</course>
  <speed>0.0</speed>
  <fix>3d</fix>
</trkpt>
<trkpt lat="33.810313" lon="-118.393867">
  <ele>-0.12</ele>
  <time>2026-09-02T22:11:20Z</time>
  <course>0.0</course>
  <speed>0.0</speed>
  <fix>3d</fix>
</trkpt>
<trkpt lat="33.810313" lon="-118.393867">
  <ele>0.0</ele>
  <time>2026-09-02T22:11:20Z</time>
  <course>187.71</course>
  <speed>0.0</speed>
  <fix>3d</fix>
</trkpt>
<trkpt lat="33.810313" lon="-118.393867">
  <ele>-0.12</ele>
  <time>2026-09-02T22:11:20Z</time>
  <course>0.0</course>
  <speed>0.0</speed>
  <fix>3d</fix>
</trkpt>
<trkpt lat="33.810313" lon="-118.393867">
  <ele>0.0</ele>
  <time>2026-09-02T22:11:20Z</time>
  <course>187.76</course>
  <speed>0.0</speed>
  <fix>3d</fix>
</trkpt>
<trkpt lat="33.810313" lon="-118.393867">
  <ele>-0.12</ele>
  <time>2026-09-02T22:11:21Z</time>
  <course>0.0</course>
  <speed>0.0</speed>
  <fix>3d</fix>
</trkpt>
<trkpt lat="33.810313" lon="-118.393867">
  <ele>0.0</ele>
  <time>2026-09-02T22:11:21Z</time>
  <course>187.81</course>
  <speed>0.0</speed>
  <fix>3d</fix>
</trkpt>
<trkpt lat="33.810313" lon="-118.393867">
  <ele>-0.12</ele>
  <time>2026-09-02T22:11:21Z</time>
  <course>0.0</course>
  <speed>0.0</speed>
  <fix>3d</fix>
</trkpt>
<trkpt lat="33.810313" lon="-118.393867">
  <ele>0.0</ele>
  <time>2026-09-02T22:11:21Z</time>
  <course>187.86</course>
  <speed>0.0</speed>
  <fix>3d</fix>
</trkpt>
<trkpt lat="33.810313" lon="-118.393867">
  <ele>-0.12</ele>
  <time>2026-09-02T22:11:21Z</time>
  <course>0.0</course>
  <speed>0.0</speed>
  <fix>3d</fix>
</trkpt>
<trkpt lat="33.810313" lon="-118.393867">
  <ele>0.0</ele>
  <time>2026-09-02T22:11:21Z</time>
  <course>187.91</course>
  <speed>0.0</speed>
  <fix>3d</fix>
</trkpt>
<trkpt lat="33.810313" lon="-118.393867">
  <ele>-0.12</ele>
  <time>2026-09-02T22:11:21Z</time>
  <course>0.0</course>
  <speed>0.0</speed>
  <fix>3d</fix>
</trkpt>
<trkpt lat="33.810313" lon="-118.393867">
  <ele>0.0</ele>
  <time>2026-09-02T22:11:21Z</time>
  <course>187.95</course>
  <speed>0.0</speed>
  <fix>3d</fix>
</trkpt>
<trkpt lat="33.810313" lon="-118.393867">
  <ele>-0.12</ele>
  <time>2026-09-02T22:11:21Z</time>
  <course>0.0</course>
  <speed>0.0</speed>
  <fix>3d</fix>
</trkpt>
<trkpt lat="33.810313" lon="-118.393867">
  <ele>0.0</ele>
  <time>2026-09-02T22:11:21Z</time>
  <course>187.99</course>
  <speed>0.0</speed>
  <fix>3d</fix>
</trkpt>
<trkpt lat="33.810313" lon="-118.393867">
  <ele>-0.12</ele>
  <time>2026-09-02T22:11:21Z</time>
  <course>0.0</course>
  <speed>0.0</speed>
  <fix>3d</fix>
</trkpt>
<trkpt lat="33.810313" lon="-118.393867">
  <ele>0.0</ele>
  <time>2026-09-02T22:11:21Z</time>
  <course>188.03</course>
  <speed>0.0</speed>
  <fix>3d</fix>
</trkpt>
<trkpt lat="33.810313" lon="-118.393867">
  <ele>-0.12</ele>
  <time>2026-09-02T22:11:21Z</time>
  <course>0.0</course>
  <speed>0.0</speed>
  <fix>3d</fix>
</trkpt>
<trkpt lat="33.810313" lon="-118.393867">
  <ele>0.0</ele>
  <time>2026-09-02T22:11:21Z</time>
  <course>188.07</course>
  <speed>0.0</speed>
  <fix>3d</fix>
</trkpt>
<trkpt lat="33.810313" lon="-118.393867">
  <ele>-0.12</ele>
  <time>2026-09-02T22:11:21Z</time>
  <course>0.0</course>
  <speed>0.0</speed>
  <fix>3d</fix>
</trkpt>
<trkpt lat="33.810313" lon="-118.393867">
  <ele>0.0</ele>
  <time>2026-09-02T22:11:21Z</time>
  <course>188.1</course>
  <speed>0.0</speed>
  <fix>3d</fix>
</trkpt>
<trkpt lat="33.810313" lon="-118.393867">
  <ele>-0.13</ele>
  <time>2026-09-02T22:11:21Z</time>
  <course>0.0</course>
  <speed>0.0</speed>
  <fix>3d</fix>
</trkpt>
<trkpt lat="33.810313" lon="-118.393867">
  <ele>0.0</ele>
  <time>2026-09-02T22:11:21Z</time>
  <course>188.13</course>
  <speed>0.0</speed>
  <fix>3d</fix>
</trkpt>
<trkpt lat="33.810313" lon="-118.393867">
  <ele>-0.13</ele>
  <time>2026-09-02T22:11:21Z</time>
  <course>0.0</course>
  <speed>0.0</speed>
  <fix>3d</fix>
</trkpt>
<trkpt lat="33.810313" lon="-118.393867">
  <ele>0.0</ele>
  <time>2026-09-02T22:11:21Z</time>
  <course>188.17</course>
  <speed>0.0</speed>
  <fix>3d</fix>
</trkpt>
<trkpt lat="33.810313" lon="-118.393867">
  <ele>-0.13</ele>
  <time>2026-09-02T22:11:21Z</time>
  <course>0.0</course>
  <speed>0.0</speed>
  <fix>3d</fix>
</trkpt>
<trkpt lat="33.810313" lon="-118.393867">
  <ele>0.0</ele>
  <time>2026-09-02T22:11:21Z</time>
  <course>188.19</course>
  <speed>0.0</speed>
  <fix>3d</fix>
</trkpt>
<trkpt lat="33.810313" lon="-118.393867">
  <ele>-0.13</ele>
  <time>2026-09-02T22:11:21Z</time>
  <course>0.0</course>
  <speed>0.0</speed>
  <fix>3d</fix>
</trkpt>
<trkpt lat="33.810313" lon="-118.393867">
  <ele>0.0</ele>
  <time>2026-09-02T22:11:21Z</time>
  <course>188.22</course>
  <speed>0.0</speed>
  <fix>3d</fix>
</trkpt>
<trkpt lat="33.810313" lon="-118.393867">
  <ele>-0.13</ele>
  <time>2026-09-02T22:11:21Z</time>
  <course>0.0</course>
  <speed>0.0</speed>
  <fix>3d</fix>
</trkpt>
<trkpt lat="33.810313" lon="-118.393867">
  <ele>0.0</ele>
  <time>2026-09-02T22:11:21Z</time>
  <course>188.25</course>
  <speed>0.0</speed>
  <fix>3d</fix>
</trkpt>
<trkpt lat="33.810313" lon="-118.393867">
  <ele>-0.13</ele>
  <time>2026-09-02T22:11:21Z</time>
  <course>0.0</course>
  <speed>0.0</speed>
  <fix>3d</fix>
</trkpt>
<trkpt lat="33.810313" lon="-118.393867">
  <ele>0.0</ele>
  <time>2026-09-02T22:11:21Z</time>
  <course>188.27</course>
  <speed>0.0</speed>
  <fix>3d</fix>
</trkpt>
<trkpt lat="33.810313" lon="-118.393867">
  <ele>-0.12</ele>
  <time>2026-09-02T22:11:21Z</time>
  <course>0.0</course>
  <speed>0.0</speed>
  <fix>3d</fix>
</trkpt>
<trkpt lat="33.810313" lon="-118.393867">
  <ele>0.0</ele>
  <time>2026-09-02T22:11:21Z</time>
  <course>188.3</course>
  <speed>0.0</speed>
  <fix>3d</fix>
</trkpt>
<trkpt lat="33.810313" lon="-118.393867">
  <ele>-0.12</ele>
  <time>2026-09-02T22:11:21Z</time>
  <course>0.0</course>
  <speed>0.0</speed>
  <fix>3d</fix>
</trkpt>
<trkpt lat="33.810313" lon="-118.393867">
  <ele>0.0</ele>
  <time>2026-09-02T22:11:21Z</time>
  <course>188.32</course>
  <speed>0.0</speed>
  <fix>3d</fix>
</trkpt>
<trkpt lat="33.810313" lon="-118.393867">
  <ele>-0.12</ele>
  <time>2026-09-02T22:11:21Z</time>
  <course>0.0</course>
  <speed>0.0</speed>
  <fix>3d</fix>
</trkpt>
<trkpt lat="33.810313" lon="-118.393867">
  <ele>0.0</ele>
  <time>2026-09-02T22:11:21Z</time>
  <course>188.34</course>
  <speed>0.0</speed>
  <fix>3d</fix>
</trkpt>
<trkpt lat="33.810313" lon="-118.393867">
  <ele>-0.12</ele>
  <time>2026-09-02T22:11:21Z</time>
  <course>0.0</course>
  <speed>0.0</speed>
  <fix>3d</fix>
</trkpt>
<trkpt lat="33.810313" lon="-118.393867">
  <ele>0.0</ele>
  <time>2026-09-02T22:11:21Z</time>
  <course>188.36</course>
  <speed>0.0</speed>
  <fix>3d</fix>
</trkpt>
<trkpt lat="33.810313" lon="-118.393867">
  <ele>-0.12</ele>
  <time>2026-09-02T22:11:21Z</time>
  <course>0.0</course>
  <speed>0.0</speed>
  <fix>3d</fix>
</trkpt>
<trkpt lat="33.810313" lon="-118.393867">
  <ele>0.0</ele>
  <time>2026-09-02T22:11:21Z</time>
  <course>188.38</course>
  <speed>0.0</speed>
  <fix>3d</fix>
</trkpt>
<trkpt lat="33.810313" lon="-118.393867">
  <ele>-0.12</ele>
  <time>2026-09-02T22:11:21Z</time>
  <course>0.0</course>
  <speed>0.0</speed>
  <fix>3d</fix>
</trkpt>
<trkpt lat="33.810313" lon="-118.393867">
  <ele>0.0</ele>
  <time>2026-09-02T22:11:21Z</time>
  <course>188.39</course>
  <speed>0.0</speed>
  <fix>3d</fix>
</trkpt>
<trkpt lat="33.810313" lon="-118.393867">
  <ele>-0.12</ele>
  <time>2026-09-02T22:11:21Z</time>
  <course>0.0</course>
  <speed>0.0</speed>
  <fix>3d</fix>
</trkpt>
<trkpt lat="33.810313" lon="-118.393867">
  <ele>0.0</ele>
  <time>2026-09-02T22:11:21Z</time>
  <course>188.41</course>
  <speed>0.0</speed>
  <fix>3d</fix>
</trkpt>
<trkpt lat="33.810313" lon="-118.393867">
  <ele>-0.12</ele>
  <time>2026-09-02T22:11:21Z</time>
  <course>0.0</course>
  <speed>0.0</speed>
  <fix>3d</fix>
</trkpt>
<trkpt lat="33.810313" lon="-118.393867">
  <ele>0.0</ele>
  <time>2026-09-02T22:11:21Z</time>
  <course>188.43</course>
  <speed>0.0</speed>
  <fix>3d</fix>
</trkpt>
<trkpt lat="33.810313" lon="-118.393867">
  <ele>-0.12</ele>
  <time>2026-09-02T22:11:21Z</time>
  <course>0.0</course>
  <speed>0.0</speed>
  <fix>3d</fix>
</trkpt>
<trkpt lat="33.810313" lon="-118.393867">
  <ele>0.0</ele>
  <time>2026-09-02T22:11:21Z</time>
  <course>188.44</course>
  <speed>0.0</speed>
  <fix>3d</fix>
</trkpt>
<trkpt lat="33.810313" lon="-118.393867">
  <ele>-0.12</ele>
  <time>2026-09-02T22:11:21Z</time>
  <course>0.0</course>
  <speed>0.0</speed>
  <fix>3d</fix>
</trkpt>
<trkpt lat="33.810313" lon="-118.393867">
  <ele>0.0</ele>
  <time>2026-09-02T22:11:21Z</time>
  <course>188.45</course>
  <speed>0.0</speed>
  <fix>3d</fix>
</trkpt>
<trkpt lat="33.810313" lon="-118.393867">
  <ele>-0.13</ele>
  <time>2026-09-02T22:11:21Z</time>
  <course>0.0</course>
  <speed>0.0</speed>
  <fix>3d</fix>
</trkpt>
<trkpt lat="33.810313" lon="-118.393867">
  <ele>0.0</ele>
  <time>2026-09-02T22:11:21Z</time>
  <course>188.46</course>
  <speed>0.0</speed>
  <fix>3d</fix>
</trkpt>
<trkpt lat="33.810313" lon="-118.393867">
  <ele>-0.13</ele>
  <time>2026-09-02T22:11:21Z</time>
  <course>0.0</course>
  <speed>0.0</speed>
  <fix>3d</fix>
</trkpt>
<trkpt lat="33.810313" lon="-118.393867">
  <ele>0.0</ele>
  <time>2026-09-02T22:11:21Z</time>
  <course>188.48</course>
  <speed>0.0</speed>
  <fix>3d</fix>
</trkpt>
<trkpt lat="33.810313" lon="-118.393867">
  <ele>-0.13</ele>
  <time>2026-09-02T22:11:21Z</time>
  <course>0.0</course>
  <speed>0.0</speed>
  <fix>3d</fix>
</trkpt>
<trkpt lat="33.810313" lon="-118.393867">
  <ele>0.0</ele>
  <time>2026-09-02T22:11:21Z</time>
  <course>188.49</course>
  <speed>0.0</speed>
  <fix>3d</fix>
</trkpt>
<trkpt lat="33.810313" lon="-118.393867">
  <ele>-0.13</ele>
  <time>2026-09-02T22:11:21Z</time>
  <course>0.0</course>
  <speed>0.0</speed>
  <fix>3d</fix>
</trkpt>
<trkpt lat="33.810313" lon="-118.393867">
  <ele>0.0</ele>
  <time>2026-09-02T22:11:21Z</time>
  <course>188.49</course>
  <speed>0.0</speed>
  <fix>3d</fix>
</trkpt>
<trkpt lat="33.810313" lon="-118.393867">
  <ele>-0.13</ele>
  <time>2026-09-02T22:11:21Z</time>
  <course>0.0</course>
  <speed>0.0</speed>
  <fix>3d</fix>
</trkpt>
<trkpt lat="33.810313" lon="-118.393867">
  <ele>0.0</ele>
  <time>2026-09-02T22:11:21Z</time>
  <course>188.5</course>
  <speed>0.0</speed>
  <fix>3d</fix>
</trkpt>
<trkpt lat="33.810313" lon="-118.393867">
  <ele>-0.13</ele>
  <time>2026-09-02T22:11:21Z</time>
  <course>0.0</course>
  <speed>0.0</speed>
  <fix>3d</fix>
</trkpt>
<trkpt lat="33.810313" lon="-118.393867">
  <ele>0.0</ele>
  <time>2026-09-02T22:11:21Z</time>
  <course>188.51</course>
  <speed>0.0</speed>
  <fix>3d</fix>
</trkpt>
<trkpt lat="33.810313" lon="-118.393867">
  <ele>-0.12</ele>
  <time>2026-09-02T22:11:21Z</time>
  <course>0.0</course>
  <speed>0.0</speed>
  <fix>3d</fix>
</trkpt>
<trkpt lat="33.810313" lon="-118.393867">
  <ele>0.0</ele>
  <time>2026-09-02T22:11:21Z</time>
  <course>188.52</course>
  <speed>0.0</speed>
  <fix>3d</fix>
</trkpt>
<trkpt lat="33.810313" lon="-118.393867">
  <ele>-0.12</ele>
  <time>2026-09-02T22:11:21Z</time>
  <course>0.0</course>
  <speed>0.0</speed>
  <fix>3d</fix>
</trkpt>
<trkpt lat="33.810313" lon="-118.393867">
  <ele>0.0</ele>
  <time>2026-09-02T22:11:21Z</time>
  <course>188.53</course>
  <speed>0.0</speed>
  <fix>3d</fix>
</trkpt>
<trkpt lat="33.810313" lon="-118.393867">
  <ele>-0.12</ele>
  <time>2026-09-02T22:11:21Z</time>
  <course>0.0</course>
  <speed>0.0</speed>
  <fix>3d</fix>
</trkpt>
<trkpt lat="33.810313" lon="-118.393867">
  <ele>0.0</ele>
  <time>2026-09-02T22:11:21Z</time>
  <course>188.53</course>
  <speed>0.0</speed>
  <fix>3d</fix>
</trkpt>
<trkpt lat="33.810313" lon="-118.393867">
  <ele>-0.12</ele>
  <time>2026-09-02T22:11:21Z</time>
  <course>0.0</course>
  <speed>0.0</speed>
  <fix>3d</fix>
</trkpt>
<trkpt lat="33.810313" lon="-118.393867">
  <ele>0.0</ele>
  <time>2026-09-02T22:11:21Z</time>
  <course>188.54</course>
  <speed>0.0</speed>
  <fix>3d</fix>
</trkpt>
<trkpt lat="33.810313" lon="-118.393867">
  <ele>-0.12</ele>
  <time>2026-09-02T22:11:21Z</time>
  <course>0.0</course>
  <speed>0.0</speed>
  <fix>3d</fix>
</trkpt>
<trkpt lat="33.810313" lon="-118.393867">
  <ele>0.0</ele>
  <time>2026-09-02T22:11:21Z</time>
  <course>188.54</course>
  <speed>0.0</speed>
  <fix>3d</fix>
</trkpt>
<trkpt lat="33.810313" lon="-118.393867">
  <ele>-0.12</ele>
  <time>2026-09-02T22:11:21Z</time>
  <course>0.0</course>
  <speed>0.0</speed>
  <fix>3d</fix>
</trkpt>
<trkpt lat="33.810313" lon="-118.393867">
  <ele>0.0</ele>
  <time>2026-09-02T22:11:21Z</time>
  <course>188.54</course>
  <speed>0.0</speed>
  <fix>3d</fix>
</trkpt>
<trkpt lat="33.810313" lon="-118.393867">
  <ele>-0.12</ele>
  <time>2026-09-02T22:11:21Z</time>
  <course>0.0</course>
  <speed>0.0</speed>
  <fix>3d</fix>
</trkpt>
<trkpt lat="33.810313" lon="-118.393867">
  <ele>0.0</ele>
  <time>2026-09-02T22:11:21Z</time>
  <course>188.55</course>
  <speed>0.0</speed>
  <fix>3d</fix>
</trkpt>
<trkpt lat="33.810313" lon="-118.393867">
  <ele>-0.12</ele>
  <time>2026-09-02T22:11:21Z</time>
  <course>0.0</course>
  <speed>0.0</speed>
  <fix>3d</fix>
</trkpt>
<trkpt lat="33.810313" lon="-118.393867">
  <ele>0.0</ele>
  <time>2026-09-02T22:11:21Z</time>
  <course>188.55</course>
  <speed>0.0</speed>
  <fix>3d</fix>
</trkpt>
<trkpt lat="33.810313" lon="-118.393867">
  <ele>-0.12</ele>
  <time>2026-09-02T22:11:21Z</time>
  <course>0.0</course>
  <speed>0.0</speed>
  <fix>3d</fix>
</trkpt>
<trkpt lat="33.810313" lon="-118.393867">
  <ele>0.0</ele>
  <time>2026-09-02T22:11:21Z</time>
  <course>188.55</course>
  <speed>0.0</speed>
  <fix>3d</fix>
</trkpt>
<trkpt lat="33.810313" lon="-118.393867">
  <ele>-0.12</ele>
  <time>2026-09-02T22:11:21Z</time>
  <course>0.0</course>
  <speed>0.0</speed>
  <fix>3d</fix>
</trkpt>
<trkpt lat="33.810313" lon="-118.393867">
  <ele>-0.126</ele>
  <time>2026-09-02T22:11:21Z</time>
  <course>188.55</course>
  <speed>0.0</speed>
  <fix>3d</fix>
</trkpt>
<trkpt lat="33.810313" lon="-118.393867">
  <ele>-0.13</ele>
  <time>2026-09-02T22:11:21Z</time>
  <course>0.0</course>
  <speed>0.0</speed>
  <fix>3d</fix>
</trkpt>
<trkpt lat="33.810313" lon="-118.393867">
  <ele>-0.126</ele>
  <time>2026-09-02T22:11:21Z</time>
  <course>188.55</course>
  <speed>0.0</speed>
  <fix>3d</fix>
</trkpt>
<trkpt lat="33.810313" lon="-118.393867">
  <ele>-0.13</ele>
  <time>2026-09-02T22:11:21Z</time>
  <course>0.0</course>
  <speed>0.0</speed>
  <fix>3d</fix>
</trkpt>
<trkpt lat="33.810313" lon="-118.393867">
  <ele>-0.124</ele>
  <time>2026-09-02T22:11:21Z</time>
  <course>188.56</course>
  <speed>0.0</speed>
  <fix>3d</fix>
</trkpt>
<trkpt lat="33.810313" lon="-118.393867">
  <ele>-0.13</ele>
  <time>2026-09-02T22:11:21Z</time>
  <course>0.0</course>
  <speed>0.0</speed>
  <fix>3d</fix>
</trkpt>
<trkpt lat="33.810313" lon="-118.393867">
  <ele>-0.123</ele>
  <time>2026-09-02T22:11:21Z</time>
  <course>188.56</course>
  <speed>0.0</speed>
  <fix>3d</fix>
</trkpt>
<trkpt lat="33.810313" lon="-118.393867">
  <ele>-0.13</ele>
  <time>2026-09-02T22:11:21Z</time>
  <course>0.0</course>
  <speed>0.0</speed>
  <fix>3d</fix>
</trkpt>
<trkpt lat="33.810313" lon="-118.393867">
  <ele>-0.121</ele>
  <time>2026-09-02T22:11:21Z</time>
  <course>188.56</course>
  <speed>0.0</speed>
  <fix>3d</fix>
</trkpt>
<trkpt lat="33.810313" lon="-118.393867">
  <ele>-0.12</ele>
  <time>2026-09-02T22:11:21Z</time>
  <course>0.0</course>
  <speed>0.0</speed>
  <fix>3d</fix>
</trkpt>
<trkpt lat="33.810313" lon="-118.393867">
  <ele>-0.12</ele>
  <time>2026-09-02T22:11:21Z</time>
  <course>188.56</course>
  <speed>0.0</speed>
  <fix>3d</fix>
</trkpt>
<trkpt lat="33.810313" lon="-118.393867">
  <ele>-0.12</ele>
  <time>2026-09-02T22:11:21Z</time>
  <course>0.0</course>
  <speed>0.0</speed>
  <fix>3d</fix>
</trkpt>
<trkpt lat="33.810313" lon="-118.393867">
  <ele>-0.119</ele>
  <time>2026-09-02T22:11:21Z</time>
  <course>188.56</course>
  <speed>0.0</speed>
  <fix>3d</fix>
</trkpt>
<trkpt lat="33.810313" lon="-118.393867">
  <ele>-0.12</ele>
  <time>2026-09-02T22:11:21Z</time>
  <course>0.0</course>
  <speed>0.0</speed>
  <fix>3d</fix>
</trkpt>
<trkpt lat="33.810313" lon="-118.393867">
  <ele>-0.12</ele>
  <time>2026-09-02T22:11:21Z</time>
  <course>188.56</course>
  <speed>0.0</speed>
  <fix>3d</fix>
</trkpt>
<trkpt lat="33.810313" lon="-118.393867">
  <ele>-0.12</ele>
  <time>2026-09-02T22:11:21Z</time>
  <course>0.0</course>
  <speed>0.0</speed>
  <fix>3d</fix>
</trkpt>
<trkpt lat="33.810313" lon="-118.393867">
  <ele>-0.124</ele>
  <time>2026-09-02T22:11:21Z</time>
  <course>188.55</course>
  <speed>0.0</speed>
  <fix>3d</fix>
</trkpt>
<trkpt lat="33.810313" lon="-118.393867">
  <ele>-0.12</ele>
  <time>2026-09-02T22:11:21Z</time>
  <course>0.0</course>
  <speed>0.0</speed>
  <fix>3d</fix>
</trkpt>
<trkpt lat="33.810313" lon="-118.393867">
  <ele>-0.127</ele>
  <time>2026-09-02T22:11:21Z</time>
  <course>188.55</course>
  <speed>0.0</speed>
  <fix>3d</fix>
</trkpt>
<trkpt lat="33.810313" lon="-118.393867">
  <ele>-0.12</ele>
  <time>2026-09-02T22:11:21Z</time>
  <course>0.0</course>
  <speed>0.0</speed>
  <fix>3d</fix>
</trkpt>
<trkpt lat="33.810313" lon="-118.393867">
  <ele>-0.13</ele>
  <time>2026-09-02T22:11:21Z</time>
  <course>188.55</course>
  <speed>0.0</speed>
  <fix>3d</fix>
</trkpt>
<trkpt lat="33.810313" lon="-118.393867">
  <ele>-0.12</ele>
  <time>2026-09-02T22:11:21Z</time>
  <course>0.0</course>
  <speed>0.0</speed>
  <fix>3d</fix>
</trkpt>
<trkpt lat="33.810313" lon="-118.393867">
  <ele>-0.132</ele>
  <time>2026-09-02T22:11:21Z</time>
  <course>188.55</course>
  <speed>0.0</speed>
  <fix>3d</fix>
</trkpt>
<trkpt lat="33.810313" lon="-118.393867">
  <ele>-0.12</ele>
  <time>2026-09-02T22:11:21Z</time>
  <course>0.0</course>
  <speed>0.0</speed>
  <fix>3d</fix>
</trkpt>
<trkpt lat="33.810313" lon="-118.393867">
  <ele>-0.132</ele>
  <time>2026-09-02T22:11:21Z</time>
  <course>188.55</course>
  <speed>0.0</speed>
  <fix>3d</fix>
</trkpt>
<trkpt lat="33.810313" lon="-118.393867">
  <ele>-0.12</ele>
  <time>2026-09-02T22:11:21Z</time>
  <course>0.0</course>
  <speed>0.0</speed>
  <fix>3d</fix>
</trkpt>
<trkpt lat="33.810313" lon="-118.393867">
  <ele>-0.132</ele>
  <time>2026-09-02T22:11:21Z</time>
  <course>188.55</course>
  <speed>0.0</speed>
  <fix>3d</fix>
</trkpt>
<trkpt lat="33.810313" lon="-118.393867">
  <ele>-0.12</ele>
  <time>2026-09-02T22:11:21Z</time>
  <course>0.0</course>
  <speed>0.0</speed>
  <fix>3d</fix>
</trkpt>
<trkpt lat="33.810313" lon="-118.393867">
  <ele>-0.132</ele>
  <time>2026-09-02T22:11:21Z</time>
  <course>188.55</course>
  <speed>0.0</speed>
  <fix>3d</fix>
</trkpt>
<trkpt lat="33.810313" lon="-118.393867">
  <ele>-0.12</ele>
  <time>2026-09-02T22:11:21Z</time>
  <course>0.0</course>
  <speed>0.0</speed>
  <fix>3d</fix>
</trkpt>
<trkpt lat="33.810313" lon="-118.393867">
  <ele>-0.131</ele>
  <time>2026-09-02T22:11:21Z</time>
  <course>188.55</course>
  <speed>0.0</speed>
  <fix>3d</fix>
</trkpt>
<trkpt lat="33.810313" lon="-118.393867">
  <ele>-0.12</ele>
  <time>2026-09-02T22:11:21Z</time>
  <course>0.0</course>
  <speed>0.0</speed>
  <fix>3d</fix>
</trkpt>
<trkpt lat="33.810313" lon="-118.393867">
  <ele>-0.129</ele>
  <time>2026-09-02T22:11:21Z</time>
  <course>188.54</course>
  <speed>0.0</speed>
  <fix>3d</fix>
</trkpt>
<trkpt lat="33.810313" lon="-118.393867">
  <ele>-0.13</ele>
  <time>2026-09-02T22:11:21Z</time>
  <course>0.0</course>
  <speed>0.0</speed>
  <fix>3d</fix>
</trkpt>
<trkpt lat="33.810313" lon="-118.393867">
  <ele>-0.128</ele>
  <time>2026-09-02T22:11:21Z</time>
  <course>188.54</course>
  <speed>0.0</speed>
  <fix>3d</fix>
</trkpt>
<trkpt lat="33.810313" lon="-118.393867">
  <ele>-0.13</ele>
  <time>2026-09-02T22:11:21Z</time>
  <course>0.0</course>
  <speed>0.0</speed>
  <fix>3d</fix>
</trkpt>
<trkpt lat="33.810313" lon="-118.393867">
  <ele>-0.125</ele>
  <time>2026-09-02T22:11:21Z</time>
  <course>188.53</course>
  <speed>0.0</speed>
  <fix>3d</fix>
</trkpt>
<trkpt lat="33.810313" lon="-118.393867">
  <ele>-0.12</ele>
  <time>2026-09-02T22:11:21Z</time>
  <course>0.0</course>
  <speed>0.0</speed>
  <fix>3d</fix>
</trkpt>
<trkpt lat="33.810313" lon="-118.393867">
  <ele>-0.123</ele>
  <time>2026-09-02T22:11:21Z</time>
  <course>188.53</course>
  <speed>0.0</speed>
  <fix>3d</fix>
</trkpt>
<trkpt lat="33.810313" lon="-118.393867">
  <ele>-0.12</ele>
  <time>2026-09-02T22:11:21Z</time>
  <course>0.0</course>
  <speed>0.0</speed>
  <fix>3d</fix>
</trkpt>
<trkpt lat="33.810313" lon="-118.393867">
  <ele>-0.121</ele>
  <time>2026-09-02T22:11:21Z</time>
  <course>188.52</course>
  <speed>0.0</speed>
  <fix>3d</fix>
</trkpt>
<trkpt lat="33.810313" lon="-118.393867">
  <ele>-0.12</ele>
  <time>2026-09-02T22:11:21Z</time>
  <course>0.0</course>
  <speed>0.0</speed>
  <fix>3d</fix>
</trkpt>
<trkpt lat="33.810313" lon="-118.393867">
  <ele>-0.121</ele>
  <time>2026-09-02T22:11:21Z</time>
  <course>188.52</course>
  <speed>0.0</speed>
  <fix>3d</fix>
</trkpt>
<trkpt lat="33.810313" lon="-118.393867">
  <ele>-0.12</ele>
  <time>2026-09-02T22:11:21Z</time>
  <course>0.0</course>
  <speed>0.0</speed>
  <fix>3d</fix>
</trkpt>
<trkpt lat="33.810313" lon="-118.393867">
  <ele>-0.122</ele>
  <time>2026-09-02T22:11:21Z</time>
  <course>188.51</course>
  <speed>0.0</speed>
  <fix>3d</fix>
</trkpt>
<trkpt lat="33.810313" lon="-118.393867">
  <ele>-0.12</ele>
  <time>2026-09-02T22:11:21Z</time>
  <course>0.0</course>
  <speed>0.0</speed>
  <fix>3d</fix>
</trkpt>
<trkpt lat="33.810313" lon="-118.393867">
  <ele>-0.123</ele>
  <time>2026-09-02T22:11:21Z</time>
  <course>188.51</course>
  <speed>0.0</speed>
  <fix>3d</fix>
</trkpt>
<trkpt lat="33.810313" lon="-118.393867">
  <ele>-0.12</ele>
  <time>2026-09-02T22:11:21Z</time>
  <course>0.0</course>
  <speed>0.0</speed>
  <fix>3d</fix>
</trkpt>
<trkpt lat="33.810313" lon="-118.393867">
  <ele>-0.126</ele>
  <time>2026-09-02T22:11:21Z</time>
  <course>188.5</course>
  <speed>0.0</speed>
  <fix>3d</fix>
</trkpt>
<trkpt lat="33.810313" lon="-118.393867">
  <ele>-0.12</ele>
  <time>2026-09-02T22:11:21Z</time>
  <course>0.0</course>
  <speed>0.0</speed>
  <fix>3d</fix>
</trkpt>
<trkpt lat="33.810313" lon="-118.393867">
  <ele>-0.127</ele>
  <time>2026-09-02T22:11:21Z</time>
  <course>188.5</course>
  <speed>0.0</speed>
  <fix>3d</fix>
</trkpt>
<trkpt lat="33.810313" lon="-118.393867">
  <ele>-0.12</ele>
  <time>2026-09-02T22:11:21Z</time>
  <course>0.0</course>
  <speed>0.0</speed>
  <fix>3d</fix>
</trkpt>
<trkpt lat="33.810313" lon="-118.393867">
  <ele>-0.128</ele>
  <time>2026-09-02T22:11:21Z</time>
  <course>188.49</course>
  <speed>0.0</speed>
  <fix>3d</fix>
</trkpt>
<trkpt lat="33.810313" lon="-118.393867">
  <ele>-0.12</ele>
  <time>2026-09-02T22:11:21Z</time>
  <course>0.0</course>
  <speed>0.0</speed>
  <fix>3d</fix>
</trkpt>
<trkpt lat="33.810313" lon="-118.393867">
  <ele>-0.127</ele>
  <time>2026-09-02T22:11:21Z</time>
  <course>188.48</course>
  <speed>0.0</speed>
  <fix>3d</fix>
</trkpt>
<trkpt lat="33.810313" lon="-118.393867">
  <ele>-0.12</ele>
  <time>2026-09-02T22:11:21Z</time>
  <course>0.0</course>
  <speed>0.0</speed>
  <fix>3d</fix>
</trkpt>
<trkpt lat="33.810313" lon="-118.393867">
  <ele>-0.127</ele>
  <time>2026-09-02T22:11:21Z</time>
  <course>188.48</course>
  <speed>0.0</speed>
  <fix>3d</fix>
</trkpt>
<trkpt lat="33.810313" lon="-118.393867">
  <ele>-0.12</ele>
  <time>2026-09-02T22:11:21Z</time>
  <course>0.0</course>
  <speed>0.0</speed>
  <fix>3d</fix>
</trkpt>
<trkpt lat="33.810313" lon="-118.393867">
  <ele>-0.127</ele>
  <time>2026-09-02T22:11:21Z</time>
  <course>188.47</course>
  <speed>0.01</speed>
  <fix>3d</fix>
</trkpt>
<trkpt lat="33.810313" lon="-118.393867">
  <ele>-0.12</ele>
  <time>2026-09-02T22:11:21Z</time>
  <course>0.0</course>
  <speed>0.0</speed>
  <fix>3d</fix>
</trkpt>
<trkpt lat="33.810313" lon="-118.393867">
  <ele>-0.127</ele>
  <time>2026-09-02T22:11:21Z</time>
  <course>188.47</course>
  <speed>0.01</speed>
  <fix>3d</fix>
</trkpt>
<trkpt lat="33.810313" lon="-118.393867">
  <ele>-0.12</ele>
  <time>2026-09-02T22:11:21Z</time>
  <course>0.0</course>
  <speed>0.0</speed>
  <fix>3d</fix>
</trkpt>
<trkpt lat="33.810313" lon="-118.393867">
  <ele>-0.126</ele>
  <time>2026-09-02T22:11:21Z</time>
  <course>188.46</course>
  <speed>0.01</speed>
  <fix>3d</fix>
</trkpt>
<trkpt lat="33.810313" lon="-118.393867">
  <ele>-0.12</ele>
  <time>2026-09-02T22:11:21Z</time>
  <course>0.0</course>
  <speed>0.0</speed>
  <fix>3d</fix>
</trkpt>
<trkpt lat="33.810313" lon="-118.393867">
  <ele>-0.126</ele>
  <time>2026-09-02T22:11:21Z</time>
  <course>188.45</course>
  <speed>0.01</speed>
  <fix>3d</fix>
</trkpt>
<trkpt lat="33.810313" lon="-118.393867">
  <ele>-0.12</ele>
  <time>2026-09-02T22:11:21Z</time>
  <course>0.0</course>
  <speed>0.0</speed>
  <fix>3d</fix>
</trkpt>
<trkpt lat="33.810313" lon="-118.393867">
  <ele>-0.126</ele>
  <time>2026-09-02T22:11:21Z</time>
  <course>188.45</course>
  <speed>0.01</speed>
  <fix>3d</fix>
</trkpt>
<trkpt lat="33.810313" lon="-118.393867">
  <ele>-0.12</ele>
  <time>2026-09-02T22:11:21Z</time>
  <course>0.0</course>
  <speed>0.0</speed>
  <fix>3d</fix>
</trkpt>
<trkpt lat="33.810313" lon="-118.393867">
  <ele>-0.125</ele>
  <time>2026-09-02T22:11:21Z</time>
  <course>188.44</course>
  <speed>0.01</speed>
  <fix>3d</fix>
</trkpt>
<trkpt lat="33.810313" lon="-118.393867">
  <ele>-0.12</ele>
  <time>2026-09-02T22:11:21Z</time>
  <course>0.0</course>
  <speed>0.0</speed>
  <fix>3d</fix>
</trkpt>
<trkpt lat="33.810313" lon="-118.393867">
  <ele>-0.126</ele>
  <time>2026-09-02T22:11:21Z</time>
  <course>188.43</course>
  <speed>0.01</speed>
  <fix>3d</fix>
</trkpt>
<trkpt lat="33.810313" lon="-118.393867">
  <ele>-0.12</ele>
  <time>2026-09-02T22:11:21Z</time>
  <course>0.0</course>
  <speed>0.0</speed>
  <fix>3d</fix>
</trkpt>
<trkpt lat="33.810313" lon="-118.393867">
  <ele>-0.127</ele>
  <time>2026-09-02T22:11:21Z</time>
  <course>188.42</course>
  <speed>0.01</speed>
  <fix>3d</fix>
</trkpt>
<trkpt lat="33.810313" lon="-118.393867">
  <ele>-0.12</ele>
  <time>2026-09-02T22:11:21Z</time>
  <course>0.0</course>
  <speed>0.0</speed>
  <fix>3d</fix>
</trkpt>
<trkpt lat="33.810313" lon="-118.393867">
  <ele>-0.128</ele>
  <time>2026-09-02T22:11:21Z</time>
  <course>188.42</course>
  <speed>0.01</speed>
  <fix>3d</fix>
</trkpt>
<trkpt lat="33.810313" lon="-118.393867">
  <ele>-0.12</ele>
  <time>2026-09-02T22:11:21Z</time>
  <course>0.0</course>
  <speed>0.0</speed>
  <fix>3d</fix>
</trkpt>
<trkpt lat="33.810313" lon="-118.393867">
  <ele>-0.129</ele>
  <time>2026-09-02T22:11:21Z</time>
  <course>188.41</course>
  <speed>0.01</speed>
  <fix>3d</fix>
</trkpt>
<trkpt lat="33.810313" lon="-118.393867">
  <ele>-0.12</ele>
  <time>2026-09-02T22:11:21Z</time>
  <course>0.0</course>
  <speed>0.0</speed>
  <fix>3d</fix>
</trkpt>
<trkpt lat="33.810313" lon="-118.393867">
  <ele>-0.129</ele>
  <time>2026-09-02T22:11:21Z</time>
  <course>188.4</course>
  <speed>0.01</speed>
  <fix>3d</fix>
</trkpt>
<trkpt lat="33.810313" lon="-118.393867">
  <ele>-0.12</ele>
  <time>2026-09-02T22:11:21Z</time>
  <course>0.0</course>
  <speed>0.0</speed>
  <fix>3d</fix>
</trkpt>
<trkpt lat="33.810313" lon="-118.393867">
  <ele>-0.13</ele>
  <time>2026-09-02T22:11:21Z</time>
  <course>188.4</course>
  <speed>0.01414213562373095</speed>
  <fix>3d</fix>
</trkpt>
<trkpt lat="33.810313" lon="-118.393867">
  <ele>-0.12</ele>
  <time>2026-09-02T22:11:21Z</time>
  <course>0.0</course>
  <speed>0.0</speed>
  <fix>3d</fix>
</trkpt>
<trkpt lat="33.810313" lon="-118.393867">
  <ele>-0.13</ele>
  <time>2026-09-02T22:11:21Z</time>
  <course>188.39</course>
  <speed>0.01414213562373095</speed>
  <fix>3d</fix>
</trkpt>
<trkpt lat="33.810313" lon="-118.393867">
  <ele>-0.12</ele>
  <time>2026-09-02T22:11:21Z</time>
  <course>0.0</course>
  <speed>0.0</speed>
  <fix>3d</fix>
</trkpt>
<trkpt lat="33.810313" lon="-118.393867">
  <ele>-0.13</ele>
  <time>2026-09-02T22:11:21Z</time>
  <course>188.38</course>
  <speed>0.01414213562373095</speed>
  <fix>3d</fix>
</trkpt>
<trkpt lat="33.810313" lon="-118.393867">
  <ele>-0.12</ele>
  <time>2026-09-02T22:11:21Z</time>
  <course>0.0</course>
  <speed>0.0</speed>
  <fix>3d</fix>
</trkpt>
<trkpt lat="33.810313" lon="-118.393867">
  <ele>-0.129</ele>
  <time>2026-09-02T22:11:21Z</time>
  <course>188.37</course>
  <speed>0.01414213562373095</speed>
  <fix>3d</fix>
</trkpt>
<trkpt lat="33.810313" lon="-118.393867">
  <ele>-0.12</ele>
  <time>2026-09-02T22:11:21Z</time>
  <course>0.0</course>
  <speed>0.0</speed>
  <fix>3d</fix>
</trkpt>
<trkpt lat="33.810313" lon="-118.393867">
  <ele>-0.128</ele>
  <time>2026-09-02T22:11:21Z</time>
  <course>188.36</course>
  <speed>0.01414213562373095</speed>
  <fix>3d</fix>
</trkpt>
<trkpt lat="33.810313" lon="-118.393867">
  <ele>-0.12</ele>
  <time>2026-09-02T22:11:21Z</time>
  <course>0.0</course>
  <speed>0.0</speed>
  <fix>3d</fix>
</trkpt>
<trkpt lat="33.810313" lon="-118.393867">
  <ele>-0.126</ele>
  <time>2026-09-02T22:11:21Z</time>
  <course>188.36</course>
  <speed>0.01414213562373095</speed>
  <fix>3d</fix>
</trkpt>
<trkpt lat="33.810313" lon="-118.393867">
  <ele>-0.12</ele>
  <time>2026-09-02T22:11:21Z</time>
  <course>0.0</course>
  <speed>0.0</speed>
  <fix>3d</fix>
</trkpt>
<trkpt lat="33.810313" lon="-118.393867">
  <ele>-0.123</ele>
  <time>2026-09-02T22:11:21Z</time>
  <course>188.35</course>
  <speed>0.01414213562373095</speed>
  <fix>3d</fix>
</trkpt>
<trkpt lat="33.810313" lon="-118.393867">
  <ele>-0.12</ele>
  <time>2026-09-02T22:11:21Z</time>
  <course>0.0</course>
  <speed>0.0</speed>
  <fix>3d</fix>
</trkpt>
<trkpt lat="33.810313" lon="-118.393867">
  <ele>-0.122</ele>
  <time>2026-09-02T22:11:21Z</time>
  <course>188.34</course>
  <speed>0.01414213562373095</speed>
  <fix>3d</fix>
</trkpt>
<trkpt lat="33.810313" lon="-118.393867">
  <ele>-0.12</ele>
  <time>2026-09-02T22:11:21Z</time>
  <course>0.0</course>
  <speed>0.0</speed>
  <fix>3d</fix>
</trkpt>
<trkpt lat="33.810313" lon="-118.393867">
  <ele>-0.123</ele>
  <time>2026-09-02T22:11:21Z</time>
  <course>188.33</course>
  <speed>0.01414213562373095</speed>
  <fix>3d</fix>
</trkpt>
<trkpt lat="33.810313" lon="-118.393867">
  <ele>-0.12</ele>
  <time>2026-09-02T22:11:21Z</time>
  <course>0.0</course>
  <speed>0.0</speed>
  <fix>3d</fix>
</trkpt>
<trkpt lat="33.810313" lon="-118.393867">
  <ele>-0.125</ele>
  <time>2026-09-02T22:11:21Z</time>
  <course>188.33</course>
  <speed>0.01414213562373095</speed>
  <fix>3d</fix>
</trkpt>
<trkpt lat="33.810313" lon="-118.393867">
  <ele>-0.12</ele>
  <time>2026-09-02T22:11:21Z</time>
  <course>0.0</course>
  <speed>0.0</speed>
  <fix>3d</fix>
</trkpt>
<trkpt lat="33.810313" lon="-118.393867">
  <ele>-0.128</ele>
  <time>2026-09-02T22:11:21Z</time>
  <course>188.32</course>
  <speed>0.01414213562373095</speed>
  <fix>3d</fix>
</trkpt>
<trkpt lat="33.810313" lon="-118.393867">
  <ele>-0.12</ele>
  <time>2026-09-02T22:11:21Z</time>
  <course>0.0</course>
  <speed>0.0</speed>
  <fix>3d</fix>
</trkpt>
<trkpt lat="33.810313" lon="-118.393867">
  <ele>-0.132</ele>
  <time>2026-09-02T22:11:21Z</time>
  <course>188.31</course>
  <speed>0.01414213562373095</speed>
  <fix>3d</fix>
</trkpt>
<trkpt lat="33.810313" lon="-118.393867">
  <ele>-0.12</ele>
  <time>2026-09-02T22:11:21Z</time>
  <course>0.0</course>
  <speed>0.0</speed>
  <fix>3d</fix>
</trkpt>
<trkpt lat="33.810313" lon="-118.393867">
  <ele>-0.135</ele>
  <time>2026-09-02T22:11:21Z</time>
  <course>188.3</course>
  <speed>0.01414213562373095</speed>
  <fix>3d</fix>
</trkpt>
<trkpt lat="33.810313" lon="-118.393867">
  <ele>-0.12</ele>
  <time>2026-09-02T22:11:21Z</time>
  <course>0.0</course>
  <speed>0.0</speed>
  <fix>3d</fix>
</trkpt>
<trkpt lat="33.810313" lon="-118.393867">
  <ele>-0.135</ele>
  <time>2026-09-02T22:11:21Z</time>
  <course>188.3</course>
  <speed>0.01414213562373095</speed>
  <fix>3d</fix>
</trkpt>
<trkpt lat="33.810313" lon="-118.393867">
  <ele>-0.12</ele>
  <time>2026-09-02T22:11:21Z</time>
  <course>0.0</course>
  <speed>0.0</speed>
  <fix>3d</fix>
</trkpt>
<trkpt lat="33.810313" lon="-118.393867">
  <ele>-0.134</ele>
  <time>2026-09-02T22:11:21Z</time>
  <course>188.29</course>
  <speed>0.01414213562373095</speed>
  <fix>3d</fix>
</trkpt>
<trkpt lat="33.810313" lon="-118.393867">
  <ele>-0.12</ele>
  <time>2026-09-02T22:11:21Z</time>
  <course>0.0</course>
  <speed>0.0</speed>
  <fix>3d</fix>
</trkpt>
<trkpt lat="33.810313" lon="-118.393867">
  <ele>-0.132</ele>
  <time>2026-09-02T22:11:21Z</time>
  <course>188.28</course>
  <speed>0.01414213562373095</speed>
  <fix>3d</fix>
</trkpt>
<trkpt lat="33.810313" lon="-118.393867">
  <ele>-0.12</ele>
  <time>2026-09-02T22:11:21Z</time>
  <course>0.0</course>
  <speed>0.0</speed>
  <fix>3d</fix>
</trkpt>
<trkpt lat="33.810313" lon="-118.393867">
  <ele>-0.129</ele>
  <time>2026-09-02T22:11:21Z</time>
  <course>188.27</course>
  <speed>0.01414213562373095</speed>
  <fix>3d</fix>
</trkpt>
<trkpt lat="33.810313" lon="-118.393867">
  <ele>-0.12</ele>
  <time>2026-09-02T22:11:21Z</time>
  <course>0.0</course>
  <speed>0.0</speed>
  <fix>3d</fix>
</trkpt>
<trkpt lat="33.810313" lon="-118.393867">
  <ele>-0.127</ele>
  <time>2026-09-02T22:11:21Z</time>
  <course>188.26</course>
  <speed>0.01414213562373095</speed>
  <fix>3d</fix>
</trkpt>
<trkpt lat="33.810313" lon="-118.393867">
  <ele>-0.12</ele>
  <time>2026-09-02T22:11:21Z</time>
  <course>0.0</course>
  <speed>0.0</speed>
  <fix>3d</fix>
</trkpt>
<trkpt lat="33.810313" lon="-118.393867">
  <ele>-0.124</ele>
  <time>2026-09-02T22:11:21Z</time>
  <course>188.25</course>
  <speed>0.01414213562373095</speed>
  <fix>3d</fix>
</trkpt>
<trkpt lat="33.810313" lon="-118.393867">
  <ele>-0.12</ele>
  <time>2026-09-02T22:11:21Z</time>
  <course>0.0</course>
  <speed>0.0</speed>
  <fix>3d</fix>
</trkpt>
<trkpt lat="33.810313" lon="-118.393867">
  <ele>-0.123</ele>
  <time>2026-09-02T22:11:21Z</time>
  <course>188.25</course>
  <speed>0.01414213562373095</speed>
  <fix>3d</fix>
</trkpt>
<trkpt lat="33.810313" lon="-118.393867">
  <ele>-0.12</ele>
  <time>2026-09-02T22:11:21Z</time>
  <course>0.0</course>
  <speed>0.0</speed>
  <fix>3d</fix>
</trkpt>
<trkpt lat="33.810313" lon="-118.393867">
  <ele>-0.124</ele>
  <time>2026-09-02T22:11:21Z</time>
  <course>188.24</course>
  <speed>0.01414213562373095</speed>
  <fix>3d</fix>
</trkpt>
<trkpt lat="33.810313" lon="-118.393867">
  <ele>-0.12</ele>
  <time>2026-09-02T22:11:21Z</time>
  <course>0.0</course>
  <speed>0.0</speed>
  <fix>3d</fix>
</trkpt>
<trkpt lat="33.810313" lon="-118.393867">
  <ele>-0.126</ele>
  <time>2026-09-02T22:11:21Z</time>
  <course>188.23</course>
  <speed>0.01414213562373095</speed>
  <fix>3d</fix>
</trkpt>
<trkpt lat="33.810313" lon="-118.393867">
  <ele>-0.12</ele>
  <time>2026-09-02T22:11:21Z</time>
  <course>0.0</course>
  <speed>0.0</speed>
  <fix>3d</fix>
</trkpt>
<trkpt lat="33.810313" lon="-118.393867">
  <ele>-0.127</ele>
  <time>2026-09-02T22:11:21Z</time>
  <course>188.22</course>
  <speed>0.01414213562373095</speed>
  <fix>3d</fix>
</trkpt>
<trkpt lat="33.810313" lon="-118.393867">
  <ele>-0.12</ele>
  <time>2026-09-02T22:11:21Z</time>
  <course>0.0</course>
  <speed>0.0</speed>
  <fix>3d</fix>
</trkpt>
<trkpt lat="33.810313" lon="-118.393867">
  <ele>-0.129</ele>
  <time>2026-09-02T22:11:21Z</time>
  <course>188.21</course>
  <speed>0.01414213562373095</speed>
  <fix>3d</fix>
</trkpt>
<trkpt lat="33.810313" lon="-118.393867">
  <ele>-0.12</ele>
  <time>2026-09-02T22:11:21Z</time>
  <course>0.0</course>
  <speed>0.0</speed>
  <fix>3d</fix>
</trkpt>
<trkpt lat="33.810313" lon="-118.393867">
  <ele>-0.129</ele>
  <time>2026-09-02T22:11:21Z</time>
  <course>188.2</course>
  <speed>0.01414213562373095</speed>
  <fix>3d</fix>
</trkpt>
<trkpt lat="33.810313" lon="-118.393867">
  <ele>-0.12</ele>
  <time>2026-09-02T22:11:21Z</time>
  <course>0.0</course>
  <speed>0.0</speed>
  <fix>3d</fix>
</trkpt>
<trkpt lat="33.810313" lon="-118.393867">
  <ele>-0.129</ele>
  <time>2026-09-02T22:11:21Z</time>
  <course>188.2</course>
  <speed>0.01414213562373095</speed>
  <fix>3d</fix>
</trkpt>
<trkpt lat="33.810313" lon="-118.393867">
  <ele>-0.12</ele>
  <time>2026-09-02T22:11:21Z</time>
  <course>0.0</course>
  <speed>0.0</speed>
  <fix>3d</fix>
</trkpt>
<trkpt lat="33.810313" lon="-118.393867">
  <ele>-0.128</ele>
  <time>2026-09-02T22:11:21Z</time>
  <course>188.19</course>
  <speed>0.01414213562373095</speed>
  <fix>3d</fix>
</trkpt>
<trkpt lat="33.810313" lon="-118.393867">
  <ele>-0.12</ele>
  <time>2026-09-02T22:11:21Z</time>
  <course>0.0</course>
  <speed>0.0</speed>
  <fix>3d</fix>
</trkpt>
<trkpt lat="33.810313" lon="-118.393867">
  <ele>-0.128</ele>
  <time>2026-09-02T22:11:21Z</time>
  <course>188.18</course>
  <speed>0.01414213562373095</speed>
  <fix>3d</fix>
</trkpt>
<trkpt lat="33.810313" lon="-118.393867">
  <ele>-0.12</ele>
  <time>2026-09-02T22:11:21Z</time>
  <course>0.0</course>
  <speed>0.0</speed>
  <fix>3d</fix>
</trkpt>
<trkpt lat="33.810313" lon="-118.393867">
  <ele>-0.127</ele>
  <time>2026-09-02T22:11:21Z</time>
  <course>188.17</course>
  <speed>0.01414213562373095</speed>
  <fix>3d</fix>
</trkpt>
<trkpt lat="33.810313" lon="-118.393867">
  <ele>-0.12</ele>
  <time>2026-09-02T22:11:21Z</time>
  <course>0.0</course>
  <speed>0.0</speed>
  <fix>3d</fix>
</trkpt>
<trkpt lat="33.810313" lon="-118.393867">
  <ele>-0.127</ele>
  <time>2026-09-02T22:11:21Z</time>
  <course>188.16</course>
  <speed>0.01414213562373095</speed>
  <fix>3d</fix>
</trkpt>
<trkpt lat="33.810313" lon="-118.393867">
  <ele>-0.12</ele>
  <time>2026-09-02T22:11:21Z</time>
  <course>0.0</course>
  <speed>0.0</speed>
  <fix>3d</fix>
</trkpt>
<trkpt lat="33.810313" lon="-118.393867">
  <ele>-0.128</ele>
  <time>2026-09-02T22:11:21Z</time>
  <course>188.16</course>
  <speed>0.01414213562373095</speed>
  <fix>3d</fix>
</trkpt>
<trkpt lat="33.810313" lon="-118.393867">
  <ele>-0.12</ele>
  <time>2026-09-02T22:11:21Z</time>
  <course>0.0</course>
  <speed>0.0</speed>
  <fix>3d</fix>
</trkpt>
<trkpt lat="33.810313" lon="-118.393867">
  <ele>-0.129</ele>
  <time>2026-09-02T22:11:21Z</time>
  <course>188.15</course>
  <speed>0.01414213562373095</speed>
  <fix>3d</fix>
</trkpt>
<trkpt lat="33.810313" lon="-118.393867">
  <ele>-0.12</ele>
  <time>2026-09-02T22:11:21Z</time>
  <course>0.0</course>
  <speed>0.0</speed>
  <fix>3d</fix>
</trkpt>
<trkpt lat="33.810313" lon="-118.393867">
  <ele>-0.131</ele>
  <time>2026-09-02T22:11:21Z</time>
  <course>188.14</course>
  <speed>0.01414213562373095</speed>
  <fix>3d</fix>
</trkpt>
<trkpt lat="33.810313" lon="-118.393867">
  <ele>-0.12</ele>
  <time>2026-09-02T22:11:21Z</time>
  <course>0.0</course>
  <speed>0.0</speed>
  <fix>3d</fix>
</trkpt>
<trkpt lat="33.810313" lon="-118.393867">
  <ele>-0.133</ele>
  <time>2026-09-02T22:11:21Z</time>
  <course>188.13</course>
  <speed>0.01414213562373095</speed>
  <fix>3d</fix>
</trkpt>
<trkpt lat="33.810313" lon="-118.393867">
  <ele>-0.12</ele>
  <time>2026-09-02T22:11:21Z</time>
  <course>0.0</course>
  <speed>0.0</speed>
  <fix>3d</fix>
</trkpt>
<trkpt lat="33.810313" lon="-118.393867">
  <ele>-0.135</ele>
  <time>2026-09-02T22:11:21Z</time>
  <course>188.12</course>
  <speed>0.01414213562373095</speed>
  <fix>3d</fix>
</trkpt>
<trkpt lat="33.810313" lon="-118.393867">
  <ele>-0.12</ele>
  <time>2026-09-02T22:11:21Z</time>
  <course>0.0</course>
  <speed>0.0</speed>
  <fix>3d</fix>
</trkpt>
<trkpt lat="33.810313" lon="-118.393867">
  <ele>-0.136</ele>
  <time>2026-09-02T22:11:21Z</time>
  <course>188.12</course>
  <speed>0.01414213562373095</speed>
  <fix>3d</fix>
</trkpt>
<trkpt lat="33.810313" lon="-118.393867">
  <ele>-0.12</ele>
  <time>2026-09-02T22:11:21Z</time>
  <course>0.0</course>
  <speed>0.0</speed>
  <fix>3d</fix>
</trkpt>
<trkpt lat="33.810313" lon="-118.393867">
  <ele>-0.136</ele>
  <time>2026-09-02T22:11:21Z</time>
  <course>188.11</course>
  <speed>0.01414213562373095</speed>
  <fix>3d</fix>
</trkpt>
<trkpt lat="33.810313" lon="-118.393867">
  <ele>-0.12</ele>
  <time>2026-09-02T22:11:21Z</time>
  <course>0.0</course>
  <speed>0.0</speed>
  <fix>3d</fix>
</trkpt>
<trkpt lat="33.810313" lon="-118.393867">
  <ele>-0.136</ele>
  <time>2026-09-02T22:11:21Z</time>
  <course>188.1</course>
  <speed>0.01414213562373095</speed>
  <fix>3d</fix>
</trkpt>
<trkpt lat="33.810313" lon="-118.393867">
  <ele>-0.12</ele>
  <time>2026-09-02T22:11:21Z</time>
  <course>0.0</course>
  <speed>0.0</speed>
  <fix>3d</fix>
</trkpt>
<trkpt lat="33.810313" lon="-118.393867">
  <ele>-0.135</ele>
  <time>2026-09-02T22:11:21Z</time>
  <course>188.09</course>
  <speed>0.01414213562373095</speed>
  <fix>3d</fix>
</trkpt>
<trkpt lat="33.810313" lon="-118.393867">
  <ele>-0.12</ele>
  <time>2026-09-02T22:11:21Z</time>
  <course>0.0</course>
  <speed>0.0</speed>
  <fix>3d</fix>
</trkpt>
<trkpt lat="33.810313" lon="-118.393867">
  <ele>-0.133</ele>
  <time>2026-09-02T22:11:21Z</time>
  <course>188.08</course>
  <speed>0.01414213562373095</speed>
  <fix>3d</fix>
</trkpt>
<trkpt lat="33.810313" lon="-118.393867">
  <ele>-0.12</ele>
  <time>2026-09-02T22:11:21Z</time>
  <course>0.0</course>
  <speed>0.0</speed>
  <fix>3d</fix>
</trkpt>
<trkpt lat="33.810313" lon="-118.393867">
  <ele>-0.131</ele>
  <time>2026-09-02T22:11:21Z</time>
  <course>188.07</course>
  <speed>0.022360679774997897</speed>
  <fix>3d</fix>
</trkpt>
<trkpt lat="33.810313" lon="-118.393867">
  <ele>-0.12</ele>
  <time>2026-09-02T22:11:21Z</time>
  <course>0.0</course>
  <speed>0.0</speed>
  <fix>3d</fix>
</trkpt>
<trkpt lat="33.810313" lon="-118.393867">
  <ele>-0.128</ele>
  <time>2026-09-02T22:11:21Z</time>
  <course>188.07</course>
  <speed>0.022360679774997897</speed>
  <fix>3d</fix>
</trkpt>
<trkpt lat="33.810313" lon="-118.393867">
  <ele>-0.12</ele>
  <time>2026-09-02T22:11:21Z</time>
  <course>0.0</course>
  <speed>0.0</speed>
  <fix>3d</fix>
</trkpt>
<trkpt lat="33.810313" lon="-118.393867">
  <ele>-0.126</ele>
  <time>2026-09-02T22:11:21Z</time>
  <course>188.06</course>
  <speed>0.022360679774997897</speed>
  <fix>3d</fix>
</trkpt>
<trkpt lat="33.810313" lon="-118.393867">
  <ele>-0.12</ele>
  <time>2026-09-02T22:11:21Z</time>
  <course>0.0</course>
  <speed>0.0</speed>
  <fix>3d</fix>
</trkpt>
<trkpt lat="33.810313" lon="-118.393867">
  <ele>-0.126</ele>
  <time>2026-09-02T22:11:21Z</time>
  <course>188.05</course>
  <speed>0.022360679774997897</speed>
  <fix>3d</fix>
</trkpt>
<trkpt lat="33.810313" lon="-118.393867">
  <ele>-0.12</ele>
  <time>2026-09-02T22:11:21Z</time>
  <course>0.0</course>
  <speed>0.0</speed>
  <fix>3d</fix>
</trkpt>
<trkpt lat="33.810313" lon="-118.393867">
  <ele>-0.126</ele>
  <time>2026-09-02T22:11:21Z</time>
  <course>188.04</course>
  <speed>0.022360679774997897</speed>
  <fix>3d</fix>
</trkpt>
<trkpt lat="33.810313" lon="-118.393867">
  <ele>-0.12</ele>
  <time>2026-09-02T22:11:21Z</time>
  <course>0.0</course>
  <speed>0.0</speed>
  <fix>3d</fix>
</trkpt>
<trkpt lat="33.810313" lon="-118.393867">
  <ele>-0.127</ele>
  <time>2026-09-02T22:11:21Z</time>
  <course>188.03</course>
  <speed>0.022360679774997897</speed>
  <fix>3d</fix>
</trkpt>
<trkpt lat="33.810313" lon="-118.393867">
  <ele>-0.12</ele>
  <time>2026-09-02T22:11:21Z</time>
  <course>0.0</course>
  <speed>0.0</speed>
  <fix>3d</fix>
</trkpt>
<trkpt lat="33.810313" lon="-118.393867">
  <ele>-0.127</ele>
  <time>2026-09-02T22:11:21Z</time>
  <course>188.02</course>
  <speed>0.022360679774997897</speed>
  <fix>3d</fix>
</trkpt>
<trkpt lat="33.810313" lon="-118.393867">
  <ele>-0.12</ele>
  <time>2026-09-02T22:11:21Z</time>
  <course>0.0</course>
  <speed>0.0</speed>
  <fix>3d</fix>
</trkpt>
<trkpt lat="33.810313" lon="-118.393867">
  <ele>-0.127</ele>
  <time>2026-09-02T22:11:21Z</time>
  <course>188.02</course>
  <speed>0.022360679774997897</speed>
  <fix>3d</fix>
</trkpt>
<trkpt lat="33.810313" lon="-118.393867">
  <ele>-0.12</ele>
  <time>2026-09-02T22:11:21Z</time>
  <course>0.0</course>
  <speed>0.0</speed>
  <fix>3d</fix>
</trkpt>
<trkpt lat="33.810313" lon="-118.393867">
  <ele>-0.128</ele>
  <time>2026-09-02T22:11:21Z</time>
  <course>188.01</course>
  <speed>0.022360679774997897</speed>
  <fix>3d</fix>
</trkpt>
<trkpt lat="33.810313" lon="-118.393867">
  <ele>-0.12</ele>
  <time>2026-09-02T22:11:21Z</time>
  <course>0.0</course>
  <speed>0.0</speed>
  <fix>3d</fix>
</trkpt>
<trkpt lat="33.810313" lon="-118.393867">
  <ele>-0.128</ele>
  <time>2026-09-02T22:11:21Z</time>
  <course>188.0</course>
  <speed>0.022360679774997897</speed>
  <fix>3d</fix>
</trkpt>
<trkpt lat="33.810313" lon="-118.393867">
  <ele>-0.12</ele>
  <time>2026-09-02T22:11:21Z</time>
  <course>0.0</course>
  <speed>0.0</speed>
  <fix>3d</fix>
</trkpt>
<trkpt lat="33.810313" lon="-118.393867">
  <ele>-0.127</ele>
  <time>2026-09-02T22:11:21Z</time>
  <course>187.99</course>
  <speed>0.022360679774997897</speed>
  <fix>3d</fix>
</trkpt>
<trkpt lat="33.810313" lon="-118.393867">
  <ele>-0.12</ele>
  <time>2026-09-02T22:11:21Z</time>
  <course>0.0</course>
  <speed>0.0</speed>
  <fix>3d</fix>
</trkpt>
<trkpt lat="33.810313" lon="-118.393867">
  <ele>-0.126</ele>
  <time>2026-09-02T22:11:21Z</time>
  <course>187.98</course>
  <speed>0.022360679774997897</speed>
  <fix>3d</fix>
</trkpt>
<trkpt lat="33.810313" lon="-118.393867">
  <ele>-0.12</ele>
  <time>2026-09-02T22:11:21Z</time>
  <course>0.0</course>
  <speed>0.0</speed>
  <fix>3d</fix>
</trkpt>
<trkpt lat="33.810313" lon="-118.393867">
  <ele>-0.123</ele>
  <time>2026-09-02T22:11:21Z</time>
  <course>187.98</course>
  <speed>0.022360679774997897</speed>
  <fix>3d</fix>
</trkpt>
<trkpt lat="33.810313" lon="-118.393867">
  <ele>-0.12</ele>
  <time>2026-09-02T22:11:21Z</time>
  <course>0.0</course>
  <speed>0.0</speed>
  <fix>3d</fix>
</trkpt>
<trkpt lat="33.810313" lon="-118.393867">
  <ele>-0.121</ele>
  <time>2026-09-02T22:11:21Z</time>
  <course>187.97</course>
  <speed>0.022360679774997897</speed>
  <fix>3d</fix>
</trkpt>
<trkpt lat="33.810313" lon="-118.393867">
  <ele>-0.12</ele>
  <time>2026-09-02T22:11:21Z</time>
  <course>0.0</course>
  <speed>0.0</speed>
  <fix>3d</fix>
</trkpt>
<trkpt lat="33.810313" lon="-118.393867">
  <ele>-0.12</ele>
  <time>2026-09-02T22:11:21Z</time>
  <course>187.96</course>
  <speed>0.022360679774997897</speed>
  <fix>3d</fix>
</trkpt>
<trkpt lat="33.810313" lon="-118.393867">
  <ele>-0.12</ele>
  <time>2026-09-02T22:11:21Z</time>
  <course>0.0</course>
  <speed>0.0</speed>
  <fix>3d</fix>
</trkpt>
<trkpt lat="33.810313" lon="-118.393867">
  <ele>-0.12</ele>
  <time>2026-09-02T22:11:21Z</time>
  <course>187.95</course>
  <speed>0.022360679774997897</speed>
  <fix>3d</fix>
</trkpt>
<trkpt lat="33.810313" lon="-118.393867">
  <ele>-0.12</ele>
  <time>2026-09-02T22:11:21Z</time>
  <course>0.0</course>
  <speed>0.0</speed>
  <fix>3d</fix>
</trkpt>
<trkpt lat="33.810313" lon="-118.393867">
  <ele>-0.122</ele>
  <time>2026-09-02T22:11:21Z</time>
  <course>187.94</course>
  <speed>0.022360679774997897</speed>
  <fix>3d</fix>
</trkpt>
<trkpt lat="33.810313" lon="-118.393867">
  <ele>-0.12</ele>
  <time>2026-09-02T22:11:21Z</time>
  <course>0.0</course>
  <speed>0.0</speed>
  <fix>3d</fix>
</trkpt>
<trkpt lat="33.810313" lon="-118.393867">
  <ele>-0.125</ele>
  <time>2026-09-02T22:11:21Z</time>
  <course>187.94</course>
  <speed>0.022360679774997897</speed>
  <fix>3d</fix>
</trkpt>
<trkpt lat="33.810313" lon="-118.393867">
  <ele>-0.12</ele>
  <time>2026-09-02T22:11:21Z</time>
  <course>0.0</course>
  <speed>0.0</speed>
  <fix>3d</fix>
</trkpt>
<trkpt lat="33.810313" lon="-118.393867">
  <ele>-0.129</ele>
  <time>2026-09-02T22:11:21Z</time>
  <course>187.93</course>
  <speed>0.022360679774997897</speed>
  <fix>3d</fix>
</trkpt>
<trkpt lat="33.810313" lon="-118.393867">
  <ele>-0.12</ele>
  <time>2026-09-02T22:11:21Z</time>
  <course>0.0</course>
  <speed>0.0</speed>
  <fix>3d</fix>
</trkpt>
<trkpt lat="33.810313" lon="-118.393867">
  <ele>-0.131</ele>
  <time>2026-09-02T22:11:21Z</time>
  <course>187.92</course>
  <speed>0.022360679774997897</speed>
  <fix>3d</fix>
</trkpt>
<trkpt lat="33.810313" lon="-118.393867">
  <ele>-0.12</ele>
  <time>2026-09-02T22:11:21Z</time>
  <course>0.0</course>
  <speed>0.0</speed>
  <fix>3d</fix>
</trkpt>
<trkpt lat="33.810313" lon="-118.393867">
  <ele>-0.132</ele>
  <time>2026-09-02T22:11:21Z</time>
  <course>187.91</course>
  <speed>0.022360679774997897</speed>
  <fix>3d</fix>
</trkpt>
<trkpt lat="33.810313" lon="-118.393867">
  <ele>-0.12</ele>
  <time>2026-09-02T22:11:21Z</time>
  <course>0.0</course>
  <speed>0.0</speed>
  <fix>3d</fix>
</trkpt>
<trkpt lat="33.810313" lon="-118.393867">
  <ele>-0.132</ele>
  <time>2026-09-02T22:11:21Z</time>
  <course>187.9</course>
  <speed>0.022360679774997897</speed>
  <fix>3d</fix>
</trkpt>
<trkpt lat="33.810313" lon="-118.393867">
  <ele>-0.12</ele>
  <time>2026-09-02T22:11:21Z</time>
  <course>0.0</course>
  <speed>0.0</speed>
  <fix>3d</fix>
</trkpt>
<trkpt lat="33.810313" lon="-118.393867">
  <ele>-0.132</ele>
  <time>2026-09-02T22:11:21Z</time>
  <course>187.9</course>
  <speed>0.022360679774997897</speed>
  <fix>3d</fix>
</trkpt>
<trkpt lat="33.810313" lon="-118.393867">
  <ele>-0.12</ele>
  <time>2026-09-02T22:11:21Z</time>
  <course>0.0</course>
  <speed>0.0</speed>
  <fix>3d</fix>
</trkpt>
<trkpt lat="33.810313" lon="-118.393867">
  <ele>-0.13</ele>
  <time>2026-09-02T22:11:21Z</time>
  <course>187.89</course>
  <speed>0.022360679774997897</speed>
  <fix>3d</fix>
</trkpt>
<trkpt lat="33.810313" lon="-118.393867">
  <ele>-0.12</ele>
  <time>2026-09-02T22:11:21Z</time>
  <course>0.0</course>
  <speed>0.0</speed>
  <fix>3d</fix>
</trkpt>
<trkpt lat="33.810313" lon="-118.393867">
  <ele>-0.127</ele>
  <time>2026-09-02T22:11:21Z</time>
  <course>187.88</course>
  <speed>0.022360679774997897</speed>
  <fix>3d</fix>
</trkpt>
<trkpt lat="33.810313" lon="-118.393867">
  <ele>-0.12</ele>
  <time>2026-09-02T22:11:21Z</time>
  <course>0.0</course>
  <speed>0.0</speed>
  <fix>3d</fix>
</trkpt>
<trkpt lat="33.810313" lon="-118.393867">
  <ele>-0.123</ele>
  <time>2026-09-02T22:11:21Z</time>
  <course>187.87</course>
  <speed>0.022360679774997897</speed>
  <fix>3d</fix>
</trkpt>
<trkpt lat="33.810313" lon="-118.393867">
  <ele>-0.12</ele>
  <time>2026-09-02T22:11:21Z</time>
  <course>0.0</course>
  <speed>0.0</speed>
  <fix>3d</fix>
</trkpt>
<trkpt lat="33.810313" lon="-118.393867">
  <ele>-0.121</ele>
  <time>2026-09-02T22:11:21Z</time>
  <course>187.86</course>
  <speed>0.022360679774997897</speed>
  <fix>3d</fix>
</trkpt>
<trkpt lat="33.810313" lon="-118.393867">
  <ele>-0.12</ele>
  <time>2026-09-02T22:11:21Z</time>
  <course>0.0</course>
  <speed>0.0</speed>
  <fix>3d</fix>
</trkpt>
<trkpt lat="33.810313" lon="-118.393867">
  <ele>-0.121</ele>
  <time>2026-09-02T22:11:21Z</time>
  <course>187.86</course>
  <speed>0.022360679774997897</speed>
  <fix>3d</fix>
</trkpt>
<trkpt lat="33.810313" lon="-118.393867">
  <ele>-0.12</ele>
  <time>2026-09-02T22:11:21Z</time>
  <course>0.0</course>
  <speed>0.0</speed>
  <fix>3d</fix>
</trkpt>
<trkpt lat="33.810313" lon="-118.393867">
  <ele>-0.123</ele>
  <time>2026-09-02T22:11:21Z</time>
  <course>187.85</course>
  <speed>0.022360679774997897</speed>
  <fix>3d</fix>
</trkpt>
<trkpt lat="33.810313" lon="-118.393867">
  <ele>-0.12</ele>
  <time>2026-09-02T22:11:21Z</time>
  <course>0.0</course>
  <speed>0.0</speed>
  <fix>3d</fix>
</trkpt>
<trkpt lat="33.810313" lon="-118.393867">
  <ele>-0.124</ele>
  <time>2026-09-02T22:11:21Z</time>
  <course>187.84</course>
  <speed>0.022360679774997897</speed>
  <fix>3d</fix>
</trkpt>
<trkpt lat="33.810313" lon="-118.393867">
  <ele>-0.12</ele>
  <time>2026-09-02T22:11:21Z</time>
  <course>0.0</course>
  <speed>0.0</speed>
  <fix>3d</fix>
</trkpt>
<trkpt lat="33.810313" lon="-118.393867">
  <ele>-0.126</ele>
  <time>2026-09-02T22:11:21Z</time>
  <course>187.83</course>
  <speed>0.022360679774997897</speed>
  <fix>3d</fix>
</trkpt>
<trkpt lat="33.810313" lon="-118.393867">
  <ele>-0.12</ele>
  <time>2026-09-02T22:11:21Z</time>
  <course>0.0</course>
  <speed>0.0</speed>
  <fix>3d</fix>
</trkpt>
<trkpt lat="33.810313" lon="-118.393867">
  <ele>-0.127</ele>
  <time>2026-09-02T22:11:21Z</time>
  <course>187.83</course>
  <speed>0.022360679774997897</speed>
  <fix>3d</fix>
</trkpt>
<trkpt lat="33.810313" lon="-118.393867">
  <ele>-0.12</ele>
  <time>2026-09-02T22:11:21Z</time>
  <course>0.0</course>
  <speed>0.0</speed>
  <fix>3d</fix>
</trkpt>
<trkpt lat="33.810313" lon="-118.393867">
  <ele>-0.127</ele>
  <time>2026-09-02T22:11:21Z</time>
  <course>187.82</course>
  <speed>0.022360679774997897</speed>
  <fix>3d</fix>
</trkpt>
<trkpt lat="33.810313" lon="-118.393867">
  <ele>-0.12</ele>
  <time>2026-09-02T22:11:21Z</time>
  <course>0.0</course>
  <speed>0.0</speed>
  <fix>3d</fix>
</trkpt>
<trkpt lat="33.810313" lon="-118.393867">
  <ele>-0.127</ele>
  <time>2026-09-02T22:11:21Z</time>
  <course>187.81</course>
  <speed>0.022360679774997897</speed>
  <fix>3d</fix>
</trkpt>
<trkpt lat="33.810313" lon="-118.393867">
  <ele>-0.12</ele>
  <time>2026-09-02T22:11:21Z</time>
  <course>0.0</course>
  <speed>0.0</speed>
  <fix>3d</fix>
</trkpt>
<trkpt lat="33.810313" lon="-118.393867">
  <ele>-0.126</ele>
  <time>2026-09-02T22:11:21Z</time>
  <course>187.8</course>
  <speed>0.022360679774997897</speed>
  <fix>3d</fix>
</trkpt>
<trkpt lat="33.810313" lon="-118.393867">
  <ele>-0.12</ele>
  <time>2026-09-02T22:11:21Z</time>
  <course>0.0</course>
  <speed>0.0</speed>
  <fix>3d</fix>
</trkpt>
<trkpt lat="33.810313" lon="-118.393867">
  <ele>-0.124</ele>
  <time>2026-09-02T22:11:21Z</time>
  <course>187.8</course>
  <speed>0.022360679774997897</speed>
  <fix>3d</fix>
</trkpt>
<trkpt lat="33.810313" lon="-118.393867">
  <ele>-0.12</ele>
  <time>2026-09-02T22:11:21Z</time>
  <course>0.0</course>
  <speed>0.0</speed>
  <fix>3d</fix>
</trkpt>
<trkpt lat="33.810313" lon="-118.393867">
  <ele>-0.121</ele>
  <time>2026-09-02T22:11:21Z</time>
  <course>187.79</course>
  <speed>0.022360679774997897</speed>
  <fix>3d</fix>
</trkpt>
<trkpt lat="33.810313" lon="-118.393867">
  <ele>-0.12</ele>
  <time>2026-09-02T22:11:21Z</time>
  <course>0.0</course>
  <speed>0.0</speed>
  <fix>3d</fix>
</trkpt>
<trkpt lat="33.810313" lon="-118.393867">
  <ele>-0.119</ele>
  <time>2026-09-02T22:11:21Z</time>
  <course>187.78</course>
  <speed>0.022360679774997897</speed>
  <fix>3d</fix>
</trkpt>
<trkpt lat="33.810313" lon="-118.393867">
  <ele>-0.12</ele>
  <time>2026-09-02T22:11:21Z</time>
  <course>0.0</course>
  <speed>0.0</speed>
  <fix>3d</fix>
</trkpt>
<trkpt lat="33.810313" lon="-118.393867">
  <ele>-0.118</ele>
  <time>2026-09-02T22:11:21Z</time>
  <course>187.77</course>
  <speed>0.022360679774997897</speed>
  <fix>3d</fix>
</trkpt>
<trkpt lat="33.810313" lon="-118.393867">
  <ele>-0.12</ele>
  <time>2026-09-02T22:11:21Z</time>
  <course>0.0</course>
  <speed>0.0</speed>
  <fix>3d</fix>
</trkpt>
<trkpt lat="33.810313" lon="-118.393867">
  <ele>-0.118</ele>
  <time>2026-09-02T22:11:21Z</time>
  <course>187.76</course>
  <speed>0.022360679774997897</speed>
  <fix>3d</fix>
</trkpt>
<trkpt lat="33.810313" lon="-118.393867">
  <ele>-0.12</ele>
  <time>2026-09-02T22:11:21Z</time>
  <course>0.0</course>
  <speed>0.0</speed>
  <fix>3d</fix>
</trkpt>
<trkpt lat="33.810313" lon="-118.393867">
  <ele>-0.119</ele>
  <time>2026-09-02T22:11:21Z</time>
  <course>187.76</course>
  <speed>0.022360679774997897</speed>
  <fix>3d</fix>
</trkpt>
<trkpt lat="33.810313" lon="-118.393867">
  <ele>-0.12</ele>
  <time>2026-09-02T22:11:21Z</time>
  <course>0.0</course>
  <speed>0.0</speed>
  <fix>3d</fix>
</trkpt>
<trkpt lat="33.810313" lon="-118.393867">
  <ele>-0.12</ele>
  <time>2026-09-02T22:11:21Z</time>
  <course>187.75</course>
  <speed>0.022360679774997897</speed>
  <fix>3d</fix>
</trkpt>
<trkpt lat="33.810313" lon="-118.393867">
  <ele>-0.12</ele>
  <time>2026-09-02T22:11:21Z</time>
  <course>0.0</course>
  <speed>0.0</speed>
  <fix>3d</fix>
</trkpt>
<trkpt lat="33.810313" lon="-118.393867">
  <ele>-0.12</ele>
  <time>2026-09-02T22:11:21Z</time>
  <course>187.74</course>
  <speed>0.0282842712474619</speed>
  <fix>3d</fix>
</trkpt>
<trkpt lat="33.810313" lon="-118.393867">
  <ele>-0.12</ele>
  <time>2026-09-02T22:11:21Z</time>
  <course>0.0</course>
  <speed>0.0</speed>
  <fix>3d</fix>
</trkpt>
<trkpt lat="33.810313" lon="-118.393867">
  <ele>-0.12</ele>
  <time>2026-09-02T22:11:21Z</time>
  <course>187.74</course>
  <speed>0.0282842712474619</speed>
  <fix>3d</fix>
</trkpt>
<trkpt lat="33.810313" lon="-118.393867">
  <ele>-0.12</ele>
  <time>2026-09-02T22:11:21Z</time>
  <course>0.0</course>
  <speed>0.0</speed>
  <fix>3d</fix>
</trkpt>
<trkpt lat="33.810313" lon="-118.393867">
  <ele>-0.119</ele>
  <time>2026-09-02T22:11:21Z</time>
  <course>187.73</course>
  <speed>0.0282842712474619</speed>
  <fix>3d</fix>
</trkpt>
<trkpt lat="33.810313" lon="-118.393867">
  <ele>-0.12</ele>
  <time>2026-09-02T22:11:21Z</time>
  <course>0.0</course>
  <speed>0.0</speed>
  <fix>3d</fix>
</trkpt>
<trkpt lat="33.810313" lon="-118.393867">
  <ele>-0.118</ele>
  <time>2026-09-02T22:11:21Z</time>
  <course>187.72</course>
  <speed>0.0282842712474619</speed>
  <fix>3d</fix>
</trkpt>
<trkpt lat="33.810313" lon="-118.393867">
  <ele>-0.12</ele>
  <time>2026-09-02T22:11:21Z</time>
  <course>0.0</course>
  <speed>0.0</speed>
  <fix>3d</fix>
</trkpt>
<trkpt lat="33.810313" lon="-118.393867">
  <ele>-0.116</ele>
  <time>2026-09-02T22:11:21Z</time>
  <course>187.71</course>
  <speed>0.0282842712474619</speed>
  <fix>3d</fix>
</trkpt>
<trkpt lat="33.810313" lon="-118.393867">
  <ele>-0.12</ele>
  <time>2026-09-02T22:11:21Z</time>
  <course>0.0</course>
  <speed>0.0</speed>
  <fix>3d</fix>
</trkpt>
<trkpt lat="33.810313" lon="-118.393867">
  <ele>-0.113</ele>
  <time>2026-09-02T22:11:21Z</time>
  <course>187.71</course>
  <speed>0.0282842712474619</speed>
  <fix>3d</fix>
</trkpt>
<trkpt lat="33.810313" lon="-118.393867">
  <ele>-0.12</ele>
  <time>2026-09-02T22:11:21Z</time>
  <course>0.0</course>
  <speed>0.0</speed>
  <fix>3d</fix>
</trkpt>
<trkpt lat="33.810313" lon="-118.393867">
  <ele>-0.112</ele>
  <time>2026-09-02T22:11:21Z</time>
  <course>187.7</course>
  <speed>0.0282842712474619</speed>
  <fix>3d</fix>
</trkpt>
<trkpt lat="33.810313" lon="-118.393867">
  <ele>-0.12</ele>
  <time>2026-09-02T22:11:21Z</time>
  <course>0.0</course>
  <speed>0.0</speed>
  <fix>3d</fix>
</trkpt>
<trkpt lat="33.810313" lon="-118.393867">
  <ele>-0.113</ele>
  <time>2026-09-02T22:11:21Z</time>
  <course>187.69</course>
  <speed>0.0282842712474619</speed>
  <fix>3d</fix>
</trkpt>
<trkpt lat="33.810313" lon="-118.393867">
  <ele>-0.12</ele>
  <time>2026-09-02T22:11:21Z</time>
  <course>0.0</course>
  <speed>0.0</speed>
  <fix>3d</fix>
</trkpt>
<trkpt lat="33.810313" lon="-118.393867">
  <ele>-0.115</ele>
  <time>2026-09-02T22:11:21Z</time>
  <course>187.68</course>
  <speed>0.0282842712474619</speed>
  <fix>3d</fix>
</trkpt>
<trkpt lat="33.810313" lon="-118.393867">
  <ele>-0.12</ele>
  <time>2026-09-02T22:11:21Z</time>
  <course>0.0</course>
  <speed>0.0</speed>
  <fix>3d</fix>
</trkpt>
<trkpt lat="33.810313" lon="-118.393867">
  <ele>-0.119</ele>
  <time>2026-09-02T22:11:21Z</time>
  <course>187.68</course>
  <speed>0.0282842712474619</speed>
  <fix>3d</fix>
</trkpt>
<trkpt lat="33.810313" lon="-118.393867">
  <ele>-0.12</ele>
  <time>2026-09-02T22:11:21Z</time>
  <course>0.0</course>
  <speed>0.0</speed>
  <fix>3d</fix>
</trkpt>
<trkpt lat="33.810313" lon="-118.393867">
  <ele>-0.124</ele>
  <time>2026-09-02T22:11:21Z</time>
  <course>187.67</course>
  <speed>0.0282842712474619</speed>
  <fix>3d</fix>
</trkpt>
<trkpt lat="33.810313" lon="-118.393867">
  <ele>-0.12</ele>
  <time>2026-09-02T22:11:21Z</time>
  <course>0.0</course>
  <speed>0.0</speed>
  <fix>3d</fix>
</trkpt>
<trkpt lat="33.810313" lon="-118.393867">
  <ele>-0.129</ele>
  <time>2026-09-02T22:11:21Z</time>
  <course>187.66</course>
  <speed>0.0282842712474619</speed>
  <fix>3d</fix>
</trkpt>
<trkpt lat="33.810313" lon="-118.393867">
  <ele>-0.12</ele>
  <time>2026-09-02T22:11:21Z</time>
  <course>0.0</course>
  <speed>0.0</speed>
  <fix>3d</fix>
</trkpt>
<trkpt lat="33.810313" lon="-118.393867">
  <ele>-0.133</ele>
  <time>2026-09-02T22:11:21Z</time>
  <course>187.66</course>
  <speed>0.0282842712474619</speed>
  <fix>3d</fix>
</trkpt>
<trkpt lat="33.810313" lon="-118.393867">
  <ele>-0.12</ele>
  <time>2026-09-02T22:11:21Z</time>
  <course>0.0</course>
  <speed>0.0</speed>
  <fix>3d</fix>
</trkpt>
<trkpt lat="33.810313" lon="-118.393867">
  <ele>-0.135</ele>
  <time>2026-09-02T22:11:21Z</time>
  <course>187.65</course>
  <speed>0.0282842712474619</speed>
  <fix>3d</fix>
</trkpt>
<trkpt lat="33.810313" lon="-118.393867">
  <ele>-0.12</ele>
  <time>2026-09-02T22:11:21Z</time>
  <course>0.0</course>
  <speed>0.0</speed>
  <fix>3d</fix>
</trkpt>
<trkpt lat="33.810313" lon="-118.393867">
  <ele>-0.135</ele>
  <time>2026-09-02T22:11:21Z</time>
  <course>187.64</course>
  <speed>0.0282842712474619</speed>
  <fix>3d</fix>
</trkpt>
<trkpt lat="33.810313" lon="-118.393867">
  <ele>-0.12</ele>
  <time>2026-09-02T22:11:21Z</time>
  <course>0.0</course>
  <speed>0.0</speed>
  <fix>3d</fix>
</trkpt>
<trkpt lat="33.810313" lon="-118.393867">
  <ele>-0.135</ele>
  <time>2026-09-02T22:11:21Z</time>
  <course>187.64</course>
  <speed>0.0282842712474619</speed>
  <fix>3d</fix>
</trkpt>
<trkpt lat="33.810313" lon="-118.393867">
  <ele>-0.12</ele>
  <time>2026-09-02T22:11:21Z</time>
  <course>0.0</course>
  <speed>0.0</speed>
  <fix>3d</fix>
</trkpt>
<trkpt lat="33.810313" lon="-118.393867">
  <ele>-0.133</ele>
  <time>2026-09-02T22:11:21Z</time>
  <course>187.63</course>
  <speed>0.0282842712474619</speed>
  <fix>3d</fix>
</trkpt>
<trkpt lat="33.810313" lon="-118.393867">
  <ele>-0.12</ele>
  <time>2026-09-02T22:11:21Z</time>
  <course>0.0</course>
  <speed>0.0</speed>
  <fix>3d</fix>
</trkpt>
<trkpt lat="33.810313" lon="-118.393867">
  <ele>-0.132</ele>
  <time>2026-09-02T22:11:21Z</time>
  <course>187.63</course>
  <speed>0.03605551275463989</speed>
  <fix>3d</fix>
</trkpt>
<trkpt lat="33.810313" lon="-118.393867">
  <ele>-0.12</ele>
  <time>2026-09-02T22:11:21Z</time>
  <course>0.0</course>
  <speed>0.0</speed>
  <fix>3d</fix>
</trkpt>
<trkpt lat="33.810313" lon="-118.393867">
  <ele>-0.132</ele>
  <time>2026-09-02T22:11:21Z</time>
  <course>187.62</course>
  <speed>0.03605551275463989</speed>
  <fix>3d</fix>
</trkpt>
<trkpt lat="33.810313" lon="-118.393867">
  <ele>-0.12</ele>
  <time>2026-09-02T22:11:21Z</time>
  <course>0.0</course>
  <speed>0.0</speed>
  <fix>3d</fix>
</trkpt>
<trkpt lat="33.810313" lon="-118.393867">
  <ele>-0.133</ele>
  <time>2026-09-02T22:11:21Z</time>
  <course>187.61</course>
  <speed>0.03605551275463989</speed>
  <fix>3d</fix>
</trkpt>
<trkpt lat="33.810313" lon="-118.393867">
  <ele>-0.12</ele>
  <time>2026-09-02T22:11:21Z</time>
  <course>0.0</course>
  <speed>0.0</speed>
  <fix>3d</fix>
</trkpt>
<trkpt lat="33.810313" lon="-118.393867">
  <ele>-0.133</ele>
  <time>2026-09-02T22:11:21Z</time>
  <course>187.6</course>
  <speed>0.03605551275463989</speed>
  <fix>3d</fix>
</trkpt>
<trkpt lat="33.810313" lon="-118.393867">
  <ele>-0.12</ele>
  <time>2026-09-02T22:11:21Z</time>
  <course>0.0</course>
  <speed>0.0</speed>
  <fix>3d</fix>
</trkpt>
<trkpt lat="33.810313" lon="-118.393867">
  <ele>-0.134</ele>
  <time>2026-09-02T22:11:21Z</time>
  <course>187.6</course>
  <speed>0.03605551275463989</speed>
  <fix>3d</fix>
</trkpt>
<trkpt lat="33.810313" lon="-118.393867">
  <ele>-0.12</ele>
  <time>2026-09-02T22:11:21Z</time>
  <course>0.0</course>
  <speed>0.0</speed>
  <fix>3d</fix>
</trkpt>
<trkpt lat="33.810313" lon="-118.393867">
  <ele>-0.133</ele>
  <time>2026-09-02T22:11:21Z</time>
  <course>187.59</course>
  <speed>0.03605551275463989</speed>
  <fix>3d</fix>
</trkpt>
<trkpt lat="33.810313" lon="-118.393867">
  <ele>-0.12</ele>
  <time>2026-09-02T22:11:21Z</time>
  <course>0.0</course>
  <speed>0.0</speed>
  <fix>3d</fix>
</trkpt>
<trkpt lat="33.810313" lon="-118.393867">
  <ele>-0.132</ele>
  <time>2026-09-02T22:11:21Z</time>
  <course>187.58</course>
  <speed>0.03605551275463989</speed>
  <fix>3d</fix>
</trkpt>
<trkpt lat="33.810313" lon="-118.393867">
  <ele>-0.12</ele>
  <time>2026-09-02T22:11:21Z</time>
  <course>0.0</course>
  <speed>0.0</speed>
  <fix>3d</fix>
</trkpt>
<trkpt lat="33.810313" lon="-118.393867">
  <ele>-0.129</ele>
  <time>2026-09-02T22:11:21Z</time>
  <course>187.58</course>
  <speed>0.03605551275463989</speed>
  <fix>3d</fix>
</trkpt>
<trkpt lat="33.810313" lon="-118.393867">
  <ele>-0.12</ele>
  <time>2026-09-02T22:11:21Z</time>
  <course>0.0</course>
  <speed>0.0</speed>
  <fix>3d</fix>
</trkpt>
<trkpt lat="33.810313" lon="-118.393867">
  <ele>-0.127</ele>
  <time>2026-09-02T22:11:21Z</time>
  <course>187.57</course>
  <speed>0.03605551275463989</speed>
  <fix>3d</fix>
</trkpt>
<trkpt lat="33.810313" lon="-118.393867">
  <ele>-0.12</ele>
  <time>2026-09-02T22:11:21Z</time>
  <course>0.0</course>
  <speed>0.0</speed>
  <fix>3d</fix>
</trkpt>
<trkpt lat="33.810313" lon="-118.393867">
  <ele>-0.125</ele>
  <time>2026-09-02T22:11:21Z</time>
  <course>187.56</course>
  <speed>0.03605551275463989</speed>
  <fix>3d</fix>
</trkpt>
<trkpt lat="33.810313" lon="-118.393867">
  <ele>-0.12</ele>
  <time>2026-09-02T22:11:21Z</time>
  <course>0.0</course>
  <speed>0.0</speed>
  <fix>3d</fix>
</trkpt>
<trkpt lat="33.810313" lon="-118.393867">
  <ele>-0.121</ele>
  <time>2026-09-02T22:11:21Z</time>
  <course>187.56</course>
  <speed>0.03605551275463989</speed>
  <fix>3d</fix>
</trkpt>
<trkpt lat="33.810313" lon="-118.393867">
  <ele>-0.12</ele>
  <time>2026-09-02T22:11:21Z</time>
  <course>0.0</course>
  <speed>0.0</speed>
  <fix>3d</fix>
</trkpt>
<trkpt lat="33.810313" lon="-118.393867">
  <ele>-0.119</ele>
  <time>2026-09-02T22:11:21Z</time>
  <course>187.55</course>
  <speed>0.03605551275463989</speed>
  <fix>3d</fix>
</trkpt>
<trkpt lat="33.810313" lon="-118.393867">
  <ele>-0.12</ele>
  <time>2026-09-02T22:11:21Z</time>
  <course>0.0</course>
  <speed>0.0</speed>
  <fix>3d</fix>
</trkpt>
<trkpt lat="33.810313" lon="-118.393867">
  <ele>-0.117</ele>
  <time>2026-09-02T22:11:21Z</time>
  <course>187.54</course>
  <speed>0.03605551275463989</speed>
  <fix>3d</fix>
</trkpt>
<trkpt lat="33.810313" lon="-118.393867">
  <ele>-0.12</ele>
  <time>2026-09-02T22:11:21Z</time>
  <course>0.0</course>
  <speed>0.0</speed>
  <fix>3d</fix>
</trkpt>
<trkpt lat="33.810313" lon="-118.393867">
  <ele>-0.117</ele>
  <time>2026-09-02T22:11:21Z</time>
  <course>187.54</course>
  <speed>0.03605551275463989</speed>
  <fix>3d</fix>
</trkpt>
<trkpt lat="33.810313" lon="-118.393867">
  <ele>-0.12</ele>
  <time>2026-09-02T22:11:21Z</time>
  <course>0.0</course>
  <speed>0.0</speed>
  <fix>3d</fix>
</trkpt>
<trkpt lat="33.810313" lon="-118.393867">
  <ele>-0.118</ele>
  <time>2026-09-02T22:11:21Z</time>
  <course>187.53</course>
  <speed>0.03605551275463989</speed>
  <fix>3d</fix>
</trkpt>
<trkpt lat="33.810313" lon="-118.393867">
  <ele>-0.12</ele>
  <time>2026-09-02T22:11:21Z</time>
  <course>0.0</course>
  <speed>0.0</speed>
  <fix>3d</fix>
</trkpt>
<trkpt lat="33.810313" lon="-118.393867">
  <ele>-0.119</ele>
  <time>2026-09-02T22:11:21Z</time>
  <course>187.52</course>
  <speed>0.03605551275463989</speed>
  <fix>3d</fix>
</trkpt>
<trkpt lat="33.810313" lon="-118.393867">
  <ele>-0.12</ele>
  <time>2026-09-02T22:11:21Z</time>
  <course>0.0</course>
  <speed>0.0</speed>
  <fix>3d</fix>
</trkpt>
<trkpt lat="33.810313" lon="-118.393867">
  <ele>-0.12</ele>
  <time>2026-09-02T22:11:21Z</time>
  <course>187.52</course>
  <speed>0.03605551275463989</speed>
  <fix>3d</fix>
</trkpt>
<trkpt lat="33.810313" lon="-118.393867">
  <ele>-0.12</ele>
  <time>2026-09-02T22:11:21Z</time>
  <course>0.0</course>
  <speed>0.0</speed>
  <fix>3d</fix>
</trkpt>
<trkpt lat="33.810313" lon="-118.393867">
  <ele>-0.121</ele>
  <time>2026-09-02T22:11:21Z</time>
  <course>187.51</course>
  <speed>0.03605551275463989</speed>
  <fix>3d</fix>
</trkpt>
<trkpt lat="33.810313" lon="-118.393867">
  <ele>-0.12</ele>
  <time>2026-09-02T22:11:21Z</time>
  <course>0.0</course>
  <speed>0.0</speed>
  <fix>3d</fix>
</trkpt>
<trkpt lat="33.810313" lon="-118.393867">
  <ele>-0.122</ele>
  <time>2026-09-02T22:11:21Z</time>
  <course>187.5</course>
  <speed>0.03605551275463989</speed>
  <fix>3d</fix>
</trkpt>
<trkpt lat="33.810313" lon="-118.393867">
  <ele>-0.12</ele>
  <time>2026-09-02T22:11:21Z</time>
  <course>0.0</course>
  <speed>0.0</speed>
  <fix>3d</fix>
</trkpt>
<trkpt lat="33.810313" lon="-118.393867">
  <ele>-0.121</ele>
  <time>2026-09-02T22:11:21Z</time>
  <course>187.5</course>
  <speed>0.03605551275463989</speed>
  <fix>3d</fix>
</trkpt>
<trkpt lat="33.810313" lon="-118.393867">
  <ele>-0.12</ele>
  <time>2026-09-02T22:11:21Z</time>
  <course>0.0</course>
  <speed>0.0</speed>
  <fix>3d</fix>
</trkpt>
<trkpt lat="33.810313" lon="-118.393867">
  <ele>-0.121</ele>
  <time>2026-09-02T22:11:21Z</time>
  <course>187.49</course>
  <speed>0.03605551275463989</speed>
  <fix>3d</fix>
</trkpt>
<trkpt lat="33.810313" lon="-118.393867">
  <ele>-0.12</ele>
  <time>2026-09-02T22:11:21Z</time>
  <course>0.0</course>
  <speed>0.0</speed>
  <fix>3d</fix>
</trkpt>
<trkpt lat="33.810313" lon="-118.393867">
  <ele>-0.121</ele>
  <time>2026-09-02T22:11:21Z</time>
  <course>187.49</course>
  <speed>0.03605551275463989</speed>
  <fix>3d</fix>
</trkpt>
<trkpt lat="33.810313" lon="-118.393867">
  <ele>-0.12</ele>
  <time>2026-09-02T22:11:21Z</time>
  <course>0.0</course>
  <speed>0.0</speed>
  <fix>3d</fix>
</trkpt>
<trkpt lat="33.810313" lon="-118.393867">
  <ele>-0.121</ele>
  <time>2026-09-02T22:11:21Z</time>
  <course>187.48</course>
  <speed>0.03605551275463989</speed>
  <fix>3d</fix>
</trkpt>
<trkpt lat="33.810313" lon="-118.393867">
  <ele>-0.12</ele>
  <time>2026-09-02T22:11:21Z</time>
  <course>0.0</course>
  <speed>0.0</speed>
  <fix>3d</fix>
</trkpt>
<trkpt lat="33.810313" lon="-118.393867">
  <ele>-0.122</ele>
  <time>2026-09-02T22:11:21Z</time>
  <course>187.47</course>
  <speed>0.03605551275463989</speed>
  <fix>3d</fix>
</trkpt>
<trkpt lat="33.810313" lon="-118.393867">
  <ele>-0.12</ele>
  <time>2026-09-02T22:11:21Z</time>
  <course>0.0</course>
  <speed>0.0</speed>
  <fix>3d</fix>
</trkpt>
<trkpt lat="33.810313" lon="-118.393867">
  <ele>-0.125</ele>
  <time>2026-09-02T22:11:21Z</time>
  <course>187.47</course>
  <speed>0.03605551275463989</speed>
  <fix>3d</fix>
</trkpt>
<trkpt lat="33.810313" lon="-118.393867">
  <ele>-0.12</ele>
  <time>2026-09-02T22:11:21Z</time>
  <course>0.0</course>
  <speed>0.0</speed>
  <fix>3d</fix>
</trkpt>
<trkpt lat="33.810313" lon="-118.393867">
  <ele>-0.127</ele>
  <time>2026-09-02T22:11:21Z</time>
  <course>187.46</course>
  <speed>0.03605551275463989</speed>
  <fix>3d</fix>
</trkpt>
<trkpt lat="33.810313" lon="-118.393867">
  <ele>-0.12</ele>
  <time>2026-09-02T22:11:21Z</time>
  <course>0.0</course>
  <speed>0.0</speed>
  <fix>3d</fix>
</trkpt>
<trkpt lat="33.810313" lon="-118.393867">
  <ele>-0.13</ele>
  <time>2026-09-02T22:11:21Z</time>
  <course>187.45</course>
  <speed>0.03605551275463989</speed>
  <fix>3d</fix>
</trkpt>
<trkpt lat="33.810313" lon="-118.393867">
  <ele>-0.12</ele>
  <time>2026-09-02T22:11:21Z</time>
  <course>0.0</course>
  <speed>0.0</speed>
  <fix>3d</fix>
</trkpt>
<trkpt lat="33.810313" lon="-118.393867">
  <ele>-0.131</ele>
  <time>2026-09-02T22:11:21Z</time>
  <course>187.45</course>
  <speed>0.03605551275463989</speed>
  <fix>3d</fix>
</trkpt>
<trkpt lat="33.810313" lon="-118.393867">
  <ele>-0.12</ele>
  <time>2026-09-02T22:11:21Z</time>
  <course>0.0</course>
  <speed>0.0</speed>
  <fix>3d</fix>
</trkpt>
<trkpt lat="33.810313" lon="-118.393867">
  <ele>-0.132</ele>
  <time>2026-09-02T22:11:21Z</time>
  <course>187.44</course>
  <speed>0.03605551275463989</speed>
  <fix>3d</fix>
</trkpt>
<trkpt lat="33.810313" lon="-118.393867">
  <ele>-0.12</ele>
  <time>2026-09-02T22:11:21Z</time>
  <course>0.0</course>
  <speed>0.0</speed>
  <fix>3d</fix>
</trkpt>
<trkpt lat="33.810313" lon="-118.393867">
  <ele>-0.132</ele>
  <time>2026-09-02T22:11:21Z</time>
  <course>187.44</course>
  <speed>0.03605551275463989</speed>
  <fix>3d</fix>
</trkpt>
<trkpt lat="33.810313" lon="-118.393867">
  <ele>-0.12</ele>
  <time>2026-09-02T22:11:21Z</time>
  <course>0.0</course>
  <speed>0.0</speed>
  <fix>3d</fix>
</trkpt>
<trkpt lat="33.810313" lon="-118.393867">
  <ele>-0.132</ele>
  <time>2026-09-02T22:11:21Z</time>
  <course>187.43</course>
  <speed>0.03605551275463989</speed>
  <fix>3d</fix>
</trkpt>
<trkpt lat="33.810313" lon="-118.393867">
  <ele>-0.12</ele>
  <time>2026-09-02T22:11:21Z</time>
  <course>0.0</course>
  <speed>0.0</speed>
  <fix>3d</fix>
</trkpt>
<trkpt lat="33.810313" lon="-118.393867">
  <ele>-0.132</ele>
  <time>2026-09-02T22:11:21Z</time>
  <course>187.42</course>
  <speed>0.03605551275463989</speed>
  <fix>3d</fix>
</trkpt>
<trkpt lat="33.810313" lon="-118.393867">
  <ele>-0.12</ele>
  <time>2026-09-02T22:11:21Z</time>
  <course>0.0</course>
  <speed>0.0</speed>
  <fix>3d</fix>
</trkpt>
<trkpt lat="33.810313" lon="-118.393867">
  <ele>-0.131</ele>
  <time>2026-09-02T22:11:21Z</time>
  <course>187.42</course>
  <speed>0.03605551275463989</speed>
  <fix>3d</fix>
</trkpt>
<trkpt lat="33.810313" lon="-118.393867">
  <ele>-0.12</ele>
  <time>2026-09-02T22:11:21Z</time>
  <course>0.0</course>
  <speed>0.0</speed>
  <fix>3d</fix>
</trkpt>
<trkpt lat="33.810313" lon="-118.393867">
  <ele>-0.131</ele>
  <time>2026-09-02T22:11:21Z</time>
  <course>187.41</course>
  <speed>0.03605551275463989</speed>
  <fix>3d</fix>
</trkpt>
<trkpt lat="33.810313" lon="-118.393867">
  <ele>-0.12</ele>
  <time>2026-09-02T22:11:21Z</time>
  <course>0.0</course>
  <speed>0.0</speed>
  <fix>3d</fix>
</trkpt>
<trkpt lat="33.810313" lon="-118.393867">
  <ele>-0.132</ele>
  <time>2026-09-02T22:11:21Z</time>
  <course>187.41</course>
  <speed>0.03605551275463989</speed>
  <fix>3d</fix>
</trkpt>
<trkpt lat="33.810313" lon="-118.393867">
  <ele>-0.12</ele>
  <time>2026-09-02T22:11:21Z</time>
  <course>0.0</course>
  <speed>0.0</speed>
  <fix>3d</fix>
</trkpt>
<trkpt lat="33.810313" lon="-118.393867">
  <ele>-0.134</ele>
  <time>2026-09-02T22:11:21Z</time>
  <course>187.4</course>
  <speed>0.03605551275463989</speed>
  <fix>3d</fix>
</trkpt>
<trkpt lat="33.810313" lon="-118.393867">
  <ele>-0.12</ele>
  <time>2026-09-02T22:11:21Z</time>
  <course>0.0</course>
  <speed>0.0</speed>
  <fix>3d</fix>
</trkpt>
<trkpt lat="33.810313" lon="-118.393867">
  <ele>-0.137</ele>
  <time>2026-09-02T22:11:22Z</time>
  <course>187.39</course>
  <speed>0.03605551275463989</speed>
  <fix>3d</fix>
</trkpt>
<trkpt lat="33.810313" lon="-118.393867">
  <ele>-0.12</ele>
  <time>2026-09-02T22:11:22Z</time>
  <course>0.0</course>
  <speed>0.0</speed>
  <fix>3d</fix>
</trkpt>
<trkpt lat="33.810313" lon="-118.393867">
  <ele>-0.14</ele>
  <time>2026-09-02T22:11:22Z</time>
  <course>187.39</course>
  <speed>0.03605551275463989</speed>
  <fix>3d</fix>
</trkpt>
<trkpt lat="33.810313" lon="-118.393867">
  <ele>-0.12</ele>
  <time>2026-09-02T22:11:22Z</time>
  <course>0.0</course>
  <speed>0.0</speed>
  <fix>3d</fix>
</trkpt>
<trkpt lat="33.810313" lon="-118.393867">
  <ele>-0.141</ele>
  <time>2026-09-02T22:11:22Z</time>
  <course>187.38</course>
  <speed>0.03605551275463989</speed>
  <fix>3d</fix>
</trkpt>
<trkpt lat="33.810313" lon="-118.393867">
  <ele>-0.12</ele>
  <time>2026-09-02T22:11:22Z</time>
  <course>0.0</course>
  <speed>0.0</speed>
  <fix>3d</fix>
</trkpt>
<trkpt lat="33.810313" lon="-118.393867">
  <ele>-0.141</ele>
  <time>2026-09-02T22:11:22Z</time>
  <course>187.38</course>
  <speed>0.03605551275463989</speed>
  <fix>3d</fix>
</trkpt>
<trkpt lat="33.810313" lon="-118.393867">
  <ele>-0.12</ele>
  <time>2026-09-02T22:11:22Z</time>
  <course>0.0</course>
  <speed>0.0</speed>
  <fix>3d</fix>
</trkpt>
<trkpt lat="33.810313" lon="-118.393867">
  <ele>-0.139</ele>
  <time>2026-09-02T22:11:22Z</time>
  <course>187.37</course>
  <speed>0.03605551275463989</speed>
  <fix>3d</fix>
</trkpt>
<trkpt lat="33.810313" lon="-118.393867">
  <ele>-0.12</ele>
  <time>2026-09-02T22:11:22Z</time>
  <course>0.0</course>
  <speed>0.0</speed>
  <fix>3d</fix>
</trkpt>
<trkpt lat="33.810313" lon="-118.393867">
  <ele>-0.136</ele>
  <time>2026-09-02T22:11:22Z</time>
  <course>187.36</course>
  <speed>0.03605551275463989</speed>
  <fix>3d</fix>
</trkpt>
<trkpt lat="33.810313" lon="-118.393867">
  <ele>-0.12</ele>
  <time>2026-09-02T22:11:22Z</time>
  <course>0.0</course>
  <speed>0.0</speed>
  <fix>3d</fix>
</trkpt>
<trkpt lat="33.810313" lon="-118.393867">
  <ele>-0.132</ele>
  <time>2026-09-02T22:11:22Z</time>
  <course>187.36</course>
  <speed>0.03605551275463989</speed>
  <fix>3d</fix>
</trkpt>
<trkpt lat="33.810313" lon="-118.393867">
  <ele>-0.12</ele>
  <time>2026-09-02T22:11:22Z</time>
  <course>0.0</course>
  <speed>0.0</speed>
  <fix>3d</fix>
</trkpt>
<trkpt lat="33.810313" lon="-118.393867">
  <ele>-0.129</ele>
  <time>2026-09-02T22:11:22Z</time>
  <course>187.35</course>
  <speed>0.03605551275463989</speed>
  <fix>3d</fix>
</trkpt>
<trkpt lat="33.810313" lon="-118.393867">
  <ele>-0.12</ele>
  <time>2026-09-02T22:11:22Z</time>
  <course>0.0</course>
  <speed>0.0</speed>
  <fix>3d</fix>
</trkpt>
<trkpt lat="33.810313" lon="-118.393867">
  <ele>-0.127</ele>
  <time>2026-09-02T22:11:22Z</time>
  <course>187.35</course>
  <speed>0.03605551275463989</speed>
  <fix>3d</fix>
</trkpt>
<trkpt lat="33.810313" lon="-118.393867">
  <ele>-0.12</ele>
  <time>2026-09-02T22:11:22Z</time>
  <course>0.0</course>
  <speed>0.0</speed>
  <fix>3d</fix>
</trkpt>
<trkpt lat="33.810313" lon="-118.393867">
  <ele>-0.126</ele>
  <time>2026-09-02T22:11:22Z</time>
  <course>187.34</course>
  <speed>0.03605551275463989</speed>
  <fix>3d</fix>
</trkpt>
<trkpt lat="33.810313" lon="-118.393867">
  <ele>-0.12</ele>
  <time>2026-09-02T22:11:22Z</time>
  <course>0.0</course>
  <speed>0.0</speed>
  <fix>3d</fix>
</trkpt>
<trkpt lat="33.810313" lon="-118.393867">
  <ele>-0.126</ele>
  <time>2026-09-02T22:11:22Z</time>
  <course>187.33</course>
  <speed>0.03605551275463989</speed>
  <fix>3d</fix>
</trkpt>
<trkpt lat="33.810313" lon="-118.393867">
  <ele>-0.12</ele>
  <time>2026-09-02T22:11:22Z</time>
  <course>0.0</course>
  <speed>0.0</speed>
  <fix>3d</fix>
</trkpt>
<trkpt lat="33.810313" lon="-118.393867">
  <ele>-0.127</ele>
  <time>2026-09-02T22:11:22Z</time>
  <course>187.33</course>
  <speed>0.03605551275463989</speed>
  <fix>3d</fix>
</trkpt>
<trkpt lat="33.810313" lon="-118.393867">
  <ele>-0.12</ele>
  <time>2026-09-02T22:11:22Z</time>
  <course>0.0</course>
  <speed>0.0</speed>
  <fix>3d</fix>
</trkpt>
<trkpt lat="33.810313" lon="-118.393867">
  <ele>-0.126</ele>
  <time>2026-09-02T22:11:22Z</time>
  <course>187.32</course>
  <speed>0.03605551275463989</speed>
  <fix>3d</fix>
</trkpt>
<trkpt lat="33.810313" lon="-118.393867">
  <ele>-0.12</ele>
  <time>2026-09-02T22:11:22Z</time>
  <course>0.0</course>
  <speed>0.0</speed>
  <fix>3d</fix>
</trkpt>
<trkpt lat="33.810313" lon="-118.393867">
  <ele>-0.126</ele>
  <time>2026-09-02T22:11:22Z</time>
  <course>187.32</course>
  <speed>0.03605551275463989</speed>
  <fix>3d</fix>
</trkpt>
<trkpt lat="33.810313" lon="-118.393867">
  <ele>-0.12</ele>
  <time>2026-09-02T22:11:22Z</time>
  <course>0.0</course>
  <speed>0.0</speed>
  <fix>3d</fix>
</trkpt>
<trkpt lat="33.810313" lon="-118.393867">
  <ele>-0.125</ele>
  <time>2026-09-02T22:11:22Z</time>
  <course>187.31</course>
  <speed>0.03605551275463989</speed>
  <fix>3d</fix>
</trkpt>
<trkpt lat="33.810313" lon="-118.393867">
  <ele>-0.12</ele>
  <time>2026-09-02T22:11:22Z</time>
  <course>0.0</course>
  <speed>0.0</speed>
  <fix>3d</fix>
</trkpt>
<trkpt lat="33.810313" lon="-118.393867">
  <ele>-0.124</ele>
  <time>2026-09-02T22:11:22Z</time>
  <course>187.31</course>
  <speed>0.03605551275463989</speed>
  <fix>3d</fix>
</trkpt>
<trkpt lat="33.810313" lon="-118.393867">
  <ele>-0.12</ele>
  <time>2026-09-02T22:11:22Z</time>
  <course>0.0</course>
  <speed>0.0</speed>
  <fix>3d</fix>
</trkpt>
<trkpt lat="33.810313" lon="-118.393867">
  <ele>-0.121</ele>
  <time>2026-09-02T22:11:22Z</time>
  <course>187.3</course>
  <speed>0.03605551275463989</speed>
  <fix>3d</fix>
</trkpt>
<trkpt lat="33.810313" lon="-118.393867">
  <ele>-0.12</ele>
  <time>2026-09-02T22:11:22Z</time>
  <course>0.0</course>
  <speed>0.0</speed>
  <fix>3d</fix>
</trkpt>
<trkpt lat="33.810313" lon="-118.393867">
  <ele>-0.121</ele>
  <time>2026-09-02T22:11:22Z</time>
  <course>187.29</course>
  <speed>0.03605551275463989</speed>
  <fix>3d</fix>
</trkpt>
<trkpt lat="33.810313" lon="-118.393867">
  <ele>-0.12</ele>
  <time>2026-09-02T22:11:22Z</time>
  <course>0.0</course>
  <speed>0.0</speed>
  <fix>3d</fix>
</trkpt>
<trkpt lat="33.810313" lon="-118.393867">
  <ele>-0.122</ele>
  <time>2026-09-02T22:11:22Z</time>
  <course>187.29</course>
  <speed>0.03605551275463989</speed>
  <fix>3d</fix>
</trkpt>
<trkpt lat="33.810313" lon="-118.393867">
  <ele>-0.12</ele>
  <time>2026-09-02T22:11:22Z</time>
  <course>0.0</course>
  <speed>0.0</speed>
  <fix>3d</fix>
</trkpt>
<trkpt lat="33.810313" lon="-118.393867">
  <ele>-0.124</ele>
  <time>2026-09-02T22:11:22Z</time>
  <course>187.28</course>
  <speed>0.03605551275463989</speed>
  <fix>3d</fix>
</trkpt>
<trkpt lat="33.810313" lon="-118.393867">
  <ele>-0.12</ele>
  <time>2026-09-02T22:11:22Z</time>
  <course>0.0</course>
  <speed>0.0</speed>
  <fix>3d</fix>
</trkpt>
<trkpt lat="33.810313" lon="-118.393867">
  <ele>-0.128</ele>
  <time>2026-09-02T22:11:22Z</time>
  <course>187.28</course>
  <speed>0.03605551275463989</speed>
  <fix>3d</fix>
</trkpt>
<trkpt lat="33.810313" lon="-118.393867">
  <ele>-0.12</ele>
  <time>2026-09-02T22:11:22Z</time>
  <course>0.0</course>
  <speed>0.0</speed>
  <fix>3d</fix>
</trkpt>
<trkpt lat="33.810313" lon="-118.393867">
  <ele>-0.13</ele>
  <time>2026-09-02T22:11:22Z</time>
  <course>187.27</course>
  <speed>0.03605551275463989</speed>
  <fix>3d</fix>
</trkpt>
<trkpt lat="33.810313" lon="-118.393867">
  <ele>-0.12</ele>
  <time>2026-09-02T22:11:22Z</time>
  <course>0.0</course>
  <speed>0.0</speed>
  <fix>3d</fix>
</trkpt>
<trkpt lat="33.810313" lon="-118.393867">
  <ele>-0.133</ele>
  <time>2026-09-02T22:11:22Z</time>
  <course>187.27</course>
  <speed>0.03605551275463989</speed>
  <fix>3d</fix>
</trkpt>
<trkpt lat="33.810313" lon="-118.393867">
  <ele>-0.12</ele>
  <time>2026-09-02T22:11:22Z</time>
  <course>0.0</course>
  <speed>0.0</speed>
  <fix>3d</fix>
</trkpt>
<trkpt lat="33.810313" lon="-118.393867">
  <ele>-0.135</ele>
  <time>2026-09-02T22:11:22Z</time>
  <course>187.26</course>
  <speed>0.03605551275463989</speed>
  <fix>3d</fix>
</trkpt>
<trkpt lat="33.810313" lon="-118.393867">
  <ele>-0.12</ele>
  <time>2026-09-02T22:11:22Z</time>
  <course>0.0</course>
  <speed>0.0</speed>
  <fix>3d</fix>
</trkpt>
<trkpt lat="33.810313" lon="-118.393867">
  <ele>-0.136</ele>
  <time>2026-09-02T22:11:22Z</time>
  <course>187.26</course>
  <speed>0.03605551275463989</speed>
  <fix>3d</fix>
</trkpt>
<trkpt lat="33.810313" lon="-118.393867">
  <ele>-0.12</ele>
  <time>2026-09-02T22:11:22Z</time>
  <course>0.0</course>
  <speed>0.0</speed>
  <fix>3d</fix>
</trkpt>
<trkpt lat="33.810313" lon="-118.393867">
  <ele>-0.136</ele>
  <time>2026-09-02T22:11:22Z</time>
  <course>187.25</course>
  <speed>0.03605551275463989</speed>
  <fix>3d</fix>
</trkpt>
<trkpt lat="33.810313" lon="-118.393867">
  <ele>-0.12</ele>
  <time>2026-09-02T22:11:22Z</time>
  <course>0.0</course>
  <speed>0.0</speed>
  <fix>3d</fix>
</trkpt>
<trkpt lat="33.810313" lon="-118.393867">
  <ele>-0.135</ele>
  <time>2026-09-02T22:11:22Z</time>
  <course>187.25</course>
  <speed>0.03605551275463989</speed>
  <fix>3d</fix>
</trkpt>
<trkpt lat="33.810313" lon="-118.393867">
  <ele>-0.12</ele>
  <time>2026-09-02T22:11:22Z</time>
  <course>0.0</course>
  <speed>0.0</speed>
  <fix>3d</fix>
</trkpt>
<trkpt lat="33.810313" lon="-118.393867">
  <ele>-0.134</ele>
  <time>2026-09-02T22:11:22Z</time>
  <course>187.24</course>
  <speed>0.03605551275463989</speed>
  <fix>3d</fix>
</trkpt>
<trkpt lat="33.810313" lon="-118.393867">
  <ele>-0.12</ele>
  <time>2026-09-02T22:11:22Z</time>
  <course>0.0</course>
  <speed>0.0</speed>
  <fix>3d</fix>
</trkpt>
<trkpt lat="33.810313" lon="-118.393867">
  <ele>-0.132</ele>
  <time>2026-09-02T22:11:22Z</time>
  <course>187.24</course>
  <speed>0.03605551275463989</speed>
  <fix>3d</fix>
</trkpt>
<trkpt lat="33.810313" lon="-118.393867">
  <ele>-0.12</ele>
  <time>2026-09-02T22:11:22Z</time>
  <course>0.0</course>
  <speed>0.0</speed>
  <fix>3d</fix>
</trkpt>
<trkpt lat="33.810313" lon="-118.393867">
  <ele>-0.131</ele>
  <time>2026-09-02T22:11:22Z</time>
  <course>187.23</course>
  <speed>0.03605551275463989</speed>
  <fix>3d</fix>
</trkpt>
<trkpt lat="33.810313" lon="-118.393867">
  <ele>-0.12</ele>
  <time>2026-09-02T22:11:22Z</time>
  <course>0.0</course>
  <speed>0.0</speed>
  <fix>3d</fix>
</trkpt>
<trkpt lat="33.810313" lon="-118.393867">
  <ele>-0.131</ele>
  <time>2026-09-02T22:11:22Z</time>
  <course>187.22</course>
  <speed>0.03605551275463989</speed>
  <fix>3d</fix>
</trkpt>
<trkpt lat="33.810313" lon="-118.393867">
  <ele>-0.12</ele>
  <time>2026-09-02T22:11:22Z</time>
  <course>0.0</course>
  <speed>0.0</speed>
  <fix>3d</fix>
</trkpt>
<trkpt lat="33.810313" lon="-118.393867">
  <ele>-0.132</ele>
  <time>2026-09-02T22:11:22Z</time>
  <course>187.22</course>
  <speed>0.03605551275463989</speed>
  <fix>3d</fix>
</trkpt>
<trkpt lat="33.810313" lon="-118.393867">
  <ele>-0.12</ele>
  <time>2026-09-02T22:11:22Z</time>
  <course>0.0</course>
  <speed>0.0</speed>
  <fix>3d</fix>
</trkpt>
<trkpt lat="33.810313" lon="-118.393867">
  <ele>-0.132</ele>
  <time>2026-09-02T22:11:22Z</time>
  <course>187.21</course>
  <speed>0.03605551275463989</speed>
  <fix>3d</fix>
</trkpt>
<trkpt lat="33.810313" lon="-118.393867">
  <ele>-0.12</ele>
  <time>2026-09-02T22:11:22Z</time>
  <course>0.0</course>
  <speed>0.0</speed>
  <fix>3d</fix>
</trkpt>
<trkpt lat="33.810313" lon="-118.393867">
  <ele>-0.133</ele>
  <time>2026-09-02T22:11:22Z</time>
  <course>187.21</course>
  <speed>0.03605551275463989</speed>
  <fix>3d</fix>
</trkpt>
<trkpt lat="33.810313" lon="-118.393867">
  <ele>-0.12</ele>
  <time>2026-09-02T22:11:22Z</time>
  <course>0.0</course>
  <speed>0.0</speed>
  <fix>3d</fix>
</trkpt>
<trkpt lat="33.810313" lon="-118.393867">
  <ele>-0.132</ele>
  <time>2026-09-02T22:11:22Z</time>
  <course>187.2</course>
  <speed>0.03605551275463989</speed>
  <fix>3d</fix>
</trkpt>
<trkpt lat="33.810313" lon="-118.393867">
  <ele>-0.12</ele>
  <time>2026-09-02T22:11:22Z</time>
  <course>0.0</course>
  <speed>0.0</speed>
  <fix>3d</fix>
</trkpt>
<trkpt lat="33.810313" lon="-118.393867">
  <ele>-0.131</ele>
  <time>2026-09-02T22:11:22Z</time>
  <course>187.2</course>
  <speed>0.03605551275463989</speed>
  <fix>3d</fix>
</trkpt>
<trkpt lat="33.810313" lon="-118.393867">
  <ele>-0.12</ele>
  <time>2026-09-02T22:11:22Z</time>
  <course>0.0</course>
  <speed>0.0</speed>
  <fix>3d</fix>
</trkpt>
<trkpt lat="33.810313" lon="-118.393867">
  <ele>-0.129</ele>
  <time>2026-09-02T22:11:22Z</time>
  <course>187.19</course>
  <speed>0.03605551275463989</speed>
  <fix>3d</fix>
</trkpt>
<trkpt lat="33.810313" lon="-118.393867">
  <ele>-0.12</ele>
  <time>2026-09-02T22:11:22Z</time>
  <course>0.0</course>
  <speed>0.0</speed>
  <fix>3d</fix>
</trkpt>
<trkpt lat="33.810313" lon="-118.393867">
  <ele>-0.126</ele>
  <time>2026-09-02T22:11:22Z</time>
  <course>187.19</course>
  <speed>0.03605551275463989</speed>
  <fix>3d</fix>
</trkpt>
<trkpt lat="33.810313" lon="-118.393867">
  <ele>-0.12</ele>
  <time>2026-09-02T22:11:22Z</time>
  <course>0.0</course>
  <speed>0.0</speed>
  <fix>3d</fix>
</trkpt>
<trkpt lat="33.810313" lon="-118.393867">
  <ele>-0.124</ele>
  <time>2026-09-02T22:11:22Z</time>
  <course>187.18</course>
  <speed>0.03605551275463989</speed>
  <fix>3d</fix>
</trkpt>
<trkpt lat="33.810313" lon="-118.393867">
  <ele>-0.12</ele>
  <time>2026-09-02T22:11:22Z</time>
  <course>0.0</course>
  <speed>0.0</speed>
  <fix>3d</fix>
</trkpt>
<trkpt lat="33.810313" lon="-118.393867">
  <ele>-0.123</ele>
  <time>2026-09-02T22:11:22Z</time>
  <course>187.18</course>
  <speed>0.03605551275463989</speed>
  <fix>3d</fix>
</trkpt>
<trkpt lat="33.810313" lon="-118.393867">
  <ele>-0.12</ele>
  <time>2026-09-02T22:11:22Z</time>
  <course>0.0</course>
  <speed>0.0</speed>
  <fix>3d</fix>
</trkpt>
<trkpt lat="33.810313" lon="-118.393867">
  <ele>-0.123</ele>
  <time>2026-09-02T22:11:22Z</time>
  <course>187.17</course>
  <speed>0.03605551275463989</speed>
  <fix>3d</fix>
</trkpt>
<trkpt lat="33.810313" lon="-118.393867">
  <ele>-0.12</ele>
  <time>2026-09-02T22:11:22Z</time>
  <course>0.0</course>
  <speed>0.0</speed>
  <fix>3d</fix>
</trkpt>
<trkpt lat="33.810313" lon="-118.393867">
  <ele>-0.122</ele>
  <time>2026-09-02T22:11:22Z</time>
  <course>187.17</course>
  <speed>0.0</speed>
  <fix>3d</fix>
</trkpt>
<trkpt lat="33.810313" lon="-118.393867">
  <ele>-0.12</ele>
  <time>2026-09-02T22:11:22Z</time>
  <course>0.0</course>
  <speed>0.0</speed>
  <fix>3d</fix>
</trkpt>
<trkpt lat="33.810313" lon="-118.393867">
  <ele>-0.121</ele>
  <time>2026-09-02T22:11:22Z</time>
  <course>187.16</course>
  <speed>0.0</speed>
  <fix>3d</fix>
</trkpt>
<trkpt lat="33.810313" lon="-118.393867">
  <ele>-0.12</ele>
  <time>2026-09-02T22:11:22Z</time>
  <course>0.0</course>
  <speed>0.0</speed>
  <fix>3d</fix>
</trkpt>
<trkpt lat="33.810313" lon="-118.393867">
  <ele>-0.12</ele>
  <time>2026-09-02T22:11:22Z</time>
  <course>187.16</course>
  <speed>0.0</speed>
  <fix>3d</fix>
</trkpt>
<trkpt lat="33.810313" lon="-118.393867">
  <ele>-0.12</ele>
  <time>2026-09-02T22:11:22Z</time>
  <course>0.0</course>
  <speed>0.0</speed>
  <fix>3d</fix>
</trkpt>
<trkpt lat="33.810313" lon="-118.393867">
  <ele>-0.119</ele>
  <time>2026-09-02T22:11:22Z</time>
  <course>187.15</course>
  <speed>0.0</speed>
  <fix>3d</fix>
</trkpt>
<trkpt lat="33.810313" lon="-118.393867">
  <ele>-0.12</ele>
  <time>2026-09-02T22:11:22Z</time>
  <course>0.0</course>
  <speed>0.0</speed>
  <fix>3d</fix>
</trkpt>
<trkpt lat="33.810313" lon="-118.393867">
  <ele>-0.116</ele>
  <time>2026-09-02T22:11:22Z</time>
  <course>187.15</course>
  <speed>0.0</speed>
  <fix>3d</fix>
</trkpt>
<trkpt lat="33.810313" lon="-118.393867">
  <ele>-0.12</ele>
  <time>2026-09-02T22:11:22Z</time>
  <course>0.0</course>
  <speed>0.0</speed>
  <fix>3d</fix>
</trkpt>
<trkpt lat="33.810313" lon="-118.393867">
  <ele>-0.114</ele>
  <time>2026-09-02T22:11:22Z</time>
  <course>187.14</course>
  <speed>0.0</speed>
  <fix>3d</fix>
</trkpt>
<trkpt lat="33.810313" lon="-118.393867">
  <ele>-0.12</ele>
  <time>2026-09-02T22:11:22Z</time>
  <course>0.0</course>
  <speed>0.0</speed>
  <fix>3d</fix>
</trkpt>
<trkpt lat="33.810313" lon="-118.393867">
  <ele>-0.113</ele>
  <time>2026-09-02T22:11:22Z</time>
  <course>187.14</course>
  <speed>0.0</speed>
  <fix>3d</fix>
</trkpt>
<trkpt lat="33.810313" lon="-118.393867">
  <ele>-0.12</ele>
  <time>2026-09-02T22:11:22Z</time>
  <course>0.0</course>
  <speed>0.0</speed>
  <fix>3d</fix>
</trkpt>
<trkpt lat="33.810313" lon="-118.393867">
  <ele>-0.112</ele>
  <time>2026-09-02T22:11:22Z</time>
  <course>187.13</course>
  <speed>0.0</speed>
  <fix>3d</fix>
</trkpt>
<trkpt lat="33.810313" lon="-118.393867">
  <ele>-0.12</ele>
  <time>2026-09-02T22:11:22Z</time>
  <course>0.0</course>
  <speed>0.0</speed>
  <fix>3d</fix>
</trkpt>
<trkpt lat="33.810313" lon="-118.393867">
  <ele>-0.113</ele>
  <time>2026-09-02T22:11:22Z</time>
  <course>187.13</course>
  <speed>0.0</speed>
  <fix>3d</fix>
</trkpt>
<trkpt lat="33.810313" lon="-118.393867">
  <ele>-0.12</ele>
  <time>2026-09-02T22:11:22Z</time>
  <course>0.0</course>
  <speed>0.0</speed>
  <fix>3d</fix>
</trkpt>
<trkpt lat="33.810313" lon="-118.393867">
  <ele>-0.114</ele>
  <time>2026-09-02T22:11:22Z</time>
  <course>187.12</course>
  <speed>0.0</speed>
  <fix>3d</fix>
</trkpt>
<trkpt lat="33.810313" lon="-118.393867">
  <ele>-0.12</ele>
  <time>2026-09-02T22:11:22Z</time>
  <course>0.0</course>
  <speed>0.0</speed>
  <fix>3d</fix>
</trkpt>
<trkpt lat="33.810313" lon="-118.393867">
  <ele>-0.117</ele>
  <time>2026-09-02T22:11:22Z</time>
  <course>187.12</course>
  <speed>0.0</speed>
  <fix>3d</fix>
</trkpt>
<trkpt lat="33.810313" lon="-118.393867">
  <ele>-0.12</ele>
  <time>2026-09-02T22:11:22Z</time>
  <course>0.0</course>
  <speed>0.0</speed>
  <fix>3d</fix>
</trkpt>
<trkpt lat="33.810313" lon="-118.393867">
  <ele>-0.119</ele>
  <time>2026-09-02T22:11:22Z</time>
  <course>187.11</course>
  <speed>0.01</speed>
  <fix>3d</fix>
</trkpt>
<trkpt lat="33.810313" lon="-118.393867">
  <ele>-0.12</ele>
  <time>2026-09-02T22:11:22Z</time>
  <course>0.0</course>
  <speed>0.0</speed>
  <fix>3d</fix>
</trkpt>
<trkpt lat="33.810313" lon="-118.393867">
  <ele>-0.12</ele>
  <time>2026-09-02T22:11:22Z</time>
  <course>187.11</course>
  <speed>0.01</speed>
  <fix>3d</fix>
</trkpt>
<trkpt lat="33.810313" lon="-118.393867">
  <ele>-0.12</ele>
  <time>2026-09-02T22:11:22Z</time>
  <course>0.0</course>
  <speed>0.0</speed>
  <fix>3d</fix>
</trkpt>
<trkpt lat="33.810313" lon="-118.393867">
  <ele>-0.121</ele>
  <time>2026-09-02T22:11:22Z</time>
  <course>187.1</course>
  <speed>0.01</speed>
  <fix>3d</fix>
</trkpt>
<trkpt lat="33.810313" lon="-118.393867">
  <ele>-0.12</ele>
  <time>2026-09-02T22:11:22Z</time>
  <course>0.0</course>
  <speed>0.0</speed>
  <fix>3d</fix>
</trkpt>
<trkpt lat="33.810313" lon="-118.393867">
  <ele>-0.122</ele>
  <time>2026-09-02T22:11:22Z</time>
  <course>187.1</course>
  <speed>0.01414213562373095</speed>
  <fix>3d</fix>
</trkpt>
<trkpt lat="33.810313" lon="-118.393867">
  <ele>-0.12</ele>
  <time>2026-09-02T22:11:22Z</time>
  <course>0.0</course>
  <speed>0.0</speed>
  <fix>3d</fix>
</trkpt>
<trkpt lat="33.810313" lon="-118.393867">
  <ele>-0.122</ele>
  <time>2026-09-02T22:11:22Z</time>
  <course>187.09</course>
  <speed>0.01414213562373095</speed>
  <fix>3d</fix>
</trkpt>
<trkpt lat="33.810313" lon="-118.393867">
  <ele>-0.12</ele>
  <time>2026-09-02T22:11:22Z</time>
  <course>0.0</course>
  <speed>0.0</speed>
  <fix>3d</fix>
</trkpt>
<trkpt lat="33.810313" lon="-118.393867">
  <ele>-0.123</ele>
  <time>2026-09-02T22:11:22Z</time>
  <course>187.09</course>
  <speed>0.01414213562373095</speed>
  <fix>3d</fix>
</trkpt>
<trkpt lat="33.810313" lon="-118.393867">
  <ele>-0.12</ele>
  <time>2026-09-02T22:11:22Z</time>
  <course>0.0</course>
  <speed>0.0</speed>
  <fix>3d</fix>
</trkpt>
<trkpt lat="33.810313" lon="-118.393867">
  <ele>-0.124</ele>
  <time>2026-09-02T22:11:22Z</time>
  <course>187.08</course>
  <speed>0.01414213562373095</speed>
  <fix>3d</fix>
</trkpt>
<trkpt lat="33.810313" lon="-118.393867">
  <ele>-0.12</ele>
  <time>2026-09-02T22:11:22Z</time>
  <course>0.0</course>
  <speed>0.0</speed>
  <fix>3d</fix>
</trkpt>
<trkpt lat="33.810313" lon="-118.393867">
  <ele>-0.126</ele>
  <time>2026-09-02T22:11:22Z</time>
  <course>187.08</course>
  <speed>0.01414213562373095</speed>
  <fix>3d</fix>
</trkpt>
<trkpt lat="33.810313" lon="-118.393867">
  <ele>-0.12</ele>
  <time>2026-09-02T22:11:22Z</time>
  <course>0.0</course>
  <speed>0.0</speed>
  <fix>3d</fix>
</trkpt>
<trkpt lat="33.810313" lon="-118.393867">
  <ele>-0.128</ele>
  <time>2026-09-02T22:11:22Z</time>
  <course>187.07</course>
  <speed>0.01414213562373095</speed>
  <fix>3d</fix>
</trkpt>
<trkpt lat="33.810313" lon="-118.393867">
  <ele>-0.12</ele>
  <time>2026-09-02T22:11:22Z</time>
  <course>0.0</course>
  <speed>0.0</speed>
  <fix>3d</fix>
</trkpt>
<trkpt lat="33.810313" lon="-118.393867">
  <ele>-0.131</ele>
  <time>2026-09-02T22:11:22Z</time>
  <course>187.07</course>
  <speed>0.01414213562373095</speed>
  <fix>3d</fix>
</trkpt>
<trkpt lat="33.810313" lon="-118.393867">
  <ele>-0.12</ele>
  <time>2026-09-02T22:11:22Z</time>
  <course>0.0</course>
  <speed>0.0</speed>
  <fix>3d</fix>
</trkpt>
<trkpt lat="33.810313" lon="-118.393867">
  <ele>-0.134</ele>
  <time>2026-09-02T22:11:22Z</time>
  <course>187.06</course>
  <speed>0.022360679774997897</speed>
  <fix>3d</fix>
</trkpt>
<trkpt lat="33.810313" lon="-118.393867">
  <ele>-0.12</ele>
  <time>2026-09-02T22:11:22Z</time>
  <course>0.0</course>
  <speed>0.0</speed>
  <fix>3d</fix>
</trkpt>
<trkpt lat="33.810313" lon="-118.393867">
  <ele>-0.136</ele>
  <time>2026-09-02T22:11:22Z</time>
  <course>187.06</course>
  <speed>0.022360679774997897</speed>
  <fix>3d</fix>
</trkpt>
<trkpt lat="33.810313" lon="-118.393867">
  <ele>-0.12</ele>
  <time>2026-09-02T22:11:22Z</time>
  <course>0.0</course>
  <speed>0.0</speed>
  <fix>3d</fix>
</trkpt>
<trkpt lat="33.810313" lon="-118.393867">
  <ele>-0.137</ele>
  <time>2026-09-02T22:11:22Z</time>
  <course>187.06</course>
  <speed>0.022360679774997897</speed>
  <fix>3d</fix>
</trkpt>
<trkpt lat="33.810313" lon="-118.393867">
  <ele>-0.12</ele>
  <time>2026-09-02T22:11:22Z</time>
  <course>0.0</course>
  <speed>0.0</speed>
  <fix>3d</fix>
</trkpt>
<trkpt lat="33.810313" lon="-118.393867">
  <ele>-0.137</ele>
  <time>2026-09-02T22:11:22Z</time>
  <course>187.05</course>
  <speed>0.022360679774997897</speed>
  <fix>3d</fix>
</trkpt>
<trkpt lat="33.810313" lon="-118.393867">
  <ele>-0.12</ele>
  <time>2026-09-02T22:11:22Z</time>
  <course>0.0</course>
  <speed>0.0</speed>
  <fix>3d</fix>
</trkpt>
<trkpt lat="33.810313" lon="-118.393867">
  <ele>-0.135</ele>
  <time>2026-09-02T22:11:22Z</time>
  <course>187.05</course>
  <speed>0.022360679774997897</speed>
  <fix>3d</fix>
</trkpt>
<trkpt lat="33.810313" lon="-118.393867">
  <ele>-0.12</ele>
  <time>2026-09-02T22:11:22Z</time>
  <course>0.0</course>
  <speed>0.0</speed>
  <fix>3d</fix>
</trkpt>
<trkpt lat="33.810313" lon="-118.393867">
  <ele>-0.133</ele>
  <time>2026-09-02T22:11:22Z</time>
  <course>187.04</course>
  <speed>0.022360679774997897</speed>
  <fix>3d</fix>
</trkpt>
<trkpt lat="33.810313" lon="-118.393867">
  <ele>-0.12</ele>
  <time>2026-09-02T22:11:22Z</time>
  <course>0.0</course>
  <speed>0.0</speed>
  <fix>3d</fix>
</trkpt>
<trkpt lat="33.8103131" lon="-118.3938671">
  <ele>-0.131</ele>
  <time>2026-09-02T22:11:22Z</time>
  <course>187.04</course>
  <speed>0.022360679774997897</speed>
  <fix>3d</fix>
</trkpt>
<trkpt lat="33.810313" lon="-118.393867">
  <ele>-0.12</ele>
  <time>2026-09-02T22:11:22Z</time>
  <course>0.0</course>
  <speed>0.0</speed>
  <fix>3d</fix>
</trkpt>
<trkpt lat="33.8103131" lon="-118.3938671">
  <ele>-0.129</ele>
  <time>2026-09-02T22:11:22Z</time>
  <course>187.03</course>
  <speed>0.0282842712474619</speed>
  <fix>3d</fix>
</trkpt>
<trkpt lat="33.810313" lon="-118.393867">
  <ele>-0.12</ele>
  <time>2026-09-02T22:11:22Z</time>
  <course>0.0</course>
  <speed>0.0</speed>
  <fix>3d</fix>
</trkpt>
<trkpt lat="33.8103131" lon="-118.3938671">
  <ele>-0.129</ele>
  <time>2026-09-02T22:11:22Z</time>
  <course>187.03</course>
  <speed>0.0282842712474619</speed>
  <fix>3d</fix>
</trkpt>
<trkpt lat="33.810313" lon="-118.393867">
  <ele>-0.12</ele>
  <time>2026-09-02T22:11:22Z</time>
  <course>0.0</course>
  <speed>0.0</speed>
  <fix>3d</fix>
</trkpt>
<trkpt lat="33.8103131" lon="-118.3938671">
  <ele>-0.128</ele>
  <time>2026-09-02T22:11:22Z</time>
  <course>187.02</course>
  <speed>0.0282842712474619</speed>
  <fix>3d</fix>
</trkpt>
<trkpt lat="33.810313" lon="-118.393867">
  <ele>-0.12</ele>
  <time>2026-09-02T22:11:22Z</time>
  <course>0.0</course>
  <speed>0.0</speed>
  <fix>3d</fix>
</trkpt>
<trkpt lat="33.8103131" lon="-118.3938671">
  <ele>-0.129</ele>
  <time>2026-09-02T22:11:22Z</time>
  <course>187.02</course>
  <speed>0.0282842712474619</speed>
  <fix>3d</fix>
</trkpt>
<trkpt lat="33.810313" lon="-118.393867">
  <ele>-0.12</ele>
  <time>2026-09-02T22:11:22Z</time>
  <course>0.0</course>
  <speed>0.0</speed>
  <fix>3d</fix>
</trkpt>
<trkpt lat="33.8103131" lon="-118.3938671">
  <ele>-0.13</ele>
  <time>2026-09-02T22:11:22Z</time>
  <course>187.01</course>
  <speed>0.0282842712474619</speed>
  <fix>3d</fix>
</trkpt>
<trkpt lat="33.810313" lon="-118.393867">
  <ele>-0.12</ele>
  <time>2026-09-02T22:11:22Z</time>
  <course>0.0</course>
  <speed>0.0</speed>
  <fix>3d</fix>
</trkpt>
<trkpt lat="33.8103131" lon="-118.3938671">
  <ele>-0.131</ele>
  <time>2026-09-02T22:11:22Z</time>
  <course>187.01</course>
  <speed>0.0282842712474619</speed>
  <fix>3d</fix>
</trkpt>
<trkpt lat="33.810313" lon="-118.393867">
  <ele>-0.12</ele>
  <time>2026-09-02T22:11:22Z</time>
  <course>0.0</course>
  <speed>0.0</speed>
  <fix>3d</fix>
</trkpt>
<trkpt lat="33.8103131" lon="-118.3938671">
  <ele>-0.13</ele>
  <time>2026-09-02T22:11:22Z</time>
  <course>187.0</course>
  <speed>0.0282842712474619</speed>
  <fix>3d</fix>
</trkpt>
<trkpt lat="33.810313" lon="-118.393867">
  <ele>-0.12</ele>
  <time>2026-09-02T22:11:22Z</time>
  <course>0.0</course>
  <speed>0.0</speed>
  <fix>3d</fix>
</trkpt>
<trkpt lat="33.8103131" lon="-118.3938671">
  <ele>-0.13</ele>
  <time>2026-09-02T22:11:22Z</time>
  <course>187.0</course>
  <speed>0.0282842712474619</speed>
  <fix>3d</fix>
</trkpt>
<trkpt lat="33.810313" lon="-118.393867">
  <ele>-0.12</ele>
  <time>2026-09-02T22:11:22Z</time>
  <course>0.0</course>
  <speed>0.0</speed>
  <fix>3d</fix>
</trkpt>
<trkpt lat="33.8103131" lon="-118.3938671">
  <ele>-0.129</ele>
  <time>2026-09-02T22:11:22Z</time>
  <course>186.99</course>
  <speed>0.0282842712474619</speed>
  <fix>3d</fix>
</trkpt>
<trkpt lat="33.810313" lon="-118.393867">
  <ele>-0.12</ele>
  <time>2026-09-02T22:11:22Z</time>
  <course>0.0</course>
  <speed>0.0</speed>
  <fix>3d</fix>
</trkpt>
<trkpt lat="33.8103131" lon="-118.3938671">
  <ele>-0.128</ele>
  <time>2026-09-02T22:11:22Z</time>
  <course>186.99</course>
  <speed>0.03605551275463989</speed>
  <fix>3d</fix>
</trkpt>
<trkpt lat="33.810313" lon="-118.393867">
  <ele>-0.12</ele>
  <time>2026-09-02T22:11:22Z</time>
  <course>0.0</course>
  <speed>0.0</speed>
  <fix>3d</fix>
</trkpt>
<trkpt lat="33.8103131" lon="-118.3938671">
  <ele>-0.128</ele>
  <time>2026-09-02T22:11:22Z</time>
  <course>186.99</course>
  <speed>0.03605551275463989</speed>
  <fix>3d</fix>
</trkpt>
<trkpt lat="33.810313" lon="-118.393867">
  <ele>-0.12</ele>
  <time>2026-09-02T22:11:22Z</time>
  <course>0.0</course>
  <speed>0.0</speed>
  <fix>3d</fix>
</trkpt>
<trkpt lat="33.8103131" lon="-118.3938671">
  <ele>-0.128</ele>
  <time>2026-09-02T22:11:22Z</time>
  <course>186.98</course>
  <speed>0.03605551275463989</speed>
  <fix>3d</fix>
</trkpt>
<trkpt lat="33.810313" lon="-118.393867">
  <ele>-0.12</ele>
  <time>2026-09-02T22:11:22Z</time>
  <course>0.0</course>
  <speed>0.0</speed>
  <fix>3d</fix>
</trkpt>
<trkpt lat="33.8103131" lon="-118.3938671">
  <ele>-0.129</ele>
  <time>2026-09-02T22:11:22Z</time>
  <course>186.98</course>
  <speed>0.03605551275463989</speed>
  <fix>3d</fix>
</trkpt>
<trkpt lat="33.810313" lon="-118.393867">
  <ele>-0.12</ele>
  <time>2026-09-02T22:11:22Z</time>
  <course>0.0</course>
  <speed>0.0</speed>
  <fix>3d</fix>
</trkpt>
<trkpt lat="33.8103131" lon="-118.3938671">
  <ele>-0.132</ele>
  <time>2026-09-02T22:11:22Z</time>
  <course>186.97</course>
  <speed>0.03605551275463989</speed>
  <fix>3d</fix>
</trkpt>
<trkpt lat="33.810313" lon="-118.393867">
  <ele>-0.12</ele>
  <time>2026-09-02T22:11:22Z</time>
  <course>0.0</course>
  <speed>0.0</speed>
  <fix>3d</fix>
</trkpt>
<trkpt lat="33.8103131" lon="-118.3938671">
  <ele>-0.133</ele>
  <time>2026-09-02T22:11:22Z</time>
  <course>186.97</course>
  <speed>0.03605551275463989</speed>
  <fix>3d</fix>
</trkpt>
<trkpt lat="33.810313" lon="-118.393867">
  <ele>-0.12</ele>
  <time>2026-09-02T22:11:22Z</time>
  <course>0.0</course>
  <speed>0.0</speed>
  <fix>3d</fix>
</trkpt>
<trkpt lat="33.8103132" lon="-118.3938671">
  <ele>-0.134</ele>
  <time>2026-09-02T22:11:22Z</time>
  <course>186.96</course>
  <speed>0.03605551275463989</speed>
  <fix>3d</fix>
</trkpt>
<trkpt lat="33.810313" lon="-118.393867">
  <ele>-0.12</ele>
  <time>2026-09-02T22:11:22Z</time>
  <course>0.0</course>
  <speed>0.0</speed>
  <fix>3d</fix>
</trkpt>
<trkpt lat="33.8103132" lon="-118.3938671">
  <ele>-0.132</ele>
  <time>2026-09-02T22:11:22Z</time>
  <course>186.96</course>
  <speed>0.03605551275463989</speed>
  <fix>3d</fix>
</trkpt>
<trkpt lat="33.810313" lon="-118.393867">
  <ele>-0.12</ele>
  <time>2026-09-02T22:11:22Z</time>
  <course>0.0</course>
  <speed>0.0</speed>
  <fix>3d</fix>
</trkpt>
<trkpt lat="33.8103132" lon="-118.3938671">
  <ele>-0.131</ele>
  <time>2026-09-02T22:11:22Z</time>
  <course>186.96</course>
  <speed>0.03605551275463989</speed>
  <fix>3d</fix>
</trkpt>
<trkpt lat="33.810313" lon="-118.393867">
  <ele>-0.12</ele>
  <time>2026-09-02T22:11:22Z</time>
  <course>0.0</course>
  <speed>0.0</speed>
  <fix>3d</fix>
</trkpt>
<trkpt lat="33.8103132" lon="-118.3938671">
  <ele>-0.13</ele>
  <time>2026-09-02T22:11:22Z</time>
  <course>186.95</course>
  <speed>0.03605551275463989</speed>
  <fix>3d</fix>
</trkpt>
<trkpt lat="33.810313" lon="-118.393867">
  <ele>-0.12</ele>
  <time>2026-09-02T22:11:22Z</time>
  <course>0.0</course>
  <speed>0.0</speed>
  <fix>3d</fix>
</trkpt>
<trkpt lat="33.8103132" lon="-118.3938672">
  <ele>-0.129</ele>
  <time>2026-09-02T22:11:22Z</time>
  <course>186.95</course>
  <speed>0.03605551275463989</speed>
  <fix>3d</fix>
</trkpt>
<trkpt lat="33.810313" lon="-118.393867">
  <ele>-0.12</ele>
  <time>2026-09-02T22:11:22Z</time>
  <course>0.0</course>
  <speed>0.0</speed>
  <fix>3d</fix>
</trkpt>
<trkpt lat="33.8103132" lon="-118.3938672">
  <ele>-0.128</ele>
  <time>2026-09-02T22:11:22Z</time>
  <course>186.94</course>
  <speed>0.0282842712474619</speed>
  <fix>3d</fix>
</trkpt>
<trkpt lat="33.810313" lon="-118.393867">
  <ele>-0.12</ele>
  <time>2026-09-02T22:11:22Z</time>
  <course>0.0</course>
  <speed>0.0</speed>
  <fix>3d</fix>
</trkpt>
<trkpt lat="33.8103132" lon="-118.3938672">
  <ele>-0.128</ele>
  <time>2026-09-02T22:11:22Z</time>
  <course>186.94</course>
  <speed>0.0282842712474619</speed>
  <fix>3d</fix>
</trkpt>
<trkpt lat="33.810313" lon="-118.393867">
  <ele>-0.12</ele>
  <time>2026-09-02T22:11:22Z</time>
  <course>0.0</course>
  <speed>0.0</speed>
  <fix>3d</fix>
</trkpt>
<trkpt lat="33.8103132" lon="-118.3938672">
  <ele>-0.127</ele>
  <time>2026-09-02T22:11:22Z</time>
  <course>186.93</course>
  <speed>0.0282842712474619</speed>
  <fix>3d</fix>
</trkpt>
<trkpt lat="33.810313" lon="-118.393867">
  <ele>-0.12</ele>
  <time>2026-09-02T22:11:22Z</time>
  <course>0.0</course>
  <speed>0.0</speed>
  <fix>3d</fix>
</trkpt>
<trkpt lat="33.8103132" lon="-118.3938672">
  <ele>-0.128</ele>
  <time>2026-09-02T22:11:22Z</time>
  <course>186.93</course>
  <speed>0.0282842712474619</speed>
  <fix>3d</fix>
</trkpt>
<trkpt lat="33.810313" lon="-118.393867">
  <ele>-0.12</ele>
  <time>2026-09-02T22:11:22Z</time>
  <course>0.0</course>
  <speed>0.0</speed>
  <fix>3d</fix>
</trkpt>
<trkpt lat="33.8103132" lon="-118.3938672">
  <ele>-0.128</ele>
  <time>2026-09-02T22:11:22Z</time>
  <course>186.93</course>
  <speed>0.0282842712474619</speed>
  <fix>3d</fix>
</trkpt>
<trkpt lat="33.810313" lon="-118.393867">
  <ele>-0.12</ele>
  <time>2026-09-02T22:11:22Z</time>
  <course>0.0</course>
  <speed>0.0</speed>
  <fix>3d</fix>
</trkpt>
<trkpt lat="33.8103132" lon="-118.3938672">
  <ele>-0.127</ele>
  <time>2026-09-02T22:11:22Z</time>
  <course>186.92</course>
  <speed>0.0282842712474619</speed>
  <fix>3d</fix>
</trkpt>
<trkpt lat="33.810313" lon="-118.393867">
  <ele>-0.12</ele>
  <time>2026-09-02T22:11:22Z</time>
  <course>0.0</course>
  <speed>0.0</speed>
  <fix>3d</fix>
</trkpt>
<trkpt lat="33.8103132" lon="-118.3938671">
  <ele>-0.126</ele>
  <time>2026-09-02T22:11:22Z</time>
  <course>186.92</course>
  <speed>0.0282842712474619</speed>
  <fix>3d</fix>
</trkpt>
<trkpt lat="33.810313" lon="-118.393867">
  <ele>-0.12</ele>
  <time>2026-09-02T22:11:22Z</time>
  <course>0.0</course>
  <speed>0.0</speed>
  <fix>3d</fix>
</trkpt>
<trkpt lat="33.8103132" lon="-118.3938671">
  <ele>-0.125</ele>
  <time>2026-09-02T22:11:22Z</time>
  <course>186.92</course>
  <speed>0.0282842712474619</speed>
  <fix>3d</fix>
</trkpt>
<trkpt lat="33.810313" lon="-118.393867">
  <ele>-0.12</ele>
  <time>2026-09-02T22:11:22Z</time>
  <course>0.0</course>
  <speed>0.0</speed>
  <fix>3d</fix>
</trkpt>
<trkpt lat="33.8103132" lon="-118.3938671">
  <ele>-0.124</ele>
  <time>2026-09-02T22:11:22Z</time>
  <course>186.91</course>
  <speed>0.0282842712474619</speed>
  <fix>3d</fix>
</trkpt>
<trkpt lat="33.810313" lon="-118.393867">
  <ele>-0.12</ele>
  <time>2026-09-02T22:11:22Z</time>
  <course>0.0</course>
  <speed>0.0</speed>
  <fix>3d</fix>
</trkpt>
<trkpt lat="33.8103132" lon="-118.3938671">
  <ele>-0.122</ele>
  <time>2026-09-02T22:11:22Z</time>
  <course>186.91</course>
  <speed>0.0282842712474619</speed>
  <fix>3d</fix>
</trkpt>
<trkpt lat="33.810313" lon="-118.393867">
  <ele>-0.12</ele>
  <time>2026-09-02T22:11:22Z</time>
  <course>0.0</course>
  <speed>0.0</speed>
  <fix>3d</fix>
</trkpt>
<trkpt lat="33.8103132" lon="-118.3938671">
  <ele>-0.121</ele>
  <time>2026-09-02T22:11:22Z</time>
  <course>186.91</course>
  <speed>0.0282842712474619</speed>
  <fix>3d</fix>
</trkpt>
<trkpt lat="33.810313" lon="-118.393867">
  <ele>-0.12</ele>
  <time>2026-09-02T22:11:22Z</time>
  <course>0.0</course>
  <speed>0.0</speed>
  <fix>3d</fix>
</trkpt>
<trkpt lat="33.8103132" lon="-118.3938671">
  <ele>-0.12</ele>
  <time>2026-09-02T22:11:22Z</time>
  <course>186.9</course>
  <speed>0.0282842712474619</speed>
  <fix>3d</fix>
</trkpt>
<trkpt lat="33.810313" lon="-118.393867">
  <ele>-0.12</ele>
  <time>2026-09-02T22:11:22Z</time>
  <course>0.0</course>
  <speed>0.0</speed>
  <fix>3d</fix>
</trkpt>
<trkpt lat="33.8103132" lon="-118.3938671">
  <ele>-0.119</ele>
  <time>2026-09-02T22:11:22Z</time>
  <course>186.9</course>
  <speed>0.022360679774997897</speed>
  <fix>3d</fix>
</trkpt>
<trkpt lat="33.810313" lon="-118.393867">
  <ele>-0.12</ele>
  <time>2026-09-02T22:11:22Z</time>
  <course>0.0</course>
  <speed>0.0</speed>
  <fix>3d</fix>
</trkpt>
<trkpt lat="33.8103132" lon="-118.3938671">
  <ele>-0.118</ele>
  <time>2026-09-02T22:11:22Z</time>
  <course>186.89</course>
  <speed>0.022360679774997897</speed>
  <fix>3d</fix>
</trkpt>
<trkpt lat="33.810313" lon="-118.393867">
  <ele>-0.12</ele>
  <time>2026-09-02T22:11:22Z</time>
  <course>0.0</course>
  <speed>0.0</speed>
  <fix>3d</fix>
</trkpt>
<trkpt lat="33.8103131" lon="-118.3938671">
  <ele>-0.119</ele>
  <time>2026-09-02T22:11:22Z</time>
  <course>186.88</course>
  <speed>0.022360679774997897</speed>
  <fix>3d</fix>
</trkpt>
<trkpt lat="33.810313" lon="-118.393867">
  <ele>-0.12</ele>
  <time>2026-09-02T22:11:22Z</time>
  <course>0.0</course>
  <speed>0.0</speed>
  <fix>3d</fix>
</trkpt>
<trkpt lat="33.8103131" lon="-118.3938671">
  <ele>-0.121</ele>
  <time>2026-09-02T22:11:22Z</time>
  <course>186.87</course>
  <speed>0.022360679774997897</speed>
  <fix>3d</fix>
</trkpt>
<trkpt lat="33.810313" lon="-118.393867">
  <ele>-0.12</ele>
  <time>2026-09-02T22:11:22Z</time>
  <course>0.0</course>
  <speed>0.0</speed>
  <fix>3d</fix>
</trkpt>
<trkpt lat="33.8103131" lon="-118.3938671">
  <ele>-0.124</ele>
  <time>2026-09-02T22:11:22Z</time>
  <course>186.87</course>
  <speed>0.022360679774997897</speed>
  <fix>3d</fix>
</trkpt>
<trkpt lat="33.810313" lon="-118.393867">
  <ele>-0.12</ele>
  <time>2026-09-02T22:11:22Z</time>
  <course>0.0</course>
  <speed>0.0</speed>
  <fix>3d</fix>
</trkpt>
<trkpt lat="33.8103131" lon="-118.3938671">
  <ele>-0.126</ele>
  <time>2026-09-02T22:11:22Z</time>
  <course>186.87</course>
  <speed>0.022360679774997897</speed>
  <fix>3d</fix>
</trkpt>
<trkpt lat="33.810313" lon="-118.393867">
  <ele>-0.12</ele>
  <time>2026-09-02T22:11:22Z</time>
  <course>0.0</course>
  <speed>0.0</speed>
  <fix>3d</fix>
</trkpt>
<trkpt lat="33.8103131" lon="-118.3938671">
  <ele>-0.131</ele>
  <time>2026-09-02T22:11:22Z</time>
  <course>186.86</course>
  <speed>0.022360679774997897</speed>
  <fix>3d</fix>
</trkpt>
<trkpt lat="33.810313" lon="-118.393867">
  <ele>-0.12</ele>
  <time>2026-09-02T22:11:22Z</time>
  <course>0.0</course>
  <speed>0.0</speed>
  <fix>3d</fix>
</trkpt>
<trkpt lat="33.8103131" lon="-118.3938671">
  <ele>-0.133</ele>
  <time>2026-09-02T22:11:22Z</time>
  <course>186.86</course>
  <speed>0.022360679774997897</speed>
  <fix>3d</fix>
</trkpt>
<trkpt lat="33.810313" lon="-118.393867">
  <ele>-0.12</ele>
  <time>2026-09-02T22:11:22Z</time>
  <course>0.0</course>
  <speed>0.0</speed>
  <fix>3d</fix>
</trkpt>
<trkpt lat="33.8103131" lon="-118.3938671">
  <ele>-0.133</ele>
  <time>2026-09-02T22:11:22Z</time>
  <course>186.85</course>
  <speed>0.022360679774997897</speed>
  <fix>3d</fix>
</trkpt>
<trkpt lat="33.810313" lon="-118.393867">
  <ele>-0.12</ele>
  <time>2026-09-02T22:11:22Z</time>
  <course>0.0</course>
  <speed>0.0</speed>
  <fix>3d</fix>
</trkpt>
<trkpt lat="33.8103131" lon="-118.3938671">
  <ele>-0.132</ele>
  <time>2026-09-02T22:11:22Z</time>
  <course>186.85</course>
  <speed>0.022360679774997897</speed>
  <fix>3d</fix>
</trkpt>
<trkpt lat="33.810313" lon="-118.393867">
  <ele>-0.12</ele>
  <time>2026-09-02T22:11:22Z</time>
  <course>0.0</course>
  <speed>0.0</speed>
  <fix>3d</fix>
</trkpt>
<trkpt lat="33.8103131" lon="-118.3938671">
  <ele>-0.131</ele>
  <time>2026-09-02T22:11:22Z</time>
  <course>186.85</course>
  <speed>0.022360679774997897</speed>
  <fix>3d</fix>
</trkpt>
<trkpt lat="33.810313" lon="-118.393867">
  <ele>-0.12</ele>
  <time>2026-09-02T22:11:22Z</time>
  <course>0.0</course>
  <speed>0.0</speed>
  <fix>3d</fix>
</trkpt>
<trkpt lat="33.8103131" lon="-118.3938671">
  <ele>-0.129</ele>
  <time>2026-09-02T22:11:22Z</time>
  <course>186.84</course>
  <speed>0.022360679774997897</speed>
  <fix>3d</fix>
</trkpt>
<trkpt lat="33.810313" lon="-118.393867">
  <ele>-0.12</ele>
  <time>2026-09-02T22:11:22Z</time>
  <course>0.0</course>
  <speed>0.0</speed>
  <fix>3d</fix>
</trkpt>
<trkpt lat="33.8103131" lon="-118.3938671">
  <ele>-0.128</ele>
  <time>2026-09-02T22:11:22Z</time>
  <course>186.84</course>
  <speed>0.022360679774997897</speed>
  <fix>3d</fix>
</trkpt>
<trkpt lat="33.810313" lon="-118.393867">
  <ele>-0.12</ele>
  <time>2026-09-02T22:11:22Z</time>
  <course>0.0</course>
  <speed>0.0</speed>
  <fix>3d</fix>
</trkpt>
<trkpt lat="33.8103131" lon="-118.3938671">
  <ele>-0.128</ele>
  <time>2026-09-02T22:11:22Z</time>
  <course>186.84</course>
  <speed>0.022360679774997897</speed>
  <fix>3d</fix>
</trkpt>
<trkpt lat="33.810313" lon="-118.393867">
  <ele>-0.12</ele>
  <time>2026-09-02T22:11:22Z</time>
  <course>0.0</course>
  <speed>0.0</speed>
  <fix>3d</fix>
</trkpt>
<trkpt lat="33.8103131" lon="-118.3938671">
  <ele>-0.128</ele>
  <time>2026-09-02T22:11:22Z</time>
  <course>186.83</course>
  <speed>0.022360679774997897</speed>
  <fix>3d</fix>
</trkpt>
<trkpt lat="33.810313" lon="-118.393867">
  <ele>-0.12</ele>
  <time>2026-09-02T22:11:22Z</time>
  <course>0.0</course>
  <speed>0.0</speed>
  <fix>3d</fix>
</trkpt>
<trkpt lat="33.8103131" lon="-118.3938671">
  <ele>-0.128</ele>
  <time>2026-09-02T22:11:22Z</time>
  <course>186.83</course>
  <speed>0.022360679774997897</speed>
  <fix>3d</fix>
</trkpt>
<trkpt lat="33.810313" lon="-118.393867">
  <ele>-0.12</ele>
  <time>2026-09-02T22:11:22Z</time>
  <course>0.0</course>
  <speed>0.0</speed>
  <fix>3d</fix>
</trkpt>
<trkpt lat="33.8103131" lon="-118.3938671">
  <ele>-0.127</ele>
  <time>2026-09-02T22:11:22Z</time>
  <course>186.83</course>
  <speed>0.022360679774997897</speed>
  <fix>3d</fix>
</trkpt>
<trkpt lat="33.810313" lon="-118.393867">
  <ele>-0.12</ele>
  <time>2026-09-02T22:11:22Z</time>
  <course>0.0</course>
  <speed>0.0</speed>
  <fix>3d</fix>
</trkpt>
<trkpt lat="33.8103131" lon="-118.3938671">
  <ele>-0.126</ele>
  <time>2026-09-02T22:11:22Z</time>
  <course>186.82</course>
  <speed>0.022360679774997897</speed>
  <fix>3d</fix>
</trkpt>
<trkpt lat="33.810313" lon="-118.393867">
  <ele>-0.12</ele>
  <time>2026-09-02T22:11:22Z</time>
  <course>0.0</course>
  <speed>0.0</speed>
  <fix>3d</fix>
</trkpt>
<trkpt lat="33.8103131" lon="-118.3938671">
  <ele>-0.125</ele>
  <time>2026-09-02T22:11:22Z</time>
  <course>186.82</course>
  <speed>0.022360679774997897</speed>
  <fix>3d</fix>
</trkpt>
<trkpt lat="33.810313" lon="-118.393867">
  <ele>-0.12</ele>
  <time>2026-09-02T22:11:22Z</time>
  <course>0.0</course>
  <speed>0.0</speed>
  <fix>3d</fix>
</trkpt>
<trkpt lat="33.8103131" lon="-118.3938671">
  <ele>-0.124</ele>
  <time>2026-09-02T22:11:22Z</time>
  <course>186.82</course>
  <speed>0.022360679774997897</speed>
  <fix>3d</fix>
</trkpt>
<trkpt lat="33.810313" lon="-118.393867">
  <ele>-0.12</ele>
  <time>2026-09-02T22:11:22Z</time>
  <course>0.0</course>
  <speed>0.0</speed>
  <fix>3d</fix>
</trkpt>
<trkpt lat="33.8103131" lon="-118.3938671">
  <ele>-0.123</ele>
  <time>2026-09-02T22:11:22Z</time>
  <course>186.81</course>
  <speed>0.022360679774997897</speed>
  <fix>3d</fix>
</trkpt>
<trkpt lat="33.810313" lon="-118.393867">
  <ele>-0.12</ele>
  <time>2026-09-02T22:11:22Z</time>
  <course>0.0</course>
  <speed>0.0</speed>
  <fix>3d</fix>
</trkpt>
<trkpt lat="33.8103131" lon="-118.3938671">
  <ele>-0.122</ele>
  <time>2026-09-02T22:11:22Z</time>
  <course>186.81</course>
  <speed>0.022360679774997897</speed>
  <fix>3d</fix>
</trkpt>
<trkpt lat="33.810313" lon="-118.393867">
  <ele>-0.12</ele>
  <time>2026-09-02T22:11:22Z</time>
  <course>0.0</course>
  <speed>0.0</speed>
  <fix>3d</fix>
</trkpt>
<trkpt lat="33.8103131" lon="-118.3938671">
  <ele>-0.122</ele>
  <time>2026-09-02T22:11:22Z</time>
  <course>186.81</course>
  <speed>0.022360679774997897</speed>
  <fix>3d</fix>
</trkpt>
<trkpt lat="33.810313" lon="-118.393867">
  <ele>-0.12</ele>
  <time>2026-09-02T22:11:22Z</time>
  <course>0.0</course>
  <speed>0.0</speed>
  <fix>3d</fix>
</trkpt>
<trkpt lat="33.8103131" lon="-118.3938671">
  <ele>-0.122</ele>
  <time>2026-09-02T22:11:22Z</time>
  <course>186.81</course>
  <speed>0.022360679774997897</speed>
  <fix>3d</fix>
</trkpt>
<trkpt lat="33.810313" lon="-118.393867">
  <ele>-0.12</ele>
  <time>2026-09-02T22:11:22Z</time>
  <course>0.0</course>
  <speed>0.0</speed>
  <fix>3d</fix>
</trkpt>
<trkpt lat="33.8103131" lon="-118.3938671">
  <ele>-0.121</ele>
  <time>2026-09-02T22:11:22Z</time>
  <course>186.8</course>
  <speed>0.022360679774997897</speed>
  <fix>3d</fix>
</trkpt>
<trkpt lat="33.810313" lon="-118.393867">
  <ele>-0.12</ele>
  <time>2026-09-02T22:11:22Z</time>
  <course>0.0</course>
  <speed>0.0</speed>
  <fix>3d</fix>
</trkpt>
<trkpt lat="33.8103131" lon="-118.3938671">
  <ele>-0.122</ele>
  <time>2026-09-02T22:11:22Z</time>
  <course>186.8</course>
  <speed>0.022360679774997897</speed>
  <fix>3d</fix>
</trkpt>
<trkpt lat="33.810313" lon="-118.393867">
  <ele>-0.12</ele>
  <time>2026-09-02T22:11:22Z</time>
  <course>0.0</course>
  <speed>0.0</speed>
  <fix>3d</fix>
</trkpt>
<trkpt lat="33.8103131" lon="-118.3938671">
  <ele>-0.122</ele>
  <time>2026-09-02T22:11:22Z</time>
  <course>186.8</course>
  <speed>0.022360679774997897</speed>
  <fix>3d</fix>
</trkpt>
<trkpt lat="33.810313" lon="-118.393867">
  <ele>-0.12</ele>
  <time>2026-09-02T22:11:22Z</time>
  <course>0.0</course>
  <speed>0.0</speed>
  <fix>3d</fix>
</trkpt>
<trkpt lat="33.8103131" lon="-118.3938671">
  <ele>-0.122</ele>
  <time>2026-09-02T22:11:22Z</time>
  <course>186.79</course>
  <speed>0.022360679774997897</speed>
  <fix>3d</fix>
</trkpt>
<trkpt lat="33.810313" lon="-118.393867">
  <ele>-0.12</ele>
  <time>2026-09-02T22:11:22Z</time>
  <course>0.0</course>
  <speed>0.0</speed>
  <fix>3d</fix>
</trkpt>
<trkpt lat="33.8103131" lon="-118.3938671">
  <ele>-0.122</ele>
  <time>2026-09-02T22:11:22Z</time>
  <course>186.79</course>
  <speed>0.022360679774997897</speed>
  <fix>3d</fix>
</trkpt>
<trkpt lat="33.810313" lon="-118.393867">
  <ele>-0.12</ele>
  <time>2026-09-02T22:11:22Z</time>
  <course>0.0</course>
  <speed>0.0</speed>
  <fix>3d</fix>
</trkpt>
<trkpt lat="33.8103131" lon="-118.3938671">
  <ele>-0.122</ele>
  <time>2026-09-02T22:11:22Z</time>
  <course>186.79</course>
  <speed>0.022360679774997897</speed>
  <fix>3d</fix>
</trkpt>
<trkpt lat="33.810313" lon="-118.393867">
  <ele>-0.12</ele>
  <time>2026-09-02T22:11:22Z</time>
  <course>0.0</course>
  <speed>0.0</speed>
  <fix>3d</fix>
</trkpt>
<trkpt lat="33.8103131" lon="-118.3938671">
  <ele>-0.121</ele>
  <time>2026-09-02T22:11:22Z</time>
  <course>186.78</course>
  <speed>0.022360679774997897</speed>
  <fix>3d</fix>
</trkpt>
<trkpt lat="33.810313" lon="-118.393867">
  <ele>-0.12</ele>
  <time>2026-09-02T22:11:22Z</time>
  <course>0.0</course>
  <speed>0.0</speed>
  <fix>3d</fix>
</trkpt>
<trkpt lat="33.8103131" lon="-118.3938671">
  <ele>-0.12</ele>
  <time>2026-09-02T22:11:22Z</time>
  <course>186.78</course>
  <speed>0.022360679774997897</speed>
  <fix>3d</fix>
</trkpt>
<trkpt lat="33.810313" lon="-118.393867">
  <ele>-0.12</ele>
  <time>2026-09-02T22:11:22Z</time>
  <course>0.0</course>
  <speed>0.0</speed>
  <fix>3d</fix>
</trkpt>
<trkpt lat="33.8103131" lon="-118.3938671">
  <ele>-0.12</ele>
  <time>2026-09-02T22:11:22Z</time>
  <course>186.78</course>
  <speed>0.022360679774997897</speed>
  <fix>3d</fix>
</trkpt>
<trkpt lat="33.810313" lon="-118.393867">
  <ele>-0.12</ele>
  <time>2026-09-02T22:11:22Z</time>
  <course>0.0</course>
  <speed>0.0</speed>
  <fix>3d</fix>
</trkpt>
<trkpt lat="33.8103131" lon="-118.3938671">
  <ele>-0.12</ele>
  <time>2026-09-02T22:11:22Z</time>
  <course>186.78</course>
  <speed>0.022360679774997897</speed>
  <fix>3d</fix>
</trkpt>
<trkpt lat="33.810313" lon="-118.393867">
  <ele>-0.12</ele>
  <time>2026-09-02T22:11:22Z</time>
  <course>0.0</course>
  <speed>0.0</speed>
  <fix>3d</fix>
</trkpt>
<trkpt lat="33.8103131" lon="-118.3938671">
  <ele>-0.122</ele>
  <time>2026-09-02T22:11:22Z</time>
  <course>186.77</course>
  <speed>0.022360679774997897</speed>
  <fix>3d</fix>
</trkpt>
<trkpt lat="33.810313" lon="-118.393867">
  <ele>-0.12</ele>
  <time>2026-09-02T22:11:22Z</time>
  <course>0.0</course>
  <speed>0.0</speed>
  <fix>3d</fix>
</trkpt>
<trkpt lat="33.8103131" lon="-118.3938671">
  <ele>-0.125</ele>
  <time>2026-09-02T22:11:22Z</time>
  <course>186.77</course>
  <speed>0.022360679774997897</speed>
  <fix>3d</fix>
</trkpt>
<trkpt lat="33.810313" lon="-118.393867">
  <ele>-0.12</ele>
  <time>2026-09-02T22:11:22Z</time>
  <course>0.0</course>
  <speed>0.0</speed>
  <fix>3d</fix>
</trkpt>
<trkpt lat="33.8103131" lon="-118.3938671">
  <ele>-0.128</ele>
  <time>2026-09-02T22:11:22Z</time>
  <course>186.77</course>
  <speed>0.022360679774997897</speed>
  <fix>3d</fix>
</trkpt>
<trkpt lat="33.810313" lon="-118.393867">
  <ele>-0.12</ele>
  <time>2026-09-02T22:11:22Z</time>
  <course>0.0</course>
  <speed>0.0</speed>
  <fix>3d</fix>
</trkpt>
<trkpt lat="33.8103131" lon="-118.3938671">
  <ele>-0.13</ele>
  <time>2026-09-02T22:11:22Z</time>
  <course>186.77</course>
  <speed>0.022360679774997897</speed>
  <fix>3d</fix>
</trkpt>
<trkpt lat="33.810313" lon="-118.393867">
  <ele>-0.12</ele>
  <time>2026-09-02T22:11:22Z</time>
  <course>0.0</course>
  <speed>0.0</speed>
  <fix>3d</fix>
</trkpt>
<trkpt lat="33.8103131" lon="-118.3938671">
  <ele>-0.13</ele>
  <time>2026-09-02T22:11:22Z</time>
  <course>186.76</course>
  <speed>0.022360679774997897</speed>
  <fix>3d</fix>
</trkpt>
<trkpt lat="33.810313" lon="-118.393867">
  <ele>-0.12</ele>
  <time>2026-09-02T22:11:22Z</time>
  <course>0.0</course>
  <speed>0.0</speed>
  <fix>3d</fix>
</trkpt>
<trkpt lat="33.8103131" lon="-118.3938671">
  <ele>-0.129</ele>
  <time>2026-09-02T22:11:22Z</time>
  <course>186.76</course>
  <speed>0.022360679774997897</speed>
  <fix>3d</fix>
</trkpt>
<trkpt lat="33.810313" lon="-118.393867">
  <ele>-0.12</ele>
  <time>2026-09-02T22:11:22Z</time>
  <course>0.0</course>
  <speed>0.0</speed>
  <fix>3d</fix>
</trkpt>
<trkpt lat="33.8103131" lon="-118.3938671">
  <ele>-0.127</ele>
  <time>2026-09-02T22:11:22Z</time>
  <course>186.76</course>
  <speed>0.022360679774997897</speed>
  <fix>3d</fix>
</trkpt>
<trkpt lat="33.810313" lon="-118.393867">
  <ele>-0.12</ele>
  <time>2026-09-02T22:11:22Z</time>
  <course>0.0</course>
  <speed>0.0</speed>
  <fix>3d</fix>
</trkpt>
<trkpt lat="33.8103131" lon="-118.3938671">
  <ele>-0.125</ele>
  <time>2026-09-02T22:11:22Z</time>
  <course>186.75</course>
  <speed>0.022360679774997897</speed>
  <fix>3d</fix>
</trkpt>
<trkpt lat="33.810313" lon="-118.393867">
  <ele>-0.12</ele>
  <time>2026-09-02T22:11:22Z</time>
  <course>0.0</course>
  <speed>0.0</speed>
  <fix>3d</fix>
</trkpt>
<trkpt lat="33.8103131" lon="-118.3938671">
  <ele>-0.124</ele>
  <time>2026-09-02T22:11:22Z</time>
  <course>186.75</course>
  <speed>0.022360679774997897</speed>
  <fix>3d</fix>
</trkpt>
<trkpt lat="33.810313" lon="-118.393867">
  <ele>-0.12</ele>
  <time>2026-09-02T22:11:22Z</time>
  <course>0.0</course>
  <speed>0.0</speed>
  <fix>3d</fix>
</trkpt>
<trkpt lat="33.8103131" lon="-118.3938671">
  <ele>-0.124</ele>
  <time>2026-09-02T22:11:22Z</time>
  <course>186.75</course>
  <speed>0.022360679774997897</speed>
  <fix>3d</fix>
</trkpt>
<trkpt lat="33.810313" lon="-118.393867">
  <ele>-0.12</ele>
  <time>2026-09-02T22:11:22Z</time>
  <course>0.0</course>
  <speed>0.0</speed>
  <fix>3d</fix>
</trkpt>
<trkpt lat="33.8103131" lon="-118.3938671">
  <ele>-0.123</ele>
  <time>2026-09-02T22:11:22Z</time>
  <course>186.75</course>
  <speed>0.022360679774997897</speed>
  <fix>3d</fix>
</trkpt>
<trkpt lat="33.810313" lon="-118.393867">
  <ele>-0.12</ele>
  <time>2026-09-02T22:11:22Z</time>
  <course>0.0</course>
  <speed>0.0</speed>
  <fix>3d</fix>
</trkpt>
<trkpt lat="33.8103131" lon="-118.3938671">
  <ele>-0.122</ele>
  <time>2026-09-02T22:11:22Z</time>
  <course>186.74</course>
  <speed>0.022360679774997897</speed>
  <fix>3d</fix>
</trkpt>
<trkpt lat="33.810313" lon="-118.393867">
  <ele>-0.12</ele>
  <time>2026-09-02T22:11:22Z</time>
  <course>0.0</course>
  <speed>0.0</speed>
  <fix>3d</fix>
</trkpt>
<trkpt lat="33.8103131" lon="-118.3938671">
  <ele>-0.122</ele>
  <time>2026-09-02T22:11:22Z</time>
  <course>186.74</course>
  <speed>0.022360679774997897</speed>
  <fix>3d</fix>
</trkpt>
<trkpt lat="33.810313" lon="-118.393867">
  <ele>-0.12</ele>
  <time>2026-09-02T22:11:22Z</time>
  <course>0.0</course>
  <speed>0.0</speed>
  <fix>3d</fix>
</trkpt>
<trkpt lat="33.8103131" lon="-118.3938671">
  <ele>-0.122</ele>
  <time>2026-09-02T22:11:22Z</time>
  <course>186.74</course>
  <speed>0.022360679774997897</speed>
  <fix>3d</fix>
</trkpt>
<trkpt lat="33.810313" lon="-118.393867">
  <ele>-0.12</ele>
  <time>2026-09-02T22:11:22Z</time>
  <course>0.0</course>
  <speed>0.0</speed>
  <fix>3d</fix>
</trkpt>
<trkpt lat="33.8103131" lon="-118.3938671">
  <ele>-0.122</ele>
  <time>2026-09-02T22:11:22Z</time>
  <course>186.74</course>
  <speed>0.022360679774997897</speed>
  <fix>3d</fix>
</trkpt>
<trkpt lat="33.810313" lon="-118.393867">
  <ele>-0.12</ele>
  <time>2026-09-02T22:11:22Z</time>
  <course>0.0</course>
  <speed>0.0</speed>
  <fix>3d</fix>
</trkpt>
<trkpt lat="33.8103131" lon="-118.3938671">
  <ele>-0.121</ele>
  <time>2026-09-02T22:11:23Z</time>
  <course>186.73</course>
  <speed>0.022360679774997897</speed>
  <fix>3d</fix>
</trkpt>
<trkpt lat="33.810313" lon="-118.393867">
  <ele>-0.12</ele>
  <time>2026-09-02T22:11:23Z</time>
  <course>0.0</course>
  <speed>0.0</speed>
  <fix>3d</fix>
</trkpt>
<trkpt lat="33.8103131" lon="-118.3938671">
  <ele>-0.12</ele>
  <time>2026-09-02T22:11:23Z</time>
  <course>186.73</course>
  <speed>0.022360679774997897</speed>
  <fix>3d</fix>
</trkpt>
<trkpt lat="33.810313" lon="-118.393867">
  <ele>-0.12</ele>
  <time>2026-09-02T22:11:23Z</time>
  <course>0.0</course>
  <speed>0.0</speed>
  <fix>3d</fix>
</trkpt>
<trkpt lat="33.8103131" lon="-118.3938671">
  <ele>-0.12</ele>
  <time>2026-09-02T22:11:23Z</time>
  <course>186.73</course>
  <speed>0.022360679774997897</speed>
  <fix>3d</fix>
</trkpt>
<trkpt lat="33.810313" lon="-118.393867">
  <ele>-0.12</ele>
  <time>2026-09-02T22:11:23Z</time>
  <course>0.0</course>
  <speed>0.0</speed>
  <fix>3d</fix>
</trkpt>
<trkpt lat="33.8103131" lon="-118.3938671">
  <ele>-0.12</ele>
  <time>2026-09-02T22:11:23Z</time>
  <course>186.72</course>
  <speed>0.022360679774997897</speed>
  <fix>3d</fix>
</trkpt>
<trkpt lat="33.810313" lon="-118.393867">
  <ele>-0.12</ele>
  <time>2026-09-02T22:11:23Z</time>
  <course>0.0</course>
  <speed>0.0</speed>
  <fix>3d</fix>
</trkpt>
<trkpt lat="33.8103131" lon="-118.3938671">
  <ele>-0.121</ele>
  <time>2026-09-02T22:11:23Z</time>
  <course>186.72</course>
  <speed>0.022360679774997897</speed>
  <fix>3d</fix>
</trkpt>
<trkpt lat="33.810313" lon="-118.393867">
  <ele>-0.12</ele>
  <time>2026-09-02T22:11:23Z</time>
  <course>0.0</course>
  <speed>0.0</speed>
  <fix>3d</fix>
</trkpt>
<trkpt lat="33.8103131" lon="-118.3938671">
  <ele>-0.123</ele>
  <time>2026-09-02T22:11:23Z</time>
  <course>186.72</course>
  <speed>0.022360679774997897</speed>
  <fix>3d</fix>
</trkpt>
<trkpt lat="33.810313" lon="-118.393867">
  <ele>-0.12</ele>
  <time>2026-09-02T22:11:23Z</time>
  <course>0.0</course>
  <speed>0.0</speed>
  <fix>3d</fix>
</trkpt>
<trkpt lat="33.8103131" lon="-118.3938671">
  <ele>-0.125</ele>
  <time>2026-09-02T22:11:23Z</time>
  <course>186.72</course>
  <speed>0.022360679774997897</speed>
  <fix>3d</fix>
</trkpt>
<trkpt lat="33.810313" lon="-118.393867">
  <ele>-0.12</ele>
  <time>2026-09-02T22:11:23Z</time>
  <course>0.0</course>
  <speed>0.0</speed>
  <fix>3d</fix>
</trkpt>
<trkpt lat="33.8103131" lon="-118.3938671">
  <ele>-0.127</ele>
  <time>2026-09-02T22:11:23Z</time>
  <course>186.71</course>
  <speed>0.022360679774997897</speed>
  <fix>3d</fix>
</trkpt>
<trkpt lat="33.810313" lon="-118.393867">
  <ele>-0.12</ele>
  <time>2026-09-02T22:11:23Z</time>
  <course>0.0</course>
  <speed>0.0</speed>
  <fix>3d</fix>
</trkpt>
<trkpt lat="33.8103131" lon="-118.3938671">
  <ele>-0.125</ele>
  <time>2026-09-02T22:11:23Z</time>
  <course>186.7</course>
  <speed>0.022360679774997897</speed>
  <fix>3d</fix>
</trkpt>
<trkpt lat="33.810313" lon="-118.393867">
  <ele>-0.12</ele>
  <time>2026-09-02T22:11:23Z</time>
  <course>0.0</course>
  <speed>0.0</speed>
  <fix>3d</fix>
</trkpt>
<trkpt lat="33.8103131" lon="-118.3938671">
  <ele>-0.126</ele>
  <time>2026-09-02T22:11:23Z</time>
  <course>186.7</course>
  <speed>0.022360679774997897</speed>
  <fix>3d</fix>
</trkpt>
<trkpt lat="33.810313" lon="-118.393867">
  <ele>-0.12</ele>
  <time>2026-09-02T22:11:23Z</time>
  <course>0.0</course>
  <speed>0.0</speed>
  <fix>3d</fix>
</trkpt>
<trkpt lat="33.8103131" lon="-118.3938671">
  <ele>-0.131</ele>
  <time>2026-09-02T22:11:23Z</time>
  <course>186.69</course>
  <speed>0.022360679774997897</speed>
  <fix>3d</fix>
</trkpt>
<trkpt lat="33.810313" lon="-118.393867">
  <ele>-0.12</ele>
  <time>2026-09-02T22:11:23Z</time>
  <course>0.0</course>
  <speed>0.0</speed>
  <fix>3d</fix>
</trkpt>
<trkpt lat="33.8103131" lon="-118.3938671">
  <ele>-0.133</ele>
  <time>2026-09-02T22:11:23Z</time>
  <course>186.69</course>
  <speed>0.022360679774997897</speed>
  <fix>3d</fix>
</trkpt>
<trkpt lat="33.810313" lon="-118.393867">
  <ele>-0.12</ele>
  <time>2026-09-02T22:11:23Z</time>
  <course>0.0</course>
  <speed>0.0</speed>
  <fix>3d</fix>
</trkpt>
<trkpt lat="33.8103131" lon="-118.3938671">
  <ele>-0.133</ele>
  <time>2026-09-02T22:11:23Z</time>
  <course>186.69</course>
  <speed>0.022360679774997897</speed>
  <fix>3d</fix>
</trkpt>
<trkpt lat="33.810313" lon="-118.393867">
  <ele>-0.12</ele>
  <time>2026-09-02T22:11:23Z</time>
  <course>0.0</course>
  <speed>0.0</speed>
  <fix>3d</fix>
</trkpt>
<trkpt lat="33.8103131" lon="-118.3938671">
  <ele>-0.132</ele>
  <time>2026-09-02T22:11:23Z</time>
  <course>186.68</course>
  <speed>0.022360679774997897</speed>
  <fix>3d</fix>
</trkpt>
<trkpt lat="33.810313" lon="-118.393867">
  <ele>-0.12</ele>
  <time>2026-09-02T22:11:23Z</time>
  <course>0.0</course>
  <speed>0.0</speed>
  <fix>3d</fix>
</trkpt>
<trkpt lat="33.8103131" lon="-118.3938671">
  <ele>-0.132</ele>
  <time>2026-09-02T22:11:23Z</time>
  <course>186.68</course>
  <speed>0.022360679774997897</speed>
  <fix>3d</fix>
</trkpt>
<trkpt lat="33.810313" lon="-118.393867">
  <ele>-0.12</ele>
  <time>2026-09-02T22:11:23Z</time>
  <course>0.0</course>
  <speed>0.0</speed>
  <fix>3d</fix>
</trkpt>
<trkpt lat="33.8103131" lon="-118.3938671">
  <ele>-0.131</ele>
  <time>2026-09-02T22:11:23Z</time>
  <course>186.68</course>
  <speed>0.022360679774997897</speed>
  <fix>3d</fix>
</trkpt>
<trkpt lat="33.810313" lon="-118.393867">
  <ele>-0.12</ele>
  <time>2026-09-02T22:11:23Z</time>
  <course>0.0</course>
  <speed>0.0</speed>
  <fix>3d</fix>
</trkpt>
<trkpt lat="33.8103131" lon="-118.3938671">
  <ele>-0.13</ele>
  <time>2026-09-02T22:11:23Z</time>
  <course>186.68</course>
  <speed>0.022360679774997897</speed>
  <fix>3d</fix>
</trkpt>
<trkpt lat="33.810313" lon="-118.393867">
  <ele>-0.12</ele>
  <time>2026-09-02T22:11:23Z</time>
  <course>0.0</course>
  <speed>0.0</speed>
  <fix>3d</fix>
</trkpt>
<trkpt lat="33.8103131" lon="-118.3938671">
  <ele>-0.13</ele>
  <time>2026-09-02T22:11:23Z</time>
  <course>186.67</course>
  <speed>0.022360679774997897</speed>
  <fix>3d</fix>
</trkpt>
<trkpt lat="33.810313" lon="-118.393867">
  <ele>-0.12</ele>
  <time>2026-09-02T22:11:23Z</time>
  <course>0.0</course>
  <speed>0.0</speed>
  <fix>3d</fix>
</trkpt>
<trkpt lat="33.8103131" lon="-118.3938671">
  <ele>-0.13</ele>
  <time>2026-09-02T22:11:23Z</time>
  <course>186.67</course>
  <speed>0.022360679774997897</speed>
  <fix>3d</fix>
</trkpt>
<trkpt lat="33.810313" lon="-118.393867">
  <ele>-0.12</ele>
  <time>2026-09-02T22:11:23Z</time>
  <course>0.0</course>
  <speed>0.0</speed>
  <fix>3d</fix>
</trkpt>
<trkpt lat="33.8103131" lon="-118.3938671">
  <ele>-0.129</ele>
  <time>2026-09-02T22:11:23Z</time>
  <course>186.67</course>
  <speed>0.022360679774997897</speed>
  <fix>3d</fix>
</trkpt>
<trkpt lat="33.810313" lon="-118.393867">
  <ele>-0.12</ele>
  <time>2026-09-02T22:11:23Z</time>
  <course>0.0</course>
  <speed>0.0</speed>
  <fix>3d</fix>
</trkpt>
<trkpt lat="33.8103131" lon="-118.3938671">
  <ele>-0.13</ele>
  <time>2026-09-02T22:11:23Z</time>
  <course>186.67</course>
  <speed>0.022360679774997897</speed>
  <fix>3d</fix>
</trkpt>
<trkpt lat="33.810313" lon="-118.393867">
  <ele>-0.12</ele>
  <time>2026-09-02T22:11:23Z</time>
  <course>0.0</course>
  <speed>0.0</speed>
  <fix>3d</fix>
</trkpt>
<trkpt lat="33.8103131" lon="-118.3938671">
  <ele>-0.13</ele>
  <time>2026-09-02T22:11:23Z</time>
  <course>186.67</course>
  <speed>0.022360679774997897</speed>
  <fix>3d</fix>
</trkpt>
<trkpt lat="33.810313" lon="-118.393867">
  <ele>-0.12</ele>
  <time>2026-09-02T22:11:23Z</time>
  <course>0.0</course>
  <speed>0.0</speed>
  <fix>3d</fix>
</trkpt>
<trkpt lat="33.8103131" lon="-118.3938671">
  <ele>-0.129</ele>
  <time>2026-09-02T22:11:23Z</time>
  <course>186.66</course>
  <speed>0.022360679774997897</speed>
  <fix>3d</fix>
</trkpt>
<trkpt lat="33.810313" lon="-118.393867">
  <ele>-0.12</ele>
  <time>2026-09-02T22:11:23Z</time>
  <course>0.0</course>
  <speed>0.0</speed>
  <fix>3d</fix>
</trkpt>
<trkpt lat="33.8103131" lon="-118.3938671">
  <ele>-0.128</ele>
  <time>2026-09-02T22:11:23Z</time>
  <course>186.66</course>
  <speed>0.022360679774997897</speed>
  <fix>3d</fix>
</trkpt>
<trkpt lat="33.810313" lon="-118.393867">
  <ele>-0.12</ele>
  <time>2026-09-02T22:11:23Z</time>
  <course>0.0</course>
  <speed>0.0</speed>
  <fix>3d</fix>
</trkpt>
<trkpt lat="33.8103131" lon="-118.3938671">
  <ele>-0.126</ele>
  <time>2026-09-02T22:11:23Z</time>
  <course>186.66</course>
  <speed>0.022360679774997897</speed>
  <fix>3d</fix>
</trkpt>
<trkpt lat="33.810313" lon="-118.393867">
  <ele>-0.12</ele>
  <time>2026-09-02T22:11:23Z</time>
  <course>0.0</course>
  <speed>0.0</speed>
  <fix>3d</fix>
</trkpt>
<trkpt lat="33.8103131" lon="-118.3938671">
  <ele>-0.124</ele>
  <time>2026-09-02T22:11:23Z</time>
  <course>186.66</course>
  <speed>0.022360679774997897</speed>
  <fix>3d</fix>
</trkpt>
<trkpt lat="33.810313" lon="-118.393867">
  <ele>-0.12</ele>
  <time>2026-09-02T22:11:23Z</time>
  <course>0.0</course>
  <speed>0.0</speed>
  <fix>3d</fix>
</trkpt>
<trkpt lat="33.8103131" lon="-118.3938671">
  <ele>-0.122</ele>
  <time>2026-09-02T22:11:23Z</time>
  <course>186.65</course>
  <speed>0.022360679774997897</speed>
  <fix>3d</fix>
</trkpt>
<trkpt lat="33.810313" lon="-118.393867">
  <ele>-0.12</ele>
  <time>2026-09-02T22:11:23Z</time>
  <course>0.0</course>
  <speed>0.0</speed>
  <fix>3d</fix>
</trkpt>
<trkpt lat="33.8103131" lon="-118.3938671">
  <ele>-0.121</ele>
  <time>2026-09-02T22:11:23Z</time>
  <course>186.65</course>
  <speed>0.022360679774997897</speed>
  <fix>3d</fix>
</trkpt>
<trkpt lat="33.810313" lon="-118.393867">
  <ele>-0.12</ele>
  <time>2026-09-02T22:11:23Z</time>
  <course>0.0</course>
  <speed>0.0</speed>
  <fix>3d</fix>
</trkpt>
<trkpt lat="33.8103131" lon="-118.3938671">
  <ele>-0.122</ele>
  <time>2026-09-02T22:11:23Z</time>
  <course>186.65</course>
  <speed>0.022360679774997897</speed>
  <fix>3d</fix>
</trkpt>
<trkpt lat="33.810313" lon="-118.393867">
  <ele>-0.12</ele>
  <time>2026-09-02T22:11:23Z</time>
  <course>0.0</course>
  <speed>0.0</speed>
  <fix>3d</fix>
</trkpt>
<trkpt lat="33.8103131" lon="-118.3938671">
  <ele>-0.124</ele>
  <time>2026-09-02T22:11:23Z</time>
  <course>186.65</course>
  <speed>0.022360679774997897</speed>
  <fix>3d</fix>
</trkpt>
<trkpt lat="33.810313" lon="-118.393867">
  <ele>-0.12</ele>
  <time>2026-09-02T22:11:23Z</time>
  <course>0.0</course>
  <speed>0.0</speed>
  <fix>3d</fix>
</trkpt>
<trkpt lat="33.8103131" lon="-118.3938671">
  <ele>-0.127</ele>
  <time>2026-09-02T22:11:23Z</time>
  <course>186.64</course>
  <speed>0.022360679774997897</speed>
  <fix>3d</fix>
</trkpt>
<trkpt lat="33.810313" lon="-118.393867">
  <ele>-0.12</ele>
  <time>2026-09-02T22:11:23Z</time>
  <course>0.0</course>
  <speed>0.0</speed>
  <fix>3d</fix>
</trkpt>
<trkpt lat="33.8103131" lon="-118.3938671">
  <ele>-0.128</ele>
  <time>2026-09-02T22:11:23Z</time>
  <course>186.64</course>
  <speed>0.022360679774997897</speed>
  <fix>3d</fix>
</trkpt>
<trkpt lat="33.810313" lon="-118.393867">
  <ele>-0.12</ele>
  <time>2026-09-02T22:11:23Z</time>
  <course>0.0</course>
  <speed>0.0</speed>
  <fix>3d</fix>
</trkpt>
<trkpt lat="33.8103131" lon="-118.3938671">
  <ele>-0.129</ele>
  <time>2026-09-02T22:11:23Z</time>
  <course>186.64</course>
  <speed>0.022360679774997897</speed>
  <fix>3d</fix>
</trkpt>
<trkpt lat="33.810313" lon="-118.393867">
  <ele>-0.12</ele>
  <time>2026-09-02T22:11:23Z</time>
  <course>0.0</course>
  <speed>0.0</speed>
  <fix>3d</fix>
</trkpt>
<trkpt lat="33.8103131" lon="-118.3938671">
  <ele>-0.13</ele>
  <time>2026-09-02T22:11:23Z</time>
  <course>186.64</course>
  <speed>0.022360679774997897</speed>
  <fix>3d</fix>
</trkpt>
<trkpt lat="33.810313" lon="-118.393867">
  <ele>-0.12</ele>
  <time>2026-09-02T22:11:23Z</time>
  <course>0.0</course>
  <speed>0.0</speed>
  <fix>3d</fix>
</trkpt>
<trkpt lat="33.8103131" lon="-118.3938671">
  <ele>-0.129</ele>
  <time>2026-09-02T22:11:23Z</time>
  <course>186.64</course>
  <speed>0.022360679774997897</speed>
  <fix>3d</fix>
</trkpt>
<trkpt lat="33.810313" lon="-118.393867">
  <ele>-0.12</ele>
  <time>2026-09-02T22:11:23Z</time>
  <course>0.0</course>
  <speed>0.0</speed>
  <fix>3d</fix>
</trkpt>
<trkpt lat="33.8103131" lon="-118.3938671">
  <ele>-0.128</ele>
  <time>2026-09-02T22:11:23Z</time>
  <course>186.63</course>
  <speed>0.022360679774997897</speed>
  <fix>3d</fix>
</trkpt>
<trkpt lat="33.810313" lon="-118.393867">
  <ele>-0.12</ele>
  <time>2026-09-02T22:11:23Z</time>
  <course>0.0</course>
  <speed>0.0</speed>
  <fix>3d</fix>
</trkpt>
<trkpt lat="33.8103131" lon="-118.3938671">
  <ele>-0.127</ele>
  <time>2026-09-02T22:11:23Z</time>
  <course>186.63</course>
  <speed>0.022360679774997897</speed>
  <fix>3d</fix>
</trkpt>
<trkpt lat="33.810313" lon="-118.393867">
  <ele>-0.12</ele>
  <time>2026-09-02T22:11:23Z</time>
  <course>0.0</course>
  <speed>0.0</speed>
  <fix>3d</fix>
</trkpt>
<trkpt lat="33.8103131" lon="-118.3938671">
  <ele>-0.126</ele>
  <time>2026-09-02T22:11:23Z</time>
  <course>186.63</course>
  <speed>0.022360679774997897</speed>
  <fix>3d</fix>
</trkpt>
<trkpt lat="33.810313" lon="-118.393867">
  <ele>-0.12</ele>
  <time>2026-09-02T22:11:23Z</time>
  <course>0.0</course>
  <speed>0.0</speed>
  <fix>3d</fix>
</trkpt>
<trkpt lat="33.8103131" lon="-118.3938671">
  <ele>-0.126</ele>
  <time>2026-09-02T22:11:23Z</time>
  <course>186.63</course>
  <speed>0.022360679774997897</speed>
  <fix>3d</fix>
</trkpt>
<trkpt lat="33.810313" lon="-118.393867">
  <ele>-0.12</ele>
  <time>2026-09-02T22:11:23Z</time>
  <course>0.0</course>
  <speed>0.0</speed>
  <fix>3d</fix>
</trkpt>
<trkpt lat="33.8103131" lon="-118.3938671">
  <ele>-0.126</ele>
  <time>2026-09-02T22:11:23Z</time>
  <course>186.62</course>
  <speed>0.022360679774997897</speed>
  <fix>3d</fix>
</trkpt>
<trkpt lat="33.810313" lon="-118.393867">
  <ele>-0.12</ele>
  <time>2026-09-02T22:11:23Z</time>
  <course>0.0</course>
  <speed>0.0</speed>
  <fix>3d</fix>
</trkpt>
<trkpt lat="33.8103131" lon="-118.3938671">
  <ele>-0.127</ele>
  <time>2026-09-02T22:11:23Z</time>
  <course>186.62</course>
  <speed>0.022360679774997897</speed>
  <fix>3d</fix>
</trkpt>
<trkpt lat="33.810313" lon="-118.393867">
  <ele>-0.12</ele>
  <time>2026-09-02T22:11:23Z</time>
  <course>0.0</course>
  <speed>0.0</speed>
  <fix>3d</fix>
</trkpt>
<trkpt lat="33.8103131" lon="-118.3938671">
  <ele>-0.127</ele>
  <time>2026-09-02T22:11:23Z</time>
  <course>186.62</course>
  <speed>0.022360679774997897</speed>
  <fix>3d</fix>
</trkpt>
<trkpt lat="33.810313" lon="-118.393867">
  <ele>-0.12</ele>
  <time>2026-09-02T22:11:23Z</time>
  <course>0.0</course>
  <speed>0.0</speed>
  <fix>3d</fix>
</trkpt>
<trkpt lat="33.8103131" lon="-118.3938671">
  <ele>-0.127</ele>
  <time>2026-09-02T22:11:23Z</time>
  <course>186.62</course>
  <speed>0.022360679774997897</speed>
  <fix>3d</fix>
</trkpt>
<trkpt lat="33.810313" lon="-118.393867">
  <ele>-0.12</ele>
  <time>2026-09-02T22:11:23Z</time>
  <course>0.0</course>
  <speed>0.0</speed>
  <fix>3d</fix>
</trkpt>
<trkpt lat="33.8103131" lon="-118.3938671">
  <ele>-0.127</ele>
  <time>2026-09-02T22:11:23Z</time>
  <course>186.62</course>
  <speed>0.022360679774997897</speed>
  <fix>3d</fix>
</trkpt>
<trkpt lat="33.810313" lon="-118.393867">
  <ele>-0.12</ele>
  <time>2026-09-02T22:11:23Z</time>
  <course>0.0</course>
  <speed>0.0</speed>
  <fix>3d</fix>
</trkpt>
<trkpt lat="33.8103131" lon="-118.3938671">
  <ele>-0.127</ele>
  <time>2026-09-02T22:11:23Z</time>
  <course>186.61</course>
  <speed>0.022360679774997897</speed>
  <fix>3d</fix>
</trkpt>
<trkpt lat="33.810313" lon="-118.393867">
  <ele>-0.12</ele>
  <time>2026-09-02T22:11:23Z</time>
  <course>0.0</course>
  <speed>0.0</speed>
  <fix>3d</fix>
</trkpt>
<trkpt lat="33.8103131" lon="-118.3938671">
  <ele>-0.126</ele>
  <time>2026-09-02T22:11:23Z</time>
  <course>186.61</course>
  <speed>0.01</speed>
  <fix>3d</fix>
</trkpt>
<trkpt lat="33.810313" lon="-118.393867">
  <ele>-0.12</ele>
  <time>2026-09-02T22:11:23Z</time>
  <course>84.83</course>
  <speed>0.0</speed>
  <fix>3d</fix>
</trkpt>
<trkpt lat="33.8103131" lon="-118.3938671">
  <ele>-0.126</ele>
  <time>2026-09-02T22:11:23Z</time>
  <course>186.61</course>
  <speed>0.022360679774997897</speed>
  <fix>3d</fix>
</trkpt>
<trkpt lat="33.810313" lon="-118.393867">
  <ele>-0.12</ele>
  <time>2026-09-02T22:11:23Z</time>
  <course>84.83</course>
  <speed>0.0</speed>
  <fix>3d</fix>
</trkpt>
<trkpt lat="33.8103131" lon="-118.3938671">
  <ele>-0.126</ele>
  <time>2026-09-02T22:11:23Z</time>
  <course>186.62</course>
  <speed>0.0412310562561766</speed>
  <fix>3d</fix>
</trkpt>
<trkpt lat="33.810313" lon="-118.393867">
  <ele>-0.12</ele>
  <time>2026-09-02T22:11:23Z</time>
  <course>89.9</course>
  <speed>0.02</speed>
  <fix>3d</fix>
</trkpt>
<trkpt lat="33.8103131" lon="-118.393867">
  <ele>-0.126</ele>
  <time>2026-09-02T22:11:23Z</time>
  <course>186.65</course>
  <speed>0.07071067811865475</speed>
  <fix>3d</fix>
</trkpt>
<trkpt lat="33.810313" lon="-118.393867">
  <ele>-0.12</ele>
  <time>2026-09-02T22:11:23Z</time>
  <course>89.9</course>
  <speed>0.02</speed>
  <fix>3d</fix>
</trkpt>
<trkpt lat="33.8103131" lon="-118.3938669">
  <ele>-0.127</ele>
  <time>2026-09-02T22:11:23Z</time>
  <course>186.7</course>
  <speed>0.09</speed>
  <fix>3d</fix>
</trkpt>
<trkpt lat="33.810313" lon="-118.3938669">
  <ele>-0.12</ele>
  <time>2026-09-02T22:11:23Z</time>
  <course>91.38</course>
  <speed>0.06</speed>
  <fix>3d</fix>
</trkpt>
<trkpt lat="33.8103131" lon="-118.3938668">
  <ele>-0.128</ele>
  <time>2026-09-02T22:11:23Z</time>
  <course>186.76</course>
  <speed>0.12</speed>
  <fix>3d</fix>
</trkpt>
<trkpt lat="33.810313" lon="-118.3938669">
  <ele>-0.12</ele>
  <time>2026-09-02T22:11:23Z</time>
  <course>91.38</course>
  <speed>0.06</speed>
  <fix>3d</fix>
</trkpt>
<trkpt lat="33.8103131" lon="-118.3938666">
  <ele>-0.128</ele>
  <time>2026-09-02T22:11:23Z</time>
  <course>186.84</course>
  <speed>0.14</speed>
  <fix>3d</fix>
</trkpt>
<trkpt lat="33.810313" lon="-118.3938667">
  <ele>-0.12</ele>
  <time>2026-09-02T22:11:23Z</time>
  <course>91.8</course>
  <speed>0.11</speed>
  <fix>3d</fix>
</trkpt>
<trkpt lat="33.8103131" lon="-118.3938664">
  <ele>-0.129</ele>
  <time>2026-09-02T22:11:23Z</time>
  <course>186.84</course>
  <speed>0.15</speed>
  <fix>3d</fix>
</trkpt>
<trkpt lat="33.810313" lon="-118.3938667">
  <ele>-0.12</ele>
  <time>2026-09-02T22:11:23Z</time>
  <course>91.8</course>
  <speed>0.11</speed>
  <fix>3d</fix>
</trkpt>
<trkpt lat="33.8103131" lon="-118.3938663">
  <ele>-0.131</ele>
  <time>2026-09-02T22:11:23Z</time>
  <course>186.08</course>
  <speed>0.14</speed>
  <fix>3d</fix>
</trkpt>
<trkpt lat="33.810313" lon="-118.3938664">
  <ele>-0.12</ele>
  <time>2026-09-02T22:11:23Z</time>
  <course>91.88</course>
  <speed>0.14</speed>
  <fix>3d</fix>
</trkpt>
<trkpt lat="33.8103131" lon="-118.3938661">
  <ele>-0.131</ele>
  <time>2026-09-02T22:11:23Z</time>
  <course>184.82</course>
  <speed>0.130384048104053</speed>
  <fix>3d</fix>
</trkpt>
<trkpt lat="33.810313" lon="-118.3938664">
  <ele>-0.12</ele>
  <time>2026-09-02T22:11:23Z</time>
  <course>91.88</course>
  <speed>0.14</speed>
  <fix>3d</fix>
</trkpt>
<trkpt lat="33.8103131" lon="-118.393866">
  <ele>-0.13</ele>
  <time>2026-09-02T22:11:23Z</time>
  <course>184.6</course>
  <speed>0.12369316876852982</speed>
  <fix>3d</fix>
</trkpt>
<trkpt lat="33.810313" lon="-118.3938661">
  <ele>-0.12</ele>
  <time>2026-09-02T22:11:23Z</time>
  <course>89.02</course>
  <speed>0.15</speed>
  <fix>3d</fix>
</trkpt>
<trkpt lat="33.8103131" lon="-118.3938658">
  <ele>-0.128</ele>
  <time>2026-09-02T22:11:23Z</time>
  <course>186.48</course>
  <speed>0.12206555615733702</speed>
  <fix>3d</fix>
</trkpt>
<trkpt lat="33.810313" lon="-118.3938661">
  <ele>-0.12</ele>
  <time>2026-09-02T22:11:23Z</time>
  <course>89.02</course>
  <speed>0.15</speed>
  <fix>3d</fix>
</trkpt>
<trkpt lat="33.8103132" lon="-118.3938657">
  <ele>-0.127</ele>
  <time>2026-09-02T22:11:23Z</time>
  <course>189.46</course>
  <speed>0.14422205101855956</speed>
  <fix>3d</fix>
</trkpt>
<trkpt lat="33.810313" lon="-118.3938657">
  <ele>-0.12</ele>
  <time>2026-09-02T22:11:23Z</time>
  <course>68.94</course>
  <speed>0.13</speed>
  <fix>3d</fix>
</trkpt>
<trkpt lat="33.8103133" lon="-118.3938656">
  <ele>-0.128</ele>
  <time>2026-09-02T22:11:23Z</time>
  <course>192.91</course>
  <speed>0.18027756377319945</speed>
  <fix>3d</fix>
</trkpt>
<trkpt lat="33.810313" lon="-118.3938657">
  <ele>-0.12</ele>
  <time>2026-09-02T22:11:23Z</time>
  <course>68.94</course>
  <speed>0.13</speed>
  <fix>3d</fix>
</trkpt>
<trkpt lat="33.8103134" lon="-118.3938656">
  <ele>-0.13</ele>
  <time>2026-09-02T22:11:23Z</time>
  <course>196.66</course>
  <speed>0.223606797749979</speed>
  <fix>3d</fix>
</trkpt>
<trkpt lat="33.8103131" lon="-118.3938656">
  <ele>-0.12</ele>
  <time>2026-09-02T22:11:23Z</time>
  <course>31.5</course>
  <speed>0.15</speed>
  <fix>3d</fix>
</trkpt>
<trkpt lat="33.8103136" lon="-118.3938655">
  <ele>-0.132</ele>
  <time>2026-09-02T22:11:23Z</time>
  <course>200.65</course>
  <speed>0.280713376952364</speed>
  <fix>3d</fix>
</trkpt>
<trkpt lat="33.8103131" lon="-118.3938656">
  <ele>-0.12</ele>
  <time>2026-09-02T22:11:23Z</time>
  <course>31.5</course>
  <speed>0.15</speed>
  <fix>3d</fix>
</trkpt>
<trkpt lat="33.8103139" lon="-118.3938655">
  <ele>-0.133</ele>
  <time>2026-09-02T22:11:23Z</time>
  <course>204.86</course>
  <speed>0.35014282800023194</speed>
  <fix>3d</fix>
</trkpt>
<trkpt lat="33.8103134" lon="-118.3938654">
  <ele>-0.12</ele>
  <time>2026-09-02T22:11:23Z</time>
  <course>9.53</course>
  <speed>0.24</speed>
  <fix>3d</fix>
</trkpt>
<trkpt lat="33.8103142" lon="-118.3938655">
  <ele>-0.132</ele>
  <time>2026-09-02T22:11:23Z</time>
  <course>208.95</course>
  <speed>0.34</speed>
  <fix>3d</fix>
</trkpt>
<trkpt lat="33.8103134" lon="-118.3938654">
  <ele>-0.12</ele>
  <time>2026-09-02T22:11:23Z</time>
  <course>9.53</course>
  <speed>0.24</speed>
  <fix>3d</fix>
</trkpt>
<trkpt lat="33.8103145" lon="-118.3938654">
  <ele>-0.132</ele>
  <time>2026-09-02T22:11:23Z</time>
  <course>211.71</course>
  <speed>0.28</speed>
  <fix>3d</fix>
</trkpt>
<trkpt lat="33.810314" lon="-118.3938654">
  <ele>-0.12</ele>
  <time>2026-09-02T22:11:23Z</time>
  <course>2.34</course>
  <speed>0.31</speed>
  <fix>3d</fix>
</trkpt>
<trkpt lat="33.8103147" lon="-118.3938654">
  <ele>-0.13</ele>
  <time>2026-09-02T22:11:23Z</time>
  <course>213.77</course>
  <speed>0.23</speed>
  <fix>3d</fix>
</trkpt>
<trkpt lat="33.810314" lon="-118.3938654">
  <ele>-0.12</ele>
  <time>2026-09-02T22:11:23Z</time>
  <course>2.34</course>
  <speed>0.31</speed>
  <fix>3d</fix>
</trkpt>
<trkpt lat="33.8103148" lon="-118.3938654">
  <ele>-0.127</ele>
  <time>2026-09-02T22:11:23Z</time>
  <course>216.72</course>
  <speed>0.2</speed>
  <fix>3d</fix>
</trkpt>
<trkpt lat="33.8103145" lon="-118.3938654">
  <ele>-0.12</ele>
  <time>2026-09-02T22:11:23Z</time>
  <course>0.95</course>
  <speed>0.28</speed>
  <fix>3d</fix>
</trkpt>
<trkpt lat="33.810315" lon="-118.3938654">
  <ele>-0.125</ele>
  <time>2026-09-02T22:11:23Z</time>
  <course>220.4</course>
  <speed>0.19</speed>
  <fix>3d</fix>
</trkpt>
<trkpt lat="33.8103145" lon="-118.3938654">
  <ele>-0.12</ele>
  <time>2026-09-02T22:11:23Z</time>
  <course>0.95</course>
  <speed>0.28</speed>
  <fix>3d</fix>
</trkpt>
<trkpt lat="33.8103152" lon="-118.3938654">
  <ele>-0.126</ele>
  <time>2026-09-02T22:11:23Z</time>
  <course>224.45</course>
  <speed>0.2</speed>
  <fix>3d</fix>
</trkpt>
<trkpt lat="33.810315" lon="-118.3938654">
  <ele>-0.12</ele>
  <time>2026-09-02T22:11:23Z</time>
  <course>1.66</course>
  <speed>0.22</speed>
  <fix>3d</fix>
</trkpt>
<trkpt lat="33.8103154" lon="-118.3938654">
  <ele>-0.128</ele>
  <time>2026-09-02T22:11:23Z</time>
  <course>228.73</course>
  <speed>0.22</speed>
  <fix>3d</fix>
</trkpt>
<trkpt lat="33.810315" lon="-118.3938654">
  <ele>-0.12</ele>
  <time>2026-09-02T22:11:23Z</time>
  <course>1.66</course>
  <speed>0.22</speed>
  <fix>3d</fix>
</trkpt>
<trkpt lat="33.8103156" lon="-118.3938654">
  <ele>-0.13</ele>
  <time>2026-09-02T22:11:23Z</time>
  <course>233.19</course>
  <speed>0.25</speed>
  <fix>3d</fix>
</trkpt>
<trkpt lat="33.8103153" lon="-118.3938653">
  <ele>-0.12</ele>
  <time>2026-09-02T22:11:23Z</time>
  <course>2.27</course>
  <speed>0.23</speed>
  <fix>3d</fix>
</trkpt>
<trkpt lat="33.8103159" lon="-118.3938654">
  <ele>-0.13</ele>
  <time>2026-09-02T22:11:23Z</time>
  <course>237.81</course>
  <speed>0.3</speed>
  <fix>3d</fix>
</trkpt>
<trkpt lat="33.8103153" lon="-118.3938653">
  <ele>-0.12</ele>
  <time>2026-09-02T22:11:23Z</time>
  <course>2.27</course>
  <speed>0.23</speed>
  <fix>3d</fix>
</trkpt>
<trkpt lat="33.8103162" lon="-118.3938654">
  <ele>-0.13</ele>
  <time>2026-09-02T22:11:23Z</time>
  <course>242.64</course>
  <speed>0.36</speed>
  <fix>3d</fix>
</trkpt>
<trkpt lat="33.8103158" lon="-118.3938653">
  <ele>-0.12</ele>
  <time>2026-09-02T22:11:23Z</time>
  <course>2.11</course>
  <speed>0.29</speed>
  <fix>3d</fix>
</trkpt>
<trkpt lat="33.8103165" lon="-118.3938653">
  <ele>-0.129</ele>
  <time>2026-09-02T22:11:23Z</time>
  <course>245.52</course>
  <speed>0.3101612483854165</speed>
  <fix>3d</fix>
</trkpt>
<trkpt lat="33.8103158" lon="-118.3938653">
  <ele>-0.12</ele>
  <time>2026-09-02T22:11:23Z</time>
  <course>2.11</course>
  <speed>0.29</speed>
  <fix>3d</fix>
</trkpt>
<trkpt lat="33.8103167" lon="-118.3938653">
  <ele>-0.127</ele>
  <time>2026-09-02T22:11:23Z</time>
  <course>246.72</course>
  <speed>0.2707397274136177</speed>
  <fix>3d</fix>
</trkpt>
<trkpt lat="33.8103164" lon="-118.3938653">
  <ele>-0.12</ele>
  <time>2026-09-02T22:11:23Z</time>
  <course>3.21</course>
  <speed>0.32</speed>
  <fix>3d</fix>
</trkpt>
<trkpt lat="33.810317" lon="-118.3938653">
  <ele>-0.125</ele>
  <time>2026-09-02T22:11:23Z</time>
  <course>247.49</course>
  <speed>0.2308679276123039</speed>
  <fix>3d</fix>
</trkpt>
<trkpt lat="33.8103164" lon="-118.3938653">
  <ele>-0.12</ele>
  <time>2026-09-02T22:11:23Z</time>
  <course>3.21</course>
  <speed>0.32</speed>
  <fix>3d</fix>
</trkpt>
<trkpt lat="33.8103172" lon="-118.3938653">
  <ele>-0.123</ele>
  <time>2026-09-02T22:11:23Z</time>
  <course>248.05</course>
  <speed>0.2109502310972899</speed>
  <fix>3d</fix>
</trkpt>
<trkpt lat="33.810317" lon="-118.3938652">
  <ele>-0.12</ele>
  <time>2026-09-02T22:11:23Z</time>
  <course>6.24</course>
  <speed>0.28</speed>
  <fix>3d</fix>
</trkpt>
<trkpt lat="33.8103174" lon="-118.3938652">
  <ele>-0.121</ele>
  <time>2026-09-02T22:11:23Z</time>
  <course>248.5</course>
  <speed>0.191049731745428</speed>
  <fix>3d</fix>
</trkpt>
<trkpt lat="33.810317" lon="-118.3938652">
  <ele>-0.12</ele>
  <time>2026-09-02T22:11:23Z</time>
  <course>6.24</course>
  <speed>0.28</speed>
  <fix>3d</fix>
</trkpt>
<trkpt lat="33.8103175" lon="-118.3938652">
  <ele>-0.12</ele>
  <time>2026-09-02T22:11:23Z</time>
  <course>248.87</course>
  <speed>0.1711724276862369</speed>
  <fix>3d</fix>
</trkpt>
<trkpt lat="33.8103174" lon="-118.3938651">
  <ele>-0.12</ele>
  <time>2026-09-02T22:11:23Z</time>
  <course>9.71</course>
  <speed>0.22</speed>
  <fix>3d</fix>
</trkpt>
<trkpt lat="33.8103177" lon="-118.3938652">
  <ele>-0.12</ele>
  <time>2026-09-02T22:11:23Z</time>
  <course>249.18</course>
  <speed>0.15033296378372907</speed>
  <fix>3d</fix>
</trkpt>
<trkpt lat="33.8103174" lon="-118.3938651">
  <ele>-0.12</ele>
  <time>2026-09-02T22:11:23Z</time>
  <course>9.71</course>
  <speed>0.22</speed>
  <fix>3d</fix>
</trkpt>
<trkpt lat="33.8103179" lon="-118.3938651">
  <ele>-0.12</ele>
  <time>2026-09-02T22:11:23Z</time>
  <course>249.46</course>
  <speed>0.140356688476182</speed>
  <fix>3d</fix>
</trkpt>
<trkpt lat="33.8103178" lon="-118.393865">
  <ele>-0.12</ele>
  <time>2026-09-02T22:11:23Z</time>
  <course>12.34</course>
  <speed>0.19</speed>
  <fix>3d</fix>
</trkpt>
<trkpt lat="33.810318" lon="-118.3938651">
  <ele>-0.122</ele>
  <time>2026-09-02T22:11:23Z</time>
  <course>249.7</course>
  <speed>0.130384048104053</speed>
  <fix>3d</fix>
</trkpt>
<trkpt lat="33.8103178" lon="-118.393865">
  <ele>-0.12</ele>
  <time>2026-09-02T22:11:23Z</time>
  <course>12.34</course>
  <speed>0.19</speed>
  <fix>3d</fix>
</trkpt>
<trkpt lat="33.8103181" lon="-118.3938651">
  <ele>-0.125</ele>
  <time>2026-09-02T22:11:23Z</time>
  <course>249.92</course>
  <speed>0.12041594578792296</speed>
  <fix>3d</fix>
</trkpt>
<trkpt lat="33.8103181" lon="-118.3938649">
  <ele>-0.12</ele>
  <time>2026-09-02T22:11:23Z</time>
  <course>14.42</course>
  <speed>0.16</speed>
  <fix>3d</fix>
</trkpt>
<trkpt lat="33.8103183" lon="-118.393865">
  <ele>-0.127</ele>
  <time>2026-09-02T22:11:23Z</time>
  <course>250.12</course>
  <speed>0.12041594578792296</speed>
  <fix>3d</fix>
</trkpt>
<trkpt lat="33.8103181" lon="-118.3938649">
  <ele>-0.12</ele>
  <time>2026-09-02T22:11:23Z</time>
  <course>14.42</course>
  <speed>0.16</speed>
  <fix>3d</fix>
</trkpt>
<trkpt lat="33.8103184" lon="-118.393865">
  <ele>-0.127</ele>
  <time>2026-09-02T22:11:23Z</time>
  <course>250.3</course>
  <speed>0.11045361017187261</speed>
  <fix>3d</fix>
</trkpt>
<trkpt lat="33.8103184" lon="-118.3938649">
  <ele>-0.12</ele>
  <time>2026-09-02T22:11:23Z</time>
  <course>16.11</course>
  <speed>0.14</speed>
  <fix>3d</fix>
</trkpt>
<trkpt lat="33.8103185" lon="-118.393865">
  <ele>-0.127</ele>
  <time>2026-09-02T22:11:23Z</time>
  <course>250.46</course>
  <speed>0.1</speed>
  <fix>3d</fix>
</trkpt>
<trkpt lat="33.8103184" lon="-118.3938649">
  <ele>-0.12</ele>
  <time>2026-09-02T22:11:23Z</time>
  <course>16.11</course>
  <speed>0.14</speed>
  <fix>3d</fix>
</trkpt>
<trkpt lat="33.8103186" lon="-118.3938649">
  <ele>-0.126</ele>
  <time>2026-09-02T22:11:23Z</time>
  <course>250.62</course>
  <speed>0.1</speed>
  <fix>3d</fix>
</trkpt>
<trkpt lat="33.8103186" lon="-118.3938648">
  <ele>-0.12</ele>
  <time>2026-09-02T22:11:23Z</time>
  <course>17.51</course>
  <speed>0.13</speed>
  <fix>3d</fix>
</trkpt>
<trkpt lat="33.8103187" lon="-118.3938649">
  <ele>-0.125</ele>
  <time>2026-09-02T22:11:23Z</time>
  <course>250.76</course>
  <speed>0.1</speed>
  <fix>3d</fix>
</trkpt>
<trkpt lat="33.8103186" lon="-118.3938648">
  <ele>-0.12</ele>
  <time>2026-09-02T22:11:23Z</time>
  <course>17.51</course>
  <speed>0.13</speed>
  <fix>3d</fix>
</trkpt>
<trkpt lat="33.8103188" lon="-118.3938649">
  <ele>-0.122</ele>
  <time>2026-09-02T22:11:23Z</time>
  <course>250.89</course>
  <speed>0.09</speed>
  <fix>3d</fix>
</trkpt>
<trkpt lat="33.8103189" lon="-118.3938647">
  <ele>-0.12</ele>
  <time>2026-09-02T22:11:23Z</time>
  <course>18.7</course>
  <speed>0.11</speed>
  <fix>3d</fix>
</trkpt>
<trkpt lat="33.8103189" lon="-118.3938649">
  <ele>-0.119</ele>
  <time>2026-09-02T22:11:23Z</time>
  <course>251.02</course>
  <speed>0.09</speed>
  <fix>3d</fix>
</trkpt>
<trkpt lat="33.8103189" lon="-118.3938647">
  <ele>-0.12</ele>
  <time>2026-09-02T22:11:23Z</time>
  <course>18.7</course>
  <speed>0.11</speed>
  <fix>3d</fix>
</trkpt>
<trkpt lat="33.810319" lon="-118.3938648">
  <ele>-0.117</ele>
  <time>2026-09-02T22:11:23Z</time>
  <course>251.14</course>
  <speed>0.09</speed>
  <fix>3d</fix>
</trkpt>
<trkpt lat="33.8103191" lon="-118.3938646">
  <ele>-0.12</ele>
  <time>2026-09-02T22:11:23Z</time>
  <course>19.71</course>
  <speed>0.1</speed>
  <fix>3d</fix>
</trkpt>
<trkpt lat="33.8103191" lon="-118.3938648">
  <ele>-0.116</ele>
  <time>2026-09-02T22:11:23Z</time>
  <course>251.25</course>
  <speed>0.08</speed>
  <fix>3d</fix>
</trkpt>
<trkpt lat="33.8103191" lon="-118.3938646">
  <ele>-0.12</ele>
  <time>2026-09-02T22:11:23Z</time>
  <course>19.71</course>
  <speed>0.1</speed>
  <fix>3d</fix>
</trkpt>
<trkpt lat="33.8103192" lon="-118.3938648">
  <ele>-0.116</ele>
  <time>2026-09-02T22:11:23Z</time>
  <course>251.36</course>
  <speed>0.08</speed>
  <fix>3d</fix>
</trkpt>
<trkpt lat="33.8103192" lon="-118.3938645">
  <ele>-0.12</ele>
  <time>2026-09-02T22:11:23Z</time>
  <course>20.59</course>
  <speed>0.1</speed>
  <fix>3d</fix>
</trkpt>
<trkpt lat="33.8103193" lon="-118.3938648">
  <ele>-0.117</ele>
  <time>2026-09-02T22:11:23Z</time>
  <course>251.46</course>
  <speed>0.08</speed>
  <fix>3d</fix>
</trkpt>
<trkpt lat="33.8103192" lon="-118.3938645">
  <ele>-0.12</ele>
  <time>2026-09-02T22:11:23Z</time>
  <course>20.59</course>
  <speed>0.1</speed>
  <fix>3d</fix>
</trkpt>
<trkpt lat="33.8103194" lon="-118.3938647">
  <ele>-0.12</ele>
  <time>2026-09-02T22:11:23Z</time>
  <course>251.56</course>
  <speed>0.08</speed>
  <fix>3d</fix>
</trkpt>
<trkpt lat="33.8103194" lon="-118.3938645">
  <ele>-0.12</ele>
  <time>2026-09-02T22:11:23Z</time>
  <course>21.36</course>
  <speed>0.09</speed>
  <fix>3d</fix>
</trkpt>
<trkpt lat="33.8103195" lon="-118.3938647">
  <ele>-0.122</ele>
  <time>2026-09-02T22:11:23Z</time>
  <course>251.65</course>
  <speed>0.07</speed>
  <fix>3d</fix>
</trkpt>
<trkpt lat="33.8103194" lon="-118.3938645">
  <ele>-0.12</ele>
  <time>2026-09-02T22:11:23Z</time>
  <course>21.36</course>
  <speed>0.09</speed>
  <fix>3d</fix>
</trkpt>
<trkpt lat="33.8103195" lon="-118.3938647">
  <ele>-0.125</ele>
  <time>2026-09-02T22:11:23Z</time>
  <course>251.74</course>
  <speed>0.07</speed>
  <fix>3d</fix>
</trkpt>
<trkpt lat="33.8103196" lon="-118.3938644">
  <ele>-0.12</ele>
  <time>2026-09-02T22:11:23Z</time>
  <course>22.06</course>
  <speed>0.08</speed>
  <fix>3d</fix>
</trkpt>
<trkpt lat="33.8103196" lon="-118.3938647">
  <ele>-0.126</ele>
  <time>2026-09-02T22:11:23Z</time>
  <course>251.82</course>
  <speed>0.07</speed>
  <fix>3d</fix>
</trkpt>
<trkpt lat="33.8103196" lon="-118.3938644">
  <ele>-0.12</ele>
  <time>2026-09-02T22:11:23Z</time>
  <course>22.06</course>
  <speed>0.08</speed>
  <fix>3d</fix>
</trkpt>
<trkpt lat="33.8103197" lon="-118.3938646">
  <ele>-0.125</ele>
  <time>2026-09-02T22:11:23Z</time>
  <course>251.9</course>
  <speed>0.07</speed>
  <fix>3d</fix>
</trkpt>
<trkpt lat="33.8103197" lon="-118.3938643">
  <ele>-0.12</ele>
  <time>2026-09-02T22:11:23Z</time>
  <course>22.69</course>
  <speed>0.08</speed>
  <fix>3d</fix>
</trkpt>
<trkpt lat="33.8103198" lon="-118.3938646">
  <ele>-0.124</ele>
  <time>2026-09-02T22:11:23Z</time>
  <course>251.98</course>
  <speed>0.07</speed>
  <fix>3d</fix>
</trkpt>
<trkpt lat="33.8103197" lon="-118.3938643">
  <ele>-0.12</ele>
  <time>2026-09-02T22:11:23Z</time>
  <course>22.69</course>
  <speed>0.08</speed>
  <fix>3d</fix>
</trkpt>
<trkpt lat="33.8103198" lon="-118.3938646">
  <ele>-0.124</ele>
  <time>2026-09-02T22:11:23Z</time>
  <course>252.06</course>
  <speed>0.07</speed>
  <fix>3d</fix>
</trkpt>
<trkpt lat="33.8103198" lon="-118.3938643">
  <ele>-0.12</ele>
  <time>2026-09-02T22:11:23Z</time>
  <course>23.25</course>
  <speed>0.07</speed>
  <fix>3d</fix>
</trkpt>
<trkpt lat="33.8103199" lon="-118.3938645">
  <ele>-0.124</ele>
  <time>2026-09-02T22:11:23Z</time>
  <course>252.13</course>
  <speed>0.07</speed>
  <fix>3d</fix>
</trkpt>
<trkpt lat="33.8103198" lon="-118.3938643">
  <ele>-0.12</ele>
  <time>2026-09-02T22:11:23Z</time>
  <course>23.25</course>
  <speed>0.07</speed>
  <fix>3d</fix>
</trkpt>
<trkpt lat="33.8103201" lon="-118.3938644">
  <ele>-0.13</ele>
  <time>2026-09-02T22:11:23Z</time>
  <course>252.4</course>
  <speed>0.06</speed>
  <fix>3d</fix>
</trkpt>
<trkpt lat="33.81032" lon="-118.3938641">
  <ele>-0.12</ele>
  <time>2026-09-02T22:11:23Z</time>
  <course>24.21</course>
  <speed>0.06</speed>
  <fix>3d</fix>
</trkpt>
<trkpt lat="33.8103203" lon="-118.3938643">
  <ele>-0.136</ele>
  <time>2026-09-02T22:11:23Z</time>
  <course>252.58</course>
  <speed>0.06</speed>
  <fix>3d</fix>
</trkpt>
<trkpt lat="33.8103203" lon="-118.393864">
  <ele>-0.12</ele>
  <time>2026-09-02T22:11:23Z</time>
  <course>25.02</course>
  <speed>0.06</speed>
  <fix>3d</fix>
</trkpt>
<trkpt lat="33.8103204" lon="-118.3938643">
  <ele>-0.137</ele>
  <time>2026-09-02T22:11:23Z</time>
  <course>252.64</course>
  <speed>0.06</speed>
  <fix>3d</fix>
</trkpt>
<trkpt lat="33.8103203" lon="-118.393864">
  <ele>-0.12</ele>
  <time>2026-09-02T22:11:23Z</time>
  <course>25.02</course>
  <speed>0.06</speed>
  <fix>3d</fix>
</trkpt>
<trkpt lat="33.8103204" lon="-118.3938643">
  <ele>-0.138</ele>
  <time>2026-09-02T22:11:23Z</time>
  <course>252.69</course>
  <speed>0.06</speed>
  <fix>3d</fix>
</trkpt>
<trkpt lat="33.8103204" lon="-118.393864">
  <ele>-0.12</ele>
  <time>2026-09-02T22:11:23Z</time>
  <course>25.39</course>
  <speed>0.05</speed>
  <fix>3d</fix>
</trkpt>
<trkpt lat="33.8103205" lon="-118.3938642">
  <ele>-0.134</ele>
  <time>2026-09-02T22:11:23Z</time>
  <course>252.8</course>
  <speed>0.06</speed>
  <fix>3d</fix>
</trkpt>
<trkpt lat="33.8103204" lon="-118.3938639">
  <ele>-0.12</ele>
  <time>2026-09-02T22:11:23Z</time>
  <course>25.74</course>
  <speed>0.05</speed>
  <fix>3d</fix>
</trkpt>
<trkpt lat="33.8103206" lon="-118.3938642">
  <ele>-0.131</ele>
  <time>2026-09-02T22:11:24Z</time>
  <course>252.85</course>
  <speed>0.06</speed>
  <fix>3d</fix>
</trkpt>
<trkpt lat="33.8103204" lon="-118.3938639">
  <ele>-0.12</ele>
  <time>2026-09-02T22:11:24Z</time>
  <course>25.74</course>
  <speed>0.05</speed>
  <fix>3d</fix>
</trkpt>
<trkpt lat="33.8103206" lon="-118.3938641">
  <ele>-0.129</ele>
  <time>2026-09-02T22:11:24Z</time>
  <course>252.9</course>
  <speed>0.06</speed>
  <fix>3d</fix>
</trkpt>
<trkpt lat="33.8103205" lon="-118.3938638">
  <ele>-0.12</ele>
  <time>2026-09-02T22:11:24Z</time>
  <course>26.05</course>
  <speed>0.05</speed>
  <fix>3d</fix>
</trkpt>
<trkpt lat="33.8103207" lon="-118.3938641">
  <ele>-0.127</ele>
  <time>2026-09-02T22:11:24Z</time>
  <course>252.95</course>
  <speed>0.06</speed>
  <fix>3d</fix>
</trkpt>
<trkpt lat="33.8103205" lon="-118.3938638">
  <ele>-0.12</ele>
  <time>2026-09-02T22:11:24Z</time>
  <course>26.05</course>
  <speed>0.05</speed>
  <fix>3d</fix>
</trkpt>
<trkpt lat="33.8103207" lon="-118.3938641">
  <ele>-0.125</ele>
  <time>2026-09-02T22:11:24Z</time>
  <course>253.0</course>
  <speed>0.06</speed>
  <fix>3d</fix>
</trkpt>
<trkpt lat="33.8103206" lon="-118.3938638">
  <ele>-0.12</ele>
  <time>2026-09-02T22:11:24Z</time>
  <course>26.34</course>
  <speed>0.05</speed>
  <fix>3d</fix>
</trkpt>
<trkpt lat="33.8103208" lon="-118.393864">
  <ele>-0.124</ele>
  <time>2026-09-02T22:11:24Z</time>
  <course>253.05</course>
  <speed>0.06</speed>
  <fix>3d</fix>
</trkpt>
<trkpt lat="33.8103206" lon="-118.3938638">
  <ele>-0.12</ele>
  <time>2026-09-02T22:11:24Z</time>
  <course>26.34</course>
  <speed>0.05</speed>
  <fix>3d</fix>
</trkpt>
<trkpt lat="33.8103208" lon="-118.393864">
  <ele>-0.124</ele>
  <time>2026-09-02T22:11:24Z</time>
  <course>253.09</course>
  <speed>0.06</speed>
  <fix>3d</fix>
</trkpt>
<trkpt lat="33.8103207" lon="-118.3938637">
  <ele>-0.12</ele>
  <time>2026-09-02T22:11:24Z</time>
  <course>26.6</course>
  <speed>0.05</speed>
  <fix>3d</fix>
</trkpt>
<trkpt lat="33.8103209" lon="-118.393864">
  <ele>-0.124</ele>
  <time>2026-09-02T22:11:24Z</time>
  <course>253.14</course>
  <speed>0.05</speed>
  <fix>3d</fix>
</trkpt>
<trkpt lat="33.8103207" lon="-118.3938637">
  <ele>-0.12</ele>
  <time>2026-09-02T22:11:24Z</time>
  <course>26.6</course>
  <speed>0.05</speed>
  <fix>3d</fix>
</trkpt>
<trkpt lat="33.8103209" lon="-118.3938639">
  <ele>-0.124</ele>
  <time>2026-09-02T22:11:24Z</time>
  <course>253.18</course>
  <speed>0.05</speed>
  <fix>3d</fix>
</trkpt>
<trkpt lat="33.8103208" lon="-118.3938637">
  <ele>-0.12</ele>
  <time>2026-09-02T22:11:24Z</time>
  <course>26.85</course>
  <speed>0.04</speed>
  <fix>3d</fix>
</trkpt>
<trkpt lat="33.8103209" lon="-118.3938639">
  <ele>-0.123</ele>
  <time>2026-09-02T22:11:24Z</time>
  <course>253.23</course>
  <speed>0.05099019513592785</speed>
  <fix>3d</fix>
</trkpt>
<trkpt lat="33.8103208" lon="-118.3938637">
  <ele>-0.12</ele>
  <time>2026-09-02T22:11:24Z</time>
  <course>26.85</course>
  <speed>0.04</speed>
  <fix>3d</fix>
</trkpt>
<trkpt lat="33.810321" lon="-118.3938638">
  <ele>-0.122</ele>
  <time>2026-09-02T22:11:24Z</time>
  <course>253.27</course>
  <speed>0.05099019513592785</speed>
  <fix>3d</fix>
</trkpt>
<trkpt lat="33.8103209" lon="-118.3938637">
  <ele>-0.12</ele>
  <time>2026-09-02T22:11:24Z</time>
  <course>27.1</course>
  <speed>0.04</speed>
  <fix>3d</fix>
</trkpt>
<trkpt lat="33.810321" lon="-118.3938638">
  <ele>-0.12</ele>
  <time>2026-09-02T22:11:24Z</time>
  <course>253.31</course>
  <speed>0.05099019513592785</speed>
  <fix>3d</fix>
</trkpt>
<trkpt lat="33.8103209" lon="-118.3938637">
  <ele>-0.12</ele>
  <time>2026-09-02T22:11:24Z</time>
  <course>27.1</course>
  <speed>0.04</speed>
  <fix>3d</fix>
</trkpt>
<trkpt lat="33.8103211" lon="-118.3938638">
  <ele>-0.117</ele>
  <time>2026-09-02T22:11:24Z</time>
  <course>253.35</course>
  <speed>0.05099019513592785</speed>
  <fix>3d</fix>
</trkpt>
<trkpt lat="33.810321" lon="-118.3938636">
  <ele>-0.12</ele>
  <time>2026-09-02T22:11:24Z</time>
  <course>27.35</course>
  <speed>0.04</speed>
  <fix>3d</fix>
</trkpt>
<trkpt lat="33.8103211" lon="-118.3938637">
  <ele>-0.115</ele>
  <time>2026-09-02T22:11:24Z</time>
  <course>253.39</course>
  <speed>0.05099019513592785</speed>
  <fix>3d</fix>
</trkpt>
<trkpt lat="33.810321" lon="-118.3938636">
  <ele>-0.12</ele>
  <time>2026-09-02T22:11:24Z</time>
  <course>27.35</course>
  <speed>0.04</speed>
  <fix>3d</fix>
</trkpt>
<trkpt lat="33.8103211" lon="-118.3938637">
  <ele>-0.115</ele>
  <time>2026-09-02T22:11:24Z</time>
  <course>253.43</course>
  <speed>0.05099019513592785</speed>
  <fix>3d</fix>
</trkpt>
<trkpt lat="33.810321" lon="-118.3938636">
  <ele>-0.12</ele>
  <time>2026-09-02T22:11:24Z</time>
  <course>27.58</course>
  <speed>0.04</speed>
  <fix>3d</fix>
</trkpt>
<trkpt lat="33.8103212" lon="-118.3938637">
  <ele>-0.115</ele>
  <time>2026-09-02T22:11:24Z</time>
  <course>253.47</course>
  <speed>0.05099019513592785</speed>
  <fix>3d</fix>
</trkpt>
<trkpt lat="33.810321" lon="-118.3938636">
  <ele>-0.12</ele>
  <time>2026-09-02T22:11:24Z</time>
  <course>27.58</course>
  <speed>0.04</speed>
  <fix>3d</fix>
</trkpt>
<trkpt lat="33.8103212" lon="-118.3938637">
  <ele>-0.116</ele>
  <time>2026-09-02T22:11:24Z</time>
  <course>253.51</course>
  <speed>0.05099019513592785</speed>
  <fix>3d</fix>
</trkpt>
<trkpt lat="33.8103211" lon="-118.3938635">
  <ele>-0.12</ele>
  <time>2026-09-02T22:11:24Z</time>
  <course>27.78</course>
  <speed>0.04</speed>
  <fix>3d</fix>
</trkpt>
<trkpt lat="33.8103213" lon="-118.3938636">
  <ele>-0.117</ele>
  <time>2026-09-02T22:11:24Z</time>
  <course>253.55</course>
  <speed>0.05099019513592785</speed>
  <fix>3d</fix>
</trkpt>
<trkpt lat="33.8103211" lon="-118.3938635">
  <ele>-0.12</ele>
  <time>2026-09-02T22:11:24Z</time>
  <course>27.78</course>
  <speed>0.04</speed>
  <fix>3d</fix>
</trkpt>
<trkpt lat="33.8103213" lon="-118.3938636">
  <ele>-0.119</ele>
  <time>2026-09-02T22:11:24Z</time>
  <course>253.59</course>
  <speed>0.05099019513592785</speed>
  <fix>3d</fix>
</trkpt>
<trkpt lat="33.8103212" lon="-118.3938635">
  <ele>-0.12</ele>
  <time>2026-09-02T22:11:24Z</time>
  <course>27.96</course>
  <speed>0.04</speed>
  <fix>3d</fix>
</trkpt>
<trkpt lat="33.8103213" lon="-118.3938636">
  <ele>-0.12</ele>
  <time>2026-09-02T22:11:24Z</time>
  <course>253.62</course>
  <speed>0.05099019513592785</speed>
  <fix>3d</fix>
</trkpt>
<trkpt lat="33.8103212" lon="-118.3938635">
  <ele>-0.12</ele>
  <time>2026-09-02T22:11:24Z</time>
  <course>27.96</course>
  <speed>0.04</speed>
  <fix>3d</fix>
</trkpt>
<trkpt lat="33.8103214" lon="-118.3938635">
  <ele>-0.121</ele>
  <time>2026-09-02T22:11:24Z</time>
  <course>253.66</course>
  <speed>0.05099019513592785</speed>
  <fix>3d</fix>
</trkpt>
<trkpt lat="33.8103212" lon="-118.3938634">
  <ele>-0.12</ele>
  <time>2026-09-02T22:11:24Z</time>
  <course>28.13</course>
  <speed>0.04</speed>
  <fix>3d</fix>
</trkpt>
<trkpt lat="33.8103214" lon="-118.3938635">
  <ele>-0.122</ele>
  <time>2026-09-02T22:11:24Z</time>
  <course>253.69</course>
  <speed>0.053851648071345036</speed>
  <fix>3d</fix>
</trkpt>
<trkpt lat="33.8103212" lon="-118.3938634">
  <ele>-0.12</ele>
  <time>2026-09-02T22:11:24Z</time>
  <course>28.13</course>
  <speed>0.04</speed>
  <fix>3d</fix>
</trkpt>
<trkpt lat="33.8103214" lon="-118.3938635">
  <ele>-0.122</ele>
  <time>2026-09-02T22:11:24Z</time>
  <course>253.73</course>
  <speed>0.053851648071345036</speed>
  <fix>3d</fix>
</trkpt>
<trkpt lat="33.8103213" lon="-118.3938634">
  <ele>-0.12</ele>
  <time>2026-09-02T22:11:24Z</time>
  <course>28.31</course>
  <speed>0.03</speed>
  <fix>3d</fix>
</trkpt>
<trkpt lat="33.8103215" lon="-118.3938634">
  <ele>-0.12</ele>
  <time>2026-09-02T22:11:24Z</time>
  <course>253.76</course>
  <speed>0.053851648071345036</speed>
  <fix>3d</fix>
</trkpt>
<trkpt lat="33.8103213" lon="-118.3938634">
  <ele>-0.12</ele>
  <time>2026-09-02T22:11:24Z</time>
  <course>28.31</course>
  <speed>0.03</speed>
  <fix>3d</fix>
</trkpt>
<trkpt lat="33.8103215" lon="-118.3938634">
  <ele>-0.118</ele>
  <time>2026-09-02T22:11:24Z</time>
  <course>253.8</course>
  <speed>0.053851648071345036</speed>
  <fix>3d</fix>
</trkpt>
<trkpt lat="33.8103214" lon="-118.3938634">
  <ele>-0.12</ele>
  <time>2026-09-02T22:11:24Z</time>
  <course>28.49</course>
  <speed>0.03</speed>
  <fix>3d</fix>
</trkpt>
<trkpt lat="33.8103215" lon="-118.3938634">
  <ele>-0.116</ele>
  <time>2026-09-02T22:11:24Z</time>
  <course>253.83</course>
  <speed>0.053851648071345036</speed>
  <fix>3d</fix>
</trkpt>
<trkpt lat="33.8103214" lon="-118.3938634">
  <ele>-0.12</ele>
  <time>2026-09-02T22:11:24Z</time>
  <course>28.49</course>
  <speed>0.03</speed>
  <fix>3d</fix>
</trkpt>
<trkpt lat="33.8103216" lon="-118.3938634">
  <ele>-0.116</ele>
  <time>2026-09-02T22:11:24Z</time>
  <course>253.86</course>
  <speed>0.053851648071345036</speed>
  <fix>3d</fix>
</trkpt>
<trkpt lat="33.8103214" lon="-118.3938633">
  <ele>-0.12</ele>
  <time>2026-09-02T22:11:24Z</time>
  <course>28.67</course>
  <speed>0.03</speed>
  <fix>3d</fix>
</trkpt>
<trkpt lat="33.8103216" lon="-118.3938633">
  <ele>-0.117</ele>
  <time>2026-09-02T22:11:24Z</time>
  <course>253.9</course>
  <speed>0.053851648071345036</speed>
  <fix>3d</fix>
</trkpt>
<trkpt lat="33.8103214" lon="-118.3938633">
  <ele>-0.12</ele>
  <time>2026-09-02T22:11:24Z</time>
  <course>28.67</course>
  <speed>0.03</speed>
  <fix>3d</fix>
</trkpt>
<trkpt lat="33.8103216" lon="-118.3938633">
  <ele>-0.119</ele>
  <time>2026-09-02T22:11:24Z</time>
  <course>253.93</course>
  <speed>0.053851648071345036</speed>
  <fix>3d</fix>
</trkpt>
<trkpt lat="33.8103215" lon="-118.3938633">
  <ele>-0.12</ele>
  <time>2026-09-02T22:11:24Z</time>
  <course>28.83</course>
  <speed>0.03</speed>
  <fix>3d</fix>
</trkpt>
<trkpt lat="33.8103217" lon="-118.3938633">
  <ele>-0.122</ele>
  <time>2026-09-02T22:11:24Z</time>
  <course>253.96</course>
  <speed>0.053851648071345036</speed>
  <fix>3d</fix>
</trkpt>
<trkpt lat="33.8103215" lon="-118.3938633">
  <ele>-0.12</ele>
  <time>2026-09-02T22:11:24Z</time>
  <course>28.83</course>
  <speed>0.03</speed>
  <fix>3d</fix>
</trkpt>
<trkpt lat="33.8103217" lon="-118.3938633">
  <ele>-0.123</ele>
  <time>2026-09-02T22:11:24Z</time>
  <course>253.99</course>
  <speed>0.053851648071345036</speed>
  <fix>3d</fix>
</trkpt>
<trkpt lat="33.8103215" lon="-118.3938632">
  <ele>-0.12</ele>
  <time>2026-09-02T22:11:24Z</time>
  <course>28.97</course>
  <speed>0.03</speed>
  <fix>3d</fix>
</trkpt>
<trkpt lat="33.8103217" lon="-118.3938632">
  <ele>-0.125</ele>
  <time>2026-09-02T22:11:24Z</time>
  <course>254.02</course>
  <speed>0.053851648071345036</speed>
  <fix>3d</fix>
</trkpt>
<trkpt lat="33.8103215" lon="-118.3938632">
  <ele>-0.12</ele>
  <time>2026-09-02T22:11:24Z</time>
  <course>28.97</course>
  <speed>0.03</speed>
  <fix>3d</fix>
</trkpt>
<trkpt lat="33.8103217" lon="-118.3938632">
  <ele>-0.126</ele>
  <time>2026-09-02T22:11:24Z</time>
  <course>254.05</course>
  <speed>0.053851648071345036</speed>
  <fix>3d</fix>
</trkpt>
<trkpt lat="33.8103216" lon="-118.3938632">
  <ele>-0.12</ele>
  <time>2026-09-02T22:11:24Z</time>
  <course>29.1</course>
  <speed>0.03</speed>
  <fix>3d</fix>
</trkpt>
<trkpt lat="33.8103218" lon="-118.3938632">
  <ele>-0.127</ele>
  <time>2026-09-02T22:11:24Z</time>
  <course>252.39</course>
  <speed>0.0412310562561766</speed>
  <fix>3d</fix>
</trkpt>
<trkpt lat="33.8103216" lon="-118.3938632">
  <ele>-0.12</ele>
  <time>2026-09-02T22:11:24Z</time>
  <course>29.1</course>
  <speed>0.03</speed>
  <fix>3d</fix>
</trkpt>
<trkpt lat="33.8103218" lon="-118.3938632">
  <ele>-0.128</ele>
  <time>2026-09-02T22:11:24Z</time>
  <course>249.16</course>
  <speed>0.0316227766016838</speed>
  <fix>3d</fix>
</trkpt>
<trkpt lat="33.8103216" lon="-118.3938632">
  <ele>-0.12</ele>
  <time>2026-09-02T22:11:24Z</time>
  <course>27.18</course>
  <speed>0.02</speed>
  <fix>3d</fix>
</trkpt>
<trkpt lat="33.8103218" lon="-118.3938632">
  <ele>-0.132</ele>
  <time>2026-09-02T22:11:24Z</time>
  <course>245.57</course>
  <speed>0.0316227766016838</speed>
  <fix>3d</fix>
</trkpt>
<trkpt lat="33.8103216" lon="-118.3938632">
  <ele>-0.12</ele>
  <time>2026-09-02T22:11:24Z</time>
  <course>27.18</course>
  <speed>0.02</speed>
  <fix>3d</fix>
</trkpt>
<trkpt lat="33.8103218" lon="-118.3938631">
  <ele>-0.141</ele>
  <time>2026-09-02T22:11:24Z</time>
  <course>241.75</course>
  <speed>0.022360679774997897</speed>
  <fix>3d</fix>
</trkpt>
<trkpt lat="33.8103216" lon="-118.3938632">
  <ele>-0.12</ele>
  <time>2026-09-02T22:11:24Z</time>
  <course>16.66</course>
  <speed>0.01</speed>
  <fix>3d</fix>
</trkpt>
<trkpt lat="33.8103218" lon="-118.3938631">
  <ele>-0.153</ele>
  <time>2026-09-02T22:11:24Z</time>
  <course>237.74</course>
  <speed>0.02</speed>
  <fix>3d</fix>
</trkpt>
<trkpt lat="33.8103216" lon="-118.3938632">
  <ele>-0.12</ele>
  <time>2026-09-02T22:11:24Z</time>
  <course>16.66</course>
  <speed>0.01</speed>
  <fix>3d</fix>
</trkpt>
<trkpt lat="33.8103218" lon="-118.3938631">
  <ele>-0.171</ele>
  <time>2026-09-02T22:11:24Z</time>
  <course>233.57</course>
  <speed>0.02</speed>
  <fix>3d</fix>
</trkpt>
<trkpt lat="33.8103216" lon="-118.3938632">
  <ele>-0.14</ele>
  <time>2026-09-02T22:11:24Z</time>
  <course>332.45</course>
  <speed>0.0</speed>
  <fix>3d</fix>
</trkpt>
<trkpt lat="33.8103218" lon="-118.3938631">
  <ele>-0.194</ele>
  <time>2026-09-02T22:11:24Z</time>
  <course>229.33</course>
  <speed>0.02</speed>
  <fix>3d</fix>
</trkpt>
<trkpt lat="33.8103216" lon="-118.3938632">
  <ele>-0.14</ele>
  <time>2026-09-02T22:11:24Z</time>
  <course>332.45</course>
  <speed>0.0</speed>
  <fix>3d</fix>
</trkpt>
<trkpt lat="33.8103218" lon="-118.3938632">
  <ele>-0.222</ele>
  <time>2026-09-02T22:11:24Z</time>
  <course>225.51</course>
  <speed>0.02</speed>
  <fix>3d</fix>
</trkpt>
<trkpt lat="33.8103216" lon="-118.3938632">
  <ele>-0.16</ele>
  <time>2026-09-02T22:11:24Z</time>
  <course>288.5</course>
  <speed>0.0</speed>
  <fix>3d</fix>
</trkpt>
<trkpt lat="33.8103218" lon="-118.3938632">
  <ele>-0.255</ele>
  <time>2026-09-02T22:11:24Z</time>
  <course>222.28</course>
  <speed>0.02</speed>
  <fix>3d</fix>
</trkpt>
<trkpt lat="33.8103216" lon="-118.3938632">
  <ele>-0.16</ele>
  <time>2026-09-02T22:11:24Z</time>
  <course>288.5</course>
  <speed>0.0</speed>
  <fix>3d</fix>
</trkpt>
<trkpt lat="33.8103218" lon="-118.3938632">
  <ele>-0.296</ele>
  <time>2026-09-02T22:11:24Z</time>
  <course>219.5</course>
  <speed>0.02</speed>
  <fix>3d</fix>
</trkpt>
<trkpt lat="33.8103216" lon="-118.3938632">
  <ele>-0.21</ele>
  <time>2026-09-02T22:11:24Z</time>
  <course>281.9</course>
  <speed>0.0</speed>
  <fix>3d</fix>
</trkpt>
<trkpt lat="33.8103218" lon="-118.3938632">
  <ele>-0.346</ele>
  <time>2026-09-02T22:11:24Z</time>
  <course>217.02</course>
  <speed>0.02</speed>
  <fix>3d</fix>
</trkpt>
<trkpt lat="33.8103216" lon="-118.3938632">
  <ele>-0.21</ele>
  <time>2026-09-02T22:11:24Z</time>
  <course>281.9</course>
  <speed>0.0</speed>
  <fix>3d</fix>
</trkpt>
<trkpt lat="33.8103218" lon="-118.3938632">
  <ele>-0.403</ele>
  <time>2026-09-02T22:11:24Z</time>
  <course>214.79</course>
  <speed>0.02</speed>
  <fix>3d</fix>
</trkpt>
<trkpt lat="33.8103216" lon="-118.3938632">
  <ele>-0.28</ele>
  <time>2026-09-02T22:11:24Z</time>
  <course>283.47</course>
  <speed>0.01</speed>
  <fix>3d</fix>
</trkpt>
<trkpt lat="33.8103218" lon="-118.3938632">
  <ele>-0.469</ele>
  <time>2026-09-02T22:11:24Z</time>
  <course>212.75</course>
  <speed>0.02</speed>
  <fix>3d</fix>
</trkpt>
<trkpt lat="33.8103216" lon="-118.3938632">
  <ele>-0.28</ele>
  <time>2026-09-02T22:11:24Z</time>
  <course>283.47</course>
  <speed>0.01</speed>
  <fix>3d</fix>
</trkpt>
<trkpt lat="33.8103218" lon="-118.3938632">
  <ele>-0.544</ele>
  <time>2026-09-02T22:11:24Z</time>
  <course>210.87</course>
  <speed>0.01</speed>
  <fix>3d</fix>
</trkpt>
<trkpt lat="33.8103216" lon="-118.3938632">
  <ele>-0.39</ele>
  <time>2026-09-02T22:11:24Z</time>
  <course>285.21</course>
  <speed>0.01</speed>
  <fix>3d</fix>
</trkpt>
<trkpt lat="33.8103218" lon="-118.3938632">
  <ele>-0.626</ele>
  <time>2026-09-02T22:11:24Z</time>
  <course>209.14</course>
  <speed>0.01</speed>
  <fix>3d</fix>
</trkpt>
<trkpt lat="33.8103216" lon="-118.3938632">
  <ele>-0.39</ele>
  <time>2026-09-02T22:11:24Z</time>
  <course>285.21</course>
  <speed>0.01</speed>
  <fix>3d</fix>
</trkpt>
<trkpt lat="33.8103218" lon="-118.3938632">
  <ele>-0.713</ele>
  <time>2026-09-02T22:11:24Z</time>
  <course>207.58</course>
  <speed>0.01414213562373095</speed>
  <fix>3d</fix>
</trkpt>
<trkpt lat="33.8103216" lon="-118.3938632">
  <ele>-0.53</ele>
  <time>2026-09-02T22:11:24Z</time>
  <course>285.86</course>
  <speed>0.01</speed>
  <fix>3d</fix>
</trkpt>
<trkpt lat="33.8103218" lon="-118.3938632">
  <ele>-0.807</ele>
  <time>2026-09-02T22:11:24Z</time>
  <course>204.72</course>
  <speed>0.01414213562373095</speed>
  <fix>3d</fix>
</trkpt>
<trkpt lat="33.8103216" lon="-118.3938632">
  <ele>-0.53</ele>
  <time>2026-09-02T22:11:24Z</time>
  <course>285.86</course>
  <speed>0.01</speed>
  <fix>3d</fix>
</trkpt>
<trkpt lat="33.8103218" lon="-118.3938632">
  <ele>-0.905</ele>
  <time>2026-09-02T22:11:24Z</time>
  <course>203.66</course>
  <speed>0.01414213562373095</speed>
  <fix>3d</fix>
</trkpt>
<trkpt lat="33.8103216" lon="-118.3938632">
  <ele>-0.69</ele>
  <time>2026-09-02T22:11:24Z</time>
  <course>284.89</course>
  <speed>0.01</speed>
  <fix>3d</fix>
</trkpt>
<trkpt lat="33.8103218" lon="-118.3938632">
  <ele>-1.008</ele>
  <time>2026-09-02T22:11:24Z</time>
  <course>202.97</course>
  <speed>0.01414213562373095</speed>
  <fix>3d</fix>
</trkpt>
<trkpt lat="33.8103216" lon="-118.3938632">
  <ele>-0.69</ele>
  <time>2026-09-02T22:11:24Z</time>
  <course>284.89</course>
  <speed>0.01</speed>
  <fix>3d</fix>
</trkpt>
<trkpt lat="33.8103218" lon="-118.3938632">
  <ele>-1.115</ele>
  <time>2026-09-02T22:11:24Z</time>
  <course>202.45</course>
  <speed>0.01414213562373095</speed>
  <fix>3d</fix>
</trkpt>
<trkpt lat="33.8103217" lon="-118.3938632">
  <ele>-0.87</ele>
  <time>2026-09-02T22:11:24Z</time>
  <course>283.76</course>
  <speed>0.02</speed>
  <fix>3d</fix>
</trkpt>
<trkpt lat="33.8103218" lon="-118.3938632">
  <ele>-1.224</ele>
  <time>2026-09-02T22:11:24Z</time>
  <course>202.02</course>
  <speed>0.01414213562373095</speed>
  <fix>3d</fix>
</trkpt>
<trkpt lat="33.8103217" lon="-118.3938632">
  <ele>-0.87</ele>
  <time>2026-09-02T22:11:24Z</time>
  <course>283.76</course>
  <speed>0.02</speed>
  <fix>3d</fix>
</trkpt>
<trkpt lat="33.8103218" lon="-118.3938632">
  <ele>-1.335</ele>
  <time>2026-09-02T22:11:24Z</time>
  <course>201.66</course>
  <speed>0.01414213562373095</speed>
  <fix>3d</fix>
</trkpt>
<trkpt lat="33.8103217" lon="-118.3938633">
  <ele>-1.06</ele>
  <time>2026-09-02T22:11:24Z</time>
  <course>283.33</course>
  <speed>0.01</speed>
  <fix>3d</fix>
</trkpt>
<trkpt lat="33.8103218" lon="-118.3938632">
  <ele>-1.447</ele>
  <time>2026-09-02T22:11:24Z</time>
  <course>201.36</course>
  <speed>0.01414213562373095</speed>
  <fix>3d</fix>
</trkpt>
<trkpt lat="33.8103217" lon="-118.3938633">
  <ele>-1.06</ele>
  <time>2026-09-02T22:11:24Z</time>
  <course>283.33</course>
  <speed>0.01</speed>
  <fix>3d</fix>
</trkpt>
<trkpt lat="33.8103218" lon="-118.3938632">
  <ele>-1.559</ele>
  <time>2026-09-02T22:11:24Z</time>
  <course>201.09</course>
  <speed>0.01414213562373095</speed>
  <fix>3d</fix>
</trkpt>
<trkpt lat="33.8103217" lon="-118.3938633">
  <ele>-1.27</ele>
  <time>2026-09-02T22:11:24Z</time>
  <course>283.12</course>
  <speed>0.01</speed>
  <fix>3d</fix>
</trkpt>
<trkpt lat="33.8103218" lon="-118.3938632">
  <ele>-1.67</ele>
  <time>2026-09-02T22:11:24Z</time>
  <course>200.85</course>
  <speed>0.022360679774997897</speed>
  <fix>3d</fix>
</trkpt>
<trkpt lat="33.8103217" lon="-118.3938633">
  <ele>-1.27</ele>
  <time>2026-09-02T22:11:24Z</time>
  <course>283.12</course>
  <speed>0.01</speed>
  <fix>3d</fix>
</trkpt>
<trkpt lat="33.8103218" lon="-118.3938632">
  <ele>-1.781</ele>
  <time>2026-09-02T22:11:24Z</time>
  <course>200.63</course>
  <speed>0.022360679774997897</speed>
  <fix>3d</fix>
</trkpt>
<trkpt lat="33.8103217" lon="-118.3938634">
  <ele>-1.48</ele>
  <time>2026-09-02T22:11:24Z</time>
  <course>282.94</course>
  <speed>0.01</speed>
  <fix>3d</fix>
</trkpt>
<trkpt lat="33.8103218" lon="-118.3938632">
  <ele>-1.892</ele>
  <time>2026-09-02T22:11:24Z</time>
  <course>200.43</course>
  <speed>0.022360679774997897</speed>
  <fix>3d</fix>
</trkpt>
<trkpt lat="33.8103217" lon="-118.3938634">
  <ele>-1.48</ele>
  <time>2026-09-02T22:11:24Z</time>
  <course>282.94</course>
  <speed>0.01</speed>
  <fix>3d</fix>
</trkpt>
<trkpt lat="33.8103218" lon="-118.3938632">
  <ele>-2.002</ele>
  <time>2026-09-02T22:11:24Z</time>
  <course>200.27</course>
  <speed>0.022360679774997897</speed>
  <fix>3d</fix>
</trkpt>
<trkpt lat="33.8103217" lon="-118.3938634">
  <ele>-1.7</ele>
  <time>2026-09-02T22:11:24Z</time>
  <course>282.79</course>
  <speed>0.01</speed>
  <fix>3d</fix>
</trkpt>
<trkpt lat="33.8103218" lon="-118.3938632">
  <ele>-2.112</ele>
  <time>2026-09-02T22:11:24Z</time>
  <course>200.12</course>
  <speed>0.022360679774997897</speed>
  <fix>3d</fix>
</trkpt>
<trkpt lat="33.8103217" lon="-118.3938634">
  <ele>-1.7</ele>
  <time>2026-09-02T22:11:24Z</time>
  <course>282.79</course>
  <speed>0.01</speed>
  <fix>3d</fix>
</trkpt>
<trkpt lat="33.8103218" lon="-118.3938632">
  <ele>-2.218</ele>
  <time>2026-09-02T22:11:24Z</time>
  <course>199.97</course>
  <speed>0.022360679774997897</speed>
  <fix>3d</fix>
</trkpt>
<trkpt lat="33.8103217" lon="-118.3938635">
  <ele>-1.91</ele>
  <time>2026-09-02T22:11:24Z</time>
  <course>282.64</course>
  <speed>0.01</speed>
  <fix>3d</fix>
</trkpt>
<trkpt lat="33.8103218" lon="-118.3938632">
  <ele>-2.32</ele>
  <time>2026-09-02T22:11:24Z</time>
  <course>199.83</course>
  <speed>0.022360679774997897</speed>
  <fix>3d</fix>
</trkpt>
<trkpt lat="33.8103217" lon="-118.3938635">
  <ele>-1.91</ele>
  <time>2026-09-02T22:11:24Z</time>
  <course>282.64</course>
  <speed>0.01</speed>
  <fix>3d</fix>
</trkpt>
<trkpt lat="33.8103218" lon="-118.3938632">
  <ele>-2.418</ele>
  <time>2026-09-02T22:11:24Z</time>
  <course>199.69</course>
  <speed>0.022360679774997897</speed>
  <fix>3d</fix>
</trkpt>
<trkpt lat="33.8103217" lon="-118.3938635">
  <ele>-2.12</ele>
  <time>2026-09-02T22:11:24Z</time>
  <course>282.49</course>
  <speed>0.01</speed>
  <fix>3d</fix>
</trkpt>
<trkpt lat="33.8103218" lon="-118.3938632">
  <ele>-2.51</ele>
  <time>2026-09-02T22:11:24Z</time>
  <course>199.61</course>
  <speed>0.022360679774997897</speed>
  <fix>3d</fix>
</trkpt>
<trkpt lat="33.8103217" lon="-118.3938635">
  <ele>-2.12</ele>
  <time>2026-09-02T22:11:24Z</time>
  <course>282.49</course>
  <speed>0.01</speed>
  <fix>3d</fix>
</trkpt>
<trkpt lat="33.8103218" lon="-118.3938632">
  <ele>-2.597</ele>
  <time>2026-09-02T22:11:24Z</time>
  <course>199.6</course>
  <speed>0.022360679774997897</speed>
  <fix>3d</fix>
</trkpt>
<trkpt lat="33.8103217" lon="-118.3938635">
  <ele>-2.31</ele>
  <time>2026-09-02T22:11:24Z</time>
  <course>279.26</course>
  <speed>0.01</speed>
  <fix>3d</fix>
</trkpt>
<trkpt lat="33.8103218" lon="-118.3938632">
  <ele>-2.678</ele>
  <time>2026-09-02T22:11:24Z</time>
  <course>199.64</course>
  <speed>0.022360679774997897</speed>
  <fix>3d</fix>
</trkpt>
<trkpt lat="33.8103217" lon="-118.3938635">
  <ele>-2.31</ele>
  <time>2026-09-02T22:11:24Z</time>
  <course>279.26</course>
  <speed>0.01</speed>
  <fix>3d</fix>
</trkpt>
<trkpt lat="33.8103218" lon="-118.3938632">
  <ele>-2.75</ele>
  <time>2026-09-02T22:11:24Z</time>
  <course>199.72</course>
  <speed>0.022360679774997897</speed>
  <fix>3d</fix>
</trkpt>
<trkpt lat="33.8103217" lon="-118.3938636">
  <ele>-2.49</ele>
  <time>2026-09-02T22:11:24Z</time>
  <course>272.04</course>
  <speed>0.01</speed>
  <fix>3d</fix>
</trkpt>
<trkpt lat="33.8103218" lon="-118.3938632">
  <ele>-2.813</ele>
  <time>2026-09-02T22:11:24Z</time>
  <course>199.83</course>
  <speed>0.022360679774997897</speed>
  <fix>3d</fix>
</trkpt>
<trkpt lat="33.8103217" lon="-118.3938636">
  <ele>-2.49</ele>
  <time>2026-09-02T22:11:24Z</time>
  <course>272.04</course>
  <speed>0.01</speed>
  <fix>3d</fix>
</trkpt>
<trkpt lat="33.8103218" lon="-118.3938633">
  <ele>-2.867</ele>
  <time>2026-09-02T22:11:24Z</time>
  <course>199.97</course>
  <speed>0.022360679774997897</speed>
  <fix>3d</fix>
</trkpt>
<trkpt lat="33.8103217" lon="-118.3938636">
  <ele>-2.63</ele>
  <time>2026-09-02T22:11:24Z</time>
  <course>264.28</course>
  <speed>0.01</speed>
  <fix>3d</fix>
</trkpt>
<trkpt lat="33.8103218" lon="-118.3938633">
  <ele>-2.911</ele>
  <time>2026-09-02T22:11:24Z</time>
  <course>200.12</course>
  <speed>0.022360679774997897</speed>
  <fix>3d</fix>
</trkpt>
<trkpt lat="33.8103217" lon="-118.3938636">
  <ele>-2.63</ele>
  <time>2026-09-02T22:11:24Z</time>
  <course>264.28</course>
  <speed>0.01</speed>
  <fix>3d</fix>
</trkpt>
<trkpt lat="33.8103218" lon="-118.3938633">
  <ele>-2.946</ele>
  <time>2026-09-02T22:11:24Z</time>
  <course>200.25</course>
  <speed>0.022360679774997897</speed>
  <fix>3d</fix>
</trkpt>
<trkpt lat="33.8103217" lon="-118.3938636">
  <ele>-2.74</ele>
  <time>2026-09-02T22:11:24Z</time>
  <course>258.05</course>
  <speed>0.01</speed>
  <fix>3d</fix>
</trkpt>
<trkpt lat="33.8103218" lon="-118.3938633">
  <ele>-2.974</ele>
  <time>2026-09-02T22:11:24Z</time>
  <course>200.33</course>
  <speed>0.022360679774997897</speed>
  <fix>3d</fix>
</trkpt>
<trkpt lat="33.8103217" lon="-118.3938636">
  <ele>-2.74</ele>
  <time>2026-09-02T22:11:24Z</time>
  <course>258.05</course>
  <speed>0.01</speed>
  <fix>3d</fix>
</trkpt>
<trkpt lat="33.8103218" lon="-118.3938633">
  <ele>-2.994</ele>
  <time>2026-09-02T22:11:24Z</time>
  <course>200.36</course>
  <speed>0.022360679774997897</speed>
  <fix>3d</fix>
</trkpt>
<trkpt lat="33.8103217" lon="-118.3938637">
  <ele>-2.82</ele>
  <time>2026-09-02T22:11:24Z</time>
  <course>250.1</course>
  <speed>0.01</speed>
  <fix>3d</fix>
</trkpt>
<trkpt lat="33.8103218" lon="-118.3938633">
  <ele>-3.01</ele>
  <time>2026-09-02T22:11:24Z</time>
  <course>200.38</course>
  <speed>0.02</speed>
  <fix>3d</fix>
</trkpt>
<trkpt lat="33.8103217" lon="-118.3938637">
  <ele>-2.82</ele>
  <time>2026-09-02T22:11:24Z</time>
  <course>250.1</course>
  <speed>0.01</speed>
  <fix>3d</fix>
</trkpt>
<trkpt lat="33.8103218" lon="-118.3938634">
  <ele>-3.021</ele>
  <time>2026-09-02T22:11:24Z</time>
  <course>200.39</course>
  <speed>0.01</speed>
  <fix>3d</fix>
</trkpt>
<trkpt lat="33.8103217" lon="-118.3938637">
  <ele>-2.87</ele>
  <time>2026-09-02T22:11:24Z</time>
  <course>239.07</course>
  <speed>0.01</speed>
  <fix>3d</fix>
</trkpt>
<trkpt lat="33.8103218" lon="-118.3938634">
  <ele>-3.027</ele>
  <time>2026-09-02T22:11:24Z</time>
  <course>200.4</course>
  <speed>0.01</speed>
  <fix>3d</fix>
</trkpt>
<trkpt lat="33.8103217" lon="-118.3938637">
  <ele>-2.87</ele>
  <time>2026-09-02T22:11:24Z</time>
  <course>239.07</course>
  <speed>0.01</speed>
  <fix>3d</fix>
</trkpt>
<trkpt lat="33.8103218" lon="-118.3938634">
  <ele>-3.03</ele>
  <time>2026-09-02T22:11:24Z</time>
  <course>200.42</course>
  <speed>0.01</speed>
  <fix>3d</fix>
</trkpt>
<trkpt lat="33.8103217" lon="-118.3938637">
  <ele>-2.9</ele>
  <time>2026-09-02T22:11:24Z</time>
  <course>226.95</course>
  <speed>0.01</speed>
  <fix>3d</fix>
</trkpt>
<trkpt lat="33.8103218" lon="-118.3938634">
  <ele>-3.029</ele>
  <time>2026-09-02T22:11:24Z</time>
  <course>200.43</course>
  <speed>0.01</speed>
  <fix>3d</fix>
</trkpt>
<trkpt lat="33.8103217" lon="-118.3938637">
  <ele>-2.9</ele>
  <time>2026-09-02T22:11:24Z</time>
  <course>226.95</course>
  <speed>0.01</speed>
  <fix>3d</fix>
</trkpt>
<trkpt lat="33.8103218" lon="-118.3938635">
  <ele>-3.027</ele>
  <time>2026-09-02T22:11:24Z</time>
  <course>200.45</course>
  <speed>0.01</speed>
  <fix>3d</fix>
</trkpt>
<trkpt lat="33.8103217" lon="-118.3938637">
  <ele>-2.92</ele>
  <time>2026-09-02T22:11:24Z</time>
  <course>217.36</course>
  <speed>0.01</speed>
  <fix>3d</fix>
</trkpt>
<trkpt lat="33.8103218" lon="-118.3938635">
  <ele>-3.022</ele>
  <time>2026-09-02T22:11:24Z</time>
  <course>200.5</course>
  <speed>0.01</speed>
  <fix>3d</fix>
</trkpt>
<trkpt lat="33.8103217" lon="-118.3938637">
  <ele>-2.92</ele>
  <time>2026-09-02T22:11:24Z</time>
  <course>217.36</course>
  <speed>0.01</speed>
  <fix>3d</fix>
</trkpt>
<trkpt lat="33.8103218" lon="-118.3938635">
  <ele>-3.017</ele>
  <time>2026-09-02T22:11:24Z</time>
  <course>200.59</course>
  <speed>0.01</speed>
  <fix>3d</fix>
</trkpt>
<trkpt lat="33.8103217" lon="-118.3938637">
  <ele>-2.92</ele>
  <time>2026-09-02T22:11:24Z</time>
  <course>204.94</course>
  <speed>0.01</speed>
  <fix>3d</fix>
</trkpt>
<trkpt lat="33.8103218" lon="-118.3938635">
  <ele>-3.013</ele>
  <time>2026-09-02T22:11:24Z</time>
  <course>201.22</course>
  <speed>0.03</speed>
  <fix>3d</fix>
</trkpt>
<trkpt lat="33.8103217" lon="-118.3938637">
  <ele>-2.92</ele>
  <time>2026-09-02T22:11:24Z</time>
  <course>204.94</course>
  <speed>0.01</speed>
  <fix>3d</fix>
</trkpt>
<trkpt lat="33.8103218" lon="-118.3938635">
  <ele>-3.011</ele>
  <time>2026-09-02T22:11:24Z</time>
  <course>203.16</course>
  <speed>0.0412310562561766</speed>
  <fix>3d</fix>
</trkpt>
<trkpt lat="33.8103217" lon="-118.3938638">
  <ele>-2.93</ele>
  <time>2026-09-02T22:11:24Z</time>
  <course>145.54</course>
  <speed>0.01</speed>
  <fix>3d</fix>
</trkpt>
<trkpt lat="33.8103218" lon="-118.3938635">
  <ele>-3.012</ele>
  <time>2026-09-02T22:11:24Z</time>
  <course>206.03</course>
  <speed>0.05830951894845301</speed>
  <fix>3d</fix>
</trkpt>
<trkpt lat="33.8103217" lon="-118.3938638">
  <ele>-2.93</ele>
  <time>2026-09-02T22:11:24Z</time>
  <course>145.54</course>
  <speed>0.01</speed>
  <fix>3d</fix>
</trkpt>
<trkpt lat="33.8103218" lon="-118.3938635">
  <ele>-3.014</ele>
  <time>2026-09-02T22:11:24Z</time>
  <course>209.33</course>
  <speed>0.08602325267042626</speed>
  <fix>3d</fix>
</trkpt>
<trkpt lat="33.8103217" lon="-118.3938637">
  <ele>-2.93</ele>
  <time>2026-09-02T22:11:24Z</time>
  <course>74.32</course>
  <speed>0.02</speed>
  <fix>3d</fix>
</trkpt>
<trkpt lat="33.8103218" lon="-118.3938635">
  <ele>-3.015</ele>
  <time>2026-09-02T22:11:24Z</time>
  <course>212.94</course>
  <speed>0.13</speed>
  <fix>3d</fix>
</trkpt>
<trkpt lat="33.8103217" lon="-118.3938637">
  <ele>-2.93</ele>
  <time>2026-09-02T22:11:24Z</time>
  <course>74.32</course>
  <speed>0.02</speed>
  <fix>3d</fix>
</trkpt>
<trkpt lat="33.8103219" lon="-118.3938635">
  <ele>-3.016</ele>
  <time>2026-09-02T22:11:24Z</time>
  <course>216.78</course>
  <speed>0.17464249196572978</speed>
  <fix>3d</fix>
</trkpt>
<trkpt lat="33.8103217" lon="-118.3938637">
  <ele>-2.93</ele>
  <time>2026-09-02T22:11:24Z</time>
  <course>28.31</course>
  <speed>0.08</speed>
  <fix>3d</fix>
</trkpt>
<trkpt lat="33.8103221" lon="-118.3938634">
  <ele>-3.017</ele>
  <time>2026-09-02T22:11:24Z</time>
  <course>220.83</course>
  <speed>0.24331050121192876</speed>
  <fix>3d</fix>
</trkpt>
<trkpt lat="33.8103217" lon="-118.3938637">
  <ele>-2.93</ele>
  <time>2026-09-02T22:11:24Z</time>
  <course>28.31</course>
  <speed>0.08</speed>
  <fix>3d</fix>
</trkpt>
<trkpt lat="33.8103223" lon="-118.3938634">
  <ele>-3.018</ele>
  <time>2026-09-02T22:11:24Z</time>
  <course>225.06</course>
  <speed>0.31144823004794875</speed>
  <fix>3d</fix>
</trkpt>
<trkpt lat="33.8103219" lon="-118.3938636">
  <ele>-2.94</ele>
  <time>2026-09-02T22:11:24Z</time>
  <course>12.38</course>
  <speed>0.18</speed>
  <fix>3d</fix>
</trkpt>
<trkpt lat="33.8103226" lon="-118.3938634">
  <ele>-3.02</ele>
  <time>2026-09-02T22:11:24Z</time>
  <course>229.51</course>
  <speed>0.3911521443121589</speed>
  <fix>3d</fix>
</trkpt>
<trkpt lat="33.8103219" lon="-118.3938636">
  <ele>-2.94</ele>
  <time>2026-09-02T22:11:24Z</time>
  <course>12.38</course>
  <speed>0.18</speed>
  <fix>3d</fix>
</trkpt>
<trkpt lat="33.810323" lon="-118.3938634">
  <ele>-3.021</ele>
  <time>2026-09-02T22:11:24Z</time>
  <course>234.16</course>
  <speed>0.4709564735726646</speed>
  <fix>3d</fix>
</trkpt>
<trkpt lat="33.8103224" lon="-118.3938635">
  <ele>-2.94</ele>
  <time>2026-09-02T22:11:24Z</time>
  <course>6.71</course>
  <speed>0.31</speed>
  <fix>3d</fix>
</trkpt>
<trkpt lat="33.8103234" lon="-118.3938634">
  <ele>-3.022</ele>
  <time>2026-09-02T22:11:24Z</time>
  <course>239.02</course>
  <speed>0.5408326913195984</speed>
  <fix>3d</fix>
</trkpt>
<trkpt lat="33.8103224" lon="-118.3938635">
  <ele>-2.94</ele>
  <time>2026-09-02T22:11:24Z</time>
  <course>6.71</course>
  <speed>0.31</speed>
  <fix>3d</fix>
</trkpt>
<trkpt lat="33.8103239" lon="-118.3938633">
  <ele>-3.022</ele>
  <time>2026-09-02T22:11:24Z</time>
  <course>244.12</course>
  <speed>0.6107372593840988</speed>
  <fix>3d</fix>
</trkpt>
<trkpt lat="33.8103231" lon="-118.3938635">
  <ele>-2.95</ele>
  <time>2026-09-02T22:11:24Z</time>
  <course>4.81</course>
  <speed>0.46</speed>
  <fix>3d</fix>
</trkpt>
<trkpt lat="33.8103245" lon="-118.3938633">
  <ele>-3.022</ele>
  <time>2026-09-02T22:11:24Z</time>
  <course>249.52</course>
  <speed>0.6612110101926616</speed>
  <fix>3d</fix>
</trkpt>
<trkpt lat="33.8103231" lon="-118.3938635">
  <ele>-2.95</ele>
  <time>2026-09-02T22:11:24Z</time>
  <course>4.81</course>
  <speed>0.46</speed>
  <fix>3d</fix>
</trkpt>
<trkpt lat="33.8103251" lon="-118.3938633">
  <ele>-3.022</ele>
  <time>2026-09-02T22:11:24Z</time>
  <course>255.2</course>
  <speed>0.7106335201775947</speed>
  <fix>3d</fix>
</trkpt>
<trkpt lat="33.810324" lon="-118.3938634">
  <ele>-2.95</ele>
  <time>2026-09-02T22:11:24Z</time>
  <course>4.44</course>
  <speed>0.6</speed>
  <fix>3d</fix>
</trkpt>
<trkpt lat="33.8103257" lon="-118.3938632">
  <ele>-3.021</ele>
  <time>2026-09-02T22:11:24Z</time>
  <course>261.25</course>
  <speed>0.740607858451421</speed>
  <fix>3d</fix>
</trkpt>
<trkpt lat="33.810324" lon="-118.3938634">
  <ele>-2.95</ele>
  <time>2026-09-02T22:11:24Z</time>
  <course>4.44</course>
  <speed>0.6</speed>
  <fix>3d</fix>
</trkpt>
<trkpt lat="33.8103263" lon="-118.3938632">
  <ele>-3.02</ele>
  <time>2026-09-02T22:11:24Z</time>
  <course>267.57</course>
  <speed>0.7702596964660685</speed>
  <fix>3d</fix>
</trkpt>
<trkpt lat="33.8103252" lon="-118.3938633">
  <ele>-2.95</ele>
  <time>2026-09-02T22:11:24Z</time>
  <course>4.23</course>
  <speed>0.69</speed>
  <fix>3d</fix>
</trkpt>
<trkpt lat="33.810327" lon="-118.3938632">
  <ele>-3.018</ele>
  <time>2026-09-02T22:11:24Z</time>
  <course>274.09</course>
  <speed>0.8</speed>
  <fix>3d</fix>
</trkpt>
<trkpt lat="33.8103252" lon="-118.3938633">
  <ele>-2.95</ele>
  <time>2026-09-02T22:11:24Z</time>
  <course>4.23</course>
  <speed>0.69</speed>
  <fix>3d</fix>
</trkpt>
<trkpt lat="33.8103277" lon="-118.3938632">
  <ele>-3.016</ele>
  <time>2026-09-02T22:11:24Z</time>
  <course>280.69</course>
  <speed>0.8302409288875127</speed>
  <fix>3d</fix>
</trkpt>
<trkpt lat="33.8103265" lon="-118.3938632">
  <ele>-2.95</ele>
  <time>2026-09-02T22:11:24Z</time>
  <course>2.72</course>
  <speed>0.75</speed>
  <fix>3d</fix>
</trkpt>
<trkpt lat="33.8103284" lon="-118.3938632">
  <ele>-3.015</ele>
  <time>2026-09-02T22:11:24Z</time>
  <course>287.31</course>
  <speed>0.8609297300012354</speed>
  <fix>3d</fix>
</trkpt>
<trkpt lat="33.8103265" lon="-118.3938632">
  <ele>-2.95</ele>
  <time>2026-09-02T22:11:24Z</time>
  <course>2.72</course>
  <speed>0.75</speed>
  <fix>3d</fix>
</trkpt>
<trkpt lat="33.8103292" lon="-118.3938632">
  <ele>-3.016</ele>
  <time>2026-09-02T22:11:24Z</time>
  <course>293.87</course>
  <speed>0.8814193099768123</speed>
  <fix>3d</fix>
</trkpt>
<trkpt lat="33.8103279" lon="-118.3938632">
  <ele>-2.95</ele>
  <time>2026-09-02T22:11:24Z</time>
  <course>0.14</course>
  <speed>0.81</speed>
  <fix>3d</fix>
</trkpt>
<trkpt lat="33.81033" lon="-118.3938632">
  <ele>-3.018</ele>
  <time>2026-09-02T22:11:24Z</time>
  <course>300.3</course>
  <speed>0.9113725912051558</speed>
  <fix>3d</fix>
</trkpt>
<trkpt lat="33.8103279" lon="-118.3938632">
  <ele>-2.95</ele>
  <time>2026-09-02T22:11:24Z</time>
  <course>0.14</course>
  <speed>0.81</speed>
  <fix>3d</fix>
</trkpt>
<trkpt lat="33.8103308" lon="-118.3938633">
  <ele>-3.02</ele>
  <time>2026-09-02T22:11:24Z</time>
  <course>306.52</course>
  <speed>0.930859817588019</speed>
  <fix>3d</fix>
</trkpt>
<trkpt lat="33.8103294" lon="-118.3938632">
  <ele>-2.95</ele>
  <time>2026-09-02T22:11:24Z</time>
  <course>358.7</course>
  <speed>0.85</speed>
  <fix>3d</fix>
</trkpt>
<trkpt lat="33.8103316" lon="-118.3938633">
  <ele>-3.022</ele>
  <time>2026-09-02T22:11:24Z</time>
  <course>312.62</course>
  <speed>0.9504735661763561</speed>
  <fix>3d</fix>
</trkpt>
<trkpt lat="33.8103294" lon="-118.3938632">
  <ele>-2.95</ele>
  <time>2026-09-02T22:11:24Z</time>
  <course>358.7</course>
  <speed>0.85</speed>
  <fix>3d</fix>
</trkpt>
<trkpt lat="33.8103324" lon="-118.3938633">
  <ele>-3.023</ele>
  <time>2026-09-02T22:11:24Z</time>
  <course>318.51</course>
  <speed>0.9600520819205591</speed>
  <fix>3d</fix>
</trkpt>
<trkpt lat="33.810331" lon="-118.3938632">
  <ele>-2.96</ele>
  <time>2026-09-02T22:11:24Z</time>
  <course>359.44</course>
  <speed>0.89</speed>
  <fix>3d</fix>
</trkpt>
<trkpt lat="33.8103332" lon="-118.3938633">
  <ele>-3.025</ele>
  <time>2026-09-02T22:11:24Z</time>
  <course>324.33</course>
  <speed>0.97</speed>
  <fix>3d</fix>
</trkpt>
<trkpt lat="33.810331" lon="-118.3938632">
  <ele>-2.96</ele>
  <time>2026-09-02T22:11:24Z</time>
  <course>359.44</course>
  <speed>0.89</speed>
  <fix>3d</fix>
</trkpt>
<trkpt lat="33.8103341" lon="-118.3938633">
  <ele>-3.026</ele>
  <time>2026-09-02T22:11:24Z</time>
  <course>330.1</course>
  <speed>0.970051545022222</speed>
  <fix>3d</fix>
</trkpt>
<trkpt lat="33.8103326" lon="-118.3938632">
  <ele>-2.96</ele>
  <time>2026-09-02T22:11:24Z</time>
  <course>1.35</course>
  <speed>0.91</speed>
  <fix>3d</fix>
</trkpt>
<trkpt lat="33.8103349" lon="-118.3938633">
  <ele>-3.028</ele>
  <time>2026-09-02T22:11:24Z</time>
  <course>335.59</course>
  <speed>0.9502105029939419</speed>
  <fix>3d</fix>
</trkpt>
<trkpt lat="33.8103326" lon="-118.3938632">
  <ele>-2.96</ele>
  <time>2026-09-02T22:11:24Z</time>
  <course>1.35</course>
  <speed>0.91</speed>
  <fix>3d</fix>
</trkpt>
<trkpt lat="33.8103357" lon="-118.3938632">
  <ele>-3.028</ele>
  <time>2026-09-02T22:11:24Z</time>
  <course>340.64</course>
  <speed>0.9304837451562494</speed>
  <fix>3d</fix>
</trkpt>
<trkpt lat="33.8103342" lon="-118.3938631">
  <ele>-2.96</ele>
  <time>2026-09-02T22:11:24Z</time>
  <course>3.37</course>
  <speed>0.9</speed>
  <fix>3d</fix>
</trkpt>
<trkpt lat="33.8103365" lon="-118.3938632">
  <ele>-3.027</ele>
  <time>2026-09-02T22:11:24Z</time>
  <course>345.26</course>
  <speed>0.9204890004774636</speed>
  <fix>3d</fix>
</trkpt>
<trkpt lat="33.8103342" lon="-118.3938631">
  <ele>-2.96</ele>
  <time>2026-09-02T22:11:24Z</time>
  <course>3.37</course>
  <speed>0.9</speed>
  <fix>3d</fix>
</trkpt>
<trkpt lat="33.8103373" lon="-118.3938632">
  <ele>-3.026</ele>
  <time>2026-09-02T22:11:24Z</time>
  <course>349.32</course>
  <speed>0.910494371207203</speed>
  <fix>3d</fix>
</trkpt>
<trkpt lat="33.8103359" lon="-118.3938629">
  <ele>-2.96</ele>
  <time>2026-09-02T22:11:24Z</time>
  <course>4.82</course>
  <speed>0.87</speed>
  <fix>3d</fix>
</trkpt>
<trkpt lat="33.810338" lon="-118.3938631">
  <ele>-3.024</ele>
  <time>2026-09-02T22:11:24Z</time>
  <course>352.81</course>
  <speed>0.9000555538409837</speed>
  <fix>3d</fix>
</trkpt>
<trkpt lat="33.8103359" lon="-118.3938629">
  <ele>-2.96</ele>
  <time>2026-09-02T22:11:24Z</time>
  <course>4.82</course>
  <speed>0.87</speed>
  <fix>3d</fix>
</trkpt>
<trkpt lat="33.8103388" lon="-118.393863">
  <ele>-3.022</ele>
  <time>2026-09-02T22:11:24Z</time>
  <course>355.65</course>
  <speed>0.9</speed>
  <fix>3d</fix>
</trkpt>
<trkpt lat="33.8103374" lon="-118.3938628">
  <ele>-2.95</ele>
  <time>2026-09-02T22:11:24Z</time>
  <course>4.44</course>
  <speed>0.84</speed>
  <fix>3d</fix>
</trkpt>
<trkpt lat="33.8103395" lon="-118.393863">
  <ele>-3.022</ele>
  <time>2026-09-02T22:11:24Z</time>
  <course>357.68</course>
  <speed>0.9000555538409837</speed>
  <fix>3d</fix>
</trkpt>
<trkpt lat="33.8103374" lon="-118.3938628">
  <ele>-2.95</ele>
  <time>2026-09-02T22:11:24Z</time>
  <course>4.44</course>
  <speed>0.84</speed>
  <fix>3d</fix>
</trkpt>
<trkpt lat="33.8103403" lon="-118.393863">
  <ele>-3.022</ele>
  <time>2026-09-02T22:11:24Z</time>
  <course>358.83</course>
  <speed>0.900222194794152</speed>
  <fix>3d</fix>
</trkpt>
<trkpt lat="33.8103389" lon="-118.3938627">
  <ele>-2.94</ele>
  <time>2026-09-02T22:11:24Z</time>
  <course>2.39</course>
  <speed>0.82</speed>
  <fix>3d</fix>
</trkpt>
<trkpt lat="33.8103411" lon="-118.393863">
  <ele>-3.021</ele>
  <time>2026-09-02T22:11:24Z</time>
  <course>359.32</course>
  <speed>0.900499861188218</speed>
  <fix>3d</fix>
</trkpt>
<trkpt lat="33.8103389" lon="-118.3938627">
  <ele>-2.94</ele>
  <time>2026-09-02T22:11:24Z</time>
  <course>2.39</course>
  <speed>0.82</speed>
  <fix>3d</fix>
</trkpt>
<trkpt lat="33.8103418" lon="-118.393863">
  <ele>-3.019</ele>
  <time>2026-09-02T22:11:24Z</time>
  <course>359.45</course>
  <speed>0.900499861188218</speed>
  <fix>3d</fix>
</trkpt>
<trkpt lat="33.8103404" lon="-118.3938627">
  <ele>-2.94</ele>
  <time>2026-09-02T22:11:24Z</time>
  <course>0.31</course>
  <speed>0.81</speed>
  <fix>3d</fix>
</trkpt>
<trkpt lat="33.8103426" lon="-118.393863">
  <ele>-3.018</ele>
  <time>2026-09-02T22:11:24Z</time>
  <course>359.46</course>
  <speed>0.9108786966440703</speed>
  <fix>3d</fix>
</trkpt>
<trkpt lat="33.8103404" lon="-118.3938627">
  <ele>-2.94</ele>
  <time>2026-09-02T22:11:24Z</time>
  <course>0.31</course>
  <speed>0.81</speed>
  <fix>3d</fix>
</trkpt>
<trkpt lat="33.8103433" lon="-118.3938629">
  <ele>-3.016</ele>
  <time>2026-09-02T22:11:24Z</time>
  <course>359.46</course>
  <speed>0.9108786966440703</speed>
  <fix>3d</fix>
</trkpt>
<trkpt lat="33.8103418" lon="-118.3938627">
  <ele>-2.94</ele>
  <time>2026-09-02T22:11:24Z</time>
  <course>359.03</course>
  <speed>0.81</speed>
  <fix>3d</fix>
</trkpt>
<trkpt lat="33.8103441" lon="-118.3938629">
  <ele>-3.015</ele>
  <time>2026-09-02T22:11:24Z</time>
  <course>359.51</course>
  <speed>0.9108786966440703</speed>
  <fix>3d</fix>
</trkpt>
<trkpt lat="33.8103418" lon="-118.3938627">
  <ele>-2.94</ele>
  <time>2026-09-02T22:11:24Z</time>
  <course>359.03</course>
  <speed>0.81</speed>
  <fix>3d</fix>
</trkpt>
<trkpt lat="33.8103448" lon="-118.3938629">
  <ele>-3.015</ele>
  <time>2026-09-02T22:11:24Z</time>
  <course>359.59</course>
  <speed>0.910494371207203</speed>
  <fix>3d</fix>
</trkpt>
<trkpt lat="33.8103433" lon="-118.3938627">
  <ele>-2.94</ele>
  <time>2026-09-02T22:11:24Z</time>
  <course>358.45</course>
  <speed>0.82</speed>
  <fix>3d</fix>
</trkpt>
<trkpt lat="33.8103456" lon="-118.3938629">
  <ele>-3.015</ele>
  <time>2026-09-02T22:11:24Z</time>
  <course>359.68</course>
  <speed>0.9304837451562494</speed>
  <fix>3d</fix>
</trkpt>
<trkpt lat="33.8103433" lon="-118.3938627">
  <ele>-2.94</ele>
  <time>2026-09-02T22:11:24Z</time>
  <course>358.45</course>
  <speed>0.82</speed>
  <fix>3d</fix>
</trkpt>
<trkpt lat="33.8103463" lon="-118.393863">
  <ele>-3.015</ele>
  <time>2026-09-02T22:11:24Z</time>
  <course>359.77</course>
  <speed>0.9404786015641186</speed>
  <fix>3d</fix>
</trkpt>
<trkpt lat="33.8103448" lon="-118.3938627">
  <ele>-2.94</ele>
  <time>2026-09-02T22:11:24Z</time>
  <course>358.19</course>
  <speed>0.83</speed>
  <fix>3d</fix>
</trkpt>
<trkpt lat="33.8103471" lon="-118.393863">
  <ele>-3.016</ele>
  <time>2026-09-02T22:11:24Z</time>
  <course>359.88</course>
  <speed>0.9604686356149272</speed>
  <fix>3d</fix>
</trkpt>
<trkpt lat="33.8103448" lon="-118.3938627">
  <ele>-2.94</ele>
  <time>2026-09-02T22:11:24Z</time>
  <course>358.19</course>
  <speed>0.83</speed>
  <fix>3d</fix>
</trkpt>
<trkpt lat="33.8103479" lon="-118.393863">
  <ele>-3.017</ele>
  <time>2026-09-02T22:11:24Z</time>
  <course>359.98</course>
  <speed>0.9904544411531506</speed>
  <fix>3d</fix>
</trkpt>
<trkpt lat="33.8103463" lon="-118.3938627">
  <ele>-2.94</ele>
  <time>2026-09-02T22:11:24Z</time>
  <course>358.04</course>
  <speed>0.86</speed>
  <fix>3d</fix>
</trkpt>
<trkpt lat="33.8103488" lon="-118.393863">
  <ele>-3.017</ele>
  <time>2026-09-02T22:11:24Z</time>
  <course>0.07</course>
  <speed>1.0204410811016968</speed>
  <fix>3d</fix>
</trkpt>
<trkpt lat="33.8103463" lon="-118.3938627">
  <ele>-2.94</ele>
  <time>2026-09-02T22:11:24Z</time>
  <course>358.04</course>
  <speed>0.86</speed>
  <fix>3d</fix>
</trkpt>
<trkpt lat="33.8103496" lon="-118.393863">
  <ele>-3.017</ele>
  <time>2026-09-02T22:11:24Z</time>
  <course>0.16</course>
  <speed>1.0504284840006957</speed>
  <fix>3d</fix>
</trkpt>
<trkpt lat="33.8103479" lon="-118.3938628">
  <ele>-2.94</ele>
  <time>2026-09-02T22:11:24Z</time>
  <course>357.95</course>
  <speed>0.91</speed>
  <fix>3d</fix>
</trkpt>
<trkpt lat="33.8103505" lon="-118.393863">
  <ele>-3.016</ele>
  <time>2026-09-02T22:11:24Z</time>
  <course>0.26</course>
  <speed>1.0904127658827185</speed>
  <fix>3d</fix>
</trkpt>
<trkpt lat="33.8103479" lon="-118.3938628">
  <ele>-2.94</ele>
  <time>2026-09-02T22:11:24Z</time>
  <course>357.95</course>
  <speed>0.91</speed>
  <fix>3d</fix>
</trkpt>
<trkpt lat="33.8103514" lon="-118.393863">
  <ele>-3.017</ele>
  <time>2026-09-02T22:11:24Z</time>
  <course>0.38</course>
  <speed>1.1204017136723774</speed>
  <fix>3d</fix>
</trkpt>
<trkpt lat="33.8103496" lon="-118.3938628">
  <ele>-2.94</ele>
  <time>2026-09-02T22:11:24Z</time>
  <course>357.92</course>
  <speed>0.98</speed>
  <fix>3d</fix>
</trkpt>
<trkpt lat="33.8103523" lon="-118.393863">
  <ele>-3.017</ele>
  <time>2026-09-02T22:11:24Z</time>
  <course>0.5</course>
  <speed>1.150173899895142</speed>
  <fix>3d</fix>
</trkpt>
<trkpt lat="33.8103496" lon="-118.3938628">
  <ele>-2.94</ele>
  <time>2026-09-02T22:11:24Z</time>
  <course>357.92</course>
  <speed>0.98</speed>
  <fix>3d</fix>
</trkpt>
<trkpt lat="33.8103533" lon="-118.393863">
  <ele>-3.017</ele>
  <time>2026-09-02T22:11:24Z</time>
  <course>0.62</course>
  <speed>1.1801694793545543</speed>
  <fix>3d</fix>
</trkpt>
<trkpt lat="33.8103514" lon="-118.3938629">
  <ele>-2.94</ele>
  <time>2026-09-02T22:11:24Z</time>
  <course>357.95</course>
  <speed>1.05</speed>
  <fix>3d</fix>
</trkpt>
<trkpt lat="33.8103543" lon="-118.3938631">
  <ele>-3.017</ele>
  <time>2026-09-02T22:11:24Z</time>
  <course>0.74</course>
  <speed>1.2001666550941998</speed>
  <fix>3d</fix>
</trkpt>
<trkpt lat="33.8103514" lon="-118.3938629">
  <ele>-2.94</ele>
  <time>2026-09-02T22:11:24Z</time>
  <course>357.95</course>
  <speed>1.05</speed>
  <fix>3d</fix>
</trkpt>
<trkpt lat="33.8103553" lon="-118.3938631">
  <ele>-3.017</ele>
  <time>2026-09-02T22:11:24Z</time>
  <course>0.86</course>
  <speed>1.2201639234135715</speed>
  <fix>3d</fix>
</trkpt>
<trkpt lat="33.8103533" lon="-118.393863">
  <ele>-2.94</ele>
  <time>2026-09-02T22:11:24Z</time>
  <course>357.99</course>
  <speed>1.11</speed>
  <fix>3d</fix>
</trkpt>
<trkpt lat="33.8103563" lon="-118.3938631">
  <ele>-3.016</ele>
  <time>2026-09-02T22:11:24Z</time>
  <course>0.98</course>
  <speed>1.2301625908797584</speed>
  <fix>3d</fix>
</trkpt>
<trkpt lat="33.8103533" lon="-118.393863">
  <ele>-2.94</ele>
  <time>2026-09-02T22:11:24Z</time>
  <course>357.99</course>
  <speed>1.11</speed>
  <fix>3d</fix>
</trkpt>
<trkpt lat="33.8103573" lon="-118.3938631">
  <ele>-3.015</ele>
  <time>2026-09-02T22:11:24Z</time>
  <course>1.11</course>
  <speed>1.2400403219250575</speed>
  <fix>3d</fix>
</trkpt>
<trkpt lat="33.8103554" lon="-118.3938631">
  <ele>-2.93</ele>
  <time>2026-09-02T22:11:24Z</time>
  <course>358.09</course>
  <speed>1.16</speed>
  <fix>3d</fix>
</trkpt>
<trkpt lat="33.8103584" lon="-118.3938631">
  <ele>-3.013</ele>
  <time>2026-09-02T22:11:24Z</time>
  <course>1.23</course>
  <speed>1.2400403219250575</speed>
  <fix>3d</fix>
</trkpt>
<trkpt lat="33.8103554" lon="-118.3938631">
  <ele>-2.93</ele>
  <time>2026-09-02T22:11:24Z</time>
  <course>358.09</course>
  <speed>1.16</speed>
  <fix>3d</fix>
</trkpt>
<trkpt lat="33.8103594" lon="-118.3938631">
  <ele>-3.012</ele>
  <time>2026-09-02T22:11:24Z</time>
  <course>1.37</course>
  <speed>1.2400403219250575</speed>
  <fix>3d</fix>
</trkpt>
<trkpt lat="33.8103576" lon="-118.3938632">
  <ele>-2.93</ele>
  <time>2026-09-02T22:11:24Z</time>
  <course>358.24</course>
  <speed>1.19</speed>
  <fix>3d</fix>
</trkpt>
<trkpt lat="33.8103605" lon="-118.3938632">
  <ele>-3.012</ele>
  <time>2026-09-02T22:11:24Z</time>
  <course>1.49</course>
  <speed>1.2400403219250575</speed>
  <fix>3d</fix>
</trkpt>
<trkpt lat="33.8103576" lon="-118.3938632">
  <ele>-2.93</ele>
  <time>2026-09-02T22:11:24Z</time>
  <course>358.24</course>
  <speed>1.19</speed>
  <fix>3d</fix>
</trkpt>
<trkpt lat="33.8103615" lon="-118.3938632">
  <ele>-3.012</ele>
  <time>2026-09-02T22:11:24Z</time>
  <course>1.63</course>
  <speed>1.24</speed>
  <fix>3d</fix>
</trkpt>
<trkpt lat="33.8103597" lon="-118.3938632">
  <ele>-2.93</ele>
  <time>2026-09-02T22:11:24Z</time>
  <course>358.42</course>
  <speed>1.2</speed>
  <fix>3d</fix>
</trkpt>
<trkpt lat="33.8103626" lon="-118.3938632">
  <ele>-3.013</ele>
  <time>2026-09-02T22:11:24Z</time>
  <course>1.75</course>
  <speed>1.24</speed>
  <fix>3d</fix>
</trkpt>
<trkpt lat="33.8103597" lon="-118.3938632">
  <ele>-2.93</ele>
  <time>2026-09-02T22:11:24Z</time>
  <course>358.42</course>
  <speed>1.2</speed>
  <fix>3d</fix>
</trkpt>
<trkpt lat="33.8103637" lon="-118.3938632">
  <ele>-3.014</ele>
  <time>2026-09-02T22:11:24Z</time>
  <course>1.86</course>
  <speed>1.24</speed>
  <fix>3d</fix>
</trkpt>
<trkpt lat="33.8103618" lon="-118.3938633">
  <ele>-2.93</ele>
  <time>2026-09-02T22:11:24Z</time>
  <course>358.61</course>
  <speed>1.2</speed>
  <fix>3d</fix>
</trkpt>
<trkpt lat="33.8103647" lon="-118.3938632">
  <ele>-3.014</ele>
  <time>2026-09-02T22:11:24Z</time>
  <course>1.97</course>
  <speed>1.24</speed>
  <fix>3d</fix>
</trkpt>
<trkpt lat="33.8103618" lon="-118.3938633">
  <ele>-2.93</ele>
  <time>2026-09-02T22:11:24Z</time>
  <course>358.61</course>
  <speed>1.2</speed>
  <fix>3d</fix>
</trkpt>
<trkpt lat="33.8103658" lon="-118.3938632">
  <ele>-3.015</ele>
  <time>2026-09-02T22:11:24Z</time>
  <course>2.07</course>
  <speed>1.24</speed>
  <fix>3d</fix>
</trkpt>
<trkpt lat="33.8103641" lon="-118.3938634">
  <ele>-2.94</ele>
  <time>2026-09-02T22:11:24Z</time>
  <course>358.77</course>
  <speed>1.2</speed>
  <fix>3d</fix>
</trkpt>
<trkpt lat="33.8103668" lon="-118.3938632">
  <ele>-3.014</ele>
  <time>2026-09-02T22:11:24Z</time>
  <course>2.16</course>
  <speed>1.23</speed>
  <fix>3d</fix>
</trkpt>
<trkpt lat="33.8103641" lon="-118.3938634">
  <ele>-2.94</ele>
  <time>2026-09-02T22:11:24Z</time>
  <course>358.77</course>
  <speed>1.2</speed>
  <fix>3d</fix>
</trkpt>
<trkpt lat="33.8103679" lon="-118.3938633">
  <ele>-3.013</ele>
  <time>2026-09-02T22:11:24Z</time>
  <course>2.25</course>
  <speed>1.23</speed>
  <fix>3d</fix>
</trkpt>
<trkpt lat="33.8103662" lon="-118.3938634">
  <ele>-2.94</ele>
  <time>2026-09-02T22:11:24Z</time>
  <course>358.94</course>
  <speed>1.21</speed>
  <fix>3d</fix>
</trkpt>
<trkpt lat="33.810369" lon="-118.3938633">
  <ele>-3.013</ele>
  <time>2026-09-02T22:11:24Z</time>
  <course>2.34</course>
  <speed>1.23</speed>
  <fix>3d</fix>
</trkpt>
<trkpt lat="33.8103662" lon="-118.3938634">
  <ele>-2.94</ele>
  <time>2026-09-02T22:11:24Z</time>
  <course>358.94</course>
  <speed>1.21</speed>
  <fix>3d</fix>
</trkpt>
<trkpt lat="33.8103701" lon="-118.3938633">
  <ele>-3.013</ele>
  <time>2026-09-02T22:11:24Z</time>
  <course>2.42</course>
  <speed>1.23</speed>
  <fix>3d</fix>
</trkpt>
<trkpt lat="33.8103684" lon="-118.3938635">
  <ele>-2.94</ele>
  <time>2026-09-02T22:11:24Z</time>
  <course>359.11</course>
  <speed>1.21</speed>
  <fix>3d</fix>
</trkpt>
<trkpt lat="33.8103711" lon="-118.3938633">
  <ele>-3.013</ele>
  <time>2026-09-02T22:11:24Z</time>
  <course>2.5</course>
  <speed>1.2200409829181968</speed>
  <fix>3d</fix>
</trkpt>
<trkpt lat="33.8103684" lon="-118.3938635">
  <ele>-2.94</ele>
  <time>2026-09-02T22:11:24Z</time>
  <course>359.11</course>
  <speed>1.21</speed>
  <fix>3d</fix>
</trkpt>
<trkpt lat="33.8103722" lon="-118.3938634">
  <ele>-3.013</ele>
  <time>2026-09-02T22:11:24Z</time>
  <course>2.57</course>
  <speed>1.2200409829181968</speed>
  <fix>3d</fix>
</trkpt>
<trkpt lat="33.8103706" lon="-118.3938635">
  <ele>-2.94</ele>
  <time>2026-09-02T22:11:24Z</time>
  <course>359.26</course>
  <speed>1.21</speed>
  <fix>3d</fix>
</trkpt>
<trkpt lat="33.8103733" lon="-118.3938634">
  <ele>-3.013</ele>
  <time>2026-09-02T22:11:24Z</time>
  <course>2.64</course>
  <speed>1.2200409829181968</speed>
  <fix>3d</fix>
</trkpt>
<trkpt lat="33.8103706" lon="-118.3938635">
  <ele>-2.94</ele>
  <time>2026-09-02T22:11:24Z</time>
  <course>359.26</course>
  <speed>1.21</speed>
  <fix>3d</fix>
</trkpt>
<trkpt lat="33.8103744" lon="-118.3938634">
  <ele>-3.011</ele>
  <time>2026-09-02T22:11:24Z</time>
  <course>2.7</course>
  <speed>1.2100413216084813</speed>
  <fix>3d</fix>
</trkpt>
<trkpt lat="33.8103727" lon="-118.3938636">
  <ele>-2.94</ele>
  <time>2026-09-02T22:11:24Z</time>
  <course>359.4</course>
  <speed>1.21</speed>
  <fix>3d</fix>
</trkpt>
<trkpt lat="33.8103754" lon="-118.3938634">
  <ele>-3.01</ele>
  <time>2026-09-02T22:11:24Z</time>
  <course>2.76</course>
  <speed>1.2100413216084813</speed>
  <fix>3d</fix>
</trkpt>
<trkpt lat="33.8103727" lon="-118.3938636">
  <ele>-2.94</ele>
  <time>2026-09-02T22:11:24Z</time>
  <course>359.4</course>
  <speed>1.21</speed>
  <fix>3d</fix>
</trkpt>
<trkpt lat="33.8103765" lon="-118.3938634">
  <ele>-3.009</ele>
  <time>2026-09-02T22:11:24Z</time>
  <course>2.82</course>
  <speed>1.2100413216084813</speed>
  <fix>3d</fix>
</trkpt>
<trkpt lat="33.8103749" lon="-118.3938636">
  <ele>-2.94</ele>
  <time>2026-09-02T22:11:24Z</time>
  <course>359.53</course>
  <speed>1.2</speed>
  <fix>3d</fix>
</trkpt>
<trkpt lat="33.8103776" lon="-118.3938634">
  <ele>-3.008</ele>
  <time>2026-09-02T22:11:24Z</time>
  <course>2.87</course>
  <speed>1.2100413216084813</speed>
  <fix>3d</fix>
</trkpt>
<trkpt lat="33.8103749" lon="-118.3938636">
  <ele>-2.94</ele>
  <time>2026-09-02T22:11:24Z</time>
  <course>359.53</course>
  <speed>1.2</speed>
  <fix>3d</fix>
</trkpt>
<trkpt lat="33.8103786" lon="-118.3938634">
  <ele>-3.009</ele>
  <time>2026-09-02T22:11:24Z</time>
  <course>2.92</course>
  <speed>1.2000416659433122</speed>
  <fix>3d</fix>
</trkpt>
<trkpt lat="33.810377" lon="-118.3938636">
  <ele>-2.94</ele>
  <time>2026-09-02T22:11:24Z</time>
  <course>359.66</course>
  <speed>1.2</speed>
  <fix>3d</fix>
</trkpt>
<trkpt lat="33.8103797" lon="-118.3938634">
  <ele>-3.009</ele>
  <time>2026-09-02T22:11:24Z</time>
  <course>2.97</course>
  <speed>1.2000416659433122</speed>
  <fix>3d</fix>
</trkpt>
<trkpt lat="33.810377" lon="-118.3938636">
  <ele>-2.94</ele>
  <time>2026-09-02T22:11:24Z</time>
  <course>359.66</course>
  <speed>1.2</speed>
  <fix>3d</fix>
</trkpt>
<trkpt lat="33.8103808" lon="-118.3938634">
  <ele>-3.009</ele>
  <time>2026-09-02T22:11:24Z</time>
  <course>3.0</course>
  <speed>1.2001666550941998</speed>
  <fix>3d</fix>
</trkpt>
<trkpt lat="33.8103792" lon="-118.3938636">
  <ele>-2.94</ele>
  <time>2026-09-02T22:11:24Z</time>
  <course>359.77</course>
  <speed>1.2</speed>
  <fix>3d</fix>
</trkpt>
<trkpt lat="33.8103818" lon="-118.3938634">
  <ele>-3.011</ele>
  <time>2026-09-02T22:11:24Z</time>
  <course>3.03</course>
  <speed>1.2001666550941998</speed>
  <fix>3d</fix>
</trkpt>
<trkpt lat="33.8103792" lon="-118.3938636">
  <ele>-2.94</ele>
  <time>2026-09-02T22:11:24Z</time>
  <course>359.77</course>
  <speed>1.2</speed>
  <fix>3d</fix>
</trkpt>
<trkpt lat="33.8103829" lon="-118.3938634">
  <ele>-3.012</ele>
  <time>2026-09-02T22:11:24Z</time>
  <course>3.05</course>
  <speed>1.1901680553602503</speed>
  <fix>3d</fix>
</trkpt>
<trkpt lat="33.8103814" lon="-118.3938636">
  <ele>-2.94</ele>
  <time>2026-09-02T22:11:24Z</time>
  <course>359.82</course>
  <speed>1.2</speed>
  <fix>3d</fix>
</trkpt>
<trkpt lat="33.810384" lon="-118.3938634">
  <ele>-3.013</ele>
  <time>2026-09-02T22:11:24Z</time>
  <course>3.05</course>
  <speed>1.1901680553602503</speed>
  <fix>3d</fix>
</trkpt>
<trkpt lat="33.8103814" lon="-118.3938636">
  <ele>-2.94</ele>
  <time>2026-09-02T22:11:24Z</time>
  <course>359.82</course>
  <speed>1.2</speed>
  <fix>3d</fix>
</trkpt>
<trkpt lat="33.810385" lon="-118.3938634">
  <ele>-3.015</ele>
  <time>2026-09-02T22:11:24Z</time>
  <course>3.06</course>
  <speed>1.1901680553602503</speed>
  <fix>3d</fix>
</trkpt>
<trkpt lat="33.8103835" lon="-118.3938636">
  <ele>-2.95</ele>
  <time>2026-09-02T22:11:24Z</time>
  <course>359.85</course>
  <speed>1.2</speed>
  <fix>3d</fix>
</trkpt>
<trkpt lat="33.8103861" lon="-118.3938634">
  <ele>-3.017</ele>
  <time>2026-09-02T22:11:24Z</time>
  <course>3.05</course>
  <speed>1.1901680553602503</speed>
  <fix>3d</fix>
</trkpt>
<trkpt lat="33.8103835" lon="-118.3938636">
  <ele>-2.95</ele>
  <time>2026-09-02T22:11:24Z</time>
  <course>359.85</course>
  <speed>1.2</speed>
  <fix>3d</fix>
</trkpt>
<trkpt lat="33.8103872" lon="-118.3938634">
  <ele>-3.018</ele>
  <time>2026-09-02T22:11:24Z</time>
  <course>3.04</course>
  <speed>1.1901680553602503</speed>
  <fix>3d</fix>
</trkpt>
<trkpt lat="33.8103857" lon="-118.3938636">
  <ele>-2.95</ele>
  <time>2026-09-02T22:11:24Z</time>
  <course>359.86</course>
  <speed>1.2</speed>
  <fix>3d</fix>
</trkpt>
<trkpt lat="33.8103882" lon="-118.3938634">
  <ele>-3.018</ele>
  <time>2026-09-02T22:11:24Z</time>
  <course>3.03</course>
  <speed>1.1801694793545543</speed>
  <fix>3d</fix>
</trkpt>
<trkpt lat="33.8103857" lon="-118.3938636">
  <ele>-2.95</ele>
  <time>2026-09-02T22:11:24Z</time>
  <course>359.86</course>
  <speed>1.2</speed>
  <fix>3d</fix>
</trkpt>
<trkpt lat="33.8103893" lon="-118.3938634">
  <ele>-3.017</ele>
  <time>2026-09-02T22:11:24Z</time>
  <course>3.02</course>
  <speed>1.1801694793545543</speed>
  <fix>3d</fix>
</trkpt>
<trkpt lat="33.8103878" lon="-118.3938637">
  <ele>-2.95</ele>
  <time>2026-09-02T22:11:24Z</time>
  <course>359.87</course>
  <speed>1.2</speed>
  <fix>3d</fix>
</trkpt>
<trkpt lat="33.8103903" lon="-118.3938634">
  <ele>-3.015</ele>
  <time>2026-09-02T22:11:24Z</time>
  <course>3.01</course>
  <speed>1.1801694793545543</speed>
  <fix>3d</fix>
</trkpt>
<trkpt lat="33.8103878" lon="-118.3938637">
  <ele>-2.95</ele>
  <time>2026-09-02T22:11:24Z</time>
  <course>359.87</course>
  <speed>1.2</speed>
  <fix>3d</fix>
</trkpt>
<trkpt lat="33.8103914" lon="-118.3938634">
  <ele>-3.014</ele>
  <time>2026-09-02T22:11:24Z</time>
  <course>3.01</course>
  <speed>1.1801694793545543</speed>
  <fix>3d</fix>
</trkpt>
<trkpt lat="33.8103901" lon="-118.3938637">
  <ele>-2.95</ele>
  <time>2026-09-02T22:11:24Z</time>
  <course>359.9</course>
  <speed>1.2</speed>
  <fix>3d</fix>
</trkpt>
<trkpt lat="33.8103925" lon="-118.3938634">
  <ele>-3.013</ele>
  <time>2026-09-02T22:11:24Z</time>
  <course>3.02</course>
  <speed>1.1801694793545543</speed>
  <fix>3d</fix>
</trkpt>
<trkpt lat="33.8103901" lon="-118.3938637">
  <ele>-2.95</ele>
  <time>2026-09-02T22:11:24Z</time>
  <course>359.9</course>
  <speed>1.2</speed>
  <fix>3d</fix>
</trkpt>
<trkpt lat="33.8103936" lon="-118.3938635">
  <ele>-3.014</ele>
  <time>2026-09-02T22:11:24Z</time>
  <course>3.03</course>
  <speed>1.1801694793545543</speed>
  <fix>3d</fix>
</trkpt>
<trkpt lat="33.8103922" lon="-118.3938637">
  <ele>-2.94</ele>
  <time>2026-09-02T22:11:24Z</time>
  <course>359.98</course>
  <speed>1.2</speed>
  <fix>3d</fix>
</trkpt>
<trkpt lat="33.8103946" lon="-118.3938635">
  <ele>-3.015</ele>
  <time>2026-09-02T22:11:24Z</time>
  <course>3.03</course>
  <speed>1.1801694793545543</speed>
  <fix>3d</fix>
</trkpt>
<trkpt lat="33.8103922" lon="-118.3938637">
  <ele>-2.94</ele>
  <time>2026-09-02T22:11:24Z</time>
  <course>359.98</course>
  <speed>1.2</speed>
  <fix>3d</fix>
</trkpt>
<trkpt lat="33.8103957" lon="-118.3938635">
  <ele>-3.016</ele>
  <time>2026-09-02T22:11:24Z</time>
  <course>3.04</course>
  <speed>1.1801694793545543</speed>
  <fix>3d</fix>
</trkpt>
<trkpt lat="33.8103944" lon="-118.3938637">
  <ele>-2.94</ele>
  <time>2026-09-02T22:11:24Z</time>
  <course>0.05</course>
  <speed>1.2</speed>
  <fix>3d</fix>
</trkpt>
<trkpt lat="33.8103968" lon="-118.3938635">
  <ele>-3.014</ele>
  <time>2026-09-02T22:11:24Z</time>
  <course>3.04</course>
  <speed>1.1801694793545543</speed>
  <fix>3d</fix>
</trkpt>
<trkpt lat="33.8103944" lon="-118.3938637">
  <ele>-2.94</ele>
  <time>2026-09-02T22:11:24Z</time>
  <course>0.05</course>
  <speed>1.2</speed>
  <fix>3d</fix>
</trkpt>
<trkpt lat="33.8103979" lon="-118.3938635">
  <ele>-3.013</ele>
  <time>2026-09-02T22:11:24Z</time>
  <course>3.04</course>
  <speed>1.1801694793545543</speed>
  <fix>3d</fix>
</trkpt>
<trkpt lat="33.8103965" lon="-118.3938637">
  <ele>-2.94</ele>
  <time>2026-09-02T22:11:24Z</time>
  <course>0.11</course>
  <speed>1.2</speed>
  <fix>3d</fix>
</trkpt>
<trkpt lat="33.8103989" lon="-118.3938635">
  <ele>-3.011</ele>
  <time>2026-09-02T22:11:24Z</time>
  <course>3.04</course>
  <speed>1.1801694793545543</speed>
  <fix>3d</fix>
</trkpt>
<trkpt lat="33.8103965" lon="-118.3938637">
  <ele>-2.94</ele>
  <time>2026-09-02T22:11:24Z</time>
  <course>0.11</course>
  <speed>1.2</speed>
  <fix>3d</fix>
</trkpt>
<trkpt lat="33.8104" lon="-118.3938635">
  <ele>-3.01</ele>
  <time>2026-09-02T22:11:24Z</time>
  <course>3.03</course>
  <speed>1.1801694793545543</speed>
  <fix>3d</fix>
</trkpt>
<trkpt lat="33.8103987" lon="-118.3938637">
  <ele>-2.94</ele>
  <time>2026-09-02T22:11:24Z</time>
  <course>0.15</course>
  <speed>1.2</speed>
  <fix>3d</fix>
</trkpt>
<trkpt lat="33.8104011" lon="-118.3938635">
  <ele>-3.009</ele>
  <time>2026-09-02T22:11:24Z</time>
  <course>3.03</course>
  <speed>1.1801694793545543</speed>
  <fix>3d</fix>
</trkpt>
<trkpt lat="33.8103987" lon="-118.3938637">
  <ele>-2.94</ele>
  <time>2026-09-02T22:11:24Z</time>
  <course>0.15</course>
  <speed>1.2</speed>
  <fix>3d</fix>
</trkpt>
<trkpt lat="33.8104022" lon="-118.3938635">
  <ele>-3.009</ele>
  <time>2026-09-02T22:11:24Z</time>
  <course>3.01</course>
  <speed>1.1801694793545543</speed>
  <fix>3d</fix>
</trkpt>
<trkpt lat="33.8104008" lon="-118.3938637">
  <ele>-2.94</ele>
  <time>2026-09-02T22:11:24Z</time>
  <course>0.18</course>
  <speed>1.2</speed>
  <fix>3d</fix>
</trkpt>
<trkpt lat="33.8104032" lon="-118.3938635">
  <ele>-3.009</ele>
  <time>2026-09-02T22:11:24Z</time>
  <course>3.0</course>
  <speed>1.1801694793545543</speed>
  <fix>3d</fix>
</trkpt>
<trkpt lat="33.8104008" lon="-118.3938637">
  <ele>-2.94</ele>
  <time>2026-09-02T22:11:24Z</time>
  <course>0.18</course>
  <speed>1.2</speed>
  <fix>3d</fix>
</trkpt>
<trkpt lat="33.8104043" lon="-118.3938635">
  <ele>-3.009</ele>
  <time>2026-09-02T22:11:24Z</time>
  <course>2.98</course>
  <speed>1.1801694793545543</speed>
  <fix>3d</fix>
</trkpt>
<trkpt lat="33.8104029" lon="-118.3938637">
  <ele>-2.94</ele>
  <time>2026-09-02T22:11:24Z</time>
  <course>0.21</course>
  <speed>1.2</speed>
  <fix>3d</fix>
</trkpt>
<trkpt lat="33.8104054" lon="-118.3938635">
  <ele>-3.011</ele>
  <time>2026-09-02T22:11:24Z</time>
  <course>2.96</course>
  <speed>1.1801694793545543</speed>
  <fix>3d</fix>
</trkpt>
<trkpt lat="33.8104029" lon="-118.3938637">
  <ele>-2.94</ele>
  <time>2026-09-02T22:11:24Z</time>
  <course>0.21</course>
  <speed>1.2</speed>
  <fix>3d</fix>
</trkpt>
<trkpt lat="33.8104065" lon="-118.3938635">
  <ele>-3.012</ele>
  <time>2026-09-02T22:11:24Z</time>
  <course>2.94</course>
  <speed>1.1801694793545543</speed>
  <fix>3d</fix>
</trkpt>
<trkpt lat="33.8104052" lon="-118.3938637">
  <ele>-2.94</ele>
  <time>2026-09-02T22:11:24Z</time>
  <course>0.23</course>
  <speed>1.2</speed>
  <fix>3d</fix>
</trkpt>
<trkpt lat="33.8104075" lon="-118.3938635">
  <ele>-3.012</ele>
  <time>2026-09-02T22:11:24Z</time>
  <course>2.92</course>
  <speed>1.1801694793545543</speed>
  <fix>3d</fix>
</trkpt>
<trkpt lat="33.8104052" lon="-118.3938637">
  <ele>-2.94</ele>
  <time>2026-09-02T22:11:24Z</time>
  <course>0.23</course>
  <speed>1.2</speed>
  <fix>3d</fix>
</trkpt>
<trkpt lat="33.8104086" lon="-118.3938635">
  <ele>-3.011</ele>
  <time>2026-09-02T22:11:25Z</time>
  <course>2.9</course>
  <speed>1.1801694793545543</speed>
  <fix>3d</fix>
</trkpt>
<trkpt lat="33.8104074" lon="-118.3938637">
  <ele>-2.94</ele>
  <time>2026-09-02T22:11:25Z</time>
  <course>0.26</course>
  <speed>1.21</speed>
  <fix>3d</fix>
</trkpt>
<trkpt lat="33.8104097" lon="-118.3938635">
  <ele>-3.011</ele>
  <time>2026-09-02T22:11:25Z</time>
  <course>2.88</course>
  <speed>1.1801694793545543</speed>
  <fix>3d</fix>
</trkpt>
<trkpt lat="33.8104074" lon="-118.3938637">
  <ele>-2.94</ele>
  <time>2026-09-02T22:11:25Z</time>
  <course>0.26</course>
  <speed>1.21</speed>
  <fix>3d</fix>
</trkpt>
<trkpt lat="33.8104108" lon="-118.3938635">
  <ele>-3.011</ele>
  <time>2026-09-02T22:11:25Z</time>
  <course>2.86</course>
  <speed>1.1801694793545543</speed>
  <fix>3d</fix>
</trkpt>
<trkpt lat="33.8104096" lon="-118.3938637">
  <ele>-2.94</ele>
  <time>2026-09-02T22:11:25Z</time>
  <course>0.28</course>
  <speed>1.21</speed>
  <fix>3d</fix>
</trkpt>
<trkpt lat="33.8104119" lon="-118.3938635">
  <ele>-3.012</ele>
  <time>2026-09-02T22:11:25Z</time>
  <course>2.83</course>
  <speed>1.1801694793545543</speed>
  <fix>3d</fix>
</trkpt>
<trkpt lat="33.8104096" lon="-118.3938637">
  <ele>-2.94</ele>
  <time>2026-09-02T22:11:25Z</time>
  <course>0.28</course>
  <speed>1.21</speed>
  <fix>3d</fix>
</trkpt>
<trkpt lat="33.810413" lon="-118.3938635">
  <ele>-3.012</ele>
  <time>2026-09-02T22:11:25Z</time>
  <course>2.81</course>
  <speed>1.1801694793545543</speed>
  <fix>3d</fix>
</trkpt>
<trkpt lat="33.8104117" lon="-118.3938637">
  <ele>-2.94</ele>
  <time>2026-09-02T22:11:25Z</time>
  <course>0.29</course>
  <speed>1.21</speed>
  <fix>3d</fix>
</trkpt>
<trkpt lat="33.8104141" lon="-118.3938635">
  <ele>-3.012</ele>
  <time>2026-09-02T22:11:25Z</time>
  <course>2.79</course>
  <speed>1.1901680553602503</speed>
  <fix>3d</fix>
</trkpt>
<trkpt lat="33.8104117" lon="-118.3938637">
  <ele>-2.94</ele>
  <time>2026-09-02T22:11:25Z</time>
  <course>0.29</course>
  <speed>1.21</speed>
  <fix>3d</fix>
</trkpt>
<trkpt lat="33.8104152" lon="-118.3938635">
  <ele>-3.011</ele>
  <time>2026-09-02T22:11:25Z</time>
  <course>2.77</course>
  <speed>1.1901680553602503</speed>
  <fix>3d</fix>
</trkpt>
<trkpt lat="33.8104139" lon="-118.3938637">
  <ele>-2.93</ele>
  <time>2026-09-02T22:11:25Z</time>
  <course>0.31</course>
  <speed>1.22</speed>
  <fix>3d</fix>
</trkpt>
<trkpt lat="33.8104163" lon="-118.3938635">
  <ele>-3.01</ele>
  <time>2026-09-02T22:11:25Z</time>
  <course>2.74</course>
  <speed>1.1901680553602503</speed>
  <fix>3d</fix>
</trkpt>
<trkpt lat="33.8104139" lon="-118.3938637">
  <ele>-2.93</ele>
  <time>2026-09-02T22:11:25Z</time>
  <course>0.31</course>
  <speed>1.22</speed>
  <fix>3d</fix>
</trkpt>
<trkpt lat="33.8104174" lon="-118.3938635">
  <ele>-3.009</ele>
  <time>2026-09-02T22:11:25Z</time>
  <course>2.71</course>
  <speed>1.1901680553602503</speed>
  <fix>3d</fix>
</trkpt>
<trkpt lat="33.8104161" lon="-118.3938637">
  <ele>-2.93</ele>
  <time>2026-09-02T22:11:25Z</time>
  <course>0.32</course>
  <speed>1.22</speed>
  <fix>3d</fix>
</trkpt>
<trkpt lat="33.8104185" lon="-118.3938635">
  <ele>-3.007</ele>
  <time>2026-09-02T22:11:25Z</time>
  <course>2.69</course>
  <speed>1.1901680553602503</speed>
  <fix>3d</fix>
</trkpt>
<trkpt lat="33.8104161" lon="-118.3938637">
  <ele>-2.93</ele>
  <time>2026-09-02T22:11:25Z</time>
  <course>0.32</course>
  <speed>1.22</speed>
  <fix>3d</fix>
</trkpt>
<trkpt lat="33.8104196" lon="-118.3938634">
  <ele>-3.006</ele>
  <time>2026-09-02T22:11:25Z</time>
  <course>2.66</course>
  <speed>1.1901680553602503</speed>
  <fix>3d</fix>
</trkpt>
<trkpt lat="33.8104182" lon="-118.3938636">
  <ele>-2.93</ele>
  <time>2026-09-02T22:11:25Z</time>
  <course>0.34</course>
  <speed>1.22</speed>
  <fix>3d</fix>
</trkpt>
<trkpt lat="33.8104207" lon="-118.3938634">
  <ele>-3.006</ele>
  <time>2026-09-02T22:11:25Z</time>
  <course>2.63</course>
  <speed>1.1901680553602503</speed>
  <fix>3d</fix>
</trkpt>
<trkpt lat="33.8104182" lon="-118.3938636">
  <ele>-2.93</ele>
  <time>2026-09-02T22:11:25Z</time>
  <course>0.34</course>
  <speed>1.22</speed>
  <fix>3d</fix>
</trkpt>
<trkpt lat="33.8104218" lon="-118.3938634">
  <ele>-3.006</ele>
  <time>2026-09-02T22:11:25Z</time>
  <course>2.59</course>
  <speed>1.2001666550941998</speed>
  <fix>3d</fix>
</trkpt>
<trkpt lat="33.8104205" lon="-118.3938636">
  <ele>-2.93</ele>
  <time>2026-09-02T22:11:25Z</time>
  <course>0.32</course>
  <speed>1.23</speed>
  <fix>3d</fix>
</trkpt>
<trkpt lat="33.8104229" lon="-118.3938634">
  <ele>-3.006</ele>
  <time>2026-09-02T22:11:25Z</time>
  <course>2.54</course>
  <speed>1.2001666550941998</speed>
  <fix>3d</fix>
</trkpt>
<trkpt lat="33.8104205" lon="-118.3938636">
  <ele>-2.93</ele>
  <time>2026-09-02T22:11:25Z</time>
  <course>0.32</course>
  <speed>1.23</speed>
  <fix>3d</fix>
</trkpt>
<trkpt lat="33.810424" lon="-118.3938634">
  <ele>-3.007</ele>
  <time>2026-09-02T22:11:25Z</time>
  <course>2.49</course>
  <speed>1.2001666550941998</speed>
  <fix>3d</fix>
</trkpt>
<trkpt lat="33.8104227" lon="-118.3938636">
  <ele>-2.93</ele>
  <time>2026-09-02T22:11:25Z</time>
  <course>0.27</course>
  <speed>1.23</speed>
  <fix>3d</fix>
</trkpt>
<trkpt lat="33.8104251" lon="-118.3938634">
  <ele>-3.007</ele>
  <time>2026-09-02T22:11:25Z</time>
  <course>2.43</course>
  <speed>1.2001666550941998</speed>
  <fix>3d</fix>
</trkpt>
<trkpt lat="33.8104227" lon="-118.3938636">
  <ele>-2.93</ele>
  <time>2026-09-02T22:11:25Z</time>
  <course>0.27</course>
  <speed>1.23</speed>
  <fix>3d</fix>
</trkpt>
<trkpt lat="33.8104262" lon="-118.3938634">
  <ele>-3.007</ele>
  <time>2026-09-02T22:11:25Z</time>
  <course>2.38</course>
  <speed>1.2001666550941998</speed>
  <fix>3d</fix>
</trkpt>
<trkpt lat="33.8104249" lon="-118.3938636">
  <ele>-2.93</ele>
  <time>2026-09-02T22:11:25Z</time>
  <course>0.22</course>
  <speed>1.24</speed>
  <fix>3d</fix>
</trkpt>
<trkpt lat="33.8104273" lon="-118.3938634">
  <ele>-3.006</ele>
  <time>2026-09-02T22:11:25Z</time>
  <course>2.33</course>
  <speed>1.2001666550941998</speed>
  <fix>3d</fix>
</trkpt>
<trkpt lat="33.8104249" lon="-118.3938636">
  <ele>-2.93</ele>
  <time>2026-09-02T22:11:25Z</time>
  <course>0.22</course>
  <speed>1.24</speed>
  <fix>3d</fix>
</trkpt>
<trkpt lat="33.8104284" lon="-118.3938634">
  <ele>-3.006</ele>
  <time>2026-09-02T22:11:25Z</time>
  <course>2.29</course>
  <speed>1.2101652779682617</speed>
  <fix>3d</fix>
</trkpt>
<trkpt lat="33.8104272" lon="-118.3938636">
  <ele>-2.93</ele>
  <time>2026-09-02T22:11:25Z</time>
  <course>0.18</course>
  <speed>1.24</speed>
  <fix>3d</fix>
</trkpt>
<trkpt lat="33.8104296" lon="-118.3938634">
  <ele>-3.006</ele>
  <time>2026-09-02T22:11:25Z</time>
  <course>2.25</course>
  <speed>1.2101652779682617</speed>
  <fix>3d</fix>
</trkpt>
<trkpt lat="33.8104272" lon="-118.3938636">
  <ele>-2.93</ele>
  <time>2026-09-02T22:11:25Z</time>
  <course>0.18</course>
  <speed>1.24</speed>
  <fix>3d</fix>
</trkpt>
<trkpt lat="33.8104307" lon="-118.3938634">
  <ele>-3.005</ele>
  <time>2026-09-02T22:11:25Z</time>
  <course>2.22</course>
  <speed>1.2101652779682617</speed>
  <fix>3d</fix>
</trkpt>
<trkpt lat="33.8104294" lon="-118.3938636">
  <ele>-2.93</ele>
  <time>2026-09-02T22:11:25Z</time>
  <course>0.16</course>
  <speed>1.24</speed>
  <fix>3d</fix>
</trkpt>
<trkpt lat="33.8104318" lon="-118.3938634">
  <ele>-3.005</ele>
  <time>2026-09-02T22:11:25Z</time>
  <course>2.18</course>
  <speed>1.2101652779682617</speed>
  <fix>3d</fix>
</trkpt>
<trkpt lat="33.8104294" lon="-118.3938636">
  <ele>-2.93</ele>
  <time>2026-09-02T22:11:25Z</time>
  <course>0.16</course>
  <speed>1.24</speed>
  <fix>3d</fix>
</trkpt>
<trkpt lat="33.8104329" lon="-118.3938634">
  <ele>-3.004</ele>
  <time>2026-09-02T22:11:25Z</time>
  <course>2.15</course>
  <speed>1.2101652779682617</speed>
  <fix>3d</fix>
</trkpt>
<trkpt lat="33.8104316" lon="-118.3938636">
  <ele>-2.93</ele>
  <time>2026-09-02T22:11:25Z</time>
  <course>0.16</course>
  <speed>1.25</speed>
  <fix>3d</fix>
</trkpt>
<trkpt lat="33.810434" lon="-118.3938634">
  <ele>-3.004</ele>
  <time>2026-09-02T22:11:25Z</time>
  <course>2.13</course>
  <speed>1.2101652779682617</speed>
  <fix>3d</fix>
</trkpt>
<trkpt lat="33.8104316" lon="-118.3938636">
  <ele>-2.93</ele>
  <time>2026-09-02T22:11:25Z</time>
  <course>0.16</course>
  <speed>1.25</speed>
  <fix>3d</fix>
</trkpt>
<trkpt lat="33.8104352" lon="-118.3938634">
  <ele>-3.004</ele>
  <time>2026-09-02T22:11:25Z</time>
  <course>2.1</course>
  <speed>1.2201639234135715</speed>
  <fix>3d</fix>
</trkpt>
<trkpt lat="33.8104339" lon="-118.3938636">
  <ele>-2.93</ele>
  <time>2026-09-02T22:11:25Z</time>
  <course>0.16</course>
  <speed>1.25</speed>
  <fix>3d</fix>
</trkpt>
<trkpt lat="33.8104363" lon="-118.3938634">
  <ele>-3.004</ele>
  <time>2026-09-02T22:11:25Z</time>
  <course>2.08</course>
  <speed>1.2201639234135715</speed>
  <fix>3d</fix>
</trkpt>
<trkpt lat="33.8104339" lon="-118.3938636">
  <ele>-2.93</ele>
  <time>2026-09-02T22:11:25Z</time>
  <course>0.16</course>
  <speed>1.25</speed>
  <fix>3d</fix>
</trkpt>
<trkpt lat="33.8104374" lon="-118.3938634">
  <ele>-3.005</ele>
  <time>2026-09-02T22:11:25Z</time>
  <course>2.06</course>
  <speed>1.2201639234135715</speed>
  <fix>3d</fix>
</trkpt>
<trkpt lat="33.8104362" lon="-118.3938636">
  <ele>-2.93</ele>
  <time>2026-09-02T22:11:25Z</time>
  <course>0.16</course>
  <speed>1.26</speed>
  <fix>3d</fix>
</trkpt>
<trkpt lat="33.8104386" lon="-118.3938634">
  <ele>-3.005</ele>
  <time>2026-09-02T22:11:25Z</time>
  <course>2.03</course>
  <speed>1.2201639234135715</speed>
  <fix>3d</fix>
</trkpt>
<trkpt lat="33.8104362" lon="-118.3938636">
  <ele>-2.93</ele>
  <time>2026-09-02T22:11:25Z</time>
  <course>0.16</course>
  <speed>1.26</speed>
  <fix>3d</fix>
</trkpt>
<trkpt lat="33.8104397" lon="-118.3938634">
  <ele>-3.006</ele>
  <time>2026-09-02T22:11:25Z</time>
  <course>2.02</course>
  <speed>1.2201639234135715</speed>
  <fix>3d</fix>
</trkpt>
<trkpt lat="33.8104384" lon="-118.3938635">
  <ele>-2.93</ele>
  <time>2026-09-02T22:11:25Z</time>
  <course>0.17</course>
  <speed>1.26</speed>
  <fix>3d</fix>
</trkpt>
<trkpt lat="33.8104408" lon="-118.3938634">
  <ele>-3.008</ele>
  <time>2026-09-02T22:11:25Z</time>
  <course>1.99</course>
  <speed>1.2201639234135715</speed>
  <fix>3d</fix>
</trkpt>
<trkpt lat="33.8104384" lon="-118.3938635">
  <ele>-2.93</ele>
  <time>2026-09-02T22:11:25Z</time>
  <course>0.17</course>
  <speed>1.26</speed>
  <fix>3d</fix>
</trkpt>
<trkpt lat="33.810442" lon="-118.3938634">
  <ele>-3.009</ele>
  <time>2026-09-02T22:11:25Z</time>
  <course>1.95</course>
  <speed>1.2201639234135715</speed>
  <fix>3d</fix>
</trkpt>
<trkpt lat="33.8104407" lon="-118.3938635">
  <ele>-2.93</ele>
  <time>2026-09-02T22:11:25Z</time>
  <course>0.14</course>
  <speed>1.26</speed>
  <fix>3d</fix>
</trkpt>
<trkpt lat="33.8104431" lon="-118.3938634">
  <ele>-3.011</ele>
  <time>2026-09-02T22:11:25Z</time>
  <course>1.91</course>
  <speed>1.2301625908797584</speed>
  <fix>3d</fix>
</trkpt>
<trkpt lat="33.8104407" lon="-118.3938635">
  <ele>-2.93</ele>
  <time>2026-09-02T22:11:25Z</time>
  <course>0.14</course>
  <speed>1.26</speed>
  <fix>3d</fix>
</trkpt>
<trkpt lat="33.8104443" lon="-118.3938634">
  <ele>-3.012</ele>
  <time>2026-09-02T22:11:25Z</time>
  <course>1.86</course>
  <speed>1.2300406497347964</speed>
  <fix>3d</fix>
</trkpt>
<trkpt lat="33.810443" lon="-118.3938635">
  <ele>-2.94</ele>
  <time>2026-09-02T22:11:25Z</time>
  <course>0.07</course>
  <speed>1.27</speed>
  <fix>3d</fix>
</trkpt>
<trkpt lat="33.8104454" lon="-118.3938634">
  <ele>-3.012</ele>
  <time>2026-09-02T22:11:25Z</time>
  <course>1.81</course>
  <speed>1.2301625908797584</speed>
  <fix>3d</fix>
</trkpt>
<trkpt lat="33.810443" lon="-118.3938635">
  <ele>-2.94</ele>
  <time>2026-09-02T22:11:25Z</time>
  <course>0.07</course>
  <speed>1.27</speed>
  <fix>3d</fix>
</trkpt>
<trkpt lat="33.8104465" lon="-118.3938634">
  <ele>-3.011</ele>
  <time>2026-09-02T22:11:25Z</time>
  <course>1.77</course>
  <speed>1.2300406497347964</speed>
  <fix>3d</fix>
</trkpt>
<trkpt lat="33.8104453" lon="-118.3938635">
  <ele>-2.93</ele>
  <time>2026-09-02T22:11:25Z</time>
  <course>0.01</course>
  <speed>1.27</speed>
  <fix>3d</fix>
</trkpt>
<trkpt lat="33.8104477" lon="-118.3938634">
  <ele>-3.01</ele>
  <time>2026-09-02T22:11:25Z</time>
  <course>1.72</course>
  <speed>1.2300406497347964</speed>
  <fix>3d</fix>
</trkpt>
<trkpt lat="33.8104453" lon="-118.3938635">
  <ele>-2.93</ele>
  <time>2026-09-02T22:11:25Z</time>
  <course>0.01</course>
  <speed>1.27</speed>
  <fix>3d</fix>
</trkpt>
<trkpt lat="33.8104488" lon="-118.3938634">
  <ele>-3.009</ele>
  <time>2026-09-02T22:11:25Z</time>
  <course>1.69</course>
  <speed>1.2300406497347964</speed>
  <fix>3d</fix>
</trkpt>
<trkpt lat="33.8104476" lon="-118.3938635">
  <ele>-2.93</ele>
  <time>2026-09-02T22:11:25Z</time>
  <course>359.97</course>
  <speed>1.27</speed>
  <fix>3d</fix>
</trkpt>
<trkpt lat="33.81045" lon="-118.3938634">
  <ele>-3.008</ele>
  <time>2026-09-02T22:11:25Z</time>
  <course>1.65</course>
  <speed>1.2300406497347964</speed>
  <fix>3d</fix>
</trkpt>
<trkpt lat="33.8104476" lon="-118.3938635">
  <ele>-2.93</ele>
  <time>2026-09-02T22:11:25Z</time>
  <course>359.97</course>
  <speed>1.27</speed>
  <fix>3d</fix>
</trkpt>
<trkpt lat="33.8104511" lon="-118.3938634">
  <ele>-3.006</ele>
  <time>2026-09-02T22:11:25Z</time>
  <course>1.62</course>
  <speed>1.2300406497347964</speed>
  <fix>3d</fix>
</trkpt>
<trkpt lat="33.8104499" lon="-118.3938635">
  <ele>-2.92</ele>
  <time>2026-09-02T22:11:25Z</time>
  <course>359.94</course>
  <speed>1.28</speed>
  <fix>3d</fix>
</trkpt>
<trkpt lat="33.8104523" lon="-118.3938634">
  <ele>-3.004</ele>
  <time>2026-09-02T22:11:25Z</time>
  <course>1.59</course>
  <speed>1.2400403219250575</speed>
  <fix>3d</fix>
</trkpt>
<trkpt lat="33.8104499" lon="-118.3938635">
  <ele>-2.92</ele>
  <time>2026-09-02T22:11:25Z</time>
  <course>359.94</course>
  <speed>1.28</speed>
  <fix>3d</fix>
</trkpt>
<trkpt lat="33.8104534" lon="-118.3938634">
  <ele>-3.003</ele>
  <time>2026-09-02T22:11:25Z</time>
  <course>1.57</course>
  <speed>1.2400403219250575</speed>
  <fix>3d</fix>
</trkpt>
<trkpt lat="33.8104522" lon="-118.3938635">
  <ele>-2.92</ele>
  <time>2026-09-02T22:11:25Z</time>
  <course>359.92</course>
  <speed>1.28</speed>
  <fix>3d</fix>
</trkpt>
<trkpt lat="33.8104546" lon="-118.3938634">
  <ele>-3.003</ele>
  <time>2026-09-02T22:11:25Z</time>
  <course>1.55</course>
  <speed>1.2400403219250575</speed>
  <fix>3d</fix>
</trkpt>
<trkpt lat="33.8104522" lon="-118.3938635">
  <ele>-2.92</ele>
  <time>2026-09-02T22:11:25Z</time>
  <course>359.92</course>
  <speed>1.28</speed>
  <fix>3d</fix>
</trkpt>
<trkpt lat="33.8104558" lon="-118.3938634">
  <ele>-3.003</ele>
  <time>2026-09-02T22:11:25Z</time>
  <course>1.53</course>
  <speed>1.2400403219250575</speed>
  <fix>3d</fix>
</trkpt>
<trkpt lat="33.8104545" lon="-118.3938635">
  <ele>-2.92</ele>
  <time>2026-09-02T22:11:25Z</time>
  <course>359.91</course>
  <speed>1.28</speed>
  <fix>3d</fix>
</trkpt>
<trkpt lat="33.8104569" lon="-118.3938634">
  <ele>-3.003</ele>
  <time>2026-09-02T22:11:25Z</time>
  <course>1.51</course>
  <speed>1.2400403219250575</speed>
  <fix>3d</fix>
</trkpt>
<trkpt lat="33.8104545" lon="-118.3938635">
  <ele>-2.92</ele>
  <time>2026-09-02T22:11:25Z</time>
  <course>359.91</course>
  <speed>1.28</speed>
  <fix>3d</fix>
</trkpt>
<trkpt lat="33.8104581" lon="-118.3938634">
  <ele>-3.002</ele>
  <time>2026-09-02T22:11:25Z</time>
  <course>1.49</course>
  <speed>1.2400403219250575</speed>
  <fix>3d</fix>
</trkpt>
<trkpt lat="33.8104568" lon="-118.3938635">
  <ele>-2.92</ele>
  <time>2026-09-02T22:11:25Z</time>
  <course>359.9</course>
  <speed>1.28</speed>
  <fix>3d</fix>
</trkpt>
<trkpt lat="33.8104592" lon="-118.3938634">
  <ele>-3.002</ele>
  <time>2026-09-02T22:11:25Z</time>
  <course>1.47</course>
  <speed>1.2500399993600204</speed>
  <fix>3d</fix>
</trkpt>
<trkpt lat="33.8104568" lon="-118.3938635">
  <ele>-2.92</ele>
  <time>2026-09-02T22:11:25Z</time>
  <course>359.9</course>
  <speed>1.28</speed>
  <fix>3d</fix>
</trkpt>
<trkpt lat="33.8104604" lon="-118.3938634">
  <ele>-3.001</ele>
  <time>2026-09-02T22:11:25Z</time>
  <course>1.46</course>
  <speed>1.2500399993600204</speed>
  <fix>3d</fix>
</trkpt>
<trkpt lat="33.8104591" lon="-118.3938635">
  <ele>-2.92</ele>
  <time>2026-09-02T22:11:25Z</time>
  <course>359.88</course>
  <speed>1.29</speed>
  <fix>3d</fix>
</trkpt>
<trkpt lat="33.8104616" lon="-118.3938634">
  <ele>-3.001</ele>
  <time>2026-09-02T22:11:25Z</time>
  <course>1.44</course>
  <speed>1.2500399993600204</speed>
  <fix>3d</fix>
</trkpt>
<trkpt lat="33.8104591" lon="-118.3938635">
  <ele>-2.92</ele>
  <time>2026-09-02T22:11:25Z</time>
  <course>359.88</course>
  <speed>1.29</speed>
  <fix>3d</fix>
</trkpt>
<trkpt lat="33.8104627" lon="-118.3938634">
  <ele>-3.001</ele>
  <time>2026-09-02T22:11:25Z</time>
  <course>1.43</course>
  <speed>1.2500399993600204</speed>
  <fix>3d</fix>
</trkpt>
<trkpt lat="33.8104614" lon="-118.3938635">
  <ele>-2.92</ele>
  <time>2026-09-02T22:11:25Z</time>
  <course>359.88</course>
  <speed>1.29</speed>
  <fix>3d</fix>
</trkpt>
<trkpt lat="33.8104639" lon="-118.3938634">
  <ele>-3.002</ele>
  <time>2026-09-02T22:11:25Z</time>
  <course>1.41</course>
  <speed>1.2500399993600204</speed>
  <fix>3d</fix>
</trkpt>
<trkpt lat="33.8104614" lon="-118.3938635">
  <ele>-2.92</ele>
  <time>2026-09-02T22:11:25Z</time>
  <course>359.88</course>
  <speed>1.29</speed>
  <fix>3d</fix>
</trkpt>
<trkpt lat="33.8104651" lon="-118.3938634">
  <ele>-3.003</ele>
  <time>2026-09-02T22:11:25Z</time>
  <course>1.4</course>
  <speed>1.2600396819148196</speed>
  <fix>3d</fix>
</trkpt>
<trkpt lat="33.8104638" lon="-118.3938635">
  <ele>-2.92</ele>
  <time>2026-09-02T22:11:25Z</time>
  <course>359.87</course>
  <speed>1.29</speed>
  <fix>3d</fix>
</trkpt>
<trkpt lat="33.8104662" lon="-118.3938634">
  <ele>-3.003</ele>
  <time>2026-09-02T22:11:25Z</time>
  <course>1.39</course>
  <speed>1.2600396819148196</speed>
  <fix>3d</fix>
</trkpt>
<trkpt lat="33.8104638" lon="-118.3938635">
  <ele>-2.92</ele>
  <time>2026-09-02T22:11:25Z</time>
  <course>359.87</course>
  <speed>1.29</speed>
  <fix>3d</fix>
</trkpt>
<trkpt lat="33.8104674" lon="-118.3938634">
  <ele>-3.002</ele>
  <time>2026-09-02T22:11:25Z</time>
  <course>1.38</course>
  <speed>1.2600396819148196</speed>
  <fix>3d</fix>
</trkpt>
<trkpt lat="33.8104661" lon="-118.3938635">
  <ele>-2.92</ele>
  <time>2026-09-02T22:11:25Z</time>
  <course>359.85</course>
  <speed>1.3</speed>
  <fix>3d</fix>
</trkpt>
<trkpt lat="33.8104686" lon="-118.3938634">
  <ele>-3.002</ele>
  <time>2026-09-02T22:11:25Z</time>
  <course>1.37</course>
  <speed>1.2600396819148196</speed>
  <fix>3d</fix>
</trkpt>
<trkpt lat="33.8104661" lon="-118.3938635">
  <ele>-2.92</ele>
  <time>2026-09-02T22:11:25Z</time>
  <course>359.85</course>
  <speed>1.3</speed>
  <fix>3d</fix>
</trkpt>
<trkpt lat="33.8104697" lon="-118.3938634">
  <ele>-3.002</ele>
  <time>2026-09-02T22:11:25Z</time>
  <course>1.35</course>
  <speed>1.2600396819148196</speed>
  <fix>3d</fix>
</trkpt>
<trkpt lat="33.8104685" lon="-118.3938635">
  <ele>-2.92</ele>
  <time>2026-09-02T22:11:25Z</time>
  <course>359.85</course>
  <speed>1.3</speed>
  <fix>3d</fix>
</trkpt>
<trkpt lat="33.8104709" lon="-118.3938634">
  <ele>-3.002</ele>
  <time>2026-09-02T22:11:25Z</time>
  <course>1.35</course>
  <speed>1.2600396819148196</speed>
  <fix>3d</fix>
</trkpt>
<trkpt lat="33.8104685" lon="-118.3938635">
  <ele>-2.92</ele>
  <time>2026-09-02T22:11:25Z</time>
  <course>359.85</course>
  <speed>1.3</speed>
  <fix>3d</fix>
</trkpt>
<trkpt lat="33.8104721" lon="-118.3938634">
  <ele>-3.002</ele>
  <time>2026-09-02T22:11:25Z</time>
  <course>1.34</course>
  <speed>1.2700393694685217</speed>
  <fix>3d</fix>
</trkpt>
<trkpt lat="33.8104708" lon="-118.3938635">
  <ele>-2.92</ele>
  <time>2026-09-02T22:11:25Z</time>
  <course>359.83</course>
  <speed>1.3</speed>
  <fix>3d</fix>
</trkpt>
<trkpt lat="33.8104733" lon="-118.3938634">
  <ele>-3.001</ele>
  <time>2026-09-02T22:11:25Z</time>
  <course>1.33</course>
  <speed>1.2700393694685217</speed>
  <fix>3d</fix>
</trkpt>
<trkpt lat="33.8104708" lon="-118.3938635">
  <ele>-2.92</ele>
  <time>2026-09-02T22:11:25Z</time>
  <course>359.83</course>
  <speed>1.3</speed>
  <fix>3d</fix>
</trkpt>
<trkpt lat="33.8104745" lon="-118.3938634">
  <ele>-3.0</ele>
  <time>2026-09-02T22:11:25Z</time>
  <course>1.32</course>
  <speed>1.2700393694685217</speed>
  <fix>3d</fix>
</trkpt>
<trkpt lat="33.8104731" lon="-118.3938635">
  <ele>-2.92</ele>
  <time>2026-09-02T22:11:25Z</time>
  <course>359.83</course>
  <speed>1.31</speed>
  <fix>3d</fix>
</trkpt>
<trkpt lat="33.8104756" lon="-118.3938634">
  <ele>-2.999</ele>
  <time>2026-09-02T22:11:25Z</time>
  <course>1.31</course>
  <speed>1.2700393694685217</speed>
  <fix>3d</fix>
</trkpt>
<trkpt lat="33.8104731" lon="-118.3938635">
  <ele>-2.92</ele>
  <time>2026-09-02T22:11:25Z</time>
  <course>359.83</course>
  <speed>1.31</speed>
  <fix>3d</fix>
</trkpt>
<trkpt lat="33.8104768" lon="-118.3938634">
  <ele>-2.999</ele>
  <time>2026-09-02T22:11:25Z</time>
  <course>1.3</course>
  <speed>1.2700393694685217</speed>
  <fix>3d</fix>
</trkpt>
<trkpt lat="33.8104755" lon="-118.3938635">
  <ele>-2.92</ele>
  <time>2026-09-02T22:11:25Z</time>
  <course>359.83</course>
  <speed>1.31</speed>
  <fix>3d</fix>
</trkpt>
<trkpt lat="33.810478" lon="-118.3938634">
  <ele>-2.999</ele>
  <time>2026-09-02T22:11:25Z</time>
  <course>1.29</course>
  <speed>1.2700393694685217</speed>
  <fix>3d</fix>
</trkpt>
<trkpt lat="33.8104755" lon="-118.3938635">
  <ele>-2.92</ele>
  <time>2026-09-02T22:11:25Z</time>
  <course>359.83</course>
  <speed>1.31</speed>
  <fix>3d</fix>
</trkpt>
<trkpt lat="33.8104792" lon="-118.3938634">
  <ele>-2.998</ele>
  <time>2026-09-02T22:11:25Z</time>
  <course>1.28</course>
  <speed>1.2800390619039717</speed>
  <fix>3d</fix>
</trkpt>
<trkpt lat="33.8104778" lon="-118.3938635">
  <ele>-2.93</ele>
  <time>2026-09-02T22:11:25Z</time>
  <course>359.81</course>
  <speed>1.31</speed>
  <fix>3d</fix>
</trkpt>
<trkpt lat="33.8104804" lon="-118.3938634">
  <ele>-2.998</ele>
  <time>2026-09-02T22:11:25Z</time>
  <course>1.27</course>
  <speed>1.2800390619039717</speed>
  <fix>3d</fix>
</trkpt>
<trkpt lat="33.8104778" lon="-118.3938635">
  <ele>-2.93</ele>
  <time>2026-09-02T22:11:25Z</time>
  <course>359.81</course>
  <speed>1.31</speed>
  <fix>3d</fix>
</trkpt>
<trkpt lat="33.8104816" lon="-118.3938634">
  <ele>-2.998</ele>
  <time>2026-09-02T22:11:25Z</time>
  <course>1.26</course>
  <speed>1.2800390619039717</speed>
  <fix>3d</fix>
</trkpt>
<trkpt lat="33.8104803" lon="-118.3938635">
  <ele>-2.93</ele>
  <time>2026-09-02T22:11:25Z</time>
  <course>359.8</course>
  <speed>1.32</speed>
  <fix>3d</fix>
</trkpt>
<trkpt lat="33.8104828" lon="-118.3938634">
  <ele>-2.998</ele>
  <time>2026-09-02T22:11:25Z</time>
  <course>1.26</course>
  <speed>1.2800390619039717</speed>
  <fix>3d</fix>
</trkpt>
<trkpt lat="33.8104803" lon="-118.3938635">
  <ele>-2.93</ele>
  <time>2026-09-02T22:11:25Z</time>
  <course>359.8</course>
  <speed>1.32</speed>
  <fix>3d</fix>
</trkpt>
<trkpt lat="33.810484" lon="-118.3938634">
  <ele>-2.999</ele>
  <time>2026-09-02T22:11:25Z</time>
  <course>1.25</course>
  <speed>1.2800390619039717</speed>
  <fix>3d</fix>
</trkpt>
<trkpt lat="33.8104827" lon="-118.3938635">
  <ele>-2.93</ele>
  <time>2026-09-02T22:11:25Z</time>
  <course>359.79</course>
  <speed>1.32</speed>
  <fix>3d</fix>
</trkpt>
<trkpt lat="33.8104852" lon="-118.3938634">
  <ele>-3.002</ele>
  <time>2026-09-02T22:11:25Z</time>
  <course>1.24</course>
  <speed>1.2800390619039717</speed>
  <fix>3d</fix>
</trkpt>
<trkpt lat="33.8104827" lon="-118.3938635">
  <ele>-2.93</ele>
  <time>2026-09-02T22:11:25Z</time>
  <course>359.79</course>
  <speed>1.32</speed>
  <fix>3d</fix>
</trkpt>
<trkpt lat="33.8104864" lon="-118.3938634">
  <ele>-3.005</ele>
  <time>2026-09-02T22:11:25Z</time>
  <course>1.23</course>
  <speed>1.2900387591076479</speed>
  <fix>3d</fix>
</trkpt>
<trkpt lat="33.810485" lon="-118.3938635">
  <ele>-2.93</ele>
  <time>2026-09-02T22:11:25Z</time>
  <course>359.78</course>
  <speed>1.32</speed>
  <fix>3d</fix>
</trkpt>
<trkpt lat="33.8104875" lon="-118.3938634">
  <ele>-3.007</ele>
  <time>2026-09-02T22:11:25Z</time>
  <course>1.22</course>
  <speed>1.2900387591076479</speed>
  <fix>3d</fix>
</trkpt>
<trkpt lat="33.810485" lon="-118.3938635">
  <ele>-2.93</ele>
  <time>2026-09-02T22:11:25Z</time>
  <course>359.78</course>
  <speed>1.32</speed>
  <fix>3d</fix>
</trkpt>
<trkpt lat="33.8104887" lon="-118.3938634">
  <ele>-3.008</ele>
  <time>2026-09-02T22:11:25Z</time>
  <course>1.21</course>
  <speed>1.2900387591076479</speed>
  <fix>3d</fix>
</trkpt>
<trkpt lat="33.8104874" lon="-118.3938635">
  <ele>-2.94</ele>
  <time>2026-09-02T22:11:25Z</time>
  <course>359.78</course>
  <speed>1.32</speed>
  <fix>3d</fix>
</trkpt>
<trkpt lat="33.8104899" lon="-118.3938634">
  <ele>-3.008</ele>
  <time>2026-09-02T22:11:25Z</time>
  <course>1.2</course>
  <speed>1.2900387591076479</speed>
  <fix>3d</fix>
</trkpt>
<trkpt lat="33.8104874" lon="-118.3938635">
  <ele>-2.94</ele>
  <time>2026-09-02T22:11:25Z</time>
  <course>359.78</course>
  <speed>1.32</speed>
  <fix>3d</fix>
</trkpt>
<trkpt lat="33.8104911" lon="-118.3938634">
  <ele>-3.008</ele>
  <time>2026-09-02T22:11:25Z</time>
  <course>1.2</course>
  <speed>1.3000384609695206</speed>
  <fix>3d</fix>
</trkpt>
<trkpt lat="33.8104898" lon="-118.3938636">
  <ele>-2.94</ele>
  <time>2026-09-02T22:11:25Z</time>
  <course>359.77</course>
  <speed>1.33</speed>
  <fix>3d</fix>
</trkpt>
<trkpt lat="33.8104923" lon="-118.3938634">
  <ele>-3.008</ele>
  <time>2026-09-02T22:11:25Z</time>
  <course>1.2</course>
  <speed>1.3001538370516004</speed>
  <fix>3d</fix>
</trkpt>
<trkpt lat="33.8104898" lon="-118.3938636">
  <ele>-2.94</ele>
  <time>2026-09-02T22:11:25Z</time>
  <course>359.77</course>
  <speed>1.33</speed>
  <fix>3d</fix>
</trkpt>
<trkpt lat="33.8104935" lon="-118.3938634">
  <ele>-3.006</ele>
  <time>2026-09-02T22:11:25Z</time>
  <course>1.21</course>
  <speed>1.3001538370516004</speed>
  <fix>3d</fix>
</trkpt>
<trkpt lat="33.8104922" lon="-118.3938636">
  <ele>-2.93</ele>
  <time>2026-09-02T22:11:25Z</time>
  <course>359.79</course>
  <speed>1.33</speed>
  <fix>3d</fix>
</trkpt>
<trkpt lat="33.8104947" lon="-118.3938634">
  <ele>-3.003</ele>
  <time>2026-09-02T22:11:25Z</time>
  <course>1.23</course>
  <speed>1.3001538370516004</speed>
  <fix>3d</fix>
</trkpt>
<trkpt lat="33.8104922" lon="-118.3938636">
  <ele>-2.93</ele>
  <time>2026-09-02T22:11:25Z</time>
  <course>359.79</course>
  <speed>1.33</speed>
  <fix>3d</fix>
</trkpt>
<trkpt lat="33.8104959" lon="-118.3938634">
  <ele>-2.999</ele>
  <time>2026-09-02T22:11:25Z</time>
  <course>1.25</course>
  <speed>1.3001538370516004</speed>
  <fix>3d</fix>
</trkpt>
<trkpt lat="33.8104946" lon="-118.3938636">
  <ele>-2.93</ele>
  <time>2026-09-02T22:11:25Z</time>
  <course>359.85</course>
  <speed>1.34</speed>
  <fix>3d</fix>
</trkpt>
<trkpt lat="33.8104971" lon="-118.3938634">
  <ele>-2.997</ele>
  <time>2026-09-02T22:11:25Z</time>
  <course>1.27</course>
  <speed>1.3101526628603246</speed>
  <fix>3d</fix>
</trkpt>
<trkpt lat="33.8104946" lon="-118.3938636">
  <ele>-2.93</ele>
  <time>2026-09-02T22:11:25Z</time>
  <course>359.85</course>
  <speed>1.34</speed>
  <fix>3d</fix>
</trkpt>
<trkpt lat="33.8104983" lon="-118.3938634">
  <ele>-2.996</ele>
  <time>2026-09-02T22:11:25Z</time>
  <course>1.3</course>
  <speed>1.3101526628603246</speed>
  <fix>3d</fix>
</trkpt>
<trkpt lat="33.810497" lon="-118.3938636">
  <ele>-2.92</ele>
  <time>2026-09-02T22:11:25Z</time>
  <course>359.92</course>
  <speed>1.34</speed>
  <fix>3d</fix>
</trkpt>
<trkpt lat="33.8104995" lon="-118.3938634">
  <ele>-2.996</ele>
  <time>2026-09-02T22:11:25Z</time>
  <course>1.32</course>
  <speed>1.3101526628603246</speed>
  <fix>3d</fix>
</trkpt>
<trkpt lat="33.810497" lon="-118.3938636">
  <ele>-2.92</ele>
  <time>2026-09-02T22:11:25Z</time>
  <course>359.92</course>
  <speed>1.34</speed>
  <fix>3d</fix>
</trkpt>
<trkpt lat="33.8105008" lon="-118.3938634">
  <ele>-2.996</ele>
  <time>2026-09-02T22:11:25Z</time>
  <course>1.34</course>
  <speed>1.3101526628603246</speed>
  <fix>3d</fix>
</trkpt>
<trkpt lat="33.8104995" lon="-118.3938636">
  <ele>-2.92</ele>
  <time>2026-09-02T22:11:25Z</time>
  <course>359.97</course>
  <speed>1.35</speed>
  <fix>3d</fix>
</trkpt>
<trkpt lat="33.810502" lon="-118.3938634">
  <ele>-2.996</ele>
  <time>2026-09-02T22:11:25Z</time>
  <course>1.34</course>
  <speed>1.3101526628603246</speed>
  <fix>3d</fix>
</trkpt>
<trkpt lat="33.8104995" lon="-118.3938636">
  <ele>-2.92</ele>
  <time>2026-09-02T22:11:25Z</time>
  <course>359.97</course>
  <speed>1.35</speed>
  <fix>3d</fix>
</trkpt>
<trkpt lat="33.8105032" lon="-118.3938634">
  <ele>-2.998</ele>
  <time>2026-09-02T22:11:25Z</time>
  <course>1.36</course>
  <speed>1.3101526628603246</speed>
  <fix>3d</fix>
</trkpt>
<trkpt lat="33.8105019" lon="-118.3938636">
  <ele>-2.92</ele>
  <time>2026-09-02T22:11:25Z</time>
  <course>359.99</course>
  <speed>1.35</speed>
  <fix>3d</fix>
</trkpt>
<trkpt lat="33.8105044" lon="-118.3938634">
  <ele>-2.999</ele>
  <time>2026-09-02T22:11:25Z</time>
  <course>1.36</course>
  <speed>1.3101526628603246</speed>
  <fix>3d</fix>
</trkpt>
<trkpt lat="33.8105019" lon="-118.3938636">
  <ele>-2.92</ele>
  <time>2026-09-02T22:11:25Z</time>
  <course>359.99</course>
  <speed>1.35</speed>
  <fix>3d</fix>
</trkpt>
<trkpt lat="33.8105056" lon="-118.3938634">
  <ele>-2.999</ele>
  <time>2026-09-02T22:11:25Z</time>
  <course>1.36</course>
  <speed>1.3101526628603246</speed>
  <fix>3d</fix>
</trkpt>
<trkpt lat="33.8105043" lon="-118.3938636">
  <ele>-2.93</ele>
  <time>2026-09-02T22:11:25Z</time>
  <course>0.0</course>
  <speed>1.35</speed>
  <fix>3d</fix>
</trkpt>
<trkpt lat="33.8105068" lon="-118.3938634">
  <ele>-3.0</ele>
  <time>2026-09-02T22:11:25Z</time>
  <course>1.36</course>
  <speed>1.3101526628603246</speed>
  <fix>3d</fix>
</trkpt>
<trkpt lat="33.8105043" lon="-118.3938636">
  <ele>-2.93</ele>
  <time>2026-09-02T22:11:25Z</time>
  <course>0.0</course>
  <speed>1.35</speed>
  <fix>3d</fix>
</trkpt>
<trkpt lat="33.810508" lon="-118.3938634">
  <ele>-3.0</ele>
  <time>2026-09-02T22:11:25Z</time>
  <course>1.37</course>
  <speed>1.32015150645674</speed>
  <fix>3d</fix>
</trkpt>
<trkpt lat="33.8105068" lon="-118.3938636">
  <ele>-2.93</ele>
  <time>2026-09-02T22:11:25Z</time>
  <course>0.01</course>
  <speed>1.35</speed>
  <fix>3d</fix>
</trkpt>
<trkpt lat="33.8105093" lon="-118.3938634">
  <ele>-2.999</ele>
  <time>2026-09-02T22:11:25Z</time>
  <course>1.36</course>
  <speed>1.32015150645674</speed>
  <fix>3d</fix>
</trkpt>
<trkpt lat="33.8105068" lon="-118.3938636">
  <ele>-2.93</ele>
  <time>2026-09-02T22:11:25Z</time>
  <course>0.01</course>
  <speed>1.35</speed>
  <fix>3d</fix>
</trkpt>
<trkpt lat="33.8105105" lon="-118.3938634">
  <ele>-2.998</ele>
  <time>2026-09-02T22:11:25Z</time>
  <course>1.36</course>
  <speed>1.32015150645674</speed>
  <fix>3d</fix>
</trkpt>
<trkpt lat="33.8105092" lon="-118.3938636">
  <ele>-2.93</ele>
  <time>2026-09-02T22:11:25Z</time>
  <course>0.02</course>
  <speed>1.35</speed>
  <fix>3d</fix>
</trkpt>
<trkpt lat="33.8105117" lon="-118.3938634">
  <ele>-2.997</ele>
  <time>2026-09-02T22:11:25Z</time>
  <course>1.36</course>
  <speed>1.32015150645674</speed>
  <fix>3d</fix>
</trkpt>
<trkpt lat="33.8105092" lon="-118.3938636">
  <ele>-2.93</ele>
  <time>2026-09-02T22:11:25Z</time>
  <course>0.02</course>
  <speed>1.35</speed>
  <fix>3d</fix>
</trkpt>
<trkpt lat="33.8105129" lon="-118.3938634">
  <ele>-2.998</ele>
  <time>2026-09-02T22:11:25Z</time>
  <course>1.35</course>
  <speed>1.32015150645674</speed>
  <fix>3d</fix>
</trkpt>
<trkpt lat="33.8105116" lon="-118.3938636">
  <ele>-2.93</ele>
  <time>2026-09-02T22:11:25Z</time>
  <course>0.02</course>
  <speed>1.36</speed>
  <fix>3d</fix>
</trkpt>
<trkpt lat="33.8105142" lon="-118.3938634">
  <ele>-3.0</ele>
  <time>2026-09-02T22:11:25Z</time>
  <course>1.35</course>
  <speed>1.32015150645674</speed>
  <fix>3d</fix>
</trkpt>
<trkpt lat="33.8105116" lon="-118.3938636">
  <ele>-2.93</ele>
  <time>2026-09-02T22:11:25Z</time>
  <course>0.02</course>
  <speed>1.36</speed>
  <fix>3d</fix>
</trkpt>
<trkpt lat="33.8105154" lon="-118.3938634">
  <ele>-3.003</ele>
  <time>2026-09-02T22:11:25Z</time>
  <course>1.34</course>
  <speed>1.32015150645674</speed>
  <fix>3d</fix>
</trkpt>
<trkpt lat="33.8105141" lon="-118.3938636">
  <ele>-2.93</ele>
  <time>2026-09-02T22:11:25Z</time>
  <course>0.03</course>
  <speed>1.36</speed>
  <fix>3d</fix>
</trkpt>
<trkpt lat="33.8105166" lon="-118.3938634">
  <ele>-3.004</ele>
  <time>2026-09-02T22:11:25Z</time>
  <course>1.34</course>
  <speed>1.32015150645674</speed>
  <fix>3d</fix>
</trkpt>
<trkpt lat="33.8105141" lon="-118.3938636">
  <ele>-2.93</ele>
  <time>2026-09-02T22:11:25Z</time>
  <course>0.03</course>
  <speed>1.36</speed>
  <fix>3d</fix>
</trkpt>
<trkpt lat="33.8105179" lon="-118.3938634">
  <ele>-3.004</ele>
  <time>2026-09-02T22:11:25Z</time>
  <course>1.33</course>
  <speed>1.3301503674397117</speed>
  <fix>3d</fix>
</trkpt>
<trkpt lat="33.8105165" lon="-118.3938636">
  <ele>-2.93</ele>
  <time>2026-09-02T22:11:25Z</time>
  <course>0.04</course>
  <speed>1.36</speed>
  <fix>3d</fix>
</trkpt>
<trkpt lat="33.8105191" lon="-118.3938634">
  <ele>-3.001</ele>
  <time>2026-09-02T22:11:25Z</time>
  <course>1.32</course>
  <speed>1.32015150645674</speed>
  <fix>3d</fix>
</trkpt>
<trkpt lat="33.8105165" lon="-118.3938636">
  <ele>-2.93</ele>
  <time>2026-09-02T22:11:25Z</time>
  <course>0.04</course>
  <speed>1.36</speed>
  <fix>3d</fix>
</trkpt>
<trkpt lat="33.8105203" lon="-118.3938634">
  <ele>-2.999</ele>
  <time>2026-09-02T22:11:25Z</time>
  <course>1.32</course>
  <speed>1.3101526628603246</speed>
  <fix>3d</fix>
</trkpt>
<trkpt lat="33.810519" lon="-118.3938636">
  <ele>-2.92</ele>
  <time>2026-09-02T22:11:25Z</time>
  <course>0.05</course>
  <speed>1.36</speed>
  <fix>3d</fix>
</trkpt>
<trkpt lat="33.8105215" lon="-118.3938634">
  <ele>-2.996</ele>
  <time>2026-09-02T22:11:25Z</time>
  <course>1.31</course>
  <speed>1.2901550294441362</speed>
  <fix>3d</fix>
</trkpt>
<trkpt lat="33.810519" lon="-118.3938636">
  <ele>-2.92</ele>
  <time>2026-09-02T22:11:25Z</time>
  <course>0.05</course>
  <speed>1.36</speed>
  <fix>3d</fix>
</trkpt>
<trkpt lat="33.8105227" lon="-118.3938634">
  <ele>-2.994</ele>
  <time>2026-09-02T22:11:25Z</time>
  <course>1.31</course>
  <speed>1.2701574705523722</speed>
  <fix>3d</fix>
</trkpt>
<trkpt lat="33.8105214" lon="-118.3938636">
  <ele>-2.92</ele>
  <time>2026-09-02T22:11:25Z</time>
  <course>0.08</course>
  <speed>1.34</speed>
  <fix>3d</fix>
</trkpt>
<trkpt lat="33.8105239" lon="-118.3938634">
  <ele>-2.993</ele>
  <time>2026-09-02T22:11:25Z</time>
  <course>1.31</course>
  <speed>1.2401612798341997</speed>
  <fix>3d</fix>
</trkpt>
<trkpt lat="33.8105214" lon="-118.3938636">
  <ele>-2.92</ele>
  <time>2026-09-02T22:11:25Z</time>
  <course>0.08</course>
  <speed>1.34</speed>
  <fix>3d</fix>
</trkpt>
<trkpt lat="33.810525" lon="-118.3938634">
  <ele>-2.993</ele>
  <time>2026-09-02T22:11:25Z</time>
  <course>1.31</course>
  <speed>1.2001666550941998</speed>
  <fix>3d</fix>
</trkpt>
<trkpt lat="33.8105238" lon="-118.3938636">
  <ele>-2.92</ele>
  <time>2026-09-02T22:11:25Z</time>
  <course>0.14</course>
  <speed>1.3</speed>
  <fix>3d</fix>
</trkpt>
<trkpt lat="33.8105261" lon="-118.3938634">
  <ele>-2.994</ele>
  <time>2026-09-02T22:11:25Z</time>
  <course>1.32</course>
  <speed>1.1601724009818541</speed>
  <fix>3d</fix>
</trkpt>
<trkpt lat="33.8105238" lon="-118.3938636">
  <ele>-2.92</ele>
  <time>2026-09-02T22:11:25Z</time>
  <course>0.14</course>
  <speed>1.3</speed>
  <fix>3d</fix>
</trkpt>
<trkpt lat="33.8105272" lon="-118.3938634">
  <ele>-2.996</ele>
  <time>2026-09-02T22:11:25Z</time>
  <course>1.33</course>
  <speed>1.110180165558726</speed>
  <fix>3d</fix>
</trkpt>
<trkpt lat="33.8105261" lon="-118.3938636">
  <ele>-2.92</ele>
  <time>2026-09-02T22:11:25Z</time>
  <course>0.24</course>
  <speed>1.23</speed>
  <fix>3d</fix>
</trkpt>
<trkpt lat="33.8105282" lon="-118.3938634">
  <ele>-2.998</ele>
  <time>2026-09-02T22:11:25Z</time>
  <course>1.35</course>
  <speed>1.0601886624558856</speed>
  <fix>3d</fix>
</trkpt>
<trkpt lat="33.8105261" lon="-118.3938636">
  <ele>-2.92</ele>
  <time>2026-09-02T22:11:25Z</time>
  <course>0.24</course>
  <speed>1.23</speed>
  <fix>3d</fix>
</trkpt>
<trkpt lat="33.8105291" lon="-118.3938634">
  <ele>-2.998</ele>
  <time>2026-09-02T22:11:25Z</time>
  <course>1.37</course>
  <speed>1.000199980003999</speed>
  <fix>3d</fix>
</trkpt>
<trkpt lat="33.8105281" lon="-118.3938636">
  <ele>-2.92</ele>
  <time>2026-09-02T22:11:25Z</time>
  <course>0.39</course>
  <speed>1.13</speed>
  <fix>3d</fix>
</trkpt>
<trkpt lat="33.81053" lon="-118.3938634">
  <ele>-2.998</ele>
  <time>2026-09-02T22:11:25Z</time>
  <course>1.4</course>
  <speed>0.9302150289046076</speed>
  <fix>3d</fix>
</trkpt>
<trkpt lat="33.8105281" lon="-118.3938636">
  <ele>-2.92</ele>
  <time>2026-09-02T22:11:25Z</time>
  <course>0.39</course>
  <speed>1.13</speed>
  <fix>3d</fix>
</trkpt>
<trkpt lat="33.8105309" lon="-118.3938634">
  <ele>-2.998</ele>
  <time>2026-09-02T22:11:25Z</time>
  <course>1.45</course>
  <speed>0.8702298546935746</speed>
  <fix>3d</fix>
</trkpt>
<trkpt lat="33.8105301" lon="-118.3938636">
  <ele>-2.92</ele>
  <time>2026-09-02T22:11:25Z</time>
  <course>0.6</course>
  <speed>1.01</speed>
  <fix>3d</fix>
</trkpt>
<trkpt lat="33.8105317" lon="-118.3938634">
  <ele>-2.998</ele>
  <time>2026-09-02T22:11:25Z</time>
  <course>1.5</course>
  <speed>0.8102468759581859</speed>
  <fix>3d</fix>
</trkpt>
<trkpt lat="33.8105301" lon="-118.3938636">
  <ele>-2.92</ele>
  <time>2026-09-02T22:11:25Z</time>
  <course>0.6</course>
  <speed>1.01</speed>
  <fix>3d</fix>
</trkpt>
<trkpt lat="33.8105324" lon="-118.3938634">
  <ele>-2.998</ele>
  <time>2026-09-02T22:11:25Z</time>
  <course>1.57</course>
  <speed>0.7602631123499285</speed>
  <fix>3d</fix>
</trkpt>
<trkpt lat="33.8105319" lon="-118.3938636">
  <ele>-2.92</ele>
  <time>2026-09-02T22:11:25Z</time>
  <course>0.86</course>
  <speed>0.89</speed>
  <fix>3d</fix>
</trkpt>
<trkpt lat="33.8105331" lon="-118.3938634">
  <ele>-2.998</ele>
  <time>2026-09-02T22:11:25Z</time>
  <course>1.64</course>
  <speed>0.7102816342831905</speed>
  <fix>3d</fix>
</trkpt>
<trkpt lat="33.8105319" lon="-118.3938636">
  <ele>-2.92</ele>
  <time>2026-09-02T22:11:25Z</time>
  <course>0.86</course>
  <speed>0.89</speed>
  <fix>3d</fix>
</trkpt>
<trkpt lat="33.8105338" lon="-118.3938634">
  <ele>-2.996</ele>
  <time>2026-09-02T22:11:25Z</time>
  <course>1.74</course>
  <speed>0.6702984409947557</speed>
  <fix>3d</fix>
</trkpt>
<trkpt lat="33.8105334" lon="-118.3938636">
  <ele>-2.91</ele>
  <time>2026-09-02T22:11:25Z</time>
  <course>1.13</course>
  <speed>0.78</speed>
  <fix>3d</fix>
</trkpt>
<trkpt lat="33.8105344" lon="-118.3938634">
  <ele>-2.993</ele>
  <time>2026-09-02T22:11:25Z</time>
  <course>1.84</course>
  <speed>0.630317380372777</speed>
  <fix>3d</fix>
</trkpt>
<trkpt lat="33.8105334" lon="-118.3938636">
  <ele>-2.91</ele>
  <time>2026-09-02T22:11:25Z</time>
  <course>1.13</course>
  <speed>0.78</speed>
  <fix>3d</fix>
</trkpt>
<trkpt lat="33.810535" lon="-118.3938634">
  <ele>-2.991</ele>
  <time>2026-09-02T22:11:25Z</time>
  <course>1.98</course>
  <speed>0.6003332407921453</speed>
  <fix>3d</fix>
</trkpt>
<trkpt lat="33.8105347" lon="-118.3938635">
  <ele>-2.91</ele>
  <time>2026-09-02T22:11:25Z</time>
  <course>1.37</course>
  <speed>0.68</speed>
  <fix>3d</fix>
</trkpt>
<trkpt lat="33.8105356" lon="-118.3938634">
  <ele>-2.99</ele>
  <time>2026-09-02T22:11:25Z</time>
  <course>2.12</course>
  <speed>0.570350769263968</speed>
  <fix>3d</fix>
</trkpt>
<trkpt lat="33.8105347" lon="-118.3938635">
  <ele>-2.91</ele>
  <time>2026-09-02T22:11:25Z</time>
  <course>1.37</course>
  <speed>0.68</speed>
  <fix>3d</fix>
</trkpt>
<trkpt lat="33.8105362" lon="-118.3938634">
  <ele>-2.99</ele>
  <time>2026-09-02T22:11:25Z</time>
  <course>2.26</course>
  <speed>0.5500909015790026</speed>
  <fix>3d</fix>
</trkpt>
<trkpt lat="33.8105358" lon="-118.3938635">
  <ele>-2.91</ele>
  <time>2026-09-02T22:11:25Z</time>
  <course>1.5</course>
  <speed>0.61</speed>
  <fix>3d</fix>
</trkpt>
<trkpt lat="33.8105367" lon="-118.3938633">
  <ele>-2.99</ele>
  <time>2026-09-02T22:11:25Z</time>
  <course>2.37</course>
  <speed>0.5300943312279428</speed>
  <fix>3d</fix>
</trkpt>
<trkpt lat="33.8105358" lon="-118.3938635">
  <ele>-2.91</ele>
  <time>2026-09-02T22:11:25Z</time>
  <course>1.5</course>
  <speed>0.61</speed>
  <fix>3d</fix>
</trkpt>
<trkpt lat="33.8105372" lon="-118.3938633">
  <ele>-2.991</ele>
  <time>2026-09-02T22:11:25Z</time>
  <course>2.46</course>
  <speed>0.5200961449578337</speed>
  <fix>3d</fix>
</trkpt>
<trkpt lat="33.8105369" lon="-118.3938635">
  <ele>-2.91</ele>
  <time>2026-09-02T22:11:25Z</time>
  <course>1.44</course>
  <speed>0.56</speed>
  <fix>3d</fix>
</trkpt>
<trkpt lat="33.8105377" lon="-118.3938633">
  <ele>-2.994</ele>
  <time>2026-09-02T22:11:25Z</time>
  <course>2.51</course>
  <speed>0.510098029794274</speed>
  <fix>3d</fix>
</trkpt>
<trkpt lat="33.8105369" lon="-118.3938635">
  <ele>-2.91</ele>
  <time>2026-09-02T22:11:25Z</time>
  <course>1.44</course>
  <speed>0.56</speed>
  <fix>3d</fix>
</trkpt>
<trkpt lat="33.8105382" lon="-118.3938633">
  <ele>-2.996</ele>
  <time>2026-09-02T22:11:25Z</time>
  <course>2.55</course>
  <speed>0.5000999900019995</speed>
  <fix>3d</fix>
</trkpt>
<trkpt lat="33.8105379" lon="-118.3938634">
  <ele>-2.91</ele>
  <time>2026-09-02T22:11:25Z</time>
  <course>1.22</course>
  <speed>0.54</speed>
  <fix>3d</fix>
</trkpt>
<trkpt lat="33.8105387" lon="-118.3938633">
  <ele>-2.997</ele>
  <time>2026-09-02T22:11:25Z</time>
  <course>2.56</course>
  <speed>0.4901020301937138</speed>
  <fix>3d</fix>
</trkpt>
<trkpt lat="33.8105379" lon="-118.3938634">
  <ele>-2.91</ele>
  <time>2026-09-02T22:11:25Z</time>
  <course>1.22</course>
  <speed>0.54</speed>
  <fix>3d</fix>
</trkpt>
<trkpt lat="33.8105391" lon="-118.3938633">
  <ele>-2.998</ele>
  <time>2026-09-02T22:11:25Z</time>
  <course>2.5</course>
  <speed>0.4801041553663121</speed>
  <fix>3d</fix>
</trkpt>
<trkpt lat="33.8105388" lon="-118.3938634">
  <ele>-2.92</ele>
  <time>2026-09-02T22:11:25Z</time>
  <course>0.9</course>
  <speed>0.52</speed>
  <fix>3d</fix>
</trkpt>
<trkpt lat="33.8105396" lon="-118.3938633">
  <ele>-2.998</ele>
  <time>2026-09-02T22:11:25Z</time>
  <course>2.37</course>
  <speed>0.4801041553663121</speed>
  <fix>3d</fix>
</trkpt>
<trkpt lat="33.8105388" lon="-118.3938634">
  <ele>-2.92</ele>
  <time>2026-09-02T22:11:25Z</time>
  <course>0.9</course>
  <speed>0.52</speed>
  <fix>3d</fix>
</trkpt>
<trkpt lat="33.8105401" lon="-118.3938633">
  <ele>-2.998</ele>
  <time>2026-09-02T22:11:25Z</time>
  <course>2.21</course>
  <speed>0.47010637094172636</speed>
  <fix>3d</fix>
</trkpt>
<trkpt lat="33.8105397" lon="-118.3938634">
  <ele>-2.92</ele>
  <time>2026-09-02T22:11:25Z</time>
  <course>0.58</course>
  <speed>0.5</speed>
  <fix>3d</fix>
</trkpt>
<trkpt lat="33.8105405" lon="-118.3938633">
  <ele>-2.996</ele>
  <time>2026-09-02T22:11:25Z</time>
  <course>2.03</course>
  <speed>0.46010868281309364</speed>
  <fix>3d</fix>
</trkpt>
<trkpt lat="33.8105397" lon="-118.3938634">
  <ele>-2.92</ele>
  <time>2026-09-02T22:11:25Z</time>
  <course>0.58</course>
  <speed>0.5</speed>
  <fix>3d</fix>
</trkpt>
<trkpt lat="33.810541" lon="-118.3938633">
  <ele>-2.995</ele>
  <time>2026-09-02T22:11:25Z</time>
  <course>1.85</course>
  <speed>0.46010868281309364</speed>
  <fix>3d</fix>
</trkpt>
<trkpt lat="33.8105406" lon="-118.3938634">
  <ele>-2.92</ele>
  <time>2026-09-02T22:11:25Z</time>
  <course>0.31</course>
  <speed>0.49</speed>
  <fix>3d</fix>
</trkpt>
<trkpt lat="33.8105414" lon="-118.3938633">
  <ele>-2.994</ele>
  <time>2026-09-02T22:11:25Z</time>
  <course>1.67</course>
  <speed>0.46010868281309364</speed>
  <fix>3d</fix>
</trkpt>
<trkpt lat="33.8105406" lon="-118.3938634">
  <ele>-2.92</ele>
  <time>2026-09-02T22:11:25Z</time>
  <course>0.31</course>
  <speed>0.49</speed>
  <fix>3d</fix>
</trkpt>
<trkpt lat="33.8105418" lon="-118.3938633">
  <ele>-2.993</ele>
  <time>2026-09-02T22:11:25Z</time>
  <course>1.53</course>
  <speed>0.46010868281309364</speed>
  <fix>3d</fix>
</trkpt>
<trkpt lat="33.8105415" lon="-118.3938634">
  <ele>-2.91</ele>
  <time>2026-09-02T22:11:25Z</time>
  <course>0.09</course>
  <speed>0.48</speed>
  <fix>3d</fix>
</trkpt>
<trkpt lat="33.8105423" lon="-118.3938633">
  <ele>-2.992</ele>
  <time>2026-09-02T22:11:25Z</time>
  <course>1.38</course>
  <speed>0.450111097397076</speed>
  <fix>3d</fix>
</trkpt>
<trkpt lat="33.8105415" lon="-118.3938634">
  <ele>-2.91</ele>
  <time>2026-09-02T22:11:25Z</time>
  <course>0.09</course>
  <speed>0.48</speed>
  <fix>3d</fix>
</trkpt>
<trkpt lat="33.8105427" lon="-118.3938633">
  <ele>-2.991</ele>
  <time>2026-09-02T22:11:25Z</time>
  <course>1.26</course>
  <speed>0.450111097397076</speed>
  <fix>3d</fix>
</trkpt>
<trkpt lat="33.8105424" lon="-118.3938634">
  <ele>-2.91</ele>
  <time>2026-09-02T22:11:25Z</time>
  <course>359.92</course>
  <speed>0.47</speed>
  <fix>3d</fix>
</trkpt>
<trkpt lat="33.8105431" lon="-118.3938633">
  <ele>-2.992</ele>
  <time>2026-09-02T22:11:25Z</time>
  <course>1.13</course>
  <speed>0.450111097397076</speed>
  <fix>3d</fix>
</trkpt>
<trkpt lat="33.8105424" lon="-118.3938634">
  <ele>-2.91</ele>
  <time>2026-09-02T22:11:25Z</time>
  <course>359.92</course>
  <speed>0.47</speed>
  <fix>3d</fix>
</trkpt>
<trkpt lat="33.8105436" lon="-118.3938633">
  <ele>-2.994</ele>
  <time>2026-09-02T22:11:25Z</time>
  <course>1.03</course>
  <speed>0.450111097397076</speed>
  <fix>3d</fix>
</trkpt>
<trkpt lat="33.8105432" lon="-118.3938634">
  <ele>-2.91</ele>
  <time>2026-09-02T22:11:25Z</time>
  <course>359.76</course>
  <speed>0.47</speed>
  <fix>3d</fix>
</trkpt>
<trkpt lat="33.810544" lon="-118.3938633">
  <ele>-2.996</ele>
  <time>2026-09-02T22:11:25Z</time>
  <course>0.94</course>
  <speed>0.450111097397076</speed>
  <fix>3d</fix>
</trkpt>
<trkpt lat="33.8105432" lon="-118.3938634">
  <ele>-2.91</ele>
  <time>2026-09-02T22:11:25Z</time>
  <course>359.76</course>
  <speed>0.47</speed>
  <fix>3d</fix>
</trkpt>
<trkpt lat="33.8105444" lon="-118.3938633">
  <ele>-2.997</ele>
  <time>2026-09-02T22:11:25Z</time>
  <course>0.86</course>
  <speed>0.450111097397076</speed>
  <fix>3d</fix>
</trkpt>
<trkpt lat="33.8105441" lon="-118.3938634">
  <ele>-2.92</ele>
  <time>2026-09-02T22:11:25Z</time>
  <course>359.6</course>
  <speed>0.46</speed>
  <fix>3d</fix>
</trkpt>
<trkpt lat="33.8105448" lon="-118.3938633">
  <ele>-2.998</ele>
  <time>2026-09-02T22:11:25Z</time>
  <course>0.77</course>
  <speed>0.450111097397076</speed>
  <fix>3d</fix>
</trkpt>
<trkpt lat="33.8105441" lon="-118.3938634">
  <ele>-2.92</ele>
  <time>2026-09-02T22:11:25Z</time>
  <course>359.6</course>
  <speed>0.46</speed>
  <fix>3d</fix>
</trkpt>
<trkpt lat="33.8105453" lon="-118.3938633">
  <ele>-2.998</ele>
  <time>2026-09-02T22:11:25Z</time>
  <course>0.72</course>
  <speed>0.450111097397076</speed>
  <fix>3d</fix>
</trkpt>
<trkpt lat="33.8105449" lon="-118.3938634">
  <ele>-2.92</ele>
  <time>2026-09-02T22:11:25Z</time>
  <course>359.43</course>
  <speed>0.46</speed>
  <fix>3d</fix>
</trkpt>
<trkpt lat="33.8105457" lon="-118.3938633">
  <ele>-2.998</ele>
  <time>2026-09-02T22:11:25Z</time>
  <course>0.67</course>
  <speed>0.47010637094172636</speed>
  <fix>3d</fix>
</trkpt>
<trkpt lat="33.8105449" lon="-118.3938634">
  <ele>-2.92</ele>
  <time>2026-09-02T22:11:25Z</time>
  <course>359.43</course>
  <speed>0.46</speed>
  <fix>3d</fix>
</trkpt>
<trkpt lat="33.8105462" lon="-118.3938633">
  <ele>-2.996</ele>
  <time>2026-09-02T22:11:25Z</time>
  <course>0.64</course>
  <speed>0.4901020301937138</speed>
  <fix>3d</fix>
</trkpt>
<trkpt lat="33.8105458" lon="-118.3938634">
  <ele>-2.92</ele>
  <time>2026-09-02T22:11:25Z</time>
  <course>359.24</course>
  <speed>0.48</speed>
  <fix>3d</fix>
</trkpt>
<trkpt lat="33.8105466" lon="-118.3938633">
  <ele>-2.994</ele>
  <time>2026-09-02T22:11:25Z</time>
  <course>0.6</course>
  <speed>0.5200961449578337</speed>
  <fix>3d</fix>
</trkpt>
<trkpt lat="33.8105458" lon="-118.3938634">
  <ele>-2.92</ele>
  <time>2026-09-02T22:11:25Z</time>
  <course>359.24</course>
  <speed>0.48</speed>
  <fix>3d</fix>
</trkpt>
<trkpt lat="33.8105471" lon="-118.3938633">
  <ele>-2.993</ele>
  <time>2026-09-02T22:11:25Z</time>
  <course>0.59</course>
  <speed>0.5600892785976178</speed>
  <fix>3d</fix>
</trkpt>
<trkpt lat="33.8105467" lon="-118.3938634">
  <ele>-2.91</ele>
  <time>2026-09-02T22:11:25Z</time>
  <course>359.02</course>
  <speed>0.52</speed>
  <fix>3d</fix>
</trkpt>
<trkpt lat="33.8105477" lon="-118.3938633">
  <ele>-2.992</ele>
  <time>2026-09-02T22:11:25Z</time>
  <course>0.57</course>
  <speed>0.6100819617067857</speed>
  <fix>3d</fix>
</trkpt>
<trkpt lat="33.8105467" lon="-118.3938634">
  <ele>-2.91</ele>
  <time>2026-09-02T22:11:25Z</time>
  <course>359.02</course>
  <speed>0.52</speed>
  <fix>3d</fix>
</trkpt>
<trkpt lat="33.8105483" lon="-118.3938633">
  <ele>-2.991</ele>
  <time>2026-09-02T22:11:25Z</time>
  <course>0.57</course>
  <speed>0.66007575322837</speed>
  <fix>3d</fix>
</trkpt>
<trkpt lat="33.8105477" lon="-118.3938634">
  <ele>-2.91</ele>
  <time>2026-09-02T22:11:25Z</time>
  <course>358.81</course>
  <speed>0.59</speed>
  <fix>3d</fix>
</trkpt>
<trkpt lat="33.8105489" lon="-118.3938633">
  <ele>-2.991</ele>
  <time>2026-09-02T22:11:25Z</time>
  <course>0.56</course>
  <speed>0.7100704190430693</speed>
  <fix>3d</fix>
</trkpt>
<trkpt lat="33.8105477" lon="-118.3938634">
  <ele>-2.91</ele>
  <time>2026-09-02T22:11:25Z</time>
  <course>358.81</course>
  <speed>0.59</speed>
  <fix>3d</fix>
</trkpt>
<trkpt lat="33.8105496" lon="-118.3938633">
  <ele>-2.991</ele>
  <time>2026-09-02T22:11:25Z</time>
  <course>0.57</course>
  <speed>0.7600657866263946</speed>
  <fix>3d</fix>
</trkpt>
<trkpt lat="33.8105488" lon="-118.3938634">
  <ele>-2.91</ele>
  <time>2026-09-02T22:11:25Z</time>
  <course>358.64</course>
  <speed>0.69</speed>
  <fix>3d</fix>
</trkpt>
<trkpt lat="33.8105503" lon="-118.3938633">
  <ele>-2.991</ele>
  <time>2026-09-02T22:11:25Z</time>
  <course>0.58</course>
  <speed>0.7900632886041472</speed>
  <fix>3d</fix>
</trkpt>
<trkpt lat="33.8105488" lon="-118.3938634">
  <ele>-2.91</ele>
  <time>2026-09-02T22:11:25Z</time>
  <course>358.64</course>
  <speed>0.69</speed>
  <fix>3d</fix>
</trkpt>
<trkpt lat="33.8105511" lon="-118.3938633">
  <ele>-2.993</ele>
  <time>2026-09-02T22:11:25Z</time>
  <course>0.61</course>
  <speed>0.8200609733428362</speed>
  <fix>3d</fix>
</trkpt>
<trkpt lat="33.8105501" lon="-118.3938634">
  <ele>-2.91</ele>
  <time>2026-09-02T22:11:25Z</time>
  <course>358.55</course>
  <speed>0.78</speed>
  <fix>3d</fix>
</trkpt>
<trkpt lat="33.8105518" lon="-118.3938633">
  <ele>-2.995</ele>
  <time>2026-09-02T22:11:25Z</time>
  <course>0.63</course>
  <speed>0.8500588214941364</speed>
  <fix>3d</fix>
</trkpt>
<trkpt lat="33.8105501" lon="-118.3938634">
  <ele>-2.91</ele>
  <time>2026-09-02T22:11:25Z</time>
  <course>358.55</course>
  <speed>0.78</speed>
  <fix>3d</fix>
</trkpt>
<trkpt lat="33.8105526" lon="-118.3938633">
  <ele>-2.997</ele>
  <time>2026-09-02T22:11:25Z</time>
  <course>0.66</course>
  <speed>0.8600581375697809</speed>
  <fix>3d</fix>
</trkpt>
<trkpt lat="33.8105517" lon="-118.3938635">
  <ele>-2.92</ele>
  <time>2026-09-02T22:11:25Z</time>
  <course>358.5</course>
  <speed>0.85</speed>
  <fix>3d</fix>
</trkpt>
<trkpt lat="33.8105534" lon="-118.3938633">
  <ele>-2.997</ele>
  <time>2026-09-02T22:11:25Z</time>
  <course>0.69</course>
  <speed>0.8700574693662483</speed>
  <fix>3d</fix>
</trkpt>
<trkpt lat="33.8105517" lon="-118.3938635">
  <ele>-2.92</ele>
  <time>2026-09-02T22:11:25Z</time>
  <course>358.5</course>
  <speed>0.85</speed>
  <fix>3d</fix>
</trkpt>
<trkpt lat="33.8105542" lon="-118.3938633">
  <ele>-2.997</ele>
  <time>2026-09-02T22:11:25Z</time>
  <course>0.75</course>
  <speed>0.880056816347672</speed>
  <fix>3d</fix>
</trkpt>
<trkpt lat="33.8105532" lon="-118.3938635">
  <ele>-2.92</ele>
  <time>2026-09-02T22:11:25Z</time>
  <course>358.53</course>
  <speed>0.89</speed>
  <fix>3d</fix>
</trkpt>
<trkpt lat="33.810555" lon="-118.3938633">
  <ele>-2.996</ele>
  <time>2026-09-02T22:11:25Z</time>
  <course>0.82</course>
  <speed>0.8900561780022652</speed>
  <fix>3d</fix>
</trkpt>
<trkpt lat="33.8105532" lon="-118.3938635">
  <ele>-2.92</ele>
  <time>2026-09-02T22:11:25Z</time>
  <course>358.53</course>
  <speed>0.89</speed>
  <fix>3d</fix>
</trkpt>
<trkpt lat="33.8105558" lon="-118.3938633">
  <ele>-2.996</ele>
  <time>2026-09-02T22:11:25Z</time>
  <course>0.91</course>
  <speed>0.8900561780022652</speed>
  <fix>3d</fix>
</trkpt>
<trkpt lat="33.8105549" lon="-118.3938636">
  <ele>-2.92</ele>
  <time>2026-09-02T22:11:25Z</time>
  <course>358.62</course>
  <speed>0.91</speed>
  <fix>3d</fix>
</trkpt>
<trkpt lat="33.8105566" lon="-118.3938633">
  <ele>-2.996</ele>
  <time>2026-09-02T22:11:25Z</time>
  <course>1.01</course>
  <speed>0.900222194794152</speed>
  <fix>3d</fix>
</trkpt>
<trkpt lat="33.8105549" lon="-118.3938636">
  <ele>-2.92</ele>
  <time>2026-09-02T22:11:25Z</time>
  <course>358.62</course>
  <speed>0.91</speed>
  <fix>3d</fix>
</trkpt>
<trkpt lat="33.8105575" lon="-118.3938633">
  <ele>-2.995</ele>
  <time>2026-09-02T22:11:25Z</time>
  <course>1.12</course>
  <speed>0.9102197536858887</speed>
  <fix>3d</fix>
</trkpt>
<trkpt lat="33.8105565" lon="-118.3938636">
  <ele>-2.92</ele>
  <time>2026-09-02T22:11:25Z</time>
  <course>358.75</course>
  <speed>0.92</speed>
  <fix>3d</fix>
</trkpt>
<trkpt lat="33.8105583" lon="-118.3938633">
  <ele>-2.994</ele>
  <time>2026-09-02T22:11:25Z</time>
  <course>1.23</course>
  <speed>0.9202173656261873</speed>
  <fix>3d</fix>
</trkpt>
<trkpt lat="33.8105565" lon="-118.3938636">
  <ele>-2.92</ele>
  <time>2026-09-02T22:11:25Z</time>
  <course>358.75</course>
  <speed>0.92</speed>
  <fix>3d</fix>
</trkpt>
<trkpt lat="33.8105592" lon="-118.3938633">
  <ele>-2.993</ele>
  <time>2026-09-02T22:11:25Z</time>
  <course>1.34</course>
  <speed>0.9202173656261873</speed>
  <fix>3d</fix>
</trkpt>
<trkpt lat="33.8105582" lon="-118.3938636">
  <ele>-2.91</ele>
  <time>2026-09-02T22:11:25Z</time>
  <course>358.88</course>
  <speed>0.94</speed>
  <fix>3d</fix>
</trkpt>
<trkpt lat="33.81056" lon="-118.3938633">
  <ele>-2.991</ele>
  <time>2026-09-02T22:11:25Z</time>
  <course>1.43</course>
  <speed>0.9302150289046076</speed>
  <fix>3d</fix>
</trkpt>
<trkpt lat="33.8105582" lon="-118.3938636">
  <ele>-2.91</ele>
  <time>2026-09-02T22:11:25Z</time>
  <course>358.88</course>
  <speed>0.94</speed>
  <fix>3d</fix>
</trkpt>
<trkpt lat="33.8105609" lon="-118.3938633">
  <ele>-2.99</ele>
  <time>2026-09-02T22:11:25Z</time>
  <course>1.52</course>
  <speed>0.9302150289046076</speed>
  <fix>3d</fix>
</trkpt>
<trkpt lat="33.8105599" lon="-118.3938637">
  <ele>-2.91</ele>
  <time>2026-09-02T22:11:25Z</time>
  <course>358.99</course>
  <speed>0.95</speed>
  <fix>3d</fix>
</trkpt>
<trkpt lat="33.8105618" lon="-118.3938634">
  <ele>-2.99</ele>
  <time>2026-09-02T22:11:25Z</time>
  <course>1.6</course>
  <speed>0.9402127418834527</speed>
  <fix>3d</fix>
</trkpt>
<trkpt lat="33.8105599" lon="-118.3938637">
  <ele>-2.91</ele>
  <time>2026-09-02T22:11:25Z</time>
  <course>358.99</course>
  <speed>0.95</speed>
  <fix>3d</fix>
</trkpt>
<trkpt lat="33.8105626" lon="-118.3938634">
  <ele>-2.991</ele>
  <time>2026-09-02T22:11:25Z</time>
  <course>1.69</course>
  <speed>0.9402127418834527</speed>
  <fix>3d</fix>
</trkpt>
<trkpt lat="33.8105616" lon="-118.3938637">
  <ele>-2.91</ele>
  <time>2026-09-02T22:11:25Z</time>
  <course>359.1</course>
  <speed>0.96</speed>
  <fix>3d</fix>
</trkpt>
<trkpt lat="33.8105635" lon="-118.3938634">
  <ele>-2.99</ele>
  <time>2026-09-02T22:11:25Z</time>
  <course>1.78</course>
  <speed>0.9502105029939419</speed>
  <fix>3d</fix>
</trkpt>
<trkpt lat="33.8105616" lon="-118.3938637">
  <ele>-2.91</ele>
  <time>2026-09-02T22:11:25Z</time>
  <course>359.1</course>
  <speed>0.96</speed>
  <fix>3d</fix>
</trkpt>
<trkpt lat="33.8105644" lon="-118.3938634">
  <ele>-2.989</ele>
  <time>2026-09-02T22:11:25Z</time>
  <course>1.88</course>
  <speed>0.9502105029939419</speed>
  <fix>3d</fix>
</trkpt>
<trkpt lat="33.8105633" lon="-118.3938638">
  <ele>-2.91</ele>
  <time>2026-09-02T22:11:25Z</time>
  <course>359.24</course>
  <speed>0.97</speed>
  <fix>3d</fix>
</trkpt>
<trkpt lat="33.8105652" lon="-118.3938634">
  <ele>-2.988</ele>
  <time>2026-09-02T22:11:25Z</time>
  <course>1.97</course>
  <speed>0.9504735661763561</speed>
  <fix>3d</fix>
</trkpt>
<trkpt lat="33.8105633" lon="-118.3938638">
  <ele>-2.91</ele>
  <time>2026-09-02T22:11:25Z</time>
  <course>359.24</course>
  <speed>0.97</speed>
  <fix>3d</fix>
</trkpt>
<trkpt lat="33.8105661" lon="-118.3938634">
  <ele>-2.988</ele>
  <time>2026-09-02T22:11:25Z</time>
  <course>2.08</course>
  <speed>0.9504735661763561</speed>
  <fix>3d</fix>
</trkpt>
<trkpt lat="33.8105651" lon="-118.3938638">
  <ele>-2.91</ele>
  <time>2026-09-02T22:11:25Z</time>
  <course>359.4</course>
  <speed>0.98</speed>
  <fix>3d</fix>
</trkpt>
<trkpt lat="33.810567" lon="-118.3938634">
  <ele>-2.989</ele>
  <time>2026-09-02T22:11:25Z</time>
  <course>2.18</course>
  <speed>0.9504735661763561</speed>
  <fix>3d</fix>
</trkpt>
<trkpt lat="33.8105651" lon="-118.3938638">
  <ele>-2.91</ele>
  <time>2026-09-02T22:11:25Z</time>
  <course>359.4</course>
  <speed>0.98</speed>
  <fix>3d</fix>
</trkpt>
<trkpt lat="33.8105679" lon="-118.3938634">
  <ele>-2.99</ele>
  <time>2026-09-02T22:11:25Z</time>
  <course>2.28</course>
  <speed>0.9604686356149272</speed>
  <fix>3d</fix>
</trkpt>
<trkpt lat="33.8105669" lon="-118.3938638">
  <ele>-2.91</ele>
  <time>2026-09-02T22:11:25Z</time>
  <course>359.58</course>
  <speed>0.99</speed>
  <fix>3d</fix>
</trkpt>
<trkpt lat="33.8105688" lon="-118.3938634">
  <ele>-2.991</ele>
  <time>2026-09-02T22:11:25Z</time>
  <course>2.36</course>
  <speed>0.9604686356149272</speed>
  <fix>3d</fix>
</trkpt>
<trkpt lat="33.8105669" lon="-118.3938638">
  <ele>-2.91</ele>
  <time>2026-09-02T22:11:25Z</time>
  <course>359.58</course>
  <speed>0.99</speed>
  <fix>3d</fix>
</trkpt>
<trkpt lat="33.8105697" lon="-118.3938634">
  <ele>-2.991</ele>
  <time>2026-09-02T22:11:25Z</time>
  <course>2.45</course>
  <speed>0.9604686356149272</speed>
  <fix>3d</fix>
</trkpt>
<trkpt lat="33.8105687" lon="-118.3938638">
  <ele>-2.92</ele>
  <time>2026-09-02T22:11:25Z</time>
  <course>359.72</course>
  <speed>0.99</speed>
  <fix>3d</fix>
</trkpt>
<trkpt lat="33.8105706" lon="-118.3938634">
  <ele>-2.99</ele>
  <time>2026-09-02T22:11:25Z</time>
  <course>2.51</course>
  <speed>0.9704638066409278</speed>
  <fix>3d</fix>
</trkpt>
<trkpt lat="33.8105687" lon="-118.3938638">
  <ele>-2.92</ele>
  <time>2026-09-02T22:11:25Z</time>
  <course>359.72</course>
  <speed>0.99</speed>
  <fix>3d</fix>
</trkpt>
<trkpt lat="33.8105715" lon="-118.3938634">
  <ele>-2.99</ele>
  <time>2026-09-02T22:11:25Z</time>
  <course>2.56</course>
  <speed>0.9804590761474953</speed>
  <fix>3d</fix>
</trkpt>
<trkpt lat="33.8105705" lon="-118.3938638">
  <ele>-2.92</ele>
  <time>2026-09-02T22:11:25Z</time>
  <course>359.81</course>
  <speed>1.0</speed>
  <fix>3d</fix>
</trkpt>
<trkpt lat="33.8105724" lon="-118.3938634">
  <ele>-2.991</ele>
  <time>2026-09-02T22:11:25Z</time>
  <course>2.58</course>
  <speed>1.0104454463255303</speed>
  <fix>3d</fix>
</trkpt>
<trkpt lat="33.8105705" lon="-118.3938638">
  <ele>-2.92</ele>
  <time>2026-09-02T22:11:25Z</time>
  <course>359.81</course>
  <speed>1.0</speed>
  <fix>3d</fix>
</trkpt>
<trkpt lat="33.8105733" lon="-118.3938634">
  <ele>-2.992</ele>
  <time>2026-09-02T22:11:25Z</time>
  <course>2.6</course>
  <speed>1.0404326023342407</speed>
  <fix>3d</fix>
</trkpt>
<trkpt lat="33.8105723" lon="-118.3938638">
  <ele>-2.92</ele>
  <time>2026-09-02T22:11:25Z</time>
  <course>359.83</course>
  <speed>1.03</speed>
  <fix>3d</fix>
</trkpt>
<trkpt lat="33.8105743" lon="-118.3938634">
  <ele>-2.993</ele>
  <time>2026-09-02T22:11:26Z</time>
  <course>2.57</course>
  <speed>1.0804165863221464</speed>
  <fix>3d</fix>
</trkpt>
<trkpt lat="33.8105723" lon="-118.3938638">
  <ele>-2.92</ele>
  <time>2026-09-02T22:11:26Z</time>
  <course>359.83</course>
  <speed>1.03</speed>
  <fix>3d</fix>
</trkpt>
<trkpt lat="33.8105754" lon="-118.3938634">
  <ele>-2.993</ele>
  <time>2026-09-02T22:11:26Z</time>
  <course>2.53</course>
  <speed>1.1303981599418853</speed>
  <fix>3d</fix>
</trkpt>
<trkpt lat="33.8105742" lon="-118.3938638">
  <ele>-2.92</ele>
  <time>2026-09-02T22:11:26Z</time>
  <course>359.79</course>
  <speed>1.09</speed>
  <fix>3d</fix>
</trkpt>
<trkpt lat="33.8105764" lon="-118.3938634">
  <ele>-2.994</ele>
  <time>2026-09-02T22:11:26Z</time>
  <course>2.46</course>
  <speed>1.1803812943282352</speed>
  <fix>3d</fix>
</trkpt>
<trkpt lat="33.8105742" lon="-118.3938638">
  <ele>-2.92</ele>
  <time>2026-09-02T22:11:26Z</time>
  <course>359.79</course>
  <speed>1.09</speed>
  <fix>3d</fix>
</trkpt>
<trkpt lat="33.8105775" lon="-118.3938634">
  <ele>-2.995</ele>
  <time>2026-09-02T22:11:26Z</time>
  <course>2.38</course>
  <speed>1.2303657992645927</speed>
  <fix>3d</fix>
</trkpt>
<trkpt lat="33.8105762" lon="-118.3938639">
  <ele>-2.93</ele>
  <time>2026-09-02T22:11:26Z</time>
  <course>359.73</course>
  <speed>1.18</speed>
  <fix>3d</fix>
</trkpt>
<trkpt lat="33.8105787" lon="-118.3938634">
  <ele>-2.995</ele>
  <time>2026-09-02T22:11:26Z</time>
  <course>2.3</course>
  <speed>1.2703542812932147</speed>
  <fix>3d</fix>
</trkpt>
<trkpt lat="33.8105762" lon="-118.3938639">
  <ele>-2.93</ele>
  <time>2026-09-02T22:11:26Z</time>
  <course>359.73</course>
  <speed>1.18</speed>
  <fix>3d</fix>
</trkpt>
<trkpt lat="33.8105799" lon="-118.3938634">
  <ele>-2.995</ele>
  <time>2026-09-02T22:11:26Z</time>
  <course>2.23</course>
  <speed>1.3103434664239755</speed>
  <fix>3d</fix>
</trkpt>
<trkpt lat="33.8105784" lon="-118.3938639">
  <ele>-2.92</ele>
  <time>2026-09-02T22:11:26Z</time>
  <course>359.71</course>
  <speed>1.27</speed>
  <fix>3d</fix>
</trkpt>
<trkpt lat="33.8105811" lon="-118.3938635">
  <ele>-2.995</ele>
  <time>2026-09-02T22:11:26Z</time>
  <course>2.17</course>
  <speed>1.330338302838793</speed>
  <fix>3d</fix>
</trkpt>
<trkpt lat="33.8105784" lon="-118.3938639">
  <ele>-2.92</ele>
  <time>2026-09-02T22:11:26Z</time>
  <course>359.71</course>
  <speed>1.27</speed>
  <fix>3d</fix>
</trkpt>
<trkpt lat="33.8105823" lon="-118.3938635">
  <ele>-2.995</ele>
  <time>2026-09-02T22:11:26Z</time>
  <course>2.13</course>
  <speed>1.3503332921912277</speed>
  <fix>3d</fix>
</trkpt>
<trkpt lat="33.8105808" lon="-118.3938639">
  <ele>-2.92</ele>
  <time>2026-09-02T22:11:26Z</time>
  <course>359.79</course>
  <speed>1.34</speed>
  <fix>3d</fix>
</trkpt>
<trkpt lat="33.8105836" lon="-118.3938635">
  <ele>-2.993</ele>
  <time>2026-09-02T22:11:26Z</time>
  <course>2.09</course>
  <speed>1.3603308421115798</speed>
  <fix>3d</fix>
</trkpt>
<trkpt lat="33.8105808" lon="-118.3938639">
  <ele>-2.92</ele>
  <time>2026-09-02T22:11:26Z</time>
  <course>359.79</course>
  <speed>1.34</speed>
  <fix>3d</fix>
</trkpt>
<trkpt lat="33.8105848" lon="-118.3938635">
  <ele>-2.991</ele>
  <time>2026-09-02T22:11:26Z</time>
  <course>2.06</course>
  <speed>1.3703284277865655</speed>
  <fix>3d</fix>
</trkpt>
<trkpt lat="33.8105833" lon="-118.3938639">
  <ele>-2.92</ele>
  <time>2026-09-02T22:11:26Z</time>
  <course>359.91</course>
  <speed>1.39</speed>
  <fix>3d</fix>
</trkpt>
<trkpt lat="33.8105861" lon="-118.3938635">
  <ele>-2.989</ele>
  <time>2026-09-02T22:11:26Z</time>
  <course>2.04</course>
  <speed>1.3803260484392808</speed>
  <fix>3d</fix>
</trkpt>
<trkpt lat="33.8105833" lon="-118.3938639">
  <ele>-2.92</ele>
  <time>2026-09-02T22:11:26Z</time>
  <course>359.91</course>
  <speed>1.39</speed>
  <fix>3d</fix>
</trkpt>
<trkpt lat="33.8105873" lon="-118.3938635">
  <ele>-2.987</ele>
  <time>2026-09-02T22:11:26Z</time>
  <course>2.02</course>
  <speed>1.3803260484392808</speed>
  <fix>3d</fix>
</trkpt>
<trkpt lat="33.8105858" lon="-118.3938639">
  <ele>-2.92</ele>
  <time>2026-09-02T22:11:26Z</time>
  <course>0.03</course>
  <speed>1.41</speed>
  <fix>3d</fix>
</trkpt>
<trkpt lat="33.8105886" lon="-118.3938635">
  <ele>-2.986</ele>
  <time>2026-09-02T22:11:26Z</time>
  <course>2.0</course>
  <speed>1.3905754204644925</speed>
  <fix>3d</fix>
</trkpt>
<trkpt lat="33.8105858" lon="-118.3938639">
  <ele>-2.92</ele>
  <time>2026-09-02T22:11:26Z</time>
  <course>0.03</course>
  <speed>1.41</speed>
  <fix>3d</fix>
</trkpt>
<trkpt lat="33.8105899" lon="-118.3938635">
  <ele>-2.987</ele>
  <time>2026-09-02T22:11:26Z</time>
  <course>1.99</course>
  <speed>1.3905754204644925</speed>
  <fix>3d</fix>
</trkpt>
<trkpt lat="33.8105884" lon="-118.3938639">
  <ele>-2.92</ele>
  <time>2026-09-02T22:11:26Z</time>
  <course>0.14</course>
  <speed>1.42</speed>
  <fix>3d</fix>
</trkpt>
<trkpt lat="33.8105912" lon="-118.3938635">
  <ele>-2.988</ele>
  <time>2026-09-02T22:11:26Z</time>
  <course>1.97</course>
  <speed>1.3905754204644925</speed>
  <fix>3d</fix>
</trkpt>
<trkpt lat="33.8105884" lon="-118.3938639">
  <ele>-2.92</ele>
  <time>2026-09-02T22:11:26Z</time>
  <course>0.14</course>
  <speed>1.42</speed>
  <fix>3d</fix>
</trkpt>
<trkpt lat="33.8105925" lon="-118.3938635">
  <ele>-2.989</ele>
  <time>2026-09-02T22:11:26Z</time>
  <course>1.96</course>
  <speed>1.4005713120009278</speed>
  <fix>3d</fix>
</trkpt>
<trkpt lat="33.810591" lon="-118.3938639">
  <ele>-2.92</ele>
  <time>2026-09-02T22:11:26Z</time>
  <course>0.21</course>
  <speed>1.43</speed>
  <fix>3d</fix>
</trkpt>
<trkpt lat="33.8105938" lon="-118.3938635">
  <ele>-2.99</ele>
  <time>2026-09-02T22:11:26Z</time>
  <course>1.94</course>
  <speed>1.4005713120009278</speed>
  <fix>3d</fix>
</trkpt>
<trkpt lat="33.810591" lon="-118.3938639">
  <ele>-2.92</ele>
  <time>2026-09-02T22:11:26Z</time>
  <course>0.21</course>
  <speed>1.43</speed>
  <fix>3d</fix>
</trkpt>
<trkpt lat="33.8105951" lon="-118.3938635">
  <ele>-2.991</ele>
  <time>2026-09-02T22:11:26Z</time>
  <course>1.92</course>
  <speed>1.4003213916812098</speed>
  <fix>3d</fix>
</trkpt>
<trkpt lat="33.8105935" lon="-118.3938639">
  <ele>-2.92</ele>
  <time>2026-09-02T22:11:26Z</time>
  <course>0.28</course>
  <speed>1.44</speed>
  <fix>3d</fix>
</trkpt>
<trkpt lat="33.8105963" lon="-118.3938635">
  <ele>-2.991</ele>
  <time>2026-09-02T22:11:26Z</time>
  <course>1.9</course>
  <speed>1.4005713120009278</speed>
  <fix>3d</fix>
</trkpt>
<trkpt lat="33.8105935" lon="-118.3938639">
  <ele>-2.92</ele>
  <time>2026-09-02T22:11:26Z</time>
  <course>0.28</course>
  <speed>1.44</speed>
  <fix>3d</fix>
</trkpt>
<trkpt lat="33.8105976" lon="-118.3938635">
  <ele>-2.991</ele>
  <time>2026-09-02T22:11:26Z</time>
  <course>1.89</course>
  <speed>1.4003213916812098</speed>
  <fix>3d</fix>
</trkpt>
<trkpt lat="33.8105961" lon="-118.3938639">
  <ele>-2.92</ele>
  <time>2026-09-02T22:11:26Z</time>
  <course>0.34</course>
  <speed>1.44</speed>
  <fix>3d</fix>
</trkpt>
<trkpt lat="33.8105989" lon="-118.3938635">
  <ele>-2.991</ele>
  <time>2026-09-02T22:11:26Z</time>
  <course>1.87</course>
  <speed>1.4003213916812098</speed>
  <fix>3d</fix>
</trkpt>
<trkpt lat="33.8105961" lon="-118.3938639">
  <ele>-2.92</ele>
  <time>2026-09-02T22:11:26Z</time>
  <course>0.34</course>
  <speed>1.44</speed>
  <fix>3d</fix>
</trkpt>
<trkpt lat="33.8106002" lon="-118.3938635">
  <ele>-2.992</ele>
  <time>2026-09-02T22:11:26Z</time>
  <course>1.85</course>
  <speed>1.4003213916812098</speed>
  <fix>3d</fix>
</trkpt>
<trkpt lat="33.8105987" lon="-118.3938639">
  <ele>-2.92</ele>
  <time>2026-09-02T22:11:26Z</time>
  <course>0.39</course>
  <speed>1.44</speed>
  <fix>3d</fix>
</trkpt>
<trkpt lat="33.8106015" lon="-118.3938635">
  <ele>-2.992</ele>
  <time>2026-09-02T22:11:26Z</time>
  <course>1.84</course>
  <speed>1.4003213916812098</speed>
  <fix>3d</fix>
</trkpt>
<trkpt lat="33.8105987" lon="-118.3938639">
  <ele>-2.92</ele>
  <time>2026-09-02T22:11:26Z</time>
  <course>0.39</course>
  <speed>1.44</speed>
  <fix>3d</fix>
</trkpt>
<trkpt lat="33.8106028" lon="-118.3938635">
  <ele>-2.993</ele>
  <time>2026-09-02T22:11:26Z</time>
  <course>1.82</course>
  <speed>1.4003213916812098</speed>
  <fix>3d</fix>
</trkpt>
<trkpt lat="33.8106013" lon="-118.3938639">
  <ele>-2.92</ele>
  <time>2026-09-02T22:11:26Z</time>
  <course>0.45</course>
  <speed>1.43</speed>
  <fix>3d</fix>
</trkpt>
<trkpt lat="33.8106041" lon="-118.3938635">
  <ele>-2.994</ele>
  <time>2026-09-02T22:11:26Z</time>
  <course>1.81</course>
  <speed>1.390323703315167</speed>
  <fix>3d</fix>
</trkpt>
<trkpt lat="33.8106013" lon="-118.3938639">
  <ele>-2.92</ele>
  <time>2026-09-02T22:11:26Z</time>
  <course>0.45</course>
  <speed>1.43</speed>
  <fix>3d</fix>
</trkpt>
<trkpt lat="33.8106054" lon="-118.3938635">
  <ele>-2.993</ele>
  <time>2026-09-02T22:11:26Z</time>
  <course>1.79</course>
  <speed>1.390323703315167</speed>
  <fix>3d</fix>
</trkpt>
<trkpt lat="33.8106038" lon="-118.3938639">
  <ele>-2.92</ele>
  <time>2026-09-02T22:11:26Z</time>
  <course>0.51</course>
  <speed>1.43</speed>
  <fix>3d</fix>
</trkpt>
<trkpt lat="33.8106067" lon="-118.3938635">
  <ele>-2.992</ele>
  <time>2026-09-02T22:11:26Z</time>
  <course>1.78</course>
  <speed>1.390323703315167</speed>
  <fix>3d</fix>
</trkpt>
<trkpt lat="33.8106038" lon="-118.3938639">
  <ele>-2.92</ele>
  <time>2026-09-02T22:11:26Z</time>
  <course>0.51</course>
  <speed>1.43</speed>
  <fix>3d</fix>
</trkpt>
<trkpt lat="33.810608" lon="-118.3938635">
  <ele>-2.99</ele>
  <time>2026-09-02T22:11:26Z</time>
  <course>1.77</course>
  <speed>1.390323703315167</speed>
  <fix>3d</fix>
</trkpt>
<trkpt lat="33.8106065" lon="-118.3938638">
  <ele>-2.91</ele>
  <time>2026-09-02T22:11:26Z</time>
  <course>0.56</course>
  <speed>1.43</speed>
  <fix>3d</fix>
</trkpt>
<trkpt lat="33.8106092" lon="-118.3938635">
  <ele>-2.987</ele>
  <time>2026-09-02T22:11:26Z</time>
  <course>1.75</course>
  <speed>1.3803260484392808</speed>
  <fix>3d</fix>
</trkpt>
<trkpt lat="33.8106065" lon="-118.3938638">
  <ele>-2.91</ele>
  <time>2026-09-02T22:11:26Z</time>
  <course>0.56</course>
  <speed>1.43</speed>
  <fix>3d</fix>
</trkpt>
<trkpt lat="33.8106105" lon="-118.3938635">
  <ele>-2.983</ele>
  <time>2026-09-02T22:11:26Z</time>
  <course>1.72</course>
  <speed>1.3603308421115798</speed>
  <fix>3d</fix>
</trkpt>
<trkpt lat="33.810609" lon="-118.3938638">
  <ele>-2.91</ele>
  <time>2026-09-02T22:11:26Z</time>
  <course>0.59</course>
  <speed>1.42</speed>
  <fix>3d</fix>
</trkpt>
<trkpt lat="33.8106118" lon="-118.3938635">
  <ele>-2.981</ele>
  <time>2026-09-02T22:11:26Z</time>
  <course>1.68</course>
  <speed>1.3403357788255896</speed>
  <fix>3d</fix>
</trkpt>
<trkpt lat="33.810609" lon="-118.3938638">
  <ele>-2.91</ele>
  <time>2026-09-02T22:11:26Z</time>
  <course>0.59</course>
  <speed>1.42</speed>
  <fix>3d</fix>
</trkpt>
<trkpt lat="33.810613" lon="-118.3938635">
  <ele>-2.98</ele>
  <time>2026-09-02T22:11:26Z</time>
  <course>1.66</course>
  <speed>1.3103434664239755</speed>
  <fix>3d</fix>
</trkpt>
<trkpt lat="33.8106115" lon="-118.3938638">
  <ele>-2.91</ele>
  <time>2026-09-02T22:11:26Z</time>
  <course>0.64</course>
  <speed>1.39</speed>
  <fix>3d</fix>
</trkpt>
<trkpt lat="33.8106142" lon="-118.3938635">
  <ele>-2.981</ele>
  <time>2026-09-02T22:11:26Z</time>
  <course>1.63</course>
  <speed>1.2703542812932147</speed>
  <fix>3d</fix>
</trkpt>
<trkpt lat="33.8106115" lon="-118.3938638">
  <ele>-2.91</ele>
  <time>2026-09-02T22:11:26Z</time>
  <course>0.64</course>
  <speed>1.39</speed>
  <fix>3d</fix>
</trkpt>
<trkpt lat="33.8106153" lon="-118.3938635">
  <ele>-2.983</ele>
  <time>2026-09-02T22:11:26Z</time>
  <course>1.61</course>
  <speed>1.2303657992645927</speed>
  <fix>3d</fix>
</trkpt>
<trkpt lat="33.810614" lon="-118.3938637">
  <ele>-2.91</ele>
  <time>2026-09-02T22:11:26Z</time>
  <course>0.72</course>
  <speed>1.33</speed>
  <fix>3d</fix>
</trkpt>
<trkpt lat="33.8106164" lon="-118.3938635">
  <ele>-2.984</ele>
  <time>2026-09-02T22:11:26Z</time>
  <course>1.59</course>
  <speed>1.1803812943282352</speed>
  <fix>3d</fix>
</trkpt>
<trkpt lat="33.810614" lon="-118.3938637">
  <ele>-2.91</ele>
  <time>2026-09-02T22:11:26Z</time>
  <course>0.72</course>
  <speed>1.33</speed>
  <fix>3d</fix>
</trkpt>
<trkpt lat="33.8106175" lon="-118.3938635">
  <ele>-2.984</ele>
  <time>2026-09-02T22:11:26Z</time>
  <course>1.58</course>
  <speed>1.1204017136723774</speed>
  <fix>3d</fix>
</trkpt>
<trkpt lat="33.8106163" lon="-118.3938637">
  <ele>-2.91</ele>
  <time>2026-09-02T22:11:26Z</time>
  <course>0.84</course>
  <speed>1.25</speed>
  <fix>3d</fix>
</trkpt>
<trkpt lat="33.8106185" lon="-118.3938634">
  <ele>-2.984</ele>
  <time>2026-09-02T22:11:26Z</time>
  <course>1.56</course>
  <speed>1.0604244433244643</speed>
  <fix>3d</fix>
</trkpt>
<trkpt lat="33.8106163" lon="-118.3938637">
  <ele>-2.91</ele>
  <time>2026-09-02T22:11:26Z</time>
  <course>0.84</course>
  <speed>1.25</speed>
  <fix>3d</fix>
</trkpt>
<trkpt lat="33.8106195" lon="-118.3938634">
  <ele>-2.984</ele>
  <time>2026-09-02T22:11:26Z</time>
  <course>1.55</course>
  <speed>0.9902019995940222</speed>
  <fix>3d</fix>
</trkpt>
<trkpt lat="33.8106185" lon="-118.3938636">
  <ele>-2.91</ele>
  <time>2026-09-02T22:11:26Z</time>
  <course>0.98</course>
  <speed>1.14</speed>
  <fix>3d</fix>
</trkpt>
<trkpt lat="33.8106204" lon="-118.3938634">
  <ele>-2.983</ele>
  <time>2026-09-02T22:11:26Z</time>
  <course>1.54</course>
  <speed>0.9302150289046076</speed>
  <fix>3d</fix>
</trkpt>
<trkpt lat="33.8106185" lon="-118.3938636">
  <ele>-2.91</ele>
  <time>2026-09-02T22:11:26Z</time>
  <course>0.98</course>
  <speed>1.14</speed>
  <fix>3d</fix>
</trkpt>
<trkpt lat="33.8106212" lon="-118.3938634">
  <ele>-2.983</ele>
  <time>2026-09-02T22:11:26Z</time>
  <course>1.54</course>
  <speed>0.8602325267042628</speed>
  <fix>3d</fix>
</trkpt>
<trkpt lat="33.8106204" lon="-118.3938636">
  <ele>-2.91</ele>
  <time>2026-09-02T22:11:26Z</time>
  <course>1.17</course>
  <speed>1.01</speed>
  <fix>3d</fix>
</trkpt>
<trkpt lat="33.810622" lon="-118.3938634">
  <ele>-2.984</ele>
  <time>2026-09-02T22:11:26Z</time>
  <course>1.53</course>
  <speed>0.8002499609497022</speed>
  <fix>3d</fix>
</trkpt>
<trkpt lat="33.8106204" lon="-118.3938636">
  <ele>-2.91</ele>
  <time>2026-09-02T22:11:26Z</time>
  <course>1.17</course>
  <speed>1.01</speed>
  <fix>3d</fix>
</trkpt>
<trkpt lat="33.8106228" lon="-118.3938634">
  <ele>-2.984</ele>
  <time>2026-09-02T22:11:26Z</time>
  <course>1.53</course>
  <speed>0.7502666192761077</speed>
  <fix>3d</fix>
</trkpt>
<trkpt lat="33.8106221" lon="-118.3938636">
  <ele>-2.92</ele>
  <time>2026-09-02T22:11:26Z</time>
  <course>1.37</course>
  <speed>0.88</speed>
  <fix>3d</fix>
</trkpt>
<trkpt lat="33.8106235" lon="-118.3938634">
  <ele>-2.986</ele>
  <time>2026-09-02T22:11:26Z</time>
  <course>1.53</course>
  <speed>0.7002856560004639</speed>
  <fix>3d</fix>
</trkpt>
<trkpt lat="33.8106221" lon="-118.3938636">
  <ele>-2.92</ele>
  <time>2026-09-02T22:11:26Z</time>
  <course>1.37</course>
  <speed>0.88</speed>
  <fix>3d</fix>
</trkpt>
<trkpt lat="33.8106241" lon="-118.3938634">
  <ele>-2.987</ele>
  <time>2026-09-02T22:11:26Z</time>
  <course>1.55</course>
  <speed>0.660302960768767</speed>
  <fix>3d</fix>
</trkpt>
<trkpt lat="33.8106236" lon="-118.3938635">
  <ele>-2.92</ele>
  <time>2026-09-02T22:11:26Z</time>
  <course>1.55</course>
  <speed>0.77</speed>
  <fix>3d</fix>
</trkpt>
<trkpt lat="33.8106248" lon="-118.3938634">
  <ele>-2.988</ele>
  <time>2026-09-02T22:11:26Z</time>
  <course>1.55</course>
  <speed>0.630317380372777</speed>
  <fix>3d</fix>
</trkpt>
<trkpt lat="33.8106236" lon="-118.3938635">
  <ele>-2.92</ele>
  <time>2026-09-02T22:11:26Z</time>
  <course>1.55</course>
  <speed>0.77</speed>
  <fix>3d</fix>
</trkpt>
<trkpt lat="33.8106253" lon="-118.3938634">
  <ele>-2.989</ele>
  <time>2026-09-02T22:11:26Z</time>
  <course>1.54</course>
  <speed>0.6000833275470999</speed>
  <fix>3d</fix>
</trkpt>
<trkpt lat="33.8106249" lon="-118.3938635">
  <ele>-2.92</ele>
  <time>2026-09-02T22:11:26Z</time>
  <course>1.65</course>
  <speed>0.68</speed>
  <fix>3d</fix>
</trkpt>
<trkpt lat="33.8106259" lon="-118.3938633">
  <ele>-2.989</ele>
  <time>2026-09-02T22:11:26Z</time>
  <course>1.49</course>
  <speed>0.570087712549569</speed>
  <fix>3d</fix>
</trkpt>
<trkpt lat="33.8106249" lon="-118.3938635">
  <ele>-2.92</ele>
  <time>2026-09-02T22:11:26Z</time>
  <course>1.65</course>
  <speed>0.68</speed>
  <fix>3d</fix>
</trkpt>
<trkpt lat="33.8106264" lon="-118.3938633">
  <ele>-2.989</ele>
  <time>2026-09-02T22:11:26Z</time>
  <course>1.44</course>
  <speed>0.5500909015790026</speed>
  <fix>3d</fix>
</trkpt>
<trkpt lat="33.8106261" lon="-118.3938634">
  <ele>-2.92</ele>
  <time>2026-09-02T22:11:26Z</time>
  <course>1.63</course>
  <speed>0.61</speed>
  <fix>3d</fix>
</trkpt>
<trkpt lat="33.810627" lon="-118.3938633">
  <ele>-2.989</ele>
  <time>2026-09-02T22:11:26Z</time>
  <course>1.35</course>
  <speed>0.540092584655631</speed>
  <fix>3d</fix>
</trkpt>
<trkpt lat="33.8106261" lon="-118.3938634">
  <ele>-2.92</ele>
  <time>2026-09-02T22:11:26Z</time>
  <course>1.63</course>
  <speed>0.61</speed>
  <fix>3d</fix>
</trkpt>
<trkpt lat="33.8106275" lon="-118.3938633">
  <ele>-2.988</ele>
  <time>2026-09-02T22:11:26Z</time>
  <course>1.2</course>
  <speed>0.5300943312279428</speed>
  <fix>3d</fix>
</trkpt>
<trkpt lat="33.8106272" lon="-118.3938634">
  <ele>-2.92</ele>
  <time>2026-09-02T22:11:26Z</time>
  <course>1.47</course>
  <speed>0.57</speed>
  <fix>3d</fix>
</trkpt>
<trkpt lat="33.810628" lon="-118.3938633">
  <ele>-2.987</ele>
  <time>2026-09-02T22:11:26Z</time>
  <course>0.98</course>
  <speed>0.5200961449578337</speed>
  <fix>3d</fix>
</trkpt>
<trkpt lat="33.8106272" lon="-118.3938634">
  <ele>-2.92</ele>
  <time>2026-09-02T22:11:26Z</time>
  <course>1.47</course>
  <speed>0.57</speed>
  <fix>3d</fix>
</trkpt>
<trkpt lat="33.8106285" lon="-118.3938633">
  <ele>-2.988</ele>
  <time>2026-09-02T22:11:26Z</time>
  <course>0.71</course>
  <speed>0.510098029794274</speed>
  <fix>3d</fix>
</trkpt>
<trkpt lat="33.8106281" lon="-118.3938634">
  <ele>-2.92</ele>
  <time>2026-09-02T22:11:26Z</time>
  <course>1.18</course>
  <speed>0.54</speed>
  <fix>3d</fix>
</trkpt>
<trkpt lat="33.810629" lon="-118.3938633">
  <ele>-2.988</ele>
  <time>2026-09-02T22:11:26Z</time>
  <course>0.41</course>
  <speed>0.5000999900019995</speed>
  <fix>3d</fix>
</trkpt>
<trkpt lat="33.8106281" lon="-118.3938634">
  <ele>-2.92</ele>
  <time>2026-09-02T22:11:26Z</time>
  <course>1.18</course>
  <speed>0.54</speed>
  <fix>3d</fix>
</trkpt>
<trkpt lat="33.8106294" lon="-118.3938633">
  <ele>-2.989</ele>
  <time>2026-09-02T22:11:26Z</time>
  <course>0.1</course>
  <speed>0.4901020301937138</speed>
  <fix>3d</fix>
</trkpt>
<trkpt lat="33.8106291" lon="-118.3938634">
  <ele>-2.91</ele>
  <time>2026-09-02T22:11:26Z</time>
  <course>0.92</course>
  <speed>0.52</speed>
  <fix>3d</fix>
</trkpt>
<trkpt lat="33.8106299" lon="-118.3938633">
  <ele>-2.989</ele>
  <time>2026-09-02T22:11:26Z</time>
  <course>359.79</course>
  <speed>0.4801041553663121</speed>
  <fix>3d</fix>
</trkpt>
<trkpt lat="33.8106291" lon="-118.3938634">
  <ele>-2.91</ele>
  <time>2026-09-02T22:11:26Z</time>
  <course>0.92</course>
  <speed>0.52</speed>
  <fix>3d</fix>
</trkpt>
<trkpt lat="33.8106304" lon="-118.3938633">
  <ele>-2.989</ele>
  <time>2026-09-02T22:11:26Z</time>
  <course>359.49</course>
  <speed>0.47010637094172636</speed>
  <fix>3d</fix>
</trkpt>
<trkpt lat="33.8106301" lon="-118.3938633">
  <ele>-2.91</ele>
  <time>2026-09-02T22:11:26Z</time>
  <course>0.76</course>
  <speed>0.5</speed>
  <fix>3d</fix>
</trkpt>
<trkpt lat="33.8106308" lon="-118.3938633">
  <ele>-2.989</ele>
  <time>2026-09-02T22:11:26Z</time>
  <course>359.15</course>
  <speed>0.47010637094172636</speed>
  <fix>3d</fix>
</trkpt>
<trkpt lat="33.8106301" lon="-118.3938633">
  <ele>-2.91</ele>
  <time>2026-09-02T22:11:26Z</time>
  <course>0.76</course>
  <speed>0.5</speed>
  <fix>3d</fix>
</trkpt>
<trkpt lat="33.8106313" lon="-118.3938633">
  <ele>-2.989</ele>
  <time>2026-09-02T22:11:26Z</time>
  <course>358.76</course>
  <speed>0.46010868281309364</speed>
  <fix>3d</fix>
</trkpt>
<trkpt lat="33.810631" lon="-118.3938633">
  <ele>-2.91</ele>
  <time>2026-09-02T22:11:26Z</time>
  <course>0.58</course>
  <speed>0.49</speed>
  <fix>3d</fix>
</trkpt>
<trkpt lat="33.8106317" lon="-118.3938633">
  <ele>-2.989</ele>
  <time>2026-09-02T22:11:26Z</time>
  <course>358.3</course>
  <speed>0.46010868281309364</speed>
  <fix>3d</fix>
</trkpt>
<trkpt lat="33.810631" lon="-118.3938633">
  <ele>-2.91</ele>
  <time>2026-09-02T22:11:26Z</time>
  <course>0.58</course>
  <speed>0.49</speed>
  <fix>3d</fix>
</trkpt>
<trkpt lat="33.8106322" lon="-118.3938633">
  <ele>-2.989</ele>
  <time>2026-09-02T22:11:26Z</time>
  <course>357.78</course>
  <speed>0.46010868281309364</speed>
  <fix>3d</fix>
</trkpt>
<trkpt lat="33.8106318" lon="-118.3938633">
  <ele>-2.9</ele>
  <time>2026-09-02T22:11:26Z</time>
  <course>0.34</course>
  <speed>0.48</speed>
  <fix>3d</fix>
</trkpt>
<trkpt lat="33.8106326" lon="-118.3938633">
  <ele>-2.987</ele>
  <time>2026-09-02T22:11:26Z</time>
  <course>357.26</course>
  <speed>0.450111097397076</speed>
  <fix>3d</fix>
</trkpt>
<trkpt lat="33.8106318" lon="-118.3938633">
  <ele>-2.9</ele>
  <time>2026-09-02T22:11:26Z</time>
  <course>0.34</course>
  <speed>0.48</speed>
  <fix>3d</fix>
</trkpt>
<trkpt lat="33.810633" lon="-118.3938633">
  <ele>-2.985</ele>
  <time>2026-09-02T22:11:26Z</time>
  <course>356.76</course>
  <speed>0.450111097397076</speed>
  <fix>3d</fix>
</trkpt>
<trkpt lat="33.8106327" lon="-118.3938633">
  <ele>-2.9</ele>
  <time>2026-09-02T22:11:26Z</time>
  <course>0.1</course>
  <speed>0.47</speed>
  <fix>3d</fix>
</trkpt>
<trkpt lat="33.8106335" lon="-118.3938633">
  <ele>-2.983</ele>
  <time>2026-09-02T22:11:26Z</time>
  <course>356.29</course>
  <speed>0.450111097397076</speed>
  <fix>3d</fix>
</trkpt>
<trkpt lat="33.8106327" lon="-118.3938633">
  <ele>-2.9</ele>
  <time>2026-09-02T22:11:26Z</time>
  <course>0.1</course>
  <speed>0.47</speed>
  <fix>3d</fix>
</trkpt>
<trkpt lat="33.8106339" lon="-118.3938632">
  <ele>-2.982</ele>
  <time>2026-09-02T22:11:26Z</time>
  <course>355.88</course>
  <speed>0.450111097397076</speed>
  <fix>3d</fix>
</trkpt>
<trkpt lat="33.8106336" lon="-118.3938633">
  <ele>-2.9</ele>
  <time>2026-09-02T22:11:26Z</time>
  <course>359.91</course>
  <speed>0.47</speed>
  <fix>3d</fix>
</trkpt>
<trkpt lat="33.8106343" lon="-118.3938632">
  <ele>-2.981</ele>
  <time>2026-09-02T22:11:26Z</time>
  <course>355.52</course>
  <speed>0.450111097397076</speed>
  <fix>3d</fix>
</trkpt>
<trkpt lat="33.8106336" lon="-118.3938633">
  <ele>-2.9</ele>
  <time>2026-09-02T22:11:26Z</time>
  <course>359.91</course>
  <speed>0.47</speed>
  <fix>3d</fix>
</trkpt>
<trkpt lat="33.8106347" lon="-118.3938632">
  <ele>-2.981</ele>
  <time>2026-09-02T22:11:26Z</time>
  <course>355.2</course>
  <speed>0.450111097397076</speed>
  <fix>3d</fix>
</trkpt>
<trkpt lat="33.8106344" lon="-118.3938633">
  <ele>-2.9</ele>
  <time>2026-09-02T22:11:26Z</time>
  <course>359.74</course>
  <speed>0.47</speed>
  <fix>3d</fix>
</trkpt>
<trkpt lat="33.8106351" lon="-118.3938632">
  <ele>-2.98</ele>
  <time>2026-09-02T22:11:26Z</time>
  <course>354.91</course>
  <speed>0.37013511046643494</speed>
  <fix>3d</fix>
</trkpt>
<trkpt lat="33.8106344" lon="-118.3938633">
  <ele>-2.9</ele>
  <time>2026-09-02T22:11:26Z</time>
  <course>359.74</course>
  <speed>0.47</speed>
  <fix>3d</fix>
</trkpt>
<trkpt lat="33.8106355" lon="-118.3938632">
  <ele>-2.98</ele>
  <time>2026-09-02T22:11:26Z</time>
  <course>354.66</course>
  <speed>0.31064449134018135</speed>
  <fix>3d</fix>
</trkpt>
<trkpt lat="33.8106353" lon="-118.3938633">
  <ele>-2.9</ele>
  <time>2026-09-02T22:11:26Z</time>
  <course>0.16</course>
  <speed>0.42</speed>
  <fix>3d</fix>
</trkpt>
<trkpt lat="33.8106358" lon="-118.3938632">
  <ele>-2.979</ele>
  <time>2026-09-02T22:11:26Z</time>
  <course>354.43</course>
  <speed>0.2707397274136177</speed>
  <fix>3d</fix>
</trkpt>
<trkpt lat="33.8106353" lon="-118.3938633">
  <ele>-2.9</ele>
  <time>2026-09-02T22:11:26Z</time>
  <course>0.16</course>
  <speed>0.42</speed>
  <fix>3d</fix>
</trkpt>
<trkpt lat="33.810636" lon="-118.3938632">
  <ele>-2.977</ele>
  <time>2026-09-02T22:11:26Z</time>
  <course>354.23</course>
  <speed>0.24083189157584592</speed>
  <fix>3d</fix>
</trkpt>
<trkpt lat="33.8106359" lon="-118.3938633">
  <ele>-2.89</ele>
  <time>2026-09-02T22:11:26Z</time>
  <course>1.64</course>
  <speed>0.32</speed>
  <fix>3d</fix>
</trkpt>
<trkpt lat="33.8106362" lon="-118.3938632">
  <ele>-2.975</ele>
  <time>2026-09-02T22:11:26Z</time>
  <course>354.04</course>
  <speed>0.21213203435596426</speed>
  <fix>3d</fix>
</trkpt>
<trkpt lat="33.8106359" lon="-118.3938633">
  <ele>-2.89</ele>
  <time>2026-09-02T22:11:26Z</time>
  <course>1.64</course>
  <speed>0.32</speed>
  <fix>3d</fix>
</trkpt>
<trkpt lat="33.8106365" lon="-118.3938632">
  <ele>-2.972</ele>
  <time>2026-09-02T22:11:26Z</time>
  <course>353.87</course>
  <speed>0.19235384061671343</speed>
  <fix>3d</fix>
</trkpt>
<trkpt lat="33.8106364" lon="-118.3938633">
  <ele>-2.89</ele>
  <time>2026-09-02T22:11:26Z</time>
  <course>3.6</course>
  <speed>0.25</speed>
  <fix>3d</fix>
</trkpt>
<trkpt lat="33.8106366" lon="-118.3938631">
  <ele>-2.968</ele>
  <time>2026-09-02T22:11:26Z</time>
  <course>353.71</course>
  <speed>0.17262676501632068</speed>
  <fix>3d</fix>
</trkpt>
<trkpt lat="33.8106364" lon="-118.3938633">
  <ele>-2.89</ele>
  <time>2026-09-02T22:11:26Z</time>
  <course>3.6</course>
  <speed>0.25</speed>
  <fix>3d</fix>
</trkpt>
<trkpt lat="33.8106368" lon="-118.3938631">
  <ele>-2.962</ele>
  <time>2026-09-02T22:11:26Z</time>
  <course>353.56</course>
  <speed>0.16278820596099705</speed>
  <fix>3d</fix>
</trkpt>
<trkpt lat="33.8106369" lon="-118.3938632">
  <ele>-2.88</ele>
  <time>2026-09-02T22:11:26Z</time>
  <course>5.36</course>
  <speed>0.2</speed>
  <fix>3d</fix>
</trkpt>
<trkpt lat="33.810637" lon="-118.3938631">
  <ele>-2.956</ele>
  <time>2026-09-02T22:11:26Z</time>
  <course>353.43</course>
  <speed>0.14317821063276354</speed>
  <fix>3d</fix>
</trkpt>
<trkpt lat="33.8106369" lon="-118.3938632">
  <ele>-2.88</ele>
  <time>2026-09-02T22:11:26Z</time>
  <course>5.36</course>
  <speed>0.2</speed>
  <fix>3d</fix>
</trkpt>
<trkpt lat="33.8106371" lon="-118.3938631">
  <ele>-2.949</ele>
  <time>2026-09-02T22:11:26Z</time>
  <course>353.3</course>
  <speed>0.13341664064126335</speed>
  <fix>3d</fix>
</trkpt>
<trkpt lat="33.8106372" lon="-118.3938632">
  <ele>-2.87</ele>
  <time>2026-09-02T22:11:26Z</time>
  <course>6.92</course>
  <speed>0.17</speed>
  <fix>3d</fix>
</trkpt>
<trkpt lat="33.8106373" lon="-118.393863">
  <ele>-2.942</ele>
  <time>2026-09-02T22:11:26Z</time>
  <course>353.17</course>
  <speed>0.12369316876852982</speed>
  <fix>3d</fix>
</trkpt>
<trkpt lat="33.8106372" lon="-118.3938632">
  <ele>-2.87</ele>
  <time>2026-09-02T22:11:26Z</time>
  <course>6.92</course>
  <speed>0.17</speed>
  <fix>3d</fix>
</trkpt>
<trkpt lat="33.8106374" lon="-118.393863">
  <ele>-2.934</ele>
  <time>2026-09-02T22:11:26Z</time>
  <course>353.06</course>
  <speed>0.12369316876852982</speed>
  <fix>3d</fix>
</trkpt>
<trkpt lat="33.8106375" lon="-118.3938631">
  <ele>-2.86</ele>
  <time>2026-09-02T22:11:26Z</time>
  <course>8.31</course>
  <speed>0.15</speed>
  <fix>3d</fix>
</trkpt>
<trkpt lat="33.8106375" lon="-118.393863">
  <ele>-2.926</ele>
  <time>2026-09-02T22:11:26Z</time>
  <course>352.95</course>
  <speed>0.11401754250991379</speed>
  <fix>3d</fix>
</trkpt>
<trkpt lat="33.8106375" lon="-118.3938631">
  <ele>-2.86</ele>
  <time>2026-09-02T22:11:26Z</time>
  <course>8.31</course>
  <speed>0.15</speed>
  <fix>3d</fix>
</trkpt>
<trkpt lat="33.8106377" lon="-118.3938629">
  <ele>-2.918</ele>
  <time>2026-09-02T22:11:26Z</time>
  <course>352.84</course>
  <speed>0.1044030650891055</speed>
  <fix>3d</fix>
</trkpt>
<trkpt lat="33.8106377" lon="-118.3938631">
  <ele>-2.85</ele>
  <time>2026-09-02T22:11:26Z</time>
  <course>9.55</course>
  <speed>0.13</speed>
  <fix>3d</fix>
</trkpt>
<trkpt lat="33.8106378" lon="-118.3938629">
  <ele>-2.91</ele>
  <time>2026-09-02T22:11:26Z</time>
  <course>352.75</course>
  <speed>0.1044030650891055</speed>
  <fix>3d</fix>
</trkpt>
<trkpt lat="33.8106377" lon="-118.3938631">
  <ele>-2.85</ele>
  <time>2026-09-02T22:11:26Z</time>
  <course>9.55</course>
  <speed>0.13</speed>
  <fix>3d</fix>
</trkpt>
<trkpt lat="33.8106379" lon="-118.3938629">
  <ele>-2.903</ele>
  <time>2026-09-02T22:11:26Z</time>
  <course>352.65</course>
  <speed>0.09848857801796104</speed>
  <fix>3d</fix>
</trkpt>
<trkpt lat="33.810638" lon="-118.393863">
  <ele>-2.84</ele>
  <time>2026-09-02T22:11:26Z</time>
  <course>10.66</course>
  <speed>0.12</speed>
  <fix>3d</fix>
</trkpt>
<trkpt lat="33.810638" lon="-118.3938629">
  <ele>-2.895</ele>
  <time>2026-09-02T22:11:26Z</time>
  <course>352.56</course>
  <speed>0.09848857801796104</speed>
  <fix>3d</fix>
</trkpt>
<trkpt lat="33.810638" lon="-118.393863">
  <ele>-2.84</ele>
  <time>2026-09-02T22:11:26Z</time>
  <course>10.66</course>
  <speed>0.12</speed>
  <fix>3d</fix>
</trkpt>
<trkpt lat="33.8106381" lon="-118.3938628">
  <ele>-2.887</ele>
  <time>2026-09-02T22:11:26Z</time>
  <course>352.47</course>
  <speed>0.08944271909999159</speed>
  <fix>3d</fix>
</trkpt>
<trkpt lat="33.8106382" lon="-118.393863">
  <ele>-2.83</ele>
  <time>2026-09-02T22:11:26Z</time>
  <course>11.66</course>
  <speed>0.11</speed>
  <fix>3d</fix>
</trkpt>
<trkpt lat="33.8106382" lon="-118.3938628">
  <ele>-2.879</ele>
  <time>2026-09-02T22:11:26Z</time>
  <course>352.39</course>
  <speed>0.08944271909999159</speed>
  <fix>3d</fix>
</trkpt>
<trkpt lat="33.8106382" lon="-118.393863">
  <ele>-2.83</ele>
  <time>2026-09-02T22:11:26Z</time>
  <course>11.66</course>
  <speed>0.11</speed>
  <fix>3d</fix>
</trkpt>
<trkpt lat="33.8106383" lon="-118.3938628">
  <ele>-2.87</ele>
  <time>2026-09-02T22:11:26Z</time>
  <course>352.31</course>
  <speed>0.08062257748298549</speed>
  <fix>3d</fix>
</trkpt>
<trkpt lat="33.8106384" lon="-118.3938629">
  <ele>-2.81</ele>
  <time>2026-09-02T22:11:26Z</time>
  <course>12.55</course>
  <speed>0.1</speed>
  <fix>3d</fix>
</trkpt>
<trkpt lat="33.8106384" lon="-118.3938628">
  <ele>-2.861</ele>
  <time>2026-09-02T22:11:26Z</time>
  <course>352.23</course>
  <speed>0.08062257748298549</speed>
  <fix>3d</fix>
</trkpt>
<trkpt lat="33.8106384" lon="-118.3938629">
  <ele>-2.81</ele>
  <time>2026-09-02T22:11:26Z</time>
  <course>12.55</course>
  <speed>0.1</speed>
  <fix>3d</fix>
</trkpt>
<trkpt lat="33.8106385" lon="-118.3938627">
  <ele>-2.852</ele>
  <time>2026-09-02T22:11:26Z</time>
  <course>352.16</course>
  <speed>0.08062257748298549</speed>
  <fix>3d</fix>
</trkpt>
<trkpt lat="33.8106385" lon="-118.3938628">
  <ele>-2.8</ele>
  <time>2026-09-02T22:11:26Z</time>
  <course>13.35</course>
  <speed>0.09</speed>
  <fix>3d</fix>
</trkpt>
<trkpt lat="33.8106385" lon="-118.3938627">
  <ele>-2.843</ele>
  <time>2026-09-02T22:11:26Z</time>
  <course>352.08</course>
  <speed>0.07211102550927978</speed>
  <fix>3d</fix>
</trkpt>
<trkpt lat="33.8106385" lon="-118.3938628">
  <ele>-2.8</ele>
  <time>2026-09-02T22:11:26Z</time>
  <course>13.35</course>
  <speed>0.09</speed>
  <fix>3d</fix>
</trkpt>
<trkpt lat="33.8106386" lon="-118.3938627">
  <ele>-2.835</ele>
  <time>2026-09-02T22:11:26Z</time>
  <course>352.01</course>
  <speed>0.07211102550927978</speed>
  <fix>3d</fix>
</trkpt>
<trkpt lat="33.8106387" lon="-118.3938628">
  <ele>-2.78</ele>
  <time>2026-09-02T22:11:26Z</time>
  <course>14.07</course>
  <speed>0.08</speed>
  <fix>3d</fix>
</trkpt>
<trkpt lat="33.8106387" lon="-118.3938626">
  <ele>-2.827</ele>
  <time>2026-09-02T22:11:26Z</time>
  <course>351.94</course>
  <speed>0.07211102550927978</speed>
  <fix>3d</fix>
</trkpt>
<trkpt lat="33.8106387" lon="-118.3938628">
  <ele>-2.78</ele>
  <time>2026-09-02T22:11:26Z</time>
  <course>14.07</course>
  <speed>0.08</speed>
  <fix>3d</fix>
</trkpt>
<trkpt lat="33.8106388" lon="-118.3938626">
  <ele>-2.819</ele>
  <time>2026-09-02T22:11:26Z</time>
  <course>351.88</course>
  <speed>0.07211102550927978</speed>
  <fix>3d</fix>
</trkpt>
<trkpt lat="33.8106388" lon="-118.3938628">
  <ele>-2.77</ele>
  <time>2026-09-02T22:11:26Z</time>
  <course>14.72</course>
  <speed>0.08</speed>
  <fix>3d</fix>
</trkpt>
<trkpt lat="33.8106388" lon="-118.3938626">
  <ele>-2.81</ele>
  <time>2026-09-02T22:11:26Z</time>
  <course>351.81</course>
  <speed>0.06403124237432849</speed>
  <fix>3d</fix>
</trkpt>
<trkpt lat="33.8106388" lon="-118.3938628">
  <ele>-2.77</ele>
  <time>2026-09-02T22:11:26Z</time>
  <course>14.72</course>
  <speed>0.08</speed>
  <fix>3d</fix>
</trkpt>
<trkpt lat="33.8106389" lon="-118.3938626">
  <ele>-2.8</ele>
  <time>2026-09-02T22:11:26Z</time>
  <course>351.75</course>
  <speed>0.06403124237432849</speed>
  <fix>3d</fix>
</trkpt>
<trkpt lat="33.8106389" lon="-118.3938628">
  <ele>-2.75</ele>
  <time>2026-09-02T22:11:26Z</time>
  <course>15.32</course>
  <speed>0.07</speed>
  <fix>3d</fix>
</trkpt>
<trkpt lat="33.8106389" lon="-118.3938625">
  <ele>-2.789</ele>
  <time>2026-09-02T22:11:26Z</time>
  <course>351.69</course>
  <speed>0.06403124237432849</speed>
  <fix>3d</fix>
</trkpt>
<trkpt lat="33.8106389" lon="-118.3938628">
  <ele>-2.75</ele>
  <time>2026-09-02T22:11:26Z</time>
  <course>15.32</course>
  <speed>0.07</speed>
  <fix>3d</fix>
</trkpt>
<trkpt lat="33.8106392" lon="-118.3938624">
  <ele>-2.748</ele>
  <time>2026-09-02T22:11:26Z</time>
  <course>351.46</course>
  <speed>0.0565685424949238</speed>
  <fix>3d</fix>
</trkpt>
<trkpt lat="33.8106392" lon="-118.3938627">
  <ele>-2.71</ele>
  <time>2026-09-02T22:11:26Z</time>
  <course>16.37</course>
  <speed>0.06</speed>
  <fix>3d</fix>
</trkpt>
<trkpt lat="33.8106393" lon="-118.3938624">
  <ele>-2.722</ele>
  <time>2026-09-02T22:11:26Z</time>
  <course>351.31</course>
  <speed>0.0565685424949238</speed>
  <fix>3d</fix>
</trkpt>
<trkpt lat="33.8106394" lon="-118.3938626">
  <ele>-2.68</ele>
  <time>2026-09-02T22:11:26Z</time>
  <course>17.25</course>
  <speed>0.06</speed>
  <fix>3d</fix>
</trkpt>
<trkpt lat="33.8106394" lon="-118.3938624">
  <ele>-2.714</ele>
  <time>2026-09-02T22:11:26Z</time>
  <course>351.26</course>
  <speed>0.05</speed>
  <fix>3d</fix>
</trkpt>
<trkpt lat="33.8106394" lon="-118.3938626">
  <ele>-2.68</ele>
  <time>2026-09-02T22:11:26Z</time>
  <course>17.25</course>
  <speed>0.06</speed>
  <fix>3d</fix>
</trkpt>
<trkpt lat="33.8106395" lon="-118.3938623">
  <ele>-2.697</ele>
  <time>2026-09-02T22:11:26Z</time>
  <course>351.16</course>
  <speed>0.05</speed>
  <fix>3d</fix>
</trkpt>
<trkpt lat="33.8106395" lon="-118.3938626">
  <ele>-2.66</ele>
  <time>2026-09-02T22:11:26Z</time>
  <course>17.62</course>
  <speed>0.05</speed>
  <fix>3d</fix>
</trkpt>
<trkpt lat="33.8106395" lon="-118.3938623">
  <ele>-2.688</ele>
  <time>2026-09-02T22:11:26Z</time>
  <course>351.11</course>
  <speed>0.05</speed>
  <fix>3d</fix>
</trkpt>
<trkpt lat="33.8106396" lon="-118.3938625">
  <ele>-2.64</ele>
  <time>2026-09-02T22:11:26Z</time>
  <course>17.97</course>
  <speed>0.05</speed>
  <fix>3d</fix>
</trkpt>
<trkpt lat="33.8106396" lon="-118.3938623">
  <ele>-2.678</ele>
  <time>2026-09-02T22:11:26Z</time>
  <course>351.07</course>
  <speed>0.05</speed>
  <fix>3d</fix>
</trkpt>
<trkpt lat="33.8106396" lon="-118.3938625">
  <ele>-2.64</ele>
  <time>2026-09-02T22:11:26Z</time>
  <course>17.97</course>
  <speed>0.05</speed>
  <fix>3d</fix>
</trkpt>
<trkpt lat="33.8106396" lon="-118.3938623">
  <ele>-2.67</ele>
  <time>2026-09-02T22:11:26Z</time>
  <course>351.02</course>
  <speed>0.05</speed>
  <fix>3d</fix>
</trkpt>
<trkpt lat="33.8106397" lon="-118.3938625">
  <ele>-2.62</ele>
  <time>2026-09-02T22:11:26Z</time>
  <course>18.3</course>
  <speed>0.05</speed>
  <fix>3d</fix>
</trkpt>
<trkpt lat="33.8106396" lon="-118.3938623">
  <ele>-2.661</ele>
  <time>2026-09-02T22:11:26Z</time>
  <course>350.98</course>
  <speed>0.05</speed>
  <fix>3d</fix>
</trkpt>
<trkpt lat="33.8106397" lon="-118.3938625">
  <ele>-2.62</ele>
  <time>2026-09-02T22:11:26Z</time>
  <course>18.3</course>
  <speed>0.05</speed>
  <fix>3d</fix>
</trkpt>
<trkpt lat="33.8106397" lon="-118.3938622">
  <ele>-2.653</ele>
  <time>2026-09-02T22:11:26Z</time>
  <course>350.94</course>
  <speed>0.05</speed>
  <fix>3d</fix>
</trkpt>
<trkpt lat="33.8106398" lon="-118.3938624">
  <ele>-2.6</ele>
  <time>2026-09-02T22:11:26Z</time>
  <course>18.62</course>
  <speed>0.05</speed>
  <fix>3d</fix>
</trkpt>
<trkpt lat="33.8106397" lon="-118.3938622">
  <ele>-2.644</ele>
  <time>2026-09-02T22:11:26Z</time>
  <course>350.89</course>
  <speed>0.044721359549995794</speed>
  <fix>3d</fix>
</trkpt>
<trkpt lat="33.8106398" lon="-118.3938624">
  <ele>-2.6</ele>
  <time>2026-09-02T22:11:26Z</time>
  <course>18.62</course>
  <speed>0.05</speed>
  <fix>3d</fix>
</trkpt>
<trkpt lat="33.8106398" lon="-118.3938622">
  <ele>-2.635</ele>
  <time>2026-09-02T22:11:26Z</time>
  <course>350.85</course>
  <speed>0.044721359549995794</speed>
  <fix>3d</fix>
</trkpt>
<trkpt lat="33.8106399" lon="-118.3938624">
  <ele>-2.58</ele>
  <time>2026-09-02T22:11:26Z</time>
  <course>18.91</course>
  <speed>0.05</speed>
  <fix>3d</fix>
</trkpt>
<trkpt lat="33.8106398" lon="-118.3938622">
  <ele>-2.626</ele>
  <time>2026-09-02T22:11:26Z</time>
  <course>350.81</course>
  <speed>0.044721359549995794</speed>
  <fix>3d</fix>
</trkpt>
<trkpt lat="33.8106399" lon="-118.3938624">
  <ele>-2.58</ele>
  <time>2026-09-02T22:11:26Z</time>
  <course>18.91</course>
  <speed>0.05</speed>
  <fix>3d</fix>
</trkpt>
<trkpt lat="33.8106398" lon="-118.3938622">
  <ele>-2.617</ele>
  <time>2026-09-02T22:11:26Z</time>
  <course>350.77</course>
  <speed>0.044721359549995794</speed>
  <fix>3d</fix>
</trkpt>
<trkpt lat="33.81064" lon="-118.3938624">
  <ele>-2.56</ele>
  <time>2026-09-02T22:11:26Z</time>
  <course>19.17</course>
  <speed>0.04</speed>
  <fix>3d</fix>
</trkpt>
<trkpt lat="33.8106399" lon="-118.3938621">
  <ele>-2.608</ele>
  <time>2026-09-02T22:11:26Z</time>
  <course>350.73</course>
  <speed>0.044721359549995794</speed>
  <fix>3d</fix>
</trkpt>
<trkpt lat="33.81064" lon="-118.3938624">
  <ele>-2.56</ele>
  <time>2026-09-02T22:11:26Z</time>
  <course>19.17</course>
  <speed>0.04</speed>
  <fix>3d</fix>
</trkpt>
<trkpt lat="33.8106399" lon="-118.3938621">
  <ele>-2.598</ele>
  <time>2026-09-02T22:11:26Z</time>
  <course>350.69</course>
  <speed>0.044721359549995794</speed>
  <fix>3d</fix>
</trkpt>
<trkpt lat="33.8106401" lon="-118.3938623">
  <ele>-2.55</ele>
  <time>2026-09-02T22:11:26Z</time>
  <course>19.41</course>
  <speed>0.04</speed>
  <fix>3d</fix>
</trkpt>
<trkpt lat="33.81064" lon="-118.3938621">
  <ele>-2.588</ele>
  <time>2026-09-02T22:11:26Z</time>
  <course>350.66</course>
  <speed>0.044721359549995794</speed>
  <fix>3d</fix>
</trkpt>
<trkpt lat="33.8106401" lon="-118.3938623">
  <ele>-2.55</ele>
  <time>2026-09-02T22:11:26Z</time>
  <course>19.41</course>
  <speed>0.04</speed>
  <fix>3d</fix>
</trkpt>
<trkpt lat="33.81064" lon="-118.3938621">
  <ele>-2.577</ele>
  <time>2026-09-02T22:11:26Z</time>
  <course>350.62</course>
  <speed>0.044721359549995794</speed>
  <fix>3d</fix>
</trkpt>
<trkpt lat="33.8106402" lon="-118.3938623">
  <ele>-2.53</ele>
  <time>2026-09-02T22:11:26Z</time>
  <course>19.63</course>
  <speed>0.04</speed>
  <fix>3d</fix>
</trkpt>
<trkpt lat="33.81064" lon="-118.3938621">
  <ele>-2.566</ele>
  <time>2026-09-02T22:11:26Z</time>
  <course>350.58</course>
  <speed>0.044721359549995794</speed>
  <fix>3d</fix>
</trkpt>
<trkpt lat="33.8106402" lon="-118.3938623">
  <ele>-2.53</ele>
  <time>2026-09-02T22:11:26Z</time>
  <course>19.63</course>
  <speed>0.04</speed>
  <fix>3d</fix>
</trkpt>
<trkpt lat="33.8106401" lon="-118.3938621">
  <ele>-2.555</ele>
  <time>2026-09-02T22:11:26Z</time>
  <course>350.54</course>
  <speed>0.044721359549995794</speed>
  <fix>3d</fix>
</trkpt>
<trkpt lat="33.8106402" lon="-118.3938623">
  <ele>-2.51</ele>
  <time>2026-09-02T22:11:26Z</time>
  <course>19.84</course>
  <speed>0.04</speed>
  <fix>3d</fix>
</trkpt>
<trkpt lat="33.8106401" lon="-118.393862">
  <ele>-2.545</ele>
  <time>2026-09-02T22:11:26Z</time>
  <course>350.51</course>
  <speed>0.03605551275463989</speed>
  <fix>3d</fix>
</trkpt>
<trkpt lat="33.8106402" lon="-118.3938623">
  <ele>-2.51</ele>
  <time>2026-09-02T22:11:26Z</time>
  <course>19.84</course>
  <speed>0.04</speed>
  <fix>3d</fix>
</trkpt>
<trkpt lat="33.8106401" lon="-118.393862">
  <ele>-2.535</ele>
  <time>2026-09-02T22:11:26Z</time>
  <course>350.47</course>
  <speed>0.0316227766016838</speed>
  <fix>3d</fix>
</trkpt>
<trkpt lat="33.8106403" lon="-118.3938622">
  <ele>-2.49</ele>
  <time>2026-09-02T22:11:26Z</time>
  <course>20.05</course>
  <speed>0.04</speed>
  <fix>3d</fix>
</trkpt>
<trkpt lat="33.8106402" lon="-118.393862">
  <ele>-2.525</ele>
  <time>2026-09-02T22:11:26Z</time>
  <course>350.44</course>
  <speed>0.0316227766016838</speed>
  <fix>3d</fix>
</trkpt>
<trkpt lat="33.8106403" lon="-118.3938622">
  <ele>-2.49</ele>
  <time>2026-09-02T22:11:26Z</time>
  <course>20.05</course>
  <speed>0.04</speed>
  <fix>3d</fix>
</trkpt>
<trkpt lat="33.8106402" lon="-118.393862">
  <ele>-2.514</ele>
  <time>2026-09-02T22:11:26Z</time>
  <course>350.41</course>
  <speed>0.0316227766016838</speed>
  <fix>3d</fix>
</trkpt>
<trkpt lat="33.8106404" lon="-118.3938622">
  <ele>-2.47</ele>
  <time>2026-09-02T22:11:26Z</time>
  <course>20.25</course>
  <speed>0.04</speed>
  <fix>3d</fix>
</trkpt>
<trkpt lat="33.8106403" lon="-118.393862">
  <ele>-2.503</ele>
  <time>2026-09-02T22:11:26Z</time>
  <course>350.37</course>
  <speed>0.0316227766016838</speed>
  <fix>3d</fix>
</trkpt>
<trkpt lat="33.8106404" lon="-118.3938622">
  <ele>-2.47</ele>
  <time>2026-09-02T22:11:26Z</time>
  <course>20.25</course>
  <speed>0.04</speed>
  <fix>3d</fix>
</trkpt>
<trkpt lat="33.8106403" lon="-118.393862">
  <ele>-2.492</ele>
  <time>2026-09-02T22:11:26Z</time>
  <course>350.34</course>
  <speed>0.0316227766016838</speed>
  <fix>3d</fix>
</trkpt>
<trkpt lat="33.8106405" lon="-118.3938622">
  <ele>-2.45</ele>
  <time>2026-09-02T22:11:26Z</time>
  <course>20.43</course>
  <speed>0.04</speed>
  <fix>3d</fix>
</trkpt>
<trkpt lat="33.8106403" lon="-118.3938619">
  <ele>-2.481</ele>
  <time>2026-09-02T22:11:26Z</time>
  <course>350.31</course>
  <speed>0.0316227766016838</speed>
  <fix>3d</fix>
</trkpt>
<trkpt lat="33.8106405" lon="-118.3938622">
  <ele>-2.45</ele>
  <time>2026-09-02T22:11:26Z</time>
  <course>20.43</course>
  <speed>0.04</speed>
  <fix>3d</fix>
</trkpt>
<trkpt lat="33.8106404" lon="-118.3938619">
  <ele>-2.47</ele>
  <time>2026-09-02T22:11:26Z</time>
  <course>350.27</course>
  <speed>0.0316227766016838</speed>
  <fix>3d</fix>
</trkpt>
<trkpt lat="33.8106405" lon="-118.3938622">
  <ele>-2.43</ele>
  <time>2026-09-02T22:11:26Z</time>
  <course>20.59</course>
  <speed>0.03</speed>
  <fix>3d</fix>
</trkpt>
<trkpt lat="33.8106404" lon="-118.3938619">
  <ele>-2.461</ele>
  <time>2026-09-02T22:11:26Z</time>
  <course>350.24</course>
  <speed>0.0316227766016838</speed>
  <fix>3d</fix>
</trkpt>
<trkpt lat="33.8106405" lon="-118.3938622">
  <ele>-2.43</ele>
  <time>2026-09-02T22:11:26Z</time>
  <course>20.59</course>
  <speed>0.03</speed>
  <fix>3d</fix>
</trkpt>
<trkpt lat="33.8106404" lon="-118.3938619">
  <ele>-2.456</ele>
  <time>2026-09-02T22:11:26Z</time>
  <course>350.25</course>
  <speed>0.0316227766016838</speed>
  <fix>3d</fix>
</trkpt>
<trkpt lat="33.8106406" lon="-118.3938621">
  <ele>-2.41</ele>
  <time>2026-09-02T22:11:26Z</time>
  <course>20.73</course>
  <speed>0.03</speed>
  <fix>3d</fix>
</trkpt>
<trkpt lat="33.8106404" lon="-118.3938619">
  <ele>-2.455</ele>
  <time>2026-09-02T22:11:26Z</time>
  <course>350.36</course>
  <speed>0.0316227766016838</speed>
  <fix>3d</fix>
</trkpt>
<trkpt lat="33.8106406" lon="-118.3938621">
  <ele>-2.41</ele>
  <time>2026-09-02T22:11:26Z</time>
  <course>20.73</course>
  <speed>0.03</speed>
  <fix>3d</fix>
</trkpt>
<trkpt lat="33.8106405" lon="-118.3938619">
  <ele>-2.455</ele>
  <time>2026-09-02T22:11:26Z</time>
  <course>350.56</course>
  <speed>0.03</speed>
  <fix>3d</fix>
</trkpt>
<trkpt lat="33.8106407" lon="-118.3938621">
  <ele>-2.4</ele>
  <time>2026-09-02T22:11:26Z</time>
  <course>19.81</course>
  <speed>0.03</speed>
  <fix>3d</fix>
</trkpt>
<trkpt lat="33.8106405" lon="-118.3938619">
  <ele>-2.457</ele>
  <time>2026-09-02T22:11:26Z</time>
  <course>350.7</course>
  <speed>0.03</speed>
  <fix>3d</fix>
</trkpt>
<trkpt lat="33.8106407" lon="-118.3938621">
  <ele>-2.4</ele>
  <time>2026-09-02T22:11:26Z</time>
  <course>19.81</course>
  <speed>0.03</speed>
  <fix>3d</fix>
</trkpt>
<trkpt lat="33.8106405" lon="-118.3938619">
  <ele>-2.459</ele>
  <time>2026-09-02T22:11:26Z</time>
  <course>350.77</course>
  <speed>0.02</speed>
  <fix>3d</fix>
</trkpt>
<trkpt lat="33.8106407" lon="-118.3938621">
  <ele>-2.4</ele>
  <time>2026-09-02T22:11:26Z</time>
  <course>16.34</course>
  <speed>0.02</speed>
  <fix>3d</fix>
</trkpt>
<trkpt lat="33.8106405" lon="-118.3938619">
  <ele>-2.459</ele>
  <time>2026-09-02T22:11:26Z</time>
  <course>350.77</course>
  <speed>0.02</speed>
  <fix>3d</fix>
</trkpt>
<trkpt lat="33.8106407" lon="-118.3938621">
  <ele>-2.4</ele>
  <time>2026-09-02T22:11:26Z</time>
  <course>16.34</course>
  <speed>0.02</speed>
  <fix>3d</fix>
</trkpt>
<trkpt lat="33.8106406" lon="-118.3938619">
  <ele>-2.459</ele>
  <time>2026-09-02T22:11:26Z</time>
  <course>350.76</course>
  <speed>0.02</speed>
  <fix>3d</fix>
</trkpt>
<trkpt lat="33.8106408" lon="-118.3938621">
  <ele>-2.4</ele>
  <time>2026-09-02T22:11:26Z</time>
  <course>8.73</course>
  <speed>0.01</speed>
  <fix>3d</fix>
</trkpt>
<trkpt lat="33.8106406" lon="-118.3938619">
  <ele>-2.459</ele>
  <time>2026-09-02T22:11:26Z</time>
  <course>350.84</course>
  <speed>0.022360679774997897</speed>
  <fix>3d</fix>
</trkpt>
<trkpt lat="33.8106408" lon="-118.3938621">
  <ele>-2.4</ele>
  <time>2026-09-02T22:11:26Z</time>
  <course>8.73</course>
  <speed>0.01</speed>
  <fix>3d</fix>
</trkpt>
<trkpt lat="33.8106406" lon="-118.3938619">
  <ele>-2.459</ele>
  <time>2026-09-02T22:11:26Z</time>
  <course>351.22</course>
  <speed>0.022360679774997897</speed>
  <fix>3d</fix>
</trkpt>
<trkpt lat="33.8106408" lon="-118.3938621">
  <ele>-2.4</ele>
  <time>2026-09-02T22:11:26Z</time>
  <course>358.37</course>
  <speed>0.01</speed>
  <fix>3d</fix>
</trkpt>
<trkpt lat="33.8106406" lon="-118.3938619">
  <ele>-2.459</ele>
  <time>2026-09-02T22:11:26Z</time>
  <course>351.85</course>
  <speed>0.0282842712474619</speed>
  <fix>3d</fix>
</trkpt>
<trkpt lat="33.8106408" lon="-118.3938621">
  <ele>-2.4</ele>
  <time>2026-09-02T22:11:26Z</time>
  <course>358.37</course>
  <speed>0.01</speed>
  <fix>3d</fix>
</trkpt>
<trkpt lat="33.8106406" lon="-118.3938619">
  <ele>-2.458</ele>
  <time>2026-09-02T22:11:26Z</time>
  <course>352.59</course>
  <speed>0.0282842712474619</speed>
  <fix>3d</fix>
</trkpt>
<trkpt lat="33.8106408" lon="-118.3938621">
  <ele>-2.4</ele>
  <time>2026-09-02T22:11:26Z</time>
  <course>278.31</course>
  <speed>0.0</speed>
  <fix>3d</fix>
</trkpt>
<trkpt lat="33.8106406" lon="-118.3938619">
  <ele>-2.458</ele>
  <time>2026-09-02T22:11:26Z</time>
  <course>353.36</course>
  <speed>0.03605551275463989</speed>
  <fix>3d</fix>
</trkpt>
<trkpt lat="33.8106408" lon="-118.3938621">
  <ele>-2.4</ele>
  <time>2026-09-02T22:11:26Z</time>
  <course>278.31</course>
  <speed>0.0</speed>
  <fix>3d</fix>
</trkpt>
<trkpt lat="33.8106406" lon="-118.3938619">
  <ele>-2.459</ele>
  <time>2026-09-02T22:11:26Z</time>
  <course>354.13</course>
  <speed>0.03605551275463989</speed>
  <fix>3d</fix>
</trkpt>
<trkpt lat="33.8106408" lon="-118.3938621">
  <ele>-2.4</ele>
  <time>2026-09-02T22:11:26Z</time>
  <course>177.73</course>
  <speed>0.01</speed>
  <fix>3d</fix>
</trkpt>
<trkpt lat="33.8106406" lon="-118.3938619">
  <ele>-2.459</ele>
  <time>2026-09-02T22:11:26Z</time>
  <course>354.88</course>
  <speed>0.044721359549995794</speed>
  <fix>3d</fix>
</trkpt>
<trkpt lat="33.8106408" lon="-118.3938621">
  <ele>-2.4</ele>
  <time>2026-09-02T22:11:26Z</time>
  <course>177.73</course>
  <speed>0.01</speed>
  <fix>3d</fix>
</trkpt>
<trkpt lat="33.8106406" lon="-118.3938619">
  <ele>-2.46</ele>
  <time>2026-09-02T22:11:26Z</time>
  <course>355.58</course>
  <speed>0.044721359549995794</speed>
  <fix>3d</fix>
</trkpt>
<trkpt lat="33.8106408" lon="-118.3938621">
  <ele>-2.4</ele>
  <time>2026-09-02T22:11:26Z</time>
  <course>175.74</course>
  <speed>0.02</speed>
  <fix>3d</fix>
</trkpt>
<trkpt lat="33.8106406" lon="-118.3938619">
  <ele>-2.461</ele>
  <time>2026-09-02T22:11:26Z</time>
  <course>356.34</course>
  <speed>0.044721359549995794</speed>
  <fix>3d</fix>
</trkpt>
<trkpt lat="33.8106408" lon="-118.3938621">
  <ele>-2.4</ele>
  <time>2026-09-02T22:11:26Z</time>
  <course>175.74</course>
  <speed>0.02</speed>
  <fix>3d</fix>
</trkpt>
<trkpt lat="33.8106406" lon="-118.3938619">
  <ele>-2.463</ele>
  <time>2026-09-02T22:11:26Z</time>
  <course>357.18</course>
  <speed>0.044721359549995794</speed>
  <fix>3d</fix>
</trkpt>
<trkpt lat="33.8106408" lon="-118.3938621">
  <ele>-2.4</ele>
  <time>2026-09-02T22:11:26Z</time>
  <course>174.48</course>
  <speed>0.02</speed>
  <fix>3d</fix>
</trkpt>
<trkpt lat="33.8106406" lon="-118.3938619">
  <ele>-2.463</ele>
  <time>2026-09-02T22:11:26Z</time>
  <course>358.13</course>
  <speed>0.044721359549995794</speed>
  <fix>3d</fix>
</trkpt>
<trkpt lat="33.8106408" lon="-118.3938621">
  <ele>-2.4</ele>
  <time>2026-09-02T22:11:26Z</time>
  <course>174.48</course>
  <speed>0.02</speed>
  <fix>3d</fix>
</trkpt>
<trkpt lat="33.8106405" lon="-118.3938619">
  <ele>-2.463</ele>
  <time>2026-09-02T22:11:26Z</time>
  <course>359.08</course>
  <speed>0.03605551275463989</speed>
  <fix>3d</fix>
</trkpt>
<trkpt lat="33.8106408" lon="-118.3938621">
  <ele>-2.4</ele>
  <time>2026-09-02T22:11:26Z</time>
  <course>173.65</course>
  <speed>0.02</speed>
  <fix>3d</fix>
</trkpt>
<trkpt lat="33.8106405" lon="-118.3938619">
  <ele>-2.461</ele>
  <time>2026-09-02T22:11:26Z</time>
  <course>0.08</course>
  <speed>0.03605551275463989</speed>
  <fix>3d</fix>
</trkpt>
<trkpt lat="33.8106408" lon="-118.3938621">
  <ele>-2.4</ele>
  <time>2026-09-02T22:11:26Z</time>
  <course>173.65</course>
  <speed>0.02</speed>
  <fix>3d</fix>
</trkpt>
<trkpt lat="33.8106405" lon="-118.3938619">
  <ele>-2.459</ele>
  <time>2026-09-02T22:11:26Z</time>
  <course>1.03</course>
  <speed>0.03605551275463989</speed>
  <fix>3d</fix>
</trkpt>
<trkpt lat="33.8106407" lon="-118.3938621">
  <ele>-2.4</ele>
  <time>2026-09-02T22:11:26Z</time>
  <course>173.94</course>
  <speed>0.02</speed>
  <fix>3d</fix>
</trkpt>
<trkpt lat="33.8106405" lon="-118.3938619">
  <ele>-2.457</ele>
  <time>2026-09-02T22:11:26Z</time>
  <course>1.75</course>
  <speed>0.03605551275463989</speed>
  <fix>3d</fix>
</trkpt>
<trkpt lat="33.8106407" lon="-118.3938621">
  <ele>-2.4</ele>
  <time>2026-09-02T22:11:26Z</time>
  <course>173.94</course>
  <speed>0.02</speed>
  <fix>3d</fix>
</trkpt>
<trkpt lat="33.8106405" lon="-118.3938619">
  <ele>-2.455</ele>
  <time>2026-09-02T22:11:26Z</time>
  <course>2.29</course>
  <speed>0.03605551275463989</speed>
  <fix>3d</fix>
</trkpt>
<trkpt lat="33.8106407" lon="-118.3938621">
  <ele>-2.4</ele>
  <time>2026-09-02T22:11:26Z</time>
  <course>173.49</course>
  <speed>0.01</speed>
  <fix>3d</fix>
</trkpt>
<trkpt lat="33.8106405" lon="-118.3938619">
  <ele>-2.454</ele>
  <time>2026-09-02T22:11:26Z</time>
  <course>2.72</course>
  <speed>0.03605551275463989</speed>
  <fix>3d</fix>
</trkpt>
<trkpt lat="33.8106407" lon="-118.3938621">
  <ele>-2.4</ele>
  <time>2026-09-02T22:11:26Z</time>
  <course>173.49</course>
  <speed>0.01</speed>
  <fix>3d</fix>
</trkpt>
<trkpt lat="33.8106405" lon="-118.3938619">
  <ele>-2.455</ele>
  <time>2026-09-02T22:11:26Z</time>
  <course>3.08</course>
  <speed>0.03605551275463989</speed>
  <fix>3d</fix>
</trkpt>
<trkpt lat="33.8106407" lon="-118.393862">
  <ele>-2.4</ele>
  <time>2026-09-02T22:11:26Z</time>
  <course>172.33</course>
  <speed>0.01</speed>
  <fix>3d</fix>
</trkpt>
<trkpt lat="33.8106405" lon="-118.3938619">
  <ele>-2.456</ele>
  <time>2026-09-02T22:11:26Z</time>
  <course>3.39</course>
  <speed>0.03605551275463989</speed>
  <fix>3d</fix>
</trkpt>
<trkpt lat="33.8106407" lon="-118.393862">
  <ele>-2.4</ele>
  <time>2026-09-02T22:11:26Z</time>
  <course>172.33</course>
  <speed>0.01</speed>
  <fix>3d</fix>
</trkpt>
<trkpt lat="33.8106405" lon="-118.3938619">
  <ele>-2.457</ele>
  <time>2026-09-02T22:11:26Z</time>
  <course>3.66</course>
  <speed>0.03605551275463989</speed>
  <fix>3d</fix>
</trkpt>
<trkpt lat="33.8106406" lon="-118.393862">
  <ele>-2.4</ele>
  <time>2026-09-02T22:11:26Z</time>
  <course>172.15</course>
  <speed>0.01</speed>
  <fix>3d</fix>
</trkpt>
<trkpt lat="33.8106405" lon="-118.3938619">
  <ele>-2.459</ele>
  <time>2026-09-02T22:11:26Z</time>
  <course>3.9</course>
  <speed>0.0282842712474619</speed>
  <fix>3d</fix>
</trkpt>
<trkpt lat="33.8106406" lon="-118.393862">
  <ele>-2.4</ele>
  <time>2026-09-02T22:11:26Z</time>
  <course>172.15</course>
  <speed>0.01</speed>
  <fix>3d</fix>
</trkpt>
<trkpt lat="33.8106405" lon="-118.3938619">
  <ele>-2.46</ele>
  <time>2026-09-02T22:11:26Z</time>
  <course>4.12</course>
  <speed>0.0282842712474619</speed>
  <fix>3d</fix>
</trkpt>
<trkpt lat="33.8106406" lon="-118.393862">
  <ele>-2.4</ele>
  <time>2026-09-02T22:11:26Z</time>
  <course>172.0</course>
  <speed>0.01</speed>
  <fix>3d</fix>
</trkpt>
<trkpt lat="33.8106405" lon="-118.3938618">
  <ele>-2.461</ele>
  <time>2026-09-02T22:11:26Z</time>
  <course>4.32</course>
  <speed>0.0282842712474619</speed>
  <fix>3d</fix>
</trkpt>
<trkpt lat="33.8106406" lon="-118.393862">
  <ele>-2.4</ele>
  <time>2026-09-02T22:11:26Z</time>
  <course>172.0</course>
  <speed>0.01</speed>
  <fix>3d</fix>
</trkpt>
<trkpt lat="33.8106405" lon="-118.3938618">
  <ele>-2.461</ele>
  <time>2026-09-02T22:11:26Z</time>
  <course>4.5</course>
  <speed>0.0282842712474619</speed>
  <fix>3d</fix>
</trkpt>
<trkpt lat="33.8106406" lon="-118.393862">
  <ele>-2.4</ele>
  <time>2026-09-02T22:11:26Z</time>
  <course>171.88</course>
  <speed>0.01</speed>
  <fix>3d</fix>
</trkpt>
<trkpt lat="33.8106404" lon="-118.3938618">
  <ele>-2.461</ele>
  <time>2026-09-02T22:11:26Z</time>
  <course>4.67</course>
  <speed>0.0282842712474619</speed>
  <fix>3d</fix>
</trkpt>
<trkpt lat="33.8106406" lon="-118.393862">
  <ele>-2.4</ele>
  <time>2026-09-02T22:11:26Z</time>
  <course>171.88</course>
  <speed>0.01</speed>
  <fix>3d</fix>
</trkpt>
<trkpt lat="33.8106404" lon="-118.3938618">
  <ele>-2.46</ele>
  <time>2026-09-02T22:11:26Z</time>
  <course>4.82</course>
  <speed>0.03605551275463989</speed>
  <fix>3d</fix>
</trkpt>
<trkpt lat="33.8106405" lon="-118.393862">
  <ele>-2.4</ele>
  <time>2026-09-02T22:11:26Z</time>
  <course>171.72</course>
  <speed>0.01</speed>
  <fix>3d</fix>
</trkpt>
<trkpt lat="33.8106404" lon="-118.3938618">
  <ele>-2.46</ele>
  <time>2026-09-02T22:11:26Z</time>
  <course>4.97</course>
  <speed>0.03605551275463989</speed>
  <fix>3d</fix>
</trkpt>
<trkpt lat="33.8106405" lon="-118.393862">
  <ele>-2.4</ele>
  <time>2026-09-02T22:11:26Z</time>
  <course>171.72</course>
  <speed>0.01</speed>
  <fix>3d</fix>
</trkpt>
<trkpt lat="33.8106404" lon="-118.3938618">
  <ele>-2.46</ele>
  <time>2026-09-02T22:11:26Z</time>
  <course>5.14</course>
  <speed>0.0282842712474619</speed>
  <fix>3d</fix>
</trkpt>
<trkpt lat="33.8106405" lon="-118.393862">
  <ele>-2.4</ele>
  <time>2026-09-02T22:11:26Z</time>
  <course>171.9</course>
  <speed>0.01</speed>
  <fix>3d</fix>
</trkpt>
<trkpt lat="33.8106404" lon="-118.3938618">
  <ele>-2.459</ele>
  <time>2026-09-02T22:11:26Z</time>
  <course>5.31</course>
  <speed>0.0282842712474619</speed>
  <fix>3d</fix>
</trkpt>
<trkpt lat="33.8106405" lon="-118.393862">
  <ele>-2.4</ele>
  <time>2026-09-02T22:11:26Z</time>
  <course>171.9</course>
  <speed>0.01</speed>
  <fix>3d</fix>
</trkpt>
<trkpt lat="33.8106404" lon="-118.3938618">
  <ele>-2.46</ele>
  <time>2026-09-02T22:11:27Z</time>
  <course>5.4</course>
  <speed>0.0282842712474619</speed>
  <fix>3d</fix>
</trkpt>
<trkpt lat="33.8106405" lon="-118.393862">
  <ele>-2.4</ele>
  <time>2026-09-02T22:11:27Z</time>
  <course>175.18</course>
  <speed>0.01</speed>
  <fix>3d</fix>
</trkpt>
<trkpt lat="33.8106404" lon="-118.3938618">
  <ele>-2.46</ele>
  <time>2026-09-02T22:11:27Z</time>
  <course>5.45</course>
  <speed>0.0282842712474619</speed>
  <fix>3d</fix>
</trkpt>
<trkpt lat="33.8106405" lon="-118.393862">
  <ele>-2.4</ele>
  <time>2026-09-02T22:11:27Z</time>
  <course>175.18</course>
  <speed>0.01</speed>
  <fix>3d</fix>
</trkpt>
<trkpt lat="33.8106404" lon="-118.3938618">
  <ele>-2.459</ele>
  <time>2026-09-02T22:11:27Z</time>
  <course>5.44</course>
  <speed>0.0282842712474619</speed>
  <fix>3d</fix>
</trkpt>
<trkpt lat="33.8106405" lon="-118.393862">
  <ele>-2.39</ele>
  <time>2026-09-02T22:11:27Z</time>
  <course>185.2</course>
  <speed>0.01</speed>
  <fix>3d</fix>
</trkpt>
<trkpt lat="33.8106404" lon="-118.3938618">
  <ele>-2.458</ele>
  <time>2026-09-02T22:11:27Z</time>
  <course>5.41</course>
  <speed>0.0282842712474619</speed>
  <fix>3d</fix>
</trkpt>
<trkpt lat="33.8106405" lon="-118.393862">
  <ele>-2.39</ele>
  <time>2026-09-02T22:11:27Z</time>
  <course>185.2</course>
  <speed>0.01</speed>
  <fix>3d</fix>
</trkpt>
<trkpt lat="33.8106404" lon="-118.3938618">
  <ele>-2.457</ele>
  <time>2026-09-02T22:11:27Z</time>
  <course>5.4</course>
  <speed>0.0282842712474619</speed>
  <fix>3d</fix>
</trkpt>
<trkpt lat="33.8106405" lon="-118.393862">
  <ele>-2.39</ele>
  <time>2026-09-02T22:11:27Z</time>
  <course>202.05</course>
  <speed>0.0</speed>
  <fix>3d</fix>
</trkpt>
<trkpt lat="33.8106404" lon="-118.3938618">
  <ele>-2.456</ele>
  <time>2026-09-02T22:11:27Z</time>
  <course>5.43</course>
  <speed>0.022360679774997897</speed>
  <fix>3d</fix>
</trkpt>
<trkpt lat="33.8106405" lon="-118.393862">
  <ele>-2.39</ele>
  <time>2026-09-02T22:11:27Z</time>
  <course>202.05</course>
  <speed>0.0</speed>
  <fix>3d</fix>
</trkpt>
<trkpt lat="33.8106404" lon="-118.3938618">
  <ele>-2.455</ele>
  <time>2026-09-02T22:11:27Z</time>
  <course>5.63</course>
  <speed>0.01414213562373095</speed>
  <fix>3d</fix>
</trkpt>
<trkpt lat="33.8106404" lon="-118.393862">
  <ele>-2.39</ele>
  <time>2026-09-02T22:11:27Z</time>
  <course>228.64</course>
  <speed>0.0</speed>
  <fix>3d</fix>
</trkpt>
<trkpt lat="33.8106404" lon="-118.3938618">
  <ele>-2.456</ele>
  <time>2026-09-02T22:11:27Z</time>
  <course>6.06</course>
  <speed>0.01</speed>
  <fix>3d</fix>
</trkpt>
<trkpt lat="33.8106404" lon="-118.393862">
  <ele>-2.39</ele>
  <time>2026-09-02T22:11:27Z</time>
  <course>228.64</course>
  <speed>0.0</speed>
  <fix>3d</fix>
</trkpt>
<trkpt lat="33.8106404" lon="-118.3938618">
  <ele>-2.457</ele>
  <time>2026-09-02T22:11:27Z</time>
  <course>6.66</course>
  <speed>0.01</speed>
  <fix>3d</fix>
</trkpt>
<trkpt lat="33.8106403" lon="-118.393862">
  <ele>-2.39</ele>
  <time>2026-09-02T22:11:27Z</time>
  <course>279.18</course>
  <speed>0.0</speed>
  <fix>3d</fix>
</trkpt>
<trkpt lat="33.8106404" lon="-118.3938618">
  <ele>-2.458</ele>
  <time>2026-09-02T22:11:27Z</time>
  <course>7.36</course>
  <speed>0.01</speed>
  <fix>3d</fix>
</trkpt>
<trkpt lat="33.8106403" lon="-118.393862">
  <ele>-2.39</ele>
  <time>2026-09-02T22:11:27Z</time>
  <course>279.18</course>
  <speed>0.0</speed>
  <fix>3d</fix>
</trkpt>
<trkpt lat="33.8106404" lon="-118.3938618">
  <ele>-2.46</ele>
  <time>2026-09-02T22:11:27Z</time>
  <course>8.11</course>
  <speed>0.01</speed>
  <fix>3d</fix>
</trkpt>
<trkpt lat="33.8106404" lon="-118.393862">
  <ele>-2.39</ele>
  <time>2026-09-02T22:11:27Z</time>
  <course>315.42</course>
  <speed>0.01</speed>
  <fix>3d</fix>
</trkpt>
<trkpt lat="33.8106404" lon="-118.3938618">
  <ele>-2.462</ele>
  <time>2026-09-02T22:11:27Z</time>
  <course>8.93</course>
  <speed>0.01</speed>
  <fix>3d</fix>
</trkpt>
<trkpt lat="33.8106404" lon="-118.393862">
  <ele>-2.39</ele>
  <time>2026-09-02T22:11:27Z</time>
  <course>315.42</course>
  <speed>0.01</speed>
  <fix>3d</fix>
</trkpt>
<trkpt lat="33.8106404" lon="-118.3938618">
  <ele>-2.463</ele>
  <time>2026-09-02T22:11:27Z</time>
  <course>9.84</course>
  <speed>0.01</speed>
  <fix>3d</fix>
</trkpt>
<trkpt lat="33.8106405" lon="-118.393862">
  <ele>-2.4</ele>
  <time>2026-09-02T22:11:27Z</time>
  <course>326.52</course>
  <speed>0.02</speed>
  <fix>3d</fix>
</trkpt>
<trkpt lat="33.8106404" lon="-118.3938618">
  <ele>-2.463</ele>
  <time>2026-09-02T22:11:27Z</time>
  <course>10.79</course>
  <speed>0.01</speed>
  <fix>3d</fix>
</trkpt>
<trkpt lat="33.8106405" lon="-118.393862">
  <ele>-2.4</ele>
  <time>2026-09-02T22:11:27Z</time>
  <course>326.52</course>
  <speed>0.02</speed>
  <fix>3d</fix>
</trkpt>
<trkpt lat="33.8106404" lon="-118.3938618">
  <ele>-2.462</ele>
  <time>2026-09-02T22:11:27Z</time>
  <course>11.78</course>
  <speed>0.01</speed>
  <fix>3d</fix>
</trkpt>
<trkpt lat="33.8106405" lon="-118.393862">
  <ele>-2.39</ele>
  <time>2026-09-02T22:11:27Z</time>
  <course>327.97</course>
  <speed>0.02</speed>
  <fix>3d</fix>
</trkpt>
<trkpt lat="33.8106404" lon="-118.3938618">
  <ele>-2.461</ele>
  <time>2026-09-02T22:11:27Z</time>
  <course>12.76</course>
  <speed>0.02</speed>
  <fix>3d</fix>
</trkpt>
<trkpt lat="33.8106405" lon="-118.393862">
  <ele>-2.39</ele>
  <time>2026-09-02T22:11:27Z</time>
  <course>327.97</course>
  <speed>0.02</speed>
  <fix>3d</fix>
</trkpt>
<trkpt lat="33.8106404" lon="-118.3938618">
  <ele>-2.459</ele>
  <time>2026-09-02T22:11:27Z</time>
  <course>13.78</course>
  <speed>0.02</speed>
  <fix>3d</fix>
</trkpt>
<trkpt lat="33.8106405" lon="-118.393862">
  <ele>-2.39</ele>
  <time>2026-09-02T22:11:27Z</time>
  <course>326.76</course>
  <speed>0.02</speed>
  <fix>3d</fix>
</trkpt>
<trkpt lat="33.8106404" lon="-118.3938618">
  <ele>-2.456</ele>
  <time>2026-09-02T22:11:27Z</time>
  <course>14.79</course>
  <speed>0.02</speed>
  <fix>3d</fix>
</trkpt>
<trkpt lat="33.8106405" lon="-118.393862">
  <ele>-2.39</ele>
  <time>2026-09-02T22:11:27Z</time>
  <course>326.76</course>
  <speed>0.02</speed>
  <fix>3d</fix>
</trkpt>
<trkpt lat="33.8106404" lon="-118.3938618">
  <ele>-2.454</ele>
  <time>2026-09-02T22:11:27Z</time>
  <course>15.82</course>
  <speed>0.02</speed>
  <fix>3d</fix>
</trkpt>
<trkpt lat="33.8106405" lon="-118.3938621">
  <ele>-2.39</ele>
  <time>2026-09-02T22:11:27Z</time>
  <course>323.05</course>
  <speed>0.01</speed>
  <fix>3d</fix>
</trkpt>
<trkpt lat="33.8106404" lon="-118.3938618">
  <ele>-2.454</ele>
  <time>2026-09-02T22:11:27Z</time>
  <course>16.84</course>
  <speed>0.02</speed>
  <fix>3d</fix>
</trkpt>
<trkpt lat="33.8106405" lon="-118.3938621">
  <ele>-2.39</ele>
  <time>2026-09-02T22:11:27Z</time>
  <course>323.05</course>
  <speed>0.01</speed>
  <fix>3d</fix>
</trkpt>
<trkpt lat="33.8106404" lon="-118.3938618">
  <ele>-2.455</ele>
  <time>2026-09-02T22:11:27Z</time>
  <course>17.88</course>
  <speed>0.022360679774997897</speed>
  <fix>3d</fix>
</trkpt>
<trkpt lat="33.8106405" lon="-118.3938621">
  <ele>-2.39</ele>
  <time>2026-09-02T22:11:27Z</time>
  <course>318.53</course>
  <speed>0.01</speed>
  <fix>3d</fix>
</trkpt>
<trkpt lat="33.8106404" lon="-118.3938618">
  <ele>-2.456</ele>
  <time>2026-09-02T22:11:27Z</time>
  <course>18.91</course>
  <speed>0.022360679774997897</speed>
  <fix>3d</fix>
</trkpt>
<trkpt lat="33.8106405" lon="-118.3938621">
  <ele>-2.39</ele>
  <time>2026-09-02T22:11:27Z</time>
  <course>318.53</course>
  <speed>0.01</speed>
  <fix>3d</fix>
</trkpt>
<trkpt lat="33.8106404" lon="-118.3938618">
  <ele>-2.458</ele>
  <time>2026-09-02T22:11:27Z</time>
  <course>19.95</course>
  <speed>0.022360679774997897</speed>
  <fix>3d</fix>
</trkpt>
<trkpt lat="33.8106405" lon="-118.3938621">
  <ele>-2.39</ele>
  <time>2026-09-02T22:11:27Z</time>
  <course>315.99</course>
  <speed>0.01</speed>
  <fix>3d</fix>
</trkpt>
<trkpt lat="33.8106404" lon="-118.3938618">
  <ele>-2.458</ele>
  <time>2026-09-02T22:11:27Z</time>
  <course>20.99</course>
  <speed>0.022360679774997897</speed>
  <fix>3d</fix>
</trkpt>
<trkpt lat="33.8106405" lon="-118.3938621">
  <ele>-2.39</ele>
  <time>2026-09-02T22:11:27Z</time>
  <course>315.99</course>
  <speed>0.01</speed>
  <fix>3d</fix>
</trkpt>
<trkpt lat="33.8106404" lon="-118.3938618">
  <ele>-2.458</ele>
  <time>2026-09-02T22:11:27Z</time>
  <course>22.02</course>
  <speed>0.022360679774997897</speed>
  <fix>3d</fix>
</trkpt>
<trkpt lat="33.8106405" lon="-118.3938621">
  <ele>-2.39</ele>
  <time>2026-09-02T22:11:27Z</time>
  <course>316.52</course>
  <speed>0.01</speed>
  <fix>3d</fix>
</trkpt>
<trkpt lat="33.8106404" lon="-118.3938618">
  <ele>-2.458</ele>
  <time>2026-09-02T22:11:27Z</time>
  <course>23.05</course>
  <speed>0.022360679774997897</speed>
  <fix>3d</fix>
</trkpt>
<trkpt lat="33.8106405" lon="-118.3938621">
  <ele>-2.39</ele>
  <time>2026-09-02T22:11:27Z</time>
  <course>316.52</course>
  <speed>0.01</speed>
  <fix>3d</fix>
</trkpt>
<trkpt lat="33.8106404" lon="-118.3938618">
  <ele>-2.458</ele>
  <time>2026-09-02T22:11:27Z</time>
  <course>24.07</course>
  <speed>0.022360679774997897</speed>
  <fix>3d</fix>
</trkpt>
<trkpt lat="33.8106406" lon="-118.3938622">
  <ele>-2.39</ele>
  <time>2026-09-02T22:11:27Z</time>
  <course>319.9</course>
  <speed>0.01</speed>
  <fix>3d</fix>
</trkpt>
<trkpt lat="33.8106404" lon="-118.3938618">
  <ele>-2.458</ele>
  <time>2026-09-02T22:11:27Z</time>
  <course>25.09</course>
  <speed>0.022360679774997897</speed>
  <fix>3d</fix>
</trkpt>
<trkpt lat="33.8106406" lon="-118.3938622">
  <ele>-2.39</ele>
  <time>2026-09-02T22:11:27Z</time>
  <course>319.9</course>
  <speed>0.01</speed>
  <fix>3d</fix>
</trkpt>
<trkpt lat="33.8106404" lon="-118.3938618">
  <ele>-2.458</ele>
  <time>2026-09-02T22:11:27Z</time>
  <course>26.13</course>
  <speed>0.022360679774997897</speed>
  <fix>3d</fix>
</trkpt>
<trkpt lat="33.8106406" lon="-118.3938622">
  <ele>-2.39</ele>
  <time>2026-09-02T22:11:27Z</time>
  <course>323.97</course>
  <speed>0.01</speed>
  <fix>3d</fix>
</trkpt>
<trkpt lat="33.8106404" lon="-118.3938618">
  <ele>-2.457</ele>
  <time>2026-09-02T22:11:27Z</time>
  <course>27.03</course>
  <speed>0.0316227766016838</speed>
  <fix>3d</fix>
</trkpt>
<trkpt lat="33.8106406" lon="-118.3938622">
  <ele>-2.39</ele>
  <time>2026-09-02T22:11:27Z</time>
  <course>323.97</course>
  <speed>0.01</speed>
  <fix>3d</fix>
</trkpt>
<trkpt lat="33.8106404" lon="-118.3938618">
  <ele>-2.456</ele>
  <time>2026-09-02T22:11:27Z</time>
  <course>27.69</course>
  <speed>0.0316227766016838</speed>
  <fix>3d</fix>
</trkpt>
<trkpt lat="33.8106406" lon="-118.3938622">
  <ele>-2.39</ele>
  <time>2026-09-02T22:11:27Z</time>
  <course>330.17</course>
  <speed>0.01</speed>
  <fix>3d</fix>
</trkpt>
<trkpt lat="33.8106404" lon="-118.3938618">
  <ele>-2.456</ele>
  <time>2026-09-02T22:11:27Z</time>
  <course>28.19</course>
  <speed>0.0316227766016838</speed>
  <fix>3d</fix>
</trkpt>
<trkpt lat="33.8106406" lon="-118.3938622">
  <ele>-2.39</ele>
  <time>2026-09-02T22:11:27Z</time>
  <course>330.17</course>
  <speed>0.01</speed>
  <fix>3d</fix>
</trkpt>
<trkpt lat="33.8106404" lon="-118.3938618">
  <ele>-2.456</ele>
  <time>2026-09-02T22:11:27Z</time>
  <course>28.6</course>
  <speed>0.0316227766016838</speed>
  <fix>3d</fix>
</trkpt>
<trkpt lat="33.8106406" lon="-118.3938622">
  <ele>-2.39</ele>
  <time>2026-09-02T22:11:27Z</time>
  <course>335.17</course>
  <speed>0.01</speed>
  <fix>3d</fix>
</trkpt>
<trkpt lat="33.8106404" lon="-118.3938618">
  <ele>-2.456</ele>
  <time>2026-09-02T22:11:27Z</time>
  <course>28.94</course>
  <speed>0.0316227766016838</speed>
  <fix>3d</fix>
</trkpt>
<trkpt lat="33.8106406" lon="-118.3938622">
  <ele>-2.39</ele>
  <time>2026-09-02T22:11:27Z</time>
  <course>335.17</course>
  <speed>0.01</speed>
  <fix>3d</fix>
</trkpt>
<trkpt lat="33.8106404" lon="-118.3938618">
  <ele>-2.456</ele>
  <time>2026-09-02T22:11:27Z</time>
  <course>29.24</course>
  <speed>0.0316227766016838</speed>
  <fix>3d</fix>
</trkpt>
<trkpt lat="33.8106406" lon="-118.3938622">
  <ele>-2.39</ele>
  <time>2026-09-02T22:11:27Z</time>
  <course>335.31</course>
  <speed>0.01</speed>
  <fix>3d</fix>
</trkpt>
<trkpt lat="33.8106404" lon="-118.3938618">
  <ele>-2.457</ele>
  <time>2026-09-02T22:11:27Z</time>
  <course>29.5</course>
  <speed>0.0316227766016838</speed>
  <fix>3d</fix>
</trkpt>
<trkpt lat="33.8106406" lon="-118.3938622">
  <ele>-2.39</ele>
  <time>2026-09-02T22:11:27Z</time>
  <course>335.31</course>
  <speed>0.01</speed>
  <fix>3d</fix>
</trkpt>
<trkpt lat="33.8106404" lon="-118.3938618">
  <ele>-2.457</ele>
  <time>2026-09-02T22:11:27Z</time>
  <course>29.73</course>
  <speed>0.0316227766016838</speed>
  <fix>3d</fix>
</trkpt>
<trkpt lat="33.8106407" lon="-118.3938622">
  <ele>-2.39</ele>
  <time>2026-09-02T22:11:27Z</time>
  <course>335.51</course>
  <speed>0.01</speed>
  <fix>3d</fix>
</trkpt>
<trkpt lat="33.8106404" lon="-118.3938618">
  <ele>-2.458</ele>
  <time>2026-09-02T22:11:27Z</time>
  <course>29.94</course>
  <speed>0.0316227766016838</speed>
  <fix>3d</fix>
</trkpt>
<trkpt lat="33.8106407" lon="-118.3938622">
  <ele>-2.39</ele>
  <time>2026-09-02T22:11:27Z</time>
  <course>335.51</course>
  <speed>0.01</speed>
  <fix>3d</fix>
</trkpt>
<trkpt lat="33.8106404" lon="-118.3938618">
  <ele>-2.459</ele>
  <time>2026-09-02T22:11:27Z</time>
  <course>30.13</course>
  <speed>0.0316227766016838</speed>
  <fix>3d</fix>
</trkpt>
<trkpt lat="33.8106407" lon="-118.3938622">
  <ele>-2.39</ele>
  <time>2026-09-02T22:11:27Z</time>
  <course>335.75</course>
  <speed>0.01</speed>
  <fix>3d</fix>
</trkpt>
<trkpt lat="33.8106404" lon="-118.3938618">
  <ele>-2.461</ele>
  <time>2026-09-02T22:11:27Z</time>
  <course>30.31</course>
  <speed>0.0316227766016838</speed>
  <fix>3d</fix>
</trkpt>
<trkpt lat="33.8106407" lon="-118.3938622">
  <ele>-2.39</ele>
  <time>2026-09-02T22:11:27Z</time>
  <course>335.75</course>
  <speed>0.01</speed>
  <fix>3d</fix>
</trkpt>
<trkpt lat="33.8106404" lon="-118.3938618">
  <ele>-2.462</ele>
  <time>2026-09-02T22:11:27Z</time>
  <course>30.47</course>
  <speed>0.0316227766016838</speed>
  <fix>3d</fix>
</trkpt>
<trkpt lat="33.8106407" lon="-118.3938623">
  <ele>-2.4</ele>
  <time>2026-09-02T22:11:27Z</time>
  <course>335.94</course>
  <speed>0.01</speed>
  <fix>3d</fix>
</trkpt>
<trkpt lat="33.8106404" lon="-118.3938618">
  <ele>-2.463</ele>
  <time>2026-09-02T22:11:27Z</time>
  <course>30.63</course>
  <speed>0.022360679774997897</speed>
  <fix>3d</fix>
</trkpt>
<trkpt lat="33.8106407" lon="-118.3938623">
  <ele>-2.4</ele>
  <time>2026-09-02T22:11:27Z</time>
  <course>335.94</course>
  <speed>0.01</speed>
  <fix>3d</fix>
</trkpt>
<trkpt lat="33.8106405" lon="-118.3938619">
  <ele>-2.463</ele>
  <time>2026-09-02T22:11:27Z</time>
  <course>30.77</course>
  <speed>0.022360679774997897</speed>
  <fix>3d</fix>
</trkpt>
<trkpt lat="33.8106407" lon="-118.3938623">
  <ele>-2.39</ele>
  <time>2026-09-02T22:11:27Z</time>
  <course>336.07</course>
  <speed>0.01</speed>
  <fix>3d</fix>
</trkpt>
<trkpt lat="33.8106405" lon="-118.3938619">
  <ele>-2.463</ele>
  <time>2026-09-02T22:11:27Z</time>
  <course>30.9</course>
  <speed>0.0282842712474619</speed>
  <fix>3d</fix>
</trkpt>
<trkpt lat="33.8106407" lon="-118.3938623">
  <ele>-2.39</ele>
  <time>2026-09-02T22:11:27Z</time>
  <course>336.07</course>
  <speed>0.01</speed>
  <fix>3d</fix>
</trkpt>
<trkpt lat="33.8106405" lon="-118.3938619">
  <ele>-2.462</ele>
  <time>2026-09-02T22:11:27Z</time>
  <course>31.03</course>
  <speed>0.0282842712474619</speed>
  <fix>3d</fix>
</trkpt>
<trkpt lat="33.8106407" lon="-118.3938623">
  <ele>-2.39</ele>
  <time>2026-09-02T22:11:27Z</time>
  <course>336.25</course>
  <speed>0.01</speed>
  <fix>3d</fix>
</trkpt>
<trkpt lat="33.8106405" lon="-118.3938619">
  <ele>-2.461</ele>
  <time>2026-09-02T22:11:27Z</time>
  <course>31.15</course>
  <speed>0.0282842712474619</speed>
  <fix>3d</fix>
</trkpt>
<trkpt lat="33.8106407" lon="-118.3938623">
  <ele>-2.39</ele>
  <time>2026-09-02T22:11:27Z</time>
  <course>336.25</course>
  <speed>0.01</speed>
  <fix>3d</fix>
</trkpt>
<trkpt lat="33.8106405" lon="-118.3938619">
  <ele>-2.459</ele>
  <time>2026-09-02T22:11:27Z</time>
  <course>31.26</course>
  <speed>0.0282842712474619</speed>
  <fix>3d</fix>
</trkpt>
<trkpt lat="33.8106407" lon="-118.3938623">
  <ele>-2.39</ele>
  <time>2026-09-02T22:11:27Z</time>
  <course>336.5</course>
  <speed>0.01</speed>
  <fix>3d</fix>
</trkpt>
<trkpt lat="33.8106405" lon="-118.3938619">
  <ele>-2.456</ele>
  <time>2026-09-02T22:11:27Z</time>
  <course>31.37</course>
  <speed>0.0282842712474619</speed>
  <fix>3d</fix>
</trkpt>
<trkpt lat="33.8106407" lon="-118.3938623">
  <ele>-2.39</ele>
  <time>2026-09-02T22:11:27Z</time>
  <course>336.5</course>
  <speed>0.01</speed>
  <fix>3d</fix>
</trkpt>
<trkpt lat="33.8106405" lon="-118.3938619">
  <ele>-2.454</ele>
  <time>2026-09-02T22:11:27Z</time>
  <course>31.47</course>
  <speed>0.0282842712474619</speed>
  <fix>3d</fix>
</trkpt>
<trkpt lat="33.8106408" lon="-118.3938623">
  <ele>-2.39</ele>
  <time>2026-09-02T22:11:27Z</time>
  <course>336.73</course>
  <speed>0.01</speed>
  <fix>3d</fix>
</trkpt>
<trkpt lat="33.8106405" lon="-118.3938619">
  <ele>-2.454</ele>
  <time>2026-09-02T22:11:27Z</time>
  <course>31.57</course>
  <speed>0.0282842712474619</speed>
  <fix>3d</fix>
</trkpt>
<trkpt lat="33.8106408" lon="-118.3938623">
  <ele>-2.39</ele>
  <time>2026-09-02T22:11:27Z</time>
  <course>336.73</course>
  <speed>0.01</speed>
  <fix>3d</fix>
</trkpt>
<trkpt lat="33.8106405" lon="-118.3938619">
  <ele>-2.454</ele>
  <time>2026-09-02T22:11:27Z</time>
  <course>31.72</course>
  <speed>0.0282842712474619</speed>
  <fix>3d</fix>
</trkpt>
<trkpt lat="33.8106408" lon="-118.3938623">
  <ele>-2.39</ele>
  <time>2026-09-02T22:11:27Z</time>
  <course>337.22</course>
  <speed>0.0</speed>
  <fix>3d</fix>
</trkpt>
<trkpt lat="33.8106405" lon="-118.3938619">
  <ele>-2.456</ele>
  <time>2026-09-02T22:11:27Z</time>
  <course>32.1</course>
  <speed>0.03605551275463989</speed>
  <fix>3d</fix>
</trkpt>
<trkpt lat="33.8106408" lon="-118.3938623">
  <ele>-2.39</ele>
  <time>2026-09-02T22:11:27Z</time>
  <course>337.22</course>
  <speed>0.0</speed>
  <fix>3d</fix>
</trkpt>
<trkpt lat="33.8106406" lon="-118.393862">
  <ele>-2.458</ele>
  <time>2026-09-02T22:11:27Z</time>
  <course>32.64</course>
  <speed>0.03605551275463989</speed>
  <fix>3d</fix>
</trkpt>
<trkpt lat="33.8106408" lon="-118.3938623">
  <ele>-2.39</ele>
  <time>2026-09-02T22:11:27Z</time>
  <course>2.86</course>
  <speed>0.0</speed>
  <fix>3d</fix>
</trkpt>
<trkpt lat="33.8106406" lon="-118.393862">
  <ele>-2.459</ele>
  <time>2026-09-02T22:11:27Z</time>
  <course>33.29</course>
  <speed>0.04242640687119285</speed>
  <fix>3d</fix>
</trkpt>
<trkpt lat="33.8106408" lon="-118.3938623">
  <ele>-2.39</ele>
  <time>2026-09-02T22:11:27Z</time>
  <course>2.86</course>
  <speed>0.0</speed>
  <fix>3d</fix>
</trkpt>
<trkpt lat="33.8106406" lon="-118.393862">
  <ele>-2.459</ele>
  <time>2026-09-02T22:11:27Z</time>
  <course>33.99</course>
  <speed>0.05</speed>
  <fix>3d</fix>
</trkpt>
<trkpt lat="33.8106408" lon="-118.3938623">
  <ele>-2.39</ele>
  <time>2026-09-02T22:11:27Z</time>
  <course>75.63</course>
  <speed>0.0</speed>
  <fix>3d</fix>
</trkpt>
<trkpt lat="33.8106406" lon="-118.393862">
  <ele>-2.459</ele>
  <time>2026-09-02T22:11:27Z</time>
  <course>34.7</course>
  <speed>0.05</speed>
  <fix>3d</fix>
</trkpt>
<trkpt lat="33.8106408" lon="-118.3938623">
  <ele>-2.39</ele>
  <time>2026-09-02T22:11:27Z</time>
  <course>75.63</course>
  <speed>0.0</speed>
  <fix>3d</fix>
</trkpt>
<trkpt lat="33.8106406" lon="-118.393862">
  <ele>-2.459</ele>
  <time>2026-09-02T22:11:27Z</time>
  <course>35.5</course>
  <speed>0.05</speed>
  <fix>3d</fix>
</trkpt>
<trkpt lat="33.8106408" lon="-118.3938623">
  <ele>-2.39</ele>
  <time>2026-09-02T22:11:27Z</time>
  <course>99.14</course>
  <speed>0.01</speed>
  <fix>3d</fix>
</trkpt>
<trkpt lat="33.8106406" lon="-118.393862">
  <ele>-2.457</ele>
  <time>2026-09-02T22:11:27Z</time>
  <course>36.39</course>
  <speed>0.05</speed>
  <fix>3d</fix>
</trkpt>
<trkpt lat="33.8106408" lon="-118.3938623">
  <ele>-2.39</ele>
  <time>2026-09-02T22:11:27Z</time>
  <course>99.14</course>
  <speed>0.01</speed>
  <fix>3d</fix>
</trkpt>
<trkpt lat="33.8106406" lon="-118.393862">
  <ele>-2.455</ele>
  <time>2026-09-02T22:11:27Z</time>
  <course>37.33</course>
  <speed>0.05</speed>
  <fix>3d</fix>
</trkpt>
<trkpt lat="33.8106408" lon="-118.3938623">
  <ele>-2.39</ele>
  <time>2026-09-02T22:11:27Z</time>
  <course>104.62</course>
  <speed>0.01</speed>
  <fix>3d</fix>
</trkpt>
<trkpt lat="33.8106406" lon="-118.3938619">
  <ele>-2.454</ele>
  <time>2026-09-02T22:11:27Z</time>
  <course>38.31</course>
  <speed>0.05</speed>
  <fix>3d</fix>
</trkpt>
<trkpt lat="33.8106408" lon="-118.3938623">
  <ele>-2.39</ele>
  <time>2026-09-02T22:11:27Z</time>
  <course>104.62</course>
  <speed>0.01</speed>
  <fix>3d</fix>
</trkpt>
<trkpt lat="33.8106406" lon="-118.3938619">
  <ele>-2.454</ele>
  <time>2026-09-02T22:11:27Z</time>
  <course>39.3</course>
  <speed>0.04242640687119285</speed>
  <fix>3d</fix>
</trkpt>
<trkpt lat="33.8106408" lon="-118.3938623">
  <ele>-2.39</ele>
  <time>2026-09-02T22:11:27Z</time>
  <course>103.57</course>
  <speed>0.01</speed>
  <fix>3d</fix>
</trkpt>
<trkpt lat="33.8106406" lon="-118.3938619">
  <ele>-2.455</ele>
  <time>2026-09-02T22:11:27Z</time>
  <course>40.31</course>
  <speed>0.04242640687119285</speed>
  <fix>3d</fix>
</trkpt>
<trkpt lat="33.8106408" lon="-118.3938623">
  <ele>-2.39</ele>
  <time>2026-09-02T22:11:27Z</time>
  <course>103.57</course>
  <speed>0.01</speed>
  <fix>3d</fix>
</trkpt>
<trkpt lat="33.8106406" lon="-118.3938619">
  <ele>-2.457</ele>
  <time>2026-09-02T22:11:27Z</time>
  <course>41.32</course>
  <speed>0.04242640687119285</speed>
  <fix>3d</fix>
</trkpt>
<trkpt lat="33.8106408" lon="-118.3938622">
  <ele>-2.39</ele>
  <time>2026-09-02T22:11:27Z</time>
  <course>101.03</course>
  <speed>0.01</speed>
  <fix>3d</fix>
</trkpt>
<trkpt lat="33.8106406" lon="-118.3938619">
  <ele>-2.458</ele>
  <time>2026-09-02T22:11:27Z</time>
  <course>42.34</course>
  <speed>0.04242640687119285</speed>
  <fix>3d</fix>
</trkpt>
<trkpt lat="33.8106408" lon="-118.3938622">
  <ele>-2.39</ele>
  <time>2026-09-02T22:11:27Z</time>
  <course>101.03</course>
  <speed>0.01</speed>
  <fix>3d</fix>
</trkpt>
<trkpt lat="33.8106406" lon="-118.3938619">
  <ele>-2.458</ele>
  <time>2026-09-02T22:11:27Z</time>
  <course>43.37</course>
  <speed>0.04242640687119285</speed>
  <fix>3d</fix>
</trkpt>
<trkpt lat="33.8106408" lon="-118.3938622">
  <ele>-2.39</ele>
  <time>2026-09-02T22:11:27Z</time>
  <course>98.71</course>
  <speed>0.01</speed>
  <fix>3d</fix>
</trkpt>
<trkpt lat="33.8106406" lon="-118.3938619">
  <ele>-2.458</ele>
  <time>2026-09-02T22:11:27Z</time>
  <course>44.39</course>
  <speed>0.04242640687119285</speed>
  <fix>3d</fix>
</trkpt>
<trkpt lat="33.8106408" lon="-118.3938622">
  <ele>-2.39</ele>
  <time>2026-09-02T22:11:27Z</time>
  <course>98.71</course>
  <speed>0.01</speed>
  <fix>3d</fix>
</trkpt>
<trkpt lat="33.8106406" lon="-118.3938619">
  <ele>-2.457</ele>
  <time>2026-09-02T22:11:27Z</time>
  <course>45.4</course>
  <speed>0.04242640687119285</speed>
  <fix>3d</fix>
</trkpt>
<trkpt lat="33.8106408" lon="-118.3938622">
  <ele>-2.39</ele>
  <time>2026-09-02T22:11:27Z</time>
  <course>97.54</course>
  <speed>0.01</speed>
  <fix>3d</fix>
</trkpt>
<trkpt lat="33.8106406" lon="-118.3938619">
  <ele>-2.457</ele>
  <time>2026-09-02T22:11:27Z</time>
  <course>46.42</course>
  <speed>0.04242640687119285</speed>
  <fix>3d</fix>
</trkpt>
<trkpt lat="33.8106408" lon="-118.3938622">
  <ele>-2.39</ele>
  <time>2026-09-02T22:11:27Z</time>
  <course>97.54</course>
  <speed>0.01</speed>
  <fix>3d</fix>
</trkpt>
<trkpt lat="33.8106406" lon="-118.3938619">
  <ele>-2.456</ele>
  <time>2026-09-02T22:11:27Z</time>
  <course>47.45</course>
  <speed>0.04242640687119285</speed>
  <fix>3d</fix>
</trkpt>
<trkpt lat="33.8106408" lon="-118.3938622">
  <ele>-2.39</ele>
  <time>2026-09-02T22:11:27Z</time>
  <course>97.58</course>
  <speed>0.01</speed>
  <fix>3d</fix>
</trkpt>
<trkpt lat="33.8106406" lon="-118.3938619">
  <ele>-2.455</ele>
  <time>2026-09-02T22:11:27Z</time>
  <course>48.48</course>
  <speed>0.04242640687119285</speed>
  <fix>3d</fix>
</trkpt>
<trkpt lat="33.8106408" lon="-118.3938622">
  <ele>-2.39</ele>
  <time>2026-09-02T22:11:27Z</time>
  <course>97.58</course>
  <speed>0.01</speed>
  <fix>3d</fix>
</trkpt>
<trkpt lat="33.8106406" lon="-118.3938619">
  <ele>-2.455</ele>
  <time>2026-09-02T22:11:27Z</time>
  <course>49.5</course>
  <speed>0.03605551275463989</speed>
  <fix>3d</fix>
</trkpt>
<trkpt lat="33.8106408" lon="-118.3938621">
  <ele>-2.39</ele>
  <time>2026-09-02T22:11:27Z</time>
  <course>97.68</course>
  <speed>0.01</speed>
  <fix>3d</fix>
</trkpt>
<trkpt lat="33.8106406" lon="-118.3938619">
  <ele>-2.456</ele>
  <time>2026-09-02T22:11:27Z</time>
  <course>50.53</course>
  <speed>0.03605551275463989</speed>
  <fix>3d</fix>
</trkpt>
<trkpt lat="33.8106408" lon="-118.3938621">
  <ele>-2.39</ele>
  <time>2026-09-02T22:11:27Z</time>
  <course>97.68</course>
  <speed>0.01</speed>
  <fix>3d</fix>
</trkpt>
<trkpt lat="33.8106406" lon="-118.3938619">
  <ele>-2.458</ele>
  <time>2026-09-02T22:11:27Z</time>
  <course>51.55</course>
  <speed>0.03605551275463989</speed>
  <fix>3d</fix>
</trkpt>
<trkpt lat="33.8106408" lon="-118.3938621">
  <ele>-2.4</ele>
  <time>2026-09-02T22:11:27Z</time>
  <course>97.93</course>
  <speed>0.01</speed>
  <fix>3d</fix>
</trkpt>
<trkpt lat="33.8106406" lon="-118.3938619">
  <ele>-2.459</ele>
  <time>2026-09-02T22:11:27Z</time>
  <course>52.57</course>
  <speed>0.03605551275463989</speed>
  <fix>3d</fix>
</trkpt>
<trkpt lat="33.8106408" lon="-118.3938621">
  <ele>-2.4</ele>
  <time>2026-09-02T22:11:27Z</time>
  <course>97.93</course>
  <speed>0.01</speed>
  <fix>3d</fix>
</trkpt>
<trkpt lat="33.8106406" lon="-118.3938619">
  <ele>-2.46</ele>
  <time>2026-09-02T22:11:27Z</time>
  <course>53.59</course>
  <speed>0.03605551275463989</speed>
  <fix>3d</fix>
</trkpt>
<trkpt lat="33.8106408" lon="-118.3938621">
  <ele>-2.4</ele>
  <time>2026-09-02T22:11:27Z</time>
  <course>98.22</course>
  <speed>0.0</speed>
  <fix>3d</fix>
</trkpt>
<trkpt lat="33.8106406" lon="-118.3938619">
  <ele>-2.46</ele>
  <time>2026-09-02T22:11:27Z</time>
  <course>54.61</course>
  <speed>0.03605551275463989</speed>
  <fix>3d</fix>
</trkpt>
<trkpt lat="33.8106408" lon="-118.3938621">
  <ele>-2.4</ele>
  <time>2026-09-02T22:11:27Z</time>
  <course>98.22</course>
  <speed>0.0</speed>
  <fix>3d</fix>
</trkpt>
<trkpt lat="33.8106406" lon="-118.3938619">
  <ele>-2.46</ele>
  <time>2026-09-02T22:11:27Z</time>
  <course>55.64</course>
  <speed>0.03605551275463989</speed>
  <fix>3d</fix>
</trkpt>
<trkpt lat="33.8106408" lon="-118.3938621">
  <ele>-2.4</ele>
  <time>2026-09-02T22:11:27Z</time>
  <course>98.67</course>
  <speed>0.0</speed>
  <fix>3d</fix>
</trkpt>
<trkpt lat="33.8106406" lon="-118.3938619">
  <ele>-2.459</ele>
  <time>2026-09-02T22:11:27Z</time>
  <course>56.71</course>
  <speed>0.03605551275463989</speed>
  <fix>3d</fix>
</trkpt>
<trkpt lat="33.8106408" lon="-118.3938621">
  <ele>-2.4</ele>
  <time>2026-09-02T22:11:27Z</time>
  <course>98.67</course>
  <speed>0.0</speed>
  <fix>3d</fix>
</trkpt>
<trkpt lat="33.8106406" lon="-118.3938619">
  <ele>-2.458</ele>
  <time>2026-09-02T22:11:27Z</time>
  <course>57.65</course>
  <speed>0.03605551275463989</speed>
  <fix>3d</fix>
</trkpt>
<trkpt lat="33.8106408" lon="-118.3938621">
  <ele>-2.4</ele>
  <time>2026-09-02T22:11:27Z</time>
  <course>96.35</course>
  <speed>0.0</speed>
  <fix>3d</fix>
</trkpt>
<trkpt lat="33.8106406" lon="-118.3938619">
  <ele>-2.458</ele>
  <time>2026-09-02T22:11:27Z</time>
  <course>58.32</course>
  <speed>0.03605551275463989</speed>
  <fix>3d</fix>
</trkpt>
<trkpt lat="33.8106408" lon="-118.3938621">
  <ele>-2.4</ele>
  <time>2026-09-02T22:11:27Z</time>
  <course>96.35</course>
  <speed>0.0</speed>
  <fix>3d</fix>
</trkpt>
<trkpt lat="33.8106406" lon="-118.3938619">
  <ele>-2.459</ele>
  <time>2026-09-02T22:11:27Z</time>
  <course>58.83</course>
  <speed>0.03605551275463989</speed>
  <fix>3d</fix>
</trkpt>
<trkpt lat="33.8106408" lon="-118.393862">
  <ele>-2.4</ele>
  <time>2026-09-02T22:11:27Z</time>
  <course>93.2</course>
  <speed>0.0</speed>
  <fix>3d</fix>
</trkpt>
<trkpt lat="33.8106406" lon="-118.3938619">
  <ele>-2.46</ele>
  <time>2026-09-02T22:11:27Z</time>
  <course>59.24</course>
  <speed>0.03605551275463989</speed>
  <fix>3d</fix>
</trkpt>
<trkpt lat="33.8106408" lon="-118.393862">
  <ele>-2.4</ele>
  <time>2026-09-02T22:11:27Z</time>
  <course>93.2</course>
  <speed>0.0</speed>
  <fix>3d</fix>
</trkpt>
<trkpt lat="33.8106406" lon="-118.3938619">
  <ele>-2.462</ele>
  <time>2026-09-02T22:11:27Z</time>
  <course>59.59</course>
  <speed>0.03605551275463989</speed>
  <fix>3d</fix>
</trkpt>
<trkpt lat="33.8106408" lon="-118.393862">
  <ele>-2.4</ele>
  <time>2026-09-02T22:11:27Z</time>
  <course>92.7</course>
  <speed>0.0</speed>
  <fix>3d</fix>
</trkpt>
<trkpt lat="33.8106406" lon="-118.3938619">
  <ele>-2.463</ele>
  <time>2026-09-02T22:11:27Z</time>
  <course>59.88</course>
  <speed>0.03605551275463989</speed>
  <fix>3d</fix>
</trkpt>
<trkpt lat="33.8106408" lon="-118.393862">
  <ele>-2.4</ele>
  <time>2026-09-02T22:11:27Z</time>
  <course>92.7</course>
  <speed>0.0</speed>
  <fix>3d</fix>
</trkpt>
<trkpt lat="33.8106406" lon="-118.3938619">
  <ele>-2.464</ele>
  <time>2026-09-02T22:11:27Z</time>
  <course>60.15</course>
  <speed>0.03605551275463989</speed>
  <fix>3d</fix>
</trkpt>
<trkpt lat="33.8106408" lon="-118.393862">
  <ele>-2.4</ele>
  <time>2026-09-02T22:11:27Z</time>
  <course>92.76</course>
  <speed>0.0</speed>
  <fix>3d</fix>
</trkpt>
<trkpt lat="33.8106406" lon="-118.3938619">
  <ele>-2.463</ele>
  <time>2026-09-02T22:11:27Z</time>
  <course>60.38</course>
  <speed>0.03605551275463989</speed>
  <fix>3d</fix>
</trkpt>
<trkpt lat="33.8106408" lon="-118.393862">
  <ele>-2.4</ele>
  <time>2026-09-02T22:11:27Z</time>
  <course>92.76</course>
  <speed>0.0</speed>
  <fix>3d</fix>
</trkpt>
<trkpt lat="33.8106406" lon="-118.3938619">
  <ele>-2.462</ele>
  <time>2026-09-02T22:11:27Z</time>
  <course>60.59</course>
  <speed>0.03605551275463989</speed>
  <fix>3d</fix>
</trkpt>
<trkpt lat="33.8106408" lon="-118.393862">
  <ele>-2.4</ele>
  <time>2026-09-02T22:11:27Z</time>
  <course>92.75</course>
  <speed>0.0</speed>
  <fix>3d</fix>
</trkpt>
<trkpt lat="33.8106406" lon="-118.3938619">
  <ele>-2.461</ele>
  <time>2026-09-02T22:11:27Z</time>
  <course>60.79</course>
  <speed>0.03605551275463989</speed>
  <fix>3d</fix>
</trkpt>
<trkpt lat="33.8106408" lon="-118.393862">
  <ele>-2.4</ele>
  <time>2026-09-02T22:11:27Z</time>
  <course>92.75</course>
  <speed>0.0</speed>
  <fix>3d</fix>
</trkpt>
<trkpt lat="33.8106406" lon="-118.3938618">
  <ele>-2.46</ele>
  <time>2026-09-02T22:11:27Z</time>
  <course>60.96</course>
  <speed>0.0316227766016838</speed>
  <fix>3d</fix>
</trkpt>
<trkpt lat="33.8106408" lon="-118.393862">
  <ele>-2.4</ele>
  <time>2026-09-02T22:11:27Z</time>
  <course>92.97</course>
  <speed>0.0</speed>
  <fix>3d</fix>
</trkpt>
<trkpt lat="33.8106406" lon="-118.3938618">
  <ele>-2.459</ele>
  <time>2026-09-02T22:11:27Z</time>
  <course>61.13</course>
  <speed>0.0316227766016838</speed>
  <fix>3d</fix>
</trkpt>
<trkpt lat="33.8106408" lon="-118.393862">
  <ele>-2.4</ele>
  <time>2026-09-02T22:11:27Z</time>
  <course>92.97</course>
  <speed>0.0</speed>
  <fix>3d</fix>
</trkpt>
<trkpt lat="33.8106406" lon="-118.3938618">
  <ele>-2.459</ele>
  <time>2026-09-02T22:11:27Z</time>
  <course>61.28</course>
  <speed>0.0316227766016838</speed>
  <fix>3d</fix>
</trkpt>
<trkpt lat="33.8106408" lon="-118.393862">
  <ele>-2.39</ele>
  <time>2026-09-02T22:11:27Z</time>
  <course>93.43</course>
  <speed>0.0</speed>
  <fix>3d</fix>
</trkpt>
<trkpt lat="33.8106406" lon="-118.3938618">
  <ele>-2.459</ele>
  <time>2026-09-02T22:11:27Z</time>
  <course>61.42</course>
  <speed>0.0316227766016838</speed>
  <fix>3d</fix>
</trkpt>
<trkpt lat="33.8106408" lon="-118.393862">
  <ele>-2.39</ele>
  <time>2026-09-02T22:11:27Z</time>
  <course>93.43</course>
  <speed>0.0</speed>
  <fix>3d</fix>
</trkpt>
<trkpt lat="33.8106406" lon="-118.3938618">
  <ele>-2.459</ele>
  <time>2026-09-02T22:11:27Z</time>
  <course>61.55</course>
  <speed>0.0316227766016838</speed>
  <fix>3d</fix>
</trkpt>
<trkpt lat="33.8106408" lon="-118.393862">
  <ele>-2.39</ele>
  <time>2026-09-02T22:11:27Z</time>
  <course>93.81</course>
  <speed>0.0</speed>
  <fix>3d</fix>
</trkpt>
<trkpt lat="33.8106406" lon="-118.3938618">
  <ele>-2.459</ele>
  <time>2026-09-02T22:11:27Z</time>
  <course>61.68</course>
  <speed>0.0316227766016838</speed>
  <fix>3d</fix>
</trkpt>
<trkpt lat="33.8106408" lon="-118.393862">
  <ele>-2.39</ele>
  <time>2026-09-02T22:11:27Z</time>
  <course>93.81</course>
  <speed>0.0</speed>
  <fix>3d</fix>
</trkpt>
<trkpt lat="33.8106406" lon="-118.3938618">
  <ele>-2.458</ele>
  <time>2026-09-02T22:11:27Z</time>
  <course>61.8</course>
  <speed>0.0316227766016838</speed>
  <fix>3d</fix>
</trkpt>
<trkpt lat="33.8106408" lon="-118.3938619">
  <ele>-2.39</ele>
  <time>2026-09-02T22:11:27Z</time>
  <course>94.0</course>
  <speed>0.0</speed>
  <fix>3d</fix>
</trkpt>
<trkpt lat="33.8106406" lon="-118.3938618">
  <ele>-2.456</ele>
  <time>2026-09-02T22:11:27Z</time>
  <course>61.91</course>
  <speed>0.0316227766016838</speed>
  <fix>3d</fix>
</trkpt>
<trkpt lat="33.8106408" lon="-118.3938619">
  <ele>-2.39</ele>
  <time>2026-09-02T22:11:27Z</time>
  <course>94.0</course>
  <speed>0.0</speed>
  <fix>3d</fix>
</trkpt>
<trkpt lat="33.8106406" lon="-118.3938618">
  <ele>-2.454</ele>
  <time>2026-09-02T22:11:27Z</time>
  <course>62.02</course>
  <speed>0.0316227766016838</speed>
  <fix>3d</fix>
</trkpt>
<trkpt lat="33.8106408" lon="-118.3938619">
  <ele>-2.39</ele>
  <time>2026-09-02T22:11:27Z</time>
  <course>94.16</course>
  <speed>0.0</speed>
  <fix>3d</fix>
</trkpt>
<trkpt lat="33.8106406" lon="-118.3938618">
  <ele>-2.453</ele>
  <time>2026-09-02T22:11:27Z</time>
  <course>62.12</course>
  <speed>0.0316227766016838</speed>
  <fix>3d</fix>
</trkpt>
<trkpt lat="33.8106408" lon="-118.3938619">
  <ele>-2.39</ele>
  <time>2026-09-02T22:11:27Z</time>
  <course>94.16</course>
  <speed>0.0</speed>
  <fix>3d</fix>
</trkpt>
<trkpt lat="33.8106406" lon="-118.3938618">
  <ele>-2.452</ele>
  <time>2026-09-02T22:11:27Z</time>
  <course>62.22</course>
  <speed>0.0316227766016838</speed>
  <fix>3d</fix>
</trkpt>
<trkpt lat="33.8106408" lon="-118.3938619">
  <ele>-2.39</ele>
  <time>2026-09-02T22:11:27Z</time>
  <course>94.54</course>
  <speed>0.0</speed>
  <fix>3d</fix>
</trkpt>
<trkpt lat="33.8106406" lon="-118.3938618">
  <ele>-2.454</ele>
  <time>2026-09-02T22:11:27Z</time>
  <course>62.24</course>
  <speed>0.0316227766016838</speed>
  <fix>3d</fix>
</trkpt>
<trkpt lat="33.8106408" lon="-118.3938619">
  <ele>-2.39</ele>
  <time>2026-09-02T22:11:27Z</time>
  <course>94.54</course>
  <speed>0.0</speed>
  <fix>3d</fix>
</trkpt>
<trkpt lat="33.8106406" lon="-118.3938618">
  <ele>-2.456</ele>
  <time>2026-09-02T22:11:27Z</time>
  <course>61.85</course>
  <speed>0.0316227766016838</speed>
  <fix>3d</fix>
</trkpt>
<trkpt lat="33.8106408" lon="-118.3938619">
  <ele>-2.39</ele>
  <time>2026-09-02T22:11:27Z</time>
  <course>89.67</course>
  <speed>0.0</speed>
  <fix>3d</fix>
</trkpt>
<trkpt lat="33.8106406" lon="-118.3938618">
  <ele>-2.457</ele>
  <time>2026-09-02T22:11:27Z</time>
  <course>61.12</course>
  <speed>0.0316227766016838</speed>
  <fix>3d</fix>
</trkpt>
<trkpt lat="33.8106408" lon="-118.3938619">
  <ele>-2.39</ele>
  <time>2026-09-02T22:11:27Z</time>
  <course>89.67</course>
  <speed>0.0</speed>
  <fix>3d</fix>
</trkpt>
<trkpt lat="33.8106406" lon="-118.3938618">
  <ele>-2.459</ele>
  <time>2026-09-02T22:11:27Z</time>
  <course>60.24</course>
  <speed>0.0316227766016838</speed>
  <fix>3d</fix>
</trkpt>
<trkpt lat="33.8106408" lon="-118.3938619">
  <ele>-2.39</ele>
  <time>2026-09-02T22:11:27Z</time>
  <course>76.46</course>
  <speed>0.0</speed>
  <fix>3d</fix>
</trkpt>
<trkpt lat="33.8106406" lon="-118.3938618">
  <ele>-2.459</ele>
  <time>2026-09-02T22:11:27Z</time>
  <course>59.29</course>
  <speed>0.0316227766016838</speed>
  <fix>3d</fix>
</trkpt>
<trkpt lat="33.8106408" lon="-118.3938619">
  <ele>-2.39</ele>
  <time>2026-09-02T22:11:27Z</time>
  <course>76.46</course>
  <speed>0.0</speed>
  <fix>3d</fix>
</trkpt>
<trkpt lat="33.8106406" lon="-118.3938618">
  <ele>-2.459</ele>
  <time>2026-09-02T22:11:27Z</time>
  <course>58.3</course>
  <speed>0.0316227766016838</speed>
  <fix>3d</fix>
</trkpt>
<trkpt lat="33.8106408" lon="-118.3938619">
  <ele>-2.4</ele>
  <time>2026-09-02T22:11:27Z</time>
  <course>67.05</course>
  <speed>0.0</speed>
  <fix>3d</fix>
</trkpt>
<trkpt lat="33.8106406" lon="-118.3938618">
  <ele>-2.459</ele>
  <time>2026-09-02T22:11:27Z</time>
  <course>57.3</course>
  <speed>0.0316227766016838</speed>
  <fix>3d</fix>
</trkpt>
<trkpt lat="33.8106408" lon="-118.3938619">
  <ele>-2.4</ele>
  <time>2026-09-02T22:11:27Z</time>
  <course>67.05</course>
  <speed>0.0</speed>
  <fix>3d</fix>
</trkpt>
<trkpt lat="33.8106406" lon="-118.3938618">
  <ele>-2.46</ele>
  <time>2026-09-02T22:11:27Z</time>
  <course>56.26</course>
  <speed>0.0316227766016838</speed>
  <fix>3d</fix>
</trkpt>
<trkpt lat="33.8106408" lon="-118.3938619">
  <ele>-2.4</ele>
  <time>2026-09-02T22:11:27Z</time>
  <course>68.91</course>
  <speed>0.0</speed>
  <fix>3d</fix>
</trkpt>
<trkpt lat="33.8106406" lon="-118.3938618">
  <ele>-2.462</ele>
  <time>2026-09-02T22:11:27Z</time>
  <course>55.24</course>
  <speed>0.03</speed>
  <fix>3d</fix>
</trkpt>
<trkpt lat="33.8106408" lon="-118.3938619">
  <ele>-2.4</ele>
  <time>2026-09-02T22:11:27Z</time>
  <course>68.91</course>
  <speed>0.0</speed>
  <fix>3d</fix>
</trkpt>
<trkpt lat="33.8106406" lon="-118.3938618">
  <ele>-2.463</ele>
  <time>2026-09-02T22:11:27Z</time>
  <course>54.2</course>
  <speed>0.03</speed>
  <fix>3d</fix>
</trkpt>
<trkpt lat="33.8106408" lon="-118.3938619">
  <ele>-2.4</ele>
  <time>2026-09-02T22:11:27Z</time>
  <course>73.03</course>
  <speed>0.0</speed>
  <fix>3d</fix>
</trkpt>
<trkpt lat="33.8106406" lon="-118.3938618">
  <ele>-2.465</ele>
  <time>2026-09-02T22:11:27Z</time>
  <course>53.16</course>
  <speed>0.03</speed>
  <fix>3d</fix>
</trkpt>
<trkpt lat="33.8106408" lon="-118.3938619">
  <ele>-2.4</ele>
  <time>2026-09-02T22:11:27Z</time>
  <course>73.03</course>
  <speed>0.0</speed>
  <fix>3d</fix>
</trkpt>
<trkpt lat="33.8106406" lon="-118.3938618">
  <ele>-2.465</ele>
  <time>2026-09-02T22:11:27Z</time>
  <course>52.11</course>
  <speed>0.03</speed>
  <fix>3d</fix>
</trkpt>
<trkpt lat="33.8106408" lon="-118.3938618">
  <ele>-2.4</ele>
  <time>2026-09-02T22:11:27Z</time>
  <course>76.35</course>
  <speed>0.0</speed>
  <fix>3d</fix>
</trkpt>
<trkpt lat="33.8106406" lon="-118.3938618">
  <ele>-2.465</ele>
  <time>2026-09-02T22:11:27Z</time>
  <course>51.06</course>
  <speed>0.03</speed>
  <fix>3d</fix>
</trkpt>
<trkpt lat="33.8106408" lon="-118.3938618">
  <ele>-2.4</ele>
  <time>2026-09-02T22:11:27Z</time>
  <course>76.35</course>
  <speed>0.0</speed>
  <fix>3d</fix>
</trkpt>
<trkpt lat="33.8106406" lon="-118.3938618">
  <ele>-2.464</ele>
  <time>2026-09-02T22:11:27Z</time>
  <course>50.0</course>
  <speed>0.03</speed>
  <fix>3d</fix>
</trkpt>
<trkpt lat="33.8106408" lon="-118.3938618">
  <ele>-2.39</ele>
  <time>2026-09-02T22:11:27Z</time>
  <course>78.03</course>
  <speed>0.0</speed>
  <fix>3d</fix>
</trkpt>
<trkpt lat="33.8106406" lon="-118.3938618">
  <ele>-2.462</ele>
  <time>2026-09-02T22:11:27Z</time>
  <course>48.94</course>
  <speed>0.03</speed>
  <fix>3d</fix>
</trkpt>
<trkpt lat="33.8106408" lon="-118.3938618">
  <ele>-2.39</ele>
  <time>2026-09-02T22:11:27Z</time>
  <course>78.03</course>
  <speed>0.0</speed>
  <fix>3d</fix>
</trkpt>
<trkpt lat="33.8106406" lon="-118.3938618">
  <ele>-2.458</ele>
  <time>2026-09-02T22:11:27Z</time>
  <course>47.88</course>
  <speed>0.03</speed>
  <fix>3d</fix>
</trkpt>
<trkpt lat="33.8106408" lon="-118.3938618">
  <ele>-2.39</ele>
  <time>2026-09-02T22:11:27Z</time>
  <course>78.04</course>
  <speed>0.0</speed>
  <fix>3d</fix>
</trkpt>
<trkpt lat="33.8106406" lon="-118.3938618">
  <ele>-2.455</ele>
  <time>2026-09-02T22:11:27Z</time>
  <course>46.83</course>
  <speed>0.03</speed>
  <fix>3d</fix>
</trkpt>
<trkpt lat="33.8106408" lon="-118.3938618">
  <ele>-2.39</ele>
  <time>2026-09-02T22:11:27Z</time>
  <course>78.04</course>
  <speed>0.0</speed>
  <fix>3d</fix>
</trkpt>
<trkpt lat="33.8106406" lon="-118.3938618">
  <ele>-2.452</ele>
  <time>2026-09-02T22:11:27Z</time>
  <course>45.77</course>
  <speed>0.03</speed>
  <fix>3d</fix>
</trkpt>
<trkpt lat="33.8106408" lon="-118.3938618">
  <ele>-2.39</ele>
  <time>2026-09-02T22:11:27Z</time>
  <course>77.76</course>
  <speed>0.0</speed>
  <fix>3d</fix>
</trkpt>
<trkpt lat="33.8106406" lon="-118.3938618">
  <ele>-2.449</ele>
  <time>2026-09-02T22:11:27Z</time>
  <course>44.71</course>
  <speed>0.03</speed>
  <fix>3d</fix>
</trkpt>
<trkpt lat="33.8106408" lon="-118.3938618">
  <ele>-2.39</ele>
  <time>2026-09-02T22:11:27Z</time>
  <course>77.76</course>
  <speed>0.0</speed>
  <fix>3d</fix>
</trkpt>
<trkpt lat="33.8106406" lon="-118.3938618">
  <ele>-2.449</ele>
  <time>2026-09-02T22:11:27Z</time>
  <course>43.65</course>
  <speed>0.03</speed>
  <fix>3d</fix>
</trkpt>
<trkpt lat="33.8106408" lon="-118.3938618">
  <ele>-2.39</ele>
  <time>2026-09-02T22:11:27Z</time>
  <course>77.77</course>
  <speed>0.0</speed>
  <fix>3d</fix>
</trkpt>
<trkpt lat="33.8106406" lon="-118.3938618">
  <ele>-2.45</ele>
  <time>2026-09-02T22:11:27Z</time>
  <course>42.6</course>
  <speed>0.03</speed>
  <fix>3d</fix>
</trkpt>
<trkpt lat="33.8106408" lon="-118.3938618">
  <ele>-2.39</ele>
  <time>2026-09-02T22:11:27Z</time>
  <course>77.77</course>
  <speed>0.0</speed>
  <fix>3d</fix>
</trkpt>
<trkpt lat="33.8106406" lon="-118.3938618">
  <ele>-2.452</ele>
  <time>2026-09-02T22:11:27Z</time>
  <course>41.55</course>
  <speed>0.03</speed>
  <fix>3d</fix>
</trkpt>
<trkpt lat="33.8106408" lon="-118.3938618">
  <ele>-2.39</ele>
  <time>2026-09-02T22:11:27Z</time>
  <course>78.03</course>
  <speed>0.0</speed>
  <fix>3d</fix>
</trkpt>
<trkpt lat="33.8106406" lon="-118.3938618">
  <ele>-2.455</ele>
  <time>2026-09-02T22:11:27Z</time>
  <course>40.49</course>
  <speed>0.03</speed>
  <fix>3d</fix>
</trkpt>
<trkpt lat="33.8106408" lon="-118.3938618">
  <ele>-2.39</ele>
  <time>2026-09-02T22:11:27Z</time>
  <course>78.03</course>
  <speed>0.0</speed>
  <fix>3d</fix>
</trkpt>
<trkpt lat="33.8106406" lon="-118.3938618">
  <ele>-2.458</ele>
  <time>2026-09-02T22:11:27Z</time>
  <course>39.44</course>
  <speed>0.03</speed>
  <fix>3d</fix>
</trkpt>
<trkpt lat="33.8106408" lon="-118.3938617">
  <ele>-2.39</ele>
  <time>2026-09-02T22:11:27Z</time>
  <course>78.51</course>
  <speed>0.0</speed>
  <fix>3d</fix>
</trkpt>
<trkpt lat="33.8106406" lon="-118.3938618">
  <ele>-2.461</ele>
  <time>2026-09-02T22:11:27Z</time>
  <course>38.38</course>
  <speed>0.03</speed>
  <fix>3d</fix>
</trkpt>
<trkpt lat="33.8106408" lon="-118.3938617">
  <ele>-2.39</ele>
  <time>2026-09-02T22:11:27Z</time>
  <course>78.51</course>
  <speed>0.0</speed>
  <fix>3d</fix>
</trkpt>
<trkpt lat="33.8106406" lon="-118.3938618">
  <ele>-2.463</ele>
  <time>2026-09-02T22:11:27Z</time>
  <course>37.33</course>
  <speed>0.03</speed>
  <fix>3d</fix>
</trkpt>
<trkpt lat="33.8106408" lon="-118.3938616">
  <ele>-2.4</ele>
  <time>2026-09-02T22:11:27Z</time>
  <course>78.48</course>
  <speed>0.0</speed>
  <fix>3d</fix>
</trkpt>
<trkpt lat="33.8106406" lon="-118.3938618">
  <ele>-2.464</ele>
  <time>2026-09-02T22:11:27Z</time>
  <course>36.29</course>
  <speed>0.03</speed>
  <fix>3d</fix>
</trkpt>
<trkpt lat="33.8106408" lon="-118.3938616">
  <ele>-2.4</ele>
  <time>2026-09-02T22:11:27Z</time>
  <course>78.48</course>
  <speed>0.0</speed>
  <fix>3d</fix>
</trkpt>
<trkpt lat="33.8106406" lon="-118.3938618">
  <ele>-2.464</ele>
  <time>2026-09-02T22:11:27Z</time>
  <course>35.24</course>
  <speed>0.03</speed>
  <fix>3d</fix>
</trkpt>
<trkpt lat="33.8106408" lon="-118.3938616">
  <ele>-2.4</ele>
  <time>2026-09-02T22:11:27Z</time>
  <course>77.12</course>
  <speed>0.0</speed>
  <fix>3d</fix>
</trkpt>
<trkpt lat="33.8106406" lon="-118.3938618">
  <ele>-2.465</ele>
  <time>2026-09-02T22:11:27Z</time>
  <course>34.2</course>
  <speed>0.03</speed>
  <fix>3d</fix>
</trkpt>
<trkpt lat="33.8106408" lon="-118.3938616">
  <ele>-2.4</ele>
  <time>2026-09-02T22:11:27Z</time>
  <course>77.12</course>
  <speed>0.0</speed>
  <fix>3d</fix>
</trkpt>
<trkpt lat="33.8106406" lon="-118.3938617">
  <ele>-2.463</ele>
  <time>2026-09-02T22:11:27Z</time>
  <course>33.16</course>
  <speed>0.03</speed>
  <fix>3d</fix>
</trkpt>
<trkpt lat="33.8106408" lon="-118.3938616">
  <ele>-2.4</ele>
  <time>2026-09-02T22:11:27Z</time>
  <course>74.09</course>
  <speed>0.0</speed>
  <fix>3d</fix>
</trkpt>
<trkpt lat="33.8106406" lon="-118.3938617">
  <ele>-2.462</ele>
  <time>2026-09-02T22:11:27Z</time>
  <course>32.12</course>
  <speed>0.03</speed>
  <fix>3d</fix>
</trkpt>
<trkpt lat="33.8106408" lon="-118.3938616">
  <ele>-2.4</ele>
  <time>2026-09-02T22:11:27Z</time>
  <course>74.09</course>
  <speed>0.0</speed>
  <fix>3d</fix>
</trkpt>
<trkpt lat="33.8106406" lon="-118.3938617">
  <ele>-2.461</ele>
  <time>2026-09-02T22:11:27Z</time>
  <course>31.07</course>
  <speed>0.03</speed>
  <fix>3d</fix>
</trkpt>
<trkpt lat="33.8106408" lon="-118.3938616">
  <ele>-2.4</ele>
  <time>2026-09-02T22:11:27Z</time>
  <course>67.4</course>
  <speed>0.0</speed>
  <fix>3d</fix>
</trkpt>
<trkpt lat="33.8106406" lon="-118.3938617">
  <ele>-2.46</ele>
  <time>2026-09-02T22:11:27Z</time>
  <course>30.03</course>
  <speed>0.03</speed>
  <fix>3d</fix>
</trkpt>
<trkpt lat="33.8106408" lon="-118.3938616">
  <ele>-2.4</ele>
  <time>2026-09-02T22:11:27Z</time>
  <course>67.4</course>
  <speed>0.0</speed>
  <fix>3d</fix>
</trkpt>
<trkpt lat="33.8106406" lon="-118.3938617">
  <ele>-2.46</ele>
  <time>2026-09-02T22:11:27Z</time>
  <course>28.98</course>
  <speed>0.03</speed>
  <fix>3d</fix>
</trkpt>
<trkpt lat="33.8106408" lon="-118.3938616">
  <ele>-2.39</ele>
  <time>2026-09-02T22:11:27Z</time>
  <course>58.71</course>
  <speed>0.0</speed>
  <fix>3d</fix>
</trkpt>
<trkpt lat="33.8106406" lon="-118.3938617">
  <ele>-2.458</ele>
  <time>2026-09-02T22:11:27Z</time>
  <course>27.93</course>
  <speed>0.03</speed>
  <fix>3d</fix>
</trkpt>
<trkpt lat="33.8106408" lon="-118.3938616">
  <ele>-2.39</ele>
  <time>2026-09-02T22:11:27Z</time>
  <course>58.71</course>
  <speed>0.0</speed>
  <fix>3d</fix>
</trkpt>
<trkpt lat="33.8106406" lon="-118.3938617">
  <ele>-2.458</ele>
  <time>2026-09-02T22:11:27Z</time>
  <course>26.88</course>
  <speed>0.03</speed>
  <fix>3d</fix>
</trkpt>
<trkpt lat="33.8106408" lon="-118.3938616">
  <ele>-2.39</ele>
  <time>2026-09-02T22:11:27Z</time>
  <course>53.66</course>
  <speed>0.0</speed>
  <fix>3d</fix>
</trkpt>
<trkpt lat="33.8106406" lon="-118.3938617">
  <ele>-2.457</ele>
  <time>2026-09-02T22:11:27Z</time>
  <course>25.84</course>
  <speed>0.03</speed>
  <fix>3d</fix>
</trkpt>
<trkpt lat="33.8106408" lon="-118.3938616">
  <ele>-2.39</ele>
  <time>2026-09-02T22:11:27Z</time>
  <course>53.66</course>
  <speed>0.0</speed>
  <fix>3d</fix>
</trkpt>
<trkpt lat="33.8106406" lon="-118.3938617">
  <ele>-2.456</ele>
  <time>2026-09-02T22:11:27Z</time>
  <course>24.8</course>
  <speed>0.03</speed>
  <fix>3d</fix>
</trkpt>
<trkpt lat="33.8106408" lon="-118.3938616">
  <ele>-2.39</ele>
  <time>2026-09-02T22:11:27Z</time>
  <course>53.58</course>
  <speed>0.0</speed>
  <fix>3d</fix>
</trkpt>
<trkpt lat="33.8106406" lon="-118.3938617">
  <ele>-2.455</ele>
  <time>2026-09-02T22:11:27Z</time>
  <course>23.76</course>
  <speed>0.0316227766016838</speed>
  <fix>3d</fix>
</trkpt>
<trkpt lat="33.8106408" lon="-118.3938616">
  <ele>-2.39</ele>
  <time>2026-09-02T22:11:27Z</time>
  <course>53.58</course>
  <speed>0.0</speed>
  <fix>3d</fix>
</trkpt>
<trkpt lat="33.8106406" lon="-118.3938617">
  <ele>-2.456</ele>
  <time>2026-09-02T22:11:27Z</time>
  <course>22.72</course>
  <speed>0.03</speed>
  <fix>3d</fix>
</trkpt>
<trkpt lat="33.8106408" lon="-118.3938616">
  <ele>-2.39</ele>
  <time>2026-09-02T22:11:27Z</time>
  <course>57.2</course>
  <speed>0.0</speed>
  <fix>3d</fix>
</trkpt>
<trkpt lat="33.8106406" lon="-118.3938617">
  <ele>-2.457</ele>
  <time>2026-09-02T22:11:27Z</time>
  <course>21.69</course>
  <speed>0.0316227766016838</speed>
  <fix>3d</fix>
</trkpt>
<trkpt lat="33.8106408" lon="-118.3938616">
  <ele>-2.39</ele>
  <time>2026-09-02T22:11:27Z</time>
  <course>57.2</course>
  <speed>0.0</speed>
  <fix>3d</fix>
</trkpt>
<trkpt lat="33.8106406" lon="-118.3938617">
  <ele>-2.458</ele>
  <time>2026-09-02T22:11:27Z</time>
  <course>20.66</course>
  <speed>0.03</speed>
  <fix>3d</fix>
</trkpt>
<trkpt lat="33.8106408" lon="-118.3938616">
  <ele>-2.39</ele>
  <time>2026-09-02T22:11:27Z</time>
  <course>61.72</course>
  <speed>0.0</speed>
  <fix>3d</fix>
</trkpt>
<trkpt lat="33.8106406" lon="-118.3938617">
  <ele>-2.459</ele>
  <time>2026-09-02T22:11:27Z</time>
  <course>19.62</course>
  <speed>0.0316227766016838</speed>
  <fix>3d</fix>
</trkpt>
<trkpt lat="33.8106408" lon="-118.3938616">
  <ele>-2.39</ele>
  <time>2026-09-02T22:11:27Z</time>
  <course>61.72</course>
  <speed>0.0</speed>
  <fix>3d</fix>
</trkpt>
<trkpt lat="33.8106406" lon="-118.3938617">
  <ele>-2.459</ele>
  <time>2026-09-02T22:11:27Z</time>
  <course>18.59</course>
  <speed>0.03</speed>
  <fix>3d</fix>
</trkpt>
<trkpt lat="33.8106408" lon="-118.3938616">
  <ele>-2.39</ele>
  <time>2026-09-02T22:11:27Z</time>
  <course>65.41</course>
  <speed>0.0</speed>
  <fix>3d</fix>
</trkpt>
<trkpt lat="33.8106406" lon="-118.3938617">
  <ele>-2.459</ele>
  <time>2026-09-02T22:11:27Z</time>
  <course>17.56</course>
  <speed>0.0316227766016838</speed>
  <fix>3d</fix>
</trkpt>
<trkpt lat="33.8106408" lon="-118.3938616">
  <ele>-2.39</ele>
  <time>2026-09-02T22:11:27Z</time>
  <course>65.41</course>
  <speed>0.0</speed>
  <fix>3d</fix>
</trkpt>
<trkpt lat="33.8106406" lon="-118.3938617">
  <ele>-2.458</ele>
  <time>2026-09-02T22:11:27Z</time>
  <course>16.53</course>
  <speed>0.03</speed>
  <fix>3d</fix>
</trkpt>
<trkpt lat="33.8106408" lon="-118.3938616">
  <ele>-2.39</ele>
  <time>2026-09-02T22:11:27Z</time>
  <course>67.98</course>
  <speed>0.0</speed>
  <fix>3d</fix>
</trkpt>
<trkpt lat="33.8106406" lon="-118.3938617">
  <ele>-2.457</ele>
  <time>2026-09-02T22:11:27Z</time>
  <course>15.5</course>
  <speed>0.0316227766016838</speed>
  <fix>3d</fix>
</trkpt>
<trkpt lat="33.8106408" lon="-118.3938616">
  <ele>-2.39</ele>
  <time>2026-09-02T22:11:27Z</time>
  <course>67.98</course>
  <speed>0.0</speed>
  <fix>3d</fix>
</trkpt>
<trkpt lat="33.8106406" lon="-118.3938617">
  <ele>-2.457</ele>
  <time>2026-09-02T22:11:27Z</time>
  <course>14.47</course>
  <speed>0.0316227766016838</speed>
  <fix>3d</fix>
</trkpt>
<trkpt lat="33.8106408" lon="-118.3938616">
  <ele>-2.39</ele>
  <time>2026-09-02T22:11:27Z</time>
  <course>70.32</course>
  <speed>0.0</speed>
  <fix>3d</fix>
</trkpt>
<trkpt lat="33.8106406" lon="-118.3938617">
  <ele>-2.457</ele>
  <time>2026-09-02T22:11:27Z</time>
  <course>13.57</course>
  <speed>0.0316227766016838</speed>
  <fix>3d</fix>
</trkpt>
<trkpt lat="33.8106408" lon="-118.3938616">
  <ele>-2.39</ele>
  <time>2026-09-02T22:11:27Z</time>
  <course>70.32</course>
  <speed>0.0</speed>
  <fix>3d</fix>
</trkpt>
<trkpt lat="33.8106406" lon="-118.3938617">
  <ele>-2.457</ele>
  <time>2026-09-02T22:11:27Z</time>
  <course>12.92</course>
  <speed>0.0316227766016838</speed>
  <fix>3d</fix>
</trkpt>
<trkpt lat="33.8106408" lon="-118.3938616">
  <ele>-2.39</ele>
  <time>2026-09-02T22:11:27Z</time>
  <course>76.1</course>
  <speed>0.0</speed>
  <fix>3d</fix>
</trkpt>
<trkpt lat="33.8106406" lon="-118.3938617">
  <ele>-2.457</ele>
  <time>2026-09-02T22:11:27Z</time>
  <course>12.42</course>
  <speed>0.0316227766016838</speed>
  <fix>3d</fix>
</trkpt>
<trkpt lat="33.8106408" lon="-118.3938616">
  <ele>-2.39</ele>
  <time>2026-09-02T22:11:27Z</time>
  <course>76.1</course>
  <speed>0.0</speed>
  <fix>3d</fix>
</trkpt>
<trkpt lat="33.8106406" lon="-118.3938617">
  <ele>-2.457</ele>
  <time>2026-09-02T22:11:27Z</time>
  <course>12.02</course>
  <speed>0.0316227766016838</speed>
  <fix>3d</fix>
</trkpt>
<trkpt lat="33.8106408" lon="-118.3938616">
  <ele>-2.39</ele>
  <time>2026-09-02T22:11:27Z</time>
  <course>80.51</course>
  <speed>0.0</speed>
  <fix>3d</fix>
</trkpt>
<trkpt lat="33.8106406" lon="-118.3938617">
  <ele>-2.457</ele>
  <time>2026-09-02T22:11:27Z</time>
  <course>11.67</course>
  <speed>0.0316227766016838</speed>
  <fix>3d</fix>
</trkpt>
<trkpt lat="33.8106408" lon="-118.3938616">
  <ele>-2.39</ele>
  <time>2026-09-02T22:11:27Z</time>
  <course>80.51</course>
  <speed>0.0</speed>
  <fix>3d</fix>
</trkpt>
<trkpt lat="33.8106406" lon="-118.3938617">
  <ele>-2.457</ele>
  <time>2026-09-02T22:11:27Z</time>
  <course>11.38</course>
  <speed>0.0316227766016838</speed>
  <fix>3d</fix>
</trkpt>
<trkpt lat="33.8106408" lon="-118.3938615">
  <ele>-2.39</ele>
  <time>2026-09-02T22:11:27Z</time>
  <course>80.49</course>
  <speed>0.0</speed>
  <fix>3d</fix>
</trkpt>
<trkpt lat="33.8106406" lon="-118.3938617">
  <ele>-2.457</ele>
  <time>2026-09-02T22:11:27Z</time>
  <course>11.12</course>
  <speed>0.0316227766016838</speed>
  <fix>3d</fix>
</trkpt>
<trkpt lat="33.8106408" lon="-118.3938615">
  <ele>-2.39</ele>
  <time>2026-09-02T22:11:27Z</time>
  <course>80.49</course>
  <speed>0.0</speed>
  <fix>3d</fix>
</trkpt>
<trkpt lat="33.8106406" lon="-118.3938617">
  <ele>-2.457</ele>
  <time>2026-09-02T22:11:27Z</time>
  <course>10.89</course>
  <speed>0.0316227766016838</speed>
  <fix>3d</fix>
</trkpt>
<trkpt lat="33.8106408" lon="-118.3938615">
  <ele>-2.39</ele>
  <time>2026-09-02T22:11:27Z</time>
  <course>80.43</course>
  <speed>0.0</speed>
  <fix>3d</fix>
</trkpt>
<trkpt lat="33.8106406" lon="-118.3938617">
  <ele>-2.457</ele>
  <time>2026-09-02T22:11:27Z</time>
  <course>10.68</course>
  <speed>0.0316227766016838</speed>
  <fix>3d</fix>
</trkpt>
<trkpt lat="33.8106408" lon="-118.3938615">
  <ele>-2.39</ele>
  <time>2026-09-02T22:11:27Z</time>
  <course>80.43</course>
  <speed>0.0</speed>
  <fix>3d</fix>
</trkpt>
<trkpt lat="33.8106406" lon="-118.3938617">
  <ele>-2.457</ele>
  <time>2026-09-02T22:11:27Z</time>
  <course>10.49</course>
  <speed>0.0316227766016838</speed>
  <fix>3d</fix>
</trkpt>
<trkpt lat="33.8106408" lon="-118.3938615">
  <ele>-2.39</ele>
  <time>2026-09-02T22:11:27Z</time>
  <course>80.34</course>
  <speed>0.0</speed>
  <fix>3d</fix>
</trkpt>
<trkpt lat="33.8106406" lon="-118.3938617">
  <ele>-2.459</ele>
  <time>2026-09-02T22:11:27Z</time>
  <course>10.31</course>
  <speed>0.0316227766016838</speed>
  <fix>3d</fix>
</trkpt>
<trkpt lat="33.8106408" lon="-118.3938615">
  <ele>-2.39</ele>
  <time>2026-09-02T22:11:27Z</time>
  <course>80.34</course>
  <speed>0.0</speed>
  <fix>3d</fix>
</trkpt>
<trkpt lat="33.8106406" lon="-118.3938617">
  <ele>-2.459</ele>
  <time>2026-09-02T22:11:27Z</time>
  <course>10.15</course>
  <speed>0.0316227766016838</speed>
  <fix>3d</fix>
</trkpt>
<trkpt lat="33.8106408" lon="-118.3938615">
  <ele>-2.39</ele>
  <time>2026-09-02T22:11:27Z</time>
  <course>80.23</course>
  <speed>0.0</speed>
  <fix>3d</fix>
</trkpt>
<trkpt lat="33.8106406" lon="-118.3938617">
  <ele>-2.459</ele>
  <time>2026-09-02T22:11:27Z</time>
  <course>10.0</course>
  <speed>0.03</speed>
  <fix>3d</fix>
</trkpt>
<trkpt lat="33.8106408" lon="-118.3938615">
  <ele>-2.39</ele>
  <time>2026-09-02T22:11:27Z</time>
  <course>80.23</course>
  <speed>0.0</speed>
  <fix>3d</fix>
</trkpt>
<trkpt lat="33.8106406" lon="-118.3938617">
  <ele>-2.459</ele>
  <time>2026-09-02T22:11:27Z</time>
  <course>9.86</course>
  <speed>0.03</speed>
  <fix>3d</fix>
</trkpt>
<trkpt lat="33.8106408" lon="-118.3938615">
  <ele>-2.39</ele>
  <time>2026-09-02T22:11:27Z</time>
  <course>80.12</course>
  <speed>0.0</speed>
  <fix>3d</fix>
</trkpt>
<trkpt lat="33.8106406" lon="-118.3938617">
  <ele>-2.458</ele>
  <time>2026-09-02T22:11:27Z</time>
  <course>9.73</course>
  <speed>0.03</speed>
  <fix>3d</fix>
</trkpt>
<trkpt lat="33.8106408" lon="-118.3938615">
  <ele>-2.39</ele>
  <time>2026-09-02T22:11:27Z</time>
  <course>80.12</course>
  <speed>0.0</speed>
  <fix>3d</fix>
</trkpt>
<trkpt lat="33.8106406" lon="-118.3938616">
  <ele>-2.457</ele>
  <time>2026-09-02T22:11:27Z</time>
  <course>9.6</course>
  <speed>0.03</speed>
  <fix>3d</fix>
</trkpt>
<trkpt lat="33.8106408" lon="-118.3938615">
  <ele>-2.39</ele>
  <time>2026-09-02T22:11:27Z</time>
  <course>80.07</course>
  <speed>0.0</speed>
  <fix>3d</fix>
</trkpt>
<trkpt lat="33.8106406" lon="-118.3938616">
  <ele>-2.457</ele>
  <time>2026-09-02T22:11:27Z</time>
  <course>9.48</course>
  <speed>0.03</speed>
  <fix>3d</fix>
</trkpt>
<trkpt lat="33.8106408" lon="-118.3938615">
  <ele>-2.39</ele>
  <time>2026-09-02T22:11:27Z</time>
  <course>80.07</course>
  <speed>0.0</speed>
  <fix>3d</fix>
</trkpt>
<trkpt lat="33.8106406" lon="-118.3938616">
  <ele>-2.457</ele>
  <time>2026-09-02T22:11:27Z</time>
  <course>9.37</course>
  <speed>0.03</speed>
  <fix>3d</fix>
</trkpt>
<trkpt lat="33.8106408" lon="-118.3938615">
  <ele>-2.39</ele>
  <time>2026-09-02T22:11:27Z</time>
  <course>80.11</course>
  <speed>0.0</speed>
  <fix>3d</fix>
</trkpt>
<trkpt lat="33.8106406" lon="-118.3938616">
  <ele>-2.458</ele>
  <time>2026-09-02T22:11:27Z</time>
  <course>9.26</course>
  <speed>0.03</speed>
  <fix>3d</fix>
</trkpt>
<trkpt lat="33.8106408" lon="-118.3938615">
  <ele>-2.39</ele>
  <time>2026-09-02T22:11:27Z</time>
  <course>80.11</course>
  <speed>0.0</speed>
  <fix>3d</fix>
</trkpt>
<trkpt lat="33.8106406" lon="-118.3938616">
  <ele>-2.458</ele>
  <time>2026-09-02T22:11:27Z</time>
  <course>9.16</course>
  <speed>0.03</speed>
  <fix>3d</fix>
</trkpt>
<trkpt lat="33.8106408" lon="-118.3938614">
  <ele>-2.39</ele>
  <time>2026-09-02T22:11:27Z</time>
  <course>80.15</course>
  <speed>0.0</speed>
  <fix>3d</fix>
</trkpt>
<trkpt lat="33.8106406" lon="-118.3938616">
  <ele>-2.458</ele>
  <time>2026-09-02T22:11:27Z</time>
  <course>9.06</course>
  <speed>0.03</speed>
  <fix>3d</fix>
</trkpt>
<trkpt lat="33.8106408" lon="-118.3938614">
  <ele>-2.39</ele>
  <time>2026-09-02T22:11:27Z</time>
  <course>80.15</course>
  <speed>0.0</speed>
  <fix>3d</fix>
</trkpt>
<trkpt lat="33.8106406" lon="-118.3938616">
  <ele>-2.457</ele>
  <time>2026-09-02T22:11:27Z</time>
  <course>8.9</course>
  <speed>0.03</speed>
  <fix>3d</fix>
</trkpt>
<trkpt lat="33.8106408" lon="-118.3938614">
  <ele>-2.39</ele>
  <time>2026-09-02T22:11:27Z</time>
  <course>81.63</course>
  <speed>0.0</speed>
  <fix>3d</fix>
</trkpt>
<trkpt lat="33.8106406" lon="-118.3938616">
  <ele>-2.458</ele>
  <time>2026-09-02T22:11:27Z</time>
  <course>8.54</course>
  <speed>0.0316227766016838</speed>
  <fix>3d</fix>
</trkpt>
<trkpt lat="33.8106408" lon="-118.3938614">
  <ele>-2.39</ele>
  <time>2026-09-02T22:11:27Z</time>
  <course>81.63</course>
  <speed>0.0</speed>
  <fix>3d</fix>
</trkpt>
<trkpt lat="33.8106406" lon="-118.3938616">
  <ele>-2.46</ele>
  <time>2026-09-02T22:11:27Z</time>
  <course>8.01</course>
  <speed>0.0316227766016838</speed>
  <fix>3d</fix>
</trkpt>
<trkpt lat="33.8106408" lon="-118.3938614">
  <ele>-2.4</ele>
  <time>2026-09-02T22:11:27Z</time>
  <course>89.71</course>
  <speed>0.0</speed>
  <fix>3d</fix>
</trkpt>
<trkpt lat="33.8106406" lon="-118.3938616">
  <ele>-2.462</ele>
  <time>2026-09-02T22:11:27Z</time>
  <course>7.36</course>
  <speed>0.03605551275463989</speed>
  <fix>3d</fix>
</trkpt>
<trkpt lat="33.8106408" lon="-118.3938614">
  <ele>-2.4</ele>
  <time>2026-09-02T22:11:27Z</time>
  <course>89.71</course>
  <speed>0.0</speed>
  <fix>3d</fix>
</trkpt>
<trkpt lat="33.8106406" lon="-118.3938616">
  <ele>-2.463</ele>
  <time>2026-09-02T22:11:27Z</time>
  <course>6.65</course>
  <speed>0.03605551275463989</speed>
  <fix>3d</fix>
</trkpt>
<trkpt lat="33.8106408" lon="-118.3938614">
  <ele>-2.4</ele>
  <time>2026-09-02T22:11:27Z</time>
  <course>264.48</course>
  <speed>0.0</speed>
  <fix>3d</fix>
</trkpt>
<trkpt lat="33.8106406" lon="-118.3938616">
  <ele>-2.462</ele>
  <time>2026-09-02T22:11:27Z</time>
  <course>5.86</course>
  <speed>0.03605551275463989</speed>
  <fix>3d</fix>
</trkpt>
<trkpt lat="33.8106408" lon="-118.3938614">
  <ele>-2.4</ele>
  <time>2026-09-02T22:11:27Z</time>
  <course>264.48</course>
  <speed>0.0</speed>
  <fix>3d</fix>
</trkpt>
<trkpt lat="33.8106406" lon="-118.3938616">
  <ele>-2.461</ele>
  <time>2026-09-02T22:11:27Z</time>
  <course>4.99</course>
  <speed>0.03605551275463989</speed>
  <fix>3d</fix>
</trkpt>
<trkpt lat="33.8106408" lon="-118.3938614">
  <ele>-2.4</ele>
  <time>2026-09-02T22:11:27Z</time>
  <course>262.38</course>
  <speed>0.01</speed>
  <fix>3d</fix>
</trkpt>
<trkpt lat="33.8106406" lon="-118.3938616">
  <ele>-2.459</ele>
  <time>2026-09-02T22:11:27Z</time>
  <course>4.06</course>
  <speed>0.03605551275463989</speed>
  <fix>3d</fix>
</trkpt>
<trkpt lat="33.8106408" lon="-118.3938614">
  <ele>-2.4</ele>
  <time>2026-09-02T22:11:27Z</time>
  <course>262.38</course>
  <speed>0.01</speed>
  <fix>3d</fix>
</trkpt>
<trkpt lat="33.8106406" lon="-118.3938616">
  <ele>-2.457</ele>
  <time>2026-09-02T22:11:27Z</time>
  <course>3.2</course>
  <speed>0.03605551275463989</speed>
  <fix>3d</fix>
</trkpt>
<trkpt lat="33.8106408" lon="-118.3938614">
  <ele>-2.39</ele>
  <time>2026-09-02T22:11:27Z</time>
  <course>259.24</course>
  <speed>0.01</speed>
  <fix>3d</fix>
</trkpt>
<trkpt lat="33.8106406" lon="-118.3938616">
  <ele>-2.456</ele>
  <time>2026-09-02T22:11:27Z</time>
  <course>2.58</course>
  <speed>0.03605551275463989</speed>
  <fix>3d</fix>
</trkpt>
<trkpt lat="33.8106408" lon="-118.3938614">
  <ele>-2.39</ele>
  <time>2026-09-02T22:11:27Z</time>
  <course>259.24</course>
  <speed>0.01</speed>
  <fix>3d</fix>
</trkpt>
<trkpt lat="33.8106406" lon="-118.3938616">
  <ele>-2.456</ele>
  <time>2026-09-02T22:11:27Z</time>
  <course>2.1</course>
  <speed>0.03605551275463989</speed>
  <fix>3d</fix>
</trkpt>
<trkpt lat="33.8106408" lon="-118.3938614">
  <ele>-2.39</ele>
  <time>2026-09-02T22:11:27Z</time>
  <course>259.31</course>
  <speed>0.01</speed>
  <fix>3d</fix>
</trkpt>
<trkpt lat="33.8106406" lon="-118.3938616">
  <ele>-2.457</ele>
  <time>2026-09-02T22:11:27Z</time>
  <course>1.7</course>
  <speed>0.03605551275463989</speed>
  <fix>3d</fix>
</trkpt>
<trkpt lat="33.8106408" lon="-118.3938614">
  <ele>-2.39</ele>
  <time>2026-09-02T22:11:27Z</time>
  <course>259.31</course>
  <speed>0.01</speed>
  <fix>3d</fix>
</trkpt>
<trkpt lat="33.8106406" lon="-118.3938616">
  <ele>-2.457</ele>
  <time>2026-09-02T22:11:27Z</time>
  <course>1.37</course>
  <speed>0.03605551275463989</speed>
  <fix>3d</fix>
</trkpt>
<trkpt lat="33.8106408" lon="-118.3938615">
  <ele>-2.39</ele>
  <time>2026-09-02T22:11:27Z</time>
  <course>259.77</course>
  <speed>0.01</speed>
  <fix>3d</fix>
</trkpt>
<trkpt lat="33.8106406" lon="-118.3938616">
  <ele>-2.458</ele>
  <time>2026-09-02T22:11:27Z</time>
  <course>1.08</course>
  <speed>0.03605551275463989</speed>
  <fix>3d</fix>
</trkpt>
<trkpt lat="33.8106408" lon="-118.3938615">
  <ele>-2.39</ele>
  <time>2026-09-02T22:11:27Z</time>
  <course>259.77</course>
  <speed>0.01</speed>
  <fix>3d</fix>
</trkpt>
<trkpt lat="33.8106406" lon="-118.3938616">
  <ele>-2.457</ele>
  <time>2026-09-02T22:11:27Z</time>
  <course>0.82</course>
  <speed>0.0316227766016838</speed>
  <fix>3d</fix>
</trkpt>
<trkpt lat="33.8106408" lon="-118.3938615">
  <ele>-2.39</ele>
  <time>2026-09-02T22:11:27Z</time>
  <course>259.58</course>
  <speed>0.01</speed>
  <fix>3d</fix>
</trkpt>
<trkpt lat="33.8106406" lon="-118.3938616">
  <ele>-2.457</ele>
  <time>2026-09-02T22:11:27Z</time>
  <course>0.59</course>
  <speed>0.0316227766016838</speed>
  <fix>3d</fix>
</trkpt>
<trkpt lat="33.8106408" lon="-118.3938615">
  <ele>-2.39</ele>
  <time>2026-09-02T22:11:27Z</time>
  <course>259.58</course>
  <speed>0.01</speed>
  <fix>3d</fix>
</trkpt>
<trkpt lat="33.8106406" lon="-118.3938616">
  <ele>-2.458</ele>
  <time>2026-09-02T22:11:27Z</time>
  <course>0.39</course>
  <speed>0.0316227766016838</speed>
  <fix>3d</fix>
</trkpt>
<trkpt lat="33.8106408" lon="-118.3938615">
  <ele>-2.39</ele>
  <time>2026-09-02T22:11:27Z</time>
  <course>259.41</course>
  <speed>0.01</speed>
  <fix>3d</fix>
</trkpt>
<trkpt lat="33.8106406" lon="-118.3938616">
  <ele>-2.458</ele>
  <time>2026-09-02T22:11:27Z</time>
  <course>0.2</course>
  <speed>0.0316227766016838</speed>
  <fix>3d</fix>
</trkpt>
<trkpt lat="33.8106408" lon="-118.3938615">
  <ele>-2.39</ele>
  <time>2026-09-02T22:11:27Z</time>
  <course>259.41</course>
  <speed>0.01</speed>
  <fix>3d</fix>
</trkpt>
<trkpt lat="33.8106406" lon="-118.3938616">
  <ele>-2.458</ele>
  <time>2026-09-02T22:11:27Z</time>
  <course>0.03</course>
  <speed>0.0316227766016838</speed>
  <fix>3d</fix>
</trkpt>
<trkpt lat="33.8106408" lon="-118.3938616">
  <ele>-2.39</ele>
  <time>2026-09-02T22:11:27Z</time>
  <course>259.25</course>
  <speed>0.01</speed>
  <fix>3d</fix>
</trkpt>
<trkpt lat="33.8106406" lon="-118.3938617">
  <ele>-2.457</ele>
  <time>2026-09-02T22:11:27Z</time>
  <course>359.87</course>
  <speed>0.0316227766016838</speed>
  <fix>3d</fix>
</trkpt>
<trkpt lat="33.8106408" lon="-118.3938616">
  <ele>-2.39</ele>
  <time>2026-09-02T22:11:27Z</time>
  <course>259.25</course>
  <speed>0.01</speed>
  <fix>3d</fix>
</trkpt>
<trkpt lat="33.8106406" lon="-118.3938617">
  <ele>-2.456</ele>
  <time>2026-09-02T22:11:27Z</time>
  <course>359.73</course>
  <speed>0.022360679774997897</speed>
  <fix>3d</fix>
</trkpt>
<trkpt lat="33.8106408" lon="-118.3938616">
  <ele>-2.4</ele>
  <time>2026-09-02T22:11:27Z</time>
  <course>259.07</course>
  <speed>0.01</speed>
  <fix>3d</fix>
</trkpt>
<trkpt lat="33.8106406" lon="-118.3938617">
  <ele>-2.455</ele>
  <time>2026-09-02T22:11:27Z</time>
  <course>359.58</course>
  <speed>0.022360679774997897</speed>
  <fix>3d</fix>
</trkpt>
<trkpt lat="33.8106408" lon="-118.3938616">
  <ele>-2.4</ele>
  <time>2026-09-02T22:11:27Z</time>
  <course>259.07</course>
  <speed>0.01</speed>
  <fix>3d</fix>
</trkpt>
<trkpt lat="33.8106406" lon="-118.3938617">
  <ele>-2.456</ele>
  <time>2026-09-02T22:11:27Z</time>
  <course>359.45</course>
  <speed>0.022360679774997897</speed>
  <fix>3d</fix>
</trkpt>
<trkpt lat="33.8106408" lon="-118.3938616">
  <ele>-2.4</ele>
  <time>2026-09-02T22:11:27Z</time>
  <course>258.88</course>
  <speed>0.01</speed>
  <fix>3d</fix>
</trkpt>
<trkpt lat="33.8106406" lon="-118.3938617">
  <ele>-2.457</ele>
  <time>2026-09-02T22:11:27Z</time>
  <course>359.33</course>
  <speed>0.022360679774997897</speed>
  <fix>3d</fix>
</trkpt>
<trkpt lat="33.8106408" lon="-118.3938616">
  <ele>-2.4</ele>
  <time>2026-09-02T22:11:27Z</time>
  <course>258.88</course>
  <speed>0.01</speed>
  <fix>3d</fix>
</trkpt>
<trkpt lat="33.8106406" lon="-118.3938617">
  <ele>-2.459</ele>
  <time>2026-09-02T22:11:27Z</time>
  <course>359.21</course>
  <speed>0.022360679774997897</speed>
  <fix>3d</fix>
</trkpt>
<trkpt lat="33.8106408" lon="-118.3938616">
  <ele>-2.4</ele>
  <time>2026-09-02T22:11:27Z</time>
  <course>258.68</course>
  <speed>0.01</speed>
  <fix>3d</fix>
</trkpt>
<trkpt lat="33.8106406" lon="-118.3938617">
  <ele>-2.461</ele>
  <time>2026-09-02T22:11:27Z</time>
  <course>359.1</course>
  <speed>0.02</speed>
  <fix>3d</fix>
</trkpt>
<trkpt lat="33.8106408" lon="-118.3938616">
  <ele>-2.4</ele>
  <time>2026-09-02T22:11:27Z</time>
  <course>258.68</course>
  <speed>0.01</speed>
  <fix>3d</fix>
</trkpt>
<trkpt lat="33.8106406" lon="-118.3938617">
  <ele>-2.462</ele>
  <time>2026-09-02T22:11:27Z</time>
  <course>358.99</course>
  <speed>0.02</speed>
  <fix>3d</fix>
</trkpt>
<trkpt lat="33.8106408" lon="-118.3938617">
  <ele>-2.4</ele>
  <time>2026-09-02T22:11:27Z</time>
  <course>258.51</course>
  <speed>0.01</speed>
  <fix>3d</fix>
</trkpt>
<trkpt lat="33.8106406" lon="-118.3938617">
  <ele>-2.463</ele>
  <time>2026-09-02T22:11:27Z</time>
  <course>358.89</course>
  <speed>0.02</speed>
  <fix>3d</fix>
</trkpt>
<trkpt lat="33.8106408" lon="-118.3938617">
  <ele>-2.4</ele>
  <time>2026-09-02T22:11:27Z</time>
  <course>258.51</course>
  <speed>0.01</speed>
  <fix>3d</fix>
</trkpt>
<trkpt lat="33.8106406" lon="-118.3938617">
  <ele>-2.463</ele>
  <time>2026-09-02T22:11:27Z</time>
  <course>358.86</course>
  <speed>0.02</speed>
  <fix>3d</fix>
</trkpt>
<trkpt lat="33.8106408" lon="-118.3938618">
  <ele>-2.4</ele>
  <time>2026-09-02T22:11:27Z</time>
  <course>257.55</course>
  <speed>0.01</speed>
  <fix>3d</fix>
</trkpt>
<trkpt lat="33.8106406" lon="-118.3938617">
  <ele>-2.463</ele>
  <time>2026-09-02T22:11:27Z</time>
  <course>359.1</course>
  <speed>0.03</speed>
  <fix>3d</fix>
</trkpt>
<trkpt lat="33.8106408" lon="-118.3938618">
  <ele>-2.4</ele>
  <time>2026-09-02T22:11:27Z</time>
  <course>257.55</course>
  <speed>0.01</speed>
  <fix>3d</fix>
</trkpt>
<trkpt lat="33.8106406" lon="-118.3938617">
  <ele>-2.463</ele>
  <time>2026-09-02T22:11:27Z</time>
  <course>359.7</course>
  <speed>0.03</speed>
  <fix>3d</fix>
</trkpt>
<trkpt lat="33.8106408" lon="-118.3938618">
  <ele>-2.4</ele>
  <time>2026-09-02T22:11:27Z</time>
  <course>242.84</course>
  <speed>0.01</speed>
  <fix>3d</fix>
</trkpt>
<trkpt lat="33.8106406" lon="-118.3938617">
  <ele>-2.463</ele>
  <time>2026-09-02T22:11:27Z</time>
  <course>0.5</course>
  <speed>0.03</speed>
  <fix>3d</fix>
</trkpt>
<trkpt lat="33.8106408" lon="-118.3938618">
  <ele>-2.4</ele>
  <time>2026-09-02T22:11:27Z</time>
  <course>242.84</course>
  <speed>0.01</speed>
  <fix>3d</fix>
</trkpt>
<trkpt lat="33.8106406" lon="-118.3938617">
  <ele>-2.463</ele>
  <time>2026-09-02T22:11:27Z</time>
  <course>1.45</course>
  <speed>0.03</speed>
  <fix>3d</fix>
</trkpt>
<trkpt lat="33.8106408" lon="-118.3938618">
  <ele>-2.39</ele>
  <time>2026-09-02T22:11:27Z</time>
  <course>220.38</course>
  <speed>0.01</speed>
  <fix>3d</fix>
</trkpt>
<trkpt lat="33.8106406" lon="-118.3938617">
  <ele>-2.462</ele>
  <time>2026-09-02T22:11:27Z</time>
  <course>2.44</course>
  <speed>0.03</speed>
  <fix>3d</fix>
</trkpt>
<trkpt lat="33.8106408" lon="-118.3938618">
  <ele>-2.39</ele>
  <time>2026-09-02T22:11:27Z</time>
  <course>220.38</course>
  <speed>0.01</speed>
  <fix>3d</fix>
</trkpt>
<trkpt lat="33.8106406" lon="-118.3938617">
  <ele>-2.461</ele>
  <time>2026-09-02T22:11:27Z</time>
  <course>3.45</course>
  <speed>0.03</speed>
  <fix>3d</fix>
</trkpt>
<trkpt lat="33.8106408" lon="-118.3938618">
  <ele>-2.39</ele>
  <time>2026-09-02T22:11:27Z</time>
  <course>210.62</course>
  <speed>0.01</speed>
  <fix>3d</fix>
</trkpt>
<trkpt lat="33.8106406" lon="-118.3938618">
  <ele>-2.459</ele>
  <time>2026-09-02T22:11:28Z</time>
  <course>4.48</course>
  <speed>0.03</speed>
  <fix>3d</fix>
</trkpt>
<trkpt lat="33.8106408" lon="-118.3938618">
  <ele>-2.39</ele>
  <time>2026-09-02T22:11:28Z</time>
  <course>210.62</course>
  <speed>0.01</speed>
  <fix>3d</fix>
</trkpt>
<trkpt lat="33.8106406" lon="-118.3938618">
  <ele>-2.456</ele>
  <time>2026-09-02T22:11:28Z</time>
  <course>5.51</course>
  <speed>0.03</speed>
  <fix>3d</fix>
</trkpt>
<trkpt lat="33.8106408" lon="-118.3938619">
  <ele>-2.39</ele>
  <time>2026-09-02T22:11:28Z</time>
  <course>208.2</course>
  <speed>0.01</speed>
  <fix>3d</fix>
</trkpt>
<trkpt lat="33.8106406" lon="-118.3938618">
  <ele>-2.455</ele>
  <time>2026-09-02T22:11:28Z</time>
  <course>6.53</course>
  <speed>0.03</speed>
  <fix>3d</fix>
</trkpt>
<trkpt lat="33.8106408" lon="-118.3938619">
  <ele>-2.39</ele>
  <time>2026-09-02T22:11:28Z</time>
  <course>208.2</course>
  <speed>0.01</speed>
  <fix>3d</fix>
</trkpt>
<trkpt lat="33.8106406" lon="-118.3938618">
  <ele>-2.453</ele>
  <time>2026-09-02T22:11:28Z</time>
  <course>7.58</course>
  <speed>0.03</speed>
  <fix>3d</fix>
</trkpt>
<trkpt lat="33.8106408" lon="-118.3938619">
  <ele>-2.39</ele>
  <time>2026-09-02T22:11:28Z</time>
  <course>208.41</course>
  <speed>0.01</speed>
  <fix>3d</fix>
</trkpt>
<trkpt lat="33.8106406" lon="-118.3938618">
  <ele>-2.452</ele>
  <time>2026-09-02T22:11:28Z</time>
  <course>8.62</course>
  <speed>0.03</speed>
  <fix>3d</fix>
</trkpt>
<trkpt lat="33.8106408" lon="-118.3938619">
  <ele>-2.39</ele>
  <time>2026-09-02T22:11:28Z</time>
  <course>208.41</course>
  <speed>0.01</speed>
  <fix>3d</fix>
</trkpt>
<trkpt lat="33.8106406" lon="-118.3938618">
  <ele>-2.452</ele>
  <time>2026-09-02T22:11:28Z</time>
  <course>9.67</course>
  <speed>0.03</speed>
  <fix>3d</fix>
</trkpt>
<trkpt lat="33.8106408" lon="-118.3938619">
  <ele>-2.39</ele>
  <time>2026-09-02T22:11:28Z</time>
  <course>206.43</course>
  <speed>0.01</speed>
  <fix>3d</fix>
</trkpt>
<trkpt lat="33.8106406" lon="-118.3938618">
  <ele>-2.451</ele>
  <time>2026-09-02T22:11:28Z</time>
  <course>10.71</course>
  <speed>0.0316227766016838</speed>
  <fix>3d</fix>
</trkpt>
<trkpt lat="33.8106408" lon="-118.3938619">
  <ele>-2.39</ele>
  <time>2026-09-02T22:11:28Z</time>
  <course>206.43</course>
  <speed>0.01</speed>
  <fix>3d</fix>
</trkpt>
<trkpt lat="33.8106406" lon="-118.3938618">
  <ele>-2.453</ele>
  <time>2026-09-02T22:11:28Z</time>
  <course>11.77</course>
  <speed>0.022360679774997897</speed>
  <fix>3d</fix>
</trkpt>
<trkpt lat="33.8106408" lon="-118.3938619">
  <ele>-2.39</ele>
  <time>2026-09-02T22:11:28Z</time>
  <course>203.0</course>
  <speed>0.01</speed>
  <fix>3d</fix>
</trkpt>
<trkpt lat="33.8106406" lon="-118.3938618">
  <ele>-2.455</ele>
  <time>2026-09-02T22:11:28Z</time>
  <course>12.81</course>
  <speed>0.0316227766016838</speed>
  <fix>3d</fix>
</trkpt>
<trkpt lat="33.8106408" lon="-118.3938619">
  <ele>-2.39</ele>
  <time>2026-09-02T22:11:28Z</time>
  <course>203.0</course>
  <speed>0.01</speed>
  <fix>3d</fix>
</trkpt>
<trkpt lat="33.8106406" lon="-118.3938618">
  <ele>-2.458</ele>
  <time>2026-09-02T22:11:28Z</time>
  <course>13.85</course>
  <speed>0.022360679774997897</speed>
  <fix>3d</fix>
</trkpt>
<trkpt lat="33.8106407" lon="-118.3938619">
  <ele>-2.39</ele>
  <time>2026-09-02T22:11:28Z</time>
  <course>200.27</course>
  <speed>0.01</speed>
  <fix>3d</fix>
</trkpt>
<trkpt lat="33.8106405" lon="-118.3938618">
  <ele>-2.459</ele>
  <time>2026-09-02T22:11:28Z</time>
  <course>14.91</course>
  <speed>0.022360679774997897</speed>
  <fix>3d</fix>
</trkpt>
<trkpt lat="33.8106407" lon="-118.3938619">
  <ele>-2.39</ele>
  <time>2026-09-02T22:11:28Z</time>
  <course>200.27</course>
  <speed>0.01</speed>
  <fix>3d</fix>
</trkpt>
<trkpt lat="33.8106405" lon="-118.3938618">
  <ele>-2.459</ele>
  <time>2026-09-02T22:11:28Z</time>
  <course>15.89</course>
  <speed>0.022360679774997897</speed>
  <fix>3d</fix>
</trkpt>
<trkpt lat="33.8106407" lon="-118.3938619">
  <ele>-2.39</ele>
  <time>2026-09-02T22:11:28Z</time>
  <course>201.23</course>
  <speed>0.01</speed>
  <fix>3d</fix>
</trkpt>
<trkpt lat="33.8106405" lon="-118.3938618">
  <ele>-2.459</ele>
  <time>2026-09-02T22:11:28Z</time>
  <course>16.62</course>
  <speed>0.022360679774997897</speed>
  <fix>3d</fix>
</trkpt>
<trkpt lat="33.8106407" lon="-118.3938619">
  <ele>-2.39</ele>
  <time>2026-09-02T22:11:28Z</time>
  <course>201.23</course>
  <speed>0.01</speed>
  <fix>3d</fix>
</trkpt>
<trkpt lat="33.8106405" lon="-118.3938618">
  <ele>-2.459</ele>
  <time>2026-09-02T22:11:28Z</time>
  <course>17.16</course>
  <speed>0.022360679774997897</speed>
  <fix>3d</fix>
</trkpt>
<trkpt lat="33.8106407" lon="-118.3938619">
  <ele>-2.4</ele>
  <time>2026-09-02T22:11:28Z</time>
  <course>205.69</course>
  <speed>0.01</speed>
  <fix>3d</fix>
</trkpt>
<trkpt lat="33.8106405" lon="-118.3938618">
  <ele>-2.459</ele>
  <time>2026-09-02T22:11:28Z</time>
  <course>17.59</course>
  <speed>0.022360679774997897</speed>
  <fix>3d</fix>
</trkpt>
<trkpt lat="33.8106407" lon="-118.3938619">
  <ele>-2.4</ele>
  <time>2026-09-02T22:11:28Z</time>
  <course>205.69</course>
  <speed>0.01</speed>
  <fix>3d</fix>
</trkpt>
<trkpt lat="33.8106405" lon="-118.3938618">
  <ele>-2.459</ele>
  <time>2026-09-02T22:11:28Z</time>
  <course>17.95</course>
  <speed>0.022360679774997897</speed>
  <fix>3d</fix>
</trkpt>
<trkpt lat="33.8106407" lon="-118.3938619">
  <ele>-2.4</ele>
  <time>2026-09-02T22:11:28Z</time>
  <course>208.3</course>
  <speed>0.01</speed>
  <fix>3d</fix>
</trkpt>
<trkpt lat="33.8106405" lon="-118.3938618">
  <ele>-2.46</ele>
  <time>2026-09-02T22:11:28Z</time>
  <course>18.26</course>
  <speed>0.022360679774997897</speed>
  <fix>3d</fix>
</trkpt>
<trkpt lat="33.8106407" lon="-118.3938619">
  <ele>-2.4</ele>
  <time>2026-09-02T22:11:28Z</time>
  <course>208.3</course>
  <speed>0.01</speed>
  <fix>3d</fix>
</trkpt>
<trkpt lat="33.8106405" lon="-118.3938618">
  <ele>-2.46</ele>
  <time>2026-09-02T22:11:28Z</time>
  <course>18.53</course>
  <speed>0.022360679774997897</speed>
  <fix>3d</fix>
</trkpt>
<trkpt lat="33.8106407" lon="-118.3938619">
  <ele>-2.4</ele>
  <time>2026-09-02T22:11:28Z</time>
  <course>208.34</course>
  <speed>0.01</speed>
  <fix>3d</fix>
</trkpt>
<trkpt lat="33.8106405" lon="-118.3938618">
  <ele>-2.459</ele>
  <time>2026-09-02T22:11:28Z</time>
  <course>18.77</course>
  <speed>0.022360679774997897</speed>
  <fix>3d</fix>
</trkpt>
<trkpt lat="33.8106407" lon="-118.3938619">
  <ele>-2.4</ele>
  <time>2026-09-02T22:11:28Z</time>
  <course>208.34</course>
  <speed>0.01</speed>
  <fix>3d</fix>
</trkpt>
<trkpt lat="33.8106405" lon="-118.3938618">
  <ele>-2.458</ele>
  <time>2026-09-02T22:11:28Z</time>
  <course>18.99</course>
  <speed>0.022360679774997897</speed>
  <fix>3d</fix>
</trkpt>
<trkpt lat="33.8106407" lon="-118.393862">
  <ele>-2.4</ele>
  <time>2026-09-02T22:11:28Z</time>
  <course>208.36</course>
  <speed>0.01</speed>
  <fix>3d</fix>
</trkpt>
<trkpt lat="33.8106405" lon="-118.3938618">
  <ele>-2.456</ele>
  <time>2026-09-02T22:11:28Z</time>
  <course>19.18</course>
  <speed>0.022360679774997897</speed>
  <fix>3d</fix>
</trkpt>
<trkpt lat="33.8106407" lon="-118.393862">
  <ele>-2.4</ele>
  <time>2026-09-02T22:11:28Z</time>
  <course>208.36</course>
  <speed>0.01</speed>
  <fix>3d</fix>
</trkpt>
<trkpt lat="33.8106405" lon="-118.3938618">
  <ele>-2.454</ele>
  <time>2026-09-02T22:11:28Z</time>
  <course>19.36</course>
  <speed>0.022360679774997897</speed>
  <fix>3d</fix>
</trkpt>
<trkpt lat="33.8106406" lon="-118.393862">
  <ele>-2.4</ele>
  <time>2026-09-02T22:11:28Z</time>
  <course>208.28</course>
  <speed>0.01</speed>
  <fix>3d</fix>
</trkpt>
<trkpt lat="33.8106405" lon="-118.3938618">
  <ele>-2.453</ele>
  <time>2026-09-02T22:11:28Z</time>
  <course>19.53</course>
  <speed>0.022360679774997897</speed>
  <fix>3d</fix>
</trkpt>
<trkpt lat="33.8106406" lon="-118.393862">
  <ele>-2.4</ele>
  <time>2026-09-02T22:11:28Z</time>
  <course>208.28</course>
  <speed>0.01</speed>
  <fix>3d</fix>
</trkpt>
<trkpt lat="33.8106405" lon="-118.3938618">
  <ele>-2.453</ele>
  <time>2026-09-02T22:11:28Z</time>
  <course>19.68</course>
  <speed>0.022360679774997897</speed>
  <fix>3d</fix>
</trkpt>
<trkpt lat="33.8106406" lon="-118.393862">
  <ele>-2.4</ele>
  <time>2026-09-02T22:11:28Z</time>
  <course>208.1</course>
  <speed>0.01</speed>
  <fix>3d</fix>
</trkpt>
<trkpt lat="33.8106405" lon="-118.3938618">
  <ele>-2.454</ele>
  <time>2026-09-02T22:11:28Z</time>
  <course>19.83</course>
  <speed>0.022360679774997897</speed>
  <fix>3d</fix>
</trkpt>
<trkpt lat="33.8106406" lon="-118.393862">
  <ele>-2.4</ele>
  <time>2026-09-02T22:11:28Z</time>
  <course>208.1</course>
  <speed>0.01</speed>
  <fix>3d</fix>
</trkpt>
<trkpt lat="33.8106405" lon="-118.3938618">
  <ele>-2.456</ele>
  <time>2026-09-02T22:11:28Z</time>
  <course>19.96</course>
  <speed>0.022360679774997897</speed>
  <fix>3d</fix>
</trkpt>
<trkpt lat="33.8106406" lon="-118.393862">
  <ele>-2.4</ele>
  <time>2026-09-02T22:11:28Z</time>
  <course>207.96</course>
  <speed>0.01</speed>
  <fix>3d</fix>
</trkpt>
<trkpt lat="33.8106405" lon="-118.3938618">
  <ele>-2.458</ele>
  <time>2026-09-02T22:11:28Z</time>
  <course>20.09</course>
  <speed>0.022360679774997897</speed>
  <fix>3d</fix>
</trkpt>
<trkpt lat="33.8106406" lon="-118.393862">
  <ele>-2.4</ele>
  <time>2026-09-02T22:11:28Z</time>
  <course>207.96</course>
  <speed>0.01</speed>
  <fix>3d</fix>
</trkpt>
<trkpt lat="33.8106405" lon="-118.3938618">
  <ele>-2.46</ele>
  <time>2026-09-02T22:11:28Z</time>
  <course>20.21</course>
  <speed>0.022360679774997897</speed>
  <fix>3d</fix>
</trkpt>
<trkpt lat="33.8106406" lon="-118.393862">
  <ele>-2.4</ele>
  <time>2026-09-02T22:11:28Z</time>
  <course>207.92</course>
  <speed>0.01</speed>
  <fix>3d</fix>
</trkpt>
<trkpt lat="33.8106404" lon="-118.3938618">
  <ele>-2.461</ele>
  <time>2026-09-02T22:11:28Z</time>
  <course>20.32</course>
  <speed>0.022360679774997897</speed>
  <fix>3d</fix>
</trkpt>
<trkpt lat="33.8106406" lon="-118.393862">
  <ele>-2.4</ele>
  <time>2026-09-02T22:11:28Z</time>
  <course>207.92</course>
  <speed>0.01</speed>
  <fix>3d</fix>
</trkpt>
<trkpt lat="33.8106404" lon="-118.3938618">
  <ele>-2.461</ele>
  <time>2026-09-02T22:11:28Z</time>
  <course>20.43</course>
  <speed>0.022360679774997897</speed>
  <fix>3d</fix>
</trkpt>
<trkpt lat="33.8106406" lon="-118.393862">
  <ele>-2.41</ele>
  <time>2026-09-02T22:11:28Z</time>
  <course>207.96</course>
  <speed>0.0</speed>
  <fix>3d</fix>
</trkpt>
<trkpt lat="33.8106404" lon="-118.3938618">
  <ele>-2.462</ele>
  <time>2026-09-02T22:11:28Z</time>
  <course>20.53</course>
  <speed>0.022360679774997897</speed>
  <fix>3d</fix>
</trkpt>
<trkpt lat="33.8106406" lon="-118.393862">
  <ele>-2.41</ele>
  <time>2026-09-02T22:11:28Z</time>
  <course>207.96</course>
  <speed>0.0</speed>
  <fix>3d</fix>
</trkpt>
<trkpt lat="33.8106404" lon="-118.3938618">
  <ele>-2.463</ele>
  <time>2026-09-02T22:11:28Z</time>
  <course>20.61</course>
  <speed>0.022360679774997897</speed>
  <fix>3d</fix>
</trkpt>
<trkpt lat="33.8106406" lon="-118.393862">
  <ele>-2.41</ele>
  <time>2026-09-02T22:11:28Z</time>
  <course>208.0</course>
  <speed>0.0</speed>
  <fix>3d</fix>
</trkpt>
<trkpt lat="33.8106404" lon="-118.3938618">
  <ele>-2.464</ele>
  <time>2026-09-02T22:11:28Z</time>
  <course>20.68</course>
  <speed>0.022360679774997897</speed>
  <fix>3d</fix>
</trkpt>
<trkpt lat="33.8106406" lon="-118.393862">
  <ele>-2.41</ele>
  <time>2026-09-02T22:11:28Z</time>
  <course>208.0</course>
  <speed>0.0</speed>
  <fix>3d</fix>
</trkpt>
<trkpt lat="33.8106404" lon="-118.3938618">
  <ele>-2.464</ele>
  <time>2026-09-02T22:11:28Z</time>
  <course>20.72</course>
  <speed>0.022360679774997897</speed>
  <fix>3d</fix>
</trkpt>
<trkpt lat="33.8106405" lon="-118.393862">
  <ele>-2.41</ele>
  <time>2026-09-02T22:11:28Z</time>
  <course>211.3</course>
  <speed>0.0</speed>
  <fix>3d</fix>
</trkpt>
<trkpt lat="33.8106404" lon="-118.3938618">
  <ele>-2.463</ele>
  <time>2026-09-02T22:11:28Z</time>
  <course>20.76</course>
  <speed>0.022360679774997897</speed>
  <fix>3d</fix>
</trkpt>
<trkpt lat="33.8106405" lon="-118.393862">
  <ele>-2.41</ele>
  <time>2026-09-02T22:11:28Z</time>
  <course>211.3</course>
  <speed>0.0</speed>
  <fix>3d</fix>
</trkpt>
<trkpt lat="33.8106404" lon="-118.3938618">
  <ele>-2.461</ele>
  <time>2026-09-02T22:11:28Z</time>
  <course>20.8</course>
  <speed>0.022360679774997897</speed>
  <fix>3d</fix>
</trkpt>
<trkpt lat="33.8106405" lon="-118.393862">
  <ele>-2.4</ele>
  <time>2026-09-02T22:11:28Z</time>
  <course>214.88</course>
  <speed>0.0</speed>
  <fix>3d</fix>
</trkpt>
<trkpt lat="33.8106404" lon="-118.3938618">
  <ele>-2.458</ele>
  <time>2026-09-02T22:11:28Z</time>
  <course>20.84</course>
  <speed>0.022360679774997897</speed>
  <fix>3d</fix>
</trkpt>
<trkpt lat="33.8106405" lon="-118.393862">
  <ele>-2.4</ele>
  <time>2026-09-02T22:11:28Z</time>
  <course>214.88</course>
  <speed>0.0</speed>
  <fix>3d</fix>
</trkpt>
<trkpt lat="33.8106404" lon="-118.3938618">
  <ele>-2.456</ele>
  <time>2026-09-02T22:11:28Z</time>
  <course>20.88</course>
  <speed>0.022360679774997897</speed>
  <fix>3d</fix>
</trkpt>
<trkpt lat="33.8106405" lon="-118.3938621">
  <ele>-2.4</ele>
  <time>2026-09-02T22:11:28Z</time>
  <course>214.85</course>
  <speed>0.0</speed>
  <fix>3d</fix>
</trkpt>
<trkpt lat="33.8106404" lon="-118.3938618">
  <ele>-2.452</ele>
  <time>2026-09-02T22:11:28Z</time>
  <course>20.92</course>
  <speed>0.022360679774997897</speed>
  <fix>3d</fix>
</trkpt>
<trkpt lat="33.8106405" lon="-118.3938621">
  <ele>-2.4</ele>
  <time>2026-09-02T22:11:28Z</time>
  <course>214.85</course>
  <speed>0.0</speed>
  <fix>3d</fix>
</trkpt>
<trkpt lat="33.8106404" lon="-118.3938618">
  <ele>-2.447</ele>
  <time>2026-09-02T22:11:28Z</time>
  <course>20.96</course>
  <speed>0.0316227766016838</speed>
  <fix>3d</fix>
</trkpt>
<trkpt lat="33.8106405" lon="-118.3938621">
  <ele>-2.39</ele>
  <time>2026-09-02T22:11:28Z</time>
  <course>214.81</course>
  <speed>0.0</speed>
  <fix>3d</fix>
</trkpt>
<trkpt lat="33.8106404" lon="-118.3938618">
  <ele>-2.442</ele>
  <time>2026-09-02T22:11:28Z</time>
  <course>21.0</course>
  <speed>0.0316227766016838</speed>
  <fix>3d</fix>
</trkpt>
<trkpt lat="33.8106405" lon="-118.3938621">
  <ele>-2.39</ele>
  <time>2026-09-02T22:11:28Z</time>
  <course>214.81</course>
  <speed>0.0</speed>
  <fix>3d</fix>
</trkpt>
<trkpt lat="33.8106403" lon="-118.3938618">
  <ele>-2.436</ele>
  <time>2026-09-02T22:11:28Z</time>
  <course>21.03</course>
  <speed>0.0316227766016838</speed>
  <fix>3d</fix>
</trkpt>
<trkpt lat="33.8106405" lon="-118.3938621">
  <ele>-2.38</ele>
  <time>2026-09-02T22:11:28Z</time>
  <course>214.88</course>
  <speed>0.0</speed>
  <fix>3d</fix>
</trkpt>
<trkpt lat="33.8106403" lon="-118.3938618">
  <ele>-2.429</ele>
  <time>2026-09-02T22:11:28Z</time>
  <course>21.07</course>
  <speed>0.0316227766016838</speed>
  <fix>3d</fix>
</trkpt>
<trkpt lat="33.8106405" lon="-118.3938621">
  <ele>-2.38</ele>
  <time>2026-09-02T22:11:28Z</time>
  <course>214.88</course>
  <speed>0.0</speed>
  <fix>3d</fix>
</trkpt>
<trkpt lat="33.8106403" lon="-118.3938618">
  <ele>-2.423</ele>
  <time>2026-09-02T22:11:28Z</time>
  <course>21.02</course>
  <speed>0.022360679774997897</speed>
  <fix>3d</fix>
</trkpt>
<trkpt lat="33.8106405" lon="-118.3938621">
  <ele>-2.37</ele>
  <time>2026-09-02T22:11:28Z</time>
  <course>216.93</course>
  <speed>0.0</speed>
  <fix>3d</fix>
</trkpt>
<trkpt lat="33.8106403" lon="-118.3938618">
  <ele>-2.421</ele>
  <time>2026-09-02T22:11:28Z</time>
  <course>20.84</course>
  <speed>0.022360679774997897</speed>
  <fix>3d</fix>
</trkpt>
<trkpt lat="33.8106405" lon="-118.3938621">
  <ele>-2.37</ele>
  <time>2026-09-02T22:11:28Z</time>
  <course>216.93</course>
  <speed>0.0</speed>
  <fix>3d</fix>
</trkpt>
<trkpt lat="33.8106403" lon="-118.3938618">
  <ele>-2.425</ele>
  <time>2026-09-02T22:11:28Z</time>
  <course>20.61</course>
  <speed>0.022360679774997897</speed>
  <fix>3d</fix>
</trkpt>
<trkpt lat="33.8106405" lon="-118.3938621">
  <ele>-2.36</ele>
  <time>2026-09-02T22:11:28Z</time>
  <course>242.27</course>
  <speed>0.0</speed>
  <fix>3d</fix>
</trkpt>
<trkpt lat="33.8106403" lon="-118.3938618">
  <ele>-2.431</ele>
  <time>2026-09-02T22:11:28Z</time>
  <course>20.4</course>
  <speed>0.022360679774997897</speed>
  <fix>3d</fix>
</trkpt>
<trkpt lat="33.8106405" lon="-118.3938621">
  <ele>-2.36</ele>
  <time>2026-09-02T22:11:28Z</time>
  <course>242.27</course>
  <speed>0.0</speed>
  <fix>3d</fix>
</trkpt>
<trkpt lat="33.8106403" lon="-118.3938618">
  <ele>-2.437</ele>
  <time>2026-09-02T22:11:28Z</time>
  <course>20.21</course>
  <speed>0.022360679774997897</speed>
  <fix>3d</fix>
</trkpt>
<trkpt lat="33.8106405" lon="-118.3938621">
  <ele>-2.36</ele>
  <time>2026-09-02T22:11:28Z</time>
  <course>267.41</course>
  <speed>0.0</speed>
  <fix>3d</fix>
</trkpt>
<trkpt lat="33.8106403" lon="-118.3938618">
  <ele>-2.442</ele>
  <time>2026-09-02T22:11:28Z</time>
  <course>20.03</course>
  <speed>0.022360679774997897</speed>
  <fix>3d</fix>
</trkpt>
<trkpt lat="33.8106405" lon="-118.3938621">
  <ele>-2.36</ele>
  <time>2026-09-02T22:11:28Z</time>
  <course>267.41</course>
  <speed>0.0</speed>
  <fix>3d</fix>
</trkpt>
<trkpt lat="33.8106403" lon="-118.3938619">
  <ele>-2.446</ele>
  <time>2026-09-02T22:11:28Z</time>
  <course>19.87</course>
  <speed>0.022360679774997897</speed>
  <fix>3d</fix>
</trkpt>
<trkpt lat="33.8106405" lon="-118.3938621">
  <ele>-2.37</ele>
  <time>2026-09-02T22:11:28Z</time>
  <course>267.98</course>
  <speed>0.0</speed>
  <fix>3d</fix>
</trkpt>
<trkpt lat="33.8106403" lon="-118.3938619">
  <ele>-2.449</ele>
  <time>2026-09-02T22:11:28Z</time>
  <course>19.77</course>
  <speed>0.022360679774997897</speed>
  <fix>3d</fix>
</trkpt>
<trkpt lat="33.8106405" lon="-118.3938621">
  <ele>-2.37</ele>
  <time>2026-09-02T22:11:28Z</time>
  <course>267.98</course>
  <speed>0.0</speed>
  <fix>3d</fix>
</trkpt>
<trkpt lat="33.8106403" lon="-118.3938619">
  <ele>-2.45</ele>
  <time>2026-09-02T22:11:28Z</time>
  <course>19.71</course>
  <speed>0.022360679774997897</speed>
  <fix>3d</fix>
</trkpt>
<trkpt lat="33.8106405" lon="-118.3938621">
  <ele>-2.38</ele>
  <time>2026-09-02T22:11:28Z</time>
  <course>271.4</course>
  <speed>0.0</speed>
  <fix>3d</fix>
</trkpt>
<trkpt lat="33.8106403" lon="-118.3938619">
  <ele>-2.449</ele>
  <time>2026-09-02T22:11:28Z</time>
  <course>19.69</course>
  <speed>0.022360679774997897</speed>
  <fix>3d</fix>
</trkpt>
<trkpt lat="33.8106405" lon="-118.3938621">
  <ele>-2.38</ele>
  <time>2026-09-02T22:11:28Z</time>
  <course>271.4</course>
  <speed>0.0</speed>
  <fix>3d</fix>
</trkpt>
<trkpt lat="33.8106403" lon="-118.3938619">
  <ele>-2.448</ele>
  <time>2026-09-02T22:11:28Z</time>
  <course>19.7</course>
  <speed>0.022360679774997897</speed>
  <fix>3d</fix>
</trkpt>
<trkpt lat="33.8106405" lon="-118.3938622">
  <ele>-2.38</ele>
  <time>2026-09-02T22:11:28Z</time>
  <course>280.64</course>
  <speed>0.0</speed>
  <fix>3d</fix>
</trkpt>
<trkpt lat="33.8106403" lon="-118.3938619">
  <ele>-2.446</ele>
  <time>2026-09-02T22:11:28Z</time>
  <course>19.75</course>
  <speed>0.022360679774997897</speed>
  <fix>3d</fix>
</trkpt>
<trkpt lat="33.8106405" lon="-118.3938622">
  <ele>-2.38</ele>
  <time>2026-09-02T22:11:28Z</time>
  <course>280.64</course>
  <speed>0.0</speed>
  <fix>3d</fix>
</trkpt>
<trkpt lat="33.8106403" lon="-118.3938619">
  <ele>-2.443</ele>
  <time>2026-09-02T22:11:28Z</time>
  <course>19.81</course>
  <speed>0.022360679774997897</speed>
  <fix>3d</fix>
</trkpt>
<trkpt lat="33.8106405" lon="-118.3938622">
  <ele>-2.37</ele>
  <time>2026-09-02T22:11:28Z</time>
  <course>295.04</course>
  <speed>0.0</speed>
  <fix>3d</fix>
</trkpt>
<trkpt lat="33.8106403" lon="-118.3938619">
  <ele>-2.44</ele>
  <time>2026-09-02T22:11:28Z</time>
  <course>19.91</course>
  <speed>0.022360679774997897</speed>
  <fix>3d</fix>
</trkpt>
<trkpt lat="33.8106405" lon="-118.3938622">
  <ele>-2.37</ele>
  <time>2026-09-02T22:11:28Z</time>
  <course>295.04</course>
  <speed>0.0</speed>
  <fix>3d</fix>
</trkpt>
<trkpt lat="33.8106403" lon="-118.3938619">
  <ele>-2.439</ele>
  <time>2026-09-02T22:11:28Z</time>
  <course>19.99</course>
  <speed>0.022360679774997897</speed>
  <fix>3d</fix>
</trkpt>
<trkpt lat="33.8106405" lon="-118.3938622">
  <ele>-2.37</ele>
  <time>2026-09-02T22:11:28Z</time>
  <course>318.55</course>
  <speed>0.0</speed>
  <fix>3d</fix>
</trkpt>
<trkpt lat="33.8106404" lon="-118.3938619">
  <ele>-2.438</ele>
  <time>2026-09-02T22:11:28Z</time>
  <course>19.96</course>
  <speed>0.022360679774997897</speed>
  <fix>3d</fix>
</trkpt>
<trkpt lat="33.8106405" lon="-118.3938622">
  <ele>-2.37</ele>
  <time>2026-09-02T22:11:28Z</time>
  <course>318.55</course>
  <speed>0.0</speed>
  <fix>3d</fix>
</trkpt>
<trkpt lat="33.8106404" lon="-118.3938619">
  <ele>-2.436</ele>
  <time>2026-09-02T22:11:28Z</time>
  <course>19.7</course>
  <speed>0.022360679774997897</speed>
  <fix>3d</fix>
</trkpt>
<trkpt lat="33.8106405" lon="-118.3938622">
  <ele>-2.36</ele>
  <time>2026-09-02T22:11:28Z</time>
  <course>15.95</course>
  <speed>0.0</speed>
  <fix>3d</fix>
</trkpt>
<trkpt lat="33.8106404" lon="-118.3938619">
  <ele>-2.436</ele>
  <time>2026-09-02T22:11:28Z</time>
  <course>19.25</course>
  <speed>0.022360679774997897</speed>
  <fix>3d</fix>
</trkpt>
<trkpt lat="33.8106405" lon="-118.3938622">
  <ele>-2.36</ele>
  <time>2026-09-02T22:11:28Z</time>
  <course>15.95</course>
  <speed>0.0</speed>
  <fix>3d</fix>
</trkpt>
<trkpt lat="33.8106404" lon="-118.3938619">
  <ele>-2.435</ele>
  <time>2026-09-02T22:11:28Z</time>
  <course>18.65</course>
  <speed>0.03</speed>
  <fix>3d</fix>
</trkpt>
<trkpt lat="33.8106405" lon="-118.3938622">
  <ele>-2.36</ele>
  <time>2026-09-02T22:11:28Z</time>
  <course>36.42</course>
  <speed>0.01</speed>
  <fix>3d</fix>
</trkpt>
<trkpt lat="33.8106404" lon="-118.3938619">
  <ele>-2.435</ele>
  <time>2026-09-02T22:11:28Z</time>
  <course>18.03</course>
  <speed>0.03</speed>
  <fix>3d</fix>
</trkpt>
<trkpt lat="33.8106405" lon="-118.3938622">
  <ele>-2.36</ele>
  <time>2026-09-02T22:11:28Z</time>
  <course>36.42</course>
  <speed>0.01</speed>
  <fix>3d</fix>
</trkpt>
<trkpt lat="33.8106404" lon="-118.3938619">
  <ele>-2.436</ele>
  <time>2026-09-02T22:11:28Z</time>
  <course>17.3</course>
  <speed>0.03</speed>
  <fix>3d</fix>
</trkpt>
<trkpt lat="33.8106405" lon="-118.3938622">
  <ele>-2.36</ele>
  <time>2026-09-02T22:11:28Z</time>
  <course>39.85</course>
  <speed>0.02</speed>
  <fix>3d</fix>
</trkpt>
<trkpt lat="33.8106404" lon="-118.3938619">
  <ele>-2.436</ele>
  <time>2026-09-02T22:11:28Z</time>
  <course>16.47</course>
  <speed>0.03</speed>
  <fix>3d</fix>
</trkpt>
<trkpt lat="33.8106405" lon="-118.3938622">
  <ele>-2.36</ele>
  <time>2026-09-02T22:11:28Z</time>
  <course>39.85</course>
  <speed>0.02</speed>
  <fix>3d</fix>
</trkpt>
<trkpt lat="33.8106404" lon="-118.3938619">
  <ele>-2.435</ele>
  <time>2026-09-02T22:11:28Z</time>
  <course>15.53</course>
  <speed>0.03</speed>
  <fix>3d</fix>
</trkpt>
<trkpt lat="33.8106405" lon="-118.3938622">
  <ele>-2.36</ele>
  <time>2026-09-02T22:11:28Z</time>
  <course>43.78</course>
  <speed>0.02</speed>
  <fix>3d</fix>
</trkpt>
<trkpt lat="33.8106404" lon="-118.3938619">
  <ele>-2.435</ele>
  <time>2026-09-02T22:11:28Z</time>
  <course>14.57</course>
  <speed>0.03</speed>
  <fix>3d</fix>
</trkpt>
<trkpt lat="33.8106405" lon="-118.3938622">
  <ele>-2.36</ele>
  <time>2026-09-02T22:11:28Z</time>
  <course>43.78</course>
  <speed>0.02</speed>
  <fix>3d</fix>
</trkpt>
<trkpt lat="33.8106404" lon="-118.3938619">
  <ele>-2.436</ele>
  <time>2026-09-02T22:11:28Z</time>
  <course>13.57</course>
  <speed>0.0316227766016838</speed>
  <fix>3d</fix>
</trkpt>
<trkpt lat="33.8106405" lon="-118.3938622">
  <ele>-2.37</ele>
  <time>2026-09-02T22:11:28Z</time>
  <course>48.04</course>
  <speed>0.02</speed>
  <fix>3d</fix>
</trkpt>
<trkpt lat="33.8106404" lon="-118.3938619">
  <ele>-2.437</ele>
  <time>2026-09-02T22:11:28Z</time>
  <course>12.56</course>
  <speed>0.0316227766016838</speed>
  <fix>3d</fix>
</trkpt>
<trkpt lat="33.8106405" lon="-118.3938622">
  <ele>-2.37</ele>
  <time>2026-09-02T22:11:28Z</time>
  <course>48.04</course>
  <speed>0.02</speed>
  <fix>3d</fix>
</trkpt>
<trkpt lat="33.8106404" lon="-118.3938619">
  <ele>-2.438</ele>
  <time>2026-09-02T22:11:28Z</time>
  <course>11.54</course>
  <speed>0.0316227766016838</speed>
  <fix>3d</fix>
</trkpt>
<trkpt lat="33.8106405" lon="-118.3938621">
  <ele>-2.37</ele>
  <time>2026-09-02T22:11:28Z</time>
  <course>52.59</course>
  <speed>0.02</speed>
  <fix>3d</fix>
</trkpt>
<trkpt lat="33.8106404" lon="-118.3938619">
  <ele>-2.439</ele>
  <time>2026-09-02T22:11:28Z</time>
  <course>10.5</course>
  <speed>0.022360679774997897</speed>
  <fix>3d</fix>
</trkpt>
<trkpt lat="33.8106405" lon="-118.3938621">
  <ele>-2.37</ele>
  <time>2026-09-02T22:11:28Z</time>
  <course>52.59</course>
  <speed>0.02</speed>
  <fix>3d</fix>
</trkpt>
<trkpt lat="33.8106404" lon="-118.3938619">
  <ele>-2.441</ele>
  <time>2026-09-02T22:11:28Z</time>
  <course>9.47</course>
  <speed>0.022360679774997897</speed>
  <fix>3d</fix>
</trkpt>
<trkpt lat="33.8106405" lon="-118.3938621">
  <ele>-2.37</ele>
  <time>2026-09-02T22:11:28Z</time>
  <course>56.04</course>
  <speed>0.02</speed>
  <fix>3d</fix>
</trkpt>
<trkpt lat="33.8106404" lon="-118.3938619">
  <ele>-2.444</ele>
  <time>2026-09-02T22:11:28Z</time>
  <course>8.58</course>
  <speed>0.022360679774997897</speed>
  <fix>3d</fix>
</trkpt>
<trkpt lat="33.8106405" lon="-118.3938621">
  <ele>-2.37</ele>
  <time>2026-09-02T22:11:28Z</time>
  <course>56.04</course>
  <speed>0.02</speed>
  <fix>3d</fix>
</trkpt>
<trkpt lat="33.8106404" lon="-118.3938619">
  <ele>-2.445</ele>
  <time>2026-09-02T22:11:28Z</time>
  <course>7.93</course>
  <speed>0.022360679774997897</speed>
  <fix>3d</fix>
</trkpt>
<trkpt lat="33.8106406" lon="-118.393862">
  <ele>-2.38</ele>
  <time>2026-09-02T22:11:28Z</time>
  <course>58.26</course>
  <speed>0.01</speed>
  <fix>3d</fix>
</trkpt>
<trkpt lat="33.8106404" lon="-118.3938619">
  <ele>-2.446</ele>
  <time>2026-09-02T22:11:28Z</time>
  <course>7.43</course>
  <speed>0.022360679774997897</speed>
  <fix>3d</fix>
</trkpt>
<trkpt lat="33.8106406" lon="-118.393862">
  <ele>-2.38</ele>
  <time>2026-09-02T22:11:28Z</time>
  <course>58.26</course>
  <speed>0.01</speed>
  <fix>3d</fix>
</trkpt>
<trkpt lat="33.8106404" lon="-118.3938619">
  <ele>-2.447</ele>
  <time>2026-09-02T22:11:28Z</time>
  <course>7.02</course>
  <speed>0.022360679774997897</speed>
  <fix>3d</fix>
</trkpt>
<trkpt lat="33.8106406" lon="-118.393862">
  <ele>-2.38</ele>
  <time>2026-09-02T22:11:28Z</time>
  <course>59.39</course>
  <speed>0.01</speed>
  <fix>3d</fix>
</trkpt>
<trkpt lat="33.8106404" lon="-118.3938619">
  <ele>-2.447</ele>
  <time>2026-09-02T22:11:28Z</time>
  <course>6.68</course>
  <speed>0.022360679774997897</speed>
  <fix>3d</fix>
</trkpt>
<trkpt lat="33.8106406" lon="-118.393862">
  <ele>-2.38</ele>
  <time>2026-09-02T22:11:28Z</time>
  <course>59.39</course>
  <speed>0.01</speed>
  <fix>3d</fix>
</trkpt>
<trkpt lat="33.8106404" lon="-118.3938618">
  <ele>-2.446</ele>
  <time>2026-09-02T22:11:28Z</time>
  <course>6.39</course>
  <speed>0.022360679774997897</speed>
  <fix>3d</fix>
</trkpt>
<trkpt lat="33.8106406" lon="-118.393862">
  <ele>-2.38</ele>
  <time>2026-09-02T22:11:28Z</time>
  <course>59.18</course>
  <speed>0.01</speed>
  <fix>3d</fix>
</trkpt>
<trkpt lat="33.8106404" lon="-118.3938618">
  <ele>-2.445</ele>
  <time>2026-09-02T22:11:28Z</time>
  <course>6.13</course>
  <speed>0.022360679774997897</speed>
  <fix>3d</fix>
</trkpt>
<trkpt lat="33.8106406" lon="-118.393862">
  <ele>-2.38</ele>
  <time>2026-09-02T22:11:28Z</time>
  <course>59.18</course>
  <speed>0.01</speed>
  <fix>3d</fix>
</trkpt>
<trkpt lat="33.8106404" lon="-118.3938618">
  <ele>-2.445</ele>
  <time>2026-09-02T22:11:28Z</time>
  <course>5.9</course>
  <speed>0.022360679774997897</speed>
  <fix>3d</fix>
</trkpt>
<trkpt lat="33.8106406" lon="-118.3938619">
  <ele>-2.38</ele>
  <time>2026-09-02T22:11:28Z</time>
  <course>58.99</course>
  <speed>0.01</speed>
  <fix>3d</fix>
</trkpt>
<trkpt lat="33.8106404" lon="-118.3938618">
  <ele>-2.445</ele>
  <time>2026-09-02T22:11:28Z</time>
  <course>5.69</course>
  <speed>0.022360679774997897</speed>
  <fix>3d</fix>
</trkpt>
<trkpt lat="33.8106406" lon="-118.3938619">
  <ele>-2.38</ele>
  <time>2026-09-02T22:11:28Z</time>
  <course>58.99</course>
  <speed>0.01</speed>
  <fix>3d</fix>
</trkpt>
<trkpt lat="33.8106404" lon="-118.3938618">
  <ele>-2.445</ele>
  <time>2026-09-02T22:11:28Z</time>
  <course>5.5</course>
  <speed>0.022360679774997897</speed>
  <fix>3d</fix>
</trkpt>
<trkpt lat="33.8106406" lon="-118.3938619">
  <ele>-2.38</ele>
  <time>2026-09-02T22:11:28Z</time>
  <course>58.84</course>
  <speed>0.01</speed>
  <fix>3d</fix>
</trkpt>
<trkpt lat="33.8106404" lon="-118.3938618">
  <ele>-2.445</ele>
  <time>2026-09-02T22:11:28Z</time>
  <course>5.32</course>
  <speed>0.0282842712474619</speed>
  <fix>3d</fix>
</trkpt>
<trkpt lat="33.8106406" lon="-118.3938619">
  <ele>-2.38</ele>
  <time>2026-09-02T22:11:28Z</time>
  <course>58.84</course>
  <speed>0.01</speed>
  <fix>3d</fix>
</trkpt>
<trkpt lat="33.8106404" lon="-118.3938618">
  <ele>-2.444</ele>
  <time>2026-09-02T22:11:28Z</time>
  <course>5.16</course>
  <speed>0.0282842712474619</speed>
  <fix>3d</fix>
</trkpt>
<trkpt lat="33.8106406" lon="-118.3938619">
  <ele>-2.37</ele>
  <time>2026-09-02T22:11:28Z</time>
  <course>58.69</course>
  <speed>0.01</speed>
  <fix>3d</fix>
</trkpt>
<trkpt lat="33.8106404" lon="-118.3938618">
  <ele>-2.442</ele>
  <time>2026-09-02T22:11:28Z</time>
  <course>5.01</course>
  <speed>0.0282842712474619</speed>
  <fix>3d</fix>
</trkpt>
<trkpt lat="33.8106406" lon="-118.3938619">
  <ele>-2.37</ele>
  <time>2026-09-02T22:11:28Z</time>
  <course>58.69</course>
  <speed>0.01</speed>
  <fix>3d</fix>
</trkpt>
<trkpt lat="33.8106404" lon="-118.3938618">
  <ele>-2.44</ele>
  <time>2026-09-02T22:11:28Z</time>
  <course>4.87</course>
  <speed>0.0282842712474619</speed>
  <fix>3d</fix>
</trkpt>
<trkpt lat="33.8106407" lon="-118.3938618">
  <ele>-2.37</ele>
  <time>2026-09-02T22:11:28Z</time>
  <course>58.49</course>
  <speed>0.01</speed>
  <fix>3d</fix>
</trkpt>
<trkpt lat="33.8106404" lon="-118.3938617">
  <ele>-2.438</ele>
  <time>2026-09-02T22:11:28Z</time>
  <course>4.73</course>
  <speed>0.0282842712474619</speed>
  <fix>3d</fix>
</trkpt>
<trkpt lat="33.8106407" lon="-118.3938618">
  <ele>-2.37</ele>
  <time>2026-09-02T22:11:28Z</time>
  <course>58.49</course>
  <speed>0.01</speed>
  <fix>3d</fix>
</trkpt>
<trkpt lat="33.8106404" lon="-118.3938617">
  <ele>-2.437</ele>
  <time>2026-09-02T22:11:28Z</time>
  <course>4.61</course>
  <speed>0.0282842712474619</speed>
  <fix>3d</fix>
</trkpt>
<trkpt lat="33.8106407" lon="-118.3938618">
  <ele>-2.37</ele>
  <time>2026-09-02T22:11:28Z</time>
  <course>58.29</course>
  <speed>0.01</speed>
  <fix>3d</fix>
</trkpt>
<trkpt lat="33.8106404" lon="-118.3938617">
  <ele>-2.437</ele>
  <time>2026-09-02T22:11:28Z</time>
  <course>4.49</course>
  <speed>0.0282842712474619</speed>
  <fix>3d</fix>
</trkpt>
<trkpt lat="33.8106407" lon="-118.3938618">
  <ele>-2.37</ele>
  <time>2026-09-02T22:11:28Z</time>
  <course>58.29</course>
  <speed>0.01</speed>
  <fix>3d</fix>
</trkpt>
<trkpt lat="33.8106404" lon="-118.3938617">
  <ele>-2.439</ele>
  <time>2026-09-02T22:11:28Z</time>
  <course>4.4</course>
  <speed>0.022360679774997897</speed>
  <fix>3d</fix>
</trkpt>
<trkpt lat="33.8106407" lon="-118.3938618">
  <ele>-2.37</ele>
  <time>2026-09-02T22:11:28Z</time>
  <course>58.21</course>
  <speed>0.01</speed>
  <fix>3d</fix>
</trkpt>
<trkpt lat="33.8106405" lon="-118.3938617">
  <ele>-2.441</ele>
  <time>2026-09-02T22:11:28Z</time>
  <course>4.38</course>
  <speed>0.022360679774997897</speed>
  <fix>3d</fix>
</trkpt>
<trkpt lat="33.8106407" lon="-118.3938618">
  <ele>-2.37</ele>
  <time>2026-09-02T22:11:28Z</time>
  <course>58.21</course>
  <speed>0.01</speed>
  <fix>3d</fix>
</trkpt>
<trkpt lat="33.8106405" lon="-118.3938617">
  <ele>-2.441</ele>
  <time>2026-09-02T22:11:28Z</time>
  <course>4.41</course>
  <speed>0.022360679774997897</speed>
  <fix>3d</fix>
</trkpt>
<trkpt lat="33.8106407" lon="-118.3938617">
  <ele>-2.37</ele>
  <time>2026-09-02T22:11:28Z</time>
  <course>59.1</course>
  <speed>0.01</speed>
  <fix>3d</fix>
</trkpt>
<trkpt lat="33.8106405" lon="-118.3938617">
  <ele>-2.442</ele>
  <time>2026-09-02T22:11:28Z</time>
  <course>4.52</course>
  <speed>0.022360679774997897</speed>
  <fix>3d</fix>
</trkpt>
<trkpt lat="33.8106407" lon="-118.3938617">
  <ele>-2.37</ele>
  <time>2026-09-02T22:11:28Z</time>
  <course>59.1</course>
  <speed>0.01</speed>
  <fix>3d</fix>
</trkpt>
<trkpt lat="33.8106405" lon="-118.3938617">
  <ele>-2.442</ele>
  <time>2026-09-02T22:11:28Z</time>
  <course>4.79</course>
  <speed>0.02</speed>
  <fix>3d</fix>
</trkpt>
<trkpt lat="33.8106407" lon="-118.3938616">
  <ele>-2.38</ele>
  <time>2026-09-02T22:11:28Z</time>
  <course>64.14</course>
  <speed>0.01</speed>
  <fix>3d</fix>
</trkpt>
<trkpt lat="33.8106405" lon="-118.3938617">
  <ele>-2.443</ele>
  <time>2026-09-02T22:11:28Z</time>
  <course>5.24</course>
  <speed>0.03</speed>
  <fix>3d</fix>
</trkpt>
<trkpt lat="33.8106407" lon="-118.3938616">
  <ele>-2.38</ele>
  <time>2026-09-02T22:11:28Z</time>
  <course>64.14</course>
  <speed>0.01</speed>
  <fix>3d</fix>
</trkpt>
<trkpt lat="33.8106405" lon="-118.3938617">
  <ele>-2.444</ele>
  <time>2026-09-02T22:11:28Z</time>
  <course>5.84</course>
  <speed>0.03</speed>
  <fix>3d</fix>
</trkpt>
<trkpt lat="33.8106407" lon="-118.3938616">
  <ele>-2.38</ele>
  <time>2026-09-02T22:11:28Z</time>
  <course>119.05</course>
  <speed>0.0</speed>
  <fix>3d</fix>
</trkpt>
<trkpt lat="33.8106405" lon="-118.3938617">
  <ele>-2.445</ele>
  <time>2026-09-02T22:11:28Z</time>
  <course>6.53</course>
  <speed>0.03</speed>
  <fix>3d</fix>
</trkpt>
<trkpt lat="33.8106407" lon="-118.3938616">
  <ele>-2.38</ele>
  <time>2026-09-02T22:11:28Z</time>
  <course>119.05</course>
  <speed>0.0</speed>
  <fix>3d</fix>
</trkpt>
<trkpt lat="33.8106405" lon="-118.3938617">
  <ele>-2.447</ele>
  <time>2026-09-02T22:11:28Z</time>
  <course>7.28</course>
  <speed>0.03</speed>
  <fix>3d</fix>
</trkpt>
<trkpt lat="33.8106407" lon="-118.3938616">
  <ele>-2.38</ele>
  <time>2026-09-02T22:11:28Z</time>
  <course>233.41</course>
  <speed>0.0</speed>
  <fix>3d</fix>
</trkpt>
<trkpt lat="33.8106405" lon="-118.3938617">
  <ele>-2.449</ele>
  <time>2026-09-02T22:11:28Z</time>
  <course>8.03</course>
  <speed>0.0316227766016838</speed>
  <fix>3d</fix>
</trkpt>
<trkpt lat="33.8106407" lon="-118.3938616">
  <ele>-2.38</ele>
  <time>2026-09-02T22:11:28Z</time>
  <course>233.41</course>
  <speed>0.0</speed>
  <fix>3d</fix>
</trkpt>
<trkpt lat="33.8106405" lon="-118.3938617">
  <ele>-2.449</ele>
  <time>2026-09-02T22:11:28Z</time>
  <course>8.88</course>
  <speed>0.0316227766016838</speed>
  <fix>3d</fix>
</trkpt>
<trkpt lat="33.8106407" lon="-118.3938616">
  <ele>-2.39</ele>
  <time>2026-09-02T22:11:28Z</time>
  <course>246.86</course>
  <speed>0.01</speed>
  <fix>3d</fix>
</trkpt>
<trkpt lat="33.8106405" lon="-118.3938617">
  <ele>-2.449</ele>
  <time>2026-09-02T22:11:28Z</time>
  <course>9.83</course>
  <speed>0.0316227766016838</speed>
  <fix>3d</fix>
</trkpt>
<trkpt lat="33.8106407" lon="-118.3938616">
  <ele>-2.39</ele>
  <time>2026-09-02T22:11:28Z</time>
  <course>246.86</course>
  <speed>0.01</speed>
  <fix>3d</fix>
</trkpt>
<trkpt lat="33.8106405" lon="-118.3938617">
  <ele>-2.447</ele>
  <time>2026-09-02T22:11:28Z</time>
  <course>10.81</course>
  <speed>0.0316227766016838</speed>
  <fix>3d</fix>
</trkpt>
<trkpt lat="33.8106407" lon="-118.3938616">
  <ele>-2.38</ele>
  <time>2026-09-02T22:11:28Z</time>
  <course>251.57</course>
  <speed>0.02</speed>
  <fix>3d</fix>
</trkpt>
<trkpt lat="33.8106405" lon="-118.3938617">
  <ele>-2.445</ele>
  <time>2026-09-02T22:11:28Z</time>
  <course>11.82</course>
  <speed>0.0316227766016838</speed>
  <fix>3d</fix>
</trkpt>
<trkpt lat="33.8106407" lon="-118.3938616">
  <ele>-2.38</ele>
  <time>2026-09-02T22:11:28Z</time>
  <course>251.57</course>
  <speed>0.02</speed>
  <fix>3d</fix>
</trkpt>
<trkpt lat="33.8106405" lon="-118.3938617">
  <ele>-2.443</ele>
  <time>2026-09-02T22:11:28Z</time>
  <course>12.84</course>
  <speed>0.03</speed>
  <fix>3d</fix>
</trkpt>
<trkpt lat="33.8106407" lon="-118.3938617">
  <ele>-2.38</ele>
  <time>2026-09-02T22:11:28Z</time>
  <course>253.33</course>
  <speed>0.02</speed>
  <fix>3d</fix>
</trkpt>
<trkpt lat="33.8106405" lon="-118.3938617">
  <ele>-2.44</ele>
  <time>2026-09-02T22:11:28Z</time>
  <course>13.85</course>
  <speed>0.03</speed>
  <fix>3d</fix>
</trkpt>
<trkpt lat="33.8106407" lon="-118.3938617">
  <ele>-2.38</ele>
  <time>2026-09-02T22:11:28Z</time>
  <course>253.33</course>
  <speed>0.02</speed>
  <fix>3d</fix>
</trkpt>
<trkpt lat="33.8106405" lon="-118.3938617">
  <ele>-2.438</ele>
  <time>2026-09-02T22:11:28Z</time>
  <course>14.88</course>
  <speed>0.03</speed>
  <fix>3d</fix>
</trkpt>
<trkpt lat="33.8106407" lon="-118.3938618">
  <ele>-2.38</ele>
  <time>2026-09-02T22:11:28Z</time>
  <course>254.13</course>
  <speed>0.02</speed>
  <fix>3d</fix>
</trkpt>
<trkpt lat="33.8106405" lon="-118.3938617">
  <ele>-2.436</ele>
  <time>2026-09-02T22:11:28Z</time>
  <course>15.9</course>
  <speed>0.03</speed>
  <fix>3d</fix>
</trkpt>
<trkpt lat="33.8106407" lon="-118.3938618">
  <ele>-2.38</ele>
  <time>2026-09-02T22:11:28Z</time>
  <course>254.13</course>
  <speed>0.02</speed>
  <fix>3d</fix>
</trkpt>
<trkpt lat="33.8106405" lon="-118.3938617">
  <ele>-2.436</ele>
  <time>2026-09-02T22:11:28Z</time>
  <course>16.94</course>
  <speed>0.03</speed>
  <fix>3d</fix>
</trkpt>
<trkpt lat="33.8106407" lon="-118.3938618">
  <ele>-2.38</ele>
  <time>2026-09-02T22:11:28Z</time>
  <course>253.86</course>
  <speed>0.01</speed>
  <fix>3d</fix>
</trkpt>
<trkpt lat="33.8106405" lon="-118.3938617">
  <ele>-2.437</ele>
  <time>2026-09-02T22:11:28Z</time>
  <course>17.97</course>
  <speed>0.03</speed>
  <fix>3d</fix>
</trkpt>
<trkpt lat="33.8106407" lon="-118.3938618">
  <ele>-2.38</ele>
  <time>2026-09-02T22:11:28Z</time>
  <course>253.86</course>
  <speed>0.01</speed>
  <fix>3d</fix>
</trkpt>
<trkpt lat="33.8106405" lon="-118.3938617">
  <ele>-2.439</ele>
  <time>2026-09-02T22:11:28Z</time>
  <course>19.01</course>
  <speed>0.03</speed>
  <fix>3d</fix>
</trkpt>
<trkpt lat="33.8106407" lon="-118.3938619">
  <ele>-2.38</ele>
  <time>2026-09-02T22:11:28Z</time>
  <course>251.8</course>
  <speed>0.01</speed>
  <fix>3d</fix>
</trkpt>
<trkpt lat="33.8106405" lon="-118.3938617">
  <ele>-2.441</ele>
  <time>2026-09-02T22:11:28Z</time>
  <course>20.04</course>
  <speed>0.03</speed>
  <fix>3d</fix>
</trkpt>
<trkpt lat="33.8106407" lon="-118.3938619">
  <ele>-2.38</ele>
  <time>2026-09-02T22:11:28Z</time>
  <course>251.8</course>
  <speed>0.01</speed>
  <fix>3d</fix>
</trkpt>
<trkpt lat="33.8106405" lon="-118.3938617">
  <ele>-2.443</ele>
  <time>2026-09-02T22:11:28Z</time>
  <course>21.09</course>
  <speed>0.03</speed>
  <fix>3d</fix>
</trkpt>
<trkpt lat="33.8106407" lon="-118.3938619">
  <ele>-2.38</ele>
  <time>2026-09-02T22:11:28Z</time>
  <course>248.12</course>
  <speed>0.01</speed>
  <fix>3d</fix>
</trkpt>
<trkpt lat="33.8106405" lon="-118.3938617">
  <ele>-2.444</ele>
  <time>2026-09-02T22:11:28Z</time>
  <course>22.12</course>
  <speed>0.03</speed>
  <fix>3d</fix>
</trkpt>
<trkpt lat="33.8106407" lon="-118.3938619">
  <ele>-2.38</ele>
  <time>2026-09-02T22:11:28Z</time>
  <course>248.12</course>
  <speed>0.01</speed>
  <fix>3d</fix>
</trkpt>
<trkpt lat="33.8106405" lon="-118.3938617">
  <ele>-2.444</ele>
  <time>2026-09-02T22:11:28Z</time>
  <course>23.17</course>
  <speed>0.03</speed>
  <fix>3d</fix>
</trkpt>
<trkpt lat="33.8106407" lon="-118.3938619">
  <ele>-2.39</ele>
  <time>2026-09-02T22:11:28Z</time>
  <course>242.51</course>
  <speed>0.01</speed>
  <fix>3d</fix>
</trkpt>
<trkpt lat="33.8106405" lon="-118.3938618">
  <ele>-2.445</ele>
  <time>2026-09-02T22:11:28Z</time>
  <course>24.21</course>
  <speed>0.0316227766016838</speed>
  <fix>3d</fix>
</trkpt>
<trkpt lat="33.8106407" lon="-118.3938619">
  <ele>-2.39</ele>
  <time>2026-09-02T22:11:28Z</time>
  <course>242.51</course>
  <speed>0.01</speed>
  <fix>3d</fix>
</trkpt>
<trkpt lat="33.8106405" lon="-118.3938618">
  <ele>-2.445</ele>
  <time>2026-09-02T22:11:28Z</time>
  <course>25.25</course>
  <speed>0.0316227766016838</speed>
  <fix>3d</fix>
</trkpt>
<trkpt lat="33.8106407" lon="-118.3938619">
  <ele>-2.39</ele>
  <time>2026-09-02T22:11:28Z</time>
  <course>237.05</course>
  <speed>0.0</speed>
  <fix>3d</fix>
</trkpt>
<trkpt lat="33.8106405" lon="-118.3938618">
  <ele>-2.446</ele>
  <time>2026-09-02T22:11:28Z</time>
  <course>26.19</course>
  <speed>0.0316227766016838</speed>
  <fix>3d</fix>
</trkpt>
<trkpt lat="33.8106407" lon="-118.3938619">
  <ele>-2.39</ele>
  <time>2026-09-02T22:11:28Z</time>
  <course>237.05</course>
  <speed>0.0</speed>
  <fix>3d</fix>
</trkpt>
<trkpt lat="33.8106405" lon="-118.3938618">
  <ele>-2.447</ele>
  <time>2026-09-02T22:11:28Z</time>
  <course>26.86</course>
  <speed>0.0316227766016838</speed>
  <fix>3d</fix>
</trkpt>
<trkpt lat="33.8106407" lon="-118.393862">
  <ele>-2.39</ele>
  <time>2026-09-02T22:11:28Z</time>
  <course>231.03</course>
  <speed>0.0</speed>
  <fix>3d</fix>
</trkpt>
<trkpt lat="33.8106405" lon="-118.3938618">
  <ele>-2.447</ele>
  <time>2026-09-02T22:11:28Z</time>
  <course>27.38</course>
  <speed>0.0316227766016838</speed>
  <fix>3d</fix>
</trkpt>
<trkpt lat="33.8106407" lon="-118.393862">
  <ele>-2.39</ele>
  <time>2026-09-02T22:11:28Z</time>
  <course>231.03</course>
  <speed>0.0</speed>
  <fix>3d</fix>
</trkpt>
<trkpt lat="33.8106405" lon="-118.3938618">
  <ele>-2.446</ele>
  <time>2026-09-02T22:11:28Z</time>
  <course>27.79</course>
  <speed>0.0316227766016838</speed>
  <fix>3d</fix>
</trkpt>
<trkpt lat="33.8106407" lon="-118.393862">
  <ele>-2.39</ele>
  <time>2026-09-02T22:11:28Z</time>
  <course>227.01</course>
  <speed>0.0</speed>
  <fix>3d</fix>
</trkpt>
<trkpt lat="33.8106405" lon="-118.3938618">
  <ele>-2.445</ele>
  <time>2026-09-02T22:11:28Z</time>
  <course>28.14</course>
  <speed>0.0316227766016838</speed>
  <fix>3d</fix>
</trkpt>
<trkpt lat="33.8106407" lon="-118.393862">
  <ele>-2.39</ele>
  <time>2026-09-02T22:11:28Z</time>
  <course>227.01</course>
  <speed>0.0</speed>
  <fix>3d</fix>
</trkpt>
<trkpt lat="33.8106405" lon="-118.3938618">
  <ele>-2.445</ele>
  <time>2026-09-02T22:11:28Z</time>
  <course>28.44</course>
  <speed>0.0316227766016838</speed>
  <fix>3d</fix>
</trkpt>
<trkpt lat="33.8106407" lon="-118.393862">
  <ele>-2.39</ele>
  <time>2026-09-02T22:11:28Z</time>
  <course>226.96</course>
  <speed>0.0</speed>
  <fix>3d</fix>
</trkpt>
<trkpt lat="33.8106405" lon="-118.3938618">
  <ele>-2.446</ele>
  <time>2026-09-02T22:11:28Z</time>
  <course>28.7</course>
  <speed>0.0316227766016838</speed>
  <fix>3d</fix>
</trkpt>
<trkpt lat="33.8106407" lon="-118.393862">
  <ele>-2.39</ele>
  <time>2026-09-02T22:11:28Z</time>
  <course>226.96</course>
  <speed>0.0</speed>
  <fix>3d</fix>
</trkpt>
<trkpt lat="33.8106405" lon="-118.3938618">
  <ele>-2.448</ele>
  <time>2026-09-02T22:11:28Z</time>
  <course>28.94</course>
  <speed>0.0316227766016838</speed>
  <fix>3d</fix>
</trkpt>
<trkpt lat="33.8106407" lon="-118.393862">
  <ele>-2.39</ele>
  <time>2026-09-02T22:11:28Z</time>
  <course>226.77</course>
  <speed>0.0</speed>
  <fix>3d</fix>
</trkpt>
<trkpt lat="33.8106405" lon="-118.3938618">
  <ele>-2.449</ele>
  <time>2026-09-02T22:11:28Z</time>
  <course>29.15</course>
  <speed>0.0316227766016838</speed>
  <fix>3d</fix>
</trkpt>
<trkpt lat="33.8106407" lon="-118.393862">
  <ele>-2.39</ele>
  <time>2026-09-02T22:11:28Z</time>
  <course>226.77</course>
  <speed>0.0</speed>
  <fix>3d</fix>
</trkpt>
<trkpt lat="33.8106405" lon="-118.3938618">
  <ele>-2.45</ele>
  <time>2026-09-02T22:11:28Z</time>
  <course>29.34</course>
  <speed>0.0316227766016838</speed>
  <fix>3d</fix>
</trkpt>
<trkpt lat="33.8106407" lon="-118.393862">
  <ele>-2.39</ele>
  <time>2026-09-02T22:11:28Z</time>
  <course>226.66</course>
  <speed>0.0</speed>
  <fix>3d</fix>
</trkpt>
<trkpt lat="33.8106405" lon="-118.3938618">
  <ele>-2.451</ele>
  <time>2026-09-02T22:11:28Z</time>
  <course>29.52</course>
  <speed>0.0316227766016838</speed>
  <fix>3d</fix>
</trkpt>
<trkpt lat="33.8106407" lon="-118.393862">
  <ele>-2.39</ele>
  <time>2026-09-02T22:11:28Z</time>
  <course>226.66</course>
  <speed>0.0</speed>
  <fix>3d</fix>
</trkpt>
<trkpt lat="33.8106405" lon="-118.3938618">
  <ele>-2.451</ele>
  <time>2026-09-02T22:11:28Z</time>
  <course>29.68</course>
  <speed>0.0316227766016838</speed>
  <fix>3d</fix>
</trkpt>
<trkpt lat="33.8106407" lon="-118.393862">
  <ele>-2.38</ele>
  <time>2026-09-02T22:11:28Z</time>
  <course>226.71</course>
  <speed>0.0</speed>
  <fix>3d</fix>
</trkpt>
<trkpt lat="33.8106405" lon="-118.3938618">
  <ele>-2.45</ele>
  <time>2026-09-02T22:11:28Z</time>
  <course>29.83</course>
  <speed>0.0316227766016838</speed>
  <fix>3d</fix>
</trkpt>
<trkpt lat="33.8106407" lon="-118.393862">
  <ele>-2.38</ele>
  <time>2026-09-02T22:11:28Z</time>
  <course>226.71</course>
  <speed>0.0</speed>
  <fix>3d</fix>
</trkpt>
<trkpt lat="33.8106405" lon="-118.3938618">
  <ele>-2.448</ele>
  <time>2026-09-02T22:11:28Z</time>
  <course>29.98</course>
  <speed>0.0316227766016838</speed>
  <fix>3d</fix>
</trkpt>
<trkpt lat="33.8106407" lon="-118.393862">
  <ele>-2.38</ele>
  <time>2026-09-02T22:11:28Z</time>
  <course>226.77</course>
  <speed>0.0</speed>
  <fix>3d</fix>
</trkpt>
<trkpt lat="33.8106405" lon="-118.3938618">
  <ele>-2.445</ele>
  <time>2026-09-02T22:11:28Z</time>
  <course>30.11</course>
  <speed>0.0316227766016838</speed>
  <fix>3d</fix>
</trkpt>
<trkpt lat="33.8106407" lon="-118.393862">
  <ele>-2.38</ele>
  <time>2026-09-02T22:11:28Z</time>
  <course>226.77</course>
  <speed>0.0</speed>
  <fix>3d</fix>
</trkpt>
<trkpt lat="33.8106405" lon="-118.3938618">
  <ele>-2.442</ele>
  <time>2026-09-02T22:11:28Z</time>
  <course>30.23</course>
  <speed>0.0316227766016838</speed>
  <fix>3d</fix>
</trkpt>
<trkpt lat="33.8106406" lon="-118.393862">
  <ele>-2.37</ele>
  <time>2026-09-02T22:11:28Z</time>
  <course>226.66</course>
  <speed>0.0</speed>
  <fix>3d</fix>
</trkpt>
<trkpt lat="33.8106405" lon="-118.3938618">
  <ele>-2.439</ele>
  <time>2026-09-02T22:11:28Z</time>
  <course>30.35</course>
  <speed>0.0316227766016838</speed>
  <fix>3d</fix>
</trkpt>
<trkpt lat="33.8106406" lon="-118.393862">
  <ele>-2.37</ele>
  <time>2026-09-02T22:11:28Z</time>
  <course>226.66</course>
  <speed>0.0</speed>
  <fix>3d</fix>
</trkpt>
<trkpt lat="33.8106405" lon="-118.3938618">
  <ele>-2.437</ele>
  <time>2026-09-02T22:11:28Z</time>
  <course>30.47</course>
  <speed>0.0316227766016838</speed>
  <fix>3d</fix>
</trkpt>
<trkpt lat="33.8106406" lon="-118.3938621">
  <ele>-2.37</ele>
  <time>2026-09-02T22:11:28Z</time>
  <course>226.28</course>
  <speed>0.0</speed>
  <fix>3d</fix>
</trkpt>
<trkpt lat="33.8106404" lon="-118.3938618">
  <ele>-2.436</ele>
  <time>2026-09-02T22:11:28Z</time>
  <course>30.57</course>
  <speed>0.0316227766016838</speed>
  <fix>3d</fix>
</trkpt>
<trkpt lat="33.8106406" lon="-118.3938621">
  <ele>-2.37</ele>
  <time>2026-09-02T22:11:28Z</time>
  <course>226.28</course>
  <speed>0.0</speed>
  <fix>3d</fix>
</trkpt>
<trkpt lat="33.8106404" lon="-118.3938618">
  <ele>-2.436</ele>
  <time>2026-09-02T22:11:28Z</time>
  <course>30.68</course>
  <speed>0.0316227766016838</speed>
  <fix>3d</fix>
</trkpt>
<trkpt lat="33.8106406" lon="-118.3938621">
  <ele>-2.37</ele>
  <time>2026-09-02T22:11:28Z</time>
  <course>225.87</course>
  <speed>0.0</speed>
  <fix>3d</fix>
</trkpt>
<trkpt lat="33.8106404" lon="-118.3938618">
  <ele>-2.437</ele>
  <time>2026-09-02T22:11:28Z</time>
  <course>30.77</course>
  <speed>0.0316227766016838</speed>
  <fix>3d</fix>
</trkpt>
<trkpt lat="33.8106406" lon="-118.3938621">
  <ele>-2.37</ele>
  <time>2026-09-02T22:11:28Z</time>
  <course>225.87</course>
  <speed>0.0</speed>
  <fix>3d</fix>
</trkpt>
<trkpt lat="33.8106404" lon="-118.3938618">
  <ele>-2.437</ele>
  <time>2026-09-02T22:11:28Z</time>
  <course>30.87</course>
  <speed>0.0316227766016838</speed>
  <fix>3d</fix>
</trkpt>
<trkpt lat="33.8106406" lon="-118.3938621">
  <ele>-2.37</ele>
  <time>2026-09-02T22:11:28Z</time>
  <course>225.62</course>
  <speed>0.0</speed>
  <fix>3d</fix>
</trkpt>
<trkpt lat="33.8106404" lon="-118.3938618">
  <ele>-2.439</ele>
  <time>2026-09-02T22:11:28Z</time>
  <course>30.96</course>
  <speed>0.0316227766016838</speed>
  <fix>3d</fix>
</trkpt>
<trkpt lat="33.8106406" lon="-118.3938621">
  <ele>-2.37</ele>
  <time>2026-09-02T22:11:28Z</time>
  <course>225.62</course>
  <speed>0.0</speed>
  <fix>3d</fix>
</trkpt>
<trkpt lat="33.8106404" lon="-118.3938618">
  <ele>-2.44</ele>
  <time>2026-09-02T22:11:28Z</time>
  <course>31.06</course>
  <speed>0.03605551275463989</speed>
  <fix>3d</fix>
</trkpt>
<trkpt lat="33.8106406" lon="-118.3938621">
  <ele>-2.37</ele>
  <time>2026-09-02T22:11:28Z</time>
  <course>225.47</course>
  <speed>0.0</speed>
  <fix>3d</fix>
</trkpt>
<trkpt lat="33.8106404" lon="-118.3938618">
  <ele>-2.441</ele>
  <time>2026-09-02T22:11:28Z</time>
  <course>31.31</course>
  <speed>0.0282842712474619</speed>
  <fix>3d</fix>
</trkpt>
<trkpt lat="33.8106406" lon="-118.3938621">
  <ele>-2.37</ele>
  <time>2026-09-02T22:11:28Z</time>
  <course>225.47</course>
  <speed>0.0</speed>
  <fix>3d</fix>
</trkpt>
<trkpt lat="33.8106404" lon="-118.3938618">
  <ele>-2.443</ele>
  <time>2026-09-02T22:11:28Z</time>
  <course>31.78</course>
  <speed>0.0282842712474619</speed>
  <fix>3d</fix>
</trkpt>
<trkpt lat="33.8106406" lon="-118.3938621">
  <ele>-2.38</ele>
  <time>2026-09-02T22:11:28Z</time>
  <course>224.74</course>
  <speed>0.0</speed>
  <fix>3d</fix>
</trkpt>
<trkpt lat="33.8106404" lon="-118.3938618">
  <ele>-2.443</ele>
  <time>2026-09-02T22:11:28Z</time>
  <course>32.51</course>
  <speed>0.0282842712474619</speed>
  <fix>3d</fix>
</trkpt>
<trkpt lat="33.8106406" lon="-118.3938621">
  <ele>-2.38</ele>
  <time>2026-09-02T22:11:28Z</time>
  <course>224.74</course>
  <speed>0.0</speed>
  <fix>3d</fix>
</trkpt>
<trkpt lat="33.8106404" lon="-118.3938618">
  <ele>-2.444</ele>
  <time>2026-09-02T22:11:28Z</time>
  <course>33.4</course>
  <speed>0.0282842712474619</speed>
  <fix>3d</fix>
</trkpt>
<trkpt lat="33.8106406" lon="-118.3938621">
  <ele>-2.38</ele>
  <time>2026-09-02T22:11:28Z</time>
  <course>10.17</course>
  <speed>0.0</speed>
  <fix>3d</fix>
</trkpt>
<trkpt lat="33.8106404" lon="-118.3938618">
  <ele>-2.445</ele>
  <time>2026-09-02T22:11:28Z</time>
  <course>34.36</course>
  <speed>0.0282842712474619</speed>
  <fix>3d</fix>
</trkpt>
<trkpt lat="33.8106406" lon="-118.3938621">
  <ele>-2.38</ele>
  <time>2026-09-02T22:11:28Z</time>
  <course>10.17</course>
  <speed>0.0</speed>
  <fix>3d</fix>
</trkpt>
<trkpt lat="33.8106404" lon="-118.3938618">
  <ele>-2.446</ele>
  <time>2026-09-02T22:11:28Z</time>
  <course>35.35</course>
  <speed>0.0282842712474619</speed>
  <fix>3d</fix>
</trkpt>
<trkpt lat="33.8106406" lon="-118.3938621">
  <ele>-2.38</ele>
  <time>2026-09-02T22:11:28Z</time>
  <course>26.64</course>
  <speed>0.0</speed>
  <fix>3d</fix>
</trkpt>
<trkpt lat="33.8106404" lon="-118.3938618">
  <ele>-2.445</ele>
  <time>2026-09-02T22:11:28Z</time>
  <course>36.36</course>
  <speed>0.0282842712474619</speed>
  <fix>3d</fix>
</trkpt>
<trkpt lat="33.8106406" lon="-118.3938621">
  <ele>-2.38</ele>
  <time>2026-09-02T22:11:28Z</time>
  <course>26.64</course>
  <speed>0.0</speed>
  <fix>3d</fix>
</trkpt>
<trkpt lat="33.8106404" lon="-118.3938618">
  <ele>-2.444</ele>
  <time>2026-09-02T22:11:28Z</time>
  <course>37.38</course>
  <speed>0.0282842712474619</speed>
  <fix>3d</fix>
</trkpt>
<trkpt lat="33.8106406" lon="-118.3938621">
  <ele>-2.38</ele>
  <time>2026-09-02T22:11:28Z</time>
  <course>32.27</course>
  <speed>0.0</speed>
  <fix>3d</fix>
</trkpt>
<trkpt lat="33.8106404" lon="-118.3938618">
  <ele>-2.443</ele>
  <time>2026-09-02T22:11:28Z</time>
  <course>38.4</course>
  <speed>0.0282842712474619</speed>
  <fix>3d</fix>
</trkpt>
<trkpt lat="33.8106406" lon="-118.3938621">
  <ele>-2.38</ele>
  <time>2026-09-02T22:11:28Z</time>
  <course>32.27</course>
  <speed>0.0</speed>
  <fix>3d</fix>
</trkpt>
<trkpt lat="33.8106404" lon="-118.3938618">
  <ele>-2.442</ele>
  <time>2026-09-02T22:11:28Z</time>
  <course>39.42</course>
  <speed>0.0282842712474619</speed>
  <fix>3d</fix>
</trkpt>
<trkpt lat="33.8106406" lon="-118.3938621">
  <ele>-2.38</ele>
  <time>2026-09-02T22:11:28Z</time>
  <course>35.17</course>
  <speed>0.0</speed>
  <fix>3d</fix>
</trkpt>
<trkpt lat="33.8106404" lon="-118.3938618">
  <ele>-2.442</ele>
  <time>2026-09-02T22:11:28Z</time>
  <course>40.44</course>
  <speed>0.0282842712474619</speed>
  <fix>3d</fix>
</trkpt>
<trkpt lat="33.8106406" lon="-118.3938621">
  <ele>-2.38</ele>
  <time>2026-09-02T22:11:28Z</time>
  <course>35.17</course>
  <speed>0.0</speed>
  <fix>3d</fix>
</trkpt>
<trkpt lat="33.8106404" lon="-118.3938618">
  <ele>-2.443</ele>
  <time>2026-09-02T22:11:28Z</time>
  <course>41.47</course>
  <speed>0.0282842712474619</speed>
  <fix>3d</fix>
</trkpt>
<trkpt lat="33.8106406" lon="-118.3938621">
  <ele>-2.38</ele>
  <time>2026-09-02T22:11:28Z</time>
  <course>35.74</course>
  <speed>0.0</speed>
  <fix>3d</fix>
</trkpt>
<trkpt lat="33.8106404" lon="-118.3938618">
  <ele>-2.444</ele>
  <time>2026-09-02T22:11:28Z</time>
  <course>42.5</course>
  <speed>0.0282842712474619</speed>
  <fix>3d</fix>
</trkpt>
<trkpt lat="33.8106406" lon="-118.3938621">
  <ele>-2.38</ele>
  <time>2026-09-02T22:11:28Z</time>
  <course>35.74</course>
  <speed>0.0</speed>
  <fix>3d</fix>
</trkpt>
<trkpt lat="33.8106404" lon="-118.3938618">
  <ele>-2.444</ele>
  <time>2026-09-02T22:11:28Z</time>
  <course>43.54</course>
  <speed>0.0282842712474619</speed>
  <fix>3d</fix>
</trkpt>
<trkpt lat="33.8106406" lon="-118.3938621">
  <ele>-2.38</ele>
  <time>2026-09-02T22:11:28Z</time>
  <course>32.94</course>
  <speed>0.0</speed>
  <fix>3d</fix>
</trkpt>
<trkpt lat="33.8106404" lon="-118.3938618">
  <ele>-2.443</ele>
  <time>2026-09-02T22:11:28Z</time>
  <course>44.57</course>
  <speed>0.0282842712474619</speed>
  <fix>3d</fix>
</trkpt>
<trkpt lat="33.8106406" lon="-118.3938621">
  <ele>-2.38</ele>
  <time>2026-09-02T22:11:28Z</time>
  <course>32.94</course>
  <speed>0.0</speed>
  <fix>3d</fix>
</trkpt>
<trkpt lat="33.8106404" lon="-118.3938618">
  <ele>-2.442</ele>
  <time>2026-09-02T22:11:28Z</time>
  <course>45.6</course>
  <speed>0.0282842712474619</speed>
  <fix>3d</fix>
</trkpt>
<trkpt lat="33.8106406" lon="-118.3938621">
  <ele>-2.38</ele>
  <time>2026-09-02T22:11:28Z</time>
  <course>29.21</course>
  <speed>0.0</speed>
  <fix>3d</fix>
</trkpt>
<trkpt lat="33.8106404" lon="-118.3938618">
  <ele>-2.441</ele>
  <time>2026-09-02T22:11:28Z</time>
  <course>46.63</course>
  <speed>0.0282842712474619</speed>
  <fix>3d</fix>
</trkpt>
<trkpt lat="33.8106406" lon="-118.3938621">
  <ele>-2.38</ele>
  <time>2026-09-02T22:11:28Z</time>
  <course>29.21</course>
  <speed>0.0</speed>
  <fix>3d</fix>
</trkpt>
<trkpt lat="33.8106404" lon="-118.3938618">
  <ele>-2.441</ele>
  <time>2026-09-02T22:11:28Z</time>
  <course>47.65</course>
  <speed>0.0282842712474619</speed>
  <fix>3d</fix>
</trkpt>
<trkpt lat="33.8106406" lon="-118.3938621">
  <ele>-2.38</ele>
  <time>2026-09-02T22:11:28Z</time>
  <course>28.31</course>
  <speed>0.0</speed>
  <fix>3d</fix>
</trkpt>
<trkpt lat="33.8106404" lon="-118.3938618">
  <ele>-2.441</ele>
  <time>2026-09-02T22:11:28Z</time>
  <course>48.68</course>
  <speed>0.0282842712474619</speed>
  <fix>3d</fix>
</trkpt>
<trkpt lat="33.8106406" lon="-118.3938621">
  <ele>-2.38</ele>
  <time>2026-09-02T22:11:28Z</time>
  <course>28.31</course>
  <speed>0.0</speed>
  <fix>3d</fix>
</trkpt>
<trkpt lat="33.8106404" lon="-118.3938618">
  <ele>-2.443</ele>
  <time>2026-09-02T22:11:28Z</time>
  <course>49.7</course>
  <speed>0.0282842712474619</speed>
  <fix>3d</fix>
</trkpt>
<trkpt lat="33.8106406" lon="-118.3938621">
  <ele>-2.38</ele>
  <time>2026-09-02T22:11:28Z</time>
  <course>28.82</course>
  <speed>0.0</speed>
  <fix>3d</fix>
</trkpt>
<trkpt lat="33.8106404" lon="-118.3938618">
  <ele>-2.445</ele>
  <time>2026-09-02T22:11:28Z</time>
  <course>50.74</course>
  <speed>0.0282842712474619</speed>
  <fix>3d</fix>
</trkpt>
<trkpt lat="33.8106406" lon="-118.3938621">
  <ele>-2.38</ele>
  <time>2026-09-02T22:11:28Z</time>
  <course>28.82</course>
  <speed>0.0</speed>
  <fix>3d</fix>
</trkpt>
<trkpt lat="33.8106404" lon="-118.3938618">
  <ele>-2.446</ele>
  <time>2026-09-02T22:11:28Z</time>
  <course>51.76</course>
  <speed>0.0282842712474619</speed>
  <fix>3d</fix>
</trkpt>
<trkpt lat="33.8106406" lon="-118.3938621">
  <ele>-2.38</ele>
  <time>2026-09-02T22:11:28Z</time>
  <course>29.14</course>
  <speed>0.0</speed>
  <fix>3d</fix>
</trkpt>
<trkpt lat="33.8106404" lon="-118.3938618">
  <ele>-2.447</ele>
  <time>2026-09-02T22:11:28Z</time>
  <course>52.79</course>
  <speed>0.0282842712474619</speed>
  <fix>3d</fix>
</trkpt>
<trkpt lat="33.8106406" lon="-118.3938621">
  <ele>-2.38</ele>
  <time>2026-09-02T22:11:28Z</time>
  <course>29.14</course>
  <speed>0.0</speed>
  <fix>3d</fix>
</trkpt>
<trkpt lat="33.8106404" lon="-118.3938618">
  <ele>-2.447</ele>
  <time>2026-09-02T22:11:28Z</time>
  <course>53.82</course>
  <speed>0.0282842712474619</speed>
  <fix>3d</fix>
</trkpt>
<trkpt lat="33.8106406" lon="-118.3938621">
  <ele>-2.38</ele>
  <time>2026-09-02T22:11:28Z</time>
  <course>29.41</course>
  <speed>0.0</speed>
  <fix>3d</fix>
</trkpt>
<trkpt lat="33.8106404" lon="-118.3938618">
  <ele>-2.446</ele>
  <time>2026-09-02T22:11:28Z</time>
  <course>54.84</course>
  <speed>0.0282842712474619</speed>
  <fix>3d</fix>
</trkpt>
<trkpt lat="33.8106406" lon="-118.3938621">
  <ele>-2.38</ele>
  <time>2026-09-02T22:11:28Z</time>
  <course>29.41</course>
  <speed>0.0</speed>
  <fix>3d</fix>
</trkpt>
<trkpt lat="33.8106404" lon="-118.3938618">
  <ele>-2.446</ele>
  <time>2026-09-02T22:11:28Z</time>
  <course>55.87</course>
  <speed>0.0282842712474619</speed>
  <fix>3d</fix>
</trkpt>
<trkpt lat="33.8106406" lon="-118.3938621">
  <ele>-2.38</ele>
  <time>2026-09-02T22:11:28Z</time>
  <course>29.9</course>
  <speed>0.0</speed>
  <fix>3d</fix>
</trkpt>
<trkpt lat="33.8106404" lon="-118.3938618">
  <ele>-2.446</ele>
  <time>2026-09-02T22:11:28Z</time>
  <course>56.85</course>
  <speed>0.0282842712474619</speed>
  <fix>3d</fix>
</trkpt>
<trkpt lat="33.8106406" lon="-118.3938621">
  <ele>-2.38</ele>
  <time>2026-09-02T22:11:28Z</time>
  <course>29.9</course>
  <speed>0.0</speed>
  <fix>3d</fix>
</trkpt>
<trkpt lat="33.8106404" lon="-118.3938618">
  <ele>-2.446</ele>
  <time>2026-09-02T22:11:28Z</time>
  <course>57.58</course>
  <speed>0.03605551275463989</speed>
  <fix>3d</fix>
</trkpt>
<trkpt lat="33.8106406" lon="-118.3938621">
  <ele>-2.38</ele>
  <time>2026-09-02T22:11:28Z</time>
  <course>31.98</course>
  <speed>0.0</speed>
  <fix>3d</fix>
</trkpt>
<trkpt lat="33.8106404" lon="-118.3938618">
  <ele>-2.445</ele>
  <time>2026-09-02T22:11:28Z</time>
  <course>58.12</course>
  <speed>0.03605551275463989</speed>
  <fix>3d</fix>
</trkpt>
<trkpt lat="33.8106406" lon="-118.3938621">
  <ele>-2.38</ele>
  <time>2026-09-02T22:11:28Z</time>
  <course>31.98</course>
  <speed>0.0</speed>
  <fix>3d</fix>
</trkpt>
<trkpt lat="33.8106404" lon="-118.3938618">
  <ele>-2.444</ele>
  <time>2026-09-02T22:11:28Z</time>
  <course>58.55</course>
  <speed>0.03605551275463989</speed>
  <fix>3d</fix>
</trkpt>
<trkpt lat="33.8106406" lon="-118.3938621">
  <ele>-2.38</ele>
  <time>2026-09-02T22:11:28Z</time>
  <course>33.79</course>
  <speed>0.0</speed>
  <fix>3d</fix>
</trkpt>
<trkpt lat="33.8106404" lon="-118.3938618">
  <ele>-2.444</ele>
  <time>2026-09-02T22:11:28Z</time>
  <course>58.91</course>
  <speed>0.03605551275463989</speed>
  <fix>3d</fix>
</trkpt>
<trkpt lat="33.8106406" lon="-118.3938621">
  <ele>-2.38</ele>
  <time>2026-09-02T22:11:28Z</time>
  <course>33.79</course>
  <speed>0.0</speed>
  <fix>3d</fix>
</trkpt>
<trkpt lat="33.8106404" lon="-118.3938618">
  <ele>-2.445</ele>
  <time>2026-09-02T22:11:28Z</time>
  <course>59.22</course>
  <speed>0.03605551275463989</speed>
  <fix>3d</fix>
</trkpt>
<trkpt lat="33.8106406" lon="-118.3938621">
  <ele>-2.38</ele>
  <time>2026-09-02T22:11:28Z</time>
  <course>34.04</course>
  <speed>0.0</speed>
  <fix>3d</fix>
</trkpt>
<trkpt lat="33.8106404" lon="-118.3938618">
  <ele>-2.445</ele>
  <time>2026-09-02T22:11:28Z</time>
  <course>59.49</course>
  <speed>0.03605551275463989</speed>
  <fix>3d</fix>
</trkpt>
<trkpt lat="33.8106406" lon="-118.3938621">
  <ele>-2.38</ele>
  <time>2026-09-02T22:11:28Z</time>
  <course>34.04</course>
  <speed>0.0</speed>
  <fix>3d</fix>
</trkpt>
<trkpt lat="33.8106404" lon="-118.3938618">
  <ele>-2.444</ele>
  <time>2026-09-02T22:11:28Z</time>
  <course>59.73</course>
  <speed>0.03605551275463989</speed>
  <fix>3d</fix>
</trkpt>
<trkpt lat="33.8106406" lon="-118.3938621">
  <ele>-2.37</ele>
  <time>2026-09-02T22:11:28Z</time>
  <course>34.16</course>
  <speed>0.0</speed>
  <fix>3d</fix>
</trkpt>
<trkpt lat="33.8106404" lon="-118.3938618">
  <ele>-2.443</ele>
  <time>2026-09-02T22:11:28Z</time>
  <course>59.95</course>
  <speed>0.03605551275463989</speed>
  <fix>3d</fix>
</trkpt>
<trkpt lat="33.8106406" lon="-118.3938621">
  <ele>-2.37</ele>
  <time>2026-09-02T22:11:28Z</time>
  <course>34.16</course>
  <speed>0.0</speed>
  <fix>3d</fix>
</trkpt>
<trkpt lat="33.8106404" lon="-118.3938618">
  <ele>-2.442</ele>
  <time>2026-09-02T22:11:28Z</time>
  <course>60.15</course>
  <speed>0.03605551275463989</speed>
  <fix>3d</fix>
</trkpt>
<trkpt lat="33.8106406" lon="-118.3938621">
  <ele>-2.37</ele>
  <time>2026-09-02T22:11:28Z</time>
  <course>34.22</course>
  <speed>0.0</speed>
  <fix>3d</fix>
</trkpt>
<trkpt lat="33.8106404" lon="-118.3938618">
  <ele>-2.441</ele>
  <time>2026-09-02T22:11:28Z</time>
  <course>60.33</course>
  <speed>0.03605551275463989</speed>
  <fix>3d</fix>
</trkpt>
<trkpt lat="33.8106406" lon="-118.3938621">
  <ele>-2.37</ele>
  <time>2026-09-02T22:11:28Z</time>
  <course>34.22</course>
  <speed>0.0</speed>
  <fix>3d</fix>
</trkpt>
<trkpt lat="33.8106404" lon="-118.3938618">
  <ele>-2.44</ele>
  <time>2026-09-02T22:11:28Z</time>
  <course>60.49</course>
  <speed>0.0316227766016838</speed>
  <fix>3d</fix>
</trkpt>
<trkpt lat="33.8106406" lon="-118.3938621">
  <ele>-2.37</ele>
  <time>2026-09-02T22:11:28Z</time>
  <course>34.38</course>
  <speed>0.0</speed>
  <fix>3d</fix>
</trkpt>
<trkpt lat="33.8106404" lon="-118.3938618">
  <ele>-2.439</ele>
  <time>2026-09-02T22:11:28Z</time>
  <course>60.65</course>
  <speed>0.0316227766016838</speed>
  <fix>3d</fix>
</trkpt>
<trkpt lat="33.8106406" lon="-118.3938621">
  <ele>-2.37</ele>
  <time>2026-09-02T22:11:28Z</time>
  <course>34.38</course>
  <speed>0.0</speed>
  <fix>3d</fix>
</trkpt>
<trkpt lat="33.8106404" lon="-118.3938618">
  <ele>-2.439</ele>
  <time>2026-09-02T22:11:28Z</time>
  <course>60.79</course>
  <speed>0.0316227766016838</speed>
  <fix>3d</fix>
</trkpt>
<trkpt lat="33.8106406" lon="-118.3938621">
  <ele>-2.37</ele>
  <time>2026-09-02T22:11:28Z</time>
  <course>34.7</course>
  <speed>0.0</speed>
  <fix>3d</fix>
</trkpt>
<trkpt lat="33.8106404" lon="-118.3938618">
  <ele>-2.439</ele>
  <time>2026-09-02T22:11:28Z</time>
  <course>60.92</course>
  <speed>0.0316227766016838</speed>
  <fix>3d</fix>
</trkpt>
<trkpt lat="33.8106406" lon="-118.3938621">
  <ele>-2.37</ele>
  <time>2026-09-02T22:11:28Z</time>
  <course>34.7</course>
  <speed>0.0</speed>
  <fix>3d</fix>
</trkpt>
<trkpt lat="33.8106404" lon="-118.3938618">
  <ele>-2.439</ele>
  <time>2026-09-02T22:11:28Z</time>
  <course>61.05</course>
  <speed>0.0316227766016838</speed>
  <fix>3d</fix>
</trkpt>
<trkpt lat="33.8106406" lon="-118.3938621">
  <ele>-2.37</ele>
  <time>2026-09-02T22:11:28Z</time>
  <course>35.05</course>
  <speed>0.0</speed>
  <fix>3d</fix>
</trkpt>
<trkpt lat="33.8106404" lon="-118.3938618">
  <ele>-2.438</ele>
  <time>2026-09-02T22:11:28Z</time>
  <course>61.17</course>
  <speed>0.0316227766016838</speed>
  <fix>3d</fix>
</trkpt>
<trkpt lat="33.8106406" lon="-118.3938621">
  <ele>-2.37</ele>
  <time>2026-09-02T22:11:28Z</time>
  <course>35.05</course>
  <speed>0.0</speed>
  <fix>3d</fix>
</trkpt>
<trkpt lat="33.8106404" lon="-118.3938618">
  <ele>-2.436</ele>
  <time>2026-09-02T22:11:28Z</time>
  <course>61.28</course>
  <speed>0.0316227766016838</speed>
  <fix>3d</fix>
</trkpt>
<trkpt lat="33.8106407" lon="-118.3938621">
  <ele>-2.37</ele>
  <time>2026-09-02T22:11:28Z</time>
  <course>35.33</course>
  <speed>0.0</speed>
  <fix>3d</fix>
</trkpt>
<trkpt lat="33.8106404" lon="-118.3938618">
  <ele>-2.437</ele>
  <time>2026-09-02T22:11:28Z</time>
  <course>61.39</course>
  <speed>0.0316227766016838</speed>
  <fix>3d</fix>
</trkpt>
<trkpt lat="33.8106407" lon="-118.3938621">
  <ele>-2.37</ele>
  <time>2026-09-02T22:11:28Z</time>
  <course>35.33</course>
  <speed>0.0</speed>
  <fix>3d</fix>
</trkpt>
<trkpt lat="33.8106404" lon="-118.3938618">
  <ele>-2.438</ele>
  <time>2026-09-02T22:11:28Z</time>
  <course>61.49</course>
  <speed>0.0316227766016838</speed>
  <fix>3d</fix>
</trkpt>
<trkpt lat="33.8106407" lon="-118.3938621">
  <ele>-2.38</ele>
  <time>2026-09-02T22:11:28Z</time>
  <course>35.58</course>
  <speed>0.0</speed>
  <fix>3d</fix>
</trkpt>
<trkpt lat="33.8106404" lon="-118.3938618">
  <ele>-2.441</ele>
  <time>2026-09-02T22:11:28Z</time>
  <course>61.59</course>
  <speed>0.0316227766016838</speed>
  <fix>3d</fix>
</trkpt>
<trkpt lat="33.8106407" lon="-118.3938621">
  <ele>-2.38</ele>
  <time>2026-09-02T22:11:28Z</time>
  <course>35.58</course>
  <speed>0.0</speed>
  <fix>3d</fix>
</trkpt>
<trkpt lat="33.8106404" lon="-118.3938618">
  <ele>-2.443</ele>
  <time>2026-09-02T22:11:28Z</time>
  <course>61.68</course>
  <speed>0.0316227766016838</speed>
  <fix>3d</fix>
</trkpt>
<trkpt lat="33.8106407" lon="-118.3938621">
  <ele>-2.38</ele>
  <time>2026-09-02T22:11:28Z</time>
  <course>35.8</course>
  <speed>0.0</speed>
  <fix>3d</fix>
</trkpt>
<trkpt lat="33.8106404" lon="-118.3938619">
  <ele>-2.446</ele>
  <time>2026-09-02T22:11:28Z</time>
  <course>61.6</course>
  <speed>0.0316227766016838</speed>
  <fix>3d</fix>
</trkpt>
<trkpt lat="33.8106407" lon="-118.3938621">
  <ele>-2.38</ele>
  <time>2026-09-02T22:11:28Z</time>
  <course>35.8</course>
  <speed>0.0</speed>
  <fix>3d</fix>
</trkpt>
<trkpt lat="33.8106404" lon="-118.3938618">
  <ele>-2.449</ele>
  <time>2026-09-02T22:11:28Z</time>
  <course>61.24</course>
  <speed>0.03605551275463989</speed>
  <fix>3d</fix>
</trkpt>
<trkpt lat="33.8106407" lon="-118.3938621">
  <ele>-2.38</ele>
  <time>2026-09-02T22:11:28Z</time>
  <course>46.61</course>
  <speed>0.01</speed>
  <fix>3d</fix>
</trkpt>
<trkpt lat="33.8106404" lon="-118.3938618">
  <ele>-2.45</ele>
  <time>2026-09-02T22:11:28Z</time>
  <course>60.64</course>
  <speed>0.03605551275463989</speed>
  <fix>3d</fix>
</trkpt>
<trkpt lat="33.8106407" lon="-118.3938621">
  <ele>-2.38</ele>
  <time>2026-09-02T22:11:28Z</time>
  <course>46.61</course>
  <speed>0.01</speed>
  <fix>3d</fix>
</trkpt>
<trkpt lat="33.8106404" lon="-118.3938618">
  <ele>-2.451</ele>
  <time>2026-09-02T22:11:28Z</time>
  <course>59.89</course>
  <speed>0.03605551275463989</speed>
  <fix>3d</fix>
</trkpt>
<trkpt lat="33.8106407" lon="-118.393862">
  <ele>-2.39</ele>
  <time>2026-09-02T22:11:28Z</time>
  <course>58.34</course>
  <speed>0.01</speed>
  <fix>3d</fix>
</trkpt>
<trkpt lat="33.8106404" lon="-118.3938618">
  <ele>-2.452</ele>
  <time>2026-09-02T22:11:28Z</time>
  <course>59.02</course>
  <speed>0.03605551275463989</speed>
  <fix>3d</fix>
</trkpt>
<trkpt lat="33.8106407" lon="-118.393862">
  <ele>-2.39</ele>
  <time>2026-09-02T22:11:28Z</time>
  <course>58.34</course>
  <speed>0.01</speed>
  <fix>3d</fix>
</trkpt>
<trkpt lat="33.8106404" lon="-118.3938618">
  <ele>-2.452</ele>
  <time>2026-09-02T22:11:28Z</time>
  <course>58.06</course>
  <speed>0.03605551275463989</speed>
  <fix>3d</fix>
</trkpt>
<trkpt lat="33.8106407" lon="-118.393862">
  <ele>-2.39</ele>
  <time>2026-09-02T22:11:28Z</time>
  <course>65.04</course>
  <speed>0.02</speed>
  <fix>3d</fix>
</trkpt>
<trkpt lat="33.8106404" lon="-118.3938618">
  <ele>-2.45</ele>
  <time>2026-09-02T22:11:28Z</time>
  <course>57.09</course>
  <speed>0.03605551275463989</speed>
  <fix>3d</fix>
</trkpt>
<trkpt lat="33.8106407" lon="-118.393862">
  <ele>-2.39</ele>
  <time>2026-09-02T22:11:28Z</time>
  <course>65.04</course>
  <speed>0.02</speed>
  <fix>3d</fix>
</trkpt>
<trkpt lat="33.8106404" lon="-118.3938618">
  <ele>-2.448</ele>
  <time>2026-09-02T22:11:28Z</time>
  <course>56.08</course>
  <speed>0.03605551275463989</speed>
  <fix>3d</fix>
</trkpt>
<trkpt lat="33.8106407" lon="-118.3938619">
  <ele>-2.38</ele>
  <time>2026-09-02T22:11:28Z</time>
  <course>69.0</course>
  <speed>0.02</speed>
  <fix>3d</fix>
</trkpt>
<trkpt lat="33.8106404" lon="-118.3938618">
  <ele>-2.444</ele>
  <time>2026-09-02T22:11:28Z</time>
  <course>55.08</course>
  <speed>0.03605551275463989</speed>
  <fix>3d</fix>
</trkpt>
<trkpt lat="33.8106407" lon="-118.3938619">
  <ele>-2.38</ele>
  <time>2026-09-02T22:11:28Z</time>
  <course>69.0</course>
  <speed>0.02</speed>
  <fix>3d</fix>
</trkpt>
<trkpt lat="33.8106404" lon="-118.3938618">
  <ele>-2.44</ele>
  <time>2026-09-02T22:11:28Z</time>
  <course>54.07</course>
  <speed>0.0316227766016838</speed>
  <fix>3d</fix>
</trkpt>
<trkpt lat="33.8106407" lon="-118.3938619">
  <ele>-2.38</ele>
  <time>2026-09-02T22:11:28Z</time>
  <course>71.09</course>
  <speed>0.01</speed>
  <fix>3d</fix>
</trkpt>
<trkpt lat="33.8106404" lon="-118.3938618">
  <ele>-2.437</ele>
  <time>2026-09-02T22:11:28Z</time>
  <course>53.03</course>
  <speed>0.0316227766016838</speed>
  <fix>3d</fix>
</trkpt>
<trkpt lat="33.8106407" lon="-118.3938619">
  <ele>-2.38</ele>
  <time>2026-09-02T22:11:28Z</time>
  <course>71.09</course>
  <speed>0.01</speed>
  <fix>3d</fix>
</trkpt>
<trkpt lat="33.8106404" lon="-118.3938618">
  <ele>-2.437</ele>
  <time>2026-09-02T22:11:28Z</time>
  <course>52.0</course>
  <speed>0.0316227766016838</speed>
  <fix>3d</fix>
</trkpt>
<trkpt lat="33.8106408" lon="-118.3938619">
  <ele>-2.38</ele>
  <time>2026-09-02T22:11:28Z</time>
  <course>72.34</course>
  <speed>0.01</speed>
  <fix>3d</fix>
</trkpt>
<trkpt lat="33.8106404" lon="-118.3938618">
  <ele>-2.437</ele>
  <time>2026-09-02T22:11:28Z</time>
  <course>50.96</course>
  <speed>0.0316227766016838</speed>
  <fix>3d</fix>
</trkpt>
<trkpt lat="33.8106408" lon="-118.3938619">
  <ele>-2.38</ele>
  <time>2026-09-02T22:11:28Z</time>
  <course>72.34</course>
  <speed>0.01</speed>
  <fix>3d</fix>
</trkpt>
<trkpt lat="33.8106404" lon="-118.3938618">
  <ele>-2.439</ele>
  <time>2026-09-02T22:11:28Z</time>
  <course>49.9</course>
  <speed>0.0316227766016838</speed>
  <fix>3d</fix>
</trkpt>
<trkpt lat="33.8106408" lon="-118.3938618">
  <ele>-2.38</ele>
  <time>2026-09-02T22:11:28Z</time>
  <course>76.96</course>
  <speed>0.01</speed>
  <fix>3d</fix>
</trkpt>
<trkpt lat="33.8106404" lon="-118.3938618">
  <ele>-2.439</ele>
  <time>2026-09-02T22:11:28Z</time>
  <course>48.86</course>
  <speed>0.0412310562561766</speed>
  <fix>3d</fix>
</trkpt>
<trkpt lat="33.8106408" lon="-118.3938618">
  <ele>-2.38</ele>
  <time>2026-09-02T22:11:28Z</time>
  <course>76.96</course>
  <speed>0.01</speed>
  <fix>3d</fix>
</trkpt>
<trkpt lat="33.8106404" lon="-118.3938618">
  <ele>-2.44</ele>
  <time>2026-09-02T22:11:28Z</time>
  <course>47.81</course>
  <speed>0.04</speed>
  <fix>3d</fix>
</trkpt>
<trkpt lat="33.8106408" lon="-118.3938618">
  <ele>-2.38</ele>
  <time>2026-09-02T22:11:28Z</time>
  <course>88.01</course>
  <speed>0.01</speed>
  <fix>3d</fix>
</trkpt>
<trkpt lat="33.8106404" lon="-118.3938618">
  <ele>-2.44</ele>
  <time>2026-09-02T22:11:29Z</time>
  <course>46.77</course>
  <speed>0.04</speed>
  <fix>3d</fix>
</trkpt>
<trkpt lat="33.8106408" lon="-118.3938618">
  <ele>-2.38</ele>
  <time>2026-09-02T22:11:29Z</time>
  <course>88.01</course>
  <speed>0.01</speed>
  <fix>3d</fix>
</trkpt>
<trkpt lat="33.8106404" lon="-118.3938618">
  <ele>-2.44</ele>
  <time>2026-09-02T22:11:29Z</time>
  <course>45.71</course>
  <speed>0.04</speed>
  <fix>3d</fix>
</trkpt>
<trkpt lat="33.8106408" lon="-118.3938618">
  <ele>-2.38</ele>
  <time>2026-09-02T22:11:29Z</time>
  <course>102.54</course>
  <speed>0.0</speed>
  <fix>3d</fix>
</trkpt>
<trkpt lat="33.8106404" lon="-118.3938618">
  <ele>-2.441</ele>
  <time>2026-09-02T22:11:29Z</time>
  <course>44.66</course>
  <speed>0.04</speed>
  <fix>3d</fix>
</trkpt>
<trkpt lat="33.8106408" lon="-118.3938618">
  <ele>-2.38</ele>
  <time>2026-09-02T22:11:29Z</time>
  <course>102.54</course>
  <speed>0.0</speed>
  <fix>3d</fix>
</trkpt>
<trkpt lat="33.8106404" lon="-118.3938618">
  <ele>-2.443</ele>
  <time>2026-09-02T22:11:29Z</time>
  <course>43.6</course>
  <speed>0.04</speed>
  <fix>3d</fix>
</trkpt>
<trkpt lat="33.8106408" lon="-118.3938618">
  <ele>-2.38</ele>
  <time>2026-09-02T22:11:29Z</time>
  <course>116.35</course>
  <speed>0.0</speed>
  <fix>3d</fix>
</trkpt>
<trkpt lat="33.8106404" lon="-118.3938618">
  <ele>-2.444</ele>
  <time>2026-09-02T22:11:29Z</time>
  <course>42.54</course>
  <speed>0.04</speed>
  <fix>3d</fix>
</trkpt>
<trkpt lat="33.8106408" lon="-118.3938618">
  <ele>-2.38</ele>
  <time>2026-09-02T22:11:29Z</time>
  <course>116.35</course>
  <speed>0.0</speed>
  <fix>3d</fix>
</trkpt>
<trkpt lat="33.8106404" lon="-118.3938618">
  <ele>-2.445</ele>
  <time>2026-09-02T22:11:29Z</time>
  <course>41.48</course>
  <speed>0.04</speed>
  <fix>3d</fix>
</trkpt>
<trkpt lat="33.8106408" lon="-118.3938618">
  <ele>-2.39</ele>
  <time>2026-09-02T22:11:29Z</time>
  <course>125.68</course>
  <speed>0.0</speed>
  <fix>3d</fix>
</trkpt>
<trkpt lat="33.8106404" lon="-118.3938618">
  <ele>-2.446</ele>
  <time>2026-09-02T22:11:29Z</time>
  <course>40.44</course>
  <speed>0.04</speed>
  <fix>3d</fix>
</trkpt>
<trkpt lat="33.8106408" lon="-118.3938618">
  <ele>-2.39</ele>
  <time>2026-09-02T22:11:29Z</time>
  <course>125.68</course>
  <speed>0.0</speed>
  <fix>3d</fix>
</trkpt>
<trkpt lat="33.8106404" lon="-118.3938618">
  <ele>-2.447</ele>
  <time>2026-09-02T22:11:29Z</time>
  <course>39.39</course>
  <speed>0.04</speed>
  <fix>3d</fix>
</trkpt>
<trkpt lat="33.8106408" lon="-118.3938617">
  <ele>-2.39</ele>
  <time>2026-09-02T22:11:29Z</time>
  <course>130.54</course>
  <speed>0.01</speed>
  <fix>3d</fix>
</trkpt>
<trkpt lat="33.8106404" lon="-118.3938618">
  <ele>-2.447</ele>
  <time>2026-09-02T22:11:29Z</time>
  <course>38.34</course>
  <speed>0.04</speed>
  <fix>3d</fix>
</trkpt>
<trkpt lat="33.8106408" lon="-118.3938617">
  <ele>-2.39</ele>
  <time>2026-09-02T22:11:29Z</time>
  <course>130.54</course>
  <speed>0.01</speed>
  <fix>3d</fix>
</trkpt>
<trkpt lat="33.8106404" lon="-118.3938618">
  <ele>-2.449</ele>
  <time>2026-09-02T22:11:29Z</time>
  <course>37.28</course>
  <speed>0.04</speed>
  <fix>3d</fix>
</trkpt>
<trkpt lat="33.8106408" lon="-118.3938616">
  <ele>-2.39</ele>
  <time>2026-09-02T22:11:29Z</time>
  <course>133.33</course>
  <speed>0.01</speed>
  <fix>3d</fix>
</trkpt>
<trkpt lat="33.8106404" lon="-118.3938618">
  <ele>-2.449</ele>
  <time>2026-09-02T22:11:29Z</time>
  <course>36.24</course>
  <speed>0.04</speed>
  <fix>3d</fix>
</trkpt>
<trkpt lat="33.8106408" lon="-118.3938616">
  <ele>-2.39</ele>
  <time>2026-09-02T22:11:29Z</time>
  <course>133.33</course>
  <speed>0.01</speed>
  <fix>3d</fix>
</trkpt>
<trkpt lat="33.8106404" lon="-118.3938618">
  <ele>-2.449</ele>
  <time>2026-09-02T22:11:29Z</time>
  <course>35.19</course>
  <speed>0.04</speed>
  <fix>3d</fix>
</trkpt>
<trkpt lat="33.8106408" lon="-118.3938616">
  <ele>-2.39</ele>
  <time>2026-09-02T22:11:29Z</time>
  <course>137.63</course>
  <speed>0.01</speed>
  <fix>3d</fix>
</trkpt>
<trkpt lat="33.8106404" lon="-118.3938618">
  <ele>-2.449</ele>
  <time>2026-09-02T22:11:29Z</time>
  <course>34.16</course>
  <speed>0.04</speed>
  <fix>3d</fix>
</trkpt>
<trkpt lat="33.8106408" lon="-118.3938616">
  <ele>-2.39</ele>
  <time>2026-09-02T22:11:29Z</time>
  <course>137.63</course>
  <speed>0.01</speed>
  <fix>3d</fix>
</trkpt>
<trkpt lat="33.8106404" lon="-118.3938617">
  <ele>-2.448</ele>
  <time>2026-09-02T22:11:29Z</time>
  <course>33.12</course>
  <speed>0.04</speed>
  <fix>3d</fix>
</trkpt>
<trkpt lat="33.8106408" lon="-118.3938616">
  <ele>-2.38</ele>
  <time>2026-09-02T22:11:29Z</time>
  <course>146.54</course>
  <speed>0.01</speed>
  <fix>3d</fix>
</trkpt>
<trkpt lat="33.8106404" lon="-118.3938617">
  <ele>-2.446</ele>
  <time>2026-09-02T22:11:29Z</time>
  <course>32.09</course>
  <speed>0.04</speed>
  <fix>3d</fix>
</trkpt>
<trkpt lat="33.8106408" lon="-118.3938616">
  <ele>-2.38</ele>
  <time>2026-09-02T22:11:29Z</time>
  <course>146.54</course>
  <speed>0.01</speed>
  <fix>3d</fix>
</trkpt>
<trkpt lat="33.8106404" lon="-118.3938617">
  <ele>-2.445</ele>
  <time>2026-09-02T22:11:29Z</time>
  <course>31.05</course>
  <speed>0.04</speed>
  <fix>3d</fix>
</trkpt>
<trkpt lat="33.8106408" lon="-118.3938616">
  <ele>-2.38</ele>
  <time>2026-09-02T22:11:29Z</time>
  <course>157.67</course>
  <speed>0.01</speed>
  <fix>3d</fix>
</trkpt>
<trkpt lat="33.8106404" lon="-118.3938617">
  <ele>-2.444</ele>
  <time>2026-09-02T22:11:29Z</time>
  <course>30.01</course>
  <speed>0.04</speed>
  <fix>3d</fix>
</trkpt>
<trkpt lat="33.8106408" lon="-118.3938616">
  <ele>-2.38</ele>
  <time>2026-09-02T22:11:29Z</time>
  <course>157.67</course>
  <speed>0.01</speed>
  <fix>3d</fix>
</trkpt>
<trkpt lat="33.8106404" lon="-118.3938617">
  <ele>-2.442</ele>
  <time>2026-09-02T22:11:29Z</time>
  <course>28.97</course>
  <speed>0.04</speed>
  <fix>3d</fix>
</trkpt>
<trkpt lat="33.8106408" lon="-118.3938616">
  <ele>-2.37</ele>
  <time>2026-09-02T22:11:29Z</time>
  <course>166.21</course>
  <speed>0.01</speed>
  <fix>3d</fix>
</trkpt>
<trkpt lat="33.8106404" lon="-118.3938617">
  <ele>-2.44</ele>
  <time>2026-09-02T22:11:29Z</time>
  <course>27.92</course>
  <speed>0.04</speed>
  <fix>3d</fix>
</trkpt>
<trkpt lat="33.8106408" lon="-118.3938616">
  <ele>-2.37</ele>
  <time>2026-09-02T22:11:29Z</time>
  <course>166.21</course>
  <speed>0.01</speed>
  <fix>3d</fix>
</trkpt>
<trkpt lat="33.8106404" lon="-118.3938617">
  <ele>-2.439</ele>
  <time>2026-09-02T22:11:29Z</time>
  <course>26.88</course>
  <speed>0.04</speed>
  <fix>3d</fix>
</trkpt>
<trkpt lat="33.8106407" lon="-118.3938616">
  <ele>-2.37</ele>
  <time>2026-09-02T22:11:29Z</time>
  <course>171.03</course>
  <speed>0.01</speed>
  <fix>3d</fix>
</trkpt>
<trkpt lat="33.8106404" lon="-118.3938617">
  <ele>-2.437</ele>
  <time>2026-09-02T22:11:29Z</time>
  <course>25.84</course>
  <speed>0.04</speed>
  <fix>3d</fix>
</trkpt>
<trkpt lat="33.8106407" lon="-118.3938616">
  <ele>-2.37</ele>
  <time>2026-09-02T22:11:29Z</time>
  <course>171.03</course>
  <speed>0.01</speed>
  <fix>3d</fix>
</trkpt>
<trkpt lat="33.8106404" lon="-118.3938617">
  <ele>-2.436</ele>
  <time>2026-09-02T22:11:29Z</time>
  <course>24.81</course>
  <speed>0.03</speed>
  <fix>3d</fix>
</trkpt>
<trkpt lat="33.8106407" lon="-118.3938616">
  <ele>-2.37</ele>
  <time>2026-09-02T22:11:29Z</time>
  <course>172.45</course>
  <speed>0.01</speed>
  <fix>3d</fix>
</trkpt>
<trkpt lat="33.8106404" lon="-118.3938617">
  <ele>-2.436</ele>
  <time>2026-09-02T22:11:29Z</time>
  <course>23.78</course>
  <speed>0.03</speed>
  <fix>3d</fix>
</trkpt>
<trkpt lat="33.8106407" lon="-118.3938616">
  <ele>-2.37</ele>
  <time>2026-09-02T22:11:29Z</time>
  <course>172.45</course>
  <speed>0.01</speed>
  <fix>3d</fix>
</trkpt>
<trkpt lat="33.8106404" lon="-118.3938617">
  <ele>-2.438</ele>
  <time>2026-09-02T22:11:29Z</time>
  <course>22.75</course>
  <speed>0.03</speed>
  <fix>3d</fix>
</trkpt>
<trkpt lat="33.8106407" lon="-118.3938616">
  <ele>-2.37</ele>
  <time>2026-09-02T22:11:29Z</time>
  <course>169.96</course>
  <speed>0.01</speed>
  <fix>3d</fix>
</trkpt>
<trkpt lat="33.8106404" lon="-118.3938617">
  <ele>-2.44</ele>
  <time>2026-09-02T22:11:29Z</time>
  <course>21.72</course>
  <speed>0.03</speed>
  <fix>3d</fix>
</trkpt>
<trkpt lat="33.8106407" lon="-118.3938616">
  <ele>-2.37</ele>
  <time>2026-09-02T22:11:29Z</time>
  <course>169.96</course>
  <speed>0.01</speed>
  <fix>3d</fix>
</trkpt>
<trkpt lat="33.8106404" lon="-118.3938617">
  <ele>-2.442</ele>
  <time>2026-09-02T22:11:29Z</time>
  <course>20.69</course>
  <speed>0.03</speed>
  <fix>3d</fix>
</trkpt>
<trkpt lat="33.8106407" lon="-118.3938616">
  <ele>-2.38</ele>
  <time>2026-09-02T22:11:29Z</time>
  <course>164.97</course>
  <speed>0.0</speed>
  <fix>3d</fix>
</trkpt>
<trkpt lat="33.8106404" lon="-118.3938617">
  <ele>-2.444</ele>
  <time>2026-09-02T22:11:29Z</time>
  <course>19.66</course>
  <speed>0.03</speed>
  <fix>3d</fix>
</trkpt>
<trkpt lat="33.8106407" lon="-118.3938616">
  <ele>-2.38</ele>
  <time>2026-09-02T22:11:29Z</time>
  <course>164.97</course>
  <speed>0.0</speed>
  <fix>3d</fix>
</trkpt>
<trkpt lat="33.8106404" lon="-118.3938617">
  <ele>-2.445</ele>
  <time>2026-09-02T22:11:29Z</time>
  <course>18.63</course>
  <speed>0.03</speed>
  <fix>3d</fix>
</trkpt>
<trkpt lat="33.8106407" lon="-118.3938616">
  <ele>-2.38</ele>
  <time>2026-09-02T22:11:29Z</time>
  <course>160.07</course>
  <speed>0.0</speed>
  <fix>3d</fix>
</trkpt>
<trkpt lat="33.8106404" lon="-118.3938617">
  <ele>-2.446</ele>
  <time>2026-09-02T22:11:29Z</time>
  <course>17.6</course>
  <speed>0.03</speed>
  <fix>3d</fix>
</trkpt>
<trkpt lat="33.8106407" lon="-118.3938616">
  <ele>-2.38</ele>
  <time>2026-09-02T22:11:29Z</time>
  <course>160.07</course>
  <speed>0.0</speed>
  <fix>3d</fix>
</trkpt>
<trkpt lat="33.8106404" lon="-118.3938617">
  <ele>-2.446</ele>
  <time>2026-09-02T22:11:29Z</time>
  <course>16.57</course>
  <speed>0.03</speed>
  <fix>3d</fix>
</trkpt>
<trkpt lat="33.8106407" lon="-118.3938616">
  <ele>-2.38</ele>
  <time>2026-09-02T22:11:29Z</time>
  <course>155.84</course>
  <speed>0.0</speed>
  <fix>3d</fix>
</trkpt>
<trkpt lat="33.8106404" lon="-118.3938617">
  <ele>-2.445</ele>
  <time>2026-09-02T22:11:29Z</time>
  <course>15.54</course>
  <speed>0.03</speed>
  <fix>3d</fix>
</trkpt>
<trkpt lat="33.8106407" lon="-118.3938616">
  <ele>-2.38</ele>
  <time>2026-09-02T22:11:29Z</time>
  <course>155.84</course>
  <speed>0.0</speed>
  <fix>3d</fix>
</trkpt>
<trkpt lat="33.8106404" lon="-118.3938617">
  <ele>-2.444</ele>
  <time>2026-09-02T22:11:29Z</time>
  <course>14.51</course>
  <speed>0.03</speed>
  <fix>3d</fix>
</trkpt>
<trkpt lat="33.8106406" lon="-118.3938616">
  <ele>-2.38</ele>
  <time>2026-09-02T22:11:29Z</time>
  <course>152.88</course>
  <speed>0.0</speed>
  <fix>3d</fix>
</trkpt>
<trkpt lat="33.8106404" lon="-118.3938617">
  <ele>-2.443</ele>
  <time>2026-09-02T22:11:29Z</time>
  <course>13.54</course>
  <speed>0.0316227766016838</speed>
  <fix>3d</fix>
</trkpt>
<trkpt lat="33.8106406" lon="-118.3938616">
  <ele>-2.38</ele>
  <time>2026-09-02T22:11:29Z</time>
  <course>152.88</course>
  <speed>0.0</speed>
  <fix>3d</fix>
</trkpt>
<trkpt lat="33.8106404" lon="-118.3938617">
  <ele>-2.442</ele>
  <time>2026-09-02T22:11:29Z</time>
  <course>12.83</course>
  <speed>0.0316227766016838</speed>
  <fix>3d</fix>
</trkpt>
<trkpt lat="33.8106406" lon="-118.3938616">
  <ele>-2.38</ele>
  <time>2026-09-02T22:11:29Z</time>
  <course>152.39</course>
  <speed>0.0</speed>
  <fix>3d</fix>
</trkpt>
<trkpt lat="33.8106404" lon="-118.3938617">
  <ele>-2.442</ele>
  <time>2026-09-02T22:11:29Z</time>
  <course>12.29</course>
  <speed>0.0316227766016838</speed>
  <fix>3d</fix>
</trkpt>
<trkpt lat="33.8106406" lon="-118.3938616">
  <ele>-2.38</ele>
  <time>2026-09-02T22:11:29Z</time>
  <course>152.39</course>
  <speed>0.0</speed>
  <fix>3d</fix>
</trkpt>
<trkpt lat="33.8106404" lon="-118.3938617">
  <ele>-2.443</ele>
  <time>2026-09-02T22:11:29Z</time>
  <course>11.85</course>
  <speed>0.0316227766016838</speed>
  <fix>3d</fix>
</trkpt>
<trkpt lat="33.8106406" lon="-118.3938616">
  <ele>-2.38</ele>
  <time>2026-09-02T22:11:29Z</time>
  <course>152.8</course>
  <speed>0.0</speed>
  <fix>3d</fix>
</trkpt>
<trkpt lat="33.8106404" lon="-118.3938617">
  <ele>-2.444</ele>
  <time>2026-09-02T22:11:29Z</time>
  <course>11.49</course>
  <speed>0.0316227766016838</speed>
  <fix>3d</fix>
</trkpt>
<trkpt lat="33.8106406" lon="-118.3938616">
  <ele>-2.38</ele>
  <time>2026-09-02T22:11:29Z</time>
  <course>152.8</course>
  <speed>0.0</speed>
  <fix>3d</fix>
</trkpt>
<trkpt lat="33.8106404" lon="-118.3938617">
  <ele>-2.445</ele>
  <time>2026-09-02T22:11:29Z</time>
  <course>11.19</course>
  <speed>0.0316227766016838</speed>
  <fix>3d</fix>
</trkpt>
<trkpt lat="33.8106406" lon="-118.3938616">
  <ele>-2.38</ele>
  <time>2026-09-02T22:11:29Z</time>
  <course>152.4</course>
  <speed>0.0</speed>
  <fix>3d</fix>
</trkpt>
<trkpt lat="33.8106404" lon="-118.3938617">
  <ele>-2.445</ele>
  <time>2026-09-02T22:11:29Z</time>
  <course>10.91</course>
  <speed>0.0316227766016838</speed>
  <fix>3d</fix>
</trkpt>
<trkpt lat="33.8106406" lon="-118.3938616">
  <ele>-2.38</ele>
  <time>2026-09-02T22:11:29Z</time>
  <course>152.4</course>
  <speed>0.0</speed>
  <fix>3d</fix>
</trkpt>
<trkpt lat="33.8106404" lon="-118.3938617">
  <ele>-2.444</ele>
  <time>2026-09-02T22:11:29Z</time>
  <course>10.67</course>
  <speed>0.0316227766016838</speed>
  <fix>3d</fix>
</trkpt>
<trkpt lat="33.8106406" lon="-118.3938616">
  <ele>-2.38</ele>
  <time>2026-09-02T22:11:29Z</time>
  <course>152.33</course>
  <speed>0.0</speed>
  <fix>3d</fix>
</trkpt>
<trkpt lat="33.8106404" lon="-118.3938617">
  <ele>-2.442</ele>
  <time>2026-09-02T22:11:29Z</time>
  <course>10.46</course>
  <speed>0.0316227766016838</speed>
  <fix>3d</fix>
</trkpt>
<trkpt lat="33.8106406" lon="-118.3938616">
  <ele>-2.38</ele>
  <time>2026-09-02T22:11:29Z</time>
  <course>152.33</course>
  <speed>0.0</speed>
  <fix>3d</fix>
</trkpt>
<trkpt lat="33.8106404" lon="-118.3938617">
  <ele>-2.441</ele>
  <time>2026-09-02T22:11:29Z</time>
  <course>10.26</course>
  <speed>0.0316227766016838</speed>
  <fix>3d</fix>
</trkpt>
<trkpt lat="33.8106406" lon="-118.3938616">
  <ele>-2.38</ele>
  <time>2026-09-02T22:11:29Z</time>
  <course>152.29</course>
  <speed>0.0</speed>
  <fix>3d</fix>
</trkpt>
<trkpt lat="33.8106404" lon="-118.3938617">
  <ele>-2.441</ele>
  <time>2026-09-02T22:11:29Z</time>
  <course>10.08</course>
  <speed>0.0316227766016838</speed>
  <fix>3d</fix>
</trkpt>
<trkpt lat="33.8106406" lon="-118.3938616">
  <ele>-2.38</ele>
  <time>2026-09-02T22:11:29Z</time>
  <course>152.29</course>
  <speed>0.0</speed>
  <fix>3d</fix>
</trkpt>
<trkpt lat="33.8106404" lon="-118.3938617">
  <ele>-2.441</ele>
  <time>2026-09-02T22:11:29Z</time>
  <course>9.91</course>
  <speed>0.03</speed>
  <fix>3d</fix>
</trkpt>
<trkpt lat="33.8106406" lon="-118.3938616">
  <ele>-2.38</ele>
  <time>2026-09-02T22:11:29Z</time>
  <course>152.09</course>
  <speed>0.0</speed>
  <fix>3d</fix>
</trkpt>
<trkpt lat="33.8106404" lon="-118.3938617">
  <ele>-2.442</ele>
  <time>2026-09-02T22:11:29Z</time>
  <course>9.76</course>
  <speed>0.03</speed>
  <fix>3d</fix>
</trkpt>
<trkpt lat="33.8106406" lon="-118.3938616">
  <ele>-2.38</ele>
  <time>2026-09-02T22:11:29Z</time>
  <course>152.09</course>
  <speed>0.0</speed>
  <fix>3d</fix>
</trkpt>
<trkpt lat="33.8106404" lon="-118.3938617">
  <ele>-2.443</ele>
  <time>2026-09-02T22:11:29Z</time>
  <course>9.61</course>
  <speed>0.03</speed>
  <fix>3d</fix>
</trkpt>
<trkpt lat="33.8106406" lon="-118.3938616">
  <ele>-2.38</ele>
  <time>2026-09-02T22:11:29Z</time>
  <course>151.84</course>
  <speed>0.0</speed>
  <fix>3d</fix>
</trkpt>
<trkpt lat="33.8106404" lon="-118.3938617">
  <ele>-2.444</ele>
  <time>2026-09-02T22:11:29Z</time>
  <course>9.48</course>
  <speed>0.03</speed>
  <fix>3d</fix>
</trkpt>
<trkpt lat="33.8106406" lon="-118.3938616">
  <ele>-2.38</ele>
  <time>2026-09-02T22:11:29Z</time>
  <course>151.84</course>
  <speed>0.0</speed>
  <fix>3d</fix>
</trkpt>
<trkpt lat="33.8106404" lon="-118.3938617">
  <ele>-2.445</ele>
  <time>2026-09-02T22:11:29Z</time>
  <course>9.35</course>
  <speed>0.03</speed>
  <fix>3d</fix>
</trkpt>
<trkpt lat="33.8106406" lon="-118.3938616">
  <ele>-2.38</ele>
  <time>2026-09-02T22:11:29Z</time>
  <course>151.7</course>
  <speed>0.0</speed>
  <fix>3d</fix>
</trkpt>
<trkpt lat="33.8106404" lon="-118.3938617">
  <ele>-2.447</ele>
  <time>2026-09-02T22:11:29Z</time>
  <course>9.23</course>
  <speed>0.03</speed>
  <fix>3d</fix>
</trkpt>
<trkpt lat="33.8106406" lon="-118.3938616">
  <ele>-2.38</ele>
  <time>2026-09-02T22:11:29Z</time>
  <course>151.7</course>
  <speed>0.0</speed>
  <fix>3d</fix>
</trkpt>
<trkpt lat="33.8106404" lon="-118.3938617">
  <ele>-2.448</ele>
  <time>2026-09-02T22:11:29Z</time>
  <course>9.12</course>
  <speed>0.03</speed>
  <fix>3d</fix>
</trkpt>
<trkpt lat="33.8106405" lon="-118.3938616">
  <ele>-2.39</ele>
  <time>2026-09-02T22:11:29Z</time>
  <course>151.67</course>
  <speed>0.0</speed>
  <fix>3d</fix>
</trkpt>
<trkpt lat="33.8106404" lon="-118.3938617">
  <ele>-2.449</ele>
  <time>2026-09-02T22:11:29Z</time>
  <course>9.01</course>
  <speed>0.03</speed>
  <fix>3d</fix>
</trkpt>
<trkpt lat="33.8106405" lon="-118.3938616">
  <ele>-2.39</ele>
  <time>2026-09-02T22:11:29Z</time>
  <course>151.67</course>
  <speed>0.0</speed>
  <fix>3d</fix>
</trkpt>
<trkpt lat="33.8106404" lon="-118.3938617">
  <ele>-2.448</ele>
  <time>2026-09-02T22:11:29Z</time>
  <course>8.9</course>
  <speed>0.03</speed>
  <fix>3d</fix>
</trkpt>
<trkpt lat="33.8106405" lon="-118.3938616">
  <ele>-2.38</ele>
  <time>2026-09-02T22:11:29Z</time>
  <course>151.67</course>
  <speed>0.0</speed>
  <fix>3d</fix>
</trkpt>
<trkpt lat="33.8106403" lon="-118.3938617">
  <ele>-2.446</ele>
  <time>2026-09-02T22:11:29Z</time>
  <course>8.8</course>
  <speed>0.03</speed>
  <fix>3d</fix>
</trkpt>
<trkpt lat="33.8106405" lon="-118.3938616">
  <ele>-2.38</ele>
  <time>2026-09-02T22:11:29Z</time>
  <course>151.67</course>
  <speed>0.0</speed>
  <fix>3d</fix>
</trkpt>
<trkpt lat="33.8106403" lon="-118.3938617">
  <ele>-2.444</ele>
  <time>2026-09-02T22:11:29Z</time>
  <course>8.68</course>
  <speed>0.03</speed>
  <fix>3d</fix>
</trkpt>
<trkpt lat="33.8106405" lon="-118.3938616">
  <ele>-2.38</ele>
  <time>2026-09-02T22:11:29Z</time>
  <course>151.63</course>
  <speed>0.0</speed>
  <fix>3d</fix>
</trkpt>
<trkpt lat="33.8106403" lon="-118.3938617">
  <ele>-2.442</ele>
  <time>2026-09-02T22:11:29Z</time>
  <course>8.45</course>
  <speed>0.02</speed>
  <fix>3d</fix>
</trkpt>
<trkpt lat="33.8106405" lon="-118.3938616">
  <ele>-2.38</ele>
  <time>2026-09-02T22:11:29Z</time>
  <course>151.63</course>
  <speed>0.0</speed>
  <fix>3d</fix>
</trkpt>
<trkpt lat="33.8106403" lon="-118.3938617">
  <ele>-2.441</ele>
  <time>2026-09-02T22:11:29Z</time>
  <course>8.05</course>
  <speed>0.02</speed>
  <fix>3d</fix>
</trkpt>
<trkpt lat="33.8106405" lon="-118.3938616">
  <ele>-2.38</ele>
  <time>2026-09-02T22:11:29Z</time>
  <course>150.7</course>
  <speed>0.0</speed>
  <fix>3d</fix>
</trkpt>
<trkpt lat="33.8106403" lon="-118.3938617">
  <ele>-2.442</ele>
  <time>2026-09-02T22:11:29Z</time>
  <course>7.51</course>
  <speed>0.01</speed>
  <fix>3d</fix>
</trkpt>
<trkpt lat="33.8106405" lon="-118.3938616">
  <ele>-2.38</ele>
  <time>2026-09-02T22:11:29Z</time>
  <course>150.7</course>
  <speed>0.0</speed>
  <fix>3d</fix>
</trkpt>
<trkpt lat="33.8106403" lon="-118.3938617">
  <ele>-2.444</ele>
  <time>2026-09-02T22:11:29Z</time>
  <course>6.77</course>
  <speed>0.01</speed>
  <fix>3d</fix>
</trkpt>
<trkpt lat="33.8106405" lon="-118.3938616">
  <ele>-2.38</ele>
  <time>2026-09-02T22:11:29Z</time>
  <course>350.77</course>
  <speed>0.0</speed>
  <fix>3d</fix>
</trkpt>
<trkpt lat="33.8106403" lon="-118.3938617">
  <ele>-2.445</ele>
  <time>2026-09-02T22:11:29Z</time>
  <course>5.88</course>
  <speed>0.01</speed>
  <fix>3d</fix>
</trkpt>
<trkpt lat="33.8106405" lon="-118.3938616">
  <ele>-2.38</ele>
  <time>2026-09-02T22:11:29Z</time>
  <course>350.77</course>
  <speed>0.0</speed>
  <fix>3d</fix>
</trkpt>
<trkpt lat="33.8106403" lon="-118.3938617">
  <ele>-2.445</ele>
  <time>2026-09-02T22:11:29Z</time>
  <course>4.92</course>
  <speed>0.01</speed>
  <fix>3d</fix>
</trkpt>
<trkpt lat="33.8106405" lon="-118.3938616">
  <ele>-2.38</ele>
  <time>2026-09-02T22:11:29Z</time>
  <course>347.68</course>
  <speed>0.0</speed>
  <fix>3d</fix>
</trkpt>
<trkpt lat="33.8106403" lon="-118.3938617">
  <ele>-2.445</ele>
  <time>2026-09-02T22:11:29Z</time>
  <course>3.93</course>
  <speed>0.01</speed>
  <fix>3d</fix>
</trkpt>
<trkpt lat="33.8106405" lon="-118.3938616">
  <ele>-2.38</ele>
  <time>2026-09-02T22:11:29Z</time>
  <course>347.68</course>
  <speed>0.0</speed>
  <fix>3d</fix>
</trkpt>
<trkpt lat="33.8106403" lon="-118.3938617">
  <ele>-2.445</ele>
  <time>2026-09-02T22:11:29Z</time>
  <course>3.05</course>
  <speed>0.01</speed>
  <fix>3d</fix>
</trkpt>
<trkpt lat="33.8106405" lon="-118.3938616">
  <ele>-2.38</ele>
  <time>2026-09-02T22:11:29Z</time>
  <course>341.02</course>
  <speed>0.0</speed>
  <fix>3d</fix>
</trkpt>
<trkpt lat="33.8106403" lon="-118.3938617">
  <ele>-2.444</ele>
  <time>2026-09-02T22:11:29Z</time>
  <course>2.41</course>
  <speed>0.01</speed>
  <fix>3d</fix>
</trkpt>
<trkpt lat="33.8106405" lon="-118.3938616">
  <ele>-2.38</ele>
  <time>2026-09-02T22:11:29Z</time>
  <course>341.02</course>
  <speed>0.0</speed>
  <fix>3d</fix>
</trkpt>
<trkpt lat="33.8106403" lon="-118.3938617">
  <ele>-2.444</ele>
  <time>2026-09-02T22:11:29Z</time>
  <course>1.91</course>
  <speed>0.01</speed>
  <fix>3d</fix>
</trkpt>
<trkpt lat="33.8106405" lon="-118.3938616">
  <ele>-2.37</ele>
  <time>2026-09-02T22:11:29Z</time>
  <course>335.8</course>
  <speed>0.0</speed>
  <fix>3d</fix>
</trkpt>
<trkpt lat="33.8106403" lon="-118.3938617">
  <ele>-2.444</ele>
  <time>2026-09-02T22:11:29Z</time>
  <course>1.51</course>
  <speed>0.01</speed>
  <fix>3d</fix>
</trkpt>
<trkpt lat="33.8106405" lon="-118.3938616">
  <ele>-2.37</ele>
  <time>2026-09-02T22:11:29Z</time>
  <course>335.8</course>
  <speed>0.0</speed>
  <fix>3d</fix>
</trkpt>
<trkpt lat="33.8106403" lon="-118.3938617">
  <ele>-2.443</ele>
  <time>2026-09-02T22:11:29Z</time>
  <course>1.17</course>
  <speed>0.01</speed>
  <fix>3d</fix>
</trkpt>
<trkpt lat="33.8106405" lon="-118.3938616">
  <ele>-2.37</ele>
  <time>2026-09-02T22:11:29Z</time>
  <course>335.15</course>
  <speed>0.0</speed>
  <fix>3d</fix>
</trkpt>
<trkpt lat="33.8106403" lon="-118.3938617">
  <ele>-2.441</ele>
  <time>2026-09-02T22:11:29Z</time>
  <course>0.88</course>
  <speed>0.01</speed>
  <fix>3d</fix>
</trkpt>
<trkpt lat="33.8106405" lon="-118.3938616">
  <ele>-2.37</ele>
  <time>2026-09-02T22:11:29Z</time>
  <course>335.15</course>
  <speed>0.0</speed>
  <fix>3d</fix>
</trkpt>
<trkpt lat="33.8106403" lon="-118.3938617">
  <ele>-2.44</ele>
  <time>2026-09-02T22:11:29Z</time>
  <course>0.62</course>
  <speed>0.01</speed>
  <fix>3d</fix>
</trkpt>
<trkpt lat="33.8106405" lon="-118.3938616">
  <ele>-2.37</ele>
  <time>2026-09-02T22:11:29Z</time>
  <course>335.14</course>
  <speed>0.0</speed>
  <fix>3d</fix>
</trkpt>
<trkpt lat="33.8106403" lon="-118.3938617">
  <ele>-2.44</ele>
  <time>2026-09-02T22:11:29Z</time>
  <course>0.39</course>
  <speed>0.01</speed>
  <fix>3d</fix>
</trkpt>
<trkpt lat="33.8106405" lon="-118.3938616">
  <ele>-2.37</ele>
  <time>2026-09-02T22:11:29Z</time>
  <course>335.14</course>
  <speed>0.0</speed>
  <fix>3d</fix>
</trkpt>
<trkpt lat="33.8106403" lon="-118.3938617">
  <ele>-2.441</ele>
  <time>2026-09-02T22:11:29Z</time>
  <course>0.18</course>
  <speed>0.01</speed>
  <fix>3d</fix>
</trkpt>
<trkpt lat="33.8106405" lon="-118.3938616">
  <ele>-2.37</ele>
  <time>2026-09-02T22:11:29Z</time>
  <course>335.12</course>
  <speed>0.0</speed>
  <fix>3d</fix>
</trkpt>
<trkpt lat="33.8106403" lon="-118.3938617">
  <ele>-2.441</ele>
  <time>2026-09-02T22:11:29Z</time>
  <course>0.0</course>
  <speed>0.01</speed>
  <fix>3d</fix>
</trkpt>
<trkpt lat="33.8106405" lon="-118.3938616">
  <ele>-2.37</ele>
  <time>2026-09-02T22:11:29Z</time>
  <course>335.12</course>
  <speed>0.0</speed>
  <fix>3d</fix>
</trkpt>
<trkpt lat="33.8106403" lon="-118.3938617">
  <ele>-2.442</ele>
  <time>2026-09-02T22:11:29Z</time>
  <course>359.82</course>
  <speed>0.01</speed>
  <fix>3d</fix>
</trkpt>
<trkpt lat="33.8106405" lon="-118.3938616">
  <ele>-2.37</ele>
  <time>2026-09-02T22:11:29Z</time>
  <course>335.12</course>
  <speed>0.0</speed>
  <fix>3d</fix>
</trkpt>
<trkpt lat="33.8106403" lon="-118.3938617">
  <ele>-2.443</ele>
  <time>2026-09-02T22:11:29Z</time>
  <course>359.66</course>
  <speed>0.02</speed>
  <fix>3d</fix>
</trkpt>
<trkpt lat="33.8106405" lon="-118.3938616">
  <ele>-2.37</ele>
  <time>2026-09-02T22:11:29Z</time>
  <course>335.12</course>
  <speed>0.0</speed>
  <fix>3d</fix>
</trkpt>
<trkpt lat="33.8106403" lon="-118.3938617">
  <ele>-2.443</ele>
  <time>2026-09-02T22:11:29Z</time>
  <course>359.51</course>
  <speed>0.02</speed>
  <fix>3d</fix>
</trkpt>
<trkpt lat="33.8106405" lon="-118.3938616">
  <ele>-2.37</ele>
  <time>2026-09-02T22:11:29Z</time>
  <course>335.13</course>
  <speed>0.0</speed>
  <fix>3d</fix>
</trkpt>
<trkpt lat="33.8106403" lon="-118.3938617">
  <ele>-2.442</ele>
  <time>2026-09-02T22:11:29Z</time>
  <course>359.37</course>
  <speed>0.02</speed>
  <fix>3d</fix>
</trkpt>
<trkpt lat="33.8106405" lon="-118.3938616">
  <ele>-2.37</ele>
  <time>2026-09-02T22:11:29Z</time>
  <course>335.13</course>
  <speed>0.0</speed>
  <fix>3d</fix>
</trkpt>
<trkpt lat="33.8106403" lon="-118.3938617">
  <ele>-2.442</ele>
  <time>2026-09-02T22:11:29Z</time>
  <course>359.24</course>
  <speed>0.02</speed>
  <fix>3d</fix>
</trkpt>
<trkpt lat="33.8106405" lon="-118.3938616">
  <ele>-2.37</ele>
  <time>2026-09-02T22:11:29Z</time>
  <course>335.12</course>
  <speed>0.0</speed>
  <fix>3d</fix>
</trkpt>
<trkpt lat="33.8106403" lon="-118.3938617">
  <ele>-2.44</ele>
  <time>2026-09-02T22:11:29Z</time>
  <course>359.11</course>
  <speed>0.02</speed>
  <fix>3d</fix>
</trkpt>
<trkpt lat="33.8106405" lon="-118.3938616">
  <ele>-2.37</ele>
  <time>2026-09-02T22:11:29Z</time>
  <course>335.12</course>
  <speed>0.0</speed>
  <fix>3d</fix>
</trkpt>
<trkpt lat="33.8106403" lon="-118.3938617">
  <ele>-2.439</ele>
  <time>2026-09-02T22:11:29Z</time>
  <course>358.99</course>
  <speed>0.02</speed>
  <fix>3d</fix>
</trkpt>
<trkpt lat="33.8106406" lon="-118.3938616">
  <ele>-2.37</ele>
  <time>2026-09-02T22:11:29Z</time>
  <course>335.13</course>
  <speed>0.0</speed>
  <fix>3d</fix>
</trkpt>
<trkpt lat="33.8106403" lon="-118.3938617">
  <ele>-2.439</ele>
  <time>2026-09-02T22:11:29Z</time>
  <course>358.88</course>
  <speed>0.02</speed>
  <fix>3d</fix>
</trkpt>
<trkpt lat="33.8106406" lon="-118.3938616">
  <ele>-2.37</ele>
  <time>2026-09-02T22:11:29Z</time>
  <course>335.13</course>
  <speed>0.0</speed>
  <fix>3d</fix>
</trkpt>
<trkpt lat="33.8106403" lon="-118.3938617">
  <ele>-2.44</ele>
  <time>2026-09-02T22:11:29Z</time>
  <course>358.78</course>
  <speed>0.02</speed>
  <fix>3d</fix>
</trkpt>
<trkpt lat="33.8106406" lon="-118.3938616">
  <ele>-2.37</ele>
  <time>2026-09-02T22:11:29Z</time>
  <course>335.16</course>
  <speed>0.0</speed>
  <fix>3d</fix>
</trkpt>
<trkpt lat="33.8106403" lon="-118.3938617">
  <ele>-2.441</ele>
  <time>2026-09-02T22:11:29Z</time>
  <course>358.7</course>
  <speed>0.02</speed>
  <fix>3d</fix>
</trkpt>
<trkpt lat="33.8106406" lon="-118.3938616">
  <ele>-2.37</ele>
  <time>2026-09-02T22:11:29Z</time>
  <course>335.16</course>
  <speed>0.0</speed>
  <fix>3d</fix>
</trkpt>
<trkpt lat="33.8106403" lon="-118.3938617">
  <ele>-2.442</ele>
  <time>2026-09-02T22:11:29Z</time>
  <course>358.79</course>
  <speed>0.02</speed>
  <fix>3d</fix>
</trkpt>
<trkpt lat="33.8106406" lon="-118.3938616">
  <ele>-2.38</ele>
  <time>2026-09-02T22:11:29Z</time>
  <course>324.66</course>
  <speed>0.0</speed>
  <fix>3d</fix>
</trkpt>
<trkpt lat="33.8106403" lon="-118.3938617">
  <ele>-2.444</ele>
  <time>2026-09-02T22:11:29Z</time>
  <course>359.14</course>
  <speed>0.02</speed>
  <fix>3d</fix>
</trkpt>
<trkpt lat="33.8106406" lon="-118.3938616">
  <ele>-2.38</ele>
  <time>2026-09-02T22:11:29Z</time>
  <course>324.66</course>
  <speed>0.0</speed>
  <fix>3d</fix>
</trkpt>
<trkpt lat="33.8106403" lon="-118.3938617">
  <ele>-2.445</ele>
  <time>2026-09-02T22:11:29Z</time>
  <course>359.7</course>
  <speed>0.02</speed>
  <fix>3d</fix>
</trkpt>
<trkpt lat="33.8106406" lon="-118.3938616">
  <ele>-2.38</ele>
  <time>2026-09-02T22:11:29Z</time>
  <course>286.92</course>
  <speed>0.01</speed>
  <fix>3d</fix>
</trkpt>
<trkpt lat="33.8106403" lon="-118.3938617">
  <ele>-2.445</ele>
  <time>2026-09-02T22:11:29Z</time>
  <course>0.45</course>
  <speed>0.0316227766016838</speed>
  <fix>3d</fix>
</trkpt>
<trkpt lat="33.8106406" lon="-118.3938616">
  <ele>-2.38</ele>
  <time>2026-09-02T22:11:29Z</time>
  <course>286.92</course>
  <speed>0.01</speed>
  <fix>3d</fix>
</trkpt>
<trkpt lat="33.8106403" lon="-118.3938617">
  <ele>-2.446</ele>
  <time>2026-09-02T22:11:29Z</time>
  <course>1.34</course>
  <speed>0.0316227766016838</speed>
  <fix>3d</fix>
</trkpt>
<trkpt lat="33.8106406" lon="-118.3938616">
  <ele>-2.38</ele>
  <time>2026-09-02T22:11:29Z</time>
  <course>266.62</course>
  <speed>0.01</speed>
  <fix>3d</fix>
</trkpt>
<trkpt lat="33.8106403" lon="-118.3938617">
  <ele>-2.445</ele>
  <time>2026-09-02T22:11:29Z</time>
  <course>2.3</course>
  <speed>0.0316227766016838</speed>
  <fix>3d</fix>
</trkpt>
<trkpt lat="33.8106406" lon="-118.3938616">
  <ele>-2.38</ele>
  <time>2026-09-02T22:11:29Z</time>
  <course>266.62</course>
  <speed>0.01</speed>
  <fix>3d</fix>
</trkpt>
<trkpt lat="33.8106404" lon="-118.3938617">
  <ele>-2.443</ele>
  <time>2026-09-02T22:11:29Z</time>
  <course>3.31</course>
  <speed>0.03</speed>
  <fix>3d</fix>
</trkpt>
<trkpt lat="33.8106406" lon="-118.3938616">
  <ele>-2.38</ele>
  <time>2026-09-02T22:11:29Z</time>
  <course>259.52</course>
  <speed>0.02</speed>
  <fix>3d</fix>
</trkpt>
<trkpt lat="33.8106404" lon="-118.3938617">
  <ele>-2.441</ele>
  <time>2026-09-02T22:11:29Z</time>
  <course>4.33</course>
  <speed>0.03</speed>
  <fix>3d</fix>
</trkpt>
<trkpt lat="33.8106406" lon="-118.3938616">
  <ele>-2.38</ele>
  <time>2026-09-02T22:11:29Z</time>
  <course>259.52</course>
  <speed>0.02</speed>
  <fix>3d</fix>
</trkpt>
<trkpt lat="33.8106404" lon="-118.3938617">
  <ele>-2.44</ele>
  <time>2026-09-02T22:11:29Z</time>
  <course>5.36</course>
  <speed>0.03</speed>
  <fix>3d</fix>
</trkpt>
<trkpt lat="33.8106406" lon="-118.3938616">
  <ele>-2.38</ele>
  <time>2026-09-02T22:11:29Z</time>
  <course>257.9</course>
  <speed>0.02</speed>
  <fix>3d</fix>
</trkpt>
<trkpt lat="33.8106404" lon="-118.3938617">
  <ele>-2.44</ele>
  <time>2026-09-02T22:11:29Z</time>
  <course>6.39</course>
  <speed>0.03</speed>
  <fix>3d</fix>
</trkpt>
<trkpt lat="33.8106406" lon="-118.3938616">
  <ele>-2.38</ele>
  <time>2026-09-02T22:11:29Z</time>
  <course>257.9</course>
  <speed>0.02</speed>
  <fix>3d</fix>
</trkpt>
<trkpt lat="33.8106404" lon="-118.3938617">
  <ele>-2.44</ele>
  <time>2026-09-02T22:11:29Z</time>
  <course>7.43</course>
  <speed>0.02</speed>
  <fix>3d</fix>
</trkpt>
<trkpt lat="33.8106406" lon="-118.3938617">
  <ele>-2.38</ele>
  <time>2026-09-02T22:11:29Z</time>
  <course>257.74</course>
  <speed>0.02</speed>
  <fix>3d</fix>
</trkpt>
<trkpt lat="33.8106404" lon="-118.3938617">
  <ele>-2.441</ele>
  <time>2026-09-02T22:11:29Z</time>
  <course>8.46</course>
  <speed>0.03</speed>
  <fix>3d</fix>
</trkpt>
<trkpt lat="33.8106406" lon="-118.3938617">
  <ele>-2.38</ele>
  <time>2026-09-02T22:11:29Z</time>
  <course>257.74</course>
  <speed>0.02</speed>
  <fix>3d</fix>
</trkpt>
<trkpt lat="33.8106404" lon="-118.3938617">
  <ele>-2.442</ele>
  <time>2026-09-02T22:11:29Z</time>
  <course>9.51</course>
  <speed>0.02</speed>
  <fix>3d</fix>
</trkpt>
<trkpt lat="33.8106406" lon="-118.3938618">
  <ele>-2.38</ele>
  <time>2026-09-02T22:11:29Z</time>
  <course>258.01</course>
  <speed>0.02</speed>
  <fix>3d</fix>
</trkpt>
<trkpt lat="33.8106404" lon="-118.3938617">
  <ele>-2.442</ele>
  <time>2026-09-02T22:11:29Z</time>
  <course>10.54</course>
  <speed>0.02</speed>
  <fix>3d</fix>
</trkpt>
<trkpt lat="33.8106406" lon="-118.3938618">
  <ele>-2.38</ele>
  <time>2026-09-02T22:11:29Z</time>
  <course>258.01</course>
  <speed>0.02</speed>
  <fix>3d</fix>
</trkpt>
<trkpt lat="33.8106404" lon="-118.3938617">
  <ele>-2.442</ele>
  <time>2026-09-02T22:11:29Z</time>
  <course>11.6</course>
  <speed>0.02</speed>
  <fix>3d</fix>
</trkpt>
<trkpt lat="33.8106406" lon="-118.3938618">
  <ele>-2.38</ele>
  <time>2026-09-02T22:11:29Z</time>
  <course>257.46</course>
  <speed>0.02</speed>
  <fix>3d</fix>
</trkpt>
<trkpt lat="33.8106404" lon="-118.3938617">
  <ele>-2.441</ele>
  <time>2026-09-02T22:11:29Z</time>
  <course>12.64</course>
  <speed>0.02</speed>
  <fix>3d</fix>
</trkpt>
<trkpt lat="33.8106406" lon="-118.3938618">
  <ele>-2.38</ele>
  <time>2026-09-02T22:11:29Z</time>
  <course>257.46</course>
  <speed>0.02</speed>
  <fix>3d</fix>
</trkpt>
<trkpt lat="33.8106404" lon="-118.3938617">
  <ele>-2.441</ele>
  <time>2026-09-02T22:11:29Z</time>
  <course>13.69</course>
  <speed>0.02</speed>
  <fix>3d</fix>
</trkpt>
<trkpt lat="33.8106406" lon="-118.3938618">
  <ele>-2.38</ele>
  <time>2026-09-02T22:11:29Z</time>
  <course>255.86</course>
  <speed>0.01</speed>
  <fix>3d</fix>
</trkpt>
<trkpt lat="33.8106404" lon="-118.3938617">
  <ele>-2.442</ele>
  <time>2026-09-02T22:11:29Z</time>
  <course>14.73</course>
  <speed>0.02</speed>
  <fix>3d</fix>
</trkpt>
<trkpt lat="33.8106406" lon="-118.3938618">
  <ele>-2.38</ele>
  <time>2026-09-02T22:11:29Z</time>
  <course>255.86</course>
  <speed>0.01</speed>
  <fix>3d</fix>
</trkpt>
<trkpt lat="33.8106404" lon="-118.3938617">
  <ele>-2.444</ele>
  <time>2026-09-02T22:11:29Z</time>
  <course>15.75</course>
  <speed>0.02</speed>
  <fix>3d</fix>
</trkpt>
<trkpt lat="33.8106406" lon="-118.3938619">
  <ele>-2.39</ele>
  <time>2026-09-02T22:11:29Z</time>
  <course>254.19</course>
  <speed>0.01</speed>
  <fix>3d</fix>
</trkpt>
<trkpt lat="33.8106404" lon="-118.3938617">
  <ele>-2.446</ele>
  <time>2026-09-02T22:11:29Z</time>
  <course>16.51</course>
  <speed>0.02</speed>
  <fix>3d</fix>
</trkpt>
<trkpt lat="33.8106406" lon="-118.3938619">
  <ele>-2.39</ele>
  <time>2026-09-02T22:11:29Z</time>
  <course>254.19</course>
  <speed>0.01</speed>
  <fix>3d</fix>
</trkpt>
<trkpt lat="33.8106404" lon="-118.3938617">
  <ele>-2.449</ele>
  <time>2026-09-02T22:11:29Z</time>
  <course>17.07</course>
  <speed>0.02</speed>
  <fix>3d</fix>
</trkpt>
<trkpt lat="33.8106406" lon="-118.3938619">
  <ele>-2.39</ele>
  <time>2026-09-02T22:11:29Z</time>
  <course>254.26</course>
  <speed>0.01</speed>
  <fix>3d</fix>
</trkpt>
<trkpt lat="33.8106404" lon="-118.3938617">
  <ele>-2.45</ele>
  <time>2026-09-02T22:11:29Z</time>
  <course>17.52</course>
  <speed>0.02</speed>
  <fix>3d</fix>
</trkpt>
<trkpt lat="33.8106406" lon="-118.3938619">
  <ele>-2.39</ele>
  <time>2026-09-02T22:11:29Z</time>
  <course>254.26</course>
  <speed>0.01</speed>
  <fix>3d</fix>
</trkpt>
<trkpt lat="33.8106404" lon="-118.3938618">
  <ele>-2.451</ele>
  <time>2026-09-02T22:11:29Z</time>
  <course>17.89</course>
  <speed>0.02</speed>
  <fix>3d</fix>
</trkpt>
<trkpt lat="33.8106406" lon="-118.393862">
  <ele>-2.39</ele>
  <time>2026-09-02T22:11:29Z</time>
  <course>255.0</course>
  <speed>0.01</speed>
  <fix>3d</fix>
</trkpt>
<trkpt lat="33.8106404" lon="-118.3938618">
  <ele>-2.452</ele>
  <time>2026-09-02T22:11:29Z</time>
  <course>18.2</course>
  <speed>0.022360679774997897</speed>
  <fix>3d</fix>
</trkpt>
<trkpt lat="33.8106406" lon="-118.393862">
  <ele>-2.39</ele>
  <time>2026-09-02T22:11:29Z</time>
  <course>255.0</course>
  <speed>0.01</speed>
  <fix>3d</fix>
</trkpt>
<trkpt lat="33.8106404" lon="-118.3938618">
  <ele>-2.451</ele>
  <time>2026-09-02T22:11:29Z</time>
  <course>18.48</course>
  <speed>0.022360679774997897</speed>
  <fix>3d</fix>
</trkpt>
<trkpt lat="33.8106406" lon="-118.393862">
  <ele>-2.39</ele>
  <time>2026-09-02T22:11:29Z</time>
  <course>254.78</course>
  <speed>0.01</speed>
  <fix>3d</fix>
</trkpt>
<trkpt lat="33.8106404" lon="-118.3938618">
  <ele>-2.449</ele>
  <time>2026-09-02T22:11:29Z</time>
  <course>18.72</course>
  <speed>0.022360679774997897</speed>
  <fix>3d</fix>
</trkpt>
<trkpt lat="33.8106406" lon="-118.393862">
  <ele>-2.39</ele>
  <time>2026-09-02T22:11:29Z</time>
  <course>254.78</course>
  <speed>0.01</speed>
  <fix>3d</fix>
</trkpt>
<trkpt lat="33.8106404" lon="-118.3938618">
  <ele>-2.447</ele>
  <time>2026-09-02T22:11:29Z</time>
  <course>18.94</course>
  <speed>0.022360679774997897</speed>
  <fix>3d</fix>
</trkpt>
<trkpt lat="33.8106406" lon="-118.393862">
  <ele>-2.38</ele>
  <time>2026-09-02T22:11:29Z</time>
  <course>254.56</course>
  <speed>0.01</speed>
  <fix>3d</fix>
</trkpt>
<trkpt lat="33.8106404" lon="-118.3938618">
  <ele>-2.446</ele>
  <time>2026-09-02T22:11:29Z</time>
  <course>19.14</course>
  <speed>0.022360679774997897</speed>
  <fix>3d</fix>
</trkpt>
<trkpt lat="33.8106406" lon="-118.393862">
  <ele>-2.38</ele>
  <time>2026-09-02T22:11:29Z</time>
  <course>254.56</course>
  <speed>0.01</speed>
  <fix>3d</fix>
</trkpt>
<trkpt lat="33.8106404" lon="-118.3938618">
  <ele>-2.444</ele>
  <time>2026-09-02T22:11:29Z</time>
  <course>19.32</course>
  <speed>0.022360679774997897</speed>
  <fix>3d</fix>
</trkpt>
<trkpt lat="33.8106406" lon="-118.393862">
  <ele>-2.38</ele>
  <time>2026-09-02T22:11:29Z</time>
  <course>254.38</course>
  <speed>0.01</speed>
  <fix>3d</fix>
</trkpt>
<trkpt lat="33.8106404" lon="-118.3938618">
  <ele>-2.443</ele>
  <time>2026-09-02T22:11:29Z</time>
  <course>19.49</course>
  <speed>0.022360679774997897</speed>
  <fix>3d</fix>
</trkpt>
<trkpt lat="33.8106406" lon="-118.393862">
  <ele>-2.38</ele>
  <time>2026-09-02T22:11:29Z</time>
  <course>254.38</course>
  <speed>0.01</speed>
  <fix>3d</fix>
</trkpt>
<trkpt lat="33.8106404" lon="-118.3938618">
  <ele>-2.442</ele>
  <time>2026-09-02T22:11:29Z</time>
  <course>19.65</course>
  <speed>0.022360679774997897</speed>
  <fix>3d</fix>
</trkpt>
<trkpt lat="33.8106406" lon="-118.3938621">
  <ele>-2.38</ele>
  <time>2026-09-02T22:11:29Z</time>
  <course>254.22</course>
  <speed>0.01</speed>
  <fix>3d</fix>
</trkpt>
<trkpt lat="33.8106404" lon="-118.3938618">
  <ele>-2.442</ele>
  <time>2026-09-02T22:11:29Z</time>
  <course>19.79</course>
  <speed>0.022360679774997897</speed>
  <fix>3d</fix>
</trkpt>
<trkpt lat="33.8106406" lon="-118.3938621">
  <ele>-2.38</ele>
  <time>2026-09-02T22:11:29Z</time>
  <course>254.22</course>
  <speed>0.01</speed>
  <fix>3d</fix>
</trkpt>
<trkpt lat="33.8106404" lon="-118.3938618">
  <ele>-2.441</ele>
  <time>2026-09-02T22:11:29Z</time>
  <course>19.93</course>
  <speed>0.022360679774997897</speed>
  <fix>3d</fix>
</trkpt>
<trkpt lat="33.8106406" lon="-118.3938621">
  <ele>-2.37</ele>
  <time>2026-09-02T22:11:29Z</time>
  <course>253.98</course>
  <speed>0.01</speed>
  <fix>3d</fix>
</trkpt>
<trkpt lat="33.8106404" lon="-118.3938618">
  <ele>-2.44</ele>
  <time>2026-09-02T22:11:29Z</time>
  <course>20.06</course>
  <speed>0.022360679774997897</speed>
  <fix>3d</fix>
</trkpt>
<trkpt lat="33.8106406" lon="-118.3938621">
  <ele>-2.37</ele>
  <time>2026-09-02T22:11:29Z</time>
  <course>253.98</course>
  <speed>0.01</speed>
  <fix>3d</fix>
</trkpt>
<trkpt lat="33.8106404" lon="-118.3938619">
  <ele>-2.441</ele>
  <time>2026-09-02T22:11:29Z</time>
  <course>20.18</course>
  <speed>0.022360679774997897</speed>
  <fix>3d</fix>
</trkpt>
<trkpt lat="33.8106406" lon="-118.3938621">
  <ele>-2.37</ele>
  <time>2026-09-02T22:11:29Z</time>
  <course>253.67</course>
  <speed>0.01</speed>
  <fix>3d</fix>
</trkpt>
<trkpt lat="33.8106404" lon="-118.3938619">
  <ele>-2.441</ele>
  <time>2026-09-02T22:11:29Z</time>
  <course>20.29</course>
  <speed>0.022360679774997897</speed>
  <fix>3d</fix>
</trkpt>
<trkpt lat="33.8106406" lon="-118.3938621">
  <ele>-2.37</ele>
  <time>2026-09-02T22:11:29Z</time>
  <course>253.67</course>
  <speed>0.01</speed>
  <fix>3d</fix>
</trkpt>
<trkpt lat="33.8106404" lon="-118.3938619">
  <ele>-2.442</ele>
  <time>2026-09-02T22:11:29Z</time>
  <course>20.4</course>
  <speed>0.022360679774997897</speed>
  <fix>3d</fix>
</trkpt>
<trkpt lat="33.8106406" lon="-118.3938622">
  <ele>-2.37</ele>
  <time>2026-09-02T22:11:29Z</time>
  <course>253.39</course>
  <speed>0.01</speed>
  <fix>3d</fix>
</trkpt>
<trkpt lat="33.8106404" lon="-118.3938619">
  <ele>-2.442</ele>
  <time>2026-09-02T22:11:29Z</time>
  <course>20.51</course>
  <speed>0.022360679774997897</speed>
  <fix>3d</fix>
</trkpt>
<trkpt lat="33.8106406" lon="-118.3938622">
  <ele>-2.37</ele>
  <time>2026-09-02T22:11:29Z</time>
  <course>253.39</course>
  <speed>0.01</speed>
  <fix>3d</fix>
</trkpt>
<trkpt lat="33.8106404" lon="-118.3938619">
  <ele>-2.443</ele>
  <time>2026-09-02T22:11:29Z</time>
  <course>20.61</course>
  <speed>0.022360679774997897</speed>
  <fix>3d</fix>
</trkpt>
<trkpt lat="33.8106406" lon="-118.3938622">
  <ele>-2.38</ele>
  <time>2026-09-02T22:11:29Z</time>
  <course>253.14</course>
  <speed>0.01</speed>
  <fix>3d</fix>
</trkpt>
<trkpt lat="33.8106404" lon="-118.3938619">
  <ele>-2.443</ele>
  <time>2026-09-02T22:11:29Z</time>
  <course>20.7</course>
  <speed>0.022360679774997897</speed>
  <fix>3d</fix>
</trkpt>
<trkpt lat="33.8106406" lon="-118.3938622">
  <ele>-2.38</ele>
  <time>2026-09-02T22:11:29Z</time>
  <course>253.14</course>
  <speed>0.01</speed>
  <fix>3d</fix>
</trkpt>
<trkpt lat="33.8106404" lon="-118.3938619">
  <ele>-2.444</ele>
  <time>2026-09-02T22:11:29Z</time>
  <course>20.79</course>
  <speed>0.022360679774997897</speed>
  <fix>3d</fix>
</trkpt>
<trkpt lat="33.8106406" lon="-118.3938622">
  <ele>-2.38</ele>
  <time>2026-09-02T22:11:29Z</time>
  <course>252.95</course>
  <speed>0.01</speed>
  <fix>3d</fix>
</trkpt>
<trkpt lat="33.8106404" lon="-118.3938619">
  <ele>-2.444</ele>
  <time>2026-09-02T22:11:29Z</time>
  <course>20.88</course>
  <speed>0.022360679774997897</speed>
  <fix>3d</fix>
</trkpt>
<trkpt lat="33.8106406" lon="-118.3938622">
  <ele>-2.38</ele>
  <time>2026-09-02T22:11:29Z</time>
  <course>252.95</course>
  <speed>0.01</speed>
  <fix>3d</fix>
</trkpt>
<trkpt lat="33.8106404" lon="-118.3938619">
  <ele>-2.445</ele>
  <time>2026-09-02T22:11:29Z</time>
  <course>20.96</course>
  <speed>0.022360679774997897</speed>
  <fix>3d</fix>
</trkpt>
<trkpt lat="33.8106406" lon="-118.3938623">
  <ele>-2.38</ele>
  <time>2026-09-02T22:11:29Z</time>
  <course>252.8</course>
  <speed>0.01</speed>
  <fix>3d</fix>
</trkpt>
<trkpt lat="33.8106404" lon="-118.393862">
  <ele>-2.444</ele>
  <time>2026-09-02T22:11:29Z</time>
  <course>21.04</course>
  <speed>0.022360679774997897</speed>
  <fix>3d</fix>
</trkpt>
<trkpt lat="33.8106406" lon="-118.3938623">
  <ele>-2.38</ele>
  <time>2026-09-02T22:11:29Z</time>
  <course>252.8</course>
  <speed>0.01</speed>
  <fix>3d</fix>
</trkpt>
<trkpt lat="33.8106404" lon="-118.393862">
  <ele>-2.441</ele>
  <time>2026-09-02T22:11:29Z</time>
  <course>21.12</course>
  <speed>0.022360679774997897</speed>
  <fix>3d</fix>
</trkpt>
<trkpt lat="33.8106406" lon="-118.3938623">
  <ele>-2.37</ele>
  <time>2026-09-02T22:11:29Z</time>
  <course>252.64</course>
  <speed>0.01</speed>
  <fix>3d</fix>
</trkpt>
<trkpt lat="33.8106404" lon="-118.393862">
  <ele>-2.437</ele>
  <time>2026-09-02T22:11:29Z</time>
  <course>21.2</course>
  <speed>0.022360679774997897</speed>
  <fix>3d</fix>
</trkpt>
<trkpt lat="33.8106406" lon="-118.3938623">
  <ele>-2.37</ele>
  <time>2026-09-02T22:11:29Z</time>
  <course>252.64</course>
  <speed>0.01</speed>
  <fix>3d</fix>
</trkpt>
<trkpt lat="33.8106404" lon="-118.3938621">
  <ele>-2.433</ele>
  <time>2026-09-02T22:11:29Z</time>
  <course>21.27</course>
  <speed>0.022360679774997897</speed>
  <fix>3d</fix>
</trkpt>
<trkpt lat="33.8106406" lon="-118.3938623">
  <ele>-2.37</ele>
  <time>2026-09-02T22:11:29Z</time>
  <course>252.47</course>
  <speed>0.01</speed>
  <fix>3d</fix>
</trkpt>
<trkpt lat="33.8106404" lon="-118.3938621">
  <ele>-2.428</ele>
  <time>2026-09-02T22:11:29Z</time>
  <course>21.34</course>
  <speed>0.022360679774997897</speed>
  <fix>3d</fix>
</trkpt>
<trkpt lat="33.8106406" lon="-118.3938623">
  <ele>-2.37</ele>
  <time>2026-09-02T22:11:29Z</time>
  <course>252.47</course>
  <speed>0.01</speed>
  <fix>3d</fix>
</trkpt>
<trkpt lat="33.8106404" lon="-118.3938621">
  <ele>-2.423</ele>
  <time>2026-09-02T22:11:29Z</time>
  <course>21.41</course>
  <speed>0.022360679774997897</speed>
  <fix>3d</fix>
</trkpt>
<trkpt lat="33.8106405" lon="-118.3938623">
  <ele>-2.36</ele>
  <time>2026-09-02T22:11:29Z</time>
  <course>252.3</course>
  <speed>0.01</speed>
  <fix>3d</fix>
</trkpt>
<trkpt lat="33.8106404" lon="-118.3938621">
  <ele>-2.417</ele>
  <time>2026-09-02T22:11:29Z</time>
  <course>21.47</course>
  <speed>0.022360679774997897</speed>
  <fix>3d</fix>
</trkpt>
<trkpt lat="33.8106405" lon="-118.3938623">
  <ele>-2.36</ele>
  <time>2026-09-02T22:11:29Z</time>
  <course>252.3</course>
  <speed>0.01</speed>
  <fix>3d</fix>
</trkpt>
<trkpt lat="33.8106404" lon="-118.3938621">
  <ele>-2.41</ele>
  <time>2026-09-02T22:11:29Z</time>
  <course>21.54</course>
  <speed>0.022360679774997897</speed>
  <fix>3d</fix>
</trkpt>
<trkpt lat="33.8106405" lon="-118.3938624">
  <ele>-2.35</ele>
  <time>2026-09-02T22:11:29Z</time>
  <course>252.18</course>
  <speed>0.01</speed>
  <fix>3d</fix>
</trkpt>
<trkpt lat="33.8106404" lon="-118.3938621">
  <ele>-2.403</ele>
  <time>2026-09-02T22:11:29Z</time>
  <course>21.6</course>
  <speed>0.022360679774997897</speed>
  <fix>3d</fix>
</trkpt>
<trkpt lat="33.8106405" lon="-118.3938624">
  <ele>-2.35</ele>
  <time>2026-09-02T22:11:29Z</time>
  <course>252.18</course>
  <speed>0.01</speed>
  <fix>3d</fix>
</trkpt>
<trkpt lat="33.8106404" lon="-118.3938621">
  <ele>-2.396</ele>
  <time>2026-09-02T22:11:29Z</time>
  <course>21.66</course>
  <speed>0.022360679774997897</speed>
  <fix>3d</fix>
</trkpt>
<trkpt lat="33.8106405" lon="-118.3938624">
  <ele>-2.34</ele>
  <time>2026-09-02T22:11:29Z</time>
  <course>252.08</course>
  <speed>0.01</speed>
  <fix>3d</fix>
</trkpt>
<trkpt lat="33.8106404" lon="-118.3938621">
  <ele>-2.389</ele>
  <time>2026-09-02T22:11:29Z</time>
  <course>21.72</course>
  <speed>0.022360679774997897</speed>
  <fix>3d</fix>
</trkpt>
<trkpt lat="33.8106405" lon="-118.3938624">
  <ele>-2.34</ele>
  <time>2026-09-02T22:11:29Z</time>
  <course>252.08</course>
  <speed>0.01</speed>
  <fix>3d</fix>
</trkpt>
<trkpt lat="33.8106404" lon="-118.3938621">
  <ele>-2.382</ele>
  <time>2026-09-02T22:11:29Z</time>
  <course>21.77</course>
  <speed>0.022360679774997897</speed>
  <fix>3d</fix>
</trkpt>
<trkpt lat="33.8106405" lon="-118.3938624">
  <ele>-2.33</ele>
  <time>2026-09-02T22:11:29Z</time>
  <course>251.98</course>
  <speed>0.01</speed>
  <fix>3d</fix>
</trkpt>
<trkpt lat="33.8106404" lon="-118.3938621">
  <ele>-2.374</ele>
  <time>2026-09-02T22:11:29Z</time>
  <course>21.83</course>
  <speed>0.022360679774997897</speed>
  <fix>3d</fix>
</trkpt>
<trkpt lat="33.8106405" lon="-118.3938624">
  <ele>-2.33</ele>
  <time>2026-09-02T22:11:29Z</time>
  <course>251.98</course>
  <speed>0.01</speed>
  <fix>3d</fix>
</trkpt>
<trkpt lat="33.8106404" lon="-118.3938622">
  <ele>-2.365</ele>
  <time>2026-09-02T22:11:29Z</time>
  <course>21.88</course>
  <speed>0.022360679774997897</speed>
  <fix>3d</fix>
</trkpt>
<trkpt lat="33.8106405" lon="-118.3938624">
  <ele>-2.32</ele>
  <time>2026-09-02T22:11:29Z</time>
  <course>251.85</course>
  <speed>0.01</speed>
  <fix>3d</fix>
</trkpt>
<trkpt lat="33.8106404" lon="-118.3938622">
  <ele>-2.356</ele>
  <time>2026-09-02T22:11:29Z</time>
  <course>21.94</course>
  <speed>0.022360679774997897</speed>
  <fix>3d</fix>
</trkpt>
<trkpt lat="33.8106405" lon="-118.3938624">
  <ele>-2.32</ele>
  <time>2026-09-02T22:11:29Z</time>
  <course>251.85</course>
  <speed>0.01</speed>
  <fix>3d</fix>
</trkpt>
<trkpt lat="33.8106404" lon="-118.3938622">
  <ele>-2.347</ele>
  <time>2026-09-02T22:11:29Z</time>
  <course>21.99</course>
  <speed>0.022360679774997897</speed>
  <fix>3d</fix>
</trkpt>
<trkpt lat="33.8106405" lon="-118.3938625">
  <ele>-2.3</ele>
  <time>2026-09-02T22:11:29Z</time>
  <course>251.69</course>
  <speed>0.01</speed>
  <fix>3d</fix>
</trkpt>
<trkpt lat="33.8106404" lon="-118.3938622">
  <ele>-2.338</ele>
  <time>2026-09-02T22:11:29Z</time>
  <course>22.04</course>
  <speed>0.022360679774997897</speed>
  <fix>3d</fix>
</trkpt>
<trkpt lat="33.8106405" lon="-118.3938625">
  <ele>-2.3</ele>
  <time>2026-09-02T22:11:29Z</time>
  <course>251.69</course>
  <speed>0.01</speed>
  <fix>3d</fix>
</trkpt>
<trkpt lat="33.8106404" lon="-118.3938622">
  <ele>-2.329</ele>
  <time>2026-09-02T22:11:29Z</time>
  <course>22.09</course>
  <speed>0.022360679774997897</speed>
  <fix>3d</fix>
</trkpt>
<trkpt lat="33.8106405" lon="-118.3938625">
  <ele>-2.29</ele>
  <time>2026-09-02T22:11:29Z</time>
  <course>251.54</course>
  <speed>0.01</speed>
  <fix>3d</fix>
</trkpt>
<trkpt lat="33.8106403" lon="-118.3938622">
  <ele>-2.319</ele>
  <time>2026-09-02T22:11:29Z</time>
  <course>22.14</course>
  <speed>0.022360679774997897</speed>
  <fix>3d</fix>
</trkpt>
<trkpt lat="33.8106405" lon="-118.3938625">
  <ele>-2.29</ele>
  <time>2026-09-02T22:11:29Z</time>
  <course>251.54</course>
  <speed>0.01</speed>
  <fix>3d</fix>
</trkpt>
<trkpt lat="33.8106403" lon="-118.3938623">
  <ele>-2.283</ele>
  <time>2026-09-02T22:11:29Z</time>
  <course>22.32</course>
  <speed>0.022360679774997897</speed>
  <fix>3d</fix>
</trkpt>
<trkpt lat="33.8106405" lon="-118.3938625">
  <ele>-2.25</ele>
  <time>2026-09-02T22:11:29Z</time>
  <course>251.35</course>
  <speed>0.01</speed>
  <fix>3d</fix>
</trkpt>
<trkpt lat="33.8106403" lon="-118.3938623">
  <ele>-2.251</ele>
  <time>2026-09-02T22:11:29Z</time>
  <course>22.45</course>
  <speed>0.02</speed>
  <fix>3d</fix>
</trkpt>
<trkpt lat="33.8106405" lon="-118.3938626">
  <ele>-2.22</ele>
  <time>2026-09-02T22:11:29Z</time>
  <course>251.18</course>
  <speed>0.01</speed>
  <fix>3d</fix>
</trkpt>
<trkpt lat="33.8106403" lon="-118.3938623">
  <ele>-2.241</ele>
  <time>2026-09-02T22:11:29Z</time>
  <course>22.49</course>
  <speed>0.02</speed>
  <fix>3d</fix>
</trkpt>
<trkpt lat="33.8106405" lon="-118.3938626">
  <ele>-2.22</ele>
  <time>2026-09-02T22:11:29Z</time>
  <course>251.18</course>
  <speed>0.01</speed>
  <fix>3d</fix>
</trkpt>
<trkpt lat="33.8106403" lon="-118.3938624">
  <ele>-2.223</ele>
  <time>2026-09-02T22:11:29Z</time>
  <course>22.57</course>
  <speed>0.02</speed>
  <fix>3d</fix>
</trkpt>
<trkpt lat="33.8106405" lon="-118.3938626">
  <ele>-2.2</ele>
  <time>2026-09-02T22:11:29Z</time>
  <course>251.04</course>
  <speed>0.01</speed>
  <fix>3d</fix>
</trkpt>
<trkpt lat="33.8106403" lon="-118.3938624">
  <ele>-2.215</ele>
  <time>2026-09-02T22:11:29Z</time>
  <course>22.6</course>
  <speed>0.02</speed>
  <fix>3d</fix>
</trkpt>
<trkpt lat="33.8106405" lon="-118.3938626">
  <ele>-2.18</ele>
  <time>2026-09-02T22:11:29Z</time>
  <course>250.9</course>
  <speed>0.01</speed>
  <fix>3d</fix>
</trkpt>
<trkpt lat="33.8106403" lon="-118.3938624">
  <ele>-2.206</ele>
  <time>2026-09-02T22:11:29Z</time>
  <course>22.64</course>
  <speed>0.02</speed>
  <fix>3d</fix>
</trkpt>
<trkpt lat="33.8106405" lon="-118.3938626">
  <ele>-2.18</ele>
  <time>2026-09-02T22:11:29Z</time>
  <course>250.9</course>
  <speed>0.01</speed>
  <fix>3d</fix>
</trkpt>
<trkpt lat="33.8106403" lon="-118.3938624">
  <ele>-2.197</ele>
  <time>2026-09-02T22:11:29Z</time>
  <course>22.68</course>
  <speed>0.02</speed>
  <fix>3d</fix>
</trkpt>
<trkpt lat="33.8106405" lon="-118.3938627">
  <ele>-2.17</ele>
  <time>2026-09-02T22:11:29Z</time>
  <course>250.78</course>
  <speed>0.01</speed>
  <fix>3d</fix>
</trkpt>
<trkpt lat="33.8106403" lon="-118.3938624">
  <ele>-2.189</ele>
  <time>2026-09-02T22:11:29Z</time>
  <course>22.72</course>
  <speed>0.02</speed>
  <fix>3d</fix>
</trkpt>
<trkpt lat="33.8106405" lon="-118.3938627">
  <ele>-2.17</ele>
  <time>2026-09-02T22:11:29Z</time>
  <course>250.78</course>
  <speed>0.01</speed>
  <fix>3d</fix>
</trkpt>
<trkpt lat="33.8106403" lon="-118.3938625">
  <ele>-2.18</ele>
  <time>2026-09-02T22:11:29Z</time>
  <course>22.75</course>
  <speed>0.02</speed>
  <fix>3d</fix>
</trkpt>
<trkpt lat="33.8106404" lon="-118.3938627">
  <ele>-2.15</ele>
  <time>2026-09-02T22:11:29Z</time>
  <course>250.71</course>
  <speed>0.01</speed>
  <fix>3d</fix>
</trkpt>
<trkpt lat="33.8106403" lon="-118.3938625">
  <ele>-2.171</ele>
  <time>2026-09-02T22:11:29Z</time>
  <course>22.79</course>
  <speed>0.02</speed>
  <fix>3d</fix>
</trkpt>
<trkpt lat="33.8106404" lon="-118.3938627">
  <ele>-2.15</ele>
  <time>2026-09-02T22:11:29Z</time>
  <course>250.71</course>
  <speed>0.01</speed>
  <fix>3d</fix>
</trkpt>
<trkpt lat="33.8106403" lon="-118.3938625">
  <ele>-2.162</ele>
  <time>2026-09-02T22:11:29Z</time>
  <course>22.82</course>
  <speed>0.02</speed>
  <fix>3d</fix>
</trkpt>
<trkpt lat="33.8106403" lon="-118.3938627">
  <ele>-2.13</ele>
  <time>2026-09-02T22:11:29Z</time>
  <course>250.66</course>
  <speed>0.01</speed>
  <fix>3d</fix>
</trkpt>
<trkpt lat="33.8106403" lon="-118.3938625">
  <ele>-2.153</ele>
  <time>2026-09-02T22:11:29Z</time>
  <course>22.86</course>
  <speed>0.02</speed>
  <fix>3d</fix>
</trkpt>
<trkpt lat="33.8106403" lon="-118.3938627">
  <ele>-2.13</ele>
  <time>2026-09-02T22:11:29Z</time>
  <course>250.66</course>
  <speed>0.01</speed>
  <fix>3d</fix>
</trkpt>
<trkpt lat="33.8106403" lon="-118.3938625">
  <ele>-2.143</ele>
  <time>2026-09-02T22:11:29Z</time>
  <course>22.89</course>
  <speed>0.02</speed>
  <fix>3d</fix>
</trkpt>
<trkpt lat="33.8106403" lon="-118.3938627">
  <ele>-2.11</ele>
  <time>2026-09-02T22:11:29Z</time>
  <course>250.59</course>
  <speed>0.01</speed>
  <fix>3d</fix>
</trkpt>
<trkpt lat="33.8106403" lon="-118.3938625">
  <ele>-2.132</ele>
  <time>2026-09-02T22:11:29Z</time>
  <course>22.92</course>
  <speed>0.02</speed>
  <fix>3d</fix>
</trkpt>
<trkpt lat="33.8106403" lon="-118.3938627">
  <ele>-2.11</ele>
  <time>2026-09-02T22:11:29Z</time>
  <course>250.59</course>
  <speed>0.01</speed>
  <fix>3d</fix>
</trkpt>
<trkpt lat="33.8106403" lon="-118.3938625">
  <ele>-2.122</ele>
  <time>2026-09-02T22:11:29Z</time>
  <course>22.96</course>
  <speed>0.02</speed>
  <fix>3d</fix>
</trkpt>
<trkpt lat="33.8106403" lon="-118.3938628">
  <ele>-2.09</ele>
  <time>2026-09-02T22:11:29Z</time>
  <course>250.49</course>
  <speed>0.01</speed>
  <fix>3d</fix>
</trkpt>
<trkpt lat="33.8106402" lon="-118.3938625">
  <ele>-2.111</ele>
  <time>2026-09-02T22:11:29Z</time>
  <course>22.99</course>
  <speed>0.03</speed>
  <fix>3d</fix>
</trkpt>
<trkpt lat="33.8106403" lon="-118.3938628">
  <ele>-2.09</ele>
  <time>2026-09-02T22:11:29Z</time>
  <course>250.49</course>
  <speed>0.01</speed>
  <fix>3d</fix>
</trkpt>
<trkpt lat="33.8106402" lon="-118.3938626">
  <ele>-2.102</ele>
  <time>2026-09-02T22:11:29Z</time>
  <course>23.02</course>
  <speed>0.03</speed>
  <fix>3d</fix>
</trkpt>
<trkpt lat="33.8106403" lon="-118.3938628">
  <ele>-2.07</ele>
  <time>2026-09-02T22:11:29Z</time>
  <course>250.36</course>
  <speed>0.01</speed>
  <fix>3d</fix>
</trkpt>
<trkpt lat="33.8106402" lon="-118.3938626">
  <ele>-2.093</ele>
  <time>2026-09-02T22:11:29Z</time>
  <course>23.05</course>
  <speed>0.03</speed>
  <fix>3d</fix>
</trkpt>
<trkpt lat="33.8106403" lon="-118.3938628">
  <ele>-2.07</ele>
  <time>2026-09-02T22:11:29Z</time>
  <course>250.36</course>
  <speed>0.01</speed>
  <fix>3d</fix>
</trkpt>
<trkpt lat="33.8106402" lon="-118.3938626">
  <ele>-2.086</ele>
  <time>2026-09-02T22:11:29Z</time>
  <course>23.08</course>
  <speed>0.03</speed>
  <fix>3d</fix>
</trkpt>
<trkpt lat="33.8106403" lon="-118.3938628">
  <ele>-2.05</ele>
  <time>2026-09-02T22:11:29Z</time>
  <course>250.24</course>
  <speed>0.01</speed>
  <fix>3d</fix>
</trkpt>
<trkpt lat="33.8106402" lon="-118.3938626">
  <ele>-2.077</ele>
  <time>2026-09-02T22:11:29Z</time>
  <course>23.11</course>
  <speed>0.03</speed>
  <fix>3d</fix>
</trkpt>
<trkpt lat="33.8106403" lon="-118.3938628">
  <ele>-2.05</ele>
  <time>2026-09-02T22:11:29Z</time>
  <course>250.24</course>
  <speed>0.01</speed>
  <fix>3d</fix>
</trkpt>
<trkpt lat="33.8106402" lon="-118.3938626">
  <ele>-2.068</ele>
  <time>2026-09-02T22:11:30Z</time>
  <course>23.14</course>
  <speed>0.03</speed>
  <fix>3d</fix>
</trkpt>
<trkpt lat="33.8106403" lon="-118.3938628">
  <ele>-2.04</ele>
  <time>2026-09-02T22:11:30Z</time>
  <course>250.15</course>
  <speed>0.01</speed>
  <fix>3d</fix>
</trkpt>
<trkpt lat="33.8106402" lon="-118.3938626">
  <ele>-2.06</ele>
  <time>2026-09-02T22:11:30Z</time>
  <course>23.17</course>
  <speed>0.03</speed>
  <fix>3d</fix>
</trkpt>
<trkpt lat="33.8106403" lon="-118.3938628">
  <ele>-2.04</ele>
  <time>2026-09-02T22:11:30Z</time>
  <course>250.15</course>
  <speed>0.01</speed>
  <fix>3d</fix>
</trkpt>
<trkpt lat="33.8106402" lon="-118.3938626">
  <ele>-2.051</ele>
  <time>2026-09-02T22:11:30Z</time>
  <course>23.2</course>
  <speed>0.03</speed>
  <fix>3d</fix>
</trkpt>
<trkpt lat="33.8106403" lon="-118.3938628">
  <ele>-2.02</ele>
  <time>2026-09-02T22:11:30Z</time>
  <course>250.1</course>
  <speed>0.01</speed>
  <fix>3d</fix>
</trkpt>
<trkpt lat="33.8106401" lon="-118.3938627">
  <ele>-2.041</ele>
  <time>2026-09-02T22:11:30Z</time>
  <course>23.23</course>
  <speed>0.03</speed>
  <fix>3d</fix>
</trkpt>
<trkpt lat="33.8106403" lon="-118.3938628">
  <ele>-2.02</ele>
  <time>2026-09-02T22:11:30Z</time>
  <course>250.1</course>
  <speed>0.01</speed>
  <fix>3d</fix>
</trkpt>
<trkpt lat="33.8106401" lon="-118.3938627">
  <ele>-2.031</ele>
  <time>2026-09-02T22:11:30Z</time>
  <course>23.26</course>
  <speed>0.03</speed>
  <fix>3d</fix>
</trkpt>
<trkpt lat="33.8106403" lon="-118.3938628">
  <ele>-2.0</ele>
  <time>2026-09-02T22:11:30Z</time>
  <course>250.06</course>
  <speed>0.01</speed>
  <fix>3d</fix>
</trkpt>
<trkpt lat="33.8106401" lon="-118.3938627">
  <ele>-2.022</ele>
  <time>2026-09-02T22:11:30Z</time>
  <course>23.29</course>
  <speed>0.03</speed>
  <fix>3d</fix>
</trkpt>
<trkpt lat="33.8106403" lon="-118.3938628">
  <ele>-2.0</ele>
  <time>2026-09-02T22:11:30Z</time>
  <course>250.06</course>
  <speed>0.01</speed>
  <fix>3d</fix>
</trkpt>
<trkpt lat="33.8106401" lon="-118.3938627">
  <ele>-2.012</ele>
  <time>2026-09-02T22:11:30Z</time>
  <course>23.31</course>
  <speed>0.03</speed>
  <fix>3d</fix>
</trkpt>
<trkpt lat="33.8106403" lon="-118.3938628">
  <ele>-1.98</ele>
  <time>2026-09-02T22:11:30Z</time>
  <course>249.99</course>
  <speed>0.01</speed>
  <fix>3d</fix>
</trkpt>
<trkpt lat="33.8106401" lon="-118.3938627">
  <ele>-2.001</ele>
  <time>2026-09-02T22:11:30Z</time>
  <course>23.34</course>
  <speed>0.03</speed>
  <fix>3d</fix>
</trkpt>
<trkpt lat="33.8106403" lon="-118.3938628">
  <ele>-1.98</ele>
  <time>2026-09-02T22:11:30Z</time>
  <course>249.99</course>
  <speed>0.01</speed>
  <fix>3d</fix>
</trkpt>
<trkpt lat="33.8106401" lon="-118.3938627">
  <ele>-1.992</ele>
  <time>2026-09-02T22:11:30Z</time>
  <course>23.37</course>
  <speed>0.03</speed>
  <fix>3d</fix>
</trkpt>
<trkpt lat="33.8106403" lon="-118.3938628">
  <ele>-1.96</ele>
  <time>2026-09-02T22:11:30Z</time>
  <course>249.88</course>
  <speed>0.01</speed>
  <fix>3d</fix>
</trkpt>
<trkpt lat="33.8106401" lon="-118.3938627">
  <ele>-1.982</ele>
  <time>2026-09-02T22:11:30Z</time>
  <course>23.39</course>
  <speed>0.03</speed>
  <fix>3d</fix>
</trkpt>
<trkpt lat="33.8106403" lon="-118.3938628">
  <ele>-1.96</ele>
  <time>2026-09-02T22:11:30Z</time>
  <course>249.88</course>
  <speed>0.01</speed>
  <fix>3d</fix>
</trkpt>
<trkpt lat="33.8106401" lon="-118.3938627">
  <ele>-1.972</ele>
  <time>2026-09-02T22:11:30Z</time>
  <course>23.42</course>
  <speed>0.03</speed>
  <fix>3d</fix>
</trkpt>
<trkpt lat="33.8106403" lon="-118.3938629">
  <ele>-1.94</ele>
  <time>2026-09-02T22:11:30Z</time>
  <course>249.77</course>
  <speed>0.01</speed>
  <fix>3d</fix>
</trkpt>
<trkpt lat="33.8106401" lon="-118.3938627">
  <ele>-1.961</ele>
  <time>2026-09-02T22:11:30Z</time>
  <course>23.45</course>
  <speed>0.03</speed>
  <fix>3d</fix>
</trkpt>
<trkpt lat="33.8106403" lon="-118.3938629">
  <ele>-1.94</ele>
  <time>2026-09-02T22:11:30Z</time>
  <course>249.77</course>
  <speed>0.01</speed>
  <fix>3d</fix>
</trkpt>
<trkpt lat="33.8106401" lon="-118.3938627">
  <ele>-1.95</ele>
  <time>2026-09-02T22:11:30Z</time>
  <course>23.47</course>
  <speed>0.03</speed>
  <fix>3d</fix>
</trkpt>
<trkpt lat="33.8106403" lon="-118.393863">
  <ele>-1.92</ele>
  <time>2026-09-02T22:11:30Z</time>
  <course>249.67</course>
  <speed>0.01</speed>
  <fix>3d</fix>
</trkpt>
<trkpt lat="33.8106401" lon="-118.3938627">
  <ele>-1.939</ele>
  <time>2026-09-02T22:11:30Z</time>
  <course>23.5</course>
  <speed>0.03</speed>
  <fix>3d</fix>
</trkpt>
<trkpt lat="33.8106403" lon="-118.393863">
  <ele>-1.92</ele>
  <time>2026-09-02T22:11:30Z</time>
  <course>249.67</course>
  <speed>0.01</speed>
  <fix>3d</fix>
</trkpt>
<trkpt lat="33.8106401" lon="-118.3938628">
  <ele>-1.929</ele>
  <time>2026-09-02T22:11:30Z</time>
  <course>23.52</course>
  <speed>0.03</speed>
  <fix>3d</fix>
</trkpt>
<trkpt lat="33.8106403" lon="-118.393863">
  <ele>-1.9</ele>
  <time>2026-09-02T22:11:30Z</time>
  <course>249.61</course>
  <speed>0.01</speed>
  <fix>3d</fix>
</trkpt>
<trkpt lat="33.8106401" lon="-118.3938628">
  <ele>-1.919</ele>
  <time>2026-09-02T22:11:30Z</time>
  <course>23.55</course>
  <speed>0.03</speed>
  <fix>3d</fix>
</trkpt>
<trkpt lat="33.8106403" lon="-118.393863">
  <ele>-1.9</ele>
  <time>2026-09-02T22:11:30Z</time>
  <course>249.61</course>
  <speed>0.01</speed>
  <fix>3d</fix>
</trkpt>
<trkpt lat="33.8106401" lon="-118.3938628">
  <ele>-1.91</ele>
  <time>2026-09-02T22:11:30Z</time>
  <course>23.57</course>
  <speed>0.03</speed>
  <fix>3d</fix>
</trkpt>
<trkpt lat="33.8106403" lon="-118.393863">
  <ele>-1.88</ele>
  <time>2026-09-02T22:11:30Z</time>
  <course>249.58</course>
  <speed>0.01</speed>
  <fix>3d</fix>
</trkpt>
<trkpt lat="33.8106401" lon="-118.3938628">
  <ele>-1.901</ele>
  <time>2026-09-02T22:11:30Z</time>
  <course>23.6</course>
  <speed>0.03</speed>
  <fix>3d</fix>
</trkpt>
<trkpt lat="33.8106403" lon="-118.393863">
  <ele>-1.88</ele>
  <time>2026-09-02T22:11:30Z</time>
  <course>249.58</course>
  <speed>0.01</speed>
  <fix>3d</fix>
</trkpt>
<trkpt lat="33.8106401" lon="-118.3938628">
  <ele>-1.892</ele>
  <time>2026-09-02T22:11:30Z</time>
  <course>23.62</course>
  <speed>0.03</speed>
  <fix>3d</fix>
</trkpt>
<trkpt lat="33.8106403" lon="-118.393863">
  <ele>-1.86</ele>
  <time>2026-09-02T22:11:30Z</time>
  <course>249.53</course>
  <speed>0.01</speed>
  <fix>3d</fix>
</trkpt>
<trkpt lat="33.8106401" lon="-118.3938628">
  <ele>-1.884</ele>
  <time>2026-09-02T22:11:30Z</time>
  <course>23.64</course>
  <speed>0.03</speed>
  <fix>3d</fix>
</trkpt>
<trkpt lat="33.8106403" lon="-118.393863">
  <ele>-1.86</ele>
  <time>2026-09-02T22:11:30Z</time>
  <course>249.53</course>
  <speed>0.01</speed>
  <fix>3d</fix>
</trkpt>
<trkpt lat="33.8106401" lon="-118.3938628">
  <ele>-1.875</ele>
  <time>2026-09-02T22:11:30Z</time>
  <course>23.67</course>
  <speed>0.03</speed>
  <fix>3d</fix>
</trkpt>
<trkpt lat="33.8106403" lon="-118.393863">
  <ele>-1.84</ele>
  <time>2026-09-02T22:11:30Z</time>
  <course>249.46</course>
  <speed>0.01</speed>
  <fix>3d</fix>
</trkpt>
<trkpt lat="33.8106401" lon="-118.3938629">
  <ele>-1.866</ele>
  <time>2026-09-02T22:11:30Z</time>
  <course>23.69</course>
  <speed>0.03</speed>
  <fix>3d</fix>
</trkpt>
<trkpt lat="33.8106403" lon="-118.393863">
  <ele>-1.84</ele>
  <time>2026-09-02T22:11:30Z</time>
  <course>249.46</course>
  <speed>0.01</speed>
  <fix>3d</fix>
</trkpt>
<trkpt lat="33.8106401" lon="-118.3938629">
  <ele>-1.857</ele>
  <time>2026-09-02T22:11:30Z</time>
  <course>23.71</course>
  <speed>0.03</speed>
  <fix>3d</fix>
</trkpt>
<trkpt lat="33.8106402" lon="-118.3938631">
  <ele>-1.83</ele>
  <time>2026-09-02T22:11:30Z</time>
  <course>249.36</course>
  <speed>0.0</speed>
  <fix>3d</fix>
</trkpt>
<trkpt lat="33.8106401" lon="-118.3938629">
  <ele>-1.849</ele>
  <time>2026-09-02T22:11:30Z</time>
  <course>23.74</course>
  <speed>0.03</speed>
  <fix>3d</fix>
</trkpt>
<trkpt lat="33.8106402" lon="-118.3938631">
  <ele>-1.83</ele>
  <time>2026-09-02T22:11:30Z</time>
  <course>249.36</course>
  <speed>0.0</speed>
  <fix>3d</fix>
</trkpt>
<trkpt lat="33.81064" lon="-118.3938629">
  <ele>-1.84</ele>
  <time>2026-09-02T22:11:30Z</time>
  <course>23.76</course>
  <speed>0.03</speed>
  <fix>3d</fix>
</trkpt>
<trkpt lat="33.8106402" lon="-118.3938631">
  <ele>-1.81</ele>
  <time>2026-09-02T22:11:30Z</time>
  <course>249.26</course>
  <speed>0.0</speed>
  <fix>3d</fix>
</trkpt>
<trkpt lat="33.81064" lon="-118.3938629">
  <ele>-1.839</ele>
  <time>2026-09-02T22:11:30Z</time>
  <course>23.76</course>
  <speed>0.03</speed>
  <fix>3d</fix>
</trkpt>
<trkpt lat="33.81064" lon="-118.3938629">
  <ele>-1.834</ele>
  <time>2026-09-02T22:11:30Z</time>
  <course>23.78</course>
  <speed>0.03</speed>
  <fix>3d</fix>
</trkpt>
<trkpt lat="33.8106402" lon="-118.3938631">
  <ele>-1.81</ele>
  <time>2026-09-02T22:11:30Z</time>
  <course>249.26</course>
  <speed>0.0</speed>
  <fix>3d</fix>
</trkpt>
<trkpt lat="33.81064" lon="-118.3938629">
  <ele>-1.847</ele>
  <time>2026-09-02T22:11:30Z</time>
  <course>23.8</course>
  <speed>0.03</speed>
  <fix>3d</fix>
</trkpt>
<trkpt lat="33.8106402" lon="-118.3938631">
  <ele>-1.79</ele>
  <time>2026-09-02T22:11:30Z</time>
  <course>249.45</course>
  <speed>0.0</speed>
  <fix>3d</fix>
</trkpt>
<trkpt lat="33.81064" lon="-118.3938629">
  <ele>-1.882</ele>
  <time>2026-09-02T22:11:30Z</time>
  <course>23.83</course>
  <speed>0.03</speed>
  <fix>3d</fix>
</trkpt>
<trkpt lat="33.8106402" lon="-118.3938631">
  <ele>-1.79</ele>
  <time>2026-09-02T22:11:30Z</time>
  <course>249.45</course>
  <speed>0.0</speed>
  <fix>3d</fix>
</trkpt>
<trkpt lat="33.81064" lon="-118.393863">
  <ele>-1.931</ele>
  <time>2026-09-02T22:11:30Z</time>
  <course>23.85</course>
  <speed>0.03</speed>
  <fix>3d</fix>
</trkpt>
<trkpt lat="33.8106402" lon="-118.3938631">
  <ele>-1.81</ele>
  <time>2026-09-02T22:11:30Z</time>
  <course>250.17</course>
  <speed>0.01</speed>
  <fix>3d</fix>
</trkpt>
<trkpt lat="33.81064" lon="-118.393863">
  <ele>-1.932</ele>
  <time>2026-09-02T22:11:30Z</time>
  <course>23.85</course>
  <speed>0.03</speed>
  <fix>3d</fix>
</trkpt>
<trkpt lat="33.81064" lon="-118.393863">
  <ele>-1.988</ele>
  <time>2026-09-02T22:11:30Z</time>
  <course>23.87</course>
  <speed>0.03</speed>
  <fix>3d</fix>
</trkpt>
<trkpt lat="33.8106402" lon="-118.3938631">
  <ele>-1.81</ele>
  <time>2026-09-02T22:11:30Z</time>
  <course>250.17</course>
  <speed>0.01</speed>
  <fix>3d</fix>
</trkpt>
<trkpt lat="33.81064" lon="-118.393863">
  <ele>-1.989</ele>
  <time>2026-09-02T22:11:30Z</time>
  <course>23.87</course>
  <speed>0.03</speed>
  <fix>3d</fix>
</trkpt>
<trkpt lat="33.81064" lon="-118.393863">
  <ele>-2.051</ele>
  <time>2026-09-02T22:11:30Z</time>
  <course>23.89</course>
  <speed>0.03</speed>
  <fix>3d</fix>
</trkpt>
<trkpt lat="33.8106402" lon="-118.3938631">
  <ele>-1.89</ele>
  <time>2026-09-02T22:11:30Z</time>
  <course>250.68</course>
  <speed>0.01</speed>
  <fix>3d</fix>
</trkpt>
<trkpt lat="33.81064" lon="-118.393863">
  <ele>-2.052</ele>
  <time>2026-09-02T22:11:30Z</time>
  <course>23.89</course>
  <speed>0.03</speed>
  <fix>3d</fix>
</trkpt>
<trkpt lat="33.81064" lon="-118.393863">
  <ele>-2.116</ele>
  <time>2026-09-02T22:11:30Z</time>
  <course>23.91</course>
  <speed>0.03</speed>
  <fix>3d</fix>
</trkpt>
<trkpt lat="33.8106402" lon="-118.3938631">
  <ele>-1.89</ele>
  <time>2026-09-02T22:11:30Z</time>
  <course>250.68</course>
  <speed>0.01</speed>
  <fix>3d</fix>
</trkpt>
<trkpt lat="33.81064" lon="-118.393863">
  <ele>-2.133</ele>
  <time>2026-09-02T22:11:30Z</time>
  <course>23.92</course>
  <speed>0.03</speed>
  <fix>3d</fix>
</trkpt>
<trkpt lat="33.81064" lon="-118.393863">
  <ele>-2.182</ele>
  <time>2026-09-02T22:11:30Z</time>
  <course>23.93</course>
  <speed>0.03</speed>
  <fix>3d</fix>
</trkpt>
<trkpt lat="33.8106402" lon="-118.3938632">
  <ele>-2.0</ele>
  <time>2026-09-02T22:11:30Z</time>
  <course>250.67</course>
  <speed>0.01</speed>
  <fix>3d</fix>
</trkpt>
<trkpt lat="33.81064" lon="-118.393863">
  <ele>-2.197</ele>
  <time>2026-09-02T22:11:30Z</time>
  <course>23.94</course>
  <speed>0.03</speed>
  <fix>3d</fix>
</trkpt>
<trkpt lat="33.81064" lon="-118.393863">
  <ele>-2.249</ele>
  <time>2026-09-02T22:11:30Z</time>
  <course>23.95</course>
  <speed>0.03</speed>
  <fix>3d</fix>
</trkpt>
<trkpt lat="33.8106402" lon="-118.3938632">
  <ele>-2.0</ele>
  <time>2026-09-02T22:11:30Z</time>
  <course>250.67</course>
  <speed>0.01</speed>
  <fix>3d</fix>
</trkpt>
<trkpt lat="33.81064" lon="-118.393863">
  <ele>-2.265</ele>
  <time>2026-09-02T22:11:30Z</time>
  <course>23.96</course>
  <speed>0.03</speed>
  <fix>3d</fix>
</trkpt>
<trkpt lat="33.81064" lon="-118.393863">
  <ele>-2.315</ele>
  <time>2026-09-02T22:11:30Z</time>
  <course>23.97</course>
  <speed>0.03</speed>
  <fix>3d</fix>
</trkpt>
<trkpt lat="33.8106402" lon="-118.3938632">
  <ele>-2.12</ele>
  <time>2026-09-02T22:11:30Z</time>
  <course>250.53</course>
  <speed>0.01</speed>
  <fix>3d</fix>
</trkpt>
<trkpt lat="33.81064" lon="-118.393863">
  <ele>-2.335</ele>
  <time>2026-09-02T22:11:30Z</time>
  <course>23.98</course>
  <speed>0.03</speed>
  <fix>3d</fix>
</trkpt>
<trkpt lat="33.81064" lon="-118.393863">
  <ele>-2.382</ele>
  <time>2026-09-02T22:11:30Z</time>
  <course>23.99</course>
  <speed>0.03</speed>
  <fix>3d</fix>
</trkpt>
<trkpt lat="33.8106402" lon="-118.3938632">
  <ele>-2.12</ele>
  <time>2026-09-02T22:11:30Z</time>
  <course>250.53</course>
  <speed>0.01</speed>
  <fix>3d</fix>
</trkpt>
<trkpt lat="33.81064" lon="-118.393863">
  <ele>-2.394</ele>
  <time>2026-09-02T22:11:30Z</time>
  <course>24.0</course>
  <speed>0.03</speed>
  <fix>3d</fix>
</trkpt>
<trkpt lat="33.81064" lon="-118.3938631">
  <ele>-2.447</ele>
  <time>2026-09-02T22:11:30Z</time>
  <course>24.01</course>
  <speed>0.03</speed>
  <fix>3d</fix>
</trkpt>
<trkpt lat="33.8106402" lon="-118.3938632">
  <ele>-2.24</ele>
  <time>2026-09-02T22:11:30Z</time>
  <course>250.38</course>
  <speed>0.01</speed>
  <fix>3d</fix>
</trkpt>
<trkpt lat="33.81064" lon="-118.3938631">
  <ele>-2.464</ele>
  <time>2026-09-02T22:11:30Z</time>
  <course>24.02</course>
  <speed>0.03</speed>
  <fix>3d</fix>
</trkpt>
<trkpt lat="33.81064" lon="-118.3938631">
  <ele>-2.511</ele>
  <time>2026-09-02T22:11:30Z</time>
  <course>24.03</course>
  <speed>0.03</speed>
  <fix>3d</fix>
</trkpt>
<trkpt lat="33.8106402" lon="-118.3938632">
  <ele>-2.24</ele>
  <time>2026-09-02T22:11:30Z</time>
  <course>250.38</course>
  <speed>0.01</speed>
  <fix>3d</fix>
</trkpt>
<trkpt lat="33.81064" lon="-118.3938631">
  <ele>-2.533</ele>
  <time>2026-09-02T22:11:30Z</time>
  <course>24.04</course>
  <speed>0.03</speed>
  <fix>3d</fix>
</trkpt>
<trkpt lat="33.81064" lon="-118.3938631">
  <ele>-2.574</ele>
  <time>2026-09-02T22:11:30Z</time>
  <course>22.84</course>
  <speed>0.03</speed>
  <fix>3d</fix>
</trkpt>
<trkpt lat="33.8106402" lon="-118.3938632">
  <ele>-2.36</ele>
  <time>2026-09-02T22:11:30Z</time>
  <course>250.28</course>
  <speed>0.01</speed>
  <fix>3d</fix>
</trkpt>
<trkpt lat="33.81064" lon="-118.3938631">
  <ele>-2.575</ele>
  <time>2026-09-02T22:11:30Z</time>
  <course>22.84</course>
  <speed>0.03</speed>
  <fix>3d</fix>
</trkpt>
<trkpt lat="33.81064" lon="-118.3938631">
  <ele>-2.638</ele>
  <time>2026-09-02T22:11:30Z</time>
  <course>22.86</course>
  <speed>0.03</speed>
  <fix>3d</fix>
</trkpt>
<trkpt lat="33.8106402" lon="-118.3938632">
  <ele>-2.36</ele>
  <time>2026-09-02T22:11:30Z</time>
  <course>250.28</course>
  <speed>0.01</speed>
  <fix>3d</fix>
</trkpt>
<trkpt lat="33.81064" lon="-118.3938631">
  <ele>-2.639</ele>
  <time>2026-09-02T22:11:30Z</time>
  <course>22.86</course>
  <speed>0.03</speed>
  <fix>3d</fix>
</trkpt>
<trkpt lat="33.81064" lon="-118.3938631">
  <ele>-2.701</ele>
  <time>2026-09-02T22:11:30Z</time>
  <course>22.88</course>
  <speed>0.03</speed>
  <fix>3d</fix>
</trkpt>
<trkpt lat="33.8106402" lon="-118.3938632">
  <ele>-2.49</ele>
  <time>2026-09-02T22:11:30Z</time>
  <course>250.23</course>
  <speed>0.0</speed>
  <fix>3d</fix>
</trkpt>
<trkpt lat="33.81064" lon="-118.3938631">
  <ele>-2.702</ele>
  <time>2026-09-02T22:11:30Z</time>
  <course>22.88</course>
  <speed>0.03</speed>
  <fix>3d</fix>
</trkpt>
<trkpt lat="33.81064" lon="-118.3938631">
  <ele>-2.765</ele>
  <time>2026-09-02T22:11:30Z</time>
  <course>22.91</course>
  <speed>0.03</speed>
  <fix>3d</fix>
</trkpt>
<trkpt lat="33.8106402" lon="-118.3938632">
  <ele>-2.49</ele>
  <time>2026-09-02T22:11:30Z</time>
  <course>250.23</course>
  <speed>0.0</speed>
  <fix>3d</fix>
</trkpt>
<trkpt lat="33.81064" lon="-118.3938631">
  <ele>-2.766</ele>
  <time>2026-09-02T22:11:30Z</time>
  <course>22.91</course>
  <speed>0.03</speed>
  <fix>3d</fix>
</trkpt>
<trkpt lat="33.81064" lon="-118.3938631">
  <ele>-2.829</ele>
  <time>2026-09-02T22:11:30Z</time>
  <course>22.93</course>
  <speed>0.03</speed>
  <fix>3d</fix>
</trkpt>
<trkpt lat="33.8106402" lon="-118.3938633">
  <ele>-2.61</ele>
  <time>2026-09-02T22:11:30Z</time>
  <course>250.21</course>
  <speed>0.0</speed>
  <fix>3d</fix>
</trkpt>
<trkpt lat="33.81064" lon="-118.3938631">
  <ele>-2.832</ele>
  <time>2026-09-02T22:11:30Z</time>
  <course>22.93</course>
  <speed>0.03</speed>
  <fix>3d</fix>
</trkpt>
<trkpt lat="33.81064" lon="-118.3938631">
  <ele>-2.893</ele>
  <time>2026-09-02T22:11:30Z</time>
  <course>22.95</course>
  <speed>0.03</speed>
  <fix>3d</fix>
</trkpt>
<trkpt lat="33.8106402" lon="-118.3938633">
  <ele>-2.61</ele>
  <time>2026-09-02T22:11:30Z</time>
  <course>250.21</course>
  <speed>0.0</speed>
  <fix>3d</fix>
</trkpt>
<trkpt lat="33.81064" lon="-118.3938631">
  <ele>-2.896</ele>
  <time>2026-09-02T22:11:30Z</time>
  <course>22.95</course>
  <speed>0.03</speed>
  <fix>3d</fix>
</trkpt>
<trkpt lat="33.81064" lon="-118.3938631">
  <ele>-2.956</ele>
  <time>2026-09-02T22:11:30Z</time>
  <course>22.97</course>
  <speed>0.03</speed>
  <fix>3d</fix>
</trkpt>
<trkpt lat="33.8106402" lon="-118.3938633">
  <ele>-2.73</ele>
  <time>2026-09-02T22:11:30Z</time>
  <course>250.18</course>
  <speed>0.0</speed>
  <fix>3d</fix>
</trkpt>
<trkpt lat="33.81064" lon="-118.3938631">
  <ele>-2.958</ele>
  <time>2026-09-02T22:11:30Z</time>
  <course>22.97</course>
  <speed>0.03</speed>
  <fix>3d</fix>
</trkpt>
<trkpt lat="33.81064" lon="-118.3938631">
  <ele>-3.018</ele>
  <time>2026-09-02T22:11:30Z</time>
  <course>22.99</course>
  <speed>0.03</speed>
  <fix>3d</fix>
</trkpt>
<trkpt lat="33.8106402" lon="-118.3938633">
  <ele>-2.73</ele>
  <time>2026-09-02T22:11:30Z</time>
  <course>250.18</course>
  <speed>0.0</speed>
  <fix>3d</fix>
</trkpt>
<trkpt lat="33.81064" lon="-118.3938631">
  <ele>-3.02</ele>
  <time>2026-09-02T22:11:30Z</time>
  <course>22.99</course>
  <speed>0.03</speed>
  <fix>3d</fix>
</trkpt>
<trkpt lat="33.81064" lon="-118.3938632">
  <ele>-3.08</ele>
  <time>2026-09-02T22:11:30Z</time>
  <course>23.01</course>
  <speed>0.03</speed>
  <fix>3d</fix>
</trkpt>
<trkpt lat="33.8106402" lon="-118.3938633">
  <ele>-2.85</ele>
  <time>2026-09-02T22:11:30Z</time>
  <course>250.11</course>
  <speed>0.0</speed>
  <fix>3d</fix>
</trkpt>
<trkpt lat="33.81064" lon="-118.3938632">
  <ele>-3.082</ele>
  <time>2026-09-02T22:11:30Z</time>
  <course>23.01</course>
  <speed>0.03</speed>
  <fix>3d</fix>
</trkpt>
<trkpt lat="33.81064" lon="-118.3938632">
  <ele>-3.142</ele>
  <time>2026-09-02T22:11:30Z</time>
  <course>23.03</course>
  <speed>0.03</speed>
  <fix>3d</fix>
</trkpt>
<trkpt lat="33.8106402" lon="-118.3938633">
  <ele>-2.85</ele>
  <time>2026-09-02T22:11:30Z</time>
  <course>250.11</course>
  <speed>0.0</speed>
  <fix>3d</fix>
</trkpt>
<trkpt lat="33.8106399" lon="-118.3938632">
  <ele>-3.143</ele>
  <time>2026-09-02T22:11:30Z</time>
  <course>23.03</course>
  <speed>0.03</speed>
  <fix>3d</fix>
</trkpt>
<trkpt lat="33.8106399" lon="-118.3938632">
  <ele>-3.203</ele>
  <time>2026-09-02T22:11:30Z</time>
  <course>23.05</course>
  <speed>0.03</speed>
  <fix>3d</fix>
</trkpt>
<trkpt lat="33.8106402" lon="-118.3938633">
  <ele>-2.97</ele>
  <time>2026-09-02T22:11:30Z</time>
  <course>249.99</course>
  <speed>0.0</speed>
  <fix>3d</fix>
</trkpt>
<trkpt lat="33.8106399" lon="-118.3938632">
  <ele>-3.205</ele>
  <time>2026-09-02T22:11:30Z</time>
  <course>23.05</course>
  <speed>0.03</speed>
  <fix>3d</fix>
</trkpt>
<trkpt lat="33.8106399" lon="-118.3938632">
  <ele>-3.266</ele>
  <time>2026-09-02T22:11:30Z</time>
  <course>23.07</course>
  <speed>0.03</speed>
  <fix>3d</fix>
</trkpt>
<trkpt lat="33.8106402" lon="-118.3938633">
  <ele>-2.97</ele>
  <time>2026-09-02T22:11:30Z</time>
  <course>249.99</course>
  <speed>0.0</speed>
  <fix>3d</fix>
</trkpt>
<trkpt lat="33.8106399" lon="-118.3938632">
  <ele>-3.267</ele>
  <time>2026-09-02T22:11:30Z</time>
  <course>23.07</course>
  <speed>0.03</speed>
  <fix>3d</fix>
</trkpt>
<trkpt lat="33.8106399" lon="-118.3938632">
  <ele>-3.328</ele>
  <time>2026-09-02T22:11:30Z</time>
  <course>23.09</course>
  <speed>0.03</speed>
  <fix>3d</fix>
</trkpt>
<trkpt lat="33.8106402" lon="-118.3938633">
  <ele>-3.09</ele>
  <time>2026-09-02T22:11:30Z</time>
  <course>249.87</course>
  <speed>0.0</speed>
  <fix>3d</fix>
</trkpt>
<trkpt lat="33.8106399" lon="-118.3938632">
  <ele>-3.331</ele>
  <time>2026-09-02T22:11:30Z</time>
  <course>23.09</course>
  <speed>0.03</speed>
  <fix>3d</fix>
</trkpt>
<trkpt lat="33.8106399" lon="-118.3938632">
  <ele>-3.391</ele>
  <time>2026-09-02T22:11:30Z</time>
  <course>23.11</course>
  <speed>0.03</speed>
  <fix>3d</fix>
</trkpt>
<trkpt lat="33.8106402" lon="-118.3938633">
  <ele>-3.09</ele>
  <time>2026-09-02T22:11:30Z</time>
  <course>249.87</course>
  <speed>0.0</speed>
  <fix>3d</fix>
</trkpt>
<trkpt lat="33.8106399" lon="-118.3938632">
  <ele>-3.393</ele>
  <time>2026-09-02T22:11:30Z</time>
  <course>23.11</course>
  <speed>0.03</speed>
  <fix>3d</fix>
</trkpt>
<trkpt lat="33.8106399" lon="-118.3938632">
  <ele>-3.453</ele>
  <time>2026-09-02T22:11:30Z</time>
  <course>23.13</course>
  <speed>0.03</speed>
  <fix>3d</fix>
</trkpt>
<trkpt lat="33.8106402" lon="-118.3938634">
  <ele>-3.21</ele>
  <time>2026-09-02T22:11:30Z</time>
  <course>249.8</course>
  <speed>0.0</speed>
  <fix>3d</fix>
</trkpt>
<trkpt lat="33.8106399" lon="-118.3938632">
  <ele>-3.454</ele>
  <time>2026-09-02T22:11:30Z</time>
  <course>23.13</course>
  <speed>0.03</speed>
  <fix>3d</fix>
</trkpt>
<trkpt lat="33.8106399" lon="-118.3938632">
  <ele>-3.514</ele>
  <time>2026-09-02T22:11:30Z</time>
  <course>23.15</course>
  <speed>0.03</speed>
  <fix>3d</fix>
</trkpt>
<trkpt lat="33.8106402" lon="-118.3938634">
  <ele>-3.21</ele>
  <time>2026-09-02T22:11:30Z</time>
  <course>249.8</course>
  <speed>0.0</speed>
  <fix>3d</fix>
</trkpt>
<trkpt lat="33.8106399" lon="-118.3938632">
  <ele>-3.517</ele>
  <time>2026-09-02T22:11:30Z</time>
  <course>23.15</course>
  <speed>0.03</speed>
  <fix>3d</fix>
</trkpt>
<trkpt lat="33.8106399" lon="-118.3938632">
  <ele>-3.575</ele>
  <time>2026-09-02T22:11:30Z</time>
  <course>23.17</course>
  <speed>0.04</speed>
  <fix>3d</fix>
</trkpt>
<trkpt lat="33.8106402" lon="-118.3938634">
  <ele>-3.33</ele>
  <time>2026-09-02T22:11:30Z</time>
  <course>249.77</course>
  <speed>0.0</speed>
  <fix>3d</fix>
</trkpt>
<trkpt lat="33.8106399" lon="-118.3938632">
  <ele>-3.576</ele>
  <time>2026-09-02T22:11:30Z</time>
  <course>23.17</course>
  <speed>0.04</speed>
  <fix>3d</fix>
</trkpt>
<trkpt lat="33.8106399" lon="-118.3938632">
  <ele>-3.636</ele>
  <time>2026-09-02T22:11:30Z</time>
  <course>23.26</course>
  <speed>0.04</speed>
  <fix>3d</fix>
</trkpt>
<trkpt lat="33.8106402" lon="-118.3938634">
  <ele>-3.33</ele>
  <time>2026-09-02T22:11:30Z</time>
  <course>249.77</course>
  <speed>0.0</speed>
  <fix>3d</fix>
</trkpt>
<trkpt lat="33.8106399" lon="-118.3938632">
  <ele>-3.655</ele>
  <time>2026-09-02T22:11:30Z</time>
  <course>23.31</course>
  <speed>0.04</speed>
  <fix>3d</fix>
</trkpt>
<trkpt lat="33.8106399" lon="-118.3938632">
  <ele>-3.697</ele>
  <time>2026-09-02T22:11:30Z</time>
  <course>23.42</course>
  <speed>0.04</speed>
  <fix>3d</fix>
</trkpt>
<trkpt lat="33.8106402" lon="-118.3938634">
  <ele>-3.45</ele>
  <time>2026-09-02T22:11:30Z</time>
  <course>249.76</course>
  <speed>0.0</speed>
  <fix>3d</fix>
</trkpt>
<trkpt lat="33.8106399" lon="-118.3938632">
  <ele>-3.717</ele>
  <time>2026-09-02T22:11:30Z</time>
  <course>23.47</course>
  <speed>0.04</speed>
  <fix>3d</fix>
</trkpt>
<trkpt lat="33.8106399" lon="-118.3938632">
  <ele>-3.757</ele>
  <time>2026-09-02T22:11:30Z</time>
  <course>23.54</course>
  <speed>0.04</speed>
  <fix>3d</fix>
</trkpt>
<trkpt lat="33.8106402" lon="-118.3938634">
  <ele>-3.45</ele>
  <time>2026-09-02T22:11:30Z</time>
  <course>249.76</course>
  <speed>0.0</speed>
  <fix>3d</fix>
</trkpt>
<trkpt lat="33.8106399" lon="-118.3938632">
  <ele>-3.78</ele>
  <time>2026-09-02T22:11:30Z</time>
  <course>23.57</course>
  <speed>0.04</speed>
  <fix>3d</fix>
</trkpt>
<trkpt lat="33.8106399" lon="-118.3938632">
  <ele>-3.817</ele>
  <time>2026-09-02T22:11:30Z</time>
  <course>23.6</course>
  <speed>0.04</speed>
  <fix>3d</fix>
</trkpt>
<trkpt lat="33.8106402" lon="-118.3938634">
  <ele>-3.57</ele>
  <time>2026-09-02T22:11:30Z</time>
  <course>249.72</course>
  <speed>0.0</speed>
  <fix>3d</fix>
</trkpt>
<trkpt lat="33.8106399" lon="-118.3938632">
  <ele>-3.836</ele>
  <time>2026-09-02T22:11:30Z</time>
  <course>23.61</course>
  <speed>0.04</speed>
  <fix>3d</fix>
</trkpt>
<trkpt lat="33.8106399" lon="-118.3938632">
  <ele>-3.875</ele>
  <time>2026-09-02T22:11:30Z</time>
  <course>23.63</course>
  <speed>0.04</speed>
  <fix>3d</fix>
</trkpt>
<trkpt lat="33.8106402" lon="-118.3938634">
  <ele>-3.57</ele>
  <time>2026-09-02T22:11:30Z</time>
  <course>249.72</course>
  <speed>0.0</speed>
  <fix>3d</fix>
</trkpt>
<trkpt lat="33.8106399" lon="-118.3938632">
  <ele>-3.891</ele>
  <time>2026-09-02T22:11:30Z</time>
  <course>23.64</course>
  <speed>0.04</speed>
  <fix>3d</fix>
</trkpt>
<trkpt lat="33.8106399" lon="-118.3938632">
  <ele>-3.933</ele>
  <time>2026-09-02T22:11:30Z</time>
  <course>23.65</course>
  <speed>0.04</speed>
  <fix>3d</fix>
</trkpt>
<trkpt lat="33.8106402" lon="-118.3938634">
  <ele>-3.69</ele>
  <time>2026-09-02T22:11:30Z</time>
  <course>249.64</course>
  <speed>0.0</speed>
  <fix>3d</fix>
</trkpt>
<trkpt lat="33.8106399" lon="-118.3938632">
  <ele>-3.953</ele>
  <time>2026-09-02T22:11:30Z</time>
  <course>23.66</course>
  <speed>0.04</speed>
  <fix>3d</fix>
</trkpt>
<trkpt lat="33.8106399" lon="-118.3938632">
  <ele>-3.992</ele>
  <time>2026-09-02T22:11:30Z</time>
  <course>23.67</course>
  <speed>0.04</speed>
  <fix>3d</fix>
</trkpt>
<trkpt lat="33.8106402" lon="-118.3938634">
  <ele>-3.69</ele>
  <time>2026-09-02T22:11:30Z</time>
  <course>249.64</course>
  <speed>0.0</speed>
  <fix>3d</fix>
</trkpt>
<trkpt lat="33.8106398" lon="-118.3938632">
  <ele>-4.01</ele>
  <time>2026-09-02T22:11:30Z</time>
  <course>23.68</course>
  <speed>0.04</speed>
  <fix>3d</fix>
</trkpt>
<trkpt lat="33.8106398" lon="-118.3938633">
  <ele>-4.05</ele>
  <time>2026-09-02T22:11:30Z</time>
  <course>23.69</course>
  <speed>0.04</speed>
  <fix>3d</fix>
</trkpt>
<trkpt lat="33.8106402" lon="-118.3938635">
  <ele>-3.81</ele>
  <time>2026-09-02T22:11:30Z</time>
  <course>249.52</course>
  <speed>0.0</speed>
  <fix>3d</fix>
</trkpt>
<trkpt lat="33.8106398" lon="-118.3938633">
  <ele>-4.051</ele>
  <time>2026-09-02T22:11:30Z</time>
  <course>23.69</course>
  <speed>0.04</speed>
  <fix>3d</fix>
</trkpt>
<trkpt lat="33.8106398" lon="-118.3938633">
  <ele>-4.109</ele>
  <time>2026-09-02T22:11:30Z</time>
  <course>23.72</course>
  <speed>0.04</speed>
  <fix>3d</fix>
</trkpt>
<trkpt lat="33.8106402" lon="-118.3938635">
  <ele>-3.81</ele>
  <time>2026-09-02T22:11:30Z</time>
  <course>249.52</course>
  <speed>0.0</speed>
  <fix>3d</fix>
</trkpt>
<trkpt lat="33.8106398" lon="-118.3938633">
  <ele>-4.129</ele>
  <time>2026-09-02T22:11:30Z</time>
  <course>23.72</course>
  <speed>0.04</speed>
  <fix>3d</fix>
</trkpt>
<trkpt lat="33.8106398" lon="-118.3938633">
  <ele>-4.17</ele>
  <time>2026-09-02T22:11:30Z</time>
  <course>23.74</course>
  <speed>0.04</speed>
  <fix>3d</fix>
</trkpt>
<trkpt lat="33.8106402" lon="-118.3938635">
  <ele>-3.92</ele>
  <time>2026-09-02T22:11:30Z</time>
  <course>249.43</course>
  <speed>0.0</speed>
  <fix>3d</fix>
</trkpt>
<trkpt lat="33.8106398" lon="-118.3938633">
  <ele>-4.191</ele>
  <time>2026-09-02T22:11:30Z</time>
  <course>23.75</course>
  <speed>0.04</speed>
  <fix>3d</fix>
</trkpt>
<trkpt lat="33.8106398" lon="-118.3938633">
  <ele>-4.231</ele>
  <time>2026-09-02T22:11:30Z</time>
  <course>23.76</course>
  <speed>0.04</speed>
  <fix>3d</fix>
</trkpt>
<trkpt lat="33.8106402" lon="-118.3938635">
  <ele>-3.92</ele>
  <time>2026-09-02T22:11:30Z</time>
  <course>249.43</course>
  <speed>0.0</speed>
  <fix>3d</fix>
</trkpt>
<trkpt lat="33.8106398" lon="-118.3938633">
  <ele>-4.252</ele>
  <time>2026-09-02T22:11:30Z</time>
  <course>23.77</course>
  <speed>0.04</speed>
  <fix>3d</fix>
</trkpt>
<trkpt lat="33.8106398" lon="-118.3938633">
  <ele>-4.291</ele>
  <time>2026-09-02T22:11:30Z</time>
  <course>23.78</course>
  <speed>0.04</speed>
  <fix>3d</fix>
</trkpt>
<trkpt lat="33.8106402" lon="-118.3938635">
  <ele>-4.05</ele>
  <time>2026-09-02T22:11:30Z</time>
  <course>249.38</course>
  <speed>0.0</speed>
  <fix>3d</fix>
</trkpt>
<trkpt lat="33.8106398" lon="-118.3938633">
  <ele>-4.293</ele>
  <time>2026-09-02T22:11:30Z</time>
  <course>23.78</course>
  <speed>0.04</speed>
  <fix>3d</fix>
</trkpt>
<trkpt lat="33.8106398" lon="-118.3938633">
  <ele>-4.352</ele>
  <time>2026-09-02T22:11:30Z</time>
  <course>23.8</course>
  <speed>0.04</speed>
  <fix>3d</fix>
</trkpt>
<trkpt lat="33.8106402" lon="-118.3938635">
  <ele>-4.05</ele>
  <time>2026-09-02T22:11:30Z</time>
  <course>249.38</course>
  <speed>0.0</speed>
  <fix>3d</fix>
</trkpt>
<trkpt lat="33.8106398" lon="-118.3938633">
  <ele>-4.371</ele>
  <time>2026-09-02T22:11:30Z</time>
  <course>23.81</course>
  <speed>0.04</speed>
  <fix>3d</fix>
</trkpt>
<trkpt lat="33.8106398" lon="-118.3938633">
  <ele>-4.413</ele>
  <time>2026-09-02T22:11:30Z</time>
  <course>23.82</course>
  <speed>0.04</speed>
  <fix>3d</fix>
</trkpt>
<trkpt lat="33.8106402" lon="-118.3938635">
  <ele>-4.17</ele>
  <time>2026-09-02T22:11:30Z</time>
  <course>249.37</course>
  <speed>0.0</speed>
  <fix>3d</fix>
</trkpt>
<trkpt lat="33.8106398" lon="-118.3938633">
  <ele>-4.433</ele>
  <time>2026-09-02T22:11:30Z</time>
  <course>23.83</course>
  <speed>0.04</speed>
  <fix>3d</fix>
</trkpt>
<trkpt lat="33.8106398" lon="-118.3938633">
  <ele>-4.475</ele>
  <time>2026-09-02T22:11:30Z</time>
  <course>23.84</course>
  <speed>0.04</speed>
  <fix>3d</fix>
</trkpt>
<trkpt lat="33.8106402" lon="-118.3938635">
  <ele>-4.17</ele>
  <time>2026-09-02T22:11:30Z</time>
  <course>249.37</course>
  <speed>0.0</speed>
  <fix>3d</fix>
</trkpt>
<trkpt lat="33.8106398" lon="-118.3938633">
  <ele>-4.497</ele>
  <time>2026-09-02T22:11:30Z</time>
  <course>23.85</course>
  <speed>0.04</speed>
  <fix>3d</fix>
</trkpt>
<trkpt lat="33.8106398" lon="-118.3938633">
  <ele>-4.537</ele>
  <time>2026-09-02T22:11:30Z</time>
  <course>23.86</course>
  <speed>0.04</speed>
  <fix>3d</fix>
</trkpt>
<trkpt lat="33.8106402" lon="-118.3938635">
  <ele>-4.3</ele>
  <time>2026-09-02T22:11:30Z</time>
  <course>249.36</course>
  <speed>0.0</speed>
  <fix>3d</fix>
</trkpt>
<trkpt lat="33.8106398" lon="-118.3938633">
  <ele>-4.558</ele>
  <time>2026-09-02T22:11:30Z</time>
  <course>23.87</course>
  <speed>0.04</speed>
  <fix>3d</fix>
</trkpt>
<trkpt lat="33.8106398" lon="-118.3938633">
  <ele>-4.599</ele>
  <time>2026-09-02T22:11:30Z</time>
  <course>23.88</course>
  <speed>0.04</speed>
  <fix>3d</fix>
</trkpt>
<trkpt lat="33.8106402" lon="-118.3938635">
  <ele>-4.3</ele>
  <time>2026-09-02T22:11:30Z</time>
  <course>249.36</course>
  <speed>0.0</speed>
  <fix>3d</fix>
</trkpt>
<trkpt lat="33.8106398" lon="-118.3938633">
  <ele>-4.621</ele>
  <time>2026-09-02T22:11:30Z</time>
  <course>23.89</course>
  <speed>0.04</speed>
  <fix>3d</fix>
</trkpt>
<trkpt lat="33.8106398" lon="-118.3938633">
  <ele>-4.662</ele>
  <time>2026-09-02T22:11:30Z</time>
  <course>23.9</course>
  <speed>0.04</speed>
  <fix>3d</fix>
</trkpt>
<trkpt lat="33.8106402" lon="-118.3938635">
  <ele>-4.42</ele>
  <time>2026-09-02T22:11:30Z</time>
  <course>249.31</course>
  <speed>0.0</speed>
  <fix>3d</fix>
</trkpt>
<trkpt lat="33.8106398" lon="-118.3938633">
  <ele>-4.683</ele>
  <time>2026-09-02T22:11:30Z</time>
  <course>23.9</course>
  <speed>0.04</speed>
  <fix>3d</fix>
</trkpt>
<trkpt lat="33.8106398" lon="-118.3938633">
  <ele>-4.724</ele>
  <time>2026-09-02T22:11:30Z</time>
  <course>23.92</course>
  <speed>0.04</speed>
  <fix>3d</fix>
</trkpt>
<trkpt lat="33.8106402" lon="-118.3938635">
  <ele>-4.42</ele>
  <time>2026-09-02T22:11:30Z</time>
  <course>249.31</course>
  <speed>0.0</speed>
  <fix>3d</fix>
</trkpt>
<trkpt lat="33.8106398" lon="-118.3938633">
  <ele>-4.725</ele>
  <time>2026-09-02T22:11:30Z</time>
  <course>23.92</course>
  <speed>0.04</speed>
  <fix>3d</fix>
</trkpt>
<trkpt lat="33.8106398" lon="-118.3938633">
  <ele>-4.786</ele>
  <time>2026-09-02T22:11:30Z</time>
  <course>23.93</course>
  <speed>0.04</speed>
  <fix>3d</fix>
</trkpt>
<trkpt lat="33.8106402" lon="-118.3938636">
  <ele>-4.54</ele>
  <time>2026-09-02T22:11:30Z</time>
  <course>249.22</course>
  <speed>0.0</speed>
  <fix>3d</fix>
</trkpt>
<trkpt lat="33.8106398" lon="-118.3938633">
  <ele>-4.807</ele>
  <time>2026-09-02T22:11:30Z</time>
  <course>23.94</course>
  <speed>0.04</speed>
  <fix>3d</fix>
</trkpt>
<trkpt lat="33.8106398" lon="-118.3938634">
  <ele>-4.847</ele>
  <time>2026-09-02T22:11:30Z</time>
  <course>23.95</course>
  <speed>0.04</speed>
  <fix>3d</fix>
</trkpt>
<trkpt lat="33.8106402" lon="-118.3938636">
  <ele>-4.54</ele>
  <time>2026-09-02T22:11:30Z</time>
  <course>249.22</course>
  <speed>0.0</speed>
  <fix>3d</fix>
</trkpt>
<trkpt lat="33.8106398" lon="-118.3938634">
  <ele>-4.867</ele>
  <time>2026-09-02T22:11:30Z</time>
  <course>23.96</course>
  <speed>0.04</speed>
  <fix>3d</fix>
</trkpt>
<trkpt lat="33.8106398" lon="-118.3938634">
  <ele>-4.908</ele>
  <time>2026-09-02T22:11:30Z</time>
  <course>23.97</course>
  <speed>0.03</speed>
  <fix>3d</fix>
</trkpt>
<trkpt lat="33.8106402" lon="-118.3938636">
  <ele>-4.66</ele>
  <time>2026-09-02T22:11:30Z</time>
  <course>249.12</course>
  <speed>0.0</speed>
  <fix>3d</fix>
</trkpt>
<trkpt lat="33.8106398" lon="-118.3938634">
  <ele>-4.929</ele>
  <time>2026-09-02T22:11:30Z</time>
  <course>23.97</course>
  <speed>0.03</speed>
  <fix>3d</fix>
</trkpt>
<trkpt lat="33.8106398" lon="-118.3938634">
  <ele>-4.969</ele>
  <time>2026-09-02T22:11:30Z</time>
  <course>23.99</course>
  <speed>0.03</speed>
  <fix>3d</fix>
</trkpt>
<trkpt lat="33.8106402" lon="-118.3938636">
  <ele>-4.66</ele>
  <time>2026-09-02T22:11:30Z</time>
  <course>249.12</course>
  <speed>0.0</speed>
  <fix>3d</fix>
</trkpt>
<trkpt lat="33.8106398" lon="-118.3938634">
  <ele>-4.989</ele>
  <time>2026-09-02T22:11:30Z</time>
  <course>23.99</course>
  <speed>0.03</speed>
  <fix>3d</fix>
</trkpt>
<trkpt lat="33.8106398" lon="-118.3938634">
  <ele>-5.031</ele>
  <time>2026-09-02T22:11:30Z</time>
  <course>24.0</course>
  <speed>0.03</speed>
  <fix>3d</fix>
</trkpt>
<trkpt lat="33.8106402" lon="-118.3938636">
  <ele>-4.77</ele>
  <time>2026-09-02T22:11:30Z</time>
  <course>249.04</course>
  <speed>0.0</speed>
  <fix>3d</fix>
</trkpt>
<trkpt lat="33.8106399" lon="-118.3938634">
  <ele>-5.052</ele>
  <time>2026-09-02T22:11:30Z</time>
  <course>24.01</course>
  <speed>0.03</speed>
  <fix>3d</fix>
</trkpt>
<trkpt lat="33.8106399" lon="-118.3938634">
  <ele>-5.095</ele>
  <time>2026-09-02T22:11:30Z</time>
  <course>24.02</course>
  <speed>0.03</speed>
  <fix>3d</fix>
</trkpt>
<trkpt lat="33.8106402" lon="-118.3938636">
  <ele>-4.77</ele>
  <time>2026-09-02T22:11:30Z</time>
  <course>249.04</course>
  <speed>0.0</speed>
  <fix>3d</fix>
</trkpt>
<trkpt lat="33.8106399" lon="-118.3938634">
  <ele>-5.117</ele>
  <time>2026-09-02T22:11:30Z</time>
  <course>24.03</course>
  <speed>0.03</speed>
  <fix>3d</fix>
</trkpt>
<trkpt lat="33.8106399" lon="-118.3938634">
  <ele>-5.158</ele>
  <time>2026-09-02T22:11:30Z</time>
  <course>24.04</course>
  <speed>0.03</speed>
  <fix>3d</fix>
</trkpt>
<trkpt lat="33.8106402" lon="-118.3938636">
  <ele>-4.9</ele>
  <time>2026-09-02T22:11:30Z</time>
  <course>249.02</course>
  <speed>0.0</speed>
  <fix>3d</fix>
</trkpt>
<trkpt lat="33.8106399" lon="-118.3938634">
  <ele>-5.178</ele>
  <time>2026-09-02T22:11:30Z</time>
  <course>24.04</course>
  <speed>0.03</speed>
  <fix>3d</fix>
</trkpt>
<trkpt lat="33.8106399" lon="-118.3938634">
  <ele>-5.221</ele>
  <time>2026-09-02T22:11:30Z</time>
  <course>24.05</course>
  <speed>0.03</speed>
  <fix>3d</fix>
</trkpt>
<trkpt lat="33.8106402" lon="-118.3938636">
  <ele>-4.9</ele>
  <time>2026-09-02T22:11:30Z</time>
  <course>249.02</course>
  <speed>0.0</speed>
  <fix>3d</fix>
</trkpt>
<trkpt lat="33.8106399" lon="-118.3938634">
  <ele>-5.243</ele>
  <time>2026-09-02T22:11:30Z</time>
  <course>24.06</course>
  <speed>0.03</speed>
  <fix>3d</fix>
</trkpt>
<trkpt lat="33.8106399" lon="-118.3938634">
  <ele>-5.284</ele>
  <time>2026-09-02T22:11:30Z</time>
  <course>24.07</course>
  <speed>0.03</speed>
  <fix>3d</fix>
</trkpt>
<trkpt lat="33.8106402" lon="-118.3938636">
  <ele>-5.02</ele>
  <time>2026-09-02T22:11:30Z</time>
  <course>249.01</course>
  <speed>0.0</speed>
  <fix>3d</fix>
</trkpt>
<trkpt lat="33.8106399" lon="-118.3938634">
  <ele>-5.307</ele>
  <time>2026-09-02T22:11:30Z</time>
  <course>24.08</course>
  <speed>0.03</speed>
  <fix>3d</fix>
</trkpt>
<trkpt lat="33.8106399" lon="-118.3938635">
  <ele>-5.347</ele>
  <time>2026-09-02T22:11:30Z</time>
  <course>24.09</course>
  <speed>0.02</speed>
  <fix>3d</fix>
</trkpt>
<trkpt lat="33.8106402" lon="-118.3938636">
  <ele>-5.02</ele>
  <time>2026-09-02T22:11:30Z</time>
  <course>249.01</course>
  <speed>0.0</speed>
  <fix>3d</fix>
</trkpt>
<trkpt lat="33.8106399" lon="-118.3938635">
  <ele>-5.369</ele>
  <time>2026-09-02T22:11:30Z</time>
  <course>24.1</course>
  <speed>0.02</speed>
  <fix>3d</fix>
</trkpt>
<trkpt lat="33.8106399" lon="-118.3938635">
  <ele>-5.41</ele>
  <time>2026-09-02T22:11:30Z</time>
  <course>24.11</course>
  <speed>0.02</speed>
  <fix>3d</fix>
</trkpt>
<trkpt lat="33.8106402" lon="-118.3938637">
  <ele>-5.14</ele>
  <time>2026-09-02T22:11:30Z</time>
  <course>248.99</course>
  <speed>0.0</speed>
  <fix>3d</fix>
</trkpt>
<trkpt lat="33.8106399" lon="-118.3938635">
  <ele>-5.411</ele>
  <time>2026-09-02T22:11:30Z</time>
  <course>24.11</course>
  <speed>0.02</speed>
  <fix>3d</fix>
</trkpt>
<trkpt lat="33.8106399" lon="-118.3938635">
  <ele>-5.472</ele>
  <time>2026-09-02T22:11:30Z</time>
  <course>24.12</course>
  <speed>0.02</speed>
  <fix>3d</fix>
</trkpt>
<trkpt lat="33.8106402" lon="-118.3938637">
  <ele>-5.14</ele>
  <time>2026-09-02T22:11:30Z</time>
  <course>248.99</course>
  <speed>0.0</speed>
  <fix>3d</fix>
</trkpt>
<trkpt lat="33.8106399" lon="-118.3938635">
  <ele>-5.493</ele>
  <time>2026-09-02T22:11:30Z</time>
  <course>24.13</course>
  <speed>0.02</speed>
  <fix>3d</fix>
</trkpt>
<trkpt lat="33.8106399" lon="-118.3938635">
  <ele>-5.535</ele>
  <time>2026-09-02T22:11:30Z</time>
  <course>24.14</course>
  <speed>0.02</speed>
  <fix>3d</fix>
</trkpt>
<trkpt lat="33.8106401" lon="-118.3938637">
  <ele>-5.26</ele>
  <time>2026-09-02T22:11:30Z</time>
  <course>248.94</course>
  <speed>0.0</speed>
  <fix>3d</fix>
</trkpt>
<trkpt lat="33.8106399" lon="-118.3938635">
  <ele>-5.557</ele>
  <time>2026-09-02T22:11:30Z</time>
  <course>24.14</course>
  <speed>0.02</speed>
  <fix>3d</fix>
</trkpt>
<trkpt lat="33.8106399" lon="-118.3938635">
  <ele>-5.598</ele>
  <time>2026-09-02T22:11:30Z</time>
  <course>24.15</course>
  <speed>0.02</speed>
  <fix>3d</fix>
</trkpt>
<trkpt lat="33.8106401" lon="-118.3938637">
  <ele>-5.26</ele>
  <time>2026-09-02T22:11:30Z</time>
  <course>248.94</course>
  <speed>0.0</speed>
  <fix>3d</fix>
</trkpt>
<trkpt lat="33.8106399" lon="-118.3938635">
  <ele>-5.621</ele>
  <time>2026-09-02T22:11:30Z</time>
  <course>24.16</course>
  <speed>0.02</speed>
  <fix>3d</fix>
</trkpt>
<trkpt lat="33.8106399" lon="-118.3938635">
  <ele>-5.662</ele>
  <time>2026-09-02T22:11:30Z</time>
  <course>24.17</course>
  <speed>0.02</speed>
  <fix>3d</fix>
</trkpt>
<trkpt lat="33.8106401" lon="-118.3938637">
  <ele>-5.38</ele>
  <time>2026-09-02T22:11:30Z</time>
  <course>248.85</course>
  <speed>0.0</speed>
  <fix>3d</fix>
</trkpt>
<trkpt lat="33.8106399" lon="-118.3938635">
  <ele>-5.682</ele>
  <time>2026-09-02T22:11:30Z</time>
  <course>24.18</course>
  <speed>0.02</speed>
  <fix>3d</fix>
</trkpt>
<trkpt lat="33.8106399" lon="-118.3938635">
  <ele>-5.725</ele>
  <time>2026-09-02T22:11:30Z</time>
  <course>24.19</course>
  <speed>0.02</speed>
  <fix>3d</fix>
</trkpt>
<trkpt lat="33.8106401" lon="-118.3938637">
  <ele>-5.38</ele>
  <time>2026-09-02T22:11:30Z</time>
  <course>248.85</course>
  <speed>0.0</speed>
  <fix>3d</fix>
</trkpt>
<trkpt lat="33.8106399" lon="-118.3938636">
  <ele>-5.748</ele>
  <time>2026-09-02T22:11:30Z</time>
  <course>24.19</course>
  <speed>0.02</speed>
  <fix>3d</fix>
</trkpt>
<trkpt lat="33.8106399" lon="-118.3938636">
  <ele>-5.788</ele>
  <time>2026-09-02T22:11:30Z</time>
  <course>24.2</course>
  <speed>0.02</speed>
  <fix>3d</fix>
</trkpt>
<trkpt lat="33.8106401" lon="-118.3938637">
  <ele>-5.5</ele>
  <time>2026-09-02T22:11:30Z</time>
  <course>248.76</course>
  <speed>0.0</speed>
  <fix>3d</fix>
</trkpt>
<trkpt lat="33.8106399" lon="-118.3938636">
  <ele>-5.808</ele>
  <time>2026-09-02T22:11:30Z</time>
  <course>24.21</course>
  <speed>0.02</speed>
  <fix>3d</fix>
</trkpt>
<trkpt lat="33.8106399" lon="-118.3938636">
  <ele>-5.85</ele>
  <time>2026-09-02T22:11:30Z</time>
  <course>24.22</course>
  <speed>0.02</speed>
  <fix>3d</fix>
</trkpt>
<trkpt lat="33.8106401" lon="-118.3938637">
  <ele>-5.5</ele>
  <time>2026-09-02T22:11:30Z</time>
  <course>248.76</course>
  <speed>0.0</speed>
  <fix>3d</fix>
</trkpt>
<trkpt lat="33.8106399" lon="-118.3938636">
  <ele>-5.871</ele>
  <time>2026-09-02T22:11:30Z</time>
  <course>24.22</course>
  <speed>0.02</speed>
  <fix>3d</fix>
</trkpt>
<trkpt lat="33.8106399" lon="-118.3938636">
  <ele>-5.912</ele>
  <time>2026-09-02T22:11:30Z</time>
  <course>24.24</course>
  <speed>0.02</speed>
  <fix>3d</fix>
</trkpt>
<trkpt lat="33.8106401" lon="-118.3938637">
  <ele>-5.62</ele>
  <time>2026-09-02T22:11:30Z</time>
  <course>248.71</course>
  <speed>0.0</speed>
  <fix>3d</fix>
</trkpt>
<trkpt lat="33.8106399" lon="-118.3938636">
  <ele>-5.934</ele>
  <time>2026-09-02T22:11:30Z</time>
  <course>24.24</course>
  <speed>0.02</speed>
  <fix>3d</fix>
</trkpt>
<trkpt lat="33.8106399" lon="-118.3938636">
  <ele>-5.973</ele>
  <time>2026-09-02T22:11:30Z</time>
  <course>24.25</course>
  <speed>0.02</speed>
  <fix>3d</fix>
</trkpt>
<trkpt lat="33.8106401" lon="-118.3938637">
  <ele>-5.62</ele>
  <time>2026-09-02T22:11:30Z</time>
  <course>248.71</course>
  <speed>0.0</speed>
  <fix>3d</fix>
</trkpt>
<trkpt lat="33.8106399" lon="-118.3938636">
  <ele>-5.994</ele>
  <time>2026-09-02T22:11:30Z</time>
  <course>24.26</course>
  <speed>0.02</speed>
  <fix>3d</fix>
</trkpt>
<trkpt lat="33.8106399" lon="-118.3938636">
  <ele>-6.033</ele>
  <time>2026-09-02T22:11:30Z</time>
  <course>24.27</course>
  <speed>0.02</speed>
  <fix>3d</fix>
</trkpt>
<trkpt lat="33.8106401" lon="-118.3938637">
  <ele>-5.74</ele>
  <time>2026-09-02T22:11:30Z</time>
  <course>248.69</course>
  <speed>0.0</speed>
  <fix>3d</fix>
</trkpt>
<trkpt lat="33.8106399" lon="-118.3938636">
  <ele>-6.035</ele>
  <time>2026-09-02T22:11:30Z</time>
  <course>24.27</course>
  <speed>0.02</speed>
  <fix>3d</fix>
</trkpt>
<trkpt lat="33.8106399" lon="-118.3938636">
  <ele>-6.093</ele>
  <time>2026-09-02T22:11:30Z</time>
  <course>24.28</course>
  <speed>0.02</speed>
  <fix>3d</fix>
</trkpt>
<trkpt lat="33.8106401" lon="-118.3938637">
  <ele>-5.74</ele>
  <time>2026-09-02T22:11:30Z</time>
  <course>248.69</course>
  <speed>0.0</speed>
  <fix>3d</fix>
</trkpt>
<trkpt lat="33.8106399" lon="-118.3938636">
  <ele>-6.112</ele>
  <time>2026-09-02T22:11:30Z</time>
  <course>24.29</course>
  <speed>0.02</speed>
  <fix>3d</fix>
</trkpt>
<trkpt lat="33.8106399" lon="-118.3938636">
  <ele>-6.153</ele>
  <time>2026-09-02T22:11:30Z</time>
  <course>24.3</course>
  <speed>0.02</speed>
  <fix>3d</fix>
</trkpt>
<trkpt lat="33.8106401" lon="-118.3938638">
  <ele>-5.86</ele>
  <time>2026-09-02T22:11:30Z</time>
  <course>248.69</course>
  <speed>0.0</speed>
  <fix>3d</fix>
</trkpt>
<trkpt lat="33.8106399" lon="-118.3938636">
  <ele>-6.172</ele>
  <time>2026-09-02T22:11:30Z</time>
  <course>24.31</course>
  <speed>0.02</speed>
  <fix>3d</fix>
</trkpt>
<trkpt lat="33.8106399" lon="-118.3938636">
  <ele>-6.214</ele>
  <time>2026-09-02T22:11:30Z</time>
  <course>24.32</course>
  <speed>0.02</speed>
  <fix>3d</fix>
</trkpt>
<trkpt lat="33.8106401" lon="-118.3938638">
  <ele>-5.86</ele>
  <time>2026-09-02T22:11:30Z</time>
  <course>248.69</course>
  <speed>0.0</speed>
  <fix>3d</fix>
</trkpt>
<trkpt lat="33.8106399" lon="-118.3938636">
  <ele>-6.235</ele>
  <time>2026-09-02T22:11:30Z</time>
  <course>24.32</course>
  <speed>0.02</speed>
  <fix>3d</fix>
</trkpt>
<trkpt lat="33.8106399" lon="-118.3938637">
  <ele>-6.275</ele>
  <time>2026-09-02T22:11:30Z</time>
  <course>24.33</course>
  <speed>0.02</speed>
  <fix>3d</fix>
</trkpt>
<trkpt lat="33.8106401" lon="-118.3938638">
  <ele>-5.98</ele>
  <time>2026-09-02T22:11:30Z</time>
  <course>248.66</course>
  <speed>0.0</speed>
  <fix>3d</fix>
</trkpt>
<trkpt lat="33.8106399" lon="-118.3938637">
  <ele>-6.297</ele>
  <time>2026-09-02T22:11:30Z</time>
  <course>24.34</course>
  <speed>0.02</speed>
  <fix>3d</fix>
</trkpt>
<trkpt lat="33.8106399" lon="-118.3938637">
  <ele>-6.337</ele>
  <time>2026-09-02T22:11:30Z</time>
  <course>24.35</course>
  <speed>0.02</speed>
  <fix>3d</fix>
</trkpt>
<trkpt lat="33.8106401" lon="-118.3938638">
  <ele>-5.98</ele>
  <time>2026-09-02T22:11:30Z</time>
  <course>248.66</course>
  <speed>0.0</speed>
  <fix>3d</fix>
</trkpt>
<trkpt lat="33.8106399" lon="-118.3938637">
  <ele>-6.37</ele>
  <time>2026-09-02T22:11:30Z</time>
  <course>24.36</course>
  <speed>0.02</speed>
  <fix>3d</fix>
</trkpt>
<trkpt lat="33.8106399" lon="-118.3938637">
  <ele>-6.399</ele>
  <time>2026-09-02T22:11:30Z</time>
  <course>24.36</course>
  <speed>0.02</speed>
  <fix>3d</fix>
</trkpt>
<trkpt lat="33.8106401" lon="-118.3938638">
  <ele>-6.11</ele>
  <time>2026-09-02T22:11:30Z</time>
  <course>248.6</course>
  <speed>0.0</speed>
  <fix>3d</fix>
</trkpt>
<trkpt lat="33.8106399" lon="-118.3938637">
  <ele>-6.428</ele>
  <time>2026-09-02T22:11:30Z</time>
  <course>24.37</course>
  <speed>0.02</speed>
  <fix>3d</fix>
</trkpt>
<trkpt lat="33.8106399" lon="-118.3938637">
  <ele>-6.461</ele>
  <time>2026-09-02T22:11:30Z</time>
  <course>24.38</course>
  <speed>0.02</speed>
  <fix>3d</fix>
</trkpt>
<trkpt lat="33.8106401" lon="-118.3938638">
  <ele>-6.11</ele>
  <time>2026-09-02T22:11:30Z</time>
  <course>248.6</course>
  <speed>0.0</speed>
  <fix>3d</fix>
</trkpt>
<trkpt lat="33.8106399" lon="-118.3938637">
  <ele>-6.489</ele>
  <time>2026-09-02T22:11:30Z</time>
  <course>24.39</course>
  <speed>0.02</speed>
  <fix>3d</fix>
</trkpt>
<trkpt lat="33.8106399" lon="-118.3938637">
  <ele>-6.522</ele>
  <time>2026-09-02T22:11:30Z</time>
  <course>24.39</course>
  <speed>0.02</speed>
  <fix>3d</fix>
</trkpt>
<trkpt lat="33.8106401" lon="-118.3938638">
  <ele>-6.23</ele>
  <time>2026-09-02T22:11:30Z</time>
  <course>248.51</course>
  <speed>0.0</speed>
  <fix>3d</fix>
</trkpt>
<trkpt lat="33.8106399" lon="-118.3938637">
  <ele>-6.554</ele>
  <time>2026-09-02T22:11:30Z</time>
  <course>24.4</course>
  <speed>0.02</speed>
  <fix>3d</fix>
</trkpt>
<trkpt lat="33.8106399" lon="-118.3938637">
  <ele>-6.584</ele>
  <time>2026-09-02T22:11:30Z</time>
  <course>24.41</course>
  <speed>0.02</speed>
  <fix>3d</fix>
</trkpt>
<trkpt lat="33.8106401" lon="-118.3938638">
  <ele>-6.23</ele>
  <time>2026-09-02T22:11:30Z</time>
  <course>248.51</course>
  <speed>0.0</speed>
  <fix>3d</fix>
</trkpt>
<trkpt lat="33.8106399" lon="-118.3938637">
  <ele>-6.615</ele>
  <time>2026-09-02T22:11:30Z</time>
  <course>24.42</course>
  <speed>0.02</speed>
  <fix>3d</fix>
</trkpt>
<trkpt lat="33.8106399" lon="-118.3938637">
  <ele>-6.644</ele>
  <time>2026-09-02T22:11:30Z</time>
  <course>24.42</course>
  <speed>0.02</speed>
  <fix>3d</fix>
</trkpt>
<trkpt lat="33.8106401" lon="-118.3938638">
  <ele>-6.35</ele>
  <time>2026-09-02T22:11:30Z</time>
  <course>248.44</course>
  <speed>0.0</speed>
  <fix>3d</fix>
</trkpt>
<trkpt lat="33.8106399" lon="-118.3938637">
  <ele>-6.674</ele>
  <time>2026-09-02T22:11:30Z</time>
  <course>24.43</course>
  <speed>0.02</speed>
  <fix>3d</fix>
</trkpt>
<trkpt lat="33.8106399" lon="-118.3938637">
  <ele>-6.704</ele>
  <time>2026-09-02T22:11:30Z</time>
  <course>24.44</course>
  <speed>0.02</speed>
  <fix>3d</fix>
</trkpt>
<trkpt lat="33.8106401" lon="-118.3938638">
  <ele>-6.35</ele>
  <time>2026-09-02T22:11:30Z</time>
  <course>248.44</course>
  <speed>0.0</speed>
  <fix>3d</fix>
</trkpt>
<trkpt lat="33.8106399" lon="-118.3938637">
  <ele>-6.764</ele>
  <time>2026-09-02T22:11:30Z</time>
  <course>24.46</course>
  <speed>0.02</speed>
  <fix>3d</fix>
</trkpt>
<trkpt lat="33.8106401" lon="-118.3938638">
  <ele>-6.47</ele>
  <time>2026-09-02T22:11:30Z</time>
  <course>248.41</course>
  <speed>0.0</speed>
  <fix>3d</fix>
</trkpt>
<trkpt lat="33.8106399" lon="-118.3938637">
  <ele>-6.766</ele>
  <time>2026-09-02T22:11:30Z</time>
  <course>24.46</course>
  <speed>0.02</speed>
  <fix>3d</fix>
</trkpt>
<trkpt lat="33.8106399" lon="-118.3938637">
  <ele>-6.824</ele>
  <time>2026-09-02T22:11:30Z</time>
  <course>24.47</course>
  <speed>0.02</speed>
  <fix>3d</fix>
</trkpt>
<trkpt lat="33.8106401" lon="-118.3938638">
  <ele>-6.47</ele>
  <time>2026-09-02T22:11:30Z</time>
  <course>248.41</course>
  <speed>0.0</speed>
  <fix>3d</fix>
</trkpt>
<trkpt lat="33.8106399" lon="-118.3938637">
  <ele>-6.852</ele>
  <time>2026-09-02T22:11:30Z</time>
  <course>24.48</course>
  <speed>0.02</speed>
  <fix>3d</fix>
</trkpt>
<trkpt lat="33.8106399" lon="-118.3938637">
  <ele>-6.884</ele>
  <time>2026-09-02T22:11:30Z</time>
  <course>24.49</course>
  <speed>0.02</speed>
  <fix>3d</fix>
</trkpt>
<trkpt lat="33.8106401" lon="-118.3938639">
  <ele>-6.59</ele>
  <time>2026-09-02T22:11:30Z</time>
  <course>248.41</course>
  <speed>0.0</speed>
  <fix>3d</fix>
</trkpt>
<trkpt lat="33.8106399" lon="-118.3938638">
  <ele>-6.916</ele>
  <time>2026-09-02T22:11:30Z</time>
  <course>24.49</course>
  <speed>0.02</speed>
  <fix>3d</fix>
</trkpt>
<trkpt lat="33.8106399" lon="-118.3938638">
  <ele>-6.945</ele>
  <time>2026-09-02T22:11:30Z</time>
  <course>24.5</course>
  <speed>0.02</speed>
  <fix>3d</fix>
</trkpt>
<trkpt lat="33.8106401" lon="-118.3938639">
  <ele>-6.59</ele>
  <time>2026-09-02T22:11:30Z</time>
  <course>248.41</course>
  <speed>0.0</speed>
  <fix>3d</fix>
</trkpt>
<trkpt lat="33.8106399" lon="-118.3938638">
  <ele>-6.976</ele>
  <time>2026-09-02T22:11:30Z</time>
  <course>24.51</course>
  <speed>0.02</speed>
  <fix>3d</fix>
</trkpt>
<trkpt lat="33.8106399" lon="-118.3938638">
  <ele>-7.007</ele>
  <time>2026-09-02T22:11:30Z</time>
  <course>24.52</course>
  <speed>0.02</speed>
  <fix>3d</fix>
</trkpt>
<trkpt lat="33.8106401" lon="-118.3938639">
  <ele>-6.71</ele>
  <time>2026-09-02T22:11:30Z</time>
  <course>248.4</course>
  <speed>0.0</speed>
  <fix>3d</fix>
</trkpt>
<trkpt lat="33.8106399" lon="-118.3938638">
  <ele>-7.038</ele>
  <time>2026-09-02T22:11:30Z</time>
  <course>24.52</course>
  <speed>0.02</speed>
  <fix>3d</fix>
</trkpt>
<trkpt lat="33.8106399" lon="-118.3938638">
  <ele>-7.07</ele>
  <time>2026-09-02T22:11:30Z</time>
  <course>24.53</course>
  <speed>0.02</speed>
  <fix>3d</fix>
</trkpt>
<trkpt lat="33.8106401" lon="-118.3938639">
  <ele>-6.71</ele>
  <time>2026-09-02T22:11:30Z</time>
  <course>248.4</course>
  <speed>0.0</speed>
  <fix>3d</fix>
</trkpt>
<trkpt lat="33.8106399" lon="-118.3938638">
  <ele>-7.101</ele>
  <time>2026-09-02T22:11:30Z</time>
  <course>24.54</course>
  <speed>0.02</speed>
  <fix>3d</fix>
</trkpt>
<trkpt lat="33.8106399" lon="-118.3938638">
  <ele>-7.133</ele>
  <time>2026-09-02T22:11:30Z</time>
  <course>24.54</course>
  <speed>0.02</speed>
  <fix>3d</fix>
</trkpt>
<trkpt lat="33.8106401" lon="-118.3938639">
  <ele>-6.83</ele>
  <time>2026-09-02T22:11:30Z</time>
  <course>248.37</course>
  <speed>0.0</speed>
  <fix>3d</fix>
</trkpt>
<trkpt lat="33.8106399" lon="-118.3938638">
  <ele>-7.165</ele>
  <time>2026-09-02T22:11:30Z</time>
  <course>24.55</course>
  <speed>0.02</speed>
  <fix>3d</fix>
</trkpt>
<trkpt lat="33.8106399" lon="-118.3938638">
  <ele>-7.198</ele>
  <time>2026-09-02T22:11:30Z</time>
  <course>24.56</course>
  <speed>0.02</speed>
  <fix>3d</fix>
</trkpt>
<trkpt lat="33.8106401" lon="-118.3938639">
  <ele>-6.83</ele>
  <time>2026-09-02T22:11:30Z</time>
  <course>248.37</course>
  <speed>0.0</speed>
  <fix>3d</fix>
</trkpt>
<trkpt lat="33.8106399" lon="-118.3938638">
  <ele>-7.231</ele>
  <time>2026-09-02T22:11:30Z</time>
  <course>24.57</course>
  <speed>0.02</speed>
  <fix>3d</fix>
</trkpt>
<trkpt lat="33.8106399" lon="-118.3938638">
  <ele>-7.262</ele>
  <time>2026-09-02T22:11:30Z</time>
  <course>24.57</course>
  <speed>0.02</speed>
  <fix>3d</fix>
</trkpt>
<trkpt lat="33.8106401" lon="-118.3938639">
  <ele>-6.95</ele>
  <time>2026-09-02T22:11:30Z</time>
  <course>248.3</course>
  <speed>0.0</speed>
  <fix>3d</fix>
</trkpt>
<trkpt lat="33.8106399" lon="-118.3938638">
  <ele>-7.294</ele>
  <time>2026-09-02T22:11:30Z</time>
  <course>24.58</course>
  <speed>0.02</speed>
  <fix>3d</fix>
</trkpt>
<trkpt lat="33.8106399" lon="-118.3938638">
  <ele>-7.325</ele>
  <time>2026-09-02T22:11:30Z</time>
  <course>24.59</course>
  <speed>0.02</speed>
  <fix>3d</fix>
</trkpt>
<trkpt lat="33.8106401" lon="-118.3938639">
  <ele>-6.95</ele>
  <time>2026-09-02T22:11:30Z</time>
  <course>248.3</course>
  <speed>0.0</speed>
  <fix>3d</fix>
</trkpt>
<trkpt lat="33.8106399" lon="-118.3938638">
  <ele>-7.327</ele>
  <time>2026-09-02T22:11:30Z</time>
  <course>24.59</course>
  <speed>0.02</speed>
  <fix>3d</fix>
</trkpt>
<trkpt lat="33.8106399" lon="-118.3938638">
  <ele>-7.388</ele>
  <time>2026-09-02T22:11:30Z</time>
  <course>24.6</course>
  <speed>0.02</speed>
  <fix>3d</fix>
</trkpt>
<trkpt lat="33.8106401" lon="-118.3938639">
  <ele>-7.07</ele>
  <time>2026-09-02T22:11:30Z</time>
  <course>248.22</course>
  <speed>0.0</speed>
  <fix>3d</fix>
</trkpt>
<trkpt lat="33.8106399" lon="-118.3938638">
  <ele>-7.401</ele>
  <time>2026-09-02T22:11:30Z</time>
  <course>24.61</course>
  <speed>0.02</speed>
  <fix>3d</fix>
</trkpt>
<trkpt lat="33.8106399" lon="-118.3938638">
  <ele>-7.45</ele>
  <time>2026-09-02T22:11:30Z</time>
  <course>24.62</course>
  <speed>0.02</speed>
  <fix>3d</fix>
</trkpt>
<trkpt lat="33.8106401" lon="-118.3938639">
  <ele>-7.07</ele>
  <time>2026-09-02T22:11:30Z</time>
  <course>248.22</course>
  <speed>0.0</speed>
  <fix>3d</fix>
</trkpt>
<trkpt lat="33.8106399" lon="-118.3938638">
  <ele>-7.463</ele>
  <time>2026-09-02T22:11:30Z</time>
  <course>24.62</course>
  <speed>0.02</speed>
  <fix>3d</fix>
</trkpt>
<trkpt lat="33.8106399" lon="-118.3938638">
  <ele>-7.512</ele>
  <time>2026-09-02T22:11:30Z</time>
  <course>24.63</course>
  <speed>0.02</speed>
  <fix>3d</fix>
</trkpt>
<trkpt lat="33.8106401" lon="-118.3938639">
  <ele>-7.19</ele>
  <time>2026-09-02T22:11:30Z</time>
  <course>248.16</course>
  <speed>0.0</speed>
  <fix>3d</fix>
</trkpt>
<trkpt lat="33.8106399" lon="-118.3938638">
  <ele>-7.544</ele>
  <time>2026-09-02T22:11:30Z</time>
  <course>24.64</course>
  <speed>0.02</speed>
  <fix>3d</fix>
</trkpt>
<trkpt lat="33.8106399" lon="-118.3938638">
  <ele>-7.573</ele>
  <time>2026-09-02T22:11:30Z</time>
  <course>24.65</course>
  <speed>0.02</speed>
  <fix>3d</fix>
</trkpt>
<trkpt lat="33.8106401" lon="-118.3938639">
  <ele>-7.19</ele>
  <time>2026-09-02T22:11:30Z</time>
  <course>248.16</course>
  <speed>0.0</speed>
  <fix>3d</fix>
</trkpt>
<trkpt lat="33.8106399" lon="-118.3938638">
  <ele>-7.634</ele>
  <time>2026-09-02T22:11:30Z</time>
  <course>24.66</course>
  <speed>0.02</speed>
  <fix>3d</fix>
</trkpt>
<trkpt lat="33.8106401" lon="-118.3938639">
  <ele>-7.31</ele>
  <time>2026-09-02T22:11:30Z</time>
  <course>248.15</course>
  <speed>0.0</speed>
  <fix>3d</fix>
</trkpt>
<trkpt lat="33.8106399" lon="-118.3938638">
  <ele>-7.635</ele>
  <time>2026-09-02T22:11:30Z</time>
  <course>24.66</course>
  <speed>0.02</speed>
  <fix>3d</fix>
</trkpt>
<trkpt lat="33.8106399" lon="-118.3938638">
  <ele>-7.695</ele>
  <time>2026-09-02T22:11:30Z</time>
  <course>24.68</course>
  <speed>0.02</speed>
  <fix>3d</fix>
</trkpt>
<trkpt lat="33.8106401" lon="-118.3938639">
  <ele>-7.31</ele>
  <time>2026-09-02T22:11:30Z</time>
  <course>248.15</course>
  <speed>0.0</speed>
  <fix>3d</fix>
</trkpt>
<trkpt lat="33.8106399" lon="-118.3938638">
  <ele>-7.727</ele>
  <time>2026-09-02T22:11:30Z</time>
  <course>24.68</course>
  <speed>0.02</speed>
  <fix>3d</fix>
</trkpt>
<trkpt lat="33.8106399" lon="-118.3938638">
  <ele>-7.758</ele>
  <time>2026-09-02T22:11:30Z</time>
  <course>24.69</course>
  <speed>0.02</speed>
  <fix>3d</fix>
</trkpt>
<trkpt lat="33.8106401" lon="-118.393864">
  <ele>-7.43</ele>
  <time>2026-09-02T22:11:30Z</time>
  <course>248.15</course>
  <speed>0.0</speed>
  <fix>3d</fix>
</trkpt>
<trkpt lat="33.8106399" lon="-118.3938638">
  <ele>-7.79</ele>
  <time>2026-09-02T22:11:30Z</time>
  <course>24.7</course>
  <speed>0.02</speed>
  <fix>3d</fix>
</trkpt>
<trkpt lat="33.8106399" lon="-118.3938638">
  <ele>-7.82</ele>
  <time>2026-09-02T22:11:30Z</time>
  <course>24.7</course>
  <speed>0.02</speed>
  <fix>3d</fix>
</trkpt>
<trkpt lat="33.8106401" lon="-118.393864">
  <ele>-7.43</ele>
  <time>2026-09-02T22:11:30Z</time>
  <course>248.15</course>
  <speed>0.0</speed>
  <fix>3d</fix>
</trkpt>
<trkpt lat="33.8106399" lon="-118.3938638">
  <ele>-7.853</ele>
  <time>2026-09-02T22:11:30Z</time>
  <course>24.71</course>
  <speed>0.02</speed>
  <fix>3d</fix>
</trkpt>
<trkpt lat="33.8106399" lon="-118.3938639">
  <ele>-7.882</ele>
  <time>2026-09-02T22:11:30Z</time>
  <course>24.72</course>
  <speed>0.02</speed>
  <fix>3d</fix>
</trkpt>
<trkpt lat="33.81064" lon="-118.393864">
  <ele>-7.55</ele>
  <time>2026-09-02T22:11:30Z</time>
  <course>248.14</course>
  <speed>0.0</speed>
  <fix>3d</fix>
</trkpt>
<trkpt lat="33.8106399" lon="-118.3938639">
  <ele>-7.914</ele>
  <time>2026-09-02T22:11:30Z</time>
  <course>24.72</course>
  <speed>0.02</speed>
  <fix>3d</fix>
</trkpt>
<trkpt lat="33.8106399" lon="-118.3938639">
  <ele>-7.944</ele>
  <time>2026-09-02T22:11:30Z</time>
  <course>24.73</course>
  <speed>0.02</speed>
  <fix>3d</fix>
</trkpt>
<trkpt lat="33.81064" lon="-118.393864">
  <ele>-7.55</ele>
  <time>2026-09-02T22:11:30Z</time>
  <course>248.14</course>
  <speed>0.0</speed>
  <fix>3d</fix>
</trkpt>
<trkpt lat="33.8106399" lon="-118.3938639">
  <ele>-7.975</ele>
  <time>2026-09-02T22:11:30Z</time>
  <course>24.74</course>
  <speed>0.02</speed>
  <fix>3d</fix>
</trkpt>
<trkpt lat="33.8106399" lon="-118.3938639">
  <ele>-8.007</ele>
  <time>2026-09-02T22:11:30Z</time>
  <course>24.74</course>
  <speed>0.02</speed>
  <fix>3d</fix>
</trkpt>
<trkpt lat="33.81064" lon="-118.393864">
  <ele>-7.67</ele>
  <time>2026-09-02T22:11:30Z</time>
  <course>248.09</course>
  <speed>0.0</speed>
  <fix>3d</fix>
</trkpt>
<trkpt lat="33.8106399" lon="-118.3938639">
  <ele>-8.009</ele>
  <time>2026-09-02T22:11:30Z</time>
  <course>24.74</course>
  <speed>0.02</speed>
  <fix>3d</fix>
</trkpt>
<trkpt lat="33.8106399" lon="-118.3938639">
  <ele>-8.07</ele>
  <time>2026-09-02T22:11:30Z</time>
  <course>24.76</course>
  <speed>0.02</speed>
  <fix>3d</fix>
</trkpt>
<trkpt lat="33.81064" lon="-118.393864">
  <ele>-7.67</ele>
  <time>2026-09-02T22:11:30Z</time>
  <course>248.09</course>
  <speed>0.0</speed>
  <fix>3d</fix>
</trkpt>
<trkpt lat="33.8106399" lon="-118.3938639">
  <ele>-8.102</ele>
  <time>2026-09-02T22:11:30Z</time>
  <course>24.76</course>
  <speed>0.03</speed>
  <fix>3d</fix>
</trkpt>
<trkpt lat="33.8106399" lon="-118.3938639">
  <ele>-8.133</ele>
  <time>2026-09-02T22:11:30Z</time>
  <course>24.77</course>
  <speed>0.03</speed>
  <fix>3d</fix>
</trkpt>
<trkpt lat="33.81064" lon="-118.393864">
  <ele>-7.79</ele>
  <time>2026-09-02T22:11:30Z</time>
  <course>248.02</course>
  <speed>0.0</speed>
  <fix>3d</fix>
</trkpt>
<trkpt lat="33.8106399" lon="-118.3938639">
  <ele>-8.135</ele>
  <time>2026-09-02T22:11:30Z</time>
  <course>24.77</course>
  <speed>0.03</speed>
  <fix>3d</fix>
</trkpt>
<trkpt lat="33.8106399" lon="-118.3938639">
  <ele>-8.195</ele>
  <time>2026-09-02T22:11:30Z</time>
  <course>24.78</course>
  <speed>0.03</speed>
  <fix>3d</fix>
</trkpt>
<trkpt lat="33.81064" lon="-118.393864">
  <ele>-7.79</ele>
  <time>2026-09-02T22:11:30Z</time>
  <course>248.02</course>
  <speed>0.0</speed>
  <fix>3d</fix>
</trkpt>
<trkpt lat="33.8106399" lon="-118.3938639">
  <ele>-8.197</ele>
  <time>2026-09-02T22:11:30Z</time>
  <course>24.78</course>
  <speed>0.03</speed>
  <fix>3d</fix>
</trkpt>
<trkpt lat="33.8106399" lon="-118.3938639">
  <ele>-8.258</ele>
  <time>2026-09-02T22:11:30Z</time>
  <course>24.8</course>
  <speed>0.03</speed>
  <fix>3d</fix>
</trkpt>
<trkpt lat="33.81064" lon="-118.393864">
  <ele>-7.92</ele>
  <time>2026-09-02T22:11:30Z</time>
  <course>247.95</course>
  <speed>0.0</speed>
  <fix>3d</fix>
</trkpt>
<trkpt lat="33.8106399" lon="-118.3938639">
  <ele>-8.291</ele>
  <time>2026-09-02T22:11:30Z</time>
  <course>24.8</course>
  <speed>0.03</speed>
  <fix>3d</fix>
</trkpt>
<trkpt lat="33.8106399" lon="-118.3938639">
  <ele>-8.32</ele>
  <time>2026-09-02T22:11:30Z</time>
  <course>24.81</course>
  <speed>0.03</speed>
  <fix>3d</fix>
</trkpt>
<trkpt lat="33.81064" lon="-118.393864">
  <ele>-7.92</ele>
  <time>2026-09-02T22:11:30Z</time>
  <course>247.95</course>
  <speed>0.0</speed>
  <fix>3d</fix>
</trkpt>
<trkpt lat="33.8106399" lon="-118.3938639">
  <ele>-8.348</ele>
  <time>2026-09-02T22:11:30Z</time>
  <course>24.82</course>
  <speed>0.03</speed>
  <fix>3d</fix>
</trkpt>
<trkpt lat="33.8106399" lon="-118.3938639">
  <ele>-8.381</ele>
  <time>2026-09-02T22:11:30Z</time>
  <course>24.82</course>
  <speed>0.03</speed>
  <fix>3d</fix>
</trkpt>
<trkpt lat="33.81064" lon="-118.393864">
  <ele>-8.04</ele>
  <time>2026-09-02T22:11:30Z</time>
  <course>247.92</course>
  <speed>0.0</speed>
  <fix>3d</fix>
</trkpt>
<trkpt lat="33.8106399" lon="-118.3938639">
  <ele>-8.412</ele>
  <time>2026-09-02T22:11:30Z</time>
  <course>24.83</course>
  <speed>0.03</speed>
  <fix>3d</fix>
</trkpt>
<trkpt lat="33.8106399" lon="-118.3938639">
  <ele>-8.442</ele>
  <time>2026-09-02T22:11:30Z</time>
  <course>24.84</course>
  <speed>0.03</speed>
  <fix>3d</fix>
</trkpt>
<trkpt lat="33.81064" lon="-118.393864">
  <ele>-8.04</ele>
  <time>2026-09-02T22:11:30Z</time>
  <course>247.92</course>
  <speed>0.0</speed>
  <fix>3d</fix>
</trkpt>
<trkpt lat="33.8106398" lon="-118.3938639">
  <ele>-8.474</ele>
  <time>2026-09-02T22:11:30Z</time>
  <course>24.84</course>
  <speed>0.03</speed>
  <fix>3d</fix>
</trkpt>
<trkpt lat="33.8106398" lon="-118.3938639">
  <ele>-8.504</ele>
  <time>2026-09-02T22:11:30Z</time>
  <course>24.85</course>
  <speed>0.03</speed>
  <fix>3d</fix>
</trkpt>
<trkpt lat="33.81064" lon="-118.393864">
  <ele>-8.16</ele>
  <time>2026-09-02T22:11:30Z</time>
  <course>247.91</course>
  <speed>0.0</speed>
  <fix>3d</fix>
</trkpt>
<trkpt lat="33.8106398" lon="-118.3938639">
  <ele>-8.534</ele>
  <time>2026-09-02T22:11:30Z</time>
  <course>24.86</course>
  <speed>0.03</speed>
  <fix>3d</fix>
</trkpt>
<trkpt lat="33.8106398" lon="-118.3938639">
  <ele>-8.565</ele>
  <time>2026-09-02T22:11:30Z</time>
  <course>24.86</course>
  <speed>0.03</speed>
  <fix>3d</fix>
</trkpt>
<trkpt lat="33.81064" lon="-118.393864">
  <ele>-8.16</ele>
  <time>2026-09-02T22:11:30Z</time>
  <course>247.91</course>
  <speed>0.0</speed>
  <fix>3d</fix>
</trkpt>
<trkpt lat="33.8106398" lon="-118.3938639">
  <ele>-8.596</ele>
  <time>2026-09-02T22:11:30Z</time>
  <course>24.87</course>
  <speed>0.03</speed>
  <fix>3d</fix>
</trkpt>
<trkpt lat="33.8106398" lon="-118.3938639">
  <ele>-8.627</ele>
  <time>2026-09-02T22:11:30Z</time>
  <course>24.88</course>
  <speed>0.03</speed>
  <fix>3d</fix>
</trkpt>
<trkpt lat="33.81064" lon="-118.393864">
  <ele>-8.28</ele>
  <time>2026-09-02T22:11:30Z</time>
  <course>247.92</course>
  <speed>0.0</speed>
  <fix>3d</fix>
</trkpt>
<trkpt lat="33.8106398" lon="-118.3938639">
  <ele>-8.69</ele>
  <time>2026-09-02T22:11:30Z</time>
  <course>24.89</course>
  <speed>0.03</speed>
  <fix>3d</fix>
</trkpt>
<trkpt lat="33.81064" lon="-118.393864">
  <ele>-8.28</ele>
  <time>2026-09-02T22:11:30Z</time>
  <course>247.92</course>
  <speed>0.0</speed>
  <fix>3d</fix>
</trkpt>
<trkpt lat="33.8106398" lon="-118.3938639">
  <ele>-8.691</ele>
  <time>2026-09-02T22:11:30Z</time>
  <course>24.89</course>
  <speed>0.03</speed>
  <fix>3d</fix>
</trkpt>
<trkpt lat="33.8106398" lon="-118.3938639">
  <ele>-8.753</ele>
  <time>2026-09-02T22:11:30Z</time>
  <course>24.9</course>
  <speed>0.03</speed>
  <fix>3d</fix>
</trkpt>
<trkpt lat="33.81064" lon="-118.393864">
  <ele>-8.4</ele>
  <time>2026-09-02T22:11:30Z</time>
  <course>247.9</course>
  <speed>0.0</speed>
  <fix>3d</fix>
</trkpt>
<trkpt lat="33.8106398" lon="-118.3938639">
  <ele>-8.786</ele>
  <time>2026-09-02T22:11:30Z</time>
  <course>24.91</course>
  <speed>0.03</speed>
  <fix>3d</fix>
</trkpt>
<trkpt lat="33.8106398" lon="-118.3938639">
  <ele>-8.815</ele>
  <time>2026-09-02T22:11:30Z</time>
  <course>24.91</course>
  <speed>0.03</speed>
  <fix>3d</fix>
</trkpt>
<trkpt lat="33.81064" lon="-118.393864">
  <ele>-8.4</ele>
  <time>2026-09-02T22:11:30Z</time>
  <course>247.9</course>
  <speed>0.0</speed>
  <fix>3d</fix>
</trkpt>
<trkpt lat="33.8106398" lon="-118.3938639">
  <ele>-8.847</ele>
  <time>2026-09-02T22:11:30Z</time>
  <course>24.92</course>
  <speed>0.03</speed>
  <fix>3d</fix>
</trkpt>
<trkpt lat="33.8106398" lon="-118.3938639">
  <ele>-8.878</ele>
  <time>2026-09-02T22:11:30Z</time>
  <course>24.93</course>
  <speed>0.03</speed>
  <fix>3d</fix>
</trkpt>
<trkpt lat="33.81064" lon="-118.393864">
  <ele>-8.52</ele>
  <time>2026-09-02T22:11:30Z</time>
  <course>247.84</course>
  <speed>0.0</speed>
  <fix>3d</fix>
</trkpt>
<trkpt lat="33.8106398" lon="-118.3938639">
  <ele>-8.909</ele>
  <time>2026-09-02T22:11:30Z</time>
  <course>24.93</course>
  <speed>0.03</speed>
  <fix>3d</fix>
</trkpt>
<trkpt lat="33.8106398" lon="-118.3938639">
  <ele>-8.939</ele>
  <time>2026-09-02T22:11:30Z</time>
  <course>24.94</course>
  <speed>0.03</speed>
  <fix>3d</fix>
</trkpt>
<trkpt lat="33.81064" lon="-118.393864">
  <ele>-8.52</ele>
  <time>2026-09-02T22:11:30Z</time>
  <course>247.84</course>
  <speed>0.0</speed>
  <fix>3d</fix>
</trkpt>
<trkpt lat="33.8106398" lon="-118.3938639">
  <ele>-8.966</ele>
  <time>2026-09-02T22:11:30Z</time>
  <course>24.94</course>
  <speed>0.03</speed>
  <fix>3d</fix>
</trkpt>
<trkpt lat="33.8106398" lon="-118.3938639">
  <ele>-9.002</ele>
  <time>2026-09-02T22:11:30Z</time>
  <course>24.95</course>
  <speed>0.03</speed>
  <fix>3d</fix>
</trkpt>
<trkpt lat="33.81064" lon="-118.393864">
  <ele>-8.63</ele>
  <time>2026-09-02T22:11:30Z</time>
  <course>247.78</course>
  <speed>0.0</speed>
  <fix>3d</fix>
</trkpt>
<trkpt lat="33.8106398" lon="-118.3938639">
  <ele>-9.008</ele>
  <time>2026-09-02T22:11:30Z</time>
  <course>24.95</course>
  <speed>0.03</speed>
  <fix>3d</fix>
</trkpt>
<trkpt lat="33.8106398" lon="-118.3938639">
  <ele>-9.065</ele>
  <time>2026-09-02T22:11:30Z</time>
  <course>24.96</course>
  <speed>0.03</speed>
  <fix>3d</fix>
</trkpt>
<trkpt lat="33.81064" lon="-118.393864">
  <ele>-8.63</ele>
  <time>2026-09-02T22:11:30Z</time>
  <course>247.78</course>
  <speed>0.0</speed>
  <fix>3d</fix>
</trkpt>
<trkpt lat="33.8106398" lon="-118.3938639">
  <ele>-9.087</ele>
  <time>2026-09-02T22:11:30Z</time>
  <course>24.97</course>
  <speed>0.03</speed>
  <fix>3d</fix>
</trkpt>
<trkpt lat="33.8106398" lon="-118.3938639">
  <ele>-9.129</ele>
  <time>2026-09-02T22:11:30Z</time>
  <course>24.98</course>
  <speed>0.03</speed>
  <fix>3d</fix>
</trkpt>
<trkpt lat="33.81064" lon="-118.393864">
  <ele>-8.76</ele>
  <time>2026-09-02T22:11:30Z</time>
  <course>247.72</course>
  <speed>0.0</speed>
  <fix>3d</fix>
</trkpt>
<trkpt lat="33.8106398" lon="-118.3938639">
  <ele>-9.162</ele>
  <time>2026-09-02T22:11:30Z</time>
  <course>24.98</course>
  <speed>0.03</speed>
  <fix>3d</fix>
</trkpt>
<trkpt lat="33.8106398" lon="-118.3938639">
  <ele>-9.193</ele>
  <time>2026-09-02T22:11:30Z</time>
  <course>24.99</course>
  <speed>0.03</speed>
  <fix>3d</fix>
</trkpt>
<trkpt lat="33.81064" lon="-118.393864">
  <ele>-8.76</ele>
  <time>2026-09-02T22:11:30Z</time>
  <course>247.72</course>
  <speed>0.0</speed>
  <fix>3d</fix>
</trkpt>
<trkpt lat="33.8106398" lon="-118.3938639">
  <ele>-9.225</ele>
  <time>2026-09-02T22:11:30Z</time>
  <course>24.99</course>
  <speed>0.03</speed>
  <fix>3d</fix>
</trkpt>
<trkpt lat="33.8106398" lon="-118.3938639">
  <ele>-9.257</ele>
  <time>2026-09-02T22:11:30Z</time>
  <course>25.0</course>
  <speed>0.03</speed>
  <fix>3d</fix>
</trkpt>
<trkpt lat="33.81064" lon="-118.3938641">
  <ele>-8.87</ele>
  <time>2026-09-02T22:11:30Z</time>
  <course>247.7</course>
  <speed>0.0</speed>
  <fix>3d</fix>
</trkpt>
<trkpt lat="33.8106398" lon="-118.3938639">
  <ele>-9.288</ele>
  <time>2026-09-02T22:11:30Z</time>
  <course>25.01</course>
  <speed>0.03</speed>
  <fix>3d</fix>
</trkpt>
<trkpt lat="33.8106397" lon="-118.3938639">
  <ele>-9.319</ele>
  <time>2026-09-02T22:11:30Z</time>
  <course>25.01</course>
  <speed>0.03</speed>
  <fix>3d</fix>
</trkpt>
<trkpt lat="33.81064" lon="-118.3938641">
  <ele>-8.87</ele>
  <time>2026-09-02T22:11:30Z</time>
  <course>247.7</course>
  <speed>0.0</speed>
  <fix>3d</fix>
</trkpt>
<trkpt lat="33.8106397" lon="-118.3938639">
  <ele>-9.381</ele>
  <time>2026-09-02T22:11:30Z</time>
  <course>25.03</course>
  <speed>0.0316227766016838</speed>
  <fix>3d</fix>
</trkpt>
<trkpt lat="33.81064" lon="-118.3938642">
  <ele>-9.0</ele>
  <time>2026-09-02T22:11:30Z</time>
  <course>247.7</course>
  <speed>0.0</speed>
  <fix>3d</fix>
</trkpt>
<trkpt lat="33.8106397" lon="-118.3938639">
  <ele>-9.383</ele>
  <time>2026-09-02T22:11:30Z</time>
  <course>25.03</course>
  <speed>0.03</speed>
  <fix>3d</fix>
</trkpt>
<trkpt lat="33.8106397" lon="-118.3938639">
  <ele>-9.444</ele>
  <time>2026-09-02T22:11:30Z</time>
  <course>25.04</course>
  <speed>0.03</speed>
  <fix>3d</fix>
</trkpt>
<trkpt lat="33.81064" lon="-118.3938642">
  <ele>-9.0</ele>
  <time>2026-09-02T22:11:30Z</time>
  <course>247.7</course>
  <speed>0.0</speed>
  <fix>3d</fix>
</trkpt>
<trkpt lat="33.8106397" lon="-118.3938639">
  <ele>-9.465</ele>
  <time>2026-09-02T22:11:30Z</time>
  <course>25.04</course>
  <speed>0.04</speed>
  <fix>3d</fix>
</trkpt>
<trkpt lat="33.8106397" lon="-118.3938639">
  <ele>-9.505</ele>
  <time>2026-09-02T22:11:30Z</time>
  <course>25.05</course>
  <speed>0.04</speed>
  <fix>3d</fix>
</trkpt>
<trkpt lat="33.81064" lon="-118.3938642">
  <ele>-9.12</ele>
  <time>2026-09-02T22:11:30Z</time>
  <course>247.7</course>
  <speed>0.0</speed>
  <fix>3d</fix>
</trkpt>
<trkpt lat="33.8106397" lon="-118.3938639">
  <ele>-9.525</ele>
  <time>2026-09-02T22:11:30Z</time>
  <course>25.05</course>
  <speed>0.03</speed>
  <fix>3d</fix>
</trkpt>
<trkpt lat="33.8106397" lon="-118.3938639">
  <ele>-9.567</ele>
  <time>2026-09-02T22:11:30Z</time>
  <course>25.06</course>
  <speed>0.04</speed>
  <fix>3d</fix>
</trkpt>
<trkpt lat="33.81064" lon="-118.3938642">
  <ele>-9.12</ele>
  <time>2026-09-02T22:11:30Z</time>
  <course>247.7</course>
  <speed>0.0</speed>
  <fix>3d</fix>
</trkpt>
<trkpt lat="33.8106397" lon="-118.3938639">
  <ele>-9.587</ele>
  <time>2026-09-02T22:11:30Z</time>
  <course>25.07</course>
  <speed>0.04</speed>
  <fix>3d</fix>
</trkpt>
<trkpt lat="33.8106397" lon="-118.3938639">
  <ele>-9.629</ele>
  <time>2026-09-02T22:11:30Z</time>
  <course>25.07</course>
  <speed>0.04</speed>
  <fix>3d</fix>
</trkpt>
<trkpt lat="33.81064" lon="-118.3938642">
  <ele>-9.24</ele>
  <time>2026-09-02T22:11:30Z</time>
  <course>247.67</course>
  <speed>0.0</speed>
  <fix>3d</fix>
</trkpt>
<trkpt lat="33.8106397" lon="-118.3938639">
  <ele>-9.649</ele>
  <time>2026-09-02T22:11:30Z</time>
  <course>25.08</course>
  <speed>0.04</speed>
  <fix>3d</fix>
</trkpt>
<trkpt lat="33.8106397" lon="-118.393864">
  <ele>-9.691</ele>
  <time>2026-09-02T22:11:30Z</time>
  <course>25.09</course>
  <speed>0.04</speed>
  <fix>3d</fix>
</trkpt>
<trkpt lat="33.81064" lon="-118.3938642">
  <ele>-9.24</ele>
  <time>2026-09-02T22:11:30Z</time>
  <course>247.67</course>
  <speed>0.0</speed>
  <fix>3d</fix>
</trkpt>
<trkpt lat="33.8106397" lon="-118.393864">
  <ele>-9.714</ele>
  <time>2026-09-02T22:11:30Z</time>
  <course>25.09</course>
  <speed>0.04</speed>
  <fix>3d</fix>
</trkpt>
<trkpt lat="33.8106397" lon="-118.393864">
  <ele>-9.753</ele>
  <time>2026-09-02T22:11:30Z</time>
  <course>25.1</course>
  <speed>0.04</speed>
  <fix>3d</fix>
</trkpt>
<trkpt lat="33.81064" lon="-118.3938642">
  <ele>-9.36</ele>
  <time>2026-09-02T22:11:30Z</time>
  <course>247.62</course>
  <speed>0.0</speed>
  <fix>3d</fix>
</trkpt>
<trkpt lat="33.8106397" lon="-118.393864">
  <ele>-9.754</ele>
  <time>2026-09-02T22:11:30Z</time>
  <course>25.1</course>
  <speed>0.04</speed>
  <fix>3d</fix>
</trkpt>
<trkpt lat="33.8106397" lon="-118.393864">
  <ele>-9.816</ele>
  <time>2026-09-02T22:11:30Z</time>
  <course>25.11</course>
  <speed>0.04</speed>
  <fix>3d</fix>
</trkpt>
<trkpt lat="33.81064" lon="-118.3938642">
  <ele>-9.36</ele>
  <time>2026-09-02T22:11:30Z</time>
  <course>247.62</course>
  <speed>0.0</speed>
  <fix>3d</fix>
</trkpt>
<trkpt lat="33.8106397" lon="-118.393864">
  <ele>-9.837</ele>
  <time>2026-09-02T22:11:30Z</time>
  <course>25.11</course>
  <speed>0.04</speed>
  <fix>3d</fix>
</trkpt>
<trkpt lat="33.8106397" lon="-118.393864">
  <ele>-9.879</ele>
  <time>2026-09-02T22:11:30Z</time>
  <course>25.12</course>
  <speed>0.03</speed>
  <fix>3d</fix>
</trkpt>
<trkpt lat="33.81064" lon="-118.3938642">
  <ele>-9.48</ele>
  <time>2026-09-02T22:11:30Z</time>
  <course>247.55</course>
  <speed>0.0</speed>
  <fix>3d</fix>
</trkpt>
<trkpt lat="33.8106397" lon="-118.393864">
  <ele>-9.899</ele>
  <time>2026-09-02T22:11:30Z</time>
  <course>25.13</course>
  <speed>0.04</speed>
  <fix>3d</fix>
</trkpt>
<trkpt lat="33.8106397" lon="-118.393864">
  <ele>-9.941</ele>
  <time>2026-09-02T22:11:30Z</time>
  <course>25.13</course>
  <speed>0.04</speed>
  <fix>3d</fix>
</trkpt>
<trkpt lat="33.81064" lon="-118.3938642">
  <ele>-9.48</ele>
  <time>2026-09-02T22:11:30Z</time>
  <course>247.55</course>
  <speed>0.0</speed>
  <fix>3d</fix>
</trkpt>
<trkpt lat="33.8106397" lon="-118.393864">
  <ele>-9.943</ele>
  <time>2026-09-02T22:11:30Z</time>
  <course>25.13</course>
  <speed>0.04</speed>
  <fix>3d</fix>
</trkpt>
<trkpt lat="33.8106397" lon="-118.393864">
  <ele>-10.004</ele>
  <time>2026-09-02T22:11:30Z</time>
  <course>25.14</course>
  <speed>0.04</speed>
  <fix>3d</fix>
</trkpt>
<trkpt lat="33.81064" lon="-118.3938642">
  <ele>-9.61</ele>
  <time>2026-09-02T22:11:30Z</time>
  <course>247.52</course>
  <speed>0.0</speed>
  <fix>3d</fix>
</trkpt>
<trkpt lat="33.8106397" lon="-118.393864">
  <ele>-10.026</ele>
  <time>2026-09-02T22:11:30Z</time>
  <course>25.15</course>
  <speed>0.04</speed>
  <fix>3d</fix>
</trkpt>
<trkpt lat="33.8106397" lon="-118.393864">
  <ele>-10.066</ele>
  <time>2026-09-02T22:11:30Z</time>
  <course>25.16</course>
  <speed>0.04</speed>
  <fix>3d</fix>
</trkpt>
<trkpt lat="33.81064" lon="-118.3938642">
  <ele>-9.61</ele>
  <time>2026-09-02T22:11:30Z</time>
  <course>247.52</course>
  <speed>0.0</speed>
  <fix>3d</fix>
</trkpt>
<trkpt lat="33.8106397" lon="-118.393864">
  <ele>-10.086</ele>
  <time>2026-09-02T22:11:30Z</time>
  <course>25.16</course>
  <speed>0.04</speed>
  <fix>3d</fix>
</trkpt>
<trkpt lat="33.8106397" lon="-118.393864">
  <ele>-10.126</ele>
  <time>2026-09-02T22:11:30Z</time>
  <course>25.17</course>
  <speed>0.03</speed>
  <fix>3d</fix>
</trkpt>
<trkpt lat="33.81064" lon="-118.3938642">
  <ele>-9.73</ele>
  <time>2026-09-02T22:11:30Z</time>
  <course>247.51</course>
  <speed>0.0</speed>
  <fix>3d</fix>
</trkpt>
<trkpt lat="33.8106397" lon="-118.393864">
  <ele>-10.148</ele>
  <time>2026-09-02T22:11:30Z</time>
  <course>25.17</course>
  <speed>0.04</speed>
  <fix>3d</fix>
</trkpt>
<trkpt lat="33.8106397" lon="-118.393864">
  <ele>-10.186</ele>
  <time>2026-09-02T22:11:30Z</time>
  <course>25.18</course>
  <speed>0.03</speed>
  <fix>3d</fix>
</trkpt>
<trkpt lat="33.81064" lon="-118.3938642">
  <ele>-9.73</ele>
  <time>2026-09-02T22:11:30Z</time>
  <course>247.51</course>
  <speed>0.0</speed>
  <fix>3d</fix>
</trkpt>
<trkpt lat="33.8106397" lon="-118.393864">
  <ele>-10.206</ele>
  <time>2026-09-02T22:11:30Z</time>
  <course>25.18</course>
  <speed>0.04</speed>
  <fix>3d</fix>
</trkpt>
<trkpt lat="33.8106397" lon="-118.393864">
  <ele>-10.247</ele>
  <time>2026-09-02T22:11:30Z</time>
  <course>25.19</course>
  <speed>0.03</speed>
  <fix>3d</fix>
</trkpt>
<trkpt lat="33.81064" lon="-118.3938643">
  <ele>-9.85</ele>
  <time>2026-09-02T22:11:30Z</time>
  <course>247.51</course>
  <speed>0.0</speed>
  <fix>3d</fix>
</trkpt>
<trkpt lat="33.8106397" lon="-118.393864">
  <ele>-10.266</ele>
  <time>2026-09-02T22:11:30Z</time>
  <course>25.19</course>
  <speed>0.03</speed>
  <fix>3d</fix>
</trkpt>
<trkpt lat="33.8106397" lon="-118.393864">
  <ele>-10.307</ele>
  <time>2026-09-02T22:11:30Z</time>
  <course>25.2</course>
  <speed>0.03</speed>
  <fix>3d</fix>
</trkpt>
<trkpt lat="33.81064" lon="-118.3938643">
  <ele>-9.85</ele>
  <time>2026-09-02T22:11:30Z</time>
  <course>247.51</course>
  <speed>0.0</speed>
  <fix>3d</fix>
</trkpt>
<trkpt lat="33.8106397" lon="-118.393864">
  <ele>-10.328</ele>
  <time>2026-09-02T22:11:30Z</time>
  <course>25.21</course>
  <speed>0.04</speed>
  <fix>3d</fix>
</trkpt>
<trkpt lat="33.8106397" lon="-118.393864">
  <ele>-10.368</ele>
  <time>2026-09-02T22:11:30Z</time>
  <course>25.21</course>
  <speed>0.03</speed>
  <fix>3d</fix>
</trkpt>
<trkpt lat="33.81064" lon="-118.3938643">
  <ele>-9.96</ele>
  <time>2026-09-02T22:11:30Z</time>
  <course>247.51</course>
  <speed>0.0</speed>
  <fix>3d</fix>
</trkpt>
<trkpt lat="33.8106397" lon="-118.393864">
  <ele>-10.389</ele>
  <time>2026-09-02T22:11:30Z</time>
  <course>25.22</course>
  <speed>0.03</speed>
  <fix>3d</fix>
</trkpt>
<trkpt lat="33.8106397" lon="-118.3938641">
  <ele>-10.429</ele>
  <time>2026-09-02T22:11:30Z</time>
  <course>25.23</course>
  <speed>0.03</speed>
  <fix>3d</fix>
</trkpt>
<trkpt lat="33.81064" lon="-118.3938643">
  <ele>-9.96</ele>
  <time>2026-09-02T22:11:30Z</time>
  <course>247.51</course>
  <speed>0.0</speed>
  <fix>3d</fix>
</trkpt>
<trkpt lat="33.8106397" lon="-118.3938641">
  <ele>-10.451</ele>
  <time>2026-09-02T22:11:30Z</time>
  <course>25.23</course>
  <speed>0.03</speed>
  <fix>3d</fix>
</trkpt>
<trkpt lat="33.8106397" lon="-118.3938641">
  <ele>-10.491</ele>
  <time>2026-09-02T22:11:30Z</time>
  <course>25.24</course>
  <speed>0.03</speed>
  <fix>3d</fix>
</trkpt>
<trkpt lat="33.8106399" lon="-118.3938643">
  <ele>-10.09</ele>
  <time>2026-09-02T22:11:30Z</time>
  <course>247.47</course>
  <speed>0.0</speed>
  <fix>3d</fix>
</trkpt>
<trkpt lat="33.8106397" lon="-118.3938641">
  <ele>-10.492</ele>
  <time>2026-09-02T22:11:30Z</time>
  <course>25.24</course>
  <speed>0.03</speed>
  <fix>3d</fix>
</trkpt>
<trkpt lat="33.8106397" lon="-118.3938641">
  <ele>-10.553</ele>
  <time>2026-09-02T22:11:30Z</time>
  <course>25.25</course>
  <speed>0.03</speed>
  <fix>3d</fix>
</trkpt>
<trkpt lat="33.8106399" lon="-118.3938643">
  <ele>-10.09</ele>
  <time>2026-09-02T22:11:30Z</time>
  <course>247.47</course>
  <speed>0.0</speed>
  <fix>3d</fix>
</trkpt>
<trkpt lat="33.8106397" lon="-118.3938641">
  <ele>-10.574</ele>
  <time>2026-09-02T22:11:30Z</time>
  <course>25.25</course>
  <speed>0.04</speed>
  <fix>3d</fix>
</trkpt>
<trkpt lat="33.8106397" lon="-118.3938641">
  <ele>-10.614</ele>
  <time>2026-09-02T22:11:30Z</time>
  <course>25.26</course>
  <speed>0.04</speed>
  <fix>3d</fix>
</trkpt>
<trkpt lat="33.8106399" lon="-118.3938643">
  <ele>-10.21</ele>
  <time>2026-09-02T22:11:30Z</time>
  <course>247.41</course>
  <speed>0.0</speed>
  <fix>3d</fix>
</trkpt>
<trkpt lat="33.8106397" lon="-118.3938641">
  <ele>-10.616</ele>
  <time>2026-09-02T22:11:30Z</time>
  <course>25.26</course>
  <speed>0.04</speed>
  <fix>3d</fix>
</trkpt>
<trkpt lat="33.8106397" lon="-118.3938641">
  <ele>-10.676</ele>
  <time>2026-09-02T22:11:30Z</time>
  <course>25.27</course>
  <speed>0.04</speed>
  <fix>3d</fix>
</trkpt>
<trkpt lat="33.8106399" lon="-118.3938643">
  <ele>-10.21</ele>
  <time>2026-09-02T22:11:30Z</time>
  <course>247.41</course>
  <speed>0.0</speed>
  <fix>3d</fix>
</trkpt>
<trkpt lat="33.8106397" lon="-118.3938641">
  <ele>-10.697</ele>
  <time>2026-09-02T22:11:30Z</time>
  <course>25.28</course>
  <speed>0.04</speed>
  <fix>3d</fix>
</trkpt>
<trkpt lat="33.8106397" lon="-118.3938641">
  <ele>-10.736</ele>
  <time>2026-09-02T22:11:30Z</time>
  <course>25.28</course>
  <speed>0.04</speed>
  <fix>3d</fix>
</trkpt>
<trkpt lat="33.8106399" lon="-118.3938643">
  <ele>-10.33</ele>
  <time>2026-09-02T22:11:30Z</time>
  <course>247.36</course>
  <speed>0.0</speed>
  <fix>3d</fix>
</trkpt>
<trkpt lat="33.8106397" lon="-118.3938641">
  <ele>-10.756</ele>
  <time>2026-09-02T22:11:30Z</time>
  <course>25.29</course>
  <speed>0.04</speed>
  <fix>3d</fix>
</trkpt>
<trkpt lat="33.8106397" lon="-118.3938641">
  <ele>-10.797</ele>
  <time>2026-09-02T22:11:30Z</time>
  <course>25.3</course>
  <speed>0.04</speed>
  <fix>3d</fix>
</trkpt>
<trkpt lat="33.8106399" lon="-118.3938643">
  <ele>-10.33</ele>
  <time>2026-09-02T22:11:30Z</time>
  <course>247.36</course>
  <speed>0.0</speed>
  <fix>3d</fix>
</trkpt>
<trkpt lat="33.8106397" lon="-118.3938641">
  <ele>-10.818</ele>
  <time>2026-09-02T22:11:30Z</time>
  <course>25.3</course>
  <speed>0.04</speed>
  <fix>3d</fix>
</trkpt>
<trkpt lat="33.8106397" lon="-118.3938641">
  <ele>-10.858</ele>
  <time>2026-09-02T22:11:30Z</time>
  <course>25.31</course>
  <speed>0.04</speed>
  <fix>3d</fix>
</trkpt>
<trkpt lat="33.8106399" lon="-118.3938643">
  <ele>-10.45</ele>
  <time>2026-09-02T22:11:30Z</time>
  <course>247.33</course>
  <speed>0.0</speed>
  <fix>3d</fix>
</trkpt>
<trkpt lat="33.8106397" lon="-118.3938641">
  <ele>-10.88</ele>
  <time>2026-09-02T22:11:30Z</time>
  <course>25.31</course>
  <speed>0.04</speed>
  <fix>3d</fix>
</trkpt>
<trkpt lat="33.8106397" lon="-118.3938641">
  <ele>-10.92</ele>
  <time>2026-09-02T22:11:30Z</time>
  <course>25.32</course>
  <speed>0.04</speed>
  <fix>3d</fix>
</trkpt>
<trkpt lat="33.8106399" lon="-118.3938643">
  <ele>-10.45</ele>
  <time>2026-09-02T22:11:30Z</time>
  <course>247.33</course>
  <speed>0.0</speed>
  <fix>3d</fix>
</trkpt>
<trkpt lat="33.8106397" lon="-118.3938641">
  <ele>-10.943</ele>
  <time>2026-09-02T22:11:30Z</time>
  <course>25.32</course>
  <speed>0.04</speed>
  <fix>3d</fix>
</trkpt>
<trkpt lat="33.8106397" lon="-118.3938641">
  <ele>-10.982</ele>
  <time>2026-09-02T22:11:30Z</time>
  <course>25.33</course>
  <speed>0.04</speed>
  <fix>3d</fix>
</trkpt>
<trkpt lat="33.8106399" lon="-118.3938643">
  <ele>-10.57</ele>
  <time>2026-09-02T22:11:30Z</time>
  <course>247.33</course>
  <speed>0.0</speed>
  <fix>3d</fix>
</trkpt>
<trkpt lat="33.8106397" lon="-118.3938641">
  <ele>-11.002</ele>
  <time>2026-09-02T22:11:30Z</time>
  <course>25.33</course>
  <speed>0.04</speed>
  <fix>3d</fix>
</trkpt>
<trkpt lat="33.8106397" lon="-118.3938641">
  <ele>-11.044</ele>
  <time>2026-09-02T22:11:30Z</time>
  <course>25.34</course>
  <speed>0.04</speed>
  <fix>3d</fix>
</trkpt>
<trkpt lat="33.8106399" lon="-118.3938643">
  <ele>-10.57</ele>
  <time>2026-09-02T22:11:30Z</time>
  <course>247.33</course>
  <speed>0.0</speed>
  <fix>3d</fix>
</trkpt>
<trkpt lat="33.8106396" lon="-118.3938641">
  <ele>-11.066</ele>
  <time>2026-09-02T22:11:30Z</time>
  <course>25.34</course>
  <speed>0.04</speed>
  <fix>3d</fix>
</trkpt>
<trkpt lat="33.8106396" lon="-118.3938641">
  <ele>-11.106</ele>
  <time>2026-09-02T22:11:30Z</time>
  <course>25.35</course>
  <speed>0.04</speed>
  <fix>3d</fix>
</trkpt>
<trkpt lat="33.8106399" lon="-118.3938643">
  <ele>-10.69</ele>
  <time>2026-09-02T22:11:30Z</time>
  <course>247.34</course>
  <speed>0.0</speed>
  <fix>3d</fix>
</trkpt>
<trkpt lat="33.8106396" lon="-118.3938641">
  <ele>-11.128</ele>
  <time>2026-09-02T22:11:30Z</time>
  <course>25.36</course>
  <speed>0.04</speed>
  <fix>3d</fix>
</trkpt>
<trkpt lat="33.8106396" lon="-118.3938641">
  <ele>-11.168</ele>
  <time>2026-09-02T22:11:30Z</time>
  <course>25.36</course>
  <speed>0.04</speed>
  <fix>3d</fix>
</trkpt>
<trkpt lat="33.8106399" lon="-118.3938643">
  <ele>-10.69</ele>
  <time>2026-09-02T22:11:30Z</time>
  <course>247.34</course>
  <speed>0.0</speed>
  <fix>3d</fix>
</trkpt>
<trkpt lat="33.8106396" lon="-118.3938641">
  <ele>-11.188</ele>
  <time>2026-09-02T22:11:30Z</time>
  <course>25.37</course>
  <speed>0.04</speed>
  <fix>3d</fix>
</trkpt>
<trkpt lat="33.8106396" lon="-118.3938641">
  <ele>-11.228</ele>
  <time>2026-09-02T22:11:30Z</time>
  <course>25.37</course>
  <speed>0.04</speed>
  <fix>3d</fix>
</trkpt>
<trkpt lat="33.8106399" lon="-118.3938644">
  <ele>-10.8</ele>
  <time>2026-09-02T22:11:30Z</time>
  <course>247.32</course>
  <speed>0.0</speed>
  <fix>3d</fix>
</trkpt>
<trkpt lat="33.8106396" lon="-118.3938641">
  <ele>-11.23</ele>
  <time>2026-09-02T22:11:30Z</time>
  <course>25.37</course>
  <speed>0.04</speed>
  <fix>3d</fix>
</trkpt>
<trkpt lat="33.8106396" lon="-118.3938642">
  <ele>-11.288</ele>
  <time>2026-09-02T22:11:30Z</time>
  <course>25.39</course>
  <speed>0.04</speed>
  <fix>3d</fix>
</trkpt>
<trkpt lat="33.8106399" lon="-118.3938644">
  <ele>-10.8</ele>
  <time>2026-09-02T22:11:30Z</time>
  <course>247.32</course>
  <speed>0.0</speed>
  <fix>3d</fix>
</trkpt>
<trkpt lat="33.8106396" lon="-118.3938642">
  <ele>-11.307</ele>
  <time>2026-09-02T22:11:30Z</time>
  <course>25.39</course>
  <speed>0.04</speed>
  <fix>3d</fix>
</trkpt>
<trkpt lat="33.8106396" lon="-118.3938642">
  <ele>-11.347</ele>
  <time>2026-09-02T22:11:30Z</time>
  <course>25.4</course>
  <speed>0.04</speed>
  <fix>3d</fix>
</trkpt>
<trkpt lat="33.8106399" lon="-118.3938644">
  <ele>-10.93</ele>
  <time>2026-09-02T22:11:30Z</time>
  <course>247.28</course>
  <speed>0.0</speed>
  <fix>3d</fix>
</trkpt>
<trkpt lat="33.8106396" lon="-118.3938642">
  <ele>-11.367</ele>
  <time>2026-09-02T22:11:30Z</time>
  <course>25.4</course>
  <speed>0.04</speed>
  <fix>3d</fix>
</trkpt>
<trkpt lat="33.8106396" lon="-118.3938642">
  <ele>-11.406</ele>
  <time>2026-09-02T22:11:30Z</time>
  <course>25.41</course>
  <speed>0.04</speed>
  <fix>3d</fix>
</trkpt>
<trkpt lat="33.8106399" lon="-118.3938644">
  <ele>-10.93</ele>
  <time>2026-09-02T22:11:30Z</time>
  <course>247.28</course>
  <speed>0.0</speed>
  <fix>3d</fix>
</trkpt>
<trkpt lat="33.8106396" lon="-118.3938642">
  <ele>-11.425</ele>
  <time>2026-09-02T22:11:30Z</time>
  <course>25.41</course>
  <speed>0.04</speed>
  <fix>3d</fix>
</trkpt>
<trkpt lat="33.8106396" lon="-118.3938642">
  <ele>-11.465</ele>
  <time>2026-09-02T22:11:30Z</time>
  <course>25.42</course>
  <speed>0.04</speed>
  <fix>3d</fix>
</trkpt>
<trkpt lat="33.8106399" lon="-118.3938644">
  <ele>-11.04</ele>
  <time>2026-09-02T22:11:30Z</time>
  <course>247.22</course>
  <speed>0.0</speed>
  <fix>3d</fix>
</trkpt>
<trkpt lat="33.8106396" lon="-118.3938642">
  <ele>-11.484</ele>
  <time>2026-09-02T22:11:30Z</time>
  <course>25.42</course>
  <speed>0.04</speed>
  <fix>3d</fix>
</trkpt>
<trkpt lat="33.8106396" lon="-118.3938642">
  <ele>-11.524</ele>
  <time>2026-09-02T22:11:30Z</time>
  <course>25.43</course>
  <speed>0.04</speed>
  <fix>3d</fix>
</trkpt>
<trkpt lat="33.8106399" lon="-118.3938644">
  <ele>-11.04</ele>
  <time>2026-09-02T22:11:30Z</time>
  <course>247.22</course>
  <speed>0.0</speed>
  <fix>3d</fix>
</trkpt>
<trkpt lat="33.8106396" lon="-118.3938642">
  <ele>-11.545</ele>
  <time>2026-09-02T22:11:30Z</time>
  <course>25.43</course>
  <speed>0.04</speed>
  <fix>3d</fix>
</trkpt>
<trkpt lat="33.8106396" lon="-118.3938642">
  <ele>-11.584</ele>
  <time>2026-09-02T22:11:30Z</time>
  <course>25.44</course>
  <speed>0.04</speed>
  <fix>3d</fix>
</trkpt>
<trkpt lat="33.8106399" lon="-118.3938644">
  <ele>-11.17</ele>
  <time>2026-09-02T22:11:30Z</time>
  <course>247.18</course>
  <speed>0.0</speed>
  <fix>3d</fix>
</trkpt>
<trkpt lat="33.8106396" lon="-118.3938642">
  <ele>-11.605</ele>
  <time>2026-09-02T22:11:30Z</time>
  <course>25.44</course>
  <speed>0.04</speed>
  <fix>3d</fix>
</trkpt>
<trkpt lat="33.8106396" lon="-118.3938642">
  <ele>-11.645</ele>
  <time>2026-09-02T22:11:30Z</time>
  <course>25.45</course>
  <speed>0.04</speed>
  <fix>3d</fix>
</trkpt>
<trkpt lat="33.8106399" lon="-118.3938644">
  <ele>-11.17</ele>
  <time>2026-09-02T22:11:30Z</time>
  <course>247.18</course>
  <speed>0.0</speed>
  <fix>3d</fix>
</trkpt>
<trkpt lat="33.8106396" lon="-118.3938642">
  <ele>-11.664</ele>
  <time>2026-09-02T22:11:30Z</time>
  <course>25.46</course>
  <speed>0.04</speed>
  <fix>3d</fix>
</trkpt>
<trkpt lat="33.8106396" lon="-118.3938642">
  <ele>-11.705</ele>
  <time>2026-09-02T22:11:30Z</time>
  <course>25.46</course>
  <speed>0.04</speed>
  <fix>3d</fix>
</trkpt>
<trkpt lat="33.8106399" lon="-118.3938644">
  <ele>-11.29</ele>
  <time>2026-09-02T22:11:30Z</time>
  <course>247.17</course>
  <speed>0.0</speed>
  <fix>3d</fix>
</trkpt>
<trkpt lat="33.8106396" lon="-118.3938642">
  <ele>-11.724</ele>
  <time>2026-09-02T22:11:30Z</time>
  <course>25.47</course>
  <speed>0.04</speed>
  <fix>3d</fix>
</trkpt>
<trkpt lat="33.8106396" lon="-118.3938642">
  <ele>-11.766</ele>
  <time>2026-09-02T22:11:30Z</time>
  <course>25.47</course>
  <speed>0.04</speed>
  <fix>3d</fix>
</trkpt>
<trkpt lat="33.8106399" lon="-118.3938644">
  <ele>-11.29</ele>
  <time>2026-09-02T22:11:30Z</time>
  <course>247.17</course>
  <speed>0.0</speed>
  <fix>3d</fix>
</trkpt>
<trkpt lat="33.8106396" lon="-118.3938642">
  <ele>-11.787</ele>
  <time>2026-09-02T22:11:30Z</time>
  <course>25.48</course>
  <speed>0.04</speed>
  <fix>3d</fix>
</trkpt>
<trkpt lat="33.8106396" lon="-118.3938642">
  <ele>-11.826</ele>
  <time>2026-09-02T22:11:30Z</time>
  <course>25.48</course>
  <speed>0.03</speed>
  <fix>3d</fix>
</trkpt>
<trkpt lat="33.8106399" lon="-118.3938644">
  <ele>-11.42</ele>
  <time>2026-09-02T22:11:30Z</time>
  <course>247.17</course>
  <speed>0.0</speed>
  <fix>3d</fix>
</trkpt>
<trkpt lat="33.8106396" lon="-118.3938642">
  <ele>-11.847</ele>
  <time>2026-09-02T22:11:30Z</time>
  <course>25.49</course>
  <speed>0.03</speed>
  <fix>3d</fix>
</trkpt>
<trkpt lat="33.8106396" lon="-118.3938642">
  <ele>-11.887</ele>
  <time>2026-09-02T22:11:30Z</time>
  <course>25.5</course>
  <speed>0.03</speed>
  <fix>3d</fix>
</trkpt>
<trkpt lat="33.8106399" lon="-118.3938644">
  <ele>-11.42</ele>
  <time>2026-09-02T22:11:30Z</time>
  <course>247.17</course>
  <speed>0.0</speed>
  <fix>3d</fix>
</trkpt>
<trkpt lat="33.8106396" lon="-118.3938642">
  <ele>-11.889</ele>
  <time>2026-09-02T22:11:30Z</time>
  <course>25.5</course>
  <speed>0.03</speed>
  <fix>3d</fix>
</trkpt>
<trkpt lat="33.8106396" lon="-118.3938642">
  <ele>-11.948</ele>
  <time>2026-09-02T22:11:30Z</time>
  <course>25.51</course>
  <speed>0.03</speed>
  <fix>3d</fix>
</trkpt>
<trkpt lat="33.8106399" lon="-118.3938644">
  <ele>-11.54</ele>
  <time>2026-09-02T22:11:30Z</time>
  <course>247.18</course>
  <speed>0.0</speed>
  <fix>3d</fix>
</trkpt>
<trkpt lat="33.8106396" lon="-118.3938642">
  <ele>-11.968</ele>
  <time>2026-09-02T22:11:30Z</time>
  <course>25.51</course>
  <speed>0.03</speed>
  <fix>3d</fix>
</trkpt>
<trkpt lat="33.8106396" lon="-118.3938642">
  <ele>-12.009</ele>
  <time>2026-09-02T22:11:30Z</time>
  <course>25.52</course>
  <speed>0.03</speed>
  <fix>3d</fix>
</trkpt>
<trkpt lat="33.8106399" lon="-118.3938644">
  <ele>-11.54</ele>
  <time>2026-09-02T22:11:30Z</time>
  <course>247.18</course>
  <speed>0.0</speed>
  <fix>3d</fix>
</trkpt>
<trkpt lat="33.8106396" lon="-118.3938642">
  <ele>-12.03</ele>
  <time>2026-09-02T22:11:30Z</time>
  <course>25.52</course>
  <speed>0.03</speed>
  <fix>3d</fix>
</trkpt>
<trkpt lat="33.8106396" lon="-118.3938642">
  <ele>-12.071</ele>
  <time>2026-09-02T22:11:30Z</time>
  <course>25.53</course>
  <speed>0.03</speed>
  <fix>3d</fix>
</trkpt>
<trkpt lat="33.8106399" lon="-118.3938645">
  <ele>-11.66</ele>
  <time>2026-09-02T22:11:30Z</time>
  <course>247.15</course>
  <speed>0.0</speed>
  <fix>3d</fix>
</trkpt>
<trkpt lat="33.8106396" lon="-118.3938642">
  <ele>-12.092</ele>
  <time>2026-09-02T22:11:30Z</time>
  <course>25.53</course>
  <speed>0.03</speed>
  <fix>3d</fix>
</trkpt>
<trkpt lat="33.8106396" lon="-118.3938643">
  <ele>-12.133</ele>
  <time>2026-09-02T22:11:30Z</time>
  <course>25.54</course>
  <speed>0.03</speed>
  <fix>3d</fix>
</trkpt>
<trkpt lat="33.8106399" lon="-118.3938645">
  <ele>-11.66</ele>
  <time>2026-09-02T22:11:30Z</time>
  <course>247.15</course>
  <speed>0.0</speed>
  <fix>3d</fix>
</trkpt>
<trkpt lat="33.8106396" lon="-118.3938643">
  <ele>-12.154</ele>
  <time>2026-09-02T22:11:30Z</time>
  <course>25.54</course>
  <speed>0.03</speed>
  <fix>3d</fix>
</trkpt>
<trkpt lat="33.8106396" lon="-118.3938643">
  <ele>-12.194</ele>
  <time>2026-09-02T22:11:30Z</time>
  <course>25.55</course>
  <speed>0.03</speed>
  <fix>3d</fix>
</trkpt>
<trkpt lat="33.8106399" lon="-118.3938645">
  <ele>-11.78</ele>
  <time>2026-09-02T22:11:30Z</time>
  <course>247.11</course>
  <speed>0.0</speed>
  <fix>3d</fix>
</trkpt>
<trkpt lat="33.8106396" lon="-118.3938643">
  <ele>-12.214</ele>
  <time>2026-09-02T22:11:30Z</time>
  <course>25.55</course>
  <speed>0.03</speed>
  <fix>3d</fix>
</trkpt>
<trkpt lat="33.8106396" lon="-118.3938643">
  <ele>-12.256</ele>
  <time>2026-09-02T22:11:30Z</time>
  <course>25.56</course>
  <speed>0.03</speed>
  <fix>3d</fix>
</trkpt>
<trkpt lat="33.8106399" lon="-118.3938645">
  <ele>-11.78</ele>
  <time>2026-09-02T22:11:30Z</time>
  <course>247.11</course>
  <speed>0.0</speed>
  <fix>3d</fix>
</trkpt>
<trkpt lat="33.8106396" lon="-118.3938643">
  <ele>-12.278</ele>
  <time>2026-09-02T22:11:30Z</time>
  <course>25.57</course>
  <speed>0.03</speed>
  <fix>3d</fix>
</trkpt>
<trkpt lat="33.8106396" lon="-118.3938643">
  <ele>-12.318</ele>
  <time>2026-09-02T22:11:30Z</time>
  <course>25.57</course>
  <speed>0.03</speed>
  <fix>3d</fix>
</trkpt>
<trkpt lat="33.8106399" lon="-118.3938645">
  <ele>-11.9</ele>
  <time>2026-09-02T22:11:30Z</time>
  <course>247.05</course>
  <speed>0.0</speed>
  <fix>3d</fix>
</trkpt>
<trkpt lat="33.8106396" lon="-118.3938643">
  <ele>-12.34</ele>
  <time>2026-09-02T22:11:30Z</time>
  <course>25.58</course>
  <speed>0.03</speed>
  <fix>3d</fix>
</trkpt>
<trkpt lat="33.8106396" lon="-118.3938643">
  <ele>-12.381</ele>
  <time>2026-09-02T22:11:30Z</time>
  <course>25.58</course>
  <speed>0.03</speed>
  <fix>3d</fix>
</trkpt>
<trkpt lat="33.8106399" lon="-118.3938645">
  <ele>-11.9</ele>
  <time>2026-09-02T22:11:30Z</time>
  <course>247.05</course>
  <speed>0.0</speed>
  <fix>3d</fix>
</trkpt>
<trkpt lat="33.8106396" lon="-118.3938643">
  <ele>-12.401</ele>
  <time>2026-09-02T22:11:30Z</time>
  <course>25.59</course>
  <speed>0.03</speed>
  <fix>3d</fix>
</trkpt>
<trkpt lat="33.8106396" lon="-118.3938643">
  <ele>-12.443</ele>
  <time>2026-09-02T22:11:30Z</time>
  <course>25.59</course>
  <speed>0.03</speed>
  <fix>3d</fix>
</trkpt>
<trkpt lat="33.8106399" lon="-118.3938645">
  <ele>-12.02</ele>
  <time>2026-09-02T22:11:30Z</time>
  <course>247.02</course>
  <speed>0.0</speed>
  <fix>3d</fix>
</trkpt>
<trkpt lat="33.8106396" lon="-118.3938643">
  <ele>-12.466</ele>
  <time>2026-09-02T22:11:30Z</time>
  <course>25.6</course>
  <speed>0.03</speed>
  <fix>3d</fix>
</trkpt>
<trkpt lat="33.8106396" lon="-118.3938643">
  <ele>-12.507</ele>
  <time>2026-09-02T22:11:30Z</time>
  <course>25.61</course>
  <speed>0.03</speed>
  <fix>3d</fix>
</trkpt>
<trkpt lat="33.8106399" lon="-118.3938645">
  <ele>-12.02</ele>
  <time>2026-09-02T22:11:30Z</time>
  <course>247.02</course>
  <speed>0.0</speed>
  <fix>3d</fix>
</trkpt>
<trkpt lat="33.8106396" lon="-118.3938643">
  <ele>-12.509</ele>
  <time>2026-09-02T22:11:30Z</time>
  <course>25.61</course>
  <speed>0.03</speed>
  <fix>3d</fix>
</trkpt>
<trkpt lat="33.8106396" lon="-118.3938643">
  <ele>-12.571</ele>
  <time>2026-09-02T22:11:30Z</time>
  <course>25.62</course>
  <speed>0.03</speed>
  <fix>3d</fix>
</trkpt>
<trkpt lat="33.8106399" lon="-118.3938645">
  <ele>-12.13</ele>
  <time>2026-09-02T22:11:30Z</time>
  <course>247.02</course>
  <speed>0.0</speed>
  <fix>3d</fix>
</trkpt>
<trkpt lat="33.8106396" lon="-118.3938643">
  <ele>-12.594</ele>
  <time>2026-09-02T22:11:30Z</time>
  <course>25.62</course>
  <speed>0.03</speed>
  <fix>3d</fix>
</trkpt>
<trkpt lat="33.8106396" lon="-118.3938643">
  <ele>-12.635</ele>
  <time>2026-09-02T22:11:30Z</time>
  <course>25.63</course>
  <speed>0.03</speed>
  <fix>3d</fix>
</trkpt>
<trkpt lat="33.8106399" lon="-118.3938645">
  <ele>-12.13</ele>
  <time>2026-09-02T22:11:30Z</time>
  <course>247.02</course>
  <speed>0.0</speed>
  <fix>3d</fix>
</trkpt>
<trkpt lat="33.8106396" lon="-118.3938643">
  <ele>-12.656</ele>
  <time>2026-09-02T22:11:30Z</time>
  <course>25.63</course>
  <speed>0.03</speed>
  <fix>3d</fix>
</trkpt>
<trkpt lat="33.8106396" lon="-118.3938643">
  <ele>-12.698</ele>
  <time>2026-09-02T22:11:30Z</time>
  <course>25.64</course>
  <speed>0.03</speed>
  <fix>3d</fix>
</trkpt>
<trkpt lat="33.8106399" lon="-118.3938645">
  <ele>-12.26</ele>
  <time>2026-09-02T22:11:30Z</time>
  <course>247.03</course>
  <speed>0.0</speed>
  <fix>3d</fix>
</trkpt>
<trkpt lat="33.8106396" lon="-118.3938643">
  <ele>-12.72</ele>
  <time>2026-09-02T22:11:30Z</time>
  <course>25.64</course>
  <speed>0.03</speed>
  <fix>3d</fix>
</trkpt>
<trkpt lat="33.8106396" lon="-118.3938643">
  <ele>-12.761</ele>
  <time>2026-09-02T22:11:30Z</time>
  <course>25.65</course>
  <speed>0.03</speed>
  <fix>3d</fix>
</trkpt>
<trkpt lat="33.8106399" lon="-118.3938645">
  <ele>-12.26</ele>
  <time>2026-09-02T22:11:30Z</time>
  <course>247.03</course>
  <speed>0.0</speed>
  <fix>3d</fix>
</trkpt>
<trkpt lat="33.8106396" lon="-118.3938643">
  <ele>-12.783</ele>
  <time>2026-09-02T22:11:30Z</time>
  <course>25.65</course>
  <speed>0.03</speed>
  <fix>3d</fix>
</trkpt>
<trkpt lat="33.8106396" lon="-118.3938643">
  <ele>-12.825</ele>
  <time>2026-09-02T22:11:30Z</time>
  <course>25.66</course>
  <speed>0.03</speed>
  <fix>3d</fix>
</trkpt>
<trkpt lat="33.8106399" lon="-118.3938645">
  <ele>-12.37</ele>
  <time>2026-09-02T22:11:30Z</time>
  <course>247.03</course>
  <speed>0.0</speed>
  <fix>3d</fix>
</trkpt>
<trkpt lat="33.8106396" lon="-118.3938643">
  <ele>-12.847</ele>
  <time>2026-09-02T22:11:30Z</time>
  <course>25.66</course>
  <speed>0.03</speed>
  <fix>3d</fix>
</trkpt>
<trkpt lat="33.8106396" lon="-118.3938643">
  <ele>-12.888</ele>
  <time>2026-09-02T22:11:30Z</time>
  <course>25.67</course>
  <speed>0.03</speed>
  <fix>3d</fix>
</trkpt>
<trkpt lat="33.8106399" lon="-118.3938645">
  <ele>-12.37</ele>
  <time>2026-09-02T22:11:30Z</time>
  <course>247.03</course>
  <speed>0.0</speed>
  <fix>3d</fix>
</trkpt>
<trkpt lat="33.8106396" lon="-118.3938643">
  <ele>-12.907</ele>
  <time>2026-09-02T22:11:30Z</time>
  <course>25.67</course>
  <speed>0.03</speed>
  <fix>3d</fix>
</trkpt>
<trkpt lat="33.8106396" lon="-118.3938643">
  <ele>-12.95</ele>
  <time>2026-09-02T22:11:30Z</time>
  <course>25.68</course>
  <speed>0.03</speed>
  <fix>3d</fix>
</trkpt>
<trkpt lat="33.8106399" lon="-118.3938645">
  <ele>-12.5</ele>
  <time>2026-09-02T22:11:30Z</time>
  <course>247.0</course>
  <speed>0.0</speed>
  <fix>3d</fix>
</trkpt>
<trkpt lat="33.8106396" lon="-118.3938643">
  <ele>-12.972</ele>
  <time>2026-09-02T22:11:30Z</time>
  <course>25.68</course>
  <speed>0.03</speed>
  <fix>3d</fix>
</trkpt>
<trkpt lat="33.8106396" lon="-118.3938643">
  <ele>-13.012</ele>
  <time>2026-09-02T22:11:30Z</time>
  <course>25.69</course>
  <speed>0.03</speed>
  <fix>3d</fix>
</trkpt>
<trkpt lat="33.8106399" lon="-118.3938645">
  <ele>-12.5</ele>
  <time>2026-09-02T22:11:30Z</time>
  <course>247.0</course>
  <speed>0.0</speed>
  <fix>3d</fix>
</trkpt>
<trkpt lat="33.8106396" lon="-118.3938643">
  <ele>-13.034</ele>
  <time>2026-09-02T22:11:30Z</time>
  <course>25.7</course>
  <speed>0.03</speed>
  <fix>3d</fix>
</trkpt>
<trkpt lat="33.8106396" lon="-118.3938643">
  <ele>-13.074</ele>
  <time>2026-09-02T22:11:30Z</time>
  <course>25.7</course>
  <speed>0.03</speed>
  <fix>3d</fix>
</trkpt>
<trkpt lat="33.8106399" lon="-118.3938646">
  <ele>-12.62</ele>
  <time>2026-09-02T22:11:30Z</time>
  <course>246.95</course>
  <speed>0.0</speed>
  <fix>3d</fix>
</trkpt>
<trkpt lat="33.8106396" lon="-118.3938643">
  <ele>-13.096</ele>
  <time>2026-09-02T22:11:30Z</time>
  <course>25.71</course>
  <speed>0.03</speed>
  <fix>3d</fix>
</trkpt>
<trkpt lat="33.8106396" lon="-118.3938644">
  <ele>-13.136</ele>
  <time>2026-09-02T22:11:30Z</time>
  <course>25.71</course>
  <speed>0.03</speed>
  <fix>3d</fix>
</trkpt>
<trkpt lat="33.8106399" lon="-118.3938646">
  <ele>-12.62</ele>
  <time>2026-09-02T22:11:30Z</time>
  <course>246.95</course>
  <speed>0.0</speed>
  <fix>3d</fix>
</trkpt>
<trkpt lat="33.8106396" lon="-118.3938644">
  <ele>-13.156</ele>
  <time>2026-09-02T22:11:30Z</time>
  <course>25.72</course>
  <speed>0.03</speed>
  <fix>3d</fix>
</trkpt>
<trkpt lat="33.8106396" lon="-118.3938644">
  <ele>-13.197</ele>
  <time>2026-09-02T22:11:30Z</time>
  <course>25.72</course>
  <speed>0.03</speed>
  <fix>3d</fix>
</trkpt>
<trkpt lat="33.8106398" lon="-118.3938646">
  <ele>-12.74</ele>
  <time>2026-09-02T22:11:30Z</time>
  <course>246.9</course>
  <speed>0.0</speed>
  <fix>3d</fix>
</trkpt>
<trkpt lat="33.8106396" lon="-118.3938644">
  <ele>-13.199</ele>
  <time>2026-09-02T22:11:30Z</time>
  <course>25.72</course>
  <speed>0.03</speed>
  <fix>3d</fix>
</trkpt>
<trkpt lat="33.8106396" lon="-118.3938644">
  <ele>-13.259</ele>
  <time>2026-09-02T22:11:30Z</time>
  <course>25.74</course>
  <speed>0.03</speed>
  <fix>3d</fix>
</trkpt>
<trkpt lat="33.8106398" lon="-118.3938646">
  <ele>-12.74</ele>
  <time>2026-09-02T22:11:30Z</time>
  <course>246.9</course>
  <speed>0.0</speed>
  <fix>3d</fix>
</trkpt>
<trkpt lat="33.8106396" lon="-118.3938644">
  <ele>-13.278</ele>
  <time>2026-09-02T22:11:30Z</time>
  <course>25.74</course>
  <speed>0.03</speed>
  <fix>3d</fix>
</trkpt>
<trkpt lat="33.8106396" lon="-118.3938644">
  <ele>-13.32</ele>
  <time>2026-09-02T22:11:30Z</time>
  <course>25.75</course>
  <speed>0.03</speed>
  <fix>3d</fix>
</trkpt>
<trkpt lat="33.8106398" lon="-118.3938646">
  <ele>-12.86</ele>
  <time>2026-09-02T22:11:30Z</time>
  <course>246.88</course>
  <speed>0.0</speed>
  <fix>3d</fix>
</trkpt>
<trkpt lat="33.8106396" lon="-118.3938644">
  <ele>-13.342</ele>
  <time>2026-09-02T22:11:30Z</time>
  <course>25.75</course>
  <speed>0.03</speed>
  <fix>3d</fix>
</trkpt>
<trkpt lat="33.8106396" lon="-118.3938644">
  <ele>-13.383</ele>
  <time>2026-09-02T22:11:30Z</time>
  <course>25.76</course>
  <speed>0.03</speed>
  <fix>3d</fix>
</trkpt>
<trkpt lat="33.8106398" lon="-118.3938646">
  <ele>-12.86</ele>
  <time>2026-09-02T22:11:30Z</time>
  <course>246.88</course>
  <speed>0.0</speed>
  <fix>3d</fix>
</trkpt>
<trkpt lat="33.8106396" lon="-118.3938644">
  <ele>-13.405</ele>
  <time>2026-09-02T22:11:30Z</time>
  <course>25.76</course>
  <speed>0.03</speed>
  <fix>3d</fix>
</trkpt>
<trkpt lat="33.8106396" lon="-118.3938644">
  <ele>-13.445</ele>
  <time>2026-09-02T22:11:30Z</time>
  <course>25.77</course>
  <speed>0.03</speed>
  <fix>3d</fix>
</trkpt>
<trkpt lat="33.8106398" lon="-118.3938646">
  <ele>-12.98</ele>
  <time>2026-09-02T22:11:30Z</time>
  <course>246.89</course>
  <speed>0.0</speed>
  <fix>3d</fix>
</trkpt>
<trkpt lat="33.8106396" lon="-118.3938644">
  <ele>-13.466</ele>
  <time>2026-09-02T22:11:30Z</time>
  <course>25.77</course>
  <speed>0.03</speed>
  <fix>3d</fix>
</trkpt>
<trkpt lat="33.8106396" lon="-118.3938644">
  <ele>-13.507</ele>
  <time>2026-09-02T22:11:30Z</time>
  <course>25.78</course>
  <speed>0.03</speed>
  <fix>3d</fix>
</trkpt>
<trkpt lat="33.8106398" lon="-118.3938646">
  <ele>-12.98</ele>
  <time>2026-09-02T22:11:30Z</time>
  <course>246.89</course>
  <speed>0.0</speed>
  <fix>3d</fix>
</trkpt>
<trkpt lat="33.8106396" lon="-118.3938644">
  <ele>-13.528</ele>
  <time>2026-09-02T22:11:30Z</time>
  <course>25.78</course>
  <speed>0.03</speed>
  <fix>3d</fix>
</trkpt>
<trkpt lat="33.8106396" lon="-118.3938644">
  <ele>-13.568</ele>
  <time>2026-09-02T22:11:30Z</time>
  <course>25.79</course>
  <speed>0.03</speed>
  <fix>3d</fix>
</trkpt>
<trkpt lat="33.8106398" lon="-118.3938646">
  <ele>-13.11</ele>
  <time>2026-09-02T22:11:30Z</time>
  <course>246.9</course>
  <speed>0.0</speed>
  <fix>3d</fix>
</trkpt>
<trkpt lat="33.8106396" lon="-118.3938644">
  <ele>-13.59</ele>
  <time>2026-09-02T22:11:30Z</time>
  <course>25.79</course>
  <speed>0.03</speed>
  <fix>3d</fix>
</trkpt>
<trkpt lat="33.8106396" lon="-118.3938644">
  <ele>-13.63</ele>
  <time>2026-09-02T22:11:30Z</time>
  <course>25.8</course>
  <speed>0.03</speed>
  <fix>3d</fix>
</trkpt>
<trkpt lat="33.8106398" lon="-118.3938646">
  <ele>-13.11</ele>
  <time>2026-09-02T22:11:30Z</time>
  <course>246.9</course>
  <speed>0.0</speed>
  <fix>3d</fix>
</trkpt>
<trkpt lat="33.8106396" lon="-118.3938644">
  <ele>-13.649</ele>
  <time>2026-09-02T22:11:30Z</time>
  <course>25.8</course>
  <speed>0.03</speed>
  <fix>3d</fix>
</trkpt>
<trkpt lat="33.8106396" lon="-118.3938644">
  <ele>-13.69</ele>
  <time>2026-09-02T22:11:30Z</time>
  <course>25.81</course>
  <speed>0.03</speed>
  <fix>3d</fix>
</trkpt>
<trkpt lat="33.8106398" lon="-118.3938646">
  <ele>-13.23</ele>
  <time>2026-09-02T22:11:30Z</time>
  <course>246.89</course>
  <speed>0.0</speed>
  <fix>3d</fix>
</trkpt>
<trkpt lat="33.8106396" lon="-118.3938644">
  <ele>-13.709</ele>
  <time>2026-09-02T22:11:30Z</time>
  <course>25.81</course>
  <speed>0.03</speed>
  <fix>3d</fix>
</trkpt>
<trkpt lat="33.8106396" lon="-118.3938644">
  <ele>-13.751</ele>
  <time>2026-09-02T22:11:30Z</time>
  <course>25.82</course>
  <speed>0.03</speed>
  <fix>3d</fix>
</trkpt>
<trkpt lat="33.8106398" lon="-118.3938646">
  <ele>-13.23</ele>
  <time>2026-09-02T22:11:30Z</time>
  <course>246.89</course>
  <speed>0.0</speed>
  <fix>3d</fix>
</trkpt>
<trkpt lat="33.8106396" lon="-118.3938644">
  <ele>-13.772</ele>
  <time>2026-09-02T22:11:30Z</time>
  <course>25.82</course>
  <speed>0.03</speed>
  <fix>3d</fix>
</trkpt>
<trkpt lat="33.8106396" lon="-118.3938644">
  <ele>-13.812</ele>
  <time>2026-09-02T22:11:30Z</time>
  <course>25.83</course>
  <speed>0.03</speed>
  <fix>3d</fix>
</trkpt>
<trkpt lat="33.8106398" lon="-118.3938646">
  <ele>-13.35</ele>
  <time>2026-09-02T22:11:30Z</time>
  <course>246.85</course>
  <speed>0.0</speed>
  <fix>3d</fix>
</trkpt>
<trkpt lat="33.8106396" lon="-118.3938644">
  <ele>-13.814</ele>
  <time>2026-09-02T22:11:30Z</time>
  <course>25.83</course>
  <speed>0.03</speed>
  <fix>3d</fix>
</trkpt>
<trkpt lat="33.8106396" lon="-118.3938644">
  <ele>-13.874</ele>
  <time>2026-09-02T22:11:30Z</time>
  <course>25.84</course>
  <speed>0.03</speed>
  <fix>3d</fix>
</trkpt>
<trkpt lat="33.8106398" lon="-118.3938646">
  <ele>-13.35</ele>
  <time>2026-09-02T22:11:30Z</time>
  <course>246.85</course>
  <speed>0.0</speed>
  <fix>3d</fix>
</trkpt>
<trkpt lat="33.8106396" lon="-118.3938644">
  <ele>-13.895</ele>
  <time>2026-09-02T22:11:30Z</time>
  <course>25.85</course>
  <speed>0.03</speed>
  <fix>3d</fix>
</trkpt>
<trkpt lat="33.8106396" lon="-118.3938644">
  <ele>-13.935</ele>
  <time>2026-09-02T22:11:30Z</time>
  <course>25.85</course>
  <speed>0.03</speed>
  <fix>3d</fix>
</trkpt>
<trkpt lat="33.8106398" lon="-118.3938646">
  <ele>-13.46</ele>
  <time>2026-09-02T22:11:30Z</time>
  <course>246.8</course>
  <speed>0.0</speed>
  <fix>3d</fix>
</trkpt>
<trkpt lat="33.8106396" lon="-118.3938644">
  <ele>-13.956</ele>
  <time>2026-09-02T22:11:30Z</time>
  <course>25.86</course>
  <speed>0.03</speed>
  <fix>3d</fix>
</trkpt>
<trkpt lat="33.8106396" lon="-118.3938644">
  <ele>-13.996</ele>
  <time>2026-09-02T22:11:30Z</time>
  <course>25.86</course>
  <speed>0.03</speed>
  <fix>3d</fix>
</trkpt>
<trkpt lat="33.8106398" lon="-118.3938646">
  <ele>-13.46</ele>
  <time>2026-09-02T22:11:30Z</time>
  <course>246.8</course>
  <speed>0.0</speed>
  <fix>3d</fix>
</trkpt>
<trkpt lat="33.8106396" lon="-118.3938644">
  <ele>-14.017</ele>
  <time>2026-09-02T22:11:30Z</time>
  <course>25.87</course>
  <speed>0.03</speed>
  <fix>3d</fix>
</trkpt>
<trkpt lat="33.8106396" lon="-118.3938644">
  <ele>-14.057</ele>
  <time>2026-09-02T22:11:30Z</time>
  <course>25.87</course>
  <speed>0.03</speed>
  <fix>3d</fix>
</trkpt>
<trkpt lat="33.8106398" lon="-118.3938646">
  <ele>-13.59</ele>
  <time>2026-09-02T22:11:30Z</time>
  <course>246.77</course>
  <speed>0.0</speed>
  <fix>3d</fix>
</trkpt>
<trkpt lat="33.8106396" lon="-118.3938644">
  <ele>-14.078</ele>
  <time>2026-09-02T22:11:30Z</time>
  <course>25.88</course>
  <speed>0.03</speed>
  <fix>3d</fix>
</trkpt>
<trkpt lat="33.8106396" lon="-118.3938644">
  <ele>-14.119</ele>
  <time>2026-09-02T22:11:30Z</time>
  <course>25.88</course>
  <speed>0.03</speed>
  <fix>3d</fix>
</trkpt>
<trkpt lat="33.8106398" lon="-118.3938646">
  <ele>-13.59</ele>
  <time>2026-09-02T22:11:30Z</time>
  <course>246.77</course>
  <speed>0.0</speed>
  <fix>3d</fix>
</trkpt>
<trkpt lat="33.8106396" lon="-118.3938644">
  <ele>-14.14</ele>
  <time>2026-09-02T22:11:30Z</time>
  <course>25.89</course>
  <speed>0.03</speed>
  <fix>3d</fix>
</trkpt>
<trkpt lat="33.8106396" lon="-118.3938645">
  <ele>-14.181</ele>
  <time>2026-09-02T22:11:30Z</time>
  <course>25.89</course>
  <speed>0.03</speed>
  <fix>3d</fix>
</trkpt>
<trkpt lat="33.8106398" lon="-118.3938647">
  <ele>-13.71</ele>
  <time>2026-09-02T22:11:30Z</time>
  <course>246.76</course>
  <speed>0.0</speed>
  <fix>3d</fix>
</trkpt>
<trkpt lat="33.8106396" lon="-118.3938645">
  <ele>-14.201</ele>
  <time>2026-09-02T22:11:30Z</time>
  <course>25.9</course>
  <speed>0.03</speed>
  <fix>3d</fix>
</trkpt>
<trkpt lat="33.8106396" lon="-118.3938645">
  <ele>-14.245</ele>
  <time>2026-09-02T22:11:30Z</time>
  <course>25.9</course>
  <speed>0.03</speed>
  <fix>3d</fix>
</trkpt>
<trkpt lat="33.8106398" lon="-118.3938647">
  <ele>-13.71</ele>
  <time>2026-09-02T22:11:30Z</time>
  <course>246.76</course>
  <speed>0.0</speed>
  <fix>3d</fix>
</trkpt>
<trkpt lat="33.8106395" lon="-118.3938645">
  <ele>-14.267</ele>
  <time>2026-09-02T22:11:30Z</time>
  <course>25.91</course>
  <speed>0.03</speed>
  <fix>3d</fix>
</trkpt>
<trkpt lat="33.8106395" lon="-118.3938645">
  <ele>-14.308</ele>
  <time>2026-09-02T22:11:30Z</time>
  <course>25.91</course>
  <speed>0.03</speed>
  <fix>3d</fix>
</trkpt>
<trkpt lat="33.8106398" lon="-118.3938647">
  <ele>-13.83</ele>
  <time>2026-09-02T22:11:30Z</time>
  <course>246.77</course>
  <speed>0.0</speed>
  <fix>3d</fix>
</trkpt>
<trkpt lat="33.8106396" lon="-118.3938645">
  <ele>-14.328</ele>
  <time>2026-09-02T22:11:30Z</time>
  <course>25.92</course>
  <speed>0.03</speed>
  <fix>3d</fix>
</trkpt>
<trkpt lat="33.8106395" lon="-118.3938645">
  <ele>-14.371</ele>
  <time>2026-09-02T22:11:30Z</time>
  <course>25.93</course>
  <speed>0.03</speed>
  <fix>3d</fix>
</trkpt>
<trkpt lat="33.8106398" lon="-118.3938647">
  <ele>-13.83</ele>
  <time>2026-09-02T22:11:30Z</time>
  <course>246.77</course>
  <speed>0.0</speed>
  <fix>3d</fix>
</trkpt>
<trkpt lat="33.8106395" lon="-118.3938645">
  <ele>-14.393</ele>
  <time>2026-09-02T22:11:30Z</time>
  <course>25.93</course>
  <speed>0.03</speed>
  <fix>3d</fix>
</trkpt>
<trkpt lat="33.8106395" lon="-118.3938645">
  <ele>-14.434</ele>
  <time>2026-09-02T22:11:30Z</time>
  <course>25.94</course>
  <speed>0.03</speed>
  <fix>3d</fix>
</trkpt>
<trkpt lat="33.8106398" lon="-118.3938647">
  <ele>-13.95</ele>
  <time>2026-09-02T22:11:30Z</time>
  <course>246.77</course>
  <speed>0.0</speed>
  <fix>3d</fix>
</trkpt>
<trkpt lat="33.8106395" lon="-118.3938645">
  <ele>-14.435</ele>
  <time>2026-09-02T22:11:30Z</time>
  <course>25.94</course>
  <speed>0.03</speed>
  <fix>3d</fix>
</trkpt>
<trkpt lat="33.8106395" lon="-118.3938645">
  <ele>-14.497</ele>
  <time>2026-09-02T22:11:30Z</time>
  <course>25.95</course>
  <speed>0.03</speed>
  <fix>3d</fix>
</trkpt>
<trkpt lat="33.8106398" lon="-118.3938647">
  <ele>-13.95</ele>
  <time>2026-09-02T22:11:30Z</time>
  <course>246.77</course>
  <speed>0.0</speed>
  <fix>3d</fix>
</trkpt>
<trkpt lat="33.8106395" lon="-118.3938645">
  <ele>-14.498</ele>
  <time>2026-09-02T22:11:30Z</time>
  <course>25.95</course>
  <speed>0.03</speed>
  <fix>3d</fix>
</trkpt>
<trkpt lat="33.8106395" lon="-118.3938645">
  <ele>-14.559</ele>
  <time>2026-09-02T22:11:30Z</time>
  <course>25.96</course>
  <speed>0.03</speed>
  <fix>3d</fix>
</trkpt>
<trkpt lat="33.8106398" lon="-118.3938647">
  <ele>-14.07</ele>
  <time>2026-09-02T22:11:30Z</time>
  <course>246.75</course>
  <speed>0.0</speed>
  <fix>3d</fix>
</trkpt>
<trkpt lat="33.8106395" lon="-118.3938645">
  <ele>-14.581</ele>
  <time>2026-09-02T22:11:30Z</time>
  <course>25.96</course>
  <speed>0.03</speed>
  <fix>3d</fix>
</trkpt>
<trkpt lat="33.8106395" lon="-118.3938645">
  <ele>-14.621</ele>
  <time>2026-09-02T22:11:30Z</time>
  <course>25.97</course>
  <speed>0.03</speed>
  <fix>3d</fix>
</trkpt>
<trkpt lat="33.8106398" lon="-118.3938647">
  <ele>-14.07</ele>
  <time>2026-09-02T22:11:30Z</time>
  <course>246.75</course>
  <speed>0.0</speed>
  <fix>3d</fix>
</trkpt>
<trkpt lat="33.8106395" lon="-118.3938645">
  <ele>-14.643</ele>
  <time>2026-09-02T22:11:30Z</time>
  <course>25.97</course>
  <speed>0.03</speed>
  <fix>3d</fix>
</trkpt>
<trkpt lat="33.8106395" lon="-118.3938645">
  <ele>-14.683</ele>
  <time>2026-09-02T22:11:30Z</time>
  <course>25.98</course>
  <speed>0.03</speed>
  <fix>3d</fix>
</trkpt>
<trkpt lat="33.8106398" lon="-118.3938647">
  <ele>-14.19</ele>
  <time>2026-09-02T22:11:30Z</time>
  <course>246.71</course>
  <speed>0.0</speed>
  <fix>3d</fix>
</trkpt>
<trkpt lat="33.8106395" lon="-118.3938645">
  <ele>-14.704</ele>
  <time>2026-09-02T22:11:30Z</time>
  <course>25.98</course>
  <speed>0.03</speed>
  <fix>3d</fix>
</trkpt>
<trkpt lat="33.8106395" lon="-118.3938645">
  <ele>-14.745</ele>
  <time>2026-09-02T22:11:30Z</time>
  <course>25.99</course>
  <speed>0.03</speed>
  <fix>3d</fix>
</trkpt>
<trkpt lat="33.8106398" lon="-118.3938647">
  <ele>-14.19</ele>
  <time>2026-09-02T22:11:30Z</time>
  <course>246.71</course>
  <speed>0.0</speed>
  <fix>3d</fix>
</trkpt>
<trkpt lat="33.8106395" lon="-118.3938645">
  <ele>-14.765</ele>
  <time>2026-09-02T22:11:30Z</time>
  <course>25.99</course>
  <speed>0.03</speed>
  <fix>3d</fix>
</trkpt>
<trkpt lat="33.8106395" lon="-118.3938645">
  <ele>-14.806</ele>
  <time>2026-09-02T22:11:30Z</time>
  <course>26.0</course>
  <speed>0.03</speed>
  <fix>3d</fix>
</trkpt>
<trkpt lat="33.8106398" lon="-118.3938647">
  <ele>-14.3</ele>
  <time>2026-09-02T22:11:30Z</time>
  <course>246.67</course>
  <speed>0.0</speed>
  <fix>3d</fix>
</trkpt>
<trkpt lat="33.8106395" lon="-118.3938645">
  <ele>-14.828</ele>
  <time>2026-09-02T22:11:30Z</time>
  <course>26.0</course>
  <speed>0.03</speed>
  <fix>3d</fix>
</trkpt>
<trkpt lat="33.8106395" lon="-118.3938645">
  <ele>-14.868</ele>
  <time>2026-09-02T22:11:30Z</time>
  <course>26.01</course>
  <speed>0.03</speed>
  <fix>3d</fix>
</trkpt>
<trkpt lat="33.8106398" lon="-118.3938647">
  <ele>-14.3</ele>
  <time>2026-09-02T22:11:30Z</time>
  <course>246.67</course>
  <speed>0.0</speed>
  <fix>3d</fix>
</trkpt>
<trkpt lat="33.8106395" lon="-118.3938645">
  <ele>-14.888</ele>
  <time>2026-09-02T22:11:30Z</time>
  <course>26.01</course>
  <speed>0.03</speed>
  <fix>3d</fix>
</trkpt>
<trkpt lat="33.8106395" lon="-118.3938645">
  <ele>-14.93</ele>
  <time>2026-09-02T22:11:30Z</time>
  <course>26.02</course>
  <speed>0.03</speed>
  <fix>3d</fix>
</trkpt>
<trkpt lat="33.8106398" lon="-118.3938647">
  <ele>-14.43</ele>
  <time>2026-09-02T22:11:30Z</time>
  <course>246.65</course>
  <speed>0.0</speed>
  <fix>3d</fix>
</trkpt>
<trkpt lat="33.8106395" lon="-118.3938645">
  <ele>-14.952</ele>
  <time>2026-09-02T22:11:30Z</time>
  <course>26.02</course>
  <speed>0.03</speed>
  <fix>3d</fix>
</trkpt>
<trkpt lat="33.8106395" lon="-118.3938645">
  <ele>-14.991</ele>
  <time>2026-09-02T22:11:30Z</time>
  <course>26.03</course>
  <speed>0.03</speed>
  <fix>3d</fix>
</trkpt>
<trkpt lat="33.8106398" lon="-118.3938647">
  <ele>-14.43</ele>
  <time>2026-09-02T22:11:30Z</time>
  <course>246.65</course>
  <speed>0.0</speed>
  <fix>3d</fix>
</trkpt>
<trkpt lat="33.8106395" lon="-118.3938645">
  <ele>-15.011</ele>
  <time>2026-09-02T22:11:30Z</time>
  <course>26.03</course>
  <speed>0.03</speed>
  <fix>3d</fix>
</trkpt>
<trkpt lat="33.8106395" lon="-118.3938645">
  <ele>-15.052</ele>
  <time>2026-09-02T22:11:30Z</time>
  <course>26.04</course>
  <speed>0.03</speed>
  <fix>3d</fix>
</trkpt>
<trkpt lat="33.8106398" lon="-118.3938647">
  <ele>-14.54</ele>
  <time>2026-09-02T22:11:30Z</time>
  <course>246.65</course>
  <speed>0.0</speed>
  <fix>3d</fix>
</trkpt>
<trkpt lat="33.8106395" lon="-118.3938645">
  <ele>-15.074</ele>
  <time>2026-09-02T22:11:30Z</time>
  <course>26.04</course>
  <speed>0.03</speed>
  <fix>3d</fix>
</trkpt>
<trkpt lat="33.8106395" lon="-118.3938645">
  <ele>-15.113</ele>
  <time>2026-09-02T22:11:30Z</time>
  <course>26.05</course>
  <speed>0.03</speed>
  <fix>3d</fix>
</trkpt>
<trkpt lat="33.8106398" lon="-118.3938647">
  <ele>-14.54</ele>
  <time>2026-09-02T22:11:30Z</time>
  <course>246.65</course>
  <speed>0.0</speed>
  <fix>3d</fix>
</trkpt>
<trkpt lat="33.8106395" lon="-118.3938645">
  <ele>-15.115</ele>
  <time>2026-09-02T22:11:30Z</time>
  <course>26.05</course>
  <speed>0.03</speed>
  <fix>3d</fix>
</trkpt>
<trkpt lat="33.8106395" lon="-118.3938645">
  <ele>-15.175</ele>
  <time>2026-09-02T22:11:30Z</time>
  <course>26.06</course>
  <speed>0.03</speed>
  <fix>3d</fix>
</trkpt>
<trkpt lat="33.8106398" lon="-118.3938648">
  <ele>-14.67</ele>
  <time>2026-09-02T22:11:30Z</time>
  <course>246.66</course>
  <speed>0.0</speed>
  <fix>3d</fix>
</trkpt>
<trkpt lat="33.8106395" lon="-118.3938645">
  <ele>-15.176</ele>
  <time>2026-09-02T22:11:30Z</time>
  <course>26.06</course>
  <speed>0.03</speed>
  <fix>3d</fix>
</trkpt>
<trkpt lat="33.8106395" lon="-118.3938645">
  <ele>-15.237</ele>
  <time>2026-09-02T22:11:30Z</time>
  <course>26.07</course>
  <speed>0.03</speed>
  <fix>3d</fix>
</trkpt>
<trkpt lat="33.8106398" lon="-118.3938648">
  <ele>-14.67</ele>
  <time>2026-09-02T22:11:30Z</time>
  <course>246.66</course>
  <speed>0.0</speed>
  <fix>3d</fix>
</trkpt>
<trkpt lat="33.8106395" lon="-118.3938645">
  <ele>-15.26</ele>
  <time>2026-09-02T22:11:30Z</time>
  <course>26.08</course>
  <speed>0.03</speed>
  <fix>3d</fix>
</trkpt>
<trkpt lat="33.8106395" lon="-118.3938646">
  <ele>-15.299</ele>
  <time>2026-09-02T22:11:30Z</time>
  <course>26.08</course>
  <speed>0.03</speed>
  <fix>3d</fix>
</trkpt>
<trkpt lat="33.8106398" lon="-118.3938648">
  <ele>-14.79</ele>
  <time>2026-09-02T22:11:30Z</time>
  <course>246.66</course>
  <speed>0.0</speed>
  <fix>3d</fix>
</trkpt>
<trkpt lat="33.8106395" lon="-118.3938646">
  <ele>-15.319</ele>
  <time>2026-09-02T22:11:30Z</time>
  <course>26.08</course>
  <speed>0.03</speed>
  <fix>3d</fix>
</trkpt>
<trkpt lat="33.8106395" lon="-118.3938646">
  <ele>-15.359</ele>
  <time>2026-09-02T22:11:30Z</time>
  <course>26.09</course>
  <speed>0.03</speed>
  <fix>3d</fix>
</trkpt>
<trkpt lat="33.8106398" lon="-118.3938648">
  <ele>-14.79</ele>
  <time>2026-09-02T22:11:30Z</time>
  <course>246.66</course>
  <speed>0.0</speed>
  <fix>3d</fix>
</trkpt>
<trkpt lat="33.8106395" lon="-118.3938646">
  <ele>-15.379</ele>
  <time>2026-09-02T22:11:30Z</time>
  <course>26.1</course>
  <speed>0.03</speed>
  <fix>3d</fix>
</trkpt>
<trkpt lat="33.8106395" lon="-118.3938646">
  <ele>-15.42</ele>
  <time>2026-09-02T22:11:30Z</time>
  <course>26.1</course>
  <speed>0.03</speed>
  <fix>3d</fix>
</trkpt>
<trkpt lat="33.8106398" lon="-118.3938648">
  <ele>-14.91</ele>
  <time>2026-09-02T22:11:30Z</time>
  <course>246.63</course>
  <speed>0.0</speed>
  <fix>3d</fix>
</trkpt>
<trkpt lat="33.8106395" lon="-118.3938646">
  <ele>-15.439</ele>
  <time>2026-09-02T22:11:30Z</time>
  <course>26.11</course>
  <speed>0.03</speed>
  <fix>3d</fix>
</trkpt>
<trkpt lat="33.8106395" lon="-118.3938646">
  <ele>-15.481</ele>
  <time>2026-09-02T22:11:30Z</time>
  <course>26.11</course>
  <speed>0.03</speed>
  <fix>3d</fix>
</trkpt>
<trkpt lat="33.8106398" lon="-118.3938648">
  <ele>-14.91</ele>
  <time>2026-09-02T22:11:30Z</time>
  <course>246.63</course>
  <speed>0.0</speed>
  <fix>3d</fix>
</trkpt>
<trkpt lat="33.8106395" lon="-118.3938646">
  <ele>-15.502</ele>
  <time>2026-09-02T22:11:30Z</time>
  <course>26.12</course>
  <speed>0.03</speed>
  <fix>3d</fix>
</trkpt>
<trkpt lat="33.8106395" lon="-118.3938646">
  <ele>-15.542</ele>
  <time>2026-09-02T22:11:30Z</time>
  <course>26.12</course>
  <speed>0.03</speed>
  <fix>3d</fix>
</trkpt>
<trkpt lat="33.8106398" lon="-118.3938648">
  <ele>-15.04</ele>
  <time>2026-09-02T22:11:30Z</time>
  <course>246.59</course>
  <speed>0.0</speed>
  <fix>3d</fix>
</trkpt>
<trkpt lat="33.8106395" lon="-118.3938646">
  <ele>-15.563</ele>
  <time>2026-09-02T22:11:30Z</time>
  <course>26.13</course>
  <speed>0.03</speed>
  <fix>3d</fix>
</trkpt>
<trkpt lat="33.8106395" lon="-118.3938646">
  <ele>-15.604</ele>
  <time>2026-09-02T22:11:30Z</time>
  <course>26.13</course>
  <speed>0.03</speed>
  <fix>3d</fix>
</trkpt>
<trkpt lat="33.8106398" lon="-118.3938648">
  <ele>-15.04</ele>
  <time>2026-09-02T22:11:30Z</time>
  <course>246.59</course>
  <speed>0.0</speed>
  <fix>3d</fix>
</trkpt>
<trkpt lat="33.8106395" lon="-118.3938646">
  <ele>-15.624</ele>
  <time>2026-09-02T22:11:30Z</time>
  <course>26.14</course>
  <speed>0.03</speed>
  <fix>3d</fix>
</trkpt>
<trkpt lat="33.8106395" lon="-118.3938646">
  <ele>-15.667</ele>
  <time>2026-09-02T22:11:30Z</time>
  <course>26.14</course>
  <speed>0.03</speed>
  <fix>3d</fix>
</trkpt>
<trkpt lat="33.8106398" lon="-118.3938648">
  <ele>-15.16</ele>
  <time>2026-09-02T22:11:30Z</time>
  <course>246.55</course>
  <speed>0.0</speed>
  <fix>3d</fix>
</trkpt>
<trkpt lat="33.8106395" lon="-118.3938646">
  <ele>-15.689</ele>
  <time>2026-09-02T22:11:30Z</time>
  <course>26.15</course>
  <speed>0.03</speed>
  <fix>3d</fix>
</trkpt>
<trkpt lat="33.8106395" lon="-118.3938646">
  <ele>-15.73</ele>
  <time>2026-09-02T22:11:30Z</time>
  <course>26.15</course>
  <speed>0.03</speed>
  <fix>3d</fix>
</trkpt>
<trkpt lat="33.8106398" lon="-118.3938648">
  <ele>-15.16</ele>
  <time>2026-09-02T22:11:30Z</time>
  <course>246.55</course>
  <speed>0.0</speed>
  <fix>3d</fix>
</trkpt>
<trkpt lat="33.8106395" lon="-118.3938646">
  <ele>-15.751</ele>
  <time>2026-09-02T22:11:30Z</time>
  <course>26.16</course>
  <speed>0.03</speed>
  <fix>3d</fix>
</trkpt>
<trkpt lat="33.8106395" lon="-118.3938646">
  <ele>-15.792</ele>
  <time>2026-09-02T22:11:30Z</time>
  <course>26.16</course>
  <speed>0.03</speed>
  <fix>3d</fix>
</trkpt>
<trkpt lat="33.8106398" lon="-118.3938648">
  <ele>-15.28</ele>
  <time>2026-09-02T22:11:30Z</time>
  <course>246.54</course>
  <speed>0.0</speed>
  <fix>3d</fix>
</trkpt>
<trkpt lat="33.8106395" lon="-118.3938646">
  <ele>-15.794</ele>
  <time>2026-09-02T22:11:30Z</time>
  <course>26.16</course>
  <speed>0.03</speed>
  <fix>3d</fix>
</trkpt>
<trkpt lat="33.8106395" lon="-118.3938646">
  <ele>-15.855</ele>
  <time>2026-09-02T22:11:31Z</time>
  <course>26.17</course>
  <speed>0.03</speed>
  <fix>3d</fix>
</trkpt>
<trkpt lat="33.8106398" lon="-118.3938648">
  <ele>-15.28</ele>
  <time>2026-09-02T22:11:31Z</time>
  <course>246.54</course>
  <speed>0.0</speed>
  <fix>3d</fix>
</trkpt>
<trkpt lat="33.8106395" lon="-118.3938646">
  <ele>-15.875</ele>
  <time>2026-09-02T22:11:31Z</time>
  <course>26.18</course>
  <speed>0.03</speed>
  <fix>3d</fix>
</trkpt>
<trkpt lat="33.8106395" lon="-118.3938646">
  <ele>-15.917</ele>
  <time>2026-09-02T22:11:31Z</time>
  <course>26.18</course>
  <speed>0.03</speed>
  <fix>3d</fix>
</trkpt>
<trkpt lat="33.8106398" lon="-118.3938648">
  <ele>-15.4</ele>
  <time>2026-09-02T22:11:31Z</time>
  <course>246.55</course>
  <speed>0.0</speed>
  <fix>3d</fix>
</trkpt>
<trkpt lat="33.8106395" lon="-118.3938646">
  <ele>-15.937</ele>
  <time>2026-09-02T22:11:31Z</time>
  <course>26.19</course>
  <speed>0.03</speed>
  <fix>3d</fix>
</trkpt>
<trkpt lat="33.8106395" lon="-118.3938646">
  <ele>-15.979</ele>
  <time>2026-09-02T22:11:31Z</time>
  <course>26.19</course>
  <speed>0.03</speed>
  <fix>3d</fix>
</trkpt>
<trkpt lat="33.8106398" lon="-118.3938648">
  <ele>-15.4</ele>
  <time>2026-09-02T22:11:31Z</time>
  <course>246.55</course>
  <speed>0.0</speed>
  <fix>3d</fix>
</trkpt>
<trkpt lat="33.8106395" lon="-118.3938646">
  <ele>-15.98</ele>
  <time>2026-09-02T22:11:31Z</time>
  <course>26.19</course>
  <speed>0.03</speed>
  <fix>3d</fix>
</trkpt>
<trkpt lat="33.8106395" lon="-118.3938646">
  <ele>-16.041</ele>
  <time>2026-09-02T22:11:31Z</time>
  <course>26.2</course>
  <speed>0.03</speed>
  <fix>3d</fix>
</trkpt>
<trkpt lat="33.8106398" lon="-118.3938648">
  <ele>-15.52</ele>
  <time>2026-09-02T22:11:31Z</time>
  <course>246.56</course>
  <speed>0.0</speed>
  <fix>3d</fix>
</trkpt>
<trkpt lat="33.8106396" lon="-118.3938646">
  <ele>-16.061</ele>
  <time>2026-09-02T22:11:31Z</time>
  <course>26.21</course>
  <speed>0.03</speed>
  <fix>3d</fix>
</trkpt>
<trkpt lat="33.8106395" lon="-118.3938646">
  <ele>-16.104</ele>
  <time>2026-09-02T22:11:31Z</time>
  <course>26.21</course>
  <speed>0.03</speed>
  <fix>3d</fix>
</trkpt>
<trkpt lat="33.8106398" lon="-118.3938648">
  <ele>-15.52</ele>
  <time>2026-09-02T22:11:31Z</time>
  <course>246.56</course>
  <speed>0.0</speed>
  <fix>3d</fix>
</trkpt>
<trkpt lat="33.8106395" lon="-118.3938646">
  <ele>-16.126</ele>
  <time>2026-09-02T22:11:31Z</time>
  <course>26.22</course>
  <speed>0.03</speed>
  <fix>3d</fix>
</trkpt>
<trkpt lat="33.8106395" lon="-118.3938646">
  <ele>-16.166</ele>
  <time>2026-09-02T22:11:31Z</time>
  <course>26.22</course>
  <speed>0.03</speed>
  <fix>3d</fix>
</trkpt>
<trkpt lat="33.8106397" lon="-118.3938648">
  <ele>-15.63</ele>
  <time>2026-09-02T22:11:31Z</time>
  <course>246.55</course>
  <speed>0.0</speed>
  <fix>3d</fix>
</trkpt>
<trkpt lat="33.8106395" lon="-118.3938646">
  <ele>-16.187</ele>
  <time>2026-09-02T22:11:31Z</time>
  <course>26.23</course>
  <speed>0.03</speed>
  <fix>3d</fix>
</trkpt>
<trkpt lat="33.8106395" lon="-118.3938646">
  <ele>-16.23</ele>
  <time>2026-09-02T22:11:31Z</time>
  <course>26.23</course>
  <speed>0.03</speed>
  <fix>3d</fix>
</trkpt>
<trkpt lat="33.8106397" lon="-118.3938648">
  <ele>-15.63</ele>
  <time>2026-09-02T22:11:31Z</time>
  <course>246.55</course>
  <speed>0.0</speed>
  <fix>3d</fix>
</trkpt>
<trkpt lat="33.8106395" lon="-118.3938646">
  <ele>-16.252</ele>
  <time>2026-09-02T22:11:31Z</time>
  <course>26.24</course>
  <speed>0.03</speed>
  <fix>3d</fix>
</trkpt>
<trkpt lat="33.8106395" lon="-118.3938646">
  <ele>-16.292</ele>
  <time>2026-09-02T22:11:31Z</time>
  <course>26.24</course>
  <speed>0.03</speed>
  <fix>3d</fix>
</trkpt>
<trkpt lat="33.8106396" lon="-118.3938649">
  <ele>-15.76</ele>
  <time>2026-09-02T22:11:31Z</time>
  <course>246.51</course>
  <speed>0.0</speed>
  <fix>3d</fix>
</trkpt>
<trkpt lat="33.8106395" lon="-118.3938646">
  <ele>-16.312</ele>
  <time>2026-09-02T22:11:31Z</time>
  <course>26.25</course>
  <speed>0.03</speed>
  <fix>3d</fix>
</trkpt>
<trkpt lat="33.8106395" lon="-118.3938646">
  <ele>-16.355</ele>
  <time>2026-09-02T22:11:31Z</time>
  <course>26.25</course>
  <speed>0.03</speed>
  <fix>3d</fix>
</trkpt>
<trkpt lat="33.8106396" lon="-118.3938649">
  <ele>-15.76</ele>
  <time>2026-09-02T22:11:31Z</time>
  <course>246.51</course>
  <speed>0.0</speed>
  <fix>3d</fix>
</trkpt>
<trkpt lat="33.8106395" lon="-118.3938647">
  <ele>-16.376</ele>
  <time>2026-09-02T22:11:31Z</time>
  <course>26.26</course>
  <speed>0.03</speed>
  <fix>3d</fix>
</trkpt>
<trkpt lat="33.8106395" lon="-118.3938647">
  <ele>-16.419</ele>
  <time>2026-09-02T22:11:31Z</time>
  <course>26.26</course>
  <speed>0.03</speed>
  <fix>3d</fix>
</trkpt>
<trkpt lat="33.8106396" lon="-118.3938649">
  <ele>-15.87</ele>
  <time>2026-09-02T22:11:31Z</time>
  <course>246.47</course>
  <speed>0.0</speed>
  <fix>3d</fix>
</trkpt>
<trkpt lat="33.8106395" lon="-118.3938647">
  <ele>-16.42</ele>
  <time>2026-09-02T22:11:31Z</time>
  <course>26.26</course>
  <speed>0.03</speed>
  <fix>3d</fix>
</trkpt>
<trkpt lat="33.8106395" lon="-118.3938647">
  <ele>-16.482</ele>
  <time>2026-09-02T22:11:31Z</time>
  <course>26.27</course>
  <speed>0.03</speed>
  <fix>3d</fix>
</trkpt>
<trkpt lat="33.8106396" lon="-118.3938649">
  <ele>-15.87</ele>
  <time>2026-09-02T22:11:31Z</time>
  <course>246.47</course>
  <speed>0.0</speed>
  <fix>3d</fix>
</trkpt>
<trkpt lat="33.8106395" lon="-118.3938647">
  <ele>-16.504</ele>
  <time>2026-09-02T22:11:31Z</time>
  <course>26.28</course>
  <speed>0.03</speed>
  <fix>3d</fix>
</trkpt>
<trkpt lat="33.8106395" lon="-118.3938647">
  <ele>-16.546</ele>
  <time>2026-09-02T22:11:31Z</time>
  <course>26.28</course>
  <speed>0.03</speed>
  <fix>3d</fix>
</trkpt>
<trkpt lat="33.8106396" lon="-118.3938649">
  <ele>-16.0</ele>
  <time>2026-09-02T22:11:31Z</time>
  <course>246.45</course>
  <speed>0.0</speed>
  <fix>3d</fix>
</trkpt>
<trkpt lat="33.8106395" lon="-118.3938647">
  <ele>-16.567</ele>
  <time>2026-09-02T22:11:31Z</time>
  <course>26.29</course>
  <speed>0.03</speed>
  <fix>3d</fix>
</trkpt>
<trkpt lat="33.8106395" lon="-118.3938647">
  <ele>-16.611</ele>
  <time>2026-09-02T22:11:31Z</time>
  <course>26.29</course>
  <speed>0.03</speed>
  <fix>3d</fix>
</trkpt>
<trkpt lat="33.8106396" lon="-118.3938649">
  <ele>-16.0</ele>
  <time>2026-09-02T22:11:31Z</time>
  <course>246.45</course>
  <speed>0.0</speed>
  <fix>3d</fix>
</trkpt>
<trkpt lat="33.8106395" lon="-118.3938647">
  <ele>-16.634</ele>
  <time>2026-09-02T22:11:31Z</time>
  <course>26.3</course>
  <speed>0.03</speed>
  <fix>3d</fix>
</trkpt>
<trkpt lat="33.8106395" lon="-118.3938647">
  <ele>-16.675</ele>
  <time>2026-09-02T22:11:31Z</time>
  <course>26.3</course>
  <speed>0.03</speed>
  <fix>3d</fix>
</trkpt>
<trkpt lat="33.8106396" lon="-118.3938649">
  <ele>-16.11</ele>
  <time>2026-09-02T22:11:31Z</time>
  <course>246.44</course>
  <speed>0.0</speed>
  <fix>3d</fix>
</trkpt>
<trkpt lat="33.8106395" lon="-118.3938647">
  <ele>-16.677</ele>
  <time>2026-09-02T22:11:31Z</time>
  <course>26.3</course>
  <speed>0.03</speed>
  <fix>3d</fix>
</trkpt>
<trkpt lat="33.8106395" lon="-118.3938647">
  <ele>-16.74</ele>
  <time>2026-09-02T22:11:31Z</time>
  <course>26.31</course>
  <speed>0.03</speed>
  <fix>3d</fix>
</trkpt>
<trkpt lat="33.8106396" lon="-118.3938649">
  <ele>-16.11</ele>
  <time>2026-09-02T22:11:31Z</time>
  <course>246.44</course>
  <speed>0.0</speed>
  <fix>3d</fix>
</trkpt>
<trkpt lat="33.8106395" lon="-118.3938647">
  <ele>-16.741</ele>
  <time>2026-09-02T22:11:31Z</time>
  <course>26.31</course>
  <speed>0.03</speed>
  <fix>3d</fix>
</trkpt>
<trkpt lat="33.8106394" lon="-118.3938647">
  <ele>-16.804</ele>
  <time>2026-09-02T22:11:31Z</time>
  <course>26.32</course>
  <speed>0.03</speed>
  <fix>3d</fix>
</trkpt>
<trkpt lat="33.8106396" lon="-118.3938649">
  <ele>-16.24</ele>
  <time>2026-09-02T22:11:31Z</time>
  <course>246.45</course>
  <speed>0.0</speed>
  <fix>3d</fix>
</trkpt>
<trkpt lat="33.8106394" lon="-118.3938647">
  <ele>-16.827</ele>
  <time>2026-09-02T22:11:31Z</time>
  <course>26.32</course>
  <speed>0.03</speed>
  <fix>3d</fix>
</trkpt>
<trkpt lat="33.8106394" lon="-118.3938647">
  <ele>-16.868</ele>
  <time>2026-09-02T22:11:31Z</time>
  <course>26.33</course>
  <speed>0.03</speed>
  <fix>3d</fix>
</trkpt>
<trkpt lat="33.8106396" lon="-118.3938649">
  <ele>-16.24</ele>
  <time>2026-09-02T22:11:31Z</time>
  <course>246.45</course>
  <speed>0.0</speed>
  <fix>3d</fix>
</trkpt>
<trkpt lat="33.8106394" lon="-118.3938647">
  <ele>-16.888</ele>
  <time>2026-09-02T22:11:31Z</time>
  <course>26.33</course>
  <speed>0.03</speed>
  <fix>3d</fix>
</trkpt>
<trkpt lat="33.8106394" lon="-118.3938647">
  <ele>-16.93</ele>
  <time>2026-09-02T22:11:31Z</time>
  <course>26.34</course>
  <speed>0.03</speed>
  <fix>3d</fix>
</trkpt>
<trkpt lat="33.8106396" lon="-118.3938649">
  <ele>-16.36</ele>
  <time>2026-09-02T22:11:31Z</time>
  <course>246.46</course>
  <speed>0.0</speed>
  <fix>3d</fix>
</trkpt>
<trkpt lat="33.8106394" lon="-118.3938647">
  <ele>-16.946</ele>
  <time>2026-09-02T22:11:31Z</time>
  <course>26.34</course>
  <speed>0.03</speed>
  <fix>3d</fix>
</trkpt>
<trkpt lat="33.8106394" lon="-118.3938647">
  <ele>-16.992</ele>
  <time>2026-09-02T22:11:31Z</time>
  <course>26.35</course>
  <speed>0.03</speed>
  <fix>3d</fix>
</trkpt>
<trkpt lat="33.8106396" lon="-118.3938649">
  <ele>-16.36</ele>
  <time>2026-09-02T22:11:31Z</time>
  <course>246.46</course>
  <speed>0.0</speed>
  <fix>3d</fix>
</trkpt>
<trkpt lat="33.8106394" lon="-118.3938647">
  <ele>-17.012</ele>
  <time>2026-09-02T22:11:31Z</time>
  <course>26.35</course>
  <speed>0.03</speed>
  <fix>3d</fix>
</trkpt>
<trkpt lat="33.8106394" lon="-118.3938647">
  <ele>-17.054</ele>
  <time>2026-09-02T22:11:31Z</time>
  <course>26.36</course>
  <speed>0.03</speed>
  <fix>3d</fix>
</trkpt>
<trkpt lat="33.8106396" lon="-118.3938649">
  <ele>-16.48</ele>
  <time>2026-09-02T22:11:31Z</time>
  <course>246.44</course>
  <speed>0.0</speed>
  <fix>3d</fix>
</trkpt>
<trkpt lat="33.8106394" lon="-118.3938647">
  <ele>-17.074</ele>
  <time>2026-09-02T22:11:31Z</time>
  <course>26.36</course>
  <speed>0.03</speed>
  <fix>3d</fix>
</trkpt>
<trkpt lat="33.8106394" lon="-118.3938647">
  <ele>-17.115</ele>
  <time>2026-09-02T22:11:31Z</time>
  <course>26.37</course>
  <speed>0.03</speed>
  <fix>3d</fix>
</trkpt>
<trkpt lat="33.8106396" lon="-118.3938649">
  <ele>-16.48</ele>
  <time>2026-09-02T22:11:31Z</time>
  <course>246.44</course>
  <speed>0.0</speed>
  <fix>3d</fix>
</trkpt>
<trkpt lat="33.8106394" lon="-118.3938647">
  <ele>-17.116</ele>
  <time>2026-09-02T22:11:31Z</time>
  <course>26.37</course>
  <speed>0.03</speed>
  <fix>3d</fix>
</trkpt>
<trkpt lat="33.8106394" lon="-118.3938647">
  <ele>-17.176</ele>
  <time>2026-09-02T22:11:31Z</time>
  <course>26.38</course>
  <speed>0.03</speed>
  <fix>3d</fix>
</trkpt>
<trkpt lat="33.8106396" lon="-118.3938649">
  <ele>-16.6</ele>
  <time>2026-09-02T22:11:31Z</time>
  <course>246.41</course>
  <speed>0.0</speed>
  <fix>3d</fix>
</trkpt>
<trkpt lat="33.8106394" lon="-118.3938647">
  <ele>-17.197</ele>
  <time>2026-09-02T22:11:31Z</time>
  <course>26.38</course>
  <speed>0.03</speed>
  <fix>3d</fix>
</trkpt>
<trkpt lat="33.8106394" lon="-118.3938647">
  <ele>-17.237</ele>
  <time>2026-09-02T22:11:31Z</time>
  <course>26.39</course>
  <speed>0.03</speed>
  <fix>3d</fix>
</trkpt>
<trkpt lat="33.8106396" lon="-118.3938649">
  <ele>-16.6</ele>
  <time>2026-09-02T22:11:31Z</time>
  <course>246.41</course>
  <speed>0.0</speed>
  <fix>3d</fix>
</trkpt>
<trkpt lat="33.8106394" lon="-118.3938647">
  <ele>-17.257</ele>
  <time>2026-09-02T22:11:31Z</time>
  <course>26.39</course>
  <speed>0.03</speed>
  <fix>3d</fix>
</trkpt>
<trkpt lat="33.8106394" lon="-118.3938647">
  <ele>-17.299</ele>
  <time>2026-09-02T22:11:31Z</time>
  <course>26.4</course>
  <speed>0.03</speed>
  <fix>3d</fix>
</trkpt>
<trkpt lat="33.8106396" lon="-118.3938649">
  <ele>-16.72</ele>
  <time>2026-09-02T22:11:31Z</time>
  <course>246.37</course>
  <speed>0.0</speed>
  <fix>3d</fix>
</trkpt>
<trkpt lat="33.8106394" lon="-118.3938647">
  <ele>-17.32</ele>
  <time>2026-09-02T22:11:31Z</time>
  <course>26.4</course>
  <speed>0.03</speed>
  <fix>3d</fix>
</trkpt>
<trkpt lat="33.8106394" lon="-118.3938647">
  <ele>-17.36</ele>
  <time>2026-09-02T22:11:31Z</time>
  <course>26.41</course>
  <speed>0.03</speed>
  <fix>3d</fix>
</trkpt>
<trkpt lat="33.8106396" lon="-118.3938649">
  <ele>-16.72</ele>
  <time>2026-09-02T22:11:31Z</time>
  <course>246.37</course>
  <speed>0.0</speed>
  <fix>3d</fix>
</trkpt>
<trkpt lat="33.8106394" lon="-118.3938647">
  <ele>-17.38</ele>
  <time>2026-09-02T22:11:31Z</time>
  <course>26.41</course>
  <speed>0.0316227766016838</speed>
  <fix>3d</fix>
</trkpt>
<trkpt lat="33.8106394" lon="-118.3938647">
  <ele>-17.422</ele>
  <time>2026-09-02T22:11:31Z</time>
  <course>26.42</course>
  <speed>0.0316227766016838</speed>
  <fix>3d</fix>
</trkpt>
<trkpt lat="33.8106396" lon="-118.393865">
  <ele>-16.85</ele>
  <time>2026-09-02T22:11:31Z</time>
  <course>246.35</course>
  <speed>0.0</speed>
  <fix>3d</fix>
</trkpt>
<trkpt lat="33.8106394" lon="-118.3938647">
  <ele>-17.443</ele>
  <time>2026-09-02T22:11:31Z</time>
  <course>26.42</course>
  <speed>0.03</speed>
  <fix>3d</fix>
</trkpt>
<trkpt lat="33.8106394" lon="-118.3938647">
  <ele>-17.483</ele>
  <time>2026-09-02T22:11:31Z</time>
  <course>26.43</course>
  <speed>0.0316227766016838</speed>
  <fix>3d</fix>
</trkpt>
<trkpt lat="33.8106396" lon="-118.393865">
  <ele>-16.85</ele>
  <time>2026-09-02T22:11:31Z</time>
  <course>246.35</course>
  <speed>0.0</speed>
  <fix>3d</fix>
</trkpt>
<trkpt lat="33.8106394" lon="-118.3938647">
  <ele>-17.504</ele>
  <time>2026-09-02T22:11:31Z</time>
  <course>26.43</course>
  <speed>0.0316227766016838</speed>
  <fix>3d</fix>
</trkpt>
<trkpt lat="33.8106394" lon="-118.3938647">
  <ele>-17.545</ele>
  <time>2026-09-02T22:11:31Z</time>
  <course>26.44</course>
  <speed>0.03</speed>
  <fix>3d</fix>
</trkpt>
<trkpt lat="33.8106396" lon="-118.393865">
  <ele>-16.97</ele>
  <time>2026-09-02T22:11:31Z</time>
  <course>246.36</course>
  <speed>0.0</speed>
  <fix>3d</fix>
</trkpt>
<trkpt lat="33.8106394" lon="-118.3938648">
  <ele>-17.547</ele>
  <time>2026-09-02T22:11:31Z</time>
  <course>26.44</course>
  <speed>0.03</speed>
  <fix>3d</fix>
</trkpt>
<trkpt lat="33.8106394" lon="-118.3938648">
  <ele>-17.606</ele>
  <time>2026-09-02T22:11:31Z</time>
  <course>26.45</course>
  <speed>0.03</speed>
  <fix>3d</fix>
</trkpt>
<trkpt lat="33.8106396" lon="-118.393865">
  <ele>-16.97</ele>
  <time>2026-09-02T22:11:31Z</time>
  <course>246.36</course>
  <speed>0.0</speed>
  <fix>3d</fix>
</trkpt>
<trkpt lat="33.8106393" lon="-118.3938648">
  <ele>-17.626</ele>
  <time>2026-09-02T22:11:31Z</time>
  <course>26.45</course>
  <speed>0.03</speed>
  <fix>3d</fix>
</trkpt>
<trkpt lat="33.8106393" lon="-118.3938648">
  <ele>-17.668</ele>
  <time>2026-09-02T22:11:31Z</time>
  <course>26.46</course>
  <speed>0.03</speed>
  <fix>3d</fix>
</trkpt>
<trkpt lat="33.8106396" lon="-118.393865">
  <ele>-17.09</ele>
  <time>2026-09-02T22:11:31Z</time>
  <course>246.37</course>
  <speed>0.0</speed>
  <fix>3d</fix>
</trkpt>
<trkpt lat="33.8106393" lon="-118.3938648">
  <ele>-17.687</ele>
  <time>2026-09-02T22:11:31Z</time>
  <course>26.46</course>
  <speed>0.03</speed>
  <fix>3d</fix>
</trkpt>
<trkpt lat="33.8106393" lon="-118.3938648">
  <ele>-17.728</ele>
  <time>2026-09-02T22:11:31Z</time>
  <course>26.47</course>
  <speed>0.03</speed>
  <fix>3d</fix>
</trkpt>
<trkpt lat="33.8106396" lon="-118.393865">
  <ele>-17.09</ele>
  <time>2026-09-02T22:11:31Z</time>
  <course>246.37</course>
  <speed>0.0</speed>
  <fix>3d</fix>
</trkpt>
<trkpt lat="33.8106393" lon="-118.3938648">
  <ele>-17.729</ele>
  <time>2026-09-02T22:11:31Z</time>
  <course>26.47</course>
  <speed>0.03</speed>
  <fix>3d</fix>
</trkpt>
<trkpt lat="33.8106393" lon="-118.3938648">
  <ele>-17.789</ele>
  <time>2026-09-02T22:11:31Z</time>
  <course>26.48</course>
  <speed>0.03</speed>
  <fix>3d</fix>
</trkpt>
<trkpt lat="33.8106396" lon="-118.393865">
  <ele>-17.21</ele>
  <time>2026-09-02T22:11:31Z</time>
  <course>246.37</course>
  <speed>0.0</speed>
  <fix>3d</fix>
</trkpt>
<trkpt lat="33.8106393" lon="-118.3938648">
  <ele>-17.81</ele>
  <time>2026-09-02T22:11:31Z</time>
  <course>26.48</course>
  <speed>0.03</speed>
  <fix>3d</fix>
</trkpt>
<trkpt lat="33.8106393" lon="-118.3938648">
  <ele>-17.849</ele>
  <time>2026-09-02T22:11:31Z</time>
  <course>26.49</course>
  <speed>0.03</speed>
  <fix>3d</fix>
</trkpt>
<trkpt lat="33.8106396" lon="-118.393865">
  <ele>-17.21</ele>
  <time>2026-09-02T22:11:31Z</time>
  <course>246.37</course>
  <speed>0.0</speed>
  <fix>3d</fix>
</trkpt>
<trkpt lat="33.8106393" lon="-118.3938648">
  <ele>-17.869</ele>
  <time>2026-09-02T22:11:31Z</time>
  <course>26.49</course>
  <speed>0.03</speed>
  <fix>3d</fix>
</trkpt>
<trkpt lat="33.8106393" lon="-118.3938648">
  <ele>-17.91</ele>
  <time>2026-09-02T22:11:31Z</time>
  <course>26.5</course>
  <speed>0.03</speed>
  <fix>3d</fix>
</trkpt>
<trkpt lat="33.8106396" lon="-118.393865">
  <ele>-17.33</ele>
  <time>2026-09-02T22:11:31Z</time>
  <course>246.34</course>
  <speed>0.0</speed>
  <fix>3d</fix>
</trkpt>
<trkpt lat="33.8106393" lon="-118.3938648">
  <ele>-17.932</ele>
  <time>2026-09-02T22:11:31Z</time>
  <course>26.5</course>
  <speed>0.03</speed>
  <fix>3d</fix>
</trkpt>
<trkpt lat="33.8106393" lon="-118.3938648">
  <ele>-17.972</ele>
  <time>2026-09-02T22:11:31Z</time>
  <course>26.51</course>
  <speed>0.03</speed>
  <fix>3d</fix>
</trkpt>
<trkpt lat="33.8106396" lon="-118.393865">
  <ele>-17.33</ele>
  <time>2026-09-02T22:11:31Z</time>
  <course>246.34</course>
  <speed>0.0</speed>
  <fix>3d</fix>
</trkpt>
<trkpt lat="33.8106393" lon="-118.3938648">
  <ele>-17.993</ele>
  <time>2026-09-02T22:11:31Z</time>
  <course>26.51</course>
  <speed>0.03</speed>
  <fix>3d</fix>
</trkpt>
<trkpt lat="33.8106393" lon="-118.3938648">
  <ele>-18.034</ele>
  <time>2026-09-02T22:11:31Z</time>
  <course>26.52</course>
  <speed>0.03</speed>
  <fix>3d</fix>
</trkpt>
<trkpt lat="33.8106396" lon="-118.393865">
  <ele>-17.45</ele>
  <time>2026-09-02T22:11:31Z</time>
  <course>246.31</course>
  <speed>0.0</speed>
  <fix>3d</fix>
</trkpt>
<trkpt lat="33.8106393" lon="-118.3938648">
  <ele>-18.056</ele>
  <time>2026-09-02T22:11:31Z</time>
  <course>26.52</course>
  <speed>0.03</speed>
  <fix>3d</fix>
</trkpt>
<trkpt lat="33.8106393" lon="-118.3938648">
  <ele>-18.097</ele>
  <time>2026-09-02T22:11:31Z</time>
  <course>26.53</course>
  <speed>0.03</speed>
  <fix>3d</fix>
</trkpt>
<trkpt lat="33.8106396" lon="-118.393865">
  <ele>-17.45</ele>
  <time>2026-09-02T22:11:31Z</time>
  <course>246.31</course>
  <speed>0.0</speed>
  <fix>3d</fix>
</trkpt>
<trkpt lat="33.8106393" lon="-118.3938648">
  <ele>-18.117</ele>
  <time>2026-09-02T22:11:31Z</time>
  <course>26.53</course>
  <speed>0.03</speed>
  <fix>3d</fix>
</trkpt>
<trkpt lat="33.8106393" lon="-118.3938648">
  <ele>-18.159</ele>
  <time>2026-09-02T22:11:31Z</time>
  <course>26.54</course>
  <speed>0.03</speed>
  <fix>3d</fix>
</trkpt>
<trkpt lat="33.8106396" lon="-118.393865">
  <ele>-17.57</ele>
  <time>2026-09-02T22:11:31Z</time>
  <course>246.28</course>
  <speed>0.0</speed>
  <fix>3d</fix>
</trkpt>
<trkpt lat="33.8106393" lon="-118.3938648">
  <ele>-18.18</ele>
  <time>2026-09-02T22:11:31Z</time>
  <course>26.54</course>
  <speed>0.03</speed>
  <fix>3d</fix>
</trkpt>
<trkpt lat="33.8106393" lon="-118.3938648">
  <ele>-18.22</ele>
  <time>2026-09-02T22:11:31Z</time>
  <course>26.55</course>
  <speed>0.03</speed>
  <fix>3d</fix>
</trkpt>
<trkpt lat="33.8106396" lon="-118.393865">
  <ele>-17.57</ele>
  <time>2026-09-02T22:11:31Z</time>
  <course>246.28</course>
  <speed>0.0</speed>
  <fix>3d</fix>
</trkpt>
<trkpt lat="33.8106393" lon="-118.3938648">
  <ele>-18.221</ele>
  <time>2026-09-02T22:11:31Z</time>
  <course>26.55</course>
  <speed>0.03</speed>
  <fix>3d</fix>
</trkpt>
<trkpt lat="33.8106393" lon="-118.3938648">
  <ele>-18.281</ele>
  <time>2026-09-02T22:11:31Z</time>
  <course>26.56</course>
  <speed>0.03</speed>
  <fix>3d</fix>
</trkpt>
<trkpt lat="33.8106396" lon="-118.393865">
  <ele>-17.68</ele>
  <time>2026-09-02T22:11:31Z</time>
  <course>246.27</course>
  <speed>0.0</speed>
  <fix>3d</fix>
</trkpt>
<trkpt lat="33.8106393" lon="-118.3938648">
  <ele>-18.282</ele>
  <time>2026-09-02T22:11:31Z</time>
  <course>26.56</course>
  <speed>0.03</speed>
  <fix>3d</fix>
</trkpt>
<trkpt lat="33.8106393" lon="-118.3938648">
  <ele>-18.342</ele>
  <time>2026-09-02T22:11:31Z</time>
  <course>26.57</course>
  <speed>0.0316227766016838</speed>
  <fix>3d</fix>
</trkpt>
<trkpt lat="33.8106396" lon="-118.393865">
  <ele>-17.68</ele>
  <time>2026-09-02T22:11:31Z</time>
  <course>246.27</course>
  <speed>0.0</speed>
  <fix>3d</fix>
</trkpt>
<trkpt lat="33.8106393" lon="-118.3938648">
  <ele>-18.364</ele>
  <time>2026-09-02T22:11:31Z</time>
  <course>26.57</course>
  <speed>0.0316227766016838</speed>
  <fix>3d</fix>
</trkpt>
<trkpt lat="33.8106393" lon="-118.3938648">
  <ele>-18.404</ele>
  <time>2026-09-02T22:11:31Z</time>
  <course>26.58</course>
  <speed>0.0316227766016838</speed>
  <fix>3d</fix>
</trkpt>
<trkpt lat="33.8106396" lon="-118.393865">
  <ele>-17.81</ele>
  <time>2026-09-02T22:11:31Z</time>
  <course>246.28</course>
  <speed>0.0</speed>
  <fix>3d</fix>
</trkpt>
<trkpt lat="33.8106393" lon="-118.3938648">
  <ele>-18.405</ele>
  <time>2026-09-02T22:11:31Z</time>
  <course>26.58</course>
  <speed>0.0316227766016838</speed>
  <fix>3d</fix>
</trkpt>
<trkpt lat="33.8106393" lon="-118.3938648">
  <ele>-18.465</ele>
  <time>2026-09-02T22:11:31Z</time>
  <course>26.59</course>
  <speed>0.0316227766016838</speed>
  <fix>3d</fix>
</trkpt>
<trkpt lat="33.8106396" lon="-118.393865">
  <ele>-17.81</ele>
  <time>2026-09-02T22:11:31Z</time>
  <course>246.28</course>
  <speed>0.0</speed>
  <fix>3d</fix>
</trkpt>
<trkpt lat="33.8106393" lon="-118.3938648">
  <ele>-18.485</ele>
  <time>2026-09-02T22:11:31Z</time>
  <course>26.59</course>
  <speed>0.0316227766016838</speed>
  <fix>3d</fix>
</trkpt>
<trkpt lat="33.8106393" lon="-118.3938648">
  <ele>-18.526</ele>
  <time>2026-09-02T22:11:31Z</time>
  <course>26.6</course>
  <speed>0.0316227766016838</speed>
  <fix>3d</fix>
</trkpt>
<trkpt lat="33.8106396" lon="-118.393865">
  <ele>-17.93</ele>
  <time>2026-09-02T22:11:31Z</time>
  <course>246.29</course>
  <speed>0.0</speed>
  <fix>3d</fix>
</trkpt>
<trkpt lat="33.8106393" lon="-118.3938648">
  <ele>-18.547</ele>
  <time>2026-09-02T22:11:31Z</time>
  <course>26.6</course>
  <speed>0.0316227766016838</speed>
  <fix>3d</fix>
</trkpt>
<trkpt lat="33.8106393" lon="-118.3938648">
  <ele>-18.588</ele>
  <time>2026-09-02T22:11:31Z</time>
  <course>26.6</course>
  <speed>0.0316227766016838</speed>
  <fix>3d</fix>
</trkpt>
<trkpt lat="33.8106396" lon="-118.393865">
  <ele>-17.93</ele>
  <time>2026-09-02T22:11:31Z</time>
  <course>246.29</course>
  <speed>0.0</speed>
  <fix>3d</fix>
</trkpt>
<trkpt lat="33.8106393" lon="-118.3938648">
  <ele>-18.609</ele>
  <time>2026-09-02T22:11:31Z</time>
  <course>26.61</course>
  <speed>0.0316227766016838</speed>
  <fix>3d</fix>
</trkpt>
<trkpt lat="33.8106393" lon="-118.3938648">
  <ele>-18.649</ele>
  <time>2026-09-02T22:11:31Z</time>
  <course>26.61</course>
  <speed>0.0316227766016838</speed>
  <fix>3d</fix>
</trkpt>
<trkpt lat="33.8106396" lon="-118.3938651">
  <ele>-18.05</ele>
  <time>2026-09-02T22:11:31Z</time>
  <course>246.28</course>
  <speed>0.0</speed>
  <fix>3d</fix>
</trkpt>
<trkpt lat="33.8106393" lon="-118.3938648">
  <ele>-18.671</ele>
  <time>2026-09-02T22:11:31Z</time>
  <course>26.62</course>
  <speed>0.0316227766016838</speed>
  <fix>3d</fix>
</trkpt>
<trkpt lat="33.8106393" lon="-118.3938648">
  <ele>-18.71</ele>
  <time>2026-09-02T22:11:31Z</time>
  <course>26.62</course>
  <speed>0.0316227766016838</speed>
  <fix>3d</fix>
</trkpt>
<trkpt lat="33.8106396" lon="-118.3938651">
  <ele>-18.05</ele>
  <time>2026-09-02T22:11:31Z</time>
  <course>246.28</course>
  <speed>0.0</speed>
  <fix>3d</fix>
</trkpt>
<trkpt lat="33.8106393" lon="-118.3938648">
  <ele>-18.731</ele>
  <time>2026-09-02T22:11:31Z</time>
  <course>26.63</course>
  <speed>0.0316227766016838</speed>
  <fix>3d</fix>
</trkpt>
<trkpt lat="33.8106393" lon="-118.3938648">
  <ele>-18.771</ele>
  <time>2026-09-02T22:11:31Z</time>
  <course>26.63</course>
  <speed>0.0316227766016838</speed>
  <fix>3d</fix>
</trkpt>
<trkpt lat="33.8106396" lon="-118.3938651">
  <ele>-18.17</ele>
  <time>2026-09-02T22:11:31Z</time>
  <course>246.25</course>
  <speed>0.0</speed>
  <fix>3d</fix>
</trkpt>
<trkpt lat="33.8106393" lon="-118.3938649">
  <ele>-18.792</ele>
  <time>2026-09-02T22:11:31Z</time>
  <course>26.64</course>
  <speed>0.0316227766016838</speed>
  <fix>3d</fix>
</trkpt>
<trkpt lat="33.8106393" lon="-118.3938649">
  <ele>-18.834</ele>
  <time>2026-09-02T22:11:31Z</time>
  <course>26.64</course>
  <speed>0.0316227766016838</speed>
  <fix>3d</fix>
</trkpt>
<trkpt lat="33.8106396" lon="-118.3938651">
  <ele>-18.17</ele>
  <time>2026-09-02T22:11:31Z</time>
  <course>246.25</course>
  <speed>0.0</speed>
  <fix>3d</fix>
</trkpt>
<trkpt lat="33.8106393" lon="-118.3938649">
  <ele>-18.856</ele>
  <time>2026-09-02T22:11:31Z</time>
  <course>26.65</course>
  <speed>0.0316227766016838</speed>
  <fix>3d</fix>
</trkpt>
<trkpt lat="33.8106393" lon="-118.3938649">
  <ele>-18.896</ele>
  <time>2026-09-02T22:11:31Z</time>
  <course>26.65</course>
  <speed>0.0316227766016838</speed>
  <fix>3d</fix>
</trkpt>
<trkpt lat="33.8106396" lon="-118.3938651">
  <ele>-18.29</ele>
  <time>2026-09-02T22:11:31Z</time>
  <course>246.21</course>
  <speed>0.0</speed>
  <fix>3d</fix>
</trkpt>
<trkpt lat="33.8106393" lon="-118.3938649">
  <ele>-18.918</ele>
  <time>2026-09-02T22:11:31Z</time>
  <course>26.66</course>
  <speed>0.0316227766016838</speed>
  <fix>3d</fix>
</trkpt>
<trkpt lat="33.8106393" lon="-118.3938649">
  <ele>-18.958</ele>
  <time>2026-09-02T22:11:31Z</time>
  <course>26.66</course>
  <speed>0.0316227766016838</speed>
  <fix>3d</fix>
</trkpt>
<trkpt lat="33.8106396" lon="-118.3938651">
  <ele>-18.29</ele>
  <time>2026-09-02T22:11:31Z</time>
  <course>246.21</course>
  <speed>0.0</speed>
  <fix>3d</fix>
</trkpt>
<trkpt lat="33.8106393" lon="-118.3938649">
  <ele>-18.981</ele>
  <time>2026-09-02T22:11:31Z</time>
  <course>26.67</course>
  <speed>0.0316227766016838</speed>
  <fix>3d</fix>
</trkpt>
<trkpt lat="33.8106393" lon="-118.3938649">
  <ele>-19.019</ele>
  <time>2026-09-02T22:11:31Z</time>
  <course>26.67</course>
  <speed>0.0316227766016838</speed>
  <fix>3d</fix>
</trkpt>
<trkpt lat="33.8106396" lon="-118.3938651">
  <ele>-18.41</ele>
  <time>2026-09-02T22:11:31Z</time>
  <course>246.19</course>
  <speed>0.0</speed>
  <fix>3d</fix>
</trkpt>
<trkpt lat="33.8106393" lon="-118.3938649">
  <ele>-19.022</ele>
  <time>2026-09-02T22:11:31Z</time>
  <course>26.67</course>
  <speed>0.0316227766016838</speed>
  <fix>3d</fix>
</trkpt>
<trkpt lat="33.8106393" lon="-118.3938649">
  <ele>-19.081</ele>
  <time>2026-09-02T22:11:31Z</time>
  <course>26.68</course>
  <speed>0.03</speed>
  <fix>3d</fix>
</trkpt>
<trkpt lat="33.8106396" lon="-118.3938651">
  <ele>-18.41</ele>
  <time>2026-09-02T22:11:31Z</time>
  <course>246.19</course>
  <speed>0.0</speed>
  <fix>3d</fix>
</trkpt>
<trkpt lat="33.8106393" lon="-118.3938649">
  <ele>-19.083</ele>
  <time>2026-09-02T22:11:31Z</time>
  <course>26.68</course>
  <speed>0.0316227766016838</speed>
  <fix>3d</fix>
</trkpt>
<trkpt lat="33.8106393" lon="-118.3938649">
  <ele>-19.144</ele>
  <time>2026-09-02T22:11:31Z</time>
  <course>26.69</course>
  <speed>0.03</speed>
  <fix>3d</fix>
</trkpt>
<trkpt lat="33.8106396" lon="-118.3938651">
  <ele>-18.54</ele>
  <time>2026-09-02T22:11:31Z</time>
  <course>246.19</course>
  <speed>0.0</speed>
  <fix>3d</fix>
</trkpt>
<trkpt lat="33.8106393" lon="-118.3938649">
  <ele>-19.164</ele>
  <time>2026-09-02T22:11:31Z</time>
  <course>26.7</course>
  <speed>0.03</speed>
  <fix>3d</fix>
</trkpt>
<trkpt lat="33.8106393" lon="-118.3938649">
  <ele>-19.207</ele>
  <time>2026-09-02T22:11:31Z</time>
  <course>26.7</course>
  <speed>0.03</speed>
  <fix>3d</fix>
</trkpt>
<trkpt lat="33.8106396" lon="-118.3938651">
  <ele>-18.54</ele>
  <time>2026-09-02T22:11:31Z</time>
  <course>246.19</course>
  <speed>0.0</speed>
  <fix>3d</fix>
</trkpt>
<trkpt lat="33.8106393" lon="-118.3938649">
  <ele>-19.228</ele>
  <time>2026-09-02T22:11:31Z</time>
  <course>26.7</course>
  <speed>0.0316227766016838</speed>
  <fix>3d</fix>
</trkpt>
<trkpt lat="33.8106393" lon="-118.3938649">
  <ele>-19.27</ele>
  <time>2026-09-02T22:11:31Z</time>
  <course>26.71</course>
  <speed>0.03</speed>
  <fix>3d</fix>
</trkpt>
<trkpt lat="33.8106396" lon="-118.3938651">
  <ele>-18.66</ele>
  <time>2026-09-02T22:11:31Z</time>
  <course>246.21</course>
  <speed>0.0</speed>
  <fix>3d</fix>
</trkpt>
<trkpt lat="33.8106393" lon="-118.3938649">
  <ele>-19.292</ele>
  <time>2026-09-02T22:11:31Z</time>
  <course>26.71</course>
  <speed>0.0316227766016838</speed>
  <fix>3d</fix>
</trkpt>
<trkpt lat="33.8106393" lon="-118.3938649">
  <ele>-19.332</ele>
  <time>2026-09-02T22:11:31Z</time>
  <course>26.72</course>
  <speed>0.03</speed>
  <fix>3d</fix>
</trkpt>
<trkpt lat="33.8106396" lon="-118.3938651">
  <ele>-18.66</ele>
  <time>2026-09-02T22:11:31Z</time>
  <course>246.21</course>
  <speed>0.0</speed>
  <fix>3d</fix>
</trkpt>
<trkpt lat="33.8106393" lon="-118.3938649">
  <ele>-19.352</ele>
  <time>2026-09-02T22:11:31Z</time>
  <course>26.72</course>
  <speed>0.0316227766016838</speed>
  <fix>3d</fix>
</trkpt>
<trkpt lat="33.8106394" lon="-118.3938649">
  <ele>-19.394</ele>
  <time>2026-09-02T22:11:31Z</time>
  <course>26.73</course>
  <speed>0.0316227766016838</speed>
  <fix>3d</fix>
</trkpt>
<trkpt lat="33.8106396" lon="-118.3938651">
  <ele>-18.77</ele>
  <time>2026-09-02T22:11:31Z</time>
  <course>246.21</course>
  <speed>0.0</speed>
  <fix>3d</fix>
</trkpt>
<trkpt lat="33.8106394" lon="-118.3938649">
  <ele>-19.41</ele>
  <time>2026-09-02T22:11:31Z</time>
  <course>26.73</course>
  <speed>0.0316227766016838</speed>
  <fix>3d</fix>
</trkpt>
<trkpt lat="33.8106394" lon="-118.3938649">
  <ele>-19.455</ele>
  <time>2026-09-02T22:11:31Z</time>
  <course>26.74</course>
  <speed>0.0316227766016838</speed>
  <fix>3d</fix>
</trkpt>
<trkpt lat="33.8106396" lon="-118.3938651">
  <ele>-18.77</ele>
  <time>2026-09-02T22:11:31Z</time>
  <course>246.21</course>
  <speed>0.0</speed>
  <fix>3d</fix>
</trkpt>
<trkpt lat="33.8106393" lon="-118.3938649">
  <ele>-19.475</ele>
  <time>2026-09-02T22:11:31Z</time>
  <course>26.74</course>
  <speed>0.0316227766016838</speed>
  <fix>3d</fix>
</trkpt>
<trkpt lat="33.8106394" lon="-118.3938649">
  <ele>-19.517</ele>
  <time>2026-09-02T22:11:31Z</time>
  <course>26.75</course>
  <speed>0.0316227766016838</speed>
  <fix>3d</fix>
</trkpt>
<trkpt lat="33.8106396" lon="-118.3938651">
  <ele>-18.9</ele>
  <time>2026-09-02T22:11:31Z</time>
  <course>246.2</course>
  <speed>0.0</speed>
  <fix>3d</fix>
</trkpt>
<trkpt lat="33.8106394" lon="-118.3938649">
  <ele>-19.538</ele>
  <time>2026-09-02T22:11:31Z</time>
  <course>26.75</course>
  <speed>0.0316227766016838</speed>
  <fix>3d</fix>
</trkpt>
<trkpt lat="33.8106394" lon="-118.3938649">
  <ele>-19.578</ele>
  <time>2026-09-02T22:11:31Z</time>
  <course>26.76</course>
  <speed>0.0316227766016838</speed>
  <fix>3d</fix>
</trkpt>
<trkpt lat="33.8106396" lon="-118.3938651">
  <ele>-18.9</ele>
  <time>2026-09-02T22:11:31Z</time>
  <course>246.2</course>
  <speed>0.0</speed>
  <fix>3d</fix>
</trkpt>
<trkpt lat="33.8106394" lon="-118.3938649">
  <ele>-19.599</ele>
  <time>2026-09-02T22:11:31Z</time>
  <course>26.76</course>
  <speed>0.0316227766016838</speed>
  <fix>3d</fix>
</trkpt>
<trkpt lat="33.8106394" lon="-118.3938649">
  <ele>-19.638</ele>
  <time>2026-09-02T22:11:31Z</time>
  <course>26.77</course>
  <speed>0.0316227766016838</speed>
  <fix>3d</fix>
</trkpt>
<trkpt lat="33.8106396" lon="-118.3938651">
  <ele>-19.02</ele>
  <time>2026-09-02T22:11:31Z</time>
  <course>246.16</course>
  <speed>0.0</speed>
  <fix>3d</fix>
</trkpt>
<trkpt lat="33.8106394" lon="-118.3938649">
  <ele>-19.659</ele>
  <time>2026-09-02T22:11:31Z</time>
  <course>26.77</course>
  <speed>0.0316227766016838</speed>
  <fix>3d</fix>
</trkpt>
<trkpt lat="33.8106394" lon="-118.3938649">
  <ele>-19.699</ele>
  <time>2026-09-02T22:11:31Z</time>
  <course>26.78</course>
  <speed>0.0316227766016838</speed>
  <fix>3d</fix>
</trkpt>
<trkpt lat="33.8106396" lon="-118.3938651">
  <ele>-19.02</ele>
  <time>2026-09-02T22:11:31Z</time>
  <course>246.16</course>
  <speed>0.0</speed>
  <fix>3d</fix>
</trkpt>
<trkpt lat="33.8106394" lon="-118.3938649">
  <ele>-19.7</ele>
  <time>2026-09-02T22:11:31Z</time>
  <course>26.78</course>
  <speed>0.0316227766016838</speed>
  <fix>3d</fix>
</trkpt>
<trkpt lat="33.8106394" lon="-118.3938649">
  <ele>-19.76</ele>
  <time>2026-09-02T22:11:31Z</time>
  <course>26.79</course>
  <speed>0.0316227766016838</speed>
  <fix>3d</fix>
</trkpt>
<trkpt lat="33.8106396" lon="-118.3938651">
  <ele>-19.14</ele>
  <time>2026-09-02T22:11:31Z</time>
  <course>246.13</course>
  <speed>0.0</speed>
  <fix>3d</fix>
</trkpt>
<trkpt lat="33.8106394" lon="-118.3938649">
  <ele>-19.761</ele>
  <time>2026-09-02T22:11:31Z</time>
  <course>26.79</course>
  <speed>0.0316227766016838</speed>
  <fix>3d</fix>
</trkpt>
<trkpt lat="33.8106394" lon="-118.3938649">
  <ele>-19.822</ele>
  <time>2026-09-02T22:11:31Z</time>
  <course>26.8</course>
  <speed>0.0316227766016838</speed>
  <fix>3d</fix>
</trkpt>
<trkpt lat="33.8106396" lon="-118.3938651">
  <ele>-19.14</ele>
  <time>2026-09-02T22:11:31Z</time>
  <course>246.13</course>
  <speed>0.0</speed>
  <fix>3d</fix>
</trkpt>
<trkpt lat="33.8106394" lon="-118.3938649">
  <ele>-19.823</ele>
  <time>2026-09-02T22:11:31Z</time>
  <course>26.8</course>
  <speed>0.0316227766016838</speed>
  <fix>3d</fix>
</trkpt>
<trkpt lat="33.8106394" lon="-118.3938649">
  <ele>-19.885</ele>
  <time>2026-09-02T22:11:31Z</time>
  <course>26.81</course>
  <speed>0.0316227766016838</speed>
  <fix>3d</fix>
</trkpt>
<trkpt lat="33.8106396" lon="-118.3938652">
  <ele>-19.26</ele>
  <time>2026-09-02T22:11:31Z</time>
  <course>246.12</course>
  <speed>0.0</speed>
  <fix>3d</fix>
</trkpt>
<trkpt lat="33.8106394" lon="-118.3938649">
  <ele>-19.907</ele>
  <time>2026-09-02T22:11:31Z</time>
  <course>26.81</course>
  <speed>0.0316227766016838</speed>
  <fix>3d</fix>
</trkpt>
<trkpt lat="33.8106394" lon="-118.3938649">
  <ele>-19.949</ele>
  <time>2026-09-02T22:11:31Z</time>
  <course>26.82</course>
  <speed>0.0316227766016838</speed>
  <fix>3d</fix>
</trkpt>
<trkpt lat="33.8106396" lon="-118.3938652">
  <ele>-19.26</ele>
  <time>2026-09-02T22:11:31Z</time>
  <course>246.12</course>
  <speed>0.0</speed>
  <fix>3d</fix>
</trkpt>
<trkpt lat="33.8106394" lon="-118.3938649">
  <ele>-19.971</ele>
  <time>2026-09-02T22:11:31Z</time>
  <course>26.82</course>
  <speed>0.0316227766016838</speed>
  <fix>3d</fix>
</trkpt>
<trkpt lat="33.8106394" lon="-118.3938649">
  <ele>-20.012</ele>
  <time>2026-09-02T22:11:31Z</time>
  <course>26.82</course>
  <speed>0.0316227766016838</speed>
  <fix>3d</fix>
</trkpt>
<trkpt lat="33.8106396" lon="-118.3938652">
  <ele>-19.38</ele>
  <time>2026-09-02T22:11:31Z</time>
  <course>246.13</course>
  <speed>0.0</speed>
  <fix>3d</fix>
</trkpt>
<trkpt lat="33.8106394" lon="-118.3938649">
  <ele>-20.034</ele>
  <time>2026-09-02T22:11:31Z</time>
  <course>26.83</course>
  <speed>0.0316227766016838</speed>
  <fix>3d</fix>
</trkpt>
<trkpt lat="33.8106394" lon="-118.393865">
  <ele>-20.075</ele>
  <time>2026-09-02T22:11:31Z</time>
  <course>26.83</course>
  <speed>0.0316227766016838</speed>
  <fix>3d</fix>
</trkpt>
<trkpt lat="33.8106396" lon="-118.3938652">
  <ele>-19.38</ele>
  <time>2026-09-02T22:11:31Z</time>
  <course>246.13</course>
  <speed>0.0</speed>
  <fix>3d</fix>
</trkpt>
<trkpt lat="33.8106394" lon="-118.393865">
  <ele>-20.099</ele>
  <time>2026-09-02T22:11:31Z</time>
  <course>26.84</course>
  <speed>0.0316227766016838</speed>
  <fix>3d</fix>
</trkpt>
<trkpt lat="33.8106394" lon="-118.393865">
  <ele>-20.139</ele>
  <time>2026-09-02T22:11:31Z</time>
  <course>26.84</course>
  <speed>0.0316227766016838</speed>
  <fix>3d</fix>
</trkpt>
<trkpt lat="33.8106396" lon="-118.3938652">
  <ele>-19.5</ele>
  <time>2026-09-02T22:11:31Z</time>
  <course>246.14</course>
  <speed>0.0</speed>
  <fix>3d</fix>
</trkpt>
<trkpt lat="33.8106394" lon="-118.393865">
  <ele>-20.161</ele>
  <time>2026-09-02T22:11:31Z</time>
  <course>26.85</course>
  <speed>0.0316227766016838</speed>
  <fix>3d</fix>
</trkpt>
<trkpt lat="33.8106394" lon="-118.393865">
  <ele>-20.201</ele>
  <time>2026-09-02T22:11:31Z</time>
  <course>26.85</course>
  <speed>0.0316227766016838</speed>
  <fix>3d</fix>
</trkpt>
<trkpt lat="33.8106396" lon="-118.3938652">
  <ele>-19.5</ele>
  <time>2026-09-02T22:11:31Z</time>
  <course>246.14</course>
  <speed>0.0</speed>
  <fix>3d</fix>
</trkpt>
<trkpt lat="33.8106394" lon="-118.393865">
  <ele>-20.224</ele>
  <time>2026-09-02T22:11:31Z</time>
  <course>26.86</course>
  <speed>0.0316227766016838</speed>
  <fix>3d</fix>
</trkpt>
<trkpt lat="33.8106394" lon="-118.393865">
  <ele>-20.262</ele>
  <time>2026-09-02T22:11:31Z</time>
  <course>26.86</course>
  <speed>0.0316227766016838</speed>
  <fix>3d</fix>
</trkpt>
<trkpt lat="33.8106396" lon="-118.3938652">
  <ele>-19.61</ele>
  <time>2026-09-02T22:11:31Z</time>
  <course>246.14</course>
  <speed>0.0</speed>
  <fix>3d</fix>
</trkpt>
<trkpt lat="33.8106394" lon="-118.393865">
  <ele>-20.283</ele>
  <time>2026-09-02T22:11:31Z</time>
  <course>26.87</course>
  <speed>0.0316227766016838</speed>
  <fix>3d</fix>
</trkpt>
<trkpt lat="33.8106394" lon="-118.393865">
  <ele>-20.321</ele>
  <time>2026-09-02T22:11:31Z</time>
  <course>26.87</course>
  <speed>0.0316227766016838</speed>
  <fix>3d</fix>
</trkpt>
<trkpt lat="33.8106396" lon="-118.3938652">
  <ele>-19.61</ele>
  <time>2026-09-02T22:11:31Z</time>
  <course>246.14</course>
  <speed>0.0</speed>
  <fix>3d</fix>
</trkpt>
<trkpt lat="33.8106394" lon="-118.393865">
  <ele>-20.323</ele>
  <time>2026-09-02T22:11:31Z</time>
  <course>26.87</course>
  <speed>0.0316227766016838</speed>
  <fix>3d</fix>
</trkpt>
<trkpt lat="33.8106394" lon="-118.393865">
  <ele>-20.381</ele>
  <time>2026-09-02T22:11:31Z</time>
  <course>26.88</course>
  <speed>0.022360679774997897</speed>
  <fix>3d</fix>
</trkpt>
<trkpt lat="33.8106396" lon="-118.3938652">
  <ele>-19.74</ele>
  <time>2026-09-02T22:11:31Z</time>
  <course>246.12</course>
  <speed>0.0</speed>
  <fix>3d</fix>
</trkpt>
<trkpt lat="33.8106394" lon="-118.393865">
  <ele>-20.403</ele>
  <time>2026-09-02T22:11:31Z</time>
  <course>26.88</course>
  <speed>0.022360679774997897</speed>
  <fix>3d</fix>
</trkpt>
<trkpt lat="33.8106394" lon="-118.393865">
  <ele>-20.44</ele>
  <time>2026-09-02T22:11:31Z</time>
  <course>26.89</course>
  <speed>0.022360679774997897</speed>
  <fix>3d</fix>
</trkpt>
<trkpt lat="33.8106396" lon="-118.3938652">
  <ele>-19.74</ele>
  <time>2026-09-02T22:11:31Z</time>
  <course>246.12</course>
  <speed>0.0</speed>
  <fix>3d</fix>
</trkpt>
<trkpt lat="33.8106394" lon="-118.393865">
  <ele>-20.461</ele>
  <time>2026-09-02T22:11:31Z</time>
  <course>26.89</course>
  <speed>0.022360679774997897</speed>
  <fix>3d</fix>
</trkpt>
<trkpt lat="33.8106394" lon="-118.393865">
  <ele>-20.5</ele>
  <time>2026-09-02T22:11:31Z</time>
  <course>26.9</course>
  <speed>0.022360679774997897</speed>
  <fix>3d</fix>
</trkpt>
<trkpt lat="33.8106396" lon="-118.3938652">
  <ele>-19.86</ele>
  <time>2026-09-02T22:11:31Z</time>
  <course>246.08</course>
  <speed>0.0</speed>
  <fix>3d</fix>
</trkpt>
<trkpt lat="33.8106394" lon="-118.393865">
  <ele>-20.52</ele>
  <time>2026-09-02T22:11:31Z</time>
  <course>26.9</course>
  <speed>0.022360679774997897</speed>
  <fix>3d</fix>
</trkpt>
<trkpt lat="33.8106394" lon="-118.393865">
  <ele>-20.56</ele>
  <time>2026-09-02T22:11:31Z</time>
  <course>26.91</course>
  <speed>0.022360679774997897</speed>
  <fix>3d</fix>
</trkpt>
<trkpt lat="33.8106396" lon="-118.3938652">
  <ele>-19.86</ele>
  <time>2026-09-02T22:11:31Z</time>
  <course>246.08</course>
  <speed>0.0</speed>
  <fix>3d</fix>
</trkpt>
<trkpt lat="33.8106394" lon="-118.393865">
  <ele>-20.58</ele>
  <time>2026-09-02T22:11:31Z</time>
  <course>26.91</course>
  <speed>0.022360679774997897</speed>
  <fix>3d</fix>
</trkpt>
<trkpt lat="33.8106394" lon="-118.393865">
  <ele>-20.619</ele>
  <time>2026-09-02T22:11:31Z</time>
  <course>26.92</course>
  <speed>0.022360679774997897</speed>
  <fix>3d</fix>
</trkpt>
<trkpt lat="33.8106396" lon="-118.3938652">
  <ele>-19.98</ele>
  <time>2026-09-02T22:11:31Z</time>
  <course>246.06</course>
  <speed>0.0</speed>
  <fix>3d</fix>
</trkpt>
<trkpt lat="33.8106394" lon="-118.393865">
  <ele>-20.62</ele>
  <time>2026-09-02T22:11:31Z</time>
  <course>26.92</course>
  <speed>0.022360679774997897</speed>
  <fix>3d</fix>
</trkpt>
<trkpt lat="33.8106394" lon="-118.393865">
  <ele>-20.68</ele>
  <time>2026-09-02T22:11:31Z</time>
  <course>26.93</course>
  <speed>0.022360679774997897</speed>
  <fix>3d</fix>
</trkpt>
<trkpt lat="33.8106396" lon="-118.3938652">
  <ele>-19.98</ele>
  <time>2026-09-02T22:11:31Z</time>
  <course>246.06</course>
  <speed>0.0</speed>
  <fix>3d</fix>
</trkpt>
<trkpt lat="33.8106394" lon="-118.393865">
  <ele>-20.701</ele>
  <time>2026-09-02T22:11:31Z</time>
  <course>26.93</course>
  <speed>0.022360679774997897</speed>
  <fix>3d</fix>
</trkpt>
<trkpt lat="33.8106394" lon="-118.393865">
  <ele>-20.74</ele>
  <time>2026-09-02T22:11:31Z</time>
  <course>26.94</course>
  <speed>0.022360679774997897</speed>
  <fix>3d</fix>
</trkpt>
<trkpt lat="33.8106396" lon="-118.3938652">
  <ele>-20.1</ele>
  <time>2026-09-02T22:11:31Z</time>
  <course>246.05</course>
  <speed>0.0</speed>
  <fix>3d</fix>
</trkpt>
<trkpt lat="33.8106394" lon="-118.393865">
  <ele>-20.76</ele>
  <time>2026-09-02T22:11:31Z</time>
  <course>26.94</course>
  <speed>0.022360679774997897</speed>
  <fix>3d</fix>
</trkpt>
<trkpt lat="33.8106394" lon="-118.393865">
  <ele>-20.801</ele>
  <time>2026-09-02T22:11:31Z</time>
  <course>26.95</course>
  <speed>0.022360679774997897</speed>
  <fix>3d</fix>
</trkpt>
<trkpt lat="33.8106396" lon="-118.3938652">
  <ele>-20.1</ele>
  <time>2026-09-02T22:11:31Z</time>
  <course>246.05</course>
  <speed>0.0</speed>
  <fix>3d</fix>
</trkpt>
<trkpt lat="33.8106394" lon="-118.393865">
  <ele>-20.824</ele>
  <time>2026-09-02T22:11:31Z</time>
  <course>26.95</course>
  <speed>0.022360679774997897</speed>
  <fix>3d</fix>
</trkpt>
<trkpt lat="33.8106394" lon="-118.393865">
  <ele>-20.861</ele>
  <time>2026-09-02T22:11:31Z</time>
  <course>26.95</course>
  <speed>0.022360679774997897</speed>
  <fix>3d</fix>
</trkpt>
<trkpt lat="33.8106396" lon="-118.3938652">
  <ele>-20.22</ele>
  <time>2026-09-02T22:11:31Z</time>
  <course>246.06</course>
  <speed>0.0</speed>
  <fix>3d</fix>
</trkpt>
<trkpt lat="33.8106394" lon="-118.393865">
  <ele>-20.88</ele>
  <time>2026-09-02T22:11:31Z</time>
  <course>26.96</course>
  <speed>0.022360679774997897</speed>
  <fix>3d</fix>
</trkpt>
<trkpt lat="33.8106394" lon="-118.393865">
  <ele>-20.92</ele>
  <time>2026-09-02T22:11:31Z</time>
  <course>26.96</course>
  <speed>0.022360679774997897</speed>
  <fix>3d</fix>
</trkpt>
<trkpt lat="33.8106396" lon="-118.3938652">
  <ele>-20.22</ele>
  <time>2026-09-02T22:11:31Z</time>
  <course>246.06</course>
  <speed>0.0</speed>
  <fix>3d</fix>
</trkpt>
<trkpt lat="33.8106394" lon="-118.393865">
  <ele>-20.941</ele>
  <time>2026-09-02T22:11:31Z</time>
  <course>26.97</course>
  <speed>0.022360679774997897</speed>
  <fix>3d</fix>
</trkpt>
<trkpt lat="33.8106394" lon="-118.393865">
  <ele>-20.98</ele>
  <time>2026-09-02T22:11:31Z</time>
  <course>26.97</course>
  <speed>0.022360679774997897</speed>
  <fix>3d</fix>
</trkpt>
<trkpt lat="33.8106396" lon="-118.3938652">
  <ele>-20.35</ele>
  <time>2026-09-02T22:11:31Z</time>
  <course>246.07</course>
  <speed>0.0</speed>
  <fix>3d</fix>
</trkpt>
<trkpt lat="33.8106394" lon="-118.393865">
  <ele>-20.981</ele>
  <time>2026-09-02T22:11:31Z</time>
  <course>26.97</course>
  <speed>0.022360679774997897</speed>
  <fix>3d</fix>
</trkpt>
<trkpt lat="33.8106394" lon="-118.393865">
  <ele>-21.039</ele>
  <time>2026-09-02T22:11:31Z</time>
  <course>26.98</course>
  <speed>0.022360679774997897</speed>
  <fix>3d</fix>
</trkpt>
<trkpt lat="33.8106396" lon="-118.3938652">
  <ele>-20.35</ele>
  <time>2026-09-02T22:11:31Z</time>
  <course>246.07</course>
  <speed>0.0</speed>
  <fix>3d</fix>
</trkpt>
<trkpt lat="33.8106394" lon="-118.393865">
  <ele>-21.059</ele>
  <time>2026-09-02T22:11:31Z</time>
  <course>26.98</course>
  <speed>0.022360679774997897</speed>
  <fix>3d</fix>
</trkpt>
<trkpt lat="33.8106394" lon="-118.393865">
  <ele>-21.099</ele>
  <time>2026-09-02T22:11:31Z</time>
  <course>26.99</course>
  <speed>0.022360679774997897</speed>
  <fix>3d</fix>
</trkpt>
<trkpt lat="33.8106396" lon="-118.3938653">
  <ele>-20.47</ele>
  <time>2026-09-02T22:11:31Z</time>
  <course>246.07</course>
  <speed>0.0</speed>
  <fix>3d</fix>
</trkpt>
<trkpt lat="33.8106394" lon="-118.393865">
  <ele>-21.121</ele>
  <time>2026-09-02T22:11:31Z</time>
  <course>26.99</course>
  <speed>0.022360679774997897</speed>
  <fix>3d</fix>
</trkpt>
<trkpt lat="33.8106394" lon="-118.393865">
  <ele>-21.16</ele>
  <time>2026-09-02T22:11:31Z</time>
  <course>27.0</course>
  <speed>0.022360679774997897</speed>
  <fix>3d</fix>
</trkpt>
<trkpt lat="33.8106396" lon="-118.3938653">
  <ele>-20.47</ele>
  <time>2026-09-02T22:11:31Z</time>
  <course>246.07</course>
  <speed>0.0</speed>
  <fix>3d</fix>
</trkpt>
<trkpt lat="33.8106394" lon="-118.393865">
  <ele>-21.181</ele>
  <time>2026-09-02T22:11:31Z</time>
  <course>27.0</course>
  <speed>0.022360679774997897</speed>
  <fix>3d</fix>
</trkpt>
<trkpt lat="33.8106394" lon="-118.393865">
  <ele>-21.221</ele>
  <time>2026-09-02T22:11:31Z</time>
  <course>27.01</course>
  <speed>0.022360679774997897</speed>
  <fix>3d</fix>
</trkpt>
<trkpt lat="33.8106396" lon="-118.3938653">
  <ele>-20.59</ele>
  <time>2026-09-02T22:11:31Z</time>
  <course>246.04</course>
  <speed>0.0</speed>
  <fix>3d</fix>
</trkpt>
<trkpt lat="33.8106394" lon="-118.393865">
  <ele>-21.241</ele>
  <time>2026-09-02T22:11:31Z</time>
  <course>27.01</course>
  <speed>0.022360679774997897</speed>
  <fix>3d</fix>
</trkpt>
<trkpt lat="33.8106394" lon="-118.393865">
  <ele>-21.282</ele>
  <time>2026-09-02T22:11:31Z</time>
  <course>27.02</course>
  <speed>0.022360679774997897</speed>
  <fix>3d</fix>
</trkpt>
<trkpt lat="33.8106396" lon="-118.3938653">
  <ele>-20.59</ele>
  <time>2026-09-02T22:11:31Z</time>
  <course>246.04</course>
  <speed>0.0</speed>
  <fix>3d</fix>
</trkpt>
<trkpt lat="33.8106394" lon="-118.393865">
  <ele>-21.304</ele>
  <time>2026-09-02T22:11:31Z</time>
  <course>27.02</course>
  <speed>0.022360679774997897</speed>
  <fix>3d</fix>
</trkpt>
<trkpt lat="33.8106394" lon="-118.3938651">
  <ele>-21.344</ele>
  <time>2026-09-02T22:11:31Z</time>
  <course>27.03</course>
  <speed>0.022360679774997897</speed>
  <fix>3d</fix>
</trkpt>
<trkpt lat="33.8106396" lon="-118.3938653">
  <ele>-20.71</ele>
  <time>2026-09-02T22:11:31Z</time>
  <course>246.01</course>
  <speed>0.0</speed>
  <fix>3d</fix>
</trkpt>
<trkpt lat="33.8106394" lon="-118.3938651">
  <ele>-21.366</ele>
  <time>2026-09-02T22:11:31Z</time>
  <course>27.03</course>
  <speed>0.022360679774997897</speed>
  <fix>3d</fix>
</trkpt>
<trkpt lat="33.8106394" lon="-118.3938651">
  <ele>-21.407</ele>
  <time>2026-09-02T22:11:31Z</time>
  <course>27.03</course>
  <speed>0.022360679774997897</speed>
  <fix>3d</fix>
</trkpt>
<trkpt lat="33.8106396" lon="-118.3938653">
  <ele>-20.71</ele>
  <time>2026-09-02T22:11:31Z</time>
  <course>246.01</course>
  <speed>0.0</speed>
  <fix>3d</fix>
</trkpt>
<trkpt lat="33.8106394" lon="-118.3938651">
  <ele>-21.429</ele>
  <time>2026-09-02T22:11:31Z</time>
  <course>27.04</course>
  <speed>0.022360679774997897</speed>
  <fix>3d</fix>
</trkpt>
<trkpt lat="33.8106394" lon="-118.3938651">
  <ele>-21.47</ele>
  <time>2026-09-02T22:11:31Z</time>
  <course>27.04</course>
  <speed>0.022360679774997897</speed>
  <fix>3d</fix>
</trkpt>
<trkpt lat="33.8106396" lon="-118.3938653">
  <ele>-20.83</ele>
  <time>2026-09-02T22:11:31Z</time>
  <course>245.99</course>
  <speed>0.0</speed>
  <fix>3d</fix>
</trkpt>
<trkpt lat="33.8106394" lon="-118.3938651">
  <ele>-21.491</ele>
  <time>2026-09-02T22:11:31Z</time>
  <course>27.05</course>
  <speed>0.022360679774997897</speed>
  <fix>3d</fix>
</trkpt>
<trkpt lat="33.8106394" lon="-118.3938651">
  <ele>-21.534</ele>
  <time>2026-09-02T22:11:31Z</time>
  <course>27.05</course>
  <speed>0.022360679774997897</speed>
  <fix>3d</fix>
</trkpt>
<trkpt lat="33.8106396" lon="-118.3938653">
  <ele>-20.83</ele>
  <time>2026-09-02T22:11:31Z</time>
  <course>245.99</course>
  <speed>0.0</speed>
  <fix>3d</fix>
</trkpt>
<trkpt lat="33.8106394" lon="-118.3938651">
  <ele>-21.556</ele>
  <time>2026-09-02T22:11:31Z</time>
  <course>27.05</course>
  <speed>0.022360679774997897</speed>
  <fix>3d</fix>
</trkpt>
<trkpt lat="33.8106394" lon="-118.3938651">
  <ele>-21.597</ele>
  <time>2026-09-02T22:11:31Z</time>
  <course>27.06</course>
  <speed>0.022360679774997897</speed>
  <fix>3d</fix>
</trkpt>
<trkpt lat="33.8106396" lon="-118.3938653">
  <ele>-20.95</ele>
  <time>2026-09-02T22:11:31Z</time>
  <course>245.99</course>
  <speed>0.0</speed>
  <fix>3d</fix>
</trkpt>
<trkpt lat="33.8106394" lon="-118.3938651">
  <ele>-21.599</ele>
  <time>2026-09-02T22:11:31Z</time>
  <course>27.06</course>
  <speed>0.022360679774997897</speed>
  <fix>3d</fix>
</trkpt>
<trkpt lat="33.8106394" lon="-118.3938651">
  <ele>-21.661</ele>
  <time>2026-09-02T22:11:31Z</time>
  <course>27.07</course>
  <speed>0.022360679774997897</speed>
  <fix>3d</fix>
</trkpt>
<trkpt lat="33.8106396" lon="-118.3938653">
  <ele>-20.95</ele>
  <time>2026-09-02T22:11:31Z</time>
  <course>245.99</course>
  <speed>0.0</speed>
  <fix>3d</fix>
</trkpt>
<trkpt lat="33.8106394" lon="-118.3938651">
  <ele>-21.683</ele>
  <time>2026-09-02T22:11:31Z</time>
  <course>27.07</course>
  <speed>0.022360679774997897</speed>
  <fix>3d</fix>
</trkpt>
<trkpt lat="33.8106394" lon="-118.3938651">
  <ele>-21.724</ele>
  <time>2026-09-02T22:11:31Z</time>
  <course>27.08</course>
  <speed>0.022360679774997897</speed>
  <fix>3d</fix>
</trkpt>
<trkpt lat="33.8106396" lon="-118.3938653">
  <ele>-21.07</ele>
  <time>2026-09-02T22:11:31Z</time>
  <course>246.01</course>
  <speed>0.0</speed>
  <fix>3d</fix>
</trkpt>
<trkpt lat="33.8106394" lon="-118.3938651">
  <ele>-21.744</ele>
  <time>2026-09-02T22:11:31Z</time>
  <course>27.08</course>
  <speed>0.022360679774997897</speed>
  <fix>3d</fix>
</trkpt>
<trkpt lat="33.8106394" lon="-118.3938651">
  <ele>-21.787</ele>
  <time>2026-09-02T22:11:31Z</time>
  <course>27.09</course>
  <speed>0.022360679774997897</speed>
  <fix>3d</fix>
</trkpt>
<trkpt lat="33.8106396" lon="-118.3938653">
  <ele>-21.07</ele>
  <time>2026-09-02T22:11:31Z</time>
  <course>246.01</course>
  <speed>0.0</speed>
  <fix>3d</fix>
</trkpt>
<trkpt lat="33.8106394" lon="-118.3938651">
  <ele>-21.809</ele>
  <time>2026-09-02T22:11:31Z</time>
  <course>27.09</course>
  <speed>0.022360679774997897</speed>
  <fix>3d</fix>
</trkpt>
<trkpt lat="33.8106394" lon="-118.3938651">
  <ele>-21.85</ele>
  <time>2026-09-02T22:11:31Z</time>
  <course>27.1</course>
  <speed>0.022360679774997897</speed>
  <fix>3d</fix>
</trkpt>
<trkpt lat="33.8106396" lon="-118.3938653">
  <ele>-21.18</ele>
  <time>2026-09-02T22:11:31Z</time>
  <course>246.01</course>
  <speed>0.0</speed>
  <fix>3d</fix>
</trkpt>
<trkpt lat="33.8106394" lon="-118.3938651">
  <ele>-21.871</ele>
  <time>2026-09-02T22:11:31Z</time>
  <course>27.1</course>
  <speed>0.022360679774997897</speed>
  <fix>3d</fix>
</trkpt>
<trkpt lat="33.8106394" lon="-118.3938651">
  <ele>-21.913</ele>
  <time>2026-09-02T22:11:31Z</time>
  <course>27.1</course>
  <speed>0.022360679774997897</speed>
  <fix>3d</fix>
</trkpt>
<trkpt lat="33.8106396" lon="-118.3938653">
  <ele>-21.18</ele>
  <time>2026-09-02T22:11:31Z</time>
  <course>246.01</course>
  <speed>0.0</speed>
  <fix>3d</fix>
</trkpt>
<trkpt lat="33.8106394" lon="-118.3938651">
  <ele>-21.935</ele>
  <time>2026-09-02T22:11:31Z</time>
  <course>27.11</course>
  <speed>0.022360679774997897</speed>
  <fix>3d</fix>
</trkpt>
<trkpt lat="33.8106394" lon="-118.3938651">
  <ele>-21.976</ele>
  <time>2026-09-02T22:11:31Z</time>
  <course>27.11</course>
  <speed>0.022360679774997897</speed>
  <fix>3d</fix>
</trkpt>
<trkpt lat="33.8106396" lon="-118.3938653">
  <ele>-21.31</ele>
  <time>2026-09-02T22:11:31Z</time>
  <course>246.0</course>
  <speed>0.0</speed>
  <fix>3d</fix>
</trkpt>
<trkpt lat="33.8106394" lon="-118.3938651">
  <ele>-21.998</ele>
  <time>2026-09-02T22:11:31Z</time>
  <course>27.12</course>
  <speed>0.022360679774997897</speed>
  <fix>3d</fix>
</trkpt>
<trkpt lat="33.8106394" lon="-118.3938651">
  <ele>-22.039</ele>
  <time>2026-09-02T22:11:31Z</time>
  <course>27.12</course>
  <speed>0.022360679774997897</speed>
  <fix>3d</fix>
</trkpt>
<trkpt lat="33.8106396" lon="-118.3938653">
  <ele>-21.31</ele>
  <time>2026-09-02T22:11:31Z</time>
  <course>246.0</course>
  <speed>0.0</speed>
  <fix>3d</fix>
</trkpt>
<trkpt lat="33.8106394" lon="-118.3938651">
  <ele>-22.062</ele>
  <time>2026-09-02T22:11:31Z</time>
  <course>27.13</course>
  <speed>0.022360679774997897</speed>
  <fix>3d</fix>
</trkpt>
<trkpt lat="33.8106394" lon="-118.3938651">
  <ele>-22.102</ele>
  <time>2026-09-02T22:11:31Z</time>
  <course>27.13</course>
  <speed>0.022360679774997897</speed>
  <fix>3d</fix>
</trkpt>
<trkpt lat="33.8106396" lon="-118.3938653">
  <ele>-21.43</ele>
  <time>2026-09-02T22:11:31Z</time>
  <course>245.97</course>
  <speed>0.0</speed>
  <fix>3d</fix>
</trkpt>
<trkpt lat="33.8106394" lon="-118.3938651">
  <ele>-22.124</ele>
  <time>2026-09-02T22:11:31Z</time>
  <course>27.13</course>
  <speed>0.022360679774997897</speed>
  <fix>3d</fix>
</trkpt>
<trkpt lat="33.8106394" lon="-118.3938651">
  <ele>-22.165</ele>
  <time>2026-09-02T22:11:31Z</time>
  <course>27.14</course>
  <speed>0.022360679774997897</speed>
  <fix>3d</fix>
</trkpt>
<trkpt lat="33.8106396" lon="-118.3938653">
  <ele>-21.43</ele>
  <time>2026-09-02T22:11:31Z</time>
  <course>245.97</course>
  <speed>0.0</speed>
  <fix>3d</fix>
</trkpt>
<trkpt lat="33.8106394" lon="-118.3938651">
  <ele>-22.188</ele>
  <time>2026-09-02T22:11:31Z</time>
  <course>27.14</course>
  <speed>0.022360679774997897</speed>
  <fix>3d</fix>
</trkpt>
<trkpt lat="33.8106394" lon="-118.3938651">
  <ele>-22.229</ele>
  <time>2026-09-02T22:11:31Z</time>
  <course>27.15</course>
  <speed>0.022360679774997897</speed>
  <fix>3d</fix>
</trkpt>
<trkpt lat="33.8106396" lon="-118.3938653">
  <ele>-21.55</ele>
  <time>2026-09-02T22:11:31Z</time>
  <course>245.94</course>
  <speed>0.0</speed>
  <fix>3d</fix>
</trkpt>
<trkpt lat="33.8106394" lon="-118.3938651">
  <ele>-22.251</ele>
  <time>2026-09-02T22:11:31Z</time>
  <course>27.15</course>
  <speed>0.022360679774997897</speed>
  <fix>3d</fix>
</trkpt>
<trkpt lat="33.8106394" lon="-118.3938651">
  <ele>-22.293</ele>
  <time>2026-09-02T22:11:31Z</time>
  <course>27.16</course>
  <speed>0.022360679774997897</speed>
  <fix>3d</fix>
</trkpt>
<trkpt lat="33.8106396" lon="-118.3938653">
  <ele>-21.55</ele>
  <time>2026-09-02T22:11:31Z</time>
  <course>245.94</course>
  <speed>0.0</speed>
  <fix>3d</fix>
</trkpt>
<trkpt lat="33.8106394" lon="-118.3938651">
  <ele>-22.294</ele>
  <time>2026-09-02T22:11:31Z</time>
  <course>27.16</course>
  <speed>0.022360679774997897</speed>
  <fix>3d</fix>
</trkpt>
<trkpt lat="33.8106394" lon="-118.3938651">
  <ele>-22.357</ele>
  <time>2026-09-02T22:11:31Z</time>
  <course>27.17</course>
  <speed>0.022360679774997897</speed>
  <fix>3d</fix>
</trkpt>
<trkpt lat="33.8106396" lon="-118.3938653">
  <ele>-21.67</ele>
  <time>2026-09-02T22:11:31Z</time>
  <course>245.93</course>
  <speed>0.0</speed>
  <fix>3d</fix>
</trkpt>
<trkpt lat="33.8106394" lon="-118.3938651">
  <ele>-22.377</ele>
  <time>2026-09-02T22:11:31Z</time>
  <course>27.17</course>
  <speed>0.022360679774997897</speed>
  <fix>3d</fix>
</trkpt>
<trkpt lat="33.8106394" lon="-118.3938651">
  <ele>-22.421</ele>
  <time>2026-09-02T22:11:31Z</time>
  <course>27.17</course>
  <speed>0.022360679774997897</speed>
  <fix>3d</fix>
</trkpt>
<trkpt lat="33.8106396" lon="-118.3938653">
  <ele>-21.67</ele>
  <time>2026-09-02T22:11:31Z</time>
  <course>245.93</course>
  <speed>0.0</speed>
  <fix>3d</fix>
</trkpt>
<trkpt lat="33.8106394" lon="-118.3938651">
  <ele>-22.443</ele>
  <time>2026-09-02T22:11:31Z</time>
  <course>27.18</course>
  <speed>0.022360679774997897</speed>
  <fix>3d</fix>
</trkpt>
<trkpt lat="33.8106394" lon="-118.3938651">
  <ele>-22.484</ele>
  <time>2026-09-02T22:11:31Z</time>
  <course>27.18</course>
  <speed>0.022360679774997897</speed>
  <fix>3d</fix>
</trkpt>
<trkpt lat="33.8106396" lon="-118.3938654">
  <ele>-21.79</ele>
  <time>2026-09-02T22:11:31Z</time>
  <course>245.94</course>
  <speed>0.0</speed>
  <fix>3d</fix>
</trkpt>
<trkpt lat="33.8106394" lon="-118.3938651">
  <ele>-22.504</ele>
  <time>2026-09-02T22:11:31Z</time>
  <course>27.19</course>
  <speed>0.022360679774997897</speed>
  <fix>3d</fix>
</trkpt>
<trkpt lat="33.8106394" lon="-118.3938651">
  <ele>-22.546</ele>
  <time>2026-09-02T22:11:31Z</time>
  <course>27.19</course>
  <speed>0.022360679774997897</speed>
  <fix>3d</fix>
</trkpt>
<trkpt lat="33.8106396" lon="-118.3938654">
  <ele>-21.79</ele>
  <time>2026-09-02T22:11:31Z</time>
  <course>245.94</course>
  <speed>0.0</speed>
  <fix>3d</fix>
</trkpt>
<trkpt lat="33.8106394" lon="-118.3938651">
  <ele>-22.568</ele>
  <time>2026-09-02T22:11:31Z</time>
  <course>27.19</course>
  <speed>0.0316227766016838</speed>
  <fix>3d</fix>
</trkpt>
<trkpt lat="33.8106394" lon="-118.3938651">
  <ele>-22.608</ele>
  <time>2026-09-02T22:11:31Z</time>
  <course>27.2</course>
  <speed>0.022360679774997897</speed>
  <fix>3d</fix>
</trkpt>
<trkpt lat="33.8106396" lon="-118.3938654">
  <ele>-21.91</ele>
  <time>2026-09-02T22:11:31Z</time>
  <course>245.96</course>
  <speed>0.0</speed>
  <fix>3d</fix>
</trkpt>
<trkpt lat="33.8106394" lon="-118.3938651">
  <ele>-22.632</ele>
  <time>2026-09-02T22:11:31Z</time>
  <course>27.2</course>
  <speed>0.022360679774997897</speed>
  <fix>3d</fix>
</trkpt>
<trkpt lat="33.8106394" lon="-118.3938651">
  <ele>-22.671</ele>
  <time>2026-09-02T22:11:31Z</time>
  <course>27.21</course>
  <speed>0.022360679774997897</speed>
  <fix>3d</fix>
</trkpt>
<trkpt lat="33.8106396" lon="-118.3938654">
  <ele>-21.91</ele>
  <time>2026-09-02T22:11:31Z</time>
  <course>245.96</course>
  <speed>0.0</speed>
  <fix>3d</fix>
</trkpt>
<trkpt lat="33.8106394" lon="-118.3938651">
  <ele>-22.693</ele>
  <time>2026-09-02T22:11:31Z</time>
  <course>27.21</course>
  <speed>0.0316227766016838</speed>
  <fix>3d</fix>
</trkpt>
<trkpt lat="33.8106394" lon="-118.3938652">
  <ele>-22.734</ele>
  <time>2026-09-02T22:11:31Z</time>
  <course>27.22</course>
  <speed>0.022360679774997897</speed>
  <fix>3d</fix>
</trkpt>
<trkpt lat="33.8106396" lon="-118.3938654">
  <ele>-22.04</ele>
  <time>2026-09-02T22:11:31Z</time>
  <course>245.95</course>
  <speed>0.0</speed>
  <fix>3d</fix>
</trkpt>
<trkpt lat="33.8106394" lon="-118.3938652">
  <ele>-22.755</ele>
  <time>2026-09-02T22:11:31Z</time>
  <course>27.22</course>
  <speed>0.022360679774997897</speed>
  <fix>3d</fix>
</trkpt>
<trkpt lat="33.8106394" lon="-118.3938652">
  <ele>-22.795</ele>
  <time>2026-09-02T22:11:31Z</time>
  <course>27.23</course>
  <speed>0.0316227766016838</speed>
  <fix>3d</fix>
</trkpt>
<trkpt lat="33.8106396" lon="-118.3938654">
  <ele>-22.04</ele>
  <time>2026-09-02T22:11:31Z</time>
  <course>245.95</course>
  <speed>0.0</speed>
  <fix>3d</fix>
</trkpt>
<trkpt lat="33.8106394" lon="-118.3938652">
  <ele>-22.816</ele>
  <time>2026-09-02T22:11:31Z</time>
  <course>27.23</course>
  <speed>0.0316227766016838</speed>
  <fix>3d</fix>
</trkpt>
<trkpt lat="33.8106394" lon="-118.3938652">
  <ele>-22.855</ele>
  <time>2026-09-02T22:11:31Z</time>
  <course>27.23</course>
  <speed>0.022360679774997897</speed>
  <fix>3d</fix>
</trkpt>
<trkpt lat="33.8106396" lon="-118.3938654">
  <ele>-22.16</ele>
  <time>2026-09-02T22:11:31Z</time>
  <course>245.93</course>
  <speed>0.0</speed>
  <fix>3d</fix>
</trkpt>
<trkpt lat="33.8106394" lon="-118.3938652">
  <ele>-22.876</ele>
  <time>2026-09-02T22:11:31Z</time>
  <course>27.24</course>
  <speed>0.022360679774997897</speed>
  <fix>3d</fix>
</trkpt>
<trkpt lat="33.8106394" lon="-118.3938652">
  <ele>-22.915</ele>
  <time>2026-09-02T22:11:31Z</time>
  <course>27.24</course>
  <speed>0.0316227766016838</speed>
  <fix>3d</fix>
</trkpt>
<trkpt lat="33.8106396" lon="-118.3938654">
  <ele>-22.16</ele>
  <time>2026-09-02T22:11:31Z</time>
  <course>245.93</course>
  <speed>0.0</speed>
  <fix>3d</fix>
</trkpt>
<trkpt lat="33.8106394" lon="-118.3938652">
  <ele>-22.918</ele>
  <time>2026-09-02T22:11:31Z</time>
  <course>27.24</course>
  <speed>0.0316227766016838</speed>
  <fix>3d</fix>
</trkpt>
<trkpt lat="33.8106394" lon="-118.3938652">
  <ele>-22.976</ele>
  <time>2026-09-02T22:11:31Z</time>
  <course>27.25</course>
  <speed>0.0316227766016838</speed>
  <fix>3d</fix>
</trkpt>
<trkpt lat="33.8106396" lon="-118.3938654">
  <ele>-22.27</ele>
  <time>2026-09-02T22:11:31Z</time>
  <course>245.9</course>
  <speed>0.0</speed>
  <fix>3d</fix>
</trkpt>
<trkpt lat="33.8106394" lon="-118.3938652">
  <ele>-22.996</ele>
  <time>2026-09-02T22:11:31Z</time>
  <course>27.25</course>
  <speed>0.022360679774997897</speed>
  <fix>3d</fix>
</trkpt>
<trkpt lat="33.8106394" lon="-118.3938652">
  <ele>-23.037</ele>
  <time>2026-09-02T22:11:31Z</time>
  <course>27.26</course>
  <speed>0.0316227766016838</speed>
  <fix>3d</fix>
</trkpt>
<trkpt lat="33.8106396" lon="-118.3938654">
  <ele>-22.27</ele>
  <time>2026-09-02T22:11:31Z</time>
  <course>245.9</course>
  <speed>0.0</speed>
  <fix>3d</fix>
</trkpt>
<trkpt lat="33.8106394" lon="-118.3938652">
  <ele>-23.058</ele>
  <time>2026-09-02T22:11:31Z</time>
  <course>27.26</course>
  <speed>0.0316227766016838</speed>
  <fix>3d</fix>
</trkpt>
<trkpt lat="33.8106394" lon="-118.3938652">
  <ele>-23.097</ele>
  <time>2026-09-02T22:11:31Z</time>
  <course>27.27</course>
  <speed>0.0316227766016838</speed>
  <fix>3d</fix>
</trkpt>
<trkpt lat="33.8106395" lon="-118.3938654">
  <ele>-22.4</ele>
  <time>2026-09-02T22:11:31Z</time>
  <course>245.88</course>
  <speed>0.0</speed>
  <fix>3d</fix>
</trkpt>
<trkpt lat="33.8106394" lon="-118.3938652">
  <ele>-23.119</ele>
  <time>2026-09-02T22:11:31Z</time>
  <course>27.27</course>
  <speed>0.0316227766016838</speed>
  <fix>3d</fix>
</trkpt>
<trkpt lat="33.8106394" lon="-118.3938652">
  <ele>-23.157</ele>
  <time>2026-09-02T22:11:31Z</time>
  <course>27.28</course>
  <speed>0.0316227766016838</speed>
  <fix>3d</fix>
</trkpt>
<trkpt lat="33.8106395" lon="-118.3938654">
  <ele>-22.4</ele>
  <time>2026-09-02T22:11:31Z</time>
  <course>245.88</course>
  <speed>0.0</speed>
  <fix>3d</fix>
</trkpt>
<trkpt lat="33.8106394" lon="-118.3938652">
  <ele>-23.176</ele>
  <time>2026-09-02T22:11:31Z</time>
  <course>27.28</course>
  <speed>0.0316227766016838</speed>
  <fix>3d</fix>
</trkpt>
<trkpt lat="33.8106394" lon="-118.3938652">
  <ele>-23.217</ele>
  <time>2026-09-02T22:11:31Z</time>
  <course>27.28</course>
  <speed>0.0316227766016838</speed>
  <fix>3d</fix>
</trkpt>
<trkpt lat="33.8106395" lon="-118.3938654">
  <ele>-22.52</ele>
  <time>2026-09-02T22:11:31Z</time>
  <course>245.88</course>
  <speed>0.0</speed>
  <fix>3d</fix>
</trkpt>
<trkpt lat="33.8106394" lon="-118.3938652">
  <ele>-23.238</ele>
  <time>2026-09-02T22:11:31Z</time>
  <course>27.29</course>
  <speed>0.0316227766016838</speed>
  <fix>3d</fix>
</trkpt>
<trkpt lat="33.8106394" lon="-118.3938652">
  <ele>-23.277</ele>
  <time>2026-09-02T22:11:31Z</time>
  <course>27.29</course>
  <speed>0.0316227766016838</speed>
  <fix>3d</fix>
</trkpt>
<trkpt lat="33.8106395" lon="-118.3938654">
  <ele>-22.52</ele>
  <time>2026-09-02T22:11:31Z</time>
  <course>245.88</course>
  <speed>0.0</speed>
  <fix>3d</fix>
</trkpt>
<trkpt lat="33.8106394" lon="-118.3938652">
  <ele>-23.298</ele>
  <time>2026-09-02T22:11:31Z</time>
  <course>27.3</course>
  <speed>0.0316227766016838</speed>
  <fix>3d</fix>
</trkpt>
<trkpt lat="33.8106394" lon="-118.3938652">
  <ele>-23.338</ele>
  <time>2026-09-02T22:11:31Z</time>
  <course>27.3</course>
  <speed>0.0316227766016838</speed>
  <fix>3d</fix>
</trkpt>
<trkpt lat="33.8106395" lon="-118.3938654">
  <ele>-22.64</ele>
  <time>2026-09-02T22:11:31Z</time>
  <course>245.89</course>
  <speed>0.0</speed>
  <fix>3d</fix>
</trkpt>
<trkpt lat="33.8106394" lon="-118.3938652">
  <ele>-23.359</ele>
  <time>2026-09-02T22:11:31Z</time>
  <course>27.3</course>
  <speed>0.0316227766016838</speed>
  <fix>3d</fix>
</trkpt>
<trkpt lat="33.8106394" lon="-118.3938652">
  <ele>-23.399</ele>
  <time>2026-09-02T22:11:31Z</time>
  <course>27.31</course>
  <speed>0.0316227766016838</speed>
  <fix>3d</fix>
</trkpt>
<trkpt lat="33.8106395" lon="-118.3938654">
  <ele>-22.64</ele>
  <time>2026-09-02T22:11:31Z</time>
  <course>245.89</course>
  <speed>0.0</speed>
  <fix>3d</fix>
</trkpt>
<trkpt lat="33.8106394" lon="-118.3938652">
  <ele>-23.42</ele>
  <time>2026-09-02T22:11:31Z</time>
  <course>27.31</course>
  <speed>0.0316227766016838</speed>
  <fix>3d</fix>
</trkpt>
<trkpt lat="33.8106393" lon="-118.3938652">
  <ele>-23.461</ele>
  <time>2026-09-02T22:11:31Z</time>
  <course>27.32</course>
  <speed>0.0316227766016838</speed>
  <fix>3d</fix>
</trkpt>
<trkpt lat="33.8106395" lon="-118.3938654">
  <ele>-22.76</ele>
  <time>2026-09-02T22:11:31Z</time>
  <course>245.9</course>
  <speed>0.0</speed>
  <fix>3d</fix>
</trkpt>
<trkpt lat="33.8106393" lon="-118.3938652">
  <ele>-23.484</ele>
  <time>2026-09-02T22:11:31Z</time>
  <course>27.32</course>
  <speed>0.0316227766016838</speed>
  <fix>3d</fix>
</trkpt>
<trkpt lat="33.8106393" lon="-118.3938652">
  <ele>-23.523</ele>
  <time>2026-09-02T22:11:31Z</time>
  <course>27.32</course>
  <speed>0.0316227766016838</speed>
  <fix>3d</fix>
</trkpt>
<trkpt lat="33.8106395" lon="-118.3938654">
  <ele>-22.76</ele>
  <time>2026-09-02T22:11:31Z</time>
  <course>245.9</course>
  <speed>0.0</speed>
  <fix>3d</fix>
</trkpt>
<trkpt lat="33.8106393" lon="-118.3938652">
  <ele>-23.545</ele>
  <time>2026-09-02T22:11:31Z</time>
  <course>27.33</course>
  <speed>0.0316227766016838</speed>
  <fix>3d</fix>
</trkpt>
<trkpt lat="33.8106393" lon="-118.3938652">
  <ele>-23.586</ele>
  <time>2026-09-02T22:11:31Z</time>
  <course>27.33</course>
  <speed>0.0316227766016838</speed>
  <fix>3d</fix>
</trkpt>
<trkpt lat="33.8106395" lon="-118.3938654">
  <ele>-22.88</ele>
  <time>2026-09-02T22:11:31Z</time>
  <course>245.9</course>
  <speed>0.0</speed>
  <fix>3d</fix>
</trkpt>
<trkpt lat="33.8106393" lon="-118.3938652">
  <ele>-23.587</ele>
  <time>2026-09-02T22:11:31Z</time>
  <course>27.33</course>
  <speed>0.0316227766016838</speed>
  <fix>3d</fix>
</trkpt>
<trkpt lat="33.8106393" lon="-118.3938652">
  <ele>-23.648</ele>
  <time>2026-09-02T22:11:31Z</time>
  <course>27.34</course>
  <speed>0.0316227766016838</speed>
  <fix>3d</fix>
</trkpt>
<trkpt lat="33.8106395" lon="-118.3938654">
  <ele>-22.88</ele>
  <time>2026-09-02T22:11:31Z</time>
  <course>245.9</course>
  <speed>0.0</speed>
  <fix>3d</fix>
</trkpt>
<trkpt lat="33.8106393" lon="-118.3938652">
  <ele>-23.669</ele>
  <time>2026-09-02T22:11:31Z</time>
  <course>27.34</course>
  <speed>0.0316227766016838</speed>
  <fix>3d</fix>
</trkpt>
<trkpt lat="33.8106393" lon="-118.3938652">
  <ele>-23.711</ele>
  <time>2026-09-02T22:11:31Z</time>
  <course>27.35</course>
  <speed>0.0316227766016838</speed>
  <fix>3d</fix>
</trkpt>
<trkpt lat="33.8106395" lon="-118.3938654">
  <ele>-23.0</ele>
  <time>2026-09-02T22:11:31Z</time>
  <course>245.87</course>
  <speed>0.0</speed>
  <fix>3d</fix>
</trkpt>
<trkpt lat="33.8106393" lon="-118.3938652">
  <ele>-23.733</ele>
  <time>2026-09-02T22:11:31Z</time>
  <course>27.35</course>
  <speed>0.0316227766016838</speed>
  <fix>3d</fix>
</trkpt>
<trkpt lat="33.8106393" lon="-118.3938652">
  <ele>-23.774</ele>
  <time>2026-09-02T22:11:31Z</time>
  <course>27.36</course>
  <speed>0.0316227766016838</speed>
  <fix>3d</fix>
</trkpt>
<trkpt lat="33.8106395" lon="-118.3938654">
  <ele>-23.0</ele>
  <time>2026-09-02T22:11:31Z</time>
  <course>245.87</course>
  <speed>0.0</speed>
  <fix>3d</fix>
</trkpt>
<trkpt lat="33.8106393" lon="-118.3938652">
  <ele>-23.796</ele>
  <time>2026-09-02T22:11:31Z</time>
  <course>27.36</course>
  <speed>0.0316227766016838</speed>
  <fix>3d</fix>
</trkpt>
<trkpt lat="33.8106393" lon="-118.3938652">
  <ele>-23.836</ele>
  <time>2026-09-02T22:11:31Z</time>
  <course>27.37</course>
  <speed>0.0316227766016838</speed>
  <fix>3d</fix>
</trkpt>
<trkpt lat="33.8106395" lon="-118.3938655">
  <ele>-23.11</ele>
  <time>2026-09-02T22:11:31Z</time>
  <course>245.84</course>
  <speed>0.0</speed>
  <fix>3d</fix>
</trkpt>
<trkpt lat="33.8106393" lon="-118.3938652">
  <ele>-23.856</ele>
  <time>2026-09-02T22:11:31Z</time>
  <course>27.37</course>
  <speed>0.0316227766016838</speed>
  <fix>3d</fix>
</trkpt>
<trkpt lat="33.8106393" lon="-118.3938652">
  <ele>-23.897</ele>
  <time>2026-09-02T22:11:31Z</time>
  <course>27.37</course>
  <speed>0.0316227766016838</speed>
  <fix>3d</fix>
</trkpt>
<trkpt lat="33.8106395" lon="-118.3938655">
  <ele>-23.11</ele>
  <time>2026-09-02T22:11:31Z</time>
  <course>245.84</course>
  <speed>0.0</speed>
  <fix>3d</fix>
</trkpt>
<trkpt lat="33.8106393" lon="-118.3938652">
  <ele>-23.921</ele>
  <time>2026-09-02T22:11:31Z</time>
  <course>27.38</course>
  <speed>0.0316227766016838</speed>
  <fix>3d</fix>
</trkpt>
<trkpt lat="33.8106393" lon="-118.3938652">
  <ele>-23.959</ele>
  <time>2026-09-02T22:11:31Z</time>
  <course>27.38</course>
  <speed>0.0316227766016838</speed>
  <fix>3d</fix>
</trkpt>
<trkpt lat="33.8106395" lon="-118.3938655">
  <ele>-23.24</ele>
  <time>2026-09-02T22:11:31Z</time>
  <course>245.83</course>
  <speed>0.0</speed>
  <fix>3d</fix>
</trkpt>
<trkpt lat="33.8106393" lon="-118.3938652">
  <ele>-23.979</ele>
  <time>2026-09-02T22:11:31Z</time>
  <course>27.38</course>
  <speed>0.0316227766016838</speed>
  <fix>3d</fix>
</trkpt>
<trkpt lat="33.8106393" lon="-118.3938652">
  <ele>-24.02</ele>
  <time>2026-09-02T22:11:31Z</time>
  <course>27.39</course>
  <speed>0.0316227766016838</speed>
  <fix>3d</fix>
</trkpt>
<trkpt lat="33.8106395" lon="-118.3938655">
  <ele>-23.24</ele>
  <time>2026-09-02T22:11:31Z</time>
  <course>245.83</course>
  <speed>0.0</speed>
  <fix>3d</fix>
</trkpt>
<trkpt lat="33.8106393" lon="-118.3938652">
  <ele>-24.045</ele>
  <time>2026-09-02T22:11:31Z</time>
  <course>27.39</course>
  <speed>0.0316227766016838</speed>
  <fix>3d</fix>
</trkpt>
<trkpt lat="33.8106393" lon="-118.3938653">
  <ele>-24.082</ele>
  <time>2026-09-02T22:11:31Z</time>
  <course>27.4</course>
  <speed>0.0316227766016838</speed>
  <fix>3d</fix>
</trkpt>
<trkpt lat="33.8106395" lon="-118.3938655">
  <ele>-23.36</ele>
  <time>2026-09-02T22:11:31Z</time>
  <course>245.84</course>
  <speed>0.0</speed>
  <fix>3d</fix>
</trkpt>
<trkpt lat="33.8106393" lon="-118.3938653">
  <ele>-24.103</ele>
  <time>2026-09-02T22:11:31Z</time>
  <course>27.4</course>
  <speed>0.0316227766016838</speed>
  <fix>3d</fix>
</trkpt>
<trkpt lat="33.8106393" lon="-118.3938653">
  <ele>-24.145</ele>
  <time>2026-09-02T22:11:31Z</time>
  <course>27.41</course>
  <speed>0.0316227766016838</speed>
  <fix>3d</fix>
</trkpt>
<trkpt lat="33.8106395" lon="-118.3938655">
  <ele>-23.36</ele>
  <time>2026-09-02T22:11:31Z</time>
  <course>245.84</course>
  <speed>0.0</speed>
  <fix>3d</fix>
</trkpt>
<trkpt lat="33.8106393" lon="-118.3938653">
  <ele>-24.167</ele>
  <time>2026-09-02T22:11:31Z</time>
  <course>27.41</course>
  <speed>0.0316227766016838</speed>
  <fix>3d</fix>
</trkpt>
<trkpt lat="33.8106393" lon="-118.3938653">
  <ele>-24.207</ele>
  <time>2026-09-02T22:11:31Z</time>
  <course>27.41</course>
  <speed>0.0316227766016838</speed>
  <fix>3d</fix>
</trkpt>
<trkpt lat="33.8106395" lon="-118.3938655">
  <ele>-23.48</ele>
  <time>2026-09-02T22:11:31Z</time>
  <course>245.85</course>
  <speed>0.0</speed>
  <fix>3d</fix>
</trkpt>
<trkpt lat="33.8106393" lon="-118.3938653">
  <ele>-24.227</ele>
  <time>2026-09-02T22:11:31Z</time>
  <course>27.42</course>
  <speed>0.0316227766016838</speed>
  <fix>3d</fix>
</trkpt>
<trkpt lat="33.8106393" lon="-118.3938653">
  <ele>-24.269</ele>
  <time>2026-09-02T22:11:31Z</time>
  <course>27.42</course>
  <speed>0.0316227766016838</speed>
  <fix>3d</fix>
</trkpt>
<trkpt lat="33.8106395" lon="-118.3938655">
  <ele>-23.48</ele>
  <time>2026-09-02T22:11:31Z</time>
  <course>245.85</course>
  <speed>0.0</speed>
  <fix>3d</fix>
</trkpt>
<trkpt lat="33.8106393" lon="-118.3938653">
  <ele>-24.27</ele>
  <time>2026-09-02T22:11:31Z</time>
  <course>27.42</course>
  <speed>0.0316227766016838</speed>
  <fix>3d</fix>
</trkpt>
<trkpt lat="33.8106393" lon="-118.3938653">
  <ele>-24.331</ele>
  <time>2026-09-02T22:11:31Z</time>
  <course>27.43</course>
  <speed>0.03</speed>
  <fix>3d</fix>
</trkpt>
<trkpt lat="33.8106395" lon="-118.3938655">
  <ele>-23.6</ele>
  <time>2026-09-02T22:11:31Z</time>
  <course>245.86</course>
  <speed>0.0</speed>
  <fix>3d</fix>
</trkpt>
<trkpt lat="33.8106393" lon="-118.3938653">
  <ele>-24.354</ele>
  <time>2026-09-02T22:11:31Z</time>
  <course>27.44</course>
  <speed>0.03</speed>
  <fix>3d</fix>
</trkpt>
<trkpt lat="33.8106393" lon="-118.3938653">
  <ele>-24.392</ele>
  <time>2026-09-02T22:11:31Z</time>
  <course>27.44</course>
  <speed>0.03</speed>
  <fix>3d</fix>
</trkpt>
<trkpt lat="33.8106395" lon="-118.3938655">
  <ele>-23.6</ele>
  <time>2026-09-02T22:11:31Z</time>
  <course>245.86</course>
  <speed>0.0</speed>
  <fix>3d</fix>
</trkpt>
<trkpt lat="33.8106393" lon="-118.3938653">
  <ele>-24.413</ele>
  <time>2026-09-02T22:11:31Z</time>
  <course>27.44</course>
  <speed>0.03</speed>
  <fix>3d</fix>
</trkpt>
<trkpt lat="33.8106393" lon="-118.3938653">
  <ele>-24.452</ele>
  <time>2026-09-02T22:11:31Z</time>
  <course>27.45</course>
  <speed>0.03</speed>
  <fix>3d</fix>
</trkpt>
<trkpt lat="33.8106395" lon="-118.3938655">
  <ele>-23.72</ele>
  <time>2026-09-02T22:11:31Z</time>
  <course>245.84</course>
  <speed>0.0</speed>
  <fix>3d</fix>
</trkpt>
<trkpt lat="33.8106393" lon="-118.3938653">
  <ele>-24.454</ele>
  <time>2026-09-02T22:11:31Z</time>
  <course>27.45</course>
  <speed>0.03</speed>
  <fix>3d</fix>
</trkpt>
<trkpt lat="33.8106393" lon="-118.3938653">
  <ele>-24.513</ele>
  <time>2026-09-02T22:11:31Z</time>
  <course>27.46</course>
  <speed>0.03</speed>
  <fix>3d</fix>
</trkpt>
<trkpt lat="33.8106395" lon="-118.3938655">
  <ele>-23.72</ele>
  <time>2026-09-02T22:11:31Z</time>
  <course>245.84</course>
  <speed>0.0</speed>
  <fix>3d</fix>
</trkpt>
<trkpt lat="33.8106393" lon="-118.3938653">
  <ele>-24.516</ele>
  <time>2026-09-02T22:11:31Z</time>
  <course>27.46</course>
  <speed>0.03</speed>
  <fix>3d</fix>
</trkpt>
<trkpt lat="33.8106393" lon="-118.3938653">
  <ele>-24.574</ele>
  <time>2026-09-02T22:11:31Z</time>
  <course>27.47</course>
  <speed>0.03</speed>
  <fix>3d</fix>
</trkpt>
<trkpt lat="33.8106395" lon="-118.3938655">
  <ele>-23.85</ele>
  <time>2026-09-02T22:11:31Z</time>
  <course>245.81</course>
  <speed>0.0</speed>
  <fix>3d</fix>
</trkpt>
<trkpt lat="33.8106393" lon="-118.3938653">
  <ele>-24.596</ele>
  <time>2026-09-02T22:11:31Z</time>
  <course>27.47</course>
  <speed>0.03</speed>
  <fix>3d</fix>
</trkpt>
<trkpt lat="33.8106393" lon="-118.3938653">
  <ele>-24.636</ele>
  <time>2026-09-02T22:11:31Z</time>
  <course>27.47</course>
  <speed>0.03</speed>
  <fix>3d</fix>
</trkpt>
<trkpt lat="33.8106395" lon="-118.3938655">
  <ele>-23.85</ele>
  <time>2026-09-02T22:11:31Z</time>
  <course>245.81</course>
  <speed>0.0</speed>
  <fix>3d</fix>
</trkpt>
<trkpt lat="33.8106393" lon="-118.3938653">
  <ele>-24.655</ele>
  <time>2026-09-02T22:11:31Z</time>
  <course>27.48</course>
  <speed>0.03</speed>
  <fix>3d</fix>
</trkpt>
<trkpt lat="33.8106393" lon="-118.3938653">
  <ele>-24.697</ele>
  <time>2026-09-02T22:11:31Z</time>
  <course>27.48</course>
  <speed>0.0316227766016838</speed>
  <fix>3d</fix>
</trkpt>
<trkpt lat="33.8106395" lon="-118.3938655">
  <ele>-23.97</ele>
  <time>2026-09-02T22:11:31Z</time>
  <course>245.79</course>
  <speed>0.0</speed>
  <fix>3d</fix>
</trkpt>
<trkpt lat="33.8106393" lon="-118.3938653">
  <ele>-24.718</ele>
  <time>2026-09-02T22:11:31Z</time>
  <course>27.48</course>
  <speed>0.0316227766016838</speed>
  <fix>3d</fix>
</trkpt>
<trkpt lat="33.8106393" lon="-118.3938653">
  <ele>-24.758</ele>
  <time>2026-09-02T22:11:31Z</time>
  <course>27.49</course>
  <speed>0.0316227766016838</speed>
  <fix>3d</fix>
</trkpt>
<trkpt lat="33.8106395" lon="-118.3938655">
  <ele>-23.97</ele>
  <time>2026-09-02T22:11:31Z</time>
  <course>245.79</course>
  <speed>0.0</speed>
  <fix>3d</fix>
</trkpt>
<trkpt lat="33.8106393" lon="-118.3938653">
  <ele>-24.779</ele>
  <time>2026-09-02T22:11:31Z</time>
  <course>27.49</course>
  <speed>0.0316227766016838</speed>
  <fix>3d</fix>
</trkpt>
<trkpt lat="33.8106393" lon="-118.3938653">
  <ele>-24.818</ele>
  <time>2026-09-02T22:11:31Z</time>
  <course>27.5</course>
  <speed>0.0316227766016838</speed>
  <fix>3d</fix>
</trkpt>
<trkpt lat="33.8106395" lon="-118.3938655">
  <ele>-24.09</ele>
  <time>2026-09-02T22:11:31Z</time>
  <course>245.78</course>
  <speed>0.0</speed>
  <fix>3d</fix>
</trkpt>
<trkpt lat="33.8106393" lon="-118.3938653">
  <ele>-24.837</ele>
  <time>2026-09-02T22:11:31Z</time>
  <course>27.5</course>
  <speed>0.0316227766016838</speed>
  <fix>3d</fix>
</trkpt>
<trkpt lat="33.8106393" lon="-118.3938653">
  <ele>-24.878</ele>
  <time>2026-09-02T22:11:31Z</time>
  <course>27.51</course>
  <speed>0.0316227766016838</speed>
  <fix>3d</fix>
</trkpt>
<trkpt lat="33.8106395" lon="-118.3938655">
  <ele>-24.09</ele>
  <time>2026-09-02T22:11:31Z</time>
  <course>245.78</course>
  <speed>0.0</speed>
  <fix>3d</fix>
</trkpt>
<trkpt lat="33.8106393" lon="-118.3938653">
  <ele>-24.899</ele>
  <time>2026-09-02T22:11:31Z</time>
  <course>27.51</course>
  <speed>0.0316227766016838</speed>
  <fix>3d</fix>
</trkpt>
<trkpt lat="33.8106393" lon="-118.3938653">
  <ele>-24.938</ele>
  <time>2026-09-02T22:11:31Z</time>
  <course>27.51</course>
  <speed>0.0316227766016838</speed>
  <fix>3d</fix>
</trkpt>
<trkpt lat="33.8106395" lon="-118.3938655">
  <ele>-24.21</ele>
  <time>2026-09-02T22:11:31Z</time>
  <course>245.79</course>
  <speed>0.0</speed>
  <fix>3d</fix>
</trkpt>
<trkpt lat="33.8106393" lon="-118.3938653">
  <ele>-24.94</ele>
  <time>2026-09-02T22:11:31Z</time>
  <course>27.51</course>
  <speed>0.0316227766016838</speed>
  <fix>3d</fix>
</trkpt>
<trkpt lat="33.8106393" lon="-118.3938653">
  <ele>-24.999</ele>
  <time>2026-09-02T22:11:31Z</time>
  <course>27.52</course>
  <speed>0.0316227766016838</speed>
  <fix>3d</fix>
</trkpt>
<trkpt lat="33.8106395" lon="-118.3938655">
  <ele>-24.21</ele>
  <time>2026-09-02T22:11:31Z</time>
  <course>245.79</course>
  <speed>0.0</speed>
  <fix>3d</fix>
</trkpt>
<trkpt lat="33.8106393" lon="-118.3938653">
  <ele>-25.018</ele>
  <time>2026-09-02T22:11:31Z</time>
  <course>27.53</course>
  <speed>0.0316227766016838</speed>
  <fix>3d</fix>
</trkpt>
<trkpt lat="33.8106393" lon="-118.3938653">
  <ele>-25.058</ele>
  <time>2026-09-02T22:11:31Z</time>
  <course>27.53</course>
  <speed>0.0316227766016838</speed>
  <fix>3d</fix>
</trkpt>
<trkpt lat="33.8106395" lon="-118.3938655">
  <ele>-24.33</ele>
  <time>2026-09-02T22:11:31Z</time>
  <course>245.81</course>
  <speed>0.0</speed>
  <fix>3d</fix>
</trkpt>
<trkpt lat="33.8106393" lon="-118.3938653">
  <ele>-25.107</ele>
  <time>2026-09-02T22:11:31Z</time>
  <course>27.54</course>
  <speed>0.0316227766016838</speed>
  <fix>3d</fix>
</trkpt>
<trkpt lat="33.8106395" lon="-118.3938655">
  <ele>-24.33</ele>
  <time>2026-09-02T22:11:31Z</time>
  <course>245.81</course>
  <speed>0.0</speed>
  <fix>3d</fix>
</trkpt>
<trkpt lat="33.8106393" lon="-118.3938653">
  <ele>-25.143</ele>
  <time>2026-09-02T22:11:31Z</time>
  <course>27.55</course>
  <speed>0.0316227766016838</speed>
  <fix>3d</fix>
</trkpt>
<trkpt lat="33.8106395" lon="-118.3938655">
  <ele>-24.43</ele>
  <time>2026-09-02T22:11:31Z</time>
  <course>245.91</course>
  <speed>0.0</speed>
  <fix>3d</fix>
</trkpt>
<trkpt lat="33.8106393" lon="-118.3938653">
  <ele>-25.173</ele>
  <time>2026-09-02T22:11:31Z</time>
  <course>27.56</course>
  <speed>0.0316227766016838</speed>
  <fix>3d</fix>
</trkpt>
<trkpt lat="33.8106395" lon="-118.3938655">
  <ele>-24.43</ele>
  <time>2026-09-02T22:11:31Z</time>
  <course>245.91</course>
  <speed>0.0</speed>
  <fix>3d</fix>
</trkpt>
<trkpt lat="33.8106393" lon="-118.3938653">
  <ele>-25.199</ele>
  <time>2026-09-02T22:11:31Z</time>
  <course>27.56</course>
  <speed>0.0316227766016838</speed>
  <fix>3d</fix>
</trkpt>
<trkpt lat="33.8106395" lon="-118.3938656">
  <ele>-24.52</ele>
  <time>2026-09-02T22:11:31Z</time>
  <course>246.07</course>
  <speed>0.0</speed>
  <fix>3d</fix>
</trkpt>
<trkpt lat="33.8106393" lon="-118.3938653">
  <ele>-25.22</ele>
  <time>2026-09-02T22:11:31Z</time>
  <course>27.57</course>
  <speed>0.0316227766016838</speed>
  <fix>3d</fix>
</trkpt>
<trkpt lat="33.8106395" lon="-118.3938656">
  <ele>-24.52</ele>
  <time>2026-09-02T22:11:31Z</time>
  <course>246.07</course>
  <speed>0.0</speed>
  <fix>3d</fix>
</trkpt>
<trkpt lat="33.8106392" lon="-118.3938653">
  <ele>-25.238</ele>
  <time>2026-09-02T22:11:31Z</time>
  <course>27.58</course>
  <speed>0.0316227766016838</speed>
  <fix>3d</fix>
</trkpt>
<trkpt lat="33.8106395" lon="-118.3938656">
  <ele>-24.57</ele>
  <time>2026-09-02T22:11:31Z</time>
  <course>246.15</course>
  <speed>0.0</speed>
  <fix>3d</fix>
</trkpt>
<trkpt lat="33.8106393" lon="-118.3938653">
  <ele>-25.252</ele>
  <time>2026-09-02T22:11:31Z</time>
  <course>27.59</course>
  <speed>0.0316227766016838</speed>
  <fix>3d</fix>
</trkpt>
<trkpt lat="33.8106395" lon="-118.3938656">
  <ele>-24.57</ele>
  <time>2026-09-02T22:11:31Z</time>
  <course>246.15</course>
  <speed>0.0</speed>
  <fix>3d</fix>
</trkpt>
<trkpt lat="33.8106392" lon="-118.3938654">
  <ele>-25.263</ele>
  <time>2026-09-02T22:11:31Z</time>
  <course>27.6</course>
  <speed>0.0316227766016838</speed>
  <fix>3d</fix>
</trkpt>
<trkpt lat="33.8106395" lon="-118.3938656">
  <ele>-24.6</ele>
  <time>2026-09-02T22:11:31Z</time>
  <course>246.15</course>
  <speed>0.0</speed>
  <fix>3d</fix>
</trkpt>
<trkpt lat="33.8106393" lon="-118.3938654">
  <ele>-25.272</ele>
  <time>2026-09-02T22:11:31Z</time>
  <course>27.61</course>
  <speed>0.0316227766016838</speed>
  <fix>3d</fix>
</trkpt>
<trkpt lat="33.8106395" lon="-118.3938656">
  <ele>-24.6</ele>
  <time>2026-09-02T22:11:31Z</time>
  <course>246.15</course>
  <speed>0.0</speed>
  <fix>3d</fix>
</trkpt>
<trkpt lat="33.8106392" lon="-118.3938654">
  <ele>-25.279</ele>
  <time>2026-09-02T22:11:31Z</time>
  <course>27.61</course>
  <speed>0.0316227766016838</speed>
  <fix>3d</fix>
</trkpt>
<trkpt lat="33.8106395" lon="-118.3938656">
  <ele>-24.63</ele>
  <time>2026-09-02T22:11:31Z</time>
  <course>246.12</course>
  <speed>0.0</speed>
  <fix>3d</fix>
</trkpt>
<trkpt lat="33.8106393" lon="-118.3938654">
  <ele>-25.286</ele>
  <time>2026-09-02T22:11:31Z</time>
  <course>27.62</course>
  <speed>0.0316227766016838</speed>
  <fix>3d</fix>
</trkpt>
<trkpt lat="33.8106395" lon="-118.3938656">
  <ele>-24.63</ele>
  <time>2026-09-02T22:11:31Z</time>
  <course>246.12</course>
  <speed>0.0</speed>
  <fix>3d</fix>
</trkpt>
<trkpt lat="33.8106393" lon="-118.3938654">
  <ele>-25.292</ele>
  <time>2026-09-02T22:11:31Z</time>
  <course>27.63</course>
  <speed>0.0316227766016838</speed>
  <fix>3d</fix>
</trkpt>
<trkpt lat="33.8106395" lon="-118.3938656">
  <ele>-24.65</ele>
  <time>2026-09-02T22:11:31Z</time>
  <course>246.1</course>
  <speed>0.0</speed>
  <fix>3d</fix>
</trkpt>
<trkpt lat="33.8106393" lon="-118.3938654">
  <ele>-25.297</ele>
  <time>2026-09-02T22:11:31Z</time>
  <course>27.64</course>
  <speed>0.0316227766016838</speed>
  <fix>3d</fix>
</trkpt>
<trkpt lat="33.8106395" lon="-118.3938656">
  <ele>-24.65</ele>
  <time>2026-09-02T22:11:31Z</time>
  <course>246.1</course>
  <speed>0.0</speed>
  <fix>3d</fix>
</trkpt>
<trkpt lat="33.8106393" lon="-118.3938654">
  <ele>-25.302</ele>
  <time>2026-09-02T22:11:31Z</time>
  <course>27.53</course>
  <speed>0.0316227766016838</speed>
  <fix>3d</fix>
</trkpt>
<trkpt lat="33.8106395" lon="-118.3938656">
  <ele>-24.67</ele>
  <time>2026-09-02T22:11:31Z</time>
  <course>246.1</course>
  <speed>0.0</speed>
  <fix>3d</fix>
</trkpt>
<trkpt lat="33.8106393" lon="-118.3938654">
  <ele>-25.305</ele>
  <time>2026-09-02T22:11:31Z</time>
  <course>26.7</course>
  <speed>0.0316227766016838</speed>
  <fix>3d</fix>
</trkpt>
<trkpt lat="33.8106395" lon="-118.3938656">
  <ele>-24.67</ele>
  <time>2026-09-02T22:11:31Z</time>
  <course>246.1</course>
  <speed>0.0</speed>
  <fix>3d</fix>
</trkpt>
<trkpt lat="33.8106392" lon="-118.3938654">
  <ele>-25.309</ele>
  <time>2026-09-02T22:11:31Z</time>
  <course>25.49</course>
  <speed>0.0316227766016838</speed>
  <fix>3d</fix>
</trkpt>
<trkpt lat="33.8106395" lon="-118.3938656">
  <ele>-24.68</ele>
  <time>2026-09-02T22:11:31Z</time>
  <course>221.55</course>
  <speed>0.0</speed>
  <fix>3d</fix>
</trkpt>
<trkpt lat="33.8106392" lon="-118.3938654">
  <ele>-25.312</ele>
  <time>2026-09-02T22:11:31Z</time>
  <course>24.23</course>
  <speed>0.0316227766016838</speed>
  <fix>3d</fix>
</trkpt>
<trkpt lat="33.8106395" lon="-118.3938656">
  <ele>-24.68</ele>
  <time>2026-09-02T22:11:31Z</time>
  <course>221.55</course>
  <speed>0.0</speed>
  <fix>3d</fix>
</trkpt>
<trkpt lat="33.8106392" lon="-118.3938654">
  <ele>-25.314</ele>
  <time>2026-09-02T22:11:31Z</time>
  <course>23.17</course>
  <speed>0.0316227766016838</speed>
  <fix>3d</fix>
</trkpt>
<trkpt lat="33.8106395" lon="-118.3938656">
  <ele>-24.69</ele>
  <time>2026-09-02T22:11:31Z</time>
  <course>191.11</course>
  <speed>0.0</speed>
  <fix>3d</fix>
</trkpt>
<trkpt lat="33.8106392" lon="-118.3938654">
  <ele>-25.315</ele>
  <time>2026-09-02T22:11:31Z</time>
  <course>22.45</course>
  <speed>0.0316227766016838</speed>
  <fix>3d</fix>
</trkpt>
<trkpt lat="33.8106395" lon="-118.3938656">
  <ele>-24.69</ele>
  <time>2026-09-02T22:11:31Z</time>
  <course>191.11</course>
  <speed>0.0</speed>
  <fix>3d</fix>
</trkpt>
<trkpt lat="33.8106392" lon="-118.3938654">
  <ele>-25.315</ele>
  <time>2026-09-02T22:11:31Z</time>
  <course>21.92</course>
  <speed>0.0316227766016838</speed>
  <fix>3d</fix>
</trkpt>
<trkpt lat="33.8106394" lon="-118.3938656">
  <ele>-24.7</ele>
  <time>2026-09-02T22:11:31Z</time>
  <course>182.24</course>
  <speed>0.0</speed>
  <fix>3d</fix>
</trkpt>
<trkpt lat="33.8106392" lon="-118.3938654">
  <ele>-25.314</ele>
  <time>2026-09-02T22:11:31Z</time>
  <course>21.49</course>
  <speed>0.0316227766016838</speed>
  <fix>3d</fix>
</trkpt>
<trkpt lat="33.8106394" lon="-118.3938656">
  <ele>-24.7</ele>
  <time>2026-09-02T22:11:31Z</time>
  <course>182.24</course>
  <speed>0.0</speed>
  <fix>3d</fix>
</trkpt>
<trkpt lat="33.8106392" lon="-118.3938654">
  <ele>-25.314</ele>
  <time>2026-09-02T22:11:31Z</time>
  <course>21.41</course>
  <speed>0.0316227766016838</speed>
  <fix>3d</fix>
</trkpt>
<trkpt lat="33.8106392" lon="-118.3938654">
  <ele>-25.314</ele>
  <time>2026-09-02T22:11:31Z</time>
  <course>21.14</course>
  <speed>0.0316227766016838</speed>
  <fix>3d</fix>
</trkpt>
<trkpt lat="33.8106394" lon="-118.3938656">
  <ele>-24.7</ele>
  <time>2026-09-02T22:11:31Z</time>
  <course>181.22</course>
  <speed>0.0</speed>
  <fix>3d</fix>
</trkpt>
<trkpt lat="33.8106392" lon="-118.3938654">
  <ele>-25.314</ele>
  <time>2026-09-02T22:11:31Z</time>
  <course>20.83</course>
  <speed>0.0316227766016838</speed>
  <fix>3d</fix>
</trkpt>
<trkpt lat="33.8106394" lon="-118.3938656">
  <ele>-24.7</ele>
  <time>2026-09-02T22:11:31Z</time>
  <course>181.22</course>
  <speed>0.0</speed>
  <fix>3d</fix>
</trkpt>
<trkpt lat="33.8106392" lon="-118.3938654">
  <ele>-25.315</ele>
  <time>2026-09-02T22:11:31Z</time>
  <course>20.56</course>
  <speed>0.0316227766016838</speed>
  <fix>3d</fix>
</trkpt>
<trkpt lat="33.8106394" lon="-118.3938656">
  <ele>-24.7</ele>
  <time>2026-09-02T22:11:31Z</time>
  <course>181.19</course>
  <speed>0.0</speed>
  <fix>3d</fix>
</trkpt>
<trkpt lat="33.8106392" lon="-118.3938654">
  <ele>-25.315</ele>
  <time>2026-09-02T22:11:31Z</time>
  <course>20.46</course>
  <speed>0.0316227766016838</speed>
  <fix>3d</fix>
</trkpt>
<trkpt lat="33.8106392" lon="-118.3938654">
  <ele>-25.315</ele>
  <time>2026-09-02T22:11:31Z</time>
  <course>20.42</course>
  <speed>0.0316227766016838</speed>
  <fix>3d</fix>
</trkpt>
<trkpt lat="33.8106392" lon="-118.3938654">
  <ele>-25.315</ele>
  <time>2026-09-02T22:11:31Z</time>
  <course>20.4</course>
  <speed>0.0316227766016838</speed>
  <fix>3d</fix>
</trkpt>
<trkpt lat="33.8106392" lon="-118.3938654">
  <ele>-25.315</ele>
  <time>2026-09-02T22:11:31Z</time>
  <course>20.37</course>
  <speed>0.0316227766016838</speed>
  <fix>3d</fix>
</trkpt>
<trkpt lat="33.8106392" lon="-118.3938654">
  <ele>-25.315</ele>
  <time>2026-09-02T22:11:31Z</time>
  <course>20.35</course>
  <speed>0.0316227766016838</speed>
  <fix>3d</fix>
</trkpt>
<trkpt lat="33.8106392" lon="-118.3938654">
  <ele>-25.315</ele>
  <time>2026-09-02T22:11:31Z</time>
  <course>20.33</course>
  <speed>0.0316227766016838</speed>
  <fix>3d</fix>
</trkpt>
<trkpt lat="33.8106392" lon="-118.3938654">
  <ele>-25.315</ele>
  <time>2026-09-02T22:11:31Z</time>
  <course>20.31</course>
  <speed>0.0316227766016838</speed>
  <fix>3d</fix>
</trkpt>
<trkpt lat="33.8106392" lon="-118.3938654">
  <ele>-25.315</ele>
  <time>2026-09-02T22:11:31Z</time>
  <course>20.3</course>
  <speed>0.0316227766016838</speed>
  <fix>3d</fix>
</trkpt>
<trkpt lat="33.8106394" lon="-118.3938656">
  <ele>-24.7</ele>
  <time>2026-09-02T22:11:31Z</time>
  <course>181.19</course>
  <speed>0.0</speed>
  <fix>3d</fix>
</trkpt>
<trkpt lat="33.8106392" lon="-118.3938654">
  <ele>-25.315</ele>
  <time>2026-09-02T22:11:31Z</time>
  <course>20.29</course>
  <speed>0.0316227766016838</speed>
  <fix>3d</fix>
</trkpt>
<trkpt lat="33.8106392" lon="-118.3938654">
  <ele>-25.315</ele>
  <time>2026-09-02T22:11:31Z</time>
  <course>20.26</course>
  <speed>0.03605551275463989</speed>
  <fix>3d</fix>
</trkpt>
<trkpt lat="33.8106392" lon="-118.3938654">
  <ele>-25.315</ele>
  <time>2026-09-02T22:11:31Z</time>
  <course>20.24</course>
  <speed>0.03605551275463989</speed>
  <fix>3d</fix>
</trkpt>
<trkpt lat="33.8106392" lon="-118.3938654">
  <ele>-25.315</ele>
  <time>2026-09-02T22:11:31Z</time>
  <course>20.22</course>
  <speed>0.03605551275463989</speed>
  <fix>3d</fix>
</trkpt>
<trkpt lat="33.8106392" lon="-118.3938654">
  <ele>-25.315</ele>
  <time>2026-09-02T22:11:31Z</time>
  <course>20.2</course>
  <speed>0.03605551275463989</speed>
  <fix>3d</fix>
</trkpt>
<trkpt lat="33.8106392" lon="-118.3938654">
  <ele>-25.315</ele>
  <time>2026-09-02T22:11:31Z</time>
  <course>20.18</course>
  <speed>0.03605551275463989</speed>
  <fix>3d</fix>
</trkpt>
<trkpt lat="33.8106392" lon="-118.3938654">
  <ele>-25.315</ele>
  <time>2026-09-02T22:11:31Z</time>
  <course>20.16</course>
  <speed>0.03605551275463989</speed>
  <fix>3d</fix>
</trkpt>
<trkpt lat="33.8106392" lon="-118.3938654">
  <ele>-25.315</ele>
  <time>2026-09-02T22:11:31Z</time>
  <course>20.13</course>
  <speed>0.0282842712474619</speed>
  <fix>3d</fix>
</trkpt>
<trkpt lat="33.8106392" lon="-118.3938654">
  <ele>-25.315</ele>
  <time>2026-09-02T22:11:31Z</time>
  <course>20.11</course>
  <speed>0.0282842712474619</speed>
  <fix>3d</fix>
</trkpt>
<trkpt lat="33.8106392" lon="-118.3938654">
  <ele>-25.315</ele>
  <time>2026-09-02T22:11:31Z</time>
  <course>20.09</course>
  <speed>0.0282842712474619</speed>
  <fix>3d</fix>
</trkpt>
<trkpt lat="33.8106392" lon="-118.3938654">
  <ele>-25.315</ele>
  <time>2026-09-02T22:11:31Z</time>
  <course>20.07</course>
  <speed>0.0282842712474619</speed>
  <fix>3d</fix>
</trkpt>
<trkpt lat="33.8106392" lon="-118.3938654">
  <ele>-25.315</ele>
  <time>2026-09-02T22:11:31Z</time>
  <course>20.04</course>
  <speed>0.03605551275463989</speed>
  <fix>3d</fix>
</trkpt>
<trkpt lat="33.8106392" lon="-118.3938654">
  <ele>-25.315</ele>
  <time>2026-09-02T22:11:31Z</time>
  <course>20.02</course>
  <speed>0.03605551275463989</speed>
  <fix>3d</fix>
</trkpt>
<trkpt lat="33.8106392" lon="-118.3938654">
  <ele>-25.315</ele>
  <time>2026-09-02T22:11:31Z</time>
  <course>20.02</course>
  <speed>0.03605551275463989</speed>
  <fix>3d</fix>
</trkpt>
<trkpt lat="33.8106394" lon="-118.3938656">
  <ele>-24.7</ele>
  <time>2026-09-02T22:11:31Z</time>
  <course>132.0</course>
  <speed>0.0</speed>
  <fix>3d</fix>
</trkpt>
<trkpt lat="33.8106392" lon="-118.3938654">
  <ele>-25.315</ele>
  <time>2026-09-02T22:11:31Z</time>
  <course>19.98</course>
  <speed>0.03605551275463989</speed>
  <fix>3d</fix>
</trkpt>
<trkpt lat="33.8106392" lon="-118.3938654">
  <ele>-25.315</ele>
  <time>2026-09-02T22:11:31Z</time>
  <course>19.96</course>
  <speed>0.0316227766016838</speed>
  <fix>3d</fix>
</trkpt>
<trkpt lat="33.8106392" lon="-118.3938654">
  <ele>-25.315</ele>
  <time>2026-09-02T22:11:31Z</time>
  <course>19.94</course>
  <speed>0.0316227766016838</speed>
  <fix>3d</fix>
</trkpt>
<trkpt lat="33.8106392" lon="-118.3938654">
  <ele>-25.315</ele>
  <time>2026-09-02T22:11:31Z</time>
  <course>19.92</course>
  <speed>0.0316227766016838</speed>
  <fix>3d</fix>
</trkpt>
<trkpt lat="33.8106392" lon="-118.3938654">
  <ele>-25.315</ele>
  <time>2026-09-02T22:11:31Z</time>
  <course>19.91</course>
  <speed>0.0316227766016838</speed>
  <fix>3d</fix>
</trkpt>
<trkpt lat="33.8106392" lon="-118.3938654">
  <ele>-25.315</ele>
  <time>2026-09-02T22:11:31Z</time>
  <course>19.89</course>
  <speed>0.0412310562561766</speed>
  <fix>3d</fix>
</trkpt>
<trkpt lat="33.8106392" lon="-118.3938654">
  <ele>-25.315</ele>
  <time>2026-09-02T22:11:31Z</time>
  <course>19.87</course>
  <speed>0.0412310562561766</speed>
  <fix>3d</fix>
</trkpt>
<trkpt lat="33.8106392" lon="-118.3938654">
  <ele>-25.315</ele>
  <time>2026-09-02T22:11:31Z</time>
  <course>19.85</course>
  <speed>0.0412310562561766</speed>
  <fix>3d</fix>
</trkpt>
<trkpt lat="33.8106392" lon="-118.3938654">
  <ele>-25.316</ele>
  <time>2026-09-02T22:11:31Z</time>
  <course>19.84</course>
  <speed>0.04</speed>
  <fix>3d</fix>
</trkpt>
<trkpt lat="33.8106392" lon="-118.3938654">
  <ele>-25.316</ele>
  <time>2026-09-02T22:11:31Z</time>
  <course>19.82</course>
  <speed>0.04</speed>
  <fix>3d</fix>
</trkpt>
<trkpt lat="33.8106392" lon="-118.3938654">
  <ele>-25.316</ele>
  <time>2026-09-02T22:11:31Z</time>
  <course>19.81</course>
  <speed>0.04</speed>
  <fix>3d</fix>
</trkpt>
<trkpt lat="33.8106392" lon="-118.3938654">
  <ele>-25.316</ele>
  <time>2026-09-02T22:11:31Z</time>
  <course>19.8</course>
  <speed>0.05</speed>
  <fix>3d</fix>
</trkpt>
<trkpt lat="33.8106394" lon="-118.3938656">
  <ele>-24.7</ele>
  <time>2026-09-02T22:11:31Z</time>
  <course>132.0</course>
  <speed>0.0</speed>
  <fix>3d</fix>
</trkpt>
<trkpt lat="33.8106392" lon="-118.3938654">
  <ele>-25.316</ele>
  <time>2026-09-02T22:11:31Z</time>
  <course>19.79</course>
  <speed>0.05</speed>
  <fix>3d</fix>
</trkpt>
<trkpt lat="33.8106392" lon="-118.3938654">
  <ele>-25.316</ele>
  <time>2026-09-02T22:11:31Z</time>
  <course>19.77</course>
  <speed>0.05</speed>
  <fix>3d</fix>
</trkpt>
<trkpt lat="33.8106392" lon="-118.3938654">
  <ele>-25.316</ele>
  <time>2026-09-02T22:11:31Z</time>
  <course>19.76</course>
  <speed>0.05</speed>
  <fix>3d</fix>
</trkpt>
<trkpt lat="33.8106392" lon="-118.3938654">
  <ele>-25.316</ele>
  <time>2026-09-02T22:11:31Z</time>
  <course>19.75</course>
  <speed>0.05</speed>
  <fix>3d</fix>
</trkpt>
<trkpt lat="33.8106392" lon="-118.3938654">
  <ele>-25.316</ele>
  <time>2026-09-02T22:11:31Z</time>
  <course>19.74</course>
  <speed>0.06</speed>
  <fix>3d</fix>
</trkpt>
<trkpt lat="33.8106392" lon="-118.3938654">
  <ele>-25.316</ele>
  <time>2026-09-02T22:11:31Z</time>
  <course>19.73</course>
  <speed>0.06</speed>
  <fix>3d</fix>
</trkpt>
<trkpt lat="33.8106392" lon="-118.3938654">
  <ele>-25.317</ele>
  <time>2026-09-02T22:11:31Z</time>
  <course>19.72</course>
  <speed>0.06</speed>
  <fix>3d</fix>
</trkpt>
<trkpt lat="33.8106392" lon="-118.3938654">
  <ele>-25.317</ele>
  <time>2026-09-02T22:11:31Z</time>
  <course>19.71</course>
  <speed>0.06</speed>
  <fix>3d</fix>
</trkpt>
<trkpt lat="33.8106392" lon="-118.3938654">
  <ele>-25.317</ele>
  <time>2026-09-02T22:11:31Z</time>
  <course>19.7</course>
  <speed>0.06082762530298219</speed>
  <fix>3d</fix>
</trkpt>
<trkpt lat="33.8106392" lon="-118.3938654">
  <ele>-25.317</ele>
  <time>2026-09-02T22:11:31Z</time>
  <course>19.69</course>
  <speed>0.07071067811865475</speed>
  <fix>3d</fix>
</trkpt>
<trkpt lat="33.8106392" lon="-118.3938654">
  <ele>-25.317</ele>
  <time>2026-09-02T22:11:31Z</time>
  <course>19.69</course>
  <speed>0.07071067811865475</speed>
  <fix>3d</fix>
</trkpt>
<trkpt lat="33.8106392" lon="-118.3938654">
  <ele>-25.317</ele>
  <time>2026-09-02T22:11:31Z</time>
  <course>19.68</course>
  <speed>0.07071067811865475</speed>
  <fix>3d</fix>
</trkpt>
<trkpt lat="33.8106392" lon="-118.3938654">
  <ele>-25.318</ele>
  <time>2026-09-02T22:11:31Z</time>
  <course>19.67</course>
  <speed>0.07071067811865475</speed>
  <fix>3d</fix>
</trkpt>
<trkpt lat="33.8106394" lon="-118.3938656">
  <ele>-24.71</ele>
  <time>2026-09-02T22:11:31Z</time>
  <course>58.86</course>
  <speed>0.02</speed>
  <fix>3d</fix>
</trkpt>
<trkpt lat="33.8106392" lon="-118.3938654">
  <ele>-25.318</ele>
  <time>2026-09-02T22:11:31Z</time>
  <course>19.67</course>
  <speed>0.07071067811865475</speed>
  <fix>3d</fix>
</trkpt>
<trkpt lat="33.8106392" lon="-118.3938654">
  <ele>-25.318</ele>
  <time>2026-09-02T22:11:31Z</time>
  <course>19.67</course>
  <speed>0.07280109889280519</speed>
  <fix>3d</fix>
</trkpt>
<trkpt lat="33.8106392" lon="-118.3938654">
  <ele>-25.318</ele>
  <time>2026-09-02T22:11:31Z</time>
  <course>19.66</course>
  <speed>0.0824621125123532</speed>
  <fix>3d</fix>
</trkpt>
<trkpt lat="33.8106392" lon="-118.3938654">
  <ele>-25.318</ele>
  <time>2026-09-02T22:11:31Z</time>
  <course>19.66</course>
  <speed>0.0824621125123532</speed>
  <fix>3d</fix>
</trkpt>
<trkpt lat="33.8106392" lon="-118.3938654">
  <ele>-25.318</ele>
  <time>2026-09-02T22:11:31Z</time>
  <course>19.65</course>
  <speed>0.0824621125123532</speed>
  <fix>3d</fix>
</trkpt>
<trkpt lat="33.8106392" lon="-118.3938654">
  <ele>-25.318</ele>
  <time>2026-09-02T22:11:31Z</time>
  <course>19.65</course>
  <speed>0.0854400374531753</speed>
  <fix>3d</fix>
</trkpt>
<trkpt lat="33.8106392" lon="-118.3938654">
  <ele>-25.318</ele>
  <time>2026-09-02T22:11:31Z</time>
  <course>19.65</course>
  <speed>0.09486832980505139</speed>
  <fix>3d</fix>
</trkpt>
<trkpt lat="33.8106392" lon="-118.3938654">
  <ele>-25.318</ele>
  <time>2026-09-02T22:11:31Z</time>
  <course>19.65</course>
  <speed>0.09486832980505139</speed>
  <fix>3d</fix>
</trkpt>
<trkpt lat="33.8106392" lon="-118.3938653">
  <ele>-25.318</ele>
  <time>2026-09-02T22:11:31Z</time>
  <course>19.65</course>
  <speed>0.09486832980505139</speed>
  <fix>3d</fix>
</trkpt>
<trkpt lat="33.8106392" lon="-118.3938653">
  <ele>-25.319</ele>
  <time>2026-09-02T22:11:31Z</time>
  <course>19.65</course>
  <speed>0.09848857801796104</speed>
  <fix>3d</fix>
</trkpt>
<trkpt lat="33.8106392" lon="-118.3938653">
  <ele>-25.319</ele>
  <time>2026-09-02T22:11:31Z</time>
  <course>19.65</course>
  <speed>0.10770329614269007</speed>
  <fix>3d</fix>
</trkpt>
<trkpt lat="33.8106392" lon="-118.3938653">
  <ele>-25.319</ele>
  <time>2026-09-02T22:11:31Z</time>
  <course>19.65</course>
  <speed>0.10770329614269007</speed>
  <fix>3d</fix>
</trkpt>
<trkpt lat="33.8106392" lon="-118.3938653">
  <ele>-25.319</ele>
  <time>2026-09-02T22:11:31Z</time>
  <course>19.65</course>
  <speed>0.10770329614269007</speed>
  <fix>3d</fix>
</trkpt>
<trkpt lat="33.8106392" lon="-118.3938653">
  <ele>-25.319</ele>
  <time>2026-09-02T22:11:31Z</time>
  <course>19.65</course>
  <speed>0.10770329614269007</speed>
  <fix>3d</fix>
</trkpt>
<trkpt lat="33.8106394" lon="-118.3938656">
  <ele>-24.71</ele>
  <time>2026-09-02T22:11:31Z</time>
  <course>58.86</course>
  <speed>0.02</speed>
  <fix>3d</fix>
</trkpt>
<trkpt lat="33.8106392" lon="-118.3938653">
  <ele>-25.319</ele>
  <time>2026-09-02T22:11:31Z</time>
  <course>19.65</course>
  <speed>0.12083045973594572</speed>
  <fix>3d</fix>
</trkpt>
<trkpt lat="33.8106392" lon="-118.3938653">
  <ele>-25.319</ele>
  <time>2026-09-02T22:11:31Z</time>
  <course>19.65</course>
  <speed>0.12083045973594572</speed>
  <fix>3d</fix>
</trkpt>
<trkpt lat="33.8106392" lon="-118.3938653">
  <ele>-25.319</ele>
  <time>2026-09-02T22:11:31Z</time>
  <course>19.65</course>
  <speed>0.12083045973594572</speed>
  <fix>3d</fix>
</trkpt>
<trkpt lat="33.8106392" lon="-118.3938653">
  <ele>-25.319</ele>
  <time>2026-09-02T22:11:31Z</time>
  <course>19.65</course>
  <speed>0.1341640786499874</speed>
  <fix>3d</fix>
</trkpt>
<trkpt lat="33.8106392" lon="-118.3938653">
  <ele>-25.32</ele>
  <time>2026-09-02T22:11:31Z</time>
  <course>19.66</course>
  <speed>0.1341640786499874</speed>
  <fix>3d</fix>
</trkpt>
<trkpt lat="33.8106392" lon="-118.3938652">
  <ele>-25.32</ele>
  <time>2026-09-02T22:11:31Z</time>
  <course>19.66</course>
  <speed>0.1341640786499874</speed>
  <fix>3d</fix>
</trkpt>
<trkpt lat="33.8106393" lon="-118.3938652">
  <ele>-25.32</ele>
  <time>2026-09-02T22:11:31Z</time>
  <course>19.66</course>
  <speed>0.14317821063276354</speed>
  <fix>3d</fix>
</trkpt>
<trkpt lat="33.8106393" lon="-118.3938652">
  <ele>-25.32</ele>
  <time>2026-09-02T22:11:31Z</time>
  <course>19.66</course>
  <speed>0.147648230602334</speed>
  <fix>3d</fix>
</trkpt>
<trkpt lat="33.8106393" lon="-118.3938652">
  <ele>-25.32</ele>
  <time>2026-09-02T22:11:31Z</time>
  <course>19.67</course>
  <speed>0.147648230602334</speed>
  <fix>3d</fix>
</trkpt>
<trkpt lat="33.8106393" lon="-118.3938652">
  <ele>-25.32</ele>
  <time>2026-09-02T22:11:31Z</time>
  <course>19.67</course>
  <speed>0.147648230602334</speed>
  <fix>3d</fix>
</trkpt>
<trkpt lat="33.8106393" lon="-118.3938652">
  <ele>-25.32</ele>
  <time>2026-09-02T22:11:31Z</time>
  <course>19.67</course>
  <speed>0.16124515496597097</speed>
  <fix>3d</fix>
</trkpt>
<trkpt lat="33.8106393" lon="-118.3938652">
  <ele>-25.32</ele>
  <time>2026-09-02T22:11:31Z</time>
  <course>19.67</course>
  <speed>0.16124515496597097</speed>
  <fix>3d</fix>
</trkpt>
<trkpt lat="33.8106394" lon="-118.3938655">
  <ele>-24.71</ele>
  <time>2026-09-02T22:11:31Z</time>
  <course>49.53</course>
  <speed>0.09</speed>
  <fix>3d</fix>
</trkpt>
<trkpt lat="33.8106393" lon="-118.3938652">
  <ele>-25.32</ele>
  <time>2026-09-02T22:11:31Z</time>
  <course>19.68</course>
  <speed>0.16124515496597097</speed>
  <fix>3d</fix>
</trkpt>
<trkpt lat="33.8106393" lon="-118.3938652">
  <ele>-25.321</ele>
  <time>2026-09-02T22:11:31Z</time>
  <course>19.68</course>
  <speed>0.17492855684535902</speed>
  <fix>3d</fix>
</trkpt>
<trkpt lat="33.8106393" lon="-118.3938652">
  <ele>-25.321</ele>
  <time>2026-09-02T22:11:31Z</time>
  <course>19.68</course>
  <speed>0.17492855684535902</speed>
  <fix>3d</fix>
</trkpt>
<trkpt lat="33.8106393" lon="-118.3938651">
  <ele>-25.321</ele>
  <time>2026-09-02T22:11:31Z</time>
  <course>19.68</course>
  <speed>0.17492855684535902</speed>
  <fix>3d</fix>
</trkpt>
<trkpt lat="33.8106393" lon="-118.3938651">
  <ele>-25.321</ele>
  <time>2026-09-02T22:11:31Z</time>
  <course>19.69</course>
  <speed>0.1835755975068582</speed>
  <fix>3d</fix>
</trkpt>
<trkpt lat="33.8106393" lon="-118.3938651">
  <ele>-25.321</ele>
  <time>2026-09-02T22:11:31Z</time>
  <course>19.69</course>
  <speed>0.18867962264113206</speed>
  <fix>3d</fix>
</trkpt>
<trkpt lat="33.8106393" lon="-118.3938651">
  <ele>-25.321</ele>
  <time>2026-09-02T22:11:31Z</time>
  <course>19.69</course>
  <speed>0.18867962264113206</speed>
  <fix>3d</fix>
</trkpt>
<trkpt lat="33.8106394" lon="-118.3938651">
  <ele>-25.321</ele>
  <time>2026-09-02T22:11:31Z</time>
  <course>19.69</course>
  <speed>0.18867962264113206</speed>
  <fix>3d</fix>
</trkpt>
<trkpt lat="33.8106394" lon="-118.3938651">
  <ele>-25.321</ele>
  <time>2026-09-02T22:11:31Z</time>
  <course>19.7</course>
  <speed>0.1972308292331602</speed>
  <fix>3d</fix>
</trkpt>
<trkpt lat="33.8106394" lon="-118.3938651">
  <ele>-25.321</ele>
  <time>2026-09-02T22:11:31Z</time>
  <course>19.7</course>
  <speed>0.20248456731316586</speed>
  <fix>3d</fix>
</trkpt>
<trkpt lat="33.8106394" lon="-118.3938651">
  <ele>-25.321</ele>
  <time>2026-09-02T22:11:31Z</time>
  <course>19.7</course>
  <speed>0.20248456731316586</speed>
  <fix>3d</fix>
</trkpt>
<trkpt lat="33.8106394" lon="-118.393865">
  <ele>-25.321</ele>
  <time>2026-09-02T22:11:31Z</time>
  <course>19.7</course>
  <speed>0.2109502310972899</speed>
  <fix>3d</fix>
</trkpt>
<trkpt lat="33.8106394" lon="-118.393865">
  <ele>-25.321</ele>
  <time>2026-09-02T22:11:31Z</time>
  <course>19.7</course>
  <speed>0.2109502310972899</speed>
  <fix>3d</fix>
</trkpt>
<trkpt lat="33.8106394" lon="-118.3938655">
  <ele>-24.71</ele>
  <time>2026-09-02T22:11:31Z</time>
  <course>49.53</course>
  <speed>0.09</speed>
  <fix>3d</fix>
</trkpt>
<trkpt lat="33.8106394" lon="-118.393865">
  <ele>-25.321</ele>
  <time>2026-09-02T22:11:31Z</time>
  <course>19.71</course>
  <speed>0.21633307652783937</speed>
  <fix>3d</fix>
</trkpt>
<trkpt lat="33.8106394" lon="-118.393865">
  <ele>-25.321</ele>
  <time>2026-09-02T22:11:31Z</time>
  <course>19.71</course>
  <speed>0.22472205054244232</speed>
  <fix>3d</fix>
</trkpt>
<trkpt lat="33.8106394" lon="-118.393865">
  <ele>-25.321</ele>
  <time>2026-09-02T22:11:31Z</time>
  <course>19.72</course>
  <speed>0.23021728866442676</speed>
  <fix>3d</fix>
</trkpt>
<trkpt lat="33.8106394" lon="-118.393865">
  <ele>-25.32</ele>
  <time>2026-09-02T22:11:31Z</time>
  <course>19.72</course>
  <speed>0.23021728866442676</speed>
  <fix>3d</fix>
</trkpt>
<trkpt lat="33.8106395" lon="-118.393865">
  <ele>-25.32</ele>
  <time>2026-09-02T22:11:31Z</time>
  <course>19.72</course>
  <speed>0.23853720883753127</speed>
  <fix>3d</fix>
</trkpt>
<trkpt lat="33.8106395" lon="-118.3938649">
  <ele>-25.32</ele>
  <time>2026-09-02T22:11:31Z</time>
  <course>19.72</course>
  <speed>0.23853720883753127</speed>
  <fix>3d</fix>
</trkpt>
<trkpt lat="33.8106395" lon="-118.3938649">
  <ele>-25.32</ele>
  <time>2026-09-02T22:11:31Z</time>
  <course>19.72</course>
  <speed>0.24413111231467405</speed>
  <fix>3d</fix>
</trkpt>
<trkpt lat="33.8106395" lon="-118.3938649">
  <ele>-25.32</ele>
  <time>2026-09-02T22:11:31Z</time>
  <course>19.73</course>
  <speed>0.24413111231467405</speed>
  <fix>3d</fix>
</trkpt>
<trkpt lat="33.8106395" lon="-118.3938649">
  <ele>-25.32</ele>
  <time>2026-09-02T22:11:31Z</time>
  <course>19.73</course>
  <speed>0.25238858928247926</speed>
  <fix>3d</fix>
</trkpt>
<trkpt lat="33.8106395" lon="-118.3938649">
  <ele>-25.32</ele>
  <time>2026-09-02T22:11:31Z</time>
  <course>19.73</course>
  <speed>0.2580697580112788</speed>
  <fix>3d</fix>
</trkpt>
<trkpt lat="33.8106395" lon="-118.3938649">
  <ele>-25.32</ele>
  <time>2026-09-02T22:11:31Z</time>
  <course>19.73</course>
  <speed>0.2580697580112788</speed>
  <fix>3d</fix>
</trkpt>
<trkpt lat="33.8106395" lon="-118.3938649">
  <ele>-25.32</ele>
  <time>2026-09-02T22:11:31Z</time>
  <course>19.73</course>
  <speed>0.266270539113887</speed>
  <fix>3d</fix>
</trkpt>
<trkpt lat="33.8106395" lon="-118.3938649">
  <ele>-25.32</ele>
  <time>2026-09-02T22:11:31Z</time>
  <course>19.73</course>
  <speed>0.266270539113887</speed>
  <fix>3d</fix>
</trkpt>
<trkpt lat="33.8106395" lon="-118.3938653">
  <ele>-24.71</ele>
  <time>2026-09-02T22:11:31Z</time>
  <course>47.05</course>
  <speed>0.18</speed>
  <fix>3d</fix>
</trkpt>
<trkpt lat="33.8106396" lon="-118.3938648">
  <ele>-25.32</ele>
  <time>2026-09-02T22:11:31Z</time>
  <course>19.73</course>
  <speed>0.2720294101747089</speed>
  <fix>3d</fix>
</trkpt>
<trkpt lat="33.8106396" lon="-118.3938648">
  <ele>-25.319</ele>
  <time>2026-09-02T22:11:31Z</time>
  <course>19.73</course>
  <speed>0.280178514522438</speed>
  <fix>3d</fix>
</trkpt>
<trkpt lat="33.8106396" lon="-118.3938648">
  <ele>-25.319</ele>
  <time>2026-09-02T22:11:31Z</time>
  <course>19.73</course>
  <speed>0.28600699292150183</speed>
  <fix>3d</fix>
</trkpt>
<trkpt lat="33.8106396" lon="-118.3938648">
  <ele>-25.319</ele>
  <time>2026-09-02T22:11:31Z</time>
  <course>19.73</course>
  <speed>0.28600699292150183</speed>
  <fix>3d</fix>
</trkpt>
<trkpt lat="33.8106396" lon="-118.3938647">
  <ele>-25.319</ele>
  <time>2026-09-02T22:11:31Z</time>
  <course>19.73</course>
  <speed>0.29410882339705485</speed>
  <fix>3d</fix>
</trkpt>
<trkpt lat="33.8106396" lon="-118.3938647">
  <ele>-25.319</ele>
  <time>2026-09-02T22:11:31Z</time>
  <course>19.73</course>
  <speed>0.3</speed>
  <fix>3d</fix>
</trkpt>
<trkpt lat="33.8106396" lon="-118.3938647">
  <ele>-25.318</ele>
  <time>2026-09-02T22:11:31Z</time>
  <course>19.73</course>
  <speed>0.3080584360149873</speed>
  <fix>3d</fix>
</trkpt>
<trkpt lat="33.8106397" lon="-118.3938647">
  <ele>-25.318</ele>
  <time>2026-09-02T22:11:31Z</time>
  <course>19.73</course>
  <speed>0.3080584360149873</speed>
  <fix>3d</fix>
</trkpt>
<trkpt lat="33.8106397" lon="-118.3938647">
  <ele>-25.318</ele>
  <time>2026-09-02T22:11:31Z</time>
  <course>19.73</course>
  <speed>0.31400636936215165</speed>
  <fix>3d</fix>
</trkpt>
<trkpt lat="33.8106397" lon="-118.3938647">
  <ele>-25.318</ele>
  <time>2026-09-02T22:11:31Z</time>
  <course>19.73</course>
  <speed>0.32202484376209234</speed>
  <fix>3d</fix>
</trkpt>
<trkpt lat="33.8106397" lon="-118.3938646">
  <ele>-25.318</ele>
  <time>2026-09-02T22:11:31Z</time>
  <course>19.73</course>
  <speed>0.32202484376209234</speed>
  <fix>3d</fix>
</trkpt>
<trkpt lat="33.8106397" lon="-118.3938646">
  <ele>-25.317</ele>
  <time>2026-09-02T22:11:31Z</time>
  <course>19.73</course>
  <speed>0.3280243893371345</speed>
  <fix>3d</fix>
</trkpt>
<trkpt lat="33.8106397" lon="-118.3938646">
  <ele>-25.317</ele>
  <time>2026-09-02T22:11:31Z</time>
  <course>19.73</course>
  <speed>0.3280243893371345</speed>
  <fix>3d</fix>
</trkpt>
<trkpt lat="33.8106395" lon="-118.3938653">
  <ele>-24.71</ele>
  <time>2026-09-02T22:11:31Z</time>
  <course>47.05</course>
  <speed>0.18</speed>
  <fix>3d</fix>
</trkpt>
<trkpt lat="33.8106397" lon="-118.3938646">
  <ele>-25.317</ele>
  <time>2026-09-02T22:11:31Z</time>
  <course>19.73</course>
  <speed>0.33600595232822883</speed>
  <fix>3d</fix>
</trkpt>
<trkpt lat="33.8106397" lon="-118.3938646">
  <ele>-25.317</ele>
  <time>2026-09-02T22:11:31Z</time>
  <course>19.73</course>
  <speed>0.3420526275297414</speed>
  <fix>3d</fix>
</trkpt>
<trkpt lat="33.8106398" lon="-118.3938645">
  <ele>-25.317</ele>
  <time>2026-09-02T22:11:31Z</time>
  <course>19.73</course>
  <speed>0.3420526275297414</speed>
  <fix>3d</fix>
</trkpt>
<trkpt lat="33.8106398" lon="-118.3938645">
  <ele>-25.316</ele>
  <time>2026-09-02T22:11:31Z</time>
  <course>19.73</course>
  <speed>0.35</speed>
  <fix>3d</fix>
</trkpt>
<trkpt lat="33.8106398" lon="-118.3938645">
  <ele>-25.316</ele>
  <time>2026-09-02T22:11:31Z</time>
  <course>19.73</course>
  <speed>0.35608987629529715</speed>
  <fix>3d</fix>
</trkpt>
<trkpt lat="33.8106398" lon="-118.3938645">
  <ele>-25.316</ele>
  <time>2026-09-02T22:11:31Z</time>
  <course>19.73</course>
  <speed>0.3640054944640259</speed>
  <fix>3d</fix>
</trkpt>
<trkpt lat="33.8106398" lon="-118.3938644">
  <ele>-25.316</ele>
  <time>2026-09-02T22:11:31Z</time>
  <course>19.73</course>
  <speed>0.3640054944640259</speed>
  <fix>3d</fix>
</trkpt>
<trkpt lat="33.8106398" lon="-118.3938644">
  <ele>-25.315</ele>
  <time>2026-09-02T22:11:31Z</time>
  <course>19.73</course>
  <speed>0.37013511046643494</speed>
  <fix>3d</fix>
</trkpt>
<trkpt lat="33.8106399" lon="-118.3938644">
  <ele>-25.315</ele>
  <time>2026-09-02T22:11:31Z</time>
  <course>19.73</course>
  <speed>0.378021163428716</speed>
  <fix>3d</fix>
</trkpt>
<trkpt lat="33.8106399" lon="-118.3938644">
  <ele>-25.315</ele>
  <time>2026-09-02T22:11:31Z</time>
  <course>19.72</course>
  <speed>0.378021163428716</speed>
  <fix>3d</fix>
</trkpt>
<trkpt lat="33.8106399" lon="-118.3938644">
  <ele>-25.314</ele>
  <time>2026-09-02T22:11:31Z</time>
  <course>19.72</course>
  <speed>0.3841874542459709</speed>
  <fix>3d</fix>
</trkpt>
<trkpt lat="33.8106399" lon="-118.3938643">
  <ele>-25.314</ele>
  <time>2026-09-02T22:11:31Z</time>
  <course>19.72</course>
  <speed>0.3920459156782532</speed>
  <fix>3d</fix>
</trkpt>
<trkpt lat="33.8106399" lon="-118.3938643">
  <ele>-25.314</ele>
  <time>2026-09-02T22:11:31Z</time>
  <course>19.72</course>
  <speed>0.3920459156782532</speed>
  <fix>3d</fix>
</trkpt>
<trkpt lat="33.8106399" lon="-118.3938643">
  <ele>-25.314</ele>
  <time>2026-09-02T22:11:31Z</time>
  <course>19.72</course>
  <speed>0.3920459156782532</speed>
  <fix>3d</fix>
</trkpt>
<trkpt lat="33.8106399" lon="-118.393865">
  <ele>-24.7</ele>
  <time>2026-09-02T22:11:31Z</time>
  <course>46.02</course>
  <speed>0.3</speed>
  <fix>3d</fix>
</trkpt>
<trkpt lat="33.81064" lon="-118.3938643">
  <ele>-25.313</ele>
  <time>2026-09-02T22:11:31Z</time>
  <course>19.71</course>
  <speed>0.40607881008493907</speed>
  <fix>3d</fix>
</trkpt>
<trkpt lat="33.81064" lon="-118.3938642">
  <ele>-25.313</ele>
  <time>2026-09-02T22:11:31Z</time>
  <course>19.71</course>
  <speed>0.40607881008493907</speed>
  <fix>3d</fix>
</trkpt>
<trkpt lat="33.81064" lon="-118.3938642">
  <ele>-25.313</ele>
  <time>2026-09-02T22:11:31Z</time>
  <course>19.71</course>
  <speed>0.4201190307520001</speed>
  <fix>3d</fix>
</trkpt>
<trkpt lat="33.81064" lon="-118.3938642">
  <ele>-25.313</ele>
  <time>2026-09-02T22:11:31Z</time>
  <course>19.71</course>
  <speed>0.4201190307520001</speed>
  <fix>3d</fix>
</trkpt>
<trkpt lat="33.8106401" lon="-118.3938642">
  <ele>-25.313</ele>
  <time>2026-09-02T22:11:31Z</time>
  <course>19.71</course>
  <speed>0.4201190307520001</speed>
  <fix>3d</fix>
</trkpt>
<trkpt lat="33.8106401" lon="-118.3938642">
  <ele>-25.312</ele>
  <time>2026-09-02T22:11:31Z</time>
  <course>19.71</course>
  <speed>0.4341658669218482</speed>
  <fix>3d</fix>
</trkpt>
<trkpt lat="33.8106401" lon="-118.3938641">
  <ele>-25.312</ele>
  <time>2026-09-02T22:11:31Z</time>
  <course>19.7</course>
  <speed>0.4341658669218482</speed>
  <fix>3d</fix>
</trkpt>
<trkpt lat="33.8106401" lon="-118.3938641">
  <ele>-25.312</ele>
  <time>2026-09-02T22:11:31Z</time>
  <course>19.7</course>
  <speed>0.4341658669218482</speed>
  <fix>3d</fix>
</trkpt>
<trkpt lat="33.8106401" lon="-118.3938641">
  <ele>-25.312</ele>
  <time>2026-09-02T22:11:31Z</time>
  <course>19.7</course>
  <speed>0.4482186966202994</speed>
  <fix>3d</fix>
</trkpt>
<trkpt lat="33.8106402" lon="-118.393864">
  <ele>-25.312</ele>
  <time>2026-09-02T22:11:31Z</time>
  <course>19.7</course>
  <speed>0.4482186966202994</speed>
  <fix>3d</fix>
</trkpt>
<trkpt lat="33.8106402" lon="-118.393864">
  <ele>-25.312</ele>
  <time>2026-09-02T22:11:31Z</time>
  <course>19.7</course>
  <speed>0.4482186966202994</speed>
  <fix>3d</fix>
</trkpt>
<trkpt lat="33.8106402" lon="-118.393864">
  <ele>-25.311</ele>
  <time>2026-09-02T22:11:31Z</time>
  <course>19.7</course>
  <speed>0.4622769732530488</speed>
  <fix>3d</fix>
</trkpt>
<trkpt lat="33.8106402" lon="-118.393864">
  <ele>-25.311</ele>
  <time>2026-09-02T22:11:31Z</time>
  <course>19.7</course>
  <speed>0.4622769732530488</speed>
  <fix>3d</fix>
</trkpt>
<trkpt lat="33.8106399" lon="-118.393865">
  <ele>-24.7</ele>
  <time>2026-09-02T22:11:31Z</time>
  <course>46.02</course>
  <speed>0.3</speed>
  <fix>3d</fix>
</trkpt>
<trkpt lat="33.8106402" lon="-118.393864">
  <ele>-25.311</ele>
  <time>2026-09-02T22:11:31Z</time>
  <course>19.7</course>
  <speed>0.4622769732530488</speed>
  <fix>3d</fix>
</trkpt>
<trkpt lat="33.8106402" lon="-118.3938639">
  <ele>-25.311</ele>
  <time>2026-09-02T22:11:31Z</time>
  <course>19.7</course>
  <speed>0.4622769732530488</speed>
  <fix>3d</fix>
</trkpt>
<trkpt lat="33.8106403" lon="-118.3938639">
  <ele>-25.311</ele>
  <time>2026-09-02T22:11:31Z</time>
  <course>19.7</course>
  <speed>0.47634021455258213</speed>
  <fix>3d</fix>
</trkpt>
<trkpt lat="33.8106403" lon="-118.3938638">
  <ele>-25.311</ele>
  <time>2026-09-02T22:11:31Z</time>
  <course>19.7</course>
  <speed>0.47634021455258213</speed>
  <fix>3d</fix>
</trkpt>
<trkpt lat="33.8106403" lon="-118.3938638">
  <ele>-25.311</ele>
  <time>2026-09-02T22:11:31Z</time>
  <course>19.7</course>
  <speed>0.49040799340956914</speed>
  <fix>3d</fix>
</trkpt>
<trkpt lat="33.8106404" lon="-118.3938638">
  <ele>-25.311</ele>
  <time>2026-09-02T22:11:31Z</time>
  <course>19.7</course>
  <speed>0.49040799340956914</speed>
  <fix>3d</fix>
</trkpt>
<trkpt lat="33.8106404" lon="-118.3938638">
  <ele>-25.31</ele>
  <time>2026-09-02T22:11:31Z</time>
  <course>19.7</course>
  <speed>0.49040799340956914</speed>
  <fix>3d</fix>
</trkpt>
<trkpt lat="33.8106404" lon="-118.3938637">
  <ele>-25.31</ele>
  <time>2026-09-02T22:11:31Z</time>
  <course>19.7</course>
  <speed>0.5044799302251776</speed>
  <fix>3d</fix>
</trkpt>
<trkpt lat="33.8106404" lon="-118.3938637">
  <ele>-25.31</ele>
  <time>2026-09-02T22:11:31Z</time>
  <course>19.7</course>
  <speed>0.5044799302251776</speed>
  <fix>3d</fix>
</trkpt>
<trkpt lat="33.8106405" lon="-118.3938637">
  <ele>-25.31</ele>
  <time>2026-09-02T22:11:31Z</time>
  <course>19.7</course>
  <speed>0.5044799302251776</speed>
  <fix>3d</fix>
</trkpt>
<trkpt lat="33.8106405" lon="-118.3938636">
  <ele>-25.31</ele>
  <time>2026-09-02T22:11:31Z</time>
  <course>19.69</course>
  <speed>0.518555686498567</speed>
  <fix>3d</fix>
</trkpt>
<trkpt lat="33.8106405" lon="-118.3938636">
  <ele>-25.31</ele>
  <time>2026-09-02T22:11:31Z</time>
  <course>19.69</course>
  <speed>0.518555686498567</speed>
  <fix>3d</fix>
</trkpt>
<trkpt lat="33.8106405" lon="-118.3938636">
  <ele>-25.31</ele>
  <time>2026-09-02T22:11:31Z</time>
  <course>19.69</course>
  <speed>0.518555686498567</speed>
  <fix>3d</fix>
</trkpt>
<trkpt lat="33.8106403" lon="-118.3938644">
  <ele>-24.7</ele>
  <time>2026-09-02T22:11:31Z</time>
  <course>45.69</course>
  <speed>0.43</speed>
  <fix>3d</fix>
</trkpt>
<trkpt lat="33.8106406" lon="-118.3938635">
  <ele>-25.31</ele>
  <time>2026-09-02T22:11:31Z</time>
  <course>19.69</course>
  <speed>0.5263078946776306</speed>
  <fix>3d</fix>
</trkpt>
<trkpt lat="33.8106406" lon="-118.3938635">
  <ele>-25.31</ele>
  <time>2026-09-02T22:11:31Z</time>
  <course>19.69</course>
  <speed>0.532634959423431</speed>
  <fix>3d</fix>
</trkpt>
<trkpt lat="33.8106406" lon="-118.3938635">
  <ele>-25.31</ele>
  <time>2026-09-02T22:11:31Z</time>
  <course>19.68</course>
  <speed>0.532634959423431</speed>
  <fix>3d</fix>
</trkpt>
<trkpt lat="33.8106406" lon="-118.3938634">
  <ele>-25.31</ele>
  <time>2026-09-02T22:11:31Z</time>
  <course>19.68</course>
  <speed>0.5403702434442519</speed>
  <fix>3d</fix>
</trkpt>
<trkpt lat="33.8106406" lon="-118.3938634">
  <ele>-25.31</ele>
  <time>2026-09-02T22:11:31Z</time>
  <course>19.68</course>
  <speed>0.5467174773134658</speed>
  <fix>3d</fix>
</trkpt>
<trkpt lat="33.8106407" lon="-118.3938634">
  <ele>-25.31</ele>
  <time>2026-09-02T22:11:31Z</time>
  <course>19.68</course>
  <speed>0.5467174773134658</speed>
  <fix>3d</fix>
</trkpt>
<trkpt lat="33.8106407" lon="-118.3938633">
  <ele>-25.31</ele>
  <time>2026-09-02T22:11:31Z</time>
  <course>19.68</course>
  <speed>0.5544366510251645</speed>
  <fix>3d</fix>
</trkpt>
<trkpt lat="33.8106407" lon="-118.3938633">
  <ele>-25.31</ele>
  <time>2026-09-02T22:11:31Z</time>
  <course>19.68</course>
  <speed>0.5544366510251645</speed>
  <fix>3d</fix>
</trkpt>
<trkpt lat="33.8106408" lon="-118.3938633">
  <ele>-25.31</ele>
  <time>2026-09-02T22:11:31Z</time>
  <course>19.68</course>
  <speed>0.5608029957123981</speed>
  <fix>3d</fix>
</trkpt>
<trkpt lat="33.8106408" lon="-118.3938632">
  <ele>-25.31</ele>
  <time>2026-09-02T22:11:31Z</time>
  <course>19.68</course>
  <speed>0.5608029957123981</speed>
  <fix>3d</fix>
</trkpt>
<trkpt lat="33.8106408" lon="-118.3938632">
  <ele>-25.31</ele>
  <time>2026-09-02T22:11:31Z</time>
  <course>19.68</course>
  <speed>0.5685068161420758</speed>
  <fix>3d</fix>
</trkpt>
<trkpt lat="33.8106408" lon="-118.3938632">
  <ele>-25.311</ele>
  <time>2026-09-02T22:11:31Z</time>
  <course>19.68</course>
  <speed>0.5685068161420758</speed>
  <fix>3d</fix>
</trkpt>
<trkpt lat="33.8106408" lon="-118.3938632">
  <ele>-25.311</ele>
  <time>2026-09-02T22:11:31Z</time>
  <course>19.68</course>
  <speed>0.5685068161420758</speed>
  <fix>3d</fix>
</trkpt>
<trkpt lat="33.8106403" lon="-118.3938644">
  <ele>-24.7</ele>
  <time>2026-09-02T22:11:31Z</time>
  <course>45.69</course>
  <speed>0.43</speed>
  <fix>3d</fix>
</trkpt>
<trkpt lat="33.8106409" lon="-118.3938631">
  <ele>-25.311</ele>
  <time>2026-09-02T22:11:31Z</time>
  <course>19.68</course>
  <speed>0.5748912940721924</speed>
  <fix>3d</fix>
</trkpt>
<trkpt lat="33.8106409" lon="-118.3938631">
  <ele>-25.311</ele>
  <time>2026-09-02T22:11:31Z</time>
  <course>19.68</course>
  <speed>0.5825804665451804</speed>
  <fix>3d</fix>
</trkpt>
<trkpt lat="33.810641" lon="-118.393863">
  <ele>-25.311</ele>
  <time>2026-09-02T22:11:31Z</time>
  <course>19.68</course>
  <speed>0.5889821729050889</speed>
  <fix>3d</fix>
</trkpt>
<trkpt lat="33.810641" lon="-118.393863">
  <ele>-25.311</ele>
  <time>2026-09-02T22:11:31Z</time>
  <course>19.68</course>
  <speed>0.5889821729050889</speed>
  <fix>3d</fix>
</trkpt>
<trkpt lat="33.810641" lon="-118.3938629">
  <ele>-25.311</ele>
  <time>2026-09-02T22:11:31Z</time>
  <course>19.68</course>
  <speed>0.5966573556070519</speed>
  <fix>3d</fix>
</trkpt>
<trkpt lat="33.810641" lon="-118.3938629">
  <ele>-25.311</ele>
  <time>2026-09-02T22:11:31Z</time>
  <course>19.68</course>
  <speed>0.5966573556070519</speed>
  <fix>3d</fix>
</trkpt>
<trkpt lat="33.8106411" lon="-118.3938629">
  <ele>-25.311</ele>
  <time>2026-09-02T22:11:31Z</time>
  <course>19.68</course>
  <speed>0.6030754513325841</speed>
  <fix>3d</fix>
</trkpt>
<trkpt lat="33.8106411" lon="-118.3938628">
  <ele>-25.311</ele>
  <time>2026-09-02T22:11:31Z</time>
  <course>19.68</course>
  <speed>0.6030754513325841</speed>
  <fix>3d</fix>
</trkpt>
<trkpt lat="33.8106411" lon="-118.3938628">
  <ele>-25.311</ele>
  <time>2026-09-02T22:11:31Z</time>
  <course>19.68</course>
  <speed>0.6107372593840988</speed>
  <fix>3d</fix>
</trkpt>
<trkpt lat="33.8106412" lon="-118.3938628">
  <ele>-25.311</ele>
  <time>2026-09-02T22:11:31Z</time>
  <course>19.67</course>
  <speed>0.6107372593840988</speed>
  <fix>3d</fix>
</trkpt>
<trkpt lat="33.8106412" lon="-118.3938627">
  <ele>-25.311</ele>
  <time>2026-09-02T22:11:31Z</time>
  <course>19.67</course>
  <speed>0.6171709649683789</speed>
  <fix>3d</fix>
</trkpt>
<trkpt lat="33.8106412" lon="-118.3938627">
  <ele>-25.311</ele>
  <time>2026-09-02T22:11:31Z</time>
  <course>19.67</course>
  <speed>0.6171709649683789</speed>
  <fix>3d</fix>
</trkpt>
<trkpt lat="33.8106409" lon="-118.3938636">
  <ele>-24.7</ele>
  <time>2026-09-02T22:11:31Z</time>
  <course>45.64</course>
  <speed>0.55</speed>
  <fix>3d</fix>
</trkpt>
<trkpt lat="33.8106412" lon="-118.3938627">
  <ele>-25.311</ele>
  <time>2026-09-02T22:11:31Z</time>
  <course>19.67</course>
  <speed>0.6171709649683789</speed>
  <fix>3d</fix>
</trkpt>
<trkpt lat="33.8106413" lon="-118.3938626">
  <ele>-25.311</ele>
  <time>2026-09-02T22:11:31Z</time>
  <course>19.67</course>
  <speed>0.6248199740725323</speed>
  <fix>3d</fix>
</trkpt>
<trkpt lat="33.8106413" lon="-118.3938626">
  <ele>-25.311</ele>
  <time>2026-09-02T22:11:31Z</time>
  <course>19.66</course>
  <speed>0.6248199740725323</speed>
  <fix>3d</fix>
</trkpt>
<trkpt lat="33.8106413" lon="-118.3938626">
  <ele>-25.311</ele>
  <time>2026-09-02T22:11:31Z</time>
  <course>19.66</course>
  <speed>0.6248199740725323</speed>
  <fix>3d</fix>
</trkpt>
<trkpt lat="33.8106413" lon="-118.3938625">
  <ele>-25.311</ele>
  <time>2026-09-02T22:11:31Z</time>
  <course>19.66</course>
  <speed>0.6312685640834652</speed>
  <fix>3d</fix>
</trkpt>
<trkpt lat="33.8106414" lon="-118.3938625">
  <ele>-25.311</ele>
  <time>2026-09-02T22:11:31Z</time>
  <course>19.66</course>
  <speed>0.6312685640834652</speed>
  <fix>3d</fix>
</trkpt>
<trkpt lat="33.8106414" lon="-118.3938624">
  <ele>-25.311</ele>
  <time>2026-09-02T22:11:31Z</time>
  <course>19.66</course>
  <speed>0.6389053137985315</speed>
  <fix>3d</fix>
</trkpt>
<trkpt lat="33.8106414" lon="-118.3938624">
  <ele>-25.312</ele>
  <time>2026-09-02T22:11:31Z</time>
  <course>19.66</course>
  <speed>0.6389053137985315</speed>
  <fix>3d</fix>
</trkpt>
<trkpt lat="33.8106415" lon="-118.3938624">
  <ele>-25.311</ele>
  <time>2026-09-02T22:11:31Z</time>
  <course>19.65</course>
  <speed>0.6453681120105021</speed>
  <fix>3d</fix>
</trkpt>
<trkpt lat="33.8106415" lon="-118.3938623">
  <ele>-25.312</ele>
  <time>2026-09-02T22:11:31Z</time>
  <course>19.65</course>
  <speed>0.6453681120105021</speed>
  <fix>3d</fix>
</trkpt>
<trkpt lat="33.8106415" lon="-118.3938623">
  <ele>-25.311</ele>
  <time>2026-09-02T22:11:31Z</time>
  <course>19.65</course>
  <speed>0.6529931086925803</speed>
  <fix>3d</fix>
</trkpt>
<trkpt lat="33.8106416" lon="-118.3938623">
  <ele>-25.312</ele>
  <time>2026-09-02T22:11:31Z</time>
  <course>19.65</course>
  <speed>0.6529931086925803</speed>
  <fix>3d</fix>
</trkpt>
<trkpt lat="33.8106416" lon="-118.3938622">
  <ele>-25.312</ele>
  <time>2026-09-02T22:11:31Z</time>
  <course>19.65</course>
  <speed>0.6529931086925803</speed>
  <fix>3d</fix>
</trkpt>
<trkpt lat="33.8106416" lon="-118.3938622">
  <ele>-25.312</ele>
  <time>2026-09-02T22:11:31Z</time>
  <course>19.65</course>
  <speed>0.6529931086925803</speed>
  <fix>3d</fix>
</trkpt>
<trkpt lat="33.8106409" lon="-118.3938636">
  <ele>-24.7</ele>
  <time>2026-09-02T22:11:31Z</time>
  <course>45.64</course>
  <speed>0.55</speed>
  <fix>3d</fix>
</trkpt>
<trkpt lat="33.8106416" lon="-118.3938621">
  <ele>-25.312</ele>
  <time>2026-09-02T22:11:31Z</time>
  <course>19.65</course>
  <speed>0.6594694837519018</speed>
  <fix>3d</fix>
</trkpt>
<trkpt lat="33.8106417" lon="-118.3938621">
  <ele>-25.312</ele>
  <time>2026-09-02T22:11:31Z</time>
  <course>19.65</course>
  <speed>0.6594694837519018</speed>
  <fix>3d</fix>
</trkpt>
<trkpt lat="33.8106417" lon="-118.3938621">
  <ele>-25.312</ele>
  <time>2026-09-02T22:11:31Z</time>
  <course>19.66</course>
  <speed>0.6670832032063168</speed>
  <fix>3d</fix>
</trkpt>
<trkpt lat="33.8106417" lon="-118.393862">
  <ele>-25.312</ele>
  <time>2026-09-02T22:11:31Z</time>
  <course>19.66</course>
  <speed>0.6670832032063168</speed>
  <fix>3d</fix>
</trkpt>
<trkpt lat="33.8106418" lon="-118.393862">
  <ele>-25.311</ele>
  <time>2026-09-02T22:11:31Z</time>
  <course>19.66</course>
  <speed>0.6670832032063168</speed>
  <fix>3d</fix>
</trkpt>
<trkpt lat="33.8106418" lon="-118.3938619">
  <ele>-25.311</ele>
  <time>2026-09-02T22:11:31Z</time>
  <course>19.66</course>
  <speed>0.6735725647619565</speed>
  <fix>3d</fix>
</trkpt>
<trkpt lat="33.8106418" lon="-118.3938619">
  <ele>-25.311</ele>
  <time>2026-09-02T22:11:31Z</time>
  <course>19.66</course>
  <speed>0.6735725647619565</speed>
  <fix>3d</fix>
</trkpt>
<trkpt lat="33.8106419" lon="-118.3938619">
  <ele>-25.311</ele>
  <time>2026-09-02T22:11:31Z</time>
  <course>19.66</course>
  <speed>0.6811754546370561</speed>
  <fix>3d</fix>
</trkpt>
<trkpt lat="33.8106419" lon="-118.3938618">
  <ele>-25.311</ele>
  <time>2026-09-02T22:11:31Z</time>
  <course>19.66</course>
  <speed>0.6811754546370561</speed>
  <fix>3d</fix>
</trkpt>
<trkpt lat="33.8106419" lon="-118.3938618">
  <ele>-25.311</ele>
  <time>2026-09-02T22:11:31Z</time>
  <course>19.66</course>
  <speed>0.6811754546370561</speed>
  <fix>3d</fix>
</trkpt>
<trkpt lat="33.810642" lon="-118.3938617">
  <ele>-25.311</ele>
  <time>2026-09-02T22:11:31Z</time>
  <course>19.65</course>
  <speed>0.6876772498781678</speed>
  <fix>3d</fix>
</trkpt>
<trkpt lat="33.810642" lon="-118.3938617">
  <ele>-25.311</ele>
  <time>2026-09-02T22:11:31Z</time>
  <course>19.65</course>
  <speed>0.6876772498781678</speed>
  <fix>3d</fix>
</trkpt>
<trkpt lat="33.810642" lon="-118.3938617">
  <ele>-25.311</ele>
  <time>2026-09-02T22:11:31Z</time>
  <course>19.65</course>
  <speed>0.6876772498781678</speed>
  <fix>3d</fix>
</trkpt>
<trkpt lat="33.8106417" lon="-118.3938627">
  <ele>-24.69</ele>
  <time>2026-09-02T22:11:31Z</time>
  <course>45.64</course>
  <speed>0.64</speed>
  <fix>3d</fix>
</trkpt>
<trkpt lat="33.8106421" lon="-118.3938616">
  <ele>-25.311</ele>
  <time>2026-09-02T22:11:31Z</time>
  <course>19.65</course>
  <speed>0.6952697318307479</speed>
  <fix>3d</fix>
</trkpt>
<trkpt lat="33.8106421" lon="-118.3938616">
  <ele>-25.311</ele>
  <time>2026-09-02T22:11:31Z</time>
  <course>19.64</course>
  <speed>0.6952697318307479</speed>
  <fix>3d</fix>
</trkpt>
<trkpt lat="33.8106421" lon="-118.3938615">
  <ele>-25.311</ele>
  <time>2026-09-02T22:11:31Z</time>
  <course>19.64</course>
  <speed>0.6952697318307479</speed>
  <fix>3d</fix>
</trkpt>
<trkpt lat="33.8106422" lon="-118.3938615">
  <ele>-25.31</ele>
  <time>2026-09-02T22:11:31Z</time>
  <course>19.64</course>
  <speed>0.70178344238091</speed>
  <fix>3d</fix>
</trkpt>
<trkpt lat="33.8106422" lon="-118.3938614">
  <ele>-25.31</ele>
  <time>2026-09-02T22:11:31Z</time>
  <course>19.64</course>
  <speed>0.70178344238091</speed>
  <fix>3d</fix>
</trkpt>
<trkpt lat="33.8106422" lon="-118.3938614">
  <ele>-25.31</ele>
  <time>2026-09-02T22:11:31Z</time>
  <course>19.64</course>
  <speed>0.709365914038728</speed>
  <fix>3d</fix>
</trkpt>
<trkpt lat="33.8106423" lon="-118.3938614">
  <ele>-25.31</ele>
  <time>2026-09-02T22:11:31Z</time>
  <course>19.64</course>
  <speed>0.709365914038728</speed>
  <fix>3d</fix>
</trkpt>
<trkpt lat="33.8106423" lon="-118.3938613">
  <ele>-25.31</ele>
  <time>2026-09-02T22:11:31Z</time>
  <course>19.64</course>
  <speed>0.709365914038728</speed>
  <fix>3d</fix>
</trkpt>
<trkpt lat="33.8106423" lon="-118.3938613">
  <ele>-25.309</ele>
  <time>2026-09-02T22:11:31Z</time>
  <course>19.64</course>
  <speed>0.709365914038728</speed>
  <fix>3d</fix>
</trkpt>
<trkpt lat="33.8106424" lon="-118.3938612">
  <ele>-25.309</ele>
  <time>2026-09-02T22:11:31Z</time>
  <course>19.64</course>
  <speed>0.709365914038728</speed>
  <fix>3d</fix>
</trkpt>
<trkpt lat="33.8106424" lon="-118.3938612">
  <ele>-25.309</ele>
  <time>2026-09-02T22:11:31Z</time>
  <course>19.64</course>
  <speed>0.7158910531638176</speed>
  <fix>3d</fix>
</trkpt>
<trkpt lat="33.8106424" lon="-118.3938612">
  <ele>-25.309</ele>
  <time>2026-09-02T22:11:31Z</time>
  <course>19.64</course>
  <speed>0.7158910531638176</speed>
  <fix>3d</fix>
</trkpt>
<trkpt lat="33.8106425" lon="-118.3938611">
  <ele>-25.309</ele>
  <time>2026-09-02T22:11:31Z</time>
  <course>19.64</course>
  <speed>0.7158910531638176</speed>
  <fix>3d</fix>
</trkpt>
<trkpt lat="33.8106417" lon="-118.3938627">
  <ele>-24.69</ele>
  <time>2026-09-02T22:11:31Z</time>
  <course>45.64</course>
  <speed>0.64</speed>
  <fix>3d</fix>
</trkpt>
<trkpt lat="33.8106425" lon="-118.3938611">
  <ele>-25.309</ele>
  <time>2026-09-02T22:11:31Z</time>
  <course>19.64</course>
  <speed>0.7234638899074369</speed>
  <fix>3d</fix>
</trkpt>
<trkpt lat="33.8106425" lon="-118.393861">
  <ele>-25.308</ele>
  <time>2026-09-02T22:11:31Z</time>
  <course>19.64</course>
  <speed>0.7234638899074369</speed>
  <fix>3d</fix>
</trkpt>
<trkpt lat="33.8106426" lon="-118.393861">
  <ele>-25.308</ele>
  <time>2026-09-02T22:11:31Z</time>
  <course>19.64</course>
  <speed>0.7234638899074369</speed>
  <fix>3d</fix>
</trkpt>
<trkpt lat="33.8106426" lon="-118.3938609">
  <ele>-25.308</ele>
  <time>2026-09-02T22:11:31Z</time>
  <course>19.65</course>
  <speed>0.7234638899074369</speed>
  <fix>3d</fix>
</trkpt>
<trkpt lat="33.8106426" lon="-118.3938609">
  <ele>-25.307</ele>
  <time>2026-09-02T22:11:31Z</time>
  <course>19.65</course>
  <speed>0.73</speed>
  <fix>3d</fix>
</trkpt>
<trkpt lat="33.8106427" lon="-118.3938609">
  <ele>-25.307</ele>
  <time>2026-09-02T22:11:31Z</time>
  <course>19.65</course>
  <speed>0.73</speed>
  <fix>3d</fix>
</trkpt>
<trkpt lat="33.8106427" lon="-118.3938608">
  <ele>-25.307</ele>
  <time>2026-09-02T22:11:31Z</time>
  <course>19.65</course>
  <speed>0.73</speed>
  <fix>3d</fix>
</trkpt>
<trkpt lat="33.8106427" lon="-118.3938608">
  <ele>-25.307</ele>
  <time>2026-09-02T22:11:31Z</time>
  <course>19.65</course>
  <speed>0.737563556583431</speed>
  <fix>3d</fix>
</trkpt>
<trkpt lat="33.8106428" lon="-118.3938607">
  <ele>-25.306</ele>
  <time>2026-09-02T22:11:31Z</time>
  <course>19.65</course>
  <speed>0.737563556583431</speed>
  <fix>3d</fix>
</trkpt>
<trkpt lat="33.8106428" lon="-118.3938607">
  <ele>-25.306</ele>
  <time>2026-09-02T22:11:31Z</time>
  <course>19.65</course>
  <speed>0.737563556583431</speed>
  <fix>3d</fix>
</trkpt>
<trkpt lat="33.8106429" lon="-118.3938606">
  <ele>-25.306</ele>
  <time>2026-09-02T22:11:31Z</time>
  <course>19.65</course>
  <speed>0.737563556583431</speed>
  <fix>3d</fix>
</trkpt>
<trkpt lat="33.8106429" lon="-118.3938606">
  <ele>-25.305</ele>
  <time>2026-09-02T22:11:31Z</time>
  <course>19.65</course>
  <speed>0.737563556583431</speed>
  <fix>3d</fix>
</trkpt>
<trkpt lat="33.8106429" lon="-118.3938606">
  <ele>-25.305</ele>
  <time>2026-09-02T22:11:31Z</time>
  <course>19.65</course>
  <speed>0.7441102068914255</speed>
  <fix>3d</fix>
</trkpt>
<trkpt lat="33.8106425" lon="-118.3938616">
  <ele>-24.69</ele>
  <time>2026-09-02T22:11:31Z</time>
  <course>45.68</course>
  <speed>0.72</speed>
  <fix>3d</fix>
</trkpt>
<trkpt lat="33.8106429" lon="-118.3938606">
  <ele>-25.305</ele>
  <time>2026-09-02T22:11:31Z</time>
  <course>19.64</course>
  <speed>0.7441102068914255</speed>
  <fix>3d</fix>
</trkpt>
<trkpt lat="33.810643" lon="-118.3938605">
  <ele>-25.305</ele>
  <time>2026-09-02T22:11:31Z</time>
  <course>19.64</course>
  <speed>0.7441102068914255</speed>
  <fix>3d</fix>
</trkpt>
<trkpt lat="33.810643" lon="-118.3938605">
  <ele>-25.304</ele>
  <time>2026-09-02T22:11:31Z</time>
  <course>19.64</course>
  <speed>0.7441102068914255</speed>
  <fix>3d</fix>
</trkpt>
<trkpt lat="33.810643" lon="-118.3938604">
  <ele>-25.304</ele>
  <time>2026-09-02T22:11:31Z</time>
  <course>19.64</course>
  <speed>0.7441102068914255</speed>
  <fix>3d</fix>
</trkpt>
<trkpt lat="33.8106431" lon="-118.3938604">
  <ele>-25.304</ele>
  <time>2026-09-02T22:11:31Z</time>
  <course>19.64</course>
  <speed>0.7516648189186453</speed>
  <fix>3d</fix>
</trkpt>
<trkpt lat="33.8106431" lon="-118.3938603">
  <ele>-25.303</ele>
  <time>2026-09-02T22:11:31Z</time>
  <course>19.64</course>
  <speed>0.7516648189186453</speed>
  <fix>3d</fix>
</trkpt>
<trkpt lat="33.8106431" lon="-118.3938603">
  <ele>-25.303</ele>
  <time>2026-09-02T22:11:31Z</time>
  <course>19.64</course>
  <speed>0.7516648189186453</speed>
  <fix>3d</fix>
</trkpt>
<trkpt lat="33.8106432" lon="-118.3938602">
  <ele>-25.303</ele>
  <time>2026-09-02T22:11:31Z</time>
  <course>19.64</course>
  <speed>0.7516648189186453</speed>
  <fix>3d</fix>
</trkpt>
<trkpt lat="33.8106432" lon="-118.3938602">
  <ele>-25.302</ele>
  <time>2026-09-02T22:11:31Z</time>
  <course>19.64</course>
  <speed>0.7516648189186453</speed>
  <fix>3d</fix>
</trkpt>
<trkpt lat="33.8106432" lon="-118.3938602">
  <ele>-25.302</ele>
  <time>2026-09-02T22:11:31Z</time>
  <course>19.64</course>
  <speed>0.7516648189186453</speed>
  <fix>3d</fix>
</trkpt>
<trkpt lat="33.8106433" lon="-118.3938601">
  <ele>-25.302</ele>
  <time>2026-09-02T22:11:31Z</time>
  <course>19.64</course>
  <speed>0.7582216034906945</speed>
  <fix>3d</fix>
</trkpt>
<trkpt lat="33.8106433" lon="-118.3938601">
  <ele>-25.301</ele>
  <time>2026-09-02T22:11:31Z</time>
  <course>19.64</course>
  <speed>0.7582216034906945</speed>
  <fix>3d</fix>
</trkpt>
<trkpt lat="33.8106434" lon="-118.39386">
  <ele>-25.301</ele>
  <time>2026-09-02T22:11:31Z</time>
  <course>19.64</course>
  <speed>0.7582216034906945</speed>
  <fix>3d</fix>
</trkpt>
<trkpt lat="33.8106434" lon="-118.39386">
  <ele>-25.301</ele>
  <time>2026-09-02T22:11:31Z</time>
  <course>19.64</course>
  <speed>0.7582216034906945</speed>
  <fix>3d</fix>
</trkpt>
<trkpt lat="33.8106425" lon="-118.3938616">
  <ele>-24.69</ele>
  <time>2026-09-02T22:11:31Z</time>
  <course>45.68</course>
  <speed>0.72</speed>
  <fix>3d</fix>
</trkpt>
<trkpt lat="33.8106434" lon="-118.39386">
  <ele>-25.301</ele>
  <time>2026-09-02T22:11:31Z</time>
  <course>19.64</course>
  <speed>0.7582216034906945</speed>
  <fix>3d</fix>
</trkpt>
<trkpt lat="33.8106435" lon="-118.3938599">
  <ele>-25.3</ele>
  <time>2026-09-02T22:11:31Z</time>
  <course>19.64</course>
  <speed>0.7657675887630658</speed>
  <fix>3d</fix>
</trkpt>
<trkpt lat="33.8106435" lon="-118.3938599">
  <ele>-25.3</ele>
  <time>2026-09-02T22:11:31Z</time>
  <course>19.65</course>
  <speed>0.7657675887630658</speed>
  <fix>3d</fix>
</trkpt>
<trkpt lat="33.8106435" lon="-118.3938598">
  <ele>-25.299</ele>
  <time>2026-09-02T22:11:31Z</time>
  <course>19.65</course>
  <speed>0.7657675887630658</speed>
  <fix>3d</fix>
</trkpt>
<trkpt lat="33.8106436" lon="-118.3938598">
  <ele>-25.299</ele>
  <time>2026-09-02T22:11:31Z</time>
  <course>19.65</course>
  <speed>0.7657675887630658</speed>
  <fix>3d</fix>
</trkpt>
<trkpt lat="33.8106436" lon="-118.3938597">
  <ele>-25.299</ele>
  <time>2026-09-02T22:11:31Z</time>
  <course>19.65</course>
  <speed>0.7657675887630658</speed>
  <fix>3d</fix>
</trkpt>
<trkpt lat="33.8106436" lon="-118.3938597">
  <ele>-25.298</ele>
  <time>2026-09-02T22:11:31Z</time>
  <course>19.66</course>
  <speed>0.7657675887630658</speed>
  <fix>3d</fix>
</trkpt>
<trkpt lat="33.8106437" lon="-118.3938596">
  <ele>-25.298</ele>
  <time>2026-09-02T22:11:31Z</time>
  <course>19.66</course>
  <speed>0.772334124585985</speed>
  <fix>3d</fix>
</trkpt>
<trkpt lat="33.8106437" lon="-118.3938596">
  <ele>-25.298</ele>
  <time>2026-09-02T22:11:31Z</time>
  <course>19.66</course>
  <speed>0.772334124585985</speed>
  <fix>3d</fix>
</trkpt>
<trkpt lat="33.8106437" lon="-118.3938595">
  <ele>-25.298</ele>
  <time>2026-09-02T22:11:31Z</time>
  <course>19.66</course>
  <speed>0.772334124585985</speed>
  <fix>3d</fix>
</trkpt>
<trkpt lat="33.8106438" lon="-118.3938595">
  <ele>-25.297</ele>
  <time>2026-09-02T22:11:31Z</time>
  <course>19.65</course>
  <speed>0.772334124585985</speed>
  <fix>3d</fix>
</trkpt>
<trkpt lat="33.8106438" lon="-118.3938595">
  <ele>-25.297</ele>
  <time>2026-09-02T22:11:31Z</time>
  <course>19.65</course>
  <speed>0.772334124585985</speed>
  <fix>3d</fix>
</trkpt>
<trkpt lat="33.8106439" lon="-118.3938594">
  <ele>-25.297</ele>
  <time>2026-09-02T22:11:31Z</time>
  <course>19.65</course>
  <speed>0.772334124585985</speed>
  <fix>3d</fix>
</trkpt>
<trkpt lat="33.8106439" lon="-118.3938594">
  <ele>-25.297</ele>
  <time>2026-09-02T22:11:31Z</time>
  <course>19.65</course>
  <speed>0.772334124585985</speed>
  <fix>3d</fix>
</trkpt>
<trkpt lat="33.8106435" lon="-118.3938605">
  <ele>-24.68</ele>
  <time>2026-09-02T22:11:31Z</time>
  <course>45.73</course>
  <speed>0.77</speed>
  <fix>3d</fix>
</trkpt>
<trkpt lat="33.8106439" lon="-118.3938594">
  <ele>-25.297</ele>
  <time>2026-09-02T22:11:31Z</time>
  <course>19.65</course>
  <speed>0.772334124585985</speed>
  <fix>3d</fix>
</trkpt>
<trkpt lat="33.8106439" lon="-118.3938593">
  <ele>-25.296</ele>
  <time>2026-09-02T22:11:31Z</time>
  <course>19.65</course>
  <speed>0.772334124585985</speed>
  <fix>3d</fix>
</trkpt>
<trkpt lat="33.810644" lon="-118.3938593">
  <ele>-25.296</ele>
  <time>2026-09-02T22:11:31Z</time>
  <course>19.64</course>
  <speed>0.7798717843338097</speed>
  <fix>3d</fix>
</trkpt>
<trkpt lat="33.810644" lon="-118.3938592">
  <ele>-25.296</ele>
  <time>2026-09-02T22:11:31Z</time>
  <course>19.64</course>
  <speed>0.7798717843338097</speed>
  <fix>3d</fix>
</trkpt>
<trkpt lat="33.8106441" lon="-118.3938592">
  <ele>-25.296</ele>
  <time>2026-09-02T22:11:31Z</time>
  <course>19.64</course>
  <speed>0.7798717843338097</speed>
  <fix>3d</fix>
</trkpt>
<trkpt lat="33.8106441" lon="-118.3938591">
  <ele>-25.295</ele>
  <time>2026-09-02T22:11:31Z</time>
  <course>19.64</course>
  <speed>0.7798717843338097</speed>
  <fix>3d</fix>
</trkpt>
<trkpt lat="33.8106441" lon="-118.3938591">
  <ele>-25.295</ele>
  <time>2026-09-02T22:11:31Z</time>
  <course>19.64</course>
  <speed>0.7798717843338097</speed>
  <fix>3d</fix>
</trkpt>
<trkpt lat="33.8106442" lon="-118.393859">
  <ele>-25.295</ele>
  <time>2026-09-02T22:11:31Z</time>
  <course>19.64</course>
  <speed>0.7798717843338097</speed>
  <fix>3d</fix>
</trkpt>
<trkpt lat="33.8106442" lon="-118.393859">
  <ele>-25.295</ele>
  <time>2026-09-02T22:11:31Z</time>
  <course>19.64</course>
  <speed>0.7798717843338097</speed>
  <fix>3d</fix>
</trkpt>
<trkpt lat="33.8106443" lon="-118.3938589">
  <ele>-25.294</ele>
  <time>2026-09-02T22:11:31Z</time>
  <course>19.64</course>
  <speed>0.7798717843338097</speed>
  <fix>3d</fix>
</trkpt>
<trkpt lat="33.8106443" lon="-118.3938589">
  <ele>-25.294</ele>
  <time>2026-09-02T22:11:31Z</time>
  <course>19.64</course>
  <speed>0.7798717843338097</speed>
  <fix>3d</fix>
</trkpt>
<trkpt lat="33.8106443" lon="-118.3938588">
  <ele>-25.294</ele>
  <time>2026-09-02T22:11:31Z</time>
  <course>19.64</course>
  <speed>0.7798717843338097</speed>
  <fix>3d</fix>
</trkpt>
<trkpt lat="33.8106444" lon="-118.3938588">
  <ele>-25.294</ele>
  <time>2026-09-02T22:11:31Z</time>
  <course>19.64</course>
  <speed>0.7798717843338097</speed>
  <fix>3d</fix>
</trkpt>
<trkpt lat="33.8106435" lon="-118.3938605">
  <ele>-24.68</ele>
  <time>2026-09-02T22:11:31Z</time>
  <course>45.73</course>
  <speed>0.77</speed>
  <fix>3d</fix>
</trkpt>
<trkpt lat="33.8106444" lon="-118.3938588">
  <ele>-25.294</ele>
  <time>2026-09-02T22:11:31Z</time>
  <course>19.64</course>
  <speed>0.7864477096412705</speed>
  <fix>3d</fix>
</trkpt>
<trkpt lat="33.8106444" lon="-118.3938587">
  <ele>-25.294</ele>
  <time>2026-09-02T22:11:31Z</time>
  <course>19.65</course>
  <speed>0.7864477096412705</speed>
  <fix>3d</fix>
</trkpt>
<trkpt lat="33.8106445" lon="-118.3938586">
  <ele>-25.293</ele>
  <time>2026-09-02T22:11:31Z</time>
  <course>19.65</course>
  <speed>0.7864477096412705</speed>
  <fix>3d</fix>
</trkpt>
<trkpt lat="33.8106445" lon="-118.3938586">
  <ele>-25.293</ele>
  <time>2026-09-02T22:11:31Z</time>
  <course>19.65</course>
  <speed>0.7864477096412705</speed>
  <fix>3d</fix>
</trkpt>
<trkpt lat="33.8106446" lon="-118.3938585">
  <ele>-25.293</ele>
  <time>2026-09-02T22:11:31Z</time>
  <course>19.66</course>
  <speed>0.7864477096412705</speed>
  <fix>3d</fix>
</trkpt>
<trkpt lat="33.8106446" lon="-118.3938585">
  <ele>-25.293</ele>
  <time>2026-09-02T22:11:31Z</time>
  <course>19.66</course>
  <speed>0.7864477096412705</speed>
  <fix>3d</fix>
</trkpt>
<trkpt lat="33.8106446" lon="-118.3938584">
  <ele>-25.293</ele>
  <time>2026-09-02T22:11:31Z</time>
  <course>19.66</course>
  <speed>0.7864477096412705</speed>
  <fix>3d</fix>
</trkpt>
<trkpt lat="33.8106447" lon="-118.3938584">
  <ele>-25.293</ele>
  <time>2026-09-02T22:11:31Z</time>
  <course>19.67</course>
  <speed>0.7864477096412705</speed>
  <fix>3d</fix>
</trkpt>
<trkpt lat="33.8106447" lon="-118.3938584">
  <ele>-25.293</ele>
  <time>2026-09-02T22:11:31Z</time>
  <course>19.66</course>
  <speed>0.7864477096412705</speed>
  <fix>3d</fix>
</trkpt>
<trkpt lat="33.8106447" lon="-118.3938583">
  <ele>-25.292</ele>
  <time>2026-09-02T22:11:31Z</time>
  <course>19.66</course>
  <speed>0.7864477096412705</speed>
  <fix>3d</fix>
</trkpt>
<trkpt lat="33.8106448" lon="-118.3938583">
  <ele>-25.292</ele>
  <time>2026-09-02T22:11:31Z</time>
  <course>19.66</course>
  <speed>0.7864477096412705</speed>
  <fix>3d</fix>
</trkpt>
<trkpt lat="33.8106448" lon="-118.3938582">
  <ele>-25.292</ele>
  <time>2026-09-02T22:11:31Z</time>
  <course>19.66</course>
  <speed>0.7864477096412705</speed>
  <fix>3d</fix>
</trkpt>
<trkpt lat="33.8106449" lon="-118.3938582">
  <ele>-25.292</ele>
  <time>2026-09-02T22:11:31Z</time>
  <course>19.66</course>
  <speed>0.7864477096412705</speed>
  <fix>3d</fix>
</trkpt>
<trkpt lat="33.8106449" lon="-118.3938582">
  <ele>-25.292</ele>
  <time>2026-09-02T22:11:31Z</time>
  <course>19.66</course>
  <speed>0.7864477096412705</speed>
  <fix>3d</fix>
</trkpt>
<trkpt lat="33.8106444" lon="-118.3938593">
  <ele>-24.68</ele>
  <time>2026-09-02T22:11:31Z</time>
  <course>45.77</course>
  <speed>0.8</speed>
  <fix>3d</fix>
</trkpt>
<trkpt lat="33.8106449" lon="-118.3938581">
  <ele>-25.292</ele>
  <time>2026-09-02T22:11:31Z</time>
  <course>19.65</course>
  <speed>0.7864477096412705</speed>
  <fix>3d</fix>
</trkpt>
<trkpt lat="33.810645" lon="-118.393858">
  <ele>-25.292</ele>
  <time>2026-09-02T22:11:31Z</time>
  <course>19.65</course>
  <speed>0.7864477096412705</speed>
  <fix>3d</fix>
</trkpt>
<trkpt lat="33.810645" lon="-118.393858">
  <ele>-25.292</ele>
  <time>2026-09-02T22:11:31Z</time>
  <course>19.65</course>
  <speed>0.7864477096412705</speed>
  <fix>3d</fix>
</trkpt>
<trkpt lat="33.8106451" lon="-118.3938579">
  <ele>-25.292</ele>
  <time>2026-09-02T22:11:31Z</time>
  <course>19.65</course>
  <speed>0.7864477096412705</speed>
  <fix>3d</fix>
</trkpt>
<trkpt lat="33.8106451" lon="-118.3938579">
  <ele>-25.292</ele>
  <time>2026-09-02T22:11:31Z</time>
  <course>19.65</course>
  <speed>0.7864477096412705</speed>
  <fix>3d</fix>
</trkpt>
<trkpt lat="33.8106451" lon="-118.3938578">
  <ele>-25.292</ele>
  <time>2026-09-02T22:11:31Z</time>
  <course>19.65</course>
  <speed>0.7864477096412705</speed>
  <fix>3d</fix>
</trkpt>
<trkpt lat="33.8106452" lon="-118.3938578">
  <ele>-25.292</ele>
  <time>2026-09-02T22:11:31Z</time>
  <course>19.65</course>
  <speed>0.7864477096412705</speed>
  <fix>3d</fix>
</trkpt>
<trkpt lat="33.8106452" lon="-118.3938577">
  <ele>-25.292</ele>
  <time>2026-09-02T22:11:31Z</time>
  <course>19.65</course>
  <speed>0.7864477096412705</speed>
  <fix>3d</fix>
</trkpt>
<trkpt lat="33.8106452" lon="-118.3938577">
  <ele>-25.292</ele>
  <time>2026-09-02T22:11:31Z</time>
  <course>19.65</course>
  <speed>0.7864477096412705</speed>
  <fix>3d</fix>
</trkpt>
<trkpt lat="33.8106453" lon="-118.3938577">
  <ele>-25.292</ele>
  <time>2026-09-02T22:11:31Z</time>
  <course>19.65</course>
  <speed>0.7864477096412705</speed>
  <fix>3d</fix>
</trkpt>
<trkpt lat="33.8106453" lon="-118.3938576">
  <ele>-25.292</ele>
  <time>2026-09-02T22:11:31Z</time>
  <course>19.66</course>
  <speed>0.7864477096412705</speed>
  <fix>3d</fix>
</trkpt>
<trkpt lat="33.8106454" lon="-118.3938576">
  <ele>-25.292</ele>
  <time>2026-09-02T22:11:31Z</time>
  <course>19.66</course>
  <speed>0.7864477096412705</speed>
  <fix>3d</fix>
</trkpt>
<trkpt lat="33.8106444" lon="-118.3938593">
  <ele>-24.68</ele>
  <time>2026-09-02T22:11:31Z</time>
  <course>45.77</course>
  <speed>0.8</speed>
  <fix>3d</fix>
</trkpt>
<trkpt lat="33.8106454" lon="-118.3938575">
  <ele>-25.292</ele>
  <time>2026-09-02T22:11:31Z</time>
  <course>19.66</course>
  <speed>0.7864477096412705</speed>
  <fix>3d</fix>
</trkpt>
<trkpt lat="33.8106454" lon="-118.3938575">
  <ele>-25.292</ele>
  <time>2026-09-02T22:11:31Z</time>
  <course>19.66</course>
  <speed>0.7864477096412705</speed>
  <fix>3d</fix>
</trkpt>
<trkpt lat="33.8106455" lon="-118.3938574">
  <ele>-25.292</ele>
  <time>2026-09-02T22:11:31Z</time>
  <course>19.66</course>
  <speed>0.7864477096412705</speed>
  <fix>3d</fix>
</trkpt>
<trkpt lat="33.8106455" lon="-118.3938574">
  <ele>-25.292</ele>
  <time>2026-09-02T22:11:31Z</time>
  <course>19.66</course>
  <speed>0.7864477096412705</speed>
  <fix>3d</fix>
</trkpt>
<trkpt lat="33.8106455" lon="-118.3938573">
  <ele>-25.292</ele>
  <time>2026-09-02T22:11:31Z</time>
  <course>19.67</course>
  <speed>0.7864477096412705</speed>
  <fix>3d</fix>
</trkpt>
<trkpt lat="33.8106456" lon="-118.3938573">
  <ele>-25.292</ele>
  <time>2026-09-02T22:11:31Z</time>
  <course>19.67</course>
  <speed>0.7864477096412705</speed>
  <fix>3d</fix>
</trkpt>
<trkpt lat="33.8106456" lon="-118.3938572">
  <ele>-25.292</ele>
  <time>2026-09-02T22:11:31Z</time>
  <course>19.67</course>
  <speed>0.7864477096412705</speed>
  <fix>3d</fix>
</trkpt>
<trkpt lat="33.8106457" lon="-118.3938572">
  <ele>-25.291</ele>
  <time>2026-09-02T22:11:31Z</time>
  <course>19.68</course>
  <speed>0.7864477096412705</speed>
  <fix>3d</fix>
</trkpt>
<trkpt lat="33.8106457" lon="-118.3938571">
  <ele>-25.291</ele>
  <time>2026-09-02T22:11:31Z</time>
  <course>19.68</course>
  <speed>0.7864477096412705</speed>
  <fix>3d</fix>
</trkpt>
<trkpt lat="33.8106457" lon="-118.3938571">
  <ele>-25.291</ele>
  <time>2026-09-02T22:11:31Z</time>
  <course>19.68</course>
  <speed>0.7864477096412705</speed>
  <fix>3d</fix>
</trkpt>
<trkpt lat="33.8106458" lon="-118.3938571">
  <ele>-25.291</ele>
  <time>2026-09-02T22:11:31Z</time>
  <course>19.67</course>
  <speed>0.7864477096412705</speed>
  <fix>3d</fix>
</trkpt>
<trkpt lat="33.8106458" lon="-118.393857">
  <ele>-25.291</ele>
  <time>2026-09-02T22:11:31Z</time>
  <course>19.67</course>
  <speed>0.7864477096412705</speed>
  <fix>3d</fix>
</trkpt>
<trkpt lat="33.8106459" lon="-118.393857">
  <ele>-25.291</ele>
  <time>2026-09-02T22:11:31Z</time>
  <course>19.67</course>
  <speed>0.7864477096412705</speed>
  <fix>3d</fix>
</trkpt>
<trkpt lat="33.8106459" lon="-118.393857">
  <ele>-25.291</ele>
  <time>2026-09-02T22:11:31Z</time>
  <course>19.67</course>
  <speed>0.7864477096412705</speed>
  <fix>3d</fix>
</trkpt>
<trkpt lat="33.8106455" lon="-118.393858">
  <ele>-24.68</ele>
  <time>2026-09-02T22:11:31Z</time>
  <course>45.79</course>
  <speed>0.81</speed>
  <fix>3d</fix>
</trkpt>
<trkpt lat="33.8106459" lon="-118.3938569">
  <ele>-25.291</ele>
  <time>2026-09-02T22:11:31Z</time>
  <course>19.67</course>
  <speed>0.7864477096412705</speed>
  <fix>3d</fix>
</trkpt>
<trkpt lat="33.8106459" lon="-118.3938569">
  <ele>-25.291</ele>
  <time>2026-09-02T22:11:31Z</time>
  <course>19.67</course>
  <speed>0.7864477096412705</speed>
  <fix>3d</fix>
</trkpt>
<trkpt lat="33.810646" lon="-118.3938568">
  <ele>-25.291</ele>
  <time>2026-09-02T22:11:31Z</time>
  <course>19.67</course>
  <speed>0.7864477096412705</speed>
  <fix>3d</fix>
</trkpt>
<trkpt lat="33.810646" lon="-118.3938567">
  <ele>-25.291</ele>
  <time>2026-09-02T22:11:31Z</time>
  <course>19.67</course>
  <speed>0.7864477096412705</speed>
  <fix>3d</fix>
</trkpt>
<trkpt lat="33.8106461" lon="-118.3938567">
  <ele>-25.291</ele>
  <time>2026-09-02T22:11:31Z</time>
  <course>19.67</course>
  <speed>0.7864477096412705</speed>
  <fix>3d</fix>
</trkpt>
<trkpt lat="33.8106461" lon="-118.3938566">
  <ele>-25.291</ele>
  <time>2026-09-02T22:11:31Z</time>
  <course>19.67</course>
  <speed>0.7864477096412705</speed>
  <fix>3d</fix>
</trkpt>
<trkpt lat="33.8106462" lon="-118.3938566">
  <ele>-25.291</ele>
  <time>2026-09-02T22:11:31Z</time>
  <course>19.67</course>
  <speed>0.7864477096412705</speed>
  <fix>3d</fix>
</trkpt>
<trkpt lat="33.8106462" lon="-118.3938565">
  <ele>-25.291</ele>
  <time>2026-09-02T22:11:31Z</time>
  <course>19.67</course>
  <speed>0.7930952023559341</speed>
  <fix>3d</fix>
</trkpt>
<trkpt lat="33.8106462" lon="-118.3938565">
  <ele>-25.291</ele>
  <time>2026-09-02T22:11:31Z</time>
  <course>19.67</course>
  <speed>0.7930952023559341</speed>
  <fix>3d</fix>
</trkpt>
<trkpt lat="33.8106463" lon="-118.3938565">
  <ele>-25.29</ele>
  <time>2026-09-02T22:11:31Z</time>
  <course>19.67</course>
  <speed>0.7930952023559341</speed>
  <fix>3d</fix>
</trkpt>
<trkpt lat="33.8106463" lon="-118.3938564">
  <ele>-25.29</ele>
  <time>2026-09-02T22:11:31Z</time>
  <course>19.67</course>
  <speed>0.7930952023559341</speed>
  <fix>3d</fix>
</trkpt>
<trkpt lat="33.8106464" lon="-118.3938563">
  <ele>-25.29</ele>
  <time>2026-09-02T22:11:31Z</time>
  <course>19.67</course>
  <speed>0.7930952023559341</speed>
  <fix>3d</fix>
</trkpt>
<trkpt lat="33.8106464" lon="-118.3938563">
  <ele>-25.29</ele>
  <time>2026-09-02T22:11:31Z</time>
  <course>19.67</course>
  <speed>0.7930952023559341</speed>
  <fix>3d</fix>
</trkpt>
<trkpt lat="33.8106455" lon="-118.393858">
  <ele>-24.68</ele>
  <time>2026-09-02T22:11:31Z</time>
  <course>45.79</course>
  <speed>0.81</speed>
  <fix>3d</fix>
</trkpt>
<trkpt lat="33.8106464" lon="-118.3938563">
  <ele>-25.29</ele>
  <time>2026-09-02T22:11:31Z</time>
  <course>19.67</course>
  <speed>0.7930952023559341</speed>
  <fix>3d</fix>
</trkpt>
<trkpt lat="33.8106465" lon="-118.3938562">
  <ele>-25.29</ele>
  <time>2026-09-02T22:11:31Z</time>
  <course>19.68</course>
  <speed>0.7930952023559341</speed>
  <fix>3d</fix>
</trkpt>
<trkpt lat="33.8106465" lon="-118.3938562">
  <ele>-25.29</ele>
  <time>2026-09-02T22:11:31Z</time>
  <course>19.68</course>
  <speed>0.7930952023559341</speed>
  <fix>3d</fix>
</trkpt>
<trkpt lat="33.8106465" lon="-118.3938561">
  <ele>-25.29</ele>
  <time>2026-09-02T22:11:31Z</time>
  <course>19.68</course>
  <speed>0.7930952023559341</speed>
  <fix>3d</fix>
</trkpt>
<trkpt lat="33.8106466" lon="-118.3938561">
  <ele>-25.289</ele>
  <time>2026-09-02T22:11:31Z</time>
  <course>19.68</course>
  <speed>0.7930952023559341</speed>
  <fix>3d</fix>
</trkpt>
<trkpt lat="33.8106466" lon="-118.393856">
  <ele>-25.289</ele>
  <time>2026-09-02T22:11:31Z</time>
  <course>19.69</course>
  <speed>0.7930952023559341</speed>
  <fix>3d</fix>
</trkpt>
<trkpt lat="33.8106467" lon="-118.393856">
  <ele>-25.289</ele>
  <time>2026-09-02T22:11:31Z</time>
  <course>19.69</course>
  <speed>0.7930952023559341</speed>
  <fix>3d</fix>
</trkpt>
<trkpt lat="33.8106467" lon="-118.3938559">
  <ele>-25.289</ele>
  <time>2026-09-02T22:11:31Z</time>
  <course>19.69</course>
  <speed>0.7930952023559341</speed>
  <fix>3d</fix>
</trkpt>
<trkpt lat="33.8106467" lon="-118.3938559">
  <ele>-25.289</ele>
  <time>2026-09-02T22:11:31Z</time>
  <course>19.69</course>
  <speed>0.7930952023559341</speed>
  <fix>3d</fix>
</trkpt>
<trkpt lat="33.8106468" lon="-118.3938558">
  <ele>-25.289</ele>
  <time>2026-09-02T22:11:31Z</time>
  <course>19.69</course>
  <speed>0.7930952023559341</speed>
  <fix>3d</fix>
</trkpt>
<trkpt lat="33.8106468" lon="-118.3938558">
  <ele>-25.288</ele>
  <time>2026-09-02T22:11:31Z</time>
  <course>19.69</course>
  <speed>0.7930952023559341</speed>
  <fix>3d</fix>
</trkpt>
<trkpt lat="33.8106469" lon="-118.3938557">
  <ele>-25.288</ele>
  <time>2026-09-02T22:11:31Z</time>
  <course>19.69</course>
  <speed>0.7930952023559341</speed>
  <fix>3d</fix>
</trkpt>
<trkpt lat="33.8106469" lon="-118.3938557">
  <ele>-25.288</ele>
  <time>2026-09-02T22:11:31Z</time>
  <course>19.69</course>
  <speed>0.7930952023559341</speed>
  <fix>3d</fix>
</trkpt>
<trkpt lat="33.8106465" lon="-118.3938567">
  <ele>-24.68</ele>
  <time>2026-09-02T22:11:31Z</time>
  <course>45.8</course>
  <speed>0.82</speed>
  <fix>3d</fix>
</trkpt>
<trkpt lat="33.8106469" lon="-118.3938557">
  <ele>-25.288</ele>
  <time>2026-09-02T22:11:31Z</time>
  <course>19.69</course>
  <speed>0.7930952023559341</speed>
  <fix>3d</fix>
</trkpt>
<trkpt lat="33.810647" lon="-118.3938556">
  <ele>-25.288</ele>
  <time>2026-09-02T22:11:31Z</time>
  <course>19.69</course>
  <speed>0.8005623023850174</speed>
  <fix>3d</fix>
</trkpt>
<trkpt lat="33.810647" lon="-118.3938556">
  <ele>-25.288</ele>
  <time>2026-09-02T22:11:31Z</time>
  <course>19.69</course>
  <speed>0.8005623023850174</speed>
  <fix>3d</fix>
</trkpt>
<trkpt lat="33.810647" lon="-118.3938555">
  <ele>-25.287</ele>
  <time>2026-09-02T22:11:31Z</time>
  <course>19.69</course>
  <speed>0.8005623023850174</speed>
  <fix>3d</fix>
</trkpt>
<trkpt lat="33.8106471" lon="-118.3938555">
  <ele>-25.287</ele>
  <time>2026-09-02T22:11:31Z</time>
  <course>19.69</course>
  <speed>0.8005623023850174</speed>
  <fix>3d</fix>
</trkpt>
<trkpt lat="33.8106471" lon="-118.3938554">
  <ele>-25.287</ele>
  <time>2026-09-02T22:11:31Z</time>
  <course>19.69</course>
  <speed>0.8005623023850174</speed>
  <fix>3d</fix>
</trkpt>
<trkpt lat="33.8106472" lon="-118.3938554">
  <ele>-25.287</ele>
  <time>2026-09-02T22:11:31Z</time>
  <course>19.69</course>
  <speed>0.8005623023850174</speed>
  <fix>3d</fix>
</trkpt>
<trkpt lat="33.8106472" lon="-118.3938553">
  <ele>-25.287</ele>
  <time>2026-09-02T22:11:31Z</time>
  <course>19.69</course>
  <speed>0.8005623023850174</speed>
  <fix>3d</fix>
</trkpt>
<trkpt lat="33.8106472" lon="-118.3938553">
  <ele>-25.287</ele>
  <time>2026-09-02T22:11:31Z</time>
  <course>19.69</course>
  <speed>0.8005623023850174</speed>
  <fix>3d</fix>
</trkpt>
<trkpt lat="33.8106473" lon="-118.3938552">
  <ele>-25.287</ele>
  <time>2026-09-02T22:11:31Z</time>
  <course>19.69</course>
  <speed>0.8005623023850174</speed>
  <fix>3d</fix>
</trkpt>
<trkpt lat="33.8106473" lon="-118.3938552">
  <ele>-25.287</ele>
  <time>2026-09-02T22:11:31Z</time>
  <course>19.69</course>
  <speed>0.8005623023850174</speed>
  <fix>3d</fix>
</trkpt>
<trkpt lat="33.8106474" lon="-118.3938551">
  <ele>-25.287</ele>
  <time>2026-09-02T22:11:31Z</time>
  <course>19.7</course>
  <speed>0.8005623023850174</speed>
  <fix>3d</fix>
</trkpt>
<trkpt lat="33.8106474" lon="-118.3938551">
  <ele>-25.287</ele>
  <time>2026-09-02T22:11:31Z</time>
  <course>19.7</course>
  <speed>0.8005623023850174</speed>
  <fix>3d</fix>
</trkpt>
<trkpt lat="33.8106465" lon="-118.3938567">
  <ele>-24.68</ele>
  <time>2026-09-02T22:11:31Z</time>
  <course>45.8</course>
  <speed>0.82</speed>
  <fix>3d</fix>
</trkpt>
<trkpt lat="33.8106474" lon="-118.3938551">
  <ele>-25.287</ele>
  <time>2026-09-02T22:11:31Z</time>
  <course>19.7</course>
  <speed>0.8005623023850174</speed>
  <fix>3d</fix>
</trkpt>
<trkpt lat="33.8106475" lon="-118.393855">
  <ele>-25.287</ele>
  <time>2026-09-02T22:11:31Z</time>
  <course>19.7</course>
  <speed>0.8005623023850174</speed>
  <fix>3d</fix>
</trkpt>
<trkpt lat="33.8106475" lon="-118.3938549">
  <ele>-25.287</ele>
  <time>2026-09-02T22:11:31Z</time>
  <course>19.7</course>
  <speed>0.8005623023850174</speed>
  <fix>3d</fix>
</trkpt>
<trkpt lat="33.8106476" lon="-118.3938549">
  <ele>-25.287</ele>
  <time>2026-09-02T22:11:31Z</time>
  <course>19.71</course>
  <speed>0.8005623023850174</speed>
  <fix>3d</fix>
</trkpt>
<trkpt lat="33.8106476" lon="-118.3938548">
  <ele>-25.286</ele>
  <time>2026-09-02T22:11:31Z</time>
  <course>19.71</course>
  <speed>0.8005623023850174</speed>
  <fix>3d</fix>
</trkpt>
<trkpt lat="33.8106476" lon="-118.3938548">
  <ele>-25.286</ele>
  <time>2026-09-02T22:11:31Z</time>
  <course>19.71</course>
  <speed>0.8005623023850174</speed>
  <fix>3d</fix>
</trkpt>
<trkpt lat="33.8106477" lon="-118.3938547">
  <ele>-25.286</ele>
  <time>2026-09-02T22:11:31Z</time>
  <course>19.71</course>
  <speed>0.8005623023850174</speed>
  <fix>3d</fix>
</trkpt>
<trkpt lat="33.8106477" lon="-118.3938547">
  <ele>-25.286</ele>
  <time>2026-09-02T22:11:31Z</time>
  <course>19.72</course>
  <speed>0.8005623023850174</speed>
  <fix>3d</fix>
</trkpt>
<trkpt lat="33.8106477" lon="-118.3938547">
  <ele>-25.286</ele>
  <time>2026-09-02T22:11:31Z</time>
  <course>19.72</course>
  <speed>0.8005623023850174</speed>
  <fix>3d</fix>
</trkpt>
<trkpt lat="33.8106478" lon="-118.3938546">
  <ele>-25.286</ele>
  <time>2026-09-02T22:11:31Z</time>
  <course>19.72</course>
  <speed>0.8005623023850174</speed>
  <fix>3d</fix>
</trkpt>
<trkpt lat="33.8106478" lon="-118.3938546">
  <ele>-25.286</ele>
  <time>2026-09-02T22:11:31Z</time>
  <course>19.72</course>
  <speed>0.8005623023850174</speed>
  <fix>3d</fix>
</trkpt>
<trkpt lat="33.8106479" lon="-118.3938545">
  <ele>-25.285</ele>
  <time>2026-09-02T22:11:31Z</time>
  <course>19.72</course>
  <speed>0.8005623023850174</speed>
  <fix>3d</fix>
</trkpt>
<trkpt lat="33.8106479" lon="-118.3938545">
  <ele>-25.285</ele>
  <time>2026-09-02T22:11:31Z</time>
  <course>19.71</course>
  <speed>0.8005623023850174</speed>
  <fix>3d</fix>
</trkpt>
<trkpt lat="33.8106479" lon="-118.3938544">
  <ele>-25.285</ele>
  <time>2026-09-02T22:11:31Z</time>
  <course>19.71</course>
  <speed>0.8005623023850174</speed>
  <fix>3d</fix>
</trkpt>
<trkpt lat="33.8106475" lon="-118.3938554">
  <ele>-24.67</ele>
  <time>2026-09-02T22:11:31Z</time>
  <course>45.78</course>
  <speed>0.83</speed>
  <fix>3d</fix>
</trkpt>
<trkpt lat="33.8106479" lon="-118.3938544">
  <ele>-25.285</ele>
  <time>2026-09-02T22:11:31Z</time>
  <course>19.71</course>
  <speed>0.8005623023850174</speed>
  <fix>3d</fix>
</trkpt>
<trkpt lat="33.810648" lon="-118.3938544">
  <ele>-25.285</ele>
  <time>2026-09-02T22:11:31Z</time>
  <course>19.72</course>
  <speed>0.8005623023850174</speed>
  <fix>3d</fix>
</trkpt>
<trkpt lat="33.8106481" lon="-118.3938543">
  <ele>-25.285</ele>
  <time>2026-09-02T22:11:31Z</time>
  <course>19.72</course>
  <speed>0.8005623023850174</speed>
  <fix>3d</fix>
</trkpt>
<trkpt lat="33.8106481" lon="-118.3938542">
  <ele>-25.284</ele>
  <time>2026-09-02T22:11:31Z</time>
  <course>19.72</course>
  <speed>0.8005623023850174</speed>
  <fix>3d</fix>
</trkpt>
<trkpt lat="33.8106481" lon="-118.3938542">
  <ele>-25.284</ele>
  <time>2026-09-02T22:11:31Z</time>
  <course>19.72</course>
  <speed>0.8005623023850174</speed>
  <fix>3d</fix>
</trkpt>
<trkpt lat="33.8106482" lon="-118.3938541">
  <ele>-25.284</ele>
  <time>2026-09-02T22:11:31Z</time>
  <course>19.72</course>
  <speed>0.8005623023850174</speed>
  <fix>3d</fix>
</trkpt>
<trkpt lat="33.8106482" lon="-118.3938541">
  <ele>-25.284</ele>
  <time>2026-09-02T22:11:31Z</time>
  <course>19.72</course>
  <speed>0.8005623023850174</speed>
  <fix>3d</fix>
</trkpt>
<trkpt lat="33.8106483" lon="-118.393854">
  <ele>-25.283</ele>
  <time>2026-09-02T22:11:31Z</time>
  <course>19.72</course>
  <speed>0.8072174428244225</speed>
  <fix>3d</fix>
</trkpt>
<trkpt lat="33.8106483" lon="-118.393854">
  <ele>-25.283</ele>
  <time>2026-09-02T22:11:31Z</time>
  <course>19.72</course>
  <speed>0.8072174428244225</speed>
  <fix>3d</fix>
</trkpt>
<trkpt lat="33.8106483" lon="-118.3938539">
  <ele>-25.283</ele>
  <time>2026-09-02T22:11:31Z</time>
  <course>19.72</course>
  <speed>0.8072174428244225</speed>
  <fix>3d</fix>
</trkpt>
<trkpt lat="33.8106484" lon="-118.3938539">
  <ele>-25.283</ele>
  <time>2026-09-02T22:11:31Z</time>
  <course>19.72</course>
  <speed>0.8072174428244225</speed>
  <fix>3d</fix>
</trkpt>
<trkpt lat="33.8106484" lon="-118.3938538">
  <ele>-25.283</ele>
  <time>2026-09-02T22:11:31Z</time>
  <course>19.72</course>
  <speed>0.8072174428244225</speed>
  <fix>3d</fix>
</trkpt>
<trkpt lat="33.8106484" lon="-118.3938538">
  <ele>-25.282</ele>
  <time>2026-09-02T22:11:31Z</time>
  <course>19.72</course>
  <speed>0.8072174428244225</speed>
  <fix>3d</fix>
</trkpt>
<trkpt lat="33.8106475" lon="-118.3938554">
  <ele>-24.67</ele>
  <time>2026-09-02T22:11:31Z</time>
  <course>45.78</course>
  <speed>0.83</speed>
  <fix>3d</fix>
</trkpt>
<trkpt lat="33.8106484" lon="-118.3938538">
  <ele>-25.282</ele>
  <time>2026-09-02T22:11:31Z</time>
  <course>19.72</course>
  <speed>0.8072174428244225</speed>
  <fix>3d</fix>
</trkpt>
<trkpt lat="33.8106485" lon="-118.3938537">
  <ele>-25.282</ele>
  <time>2026-09-02T22:11:31Z</time>
  <course>19.72</course>
  <speed>0.8072174428244225</speed>
  <fix>3d</fix>
</trkpt>
<trkpt lat="33.8106486" lon="-118.3938537">
  <ele>-25.282</ele>
  <time>2026-09-02T22:11:31Z</time>
  <course>19.73</course>
  <speed>0.8072174428244225</speed>
  <fix>3d</fix>
</trkpt>
<trkpt lat="33.8106486" lon="-118.3938536">
  <ele>-25.281</ele>
  <time>2026-09-02T22:11:31Z</time>
  <course>19.73</course>
  <speed>0.8072174428244225</speed>
  <fix>3d</fix>
</trkpt>
<trkpt lat="33.8106486" lon="-118.3938536">
  <ele>-25.281</ele>
  <time>2026-09-02T22:11:31Z</time>
  <course>19.73</course>
  <speed>0.7998124780221925</speed>
  <fix>3d</fix>
</trkpt>
<trkpt lat="33.8106487" lon="-118.3938535">
  <ele>-25.281</ele>
  <time>2026-09-02T22:11:31Z</time>
  <course>19.73</course>
  <speed>0.7998124780221925</speed>
  <fix>3d</fix>
</trkpt>
<trkpt lat="33.8106487" lon="-118.3938535">
  <ele>-25.281</ele>
  <time>2026-09-02T22:11:31Z</time>
  <course>19.73</course>
  <speed>0.7998124780221925</speed>
  <fix>3d</fix>
</trkpt>
<trkpt lat="33.8106488" lon="-118.3938534">
  <ele>-25.28</ele>
  <time>2026-09-02T22:11:31Z</time>
  <course>19.74</course>
  <speed>0.7998124780221925</speed>
  <fix>3d</fix>
</trkpt>
<trkpt lat="33.8106488" lon="-118.3938534">
  <ele>-25.28</ele>
  <time>2026-09-02T22:11:31Z</time>
  <course>19.73</course>
  <speed>0.7998124780221925</speed>
  <fix>3d</fix>
</trkpt>
<trkpt lat="33.8106489" lon="-118.3938533">
  <ele>-25.28</ele>
  <time>2026-09-02T22:11:31Z</time>
  <course>19.73</course>
  <speed>0.7998124780221925</speed>
  <fix>3d</fix>
</trkpt>
<trkpt lat="33.8106489" lon="-118.3938532">
  <ele>-25.279</ele>
  <time>2026-09-02T22:11:31Z</time>
  <course>19.73</course>
  <speed>0.7998124780221925</speed>
  <fix>3d</fix>
</trkpt>
<trkpt lat="33.8106489" lon="-118.3938532">
  <ele>-25.279</ele>
  <time>2026-09-02T22:11:31Z</time>
  <course>19.73</course>
  <speed>0.7998124780221925</speed>
  <fix>3d</fix>
</trkpt>
<trkpt lat="33.810649" lon="-118.3938532">
  <ele>-25.279</ele>
  <time>2026-09-02T22:11:31Z</time>
  <course>19.73</course>
  <speed>0.7998124780221925</speed>
  <fix>3d</fix>
</trkpt>
<trkpt lat="33.8106486" lon="-118.3938541">
  <ele>-24.67</ele>
  <time>2026-09-02T22:11:31Z</time>
  <course>45.69</course>
  <speed>0.83</speed>
  <fix>3d</fix>
</trkpt>
<trkpt lat="33.810649" lon="-118.3938532">
  <ele>-25.279</ele>
  <time>2026-09-02T22:11:31Z</time>
  <course>19.73</course>
  <speed>0.7998124780221925</speed>
  <fix>3d</fix>
</trkpt>
<trkpt lat="33.810649" lon="-118.3938531">
  <ele>-25.279</ele>
  <time>2026-09-02T22:11:31Z</time>
  <course>19.73</course>
  <speed>0.7998124780221925</speed>
  <fix>3d</fix>
</trkpt>
<trkpt lat="33.8106491" lon="-118.393853">
  <ele>-25.279</ele>
  <time>2026-09-02T22:11:31Z</time>
  <course>19.73</course>
  <speed>0.7998124780221925</speed>
  <fix>3d</fix>
</trkpt>
<trkpt lat="33.8106491" lon="-118.393853">
  <ele>-25.278</ele>
  <time>2026-09-02T22:11:31Z</time>
  <course>19.73</course>
  <speed>0.7998124780221925</speed>
  <fix>3d</fix>
</trkpt>
<trkpt lat="33.8106492" lon="-118.3938529">
  <ele>-25.278</ele>
  <time>2026-09-02T22:11:31Z</time>
  <course>19.73</course>
  <speed>0.7998124780221925</speed>
  <fix>3d</fix>
</trkpt>
<trkpt lat="33.8106492" lon="-118.3938529">
  <ele>-25.278</ele>
  <time>2026-09-02T22:11:31Z</time>
  <course>19.73</course>
  <speed>0.7998124780221925</speed>
  <fix>3d</fix>
</trkpt>
<trkpt lat="33.8106492" lon="-118.3938528">
  <ele>-25.277</ele>
  <time>2026-09-02T22:11:31Z</time>
  <course>19.72</course>
  <speed>0.7998124780221925</speed>
  <fix>3d</fix>
</trkpt>
<trkpt lat="33.8106493" lon="-118.3938528">
  <ele>-25.277</ele>
  <time>2026-09-02T22:11:31Z</time>
  <course>19.72</course>
  <speed>0.7998124780221925</speed>
  <fix>3d</fix>
</trkpt>
<trkpt lat="33.8106493" lon="-118.3938527">
  <ele>-25.277</ele>
  <time>2026-09-02T22:11:31Z</time>
  <course>19.72</course>
  <speed>0.7998124780221925</speed>
  <fix>3d</fix>
</trkpt>
<trkpt lat="33.8106494" lon="-118.3938527">
  <ele>-25.276</ele>
  <time>2026-09-02T22:11:31Z</time>
  <course>19.72</course>
  <speed>0.7998124780221925</speed>
  <fix>3d</fix>
</trkpt>
<trkpt lat="33.8106494" lon="-118.3938526">
  <ele>-25.276</ele>
  <time>2026-09-02T22:11:31Z</time>
  <course>19.72</course>
  <speed>0.7998124780221925</speed>
  <fix>3d</fix>
</trkpt>
<trkpt lat="33.8106495" lon="-118.3938526">
  <ele>-25.276</ele>
  <time>2026-09-02T22:11:31Z</time>
  <course>19.73</course>
  <speed>0.7998124780221925</speed>
  <fix>3d</fix>
</trkpt>
<trkpt lat="33.8106495" lon="-118.3938525">
  <ele>-25.276</ele>
  <time>2026-09-02T22:11:31Z</time>
  <course>19.73</course>
  <speed>0.7998124780221925</speed>
  <fix>3d</fix>
</trkpt>
<trkpt lat="33.8106486" lon="-118.3938541">
  <ele>-24.67</ele>
  <time>2026-09-02T22:11:31Z</time>
  <course>45.69</course>
  <speed>0.83</speed>
  <fix>3d</fix>
</trkpt>
<trkpt lat="33.8106495" lon="-118.3938525">
  <ele>-25.276</ele>
  <time>2026-09-02T22:11:31Z</time>
  <course>19.73</course>
  <speed>0.7998124780221925</speed>
  <fix>3d</fix>
</trkpt>
<trkpt lat="33.8106496" lon="-118.3938525">
  <ele>-25.275</ele>
  <time>2026-09-02T22:11:31Z</time>
  <course>19.73</course>
  <speed>0.7998124780221925</speed>
  <fix>3d</fix>
</trkpt>
<trkpt lat="33.8106496" lon="-118.3938524">
  <ele>-25.275</ele>
  <time>2026-09-02T22:11:31Z</time>
  <course>19.73</course>
  <speed>0.7998124780221925</speed>
  <fix>3d</fix>
</trkpt>
<trkpt lat="33.8106496" lon="-118.3938524">
  <ele>-25.275</ele>
  <time>2026-09-02T22:11:31Z</time>
  <course>19.73</course>
  <speed>0.7998124780221925</speed>
  <fix>3d</fix>
</trkpt>
<trkpt lat="33.8106497" lon="-118.3938523">
  <ele>-25.275</ele>
  <time>2026-09-02T22:11:31Z</time>
  <course>19.73</course>
  <speed>0.7998124780221925</speed>
  <fix>3d</fix>
</trkpt>
<trkpt lat="33.8106497" lon="-118.3938523">
  <ele>-25.274</ele>
  <time>2026-09-02T22:11:31Z</time>
  <course>19.73</course>
  <speed>0.7998124780221925</speed>
  <fix>3d</fix>
</trkpt>
<trkpt lat="33.8106497" lon="-118.3938522">
  <ele>-25.274</ele>
  <time>2026-09-02T22:11:31Z</time>
  <course>19.74</course>
  <speed>0.7998124780221925</speed>
  <fix>3d</fix>
</trkpt>
<trkpt lat="33.8106498" lon="-118.3938522">
  <ele>-25.274</ele>
  <time>2026-09-02T22:11:31Z</time>
  <course>19.74</course>
  <speed>0.7998124780221925</speed>
  <fix>3d</fix>
</trkpt>
<trkpt lat="33.8106498" lon="-118.3938521">
  <ele>-25.274</ele>
  <time>2026-09-02T22:11:31Z</time>
  <course>19.74</course>
  <speed>0.7998124780221925</speed>
  <fix>3d</fix>
</trkpt>
<trkpt lat="33.8106499" lon="-118.3938521">
  <ele>-25.274</ele>
  <time>2026-09-02T22:11:31Z</time>
  <course>19.74</course>
  <speed>0.7998124780221925</speed>
  <fix>3d</fix>
</trkpt>
<trkpt lat="33.8106499" lon="-118.393852">
  <ele>-25.274</ele>
  <time>2026-09-02T22:11:31Z</time>
  <course>19.74</course>
  <speed>0.7998124780221925</speed>
  <fix>3d</fix>
</trkpt>
<trkpt lat="33.81065" lon="-118.393852">
  <ele>-25.274</ele>
  <time>2026-09-02T22:11:31Z</time>
  <course>19.74</course>
  <speed>0.7998124780221925</speed>
  <fix>3d</fix>
</trkpt>
<trkpt lat="33.81065" lon="-118.3938519">
  <ele>-25.274</ele>
  <time>2026-09-02T22:11:31Z</time>
  <course>19.74</course>
  <speed>0.7998124780221925</speed>
  <fix>3d</fix>
</trkpt>
<trkpt lat="33.81065" lon="-118.3938519">
  <ele>-25.274</ele>
  <time>2026-09-02T22:11:31Z</time>
  <course>19.74</course>
  <speed>0.7998124780221925</speed>
  <fix>3d</fix>
</trkpt>
<trkpt lat="33.8106497" lon="-118.3938528">
  <ele>-24.67</ele>
  <time>2026-09-02T22:11:31Z</time>
  <course>45.55</course>
  <speed>0.83</speed>
  <fix>3d</fix>
</trkpt>
<trkpt lat="33.8106501" lon="-118.3938518">
  <ele>-25.274</ele>
  <time>2026-09-02T22:11:31Z</time>
  <course>19.74</course>
  <speed>0.7998124780221925</speed>
  <fix>3d</fix>
</trkpt>
<trkpt lat="33.8106501" lon="-118.3938518">
  <ele>-25.274</ele>
  <time>2026-09-02T22:11:31Z</time>
  <course>19.74</course>
  <speed>0.7998124780221925</speed>
  <fix>3d</fix>
</trkpt>
<trkpt lat="33.8106502" lon="-118.3938517">
  <ele>-25.274</ele>
  <time>2026-09-02T22:11:31Z</time>
  <course>19.74</course>
  <speed>0.7998124780221925</speed>
  <fix>3d</fix>
</trkpt>
<trkpt lat="33.8106502" lon="-118.3938516">
  <ele>-25.274</ele>
  <time>2026-09-02T22:11:31Z</time>
  <course>19.74</course>
  <speed>0.7998124780221925</speed>
  <fix>3d</fix>
</trkpt>
<trkpt lat="33.8106503" lon="-118.3938516">
  <ele>-25.274</ele>
  <time>2026-09-02T22:11:31Z</time>
  <course>19.74</course>
  <speed>0.7998124780221925</speed>
  <fix>3d</fix>
</trkpt>
<trkpt lat="33.8106503" lon="-118.3938515">
  <ele>-25.274</ele>
  <time>2026-09-02T22:11:31Z</time>
  <course>19.74</course>
  <speed>0.7998124780221925</speed>
  <fix>3d</fix>
</trkpt>
<trkpt lat="33.8106504" lon="-118.3938515">
  <ele>-25.274</ele>
  <time>2026-09-02T22:11:31Z</time>
  <course>19.74</course>
  <speed>0.7998124780221925</speed>
  <fix>3d</fix>
</trkpt>
<trkpt lat="33.8106504" lon="-118.3938514">
  <ele>-25.274</ele>
  <time>2026-09-02T22:11:31Z</time>
  <course>19.74</course>
  <speed>0.7998124780221925</speed>
  <fix>3d</fix>
</trkpt>
<trkpt lat="33.8106504" lon="-118.3938514">
  <ele>-25.274</ele>
  <time>2026-09-02T22:11:31Z</time>
  <course>19.74</course>
  <speed>0.7998124780221925</speed>
  <fix>3d</fix>
</trkpt>
<trkpt lat="33.8106505" lon="-118.3938513">
  <ele>-25.274</ele>
  <time>2026-09-02T22:11:31Z</time>
  <course>19.74</course>
  <speed>0.7998124780221925</speed>
  <fix>3d</fix>
</trkpt>
<trkpt lat="33.8106505" lon="-118.3938513">
  <ele>-25.274</ele>
  <time>2026-09-02T22:11:31Z</time>
  <course>19.74</course>
  <speed>0.7998124780221925</speed>
  <fix>3d</fix>
</trkpt>
<trkpt lat="33.8106505" lon="-118.3938513">
  <ele>-25.274</ele>
  <time>2026-09-02T22:11:31Z</time>
  <course>19.74</course>
  <speed>0.7998124780221925</speed>
  <fix>3d</fix>
</trkpt>
<trkpt lat="33.8106497" lon="-118.3938528">
  <ele>-24.67</ele>
  <time>2026-09-02T22:11:31Z</time>
  <course>45.55</course>
  <speed>0.83</speed>
  <fix>3d</fix>
</trkpt>
<trkpt lat="33.8106506" lon="-118.3938512">
  <ele>-25.274</ele>
  <time>2026-09-02T22:11:31Z</time>
  <course>19.74</course>
  <speed>0.7998124780221925</speed>
  <fix>3d</fix>
</trkpt>
<trkpt lat="33.8106507" lon="-118.3938511">
  <ele>-25.275</ele>
  <time>2026-09-02T22:11:31Z</time>
  <course>19.74</course>
  <speed>0.7998124780221925</speed>
  <fix>3d</fix>
</trkpt>
<trkpt lat="33.8106507" lon="-118.3938511">
  <ele>-25.274</ele>
  <time>2026-09-02T22:11:31Z</time>
  <course>19.74</course>
  <speed>0.7998124780221925</speed>
  <fix>3d</fix>
</trkpt>
<trkpt lat="33.8106507" lon="-118.393851">
  <ele>-25.275</ele>
  <time>2026-09-02T22:11:31Z</time>
  <course>19.74</course>
  <speed>0.7998124780221925</speed>
  <fix>3d</fix>
</trkpt>
<trkpt lat="33.8106508" lon="-118.393851">
  <ele>-25.275</ele>
  <time>2026-09-02T22:11:31Z</time>
  <course>19.75</course>
  <speed>0.7998124780221925</speed>
  <fix>3d</fix>
</trkpt>
<trkpt lat="33.8106508" lon="-118.3938509">
  <ele>-25.275</ele>
  <time>2026-09-02T22:11:31Z</time>
  <course>19.75</course>
  <speed>0.7998124780221925</speed>
  <fix>3d</fix>
</trkpt>
<trkpt lat="33.8106508" lon="-118.3938509">
  <ele>-25.275</ele>
  <time>2026-09-02T22:11:31Z</time>
  <course>19.75</course>
  <speed>0.7998124780221925</speed>
  <fix>3d</fix>
</trkpt>
<trkpt lat="33.8106509" lon="-118.3938508">
  <ele>-25.275</ele>
  <time>2026-09-02T22:11:31Z</time>
  <course>19.75</course>
  <speed>0.7998124780221925</speed>
  <fix>3d</fix>
</trkpt>
<trkpt lat="33.8106509" lon="-118.3938508">
  <ele>-25.275</ele>
  <time>2026-09-02T22:11:31Z</time>
  <course>19.74</course>
  <speed>0.7998124780221925</speed>
  <fix>3d</fix>
</trkpt>
<trkpt lat="33.810651" lon="-118.3938507">
  <ele>-25.275</ele>
  <time>2026-09-02T22:11:31Z</time>
  <course>19.74</course>
  <speed>0.7998124780221925</speed>
  <fix>3d</fix>
</trkpt>
<trkpt lat="33.810651" lon="-118.3938507">
  <ele>-25.276</ele>
  <time>2026-09-02T22:11:31Z</time>
  <course>19.74</course>
  <speed>0.7998124780221925</speed>
  <fix>3d</fix>
</trkpt>
<trkpt lat="33.810651" lon="-118.3938506">
  <ele>-25.276</ele>
  <time>2026-09-02T22:11:31Z</time>
  <course>19.74</course>
  <speed>0.7998124780221925</speed>
  <fix>3d</fix>
</trkpt>
<trkpt lat="33.8106507" lon="-118.3938516">
  <ele>-24.67</ele>
  <time>2026-09-02T22:11:31Z</time>
  <course>45.43</course>
  <speed>0.83</speed>
  <fix>3d</fix>
</trkpt>
<trkpt lat="33.8106511" lon="-118.3938506">
  <ele>-25.276</ele>
  <time>2026-09-02T22:11:31Z</time>
  <course>19.74</course>
  <speed>0.7998124780221925</speed>
  <fix>3d</fix>
</trkpt>
<trkpt lat="33.8106511" lon="-118.3938506">
  <ele>-25.276</ele>
  <time>2026-09-02T22:11:31Z</time>
  <course>19.74</course>
  <speed>0.792464510246358</speed>
  <fix>3d</fix>
</trkpt>
<trkpt lat="33.8106512" lon="-118.3938505">
  <ele>-25.276</ele>
  <time>2026-09-02T22:11:31Z</time>
  <course>19.74</course>
  <speed>0.7856844150166147</speed>
  <fix>3d</fix>
</trkpt>
<trkpt lat="33.8106512" lon="-118.3938505">
  <ele>-25.276</ele>
  <time>2026-09-02T22:11:31Z</time>
  <course>19.74</course>
  <speed>0.7856844150166147</speed>
  <fix>3d</fix>
</trkpt>
<trkpt lat="33.8106512" lon="-118.3938504">
  <ele>-25.277</ele>
  <time>2026-09-02T22:11:31Z</time>
  <course>19.74</course>
  <speed>0.7856844150166147</speed>
  <fix>3d</fix>
</trkpt>
<trkpt lat="33.8106513" lon="-118.3938504">
  <ele>-25.277</ele>
  <time>2026-09-02T22:11:31Z</time>
  <course>19.74</course>
  <speed>0.7856844150166147</speed>
  <fix>3d</fix>
</trkpt>
<trkpt lat="33.8106513" lon="-118.3938503">
  <ele>-25.277</ele>
  <time>2026-09-02T22:11:31Z</time>
  <course>19.74</course>
  <speed>0.7856844150166147</speed>
  <fix>3d</fix>
</trkpt>
<trkpt lat="33.8106514" lon="-118.3938503">
  <ele>-25.277</ele>
  <time>2026-09-02T22:11:31Z</time>
  <course>19.74</course>
  <speed>0.7856844150166147</speed>
  <fix>3d</fix>
</trkpt>
<trkpt lat="33.8106514" lon="-118.3938502">
  <ele>-25.277</ele>
  <time>2026-09-02T22:11:31Z</time>
  <course>19.74</course>
  <speed>0.7856844150166147</speed>
  <fix>3d</fix>
</trkpt>
<trkpt lat="33.8106514" lon="-118.3938502">
  <ele>-25.277</ele>
  <time>2026-09-02T22:11:31Z</time>
  <course>19.74</course>
  <speed>0.7856844150166147</speed>
  <fix>3d</fix>
</trkpt>
<trkpt lat="33.8106515" lon="-118.3938501">
  <ele>-25.277</ele>
  <time>2026-09-02T22:11:31Z</time>
  <course>19.74</course>
  <speed>0.7856844150166147</speed>
  <fix>3d</fix>
</trkpt>
<trkpt lat="33.8106515" lon="-118.3938501">
  <ele>-25.278</ele>
  <time>2026-09-02T22:11:31Z</time>
  <course>19.74</course>
  <speed>0.7856844150166147</speed>
  <fix>3d</fix>
</trkpt>
<trkpt lat="33.8106516" lon="-118.39385">
  <ele>-25.278</ele>
  <time>2026-09-02T22:11:31Z</time>
  <course>19.74</course>
  <speed>0.7856844150166147</speed>
  <fix>3d</fix>
</trkpt>
<trkpt lat="33.8106516" lon="-118.39385">
  <ele>-25.278</ele>
  <time>2026-09-02T22:11:31Z</time>
  <course>19.74</course>
  <speed>0.7856844150166147</speed>
  <fix>3d</fix>
</trkpt>
<trkpt lat="33.8106507" lon="-118.3938516">
  <ele>-24.67</ele>
  <time>2026-09-02T22:11:31Z</time>
  <course>45.43</course>
  <speed>0.83</speed>
  <fix>3d</fix>
</trkpt>
<trkpt lat="33.8106516" lon="-118.39385">
  <ele>-25.278</ele>
  <time>2026-09-02T22:11:31Z</time>
  <course>19.74</course>
  <speed>0.7856844150166147</speed>
  <fix>3d</fix>
</trkpt>
<trkpt lat="33.8106516" lon="-118.3938499">
  <ele>-25.278</ele>
  <time>2026-09-02T22:11:31Z</time>
  <course>19.75</course>
  <speed>0.7856844150166147</speed>
  <fix>3d</fix>
</trkpt>
<trkpt lat="33.8106517" lon="-118.3938499">
  <ele>-25.278</ele>
  <time>2026-09-02T22:11:31Z</time>
  <course>19.75</course>
  <speed>0.7856844150166147</speed>
  <fix>3d</fix>
</trkpt>
<trkpt lat="33.8106517" lon="-118.3938498">
  <ele>-25.278</ele>
  <time>2026-09-02T22:11:31Z</time>
  <course>19.75</course>
  <speed>0.7856844150166147</speed>
  <fix>3d</fix>
</trkpt>
<trkpt lat="33.8106518" lon="-118.3938498">
  <ele>-25.278</ele>
  <time>2026-09-02T22:11:31Z</time>
  <course>19.75</course>
  <speed>0.7856844150166147</speed>
  <fix>3d</fix>
</trkpt>
<trkpt lat="33.8106518" lon="-118.3938497">
  <ele>-25.278</ele>
  <time>2026-09-02T22:11:31Z</time>
  <course>19.75</course>
  <speed>0.7856844150166147</speed>
  <fix>3d</fix>
</trkpt>
<trkpt lat="33.8106518" lon="-118.3938497">
  <ele>-25.278</ele>
  <time>2026-09-02T22:11:31Z</time>
  <course>19.75</course>
  <speed>0.7856844150166147</speed>
  <fix>3d</fix>
</trkpt>
<trkpt lat="33.8106519" lon="-118.3938496">
  <ele>-25.278</ele>
  <time>2026-09-02T22:11:31Z</time>
  <course>19.75</course>
  <speed>0.7856844150166147</speed>
  <fix>3d</fix>
</trkpt>
<trkpt lat="33.8106519" lon="-118.3938496">
  <ele>-25.278</ele>
  <time>2026-09-02T22:11:31Z</time>
  <course>19.75</course>
  <speed>0.7856844150166147</speed>
  <fix>3d</fix>
</trkpt>
<trkpt lat="33.810652" lon="-118.3938496">
  <ele>-25.279</ele>
  <time>2026-09-02T22:11:31Z</time>
  <course>19.75</course>
  <speed>0.7856844150166147</speed>
  <fix>3d</fix>
</trkpt>
<trkpt lat="33.810652" lon="-118.3938495">
  <ele>-25.278</ele>
  <time>2026-09-02T22:11:31Z</time>
  <course>19.75</course>
  <speed>0.7856844150166147</speed>
  <fix>3d</fix>
</trkpt>
<trkpt lat="33.810652" lon="-118.3938495">
  <ele>-25.279</ele>
  <time>2026-09-02T22:11:31Z</time>
  <course>19.75</course>
  <speed>0.7856844150166147</speed>
  <fix>3d</fix>
</trkpt>
<trkpt lat="33.8106521" lon="-118.3938494">
  <ele>-25.279</ele>
  <time>2026-09-02T22:11:31Z</time>
  <course>19.75</course>
  <speed>0.7856844150166147</speed>
  <fix>3d</fix>
</trkpt>
<trkpt lat="33.8106521" lon="-118.3938494">
  <ele>-25.279</ele>
  <time>2026-09-02T22:11:31Z</time>
  <course>19.75</course>
  <speed>0.7856844150166147</speed>
  <fix>3d</fix>
</trkpt>
<trkpt lat="33.8106518" lon="-118.3938503">
  <ele>-24.67</ele>
  <time>2026-09-02T22:11:31Z</time>
  <course>45.33</course>
  <speed>0.82</speed>
  <fix>3d</fix>
</trkpt>
<trkpt lat="33.8106522" lon="-118.3938493">
  <ele>-25.279</ele>
  <time>2026-09-02T22:11:31Z</time>
  <course>19.75</course>
  <speed>0.7856844150166147</speed>
  <fix>3d</fix>
</trkpt>
<trkpt lat="33.8106522" lon="-118.3938492">
  <ele>-25.279</ele>
  <time>2026-09-02T22:11:31Z</time>
  <course>19.75</course>
  <speed>0.7856844150166147</speed>
  <fix>3d</fix>
</trkpt>
<trkpt lat="33.8106523" lon="-118.3938492">
  <ele>-25.278</ele>
  <time>2026-09-02T22:11:31Z</time>
  <course>19.75</course>
  <speed>0.7856844150166147</speed>
  <fix>3d</fix>
</trkpt>
<trkpt lat="33.8106523" lon="-118.3938491">
  <ele>-25.279</ele>
  <time>2026-09-02T22:11:31Z</time>
  <course>19.75</course>
  <speed>0.7856844150166147</speed>
  <fix>3d</fix>
</trkpt>
<trkpt lat="33.8106523" lon="-118.3938491">
  <ele>-25.279</ele>
  <time>2026-09-02T22:11:31Z</time>
  <course>19.75</course>
  <speed>0.7856844150166147</speed>
  <fix>3d</fix>
</trkpt>
<trkpt lat="33.8106524" lon="-118.3938491">
  <ele>-25.279</ele>
  <time>2026-09-02T22:11:31Z</time>
  <course>19.75</course>
  <speed>0.7856844150166147</speed>
  <fix>3d</fix>
</trkpt>
<trkpt lat="33.8106524" lon="-118.393849">
  <ele>-25.279</ele>
  <time>2026-09-02T22:11:31Z</time>
  <course>19.75</course>
  <speed>0.7856844150166147</speed>
  <fix>3d</fix>
</trkpt>
<trkpt lat="33.8106525" lon="-118.393849">
  <ele>-25.279</ele>
  <time>2026-09-02T22:11:31Z</time>
  <course>19.75</course>
  <speed>0.7856844150166147</speed>
  <fix>3d</fix>
</trkpt>
<trkpt lat="33.8106525" lon="-118.3938489">
  <ele>-25.279</ele>
  <time>2026-09-02T22:11:31Z</time>
  <course>19.75</course>
  <speed>0.7856844150166147</speed>
  <fix>3d</fix>
</trkpt>
<trkpt lat="33.8106525" lon="-118.3938489">
  <ele>-25.279</ele>
  <time>2026-09-02T22:11:31Z</time>
  <course>19.75</course>
  <speed>0.7856844150166147</speed>
  <fix>3d</fix>
</trkpt>
<trkpt lat="33.8106526" lon="-118.3938488">
  <ele>-25.279</ele>
  <time>2026-09-02T22:11:31Z</time>
  <course>19.75</course>
  <speed>0.7856844150166147</speed>
  <fix>3d</fix>
</trkpt>
<trkpt lat="33.8106526" lon="-118.3938488">
  <ele>-25.279</ele>
  <time>2026-09-02T22:11:31Z</time>
  <course>19.75</course>
  <speed>0.7856844150166147</speed>
  <fix>3d</fix>
</trkpt>
<trkpt lat="33.8106526" lon="-118.3938488">
  <ele>-25.279</ele>
  <time>2026-09-02T22:11:31Z</time>
  <course>19.75</course>
  <speed>0.7856844150166147</speed>
  <fix>3d</fix>
</trkpt>
<trkpt lat="33.8106518" lon="-118.3938503">
  <ele>-24.67</ele>
  <time>2026-09-02T22:11:31Z</time>
  <course>45.33</course>
  <speed>0.82</speed>
  <fix>3d</fix>
</trkpt>
<trkpt lat="33.8106527" lon="-118.3938487">
  <ele>-25.279</ele>
  <time>2026-09-02T22:11:31Z</time>
  <course>19.76</course>
  <speed>0.7856844150166147</speed>
  <fix>3d</fix>
</trkpt>
<trkpt lat="33.8106528" lon="-118.3938486">
  <ele>-25.279</ele>
  <time>2026-09-02T22:11:31Z</time>
  <course>19.76</course>
  <speed>0.7856844150166147</speed>
  <fix>3d</fix>
</trkpt>
<trkpt lat="33.8106528" lon="-118.3938485">
  <ele>-25.279</ele>
  <time>2026-09-02T22:11:31Z</time>
  <course>19.76</course>
  <speed>0.7856844150166147</speed>
  <fix>3d</fix>
</trkpt>
<trkpt lat="33.8106528" lon="-118.3938485">
  <ele>-25.279</ele>
  <time>2026-09-02T22:11:31Z</time>
  <course>19.76</course>
  <speed>0.7856844150166147</speed>
  <fix>3d</fix>
</trkpt>
<trkpt lat="33.8106529" lon="-118.3938484">
  <ele>-25.279</ele>
  <time>2026-09-02T22:11:31Z</time>
  <course>19.76</course>
  <speed>0.7856844150166147</speed>
  <fix>3d</fix>
</trkpt>
<trkpt lat="33.8106529" lon="-118.3938484">
  <ele>-25.279</ele>
  <time>2026-09-02T22:11:31Z</time>
  <course>19.76</course>
  <speed>0.7856844150166147</speed>
  <fix>3d</fix>
</trkpt>
<trkpt lat="33.810653" lon="-118.3938483">
  <ele>-25.279</ele>
  <time>2026-09-02T22:11:31Z</time>
  <course>19.76</course>
  <speed>0.7856844150166147</speed>
  <fix>3d</fix>
</trkpt>
<trkpt lat="33.810653" lon="-118.3938483">
  <ele>-25.279</ele>
  <time>2026-09-02T22:11:31Z</time>
  <course>19.76</course>
  <speed>0.7856844150166147</speed>
  <fix>3d</fix>
</trkpt>
<trkpt lat="33.810653" lon="-118.3938483">
  <ele>-25.279</ele>
  <time>2026-09-02T22:11:31Z</time>
  <course>19.76</course>
  <speed>0.7856844150166147</speed>
  <fix>3d</fix>
</trkpt>
<trkpt lat="33.8106531" lon="-118.3938482">
  <ele>-25.279</ele>
  <time>2026-09-02T22:11:31Z</time>
  <course>19.76</course>
  <speed>0.7856844150166147</speed>
  <fix>3d</fix>
</trkpt>
<trkpt lat="33.8106531" lon="-118.3938482">
  <ele>-25.279</ele>
  <time>2026-09-02T22:11:31Z</time>
  <course>19.76</course>
  <speed>0.7856844150166147</speed>
  <fix>3d</fix>
</trkpt>
<trkpt lat="33.8106531" lon="-118.3938481">
  <ele>-25.279</ele>
  <time>2026-09-02T22:11:31Z</time>
  <course>19.76</course>
  <speed>0.7856844150166147</speed>
  <fix>3d</fix>
</trkpt>
<trkpt lat="33.8106528" lon="-118.393849">
  <ele>-24.67</ele>
  <time>2026-09-02T22:11:31Z</time>
  <course>45.27</course>
  <speed>0.82</speed>
  <fix>3d</fix>
</trkpt>
<trkpt lat="33.8106531" lon="-118.3938481">
  <ele>-25.279</ele>
  <time>2026-09-02T22:11:31Z</time>
  <course>19.76</course>
  <speed>0.7856844150166147</speed>
  <fix>3d</fix>
</trkpt>
<trkpt lat="33.8106532" lon="-118.393848">
  <ele>-25.279</ele>
  <time>2026-09-02T22:11:31Z</time>
  <course>19.77</course>
  <speed>0.7856844150166147</speed>
  <fix>3d</fix>
</trkpt>
<trkpt lat="33.8106533" lon="-118.393848">
  <ele>-25.279</ele>
  <time>2026-09-02T22:11:31Z</time>
  <course>19.77</course>
  <speed>0.7856844150166147</speed>
  <fix>3d</fix>
</trkpt>
<trkpt lat="33.8106533" lon="-118.3938479">
  <ele>-25.279</ele>
  <time>2026-09-02T22:11:31Z</time>
  <course>19.77</course>
  <speed>0.7856844150166147</speed>
  <fix>3d</fix>
</trkpt>
<trkpt lat="33.8106534" lon="-118.3938479">
  <ele>-25.279</ele>
  <time>2026-09-02T22:11:31Z</time>
  <course>19.77</course>
  <speed>0.7856844150166147</speed>
  <fix>3d</fix>
</trkpt>
<trkpt lat="33.8106534" lon="-118.3938478">
  <ele>-25.279</ele>
  <time>2026-09-02T22:11:31Z</time>
  <course>19.77</course>
  <speed>0.7856844150166147</speed>
  <fix>3d</fix>
</trkpt>
<trkpt lat="33.8106534" lon="-118.3938478">
  <ele>-25.279</ele>
  <time>2026-09-02T22:11:31Z</time>
  <course>19.77</course>
  <speed>0.7856844150166147</speed>
  <fix>3d</fix>
</trkpt>
<trkpt lat="33.8106535" lon="-118.3938477">
  <ele>-25.279</ele>
  <time>2026-09-02T22:11:31Z</time>
  <course>19.77</course>
  <speed>0.7856844150166147</speed>
  <fix>3d</fix>
</trkpt>
<trkpt lat="33.8106535" lon="-118.3938477">
  <ele>-25.279</ele>
  <time>2026-09-02T22:11:31Z</time>
  <course>19.77</course>
  <speed>0.7856844150166147</speed>
  <fix>3d</fix>
</trkpt>
<trkpt lat="33.8106535" lon="-118.3938476">
  <ele>-25.278</ele>
  <time>2026-09-02T22:11:31Z</time>
  <course>19.77</course>
  <speed>0.7856844150166147</speed>
  <fix>3d</fix>
</trkpt>
<trkpt lat="33.8106536" lon="-118.3938476">
  <ele>-25.278</ele>
  <time>2026-09-02T22:11:31Z</time>
  <course>19.77</course>
  <speed>0.7856844150166147</speed>
  <fix>3d</fix>
</trkpt>
<trkpt lat="33.8106536" lon="-118.3938476">
  <ele>-25.278</ele>
  <time>2026-09-02T22:11:31Z</time>
  <course>19.77</course>
  <speed>0.7856844150166147</speed>
  <fix>3d</fix>
</trkpt>
<trkpt lat="33.8106537" lon="-118.3938475">
  <ele>-25.278</ele>
  <time>2026-09-02T22:11:31Z</time>
  <course>19.77</course>
  <speed>0.7856844150166147</speed>
  <fix>3d</fix>
</trkpt>
<trkpt lat="33.8106528" lon="-118.393849">
  <ele>-24.67</ele>
  <time>2026-09-02T22:11:31Z</time>
  <course>45.27</course>
  <speed>0.82</speed>
  <fix>3d</fix>
</trkpt>
<trkpt lat="33.8106537" lon="-118.3938475">
  <ele>-25.278</ele>
  <time>2026-09-02T22:11:31Z</time>
  <course>19.77</course>
  <speed>0.7856844150166147</speed>
  <fix>3d</fix>
</trkpt>
<trkpt lat="33.8106537" lon="-118.3938474">
  <ele>-25.278</ele>
  <time>2026-09-02T22:11:31Z</time>
  <course>19.77</course>
  <speed>0.7856844150166147</speed>
  <fix>3d</fix>
</trkpt>
<trkpt lat="33.8106538" lon="-118.3938474">
  <ele>-25.277</ele>
  <time>2026-09-02T22:11:31Z</time>
  <course>19.77</course>
  <speed>0.7856844150166147</speed>
  <fix>3d</fix>
</trkpt>
<trkpt lat="33.8106538" lon="-118.3938473">
  <ele>-25.277</ele>
  <time>2026-09-02T22:11:31Z</time>
  <course>19.78</course>
  <speed>0.7856844150166147</speed>
  <fix>3d</fix>
</trkpt>
<trkpt lat="33.8106538" lon="-118.3938473">
  <ele>-25.277</ele>
  <time>2026-09-02T22:11:31Z</time>
  <course>19.78</course>
  <speed>0.7856844150166147</speed>
  <fix>3d</fix>
</trkpt>
<trkpt lat="33.8106539" lon="-118.3938472">
  <ele>-25.277</ele>
  <time>2026-09-02T22:11:31Z</time>
  <course>19.78</course>
  <speed>0.7856844150166147</speed>
  <fix>3d</fix>
</trkpt>
<trkpt lat="33.8106539" lon="-118.3938472">
  <ele>-25.277</ele>
  <time>2026-09-02T22:11:31Z</time>
  <course>19.78</course>
  <speed>0.7856844150166147</speed>
  <fix>3d</fix>
</trkpt>
<trkpt lat="33.810654" lon="-118.3938471">
  <ele>-25.276</ele>
  <time>2026-09-02T22:11:31Z</time>
  <course>19.78</course>
  <speed>0.7783315488916018</speed>
  <fix>3d</fix>
</trkpt>
<trkpt lat="33.810654" lon="-118.3938471">
  <ele>-25.276</ele>
  <time>2026-09-02T22:11:31Z</time>
  <course>19.78</course>
  <speed>0.7783315488916018</speed>
  <fix>3d</fix>
</trkpt>
<trkpt lat="33.810654" lon="-118.3938471">
  <ele>-25.276</ele>
  <time>2026-09-02T22:11:31Z</time>
  <course>19.78</course>
  <speed>0.7783315488916018</speed>
  <fix>3d</fix>
</trkpt>
<trkpt lat="33.8106541" lon="-118.393847">
  <ele>-25.276</ele>
  <time>2026-09-02T22:11:31Z</time>
  <course>19.78</course>
  <speed>0.7783315488916018</speed>
  <fix>3d</fix>
</trkpt>
<trkpt lat="33.8106541" lon="-118.393847">
  <ele>-25.275</ele>
  <time>2026-09-02T22:11:31Z</time>
  <course>19.78</course>
  <speed>0.7783315488916018</speed>
  <fix>3d</fix>
</trkpt>
<trkpt lat="33.8106542" lon="-118.3938469">
  <ele>-25.275</ele>
  <time>2026-09-02T22:11:31Z</time>
  <course>19.78</course>
  <speed>0.7783315488916018</speed>
  <fix>3d</fix>
</trkpt>
<trkpt lat="33.8106542" lon="-118.3938469">
  <ele>-25.275</ele>
  <time>2026-09-02T22:11:31Z</time>
  <course>19.78</course>
  <speed>0.7783315488916018</speed>
  <fix>3d</fix>
</trkpt>
<trkpt lat="33.8106538" lon="-118.3938478">
  <ele>-24.66</ele>
  <time>2026-09-02T22:11:31Z</time>
  <course>45.2</course>
  <speed>0.81</speed>
  <fix>3d</fix>
</trkpt>
<trkpt lat="33.8106542" lon="-118.3938469">
  <ele>-25.275</ele>
  <time>2026-09-02T22:11:31Z</time>
  <course>19.78</course>
  <speed>0.7783315488916018</speed>
  <fix>3d</fix>
</trkpt>
<trkpt lat="33.8106542" lon="-118.3938468">
  <ele>-25.275</ele>
  <time>2026-09-02T22:11:31Z</time>
  <course>19.78</course>
  <speed>0.7783315488916018</speed>
  <fix>3d</fix>
</trkpt>
<trkpt lat="33.8106543" lon="-118.3938467">
  <ele>-25.274</ele>
  <time>2026-09-02T22:11:31Z</time>
  <course>19.78</course>
  <speed>0.7783315488916018</speed>
  <fix>3d</fix>
</trkpt>
<trkpt lat="33.8106543" lon="-118.3938467">
  <ele>-25.274</ele>
  <time>2026-09-02T22:11:31Z</time>
  <course>19.78</course>
  <speed>0.7783315488916018</speed>
  <fix>3d</fix>
</trkpt>
<trkpt lat="33.8106544" lon="-118.3938467">
  <ele>-25.274</ele>
  <time>2026-09-02T22:11:31Z</time>
  <course>19.78</course>
  <speed>0.7783315488916018</speed>
  <fix>3d</fix>
</trkpt>
<trkpt lat="33.8106544" lon="-118.3938466">
  <ele>-25.273</ele>
  <time>2026-09-02T22:11:31Z</time>
  <course>19.79</course>
  <speed>0.7783315488916018</speed>
  <fix>3d</fix>
</trkpt>
<trkpt lat="33.8106545" lon="-118.3938466">
  <ele>-25.273</ele>
  <time>2026-09-02T22:11:31Z</time>
  <course>19.79</course>
  <speed>0.7783315488916018</speed>
  <fix>3d</fix>
</trkpt>
<trkpt lat="33.8106545" lon="-118.3938465">
  <ele>-25.273</ele>
  <time>2026-09-02T22:11:31Z</time>
  <course>19.79</course>
  <speed>0.7783315488916018</speed>
  <fix>3d</fix>
</trkpt>
<trkpt lat="33.8106545" lon="-118.3938465">
  <ele>-25.273</ele>
  <time>2026-09-02T22:11:31Z</time>
  <course>19.79</course>
  <speed>0.7783315488916018</speed>
  <fix>3d</fix>
</trkpt>
<trkpt lat="33.8106546" lon="-118.3938464">
  <ele>-25.273</ele>
  <time>2026-09-02T22:11:31Z</time>
  <course>19.79</course>
  <speed>0.7783315488916018</speed>
  <fix>3d</fix>
</trkpt>
<trkpt lat="33.8106546" lon="-118.3938464">
  <ele>-25.272</ele>
  <time>2026-09-02T22:11:31Z</time>
  <course>19.79</course>
  <speed>0.7783315488916018</speed>
  <fix>3d</fix>
</trkpt>
<trkpt lat="33.8106546" lon="-118.3938463">
  <ele>-25.272</ele>
  <time>2026-09-02T22:11:31Z</time>
  <course>19.79</course>
  <speed>0.7783315488916018</speed>
  <fix>3d</fix>
</trkpt>
<trkpt lat="33.8106547" lon="-118.3938463">
  <ele>-25.272</ele>
  <time>2026-09-02T22:11:31Z</time>
  <course>19.79</course>
  <speed>0.7783315488916018</speed>
  <fix>3d</fix>
</trkpt>
<trkpt lat="33.8106547" lon="-118.3938463">
  <ele>-25.272</ele>
  <time>2026-09-02T22:11:31Z</time>
  <course>19.79</course>
  <speed>0.7783315488916018</speed>
  <fix>3d</fix>
</trkpt>
<trkpt lat="33.8106538" lon="-118.3938478">
  <ele>-24.66</ele>
  <time>2026-09-02T22:11:31Z</time>
  <course>45.2</course>
  <speed>0.81</speed>
  <fix>3d</fix>
</trkpt>
<trkpt lat="33.8106548" lon="-118.3938462">
  <ele>-25.271</ele>
  <time>2026-09-02T22:11:31Z</time>
  <course>19.79</course>
  <speed>0.7783315488916018</speed>
  <fix>3d</fix>
</trkpt>
<trkpt lat="33.8106548" lon="-118.3938461">
  <ele>-25.271</ele>
  <time>2026-09-02T22:11:31Z</time>
  <course>19.79</course>
  <speed>0.7783315488916018</speed>
  <fix>3d</fix>
</trkpt>
<trkpt lat="33.8106548" lon="-118.3938461">
  <ele>-25.271</ele>
  <time>2026-09-02T22:11:31Z</time>
  <course>19.79</course>
  <speed>0.7783315488916018</speed>
  <fix>3d</fix>
</trkpt>
<trkpt lat="33.8106549" lon="-118.393846">
  <ele>-25.27</ele>
  <time>2026-09-02T22:11:31Z</time>
  <course>19.79</course>
  <speed>0.7783315488916018</speed>
  <fix>3d</fix>
</trkpt>
<trkpt lat="33.8106549" lon="-118.393846">
  <ele>-25.27</ele>
  <time>2026-09-02T22:11:31Z</time>
  <course>19.79</course>
  <speed>0.7783315488916018</speed>
  <fix>3d</fix>
</trkpt>
<trkpt lat="33.810655" lon="-118.393846">
  <ele>-25.27</ele>
  <time>2026-09-02T22:11:31Z</time>
  <course>19.79</course>
  <speed>0.7783315488916018</speed>
  <fix>3d</fix>
</trkpt>
<trkpt lat="33.810655" lon="-118.3938459">
  <ele>-25.269</ele>
  <time>2026-09-02T22:11:31Z</time>
  <course>19.79</course>
  <speed>0.7783315488916018</speed>
  <fix>3d</fix>
</trkpt>
<trkpt lat="33.810655" lon="-118.3938459">
  <ele>-25.269</ele>
  <time>2026-09-02T22:11:31Z</time>
  <course>19.79</course>
  <speed>0.7783315488916018</speed>
  <fix>3d</fix>
</trkpt>
<trkpt lat="33.8106551" lon="-118.3938458">
  <ele>-25.268</ele>
  <time>2026-09-02T22:11:31Z</time>
  <course>19.79</course>
  <speed>0.7783315488916018</speed>
  <fix>3d</fix>
</trkpt>
<trkpt lat="33.8106551" lon="-118.3938458">
  <ele>-25.268</ele>
  <time>2026-09-02T22:11:31Z</time>
  <course>19.79</course>
  <speed>0.7783315488916018</speed>
  <fix>3d</fix>
</trkpt>
<trkpt lat="33.8106551" lon="-118.3938457">
  <ele>-25.268</ele>
  <time>2026-09-02T22:11:31Z</time>
  <course>19.79</course>
  <speed>0.7783315488916018</speed>
  <fix>3d</fix>
</trkpt>
<trkpt lat="33.8106552" lon="-118.3938457">
  <ele>-25.267</ele>
  <time>2026-09-02T22:11:31Z</time>
  <course>19.79</course>
  <speed>0.7783315488916018</speed>
  <fix>3d</fix>
</trkpt>
<trkpt lat="33.8106552" lon="-118.3938457">
  <ele>-25.267</ele>
  <time>2026-09-02T22:11:31Z</time>
  <course>19.79</course>
  <speed>0.7783315488916018</speed>
  <fix>3d</fix>
</trkpt>
<trkpt lat="33.8106549" lon="-118.3938465">
  <ele>-24.65</ele>
  <time>2026-09-02T22:11:31Z</time>
  <course>45.11</course>
  <speed>0.81</speed>
  <fix>3d</fix>
</trkpt>
<trkpt lat="33.8106553" lon="-118.3938456">
  <ele>-25.267</ele>
  <time>2026-09-02T22:11:31Z</time>
  <course>19.79</course>
  <speed>0.7783315488916018</speed>
  <fix>3d</fix>
</trkpt>
<trkpt lat="33.8106553" lon="-118.3938455">
  <ele>-25.266</ele>
  <time>2026-09-02T22:11:31Z</time>
  <course>19.79</course>
  <speed>0.7783315488916018</speed>
  <fix>3d</fix>
</trkpt>
<trkpt lat="33.8106554" lon="-118.3938455">
  <ele>-25.266</ele>
  <time>2026-09-02T22:11:31Z</time>
  <course>19.8</course>
  <speed>0.7783315488916018</speed>
  <fix>3d</fix>
</trkpt>
<trkpt lat="33.8106554" lon="-118.3938454">
  <ele>-25.265</ele>
  <time>2026-09-02T22:11:31Z</time>
  <course>19.8</course>
  <speed>0.7783315488916018</speed>
  <fix>3d</fix>
</trkpt>
<trkpt lat="33.8106554" lon="-118.3938454">
  <ele>-25.265</ele>
  <time>2026-09-02T22:11:31Z</time>
  <course>19.8</course>
  <speed>0.7783315488916018</speed>
  <fix>3d</fix>
</trkpt>
<trkpt lat="33.8106555" lon="-118.3938453">
  <ele>-25.264</ele>
  <time>2026-09-02T22:11:31Z</time>
  <course>19.8</course>
  <speed>0.7783315488916018</speed>
  <fix>3d</fix>
</trkpt>
<trkpt lat="33.8106555" lon="-118.3938453">
  <ele>-25.264</ele>
  <time>2026-09-02T22:11:31Z</time>
  <course>19.8</course>
  <speed>0.7783315488916018</speed>
  <fix>3d</fix>
</trkpt>
<trkpt lat="33.8106556" lon="-118.3938452">
  <ele>-25.263</ele>
  <time>2026-09-02T22:11:31Z</time>
  <course>19.8</course>
  <speed>0.7783315488916018</speed>
  <fix>3d</fix>
</trkpt>
<trkpt lat="33.8106556" lon="-118.3938452">
  <ele>-25.263</ele>
  <time>2026-09-02T22:11:31Z</time>
  <course>19.8</course>
  <speed>0.7783315488916018</speed>
  <fix>3d</fix>
</trkpt>
<trkpt lat="33.8106557" lon="-118.3938451">
  <ele>-25.263</ele>
  <time>2026-09-02T22:11:31Z</time>
  <course>19.8</course>
  <speed>0.7783315488916018</speed>
  <fix>3d</fix>
</trkpt>
<trkpt lat="33.8106557" lon="-118.3938451">
  <ele>-25.262</ele>
  <time>2026-09-02T22:11:31Z</time>
  <course>19.8</course>
  <speed>0.7783315488916018</speed>
  <fix>3d</fix>
</trkpt>
<trkpt lat="33.8106557" lon="-118.393845">
  <ele>-25.262</ele>
  <time>2026-09-02T22:11:31Z</time>
  <course>19.8</course>
  <speed>0.7783315488916018</speed>
  <fix>3d</fix>
</trkpt>
<trkpt lat="33.8106549" lon="-118.3938465">
  <ele>-24.65</ele>
  <time>2026-09-02T22:11:31Z</time>
  <course>45.11</course>
  <speed>0.81</speed>
  <fix>3d</fix>
</trkpt>
<trkpt lat="33.8106557" lon="-118.393845">
  <ele>-25.262</ele>
  <time>2026-09-02T22:11:31Z</time>
  <course>19.8</course>
  <speed>0.7783315488916018</speed>
  <fix>3d</fix>
</trkpt>
<trkpt lat="33.8106558" lon="-118.3938449">
  <ele>-25.261</ele>
  <time>2026-09-02T22:11:31Z</time>
  <course>19.81</course>
  <speed>0.7783315488916018</speed>
  <fix>3d</fix>
</trkpt>
<trkpt lat="33.8106559" lon="-118.3938449">
  <ele>-25.26</ele>
  <time>2026-09-02T22:11:31Z</time>
  <course>19.81</course>
  <speed>0.7783315488916018</speed>
  <fix>3d</fix>
</trkpt>
<trkpt lat="33.8106559" lon="-118.3938448">
  <ele>-25.26</ele>
  <time>2026-09-02T22:11:31Z</time>
  <course>19.81</course>
  <speed>0.7783315488916018</speed>
  <fix>3d</fix>
</trkpt>
<trkpt lat="33.8106559" lon="-118.3938448">
  <ele>-25.26</ele>
  <time>2026-09-02T22:11:31Z</time>
  <course>19.81</course>
  <speed>0.7783315488916018</speed>
  <fix>3d</fix>
</trkpt>
<trkpt lat="33.810656" lon="-118.3938447">
  <ele>-25.259</ele>
  <time>2026-09-02T22:11:31Z</time>
  <course>19.81</course>
  <speed>0.7783315488916018</speed>
  <fix>3d</fix>
</trkpt>
<trkpt lat="33.810656" lon="-118.3938447">
  <ele>-25.258</ele>
  <time>2026-09-02T22:11:31Z</time>
  <course>19.81</course>
  <speed>0.7783315488916018</speed>
  <fix>3d</fix>
</trkpt>
<trkpt lat="33.8106561" lon="-118.3938446">
  <ele>-25.258</ele>
  <time>2026-09-02T22:11:31Z</time>
  <course>19.81</course>
  <speed>0.7783315488916018</speed>
  <fix>3d</fix>
</trkpt>
<trkpt lat="33.8106561" lon="-118.3938446">
  <ele>-25.258</ele>
  <time>2026-09-02T22:11:31Z</time>
  <course>19.81</course>
  <speed>0.7783315488916018</speed>
  <fix>3d</fix>
</trkpt>
<trkpt lat="33.8106561" lon="-118.3938445">
  <ele>-25.257</ele>
  <time>2026-09-02T22:11:31Z</time>
  <course>19.81</course>
  <speed>0.7783315488916018</speed>
  <fix>3d</fix>
</trkpt>
<trkpt lat="33.8106562" lon="-118.3938445">
  <ele>-25.257</ele>
  <time>2026-09-02T22:11:31Z</time>
  <course>19.81</course>
  <speed>0.7783315488916018</speed>
  <fix>3d</fix>
</trkpt>
<trkpt lat="33.8106562" lon="-118.3938444">
  <ele>-25.256</ele>
  <time>2026-09-02T22:11:31Z</time>
  <course>19.81</course>
  <speed>0.7783315488916018</speed>
  <fix>3d</fix>
</trkpt>
<trkpt lat="33.8106562" lon="-118.3938444">
  <ele>-25.256</ele>
  <time>2026-09-02T22:11:31Z</time>
  <course>19.81</course>
  <speed>0.7783315488916018</speed>
  <fix>3d</fix>
</trkpt>
<trkpt lat="33.8106559" lon="-118.3938452">
  <ele>-24.64</ele>
  <time>2026-09-02T22:11:31Z</time>
  <course>45.02</course>
  <speed>0.8</speed>
  <fix>3d</fix>
</trkpt>
<trkpt lat="33.8106562" lon="-118.3938444">
  <ele>-25.256</ele>
  <time>2026-09-02T22:11:31Z</time>
  <course>19.81</course>
  <speed>0.7783315488916018</speed>
  <fix>3d</fix>
</trkpt>
<trkpt lat="33.8106563" lon="-118.3938443">
  <ele>-25.255</ele>
  <time>2026-09-02T22:11:31Z</time>
  <course>19.81</course>
  <speed>0.7783315488916018</speed>
  <fix>3d</fix>
</trkpt>
<trkpt lat="33.8106564" lon="-118.3938443">
  <ele>-25.255</ele>
  <time>2026-09-02T22:11:31Z</time>
  <course>19.81</course>
  <speed>0.7783315488916018</speed>
  <fix>3d</fix>
</trkpt>
<trkpt lat="33.8106564" lon="-118.3938442">
  <ele>-25.255</ele>
  <time>2026-09-02T22:11:31Z</time>
  <course>19.81</course>
  <speed>0.7783315488916018</speed>
  <fix>3d</fix>
</trkpt>
<trkpt lat="33.8106564" lon="-118.3938442">
  <ele>-25.254</ele>
  <time>2026-09-02T22:11:31Z</time>
  <course>19.82</course>
  <speed>0.7783315488916018</speed>
  <fix>3d</fix>
</trkpt>
<trkpt lat="33.8106565" lon="-118.3938441">
  <ele>-25.254</ele>
  <time>2026-09-02T22:11:31Z</time>
  <course>19.82</course>
  <speed>0.7783315488916018</speed>
  <fix>3d</fix>
</trkpt>
<trkpt lat="33.8106565" lon="-118.3938441">
  <ele>-25.253</ele>
  <time>2026-09-02T22:11:31Z</time>
  <course>19.82</course>
  <speed>0.7783315488916018</speed>
  <fix>3d</fix>
</trkpt>
<trkpt lat="33.8106566" lon="-118.393844">
  <ele>-25.253</ele>
  <time>2026-09-02T22:11:31Z</time>
  <course>19.82</course>
  <speed>0.7783315488916018</speed>
  <fix>3d</fix>
</trkpt>
<trkpt lat="33.8106566" lon="-118.393844">
  <ele>-25.253</ele>
  <time>2026-09-02T22:11:31Z</time>
  <course>19.82</course>
  <speed>0.7783315488916018</speed>
  <fix>3d</fix>
</trkpt>
<trkpt lat="33.8106566" lon="-118.3938439">
  <ele>-25.252</ele>
  <time>2026-09-02T22:11:31Z</time>
  <course>19.82</course>
  <speed>0.7783315488916018</speed>
  <fix>3d</fix>
</trkpt>
<trkpt lat="33.8106567" lon="-118.3938439">
  <ele>-25.252</ele>
  <time>2026-09-02T22:11:31Z</time>
  <course>19.82</course>
  <speed>0.7783315488916018</speed>
  <fix>3d</fix>
</trkpt>
<trkpt lat="33.8106567" lon="-118.3938439">
  <ele>-25.252</ele>
  <time>2026-09-02T22:11:31Z</time>
  <course>19.82</course>
  <speed>0.7783315488916018</speed>
  <fix>3d</fix>
</trkpt>
<trkpt lat="33.8106567" lon="-118.3938438">
  <ele>-25.251</ele>
  <time>2026-09-02T22:11:31Z</time>
  <course>19.82</course>
  <speed>0.7783315488916018</speed>
  <fix>3d</fix>
</trkpt>
<trkpt lat="33.8106567" lon="-118.3938438">
  <ele>-25.251</ele>
  <time>2026-09-02T22:11:31Z</time>
  <course>19.82</course>
  <speed>0.7783315488916018</speed>
  <fix>3d</fix>
</trkpt>
<trkpt lat="33.8106559" lon="-118.3938452">
  <ele>-24.64</ele>
  <time>2026-09-02T22:11:31Z</time>
  <course>45.02</course>
  <speed>0.8</speed>
  <fix>3d</fix>
</trkpt>
<trkpt lat="33.8106568" lon="-118.3938437">
  <ele>-25.251</ele>
  <time>2026-09-02T22:11:31Z</time>
  <course>19.82</course>
  <speed>0.7783315488916018</speed>
  <fix>3d</fix>
</trkpt>
<trkpt lat="33.8106569" lon="-118.3938436">
  <ele>-25.25</ele>
  <time>2026-09-02T22:11:31Z</time>
  <course>19.82</course>
  <speed>0.7783315488916018</speed>
  <fix>3d</fix>
</trkpt>
<trkpt lat="33.8106569" lon="-118.3938436">
  <ele>-25.25</ele>
  <time>2026-09-02T22:11:31Z</time>
  <course>19.82</course>
  <speed>0.7783315488916018</speed>
  <fix>3d</fix>
</trkpt>
<trkpt lat="33.8106569" lon="-118.3938436">
  <ele>-25.25</ele>
  <time>2026-09-02T22:11:31Z</time>
  <course>19.82</course>
  <speed>0.7783315488916018</speed>
  <fix>3d</fix>
</trkpt>
<trkpt lat="33.810657" lon="-118.3938435">
  <ele>-25.249</ele>
  <time>2026-09-02T22:11:31Z</time>
  <course>19.82</course>
  <speed>0.7783315488916018</speed>
  <fix>3d</fix>
</trkpt>
<trkpt lat="33.810657" lon="-118.3938435">
  <ele>-25.249</ele>
  <time>2026-09-02T22:11:31Z</time>
  <course>19.82</course>
  <speed>0.7783315488916018</speed>
  <fix>3d</fix>
</trkpt>
<trkpt lat="33.810657" lon="-118.3938434">
  <ele>-25.249</ele>
  <time>2026-09-02T22:11:31Z</time>
  <course>19.82</course>
  <speed>0.7783315488916018</speed>
  <fix>3d</fix>
</trkpt>
<trkpt lat="33.8106571" lon="-118.3938434">
  <ele>-25.249</ele>
  <time>2026-09-02T22:11:31Z</time>
  <course>19.83</course>
  <speed>0.7783315488916018</speed>
  <fix>3d</fix>
</trkpt>
<trkpt lat="33.8106571" lon="-118.3938433">
  <ele>-25.249</ele>
  <time>2026-09-02T22:11:31Z</time>
  <course>19.83</course>
  <speed>0.7783315488916018</speed>
  <fix>3d</fix>
</trkpt>
<trkpt lat="33.8106572" lon="-118.3938433">
  <ele>-25.248</ele>
  <time>2026-09-02T22:11:31Z</time>
  <course>19.83</course>
  <speed>0.7783315488916018</speed>
  <fix>3d</fix>
</trkpt>
<trkpt lat="33.8106572" lon="-118.3938433">
  <ele>-25.248</ele>
  <time>2026-09-02T22:11:31Z</time>
  <course>19.83</course>
  <speed>0.7783315488916018</speed>
  <fix>3d</fix>
</trkpt>
<trkpt lat="33.8106572" lon="-118.3938432">
  <ele>-25.248</ele>
  <time>2026-09-02T22:11:31Z</time>
  <course>19.83</course>
  <speed>0.7783315488916018</speed>
  <fix>3d</fix>
</trkpt>
<trkpt lat="33.8106573" lon="-118.3938432">
  <ele>-25.248</ele>
  <time>2026-09-02T22:11:31Z</time>
  <course>19.83</course>
  <speed>0.7783315488916018</speed>
  <fix>3d</fix>
</trkpt>
<trkpt lat="33.8106569" lon="-118.3938441">
  <ele>-24.64</ele>
  <time>2026-09-02T22:11:31Z</time>
  <course>44.92</course>
  <speed>0.8</speed>
  <fix>3d</fix>
</trkpt>
<trkpt lat="33.8106573" lon="-118.3938432">
  <ele>-25.248</ele>
  <time>2026-09-02T22:11:31Z</time>
  <course>19.83</course>
  <speed>0.7783315488916018</speed>
  <fix>3d</fix>
</trkpt>
<trkpt lat="33.8106573" lon="-118.3938431">
  <ele>-25.248</ele>
  <time>2026-09-02T22:11:31Z</time>
  <course>19.82</course>
  <speed>0.7783315488916018</speed>
  <fix>3d</fix>
</trkpt>
<trkpt lat="33.8106574" lon="-118.3938431">
  <ele>-25.248</ele>
  <time>2026-09-02T22:11:31Z</time>
  <course>19.82</course>
  <speed>0.7783315488916018</speed>
  <fix>3d</fix>
</trkpt>
<trkpt lat="33.8106574" lon="-118.393843">
  <ele>-25.248</ele>
  <time>2026-09-02T22:11:31Z</time>
  <course>19.82</course>
  <speed>0.7783315488916018</speed>
  <fix>3d</fix>
</trkpt>
<trkpt lat="33.8106574" lon="-118.393843">
  <ele>-25.248</ele>
  <time>2026-09-02T22:11:31Z</time>
  <course>19.82</course>
  <speed>0.7783315488916018</speed>
  <fix>3d</fix>
</trkpt>
<trkpt lat="33.8106575" lon="-118.3938429">
  <ele>-25.248</ele>
  <time>2026-09-02T22:11:31Z</time>
  <course>19.82</course>
  <speed>0.7783315488916018</speed>
  <fix>3d</fix>
</trkpt>
<trkpt lat="33.8106575" lon="-118.3938429">
  <ele>-25.248</ele>
  <time>2026-09-02T22:11:31Z</time>
  <course>19.82</course>
  <speed>0.7783315488916018</speed>
  <fix>3d</fix>
</trkpt>
<trkpt lat="33.8106576" lon="-118.3938428">
  <ele>-25.248</ele>
  <time>2026-09-02T22:11:31Z</time>
  <course>19.82</course>
  <speed>0.7783315488916018</speed>
  <fix>3d</fix>
</trkpt>
<trkpt lat="33.8106576" lon="-118.3938428">
  <ele>-25.247</ele>
  <time>2026-09-02T22:11:31Z</time>
  <course>19.82</course>
  <speed>0.7783315488916018</speed>
  <fix>3d</fix>
</trkpt>
<trkpt lat="33.8106577" lon="-118.3938427">
  <ele>-25.247</ele>
  <time>2026-09-02T22:11:31Z</time>
  <course>19.82</course>
  <speed>0.7783315488916018</speed>
  <fix>3d</fix>
</trkpt>
<trkpt lat="33.8106577" lon="-118.3938427">
  <ele>-25.247</ele>
  <time>2026-09-02T22:11:31Z</time>
  <course>19.82</course>
  <speed>0.7783315488916018</speed>
  <fix>3d</fix>
</trkpt>
<trkpt lat="33.8106577" lon="-118.3938426">
  <ele>-25.247</ele>
  <time>2026-09-02T22:11:31Z</time>
  <course>19.82</course>
  <speed>0.7783315488916018</speed>
  <fix>3d</fix>
</trkpt>
<trkpt lat="33.8106578" lon="-118.3938426">
  <ele>-25.247</ele>
  <time>2026-09-02T22:11:31Z</time>
  <course>19.82</course>
  <speed>0.7783315488916018</speed>
  <fix>3d</fix>
</trkpt>
<trkpt lat="33.8106578" lon="-118.3938426">
  <ele>-25.247</ele>
  <time>2026-09-02T22:11:31Z</time>
  <course>19.82</course>
  <speed>0.7783315488916018</speed>
  <fix>3d</fix>
</trkpt>
<trkpt lat="33.8106569" lon="-118.3938441">
  <ele>-24.64</ele>
  <time>2026-09-02T22:11:31Z</time>
  <course>44.92</course>
  <speed>0.8</speed>
  <fix>3d</fix>
</trkpt>
<trkpt lat="33.8106578" lon="-118.3938425">
  <ele>-25.247</ele>
  <time>2026-09-02T22:11:31Z</time>
  <course>19.82</course>
  <speed>0.7783315488916018</speed>
  <fix>3d</fix>
</trkpt>
<trkpt lat="33.8106579" lon="-118.3938424">
  <ele>-25.247</ele>
  <time>2026-09-02T22:11:31Z</time>
  <course>19.82</course>
  <speed>0.7783315488916018</speed>
  <fix>3d</fix>
</trkpt>
<trkpt lat="33.8106579" lon="-118.3938424">
  <ele>-25.247</ele>
  <time>2026-09-02T22:11:31Z</time>
  <course>19.82</course>
  <speed>0.7783315488916018</speed>
  <fix>3d</fix>
</trkpt>
<trkpt lat="33.810658" lon="-118.3938423">
  <ele>-25.247</ele>
  <time>2026-09-02T22:11:31Z</time>
  <course>19.82</course>
  <speed>0.7783315488916018</speed>
  <fix>3d</fix>
</trkpt>
<trkpt lat="33.810658" lon="-118.3938423">
  <ele>-25.247</ele>
  <time>2026-09-02T22:11:31Z</time>
  <course>19.82</course>
  <speed>0.7783315488916018</speed>
  <fix>3d</fix>
</trkpt>
<trkpt lat="33.810658" lon="-118.3938422">
  <ele>-25.247</ele>
  <time>2026-09-02T22:11:31Z</time>
  <course>19.82</course>
  <speed>0.7783315488916018</speed>
  <fix>3d</fix>
</trkpt>
<trkpt lat="33.8106581" lon="-118.3938422">
  <ele>-25.248</ele>
  <time>2026-09-02T22:11:31Z</time>
  <course>19.82</course>
  <speed>0.7783315488916018</speed>
  <fix>3d</fix>
</trkpt>
<trkpt lat="33.8106581" lon="-118.3938421">
  <ele>-25.247</ele>
  <time>2026-09-02T22:11:31Z</time>
  <course>19.82</course>
  <speed>0.7783315488916018</speed>
  <fix>3d</fix>
</trkpt>
<trkpt lat="33.8106582" lon="-118.3938421">
  <ele>-25.248</ele>
  <time>2026-09-02T22:11:31Z</time>
  <course>19.82</course>
  <speed>0.7783315488916018</speed>
  <fix>3d</fix>
</trkpt>
<trkpt lat="33.8106582" lon="-118.3938421">
  <ele>-25.248</ele>
  <time>2026-09-02T22:11:31Z</time>
  <course>19.82</course>
  <speed>0.7783315488916018</speed>
  <fix>3d</fix>
</trkpt>
<trkpt lat="33.8106582" lon="-118.393842">
  <ele>-25.248</ele>
  <time>2026-09-02T22:11:31Z</time>
  <course>19.82</course>
  <speed>0.7783315488916018</speed>
  <fix>3d</fix>
</trkpt>
<trkpt lat="33.8106583" lon="-118.393842">
  <ele>-25.248</ele>
  <time>2026-09-02T22:11:31Z</time>
  <course>19.82</course>
  <speed>0.7783315488916018</speed>
  <fix>3d</fix>
</trkpt>
<trkpt lat="33.8106583" lon="-118.393842">
  <ele>-25.248</ele>
  <time>2026-09-02T22:11:31Z</time>
  <course>19.82</course>
  <speed>0.7783315488916018</speed>
  <fix>3d</fix>
</trkpt>
<trkpt lat="33.8106579" lon="-118.3938428">
  <ele>-24.63</ele>
  <time>2026-09-02T22:11:31Z</time>
  <course>44.83</course>
  <speed>0.79</speed>
  <fix>3d</fix>
</trkpt>
<trkpt lat="33.8106584" lon="-118.3938419">
  <ele>-25.248</ele>
  <time>2026-09-02T22:11:31Z</time>
  <course>19.82</course>
  <speed>0.7783315488916018</speed>
  <fix>3d</fix>
</trkpt>
<trkpt lat="33.8106584" lon="-118.3938418">
  <ele>-25.248</ele>
  <time>2026-09-02T22:11:31Z</time>
  <course>19.82</course>
  <speed>0.7783315488916018</speed>
  <fix>3d</fix>
</trkpt>
<trkpt lat="33.8106584" lon="-118.3938418">
  <ele>-25.248</ele>
  <time>2026-09-02T22:11:31Z</time>
  <course>19.82</course>
  <speed>0.7783315488916018</speed>
  <fix>3d</fix>
</trkpt>
<trkpt lat="33.8106585" lon="-118.3938417">
  <ele>-25.248</ele>
  <time>2026-09-02T22:11:31Z</time>
  <course>19.82</course>
  <speed>0.7783315488916018</speed>
  <fix>3d</fix>
</trkpt>
<trkpt lat="33.8106585" lon="-118.3938417">
  <ele>-25.248</ele>
  <time>2026-09-02T22:11:31Z</time>
  <course>19.82</course>
  <speed>0.7783315488916018</speed>
  <fix>3d</fix>
</trkpt>
<trkpt lat="33.8106585" lon="-118.3938416">
  <ele>-25.248</ele>
  <time>2026-09-02T22:11:31Z</time>
  <course>19.82</course>
  <speed>0.7783315488916018</speed>
  <fix>3d</fix>
</trkpt>
<trkpt lat="33.8106586" lon="-118.3938416">
  <ele>-25.248</ele>
  <time>2026-09-02T22:11:31Z</time>
  <course>19.82</course>
  <speed>0.7783315488916018</speed>
  <fix>3d</fix>
</trkpt>
<trkpt lat="33.8106586" lon="-118.3938415">
  <ele>-25.248</ele>
  <time>2026-09-02T22:11:31Z</time>
  <course>19.82</course>
  <speed>0.7783315488916018</speed>
  <fix>3d</fix>
</trkpt>
<trkpt lat="33.8106587" lon="-118.3938415">
  <ele>-25.248</ele>
  <time>2026-09-02T22:11:31Z</time>
  <course>19.82</course>
  <speed>0.7783315488916018</speed>
  <fix>3d</fix>
</trkpt>
<trkpt lat="33.8106587" lon="-118.3938414">
  <ele>-25.248</ele>
  <time>2026-09-02T22:11:31Z</time>
  <course>19.82</course>
  <speed>0.7783315488916018</speed>
  <fix>3d</fix>
</trkpt>
<trkpt lat="33.8106587" lon="-118.3938414">
  <ele>-25.248</ele>
  <time>2026-09-02T22:11:31Z</time>
  <course>19.82</course>
  <speed>0.7783315488916018</speed>
  <fix>3d</fix>
</trkpt>
<trkpt lat="33.8106588" lon="-118.3938414">
  <ele>-25.249</ele>
  <time>2026-09-02T22:11:31Z</time>
  <course>19.82</course>
  <speed>0.7783315488916018</speed>
  <fix>3d</fix>
</trkpt>
<trkpt lat="33.8106588" lon="-118.3938414">
  <ele>-25.249</ele>
  <time>2026-09-02T22:11:31Z</time>
  <course>19.82</course>
  <speed>0.7783315488916018</speed>
  <fix>3d</fix>
</trkpt>
<trkpt lat="33.8106579" lon="-118.3938428">
  <ele>-24.63</ele>
  <time>2026-09-02T22:11:31Z</time>
  <course>44.83</course>
  <speed>0.79</speed>
  <fix>3d</fix>
</trkpt>
<trkpt lat="33.8106589" lon="-118.3938413">
  <ele>-25.249</ele>
  <time>2026-09-02T22:11:31Z</time>
  <course>19.82</course>
  <speed>0.7783315488916018</speed>
  <fix>3d</fix>
</trkpt>
<trkpt lat="33.8106589" lon="-118.3938412">
  <ele>-25.249</ele>
  <time>2026-09-02T22:11:31Z</time>
  <course>19.82</course>
  <speed>0.7783315488916018</speed>
  <fix>3d</fix>
</trkpt>
<trkpt lat="33.8106589" lon="-118.3938412">
  <ele>-25.249</ele>
  <time>2026-09-02T22:11:31Z</time>
  <course>19.82</course>
  <speed>0.7783315488916018</speed>
  <fix>3d</fix>
</trkpt>
<trkpt lat="33.810659" lon="-118.3938411">
  <ele>-25.249</ele>
  <time>2026-09-02T22:11:31Z</time>
  <course>19.83</course>
  <speed>0.7783315488916018</speed>
  <fix>3d</fix>
</trkpt>
<trkpt lat="33.810659" lon="-118.3938411">
  <ele>-25.249</ele>
  <time>2026-09-02T22:11:31Z</time>
  <course>19.83</course>
  <speed>0.7783315488916018</speed>
  <fix>3d</fix>
</trkpt>
<trkpt lat="33.810659" lon="-118.393841">
  <ele>-25.249</ele>
  <time>2026-09-02T22:11:31Z</time>
  <course>19.83</course>
  <speed>0.7783315488916018</speed>
  <fix>3d</fix>
</trkpt>
<trkpt lat="33.8106591" lon="-118.393841">
  <ele>-25.249</ele>
  <time>2026-09-02T22:11:31Z</time>
  <course>19.83</course>
  <speed>0.7783315488916018</speed>
  <fix>3d</fix>
</trkpt>
<trkpt lat="33.8106591" lon="-118.3938409">
  <ele>-25.249</ele>
  <time>2026-09-02T22:11:31Z</time>
  <course>19.83</course>
  <speed>0.7783315488916018</speed>
  <fix>3d</fix>
</trkpt>
<trkpt lat="33.8106592" lon="-118.3938409">
  <ele>-25.249</ele>
  <time>2026-09-02T22:11:31Z</time>
  <course>19.83</course>
  <speed>0.7783315488916018</speed>
  <fix>3d</fix>
</trkpt>
<trkpt lat="33.8106592" lon="-118.3938409">
  <ele>-25.249</ele>
  <time>2026-09-02T22:11:31Z</time>
  <course>19.83</course>
  <speed>0.7783315488916018</speed>
  <fix>3d</fix>
</trkpt>
<trkpt lat="33.8106592" lon="-118.3938408">
  <ele>-25.249</ele>
  <time>2026-09-02T22:11:31Z</time>
  <course>19.83</course>
  <speed>0.7710382610480494</speed>
  <fix>3d</fix>
</trkpt>
<trkpt lat="33.8106593" lon="-118.3938408">
  <ele>-25.249</ele>
  <time>2026-09-02T22:11:31Z</time>
  <course>19.83</course>
  <speed>0.7710382610480494</speed>
  <fix>3d</fix>
</trkpt>
<trkpt lat="33.8106593" lon="-118.3938407">
  <ele>-25.249</ele>
  <time>2026-09-02T22:11:31Z</time>
  <course>19.83</course>
  <speed>0.7710382610480494</speed>
  <fix>3d</fix>
</trkpt>
<trkpt lat="33.810659" lon="-118.3938416">
  <ele>-24.63</ele>
  <time>2026-09-02T22:11:31Z</time>
  <course>44.75</course>
  <speed>0.79</speed>
  <fix>3d</fix>
</trkpt>
<trkpt lat="33.8106593" lon="-118.3938407">
  <ele>-25.249</ele>
  <time>2026-09-02T22:11:31Z</time>
  <course>19.83</course>
  <speed>0.7710382610480494</speed>
  <fix>3d</fix>
</trkpt>
<trkpt lat="33.8106594" lon="-118.3938407">
  <ele>-25.248</ele>
  <time>2026-09-02T22:11:31Z</time>
  <course>19.83</course>
  <speed>0.7710382610480494</speed>
  <fix>3d</fix>
</trkpt>
<trkpt lat="33.8106594" lon="-118.3938406">
  <ele>-25.248</ele>
  <time>2026-09-02T22:11:31Z</time>
  <course>19.83</course>
  <speed>0.7710382610480494</speed>
  <fix>3d</fix>
</trkpt>
<trkpt lat="33.8106595" lon="-118.3938406">
  <ele>-25.248</ele>
  <time>2026-09-02T22:11:31Z</time>
  <course>19.83</course>
  <speed>0.7783315488916018</speed>
  <fix>3d</fix>
</trkpt>
<trkpt lat="33.8106595" lon="-118.3938405">
  <ele>-25.248</ele>
  <time>2026-09-02T22:11:31Z</time>
  <course>19.83</course>
  <speed>0.7783315488916018</speed>
  <fix>3d</fix>
</trkpt>
<trkpt lat="33.8106595" lon="-118.3938405">
  <ele>-25.248</ele>
  <time>2026-09-02T22:11:31Z</time>
  <course>19.84</course>
  <speed>0.7783315488916018</speed>
  <fix>3d</fix>
</trkpt>
<trkpt lat="33.8106596" lon="-118.3938404">
  <ele>-25.248</ele>
  <time>2026-09-02T22:11:31Z</time>
  <course>19.84</course>
  <speed>0.7783315488916018</speed>
  <fix>3d</fix>
</trkpt>
<trkpt lat="33.8106596" lon="-118.3938404">
  <ele>-25.248</ele>
  <time>2026-09-02T22:11:31Z</time>
  <course>19.84</course>
  <speed>0.7710382610480494</speed>
  <fix>3d</fix>
</trkpt>
<trkpt lat="33.8106597" lon="-118.3938403">
  <ele>-25.248</ele>
  <time>2026-09-02T22:11:31Z</time>
  <course>19.84</course>
  <speed>0.7783315488916018</speed>
  <fix>3d</fix>
</trkpt>
<trkpt lat="33.8106597" lon="-118.3938403">
  <ele>-25.248</ele>
  <time>2026-09-02T22:11:31Z</time>
  <course>19.84</course>
  <speed>0.7783315488916018</speed>
  <fix>3d</fix>
</trkpt>
<trkpt lat="33.8106597" lon="-118.3938402">
  <ele>-25.248</ele>
  <time>2026-09-02T22:11:31Z</time>
  <course>19.84</course>
  <speed>0.7710382610480494</speed>
  <fix>3d</fix>
</trkpt>
<trkpt lat="33.8106598" lon="-118.3938402">
  <ele>-25.248</ele>
  <time>2026-09-02T22:11:31Z</time>
  <course>19.84</course>
  <speed>0.7783315488916018</speed>
  <fix>3d</fix>
</trkpt>
<trkpt lat="33.8106598" lon="-118.3938401">
  <ele>-25.248</ele>
  <time>2026-09-02T22:11:31Z</time>
  <course>19.84</course>
  <speed>0.7783315488916018</speed>
  <fix>3d</fix>
</trkpt>
<trkpt lat="33.8106598" lon="-118.3938401">
  <ele>-25.248</ele>
  <time>2026-09-02T22:11:31Z</time>
  <course>19.84</course>
  <speed>0.7783315488916018</speed>
  <fix>3d</fix>
</trkpt>
<trkpt lat="33.810659" lon="-118.3938416">
  <ele>-24.63</ele>
  <time>2026-09-02T22:11:31Z</time>
  <course>44.75</course>
  <speed>0.79</speed>
  <fix>3d</fix>
</trkpt>
<trkpt lat="33.8106599" lon="-118.3938401">
  <ele>-25.248</ele>
  <time>2026-09-02T22:11:31Z</time>
  <course>19.84</course>
  <speed>0.7710382610480494</speed>
  <fix>3d</fix>
</trkpt>
<trkpt lat="33.8106599" lon="-118.39384">
  <ele>-25.248</ele>
  <time>2026-09-02T22:11:31Z</time>
  <course>19.84</course>
  <speed>0.7710382610480494</speed>
  <fix>3d</fix>
</trkpt>
<trkpt lat="33.8106599" lon="-118.39384">
  <ele>-25.248</ele>
  <time>2026-09-02T22:11:31Z</time>
  <course>19.84</course>
  <speed>0.7710382610480494</speed>
  <fix>3d</fix>
</trkpt>
<trkpt lat="33.81066" lon="-118.3938399">
  <ele>-25.248</ele>
  <time>2026-09-02T22:11:31Z</time>
  <course>19.84</course>
  <speed>0.7710382610480494</speed>
  <fix>3d</fix>
</trkpt>
<trkpt lat="33.81066" lon="-118.3938399">
  <ele>-25.248</ele>
  <time>2026-09-02T22:11:31Z</time>
  <course>19.84</course>
  <speed>0.7710382610480494</speed>
  <fix>3d</fix>
</trkpt>
<trkpt lat="33.81066" lon="-118.3938398">
  <ele>-25.248</ele>
  <time>2026-09-02T22:11:31Z</time>
  <course>19.84</course>
  <speed>0.7710382610480494</speed>
  <fix>3d</fix>
</trkpt>
<trkpt lat="33.8106601" lon="-118.3938398">
  <ele>-25.248</ele>
  <time>2026-09-02T22:11:31Z</time>
  <course>19.84</course>
  <speed>0.7710382610480494</speed>
  <fix>3d</fix>
</trkpt>
<trkpt lat="33.8106601" lon="-118.3938398">
  <ele>-25.248</ele>
  <time>2026-09-02T22:11:31Z</time>
  <course>19.83</course>
  <speed>0.7710382610480494</speed>
  <fix>3d</fix>
</trkpt>
<trkpt lat="33.8106602" lon="-118.3938397">
  <ele>-25.247</ele>
  <time>2026-09-02T22:11:31Z</time>
  <course>19.84</course>
  <speed>0.7710382610480494</speed>
  <fix>3d</fix>
</trkpt>
<trkpt lat="33.8106602" lon="-118.3938397">
  <ele>-25.247</ele>
  <time>2026-09-02T22:11:31Z</time>
  <course>19.84</course>
  <speed>0.7710382610480494</speed>
  <fix>3d</fix>
</trkpt>
<trkpt lat="33.8106602" lon="-118.3938396">
  <ele>-25.247</ele>
  <time>2026-09-02T22:11:31Z</time>
  <course>19.84</course>
  <speed>0.7710382610480494</speed>
  <fix>3d</fix>
</trkpt>
<trkpt lat="33.8106603" lon="-118.3938396">
  <ele>-25.247</ele>
  <time>2026-09-02T22:11:31Z</time>
  <course>19.84</course>
  <speed>0.7710382610480494</speed>
  <fix>3d</fix>
</trkpt>
<trkpt lat="33.8106603" lon="-118.3938395">
  <ele>-25.247</ele>
  <time>2026-09-02T22:11:31Z</time>
  <course>19.84</course>
  <speed>0.7710382610480494</speed>
  <fix>3d</fix>
</trkpt>
<trkpt lat="33.8106603" lon="-118.3938395">
  <ele>-25.247</ele>
  <time>2026-09-02T22:11:31Z</time>
  <course>19.84</course>
  <speed>0.7710382610480494</speed>
  <fix>3d</fix>
</trkpt>
<trkpt lat="33.81066" lon="-118.3938403">
  <ele>-24.63</ele>
  <time>2026-09-02T22:11:31Z</time>
  <course>44.7</course>
  <speed>0.79</speed>
  <fix>3d</fix>
</trkpt>
<trkpt lat="33.8106604" lon="-118.3938394">
  <ele>-25.247</ele>
  <time>2026-09-02T22:11:31Z</time>
  <course>19.84</course>
  <speed>0.7710382610480494</speed>
  <fix>3d</fix>
</trkpt>
<trkpt lat="33.8106604" lon="-118.3938394">
  <ele>-25.247</ele>
  <time>2026-09-02T22:11:31Z</time>
  <course>19.84</course>
  <speed>0.7710382610480494</speed>
  <fix>3d</fix>
</trkpt>
<trkpt lat="33.8106605" lon="-118.3938394">
  <ele>-25.247</ele>
  <time>2026-09-02T22:11:31Z</time>
  <course>19.84</course>
  <speed>0.7710382610480494</speed>
  <fix>3d</fix>
</trkpt>
<trkpt lat="33.8106605" lon="-118.3938393">
  <ele>-25.246</ele>
  <time>2026-09-02T22:11:31Z</time>
  <course>19.84</course>
  <speed>0.7710382610480494</speed>
  <fix>3d</fix>
</trkpt>
<trkpt lat="33.8106605" lon="-118.3938393">
  <ele>-25.246</ele>
  <time>2026-09-02T22:11:31Z</time>
  <course>19.84</course>
  <speed>0.7710382610480494</speed>
  <fix>3d</fix>
</trkpt>
<trkpt lat="33.8106606" lon="-118.3938392">
  <ele>-25.246</ele>
  <time>2026-09-02T22:11:31Z</time>
  <course>19.84</course>
  <speed>0.7710382610480494</speed>
  <fix>3d</fix>
</trkpt>
<trkpt lat="33.8106606" lon="-118.3938392">
  <ele>-25.246</ele>
  <time>2026-09-02T22:11:31Z</time>
  <course>19.84</course>
  <speed>0.7710382610480494</speed>
  <fix>3d</fix>
</trkpt>
<trkpt lat="33.8106607" lon="-118.3938391">
  <ele>-25.246</ele>
  <time>2026-09-02T22:11:31Z</time>
  <course>19.84</course>
  <speed>0.7710382610480494</speed>
  <fix>3d</fix>
</trkpt>
<trkpt lat="33.8106607" lon="-118.3938391">
  <ele>-25.245</ele>
  <time>2026-09-02T22:11:31Z</time>
  <course>19.84</course>
  <speed>0.7710382610480494</speed>
  <fix>3d</fix>
</trkpt>
<trkpt lat="33.8106607" lon="-118.393839">
  <ele>-25.245</ele>
  <time>2026-09-02T22:11:31Z</time>
  <course>19.84</course>
  <speed>0.7710382610480494</speed>
  <fix>3d</fix>
</trkpt>
<trkpt lat="33.8106608" lon="-118.393839">
  <ele>-25.245</ele>
  <time>2026-09-02T22:11:31Z</time>
  <course>19.84</course>
  <speed>0.7710382610480494</speed>
  <fix>3d</fix>
</trkpt>
<trkpt lat="33.8106608" lon="-118.3938389">
  <ele>-25.245</ele>
  <time>2026-09-02T22:11:31Z</time>
  <course>19.84</course>
  <speed>0.7710382610480494</speed>
  <fix>3d</fix>
</trkpt>
<trkpt lat="33.8106608" lon="-118.3938389">
  <ele>-25.245</ele>
  <time>2026-09-02T22:11:31Z</time>
  <course>19.84</course>
  <speed>0.7710382610480494</speed>
  <fix>3d</fix>
</trkpt>
<trkpt lat="33.81066" lon="-118.3938403">
  <ele>-24.63</ele>
  <time>2026-09-02T22:11:31Z</time>
  <course>44.7</course>
  <speed>0.79</speed>
  <fix>3d</fix>
</trkpt>
<trkpt lat="33.8106609" lon="-118.3938388">
  <ele>-25.244</ele>
  <time>2026-09-02T22:11:31Z</time>
  <course>19.84</course>
  <speed>0.7710382610480494</speed>
  <fix>3d</fix>
</trkpt>
<trkpt lat="33.810661" lon="-118.3938388">
  <ele>-25.244</ele>
  <time>2026-09-02T22:11:31Z</time>
  <course>19.84</course>
  <speed>0.7710382610480494</speed>
  <fix>3d</fix>
</trkpt>
<trkpt lat="33.810661" lon="-118.3938387">
  <ele>-25.244</ele>
  <time>2026-09-02T22:11:31Z</time>
  <course>19.84</course>
  <speed>0.7710382610480494</speed>
  <fix>3d</fix>
</trkpt>
<trkpt lat="33.8106611" lon="-118.3938386">
  <ele>-25.243</ele>
  <time>2026-09-02T22:11:31Z</time>
  <course>19.84</course>
  <speed>0.7710382610480494</speed>
  <fix>3d</fix>
</trkpt>
<trkpt lat="33.8106611" lon="-118.3938386">
  <ele>-25.243</ele>
  <time>2026-09-02T22:11:31Z</time>
  <course>19.84</course>
  <speed>0.7710382610480494</speed>
  <fix>3d</fix>
</trkpt>
<trkpt lat="33.8106611" lon="-118.3938385">
  <ele>-25.243</ele>
  <time>2026-09-02T22:11:31Z</time>
  <course>19.84</course>
  <speed>0.7710382610480494</speed>
  <fix>3d</fix>
</trkpt>
<trkpt lat="33.8106612" lon="-118.3938385">
  <ele>-25.243</ele>
  <time>2026-09-02T22:11:31Z</time>
  <course>19.85</course>
  <speed>0.7710382610480494</speed>
  <fix>3d</fix>
</trkpt>
<trkpt lat="33.8106612" lon="-118.3938384">
  <ele>-25.242</ele>
  <time>2026-09-02T22:11:31Z</time>
  <course>19.85</course>
  <speed>0.7710382610480494</speed>
  <fix>3d</fix>
</trkpt>
<trkpt lat="33.8106613" lon="-118.3938384">
  <ele>-25.242</ele>
  <time>2026-09-02T22:11:31Z</time>
  <course>19.85</course>
  <speed>0.7710382610480494</speed>
  <fix>3d</fix>
</trkpt>
<trkpt lat="33.8106613" lon="-118.3938384">
  <ele>-25.242</ele>
  <time>2026-09-02T22:11:31Z</time>
  <course>19.85</course>
  <speed>0.7710382610480494</speed>
  <fix>3d</fix>
</trkpt>
<trkpt lat="33.8106613" lon="-118.3938383">
  <ele>-25.241</ele>
  <time>2026-09-02T22:11:31Z</time>
  <course>19.85</course>
  <speed>0.7710382610480494</speed>
  <fix>3d</fix>
</trkpt>
<trkpt lat="33.8106613" lon="-118.3938383">
  <ele>-25.241</ele>
  <time>2026-09-02T22:11:31Z</time>
  <course>19.85</course>
  <speed>0.7710382610480494</speed>
  <fix>3d</fix>
</trkpt>
<trkpt lat="33.8106609" lon="-118.3938392">
  <ele>-24.63</ele>
  <time>2026-09-02T22:11:31Z</time>
  <course>44.67</course>
  <speed>0.79</speed>
  <fix>3d</fix>
</trkpt>
<trkpt lat="33.8106614" lon="-118.3938383">
  <ele>-25.241</ele>
  <time>2026-09-02T22:11:31Z</time>
  <course>19.85</course>
  <speed>0.7710382610480494</speed>
  <fix>3d</fix>
</trkpt>
<trkpt lat="33.8106614" lon="-118.3938382">
  <ele>-25.241</ele>
  <time>2026-09-02T22:11:31Z</time>
  <course>19.85</course>
  <speed>0.7710382610480494</speed>
  <fix>3d</fix>
</trkpt>
<trkpt lat="33.8106614" lon="-118.3938382">
  <ele>-25.241</ele>
  <time>2026-09-02T22:11:31Z</time>
  <course>19.85</course>
  <speed>0.7710382610480494</speed>
  <fix>3d</fix>
</trkpt>
<trkpt lat="33.8106615" lon="-118.3938381">
  <ele>-25.24</ele>
  <time>2026-09-02T22:11:31Z</time>
  <course>19.85</course>
  <speed>0.7710382610480494</speed>
  <fix>3d</fix>
</trkpt>
<trkpt lat="33.8106615" lon="-118.3938381">
  <ele>-25.24</ele>
  <time>2026-09-02T22:11:31Z</time>
  <course>19.85</course>
  <speed>0.7710382610480494</speed>
  <fix>3d</fix>
</trkpt>
<trkpt lat="33.8106616" lon="-118.393838">
  <ele>-25.24</ele>
  <time>2026-09-02T22:11:31Z</time>
  <course>19.85</course>
  <speed>0.7710382610480494</speed>
  <fix>3d</fix>
</trkpt>
<trkpt lat="33.8106616" lon="-118.393838">
  <ele>-25.239</ele>
  <time>2026-09-02T22:11:31Z</time>
  <course>19.85</course>
  <speed>0.7710382610480494</speed>
  <fix>3d</fix>
</trkpt>
<trkpt lat="33.8106617" lon="-118.3938379">
  <ele>-25.239</ele>
  <time>2026-09-02T22:11:31Z</time>
  <course>19.85</course>
  <speed>0.7710382610480494</speed>
  <fix>3d</fix>
</trkpt>
<trkpt lat="33.8106617" lon="-118.3938379">
  <ele>-25.239</ele>
  <time>2026-09-02T22:11:31Z</time>
  <course>19.86</course>
  <speed>0.7710382610480494</speed>
  <fix>3d</fix>
</trkpt>
<trkpt lat="33.8106617" lon="-118.3938378">
  <ele>-25.239</ele>
  <time>2026-09-02T22:11:31Z</time>
  <course>19.86</course>
  <speed>0.7710382610480494</speed>
  <fix>3d</fix>
</trkpt>
<trkpt lat="33.8106618" lon="-118.3938378">
  <ele>-25.238</ele>
  <time>2026-09-02T22:11:31Z</time>
  <course>19.86</course>
  <speed>0.7710382610480494</speed>
  <fix>3d</fix>
</trkpt>
<trkpt lat="33.8106618" lon="-118.3938377">
  <ele>-25.238</ele>
  <time>2026-09-02T22:11:31Z</time>
  <course>19.86</course>
  <speed>0.7710382610480494</speed>
  <fix>3d</fix>
</trkpt>
<trkpt lat="33.8106619" lon="-118.3938377">
  <ele>-25.238</ele>
  <time>2026-09-02T22:11:31Z</time>
  <course>19.86</course>
  <speed>0.7710382610480494</speed>
  <fix>3d</fix>
</trkpt>
<trkpt lat="33.8106619" lon="-118.3938377">
  <ele>-25.238</ele>
  <time>2026-09-02T22:11:31Z</time>
  <course>19.86</course>
  <speed>0.7710382610480494</speed>
  <fix>3d</fix>
</trkpt>
<trkpt lat="33.8106609" lon="-118.3938392">
  <ele>-24.63</ele>
  <time>2026-09-02T22:11:31Z</time>
  <course>44.67</course>
  <speed>0.79</speed>
  <fix>3d</fix>
</trkpt>
<trkpt lat="33.8106619" lon="-118.3938376">
  <ele>-25.237</ele>
  <time>2026-09-02T22:11:31Z</time>
  <course>19.86</course>
  <speed>0.7710382610480494</speed>
  <fix>3d</fix>
</trkpt>
<trkpt lat="33.810662" lon="-118.3938375">
  <ele>-25.237</ele>
  <time>2026-09-02T22:11:31Z</time>
  <course>19.85</course>
  <speed>0.7710382610480494</speed>
  <fix>3d</fix>
</trkpt>
<trkpt lat="33.810662" lon="-118.3938375">
  <ele>-25.237</ele>
  <time>2026-09-02T22:11:31Z</time>
  <course>19.85</course>
  <speed>0.7710382610480494</speed>
  <fix>3d</fix>
</trkpt>
<trkpt lat="33.8106621" lon="-118.3938374">
  <ele>-25.237</ele>
  <time>2026-09-02T22:11:31Z</time>
  <course>19.85</course>
  <speed>0.7710382610480494</speed>
  <fix>3d</fix>
</trkpt>
<trkpt lat="33.8106621" lon="-118.3938374">
  <ele>-25.236</ele>
  <time>2026-09-02T22:11:31Z</time>
  <course>19.85</course>
  <speed>0.7710382610480494</speed>
  <fix>3d</fix>
</trkpt>
<trkpt lat="33.8106621" lon="-118.3938374">
  <ele>-25.236</ele>
  <time>2026-09-02T22:11:31Z</time>
  <course>19.85</course>
  <speed>0.7783315488916018</speed>
  <fix>3d</fix>
</trkpt>
<trkpt lat="33.8106622" lon="-118.3938373">
  <ele>-25.236</ele>
  <time>2026-09-02T22:11:31Z</time>
  <course>19.85</course>
  <speed>0.7783315488916018</speed>
  <fix>3d</fix>
</trkpt>
<trkpt lat="33.8106622" lon="-118.3938373">
  <ele>-25.236</ele>
  <time>2026-09-02T22:11:31Z</time>
  <course>19.86</course>
  <speed>0.7783315488916018</speed>
  <fix>3d</fix>
</trkpt>
<trkpt lat="33.8106622" lon="-118.3938372">
  <ele>-25.236</ele>
  <time>2026-09-02T22:11:31Z</time>
  <course>19.86</course>
  <speed>0.7783315488916018</speed>
  <fix>3d</fix>
</trkpt>
<trkpt lat="33.8106623" lon="-118.3938372">
  <ele>-25.236</ele>
  <time>2026-09-02T22:11:31Z</time>
  <course>19.86</course>
  <speed>0.7783315488916018</speed>
  <fix>3d</fix>
</trkpt>
<trkpt lat="33.8106623" lon="-118.3938371">
  <ele>-25.236</ele>
  <time>2026-09-02T22:11:31Z</time>
  <course>19.86</course>
  <speed>0.7783315488916018</speed>
  <fix>3d</fix>
</trkpt>
<trkpt lat="33.8106624" lon="-118.3938371">
  <ele>-25.236</ele>
  <time>2026-09-02T22:11:31Z</time>
  <course>19.86</course>
  <speed>0.7783315488916018</speed>
  <fix>3d</fix>
</trkpt>
<trkpt lat="33.8106624" lon="-118.3938371">
  <ele>-25.236</ele>
  <time>2026-09-02T22:11:31Z</time>
  <course>19.86</course>
  <speed>0.7783315488916018</speed>
  <fix>3d</fix>
</trkpt>
<trkpt lat="33.810662" lon="-118.393838">
  <ele>-24.62</ele>
  <time>2026-09-02T22:11:31Z</time>
  <course>44.61</course>
  <speed>0.79</speed>
  <fix>3d</fix>
</trkpt>
<trkpt lat="33.8106624" lon="-118.393837">
  <ele>-25.235</ele>
  <time>2026-09-02T22:11:31Z</time>
  <course>19.86</course>
  <speed>0.7783315488916018</speed>
  <fix>3d</fix>
</trkpt>
<trkpt lat="33.8106625" lon="-118.3938369">
  <ele>-25.235</ele>
  <time>2026-09-02T22:11:31Z</time>
  <course>19.86</course>
  <speed>0.7783315488916018</speed>
  <fix>3d</fix>
</trkpt>
<trkpt lat="33.8106625" lon="-118.3938369">
  <ele>-25.235</ele>
  <time>2026-09-02T22:11:31Z</time>
  <course>19.86</course>
  <speed>0.7783315488916018</speed>
  <fix>3d</fix>
</trkpt>
<trkpt lat="33.8106626" lon="-118.3938368">
  <ele>-25.235</ele>
  <time>2026-09-02T22:11:31Z</time>
  <course>19.86</course>
  <speed>0.7783315488916018</speed>
  <fix>3d</fix>
</trkpt>
<trkpt lat="33.8106626" lon="-118.3938368">
  <ele>-25.235</ele>
  <time>2026-09-02T22:11:31Z</time>
  <course>19.86</course>
  <speed>0.7783315488916018</speed>
  <fix>3d</fix>
</trkpt>
<trkpt lat="33.8106626" lon="-118.3938367">
  <ele>-25.235</ele>
  <time>2026-09-02T22:11:31Z</time>
  <course>19.86</course>
  <speed>0.7783315488916018</speed>
  <fix>3d</fix>
</trkpt>
<trkpt lat="33.8106627" lon="-118.3938367">
  <ele>-25.235</ele>
  <time>2026-09-02T22:11:31Z</time>
  <course>19.86</course>
  <speed>0.7783315488916018</speed>
  <fix>3d</fix>
</trkpt>
<trkpt lat="33.8106627" lon="-118.3938367">
  <ele>-25.234</ele>
  <time>2026-09-02T22:11:31Z</time>
  <course>19.86</course>
  <speed>0.7783315488916018</speed>
  <fix>3d</fix>
</trkpt>
<trkpt lat="33.8106628" lon="-118.3938366">
  <ele>-25.234</ele>
  <time>2026-09-02T22:11:31Z</time>
  <course>19.86</course>
  <speed>0.7783315488916018</speed>
  <fix>3d</fix>
</trkpt>
<trkpt lat="33.8106628" lon="-118.3938366">
  <ele>-25.234</ele>
  <time>2026-09-02T22:11:31Z</time>
  <course>19.86</course>
  <speed>0.7783315488916018</speed>
  <fix>3d</fix>
</trkpt>
<trkpt lat="33.8106628" lon="-118.3938365">
  <ele>-25.234</ele>
  <time>2026-09-02T22:11:31Z</time>
  <course>19.86</course>
  <speed>0.7783315488916018</speed>
  <fix>3d</fix>
</trkpt>
<trkpt lat="33.8106629" lon="-118.3938365">
  <ele>-25.234</ele>
  <time>2026-09-02T22:11:31Z</time>
  <course>19.86</course>
  <speed>0.7783315488916018</speed>
  <fix>3d</fix>
</trkpt>
<trkpt lat="33.810662" lon="-118.393838">
  <ele>-24.62</ele>
  <time>2026-09-02T22:11:31Z</time>
  <course>44.61</course>
  <speed>0.79</speed>
  <fix>3d</fix>
</trkpt>
<trkpt lat="33.8106629" lon="-118.3938365">
  <ele>-25.234</ele>
  <time>2026-09-02T22:11:31Z</time>
  <course>19.86</course>
  <speed>0.7783315488916018</speed>
  <fix>3d</fix>
</trkpt>
<trkpt lat="33.8106629" lon="-118.3938364">
  <ele>-25.234</ele>
  <time>2026-09-02T22:11:31Z</time>
  <course>19.86</course>
  <speed>0.7783315488916018</speed>
  <fix>3d</fix>
</trkpt>
<trkpt lat="33.810663" lon="-118.3938363">
  <ele>-25.234</ele>
  <time>2026-09-02T22:11:31Z</time>
  <course>19.86</course>
  <speed>0.7783315488916018</speed>
  <fix>3d</fix>
</trkpt>
<trkpt lat="33.810663" lon="-118.3938363">
  <ele>-25.234</ele>
  <time>2026-09-02T22:11:31Z</time>
  <course>19.86</course>
  <speed>0.7783315488916018</speed>
  <fix>3d</fix>
</trkpt>
<trkpt lat="33.8106631" lon="-118.3938362">
  <ele>-25.234</ele>
  <time>2026-09-02T22:11:31Z</time>
  <course>19.86</course>
  <speed>0.7783315488916018</speed>
  <fix>3d</fix>
</trkpt>
<trkpt lat="33.8106631" lon="-118.3938362">
  <ele>-25.234</ele>
  <time>2026-09-02T22:11:31Z</time>
  <course>19.86</course>
  <speed>0.7783315488916018</speed>
  <fix>3d</fix>
</trkpt>
<trkpt lat="33.8106631" lon="-118.3938361">
  <ele>-25.233</ele>
  <time>2026-09-02T22:11:31Z</time>
  <course>19.86</course>
  <speed>0.7783315488916018</speed>
  <fix>3d</fix>
</trkpt>
<trkpt lat="33.8106632" lon="-118.3938361">
  <ele>-25.233</ele>
  <time>2026-09-02T22:11:31Z</time>
  <course>19.86</course>
  <speed>0.7783315488916018</speed>
  <fix>3d</fix>
</trkpt>
<trkpt lat="33.8106632" lon="-118.393836">
  <ele>-25.233</ele>
  <time>2026-09-02T22:11:31Z</time>
  <course>19.86</course>
  <speed>0.7783315488916018</speed>
  <fix>3d</fix>
</trkpt>
<trkpt lat="33.8106633" lon="-118.393836">
  <ele>-25.233</ele>
  <time>2026-09-02T22:11:31Z</time>
  <course>19.86</course>
  <speed>0.7783315488916018</speed>
  <fix>3d</fix>
</trkpt>
<trkpt lat="33.8106633" lon="-118.393836">
  <ele>-25.233</ele>
  <time>2026-09-02T22:11:31Z</time>
  <course>19.86</course>
  <speed>0.7783315488916018</speed>
  <fix>3d</fix>
</trkpt>
<trkpt lat="33.8106633" lon="-118.3938359">
  <ele>-25.233</ele>
  <time>2026-09-02T22:11:31Z</time>
  <course>19.86</course>
  <speed>0.7783315488916018</speed>
  <fix>3d</fix>
</trkpt>
<trkpt lat="33.8106634" lon="-118.3938359">
  <ele>-25.233</ele>
  <time>2026-09-02T22:11:31Z</time>
  <course>19.86</course>
  <speed>0.7783315488916018</speed>
  <fix>3d</fix>
</trkpt>
<trkpt lat="33.8106634" lon="-118.3938359">
  <ele>-25.233</ele>
  <time>2026-09-02T22:11:31Z</time>
  <course>19.86</course>
  <speed>0.7783315488916018</speed>
  <fix>3d</fix>
</trkpt>
<trkpt lat="33.810663" lon="-118.3938368">
  <ele>-24.62</ele>
  <time>2026-09-02T22:11:31Z</time>
  <course>44.58</course>
  <speed>0.79</speed>
  <fix>3d</fix>
</trkpt>
<trkpt lat="33.8106634" lon="-118.3938358">
  <ele>-25.233</ele>
  <time>2026-09-02T22:11:31Z</time>
  <course>19.86</course>
  <speed>0.7783315488916018</speed>
  <fix>3d</fix>
</trkpt>
<trkpt lat="33.8106635" lon="-118.3938357">
  <ele>-25.233</ele>
  <time>2026-09-02T22:11:31Z</time>
  <course>19.86</course>
  <speed>0.7783315488916018</speed>
  <fix>3d</fix>
</trkpt>
<trkpt lat="33.8106635" lon="-118.3938357">
  <ele>-25.233</ele>
  <time>2026-09-02T22:11:31Z</time>
  <course>19.86</course>
  <speed>0.7783315488916018</speed>
  <fix>3d</fix>
</trkpt>
<trkpt lat="33.8106636" lon="-118.3938356">
  <ele>-25.233</ele>
  <time>2026-09-02T22:11:31Z</time>
  <course>19.86</course>
  <speed>0.7783315488916018</speed>
  <fix>3d</fix>
</trkpt>
<trkpt lat="33.8106636" lon="-118.3938356">
  <ele>-25.233</ele>
  <time>2026-09-02T22:11:31Z</time>
  <course>19.86</course>
  <speed>0.7783315488916018</speed>
  <fix>3d</fix>
</trkpt>
<trkpt lat="33.8106637" lon="-118.3938355">
  <ele>-25.233</ele>
  <time>2026-09-02T22:11:31Z</time>
  <course>19.86</course>
  <speed>0.7783315488916018</speed>
  <fix>3d</fix>
</trkpt>
<trkpt lat="33.8106637" lon="-118.3938355">
  <ele>-25.233</ele>
  <time>2026-09-02T22:11:31Z</time>
  <course>19.86</course>
  <speed>0.7783315488916018</speed>
  <fix>3d</fix>
</trkpt>
<trkpt lat="33.8106637" lon="-118.3938354">
  <ele>-25.233</ele>
  <time>2026-09-02T22:11:31Z</time>
  <course>19.87</course>
  <speed>0.7783315488916018</speed>
  <fix>3d</fix>
</trkpt>
<trkpt lat="33.8106638" lon="-118.3938354">
  <ele>-25.233</ele>
  <time>2026-09-02T22:11:31Z</time>
  <course>19.87</course>
  <speed>0.7783315488916018</speed>
  <fix>3d</fix>
</trkpt>
<trkpt lat="33.8106638" lon="-118.3938353">
  <ele>-25.233</ele>
  <time>2026-09-02T22:11:31Z</time>
  <course>19.87</course>
  <speed>0.7783315488916018</speed>
  <fix>3d</fix>
</trkpt>
<trkpt lat="33.8106639" lon="-118.3938353">
  <ele>-25.233</ele>
  <time>2026-09-02T22:11:31Z</time>
  <course>19.87</course>
  <speed>0.7783315488916018</speed>
  <fix>3d</fix>
</trkpt>
<trkpt lat="33.8106639" lon="-118.3938353">
  <ele>-25.233</ele>
  <time>2026-09-02T22:11:31Z</time>
  <course>19.87</course>
  <speed>0.7783315488916018</speed>
  <fix>3d</fix>
</trkpt>
<trkpt lat="33.810663" lon="-118.3938368">
  <ele>-24.62</ele>
  <time>2026-09-02T22:11:31Z</time>
  <course>44.58</course>
  <speed>0.79</speed>
  <fix>3d</fix>
</trkpt>
<trkpt lat="33.8106639" lon="-118.3938352">
  <ele>-25.233</ele>
  <time>2026-09-02T22:11:31Z</time>
  <course>19.87</course>
  <speed>0.7783315488916018</speed>
  <fix>3d</fix>
</trkpt>
<trkpt lat="33.810664" lon="-118.3938352">
  <ele>-25.233</ele>
  <time>2026-09-02T22:11:31Z</time>
  <course>19.87</course>
  <speed>0.7783315488916018</speed>
  <fix>3d</fix>
</trkpt>
<trkpt lat="33.810664" lon="-118.3938351">
  <ele>-25.233</ele>
  <time>2026-09-02T22:11:31Z</time>
  <course>19.87</course>
  <speed>0.7783315488916018</speed>
  <fix>3d</fix>
</trkpt>
<trkpt lat="33.810664" lon="-118.3938351">
  <ele>-25.233</ele>
  <time>2026-09-02T22:11:31Z</time>
  <course>19.87</course>
  <speed>0.7783315488916018</speed>
  <fix>3d</fix>
</trkpt>
<trkpt lat="33.8106641" lon="-118.393835">
  <ele>-25.233</ele>
  <time>2026-09-02T22:11:31Z</time>
  <course>19.87</course>
  <speed>0.7783315488916018</speed>
  <fix>3d</fix>
</trkpt>
<trkpt lat="33.8106641" lon="-118.393835">
  <ele>-25.233</ele>
  <time>2026-09-02T22:11:31Z</time>
  <course>19.87</course>
  <speed>0.7783315488916018</speed>
  <fix>3d</fix>
</trkpt>
<trkpt lat="33.8106642" lon="-118.3938349">
  <ele>-25.233</ele>
  <time>2026-09-02T22:11:31Z</time>
  <course>19.87</course>
  <speed>0.7783315488916018</speed>
  <fix>3d</fix>
</trkpt>
<trkpt lat="33.8106642" lon="-118.3938349">
  <ele>-25.232</ele>
  <time>2026-09-02T22:11:31Z</time>
  <course>19.87</course>
  <speed>0.7783315488916018</speed>
  <fix>3d</fix>
</trkpt>
<trkpt lat="33.8106642" lon="-118.3938348">
  <ele>-25.232</ele>
  <time>2026-09-02T22:11:31Z</time>
  <course>19.87</course>
  <speed>0.7783315488916018</speed>
  <fix>3d</fix>
</trkpt>
<trkpt lat="33.8106643" lon="-118.3938348">
  <ele>-25.232</ele>
  <time>2026-09-02T22:11:31Z</time>
  <course>19.87</course>
  <speed>0.7783315488916018</speed>
  <fix>3d</fix>
</trkpt>
<trkpt lat="33.8106643" lon="-118.3938348">
  <ele>-25.232</ele>
  <time>2026-09-02T22:11:31Z</time>
  <course>19.87</course>
  <speed>0.7783315488916018</speed>
  <fix>3d</fix>
</trkpt>
<trkpt lat="33.8106644" lon="-118.3938347">
  <ele>-25.232</ele>
  <time>2026-09-02T22:11:31Z</time>
  <course>19.87</course>
  <speed>0.7783315488916018</speed>
  <fix>3d</fix>
</trkpt>
<trkpt lat="33.8106644" lon="-118.3938347">
  <ele>-25.232</ele>
  <time>2026-09-02T22:11:31Z</time>
  <course>19.87</course>
  <speed>0.7783315488916018</speed>
  <fix>3d</fix>
</trkpt>
<trkpt lat="33.8106644" lon="-118.3938347">
  <ele>-25.232</ele>
  <time>2026-09-02T22:11:31Z</time>
  <course>19.87</course>
  <speed>0.7783315488916018</speed>
  <fix>3d</fix>
</trkpt>
<trkpt lat="33.810664" lon="-118.3938356">
  <ele>-24.61</ele>
  <time>2026-09-02T22:11:31Z</time>
  <course>44.61</course>
  <speed>0.79</speed>
  <fix>3d</fix>
</trkpt>
<trkpt lat="33.8106645" lon="-118.3938346">
  <ele>-25.231</ele>
  <time>2026-09-02T22:11:31Z</time>
  <course>19.87</course>
  <speed>0.7783315488916018</speed>
  <fix>3d</fix>
</trkpt>
<trkpt lat="33.8106645" lon="-118.3938345">
  <ele>-25.231</ele>
  <time>2026-09-02T22:11:31Z</time>
  <course>19.87</course>
  <speed>0.7783315488916018</speed>
  <fix>3d</fix>
</trkpt>
<trkpt lat="33.8106646" lon="-118.3938345">
  <ele>-25.231</ele>
  <time>2026-09-02T22:11:31Z</time>
  <course>19.87</course>
  <speed>0.7783315488916018</speed>
  <fix>3d</fix>
</trkpt>
<trkpt lat="33.8106646" lon="-118.3938344">
  <ele>-25.231</ele>
  <time>2026-09-02T22:11:31Z</time>
  <course>19.87</course>
  <speed>0.7783315488916018</speed>
  <fix>3d</fix>
</trkpt>
<trkpt lat="33.8106646" lon="-118.3938344">
  <ele>-25.231</ele>
  <time>2026-09-02T22:11:31Z</time>
  <course>19.87</course>
  <speed>0.7783315488916018</speed>
  <fix>3d</fix>
</trkpt>
<trkpt lat="33.8106647" lon="-118.3938343">
  <ele>-25.231</ele>
  <time>2026-09-02T22:11:31Z</time>
  <course>19.87</course>
  <speed>0.7783315488916018</speed>
  <fix>3d</fix>
</trkpt>
<trkpt lat="33.8106647" lon="-118.3938343">
  <ele>-25.23</ele>
  <time>2026-09-02T22:11:31Z</time>
  <course>19.87</course>
  <speed>0.7783315488916018</speed>
  <fix>3d</fix>
</trkpt>
<trkpt lat="33.8106647" lon="-118.3938342">
  <ele>-25.23</ele>
  <time>2026-09-02T22:11:31Z</time>
  <course>19.87</course>
  <speed>0.7783315488916018</speed>
  <fix>3d</fix>
</trkpt>
<trkpt lat="33.8106648" lon="-118.3938342">
  <ele>-25.23</ele>
  <time>2026-09-02T22:11:31Z</time>
  <course>19.87</course>
  <speed>0.7783315488916018</speed>
  <fix>3d</fix>
</trkpt>
<trkpt lat="33.8106648" lon="-118.3938341">
  <ele>-25.23</ele>
  <time>2026-09-02T22:11:31Z</time>
  <course>19.87</course>
  <speed>0.7783315488916018</speed>
  <fix>3d</fix>
</trkpt>
<trkpt lat="33.8106649" lon="-118.3938341">
  <ele>-25.229</ele>
  <time>2026-09-02T22:11:31Z</time>
  <course>19.87</course>
  <speed>0.7783315488916018</speed>
  <fix>3d</fix>
</trkpt>
<trkpt lat="33.8106649" lon="-118.393834">
  <ele>-25.229</ele>
  <time>2026-09-02T22:11:31Z</time>
  <course>19.87</course>
  <speed>0.7783315488916018</speed>
  <fix>3d</fix>
</trkpt>
<trkpt lat="33.8106649" lon="-118.393834">
  <ele>-25.229</ele>
  <time>2026-09-02T22:11:31Z</time>
  <course>19.87</course>
  <speed>0.7783315488916018</speed>
  <fix>3d</fix>
</trkpt>
<trkpt lat="33.810664" lon="-118.3938356">
  <ele>-24.61</ele>
  <time>2026-09-02T22:11:31Z</time>
  <course>44.61</course>
  <speed>0.79</speed>
  <fix>3d</fix>
</trkpt>
<trkpt lat="33.810665" lon="-118.3938339">
  <ele>-25.229</ele>
  <time>2026-09-02T22:11:31Z</time>
  <course>19.87</course>
  <speed>0.7783315488916018</speed>
  <fix>3d</fix>
</trkpt>
<trkpt lat="33.810665" lon="-118.3938339">
  <ele>-25.228</ele>
  <time>2026-09-02T22:11:31Z</time>
  <course>19.87</course>
  <speed>0.7783315488916018</speed>
  <fix>3d</fix>
</trkpt>
<trkpt lat="33.8106651" lon="-118.3938338">
  <ele>-25.228</ele>
  <time>2026-09-02T22:11:31Z</time>
  <course>19.87</course>
  <speed>0.7783315488916018</speed>
  <fix>3d</fix>
</trkpt>
<trkpt lat="33.8106651" lon="-118.3938338">
  <ele>-25.228</ele>
  <time>2026-09-02T22:11:31Z</time>
  <course>19.87</course>
  <speed>0.7783315488916018</speed>
  <fix>3d</fix>
</trkpt>
<trkpt lat="33.8106652" lon="-118.3938338">
  <ele>-25.228</ele>
  <time>2026-09-02T22:11:31Z</time>
  <course>19.87</course>
  <speed>0.7783315488916018</speed>
  <fix>3d</fix>
</trkpt>
<trkpt lat="33.8106652" lon="-118.3938337">
  <ele>-25.227</ele>
  <time>2026-09-02T22:11:31Z</time>
  <course>19.87</course>
  <speed>0.7783315488916018</speed>
  <fix>3d</fix>
</trkpt>
<trkpt lat="33.8106652" lon="-118.3938337">
  <ele>-25.227</ele>
  <time>2026-09-02T22:11:31Z</time>
  <course>19.87</course>
  <speed>0.7783315488916018</speed>
  <fix>3d</fix>
</trkpt>
<trkpt lat="33.8106653" lon="-118.3938336">
  <ele>-25.227</ele>
  <time>2026-09-02T22:11:31Z</time>
  <course>19.87</course>
  <speed>0.7783315488916018</speed>
  <fix>3d</fix>
</trkpt>
<trkpt lat="33.8106653" lon="-118.3938336">
  <ele>-25.227</ele>
  <time>2026-09-02T22:11:31Z</time>
  <course>19.87</course>
  <speed>0.7783315488916018</speed>
  <fix>3d</fix>
</trkpt>
<trkpt lat="33.8106654" lon="-118.3938335">
  <ele>-25.226</ele>
  <time>2026-09-02T22:11:31Z</time>
  <course>19.87</course>
  <speed>0.7783315488916018</speed>
  <fix>3d</fix>
</trkpt>
<trkpt lat="33.8106654" lon="-118.3938335">
  <ele>-25.226</ele>
  <time>2026-09-02T22:11:31Z</time>
  <course>19.87</course>
  <speed>0.7783315488916018</speed>
  <fix>3d</fix>
</trkpt>
<trkpt lat="33.8106654" lon="-118.3938334">
  <ele>-25.226</ele>
  <time>2026-09-02T22:11:31Z</time>
  <course>19.88</course>
  <speed>0.7783315488916018</speed>
  <fix>3d</fix>
</trkpt>
<trkpt lat="33.810665" lon="-118.3938344">
  <ele>-24.61</ele>
  <time>2026-09-02T22:11:31Z</time>
  <course>44.64</course>
  <speed>0.79</speed>
  <fix>3d</fix>
</trkpt>
<trkpt lat="33.8106654" lon="-118.3938334">
  <ele>-25.226</ele>
  <time>2026-09-02T22:11:31Z</time>
  <course>19.88</course>
  <speed>0.7783315488916018</speed>
  <fix>3d</fix>
</trkpt>
<trkpt lat="33.8106655" lon="-118.3938333">
  <ele>-25.225</ele>
  <time>2026-09-02T22:11:31Z</time>
  <course>19.88</course>
  <speed>0.7783315488916018</speed>
  <fix>3d</fix>
</trkpt>
<trkpt lat="33.8106656" lon="-118.3938333">
  <ele>-25.225</ele>
  <time>2026-09-02T22:11:31Z</time>
  <course>19.88</course>
  <speed>0.7783315488916018</speed>
  <fix>3d</fix>
</trkpt>
<trkpt lat="33.8106656" lon="-118.3938332">
  <ele>-25.225</ele>
  <time>2026-09-02T22:11:31Z</time>
  <course>19.88</course>
  <speed>0.7783315488916018</speed>
  <fix>3d</fix>
</trkpt>
<trkpt lat="33.8106656" lon="-118.3938332">
  <ele>-25.225</ele>
  <time>2026-09-02T22:11:31Z</time>
  <course>19.88</course>
  <speed>0.7783315488916018</speed>
  <fix>3d</fix>
</trkpt>
<trkpt lat="33.8106657" lon="-118.3938331">
  <ele>-25.224</ele>
  <time>2026-09-02T22:11:31Z</time>
  <course>19.88</course>
  <speed>0.7783315488916018</speed>
  <fix>3d</fix>
</trkpt>
<trkpt lat="33.8106657" lon="-118.3938331">
  <ele>-25.224</ele>
  <time>2026-09-02T22:11:31Z</time>
  <course>19.88</course>
  <speed>0.7783315488916018</speed>
  <fix>3d</fix>
</trkpt>
<trkpt lat="33.8106658" lon="-118.393833">
  <ele>-25.224</ele>
  <time>2026-09-02T22:11:31Z</time>
  <course>19.88</course>
  <speed>0.7783315488916018</speed>
  <fix>3d</fix>
</trkpt>
<trkpt lat="33.8106658" lon="-118.393833">
  <ele>-25.224</ele>
  <time>2026-09-02T22:11:31Z</time>
  <course>19.89</course>
  <speed>0.7783315488916018</speed>
  <fix>3d</fix>
</trkpt>
<trkpt lat="33.8106659" lon="-118.3938329">
  <ele>-25.223</ele>
  <time>2026-09-02T22:11:31Z</time>
  <course>19.89</course>
  <speed>0.7783315488916018</speed>
  <fix>3d</fix>
</trkpt>
<trkpt lat="33.8106659" lon="-118.3938329">
  <ele>-25.223</ele>
  <time>2026-09-02T22:11:31Z</time>
  <course>19.89</course>
  <speed>0.7783315488916018</speed>
  <fix>3d</fix>
</trkpt>
<trkpt lat="33.8106659" lon="-118.3938328">
  <ele>-25.223</ele>
  <time>2026-09-02T22:11:31Z</time>
  <course>19.89</course>
  <speed>0.7783315488916018</speed>
  <fix>3d</fix>
</trkpt>
<trkpt lat="33.8106659" lon="-118.3938328">
  <ele>-25.223</ele>
  <time>2026-09-02T22:11:31Z</time>
  <course>19.89</course>
  <speed>0.7783315488916018</speed>
  <fix>3d</fix>
</trkpt>
<trkpt lat="33.810665" lon="-118.3938344">
  <ele>-24.61</ele>
  <time>2026-09-02T22:11:31Z</time>
  <course>44.64</course>
  <speed>0.79</speed>
  <fix>3d</fix>
</trkpt>
<trkpt lat="33.810666" lon="-118.3938328">
  <ele>-25.223</ele>
  <time>2026-09-02T22:11:31Z</time>
  <course>19.89</course>
  <speed>0.785175139698144</speed>
  <fix>3d</fix>
</trkpt>
<trkpt lat="33.810666" lon="-118.3938327">
  <ele>-25.222</ele>
  <time>2026-09-02T22:11:31Z</time>
  <course>19.89</course>
  <speed>0.785175139698144</speed>
  <fix>3d</fix>
</trkpt>
<trkpt lat="33.8106661" lon="-118.3938326">
  <ele>-25.222</ele>
  <time>2026-09-02T22:11:31Z</time>
  <course>19.89</course>
  <speed>0.785175139698144</speed>
  <fix>3d</fix>
</trkpt>
<trkpt lat="33.8106661" lon="-118.3938326">
  <ele>-25.221</ele>
  <time>2026-09-02T22:11:31Z</time>
  <course>19.89</course>
  <speed>0.785175139698144</speed>
  <fix>3d</fix>
</trkpt>
<trkpt lat="33.8106662" lon="-118.3938325">
  <ele>-25.221</ele>
  <time>2026-09-02T22:11:31Z</time>
  <course>19.89</course>
  <speed>0.785175139698144</speed>
  <fix>3d</fix>
</trkpt>
<trkpt lat="33.8106662" lon="-118.3938325">
  <ele>-25.221</ele>
  <time>2026-09-02T22:11:31Z</time>
  <course>19.88</course>
  <speed>0.785175139698144</speed>
  <fix>3d</fix>
</trkpt>
<trkpt lat="33.8106663" lon="-118.3938324">
  <ele>-25.221</ele>
  <time>2026-09-02T22:11:31Z</time>
  <course>19.88</course>
  <speed>0.785175139698144</speed>
  <fix>3d</fix>
</trkpt>
<trkpt lat="33.8106663" lon="-118.3938324">
  <ele>-25.221</ele>
  <time>2026-09-02T22:11:31Z</time>
  <course>19.88</course>
  <speed>0.785175139698144</speed>
  <fix>3d</fix>
</trkpt>
<trkpt lat="33.8106663" lon="-118.3938323">
  <ele>-25.221</ele>
  <time>2026-09-02T22:11:31Z</time>
  <course>19.88</course>
  <speed>0.785175139698144</speed>
  <fix>3d</fix>
</trkpt>
<trkpt lat="33.8106664" lon="-118.3938323">
  <ele>-25.221</ele>
  <time>2026-09-02T22:11:31Z</time>
  <course>19.88</course>
  <speed>0.785175139698144</speed>
  <fix>3d</fix>
</trkpt>
<trkpt lat="33.8106664" lon="-118.3938323">
  <ele>-25.22</ele>
  <time>2026-09-02T22:11:31Z</time>
  <course>19.88</course>
  <speed>0.792464510246358</speed>
  <fix>3d</fix>
</trkpt>
<trkpt lat="33.8106665" lon="-118.3938322">
  <ele>-25.22</ele>
  <time>2026-09-02T22:11:31Z</time>
  <course>19.88</course>
  <speed>0.792464510246358</speed>
  <fix>3d</fix>
</trkpt>
<trkpt lat="33.8106661" lon="-118.3938332">
  <ele>-24.61</ele>
  <time>2026-09-02T22:11:31Z</time>
  <course>44.69</course>
  <speed>0.8</speed>
  <fix>3d</fix>
</trkpt>
<trkpt lat="33.8106665" lon="-118.3938322">
  <ele>-25.22</ele>
  <time>2026-09-02T22:11:31Z</time>
  <course>19.88</course>
  <speed>0.792464510246358</speed>
  <fix>3d</fix>
</trkpt>
<trkpt lat="33.8106665" lon="-118.3938321">
  <ele>-25.22</ele>
  <time>2026-09-02T22:11:31Z</time>
  <course>19.88</course>
  <speed>0.792464510246358</speed>
  <fix>3d</fix>
</trkpt>
<trkpt lat="33.8106666" lon="-118.3938321">
  <ele>-25.22</ele>
  <time>2026-09-02T22:11:31Z</time>
  <course>19.88</course>
  <speed>0.792464510246358</speed>
  <fix>3d</fix>
</trkpt>
<trkpt lat="33.8106666" lon="-118.393832">
  <ele>-25.22</ele>
  <time>2026-09-02T22:11:31Z</time>
  <course>19.88</course>
  <speed>0.792464510246358</speed>
  <fix>3d</fix>
</trkpt>
<trkpt lat="33.8106666" lon="-118.393832">
  <ele>-25.22</ele>
  <time>2026-09-02T22:11:31Z</time>
  <course>19.88</course>
  <speed>0.792464510246358</speed>
  <fix>3d</fix>
</trkpt>
<trkpt lat="33.8106667" lon="-118.3938319">
  <ele>-25.22</ele>
  <time>2026-09-02T22:11:31Z</time>
  <course>19.88</course>
  <speed>0.792464510246358</speed>
  <fix>3d</fix>
</trkpt>
<trkpt lat="33.8106667" lon="-118.3938319">
  <ele>-25.22</ele>
  <time>2026-09-02T22:11:31Z</time>
  <course>19.88</course>
  <speed>0.792464510246358</speed>
  <fix>3d</fix>
</trkpt>
<trkpt lat="33.8106668" lon="-118.3938319">
  <ele>-25.219</ele>
  <time>2026-09-02T22:11:31Z</time>
  <course>19.88</course>
  <speed>0.792464510246358</speed>
  <fix>3d</fix>
</trkpt>
<trkpt lat="33.8106668" lon="-118.3938318">
  <ele>-25.219</ele>
  <time>2026-09-02T22:11:31Z</time>
  <course>19.88</course>
  <speed>0.792464510246358</speed>
  <fix>3d</fix>
</trkpt>
<trkpt lat="33.8106668" lon="-118.3938317">
  <ele>-25.219</ele>
  <time>2026-09-02T22:11:31Z</time>
  <course>19.88</course>
  <speed>0.792464510246358</speed>
  <fix>3d</fix>
</trkpt>
<trkpt lat="33.8106669" lon="-118.3938317">
  <ele>-25.219</ele>
  <time>2026-09-02T22:11:31Z</time>
  <course>19.88</course>
  <speed>0.792464510246358</speed>
  <fix>3d</fix>
</trkpt>
<trkpt lat="33.8106669" lon="-118.3938317">
  <ele>-25.219</ele>
  <time>2026-09-02T22:11:31Z</time>
  <course>19.88</course>
  <speed>0.792464510246358</speed>
  <fix>3d</fix>
</trkpt>
<trkpt lat="33.810667" lon="-118.3938316">
  <ele>-25.219</ele>
  <time>2026-09-02T22:11:31Z</time>
  <course>19.88</course>
  <speed>0.792464510246358</speed>
  <fix>3d</fix>
</trkpt>
<trkpt lat="33.810667" lon="-118.3938316">
  <ele>-25.219</ele>
  <time>2026-09-02T22:11:31Z</time>
  <course>19.88</course>
  <speed>0.792464510246358</speed>
  <fix>3d</fix>
</trkpt>
<trkpt lat="33.8106661" lon="-118.3938332">
  <ele>-24.61</ele>
  <time>2026-09-02T22:11:31Z</time>
  <course>44.69</course>
  <speed>0.8</speed>
  <fix>3d</fix>
</trkpt>
<trkpt lat="33.810667" lon="-118.3938316">
  <ele>-25.219</ele>
  <time>2026-09-02T22:11:31Z</time>
  <course>19.88</course>
  <speed>0.792464510246358</speed>
  <fix>3d</fix>
</trkpt>
<trkpt lat="33.8106671" lon="-118.3938315">
  <ele>-25.219</ele>
  <time>2026-09-02T22:11:31Z</time>
  <course>19.88</course>
  <speed>0.792464510246358</speed>
  <fix>3d</fix>
</trkpt>
<trkpt lat="33.8106671" lon="-118.3938314">
  <ele>-25.218</ele>
  <time>2026-09-02T22:11:31Z</time>
  <course>19.88</course>
  <speed>0.792464510246358</speed>
  <fix>3d</fix>
</trkpt>
<trkpt lat="33.8106671" lon="-118.3938314">
  <ele>-25.218</ele>
  <time>2026-09-02T22:11:31Z</time>
  <course>19.88</course>
  <speed>0.792464510246358</speed>
  <fix>3d</fix>
</trkpt>
<trkpt lat="33.8106672" lon="-118.3938313">
  <ele>-25.218</ele>
  <time>2026-09-02T22:11:31Z</time>
  <course>19.88</course>
  <speed>0.792464510246358</speed>
  <fix>3d</fix>
</trkpt>
<trkpt lat="33.8106672" lon="-118.3938313">
  <ele>-25.218</ele>
  <time>2026-09-02T22:11:31Z</time>
  <course>19.88</course>
  <speed>0.792464510246358</speed>
  <fix>3d</fix>
</trkpt>
<trkpt lat="33.8106673" lon="-118.3938312">
  <ele>-25.218</ele>
  <time>2026-09-02T22:11:31Z</time>
  <course>19.88</course>
  <speed>0.792464510246358</speed>
  <fix>3d</fix>
</trkpt>
<trkpt lat="33.8106673" lon="-118.3938312">
  <ele>-25.218</ele>
  <time>2026-09-02T22:11:31Z</time>
  <course>19.88</course>
  <speed>0.792464510246358</speed>
  <fix>3d</fix>
</trkpt>
<trkpt lat="33.8106673" lon="-118.3938311">
  <ele>-25.218</ele>
  <time>2026-09-02T22:11:31Z</time>
  <course>19.88</course>
  <speed>0.792464510246358</speed>
  <fix>3d</fix>
</trkpt>
<trkpt lat="33.8106674" lon="-118.3938311">
  <ele>-25.218</ele>
  <time>2026-09-02T22:11:31Z</time>
  <course>19.88</course>
  <speed>0.792464510246358</speed>
  <fix>3d</fix>
</trkpt>
<trkpt lat="33.8106674" lon="-118.3938311">
  <ele>-25.218</ele>
  <time>2026-09-02T22:11:31Z</time>
  <course>19.88</course>
  <speed>0.792464510246358</speed>
  <fix>3d</fix>
</trkpt>
<trkpt lat="33.8106675" lon="-118.393831">
  <ele>-25.218</ele>
  <time>2026-09-02T22:11:31Z</time>
  <course>19.88</course>
  <speed>0.792464510246358</speed>
  <fix>3d</fix>
</trkpt>
<trkpt lat="33.8106675" lon="-118.393831">
  <ele>-25.218</ele>
  <time>2026-09-02T22:11:31Z</time>
  <course>19.88</course>
  <speed>0.792464510246358</speed>
  <fix>3d</fix>
</trkpt>
<trkpt lat="33.810667" lon="-118.3938319">
  <ele>-24.61</ele>
  <time>2026-09-02T22:11:31Z</time>
  <course>44.75</course>
  <speed>0.8</speed>
  <fix>3d</fix>
</trkpt>
<trkpt lat="33.8106675" lon="-118.393831">
  <ele>-25.218</ele>
  <time>2026-09-02T22:11:31Z</time>
  <course>19.88</course>
  <speed>0.792464510246358</speed>
  <fix>3d</fix>
</trkpt>
<trkpt lat="33.8106676" lon="-118.3938309">
  <ele>-25.218</ele>
  <time>2026-09-02T22:11:31Z</time>
  <course>19.88</course>
  <speed>0.792464510246358</speed>
  <fix>3d</fix>
</trkpt>
<trkpt lat="33.8106676" lon="-118.3938308">
  <ele>-25.218</ele>
  <time>2026-09-02T22:11:31Z</time>
  <course>19.88</course>
  <speed>0.792464510246358</speed>
  <fix>3d</fix>
</trkpt>
<trkpt lat="33.8106677" lon="-118.3938308">
  <ele>-25.218</ele>
  <time>2026-09-02T22:11:31Z</time>
  <course>19.88</course>
  <speed>0.792464510246358</speed>
  <fix>3d</fix>
</trkpt>
<trkpt lat="33.8106677" lon="-118.3938307">
  <ele>-25.218</ele>
  <time>2026-09-02T22:11:31Z</time>
  <course>19.88</course>
  <speed>0.792464510246358</speed>
  <fix>3d</fix>
</trkpt>
<trkpt lat="33.8106677" lon="-118.3938307">
  <ele>-25.218</ele>
  <time>2026-09-02T22:11:31Z</time>
  <course>19.88</course>
  <speed>0.792464510246358</speed>
  <fix>3d</fix>
</trkpt>
<trkpt lat="33.8106678" lon="-118.3938306">
  <ele>-25.218</ele>
  <time>2026-09-02T22:11:31Z</time>
  <course>19.88</course>
  <speed>0.792464510246358</speed>
  <fix>3d</fix>
</trkpt>
<trkpt lat="33.8106678" lon="-118.3938306">
  <ele>-25.218</ele>
  <time>2026-09-02T22:11:31Z</time>
  <course>19.88</course>
  <speed>0.792464510246358</speed>
  <fix>3d</fix>
</trkpt>
<trkpt lat="33.8106679" lon="-118.3938305">
  <ele>-25.218</ele>
  <time>2026-09-02T22:11:31Z</time>
  <course>19.88</course>
  <speed>0.792464510246358</speed>
  <fix>3d</fix>
</trkpt>
<trkpt lat="33.8106679" lon="-118.3938305">
  <ele>-25.218</ele>
  <time>2026-09-02T22:11:31Z</time>
  <course>19.88</course>
  <speed>0.792464510246358</speed>
  <fix>3d</fix>
</trkpt>
<trkpt lat="33.8106679" lon="-118.3938304">
  <ele>-25.218</ele>
  <time>2026-09-02T22:11:31Z</time>
  <course>19.88</course>
  <speed>0.792464510246358</speed>
  <fix>3d</fix>
</trkpt>
<trkpt lat="33.810668" lon="-118.3938304">
  <ele>-25.218</ele>
  <time>2026-09-02T22:11:31Z</time>
  <course>19.88</course>
  <speed>0.792464510246358</speed>
  <fix>3d</fix>
</trkpt>
<trkpt lat="33.810668" lon="-118.3938304">
  <ele>-25.218</ele>
  <time>2026-09-02T22:11:31Z</time>
  <course>19.88</course>
  <speed>0.792464510246358</speed>
  <fix>3d</fix>
</trkpt>
<trkpt lat="33.810667" lon="-118.3938319">
  <ele>-24.61</ele>
  <time>2026-09-02T22:11:31Z</time>
  <course>44.75</course>
  <speed>0.8</speed>
  <fix>3d</fix>
</trkpt>
<trkpt lat="33.810668" lon="-118.3938303">
  <ele>-25.218</ele>
  <time>2026-09-02T22:11:31Z</time>
  <course>19.88</course>
  <speed>0.792464510246358</speed>
  <fix>3d</fix>
</trkpt>
<trkpt lat="33.8106681" lon="-118.3938303">
  <ele>-25.218</ele>
  <time>2026-09-02T22:11:31Z</time>
  <course>19.88</course>
  <speed>0.792464510246358</speed>
  <fix>3d</fix>
</trkpt>
<trkpt lat="33.8106681" lon="-118.3938302">
  <ele>-25.218</ele>
  <time>2026-09-02T22:11:31Z</time>
  <course>19.88</course>
  <speed>0.792464510246358</speed>
  <fix>3d</fix>
</trkpt>
<trkpt lat="33.8106682" lon="-118.3938302">
  <ele>-25.218</ele>
  <time>2026-09-02T22:11:31Z</time>
  <course>19.88</course>
  <speed>0.792464510246358</speed>
  <fix>3d</fix>
</trkpt>
<trkpt lat="33.8106682" lon="-118.3938301">
  <ele>-25.218</ele>
  <time>2026-09-02T22:11:31Z</time>
  <course>19.88</course>
  <speed>0.792464510246358</speed>
  <fix>3d</fix>
</trkpt>
<trkpt lat="33.8106682" lon="-118.3938301">
  <ele>-25.218</ele>
  <time>2026-09-02T22:11:31Z</time>
  <course>19.88</course>
  <speed>0.792464510246358</speed>
  <fix>3d</fix>
</trkpt>
<trkpt lat="33.8106683" lon="-118.39383">
  <ele>-25.217</ele>
  <time>2026-09-02T22:11:31Z</time>
  <course>19.88</course>
  <speed>0.792464510246358</speed>
  <fix>3d</fix>
</trkpt>
<trkpt lat="33.8106683" lon="-118.39383">
  <ele>-25.218</ele>
  <time>2026-09-02T22:11:31Z</time>
  <course>19.89</course>
  <speed>0.792464510246358</speed>
  <fix>3d</fix>
</trkpt>
<trkpt lat="33.8106684" lon="-118.3938299">
  <ele>-25.218</ele>
  <time>2026-09-02T22:11:31Z</time>
  <course>19.89</course>
  <speed>0.792464510246358</speed>
  <fix>3d</fix>
</trkpt>
<trkpt lat="33.8106684" lon="-118.3938299">
  <ele>-25.218</ele>
  <time>2026-09-02T22:11:31Z</time>
  <course>19.89</course>
  <speed>0.792464510246358</speed>
  <fix>3d</fix>
</trkpt>
<trkpt lat="33.8106684" lon="-118.3938298">
  <ele>-25.218</ele>
  <time>2026-09-02T22:11:31Z</time>
  <course>19.89</course>
  <speed>0.792464510246358</speed>
  <fix>3d</fix>
</trkpt>
<trkpt lat="33.8106685" lon="-118.3938298">
  <ele>-25.218</ele>
  <time>2026-09-02T22:11:31Z</time>
  <course>19.89</course>
  <speed>0.792464510246358</speed>
  <fix>3d</fix>
</trkpt>
<trkpt lat="33.8106685" lon="-118.3938297">
  <ele>-25.218</ele>
  <time>2026-09-02T22:11:31Z</time>
  <course>19.89</course>
  <speed>0.792464510246358</speed>
  <fix>3d</fix>
</trkpt>
<trkpt lat="33.8106681" lon="-118.3938307">
  <ele>-24.61</ele>
  <time>2026-09-02T22:11:31Z</time>
  <course>44.79</course>
  <speed>0.8</speed>
  <fix>3d</fix>
</trkpt>
<trkpt lat="33.8106685" lon="-118.3938297">
  <ele>-25.218</ele>
  <time>2026-09-02T22:11:31Z</time>
  <course>19.89</course>
  <speed>0.792464510246358</speed>
  <fix>3d</fix>
</trkpt>
<trkpt lat="33.8106686" lon="-118.3938296">
  <ele>-25.218</ele>
  <time>2026-09-02T22:11:31Z</time>
  <course>19.89</course>
  <speed>0.792464510246358</speed>
  <fix>3d</fix>
</trkpt>
<trkpt lat="33.8106686" lon="-118.3938296">
  <ele>-25.218</ele>
  <time>2026-09-02T22:11:31Z</time>
  <course>19.89</course>
  <speed>0.792464510246358</speed>
  <fix>3d</fix>
</trkpt>
<trkpt lat="33.8106687" lon="-118.3938295">
  <ele>-25.218</ele>
  <time>2026-09-02T22:11:31Z</time>
  <course>19.89</course>
  <speed>0.792464510246358</speed>
  <fix>3d</fix>
</trkpt>
<trkpt lat="33.8106687" lon="-118.3938295">
  <ele>-25.218</ele>
  <time>2026-09-02T22:11:31Z</time>
  <course>19.89</course>
  <speed>0.792464510246358</speed>
  <fix>3d</fix>
</trkpt>
<trkpt lat="33.8106688" lon="-118.3938295">
  <ele>-25.218</ele>
  <time>2026-09-02T22:11:31Z</time>
  <course>19.89</course>
  <speed>0.792464510246358</speed>
  <fix>3d</fix>
</trkpt>
<trkpt lat="33.8106688" lon="-118.3938294">
  <ele>-25.218</ele>
  <time>2026-09-02T22:11:31Z</time>
  <course>19.89</course>
  <speed>0.792464510246358</speed>
  <fix>3d</fix>
</trkpt>
<trkpt lat="33.8106688" lon="-118.3938293">
  <ele>-25.218</ele>
  <time>2026-09-02T22:11:31Z</time>
  <course>19.89</course>
  <speed>0.792464510246358</speed>
  <fix>3d</fix>
</trkpt>
<trkpt lat="33.8106689" lon="-118.3938293">
  <ele>-25.218</ele>
  <time>2026-09-02T22:11:31Z</time>
  <course>19.89</course>
  <speed>0.792464510246358</speed>
  <fix>3d</fix>
</trkpt>
<trkpt lat="33.8106689" lon="-118.3938293">
  <ele>-25.218</ele>
  <time>2026-09-02T22:11:31Z</time>
  <course>19.89</course>
  <speed>0.792464510246358</speed>
  <fix>3d</fix>
</trkpt>
<trkpt lat="33.810669" lon="-118.3938292">
  <ele>-25.218</ele>
  <time>2026-09-02T22:11:31Z</time>
  <course>19.89</course>
  <speed>0.792464510246358</speed>
  <fix>3d</fix>
</trkpt>
<trkpt lat="33.810669" lon="-118.3938292">
  <ele>-25.218</ele>
  <time>2026-09-02T22:11:31Z</time>
  <course>19.89</course>
  <speed>0.792464510246358</speed>
  <fix>3d</fix>
</trkpt>
<trkpt lat="33.810669" lon="-118.3938291">
  <ele>-25.218</ele>
  <time>2026-09-02T22:11:32Z</time>
  <course>19.89</course>
  <speed>0.792464510246358</speed>
  <fix>3d</fix>
</trkpt>
<trkpt lat="33.8106681" lon="-118.3938307">
  <ele>-24.61</ele>
  <time>2026-09-02T22:11:32Z</time>
  <course>44.79</course>
  <speed>0.8</speed>
  <fix>3d</fix>
</trkpt>
<trkpt lat="33.810669" lon="-118.3938291">
  <ele>-25.218</ele>
  <time>2026-09-02T22:11:32Z</time>
  <course>19.89</course>
  <speed>0.792464510246358</speed>
  <fix>3d</fix>
</trkpt>
<trkpt lat="33.8106691" lon="-118.393829">
  <ele>-25.218</ele>
  <time>2026-09-02T22:11:32Z</time>
  <course>19.89</course>
  <speed>0.792464510246358</speed>
  <fix>3d</fix>
</trkpt>
<trkpt lat="33.8106691" lon="-118.393829">
  <ele>-25.218</ele>
  <time>2026-09-02T22:11:32Z</time>
  <course>19.89</course>
  <speed>0.792464510246358</speed>
  <fix>3d</fix>
</trkpt>
<trkpt lat="33.8106692" lon="-118.3938289">
  <ele>-25.217</ele>
  <time>2026-09-02T22:11:32Z</time>
  <course>19.89</course>
  <speed>0.792464510246358</speed>
  <fix>3d</fix>
</trkpt>
<trkpt lat="33.8106692" lon="-118.3938289">
  <ele>-25.217</ele>
  <time>2026-09-02T22:11:32Z</time>
  <course>19.89</course>
  <speed>0.792464510246358</speed>
  <fix>3d</fix>
</trkpt>
<trkpt lat="33.8106693" lon="-118.3938288">
  <ele>-25.217</ele>
  <time>2026-09-02T22:11:32Z</time>
  <course>19.89</course>
  <speed>0.792464510246358</speed>
  <fix>3d</fix>
</trkpt>
<trkpt lat="33.8106693" lon="-118.3938288">
  <ele>-25.217</ele>
  <time>2026-09-02T22:11:32Z</time>
  <course>19.89</course>
  <speed>0.792464510246358</speed>
  <fix>3d</fix>
</trkpt>
<trkpt lat="33.8106694" lon="-118.3938287">
  <ele>-25.217</ele>
  <time>2026-09-02T22:11:32Z</time>
  <course>19.89</course>
  <speed>0.792464510246358</speed>
  <fix>3d</fix>
</trkpt>
<trkpt lat="33.8106694" lon="-118.3938287">
  <ele>-25.217</ele>
  <time>2026-09-02T22:11:32Z</time>
  <course>19.89</course>
  <speed>0.792464510246358</speed>
  <fix>3d</fix>
</trkpt>
<trkpt lat="33.8106694" lon="-118.3938286">
  <ele>-25.217</ele>
  <time>2026-09-02T22:11:32Z</time>
  <course>19.89</course>
  <speed>0.792464510246358</speed>
  <fix>3d</fix>
</trkpt>
<trkpt lat="33.8106695" lon="-118.3938286">
  <ele>-25.217</ele>
  <time>2026-09-02T22:11:32Z</time>
  <course>19.89</course>
  <speed>0.792464510246358</speed>
  <fix>3d</fix>
</trkpt>
<trkpt lat="33.8106695" lon="-118.3938285">
  <ele>-25.217</ele>
  <time>2026-09-02T22:11:32Z</time>
  <course>19.89</course>
  <speed>0.792464510246358</speed>
  <fix>3d</fix>
</trkpt>
<trkpt lat="33.8106695" lon="-118.3938285">
  <ele>-25.217</ele>
  <time>2026-09-02T22:11:32Z</time>
  <course>19.89</course>
  <speed>0.792464510246358</speed>
  <fix>3d</fix>
</trkpt>
<trkpt lat="33.8106692" lon="-118.3938294">
  <ele>-24.6</ele>
  <time>2026-09-02T22:11:32Z</time>
  <course>44.76</course>
  <speed>0.8</speed>
  <fix>3d</fix>
</trkpt>
<trkpt lat="33.8106696" lon="-118.3938285">
  <ele>-25.217</ele>
  <time>2026-09-02T22:11:32Z</time>
  <course>19.89</course>
  <speed>0.792464510246358</speed>
  <fix>3d</fix>
</trkpt>
<trkpt lat="33.8106696" lon="-118.3938284">
  <ele>-25.217</ele>
  <time>2026-09-02T22:11:32Z</time>
  <course>19.89</course>
  <speed>0.792464510246358</speed>
  <fix>3d</fix>
</trkpt>
<trkpt lat="33.8106697" lon="-118.3938284">
  <ele>-25.217</ele>
  <time>2026-09-02T22:11:32Z</time>
  <course>19.89</course>
  <speed>0.792464510246358</speed>
  <fix>3d</fix>
</trkpt>
<trkpt lat="33.8106697" lon="-118.3938283">
  <ele>-25.217</ele>
  <time>2026-09-02T22:11:32Z</time>
  <course>19.89</course>
  <speed>0.792464510246358</speed>
  <fix>3d</fix>
</trkpt>
<trkpt lat="33.8106698" lon="-118.3938282">
  <ele>-25.217</ele>
  <time>2026-09-02T22:11:32Z</time>
  <course>19.89</course>
  <speed>0.792464510246358</speed>
  <fix>3d</fix>
</trkpt>
<trkpt lat="33.8106698" lon="-118.3938282">
  <ele>-25.216</ele>
  <time>2026-09-02T22:11:32Z</time>
  <course>19.89</course>
  <speed>0.792464510246358</speed>
  <fix>3d</fix>
</trkpt>
<trkpt lat="33.8106699" lon="-118.3938281">
  <ele>-25.216</ele>
  <time>2026-09-02T22:11:32Z</time>
  <course>19.89</course>
  <speed>0.792464510246358</speed>
  <fix>3d</fix>
</trkpt>
<trkpt lat="33.8106699" lon="-118.3938281">
  <ele>-25.216</ele>
  <time>2026-09-02T22:11:32Z</time>
  <course>19.89</course>
  <speed>0.792464510246358</speed>
  <fix>3d</fix>
</trkpt>
<trkpt lat="33.8106699" lon="-118.393828">
  <ele>-25.216</ele>
  <time>2026-09-02T22:11:32Z</time>
  <course>19.89</course>
  <speed>0.792464510246358</speed>
  <fix>3d</fix>
</trkpt>
<trkpt lat="33.81067" lon="-118.393828">
  <ele>-25.216</ele>
  <time>2026-09-02T22:11:32Z</time>
  <course>19.89</course>
  <speed>0.792464510246358</speed>
  <fix>3d</fix>
</trkpt>
<trkpt lat="33.81067" lon="-118.3938279">
  <ele>-25.216</ele>
  <time>2026-09-02T22:11:32Z</time>
  <course>19.89</course>
  <speed>0.792464510246358</speed>
  <fix>3d</fix>
</trkpt>
<trkpt lat="33.8106701" lon="-118.3938279">
  <ele>-25.216</ele>
  <time>2026-09-02T22:11:32Z</time>
  <course>19.89</course>
  <speed>0.792464510246358</speed>
  <fix>3d</fix>
</trkpt>
<trkpt lat="33.8106701" lon="-118.3938279">
  <ele>-25.216</ele>
  <time>2026-09-02T22:11:32Z</time>
  <course>19.89</course>
  <speed>0.792464510246358</speed>
  <fix>3d</fix>
</trkpt>
<trkpt lat="33.8106692" lon="-118.3938294">
  <ele>-24.6</ele>
  <time>2026-09-02T22:11:32Z</time>
  <course>44.76</course>
  <speed>0.8</speed>
  <fix>3d</fix>
</trkpt>
<trkpt lat="33.8106701" lon="-118.3938278">
  <ele>-25.216</ele>
  <time>2026-09-02T22:11:32Z</time>
  <course>19.89</course>
  <speed>0.792464510246358</speed>
  <fix>3d</fix>
</trkpt>
<trkpt lat="33.8106702" lon="-118.3938277">
  <ele>-25.216</ele>
  <time>2026-09-02T22:11:32Z</time>
  <course>19.89</course>
  <speed>0.792464510246358</speed>
  <fix>3d</fix>
</trkpt>
<trkpt lat="33.8106702" lon="-118.3938277">
  <ele>-25.216</ele>
  <time>2026-09-02T22:11:32Z</time>
  <course>19.89</course>
  <speed>0.792464510246358</speed>
  <fix>3d</fix>
</trkpt>
<trkpt lat="33.8106703" lon="-118.3938276">
  <ele>-25.216</ele>
  <time>2026-09-02T22:11:32Z</time>
  <course>19.89</course>
  <speed>0.792464510246358</speed>
  <fix>3d</fix>
</trkpt>
<trkpt lat="33.8106703" lon="-118.3938276">
  <ele>-25.216</ele>
  <time>2026-09-02T22:11:32Z</time>
  <course>19.89</course>
  <speed>0.792464510246358</speed>
  <fix>3d</fix>
</trkpt>
<trkpt lat="33.8106704" lon="-118.3938275">
  <ele>-25.216</ele>
  <time>2026-09-02T22:11:32Z</time>
  <course>19.89</course>
  <speed>0.792464510246358</speed>
  <fix>3d</fix>
</trkpt>
<trkpt lat="33.8106704" lon="-118.3938275">
  <ele>-25.215</ele>
  <time>2026-09-02T22:11:32Z</time>
  <course>19.89</course>
  <speed>0.792464510246358</speed>
  <fix>3d</fix>
</trkpt>
<trkpt lat="33.8106704" lon="-118.3938274">
  <ele>-25.215</ele>
  <time>2026-09-02T22:11:32Z</time>
  <course>19.89</course>
  <speed>0.792464510246358</speed>
  <fix>3d</fix>
</trkpt>
<trkpt lat="33.8106705" lon="-118.3938274">
  <ele>-25.215</ele>
  <time>2026-09-02T22:11:32Z</time>
  <course>19.89</course>
  <speed>0.792464510246358</speed>
  <fix>3d</fix>
</trkpt>
<trkpt lat="33.8106705" lon="-118.3938273">
  <ele>-25.215</ele>
  <time>2026-09-02T22:11:32Z</time>
  <course>19.89</course>
  <speed>0.792464510246358</speed>
  <fix>3d</fix>
</trkpt>
<trkpt lat="33.8106706" lon="-118.3938273">
  <ele>-25.214</ele>
  <time>2026-09-02T22:11:32Z</time>
  <course>19.89</course>
  <speed>0.792464510246358</speed>
  <fix>3d</fix>
</trkpt>
<trkpt lat="33.8106706" lon="-118.3938273">
  <ele>-25.214</ele>
  <time>2026-09-02T22:11:32Z</time>
  <course>19.89</course>
  <speed>0.792464510246358</speed>
  <fix>3d</fix>
</trkpt>
<trkpt lat="33.8106701" lon="-118.3938282">
  <ele>-24.6</ele>
  <time>2026-09-02T22:11:32Z</time>
  <course>44.76</course>
  <speed>0.8</speed>
  <fix>3d</fix>
</trkpt>
<trkpt lat="33.8106706" lon="-118.3938273">
  <ele>-25.214</ele>
  <time>2026-09-02T22:11:32Z</time>
  <course>19.89</course>
  <speed>0.792464510246358</speed>
  <fix>3d</fix>
</trkpt>
<trkpt lat="33.8106707" lon="-118.3938272">
  <ele>-25.214</ele>
  <time>2026-09-02T22:11:32Z</time>
  <course>19.89</course>
  <speed>0.792464510246358</speed>
  <fix>3d</fix>
</trkpt>
<trkpt lat="33.8106707" lon="-118.3938271">
  <ele>-25.214</ele>
  <time>2026-09-02T22:11:32Z</time>
  <course>19.89</course>
  <speed>0.792464510246358</speed>
  <fix>3d</fix>
</trkpt>
<trkpt lat="33.8106707" lon="-118.3938271">
  <ele>-25.214</ele>
  <time>2026-09-02T22:11:32Z</time>
  <course>19.89</course>
  <speed>0.792464510246358</speed>
  <fix>3d</fix>
</trkpt>
<trkpt lat="33.8106708" lon="-118.393827">
  <ele>-25.213</ele>
  <time>2026-09-02T22:11:32Z</time>
  <course>19.89</course>
  <speed>0.792464510246358</speed>
  <fix>3d</fix>
</trkpt>
<trkpt lat="33.8106708" lon="-118.393827">
  <ele>-25.213</ele>
  <time>2026-09-02T22:11:32Z</time>
  <course>19.89</course>
  <speed>0.792464510246358</speed>
  <fix>3d</fix>
</trkpt>
<trkpt lat="33.8106709" lon="-118.3938269">
  <ele>-25.213</ele>
  <time>2026-09-02T22:11:32Z</time>
  <course>19.89</course>
  <speed>0.792464510246358</speed>
  <fix>3d</fix>
</trkpt>
<trkpt lat="33.8106709" lon="-118.3938269">
  <ele>-25.213</ele>
  <time>2026-09-02T22:11:32Z</time>
  <course>19.89</course>
  <speed>0.792464510246358</speed>
  <fix>3d</fix>
</trkpt>
<trkpt lat="33.810671" lon="-118.3938268">
  <ele>-25.212</ele>
  <time>2026-09-02T22:11:32Z</time>
  <course>19.89</course>
  <speed>0.792464510246358</speed>
  <fix>3d</fix>
</trkpt>
<trkpt lat="33.810671" lon="-118.3938268">
  <ele>-25.212</ele>
  <time>2026-09-02T22:11:32Z</time>
  <course>19.89</course>
  <speed>0.792464510246358</speed>
  <fix>3d</fix>
</trkpt>
<trkpt lat="33.810671" lon="-118.3938267">
  <ele>-25.212</ele>
  <time>2026-09-02T22:11:32Z</time>
  <course>19.89</course>
  <speed>0.792464510246358</speed>
  <fix>3d</fix>
</trkpt>
<trkpt lat="33.8106711" lon="-118.3938267">
  <ele>-25.211</ele>
  <time>2026-09-02T22:11:32Z</time>
  <course>19.89</course>
  <speed>0.792464510246358</speed>
  <fix>3d</fix>
</trkpt>
<trkpt lat="33.8106711" lon="-118.3938266">
  <ele>-25.211</ele>
  <time>2026-09-02T22:11:32Z</time>
  <course>19.89</course>
  <speed>0.792464510246358</speed>
  <fix>3d</fix>
</trkpt>
<trkpt lat="33.8106701" lon="-118.3938282">
  <ele>-24.6</ele>
  <time>2026-09-02T22:11:32Z</time>
  <course>44.76</course>
  <speed>0.8</speed>
  <fix>3d</fix>
</trkpt>
<trkpt lat="33.8106711" lon="-118.3938266">
  <ele>-25.211</ele>
  <time>2026-09-02T22:11:32Z</time>
  <course>19.89</course>
  <speed>0.792464510246358</speed>
  <fix>3d</fix>
</trkpt>
<trkpt lat="33.8106712" lon="-118.3938265">
  <ele>-25.21</ele>
  <time>2026-09-02T22:11:32Z</time>
  <course>19.89</course>
  <speed>0.792464510246358</speed>
  <fix>3d</fix>
</trkpt>
<trkpt lat="33.8106712" lon="-118.3938265">
  <ele>-25.21</ele>
  <time>2026-09-02T22:11:32Z</time>
  <course>19.89</course>
  <speed>0.792464510246358</speed>
  <fix>3d</fix>
</trkpt>
<trkpt lat="33.8106713" lon="-118.3938264">
  <ele>-25.21</ele>
  <time>2026-09-02T22:11:32Z</time>
  <course>19.89</course>
  <speed>0.792464510246358</speed>
  <fix>3d</fix>
</trkpt>
<trkpt lat="33.8106713" lon="-118.3938264">
  <ele>-25.21</ele>
  <time>2026-09-02T22:11:32Z</time>
  <course>19.89</course>
  <speed>0.792464510246358</speed>
  <fix>3d</fix>
</trkpt>
<trkpt lat="33.8106713" lon="-118.3938264">
  <ele>-25.209</ele>
  <time>2026-09-02T22:11:32Z</time>
  <course>19.89</course>
  <speed>0.792464510246358</speed>
  <fix>3d</fix>
</trkpt>
<trkpt lat="33.8106714" lon="-118.3938263">
  <ele>-25.209</ele>
  <time>2026-09-02T22:11:32Z</time>
  <course>19.89</course>
  <speed>0.7993122043357026</speed>
  <fix>3d</fix>
</trkpt>
<trkpt lat="33.8106714" lon="-118.3938263">
  <ele>-25.209</ele>
  <time>2026-09-02T22:11:32Z</time>
  <course>19.89</course>
  <speed>0.7993122043357026</speed>
  <fix>3d</fix>
</trkpt>
<trkpt lat="33.8106714" lon="-118.3938262">
  <ele>-25.209</ele>
  <time>2026-09-02T22:11:32Z</time>
  <course>19.89</course>
  <speed>0.7993122043357026</speed>
  <fix>3d</fix>
</trkpt>
<trkpt lat="33.8106715" lon="-118.3938262">
  <ele>-25.208</ele>
  <time>2026-09-02T22:11:32Z</time>
  <course>19.9</course>
  <speed>0.7993122043357026</speed>
  <fix>3d</fix>
</trkpt>
<trkpt lat="33.8106715" lon="-118.3938261">
  <ele>-25.208</ele>
  <time>2026-09-02T22:11:32Z</time>
  <course>19.9</course>
  <speed>0.7993122043357026</speed>
  <fix>3d</fix>
</trkpt>
<trkpt lat="33.8106716" lon="-118.3938261">
  <ele>-25.208</ele>
  <time>2026-09-02T22:11:32Z</time>
  <course>19.9</course>
  <speed>0.7993122043357026</speed>
  <fix>3d</fix>
</trkpt>
<trkpt lat="33.8106716" lon="-118.393826">
  <ele>-25.207</ele>
  <time>2026-09-02T22:11:32Z</time>
  <course>19.9</course>
  <speed>0.7993122043357026</speed>
  <fix>3d</fix>
</trkpt>
<trkpt lat="33.8106716" lon="-118.393826">
  <ele>-25.207</ele>
  <time>2026-09-02T22:11:32Z</time>
  <course>19.9</course>
  <speed>0.7993122043357026</speed>
  <fix>3d</fix>
</trkpt>
<trkpt lat="33.8106712" lon="-118.3938269">
  <ele>-24.6</ele>
  <time>2026-09-02T22:11:32Z</time>
  <course>44.73</course>
  <speed>0.81</speed>
  <fix>3d</fix>
</trkpt>
<trkpt lat="33.8106716" lon="-118.393826">
  <ele>-25.207</ele>
  <time>2026-09-02T22:11:32Z</time>
  <course>19.9</course>
  <speed>0.7993122043357026</speed>
  <fix>3d</fix>
</trkpt>
<trkpt lat="33.8106719" lon="-118.3938257">
  <ele>-25.205</ele>
  <time>2026-09-02T22:11:32Z</time>
  <course>19.9</course>
  <speed>0.7993122043357026</speed>
  <fix>3d</fix>
</trkpt>
<trkpt lat="33.8106719" lon="-118.3938257">
  <ele>-25.205</ele>
  <time>2026-09-02T22:11:32Z</time>
  <course>19.9</course>
  <speed>0.7993122043357026</speed>
  <fix>3d</fix>
</trkpt>
<trkpt lat="33.810672" lon="-118.3938256">
  <ele>-25.205</ele>
  <time>2026-09-02T22:11:32Z</time>
  <course>19.9</course>
  <speed>0.7993122043357026</speed>
  <fix>3d</fix>
</trkpt>
<trkpt lat="33.810672" lon="-118.3938256">
  <ele>-25.204</ele>
  <time>2026-09-02T22:11:32Z</time>
  <course>19.9</course>
  <speed>0.7993122043357026</speed>
  <fix>3d</fix>
</trkpt>
<trkpt lat="33.810672" lon="-118.3938255">
  <ele>-25.204</ele>
  <time>2026-09-02T22:11:32Z</time>
  <course>19.9</course>
  <speed>0.7993122043357026</speed>
  <fix>3d</fix>
</trkpt>
<trkpt lat="33.8106721" lon="-118.3938255">
  <ele>-25.204</ele>
  <time>2026-09-02T22:11:32Z</time>
  <course>19.9</course>
  <speed>0.7993122043357026</speed>
  <fix>3d</fix>
</trkpt>
<trkpt lat="33.8106721" lon="-118.3938254">
  <ele>-25.203</ele>
  <time>2026-09-02T22:11:32Z</time>
  <course>19.9</course>
  <speed>0.7993122043357026</speed>
  <fix>3d</fix>
</trkpt>
<trkpt lat="33.8106721" lon="-118.3938254">
  <ele>-25.203</ele>
  <time>2026-09-02T22:11:32Z</time>
  <course>19.9</course>
  <speed>0.7993122043357026</speed>
  <fix>3d</fix>
</trkpt>
<trkpt lat="33.8106712" lon="-118.3938269">
  <ele>-24.6</ele>
  <time>2026-09-02T22:11:32Z</time>
  <course>44.73</course>
  <speed>0.81</speed>
  <fix>3d</fix>
</trkpt>
<trkpt lat="33.8106722" lon="-118.3938254">
  <ele>-25.203</ele>
  <time>2026-09-02T22:11:32Z</time>
  <course>19.9</course>
  <speed>0.7993122043357026</speed>
  <fix>3d</fix>
</trkpt>
<trkpt lat="33.8106722" lon="-118.3938253">
  <ele>-25.203</ele>
  <time>2026-09-02T22:11:32Z</time>
  <course>19.9</course>
  <speed>0.7993122043357026</speed>
  <fix>3d</fix>
</trkpt>
<trkpt lat="33.8106722" lon="-118.3938253">
  <ele>-25.203</ele>
  <time>2026-09-02T22:11:32Z</time>
  <course>19.9</course>
  <speed>0.7993122043357026</speed>
  <fix>3d</fix>
</trkpt>
<trkpt lat="33.8106723" lon="-118.3938252">
  <ele>-25.202</ele>
  <time>2026-09-02T22:11:32Z</time>
  <course>19.9</course>
  <speed>0.7993122043357026</speed>
  <fix>3d</fix>
</trkpt>
<trkpt lat="33.8106723" lon="-118.3938252">
  <ele>-25.202</ele>
  <time>2026-09-02T22:11:32Z</time>
  <course>19.9</course>
  <speed>0.7993122043357026</speed>
  <fix>3d</fix>
</trkpt>
<trkpt lat="33.8106724" lon="-118.3938251">
  <ele>-25.202</ele>
  <time>2026-09-02T22:11:32Z</time>
  <course>19.9</course>
  <speed>0.7993122043357026</speed>
  <fix>3d</fix>
</trkpt>
<trkpt lat="33.8106724" lon="-118.3938251">
  <ele>-25.202</ele>
  <time>2026-09-02T22:11:32Z</time>
  <course>19.9</course>
  <speed>0.7993122043357026</speed>
  <fix>3d</fix>
</trkpt>
<trkpt lat="33.8106724" lon="-118.3938251">
  <ele>-25.201</ele>
  <time>2026-09-02T22:11:32Z</time>
  <course>19.9</course>
  <speed>0.7993122043357026</speed>
  <fix>3d</fix>
</trkpt>
<trkpt lat="33.8106725" lon="-118.393825">
  <ele>-25.201</ele>
  <time>2026-09-02T22:11:32Z</time>
  <course>19.9</course>
  <speed>0.7993122043357026</speed>
  <fix>3d</fix>
</trkpt>
<trkpt lat="33.8106725" lon="-118.393825">
  <ele>-25.201</ele>
  <time>2026-09-02T22:11:32Z</time>
  <course>19.9</course>
  <speed>0.7993122043357026</speed>
  <fix>3d</fix>
</trkpt>
<trkpt lat="33.8106725" lon="-118.3938249">
  <ele>-25.2</ele>
  <time>2026-09-02T22:11:32Z</time>
  <course>19.9</course>
  <speed>0.7993122043357026</speed>
  <fix>3d</fix>
</trkpt>
<trkpt lat="33.8106726" lon="-118.3938249">
  <ele>-25.2</ele>
  <time>2026-09-02T22:11:32Z</time>
  <course>19.9</course>
  <speed>0.7993122043357026</speed>
  <fix>3d</fix>
</trkpt>
<trkpt lat="33.8106726" lon="-118.3938248">
  <ele>-25.2</ele>
  <time>2026-09-02T22:11:32Z</time>
  <course>19.9</course>
  <speed>0.7993122043357026</speed>
  <fix>3d</fix>
</trkpt>
<trkpt lat="33.8106727" lon="-118.3938248">
  <ele>-25.199</ele>
  <time>2026-09-02T22:11:32Z</time>
  <course>19.9</course>
  <speed>0.7993122043357026</speed>
  <fix>3d</fix>
</trkpt>
<trkpt lat="33.8106727" lon="-118.3938248">
  <ele>-25.199</ele>
  <time>2026-09-02T22:11:32Z</time>
  <course>19.9</course>
  <speed>0.7993122043357026</speed>
  <fix>3d</fix>
</trkpt>
<trkpt lat="33.8106723" lon="-118.3938258">
  <ele>-24.59</ele>
  <time>2026-09-02T22:11:32Z</time>
  <course>44.67</course>
  <speed>0.81</speed>
  <fix>3d</fix>
</trkpt>
<trkpt lat="33.8106727" lon="-118.3938247">
  <ele>-25.199</ele>
  <time>2026-09-02T22:11:32Z</time>
  <course>19.9</course>
  <speed>0.8065977932030313</speed>
  <fix>3d</fix>
</trkpt>
<trkpt lat="33.8106728" lon="-118.3938246">
  <ele>-25.199</ele>
  <time>2026-09-02T22:11:32Z</time>
  <course>19.9</course>
  <speed>0.8065977932030313</speed>
  <fix>3d</fix>
</trkpt>
<trkpt lat="33.8106728" lon="-118.3938246">
  <ele>-25.198</ele>
  <time>2026-09-02T22:11:32Z</time>
  <course>19.9</course>
  <speed>0.8065977932030313</speed>
  <fix>3d</fix>
</trkpt>
<trkpt lat="33.8106729" lon="-118.3938245">
  <ele>-25.198</ele>
  <time>2026-09-02T22:11:32Z</time>
  <course>19.9</course>
  <speed>0.8065977932030313</speed>
  <fix>3d</fix>
</trkpt>
<trkpt lat="33.8106729" lon="-118.3938245">
  <ele>-25.198</ele>
  <time>2026-09-02T22:11:32Z</time>
  <course>19.9</course>
  <speed>0.8065977932030313</speed>
  <fix>3d</fix>
</trkpt>
<trkpt lat="33.810673" lon="-118.3938244">
  <ele>-25.198</ele>
  <time>2026-09-02T22:11:32Z</time>
  <course>19.9</course>
  <speed>0.8065977932030313</speed>
  <fix>3d</fix>
</trkpt>
<trkpt lat="33.810673" lon="-118.3938244">
  <ele>-25.197</ele>
  <time>2026-09-02T22:11:32Z</time>
  <course>19.9</course>
  <speed>0.8065977932030313</speed>
  <fix>3d</fix>
</trkpt>
<trkpt lat="33.8106731" lon="-118.3938243">
  <ele>-25.197</ele>
  <time>2026-09-02T22:11:32Z</time>
  <course>19.9</course>
  <speed>0.8065977932030313</speed>
  <fix>3d</fix>
</trkpt>
<trkpt lat="33.8106731" lon="-118.3938243">
  <ele>-25.197</ele>
  <time>2026-09-02T22:11:32Z</time>
  <course>19.9</course>
  <speed>0.8065977932030313</speed>
  <fix>3d</fix>
</trkpt>
<trkpt lat="33.8106731" lon="-118.3938242">
  <ele>-25.197</ele>
  <time>2026-09-02T22:11:32Z</time>
  <course>19.9</course>
  <speed>0.8065977932030313</speed>
  <fix>3d</fix>
</trkpt>
<trkpt lat="33.8106732" lon="-118.3938242">
  <ele>-25.196</ele>
  <time>2026-09-02T22:11:32Z</time>
  <course>19.9</course>
  <speed>0.8065977932030313</speed>
  <fix>3d</fix>
</trkpt>
<trkpt lat="33.8106732" lon="-118.3938241">
  <ele>-25.196</ele>
  <time>2026-09-02T22:11:32Z</time>
  <course>19.9</course>
  <speed>0.8065977932030313</speed>
  <fix>3d</fix>
</trkpt>
<trkpt lat="33.8106723" lon="-118.3938258">
  <ele>-24.59</ele>
  <time>2026-09-02T22:11:32Z</time>
  <course>44.67</course>
  <speed>0.81</speed>
  <fix>3d</fix>
</trkpt>
<trkpt lat="33.8106732" lon="-118.3938241">
  <ele>-25.196</ele>
  <time>2026-09-02T22:11:32Z</time>
  <course>19.9</course>
  <speed>0.8065977932030313</speed>
  <fix>3d</fix>
</trkpt>
<trkpt lat="33.8106733" lon="-118.393824">
  <ele>-25.196</ele>
  <time>2026-09-02T22:11:32Z</time>
  <course>19.9</course>
  <speed>0.8065977932030313</speed>
  <fix>3d</fix>
</trkpt>
<trkpt lat="33.8106733" lon="-118.393824">
  <ele>-25.196</ele>
  <time>2026-09-02T22:11:32Z</time>
  <course>19.9</course>
  <speed>0.8065977932030313</speed>
  <fix>3d</fix>
</trkpt>
<trkpt lat="33.8106734" lon="-118.3938239">
  <ele>-25.195</ele>
  <time>2026-09-02T22:11:32Z</time>
  <course>19.9</course>
  <speed>0.8065977932030313</speed>
  <fix>3d</fix>
</trkpt>
<trkpt lat="33.8106734" lon="-118.3938239">
  <ele>-25.195</ele>
  <time>2026-09-02T22:11:32Z</time>
  <course>19.9</course>
  <speed>0.8065977932030313</speed>
  <fix>3d</fix>
</trkpt>
<trkpt lat="33.8106734" lon="-118.3938238">
  <ele>-25.195</ele>
  <time>2026-09-02T22:11:32Z</time>
  <course>19.9</course>
  <speed>0.8065977932030313</speed>
  <fix>3d</fix>
</trkpt>
<trkpt lat="33.8106735" lon="-118.3938238">
  <ele>-25.195</ele>
  <time>2026-09-02T22:11:32Z</time>
  <course>19.9</course>
  <speed>0.8065977932030313</speed>
  <fix>3d</fix>
</trkpt>
<trkpt lat="33.8106735" lon="-118.3938238">
  <ele>-25.195</ele>
  <time>2026-09-02T22:11:32Z</time>
  <course>19.9</course>
  <speed>0.8065977932030313</speed>
  <fix>3d</fix>
</trkpt>
<trkpt lat="33.8106736" lon="-118.3938237">
  <ele>-25.195</ele>
  <time>2026-09-02T22:11:32Z</time>
  <course>19.9</course>
  <speed>0.8065977932030313</speed>
  <fix>3d</fix>
</trkpt>
<trkpt lat="33.8106736" lon="-118.3938236">
  <ele>-25.195</ele>
  <time>2026-09-02T22:11:32Z</time>
  <course>19.9</course>
  <speed>0.8065977932030313</speed>
  <fix>3d</fix>
</trkpt>
<trkpt lat="33.8106737" lon="-118.3938236">
  <ele>-25.195</ele>
  <time>2026-09-02T22:11:32Z</time>
  <course>19.9</course>
  <speed>0.8065977932030313</speed>
  <fix>3d</fix>
</trkpt>
<trkpt lat="33.8106737" lon="-118.3938235">
  <ele>-25.195</ele>
  <time>2026-09-02T22:11:32Z</time>
  <course>19.9</course>
  <speed>0.8065977932030313</speed>
  <fix>3d</fix>
</trkpt>
<trkpt lat="33.8106737" lon="-118.3938235">
  <ele>-25.195</ele>
  <time>2026-09-02T22:11:32Z</time>
  <course>19.9</course>
  <speed>0.8065977932030313</speed>
  <fix>3d</fix>
</trkpt>
<trkpt lat="33.8106733" lon="-118.3938245">
  <ele>-24.59</ele>
  <time>2026-09-02T22:11:32Z</time>
  <course>44.68</course>
  <speed>0.81</speed>
  <fix>3d</fix>
</trkpt>
<trkpt lat="33.8106737" lon="-118.3938235">
  <ele>-25.195</ele>
  <time>2026-09-02T22:11:32Z</time>
  <course>19.9</course>
  <speed>0.8065977932030313</speed>
  <fix>3d</fix>
</trkpt>
<trkpt lat="33.8106738" lon="-118.3938234">
  <ele>-25.195</ele>
  <time>2026-09-02T22:11:32Z</time>
  <course>19.9</course>
  <speed>0.8065977932030313</speed>
  <fix>3d</fix>
</trkpt>
<trkpt lat="33.8106739" lon="-118.3938234">
  <ele>-25.195</ele>
  <time>2026-09-02T22:11:32Z</time>
  <course>19.9</course>
  <speed>0.8065977932030313</speed>
  <fix>3d</fix>
</trkpt>
<trkpt lat="33.8106739" lon="-118.3938233">
  <ele>-25.195</ele>
  <time>2026-09-02T22:11:32Z</time>
  <course>19.9</course>
  <speed>0.8065977932030313</speed>
  <fix>3d</fix>
</trkpt>
<trkpt lat="33.8106739" lon="-118.3938233">
  <ele>-25.195</ele>
  <time>2026-09-02T22:11:32Z</time>
  <course>19.9</course>
  <speed>0.8065977932030313</speed>
  <fix>3d</fix>
</trkpt>
<trkpt lat="33.810674" lon="-118.3938232">
  <ele>-25.195</ele>
  <time>2026-09-02T22:11:32Z</time>
  <course>19.91</course>
  <speed>0.8065977932030313</speed>
  <fix>3d</fix>
</trkpt>
<trkpt lat="33.810674" lon="-118.3938232">
  <ele>-25.195</ele>
  <time>2026-09-02T22:11:32Z</time>
  <course>19.91</course>
  <speed>0.8065977932030313</speed>
  <fix>3d</fix>
</trkpt>
<trkpt lat="33.8106741" lon="-118.3938231">
  <ele>-25.195</ele>
  <time>2026-09-02T22:11:32Z</time>
  <course>19.91</course>
  <speed>0.8065977932030313</speed>
  <fix>3d</fix>
</trkpt>
<trkpt lat="33.8106741" lon="-118.3938231">
  <ele>-25.195</ele>
  <time>2026-09-02T22:11:32Z</time>
  <course>19.91</course>
  <speed>0.8065977932030313</speed>
  <fix>3d</fix>
</trkpt>
<trkpt lat="33.8106741" lon="-118.393823">
  <ele>-25.195</ele>
  <time>2026-09-02T22:11:32Z</time>
  <course>19.91</course>
  <speed>0.8065977932030313</speed>
  <fix>3d</fix>
</trkpt>
<trkpt lat="33.8106742" lon="-118.393823">
  <ele>-25.195</ele>
  <time>2026-09-02T22:11:32Z</time>
  <course>19.91</course>
  <speed>0.8065977932030313</speed>
  <fix>3d</fix>
</trkpt>
<trkpt lat="33.8106742" lon="-118.3938229">
  <ele>-25.196</ele>
  <time>2026-09-02T22:11:32Z</time>
  <course>19.91</course>
  <speed>0.8065977932030313</speed>
  <fix>3d</fix>
</trkpt>
<trkpt lat="33.8106742" lon="-118.3938229">
  <ele>-25.196</ele>
  <time>2026-09-02T22:11:32Z</time>
  <course>19.91</course>
  <speed>0.8065977932030313</speed>
  <fix>3d</fix>
</trkpt>
<trkpt lat="33.8106733" lon="-118.3938245">
  <ele>-24.59</ele>
  <time>2026-09-02T22:11:32Z</time>
  <course>44.68</course>
  <speed>0.81</speed>
  <fix>3d</fix>
</trkpt>
<trkpt lat="33.8106743" lon="-118.3938229">
  <ele>-25.196</ele>
  <time>2026-09-02T22:11:32Z</time>
  <course>19.91</course>
  <speed>0.8065977932030313</speed>
  <fix>3d</fix>
</trkpt>
<trkpt lat="33.8106743" lon="-118.3938228">
  <ele>-25.196</ele>
  <time>2026-09-02T22:11:32Z</time>
  <course>19.91</course>
  <speed>0.8065977932030313</speed>
  <fix>3d</fix>
</trkpt>
<trkpt lat="33.8106744" lon="-118.3938228">
  <ele>-25.196</ele>
  <time>2026-09-02T22:11:32Z</time>
  <course>19.91</course>
  <speed>0.8065977932030313</speed>
  <fix>3d</fix>
</trkpt>
<trkpt lat="33.8106744" lon="-118.3938227">
  <ele>-25.196</ele>
  <time>2026-09-02T22:11:32Z</time>
  <course>19.91</course>
  <speed>0.8065977932030313</speed>
  <fix>3d</fix>
</trkpt>
<trkpt lat="33.8106744" lon="-118.3938227">
  <ele>-25.196</ele>
  <time>2026-09-02T22:11:32Z</time>
  <course>19.9</course>
  <speed>0.8065977932030313</speed>
  <fix>3d</fix>
</trkpt>
<trkpt lat="33.8106745" lon="-118.3938226">
  <ele>-25.196</ele>
  <time>2026-09-02T22:11:32Z</time>
  <course>19.9</course>
  <speed>0.8065977932030313</speed>
  <fix>3d</fix>
</trkpt>
<trkpt lat="33.8106745" lon="-118.3938226">
  <ele>-25.196</ele>
  <time>2026-09-02T22:11:32Z</time>
  <course>19.9</course>
  <speed>0.8065977932030313</speed>
  <fix>3d</fix>
</trkpt>
<trkpt lat="33.8106745" lon="-118.3938225">
  <ele>-25.196</ele>
  <time>2026-09-02T22:11:32Z</time>
  <course>19.9</course>
  <speed>0.8065977932030313</speed>
  <fix>3d</fix>
</trkpt>
<trkpt lat="33.8106746" lon="-118.3938225">
  <ele>-25.196</ele>
  <time>2026-09-02T22:11:32Z</time>
  <course>19.9</course>
  <speed>0.8065977932030313</speed>
  <fix>3d</fix>
</trkpt>
<trkpt lat="33.8106746" lon="-118.3938224">
  <ele>-25.197</ele>
  <time>2026-09-02T22:11:32Z</time>
  <course>19.9</course>
  <speed>0.8065977932030313</speed>
  <fix>3d</fix>
</trkpt>
<trkpt lat="33.8106747" lon="-118.3938224">
  <ele>-25.197</ele>
  <time>2026-09-02T22:11:32Z</time>
  <course>19.9</course>
  <speed>0.8065977932030313</speed>
  <fix>3d</fix>
</trkpt>
<trkpt lat="33.8106747" lon="-118.3938223">
  <ele>-25.197</ele>
  <time>2026-09-02T22:11:32Z</time>
  <course>19.9</course>
  <speed>0.8065977932030313</speed>
  <fix>3d</fix>
</trkpt>
<trkpt lat="33.8106747" lon="-118.3938223">
  <ele>-25.197</ele>
  <time>2026-09-02T22:11:32Z</time>
  <course>19.9</course>
  <speed>0.8065977932030313</speed>
  <fix>3d</fix>
</trkpt>
<trkpt lat="33.8106748" lon="-118.3938223">
  <ele>-25.197</ele>
  <time>2026-09-02T22:11:32Z</time>
  <course>19.9</course>
  <speed>0.8065977932030313</speed>
  <fix>3d</fix>
</trkpt>
<trkpt lat="33.8106743" lon="-118.3938233">
  <ele>-24.59</ele>
  <time>2026-09-02T22:11:32Z</time>
  <course>44.75</course>
  <speed>0.81</speed>
  <fix>3d</fix>
</trkpt>
<trkpt lat="33.8106748" lon="-118.3938223">
  <ele>-25.197</ele>
  <time>2026-09-02T22:11:32Z</time>
  <course>19.9</course>
  <speed>0.8065977932030313</speed>
  <fix>3d</fix>
</trkpt>
<trkpt lat="33.8106748" lon="-118.3938222">
  <ele>-25.197</ele>
  <time>2026-09-02T22:11:32Z</time>
  <course>19.9</course>
  <speed>0.8065977932030313</speed>
  <fix>3d</fix>
</trkpt>
<trkpt lat="33.8106749" lon="-118.3938221">
  <ele>-25.198</ele>
  <time>2026-09-02T22:11:32Z</time>
  <course>19.9</course>
  <speed>0.8065977932030313</speed>
  <fix>3d</fix>
</trkpt>
<trkpt lat="33.8106749" lon="-118.3938221">
  <ele>-25.198</ele>
  <time>2026-09-02T22:11:32Z</time>
  <course>19.9</course>
  <speed>0.8065977932030313</speed>
  <fix>3d</fix>
</trkpt>
<trkpt lat="33.810675" lon="-118.393822">
  <ele>-25.198</ele>
  <time>2026-09-02T22:11:32Z</time>
  <course>19.91</course>
  <speed>0.8065977932030313</speed>
  <fix>3d</fix>
</trkpt>
<trkpt lat="33.810675" lon="-118.393822">
  <ele>-25.198</ele>
  <time>2026-09-02T22:11:32Z</time>
  <course>19.91</course>
  <speed>0.8065977932030313</speed>
  <fix>3d</fix>
</trkpt>
<trkpt lat="33.8106751" lon="-118.3938219">
  <ele>-25.198</ele>
  <time>2026-09-02T22:11:32Z</time>
  <course>19.91</course>
  <speed>0.8065977932030313</speed>
  <fix>3d</fix>
</trkpt>
<trkpt lat="33.8106751" lon="-118.3938219">
  <ele>-25.198</ele>
  <time>2026-09-02T22:11:32Z</time>
  <course>19.91</course>
  <speed>0.8065977932030313</speed>
  <fix>3d</fix>
</trkpt>
<trkpt lat="33.8106751" lon="-118.3938218">
  <ele>-25.198</ele>
  <time>2026-09-02T22:11:32Z</time>
  <course>19.91</course>
  <speed>0.8065977932030313</speed>
  <fix>3d</fix>
</trkpt>
<trkpt lat="33.8106752" lon="-118.3938218">
  <ele>-25.198</ele>
  <time>2026-09-02T22:11:32Z</time>
  <course>19.91</course>
  <speed>0.8065977932030313</speed>
  <fix>3d</fix>
</trkpt>
<trkpt lat="33.8106752" lon="-118.3938217">
  <ele>-25.198</ele>
  <time>2026-09-02T22:11:32Z</time>
  <course>19.91</course>
  <speed>0.8065977932030313</speed>
  <fix>3d</fix>
</trkpt>
<trkpt lat="33.8106753" lon="-118.3938217">
  <ele>-25.198</ele>
  <time>2026-09-02T22:11:32Z</time>
  <course>19.91</course>
  <speed>0.8065977932030313</speed>
  <fix>3d</fix>
</trkpt>
<trkpt lat="33.8106753" lon="-118.3938216">
  <ele>-25.198</ele>
  <time>2026-09-02T22:11:32Z</time>
  <course>19.91</course>
  <speed>0.8065977932030313</speed>
  <fix>3d</fix>
</trkpt>
<trkpt lat="33.8106743" lon="-118.3938233">
  <ele>-24.59</ele>
  <time>2026-09-02T22:11:32Z</time>
  <course>44.75</course>
  <speed>0.81</speed>
  <fix>3d</fix>
</trkpt>
<trkpt lat="33.8106753" lon="-118.3938216">
  <ele>-25.198</ele>
  <time>2026-09-02T22:11:32Z</time>
  <course>19.91</course>
  <speed>0.8065977932030313</speed>
  <fix>3d</fix>
</trkpt>
<trkpt lat="33.8106754" lon="-118.3938216">
  <ele>-25.198</ele>
  <time>2026-09-02T22:11:32Z</time>
  <course>19.91</course>
  <speed>0.8065977932030313</speed>
  <fix>3d</fix>
</trkpt>
<trkpt lat="33.8106754" lon="-118.3938215">
  <ele>-25.198</ele>
  <time>2026-09-02T22:11:32Z</time>
  <course>19.91</course>
  <speed>0.8065977932030313</speed>
  <fix>3d</fix>
</trkpt>
<trkpt lat="33.8106754" lon="-118.3938215">
  <ele>-25.198</ele>
  <time>2026-09-02T22:11:32Z</time>
  <course>19.91</course>
  <speed>0.8065977932030313</speed>
  <fix>3d</fix>
</trkpt>
<trkpt lat="33.8106755" lon="-118.3938214">
  <ele>-25.198</ele>
  <time>2026-09-02T22:11:32Z</time>
  <course>19.91</course>
  <speed>0.8065977932030313</speed>
  <fix>3d</fix>
</trkpt>
<trkpt lat="33.8106755" lon="-118.3938214">
  <ele>-25.198</ele>
  <time>2026-09-02T22:11:32Z</time>
  <course>19.91</course>
  <speed>0.8065977932030313</speed>
  <fix>3d</fix>
</trkpt>
<trkpt lat="33.8106756" lon="-118.3938213">
  <ele>-25.198</ele>
  <time>2026-09-02T22:11:32Z</time>
  <course>19.91</course>
  <speed>0.8065977932030313</speed>
  <fix>3d</fix>
</trkpt>
<trkpt lat="33.8106756" lon="-118.3938213">
  <ele>-25.198</ele>
  <time>2026-09-02T22:11:32Z</time>
  <course>19.91</course>
  <speed>0.8065977932030313</speed>
  <fix>3d</fix>
</trkpt>
<trkpt lat="33.8106756" lon="-118.3938212">
  <ele>-25.198</ele>
  <time>2026-09-02T22:11:32Z</time>
  <course>19.91</course>
  <speed>0.8065977932030313</speed>
  <fix>3d</fix>
</trkpt>
<trkpt lat="33.8106757" lon="-118.3938212">
  <ele>-25.198</ele>
  <time>2026-09-02T22:11:32Z</time>
  <course>19.91</course>
  <speed>0.8065977932030313</speed>
  <fix>3d</fix>
</trkpt>
<trkpt lat="33.8106757" lon="-118.3938211">
  <ele>-25.198</ele>
  <time>2026-09-02T22:11:32Z</time>
  <course>19.91</course>
  <speed>0.8065977932030313</speed>
  <fix>3d</fix>
</trkpt>
<trkpt lat="33.8106758" lon="-118.3938211">
  <ele>-25.198</ele>
  <time>2026-09-02T22:11:32Z</time>
  <course>19.91</course>
  <speed>0.8065977932030313</speed>
  <fix>3d</fix>
</trkpt>
<trkpt lat="33.8106758" lon="-118.393821">
  <ele>-25.198</ele>
  <time>2026-09-02T22:11:32Z</time>
  <course>19.91</course>
  <speed>0.8065977932030313</speed>
  <fix>3d</fix>
</trkpt>
<trkpt lat="33.8106758" lon="-118.393821">
  <ele>-25.198</ele>
  <time>2026-09-02T22:11:32Z</time>
  <course>19.91</course>
  <speed>0.8065977932030313</speed>
  <fix>3d</fix>
</trkpt>
<trkpt lat="33.8106753" lon="-118.393822">
  <ele>-24.59</ele>
  <time>2026-09-02T22:11:32Z</time>
  <course>44.81</course>
  <speed>0.81</speed>
  <fix>3d</fix>
</trkpt>
<trkpt lat="33.8106758" lon="-118.393821">
  <ele>-25.198</ele>
  <time>2026-09-02T22:11:32Z</time>
  <course>19.91</course>
  <speed>0.8065977932030313</speed>
  <fix>3d</fix>
</trkpt>
<trkpt lat="33.8106759" lon="-118.3938209">
  <ele>-25.198</ele>
  <time>2026-09-02T22:11:32Z</time>
  <course>19.91</course>
  <speed>0.8065977932030313</speed>
  <fix>3d</fix>
</trkpt>
<trkpt lat="33.8106759" lon="-118.3938209">
  <ele>-25.198</ele>
  <time>2026-09-02T22:11:32Z</time>
  <course>19.91</course>
  <speed>0.8065977932030313</speed>
  <fix>3d</fix>
</trkpt>
<trkpt lat="33.810676" lon="-118.3938208">
  <ele>-25.198</ele>
  <time>2026-09-02T22:11:32Z</time>
  <course>19.91</course>
  <speed>0.8065977932030313</speed>
  <fix>3d</fix>
</trkpt>
<trkpt lat="33.810676" lon="-118.3938208">
  <ele>-25.198</ele>
  <time>2026-09-02T22:11:32Z</time>
  <course>19.91</course>
  <speed>0.8065977932030313</speed>
  <fix>3d</fix>
</trkpt>
<trkpt lat="33.8106761" lon="-118.3938207">
  <ele>-25.198</ele>
  <time>2026-09-02T22:11:32Z</time>
  <course>19.91</course>
  <speed>0.8065977932030313</speed>
  <fix>3d</fix>
</trkpt>
<trkpt lat="33.8106761" lon="-118.3938207">
  <ele>-25.198</ele>
  <time>2026-09-02T22:11:32Z</time>
  <course>19.91</course>
  <speed>0.8065977932030313</speed>
  <fix>3d</fix>
</trkpt>
<trkpt lat="33.8106761" lon="-118.3938206">
  <ele>-25.198</ele>
  <time>2026-09-02T22:11:32Z</time>
  <course>19.91</course>
  <speed>0.8065977932030313</speed>
  <fix>3d</fix>
</trkpt>
<trkpt lat="33.8106762" lon="-118.3938206">
  <ele>-25.198</ele>
  <time>2026-09-02T22:11:32Z</time>
  <course>19.9</course>
  <speed>0.8065977932030313</speed>
  <fix>3d</fix>
</trkpt>
<trkpt lat="33.8106762" lon="-118.3938205">
  <ele>-25.198</ele>
  <time>2026-09-02T22:11:32Z</time>
  <course>19.9</course>
  <speed>0.8065977932030313</speed>
  <fix>3d</fix>
</trkpt>
<trkpt lat="33.8106763" lon="-118.3938205">
  <ele>-25.198</ele>
  <time>2026-09-02T22:11:32Z</time>
  <course>19.9</course>
  <speed>0.8065977932030313</speed>
  <fix>3d</fix>
</trkpt>
<trkpt lat="33.8106763" lon="-118.3938204">
  <ele>-25.198</ele>
  <time>2026-09-02T22:11:32Z</time>
  <course>19.9</course>
  <speed>0.8065977932030313</speed>
  <fix>3d</fix>
</trkpt>
<trkpt lat="33.8106763" lon="-118.3938204">
  <ele>-25.198</ele>
  <time>2026-09-02T22:11:32Z</time>
  <course>19.9</course>
  <speed>0.8065977932030313</speed>
  <fix>3d</fix>
</trkpt>
<trkpt lat="33.8106763" lon="-118.3938204">
  <ele>-25.198</ele>
  <time>2026-09-02T22:11:32Z</time>
  <course>19.9</course>
  <speed>0.8065977932030313</speed>
  <fix>3d</fix>
</trkpt>
<trkpt lat="33.8106753" lon="-118.393822">
  <ele>-24.59</ele>
  <time>2026-09-02T22:11:32Z</time>
  <course>44.81</course>
  <speed>0.81</speed>
  <fix>3d</fix>
</trkpt>
<trkpt lat="33.8106764" lon="-118.3938204">
  <ele>-25.198</ele>
  <time>2026-09-02T22:11:32Z</time>
  <course>19.9</course>
  <speed>0.8139410298049853</speed>
  <fix>3d</fix>
</trkpt>
<trkpt lat="33.8106764" lon="-118.3938203">
  <ele>-25.197</ele>
  <time>2026-09-02T22:11:32Z</time>
  <course>19.9</course>
  <speed>0.8139410298049853</speed>
  <fix>3d</fix>
</trkpt>
<trkpt lat="33.8106765" lon="-118.3938202">
  <ele>-25.197</ele>
  <time>2026-09-02T22:11:32Z</time>
  <course>19.9</course>
  <speed>0.8139410298049853</speed>
  <fix>3d</fix>
</trkpt>
<trkpt lat="33.8106765" lon="-118.3938202">
  <ele>-25.197</ele>
  <time>2026-09-02T22:11:32Z</time>
  <course>19.9</course>
  <speed>0.8139410298049853</speed>
  <fix>3d</fix>
</trkpt>
<trkpt lat="33.8106765" lon="-118.3938201">
  <ele>-25.197</ele>
  <time>2026-09-02T22:11:32Z</time>
  <course>19.9</course>
  <speed>0.8139410298049853</speed>
  <fix>3d</fix>
</trkpt>
<trkpt lat="33.8106766" lon="-118.3938201">
  <ele>-25.197</ele>
  <time>2026-09-02T22:11:32Z</time>
  <course>19.9</course>
  <speed>0.8207313811473277</speed>
  <fix>3d</fix>
</trkpt>
<trkpt lat="33.8106766" lon="-118.39382">
  <ele>-25.197</ele>
  <time>2026-09-02T22:11:32Z</time>
  <course>19.9</course>
  <speed>0.8207313811473277</speed>
  <fix>3d</fix>
</trkpt>
<trkpt lat="33.8106767" lon="-118.39382">
  <ele>-25.197</ele>
  <time>2026-09-02T22:11:32Z</time>
  <course>19.9</course>
  <speed>0.8207313811473277</speed>
  <fix>3d</fix>
</trkpt>
<trkpt lat="33.8106767" lon="-118.3938199">
  <ele>-25.197</ele>
  <time>2026-09-02T22:11:32Z</time>
  <course>19.9</course>
  <speed>0.8207313811473277</speed>
  <fix>3d</fix>
</trkpt>
<trkpt lat="33.8106767" lon="-118.3938199">
  <ele>-25.197</ele>
  <time>2026-09-02T22:11:32Z</time>
  <course>19.9</course>
  <speed>0.8207313811473277</speed>
  <fix>3d</fix>
</trkpt>
<trkpt lat="33.8106768" lon="-118.3938199">
  <ele>-25.197</ele>
  <time>2026-09-02T22:11:32Z</time>
  <course>19.9</course>
  <speed>0.8207313811473277</speed>
  <fix>3d</fix>
</trkpt>
<trkpt lat="33.8106768" lon="-118.3938198">
  <ele>-25.197</ele>
  <time>2026-09-02T22:11:32Z</time>
  <course>19.9</course>
  <speed>0.8207313811473277</speed>
  <fix>3d</fix>
</trkpt>
<trkpt lat="33.8106769" lon="-118.3938197">
  <ele>-25.197</ele>
  <time>2026-09-02T22:11:32Z</time>
  <course>19.9</course>
  <speed>0.8207313811473277</speed>
  <fix>3d</fix>
</trkpt>
<trkpt lat="33.8106769" lon="-118.3938197">
  <ele>-25.197</ele>
  <time>2026-09-02T22:11:32Z</time>
  <course>19.9</course>
  <speed>0.8207313811473277</speed>
  <fix>3d</fix>
</trkpt>
<trkpt lat="33.8106764" lon="-118.3938207">
  <ele>-24.59</ele>
  <time>2026-09-02T22:11:32Z</time>
  <course>44.81</course>
  <speed>0.82</speed>
  <fix>3d</fix>
</trkpt>
<trkpt lat="33.810677" lon="-118.3938196">
  <ele>-25.197</ele>
  <time>2026-09-02T22:11:32Z</time>
  <course>19.91</course>
  <speed>0.8207313811473277</speed>
  <fix>3d</fix>
</trkpt>
<trkpt lat="33.810677" lon="-118.3938196">
  <ele>-25.197</ele>
  <time>2026-09-02T22:11:32Z</time>
  <course>19.91</course>
  <speed>0.8207313811473277</speed>
  <fix>3d</fix>
</trkpt>
<trkpt lat="33.810677" lon="-118.3938195">
  <ele>-25.196</ele>
  <time>2026-09-02T22:11:32Z</time>
  <course>19.91</course>
  <speed>0.8207313811473277</speed>
  <fix>3d</fix>
</trkpt>
<trkpt lat="33.8106771" lon="-118.3938195">
  <ele>-25.196</ele>
  <time>2026-09-02T22:11:32Z</time>
  <course>19.91</course>
  <speed>0.8207313811473277</speed>
  <fix>3d</fix>
</trkpt>
<trkpt lat="33.8106771" lon="-118.3938194">
  <ele>-25.196</ele>
  <time>2026-09-02T22:11:32Z</time>
  <course>19.91</course>
  <speed>0.8207313811473277</speed>
  <fix>3d</fix>
</trkpt>
<trkpt lat="33.8106772" lon="-118.3938194">
  <ele>-25.196</ele>
  <time>2026-09-02T22:11:32Z</time>
  <course>19.91</course>
  <speed>0.8207313811473277</speed>
  <fix>3d</fix>
</trkpt>
<trkpt lat="33.8106772" lon="-118.3938193">
  <ele>-25.196</ele>
  <time>2026-09-02T22:11:32Z</time>
  <course>19.91</course>
  <speed>0.8207313811473277</speed>
  <fix>3d</fix>
</trkpt>
<trkpt lat="33.8106772" lon="-118.3938193">
  <ele>-25.196</ele>
  <time>2026-09-02T22:11:32Z</time>
  <course>19.91</course>
  <speed>0.8207313811473277</speed>
  <fix>3d</fix>
</trkpt>
<trkpt lat="33.8106773" lon="-118.3938193">
  <ele>-25.196</ele>
  <time>2026-09-02T22:11:32Z</time>
  <course>19.91</course>
  <speed>0.8207313811473277</speed>
  <fix>3d</fix>
</trkpt>
<trkpt lat="33.8106773" lon="-118.3938192">
  <ele>-25.196</ele>
  <time>2026-09-02T22:11:32Z</time>
  <course>19.91</course>
  <speed>0.8207313811473277</speed>
  <fix>3d</fix>
</trkpt>
<trkpt lat="33.8106774" lon="-118.3938192">
  <ele>-25.196</ele>
  <time>2026-09-02T22:11:32Z</time>
  <course>19.91</course>
  <speed>0.8207313811473277</speed>
  <fix>3d</fix>
</trkpt>
<trkpt lat="33.8106774" lon="-118.3938191">
  <ele>-25.196</ele>
  <time>2026-09-02T22:11:32Z</time>
  <course>19.91</course>
  <speed>0.8207313811473277</speed>
  <fix>3d</fix>
</trkpt>
<trkpt lat="33.8106774" lon="-118.3938191">
  <ele>-25.196</ele>
  <time>2026-09-02T22:11:32Z</time>
  <course>19.91</course>
  <speed>0.8207313811473277</speed>
  <fix>3d</fix>
</trkpt>
<trkpt lat="33.8106764" lon="-118.3938207">
  <ele>-24.59</ele>
  <time>2026-09-02T22:11:32Z</time>
  <course>44.81</course>
  <speed>0.82</speed>
  <fix>3d</fix>
</trkpt>
<trkpt lat="33.8106775" lon="-118.393819">
  <ele>-25.196</ele>
  <time>2026-09-02T22:11:32Z</time>
  <course>19.91</course>
  <speed>0.8207313811473277</speed>
  <fix>3d</fix>
</trkpt>
<trkpt lat="33.8106775" lon="-118.393819">
  <ele>-25.196</ele>
  <time>2026-09-02T22:11:32Z</time>
  <course>19.91</course>
  <speed>0.8207313811473277</speed>
  <fix>3d</fix>
</trkpt>
<trkpt lat="33.8106775" lon="-118.3938189">
  <ele>-25.196</ele>
  <time>2026-09-02T22:11:32Z</time>
  <course>19.91</course>
  <speed>0.8207313811473277</speed>
  <fix>3d</fix>
</trkpt>
<trkpt lat="33.8106776" lon="-118.3938189">
  <ele>-25.196</ele>
  <time>2026-09-02T22:11:32Z</time>
  <course>19.91</course>
  <speed>0.8207313811473277</speed>
  <fix>3d</fix>
</trkpt>
<trkpt lat="33.8106776" lon="-118.3938188">
  <ele>-25.196</ele>
  <time>2026-09-02T22:11:32Z</time>
  <course>19.91</course>
  <speed>0.8207313811473277</speed>
  <fix>3d</fix>
</trkpt>
<trkpt lat="33.8106777" lon="-118.3938188">
  <ele>-25.195</ele>
  <time>2026-09-02T22:11:32Z</time>
  <course>19.91</course>
  <speed>0.8207313811473277</speed>
  <fix>3d</fix>
</trkpt>
<trkpt lat="33.8106777" lon="-118.3938187">
  <ele>-25.195</ele>
  <time>2026-09-02T22:11:32Z</time>
  <course>19.91</course>
  <speed>0.8207313811473277</speed>
  <fix>3d</fix>
</trkpt>
<trkpt lat="33.8106777" lon="-118.3938187">
  <ele>-25.195</ele>
  <time>2026-09-02T22:11:32Z</time>
  <course>19.91</course>
  <speed>0.8207313811473277</speed>
  <fix>3d</fix>
</trkpt>
<trkpt lat="33.8106778" lon="-118.3938186">
  <ele>-25.195</ele>
  <time>2026-09-02T22:11:32Z</time>
  <course>19.91</course>
  <speed>0.8207313811473277</speed>
  <fix>3d</fix>
</trkpt>
<trkpt lat="33.8106778" lon="-118.3938186">
  <ele>-25.195</ele>
  <time>2026-09-02T22:11:32Z</time>
  <course>19.91</course>
  <speed>0.8207313811473277</speed>
  <fix>3d</fix>
</trkpt>
<trkpt lat="33.8106779" lon="-118.3938185">
  <ele>-25.195</ele>
  <time>2026-09-02T22:11:32Z</time>
  <course>19.91</course>
  <speed>0.8207313811473277</speed>
  <fix>3d</fix>
</trkpt>
<trkpt lat="33.8106779" lon="-118.3938185">
  <ele>-25.195</ele>
  <time>2026-09-02T22:11:32Z</time>
  <course>19.91</course>
  <speed>0.8207313811473277</speed>
  <fix>3d</fix>
</trkpt>
<trkpt lat="33.8106779" lon="-118.3938185">
  <ele>-25.195</ele>
  <time>2026-09-02T22:11:32Z</time>
  <course>19.91</course>
  <speed>0.8207313811473277</speed>
  <fix>3d</fix>
</trkpt>
<trkpt lat="33.8106775" lon="-118.3938195">
  <ele>-24.58</ele>
  <time>2026-09-02T22:11:32Z</time>
  <course>44.76</course>
  <speed>0.82</speed>
  <fix>3d</fix>
</trkpt>
<trkpt lat="33.8106779" lon="-118.3938185">
  <ele>-25.195</ele>
  <time>2026-09-02T22:11:32Z</time>
  <course>19.91</course>
  <speed>0.8207313811473277</speed>
  <fix>3d</fix>
</trkpt>
<trkpt lat="33.810678" lon="-118.3938184">
  <ele>-25.195</ele>
  <time>2026-09-02T22:11:32Z</time>
  <course>19.91</course>
  <speed>0.8207313811473277</speed>
  <fix>3d</fix>
</trkpt>
<trkpt lat="33.810678" lon="-118.3938183">
  <ele>-25.195</ele>
  <time>2026-09-02T22:11:32Z</time>
  <course>19.91</course>
  <speed>0.8207313811473277</speed>
  <fix>3d</fix>
</trkpt>
<trkpt lat="33.8106781" lon="-118.3938183">
  <ele>-25.194</ele>
  <time>2026-09-02T22:11:32Z</time>
  <course>19.91</course>
  <speed>0.8207313811473277</speed>
  <fix>3d</fix>
</trkpt>
<trkpt lat="33.8106781" lon="-118.3938183">
  <ele>-25.194</ele>
  <time>2026-09-02T22:11:32Z</time>
  <course>19.91</course>
  <speed>0.8207313811473277</speed>
  <fix>3d</fix>
</trkpt>
<trkpt lat="33.8106782" lon="-118.3938182">
  <ele>-25.194</ele>
  <time>2026-09-02T22:11:32Z</time>
  <course>19.91</course>
  <speed>0.8207313811473277</speed>
  <fix>3d</fix>
</trkpt>
<trkpt lat="33.8106782" lon="-118.3938181">
  <ele>-25.194</ele>
  <time>2026-09-02T22:11:32Z</time>
  <course>19.91</course>
  <speed>0.8207313811473277</speed>
  <fix>3d</fix>
</trkpt>
<trkpt lat="33.8106783" lon="-118.3938181">
  <ele>-25.194</ele>
  <time>2026-09-02T22:11:32Z</time>
  <course>19.91</course>
  <speed>0.8207313811473277</speed>
  <fix>3d</fix>
</trkpt>
<trkpt lat="33.8106783" lon="-118.393818">
  <ele>-25.194</ele>
  <time>2026-09-02T22:11:32Z</time>
  <course>19.91</course>
  <speed>0.8207313811473277</speed>
  <fix>3d</fix>
</trkpt>
<trkpt lat="33.8106783" lon="-118.393818">
  <ele>-25.193</ele>
  <time>2026-09-02T22:11:32Z</time>
  <course>19.91</course>
  <speed>0.8207313811473277</speed>
  <fix>3d</fix>
</trkpt>
<trkpt lat="33.8106784" lon="-118.3938179">
  <ele>-25.193</ele>
  <time>2026-09-02T22:11:32Z</time>
  <course>19.91</course>
  <speed>0.8207313811473277</speed>
  <fix>3d</fix>
</trkpt>
<trkpt lat="33.8106784" lon="-118.3938179">
  <ele>-25.193</ele>
  <time>2026-09-02T22:11:32Z</time>
  <course>19.91</course>
  <speed>0.8207313811473277</speed>
  <fix>3d</fix>
</trkpt>
<trkpt lat="33.8106785" lon="-118.3938178">
  <ele>-25.193</ele>
  <time>2026-09-02T22:11:32Z</time>
  <course>19.91</course>
  <speed>0.8207313811473277</speed>
  <fix>3d</fix>
</trkpt>
<trkpt lat="33.8106775" lon="-118.3938195">
  <ele>-24.58</ele>
  <time>2026-09-02T22:11:32Z</time>
  <course>44.76</course>
  <speed>0.82</speed>
  <fix>3d</fix>
</trkpt>
<trkpt lat="33.8106785" lon="-118.3938178">
  <ele>-25.193</ele>
  <time>2026-09-02T22:11:32Z</time>
  <course>19.91</course>
  <speed>0.8207313811473277</speed>
  <fix>3d</fix>
</trkpt>
<trkpt lat="33.8106786" lon="-118.3938177">
  <ele>-25.193</ele>
  <time>2026-09-02T22:11:32Z</time>
  <course>19.91</course>
  <speed>0.8207313811473277</speed>
  <fix>3d</fix>
</trkpt>
<trkpt lat="33.8106786" lon="-118.3938177">
  <ele>-25.192</ele>
  <time>2026-09-02T22:11:32Z</time>
  <course>19.91</course>
  <speed>0.8207313811473277</speed>
  <fix>3d</fix>
</trkpt>
<trkpt lat="33.8106786" lon="-118.3938176">
  <ele>-25.192</ele>
  <time>2026-09-02T22:11:32Z</time>
  <course>19.91</course>
  <speed>0.8207313811473277</speed>
  <fix>3d</fix>
</trkpt>
<trkpt lat="33.8106787" lon="-118.3938176">
  <ele>-25.192</ele>
  <time>2026-09-02T22:11:32Z</time>
  <course>19.91</course>
  <speed>0.8207313811473277</speed>
  <fix>3d</fix>
</trkpt>
<trkpt lat="33.8106787" lon="-118.3938175">
  <ele>-25.192</ele>
  <time>2026-09-02T22:11:32Z</time>
  <course>19.91</course>
  <speed>0.8207313811473277</speed>
  <fix>3d</fix>
</trkpt>
<trkpt lat="33.8106787" lon="-118.3938175">
  <ele>-25.192</ele>
  <time>2026-09-02T22:11:32Z</time>
  <course>19.91</course>
  <speed>0.8207313811473277</speed>
  <fix>3d</fix>
</trkpt>
<trkpt lat="33.8106788" lon="-118.3938175">
  <ele>-25.192</ele>
  <time>2026-09-02T22:11:32Z</time>
  <course>19.91</course>
  <speed>0.8207313811473277</speed>
  <fix>3d</fix>
</trkpt>
<trkpt lat="33.8106788" lon="-118.3938174">
  <ele>-25.191</ele>
  <time>2026-09-02T22:11:32Z</time>
  <course>19.91</course>
  <speed>0.8207313811473277</speed>
  <fix>3d</fix>
</trkpt>
<trkpt lat="33.8106789" lon="-118.3938173">
  <ele>-25.191</ele>
  <time>2026-09-02T22:11:32Z</time>
  <course>19.91</course>
  <speed>0.8207313811473277</speed>
  <fix>3d</fix>
</trkpt>
<trkpt lat="33.8106789" lon="-118.3938173">
  <ele>-25.191</ele>
  <time>2026-09-02T22:11:32Z</time>
  <course>19.91</course>
  <speed>0.8207313811473277</speed>
  <fix>3d</fix>
</trkpt>
<trkpt lat="33.810679" lon="-118.3938173">
  <ele>-25.191</ele>
  <time>2026-09-02T22:11:32Z</time>
  <course>19.91</course>
  <speed>0.8207313811473277</speed>
  <fix>3d</fix>
</trkpt>
<trkpt lat="33.810679" lon="-118.3938172">
  <ele>-25.19</ele>
  <time>2026-09-02T22:11:32Z</time>
  <course>19.91</course>
  <speed>0.8207313811473277</speed>
  <fix>3d</fix>
</trkpt>
<trkpt lat="33.810679" lon="-118.3938172">
  <ele>-25.19</ele>
  <time>2026-09-02T22:11:32Z</time>
  <course>19.91</course>
  <speed>0.8207313811473277</speed>
  <fix>3d</fix>
</trkpt>
<trkpt lat="33.8106785" lon="-118.3938183">
  <ele>-24.58</ele>
  <time>2026-09-02T22:11:32Z</time>
  <course>44.72</course>
  <speed>0.82</speed>
  <fix>3d</fix>
</trkpt>
<trkpt lat="33.8106791" lon="-118.3938171">
  <ele>-25.19</ele>
  <time>2026-09-02T22:11:32Z</time>
  <course>19.91</course>
  <speed>0.8207313811473277</speed>
  <fix>3d</fix>
</trkpt>
<trkpt lat="33.8106791" lon="-118.3938171">
  <ele>-25.19</ele>
  <time>2026-09-02T22:11:32Z</time>
  <course>19.91</course>
  <speed>0.8207313811473277</speed>
  <fix>3d</fix>
</trkpt>
<trkpt lat="33.8106792" lon="-118.393817">
  <ele>-25.19</ele>
  <time>2026-09-02T22:11:32Z</time>
  <course>19.91</course>
  <speed>0.8207313811473277</speed>
  <fix>3d</fix>
</trkpt>
<trkpt lat="33.8106792" lon="-118.393817">
  <ele>-25.189</ele>
  <time>2026-09-02T22:11:32Z</time>
  <course>19.91</course>
  <speed>0.8207313811473277</speed>
  <fix>3d</fix>
</trkpt>
<trkpt lat="33.8106792" lon="-118.3938169">
  <ele>-25.189</ele>
  <time>2026-09-02T22:11:32Z</time>
  <course>19.91</course>
  <speed>0.8207313811473277</speed>
  <fix>3d</fix>
</trkpt>
<trkpt lat="33.8106793" lon="-118.3938169">
  <ele>-25.189</ele>
  <time>2026-09-02T22:11:32Z</time>
  <course>19.91</course>
  <speed>0.8207313811473277</speed>
  <fix>3d</fix>
</trkpt>
<trkpt lat="33.8106793" lon="-118.3938168">
  <ele>-25.189</ele>
  <time>2026-09-02T22:11:32Z</time>
  <course>19.91</course>
  <speed>0.8207313811473277</speed>
  <fix>3d</fix>
</trkpt>
<trkpt lat="33.8106794" lon="-118.3938168">
  <ele>-25.189</ele>
  <time>2026-09-02T22:11:32Z</time>
  <course>19.91</course>
  <speed>0.8207313811473277</speed>
  <fix>3d</fix>
</trkpt>
<trkpt lat="33.8106794" lon="-118.3938167">
  <ele>-25.188</ele>
  <time>2026-09-02T22:11:32Z</time>
  <course>19.91</course>
  <speed>0.8207313811473277</speed>
  <fix>3d</fix>
</trkpt>
<trkpt lat="33.8106794" lon="-118.3938167">
  <ele>-25.188</ele>
  <time>2026-09-02T22:11:32Z</time>
  <course>19.91</course>
  <speed>0.8207313811473277</speed>
  <fix>3d</fix>
</trkpt>
<trkpt lat="33.8106795" lon="-118.3938166">
  <ele>-25.188</ele>
  <time>2026-09-02T22:11:32Z</time>
  <course>19.91</course>
  <speed>0.8207313811473277</speed>
  <fix>3d</fix>
</trkpt>
<trkpt lat="33.8106795" lon="-118.3938166">
  <ele>-25.188</ele>
  <time>2026-09-02T22:11:32Z</time>
  <course>19.91</course>
  <speed>0.8207313811473277</speed>
  <fix>3d</fix>
</trkpt>
<trkpt lat="33.8106795" lon="-118.3938166">
  <ele>-25.188</ele>
  <time>2026-09-02T22:11:32Z</time>
  <course>19.91</course>
  <speed>0.8207313811473277</speed>
  <fix>3d</fix>
</trkpt>
<trkpt lat="33.8106785" lon="-118.3938183">
  <ele>-24.58</ele>
  <time>2026-09-02T22:11:32Z</time>
  <course>44.72</course>
  <speed>0.82</speed>
  <fix>3d</fix>
</trkpt>
<trkpt lat="33.8106796" lon="-118.3938165">
  <ele>-25.187</ele>
  <time>2026-09-02T22:11:32Z</time>
  <course>19.91</course>
  <speed>0.8207313811473277</speed>
  <fix>3d</fix>
</trkpt>
<trkpt lat="33.8106796" lon="-118.3938164">
  <ele>-25.187</ele>
  <time>2026-09-02T22:11:32Z</time>
  <course>19.91</course>
  <speed>0.8207313811473277</speed>
  <fix>3d</fix>
</trkpt>
<trkpt lat="33.8106797" lon="-118.3938164">
  <ele>-25.187</ele>
  <time>2026-09-02T22:11:32Z</time>
  <course>19.91</course>
  <speed>0.8207313811473277</speed>
  <fix>3d</fix>
</trkpt>
<trkpt lat="33.8106797" lon="-118.3938163">
  <ele>-25.187</ele>
  <time>2026-09-02T22:11:32Z</time>
  <course>19.9</course>
  <speed>0.8207313811473277</speed>
  <fix>3d</fix>
</trkpt>
<trkpt lat="33.8106798" lon="-118.3938163">
  <ele>-25.186</ele>
  <time>2026-09-02T22:11:32Z</time>
  <course>19.9</course>
  <speed>0.8207313811473277</speed>
  <fix>3d</fix>
</trkpt>
<trkpt lat="33.8106798" lon="-118.3938162">
  <ele>-25.186</ele>
  <time>2026-09-02T22:11:32Z</time>
  <course>19.9</course>
  <speed>0.8207313811473277</speed>
  <fix>3d</fix>
</trkpt>
<trkpt lat="33.8106798" lon="-118.3938162">
  <ele>-25.186</ele>
  <time>2026-09-02T22:11:32Z</time>
  <course>19.9</course>
  <speed>0.8207313811473277</speed>
  <fix>3d</fix>
</trkpt>
<trkpt lat="33.8106799" lon="-118.3938161">
  <ele>-25.185</ele>
  <time>2026-09-02T22:11:32Z</time>
  <course>19.9</course>
  <speed>0.8207313811473277</speed>
  <fix>3d</fix>
</trkpt>
<trkpt lat="33.8106799" lon="-118.3938161">
  <ele>-25.185</ele>
  <time>2026-09-02T22:11:32Z</time>
  <course>19.9</course>
  <speed>0.8207313811473277</speed>
  <fix>3d</fix>
</trkpt>
<trkpt lat="33.81068" lon="-118.393816">
  <ele>-25.185</ele>
  <time>2026-09-02T22:11:32Z</time>
  <course>19.9</course>
  <speed>0.8207313811473277</speed>
  <fix>3d</fix>
</trkpt>
<trkpt lat="33.81068" lon="-118.393816">
  <ele>-25.184</ele>
  <time>2026-09-02T22:11:32Z</time>
  <course>19.9</course>
  <speed>0.8207313811473277</speed>
  <fix>3d</fix>
</trkpt>
<trkpt lat="33.81068" lon="-118.393816">
  <ele>-25.184</ele>
  <time>2026-09-02T22:11:32Z</time>
  <course>19.9</course>
  <speed>0.8207313811473277</speed>
  <fix>3d</fix>
</trkpt>
<trkpt lat="33.8106801" lon="-118.3938159">
  <ele>-25.184</ele>
  <time>2026-09-02T22:11:32Z</time>
  <course>19.9</course>
  <speed>0.8207313811473277</speed>
  <fix>3d</fix>
</trkpt>
<trkpt lat="33.8106796" lon="-118.393817">
  <ele>-24.57</ele>
  <time>2026-09-02T22:11:32Z</time>
  <course>44.75</course>
  <speed>0.83</speed>
  <fix>3d</fix>
</trkpt>
<trkpt lat="33.8106801" lon="-118.3938159">
  <ele>-25.184</ele>
  <time>2026-09-02T22:11:32Z</time>
  <course>19.9</course>
  <speed>0.8207313811473277</speed>
  <fix>3d</fix>
</trkpt>
<trkpt lat="33.8106803" lon="-118.3938157">
  <ele>-25.182</ele>
  <time>2026-09-02T22:11:32Z</time>
  <course>19.91</course>
  <speed>0.8207313811473277</speed>
  <fix>3d</fix>
</trkpt>
<trkpt lat="33.8106803" lon="-118.3938156">
  <ele>-25.181</ele>
  <time>2026-09-02T22:11:32Z</time>
  <course>19.91</course>
  <speed>0.8207313811473277</speed>
  <fix>3d</fix>
</trkpt>
<trkpt lat="33.8106804" lon="-118.3938156">
  <ele>-25.181</ele>
  <time>2026-09-02T22:11:32Z</time>
  <course>19.91</course>
  <speed>0.8207313811473277</speed>
  <fix>3d</fix>
</trkpt>
<trkpt lat="33.8106804" lon="-118.3938155">
  <ele>-25.181</ele>
  <time>2026-09-02T22:11:32Z</time>
  <course>19.91</course>
  <speed>0.8207313811473277</speed>
  <fix>3d</fix>
</trkpt>
<trkpt lat="33.8106804" lon="-118.3938155">
  <ele>-25.18</ele>
  <time>2026-09-02T22:11:32Z</time>
  <course>19.91</course>
  <speed>0.8207313811473277</speed>
  <fix>3d</fix>
</trkpt>
<trkpt lat="33.8106805" lon="-118.3938154">
  <ele>-25.18</ele>
  <time>2026-09-02T22:11:32Z</time>
  <course>19.91</course>
  <speed>0.8207313811473277</speed>
  <fix>3d</fix>
</trkpt>
<trkpt lat="33.8106805" lon="-118.3938154">
  <ele>-25.179</ele>
  <time>2026-09-02T22:11:32Z</time>
  <course>19.91</course>
  <speed>0.8207313811473277</speed>
  <fix>3d</fix>
</trkpt>
<trkpt lat="33.8106806" lon="-118.3938153">
  <ele>-25.179</ele>
  <time>2026-09-02T22:11:32Z</time>
  <course>19.91</course>
  <speed>0.8207313811473277</speed>
  <fix>3d</fix>
</trkpt>
<trkpt lat="33.8106806" lon="-118.3938153">
  <ele>-25.179</ele>
  <time>2026-09-02T22:11:32Z</time>
  <course>19.91</course>
  <speed>0.8207313811473277</speed>
  <fix>3d</fix>
</trkpt>
<trkpt lat="33.8106796" lon="-118.393817">
  <ele>-24.57</ele>
  <time>2026-09-02T22:11:32Z</time>
  <course>44.75</course>
  <speed>0.83</speed>
  <fix>3d</fix>
</trkpt>
<trkpt lat="33.8106806" lon="-118.3938153">
  <ele>-25.179</ele>
  <time>2026-09-02T22:11:32Z</time>
  <course>19.91</course>
  <speed>0.8207313811473277</speed>
  <fix>3d</fix>
</trkpt>
<trkpt lat="33.8106807" lon="-118.3938152">
  <ele>-25.178</ele>
  <time>2026-09-02T22:11:32Z</time>
  <course>19.91</course>
  <speed>0.8207313811473277</speed>
  <fix>3d</fix>
</trkpt>
<trkpt lat="33.8106807" lon="-118.3938152">
  <ele>-25.178</ele>
  <time>2026-09-02T22:11:32Z</time>
  <course>19.91</course>
  <speed>0.8207313811473277</speed>
  <fix>3d</fix>
</trkpt>
<trkpt lat="33.8106807" lon="-118.3938151">
  <ele>-25.177</ele>
  <time>2026-09-02T22:11:32Z</time>
  <course>19.91</course>
  <speed>0.8207313811473277</speed>
  <fix>3d</fix>
</trkpt>
<trkpt lat="33.8106808" lon="-118.3938151">
  <ele>-25.177</ele>
  <time>2026-09-02T22:11:32Z</time>
  <course>19.91</course>
  <speed>0.8207313811473277</speed>
  <fix>3d</fix>
</trkpt>
<trkpt lat="33.8106808" lon="-118.393815">
  <ele>-25.176</ele>
  <time>2026-09-02T22:11:32Z</time>
  <course>19.91</course>
  <speed>0.8207313811473277</speed>
  <fix>3d</fix>
</trkpt>
<trkpt lat="33.8106809" lon="-118.393815">
  <ele>-25.176</ele>
  <time>2026-09-02T22:11:32Z</time>
  <course>19.91</course>
  <speed>0.8207313811473277</speed>
  <fix>3d</fix>
</trkpt>
<trkpt lat="33.8106809" lon="-118.3938149">
  <ele>-25.176</ele>
  <time>2026-09-02T22:11:32Z</time>
  <course>19.91</course>
  <speed>0.8207313811473277</speed>
  <fix>3d</fix>
</trkpt>
<trkpt lat="33.8106809" lon="-118.3938149">
  <ele>-25.175</ele>
  <time>2026-09-02T22:11:32Z</time>
  <course>19.91</course>
  <speed>0.8207313811473277</speed>
  <fix>3d</fix>
</trkpt>
<trkpt lat="33.810681" lon="-118.3938148">
  <ele>-25.175</ele>
  <time>2026-09-02T22:11:32Z</time>
  <course>19.91</course>
  <speed>0.8207313811473277</speed>
  <fix>3d</fix>
</trkpt>
<trkpt lat="33.810681" lon="-118.3938148">
  <ele>-25.174</ele>
  <time>2026-09-02T22:11:32Z</time>
  <course>19.91</course>
  <speed>0.8280700453464067</speed>
  <fix>3d</fix>
</trkpt>
<trkpt lat="33.8106811" lon="-118.3938147">
  <ele>-25.174</ele>
  <time>2026-09-02T22:11:32Z</time>
  <course>19.91</course>
  <speed>0.8280700453464067</speed>
  <fix>3d</fix>
</trkpt>
<trkpt lat="33.8106811" lon="-118.3938147">
  <ele>-25.173</ele>
  <time>2026-09-02T22:11:32Z</time>
  <course>19.91</course>
  <speed>0.8280700453464067</speed>
  <fix>3d</fix>
</trkpt>
<trkpt lat="33.8106811" lon="-118.3938147">
  <ele>-25.173</ele>
  <time>2026-09-02T22:11:32Z</time>
  <course>19.91</course>
  <speed>0.8280700453464067</speed>
  <fix>3d</fix>
</trkpt>
<trkpt lat="33.8106806" lon="-118.3938157">
  <ele>-24.56</ele>
  <time>2026-09-02T22:11:32Z</time>
  <course>44.8</course>
  <speed>0.83</speed>
  <fix>3d</fix>
</trkpt>
<trkpt lat="33.8106812" lon="-118.3938146">
  <ele>-25.173</ele>
  <time>2026-09-02T22:11:32Z</time>
  <course>19.91</course>
  <speed>0.8280700453464067</speed>
  <fix>3d</fix>
</trkpt>
<trkpt lat="33.8106812" lon="-118.3938145">
  <ele>-25.172</ele>
  <time>2026-09-02T22:11:32Z</time>
  <course>19.91</course>
  <speed>0.8280700453464067</speed>
  <fix>3d</fix>
</trkpt>
<trkpt lat="33.8106813" lon="-118.3938145">
  <ele>-25.172</ele>
  <time>2026-09-02T22:11:32Z</time>
  <course>19.91</course>
  <speed>0.8280700453464067</speed>
  <fix>3d</fix>
</trkpt>
<trkpt lat="33.8106813" lon="-118.3938144">
  <ele>-25.172</ele>
  <time>2026-09-02T22:11:32Z</time>
  <course>19.91</course>
  <speed>0.8280700453464067</speed>
  <fix>3d</fix>
</trkpt>
<trkpt lat="33.8106814" lon="-118.3938144">
  <ele>-25.171</ele>
  <time>2026-09-02T22:11:32Z</time>
  <course>19.91</course>
  <speed>0.8280700453464067</speed>
  <fix>3d</fix>
</trkpt>
<trkpt lat="33.8106814" lon="-118.3938143">
  <ele>-25.171</ele>
  <time>2026-09-02T22:11:32Z</time>
  <course>19.91</course>
  <speed>0.8280700453464067</speed>
  <fix>3d</fix>
</trkpt>
<trkpt lat="33.8106814" lon="-118.3938143">
  <ele>-25.171</ele>
  <time>2026-09-02T22:11:32Z</time>
  <course>19.91</course>
  <speed>0.8280700453464067</speed>
  <fix>3d</fix>
</trkpt>
<trkpt lat="33.8106815" lon="-118.3938142">
  <ele>-25.17</ele>
  <time>2026-09-02T22:11:32Z</time>
  <course>19.91</course>
  <speed>0.8280700453464067</speed>
  <fix>3d</fix>
</trkpt>
<trkpt lat="33.8106815" lon="-118.3938142">
  <ele>-25.17</ele>
  <time>2026-09-02T22:11:32Z</time>
  <course>19.91</course>
  <speed>0.8280700453464067</speed>
  <fix>3d</fix>
</trkpt>
<trkpt lat="33.8106816" lon="-118.3938141">
  <ele>-25.17</ele>
  <time>2026-09-02T22:11:32Z</time>
  <course>19.91</course>
  <speed>0.8280700453464067</speed>
  <fix>3d</fix>
</trkpt>
<trkpt lat="33.8106816" lon="-118.3938141">
  <ele>-25.17</ele>
  <time>2026-09-02T22:11:32Z</time>
  <course>19.91</course>
  <speed>0.8280700453464067</speed>
  <fix>3d</fix>
</trkpt>
<trkpt lat="33.8106817" lon="-118.393814">
  <ele>-25.169</ele>
  <time>2026-09-02T22:11:32Z</time>
  <course>19.91</course>
  <speed>0.8280700453464067</speed>
  <fix>3d</fix>
</trkpt>
<trkpt lat="33.8106817" lon="-118.393814">
  <ele>-25.169</ele>
  <time>2026-09-02T22:11:32Z</time>
  <course>19.91</course>
  <speed>0.8280700453464067</speed>
  <fix>3d</fix>
</trkpt>
<trkpt lat="33.8106806" lon="-118.3938157">
  <ele>-24.56</ele>
  <time>2026-09-02T22:11:32Z</time>
  <course>44.8</course>
  <speed>0.83</speed>
  <fix>3d</fix>
</trkpt>
<trkpt lat="33.8106817" lon="-118.3938139">
  <ele>-25.169</ele>
  <time>2026-09-02T22:11:32Z</time>
  <course>19.91</course>
  <speed>0.8280700453464067</speed>
  <fix>3d</fix>
</trkpt>
<trkpt lat="33.8106818" lon="-118.3938139">
  <ele>-25.169</ele>
  <time>2026-09-02T22:11:32Z</time>
  <course>19.91</course>
  <speed>0.8348652585896721</speed>
  <fix>3d</fix>
</trkpt>
<trkpt lat="33.8106818" lon="-118.3938138">
  <ele>-25.169</ele>
  <time>2026-09-02T22:11:32Z</time>
  <course>19.91</course>
  <speed>0.8348652585896721</speed>
  <fix>3d</fix>
</trkpt>
<trkpt lat="33.8106819" lon="-118.3938138">
  <ele>-25.168</ele>
  <time>2026-09-02T22:11:32Z</time>
  <course>19.91</course>
  <speed>0.8348652585896721</speed>
  <fix>3d</fix>
</trkpt>
<trkpt lat="33.8106819" lon="-118.3938137">
  <ele>-25.168</ele>
  <time>2026-09-02T22:11:32Z</time>
  <course>19.91</course>
  <speed>0.8348652585896721</speed>
  <fix>3d</fix>
</trkpt>
<trkpt lat="33.8106819" lon="-118.3938137">
  <ele>-25.168</ele>
  <time>2026-09-02T22:11:32Z</time>
  <course>19.91</course>
  <speed>0.8348652585896721</speed>
  <fix>3d</fix>
</trkpt>
<trkpt lat="33.810682" lon="-118.3938136">
  <ele>-25.168</ele>
  <time>2026-09-02T22:11:32Z</time>
  <course>19.91</course>
  <speed>0.8348652585896721</speed>
  <fix>3d</fix>
</trkpt>
<trkpt lat="33.810682" lon="-118.3938136">
  <ele>-25.168</ele>
  <time>2026-09-02T22:11:32Z</time>
  <course>19.91</course>
  <speed>0.8348652585896721</speed>
  <fix>3d</fix>
</trkpt>
<trkpt lat="33.8106821" lon="-118.3938135">
  <ele>-25.167</ele>
  <time>2026-09-02T22:11:32Z</time>
  <course>19.91</course>
  <speed>0.8348652585896721</speed>
  <fix>3d</fix>
</trkpt>
<trkpt lat="33.8106821" lon="-118.3938135">
  <ele>-25.167</ele>
  <time>2026-09-02T22:11:32Z</time>
  <course>19.91</course>
  <speed>0.8348652585896721</speed>
  <fix>3d</fix>
</trkpt>
<trkpt lat="33.8106821" lon="-118.3938134">
  <ele>-25.167</ele>
  <time>2026-09-02T22:11:32Z</time>
  <course>19.91</course>
  <speed>0.8348652585896721</speed>
  <fix>3d</fix>
</trkpt>
<trkpt lat="33.8106822" lon="-118.3938134">
  <ele>-25.167</ele>
  <time>2026-09-02T22:11:32Z</time>
  <course>19.91</course>
  <speed>0.8348652585896721</speed>
  <fix>3d</fix>
</trkpt>
<trkpt lat="33.8106822" lon="-118.3938134">
  <ele>-25.167</ele>
  <time>2026-09-02T22:11:32Z</time>
  <course>19.91</course>
  <speed>0.8348652585896721</speed>
  <fix>3d</fix>
</trkpt>
<trkpt lat="33.8106817" lon="-118.3938145">
  <ele>-24.56</ele>
  <time>2026-09-02T22:11:32Z</time>
  <course>44.84</course>
  <speed>0.83</speed>
  <fix>3d</fix>
</trkpt>
<trkpt lat="33.8106822" lon="-118.3938134">
  <ele>-25.167</ele>
  <time>2026-09-02T22:11:32Z</time>
  <course>19.91</course>
  <speed>0.8348652585896721</speed>
  <fix>3d</fix>
</trkpt>
<trkpt lat="33.8106823" lon="-118.3938133">
  <ele>-25.166</ele>
  <time>2026-09-02T22:11:32Z</time>
  <course>19.91</course>
  <speed>0.8348652585896721</speed>
  <fix>3d</fix>
</trkpt>
<trkpt lat="33.8106823" lon="-118.3938132">
  <ele>-25.166</ele>
  <time>2026-09-02T22:11:32Z</time>
  <course>19.91</course>
  <speed>0.8348652585896721</speed>
  <fix>3d</fix>
</trkpt>
<trkpt lat="33.8106823" lon="-118.3938132">
  <ele>-25.166</ele>
  <time>2026-09-02T22:11:32Z</time>
  <course>19.91</course>
  <speed>0.8348652585896721</speed>
  <fix>3d</fix>
</trkpt>
<trkpt lat="33.8106824" lon="-118.3938132">
  <ele>-25.166</ele>
  <time>2026-09-02T22:11:32Z</time>
  <course>19.91</course>
  <speed>0.8348652585896721</speed>
  <fix>3d</fix>
</trkpt>
<trkpt lat="33.8106824" lon="-118.3938131">
  <ele>-25.166</ele>
  <time>2026-09-02T22:11:32Z</time>
  <course>19.91</course>
  <speed>0.8348652585896721</speed>
  <fix>3d</fix>
</trkpt>
<trkpt lat="33.8106825" lon="-118.393813">
  <ele>-25.166</ele>
  <time>2026-09-02T22:11:32Z</time>
  <course>19.91</course>
  <speed>0.8348652585896721</speed>
  <fix>3d</fix>
</trkpt>
<trkpt lat="33.8106825" lon="-118.393813">
  <ele>-25.166</ele>
  <time>2026-09-02T22:11:32Z</time>
  <course>19.91</course>
  <speed>0.8348652585896721</speed>
  <fix>3d</fix>
</trkpt>
<trkpt lat="33.8106826" lon="-118.3938129">
  <ele>-25.165</ele>
  <time>2026-09-02T22:11:32Z</time>
  <course>19.91</course>
  <speed>0.8348652585896721</speed>
  <fix>3d</fix>
</trkpt>
<trkpt lat="33.8106826" lon="-118.3938129">
  <ele>-25.165</ele>
  <time>2026-09-02T22:11:32Z</time>
  <course>19.91</course>
  <speed>0.8348652585896721</speed>
  <fix>3d</fix>
</trkpt>
<trkpt lat="33.8106826" lon="-118.3938128">
  <ele>-25.165</ele>
  <time>2026-09-02T22:11:32Z</time>
  <course>19.91</course>
  <speed>0.8348652585896721</speed>
  <fix>3d</fix>
</trkpt>
<trkpt lat="33.8106827" lon="-118.3938128">
  <ele>-25.165</ele>
  <time>2026-09-02T22:11:32Z</time>
  <course>19.91</course>
  <speed>0.8348652585896721</speed>
  <fix>3d</fix>
</trkpt>
<trkpt lat="33.8106827" lon="-118.3938127">
  <ele>-25.165</ele>
  <time>2026-09-02T22:11:32Z</time>
  <course>19.91</course>
  <speed>0.8348652585896721</speed>
  <fix>3d</fix>
</trkpt>
<trkpt lat="33.8106827" lon="-118.3938127">
  <ele>-25.165</ele>
  <time>2026-09-02T22:11:32Z</time>
  <course>19.91</course>
  <speed>0.8348652585896721</speed>
  <fix>3d</fix>
</trkpt>
<trkpt lat="33.8106817" lon="-118.3938145">
  <ele>-24.56</ele>
  <time>2026-09-02T22:11:32Z</time>
  <course>44.84</course>
  <speed>0.83</speed>
  <fix>3d</fix>
</trkpt>
<trkpt lat="33.8106828" lon="-118.3938127">
  <ele>-25.165</ele>
  <time>2026-09-02T22:11:32Z</time>
  <course>19.91</course>
  <speed>0.8348652585896721</speed>
  <fix>3d</fix>
</trkpt>
<trkpt lat="33.8106829" lon="-118.3938126">
  <ele>-25.165</ele>
  <time>2026-09-02T22:11:32Z</time>
  <course>19.91</course>
  <speed>0.8348652585896721</speed>
  <fix>3d</fix>
</trkpt>
<trkpt lat="33.8106829" lon="-118.3938125">
  <ele>-25.165</ele>
  <time>2026-09-02T22:11:32Z</time>
  <course>19.91</course>
  <speed>0.8348652585896721</speed>
  <fix>3d</fix>
</trkpt>
<trkpt lat="33.810683" lon="-118.3938124">
  <ele>-25.165</ele>
  <time>2026-09-02T22:11:32Z</time>
  <course>19.91</course>
  <speed>0.8348652585896721</speed>
  <fix>3d</fix>
</trkpt>
<trkpt lat="33.810683" lon="-118.3938124">
  <ele>-25.165</ele>
  <time>2026-09-02T22:11:32Z</time>
  <course>19.91</course>
  <speed>0.8348652585896721</speed>
  <fix>3d</fix>
</trkpt>
<trkpt lat="33.8106831" lon="-118.3938123">
  <ele>-25.165</ele>
  <time>2026-09-02T22:11:32Z</time>
  <course>19.91</course>
  <speed>0.8348652585896721</speed>
  <fix>3d</fix>
</trkpt>
<trkpt lat="33.8106831" lon="-118.3938123">
  <ele>-25.164</ele>
  <time>2026-09-02T22:11:32Z</time>
  <course>19.91</course>
  <speed>0.8348652585896721</speed>
  <fix>3d</fix>
</trkpt>
<trkpt lat="33.8106831" lon="-118.3938122">
  <ele>-25.164</ele>
  <time>2026-09-02T22:11:32Z</time>
  <course>19.91</course>
  <speed>0.8348652585896721</speed>
  <fix>3d</fix>
</trkpt>
<trkpt lat="33.8106832" lon="-118.3938122">
  <ele>-25.164</ele>
  <time>2026-09-02T22:11:32Z</time>
  <course>19.91</course>
  <speed>0.8348652585896721</speed>
  <fix>3d</fix>
</trkpt>
<trkpt lat="33.8106832" lon="-118.3938121">
  <ele>-25.164</ele>
  <time>2026-09-02T22:11:32Z</time>
  <course>19.91</course>
  <speed>0.8348652585896721</speed>
  <fix>3d</fix>
</trkpt>
<trkpt lat="33.8106833" lon="-118.3938121">
  <ele>-25.164</ele>
  <time>2026-09-02T22:11:32Z</time>
  <course>19.91</course>
  <speed>0.8348652585896721</speed>
  <fix>3d</fix>
</trkpt>
<trkpt lat="33.8106833" lon="-118.3938121">
  <ele>-25.164</ele>
  <time>2026-09-02T22:11:32Z</time>
  <course>19.91</course>
  <speed>0.8348652585896721</speed>
  <fix>3d</fix>
</trkpt>
<trkpt lat="33.8106827" lon="-118.3938132">
  <ele>-24.55</ele>
  <time>2026-09-02T22:11:32Z</time>
  <course>44.86</course>
  <speed>0.84</speed>
  <fix>3d</fix>
</trkpt>
<trkpt lat="33.8106833" lon="-118.393812">
  <ele>-25.164</ele>
  <time>2026-09-02T22:11:32Z</time>
  <course>19.91</course>
  <speed>0.8348652585896721</speed>
  <fix>3d</fix>
</trkpt>
<trkpt lat="33.8106834" lon="-118.393812">
  <ele>-25.164</ele>
  <time>2026-09-02T22:11:32Z</time>
  <course>19.91</course>
  <speed>0.8348652585896721</speed>
  <fix>3d</fix>
</trkpt>
<trkpt lat="33.8106834" lon="-118.3938119">
  <ele>-25.164</ele>
  <time>2026-09-02T22:11:32Z</time>
  <course>19.91</course>
  <speed>0.8348652585896721</speed>
  <fix>3d</fix>
</trkpt>
<trkpt lat="33.8106835" lon="-118.3938119">
  <ele>-25.164</ele>
  <time>2026-09-02T22:11:32Z</time>
  <course>19.91</course>
  <speed>0.8348652585896721</speed>
  <fix>3d</fix>
</trkpt>
<trkpt lat="33.8106835" lon="-118.3938118">
  <ele>-25.163</ele>
  <time>2026-09-02T22:11:32Z</time>
  <course>19.91</course>
  <speed>0.8348652585896721</speed>
  <fix>3d</fix>
</trkpt>
<trkpt lat="33.8106835" lon="-118.3938118">
  <ele>-25.163</ele>
  <time>2026-09-02T22:11:32Z</time>
  <course>19.91</course>
  <speed>0.8348652585896721</speed>
  <fix>3d</fix>
</trkpt>
<trkpt lat="33.8106836" lon="-118.3938117">
  <ele>-25.163</ele>
  <time>2026-09-02T22:11:32Z</time>
  <course>19.91</course>
  <speed>0.8348652585896721</speed>
  <fix>3d</fix>
</trkpt>
<trkpt lat="33.8106836" lon="-118.3938117">
  <ele>-25.163</ele>
  <time>2026-09-02T22:11:32Z</time>
  <course>19.91</course>
  <speed>0.8348652585896721</speed>
  <fix>3d</fix>
</trkpt>
<trkpt lat="33.8106837" lon="-118.3938116">
  <ele>-25.163</ele>
  <time>2026-09-02T22:11:32Z</time>
  <course>19.91</course>
  <speed>0.8348652585896721</speed>
  <fix>3d</fix>
</trkpt>
<trkpt lat="33.8106837" lon="-118.3938116">
  <ele>-25.163</ele>
  <time>2026-09-02T22:11:32Z</time>
  <course>19.91</course>
  <speed>0.8348652585896721</speed>
  <fix>3d</fix>
</trkpt>
<trkpt lat="33.8106838" lon="-118.3938115">
  <ele>-25.163</ele>
  <time>2026-09-02T22:11:32Z</time>
  <course>19.91</course>
  <speed>0.8348652585896721</speed>
  <fix>3d</fix>
</trkpt>
<trkpt lat="33.8106838" lon="-118.3938115">
  <ele>-25.162</ele>
  <time>2026-09-02T22:11:32Z</time>
  <course>19.91</course>
  <speed>0.8348652585896721</speed>
  <fix>3d</fix>
</trkpt>
<trkpt lat="33.8106838" lon="-118.3938114">
  <ele>-25.162</ele>
  <time>2026-09-02T22:11:32Z</time>
  <course>19.91</course>
  <speed>0.8348652585896721</speed>
  <fix>3d</fix>
</trkpt>
<trkpt lat="33.8106827" lon="-118.3938132">
  <ele>-24.55</ele>
  <time>2026-09-02T22:11:32Z</time>
  <course>44.86</course>
  <speed>0.84</speed>
  <fix>3d</fix>
</trkpt>
<trkpt lat="33.8106838" lon="-118.3938114">
  <ele>-25.162</ele>
  <time>2026-09-02T22:11:32Z</time>
  <course>19.91</course>
  <speed>0.8348652585896721</speed>
  <fix>3d</fix>
</trkpt>
<trkpt lat="33.8106839" lon="-118.3938114">
  <ele>-25.162</ele>
  <time>2026-09-02T22:11:32Z</time>
  <course>19.91</course>
  <speed>0.8348652585896721</speed>
  <fix>3d</fix>
</trkpt>
<trkpt lat="33.8106839" lon="-118.3938113">
  <ele>-25.162</ele>
  <time>2026-09-02T22:11:32Z</time>
  <course>19.91</course>
  <speed>0.8348652585896721</speed>
  <fix>3d</fix>
</trkpt>
<trkpt lat="33.810684" lon="-118.3938113">
  <ele>-25.162</ele>
  <time>2026-09-02T22:11:32Z</time>
  <course>19.91</course>
  <speed>0.8348652585896721</speed>
  <fix>3d</fix>
</trkpt>
<trkpt lat="33.810684" lon="-118.3938112">
  <ele>-25.162</ele>
  <time>2026-09-02T22:11:32Z</time>
  <course>19.91</course>
  <speed>0.8348652585896721</speed>
  <fix>3d</fix>
</trkpt>
<trkpt lat="33.810684" lon="-118.3938112">
  <ele>-25.162</ele>
  <time>2026-09-02T22:11:32Z</time>
  <course>19.91</course>
  <speed>0.8348652585896721</speed>
  <fix>3d</fix>
</trkpt>
<trkpt lat="33.8106841" lon="-118.3938111">
  <ele>-25.162</ele>
  <time>2026-09-02T22:11:32Z</time>
  <course>19.91</course>
  <speed>0.8348652585896721</speed>
  <fix>3d</fix>
</trkpt>
<trkpt lat="33.8106841" lon="-118.3938111">
  <ele>-25.162</ele>
  <time>2026-09-02T22:11:32Z</time>
  <course>19.91</course>
  <speed>0.8348652585896721</speed>
  <fix>3d</fix>
</trkpt>
<trkpt lat="33.8106842" lon="-118.393811">
  <ele>-25.161</ele>
  <time>2026-09-02T22:11:32Z</time>
  <course>19.91</course>
  <speed>0.8348652585896721</speed>
  <fix>3d</fix>
</trkpt>
<trkpt lat="33.8106842" lon="-118.393811">
  <ele>-25.161</ele>
  <time>2026-09-02T22:11:32Z</time>
  <course>19.91</course>
  <speed>0.8348652585896721</speed>
  <fix>3d</fix>
</trkpt>
<trkpt lat="33.8106842" lon="-118.3938109">
  <ele>-25.161</ele>
  <time>2026-09-02T22:11:32Z</time>
  <course>19.91</course>
  <speed>0.8348652585896721</speed>
  <fix>3d</fix>
</trkpt>
<trkpt lat="33.8106843" lon="-118.3938109">
  <ele>-25.161</ele>
  <time>2026-09-02T22:11:32Z</time>
  <course>19.91</course>
  <speed>0.8348652585896721</speed>
  <fix>3d</fix>
</trkpt>
<trkpt lat="33.8106843" lon="-118.3938108">
  <ele>-25.161</ele>
  <time>2026-09-02T22:11:32Z</time>
  <course>19.91</course>
  <speed>0.8348652585896721</speed>
  <fix>3d</fix>
</trkpt>
<trkpt lat="33.8106843" lon="-118.3938108">
  <ele>-25.161</ele>
  <time>2026-09-02T22:11:32Z</time>
  <course>19.91</course>
  <speed>0.8348652585896721</speed>
  <fix>3d</fix>
</trkpt>
<trkpt lat="33.8106838" lon="-118.3938119">
  <ele>-24.55</ele>
  <time>2026-09-02T22:11:32Z</time>
  <course>44.87</course>
  <speed>0.84</speed>
  <fix>3d</fix>
</trkpt>
<trkpt lat="33.8106844" lon="-118.3938108">
  <ele>-25.161</ele>
  <time>2026-09-02T22:11:32Z</time>
  <course>19.91</course>
  <speed>0.8348652585896721</speed>
  <fix>3d</fix>
</trkpt>
<trkpt lat="33.8106846" lon="-118.3938105">
  <ele>-25.161</ele>
  <time>2026-09-02T22:11:32Z</time>
  <course>19.91</course>
  <speed>0.8348652585896721</speed>
  <fix>3d</fix>
</trkpt>
<trkpt lat="33.8106846" lon="-118.3938105">
  <ele>-25.161</ele>
  <time>2026-09-02T22:11:32Z</time>
  <course>19.91</course>
  <speed>0.8348652585896721</speed>
  <fix>3d</fix>
</trkpt>
<trkpt lat="33.8106847" lon="-118.3938104">
  <ele>-25.161</ele>
  <time>2026-09-02T22:11:32Z</time>
  <course>19.91</course>
  <speed>0.8348652585896721</speed>
  <fix>3d</fix>
</trkpt>
<trkpt lat="33.8106847" lon="-118.3938104">
  <ele>-25.161</ele>
  <time>2026-09-02T22:11:32Z</time>
  <course>19.91</course>
  <speed>0.8348652585896721</speed>
  <fix>3d</fix>
</trkpt>
<trkpt lat="33.8106848" lon="-118.3938103">
  <ele>-25.161</ele>
  <time>2026-09-02T22:11:32Z</time>
  <course>19.91</course>
  <speed>0.8348652585896721</speed>
  <fix>3d</fix>
</trkpt>
<trkpt lat="33.8106848" lon="-118.3938103">
  <ele>-25.161</ele>
  <time>2026-09-02T22:11:32Z</time>
  <course>19.91</course>
  <speed>0.8348652585896721</speed>
  <fix>3d</fix>
</trkpt>
<trkpt lat="33.8106848" lon="-118.3938102">
  <ele>-25.16</ele>
  <time>2026-09-02T22:11:32Z</time>
  <course>19.92</course>
  <speed>0.8348652585896721</speed>
  <fix>3d</fix>
</trkpt>
<trkpt lat="33.8106849" lon="-118.3938102">
  <ele>-25.16</ele>
  <time>2026-09-02T22:11:32Z</time>
  <course>19.92</course>
  <speed>0.8348652585896721</speed>
  <fix>3d</fix>
</trkpt>
<trkpt lat="33.8106849" lon="-118.3938102">
  <ele>-25.16</ele>
  <time>2026-09-02T22:11:32Z</time>
  <course>19.92</course>
  <speed>0.8348652585896721</speed>
  <fix>3d</fix>
</trkpt>
<trkpt lat="33.8106838" lon="-118.3938119">
  <ele>-24.55</ele>
  <time>2026-09-02T22:11:32Z</time>
  <course>44.87</course>
  <speed>0.84</speed>
  <fix>3d</fix>
</trkpt>
<trkpt lat="33.8106849" lon="-118.3938101">
  <ele>-25.16</ele>
  <time>2026-09-02T22:11:32Z</time>
  <course>19.92</course>
  <speed>0.8348652585896721</speed>
  <fix>3d</fix>
</trkpt>
<trkpt lat="33.810685" lon="-118.39381">
  <ele>-25.16</ele>
  <time>2026-09-02T22:11:32Z</time>
  <course>19.92</course>
  <speed>0.8348652585896721</speed>
  <fix>3d</fix>
</trkpt>
<trkpt lat="33.810685" lon="-118.39381">
  <ele>-25.16</ele>
  <time>2026-09-02T22:11:32Z</time>
  <course>19.92</course>
  <speed>0.8348652585896721</speed>
  <fix>3d</fix>
</trkpt>
<trkpt lat="33.8106851" lon="-118.3938099">
  <ele>-25.16</ele>
  <time>2026-09-02T22:11:32Z</time>
  <course>19.92</course>
  <speed>0.8348652585896721</speed>
  <fix>3d</fix>
</trkpt>
<trkpt lat="33.8106851" lon="-118.3938099">
  <ele>-25.16</ele>
  <time>2026-09-02T22:11:32Z</time>
  <course>19.92</course>
  <speed>0.8348652585896721</speed>
  <fix>3d</fix>
</trkpt>
<trkpt lat="33.8106852" lon="-118.3938098">
  <ele>-25.16</ele>
  <time>2026-09-02T22:11:32Z</time>
  <course>19.92</course>
  <speed>0.8348652585896721</speed>
  <fix>3d</fix>
</trkpt>
<trkpt lat="33.8106852" lon="-118.3938098">
  <ele>-25.16</ele>
  <time>2026-09-02T22:11:32Z</time>
  <course>19.92</course>
  <speed>0.8348652585896721</speed>
  <fix>3d</fix>
</trkpt>
<trkpt lat="33.8106852" lon="-118.3938097">
  <ele>-25.16</ele>
  <time>2026-09-02T22:11:32Z</time>
  <course>19.92</course>
  <speed>0.8348652585896721</speed>
  <fix>3d</fix>
</trkpt>
<trkpt lat="33.8106853" lon="-118.3938097">
  <ele>-25.16</ele>
  <time>2026-09-02T22:11:32Z</time>
  <course>19.92</course>
  <speed>0.8348652585896721</speed>
  <fix>3d</fix>
</trkpt>
<trkpt lat="33.8106853" lon="-118.3938096">
  <ele>-25.16</ele>
  <time>2026-09-02T22:11:32Z</time>
  <course>19.92</course>
  <speed>0.8348652585896721</speed>
  <fix>3d</fix>
</trkpt>
<trkpt lat="33.8106854" lon="-118.3938096">
  <ele>-25.16</ele>
  <time>2026-09-02T22:11:32Z</time>
  <course>19.92</course>
  <speed>0.8348652585896721</speed>
  <fix>3d</fix>
</trkpt>
<trkpt lat="33.8106854" lon="-118.3938095">
  <ele>-25.16</ele>
  <time>2026-09-02T22:11:32Z</time>
  <course>19.92</course>
  <speed>0.8348652585896721</speed>
  <fix>3d</fix>
</trkpt>
<trkpt lat="33.8106854" lon="-118.3938095">
  <ele>-25.16</ele>
  <time>2026-09-02T22:11:32Z</time>
  <course>19.92</course>
  <speed>0.8348652585896721</speed>
  <fix>3d</fix>
</trkpt>
<trkpt lat="33.8106849" lon="-118.3938106">
  <ele>-24.55</ele>
  <time>2026-09-02T22:11:32Z</time>
  <course>44.85</course>
  <speed>0.84</speed>
  <fix>3d</fix>
</trkpt>
<trkpt lat="33.8106854" lon="-118.3938095">
  <ele>-25.16</ele>
  <time>2026-09-02T22:11:32Z</time>
  <course>19.92</course>
  <speed>0.8348652585896721</speed>
  <fix>3d</fix>
</trkpt>
<trkpt lat="33.8106855" lon="-118.3938094">
  <ele>-25.16</ele>
  <time>2026-09-02T22:11:32Z</time>
  <course>19.92</course>
  <speed>0.8421995013059553</speed>
  <fix>3d</fix>
</trkpt>
<trkpt lat="33.8106855" lon="-118.3938094">
  <ele>-25.16</ele>
  <time>2026-09-02T22:11:32Z</time>
  <course>19.92</course>
  <speed>0.8421995013059553</speed>
  <fix>3d</fix>
</trkpt>
<trkpt lat="33.8106856" lon="-118.3938093">
  <ele>-25.16</ele>
  <time>2026-09-02T22:11:32Z</time>
  <course>19.92</course>
  <speed>0.8421995013059553</speed>
  <fix>3d</fix>
</trkpt>
<trkpt lat="33.8106856" lon="-118.3938093">
  <ele>-25.16</ele>
  <time>2026-09-02T22:11:32Z</time>
  <course>19.92</course>
  <speed>0.8421995013059553</speed>
  <fix>3d</fix>
</trkpt>
<trkpt lat="33.8106857" lon="-118.3938092">
  <ele>-25.16</ele>
  <time>2026-09-02T22:11:32Z</time>
  <course>19.92</course>
  <speed>0.8421995013059553</speed>
  <fix>3d</fix>
</trkpt>
<trkpt lat="33.8106857" lon="-118.3938092">
  <ele>-25.16</ele>
  <time>2026-09-02T22:11:32Z</time>
  <course>19.92</course>
  <speed>0.8421995013059553</speed>
  <fix>3d</fix>
</trkpt>
<trkpt lat="33.8106858" lon="-118.3938091">
  <ele>-25.16</ele>
  <time>2026-09-02T22:11:32Z</time>
  <course>19.92</course>
  <speed>0.8421995013059553</speed>
  <fix>3d</fix>
</trkpt>
<trkpt lat="33.8106858" lon="-118.3938091">
  <ele>-25.16</ele>
  <time>2026-09-02T22:11:32Z</time>
  <course>19.92</course>
  <speed>0.8421995013059553</speed>
  <fix>3d</fix>
</trkpt>
<trkpt lat="33.8106858" lon="-118.393809">
  <ele>-25.16</ele>
  <time>2026-09-02T22:11:32Z</time>
  <course>19.91</course>
  <speed>0.8421995013059553</speed>
  <fix>3d</fix>
</trkpt>
<trkpt lat="33.8106859" lon="-118.393809">
  <ele>-25.16</ele>
  <time>2026-09-02T22:11:32Z</time>
  <course>19.91</course>
  <speed>0.8421995013059553</speed>
  <fix>3d</fix>
</trkpt>
<trkpt lat="33.8106859" lon="-118.3938089">
  <ele>-25.16</ele>
  <time>2026-09-02T22:11:32Z</time>
  <course>19.91</course>
  <speed>0.8421995013059553</speed>
  <fix>3d</fix>
</trkpt>
<trkpt lat="33.810686" lon="-118.3938089">
  <ele>-25.16</ele>
  <time>2026-09-02T22:11:32Z</time>
  <course>19.91</course>
  <speed>0.8421995013059553</speed>
  <fix>3d</fix>
</trkpt>
<trkpt lat="33.8106849" lon="-118.3938106">
  <ele>-24.55</ele>
  <time>2026-09-02T22:11:32Z</time>
  <course>44.85</course>
  <speed>0.84</speed>
  <fix>3d</fix>
</trkpt>
<trkpt lat="33.810686" lon="-118.3938088">
  <ele>-25.16</ele>
  <time>2026-09-02T22:11:32Z</time>
  <course>19.91</course>
  <speed>0.8421995013059553</speed>
  <fix>3d</fix>
</trkpt>
<trkpt lat="33.810686" lon="-118.3938088">
  <ele>-25.159</ele>
  <time>2026-09-02T22:11:32Z</time>
  <course>19.91</course>
  <speed>0.8421995013059553</speed>
  <fix>3d</fix>
</trkpt>
<trkpt lat="33.8106861" lon="-118.3938087">
  <ele>-25.159</ele>
  <time>2026-09-02T22:11:32Z</time>
  <course>19.91</course>
  <speed>0.8421995013059553</speed>
  <fix>3d</fix>
</trkpt>
<trkpt lat="33.8106861" lon="-118.3938086">
  <ele>-25.159</ele>
  <time>2026-09-02T22:11:32Z</time>
  <course>19.91</course>
  <speed>0.8421995013059553</speed>
  <fix>3d</fix>
</trkpt>
<trkpt lat="33.8106862" lon="-118.3938086">
  <ele>-25.159</ele>
  <time>2026-09-02T22:11:32Z</time>
  <course>19.91</course>
  <speed>0.8421995013059553</speed>
  <fix>3d</fix>
</trkpt>
<trkpt lat="33.8106863" lon="-118.3938085">
  <ele>-25.159</ele>
  <time>2026-09-02T22:11:32Z</time>
  <course>19.91</course>
  <speed>0.8489994110716449</speed>
  <fix>3d</fix>
</trkpt>
<trkpt lat="33.8106863" lon="-118.3938084">
  <ele>-25.158</ele>
  <time>2026-09-02T22:11:32Z</time>
  <course>19.91</course>
  <speed>0.8489994110716449</speed>
  <fix>3d</fix>
</trkpt>
<trkpt lat="33.8106864" lon="-118.3938084">
  <ele>-25.158</ele>
  <time>2026-09-02T22:11:32Z</time>
  <course>19.91</course>
  <speed>0.8489994110716449</speed>
  <fix>3d</fix>
</trkpt>
<trkpt lat="33.8106864" lon="-118.3938083">
  <ele>-25.158</ele>
  <time>2026-09-02T22:11:32Z</time>
  <course>19.91</course>
  <speed>0.8489994110716449</speed>
  <fix>3d</fix>
</trkpt>
<trkpt lat="33.8106864" lon="-118.3938083">
  <ele>-25.158</ele>
  <time>2026-09-02T22:11:32Z</time>
  <course>19.91</course>
  <speed>0.8489994110716449</speed>
  <fix>3d</fix>
</trkpt>
<trkpt lat="33.8106865" lon="-118.3938082">
  <ele>-25.158</ele>
  <time>2026-09-02T22:11:32Z</time>
  <course>19.91</course>
  <speed>0.8489994110716449</speed>
  <fix>3d</fix>
</trkpt>
<trkpt lat="33.8106865" lon="-118.3938082">
  <ele>-25.158</ele>
  <time>2026-09-02T22:11:32Z</time>
  <course>19.91</course>
  <speed>0.8489994110716449</speed>
  <fix>3d</fix>
</trkpt>
<trkpt lat="33.810686" lon="-118.3938093">
  <ele>-24.55</ele>
  <time>2026-09-02T22:11:32Z</time>
  <course>44.84</course>
  <speed>0.85</speed>
  <fix>3d</fix>
</trkpt>
<trkpt lat="33.8106865" lon="-118.3938082">
  <ele>-25.158</ele>
  <time>2026-09-02T22:11:32Z</time>
  <course>19.91</course>
  <speed>0.8489994110716449</speed>
  <fix>3d</fix>
</trkpt>
<trkpt lat="33.8106866" lon="-118.3938081">
  <ele>-25.157</ele>
  <time>2026-09-02T22:11:32Z</time>
  <course>19.91</course>
  <speed>0.8489994110716449</speed>
  <fix>3d</fix>
</trkpt>
<trkpt lat="33.8106866" lon="-118.3938081">
  <ele>-25.157</ele>
  <time>2026-09-02T22:11:32Z</time>
  <course>19.91</course>
  <speed>0.8489994110716449</speed>
  <fix>3d</fix>
</trkpt>
<trkpt lat="33.8106867" lon="-118.393808">
  <ele>-25.157</ele>
  <time>2026-09-02T22:11:32Z</time>
  <course>19.91</course>
  <speed>0.8489994110716449</speed>
  <fix>3d</fix>
</trkpt>
<trkpt lat="33.8106867" lon="-118.393808">
  <ele>-25.157</ele>
  <time>2026-09-02T22:11:32Z</time>
  <course>19.91</course>
  <speed>0.8489994110716449</speed>
  <fix>3d</fix>
</trkpt>
<trkpt lat="33.8106867" lon="-118.3938079">
  <ele>-25.157</ele>
  <time>2026-09-02T22:11:32Z</time>
  <course>19.91</course>
  <speed>0.8489994110716449</speed>
  <fix>3d</fix>
</trkpt>
<trkpt lat="33.8106868" lon="-118.3938079">
  <ele>-25.156</ele>
  <time>2026-09-02T22:11:32Z</time>
  <course>19.91</course>
  <speed>0.8489994110716449</speed>
  <fix>3d</fix>
</trkpt>
<trkpt lat="33.8106868" lon="-118.3938078">
  <ele>-25.156</ele>
  <time>2026-09-02T22:11:32Z</time>
  <course>19.91</course>
  <speed>0.8489994110716449</speed>
  <fix>3d</fix>
</trkpt>
<trkpt lat="33.8106869" lon="-118.3938078">
  <ele>-25.156</ele>
  <time>2026-09-02T22:11:32Z</time>
  <course>19.92</course>
  <speed>0.8489994110716449</speed>
  <fix>3d</fix>
</trkpt>
<trkpt lat="33.8106869" lon="-118.3938077">
  <ele>-25.156</ele>
  <time>2026-09-02T22:11:32Z</time>
  <course>19.92</course>
  <speed>0.8489994110716449</speed>
  <fix>3d</fix>
</trkpt>
<trkpt lat="33.8106869" lon="-118.3938077">
  <ele>-25.156</ele>
  <time>2026-09-02T22:11:32Z</time>
  <course>19.92</course>
  <speed>0.8489994110716449</speed>
  <fix>3d</fix>
</trkpt>
<trkpt lat="33.810687" lon="-118.3938076">
  <ele>-25.156</ele>
  <time>2026-09-02T22:11:32Z</time>
  <course>19.92</course>
  <speed>0.8489994110716449</speed>
  <fix>3d</fix>
</trkpt>
<trkpt lat="33.810687" lon="-118.3938076">
  <ele>-25.155</ele>
  <time>2026-09-02T22:11:32Z</time>
  <course>19.92</course>
  <speed>0.8489994110716449</speed>
  <fix>3d</fix>
</trkpt>
<trkpt lat="33.810687" lon="-118.3938076">
  <ele>-25.155</ele>
  <time>2026-09-02T22:11:32Z</time>
  <course>19.92</course>
  <speed>0.8489994110716449</speed>
  <fix>3d</fix>
</trkpt>
<trkpt lat="33.810686" lon="-118.3938093">
  <ele>-24.55</ele>
  <time>2026-09-02T22:11:32Z</time>
  <course>44.84</course>
  <speed>0.85</speed>
  <fix>3d</fix>
</trkpt>
<trkpt lat="33.8106871" lon="-118.3938075">
  <ele>-25.155</ele>
  <time>2026-09-02T22:11:32Z</time>
  <course>19.92</course>
  <speed>0.8489994110716449</speed>
  <fix>3d</fix>
</trkpt>
<trkpt lat="33.8106871" lon="-118.3938075">
  <ele>-25.155</ele>
  <time>2026-09-02T22:11:32Z</time>
  <course>19.92</course>
  <speed>0.8489994110716449</speed>
  <fix>3d</fix>
</trkpt>
<trkpt lat="33.8106872" lon="-118.3938074">
  <ele>-25.155</ele>
  <time>2026-09-02T22:11:32Z</time>
  <course>19.92</course>
  <speed>0.8489994110716449</speed>
  <fix>3d</fix>
</trkpt>
<trkpt lat="33.8106872" lon="-118.3938074">
  <ele>-25.155</ele>
  <time>2026-09-02T22:11:32Z</time>
  <course>19.92</course>
  <speed>0.8489994110716449</speed>
  <fix>3d</fix>
</trkpt>
<trkpt lat="33.8106873" lon="-118.3938073">
  <ele>-25.154</ele>
  <time>2026-09-02T22:11:32Z</time>
  <course>19.92</course>
  <speed>0.8489994110716449</speed>
  <fix>3d</fix>
</trkpt>
<trkpt lat="33.8106873" lon="-118.3938073">
  <ele>-25.154</ele>
  <time>2026-09-02T22:11:32Z</time>
  <course>19.92</course>
  <speed>0.8489994110716449</speed>
  <fix>3d</fix>
</trkpt>
<trkpt lat="33.8106874" lon="-118.3938072">
  <ele>-25.154</ele>
  <time>2026-09-02T22:11:32Z</time>
  <course>19.92</course>
  <speed>0.8489994110716449</speed>
  <fix>3d</fix>
</trkpt>
<trkpt lat="33.8106874" lon="-118.3938071">
  <ele>-25.154</ele>
  <time>2026-09-02T22:11:32Z</time>
  <course>19.92</course>
  <speed>0.8489994110716449</speed>
  <fix>3d</fix>
</trkpt>
<trkpt lat="33.8106874" lon="-118.3938071">
  <ele>-25.154</ele>
  <time>2026-09-02T22:11:32Z</time>
  <course>19.92</course>
  <speed>0.8489994110716449</speed>
  <fix>3d</fix>
</trkpt>
<trkpt lat="33.8106875" lon="-118.393807">
  <ele>-25.154</ele>
  <time>2026-09-02T22:11:32Z</time>
  <course>19.92</course>
  <speed>0.8489994110716449</speed>
  <fix>3d</fix>
</trkpt>
<trkpt lat="33.8106875" lon="-118.393807">
  <ele>-25.153</ele>
  <time>2026-09-02T22:11:32Z</time>
  <course>19.92</course>
  <speed>0.8489994110716449</speed>
  <fix>3d</fix>
</trkpt>
<trkpt lat="33.8106876" lon="-118.393807">
  <ele>-25.153</ele>
  <time>2026-09-02T22:11:32Z</time>
  <course>19.92</course>
  <speed>0.8489994110716449</speed>
  <fix>3d</fix>
</trkpt>
<trkpt lat="33.8106876" lon="-118.3938069">
  <ele>-25.153</ele>
  <time>2026-09-02T22:11:32Z</time>
  <course>19.92</course>
  <speed>0.8489994110716449</speed>
  <fix>3d</fix>
</trkpt>
<trkpt lat="33.8106871" lon="-118.393808">
  <ele>-24.55</ele>
  <time>2026-09-02T22:11:32Z</time>
  <course>44.83</course>
  <speed>0.85</speed>
  <fix>3d</fix>
</trkpt>
<trkpt lat="33.8106876" lon="-118.3938069">
  <ele>-25.153</ele>
  <time>2026-09-02T22:11:32Z</time>
  <course>19.92</course>
  <speed>0.8489994110716449</speed>
  <fix>3d</fix>
</trkpt>
<trkpt lat="33.8106877" lon="-118.3938068">
  <ele>-25.153</ele>
  <time>2026-09-02T22:11:32Z</time>
  <course>19.92</course>
  <speed>0.8489994110716449</speed>
  <fix>3d</fix>
</trkpt>
<trkpt lat="33.8106877" lon="-118.3938068">
  <ele>-25.153</ele>
  <time>2026-09-02T22:11:32Z</time>
  <course>19.92</course>
  <speed>0.8489994110716449</speed>
  <fix>3d</fix>
</trkpt>
<trkpt lat="33.8106878" lon="-118.3938067">
  <ele>-25.152</ele>
  <time>2026-09-02T22:11:32Z</time>
  <course>19.92</course>
  <speed>0.8489994110716449</speed>
  <fix>3d</fix>
</trkpt>
<trkpt lat="33.8106878" lon="-118.3938066">
  <ele>-25.152</ele>
  <time>2026-09-02T22:11:32Z</time>
  <course>19.92</course>
  <speed>0.8489994110716449</speed>
  <fix>3d</fix>
</trkpt>
<trkpt lat="33.8106879" lon="-118.3938066">
  <ele>-25.152</ele>
  <time>2026-09-02T22:11:32Z</time>
  <course>19.92</course>
  <speed>0.8489994110716449</speed>
  <fix>3d</fix>
</trkpt>
<trkpt lat="33.8106879" lon="-118.3938065">
  <ele>-25.152</ele>
  <time>2026-09-02T22:11:32Z</time>
  <course>19.92</course>
  <speed>0.8489994110716449</speed>
  <fix>3d</fix>
</trkpt>
<trkpt lat="33.8106879" lon="-118.3938065">
  <ele>-25.152</ele>
  <time>2026-09-02T22:11:32Z</time>
  <course>19.92</course>
  <speed>0.8489994110716449</speed>
  <fix>3d</fix>
</trkpt>
<trkpt lat="33.810688" lon="-118.3938064">
  <ele>-25.152</ele>
  <time>2026-09-02T22:11:32Z</time>
  <course>19.92</course>
  <speed>0.8489994110716449</speed>
  <fix>3d</fix>
</trkpt>
<trkpt lat="33.810688" lon="-118.3938064">
  <ele>-25.152</ele>
  <time>2026-09-02T22:11:32Z</time>
  <course>19.92</course>
  <speed>0.8489994110716449</speed>
  <fix>3d</fix>
</trkpt>
<trkpt lat="33.8106881" lon="-118.3938063">
  <ele>-25.152</ele>
  <time>2026-09-02T22:11:32Z</time>
  <course>19.92</course>
  <speed>0.8489994110716449</speed>
  <fix>3d</fix>
</trkpt>
<trkpt lat="33.8106881" lon="-118.3938063">
  <ele>-25.152</ele>
  <time>2026-09-02T22:11:32Z</time>
  <course>19.92</course>
  <speed>0.8489994110716449</speed>
  <fix>3d</fix>
</trkpt>
<trkpt lat="33.8106881" lon="-118.3938062">
  <ele>-25.152</ele>
  <time>2026-09-02T22:11:32Z</time>
  <course>19.92</course>
  <speed>0.8489994110716449</speed>
  <fix>3d</fix>
</trkpt>
<trkpt lat="33.8106881" lon="-118.3938062">
  <ele>-25.152</ele>
  <time>2026-09-02T22:11:32Z</time>
  <course>19.92</course>
  <speed>0.8489994110716449</speed>
  <fix>3d</fix>
</trkpt>
<trkpt lat="33.8106871" lon="-118.393808">
  <ele>-24.55</ele>
  <time>2026-09-02T22:11:32Z</time>
  <course>44.83</course>
  <speed>0.85</speed>
  <fix>3d</fix>
</trkpt>
<trkpt lat="33.8106883" lon="-118.3938061">
  <ele>-25.151</ele>
  <time>2026-09-02T22:11:32Z</time>
  <course>19.91</course>
  <speed>0.8489994110716449</speed>
  <fix>3d</fix>
</trkpt>
<trkpt lat="33.8106883" lon="-118.3938061">
  <ele>-25.151</ele>
  <time>2026-09-02T22:11:32Z</time>
  <course>19.91</course>
  <speed>0.8489994110716449</speed>
  <fix>3d</fix>
</trkpt>
<trkpt lat="33.8106884" lon="-118.393806">
  <ele>-25.151</ele>
  <time>2026-09-02T22:11:32Z</time>
  <course>19.91</course>
  <speed>0.8489994110716449</speed>
  <fix>3d</fix>
</trkpt>
<trkpt lat="33.8106884" lon="-118.3938059">
  <ele>-25.151</ele>
  <time>2026-09-02T22:11:32Z</time>
  <course>19.91</course>
  <speed>0.8489994110716449</speed>
  <fix>3d</fix>
</trkpt>
<trkpt lat="33.8106884" lon="-118.3938059">
  <ele>-25.151</ele>
  <time>2026-09-02T22:11:32Z</time>
  <course>19.91</course>
  <speed>0.8489994110716449</speed>
  <fix>3d</fix>
</trkpt>
<trkpt lat="33.8106885" lon="-118.3938058">
  <ele>-25.151</ele>
  <time>2026-09-02T22:11:32Z</time>
  <course>19.91</course>
  <speed>0.8489994110716449</speed>
  <fix>3d</fix>
</trkpt>
<trkpt lat="33.8106885" lon="-118.3938058">
  <ele>-25.151</ele>
  <time>2026-09-02T22:11:32Z</time>
  <course>19.91</course>
  <speed>0.8489994110716449</speed>
  <fix>3d</fix>
</trkpt>
<trkpt lat="33.8106886" lon="-118.3938057">
  <ele>-25.151</ele>
  <time>2026-09-02T22:11:32Z</time>
  <course>19.91</course>
  <speed>0.8489994110716449</speed>
  <fix>3d</fix>
</trkpt>
<trkpt lat="33.8106886" lon="-118.3938057">
  <ele>-25.151</ele>
  <time>2026-09-02T22:11:32Z</time>
  <course>19.91</course>
  <speed>0.8489994110716449</speed>
  <fix>3d</fix>
</trkpt>
<trkpt lat="33.8106887" lon="-118.3938056">
  <ele>-25.151</ele>
  <time>2026-09-02T22:11:32Z</time>
  <course>19.91</course>
  <speed>0.8489994110716449</speed>
  <fix>3d</fix>
</trkpt>
<trkpt lat="33.8106887" lon="-118.3938056">
  <ele>-25.151</ele>
  <time>2026-09-02T22:11:32Z</time>
  <course>19.91</course>
  <speed>0.8489994110716449</speed>
  <fix>3d</fix>
</trkpt>
<trkpt lat="33.8106882" lon="-118.3938067">
  <ele>-24.55</ele>
  <time>2026-09-02T22:11:32Z</time>
  <course>44.84</course>
  <speed>0.85</speed>
  <fix>3d</fix>
</trkpt>
<trkpt lat="33.8106887" lon="-118.3938056">
  <ele>-25.151</ele>
  <time>2026-09-02T22:11:32Z</time>
  <course>19.91</course>
  <speed>0.8489994110716449</speed>
  <fix>3d</fix>
</trkpt>
<trkpt lat="33.8106888" lon="-118.3938055">
  <ele>-25.151</ele>
  <time>2026-09-02T22:11:32Z</time>
  <course>19.91</course>
  <speed>0.8489994110716449</speed>
  <fix>3d</fix>
</trkpt>
<trkpt lat="33.8106888" lon="-118.3938054">
  <ele>-25.151</ele>
  <time>2026-09-02T22:11:32Z</time>
  <course>19.91</course>
  <speed>0.8489994110716449</speed>
  <fix>3d</fix>
</trkpt>
<trkpt lat="33.8106889" lon="-118.3938054">
  <ele>-25.151</ele>
  <time>2026-09-02T22:11:32Z</time>
  <course>19.91</course>
  <speed>0.8489994110716449</speed>
  <fix>3d</fix>
</trkpt>
<trkpt lat="33.8106889" lon="-118.3938053">
  <ele>-25.151</ele>
  <time>2026-09-02T22:11:32Z</time>
  <course>19.91</course>
  <speed>0.8489994110716449</speed>
  <fix>3d</fix>
</trkpt>
<trkpt lat="33.810689" lon="-118.3938052">
  <ele>-25.151</ele>
  <time>2026-09-02T22:11:32Z</time>
  <course>19.91</course>
  <speed>0.8489994110716449</speed>
  <fix>3d</fix>
</trkpt>
<trkpt lat="33.810689" lon="-118.3938052">
  <ele>-25.151</ele>
  <time>2026-09-02T22:11:32Z</time>
  <course>19.91</course>
  <speed>0.8489994110716449</speed>
  <fix>3d</fix>
</trkpt>
<trkpt lat="33.8106891" lon="-118.3938052">
  <ele>-25.151</ele>
  <time>2026-09-02T22:11:32Z</time>
  <course>19.91</course>
  <speed>0.8489994110716449</speed>
  <fix>3d</fix>
</trkpt>
<trkpt lat="33.8106891" lon="-118.3938051">
  <ele>-25.151</ele>
  <time>2026-09-02T22:11:32Z</time>
  <course>19.91</course>
  <speed>0.8489994110716449</speed>
  <fix>3d</fix>
</trkpt>
<trkpt lat="33.8106892" lon="-118.393805">
  <ele>-25.151</ele>
  <time>2026-09-02T22:11:32Z</time>
  <course>19.91</course>
  <speed>0.8489994110716449</speed>
  <fix>3d</fix>
</trkpt>
<trkpt lat="33.8106892" lon="-118.393805">
  <ele>-25.151</ele>
  <time>2026-09-02T22:11:32Z</time>
  <course>19.91</course>
  <speed>0.8489994110716449</speed>
  <fix>3d</fix>
</trkpt>
<trkpt lat="33.8106892" lon="-118.3938049">
  <ele>-25.151</ele>
  <time>2026-09-02T22:11:32Z</time>
  <course>19.91</course>
  <speed>0.8489994110716449</speed>
  <fix>3d</fix>
</trkpt>
<trkpt lat="33.8106882" lon="-118.3938067">
  <ele>-24.55</ele>
  <time>2026-09-02T22:11:32Z</time>
  <course>44.84</course>
  <speed>0.85</speed>
  <fix>3d</fix>
</trkpt>
<trkpt lat="33.8106893" lon="-118.3938049">
  <ele>-25.151</ele>
  <time>2026-09-02T22:11:32Z</time>
  <course>19.91</course>
  <speed>0.8489994110716449</speed>
  <fix>3d</fix>
</trkpt>
<trkpt lat="33.8106893" lon="-118.3938048">
  <ele>-25.151</ele>
  <time>2026-09-02T22:11:32Z</time>
  <course>19.91</course>
  <speed>0.8489994110716449</speed>
  <fix>3d</fix>
</trkpt>
<trkpt lat="33.8106894" lon="-118.3938048">
  <ele>-25.151</ele>
  <time>2026-09-02T22:11:32Z</time>
  <course>19.91</course>
  <speed>0.8489994110716449</speed>
  <fix>3d</fix>
</trkpt>
<trkpt lat="33.8106894" lon="-118.3938047">
  <ele>-25.151</ele>
  <time>2026-09-02T22:11:32Z</time>
  <course>19.91</course>
  <speed>0.8489994110716449</speed>
  <fix>3d</fix>
</trkpt>
<trkpt lat="33.8106895" lon="-118.3938047">
  <ele>-25.151</ele>
  <time>2026-09-02T22:11:32Z</time>
  <course>19.91</course>
  <speed>0.8489994110716449</speed>
  <fix>3d</fix>
</trkpt>
<trkpt lat="33.8106895" lon="-118.3938046">
  <ele>-25.151</ele>
  <time>2026-09-02T22:11:32Z</time>
  <course>19.91</course>
  <speed>0.8489994110716449</speed>
  <fix>3d</fix>
</trkpt>
<trkpt lat="33.8106896" lon="-118.3938046">
  <ele>-25.151</ele>
  <time>2026-09-02T22:11:32Z</time>
  <course>19.91</course>
  <speed>0.8489994110716449</speed>
  <fix>3d</fix>
</trkpt>
<trkpt lat="33.8106896" lon="-118.3938045">
  <ele>-25.151</ele>
  <time>2026-09-02T22:11:32Z</time>
  <course>19.91</course>
  <speed>0.8489994110716449</speed>
  <fix>3d</fix>
</trkpt>
<trkpt lat="33.8106896" lon="-118.3938045">
  <ele>-25.151</ele>
  <time>2026-09-02T22:11:32Z</time>
  <course>19.91</course>
  <speed>0.8489994110716449</speed>
  <fix>3d</fix>
</trkpt>
<trkpt lat="33.8106897" lon="-118.3938044">
  <ele>-25.151</ele>
  <time>2026-09-02T22:11:32Z</time>
  <course>19.91</course>
  <speed>0.8489994110716449</speed>
  <fix>3d</fix>
</trkpt>
<trkpt lat="33.8106897" lon="-118.3938043">
  <ele>-25.151</ele>
  <time>2026-09-02T22:11:32Z</time>
  <course>19.91</course>
  <speed>0.8489994110716449</speed>
  <fix>3d</fix>
</trkpt>
<trkpt lat="33.8106898" lon="-118.3938043">
  <ele>-25.151</ele>
  <time>2026-09-02T22:11:32Z</time>
  <course>19.91</course>
  <speed>0.8489994110716449</speed>
  <fix>3d</fix>
</trkpt>
<trkpt lat="33.8106898" lon="-118.3938043">
  <ele>-25.151</ele>
  <time>2026-09-02T22:11:32Z</time>
  <course>19.91</course>
  <speed>0.8489994110716449</speed>
  <fix>3d</fix>
</trkpt>
<trkpt lat="33.8106893" lon="-118.3938054">
  <ele>-24.55</ele>
  <time>2026-09-02T22:11:32Z</time>
  <course>44.87</course>
  <speed>0.85</speed>
  <fix>3d</fix>
</trkpt>
<trkpt lat="33.8106898" lon="-118.3938043">
  <ele>-25.151</ele>
  <time>2026-09-02T22:11:32Z</time>
  <course>19.91</course>
  <speed>0.8489994110716449</speed>
  <fix>3d</fix>
</trkpt>
<trkpt lat="33.8106899" lon="-118.3938042">
  <ele>-25.151</ele>
  <time>2026-09-02T22:11:32Z</time>
  <course>19.91</course>
  <speed>0.8489994110716449</speed>
  <fix>3d</fix>
</trkpt>
<trkpt lat="33.8106899" lon="-118.3938041">
  <ele>-25.151</ele>
  <time>2026-09-02T22:11:32Z</time>
  <course>19.91</course>
  <speed>0.8489994110716449</speed>
  <fix>3d</fix>
</trkpt>
<trkpt lat="33.81069" lon="-118.3938041">
  <ele>-25.151</ele>
  <time>2026-09-02T22:11:32Z</time>
  <course>19.91</course>
  <speed>0.8489994110716449</speed>
  <fix>3d</fix>
</trkpt>
<trkpt lat="33.81069" lon="-118.393804">
  <ele>-25.151</ele>
  <time>2026-09-02T22:11:32Z</time>
  <course>19.91</course>
  <speed>0.8489994110716449</speed>
  <fix>3d</fix>
</trkpt>
<trkpt lat="33.8106901" lon="-118.393804">
  <ele>-25.151</ele>
  <time>2026-09-02T22:11:32Z</time>
  <course>19.91</course>
  <speed>0.8489994110716449</speed>
  <fix>3d</fix>
</trkpt>
<trkpt lat="33.8106901" lon="-118.3938039">
  <ele>-25.151</ele>
  <time>2026-09-02T22:11:32Z</time>
  <course>19.91</course>
  <speed>0.8489994110716449</speed>
  <fix>3d</fix>
</trkpt>
<trkpt lat="33.8106902" lon="-118.3938038">
  <ele>-25.151</ele>
  <time>2026-09-02T22:11:32Z</time>
  <course>19.92</course>
  <speed>0.8489994110716449</speed>
  <fix>3d</fix>
</trkpt>
<trkpt lat="33.8106902" lon="-118.3938038">
  <ele>-25.151</ele>
  <time>2026-09-02T22:11:32Z</time>
  <course>19.92</course>
  <speed>0.8489994110716449</speed>
  <fix>3d</fix>
</trkpt>
<trkpt lat="33.8106903" lon="-118.3938037">
  <ele>-25.151</ele>
  <time>2026-09-02T22:11:32Z</time>
  <course>19.92</course>
  <speed>0.8489994110716449</speed>
  <fix>3d</fix>
</trkpt>
<trkpt lat="33.8106903" lon="-118.3938037">
  <ele>-25.151</ele>
  <time>2026-09-02T22:11:32Z</time>
  <course>19.92</course>
  <speed>0.8489994110716449</speed>
  <fix>3d</fix>
</trkpt>
<trkpt lat="33.8106903" lon="-118.3938036">
  <ele>-25.151</ele>
  <time>2026-09-02T22:11:32Z</time>
  <course>19.92</course>
  <speed>0.8489994110716449</speed>
  <fix>3d</fix>
</trkpt>
<trkpt lat="33.8106903" lon="-118.3938036">
  <ele>-25.151</ele>
  <time>2026-09-02T22:11:32Z</time>
  <course>19.92</course>
  <speed>0.8489994110716449</speed>
  <fix>3d</fix>
</trkpt>
<trkpt lat="33.8106893" lon="-118.3938054">
  <ele>-24.55</ele>
  <time>2026-09-02T22:11:32Z</time>
  <course>44.87</course>
  <speed>0.85</speed>
  <fix>3d</fix>
</trkpt>
<trkpt lat="33.8106904" lon="-118.3938035">
  <ele>-25.151</ele>
  <time>2026-09-02T22:11:32Z</time>
  <course>19.92</course>
  <speed>0.8489994110716449</speed>
  <fix>3d</fix>
</trkpt>
<trkpt lat="33.8106905" lon="-118.3938035">
  <ele>-25.151</ele>
  <time>2026-09-02T22:11:32Z</time>
  <course>19.92</course>
  <speed>0.8489994110716449</speed>
  <fix>3d</fix>
</trkpt>
<trkpt lat="33.8106905" lon="-118.3938034">
  <ele>-25.151</ele>
  <time>2026-09-02T22:11:32Z</time>
  <course>19.92</course>
  <speed>0.8489994110716449</speed>
  <fix>3d</fix>
</trkpt>
<trkpt lat="33.8106906" lon="-118.3938034">
  <ele>-25.151</ele>
  <time>2026-09-02T22:11:32Z</time>
  <course>19.92</course>
  <speed>0.8489994110716449</speed>
  <fix>3d</fix>
</trkpt>
<trkpt lat="33.8106906" lon="-118.3938033">
  <ele>-25.151</ele>
  <time>2026-09-02T22:11:32Z</time>
  <course>19.92</course>
  <speed>0.8489994110716449</speed>
  <fix>3d</fix>
</trkpt>
<trkpt lat="33.8106906" lon="-118.3938033">
  <ele>-25.151</ele>
  <time>2026-09-02T22:11:32Z</time>
  <course>19.92</course>
  <speed>0.8489994110716449</speed>
  <fix>3d</fix>
</trkpt>
<trkpt lat="33.8106907" lon="-118.3938032">
  <ele>-25.151</ele>
  <time>2026-09-02T22:11:32Z</time>
  <course>19.92</course>
  <speed>0.8489994110716449</speed>
  <fix>3d</fix>
</trkpt>
<trkpt lat="33.8106907" lon="-118.3938032">
  <ele>-25.151</ele>
  <time>2026-09-02T22:11:32Z</time>
  <course>19.92</course>
  <speed>0.8489994110716449</speed>
  <fix>3d</fix>
</trkpt>
<trkpt lat="33.8106908" lon="-118.3938031">
  <ele>-25.15</ele>
  <time>2026-09-02T22:11:32Z</time>
  <course>19.92</course>
  <speed>0.8489994110716449</speed>
  <fix>3d</fix>
</trkpt>
<trkpt lat="33.8106908" lon="-118.3938031">
  <ele>-25.151</ele>
  <time>2026-09-02T22:11:32Z</time>
  <course>19.92</course>
  <speed>0.8489994110716449</speed>
  <fix>3d</fix>
</trkpt>
<trkpt lat="33.8106908" lon="-118.393803">
  <ele>-25.15</ele>
  <time>2026-09-02T22:11:32Z</time>
  <course>19.92</course>
  <speed>0.8489994110716449</speed>
  <fix>3d</fix>
</trkpt>
<trkpt lat="33.8106909" lon="-118.393803">
  <ele>-25.151</ele>
  <time>2026-09-02T22:11:32Z</time>
  <course>19.92</course>
  <speed>0.8489994110716449</speed>
  <fix>3d</fix>
</trkpt>
<trkpt lat="33.8106909" lon="-118.393803">
  <ele>-25.15</ele>
  <time>2026-09-02T22:11:32Z</time>
  <course>19.92</course>
  <speed>0.8489994110716449</speed>
  <fix>3d</fix>
</trkpt>
<trkpt lat="33.8106904" lon="-118.3938041">
  <ele>-24.55</ele>
  <time>2026-09-02T22:11:32Z</time>
  <course>44.9</course>
  <speed>0.86</speed>
  <fix>3d</fix>
</trkpt>
<trkpt lat="33.8106909" lon="-118.393803">
  <ele>-25.15</ele>
  <time>2026-09-02T22:11:32Z</time>
  <course>19.92</course>
  <speed>0.8489994110716449</speed>
  <fix>3d</fix>
</trkpt>
<trkpt lat="33.810691" lon="-118.3938029">
  <ele>-25.15</ele>
  <time>2026-09-02T22:11:32Z</time>
  <course>19.92</course>
  <speed>0.8489994110716449</speed>
  <fix>3d</fix>
</trkpt>
<trkpt lat="33.810691" lon="-118.3938028">
  <ele>-25.15</ele>
  <time>2026-09-02T22:11:32Z</time>
  <course>19.92</course>
  <speed>0.8489994110716449</speed>
  <fix>3d</fix>
</trkpt>
<trkpt lat="33.8106911" lon="-118.3938027">
  <ele>-25.15</ele>
  <time>2026-09-02T22:11:32Z</time>
  <course>19.92</course>
  <speed>0.8489994110716449</speed>
  <fix>3d</fix>
</trkpt>
<trkpt lat="33.8106911" lon="-118.3938027">
  <ele>-25.15</ele>
  <time>2026-09-02T22:11:32Z</time>
  <course>19.92</course>
  <speed>0.8489994110716449</speed>
  <fix>3d</fix>
</trkpt>
<trkpt lat="33.8106912" lon="-118.3938026">
  <ele>-25.15</ele>
  <time>2026-09-02T22:11:32Z</time>
  <course>19.92</course>
  <speed>0.8489994110716449</speed>
  <fix>3d</fix>
</trkpt>
<trkpt lat="33.8106912" lon="-118.3938026">
  <ele>-25.15</ele>
  <time>2026-09-02T22:11:32Z</time>
  <course>19.92</course>
  <speed>0.8489994110716449</speed>
  <fix>3d</fix>
</trkpt>
<trkpt lat="33.8106913" lon="-118.3938025">
  <ele>-25.15</ele>
  <time>2026-09-02T22:11:32Z</time>
  <course>19.92</course>
  <speed>0.8489994110716449</speed>
  <fix>3d</fix>
</trkpt>
<trkpt lat="33.8106913" lon="-118.3938025">
  <ele>-25.149</ele>
  <time>2026-09-02T22:11:32Z</time>
  <course>19.92</course>
  <speed>0.8489994110716449</speed>
  <fix>3d</fix>
</trkpt>
<trkpt lat="33.8106914" lon="-118.3938024">
  <ele>-25.149</ele>
  <time>2026-09-02T22:11:32Z</time>
  <course>19.92</course>
  <speed>0.8489994110716449</speed>
  <fix>3d</fix>
</trkpt>
<trkpt lat="33.8106914" lon="-118.3938024">
  <ele>-25.149</ele>
  <time>2026-09-02T22:11:32Z</time>
  <course>19.92</course>
  <speed>0.8489994110716449</speed>
  <fix>3d</fix>
</trkpt>
<trkpt lat="33.8106914" lon="-118.3938023">
  <ele>-25.149</ele>
  <time>2026-09-02T22:11:32Z</time>
  <course>19.91</course>
  <speed>0.8489994110716449</speed>
  <fix>3d</fix>
</trkpt>
<trkpt lat="33.8106914" lon="-118.3938023">
  <ele>-25.149</ele>
  <time>2026-09-02T22:11:32Z</time>
  <course>19.91</course>
  <speed>0.8489994110716449</speed>
  <fix>3d</fix>
</trkpt>
<trkpt lat="33.8106904" lon="-118.3938041">
  <ele>-24.55</ele>
  <time>2026-09-02T22:11:32Z</time>
  <course>44.9</course>
  <speed>0.86</speed>
  <fix>3d</fix>
</trkpt>
<trkpt lat="33.8106915" lon="-118.3938022">
  <ele>-25.148</ele>
  <time>2026-09-02T22:11:32Z</time>
  <course>19.91</course>
  <speed>0.8489994110716449</speed>
  <fix>3d</fix>
</trkpt>
<trkpt lat="33.8106916" lon="-118.3938021">
  <ele>-25.148</ele>
  <time>2026-09-02T22:11:32Z</time>
  <course>19.91</course>
  <speed>0.8489994110716449</speed>
  <fix>3d</fix>
</trkpt>
<trkpt lat="33.8106916" lon="-118.3938021">
  <ele>-25.148</ele>
  <time>2026-09-02T22:11:32Z</time>
  <course>19.91</course>
  <speed>0.8489994110716449</speed>
  <fix>3d</fix>
</trkpt>
<trkpt lat="33.8106917" lon="-118.393802">
  <ele>-25.148</ele>
  <time>2026-09-02T22:11:32Z</time>
  <course>19.91</course>
  <speed>0.8563293758829018</speed>
  <fix>3d</fix>
</trkpt>
<trkpt lat="33.8106917" lon="-118.393802">
  <ele>-25.148</ele>
  <time>2026-09-02T22:11:32Z</time>
  <course>19.91</course>
  <speed>0.8563293758829018</speed>
  <fix>3d</fix>
</trkpt>
<trkpt lat="33.8106918" lon="-118.3938019">
  <ele>-25.147</ele>
  <time>2026-09-02T22:11:32Z</time>
  <course>19.91</course>
  <speed>0.8489994110716449</speed>
  <fix>3d</fix>
</trkpt>
<trkpt lat="33.8106918" lon="-118.3938019">
  <ele>-25.147</ele>
  <time>2026-09-02T22:11:32Z</time>
  <course>19.91</course>
  <speed>0.8563293758829018</speed>
  <fix>3d</fix>
</trkpt>
<trkpt lat="33.8106919" lon="-118.3938018">
  <ele>-25.147</ele>
  <time>2026-09-02T22:11:32Z</time>
  <course>19.91</course>
  <speed>0.8563293758829018</speed>
  <fix>3d</fix>
</trkpt>
<trkpt lat="33.8106919" lon="-118.3938018">
  <ele>-25.147</ele>
  <time>2026-09-02T22:11:32Z</time>
  <course>19.91</course>
  <speed>0.8563293758829018</speed>
  <fix>3d</fix>
</trkpt>
<trkpt lat="33.8106919" lon="-118.3938017">
  <ele>-25.147</ele>
  <time>2026-09-02T22:11:32Z</time>
  <course>19.91</course>
  <speed>0.8563293758829018</speed>
  <fix>3d</fix>
</trkpt>
<trkpt lat="33.810692" lon="-118.3938017">
  <ele>-25.147</ele>
  <time>2026-09-02T22:11:32Z</time>
  <course>19.91</course>
  <speed>0.8563293758829018</speed>
  <fix>3d</fix>
</trkpt>
<trkpt lat="33.810692" lon="-118.3938017">
  <ele>-25.147</ele>
  <time>2026-09-02T22:11:32Z</time>
  <course>19.91</course>
  <speed>0.8563293758829018</speed>
  <fix>3d</fix>
</trkpt>
<trkpt lat="33.8106915" lon="-118.3938028">
  <ele>-24.54</ele>
  <time>2026-09-02T22:11:32Z</time>
  <course>44.94</course>
  <speed>0.86</speed>
  <fix>3d</fix>
</trkpt>
<trkpt lat="33.8106921" lon="-118.3938016">
  <ele>-25.146</ele>
  <time>2026-09-02T22:11:32Z</time>
  <course>19.91</course>
  <speed>0.8563293758829018</speed>
  <fix>3d</fix>
</trkpt>
<trkpt lat="33.8106921" lon="-118.3938015">
  <ele>-25.146</ele>
  <time>2026-09-02T22:11:32Z</time>
  <course>19.91</course>
  <speed>0.8563293758829018</speed>
  <fix>3d</fix>
</trkpt>
<trkpt lat="33.8106922" lon="-118.3938015">
  <ele>-25.146</ele>
  <time>2026-09-02T22:11:32Z</time>
  <course>19.91</course>
  <speed>0.8563293758829018</speed>
  <fix>3d</fix>
</trkpt>
<trkpt lat="33.8106922" lon="-118.3938014">
  <ele>-25.146</ele>
  <time>2026-09-02T22:11:32Z</time>
  <course>19.91</course>
  <speed>0.8563293758829018</speed>
  <fix>3d</fix>
</trkpt>
<trkpt lat="33.8106922" lon="-118.3938014">
  <ele>-25.146</ele>
  <time>2026-09-02T22:11:32Z</time>
  <course>19.91</course>
  <speed>0.8563293758829018</speed>
  <fix>3d</fix>
</trkpt>
<trkpt lat="33.8106923" lon="-118.3938013">
  <ele>-25.145</ele>
  <time>2026-09-02T22:11:32Z</time>
  <course>19.91</course>
  <speed>0.8563293758829018</speed>
  <fix>3d</fix>
</trkpt>
<trkpt lat="33.8106923" lon="-118.3938013">
  <ele>-25.145</ele>
  <time>2026-09-02T22:11:32Z</time>
  <course>19.91</course>
  <speed>0.8563293758829018</speed>
  <fix>3d</fix>
</trkpt>
<trkpt lat="33.8106924" lon="-118.3938012">
  <ele>-25.145</ele>
  <time>2026-09-02T22:11:32Z</time>
  <course>19.91</course>
  <speed>0.8563293758829018</speed>
  <fix>3d</fix>
</trkpt>
<trkpt lat="33.8106924" lon="-118.3938011">
  <ele>-25.145</ele>
  <time>2026-09-02T22:11:32Z</time>
  <course>19.91</course>
  <speed>0.8563293758829018</speed>
  <fix>3d</fix>
</trkpt>
<trkpt lat="33.8106925" lon="-118.3938011">
  <ele>-25.145</ele>
  <time>2026-09-02T22:11:32Z</time>
  <course>19.91</course>
  <speed>0.8563293758829018</speed>
  <fix>3d</fix>
</trkpt>
<trkpt lat="33.8106925" lon="-118.393801">
  <ele>-25.145</ele>
  <time>2026-09-02T22:11:32Z</time>
  <course>19.91</course>
  <speed>0.8563293758829018</speed>
  <fix>3d</fix>
</trkpt>
<trkpt lat="33.8106925" lon="-118.393801">
  <ele>-25.144</ele>
  <time>2026-09-02T22:11:32Z</time>
  <course>19.91</course>
  <speed>0.8563293758829018</speed>
  <fix>3d</fix>
</trkpt>
<trkpt lat="33.8106925" lon="-118.393801">
  <ele>-25.144</ele>
  <time>2026-09-02T22:11:32Z</time>
  <course>19.91</course>
  <speed>0.8563293758829018</speed>
  <fix>3d</fix>
</trkpt>
<trkpt lat="33.8106915" lon="-118.3938028">
  <ele>-24.54</ele>
  <time>2026-09-02T22:11:32Z</time>
  <course>44.94</course>
  <speed>0.86</speed>
  <fix>3d</fix>
</trkpt>
<trkpt lat="33.8106926" lon="-118.3938009">
  <ele>-25.144</ele>
  <time>2026-09-02T22:11:32Z</time>
  <course>19.91</course>
  <speed>0.8563293758829018</speed>
  <fix>3d</fix>
</trkpt>
<trkpt lat="33.8106927" lon="-118.3938008">
  <ele>-25.144</ele>
  <time>2026-09-02T22:11:32Z</time>
  <course>19.91</course>
  <speed>0.8563293758829018</speed>
  <fix>3d</fix>
</trkpt>
<trkpt lat="33.8106927" lon="-118.3938008">
  <ele>-25.144</ele>
  <time>2026-09-02T22:11:32Z</time>
  <course>19.91</course>
  <speed>0.8563293758829018</speed>
  <fix>3d</fix>
</trkpt>
<trkpt lat="33.8106928" lon="-118.3938007">
  <ele>-25.143</ele>
  <time>2026-09-02T22:11:32Z</time>
  <course>19.91</course>
  <speed>0.8563293758829018</speed>
  <fix>3d</fix>
</trkpt>
<trkpt lat="33.8106929" lon="-118.3938006">
  <ele>-25.143</ele>
  <time>2026-09-02T22:11:32Z</time>
  <course>19.91</course>
  <speed>0.8563293758829018</speed>
  <fix>3d</fix>
</trkpt>
<trkpt lat="33.8106929" lon="-118.3938005">
  <ele>-25.143</ele>
  <time>2026-09-02T22:11:32Z</time>
  <course>19.91</course>
  <speed>0.8563293758829018</speed>
  <fix>3d</fix>
</trkpt>
<trkpt lat="33.810693" lon="-118.3938005">
  <ele>-25.143</ele>
  <time>2026-09-02T22:11:32Z</time>
  <course>19.91</course>
  <speed>0.8563293758829018</speed>
  <fix>3d</fix>
</trkpt>
<trkpt lat="33.810693" lon="-118.3938004">
  <ele>-25.143</ele>
  <time>2026-09-02T22:11:32Z</time>
  <course>19.91</course>
  <speed>0.8563293758829018</speed>
  <fix>3d</fix>
</trkpt>
<trkpt lat="33.8106931" lon="-118.3938004">
  <ele>-25.143</ele>
  <time>2026-09-02T22:11:32Z</time>
  <course>19.91</course>
  <speed>0.8563293758829018</speed>
  <fix>3d</fix>
</trkpt>
<trkpt lat="33.8106931" lon="-118.3938003">
  <ele>-25.142</ele>
  <time>2026-09-02T22:11:32Z</time>
  <course>19.91</course>
  <speed>0.8563293758829018</speed>
  <fix>3d</fix>
</trkpt>
<trkpt lat="33.8106931" lon="-118.3938003">
  <ele>-25.142</ele>
  <time>2026-09-02T22:11:32Z</time>
  <course>19.91</course>
  <speed>0.8563293758829018</speed>
  <fix>3d</fix>
</trkpt>
<trkpt lat="33.8106926" lon="-118.3938014">
  <ele>-24.53</ele>
  <time>2026-09-02T22:11:32Z</time>
  <course>45.0</course>
  <speed>0.86</speed>
  <fix>3d</fix>
</trkpt>
<trkpt lat="33.8106932" lon="-118.3938002">
  <ele>-25.142</ele>
  <time>2026-09-02T22:11:32Z</time>
  <course>19.91</course>
  <speed>0.8563293758829018</speed>
  <fix>3d</fix>
</trkpt>
<trkpt lat="33.8106932" lon="-118.3938002">
  <ele>-25.142</ele>
  <time>2026-09-02T22:11:32Z</time>
  <course>19.91</course>
  <speed>0.8563293758829018</speed>
  <fix>3d</fix>
</trkpt>
<trkpt lat="33.8106933" lon="-118.3938001">
  <ele>-25.142</ele>
  <time>2026-09-02T22:11:32Z</time>
  <course>19.91</course>
  <speed>0.8563293758829018</speed>
  <fix>3d</fix>
</trkpt>
<trkpt lat="33.8106933" lon="-118.3938001">
  <ele>-25.141</ele>
  <time>2026-09-02T22:11:32Z</time>
  <course>19.91</course>
  <speed>0.8563293758829018</speed>
  <fix>3d</fix>
</trkpt>
<trkpt lat="33.8106934" lon="-118.3938">
  <ele>-25.141</ele>
  <time>2026-09-02T22:11:32Z</time>
  <course>19.91</course>
  <speed>0.8563293758829018</speed>
  <fix>3d</fix>
</trkpt>
<trkpt lat="33.8106934" lon="-118.3937999">
  <ele>-25.141</ele>
  <time>2026-09-02T22:11:32Z</time>
  <course>19.91</course>
  <speed>0.8563293758829018</speed>
  <fix>3d</fix>
</trkpt>
<trkpt lat="33.8106935" lon="-118.3937998">
  <ele>-25.141</ele>
  <time>2026-09-02T22:11:32Z</time>
  <course>19.91</course>
  <speed>0.8563293758829018</speed>
  <fix>3d</fix>
</trkpt>
<trkpt lat="33.8106936" lon="-118.3937998">
  <ele>-25.141</ele>
  <time>2026-09-02T22:11:32Z</time>
  <course>19.91</course>
  <speed>0.8563293758829018</speed>
  <fix>3d</fix>
</trkpt>
<trkpt lat="33.8106936" lon="-118.3937997">
  <ele>-25.14</ele>
  <time>2026-09-02T22:11:32Z</time>
  <course>19.91</course>
  <speed>0.8563293758829018</speed>
  <fix>3d</fix>
</trkpt>
<trkpt lat="33.8106936" lon="-118.3937997">
  <ele>-25.14</ele>
  <time>2026-09-02T22:11:32Z</time>
  <course>19.91</course>
  <speed>0.8563293758829018</speed>
  <fix>3d</fix>
</trkpt>
<trkpt lat="33.8106926" lon="-118.3938014">
  <ele>-24.53</ele>
  <time>2026-09-02T22:11:32Z</time>
  <course>45.0</course>
  <speed>0.86</speed>
  <fix>3d</fix>
</trkpt>
<trkpt lat="33.8106937" lon="-118.3937996">
  <ele>-25.14</ele>
  <time>2026-09-02T22:11:32Z</time>
  <course>19.91</course>
  <speed>0.8563293758829018</speed>
  <fix>3d</fix>
</trkpt>
<trkpt lat="33.8106938" lon="-118.3937995">
  <ele>-25.14</ele>
  <time>2026-09-02T22:11:32Z</time>
  <course>19.91</course>
  <speed>0.8563293758829018</speed>
  <fix>3d</fix>
</trkpt>
<trkpt lat="33.8106938" lon="-118.3937995">
  <ele>-25.14</ele>
  <time>2026-09-02T22:11:32Z</time>
  <course>19.91</course>
  <speed>0.8563293758829018</speed>
  <fix>3d</fix>
</trkpt>
<trkpt lat="33.8106938" lon="-118.3937994">
  <ele>-25.14</ele>
  <time>2026-09-02T22:11:32Z</time>
  <course>19.91</course>
  <speed>0.8563293758829018</speed>
  <fix>3d</fix>
</trkpt>
<trkpt lat="33.8106939" lon="-118.3937994">
  <ele>-25.139</ele>
  <time>2026-09-02T22:11:32Z</time>
  <course>19.91</course>
  <speed>0.8563293758829018</speed>
  <fix>3d</fix>
</trkpt>
<trkpt lat="33.8106939" lon="-118.3937993">
  <ele>-25.139</ele>
  <time>2026-09-02T22:11:32Z</time>
  <course>19.91</course>
  <speed>0.8563293758829018</speed>
  <fix>3d</fix>
</trkpt>
<trkpt lat="33.810694" lon="-118.3937993">
  <ele>-25.139</ele>
  <time>2026-09-02T22:11:32Z</time>
  <course>19.91</course>
  <speed>0.8563293758829018</speed>
  <fix>3d</fix>
</trkpt>
<trkpt lat="33.810694" lon="-118.3937992">
  <ele>-25.139</ele>
  <time>2026-09-02T22:11:32Z</time>
  <course>19.91</course>
  <speed>0.8563293758829018</speed>
  <fix>3d</fix>
</trkpt>
<trkpt lat="33.8106941" lon="-118.3937992">
  <ele>-25.138</ele>
  <time>2026-09-02T22:11:32Z</time>
  <course>19.91</course>
  <speed>0.8563293758829018</speed>
  <fix>3d</fix>
</trkpt>
<trkpt lat="33.8106941" lon="-118.3937991">
  <ele>-25.138</ele>
  <time>2026-09-02T22:11:32Z</time>
  <course>19.91</course>
  <speed>0.8563293758829018</speed>
  <fix>3d</fix>
</trkpt>
<trkpt lat="33.8106941" lon="-118.3937991">
  <ele>-25.138</ele>
  <time>2026-09-02T22:11:32Z</time>
  <course>19.91</course>
  <speed>0.8563293758829018</speed>
  <fix>3d</fix>
</trkpt>
<trkpt lat="33.8106942" lon="-118.393799">
  <ele>-25.138</ele>
  <time>2026-09-02T22:11:32Z</time>
  <course>19.91</course>
  <speed>0.8563293758829018</speed>
  <fix>3d</fix>
</trkpt>
<trkpt lat="33.8106942" lon="-118.393799">
  <ele>-25.138</ele>
  <time>2026-09-02T22:11:32Z</time>
  <course>19.91</course>
  <speed>0.8563293758829018</speed>
  <fix>3d</fix>
</trkpt>
<trkpt lat="33.8106937" lon="-118.3938001">
  <ele>-24.53</ele>
  <time>2026-09-02T22:11:32Z</time>
  <course>45.03</course>
  <speed>0.86</speed>
  <fix>3d</fix>
</trkpt>
<trkpt lat="33.8106943" lon="-118.3937989">
  <ele>-25.137</ele>
  <time>2026-09-02T22:11:32Z</time>
  <course>19.91</course>
  <speed>0.8563293758829018</speed>
  <fix>3d</fix>
</trkpt>
<trkpt lat="33.8106943" lon="-118.3937989">
  <ele>-25.137</ele>
  <time>2026-09-02T22:11:32Z</time>
  <course>19.91</course>
  <speed>0.8563293758829018</speed>
  <fix>3d</fix>
</trkpt>
<trkpt lat="33.8106944" lon="-118.3937988">
  <ele>-25.137</ele>
  <time>2026-09-02T22:11:32Z</time>
  <course>19.92</course>
  <speed>0.8563293758829018</speed>
  <fix>3d</fix>
</trkpt>
<trkpt lat="33.8106944" lon="-118.3937988">
  <ele>-25.136</ele>
  <time>2026-09-02T22:11:32Z</time>
  <course>19.92</course>
  <speed>0.8563293758829018</speed>
  <fix>3d</fix>
</trkpt>
<trkpt lat="33.8106945" lon="-118.3937987">
  <ele>-25.136</ele>
  <time>2026-09-02T22:11:32Z</time>
  <course>19.92</course>
  <speed>0.8563293758829018</speed>
  <fix>3d</fix>
</trkpt>
<trkpt lat="33.8106945" lon="-118.3937987">
  <ele>-25.136</ele>
  <time>2026-09-02T22:11:32Z</time>
  <course>19.92</course>
  <speed>0.8563293758829018</speed>
  <fix>3d</fix>
</trkpt>
<trkpt lat="33.8106945" lon="-118.3937986">
  <ele>-25.135</ele>
  <time>2026-09-02T22:11:32Z</time>
  <course>19.92</course>
  <speed>0.8563293758829018</speed>
  <fix>3d</fix>
</trkpt>
<trkpt lat="33.8106946" lon="-118.3937986">
  <ele>-25.135</ele>
  <time>2026-09-02T22:11:32Z</time>
  <course>19.92</course>
  <speed>0.8563293758829018</speed>
  <fix>3d</fix>
</trkpt>
<trkpt lat="33.8106946" lon="-118.3937985">
  <ele>-25.135</ele>
  <time>2026-09-02T22:11:32Z</time>
  <course>19.92</course>
  <speed>0.8563293758829018</speed>
  <fix>3d</fix>
</trkpt>
<trkpt lat="33.8106947" lon="-118.3937985">
  <ele>-25.134</ele>
  <time>2026-09-02T22:11:32Z</time>
  <course>19.92</course>
  <speed>0.8563293758829018</speed>
  <fix>3d</fix>
</trkpt>
<trkpt lat="33.8106947" lon="-118.3937984">
  <ele>-25.134</ele>
  <time>2026-09-02T22:11:32Z</time>
  <course>19.92</course>
  <speed>0.8563293758829018</speed>
  <fix>3d</fix>
</trkpt>
<trkpt lat="33.8106947" lon="-118.3937984">
  <ele>-25.134</ele>
  <time>2026-09-02T22:11:32Z</time>
  <course>19.92</course>
  <speed>0.8563293758829018</speed>
  <fix>3d</fix>
</trkpt>
<trkpt lat="33.8106948" lon="-118.3937983">
  <ele>-25.134</ele>
  <time>2026-09-02T22:11:32Z</time>
  <course>19.92</course>
  <speed>0.8563293758829018</speed>
  <fix>3d</fix>
</trkpt>
<trkpt lat="33.8106937" lon="-118.3938001">
  <ele>-24.53</ele>
  <time>2026-09-02T22:11:32Z</time>
  <course>45.03</course>
  <speed>0.86</speed>
  <fix>3d</fix>
</trkpt>
<trkpt lat="33.8106948" lon="-118.3937983">
  <ele>-25.134</ele>
  <time>2026-09-02T22:11:32Z</time>
  <course>19.92</course>
  <speed>0.8563293758829018</speed>
  <fix>3d</fix>
</trkpt>
<trkpt lat="33.8106949" lon="-118.3937982">
  <ele>-25.133</ele>
  <time>2026-09-02T22:11:32Z</time>
  <course>19.92</course>
  <speed>0.8563293758829018</speed>
  <fix>3d</fix>
</trkpt>
<trkpt lat="33.8106949" lon="-118.3937982">
  <ele>-25.133</ele>
  <time>2026-09-02T22:11:32Z</time>
  <course>19.92</course>
  <speed>0.8563293758829018</speed>
  <fix>3d</fix>
</trkpt>
<trkpt lat="33.8106949" lon="-118.3937981">
  <ele>-25.132</ele>
  <time>2026-09-02T22:11:32Z</time>
  <course>19.92</course>
  <speed>0.8563293758829018</speed>
  <fix>3d</fix>
</trkpt>
<trkpt lat="33.810695" lon="-118.3937981">
  <ele>-25.132</ele>
  <time>2026-09-02T22:11:32Z</time>
  <course>19.92</course>
  <speed>0.8563293758829018</speed>
  <fix>3d</fix>
</trkpt>
<trkpt lat="33.810695" lon="-118.393798">
  <ele>-25.132</ele>
  <time>2026-09-02T22:11:32Z</time>
  <course>19.92</course>
  <speed>0.8563293758829018</speed>
  <fix>3d</fix>
</trkpt>
<trkpt lat="33.810695" lon="-118.393798">
  <ele>-25.131</ele>
  <time>2026-09-02T22:11:32Z</time>
  <course>19.92</course>
  <speed>0.8563293758829018</speed>
  <fix>3d</fix>
</trkpt>
<trkpt lat="33.8106951" lon="-118.3937979">
  <ele>-25.131</ele>
  <time>2026-09-02T22:11:32Z</time>
  <course>19.92</course>
  <speed>0.8631338250816034</speed>
  <fix>3d</fix>
</trkpt>
<trkpt lat="33.8106951" lon="-118.3937979">
  <ele>-25.131</ele>
  <time>2026-09-02T22:11:32Z</time>
  <course>19.93</course>
  <speed>0.8631338250816034</speed>
  <fix>3d</fix>
</trkpt>
<trkpt lat="33.8106952" lon="-118.3937978">
  <ele>-25.13</ele>
  <time>2026-09-02T22:11:32Z</time>
  <course>19.93</course>
  <speed>0.8631338250816034</speed>
  <fix>3d</fix>
</trkpt>
<trkpt lat="33.8106952" lon="-118.3937978">
  <ele>-25.13</ele>
  <time>2026-09-02T22:11:32Z</time>
  <course>19.93</course>
  <speed>0.8631338250816034</speed>
  <fix>3d</fix>
</trkpt>
<trkpt lat="33.8106953" lon="-118.3937977">
  <ele>-25.13</ele>
  <time>2026-09-02T22:11:32Z</time>
  <course>19.93</course>
  <speed>0.8631338250816034</speed>
  <fix>3d</fix>
</trkpt>
<trkpt lat="33.8106953" lon="-118.3937977">
  <ele>-25.13</ele>
  <time>2026-09-02T22:11:32Z</time>
  <course>19.93</course>
  <speed>0.8631338250816034</speed>
  <fix>3d</fix>
</trkpt>
<trkpt lat="33.8106953" lon="-118.3937977">
  <ele>-25.13</ele>
  <time>2026-09-02T22:11:32Z</time>
  <course>19.93</course>
  <speed>0.8631338250816034</speed>
  <fix>3d</fix>
</trkpt>
<trkpt lat="33.8106948" lon="-118.3937988">
  <ele>-24.52</ele>
  <time>2026-09-02T22:11:32Z</time>
  <course>45.03</course>
  <speed>0.87</speed>
  <fix>3d</fix>
</trkpt>
<trkpt lat="33.8106954" lon="-118.3937976">
  <ele>-25.129</ele>
  <time>2026-09-02T22:11:32Z</time>
  <course>19.93</course>
  <speed>0.8631338250816034</speed>
  <fix>3d</fix>
</trkpt>
<trkpt lat="33.8106954" lon="-118.3937975">
  <ele>-25.129</ele>
  <time>2026-09-02T22:11:32Z</time>
  <course>19.93</course>
  <speed>0.8631338250816034</speed>
  <fix>3d</fix>
</trkpt>
<trkpt lat="33.8106955" lon="-118.3937975">
  <ele>-25.128</ele>
  <time>2026-09-02T22:11:32Z</time>
  <course>19.93</course>
  <speed>0.8563293758829018</speed>
  <fix>3d</fix>
</trkpt>
<trkpt lat="33.8106955" lon="-118.3937974">
  <ele>-25.128</ele>
  <time>2026-09-02T22:11:32Z</time>
  <course>19.92</course>
  <speed>0.8563293758829018</speed>
  <fix>3d</fix>
</trkpt>
<trkpt lat="33.8106956" lon="-118.3937974">
  <ele>-25.128</ele>
  <time>2026-09-02T22:11:32Z</time>
  <course>19.92</course>
  <speed>0.8631338250816034</speed>
  <fix>3d</fix>
</trkpt>
<trkpt lat="33.8106956" lon="-118.3937973">
  <ele>-25.128</ele>
  <time>2026-09-02T22:11:32Z</time>
  <course>19.92</course>
  <speed>0.8563293758829018</speed>
  <fix>3d</fix>
</trkpt>
<trkpt lat="33.8106956" lon="-118.3937973">
  <ele>-25.127</ele>
  <time>2026-09-02T22:11:32Z</time>
  <course>19.92</course>
  <speed>0.8631338250816034</speed>
  <fix>3d</fix>
</trkpt>
<trkpt lat="33.8106957" lon="-118.3937972">
  <ele>-25.127</ele>
  <time>2026-09-02T22:11:32Z</time>
  <course>19.92</course>
  <speed>0.8631338250816034</speed>
  <fix>3d</fix>
</trkpt>
<trkpt lat="33.8106957" lon="-118.3937972">
  <ele>-25.127</ele>
  <time>2026-09-02T22:11:32Z</time>
  <course>19.92</course>
  <speed>0.8631338250816034</speed>
  <fix>3d</fix>
</trkpt>
<trkpt lat="33.8106958" lon="-118.3937971">
  <ele>-25.126</ele>
  <time>2026-09-02T22:11:32Z</time>
  <course>19.92</course>
  <speed>0.8631338250816034</speed>
  <fix>3d</fix>
</trkpt>
<trkpt lat="33.8106958" lon="-118.3937971">
  <ele>-25.126</ele>
  <time>2026-09-02T22:11:32Z</time>
  <course>19.92</course>
  <speed>0.8631338250816034</speed>
  <fix>3d</fix>
</trkpt>
<trkpt lat="33.8106959" lon="-118.393797">
  <ele>-25.126</ele>
  <time>2026-09-02T22:11:32Z</time>
  <course>19.92</course>
  <speed>0.8631338250816034</speed>
  <fix>3d</fix>
</trkpt>
<trkpt lat="33.8106959" lon="-118.393797">
  <ele>-25.126</ele>
  <time>2026-09-02T22:11:32Z</time>
  <course>19.92</course>
  <speed>0.8631338250816034</speed>
  <fix>3d</fix>
</trkpt>
<trkpt lat="33.8106948" lon="-118.3937988">
  <ele>-24.52</ele>
  <time>2026-09-02T22:11:32Z</time>
  <course>45.03</course>
  <speed>0.87</speed>
  <fix>3d</fix>
</trkpt>
<trkpt lat="33.8106959" lon="-118.3937969">
  <ele>-25.126</ele>
  <time>2026-09-02T22:11:32Z</time>
  <course>19.92</course>
  <speed>0.8631338250816034</speed>
  <fix>3d</fix>
</trkpt>
<trkpt lat="33.810696" lon="-118.3937969">
  <ele>-25.125</ele>
  <time>2026-09-02T22:11:32Z</time>
  <course>19.92</course>
  <speed>0.8631338250816034</speed>
  <fix>3d</fix>
</trkpt>
<trkpt lat="33.810696" lon="-118.3937968">
  <ele>-25.125</ele>
  <time>2026-09-02T22:11:32Z</time>
  <course>19.92</course>
  <speed>0.8631338250816034</speed>
  <fix>3d</fix>
</trkpt>
<trkpt lat="33.8106961" lon="-118.3937968">
  <ele>-25.125</ele>
  <time>2026-09-02T22:11:32Z</time>
  <course>19.92</course>
  <speed>0.8631338250816034</speed>
  <fix>3d</fix>
</trkpt>
<trkpt lat="33.8106961" lon="-118.3937967">
  <ele>-25.125</ele>
  <time>2026-09-02T22:11:32Z</time>
  <course>19.92</course>
  <speed>0.8631338250816034</speed>
  <fix>3d</fix>
</trkpt>
<trkpt lat="33.8106962" lon="-118.3937966">
  <ele>-25.124</ele>
  <time>2026-09-02T22:11:32Z</time>
  <course>19.91</course>
  <speed>0.8631338250816034</speed>
  <fix>3d</fix>
</trkpt>
<trkpt lat="33.8106962" lon="-118.3937966">
  <ele>-25.124</ele>
  <time>2026-09-02T22:11:32Z</time>
  <course>19.91</course>
  <speed>0.8631338250816034</speed>
  <fix>3d</fix>
</trkpt>
<trkpt lat="33.8106962" lon="-118.3937966">
  <ele>-25.124</ele>
  <time>2026-09-02T22:11:32Z</time>
  <course>19.92</course>
  <speed>0.8631338250816034</speed>
  <fix>3d</fix>
</trkpt>
<trkpt lat="33.8106963" lon="-118.3937965">
  <ele>-25.124</ele>
  <time>2026-09-02T22:11:32Z</time>
  <course>19.92</course>
  <speed>0.8631338250816034</speed>
  <fix>3d</fix>
</trkpt>
<trkpt lat="33.8106963" lon="-118.3937965">
  <ele>-25.124</ele>
  <time>2026-09-02T22:11:32Z</time>
  <course>19.92</course>
  <speed>0.8631338250816034</speed>
  <fix>3d</fix>
</trkpt>
<trkpt lat="33.8106964" lon="-118.3937964">
  <ele>-25.124</ele>
  <time>2026-09-02T22:11:32Z</time>
  <course>19.92</course>
  <speed>0.8631338250816034</speed>
  <fix>3d</fix>
</trkpt>
<trkpt lat="33.8106964" lon="-118.3937963">
  <ele>-25.123</ele>
  <time>2026-09-02T22:11:32Z</time>
  <course>19.92</course>
  <speed>0.8631338250816034</speed>
  <fix>3d</fix>
</trkpt>
<trkpt lat="33.8106964" lon="-118.3937963">
  <ele>-25.123</ele>
  <time>2026-09-02T22:11:32Z</time>
  <course>19.92</course>
  <speed>0.8631338250816034</speed>
  <fix>3d</fix>
</trkpt>
<trkpt lat="33.8106959" lon="-118.3937975">
  <ele>-24.51</ele>
  <time>2026-09-02T22:11:32Z</time>
  <course>45.02</course>
  <speed>0.87</speed>
  <fix>3d</fix>
</trkpt>
<trkpt lat="33.8106965" lon="-118.3937963">
  <ele>-25.123</ele>
  <time>2026-09-02T22:11:32Z</time>
  <course>19.92</course>
  <speed>0.8631338250816034</speed>
  <fix>3d</fix>
</trkpt>
<trkpt lat="33.8106965" lon="-118.3937962">
  <ele>-25.123</ele>
  <time>2026-09-02T22:11:32Z</time>
  <course>19.92</course>
  <speed>0.8631338250816034</speed>
  <fix>3d</fix>
</trkpt>
<trkpt lat="33.8106966" lon="-118.3937962">
  <ele>-25.123</ele>
  <time>2026-09-02T22:11:32Z</time>
  <course>19.92</course>
  <speed>0.8631338250816034</speed>
  <fix>3d</fix>
</trkpt>
<trkpt lat="33.8106966" lon="-118.3937961">
  <ele>-25.123</ele>
  <time>2026-09-02T22:11:32Z</time>
  <course>19.92</course>
  <speed>0.8631338250816034</speed>
  <fix>3d</fix>
</trkpt>
<trkpt lat="33.8106967" lon="-118.393796">
  <ele>-25.123</ele>
  <time>2026-09-02T22:11:32Z</time>
  <course>19.92</course>
  <speed>0.8631338250816034</speed>
  <fix>3d</fix>
</trkpt>
<trkpt lat="33.8106967" lon="-118.393796">
  <ele>-25.122</ele>
  <time>2026-09-02T22:11:32Z</time>
  <course>19.92</course>
  <speed>0.8631338250816034</speed>
  <fix>3d</fix>
</trkpt>
<trkpt lat="33.8106968" lon="-118.3937959">
  <ele>-25.122</ele>
  <time>2026-09-02T22:11:32Z</time>
  <course>19.92</course>
  <speed>0.8631338250816034</speed>
  <fix>3d</fix>
</trkpt>
<trkpt lat="33.8106969" lon="-118.3937958">
  <ele>-25.122</ele>
  <time>2026-09-02T22:11:32Z</time>
  <course>19.92</course>
  <speed>0.8631338250816034</speed>
  <fix>3d</fix>
</trkpt>
<trkpt lat="33.8106969" lon="-118.3937958">
  <ele>-25.122</ele>
  <time>2026-09-02T22:11:32Z</time>
  <course>19.92</course>
  <speed>0.8631338250816034</speed>
  <fix>3d</fix>
</trkpt>
<trkpt lat="33.8106969" lon="-118.3937957">
  <ele>-25.121</ele>
  <time>2026-09-02T22:11:32Z</time>
  <course>19.92</course>
  <speed>0.8631338250816034</speed>
  <fix>3d</fix>
</trkpt>
<trkpt lat="33.810697" lon="-118.3937957">
  <ele>-25.121</ele>
  <time>2026-09-02T22:11:32Z</time>
  <course>19.92</course>
  <speed>0.8631338250816034</speed>
  <fix>3d</fix>
</trkpt>
<trkpt lat="33.810697" lon="-118.3937957">
  <ele>-25.121</ele>
  <time>2026-09-02T22:11:32Z</time>
  <course>19.92</course>
  <speed>0.8631338250816034</speed>
  <fix>3d</fix>
</trkpt>
<trkpt lat="33.8106959" lon="-118.3937975">
  <ele>-24.51</ele>
  <time>2026-09-02T22:11:32Z</time>
  <course>45.02</course>
  <speed>0.87</speed>
  <fix>3d</fix>
</trkpt>
<trkpt lat="33.8106971" lon="-118.3937955">
  <ele>-25.121</ele>
  <time>2026-09-02T22:11:32Z</time>
  <course>19.92</course>
  <speed>0.8631338250816034</speed>
  <fix>3d</fix>
</trkpt>
<trkpt lat="33.8106971" lon="-118.3937955">
  <ele>-25.121</ele>
  <time>2026-09-02T22:11:32Z</time>
  <course>19.92</course>
  <speed>0.8631338250816034</speed>
  <fix>3d</fix>
</trkpt>
<trkpt lat="33.8106972" lon="-118.3937954">
  <ele>-25.121</ele>
  <time>2026-09-02T22:11:32Z</time>
  <course>19.92</course>
  <speed>0.8631338250816034</speed>
  <fix>3d</fix>
</trkpt>
<trkpt lat="33.8106975" lon="-118.393795">
  <ele>-25.119</ele>
  <time>2026-09-02T22:11:32Z</time>
  <course>19.92</course>
  <speed>0.8631338250816034</speed>
  <fix>3d</fix>
</trkpt>
<trkpt lat="33.810697" lon="-118.3937961">
  <ele>-24.51</ele>
  <time>2026-09-02T22:11:32Z</time>
  <course>45.03</course>
  <speed>0.87</speed>
  <fix>3d</fix>
</trkpt>
<trkpt lat="33.8106977" lon="-118.3937948">
  <ele>-25.118</ele>
  <time>2026-09-02T22:11:32Z</time>
  <course>19.92</course>
  <speed>0.8563293758829018</speed>
  <fix>3d</fix>
</trkpt>
<trkpt lat="33.8106977" lon="-118.3937948">
  <ele>-25.118</ele>
  <time>2026-09-02T22:11:32Z</time>
  <course>19.92</course>
  <speed>0.8489994110716449</speed>
  <fix>3d</fix>
</trkpt>
<trkpt lat="33.8106978" lon="-118.3937947">
  <ele>-25.117</ele>
  <time>2026-09-02T22:11:32Z</time>
  <course>19.92</course>
  <speed>0.8348652585896721</speed>
  <fix>3d</fix>
</trkpt>
<trkpt lat="33.8106978" lon="-118.3937947">
  <ele>-25.117</ele>
  <time>2026-09-02T22:11:32Z</time>
  <course>19.92</course>
  <speed>0.8280700453464067</speed>
  <fix>3d</fix>
</trkpt>
<trkpt lat="33.8106979" lon="-118.3937946">
  <ele>-25.117</ele>
  <time>2026-09-02T22:11:32Z</time>
  <course>19.92</course>
  <speed>0.8065977932030313</speed>
  <fix>3d</fix>
</trkpt>
<trkpt lat="33.8106979" lon="-118.3937945">
  <ele>-25.117</ele>
  <time>2026-09-02T22:11:32Z</time>
  <course>19.92</course>
  <speed>0.8065977932030313</speed>
  <fix>3d</fix>
</trkpt>
<trkpt lat="33.810698" lon="-118.3937945">
  <ele>-25.117</ele>
  <time>2026-09-02T22:11:32Z</time>
  <course>19.92</course>
  <speed>0.792464510246358</speed>
  <fix>3d</fix>
</trkpt>
<trkpt lat="33.810698" lon="-118.3937945">
  <ele>-25.116</ele>
  <time>2026-09-02T22:11:32Z</time>
  <course>19.92</course>
  <speed>0.7783315488916018</speed>
  <fix>3d</fix>
</trkpt>
<trkpt lat="33.810698" lon="-118.3937944">
  <ele>-25.116</ele>
  <time>2026-09-02T22:11:32Z</time>
  <course>19.92</course>
  <speed>0.764198926981712</speed>
  <fix>3d</fix>
</trkpt>
<trkpt lat="33.8106981" lon="-118.3937944">
  <ele>-25.116</ele>
  <time>2026-09-02T22:11:32Z</time>
  <course>19.92</course>
  <speed>0.7569015788066504</speed>
  <fix>3d</fix>
</trkpt>
<trkpt lat="33.8106981" lon="-118.3937944">
  <ele>-25.116</ele>
  <time>2026-09-02T22:11:32Z</time>
  <course>19.92</course>
  <speed>0.750066663703967</speed>
  <fix>3d</fix>
</trkpt>
<trkpt lat="33.810697" lon="-118.3937961">
  <ele>-24.51</ele>
  <time>2026-09-02T22:11:32Z</time>
  <course>45.03</course>
  <speed>0.87</speed>
  <fix>3d</fix>
</trkpt>
<trkpt lat="33.8106981" lon="-118.3937943">
  <ele>-25.116</ele>
  <time>2026-09-02T22:11:32Z</time>
  <course>19.92</course>
  <speed>0.750066663703967</speed>
  <fix>3d</fix>
</trkpt>
<trkpt lat="33.8106981" lon="-118.3937943">
  <ele>-25.116</ele>
  <time>2026-09-02T22:11:32Z</time>
  <course>19.91</course>
  <speed>0.7359347797189639</speed>
  <fix>3d</fix>
</trkpt>
<trkpt lat="33.8106982" lon="-118.3937943">
  <ele>-25.115</ele>
  <time>2026-09-02T22:11:32Z</time>
  <course>19.91</course>
  <speed>0.7286288492778747</speed>
  <fix>3d</fix>
</trkpt>
<trkpt lat="33.8106982" lon="-118.3937942">
  <ele>-25.115</ele>
  <time>2026-09-02T22:11:32Z</time>
  <course>19.91</course>
  <speed>0.7144928271158499</speed>
  <fix>3d</fix>
</trkpt>
<trkpt lat="33.8106982" lon="-118.3937942">
  <ele>-25.115</ele>
  <time>2026-09-02T22:11:32Z</time>
  <course>19.91</course>
  <speed>0.7076722405181652</speed>
  <fix>3d</fix>
</trkpt>
<trkpt lat="33.8106983" lon="-118.3937941">
  <ele>-25.115</ele>
  <time>2026-09-02T22:11:32Z</time>
  <course>19.91</course>
  <speed>0.7003570517957252</speed>
  <fix>3d</fix>
</trkpt>
<trkpt lat="33.8106983" lon="-118.3937941">
  <ele>-25.115</ele>
  <time>2026-09-02T22:11:32Z</time>
  <course>19.91</course>
  <speed>0.6862215385719105</speed>
  <fix>3d</fix>
</trkpt>
<trkpt lat="33.8106983" lon="-118.393794">
  <ele>-25.114</ele>
  <time>2026-09-02T22:11:32Z</time>
  <course>19.91</course>
  <speed>0.6862215385719105</speed>
  <fix>3d</fix>
</trkpt>
<trkpt lat="33.8106984" lon="-118.393794">
  <ele>-25.114</ele>
  <time>2026-09-02T22:11:32Z</time>
  <course>19.91</course>
  <speed>0.6720863039818622</speed>
  <fix>3d</fix>
</trkpt>
<trkpt lat="33.8106984" lon="-118.393794">
  <ele>-25.114</ele>
  <time>2026-09-02T22:11:32Z</time>
  <course>19.91</course>
  <speed>0.6648308055437865</speed>
  <fix>3d</fix>
</trkpt>
<trkpt lat="33.8106984" lon="-118.3937939">
  <ele>-25.114</ele>
  <time>2026-09-02T22:11:32Z</time>
  <course>19.91</course>
  <speed>0.6579513659838392</speed>
  <fix>3d</fix>
</trkpt>
<trkpt lat="33.8106985" lon="-118.3937939">
  <ele>-25.114</ele>
  <time>2026-09-02T22:11:32Z</time>
  <course>19.91</course>
  <speed>0.6438167441127949</speed>
  <fix>3d</fix>
</trkpt>
<trkpt lat="33.8106985" lon="-118.3937938">
  <ele>-25.113</ele>
  <time>2026-09-02T22:11:32Z</time>
  <course>19.91</course>
  <speed>0.6438167441127949</speed>
  <fix>3d</fix>
</trkpt>
<trkpt lat="33.8106985" lon="-118.3937938">
  <ele>-25.113</ele>
  <time>2026-09-02T22:11:32Z</time>
  <course>19.91</course>
  <speed>0.6438167441127949</speed>
  <fix>3d</fix>
</trkpt>
<trkpt lat="33.8106981" lon="-118.3937948">
  <ele>-24.51</ele>
  <time>2026-09-02T22:11:32Z</time>
  <course>44.87</course>
  <speed>0.8</speed>
  <fix>3d</fix>
</trkpt>
<trkpt lat="33.8106985" lon="-118.3937938">
  <ele>-25.113</ele>
  <time>2026-09-02T22:11:32Z</time>
  <course>19.91</course>
  <speed>0.6365532185135819</speed>
  <fix>3d</fix>
</trkpt>
<trkpt lat="33.8106985" lon="-118.3937938">
  <ele>-25.113</ele>
  <time>2026-09-02T22:11:32Z</time>
  <course>19.91</course>
  <speed>0.6296824596572467</speed>
  <fix>3d</fix>
</trkpt>
<trkpt lat="33.8106986" lon="-118.3937938">
  <ele>-25.113</ele>
  <time>2026-09-02T22:11:32Z</time>
  <course>19.91</course>
  <speed>0.6296824596572467</speed>
  <fix>3d</fix>
</trkpt>
<trkpt lat="33.8106986" lon="-118.3937938">
  <ele>-25.113</ele>
  <time>2026-09-02T22:11:32Z</time>
  <course>19.91</course>
  <speed>0.6296824596572467</speed>
  <fix>3d</fix>
</trkpt>
<trkpt lat="33.8106986" lon="-118.3937937">
  <ele>-25.113</ele>
  <time>2026-09-02T22:11:32Z</time>
  <course>19.91</course>
  <speed>0.6155485358604957</speed>
  <fix>3d</fix>
</trkpt>
<trkpt lat="33.8106986" lon="-118.3937937">
  <ele>-25.112</ele>
  <time>2026-09-02T22:11:32Z</time>
  <course>19.91</course>
  <speed>0.6155485358604957</speed>
  <fix>3d</fix>
</trkpt>
<trkpt lat="33.8106987" lon="-118.3937937">
  <ele>-25.112</ele>
  <time>2026-09-02T22:11:32Z</time>
  <course>19.91</course>
  <speed>0.608276253029822</speed>
  <fix>3d</fix>
</trkpt>
<trkpt lat="33.8106987" lon="-118.3937936">
  <ele>-25.112</ele>
  <time>2026-09-02T22:11:32Z</time>
  <course>19.91</course>
  <speed>0.6014149981501958</speed>
  <fix>3d</fix>
</trkpt>
<trkpt lat="33.8106987" lon="-118.3937936">
  <ele>-25.112</ele>
  <time>2026-09-02T22:11:32Z</time>
  <course>19.91</course>
  <speed>0.594138031100518</speed>
  <fix>3d</fix>
</trkpt>
<trkpt lat="33.8106988" lon="-118.3937936">
  <ele>-25.112</ele>
  <time>2026-09-02T22:11:32Z</time>
  <course>19.91</course>
  <speed>0.587281874401041</speed>
  <fix>3d</fix>
</trkpt>
<trkpt lat="33.8106988" lon="-118.3937935">
  <ele>-25.112</ele>
  <time>2026-09-02T22:11:32Z</time>
  <course>19.91</course>
  <speed>0.58</speed>
  <fix>3d</fix>
</trkpt>
<trkpt lat="33.8106988" lon="-118.3937935">
  <ele>-25.112</ele>
  <time>2026-09-02T22:11:32Z</time>
  <course>19.91</course>
  <speed>0.5731491952362839</speed>
  <fix>3d</fix>
</trkpt>
<trkpt lat="33.8106988" lon="-118.3937935">
  <ele>-25.111</ele>
  <time>2026-09-02T22:11:32Z</time>
  <course>19.91</course>
  <speed>0.5658621740318044</speed>
  <fix>3d</fix>
</trkpt>
<trkpt lat="33.8106989" lon="-118.3937934">
  <ele>-25.111</ele>
  <time>2026-09-02T22:11:32Z</time>
  <course>19.91</course>
  <speed>0.5658621740318044</speed>
  <fix>3d</fix>
</trkpt>
<trkpt lat="33.8106989" lon="-118.3937934">
  <ele>-25.111</ele>
  <time>2026-09-02T22:11:32Z</time>
  <course>19.91</course>
  <speed>0.5590169943749475</speed>
  <fix>3d</fix>
</trkpt>
<trkpt lat="33.8106989" lon="-118.3937934">
  <ele>-25.111</ele>
  <time>2026-09-02T22:11:32Z</time>
  <course>19.91</course>
  <speed>0.5517245689653489</speed>
  <fix>3d</fix>
</trkpt>
<trkpt lat="33.8106981" lon="-118.3937948">
  <ele>-24.51</ele>
  <time>2026-09-02T22:11:32Z</time>
  <course>44.87</course>
  <speed>0.8</speed>
  <fix>3d</fix>
</trkpt>
<trkpt lat="33.8106989" lon="-118.3937934">
  <ele>-25.111</ele>
  <time>2026-09-02T22:11:32Z</time>
  <course>19.91</course>
  <speed>0.5517245689653489</speed>
  <fix>3d</fix>
</trkpt>
<trkpt lat="33.810699" lon="-118.3937933">
  <ele>-25.111</ele>
  <time>2026-09-02T22:11:32Z</time>
  <course>19.91</course>
  <speed>0.5448853090330111</speed>
  <fix>3d</fix>
</trkpt>
<trkpt lat="33.810699" lon="-118.3937933">
  <ele>-25.111</ele>
  <time>2026-09-02T22:11:32Z</time>
  <course>19.91</course>
  <speed>0.5375872022286245</speed>
  <fix>3d</fix>
</trkpt>
<trkpt lat="33.810699" lon="-118.3937933">
  <ele>-25.111</ele>
  <time>2026-09-02T22:11:32Z</time>
  <course>19.91</course>
  <speed>0.5375872022286245</speed>
  <fix>3d</fix>
</trkpt>
<trkpt lat="33.810699" lon="-118.3937932">
  <ele>-25.111</ele>
  <time>2026-09-02T22:11:32Z</time>
  <course>19.91</course>
  <speed>0.523450093132096</speed>
  <fix>3d</fix>
</trkpt>
<trkpt lat="33.8106991" lon="-118.3937932">
  <ele>-25.11</ele>
  <time>2026-09-02T22:11:32Z</time>
  <course>19.91</course>
  <speed>0.523450093132096</speed>
  <fix>3d</fix>
</trkpt>
<trkpt lat="33.8106991" lon="-118.3937932">
  <ele>-25.11</ele>
  <time>2026-09-02T22:11:32Z</time>
  <course>19.91</course>
  <speed>0.523450093132096</speed>
  <fix>3d</fix>
</trkpt>
<trkpt lat="33.8106991" lon="-118.3937931">
  <ele>-25.11</ele>
  <time>2026-09-02T22:11:32Z</time>
  <course>19.91</course>
  <speed>0.5162363799656123</speed>
  <fix>3d</fix>
</trkpt>
<trkpt lat="33.8106991" lon="-118.3937931">
  <ele>-25.11</ele>
  <time>2026-09-02T22:11:32Z</time>
  <course>19.91</course>
  <speed>0.5093132631298737</speed>
  <fix>3d</fix>
</trkpt>
<trkpt lat="33.8106992" lon="-118.3937931">
  <ele>-25.11</ele>
  <time>2026-09-02T22:11:32Z</time>
  <course>19.91</course>
  <speed>0.5093132631298737</speed>
  <fix>3d</fix>
</trkpt>
<trkpt lat="33.8106992" lon="-118.3937931">
  <ele>-25.11</ele>
  <time>2026-09-02T22:11:32Z</time>
  <course>19.91</course>
  <speed>0.5020956084253276</speed>
  <fix>3d</fix>
</trkpt>
<trkpt lat="33.8106992" lon="-118.393793">
  <ele>-25.11</ele>
  <time>2026-09-02T22:11:32Z</time>
  <course>19.91</course>
  <speed>0.49517673612559787</speed>
  <fix>3d</fix>
</trkpt>
<trkpt lat="33.8106993" lon="-118.393793">
  <ele>-25.11</ele>
  <time>2026-09-02T22:11:32Z</time>
  <course>19.92</course>
  <speed>0.49517673612559787</speed>
  <fix>3d</fix>
</trkpt>
<trkpt lat="33.810699" lon="-118.3937937">
  <ele>-24.5</ele>
  <time>2026-09-02T22:11:32Z</time>
  <course>44.3</course>
  <speed>0.64</speed>
  <fix>3d</fix>
</trkpt>
<trkpt lat="33.8106993" lon="-118.393793">
  <ele>-25.11</ele>
  <time>2026-09-02T22:11:32Z</time>
  <course>19.92</course>
  <speed>0.49517673612559787</speed>
  <fix>3d</fix>
</trkpt>
<trkpt lat="33.8106993" lon="-118.3937929">
  <ele>-25.11</ele>
  <time>2026-09-02T22:11:32Z</time>
  <course>19.92</course>
  <speed>0.48104053883222775</speed>
  <fix>3d</fix>
</trkpt>
<trkpt lat="33.8106993" lon="-118.3937929">
  <ele>-25.11</ele>
  <time>2026-09-02T22:11:32Z</time>
  <course>19.92</course>
  <speed>0.48104053883222775</speed>
  <fix>3d</fix>
</trkpt>
<trkpt lat="33.8106993" lon="-118.3937929">
  <ele>-25.11</ele>
  <time>2026-09-02T22:11:32Z</time>
  <course>19.92</course>
  <speed>0.48104053883222775</speed>
  <fix>3d</fix>
</trkpt>
<trkpt lat="33.8106994" lon="-118.3937929">
  <ele>-25.11</ele>
  <time>2026-09-02T22:11:32Z</time>
  <course>19.92</course>
  <speed>0.4738143096192854</speed>
  <fix>3d</fix>
</trkpt>
<trkpt lat="33.8106994" lon="-118.3937928">
  <ele>-25.11</ele>
  <time>2026-09-02T22:11:32Z</time>
  <course>19.92</course>
  <speed>0.4738143096192854</speed>
  <fix>3d</fix>
</trkpt>
<trkpt lat="33.8106994" lon="-118.3937928">
  <ele>-25.11</ele>
  <time>2026-09-02T22:11:32Z</time>
  <course>19.92</course>
  <speed>0.4669047011971501</speed>
  <fix>3d</fix>
</trkpt>
<trkpt lat="33.8106994" lon="-118.3937928">
  <ele>-25.11</ele>
  <time>2026-09-02T22:11:32Z</time>
  <course>19.92</course>
  <speed>0.4669047011971501</speed>
  <fix>3d</fix>
</trkpt>
<trkpt lat="33.8106995" lon="-118.3937928">
  <ele>-25.11</ele>
  <time>2026-09-02T22:11:32Z</time>
  <course>19.92</course>
  <speed>0.4596737973824482</speed>
  <fix>3d</fix>
</trkpt>
<trkpt lat="33.8106995" lon="-118.3937927">
  <ele>-25.11</ele>
  <time>2026-09-02T22:11:32Z</time>
  <course>19.92</course>
  <speed>0.4596737973824482</speed>
  <fix>3d</fix>
</trkpt>
<trkpt lat="33.8106995" lon="-118.3937927">
  <ele>-25.11</ele>
  <time>2026-09-02T22:11:32Z</time>
  <course>19.92</course>
  <speed>0.4596737973824482</speed>
  <fix>3d</fix>
</trkpt>
<trkpt lat="33.8106995" lon="-118.3937927">
  <ele>-25.11</ele>
  <time>2026-09-02T22:11:32Z</time>
  <course>19.92</course>
  <speed>0.45276925690687087</speed>
  <fix>3d</fix>
</trkpt>
<trkpt lat="33.8106996" lon="-118.3937927">
  <ele>-25.11</ele>
  <time>2026-09-02T22:11:32Z</time>
  <course>19.92</course>
  <speed>0.45276925690687087</speed>
  <fix>3d</fix>
</trkpt>
<trkpt lat="33.8106996" lon="-118.3937926">
  <ele>-25.11</ele>
  <time>2026-09-02T22:11:32Z</time>
  <course>19.92</course>
  <speed>0.44553338819890925</speed>
  <fix>3d</fix>
</trkpt>
<trkpt lat="33.8106996" lon="-118.3937926">
  <ele>-25.11</ele>
  <time>2026-09-02T22:11:32Z</time>
  <course>19.92</course>
  <speed>0.44553338819890925</speed>
  <fix>3d</fix>
</trkpt>
<trkpt lat="33.810699" lon="-118.3937937">
  <ele>-24.5</ele>
  <time>2026-09-02T22:11:32Z</time>
  <course>44.3</course>
  <speed>0.64</speed>
  <fix>3d</fix>
</trkpt>
<trkpt lat="33.8106996" lon="-118.3937926">
  <ele>-25.11</ele>
  <time>2026-09-02T22:11:32Z</time>
  <course>19.92</course>
  <speed>0.44553338819890925</speed>
  <fix>3d</fix>
</trkpt>
<trkpt lat="33.8106997" lon="-118.3937925">
  <ele>-25.11</ele>
  <time>2026-09-02T22:11:32Z</time>
  <course>19.92</course>
  <speed>0.4386342439892262</speed>
  <fix>3d</fix>
</trkpt>
<trkpt lat="33.8106997" lon="-118.3937925">
  <ele>-25.11</ele>
  <time>2026-09-02T22:11:32Z</time>
  <course>19.92</course>
  <speed>0.4386342439892262</speed>
  <fix>3d</fix>
</trkpt>
<trkpt lat="33.8106997" lon="-118.3937925">
  <ele>-25.11</ele>
  <time>2026-09-02T22:11:32Z</time>
  <course>19.92</course>
  <speed>0.4386342439892262</speed>
  <fix>3d</fix>
</trkpt>
<trkpt lat="33.8106997" lon="-118.3937925">
  <ele>-25.11</ele>
  <time>2026-09-02T22:11:32Z</time>
  <course>19.92</course>
  <speed>0.43139309220245986</speed>
  <fix>3d</fix>
</trkpt>
<trkpt lat="33.8106997" lon="-118.3937925">
  <ele>-25.11</ele>
  <time>2026-09-02T22:11:32Z</time>
  <course>19.92</course>
  <speed>0.43139309220245986</speed>
  <fix>3d</fix>
</trkpt>
<trkpt lat="33.8106998" lon="-118.3937924">
  <ele>-25.11</ele>
  <time>2026-09-02T22:11:32Z</time>
  <course>19.92</course>
  <speed>0.43139309220245986</speed>
  <fix>3d</fix>
</trkpt>
<trkpt lat="33.8106998" lon="-118.3937924">
  <ele>-25.11</ele>
  <time>2026-09-02T22:11:32Z</time>
  <course>19.93</course>
  <speed>0.43139309220245986</speed>
  <fix>3d</fix>
</trkpt>
<trkpt lat="33.8106998" lon="-118.3937924">
  <ele>-25.11</ele>
  <time>2026-09-02T22:11:32Z</time>
  <course>19.93</course>
  <speed>0.43139309220245986</speed>
  <fix>3d</fix>
</trkpt>
<trkpt lat="33.8106998" lon="-118.3937924">
  <ele>-25.11</ele>
  <time>2026-09-02T22:11:32Z</time>
  <course>19.93</course>
  <speed>0.43139309220245986</speed>
  <fix>3d</fix>
</trkpt>
<trkpt lat="33.8106998" lon="-118.3937923">
  <ele>-25.11</ele>
  <time>2026-09-02T22:11:32Z</time>
  <course>19.93</course>
  <speed>0.42449970553582245</speed>
  <fix>3d</fix>
</trkpt>
<trkpt lat="33.8106999" lon="-118.3937923">
  <ele>-25.11</ele>
  <time>2026-09-02T22:11:32Z</time>
  <course>19.93</course>
  <speed>0.42449970553582245</speed>
  <fix>3d</fix>
</trkpt>
<trkpt lat="33.8106999" lon="-118.3937923">
  <ele>-25.11</ele>
  <time>2026-09-02T22:11:32Z</time>
  <course>19.93</course>
  <speed>0.42449970553582245</speed>
  <fix>3d</fix>
</trkpt>
<trkpt lat="33.8106997" lon="-118.3937928">
  <ele>-24.5</ele>
  <time>2026-09-02T22:11:32Z</time>
  <course>43.5</course>
  <speed>0.5</speed>
  <fix>3d</fix>
</trkpt>
<trkpt lat="33.8106999" lon="-118.3937923">
  <ele>-25.11</ele>
  <time>2026-09-02T22:11:32Z</time>
  <course>19.93</course>
  <speed>0.42449970553582245</speed>
  <fix>3d</fix>
</trkpt>
<trkpt lat="33.8106999" lon="-118.3937923">
  <ele>-25.11</ele>
  <time>2026-09-02T22:11:32Z</time>
  <course>19.93</course>
  <speed>0.4172529209005013</speed>
  <fix>3d</fix>
</trkpt>
<trkpt lat="33.8106999" lon="-118.3937922">
  <ele>-25.11</ele>
  <time>2026-09-02T22:11:32Z</time>
  <course>19.93</course>
  <speed>0.4172529209005013</speed>
  <fix>3d</fix>
</trkpt>
<trkpt lat="33.8107" lon="-118.3937922">
  <ele>-25.11</ele>
  <time>2026-09-02T22:11:32Z</time>
  <course>19.93</course>
  <speed>0.4172529209005013</speed>
  <fix>3d</fix>
</trkpt>
<trkpt lat="33.8107" lon="-118.3937922">
  <ele>-25.11</ele>
  <time>2026-09-02T22:11:32Z</time>
  <course>19.93</course>
  <speed>0.4172529209005013</speed>
  <fix>3d</fix>
</trkpt>
<trkpt lat="33.8107" lon="-118.3937922">
  <ele>-25.111</ele>
  <time>2026-09-02T22:11:32Z</time>
  <course>19.93</course>
  <speed>0.4172529209005013</speed>
  <fix>3d</fix>
</trkpt>
<trkpt lat="33.8107" lon="-118.3937921">
  <ele>-25.111</ele>
  <time>2026-09-02T22:11:32Z</time>
  <course>19.94</course>
  <speed>0.4172529209005013</speed>
  <fix>3d</fix>
</trkpt>
<trkpt lat="33.8107" lon="-118.3937921">
  <ele>-25.111</ele>
  <time>2026-09-02T22:11:32Z</time>
  <course>19.94</course>
  <speed>0.4172529209005013</speed>
  <fix>3d</fix>
</trkpt>
<trkpt lat="33.8107001" lon="-118.3937921">
  <ele>-25.111</ele>
  <time>2026-09-02T22:11:32Z</time>
  <course>19.94</course>
  <speed>0.4172529209005013</speed>
  <fix>3d</fix>
</trkpt>
<trkpt lat="33.8107001" lon="-118.3937921">
  <ele>-25.111</ele>
  <time>2026-09-02T22:11:32Z</time>
  <course>19.94</course>
  <speed>0.4172529209005013</speed>
  <fix>3d</fix>
</trkpt>
<trkpt lat="33.8107001" lon="-118.393792">
  <ele>-25.111</ele>
  <time>2026-09-02T22:11:32Z</time>
  <course>19.94</course>
  <speed>0.4172529209005013</speed>
  <fix>3d</fix>
</trkpt>
<trkpt lat="33.8107001" lon="-118.393792">
  <ele>-25.111</ele>
  <time>2026-09-02T22:11:32Z</time>
  <course>19.94</course>
  <speed>0.4172529209005013</speed>
  <fix>3d</fix>
</trkpt>
<trkpt lat="33.8107001" lon="-118.393792">
  <ele>-25.111</ele>
  <time>2026-09-02T22:11:32Z</time>
  <course>19.94</course>
  <speed>0.4172529209005013</speed>
  <fix>3d</fix>
</trkpt>
<trkpt lat="33.8107002" lon="-118.393792">
  <ele>-25.111</ele>
  <time>2026-09-02T22:11:32Z</time>
  <course>19.94</course>
  <speed>0.4172529209005013</speed>
  <fix>3d</fix>
</trkpt>
<trkpt lat="33.8107002" lon="-118.393792">
  <ele>-25.111</ele>
  <time>2026-09-02T22:11:32Z</time>
  <course>19.94</course>
  <speed>0.4172529209005013</speed>
  <fix>3d</fix>
</trkpt>
<trkpt lat="33.8106997" lon="-118.3937928">
  <ele>-24.5</ele>
  <time>2026-09-02T22:11:32Z</time>
  <course>43.5</course>
  <speed>0.5</speed>
  <fix>3d</fix>
</trkpt>
<trkpt lat="33.8107002" lon="-118.3937919">
  <ele>-25.112</ele>
  <time>2026-09-02T22:11:32Z</time>
  <course>19.94</course>
  <speed>0.4172529209005013</speed>
  <fix>3d</fix>
</trkpt>
<trkpt lat="33.8107002" lon="-118.3937919">
  <ele>-25.112</ele>
  <time>2026-09-02T22:11:32Z</time>
  <course>19.94</course>
  <speed>0.4172529209005013</speed>
  <fix>3d</fix>
</trkpt>
<trkpt lat="33.8107002" lon="-118.3937919">
  <ele>-25.112</ele>
  <time>2026-09-02T22:11:32Z</time>
  <course>19.94</course>
  <speed>0.4172529209005013</speed>
  <fix>3d</fix>
</trkpt>
<trkpt lat="33.8107003" lon="-118.3937919">
  <ele>-25.112</ele>
  <time>2026-09-02T22:11:32Z</time>
  <course>19.94</course>
  <speed>0.4172529209005013</speed>
  <fix>3d</fix>
</trkpt>
<trkpt lat="33.8107003" lon="-118.3937919">
  <ele>-25.112</ele>
  <time>2026-09-02T22:11:32Z</time>
  <course>19.94</course>
  <speed>0.4172529209005013</speed>
  <fix>3d</fix>
</trkpt>
<trkpt lat="33.8107003" lon="-118.3937918">
  <ele>-25.112</ele>
  <time>2026-09-02T22:11:32Z</time>
  <course>19.94</course>
  <speed>0.4172529209005013</speed>
  <fix>3d</fix>
</trkpt>
<trkpt lat="33.8107003" lon="-118.3937918">
  <ele>-25.112</ele>
  <time>2026-09-02T22:11:32Z</time>
  <course>19.94</course>
  <speed>0.4172529209005013</speed>
  <fix>3d</fix>
</trkpt>
<trkpt lat="33.8107004" lon="-118.3937918">
  <ele>-25.113</ele>
  <time>2026-09-02T22:11:32Z</time>
  <course>19.94</course>
  <speed>0.4172529209005013</speed>
  <fix>3d</fix>
</trkpt>
<trkpt lat="33.8107004" lon="-118.3937917">
  <ele>-25.113</ele>
  <time>2026-09-02T22:11:32Z</time>
  <course>19.94</course>
  <speed>0.42449970553582245</speed>
  <fix>3d</fix>
</trkpt>
<trkpt lat="33.8107004" lon="-118.3937917">
  <ele>-25.114</ele>
  <time>2026-09-02T22:11:32Z</time>
  <course>19.94</course>
  <speed>0.42449970553582245</speed>
  <fix>3d</fix>
</trkpt>
<trkpt lat="33.8107004" lon="-118.3937917">
  <ele>-25.114</ele>
  <time>2026-09-02T22:11:32Z</time>
  <course>19.94</course>
  <speed>0.42449970553582245</speed>
  <fix>3d</fix>
</trkpt>
<trkpt lat="33.8107005" lon="-118.3937916">
  <ele>-25.114</ele>
  <time>2026-09-02T22:11:32Z</time>
  <course>19.94</course>
  <speed>0.42449970553582245</speed>
  <fix>3d</fix>
</trkpt>
<trkpt lat="33.8107005" lon="-118.3937916">
  <ele>-25.114</ele>
  <time>2026-09-02T22:11:32Z</time>
  <course>19.94</course>
  <speed>0.42449970553582245</speed>
  <fix>3d</fix>
</trkpt>
<trkpt lat="33.8107004" lon="-118.3937922">
  <ele>-24.51</ele>
  <time>2026-09-02T22:11:32Z</time>
  <course>43.04</course>
  <speed>0.44</speed>
  <fix>3d</fix>
</trkpt>
<trkpt lat="33.8107005" lon="-118.3937916">
  <ele>-25.115</ele>
  <time>2026-09-02T22:11:32Z</time>
  <course>19.95</course>
  <speed>0.42449970553582245</speed>
  <fix>3d</fix>
</trkpt>
<trkpt lat="33.8107005" lon="-118.3937916">
  <ele>-25.115</ele>
  <time>2026-09-02T22:11:32Z</time>
  <course>19.95</course>
  <speed>0.43139309220245986</speed>
  <fix>3d</fix>
</trkpt>
<trkpt lat="33.8107006" lon="-118.3937915">
  <ele>-25.115</ele>
  <time>2026-09-02T22:11:32Z</time>
  <course>19.95</course>
  <speed>0.4386342439892262</speed>
  <fix>3d</fix>
</trkpt>
<trkpt lat="33.8107006" lon="-118.3937915">
  <ele>-25.116</ele>
  <time>2026-09-02T22:11:32Z</time>
  <course>19.95</course>
  <speed>0.4386342439892262</speed>
  <fix>3d</fix>
</trkpt>
<trkpt lat="33.8107006" lon="-118.3937915">
  <ele>-25.116</ele>
  <time>2026-09-02T22:11:32Z</time>
  <course>19.95</course>
  <speed>0.4386342439892262</speed>
  <fix>3d</fix>
</trkpt>
<trkpt lat="33.8107006" lon="-118.3937914">
  <ele>-25.116</ele>
  <time>2026-09-02T22:11:32Z</time>
  <course>19.95</course>
  <speed>0.4386342439892262</speed>
  <fix>3d</fix>
</trkpt>
<trkpt lat="33.8107007" lon="-118.3937914">
  <ele>-25.117</ele>
  <time>2026-09-02T22:11:32Z</time>
  <course>19.95</course>
  <speed>0.4386342439892262</speed>
  <fix>3d</fix>
</trkpt>
<trkpt lat="33.8107007" lon="-118.3937914">
  <ele>-25.117</ele>
  <time>2026-09-02T22:11:32Z</time>
  <course>19.95</course>
  <speed>0.4386342439892262</speed>
  <fix>3d</fix>
</trkpt>
<trkpt lat="33.8107007" lon="-118.3937914">
  <ele>-25.118</ele>
  <time>2026-09-02T22:11:32Z</time>
  <course>19.95</course>
  <speed>0.4459820624195552</speed>
  <fix>3d</fix>
</trkpt>
<trkpt lat="33.8107007" lon="-118.3937913">
  <ele>-25.118</ele>
  <time>2026-09-02T22:11:32Z</time>
  <course>19.95</course>
  <speed>0.45276925690687087</speed>
  <fix>3d</fix>
</trkpt>
<trkpt lat="33.8107008" lon="-118.3937913">
  <ele>-25.118</ele>
  <time>2026-09-02T22:11:32Z</time>
  <course>19.95</course>
  <speed>0.45276925690687087</speed>
  <fix>3d</fix>
</trkpt>
<trkpt lat="33.8107008" lon="-118.3937913">
  <ele>-25.118</ele>
  <time>2026-09-02T22:11:32Z</time>
  <course>19.95</course>
  <speed>0.45276925690687087</speed>
  <fix>3d</fix>
</trkpt>
<trkpt lat="33.8107004" lon="-118.3937922">
  <ele>-24.51</ele>
  <time>2026-09-02T22:11:32Z</time>
  <course>43.04</course>
  <speed>0.44</speed>
  <fix>3d</fix>
</trkpt>
<trkpt lat="33.8107008" lon="-118.3937913">
  <ele>-25.119</ele>
  <time>2026-09-02T22:11:32Z</time>
  <course>19.95</course>
  <speed>0.45276925690687087</speed>
  <fix>3d</fix>
</trkpt>
<trkpt lat="33.8107008" lon="-118.3937912">
  <ele>-25.119</ele>
  <time>2026-09-02T22:11:32Z</time>
  <course>19.95</course>
  <speed>0.46010868281309364</speed>
  <fix>3d</fix>
</trkpt>
<trkpt lat="33.8107008" lon="-118.3937912">
  <ele>-25.12</ele>
  <time>2026-09-02T22:11:32Z</time>
  <course>19.95</course>
  <speed>0.46010868281309364</speed>
  <fix>3d</fix>
</trkpt>
<trkpt lat="33.8107009" lon="-118.3937912">
  <ele>-25.12</ele>
  <time>2026-09-02T22:11:32Z</time>
  <course>19.95</course>
  <speed>0.4669047011971501</speed>
  <fix>3d</fix>
</trkpt>
<trkpt lat="33.8107009" lon="-118.3937912">
  <ele>-25.12</ele>
  <time>2026-09-02T22:11:32Z</time>
  <course>19.95</course>
  <speed>0.4669047011971501</speed>
  <fix>3d</fix>
</trkpt>
<trkpt lat="33.8107009" lon="-118.3937911">
  <ele>-25.121</ele>
  <time>2026-09-02T22:11:32Z</time>
  <course>19.95</course>
  <speed>0.474236228055175</speed>
  <fix>3d</fix>
</trkpt>
<trkpt lat="33.8107009" lon="-118.3937911">
  <ele>-25.121</ele>
  <time>2026-09-02T22:11:32Z</time>
  <course>19.95</course>
  <speed>0.474236228055175</speed>
  <fix>3d</fix>
</trkpt>
<trkpt lat="33.8107009" lon="-118.3937911">
  <ele>-25.121</ele>
  <time>2026-09-02T22:11:32Z</time>
  <course>19.95</course>
  <speed>0.474236228055175</speed>
  <fix>3d</fix>
</trkpt>
<trkpt lat="33.810701" lon="-118.3937911">
  <ele>-25.122</ele>
  <time>2026-09-02T22:11:32Z</time>
  <course>19.95</course>
  <speed>0.474236228055175</speed>
  <fix>3d</fix>
</trkpt>
<trkpt lat="33.810701" lon="-118.393791">
  <ele>-25.122</ele>
  <time>2026-09-02T22:11:32Z</time>
  <course>19.95</course>
  <speed>0.48104053883222775</speed>
  <fix>3d</fix>
</trkpt>
<trkpt lat="33.810701" lon="-118.393791">
  <ele>-25.122</ele>
  <time>2026-09-02T22:11:32Z</time>
  <course>19.95</course>
  <speed>0.4883646178829912</speed>
  <fix>3d</fix>
</trkpt>
<trkpt lat="33.810701" lon="-118.393791">
  <ele>-25.123</ele>
  <time>2026-09-02T22:11:32Z</time>
  <course>19.95</course>
  <speed>0.4883646178829912</speed>
  <fix>3d</fix>
</trkpt>
<trkpt lat="33.8107011" lon="-118.393791">
  <ele>-25.123</ele>
  <time>2026-09-02T22:11:32Z</time>
  <course>19.95</course>
  <speed>0.4883646178829912</speed>
  <fix>3d</fix>
</trkpt>
<trkpt lat="33.8107011" lon="-118.3937909">
  <ele>-25.123</ele>
  <time>2026-09-02T22:11:32Z</time>
  <course>19.95</course>
  <speed>0.49517673612559787</speed>
  <fix>3d</fix>
</trkpt>
<trkpt lat="33.8107009" lon="-118.3937915">
  <ele>-24.51</ele>
  <time>2026-09-02T22:11:32Z</time>
  <course>43.45</course>
  <speed>0.44</speed>
  <fix>3d</fix>
</trkpt>
<trkpt lat="33.8107011" lon="-118.3937909">
  <ele>-25.123</ele>
  <time>2026-09-02T22:11:32Z</time>
  <course>19.95</course>
  <speed>0.5024937810560445</speed>
  <fix>3d</fix>
</trkpt>
<trkpt lat="33.8107011" lon="-118.3937909">
  <ele>-25.124</ele>
  <time>2026-09-02T22:11:32Z</time>
  <course>19.95</course>
  <speed>0.5024937810560445</speed>
  <fix>3d</fix>
</trkpt>
<trkpt lat="33.8107011" lon="-118.3937909">
  <ele>-25.124</ele>
  <time>2026-09-02T22:11:32Z</time>
  <course>19.95</course>
  <speed>0.5024937810560445</speed>
  <fix>3d</fix>
</trkpt>
<trkpt lat="33.8107012" lon="-118.3937908">
  <ele>-25.125</ele>
  <time>2026-09-02T22:11:32Z</time>
  <course>19.95</course>
  <speed>0.5099019513592785</speed>
  <fix>3d</fix>
</trkpt>
<trkpt lat="33.8107012" lon="-118.3937908">
  <ele>-25.125</ele>
  <time>2026-09-02T22:11:32Z</time>
  <course>19.95</course>
  <speed>0.5166236541235796</speed>
  <fix>3d</fix>
</trkpt>
<trkpt lat="33.8107012" lon="-118.3937908">
  <ele>-25.126</ele>
  <time>2026-09-02T22:11:32Z</time>
  <course>19.95</course>
  <speed>0.5166236541235796</speed>
  <fix>3d</fix>
</trkpt>
<trkpt lat="33.8107013" lon="-118.3937907">
  <ele>-25.127</ele>
  <time>2026-09-02T22:11:32Z</time>
  <course>19.95</course>
  <speed>0.5240229002629561</speed>
  <fix>3d</fix>
</trkpt>
<trkpt lat="33.8107013" lon="-118.3937907">
  <ele>-25.127</ele>
  <time>2026-09-02T22:11:32Z</time>
  <course>19.95</course>
  <speed>0.530754180388624</speed>
  <fix>3d</fix>
</trkpt>
<trkpt lat="33.8107013" lon="-118.3937906">
  <ele>-25.128</ele>
  <time>2026-09-02T22:11:32Z</time>
  <course>19.96</course>
  <speed>0.5381449618829484</speed>
  <fix>3d</fix>
</trkpt>
<trkpt lat="33.8107014" lon="-118.3937906">
  <ele>-25.128</ele>
  <time>2026-09-02T22:11:32Z</time>
  <course>19.95</course>
  <speed>0.5381449618829484</speed>
  <fix>3d</fix>
</trkpt>
<trkpt lat="33.8107014" lon="-118.3937906">
  <ele>-25.129</ele>
  <time>2026-09-02T22:11:32Z</time>
  <course>19.96</course>
  <speed>0.5448853090330111</speed>
  <fix>3d</fix>
</trkpt>
<trkpt lat="33.8107014" lon="-118.3937905">
  <ele>-25.129</ele>
  <time>2026-09-02T22:11:32Z</time>
  <course>19.95</course>
  <speed>0.552268050859363</speed>
  <fix>3d</fix>
</trkpt>
<trkpt lat="33.8107014" lon="-118.3937905">
  <ele>-25.129</ele>
  <time>2026-09-02T22:11:32Z</time>
  <course>19.95</course>
  <speed>0.552268050859363</speed>
  <fix>3d</fix>
</trkpt>
<trkpt lat="33.8107009" lon="-118.3937915">
  <ele>-24.51</ele>
  <time>2026-09-02T22:11:32Z</time>
  <course>43.45</course>
  <speed>0.44</speed>
  <fix>3d</fix>
</trkpt>
<trkpt lat="33.8107015" lon="-118.3937905">
  <ele>-25.13</ele>
  <time>2026-09-02T22:11:32Z</time>
  <course>19.95</course>
  <speed>0.552268050859363</speed>
  <fix>3d</fix>
</trkpt>
<trkpt lat="33.8107015" lon="-118.3937904">
  <ele>-25.13</ele>
  <time>2026-09-02T22:11:32Z</time>
  <course>19.95</course>
  <speed>0.5590169943749475</speed>
  <fix>3d</fix>
</trkpt>
<trkpt lat="33.8107015" lon="-118.3937904">
  <ele>-25.131</ele>
  <time>2026-09-02T22:11:32Z</time>
  <course>19.95</course>
  <speed>0.5663920903402518</speed>
  <fix>3d</fix>
</trkpt>
<trkpt lat="33.8107015" lon="-118.3937904">
  <ele>-25.131</ele>
  <time>2026-09-02T22:11:32Z</time>
  <course>19.95</course>
  <speed>0.5663920903402518</speed>
  <fix>3d</fix>
</trkpt>
<trkpt lat="33.8107016" lon="-118.3937903">
  <ele>-25.132</ele>
  <time>2026-09-02T22:11:32Z</time>
  <course>19.95</course>
  <speed>0.5805170109479997</speed>
  <fix>3d</fix>
</trkpt>
<trkpt lat="33.8107016" lon="-118.3937903">
  <ele>-25.133</ele>
  <time>2026-09-02T22:11:32Z</time>
  <course>19.95</course>
  <speed>0.5805170109479997</speed>
  <fix>3d</fix>
</trkpt>
<trkpt lat="33.8107016" lon="-118.3937903">
  <ele>-25.133</ele>
  <time>2026-09-02T22:11:32Z</time>
  <course>19.95</course>
  <speed>0.5805170109479997</speed>
  <fix>3d</fix>
</trkpt>
<trkpt lat="33.8107017" lon="-118.3937902">
  <ele>-25.134</ele>
  <time>2026-09-02T22:11:32Z</time>
  <course>19.95</course>
  <speed>0.5805170109479997</speed>
  <fix>3d</fix>
</trkpt>
<trkpt lat="33.8107017" lon="-118.3937902">
  <ele>-25.134</ele>
  <time>2026-09-02T22:11:32Z</time>
  <course>19.95</course>
  <speed>0.5946427498927402</speed>
  <fix>3d</fix>
</trkpt>
<trkpt lat="33.8107017" lon="-118.3937902">
  <ele>-25.134</ele>
  <time>2026-09-02T22:11:32Z</time>
  <course>19.95</course>
  <speed>0.5946427498927402</speed>
  <fix>3d</fix>
</trkpt>
<trkpt lat="33.8107018" lon="-118.3937901">
  <ele>-25.135</ele>
  <time>2026-09-02T22:11:32Z</time>
  <course>19.95</course>
  <speed>0.5946427498927402</speed>
  <fix>3d</fix>
</trkpt>
<trkpt lat="33.8107018" lon="-118.3937901">
  <ele>-25.135</ele>
  <time>2026-09-02T22:11:32Z</time>
  <course>19.95</course>
  <speed>0.608769250208977</speed>
  <fix>3d</fix>
</trkpt>
<trkpt lat="33.8107018" lon="-118.3937901">
  <ele>-25.136</ele>
  <time>2026-09-02T22:11:32Z</time>
  <course>19.95</course>
  <speed>0.608769250208977</speed>
  <fix>3d</fix>
</trkpt>
<trkpt lat="33.8107016" lon="-118.3937908">
  <ele>-24.51</ele>
  <time>2026-09-02T22:11:32Z</time>
  <course>44.42</course>
  <speed>0.52</speed>
  <fix>3d</fix>
</trkpt>
<trkpt lat="33.8107018" lon="-118.3937901">
  <ele>-25.136</ele>
  <time>2026-09-02T22:11:32Z</time>
  <course>19.95</course>
  <speed>0.608769250208977</speed>
  <fix>3d</fix>
</trkpt>
<trkpt lat="33.8107018" lon="-118.3937901">
  <ele>-25.136</ele>
  <time>2026-09-02T22:11:32Z</time>
  <course>19.95</course>
  <speed>0.608769250208977</speed>
  <fix>3d</fix>
</trkpt>
<trkpt lat="33.8107019" lon="-118.39379">
  <ele>-25.137</ele>
  <time>2026-09-02T22:11:32Z</time>
  <course>19.95</course>
  <speed>0.6161980201201558</speed>
  <fix>3d</fix>
</trkpt>
<trkpt lat="33.8107019" lon="-118.39379">
  <ele>-25.137</ele>
  <time>2026-09-02T22:11:32Z</time>
  <course>19.95</course>
  <speed>0.6161980201201558</speed>
  <fix>3d</fix>
</trkpt>
<trkpt lat="33.8107019" lon="-118.3937899">
  <ele>-25.138</ele>
  <time>2026-09-02T22:11:32Z</time>
  <course>19.95</course>
  <speed>0.6228964600958975</speed>
  <fix>3d</fix>
</trkpt>
<trkpt lat="33.8107019" lon="-118.3937899">
  <ele>-25.138</ele>
  <time>2026-09-02T22:11:32Z</time>
  <course>19.95</course>
  <speed>0.630317380372777</speed>
  <fix>3d</fix>
</trkpt>
<trkpt lat="33.810702" lon="-118.3937899">
  <ele>-25.138</ele>
  <time>2026-09-02T22:11:32Z</time>
  <course>19.96</course>
  <speed>0.630317380372777</speed>
  <fix>3d</fix>
</trkpt>
<trkpt lat="33.810702" lon="-118.3937898">
  <ele>-25.139</ele>
  <time>2026-09-02T22:11:32Z</time>
  <course>19.96</course>
  <speed>0.630317380372777</speed>
  <fix>3d</fix>
</trkpt>
<trkpt lat="33.810702" lon="-118.3937898">
  <ele>-25.139</ele>
  <time>2026-09-02T22:11:32Z</time>
  <course>19.96</course>
  <speed>0.6370243323453194</speed>
  <fix>3d</fix>
</trkpt>
<trkpt lat="33.8107021" lon="-118.3937898">
  <ele>-25.14</ele>
  <time>2026-09-02T22:11:32Z</time>
  <course>19.96</course>
  <speed>0.644437739428721</speed>
  <fix>3d</fix>
</trkpt>
<trkpt lat="33.8107021" lon="-118.3937897">
  <ele>-25.14</ele>
  <time>2026-09-02T22:11:32Z</time>
  <course>19.96</course>
  <speed>0.644437739428721</speed>
  <fix>3d</fix>
</trkpt>
<trkpt lat="33.8107021" lon="-118.3937897">
  <ele>-25.141</ele>
  <time>2026-09-02T22:11:32Z</time>
  <course>19.96</course>
  <speed>0.644437739428721</speed>
  <fix>3d</fix>
</trkpt>
<trkpt lat="33.8107021" lon="-118.3937897">
  <ele>-25.141</ele>
  <time>2026-09-02T22:11:32Z</time>
  <course>19.96</course>
  <speed>0.6585590330410782</speed>
  <fix>3d</fix>
</trkpt>
<trkpt lat="33.8107022" lon="-118.3937896">
  <ele>-25.142</ele>
  <time>2026-09-02T22:11:32Z</time>
  <course>19.96</course>
  <speed>0.6585590330410782</speed>
  <fix>3d</fix>
</trkpt>
<trkpt lat="33.8107022" lon="-118.3937896">
  <ele>-25.142</ele>
  <time>2026-09-02T22:11:32Z</time>
  <course>19.96</course>
  <speed>0.6585590330410782</speed>
  <fix>3d</fix>
</trkpt>
<trkpt lat="33.8107016" lon="-118.3937908">
  <ele>-24.51</ele>
  <time>2026-09-02T22:11:32Z</time>
  <course>44.42</course>
  <speed>0.52</speed>
  <fix>3d</fix>
</trkpt>
<trkpt lat="33.8107022" lon="-118.3937896">
  <ele>-25.142</ele>
  <time>2026-09-02T22:11:32Z</time>
  <course>19.96</course>
  <speed>0.6585590330410782</speed>
  <fix>3d</fix>
</trkpt>
<trkpt lat="33.8107022" lon="-118.3937895">
  <ele>-25.143</ele>
  <time>2026-09-02T22:11:32Z</time>
  <course>19.96</course>
  <speed>0.6726812023536856</speed>
  <fix>3d</fix>
</trkpt>
<trkpt lat="33.8107023" lon="-118.3937895">
  <ele>-25.143</ele>
  <time>2026-09-02T22:11:32Z</time>
  <course>19.96</course>
  <speed>0.6726812023536856</speed>
  <fix>3d</fix>
</trkpt>
<trkpt lat="33.8107023" lon="-118.3937894">
  <ele>-25.144</ele>
  <time>2026-09-02T22:11:32Z</time>
  <course>19.96</course>
  <speed>0.6726812023536856</speed>
  <fix>3d</fix>
</trkpt>
<trkpt lat="33.8107023" lon="-118.3937894">
  <ele>-25.144</ele>
  <time>2026-09-02T22:11:32Z</time>
  <course>19.95</course>
  <speed>0.6726812023536856</speed>
  <fix>3d</fix>
</trkpt>
<trkpt lat="33.8107024" lon="-118.3937894">
  <ele>-25.144</ele>
  <time>2026-09-02T22:11:32Z</time>
  <course>19.95</course>
  <speed>0.686804193347711</speed>
  <fix>3d</fix>
</trkpt>
<trkpt lat="33.8107024" lon="-118.3937893">
  <ele>-25.145</ele>
  <time>2026-09-02T22:11:32Z</time>
  <course>19.95</course>
  <speed>0.686804193347711</speed>
  <fix>3d</fix>
</trkpt>
<trkpt lat="33.8107024" lon="-118.3937893">
  <ele>-25.145</ele>
  <time>2026-09-02T22:11:32Z</time>
  <course>19.95</course>
  <speed>0.686804193347711</speed>
  <fix>3d</fix>
</trkpt>
<trkpt lat="33.8107025" lon="-118.3937892">
  <ele>-25.146</ele>
  <time>2026-09-02T22:11:32Z</time>
  <course>19.95</course>
  <speed>0.6942621983083913</speed>
  <fix>3d</fix>
</trkpt>
<trkpt lat="33.8107025" lon="-118.3937892">
  <ele>-25.146</ele>
  <time>2026-09-02T22:11:32Z</time>
  <course>19.95</course>
  <speed>0.7009279563550023</speed>
  <fix>3d</fix>
</trkpt>
<trkpt lat="33.8107025" lon="-118.3937892">
  <ele>-25.146</ele>
  <time>2026-09-02T22:11:32Z</time>
  <course>19.95</course>
  <speed>0.7009279563550023</speed>
  <fix>3d</fix>
</trkpt>
<trkpt lat="33.8107026" lon="-118.3937891">
  <ele>-25.147</ele>
  <time>2026-09-02T22:11:32Z</time>
  <course>19.95</course>
  <speed>0.7009279563550023</speed>
  <fix>3d</fix>
</trkpt>
<trkpt lat="33.8107026" lon="-118.3937891">
  <ele>-25.147</ele>
  <time>2026-09-02T22:11:32Z</time>
  <course>19.95</course>
  <speed>0.7083784299369935</speed>
  <fix>3d</fix>
</trkpt>
<trkpt lat="33.8107026" lon="-118.393789">
  <ele>-25.147</ele>
  <time>2026-09-02T22:11:32Z</time>
  <course>19.95</course>
  <speed>0.7083784299369935</speed>
  <fix>3d</fix>
</trkpt>
<trkpt lat="33.8107023" lon="-118.3937899">
  <ele>-24.52</ele>
  <time>2026-09-02T22:11:32Z</time>
  <course>45.16</course>
  <speed>0.62</speed>
  <fix>3d</fix>
</trkpt>
<trkpt lat="33.8107026" lon="-118.393789">
  <ele>-25.147</ele>
  <time>2026-09-02T22:11:32Z</time>
  <course>19.95</course>
  <speed>0.7083784299369935</speed>
  <fix>3d</fix>
</trkpt>
<trkpt lat="33.8107027" lon="-118.3937889">
  <ele>-25.148</ele>
  <time>2026-09-02T22:11:32Z</time>
  <course>19.95</course>
  <speed>0.7150524456289902</speed>
  <fix>3d</fix>
</trkpt>
<trkpt lat="33.8107028" lon="-118.3937889">
  <ele>-25.149</ele>
  <time>2026-09-02T22:11:32Z</time>
  <course>19.95</course>
  <speed>0.7224956747275377</speed>
  <fix>3d</fix>
</trkpt>
<trkpt lat="33.8107028" lon="-118.3937888">
  <ele>-25.15</ele>
  <time>2026-09-02T22:11:32Z</time>
  <course>19.95</course>
  <speed>0.7291776189653656</speed>
  <fix>3d</fix>
</trkpt>
<trkpt lat="33.8107029" lon="-118.3937888">
  <ele>-25.15</ele>
  <time>2026-09-02T22:11:32Z</time>
  <course>19.95</course>
  <speed>0.7366138744281159</speed>
  <fix>3d</fix>
</trkpt>
<trkpt lat="33.8107029" lon="-118.3937887">
  <ele>-25.15</ele>
  <time>2026-09-02T22:11:32Z</time>
  <course>19.95</course>
  <speed>0.7366138744281159</speed>
  <fix>3d</fix>
</trkpt>
<trkpt lat="33.8107029" lon="-118.3937887">
  <ele>-25.151</ele>
  <time>2026-09-02T22:11:32Z</time>
  <course>19.95</course>
  <speed>0.7366138744281159</speed>
  <fix>3d</fix>
</trkpt>
<trkpt lat="33.810703" lon="-118.3937886">
  <ele>-25.151</ele>
  <time>2026-09-02T22:11:32Z</time>
  <course>19.95</course>
  <speed>0.7433034373659253</speed>
  <fix>3d</fix>
</trkpt>
<trkpt lat="33.810703" lon="-118.3937886">
  <ele>-25.152</ele>
  <time>2026-09-02T22:11:32Z</time>
  <course>19.95</course>
  <speed>0.7507329751649384</speed>
  <fix>3d</fix>
</trkpt>
<trkpt lat="33.8107031" lon="-118.3937885">
  <ele>-25.152</ele>
  <time>2026-09-02T22:11:32Z</time>
  <course>19.95</course>
  <speed>0.7507329751649384</speed>
  <fix>3d</fix>
</trkpt>
<trkpt lat="33.8107031" lon="-118.3937885">
  <ele>-25.152</ele>
  <time>2026-09-02T22:11:32Z</time>
  <course>19.95</course>
  <speed>0.7507329751649384</speed>
  <fix>3d</fix>
</trkpt>
<trkpt lat="33.8107031" lon="-118.3937885">
  <ele>-25.152</ele>
  <time>2026-09-02T22:11:32Z</time>
  <course>19.95</course>
  <speed>0.7507329751649384</speed>
  <fix>3d</fix>
</trkpt>
<trkpt lat="33.8107023" lon="-118.3937899">
  <ele>-24.52</ele>
  <time>2026-09-02T22:11:32Z</time>
  <course>45.16</course>
  <speed>0.62</speed>
  <fix>3d</fix>
</trkpt>
<trkpt lat="33.8107031" lon="-118.3937885">
  <ele>-25.153</ele>
  <time>2026-09-02T22:11:32Z</time>
  <course>19.95</course>
  <speed>0.7507329751649384</speed>
  <fix>3d</fix>
</trkpt>
<trkpt lat="33.8107032" lon="-118.3937884">
  <ele>-25.153</ele>
  <time>2026-09-02T22:11:32Z</time>
  <course>19.95</course>
  <speed>0.757429864739964</speed>
  <fix>3d</fix>
</trkpt>
<trkpt lat="33.8107032" lon="-118.3937884">
  <ele>-25.153</ele>
  <time>2026-09-02T22:11:32Z</time>
  <course>19.95</course>
  <speed>0.7648529270389177</speed>
  <fix>3d</fix>
</trkpt>
<trkpt lat="33.8107032" lon="-118.3937883">
  <ele>-25.154</ele>
  <time>2026-09-02T22:11:32Z</time>
  <course>19.95</course>
  <speed>0.7648529270389177</speed>
  <fix>3d</fix>
</trkpt>
<trkpt lat="33.8107033" lon="-118.3937883">
  <ele>-25.154</ele>
  <time>2026-09-02T22:11:32Z</time>
  <course>19.95</course>
  <speed>0.7648529270389177</speed>
  <fix>3d</fix>
</trkpt>
<trkpt lat="33.8107033" lon="-118.3937882">
  <ele>-25.155</ele>
  <time>2026-09-02T22:11:32Z</time>
  <course>19.95</course>
  <speed>0.7648529270389177</speed>
  <fix>3d</fix>
</trkpt>
<trkpt lat="33.8107033" lon="-118.3937882">
  <ele>-25.155</ele>
  <time>2026-09-02T22:11:32Z</time>
  <course>19.95</course>
  <speed>0.7789736837660179</speed>
  <fix>3d</fix>
</trkpt>
<trkpt lat="33.8107034" lon="-118.3937881">
  <ele>-25.156</ele>
  <time>2026-09-02T22:11:32Z</time>
  <course>19.95</course>
  <speed>0.7789736837660179</speed>
  <fix>3d</fix>
</trkpt>
<trkpt lat="33.8107034" lon="-118.3937881">
  <ele>-25.156</ele>
  <time>2026-09-02T22:11:32Z</time>
  <course>19.94</course>
  <speed>0.7789736837660179</speed>
  <fix>3d</fix>
</trkpt>
<trkpt lat="33.8107034" lon="-118.3937881">
  <ele>-25.156</ele>
  <time>2026-09-02T22:11:32Z</time>
  <course>19.94</course>
  <speed>0.7789736837660179</speed>
  <fix>3d</fix>
</trkpt>
<trkpt lat="33.8107035" lon="-118.393788">
  <ele>-25.157</ele>
  <time>2026-09-02T22:11:32Z</time>
  <course>19.94</course>
  <speed>0.7789736837660179</speed>
  <fix>3d</fix>
</trkpt>
<trkpt lat="33.8107035" lon="-118.393788">
  <ele>-25.157</ele>
  <time>2026-09-02T22:11:32Z</time>
  <course>19.94</course>
  <speed>0.7856844150166147</speed>
  <fix>3d</fix>
</trkpt>
<trkpt lat="33.8107035" lon="-118.3937879">
  <ele>-25.158</ele>
  <time>2026-09-02T22:11:32Z</time>
  <course>19.94</course>
  <speed>0.7930952023559341</speed>
  <fix>3d</fix>
</trkpt>
<trkpt lat="33.8107036" lon="-118.3937879">
  <ele>-25.158</ele>
  <time>2026-09-02T22:11:32Z</time>
  <course>19.94</course>
  <speed>0.7930952023559341</speed>
  <fix>3d</fix>
</trkpt>
<trkpt lat="33.8107036" lon="-118.3937879">
  <ele>-25.158</ele>
  <time>2026-09-02T22:11:32Z</time>
  <course>19.94</course>
  <speed>0.7930952023559341</speed>
  <fix>3d</fix>
</trkpt>
<trkpt lat="33.8107032" lon="-118.3937888">
  <ele>-24.53</ele>
  <time>2026-09-02T22:11:32Z</time>
  <course>45.53</course>
  <speed>0.72</speed>
  <fix>3d</fix>
</trkpt>
<trkpt lat="33.8107036" lon="-118.3937878">
  <ele>-25.159</ele>
  <time>2026-09-02T22:11:32Z</time>
  <course>19.94</course>
  <speed>0.7930952023559341</speed>
  <fix>3d</fix>
</trkpt>
<trkpt lat="33.8107037" lon="-118.3937878">
  <ele>-25.159</ele>
  <time>2026-09-02T22:11:32Z</time>
  <course>19.94</course>
  <speed>0.7930952023559341</speed>
  <fix>3d</fix>
</trkpt>
<trkpt lat="33.8107037" lon="-118.3937877">
  <ele>-25.16</ele>
  <time>2026-09-02T22:11:32Z</time>
  <course>19.94</course>
  <speed>0.8072174428244225</speed>
  <fix>3d</fix>
</trkpt>
<trkpt lat="33.8107038" lon="-118.3937877">
  <ele>-25.16</ele>
  <time>2026-09-02T22:11:32Z</time>
  <course>19.94</course>
  <speed>0.8072174428244225</speed>
  <fix>3d</fix>
</trkpt>
<trkpt lat="33.8107038" lon="-118.3937876">
  <ele>-25.161</ele>
  <time>2026-09-02T22:11:32Z</time>
  <course>19.94</course>
  <speed>0.8072174428244225</speed>
  <fix>3d</fix>
</trkpt>
<trkpt lat="33.8107038" lon="-118.3937876">
  <ele>-25.161</ele>
  <time>2026-09-02T22:11:32Z</time>
  <course>19.94</course>
  <speed>0.8072174428244225</speed>
  <fix>3d</fix>
</trkpt>
<trkpt lat="33.8107039" lon="-118.3937875">
  <ele>-25.161</ele>
  <time>2026-09-02T22:11:32Z</time>
  <course>19.94</course>
  <speed>0.8072174428244225</speed>
  <fix>3d</fix>
</trkpt>
<trkpt lat="33.8107039" lon="-118.3937875">
  <ele>-25.162</ele>
  <time>2026-09-02T22:11:32Z</time>
  <course>19.94</course>
  <speed>0.8146778504415104</speed>
  <fix>3d</fix>
</trkpt>
<trkpt lat="33.8107039" lon="-118.3937874">
  <ele>-25.162</ele>
  <time>2026-09-02T22:11:32Z</time>
  <course>19.94</course>
  <speed>0.8213403679352428</speed>
  <fix>3d</fix>
</trkpt>
<trkpt lat="33.810704" lon="-118.3937874">
  <ele>-25.162</ele>
  <time>2026-09-02T22:11:32Z</time>
  <course>19.94</course>
  <speed>0.8213403679352428</speed>
  <fix>3d</fix>
</trkpt>
<trkpt lat="33.810704" lon="-118.3937873">
  <ele>-25.163</ele>
  <time>2026-09-02T22:11:32Z</time>
  <course>19.94</course>
  <speed>0.8213403679352428</speed>
  <fix>3d</fix>
</trkpt>
<trkpt lat="33.8107041" lon="-118.3937873">
  <ele>-25.163</ele>
  <time>2026-09-02T22:11:32Z</time>
  <course>19.94</course>
  <speed>0.8213403679352428</speed>
  <fix>3d</fix>
</trkpt>
<trkpt lat="33.8107041" lon="-118.3937872">
  <ele>-25.163</ele>
  <time>2026-09-02T22:11:32Z</time>
  <course>19.94</course>
  <speed>0.8213403679352428</speed>
  <fix>3d</fix>
</trkpt>
<trkpt lat="33.8107032" lon="-118.3937888">
  <ele>-24.53</ele>
  <time>2026-09-02T22:11:32Z</time>
  <course>45.53</course>
  <speed>0.72</speed>
  <fix>3d</fix>
</trkpt>
<trkpt lat="33.8107041" lon="-118.3937872">
  <ele>-25.163</ele>
  <time>2026-09-02T22:11:32Z</time>
  <course>19.94</course>
  <speed>0.8213403679352428</speed>
  <fix>3d</fix>
</trkpt>
<trkpt lat="33.8107042" lon="-118.3937872">
  <ele>-25.164</ele>
  <time>2026-09-02T22:11:32Z</time>
  <course>19.94</course>
  <speed>0.8287943049997388</speed>
  <fix>3d</fix>
</trkpt>
<trkpt lat="33.8107042" lon="-118.3937871">
  <ele>-25.164</ele>
  <time>2026-09-02T22:11:32Z</time>
  <course>19.94</course>
  <speed>0.8354639429682169</speed>
  <fix>3d</fix>
</trkpt>
<trkpt lat="33.8107042" lon="-118.3937871">
  <ele>-25.165</ele>
  <time>2026-09-02T22:11:32Z</time>
  <course>19.94</course>
  <speed>0.8354639429682169</speed>
  <fix>3d</fix>
</trkpt>
<trkpt lat="33.8107043" lon="-118.393787">
  <ele>-25.165</ele>
  <time>2026-09-02T22:11:32Z</time>
  <course>19.93</course>
  <speed>0.8354639429682169</speed>
  <fix>3d</fix>
</trkpt>
<trkpt lat="33.8107043" lon="-118.393787">
  <ele>-25.165</ele>
  <time>2026-09-02T22:11:32Z</time>
  <course>19.93</course>
  <speed>0.8354639429682169</speed>
  <fix>3d</fix>
</trkpt>
<trkpt lat="33.8107043" lon="-118.3937869">
  <ele>-25.165</ele>
  <time>2026-09-02T22:11:32Z</time>
  <course>19.93</course>
  <speed>0.8354639429682169</speed>
  <fix>3d</fix>
</trkpt>
<trkpt lat="33.8107044" lon="-118.3937869">
  <ele>-25.166</ele>
  <time>2026-09-02T22:11:32Z</time>
  <course>19.93</course>
  <speed>0.8354639429682169</speed>
  <fix>3d</fix>
</trkpt>
<trkpt lat="33.8107044" lon="-118.3937868">
  <ele>-25.166</ele>
  <time>2026-09-02T22:11:32Z</time>
  <course>19.93</course>
  <speed>0.8429116205154606</speed>
  <fix>3d</fix>
</trkpt>
<trkpt lat="33.8107045" lon="-118.3937868">
  <ele>-25.166</ele>
  <time>2026-09-02T22:11:32Z</time>
  <course>19.93</course>
  <speed>0.8495881355103778</speed>
  <fix>3d</fix>
</trkpt>
<trkpt lat="33.8107045" lon="-118.3937867">
  <ele>-25.166</ele>
  <time>2026-09-02T22:11:32Z</time>
  <course>19.93</course>
  <speed>0.8495881355103778</speed>
  <fix>3d</fix>
</trkpt>
<trkpt lat="33.8107045" lon="-118.3937867">
  <ele>-25.167</ele>
  <time>2026-09-02T22:11:32Z</time>
  <course>19.93</course>
  <speed>0.8495881355103778</speed>
  <fix>3d</fix>
</trkpt>
<trkpt lat="33.8107046" lon="-118.3937866">
  <ele>-25.167</ele>
  <time>2026-09-02T22:11:32Z</time>
  <course>19.93</course>
  <speed>0.8495881355103778</speed>
  <fix>3d</fix>
</trkpt>
<trkpt lat="33.8107046" lon="-118.3937866">
  <ele>-25.167</ele>
  <time>2026-09-02T22:11:32Z</time>
  <course>19.93</course>
  <speed>0.8495881355103778</speed>
  <fix>3d</fix>
</trkpt>
<trkpt lat="33.8107046" lon="-118.3937866">
  <ele>-25.167</ele>
  <time>2026-09-02T22:11:32Z</time>
  <course>19.93</course>
  <speed>0.8495881355103778</speed>
  <fix>3d</fix>
</trkpt>
<trkpt lat="33.8107041" lon="-118.3937877">
  <ele>-24.54</ele>
  <time>2026-09-02T22:11:32Z</time>
  <course>45.63</course>
  <speed>0.8</speed>
  <fix>3d</fix>
</trkpt>
<trkpt lat="33.8107047" lon="-118.3937865">
  <ele>-25.168</ele>
  <time>2026-09-02T22:11:32Z</time>
  <course>19.93</course>
  <speed>0.8570297544426332</speed>
  <fix>3d</fix>
</trkpt>
<trkpt lat="33.8107047" lon="-118.3937864">
  <ele>-25.168</ele>
  <time>2026-09-02T22:11:32Z</time>
  <course>19.93</course>
  <speed>0.8570297544426332</speed>
  <fix>3d</fix>
</trkpt>
<trkpt lat="33.8107048" lon="-118.3937864">
  <ele>-25.168</ele>
  <time>2026-09-02T22:11:32Z</time>
  <course>19.93</course>
  <speed>0.8637129152675673</speed>
  <fix>3d</fix>
</trkpt>
<trkpt lat="33.8107048" lon="-118.3937863">
  <ele>-25.168</ele>
  <time>2026-09-02T22:11:32Z</time>
  <course>19.93</course>
  <speed>0.8637129152675673</speed>
  <fix>3d</fix>
</trkpt>
<trkpt lat="33.8107049" lon="-118.3937863">
  <ele>-25.169</ele>
  <time>2026-09-02T22:11:32Z</time>
  <course>19.93</course>
  <speed>0.8637129152675673</speed>
  <fix>3d</fix>
</trkpt>
<trkpt lat="33.8107049" lon="-118.3937862">
  <ele>-25.169</ele>
  <time>2026-09-02T22:11:32Z</time>
  <course>19.93</course>
  <speed>0.8637129152675673</speed>
  <fix>3d</fix>
</trkpt>
<trkpt lat="33.8107049" lon="-118.3937862">
  <ele>-25.169</ele>
  <time>2026-09-02T22:11:32Z</time>
  <course>19.93</course>
  <speed>0.8637129152675673</speed>
  <fix>3d</fix>
</trkpt>
<trkpt lat="33.810705" lon="-118.3937861">
  <ele>-25.169</ele>
  <time>2026-09-02T22:11:32Z</time>
  <course>19.93</course>
  <speed>0.8637129152675673</speed>
  <fix>3d</fix>
</trkpt>
<trkpt lat="33.810705" lon="-118.3937861">
  <ele>-25.169</ele>
  <time>2026-09-02T22:11:32Z</time>
  <course>19.93</course>
  <speed>0.8711486669908873</speed>
  <fix>3d</fix>
</trkpt>
<trkpt lat="33.8107051" lon="-118.393786">
  <ele>-25.17</ele>
  <time>2026-09-02T22:11:32Z</time>
  <course>19.93</course>
  <speed>0.8711486669908873</speed>
  <fix>3d</fix>
</trkpt>
<trkpt lat="33.8107051" lon="-118.393786">
  <ele>-25.17</ele>
  <time>2026-09-02T22:11:32Z</time>
  <course>19.93</course>
  <speed>0.8711486669908873</speed>
  <fix>3d</fix>
</trkpt>
<trkpt lat="33.8107051" lon="-118.3937859">
  <ele>-25.17</ele>
  <time>2026-09-02T22:11:32Z</time>
  <course>19.93</course>
  <speed>0.8778382538941898</speed>
  <fix>3d</fix>
</trkpt>
<trkpt lat="33.8107052" lon="-118.3937859">
  <ele>-25.17</ele>
  <time>2026-09-02T22:11:32Z</time>
  <course>19.93</course>
  <speed>0.8778382538941898</speed>
  <fix>3d</fix>
</trkpt>
<trkpt lat="33.8107041" lon="-118.3937877">
  <ele>-24.54</ele>
  <time>2026-09-02T22:11:32Z</time>
  <course>45.63</course>
  <speed>0.8</speed>
  <fix>3d</fix>
</trkpt>
<trkpt lat="33.8107052" lon="-118.3937859">
  <ele>-25.17</ele>
  <time>2026-09-02T22:11:32Z</time>
  <course>19.93</course>
  <speed>0.8778382538941898</speed>
  <fix>3d</fix>
</trkpt>
<trkpt lat="33.8107052" lon="-118.3937858">
  <ele>-25.17</ele>
  <time>2026-09-02T22:11:32Z</time>
  <course>19.93</course>
  <speed>0.8778382538941898</speed>
  <fix>3d</fix>
</trkpt>
<trkpt lat="33.8107053" lon="-118.3937858">
  <ele>-25.171</ele>
  <time>2026-09-02T22:11:32Z</time>
  <course>19.93</course>
  <speed>0.8778382538941898</speed>
  <fix>3d</fix>
</trkpt>
<trkpt lat="33.8107053" lon="-118.3937857">
  <ele>-25.171</ele>
  <time>2026-09-02T22:11:32Z</time>
  <course>19.93</course>
  <speed>0.8778382538941898</speed>
  <fix>3d</fix>
</trkpt>
<trkpt lat="33.8107054" lon="-118.3937857">
  <ele>-25.171</ele>
  <time>2026-09-02T22:11:32Z</time>
  <course>19.93</course>
  <speed>0.8778382538941898</speed>
  <fix>3d</fix>
</trkpt>
<trkpt lat="33.8107054" lon="-118.3937856">
  <ele>-25.171</ele>
  <time>2026-09-02T22:11:32Z</time>
  <course>19.93</course>
  <speed>0.8778382538941898</speed>
  <fix>3d</fix>
</trkpt>
<trkpt lat="33.8107054" lon="-118.3937856">
  <ele>-25.171</ele>
  <time>2026-09-02T22:11:32Z</time>
  <course>19.93</course>
  <speed>0.8852683209061533</speed>
  <fix>3d</fix>
</trkpt>
<trkpt lat="33.8107055" lon="-118.3937855">
  <ele>-25.172</ele>
  <time>2026-09-02T22:11:32Z</time>
  <course>19.93</course>
  <speed>0.8852683209061533</speed>
  <fix>3d</fix>
</trkpt>
<trkpt lat="33.8107055" lon="-118.3937855">
  <ele>-25.172</ele>
  <time>2026-09-02T22:11:32Z</time>
  <course>19.93</course>
  <speed>0.8852683209061533</speed>
  <fix>3d</fix>
</trkpt>
<trkpt lat="33.8107056" lon="-118.3937854">
  <ele>-25.172</ele>
  <time>2026-09-02T22:11:32Z</time>
  <course>19.93</course>
  <speed>0.8919641248391104</speed>
  <fix>3d</fix>
</trkpt>
<trkpt lat="33.8107056" lon="-118.3937854">
  <ele>-25.172</ele>
  <time>2026-09-02T22:11:32Z</time>
  <course>19.93</course>
  <speed>0.8919641248391104</speed>
  <fix>3d</fix>
</trkpt>
<trkpt lat="33.8107057" lon="-118.3937853">
  <ele>-25.173</ele>
  <time>2026-09-02T22:11:32Z</time>
  <course>19.93</course>
  <speed>0.8919641248391104</speed>
  <fix>3d</fix>
</trkpt>
<trkpt lat="33.8107057" lon="-118.3937852">
  <ele>-25.173</ele>
  <time>2026-09-02T22:11:32Z</time>
  <course>19.93</course>
  <speed>0.8919641248391104</speed>
  <fix>3d</fix>
</trkpt>
<trkpt lat="33.8107057" lon="-118.3937852">
  <ele>-25.173</ele>
  <time>2026-09-02T22:11:32Z</time>
  <course>19.93</course>
  <speed>0.8919641248391104</speed>
  <fix>3d</fix>
</trkpt>
<trkpt lat="33.8107052" lon="-118.3937864">
  <ele>-24.55</ele>
  <time>2026-09-02T22:11:32Z</time>
  <course>45.59</course>
  <speed>0.86</speed>
  <fix>3d</fix>
</trkpt>
<trkpt lat="33.8107057" lon="-118.3937852">
  <ele>-25.173</ele>
  <time>2026-09-02T22:11:32Z</time>
  <course>19.93</course>
  <speed>0.8919641248391104</speed>
  <fix>3d</fix>
</trkpt>
<trkpt lat="33.8107058" lon="-118.3937851">
  <ele>-25.173</ele>
  <time>2026-09-02T22:11:32Z</time>
  <course>19.93</course>
  <speed>0.8919641248391104</speed>
  <fix>3d</fix>
</trkpt>
<trkpt lat="33.8107058" lon="-118.3937851">
  <ele>-25.174</ele>
  <time>2026-09-02T22:11:32Z</time>
  <course>19.93</course>
  <speed>0.8919641248391104</speed>
  <fix>3d</fix>
</trkpt>
<trkpt lat="33.8107059" lon="-118.393785">
  <ele>-25.174</ele>
  <time>2026-09-02T22:11:32Z</time>
  <course>19.93</course>
  <speed>0.8919641248391104</speed>
  <fix>3d</fix>
</trkpt>
<trkpt lat="33.8107059" lon="-118.393785">
  <ele>-25.174</ele>
  <time>2026-09-02T22:11:32Z</time>
  <course>19.93</course>
  <speed>0.8919641248391104</speed>
  <fix>3d</fix>
</trkpt>
<trkpt lat="33.8107059" lon="-118.3937849">
  <ele>-25.175</ele>
  <time>2026-09-02T22:11:32Z</time>
  <course>19.92</course>
  <speed>0.8919641248391104</speed>
  <fix>3d</fix>
</trkpt>
<trkpt lat="33.810706" lon="-118.3937849">
  <ele>-25.175</ele>
  <time>2026-09-02T22:11:32Z</time>
  <course>19.92</course>
  <speed>0.8919641248391104</speed>
  <fix>3d</fix>
</trkpt>
<trkpt lat="33.810706" lon="-118.3937849">
  <ele>-25.175</ele>
  <time>2026-09-02T22:11:32Z</time>
  <course>19.92</course>
  <speed>0.8919641248391104</speed>
  <fix>3d</fix>
</trkpt>
<trkpt lat="33.8107061" lon="-118.3937848">
  <ele>-25.175</ele>
  <time>2026-09-02T22:11:32Z</time>
  <course>19.92</course>
  <speed>0.8919641248391104</speed>
  <fix>3d</fix>
</trkpt>
<trkpt lat="33.8107061" lon="-118.3937848">
  <ele>-25.176</ele>
  <time>2026-09-02T22:11:32Z</time>
  <course>19.92</course>
  <speed>0.8919641248391104</speed>
  <fix>3d</fix>
</trkpt>
<trkpt lat="33.8107061" lon="-118.3937847">
  <ele>-25.176</ele>
  <time>2026-09-02T22:11:32Z</time>
  <course>19.92</course>
  <speed>0.8919641248391104</speed>
  <fix>3d</fix>
</trkpt>
<trkpt lat="33.8107062" lon="-118.3937846">
  <ele>-25.176</ele>
  <time>2026-09-02T22:11:32Z</time>
  <course>19.92</course>
  <speed>0.899388681271896</speed>
  <fix>3d</fix>
</trkpt>
<trkpt lat="33.8107062" lon="-118.3937846">
  <ele>-25.176</ele>
  <time>2026-09-02T22:11:32Z</time>
  <course>19.92</course>
  <speed>0.899388681271896</speed>
  <fix>3d</fix>
</trkpt>
<trkpt lat="33.8107063" lon="-118.3937845">
  <ele>-25.177</ele>
  <time>2026-09-02T22:11:32Z</time>
  <course>19.92</course>
  <speed>0.899388681271896</speed>
  <fix>3d</fix>
</trkpt>
<trkpt lat="33.8107063" lon="-118.3937845">
  <ele>-25.177</ele>
  <time>2026-09-02T22:11:32Z</time>
  <course>19.92</course>
  <speed>0.899388681271896</speed>
  <fix>3d</fix>
</trkpt>
<trkpt lat="33.8107052" lon="-118.3937864">
  <ele>-24.55</ele>
  <time>2026-09-02T22:11:32Z</time>
  <course>45.59</course>
  <speed>0.86</speed>
  <fix>3d</fix>
</trkpt>
<trkpt lat="33.8107063" lon="-118.3937845">
  <ele>-25.177</ele>
  <time>2026-09-02T22:11:32Z</time>
  <course>19.92</course>
  <speed>0.899388681271896</speed>
  <fix>3d</fix>
</trkpt>
<trkpt lat="33.8107065" lon="-118.3937843">
  <ele>-25.178</ele>
  <time>2026-09-02T22:11:32Z</time>
  <course>19.92</course>
  <speed>0.9060905032059435</speed>
  <fix>3d</fix>
</trkpt>
<trkpt lat="33.8107065" lon="-118.3937842">
  <ele>-25.178</ele>
  <time>2026-09-02T22:11:32Z</time>
  <course>19.92</course>
  <speed>0.9060905032059435</speed>
  <fix>3d</fix>
</trkpt>
<trkpt lat="33.8107066" lon="-118.3937842">
  <ele>-25.179</ele>
  <time>2026-09-02T22:11:32Z</time>
  <course>19.92</course>
  <speed>0.9060905032059435</speed>
  <fix>3d</fix>
</trkpt>
<trkpt lat="33.8107066" lon="-118.3937841">
  <ele>-25.179</ele>
  <time>2026-09-02T22:11:32Z</time>
  <course>19.92</course>
  <speed>0.9060905032059435</speed>
  <fix>3d</fix>
</trkpt>
<trkpt lat="33.8107067" lon="-118.3937841">
  <ele>-25.179</ele>
  <time>2026-09-02T22:11:32Z</time>
  <course>19.92</course>
  <speed>0.9060905032059435</speed>
  <fix>3d</fix>
</trkpt>
<trkpt lat="33.8107067" lon="-118.393784">
  <ele>-25.179</ele>
  <time>2026-09-02T22:11:32Z</time>
  <course>19.92</course>
  <speed>0.9060905032059435</speed>
  <fix>3d</fix>
</trkpt>
<trkpt lat="33.8107067" lon="-118.393784">
  <ele>-25.18</ele>
  <time>2026-09-02T22:11:32Z</time>
  <course>19.92</course>
  <speed>0.9060905032059435</speed>
  <fix>3d</fix>
</trkpt>
<trkpt lat="33.8107068" lon="-118.3937839">
  <ele>-25.18</ele>
  <time>2026-09-02T22:11:32Z</time>
  <course>19.92</course>
  <speed>0.9060905032059435</speed>
  <fix>3d</fix>
</trkpt>
<trkpt lat="33.8107068" lon="-118.3937839">
  <ele>-25.18</ele>
  <time>2026-09-02T22:11:32Z</time>
  <course>19.92</course>
  <speed>0.9060905032059435</speed>
  <fix>3d</fix>
</trkpt>
<trkpt lat="33.8107068" lon="-118.3937838">
  <ele>-25.18</ele>
  <time>2026-09-02T22:11:32Z</time>
  <course>19.92</course>
  <speed>0.9060905032059435</speed>
  <fix>3d</fix>
</trkpt>
<trkpt lat="33.8107063" lon="-118.393785">
  <ele>-24.56</ele>
  <time>2026-09-02T22:11:32Z</time>
  <course>45.48</course>
  <speed>0.9</speed>
  <fix>3d</fix>
</trkpt>
<trkpt lat="33.8107069" lon="-118.3937838">
  <ele>-25.181</ele>
  <time>2026-09-02T22:11:32Z</time>
  <course>19.92</course>
  <speed>0.9060905032059435</speed>
  <fix>3d</fix>
</trkpt>
<trkpt lat="33.8107069" lon="-118.3937837">
  <ele>-25.181</ele>
  <time>2026-09-02T22:11:32Z</time>
  <course>19.92</course>
  <speed>0.9060905032059435</speed>
  <fix>3d</fix>
</trkpt>
<trkpt lat="33.810707" lon="-118.3937837">
  <ele>-25.181</ele>
  <time>2026-09-02T22:11:32Z</time>
  <course>19.92</course>
  <speed>0.9060905032059435</speed>
  <fix>3d</fix>
</trkpt>
<trkpt lat="33.810707" lon="-118.3937836">
  <ele>-25.182</ele>
  <time>2026-09-02T22:11:32Z</time>
  <course>19.92</course>
  <speed>0.9060905032059435</speed>
  <fix>3d</fix>
</trkpt>
<trkpt lat="33.8107071" lon="-118.3937835">
  <ele>-25.182</ele>
  <time>2026-09-02T22:11:32Z</time>
  <course>19.92</course>
  <speed>0.9060905032059435</speed>
  <fix>3d</fix>
</trkpt>
<trkpt lat="33.8107071" lon="-118.3937835">
  <ele>-25.182</ele>
  <time>2026-09-02T22:11:32Z</time>
  <course>19.92</course>
  <speed>0.9060905032059435</speed>
  <fix>3d</fix>
</trkpt>
<trkpt lat="33.8107072" lon="-118.3937834">
  <ele>-25.182</ele>
  <time>2026-09-02T22:11:32Z</time>
  <course>19.92</course>
  <speed>0.9060905032059435</speed>
  <fix>3d</fix>
</trkpt>
<trkpt lat="33.8107072" lon="-118.3937834">
  <ele>-25.183</ele>
  <time>2026-09-02T22:11:32Z</time>
  <course>19.92</course>
  <speed>0.9060905032059435</speed>
  <fix>3d</fix>
</trkpt>
<trkpt lat="33.8107073" lon="-118.3937833">
  <ele>-25.183</ele>
  <time>2026-09-02T22:11:32Z</time>
  <course>19.92</course>
  <speed>0.9202173656261873</speed>
  <fix>3d</fix>
</trkpt>
<trkpt lat="33.8107073" lon="-118.3937833">
  <ele>-25.183</ele>
  <time>2026-09-02T22:11:32Z</time>
  <course>19.92</course>
  <speed>0.9202173656261873</speed>
  <fix>3d</fix>
</trkpt>
<trkpt lat="33.8107073" lon="-118.3937832">
  <ele>-25.183</ele>
  <time>2026-09-02T22:11:32Z</time>
  <course>19.92</course>
  <speed>0.9202173656261873</speed>
  <fix>3d</fix>
</trkpt>
<trkpt lat="33.8107074" lon="-118.3937832">
  <ele>-25.183</ele>
  <time>2026-09-02T22:11:32Z</time>
  <course>19.92</course>
  <speed>0.9202173656261873</speed>
  <fix>3d</fix>
</trkpt>
<trkpt lat="33.8107074" lon="-118.3937831">
  <ele>-25.184</ele>
  <time>2026-09-02T22:11:32Z</time>
  <course>19.92</course>
  <speed>0.9202173656261873</speed>
  <fix>3d</fix>
</trkpt>
<trkpt lat="33.8107063" lon="-118.393785">
  <ele>-24.56</ele>
  <time>2026-09-02T22:11:32Z</time>
  <course>45.48</course>
  <speed>0.9</speed>
  <fix>3d</fix>
</trkpt>
<trkpt lat="33.8107074" lon="-118.3937831">
  <ele>-25.184</ele>
  <time>2026-09-02T22:11:32Z</time>
  <course>19.92</course>
  <speed>0.9202173656261873</speed>
  <fix>3d</fix>
</trkpt>
<trkpt lat="33.8107075" lon="-118.393783">
  <ele>-25.184</ele>
  <time>2026-09-02T22:11:32Z</time>
  <course>19.92</course>
  <speed>0.9202173656261873</speed>
  <fix>3d</fix>
</trkpt>
<trkpt lat="33.8107075" lon="-118.393783">
  <ele>-25.184</ele>
  <time>2026-09-02T22:11:32Z</time>
  <course>19.92</course>
  <speed>0.9202173656261873</speed>
  <fix>3d</fix>
</trkpt>
<trkpt lat="33.8107076" lon="-118.3937829">
  <ele>-25.184</ele>
  <time>2026-09-02T22:11:32Z</time>
  <course>19.92</course>
  <speed>0.9202173656261873</speed>
  <fix>3d</fix>
</trkpt>
<trkpt lat="33.8107076" lon="-118.3937829">
  <ele>-25.184</ele>
  <time>2026-09-02T22:11:32Z</time>
  <course>19.92</course>
  <speed>0.9202173656261873</speed>
  <fix>3d</fix>
</trkpt>
<trkpt lat="33.8107077" lon="-118.3937828">
  <ele>-25.185</ele>
  <time>2026-09-02T22:11:32Z</time>
  <course>19.92</course>
  <speed>0.9202173656261873</speed>
  <fix>3d</fix>
</trkpt>
<trkpt lat="33.8107077" lon="-118.3937828">
  <ele>-25.185</ele>
  <time>2026-09-02T22:11:32Z</time>
  <course>19.92</course>
  <speed>0.9202173656261873</speed>
  <fix>3d</fix>
</trkpt>
<trkpt lat="33.8107077" lon="-118.3937827">
  <ele>-25.185</ele>
  <time>2026-09-02T22:11:32Z</time>
  <course>19.92</course>
  <speed>0.9202173656261873</speed>
  <fix>3d</fix>
</trkpt>
<trkpt lat="33.8107078" lon="-118.3937827">
  <ele>-25.185</ele>
  <time>2026-09-02T22:11:32Z</time>
  <course>19.92</course>
  <speed>0.9202173656261873</speed>
  <fix>3d</fix>
</trkpt>
<trkpt lat="33.8107078" lon="-118.3937826">
  <ele>-25.185</ele>
  <time>2026-09-02T22:11:32Z</time>
  <course>19.92</course>
  <speed>0.9202173656261873</speed>
  <fix>3d</fix>
</trkpt>
<trkpt lat="33.8107079" lon="-118.3937826">
  <ele>-25.186</ele>
  <time>2026-09-02T22:11:32Z</time>
  <course>19.92</course>
  <speed>0.9202173656261873</speed>
  <fix>3d</fix>
</trkpt>
<trkpt lat="33.8107079" lon="-118.3937825">
  <ele>-25.186</ele>
  <time>2026-09-02T22:11:32Z</time>
  <course>19.92</course>
  <speed>0.9202173656261873</speed>
  <fix>3d</fix>
</trkpt>
<trkpt lat="33.810708" lon="-118.3937825">
  <ele>-25.186</ele>
  <time>2026-09-02T22:11:32Z</time>
  <course>19.92</course>
  <speed>0.9269843580125827</speed>
  <fix>3d</fix>
</trkpt>
<trkpt lat="33.810708" lon="-118.3937824">
  <ele>-25.186</ele>
  <time>2026-09-02T22:11:32Z</time>
  <course>19.92</course>
  <speed>0.9269843580125827</speed>
  <fix>3d</fix>
</trkpt>
<trkpt lat="33.8107075" lon="-118.3937836">
  <ele>-24.57</ele>
  <time>2026-09-02T22:11:32Z</time>
  <course>45.37</course>
  <speed>0.92</speed>
  <fix>3d</fix>
</trkpt>
<trkpt lat="33.810708" lon="-118.3937824">
  <ele>-25.186</ele>
  <time>2026-09-02T22:11:32Z</time>
  <course>19.92</course>
  <speed>0.9269843580125827</speed>
  <fix>3d</fix>
</trkpt>
<trkpt lat="33.8107081" lon="-118.3937823">
  <ele>-25.186</ele>
  <time>2026-09-02T22:11:32Z</time>
  <course>19.92</course>
  <speed>0.9269843580125827</speed>
  <fix>3d</fix>
</trkpt>
<trkpt lat="33.8107082" lon="-118.3937822">
  <ele>-25.187</ele>
  <time>2026-09-02T22:11:32Z</time>
  <course>19.92</course>
  <speed>0.9343446901438461</speed>
  <fix>3d</fix>
</trkpt>
<trkpt lat="33.8107082" lon="-118.3937822">
  <ele>-25.187</ele>
  <time>2026-09-02T22:11:32Z</time>
  <course>19.92</course>
  <speed>0.9343446901438461</speed>
  <fix>3d</fix>
</trkpt>
<trkpt lat="33.8107082" lon="-118.3937821">
  <ele>-25.187</ele>
  <time>2026-09-02T22:11:32Z</time>
  <course>19.92</course>
  <speed>0.9343446901438461</speed>
  <fix>3d</fix>
</trkpt>
<trkpt lat="33.8107083" lon="-118.3937821">
  <ele>-25.187</ele>
  <time>2026-09-02T22:11:32Z</time>
  <course>19.91</course>
  <speed>0.9343446901438461</speed>
  <fix>3d</fix>
</trkpt>
<trkpt lat="33.8107083" lon="-118.393782">
  <ele>-25.187</ele>
  <time>2026-09-02T22:11:32Z</time>
  <course>19.91</course>
  <speed>0.9343446901438461</speed>
  <fix>3d</fix>
</trkpt>
<trkpt lat="33.8107084" lon="-118.393782">
  <ele>-25.188</ele>
  <time>2026-09-02T22:11:32Z</time>
  <course>19.91</course>
  <speed>0.9343446901438461</speed>
  <fix>3d</fix>
</trkpt>
<trkpt lat="33.8107084" lon="-118.3937819">
  <ele>-25.188</ele>
  <time>2026-09-02T22:11:32Z</time>
  <course>19.91</course>
  <speed>0.9343446901438461</speed>
  <fix>3d</fix>
</trkpt>
<trkpt lat="33.8107085" lon="-118.3937819">
  <ele>-25.188</ele>
  <time>2026-09-02T22:11:32Z</time>
  <course>19.91</course>
  <speed>0.9343446901438461</speed>
  <fix>3d</fix>
</trkpt>
<trkpt lat="33.8107085" lon="-118.3937818">
  <ele>-25.188</ele>
  <time>2026-09-02T22:11:32Z</time>
  <course>19.91</course>
  <speed>0.9343446901438461</speed>
  <fix>3d</fix>
</trkpt>
<trkpt lat="33.8107086" lon="-118.3937818">
  <ele>-25.188</ele>
  <time>2026-09-02T22:11:32Z</time>
  <course>19.91</course>
  <speed>0.9343446901438461</speed>
  <fix>3d</fix>
</trkpt>
<trkpt lat="33.8107086" lon="-118.3937817">
  <ele>-25.189</ele>
  <time>2026-09-02T22:11:32Z</time>
  <course>19.91</course>
  <speed>0.9343446901438461</speed>
  <fix>3d</fix>
</trkpt>
<trkpt lat="33.8107086" lon="-118.3937817">
  <ele>-25.189</ele>
  <time>2026-09-02T22:11:32Z</time>
  <course>19.91</course>
  <speed>0.9343446901438461</speed>
  <fix>3d</fix>
</trkpt>
<trkpt lat="33.8107075" lon="-118.3937836">
  <ele>-24.57</ele>
  <time>2026-09-02T22:11:32Z</time>
  <course>45.37</course>
  <speed>0.92</speed>
  <fix>3d</fix>
</trkpt>
<trkpt lat="33.8107087" lon="-118.3937816">
  <ele>-25.189</ele>
  <time>2026-09-02T22:11:32Z</time>
  <course>19.92</course>
  <speed>0.9343446901438461</speed>
  <fix>3d</fix>
</trkpt>
<trkpt lat="33.8107088" lon="-118.3937815">
  <ele>-25.189</ele>
  <time>2026-09-02T22:11:32Z</time>
  <course>19.92</course>
  <speed>0.9343446901438461</speed>
  <fix>3d</fix>
</trkpt>
<trkpt lat="33.8107088" lon="-118.3937814">
  <ele>-25.19</ele>
  <time>2026-09-02T22:11:32Z</time>
  <course>19.92</course>
  <speed>0.9343446901438461</speed>
  <fix>3d</fix>
</trkpt>
<trkpt lat="33.8107089" lon="-118.3937813">
  <ele>-25.19</ele>
  <time>2026-09-02T22:11:32Z</time>
  <course>19.92</course>
  <speed>0.9343446901438461</speed>
  <fix>3d</fix>
</trkpt>
<trkpt lat="33.8107089" lon="-118.3937813">
  <ele>-25.19</ele>
  <time>2026-09-02T22:11:32Z</time>
  <course>19.92</course>
  <speed>0.9411163583744573</speed>
  <fix>3d</fix>
</trkpt>
<trkpt lat="33.810709" lon="-118.3937812">
  <ele>-25.191</ele>
  <time>2026-09-02T22:11:32Z</time>
  <course>19.92</course>
  <speed>0.9411163583744573</speed>
  <fix>3d</fix>
</trkpt>
<trkpt lat="33.810709" lon="-118.3937812">
  <ele>-25.191</ele>
  <time>2026-09-02T22:11:32Z</time>
  <course>19.92</course>
  <speed>0.9411163583744573</speed>
  <fix>3d</fix>
</trkpt>
<trkpt lat="33.8107091" lon="-118.3937811">
  <ele>-25.191</ele>
  <time>2026-09-02T22:11:32Z</time>
  <course>19.92</course>
  <speed>0.9411163583744573</speed>
  <fix>3d</fix>
</trkpt>
<trkpt lat="33.8107091" lon="-118.3937811">
  <ele>-25.192</ele>
  <time>2026-09-02T22:11:32Z</time>
  <course>19.92</course>
  <speed>0.9411163583744573</speed>
  <fix>3d</fix>
</trkpt>
<trkpt lat="33.8107092" lon="-118.393781">
  <ele>-25.192</ele>
  <time>2026-09-02T22:11:32Z</time>
  <course>19.92</course>
  <speed>0.94847245611035</speed>
  <fix>3d</fix>
</trkpt>
<trkpt lat="33.8107092" lon="-118.393781">
  <ele>-25.192</ele>
  <time>2026-09-02T22:11:32Z</time>
  <course>19.92</course>
  <speed>0.94847245611035</speed>
  <fix>3d</fix>
</trkpt>
<trkpt lat="33.8107087" lon="-118.3937822">
  <ele>-24.57</ele>
  <time>2026-09-02T22:11:32Z</time>
  <course>45.28</course>
  <speed>0.94</speed>
  <fix>3d</fix>
</trkpt>
<trkpt lat="33.8107092" lon="-118.393781">
  <ele>-25.192</ele>
  <time>2026-09-02T22:11:32Z</time>
  <course>19.92</course>
  <speed>0.94847245611035</speed>
  <fix>3d</fix>
</trkpt>
<trkpt lat="33.8107093" lon="-118.3937809">
  <ele>-25.193</ele>
  <time>2026-09-02T22:11:32Z</time>
  <course>19.92</course>
  <speed>0.94847245611035</speed>
  <fix>3d</fix>
</trkpt>
<trkpt lat="33.8107093" lon="-118.3937808">
  <ele>-25.193</ele>
  <time>2026-09-02T22:11:32Z</time>
  <course>19.92</course>
  <speed>0.94847245611035</speed>
  <fix>3d</fix>
</trkpt>
<trkpt lat="33.8107094" lon="-118.3937807">
  <ele>-25.193</ele>
  <time>2026-09-02T22:11:32Z</time>
  <course>19.92</course>
  <speed>0.94847245611035</speed>
  <fix>3d</fix>
</trkpt>
<trkpt lat="33.8107094" lon="-118.3937807">
  <ele>-25.193</ele>
  <time>2026-09-02T22:11:32Z</time>
  <course>19.92</course>
  <speed>0.94847245611035</speed>
  <fix>3d</fix>
</trkpt>
<trkpt lat="33.8107095" lon="-118.3937806">
  <ele>-25.194</ele>
  <time>2026-09-02T22:11:32Z</time>
  <course>19.91</course>
  <speed>0.94847245611035</speed>
  <fix>3d</fix>
</trkpt>
<trkpt lat="33.8107095" lon="-118.3937806">
  <ele>-25.194</ele>
  <time>2026-09-02T22:11:32Z</time>
  <course>19.91</course>
  <speed>0.94847245611035</speed>
  <fix>3d</fix>
</trkpt>
<trkpt lat="33.8107096" lon="-118.3937805">
  <ele>-25.194</ele>
  <time>2026-09-02T22:11:32Z</time>
  <course>19.91</course>
  <speed>0.94847245611035</speed>
  <fix>3d</fix>
</trkpt>
<trkpt lat="33.8107096" lon="-118.3937805">
  <ele>-25.195</ele>
  <time>2026-09-02T22:11:32Z</time>
  <course>19.91</course>
  <speed>0.94847245611035</speed>
  <fix>3d</fix>
</trkpt>
<trkpt lat="33.8107097" lon="-118.3937804">
  <ele>-25.195</ele>
  <time>2026-09-02T22:11:32Z</time>
  <course>19.91</course>
  <speed>0.94847245611035</speed>
  <fix>3d</fix>
</trkpt>
<trkpt lat="33.8107097" lon="-118.3937803">
  <ele>-25.195</ele>
  <time>2026-09-02T22:11:32Z</time>
  <course>19.91</course>
  <speed>0.94847245611035</speed>
  <fix>3d</fix>
</trkpt>
<trkpt lat="33.8107098" lon="-118.3937803">
  <ele>-25.196</ele>
  <time>2026-09-02T22:11:32Z</time>
  <course>19.91</course>
  <speed>0.94847245611035</speed>
  <fix>3d</fix>
</trkpt>
<trkpt lat="33.8107098" lon="-118.3937802">
  <ele>-25.196</ele>
  <time>2026-09-02T22:11:32Z</time>
  <course>19.91</course>
  <speed>0.94847245611035</speed>
  <fix>3d</fix>
</trkpt>
<trkpt lat="33.8107098" lon="-118.3937802">
  <ele>-25.196</ele>
  <time>2026-09-02T22:11:32Z</time>
  <course>19.91</course>
  <speed>0.94847245611035</speed>
  <fix>3d</fix>
</trkpt>
<trkpt lat="33.8107087" lon="-118.3937822">
  <ele>-24.57</ele>
  <time>2026-09-02T22:11:32Z</time>
  <course>45.28</course>
  <speed>0.94</speed>
  <fix>3d</fix>
</trkpt>
<trkpt lat="33.8107099" lon="-118.3937801">
  <ele>-25.197</ele>
  <time>2026-09-02T22:11:32Z</time>
  <course>19.91</course>
  <speed>0.94847245611035</speed>
  <fix>3d</fix>
</trkpt>
<trkpt lat="33.8107099" lon="-118.3937801">
  <ele>-25.197</ele>
  <time>2026-09-02T22:11:32Z</time>
  <course>19.91</course>
  <speed>0.94847245611035</speed>
  <fix>3d</fix>
</trkpt>
<trkpt lat="33.81071" lon="-118.39378">
  <ele>-25.197</ele>
  <time>2026-09-02T22:11:32Z</time>
  <course>19.91</course>
  <speed>0.94847245611035</speed>
  <fix>3d</fix>
</trkpt>
<trkpt lat="33.81071" lon="-118.39378">
  <ele>-25.197</ele>
  <time>2026-09-02T22:11:32Z</time>
  <course>19.91</course>
  <speed>0.94847245611035</speed>
  <fix>3d</fix>
</trkpt>
<trkpt lat="33.8107101" lon="-118.3937799">
  <ele>-25.198</ele>
  <time>2026-09-02T22:11:32Z</time>
  <course>19.91</course>
  <speed>0.94847245611035</speed>
  <fix>3d</fix>
</trkpt>
<trkpt lat="33.8107101" lon="-118.3937799">
  <ele>-25.198</ele>
  <time>2026-09-02T22:11:32Z</time>
  <course>19.91</course>
  <speed>0.94847245611035</speed>
  <fix>3d</fix>
</trkpt>
<trkpt lat="33.8107101" lon="-118.3937798">
  <ele>-25.198</ele>
  <time>2026-09-02T22:11:32Z</time>
  <course>19.91</course>
  <speed>0.95524865872714</speed>
  <fix>3d</fix>
</trkpt>
<trkpt lat="33.8107102" lon="-118.3937798">
  <ele>-25.198</ele>
  <time>2026-09-02T22:11:32Z</time>
  <course>19.91</course>
  <speed>0.95524865872714</speed>
  <fix>3d</fix>
</trkpt>
<trkpt lat="33.8107102" lon="-118.3937797">
  <ele>-25.198</ele>
  <time>2026-09-02T22:11:32Z</time>
  <course>19.91</course>
  <speed>0.95524865872714</speed>
  <fix>3d</fix>
</trkpt>
<trkpt lat="33.8107103" lon="-118.3937796">
  <ele>-25.199</ele>
  <time>2026-09-02T22:11:32Z</time>
  <course>19.91</course>
  <speed>0.95524865872714</speed>
  <fix>3d</fix>
</trkpt>
<trkpt lat="33.8107103" lon="-118.3937796">
  <ele>-25.199</ele>
  <time>2026-09-02T22:11:32Z</time>
  <course>19.91</course>
  <speed>0.95524865872714</speed>
  <fix>3d</fix>
</trkpt>
<trkpt lat="33.8107104" lon="-118.3937795">
  <ele>-25.199</ele>
  <time>2026-09-02T22:11:32Z</time>
  <course>19.91</course>
  <speed>0.95524865872714</speed>
  <fix>3d</fix>
</trkpt>
<trkpt lat="33.8107104" lon="-118.3937795">
  <ele>-25.199</ele>
  <time>2026-09-02T22:11:32Z</time>
  <course>19.91</course>
  <speed>0.95524865872714</speed>
  <fix>3d</fix>
</trkpt>
<trkpt lat="33.8107099" lon="-118.3937807">
  <ele>-24.58</ele>
  <time>2026-09-02T22:11:32Z</time>
  <course>45.25</course>
  <speed>0.96</speed>
  <fix>3d</fix>
</trkpt>
<trkpt lat="33.8107104" lon="-118.3937795">
  <ele>-25.199</ele>
  <time>2026-09-02T22:11:32Z</time>
  <course>19.91</course>
  <speed>0.95524865872714</speed>
  <fix>3d</fix>
</trkpt>
<trkpt lat="33.8107105" lon="-118.3937794">
  <ele>-25.2</ele>
  <time>2026-09-02T22:11:32Z</time>
  <course>19.91</course>
  <speed>0.95524865872714</speed>
  <fix>3d</fix>
</trkpt>
<trkpt lat="33.8107105" lon="-118.3937793">
  <ele>-25.2</ele>
  <time>2026-09-02T22:11:32Z</time>
  <course>19.91</course>
  <speed>0.9626006440887103</speed>
  <fix>3d</fix>
</trkpt>
<trkpt lat="33.8107106" lon="-118.3937793">
  <ele>-25.2</ele>
  <time>2026-09-02T22:11:32Z</time>
  <course>19.91</course>
  <speed>0.9626006440887103</speed>
  <fix>3d</fix>
</trkpt>
<trkpt lat="33.8107106" lon="-118.3937792">
  <ele>-25.2</ele>
  <time>2026-09-02T22:11:32Z</time>
  <course>19.91</course>
  <speed>0.9626006440887103</speed>
  <fix>3d</fix>
</trkpt>
<trkpt lat="33.8107107" lon="-118.3937792">
  <ele>-25.201</ele>
  <time>2026-09-02T22:11:32Z</time>
  <course>19.91</course>
  <speed>0.9626006440887103</speed>
  <fix>3d</fix>
</trkpt>
<trkpt lat="33.8107107" lon="-118.3937791">
  <ele>-25.201</ele>
  <time>2026-09-02T22:11:32Z</time>
  <course>19.91</course>
  <speed>0.9626006440887103</speed>
  <fix>3d</fix>
</trkpt>
<trkpt lat="33.8107108" lon="-118.3937791">
  <ele>-25.201</ele>
  <time>2026-09-02T22:11:32Z</time>
  <course>19.91</course>
  <speed>0.9626006440887103</speed>
  <fix>3d</fix>
</trkpt>
<trkpt lat="33.8107108" lon="-118.393779">
  <ele>-25.201</ele>
  <time>2026-09-02T22:11:32Z</time>
  <course>19.91</course>
  <speed>0.9626006440887103</speed>
  <fix>3d</fix>
</trkpt>
<trkpt lat="33.8107109" lon="-118.393779">
  <ele>-25.201</ele>
  <time>2026-09-02T22:11:32Z</time>
  <course>19.91</course>
  <speed>0.9626006440887103</speed>
  <fix>3d</fix>
</trkpt>
<trkpt lat="33.8107109" lon="-118.3937789">
  <ele>-25.202</ele>
  <time>2026-09-02T22:11:32Z</time>
  <course>19.91</course>
  <speed>0.9626006440887103</speed>
  <fix>3d</fix>
</trkpt>
<trkpt lat="33.8107109" lon="-118.3937788">
  <ele>-25.202</ele>
  <time>2026-09-02T22:11:32Z</time>
  <course>19.91</course>
  <speed>0.9626006440887103</speed>
  <fix>3d</fix>
</trkpt>
<trkpt lat="33.810711" lon="-118.3937788">
  <ele>-25.202</ele>
  <time>2026-09-02T22:11:32Z</time>
  <course>19.91</course>
  <speed>0.9626006440887103</speed>
  <fix>3d</fix>
</trkpt>
<trkpt lat="33.810711" lon="-118.3937788">
  <ele>-25.202</ele>
  <time>2026-09-02T22:11:32Z</time>
  <course>19.91</course>
  <speed>0.9626006440887103</speed>
  <fix>3d</fix>
</trkpt>
<trkpt lat="33.8107099" lon="-118.3937807">
  <ele>-24.58</ele>
  <time>2026-09-02T22:11:32Z</time>
  <course>45.25</course>
  <speed>0.96</speed>
  <fix>3d</fix>
</trkpt>
<trkpt lat="33.810711" lon="-118.3937787">
  <ele>-25.202</ele>
  <time>2026-09-02T22:11:32Z</time>
  <course>19.91</course>
  <speed>0.9626006440887103</speed>
  <fix>3d</fix>
</trkpt>
<trkpt lat="33.8107111" lon="-118.3937787">
  <ele>-25.202</ele>
  <time>2026-09-02T22:11:32Z</time>
  <course>19.91</course>
  <speed>0.9626006440887103</speed>
  <fix>3d</fix>
</trkpt>
<trkpt lat="33.8107111" lon="-118.3937786">
  <ele>-25.202</ele>
  <time>2026-09-02T22:11:32Z</time>
  <course>19.91</course>
  <speed>0.9626006440887103</speed>
  <fix>3d</fix>
</trkpt>
<trkpt lat="33.8107112" lon="-118.3937786">
  <ele>-25.203</ele>
  <time>2026-09-02T22:11:32Z</time>
  <course>19.91</course>
  <speed>0.9626006440887103</speed>
  <fix>3d</fix>
</trkpt>
<trkpt lat="33.8107112" lon="-118.3937785">
  <ele>-25.203</ele>
  <time>2026-09-02T22:11:32Z</time>
  <course>19.91</course>
  <speed>0.9626006440887103</speed>
  <fix>3d</fix>
</trkpt>
<trkpt lat="33.8107113" lon="-118.3937785">
  <ele>-25.203</ele>
  <time>2026-09-02T22:11:32Z</time>
  <course>19.91</course>
  <speed>0.9626006440887103</speed>
  <fix>3d</fix>
</trkpt>
<trkpt lat="33.8107113" lon="-118.3937784">
  <ele>-25.203</ele>
  <time>2026-09-02T22:11:32Z</time>
  <course>19.91</course>
  <speed>0.9626006440887103</speed>
  <fix>3d</fix>
</trkpt>
<trkpt lat="33.8107114" lon="-118.3937783">
  <ele>-25.203</ele>
  <time>2026-09-02T22:11:32Z</time>
  <course>19.91</course>
  <speed>0.9626006440887103</speed>
  <fix>3d</fix>
</trkpt>
<trkpt lat="33.8107114" lon="-118.3937783">
  <ele>-25.203</ele>
  <time>2026-09-02T22:11:32Z</time>
  <course>19.91</course>
  <speed>0.9626006440887103</speed>
  <fix>3d</fix>
</trkpt>
<trkpt lat="33.8107115" lon="-118.3937782">
  <ele>-25.204</ele>
  <time>2026-09-02T22:11:32Z</time>
  <course>19.91</course>
  <speed>0.9626006440887103</speed>
  <fix>3d</fix>
</trkpt>
<trkpt lat="33.8107115" lon="-118.3937782">
  <ele>-25.204</ele>
  <time>2026-09-02T22:11:32Z</time>
  <course>19.91</course>
  <speed>0.9626006440887103</speed>
  <fix>3d</fix>
</trkpt>
<trkpt lat="33.8107115" lon="-118.3937781">
  <ele>-25.204</ele>
  <time>2026-09-02T22:11:32Z</time>
  <course>19.91</course>
  <speed>0.9626006440887103</speed>
  <fix>3d</fix>
</trkpt>
<trkpt lat="33.8107116" lon="-118.3937781">
  <ele>-25.204</ele>
  <time>2026-09-02T22:11:32Z</time>
  <course>19.91</course>
  <speed>0.9626006440887103</speed>
  <fix>3d</fix>
</trkpt>
<trkpt lat="33.8107116" lon="-118.393778">
  <ele>-25.204</ele>
  <time>2026-09-02T22:11:32Z</time>
  <course>19.91</course>
  <speed>0.9626006440887103</speed>
  <fix>3d</fix>
</trkpt>
<trkpt lat="33.8107116" lon="-118.393778">
  <ele>-25.204</ele>
  <time>2026-09-02T22:11:32Z</time>
  <course>19.91</course>
  <speed>0.9626006440887103</speed>
  <fix>3d</fix>
</trkpt>
<trkpt lat="33.8107111" lon="-118.3937792">
  <ele>-24.58</ele>
  <time>2026-09-02T22:11:32Z</time>
  <course>45.24</course>
  <speed>0.97</speed>
  <fix>3d</fix>
</trkpt>
<trkpt lat="33.8107118" lon="-118.3937779">
  <ele>-25.205</ele>
  <time>2026-09-02T22:11:32Z</time>
  <course>19.91</course>
  <speed>0.9626006440887103</speed>
  <fix>3d</fix>
</trkpt>
<trkpt lat="33.8107118" lon="-118.3937778">
  <ele>-25.205</ele>
  <time>2026-09-02T22:11:32Z</time>
  <course>19.91</course>
  <speed>0.9626006440887103</speed>
  <fix>3d</fix>
</trkpt>
<trkpt lat="33.8107118" lon="-118.3937778">
  <ele>-25.205</ele>
  <time>2026-09-02T22:11:32Z</time>
  <course>19.91</course>
  <speed>0.9626006440887103</speed>
  <fix>3d</fix>
</trkpt>
<trkpt lat="33.8107119" lon="-118.3937777">
  <ele>-25.205</ele>
  <time>2026-09-02T22:11:32Z</time>
  <course>19.91</course>
  <speed>0.9626006440887103</speed>
  <fix>3d</fix>
</trkpt>
<trkpt lat="33.8107119" lon="-118.3937776">
  <ele>-25.205</ele>
  <time>2026-09-02T22:11:32Z</time>
  <course>19.91</course>
  <speed>0.9626006440887103</speed>
  <fix>3d</fix>
</trkpt>
<trkpt lat="33.810712" lon="-118.3937776">
  <ele>-25.205</ele>
  <time>2026-09-02T22:11:32Z</time>
  <course>19.91</course>
  <speed>0.9626006440887103</speed>
  <fix>3d</fix>
</trkpt>
<trkpt lat="33.810712" lon="-118.3937775">
  <ele>-25.206</ele>
  <time>2026-09-02T22:11:32Z</time>
  <course>19.91</course>
  <speed>0.9626006440887103</speed>
  <fix>3d</fix>
</trkpt>
<trkpt lat="33.8107121" lon="-118.3937775">
  <ele>-25.206</ele>
  <time>2026-09-02T22:11:32Z</time>
  <course>19.91</course>
  <speed>0.9626006440887103</speed>
  <fix>3d</fix>
</trkpt>
<trkpt lat="33.8107121" lon="-118.3937774">
  <ele>-25.206</ele>
  <time>2026-09-02T22:11:32Z</time>
  <course>19.91</course>
  <speed>0.9626006440887103</speed>
  <fix>3d</fix>
</trkpt>
<trkpt lat="33.8107122" lon="-118.3937774">
  <ele>-25.206</ele>
  <time>2026-09-02T22:11:32Z</time>
  <course>19.91</course>
  <speed>0.9626006440887103</speed>
  <fix>3d</fix>
</trkpt>
<trkpt lat="33.8107122" lon="-118.3937773">
  <ele>-25.206</ele>
  <time>2026-09-02T22:11:32Z</time>
  <course>19.91</course>
  <speed>0.9626006440887103</speed>
  <fix>3d</fix>
</trkpt>
<trkpt lat="33.8107123" lon="-118.3937773">
  <ele>-25.206</ele>
  <time>2026-09-02T22:11:32Z</time>
  <course>19.91</course>
  <speed>0.9693812459502195</speed>
  <fix>3d</fix>
</trkpt>
<trkpt lat="33.8107123" lon="-118.3937773">
  <ele>-25.206</ele>
  <time>2026-09-02T22:11:32Z</time>
  <course>19.91</course>
  <speed>0.9693812459502195</speed>
  <fix>3d</fix>
</trkpt>
<trkpt lat="33.8107111" lon="-118.3937792">
  <ele>-24.58</ele>
  <time>2026-09-02T22:11:32Z</time>
  <course>45.24</course>
  <speed>0.97</speed>
  <fix>3d</fix>
</trkpt>
<trkpt lat="33.8107123" lon="-118.3937772">
  <ele>-25.206</ele>
  <time>2026-09-02T22:11:32Z</time>
  <course>19.91</course>
  <speed>0.9693812459502195</speed>
  <fix>3d</fix>
</trkpt>
<trkpt lat="33.8107124" lon="-118.3937771">
  <ele>-25.207</ele>
  <time>2026-09-02T22:11:32Z</time>
  <course>19.91</course>
  <speed>0.9693812459502195</speed>
  <fix>3d</fix>
</trkpt>
<trkpt lat="33.8107124" lon="-118.3937771">
  <ele>-25.207</ele>
  <time>2026-09-02T22:11:32Z</time>
  <course>19.91</course>
  <speed>0.9693812459502195</speed>
  <fix>3d</fix>
</trkpt>
<trkpt lat="33.8107125" lon="-118.393777">
  <ele>-25.207</ele>
  <time>2026-09-02T22:11:32Z</time>
  <course>19.91</course>
  <speed>0.9693812459502195</speed>
  <fix>3d</fix>
</trkpt>
<trkpt lat="33.8107125" lon="-118.3937769">
  <ele>-25.207</ele>
  <time>2026-09-02T22:11:32Z</time>
  <course>19.91</course>
  <speed>0.9693812459502195</speed>
  <fix>3d</fix>
</trkpt>
<trkpt lat="33.8107126" lon="-118.3937769">
  <ele>-25.207</ele>
  <time>2026-09-02T22:11:32Z</time>
  <course>19.91</course>
  <speed>0.9693812459502195</speed>
  <fix>3d</fix>
</trkpt>
<trkpt lat="33.8107126" lon="-118.3937768">
  <ele>-25.207</ele>
  <time>2026-09-02T22:11:32Z</time>
  <course>19.91</course>
  <speed>0.9693812459502195</speed>
  <fix>3d</fix>
</trkpt>
<trkpt lat="33.8107127" lon="-118.3937768">
  <ele>-25.207</ele>
  <time>2026-09-02T22:11:32Z</time>
  <course>19.91</course>
  <speed>0.9693812459502195</speed>
  <fix>3d</fix>
</trkpt>
<trkpt lat="33.8107127" lon="-118.3937767">
  <ele>-25.207</ele>
  <time>2026-09-02T22:11:32Z</time>
  <course>19.91</course>
  <speed>0.9693812459502195</speed>
  <fix>3d</fix>
</trkpt>
<trkpt lat="33.8107128" lon="-118.3937766">
  <ele>-25.208</ele>
  <time>2026-09-02T22:11:32Z</time>
  <course>19.91</course>
  <speed>0.9693812459502195</speed>
  <fix>3d</fix>
</trkpt>
<trkpt lat="33.8107128" lon="-118.3937766">
  <ele>-25.208</ele>
  <time>2026-09-02T22:11:32Z</time>
  <course>19.91</course>
  <speed>0.9693812459502195</speed>
  <fix>3d</fix>
</trkpt>
<trkpt lat="33.8107129" lon="-118.3937765">
  <ele>-25.208</ele>
  <time>2026-09-02T22:11:32Z</time>
  <course>19.9</course>
  <speed>0.9693812459502195</speed>
  <fix>3d</fix>
</trkpt>
<trkpt lat="33.8107129" lon="-118.3937765">
  <ele>-25.208</ele>
  <time>2026-09-02T22:11:32Z</time>
  <course>19.9</course>
  <speed>0.9693812459502195</speed>
  <fix>3d</fix>
</trkpt>
<trkpt lat="33.8107123" lon="-118.3937777">
  <ele>-24.58</ele>
  <time>2026-09-02T22:11:32Z</time>
  <course>45.23</course>
  <speed>0.98</speed>
  <fix>3d</fix>
</trkpt>
<trkpt lat="33.8107129" lon="-118.3937765">
  <ele>-25.208</ele>
  <time>2026-09-02T22:11:32Z</time>
  <course>19.9</course>
  <speed>0.9693812459502195</speed>
  <fix>3d</fix>
</trkpt>
<trkpt lat="33.810713" lon="-118.3937764">
  <ele>-25.208</ele>
  <time>2026-09-02T22:11:32Z</time>
  <course>19.9</course>
  <speed>0.9693812459502195</speed>
  <fix>3d</fix>
</trkpt>
<trkpt lat="33.810713" lon="-118.3937763">
  <ele>-25.208</ele>
  <time>2026-09-02T22:11:32Z</time>
  <course>19.9</course>
  <speed>0.9693812459502195</speed>
  <fix>3d</fix>
</trkpt>
<trkpt lat="33.8107131" lon="-118.3937763">
  <ele>-25.208</ele>
  <time>2026-09-02T22:11:32Z</time>
  <course>19.9</course>
  <speed>0.9693812459502195</speed>
  <fix>3d</fix>
</trkpt>
<trkpt lat="33.8107131" lon="-118.3937762">
  <ele>-25.208</ele>
  <time>2026-09-02T22:11:32Z</time>
  <course>19.9</course>
  <speed>0.9693812459502195</speed>
  <fix>3d</fix>
</trkpt>
<trkpt lat="33.8107131" lon="-118.3937762">
  <ele>-25.209</ele>
  <time>2026-09-02T22:11:32Z</time>
  <course>19.9</course>
  <speed>0.9693812459502195</speed>
  <fix>3d</fix>
</trkpt>
<trkpt lat="33.8107132" lon="-118.3937761">
  <ele>-25.209</ele>
  <time>2026-09-02T22:11:32Z</time>
  <course>19.9</course>
  <speed>0.9693812459502195</speed>
  <fix>3d</fix>
</trkpt>
<trkpt lat="33.8107132" lon="-118.3937761">
  <ele>-25.209</ele>
  <time>2026-09-02T22:11:32Z</time>
  <course>19.9</course>
  <speed>0.9693812459502195</speed>
  <fix>3d</fix>
</trkpt>
<trkpt lat="33.8107133" lon="-118.393776">
  <ele>-25.209</ele>
  <time>2026-09-02T22:11:32Z</time>
  <course>19.9</course>
  <speed>0.9693812459502195</speed>
  <fix>3d</fix>
</trkpt>
<trkpt lat="33.8107133" lon="-118.393776">
  <ele>-25.209</ele>
  <time>2026-09-02T22:11:32Z</time>
  <course>19.9</course>
  <speed>0.9693812459502195</speed>
  <fix>3d</fix>
</trkpt>
<trkpt lat="33.8107134" lon="-118.3937759">
  <ele>-25.209</ele>
  <time>2026-09-02T22:11:32Z</time>
  <course>19.9</course>
  <speed>0.9693812459502195</speed>
  <fix>3d</fix>
</trkpt>
<trkpt lat="33.8107134" lon="-118.3937758">
  <ele>-25.21</ele>
  <time>2026-09-02T22:11:32Z</time>
  <course>19.9</course>
  <speed>0.9693812459502195</speed>
  <fix>3d</fix>
</trkpt>
<trkpt lat="33.8107135" lon="-118.3937758">
  <ele>-25.21</ele>
  <time>2026-09-02T22:11:32Z</time>
  <course>19.91</course>
  <speed>0.9693812459502195</speed>
  <fix>3d</fix>
</trkpt>
<trkpt lat="33.8107135" lon="-118.3937757">
  <ele>-25.21</ele>
  <time>2026-09-02T22:11:32Z</time>
  <course>19.91</course>
  <speed>0.9693812459502195</speed>
  <fix>3d</fix>
</trkpt>
<trkpt lat="33.8107123" lon="-118.3937777">
  <ele>-24.58</ele>
  <time>2026-09-02T22:11:32Z</time>
  <course>45.23</course>
  <speed>0.98</speed>
  <fix>3d</fix>
</trkpt>
<trkpt lat="33.8107135" lon="-118.3937757">
  <ele>-25.21</ele>
  <time>2026-09-02T22:11:32Z</time>
  <course>19.91</course>
  <speed>0.9693812459502195</speed>
  <fix>3d</fix>
</trkpt>
<trkpt lat="33.8107136" lon="-118.3937757">
  <ele>-25.21</ele>
  <time>2026-09-02T22:11:32Z</time>
  <course>19.91</course>
  <speed>0.9693812459502195</speed>
  <fix>3d</fix>
</trkpt>
<trkpt lat="33.8107136" lon="-118.3937756">
  <ele>-25.21</ele>
  <time>2026-09-02T22:11:32Z</time>
  <course>19.91</course>
  <speed>0.9767292357659824</speed>
  <fix>3d</fix>
</trkpt>
<trkpt lat="33.8107137" lon="-118.3937755">
  <ele>-25.211</ele>
  <time>2026-09-02T22:11:32Z</time>
  <course>19.91</course>
  <speed>0.9693812459502195</speed>
  <fix>3d</fix>
</trkpt>
<trkpt lat="33.8107138" lon="-118.3937754">
  <ele>-25.211</ele>
  <time>2026-09-02T22:11:32Z</time>
  <course>19.91</course>
  <speed>0.9693812459502195</speed>
  <fix>3d</fix>
</trkpt>
<trkpt lat="33.8107138" lon="-118.3937754">
  <ele>-25.211</ele>
  <time>2026-09-02T22:11:32Z</time>
  <course>19.91</course>
  <speed>0.9693812459502195</speed>
  <fix>3d</fix>
</trkpt>
<trkpt lat="33.8107138" lon="-118.3937753">
  <ele>-25.211</ele>
  <time>2026-09-02T22:11:32Z</time>
  <course>19.91</course>
  <speed>0.9693812459502195</speed>
  <fix>3d</fix>
</trkpt>
<trkpt lat="33.8107139" lon="-118.3937753">
  <ele>-25.211</ele>
  <time>2026-09-02T22:11:32Z</time>
  <course>19.91</course>
  <speed>0.9693812459502195</speed>
  <fix>3d</fix>
</trkpt>
<trkpt lat="33.8107139" lon="-118.3937752">
  <ele>-25.211</ele>
  <time>2026-09-02T22:11:32Z</time>
  <course>19.91</course>
  <speed>0.9693812459502195</speed>
  <fix>3d</fix>
</trkpt>
<trkpt lat="33.810714" lon="-118.3937752">
  <ele>-25.211</ele>
  <time>2026-09-02T22:11:32Z</time>
  <course>19.92</course>
  <speed>0.9693812459502195</speed>
  <fix>3d</fix>
</trkpt>
<trkpt lat="33.810714" lon="-118.3937751">
  <ele>-25.212</ele>
  <time>2026-09-02T22:11:32Z</time>
  <course>19.92</course>
  <speed>0.9693812459502195</speed>
  <fix>3d</fix>
</trkpt>
<trkpt lat="33.8107141" lon="-118.3937751">
  <ele>-25.212</ele>
  <time>2026-09-02T22:11:32Z</time>
  <course>19.92</course>
  <speed>0.9693812459502195</speed>
  <fix>3d</fix>
</trkpt>
<trkpt lat="33.8107141" lon="-118.393775">
  <ele>-25.212</ele>
  <time>2026-09-02T22:11:32Z</time>
  <course>19.92</course>
  <speed>0.9693812459502195</speed>
  <fix>3d</fix>
</trkpt>
<trkpt lat="33.8107141" lon="-118.393775">
  <ele>-25.212</ele>
  <time>2026-09-02T22:11:32Z</time>
  <course>19.92</course>
  <speed>0.9693812459502195</speed>
  <fix>3d</fix>
</trkpt>
<trkpt lat="33.8107136" lon="-118.3937762">
  <ele>-24.58</ele>
  <time>2026-09-02T22:11:32Z</time>
  <course>45.19</course>
  <speed>0.98</speed>
  <fix>3d</fix>
</trkpt>
<trkpt lat="33.8107141" lon="-118.393775">
  <ele>-25.212</ele>
  <time>2026-09-02T22:11:32Z</time>
  <course>19.92</course>
  <speed>0.9693812459502195</speed>
  <fix>3d</fix>
</trkpt>
<trkpt lat="33.8107142" lon="-118.3937749">
  <ele>-25.212</ele>
  <time>2026-09-02T22:11:32Z</time>
  <course>19.91</course>
  <speed>0.9767292357659824</speed>
  <fix>3d</fix>
</trkpt>
<trkpt lat="33.8107143" lon="-118.3937748">
  <ele>-25.213</ele>
  <time>2026-09-02T22:11:32Z</time>
  <course>19.91</course>
  <speed>0.9767292357659824</speed>
  <fix>3d</fix>
</trkpt>
<trkpt lat="33.8107143" lon="-118.3937747">
  <ele>-25.213</ele>
  <time>2026-09-02T22:11:32Z</time>
  <course>19.91</course>
  <speed>0.9767292357659824</speed>
  <fix>3d</fix>
</trkpt>
<trkpt lat="33.8107144" lon="-118.3937747">
  <ele>-25.213</ele>
  <time>2026-09-02T22:11:32Z</time>
  <course>19.91</course>
  <speed>0.9767292357659824</speed>
  <fix>3d</fix>
</trkpt>
<trkpt lat="33.8107144" lon="-118.3937746">
  <ele>-25.213</ele>
  <time>2026-09-02T22:11:32Z</time>
  <course>19.91</course>
  <speed>0.9767292357659824</speed>
  <fix>3d</fix>
</trkpt>
<trkpt lat="33.8107145" lon="-118.3937745">
  <ele>-25.213</ele>
  <time>2026-09-02T22:11:32Z</time>
  <course>19.91</course>
  <speed>0.9767292357659824</speed>
  <fix>3d</fix>
</trkpt>
<trkpt lat="33.8107145" lon="-118.3937745">
  <ele>-25.214</ele>
  <time>2026-09-02T22:11:32Z</time>
  <course>19.91</course>
  <speed>0.9767292357659824</speed>
  <fix>3d</fix>
</trkpt>
<trkpt lat="33.8107146" lon="-118.3937744">
  <ele>-25.214</ele>
  <time>2026-09-02T22:11:32Z</time>
  <course>19.91</course>
  <speed>0.9767292357659824</speed>
  <fix>3d</fix>
</trkpt>
<trkpt lat="33.8107146" lon="-118.3937744">
  <ele>-25.214</ele>
  <time>2026-09-02T22:11:32Z</time>
  <course>19.91</course>
  <speed>0.9767292357659824</speed>
  <fix>3d</fix>
</trkpt>
<trkpt lat="33.8107147" lon="-118.3937743">
  <ele>-25.214</ele>
  <time>2026-09-02T22:11:32Z</time>
  <course>19.91</course>
  <speed>0.9767292357659824</speed>
  <fix>3d</fix>
</trkpt>
<trkpt lat="33.8107147" lon="-118.3937743">
  <ele>-25.214</ele>
  <time>2026-09-02T22:11:32Z</time>
  <course>19.91</course>
  <speed>0.9767292357659824</speed>
  <fix>3d</fix>
</trkpt>
<trkpt lat="33.8107148" lon="-118.3937742">
  <ele>-25.214</ele>
  <time>2026-09-02T22:11:32Z</time>
  <course>19.91</course>
  <speed>0.9767292357659824</speed>
  <fix>3d</fix>
</trkpt>
<trkpt lat="33.8107136" lon="-118.3937762">
  <ele>-24.58</ele>
  <time>2026-09-02T22:11:32Z</time>
  <course>45.19</course>
  <speed>0.98</speed>
  <fix>3d</fix>
</trkpt>
<trkpt lat="33.8107148" lon="-118.3937742">
  <ele>-25.214</ele>
  <time>2026-09-02T22:11:32Z</time>
  <course>19.91</course>
  <speed>0.9767292357659824</speed>
  <fix>3d</fix>
</trkpt>
<trkpt lat="33.8107149" lon="-118.3937741">
  <ele>-25.215</ele>
  <time>2026-09-02T22:11:32Z</time>
  <course>19.91</course>
  <speed>0.9767292357659824</speed>
  <fix>3d</fix>
</trkpt>
<trkpt lat="33.8107149" lon="-118.3937741">
  <ele>-25.215</ele>
  <time>2026-09-02T22:11:32Z</time>
  <course>19.91</course>
  <speed>0.9767292357659824</speed>
  <fix>3d</fix>
</trkpt>
<trkpt lat="33.8107149" lon="-118.393774">
  <ele>-25.215</ele>
  <time>2026-09-02T22:11:32Z</time>
  <course>19.91</course>
  <speed>0.9767292357659824</speed>
  <fix>3d</fix>
</trkpt>
<trkpt lat="33.810715" lon="-118.3937739">
  <ele>-25.215</ele>
  <time>2026-09-02T22:11:32Z</time>
  <course>19.91</course>
  <speed>0.9767292357659824</speed>
  <fix>3d</fix>
</trkpt>
<trkpt lat="33.810715" lon="-118.3937739">
  <ele>-25.215</ele>
  <time>2026-09-02T22:11:32Z</time>
  <course>19.91</course>
  <speed>0.9767292357659824</speed>
  <fix>3d</fix>
</trkpt>
<trkpt lat="33.8107151" lon="-118.3937738">
  <ele>-25.215</ele>
  <time>2026-09-02T22:11:32Z</time>
  <course>19.91</course>
  <speed>0.9693812459502195</speed>
  <fix>3d</fix>
</trkpt>
<trkpt lat="33.8107151" lon="-118.3937738">
  <ele>-25.215</ele>
  <time>2026-09-02T22:11:32Z</time>
  <course>19.91</course>
  <speed>0.9693812459502195</speed>
  <fix>3d</fix>
</trkpt>
<trkpt lat="33.8107152" lon="-118.3937737">
  <ele>-25.215</ele>
  <time>2026-09-02T22:11:32Z</time>
  <course>19.91</course>
  <speed>0.9693812459502195</speed>
  <fix>3d</fix>
</trkpt>
<trkpt lat="33.8107152" lon="-118.3937737">
  <ele>-25.215</ele>
  <time>2026-09-02T22:11:32Z</time>
  <course>19.91</course>
  <speed>0.9693812459502195</speed>
  <fix>3d</fix>
</trkpt>
<trkpt lat="33.8107153" lon="-118.3937736">
  <ele>-25.216</ele>
  <time>2026-09-02T22:11:32Z</time>
  <course>19.91</course>
  <speed>0.9693812459502195</speed>
  <fix>3d</fix>
</trkpt>
<trkpt lat="33.8107153" lon="-118.3937735">
  <ele>-25.216</ele>
  <time>2026-09-02T22:11:32Z</time>
  <course>19.91</course>
  <speed>0.9693812459502195</speed>
  <fix>3d</fix>
</trkpt>
<trkpt lat="33.8107154" lon="-118.3937735">
  <ele>-25.216</ele>
  <time>2026-09-02T22:11:32Z</time>
  <course>19.91</course>
  <speed>0.9693812459502195</speed>
  <fix>3d</fix>
</trkpt>
<trkpt lat="33.8107154" lon="-118.3937735">
  <ele>-25.216</ele>
  <time>2026-09-02T22:11:32Z</time>
  <course>19.91</course>
  <speed>0.9693812459502195</speed>
  <fix>3d</fix>
</trkpt>
<trkpt lat="33.8107148" lon="-118.3937747">
  <ele>-24.59</ele>
  <time>2026-09-02T22:11:32Z</time>
  <course>45.14</course>
  <speed>0.99</speed>
  <fix>3d</fix>
</trkpt>
<trkpt lat="33.8107154" lon="-118.3937735">
  <ele>-25.216</ele>
  <time>2026-09-02T22:11:32Z</time>
  <course>19.91</course>
  <speed>0.9693812459502195</speed>
  <fix>3d</fix>
</trkpt>
<trkpt lat="33.8107155" lon="-118.3937734">
  <ele>-25.216</ele>
  <time>2026-09-02T22:11:32Z</time>
  <course>19.91</course>
  <speed>0.9767292357659824</speed>
  <fix>3d</fix>
</trkpt>
<trkpt lat="33.8107155" lon="-118.3937733">
  <ele>-25.216</ele>
  <time>2026-09-02T22:11:32Z</time>
  <course>19.91</course>
  <speed>0.9767292357659824</speed>
  <fix>3d</fix>
</trkpt>
<trkpt lat="33.8107156" lon="-118.3937732">
  <ele>-25.216</ele>
  <time>2026-09-02T22:11:32Z</time>
  <course>19.91</course>
  <speed>0.9767292357659824</speed>
  <fix>3d</fix>
</trkpt>
<trkpt lat="33.8107156" lon="-118.3937732">
  <ele>-25.216</ele>
  <time>2026-09-02T22:11:32Z</time>
  <course>19.91</course>
  <speed>0.9767292357659824</speed>
  <fix>3d</fix>
</trkpt>
<trkpt lat="33.8107157" lon="-118.3937731">
  <ele>-25.216</ele>
  <time>2026-09-02T22:11:32Z</time>
  <course>19.91</course>
  <speed>0.9767292357659824</speed>
  <fix>3d</fix>
</trkpt>
<trkpt lat="33.8107157" lon="-118.3937731">
  <ele>-25.216</ele>
  <time>2026-09-02T22:11:32Z</time>
  <course>19.91</course>
  <speed>0.9767292357659824</speed>
  <fix>3d</fix>
</trkpt>
<trkpt lat="33.8107158" lon="-118.393773">
  <ele>-25.216</ele>
  <time>2026-09-02T22:11:32Z</time>
  <course>19.91</course>
  <speed>0.9767292357659824</speed>
  <fix>3d</fix>
</trkpt>
<trkpt lat="33.8107158" lon="-118.393773">
  <ele>-25.216</ele>
  <time>2026-09-02T22:11:32Z</time>
  <course>19.91</course>
  <speed>0.9767292357659824</speed>
  <fix>3d</fix>
</trkpt>
<trkpt lat="33.8107159" lon="-118.3937729">
  <ele>-25.216</ele>
  <time>2026-09-02T22:11:32Z</time>
  <course>19.91</course>
  <speed>0.9767292357659824</speed>
  <fix>3d</fix>
</trkpt>
<trkpt lat="33.8107159" lon="-118.3937728">
  <ele>-25.217</ele>
  <time>2026-09-02T22:11:32Z</time>
  <course>19.91</course>
  <speed>0.9767292357659824</speed>
  <fix>3d</fix>
</trkpt>
<trkpt lat="33.8107159" lon="-118.3937728">
  <ele>-25.217</ele>
  <time>2026-09-02T22:11:32Z</time>
  <course>19.91</course>
  <speed>0.9767292357659824</speed>
  <fix>3d</fix>
</trkpt>
<trkpt lat="33.810716" lon="-118.3937727">
  <ele>-25.217</ele>
  <time>2026-09-02T22:11:32Z</time>
  <course>19.91</course>
  <speed>0.9767292357659824</speed>
  <fix>3d</fix>
</trkpt>
<trkpt lat="33.810716" lon="-118.3937727">
  <ele>-25.217</ele>
  <time>2026-09-02T22:11:32Z</time>
  <course>19.91</course>
  <speed>0.9767292357659824</speed>
  <fix>3d</fix>
</trkpt>
<trkpt lat="33.8107148" lon="-118.3937747">
  <ele>-24.59</ele>
  <time>2026-09-02T22:11:32Z</time>
  <course>45.14</course>
  <speed>0.99</speed>
  <fix>3d</fix>
</trkpt>
<trkpt lat="33.810716" lon="-118.3937727">
  <ele>-25.217</ele>
  <time>2026-09-02T22:11:32Z</time>
  <course>19.91</course>
  <speed>0.9767292357659824</speed>
  <fix>3d</fix>
</trkpt>
<trkpt lat="33.8107161" lon="-118.3937726">
  <ele>-25.217</ele>
  <time>2026-09-02T22:11:32Z</time>
  <course>19.91</course>
  <speed>0.9767292357659824</speed>
  <fix>3d</fix>
</trkpt>
<trkpt lat="33.8107161" lon="-118.3937726">
  <ele>-25.217</ele>
  <time>2026-09-02T22:11:32Z</time>
  <course>19.91</course>
  <speed>0.9767292357659824</speed>
  <fix>3d</fix>
</trkpt>
<trkpt lat="33.8107162" lon="-118.3937725">
  <ele>-25.217</ele>
  <time>2026-09-02T22:11:32Z</time>
  <course>19.91</course>
  <speed>0.9767292357659824</speed>
  <fix>3d</fix>
</trkpt>
<trkpt lat="33.8107162" lon="-118.3937724">
  <ele>-25.217</ele>
  <time>2026-09-02T22:11:32Z</time>
  <course>19.91</course>
  <speed>0.9767292357659824</speed>
  <fix>3d</fix>
</trkpt>
<trkpt lat="33.8107163" lon="-118.3937724">
  <ele>-25.217</ele>
  <time>2026-09-02T22:11:32Z</time>
  <course>19.91</course>
  <speed>0.9767292357659824</speed>
  <fix>3d</fix>
</trkpt>
<trkpt lat="33.8107163" lon="-118.3937723">
  <ele>-25.217</ele>
  <time>2026-09-02T22:11:32Z</time>
  <course>19.91</course>
  <speed>0.9767292357659824</speed>
  <fix>3d</fix>
</trkpt>
<trkpt lat="33.8107164" lon="-118.3937723">
  <ele>-25.217</ele>
  <time>2026-09-02T22:11:32Z</time>
  <course>19.91</course>
  <speed>0.9767292357659824</speed>
  <fix>3d</fix>
</trkpt>
<trkpt lat="33.8107164" lon="-118.3937722">
  <ele>-25.217</ele>
  <time>2026-09-02T22:11:32Z</time>
  <course>19.91</course>
  <speed>0.9693812459502195</speed>
  <fix>3d</fix>
</trkpt>
<trkpt lat="33.8107165" lon="-118.3937722">
  <ele>-25.218</ele>
  <time>2026-09-02T22:11:32Z</time>
  <course>19.91</course>
  <speed>0.9693812459502195</speed>
  <fix>3d</fix>
</trkpt>
<trkpt lat="33.8107165" lon="-118.3937721">
  <ele>-25.218</ele>
  <time>2026-09-02T22:11:32Z</time>
  <course>19.91</course>
  <speed>0.9693812459502195</speed>
  <fix>3d</fix>
</trkpt>
<trkpt lat="33.8107166" lon="-118.3937721">
  <ele>-25.218</ele>
  <time>2026-09-02T22:11:32Z</time>
  <course>19.91</course>
  <speed>0.9693812459502195</speed>
  <fix>3d</fix>
</trkpt>
<trkpt lat="33.8107166" lon="-118.393772">
  <ele>-25.218</ele>
  <time>2026-09-02T22:11:32Z</time>
  <course>19.91</course>
  <speed>0.9693812459502195</speed>
  <fix>3d</fix>
</trkpt>
<trkpt lat="33.8107166" lon="-118.393772">
  <ele>-25.218</ele>
  <time>2026-09-02T22:11:32Z</time>
  <course>19.91</course>
  <speed>0.9693812459502195</speed>
  <fix>3d</fix>
</trkpt>
<trkpt lat="33.8107161" lon="-118.3937731">
  <ele>-24.59</ele>
  <time>2026-09-02T22:11:32Z</time>
  <course>45.11</course>
  <speed>0.99</speed>
  <fix>3d</fix>
</trkpt>
<trkpt lat="33.8107167" lon="-118.3937719">
  <ele>-25.218</ele>
  <time>2026-09-02T22:11:32Z</time>
  <course>19.91</course>
  <speed>0.9693812459502195</speed>
  <fix>3d</fix>
</trkpt>
<trkpt lat="33.8107167" lon="-118.3937718">
  <ele>-25.218</ele>
  <time>2026-09-02T22:11:32Z</time>
  <course>19.91</course>
  <speed>0.9693812459502195</speed>
  <fix>3d</fix>
</trkpt>
<trkpt lat="33.8107168" lon="-118.3937718">
  <ele>-25.219</ele>
  <time>2026-09-02T22:11:32Z</time>
  <course>19.91</course>
  <speed>0.9693812459502195</speed>
  <fix>3d</fix>
</trkpt>
<trkpt lat="33.8107168" lon="-118.3937717">
  <ele>-25.219</ele>
  <time>2026-09-02T22:11:32Z</time>
  <course>19.91</course>
  <speed>0.9693812459502195</speed>
  <fix>3d</fix>
</trkpt>
<trkpt lat="33.8107169" lon="-118.3937717">
  <ele>-25.219</ele>
  <time>2026-09-02T22:11:32Z</time>
  <course>19.91</course>
  <speed>0.9693812459502195</speed>
  <fix>3d</fix>
</trkpt>
<trkpt lat="33.8107169" lon="-118.3937716">
  <ele>-25.219</ele>
  <time>2026-09-02T22:11:32Z</time>
  <course>19.91</course>
  <speed>0.9693812459502195</speed>
  <fix>3d</fix>
</trkpt>
<trkpt lat="33.810717" lon="-118.3937716">
  <ele>-25.219</ele>
  <time>2026-09-02T22:11:32Z</time>
  <course>19.91</course>
  <speed>0.9693812459502195</speed>
  <fix>3d</fix>
</trkpt>
<trkpt lat="33.810717" lon="-118.3937715">
  <ele>-25.219</ele>
  <time>2026-09-02T22:11:32Z</time>
  <course>19.91</course>
  <speed>0.9767292357659824</speed>
  <fix>3d</fix>
</trkpt>
<trkpt lat="33.8107171" lon="-118.3937714">
  <ele>-25.219</ele>
  <time>2026-09-02T22:11:32Z</time>
  <course>19.91</course>
  <speed>0.9693812459502195</speed>
  <fix>3d</fix>
</trkpt>
<trkpt lat="33.8107171" lon="-118.3937714">
  <ele>-25.219</ele>
  <time>2026-09-02T22:11:32Z</time>
  <course>19.91</course>
  <speed>0.9693812459502195</speed>
  <fix>3d</fix>
</trkpt>
<trkpt lat="33.8107172" lon="-118.3937713">
  <ele>-25.22</ele>
  <time>2026-09-02T22:11:32Z</time>
  <course>19.91</course>
  <speed>0.9693812459502195</speed>
  <fix>3d</fix>
</trkpt>
<trkpt lat="33.8107172" lon="-118.3937713">
  <ele>-25.22</ele>
  <time>2026-09-02T22:11:32Z</time>
  <course>19.91</course>
  <speed>0.9693812459502195</speed>
  <fix>3d</fix>
</trkpt>
<trkpt lat="33.8107173" lon="-118.3937712">
  <ele>-25.22</ele>
  <time>2026-09-02T22:11:32Z</time>
  <course>19.91</course>
  <speed>0.9693812459502195</speed>
  <fix>3d</fix>
</trkpt>
<trkpt lat="33.8107173" lon="-118.3937712">
  <ele>-25.22</ele>
  <time>2026-09-02T22:11:32Z</time>
  <course>19.91</course>
  <speed>0.9693812459502195</speed>
  <fix>3d</fix>
</trkpt>
<trkpt lat="33.8107161" lon="-118.3937731">
  <ele>-24.59</ele>
  <time>2026-09-02T22:11:32Z</time>
  <course>45.11</course>
  <speed>0.99</speed>
  <fix>3d</fix>
</trkpt>
<trkpt lat="33.8107173" lon="-118.3937712">
  <ele>-25.22</ele>
  <time>2026-09-02T22:11:32Z</time>
  <course>19.91</course>
  <speed>0.9693812459502195</speed>
  <fix>3d</fix>
</trkpt>
<trkpt lat="33.8107173" lon="-118.3937711">
  <ele>-25.22</ele>
  <time>2026-09-02T22:11:32Z</time>
  <course>19.91</course>
  <speed>0.9693812459502195</speed>
  <fix>3d</fix>
</trkpt>
<trkpt lat="33.8107174" lon="-118.393771">
  <ele>-25.22</ele>
  <time>2026-09-02T22:11:32Z</time>
  <course>19.91</course>
  <speed>0.9693812459502195</speed>
  <fix>3d</fix>
</trkpt>
<trkpt lat="33.8107174" lon="-118.393771">
  <ele>-25.22</ele>
  <time>2026-09-02T22:11:32Z</time>
  <course>19.91</course>
  <speed>0.9693812459502195</speed>
  <fix>3d</fix>
</trkpt>
<trkpt lat="33.8107175" lon="-118.3937709">
  <ele>-25.221</ele>
  <time>2026-09-02T22:11:32Z</time>
  <course>19.91</course>
  <speed>0.9693812459502195</speed>
  <fix>3d</fix>
</trkpt>
<trkpt lat="33.8107175" lon="-118.3937709">
  <ele>-25.221</ele>
  <time>2026-09-02T22:11:32Z</time>
  <course>19.91</course>
  <speed>0.9693812459502195</speed>
  <fix>3d</fix>
</trkpt>
<trkpt lat="33.8107176" lon="-118.3937708">
  <ele>-25.22</ele>
  <time>2026-09-02T22:11:32Z</time>
  <course>19.91</course>
  <speed>0.9693812459502195</speed>
  <fix>3d</fix>
</trkpt>
<trkpt lat="33.8107176" lon="-118.3937708">
  <ele>-25.221</ele>
  <time>2026-09-02T22:11:32Z</time>
  <course>19.92</course>
  <speed>0.9693812459502195</speed>
  <fix>3d</fix>
</trkpt>
<trkpt lat="33.8107177" lon="-118.3937707">
  <ele>-25.221</ele>
  <time>2026-09-02T22:11:32Z</time>
  <course>19.92</course>
  <speed>0.9693812459502195</speed>
  <fix>3d</fix>
</trkpt>
<trkpt lat="33.8107177" lon="-118.3937706">
  <ele>-25.221</ele>
  <time>2026-09-02T22:11:32Z</time>
  <course>19.92</course>
  <speed>0.9693812459502195</speed>
  <fix>3d</fix>
</trkpt>
<trkpt lat="33.8107178" lon="-118.3937706">
  <ele>-25.221</ele>
  <time>2026-09-02T22:11:32Z</time>
  <course>19.92</course>
  <speed>0.9693812459502195</speed>
  <fix>3d</fix>
</trkpt>
<trkpt lat="33.8107178" lon="-118.3937705">
  <ele>-25.221</ele>
  <time>2026-09-02T22:11:32Z</time>
  <course>19.92</course>
  <speed>0.9693812459502195</speed>
  <fix>3d</fix>
</trkpt>
<trkpt lat="33.8107179" lon="-118.3937705">
  <ele>-25.221</ele>
  <time>2026-09-02T22:11:32Z</time>
  <course>19.92</course>
  <speed>0.9693812459502195</speed>
  <fix>3d</fix>
</trkpt>
<trkpt lat="33.8107179" lon="-118.3937704">
  <ele>-25.221</ele>
  <time>2026-09-02T22:11:32Z</time>
  <course>19.92</course>
  <speed>0.9693812459502195</speed>
  <fix>3d</fix>
</trkpt>
<trkpt lat="33.8107173" lon="-118.3937716">
  <ele>-24.59</ele>
  <time>2026-09-02T22:11:32Z</time>
  <course>45.08</course>
  <speed>0.99</speed>
  <fix>3d</fix>
</trkpt>
<trkpt lat="33.8107179" lon="-118.3937704">
  <ele>-25.221</ele>
  <time>2026-09-02T22:11:32Z</time>
  <course>19.92</course>
  <speed>0.9693812459502195</speed>
  <fix>3d</fix>
</trkpt>
<trkpt lat="33.810718" lon="-118.3937703">
  <ele>-25.221</ele>
  <time>2026-09-02T22:11:32Z</time>
  <course>19.92</course>
  <speed>0.9693812459502195</speed>
  <fix>3d</fix>
</trkpt>
<trkpt lat="33.810718" lon="-118.3937703">
  <ele>-25.221</ele>
  <time>2026-09-02T22:11:32Z</time>
  <course>19.92</course>
  <speed>0.9693812459502195</speed>
  <fix>3d</fix>
</trkpt>
<trkpt lat="33.8107181" lon="-118.3937702">
  <ele>-25.221</ele>
  <time>2026-09-02T22:11:32Z</time>
  <course>19.91</course>
  <speed>0.9693812459502195</speed>
  <fix>3d</fix>
</trkpt>
<trkpt lat="33.8107181" lon="-118.3937702">
  <ele>-25.222</ele>
  <time>2026-09-02T22:11:32Z</time>
  <course>19.91</course>
  <speed>0.9693812459502195</speed>
  <fix>3d</fix>
</trkpt>
<trkpt lat="33.8107182" lon="-118.3937701">
  <ele>-25.222</ele>
  <time>2026-09-02T22:11:32Z</time>
  <course>19.91</course>
  <speed>0.9693812459502195</speed>
  <fix>3d</fix>
</trkpt>
<trkpt lat="33.8107182" lon="-118.3937701">
  <ele>-25.222</ele>
  <time>2026-09-02T22:11:32Z</time>
  <course>19.91</course>
  <speed>0.9693812459502195</speed>
  <fix>3d</fix>
</trkpt>
<trkpt lat="33.8107183" lon="-118.39377">
  <ele>-25.222</ele>
  <time>2026-09-02T22:11:32Z</time>
  <course>19.91</course>
  <speed>0.9693812459502195</speed>
  <fix>3d</fix>
</trkpt>
<trkpt lat="33.8107183" lon="-118.3937699">
  <ele>-25.222</ele>
  <time>2026-09-02T22:11:32Z</time>
  <course>19.92</course>
  <speed>0.9693812459502195</speed>
  <fix>3d</fix>
</trkpt>
<trkpt lat="33.8107183" lon="-118.3937699">
  <ele>-25.222</ele>
  <time>2026-09-02T22:11:32Z</time>
  <course>19.92</course>
  <speed>0.9693812459502195</speed>
  <fix>3d</fix>
</trkpt>
<trkpt lat="33.8107184" lon="-118.3937698">
  <ele>-25.222</ele>
  <time>2026-09-02T22:11:32Z</time>
  <course>19.92</course>
  <speed>0.9693812459502195</speed>
  <fix>3d</fix>
</trkpt>
<trkpt lat="33.8107184" lon="-118.3937698">
  <ele>-25.222</ele>
  <time>2026-09-02T22:11:32Z</time>
  <course>19.92</course>
  <speed>0.9693812459502195</speed>
  <fix>3d</fix>
</trkpt>
<trkpt lat="33.8107185" lon="-118.3937697">
  <ele>-25.222</ele>
  <time>2026-09-02T22:11:32Z</time>
  <course>19.92</course>
  <speed>0.9693812459502195</speed>
  <fix>3d</fix>
</trkpt>
<trkpt lat="33.8107185" lon="-118.3937697">
  <ele>-25.222</ele>
  <time>2026-09-02T22:11:32Z</time>
  <course>19.92</course>
  <speed>0.9693812459502195</speed>
  <fix>3d</fix>
</trkpt>
<trkpt lat="33.8107173" lon="-118.3937716">
  <ele>-24.59</ele>
  <time>2026-09-02T22:11:32Z</time>
  <course>45.08</course>
  <speed>0.99</speed>
  <fix>3d</fix>
</trkpt>
<trkpt lat="33.8107185" lon="-118.3937697">
  <ele>-25.222</ele>
  <time>2026-09-02T22:11:32Z</time>
  <course>19.92</course>
  <speed>0.9693812459502195</speed>
  <fix>3d</fix>
</trkpt>
<trkpt lat="33.8107186" lon="-118.3937696">
  <ele>-25.222</ele>
  <time>2026-09-02T22:11:32Z</time>
  <course>19.92</course>
  <speed>0.9693812459502195</speed>
  <fix>3d</fix>
</trkpt>
<trkpt lat="33.8107186" lon="-118.3937695">
  <ele>-25.222</ele>
  <time>2026-09-02T22:11:32Z</time>
  <course>19.92</course>
  <speed>0.9693812459502195</speed>
  <fix>3d</fix>
</trkpt>
<trkpt lat="33.8107187" lon="-118.3937695">
  <ele>-25.222</ele>
  <time>2026-09-02T22:11:32Z</time>
  <course>19.92</course>
  <speed>0.9693812459502195</speed>
  <fix>3d</fix>
</trkpt>
<trkpt lat="33.8107187" lon="-118.3937694">
  <ele>-25.223</ele>
  <time>2026-09-02T22:11:32Z</time>
  <course>19.92</course>
  <speed>0.9693812459502195</speed>
  <fix>3d</fix>
</trkpt>
<trkpt lat="33.8107188" lon="-118.3937694">
  <ele>-25.222</ele>
  <time>2026-09-02T22:11:32Z</time>
  <course>19.92</course>
  <speed>0.9693812459502195</speed>
  <fix>3d</fix>
</trkpt>
<trkpt lat="33.8107188" lon="-118.3937693">
  <ele>-25.222</ele>
  <time>2026-09-02T22:11:32Z</time>
  <course>19.92</course>
  <speed>0.9693812459502195</speed>
  <fix>3d</fix>
</trkpt>
<trkpt lat="33.8107189" lon="-118.3937692">
  <ele>-25.223</ele>
  <time>2026-09-02T22:11:32Z</time>
  <course>19.92</course>
  <speed>0.9693812459502195</speed>
  <fix>3d</fix>
</trkpt>
<trkpt lat="33.8107189" lon="-118.3937692">
  <ele>-25.222</ele>
  <time>2026-09-02T22:11:32Z</time>
  <course>19.92</course>
  <speed>0.9762171889492625</speed>
  <fix>3d</fix>
</trkpt>
<trkpt lat="33.810719" lon="-118.3937691">
  <ele>-25.223</ele>
  <time>2026-09-02T22:11:32Z</time>
  <course>19.92</course>
  <speed>0.9762171889492625</speed>
  <fix>3d</fix>
</trkpt>
<trkpt lat="33.810719" lon="-118.3937691">
  <ele>-25.223</ele>
  <time>2026-09-02T22:11:32Z</time>
  <course>19.92</course>
  <speed>0.9762171889492625</speed>
  <fix>3d</fix>
</trkpt>
<trkpt lat="33.8107191" lon="-118.393769">
  <ele>-25.222</ele>
  <time>2026-09-02T22:11:32Z</time>
  <course>19.92</course>
  <speed>0.9762171889492625</speed>
  <fix>3d</fix>
</trkpt>
<trkpt lat="33.8107191" lon="-118.393769">
  <ele>-25.223</ele>
  <time>2026-09-02T22:11:32Z</time>
  <course>19.92</course>
  <speed>0.9762171889492625</speed>
  <fix>3d</fix>
</trkpt>
<trkpt lat="33.8107192" lon="-118.3937689">
  <ele>-25.223</ele>
  <time>2026-09-02T22:11:32Z</time>
  <course>19.92</course>
  <speed>0.9762171889492625</speed>
  <fix>3d</fix>
</trkpt>
<trkpt lat="33.8107186" lon="-118.3937701">
  <ele>-24.6</ele>
  <time>2026-09-02T22:11:32Z</time>
  <course>45.02</course>
  <speed>0.99</speed>
  <fix>3d</fix>
</trkpt>
<trkpt lat="33.8107192" lon="-118.3937689">
  <ele>-25.223</ele>
  <time>2026-09-02T22:11:32Z</time>
  <course>19.92</course>
  <speed>0.9762171889492625</speed>
  <fix>3d</fix>
</trkpt>
<trkpt lat="33.8107192" lon="-118.3937688">
  <ele>-25.223</ele>
  <time>2026-09-02T22:11:32Z</time>
  <course>19.92</course>
  <speed>0.9693812459502195</speed>
  <fix>3d</fix>
</trkpt>
<trkpt lat="33.8107193" lon="-118.3937688">
  <ele>-25.223</ele>
  <time>2026-09-02T22:11:32Z</time>
  <course>19.92</course>
  <speed>0.9693812459502195</speed>
  <fix>3d</fix>
</trkpt>
<trkpt lat="33.8107193" lon="-118.3937687">
  <ele>-25.223</ele>
  <time>2026-09-02T22:11:32Z</time>
  <course>19.92</course>
  <speed>0.9693812459502195</speed>
  <fix>3d</fix>
</trkpt>
<trkpt lat="33.8107194" lon="-118.3937687">
  <ele>-25.223</ele>
  <time>2026-09-02T22:11:32Z</time>
  <course>19.92</course>
  <speed>0.9693812459502195</speed>
  <fix>3d</fix>
</trkpt>
<trkpt lat="33.8107194" lon="-118.3937686">
  <ele>-25.223</ele>
  <time>2026-09-02T22:11:32Z</time>
  <course>19.92</course>
  <speed>0.9693812459502195</speed>
  <fix>3d</fix>
</trkpt>
<trkpt lat="33.8107195" lon="-118.3937685">
  <ele>-25.223</ele>
  <time>2026-09-02T22:11:32Z</time>
  <course>19.92</course>
  <speed>0.9693812459502195</speed>
  <fix>3d</fix>
</trkpt>
<trkpt lat="33.8107195" lon="-118.3937685">
  <ele>-25.223</ele>
  <time>2026-09-02T22:11:32Z</time>
  <course>19.92</course>
  <speed>0.9693812459502195</speed>
  <fix>3d</fix>
</trkpt>
<trkpt lat="33.8107196" lon="-118.3937684">
  <ele>-25.223</ele>
  <time>2026-09-02T22:11:32Z</time>
  <course>19.92</course>
  <speed>0.9693812459502195</speed>
  <fix>3d</fix>
</trkpt>
<trkpt lat="33.8107196" lon="-118.3937684">
  <ele>-25.223</ele>
  <time>2026-09-02T22:11:32Z</time>
  <course>19.92</course>
  <speed>0.9693812459502195</speed>
  <fix>3d</fix>
</trkpt>
<trkpt lat="33.8107197" lon="-118.3937683">
  <ele>-25.223</ele>
  <time>2026-09-02T22:11:32Z</time>
  <course>19.92</course>
  <speed>0.9693812459502195</speed>
  <fix>3d</fix>
</trkpt>
<trkpt lat="33.8107197" lon="-118.3937683">
  <ele>-25.223</ele>
  <time>2026-09-02T22:11:32Z</time>
  <course>19.92</course>
  <speed>0.9693812459502195</speed>
  <fix>3d</fix>
</trkpt>
<trkpt lat="33.8107197" lon="-118.3937682">
  <ele>-25.223</ele>
  <time>2026-09-02T22:11:32Z</time>
  <course>19.92</course>
  <speed>0.9693812459502195</speed>
  <fix>3d</fix>
</trkpt>
<trkpt lat="33.8107198" lon="-118.3937682">
  <ele>-25.223</ele>
  <time>2026-09-02T22:11:32Z</time>
  <course>19.92</course>
  <speed>0.9693812459502195</speed>
  <fix>3d</fix>
</trkpt>
<trkpt lat="33.8107186" lon="-118.3937701">
  <ele>-24.6</ele>
  <time>2026-09-02T22:11:32Z</time>
  <course>45.02</course>
  <speed>0.99</speed>
  <fix>3d</fix>
</trkpt>
<trkpt lat="33.8107198" lon="-118.3937681">
  <ele>-25.223</ele>
  <time>2026-09-02T22:11:32Z</time>
  <course>19.92</course>
  <speed>0.9693812459502195</speed>
  <fix>3d</fix>
</trkpt>
<trkpt lat="33.8107199" lon="-118.3937681">
  <ele>-25.223</ele>
  <time>2026-09-02T22:11:32Z</time>
  <course>19.92</course>
  <speed>0.9693812459502195</speed>
  <fix>3d</fix>
</trkpt>
<trkpt lat="33.8107199" lon="-118.393768">
  <ele>-25.223</ele>
  <time>2026-09-02T22:11:32Z</time>
  <course>19.92</course>
  <speed>0.9693812459502195</speed>
  <fix>3d</fix>
</trkpt>
<trkpt lat="33.81072" lon="-118.393768">
  <ele>-25.223</ele>
  <time>2026-09-02T22:11:32Z</time>
  <course>19.92</course>
  <speed>0.9693812459502195</speed>
  <fix>3d</fix>
</trkpt>
<trkpt lat="33.81072" lon="-118.3937679">
  <ele>-25.223</ele>
  <time>2026-09-02T22:11:32Z</time>
  <course>19.92</course>
  <speed>0.9693812459502195</speed>
  <fix>3d</fix>
</trkpt>
<trkpt lat="33.81072" lon="-118.3937678">
  <ele>-25.223</ele>
  <time>2026-09-02T22:11:32Z</time>
  <course>19.92</course>
  <speed>0.9693812459502195</speed>
  <fix>3d</fix>
</trkpt>
<trkpt lat="33.8107201" lon="-118.3937678">
  <ele>-25.223</ele>
  <time>2026-09-02T22:11:32Z</time>
  <course>19.92</course>
  <speed>0.9693812459502195</speed>
  <fix>3d</fix>
</trkpt>
<trkpt lat="33.8107201" lon="-118.3937677">
  <ele>-25.224</ele>
  <time>2026-09-02T22:11:32Z</time>
  <course>19.92</course>
  <speed>0.9693812459502195</speed>
  <fix>3d</fix>
</trkpt>
<trkpt lat="33.8107202" lon="-118.3937677">
  <ele>-25.224</ele>
  <time>2026-09-02T22:11:32Z</time>
  <course>19.92</course>
  <speed>0.9762171889492625</speed>
  <fix>3d</fix>
</trkpt>
<trkpt lat="33.8107202" lon="-118.3937676">
  <ele>-25.224</ele>
  <time>2026-09-02T22:11:32Z</time>
  <course>19.92</course>
  <speed>0.9762171889492625</speed>
  <fix>3d</fix>
</trkpt>
<trkpt lat="33.8107203" lon="-118.3937676">
  <ele>-25.224</ele>
  <time>2026-09-02T22:11:32Z</time>
  <course>19.92</course>
  <speed>0.9762171889492625</speed>
  <fix>3d</fix>
</trkpt>
<trkpt lat="33.8107203" lon="-118.3937675">
  <ele>-25.224</ele>
  <time>2026-09-02T22:11:32Z</time>
  <course>19.92</course>
  <speed>0.9762171889492625</speed>
  <fix>3d</fix>
</trkpt>
<trkpt lat="33.8107204" lon="-118.3937674">
  <ele>-25.224</ele>
  <time>2026-09-02T22:11:32Z</time>
  <course>19.92</course>
  <speed>0.9693812459502195</speed>
  <fix>3d</fix>
</trkpt>
<trkpt lat="33.8107204" lon="-118.3937674">
  <ele>-25.224</ele>
  <time>2026-09-02T22:11:32Z</time>
  <course>19.92</course>
  <speed>0.9762171889492625</speed>
  <fix>3d</fix>
</trkpt>
<trkpt lat="33.8107198" lon="-118.3937685">
  <ele>-24.6</ele>
  <time>2026-09-02T22:11:32Z</time>
  <course>44.97</course>
  <speed>0.99</speed>
  <fix>3d</fix>
</trkpt>
<trkpt lat="33.8107204" lon="-118.3937674">
  <ele>-25.224</ele>
  <time>2026-09-02T22:11:32Z</time>
  <course>19.92</course>
  <speed>0.9693812459502195</speed>
  <fix>3d</fix>
</trkpt>
<trkpt lat="33.8107205" lon="-118.3937673">
  <ele>-25.224</ele>
  <time>2026-09-02T22:11:32Z</time>
  <course>19.92</course>
  <speed>0.9693812459502195</speed>
  <fix>3d</fix>
</trkpt>
<trkpt lat="33.8107205" lon="-118.3937672">
  <ele>-25.224</ele>
  <time>2026-09-02T22:11:32Z</time>
  <course>19.92</course>
  <speed>0.9693812459502195</speed>
  <fix>3d</fix>
</trkpt>
<trkpt lat="33.8107206" lon="-118.3937672">
  <ele>-25.225</ele>
  <time>2026-09-02T22:11:32Z</time>
  <course>19.92</course>
  <speed>0.9693812459502195</speed>
  <fix>3d</fix>
</trkpt>
<trkpt lat="33.8107206" lon="-118.3937671">
  <ele>-25.224</ele>
  <time>2026-09-02T22:11:32Z</time>
  <course>19.92</course>
  <speed>0.9693812459502195</speed>
  <fix>3d</fix>
</trkpt>
<trkpt lat="33.8107207" lon="-118.3937671">
  <ele>-25.225</ele>
  <time>2026-09-02T22:11:32Z</time>
  <course>19.92</course>
  <speed>0.9693812459502195</speed>
  <fix>3d</fix>
</trkpt>
<trkpt lat="33.8107207" lon="-118.393767">
  <ele>-25.225</ele>
  <time>2026-09-02T22:11:32Z</time>
  <course>19.92</course>
  <speed>0.9693812459502195</speed>
  <fix>3d</fix>
</trkpt>
<trkpt lat="33.8107208" lon="-118.393767">
  <ele>-25.225</ele>
  <time>2026-09-02T22:11:32Z</time>
  <course>19.92</course>
  <speed>0.9693812459502195</speed>
  <fix>3d</fix>
</trkpt>
<trkpt lat="33.8107208" lon="-118.3937669">
  <ele>-25.225</ele>
  <time>2026-09-02T22:11:32Z</time>
  <course>19.92</course>
  <speed>0.9693812459502195</speed>
  <fix>3d</fix>
</trkpt>
<trkpt lat="33.8107209" lon="-118.3937669">
  <ele>-25.225</ele>
  <time>2026-09-02T22:11:32Z</time>
  <course>19.92</course>
  <speed>0.9693812459502195</speed>
  <fix>3d</fix>
</trkpt>
<trkpt lat="33.8107209" lon="-118.3937668">
  <ele>-25.225</ele>
  <time>2026-09-02T22:11:32Z</time>
  <course>19.92</course>
  <speed>0.9693812459502195</speed>
  <fix>3d</fix>
</trkpt>
<trkpt lat="33.810721" lon="-118.3937667">
  <ele>-25.225</ele>
  <time>2026-09-02T22:11:32Z</time>
  <course>19.92</course>
  <speed>0.9693812459502195</speed>
  <fix>3d</fix>
</trkpt>
<trkpt lat="33.810721" lon="-118.3937667">
  <ele>-25.225</ele>
  <time>2026-09-02T22:11:32Z</time>
  <course>19.92</course>
  <speed>0.9693812459502195</speed>
  <fix>3d</fix>
</trkpt>
<trkpt lat="33.810721" lon="-118.3937666">
  <ele>-25.225</ele>
  <time>2026-09-02T22:11:32Z</time>
  <course>19.92</course>
  <speed>0.9693812459502195</speed>
  <fix>3d</fix>
</trkpt>
<trkpt lat="33.8107198" lon="-118.3937685">
  <ele>-24.6</ele>
  <time>2026-09-02T22:11:32Z</time>
  <course>44.97</course>
  <speed>0.99</speed>
  <fix>3d</fix>
</trkpt>
<trkpt lat="33.8107211" lon="-118.3937666">
  <ele>-25.225</ele>
  <time>2026-09-02T22:11:32Z</time>
  <course>19.92</course>
  <speed>0.9693812459502195</speed>
  <fix>3d</fix>
</trkpt>
<trkpt lat="33.8107211" lon="-118.3937665">
  <ele>-25.226</ele>
  <time>2026-09-02T22:11:32Z</time>
  <course>19.92</course>
  <speed>0.9693812459502195</speed>
  <fix>3d</fix>
</trkpt>
<trkpt lat="33.8107212" lon="-118.3937665">
  <ele>-25.226</ele>
  <time>2026-09-02T22:11:32Z</time>
  <course>19.92</course>
  <speed>0.9693812459502195</speed>
  <fix>3d</fix>
</trkpt>
<trkpt lat="33.8107212" lon="-118.3937664">
  <ele>-25.226</ele>
  <time>2026-09-02T22:11:32Z</time>
  <course>19.92</course>
  <speed>0.9693812459502195</speed>
  <fix>3d</fix>
</trkpt>
<trkpt lat="33.8107213" lon="-118.3937664">
  <ele>-25.226</ele>
  <time>2026-09-02T22:11:32Z</time>
  <course>19.92</course>
  <speed>0.9693812459502195</speed>
  <fix>3d</fix>
</trkpt>
<trkpt lat="33.8107213" lon="-118.3937663">
  <ele>-25.226</ele>
  <time>2026-09-02T22:11:32Z</time>
  <course>19.92</course>
  <speed>0.9762171889492625</speed>
  <fix>3d</fix>
</trkpt>
<trkpt lat="33.8107214" lon="-118.3937662">
  <ele>-25.226</ele>
  <time>2026-09-02T22:11:32Z</time>
  <course>19.92</course>
  <speed>0.9762171889492625</speed>
  <fix>3d</fix>
</trkpt>
<trkpt lat="33.8107214" lon="-118.3937662">
  <ele>-25.226</ele>
  <time>2026-09-02T22:11:32Z</time>
  <course>19.92</course>
  <speed>0.9762171889492625</speed>
  <fix>3d</fix>
</trkpt>
<trkpt lat="33.8107214" lon="-118.3937661">
  <ele>-25.226</ele>
  <time>2026-09-02T22:11:32Z</time>
  <course>19.92</course>
  <speed>0.9762171889492625</speed>
  <fix>3d</fix>
</trkpt>
<trkpt lat="33.8107215" lon="-118.3937661">
  <ele>-25.227</ele>
  <time>2026-09-02T22:11:32Z</time>
  <course>19.92</course>
  <speed>0.9762171889492625</speed>
  <fix>3d</fix>
</trkpt>
<trkpt lat="33.8107215" lon="-118.393766">
  <ele>-25.227</ele>
  <time>2026-09-02T22:11:32Z</time>
  <course>19.92</course>
  <speed>0.9762171889492625</speed>
  <fix>3d</fix>
</trkpt>
<trkpt lat="33.8107216" lon="-118.393766">
  <ele>-25.227</ele>
  <time>2026-09-02T22:11:32Z</time>
  <course>19.92</course>
  <speed>0.9762171889492625</speed>
  <fix>3d</fix>
</trkpt>
<trkpt lat="33.8107216" lon="-118.3937659">
  <ele>-25.227</ele>
  <time>2026-09-02T22:11:32Z</time>
  <course>19.92</course>
  <speed>0.9762171889492625</speed>
  <fix>3d</fix>
</trkpt>
<trkpt lat="33.8107217" lon="-118.3937659">
  <ele>-25.227</ele>
  <time>2026-09-02T22:11:32Z</time>
  <course>19.92</course>
  <speed>0.9762171889492625</speed>
  <fix>3d</fix>
</trkpt>
<trkpt lat="33.8107211" lon="-118.393767">
  <ele>-24.61</ele>
  <time>2026-09-02T22:11:32Z</time>
  <course>44.92</course>
  <speed>0.99</speed>
  <fix>3d</fix>
</trkpt>
<trkpt lat="33.8107217" lon="-118.3937659">
  <ele>-25.227</ele>
  <time>2026-09-02T22:11:32Z</time>
  <course>19.92</course>
  <speed>0.9762171889492625</speed>
  <fix>3d</fix>
</trkpt>
<trkpt lat="33.8107218" lon="-118.3937658">
  <ele>-25.228</ele>
  <time>2026-09-02T22:11:32Z</time>
  <course>19.92</course>
  <speed>0.9762171889492625</speed>
  <fix>3d</fix>
</trkpt>
<trkpt lat="33.8107218" lon="-118.3937657">
  <ele>-25.228</ele>
  <time>2026-09-02T22:11:32Z</time>
  <course>19.92</course>
  <speed>0.9693812459502195</speed>
  <fix>3d</fix>
</trkpt>
<trkpt lat="33.8107219" lon="-118.3937657">
  <ele>-25.228</ele>
  <time>2026-09-02T22:11:32Z</time>
  <course>19.92</course>
  <speed>0.9693812459502195</speed>
  <fix>3d</fix>
</trkpt>
<trkpt lat="33.8107219" lon="-118.3937656">
  <ele>-25.228</ele>
  <time>2026-09-02T22:11:32Z</time>
  <course>19.92</course>
  <speed>0.9693812459502195</speed>
  <fix>3d</fix>
</trkpt>
<trkpt lat="33.810722" lon="-118.3937655">
  <ele>-25.228</ele>
  <time>2026-09-02T22:11:32Z</time>
  <course>19.92</course>
  <speed>0.9693812459502195</speed>
  <fix>3d</fix>
</trkpt>
<trkpt lat="33.8107221" lon="-118.3937654">
  <ele>-25.229</ele>
  <time>2026-09-02T22:11:32Z</time>
  <course>19.92</course>
  <speed>0.9693812459502195</speed>
  <fix>3d</fix>
</trkpt>
<trkpt lat="33.8107222" lon="-118.3937653">
  <ele>-25.23</ele>
  <time>2026-09-02T22:11:32Z</time>
  <course>19.92</course>
  <speed>0.9693812459502195</speed>
  <fix>3d</fix>
</trkpt>
<trkpt lat="33.8107222" lon="-118.3937652">
  <ele>-25.23</ele>
  <time>2026-09-02T22:11:32Z</time>
  <course>19.92</course>
  <speed>0.9693812459502195</speed>
  <fix>3d</fix>
</trkpt>
<trkpt lat="33.8107223" lon="-118.3937652">
  <ele>-25.23</ele>
  <time>2026-09-02T22:11:32Z</time>
  <course>19.92</course>
  <speed>0.9693812459502195</speed>
  <fix>3d</fix>
</trkpt>
<trkpt lat="33.8107223" lon="-118.3937651">
  <ele>-25.23</ele>
  <time>2026-09-02T22:11:32Z</time>
  <course>19.92</course>
  <speed>0.9693812459502195</speed>
  <fix>3d</fix>
</trkpt>
<trkpt lat="33.8107211" lon="-118.393767">
  <ele>-24.61</ele>
  <time>2026-09-02T22:11:32Z</time>
  <course>44.92</course>
  <speed>0.99</speed>
  <fix>3d</fix>
</trkpt>
<trkpt lat="33.8107223" lon="-118.3937651">
  <ele>-25.231</ele>
  <time>2026-09-02T22:11:32Z</time>
  <course>19.92</course>
  <speed>0.9693812459502195</speed>
  <fix>3d</fix>
</trkpt>
<trkpt lat="33.8107224" lon="-118.393765">
  <ele>-25.231</ele>
  <time>2026-09-02T22:11:32Z</time>
  <course>19.92</course>
  <speed>0.9693812459502195</speed>
  <fix>3d</fix>
</trkpt>
<trkpt lat="33.8107225" lon="-118.3937649">
  <ele>-25.231</ele>
  <time>2026-09-02T22:11:32Z</time>
  <course>19.92</course>
  <speed>0.9693812459502195</speed>
  <fix>3d</fix>
</trkpt>
<trkpt lat="33.8107225" lon="-118.3937649">
  <ele>-25.232</ele>
  <time>2026-09-02T22:11:32Z</time>
  <course>19.92</course>
  <speed>0.9693812459502195</speed>
  <fix>3d</fix>
</trkpt>
<trkpt lat="33.8107225" lon="-118.3937648">
  <ele>-25.232</ele>
  <time>2026-09-02T22:11:32Z</time>
  <course>19.92</course>
  <speed>0.9693812459502195</speed>
  <fix>3d</fix>
</trkpt>
<trkpt lat="33.8107226" lon="-118.3937648">
  <ele>-25.232</ele>
  <time>2026-09-02T22:11:32Z</time>
  <course>19.92</course>
  <speed>0.9693812459502195</speed>
  <fix>3d</fix>
</trkpt>
<trkpt lat="33.8107226" lon="-118.3937647">
  <ele>-25.233</ele>
  <time>2026-09-02T22:11:32Z</time>
  <course>19.92</course>
  <speed>0.9762171889492625</speed>
  <fix>3d</fix>
</trkpt>
<trkpt lat="33.8107227" lon="-118.3937646">
  <ele>-25.233</ele>
  <time>2026-09-02T22:11:32Z</time>
  <course>19.93</course>
  <speed>0.9762171889492625</speed>
  <fix>3d</fix>
</trkpt>
<trkpt lat="33.8107227" lon="-118.3937646">
  <ele>-25.233</ele>
  <time>2026-09-02T22:11:32Z</time>
  <course>19.93</course>
  <speed>0.9762171889492625</speed>
  <fix>3d</fix>
</trkpt>
<trkpt lat="33.8107228" lon="-118.3937645">
  <ele>-25.234</ele>
  <time>2026-09-02T22:11:32Z</time>
  <course>19.93</course>
  <speed>0.9762171889492625</speed>
  <fix>3d</fix>
</trkpt>
<trkpt lat="33.8107228" lon="-118.3937645">
  <ele>-25.234</ele>
  <time>2026-09-02T22:11:32Z</time>
  <course>19.93</course>
  <speed>0.9762171889492625</speed>
  <fix>3d</fix>
</trkpt>
<trkpt lat="33.8107229" lon="-118.3937644">
  <ele>-25.235</ele>
  <time>2026-09-02T22:11:32Z</time>
  <course>19.93</course>
  <speed>0.9762171889492625</speed>
  <fix>3d</fix>
</trkpt>
<trkpt lat="33.8107229" lon="-118.3937644">
  <ele>-25.235</ele>
  <time>2026-09-02T22:11:32Z</time>
  <course>19.93</course>
  <speed>0.9762171889492625</speed>
  <fix>3d</fix>
</trkpt>
<trkpt lat="33.8107229" lon="-118.3937644">
  <ele>-25.235</ele>
  <time>2026-09-02T22:11:32Z</time>
  <course>19.93</course>
  <speed>0.9762171889492625</speed>
  <fix>3d</fix>
</trkpt>
<trkpt lat="33.8107223" lon="-118.3937655">
  <ele>-24.62</ele>
  <time>2026-09-02T22:11:32Z</time>
  <course>44.84</course>
  <speed>0.99</speed>
  <fix>3d</fix>
</trkpt>
<trkpt lat="33.810723" lon="-118.3937643">
  <ele>-25.236</ele>
  <time>2026-09-02T22:11:32Z</time>
  <course>19.93</course>
  <speed>0.9693812459502195</speed>
  <fix>3d</fix>
</trkpt>
<trkpt lat="33.8107231" lon="-118.3937642">
  <ele>-25.236</ele>
  <time>2026-09-02T22:11:32Z</time>
  <course>19.93</course>
  <speed>0.9693812459502195</speed>
  <fix>3d</fix>
</trkpt>
<trkpt lat="33.8107231" lon="-118.3937641">
  <ele>-25.237</ele>
  <time>2026-09-02T22:11:32Z</time>
  <course>19.93</course>
  <speed>0.9693812459502195</speed>
  <fix>3d</fix>
</trkpt>
<trkpt lat="33.8107232" lon="-118.3937641">
  <ele>-25.237</ele>
  <time>2026-09-02T22:11:32Z</time>
  <course>19.93</course>
  <speed>0.9693812459502195</speed>
  <fix>3d</fix>
</trkpt>
<trkpt lat="33.8107232" lon="-118.393764">
  <ele>-25.237</ele>
  <time>2026-09-02T22:11:32Z</time>
  <course>19.93</course>
  <speed>0.9693812459502195</speed>
  <fix>3d</fix>
</trkpt>
<trkpt lat="33.8107233" lon="-118.3937639">
  <ele>-25.238</ele>
  <time>2026-09-02T22:11:32Z</time>
  <course>19.93</course>
  <speed>0.9693812459502195</speed>
  <fix>3d</fix>
</trkpt>
<trkpt lat="33.8107233" lon="-118.3937639">
  <ele>-25.238</ele>
  <time>2026-09-02T22:11:32Z</time>
  <course>19.93</course>
  <speed>0.9693812459502195</speed>
  <fix>3d</fix>
</trkpt>
<trkpt lat="33.8107234" lon="-118.3937638">
  <ele>-25.239</ele>
  <time>2026-09-02T22:11:32Z</time>
  <course>19.93</course>
  <speed>0.9693812459502195</speed>
  <fix>3d</fix>
</trkpt>
<trkpt lat="33.8107234" lon="-118.3937637">
  <ele>-25.239</ele>
  <time>2026-09-02T22:11:32Z</time>
  <course>19.93</course>
  <speed>0.9693812459502195</speed>
  <fix>3d</fix>
</trkpt>
<trkpt lat="33.8107235" lon="-118.3937637">
  <ele>-25.239</ele>
  <time>2026-09-02T22:11:32Z</time>
  <course>19.94</course>
  <speed>0.9693812459502195</speed>
  <fix>3d</fix>
</trkpt>
<trkpt lat="33.8107235" lon="-118.3937636">
  <ele>-25.24</ele>
  <time>2026-09-02T22:11:32Z</time>
  <course>19.94</course>
  <speed>0.9693812459502195</speed>
  <fix>3d</fix>
</trkpt>
<trkpt lat="33.8107236" lon="-118.3937636">
  <ele>-25.24</ele>
  <time>2026-09-02T22:11:32Z</time>
  <course>19.94</course>
  <speed>0.9693812459502195</speed>
  <fix>3d</fix>
</trkpt>
<trkpt lat="33.8107223" lon="-118.3937655">
  <ele>-24.62</ele>
  <time>2026-09-02T22:11:32Z</time>
  <course>44.84</course>
  <speed>0.99</speed>
  <fix>3d</fix>
</trkpt>
<trkpt lat="33.8107236" lon="-118.3937636">
  <ele>-25.24</ele>
  <time>2026-09-02T22:11:32Z</time>
  <course>19.94</course>
  <speed>0.9693812459502195</speed>
  <fix>3d</fix>
</trkpt>
<trkpt lat="33.8107238" lon="-118.3937633">
  <ele>-25.241</ele>
  <time>2026-09-02T22:11:32Z</time>
  <course>19.94</course>
  <speed>0.9762171889492625</speed>
  <fix>3d</fix>
</trkpt>
<trkpt lat="33.8107238" lon="-118.3937633">
  <ele>-25.242</ele>
  <time>2026-09-02T22:11:32Z</time>
  <course>19.94</course>
  <speed>0.9762171889492625</speed>
  <fix>3d</fix>
</trkpt>
<trkpt lat="33.8107239" lon="-118.3937632">
  <ele>-25.242</ele>
  <time>2026-09-02T22:11:32Z</time>
  <course>19.94</course>
  <speed>0.9762171889492625</speed>
  <fix>3d</fix>
</trkpt>
<trkpt lat="33.8107239" lon="-118.3937632">
  <ele>-25.242</ele>
  <time>2026-09-02T22:11:32Z</time>
  <course>19.94</course>
  <speed>0.9762171889492625</speed>
  <fix>3d</fix>
</trkpt>
<trkpt lat="33.810724" lon="-118.3937631">
  <ele>-25.242</ele>
  <time>2026-09-02T22:11:32Z</time>
  <course>19.94</course>
  <speed>0.9762171889492625</speed>
  <fix>3d</fix>
</trkpt>
<trkpt lat="33.810724" lon="-118.393763">
  <ele>-25.243</ele>
  <time>2026-09-02T22:11:32Z</time>
  <course>19.93</course>
  <speed>0.9762171889492625</speed>
  <fix>3d</fix>
</trkpt>
<trkpt lat="33.8107241" lon="-118.393763">
  <ele>-25.243</ele>
  <time>2026-09-02T22:11:32Z</time>
  <course>19.93</course>
  <speed>0.9762171889492625</speed>
  <fix>3d</fix>
</trkpt>
<trkpt lat="33.8107241" lon="-118.3937629">
  <ele>-25.243</ele>
  <time>2026-09-02T22:11:32Z</time>
  <course>19.93</course>
  <speed>0.9762171889492625</speed>
  <fix>3d</fix>
</trkpt>
<trkpt lat="33.8107242" lon="-118.3937629">
  <ele>-25.243</ele>
  <time>2026-09-02T22:11:32Z</time>
  <course>19.93</course>
  <speed>0.9762171889492625</speed>
  <fix>3d</fix>
</trkpt>
<trkpt lat="33.8107242" lon="-118.3937629">
  <ele>-25.243</ele>
  <time>2026-09-02T22:11:32Z</time>
  <course>19.93</course>
  <speed>0.9762171889492625</speed>
  <fix>3d</fix>
</trkpt>
<trkpt lat="33.8107236" lon="-118.393764">
  <ele>-24.63</ele>
  <time>2026-09-02T22:11:32Z</time>
  <course>44.75</course>
  <speed>0.98</speed>
  <fix>3d</fix>
</trkpt>
<trkpt lat="33.8107242" lon="-118.3937628">
  <ele>-25.243</ele>
  <time>2026-09-02T22:11:32Z</time>
  <course>19.93</course>
  <speed>0.9762171889492625</speed>
  <fix>3d</fix>
</trkpt>
<trkpt lat="33.8107242" lon="-118.3937628">
  <ele>-25.244</ele>
  <time>2026-09-02T22:11:32Z</time>
  <course>19.93</course>
  <speed>0.9762171889492625</speed>
  <fix>3d</fix>
</trkpt>
<trkpt lat="33.8107243" lon="-118.3937627">
  <ele>-25.244</ele>
  <time>2026-09-02T22:11:32Z</time>
  <course>19.93</course>
  <speed>0.9693812459502195</speed>
  <fix>3d</fix>
</trkpt>
<trkpt lat="33.8107243" lon="-118.3937627">
  <ele>-25.244</ele>
  <time>2026-09-02T22:11:32Z</time>
  <course>19.93</course>
  <speed>0.9693812459502195</speed>
  <fix>3d</fix>
</trkpt>
<trkpt lat="33.8107244" lon="-118.3937626">
  <ele>-25.244</ele>
  <time>2026-09-02T22:11:32Z</time>
  <course>19.93</course>
  <speed>0.9693812459502195</speed>
  <fix>3d</fix>
</trkpt>
<trkpt lat="33.8107244" lon="-118.3937626">
  <ele>-25.245</ele>
  <time>2026-09-02T22:11:32Z</time>
  <course>19.93</course>
  <speed>0.9693812459502195</speed>
  <fix>3d</fix>
</trkpt>
<trkpt lat="33.8107245" lon="-118.3937625">
  <ele>-25.245</ele>
  <time>2026-09-02T22:11:32Z</time>
  <course>19.93</course>
  <speed>0.9693812459502195</speed>
  <fix>3d</fix>
</trkpt>
<trkpt lat="33.8107245" lon="-118.3937624">
  <ele>-25.245</ele>
  <time>2026-09-02T22:11:32Z</time>
  <course>19.93</course>
  <speed>0.9693812459502195</speed>
  <fix>3d</fix>
</trkpt>
<trkpt lat="33.8107246" lon="-118.3937624">
  <ele>-25.245</ele>
  <time>2026-09-02T22:11:32Z</time>
  <course>19.93</course>
  <speed>0.9693812459502195</speed>
  <fix>3d</fix>
</trkpt>
<trkpt lat="33.8107246" lon="-118.3937623">
  <ele>-25.246</ele>
  <time>2026-09-02T22:11:32Z</time>
  <course>19.93</course>
  <speed>0.9693812459502195</speed>
  <fix>3d</fix>
</trkpt>
<trkpt lat="33.8107247" lon="-118.3937623">
  <ele>-25.246</ele>
  <time>2026-09-02T22:11:32Z</time>
  <course>19.93</course>
  <speed>0.9693812459502195</speed>
  <fix>3d</fix>
</trkpt>
<trkpt lat="33.8107247" lon="-118.3937622">
  <ele>-25.246</ele>
  <time>2026-09-02T22:11:32Z</time>
  <course>19.93</course>
  <speed>0.9693812459502195</speed>
  <fix>3d</fix>
</trkpt>
<trkpt lat="33.8107248" lon="-118.3937622">
  <ele>-25.246</ele>
  <time>2026-09-02T22:11:32Z</time>
  <course>19.93</course>
  <speed>0.9693812459502195</speed>
  <fix>3d</fix>
</trkpt>
<trkpt lat="33.8107248" lon="-118.3937621">
  <ele>-25.246</ele>
  <time>2026-09-02T22:11:32Z</time>
  <course>19.93</course>
  <speed>0.9693812459502195</speed>
  <fix>3d</fix>
</trkpt>
<trkpt lat="33.8107248" lon="-118.3937621">
  <ele>-25.246</ele>
  <time>2026-09-02T22:11:32Z</time>
  <course>19.93</course>
  <speed>0.9693812459502195</speed>
  <fix>3d</fix>
</trkpt>
<trkpt lat="33.8107236" lon="-118.393764">
  <ele>-24.63</ele>
  <time>2026-09-02T22:11:32Z</time>
  <course>44.75</course>
  <speed>0.98</speed>
  <fix>3d</fix>
</trkpt>
<trkpt lat="33.8107249" lon="-118.393762">
  <ele>-25.247</ele>
  <time>2026-09-02T22:11:32Z</time>
  <course>19.93</course>
  <speed>0.9693812459502195</speed>
  <fix>3d</fix>
</trkpt>
<trkpt lat="33.8107249" lon="-118.3937619">
  <ele>-25.247</ele>
  <time>2026-09-02T22:11:32Z</time>
  <course>19.93</course>
  <speed>0.9693812459502195</speed>
  <fix>3d</fix>
</trkpt>
<trkpt lat="33.810725" lon="-118.3937619">
  <ele>-25.247</ele>
  <time>2026-09-02T22:11:32Z</time>
  <course>19.93</course>
  <speed>0.9693812459502195</speed>
  <fix>3d</fix>
</trkpt>
<trkpt lat="33.810725" lon="-118.3937618">
  <ele>-25.247</ele>
  <time>2026-09-02T22:11:32Z</time>
  <course>19.93</course>
  <speed>0.9693812459502195</speed>
  <fix>3d</fix>
</trkpt>
<trkpt lat="33.8107251" lon="-118.3937618">
  <ele>-25.247</ele>
  <time>2026-09-02T22:11:32Z</time>
  <course>19.93</course>
  <speed>0.9762171889492625</speed>
  <fix>3d</fix>
</trkpt>
<trkpt lat="33.8107251" lon="-118.3937617">
  <ele>-25.248</ele>
  <time>2026-09-02T22:11:32Z</time>
  <course>19.93</course>
  <speed>0.9762171889492625</speed>
  <fix>3d</fix>
</trkpt>
<trkpt lat="33.8107252" lon="-118.3937616">
  <ele>-25.248</ele>
  <time>2026-09-02T22:11:32Z</time>
  <course>19.93</course>
  <speed>0.9762171889492625</speed>
  <fix>3d</fix>
</trkpt>
<trkpt lat="33.8107252" lon="-118.3937616">
  <ele>-25.248</ele>
  <time>2026-09-02T22:11:32Z</time>
  <course>19.93</course>
  <speed>0.9762171889492625</speed>
  <fix>3d</fix>
</trkpt>
<trkpt lat="33.8107253" lon="-118.3937615">
  <ele>-25.248</ele>
  <time>2026-09-02T22:11:32Z</time>
  <course>19.93</course>
  <speed>0.9762171889492625</speed>
  <fix>3d</fix>
</trkpt>
<trkpt lat="33.8107253" lon="-118.3937615">
  <ele>-25.249</ele>
  <time>2026-09-02T22:11:32Z</time>
  <course>19.93</course>
  <speed>0.9762171889492625</speed>
  <fix>3d</fix>
</trkpt>
<trkpt lat="33.8107254" lon="-118.3937614">
  <ele>-25.249</ele>
  <time>2026-09-02T22:11:32Z</time>
  <course>19.93</course>
  <speed>0.9762171889492625</speed>
  <fix>3d</fix>
</trkpt>
<trkpt lat="33.8107254" lon="-118.3937614">
  <ele>-25.249</ele>
  <time>2026-09-02T22:11:32Z</time>
  <course>19.92</course>
  <speed>0.9762171889492625</speed>
  <fix>3d</fix>
</trkpt>
<trkpt lat="33.8107254" lon="-118.3937613">
  <ele>-25.249</ele>
  <time>2026-09-02T22:11:32Z</time>
  <course>19.92</course>
  <speed>0.9762171889492625</speed>
  <fix>3d</fix>
</trkpt>
<trkpt lat="33.8107249" lon="-118.3937625">
  <ele>-24.63</ele>
  <time>2026-09-02T22:11:32Z</time>
  <course>44.69</course>
  <speed>0.98</speed>
  <fix>3d</fix>
</trkpt>
<trkpt lat="33.8107254" lon="-118.3937613">
  <ele>-25.249</ele>
  <time>2026-09-02T22:11:32Z</time>
  <course>19.92</course>
  <speed>0.9762171889492625</speed>
  <fix>3d</fix>
</trkpt>
<trkpt lat="33.8107255" lon="-118.3937613">
  <ele>-25.25</ele>
  <time>2026-09-02T22:11:32Z</time>
  <course>19.92</course>
  <speed>0.9762171889492625</speed>
  <fix>3d</fix>
</trkpt>
<trkpt lat="33.8107256" lon="-118.3937612">
  <ele>-25.25</ele>
  <time>2026-09-02T22:11:32Z</time>
  <course>19.92</course>
  <speed>0.9693812459502195</speed>
  <fix>3d</fix>
</trkpt>
<trkpt lat="33.8107256" lon="-118.3937611">
  <ele>-25.25</ele>
  <time>2026-09-02T22:11:32Z</time>
  <course>19.92</course>
  <speed>0.9693812459502195</speed>
  <fix>3d</fix>
</trkpt>
<trkpt lat="33.8107257" lon="-118.3937611">
  <ele>-25.251</ele>
  <time>2026-09-02T22:11:32Z</time>
  <course>19.93</course>
  <speed>0.9693812459502195</speed>
  <fix>3d</fix>
</trkpt>
<trkpt lat="33.8107257" lon="-118.393761">
  <ele>-25.251</ele>
  <time>2026-09-02T22:11:32Z</time>
  <course>19.93</course>
  <speed>0.9693812459502195</speed>
  <fix>3d</fix>
</trkpt>
<trkpt lat="33.8107258" lon="-118.393761">
  <ele>-25.251</ele>
  <time>2026-09-02T22:11:32Z</time>
  <course>19.93</course>
  <speed>0.9693812459502195</speed>
  <fix>3d</fix>
</trkpt>
<trkpt lat="33.8107258" lon="-118.3937609">
  <ele>-25.251</ele>
  <time>2026-09-02T22:11:32Z</time>
  <course>19.93</course>
  <speed>0.9693812459502195</speed>
  <fix>3d</fix>
</trkpt>
<trkpt lat="33.8107258" lon="-118.3937609">
  <ele>-25.251</ele>
  <time>2026-09-02T22:11:32Z</time>
  <course>19.93</course>
  <speed>0.9693812459502195</speed>
  <fix>3d</fix>
</trkpt>
<trkpt lat="33.8107259" lon="-118.3937608">
  <ele>-25.252</ele>
  <time>2026-09-02T22:11:32Z</time>
  <course>19.93</course>
  <speed>0.9693812459502195</speed>
  <fix>3d</fix>
</trkpt>
<trkpt lat="33.8107259" lon="-118.3937607">
  <ele>-25.252</ele>
  <time>2026-09-02T22:11:32Z</time>
  <course>19.93</course>
  <speed>0.9693812459502195</speed>
  <fix>3d</fix>
</trkpt>
<trkpt lat="33.810726" lon="-118.3937607">
  <ele>-25.252</ele>
  <time>2026-09-02T22:11:32Z</time>
  <course>19.93</course>
  <speed>0.9693812459502195</speed>
  <fix>3d</fix>
</trkpt>
<trkpt lat="33.810726" lon="-118.3937606">
  <ele>-25.252</ele>
  <time>2026-09-02T22:11:32Z</time>
  <course>19.93</course>
  <speed>0.9693812459502195</speed>
  <fix>3d</fix>
</trkpt>
<trkpt lat="33.8107261" lon="-118.3937606">
  <ele>-25.252</ele>
  <time>2026-09-02T22:11:32Z</time>
  <course>19.93</course>
  <speed>0.9693812459502195</speed>
  <fix>3d</fix>
</trkpt>
<trkpt lat="33.8107249" lon="-118.3937625">
  <ele>-24.63</ele>
  <time>2026-09-02T22:11:32Z</time>
  <course>44.69</course>
  <speed>0.98</speed>
  <fix>3d</fix>
</trkpt>
<trkpt lat="33.8107261" lon="-118.3937606">
  <ele>-25.252</ele>
  <time>2026-09-02T22:11:32Z</time>
  <course>19.93</course>
  <speed>0.9693812459502195</speed>
  <fix>3d</fix>
</trkpt>
<trkpt lat="33.8107261" lon="-118.3937605">
  <ele>-25.253</ele>
  <time>2026-09-02T22:11:32Z</time>
  <course>19.93</course>
  <speed>0.9693812459502195</speed>
  <fix>3d</fix>
</trkpt>
<trkpt lat="33.8107262" lon="-118.3937604">
  <ele>-25.253</ele>
  <time>2026-09-02T22:11:32Z</time>
  <course>19.93</course>
  <speed>0.9693812459502195</speed>
  <fix>3d</fix>
</trkpt>
<trkpt lat="33.8107262" lon="-118.3937604">
  <ele>-25.253</ele>
  <time>2026-09-02T22:11:32Z</time>
  <course>19.93</course>
  <speed>0.9693812459502195</speed>
  <fix>3d</fix>
</trkpt>
<trkpt lat="33.8107263" lon="-118.3937603">
  <ele>-25.253</ele>
  <time>2026-09-02T22:11:32Z</time>
  <course>19.93</course>
  <speed>0.9693812459502195</speed>
  <fix>3d</fix>
</trkpt>
<trkpt lat="33.8107263" lon="-118.3937603">
  <ele>-25.253</ele>
  <time>2026-09-02T22:11:32Z</time>
  <course>19.93</course>
  <speed>0.9693812459502195</speed>
  <fix>3d</fix>
</trkpt>
<trkpt lat="33.8107264" lon="-118.3937602">
  <ele>-25.253</ele>
  <time>2026-09-02T22:11:32Z</time>
  <course>19.93</course>
  <speed>0.9693812459502195</speed>
  <fix>3d</fix>
</trkpt>
<trkpt lat="33.8107264" lon="-118.3937602">
  <ele>-25.254</ele>
  <time>2026-09-02T22:11:32Z</time>
  <course>19.93</course>
  <speed>0.9693812459502195</speed>
  <fix>3d</fix>
</trkpt>
<trkpt lat="33.8107265" lon="-118.3937601">
  <ele>-25.254</ele>
  <time>2026-09-02T22:11:32Z</time>
  <course>19.93</course>
  <speed>0.9693812459502195</speed>
  <fix>3d</fix>
</trkpt>
<trkpt lat="33.8107265" lon="-118.39376">
  <ele>-25.254</ele>
  <time>2026-09-02T22:11:32Z</time>
  <course>19.93</course>
  <speed>0.9762171889492625</speed>
  <fix>3d</fix>
</trkpt>
<trkpt lat="33.8107266" lon="-118.39376">
  <ele>-25.254</ele>
  <time>2026-09-02T22:11:32Z</time>
  <course>19.93</course>
  <speed>0.9693812459502195</speed>
  <fix>3d</fix>
</trkpt>
<trkpt lat="33.8107266" lon="-118.3937599">
  <ele>-25.254</ele>
  <time>2026-09-02T22:11:32Z</time>
  <course>19.93</course>
  <speed>0.9693812459502195</speed>
  <fix>3d</fix>
</trkpt>
<trkpt lat="33.8107267" lon="-118.3937599">
  <ele>-25.254</ele>
  <time>2026-09-02T22:11:32Z</time>
  <course>19.93</course>
  <speed>0.9693812459502195</speed>
  <fix>3d</fix>
</trkpt>
<trkpt lat="33.8107267" lon="-118.3937598">
  <ele>-25.255</ele>
  <time>2026-09-02T22:11:32Z</time>
  <course>19.93</course>
  <speed>0.9693812459502195</speed>
  <fix>3d</fix>
</trkpt>
<trkpt lat="33.8107262" lon="-118.393761">
  <ele>-24.64</ele>
  <time>2026-09-02T22:11:32Z</time>
  <course>44.7</course>
  <speed>0.98</speed>
  <fix>3d</fix>
</trkpt>
<trkpt lat="33.8107267" lon="-118.3937598">
  <ele>-25.255</ele>
  <time>2026-09-02T22:11:32Z</time>
  <course>19.93</course>
  <speed>0.9693812459502195</speed>
  <fix>3d</fix>
</trkpt>
<trkpt lat="33.8107268" lon="-118.3937597">
  <ele>-25.255</ele>
  <time>2026-09-02T22:11:32Z</time>
  <course>19.93</course>
  <speed>0.9693812459502195</speed>
  <fix>3d</fix>
</trkpt>
<trkpt lat="33.8107268" lon="-118.3937597">
  <ele>-25.255</ele>
  <time>2026-09-02T22:11:32Z</time>
  <course>19.93</course>
  <speed>0.9693812459502195</speed>
  <fix>3d</fix>
</trkpt>
<trkpt lat="33.8107269" lon="-118.3937596">
  <ele>-25.255</ele>
  <time>2026-09-02T22:11:32Z</time>
  <course>19.92</course>
  <speed>0.9693812459502195</speed>
  <fix>3d</fix>
</trkpt>
<trkpt lat="33.8107269" lon="-118.3937596">
  <ele>-25.255</ele>
  <time>2026-09-02T22:11:32Z</time>
  <course>19.92</course>
  <speed>0.9693812459502195</speed>
  <fix>3d</fix>
</trkpt>
<trkpt lat="33.810727" lon="-118.3937595">
  <ele>-25.256</ele>
  <time>2026-09-02T22:11:32Z</time>
  <course>19.92</course>
  <speed>0.9693812459502195</speed>
  <fix>3d</fix>
</trkpt>
<trkpt lat="33.810727" lon="-118.3937594">
  <ele>-25.256</ele>
  <time>2026-09-02T22:11:32Z</time>
  <course>19.92</course>
  <speed>0.9693812459502195</speed>
  <fix>3d</fix>
</trkpt>
<trkpt lat="33.8107271" lon="-118.3937594">
  <ele>-25.256</ele>
  <time>2026-09-02T22:11:32Z</time>
  <course>19.92</course>
  <speed>0.9693812459502195</speed>
  <fix>3d</fix>
</trkpt>
<trkpt lat="33.8107271" lon="-118.3937593">
  <ele>-25.256</ele>
  <time>2026-09-02T22:11:32Z</time>
  <course>19.92</course>
  <speed>0.9693812459502195</speed>
  <fix>3d</fix>
</trkpt>
<trkpt lat="33.8107272" lon="-118.3937593">
  <ele>-25.256</ele>
  <time>2026-09-02T22:11:32Z</time>
  <course>19.92</course>
  <speed>0.9693812459502195</speed>
  <fix>3d</fix>
</trkpt>
<trkpt lat="33.8107272" lon="-118.3937592">
  <ele>-25.256</ele>
  <time>2026-09-02T22:11:32Z</time>
  <course>19.92</course>
  <speed>0.9693812459502195</speed>
  <fix>3d</fix>
</trkpt>
<trkpt lat="33.8107273" lon="-118.3937592">
  <ele>-25.256</ele>
  <time>2026-09-02T22:11:32Z</time>
  <course>19.92</course>
  <speed>0.9693812459502195</speed>
  <fix>3d</fix>
</trkpt>
<trkpt lat="33.8107273" lon="-118.3937591">
  <ele>-25.256</ele>
  <time>2026-09-02T22:11:32Z</time>
  <course>19.92</course>
  <speed>0.9693812459502195</speed>
  <fix>3d</fix>
</trkpt>
<trkpt lat="33.8107273" lon="-118.3937591">
  <ele>-25.256</ele>
  <time>2026-09-02T22:11:32Z</time>
  <course>19.92</course>
  <speed>0.9693812459502195</speed>
  <fix>3d</fix>
</trkpt>
<trkpt lat="33.8107262" lon="-118.393761">
  <ele>-24.64</ele>
  <time>2026-09-02T22:11:32Z</time>
  <course>44.7</course>
  <speed>0.98</speed>
  <fix>3d</fix>
</trkpt>
<trkpt lat="33.8107273" lon="-118.3937591">
  <ele>-25.256</ele>
  <time>2026-09-02T22:11:32Z</time>
  <course>19.92</course>
  <speed>0.9693812459502195</speed>
  <fix>3d</fix>
</trkpt>
<trkpt lat="33.8107274" lon="-118.393759">
  <ele>-25.256</ele>
  <time>2026-09-02T22:11:32Z</time>
  <course>19.92</course>
  <speed>0.9693812459502195</speed>
  <fix>3d</fix>
</trkpt>
<trkpt lat="33.8107275" lon="-118.3937589">
  <ele>-25.257</ele>
  <time>2026-09-02T22:11:32Z</time>
  <course>19.92</course>
  <speed>0.9693812459502195</speed>
  <fix>3d</fix>
</trkpt>
<trkpt lat="33.8107276" lon="-118.3937588">
  <ele>-25.257</ele>
  <time>2026-09-02T22:11:32Z</time>
  <course>19.93</course>
  <speed>0.9693812459502195</speed>
  <fix>3d</fix>
</trkpt>
<trkpt lat="33.8107276" lon="-118.3937587">
  <ele>-25.257</ele>
  <time>2026-09-02T22:11:32Z</time>
  <course>19.93</course>
  <speed>0.9693812459502195</speed>
  <fix>3d</fix>
</trkpt>
<trkpt lat="33.8107277" lon="-118.3937587">
  <ele>-25.257</ele>
  <time>2026-09-02T22:11:32Z</time>
  <course>19.93</course>
  <speed>0.9693812459502195</speed>
  <fix>3d</fix>
</trkpt>
<trkpt lat="33.8107277" lon="-118.3937586">
  <ele>-25.257</ele>
  <time>2026-09-02T22:11:32Z</time>
  <course>19.93</course>
  <speed>0.9693812459502195</speed>
  <fix>3d</fix>
</trkpt>
<trkpt lat="33.8107277" lon="-118.3937586">
  <ele>-25.257</ele>
  <time>2026-09-02T22:11:32Z</time>
  <course>19.93</course>
  <speed>0.9693812459502195</speed>
  <fix>3d</fix>
</trkpt>
<trkpt lat="33.8107278" lon="-118.3937585">
  <ele>-25.257</ele>
  <time>2026-09-02T22:11:32Z</time>
  <course>19.92</course>
  <speed>0.9693812459502195</speed>
  <fix>3d</fix>
</trkpt>
<trkpt lat="33.810728" lon="-118.3937583">
  <ele>-25.258</ele>
  <time>2026-09-02T22:11:32Z</time>
  <course>19.93</course>
  <speed>0.9693812459502195</speed>
  <fix>3d</fix>
</trkpt>
<trkpt lat="33.810728" lon="-118.3937583">
  <ele>-25.258</ele>
  <time>2026-09-02T22:11:32Z</time>
  <course>19.93</course>
  <speed>0.9693812459502195</speed>
  <fix>3d</fix>
</trkpt>
<trkpt lat="33.8107274" lon="-118.3937595">
  <ele>-24.65</ele>
  <time>2026-09-02T22:11:32Z</time>
  <course>44.75</course>
  <speed>0.98</speed>
  <fix>3d</fix>
</trkpt>
<trkpt lat="33.8107281" lon="-118.3937582">
  <ele>-25.258</ele>
  <time>2026-09-02T22:11:32Z</time>
  <course>19.93</course>
  <speed>0.9693812459502195</speed>
  <fix>3d</fix>
</trkpt>
<trkpt lat="33.8107281" lon="-118.3937582">
  <ele>-25.258</ele>
  <time>2026-09-02T22:11:32Z</time>
  <course>19.93</course>
  <speed>0.9693812459502195</speed>
  <fix>3d</fix>
</trkpt>
<trkpt lat="33.8107281" lon="-118.3937581">
  <ele>-25.258</ele>
  <time>2026-09-02T22:11:32Z</time>
  <course>19.93</course>
  <speed>0.9693812459502195</speed>
  <fix>3d</fix>
</trkpt>
<trkpt lat="33.8107282" lon="-118.393758">
  <ele>-25.258</ele>
  <time>2026-09-02T22:11:32Z</time>
  <course>19.93</course>
  <speed>0.9693812459502195</speed>
  <fix>3d</fix>
</trkpt>
<trkpt lat="33.8107282" lon="-118.393758">
  <ele>-25.258</ele>
  <time>2026-09-02T22:11:32Z</time>
  <course>19.93</course>
  <speed>0.9693812459502195</speed>
  <fix>3d</fix>
</trkpt>
<trkpt lat="33.8107283" lon="-118.3937579">
  <ele>-25.259</ele>
  <time>2026-09-02T22:11:32Z</time>
  <course>19.93</course>
  <speed>0.9693812459502195</speed>
  <fix>3d</fix>
</trkpt>
<trkpt lat="33.8107283" lon="-118.3937579">
  <ele>-25.259</ele>
  <time>2026-09-02T22:11:32Z</time>
  <course>19.93</course>
  <speed>0.9693812459502195</speed>
  <fix>3d</fix>
</trkpt>
<trkpt lat="33.8107284" lon="-118.3937578">
  <ele>-25.259</ele>
  <time>2026-09-02T22:11:32Z</time>
  <course>19.93</course>
  <speed>0.9693812459502195</speed>
  <fix>3d</fix>
</trkpt>
<trkpt lat="33.8107284" lon="-118.3937578">
  <ele>-25.259</ele>
  <time>2026-09-02T22:11:32Z</time>
  <course>19.93</course>
  <speed>0.9693812459502195</speed>
  <fix>3d</fix>
</trkpt>
<trkpt lat="33.8107285" lon="-118.3937577">
  <ele>-25.259</ele>
  <time>2026-09-02T22:11:32Z</time>
  <course>19.93</course>
  <speed>0.9693812459502195</speed>
  <fix>3d</fix>
</trkpt>
<trkpt lat="33.8107285" lon="-118.3937577">
  <ele>-25.259</ele>
  <time>2026-09-02T22:11:32Z</time>
  <course>19.93</course>
  <speed>0.9693812459502195</speed>
  <fix>3d</fix>
</trkpt>
<trkpt lat="33.8107286" lon="-118.3937576">
  <ele>-25.259</ele>
  <time>2026-09-02T22:11:32Z</time>
  <course>19.93</course>
  <speed>0.9693812459502195</speed>
  <fix>3d</fix>
</trkpt>
<trkpt lat="33.8107286" lon="-118.3937576">
  <ele>-25.259</ele>
  <time>2026-09-02T22:11:32Z</time>
  <course>19.93</course>
  <speed>0.9693812459502195</speed>
  <fix>3d</fix>
</trkpt>
<trkpt lat="33.8107274" lon="-118.3937595">
  <ele>-24.65</ele>
  <time>2026-09-02T22:11:32Z</time>
  <course>44.75</course>
  <speed>0.98</speed>
  <fix>3d</fix>
</trkpt>
<trkpt lat="33.8107286" lon="-118.3937576">
  <ele>-25.259</ele>
  <time>2026-09-02T22:11:32Z</time>
  <course>19.93</course>
  <speed>0.9693812459502195</speed>
  <fix>3d</fix>
</trkpt>
<trkpt lat="33.8107287" lon="-118.3937575">
  <ele>-25.259</ele>
  <time>2026-09-02T22:11:32Z</time>
  <course>19.93</course>
  <speed>0.9693812459502195</speed>
  <fix>3d</fix>
</trkpt>
<trkpt lat="33.8107287" lon="-118.3937574">
  <ele>-25.26</ele>
  <time>2026-09-02T22:11:32Z</time>
  <course>19.93</course>
  <speed>0.9693812459502195</speed>
  <fix>3d</fix>
</trkpt>
<trkpt lat="33.8107288" lon="-118.3937574">
  <ele>-25.26</ele>
  <time>2026-09-02T22:11:32Z</time>
  <course>19.93</course>
  <speed>0.9693812459502195</speed>
  <fix>3d</fix>
</trkpt>
<trkpt lat="33.8107288" lon="-118.3937573">
  <ele>-25.26</ele>
  <time>2026-09-02T22:11:32Z</time>
  <course>19.93</course>
  <speed>0.9693812459502195</speed>
  <fix>3d</fix>
</trkpt>
<trkpt lat="33.8107289" lon="-118.3937572">
  <ele>-25.26</ele>
  <time>2026-09-02T22:11:32Z</time>
  <course>19.93</course>
  <speed>0.9693812459502195</speed>
  <fix>3d</fix>
</trkpt>
<trkpt lat="33.8107289" lon="-118.3937572">
  <ele>-25.26</ele>
  <time>2026-09-02T22:11:32Z</time>
  <course>19.93</course>
  <speed>0.9693812459502195</speed>
  <fix>3d</fix>
</trkpt>
<trkpt lat="33.810729" lon="-118.3937571">
  <ele>-25.26</ele>
  <time>2026-09-02T22:11:32Z</time>
  <course>19.93</course>
  <speed>0.9693812459502195</speed>
  <fix>3d</fix>
</trkpt>
<trkpt lat="33.810729" lon="-118.3937571">
  <ele>-25.26</ele>
  <time>2026-09-02T22:11:32Z</time>
  <course>19.93</course>
  <speed>0.9693812459502195</speed>
  <fix>3d</fix>
</trkpt>
<trkpt lat="33.8107291" lon="-118.393757">
  <ele>-25.261</ele>
  <time>2026-09-02T22:11:32Z</time>
  <course>19.93</course>
  <speed>0.9693812459502195</speed>
  <fix>3d</fix>
</trkpt>
<trkpt lat="33.8107291" lon="-118.393757">
  <ele>-25.261</ele>
  <time>2026-09-02T22:11:32Z</time>
  <course>19.93</course>
  <speed>0.9693812459502195</speed>
  <fix>3d</fix>
</trkpt>
<trkpt lat="33.8107292" lon="-118.3937569">
  <ele>-25.261</ele>
  <time>2026-09-02T22:11:32Z</time>
  <course>19.93</course>
  <speed>0.9693812459502195</speed>
  <fix>3d</fix>
</trkpt>
<trkpt lat="33.8107292" lon="-118.3937568">
  <ele>-25.262</ele>
  <time>2026-09-02T22:11:32Z</time>
  <course>19.93</course>
  <speed>0.9693812459502195</speed>
  <fix>3d</fix>
</trkpt>
<trkpt lat="33.8107292" lon="-118.3937568">
  <ele>-25.262</ele>
  <time>2026-09-02T22:11:32Z</time>
  <course>19.93</course>
  <speed>0.9693812459502195</speed>
  <fix>3d</fix>
</trkpt>
<trkpt lat="33.8107287" lon="-118.393758">
  <ele>-24.65</ele>
  <time>2026-09-02T22:11:32Z</time>
  <course>44.81</course>
  <speed>0.98</speed>
  <fix>3d</fix>
</trkpt>
<trkpt lat="33.8107292" lon="-118.3937568">
  <ele>-25.262</ele>
  <time>2026-09-02T22:11:32Z</time>
  <course>19.93</course>
  <speed>0.9693812459502195</speed>
  <fix>3d</fix>
</trkpt>
<trkpt lat="33.8107293" lon="-118.3937567">
  <ele>-25.262</ele>
  <time>2026-09-02T22:11:32Z</time>
  <course>19.93</course>
  <speed>0.9693812459502195</speed>
  <fix>3d</fix>
</trkpt>
<trkpt lat="33.8107294" lon="-118.3937566">
  <ele>-25.262</ele>
  <time>2026-09-02T22:11:32Z</time>
  <course>19.93</course>
  <speed>0.9693812459502195</speed>
  <fix>3d</fix>
</trkpt>
<trkpt lat="33.8107294" lon="-118.3937566">
  <ele>-25.262</ele>
  <time>2026-09-02T22:11:32Z</time>
  <course>19.93</course>
  <speed>0.9693812459502195</speed>
  <fix>3d</fix>
</trkpt>
<trkpt lat="33.8107295" lon="-118.3937565">
  <ele>-25.263</ele>
  <time>2026-09-02T22:11:32Z</time>
  <course>19.93</course>
  <speed>0.9693812459502195</speed>
  <fix>3d</fix>
</trkpt>
<trkpt lat="33.8107295" lon="-118.3937565">
  <ele>-25.263</ele>
  <time>2026-09-02T22:11:32Z</time>
  <course>19.93</course>
  <speed>0.9693812459502195</speed>
  <fix>3d</fix>
</trkpt>
<trkpt lat="33.8107296" lon="-118.3937564">
  <ele>-25.263</ele>
  <time>2026-09-02T22:11:32Z</time>
  <course>19.93</course>
  <speed>0.9693812459502195</speed>
  <fix>3d</fix>
</trkpt>
<trkpt lat="33.8107296" lon="-118.3937564">
  <ele>-25.263</ele>
  <time>2026-09-02T22:11:32Z</time>
  <course>19.93</course>
  <speed>0.9693812459502195</speed>
  <fix>3d</fix>
</trkpt>
<trkpt lat="33.8107297" lon="-118.3937563">
  <ele>-25.263</ele>
  <time>2026-09-02T22:11:32Z</time>
  <course>19.93</course>
  <speed>0.9693812459502195</speed>
  <fix>3d</fix>
</trkpt>
<trkpt lat="33.8107297" lon="-118.3937562">
  <ele>-25.264</ele>
  <time>2026-09-02T22:11:32Z</time>
  <course>19.93</course>
  <speed>0.9693812459502195</speed>
  <fix>3d</fix>
</trkpt>
<trkpt lat="33.8107298" lon="-118.3937562">
  <ele>-25.264</ele>
  <time>2026-09-02T22:11:32Z</time>
  <course>19.93</course>
  <speed>0.9693812459502195</speed>
  <fix>3d</fix>
</trkpt>
<trkpt lat="33.8107298" lon="-118.3937561">
  <ele>-25.264</ele>
  <time>2026-09-02T22:11:32Z</time>
  <course>19.93</course>
  <speed>0.9693812459502195</speed>
  <fix>3d</fix>
</trkpt>
<trkpt lat="33.8107298" lon="-118.3937561">
  <ele>-25.264</ele>
  <time>2026-09-02T22:11:32Z</time>
  <course>19.93</course>
  <speed>0.9693812459502195</speed>
  <fix>3d</fix>
</trkpt>
<trkpt lat="33.8107298" lon="-118.3937561">
  <ele>-25.264</ele>
  <time>2026-09-02T22:11:32Z</time>
  <course>19.93</course>
  <speed>0.9693812459502195</speed>
  <fix>3d</fix>
</trkpt>
<trkpt lat="33.8107287" lon="-118.393758">
  <ele>-24.65</ele>
  <time>2026-09-02T22:11:32Z</time>
  <course>44.81</course>
  <speed>0.98</speed>
  <fix>3d</fix>
</trkpt>
<trkpt lat="33.8107299" lon="-118.393756">
  <ele>-25.265</ele>
  <time>2026-09-02T22:11:32Z</time>
  <course>19.93</course>
  <speed>0.9693812459502195</speed>
  <fix>3d</fix>
</trkpt>
<trkpt lat="33.81073" lon="-118.3937559">
  <ele>-25.265</ele>
  <time>2026-09-02T22:11:32Z</time>
  <course>19.93</course>
  <speed>0.9693812459502195</speed>
  <fix>3d</fix>
</trkpt>
<trkpt lat="33.81073" lon="-118.3937558">
  <ele>-25.265</ele>
  <time>2026-09-02T22:11:32Z</time>
  <course>19.93</course>
  <speed>0.9693812459502195</speed>
  <fix>3d</fix>
</trkpt>
<trkpt lat="33.8107301" lon="-118.3937558">
  <ele>-25.265</ele>
  <time>2026-09-02T22:11:32Z</time>
  <course>19.93</course>
  <speed>0.9693812459502195</speed>
  <fix>3d</fix>
</trkpt>
<trkpt lat="33.8107301" lon="-118.3937557">
  <ele>-25.265</ele>
  <time>2026-09-02T22:11:32Z</time>
  <course>19.93</course>
  <speed>0.9693812459502195</speed>
  <fix>3d</fix>
</trkpt>
<trkpt lat="33.8107302" lon="-118.3937557">
  <ele>-25.266</ele>
  <time>2026-09-02T22:11:32Z</time>
  <course>19.93</course>
  <speed>0.9693812459502195</speed>
  <fix>3d</fix>
</trkpt>
<trkpt lat="33.8107302" lon="-118.3937556">
  <ele>-25.266</ele>
  <time>2026-09-02T22:11:32Z</time>
  <course>19.93</course>
  <speed>0.9693812459502195</speed>
  <fix>3d</fix>
</trkpt>
<trkpt lat="33.8107303" lon="-118.3937556">
  <ele>-25.266</ele>
  <time>2026-09-02T22:11:32Z</time>
  <course>19.93</course>
  <speed>0.9693812459502195</speed>
  <fix>3d</fix>
</trkpt>
<trkpt lat="33.8107303" lon="-118.3937555">
  <ele>-25.266</ele>
  <time>2026-09-02T22:11:32Z</time>
  <course>19.93</course>
  <speed>0.9693812459502195</speed>
  <fix>3d</fix>
</trkpt>
<trkpt lat="33.8107304" lon="-118.3937555">
  <ele>-25.266</ele>
  <time>2026-09-02T22:11:32Z</time>
  <course>19.93</course>
  <speed>0.9693812459502195</speed>
  <fix>3d</fix>
</trkpt>
<trkpt lat="33.8107304" lon="-118.3937554">
  <ele>-25.267</ele>
  <time>2026-09-02T22:11:32Z</time>
  <course>19.93</course>
  <speed>0.9693812459502195</speed>
  <fix>3d</fix>
</trkpt>
<trkpt lat="33.8107305" lon="-118.3937553">
  <ele>-25.267</ele>
  <time>2026-09-02T22:11:32Z</time>
  <course>19.93</course>
  <speed>0.9693812459502195</speed>
  <fix>3d</fix>
</trkpt>
<trkpt lat="33.8107305" lon="-118.3937553">
  <ele>-25.267</ele>
  <time>2026-09-02T22:11:32Z</time>
  <course>19.93</course>
  <speed>0.9693812459502195</speed>
  <fix>3d</fix>
</trkpt>
<trkpt lat="33.8107299" lon="-118.3937565">
  <ele>-24.66</ele>
  <time>2026-09-02T22:11:32Z</time>
  <course>44.86</course>
  <speed>0.98</speed>
  <fix>3d</fix>
</trkpt>
<trkpt lat="33.8107305" lon="-118.3937553">
  <ele>-25.267</ele>
  <time>2026-09-02T22:11:32Z</time>
  <course>19.93</course>
  <speed>0.9693812459502195</speed>
  <fix>3d</fix>
</trkpt>
<trkpt lat="33.8107306" lon="-118.3937552">
  <ele>-25.267</ele>
  <time>2026-09-02T22:11:32Z</time>
  <course>19.93</course>
  <speed>0.9693812459502195</speed>
  <fix>3d</fix>
</trkpt>
<trkpt lat="33.8107306" lon="-118.3937551">
  <ele>-25.268</ele>
  <time>2026-09-02T22:11:32Z</time>
  <course>19.93</course>
  <speed>0.9693812459502195</speed>
  <fix>3d</fix>
</trkpt>
<trkpt lat="33.8107307" lon="-118.3937551">
  <ele>-25.268</ele>
  <time>2026-09-02T22:11:32Z</time>
  <course>19.93</course>
  <speed>0.9693812459502195</speed>
  <fix>3d</fix>
</trkpt>
<trkpt lat="33.8107307" lon="-118.393755">
  <ele>-25.268</ele>
  <time>2026-09-02T22:11:32Z</time>
  <course>19.93</course>
  <speed>0.9693812459502195</speed>
  <fix>3d</fix>
</trkpt>
<trkpt lat="33.8107308" lon="-118.393755">
  <ele>-25.268</ele>
  <time>2026-09-02T22:11:32Z</time>
  <course>19.93</course>
  <speed>0.9693812459502195</speed>
  <fix>3d</fix>
</trkpt>
<trkpt lat="33.8107308" lon="-118.3937549">
  <ele>-25.268</ele>
  <time>2026-09-02T22:11:32Z</time>
  <course>19.93</course>
  <speed>0.9693812459502195</speed>
  <fix>3d</fix>
</trkpt>
<trkpt lat="33.8107309" lon="-118.3937549">
  <ele>-25.269</ele>
  <time>2026-09-02T22:11:32Z</time>
  <course>19.93</course>
  <speed>0.9693812459502195</speed>
  <fix>3d</fix>
</trkpt>
<trkpt lat="33.8107309" lon="-118.3937548">
  <ele>-25.269</ele>
  <time>2026-09-02T22:11:32Z</time>
  <course>19.93</course>
  <speed>0.9693812459502195</speed>
  <fix>3d</fix>
</trkpt>
<trkpt lat="33.810731" lon="-118.3937547">
  <ele>-25.269</ele>
  <time>2026-09-02T22:11:32Z</time>
  <course>19.93</course>
  <speed>0.9693812459502195</speed>
  <fix>3d</fix>
</trkpt>
<trkpt lat="33.810731" lon="-118.3937547">
  <ele>-25.269</ele>
  <time>2026-09-02T22:11:32Z</time>
  <course>19.93</course>
  <speed>0.9693812459502195</speed>
  <fix>3d</fix>
</trkpt>
<trkpt lat="33.8107311" lon="-118.3937546">
  <ele>-25.269</ele>
  <time>2026-09-02T22:11:32Z</time>
  <course>19.93</course>
  <speed>0.9693812459502195</speed>
  <fix>3d</fix>
</trkpt>
<trkpt lat="33.8107311" lon="-118.3937546">
  <ele>-25.27</ele>
  <time>2026-09-02T22:11:32Z</time>
  <course>19.93</course>
  <speed>0.9693812459502195</speed>
  <fix>3d</fix>
</trkpt>
<trkpt lat="33.8107311" lon="-118.3937546">
  <ele>-25.27</ele>
  <time>2026-09-02T22:11:32Z</time>
  <course>19.93</course>
  <speed>0.9693812459502195</speed>
  <fix>3d</fix>
</trkpt>
<trkpt lat="33.8107299" lon="-118.3937565">
  <ele>-24.66</ele>
  <time>2026-09-02T22:11:32Z</time>
  <course>44.86</course>
  <speed>0.98</speed>
  <fix>3d</fix>
</trkpt>
<trkpt lat="33.8107312" lon="-118.3937545">
  <ele>-25.27</ele>
  <time>2026-09-02T22:11:32Z</time>
  <course>19.93</course>
  <speed>0.9693812459502195</speed>
  <fix>3d</fix>
</trkpt>
<trkpt lat="33.8107312" lon="-118.3937544">
  <ele>-25.27</ele>
  <time>2026-09-02T22:11:32Z</time>
  <course>19.93</course>
  <speed>0.9693812459502195</speed>
  <fix>3d</fix>
</trkpt>
<trkpt lat="33.8107313" lon="-118.3937543">
  <ele>-25.271</ele>
  <time>2026-09-02T22:11:32Z</time>
  <course>19.93</course>
  <speed>0.9693812459502195</speed>
  <fix>3d</fix>
</trkpt>
<trkpt lat="33.8107313" lon="-118.3937543">
  <ele>-25.271</ele>
  <time>2026-09-02T22:11:32Z</time>
  <course>19.93</course>
  <speed>0.9693812459502195</speed>
  <fix>3d</fix>
</trkpt>
<trkpt lat="33.8107314" lon="-118.3937542">
  <ele>-25.271</ele>
  <time>2026-09-02T22:11:32Z</time>
  <course>19.93</course>
  <speed>0.9693812459502195</speed>
  <fix>3d</fix>
</trkpt>
<trkpt lat="33.8107314" lon="-118.3937542">
  <ele>-25.271</ele>
  <time>2026-09-02T22:11:32Z</time>
  <course>19.93</course>
  <speed>0.9693812459502195</speed>
  <fix>3d</fix>
</trkpt>
<trkpt lat="33.8107315" lon="-118.3937541">
  <ele>-25.272</ele>
  <time>2026-09-02T22:11:32Z</time>
  <course>19.93</course>
  <speed>0.9693812459502195</speed>
  <fix>3d</fix>
</trkpt>
<trkpt lat="33.8107315" lon="-118.3937541">
  <ele>-25.272</ele>
  <time>2026-09-02T22:11:32Z</time>
  <course>19.93</course>
  <speed>0.9693812459502195</speed>
  <fix>3d</fix>
</trkpt>
<trkpt lat="33.8107316" lon="-118.393754">
  <ele>-25.272</ele>
  <time>2026-09-02T22:11:32Z</time>
  <course>19.93</course>
  <speed>0.9693812459502195</speed>
  <fix>3d</fix>
</trkpt>
<trkpt lat="33.8107316" lon="-118.3937539">
  <ele>-25.272</ele>
  <time>2026-09-02T22:11:32Z</time>
  <course>19.93</course>
  <speed>0.9693812459502195</speed>
  <fix>3d</fix>
</trkpt>
<trkpt lat="33.8107317" lon="-118.3937539">
  <ele>-25.273</ele>
  <time>2026-09-02T22:11:32Z</time>
  <course>19.93</course>
  <speed>0.9693812459502195</speed>
  <fix>3d</fix>
</trkpt>
<trkpt lat="33.8107317" lon="-118.3937538">
  <ele>-25.273</ele>
  <time>2026-09-02T22:11:32Z</time>
  <course>19.93</course>
  <speed>0.9693812459502195</speed>
  <fix>3d</fix>
</trkpt>
<trkpt lat="33.8107317" lon="-118.3937538">
  <ele>-25.273</ele>
  <time>2026-09-02T22:11:32Z</time>
  <course>19.93</course>
  <speed>0.9693812459502195</speed>
  <fix>3d</fix>
</trkpt>
<trkpt lat="33.8107312" lon="-118.393755">
  <ele>-24.66</ele>
  <time>2026-09-02T22:11:32Z</time>
  <course>44.91</course>
  <speed>0.98</speed>
  <fix>3d</fix>
</trkpt>
<trkpt lat="33.8107317" lon="-118.3937538">
  <ele>-25.273</ele>
  <time>2026-09-02T22:11:32Z</time>
  <course>19.93</course>
  <speed>0.9693812459502195</speed>
  <fix>3d</fix>
</trkpt>
<trkpt lat="33.8107318" lon="-118.3937537">
  <ele>-25.273</ele>
  <time>2026-09-02T22:11:32Z</time>
  <course>19.94</course>
  <speed>0.9693812459502195</speed>
  <fix>3d</fix>
</trkpt>
<trkpt lat="33.8107319" lon="-118.3937536">
  <ele>-25.274</ele>
  <time>2026-09-02T22:11:32Z</time>
  <course>19.94</course>
  <speed>0.9693812459502195</speed>
  <fix>3d</fix>
</trkpt>
<trkpt lat="33.8107319" lon="-118.3937536">
  <ele>-25.274</ele>
  <time>2026-09-02T22:11:32Z</time>
  <course>19.93</course>
  <speed>0.9693812459502195</speed>
  <fix>3d</fix>
</trkpt>
<trkpt lat="33.810732" lon="-118.3937535">
  <ele>-25.274</ele>
  <time>2026-09-02T22:11:32Z</time>
  <course>19.93</course>
  <speed>0.9693812459502195</speed>
  <fix>3d</fix>
</trkpt>
<trkpt lat="33.810732" lon="-118.3937535">
  <ele>-25.275</ele>
  <time>2026-09-02T22:11:32Z</time>
  <course>19.93</course>
  <speed>0.9693812459502195</speed>
  <fix>3d</fix>
</trkpt>
<trkpt lat="33.8107321" lon="-118.3937534">
  <ele>-25.275</ele>
  <time>2026-09-02T22:11:32Z</time>
  <course>19.94</course>
  <speed>0.9693812459502195</speed>
  <fix>3d</fix>
</trkpt>
<trkpt lat="33.8107321" lon="-118.3937533">
  <ele>-25.275</ele>
  <time>2026-09-02T22:11:32Z</time>
  <course>19.94</course>
  <speed>0.9693812459502195</speed>
  <fix>3d</fix>
</trkpt>
<trkpt lat="33.8107322" lon="-118.3937533">
  <ele>-25.275</ele>
  <time>2026-09-02T22:11:32Z</time>
  <course>19.94</course>
  <speed>0.9693812459502195</speed>
  <fix>3d</fix>
</trkpt>
<trkpt lat="33.8107322" lon="-118.3937532">
  <ele>-25.275</ele>
  <time>2026-09-02T22:11:32Z</time>
  <course>19.94</course>
  <speed>0.9693812459502195</speed>
  <fix>3d</fix>
</trkpt>
<trkpt lat="33.8107323" lon="-118.3937532">
  <ele>-25.276</ele>
  <time>2026-09-02T22:11:32Z</time>
  <course>19.94</course>
  <speed>0.9693812459502195</speed>
  <fix>3d</fix>
</trkpt>
<trkpt lat="33.8107323" lon="-118.3937531">
  <ele>-25.276</ele>
  <time>2026-09-02T22:11:32Z</time>
  <course>19.94</course>
  <speed>0.9693812459502195</speed>
  <fix>3d</fix>
</trkpt>
<trkpt lat="33.8107324" lon="-118.3937531">
  <ele>-25.276</ele>
  <time>2026-09-02T22:11:32Z</time>
  <course>19.94</course>
  <speed>0.9693812459502195</speed>
  <fix>3d</fix>
</trkpt>
<trkpt lat="33.8107324" lon="-118.3937531">
  <ele>-25.276</ele>
  <time>2026-09-02T22:11:32Z</time>
  <course>19.94</course>
  <speed>0.9693812459502195</speed>
  <fix>3d</fix>
</trkpt>
<trkpt lat="33.8107312" lon="-118.393755">
  <ele>-24.66</ele>
  <time>2026-09-02T22:11:32Z</time>
  <course>44.91</course>
  <speed>0.98</speed>
  <fix>3d</fix>
</trkpt>
<trkpt lat="33.8107324" lon="-118.393753">
  <ele>-25.277</ele>
  <time>2026-09-02T22:11:32Z</time>
  <course>19.94</course>
  <speed>0.9693812459502195</speed>
  <fix>3d</fix>
</trkpt>
<trkpt lat="33.8107325" lon="-118.3937529">
  <ele>-25.277</ele>
  <time>2026-09-02T22:11:32Z</time>
  <course>19.94</course>
  <speed>0.9693812459502195</speed>
  <fix>3d</fix>
</trkpt>
<trkpt lat="33.8107325" lon="-118.3937529">
  <ele>-25.277</ele>
  <time>2026-09-02T22:11:32Z</time>
  <course>19.94</course>
  <speed>0.9693812459502195</speed>
  <fix>3d</fix>
</trkpt>
<trkpt lat="33.8107326" lon="-118.3937528">
  <ele>-25.277</ele>
  <time>2026-09-02T22:11:32Z</time>
  <course>19.94</course>
  <speed>0.9693812459502195</speed>
  <fix>3d</fix>
</trkpt>
<trkpt lat="33.8107326" lon="-118.3937527">
  <ele>-25.277</ele>
  <time>2026-09-02T22:11:32Z</time>
  <course>19.94</course>
  <speed>0.9693812459502195</speed>
  <fix>3d</fix>
</trkpt>
<trkpt lat="33.8107327" lon="-118.3937527">
  <ele>-25.278</ele>
  <time>2026-09-02T22:11:32Z</time>
  <course>19.94</course>
  <speed>0.9693812459502195</speed>
  <fix>3d</fix>
</trkpt>
<trkpt lat="33.8107327" lon="-118.3937526">
  <ele>-25.278</ele>
  <time>2026-09-02T22:11:32Z</time>
  <course>19.94</course>
  <speed>0.9693812459502195</speed>
  <fix>3d</fix>
</trkpt>
<trkpt lat="33.8107328" lon="-118.3937526">
  <ele>-25.278</ele>
  <time>2026-09-02T22:11:32Z</time>
  <course>19.94</course>
  <speed>0.9693812459502195</speed>
  <fix>3d</fix>
</trkpt>
<trkpt lat="33.8107328" lon="-118.3937525">
  <ele>-25.279</ele>
  <time>2026-09-02T22:11:32Z</time>
  <course>19.94</course>
  <speed>0.9693812459502195</speed>
  <fix>3d</fix>
</trkpt>
<trkpt lat="33.8107329" lon="-118.3937525">
  <ele>-25.279</ele>
  <time>2026-09-02T22:11:32Z</time>
  <course>19.94</course>
  <speed>0.9693812459502195</speed>
  <fix>3d</fix>
</trkpt>
<trkpt lat="33.8107329" lon="-118.3937524">
  <ele>-25.279</ele>
  <time>2026-09-02T22:11:32Z</time>
  <course>19.94</course>
  <speed>0.9693812459502195</speed>
  <fix>3d</fix>
</trkpt>
<trkpt lat="33.810733" lon="-118.3937524">
  <ele>-25.279</ele>
  <time>2026-09-02T22:11:32Z</time>
  <course>19.94</course>
  <speed>0.9693812459502195</speed>
  <fix>3d</fix>
</trkpt>
<trkpt lat="33.810733" lon="-118.3937523">
  <ele>-25.279</ele>
  <time>2026-09-02T22:11:32Z</time>
  <course>19.94</course>
  <speed>0.9693812459502195</speed>
  <fix>3d</fix>
</trkpt>
<trkpt lat="33.8107325" lon="-118.3937535">
  <ele>-24.66</ele>
  <time>2026-09-02T22:11:32Z</time>
  <course>44.93</course>
  <speed>0.98</speed>
  <fix>3d</fix>
</trkpt>
<trkpt lat="33.810733" lon="-118.3937523">
  <ele>-25.279</ele>
  <time>2026-09-02T22:11:32Z</time>
  <course>19.94</course>
  <speed>0.9693812459502195</speed>
  <fix>3d</fix>
</trkpt>
<trkpt lat="33.8107331" lon="-118.3937522">
  <ele>-25.28</ele>
  <time>2026-09-02T22:11:32Z</time>
  <course>19.94</course>
  <speed>0.9693812459502195</speed>
  <fix>3d</fix>
</trkpt>
<trkpt lat="33.8107331" lon="-118.3937521">
  <ele>-25.28</ele>
  <time>2026-09-02T22:11:32Z</time>
  <course>19.94</course>
  <speed>0.9693812459502195</speed>
  <fix>3d</fix>
</trkpt>
<trkpt lat="33.8107332" lon="-118.3937521">
  <ele>-25.28</ele>
  <time>2026-09-02T22:11:32Z</time>
  <course>19.94</course>
  <speed>0.9693812459502195</speed>
  <fix>3d</fix>
</trkpt>
<trkpt lat="33.8107332" lon="-118.393752">
  <ele>-25.281</ele>
  <time>2026-09-02T22:11:32Z</time>
  <course>19.94</course>
  <speed>0.9693812459502195</speed>
  <fix>3d</fix>
</trkpt>
<trkpt lat="33.8107333" lon="-118.393752">
  <ele>-25.281</ele>
  <time>2026-09-02T22:11:32Z</time>
  <course>19.94</course>
  <speed>0.9693812459502195</speed>
  <fix>3d</fix>
</trkpt>
<trkpt lat="33.8107333" lon="-118.3937519">
  <ele>-25.281</ele>
  <time>2026-09-02T22:11:32Z</time>
  <course>19.94</course>
  <speed>0.9693812459502195</speed>
  <fix>3d</fix>
</trkpt>
<trkpt lat="33.8107334" lon="-118.3937518">
  <ele>-25.281</ele>
  <time>2026-09-02T22:11:32Z</time>
  <course>19.94</course>
  <speed>0.9693812459502195</speed>
  <fix>3d</fix>
</trkpt>
<trkpt lat="33.8107334" lon="-118.3937518">
  <ele>-25.282</ele>
  <time>2026-09-02T22:11:32Z</time>
  <course>19.94</course>
  <speed>0.9693812459502195</speed>
  <fix>3d</fix>
</trkpt>
<trkpt lat="33.8107335" lon="-118.3937517">
  <ele>-25.282</ele>
  <time>2026-09-02T22:11:32Z</time>
  <course>19.94</course>
  <speed>0.9693812459502195</speed>
  <fix>3d</fix>
</trkpt>
<trkpt lat="33.8107335" lon="-118.3937517">
  <ele>-25.282</ele>
  <time>2026-09-02T22:11:32Z</time>
  <course>19.94</course>
  <speed>0.9693812459502195</speed>
  <fix>3d</fix>
</trkpt>
<trkpt lat="33.8107336" lon="-118.3937516">
  <ele>-25.283</ele>
  <time>2026-09-02T22:11:32Z</time>
  <course>19.94</course>
  <speed>0.9693812459502195</speed>
  <fix>3d</fix>
</trkpt>
<trkpt lat="33.8107336" lon="-118.3937516">
  <ele>-25.283</ele>
  <time>2026-09-02T22:11:32Z</time>
  <course>19.94</course>
  <speed>0.9693812459502195</speed>
  <fix>3d</fix>
</trkpt>
<trkpt lat="33.8107336" lon="-118.3937516">
  <ele>-25.283</ele>
  <time>2026-09-02T22:11:32Z</time>
  <course>19.94</course>
  <speed>0.9693812459502195</speed>
  <fix>3d</fix>
</trkpt>
<trkpt lat="33.8107325" lon="-118.3937535">
  <ele>-24.66</ele>
  <time>2026-09-02T22:11:32Z</time>
  <course>44.93</course>
  <speed>0.98</speed>
  <fix>3d</fix>
</trkpt>
<trkpt lat="33.8107337" lon="-118.3937514">
  <ele>-25.283</ele>
  <time>2026-09-02T22:11:32Z</time>
  <course>19.94</course>
  <speed>0.9693812459502195</speed>
  <fix>3d</fix>
</trkpt>
<trkpt lat="33.8107338" lon="-118.3937514">
  <ele>-25.284</ele>
  <time>2026-09-02T22:11:32Z</time>
  <course>19.94</course>
  <speed>0.9693812459502195</speed>
  <fix>3d</fix>
</trkpt>
<trkpt lat="33.8107339" lon="-118.3937513">
  <ele>-25.284</ele>
  <time>2026-09-02T22:11:32Z</time>
  <course>19.94</course>
  <speed>0.9693812459502195</speed>
  <fix>3d</fix>
</trkpt>
<trkpt lat="33.8107339" lon="-118.3937512">
  <ele>-25.284</ele>
  <time>2026-09-02T22:11:32Z</time>
  <course>19.94</course>
  <speed>0.9693812459502195</speed>
  <fix>3d</fix>
</trkpt>
<trkpt lat="33.8107339" lon="-118.3937512">
  <ele>-25.285</ele>
  <time>2026-09-02T22:11:32Z</time>
  <course>19.94</course>
  <speed>0.9693812459502195</speed>
  <fix>3d</fix>
</trkpt>
<trkpt lat="33.810734" lon="-118.3937511">
  <ele>-25.285</ele>
  <time>2026-09-02T22:11:32Z</time>
  <course>19.94</course>
  <speed>0.9693812459502195</speed>
  <fix>3d</fix>
</trkpt>
<trkpt lat="33.810734" lon="-118.3937511">
  <ele>-25.285</ele>
  <time>2026-09-02T22:11:32Z</time>
  <course>19.94</course>
  <speed>0.9693812459502195</speed>
  <fix>3d</fix>
</trkpt>
<trkpt lat="33.8107341" lon="-118.393751">
  <ele>-25.285</ele>
  <time>2026-09-02T22:11:32Z</time>
  <course>19.94</course>
  <speed>0.9693812459502195</speed>
  <fix>3d</fix>
</trkpt>
<trkpt lat="33.8107341" lon="-118.393751">
  <ele>-25.285</ele>
  <time>2026-09-02T22:11:32Z</time>
  <course>19.94</course>
  <speed>0.9693812459502195</speed>
  <fix>3d</fix>
</trkpt>
<trkpt lat="33.8107342" lon="-118.3937509">
  <ele>-25.286</ele>
  <time>2026-09-02T22:11:32Z</time>
  <course>19.94</course>
  <speed>0.9693812459502195</speed>
  <fix>3d</fix>
</trkpt>
<trkpt lat="33.8107342" lon="-118.3937508">
  <ele>-25.286</ele>
  <time>2026-09-02T22:11:32Z</time>
  <course>19.94</course>
  <speed>0.9693812459502195</speed>
  <fix>3d</fix>
</trkpt>
<trkpt lat="33.8107343" lon="-118.3937508">
  <ele>-25.286</ele>
  <time>2026-09-02T22:11:32Z</time>
  <course>19.94</course>
  <speed>0.9693812459502195</speed>
  <fix>3d</fix>
</trkpt>
<trkpt lat="33.8107337" lon="-118.393752">
  <ele>-24.66</ele>
  <time>2026-09-02T22:11:32Z</time>
  <course>44.97</course>
  <speed>0.98</speed>
  <fix>3d</fix>
</trkpt>
<trkpt lat="33.8107343" lon="-118.3937508">
  <ele>-25.286</ele>
  <time>2026-09-02T22:11:32Z</time>
  <course>19.94</course>
  <speed>0.9693812459502195</speed>
  <fix>3d</fix>
</trkpt>
<trkpt lat="33.8107344" lon="-118.3937507">
  <ele>-25.286</ele>
  <time>2026-09-02T22:11:32Z</time>
  <course>19.94</course>
  <speed>0.9693812459502195</speed>
  <fix>3d</fix>
</trkpt>
<trkpt lat="33.8107344" lon="-118.3937506">
  <ele>-25.286</ele>
  <time>2026-09-02T22:11:32Z</time>
  <course>19.94</course>
  <speed>0.9693812459502195</speed>
  <fix>3d</fix>
</trkpt>
<trkpt lat="33.8107345" lon="-118.3937506">
  <ele>-25.287</ele>
  <time>2026-09-02T22:11:32Z</time>
  <course>19.94</course>
  <speed>0.9693812459502195</speed>
  <fix>3d</fix>
</trkpt>
<trkpt lat="33.8107345" lon="-118.3937505">
  <ele>-25.287</ele>
  <time>2026-09-02T22:11:32Z</time>
  <course>19.94</course>
  <speed>0.9693812459502195</speed>
  <fix>3d</fix>
</trkpt>
<trkpt lat="33.8107345" lon="-118.3937505">
  <ele>-25.287</ele>
  <time>2026-09-02T22:11:32Z</time>
  <course>19.94</course>
  <speed>0.9693812459502195</speed>
  <fix>3d</fix>
</trkpt>
<trkpt lat="33.8107346" lon="-118.3937504">
  <ele>-25.287</ele>
  <time>2026-09-02T22:11:32Z</time>
  <course>19.94</course>
  <speed>0.9693812459502195</speed>
  <fix>3d</fix>
</trkpt>
<trkpt lat="33.8107346" lon="-118.3937504">
  <ele>-25.287</ele>
  <time>2026-09-02T22:11:32Z</time>
  <course>19.94</course>
  <speed>0.9693812459502195</speed>
  <fix>3d</fix>
</trkpt>
<trkpt lat="33.8107347" lon="-118.3937503">
  <ele>-25.288</ele>
  <time>2026-09-02T22:11:32Z</time>
  <course>19.94</course>
  <speed>0.9693812459502195</speed>
  <fix>3d</fix>
</trkpt>
<trkpt lat="33.8107347" lon="-118.3937502">
  <ele>-25.288</ele>
  <time>2026-09-02T22:11:32Z</time>
  <course>19.94</course>
  <speed>0.9693812459502195</speed>
  <fix>3d</fix>
</trkpt>
<trkpt lat="33.8107348" lon="-118.3937502">
  <ele>-25.288</ele>
  <time>2026-09-02T22:11:32Z</time>
  <course>19.94</course>
  <speed>0.9693812459502195</speed>
  <fix>3d</fix>
</trkpt>
<trkpt lat="33.8107348" lon="-118.3937501">
  <ele>-25.288</ele>
  <time>2026-09-02T22:11:32Z</time>
  <course>19.94</course>
  <speed>0.9693812459502195</speed>
  <fix>3d</fix>
</trkpt>
<trkpt lat="33.8107349" lon="-118.3937501">
  <ele>-25.289</ele>
  <time>2026-09-02T22:11:32Z</time>
  <course>19.94</course>
  <speed>0.9693812459502195</speed>
  <fix>3d</fix>
</trkpt>
<trkpt lat="33.8107349" lon="-118.3937501">
  <ele>-25.289</ele>
  <time>2026-09-02T22:11:32Z</time>
  <course>19.94</course>
  <speed>0.9693812459502195</speed>
  <fix>3d</fix>
</trkpt>
<trkpt lat="33.8107337" lon="-118.393752">
  <ele>-24.66</ele>
  <time>2026-09-02T22:11:32Z</time>
  <course>44.97</course>
  <speed>0.98</speed>
  <fix>3d</fix>
</trkpt>
<trkpt lat="33.8107349" lon="-118.39375">
  <ele>-25.289</ele>
  <time>2026-09-02T22:11:32Z</time>
  <course>19.94</course>
  <speed>0.9693812459502195</speed>
  <fix>3d</fix>
</trkpt>
<trkpt lat="33.810735" lon="-118.3937499">
  <ele>-25.289</ele>
  <time>2026-09-02T22:11:32Z</time>
  <course>19.94</course>
  <speed>0.9693812459502195</speed>
  <fix>3d</fix>
</trkpt>
<trkpt lat="33.810735" lon="-118.3937499">
  <ele>-25.289</ele>
  <time>2026-09-02T22:11:32Z</time>
  <course>19.94</course>
  <speed>0.9693812459502195</speed>
  <fix>3d</fix>
</trkpt>
<trkpt lat="33.8107351" lon="-118.3937498">
  <ele>-25.29</ele>
  <time>2026-09-02T22:11:32Z</time>
  <course>19.94</course>
  <speed>0.9693812459502195</speed>
  <fix>3d</fix>
</trkpt>
<trkpt lat="33.8107351" lon="-118.3937498">
  <ele>-25.29</ele>
  <time>2026-09-02T22:11:32Z</time>
  <course>19.94</course>
  <speed>0.9693812459502195</speed>
  <fix>3d</fix>
</trkpt>
<trkpt lat="33.8107352" lon="-118.3937497">
  <ele>-25.29</ele>
  <time>2026-09-02T22:11:32Z</time>
  <course>19.94</course>
  <speed>0.9693812459502195</speed>
  <fix>3d</fix>
</trkpt>
<trkpt lat="33.8107352" lon="-118.3937497">
  <ele>-25.29</ele>
  <time>2026-09-02T22:11:32Z</time>
  <course>19.94</course>
  <speed>0.9693812459502195</speed>
  <fix>3d</fix>
</trkpt>
<trkpt lat="33.8107353" lon="-118.3937496">
  <ele>-25.291</ele>
  <time>2026-09-02T22:11:32Z</time>
  <course>19.94</course>
  <speed>0.9693812459502195</speed>
  <fix>3d</fix>
</trkpt>
<trkpt lat="33.8107353" lon="-118.3937495">
  <ele>-25.291</ele>
  <time>2026-09-02T22:11:32Z</time>
  <course>19.94</course>
  <speed>0.9693812459502195</speed>
  <fix>3d</fix>
</trkpt>
<trkpt lat="33.8107353" lon="-118.3937495">
  <ele>-25.291</ele>
  <time>2026-09-02T22:11:32Z</time>
  <course>19.94</course>
  <speed>0.9693812459502195</speed>
  <fix>3d</fix>
</trkpt>
<trkpt lat="33.8107354" lon="-118.3937494">
  <ele>-25.291</ele>
  <time>2026-09-02T22:11:32Z</time>
  <course>19.94</course>
  <speed>0.9693812459502195</speed>
  <fix>3d</fix>
</trkpt>
<trkpt lat="33.8107354" lon="-118.3937494">
  <ele>-25.291</ele>
  <time>2026-09-02T22:11:32Z</time>
  <course>19.94</course>
  <speed>0.9693812459502195</speed>
  <fix>3d</fix>
</trkpt>
<trkpt lat="33.8107355" lon="-118.3937493">
  <ele>-25.292</ele>
  <time>2026-09-02T22:11:32Z</time>
  <course>19.94</course>
  <speed>0.9693812459502195</speed>
  <fix>3d</fix>
</trkpt>
<trkpt lat="33.8107355" lon="-118.3937493">
  <ele>-25.292</ele>
  <time>2026-09-02T22:11:32Z</time>
  <course>19.94</course>
  <speed>0.9693812459502195</speed>
  <fix>3d</fix>
</trkpt>
<trkpt lat="33.810735" lon="-118.3937505">
  <ele>-24.67</ele>
  <time>2026-09-02T22:11:32Z</time>
  <course>45.01</course>
  <speed>0.98</speed>
  <fix>3d</fix>
</trkpt>
<trkpt lat="33.8107355" lon="-118.3937493">
  <ele>-25.292</ele>
  <time>2026-09-02T22:11:32Z</time>
  <course>19.94</course>
  <speed>0.9693812459502195</speed>
  <fix>3d</fix>
</trkpt>
<trkpt lat="33.8107356" lon="-118.3937492">
  <ele>-25.292</ele>
  <time>2026-09-02T22:11:32Z</time>
  <course>19.94</course>
  <speed>0.9693812459502195</speed>
  <fix>3d</fix>
</trkpt>
<trkpt lat="33.8107357" lon="-118.3937491">
  <ele>-25.292</ele>
  <time>2026-09-02T22:11:32Z</time>
  <course>19.94</course>
  <speed>0.9693812459502195</speed>
  <fix>3d</fix>
</trkpt>
<trkpt lat="33.8107357" lon="-118.3937491">
  <ele>-25.292</ele>
  <time>2026-09-02T22:11:32Z</time>
  <course>19.94</course>
  <speed>0.9693812459502195</speed>
  <fix>3d</fix>
</trkpt>
<trkpt lat="33.8107357" lon="-118.393749">
  <ele>-25.293</ele>
  <time>2026-09-02T22:11:32Z</time>
  <course>19.94</course>
  <speed>0.9693812459502195</speed>
  <fix>3d</fix>
</trkpt>
<trkpt lat="33.8107358" lon="-118.393749">
  <ele>-25.293</ele>
  <time>2026-09-02T22:11:32Z</time>
  <course>19.94</course>
  <speed>0.9693812459502195</speed>
  <fix>3d</fix>
</trkpt>
<trkpt lat="33.8107358" lon="-118.3937489">
  <ele>-25.293</ele>
  <time>2026-09-02T22:11:32Z</time>
  <course>19.94</course>
  <speed>0.9693812459502195</speed>
  <fix>3d</fix>
</trkpt>
<trkpt lat="33.8107359" lon="-118.3937488">
  <ele>-25.293</ele>
  <time>2026-09-02T22:11:32Z</time>
  <course>19.94</course>
  <speed>0.9693812459502195</speed>
  <fix>3d</fix>
</trkpt>
<trkpt lat="33.8107359" lon="-118.3937488">
  <ele>-25.294</ele>
  <time>2026-09-02T22:11:32Z</time>
  <course>19.94</course>
  <speed>0.9693812459502195</speed>
  <fix>3d</fix>
</trkpt>
<trkpt lat="33.810736" lon="-118.3937487">
  <ele>-25.294</ele>
  <time>2026-09-02T22:11:32Z</time>
  <course>19.94</course>
  <speed>0.9693812459502195</speed>
  <fix>3d</fix>
</trkpt>
<trkpt lat="33.810736" lon="-118.3937487">
  <ele>-25.294</ele>
  <time>2026-09-02T22:11:32Z</time>
  <course>19.94</course>
  <speed>0.9693812459502195</speed>
  <fix>3d</fix>
</trkpt>
<trkpt lat="33.8107361" lon="-118.3937486">
  <ele>-25.294</ele>
  <time>2026-09-02T22:11:32Z</time>
  <course>19.94</course>
  <speed>0.9693812459502195</speed>
  <fix>3d</fix>
</trkpt>
<trkpt lat="33.8107361" lon="-118.3937486">
  <ele>-25.295</ele>
  <time>2026-09-02T22:11:32Z</time>
  <course>19.94</course>
  <speed>0.9693812459502195</speed>
  <fix>3d</fix>
</trkpt>
<trkpt lat="33.8107361" lon="-118.3937485">
  <ele>-25.295</ele>
  <time>2026-09-02T22:11:32Z</time>
  <course>19.94</course>
  <speed>0.9693812459502195</speed>
  <fix>3d</fix>
</trkpt>
<trkpt lat="33.810735" lon="-118.3937505">
  <ele>-24.67</ele>
  <time>2026-09-02T22:11:32Z</time>
  <course>45.01</course>
  <speed>0.98</speed>
  <fix>3d</fix>
</trkpt>
<trkpt lat="33.8107362" lon="-118.3937485">
  <ele>-25.295</ele>
  <time>2026-09-02T22:11:32Z</time>
  <course>19.94</course>
  <speed>0.9693812459502195</speed>
  <fix>3d</fix>
</trkpt>
<trkpt lat="33.8107362" lon="-118.3937484">
  <ele>-25.295</ele>
  <time>2026-09-02T22:11:32Z</time>
  <course>19.94</course>
  <speed>0.9693812459502195</speed>
  <fix>3d</fix>
</trkpt>
<trkpt lat="33.8107363" lon="-118.3937484">
  <ele>-25.296</ele>
  <time>2026-09-02T22:11:32Z</time>
  <course>19.94</course>
  <speed>0.9693812459502195</speed>
  <fix>3d</fix>
</trkpt>
<trkpt lat="33.8107363" lon="-118.3937483">
  <ele>-25.296</ele>
  <time>2026-09-02T22:11:32Z</time>
  <course>19.94</course>
  <speed>0.9693812459502195</speed>
  <fix>3d</fix>
</trkpt>
<trkpt lat="33.8107364" lon="-118.3937483">
  <ele>-25.296</ele>
  <time>2026-09-02T22:11:32Z</time>
  <course>19.94</course>
  <speed>0.9693812459502195</speed>
  <fix>3d</fix>
</trkpt>
<trkpt lat="33.8107364" lon="-118.3937482">
  <ele>-25.296</ele>
  <time>2026-09-02T22:11:32Z</time>
  <course>19.94</course>
  <speed>0.9693812459502195</speed>
  <fix>3d</fix>
</trkpt>
<trkpt lat="33.8107365" lon="-118.3937481">
  <ele>-25.297</ele>
  <time>2026-09-02T22:11:32Z</time>
  <course>19.94</course>
  <speed>0.9693812459502195</speed>
  <fix>3d</fix>
</trkpt>
<trkpt lat="33.8107365" lon="-118.3937481">
  <ele>-25.297</ele>
  <time>2026-09-02T22:11:32Z</time>
  <course>19.94</course>
  <speed>0.9693812459502195</speed>
  <fix>3d</fix>
</trkpt>
<trkpt lat="33.8107366" lon="-118.393748">
  <ele>-25.297</ele>
  <time>2026-09-02T22:11:32Z</time>
  <course>19.94</course>
  <speed>0.9693812459502195</speed>
  <fix>3d</fix>
</trkpt>
<trkpt lat="33.8107366" lon="-118.393748">
  <ele>-25.297</ele>
  <time>2026-09-02T22:11:32Z</time>
  <course>19.94</course>
  <speed>0.9693812459502195</speed>
  <fix>3d</fix>
</trkpt>
<trkpt lat="33.8107367" lon="-118.3937479">
  <ele>-25.297</ele>
  <time>2026-09-02T22:11:32Z</time>
  <course>19.94</course>
  <speed>0.9693812459502195</speed>
  <fix>3d</fix>
</trkpt>
<trkpt lat="33.8107367" lon="-118.3937479">
  <ele>-25.297</ele>
  <time>2026-09-02T22:11:32Z</time>
  <course>19.94</course>
  <speed>0.9693812459502195</speed>
  <fix>3d</fix>
</trkpt>
<trkpt lat="33.8107368" lon="-118.3937478">
  <ele>-25.297</ele>
  <time>2026-09-02T22:11:32Z</time>
  <course>19.94</course>
  <speed>0.9693812459502195</speed>
  <fix>3d</fix>
</trkpt>
<trkpt lat="33.8107368" lon="-118.3937478">
  <ele>-25.297</ele>
  <time>2026-09-02T22:11:32Z</time>
  <course>19.94</course>
  <speed>0.9693812459502195</speed>
  <fix>3d</fix>
</trkpt>
<trkpt lat="33.8107362" lon="-118.393749">
  <ele>-24.67</ele>
  <time>2026-09-02T22:11:32Z</time>
  <course>45.06</course>
  <speed>0.98</speed>
  <fix>3d</fix>
</trkpt>
<trkpt lat="33.8107368" lon="-118.3937478">
  <ele>-25.297</ele>
  <time>2026-09-02T22:11:32Z</time>
  <course>19.94</course>
  <speed>0.9693812459502195</speed>
  <fix>3d</fix>
</trkpt>
<trkpt lat="33.8107369" lon="-118.3937477">
  <ele>-25.298</ele>
  <time>2026-09-02T22:11:32Z</time>
  <course>19.94</course>
  <speed>0.9693812459502195</speed>
  <fix>3d</fix>
</trkpt>
<trkpt lat="33.8107369" lon="-118.3937476">
  <ele>-25.298</ele>
  <time>2026-09-02T22:11:32Z</time>
  <course>19.94</course>
  <speed>0.9693812459502195</speed>
  <fix>3d</fix>
</trkpt>
<trkpt lat="33.810737" lon="-118.3937475">
  <ele>-25.298</ele>
  <time>2026-09-02T22:11:32Z</time>
  <course>19.94</course>
  <speed>0.9693812459502195</speed>
  <fix>3d</fix>
</trkpt>
<trkpt lat="33.810737" lon="-118.3937475">
  <ele>-25.298</ele>
  <time>2026-09-02T22:11:32Z</time>
  <course>19.94</course>
  <speed>0.9693812459502195</speed>
  <fix>3d</fix>
</trkpt>
<trkpt lat="33.8107371" lon="-118.3937474">
  <ele>-25.298</ele>
  <time>2026-09-02T22:11:32Z</time>
  <course>19.94</course>
  <speed>0.9693812459502195</speed>
  <fix>3d</fix>
</trkpt>
<trkpt lat="33.8107371" lon="-118.3937474">
  <ele>-25.298</ele>
  <time>2026-09-02T22:11:32Z</time>
  <course>19.94</course>
  <speed>0.9693812459502195</speed>
  <fix>3d</fix>
</trkpt>
<trkpt lat="33.8107372" lon="-118.3937473">
  <ele>-25.298</ele>
  <time>2026-09-02T22:11:32Z</time>
  <course>19.94</course>
  <speed>0.9693812459502195</speed>
  <fix>3d</fix>
</trkpt>
<trkpt lat="33.8107372" lon="-118.3937473">
  <ele>-25.299</ele>
  <time>2026-09-02T22:11:32Z</time>
  <course>19.94</course>
  <speed>0.9693812459502195</speed>
  <fix>3d</fix>
</trkpt>
<trkpt lat="33.8107373" lon="-118.3937472">
  <ele>-25.298</ele>
  <time>2026-09-02T22:11:32Z</time>
  <course>19.94</course>
  <speed>0.9693812459502195</speed>
  <fix>3d</fix>
</trkpt>
<trkpt lat="33.8107373" lon="-118.3937472">
  <ele>-25.298</ele>
  <time>2026-09-02T22:11:32Z</time>
  <course>19.94</course>
  <speed>0.9693812459502195</speed>
  <fix>3d</fix>
</trkpt>
<trkpt lat="33.8107373" lon="-118.3937471">
  <ele>-25.299</ele>
  <time>2026-09-02T22:11:32Z</time>
  <course>19.94</course>
  <speed>0.9693812459502195</speed>
  <fix>3d</fix>
</trkpt>
<trkpt lat="33.8107374" lon="-118.393747">
  <ele>-25.299</ele>
  <time>2026-09-02T22:11:32Z</time>
  <course>19.94</course>
  <speed>0.9693812459502195</speed>
  <fix>3d</fix>
</trkpt>
<trkpt lat="33.8107374" lon="-118.393747">
  <ele>-25.299</ele>
  <time>2026-09-02T22:11:32Z</time>
  <course>19.94</course>
  <speed>0.9693812459502195</speed>
  <fix>3d</fix>
</trkpt>
<trkpt lat="33.8107362" lon="-118.393749">
  <ele>-24.67</ele>
  <time>2026-09-02T22:11:32Z</time>
  <course>45.06</course>
  <speed>0.98</speed>
  <fix>3d</fix>
</trkpt>
<trkpt lat="33.8107375" lon="-118.3937469">
  <ele>-25.299</ele>
  <time>2026-09-02T22:11:32Z</time>
  <course>19.94</course>
  <speed>0.9693812459502195</speed>
  <fix>3d</fix>
</trkpt>
<trkpt lat="33.8107375" lon="-118.3937469">
  <ele>-25.299</ele>
  <time>2026-09-02T22:11:32Z</time>
  <course>19.94</course>
  <speed>0.9693812459502195</speed>
  <fix>3d</fix>
</trkpt>
<trkpt lat="33.8107376" lon="-118.3937468">
  <ele>-25.299</ele>
  <time>2026-09-02T22:11:32Z</time>
  <course>19.94</course>
  <speed>0.9693812459502195</speed>
  <fix>3d</fix>
</trkpt>
<trkpt lat="33.8107376" lon="-118.3937468">
  <ele>-25.299</ele>
  <time>2026-09-02T22:11:32Z</time>
  <course>19.94</course>
  <speed>0.9693812459502195</speed>
  <fix>3d</fix>
</trkpt>
<trkpt lat="33.8107377" lon="-118.3937467">
  <ele>-25.299</ele>
  <time>2026-09-02T22:11:32Z</time>
  <course>19.94</course>
  <speed>0.9693812459502195</speed>
  <fix>3d</fix>
</trkpt>
<trkpt lat="33.8107377" lon="-118.3937467">
  <ele>-25.299</ele>
  <time>2026-09-02T22:11:32Z</time>
  <course>19.94</course>
  <speed>0.9693812459502195</speed>
  <fix>3d</fix>
</trkpt>
<trkpt lat="33.8107377" lon="-118.3937466">
  <ele>-25.3</ele>
  <time>2026-09-02T22:11:32Z</time>
  <course>19.94</course>
  <speed>0.9693812459502195</speed>
  <fix>3d</fix>
</trkpt>
<trkpt lat="33.8107378" lon="-118.3937465">
  <ele>-25.3</ele>
  <time>2026-09-02T22:11:32Z</time>
  <course>19.94</course>
  <speed>0.9693812459502195</speed>
  <fix>3d</fix>
</trkpt>
<trkpt lat="33.8107378" lon="-118.3937465">
  <ele>-25.3</ele>
  <time>2026-09-02T22:11:32Z</time>
  <course>19.94</course>
  <speed>0.9693812459502195</speed>
  <fix>3d</fix>
</trkpt>
<trkpt lat="33.810738" lon="-118.3937463">
  <ele>-25.3</ele>
  <time>2026-09-02T22:11:32Z</time>
  <course>19.94</course>
  <speed>0.9693812459502195</speed>
  <fix>3d</fix>
</trkpt>
<trkpt lat="33.810738" lon="-118.3937463">
  <ele>-25.3</ele>
  <time>2026-09-02T22:11:32Z</time>
  <course>19.94</course>
  <speed>0.9693812459502195</speed>
  <fix>3d</fix>
</trkpt>
<trkpt lat="33.8107375" lon="-118.3937475">
  <ele>-24.67</ele>
  <time>2026-09-02T22:11:32Z</time>
  <course>45.09</course>
  <speed>0.98</speed>
  <fix>3d</fix>
</trkpt>
<trkpt lat="33.810738" lon="-118.3937463">
  <ele>-25.301</ele>
  <time>2026-09-02T22:11:32Z</time>
  <course>19.94</course>
  <speed>0.9693812459502195</speed>
  <fix>3d</fix>
</trkpt>
<trkpt lat="33.8107381" lon="-118.3937462">
  <ele>-25.301</ele>
  <time>2026-09-02T22:11:32Z</time>
  <course>19.94</course>
  <speed>0.9693812459502195</speed>
  <fix>3d</fix>
</trkpt>
<trkpt lat="33.8107381" lon="-118.3937462">
  <ele>-25.301</ele>
  <time>2026-09-02T22:11:32Z</time>
  <course>19.94</course>
  <speed>0.9693812459502195</speed>
  <fix>3d</fix>
</trkpt>
<trkpt lat="33.8107381" lon="-118.3937462">
  <ele>-25.301</ele>
  <time>2026-09-02T22:11:32Z</time>
  <course>19.94</course>
  <speed>0.9693812459502195</speed>
  <fix>3d</fix>
</trkpt>
<trkpt lat="33.8107381" lon="-118.3937462">
  <ele>-25.301</ele>
  <time>2026-09-02T22:11:32Z</time>
  <course>19.94</course>
  <speed>0.9693812459502195</speed>
  <fix>3d</fix>
</trkpt>
<trkpt lat="33.8107381" lon="-118.3937462">
  <ele>-25.301</ele>
  <time>2026-09-02T22:11:32Z</time>
  <course>19.94</course>
  <speed>0.9693812459502195</speed>
  <fix>3d</fix>
</trkpt>
<trkpt lat="33.8107381" lon="-118.3937462">
  <ele>-25.301</ele>
  <time>2026-09-02T22:11:32Z</time>
  <course>19.94</course>
  <speed>0.9693812459502195</speed>
  <fix>3d</fix>
</trkpt>
<trkpt lat="33.8107381" lon="-118.3937461">
  <ele>-25.301</ele>
  <time>2026-09-02T22:11:32Z</time>
  <course>19.94</course>
  <speed>0.9693812459502195</speed>
  <fix>3d</fix>
</trkpt>
<trkpt lat="33.8107382" lon="-118.3937461">
  <ele>-25.301</ele>
  <time>2026-09-02T22:11:32Z</time>
  <course>19.94</course>
  <speed>0.9693812459502195</speed>
  <fix>3d</fix>
</trkpt>
<trkpt lat="33.8107382" lon="-118.3937461">
  <ele>-25.301</ele>
  <time>2026-09-02T22:11:32Z</time>
  <course>19.94</course>
  <speed>0.9693812459502195</speed>
  <fix>3d</fix>
</trkpt>
<trkpt lat="33.8107382" lon="-118.3937461">
  <ele>-25.301</ele>
  <time>2026-09-02T22:11:32Z</time>
  <course>19.94</course>
  <speed>0.9693812459502195</speed>
  <fix>3d</fix>
</trkpt>
<trkpt lat="33.8107382" lon="-118.393746">
  <ele>-25.301</ele>
  <time>2026-09-02T22:11:32Z</time>
  <course>19.94</course>
  <speed>0.9693812459502195</speed>
  <fix>3d</fix>
</trkpt>
<trkpt lat="33.8107382" lon="-118.393746">
  <ele>-25.301</ele>
  <time>2026-09-02T22:11:32Z</time>
  <course>19.94</course>
  <speed>0.9693812459502195</speed>
  <fix>3d</fix>
</trkpt>
<trkpt lat="33.8107383" lon="-118.393746">
  <ele>-25.301</ele>
  <time>2026-09-02T22:11:32Z</time>
  <course>19.94</course>
  <speed>0.9693812459502195</speed>
  <fix>3d</fix>
</trkpt>
<trkpt lat="33.8107383" lon="-118.393746">
  <ele>-25.301</ele>
  <time>2026-09-02T22:11:32Z</time>
  <course>19.94</course>
  <speed>0.9693812459502195</speed>
  <fix>3d</fix>
</trkpt>
<trkpt lat="33.8107383" lon="-118.393746">
  <ele>-25.301</ele>
  <time>2026-09-02T22:11:32Z</time>
  <course>19.94</course>
  <speed>0.9693812459502195</speed>
  <fix>3d</fix>
</trkpt>
<trkpt lat="33.8107383" lon="-118.3937459">
  <ele>-25.302</ele>
  <time>2026-09-02T22:11:32Z</time>
  <course>19.94</course>
  <speed>0.9693812459502195</speed>
  <fix>3d</fix>
</trkpt>
<trkpt lat="33.8107383" lon="-118.3937459">
  <ele>-25.302</ele>
  <time>2026-09-02T22:11:32Z</time>
  <course>19.94</course>
  <speed>0.9693812459502195</speed>
  <fix>3d</fix>
</trkpt>
<trkpt lat="33.8107383" lon="-118.3937459">
  <ele>-25.302</ele>
  <time>2026-09-02T22:11:32Z</time>
  <course>19.94</course>
  <speed>0.9693812459502195</speed>
  <fix>3d</fix>
</trkpt>
<trkpt lat="33.8107384" lon="-118.3937459">
  <ele>-25.302</ele>
  <time>2026-09-02T22:11:32Z</time>
  <course>19.94</course>
  <speed>0.9693812459502195</speed>
  <fix>3d</fix>
</trkpt>
<trkpt lat="33.8107384" lon="-118.3937459">
  <ele>-25.302</ele>
  <time>2026-09-02T22:11:32Z</time>
  <course>19.94</course>
  <speed>0.9693812459502195</speed>
  <fix>3d</fix>
</trkpt>
<trkpt lat="33.8107384" lon="-118.3937459">
  <ele>-25.302</ele>
  <time>2026-09-02T22:11:32Z</time>
  <course>19.94</course>
  <speed>0.9693812459502195</speed>
  <fix>3d</fix>
</trkpt>
<trkpt lat="33.8107384" lon="-118.3937458">
  <ele>-25.302</ele>
  <time>2026-09-02T22:11:32Z</time>
  <course>19.94</course>
  <speed>0.9693812459502195</speed>
  <fix>3d</fix>
</trkpt>
<trkpt lat="33.8107384" lon="-118.3937458">
  <ele>-25.302</ele>
  <time>2026-09-02T22:11:32Z</time>
  <course>19.94</course>
  <speed>0.9693812459502195</speed>
  <fix>3d</fix>
</trkpt>
<trkpt lat="33.8107384" lon="-118.3937458">
  <ele>-25.302</ele>
  <time>2026-09-02T22:11:32Z</time>
  <course>19.94</course>
  <speed>0.9693812459502195</speed>
  <fix>3d</fix>
</trkpt>
<trkpt lat="33.8107384" lon="-118.3937458">
  <ele>-25.302</ele>
  <time>2026-09-02T22:11:32Z</time>
  <course>19.94</course>
  <speed>0.9693812459502195</speed>
  <fix>3d</fix>
</trkpt>
<trkpt lat="33.8107385" lon="-118.3937458">
  <ele>-25.302</ele>
  <time>2026-09-02T22:11:32Z</time>
  <course>19.94</course>
  <speed>0.9693812459502195</speed>
  <fix>3d</fix>
</trkpt>
<trkpt lat="33.8107385" lon="-118.3937457">
  <ele>-25.302</ele>
  <time>2026-09-02T22:11:32Z</time>
  <course>19.94</course>
  <speed>0.9693812459502195</speed>
  <fix>3d</fix>
</trkpt>
<trkpt lat="33.8107385" lon="-118.3937457">
  <ele>-25.302</ele>
  <time>2026-09-02T22:11:32Z</time>
  <course>19.94</course>
  <speed>0.9693812459502195</speed>
  <fix>3d</fix>
</trkpt>
<trkpt lat="33.8107385" lon="-118.3937457">
  <ele>-25.302</ele>
  <time>2026-09-02T22:11:32Z</time>
  <course>19.94</course>
  <speed>0.9693812459502195</speed>
  <fix>3d</fix>
</trkpt>
<trkpt lat="33.8107385" lon="-118.3937457">
  <ele>-25.302</ele>
  <time>2026-09-02T22:11:32Z</time>
  <course>19.94</course>
  <speed>0.9693812459502195</speed>
  <fix>3d</fix>
</trkpt>
<trkpt lat="33.8107386" lon="-118.3937456">
  <ele>-25.302</ele>
  <time>2026-09-02T22:11:32Z</time>
  <course>19.94</course>
  <speed>0.9693812459502195</speed>
  <fix>3d</fix>
</trkpt>
<trkpt lat="33.8107386" lon="-118.3937456">
  <ele>-25.303</ele>
  <time>2026-09-02T22:11:32Z</time>
  <course>19.94</course>
  <speed>0.9693812459502195</speed>
  <fix>3d</fix>
</trkpt>
<trkpt lat="33.8107387" lon="-118.3937455">
  <ele>-25.303</ele>
  <time>2026-09-02T22:11:32Z</time>
  <course>19.94</course>
  <speed>0.9693812459502195</speed>
  <fix>3d</fix>
</trkpt>
<trkpt lat="33.8107387" lon="-118.3937455">
  <ele>-25.303</ele>
  <time>2026-09-02T22:11:32Z</time>
  <course>19.94</course>
  <speed>0.9693812459502195</speed>
  <fix>3d</fix>
</trkpt>
<trkpt lat="33.8107375" lon="-118.3937475">
  <ele>-24.67</ele>
  <time>2026-09-02T22:11:32Z</time>
  <course>45.09</course>
  <speed>0.98</speed>
  <fix>3d</fix>
</trkpt>
<trkpt lat="33.8107387" lon="-118.3937455">
  <ele>-25.303</ele>
  <time>2026-09-02T22:11:32Z</time>
  <course>19.94</course>
  <speed>0.9693812459502195</speed>
  <fix>3d</fix>
</trkpt>
<trkpt lat="33.8107387" lon="-118.3937454">
  <ele>-25.303</ele>
  <time>2026-09-02T22:11:32Z</time>
  <course>19.94</course>
  <speed>0.9693812459502195</speed>
  <fix>3d</fix>
</trkpt>
<trkpt lat="33.8107388" lon="-118.3937454">
  <ele>-25.303</ele>
  <time>2026-09-02T22:11:32Z</time>
  <course>19.94</course>
  <speed>0.9693812459502195</speed>
  <fix>3d</fix>
</trkpt>
<trkpt lat="33.8107388" lon="-118.3937453">
  <ele>-25.303</ele>
  <time>2026-09-02T22:11:32Z</time>
  <course>19.94</course>
  <speed>0.9693812459502195</speed>
  <fix>3d</fix>
</trkpt>
<trkpt lat="33.8107388" lon="-118.3937453">
  <ele>-25.303</ele>
  <time>2026-09-02T22:11:32Z</time>
  <course>19.94</course>
  <speed>0.9693812459502195</speed>
  <fix>3d</fix>
</trkpt>
<trkpt lat="33.8107389" lon="-118.3937453">
  <ele>-25.303</ele>
  <time>2026-09-02T22:11:32Z</time>
  <course>19.94</course>
  <speed>0.9693812459502195</speed>
  <fix>3d</fix>
</trkpt>
<trkpt lat="33.8107389" lon="-118.3937452">
  <ele>-25.304</ele>
  <time>2026-09-02T22:11:32Z</time>
  <course>19.94</course>
  <speed>0.9693812459502195</speed>
  <fix>3d</fix>
</trkpt>
<trkpt lat="33.8107389" lon="-118.3937452">
  <ele>-25.304</ele>
  <time>2026-09-02T22:11:32Z</time>
  <course>19.95</course>
  <speed>0.9693812459502195</speed>
  <fix>3d</fix>
</trkpt>
<trkpt lat="33.810739" lon="-118.3937451">
  <ele>-25.304</ele>
  <time>2026-09-02T22:11:32Z</time>
  <course>19.95</course>
  <speed>0.9693812459502195</speed>
  <fix>3d</fix>
</trkpt>
<trkpt lat="33.810739" lon="-118.3937451">
  <ele>-25.304</ele>
  <time>2026-09-02T22:11:32Z</time>
  <course>19.95</course>
  <speed>0.9693812459502195</speed>
  <fix>3d</fix>
</trkpt>
<trkpt lat="33.810739" lon="-118.3937451">
  <ele>-25.304</ele>
  <time>2026-09-02T22:11:32Z</time>
  <course>19.95</course>
  <speed>0.9693812459502195</speed>
  <fix>3d</fix>
</trkpt>
<trkpt lat="33.8107391" lon="-118.393745">
  <ele>-25.304</ele>
  <time>2026-09-02T22:11:32Z</time>
  <course>19.95</course>
  <speed>0.9693812459502195</speed>
  <fix>3d</fix>
</trkpt>
<trkpt lat="33.8107391" lon="-118.393745">
  <ele>-25.305</ele>
  <time>2026-09-02T22:11:32Z</time>
  <course>19.95</course>
  <speed>0.9693812459502195</speed>
  <fix>3d</fix>
</trkpt>
<trkpt lat="33.8107392" lon="-118.3937449">
  <ele>-25.305</ele>
  <time>2026-09-02T22:11:32Z</time>
  <course>19.95</course>
  <speed>0.9693812459502195</speed>
  <fix>3d</fix>
</trkpt>
<trkpt lat="33.8107392" lon="-118.3937449">
  <ele>-25.305</ele>
  <time>2026-09-02T22:11:32Z</time>
  <course>19.95</course>
  <speed>0.9693812459502195</speed>
  <fix>3d</fix>
</trkpt>
<trkpt lat="33.8107392" lon="-118.3937448">
  <ele>-25.305</ele>
  <time>2026-09-02T22:11:32Z</time>
  <course>19.95</course>
  <speed>0.9693812459502195</speed>
  <fix>3d</fix>
</trkpt>
<trkpt lat="33.8107393" lon="-118.3937448">
  <ele>-25.305</ele>
  <time>2026-09-02T22:11:32Z</time>
  <course>19.95</course>
  <speed>0.9693812459502195</speed>
  <fix>3d</fix>
</trkpt>
<trkpt lat="33.8107393" lon="-118.3937448">
  <ele>-25.305</ele>
  <time>2026-09-02T22:11:32Z</time>
  <course>19.95</course>
  <speed>0.9693812459502195</speed>
  <fix>3d</fix>
</trkpt>
<trkpt lat="33.8107387" lon="-118.393746">
  <ele>-24.68</ele>
  <time>2026-09-02T22:11:32Z</time>
  <course>45.12</course>
  <speed>0.98</speed>
  <fix>3d</fix>
</trkpt>
<trkpt lat="33.8107393" lon="-118.3937447">
  <ele>-25.306</ele>
  <time>2026-09-02T22:11:32Z</time>
  <course>19.95</course>
  <speed>0.9693812459502195</speed>
  <fix>3d</fix>
</trkpt>
<trkpt lat="33.8107394" lon="-118.3937447">
  <ele>-25.306</ele>
  <time>2026-09-02T22:11:32Z</time>
  <course>19.95</course>
  <speed>0.9693812459502195</speed>
  <fix>3d</fix>
</trkpt>
<trkpt lat="33.8107394" lon="-118.3937446">
  <ele>-25.306</ele>
  <time>2026-09-02T22:11:32Z</time>
  <course>19.95</course>
  <speed>0.9693812459502195</speed>
  <fix>3d</fix>
</trkpt>
<trkpt lat="33.8107394" lon="-118.3937446">
  <ele>-25.306</ele>
  <time>2026-09-02T22:11:32Z</time>
  <course>19.95</course>
  <speed>0.9693812459502195</speed>
  <fix>3d</fix>
</trkpt>
<trkpt lat="33.8107395" lon="-118.3937445">
  <ele>-25.306</ele>
  <time>2026-09-02T22:11:32Z</time>
  <course>19.95</course>
  <speed>0.9693812459502195</speed>
  <fix>3d</fix>
</trkpt>
<trkpt lat="33.8107395" lon="-118.3937445">
  <ele>-25.306</ele>
  <time>2026-09-02T22:11:32Z</time>
  <course>19.95</course>
  <speed>0.9693812459502195</speed>
  <fix>3d</fix>
</trkpt>
<trkpt lat="33.8107395" lon="-118.3937445">
  <ele>-25.307</ele>
  <time>2026-09-02T22:11:32Z</time>
  <course>19.95</course>
  <speed>0.9693812459502195</speed>
  <fix>3d</fix>
</trkpt>
<trkpt lat="33.8107396" lon="-118.3937444">
  <ele>-25.307</ele>
  <time>2026-09-02T22:11:32Z</time>
  <course>19.95</course>
  <speed>0.9693812459502195</speed>
  <fix>3d</fix>
</trkpt>
<trkpt lat="33.8107396" lon="-118.3937444">
  <ele>-25.307</ele>
  <time>2026-09-02T22:11:32Z</time>
  <course>19.95</course>
  <speed>0.9693812459502195</speed>
  <fix>3d</fix>
</trkpt>
<trkpt lat="33.8107396" lon="-118.3937443">
  <ele>-25.307</ele>
  <time>2026-09-02T22:11:32Z</time>
  <course>19.95</course>
  <speed>0.9693812459502195</speed>
  <fix>3d</fix>
</trkpt>
<trkpt lat="33.8107397" lon="-118.3937443">
  <ele>-25.307</ele>
  <time>2026-09-02T22:11:32Z</time>
  <course>19.95</course>
  <speed>0.9693812459502195</speed>
  <fix>3d</fix>
</trkpt>
<trkpt lat="33.8107397" lon="-118.3937443">
  <ele>-25.307</ele>
  <time>2026-09-02T22:11:32Z</time>
  <course>19.95</course>
  <speed>0.9693812459502195</speed>
  <fix>3d</fix>
</trkpt>
<trkpt lat="33.8107397" lon="-118.3937442">
  <ele>-25.307</ele>
  <time>2026-09-02T22:11:32Z</time>
  <course>19.95</course>
  <speed>0.9693812459502195</speed>
  <fix>3d</fix>
</trkpt>
<trkpt lat="33.8107398" lon="-118.3937442">
  <ele>-25.308</ele>
  <time>2026-09-02T22:11:32Z</time>
  <course>19.95</course>
  <speed>0.9693812459502195</speed>
  <fix>3d</fix>
</trkpt>
<trkpt lat="33.8107398" lon="-118.3937442">
  <ele>-25.308</ele>
  <time>2026-09-02T22:11:32Z</time>
  <course>19.95</course>
  <speed>0.9693812459502195</speed>
  <fix>3d</fix>
</trkpt>
<trkpt lat="33.8107398" lon="-118.3937441">
  <ele>-25.308</ele>
  <time>2026-09-02T22:11:32Z</time>
  <course>19.95</course>
  <speed>0.9693812459502195</speed>
  <fix>3d</fix>
</trkpt>
<trkpt lat="33.8107399" lon="-118.3937441">
  <ele>-25.308</ele>
  <time>2026-09-02T22:11:32Z</time>
  <course>19.95</course>
  <speed>0.9693812459502195</speed>
  <fix>3d</fix>
</trkpt>
<trkpt lat="33.8107399" lon="-118.393744">
  <ele>-25.308</ele>
  <time>2026-09-02T22:11:32Z</time>
  <course>19.95</course>
  <speed>0.9693812459502195</speed>
  <fix>3d</fix>
</trkpt>
<trkpt lat="33.8107399" lon="-118.393744">
  <ele>-25.308</ele>
  <time>2026-09-02T22:11:32Z</time>
  <course>19.95</course>
  <speed>0.9693812459502195</speed>
  <fix>3d</fix>
</trkpt>
<trkpt lat="33.8107387" lon="-118.393746">
  <ele>-24.68</ele>
  <time>2026-09-02T22:11:32Z</time>
  <course>45.12</course>
  <speed>0.98</speed>
  <fix>3d</fix>
</trkpt>
<trkpt lat="33.8107399" lon="-118.393744">
  <ele>-25.308</ele>
  <time>2026-09-02T22:11:32Z</time>
  <course>19.95</course>
  <speed>0.9693812459502195</speed>
  <fix>3d</fix>
</trkpt>
<trkpt lat="33.8107399" lon="-118.393744">
  <ele>-25.309</ele>
  <time>2026-09-02T22:11:32Z</time>
  <course>19.95</course>
  <speed>0.9693812459502195</speed>
  <fix>3d</fix>
</trkpt>
<trkpt lat="33.81074" lon="-118.3937439">
  <ele>-25.309</ele>
  <time>2026-09-02T22:11:32Z</time>
  <course>19.95</course>
  <speed>0.9693812459502195</speed>
  <fix>3d</fix>
</trkpt>
<trkpt lat="33.81074" lon="-118.3937439">
  <ele>-25.309</ele>
  <time>2026-09-02T22:11:32Z</time>
  <course>19.95</course>
  <speed>0.9693812459502195</speed>
  <fix>3d</fix>
</trkpt>
<trkpt lat="33.81074" lon="-118.3937439">
  <ele>-25.309</ele>
  <time>2026-09-02T22:11:32Z</time>
  <course>19.95</course>
  <speed>0.9693812459502195</speed>
  <fix>3d</fix>
</trkpt>
<trkpt lat="33.8107401" lon="-118.3937438">
  <ele>-25.309</ele>
  <time>2026-09-02T22:11:32Z</time>
  <course>19.96</course>
  <speed>0.9693812459502195</speed>
  <fix>3d</fix>
</trkpt>
<trkpt lat="33.8107401" lon="-118.3937437">
  <ele>-25.309</ele>
  <time>2026-09-02T22:11:32Z</time>
  <course>19.96</course>
  <speed>0.9693812459502195</speed>
  <fix>3d</fix>
</trkpt>
<trkpt lat="33.8107402" lon="-118.3937437">
  <ele>-25.31</ele>
  <time>2026-09-02T22:11:32Z</time>
  <course>19.96</course>
  <speed>0.9693812459502195</speed>
  <fix>3d</fix>
</trkpt>
<trkpt lat="33.8107402" lon="-118.3937436">
  <ele>-25.31</ele>
  <time>2026-09-02T22:11:32Z</time>
  <course>19.96</course>
  <speed>0.9693812459502195</speed>
  <fix>3d</fix>
</trkpt>
<trkpt lat="33.8107402" lon="-118.3937436">
  <ele>-25.31</ele>
  <time>2026-09-02T22:11:32Z</time>
  <course>19.96</course>
  <speed>0.9693812459502195</speed>
  <fix>3d</fix>
</trkpt>
<trkpt lat="33.8107403" lon="-118.3937436">
  <ele>-25.31</ele>
  <time>2026-09-02T22:11:32Z</time>
  <course>19.96</course>
  <speed>0.9693812459502195</speed>
  <fix>3d</fix>
</trkpt>
<trkpt lat="33.8107403" lon="-118.3937435">
  <ele>-25.31</ele>
  <time>2026-09-02T22:11:32Z</time>
  <course>19.96</course>
  <speed>0.9693812459502195</speed>
  <fix>3d</fix>
</trkpt>
<trkpt lat="33.8107404" lon="-118.3937435">
  <ele>-25.31</ele>
  <time>2026-09-02T22:11:32Z</time>
  <course>19.96</course>
  <speed>0.9762171889492625</speed>
  <fix>3d</fix>
</trkpt>
<trkpt lat="33.8107404" lon="-118.3937434">
  <ele>-25.311</ele>
  <time>2026-09-02T22:11:32Z</time>
  <course>19.96</course>
  <speed>0.9693812459502195</speed>
  <fix>3d</fix>
</trkpt>
<trkpt lat="33.8107404" lon="-118.3937434">
  <ele>-25.311</ele>
  <time>2026-09-02T22:11:32Z</time>
  <course>19.96</course>
  <speed>0.9762171889492625</speed>
  <fix>3d</fix>
</trkpt>
<trkpt lat="33.8107405" lon="-118.3937433">
  <ele>-25.311</ele>
  <time>2026-09-02T22:11:32Z</time>
  <course>19.96</course>
  <speed>0.9693812459502195</speed>
  <fix>3d</fix>
</trkpt>
<trkpt lat="33.8107405" lon="-118.3937433">
  <ele>-25.311</ele>
  <time>2026-09-02T22:11:32Z</time>
  <course>19.96</course>
  <speed>0.9762171889492625</speed>
  <fix>3d</fix>
</trkpt>
<trkpt lat="33.8107399" lon="-118.3937445">
  <ele>-24.68</ele>
  <time>2026-09-02T22:11:32Z</time>
  <course>45.14</course>
  <speed>0.98</speed>
  <fix>3d</fix>
</trkpt>
<trkpt lat="33.8107405" lon="-118.3937433">
  <ele>-25.311</ele>
  <time>2026-09-02T22:11:32Z</time>
  <course>19.96</course>
  <speed>0.9762171889492625</speed>
  <fix>3d</fix>
</trkpt>
<trkpt lat="33.8107406" lon="-118.3937432">
  <ele>-25.311</ele>
  <time>2026-09-02T22:11:32Z</time>
  <course>19.96</course>
  <speed>0.9693812459502195</speed>
  <fix>3d</fix>
</trkpt>
<trkpt lat="33.8107406" lon="-118.3937431">
  <ele>-25.311</ele>
  <time>2026-09-02T22:11:32Z</time>
  <course>19.96</course>
  <speed>0.9693812459502195</speed>
  <fix>3d</fix>
</trkpt>
<trkpt lat="33.8107407" lon="-118.3937431">
  <ele>-25.311</ele>
  <time>2026-09-02T22:11:32Z</time>
  <course>19.96</course>
  <speed>0.9693812459502195</speed>
  <fix>3d</fix>
</trkpt>
<trkpt lat="33.8107407" lon="-118.393743">
  <ele>-25.312</ele>
  <time>2026-09-02T22:11:32Z</time>
  <course>19.96</course>
  <speed>0.9693812459502195</speed>
  <fix>3d</fix>
</trkpt>
<trkpt lat="33.8107408" lon="-118.393743">
  <ele>-25.312</ele>
  <time>2026-09-02T22:11:32Z</time>
  <course>19.96</course>
  <speed>0.9693812459502195</speed>
  <fix>3d</fix>
</trkpt>
<trkpt lat="33.8107408" lon="-118.393743">
  <ele>-25.312</ele>
  <time>2026-09-02T22:11:32Z</time>
  <course>19.96</course>
  <speed>0.9693812459502195</speed>
  <fix>3d</fix>
</trkpt>
<trkpt lat="33.8107408" lon="-118.3937429">
  <ele>-25.312</ele>
  <time>2026-09-02T22:11:32Z</time>
  <course>19.96</course>
  <speed>0.9693812459502195</speed>
  <fix>3d</fix>
</trkpt>
<trkpt lat="33.8107409" lon="-118.3937429">
  <ele>-25.312</ele>
  <time>2026-09-02T22:11:32Z</time>
  <course>19.96</course>
  <speed>0.9693812459502195</speed>
  <fix>3d</fix>
</trkpt>
<trkpt lat="33.8107409" lon="-118.3937428">
  <ele>-25.312</ele>
  <time>2026-09-02T22:11:32Z</time>
  <course>19.96</course>
  <speed>0.9693812459502195</speed>
  <fix>3d</fix>
</trkpt>
<trkpt lat="33.810741" lon="-118.3937427">
  <ele>-25.313</ele>
  <time>2026-09-02T22:11:32Z</time>
  <course>19.96</course>
  <speed>0.9693812459502195</speed>
  <fix>3d</fix>
</trkpt>
<trkpt lat="33.810741" lon="-118.3937427">
  <ele>-25.313</ele>
  <time>2026-09-02T22:11:32Z</time>
  <course>19.96</course>
  <speed>0.9693812459502195</speed>
  <fix>3d</fix>
</trkpt>
<trkpt lat="33.810741" lon="-118.3937426">
  <ele>-25.313</ele>
  <time>2026-09-02T22:11:32Z</time>
  <course>19.96</course>
  <speed>0.9693812459502195</speed>
  <fix>3d</fix>
</trkpt>
<trkpt lat="33.8107411" lon="-118.3937426">
  <ele>-25.313</ele>
  <time>2026-09-02T22:11:32Z</time>
  <course>19.96</course>
  <speed>0.9762171889492625</speed>
  <fix>3d</fix>
</trkpt>
<trkpt lat="33.8107411" lon="-118.3937425">
  <ele>-25.313</ele>
  <time>2026-09-02T22:11:32Z</time>
  <course>19.96</course>
  <speed>0.9762171889492625</speed>
  <fix>3d</fix>
</trkpt>
<trkpt lat="33.8107412" lon="-118.3937425">
  <ele>-25.313</ele>
  <time>2026-09-02T22:11:32Z</time>
  <course>19.96</course>
  <speed>0.9762171889492625</speed>
  <fix>3d</fix>
</trkpt>
<trkpt lat="33.8107412" lon="-118.3937425">
  <ele>-25.313</ele>
  <time>2026-09-02T22:11:32Z</time>
  <course>19.96</course>
  <speed>0.9762171889492625</speed>
  <fix>3d</fix>
</trkpt>
<trkpt lat="33.8107399" lon="-118.3937445">
  <ele>-24.68</ele>
  <time>2026-09-02T22:11:32Z</time>
  <course>45.14</course>
  <speed>0.98</speed>
  <fix>3d</fix>
</trkpt>
<trkpt lat="33.8107412" lon="-118.3937424">
  <ele>-25.313</ele>
  <time>2026-09-02T22:11:32Z</time>
  <course>19.96</course>
  <speed>0.9762171889492625</speed>
  <fix>3d</fix>
</trkpt>
<trkpt lat="33.8107413" lon="-118.3937424">
  <ele>-25.314</ele>
  <time>2026-09-02T22:11:32Z</time>
  <course>19.96</course>
  <speed>0.9762171889492625</speed>
  <fix>3d</fix>
</trkpt>
<trkpt lat="33.8107413" lon="-118.3937423">
  <ele>-25.314</ele>
  <time>2026-09-02T22:11:32Z</time>
  <course>19.96</course>
  <speed>0.9762171889492625</speed>
  <fix>3d</fix>
</trkpt>
<trkpt lat="33.8107413" lon="-118.3937423">
  <ele>-25.314</ele>
  <time>2026-09-02T22:11:32Z</time>
  <course>19.96</course>
  <speed>0.9762171889492625</speed>
  <fix>3d</fix>
</trkpt>
<trkpt lat="33.8107414" lon="-118.3937422">
  <ele>-25.314</ele>
  <time>2026-09-02T22:11:32Z</time>
  <course>19.96</course>
  <speed>0.9762171889492625</speed>
  <fix>3d</fix>
</trkpt>
<trkpt lat="33.8107414" lon="-118.3937422">
  <ele>-25.314</ele>
  <time>2026-09-02T22:11:32Z</time>
  <course>19.96</course>
  <speed>0.9762171889492625</speed>
  <fix>3d</fix>
</trkpt>
<trkpt lat="33.8107415" lon="-118.3937421">
  <ele>-25.314</ele>
  <time>2026-09-02T22:11:32Z</time>
  <course>19.96</course>
  <speed>0.9762171889492625</speed>
  <fix>3d</fix>
</trkpt>
<trkpt lat="33.8107415" lon="-118.3937421">
  <ele>-25.314</ele>
  <time>2026-09-02T22:11:32Z</time>
  <course>19.96</course>
  <speed>0.9762171889492625</speed>
  <fix>3d</fix>
</trkpt>
<trkpt lat="33.8107415" lon="-118.3937421">
  <ele>-25.314</ele>
  <time>2026-09-02T22:11:32Z</time>
  <course>19.96</course>
  <speed>0.9762171889492625</speed>
  <fix>3d</fix>
</trkpt>
<trkpt lat="33.8107415" lon="-118.393742">
  <ele>-25.314</ele>
  <time>2026-09-02T22:11:32Z</time>
  <course>19.96</course>
  <speed>0.9762171889492625</speed>
  <fix>3d</fix>
</trkpt>
<trkpt lat="33.8107416" lon="-118.393742">
  <ele>-25.314</ele>
  <time>2026-09-02T22:11:32Z</time>
  <course>19.96</course>
  <speed>0.9762171889492625</speed>
  <fix>3d</fix>
</trkpt>
<trkpt lat="33.8107416" lon="-118.3937419">
  <ele>-25.314</ele>
  <time>2026-09-02T22:11:32Z</time>
  <course>19.95</course>
  <speed>0.9762171889492625</speed>
  <fix>3d</fix>
</trkpt>
<trkpt lat="33.8107417" lon="-118.3937419">
  <ele>-25.315</ele>
  <time>2026-09-02T22:11:32Z</time>
  <course>19.95</course>
  <speed>0.9762171889492625</speed>
  <fix>3d</fix>
</trkpt>
<trkpt lat="33.8107417" lon="-118.3937418">
  <ele>-25.314</ele>
  <time>2026-09-02T22:11:32Z</time>
  <course>19.95</course>
  <speed>0.9762171889492625</speed>
  <fix>3d</fix>
</trkpt>
<trkpt lat="33.8107418" lon="-118.3937418">
  <ele>-25.315</ele>
  <time>2026-09-02T22:11:32Z</time>
  <course>19.95</course>
  <speed>0.9762171889492625</speed>
  <fix>3d</fix>
</trkpt>
<trkpt lat="33.8107418" lon="-118.3937418">
  <ele>-25.315</ele>
  <time>2026-09-02T22:11:32Z</time>
  <course>19.95</course>
  <speed>0.9762171889492625</speed>
  <fix>3d</fix>
</trkpt>
<trkpt lat="33.8107418" lon="-118.3937418">
  <ele>-25.315</ele>
  <time>2026-09-02T22:11:32Z</time>
  <course>19.95</course>
  <speed>0.9762171889492625</speed>
  <fix>3d</fix>
</trkpt>
<trkpt lat="33.8107412" lon="-118.3937429">
  <ele>-24.69</ele>
  <time>2026-09-02T22:11:32Z</time>
  <course>45.12</course>
  <speed>0.98</speed>
  <fix>3d</fix>
</trkpt>
<trkpt lat="33.8107419" lon="-118.3937417">
  <ele>-25.315</ele>
  <time>2026-09-02T22:11:32Z</time>
  <course>19.95</course>
  <speed>0.9762171889492625</speed>
  <fix>3d</fix>
</trkpt>
<trkpt lat="33.8107419" lon="-118.3937416">
  <ele>-25.315</ele>
  <time>2026-09-02T22:11:32Z</time>
  <course>19.95</course>
  <speed>0.9762171889492625</speed>
  <fix>3d</fix>
</trkpt>
<trkpt lat="33.8107419" lon="-118.3937416">
  <ele>-25.315</ele>
  <time>2026-09-02T22:11:32Z</time>
  <course>19.95</course>
  <speed>0.9762171889492625</speed>
  <fix>3d</fix>
</trkpt>
<trkpt lat="33.810742" lon="-118.3937415">
  <ele>-25.315</ele>
  <time>2026-09-02T22:11:32Z</time>
  <course>19.95</course>
  <speed>0.9762171889492625</speed>
  <fix>3d</fix>
</trkpt>
<trkpt lat="33.810742" lon="-118.3937415">
  <ele>-25.315</ele>
  <time>2026-09-02T22:11:32Z</time>
  <course>19.95</course>
  <speed>0.9762171889492625</speed>
  <fix>3d</fix>
</trkpt>
<trkpt lat="33.810742" lon="-118.3937415">
  <ele>-25.315</ele>
  <time>2026-09-02T22:11:32Z</time>
  <course>19.95</course>
  <speed>0.9762171889492625</speed>
  <fix>3d</fix>
</trkpt>
<trkpt lat="33.8107421" lon="-118.3937414">
  <ele>-25.315</ele>
  <time>2026-09-02T22:11:32Z</time>
  <course>19.95</course>
  <speed>0.9762171889492625</speed>
  <fix>3d</fix>
</trkpt>
<trkpt lat="33.8107421" lon="-118.3937414">
  <ele>-25.315</ele>
  <time>2026-09-02T22:11:32Z</time>
  <course>19.95</course>
  <speed>0.9762171889492625</speed>
  <fix>3d</fix>
</trkpt>
<trkpt lat="33.8107421" lon="-118.3937413">
  <ele>-25.316</ele>
  <time>2026-09-02T22:11:32Z</time>
  <course>19.95</course>
  <speed>0.9762171889492625</speed>
  <fix>3d</fix>
</trkpt>
<trkpt lat="33.8107422" lon="-118.3937413">
  <ele>-25.316</ele>
  <time>2026-09-02T22:11:32Z</time>
  <course>19.95</course>
  <speed>0.9762171889492625</speed>
  <fix>3d</fix>
</trkpt>
<trkpt lat="33.8107422" lon="-118.3937413">
  <ele>-25.316</ele>
  <time>2026-09-02T22:11:32Z</time>
  <course>19.95</course>
  <speed>0.9762171889492625</speed>
  <fix>3d</fix>
</trkpt>
<trkpt lat="33.8107422" lon="-118.3937412">
  <ele>-25.316</ele>
  <time>2026-09-02T22:11:32Z</time>
  <course>19.95</course>
  <speed>0.9762171889492625</speed>
  <fix>3d</fix>
</trkpt>
<trkpt lat="33.8107423" lon="-118.3937412">
  <ele>-25.316</ele>
  <time>2026-09-02T22:11:32Z</time>
  <course>19.95</course>
  <speed>0.9762171889492625</speed>
  <fix>3d</fix>
</trkpt>
<trkpt lat="33.8107423" lon="-118.3937411">
  <ele>-25.316</ele>
  <time>2026-09-02T22:11:32Z</time>
  <course>19.95</course>
  <speed>0.9762171889492625</speed>
  <fix>3d</fix>
</trkpt>
<trkpt lat="33.8107423" lon="-118.3937411">
  <ele>-25.316</ele>
  <time>2026-09-02T22:11:32Z</time>
  <course>19.95</course>
  <speed>0.9762171889492625</speed>
  <fix>3d</fix>
</trkpt>
<trkpt lat="33.8107424" lon="-118.3937411">
  <ele>-25.317</ele>
  <time>2026-09-02T22:11:32Z</time>
  <course>19.95</course>
  <speed>0.9762171889492625</speed>
  <fix>3d</fix>
</trkpt>
<trkpt lat="33.8107424" lon="-118.393741">
  <ele>-25.317</ele>
  <time>2026-09-02T22:11:32Z</time>
  <course>19.95</course>
  <speed>0.9762171889492625</speed>
  <fix>3d</fix>
</trkpt>
<trkpt lat="33.8107424" lon="-118.393741">
  <ele>-25.317</ele>
  <time>2026-09-02T22:11:32Z</time>
  <course>19.95</course>
  <speed>0.9762171889492625</speed>
  <fix>3d</fix>
</trkpt>
<trkpt lat="33.8107412" lon="-118.3937429">
  <ele>-24.69</ele>
  <time>2026-09-02T22:11:32Z</time>
  <course>45.12</course>
  <speed>0.98</speed>
  <fix>3d</fix>
</trkpt>
<trkpt lat="33.8107424" lon="-118.393741">
  <ele>-25.317</ele>
  <time>2026-09-02T22:11:32Z</time>
  <course>19.95</course>
  <speed>0.9762171889492625</speed>
  <fix>3d</fix>
</trkpt>
<trkpt lat="33.8107425" lon="-118.3937409">
  <ele>-25.317</ele>
  <time>2026-09-02T22:11:32Z</time>
  <course>19.95</course>
  <speed>0.9762171889492625</speed>
  <fix>3d</fix>
</trkpt>
<trkpt lat="33.8107425" lon="-118.3937409">
  <ele>-25.317</ele>
  <time>2026-09-02T22:11:32Z</time>
  <course>19.95</course>
  <speed>0.9762171889492625</speed>
  <fix>3d</fix>
</trkpt>
<trkpt lat="33.8107426" lon="-118.3937408">
  <ele>-25.318</ele>
  <time>2026-09-02T22:11:32Z</time>
  <course>19.95</course>
  <speed>0.9762171889492625</speed>
  <fix>3d</fix>
</trkpt>
<trkpt lat="33.8107426" lon="-118.3937408">
  <ele>-25.318</ele>
  <time>2026-09-02T22:11:32Z</time>
  <course>19.95</course>
  <speed>0.9762171889492625</speed>
  <fix>3d</fix>
</trkpt>
<trkpt lat="33.8107426" lon="-118.3937407">
  <ele>-25.318</ele>
  <time>2026-09-02T22:11:32Z</time>
  <course>19.95</course>
  <speed>0.9762171889492625</speed>
  <fix>3d</fix>
</trkpt>
<trkpt lat="33.8107427" lon="-118.3937407">
  <ele>-25.318</ele>
  <time>2026-09-02T22:11:32Z</time>
  <course>19.95</course>
  <speed>0.9762171889492625</speed>
  <fix>3d</fix>
</trkpt>
<trkpt lat="33.8107427" lon="-118.3937407">
  <ele>-25.318</ele>
  <time>2026-09-02T22:11:32Z</time>
  <course>19.95</course>
  <speed>0.9762171889492625</speed>
  <fix>3d</fix>
</trkpt>
<trkpt lat="33.8107427" lon="-118.3937406">
  <ele>-25.318</ele>
  <time>2026-09-02T22:11:32Z</time>
  <course>19.95</course>
  <speed>0.9762171889492625</speed>
  <fix>3d</fix>
</trkpt>
<trkpt lat="33.8107428" lon="-118.3937406">
  <ele>-25.319</ele>
  <time>2026-09-02T22:11:32Z</time>
  <course>19.95</course>
  <speed>0.9762171889492625</speed>
  <fix>3d</fix>
</trkpt>
<trkpt lat="33.8107428" lon="-118.3937405">
  <ele>-25.319</ele>
  <time>2026-09-02T22:11:32Z</time>
  <course>19.95</course>
  <speed>0.9762171889492625</speed>
  <fix>3d</fix>
</trkpt>
<trkpt lat="33.8107428" lon="-118.3937405">
  <ele>-25.319</ele>
  <time>2026-09-02T22:11:32Z</time>
  <course>19.95</course>
  <speed>0.9762171889492625</speed>
  <fix>3d</fix>
</trkpt>
<trkpt lat="33.8107428" lon="-118.3937405">
  <ele>-25.319</ele>
  <time>2026-09-02T22:11:32Z</time>
  <course>19.95</course>
  <speed>0.9762171889492625</speed>
  <fix>3d</fix>
</trkpt>
<trkpt lat="33.8107429" lon="-118.3937404">
  <ele>-25.319</ele>
  <time>2026-09-02T22:11:32Z</time>
  <course>19.95</course>
  <speed>0.9762171889492625</speed>
  <fix>3d</fix>
</trkpt>
<trkpt lat="33.8107429" lon="-118.3937404">
  <ele>-25.319</ele>
  <time>2026-09-02T22:11:32Z</time>
  <course>19.95</course>
  <speed>0.9762171889492625</speed>
  <fix>3d</fix>
</trkpt>
<trkpt lat="33.810743" lon="-118.3937403">
  <ele>-25.319</ele>
  <time>2026-09-02T22:11:32Z</time>
  <course>19.95</course>
  <speed>0.9762171889492625</speed>
  <fix>3d</fix>
</trkpt>
<trkpt lat="33.810743" lon="-118.3937403">
  <ele>-25.319</ele>
  <time>2026-09-02T22:11:32Z</time>
  <course>19.95</course>
  <speed>0.9762171889492625</speed>
  <fix>3d</fix>
</trkpt>
<trkpt lat="33.810743" lon="-118.3937403">
  <ele>-25.319</ele>
  <time>2026-09-02T22:11:32Z</time>
  <course>19.95</course>
  <speed>0.9762171889492625</speed>
  <fix>3d</fix>
</trkpt>
<trkpt lat="33.810743" lon="-118.3937402">
  <ele>-25.32</ele>
  <time>2026-09-02T22:11:32Z</time>
  <course>19.95</course>
  <speed>0.9762171889492625</speed>
  <fix>3d</fix>
</trkpt>
<trkpt lat="33.8107424" lon="-118.3937414">
  <ele>-24.7</ele>
  <time>2026-09-02T22:11:32Z</time>
  <course>45.07</course>
  <speed>0.98</speed>
  <fix>3d</fix>
</trkpt>
<trkpt lat="33.8107431" lon="-118.3937402">
  <ele>-25.32</ele>
  <time>2026-09-02T22:11:32Z</time>
  <course>19.95</course>
  <speed>0.9762171889492625</speed>
  <fix>3d</fix>
</trkpt>
<trkpt lat="33.8107431" lon="-118.3937402">
  <ele>-25.32</ele>
  <time>2026-09-02T22:11:32Z</time>
  <course>19.95</course>
  <speed>0.9762171889492625</speed>
  <fix>3d</fix>
</trkpt>
<trkpt lat="33.8107431" lon="-118.3937401">
  <ele>-25.32</ele>
  <time>2026-09-02T22:11:32Z</time>
  <course>19.95</course>
  <speed>0.9762171889492625</speed>
  <fix>3d</fix>
</trkpt>
<trkpt lat="33.8107432" lon="-118.39374">
  <ele>-25.32</ele>
  <time>2026-09-02T22:11:32Z</time>
  <course>19.95</course>
  <speed>0.9762171889492625</speed>
  <fix>3d</fix>
</trkpt>
<trkpt lat="33.8107432" lon="-118.39374">
  <ele>-25.32</ele>
  <time>2026-09-02T22:11:32Z</time>
  <course>19.95</course>
  <speed>0.9762171889492625</speed>
  <fix>3d</fix>
</trkpt>
<trkpt lat="33.8107433" lon="-118.39374">
  <ele>-25.32</ele>
  <time>2026-09-02T22:11:32Z</time>
  <course>19.95</course>
  <speed>0.9762171889492625</speed>
  <fix>3d</fix>
</trkpt>
<trkpt lat="33.8107433" lon="-118.3937399">
  <ele>-25.321</ele>
  <time>2026-09-02T22:11:32Z</time>
  <course>19.95</course>
  <speed>0.9762171889492625</speed>
  <fix>3d</fix>
</trkpt>
<trkpt lat="33.8107433" lon="-118.3937399">
  <ele>-25.321</ele>
  <time>2026-09-02T22:11:32Z</time>
  <course>19.95</course>
  <speed>0.9762171889492625</speed>
  <fix>3d</fix>
</trkpt>
<trkpt lat="33.8107434" lon="-118.3937399">
  <ele>-25.321</ele>
  <time>2026-09-02T22:11:32Z</time>
  <course>19.95</course>
  <speed>0.9762171889492625</speed>
  <fix>3d</fix>
</trkpt>
<trkpt lat="33.8107434" lon="-118.3937398">
  <ele>-25.321</ele>
  <time>2026-09-02T22:11:32Z</time>
  <course>19.95</course>
  <speed>0.9762171889492625</speed>
  <fix>3d</fix>
</trkpt>
<trkpt lat="33.8107434" lon="-118.3937398">
  <ele>-25.321</ele>
  <time>2026-09-02T22:11:32Z</time>
  <course>19.95</course>
  <speed>0.9762171889492625</speed>
  <fix>3d</fix>
</trkpt>
<trkpt lat="33.8107435" lon="-118.3937397">
  <ele>-25.321</ele>
  <time>2026-09-02T22:11:32Z</time>
  <course>19.95</course>
  <speed>0.9762171889492625</speed>
  <fix>3d</fix>
</trkpt>
<trkpt lat="33.8107435" lon="-118.3937397">
  <ele>-25.322</ele>
  <time>2026-09-02T22:11:32Z</time>
  <course>19.95</course>
  <speed>0.9762171889492625</speed>
  <fix>3d</fix>
</trkpt>
<trkpt lat="33.8107436" lon="-118.3937396">
  <ele>-25.322</ele>
  <time>2026-09-02T22:11:32Z</time>
  <course>19.95</course>
  <speed>0.9762171889492625</speed>
  <fix>3d</fix>
</trkpt>
<trkpt lat="33.8107436" lon="-118.3937395">
  <ele>-25.322</ele>
  <time>2026-09-02T22:11:32Z</time>
  <course>19.95</course>
  <speed>0.9762171889492625</speed>
  <fix>3d</fix>
</trkpt>
<trkpt lat="33.8107437" lon="-118.3937395">
  <ele>-25.322</ele>
  <time>2026-09-02T22:11:32Z</time>
  <course>19.95</course>
  <speed>0.9762171889492625</speed>
  <fix>3d</fix>
</trkpt>
<trkpt lat="33.8107437" lon="-118.3937395">
  <ele>-25.322</ele>
  <time>2026-09-02T22:11:32Z</time>
  <course>19.95</course>
  <speed>0.9762171889492625</speed>
  <fix>3d</fix>
</trkpt>
<trkpt lat="33.8107424" lon="-118.3937414">
  <ele>-24.7</ele>
  <time>2026-09-02T22:11:32Z</time>
  <course>45.07</course>
  <speed>0.98</speed>
  <fix>3d</fix>
</trkpt>
<trkpt lat="33.8107437" lon="-118.3937394">
  <ele>-25.323</ele>
  <time>2026-09-02T22:11:32Z</time>
  <course>19.95</course>
  <speed>0.9762171889492625</speed>
  <fix>3d</fix>
</trkpt>
<trkpt lat="33.8107438" lon="-118.3937393">
  <ele>-25.323</ele>
  <time>2026-09-02T22:11:32Z</time>
  <course>19.95</course>
  <speed>0.9762171889492625</speed>
  <fix>3d</fix>
</trkpt>
<trkpt lat="33.8107438" lon="-118.3937393">
  <ele>-25.323</ele>
  <time>2026-09-02T22:11:32Z</time>
  <course>19.95</course>
  <speed>0.9762171889492625</speed>
  <fix>3d</fix>
</trkpt>
<trkpt lat="33.8107439" lon="-118.3937392">
  <ele>-25.323</ele>
  <time>2026-09-02T22:11:32Z</time>
  <course>19.95</course>
  <speed>0.9762171889492625</speed>
  <fix>3d</fix>
</trkpt>
<trkpt lat="33.8107439" lon="-118.3937392">
  <ele>-25.323</ele>
  <time>2026-09-02T22:11:32Z</time>
  <course>19.95</course>
  <speed>0.9762171889492625</speed>
  <fix>3d</fix>
</trkpt>
<trkpt lat="33.8107439" lon="-118.3937392">
  <ele>-25.324</ele>
  <time>2026-09-02T22:11:32Z</time>
  <course>19.95</course>
  <speed>0.9762171889492625</speed>
  <fix>3d</fix>
</trkpt>
<trkpt lat="33.8107439" lon="-118.3937391">
  <ele>-25.324</ele>
  <time>2026-09-02T22:11:32Z</time>
  <course>19.95</course>
  <speed>0.9762171889492625</speed>
  <fix>3d</fix>
</trkpt>
<trkpt lat="33.810744" lon="-118.3937391">
  <ele>-25.324</ele>
  <time>2026-09-02T22:11:32Z</time>
  <course>19.95</course>
  <speed>0.9762171889492625</speed>
  <fix>3d</fix>
</trkpt>
<trkpt lat="33.810744" lon="-118.3937391">
  <ele>-25.324</ele>
  <time>2026-09-02T22:11:32Z</time>
  <course>19.95</course>
  <speed>0.9762171889492625</speed>
  <fix>3d</fix>
</trkpt>
<trkpt lat="33.810744" lon="-118.393739">
  <ele>-25.324</ele>
  <time>2026-09-02T22:11:32Z</time>
  <course>19.95</course>
  <speed>0.9762171889492625</speed>
  <fix>3d</fix>
</trkpt>
<trkpt lat="33.8107441" lon="-118.393739">
  <ele>-25.324</ele>
  <time>2026-09-02T22:11:32Z</time>
  <course>19.95</course>
  <speed>0.9762171889492625</speed>
  <fix>3d</fix>
</trkpt>
<trkpt lat="33.8107441" lon="-118.3937389">
  <ele>-25.325</ele>
  <time>2026-09-02T22:11:32Z</time>
  <course>19.95</course>
  <speed>0.9762171889492625</speed>
  <fix>3d</fix>
</trkpt>
<trkpt lat="33.8107442" lon="-118.3937389">
  <ele>-25.325</ele>
  <time>2026-09-02T22:11:32Z</time>
  <course>19.95</course>
  <speed>0.9762171889492625</speed>
  <fix>3d</fix>
</trkpt>
<trkpt lat="33.8107442" lon="-118.3937388">
  <ele>-25.325</ele>
  <time>2026-09-02T22:11:32Z</time>
  <course>19.95</course>
  <speed>0.9762171889492625</speed>
  <fix>3d</fix>
</trkpt>
<trkpt lat="33.8107443" lon="-118.3937388">
  <ele>-25.325</ele>
  <time>2026-09-02T22:11:32Z</time>
  <course>19.96</course>
  <speed>0.9762171889492625</speed>
  <fix>3d</fix>
</trkpt>
<trkpt lat="33.8107443" lon="-118.3937387">
  <ele>-25.326</ele>
  <time>2026-09-02T22:11:32Z</time>
  <course>19.96</course>
  <speed>0.9762171889492625</speed>
  <fix>3d</fix>
</trkpt>
<trkpt lat="33.8107443" lon="-118.3937387">
  <ele>-25.326</ele>
  <time>2026-09-02T22:11:32Z</time>
  <course>19.96</course>
  <speed>0.9762171889492625</speed>
  <fix>3d</fix>
</trkpt>
<trkpt lat="33.8107437" lon="-118.3937399">
  <ele>-24.7</ele>
  <time>2026-09-02T22:11:32Z</time>
  <course>44.99</course>
  <speed>0.99</speed>
  <fix>3d</fix>
</trkpt>
<trkpt lat="33.8107444" lon="-118.3937386">
  <ele>-25.326</ele>
  <time>2026-09-02T22:11:32Z</time>
  <course>19.96</course>
  <speed>0.9762171889492625</speed>
  <fix>3d</fix>
</trkpt>
<trkpt lat="33.8107444" lon="-118.3937386">
  <ele>-25.326</ele>
  <time>2026-09-02T22:11:32Z</time>
  <course>19.96</course>
  <speed>0.9762171889492625</speed>
  <fix>3d</fix>
</trkpt>
<trkpt lat="33.8107445" lon="-118.3937385">
  <ele>-25.327</ele>
  <time>2026-09-02T22:11:32Z</time>
  <course>19.96</course>
  <speed>0.9762171889492625</speed>
  <fix>3d</fix>
</trkpt>
<trkpt lat="33.8107445" lon="-118.3937385">
  <ele>-25.327</ele>
  <time>2026-09-02T22:11:32Z</time>
  <course>19.96</course>
  <speed>0.9762171889492625</speed>
  <fix>3d</fix>
</trkpt>
<trkpt lat="33.8107445" lon="-118.3937384">
  <ele>-25.327</ele>
  <time>2026-09-02T22:11:32Z</time>
  <course>19.96</course>
  <speed>0.9762171889492625</speed>
  <fix>3d</fix>
</trkpt>
<trkpt lat="33.8107446" lon="-118.3937384">
  <ele>-25.327</ele>
  <time>2026-09-02T22:11:32Z</time>
  <course>19.96</course>
  <speed>0.9762171889492625</speed>
  <fix>3d</fix>
</trkpt>
<trkpt lat="33.8107446" lon="-118.3937383">
  <ele>-25.327</ele>
  <time>2026-09-02T22:11:32Z</time>
  <course>19.96</course>
  <speed>0.9762171889492625</speed>
  <fix>3d</fix>
</trkpt>
<trkpt lat="33.8107447" lon="-118.3937383">
  <ele>-25.328</ele>
  <time>2026-09-02T22:11:32Z</time>
  <course>19.96</course>
  <speed>0.9762171889492625</speed>
  <fix>3d</fix>
</trkpt>
<trkpt lat="33.8107447" lon="-118.3937382">
  <ele>-25.328</ele>
  <time>2026-09-02T22:11:32Z</time>
  <course>19.96</course>
  <speed>0.9762171889492625</speed>
  <fix>3d</fix>
</trkpt>
<trkpt lat="33.8107447" lon="-118.3937382">
  <ele>-25.328</ele>
  <time>2026-09-02T22:11:32Z</time>
  <course>19.96</course>
  <speed>0.9762171889492625</speed>
  <fix>3d</fix>
</trkpt>
<trkpt lat="33.8107448" lon="-118.3937382">
  <ele>-25.328</ele>
  <time>2026-09-02T22:11:32Z</time>
  <course>19.96</course>
  <speed>0.9762171889492625</speed>
  <fix>3d</fix>
</trkpt>
<trkpt lat="33.8107448" lon="-118.3937381">
  <ele>-25.328</ele>
  <time>2026-09-02T22:11:32Z</time>
  <course>19.96</course>
  <speed>0.9762171889492625</speed>
  <fix>3d</fix>
</trkpt>
<trkpt lat="33.8107448" lon="-118.3937381">
  <ele>-25.328</ele>
  <time>2026-09-02T22:11:32Z</time>
  <course>19.96</course>
  <speed>0.9762171889492625</speed>
  <fix>3d</fix>
</trkpt>
<trkpt lat="33.8107448" lon="-118.3937381">
  <ele>-25.328</ele>
  <time>2026-09-02T22:11:32Z</time>
  <course>19.96</course>
  <speed>0.9762171889492625</speed>
  <fix>3d</fix>
</trkpt>
<trkpt lat="33.8107449" lon="-118.393738">
  <ele>-25.328</ele>
  <time>2026-09-02T22:11:32Z</time>
  <course>19.96</course>
  <speed>0.9762171889492625</speed>
  <fix>3d</fix>
</trkpt>
<trkpt lat="33.8107449" lon="-118.393738">
  <ele>-25.329</ele>
  <time>2026-09-02T22:11:32Z</time>
  <course>19.96</course>
  <speed>0.9762171889492625</speed>
  <fix>3d</fix>
</trkpt>
<trkpt lat="33.8107449" lon="-118.393738">
  <ele>-25.329</ele>
  <time>2026-09-02T22:11:32Z</time>
  <course>19.96</course>
  <speed>0.9762171889492625</speed>
  <fix>3d</fix>
</trkpt>
<trkpt lat="33.8107437" lon="-118.3937399">
  <ele>-24.7</ele>
  <time>2026-09-02T22:11:32Z</time>
  <course>44.99</course>
  <speed>0.99</speed>
  <fix>3d</fix>
</trkpt>
<trkpt lat="33.8107449" lon="-118.3937379">
  <ele>-25.329</ele>
  <time>2026-09-02T22:11:32Z</time>
  <course>19.96</course>
  <speed>0.9762171889492625</speed>
  <fix>3d</fix>
</trkpt>
<trkpt lat="33.810745" lon="-118.3937379">
  <ele>-25.329</ele>
  <time>2026-09-02T22:11:32Z</time>
  <course>19.96</course>
  <speed>0.9762171889492625</speed>
  <fix>3d</fix>
</trkpt>
<trkpt lat="33.810745" lon="-118.3937379">
  <ele>-25.329</ele>
  <time>2026-09-02T22:11:32Z</time>
  <course>19.96</course>
  <speed>0.9762171889492625</speed>
  <fix>3d</fix>
</trkpt>
<trkpt lat="33.810745" lon="-118.3937378">
  <ele>-25.329</ele>
  <time>2026-09-02T22:11:32Z</time>
  <course>19.96</course>
  <speed>0.9762171889492625</speed>
  <fix>3d</fix>
</trkpt>
<trkpt lat="33.8107451" lon="-118.3937378">
  <ele>-25.329</ele>
  <time>2026-09-02T22:11:32Z</time>
  <course>19.96</course>
  <speed>0.9762171889492625</speed>
  <fix>3d</fix>
</trkpt>
<trkpt lat="33.8107451" lon="-118.3937377">
  <ele>-25.329</ele>
  <time>2026-09-02T22:11:32Z</time>
  <course>19.96</course>
  <speed>0.9762171889492625</speed>
  <fix>3d</fix>
</trkpt>
<trkpt lat="33.8107452" lon="-118.3937377">
  <ele>-25.329</ele>
  <time>2026-09-02T22:11:32Z</time>
  <course>19.96</course>
  <speed>0.9762171889492625</speed>
  <fix>3d</fix>
</trkpt>
<trkpt lat="33.8107452" lon="-118.3937376">
  <ele>-25.33</ele>
  <time>2026-09-02T22:11:32Z</time>
  <course>19.96</course>
  <speed>0.9762171889492625</speed>
  <fix>3d</fix>
</trkpt>
<trkpt lat="33.8107452" lon="-118.3937376">
  <ele>-25.33</ele>
  <time>2026-09-02T22:11:32Z</time>
  <course>19.96</course>
  <speed>0.9762171889492625</speed>
  <fix>3d</fix>
</trkpt>
<trkpt lat="33.8107453" lon="-118.3937375">
  <ele>-25.33</ele>
  <time>2026-09-02T22:11:32Z</time>
  <course>19.96</course>
  <speed>0.9762171889492625</speed>
  <fix>3d</fix>
</trkpt>
<trkpt lat="33.8107453" lon="-118.3937375">
  <ele>-25.33</ele>
  <time>2026-09-02T22:11:32Z</time>
  <course>19.96</course>
  <speed>0.9762171889492625</speed>
  <fix>3d</fix>
</trkpt>
<trkpt lat="33.8107453" lon="-118.3937374">
  <ele>-25.33</ele>
  <time>2026-09-02T22:11:32Z</time>
  <course>19.96</course>
  <speed>0.9762171889492625</speed>
  <fix>3d</fix>
</trkpt>
<trkpt lat="33.8107454" lon="-118.3937374">
  <ele>-25.33</ele>
  <time>2026-09-02T22:11:32Z</time>
  <course>19.96</course>
  <speed>0.9762171889492625</speed>
  <fix>3d</fix>
</trkpt>
<trkpt lat="33.8107454" lon="-118.3937373">
  <ele>-25.331</ele>
  <time>2026-09-02T22:11:32Z</time>
  <course>19.96</course>
  <speed>0.9762171889492625</speed>
  <fix>3d</fix>
</trkpt>
<trkpt lat="33.8107455" lon="-118.3937373">
  <ele>-25.331</ele>
  <time>2026-09-02T22:11:32Z</time>
  <course>19.96</course>
  <speed>0.9762171889492625</speed>
  <fix>3d</fix>
</trkpt>
<trkpt lat="33.8107455" lon="-118.3937373">
  <ele>-25.331</ele>
  <time>2026-09-02T22:11:32Z</time>
  <course>19.96</course>
  <speed>0.9762171889492625</speed>
  <fix>3d</fix>
</trkpt>
<trkpt lat="33.8107456" lon="-118.3937372">
  <ele>-25.331</ele>
  <time>2026-09-02T22:11:32Z</time>
  <course>19.96</course>
  <speed>0.9762171889492625</speed>
  <fix>3d</fix>
</trkpt>
<trkpt lat="33.8107456" lon="-118.3937372">
  <ele>-25.331</ele>
  <time>2026-09-02T22:11:32Z</time>
  <course>19.96</course>
  <speed>0.9762171889492625</speed>
  <fix>3d</fix>
</trkpt>
<trkpt lat="33.810745" lon="-118.3937384">
  <ele>-24.71</ele>
  <time>2026-09-02T22:11:32Z</time>
  <course>44.91</course>
  <speed>0.99</speed>
  <fix>3d</fix>
</trkpt>
<trkpt lat="33.8107456" lon="-118.3937371">
  <ele>-25.331</ele>
  <time>2026-09-02T22:11:32Z</time>
  <course>19.96</course>
  <speed>0.9762171889492625</speed>
  <fix>3d</fix>
</trkpt>
<trkpt lat="33.8107457" lon="-118.3937371">
  <ele>-25.331</ele>
  <time>2026-09-02T22:11:32Z</time>
  <course>19.96</course>
  <speed>0.9762171889492625</speed>
  <fix>3d</fix>
</trkpt>
<trkpt lat="33.8107457" lon="-118.393737">
  <ele>-25.332</ele>
  <time>2026-09-02T22:11:32Z</time>
  <course>19.96</course>
  <speed>0.9762171889492625</speed>
  <fix>3d</fix>
</trkpt>
<trkpt lat="33.8107458" lon="-118.393737">
  <ele>-25.332</ele>
  <time>2026-09-02T22:11:32Z</time>
  <course>19.96</course>
  <speed>0.9762171889492625</speed>
  <fix>3d</fix>
</trkpt>
<trkpt lat="33.8107458" lon="-118.3937369">
  <ele>-25.332</ele>
  <time>2026-09-02T22:11:32Z</time>
  <course>19.96</course>
  <speed>0.9762171889492625</speed>
  <fix>3d</fix>
</trkpt>
<trkpt lat="33.8107458" lon="-118.3937369">
  <ele>-25.332</ele>
  <time>2026-09-02T22:11:32Z</time>
  <course>19.96</course>
  <speed>0.9762171889492625</speed>
  <fix>3d</fix>
</trkpt>
<trkpt lat="33.8107459" lon="-118.3937368">
  <ele>-25.332</ele>
  <time>2026-09-02T22:11:32Z</time>
  <course>19.95</course>
  <speed>0.9762171889492625</speed>
  <fix>3d</fix>
</trkpt>
<trkpt lat="33.8107459" lon="-118.3937368">
  <ele>-25.332</ele>
  <time>2026-09-02T22:11:32Z</time>
  <course>19.95</course>
  <speed>0.9762171889492625</speed>
  <fix>3d</fix>
</trkpt>
<trkpt lat="33.8107459" lon="-118.3937368">
  <ele>-25.332</ele>
  <time>2026-09-02T22:11:32Z</time>
  <course>19.95</course>
  <speed>0.9762171889492625</speed>
  <fix>3d</fix>
</trkpt>
<trkpt lat="33.810746" lon="-118.3937367">
  <ele>-25.333</ele>
  <time>2026-09-02T22:11:32Z</time>
  <course>19.95</course>
  <speed>0.9762171889492625</speed>
  <fix>3d</fix>
</trkpt>
<trkpt lat="33.810746" lon="-118.3937367">
  <ele>-25.333</ele>
  <time>2026-09-02T22:11:32Z</time>
  <course>19.95</course>
  <speed>0.9762171889492625</speed>
  <fix>3d</fix>
</trkpt>
<trkpt lat="33.8107461" lon="-118.3937366">
  <ele>-25.333</ele>
  <time>2026-09-02T22:11:32Z</time>
  <course>19.95</course>
  <speed>0.9762171889492625</speed>
  <fix>3d</fix>
</trkpt>
<trkpt lat="33.8107461" lon="-118.3937365">
  <ele>-25.333</ele>
  <time>2026-09-02T22:11:32Z</time>
  <course>19.95</course>
  <speed>0.9762171889492625</speed>
  <fix>3d</fix>
</trkpt>
<trkpt lat="33.8107462" lon="-118.3937365">
  <ele>-25.333</ele>
  <time>2026-09-02T22:11:32Z</time>
  <course>19.95</course>
  <speed>0.9762171889492625</speed>
  <fix>3d</fix>
</trkpt>
<trkpt lat="33.8107462" lon="-118.3937364">
  <ele>-25.334</ele>
  <time>2026-09-02T22:11:32Z</time>
  <course>19.95</course>
  <speed>0.9762171889492625</speed>
  <fix>3d</fix>
</trkpt>
<trkpt lat="33.810745" lon="-118.3937384">
  <ele>-24.71</ele>
  <time>2026-09-02T22:11:32Z</time>
  <course>44.91</course>
  <speed>0.99</speed>
  <fix>3d</fix>
</trkpt>
<trkpt lat="33.8107462" lon="-118.3937364">
  <ele>-25.334</ele>
  <time>2026-09-02T22:11:32Z</time>
  <course>19.95</course>
  <speed>0.9762171889492625</speed>
  <fix>3d</fix>
</trkpt>
<trkpt lat="33.8107462" lon="-118.3937364">
  <ele>-25.334</ele>
  <time>2026-09-02T22:11:32Z</time>
  <course>19.95</course>
  <speed>0.9762171889492625</speed>
  <fix>3d</fix>
</trkpt>
<trkpt lat="33.8107463" lon="-118.3937363">
  <ele>-25.334</ele>
  <time>2026-09-02T22:11:32Z</time>
  <course>19.95</course>
  <speed>0.9762171889492625</speed>
  <fix>3d</fix>
</trkpt>
<trkpt lat="33.8107463" lon="-118.3937363">
  <ele>-25.334</ele>
  <time>2026-09-02T22:11:32Z</time>
  <course>19.95</course>
  <speed>0.9762171889492625</speed>
  <fix>3d</fix>
</trkpt>
<trkpt lat="33.8107464" lon="-118.3937362">
  <ele>-25.334</ele>
  <time>2026-09-02T22:11:32Z</time>
  <course>19.95</course>
  <speed>0.9762171889492625</speed>
  <fix>3d</fix>
</trkpt>
<trkpt lat="33.8107464" lon="-118.3937362">
  <ele>-25.335</ele>
  <time>2026-09-02T22:11:32Z</time>
  <course>19.95</course>
  <speed>0.9762171889492625</speed>
  <fix>3d</fix>
</trkpt>
<trkpt lat="33.8107465" lon="-118.3937361">
  <ele>-25.335</ele>
  <time>2026-09-02T22:11:32Z</time>
  <course>19.95</course>
  <speed>0.9762171889492625</speed>
  <fix>3d</fix>
</trkpt>
<trkpt lat="33.8107465" lon="-118.3937361">
  <ele>-25.335</ele>
  <time>2026-09-02T22:11:32Z</time>
  <course>19.96</course>
  <speed>0.9762171889492625</speed>
  <fix>3d</fix>
</trkpt>
<trkpt lat="33.8107465" lon="-118.393736">
  <ele>-25.335</ele>
  <time>2026-09-02T22:11:32Z</time>
  <course>19.96</course>
  <speed>0.9762171889492625</speed>
  <fix>3d</fix>
</trkpt>
<trkpt lat="33.8107466" lon="-118.393736">
  <ele>-25.335</ele>
  <time>2026-09-02T22:11:32Z</time>
  <course>19.96</course>
  <speed>0.9762171889492625</speed>
  <fix>3d</fix>
</trkpt>
<trkpt lat="33.8107466" lon="-118.3937359">
  <ele>-25.336</ele>
  <time>2026-09-02T22:11:32Z</time>
  <course>19.96</course>
  <speed>0.9762171889492625</speed>
  <fix>3d</fix>
</trkpt>
<trkpt lat="33.8107467" lon="-118.3937359">
  <ele>-25.336</ele>
  <time>2026-09-02T22:11:32Z</time>
  <course>19.96</course>
  <speed>0.9762171889492625</speed>
  <fix>3d</fix>
</trkpt>
<trkpt lat="33.8107467" lon="-118.3937358">
  <ele>-25.336</ele>
  <time>2026-09-02T22:11:32Z</time>
  <course>19.96</course>
  <speed>0.9762171889492625</speed>
  <fix>3d</fix>
</trkpt>
<trkpt lat="33.8107467" lon="-118.3937358">
  <ele>-25.336</ele>
  <time>2026-09-02T22:11:32Z</time>
  <course>19.96</course>
  <speed>0.9762171889492625</speed>
  <fix>3d</fix>
</trkpt>
<trkpt lat="33.8107468" lon="-118.3937357">
  <ele>-25.336</ele>
  <time>2026-09-02T22:11:32Z</time>
  <course>19.96</course>
  <speed>0.9762171889492625</speed>
  <fix>3d</fix>
</trkpt>
<trkpt lat="33.8107468" lon="-118.3937357">
  <ele>-25.336</ele>
  <time>2026-09-02T22:11:32Z</time>
  <course>19.96</course>
  <speed>0.9762171889492625</speed>
  <fix>3d</fix>
</trkpt>
<trkpt lat="33.8107468" lon="-118.3937357">
  <ele>-25.336</ele>
  <time>2026-09-02T22:11:32Z</time>
  <course>19.96</course>
  <speed>0.9762171889492625</speed>
  <fix>3d</fix>
</trkpt>
<trkpt lat="33.8107462" lon="-118.3937369">
  <ele>-24.72</ele>
  <time>2026-09-02T22:11:32Z</time>
  <course>44.88</course>
  <speed>0.99</speed>
  <fix>3d</fix>
</trkpt>
<trkpt lat="33.8107469" lon="-118.3937356">
  <ele>-25.337</ele>
  <time>2026-09-02T22:11:32Z</time>
  <course>19.96</course>
  <speed>0.9762171889492625</speed>
  <fix>3d</fix>
</trkpt>
<trkpt lat="33.810747" lon="-118.3937355">
  <ele>-25.337</ele>
  <time>2026-09-02T22:11:32Z</time>
  <course>19.96</course>
  <speed>0.9762171889492625</speed>
  <fix>3d</fix>
</trkpt>
<trkpt lat="33.810747" lon="-118.3937355">
  <ele>-25.337</ele>
  <time>2026-09-02T22:11:32Z</time>
  <course>19.96</course>
  <speed>0.9762171889492625</speed>
  <fix>3d</fix>
</trkpt>
<trkpt lat="33.8107471" lon="-118.3937354">
  <ele>-25.337</ele>
  <time>2026-09-02T22:11:32Z</time>
  <course>19.96</course>
  <speed>0.9762171889492625</speed>
  <fix>3d</fix>
</trkpt>
<trkpt lat="33.8107471" lon="-118.3937353">
  <ele>-25.337</ele>
  <time>2026-09-02T22:11:32Z</time>
  <course>19.96</course>
  <speed>0.9762171889492625</speed>
  <fix>3d</fix>
</trkpt>
<trkpt lat="33.8107472" lon="-118.3937353">
  <ele>-25.338</ele>
  <time>2026-09-02T22:11:32Z</time>
  <course>19.96</course>
  <speed>0.9762171889492625</speed>
  <fix>3d</fix>
</trkpt>
<trkpt lat="33.8107472" lon="-118.3937352">
  <ele>-25.338</ele>
  <time>2026-09-02T22:11:32Z</time>
  <course>19.96</course>
  <speed>0.9762171889492625</speed>
  <fix>3d</fix>
</trkpt>
<trkpt lat="33.8107472" lon="-118.3937352">
  <ele>-25.338</ele>
  <time>2026-09-02T22:11:32Z</time>
  <course>19.96</course>
  <speed>0.9762171889492625</speed>
  <fix>3d</fix>
</trkpt>
<trkpt lat="33.8107473" lon="-118.3937351">
  <ele>-25.338</ele>
  <time>2026-09-02T22:11:32Z</time>
  <course>19.96</course>
  <speed>0.9762171889492625</speed>
  <fix>3d</fix>
</trkpt>
<trkpt lat="33.8107473" lon="-118.3937351">
  <ele>-25.338</ele>
  <time>2026-09-02T22:11:32Z</time>
  <course>19.96</course>
  <speed>0.9762171889492625</speed>
  <fix>3d</fix>
</trkpt>
<trkpt lat="33.8107474" lon="-118.393735">
  <ele>-25.339</ele>
  <time>2026-09-02T22:11:32Z</time>
  <course>19.96</course>
  <speed>0.9762171889492625</speed>
  <fix>3d</fix>
</trkpt>
<trkpt lat="33.8107474" lon="-118.393735">
  <ele>-25.339</ele>
  <time>2026-09-02T22:11:32Z</time>
  <course>19.96</course>
  <speed>0.9762171889492625</speed>
  <fix>3d</fix>
</trkpt>
<trkpt lat="33.8107474" lon="-118.3937349">
  <ele>-25.339</ele>
  <time>2026-09-02T22:11:32Z</time>
  <course>19.96</course>
  <speed>0.9762171889492625</speed>
  <fix>3d</fix>
</trkpt>
<trkpt lat="33.8107475" lon="-118.3937349">
  <ele>-25.339</ele>
  <time>2026-09-02T22:11:32Z</time>
  <course>19.96</course>
  <speed>0.9762171889492625</speed>
  <fix>3d</fix>
</trkpt>
<trkpt lat="33.8107462" lon="-118.3937369">
  <ele>-24.72</ele>
  <time>2026-09-02T22:11:32Z</time>
  <course>44.88</course>
  <speed>0.99</speed>
  <fix>3d</fix>
</trkpt>
<trkpt lat="33.8107475" lon="-118.3937349">
  <ele>-25.339</ele>
  <time>2026-09-02T22:11:32Z</time>
  <course>19.96</course>
  <speed>0.9762171889492625</speed>
  <fix>3d</fix>
</trkpt>
<trkpt lat="33.8107475" lon="-118.3937348">
  <ele>-25.339</ele>
  <time>2026-09-02T22:11:32Z</time>
  <course>19.96</course>
  <speed>0.9762171889492625</speed>
  <fix>3d</fix>
</trkpt>
<trkpt lat="33.8107475" lon="-118.3937348">
  <ele>-25.339</ele>
  <time>2026-09-02T22:11:32Z</time>
  <course>19.96</course>
  <speed>0.9762171889492625</speed>
  <fix>3d</fix>
</trkpt>
<trkpt lat="33.8107476" lon="-118.3937348">
  <ele>-25.34</ele>
  <time>2026-09-02T22:11:32Z</time>
  <course>19.96</course>
  <speed>0.9762171889492625</speed>
  <fix>3d</fix>
</trkpt>
<trkpt lat="33.8107476" lon="-118.3937347">
  <ele>-25.34</ele>
  <time>2026-09-02T22:11:32Z</time>
  <course>19.96</course>
  <speed>0.9762171889492625</speed>
  <fix>3d</fix>
</trkpt>
<trkpt lat="33.8107477" lon="-118.3937347">
  <ele>-25.34</ele>
  <time>2026-09-02T22:11:32Z</time>
  <course>19.96</course>
  <speed>0.9762171889492625</speed>
  <fix>3d</fix>
</trkpt>
<trkpt lat="33.8107477" lon="-118.3937346">
  <ele>-25.34</ele>
  <time>2026-09-02T22:11:32Z</time>
  <course>19.96</course>
  <speed>0.9762171889492625</speed>
  <fix>3d</fix>
</trkpt>
<trkpt lat="33.8107477" lon="-118.3937346">
  <ele>-25.34</ele>
  <time>2026-09-02T22:11:32Z</time>
  <course>19.96</course>
  <speed>0.9762171889492625</speed>
  <fix>3d</fix>
</trkpt>
<trkpt lat="33.8107478" lon="-118.3937345">
  <ele>-25.34</ele>
  <time>2026-09-02T22:11:32Z</time>
  <course>19.96</course>
  <speed>0.9762171889492625</speed>
  <fix>3d</fix>
</trkpt>
<trkpt lat="33.8107478" lon="-118.3937345">
  <ele>-25.341</ele>
  <time>2026-09-02T22:11:32Z</time>
  <course>19.96</course>
  <speed>0.9762171889492625</speed>
  <fix>3d</fix>
</trkpt>
<trkpt lat="33.8107479" lon="-118.3937344">
  <ele>-25.341</ele>
  <time>2026-09-02T22:11:32Z</time>
  <course>19.96</course>
  <speed>0.9762171889492625</speed>
  <fix>3d</fix>
</trkpt>
<trkpt lat="33.8107479" lon="-118.3937344">
  <ele>-25.341</ele>
  <time>2026-09-02T22:11:32Z</time>
  <course>19.96</course>
  <speed>0.9762171889492625</speed>
  <fix>3d</fix>
</trkpt>
<trkpt lat="33.8107479" lon="-118.3937344">
  <ele>-25.341</ele>
  <time>2026-09-02T22:11:32Z</time>
  <course>19.96</course>
  <speed>0.9762171889492625</speed>
  <fix>3d</fix>
</trkpt>
<trkpt lat="33.810748" lon="-118.3937343">
  <ele>-25.341</ele>
  <time>2026-09-02T22:11:32Z</time>
  <course>19.96</course>
  <speed>0.9762171889492625</speed>
  <fix>3d</fix>
</trkpt>
<trkpt lat="33.810748" lon="-118.3937343">
  <ele>-25.341</ele>
  <time>2026-09-02T22:11:32Z</time>
  <course>19.96</course>
  <speed>0.9762171889492625</speed>
  <fix>3d</fix>
</trkpt>
<trkpt lat="33.8107481" lon="-118.3937342">
  <ele>-25.341</ele>
  <time>2026-09-02T22:11:32Z</time>
  <course>19.96</course>
  <speed>0.9762171889492625</speed>
  <fix>3d</fix>
</trkpt>
<trkpt lat="33.8107481" lon="-118.3937342">
  <ele>-25.341</ele>
  <time>2026-09-02T22:11:32Z</time>
  <course>19.96</course>
  <speed>0.9762171889492625</speed>
  <fix>3d</fix>
</trkpt>
<trkpt lat="33.8107475" lon="-118.3937354">
  <ele>-24.72</ele>
  <time>2026-09-02T22:11:32Z</time>
  <course>44.88</course>
  <speed>0.99</speed>
  <fix>3d</fix>
</trkpt>
<trkpt lat="33.8107481" lon="-118.3937341">
  <ele>-25.341</ele>
  <time>2026-09-02T22:11:32Z</time>
  <course>19.96</course>
  <speed>0.9762171889492625</speed>
  <fix>3d</fix>
</trkpt>
<trkpt lat="33.8107482" lon="-118.393734">
  <ele>-25.342</ele>
  <time>2026-09-02T22:11:32Z</time>
  <course>19.96</course>
  <speed>0.9762171889492625</speed>
  <fix>3d</fix>
</trkpt>
<trkpt lat="33.8107483" lon="-118.3937339">
  <ele>-25.342</ele>
  <time>2026-09-02T22:11:32Z</time>
  <course>19.96</course>
  <speed>0.9762171889492625</speed>
  <fix>3d</fix>
</trkpt>
<trkpt lat="33.8107484" lon="-118.3937338">
  <ele>-25.342</ele>
  <time>2026-09-02T22:11:32Z</time>
  <course>19.96</course>
  <speed>0.9762171889492625</speed>
  <fix>3d</fix>
</trkpt>
<trkpt lat="33.8107484" lon="-118.3937338">
  <ele>-25.342</ele>
  <time>2026-09-02T22:11:32Z</time>
  <course>19.97</course>
  <speed>0.9762171889492625</speed>
  <fix>3d</fix>
</trkpt>
<trkpt lat="33.8107485" lon="-118.3937337">
  <ele>-25.343</ele>
  <time>2026-09-02T22:11:32Z</time>
  <course>19.97</course>
  <speed>0.9762171889492625</speed>
  <fix>3d</fix>
</trkpt>
<trkpt lat="33.8107486" lon="-118.3937336">
  <ele>-25.343</ele>
  <time>2026-09-02T22:11:32Z</time>
  <course>19.97</course>
  <speed>0.9762171889492625</speed>
  <fix>3d</fix>
</trkpt>
<trkpt lat="33.8107486" lon="-118.3937335">
  <ele>-25.343</ele>
  <time>2026-09-02T22:11:32Z</time>
  <course>19.97</course>
  <speed>0.9762171889492625</speed>
  <fix>3d</fix>
</trkpt>
<trkpt lat="33.8107487" lon="-118.3937335">
  <ele>-25.343</ele>
  <time>2026-09-02T22:11:32Z</time>
  <course>19.97</course>
  <speed>0.9762171889492625</speed>
  <fix>3d</fix>
</trkpt>
<trkpt lat="33.8107487" lon="-118.3937334">
  <ele>-25.343</ele>
  <time>2026-09-02T22:11:32Z</time>
  <course>19.97</course>
  <speed>0.9762171889492625</speed>
  <fix>3d</fix>
</trkpt>
<trkpt lat="33.8107487" lon="-118.3937334">
  <ele>-25.343</ele>
  <time>2026-09-02T22:11:32Z</time>
  <course>19.97</course>
  <speed>0.9762171889492625</speed>
  <fix>3d</fix>
</trkpt>
<trkpt lat="33.8107475" lon="-118.3937354">
  <ele>-24.72</ele>
  <time>2026-09-02T22:11:32Z</time>
  <course>44.88</course>
  <speed>0.99</speed>
  <fix>3d</fix>
</trkpt>
<trkpt lat="33.8107488" lon="-118.3937333">
  <ele>-25.344</ele>
  <time>2026-09-02T22:11:32Z</time>
  <course>19.97</course>
  <speed>0.9762171889492625</speed>
  <fix>3d</fix>
</trkpt>
<trkpt lat="33.8107489" lon="-118.3937332">
  <ele>-25.344</ele>
  <time>2026-09-02T22:11:32Z</time>
  <course>19.97</course>
  <speed>0.9762171889492625</speed>
  <fix>3d</fix>
</trkpt>
<trkpt lat="33.8107489" lon="-118.3937331">
  <ele>-25.344</ele>
  <time>2026-09-02T22:11:32Z</time>
  <course>19.97</course>
  <speed>0.9762171889492625</speed>
  <fix>3d</fix>
</trkpt>
<trkpt lat="33.810749" lon="-118.3937331">
  <ele>-25.344</ele>
  <time>2026-09-02T22:11:32Z</time>
  <course>19.97</course>
  <speed>0.9762171889492625</speed>
  <fix>3d</fix>
</trkpt>
<trkpt lat="33.8107491" lon="-118.393733">
  <ele>-25.344</ele>
  <time>2026-09-02T22:11:32Z</time>
  <course>19.97</course>
  <speed>0.9762171889492625</speed>
  <fix>3d</fix>
</trkpt>
<trkpt lat="33.8107491" lon="-118.3937329">
  <ele>-25.345</ele>
  <time>2026-09-02T22:11:32Z</time>
  <course>19.97</course>
  <speed>0.9762171889492625</speed>
  <fix>3d</fix>
</trkpt>
<trkpt lat="33.8107492" lon="-118.3937328">
  <ele>-25.345</ele>
  <time>2026-09-02T22:11:32Z</time>
  <course>19.97</course>
  <speed>0.9762171889492625</speed>
  <fix>3d</fix>
</trkpt>
<trkpt lat="33.8107493" lon="-118.3937328">
  <ele>-25.345</ele>
  <time>2026-09-02T22:11:32Z</time>
  <course>19.97</course>
  <speed>0.9762171889492625</speed>
  <fix>3d</fix>
</trkpt>
<trkpt lat="33.8107493" lon="-118.3937327">
  <ele>-25.345</ele>
  <time>2026-09-02T22:11:32Z</time>
  <course>19.97</course>
  <speed>0.9762171889492625</speed>
  <fix>3d</fix>
</trkpt>
<trkpt lat="33.8107494" lon="-118.3937327">
  <ele>-25.346</ele>
  <time>2026-09-02T22:11:32Z</time>
  <course>19.97</course>
  <speed>0.9762171889492625</speed>
  <fix>3d</fix>
</trkpt>
<trkpt lat="33.8107488" lon="-118.3937339">
  <ele>-24.73</ele>
  <time>2026-09-02T22:11:32Z</time>
  <course>44.89</course>
  <speed>0.99</speed>
  <fix>3d</fix>
</trkpt>
<trkpt lat="33.8107494" lon="-118.3937326">
  <ele>-25.346</ele>
  <time>2026-09-02T22:11:32Z</time>
  <course>19.97</course>
  <speed>0.9762171889492625</speed>
  <fix>3d</fix>
</trkpt>
<trkpt lat="33.8107495" lon="-118.3937325">
  <ele>-25.346</ele>
  <time>2026-09-02T22:11:32Z</time>
  <course>19.97</course>
  <speed>0.9762171889492625</speed>
  <fix>3d</fix>
</trkpt>
<trkpt lat="33.8107495" lon="-118.3937324">
  <ele>-25.346</ele>
  <time>2026-09-02T22:11:32Z</time>
  <course>19.97</course>
  <speed>0.9762171889492625</speed>
  <fix>3d</fix>
</trkpt>
<trkpt lat="33.8107496" lon="-118.3937324">
  <ele>-25.347</ele>
  <time>2026-09-02T22:11:32Z</time>
  <course>19.97</course>
  <speed>0.9762171889492625</speed>
  <fix>3d</fix>
</trkpt>
<trkpt lat="33.8107497" lon="-118.3937323">
  <ele>-25.347</ele>
  <time>2026-09-02T22:11:32Z</time>
  <course>19.97</course>
  <speed>0.9762171889492625</speed>
  <fix>3d</fix>
</trkpt>
<trkpt lat="33.8107497" lon="-118.3937322">
  <ele>-25.347</ele>
  <time>2026-09-02T22:11:32Z</time>
  <course>19.97</course>
  <speed>0.9762171889492625</speed>
  <fix>3d</fix>
</trkpt>
<trkpt lat="33.8107498" lon="-118.3937321">
  <ele>-25.347</ele>
  <time>2026-09-02T22:11:32Z</time>
  <course>19.97</course>
  <speed>0.9762171889492625</speed>
  <fix>3d</fix>
</trkpt>
<trkpt lat="33.8107499" lon="-118.393732">
  <ele>-25.347</ele>
  <time>2026-09-02T22:11:32Z</time>
  <course>19.97</course>
  <speed>0.9762171889492625</speed>
  <fix>3d</fix>
</trkpt>
<trkpt lat="33.8107499" lon="-118.393732">
  <ele>-25.348</ele>
  <time>2026-09-02T22:11:32Z</time>
  <course>19.97</course>
  <speed>0.9762171889492625</speed>
  <fix>3d</fix>
</trkpt>
<trkpt lat="33.81075" lon="-118.3937319">
  <ele>-25.348</ele>
  <time>2026-09-02T22:11:32Z</time>
  <course>19.97</course>
  <speed>0.9762171889492625</speed>
  <fix>3d</fix>
</trkpt>
<trkpt lat="33.81075" lon="-118.3937319">
  <ele>-25.348</ele>
  <time>2026-09-02T22:11:32Z</time>
  <course>19.97</course>
  <speed>0.9762171889492625</speed>
  <fix>3d</fix>
</trkpt>
<trkpt lat="33.8107488" lon="-118.3937339">
  <ele>-24.73</ele>
  <time>2026-09-02T22:11:32Z</time>
  <course>44.89</course>
  <speed>0.99</speed>
  <fix>3d</fix>
</trkpt>
<trkpt lat="33.81075" lon="-118.3937319">
  <ele>-25.348</ele>
  <time>2026-09-02T22:11:32Z</time>
  <course>19.97</course>
  <speed>0.9762171889492625</speed>
  <fix>3d</fix>
</trkpt>
<trkpt lat="33.8107501" lon="-118.3937317">
  <ele>-25.348</ele>
  <time>2026-09-02T22:11:32Z</time>
  <course>19.97</course>
  <speed>0.9762171889492625</speed>
  <fix>3d</fix>
</trkpt>
<trkpt lat="33.8107502" lon="-118.3937316">
  <ele>-25.348</ele>
  <time>2026-09-02T22:11:32Z</time>
  <course>19.97</course>
  <speed>0.9762171889492625</speed>
  <fix>3d</fix>
</trkpt>
<trkpt lat="33.8107503" lon="-118.3937316">
  <ele>-25.348</ele>
  <time>2026-09-02T22:11:32Z</time>
  <course>19.97</course>
  <speed>0.9762171889492625</speed>
  <fix>3d</fix>
</trkpt>
<trkpt lat="33.8107503" lon="-118.3937315">
  <ele>-25.349</ele>
  <time>2026-09-02T22:11:32Z</time>
  <course>19.97</course>
  <speed>0.9762171889492625</speed>
  <fix>3d</fix>
</trkpt>
<trkpt lat="33.8107504" lon="-118.3937314">
  <ele>-25.349</ele>
  <time>2026-09-02T22:11:32Z</time>
  <course>19.97</course>
  <speed>0.9762171889492625</speed>
  <fix>3d</fix>
</trkpt>
<trkpt lat="33.8107504" lon="-118.3937314">
  <ele>-25.349</ele>
  <time>2026-09-02T22:11:32Z</time>
  <course>19.97</course>
  <speed>0.9762171889492625</speed>
  <fix>3d</fix>
</trkpt>
<trkpt lat="33.8107505" lon="-118.3937313">
  <ele>-25.349</ele>
  <time>2026-09-02T22:11:32Z</time>
  <course>19.97</course>
  <speed>0.9762171889492625</speed>
  <fix>3d</fix>
</trkpt>
<trkpt lat="33.8107505" lon="-118.3937313">
  <ele>-25.349</ele>
  <time>2026-09-02T22:11:32Z</time>
  <course>19.97</course>
  <speed>0.9762171889492625</speed>
  <fix>3d</fix>
</trkpt>
<trkpt lat="33.8107506" lon="-118.3937312">
  <ele>-25.35</ele>
  <time>2026-09-02T22:11:32Z</time>
  <course>19.97</course>
  <speed>0.9762171889492625</speed>
  <fix>3d</fix>
</trkpt>
<trkpt lat="33.8107506" lon="-118.3937311">
  <ele>-25.35</ele>
  <time>2026-09-02T22:11:32Z</time>
  <course>19.97</course>
  <speed>0.9762171889492625</speed>
  <fix>3d</fix>
</trkpt>
<trkpt lat="33.81075" lon="-118.3937323">
  <ele>-24.73</ele>
  <time>2026-09-02T22:11:32Z</time>
  <course>44.93</course>
  <speed>0.99</speed>
  <fix>3d</fix>
</trkpt>
<trkpt lat="33.8107506" lon="-118.3937311">
  <ele>-25.35</ele>
  <time>2026-09-02T22:11:32Z</time>
  <course>19.97</course>
  <speed>0.9762171889492625</speed>
  <fix>3d</fix>
</trkpt>
<trkpt lat="33.8107508" lon="-118.3937309">
  <ele>-25.35</ele>
  <time>2026-09-02T22:11:32Z</time>
  <course>19.97</course>
  <speed>0.9762171889492625</speed>
  <fix>3d</fix>
</trkpt>
<trkpt lat="33.8107508" lon="-118.3937309">
  <ele>-25.351</ele>
  <time>2026-09-02T22:11:32Z</time>
  <course>19.97</course>
  <speed>0.9762171889492625</speed>
  <fix>3d</fix>
</trkpt>
<trkpt lat="33.8107509" lon="-118.3937308">
  <ele>-25.351</ele>
  <time>2026-09-02T22:11:32Z</time>
  <course>19.97</course>
  <speed>0.9762171889492625</speed>
  <fix>3d</fix>
</trkpt>
<trkpt lat="33.8107509" lon="-118.3937308">
  <ele>-25.351</ele>
  <time>2026-09-02T22:11:32Z</time>
  <course>19.97</course>
  <speed>0.9762171889492625</speed>
  <fix>3d</fix>
</trkpt>
<trkpt lat="33.810751" lon="-118.3937307">
  <ele>-25.351</ele>
  <time>2026-09-02T22:11:32Z</time>
  <course>19.97</course>
  <speed>0.9762171889492625</speed>
  <fix>3d</fix>
</trkpt>
<trkpt lat="33.8107511" lon="-118.3937306">
  <ele>-25.352</ele>
  <time>2026-09-02T22:11:32Z</time>
  <course>19.97</course>
  <speed>0.9762171889492625</speed>
  <fix>3d</fix>
</trkpt>
<trkpt lat="33.8107511" lon="-118.3937305">
  <ele>-25.352</ele>
  <time>2026-09-02T22:11:32Z</time>
  <course>19.97</course>
  <speed>0.9762171889492625</speed>
  <fix>3d</fix>
</trkpt>
<trkpt lat="33.8107512" lon="-118.3937305">
  <ele>-25.352</ele>
  <time>2026-09-02T22:11:32Z</time>
  <course>19.97</course>
  <speed>0.9762171889492625</speed>
  <fix>3d</fix>
</trkpt>
<trkpt lat="33.8107512" lon="-118.3937304">
  <ele>-25.352</ele>
  <time>2026-09-02T22:11:32Z</time>
  <course>19.97</course>
  <speed>0.9762171889492625</speed>
  <fix>3d</fix>
</trkpt>
<trkpt lat="33.8107513" lon="-118.3937304">
  <ele>-25.352</ele>
  <time>2026-09-02T22:11:32Z</time>
  <course>19.97</course>
  <speed>0.9762171889492625</speed>
  <fix>3d</fix>
</trkpt>
<trkpt lat="33.81075" lon="-118.3937323">
  <ele>-24.73</ele>
  <time>2026-09-02T22:11:32Z</time>
  <course>44.93</course>
  <speed>0.99</speed>
  <fix>3d</fix>
</trkpt>
<trkpt lat="33.8107513" lon="-118.3937304">
  <ele>-25.353</ele>
  <time>2026-09-02T22:11:32Z</time>
  <course>19.97</course>
  <speed>0.9762171889492625</speed>
  <fix>3d</fix>
</trkpt>
<trkpt lat="33.8107514" lon="-118.3937302">
  <ele>-25.353</ele>
  <time>2026-09-02T22:11:32Z</time>
  <course>19.97</course>
  <speed>0.9762171889492625</speed>
  <fix>3d</fix>
</trkpt>
<trkpt lat="33.8107515" lon="-118.3937301">
  <ele>-25.354</ele>
  <time>2026-09-02T22:11:32Z</time>
  <course>19.97</course>
  <speed>0.9762171889492625</speed>
  <fix>3d</fix>
</trkpt>
<trkpt lat="33.8107515" lon="-118.39373">
  <ele>-25.354</ele>
  <time>2026-09-02T22:11:32Z</time>
  <course>19.97</course>
  <speed>0.9762171889492625</speed>
  <fix>3d</fix>
</trkpt>
<trkpt lat="33.8107516" lon="-118.39373">
  <ele>-25.354</ele>
  <time>2026-09-02T22:11:32Z</time>
  <course>19.97</course>
  <speed>0.9762171889492625</speed>
  <fix>3d</fix>
</trkpt>
<trkpt lat="33.8107516" lon="-118.3937299">
  <ele>-25.354</ele>
  <time>2026-09-02T22:11:32Z</time>
  <course>19.97</course>
  <speed>0.9762171889492625</speed>
  <fix>3d</fix>
</trkpt>
<trkpt lat="33.8107517" lon="-118.3937298">
  <ele>-25.355</ele>
  <time>2026-09-02T22:11:32Z</time>
  <course>19.97</course>
  <speed>0.9762171889492625</speed>
  <fix>3d</fix>
</trkpt>
<trkpt lat="33.8107518" lon="-118.3937298">
  <ele>-25.355</ele>
  <time>2026-09-02T22:11:32Z</time>
  <course>19.97</course>
  <speed>0.9762171889492625</speed>
  <fix>3d</fix>
</trkpt>
<trkpt lat="33.8107518" lon="-118.3937297">
  <ele>-25.355</ele>
  <time>2026-09-02T22:11:32Z</time>
  <course>19.97</course>
  <speed>0.9762171889492625</speed>
  <fix>3d</fix>
</trkpt>
<trkpt lat="33.8107519" lon="-118.3937296">
  <ele>-25.355</ele>
  <time>2026-09-02T22:11:32Z</time>
  <course>19.97</course>
  <speed>0.9835141076771599</speed>
  <fix>3d</fix>
</trkpt>
<trkpt lat="33.8107519" lon="-118.3937296">
  <ele>-25.355</ele>
  <time>2026-09-02T22:11:32Z</time>
  <course>19.97</course>
  <speed>0.9835141076771599</speed>
  <fix>3d</fix>
</trkpt>
<trkpt lat="33.8107513" lon="-118.3937308">
  <ele>-24.74</ele>
  <time>2026-09-02T22:11:32Z</time>
  <course>44.95</course>
  <speed>0.99</speed>
  <fix>3d</fix>
</trkpt>
<trkpt lat="33.8107521" lon="-118.3937294">
  <ele>-25.356</ele>
  <time>2026-09-02T22:11:32Z</time>
  <course>19.97</course>
  <speed>0.9835141076771599</speed>
  <fix>3d</fix>
</trkpt>
<trkpt lat="33.8107521" lon="-118.3937293">
  <ele>-25.356</ele>
  <time>2026-09-02T22:11:32Z</time>
  <course>19.97</course>
  <speed>0.9835141076771599</speed>
  <fix>3d</fix>
</trkpt>
<trkpt lat="33.8107522" lon="-118.3937293">
  <ele>-25.356</ele>
  <time>2026-09-02T22:11:32Z</time>
  <course>19.97</course>
  <speed>0.9835141076771599</speed>
  <fix>3d</fix>
</trkpt>
<trkpt lat="33.8107522" lon="-118.3937292">
  <ele>-25.356</ele>
  <time>2026-09-02T22:11:32Z</time>
  <course>19.97</course>
  <speed>0.9835141076771599</speed>
  <fix>3d</fix>
</trkpt>
<trkpt lat="33.8107523" lon="-118.3937292">
  <ele>-25.357</ele>
  <time>2026-09-02T22:11:32Z</time>
  <course>19.97</course>
  <speed>0.9835141076771599</speed>
  <fix>3d</fix>
</trkpt>
<trkpt lat="33.8107524" lon="-118.393729">
  <ele>-25.357</ele>
  <time>2026-09-02T22:11:32Z</time>
  <course>19.97</course>
  <speed>0.9835141076771599</speed>
  <fix>3d</fix>
</trkpt>
<trkpt lat="33.8107524" lon="-118.393729">
  <ele>-25.357</ele>
  <time>2026-09-02T22:11:32Z</time>
  <course>19.97</course>
  <speed>0.9835141076771599</speed>
  <fix>3d</fix>
</trkpt>
<trkpt lat="33.8107525" lon="-118.3937289">
  <ele>-25.358</ele>
  <time>2026-09-02T22:11:32Z</time>
  <course>19.97</course>
  <speed>0.9835141076771599</speed>
  <fix>3d</fix>
</trkpt>
<trkpt lat="33.8107525" lon="-118.3937289">
  <ele>-25.358</ele>
  <time>2026-09-02T22:11:32Z</time>
  <course>19.97</course>
  <speed>0.9835141076771599</speed>
  <fix>3d</fix>
</trkpt>
<trkpt lat="33.8107513" lon="-118.3937308">
  <ele>-24.74</ele>
  <time>2026-09-02T22:11:32Z</time>
  <course>44.95</course>
  <speed>0.99</speed>
  <fix>3d</fix>
</trkpt>
<trkpt lat="33.8107525" lon="-118.3937288">
  <ele>-25.358</ele>
  <time>2026-09-02T22:11:32Z</time>
  <course>19.97</course>
  <speed>0.9835141076771599</speed>
  <fix>3d</fix>
</trkpt>
<trkpt lat="33.8107527" lon="-118.3937286">
  <ele>-25.358</ele>
  <time>2026-09-02T22:11:32Z</time>
  <course>19.97</course>
  <speed>0.9835141076771599</speed>
  <fix>3d</fix>
</trkpt>
<trkpt lat="33.8107527" lon="-118.3937286">
  <ele>-25.359</ele>
  <time>2026-09-02T22:11:32Z</time>
  <course>19.97</course>
  <speed>0.9762171889492625</speed>
  <fix>3d</fix>
</trkpt>
<trkpt lat="33.8107528" lon="-118.3937285">
  <ele>-25.359</ele>
  <time>2026-09-02T22:11:32Z</time>
  <course>19.97</course>
  <speed>0.9762171889492625</speed>
  <fix>3d</fix>
</trkpt>
<trkpt lat="33.8107529" lon="-118.3937284">
  <ele>-25.359</ele>
  <time>2026-09-02T22:11:32Z</time>
  <course>19.97</course>
  <speed>0.9762171889492625</speed>
  <fix>3d</fix>
</trkpt>
<trkpt lat="33.8107529" lon="-118.3937283">
  <ele>-25.359</ele>
  <time>2026-09-02T22:11:32Z</time>
  <course>19.97</course>
  <speed>0.9762171889492625</speed>
  <fix>3d</fix>
</trkpt>
<trkpt lat="33.810753" lon="-118.3937283">
  <ele>-25.359</ele>
  <time>2026-09-02T22:11:32Z</time>
  <course>19.97</course>
  <speed>0.9762171889492625</speed>
  <fix>3d</fix>
</trkpt>
<trkpt lat="33.810753" lon="-118.3937282">
  <ele>-25.36</ele>
  <time>2026-09-02T22:11:32Z</time>
  <course>19.97</course>
  <speed>0.9762171889492625</speed>
  <fix>3d</fix>
</trkpt>
<trkpt lat="33.8107531" lon="-118.3937282">
  <ele>-25.36</ele>
  <time>2026-09-02T22:11:32Z</time>
  <course>19.97</course>
  <speed>0.9762171889492625</speed>
  <fix>3d</fix>
</trkpt>
<trkpt lat="33.8107532" lon="-118.3937281">
  <ele>-25.36</ele>
  <time>2026-09-02T22:11:32Z</time>
  <course>19.97</course>
  <speed>0.9762171889492625</speed>
  <fix>3d</fix>
</trkpt>
<trkpt lat="33.8107532" lon="-118.3937281">
  <ele>-25.36</ele>
  <time>2026-09-02T22:11:32Z</time>
  <course>19.97</course>
  <speed>0.9762171889492625</speed>
  <fix>3d</fix>
</trkpt>
<trkpt lat="33.8107526" lon="-118.3937293">
  <ele>-24.74</ele>
  <time>2026-09-02T22:11:32Z</time>
  <course>44.94</course>
  <speed>0.99</speed>
  <fix>3d</fix>
</trkpt>
<trkpt lat="33.8107533" lon="-118.3937279">
  <ele>-25.36</ele>
  <time>2026-09-02T22:11:32Z</time>
  <course>19.97</course>
  <speed>0.9835141076771599</speed>
  <fix>3d</fix>
</trkpt>
<trkpt lat="33.8107534" lon="-118.3937278">
  <ele>-25.361</ele>
  <time>2026-09-02T22:11:32Z</time>
  <course>19.97</course>
  <speed>0.9835141076771599</speed>
  <fix>3d</fix>
</trkpt>
<trkpt lat="33.8107534" lon="-118.3937278">
  <ele>-25.361</ele>
  <time>2026-09-02T22:11:32Z</time>
  <course>19.97</course>
  <speed>0.9835141076771599</speed>
  <fix>3d</fix>
</trkpt>
<trkpt lat="33.8107535" lon="-118.3937277">
  <ele>-25.361</ele>
  <time>2026-09-02T22:11:32Z</time>
  <course>19.97</course>
  <speed>0.9835141076771599</speed>
  <fix>3d</fix>
</trkpt>
<trkpt lat="33.8107535" lon="-118.3937276">
  <ele>-25.361</ele>
  <time>2026-09-02T22:11:32Z</time>
  <course>19.97</course>
  <speed>0.9835141076771599</speed>
  <fix>3d</fix>
</trkpt>
<trkpt lat="33.8107536" lon="-118.3937276">
  <ele>-25.362</ele>
  <time>2026-09-02T22:11:32Z</time>
  <course>19.97</course>
  <speed>0.9835141076771599</speed>
  <fix>3d</fix>
</trkpt>
<trkpt lat="33.8107536" lon="-118.3937275">
  <ele>-25.362</ele>
  <time>2026-09-02T22:11:32Z</time>
  <course>19.97</course>
  <speed>0.9835141076771599</speed>
  <fix>3d</fix>
</trkpt>
<trkpt lat="33.8107537" lon="-118.3937274">
  <ele>-25.362</ele>
  <time>2026-09-02T22:11:32Z</time>
  <course>19.97</course>
  <speed>0.9835141076771599</speed>
  <fix>3d</fix>
</trkpt>
<trkpt lat="33.8107537" lon="-118.3937274">
  <ele>-25.362</ele>
  <time>2026-09-02T22:11:32Z</time>
  <course>19.97</course>
  <speed>0.9835141076771599</speed>
  <fix>3d</fix>
</trkpt>
<trkpt lat="33.8107538" lon="-118.3937273">
  <ele>-25.363</ele>
  <time>2026-09-02T22:11:32Z</time>
  <course>19.97</course>
  <speed>0.9835141076771599</speed>
  <fix>3d</fix>
</trkpt>
<trkpt lat="33.8107526" lon="-118.3937293">
  <ele>-24.74</ele>
  <time>2026-09-02T22:11:32Z</time>
  <course>44.94</course>
  <speed>0.99</speed>
  <fix>3d</fix>
</trkpt>
<trkpt lat="33.8107538" lon="-118.3937273">
  <ele>-25.363</ele>
  <time>2026-09-02T22:11:32Z</time>
  <course>19.97</course>
  <speed>0.9835141076771599</speed>
  <fix>3d</fix>
</trkpt>
<trkpt lat="33.8107539" lon="-118.3937272">
  <ele>-25.363</ele>
  <time>2026-09-02T22:11:32Z</time>
  <course>19.97</course>
  <speed>0.9835141076771599</speed>
  <fix>3d</fix>
</trkpt>
<trkpt lat="33.810754" lon="-118.3937271">
  <ele>-25.364</ele>
  <time>2026-09-02T22:11:32Z</time>
  <course>19.97</course>
  <speed>0.9762171889492625</speed>
  <fix>3d</fix>
</trkpt>
<trkpt lat="33.8107541" lon="-118.393727">
  <ele>-25.364</ele>
  <time>2026-09-02T22:11:32Z</time>
  <course>19.97</course>
  <speed>0.9762171889492625</speed>
  <fix>3d</fix>
</trkpt>
<trkpt lat="33.8107541" lon="-118.3937269">
  <ele>-25.364</ele>
  <time>2026-09-02T22:11:32Z</time>
  <course>19.97</course>
  <speed>0.9762171889492625</speed>
  <fix>3d</fix>
</trkpt>
<trkpt lat="33.8107542" lon="-118.3937268">
  <ele>-25.365</ele>
  <time>2026-09-02T22:11:32Z</time>
  <course>19.97</course>
  <speed>0.9762171889492625</speed>
  <fix>3d</fix>
</trkpt>
<trkpt lat="33.8107542" lon="-118.3937268">
  <ele>-25.365</ele>
  <time>2026-09-02T22:11:32Z</time>
  <course>19.97</course>
  <speed>0.9762171889492625</speed>
  <fix>3d</fix>
</trkpt>
<trkpt lat="33.8107543" lon="-118.3937267">
  <ele>-25.365</ele>
  <time>2026-09-02T22:11:32Z</time>
  <course>19.97</course>
  <speed>0.9762171889492625</speed>
  <fix>3d</fix>
</trkpt>
<trkpt lat="33.8107544" lon="-118.3937266">
  <ele>-25.365</ele>
  <time>2026-09-02T22:11:32Z</time>
  <course>19.97</course>
  <speed>0.9762171889492625</speed>
  <fix>3d</fix>
</trkpt>
<trkpt lat="33.8107544" lon="-118.3937266">
  <ele>-25.365</ele>
  <time>2026-09-02T22:11:32Z</time>
  <course>19.97</course>
  <speed>0.9762171889492625</speed>
  <fix>3d</fix>
</trkpt>
<trkpt lat="33.8107538" lon="-118.3937278">
  <ele>-24.74</ele>
  <time>2026-09-02T22:11:32Z</time>
  <course>44.94</course>
  <speed>0.99</speed>
  <fix>3d</fix>
</trkpt>
<trkpt lat="33.8107544" lon="-118.3937266">
  <ele>-25.366</ele>
  <time>2026-09-02T22:11:32Z</time>
  <course>19.97</course>
  <speed>0.9762171889492625</speed>
  <fix>3d</fix>
</trkpt>
<trkpt lat="33.8107546" lon="-118.3937264">
  <ele>-25.366</ele>
  <time>2026-09-02T22:11:32Z</time>
  <course>19.97</course>
  <speed>0.9762171889492625</speed>
  <fix>3d</fix>
</trkpt>
<trkpt lat="33.8107546" lon="-118.3937263">
  <ele>-25.366</ele>
  <time>2026-09-02T22:11:32Z</time>
  <course>19.97</course>
  <speed>0.9762171889492625</speed>
  <fix>3d</fix>
</trkpt>
<trkpt lat="33.8107547" lon="-118.3937262">
  <ele>-25.366</ele>
  <time>2026-09-02T22:11:32Z</time>
  <course>19.97</course>
  <speed>0.9762171889492625</speed>
  <fix>3d</fix>
</trkpt>
<trkpt lat="33.8107548" lon="-118.3937262">
  <ele>-25.367</ele>
  <time>2026-09-02T22:11:32Z</time>
  <course>19.97</course>
  <speed>0.9762171889492625</speed>
  <fix>3d</fix>
</trkpt>
<trkpt lat="33.8107548" lon="-118.3937261">
  <ele>-25.367</ele>
  <time>2026-09-02T22:11:32Z</time>
  <course>19.97</course>
  <speed>0.9762171889492625</speed>
  <fix>3d</fix>
</trkpt>
<trkpt lat="33.8107549" lon="-118.393726">
  <ele>-25.367</ele>
  <time>2026-09-02T22:11:32Z</time>
  <course>19.97</course>
  <speed>0.9762171889492625</speed>
  <fix>3d</fix>
</trkpt>
<trkpt lat="33.8107549" lon="-118.393726">
  <ele>-25.368</ele>
  <time>2026-09-02T22:11:32Z</time>
  <course>19.97</course>
  <speed>0.9835141076771599</speed>
  <fix>3d</fix>
</trkpt>
<trkpt lat="33.810755" lon="-118.3937259">
  <ele>-25.368</ele>
  <time>2026-09-02T22:11:32Z</time>
  <course>19.97</course>
  <speed>0.9762171889492625</speed>
  <fix>3d</fix>
</trkpt>
<trkpt lat="33.810755" lon="-118.3937258">
  <ele>-25.368</ele>
  <time>2026-09-02T22:11:32Z</time>
  <course>19.97</course>
  <speed>0.9762171889492625</speed>
  <fix>3d</fix>
</trkpt>
<trkpt lat="33.8107551" lon="-118.3937258">
  <ele>-25.368</ele>
  <time>2026-09-02T22:11:32Z</time>
  <course>19.97</course>
  <speed>0.9762171889492625</speed>
  <fix>3d</fix>
</trkpt>
<trkpt lat="33.8107538" lon="-118.3937278">
  <ele>-24.74</ele>
  <time>2026-09-02T22:11:32Z</time>
  <course>44.94</course>
  <speed>0.99</speed>
  <fix>3d</fix>
</trkpt>
<trkpt lat="33.8107551" lon="-118.3937258">
  <ele>-25.368</ele>
  <time>2026-09-02T22:11:32Z</time>
  <course>19.97</course>
  <speed>0.9762171889492625</speed>
  <fix>3d</fix>
</trkpt>
<trkpt lat="33.8107552" lon="-118.3937257">
  <ele>-25.369</ele>
  <time>2026-09-02T22:11:32Z</time>
  <course>19.97</course>
  <speed>0.9762171889492625</speed>
  <fix>3d</fix>
</trkpt>
<trkpt lat="33.8107552" lon="-118.3937256">
  <ele>-25.369</ele>
  <time>2026-09-02T22:11:32Z</time>
  <course>19.97</course>
  <speed>0.9762171889492625</speed>
  <fix>3d</fix>
</trkpt>
<trkpt lat="33.8107553" lon="-118.3937255">
  <ele>-25.37</ele>
  <time>2026-09-02T22:11:32Z</time>
  <course>19.97</course>
  <speed>0.9762171889492625</speed>
  <fix>3d</fix>
</trkpt>
<trkpt lat="33.8107553" lon="-118.3937255">
  <ele>-25.37</ele>
  <time>2026-09-02T22:11:32Z</time>
  <course>19.97</course>
  <speed>0.9762171889492625</speed>
  <fix>3d</fix>
</trkpt>
<trkpt lat="33.8107554" lon="-118.3937254">
  <ele>-25.37</ele>
  <time>2026-09-02T22:11:32Z</time>
  <course>19.97</course>
  <speed>0.9762171889492625</speed>
  <fix>3d</fix>
</trkpt>
<trkpt lat="33.8107554" lon="-118.3937253">
  <ele>-25.37</ele>
  <time>2026-09-02T22:11:32Z</time>
  <course>19.97</course>
  <speed>0.9762171889492625</speed>
  <fix>3d</fix>
</trkpt>
<trkpt lat="33.8107555" lon="-118.3937253">
  <ele>-25.371</ele>
  <time>2026-09-02T22:11:32Z</time>
  <course>19.97</course>
  <speed>0.9762171889492625</speed>
  <fix>3d</fix>
</trkpt>
<trkpt lat="33.8107556" lon="-118.3937252">
  <ele>-25.371</ele>
  <time>2026-09-02T22:11:32Z</time>
  <course>19.97</course>
  <speed>0.9762171889492625</speed>
  <fix>3d</fix>
</trkpt>
<trkpt lat="33.8107556" lon="-118.3937251">
  <ele>-25.371</ele>
  <time>2026-09-02T22:11:32Z</time>
  <course>19.97</course>
  <speed>0.9762171889492625</speed>
  <fix>3d</fix>
</trkpt>
<trkpt lat="33.8107557" lon="-118.3937251">
  <ele>-25.371</ele>
  <time>2026-09-02T22:11:32Z</time>
  <course>19.97</course>
  <speed>0.9762171889492625</speed>
  <fix>3d</fix>
</trkpt>
<trkpt lat="33.8107557" lon="-118.3937251">
  <ele>-25.371</ele>
  <time>2026-09-02T22:11:32Z</time>
  <course>19.97</course>
  <speed>0.9762171889492625</speed>
  <fix>3d</fix>
</trkpt>
<trkpt lat="33.8107551" lon="-118.3937263">
  <ele>-24.75</ele>
  <time>2026-09-02T22:11:32Z</time>
  <course>44.94</course>
  <speed>0.99</speed>
  <fix>3d</fix>
</trkpt>
<trkpt lat="33.8107557" lon="-118.393725">
  <ele>-25.371</ele>
  <time>2026-09-02T22:11:32Z</time>
  <course>19.97</course>
  <speed>0.9762171889492625</speed>
  <fix>3d</fix>
</trkpt>
<trkpt lat="33.8107558" lon="-118.3937249">
  <ele>-25.372</ele>
  <time>2026-09-02T22:11:32Z</time>
  <course>19.97</course>
  <speed>0.9835141076771599</speed>
  <fix>3d</fix>
</trkpt>
<trkpt lat="33.8107559" lon="-118.3937248">
  <ele>-25.372</ele>
  <time>2026-09-02T22:11:32Z</time>
  <course>19.97</course>
  <speed>0.9835141076771599</speed>
  <fix>3d</fix>
</trkpt>
<trkpt lat="33.810756" lon="-118.3937247">
  <ele>-25.373</ele>
  <time>2026-09-02T22:11:32Z</time>
  <course>19.97</course>
  <speed>0.9835141076771599</speed>
  <fix>3d</fix>
</trkpt>
<trkpt lat="33.810756" lon="-118.3937246">
  <ele>-25.373</ele>
  <time>2026-09-02T22:11:32Z</time>
  <course>19.97</course>
  <speed>0.9835141076771599</speed>
  <fix>3d</fix>
</trkpt>
<trkpt lat="33.8107561" lon="-118.3937246">
  <ele>-25.373</ele>
  <time>2026-09-02T22:11:32Z</time>
  <course>19.97</course>
  <speed>0.9835141076771599</speed>
  <fix>3d</fix>
</trkpt>
<trkpt lat="33.8107561" lon="-118.3937245">
  <ele>-25.373</ele>
  <time>2026-09-02T22:11:32Z</time>
  <course>19.97</course>
  <speed>0.9835141076771599</speed>
  <fix>3d</fix>
</trkpt>
<trkpt lat="33.8107562" lon="-118.3937244">
  <ele>-25.374</ele>
  <time>2026-09-02T22:11:32Z</time>
  <course>19.97</course>
  <speed>0.9835141076771599</speed>
  <fix>3d</fix>
</trkpt>
<trkpt lat="33.8107563" lon="-118.3937243">
  <ele>-25.374</ele>
  <time>2026-09-02T22:11:32Z</time>
  <course>19.97</course>
  <speed>0.9835141076771599</speed>
  <fix>3d</fix>
</trkpt>
<trkpt lat="33.8107563" lon="-118.3937243">
  <ele>-25.374</ele>
  <time>2026-09-02T22:11:32Z</time>
  <course>19.97</course>
  <speed>0.9835141076771599</speed>
  <fix>3d</fix>
</trkpt>
<trkpt lat="33.8107551" lon="-118.3937263">
  <ele>-24.75</ele>
  <time>2026-09-02T22:11:32Z</time>
  <course>44.94</course>
  <speed>0.99</speed>
  <fix>3d</fix>
</trkpt>
<trkpt lat="33.8107563" lon="-118.3937243">
  <ele>-25.374</ele>
  <time>2026-09-02T22:11:32Z</time>
  <course>19.97</course>
  <speed>0.9835141076771599</speed>
  <fix>3d</fix>
</trkpt>
<trkpt lat="33.8107564" lon="-118.3937241">
  <ele>-25.375</ele>
  <time>2026-09-02T22:11:32Z</time>
  <course>19.97</course>
  <speed>0.9835141076771599</speed>
  <fix>3d</fix>
</trkpt>
<trkpt lat="33.8107565" lon="-118.393724">
  <ele>-25.375</ele>
  <time>2026-09-02T22:11:32Z</time>
  <course>19.97</course>
  <speed>0.9835141076771599</speed>
  <fix>3d</fix>
</trkpt>
<trkpt lat="33.8107566" lon="-118.393724">
  <ele>-25.375</ele>
  <time>2026-09-02T22:11:32Z</time>
  <course>19.97</course>
  <speed>0.9835141076771599</speed>
  <fix>3d</fix>
</trkpt>
<trkpt lat="33.8107566" lon="-118.3937239">
  <ele>-25.375</ele>
  <time>2026-09-02T22:11:32Z</time>
  <course>19.97</course>
  <speed>0.9835141076771599</speed>
  <fix>3d</fix>
</trkpt>
<trkpt lat="33.8107567" lon="-118.3937239">
  <ele>-25.376</ele>
  <time>2026-09-02T22:11:32Z</time>
  <course>19.97</course>
  <speed>0.9835141076771599</speed>
  <fix>3d</fix>
</trkpt>
<trkpt lat="33.8107567" lon="-118.3937238">
  <ele>-25.376</ele>
  <time>2026-09-02T22:11:32Z</time>
  <course>19.97</course>
  <speed>0.9835141076771599</speed>
  <fix>3d</fix>
</trkpt>
<trkpt lat="33.8107568" lon="-118.3937237">
  <ele>-25.376</ele>
  <time>2026-09-02T22:11:32Z</time>
  <course>19.97</course>
  <speed>0.9835141076771599</speed>
  <fix>3d</fix>
</trkpt>
<trkpt lat="33.8107568" lon="-118.3937237">
  <ele>-25.377</ele>
  <time>2026-09-02T22:11:32Z</time>
  <course>19.97</course>
  <speed>0.9835141076771599</speed>
  <fix>3d</fix>
</trkpt>
<trkpt lat="33.8107569" lon="-118.3937236">
  <ele>-25.377</ele>
  <time>2026-09-02T22:11:32Z</time>
  <course>19.97</course>
  <speed>0.9835141076771599</speed>
  <fix>3d</fix>
</trkpt>
<trkpt lat="33.810757" lon="-118.3937235">
  <ele>-25.377</ele>
  <time>2026-09-02T22:11:32Z</time>
  <course>19.97</course>
  <speed>0.9835141076771599</speed>
  <fix>3d</fix>
</trkpt>
<trkpt lat="33.8107563" lon="-118.3937247">
  <ele>-24.75</ele>
  <time>2026-09-02T22:11:32Z</time>
  <course>44.95</course>
  <speed>0.99</speed>
  <fix>3d</fix>
</trkpt>
<trkpt lat="33.810757" lon="-118.3937235">
  <ele>-25.377</ele>
  <time>2026-09-02T22:11:32Z</time>
  <course>19.97</course>
  <speed>0.9835141076771599</speed>
  <fix>3d</fix>
</trkpt>
<trkpt lat="33.8107571" lon="-118.3937233">
  <ele>-25.378</ele>
  <time>2026-09-02T22:11:32Z</time>
  <course>19.97</course>
  <speed>0.9835141076771599</speed>
  <fix>3d</fix>
</trkpt>
<trkpt lat="33.8107572" lon="-118.3937233">
  <ele>-25.379</ele>
  <time>2026-09-02T22:11:32Z</time>
  <course>19.96</course>
  <speed>0.9835141076771599</speed>
  <fix>3d</fix>
</trkpt>
<trkpt lat="33.8107572" lon="-118.3937232">
  <ele>-25.379</ele>
  <time>2026-09-02T22:11:32Z</time>
  <course>19.96</course>
  <speed>0.9835141076771599</speed>
  <fix>3d</fix>
</trkpt>
<trkpt lat="33.8107573" lon="-118.3937231">
  <ele>-25.379</ele>
  <time>2026-09-02T22:11:32Z</time>
  <course>19.96</course>
  <speed>0.9835141076771599</speed>
  <fix>3d</fix>
</trkpt>
<trkpt lat="33.8107573" lon="-118.3937231">
  <ele>-25.38</ele>
  <time>2026-09-02T22:11:32Z</time>
  <course>19.96</course>
  <speed>0.9835141076771599</speed>
  <fix>3d</fix>
</trkpt>
<trkpt lat="33.8107574" lon="-118.393723">
  <ele>-25.38</ele>
  <time>2026-09-02T22:11:32Z</time>
  <course>19.96</course>
  <speed>0.9835141076771599</speed>
  <fix>3d</fix>
</trkpt>
<trkpt lat="33.8107575" lon="-118.3937229">
  <ele>-25.381</ele>
  <time>2026-09-02T22:11:32Z</time>
  <course>19.96</course>
  <speed>0.9835141076771599</speed>
  <fix>3d</fix>
</trkpt>
<trkpt lat="33.8107575" lon="-118.3937228">
  <ele>-25.381</ele>
  <time>2026-09-02T22:11:32Z</time>
  <course>19.96</course>
  <speed>0.9835141076771599</speed>
  <fix>3d</fix>
</trkpt>
<trkpt lat="33.8107576" lon="-118.3937228">
  <ele>-25.381</ele>
  <time>2026-09-02T22:11:32Z</time>
  <course>19.96</course>
  <speed>0.9835141076771599</speed>
  <fix>3d</fix>
</trkpt>
<trkpt lat="33.8107576" lon="-118.3937228">
  <ele>-25.381</ele>
  <time>2026-09-02T22:11:32Z</time>
  <course>19.96</course>
  <speed>0.9835141076771599</speed>
  <fix>3d</fix>
</trkpt>
<trkpt lat="33.8107563" lon="-118.3937247">
  <ele>-24.75</ele>
  <time>2026-09-02T22:11:32Z</time>
  <course>44.95</course>
  <speed>0.99</speed>
  <fix>3d</fix>
</trkpt>
<trkpt lat="33.8107577" lon="-118.3937226">
  <ele>-25.382</ele>
  <time>2026-09-02T22:11:32Z</time>
  <course>19.96</course>
  <speed>0.9835141076771599</speed>
  <fix>3d</fix>
</trkpt>
<trkpt lat="33.8107578" lon="-118.3937225">
  <ele>-25.383</ele>
  <time>2026-09-02T22:11:32Z</time>
  <course>19.96</course>
  <speed>0.9835141076771599</speed>
  <fix>3d</fix>
</trkpt>
<trkpt lat="33.8107578" lon="-118.3937224">
  <ele>-25.383</ele>
  <time>2026-09-02T22:11:32Z</time>
  <course>19.96</course>
  <speed>0.9835141076771599</speed>
  <fix>3d</fix>
</trkpt>
<trkpt lat="33.8107579" lon="-118.3937224">
  <ele>-25.384</ele>
  <time>2026-09-02T22:11:32Z</time>
  <course>19.96</course>
  <speed>0.9835141076771599</speed>
  <fix>3d</fix>
</trkpt>
<trkpt lat="33.810758" lon="-118.3937223">
  <ele>-25.384</ele>
  <time>2026-09-02T22:11:32Z</time>
  <course>19.96</course>
  <speed>0.9835141076771599</speed>
  <fix>3d</fix>
</trkpt>
<trkpt lat="33.810758" lon="-118.3937222">
  <ele>-25.384</ele>
  <time>2026-09-02T22:11:32Z</time>
  <course>19.96</course>
  <speed>0.9835141076771599</speed>
  <fix>3d</fix>
</trkpt>
<trkpt lat="33.8107581" lon="-118.3937221">
  <ele>-25.385</ele>
  <time>2026-09-02T22:11:32Z</time>
  <course>19.96</course>
  <speed>0.9835141076771599</speed>
  <fix>3d</fix>
</trkpt>
<trkpt lat="33.8107582" lon="-118.3937221">
  <ele>-25.385</ele>
  <time>2026-09-02T22:11:32Z</time>
  <course>19.96</course>
  <speed>0.9835141076771599</speed>
  <fix>3d</fix>
</trkpt>
<trkpt lat="33.8107582" lon="-118.393722">
  <ele>-25.386</ele>
  <time>2026-09-02T22:11:32Z</time>
  <course>19.96</course>
  <speed>0.9835141076771599</speed>
  <fix>3d</fix>
</trkpt>
<trkpt lat="33.8107576" lon="-118.3937232">
  <ele>-24.76</ele>
  <time>2026-09-02T22:11:32Z</time>
  <course>44.94</course>
  <speed>0.99</speed>
  <fix>3d</fix>
</trkpt>
<trkpt lat="33.8107582" lon="-118.393722">
  <ele>-25.386</ele>
  <time>2026-09-02T22:11:32Z</time>
  <course>19.96</course>
  <speed>0.9835141076771599</speed>
  <fix>3d</fix>
</trkpt>
<trkpt lat="33.8107583" lon="-118.3937219">
  <ele>-25.386</ele>
  <time>2026-09-02T22:11:32Z</time>
  <course>19.96</course>
  <speed>0.9835141076771599</speed>
  <fix>3d</fix>
</trkpt>
<trkpt lat="33.8107584" lon="-118.3937218">
  <ele>-25.387</ele>
  <time>2026-09-02T22:11:32Z</time>
  <course>19.96</course>
  <speed>0.9835141076771599</speed>
  <fix>3d</fix>
</trkpt>
<trkpt lat="33.8107584" lon="-118.3937217">
  <ele>-25.387</ele>
  <time>2026-09-02T22:11:32Z</time>
  <course>19.96</course>
  <speed>0.9835141076771599</speed>
  <fix>3d</fix>
</trkpt>
<trkpt lat="33.8107585" lon="-118.3937216">
  <ele>-25.387</ele>
  <time>2026-09-02T22:11:32Z</time>
  <course>19.96</course>
  <speed>0.9835141076771599</speed>
  <fix>3d</fix>
</trkpt>
<trkpt lat="33.8107586" lon="-118.3937216">
  <ele>-25.388</ele>
  <time>2026-09-02T22:11:32Z</time>
  <course>19.96</course>
  <speed>0.9835141076771599</speed>
  <fix>3d</fix>
</trkpt>
<trkpt lat="33.8107586" lon="-118.3937215">
  <ele>-25.388</ele>
  <time>2026-09-02T22:11:32Z</time>
  <course>19.96</course>
  <speed>0.9835141076771599</speed>
  <fix>3d</fix>
</trkpt>
<trkpt lat="33.8107587" lon="-118.3937214">
  <ele>-25.389</ele>
  <time>2026-09-02T22:11:32Z</time>
  <course>19.96</course>
  <speed>0.9835141076771599</speed>
  <fix>3d</fix>
</trkpt>
<trkpt lat="33.8107587" lon="-118.3937214">
  <ele>-25.389</ele>
  <time>2026-09-02T22:11:32Z</time>
  <course>19.96</course>
  <speed>0.9835141076771599</speed>
  <fix>3d</fix>
</trkpt>
<trkpt lat="33.8107588" lon="-118.3937213">
  <ele>-25.389</ele>
  <time>2026-09-02T22:11:32Z</time>
  <course>19.96</course>
  <speed>0.9835141076771599</speed>
  <fix>3d</fix>
</trkpt>
<trkpt lat="33.8107588" lon="-118.3937212">
  <ele>-25.389</ele>
  <time>2026-09-02T22:11:32Z</time>
  <course>19.96</course>
  <speed>0.9835141076771599</speed>
  <fix>3d</fix>
</trkpt>
<trkpt lat="33.8107576" lon="-118.3937232">
  <ele>-24.76</ele>
  <time>2026-09-02T22:11:32Z</time>
  <course>44.94</course>
  <speed>0.99</speed>
  <fix>3d</fix>
</trkpt>
<trkpt lat="33.8107589" lon="-118.3937212">
  <ele>-25.39</ele>
  <time>2026-09-02T22:11:32Z</time>
  <course>19.96</course>
  <speed>0.9835141076771599</speed>
  <fix>3d</fix>
</trkpt>
<trkpt lat="33.810759" lon="-118.3937211">
  <ele>-25.39</ele>
  <time>2026-09-02T22:11:32Z</time>
  <course>19.96</course>
  <speed>0.9835141076771599</speed>
  <fix>3d</fix>
</trkpt>
<trkpt lat="33.8107591" lon="-118.393721">
  <ele>-25.391</ele>
  <time>2026-09-02T22:11:32Z</time>
  <course>19.96</course>
  <speed>0.9835141076771599</speed>
  <fix>3d</fix>
</trkpt>
<trkpt lat="33.8107591" lon="-118.3937209">
  <ele>-25.391</ele>
  <time>2026-09-02T22:11:32Z</time>
  <course>19.96</course>
  <speed>0.9835141076771599</speed>
  <fix>3d</fix>
</trkpt>
<trkpt lat="33.8107591" lon="-118.3937209">
  <ele>-25.391</ele>
  <time>2026-09-02T22:11:32Z</time>
  <course>19.96</course>
  <speed>0.9835141076771599</speed>
  <fix>3d</fix>
</trkpt>
<trkpt lat="33.8107592" lon="-118.3937208">
  <ele>-25.391</ele>
  <time>2026-09-02T22:11:32Z</time>
  <course>19.96</course>
  <speed>0.9835141076771599</speed>
  <fix>3d</fix>
</trkpt>
<trkpt lat="33.8107593" lon="-118.3937207">
  <ele>-25.392</ele>
  <time>2026-09-02T22:11:32Z</time>
  <course>19.96</course>
  <speed>0.9835141076771599</speed>
  <fix>3d</fix>
</trkpt>
<trkpt lat="33.8107593" lon="-118.3937207">
  <ele>-25.392</ele>
  <time>2026-09-02T22:11:32Z</time>
  <course>19.96</course>
  <speed>0.9835141076771599</speed>
  <fix>3d</fix>
</trkpt>
<trkpt lat="33.8107594" lon="-118.3937206">
  <ele>-25.393</ele>
  <time>2026-09-02T22:11:32Z</time>
  <course>19.96</course>
  <speed>0.9835141076771599</speed>
  <fix>3d</fix>
</trkpt>
<trkpt lat="33.8107595" lon="-118.3937205">
  <ele>-25.393</ele>
  <time>2026-09-02T22:11:32Z</time>
  <course>19.96</course>
  <speed>0.9835141076771599</speed>
  <fix>3d</fix>
</trkpt>
<trkpt lat="33.8107595" lon="-118.3937205">
  <ele>-25.393</ele>
  <time>2026-09-02T22:11:32Z</time>
  <course>19.96</course>
  <speed>0.9835141076771599</speed>
  <fix>3d</fix>
</trkpt>
<trkpt lat="33.8107588" lon="-118.3937217">
  <ele>-24.76</ele>
  <time>2026-09-02T22:11:32Z</time>
  <course>44.9</course>
  <speed>0.99</speed>
  <fix>3d</fix>
</trkpt>
<trkpt lat="33.8107595" lon="-118.3937205">
  <ele>-25.393</ele>
  <time>2026-09-02T22:11:32Z</time>
  <course>19.96</course>
  <speed>0.9835141076771599</speed>
  <fix>3d</fix>
</trkpt>
<trkpt lat="33.8107596" lon="-118.3937203">
  <ele>-25.394</ele>
  <time>2026-09-02T22:11:32Z</time>
  <course>19.96</course>
  <speed>0.9835141076771599</speed>
  <fix>3d</fix>
</trkpt>
<trkpt lat="33.8107597" lon="-118.3937202">
  <ele>-25.394</ele>
  <time>2026-09-02T22:11:32Z</time>
  <course>19.96</course>
  <speed>0.9835141076771599</speed>
  <fix>3d</fix>
</trkpt>
<trkpt lat="33.8107598" lon="-118.3937201">
  <ele>-25.395</ele>
  <time>2026-09-02T22:11:32Z</time>
  <course>19.96</course>
  <speed>0.9835141076771599</speed>
  <fix>3d</fix>
</trkpt>
<trkpt lat="33.8107598" lon="-118.3937201">
  <ele>-25.395</ele>
  <time>2026-09-02T22:11:32Z</time>
  <course>19.96</course>
  <speed>0.9835141076771599</speed>
  <fix>3d</fix>
</trkpt>
<trkpt lat="33.8107599" lon="-118.39372">
  <ele>-25.395</ele>
  <time>2026-09-02T22:11:32Z</time>
  <course>19.96</course>
  <speed>0.9835141076771599</speed>
  <fix>3d</fix>
</trkpt>
<trkpt lat="33.8107599" lon="-118.3937199">
  <ele>-25.396</ele>
  <time>2026-09-02T22:11:32Z</time>
  <course>19.96</course>
  <speed>0.9835141076771599</speed>
  <fix>3d</fix>
</trkpt>
<trkpt lat="33.81076" lon="-118.3937199">
  <ele>-25.396</ele>
  <time>2026-09-02T22:11:32Z</time>
  <course>19.96</course>
  <speed>0.9835141076771599</speed>
  <fix>3d</fix>
</trkpt>
<trkpt lat="33.8107601" lon="-118.3937198">
  <ele>-25.396</ele>
  <time>2026-09-02T22:11:32Z</time>
  <course>19.96</course>
  <speed>0.9835141076771599</speed>
  <fix>3d</fix>
</trkpt>
<trkpt lat="33.8107601" lon="-118.3937197">
  <ele>-25.396</ele>
  <time>2026-09-02T22:11:32Z</time>
  <course>19.96</course>
  <speed>0.9835141076771599</speed>
  <fix>3d</fix>
</trkpt>
<trkpt lat="33.8107588" lon="-118.3937217">
  <ele>-24.76</ele>
  <time>2026-09-02T22:11:32Z</time>
  <course>44.9</course>
  <speed>0.99</speed>
  <fix>3d</fix>
</trkpt>
<trkpt lat="33.8107601" lon="-118.3937197">
  <ele>-25.397</ele>
  <time>2026-09-02T22:11:32Z</time>
  <course>19.96</course>
  <speed>0.9835141076771599</speed>
  <fix>3d</fix>
</trkpt>
<trkpt lat="33.8107602" lon="-118.3937196">
  <ele>-25.397</ele>
  <time>2026-09-02T22:11:32Z</time>
  <course>19.96</course>
  <speed>0.9835141076771599</speed>
  <fix>3d</fix>
</trkpt>
<trkpt lat="33.8107603" lon="-118.3937195">
  <ele>-25.397</ele>
  <time>2026-09-02T22:11:32Z</time>
  <course>19.96</course>
  <speed>0.9835141076771599</speed>
  <fix>3d</fix>
</trkpt>
<trkpt lat="33.8107604" lon="-118.3937194">
  <ele>-25.398</ele>
  <time>2026-09-02T22:11:32Z</time>
  <course>19.96</course>
  <speed>0.9835141076771599</speed>
  <fix>3d</fix>
</trkpt>
<trkpt lat="33.8107604" lon="-118.3937193">
  <ele>-25.398</ele>
  <time>2026-09-02T22:11:32Z</time>
  <course>19.96</course>
  <speed>0.9835141076771599</speed>
  <fix>3d</fix>
</trkpt>
<trkpt lat="33.8107605" lon="-118.3937193">
  <ele>-25.398</ele>
  <time>2026-09-02T22:11:32Z</time>
  <course>19.96</course>
  <speed>0.9835141076771599</speed>
  <fix>3d</fix>
</trkpt>
<trkpt lat="33.8107605" lon="-118.3937192">
  <ele>-25.398</ele>
  <time>2026-09-02T22:11:32Z</time>
  <course>19.96</course>
  <speed>0.9903534722511957</speed>
  <fix>3d</fix>
</trkpt>
<trkpt lat="33.8107606" lon="-118.3937191">
  <ele>-25.399</ele>
  <time>2026-09-02T22:11:32Z</time>
  <course>19.96</course>
  <speed>0.9903534722511957</speed>
  <fix>3d</fix>
</trkpt>
<trkpt lat="33.8107607" lon="-118.3937191">
  <ele>-25.399</ele>
  <time>2026-09-02T22:11:32Z</time>
  <course>19.96</course>
  <speed>0.9903534722511957</speed>
  <fix>3d</fix>
</trkpt>
<trkpt lat="33.8107607" lon="-118.393719">
  <ele>-25.399</ele>
  <time>2026-09-02T22:11:32Z</time>
  <course>19.96</course>
  <speed>0.9835141076771599</speed>
  <fix>3d</fix>
</trkpt>
<trkpt lat="33.8107607" lon="-118.393719">
  <ele>-25.399</ele>
  <time>2026-09-02T22:11:32Z</time>
  <course>19.96</course>
  <speed>0.9835141076771599</speed>
  <fix>3d</fix>
</trkpt>
<trkpt lat="33.8107601" lon="-118.3937202">
  <ele>-24.77</ele>
  <time>2026-09-02T22:11:32Z</time>
  <course>44.85</course>
  <speed>0.99</speed>
  <fix>3d</fix>
</trkpt>
<trkpt lat="33.8107608" lon="-118.3937189">
  <ele>-25.399</ele>
  <time>2026-09-02T22:11:32Z</time>
  <course>19.96</course>
  <speed>0.9835141076771599</speed>
  <fix>3d</fix>
</trkpt>
<trkpt lat="33.8107609" lon="-118.3937187">
  <ele>-25.4</ele>
  <time>2026-09-02T22:11:32Z</time>
  <course>19.96</course>
  <speed>0.9835141076771599</speed>
  <fix>3d</fix>
</trkpt>
<trkpt lat="33.810761" lon="-118.3937187">
  <ele>-25.4</ele>
  <time>2026-09-02T22:11:32Z</time>
  <course>19.96</course>
  <speed>0.9835141076771599</speed>
  <fix>3d</fix>
</trkpt>
<trkpt lat="33.8107611" lon="-118.3937186">
  <ele>-25.4</ele>
  <time>2026-09-02T22:11:32Z</time>
  <course>19.96</course>
  <speed>0.9835141076771599</speed>
  <fix>3d</fix>
</trkpt>
<trkpt lat="33.8107611" lon="-118.3937185">
  <ele>-25.4</ele>
  <time>2026-09-02T22:11:32Z</time>
  <course>19.96</course>
  <speed>0.9835141076771599</speed>
  <fix>3d</fix>
</trkpt>
<trkpt lat="33.8107612" lon="-118.3937184">
  <ele>-25.4</ele>
  <time>2026-09-02T22:11:32Z</time>
  <course>19.96</course>
  <speed>0.9835141076771599</speed>
  <fix>3d</fix>
</trkpt>
<trkpt lat="33.8107612" lon="-118.3937184">
  <ele>-25.401</ele>
  <time>2026-09-02T22:11:32Z</time>
  <course>19.96</course>
  <speed>0.9835141076771599</speed>
  <fix>3d</fix>
</trkpt>
<trkpt lat="33.8107613" lon="-118.3937183">
  <ele>-25.401</ele>
  <time>2026-09-02T22:11:32Z</time>
  <course>19.96</course>
  <speed>0.9835141076771599</speed>
  <fix>3d</fix>
</trkpt>
<trkpt lat="33.8107613" lon="-118.3937183">
  <ele>-25.401</ele>
  <time>2026-09-02T22:11:32Z</time>
  <course>19.96</course>
  <speed>0.9835141076771599</speed>
  <fix>3d</fix>
</trkpt>
<trkpt lat="33.8107614" lon="-118.3937182">
  <ele>-25.401</ele>
  <time>2026-09-02T22:11:32Z</time>
  <course>19.96</course>
  <speed>0.9835141076771599</speed>
  <fix>3d</fix>
</trkpt>
<trkpt lat="33.8107614" lon="-118.3937182">
  <ele>-25.401</ele>
  <time>2026-09-02T22:11:32Z</time>
  <course>19.96</course>
  <speed>0.9835141076771599</speed>
  <fix>3d</fix>
</trkpt>
<trkpt lat="33.8107601" lon="-118.3937202">
  <ele>-24.77</ele>
  <time>2026-09-02T22:11:32Z</time>
  <course>44.85</course>
  <speed>0.99</speed>
  <fix>3d</fix>
</trkpt>
<trkpt lat="33.8107614" lon="-118.3937182">
  <ele>-25.401</ele>
  <time>2026-09-02T22:11:32Z</time>
  <course>19.96</course>
  <speed>0.9835141076771599</speed>
  <fix>3d</fix>
</trkpt>
<trkpt lat="33.8107614" lon="-118.3937181">
  <ele>-25.401</ele>
  <time>2026-09-02T22:11:32Z</time>
  <course>19.96</course>
  <speed>0.9903534722511957</speed>
  <fix>3d</fix>
</trkpt>
<trkpt lat="33.8107615" lon="-118.3937181">
  <ele>-25.401</ele>
  <time>2026-09-02T22:11:32Z</time>
  <course>19.96</course>
  <speed>0.9903534722511957</speed>
  <fix>3d</fix>
</trkpt>
<trkpt lat="33.8107615" lon="-118.393718">
  <ele>-25.401</ele>
  <time>2026-09-02T22:11:32Z</time>
  <course>19.96</course>
  <speed>0.9903534722511957</speed>
  <fix>3d</fix>
</trkpt>
<trkpt lat="33.8107616" lon="-118.3937179">
  <ele>-25.402</ele>
  <time>2026-09-02T22:11:32Z</time>
  <course>19.96</course>
  <speed>0.9903534722511957</speed>
  <fix>3d</fix>
</trkpt>
<trkpt lat="33.8107616" lon="-118.3937179">
  <ele>-25.402</ele>
  <time>2026-09-02T22:11:32Z</time>
  <course>19.96</course>
  <speed>0.9903534722511957</speed>
  <fix>3d</fix>
</trkpt>
<trkpt lat="33.8107617" lon="-118.3937178">
  <ele>-25.402</ele>
  <time>2026-09-02T22:11:32Z</time>
  <course>19.96</course>
  <speed>0.9903534722511957</speed>
  <fix>3d</fix>
</trkpt>
<trkpt lat="33.8107617" lon="-118.3937178">
  <ele>-25.402</ele>
  <time>2026-09-02T22:11:32Z</time>
  <course>19.96</course>
  <speed>0.9903534722511957</speed>
  <fix>3d</fix>
</trkpt>
<trkpt lat="33.8107618" lon="-118.3937177">
  <ele>-25.402</ele>
  <time>2026-09-02T22:11:32Z</time>
  <course>19.96</course>
  <speed>0.9903534722511957</speed>
  <fix>3d</fix>
</trkpt>
<trkpt lat="33.8107619" lon="-118.3937176">
  <ele>-25.402</ele>
  <time>2026-09-02T22:11:32Z</time>
  <course>19.96</course>
  <speed>0.9903534722511957</speed>
  <fix>3d</fix>
</trkpt>
<trkpt lat="33.8107619" lon="-118.3937175">
  <ele>-25.402</ele>
  <time>2026-09-02T22:11:32Z</time>
  <course>19.96</course>
  <speed>0.9903534722511957</speed>
  <fix>3d</fix>
</trkpt>
<trkpt lat="33.810762" lon="-118.3937175">
  <ele>-25.402</ele>
  <time>2026-09-02T22:11:32Z</time>
  <course>19.96</course>
  <speed>0.9903534722511957</speed>
  <fix>3d</fix>
</trkpt>
<trkpt lat="33.810762" lon="-118.3937174">
  <ele>-25.402</ele>
  <time>2026-09-02T22:11:32Z</time>
  <course>19.96</course>
  <speed>0.9903534722511957</speed>
  <fix>3d</fix>
</trkpt>
<trkpt lat="33.8107614" lon="-118.3937187">
  <ele>-24.77</ele>
  <time>2026-09-02T22:11:32Z</time>
  <course>44.81</course>
  <speed>0.99</speed>
  <fix>3d</fix>
</trkpt>
<trkpt lat="33.810762" lon="-118.3937174">
  <ele>-25.402</ele>
  <time>2026-09-02T22:11:32Z</time>
  <course>19.96</course>
  <speed>0.9903534722511957</speed>
  <fix>3d</fix>
</trkpt>
<trkpt lat="33.8107622" lon="-118.3937172">
  <ele>-25.403</ele>
  <time>2026-09-02T22:11:32Z</time>
  <course>19.96</course>
  <speed>0.9835141076771599</speed>
  <fix>3d</fix>
</trkpt>
<trkpt lat="33.8107623" lon="-118.3937171">
  <ele>-25.403</ele>
  <time>2026-09-02T22:11:32Z</time>
  <course>19.96</course>
  <speed>0.9835141076771599</speed>
  <fix>3d</fix>
</trkpt>
<trkpt lat="33.8107623" lon="-118.3937171">
  <ele>-25.403</ele>
  <time>2026-09-02T22:11:32Z</time>
  <course>19.96</course>
  <speed>0.9835141076771599</speed>
  <fix>3d</fix>
</trkpt>
<trkpt lat="33.8107623" lon="-118.393717">
  <ele>-25.403</ele>
  <time>2026-09-02T22:11:32Z</time>
  <course>19.96</course>
  <speed>0.9835141076771599</speed>
  <fix>3d</fix>
</trkpt>
<trkpt lat="33.8107624" lon="-118.393717">
  <ele>-25.403</ele>
  <time>2026-09-02T22:11:32Z</time>
  <course>19.96</course>
  <speed>0.9835141076771599</speed>
  <fix>3d</fix>
</trkpt>
<trkpt lat="33.8107625" lon="-118.3937169">
  <ele>-25.403</ele>
  <time>2026-09-02T22:11:32Z</time>
  <course>19.96</course>
  <speed>0.9835141076771599</speed>
  <fix>3d</fix>
</trkpt>
<trkpt lat="33.8107625" lon="-118.3937168">
  <ele>-25.403</ele>
  <time>2026-09-02T22:11:32Z</time>
  <course>19.97</course>
  <speed>0.9835141076771599</speed>
  <fix>3d</fix>
</trkpt>
<trkpt lat="33.8107626" lon="-118.3937167">
  <ele>-25.403</ele>
  <time>2026-09-02T22:11:32Z</time>
  <course>19.97</course>
  <speed>0.9835141076771599</speed>
  <fix>3d</fix>
</trkpt>
<trkpt lat="33.8107626" lon="-118.3937167">
  <ele>-25.403</ele>
  <time>2026-09-02T22:11:32Z</time>
  <course>19.97</course>
  <speed>0.9835141076771599</speed>
  <fix>3d</fix>
</trkpt>
<trkpt lat="33.8107627" lon="-118.3937167">
  <ele>-25.403</ele>
  <time>2026-09-02T22:11:32Z</time>
  <course>19.97</course>
  <speed>0.9835141076771599</speed>
  <fix>3d</fix>
</trkpt>
<trkpt lat="33.8107614" lon="-118.3937187">
  <ele>-24.77</ele>
  <time>2026-09-02T22:11:32Z</time>
  <course>44.81</course>
  <speed>0.99</speed>
  <fix>3d</fix>
</trkpt>
<trkpt lat="33.8107628" lon="-118.3937165">
  <ele>-25.403</ele>
  <time>2026-09-02T22:11:32Z</time>
  <course>19.96</course>
  <speed>0.9903534722511957</speed>
  <fix>3d</fix>
</trkpt>
<trkpt lat="33.8107628" lon="-118.3937164">
  <ele>-25.403</ele>
  <time>2026-09-02T22:11:32Z</time>
  <course>19.96</course>
  <speed>0.9903534722511957</speed>
  <fix>3d</fix>
</trkpt>
<trkpt lat="33.8107629" lon="-118.3937164">
  <ele>-25.404</ele>
  <time>2026-09-02T22:11:32Z</time>
  <course>19.96</course>
  <speed>0.9903534722511957</speed>
  <fix>3d</fix>
</trkpt>
<trkpt lat="33.8107629" lon="-118.3937163">
  <ele>-25.404</ele>
  <time>2026-09-02T22:11:32Z</time>
  <course>19.96</course>
  <speed>0.9903534722511957</speed>
  <fix>3d</fix>
</trkpt>
<trkpt lat="33.810763" lon="-118.3937163">
  <ele>-25.404</ele>
  <time>2026-09-02T22:11:32Z</time>
  <course>19.96</course>
  <speed>0.9903534722511957</speed>
  <fix>3d</fix>
</trkpt>
<trkpt lat="33.810763" lon="-118.3937162">
  <ele>-25.404</ele>
  <time>2026-09-02T22:11:32Z</time>
  <course>19.96</course>
  <speed>0.9903534722511957</speed>
  <fix>3d</fix>
</trkpt>
<trkpt lat="33.8107631" lon="-118.3937161">
  <ele>-25.404</ele>
  <time>2026-09-02T22:11:32Z</time>
  <course>19.96</course>
  <speed>0.9903534722511957</speed>
  <fix>3d</fix>
</trkpt>
<trkpt lat="33.8107631" lon="-118.3937161">
  <ele>-25.404</ele>
  <time>2026-09-02T22:11:32Z</time>
  <course>19.96</course>
  <speed>0.9903534722511957</speed>
  <fix>3d</fix>
</trkpt>
<trkpt lat="33.8107632" lon="-118.393716">
  <ele>-25.404</ele>
  <time>2026-09-02T22:11:32Z</time>
  <course>19.96</course>
  <speed>0.9903534722511957</speed>
  <fix>3d</fix>
</trkpt>
<trkpt lat="33.8107632" lon="-118.393716">
  <ele>-25.405</ele>
  <time>2026-09-02T22:11:32Z</time>
  <course>19.96</course>
  <speed>0.9903534722511957</speed>
  <fix>3d</fix>
</trkpt>
<trkpt lat="33.8107633" lon="-118.3937159">
  <ele>-25.405</ele>
  <time>2026-09-02T22:11:32Z</time>
  <course>19.97</course>
  <speed>0.9903534722511957</speed>
  <fix>3d</fix>
</trkpt>
<trkpt lat="33.8107633" lon="-118.3937159">
  <ele>-25.405</ele>
  <time>2026-09-02T22:11:32Z</time>
  <course>19.97</course>
  <speed>0.9903534722511957</speed>
  <fix>3d</fix>
</trkpt>
<trkpt lat="33.8107627" lon="-118.3937172">
  <ele>-24.78</ele>
  <time>2026-09-02T22:11:32Z</time>
  <course>44.81</course>
  <speed>0.99</speed>
  <fix>3d</fix>
</trkpt>
<trkpt lat="33.8107634" lon="-118.3937158">
  <ele>-25.405</ele>
  <time>2026-09-02T22:11:32Z</time>
  <course>19.97</course>
  <speed>0.9835141076771599</speed>
  <fix>3d</fix>
</trkpt>
<trkpt lat="33.8107634" lon="-118.3937157">
  <ele>-25.405</ele>
  <time>2026-09-02T22:11:32Z</time>
  <course>19.97</course>
  <speed>0.9835141076771599</speed>
  <fix>3d</fix>
</trkpt>
<trkpt lat="33.8107635" lon="-118.3937157">
  <ele>-25.405</ele>
  <time>2026-09-02T22:11:32Z</time>
  <course>19.97</course>
  <speed>0.9835141076771599</speed>
  <fix>3d</fix>
</trkpt>
<trkpt lat="33.8107635" lon="-118.3937156">
  <ele>-25.406</ele>
  <time>2026-09-02T22:11:32Z</time>
  <course>19.97</course>
  <speed>0.9835141076771599</speed>
  <fix>3d</fix>
</trkpt>
<trkpt lat="33.8107636" lon="-118.3937156">
  <ele>-25.406</ele>
  <time>2026-09-02T22:11:32Z</time>
  <course>19.97</course>
  <speed>0.9835141076771599</speed>
  <fix>3d</fix>
</trkpt>
<trkpt lat="33.8107636" lon="-118.3937155">
  <ele>-25.406</ele>
  <time>2026-09-02T22:11:32Z</time>
  <course>19.97</course>
  <speed>0.9835141076771599</speed>
  <fix>3d</fix>
</trkpt>
<trkpt lat="33.8107637" lon="-118.3937154">
  <ele>-25.406</ele>
  <time>2026-09-02T22:11:32Z</time>
  <course>19.97</course>
  <speed>0.9835141076771599</speed>
  <fix>3d</fix>
</trkpt>
<trkpt lat="33.8107637" lon="-118.3937154">
  <ele>-25.406</ele>
  <time>2026-09-02T22:11:32Z</time>
  <course>19.97</course>
  <speed>0.9835141076771599</speed>
  <fix>3d</fix>
</trkpt>
<trkpt lat="33.8107638" lon="-118.3937153">
  <ele>-25.406</ele>
  <time>2026-09-02T22:11:32Z</time>
  <course>19.98</course>
  <speed>0.9835141076771599</speed>
  <fix>3d</fix>
</trkpt>
<trkpt lat="33.8107638" lon="-118.3937152">
  <ele>-25.406</ele>
  <time>2026-09-02T22:11:32Z</time>
  <course>19.98</course>
  <speed>0.9835141076771599</speed>
  <fix>3d</fix>
</trkpt>
<trkpt lat="33.8107639" lon="-118.3937152">
  <ele>-25.406</ele>
  <time>2026-09-02T22:11:32Z</time>
  <course>19.98</course>
  <speed>0.9835141076771599</speed>
  <fix>3d</fix>
</trkpt>
<trkpt lat="33.8107639" lon="-118.3937152">
  <ele>-25.406</ele>
  <time>2026-09-02T22:11:32Z</time>
  <course>19.98</course>
  <speed>0.9835141076771599</speed>
  <fix>3d</fix>
</trkpt>
<trkpt lat="33.8107627" lon="-118.3937172">
  <ele>-24.78</ele>
  <time>2026-09-02T22:11:32Z</time>
  <course>44.81</course>
  <speed>0.99</speed>
  <fix>3d</fix>
</trkpt>
<trkpt lat="33.810764" lon="-118.393715">
  <ele>-25.406</ele>
  <time>2026-09-02T22:11:32Z</time>
  <course>19.98</course>
  <speed>0.9835141076771599</speed>
  <fix>3d</fix>
</trkpt>
<trkpt lat="33.8107641" lon="-118.3937149">
  <ele>-25.407</ele>
  <time>2026-09-02T22:11:32Z</time>
  <course>19.98</course>
  <speed>0.9835141076771599</speed>
  <fix>3d</fix>
</trkpt>
<trkpt lat="33.8107642" lon="-118.3937148">
  <ele>-25.407</ele>
  <time>2026-09-02T22:11:32Z</time>
  <course>19.98</course>
  <speed>0.9835141076771599</speed>
  <fix>3d</fix>
</trkpt>
<trkpt lat="33.8107642" lon="-118.3937148">
  <ele>-25.407</ele>
  <time>2026-09-02T22:11:32Z</time>
  <course>19.98</course>
  <speed>0.9835141076771599</speed>
  <fix>3d</fix>
</trkpt>
<trkpt lat="33.8107643" lon="-118.3937147">
  <ele>-25.407</ele>
  <time>2026-09-02T22:11:32Z</time>
  <course>19.98</course>
  <speed>0.9903534722511957</speed>
  <fix>3d</fix>
</trkpt>
<trkpt lat="33.8107643" lon="-118.3937147">
  <ele>-25.407</ele>
  <time>2026-09-02T22:11:32Z</time>
  <course>19.97</course>
  <speed>0.9903534722511957</speed>
  <fix>3d</fix>
</trkpt>
<trkpt lat="33.8107644" lon="-118.3937146">
  <ele>-25.407</ele>
  <time>2026-09-02T22:11:32Z</time>
  <course>19.97</course>
  <speed>0.9903534722511957</speed>
  <fix>3d</fix>
</trkpt>
<trkpt lat="33.8107644" lon="-118.3937145">
  <ele>-25.407</ele>
  <time>2026-09-02T22:11:32Z</time>
  <course>19.97</course>
  <speed>0.9903534722511957</speed>
  <fix>3d</fix>
</trkpt>
<trkpt lat="33.8107645" lon="-118.3937145">
  <ele>-25.407</ele>
  <time>2026-09-02T22:11:32Z</time>
  <course>19.97</course>
  <speed>0.9903534722511957</speed>
  <fix>3d</fix>
</trkpt>
<trkpt lat="33.8107646" lon="-118.3937144">
  <ele>-25.408</ele>
  <time>2026-09-02T22:11:32Z</time>
  <course>19.97</course>
  <speed>0.9835141076771599</speed>
  <fix>3d</fix>
</trkpt>
<trkpt lat="33.8107646" lon="-118.3937144">
  <ele>-25.408</ele>
  <time>2026-09-02T22:11:32Z</time>
  <course>19.97</course>
  <speed>0.9835141076771599</speed>
  <fix>3d</fix>
</trkpt>
<trkpt lat="33.8107639" lon="-118.3937156">
  <ele>-24.78</ele>
  <time>2026-09-02T22:11:32Z</time>
  <course>44.86</course>
  <speed>0.99</speed>
  <fix>3d</fix>
</trkpt>
<trkpt lat="33.8107646" lon="-118.3937144">
  <ele>-25.408</ele>
  <time>2026-09-02T22:11:32Z</time>
  <course>19.97</course>
  <speed>0.9835141076771599</speed>
  <fix>3d</fix>
</trkpt>
<trkpt lat="33.8107647" lon="-118.3937143">
  <ele>-25.408</ele>
  <time>2026-09-02T22:11:32Z</time>
  <course>19.97</course>
  <speed>0.9835141076771599</speed>
  <fix>3d</fix>
</trkpt>
<trkpt lat="33.8107648" lon="-118.3937141">
  <ele>-25.408</ele>
  <time>2026-09-02T22:11:32Z</time>
  <course>19.97</course>
  <speed>0.9835141076771599</speed>
  <fix>3d</fix>
</trkpt>
<trkpt lat="33.8107649" lon="-118.393714">
  <ele>-25.408</ele>
  <time>2026-09-02T22:11:32Z</time>
  <course>19.97</course>
  <speed>0.9835141076771599</speed>
  <fix>3d</fix>
</trkpt>
<trkpt lat="33.810765" lon="-118.3937139">
  <ele>-25.409</ele>
  <time>2026-09-02T22:11:32Z</time>
  <course>19.97</course>
  <speed>0.9835141076771599</speed>
  <fix>3d</fix>
</trkpt>
<trkpt lat="33.810765" lon="-118.3937138">
  <ele>-25.409</ele>
  <time>2026-09-02T22:11:32Z</time>
  <course>19.97</course>
  <speed>0.9835141076771599</speed>
  <fix>3d</fix>
</trkpt>
<trkpt lat="33.8107651" lon="-118.3937137">
  <ele>-25.409</ele>
  <time>2026-09-02T22:11:32Z</time>
  <course>19.97</course>
  <speed>0.9835141076771599</speed>
  <fix>3d</fix>
</trkpt>
<trkpt lat="33.8107652" lon="-118.3937137">
  <ele>-25.409</ele>
  <time>2026-09-02T22:11:32Z</time>
  <course>19.97</course>
  <speed>0.9835141076771599</speed>
  <fix>3d</fix>
</trkpt>
<trkpt lat="33.8107652" lon="-118.3937136">
  <ele>-25.41</ele>
  <time>2026-09-02T22:11:32Z</time>
  <course>19.97</course>
  <speed>0.9835141076771599</speed>
  <fix>3d</fix>
</trkpt>
<trkpt lat="33.8107639" lon="-118.3937156">
  <ele>-24.78</ele>
  <time>2026-09-02T22:11:32Z</time>
  <course>44.86</course>
  <speed>0.99</speed>
  <fix>3d</fix>
</trkpt>
<trkpt lat="33.8107652" lon="-118.3937136">
  <ele>-25.41</ele>
  <time>2026-09-02T22:11:32Z</time>
  <course>19.97</course>
  <speed>0.9835141076771599</speed>
  <fix>3d</fix>
</trkpt>
<trkpt lat="33.8107654" lon="-118.3937134">
  <ele>-25.411</ele>
  <time>2026-09-02T22:11:32Z</time>
  <course>19.97</course>
  <speed>0.9903534722511957</speed>
  <fix>3d</fix>
</trkpt>
<trkpt lat="33.8107655" lon="-118.3937133">
  <ele>-25.411</ele>
  <time>2026-09-02T22:11:32Z</time>
  <course>19.97</course>
  <speed>0.9903534722511957</speed>
  <fix>3d</fix>
</trkpt>
<trkpt lat="33.8107655" lon="-118.3937132">
  <ele>-25.411</ele>
  <time>2026-09-02T22:11:32Z</time>
  <course>19.97</course>
  <speed>0.9903534722511957</speed>
  <fix>3d</fix>
</trkpt>
<trkpt lat="33.8107656" lon="-118.3937131">
  <ele>-25.411</ele>
  <time>2026-09-02T22:11:32Z</time>
  <course>19.97</course>
  <speed>0.9903534722511957</speed>
  <fix>3d</fix>
</trkpt>
<trkpt lat="33.8107657" lon="-118.393713">
  <ele>-25.412</ele>
  <time>2026-09-02T22:11:32Z</time>
  <course>19.97</course>
  <speed>0.9903534722511957</speed>
  <fix>3d</fix>
</trkpt>
<trkpt lat="33.8107658" lon="-118.3937129">
  <ele>-25.412</ele>
  <time>2026-09-02T22:11:32Z</time>
  <course>19.97</course>
  <speed>0.9903534722511957</speed>
  <fix>3d</fix>
</trkpt>
<trkpt lat="33.8107658" lon="-118.3937129">
  <ele>-25.412</ele>
  <time>2026-09-02T22:11:32Z</time>
  <course>19.97</course>
  <speed>0.9903534722511957</speed>
  <fix>3d</fix>
</trkpt>
<trkpt lat="33.8107658" lon="-118.3937129">
  <ele>-25.412</ele>
  <time>2026-09-02T22:11:32Z</time>
  <course>19.97</course>
  <speed>0.9903534722511957</speed>
  <fix>3d</fix>
</trkpt>
<trkpt lat="33.8107652" lon="-118.3937141">
  <ele>-24.79</ele>
  <time>2026-09-02T22:11:32Z</time>
  <course>44.89</course>
  <speed>0.99</speed>
  <fix>3d</fix>
</trkpt>
<trkpt lat="33.810766" lon="-118.3937127">
  <ele>-25.413</ele>
  <time>2026-09-02T22:11:32Z</time>
  <course>19.97</course>
  <speed>0.9835141076771599</speed>
  <fix>3d</fix>
</trkpt>
<trkpt lat="33.8107661" lon="-118.3937126">
  <ele>-25.413</ele>
  <time>2026-09-02T22:11:32Z</time>
  <course>19.97</course>
  <speed>0.9835141076771599</speed>
  <fix>3d</fix>
</trkpt>
<trkpt lat="33.8107661" lon="-118.3937125">
  <ele>-25.413</ele>
  <time>2026-09-02T22:11:32Z</time>
  <course>19.97</course>
  <speed>0.9835141076771599</speed>
  <fix>3d</fix>
</trkpt>
<trkpt lat="33.8107662" lon="-118.3937124">
  <ele>-25.414</ele>
  <time>2026-09-02T22:11:32Z</time>
  <course>19.97</course>
  <speed>0.9835141076771599</speed>
  <fix>3d</fix>
</trkpt>
<trkpt lat="33.8107663" lon="-118.3937124">
  <ele>-25.414</ele>
  <time>2026-09-02T22:11:32Z</time>
  <course>19.97</course>
  <speed>0.9835141076771599</speed>
  <fix>3d</fix>
</trkpt>
<trkpt lat="33.8107663" lon="-118.3937123">
  <ele>-25.414</ele>
  <time>2026-09-02T22:11:32Z</time>
  <course>19.97</course>
  <speed>0.9835141076771599</speed>
  <fix>3d</fix>
</trkpt>
<trkpt lat="33.8107664" lon="-118.3937122">
  <ele>-25.414</ele>
  <time>2026-09-02T22:11:32Z</time>
  <course>19.97</course>
  <speed>0.9835141076771599</speed>
  <fix>3d</fix>
</trkpt>
<trkpt lat="33.8107664" lon="-118.3937122">
  <ele>-25.415</ele>
  <time>2026-09-02T22:11:32Z</time>
  <course>19.97</course>
  <speed>0.9835141076771599</speed>
  <fix>3d</fix>
</trkpt>
<trkpt lat="33.8107665" lon="-118.3937121">
  <ele>-25.415</ele>
  <time>2026-09-02T22:11:32Z</time>
  <course>19.98</course>
  <speed>0.9835141076771599</speed>
  <fix>3d</fix>
</trkpt>
<trkpt lat="33.8107665" lon="-118.3937121">
  <ele>-25.415</ele>
  <time>2026-09-02T22:11:32Z</time>
  <course>19.98</course>
  <speed>0.9835141076771599</speed>
  <fix>3d</fix>
</trkpt>
<trkpt lat="33.8107652" lon="-118.3937141">
  <ele>-24.79</ele>
  <time>2026-09-02T22:11:32Z</time>
  <course>44.89</course>
  <speed>0.99</speed>
  <fix>3d</fix>
</trkpt>
<trkpt lat="33.8107666" lon="-118.3937119">
  <ele>-25.416</ele>
  <time>2026-09-02T22:11:32Z</time>
  <course>19.98</course>
  <speed>0.9903534722511957</speed>
  <fix>3d</fix>
</trkpt>
<trkpt lat="33.8107667" lon="-118.3937118">
  <ele>-25.416</ele>
  <time>2026-09-02T22:11:32Z</time>
  <course>19.98</course>
  <speed>0.9903534722511957</speed>
  <fix>3d</fix>
</trkpt>
<trkpt lat="33.8107667" lon="-118.3937118">
  <ele>-25.416</ele>
  <time>2026-09-02T22:11:33Z</time>
  <course>19.98</course>
  <speed>0.9903534722511957</speed>
  <fix>3d</fix>
</trkpt>
<trkpt lat="33.8107668" lon="-118.3937117">
  <ele>-25.416</ele>
  <time>2026-09-02T22:11:33Z</time>
  <course>19.98</course>
  <speed>0.9903534722511957</speed>
  <fix>3d</fix>
</trkpt>
<trkpt lat="33.8107669" lon="-118.3937116">
  <ele>-25.417</ele>
  <time>2026-09-02T22:11:33Z</time>
  <course>19.98</course>
  <speed>0.9903534722511957</speed>
  <fix>3d</fix>
</trkpt>
<trkpt lat="33.8107669" lon="-118.3937116">
  <ele>-25.417</ele>
  <time>2026-09-02T22:11:33Z</time>
  <course>19.98</course>
  <speed>0.9903534722511957</speed>
  <fix>3d</fix>
</trkpt>
<trkpt lat="33.810767" lon="-118.3937115">
  <ele>-25.417</ele>
  <time>2026-09-02T22:11:33Z</time>
  <course>19.98</course>
  <speed>0.9903534722511957</speed>
  <fix>3d</fix>
</trkpt>
<trkpt lat="33.810767" lon="-118.3937114">
  <ele>-25.417</ele>
  <time>2026-09-02T22:11:33Z</time>
  <course>19.98</course>
  <speed>0.9903534722511957</speed>
  <fix>3d</fix>
</trkpt>
<trkpt lat="33.8107671" lon="-118.3937114">
  <ele>-25.418</ele>
  <time>2026-09-02T22:11:33Z</time>
  <course>19.98</course>
  <speed>0.9903534722511957</speed>
  <fix>3d</fix>
</trkpt>
<trkpt lat="33.8107671" lon="-118.3937113">
  <ele>-25.418</ele>
  <time>2026-09-02T22:11:33Z</time>
  <course>19.98</course>
  <speed>0.9903534722511957</speed>
  <fix>3d</fix>
</trkpt>
<trkpt lat="33.8107665" lon="-118.3937126">
  <ele>-24.79</ele>
  <time>2026-09-02T22:11:33Z</time>
  <course>44.89</course>
  <speed>0.99</speed>
  <fix>3d</fix>
</trkpt>
<trkpt lat="33.8107671" lon="-118.3937113">
  <ele>-25.418</ele>
  <time>2026-09-02T22:11:33Z</time>
  <course>19.98</course>
  <speed>0.9903534722511957</speed>
  <fix>3d</fix>
</trkpt>
<trkpt lat="33.8107673" lon="-118.3937111">
  <ele>-25.418</ele>
  <time>2026-09-02T22:11:33Z</time>
  <course>19.98</course>
  <speed>0.9835141076771599</speed>
  <fix>3d</fix>
</trkpt>
<trkpt lat="33.8107673" lon="-118.3937111">
  <ele>-25.419</ele>
  <time>2026-09-02T22:11:33Z</time>
  <course>19.98</course>
  <speed>0.9835141076771599</speed>
  <fix>3d</fix>
</trkpt>
<trkpt lat="33.8107674" lon="-118.3937109">
  <ele>-25.419</ele>
  <time>2026-09-02T22:11:33Z</time>
  <course>19.98</course>
  <speed>0.9835141076771599</speed>
  <fix>3d</fix>
</trkpt>
<trkpt lat="33.8107675" lon="-118.3937109">
  <ele>-25.419</ele>
  <time>2026-09-02T22:11:33Z</time>
  <course>19.98</course>
  <speed>0.9835141076771599</speed>
  <fix>3d</fix>
</trkpt>
<trkpt lat="33.8107675" lon="-118.3937108">
  <ele>-25.419</ele>
  <time>2026-09-02T22:11:33Z</time>
  <course>19.98</course>
  <speed>0.9835141076771599</speed>
  <fix>3d</fix>
</trkpt>
<trkpt lat="33.8107676" lon="-118.3937107">
  <ele>-25.42</ele>
  <time>2026-09-02T22:11:33Z</time>
  <course>19.98</course>
  <speed>0.9835141076771599</speed>
  <fix>3d</fix>
</trkpt>
<trkpt lat="33.8107677" lon="-118.3937106">
  <ele>-25.42</ele>
  <time>2026-09-02T22:11:33Z</time>
  <course>19.98</course>
  <speed>0.9835141076771599</speed>
  <fix>3d</fix>
</trkpt>
<trkpt lat="33.8107677" lon="-118.3937106">
  <ele>-25.42</ele>
  <time>2026-09-02T22:11:33Z</time>
  <course>19.98</course>
  <speed>0.9835141076771599</speed>
  <fix>3d</fix>
</trkpt>
<trkpt lat="33.8107665" lon="-118.3937126">
  <ele>-24.79</ele>
  <time>2026-09-02T22:11:33Z</time>
  <course>44.89</course>
  <speed>0.99</speed>
  <fix>3d</fix>
</trkpt>
<trkpt lat="33.8107678" lon="-118.3937106">
  <ele>-25.42</ele>
  <time>2026-09-02T22:11:33Z</time>
  <course>19.98</course>
  <speed>0.9835141076771599</speed>
  <fix>3d</fix>
</trkpt>
<trkpt lat="33.8107679" lon="-118.3937104">
  <ele>-25.421</ele>
  <time>2026-09-02T22:11:33Z</time>
  <course>19.98</course>
  <speed>0.9835141076771599</speed>
  <fix>3d</fix>
</trkpt>
<trkpt lat="33.810768" lon="-118.3937103">
  <ele>-25.421</ele>
  <time>2026-09-02T22:11:33Z</time>
  <course>19.98</course>
  <speed>0.9835141076771599</speed>
  <fix>3d</fix>
</trkpt>
<trkpt lat="33.810768" lon="-118.3937102">
  <ele>-25.421</ele>
  <time>2026-09-02T22:11:33Z</time>
  <course>19.98</course>
  <speed>0.9835141076771599</speed>
  <fix>3d</fix>
</trkpt>
<trkpt lat="33.8107681" lon="-118.3937101">
  <ele>-25.421</ele>
  <time>2026-09-02T22:11:33Z</time>
  <course>19.98</course>
  <speed>0.9835141076771599</speed>
  <fix>3d</fix>
</trkpt>
<trkpt lat="33.8107682" lon="-118.39371">
  <ele>-25.422</ele>
  <time>2026-09-02T22:11:33Z</time>
  <course>19.98</course>
  <speed>0.9903534722511957</speed>
  <fix>3d</fix>
</trkpt>
<trkpt lat="33.8107682" lon="-118.39371">
  <ele>-25.422</ele>
  <time>2026-09-02T22:11:33Z</time>
  <course>19.98</course>
  <speed>0.9835141076771599</speed>
  <fix>3d</fix>
</trkpt>
<trkpt lat="33.8107683" lon="-118.3937099">
  <ele>-25.422</ele>
  <time>2026-09-02T22:11:33Z</time>
  <course>19.98</course>
  <speed>0.9835141076771599</speed>
  <fix>3d</fix>
</trkpt>
<trkpt lat="33.8107684" lon="-118.3937098">
  <ele>-25.423</ele>
  <time>2026-09-02T22:11:33Z</time>
  <course>19.98</course>
  <speed>0.9835141076771599</speed>
  <fix>3d</fix>
</trkpt>
<trkpt lat="33.8107684" lon="-118.3937098">
  <ele>-25.423</ele>
  <time>2026-09-02T22:11:33Z</time>
  <course>19.98</course>
  <speed>0.9835141076771599</speed>
  <fix>3d</fix>
</trkpt>
<trkpt lat="33.8107678" lon="-118.3937111">
  <ele>-24.8</ele>
  <time>2026-09-02T22:11:33Z</time>
  <course>44.89</course>
  <speed>0.99</speed>
  <fix>3d</fix>
</trkpt>
<trkpt lat="33.8107684" lon="-118.3937098">
  <ele>-25.423</ele>
  <time>2026-09-02T22:11:33Z</time>
  <course>19.98</course>
  <speed>0.9835141076771599</speed>
  <fix>3d</fix>
</trkpt>
<trkpt lat="33.8107686" lon="-118.3937096">
  <ele>-25.423</ele>
  <time>2026-09-02T22:11:33Z</time>
  <course>19.98</course>
  <speed>0.9835141076771599</speed>
  <fix>3d</fix>
</trkpt>
<trkpt lat="33.8107686" lon="-118.3937095">
  <ele>-25.424</ele>
  <time>2026-09-02T22:11:33Z</time>
  <course>19.98</course>
  <speed>0.9835141076771599</speed>
  <fix>3d</fix>
</trkpt>
<trkpt lat="33.8107687" lon="-118.3937094">
  <ele>-25.424</ele>
  <time>2026-09-02T22:11:33Z</time>
  <course>19.98</course>
  <speed>0.9835141076771599</speed>
  <fix>3d</fix>
</trkpt>
<trkpt lat="33.8107688" lon="-118.3937093">
  <ele>-25.424</ele>
  <time>2026-09-02T22:11:33Z</time>
  <course>19.98</course>
  <speed>0.9835141076771599</speed>
  <fix>3d</fix>
</trkpt>
<trkpt lat="33.8107688" lon="-118.3937093">
  <ele>-25.425</ele>
  <time>2026-09-02T22:11:33Z</time>
  <course>19.98</course>
  <speed>0.9835141076771599</speed>
  <fix>3d</fix>
</trkpt>
<trkpt lat="33.8107689" lon="-118.3937092">
  <ele>-25.425</ele>
  <time>2026-09-02T22:11:33Z</time>
  <course>19.98</course>
  <speed>0.9835141076771599</speed>
  <fix>3d</fix>
</trkpt>
<trkpt lat="33.810769" lon="-118.3937091">
  <ele>-25.426</ele>
  <time>2026-09-02T22:11:33Z</time>
  <course>19.98</course>
  <speed>0.9835141076771599</speed>
  <fix>3d</fix>
</trkpt>
<trkpt lat="33.810769" lon="-118.3937091">
  <ele>-25.426</ele>
  <time>2026-09-02T22:11:33Z</time>
  <course>19.98</course>
  <speed>0.9835141076771599</speed>
  <fix>3d</fix>
</trkpt>
<trkpt lat="33.8107678" lon="-118.3937111">
  <ele>-24.8</ele>
  <time>2026-09-02T22:11:33Z</time>
  <course>44.89</course>
  <speed>0.99</speed>
  <fix>3d</fix>
</trkpt>
<trkpt lat="33.810769" lon="-118.393709">
  <ele>-25.426</ele>
  <time>2026-09-02T22:11:33Z</time>
  <course>19.98</course>
  <speed>0.9835141076771599</speed>
  <fix>3d</fix>
</trkpt>
<trkpt lat="33.8107692" lon="-118.3937089">
  <ele>-25.427</ele>
  <time>2026-09-02T22:11:33Z</time>
  <course>19.98</course>
  <speed>0.9835141076771599</speed>
  <fix>3d</fix>
</trkpt>
<trkpt lat="33.8107692" lon="-118.3937088">
  <ele>-25.427</ele>
  <time>2026-09-02T22:11:33Z</time>
  <course>19.98</course>
  <speed>0.9835141076771599</speed>
  <fix>3d</fix>
</trkpt>
<trkpt lat="33.8107693" lon="-118.3937087">
  <ele>-25.427</ele>
  <time>2026-09-02T22:11:33Z</time>
  <course>19.97</course>
  <speed>0.9835141076771599</speed>
  <fix>3d</fix>
</trkpt>
<trkpt lat="33.8107693" lon="-118.3937087">
  <ele>-25.428</ele>
  <time>2026-09-02T22:11:33Z</time>
  <course>19.97</course>
  <speed>0.9835141076771599</speed>
  <fix>3d</fix>
</trkpt>
<trkpt lat="33.8107694" lon="-118.3937086">
  <ele>-25.428</ele>
  <time>2026-09-02T22:11:33Z</time>
  <course>19.97</course>
  <speed>0.9835141076771599</speed>
  <fix>3d</fix>
</trkpt>
<trkpt lat="33.8107695" lon="-118.3937085">
  <ele>-25.428</ele>
  <time>2026-09-02T22:11:33Z</time>
  <course>19.97</course>
  <speed>0.9835141076771599</speed>
  <fix>3d</fix>
</trkpt>
<trkpt lat="33.8107695" lon="-118.3937084">
  <ele>-25.429</ele>
  <time>2026-09-02T22:11:33Z</time>
  <course>19.97</course>
  <speed>0.9835141076771599</speed>
  <fix>3d</fix>
</trkpt>
<trkpt lat="33.8107696" lon="-118.3937084">
  <ele>-25.429</ele>
  <time>2026-09-02T22:11:33Z</time>
  <course>19.97</course>
  <speed>0.9835141076771599</speed>
  <fix>3d</fix>
</trkpt>
<trkpt lat="33.8107696" lon="-118.3937083">
  <ele>-25.429</ele>
  <time>2026-09-02T22:11:33Z</time>
  <course>19.97</course>
  <speed>0.9835141076771599</speed>
  <fix>3d</fix>
</trkpt>
<trkpt lat="33.810769" lon="-118.3937095">
  <ele>-24.8</ele>
  <time>2026-09-02T22:11:33Z</time>
  <course>44.94</course>
  <speed>0.99</speed>
  <fix>3d</fix>
</trkpt>
<trkpt lat="33.8107697" lon="-118.3937083">
  <ele>-25.429</ele>
  <time>2026-09-02T22:11:33Z</time>
  <course>19.97</course>
  <speed>0.9835141076771599</speed>
  <fix>3d</fix>
</trkpt>
<trkpt lat="33.8107697" lon="-118.3937082">
  <ele>-25.43</ele>
  <time>2026-09-02T22:11:33Z</time>
  <course>19.97</course>
  <speed>0.9835141076771599</speed>
  <fix>3d</fix>
</trkpt>
<trkpt lat="33.8107698" lon="-118.3937081">
  <ele>-25.43</ele>
  <time>2026-09-02T22:11:33Z</time>
  <course>19.97</course>
  <speed>0.9835141076771599</speed>
  <fix>3d</fix>
</trkpt>
<trkpt lat="33.8107699" lon="-118.393708">
  <ele>-25.43</ele>
  <time>2026-09-02T22:11:33Z</time>
  <course>19.97</course>
  <speed>0.9835141076771599</speed>
  <fix>3d</fix>
</trkpt>
<trkpt lat="33.8107699" lon="-118.393708">
  <ele>-25.431</ele>
  <time>2026-09-02T22:11:33Z</time>
  <course>19.97</course>
  <speed>0.9835141076771599</speed>
  <fix>3d</fix>
</trkpt>
<trkpt lat="33.81077" lon="-118.3937079">
  <ele>-25.431</ele>
  <time>2026-09-02T22:11:33Z</time>
  <course>19.97</course>
  <speed>0.9835141076771599</speed>
  <fix>3d</fix>
</trkpt>
<trkpt lat="33.8107701" lon="-118.3937078">
  <ele>-25.431</ele>
  <time>2026-09-02T22:11:33Z</time>
  <course>19.97</course>
  <speed>0.9835141076771599</speed>
  <fix>3d</fix>
</trkpt>
<trkpt lat="33.8107701" lon="-118.3937077">
  <ele>-25.432</ele>
  <time>2026-09-02T22:11:33Z</time>
  <course>19.97</course>
  <speed>0.9835141076771599</speed>
  <fix>3d</fix>
</trkpt>
<trkpt lat="33.8107702" lon="-118.3937076">
  <ele>-25.432</ele>
  <time>2026-09-02T22:11:33Z</time>
  <course>19.97</course>
  <speed>0.9835141076771599</speed>
  <fix>3d</fix>
</trkpt>
<trkpt lat="33.8107703" lon="-118.3937076">
  <ele>-25.432</ele>
  <time>2026-09-02T22:11:33Z</time>
  <course>19.97</course>
  <speed>0.9835141076771599</speed>
  <fix>3d</fix>
</trkpt>
<trkpt lat="33.8107703" lon="-118.3937075">
  <ele>-25.432</ele>
  <time>2026-09-02T22:11:33Z</time>
  <course>19.97</course>
  <speed>0.9835141076771599</speed>
  <fix>3d</fix>
</trkpt>
<trkpt lat="33.810769" lon="-118.3937095">
  <ele>-24.8</ele>
  <time>2026-09-02T22:11:33Z</time>
  <course>44.94</course>
  <speed>0.99</speed>
  <fix>3d</fix>
</trkpt>
<trkpt lat="33.8107703" lon="-118.3937075">
  <ele>-25.433</ele>
  <time>2026-09-02T22:11:33Z</time>
  <course>19.97</course>
  <speed>0.9835141076771599</speed>
  <fix>3d</fix>
</trkpt>
<trkpt lat="33.8107703" lon="-118.3937075">
  <ele>-25.433</ele>
  <time>2026-09-02T22:11:33Z</time>
  <course>19.97</course>
  <speed>0.9835141076771599</speed>
  <fix>3d</fix>
</trkpt>
<trkpt lat="33.8107704" lon="-118.3937074">
  <ele>-25.433</ele>
  <time>2026-09-02T22:11:33Z</time>
  <course>19.97</course>
  <speed>0.9835141076771599</speed>
  <fix>3d</fix>
</trkpt>
<trkpt lat="33.8107704" lon="-118.3937074">
  <ele>-25.433</ele>
  <time>2026-09-02T22:11:33Z</time>
  <course>19.97</course>
  <speed>0.9835141076771599</speed>
  <fix>3d</fix>
</trkpt>
<trkpt lat="33.8107705" lon="-118.3937073">
  <ele>-25.433</ele>
  <time>2026-09-02T22:11:33Z</time>
  <course>19.97</course>
  <speed>0.9835141076771599</speed>
  <fix>3d</fix>
</trkpt>
<trkpt lat="33.8107705" lon="-118.3937072">
  <ele>-25.434</ele>
  <time>2026-09-02T22:11:33Z</time>
  <course>19.97</course>
  <speed>0.9835141076771599</speed>
  <fix>3d</fix>
</trkpt>
<trkpt lat="33.8107706" lon="-118.3937072">
  <ele>-25.434</ele>
  <time>2026-09-02T22:11:33Z</time>
  <course>19.97</course>
  <speed>0.9835141076771599</speed>
  <fix>3d</fix>
</trkpt>
<trkpt lat="33.8107706" lon="-118.3937071">
  <ele>-25.434</ele>
  <time>2026-09-02T22:11:33Z</time>
  <course>19.97</course>
  <speed>0.9835141076771599</speed>
  <fix>3d</fix>
</trkpt>
<trkpt lat="33.8107707" lon="-118.3937071">
  <ele>-25.434</ele>
  <time>2026-09-02T22:11:33Z</time>
  <course>19.97</course>
  <speed>0.9835141076771599</speed>
  <fix>3d</fix>
</trkpt>
<trkpt lat="33.8107707" lon="-118.393707">
  <ele>-25.434</ele>
  <time>2026-09-02T22:11:33Z</time>
  <course>19.97</course>
  <speed>0.9835141076771599</speed>
  <fix>3d</fix>
</trkpt>
<trkpt lat="33.8107708" lon="-118.393707">
  <ele>-25.434</ele>
  <time>2026-09-02T22:11:33Z</time>
  <course>19.97</course>
  <speed>0.9835141076771599</speed>
  <fix>3d</fix>
</trkpt>
<trkpt lat="33.8107708" lon="-118.3937069">
  <ele>-25.435</ele>
  <time>2026-09-02T22:11:33Z</time>
  <course>19.97</course>
  <speed>0.9835141076771599</speed>
  <fix>3d</fix>
</trkpt>
<trkpt lat="33.8107709" lon="-118.3937068">
  <ele>-25.435</ele>
  <time>2026-09-02T22:11:33Z</time>
  <course>19.97</course>
  <speed>0.9835141076771599</speed>
  <fix>3d</fix>
</trkpt>
<trkpt lat="33.8107709" lon="-118.3937068">
  <ele>-25.435</ele>
  <time>2026-09-02T22:11:33Z</time>
  <course>19.97</course>
  <speed>0.9835141076771599</speed>
  <fix>3d</fix>
</trkpt>
<trkpt lat="33.8107709" lon="-118.3937068">
  <ele>-25.435</ele>
  <time>2026-09-02T22:11:33Z</time>
  <course>19.97</course>
  <speed>0.9835141076771599</speed>
  <fix>3d</fix>
</trkpt>
<trkpt lat="33.8107703" lon="-118.393708">
  <ele>-24.81</ele>
  <time>2026-09-02T22:11:33Z</time>
  <course>44.97</course>
  <speed>0.99</speed>
  <fix>3d</fix>
</trkpt>
<trkpt lat="33.8107709" lon="-118.3937067">
  <ele>-25.435</ele>
  <time>2026-09-02T22:11:33Z</time>
  <course>19.97</course>
  <speed>0.9835141076771599</speed>
  <fix>3d</fix>
</trkpt>
<trkpt lat="33.8107711" lon="-118.3937065">
  <ele>-25.436</ele>
  <time>2026-09-02T22:11:33Z</time>
  <course>19.97</course>
  <speed>0.9835141076771599</speed>
  <fix>3d</fix>
</trkpt>
<trkpt lat="33.8107712" lon="-118.3937064">
  <ele>-25.436</ele>
  <time>2026-09-02T22:11:33Z</time>
  <course>19.97</course>
  <speed>0.9835141076771599</speed>
  <fix>3d</fix>
</trkpt>
<trkpt lat="33.8107713" lon="-118.3937064">
  <ele>-25.436</ele>
  <time>2026-09-02T22:11:33Z</time>
  <course>19.97</course>
  <speed>0.9835141076771599</speed>
  <fix>3d</fix>
</trkpt>
<trkpt lat="33.8107713" lon="-118.3937063">
  <ele>-25.437</ele>
  <time>2026-09-02T22:11:33Z</time>
  <course>19.97</course>
  <speed>0.9835141076771599</speed>
  <fix>3d</fix>
</trkpt>
<trkpt lat="33.8107714" lon="-118.3937062">
  <ele>-25.437</ele>
  <time>2026-09-02T22:11:33Z</time>
  <course>19.97</course>
  <speed>0.9835141076771599</speed>
  <fix>3d</fix>
</trkpt>
<trkpt lat="33.8107714" lon="-118.3937061">
  <ele>-25.437</ele>
  <time>2026-09-02T22:11:33Z</time>
  <course>19.97</course>
  <speed>0.9835141076771599</speed>
  <fix>3d</fix>
</trkpt>
<trkpt lat="33.8107715" lon="-118.3937061">
  <ele>-25.437</ele>
  <time>2026-09-02T22:11:33Z</time>
  <course>19.97</course>
  <speed>0.9835141076771599</speed>
  <fix>3d</fix>
</trkpt>
<trkpt lat="33.8107716" lon="-118.393706">
  <ele>-25.437</ele>
  <time>2026-09-02T22:11:33Z</time>
  <course>19.97</course>
  <speed>0.9835141076771599</speed>
  <fix>3d</fix>
</trkpt>
<trkpt lat="33.8107716" lon="-118.393706">
  <ele>-25.437</ele>
  <time>2026-09-02T22:11:33Z</time>
  <course>19.97</course>
  <speed>0.9835141076771599</speed>
  <fix>3d</fix>
</trkpt>
<trkpt lat="33.8107703" lon="-118.393708">
  <ele>-24.81</ele>
  <time>2026-09-02T22:11:33Z</time>
  <course>44.97</course>
  <speed>0.99</speed>
  <fix>3d</fix>
</trkpt>
<trkpt lat="33.8107716" lon="-118.393706">
  <ele>-25.438</ele>
  <time>2026-09-02T22:11:33Z</time>
  <course>19.97</course>
  <speed>0.9835141076771599</speed>
  <fix>3d</fix>
</trkpt>
<trkpt lat="33.8107716" lon="-118.3937059">
  <ele>-25.438</ele>
  <time>2026-09-02T22:11:33Z</time>
  <course>19.97</course>
  <speed>0.9835141076771599</speed>
  <fix>3d</fix>
</trkpt>
<trkpt lat="33.8107717" lon="-118.3937058">
  <ele>-25.438</ele>
  <time>2026-09-02T22:11:33Z</time>
  <course>19.97</course>
  <speed>0.9835141076771599</speed>
  <fix>3d</fix>
</trkpt>
<trkpt lat="33.8107718" lon="-118.3937058">
  <ele>-25.438</ele>
  <time>2026-09-02T22:11:33Z</time>
  <course>19.97</course>
  <speed>0.9835141076771599</speed>
  <fix>3d</fix>
</trkpt>
<trkpt lat="33.8107718" lon="-118.3937057">
  <ele>-25.439</ele>
  <time>2026-09-02T22:11:33Z</time>
  <course>19.97</course>
  <speed>0.9835141076771599</speed>
  <fix>3d</fix>
</trkpt>
<trkpt lat="33.8107719" lon="-118.3937056">
  <ele>-25.439</ele>
  <time>2026-09-02T22:11:33Z</time>
  <course>19.97</course>
  <speed>0.9835141076771599</speed>
  <fix>3d</fix>
</trkpt>
<trkpt lat="33.810772" lon="-118.3937055">
  <ele>-25.439</ele>
  <time>2026-09-02T22:11:33Z</time>
  <course>19.97</course>
  <speed>0.9835141076771599</speed>
  <fix>3d</fix>
</trkpt>
<trkpt lat="33.810772" lon="-118.3937054">
  <ele>-25.44</ele>
  <time>2026-09-02T22:11:33Z</time>
  <course>19.97</course>
  <speed>0.9835141076771599</speed>
  <fix>3d</fix>
</trkpt>
<trkpt lat="33.8107721" lon="-118.3937054">
  <ele>-25.44</ele>
  <time>2026-09-02T22:11:33Z</time>
  <course>19.97</course>
  <speed>0.9835141076771599</speed>
  <fix>3d</fix>
</trkpt>
<trkpt lat="33.8107722" lon="-118.3937053">
  <ele>-25.44</ele>
  <time>2026-09-02T22:11:33Z</time>
  <course>19.97</course>
  <speed>0.9835141076771599</speed>
  <fix>3d</fix>
</trkpt>
<trkpt lat="33.8107722" lon="-118.3937052">
  <ele>-25.44</ele>
  <time>2026-09-02T22:11:33Z</time>
  <course>19.97</course>
  <speed>0.9835141076771599</speed>
  <fix>3d</fix>
</trkpt>
<trkpt lat="33.8107715" lon="-118.3937065">
  <ele>-24.82</ele>
  <time>2026-09-02T22:11:33Z</time>
  <course>44.96</course>
  <speed>0.99</speed>
  <fix>3d</fix>
</trkpt>
<trkpt lat="33.8107722" lon="-118.3937052">
  <ele>-25.44</ele>
  <time>2026-09-02T22:11:33Z</time>
  <course>19.97</course>
  <speed>0.9835141076771599</speed>
  <fix>3d</fix>
</trkpt>
<trkpt lat="33.8107723" lon="-118.393705">
  <ele>-25.441</ele>
  <time>2026-09-02T22:11:33Z</time>
  <course>19.97</course>
  <speed>0.9835141076771599</speed>
  <fix>3d</fix>
</trkpt>
<trkpt lat="33.8107724" lon="-118.393705">
  <ele>-25.441</ele>
  <time>2026-09-02T22:11:33Z</time>
  <course>19.97</course>
  <speed>0.9835141076771599</speed>
  <fix>3d</fix>
</trkpt>
<trkpt lat="33.8107725" lon="-118.3937049">
  <ele>-25.441</ele>
  <time>2026-09-02T22:11:33Z</time>
  <course>19.97</course>
  <speed>0.9835141076771599</speed>
  <fix>3d</fix>
</trkpt>
<trkpt lat="33.8107725" lon="-118.3937048">
  <ele>-25.441</ele>
  <time>2026-09-02T22:11:33Z</time>
  <course>19.97</course>
  <speed>0.9835141076771599</speed>
  <fix>3d</fix>
</trkpt>
<trkpt lat="33.8107726" lon="-118.3937048">
  <ele>-25.441</ele>
  <time>2026-09-02T22:11:33Z</time>
  <course>19.97</course>
  <speed>0.9835141076771599</speed>
  <fix>3d</fix>
</trkpt>
<trkpt lat="33.8107726" lon="-118.3937047">
  <ele>-25.441</ele>
  <time>2026-09-02T22:11:33Z</time>
  <course>19.97</course>
  <speed>0.9835141076771599</speed>
  <fix>3d</fix>
</trkpt>
<trkpt lat="33.8107727" lon="-118.3937046">
  <ele>-25.442</ele>
  <time>2026-09-02T22:11:33Z</time>
  <course>19.97</course>
  <speed>0.9835141076771599</speed>
  <fix>3d</fix>
</trkpt>
<trkpt lat="33.8107727" lon="-118.3937046">
  <ele>-25.442</ele>
  <time>2026-09-02T22:11:33Z</time>
  <course>19.97</course>
  <speed>0.9835141076771599</speed>
  <fix>3d</fix>
</trkpt>
<trkpt lat="33.8107728" lon="-118.3937045">
  <ele>-25.442</ele>
  <time>2026-09-02T22:11:33Z</time>
  <course>19.97</course>
  <speed>0.9835141076771599</speed>
  <fix>3d</fix>
</trkpt>
<trkpt lat="33.8107728" lon="-118.3937045">
  <ele>-25.442</ele>
  <time>2026-09-02T22:11:33Z</time>
  <course>19.97</course>
  <speed>0.9835141076771599</speed>
  <fix>3d</fix>
</trkpt>
<trkpt lat="33.8107715" lon="-118.3937065">
  <ele>-24.82</ele>
  <time>2026-09-02T22:11:33Z</time>
  <course>44.96</course>
  <speed>0.99</speed>
  <fix>3d</fix>
</trkpt>
<trkpt lat="33.8107728" lon="-118.3937045">
  <ele>-25.442</ele>
  <time>2026-09-02T22:11:33Z</time>
  <course>19.97</course>
  <speed>0.9835141076771599</speed>
  <fix>3d</fix>
</trkpt>
<trkpt lat="33.810773" lon="-118.3937042">
  <ele>-25.442</ele>
  <time>2026-09-02T22:11:33Z</time>
  <course>19.97</course>
  <speed>0.9903534722511957</speed>
  <fix>3d</fix>
</trkpt>
<trkpt lat="33.8107731" lon="-118.3937042">
  <ele>-25.442</ele>
  <time>2026-09-02T22:11:33Z</time>
  <course>19.97</course>
  <speed>0.9903534722511957</speed>
  <fix>3d</fix>
</trkpt>
<trkpt lat="33.8107731" lon="-118.3937041">
  <ele>-25.442</ele>
  <time>2026-09-02T22:11:33Z</time>
  <course>19.97</course>
  <speed>0.9903534722511957</speed>
  <fix>3d</fix>
</trkpt>
<trkpt lat="33.8107732" lon="-118.393704">
  <ele>-25.442</ele>
  <time>2026-09-02T22:11:33Z</time>
  <course>19.97</course>
  <speed>0.9903534722511957</speed>
  <fix>3d</fix>
</trkpt>
<trkpt lat="33.8107732" lon="-118.393704">
  <ele>-25.443</ele>
  <time>2026-09-02T22:11:33Z</time>
  <course>19.97</course>
  <speed>0.9903534722511957</speed>
  <fix>3d</fix>
</trkpt>
<trkpt lat="33.8107733" lon="-118.3937039">
  <ele>-25.443</ele>
  <time>2026-09-02T22:11:33Z</time>
  <course>19.97</course>
  <speed>0.9903534722511957</speed>
  <fix>3d</fix>
</trkpt>
<trkpt lat="33.8107734" lon="-118.3937038">
  <ele>-25.443</ele>
  <time>2026-09-02T22:11:33Z</time>
  <course>19.97</course>
  <speed>0.9903534722511957</speed>
  <fix>3d</fix>
</trkpt>
<trkpt lat="33.8107734" lon="-118.3937037">
  <ele>-25.443</ele>
  <time>2026-09-02T22:11:33Z</time>
  <course>19.97</course>
  <speed>0.9903534722511957</speed>
  <fix>3d</fix>
</trkpt>
<trkpt lat="33.8107735" lon="-118.3937037">
  <ele>-25.443</ele>
  <time>2026-09-02T22:11:33Z</time>
  <course>19.97</course>
  <speed>0.9903534722511957</speed>
  <fix>3d</fix>
</trkpt>
<trkpt lat="33.8107728" lon="-118.3937049">
  <ele>-24.82</ele>
  <time>2026-09-02T22:11:33Z</time>
  <course>44.93</course>
  <speed>0.99</speed>
  <fix>3d</fix>
</trkpt>
<trkpt lat="33.8107735" lon="-118.3937037">
  <ele>-25.443</ele>
  <time>2026-09-02T22:11:33Z</time>
  <course>19.97</course>
  <speed>0.9903534722511957</speed>
  <fix>3d</fix>
</trkpt>
<trkpt lat="33.8107736" lon="-118.3937035">
  <ele>-25.443</ele>
  <time>2026-09-02T22:11:33Z</time>
  <course>19.97</course>
  <speed>0.9903534722511957</speed>
  <fix>3d</fix>
</trkpt>
<trkpt lat="33.8107736" lon="-118.3937035">
  <ele>-25.444</ele>
  <time>2026-09-02T22:11:33Z</time>
  <course>19.97</course>
  <speed>0.9903534722511957</speed>
  <fix>3d</fix>
</trkpt>
<trkpt lat="33.8107737" lon="-118.3937034">
  <ele>-25.444</ele>
  <time>2026-09-02T22:11:33Z</time>
  <course>19.97</course>
  <speed>0.9903534722511957</speed>
  <fix>3d</fix>
</trkpt>
<trkpt lat="33.8107738" lon="-118.3937033">
  <ele>-25.444</ele>
  <time>2026-09-02T22:11:33Z</time>
  <course>19.97</course>
  <speed>0.9903534722511957</speed>
  <fix>3d</fix>
</trkpt>
<trkpt lat="33.8107738" lon="-118.3937033">
  <ele>-25.444</ele>
  <time>2026-09-02T22:11:33Z</time>
  <course>19.97</course>
  <speed>0.9903534722511957</speed>
  <fix>3d</fix>
</trkpt>
<trkpt lat="33.8107739" lon="-118.3937032">
  <ele>-25.444</ele>
  <time>2026-09-02T22:11:33Z</time>
  <course>19.97</course>
  <speed>0.9903534722511957</speed>
  <fix>3d</fix>
</trkpt>
<trkpt lat="33.8107739" lon="-118.3937032">
  <ele>-25.444</ele>
  <time>2026-09-02T22:11:33Z</time>
  <course>19.97</course>
  <speed>0.9903534722511957</speed>
  <fix>3d</fix>
</trkpt>
<trkpt lat="33.810774" lon="-118.3937031">
  <ele>-25.444</ele>
  <time>2026-09-02T22:11:33Z</time>
  <course>19.97</course>
  <speed>0.9903534722511957</speed>
  <fix>3d</fix>
</trkpt>
<trkpt lat="33.810774" lon="-118.393703">
  <ele>-25.444</ele>
  <time>2026-09-02T22:11:33Z</time>
  <course>19.97</course>
  <speed>0.9903534722511957</speed>
  <fix>3d</fix>
</trkpt>
<trkpt lat="33.8107741" lon="-118.393703">
  <ele>-25.444</ele>
  <time>2026-09-02T22:11:33Z</time>
  <course>19.97</course>
  <speed>0.9903534722511957</speed>
  <fix>3d</fix>
</trkpt>
<trkpt lat="33.8107741" lon="-118.3937029">
  <ele>-25.444</ele>
  <time>2026-09-02T22:11:33Z</time>
  <course>19.97</course>
  <speed>0.9903534722511957</speed>
  <fix>3d</fix>
</trkpt>
<trkpt lat="33.8107728" lon="-118.3937049">
  <ele>-24.82</ele>
  <time>2026-09-02T22:11:33Z</time>
  <course>44.93</course>
  <speed>0.99</speed>
  <fix>3d</fix>
</trkpt>
<trkpt lat="33.8107741" lon="-118.3937029">
  <ele>-25.444</ele>
  <time>2026-09-02T22:11:33Z</time>
  <course>19.97</course>
  <speed>0.9903534722511957</speed>
  <fix>3d</fix>
</trkpt>
<trkpt lat="33.8107743" lon="-118.3937027">
  <ele>-25.444</ele>
  <time>2026-09-02T22:11:33Z</time>
  <course>19.97</course>
  <speed>0.9903534722511957</speed>
  <fix>3d</fix>
</trkpt>
<trkpt lat="33.8107743" lon="-118.3937026">
  <ele>-25.444</ele>
  <time>2026-09-02T22:11:33Z</time>
  <course>19.97</course>
  <speed>0.9903534722511957</speed>
  <fix>3d</fix>
</trkpt>
<trkpt lat="33.8107744" lon="-118.3937026">
  <ele>-25.444</ele>
  <time>2026-09-02T22:11:33Z</time>
  <course>19.97</course>
  <speed>0.9903534722511957</speed>
  <fix>3d</fix>
</trkpt>
<trkpt lat="33.8107744" lon="-118.3937025">
  <ele>-25.444</ele>
  <time>2026-09-02T22:11:33Z</time>
  <course>19.97</course>
  <speed>0.9903534722511957</speed>
  <fix>3d</fix>
</trkpt>
<trkpt lat="33.8107745" lon="-118.3937024">
  <ele>-25.444</ele>
  <time>2026-09-02T22:11:33Z</time>
  <course>19.97</course>
  <speed>0.9903534722511957</speed>
  <fix>3d</fix>
</trkpt>
<trkpt lat="33.8107746" lon="-118.3937024">
  <ele>-25.445</ele>
  <time>2026-09-02T22:11:33Z</time>
  <course>19.97</course>
  <speed>0.9903534722511957</speed>
  <fix>3d</fix>
</trkpt>
<trkpt lat="33.8107746" lon="-118.3937023">
  <ele>-25.445</ele>
  <time>2026-09-02T22:11:33Z</time>
  <course>19.97</course>
  <speed>0.9903534722511957</speed>
  <fix>3d</fix>
</trkpt>
<trkpt lat="33.8107747" lon="-118.3937022">
  <ele>-25.445</ele>
  <time>2026-09-02T22:11:33Z</time>
  <course>19.97</course>
  <speed>0.9903534722511957</speed>
  <fix>3d</fix>
</trkpt>
<trkpt lat="33.8107747" lon="-118.3937022">
  <ele>-25.445</ele>
  <time>2026-09-02T22:11:33Z</time>
  <course>19.97</course>
  <speed>0.9903534722511957</speed>
  <fix>3d</fix>
</trkpt>
<trkpt lat="33.8107741" lon="-118.3937034">
  <ele>-24.83</ele>
  <time>2026-09-02T22:11:33Z</time>
  <course>44.87</course>
  <speed>0.99</speed>
  <fix>3d</fix>
</trkpt>
<trkpt lat="33.8107747" lon="-118.3937022">
  <ele>-25.445</ele>
  <time>2026-09-02T22:11:33Z</time>
  <course>19.97</course>
  <speed>0.9903534722511957</speed>
  <fix>3d</fix>
</trkpt>
<trkpt lat="33.8107748" lon="-118.393702">
  <ele>-25.445</ele>
  <time>2026-09-02T22:11:33Z</time>
  <course>19.97</course>
  <speed>0.9903534722511957</speed>
  <fix>3d</fix>
</trkpt>
<trkpt lat="33.8107749" lon="-118.3937019">
  <ele>-25.445</ele>
  <time>2026-09-02T22:11:33Z</time>
  <course>19.97</course>
  <speed>0.9903534722511957</speed>
  <fix>3d</fix>
</trkpt>
<trkpt lat="33.810775" lon="-118.3937018">
  <ele>-25.445</ele>
  <time>2026-09-02T22:11:33Z</time>
  <course>19.97</course>
  <speed>0.9903534722511957</speed>
  <fix>3d</fix>
</trkpt>
<trkpt lat="33.8107751" lon="-118.3937018">
  <ele>-25.445</ele>
  <time>2026-09-02T22:11:33Z</time>
  <course>19.97</course>
  <speed>0.9903534722511957</speed>
  <fix>3d</fix>
</trkpt>
<trkpt lat="33.8107751" lon="-118.3937017">
  <ele>-25.445</ele>
  <time>2026-09-02T22:11:33Z</time>
  <course>19.97</course>
  <speed>0.9903534722511957</speed>
  <fix>3d</fix>
</trkpt>
<trkpt lat="33.8107752" lon="-118.3937016">
  <ele>-25.445</ele>
  <time>2026-09-02T22:11:33Z</time>
  <course>19.97</course>
  <speed>0.9903534722511957</speed>
  <fix>3d</fix>
</trkpt>
<trkpt lat="33.8107753" lon="-118.3937015">
  <ele>-25.445</ele>
  <time>2026-09-02T22:11:33Z</time>
  <course>19.97</course>
  <speed>0.9903534722511957</speed>
  <fix>3d</fix>
</trkpt>
<trkpt lat="33.8107753" lon="-118.3937015">
  <ele>-25.446</ele>
  <time>2026-09-02T22:11:33Z</time>
  <course>19.97</course>
  <speed>0.9903534722511957</speed>
  <fix>3d</fix>
</trkpt>
<trkpt lat="33.8107754" lon="-118.3937014">
  <ele>-25.446</ele>
  <time>2026-09-02T22:11:33Z</time>
  <course>19.97</course>
  <speed>0.9903534722511957</speed>
  <fix>3d</fix>
</trkpt>
<trkpt lat="33.8107741" lon="-118.3937034">
  <ele>-24.83</ele>
  <time>2026-09-02T22:11:33Z</time>
  <course>44.87</course>
  <speed>0.99</speed>
  <fix>3d</fix>
</trkpt>
<trkpt lat="33.8107754" lon="-118.3937014">
  <ele>-25.446</ele>
  <time>2026-09-02T22:11:33Z</time>
  <course>19.97</course>
  <speed>0.9903534722511957</speed>
  <fix>3d</fix>
</trkpt>
<trkpt lat="33.8107755" lon="-118.3937012">
  <ele>-25.446</ele>
  <time>2026-09-02T22:11:33Z</time>
  <course>19.97</course>
  <speed>0.9903534722511957</speed>
  <fix>3d</fix>
</trkpt>
<trkpt lat="33.8107756" lon="-118.3937011">
  <ele>-25.446</ele>
  <time>2026-09-02T22:11:33Z</time>
  <course>19.97</course>
  <speed>0.9903534722511957</speed>
  <fix>3d</fix>
</trkpt>
<trkpt lat="33.8107756" lon="-118.3937011">
  <ele>-25.446</ele>
  <time>2026-09-02T22:11:33Z</time>
  <course>19.97</course>
  <speed>0.9903534722511957</speed>
  <fix>3d</fix>
</trkpt>
<trkpt lat="33.8107757" lon="-118.393701">
  <ele>-25.446</ele>
  <time>2026-09-02T22:11:33Z</time>
  <course>19.97</course>
  <speed>0.9903534722511957</speed>
  <fix>3d</fix>
</trkpt>
<trkpt lat="33.8107757" lon="-118.3937009">
  <ele>-25.446</ele>
  <time>2026-09-02T22:11:33Z</time>
  <course>19.97</course>
  <speed>0.9903534722511957</speed>
  <fix>3d</fix>
</trkpt>
<trkpt lat="33.8107758" lon="-118.3937009">
  <ele>-25.446</ele>
  <time>2026-09-02T22:11:33Z</time>
  <course>19.97</course>
  <speed>0.9903534722511957</speed>
  <fix>3d</fix>
</trkpt>
<trkpt lat="33.8107759" lon="-118.3937008">
  <ele>-25.447</ele>
  <time>2026-09-02T22:11:33Z</time>
  <course>19.97</course>
  <speed>0.9903534722511957</speed>
  <fix>3d</fix>
</trkpt>
<trkpt lat="33.8107759" lon="-118.3937007">
  <ele>-25.447</ele>
  <time>2026-09-02T22:11:33Z</time>
  <course>19.97</course>
  <speed>0.9903534722511957</speed>
  <fix>3d</fix>
</trkpt>
<trkpt lat="33.810776" lon="-118.3937007">
  <ele>-25.447</ele>
  <time>2026-09-02T22:11:33Z</time>
  <course>19.97</course>
  <speed>0.9903534722511957</speed>
  <fix>3d</fix>
</trkpt>
<trkpt lat="33.810776" lon="-118.3937007">
  <ele>-25.447</ele>
  <time>2026-09-02T22:11:33Z</time>
  <course>19.97</course>
  <speed>0.9903534722511957</speed>
  <fix>3d</fix>
</trkpt>
<trkpt lat="33.8107754" lon="-118.3937019">
  <ele>-24.83</ele>
  <time>2026-09-02T22:11:33Z</time>
  <course>44.82</course>
  <speed>1.0</speed>
  <fix>3d</fix>
</trkpt>
<trkpt lat="33.8107761" lon="-118.3937005">
  <ele>-25.447</ele>
  <time>2026-09-02T22:11:33Z</time>
  <course>19.97</course>
  <speed>0.9903534722511957</speed>
  <fix>3d</fix>
</trkpt>
<trkpt lat="33.8107762" lon="-118.3937004">
  <ele>-25.447</ele>
  <time>2026-09-02T22:11:33Z</time>
  <course>19.97</course>
  <speed>0.9903534722511957</speed>
  <fix>3d</fix>
</trkpt>
<trkpt lat="33.8107763" lon="-118.3937003">
  <ele>-25.448</ele>
  <time>2026-09-02T22:11:33Z</time>
  <course>19.97</course>
  <speed>0.9903534722511957</speed>
  <fix>3d</fix>
</trkpt>
<trkpt lat="33.8107763" lon="-118.3937003">
  <ele>-25.448</ele>
  <time>2026-09-02T22:11:33Z</time>
  <course>19.97</course>
  <speed>0.9903534722511957</speed>
  <fix>3d</fix>
</trkpt>
<trkpt lat="33.8107764" lon="-118.3937002">
  <ele>-25.448</ele>
  <time>2026-09-02T22:11:33Z</time>
  <course>19.97</course>
  <speed>0.9903534722511957</speed>
  <fix>3d</fix>
</trkpt>
<trkpt lat="33.8107764" lon="-118.3937002">
  <ele>-25.448</ele>
  <time>2026-09-02T22:11:33Z</time>
  <course>19.97</course>
  <speed>0.9903534722511957</speed>
  <fix>3d</fix>
</trkpt>
<trkpt lat="33.8107765" lon="-118.3937001">
  <ele>-25.448</ele>
  <time>2026-09-02T22:11:33Z</time>
  <course>19.97</course>
  <speed>0.9903534722511957</speed>
  <fix>3d</fix>
</trkpt>
<trkpt lat="33.8107765" lon="-118.3937">
  <ele>-25.449</ele>
  <time>2026-09-02T22:11:33Z</time>
  <course>19.97</course>
  <speed>0.9903534722511957</speed>
  <fix>3d</fix>
</trkpt>
<trkpt lat="33.8107766" lon="-118.3936999">
  <ele>-25.449</ele>
  <time>2026-09-02T22:11:33Z</time>
  <course>19.97</course>
  <speed>0.9903534722511957</speed>
  <fix>3d</fix>
</trkpt>
<trkpt lat="33.8107766" lon="-118.3936999">
  <ele>-25.449</ele>
  <time>2026-09-02T22:11:33Z</time>
  <course>19.97</course>
  <speed>0.9903534722511957</speed>
  <fix>3d</fix>
</trkpt>
<trkpt lat="33.8107754" lon="-118.3937019">
  <ele>-24.83</ele>
  <time>2026-09-02T22:11:33Z</time>
  <course>44.82</course>
  <speed>1.0</speed>
  <fix>3d</fix>
</trkpt>
<trkpt lat="33.8107766" lon="-118.3936999">
  <ele>-25.449</ele>
  <time>2026-09-02T22:11:33Z</time>
  <course>19.97</course>
  <speed>0.9903534722511957</speed>
  <fix>3d</fix>
</trkpt>
<trkpt lat="33.8107767" lon="-118.3936997">
  <ele>-25.449</ele>
  <time>2026-09-02T22:11:33Z</time>
  <course>19.97</course>
  <speed>0.9903534722511957</speed>
  <fix>3d</fix>
</trkpt>
<trkpt lat="33.8107768" lon="-118.3936997">
  <ele>-25.45</ele>
  <time>2026-09-02T22:11:33Z</time>
  <course>19.97</course>
  <speed>0.9903534722511957</speed>
  <fix>3d</fix>
</trkpt>
<trkpt lat="33.8107769" lon="-118.3936996">
  <ele>-25.45</ele>
  <time>2026-09-02T22:11:33Z</time>
  <course>19.97</course>
  <speed>0.9903534722511957</speed>
  <fix>3d</fix>
</trkpt>
<trkpt lat="33.8107769" lon="-118.3936995">
  <ele>-25.45</ele>
  <time>2026-09-02T22:11:33Z</time>
  <course>19.97</course>
  <speed>0.9903534722511957</speed>
  <fix>3d</fix>
</trkpt>
<trkpt lat="33.810777" lon="-118.3936995">
  <ele>-25.451</ele>
  <time>2026-09-02T22:11:33Z</time>
  <course>19.97</course>
  <speed>0.9903534722511957</speed>
  <fix>3d</fix>
</trkpt>
<trkpt lat="33.810777" lon="-118.3936994">
  <ele>-25.451</ele>
  <time>2026-09-02T22:11:33Z</time>
  <course>19.97</course>
  <speed>0.9903534722511957</speed>
  <fix>3d</fix>
</trkpt>
<trkpt lat="33.8107771" lon="-118.3936993">
  <ele>-25.451</ele>
  <time>2026-09-02T22:11:33Z</time>
  <course>19.97</course>
  <speed>0.9903534722511957</speed>
  <fix>3d</fix>
</trkpt>
<trkpt lat="33.8107771" lon="-118.3936993">
  <ele>-25.451</ele>
  <time>2026-09-02T22:11:33Z</time>
  <course>19.98</course>
  <speed>0.9903534722511957</speed>
  <fix>3d</fix>
</trkpt>
<trkpt lat="33.8107772" lon="-118.3936992">
  <ele>-25.452</ele>
  <time>2026-09-02T22:11:33Z</time>
  <course>19.98</course>
  <speed>0.9903534722511957</speed>
  <fix>3d</fix>
</trkpt>
<trkpt lat="33.8107773" lon="-118.3936991">
  <ele>-25.452</ele>
  <time>2026-09-02T22:11:33Z</time>
  <course>19.98</course>
  <speed>0.9903534722511957</speed>
  <fix>3d</fix>
</trkpt>
<trkpt lat="33.8107767" lon="-118.3937004">
  <ele>-24.83</ele>
  <time>2026-09-02T22:11:33Z</time>
  <course>44.82</course>
  <speed>1.0</speed>
  <fix>3d</fix>
</trkpt>
<trkpt lat="33.8107773" lon="-118.3936991">
  <ele>-25.452</ele>
  <time>2026-09-02T22:11:33Z</time>
  <course>19.98</course>
  <speed>0.9903534722511957</speed>
  <fix>3d</fix>
</trkpt>
<trkpt lat="33.8107774" lon="-118.393699">
  <ele>-25.453</ele>
  <time>2026-09-02T22:11:33Z</time>
  <course>19.97</course>
  <speed>0.9903534722511957</speed>
  <fix>3d</fix>
</trkpt>
<trkpt lat="33.8107775" lon="-118.3936989">
  <ele>-25.453</ele>
  <time>2026-09-02T22:11:33Z</time>
  <course>19.97</course>
  <speed>0.9903534722511957</speed>
  <fix>3d</fix>
</trkpt>
<trkpt lat="33.8107775" lon="-118.3936989">
  <ele>-25.453</ele>
  <time>2026-09-02T22:11:33Z</time>
  <course>19.97</course>
  <speed>0.9903534722511957</speed>
  <fix>3d</fix>
</trkpt>
<trkpt lat="33.8107775" lon="-118.3936988">
  <ele>-25.454</ele>
  <time>2026-09-02T22:11:33Z</time>
  <course>19.97</course>
  <speed>0.9903534722511957</speed>
  <fix>3d</fix>
</trkpt>
<trkpt lat="33.8107776" lon="-118.3936987">
  <ele>-25.454</ele>
  <time>2026-09-02T22:11:33Z</time>
  <course>19.97</course>
  <speed>0.9903534722511957</speed>
  <fix>3d</fix>
</trkpt>
<trkpt lat="33.8107777" lon="-118.3936987">
  <ele>-25.454</ele>
  <time>2026-09-02T22:11:33Z</time>
  <course>19.97</course>
  <speed>0.9903534722511957</speed>
  <fix>3d</fix>
</trkpt>
<trkpt lat="33.8107777" lon="-118.3936986">
  <ele>-25.455</ele>
  <time>2026-09-02T22:11:33Z</time>
  <course>19.97</course>
  <speed>0.9903534722511957</speed>
  <fix>3d</fix>
</trkpt>
<trkpt lat="33.8107778" lon="-118.3936985">
  <ele>-25.455</ele>
  <time>2026-09-02T22:11:33Z</time>
  <course>19.97</course>
  <speed>0.9903534722511957</speed>
  <fix>3d</fix>
</trkpt>
<trkpt lat="33.8107778" lon="-118.3936984">
  <ele>-25.455</ele>
  <time>2026-09-02T22:11:33Z</time>
  <course>19.97</course>
  <speed>0.9903534722511957</speed>
  <fix>3d</fix>
</trkpt>
<trkpt lat="33.8107779" lon="-118.3936984">
  <ele>-25.456</ele>
  <time>2026-09-02T22:11:33Z</time>
  <course>19.97</course>
  <speed>0.9903534722511957</speed>
  <fix>3d</fix>
</trkpt>
<trkpt lat="33.8107779" lon="-118.3936984">
  <ele>-25.456</ele>
  <time>2026-09-02T22:11:33Z</time>
  <course>19.97</course>
  <speed>0.9903534722511957</speed>
  <fix>3d</fix>
</trkpt>
<trkpt lat="33.8107767" lon="-118.3937004">
  <ele>-24.83</ele>
  <time>2026-09-02T22:11:33Z</time>
  <course>44.82</course>
  <speed>1.0</speed>
  <fix>3d</fix>
</trkpt>
<trkpt lat="33.810778" lon="-118.3936982">
  <ele>-25.456</ele>
  <time>2026-09-02T22:11:33Z</time>
  <course>19.97</course>
  <speed>0.9903534722511957</speed>
  <fix>3d</fix>
</trkpt>
<trkpt lat="33.8107781" lon="-118.3936982">
  <ele>-25.457</ele>
  <time>2026-09-02T22:11:33Z</time>
  <course>19.97</course>
  <speed>0.9903534722511957</speed>
  <fix>3d</fix>
</trkpt>
<trkpt lat="33.8107781" lon="-118.3936981">
  <ele>-25.457</ele>
  <time>2026-09-02T22:11:33Z</time>
  <course>19.97</course>
  <speed>0.9903534722511957</speed>
  <fix>3d</fix>
</trkpt>
<trkpt lat="33.8107782" lon="-118.393698">
  <ele>-25.457</ele>
  <time>2026-09-02T22:11:33Z</time>
  <course>19.97</course>
  <speed>0.9903534722511957</speed>
  <fix>3d</fix>
</trkpt>
<trkpt lat="33.8107783" lon="-118.3936979">
  <ele>-25.457</ele>
  <time>2026-09-02T22:11:33Z</time>
  <course>19.97</course>
  <speed>0.9903534722511957</speed>
  <fix>3d</fix>
</trkpt>
<trkpt lat="33.8107783" lon="-118.3936979">
  <ele>-25.458</ele>
  <time>2026-09-02T22:11:33Z</time>
  <course>19.97</course>
  <speed>0.9903534722511957</speed>
  <fix>3d</fix>
</trkpt>
<trkpt lat="33.8107784" lon="-118.3936978">
  <ele>-25.458</ele>
  <time>2026-09-02T22:11:33Z</time>
  <course>19.97</course>
  <speed>0.9903534722511957</speed>
  <fix>3d</fix>
</trkpt>
<trkpt lat="33.8107784" lon="-118.3936977">
  <ele>-25.458</ele>
  <time>2026-09-02T22:11:33Z</time>
  <course>19.97</course>
  <speed>0.9903534722511957</speed>
  <fix>3d</fix>
</trkpt>
<trkpt lat="33.8107785" lon="-118.3936977">
  <ele>-25.458</ele>
  <time>2026-09-02T22:11:33Z</time>
  <course>19.97</course>
  <speed>0.9903534722511957</speed>
  <fix>3d</fix>
</trkpt>
<trkpt lat="33.8107785" lon="-118.3936976">
  <ele>-25.458</ele>
  <time>2026-09-02T22:11:33Z</time>
  <course>19.97</course>
  <speed>0.9903534722511957</speed>
  <fix>3d</fix>
</trkpt>
<trkpt lat="33.8107779" lon="-118.3936989">
  <ele>-24.84</ele>
  <time>2026-09-02T22:11:33Z</time>
  <course>44.87</course>
  <speed>1.0</speed>
  <fix>3d</fix>
</trkpt>
<trkpt lat="33.8107785" lon="-118.3936976">
  <ele>-25.459</ele>
  <time>2026-09-02T22:11:33Z</time>
  <course>19.97</course>
  <speed>0.9903534722511957</speed>
  <fix>3d</fix>
</trkpt>
<trkpt lat="33.8107787" lon="-118.3936975">
  <ele>-25.459</ele>
  <time>2026-09-02T22:11:33Z</time>
  <course>19.97</course>
  <speed>0.9903534722511957</speed>
  <fix>3d</fix>
</trkpt>
<trkpt lat="33.8107787" lon="-118.3936974">
  <ele>-25.459</ele>
  <time>2026-09-02T22:11:33Z</time>
  <course>19.97</course>
  <speed>0.9903534722511957</speed>
  <fix>3d</fix>
</trkpt>
<trkpt lat="33.8107788" lon="-118.3936973">
  <ele>-25.459</ele>
  <time>2026-09-02T22:11:33Z</time>
  <course>19.97</course>
  <speed>0.9903534722511957</speed>
  <fix>3d</fix>
</trkpt>
<trkpt lat="33.8107788" lon="-118.3936972">
  <ele>-25.46</ele>
  <time>2026-09-02T22:11:33Z</time>
  <course>19.97</course>
  <speed>0.9903534722511957</speed>
  <fix>3d</fix>
</trkpt>
<trkpt lat="33.8107789" lon="-118.3936972">
  <ele>-25.46</ele>
  <time>2026-09-02T22:11:33Z</time>
  <course>19.97</course>
  <speed>0.9903534722511957</speed>
  <fix>3d</fix>
</trkpt>
<trkpt lat="33.810779" lon="-118.3936971">
  <ele>-25.46</ele>
  <time>2026-09-02T22:11:33Z</time>
  <course>19.97</course>
  <speed>0.9903534722511957</speed>
  <fix>3d</fix>
</trkpt>
<trkpt lat="33.810779" lon="-118.393697">
  <ele>-25.46</ele>
  <time>2026-09-02T22:11:33Z</time>
  <course>19.97</course>
  <speed>0.9903534722511957</speed>
  <fix>3d</fix>
</trkpt>
<trkpt lat="33.8107791" lon="-118.3936969">
  <ele>-25.461</ele>
  <time>2026-09-02T22:11:33Z</time>
  <course>19.97</course>
  <speed>0.9903534722511957</speed>
  <fix>3d</fix>
</trkpt>
<trkpt lat="33.8107791" lon="-118.3936969">
  <ele>-25.461</ele>
  <time>2026-09-02T22:11:33Z</time>
  <course>19.97</course>
  <speed>0.9903534722511957</speed>
  <fix>3d</fix>
</trkpt>
<trkpt lat="33.8107792" lon="-118.3936969">
  <ele>-25.461</ele>
  <time>2026-09-02T22:11:33Z</time>
  <course>19.97</course>
  <speed>0.9903534722511957</speed>
  <fix>3d</fix>
</trkpt>
<trkpt lat="33.8107779" lon="-118.3936989">
  <ele>-24.84</ele>
  <time>2026-09-02T22:11:33Z</time>
  <course>44.87</course>
  <speed>1.0</speed>
  <fix>3d</fix>
</trkpt>
<trkpt lat="33.8107793" lon="-118.3936967">
  <ele>-25.461</ele>
  <time>2026-09-02T22:11:33Z</time>
  <course>19.97</course>
  <speed>0.9903534722511957</speed>
  <fix>3d</fix>
</trkpt>
<trkpt lat="33.8107794" lon="-118.3936966">
  <ele>-25.462</ele>
  <time>2026-09-02T22:11:33Z</time>
  <course>19.97</course>
  <speed>0.9903534722511957</speed>
  <fix>3d</fix>
</trkpt>
<trkpt lat="33.8107795" lon="-118.3936965">
  <ele>-25.462</ele>
  <time>2026-09-02T22:11:33Z</time>
  <course>19.97</course>
  <speed>0.9903534722511957</speed>
  <fix>3d</fix>
</trkpt>
<trkpt lat="33.8107795" lon="-118.3936964">
  <ele>-25.462</ele>
  <time>2026-09-02T22:11:33Z</time>
  <course>19.97</course>
  <speed>0.9903534722511957</speed>
  <fix>3d</fix>
</trkpt>
<trkpt lat="33.8107796" lon="-118.3936964">
  <ele>-25.463</ele>
  <time>2026-09-02T22:11:33Z</time>
  <course>19.97</course>
  <speed>0.9903534722511957</speed>
  <fix>3d</fix>
</trkpt>
<trkpt lat="33.8107797" lon="-118.3936963">
  <ele>-25.463</ele>
  <time>2026-09-02T22:11:33Z</time>
  <course>19.97</course>
  <speed>0.9903534722511957</speed>
  <fix>3d</fix>
</trkpt>
<trkpt lat="33.8107797" lon="-118.3936962">
  <ele>-25.463</ele>
  <time>2026-09-02T22:11:33Z</time>
  <course>19.97</course>
  <speed>0.9903534722511957</speed>
  <fix>3d</fix>
</trkpt>
<trkpt lat="33.8107797" lon="-118.3936962">
  <ele>-25.463</ele>
  <time>2026-09-02T22:11:33Z</time>
  <course>19.97</course>
  <speed>0.9903534722511957</speed>
  <fix>3d</fix>
</trkpt>
<trkpt lat="33.8107798" lon="-118.3936961">
  <ele>-25.464</ele>
  <time>2026-09-02T22:11:33Z</time>
  <course>19.97</course>
  <speed>0.9903534722511957</speed>
  <fix>3d</fix>
</trkpt>
<trkpt lat="33.8107798" lon="-118.3936961">
  <ele>-25.464</ele>
  <time>2026-09-02T22:11:33Z</time>
  <course>19.97</course>
  <speed>0.9903534722511957</speed>
  <fix>3d</fix>
</trkpt>
<trkpt lat="33.8107792" lon="-118.3936973">
  <ele>-24.84</ele>
  <time>2026-09-02T22:11:33Z</time>
  <course>44.94</course>
  <speed>1.0</speed>
  <fix>3d</fix>
</trkpt>
<trkpt lat="33.8107799" lon="-118.393696">
  <ele>-25.464</ele>
  <time>2026-09-02T22:11:33Z</time>
  <course>19.97</course>
  <speed>0.9903534722511957</speed>
  <fix>3d</fix>
</trkpt>
<trkpt lat="33.8107799" lon="-118.3936959">
  <ele>-25.464</ele>
  <time>2026-09-02T22:11:33Z</time>
  <course>19.97</course>
  <speed>0.9903534722511957</speed>
  <fix>3d</fix>
</trkpt>
<trkpt lat="33.81078" lon="-118.3936959">
  <ele>-25.464</ele>
  <time>2026-09-02T22:11:33Z</time>
  <course>19.97</course>
  <speed>0.9903534722511957</speed>
  <fix>3d</fix>
</trkpt>
<trkpt lat="33.81078" lon="-118.3936958">
  <ele>-25.465</ele>
  <time>2026-09-02T22:11:33Z</time>
  <course>19.97</course>
  <speed>0.9903534722511957</speed>
  <fix>3d</fix>
</trkpt>
<trkpt lat="33.8107801" lon="-118.3936958">
  <ele>-25.465</ele>
  <time>2026-09-02T22:11:33Z</time>
  <course>19.97</course>
  <speed>0.9903534722511957</speed>
  <fix>3d</fix>
</trkpt>
<trkpt lat="33.8107801" lon="-118.3936957">
  <ele>-25.465</ele>
  <time>2026-09-02T22:11:33Z</time>
  <course>19.97</course>
  <speed>0.9903534722511957</speed>
  <fix>3d</fix>
</trkpt>
<trkpt lat="33.8107802" lon="-118.3936956">
  <ele>-25.465</ele>
  <time>2026-09-02T22:11:33Z</time>
  <course>19.97</course>
  <speed>0.9903534722511957</speed>
  <fix>3d</fix>
</trkpt>
<trkpt lat="33.8107802" lon="-118.3936956">
  <ele>-25.466</ele>
  <time>2026-09-02T22:11:33Z</time>
  <course>19.97</course>
  <speed>0.9903534722511957</speed>
  <fix>3d</fix>
</trkpt>
<trkpt lat="33.8107803" lon="-118.3936956">
  <ele>-25.466</ele>
  <time>2026-09-02T22:11:33Z</time>
  <course>19.97</course>
  <speed>0.9903534722511957</speed>
  <fix>3d</fix>
</trkpt>
<trkpt lat="33.8107803" lon="-118.3936955">
  <ele>-25.466</ele>
  <time>2026-09-02T22:11:33Z</time>
  <course>19.97</course>
  <speed>0.9903534722511957</speed>
  <fix>3d</fix>
</trkpt>
<trkpt lat="33.8107804" lon="-118.3936954">
  <ele>-25.466</ele>
  <time>2026-09-02T22:11:33Z</time>
  <course>19.97</course>
  <speed>0.9903534722511957</speed>
  <fix>3d</fix>
</trkpt>
<trkpt lat="33.8107804" lon="-118.3936954">
  <ele>-25.467</ele>
  <time>2026-09-02T22:11:33Z</time>
  <course>19.97</course>
  <speed>0.9903534722511957</speed>
  <fix>3d</fix>
</trkpt>
<trkpt lat="33.8107804" lon="-118.3936953">
  <ele>-25.467</ele>
  <time>2026-09-02T22:11:33Z</time>
  <course>19.97</course>
  <speed>0.9903534722511957</speed>
  <fix>3d</fix>
</trkpt>
<trkpt lat="33.8107792" lon="-118.3936973">
  <ele>-24.84</ele>
  <time>2026-09-02T22:11:33Z</time>
  <course>44.94</course>
  <speed>1.0</speed>
  <fix>3d</fix>
</trkpt>
<trkpt lat="33.8107804" lon="-118.3936953">
  <ele>-25.467</ele>
  <time>2026-09-02T22:11:33Z</time>
  <course>19.97</course>
  <speed>0.9903534722511957</speed>
  <fix>3d</fix>
</trkpt>
<trkpt lat="33.8107805" lon="-118.3936952">
  <ele>-25.467</ele>
  <time>2026-09-02T22:11:33Z</time>
  <course>19.97</course>
  <speed>0.9903534722511957</speed>
  <fix>3d</fix>
</trkpt>
<trkpt lat="33.8107806" lon="-118.3936951">
  <ele>-25.467</ele>
  <time>2026-09-02T22:11:33Z</time>
  <course>19.97</course>
  <speed>0.9903534722511957</speed>
  <fix>3d</fix>
</trkpt>
<trkpt lat="33.8107807" lon="-118.3936951">
  <ele>-25.468</ele>
  <time>2026-09-02T22:11:33Z</time>
  <course>19.97</course>
  <speed>0.9903534722511957</speed>
  <fix>3d</fix>
</trkpt>
<trkpt lat="33.8107807" lon="-118.393695">
  <ele>-25.468</ele>
  <time>2026-09-02T22:11:33Z</time>
  <course>19.97</course>
  <speed>0.9903534722511957</speed>
  <fix>3d</fix>
</trkpt>
<trkpt lat="33.8107808" lon="-118.3936949">
  <ele>-25.468</ele>
  <time>2026-09-02T22:11:33Z</time>
  <course>19.97</course>
  <speed>0.9903534722511957</speed>
  <fix>3d</fix>
</trkpt>
<trkpt lat="33.8107808" lon="-118.3936949">
  <ele>-25.468</ele>
  <time>2026-09-02T22:11:33Z</time>
  <course>19.97</course>
  <speed>0.9903534722511957</speed>
  <fix>3d</fix>
</trkpt>
<trkpt lat="33.8107809" lon="-118.3936948">
  <ele>-25.468</ele>
  <time>2026-09-02T22:11:33Z</time>
  <course>19.97</course>
  <speed>0.9903534722511957</speed>
  <fix>3d</fix>
</trkpt>
<trkpt lat="33.8107809" lon="-118.3936947">
  <ele>-25.469</ele>
  <time>2026-09-02T22:11:33Z</time>
  <course>19.97</course>
  <speed>0.9903534722511957</speed>
  <fix>3d</fix>
</trkpt>
<trkpt lat="33.810781" lon="-118.3936947">
  <ele>-25.469</ele>
  <time>2026-09-02T22:11:33Z</time>
  <course>19.97</course>
  <speed>0.9903534722511957</speed>
  <fix>3d</fix>
</trkpt>
<trkpt lat="33.810781" lon="-118.3936946">
  <ele>-25.469</ele>
  <time>2026-09-02T22:11:33Z</time>
  <course>19.97</course>
  <speed>0.9903534722511957</speed>
  <fix>3d</fix>
</trkpt>
<trkpt lat="33.8107811" lon="-118.3936946">
  <ele>-25.469</ele>
  <time>2026-09-02T22:11:33Z</time>
  <course>19.97</course>
  <speed>0.9903534722511957</speed>
  <fix>3d</fix>
</trkpt>
<trkpt lat="33.8107811" lon="-118.3936946">
  <ele>-25.469</ele>
  <time>2026-09-02T22:11:33Z</time>
  <course>19.97</course>
  <speed>0.9903534722511957</speed>
  <fix>3d</fix>
</trkpt>
<trkpt lat="33.8107805" lon="-118.3936958">
  <ele>-24.85</ele>
  <time>2026-09-02T22:11:33Z</time>
  <course>44.99</course>
  <speed>1.0</speed>
  <fix>3d</fix>
</trkpt>
<trkpt lat="33.8107812" lon="-118.3936944">
  <ele>-25.469</ele>
  <time>2026-09-02T22:11:33Z</time>
  <course>19.97</course>
  <speed>0.9903534722511957</speed>
  <fix>3d</fix>
</trkpt>
<trkpt lat="33.8107813" lon="-118.3936943">
  <ele>-25.47</ele>
  <time>2026-09-02T22:11:33Z</time>
  <course>19.97</course>
  <speed>0.9903534722511957</speed>
  <fix>3d</fix>
</trkpt>
<trkpt lat="33.8107813" lon="-118.3936943">
  <ele>-25.47</ele>
  <time>2026-09-02T22:11:33Z</time>
  <course>19.97</course>
  <speed>0.9903534722511957</speed>
  <fix>3d</fix>
</trkpt>
<trkpt lat="33.8107814" lon="-118.3936942">
  <ele>-25.47</ele>
  <time>2026-09-02T22:11:33Z</time>
  <course>19.97</course>
  <speed>0.9903534722511957</speed>
  <fix>3d</fix>
</trkpt>
<trkpt lat="33.8107814" lon="-118.3936942">
  <ele>-25.47</ele>
  <time>2026-09-02T22:11:33Z</time>
  <course>19.97</course>
  <speed>0.9903534722511957</speed>
  <fix>3d</fix>
</trkpt>
<trkpt lat="33.8107815" lon="-118.3936941">
  <ele>-25.47</ele>
  <time>2026-09-02T22:11:33Z</time>
  <course>19.97</course>
  <speed>0.9903534722511957</speed>
  <fix>3d</fix>
</trkpt>
<trkpt lat="33.8107815" lon="-118.393694">
  <ele>-25.47</ele>
  <time>2026-09-02T22:11:33Z</time>
  <course>19.97</course>
  <speed>0.9903534722511957</speed>
  <fix>3d</fix>
</trkpt>
<trkpt lat="33.8107816" lon="-118.393694">
  <ele>-25.471</ele>
  <time>2026-09-02T22:11:33Z</time>
  <course>19.97</course>
  <speed>0.9903534722511957</speed>
  <fix>3d</fix>
</trkpt>
<trkpt lat="33.8107816" lon="-118.3936939">
  <ele>-25.471</ele>
  <time>2026-09-02T22:11:33Z</time>
  <course>19.97</course>
  <speed>0.9903534722511957</speed>
  <fix>3d</fix>
</trkpt>
<trkpt lat="33.8107817" lon="-118.3936938">
  <ele>-25.471</ele>
  <time>2026-09-02T22:11:33Z</time>
  <course>19.97</course>
  <speed>0.9903534722511957</speed>
  <fix>3d</fix>
</trkpt>
<trkpt lat="33.8107817" lon="-118.3936938">
  <ele>-25.471</ele>
  <time>2026-09-02T22:11:33Z</time>
  <course>19.97</course>
  <speed>0.9903534722511957</speed>
  <fix>3d</fix>
</trkpt>
<trkpt lat="33.8107805" lon="-118.3936958">
  <ele>-24.85</ele>
  <time>2026-09-02T22:11:33Z</time>
  <course>44.99</course>
  <speed>1.0</speed>
  <fix>3d</fix>
</trkpt>
<trkpt lat="33.8107817" lon="-118.3936938">
  <ele>-25.471</ele>
  <time>2026-09-02T22:11:33Z</time>
  <course>19.97</course>
  <speed>0.9903534722511957</speed>
  <fix>3d</fix>
</trkpt>
<trkpt lat="33.8107818" lon="-118.3936937">
  <ele>-25.471</ele>
  <time>2026-09-02T22:11:33Z</time>
  <course>19.97</course>
  <speed>0.9903534722511957</speed>
  <fix>3d</fix>
</trkpt>
<trkpt lat="33.8107819" lon="-118.3936936">
  <ele>-25.471</ele>
  <time>2026-09-02T22:11:33Z</time>
  <course>19.97</course>
  <speed>0.9903534722511957</speed>
  <fix>3d</fix>
</trkpt>
<trkpt lat="33.8107819" lon="-118.3936936">
  <ele>-25.472</ele>
  <time>2026-09-02T22:11:33Z</time>
  <course>19.97</course>
  <speed>0.9903534722511957</speed>
  <fix>3d</fix>
</trkpt>
<trkpt lat="33.8107819" lon="-118.3936935">
  <ele>-25.472</ele>
  <time>2026-09-02T22:11:33Z</time>
  <course>19.97</course>
  <speed>0.9903534722511957</speed>
  <fix>3d</fix>
</trkpt>
<trkpt lat="33.810782" lon="-118.3936935">
  <ele>-25.472</ele>
  <time>2026-09-02T22:11:33Z</time>
  <course>19.97</course>
  <speed>0.9903534722511957</speed>
  <fix>3d</fix>
</trkpt>
<trkpt lat="33.810782" lon="-118.3936934">
  <ele>-25.472</ele>
  <time>2026-09-02T22:11:33Z</time>
  <course>19.97</course>
  <speed>0.9903534722511957</speed>
  <fix>3d</fix>
</trkpt>
<trkpt lat="33.8107821" lon="-118.3936933">
  <ele>-25.472</ele>
  <time>2026-09-02T22:11:33Z</time>
  <course>19.97</course>
  <speed>0.9903534722511957</speed>
  <fix>3d</fix>
</trkpt>
<trkpt lat="33.8107821" lon="-118.3936933">
  <ele>-25.473</ele>
  <time>2026-09-02T22:11:33Z</time>
  <course>19.97</course>
  <speed>0.9903534722511957</speed>
  <fix>3d</fix>
</trkpt>
<trkpt lat="33.8107822" lon="-118.3936932">
  <ele>-25.473</ele>
  <time>2026-09-02T22:11:33Z</time>
  <course>19.97</course>
  <speed>0.9903534722511957</speed>
  <fix>3d</fix>
</trkpt>
<trkpt lat="33.8107822" lon="-118.3936932">
  <ele>-25.473</ele>
  <time>2026-09-02T22:11:33Z</time>
  <course>19.97</course>
  <speed>0.9903534722511957</speed>
  <fix>3d</fix>
</trkpt>
<trkpt lat="33.8107823" lon="-118.3936931">
  <ele>-25.473</ele>
  <time>2026-09-02T22:11:33Z</time>
  <course>19.97</course>
  <speed>0.9903534722511957</speed>
  <fix>3d</fix>
</trkpt>
<trkpt lat="33.8107823" lon="-118.3936931">
  <ele>-25.473</ele>
  <time>2026-09-02T22:11:33Z</time>
  <course>19.97</course>
  <speed>0.9903534722511957</speed>
  <fix>3d</fix>
</trkpt>
<trkpt lat="33.8107823" lon="-118.393693">
  <ele>-25.473</ele>
  <time>2026-09-02T22:11:33Z</time>
  <course>19.97</course>
  <speed>0.9903534722511957</speed>
  <fix>3d</fix>
</trkpt>
<trkpt lat="33.8107818" lon="-118.3936943">
  <ele>-24.85</ele>
  <time>2026-09-02T22:11:33Z</time>
  <course>45.0</course>
  <speed>1.0</speed>
  <fix>3d</fix>
</trkpt>
<trkpt lat="33.8107824" lon="-118.393693">
  <ele>-25.473</ele>
  <time>2026-09-02T22:11:33Z</time>
  <course>19.97</course>
  <speed>0.9903534722511957</speed>
  <fix>3d</fix>
</trkpt>
<trkpt lat="33.8107824" lon="-118.3936929">
  <ele>-25.474</ele>
  <time>2026-09-02T22:11:33Z</time>
  <course>19.97</course>
  <speed>0.9903534722511957</speed>
  <fix>3d</fix>
</trkpt>
<trkpt lat="33.8107825" lon="-118.3936929">
  <ele>-25.474</ele>
  <time>2026-09-02T22:11:33Z</time>
  <course>19.97</course>
  <speed>0.9903534722511957</speed>
  <fix>3d</fix>
</trkpt>
<trkpt lat="33.8107825" lon="-118.3936928">
  <ele>-25.474</ele>
  <time>2026-09-02T22:11:33Z</time>
  <course>19.97</course>
  <speed>0.9903534722511957</speed>
  <fix>3d</fix>
</trkpt>
<trkpt lat="33.8107826" lon="-118.3936928">
  <ele>-25.474</ele>
  <time>2026-09-02T22:11:33Z</time>
  <course>19.97</course>
  <speed>0.9903534722511957</speed>
  <fix>3d</fix>
</trkpt>
<trkpt lat="33.8107826" lon="-118.3936927">
  <ele>-25.474</ele>
  <time>2026-09-02T22:11:33Z</time>
  <course>19.97</course>
  <speed>0.9903534722511957</speed>
  <fix>3d</fix>
</trkpt>
<trkpt lat="33.8107827" lon="-118.3936927">
  <ele>-25.474</ele>
  <time>2026-09-02T22:11:33Z</time>
  <course>19.97</course>
  <speed>0.9903534722511957</speed>
  <fix>3d</fix>
</trkpt>
<trkpt lat="33.8107827" lon="-118.3936926">
  <ele>-25.475</ele>
  <time>2026-09-02T22:11:33Z</time>
  <course>19.97</course>
  <speed>0.9903534722511957</speed>
  <fix>3d</fix>
</trkpt>
<trkpt lat="33.8107828" lon="-118.3936926">
  <ele>-25.475</ele>
  <time>2026-09-02T22:11:33Z</time>
  <course>19.97</course>
  <speed>0.9903534722511957</speed>
  <fix>3d</fix>
</trkpt>
<trkpt lat="33.8107828" lon="-118.3936925">
  <ele>-25.475</ele>
  <time>2026-09-02T22:11:33Z</time>
  <course>19.97</course>
  <speed>0.9903534722511957</speed>
  <fix>3d</fix>
</trkpt>
<trkpt lat="33.8107829" lon="-118.3936924">
  <ele>-25.475</ele>
  <time>2026-09-02T22:11:33Z</time>
  <course>19.97</course>
  <speed>0.9903534722511957</speed>
  <fix>3d</fix>
</trkpt>
<trkpt lat="33.8107829" lon="-118.3936924">
  <ele>-25.475</ele>
  <time>2026-09-02T22:11:33Z</time>
  <course>19.97</course>
  <speed>0.9903534722511957</speed>
  <fix>3d</fix>
</trkpt>
<trkpt lat="33.810783" lon="-118.3936923">
  <ele>-25.475</ele>
  <time>2026-09-02T22:11:33Z</time>
  <course>19.97</course>
  <speed>0.9903534722511957</speed>
  <fix>3d</fix>
</trkpt>
<trkpt lat="33.810783" lon="-118.3936923">
  <ele>-25.475</ele>
  <time>2026-09-02T22:11:33Z</time>
  <course>19.97</course>
  <speed>0.9903534722511957</speed>
  <fix>3d</fix>
</trkpt>
<trkpt lat="33.8107818" lon="-118.3936943">
  <ele>-24.85</ele>
  <time>2026-09-02T22:11:33Z</time>
  <course>45.0</course>
  <speed>1.0</speed>
  <fix>3d</fix>
</trkpt>
<trkpt lat="33.810783" lon="-118.3936923">
  <ele>-25.475</ele>
  <time>2026-09-02T22:11:33Z</time>
  <course>19.97</course>
  <speed>0.9903534722511957</speed>
  <fix>3d</fix>
</trkpt>
<trkpt lat="33.8107831" lon="-118.3936922">
  <ele>-25.476</ele>
  <time>2026-09-02T22:11:33Z</time>
  <course>19.97</course>
  <speed>0.9903534722511957</speed>
  <fix>3d</fix>
</trkpt>
<trkpt lat="33.8107831" lon="-118.3936921">
  <ele>-25.476</ele>
  <time>2026-09-02T22:11:33Z</time>
  <course>19.97</course>
  <speed>0.9903534722511957</speed>
  <fix>3d</fix>
</trkpt>
<trkpt lat="33.8107832" lon="-118.3936921">
  <ele>-25.476</ele>
  <time>2026-09-02T22:11:33Z</time>
  <course>19.97</course>
  <speed>0.9903534722511957</speed>
  <fix>3d</fix>
</trkpt>
<trkpt lat="33.8107832" lon="-118.393692">
  <ele>-25.476</ele>
  <time>2026-09-02T22:11:33Z</time>
  <course>19.97</course>
  <speed>0.9903534722511957</speed>
  <fix>3d</fix>
</trkpt>
<trkpt lat="33.8107833" lon="-118.393692">
  <ele>-25.476</ele>
  <time>2026-09-02T22:11:33Z</time>
  <course>19.97</course>
  <speed>0.9903534722511957</speed>
  <fix>3d</fix>
</trkpt>
<trkpt lat="33.8107833" lon="-118.3936919">
  <ele>-25.477</ele>
  <time>2026-09-02T22:11:33Z</time>
  <course>19.97</course>
  <speed>0.9903534722511957</speed>
  <fix>3d</fix>
</trkpt>
<trkpt lat="33.8107833" lon="-118.3936918">
  <ele>-25.477</ele>
  <time>2026-09-02T22:11:33Z</time>
  <course>19.97</course>
  <speed>0.9903534722511957</speed>
  <fix>3d</fix>
</trkpt>
<trkpt lat="33.8107834" lon="-118.3936918">
  <ele>-25.477</ele>
  <time>2026-09-02T22:11:33Z</time>
  <course>19.97</course>
  <speed>0.9903534722511957</speed>
  <fix>3d</fix>
</trkpt>
<trkpt lat="33.8107834" lon="-118.3936917">
  <ele>-25.477</ele>
  <time>2026-09-02T22:11:33Z</time>
  <course>19.97</course>
  <speed>0.9903534722511957</speed>
  <fix>3d</fix>
</trkpt>
<trkpt lat="33.8107835" lon="-118.3936917">
  <ele>-25.478</ele>
  <time>2026-09-02T22:11:33Z</time>
  <course>19.97</course>
  <speed>0.9903534722511957</speed>
  <fix>3d</fix>
</trkpt>
<trkpt lat="33.8107835" lon="-118.3936916">
  <ele>-25.478</ele>
  <time>2026-09-02T22:11:33Z</time>
  <course>19.97</course>
  <speed>0.9903534722511957</speed>
  <fix>3d</fix>
</trkpt>
<trkpt lat="33.8107836" lon="-118.3936916">
  <ele>-25.478</ele>
  <time>2026-09-02T22:11:33Z</time>
  <course>19.97</course>
  <speed>0.9903534722511957</speed>
  <fix>3d</fix>
</trkpt>
<trkpt lat="33.8107836" lon="-118.3936915">
  <ele>-25.478</ele>
  <time>2026-09-02T22:11:33Z</time>
  <course>19.97</course>
  <speed>0.9903534722511957</speed>
  <fix>3d</fix>
</trkpt>
<trkpt lat="33.810783" lon="-118.3936927">
  <ele>-24.86</ele>
  <time>2026-09-02T22:11:33Z</time>
  <course>45.02</course>
  <speed>1.0</speed>
  <fix>3d</fix>
</trkpt>
<trkpt lat="33.8107836" lon="-118.3936915">
  <ele>-25.478</ele>
  <time>2026-09-02T22:11:33Z</time>
  <course>19.97</course>
  <speed>0.9903534722511957</speed>
  <fix>3d</fix>
</trkpt>
<trkpt lat="33.8107837" lon="-118.3936914">
  <ele>-25.478</ele>
  <time>2026-09-02T22:11:33Z</time>
  <course>19.97</course>
  <speed>0.9903534722511957</speed>
  <fix>3d</fix>
</trkpt>
<trkpt lat="33.8107838" lon="-118.3936913">
  <ele>-25.479</ele>
  <time>2026-09-02T22:11:33Z</time>
  <course>19.97</course>
  <speed>0.9903534722511957</speed>
  <fix>3d</fix>
</trkpt>
<trkpt lat="33.8107838" lon="-118.3936913">
  <ele>-25.479</ele>
  <time>2026-09-02T22:11:33Z</time>
  <course>19.97</course>
  <speed>0.9903534722511957</speed>
  <fix>3d</fix>
</trkpt>
<trkpt lat="33.8107839" lon="-118.3936912">
  <ele>-25.479</ele>
  <time>2026-09-02T22:11:33Z</time>
  <course>19.97</course>
  <speed>0.9903534722511957</speed>
  <fix>3d</fix>
</trkpt>
<trkpt lat="33.8107839" lon="-118.3936912">
  <ele>-25.479</ele>
  <time>2026-09-02T22:11:33Z</time>
  <course>19.97</course>
  <speed>0.9903534722511957</speed>
  <fix>3d</fix>
</trkpt>
<trkpt lat="33.810784" lon="-118.3936911">
  <ele>-25.48</ele>
  <time>2026-09-02T22:11:33Z</time>
  <course>19.97</course>
  <speed>0.9903534722511957</speed>
  <fix>3d</fix>
</trkpt>
<trkpt lat="33.810784" lon="-118.3936911">
  <ele>-25.48</ele>
  <time>2026-09-02T22:11:33Z</time>
  <course>19.97</course>
  <speed>0.9903534722511957</speed>
  <fix>3d</fix>
</trkpt>
<trkpt lat="33.8107841" lon="-118.393691">
  <ele>-25.48</ele>
  <time>2026-09-02T22:11:33Z</time>
  <course>19.97</course>
  <speed>0.9903534722511957</speed>
  <fix>3d</fix>
</trkpt>
<trkpt lat="33.8107841" lon="-118.3936909">
  <ele>-25.48</ele>
  <time>2026-09-02T22:11:33Z</time>
  <course>19.97</course>
  <speed>0.9903534722511957</speed>
  <fix>3d</fix>
</trkpt>
<trkpt lat="33.8107842" lon="-118.3936909">
  <ele>-25.48</ele>
  <time>2026-09-02T22:11:33Z</time>
  <course>19.97</course>
  <speed>0.9903534722511957</speed>
  <fix>3d</fix>
</trkpt>
<trkpt lat="33.8107842" lon="-118.3936908">
  <ele>-25.481</ele>
  <time>2026-09-02T22:11:33Z</time>
  <course>19.97</course>
  <speed>0.9903534722511957</speed>
  <fix>3d</fix>
</trkpt>
<trkpt lat="33.8107843" lon="-118.3936908">
  <ele>-25.481</ele>
  <time>2026-09-02T22:11:33Z</time>
  <course>19.97</course>
  <speed>0.9903534722511957</speed>
  <fix>3d</fix>
</trkpt>
<trkpt lat="33.8107843" lon="-118.3936908">
  <ele>-25.481</ele>
  <time>2026-09-02T22:11:33Z</time>
  <course>19.97</course>
  <speed>0.9903534722511957</speed>
  <fix>3d</fix>
</trkpt>
<trkpt lat="33.810783" lon="-118.3936927">
  <ele>-24.86</ele>
  <time>2026-09-02T22:11:33Z</time>
  <course>45.02</course>
  <speed>1.0</speed>
  <fix>3d</fix>
</trkpt>
<trkpt lat="33.8107844" lon="-118.3936906">
  <ele>-25.481</ele>
  <time>2026-09-02T22:11:33Z</time>
  <course>19.97</course>
  <speed>0.9903534722511957</speed>
  <fix>3d</fix>
</trkpt>
<trkpt lat="33.8107844" lon="-118.3936906">
  <ele>-25.482</ele>
  <time>2026-09-02T22:11:33Z</time>
  <course>19.97</course>
  <speed>0.9903534722511957</speed>
  <fix>3d</fix>
</trkpt>
<trkpt lat="33.8107845" lon="-118.3936905">
  <ele>-25.482</ele>
  <time>2026-09-02T22:11:33Z</time>
  <course>19.97</course>
  <speed>0.9903534722511957</speed>
  <fix>3d</fix>
</trkpt>
<trkpt lat="33.8107845" lon="-118.3936904">
  <ele>-25.482</ele>
  <time>2026-09-02T22:11:33Z</time>
  <course>19.97</course>
  <speed>0.9903534722511957</speed>
  <fix>3d</fix>
</trkpt>
<trkpt lat="33.8107846" lon="-118.3936904">
  <ele>-25.482</ele>
  <time>2026-09-02T22:11:33Z</time>
  <course>19.97</course>
  <speed>0.9903534722511957</speed>
  <fix>3d</fix>
</trkpt>
<trkpt lat="33.8107846" lon="-118.3936903">
  <ele>-25.483</ele>
  <time>2026-09-02T22:11:33Z</time>
  <course>19.97</course>
  <speed>0.9903534722511957</speed>
  <fix>3d</fix>
</trkpt>
<trkpt lat="33.8107847" lon="-118.3936903">
  <ele>-25.483</ele>
  <time>2026-09-02T22:11:33Z</time>
  <course>19.97</course>
  <speed>0.9903534722511957</speed>
  <fix>3d</fix>
</trkpt>
<trkpt lat="33.8107847" lon="-118.3936902">
  <ele>-25.483</ele>
  <time>2026-09-02T22:11:33Z</time>
  <course>19.97</course>
  <speed>0.9903534722511957</speed>
  <fix>3d</fix>
</trkpt>
<trkpt lat="33.8107848" lon="-118.3936902">
  <ele>-25.484</ele>
  <time>2026-09-02T22:11:33Z</time>
  <course>19.97</course>
  <speed>0.9903534722511957</speed>
  <fix>3d</fix>
</trkpt>
<trkpt lat="33.8107848" lon="-118.3936901">
  <ele>-25.484</ele>
  <time>2026-09-02T22:11:33Z</time>
  <course>19.97</course>
  <speed>0.9903534722511957</speed>
  <fix>3d</fix>
</trkpt>
<trkpt lat="33.8107848" lon="-118.39369">
  <ele>-25.484</ele>
  <time>2026-09-02T22:11:33Z</time>
  <course>19.97</course>
  <speed>0.9903534722511957</speed>
  <fix>3d</fix>
</trkpt>
<trkpt lat="33.8107849" lon="-118.39369">
  <ele>-25.485</ele>
  <time>2026-09-02T22:11:33Z</time>
  <course>19.97</course>
  <speed>0.9903534722511957</speed>
  <fix>3d</fix>
</trkpt>
<trkpt lat="33.8107849" lon="-118.39369">
  <ele>-25.485</ele>
  <time>2026-09-02T22:11:33Z</time>
  <course>19.97</course>
  <speed>0.9903534722511957</speed>
  <fix>3d</fix>
</trkpt>
<trkpt lat="33.8107843" lon="-118.3936912">
  <ele>-24.86</ele>
  <time>2026-09-02T22:11:33Z</time>
  <course>45.03</course>
  <speed>1.0</speed>
  <fix>3d</fix>
</trkpt>
<trkpt lat="33.810785" lon="-118.3936899">
  <ele>-25.485</ele>
  <time>2026-09-02T22:11:33Z</time>
  <course>19.97</course>
  <speed>0.9903534722511957</speed>
  <fix>3d</fix>
</trkpt>
<trkpt lat="33.810785" lon="-118.3936898">
  <ele>-25.485</ele>
  <time>2026-09-02T22:11:33Z</time>
  <course>19.97</course>
  <speed>0.9903534722511957</speed>
  <fix>3d</fix>
</trkpt>
<trkpt lat="33.8107851" lon="-118.3936898">
  <ele>-25.486</ele>
  <time>2026-09-02T22:11:33Z</time>
  <course>19.96</course>
  <speed>0.9903534722511957</speed>
  <fix>3d</fix>
</trkpt>
<trkpt lat="33.8107851" lon="-118.3936897">
  <ele>-25.486</ele>
  <time>2026-09-02T22:11:33Z</time>
  <course>19.96</course>
  <speed>0.9903534722511957</speed>
  <fix>3d</fix>
</trkpt>
<trkpt lat="33.8107852" lon="-118.3936897">
  <ele>-25.486</ele>
  <time>2026-09-02T22:11:33Z</time>
  <course>19.96</course>
  <speed>0.9903534722511957</speed>
  <fix>3d</fix>
</trkpt>
<trkpt lat="33.8107852" lon="-118.3936896">
  <ele>-25.486</ele>
  <time>2026-09-02T22:11:33Z</time>
  <course>19.96</course>
  <speed>0.9903534722511957</speed>
  <fix>3d</fix>
</trkpt>
<trkpt lat="33.8107853" lon="-118.3936895">
  <ele>-25.487</ele>
  <time>2026-09-02T22:11:33Z</time>
  <course>19.96</course>
  <speed>0.9903534722511957</speed>
  <fix>3d</fix>
</trkpt>
<trkpt lat="33.8107853" lon="-118.3936895">
  <ele>-25.487</ele>
  <time>2026-09-02T22:11:33Z</time>
  <course>19.96</course>
  <speed>0.9903534722511957</speed>
  <fix>3d</fix>
</trkpt>
<trkpt lat="33.8107854" lon="-118.3936894">
  <ele>-25.487</ele>
  <time>2026-09-02T22:11:33Z</time>
  <course>19.96</course>
  <speed>0.9903534722511957</speed>
  <fix>3d</fix>
</trkpt>
<trkpt lat="33.8107854" lon="-118.3936894">
  <ele>-25.487</ele>
  <time>2026-09-02T22:11:33Z</time>
  <course>19.96</course>
  <speed>0.9903534722511957</speed>
  <fix>3d</fix>
</trkpt>
<trkpt lat="33.8107854" lon="-118.3936893">
  <ele>-25.488</ele>
  <time>2026-09-02T22:11:33Z</time>
  <course>19.96</course>
  <speed>0.9903534722511957</speed>
  <fix>3d</fix>
</trkpt>
<trkpt lat="33.8107855" lon="-118.3936893">
  <ele>-25.488</ele>
  <time>2026-09-02T22:11:33Z</time>
  <course>19.96</course>
  <speed>0.9903534722511957</speed>
  <fix>3d</fix>
</trkpt>
<trkpt lat="33.8107855" lon="-118.3936892">
  <ele>-25.488</ele>
  <time>2026-09-02T22:11:33Z</time>
  <course>19.96</course>
  <speed>0.9903534722511957</speed>
  <fix>3d</fix>
</trkpt>
<trkpt lat="33.8107843" lon="-118.3936912">
  <ele>-24.86</ele>
  <time>2026-09-02T22:11:33Z</time>
  <course>45.03</course>
  <speed>1.0</speed>
  <fix>3d</fix>
</trkpt>
<trkpt lat="33.8107855" lon="-118.3936892">
  <ele>-25.488</ele>
  <time>2026-09-02T22:11:33Z</time>
  <course>19.96</course>
  <speed>0.9903534722511957</speed>
  <fix>3d</fix>
</trkpt>
<trkpt lat="33.8107856" lon="-118.3936891">
  <ele>-25.488</ele>
  <time>2026-09-02T22:11:33Z</time>
  <course>19.96</course>
  <speed>0.9903534722511957</speed>
  <fix>3d</fix>
</trkpt>
<trkpt lat="33.8107857" lon="-118.393689">
  <ele>-25.489</ele>
  <time>2026-09-02T22:11:33Z</time>
  <course>19.96</course>
  <speed>0.9903534722511957</speed>
  <fix>3d</fix>
</trkpt>
<trkpt lat="33.8107857" lon="-118.393689">
  <ele>-25.489</ele>
  <time>2026-09-02T22:11:33Z</time>
  <course>19.96</course>
  <speed>0.9903534722511957</speed>
  <fix>3d</fix>
</trkpt>
<trkpt lat="33.8107858" lon="-118.3936889">
  <ele>-25.489</ele>
  <time>2026-09-02T22:11:33Z</time>
  <course>19.96</course>
  <speed>0.9903534722511957</speed>
  <fix>3d</fix>
</trkpt>
<trkpt lat="33.8107858" lon="-118.3936889">
  <ele>-25.489</ele>
  <time>2026-09-02T22:11:33Z</time>
  <course>19.96</course>
  <speed>0.9903534722511957</speed>
  <fix>3d</fix>
</trkpt>
<trkpt lat="33.8107859" lon="-118.3936888">
  <ele>-25.49</ele>
  <time>2026-09-02T22:11:33Z</time>
  <course>19.96</course>
  <speed>0.9903534722511957</speed>
  <fix>3d</fix>
</trkpt>
<trkpt lat="33.8107859" lon="-118.3936888">
  <ele>-25.49</ele>
  <time>2026-09-02T22:11:33Z</time>
  <course>19.97</course>
  <speed>0.9903534722511957</speed>
  <fix>3d</fix>
</trkpt>
<trkpt lat="33.810786" lon="-118.3936887">
  <ele>-25.49</ele>
  <time>2026-09-02T22:11:33Z</time>
  <course>19.97</course>
  <speed>0.9903534722511957</speed>
  <fix>3d</fix>
</trkpt>
<trkpt lat="33.810786" lon="-118.3936886">
  <ele>-25.49</ele>
  <time>2026-09-02T22:11:33Z</time>
  <course>19.97</course>
  <speed>0.9903534722511957</speed>
  <fix>3d</fix>
</trkpt>
<trkpt lat="33.8107861" lon="-118.3936886">
  <ele>-25.491</ele>
  <time>2026-09-02T22:11:33Z</time>
  <course>19.97</course>
  <speed>0.9903534722511957</speed>
  <fix>3d</fix>
</trkpt>
<trkpt lat="33.8107861" lon="-118.3936885">
  <ele>-25.491</ele>
  <time>2026-09-02T22:11:33Z</time>
  <course>19.97</course>
  <speed>0.9903534722511957</speed>
  <fix>3d</fix>
</trkpt>
<trkpt lat="33.8107862" lon="-118.3936884">
  <ele>-25.491</ele>
  <time>2026-09-02T22:11:33Z</time>
  <course>19.97</course>
  <speed>0.9903534722511957</speed>
  <fix>3d</fix>
</trkpt>
<trkpt lat="33.8107862" lon="-118.3936884">
  <ele>-25.491</ele>
  <time>2026-09-02T22:11:33Z</time>
  <course>19.97</course>
  <speed>0.9903534722511957</speed>
  <fix>3d</fix>
</trkpt>
<trkpt lat="33.8107856" lon="-118.3936896">
  <ele>-24.87</ele>
  <time>2026-09-02T22:11:33Z</time>
  <course>45.02</course>
  <speed>1.0</speed>
  <fix>3d</fix>
</trkpt>
<trkpt lat="33.8107862" lon="-118.3936884">
  <ele>-25.492</ele>
  <time>2026-09-02T22:11:33Z</time>
  <course>19.97</course>
  <speed>0.9903534722511957</speed>
  <fix>3d</fix>
</trkpt>
<trkpt lat="33.8107863" lon="-118.3936883">
  <ele>-25.492</ele>
  <time>2026-09-02T22:11:33Z</time>
  <course>19.97</course>
  <speed>0.9903534722511957</speed>
  <fix>3d</fix>
</trkpt>
<trkpt lat="33.8107863" lon="-118.3936882">
  <ele>-25.492</ele>
  <time>2026-09-02T22:11:33Z</time>
  <course>19.97</course>
  <speed>0.9903534722511957</speed>
  <fix>3d</fix>
</trkpt>
<trkpt lat="33.8107864" lon="-118.3936882">
  <ele>-25.492</ele>
  <time>2026-09-02T22:11:33Z</time>
  <course>19.97</course>
  <speed>0.9903534722511957</speed>
  <fix>3d</fix>
</trkpt>
<trkpt lat="33.8107864" lon="-118.3936881">
  <ele>-25.493</ele>
  <time>2026-09-02T22:11:33Z</time>
  <course>19.97</course>
  <speed>0.9903534722511957</speed>
  <fix>3d</fix>
</trkpt>
<trkpt lat="33.8107865" lon="-118.393688">
  <ele>-25.493</ele>
  <time>2026-09-02T22:11:33Z</time>
  <course>19.97</course>
  <speed>0.9903534722511957</speed>
  <fix>3d</fix>
</trkpt>
<trkpt lat="33.8107866" lon="-118.393688">
  <ele>-25.493</ele>
  <time>2026-09-02T22:11:33Z</time>
  <course>19.97</course>
  <speed>0.9903534722511957</speed>
  <fix>3d</fix>
</trkpt>
<trkpt lat="33.8107866" lon="-118.3936879">
  <ele>-25.494</ele>
  <time>2026-09-02T22:11:33Z</time>
  <course>19.97</course>
  <speed>0.9903534722511957</speed>
  <fix>3d</fix>
</trkpt>
<trkpt lat="33.8107866" lon="-118.3936879">
  <ele>-25.494</ele>
  <time>2026-09-02T22:11:33Z</time>
  <course>19.97</course>
  <speed>0.9903534722511957</speed>
  <fix>3d</fix>
</trkpt>
<trkpt lat="33.8107867" lon="-118.3936878">
  <ele>-25.494</ele>
  <time>2026-09-02T22:11:33Z</time>
  <course>19.97</course>
  <speed>0.9903534722511957</speed>
  <fix>3d</fix>
</trkpt>
<trkpt lat="33.8107867" lon="-118.3936878">
  <ele>-25.495</ele>
  <time>2026-09-02T22:11:33Z</time>
  <course>19.97</course>
  <speed>0.9903534722511957</speed>
  <fix>3d</fix>
</trkpt>
<trkpt lat="33.8107868" lon="-118.3936877">
  <ele>-25.495</ele>
  <time>2026-09-02T22:11:33Z</time>
  <course>19.97</course>
  <speed>0.9903534722511957</speed>
  <fix>3d</fix>
</trkpt>
<trkpt lat="33.8107868" lon="-118.3936877">
  <ele>-25.495</ele>
  <time>2026-09-02T22:11:33Z</time>
  <course>19.97</course>
  <speed>0.9903534722511957</speed>
  <fix>3d</fix>
</trkpt>
<trkpt lat="33.8107856" lon="-118.3936896">
  <ele>-24.87</ele>
  <time>2026-09-02T22:11:33Z</time>
  <course>45.02</course>
  <speed>1.0</speed>
  <fix>3d</fix>
</trkpt>
<trkpt lat="33.8107868" lon="-118.3936877">
  <ele>-25.495</ele>
  <time>2026-09-02T22:11:33Z</time>
  <course>19.97</course>
  <speed>0.9903534722511957</speed>
  <fix>3d</fix>
</trkpt>
<trkpt lat="33.8107869" lon="-118.3936876">
  <ele>-25.496</ele>
  <time>2026-09-02T22:11:33Z</time>
  <course>19.97</course>
  <speed>0.9903534722511957</speed>
  <fix>3d</fix>
</trkpt>
<trkpt lat="33.8107869" lon="-118.3936875">
  <ele>-25.496</ele>
  <time>2026-09-02T22:11:33Z</time>
  <course>19.97</course>
  <speed>0.9903534722511957</speed>
  <fix>3d</fix>
</trkpt>
<trkpt lat="33.810787" lon="-118.3936874">
  <ele>-25.496</ele>
  <time>2026-09-02T22:11:33Z</time>
  <course>19.97</course>
  <speed>0.9903534722511957</speed>
  <fix>3d</fix>
</trkpt>
<trkpt lat="33.8107871" lon="-118.3936874">
  <ele>-25.497</ele>
  <time>2026-09-02T22:11:33Z</time>
  <course>19.97</course>
  <speed>0.9903534722511957</speed>
  <fix>3d</fix>
</trkpt>
<trkpt lat="33.8107871" lon="-118.3936873">
  <ele>-25.497</ele>
  <time>2026-09-02T22:11:33Z</time>
  <course>19.97</course>
  <speed>0.9903534722511957</speed>
  <fix>3d</fix>
</trkpt>
<trkpt lat="33.8107874" lon="-118.3936869">
  <ele>-25.499</ele>
  <time>2026-09-02T22:11:33Z</time>
  <course>19.96</course>
  <speed>0.9903534722511957</speed>
  <fix>3d</fix>
</trkpt>
<trkpt lat="33.8107869" lon="-118.3936881">
  <ele>-24.87</ele>
  <time>2026-09-02T22:11:33Z</time>
  <course>44.99</course>
  <speed>1.0</speed>
  <fix>3d</fix>
</trkpt>
<trkpt lat="33.810788" lon="-118.3936862">
  <ele>-25.503</ele>
  <time>2026-09-02T22:11:33Z</time>
  <course>19.97</course>
  <speed>0.717007670809734</speed>
  <fix>3d</fix>
</trkpt>
<trkpt lat="33.8107869" lon="-118.3936881">
  <ele>-24.87</ele>
  <time>2026-09-02T22:11:33Z</time>
  <course>44.99</course>
  <speed>1.0</speed>
  <fix>3d</fix>
</trkpt>
<trkpt lat="33.8107884" lon="-118.3936857">
  <ele>-25.506</ele>
  <time>2026-09-02T22:11:33Z</time>
  <course>19.97</course>
  <speed>0.5560575509783138</speed>
  <fix>3d</fix>
</trkpt>
<trkpt lat="33.8107881" lon="-118.3936867">
  <ele>-24.88</ele>
  <time>2026-09-02T22:11:33Z</time>
  <course>46.24</course>
  <speed>0.84</speed>
  <fix>3d</fix>
</trkpt>
<trkpt lat="33.8107887" lon="-118.3936853">
  <ele>-25.51</ele>
  <time>2026-09-02T22:11:33Z</time>
  <course>19.96</course>
  <speed>0.45803929962395146</speed>
  <fix>3d</fix>
</trkpt>
<trkpt lat="33.8107881" lon="-118.3936867">
  <ele>-24.88</ele>
  <time>2026-09-02T22:11:33Z</time>
  <course>46.24</course>
  <speed>0.84</speed>
  <fix>3d</fix>
</trkpt>
<trkpt lat="33.8107889" lon="-118.3936849">
  <ele>-25.512</ele>
  <time>2026-09-02T22:11:33Z</time>
  <course>19.96</course>
  <speed>0.388329756778952</speed>
  <fix>3d</fix>
</trkpt>
<trkpt lat="33.810789" lon="-118.3936855">
  <ele>-24.88</ele>
  <time>2026-09-02T22:11:33Z</time>
  <course>49.19</course>
  <speed>0.57</speed>
  <fix>3d</fix>
</trkpt>
<trkpt lat="33.8107892" lon="-118.3936846">
  <ele>-25.513</ele>
  <time>2026-09-02T22:11:33Z</time>
  <course>19.96</course>
  <speed>0.33837848631377265</speed>
  <fix>3d</fix>
</trkpt>
<trkpt lat="33.810789" lon="-118.3936855">
  <ele>-24.88</ele>
  <time>2026-09-02T22:11:33Z</time>
  <course>49.19</course>
  <speed>0.57</speed>
  <fix>3d</fix>
</trkpt>
<trkpt lat="33.8107894" lon="-118.3936843">
  <ele>-25.512</ele>
  <time>2026-09-02T22:11:33Z</time>
  <course>19.97</course>
  <speed>0.2968164415931166</speed>
  <fix>3d</fix>
</trkpt>
<trkpt lat="33.8107895" lon="-118.3936847">
  <ele>-24.89</ele>
  <time>2026-09-02T22:11:33Z</time>
  <course>51.5</course>
  <speed>0.39</speed>
  <fix>3d</fix>
</trkpt>
<trkpt lat="33.8107895" lon="-118.393684">
  <ele>-25.51</ele>
  <time>2026-09-02T22:11:33Z</time>
  <course>19.98</course>
  <speed>0.2692582403567252</speed>
  <fix>3d</fix>
</trkpt>
<trkpt lat="33.8107895" lon="-118.3936847">
  <ele>-24.89</ele>
  <time>2026-09-02T22:11:33Z</time>
  <course>51.5</course>
  <speed>0.39</speed>
  <fix>3d</fix>
</trkpt>
<trkpt lat="33.8107897" lon="-118.3936838">
  <ele>-25.508</ele>
  <time>2026-09-02T22:11:33Z</time>
  <course>19.99</course>
  <speed>0.24698178070456936</speed>
  <fix>3d</fix>
</trkpt>
<trkpt lat="33.8107899" lon="-118.3936841">
  <ele>-24.88</ele>
  <time>2026-09-02T22:11:33Z</time>
  <course>52.76</course>
  <speed>0.3</speed>
  <fix>3d</fix>
</trkpt>
<trkpt lat="33.8107899" lon="-118.3936836">
  <ele>-25.505</ele>
  <time>2026-09-02T22:11:33Z</time>
  <course>20.0</course>
  <speed>0.22825424421026652</speed>
  <fix>3d</fix>
</trkpt>
<trkpt lat="33.8107899" lon="-118.3936841">
  <ele>-24.88</ele>
  <time>2026-09-02T22:11:33Z</time>
  <course>52.76</course>
  <speed>0.3</speed>
  <fix>3d</fix>
</trkpt>
<trkpt lat="33.81079" lon="-118.3936834">
  <ele>-25.5</ele>
  <time>2026-09-02T22:11:33Z</time>
  <course>20.01</course>
  <speed>0.20591260281974003</speed>
  <fix>3d</fix>
</trkpt>
<trkpt lat="33.8107902" lon="-118.3936836">
  <ele>-24.88</ele>
  <time>2026-09-02T22:11:33Z</time>
  <course>53.56</course>
  <speed>0.25</speed>
  <fix>3d</fix>
</trkpt>
<trkpt lat="33.8107901" lon="-118.3936832">
  <ele>-25.496</ele>
  <time>2026-09-02T22:11:33Z</time>
  <course>20.02</course>
  <speed>0.19235384061671343</speed>
  <fix>3d</fix>
</trkpt>
<trkpt lat="33.8107902" lon="-118.3936836">
  <ele>-24.88</ele>
  <time>2026-09-02T22:11:33Z</time>
  <course>53.56</course>
  <speed>0.25</speed>
  <fix>3d</fix>
</trkpt>
<trkpt lat="33.8107902" lon="-118.393683">
  <ele>-25.491</ele>
  <time>2026-09-02T22:11:33Z</time>
  <course>20.04</course>
  <speed>0.17888543819998318</speed>
  <fix>3d</fix>
</trkpt>
<trkpt lat="33.8107904" lon="-118.3936832">
  <ele>-24.87</ele>
  <time>2026-09-02T22:11:33Z</time>
  <course>54.11</course>
  <speed>0.21</speed>
  <fix>3d</fix>
</trkpt>
<trkpt lat="33.8107903" lon="-118.3936828">
  <ele>-25.485</ele>
  <time>2026-09-02T22:11:33Z</time>
  <course>20.05</course>
  <speed>0.17</speed>
  <fix>3d</fix>
</trkpt>
<trkpt lat="33.8107904" lon="-118.3936832">
  <ele>-24.87</ele>
  <time>2026-09-02T22:11:33Z</time>
  <course>54.11</course>
  <speed>0.21</speed>
  <fix>3d</fix>
</trkpt>
<trkpt lat="33.8107904" lon="-118.3936826">
  <ele>-25.48</ele>
  <time>2026-09-02T22:11:33Z</time>
  <course>20.06</course>
  <speed>0.16552945357246848</speed>
  <fix>3d</fix>
</trkpt>
<trkpt lat="33.8107907" lon="-118.3936828">
  <ele>-24.87</ele>
  <time>2026-09-02T22:11:33Z</time>
  <course>54.52</course>
  <speed>0.18</speed>
  <fix>3d</fix>
</trkpt>
<trkpt lat="33.8107905" lon="-118.3936825">
  <ele>-25.474</ele>
  <time>2026-09-02T22:11:33Z</time>
  <course>20.07</course>
  <speed>0.15652475842498528</speed>
  <fix>3d</fix>
</trkpt>
<trkpt lat="33.8107907" lon="-118.3936828">
  <ele>-24.87</ele>
  <time>2026-09-02T22:11:33Z</time>
  <course>54.52</course>
  <speed>0.18</speed>
  <fix>3d</fix>
</trkpt>
<trkpt lat="33.8107906" lon="-118.3936823">
  <ele>-25.468</ele>
  <time>2026-09-02T22:11:33Z</time>
  <course>20.09</course>
  <speed>0.14317821063276354</speed>
  <fix>3d</fix>
</trkpt>
<trkpt lat="33.8107909" lon="-118.3936825">
  <ele>-24.86</ele>
  <time>2026-09-02T22:11:33Z</time>
  <course>54.84</course>
  <speed>0.16</speed>
  <fix>3d</fix>
</trkpt>
<trkpt lat="33.8107907" lon="-118.3936822">
  <ele>-25.462</ele>
  <time>2026-09-02T22:11:33Z</time>
  <course>20.1</course>
  <speed>0.14317821063276354</speed>
  <fix>3d</fix>
</trkpt>
<trkpt lat="33.8107909" lon="-118.3936825">
  <ele>-24.86</ele>
  <time>2026-09-02T22:11:33Z</time>
  <course>54.84</course>
  <speed>0.16</speed>
  <fix>3d</fix>
</trkpt>
<trkpt lat="33.8107908" lon="-118.3936821">
  <ele>-25.454</ele>
  <time>2026-09-02T22:11:33Z</time>
  <course>20.11</course>
  <speed>0.13</speed>
  <fix>3d</fix>
</trkpt>
<trkpt lat="33.810791" lon="-118.3936823">
  <ele>-24.84</ele>
  <time>2026-09-02T22:11:33Z</time>
  <course>55.09</course>
  <speed>0.14</speed>
  <fix>3d</fix>
</trkpt>
<trkpt lat="33.8107909" lon="-118.3936819">
  <ele>-25.446</ele>
  <time>2026-09-02T22:11:33Z</time>
  <course>20.12</course>
  <speed>0.13</speed>
  <fix>3d</fix>
</trkpt>
<trkpt lat="33.810791" lon="-118.3936823">
  <ele>-24.84</ele>
  <time>2026-09-02T22:11:33Z</time>
  <course>55.09</course>
  <speed>0.14</speed>
  <fix>3d</fix>
</trkpt>
<trkpt lat="33.810791" lon="-118.3936818">
  <ele>-25.438</ele>
  <time>2026-09-02T22:11:33Z</time>
  <course>20.13</course>
  <speed>0.12083045973594572</speed>
  <fix>3d</fix>
</trkpt>
<trkpt lat="33.8107911" lon="-118.3936821">
  <ele>-24.83</ele>
  <time>2026-09-02T22:11:33Z</time>
  <course>55.3</course>
  <speed>0.13</speed>
  <fix>3d</fix>
</trkpt>
<trkpt lat="33.810791" lon="-118.3936817">
  <ele>-25.428</ele>
  <time>2026-09-02T22:11:33Z</time>
  <course>20.14</course>
  <speed>0.12083045973594572</speed>
  <fix>3d</fix>
</trkpt>
<trkpt lat="33.8107911" lon="-118.3936821">
  <ele>-24.83</ele>
  <time>2026-09-02T22:11:33Z</time>
  <course>55.3</course>
  <speed>0.13</speed>
  <fix>3d</fix>
</trkpt>
<trkpt lat="33.8107911" lon="-118.3936816">
  <ele>-25.42</ele>
  <time>2026-09-02T22:11:33Z</time>
  <course>20.15</course>
  <speed>0.11704699910719625</speed>
  <fix>3d</fix>
</trkpt>
<trkpt lat="33.8107913" lon="-118.3936818">
  <ele>-24.82</ele>
  <time>2026-09-02T22:11:33Z</time>
  <course>55.48</course>
  <speed>0.11</speed>
  <fix>3d</fix>
</trkpt>
<trkpt lat="33.8107912" lon="-118.3936815">
  <ele>-25.412</ele>
  <time>2026-09-02T22:11:33Z</time>
  <course>20.16</course>
  <speed>0.10770329614269007</speed>
  <fix>3d</fix>
</trkpt>
<trkpt lat="33.8107913" lon="-118.3936818">
  <ele>-24.82</ele>
  <time>2026-09-02T22:11:33Z</time>
  <course>55.48</course>
  <speed>0.11</speed>
  <fix>3d</fix>
</trkpt>
<trkpt lat="33.8107912" lon="-118.3936814">
  <ele>-25.404</ele>
  <time>2026-09-02T22:11:33Z</time>
  <course>20.17</course>
  <speed>0.10770329614269007</speed>
  <fix>3d</fix>
</trkpt>
<trkpt lat="33.8107914" lon="-118.3936816">
  <ele>-24.81</ele>
  <time>2026-09-02T22:11:33Z</time>
  <course>55.63</course>
  <speed>0.1</speed>
  <fix>3d</fix>
</trkpt>
<trkpt lat="33.8107913" lon="-118.3936813">
  <ele>-25.396</ele>
  <time>2026-09-02T22:11:33Z</time>
  <course>20.18</course>
  <speed>0.10770329614269007</speed>
  <fix>3d</fix>
</trkpt>
<trkpt lat="33.8107914" lon="-118.3936816">
  <ele>-24.81</ele>
  <time>2026-09-02T22:11:33Z</time>
  <course>55.63</course>
  <speed>0.1</speed>
  <fix>3d</fix>
</trkpt>
<trkpt lat="33.8107915" lon="-118.3936809">
  <ele>-25.365</ele>
  <time>2026-09-02T22:11:33Z</time>
  <course>20.21</course>
  <speed>0.09486832980505139</speed>
  <fix>3d</fix>
</trkpt>
<trkpt lat="33.8107916" lon="-118.3936813">
  <ele>-24.77</ele>
  <time>2026-09-02T22:11:33Z</time>
  <course>55.85</course>
  <speed>0.09</speed>
  <fix>3d</fix>
</trkpt>
<trkpt lat="33.8107916" lon="-118.3936807">
  <ele>-25.336</ele>
  <time>2026-09-02T22:11:33Z</time>
  <course>20.23</course>
  <speed>0.0824621125123532</speed>
  <fix>3d</fix>
</trkpt>
<trkpt lat="33.8107917" lon="-118.3936809">
  <ele>-24.74</ele>
  <time>2026-09-02T22:11:33Z</time>
  <course>56.04</course>
  <speed>0.08</speed>
  <fix>3d</fix>
</trkpt>
<trkpt lat="33.8107917" lon="-118.3936806">
  <ele>-25.327</ele>
  <time>2026-09-02T22:11:33Z</time>
  <course>20.24</course>
  <speed>0.0824621125123532</speed>
  <fix>3d</fix>
</trkpt>
<trkpt lat="33.8107917" lon="-118.3936809">
  <ele>-24.74</ele>
  <time>2026-09-02T22:11:33Z</time>
  <course>56.04</course>
  <speed>0.08</speed>
  <fix>3d</fix>
</trkpt>
<trkpt lat="33.8107917" lon="-118.3936806">
  <ele>-25.319</ele>
  <time>2026-09-02T22:11:33Z</time>
  <course>20.24</course>
  <speed>0.0824621125123532</speed>
  <fix>3d</fix>
</trkpt>
<trkpt lat="33.8107918" lon="-118.3936808">
  <ele>-24.72</ele>
  <time>2026-09-02T22:11:33Z</time>
  <course>56.12</course>
  <speed>0.07</speed>
  <fix>3d</fix>
</trkpt>
<trkpt lat="33.8107917" lon="-118.3936805">
  <ele>-25.311</ele>
  <time>2026-09-02T22:11:33Z</time>
  <course>20.25</course>
  <speed>0.0824621125123532</speed>
  <fix>3d</fix>
</trkpt>
<trkpt lat="33.8107918" lon="-118.3936808">
  <ele>-24.72</ele>
  <time>2026-09-02T22:11:33Z</time>
  <course>56.12</course>
  <speed>0.07</speed>
  <fix>3d</fix>
</trkpt>
<trkpt lat="33.8107918" lon="-118.3936804">
  <ele>-25.303</ele>
  <time>2026-09-02T22:11:33Z</time>
  <course>20.25</course>
  <speed>0.07280109889280519</speed>
  <fix>3d</fix>
</trkpt>
<trkpt lat="33.8107919" lon="-118.3936806">
  <ele>-24.7</ele>
  <time>2026-09-02T22:11:33Z</time>
  <course>56.19</course>
  <speed>0.07</speed>
  <fix>3d</fix>
</trkpt>
<trkpt lat="33.8107918" lon="-118.3936803">
  <ele>-25.293</ele>
  <time>2026-09-02T22:11:33Z</time>
  <course>20.26</course>
  <speed>0.07071067811865475</speed>
  <fix>3d</fix>
</trkpt>
<trkpt lat="33.8107919" lon="-118.3936806">
  <ele>-24.7</ele>
  <time>2026-09-02T22:11:33Z</time>
  <course>56.19</course>
  <speed>0.07</speed>
  <fix>3d</fix>
</trkpt>
<trkpt lat="33.8107918" lon="-118.3936803">
  <ele>-25.282</ele>
  <time>2026-09-02T22:11:33Z</time>
  <course>20.26</course>
  <speed>0.07071067811865475</speed>
  <fix>3d</fix>
</trkpt>
<trkpt lat="33.810792" lon="-118.3936805">
  <ele>-24.69</ele>
  <time>2026-09-02T22:11:33Z</time>
  <course>56.25</course>
  <speed>0.07</speed>
  <fix>3d</fix>
</trkpt>
<trkpt lat="33.8107919" lon="-118.3936802">
  <ele>-25.271</ele>
  <time>2026-09-02T22:11:33Z</time>
  <course>20.26</course>
  <speed>0.07071067811865475</speed>
  <fix>3d</fix>
</trkpt>
<trkpt lat="33.810792" lon="-118.3936805">
  <ele>-24.69</ele>
  <time>2026-09-02T22:11:33Z</time>
  <course>56.25</course>
  <speed>0.07</speed>
  <fix>3d</fix>
</trkpt>
<trkpt lat="33.8107919" lon="-118.3936802">
  <ele>-25.259</ele>
  <time>2026-09-02T22:11:33Z</time>
  <course>20.27</course>
  <speed>0.07071067811865475</speed>
  <fix>3d</fix>
</trkpt>
<trkpt lat="33.8107921" lon="-118.3936804">
  <ele>-24.67</ele>
  <time>2026-09-02T22:11:33Z</time>
  <course>56.3</course>
  <speed>0.06</speed>
  <fix>3d</fix>
</trkpt>
<trkpt lat="33.8107919" lon="-118.3936801">
  <ele>-25.248</ele>
  <time>2026-09-02T22:11:33Z</time>
  <course>20.27</course>
  <speed>0.07071067811865475</speed>
  <fix>3d</fix>
</trkpt>
<trkpt lat="33.8107921" lon="-118.3936804">
  <ele>-24.67</ele>
  <time>2026-09-02T22:11:33Z</time>
  <course>56.3</course>
  <speed>0.06</speed>
  <fix>3d</fix>
</trkpt>
<trkpt lat="33.810792" lon="-118.39368">
  <ele>-25.237</ele>
  <time>2026-09-02T22:11:33Z</time>
  <course>20.27</course>
  <speed>0.07071067811865475</speed>
  <fix>3d</fix>
</trkpt>
<trkpt lat="33.8107921" lon="-118.3936803">
  <ele>-24.65</ele>
  <time>2026-09-02T22:11:33Z</time>
  <course>56.36</course>
  <speed>0.06</speed>
  <fix>3d</fix>
</trkpt>
<trkpt lat="33.810792" lon="-118.39368">
  <ele>-25.227</ele>
  <time>2026-09-02T22:11:33Z</time>
  <course>20.28</course>
  <speed>0.06082762530298219</speed>
  <fix>3d</fix>
</trkpt>
<trkpt lat="33.8107921" lon="-118.3936803">
  <ele>-24.65</ele>
  <time>2026-09-02T22:11:33Z</time>
  <course>56.36</course>
  <speed>0.06</speed>
  <fix>3d</fix>
</trkpt>
<trkpt lat="33.810792" lon="-118.3936799">
  <ele>-25.217</ele>
  <time>2026-09-02T22:11:33Z</time>
  <course>20.28</course>
  <speed>0.06082762530298219</speed>
  <fix>3d</fix>
</trkpt>
<trkpt lat="33.8107922" lon="-118.3936802">
  <ele>-24.63</ele>
  <time>2026-09-02T22:11:33Z</time>
  <course>56.41</course>
  <speed>0.06</speed>
  <fix>3d</fix>
</trkpt>
<trkpt lat="33.810792" lon="-118.3936799">
  <ele>-25.207</ele>
  <time>2026-09-02T22:11:33Z</time>
  <course>20.28</course>
  <speed>0.06</speed>
  <fix>3d</fix>
</trkpt>
<trkpt lat="33.8107922" lon="-118.3936802">
  <ele>-24.63</ele>
  <time>2026-09-02T22:11:33Z</time>
  <course>56.41</course>
  <speed>0.06</speed>
  <fix>3d</fix>
</trkpt>
<trkpt lat="33.8107921" lon="-118.3936798">
  <ele>-25.198</ele>
  <time>2026-09-02T22:11:33Z</time>
  <course>20.28</course>
  <speed>0.06</speed>
  <fix>3d</fix>
</trkpt>
<trkpt lat="33.8107922" lon="-118.39368">
  <ele>-24.61</ele>
  <time>2026-09-02T22:11:33Z</time>
  <course>56.46</course>
  <speed>0.05</speed>
  <fix>3d</fix>
</trkpt>
<trkpt lat="33.8107921" lon="-118.3936798">
  <ele>-25.189</ele>
  <time>2026-09-02T22:11:33Z</time>
  <course>20.29</course>
  <speed>0.06</speed>
  <fix>3d</fix>
</trkpt>
<trkpt lat="33.8107922" lon="-118.39368">
  <ele>-24.61</ele>
  <time>2026-09-02T22:11:33Z</time>
  <course>56.46</course>
  <speed>0.05</speed>
  <fix>3d</fix>
</trkpt>
<trkpt lat="33.8107921" lon="-118.3936797">
  <ele>-25.181</ele>
  <time>2026-09-02T22:11:33Z</time>
  <course>20.29</course>
  <speed>0.06</speed>
  <fix>3d</fix>
</trkpt>
<trkpt lat="33.8107923" lon="-118.3936799">
  <ele>-24.59</ele>
  <time>2026-09-02T22:11:33Z</time>
  <course>56.51</course>
  <speed>0.05</speed>
  <fix>3d</fix>
</trkpt>
<trkpt lat="33.8107921" lon="-118.3936797">
  <ele>-25.173</ele>
  <time>2026-09-02T22:11:33Z</time>
  <course>20.29</course>
  <speed>0.06</speed>
  <fix>3d</fix>
</trkpt>
<trkpt lat="33.8107923" lon="-118.3936799">
  <ele>-24.59</ele>
  <time>2026-09-02T22:11:33Z</time>
  <course>56.51</course>
  <speed>0.05</speed>
  <fix>3d</fix>
</trkpt>
<trkpt lat="33.8107922" lon="-118.3936796">
  <ele>-25.165</ele>
  <time>2026-09-02T22:11:33Z</time>
  <course>20.29</course>
  <speed>0.06</speed>
  <fix>3d</fix>
</trkpt>
<trkpt lat="33.8107923" lon="-118.3936798">
  <ele>-24.57</ele>
  <time>2026-09-02T22:11:33Z</time>
  <course>56.54</course>
  <speed>0.05</speed>
  <fix>3d</fix>
</trkpt>
<trkpt lat="33.8107922" lon="-118.3936796">
  <ele>-25.156</ele>
  <time>2026-09-02T22:11:33Z</time>
  <course>20.3</course>
  <speed>0.06</speed>
  <fix>3d</fix>
</trkpt>
<trkpt lat="33.8107923" lon="-118.3936798">
  <ele>-24.57</ele>
  <time>2026-09-02T22:11:33Z</time>
  <course>56.54</course>
  <speed>0.05</speed>
  <fix>3d</fix>
</trkpt>
<trkpt lat="33.8107922" lon="-118.3936795">
  <ele>-25.147</ele>
  <time>2026-09-02T22:11:33Z</time>
  <course>20.3</course>
  <speed>0.05</speed>
  <fix>3d</fix>
</trkpt>
<trkpt lat="33.8107924" lon="-118.3936797">
  <ele>-24.56</ele>
  <time>2026-09-02T22:11:33Z</time>
  <course>56.57</course>
  <speed>0.05</speed>
  <fix>3d</fix>
</trkpt>
<trkpt lat="33.8107922" lon="-118.3936795">
  <ele>-25.139</ele>
  <time>2026-09-02T22:11:33Z</time>
  <course>20.3</course>
  <speed>0.05</speed>
  <fix>3d</fix>
</trkpt>
<trkpt lat="33.8107924" lon="-118.3936797">
  <ele>-24.56</ele>
  <time>2026-09-02T22:11:33Z</time>
  <course>56.57</course>
  <speed>0.05</speed>
  <fix>3d</fix>
</trkpt>
<trkpt lat="33.8107922" lon="-118.3936795">
  <ele>-25.129</ele>
  <time>2026-09-02T22:11:33Z</time>
  <course>20.3</course>
  <speed>0.05</speed>
  <fix>3d</fix>
</trkpt>
<trkpt lat="33.8107925" lon="-118.3936797">
  <ele>-24.54</ele>
  <time>2026-09-02T22:11:33Z</time>
  <course>56.6</course>
  <speed>0.04</speed>
  <fix>3d</fix>
</trkpt>
<trkpt lat="33.8107923" lon="-118.3936794">
  <ele>-25.12</ele>
  <time>2026-09-02T22:11:33Z</time>
  <course>20.3</course>
  <speed>0.05</speed>
  <fix>3d</fix>
</trkpt>
<trkpt lat="33.8107925" lon="-118.3936797">
  <ele>-24.54</ele>
  <time>2026-09-02T22:11:33Z</time>
  <course>56.6</course>
  <speed>0.04</speed>
  <fix>3d</fix>
</trkpt>
<trkpt lat="33.8107923" lon="-118.3936794">
  <ele>-25.111</ele>
  <time>2026-09-02T22:11:33Z</time>
  <course>20.31</course>
  <speed>0.05</speed>
  <fix>3d</fix>
</trkpt>
<trkpt lat="33.8107925" lon="-118.3936796">
  <ele>-24.52</ele>
  <time>2026-09-02T22:11:33Z</time>
  <course>56.64</course>
  <speed>0.04</speed>
  <fix>3d</fix>
</trkpt>
<trkpt lat="33.8107923" lon="-118.3936793">
  <ele>-25.102</ele>
  <time>2026-09-02T22:11:33Z</time>
  <course>20.31</course>
  <speed>0.05</speed>
  <fix>3d</fix>
</trkpt>
<trkpt lat="33.8107925" lon="-118.3936796">
  <ele>-24.52</ele>
  <time>2026-09-02T22:11:33Z</time>
  <course>56.64</course>
  <speed>0.04</speed>
  <fix>3d</fix>
</trkpt>
<trkpt lat="33.8107923" lon="-118.3936793">
  <ele>-25.092</ele>
  <time>2026-09-02T22:11:33Z</time>
  <course>20.31</course>
  <speed>0.05</speed>
  <fix>3d</fix>
</trkpt>
<trkpt lat="33.8107926" lon="-118.3936795">
  <ele>-24.5</ele>
  <time>2026-09-02T22:11:33Z</time>
  <course>56.68</course>
  <speed>0.04</speed>
  <fix>3d</fix>
</trkpt>
<trkpt lat="33.8107923" lon="-118.3936793">
  <ele>-25.082</ele>
  <time>2026-09-02T22:11:33Z</time>
  <course>21.98</course>
  <speed>0.04242640687119285</speed>
  <fix>3d</fix>
</trkpt>
<trkpt lat="33.8107926" lon="-118.3936795">
  <ele>-24.5</ele>
  <time>2026-09-02T22:11:33Z</time>
  <course>56.68</course>
  <speed>0.04</speed>
  <fix>3d</fix>
</trkpt>
<trkpt lat="33.8107923" lon="-118.3936793">
  <ele>-25.075</ele>
  <time>2026-09-02T22:11:33Z</time>
  <course>25.22</course>
  <speed>0.0632455532033676</speed>
  <fix>3d</fix>
</trkpt>
<trkpt lat="33.8107926" lon="-118.3936794">
  <ele>-24.48</ele>
  <time>2026-09-02T22:11:33Z</time>
  <course>78.39</course>
  <speed>0.02</speed>
  <fix>3d</fix>
</trkpt>
<trkpt lat="33.8107923" lon="-118.3936793">
  <ele>-25.071</ele>
  <time>2026-09-02T22:11:33Z</time>
  <course>28.87</course>
  <speed>0.1</speed>
  <fix>3d</fix>
</trkpt>
<trkpt lat="33.8107926" lon="-118.3936794">
  <ele>-24.48</ele>
  <time>2026-09-02T22:11:33Z</time>
  <course>78.39</course>
  <speed>0.02</speed>
  <fix>3d</fix>
</trkpt>
<trkpt lat="33.8107922" lon="-118.3936793">
  <ele>-25.069</ele>
  <time>2026-09-02T22:11:33Z</time>
  <course>32.73</course>
  <speed>0.14</speed>
  <fix>3d</fix>
</trkpt>
<trkpt lat="33.8107926" lon="-118.3936794">
  <ele>-24.46</ele>
  <time>2026-09-02T22:11:33Z</time>
  <course>174.83</course>
  <speed>0.05</speed>
  <fix>3d</fix>
</trkpt>
<trkpt lat="33.8107922" lon="-118.3936793">
  <ele>-25.068</ele>
  <time>2026-09-02T22:11:33Z</time>
  <course>36.8</course>
  <speed>0.2009975124224178</speed>
  <fix>3d</fix>
</trkpt>
<trkpt lat="33.8107926" lon="-118.3936794">
  <ele>-24.46</ele>
  <time>2026-09-02T22:11:33Z</time>
  <course>174.83</course>
  <speed>0.05</speed>
  <fix>3d</fix>
</trkpt>
<trkpt lat="33.810792" lon="-118.3936793">
  <ele>-25.068</ele>
  <time>2026-09-02T22:11:33Z</time>
  <course>41.05</course>
  <speed>0.25179356624028343</speed>
  <fix>3d</fix>
</trkpt>
<trkpt lat="33.8107925" lon="-118.3936794">
  <ele>-24.46</ele>
  <time>2026-09-02T22:11:33Z</time>
  <course>189.7</course>
  <speed>0.13</speed>
  <fix>3d</fix>
</trkpt>
<trkpt lat="33.8107917" lon="-118.3936793">
  <ele>-25.069</ele>
  <time>2026-09-02T22:11:33Z</time>
  <course>45.47</course>
  <speed>0.3238826948140329</speed>
  <fix>3d</fix>
</trkpt>
<trkpt lat="33.8107925" lon="-118.3936794">
  <ele>-24.46</ele>
  <time>2026-09-02T22:11:33Z</time>
  <course>189.7</course>
  <speed>0.13</speed>
  <fix>3d</fix>
</trkpt>
<trkpt lat="33.8107915" lon="-118.3936794">
  <ele>-25.071</ele>
  <time>2026-09-02T22:11:33Z</time>
  <course>50.07</course>
  <speed>0.396232255123179</speed>
  <fix>3d</fix>
</trkpt>
<trkpt lat="33.8107921" lon="-118.3936795">
  <ele>-24.46</ele>
  <time>2026-09-02T22:11:33Z</time>
  <course>192.26</course>
  <speed>0.25</speed>
  <fix>3d</fix>
</trkpt>
<trkpt lat="33.8107911" lon="-118.3936795">
  <ele>-25.074</ele>
  <time>2026-09-02T22:11:33Z</time>
  <course>54.84</course>
  <speed>0.4687216658103186</speed>
  <fix>3d</fix>
</trkpt>
<trkpt lat="33.8107921" lon="-118.3936795">
  <ele>-24.46</ele>
  <time>2026-09-02T22:11:33Z</time>
  <course>192.26</course>
  <speed>0.25</speed>
  <fix>3d</fix>
</trkpt>
<trkpt lat="33.8107907" lon="-118.3936796">
  <ele>-25.077</ele>
  <time>2026-09-02T22:11:33Z</time>
  <course>59.78</course>
  <speed>0.5412947441089743</speed>
  <fix>3d</fix>
</trkpt>
<trkpt lat="33.8107916" lon="-118.3936795">
  <ele>-24.47</ele>
  <time>2026-09-02T22:11:33Z</time>
  <course>193.24</course>
  <speed>0.39</speed>
  <fix>3d</fix>
</trkpt>
<trkpt lat="33.8107902" lon="-118.3936798">
  <ele>-25.08</ele>
  <time>2026-09-02T22:11:33Z</time>
  <course>64.9</course>
  <speed>0.6041522986797286</speed>
  <fix>3d</fix>
</trkpt>
<trkpt lat="33.8107916" lon="-118.3936795">
  <ele>-24.47</ele>
  <time>2026-09-02T22:11:33Z</time>
  <course>193.24</course>
  <speed>0.39</speed>
  <fix>3d</fix>
</trkpt>
<trkpt lat="33.8107897" lon="-118.3936799">
  <ele>-25.081</ele>
  <time>2026-09-02T22:11:33Z</time>
  <course>70.19</course>
  <speed>0.6573431371817918</speed>
  <fix>3d</fix>
</trkpt>
<trkpt lat="33.8107908" lon="-118.3936798">
  <ele>-24.47</ele>
  <time>2026-09-02T22:11:33Z</time>
  <course>194.22</course>
  <speed>0.53</speed>
  <fix>3d</fix>
</trkpt>
<trkpt lat="33.8107891" lon="-118.3936801">
  <ele>-25.08</ele>
  <time>2026-09-02T22:11:33Z</time>
  <course>75.72</course>
  <speed>0.7106335201775947</speed>
  <fix>3d</fix>
</trkpt>
<trkpt lat="33.8107908" lon="-118.3936798">
  <ele>-24.47</ele>
  <time>2026-09-02T22:11:33Z</time>
  <course>194.22</course>
  <speed>0.53</speed>
  <fix>3d</fix>
</trkpt>
<trkpt lat="33.8107885" lon="-118.3936803">
  <ele>-25.08</ele>
  <time>2026-09-02T22:11:33Z</time>
  <course>81.49</course>
  <speed>0.7421590126111789</speed>
  <fix>3d</fix>
</trkpt>
<trkpt lat="33.8107897" lon="-118.3936801">
  <ele>-24.47</ele>
  <time>2026-09-02T22:11:33Z</time>
  <course>195.31</course>
  <speed>0.65</speed>
  <fix>3d</fix>
</trkpt>
<trkpt lat="33.8107879" lon="-118.3936805">
  <ele>-25.078</ele>
  <time>2026-09-02T22:11:33Z</time>
  <course>87.55</course>
  <speed>0.773692445355388</speed>
  <fix>3d</fix>
</trkpt>
<trkpt lat="33.8107897" lon="-118.3936801">
  <ele>-24.47</ele>
  <time>2026-09-02T22:11:33Z</time>
  <course>195.31</course>
  <speed>0.65</speed>
  <fix>3d</fix>
</trkpt>
<trkpt lat="33.8107872" lon="-118.3936808">
  <ele>-25.076</ele>
  <time>2026-09-02T22:11:33Z</time>
  <course>93.91</course>
  <speed>0.7833900688673555</speed>
  <fix>3d</fix>
</trkpt>
<trkpt lat="33.8107885" lon="-118.3936805">
  <ele>-24.47</ele>
  <time>2026-09-02T22:11:33Z</time>
  <course>196.03</course>
  <speed>0.73</speed>
  <fix>3d</fix>
</trkpt>
<trkpt lat="33.8107866" lon="-118.393681">
  <ele>-25.075</ele>
  <time>2026-09-02T22:11:33Z</time>
  <course>100.51</course>
  <speed>0.8004998438475801</speed>
  <fix>3d</fix>
</trkpt>
<trkpt lat="33.8107885" lon="-118.3936805">
  <ele>-24.47</ele>
  <time>2026-09-02T22:11:33Z</time>
  <course>196.03</course>
  <speed>0.73</speed>
  <fix>3d</fix>
</trkpt>
<trkpt lat="33.8107859" lon="-118.3936812">
  <ele>-25.075</ele>
  <time>2026-09-02T22:11:33Z</time>
  <course>107.24</course>
  <speed>0.8178630692236935</speed>
  <fix>3d</fix>
</trkpt>
<trkpt lat="33.8107872" lon="-118.3936809">
  <ele>-24.47</ele>
  <time>2026-09-02T22:11:33Z</time>
  <course>195.61</course>
  <speed>0.77</speed>
  <fix>3d</fix>
</trkpt>
<trkpt lat="33.8107852" lon="-118.3936813">
  <ele>-25.076</ele>
  <time>2026-09-02T22:11:33Z</time>
  <course>114.01</course>
  <speed>0.8434453153583817</speed>
  <fix>3d</fix>
</trkpt>
<trkpt lat="33.8107872" lon="-118.3936809">
  <ele>-24.47</ele>
  <time>2026-09-02T22:11:33Z</time>
  <course>195.61</course>
  <speed>0.77</speed>
  <fix>3d</fix>
</trkpt>
<trkpt lat="33.8107845" lon="-118.3936815">
  <ele>-25.077</ele>
  <time>2026-09-02T22:11:33Z</time>
  <course>120.75</course>
  <speed>0.8614522621712709</speed>
  <fix>3d</fix>
</trkpt>
<trkpt lat="33.8107859" lon="-118.3936814">
  <ele>-24.47</ele>
  <time>2026-09-02T22:11:33Z</time>
  <course>193.6</course>
  <speed>0.81</speed>
  <fix>3d</fix>
</trkpt>
<trkpt lat="33.8107837" lon="-118.3936817">
  <ele>-25.078</ele>
  <time>2026-09-02T22:11:33Z</time>
  <course>127.41</course>
  <speed>0.8796590248499698</speed>
  <fix>3d</fix>
</trkpt>
<trkpt lat="33.8107859" lon="-118.3936814">
  <ele>-24.47</ele>
  <time>2026-09-02T22:11:33Z</time>
  <course>193.6</course>
  <speed>0.81</speed>
  <fix>3d</fix>
</trkpt>
<trkpt lat="33.810783" lon="-118.3936819">
  <ele>-25.08</ele>
  <time>2026-09-02T22:11:33Z</time>
  <course>133.91</course>
  <speed>0.9009439494219383</speed>
  <fix>3d</fix>
</trkpt>
<trkpt lat="33.8107844" lon="-118.3936818">
  <ele>-24.47</ele>
  <time>2026-09-02T22:11:33Z</time>
  <course>191.63</course>
  <speed>0.84</speed>
  <fix>3d</fix>
</trkpt>
<trkpt lat="33.8107822" lon="-118.393682">
  <ele>-25.083</ele>
  <time>2026-09-02T22:11:33Z</time>
  <course>140.23</course>
  <speed>0.9222797840135064</speed>
  <fix>3d</fix>
</trkpt>
<trkpt lat="33.8107844" lon="-118.3936818">
  <ele>-24.47</ele>
  <time>2026-09-02T22:11:33Z</time>
  <course>191.63</course>
  <speed>0.84</speed>
  <fix>3d</fix>
</trkpt>
<trkpt lat="33.8107814" lon="-118.3936822">
  <ele>-25.084</ele>
  <time>2026-09-02T22:11:33Z</time>
  <course>146.43</course>
  <speed>0.9355746896961247</speed>
  <fix>3d</fix>
</trkpt>
<trkpt lat="33.8107829" lon="-118.3936822">
  <ele>-24.48</ele>
  <time>2026-09-02T22:11:33Z</time>
  <course>191.64</course>
  <speed>0.88</speed>
  <fix>3d</fix>
</trkpt>
<trkpt lat="33.8107806" lon="-118.3936825">
  <ele>-25.085</ele>
  <time>2026-09-02T22:11:33Z</time>
  <course>152.47</course>
  <speed>0.9492101980067429</speed>
  <fix>3d</fix>
</trkpt>
<trkpt lat="33.8107829" lon="-118.3936822">
  <ele>-24.48</ele>
  <time>2026-09-02T22:11:33Z</time>
  <course>191.64</course>
  <speed>0.88</speed>
  <fix>3d</fix>
</trkpt>
<trkpt lat="33.8107798" lon="-118.3936827">
  <ele>-25.084</ele>
  <time>2026-09-02T22:11:33Z</time>
  <course>158.44</course>
  <speed>0.9534149149242422</speed>
  <fix>3d</fix>
</trkpt>
<trkpt lat="33.8107813" lon="-118.3936826">
  <ele>-24.47</ele>
  <time>2026-09-02T22:11:33Z</time>
  <course>193.28</course>
  <speed>0.91</speed>
  <fix>3d</fix>
</trkpt>
<trkpt lat="33.810779" lon="-118.393683">
  <ele>-25.082</ele>
  <time>2026-09-02T22:11:33Z</time>
  <course>164.4</course>
  <speed>0.9459386872308374</speed>
  <fix>3d</fix>
</trkpt>
<trkpt lat="33.8107813" lon="-118.3936826">
  <ele>-24.47</ele>
  <time>2026-09-02T22:11:33Z</time>
  <course>193.28</course>
  <speed>0.91</speed>
  <fix>3d</fix>
</trkpt>
<trkpt lat="33.8107782" lon="-118.3936832">
  <ele>-25.08</ele>
  <time>2026-09-02T22:11:33Z</time>
  <course>170.13</course>
  <speed>0.9289241088485108</speed>
  <fix>3d</fix>
</trkpt>
<trkpt lat="33.8107797" lon="-118.3936831">
  <ele>-24.47</ele>
  <time>2026-09-02T22:11:33Z</time>
  <course>195.27</course>
  <speed>0.92</speed>
  <fix>3d</fix>
</trkpt>
<trkpt lat="33.8107774" lon="-118.3936835">
  <ele>-25.077</ele>
  <time>2026-09-02T22:11:33Z</time>
  <course>175.48</course>
  <speed>0.9024965373894794</speed>
  <fix>3d</fix>
</trkpt>
<trkpt lat="33.8107797" lon="-118.3936831">
  <ele>-24.47</ele>
  <time>2026-09-02T22:11:33Z</time>
  <course>195.27</course>
  <speed>0.92</speed>
  <fix>3d</fix>
</trkpt>
<trkpt lat="33.8107767" lon="-118.3936838">
  <ele>-25.076</ele>
  <time>2026-09-02T22:11:33Z</time>
  <course>180.34</course>
  <speed>0.8902246907382428</speed>
  <fix>3d</fix>
</trkpt>
<trkpt lat="33.8107781" lon="-118.3936836">
  <ele>-24.47</ele>
  <time>2026-09-02T22:11:33Z</time>
  <course>197.13</course>
  <speed>0.89</speed>
  <fix>3d</fix>
</trkpt>
<trkpt lat="33.810776" lon="-118.3936841">
  <ele>-25.075</ele>
  <time>2026-09-02T22:11:33Z</time>
  <course>184.64</course>
  <speed>0.8683317338436964</speed>
  <fix>3d</fix>
</trkpt>
<trkpt lat="33.8107781" lon="-118.3936836">
  <ele>-24.47</ele>
  <time>2026-09-02T22:11:33Z</time>
  <course>197.13</course>
  <speed>0.89</speed>
  <fix>3d</fix>
</trkpt>
<trkpt lat="33.8107752" lon="-118.3936844">
  <ele>-25.075</ele>
  <time>2026-09-02T22:11:33Z</time>
  <course>188.3</course>
  <speed>0.8658521813797087</speed>
  <fix>3d</fix>
</trkpt>
<trkpt lat="33.8107766" lon="-118.3936842">
  <ele>-24.46</ele>
  <time>2026-09-02T22:11:33Z</time>
  <course>197.81</course>
  <speed>0.85</speed>
  <fix>3d</fix>
</trkpt>
<trkpt lat="33.8107745" lon="-118.3936846">
  <ele>-25.076</ele>
  <time>2026-09-02T22:11:33Z</time>
  <course>191.19</course>
  <speed>0.8612200647918046</speed>
  <fix>3d</fix>
</trkpt>
<trkpt lat="33.8107766" lon="-118.3936842">
  <ele>-24.46</ele>
  <time>2026-09-02T22:11:33Z</time>
  <course>197.81</course>
  <speed>0.85</speed>
  <fix>3d</fix>
</trkpt>
<trkpt lat="33.8107738" lon="-118.3936848">
  <ele>-25.076</ele>
  <time>2026-09-02T22:11:33Z</time>
  <course>193.11</course>
  <speed>0.8590692637965812</speed>
  <fix>3d</fix>
</trkpt>
<trkpt lat="33.8107751" lon="-118.3936847">
  <ele>-24.46</ele>
  <time>2026-09-02T22:11:33Z</time>
  <course>196.54</course>
  <speed>0.83</speed>
  <fix>3d</fix>
</trkpt>
<trkpt lat="33.810773" lon="-118.393685">
  <ele>-25.077</ele>
  <time>2026-09-02T22:11:33Z</time>
  <course>194.19</course>
  <speed>0.8668333173107734</speed>
  <fix>3d</fix>
</trkpt>
<trkpt lat="33.8107751" lon="-118.3936847">
  <ele>-24.46</ele>
  <time>2026-09-02T22:11:33Z</time>
  <course>196.54</course>
  <speed>0.83</speed>
  <fix>3d</fix>
</trkpt>
<trkpt lat="33.8107723" lon="-118.3936853">
  <ele>-25.078</ele>
  <time>2026-09-02T22:11:33Z</time>
  <course>194.71</course>
  <speed>0.8668333173107734</speed>
  <fix>3d</fix>
</trkpt>
<trkpt lat="33.8107738" lon="-118.3936852">
  <ele>-24.46</ele>
  <time>2026-09-02T22:11:33Z</time>
  <course>194.72</course>
  <speed>0.82</speed>
  <fix>3d</fix>
</trkpt>
<trkpt lat="33.8107716" lon="-118.3936855">
  <ele>-25.078</ele>
  <time>2026-09-02T22:11:33Z</time>
  <course>194.94</course>
  <speed>0.8649277426467485</speed>
  <fix>3d</fix>
</trkpt>
<trkpt lat="33.8107738" lon="-118.3936852">
  <ele>-24.46</ele>
  <time>2026-09-02T22:11:33Z</time>
  <course>194.72</course>
  <speed>0.82</speed>
  <fix>3d</fix>
</trkpt>
<trkpt lat="33.8107709" lon="-118.3936857">
  <ele>-25.077</ele>
  <time>2026-09-02T22:11:33Z</time>
  <course>195.06</course>
  <speed>0.8649277426467485</speed>
  <fix>3d</fix>
</trkpt>
<trkpt lat="33.8107723" lon="-118.3936857">
  <ele>-24.47</ele>
  <time>2026-09-02T22:11:33Z</time>
  <course>193.53</course>
  <speed>0.81</speed>
  <fix>3d</fix>
</trkpt>
<trkpt lat="33.8107701" lon="-118.3936859">
  <ele>-25.077</ele>
  <time>2026-09-02T22:11:33Z</time>
  <course>195.16</course>
  <speed>0.8747571091451616</speed>
  <fix>3d</fix>
</trkpt>
<trkpt lat="33.8107723" lon="-118.3936857">
  <ele>-24.47</ele>
  <time>2026-09-02T22:11:33Z</time>
  <course>193.53</course>
  <speed>0.81</speed>
  <fix>3d</fix>
</trkpt>
<trkpt lat="33.8107694" lon="-118.3936861">
  <ele>-25.077</ele>
  <time>2026-09-02T22:11:33Z</time>
  <course>195.25</course>
  <speed>0.8747571091451616</speed>
  <fix>3d</fix>
</trkpt>
<trkpt lat="33.8107708" lon="-118.3936861">
  <ele>-24.47</ele>
  <time>2026-09-02T22:11:33Z</time>
  <course>193.02</course>
  <speed>0.82</speed>
  <fix>3d</fix>
</trkpt>
<trkpt lat="33.8107687" lon="-118.3936863">
  <ele>-25.077</ele>
  <time>2026-09-02T22:11:33Z</time>
  <course>195.35</course>
  <speed>0.8649277426467485</speed>
  <fix>3d</fix>
</trkpt>
<trkpt lat="33.8107708" lon="-118.3936861">
  <ele>-24.47</ele>
  <time>2026-09-02T22:11:33Z</time>
  <course>193.02</course>
  <speed>0.82</speed>
  <fix>3d</fix>
</trkpt>
<trkpt lat="33.8107679" lon="-118.3936865">
  <ele>-25.077</ele>
  <time>2026-09-02T22:11:33Z</time>
  <course>195.43</course>
  <speed>0.8649277426467485</speed>
  <fix>3d</fix>
</trkpt>
<trkpt lat="33.8107695" lon="-118.3936865">
  <ele>-24.47</ele>
  <time>2026-09-02T22:11:33Z</time>
  <course>192.83</course>
  <speed>0.81</speed>
  <fix>3d</fix>
</trkpt>
<trkpt lat="33.8107672" lon="-118.3936867">
  <ele>-25.078</ele>
  <time>2026-09-02T22:11:33Z</time>
  <course>195.52</course>
  <speed>0.8649277426467485</speed>
  <fix>3d</fix>
</trkpt>
<trkpt lat="33.8107695" lon="-118.3936865">
  <ele>-24.47</ele>
  <time>2026-09-02T22:11:33Z</time>
  <course>192.83</course>
  <speed>0.81</speed>
  <fix>3d</fix>
</trkpt>
<trkpt lat="33.8107665" lon="-118.3936869">
  <ele>-25.079</ele>
  <time>2026-09-02T22:11:33Z</time>
  <course>195.58</course>
  <speed>0.8668333173107734</speed>
  <fix>3d</fix>
</trkpt>
<trkpt lat="33.810768" lon="-118.3936869">
  <ele>-24.47</ele>
  <time>2026-09-02T22:11:33Z</time>
  <course>192.75</course>
  <speed>0.81</speed>
  <fix>3d</fix>
</trkpt>
<trkpt lat="33.8107658" lon="-118.3936871">
  <ele>-25.079</ele>
  <time>2026-09-02T22:11:33Z</time>
  <course>195.64</course>
  <speed>0.8668333173107734</speed>
  <fix>3d</fix>
</trkpt>
<trkpt lat="33.810768" lon="-118.3936869">
  <ele>-24.47</ele>
  <time>2026-09-02T22:11:33Z</time>
  <course>192.75</course>
  <speed>0.81</speed>
  <fix>3d</fix>
</trkpt>
<trkpt lat="33.810765" lon="-118.3936873">
  <ele>-25.078</ele>
  <time>2026-09-02T22:11:33Z</time>
  <course>195.69</course>
  <speed>0.8668333173107734</speed>
  <fix>3d</fix>
</trkpt>
<trkpt lat="33.8107666" lon="-118.3936872">
  <ele>-24.47</ele>
  <time>2026-09-02T22:11:33Z</time>
  <course>192.69</course>
  <speed>0.81</speed>
  <fix>3d</fix>
</trkpt>
<trkpt lat="33.8107643" lon="-118.3936875">
  <ele>-25.078</ele>
  <time>2026-09-02T22:11:33Z</time>
  <course>195.74</course>
  <speed>0.8668333173107734</speed>
  <fix>3d</fix>
</trkpt>
<trkpt lat="33.8107666" lon="-118.3936872">
  <ele>-24.47</ele>
  <time>2026-09-02T22:11:33Z</time>
  <course>192.69</course>
  <speed>0.81</speed>
  <fix>3d</fix>
</trkpt>
<trkpt lat="33.8107636" lon="-118.3936877">
  <ele>-25.078</ele>
  <time>2026-09-02T22:11:33Z</time>
  <course>195.8</course>
  <speed>0.8668333173107734</speed>
  <fix>3d</fix>
</trkpt>
<trkpt lat="33.8107652" lon="-118.3936876">
  <ele>-24.47</ele>
  <time>2026-09-02T22:11:33Z</time>
  <course>192.68</course>
  <speed>0.81</speed>
  <fix>3d</fix>
</trkpt>
<trkpt lat="33.8107629" lon="-118.3936879">
  <ele>-25.078</ele>
  <time>2026-09-02T22:11:33Z</time>
  <course>195.87</course>
  <speed>0.8668333173107734</speed>
  <fix>3d</fix>
</trkpt>
<trkpt lat="33.8107652" lon="-118.3936876">
  <ele>-24.47</ele>
  <time>2026-09-02T22:11:33Z</time>
  <course>192.68</course>
  <speed>0.81</speed>
  <fix>3d</fix>
</trkpt>
<trkpt lat="33.8107622" lon="-118.3936881">
  <ele>-25.077</ele>
  <time>2026-09-02T22:11:33Z</time>
  <course>195.94</course>
  <speed>0.8570297544426332</speed>
  <fix>3d</fix>
</trkpt>
<trkpt lat="33.8107637" lon="-118.393688">
  <ele>-24.47</ele>
  <time>2026-09-02T22:11:33Z</time>
  <course>192.72</course>
  <speed>0.81</speed>
  <fix>3d</fix>
</trkpt>
<trkpt lat="33.8107615" lon="-118.3936883">
  <ele>-25.076</ele>
  <time>2026-09-02T22:11:33Z</time>
  <course>196.0</course>
  <speed>0.8570297544426332</speed>
  <fix>3d</fix>
</trkpt>
<trkpt lat="33.8107637" lon="-118.393688">
  <ele>-24.47</ele>
  <time>2026-09-02T22:11:33Z</time>
  <course>192.72</course>
  <speed>0.81</speed>
  <fix>3d</fix>
</trkpt>
<trkpt lat="33.8107608" lon="-118.3936885">
  <ele>-25.076</ele>
  <time>2026-09-02T22:11:33Z</time>
  <course>196.06</course>
  <speed>0.8590692637965812</speed>
  <fix>3d</fix>
</trkpt>
<trkpt lat="33.8107623" lon="-118.3936884">
  <ele>-24.47</ele>
  <time>2026-09-02T22:11:33Z</time>
  <course>192.74</course>
  <speed>0.81</speed>
  <fix>3d</fix>
</trkpt>
<trkpt lat="33.8107601" lon="-118.3936888">
  <ele>-25.077</ele>
  <time>2026-09-02T22:11:33Z</time>
  <course>196.11</course>
  <speed>0.8590692637965812</speed>
  <fix>3d</fix>
</trkpt>
<trkpt lat="33.8107623" lon="-118.3936884">
  <ele>-24.47</ele>
  <time>2026-09-02T22:11:33Z</time>
  <course>192.74</course>
  <speed>0.81</speed>
  <fix>3d</fix>
</trkpt>
<trkpt lat="33.8107594" lon="-118.393689">
  <ele>-25.076</ele>
  <time>2026-09-02T22:11:33Z</time>
  <course>196.16</course>
  <speed>0.8590692637965812</speed>
  <fix>3d</fix>
</trkpt>
<trkpt lat="33.8107609" lon="-118.3936888">
  <ele>-24.47</ele>
  <time>2026-09-02T22:11:33Z</time>
  <course>192.74</course>
  <speed>0.8</speed>
  <fix>3d</fix>
</trkpt>
<trkpt lat="33.8107587" lon="-118.3936892">
  <ele>-25.076</ele>
  <time>2026-09-02T22:11:33Z</time>
  <course>196.2</course>
  <speed>0.8590692637965812</speed>
  <fix>3d</fix>
</trkpt>
<trkpt lat="33.8107609" lon="-118.3936888">
  <ele>-24.47</ele>
  <time>2026-09-02T22:11:33Z</time>
  <course>192.74</course>
  <speed>0.8</speed>
  <fix>3d</fix>
</trkpt>
<trkpt lat="33.810758" lon="-118.3936894">
  <ele>-25.076</ele>
  <time>2026-09-02T22:11:33Z</time>
  <course>196.24</course>
  <speed>0.8492938243034621</speed>
  <fix>3d</fix>
</trkpt>
<trkpt lat="33.8107594" lon="-118.3936892">
  <ele>-24.47</ele>
  <time>2026-09-02T22:11:33Z</time>
  <course>192.7</course>
  <speed>0.8</speed>
  <fix>3d</fix>
</trkpt>
<trkpt lat="33.8107573" lon="-118.3936896">
  <ele>-25.076</ele>
  <time>2026-09-02T22:11:33Z</time>
  <course>196.27</course>
  <speed>0.8492938243034621</speed>
  <fix>3d</fix>
</trkpt>
<trkpt lat="33.8107594" lon="-118.3936892">
  <ele>-24.47</ele>
  <time>2026-09-02T22:11:33Z</time>
  <course>192.7</course>
  <speed>0.8</speed>
  <fix>3d</fix>
</trkpt>
<trkpt lat="33.8107566" lon="-118.3936898">
  <ele>-25.077</ele>
  <time>2026-09-02T22:11:33Z</time>
  <course>196.3</course>
  <speed>0.8492938243034621</speed>
  <fix>3d</fix>
</trkpt>
<trkpt lat="33.8107581" lon="-118.3936895">
  <ele>-24.47</ele>
  <time>2026-09-02T22:11:33Z</time>
  <course>192.67</course>
  <speed>0.8</speed>
  <fix>3d</fix>
</trkpt>
<trkpt lat="33.8107559" lon="-118.39369">
  <ele>-25.078</ele>
  <time>2026-09-02T22:11:33Z</time>
  <course>196.34</course>
  <speed>0.8492938243034621</speed>
  <fix>3d</fix>
</trkpt>
<trkpt lat="33.8107581" lon="-118.3936895">
  <ele>-24.47</ele>
  <time>2026-09-02T22:11:33Z</time>
  <course>192.67</course>
  <speed>0.8</speed>
  <fix>3d</fix>
</trkpt>
<trkpt lat="33.8107552" lon="-118.3936902">
  <ele>-25.078</ele>
  <time>2026-09-02T22:11:33Z</time>
  <course>196.39</course>
  <speed>0.8492938243034621</speed>
  <fix>3d</fix>
</trkpt>
<trkpt lat="33.8107567" lon="-118.3936899">
  <ele>-24.47</ele>
  <time>2026-09-02T22:11:33Z</time>
  <course>192.66</course>
  <speed>0.8</speed>
  <fix>3d</fix>
</trkpt>
<trkpt lat="33.8107545" lon="-118.3936904">
  <ele>-25.077</ele>
  <time>2026-09-02T22:11:33Z</time>
  <course>196.44</course>
  <speed>0.8492938243034621</speed>
  <fix>3d</fix>
</trkpt>
<trkpt lat="33.8107567" lon="-118.3936899">
  <ele>-24.47</ele>
  <time>2026-09-02T22:11:33Z</time>
  <course>192.66</course>
  <speed>0.8</speed>
  <fix>3d</fix>
</trkpt>
<trkpt lat="33.8107538" lon="-118.3936906">
  <ele>-25.076</ele>
  <time>2026-09-02T22:11:33Z</time>
  <course>196.5</course>
  <speed>0.8395236744726142</speed>
  <fix>3d</fix>
</trkpt>
<trkpt lat="33.8107552" lon="-118.3936903">
  <ele>-24.47</ele>
  <time>2026-09-02T22:11:33Z</time>
  <course>192.68</course>
  <speed>0.8</speed>
  <fix>3d</fix>
</trkpt>
<trkpt lat="33.8107531" lon="-118.3936908">
  <ele>-25.076</ele>
  <time>2026-09-02T22:11:33Z</time>
  <course>196.56</course>
  <speed>0.8417244204607586</speed>
  <fix>3d</fix>
</trkpt>
<trkpt lat="33.8107552" lon="-118.3936903">
  <ele>-24.47</ele>
  <time>2026-09-02T22:11:33Z</time>
  <course>192.68</course>
  <speed>0.8</speed>
  <fix>3d</fix>
</trkpt>
<trkpt lat="33.8107524" lon="-118.393691">
  <ele>-25.075</ele>
  <time>2026-09-02T22:11:33Z</time>
  <course>196.61</course>
  <speed>0.8417244204607586</speed>
  <fix>3d</fix>
</trkpt>
<trkpt lat="33.8107538" lon="-118.3936907">
  <ele>-24.47</ele>
  <time>2026-09-02T22:11:33Z</time>
  <course>192.71</course>
  <speed>0.8</speed>
  <fix>3d</fix>
</trkpt>
<trkpt lat="33.8107517" lon="-118.3936912">
  <ele>-25.075</ele>
  <time>2026-09-02T22:11:33Z</time>
  <course>196.67</course>
  <speed>0.8417244204607586</speed>
  <fix>3d</fix>
</trkpt>
<trkpt lat="33.8107538" lon="-118.3936907">
  <ele>-24.47</ele>
  <time>2026-09-02T22:11:33Z</time>
  <course>192.71</course>
  <speed>0.8</speed>
  <fix>3d</fix>
</trkpt>
<trkpt lat="33.810751" lon="-118.3936914">
  <ele>-25.076</ele>
  <time>2026-09-02T22:11:33Z</time>
  <course>196.72</course>
  <speed>0.8417244204607586</speed>
  <fix>3d</fix>
</trkpt>
<trkpt lat="33.8107524" lon="-118.3936911">
  <ele>-24.47</ele>
  <time>2026-09-02T22:11:33Z</time>
  <course>192.72</course>
  <speed>0.81</speed>
  <fix>3d</fix>
</trkpt>
<trkpt lat="33.8107503" lon="-118.3936916">
  <ele>-25.077</ele>
  <time>2026-09-02T22:11:33Z</time>
  <course>196.77</course>
  <speed>0.8417244204607586</speed>
  <fix>3d</fix>
</trkpt>
<trkpt lat="33.8107524" lon="-118.3936911">
  <ele>-24.47</ele>
  <time>2026-09-02T22:11:33Z</time>
  <course>192.72</course>
  <speed>0.81</speed>
  <fix>3d</fix>
</trkpt>
<trkpt lat="33.8107496" lon="-118.3936918">
  <ele>-25.078</ele>
  <time>2026-09-02T22:11:33Z</time>
  <course>196.81</course>
  <speed>0.8319855767980596</speed>
  <fix>3d</fix>
</trkpt>
<trkpt lat="33.8107509" lon="-118.3936915">
  <ele>-24.47</ele>
  <time>2026-09-02T22:11:33Z</time>
  <course>192.72</course>
  <speed>0.81</speed>
  <fix>3d</fix>
</trkpt>
<trkpt lat="33.8107489" lon="-118.393692">
  <ele>-25.077</ele>
  <time>2026-09-02T22:11:33Z</time>
  <course>196.86</course>
  <speed>0.8319855767980596</speed>
  <fix>3d</fix>
</trkpt>
<trkpt lat="33.8107509" lon="-118.3936915">
  <ele>-24.47</ele>
  <time>2026-09-02T22:11:33Z</time>
  <course>192.72</course>
  <speed>0.81</speed>
  <fix>3d</fix>
</trkpt>
<trkpt lat="33.8107482" lon="-118.3936922">
  <ele>-25.078</ele>
  <time>2026-09-02T22:11:33Z</time>
  <course>196.9</course>
  <speed>0.8319855767980596</speed>
  <fix>3d</fix>
</trkpt>
<trkpt lat="33.8107495" lon="-118.3936919">
  <ele>-24.47</ele>
  <time>2026-09-02T22:11:33Z</time>
  <course>192.71</course>
  <speed>0.81</speed>
  <fix>3d</fix>
</trkpt>
<trkpt lat="33.8107475" lon="-118.3936924">
  <ele>-25.078</ele>
  <time>2026-09-02T22:11:33Z</time>
  <course>196.94</course>
  <speed>0.8319855767980596</speed>
  <fix>3d</fix>
</trkpt>
<trkpt lat="33.8107495" lon="-118.3936919">
  <ele>-24.47</ele>
  <time>2026-09-02T22:11:33Z</time>
  <course>192.71</course>
  <speed>0.81</speed>
  <fix>3d</fix>
</trkpt>
<trkpt lat="33.8107468" lon="-118.3936926">
  <ele>-25.078</ele>
  <time>2026-09-02T22:11:33Z</time>
  <course>196.98</course>
  <speed>0.8319855767980596</speed>
  <fix>3d</fix>
</trkpt>
<trkpt lat="33.8107481" lon="-118.3936923">
  <ele>-24.47</ele>
  <time>2026-09-02T22:11:33Z</time>
  <course>192.7</course>
  <speed>0.81</speed>
  <fix>3d</fix>
</trkpt>
<trkpt lat="33.8107461" lon="-118.3936928">
  <ele>-25.077</ele>
  <time>2026-09-02T22:11:33Z</time>
  <course>197.02</course>
  <speed>0.8319855767980596</speed>
  <fix>3d</fix>
</trkpt>
<trkpt lat="33.8107481" lon="-118.3936923">
  <ele>-24.47</ele>
  <time>2026-09-02T22:11:33Z</time>
  <course>192.7</course>
  <speed>0.81</speed>
  <fix>3d</fix>
</trkpt>
<trkpt lat="33.8107454" lon="-118.393693">
  <ele>-25.076</ele>
  <time>2026-09-02T22:11:33Z</time>
  <course>197.06</course>
  <speed>0.8319855767980596</speed>
  <fix>3d</fix>
</trkpt>
<trkpt lat="33.8107466" lon="-118.3936926">
  <ele>-24.47</ele>
  <time>2026-09-02T22:11:33Z</time>
  <course>192.68</course>
  <speed>0.81</speed>
  <fix>3d</fix>
</trkpt>
<trkpt lat="33.8107447" lon="-118.3936932">
  <ele>-25.074</ele>
  <time>2026-09-02T22:11:33Z</time>
  <course>197.1</course>
  <speed>0.8246211251235321</speed>
  <fix>3d</fix>
</trkpt>
<trkpt lat="33.8107466" lon="-118.3936926">
  <ele>-24.47</ele>
  <time>2026-09-02T22:11:33Z</time>
  <course>192.68</course>
  <speed>0.81</speed>
  <fix>3d</fix>
</trkpt>
<trkpt lat="33.810744" lon="-118.3936934">
  <ele>-25.074</ele>
  <time>2026-09-02T22:11:33Z</time>
  <course>197.17</course>
  <speed>0.8246211251235321</speed>
  <fix>3d</fix>
</trkpt>
<trkpt lat="33.8107453" lon="-118.393693">
  <ele>-24.47</ele>
  <time>2026-09-02T22:11:33Z</time>
  <course>192.71</course>
  <speed>0.81</speed>
  <fix>3d</fix>
</trkpt>
<trkpt lat="33.8107433" lon="-118.3936936">
  <ele>-25.075</ele>
  <time>2026-09-02T22:11:33Z</time>
  <course>197.24</course>
  <speed>0.8246211251235321</speed>
  <fix>3d</fix>
</trkpt>
<trkpt lat="33.8107453" lon="-118.393693">
  <ele>-24.47</ele>
  <time>2026-09-02T22:11:33Z</time>
  <course>192.71</course>
  <speed>0.81</speed>
  <fix>3d</fix>
</trkpt>
<trkpt lat="33.8107426" lon="-118.3936938">
  <ele>-25.077</ele>
  <time>2026-09-02T22:11:34Z</time>
  <course>197.32</course>
  <speed>0.8246211251235321</speed>
  <fix>3d</fix>
</trkpt>
<trkpt lat="33.8107439" lon="-118.3936934">
  <ele>-24.47</ele>
  <time>2026-09-02T22:11:34Z</time>
  <course>192.81</course>
  <speed>0.81</speed>
  <fix>3d</fix>
</trkpt>
<trkpt lat="33.8107419" lon="-118.393694">
  <ele>-25.079</ele>
  <time>2026-09-02T22:11:34Z</time>
  <course>197.39</course>
  <speed>0.8246211251235321</speed>
  <fix>3d</fix>
</trkpt>
<trkpt lat="33.8107439" lon="-118.3936934">
  <ele>-24.47</ele>
  <time>2026-09-02T22:11:34Z</time>
  <course>192.81</course>
  <speed>0.81</speed>
  <fix>3d</fix>
</trkpt>
<trkpt lat="33.8107412" lon="-118.3936942">
  <ele>-25.079</ele>
  <time>2026-09-02T22:11:34Z</time>
  <course>197.45</course>
  <speed>0.8246211251235321</speed>
  <fix>3d</fix>
</trkpt>
<trkpt lat="33.8107424" lon="-118.3936938">
  <ele>-24.47</ele>
  <time>2026-09-02T22:11:34Z</time>
  <course>192.87</course>
  <speed>0.81</speed>
  <fix>3d</fix>
</trkpt>
<trkpt lat="33.8107405" lon="-118.3936944">
  <ele>-25.078</ele>
  <time>2026-09-02T22:11:34Z</time>
  <course>197.51</course>
  <speed>0.8246211251235321</speed>
  <fix>3d</fix>
</trkpt>
<trkpt lat="33.8107424" lon="-118.3936938">
  <ele>-24.47</ele>
  <time>2026-09-02T22:11:34Z</time>
  <course>192.87</course>
  <speed>0.81</speed>
  <fix>3d</fix>
</trkpt>
<trkpt lat="33.8107398" lon="-118.3936946">
  <ele>-25.078</ele>
  <time>2026-09-02T22:11:34Z</time>
  <course>197.57</course>
  <speed>0.8246211251235321</speed>
  <fix>3d</fix>
</trkpt>
<trkpt lat="33.810741" lon="-118.3936942">
  <ele>-24.47</ele>
  <time>2026-09-02T22:11:34Z</time>
  <course>192.92</course>
  <speed>0.81</speed>
  <fix>3d</fix>
</trkpt>
<trkpt lat="33.8107391" lon="-118.3936948">
  <ele>-25.077</ele>
  <time>2026-09-02T22:11:34Z</time>
  <course>197.62</course>
  <speed>0.8246211251235321</speed>
  <fix>3d</fix>
</trkpt>
<trkpt lat="33.810741" lon="-118.3936942">
  <ele>-24.47</ele>
  <time>2026-09-02T22:11:34Z</time>
  <course>192.92</course>
  <speed>0.81</speed>
  <fix>3d</fix>
</trkpt>
<trkpt lat="33.8107384" lon="-118.393695">
  <ele>-25.076</ele>
  <time>2026-09-02T22:11:34Z</time>
  <course>197.67</course>
  <speed>0.8271033792700887</speed>
  <fix>3d</fix>
</trkpt>
<trkpt lat="33.8107396" lon="-118.3936946">
  <ele>-24.47</ele>
  <time>2026-09-02T22:11:34Z</time>
  <course>192.97</course>
  <speed>0.82</speed>
  <fix>3d</fix>
</trkpt>
<trkpt lat="33.8107377" lon="-118.3936953">
  <ele>-25.076</ele>
  <time>2026-09-02T22:11:34Z</time>
  <course>197.72</course>
  <speed>0.8271033792700887</speed>
  <fix>3d</fix>
</trkpt>
<trkpt lat="33.8107396" lon="-118.3936946">
  <ele>-24.47</ele>
  <time>2026-09-02T22:11:34Z</time>
  <course>192.97</course>
  <speed>0.82</speed>
  <fix>3d</fix>
</trkpt>
<trkpt lat="33.810737" lon="-118.3936955">
  <ele>-25.077</ele>
  <time>2026-09-02T22:11:34Z</time>
  <course>197.76</course>
  <speed>0.8271033792700887</speed>
  <fix>3d</fix>
</trkpt>
<trkpt lat="33.8107381" lon="-118.393695">
  <ele>-24.47</ele>
  <time>2026-09-02T22:11:34Z</time>
  <course>193.0</course>
  <speed>0.82</speed>
  <fix>3d</fix>
</trkpt>
<trkpt lat="33.8107363" lon="-118.3936957">
  <ele>-25.076</ele>
  <time>2026-09-02T22:11:34Z</time>
  <course>197.81</course>
  <speed>0.8271033792700887</speed>
  <fix>3d</fix>
</trkpt>
<trkpt lat="33.8107381" lon="-118.393695">
  <ele>-24.47</ele>
  <time>2026-09-02T22:11:34Z</time>
  <course>193.0</course>
  <speed>0.82</speed>
  <fix>3d</fix>
</trkpt>
<trkpt lat="33.8107356" lon="-118.3936959">
  <ele>-25.075</ele>
  <time>2026-09-02T22:11:34Z</time>
  <course>197.85</course>
  <speed>0.8271033792700887</speed>
  <fix>3d</fix>
</trkpt>
<trkpt lat="33.8107367" lon="-118.3936954">
  <ele>-24.47</ele>
  <time>2026-09-02T22:11:34Z</time>
  <course>193.03</course>
  <speed>0.82</speed>
  <fix>3d</fix>
</trkpt>
<trkpt lat="33.8107349" lon="-118.3936961">
  <ele>-25.074</ele>
  <time>2026-09-02T22:11:34Z</time>
  <course>197.9</course>
  <speed>0.8271033792700887</speed>
  <fix>3d</fix>
</trkpt>
<trkpt lat="33.8107367" lon="-118.3936954">
  <ele>-24.47</ele>
  <time>2026-09-02T22:11:34Z</time>
  <course>193.03</course>
  <speed>0.82</speed>
  <fix>3d</fix>
</trkpt>
<trkpt lat="33.8107342" lon="-118.3936963">
  <ele>-25.074</ele>
  <time>2026-09-02T22:11:34Z</time>
  <course>197.94</course>
  <speed>0.8174350127074322</speed>
  <fix>3d</fix>
</trkpt>
<trkpt lat="33.8107352" lon="-118.3936958">
  <ele>-24.47</ele>
  <time>2026-09-02T22:11:34Z</time>
  <course>193.07</course>
  <speed>0.82</speed>
  <fix>3d</fix>
</trkpt>
<trkpt lat="33.8107334" lon="-118.3936965">
  <ele>-25.075</ele>
  <time>2026-09-02T22:11:34Z</time>
  <course>197.99</course>
  <speed>0.8174350127074322</speed>
  <fix>3d</fix>
</trkpt>
<trkpt lat="33.8107352" lon="-118.3936958">
  <ele>-24.47</ele>
  <time>2026-09-02T22:11:34Z</time>
  <course>193.07</course>
  <speed>0.82</speed>
  <fix>3d</fix>
</trkpt>
<trkpt lat="33.8107327" lon="-118.3936967">
  <ele>-25.076</ele>
  <time>2026-09-02T22:11:34Z</time>
  <course>198.03</course>
  <speed>0.8174350127074322</speed>
  <fix>3d</fix>
</trkpt>
<trkpt lat="33.8107337" lon="-118.3936962">
  <ele>-24.47</ele>
  <time>2026-09-02T22:11:34Z</time>
  <course>193.12</course>
  <speed>0.82</speed>
  <fix>3d</fix>
</trkpt>
<trkpt lat="33.810732" lon="-118.3936969">
  <ele>-25.078</ele>
  <time>2026-09-02T22:11:34Z</time>
  <course>198.08</course>
  <speed>0.8174350127074322</speed>
  <fix>3d</fix>
</trkpt>
<trkpt lat="33.8107337" lon="-118.3936962">
  <ele>-24.47</ele>
  <time>2026-09-02T22:11:34Z</time>
  <course>193.12</course>
  <speed>0.82</speed>
  <fix>3d</fix>
</trkpt>
<trkpt lat="33.8107313" lon="-118.3936971">
  <ele>-25.079</ele>
  <time>2026-09-02T22:11:34Z</time>
  <course>198.14</course>
  <speed>0.8174350127074322</speed>
  <fix>3d</fix>
</trkpt>
<trkpt lat="33.8107323" lon="-118.3936966">
  <ele>-24.47</ele>
  <time>2026-09-02T22:11:34Z</time>
  <course>193.2</course>
  <speed>0.83</speed>
  <fix>3d</fix>
</trkpt>
<trkpt lat="33.8107306" lon="-118.3936973">
  <ele>-25.079</ele>
  <time>2026-09-02T22:11:34Z</time>
  <course>198.19</course>
  <speed>0.8200609733428362</speed>
  <fix>3d</fix>
</trkpt>
<trkpt lat="33.8107323" lon="-118.3936966">
  <ele>-24.47</ele>
  <time>2026-09-02T22:11:34Z</time>
  <course>193.2</course>
  <speed>0.83</speed>
  <fix>3d</fix>
</trkpt>
<trkpt lat="33.8107299" lon="-118.3936975">
  <ele>-25.077</ele>
  <time>2026-09-02T22:11:34Z</time>
  <course>198.24</course>
  <speed>0.8200609733428362</speed>
  <fix>3d</fix>
</trkpt>
<trkpt lat="33.8107308" lon="-118.393697">
  <ele>-24.47</ele>
  <time>2026-09-02T22:11:34Z</time>
  <course>193.3</course>
  <speed>0.83</speed>
  <fix>3d</fix>
</trkpt>
<trkpt lat="33.8107291" lon="-118.3936978">
  <ele>-25.076</ele>
  <time>2026-09-02T22:11:34Z</time>
  <course>198.3</course>
  <speed>0.8200609733428362</speed>
  <fix>3d</fix>
</trkpt>
<trkpt lat="33.8107308" lon="-118.393697">
  <ele>-24.47</ele>
  <time>2026-09-02T22:11:34Z</time>
  <course>193.3</course>
  <speed>0.83</speed>
  <fix>3d</fix>
</trkpt>
<trkpt lat="33.8107284" lon="-118.393698">
  <ele>-25.074</ele>
  <time>2026-09-02T22:11:34Z</time>
  <course>198.35</course>
  <speed>0.8200609733428362</speed>
  <fix>3d</fix>
</trkpt>
<trkpt lat="33.8107294" lon="-118.3936974">
  <ele>-24.47</ele>
  <time>2026-09-02T22:11:34Z</time>
  <course>193.4</course>
  <speed>0.83</speed>
  <fix>3d</fix>
</trkpt>
<trkpt lat="33.8107277" lon="-118.3936982">
  <ele>-25.072</ele>
  <time>2026-09-02T22:11:34Z</time>
  <course>198.41</course>
  <speed>0.8200609733428362</speed>
  <fix>3d</fix>
</trkpt>
<trkpt lat="33.8107294" lon="-118.3936974">
  <ele>-24.47</ele>
  <time>2026-09-02T22:11:34Z</time>
  <course>193.4</course>
  <speed>0.83</speed>
  <fix>3d</fix>
</trkpt>
<trkpt lat="33.810727" lon="-118.3936984">
  <ele>-25.072</ele>
  <time>2026-09-02T22:11:34Z</time>
  <course>198.46</course>
  <speed>0.8200609733428362</speed>
  <fix>3d</fix>
</trkpt>
<trkpt lat="33.810728" lon="-118.3936979">
  <ele>-24.47</ele>
  <time>2026-09-02T22:11:34Z</time>
  <course>193.49</course>
  <speed>0.83</speed>
  <fix>3d</fix>
</trkpt>
<trkpt lat="33.8107263" lon="-118.3936986">
  <ele>-25.073</ele>
  <time>2026-09-02T22:11:34Z</time>
  <course>198.49</course>
  <speed>0.8200609733428362</speed>
  <fix>3d</fix>
</trkpt>
<trkpt lat="33.810728" lon="-118.3936979">
  <ele>-24.47</ele>
  <time>2026-09-02T22:11:34Z</time>
  <course>193.49</course>
  <speed>0.83</speed>
  <fix>3d</fix>
</trkpt>
<trkpt lat="33.8107255" lon="-118.3936988">
  <ele>-25.074</ele>
  <time>2026-09-02T22:11:34Z</time>
  <course>198.51</course>
  <speed>0.8200609733428362</speed>
  <fix>3d</fix>
</trkpt>
<trkpt lat="33.8107265" lon="-118.3936983">
  <ele>-24.47</ele>
  <time>2026-09-02T22:11:34Z</time>
  <course>193.52</course>
  <speed>0.83</speed>
  <fix>3d</fix>
</trkpt>
<trkpt lat="33.8107248" lon="-118.393699">
  <ele>-25.074</ele>
  <time>2026-09-02T22:11:34Z</time>
  <course>198.51</course>
  <speed>0.8200609733428362</speed>
  <fix>3d</fix>
</trkpt>
<trkpt lat="33.8107265" lon="-118.3936983">
  <ele>-24.47</ele>
  <time>2026-09-02T22:11:34Z</time>
  <course>193.52</course>
  <speed>0.83</speed>
  <fix>3d</fix>
</trkpt>
<trkpt lat="33.8107241" lon="-118.3936992">
  <ele>-25.075</ele>
  <time>2026-09-02T22:11:34Z</time>
  <course>198.5</course>
  <speed>0.8200609733428362</speed>
  <fix>3d</fix>
</trkpt>
<trkpt lat="33.810725" lon="-118.3936986">
  <ele>-24.47</ele>
  <time>2026-09-02T22:11:34Z</time>
  <course>193.52</course>
  <speed>0.84</speed>
  <fix>3d</fix>
</trkpt>
<trkpt lat="33.8107234" lon="-118.3936995">
  <ele>-25.077</ele>
  <time>2026-09-02T22:11:34Z</time>
  <course>198.51</course>
  <speed>0.8200609733428362</speed>
  <fix>3d</fix>
</trkpt>
<trkpt lat="33.810725" lon="-118.3936986">
  <ele>-24.47</ele>
  <time>2026-09-02T22:11:34Z</time>
  <course>193.52</course>
  <speed>0.84</speed>
  <fix>3d</fix>
</trkpt>
<trkpt lat="33.8107226" lon="-118.3936997">
  <ele>-25.079</ele>
  <time>2026-09-02T22:11:34Z</time>
  <course>198.55</course>
  <speed>0.8200609733428362</speed>
  <fix>3d</fix>
</trkpt>
<trkpt lat="33.8107236" lon="-118.3936991">
  <ele>-24.47</ele>
  <time>2026-09-02T22:11:34Z</time>
  <course>193.59</course>
  <speed>0.84</speed>
  <fix>3d</fix>
</trkpt>
<trkpt lat="33.8107219" lon="-118.3936999">
  <ele>-25.08</ele>
  <time>2026-09-02T22:11:34Z</time>
  <course>198.59</course>
  <speed>0.8200609733428362</speed>
  <fix>3d</fix>
</trkpt>
<trkpt lat="33.8107236" lon="-118.3936991">
  <ele>-24.47</ele>
  <time>2026-09-02T22:11:34Z</time>
  <course>193.59</course>
  <speed>0.84</speed>
  <fix>3d</fix>
</trkpt>
<trkpt lat="33.8107212" lon="-118.3937001">
  <ele>-25.081</ele>
  <time>2026-09-02T22:11:34Z</time>
  <course>198.62</course>
  <speed>0.8200609733428362</speed>
  <fix>3d</fix>
</trkpt>
<trkpt lat="33.8107221" lon="-118.3936996">
  <ele>-24.48</ele>
  <time>2026-09-02T22:11:34Z</time>
  <course>193.7</course>
  <speed>0.84</speed>
  <fix>3d</fix>
</trkpt>
<trkpt lat="33.8107204" lon="-118.3937003">
  <ele>-25.081</ele>
  <time>2026-09-02T22:11:34Z</time>
  <course>198.63</course>
  <speed>0.8200609733428362</speed>
  <fix>3d</fix>
</trkpt>
<trkpt lat="33.8107221" lon="-118.3936996">
  <ele>-24.48</ele>
  <time>2026-09-02T22:11:34Z</time>
  <course>193.7</course>
  <speed>0.84</speed>
  <fix>3d</fix>
</trkpt>
<trkpt lat="33.8107197" lon="-118.3937005">
  <ele>-25.081</ele>
  <time>2026-09-02T22:11:34Z</time>
  <course>198.63</course>
  <speed>0.8200609733428362</speed>
  <fix>3d</fix>
</trkpt>
<trkpt lat="33.8107206" lon="-118.3937">
  <ele>-24.47</ele>
  <time>2026-09-02T22:11:34Z</time>
  <course>193.72</course>
  <speed>0.84</speed>
  <fix>3d</fix>
</trkpt>
<trkpt lat="33.810719" lon="-118.3937008">
  <ele>-25.081</ele>
  <time>2026-09-02T22:11:34Z</time>
  <course>198.62</course>
  <speed>0.8200609733428362</speed>
  <fix>3d</fix>
</trkpt>
<trkpt lat="33.8107206" lon="-118.3937">
  <ele>-24.47</ele>
  <time>2026-09-02T22:11:34Z</time>
  <course>193.72</course>
  <speed>0.84</speed>
  <fix>3d</fix>
</trkpt>
<trkpt lat="33.8107182" lon="-118.393701">
  <ele>-25.081</ele>
  <time>2026-09-02T22:11:34Z</time>
  <course>198.6</course>
  <speed>0.8200609733428362</speed>
  <fix>3d</fix>
</trkpt>
<trkpt lat="33.8107191" lon="-118.3937004">
  <ele>-24.47</ele>
  <time>2026-09-02T22:11:34Z</time>
  <course>193.71</course>
  <speed>0.85</speed>
  <fix>3d</fix>
</trkpt>
<trkpt lat="33.8107175" lon="-118.3937012">
  <ele>-25.081</ele>
  <time>2026-09-02T22:11:34Z</time>
  <course>198.59</course>
  <speed>0.8228000972289685</speed>
  <fix>3d</fix>
</trkpt>
<trkpt lat="33.8107191" lon="-118.3937004">
  <ele>-24.47</ele>
  <time>2026-09-02T22:11:34Z</time>
  <course>193.71</course>
  <speed>0.85</speed>
  <fix>3d</fix>
</trkpt>
<trkpt lat="33.8107168" lon="-118.3937014">
  <ele>-25.08</ele>
  <time>2026-09-02T22:11:34Z</time>
  <course>198.59</course>
  <speed>0.8228000972289685</speed>
  <fix>3d</fix>
</trkpt>
<trkpt lat="33.8107176" lon="-118.3937009">
  <ele>-24.47</ele>
  <time>2026-09-02T22:11:34Z</time>
  <course>193.75</course>
  <speed>0.85</speed>
  <fix>3d</fix>
</trkpt>
<trkpt lat="33.810716" lon="-118.3937016">
  <ele>-25.079</ele>
  <time>2026-09-02T22:11:34Z</time>
  <course>198.59</course>
  <speed>0.8228000972289685</speed>
  <fix>3d</fix>
</trkpt>
<trkpt lat="33.8107176" lon="-118.3937009">
  <ele>-24.47</ele>
  <time>2026-09-02T22:11:34Z</time>
  <course>193.75</course>
  <speed>0.85</speed>
  <fix>3d</fix>
</trkpt>
<trkpt lat="33.8107153" lon="-118.3937019">
  <ele>-25.077</ele>
  <time>2026-09-02T22:11:34Z</time>
  <course>198.59</course>
  <speed>0.8228000972289685</speed>
  <fix>3d</fix>
</trkpt>
<trkpt lat="33.8107161" lon="-118.3937013">
  <ele>-24.46</ele>
  <time>2026-09-02T22:11:34Z</time>
  <course>193.8</course>
  <speed>0.85</speed>
  <fix>3d</fix>
</trkpt>
<trkpt lat="33.8107146" lon="-118.3937021">
  <ele>-25.074</ele>
  <time>2026-09-02T22:11:34Z</time>
  <course>198.58</course>
  <speed>0.8228000972289685</speed>
  <fix>3d</fix>
</trkpt>
<trkpt lat="33.8107161" lon="-118.3937013">
  <ele>-24.46</ele>
  <time>2026-09-02T22:11:34Z</time>
  <course>193.8</course>
  <speed>0.85</speed>
  <fix>3d</fix>
</trkpt>
<trkpt lat="33.8107138" lon="-118.3937023">
  <ele>-25.071</ele>
  <time>2026-09-02T22:11:34Z</time>
  <course>198.58</course>
  <speed>0.8228000972289685</speed>
  <fix>3d</fix>
</trkpt>
<trkpt lat="33.8107147" lon="-118.3937017">
  <ele>-24.46</ele>
  <time>2026-09-02T22:11:34Z</time>
  <course>193.84</course>
  <speed>0.85</speed>
  <fix>3d</fix>
</trkpt>
<trkpt lat="33.8107131" lon="-118.3937025">
  <ele>-25.068</ele>
  <time>2026-09-02T22:11:34Z</time>
  <course>198.58</course>
  <speed>0.8228000972289685</speed>
  <fix>3d</fix>
</trkpt>
<trkpt lat="33.8107147" lon="-118.3937017">
  <ele>-24.46</ele>
  <time>2026-09-02T22:11:34Z</time>
  <course>193.84</course>
  <speed>0.85</speed>
  <fix>3d</fix>
</trkpt>
<trkpt lat="33.8107123" lon="-118.3937027">
  <ele>-25.067</ele>
  <time>2026-09-02T22:11:34Z</time>
  <course>198.58</course>
  <speed>0.8228000972289685</speed>
  <fix>3d</fix>
</trkpt>
<trkpt lat="33.8107132" lon="-118.3937022">
  <ele>-24.46</ele>
  <time>2026-09-02T22:11:34Z</time>
  <course>193.91</course>
  <speed>0.85</speed>
  <fix>3d</fix>
</trkpt>
<trkpt lat="33.8107116" lon="-118.393703">
  <ele>-25.067</ele>
  <time>2026-09-02T22:11:34Z</time>
  <course>198.58</course>
  <speed>0.8228000972289685</speed>
  <fix>3d</fix>
</trkpt>
<trkpt lat="33.8107132" lon="-118.3937022">
  <ele>-24.46</ele>
  <time>2026-09-02T22:11:34Z</time>
  <course>193.91</course>
  <speed>0.85</speed>
  <fix>3d</fix>
</trkpt>
<trkpt lat="33.8107108" lon="-118.3937032">
  <ele>-25.07</ele>
  <time>2026-09-02T22:11:34Z</time>
  <course>198.56</course>
  <speed>0.8324061508662703</speed>
  <fix>3d</fix>
</trkpt>
<trkpt lat="33.8107117" lon="-118.3937026">
  <ele>-24.46</ele>
  <time>2026-09-02T22:11:34Z</time>
  <course>193.96</course>
  <speed>0.85</speed>
  <fix>3d</fix>
</trkpt>
<trkpt lat="33.8107101" lon="-118.3937034">
  <ele>-25.072</ele>
  <time>2026-09-02T22:11:34Z</time>
  <course>198.54</course>
  <speed>0.8324061508662703</speed>
  <fix>3d</fix>
</trkpt>
<trkpt lat="33.8107117" lon="-118.3937026">
  <ele>-24.46</ele>
  <time>2026-09-02T22:11:34Z</time>
  <course>193.96</course>
  <speed>0.85</speed>
  <fix>3d</fix>
</trkpt>
<trkpt lat="33.8107094" lon="-118.3937036">
  <ele>-25.074</ele>
  <time>2026-09-02T22:11:34Z</time>
  <course>198.52</course>
  <speed>0.8324061508662703</speed>
  <fix>3d</fix>
</trkpt>
<trkpt lat="33.8107102" lon="-118.3937031">
  <ele>-24.46</ele>
  <time>2026-09-02T22:11:34Z</time>
  <course>193.98</course>
  <speed>0.86</speed>
  <fix>3d</fix>
</trkpt>
<trkpt lat="33.8107086" lon="-118.3937039">
  <ele>-25.075</ele>
  <time>2026-09-02T22:11:34Z</time>
  <course>198.5</course>
  <speed>0.8324061508662703</speed>
  <fix>3d</fix>
</trkpt>
<trkpt lat="33.8107102" lon="-118.3937031">
  <ele>-24.46</ele>
  <time>2026-09-02T22:11:34Z</time>
  <course>193.98</course>
  <speed>0.86</speed>
  <fix>3d</fix>
</trkpt>
<trkpt lat="33.8107079" lon="-118.3937041">
  <ele>-25.075</ele>
  <time>2026-09-02T22:11:34Z</time>
  <course>198.47</course>
  <speed>0.8324061508662703</speed>
  <fix>3d</fix>
</trkpt>
<trkpt lat="33.8107087" lon="-118.3937035">
  <ele>-24.46</ele>
  <time>2026-09-02T22:11:34Z</time>
  <course>194.0</course>
  <speed>0.86</speed>
  <fix>3d</fix>
</trkpt>
<trkpt lat="33.8107071" lon="-118.3937043">
  <ele>-25.076</ele>
  <time>2026-09-02T22:11:34Z</time>
  <course>198.44</course>
  <speed>0.8324061508662703</speed>
  <fix>3d</fix>
</trkpt>
<trkpt lat="33.8107087" lon="-118.3937035">
  <ele>-24.46</ele>
  <time>2026-09-02T22:11:34Z</time>
  <course>194.0</course>
  <speed>0.86</speed>
  <fix>3d</fix>
</trkpt>
<trkpt lat="33.8107064" lon="-118.3937045">
  <ele>-25.077</ele>
  <time>2026-09-02T22:11:34Z</time>
  <course>198.42</course>
  <speed>0.8324061508662703</speed>
  <fix>3d</fix>
</trkpt>
<trkpt lat="33.8107071" lon="-118.3937039">
  <ele>-24.47</ele>
  <time>2026-09-02T22:11:34Z</time>
  <course>194.02</course>
  <speed>0.86</speed>
  <fix>3d</fix>
</trkpt>
<trkpt lat="33.8107056" lon="-118.3937048">
  <ele>-25.078</ele>
  <time>2026-09-02T22:11:34Z</time>
  <course>198.41</course>
  <speed>0.8324061508662703</speed>
  <fix>3d</fix>
</trkpt>
<trkpt lat="33.8107071" lon="-118.3937039">
  <ele>-24.47</ele>
  <time>2026-09-02T22:11:34Z</time>
  <course>194.02</course>
  <speed>0.86</speed>
  <fix>3d</fix>
</trkpt>
<trkpt lat="33.8107048" lon="-118.393705">
  <ele>-25.08</ele>
  <time>2026-09-02T22:11:34Z</time>
  <course>198.41</course>
  <speed>0.8324061508662703</speed>
  <fix>3d</fix>
</trkpt>
<trkpt lat="33.8107056" lon="-118.3937044">
  <ele>-24.47</ele>
  <time>2026-09-02T22:11:34Z</time>
  <course>194.1</course>
  <speed>0.86</speed>
  <fix>3d</fix>
</trkpt>
<trkpt lat="33.8107041" lon="-118.3937052">
  <ele>-25.081</ele>
  <time>2026-09-02T22:11:34Z</time>
  <course>198.43</course>
  <speed>0.8324061508662703</speed>
  <fix>3d</fix>
</trkpt>
<trkpt lat="33.8107056" lon="-118.3937044">
  <ele>-24.47</ele>
  <time>2026-09-02T22:11:34Z</time>
  <course>194.1</course>
  <speed>0.86</speed>
  <fix>3d</fix>
</trkpt>
<trkpt lat="33.8107033" lon="-118.3937054">
  <ele>-25.08</ele>
  <time>2026-09-02T22:11:34Z</time>
  <course>198.44</course>
  <speed>0.8324061508662703</speed>
  <fix>3d</fix>
</trkpt>
<trkpt lat="33.8107041" lon="-118.3937049">
  <ele>-24.47</ele>
  <time>2026-09-02T22:11:34Z</time>
  <course>194.19</course>
  <speed>0.86</speed>
  <fix>3d</fix>
</trkpt>
<trkpt lat="33.8107026" lon="-118.3937057">
  <ele>-25.078</ele>
  <time>2026-09-02T22:11:34Z</time>
  <course>198.44</course>
  <speed>0.8324061508662703</speed>
  <fix>3d</fix>
</trkpt>
<trkpt lat="33.8107041" lon="-118.3937049">
  <ele>-24.47</ele>
  <time>2026-09-02T22:11:34Z</time>
  <course>194.19</course>
  <speed>0.86</speed>
  <fix>3d</fix>
</trkpt>
<trkpt lat="33.8107018" lon="-118.3937059">
  <ele>-25.076</ele>
  <time>2026-09-02T22:11:34Z</time>
  <course>198.42</course>
  <speed>0.8324061508662703</speed>
  <fix>3d</fix>
</trkpt>
<trkpt lat="33.8107026" lon="-118.3937053">
  <ele>-24.46</ele>
  <time>2026-09-02T22:11:34Z</time>
  <course>194.23</course>
  <speed>0.86</speed>
  <fix>3d</fix>
</trkpt>
<trkpt lat="33.8107011" lon="-118.3937061">
  <ele>-25.074</ele>
  <time>2026-09-02T22:11:34Z</time>
  <course>198.39</course>
  <speed>0.8324061508662703</speed>
  <fix>3d</fix>
</trkpt>
<trkpt lat="33.8107026" lon="-118.3937053">
  <ele>-24.46</ele>
  <time>2026-09-02T22:11:34Z</time>
  <course>194.23</course>
  <speed>0.86</speed>
  <fix>3d</fix>
</trkpt>
<trkpt lat="33.8107003" lon="-118.3937063">
  <ele>-25.072</ele>
  <time>2026-09-02T22:11:34Z</time>
  <course>198.36</course>
  <speed>0.8324061508662703</speed>
  <fix>3d</fix>
</trkpt>
<trkpt lat="33.8107011" lon="-118.3937058">
  <ele>-24.46</ele>
  <time>2026-09-02T22:11:34Z</time>
  <course>194.26</course>
  <speed>0.87</speed>
  <fix>3d</fix>
</trkpt>
<trkpt lat="33.8106995" lon="-118.3937066">
  <ele>-25.071</ele>
  <time>2026-09-02T22:11:34Z</time>
  <course>198.32</course>
  <speed>0.8324061508662703</speed>
  <fix>3d</fix>
</trkpt>
<trkpt lat="33.8107011" lon="-118.3937058">
  <ele>-24.46</ele>
  <time>2026-09-02T22:11:34Z</time>
  <course>194.26</course>
  <speed>0.87</speed>
  <fix>3d</fix>
</trkpt>
<trkpt lat="33.8106988" lon="-118.3937068">
  <ele>-25.07</ele>
  <time>2026-09-02T22:11:34Z</time>
  <course>198.29</course>
  <speed>0.8324061508662703</speed>
  <fix>3d</fix>
</trkpt>
<trkpt lat="33.8106996" lon="-118.3937063">
  <ele>-24.46</ele>
  <time>2026-09-02T22:11:34Z</time>
  <course>194.29</course>
  <speed>0.87</speed>
  <fix>3d</fix>
</trkpt>
<trkpt lat="33.810698" lon="-118.393707">
  <ele>-25.071</ele>
  <time>2026-09-02T22:11:34Z</time>
  <course>198.24</course>
  <speed>0.8324061508662703</speed>
  <fix>3d</fix>
</trkpt>
<trkpt lat="33.8106996" lon="-118.3937063">
  <ele>-24.46</ele>
  <time>2026-09-02T22:11:34Z</time>
  <course>194.29</course>
  <speed>0.87</speed>
  <fix>3d</fix>
</trkpt>
<trkpt lat="33.8106973" lon="-118.3937073">
  <ele>-25.072</ele>
  <time>2026-09-02T22:11:34Z</time>
  <course>198.18</course>
  <speed>0.8420213774008353</speed>
  <fix>3d</fix>
</trkpt>
<trkpt lat="33.810698" lon="-118.3937068">
  <ele>-24.46</ele>
  <time>2026-09-02T22:11:34Z</time>
  <course>194.27</course>
  <speed>0.87</speed>
  <fix>3d</fix>
</trkpt>
<trkpt lat="33.8106965" lon="-118.3937075">
  <ele>-25.072</ele>
  <time>2026-09-02T22:11:34Z</time>
  <course>198.11</course>
  <speed>0.8420213774008353</speed>
  <fix>3d</fix>
</trkpt>
<trkpt lat="33.810698" lon="-118.3937068">
  <ele>-24.46</ele>
  <time>2026-09-02T22:11:34Z</time>
  <course>194.27</course>
  <speed>0.87</speed>
  <fix>3d</fix>
</trkpt>
<trkpt lat="33.8106957" lon="-118.3937077">
  <ele>-25.073</ele>
  <time>2026-09-02T22:11:34Z</time>
  <course>198.04</course>
  <speed>0.8420213774008353</speed>
  <fix>3d</fix>
</trkpt>
<trkpt lat="33.8106965" lon="-118.3937072">
  <ele>-24.46</ele>
  <time>2026-09-02T22:11:34Z</time>
  <course>194.23</course>
  <speed>0.87</speed>
  <fix>3d</fix>
</trkpt>
<trkpt lat="33.810695" lon="-118.393708">
  <ele>-25.075</ele>
  <time>2026-09-02T22:11:34Z</time>
  <course>197.98</course>
  <speed>0.8420213774008353</speed>
  <fix>3d</fix>
</trkpt>
<trkpt lat="33.8106965" lon="-118.3937072">
  <ele>-24.46</ele>
  <time>2026-09-02T22:11:34Z</time>
  <course>194.23</course>
  <speed>0.87</speed>
  <fix>3d</fix>
</trkpt>
<trkpt lat="33.8106942" lon="-118.3937082">
  <ele>-25.075</ele>
  <time>2026-09-02T22:11:34Z</time>
  <course>197.92</course>
  <speed>0.8420213774008353</speed>
  <fix>3d</fix>
</trkpt>
<trkpt lat="33.810695" lon="-118.3937077">
  <ele>-24.46</ele>
  <time>2026-09-02T22:11:34Z</time>
  <course>194.21</course>
  <speed>0.87</speed>
  <fix>3d</fix>
</trkpt>
<trkpt lat="33.8106934" lon="-118.3937084">
  <ele>-25.074</ele>
  <time>2026-09-02T22:11:34Z</time>
  <course>197.86</course>
  <speed>0.8420213774008353</speed>
  <fix>3d</fix>
</trkpt>
<trkpt lat="33.810695" lon="-118.3937077">
  <ele>-24.46</ele>
  <time>2026-09-02T22:11:34Z</time>
  <course>194.21</course>
  <speed>0.87</speed>
  <fix>3d</fix>
</trkpt>
<trkpt lat="33.8106927" lon="-118.3937087">
  <ele>-25.073</ele>
  <time>2026-09-02T22:11:34Z</time>
  <course>197.8</course>
  <speed>0.8420213774008353</speed>
  <fix>3d</fix>
</trkpt>
<trkpt lat="33.8106935" lon="-118.3937082">
  <ele>-24.46</ele>
  <time>2026-09-02T22:11:34Z</time>
  <course>194.18</course>
  <speed>0.87</speed>
  <fix>3d</fix>
</trkpt>
<trkpt lat="33.8106919" lon="-118.3937089">
  <ele>-25.071</ele>
  <time>2026-09-02T22:11:34Z</time>
  <course>197.74</course>
  <speed>0.8420213774008353</speed>
  <fix>3d</fix>
</trkpt>
<trkpt lat="33.8106935" lon="-118.3937082">
  <ele>-24.46</ele>
  <time>2026-09-02T22:11:34Z</time>
  <course>194.18</course>
  <speed>0.87</speed>
  <fix>3d</fix>
</trkpt>
<trkpt lat="33.8106911" lon="-118.3937091">
  <ele>-25.069</ele>
  <time>2026-09-02T22:11:34Z</time>
  <course>197.67</course>
  <speed>0.8420213774008353</speed>
  <fix>3d</fix>
</trkpt>
<trkpt lat="33.810692" lon="-118.3937086">
  <ele>-24.46</ele>
  <time>2026-09-02T22:11:34Z</time>
  <course>194.13</course>
  <speed>0.88</speed>
  <fix>3d</fix>
</trkpt>
<trkpt lat="33.8106904" lon="-118.3937094">
  <ele>-25.067</ele>
  <time>2026-09-02T22:11:34Z</time>
  <course>197.6</course>
  <speed>0.8420213774008353</speed>
  <fix>3d</fix>
</trkpt>
<trkpt lat="33.810692" lon="-118.3937086">
  <ele>-24.46</ele>
  <time>2026-09-02T22:11:34Z</time>
  <course>194.13</course>
  <speed>0.88</speed>
  <fix>3d</fix>
</trkpt>
<trkpt lat="33.8106896" lon="-118.3937096">
  <ele>-25.066</ele>
  <time>2026-09-02T22:11:34Z</time>
  <course>197.54</course>
  <speed>0.8516454661418682</speed>
  <fix>3d</fix>
</trkpt>
<trkpt lat="33.8106904" lon="-118.3937091">
  <ele>-24.46</ele>
  <time>2026-09-02T22:11:34Z</time>
  <course>194.1</course>
  <speed>0.88</speed>
  <fix>3d</fix>
</trkpt>
<trkpt lat="33.8106888" lon="-118.3937098">
  <ele>-25.067</ele>
  <time>2026-09-02T22:11:34Z</time>
  <course>197.49</course>
  <speed>0.8516454661418682</speed>
  <fix>3d</fix>
</trkpt>
<trkpt lat="33.8106904" lon="-118.3937091">
  <ele>-24.46</ele>
  <time>2026-09-02T22:11:34Z</time>
  <course>194.1</course>
  <speed>0.88</speed>
  <fix>3d</fix>
</trkpt>
<trkpt lat="33.8106881" lon="-118.3937101">
  <ele>-25.069</ele>
  <time>2026-09-02T22:11:34Z</time>
  <course>197.44</course>
  <speed>0.8516454661418682</speed>
  <fix>3d</fix>
</trkpt>
<trkpt lat="33.8106889" lon="-118.3937095">
  <ele>-24.46</ele>
  <time>2026-09-02T22:11:34Z</time>
  <course>194.1</course>
  <speed>0.88</speed>
  <fix>3d</fix>
</trkpt>
<trkpt lat="33.8106873" lon="-118.3937103">
  <ele>-25.072</ele>
  <time>2026-09-02T22:11:34Z</time>
  <course>197.4</course>
  <speed>0.8516454661418682</speed>
  <fix>3d</fix>
</trkpt>
<trkpt lat="33.8106889" lon="-118.3937095">
  <ele>-24.46</ele>
  <time>2026-09-02T22:11:34Z</time>
  <course>194.1</course>
  <speed>0.88</speed>
  <fix>3d</fix>
</trkpt>
<trkpt lat="33.8106865" lon="-118.3937105">
  <ele>-25.074</ele>
  <time>2026-09-02T22:11:34Z</time>
  <course>197.37</course>
  <speed>0.8516454661418682</speed>
  <fix>3d</fix>
</trkpt>
<trkpt lat="33.8106873" lon="-118.39371">
  <ele>-24.47</ele>
  <time>2026-09-02T22:11:34Z</time>
  <course>194.11</course>
  <speed>0.88</speed>
  <fix>3d</fix>
</trkpt>
<trkpt lat="33.8106857" lon="-118.3937108">
  <ele>-25.076</ele>
  <time>2026-09-02T22:11:34Z</time>
  <course>197.34</course>
  <speed>0.8516454661418682</speed>
  <fix>3d</fix>
</trkpt>
<trkpt lat="33.8106873" lon="-118.39371">
  <ele>-24.47</ele>
  <time>2026-09-02T22:11:34Z</time>
  <course>194.11</course>
  <speed>0.88</speed>
  <fix>3d</fix>
</trkpt>
<trkpt lat="33.810685" lon="-118.393711">
  <ele>-25.078</ele>
  <time>2026-09-02T22:11:34Z</time>
  <course>197.33</course>
  <speed>0.8516454661418682</speed>
  <fix>3d</fix>
</trkpt>
<trkpt lat="33.8106858" lon="-118.3937105">
  <ele>-24.47</ele>
  <time>2026-09-02T22:11:34Z</time>
  <course>194.15</course>
  <speed>0.89</speed>
  <fix>3d</fix>
</trkpt>
<trkpt lat="33.8106842" lon="-118.3937112">
  <ele>-25.08</ele>
  <time>2026-09-02T22:11:34Z</time>
  <course>197.3</course>
  <speed>0.8516454661418682</speed>
  <fix>3d</fix>
</trkpt>
<trkpt lat="33.8106858" lon="-118.3937105">
  <ele>-24.47</ele>
  <time>2026-09-02T22:11:34Z</time>
  <course>194.15</course>
  <speed>0.89</speed>
  <fix>3d</fix>
</trkpt>
<trkpt lat="33.8106834" lon="-118.3937115">
  <ele>-25.08</ele>
  <time>2026-09-02T22:11:34Z</time>
  <course>197.26</course>
  <speed>0.861278120005379</speed>
  <fix>3d</fix>
</trkpt>
<trkpt lat="33.8106843" lon="-118.393711">
  <ele>-24.48</ele>
  <time>2026-09-02T22:11:34Z</time>
  <course>194.17</course>
  <speed>0.89</speed>
  <fix>3d</fix>
</trkpt>
<trkpt lat="33.8106826" lon="-118.3937117">
  <ele>-25.081</ele>
  <time>2026-09-02T22:11:34Z</time>
  <course>197.21</course>
  <speed>0.861278120005379</speed>
  <fix>3d</fix>
</trkpt>
<trkpt lat="33.8106843" lon="-118.393711">
  <ele>-24.48</ele>
  <time>2026-09-02T22:11:34Z</time>
  <course>194.17</course>
  <speed>0.89</speed>
  <fix>3d</fix>
</trkpt>
<trkpt lat="33.8106818" lon="-118.3937119">
  <ele>-25.081</ele>
  <time>2026-09-02T22:11:34Z</time>
  <course>197.15</course>
  <speed>0.861278120005379</speed>
  <fix>3d</fix>
</trkpt>
<trkpt lat="33.8106827" lon="-118.3937114">
  <ele>-24.48</ele>
  <time>2026-09-02T22:11:34Z</time>
  <course>194.13</course>
  <speed>0.89</speed>
  <fix>3d</fix>
</trkpt>
<trkpt lat="33.8106811" lon="-118.3937122">
  <ele>-25.08</ele>
  <time>2026-09-02T22:11:34Z</time>
  <course>197.09</course>
  <speed>0.861278120005379</speed>
  <fix>3d</fix>
</trkpt>
<trkpt lat="33.8106827" lon="-118.3937114">
  <ele>-24.48</ele>
  <time>2026-09-02T22:11:34Z</time>
  <course>194.13</course>
  <speed>0.89</speed>
  <fix>3d</fix>
</trkpt>
<trkpt lat="33.8106803" lon="-118.3937124">
  <ele>-25.078</ele>
  <time>2026-09-02T22:11:34Z</time>
  <course>197.05</course>
  <speed>0.861278120005379</speed>
  <fix>3d</fix>
</trkpt>
<trkpt lat="33.8106811" lon="-118.3937119">
  <ele>-24.47</ele>
  <time>2026-09-02T22:11:34Z</time>
  <course>194.1</course>
  <speed>0.89</speed>
  <fix>3d</fix>
</trkpt>
<trkpt lat="33.8106795" lon="-118.3937127">
  <ele>-25.076</ele>
  <time>2026-09-02T22:11:34Z</time>
  <course>197.01</course>
  <speed>0.861278120005379</speed>
  <fix>3d</fix>
</trkpt>
<trkpt lat="33.8106811" lon="-118.3937119">
  <ele>-24.47</ele>
  <time>2026-09-02T22:11:34Z</time>
  <course>194.1</course>
  <speed>0.89</speed>
  <fix>3d</fix>
</trkpt>
<trkpt lat="33.8106787" lon="-118.3937129">
  <ele>-25.074</ele>
  <time>2026-09-02T22:11:34Z</time>
  <course>196.98</course>
  <speed>0.861278120005379</speed>
  <fix>3d</fix>
</trkpt>
<trkpt lat="33.8106796" lon="-118.3937124">
  <ele>-24.47</ele>
  <time>2026-09-02T22:11:34Z</time>
  <course>194.11</course>
  <speed>0.89</speed>
  <fix>3d</fix>
</trkpt>
<trkpt lat="33.8106779" lon="-118.3937131">
  <ele>-25.074</ele>
  <time>2026-09-02T22:11:34Z</time>
  <course>196.94</course>
  <speed>0.861278120005379</speed>
  <fix>3d</fix>
</trkpt>
<trkpt lat="33.8106796" lon="-118.3937124">
  <ele>-24.47</ele>
  <time>2026-09-02T22:11:34Z</time>
  <course>194.11</course>
  <speed>0.89</speed>
  <fix>3d</fix>
</trkpt>
<trkpt lat="33.8106771" lon="-118.3937134">
  <ele>-25.074</ele>
  <time>2026-09-02T22:11:34Z</time>
  <course>196.91</course>
  <speed>0.861278120005379</speed>
  <fix>3d</fix>
</trkpt>
<trkpt lat="33.8106779" lon="-118.3937128">
  <ele>-24.46</ele>
  <time>2026-09-02T22:11:34Z</time>
  <course>194.12</course>
  <speed>0.9</speed>
  <fix>3d</fix>
</trkpt>
<trkpt lat="33.8106764" lon="-118.3937136">
  <ele>-25.073</ele>
  <time>2026-09-02T22:11:34Z</time>
  <course>196.86</course>
  <speed>0.861278120005379</speed>
  <fix>3d</fix>
</trkpt>
<trkpt lat="33.8106779" lon="-118.3937128">
  <ele>-24.46</ele>
  <time>2026-09-02T22:11:34Z</time>
  <course>194.12</course>
  <speed>0.9</speed>
  <fix>3d</fix>
</trkpt>
<trkpt lat="33.8106756" lon="-118.3937138">
  <ele>-25.073</ele>
  <time>2026-09-02T22:11:34Z</time>
  <course>196.84</course>
  <speed>0.861278120005379</speed>
  <fix>3d</fix>
</trkpt>
<trkpt lat="33.8106764" lon="-118.3937133">
  <ele>-24.46</ele>
  <time>2026-09-02T22:11:34Z</time>
  <course>194.14</course>
  <speed>0.9</speed>
  <fix>3d</fix>
</trkpt>
<trkpt lat="33.8106748" lon="-118.3937141">
  <ele>-25.074</ele>
  <time>2026-09-02T22:11:34Z</time>
  <course>196.84</course>
  <speed>0.861278120005379</speed>
  <fix>3d</fix>
</trkpt>
<trkpt lat="33.8106764" lon="-118.3937133">
  <ele>-24.46</ele>
  <time>2026-09-02T22:11:34Z</time>
  <course>194.14</course>
  <speed>0.9</speed>
  <fix>3d</fix>
</trkpt>
<trkpt lat="33.810674" lon="-118.3937143">
  <ele>-25.074</ele>
  <time>2026-09-02T22:11:34Z</time>
  <course>196.83</course>
  <speed>0.8709190547921202</speed>
  <fix>3d</fix>
</trkpt>
<trkpt lat="33.8106748" lon="-118.3937138">
  <ele>-24.46</ele>
  <time>2026-09-02T22:11:34Z</time>
  <course>194.18</course>
  <speed>0.9</speed>
  <fix>3d</fix>
</trkpt>
<trkpt lat="33.8106732" lon="-118.3937145">
  <ele>-25.074</ele>
  <time>2026-09-02T22:11:34Z</time>
  <course>196.81</course>
  <speed>0.8736131867136622</speed>
  <fix>3d</fix>
</trkpt>
<trkpt lat="33.8106748" lon="-118.3937138">
  <ele>-24.46</ele>
  <time>2026-09-02T22:11:34Z</time>
  <course>194.18</course>
  <speed>0.9</speed>
  <fix>3d</fix>
</trkpt>
<trkpt lat="33.8106724" lon="-118.3937148">
  <ele>-25.074</ele>
  <time>2026-09-02T22:11:34Z</time>
  <course>196.79</course>
  <speed>0.8709190547921202</speed>
  <fix>3d</fix>
</trkpt>
<trkpt lat="33.8106733" lon="-118.3937143">
  <ele>-24.46</ele>
  <time>2026-09-02T22:11:34Z</time>
  <course>194.2</course>
  <speed>0.9</speed>
  <fix>3d</fix>
</trkpt>
<trkpt lat="33.8106716" lon="-118.393715">
  <ele>-25.073</ele>
  <time>2026-09-02T22:11:34Z</time>
  <course>196.75</course>
  <speed>0.8736131867136622</speed>
  <fix>3d</fix>
</trkpt>
<trkpt lat="33.8106733" lon="-118.3937143">
  <ele>-24.46</ele>
  <time>2026-09-02T22:11:34Z</time>
  <course>194.2</course>
  <speed>0.9</speed>
  <fix>3d</fix>
</trkpt>
<trkpt lat="33.8106708" lon="-118.3937153">
  <ele>-25.072</ele>
  <time>2026-09-02T22:11:34Z</time>
  <course>196.71</course>
  <speed>0.8736131867136622</speed>
  <fix>3d</fix>
</trkpt>
<trkpt lat="33.8106717" lon="-118.3937148">
  <ele>-24.46</ele>
  <time>2026-09-02T22:11:34Z</time>
  <course>194.18</course>
  <speed>0.9</speed>
  <fix>3d</fix>
</trkpt>
<trkpt lat="33.81067" lon="-118.3937155">
  <ele>-25.071</ele>
  <time>2026-09-02T22:11:34Z</time>
  <course>196.66</course>
  <speed>0.8736131867136622</speed>
  <fix>3d</fix>
</trkpt>
<trkpt lat="33.8106717" lon="-118.3937148">
  <ele>-24.46</ele>
  <time>2026-09-02T22:11:34Z</time>
  <course>194.18</course>
  <speed>0.9</speed>
  <fix>3d</fix>
</trkpt>
<trkpt lat="33.8106693" lon="-118.3937157">
  <ele>-25.071</ele>
  <time>2026-09-02T22:11:34Z</time>
  <course>196.6</course>
  <speed>0.8805679985100526</speed>
  <fix>3d</fix>
</trkpt>
<trkpt lat="33.8106701" lon="-118.3937152">
  <ele>-24.46</ele>
  <time>2026-09-02T22:11:34Z</time>
  <course>194.12</course>
  <speed>0.91</speed>
  <fix>3d</fix>
</trkpt>
<trkpt lat="33.8106685" lon="-118.393716">
  <ele>-25.071</ele>
  <time>2026-09-02T22:11:34Z</time>
  <course>196.55</course>
  <speed>0.8832326986700617</speed>
  <fix>3d</fix>
</trkpt>
<trkpt lat="33.8106701" lon="-118.3937152">
  <ele>-24.46</ele>
  <time>2026-09-02T22:11:34Z</time>
  <course>194.12</course>
  <speed>0.91</speed>
  <fix>3d</fix>
</trkpt>
<trkpt lat="33.8106677" lon="-118.3937162">
  <ele>-25.071</ele>
  <time>2026-09-02T22:11:34Z</time>
  <course>196.52</course>
  <speed>0.8832326986700617</speed>
  <fix>3d</fix>
</trkpt>
<trkpt lat="33.8106686" lon="-118.3937157">
  <ele>-24.46</ele>
  <time>2026-09-02T22:11:34Z</time>
  <course>194.11</course>
  <speed>0.91</speed>
  <fix>3d</fix>
</trkpt>
<trkpt lat="33.8106669" lon="-118.3937165">
  <ele>-25.072</ele>
  <time>2026-09-02T22:11:34Z</time>
  <course>196.49</course>
  <speed>0.8832326986700617</speed>
  <fix>3d</fix>
</trkpt>
<trkpt lat="33.8106686" lon="-118.3937157">
  <ele>-24.46</ele>
  <time>2026-09-02T22:11:34Z</time>
  <course>194.11</course>
  <speed>0.91</speed>
  <fix>3d</fix>
</trkpt>
<trkpt lat="33.8106661" lon="-118.3937167">
  <ele>-25.072</ele>
  <time>2026-09-02T22:11:34Z</time>
  <course>196.47</course>
  <speed>0.8832326986700617</speed>
  <fix>3d</fix>
</trkpt>
<trkpt lat="33.8106669" lon="-118.3937162">
  <ele>-24.46</ele>
  <time>2026-09-02T22:11:34Z</time>
  <course>194.13</course>
  <speed>0.91</speed>
  <fix>3d</fix>
</trkpt>
<trkpt lat="33.8106653" lon="-118.3937169">
  <ele>-25.072</ele>
  <time>2026-09-02T22:11:34Z</time>
  <course>196.44</course>
  <speed>0.8832326986700617</speed>
  <fix>3d</fix>
</trkpt>
<trkpt lat="33.8106669" lon="-118.3937162">
  <ele>-24.46</ele>
  <time>2026-09-02T22:11:34Z</time>
  <course>194.13</course>
  <speed>0.91</speed>
  <fix>3d</fix>
</trkpt>
<trkpt lat="33.8106645" lon="-118.3937172">
  <ele>-25.072</ele>
  <time>2026-09-02T22:11:34Z</time>
  <course>196.42</course>
  <speed>0.8832326986700617</speed>
  <fix>3d</fix>
</trkpt>
<trkpt lat="33.8106654" lon="-118.3937167">
  <ele>-24.46</ele>
  <time>2026-09-02T22:11:34Z</time>
  <course>194.14</course>
  <speed>0.92</speed>
  <fix>3d</fix>
</trkpt>
<trkpt lat="33.8106637" lon="-118.3937174">
  <ele>-25.072</ele>
  <time>2026-09-02T22:11:34Z</time>
  <course>196.39</course>
  <speed>0.8832326986700617</speed>
  <fix>3d</fix>
</trkpt>
<trkpt lat="33.8106654" lon="-118.3937167">
  <ele>-24.46</ele>
  <time>2026-09-02T22:11:34Z</time>
  <course>194.14</course>
  <speed>0.92</speed>
  <fix>3d</fix>
</trkpt>
<trkpt lat="33.8106629" lon="-118.3937177">
  <ele>-25.073</ele>
  <time>2026-09-02T22:11:34Z</time>
  <course>196.35</course>
  <speed>0.8832326986700617</speed>
  <fix>3d</fix>
</trkpt>
<trkpt lat="33.8106638" lon="-118.3937172">
  <ele>-24.46</ele>
  <time>2026-09-02T22:11:34Z</time>
  <course>194.11</course>
  <speed>0.92</speed>
  <fix>3d</fix>
</trkpt>
<trkpt lat="33.8106621" lon="-118.3937179">
  <ele>-25.073</ele>
  <time>2026-09-02T22:11:34Z</time>
  <course>196.31</course>
  <speed>0.8832326986700617</speed>
  <fix>3d</fix>
</trkpt>
<trkpt lat="33.8106638" lon="-118.3937172">
  <ele>-24.46</ele>
  <time>2026-09-02T22:11:34Z</time>
  <course>194.11</course>
  <speed>0.92</speed>
  <fix>3d</fix>
</trkpt>
<trkpt lat="33.8106613" lon="-118.3937181">
  <ele>-25.073</ele>
  <time>2026-09-02T22:11:34Z</time>
  <course>196.26</course>
  <speed>0.8928605714219886</speed>
  <fix>3d</fix>
</trkpt>
<trkpt lat="33.8106621" lon="-118.3937177">
  <ele>-24.46</ele>
  <time>2026-09-02T22:11:34Z</time>
  <course>194.06</course>
  <speed>0.92</speed>
  <fix>3d</fix>
</trkpt>
<trkpt lat="33.8106605" lon="-118.3937184">
  <ele>-25.073</ele>
  <time>2026-09-02T22:11:34Z</time>
  <course>196.21</course>
  <speed>0.8928605714219886</speed>
  <fix>3d</fix>
</trkpt>
<trkpt lat="33.8106621" lon="-118.3937177">
  <ele>-24.46</ele>
  <time>2026-09-02T22:11:34Z</time>
  <course>194.06</course>
  <speed>0.92</speed>
  <fix>3d</fix>
</trkpt>
<trkpt lat="33.8106597" lon="-118.3937186">
  <ele>-25.073</ele>
  <time>2026-09-02T22:11:34Z</time>
  <course>196.17</course>
  <speed>0.8928605714219886</speed>
  <fix>3d</fix>
</trkpt>
<trkpt lat="33.8106605" lon="-118.3937181">
  <ele>-24.46</ele>
  <time>2026-09-02T22:11:34Z</time>
  <course>194.02</course>
  <speed>0.92</speed>
  <fix>3d</fix>
</trkpt>
<trkpt lat="33.8106589" lon="-118.3937189">
  <ele>-25.073</ele>
  <time>2026-09-02T22:11:34Z</time>
  <course>196.13</course>
  <speed>0.8928605714219886</speed>
  <fix>3d</fix>
</trkpt>
<trkpt lat="33.8106605" lon="-118.3937181">
  <ele>-24.46</ele>
  <time>2026-09-02T22:11:34Z</time>
  <course>194.02</course>
  <speed>0.92</speed>
  <fix>3d</fix>
</trkpt>
<trkpt lat="33.8106581" lon="-118.3937191">
  <ele>-25.073</ele>
  <time>2026-09-02T22:11:34Z</time>
  <course>196.11</course>
  <speed>0.8928605714219886</speed>
  <fix>3d</fix>
</trkpt>
<trkpt lat="33.8106588" lon="-118.3937186">
  <ele>-24.46</ele>
  <time>2026-09-02T22:11:34Z</time>
  <course>194.03</course>
  <speed>0.92</speed>
  <fix>3d</fix>
</trkpt>
<trkpt lat="33.8106573" lon="-118.3937193">
  <ele>-25.071</ele>
  <time>2026-09-02T22:11:34Z</time>
  <course>196.11</course>
  <speed>0.8928605714219886</speed>
  <fix>3d</fix>
</trkpt>
<trkpt lat="33.8106588" lon="-118.3937186">
  <ele>-24.46</ele>
  <time>2026-09-02T22:11:34Z</time>
  <course>194.03</course>
  <speed>0.92</speed>
  <fix>3d</fix>
</trkpt>
<trkpt lat="33.8106565" lon="-118.3937196">
  <ele>-25.069</ele>
  <time>2026-09-02T22:11:34Z</time>
  <course>196.12</course>
  <speed>0.8928605714219886</speed>
  <fix>3d</fix>
</trkpt>
<trkpt lat="33.8106573" lon="-118.3937191">
  <ele>-24.46</ele>
  <time>2026-09-02T22:11:34Z</time>
  <course>194.08</course>
  <speed>0.92</speed>
  <fix>3d</fix>
</trkpt>
<trkpt lat="33.8106557" lon="-118.3937198">
  <ele>-25.068</ele>
  <time>2026-09-02T22:11:34Z</time>
  <course>196.13</course>
  <speed>0.8928605714219886</speed>
  <fix>3d</fix>
</trkpt>
<trkpt lat="33.8106573" lon="-118.3937191">
  <ele>-24.46</ele>
  <time>2026-09-02T22:11:34Z</time>
  <course>194.08</course>
  <speed>0.92</speed>
  <fix>3d</fix>
</trkpt>
<trkpt lat="33.8106548" lon="-118.3937201">
  <ele>-25.068</ele>
  <time>2026-09-02T22:11:34Z</time>
  <course>196.13</course>
  <speed>0.8928605714219886</speed>
  <fix>3d</fix>
</trkpt>
<trkpt lat="33.8106557" lon="-118.3937196">
  <ele>-24.46</ele>
  <time>2026-09-02T22:11:34Z</time>
  <course>194.13</course>
  <speed>0.92</speed>
  <fix>3d</fix>
</trkpt>
<trkpt lat="33.810654" lon="-118.3937203">
  <ele>-25.069</ele>
  <time>2026-09-02T22:11:34Z</time>
  <course>196.12</course>
  <speed>0.8928605714219886</speed>
  <fix>3d</fix>
</trkpt>
<trkpt lat="33.8106557" lon="-118.3937196">
  <ele>-24.46</ele>
  <time>2026-09-02T22:11:34Z</time>
  <course>194.13</course>
  <speed>0.92</speed>
  <fix>3d</fix>
</trkpt>
<trkpt lat="33.8106532" lon="-118.3937206">
  <ele>-25.07</ele>
  <time>2026-09-02T22:11:34Z</time>
  <course>196.1</course>
  <speed>0.8928605714219886</speed>
  <fix>3d</fix>
</trkpt>
<trkpt lat="33.810654" lon="-118.3937201">
  <ele>-24.46</ele>
  <time>2026-09-02T22:11:34Z</time>
  <course>194.13</course>
  <speed>0.92</speed>
  <fix>3d</fix>
</trkpt>
<trkpt lat="33.8106524" lon="-118.3937208">
  <ele>-25.071</ele>
  <time>2026-09-02T22:11:34Z</time>
  <course>196.08</course>
  <speed>0.8928605714219886</speed>
  <fix>3d</fix>
</trkpt>
<trkpt lat="33.810654" lon="-118.3937201">
  <ele>-24.46</ele>
  <time>2026-09-02T22:11:34Z</time>
  <course>194.13</course>
  <speed>0.92</speed>
  <fix>3d</fix>
</trkpt>
<trkpt lat="33.8106516" lon="-118.393721">
  <ele>-25.072</ele>
  <time>2026-09-02T22:11:34Z</time>
  <course>196.05</course>
  <speed>0.8928605714219886</speed>
  <fix>3d</fix>
</trkpt>
<trkpt lat="33.8106525" lon="-118.3937206">
  <ele>-24.46</ele>
  <time>2026-09-02T22:11:34Z</time>
  <course>194.11</course>
  <speed>0.92</speed>
  <fix>3d</fix>
</trkpt>
<trkpt lat="33.8106508" lon="-118.3937213">
  <ele>-25.072</ele>
  <time>2026-09-02T22:11:34Z</time>
  <course>196.02</course>
  <speed>0.8928605714219886</speed>
  <fix>3d</fix>
</trkpt>
<trkpt lat="33.8106525" lon="-118.3937206">
  <ele>-24.46</ele>
  <time>2026-09-02T22:11:34Z</time>
  <course>194.11</course>
  <speed>0.92</speed>
  <fix>3d</fix>
</trkpt>
<trkpt lat="33.81065" lon="-118.3937215">
  <ele>-25.073</ele>
  <time>2026-09-02T22:11:34Z</time>
  <course>195.98</course>
  <speed>0.8928605714219886</speed>
  <fix>3d</fix>
</trkpt>
<trkpt lat="33.8106509" lon="-118.3937211">
  <ele>-24.47</ele>
  <time>2026-09-02T22:11:34Z</time>
  <course>194.08</course>
  <speed>0.92</speed>
  <fix>3d</fix>
</trkpt>
<trkpt lat="33.8106492" lon="-118.3937218">
  <ele>-25.073</ele>
  <time>2026-09-02T22:11:34Z</time>
  <course>195.93</course>
  <speed>0.8928605714219886</speed>
  <fix>3d</fix>
</trkpt>
<trkpt lat="33.8106509" lon="-118.3937211">
  <ele>-24.47</ele>
  <time>2026-09-02T22:11:34Z</time>
  <course>194.08</course>
  <speed>0.92</speed>
  <fix>3d</fix>
</trkpt>
<trkpt lat="33.8106484" lon="-118.393722">
  <ele>-25.073</ele>
  <time>2026-09-02T22:11:34Z</time>
  <course>195.89</course>
  <speed>0.9024965373894794</speed>
  <fix>3d</fix>
</trkpt>
<trkpt lat="33.8106492" lon="-118.3937216">
  <ele>-24.47</ele>
  <time>2026-09-02T22:11:34Z</time>
  <course>194.02</course>
  <speed>0.93</speed>
  <fix>3d</fix>
</trkpt>
<trkpt lat="33.8106476" lon="-118.3937223">
  <ele>-25.072</ele>
  <time>2026-09-02T22:11:34Z</time>
  <course>195.84</course>
  <speed>0.8928605714219886</speed>
  <fix>3d</fix>
</trkpt>
<trkpt lat="33.8106492" lon="-118.3937216">
  <ele>-24.47</ele>
  <time>2026-09-02T22:11:34Z</time>
  <course>194.02</course>
  <speed>0.93</speed>
  <fix>3d</fix>
</trkpt>
<trkpt lat="33.8106468" lon="-118.3937225">
  <ele>-25.071</ele>
  <time>2026-09-02T22:11:34Z</time>
  <course>195.79</course>
  <speed>0.9024965373894794</speed>
  <fix>3d</fix>
</trkpt>
<trkpt lat="33.8106475" lon="-118.393722">
  <ele>-24.47</ele>
  <time>2026-09-02T22:11:34Z</time>
  <course>193.95</course>
  <speed>0.93</speed>
  <fix>3d</fix>
</trkpt>
<trkpt lat="33.8106459" lon="-118.3937228">
  <ele>-25.072</ele>
  <time>2026-09-02T22:11:34Z</time>
  <course>195.76</course>
  <speed>0.9024965373894794</speed>
  <fix>3d</fix>
</trkpt>
<trkpt lat="33.8106475" lon="-118.393722">
  <ele>-24.47</ele>
  <time>2026-09-02T22:11:34Z</time>
  <course>193.95</course>
  <speed>0.93</speed>
  <fix>3d</fix>
</trkpt>
<trkpt lat="33.8106451" lon="-118.393723">
  <ele>-25.073</ele>
  <time>2026-09-02T22:11:34Z</time>
  <course>195.76</course>
  <speed>0.9024965373894794</speed>
  <fix>3d</fix>
</trkpt>
<trkpt lat="33.810646" lon="-118.3937225">
  <ele>-24.47</ele>
  <time>2026-09-02T22:11:34Z</time>
  <course>193.96</course>
  <speed>0.93</speed>
  <fix>3d</fix>
</trkpt>
<trkpt lat="33.8106443" lon="-118.3937232">
  <ele>-25.074</ele>
  <time>2026-09-02T22:11:34Z</time>
  <course>195.77</course>
  <speed>0.9024965373894794</speed>
  <fix>3d</fix>
</trkpt>
<trkpt lat="33.810646" lon="-118.3937225">
  <ele>-24.47</ele>
  <time>2026-09-02T22:11:34Z</time>
  <course>193.96</course>
  <speed>0.93</speed>
  <fix>3d</fix>
</trkpt>
<trkpt lat="33.8106435" lon="-118.3937235">
  <ele>-25.075</ele>
  <time>2026-09-02T22:11:34Z</time>
  <course>195.79</course>
  <speed>0.9024965373894794</speed>
  <fix>3d</fix>
</trkpt>
<trkpt lat="33.8106443" lon="-118.393723">
  <ele>-24.47</ele>
  <time>2026-09-02T22:11:34Z</time>
  <course>194.02</course>
  <speed>0.93</speed>
  <fix>3d</fix>
</trkpt>
<trkpt lat="33.8106427" lon="-118.3937237">
  <ele>-25.075</ele>
  <time>2026-09-02T22:11:34Z</time>
  <course>195.79</course>
  <speed>0.9024965373894794</speed>
  <fix>3d</fix>
</trkpt>
<trkpt lat="33.8106443" lon="-118.393723">
  <ele>-24.47</ele>
  <time>2026-09-02T22:11:34Z</time>
  <course>194.02</course>
  <speed>0.93</speed>
  <fix>3d</fix>
</trkpt>
<trkpt lat="33.8106419" lon="-118.393724">
  <ele>-25.075</ele>
  <time>2026-09-02T22:11:34Z</time>
  <course>195.8</course>
  <speed>0.9024965373894794</speed>
  <fix>3d</fix>
</trkpt>
<trkpt lat="33.8106427" lon="-118.3937235">
  <ele>-24.47</ele>
  <time>2026-09-02T22:11:34Z</time>
  <course>194.06</course>
  <speed>0.93</speed>
  <fix>3d</fix>
</trkpt>
<trkpt lat="33.810641" lon="-118.3937242">
  <ele>-25.074</ele>
  <time>2026-09-02T22:11:34Z</time>
  <course>195.8</course>
  <speed>0.9024965373894794</speed>
  <fix>3d</fix>
</trkpt>
<trkpt lat="33.8106427" lon="-118.3937235">
  <ele>-24.47</ele>
  <time>2026-09-02T22:11:34Z</time>
  <course>194.06</course>
  <speed>0.93</speed>
  <fix>3d</fix>
</trkpt>
<trkpt lat="33.8106402" lon="-118.3937245">
  <ele>-25.073</ele>
  <time>2026-09-02T22:11:34Z</time>
  <course>195.8</course>
  <speed>0.9024965373894794</speed>
  <fix>3d</fix>
</trkpt>
<trkpt lat="33.8106411" lon="-118.393724">
  <ele>-24.47</ele>
  <time>2026-09-02T22:11:34Z</time>
  <course>194.07</course>
  <speed>0.93</speed>
  <fix>3d</fix>
</trkpt>
<trkpt lat="33.8106394" lon="-118.3937247">
  <ele>-25.074</ele>
  <time>2026-09-02T22:11:34Z</time>
  <course>195.78</course>
  <speed>0.9024965373894794</speed>
  <fix>3d</fix>
</trkpt>
<trkpt lat="33.8106411" lon="-118.393724">
  <ele>-24.47</ele>
  <time>2026-09-02T22:11:34Z</time>
  <course>194.07</course>
  <speed>0.93</speed>
  <fix>3d</fix>
</trkpt>
<trkpt lat="33.8106386" lon="-118.393725">
  <ele>-25.075</ele>
  <time>2026-09-02T22:11:34Z</time>
  <course>195.76</course>
  <speed>0.9024965373894794</speed>
  <fix>3d</fix>
</trkpt>
<trkpt lat="33.8106394" lon="-118.3937245">
  <ele>-24.47</ele>
  <time>2026-09-02T22:11:34Z</time>
  <course>194.06</course>
  <speed>0.93</speed>
  <fix>3d</fix>
</trkpt>
<trkpt lat="33.8106378" lon="-118.3937252">
  <ele>-25.076</ele>
  <time>2026-09-02T22:11:34Z</time>
  <course>195.74</course>
  <speed>0.9024965373894794</speed>
  <fix>3d</fix>
</trkpt>
<trkpt lat="33.8106394" lon="-118.3937245">
  <ele>-24.47</ele>
  <time>2026-09-02T22:11:34Z</time>
  <course>194.06</course>
  <speed>0.93</speed>
  <fix>3d</fix>
</trkpt>
<trkpt lat="33.8106369" lon="-118.3937255">
  <ele>-25.076</ele>
  <time>2026-09-02T22:11:34Z</time>
  <course>195.72</course>
  <speed>0.9024965373894794</speed>
  <fix>3d</fix>
</trkpt>
<trkpt lat="33.8106378" lon="-118.393725">
  <ele>-24.47</ele>
  <time>2026-09-02T22:11:34Z</time>
  <course>194.02</course>
  <speed>0.93</speed>
  <fix>3d</fix>
</trkpt>
<trkpt lat="33.8106361" lon="-118.3937257">
  <ele>-25.074</ele>
  <time>2026-09-02T22:11:34Z</time>
  <course>195.7</course>
  <speed>0.9024965373894794</speed>
  <fix>3d</fix>
</trkpt>
<trkpt lat="33.8106378" lon="-118.393725">
  <ele>-24.47</ele>
  <time>2026-09-02T22:11:34Z</time>
  <course>194.02</course>
  <speed>0.93</speed>
  <fix>3d</fix>
</trkpt>
<trkpt lat="33.8106353" lon="-118.3937259">
  <ele>-25.073</ele>
  <time>2026-09-02T22:11:34Z</time>
  <course>195.68</course>
  <speed>0.9121403400793103</speed>
  <fix>3d</fix>
</trkpt>
<trkpt lat="33.8106362" lon="-118.3937255">
  <ele>-24.46</ele>
  <time>2026-09-02T22:11:34Z</time>
  <course>193.99</course>
  <speed>0.93</speed>
  <fix>3d</fix>
</trkpt>
<trkpt lat="33.8106345" lon="-118.3937262">
  <ele>-25.072</ele>
  <time>2026-09-02T22:11:34Z</time>
  <course>195.66</course>
  <speed>0.9121403400793103</speed>
  <fix>3d</fix>
</trkpt>
<trkpt lat="33.8106362" lon="-118.3937255">
  <ele>-24.46</ele>
  <time>2026-09-02T22:11:34Z</time>
  <course>193.99</course>
  <speed>0.93</speed>
  <fix>3d</fix>
</trkpt>
<trkpt lat="33.8106337" lon="-118.3937264">
  <ele>-25.071</ele>
  <time>2026-09-02T22:11:34Z</time>
  <course>195.63</course>
  <speed>0.9121403400793103</speed>
  <fix>3d</fix>
</trkpt>
<trkpt lat="33.8106346" lon="-118.393726">
  <ele>-24.46</ele>
  <time>2026-09-02T22:11:34Z</time>
  <course>193.96</course>
  <speed>0.93</speed>
  <fix>3d</fix>
</trkpt>
<trkpt lat="33.8106328" lon="-118.3937267">
  <ele>-25.07</ele>
  <time>2026-09-02T22:11:34Z</time>
  <course>195.6</course>
  <speed>0.9121403400793103</speed>
  <fix>3d</fix>
</trkpt>
<trkpt lat="33.8106346" lon="-118.393726">
  <ele>-24.46</ele>
  <time>2026-09-02T22:11:34Z</time>
  <course>193.96</course>
  <speed>0.93</speed>
  <fix>3d</fix>
</trkpt>
<trkpt lat="33.810632" lon="-118.3937269">
  <ele>-25.07</ele>
  <time>2026-09-02T22:11:34Z</time>
  <course>195.57</course>
  <speed>0.9121403400793103</speed>
  <fix>3d</fix>
</trkpt>
<trkpt lat="33.8106329" lon="-118.3937264">
  <ele>-24.46</ele>
  <time>2026-09-02T22:11:34Z</time>
  <course>193.91</course>
  <speed>0.94</speed>
  <fix>3d</fix>
</trkpt>
<trkpt lat="33.8106312" lon="-118.3937272">
  <ele>-25.07</ele>
  <time>2026-09-02T22:11:34Z</time>
  <course>195.54</course>
  <speed>0.9121403400793103</speed>
  <fix>3d</fix>
</trkpt>
<trkpt lat="33.8106329" lon="-118.3937264">
  <ele>-24.46</ele>
  <time>2026-09-02T22:11:34Z</time>
  <course>193.91</course>
  <speed>0.94</speed>
  <fix>3d</fix>
</trkpt>
<trkpt lat="33.8106304" lon="-118.3937274">
  <ele>-25.069</ele>
  <time>2026-09-02T22:11:34Z</time>
  <course>195.54</course>
  <speed>0.9121403400793103</speed>
  <fix>3d</fix>
</trkpt>
<trkpt lat="33.8106313" lon="-118.3937269">
  <ele>-24.46</ele>
  <time>2026-09-02T22:11:34Z</time>
  <course>193.92</course>
  <speed>0.94</speed>
  <fix>3d</fix>
</trkpt>
<trkpt lat="33.8106296" lon="-118.3937277">
  <ele>-25.069</ele>
  <time>2026-09-02T22:11:34Z</time>
  <course>195.55</course>
  <speed>0.9121403400793103</speed>
  <fix>3d</fix>
</trkpt>
<trkpt lat="33.8106313" lon="-118.3937269">
  <ele>-24.46</ele>
  <time>2026-09-02T22:11:34Z</time>
  <course>193.92</course>
  <speed>0.94</speed>
  <fix>3d</fix>
</trkpt>
<trkpt lat="33.8106287" lon="-118.3937279">
  <ele>-25.07</ele>
  <time>2026-09-02T22:11:34Z</time>
  <course>195.56</course>
  <speed>0.9121403400793103</speed>
  <fix>3d</fix>
</trkpt>
<trkpt lat="33.8106296" lon="-118.3937274">
  <ele>-24.46</ele>
  <time>2026-09-02T22:11:34Z</time>
  <course>193.98</course>
  <speed>0.94</speed>
  <fix>3d</fix>
</trkpt>
<trkpt lat="33.8106279" lon="-118.3937282">
  <ele>-25.071</ele>
  <time>2026-09-02T22:11:34Z</time>
  <course>195.58</course>
  <speed>0.9121403400793103</speed>
  <fix>3d</fix>
</trkpt>
<trkpt lat="33.8106296" lon="-118.3937274">
  <ele>-24.46</ele>
  <time>2026-09-02T22:11:34Z</time>
  <course>193.98</course>
  <speed>0.94</speed>
  <fix>3d</fix>
</trkpt>
<trkpt lat="33.8106271" lon="-118.3937284">
  <ele>-25.071</ele>
  <time>2026-09-02T22:11:34Z</time>
  <course>195.6</course>
  <speed>0.9121403400793103</speed>
  <fix>3d</fix>
</trkpt>
<trkpt lat="33.8106279" lon="-118.3937279">
  <ele>-24.46</ele>
  <time>2026-09-02T22:11:34Z</time>
  <course>194.02</course>
  <speed>0.94</speed>
  <fix>3d</fix>
</trkpt>
<trkpt lat="33.8106262" lon="-118.3937287">
  <ele>-25.071</ele>
  <time>2026-09-02T22:11:34Z</time>
  <course>195.61</course>
  <speed>0.9121403400793103</speed>
  <fix>3d</fix>
</trkpt>
<trkpt lat="33.8106279" lon="-118.3937279">
  <ele>-24.46</ele>
  <time>2026-09-02T22:11:34Z</time>
  <course>194.02</course>
  <speed>0.94</speed>
  <fix>3d</fix>
</trkpt>
<trkpt lat="33.8106254" lon="-118.3937289">
  <ele>-25.071</ele>
  <time>2026-09-02T22:11:34Z</time>
  <course>195.63</course>
  <speed>0.9121403400793103</speed>
  <fix>3d</fix>
</trkpt>
<trkpt lat="33.8106263" lon="-118.3937284">
  <ele>-24.46</ele>
  <time>2026-09-02T22:11:34Z</time>
  <course>194.05</course>
  <speed>0.94</speed>
  <fix>3d</fix>
</trkpt>
<trkpt lat="33.8106246" lon="-118.3937291">
  <ele>-25.072</ele>
  <time>2026-09-02T22:11:34Z</time>
  <course>195.64</course>
  <speed>0.9217917335276988</speed>
  <fix>3d</fix>
</trkpt>
<trkpt lat="33.8106263" lon="-118.3937284">
  <ele>-24.46</ele>
  <time>2026-09-02T22:11:34Z</time>
  <course>194.05</course>
  <speed>0.94</speed>
  <fix>3d</fix>
</trkpt>
<trkpt lat="33.8106237" lon="-118.3937294">
  <ele>-25.072</ele>
  <time>2026-09-02T22:11:34Z</time>
  <course>195.65</course>
  <speed>0.9217917335276988</speed>
  <fix>3d</fix>
</trkpt>
<trkpt lat="33.8106247" lon="-118.3937289">
  <ele>-24.46</ele>
  <time>2026-09-02T22:11:34Z</time>
  <course>194.07</course>
  <speed>0.94</speed>
  <fix>3d</fix>
</trkpt>
<trkpt lat="33.8106229" lon="-118.3937296">
  <ele>-25.071</ele>
  <time>2026-09-02T22:11:34Z</time>
  <course>195.66</course>
  <speed>0.9217917335276988</speed>
  <fix>3d</fix>
</trkpt>
<trkpt lat="33.8106247" lon="-118.3937289">
  <ele>-24.46</ele>
  <time>2026-09-02T22:11:34Z</time>
  <course>194.07</course>
  <speed>0.94</speed>
  <fix>3d</fix>
</trkpt>
<trkpt lat="33.8106221" lon="-118.3937299">
  <ele>-25.07</ele>
  <time>2026-09-02T22:11:34Z</time>
  <course>195.65</course>
  <speed>0.9217917335276988</speed>
  <fix>3d</fix>
</trkpt>
<trkpt lat="33.810623" lon="-118.3937294">
  <ele>-24.46</ele>
  <time>2026-09-02T22:11:34Z</time>
  <course>194.08</course>
  <speed>0.94</speed>
  <fix>3d</fix>
</trkpt>
<trkpt lat="33.8106213" lon="-118.3937301">
  <ele>-25.069</ele>
  <time>2026-09-02T22:11:34Z</time>
  <course>195.63</course>
  <speed>0.9217917335276988</speed>
  <fix>3d</fix>
</trkpt>
<trkpt lat="33.810623" lon="-118.3937294">
  <ele>-24.46</ele>
  <time>2026-09-02T22:11:34Z</time>
  <course>194.08</course>
  <speed>0.94</speed>
  <fix>3d</fix>
</trkpt>
<trkpt lat="33.8106204" lon="-118.3937304">
  <ele>-25.067</ele>
  <time>2026-09-02T22:11:34Z</time>
  <course>195.62</course>
  <speed>0.9217917335276988</speed>
  <fix>3d</fix>
</trkpt>
<trkpt lat="33.8106213" lon="-118.3937299">
  <ele>-24.46</ele>
  <time>2026-09-02T22:11:34Z</time>
  <course>194.08</course>
  <speed>0.95</speed>
  <fix>3d</fix>
</trkpt>
<trkpt lat="33.8106196" lon="-118.3937306">
  <ele>-25.067</ele>
  <time>2026-09-02T22:11:34Z</time>
  <course>195.6</course>
  <speed>0.9217917335276988</speed>
  <fix>3d</fix>
</trkpt>
<trkpt lat="33.8106213" lon="-118.3937299">
  <ele>-24.46</ele>
  <time>2026-09-02T22:11:34Z</time>
  <course>194.08</course>
  <speed>0.95</speed>
  <fix>3d</fix>
</trkpt>
<trkpt lat="33.8106188" lon="-118.3937309">
  <ele>-25.067</ele>
  <time>2026-09-02T22:11:34Z</time>
  <course>195.59</course>
  <speed>0.9217917335276988</speed>
  <fix>3d</fix>
</trkpt>
<trkpt lat="33.8106197" lon="-118.3937304">
  <ele>-24.46</ele>
  <time>2026-09-02T22:11:34Z</time>
  <course>194.08</course>
  <speed>0.95</speed>
  <fix>3d</fix>
</trkpt>
<trkpt lat="33.8106179" lon="-118.3937311">
  <ele>-25.067</ele>
  <time>2026-09-02T22:11:34Z</time>
  <course>195.58</course>
  <speed>0.9217917335276988</speed>
  <fix>3d</fix>
</trkpt>
<trkpt lat="33.8106197" lon="-118.3937304">
  <ele>-24.46</ele>
  <time>2026-09-02T22:11:34Z</time>
  <course>194.08</course>
  <speed>0.95</speed>
  <fix>3d</fix>
</trkpt>
<trkpt lat="33.8106171" lon="-118.3937314">
  <ele>-25.067</ele>
  <time>2026-09-02T22:11:34Z</time>
  <course>195.57</course>
  <speed>0.9217917335276988</speed>
  <fix>3d</fix>
</trkpt>
<trkpt lat="33.810618" lon="-118.3937309">
  <ele>-24.46</ele>
  <time>2026-09-02T22:11:34Z</time>
  <course>194.06</course>
  <speed>0.95</speed>
  <fix>3d</fix>
</trkpt>
<trkpt lat="33.8106163" lon="-118.3937316">
  <ele>-25.067</ele>
  <time>2026-09-02T22:11:34Z</time>
  <course>195.56</course>
  <speed>0.9217917335276988</speed>
  <fix>3d</fix>
</trkpt>
<trkpt lat="33.810618" lon="-118.3937309">
  <ele>-24.46</ele>
  <time>2026-09-02T22:11:34Z</time>
  <course>194.06</course>
  <speed>0.95</speed>
  <fix>3d</fix>
</trkpt>
<trkpt lat="33.8106154" lon="-118.3937319">
  <ele>-25.067</ele>
  <time>2026-09-02T22:11:34Z</time>
  <course>195.55</course>
  <speed>0.9217917335276988</speed>
  <fix>3d</fix>
</trkpt>
<trkpt lat="33.8106164" lon="-118.3937314">
  <ele>-24.46</ele>
  <time>2026-09-02T22:11:34Z</time>
  <course>194.05</course>
  <speed>0.95</speed>
  <fix>3d</fix>
</trkpt>
<trkpt lat="33.8106146" lon="-118.3937321">
  <ele>-25.069</ele>
  <time>2026-09-02T22:11:34Z</time>
  <course>195.54</course>
  <speed>0.9217917335276988</speed>
  <fix>3d</fix>
</trkpt>
<trkpt lat="33.8106164" lon="-118.3937314">
  <ele>-24.46</ele>
  <time>2026-09-02T22:11:34Z</time>
  <course>194.05</course>
  <speed>0.95</speed>
  <fix>3d</fix>
</trkpt>
<trkpt lat="33.8106138" lon="-118.3937324">
  <ele>-25.07</ele>
  <time>2026-09-02T22:11:34Z</time>
  <course>195.53</course>
  <speed>0.9314504817756014</speed>
  <fix>3d</fix>
</trkpt>
<trkpt lat="33.8106147" lon="-118.3937319">
  <ele>-24.46</ele>
  <time>2026-09-02T22:11:34Z</time>
  <course>194.06</course>
  <speed>0.95</speed>
  <fix>3d</fix>
</trkpt>
<trkpt lat="33.8106129" lon="-118.3937326">
  <ele>-25.071</ele>
  <time>2026-09-02T22:11:34Z</time>
  <course>195.5</course>
  <speed>0.9314504817756014</speed>
  <fix>3d</fix>
</trkpt>
<trkpt lat="33.8106147" lon="-118.3937319">
  <ele>-24.46</ele>
  <time>2026-09-02T22:11:34Z</time>
  <course>194.06</course>
  <speed>0.95</speed>
  <fix>3d</fix>
</trkpt>
<trkpt lat="33.8106121" lon="-118.3937329">
  <ele>-25.071</ele>
  <time>2026-09-02T22:11:34Z</time>
  <course>195.49</course>
  <speed>0.9314504817756014</speed>
  <fix>3d</fix>
</trkpt>
<trkpt lat="33.810613" lon="-118.3937324">
  <ele>-24.46</ele>
  <time>2026-09-02T22:11:34Z</time>
  <course>194.04</course>
  <speed>0.95</speed>
  <fix>3d</fix>
</trkpt>
<trkpt lat="33.8106112" lon="-118.3937331">
  <ele>-25.071</ele>
  <time>2026-09-02T22:11:34Z</time>
  <course>195.48</course>
  <speed>0.9314504817756014</speed>
  <fix>3d</fix>
</trkpt>
<trkpt lat="33.810613" lon="-118.3937324">
  <ele>-24.46</ele>
  <time>2026-09-02T22:11:34Z</time>
  <course>194.04</course>
  <speed>0.95</speed>
  <fix>3d</fix>
</trkpt>
<trkpt lat="33.8106104" lon="-118.3937334">
  <ele>-25.071</ele>
  <time>2026-09-02T22:11:34Z</time>
  <course>195.47</course>
  <speed>0.9314504817756014</speed>
  <fix>3d</fix>
</trkpt>
<trkpt lat="33.8106114" lon="-118.3937329">
  <ele>-24.47</ele>
  <time>2026-09-02T22:11:34Z</time>
  <course>194.02</course>
  <speed>0.95</speed>
  <fix>3d</fix>
</trkpt>
<trkpt lat="33.8106096" lon="-118.3937336">
  <ele>-25.072</ele>
  <time>2026-09-02T22:11:34Z</time>
  <course>195.46</course>
  <speed>0.9314504817756014</speed>
  <fix>3d</fix>
</trkpt>
<trkpt lat="33.8106114" lon="-118.3937329">
  <ele>-24.47</ele>
  <time>2026-09-02T22:11:34Z</time>
  <course>194.02</course>
  <speed>0.95</speed>
  <fix>3d</fix>
</trkpt>
<trkpt lat="33.8106087" lon="-118.3937339">
  <ele>-25.073</ele>
  <time>2026-09-02T22:11:34Z</time>
  <course>195.45</course>
  <speed>0.9314504817756014</speed>
  <fix>3d</fix>
</trkpt>
<trkpt lat="33.8106097" lon="-118.3937334">
  <ele>-24.47</ele>
  <time>2026-09-02T22:11:34Z</time>
  <course>194.02</course>
  <speed>0.95</speed>
  <fix>3d</fix>
</trkpt>
<trkpt lat="33.8106079" lon="-118.3937341">
  <ele>-25.073</ele>
  <time>2026-09-02T22:11:34Z</time>
  <course>195.43</course>
  <speed>0.9314504817756014</speed>
  <fix>3d</fix>
</trkpt>
<trkpt lat="33.8106097" lon="-118.3937334">
  <ele>-24.47</ele>
  <time>2026-09-02T22:11:34Z</time>
  <course>194.02</course>
  <speed>0.95</speed>
  <fix>3d</fix>
</trkpt>
<trkpt lat="33.8106071" lon="-118.3937344">
  <ele>-25.074</ele>
  <time>2026-09-02T22:11:34Z</time>
  <course>195.43</course>
  <speed>0.9314504817756014</speed>
  <fix>3d</fix>
</trkpt>
<trkpt lat="33.810608" lon="-118.3937339">
  <ele>-24.47</ele>
  <time>2026-09-02T22:11:34Z</time>
  <course>194.01</course>
  <speed>0.96</speed>
  <fix>3d</fix>
</trkpt>
<trkpt lat="33.8106062" lon="-118.3937347">
  <ele>-25.075</ele>
  <time>2026-09-02T22:11:34Z</time>
  <course>195.41</course>
  <speed>0.9314504817756014</speed>
  <fix>3d</fix>
</trkpt>
<trkpt lat="33.810608" lon="-118.3937339">
  <ele>-24.47</ele>
  <time>2026-09-02T22:11:34Z</time>
  <course>194.01</course>
  <speed>0.96</speed>
  <fix>3d</fix>
</trkpt>
<trkpt lat="33.8106054" lon="-118.3937349">
  <ele>-25.075</ele>
  <time>2026-09-02T22:11:34Z</time>
  <course>195.4</course>
  <speed>0.9314504817756014</speed>
  <fix>3d</fix>
</trkpt>
<trkpt lat="33.8106063" lon="-118.3937345">
  <ele>-24.46</ele>
  <time>2026-09-02T22:11:34Z</time>
  <course>194.0</course>
  <speed>0.96</speed>
  <fix>3d</fix>
</trkpt>
<trkpt lat="33.8106045" lon="-118.3937352">
  <ele>-25.074</ele>
  <time>2026-09-02T22:11:34Z</time>
  <course>195.39</course>
  <speed>0.9314504817756014</speed>
  <fix>3d</fix>
</trkpt>
<trkpt lat="33.8106063" lon="-118.3937345">
  <ele>-24.46</ele>
  <time>2026-09-02T22:11:34Z</time>
  <course>194.0</course>
  <speed>0.96</speed>
  <fix>3d</fix>
</trkpt>
<trkpt lat="33.8106037" lon="-118.3937354">
  <ele>-25.072</ele>
  <time>2026-09-02T22:11:34Z</time>
  <course>195.37</course>
  <speed>0.9314504817756014</speed>
  <fix>3d</fix>
</trkpt>
<trkpt lat="33.8106047" lon="-118.393735">
  <ele>-24.46</ele>
  <time>2026-09-02T22:11:34Z</time>
  <course>193.97</course>
  <speed>0.96</speed>
  <fix>3d</fix>
</trkpt>
<trkpt lat="33.8106029" lon="-118.3937357">
  <ele>-25.07</ele>
  <time>2026-09-02T22:11:34Z</time>
  <course>195.33</course>
  <speed>0.9314504817756014</speed>
  <fix>3d</fix>
</trkpt>
<trkpt lat="33.8106047" lon="-118.393735">
  <ele>-24.46</ele>
  <time>2026-09-02T22:11:34Z</time>
  <course>193.97</course>
  <speed>0.96</speed>
  <fix>3d</fix>
</trkpt>
<trkpt lat="33.810602" lon="-118.3937359">
  <ele>-25.07</ele>
  <time>2026-09-02T22:11:34Z</time>
  <course>195.29</course>
  <speed>0.9314504817756014</speed>
  <fix>3d</fix>
</trkpt>
<trkpt lat="33.810603" lon="-118.3937355">
  <ele>-24.46</ele>
  <time>2026-09-02T22:11:34Z</time>
  <course>193.88</course>
  <speed>0.96</speed>
  <fix>3d</fix>
</trkpt>
<trkpt lat="33.8106012" lon="-118.3937362">
  <ele>-25.07</ele>
  <time>2026-09-02T22:11:34Z</time>
  <course>195.24</course>
  <speed>0.9314504817756014</speed>
  <fix>3d</fix>
</trkpt>
<trkpt lat="33.810603" lon="-118.3937355">
  <ele>-24.46</ele>
  <time>2026-09-02T22:11:34Z</time>
  <course>193.88</course>
  <speed>0.96</speed>
  <fix>3d</fix>
</trkpt>
<trkpt lat="33.8106003" lon="-118.3937364">
  <ele>-25.069</ele>
  <time>2026-09-02T22:11:34Z</time>
  <course>195.19</course>
  <speed>0.9411163583744573</speed>
  <fix>3d</fix>
</trkpt>
<trkpt lat="33.8106013" lon="-118.393736">
  <ele>-24.46</ele>
  <time>2026-09-02T22:11:34Z</time>
  <course>193.79</course>
  <speed>0.96</speed>
  <fix>3d</fix>
</trkpt>
<trkpt lat="33.8105995" lon="-118.3937367">
  <ele>-25.068</ele>
  <time>2026-09-02T22:11:34Z</time>
  <course>195.15</course>
  <speed>0.9411163583744573</speed>
  <fix>3d</fix>
</trkpt>
<trkpt lat="33.8106013" lon="-118.393736">
  <ele>-24.46</ele>
  <time>2026-09-02T22:11:34Z</time>
  <course>193.79</course>
  <speed>0.96</speed>
  <fix>3d</fix>
</trkpt>
<trkpt lat="33.8105986" lon="-118.3937369">
  <ele>-25.067</ele>
  <time>2026-09-02T22:11:34Z</time>
  <course>195.12</course>
  <speed>0.9411163583744573</speed>
  <fix>3d</fix>
</trkpt>
<trkpt lat="33.8105996" lon="-118.3937365">
  <ele>-24.46</ele>
  <time>2026-09-02T22:11:34Z</time>
  <course>193.74</course>
  <speed>0.96</speed>
  <fix>3d</fix>
</trkpt>
<trkpt lat="33.8105978" lon="-118.3937372">
  <ele>-25.066</ele>
  <time>2026-09-02T22:11:34Z</time>
  <course>195.1</course>
  <speed>0.9411163583744573</speed>
  <fix>3d</fix>
</trkpt>
<trkpt lat="33.8105996" lon="-118.3937365">
  <ele>-24.46</ele>
  <time>2026-09-02T22:11:34Z</time>
  <course>193.74</course>
  <speed>0.96</speed>
  <fix>3d</fix>
</trkpt>
<trkpt lat="33.8105969" lon="-118.3937374">
  <ele>-25.065</ele>
  <time>2026-09-02T22:11:34Z</time>
  <course>195.08</course>
  <speed>0.9411163583744573</speed>
  <fix>3d</fix>
</trkpt>
<trkpt lat="33.8105979" lon="-118.3937369">
  <ele>-24.46</ele>
  <time>2026-09-02T22:11:34Z</time>
  <course>193.71</course>
  <speed>0.96</speed>
  <fix>3d</fix>
</trkpt>
<trkpt lat="33.8105961" lon="-118.3937377">
  <ele>-25.065</ele>
  <time>2026-09-02T22:11:34Z</time>
  <course>195.08</course>
  <speed>0.9411163583744573</speed>
  <fix>3d</fix>
</trkpt>
<trkpt lat="33.8105979" lon="-118.3937369">
  <ele>-24.46</ele>
  <time>2026-09-02T22:11:34Z</time>
  <course>193.71</course>
  <speed>0.96</speed>
  <fix>3d</fix>
</trkpt>
<trkpt lat="33.8105952" lon="-118.3937379">
  <ele>-25.066</ele>
  <time>2026-09-02T22:11:34Z</time>
  <course>195.1</course>
  <speed>0.9411163583744573</speed>
  <fix>3d</fix>
</trkpt>
<trkpt lat="33.8105962" lon="-118.3937374">
  <ele>-24.46</ele>
  <time>2026-09-02T22:11:34Z</time>
  <course>193.73</course>
  <speed>0.96</speed>
  <fix>3d</fix>
</trkpt>
<trkpt lat="33.8105944" lon="-118.3937382">
  <ele>-25.069</ele>
  <time>2026-09-02T22:11:34Z</time>
  <course>195.13</course>
  <speed>0.9411163583744573</speed>
  <fix>3d</fix>
</trkpt>
<trkpt lat="33.8105962" lon="-118.3937374">
  <ele>-24.46</ele>
  <time>2026-09-02T22:11:34Z</time>
  <course>193.73</course>
  <speed>0.96</speed>
  <fix>3d</fix>
</trkpt>
<trkpt lat="33.8105936" lon="-118.3937384">
  <ele>-25.07</ele>
  <time>2026-09-02T22:11:34Z</time>
  <course>195.19</course>
  <speed>0.943716058992322</speed>
  <fix>3d</fix>
</trkpt>
<trkpt lat="33.8105945" lon="-118.3937379">
  <ele>-24.46</ele>
  <time>2026-09-02T22:11:34Z</time>
  <course>193.81</course>
  <speed>0.96</speed>
  <fix>3d</fix>
</trkpt>
<trkpt lat="33.8105927" lon="-118.3937387">
  <ele>-25.07</ele>
  <time>2026-09-02T22:11:34Z</time>
  <course>195.24</course>
  <speed>0.943716058992322</speed>
  <fix>3d</fix>
</trkpt>
<trkpt lat="33.8105945" lon="-118.3937379">
  <ele>-24.46</ele>
  <time>2026-09-02T22:11:34Z</time>
  <course>193.81</course>
  <speed>0.96</speed>
  <fix>3d</fix>
</trkpt>
<trkpt lat="33.8105919" lon="-118.3937389">
  <ele>-25.069</ele>
  <time>2026-09-02T22:11:35Z</time>
  <course>195.29</course>
  <speed>0.943716058992322</speed>
  <fix>3d</fix>
</trkpt>
<trkpt lat="33.8105929" lon="-118.3937384">
  <ele>-24.46</ele>
  <time>2026-09-02T22:11:35Z</time>
  <course>193.89</course>
  <speed>0.96</speed>
  <fix>3d</fix>
</trkpt>
<trkpt lat="33.810591" lon="-118.3937392">
  <ele>-25.069</ele>
  <time>2026-09-02T22:11:35Z</time>
  <course>195.33</course>
  <speed>0.943716058992322</speed>
  <fix>3d</fix>
</trkpt>
<trkpt lat="33.8105929" lon="-118.3937384">
  <ele>-24.46</ele>
  <time>2026-09-02T22:11:35Z</time>
  <course>193.89</course>
  <speed>0.96</speed>
  <fix>3d</fix>
</trkpt>
<trkpt lat="33.8105902" lon="-118.3937394">
  <ele>-25.068</ele>
  <time>2026-09-02T22:11:35Z</time>
  <course>195.37</course>
  <speed>0.943716058992322</speed>
  <fix>3d</fix>
</trkpt>
<trkpt lat="33.8105912" lon="-118.3937389">
  <ele>-24.46</ele>
  <time>2026-09-02T22:11:35Z</time>
  <course>193.96</course>
  <speed>0.96</speed>
  <fix>3d</fix>
</trkpt>
<trkpt lat="33.8105893" lon="-118.3937397">
  <ele>-25.068</ele>
  <time>2026-09-02T22:11:35Z</time>
  <course>195.39</course>
  <speed>0.943716058992322</speed>
  <fix>3d</fix>
</trkpt>
<trkpt lat="33.8105912" lon="-118.3937389">
  <ele>-24.46</ele>
  <time>2026-09-02T22:11:35Z</time>
  <course>193.96</course>
  <speed>0.96</speed>
  <fix>3d</fix>
</trkpt>
<trkpt lat="33.8105885" lon="-118.39374">
  <ele>-25.068</ele>
  <time>2026-09-02T22:11:35Z</time>
  <course>195.42</course>
  <speed>0.943716058992322</speed>
  <fix>3d</fix>
</trkpt>
<trkpt lat="33.8105895" lon="-118.3937395">
  <ele>-24.46</ele>
  <time>2026-09-02T22:11:35Z</time>
  <course>193.98</course>
  <speed>0.97</speed>
  <fix>3d</fix>
</trkpt>
<trkpt lat="33.8105876" lon="-118.3937402">
  <ele>-25.067</ele>
  <time>2026-09-02T22:11:35Z</time>
  <course>195.43</course>
  <speed>0.943716058992322</speed>
  <fix>3d</fix>
</trkpt>
<trkpt lat="33.8105895" lon="-118.3937395">
  <ele>-24.46</ele>
  <time>2026-09-02T22:11:35Z</time>
  <course>193.98</course>
  <speed>0.97</speed>
  <fix>3d</fix>
</trkpt>
<trkpt lat="33.8105868" lon="-118.3937405">
  <ele>-25.067</ele>
  <time>2026-09-02T22:11:35Z</time>
  <course>195.42</course>
  <speed>0.943716058992322</speed>
  <fix>3d</fix>
</trkpt>
<trkpt lat="33.8105878" lon="-118.39374">
  <ele>-24.46</ele>
  <time>2026-09-02T22:11:35Z</time>
  <course>193.95</course>
  <speed>0.97</speed>
  <fix>3d</fix>
</trkpt>
<trkpt lat="33.8105859" lon="-118.3937407">
  <ele>-25.067</ele>
  <time>2026-09-02T22:11:35Z</time>
  <course>195.39</course>
  <speed>0.943716058992322</speed>
  <fix>3d</fix>
</trkpt>
<trkpt lat="33.8105878" lon="-118.39374">
  <ele>-24.46</ele>
  <time>2026-09-02T22:11:35Z</time>
  <course>193.95</course>
  <speed>0.97</speed>
  <fix>3d</fix>
</trkpt>
<trkpt lat="33.8105851" lon="-118.393741">
  <ele>-25.068</ele>
  <time>2026-09-02T22:11:35Z</time>
  <course>195.37</course>
  <speed>0.9533624704172071</speed>
  <fix>3d</fix>
</trkpt>
<trkpt lat="33.8105861" lon="-118.3937405">
  <ele>-24.46</ele>
  <time>2026-09-02T22:11:35Z</time>
  <course>193.9</course>
  <speed>0.97</speed>
  <fix>3d</fix>
</trkpt>
<trkpt lat="33.8105842" lon="-118.3937412">
  <ele>-25.069</ele>
  <time>2026-09-02T22:11:35Z</time>
  <course>195.34</course>
  <speed>0.9533624704172071</speed>
  <fix>3d</fix>
</trkpt>
<trkpt lat="33.8105861" lon="-118.3937405">
  <ele>-24.46</ele>
  <time>2026-09-02T22:11:35Z</time>
  <course>193.9</course>
  <speed>0.97</speed>
  <fix>3d</fix>
</trkpt>
<trkpt lat="33.8105834" lon="-118.3937415">
  <ele>-25.07</ele>
  <time>2026-09-02T22:11:35Z</time>
  <course>195.32</course>
  <speed>0.9533624704172071</speed>
  <fix>3d</fix>
</trkpt>
<trkpt lat="33.8105844" lon="-118.393741">
  <ele>-24.46</ele>
  <time>2026-09-02T22:11:35Z</time>
  <course>193.86</course>
  <speed>0.97</speed>
  <fix>3d</fix>
</trkpt>
<trkpt lat="33.8105825" lon="-118.3937417">
  <ele>-25.069</ele>
  <time>2026-09-02T22:11:35Z</time>
  <course>195.29</course>
  <speed>0.9533624704172071</speed>
  <fix>3d</fix>
</trkpt>
<trkpt lat="33.8105844" lon="-118.393741">
  <ele>-24.46</ele>
  <time>2026-09-02T22:11:35Z</time>
  <course>193.86</course>
  <speed>0.97</speed>
  <fix>3d</fix>
</trkpt>
<trkpt lat="33.8105817" lon="-118.393742">
  <ele>-25.069</ele>
  <time>2026-09-02T22:11:35Z</time>
  <course>195.28</course>
  <speed>0.9533624704172071</speed>
  <fix>3d</fix>
</trkpt>
<trkpt lat="33.8105827" lon="-118.3937415">
  <ele>-24.47</ele>
  <time>2026-09-02T22:11:35Z</time>
  <course>193.82</course>
  <speed>0.97</speed>
  <fix>3d</fix>
</trkpt>
<trkpt lat="33.8105808" lon="-118.3937423">
  <ele>-25.07</ele>
  <time>2026-09-02T22:11:35Z</time>
  <course>195.27</course>
  <speed>0.9533624704172071</speed>
  <fix>3d</fix>
</trkpt>
<trkpt lat="33.8105827" lon="-118.3937415">
  <ele>-24.47</ele>
  <time>2026-09-02T22:11:35Z</time>
  <course>193.82</course>
  <speed>0.97</speed>
  <fix>3d</fix>
</trkpt>
<trkpt lat="33.81058" lon="-118.3937425">
  <ele>-25.072</ele>
  <time>2026-09-02T22:11:35Z</time>
  <course>195.26</course>
  <speed>0.9533624704172071</speed>
  <fix>3d</fix>
</trkpt>
<trkpt lat="33.810581" lon="-118.393742">
  <ele>-24.47</ele>
  <time>2026-09-02T22:11:35Z</time>
  <course>193.82</course>
  <speed>0.97</speed>
  <fix>3d</fix>
</trkpt>
<trkpt lat="33.8105791" lon="-118.3937428">
  <ele>-25.073</ele>
  <time>2026-09-02T22:11:35Z</time>
  <course>195.26</course>
  <speed>0.9533624704172071</speed>
  <fix>3d</fix>
</trkpt>
<trkpt lat="33.810581" lon="-118.393742">
  <ele>-24.47</ele>
  <time>2026-09-02T22:11:35Z</time>
  <course>193.82</course>
  <speed>0.97</speed>
  <fix>3d</fix>
</trkpt>
<trkpt lat="33.8105783" lon="-118.393743">
  <ele>-25.073</ele>
  <time>2026-09-02T22:11:35Z</time>
  <course>195.26</course>
  <speed>0.9533624704172071</speed>
  <fix>3d</fix>
</trkpt>
<trkpt lat="33.8105793" lon="-118.3937425">
  <ele>-24.47</ele>
  <time>2026-09-02T22:11:35Z</time>
  <course>193.85</course>
  <speed>0.98</speed>
  <fix>3d</fix>
</trkpt>
<trkpt lat="33.8105774" lon="-118.3937433">
  <ele>-25.072</ele>
  <time>2026-09-02T22:11:35Z</time>
  <course>195.26</course>
  <speed>0.9533624704172071</speed>
  <fix>3d</fix>
</trkpt>
<trkpt lat="33.8105793" lon="-118.3937425">
  <ele>-24.47</ele>
  <time>2026-09-02T22:11:35Z</time>
  <course>193.85</course>
  <speed>0.98</speed>
  <fix>3d</fix>
</trkpt>
<trkpt lat="33.8105765" lon="-118.3937435">
  <ele>-25.072</ele>
  <time>2026-09-02T22:11:35Z</time>
  <course>195.27</course>
  <speed>0.9533624704172071</speed>
  <fix>3d</fix>
</trkpt>
<trkpt lat="33.8105775" lon="-118.393743">
  <ele>-24.47</ele>
  <time>2026-09-02T22:11:35Z</time>
  <course>193.87</course>
  <speed>0.98</speed>
  <fix>3d</fix>
</trkpt>
<trkpt lat="33.8105757" lon="-118.3937438">
  <ele>-25.073</ele>
  <time>2026-09-02T22:11:35Z</time>
  <course>195.28</course>
  <speed>0.9533624704172071</speed>
  <fix>3d</fix>
</trkpt>
<trkpt lat="33.8105775" lon="-118.393743">
  <ele>-24.47</ele>
  <time>2026-09-02T22:11:35Z</time>
  <course>193.87</course>
  <speed>0.98</speed>
  <fix>3d</fix>
</trkpt>
<trkpt lat="33.8105748" lon="-118.393744">
  <ele>-25.072</ele>
  <time>2026-09-02T22:11:35Z</time>
  <course>195.3</course>
  <speed>0.9533624704172071</speed>
  <fix>3d</fix>
</trkpt>
<trkpt lat="33.8105758" lon="-118.3937435">
  <ele>-24.46</ele>
  <time>2026-09-02T22:11:35Z</time>
  <course>193.9</course>
  <speed>0.98</speed>
  <fix>3d</fix>
</trkpt>
<trkpt lat="33.810574" lon="-118.3937443">
  <ele>-25.071</ele>
  <time>2026-09-02T22:11:35Z</time>
  <course>195.32</course>
  <speed>0.9533624704172071</speed>
  <fix>3d</fix>
</trkpt>
<trkpt lat="33.8105758" lon="-118.3937435">
  <ele>-24.46</ele>
  <time>2026-09-02T22:11:35Z</time>
  <course>193.9</course>
  <speed>0.98</speed>
  <fix>3d</fix>
</trkpt>
<trkpt lat="33.8105731" lon="-118.3937445">
  <ele>-25.07</ele>
  <time>2026-09-02T22:11:35Z</time>
  <course>195.34</course>
  <speed>0.9533624704172071</speed>
  <fix>3d</fix>
</trkpt>
<trkpt lat="33.8105741" lon="-118.393744">
  <ele>-24.46</ele>
  <time>2026-09-02T22:11:35Z</time>
  <course>193.94</course>
  <speed>0.98</speed>
  <fix>3d</fix>
</trkpt>
<trkpt lat="33.8105723" lon="-118.3937448">
  <ele>-25.069</ele>
  <time>2026-09-02T22:11:35Z</time>
  <course>195.37</course>
  <speed>0.9533624704172071</speed>
  <fix>3d</fix>
</trkpt>
<trkpt lat="33.8105741" lon="-118.393744">
  <ele>-24.46</ele>
  <time>2026-09-02T22:11:35Z</time>
  <course>193.94</course>
  <speed>0.98</speed>
  <fix>3d</fix>
</trkpt>
<trkpt lat="33.8105714" lon="-118.3937451">
  <ele>-25.069</ele>
  <time>2026-09-02T22:11:35Z</time>
  <course>195.4</course>
  <speed>0.9533624704172071</speed>
  <fix>3d</fix>
</trkpt>
<trkpt lat="33.8105724" lon="-118.3937445">
  <ele>-24.46</ele>
  <time>2026-09-02T22:11:35Z</time>
  <course>193.99</course>
  <speed>0.98</speed>
  <fix>3d</fix>
</trkpt>
<trkpt lat="33.8105705" lon="-118.3937453">
  <ele>-25.069</ele>
  <time>2026-09-02T22:11:35Z</time>
  <course>195.42</course>
  <speed>0.9533624704172071</speed>
  <fix>3d</fix>
</trkpt>
<trkpt lat="33.8105724" lon="-118.3937445">
  <ele>-24.46</ele>
  <time>2026-09-02T22:11:35Z</time>
  <course>193.99</course>
  <speed>0.98</speed>
  <fix>3d</fix>
</trkpt>
<trkpt lat="33.8105697" lon="-118.3937456">
  <ele>-25.069</ele>
  <time>2026-09-02T22:11:35Z</time>
  <course>195.44</course>
  <speed>0.9533624704172071</speed>
  <fix>3d</fix>
</trkpt>
<trkpt lat="33.8105707" lon="-118.3937451">
  <ele>-24.46</ele>
  <time>2026-09-02T22:11:35Z</time>
  <course>194.03</course>
  <speed>0.98</speed>
  <fix>3d</fix>
</trkpt>
<trkpt lat="33.8105688" lon="-118.3937458">
  <ele>-25.069</ele>
  <time>2026-09-02T22:11:35Z</time>
  <course>195.46</course>
  <speed>0.9533624704172071</speed>
  <fix>3d</fix>
</trkpt>
<trkpt lat="33.8105707" lon="-118.3937451">
  <ele>-24.46</ele>
  <time>2026-09-02T22:11:35Z</time>
  <course>194.03</course>
  <speed>0.98</speed>
  <fix>3d</fix>
</trkpt>
<trkpt lat="33.810568" lon="-118.3937461">
  <ele>-25.068</ele>
  <time>2026-09-02T22:11:35Z</time>
  <course>195.46</course>
  <speed>0.9533624704172071</speed>
  <fix>3d</fix>
</trkpt>
<trkpt lat="33.810569" lon="-118.3937456">
  <ele>-24.45</ele>
  <time>2026-09-02T22:11:35Z</time>
  <course>194.03</course>
  <speed>0.98</speed>
  <fix>3d</fix>
</trkpt>
<trkpt lat="33.8105671" lon="-118.3937463">
  <ele>-25.067</ele>
  <time>2026-09-02T22:11:35Z</time>
  <course>195.44</course>
  <speed>0.9533624704172071</speed>
  <fix>3d</fix>
</trkpt>
<trkpt lat="33.810569" lon="-118.3937456">
  <ele>-24.45</ele>
  <time>2026-09-02T22:11:35Z</time>
  <course>194.03</course>
  <speed>0.98</speed>
  <fix>3d</fix>
</trkpt>
<trkpt lat="33.8105662" lon="-118.3937466">
  <ele>-25.065</ele>
  <time>2026-09-02T22:11:35Z</time>
  <course>195.41</course>
  <speed>0.9533624704172071</speed>
  <fix>3d</fix>
</trkpt>
<trkpt lat="33.8105673" lon="-118.3937461">
  <ele>-24.45</ele>
  <time>2026-09-02T22:11:35Z</time>
  <course>193.97</course>
  <speed>0.98</speed>
  <fix>3d</fix>
</trkpt>
<trkpt lat="33.8105654" lon="-118.3937469">
  <ele>-25.064</ele>
  <time>2026-09-02T22:11:35Z</time>
  <course>195.38</course>
  <speed>0.9533624704172071</speed>
  <fix>3d</fix>
</trkpt>
<trkpt lat="33.8105673" lon="-118.3937461">
  <ele>-24.45</ele>
  <time>2026-09-02T22:11:35Z</time>
  <course>193.97</course>
  <speed>0.98</speed>
  <fix>3d</fix>
</trkpt>
<trkpt lat="33.8105645" lon="-118.3937471">
  <ele>-25.062</ele>
  <time>2026-09-02T22:11:35Z</time>
  <course>195.37</course>
  <speed>0.9533624704172071</speed>
  <fix>3d</fix>
</trkpt>
<trkpt lat="33.8105655" lon="-118.3937466">
  <ele>-24.45</ele>
  <time>2026-09-02T22:11:35Z</time>
  <course>193.92</course>
  <speed>0.98</speed>
  <fix>3d</fix>
</trkpt>
<trkpt lat="33.8105637" lon="-118.3937474">
  <ele>-25.061</ele>
  <time>2026-09-02T22:11:35Z</time>
  <course>195.35</course>
  <speed>0.9533624704172071</speed>
  <fix>3d</fix>
</trkpt>
<trkpt lat="33.8105655" lon="-118.3937466">
  <ele>-24.45</ele>
  <time>2026-09-02T22:11:35Z</time>
  <course>193.92</course>
  <speed>0.98</speed>
  <fix>3d</fix>
</trkpt>
<trkpt lat="33.8105628" lon="-118.3937476">
  <ele>-25.061</ele>
  <time>2026-09-02T22:11:35Z</time>
  <course>195.35</course>
  <speed>0.9533624704172071</speed>
  <fix>3d</fix>
</trkpt>
<trkpt lat="33.8105638" lon="-118.3937471">
  <ele>-24.45</ele>
  <time>2026-09-02T22:11:35Z</time>
  <course>193.92</course>
  <speed>0.98</speed>
  <fix>3d</fix>
</trkpt>
<trkpt lat="33.8105619" lon="-118.3937479">
  <ele>-25.061</ele>
  <time>2026-09-02T22:11:35Z</time>
  <course>195.36</course>
  <speed>0.9533624704172071</speed>
  <fix>3d</fix>
</trkpt>
<trkpt lat="33.8105638" lon="-118.3937471">
  <ele>-24.45</ele>
  <time>2026-09-02T22:11:35Z</time>
  <course>193.92</course>
  <speed>0.98</speed>
  <fix>3d</fix>
</trkpt>
<trkpt lat="33.8105611" lon="-118.3937481">
  <ele>-25.062</ele>
  <time>2026-09-02T22:11:35Z</time>
  <course>195.37</course>
  <speed>0.9533624704172071</speed>
  <fix>3d</fix>
</trkpt>
<trkpt lat="33.8105621" lon="-118.3937476">
  <ele>-24.45</ele>
  <time>2026-09-02T22:11:35Z</time>
  <course>193.96</course>
  <speed>0.98</speed>
  <fix>3d</fix>
</trkpt>
<trkpt lat="33.8105602" lon="-118.3937484">
  <ele>-25.064</ele>
  <time>2026-09-02T22:11:35Z</time>
  <course>195.38</course>
  <speed>0.9533624704172071</speed>
  <fix>3d</fix>
</trkpt>
<trkpt lat="33.8105621" lon="-118.3937476">
  <ele>-24.45</ele>
  <time>2026-09-02T22:11:35Z</time>
  <course>193.96</course>
  <speed>0.98</speed>
  <fix>3d</fix>
</trkpt>
<trkpt lat="33.8105594" lon="-118.3937487">
  <ele>-25.065</ele>
  <time>2026-09-02T22:11:35Z</time>
  <course>195.39</course>
  <speed>0.9533624704172071</speed>
  <fix>3d</fix>
</trkpt>
<trkpt lat="33.8105604" lon="-118.3937481">
  <ele>-24.46</ele>
  <time>2026-09-02T22:11:35Z</time>
  <course>194.01</course>
  <speed>0.98</speed>
  <fix>3d</fix>
</trkpt>
<trkpt lat="33.8105585" lon="-118.3937489">
  <ele>-25.065</ele>
  <time>2026-09-02T22:11:35Z</time>
  <course>195.41</course>
  <speed>0.9533624704172071</speed>
  <fix>3d</fix>
</trkpt>
<trkpt lat="33.8105604" lon="-118.3937481">
  <ele>-24.46</ele>
  <time>2026-09-02T22:11:35Z</time>
  <course>194.01</course>
  <speed>0.98</speed>
  <fix>3d</fix>
</trkpt>
<trkpt lat="33.8105576" lon="-118.3937492">
  <ele>-25.067</ele>
  <time>2026-09-02T22:11:35Z</time>
  <course>195.42</course>
  <speed>0.9533624704172071</speed>
  <fix>3d</fix>
</trkpt>
<trkpt lat="33.8105587" lon="-118.3937487">
  <ele>-24.46</ele>
  <time>2026-09-02T22:11:35Z</time>
  <course>194.05</course>
  <speed>0.98</speed>
  <fix>3d</fix>
</trkpt>
<trkpt lat="33.8105568" lon="-118.3937494">
  <ele>-25.069</ele>
  <time>2026-09-02T22:11:35Z</time>
  <course>195.42</course>
  <speed>0.9630160954002794</speed>
  <fix>3d</fix>
</trkpt>
<trkpt lat="33.8105587" lon="-118.3937487">
  <ele>-24.46</ele>
  <time>2026-09-02T22:11:35Z</time>
  <course>194.05</course>
  <speed>0.98</speed>
  <fix>3d</fix>
</trkpt>
<trkpt lat="33.8105559" lon="-118.3937497">
  <ele>-25.071</ele>
  <time>2026-09-02T22:11:35Z</time>
  <course>195.41</course>
  <speed>0.9630160954002794</speed>
  <fix>3d</fix>
</trkpt>
<trkpt lat="33.810557" lon="-118.3937492">
  <ele>-24.47</ele>
  <time>2026-09-02T22:11:35Z</time>
  <course>194.04</course>
  <speed>0.98</speed>
  <fix>3d</fix>
</trkpt>
<trkpt lat="33.8105551" lon="-118.39375">
  <ele>-25.071</ele>
  <time>2026-09-02T22:11:35Z</time>
  <course>195.38</course>
  <speed>0.9630160954002794</speed>
  <fix>3d</fix>
</trkpt>
<trkpt lat="33.810557" lon="-118.3937492">
  <ele>-24.47</ele>
  <time>2026-09-02T22:11:35Z</time>
  <course>194.04</course>
  <speed>0.98</speed>
  <fix>3d</fix>
</trkpt>
<trkpt lat="33.8105542" lon="-118.3937502">
  <ele>-25.071</ele>
  <time>2026-09-02T22:11:35Z</time>
  <course>195.35</course>
  <speed>0.9630160954002794</speed>
  <fix>3d</fix>
</trkpt>
<trkpt lat="33.8105552" lon="-118.3937497">
  <ele>-24.47</ele>
  <time>2026-09-02T22:11:35Z</time>
  <course>193.97</course>
  <speed>0.98</speed>
  <fix>3d</fix>
</trkpt>
<trkpt lat="33.8105533" lon="-118.3937505">
  <ele>-25.072</ele>
  <time>2026-09-02T22:11:35Z</time>
  <course>195.33</course>
  <speed>0.9630160954002794</speed>
  <fix>3d</fix>
</trkpt>
<trkpt lat="33.8105552" lon="-118.3937497">
  <ele>-24.47</ele>
  <time>2026-09-02T22:11:35Z</time>
  <course>193.97</course>
  <speed>0.98</speed>
  <fix>3d</fix>
</trkpt>
<trkpt lat="33.8105525" lon="-118.3937507">
  <ele>-25.073</ele>
  <time>2026-09-02T22:11:35Z</time>
  <course>195.31</course>
  <speed>0.9630160954002794</speed>
  <fix>3d</fix>
</trkpt>
<trkpt lat="33.8105535" lon="-118.3937502">
  <ele>-24.47</ele>
  <time>2026-09-02T22:11:35Z</time>
  <course>193.94</course>
  <speed>0.99</speed>
  <fix>3d</fix>
</trkpt>
<trkpt lat="33.8105516" lon="-118.393751">
  <ele>-25.074</ele>
  <time>2026-09-02T22:11:35Z</time>
  <course>195.29</course>
  <speed>0.9630160954002794</speed>
  <fix>3d</fix>
</trkpt>
<trkpt lat="33.8105535" lon="-118.3937502">
  <ele>-24.47</ele>
  <time>2026-09-02T22:11:35Z</time>
  <course>193.94</course>
  <speed>0.99</speed>
  <fix>3d</fix>
</trkpt>
<trkpt lat="33.8105507" lon="-118.3937512">
  <ele>-25.073</ele>
  <time>2026-09-02T22:11:35Z</time>
  <course>195.28</course>
  <speed>0.9630160954002794</speed>
  <fix>3d</fix>
</trkpt>
<trkpt lat="33.8105518" lon="-118.3937507">
  <ele>-24.47</ele>
  <time>2026-09-02T22:11:35Z</time>
  <course>193.94</course>
  <speed>0.99</speed>
  <fix>3d</fix>
</trkpt>
<trkpt lat="33.8105499" lon="-118.3937515">
  <ele>-25.071</ele>
  <time>2026-09-02T22:11:35Z</time>
  <course>195.29</course>
  <speed>0.9630160954002794</speed>
  <fix>3d</fix>
</trkpt>
<trkpt lat="33.8105518" lon="-118.3937507">
  <ele>-24.47</ele>
  <time>2026-09-02T22:11:35Z</time>
  <course>193.94</course>
  <speed>0.99</speed>
  <fix>3d</fix>
</trkpt>
<trkpt lat="33.810549" lon="-118.3937518">
  <ele>-25.068</ele>
  <time>2026-09-02T22:11:35Z</time>
  <course>195.3</course>
  <speed>0.9630160954002794</speed>
  <fix>3d</fix>
</trkpt>
<trkpt lat="33.81055" lon="-118.3937513">
  <ele>-24.46</ele>
  <time>2026-09-02T22:11:35Z</time>
  <course>193.96</course>
  <speed>0.99</speed>
  <fix>3d</fix>
</trkpt>
<trkpt lat="33.8105482" lon="-118.393752">
  <ele>-25.067</ele>
  <time>2026-09-02T22:11:35Z</time>
  <course>195.3</course>
  <speed>0.9630160954002794</speed>
  <fix>3d</fix>
</trkpt>
<trkpt lat="33.81055" lon="-118.3937513">
  <ele>-24.46</ele>
  <time>2026-09-02T22:11:35Z</time>
  <course>193.96</course>
  <speed>0.99</speed>
  <fix>3d</fix>
</trkpt>
<trkpt lat="33.8105473" lon="-118.3937523">
  <ele>-25.067</ele>
  <time>2026-09-02T22:11:35Z</time>
  <course>195.29</course>
  <speed>0.9630160954002794</speed>
  <fix>3d</fix>
</trkpt>
<trkpt lat="33.8105483" lon="-118.3937518">
  <ele>-24.46</ele>
  <time>2026-09-02T22:11:35Z</time>
  <course>193.97</course>
  <speed>0.99</speed>
  <fix>3d</fix>
</trkpt>
<trkpt lat="33.8105464" lon="-118.3937525">
  <ele>-25.067</ele>
  <time>2026-09-02T22:11:35Z</time>
  <course>195.27</course>
  <speed>0.9630160954002794</speed>
  <fix>3d</fix>
</trkpt>
<trkpt lat="33.8105483" lon="-118.3937518">
  <ele>-24.46</ele>
  <time>2026-09-02T22:11:35Z</time>
  <course>193.97</course>
  <speed>0.99</speed>
  <fix>3d</fix>
</trkpt>
<trkpt lat="33.8105456" lon="-118.3937528">
  <ele>-25.068</ele>
  <time>2026-09-02T22:11:35Z</time>
  <course>195.26</course>
  <speed>0.9630160954002794</speed>
  <fix>3d</fix>
</trkpt>
<trkpt lat="33.8105465" lon="-118.3937523">
  <ele>-24.46</ele>
  <time>2026-09-02T22:11:35Z</time>
  <course>193.95</course>
  <speed>0.99</speed>
  <fix>3d</fix>
</trkpt>
<trkpt lat="33.8105447" lon="-118.3937531">
  <ele>-25.068</ele>
  <time>2026-09-02T22:11:35Z</time>
  <course>195.25</course>
  <speed>0.9630160954002794</speed>
  <fix>3d</fix>
</trkpt>
<trkpt lat="33.8105465" lon="-118.3937523">
  <ele>-24.46</ele>
  <time>2026-09-02T22:11:35Z</time>
  <course>193.95</course>
  <speed>0.99</speed>
  <fix>3d</fix>
</trkpt>
<trkpt lat="33.8105438" lon="-118.3937533">
  <ele>-25.068</ele>
  <time>2026-09-02T22:11:35Z</time>
  <course>195.24</course>
  <speed>0.9630160954002794</speed>
  <fix>3d</fix>
</trkpt>
<trkpt lat="33.8105448" lon="-118.3937528">
  <ele>-24.46</ele>
  <time>2026-09-02T22:11:35Z</time>
  <course>193.93</course>
  <speed>0.99</speed>
  <fix>3d</fix>
</trkpt>
<trkpt lat="33.810543" lon="-118.3937536">
  <ele>-25.068</ele>
  <time>2026-09-02T22:11:35Z</time>
  <course>195.24</course>
  <speed>0.9630160954002794</speed>
  <fix>3d</fix>
</trkpt>
<trkpt lat="33.8105448" lon="-118.3937528">
  <ele>-24.46</ele>
  <time>2026-09-02T22:11:35Z</time>
  <course>193.93</course>
  <speed>0.99</speed>
  <fix>3d</fix>
</trkpt>
<trkpt lat="33.8105421" lon="-118.3937538">
  <ele>-25.068</ele>
  <time>2026-09-02T22:11:35Z</time>
  <course>195.25</course>
  <speed>0.9630160954002794</speed>
  <fix>3d</fix>
</trkpt>
<trkpt lat="33.8105431" lon="-118.3937533">
  <ele>-24.46</ele>
  <time>2026-09-02T22:11:35Z</time>
  <course>193.95</course>
  <speed>0.99</speed>
  <fix>3d</fix>
</trkpt>
<trkpt lat="33.8105412" lon="-118.3937541">
  <ele>-25.069</ele>
  <time>2026-09-02T22:11:35Z</time>
  <course>195.26</course>
  <speed>0.9630160954002794</speed>
  <fix>3d</fix>
</trkpt>
<trkpt lat="33.8105431" lon="-118.3937533">
  <ele>-24.46</ele>
  <time>2026-09-02T22:11:35Z</time>
  <course>193.95</course>
  <speed>0.99</speed>
  <fix>3d</fix>
</trkpt>
<trkpt lat="33.8105404" lon="-118.3937544">
  <ele>-25.068</ele>
  <time>2026-09-02T22:11:35Z</time>
  <course>195.28</course>
  <speed>0.9630160954002794</speed>
  <fix>3d</fix>
</trkpt>
<trkpt lat="33.8105414" lon="-118.3937539">
  <ele>-24.46</ele>
  <time>2026-09-02T22:11:35Z</time>
  <course>193.97</course>
  <speed>0.99</speed>
  <fix>3d</fix>
</trkpt>
<trkpt lat="33.8105395" lon="-118.3937546">
  <ele>-25.067</ele>
  <time>2026-09-02T22:11:35Z</time>
  <course>195.29</course>
  <speed>0.9726767191621274</speed>
  <fix>3d</fix>
</trkpt>
<trkpt lat="33.8105414" lon="-118.3937539">
  <ele>-24.46</ele>
  <time>2026-09-02T22:11:35Z</time>
  <course>193.97</course>
  <speed>0.99</speed>
  <fix>3d</fix>
</trkpt>
<trkpt lat="33.8105386" lon="-118.3937549">
  <ele>-25.067</ele>
  <time>2026-09-02T22:11:35Z</time>
  <course>195.28</course>
  <speed>0.9726767191621274</speed>
  <fix>3d</fix>
</trkpt>
<trkpt lat="33.8105396" lon="-118.3937544">
  <ele>-24.46</ele>
  <time>2026-09-02T22:11:35Z</time>
  <course>193.95</course>
  <speed>1.0</speed>
  <fix>3d</fix>
</trkpt>
<trkpt lat="33.8105378" lon="-118.3937551">
  <ele>-25.066</ele>
  <time>2026-09-02T22:11:35Z</time>
  <course>195.26</course>
  <speed>0.9726767191621274</speed>
  <fix>3d</fix>
</trkpt>
<trkpt lat="33.8105396" lon="-118.3937544">
  <ele>-24.46</ele>
  <time>2026-09-02T22:11:35Z</time>
  <course>193.95</course>
  <speed>1.0</speed>
  <fix>3d</fix>
</trkpt>
<trkpt lat="33.8105369" lon="-118.3937554">
  <ele>-25.064</ele>
  <time>2026-09-02T22:11:35Z</time>
  <course>195.24</course>
  <speed>0.9726767191621274</speed>
  <fix>3d</fix>
</trkpt>
<trkpt lat="33.8105379" lon="-118.3937549">
  <ele>-24.45</ele>
  <time>2026-09-02T22:11:35Z</time>
  <course>193.91</course>
  <speed>1.0</speed>
  <fix>3d</fix>
</trkpt>
<trkpt lat="33.810536" lon="-118.3937557">
  <ele>-25.062</ele>
  <time>2026-09-02T22:11:35Z</time>
  <course>195.23</course>
  <speed>0.9726767191621274</speed>
  <fix>3d</fix>
</trkpt>
<trkpt lat="33.8105379" lon="-118.3937549">
  <ele>-24.45</ele>
  <time>2026-09-02T22:11:35Z</time>
  <course>193.91</course>
  <speed>1.0</speed>
  <fix>3d</fix>
</trkpt>
<trkpt lat="33.8105351" lon="-118.3937559">
  <ele>-25.062</ele>
  <time>2026-09-02T22:11:35Z</time>
  <course>195.22</course>
  <speed>0.9726767191621274</speed>
  <fix>3d</fix>
</trkpt>
<trkpt lat="33.8105361" lon="-118.3937554">
  <ele>-24.45</ele>
  <time>2026-09-02T22:11:35Z</time>
  <course>193.89</course>
  <speed>1.0</speed>
  <fix>3d</fix>
</trkpt>
<trkpt lat="33.8105343" lon="-118.3937562">
  <ele>-25.061</ele>
  <time>2026-09-02T22:11:35Z</time>
  <course>195.22</course>
  <speed>0.9726767191621274</speed>
  <fix>3d</fix>
</trkpt>
<trkpt lat="33.8105361" lon="-118.3937554">
  <ele>-24.45</ele>
  <time>2026-09-02T22:11:35Z</time>
  <course>193.89</course>
  <speed>1.0</speed>
  <fix>3d</fix>
</trkpt>
<trkpt lat="33.8105334" lon="-118.3937564">
  <ele>-25.061</ele>
  <time>2026-09-02T22:11:35Z</time>
  <course>195.23</course>
  <speed>0.9726767191621274</speed>
  <fix>3d</fix>
</trkpt>
<trkpt lat="33.8105343" lon="-118.3937559">
  <ele>-24.45</ele>
  <time>2026-09-02T22:11:35Z</time>
  <course>193.91</course>
  <speed>1.0</speed>
  <fix>3d</fix>
</trkpt>
<trkpt lat="33.8105325" lon="-118.3937567">
  <ele>-25.063</ele>
  <time>2026-09-02T22:11:35Z</time>
  <course>195.25</course>
  <speed>0.9630160954002794</speed>
  <fix>3d</fix>
</trkpt>
<trkpt lat="33.8105343" lon="-118.3937559">
  <ele>-24.45</ele>
  <time>2026-09-02T22:11:35Z</time>
  <course>193.91</course>
  <speed>1.0</speed>
  <fix>3d</fix>
</trkpt>
<trkpt lat="33.8105316" lon="-118.393757">
  <ele>-25.065</ele>
  <time>2026-09-02T22:11:35Z</time>
  <course>195.27</course>
  <speed>0.9630160954002794</speed>
  <fix>3d</fix>
</trkpt>
<trkpt lat="33.8105326" lon="-118.3937565">
  <ele>-24.46</ele>
  <time>2026-09-02T22:11:35Z</time>
  <course>193.96</course>
  <speed>1.0</speed>
  <fix>3d</fix>
</trkpt>
<trkpt lat="33.8105308" lon="-118.3937572">
  <ele>-25.066</ele>
  <time>2026-09-02T22:11:35Z</time>
  <course>195.3</course>
  <speed>0.9630160954002794</speed>
  <fix>3d</fix>
</trkpt>
<trkpt lat="33.8105326" lon="-118.3937565">
  <ele>-24.46</ele>
  <time>2026-09-02T22:11:35Z</time>
  <course>193.96</course>
  <speed>1.0</speed>
  <fix>3d</fix>
</trkpt>
<trkpt lat="33.8105299" lon="-118.3937575">
  <ele>-25.066</ele>
  <time>2026-09-02T22:11:35Z</time>
  <course>195.31</course>
  <speed>0.9630160954002794</speed>
  <fix>3d</fix>
</trkpt>
<trkpt lat="33.8105309" lon="-118.393757">
  <ele>-24.46</ele>
  <time>2026-09-02T22:11:35Z</time>
  <course>193.99</course>
  <speed>1.0</speed>
  <fix>3d</fix>
</trkpt>
<trkpt lat="33.810529" lon="-118.3937577">
  <ele>-25.067</ele>
  <time>2026-09-02T22:11:35Z</time>
  <course>195.3</course>
  <speed>0.9630160954002794</speed>
  <fix>3d</fix>
</trkpt>
<trkpt lat="33.8105309" lon="-118.393757">
  <ele>-24.46</ele>
  <time>2026-09-02T22:11:35Z</time>
  <course>193.99</course>
  <speed>1.0</speed>
  <fix>3d</fix>
</trkpt>
<trkpt lat="33.8105282" lon="-118.393758">
  <ele>-25.068</ele>
  <time>2026-09-02T22:11:35Z</time>
  <course>195.3</course>
  <speed>0.9630160954002794</speed>
  <fix>3d</fix>
</trkpt>
<trkpt lat="33.8105291" lon="-118.3937575">
  <ele>-24.46</ele>
  <time>2026-09-02T22:11:35Z</time>
  <course>193.97</course>
  <speed>0.99</speed>
  <fix>3d</fix>
</trkpt>
<trkpt lat="33.8105273" lon="-118.3937583">
  <ele>-25.069</ele>
  <time>2026-09-02T22:11:35Z</time>
  <course>195.27</course>
  <speed>0.9630160954002794</speed>
  <fix>3d</fix>
</trkpt>
<trkpt lat="33.8105291" lon="-118.3937575">
  <ele>-24.46</ele>
  <time>2026-09-02T22:11:35Z</time>
  <course>193.97</course>
  <speed>0.99</speed>
  <fix>3d</fix>
</trkpt>
<trkpt lat="33.8105264" lon="-118.3937585">
  <ele>-25.069</ele>
  <time>2026-09-02T22:11:35Z</time>
  <course>195.27</course>
  <speed>0.9630160954002794</speed>
  <fix>3d</fix>
</trkpt>
<trkpt lat="33.8105274" lon="-118.393758">
  <ele>-24.46</ele>
  <time>2026-09-02T22:11:35Z</time>
  <course>193.96</course>
  <speed>0.99</speed>
  <fix>3d</fix>
</trkpt>
<trkpt lat="33.8105255" lon="-118.3937588">
  <ele>-25.069</ele>
  <time>2026-09-02T22:11:35Z</time>
  <course>195.27</course>
  <speed>0.9630160954002794</speed>
  <fix>3d</fix>
</trkpt>
<trkpt lat="33.8105274" lon="-118.393758">
  <ele>-24.46</ele>
  <time>2026-09-02T22:11:35Z</time>
  <course>193.96</course>
  <speed>0.99</speed>
  <fix>3d</fix>
</trkpt>
<trkpt lat="33.8105247" lon="-118.393759">
  <ele>-25.068</ele>
  <time>2026-09-02T22:11:35Z</time>
  <course>195.28</course>
  <speed>0.9630160954002794</speed>
  <fix>3d</fix>
</trkpt>
<trkpt lat="33.8105257" lon="-118.3937585">
  <ele>-24.46</ele>
  <time>2026-09-02T22:11:35Z</time>
  <course>193.97</course>
  <speed>0.99</speed>
  <fix>3d</fix>
</trkpt>
<trkpt lat="33.8105238" lon="-118.3937593">
  <ele>-25.068</ele>
  <time>2026-09-02T22:11:35Z</time>
  <course>195.29</course>
  <speed>0.9630160954002794</speed>
  <fix>3d</fix>
</trkpt>
<trkpt lat="33.8105257" lon="-118.3937585">
  <ele>-24.46</ele>
  <time>2026-09-02T22:11:35Z</time>
  <course>193.97</course>
  <speed>0.99</speed>
  <fix>3d</fix>
</trkpt>
<trkpt lat="33.8105229" lon="-118.3937596">
  <ele>-25.069</ele>
  <time>2026-09-02T22:11:35Z</time>
  <course>195.31</course>
  <speed>0.9630160954002794</speed>
  <fix>3d</fix>
</trkpt>
<trkpt lat="33.8105239" lon="-118.3937591">
  <ele>-24.46</ele>
  <time>2026-09-02T22:11:35Z</time>
  <course>193.98</course>
  <speed>0.99</speed>
  <fix>3d</fix>
</trkpt>
<trkpt lat="33.8105221" lon="-118.3937598">
  <ele>-25.069</ele>
  <time>2026-09-02T22:11:35Z</time>
  <course>195.31</course>
  <speed>0.9630160954002794</speed>
  <fix>3d</fix>
</trkpt>
<trkpt lat="33.8105239" lon="-118.3937591">
  <ele>-24.46</ele>
  <time>2026-09-02T22:11:35Z</time>
  <course>193.98</course>
  <speed>0.99</speed>
  <fix>3d</fix>
</trkpt>
<trkpt lat="33.8105212" lon="-118.3937601">
  <ele>-25.069</ele>
  <time>2026-09-02T22:11:35Z</time>
  <course>195.31</course>
  <speed>0.9630160954002794</speed>
  <fix>3d</fix>
</trkpt>
<trkpt lat="33.8105221" lon="-118.3937596">
  <ele>-24.46</ele>
  <time>2026-09-02T22:11:35Z</time>
  <course>193.98</course>
  <speed>0.99</speed>
  <fix>3d</fix>
</trkpt>
<trkpt lat="33.8105203" lon="-118.3937603">
  <ele>-25.069</ele>
  <time>2026-09-02T22:11:35Z</time>
  <course>195.3</course>
  <speed>0.9630160954002794</speed>
  <fix>3d</fix>
</trkpt>
<trkpt lat="33.8105221" lon="-118.3937596">
  <ele>-24.46</ele>
  <time>2026-09-02T22:11:35Z</time>
  <course>193.98</course>
  <speed>0.99</speed>
  <fix>3d</fix>
</trkpt>
<trkpt lat="33.8105194" lon="-118.3937606">
  <ele>-25.068</ele>
  <time>2026-09-02T22:11:35Z</time>
  <course>195.3</course>
  <speed>0.9630160954002794</speed>
  <fix>3d</fix>
</trkpt>
<trkpt lat="33.8105204" lon="-118.3937601">
  <ele>-24.46</ele>
  <time>2026-09-02T22:11:35Z</time>
  <course>193.97</course>
  <speed>0.99</speed>
  <fix>3d</fix>
</trkpt>
<trkpt lat="33.8105186" lon="-118.3937609">
  <ele>-25.066</ele>
  <time>2026-09-02T22:11:35Z</time>
  <course>195.29</course>
  <speed>0.9630160954002794</speed>
  <fix>3d</fix>
</trkpt>
<trkpt lat="33.8105204" lon="-118.3937601">
  <ele>-24.46</ele>
  <time>2026-09-02T22:11:35Z</time>
  <course>193.97</course>
  <speed>0.99</speed>
  <fix>3d</fix>
</trkpt>
<trkpt lat="33.8105177" lon="-118.3937611">
  <ele>-25.065</ele>
  <time>2026-09-02T22:11:35Z</time>
  <course>195.29</course>
  <speed>0.9630160954002794</speed>
  <fix>3d</fix>
</trkpt>
<trkpt lat="33.8105187" lon="-118.3937606">
  <ele>-24.45</ele>
  <time>2026-09-02T22:11:35Z</time>
  <course>193.98</course>
  <speed>0.99</speed>
  <fix>3d</fix>
</trkpt>
<trkpt lat="33.8105168" lon="-118.3937614">
  <ele>-25.063</ele>
  <time>2026-09-02T22:11:35Z</time>
  <course>195.3</course>
  <speed>0.9630160954002794</speed>
  <fix>3d</fix>
</trkpt>
<trkpt lat="33.8105187" lon="-118.3937606">
  <ele>-24.45</ele>
  <time>2026-09-02T22:11:35Z</time>
  <course>193.98</course>
  <speed>0.99</speed>
  <fix>3d</fix>
</trkpt>
<trkpt lat="33.810516" lon="-118.3937617">
  <ele>-25.062</ele>
  <time>2026-09-02T22:11:35Z</time>
  <course>195.3</course>
  <speed>0.9630160954002794</speed>
  <fix>3d</fix>
</trkpt>
<trkpt lat="33.8105169" lon="-118.3937612">
  <ele>-24.45</ele>
  <time>2026-09-02T22:11:35Z</time>
  <course>194.0</course>
  <speed>0.99</speed>
  <fix>3d</fix>
</trkpt>
<trkpt lat="33.8105151" lon="-118.3937619">
  <ele>-25.061</ele>
  <time>2026-09-02T22:11:35Z</time>
  <course>195.3</course>
  <speed>0.9630160954002794</speed>
  <fix>3d</fix>
</trkpt>
<trkpt lat="33.8105169" lon="-118.3937612">
  <ele>-24.45</ele>
  <time>2026-09-02T22:11:35Z</time>
  <course>194.0</course>
  <speed>0.99</speed>
  <fix>3d</fix>
</trkpt>
<trkpt lat="33.8105142" lon="-118.3937622">
  <ele>-25.062</ele>
  <time>2026-09-02T22:11:35Z</time>
  <course>195.3</course>
  <speed>0.9630160954002794</speed>
  <fix>3d</fix>
</trkpt>
<trkpt lat="33.8105152" lon="-118.3937617">
  <ele>-24.45</ele>
  <time>2026-09-02T22:11:35Z</time>
  <course>193.99</course>
  <speed>0.99</speed>
  <fix>3d</fix>
</trkpt>
<trkpt lat="33.8105133" lon="-118.3937624">
  <ele>-25.062</ele>
  <time>2026-09-02T22:11:35Z</time>
  <course>195.28</course>
  <speed>0.9630160954002794</speed>
  <fix>3d</fix>
</trkpt>
<trkpt lat="33.8105152" lon="-118.3937617">
  <ele>-24.45</ele>
  <time>2026-09-02T22:11:35Z</time>
  <course>193.99</course>
  <speed>0.99</speed>
  <fix>3d</fix>
</trkpt>
<trkpt lat="33.8105125" lon="-118.3937627">
  <ele>-25.063</ele>
  <time>2026-09-02T22:11:35Z</time>
  <course>195.27</course>
  <speed>0.9726767191621274</speed>
  <fix>3d</fix>
</trkpt>
<trkpt lat="33.8105135" lon="-118.3937622">
  <ele>-24.45</ele>
  <time>2026-09-02T22:11:35Z</time>
  <course>193.95</course>
  <speed>0.99</speed>
  <fix>3d</fix>
</trkpt>
<trkpt lat="33.8105116" lon="-118.393763">
  <ele>-25.063</ele>
  <time>2026-09-02T22:11:35Z</time>
  <course>195.25</course>
  <speed>0.9630160954002794</speed>
  <fix>3d</fix>
</trkpt>
<trkpt lat="33.8105135" lon="-118.3937622">
  <ele>-24.45</ele>
  <time>2026-09-02T22:11:35Z</time>
  <course>193.95</course>
  <speed>0.99</speed>
  <fix>3d</fix>
</trkpt>
<trkpt lat="33.8105107" lon="-118.3937632">
  <ele>-25.065</ele>
  <time>2026-09-02T22:11:35Z</time>
  <course>195.24</course>
  <speed>0.9726767191621274</speed>
  <fix>3d</fix>
</trkpt>
<trkpt lat="33.8105117" lon="-118.3937627">
  <ele>-24.45</ele>
  <time>2026-09-02T22:11:35Z</time>
  <course>193.93</course>
  <speed>0.99</speed>
  <fix>3d</fix>
</trkpt>
<trkpt lat="33.8105099" lon="-118.3937635">
  <ele>-25.066</ele>
  <time>2026-09-02T22:11:35Z</time>
  <course>195.23</course>
  <speed>0.9726767191621274</speed>
  <fix>3d</fix>
</trkpt>
<trkpt lat="33.8105117" lon="-118.3937627">
  <ele>-24.45</ele>
  <time>2026-09-02T22:11:35Z</time>
  <course>193.93</course>
  <speed>0.99</speed>
  <fix>3d</fix>
</trkpt>
<trkpt lat="33.810509" lon="-118.3937637">
  <ele>-25.067</ele>
  <time>2026-09-02T22:11:35Z</time>
  <course>195.23</course>
  <speed>0.9726767191621274</speed>
  <fix>3d</fix>
</trkpt>
<trkpt lat="33.81051" lon="-118.3937632">
  <ele>-24.46</ele>
  <time>2026-09-02T22:11:35Z</time>
  <course>193.93</course>
  <speed>0.99</speed>
  <fix>3d</fix>
</trkpt>
<trkpt lat="33.8105081" lon="-118.393764">
  <ele>-25.067</ele>
  <time>2026-09-02T22:11:35Z</time>
  <course>195.24</course>
  <speed>0.9726767191621274</speed>
  <fix>3d</fix>
</trkpt>
<trkpt lat="33.81051" lon="-118.3937632">
  <ele>-24.46</ele>
  <time>2026-09-02T22:11:35Z</time>
  <course>193.93</course>
  <speed>0.99</speed>
  <fix>3d</fix>
</trkpt>
<trkpt lat="33.8105073" lon="-118.3937643">
  <ele>-25.067</ele>
  <time>2026-09-02T22:11:35Z</time>
  <course>195.26</course>
  <speed>0.9726767191621274</speed>
  <fix>3d</fix>
</trkpt>
<trkpt lat="33.8105082" lon="-118.3937637">
  <ele>-24.46</ele>
  <time>2026-09-02T22:11:35Z</time>
  <course>193.95</course>
  <speed>0.99</speed>
  <fix>3d</fix>
</trkpt>
<trkpt lat="33.8105064" lon="-118.3937645">
  <ele>-25.068</ele>
  <time>2026-09-02T22:11:35Z</time>
  <course>195.28</course>
  <speed>0.9630160954002794</speed>
  <fix>3d</fix>
</trkpt>
<trkpt lat="33.8105082" lon="-118.3937637">
  <ele>-24.46</ele>
  <time>2026-09-02T22:11:35Z</time>
  <course>193.95</course>
  <speed>0.99</speed>
  <fix>3d</fix>
</trkpt>
<trkpt lat="33.8105055" lon="-118.3937648">
  <ele>-25.069</ele>
  <time>2026-09-02T22:11:35Z</time>
  <course>195.32</course>
  <speed>0.9726767191621274</speed>
  <fix>3d</fix>
</trkpt>
<trkpt lat="33.8105065" lon="-118.3937643">
  <ele>-24.46</ele>
  <time>2026-09-02T22:11:35Z</time>
  <course>194.0</course>
  <speed>0.99</speed>
  <fix>3d</fix>
</trkpt>
<trkpt lat="33.8105046" lon="-118.393765">
  <ele>-25.07</ele>
  <time>2026-09-02T22:11:35Z</time>
  <course>195.34</course>
  <speed>0.9630160954002794</speed>
  <fix>3d</fix>
</trkpt>
<trkpt lat="33.8105065" lon="-118.3937643">
  <ele>-24.46</ele>
  <time>2026-09-02T22:11:35Z</time>
  <course>194.0</course>
  <speed>0.99</speed>
  <fix>3d</fix>
</trkpt>
<trkpt lat="33.8105038" lon="-118.3937653">
  <ele>-25.07</ele>
  <time>2026-09-02T22:11:35Z</time>
  <course>195.35</course>
  <speed>0.9726767191621274</speed>
  <fix>3d</fix>
</trkpt>
<trkpt lat="33.8105048" lon="-118.3937648">
  <ele>-24.46</ele>
  <time>2026-09-02T22:11:35Z</time>
  <course>194.03</course>
  <speed>0.99</speed>
  <fix>3d</fix>
</trkpt>
<trkpt lat="33.8105029" lon="-118.3937656">
  <ele>-25.07</ele>
  <time>2026-09-02T22:11:35Z</time>
  <course>195.34</course>
  <speed>0.9726767191621274</speed>
  <fix>3d</fix>
</trkpt>
<trkpt lat="33.8105048" lon="-118.3937648">
  <ele>-24.46</ele>
  <time>2026-09-02T22:11:35Z</time>
  <course>194.03</course>
  <speed>0.99</speed>
  <fix>3d</fix>
</trkpt>
<trkpt lat="33.810502" lon="-118.3937658">
  <ele>-25.069</ele>
  <time>2026-09-02T22:11:35Z</time>
  <course>195.32</course>
  <speed>0.9726767191621274</speed>
  <fix>3d</fix>
</trkpt>
<trkpt lat="33.810503" lon="-118.3937653">
  <ele>-24.45</ele>
  <time>2026-09-02T22:11:35Z</time>
  <course>193.99</course>
  <speed>0.99</speed>
  <fix>3d</fix>
</trkpt>
<trkpt lat="33.8105012" lon="-118.3937661">
  <ele>-25.068</ele>
  <time>2026-09-02T22:11:35Z</time>
  <course>195.3</course>
  <speed>0.9726767191621274</speed>
  <fix>3d</fix>
</trkpt>
<trkpt lat="33.810503" lon="-118.3937653">
  <ele>-24.45</ele>
  <time>2026-09-02T22:11:35Z</time>
  <course>193.99</course>
  <speed>0.99</speed>
  <fix>3d</fix>
</trkpt>
<trkpt lat="33.8105003" lon="-118.3937663">
  <ele>-25.067</ele>
  <time>2026-09-02T22:11:35Z</time>
  <course>195.3</course>
  <speed>0.9726767191621274</speed>
  <fix>3d</fix>
</trkpt>
<trkpt lat="33.8105013" lon="-118.3937659">
  <ele>-24.45</ele>
  <time>2026-09-02T22:11:35Z</time>
  <course>193.96</course>
  <speed>1.0</speed>
  <fix>3d</fix>
</trkpt>
<trkpt lat="33.8104994" lon="-118.3937666">
  <ele>-25.066</ele>
  <time>2026-09-02T22:11:35Z</time>
  <course>195.3</course>
  <speed>0.9726767191621274</speed>
  <fix>3d</fix>
</trkpt>
<trkpt lat="33.8105013" lon="-118.3937659">
  <ele>-24.45</ele>
  <time>2026-09-02T22:11:35Z</time>
  <course>193.96</course>
  <speed>1.0</speed>
  <fix>3d</fix>
</trkpt>
<trkpt lat="33.8104985" lon="-118.3937669">
  <ele>-25.066</ele>
  <time>2026-09-02T22:11:35Z</time>
  <course>195.28</course>
  <speed>0.9726767191621274</speed>
  <fix>3d</fix>
</trkpt>
<trkpt lat="33.8104995" lon="-118.3937664">
  <ele>-24.45</ele>
  <time>2026-09-02T22:11:35Z</time>
  <course>193.95</course>
  <speed>1.0</speed>
  <fix>3d</fix>
</trkpt>
<trkpt lat="33.8104977" lon="-118.3937671">
  <ele>-25.066</ele>
  <time>2026-09-02T22:11:35Z</time>
  <course>195.26</course>
  <speed>0.9726767191621274</speed>
  <fix>3d</fix>
</trkpt>
<trkpt lat="33.8104995" lon="-118.3937664">
  <ele>-24.45</ele>
  <time>2026-09-02T22:11:35Z</time>
  <course>193.95</course>
  <speed>1.0</speed>
  <fix>3d</fix>
</trkpt>
<trkpt lat="33.8104968" lon="-118.3937674">
  <ele>-25.065</ele>
  <time>2026-09-02T22:11:35Z</time>
  <course>195.24</course>
  <speed>0.9726767191621274</speed>
  <fix>3d</fix>
</trkpt>
<trkpt lat="33.8104978" lon="-118.3937669">
  <ele>-24.44</ele>
  <time>2026-09-02T22:11:35Z</time>
  <course>193.9</course>
  <speed>1.0</speed>
  <fix>3d</fix>
</trkpt>
<trkpt lat="33.8104959" lon="-118.3937677">
  <ele>-25.062</ele>
  <time>2026-09-02T22:11:35Z</time>
  <course>195.22</course>
  <speed>0.9726767191621274</speed>
  <fix>3d</fix>
</trkpt>
<trkpt lat="33.8104978" lon="-118.3937669">
  <ele>-24.44</ele>
  <time>2026-09-02T22:11:35Z</time>
  <course>193.9</course>
  <speed>1.0</speed>
  <fix>3d</fix>
</trkpt>
<trkpt lat="33.810495" lon="-118.3937679">
  <ele>-25.06</ele>
  <time>2026-09-02T22:11:35Z</time>
  <course>195.21</course>
  <speed>0.9726767191621274</speed>
  <fix>3d</fix>
</trkpt>
<trkpt lat="33.810496" lon="-118.3937674">
  <ele>-24.44</ele>
  <time>2026-09-02T22:11:35Z</time>
  <course>193.87</course>
  <speed>0.99</speed>
  <fix>3d</fix>
</trkpt>
<trkpt lat="33.8104942" lon="-118.3937682">
  <ele>-25.058</ele>
  <time>2026-09-02T22:11:35Z</time>
  <course>195.2</course>
  <speed>0.9726767191621274</speed>
  <fix>3d</fix>
</trkpt>
<trkpt lat="33.810496" lon="-118.3937674">
  <ele>-24.44</ele>
  <time>2026-09-02T22:11:35Z</time>
  <course>193.87</course>
  <speed>0.99</speed>
  <fix>3d</fix>
</trkpt>
<trkpt lat="33.8104933" lon="-118.3937684">
  <ele>-25.058</ele>
  <time>2026-09-02T22:11:35Z</time>
  <course>195.21</course>
  <speed>0.9726767191621274</speed>
  <fix>3d</fix>
</trkpt>
<trkpt lat="33.8104943" lon="-118.3937679">
  <ele>-24.44</ele>
  <time>2026-09-02T22:11:35Z</time>
  <course>193.89</course>
  <speed>0.99</speed>
  <fix>3d</fix>
</trkpt>
<trkpt lat="33.8104924" lon="-118.3937687">
  <ele>-25.059</ele>
  <time>2026-09-02T22:11:35Z</time>
  <course>195.23</course>
  <speed>0.9726767191621274</speed>
  <fix>3d</fix>
</trkpt>
<trkpt lat="33.8104943" lon="-118.3937679">
  <ele>-24.44</ele>
  <time>2026-09-02T22:11:35Z</time>
  <course>193.89</course>
  <speed>0.99</speed>
  <fix>3d</fix>
</trkpt>
<trkpt lat="33.8104916" lon="-118.393769">
  <ele>-25.059</ele>
  <time>2026-09-02T22:11:35Z</time>
  <course>195.25</course>
  <speed>0.9726767191621274</speed>
  <fix>3d</fix>
</trkpt>
<trkpt lat="33.8104926" lon="-118.3937685">
  <ele>-24.44</ele>
  <time>2026-09-02T22:11:35Z</time>
  <course>193.94</course>
  <speed>0.99</speed>
  <fix>3d</fix>
</trkpt>
<trkpt lat="33.8104907" lon="-118.3937692">
  <ele>-25.058</ele>
  <time>2026-09-02T22:11:35Z</time>
  <course>195.26</course>
  <speed>0.9726767191621274</speed>
  <fix>3d</fix>
</trkpt>
<trkpt lat="33.8104926" lon="-118.3937685">
  <ele>-24.44</ele>
  <time>2026-09-02T22:11:35Z</time>
  <course>193.94</course>
  <speed>0.99</speed>
  <fix>3d</fix>
</trkpt>
<trkpt lat="33.8104898" lon="-118.3937695">
  <ele>-25.059</ele>
  <time>2026-09-02T22:11:35Z</time>
  <course>195.26</course>
  <speed>0.9726767191621274</speed>
  <fix>3d</fix>
</trkpt>
<trkpt lat="33.8104908" lon="-118.393769">
  <ele>-24.44</ele>
  <time>2026-09-02T22:11:35Z</time>
  <course>193.94</course>
  <speed>0.99</speed>
  <fix>3d</fix>
</trkpt>
<trkpt lat="33.8104889" lon="-118.3937697">
  <ele>-25.059</ele>
  <time>2026-09-02T22:11:35Z</time>
  <course>195.24</course>
  <speed>0.9726767191621274</speed>
  <fix>3d</fix>
</trkpt>
<trkpt lat="33.8104908" lon="-118.393769">
  <ele>-24.44</ele>
  <time>2026-09-02T22:11:35Z</time>
  <course>193.94</course>
  <speed>0.99</speed>
  <fix>3d</fix>
</trkpt>
<trkpt lat="33.8104881" lon="-118.39377">
  <ele>-25.06</ele>
  <time>2026-09-02T22:11:35Z</time>
  <course>195.23</course>
  <speed>0.9726767191621274</speed>
  <fix>3d</fix>
</trkpt>
<trkpt lat="33.8104891" lon="-118.3937695">
  <ele>-24.45</ele>
  <time>2026-09-02T22:11:35Z</time>
  <course>193.89</course>
  <speed>0.99</speed>
  <fix>3d</fix>
</trkpt>
<trkpt lat="33.8104872" lon="-118.3937703">
  <ele>-25.059</ele>
  <time>2026-09-02T22:11:35Z</time>
  <course>195.21</course>
  <speed>0.9726767191621274</speed>
  <fix>3d</fix>
</trkpt>
<trkpt lat="33.8104891" lon="-118.3937695">
  <ele>-24.45</ele>
  <time>2026-09-02T22:11:35Z</time>
  <course>193.89</course>
  <speed>0.99</speed>
  <fix>3d</fix>
</trkpt>
<trkpt lat="33.8104863" lon="-118.3937705">
  <ele>-25.059</ele>
  <time>2026-09-02T22:11:35Z</time>
  <course>195.2</course>
  <speed>0.9726767191621274</speed>
  <fix>3d</fix>
</trkpt>
<trkpt lat="33.8104873" lon="-118.39377">
  <ele>-24.45</ele>
  <time>2026-09-02T22:11:35Z</time>
  <course>193.87</course>
  <speed>0.99</speed>
  <fix>3d</fix>
</trkpt>
<trkpt lat="33.8104854" lon="-118.3937708">
  <ele>-25.059</ele>
  <time>2026-09-02T22:11:35Z</time>
  <course>195.2</course>
  <speed>0.9726767191621274</speed>
  <fix>3d</fix>
</trkpt>
<trkpt lat="33.8104873" lon="-118.39377">
  <ele>-24.45</ele>
  <time>2026-09-02T22:11:35Z</time>
  <course>193.87</course>
  <speed>0.99</speed>
  <fix>3d</fix>
</trkpt>
<trkpt lat="33.8104846" lon="-118.393771">
  <ele>-25.06</ele>
  <time>2026-09-02T22:11:35Z</time>
  <course>195.21</course>
  <speed>0.9726767191621274</speed>
  <fix>3d</fix>
</trkpt>
<trkpt lat="33.8104856" lon="-118.3937705">
  <ele>-24.45</ele>
  <time>2026-09-02T22:11:35Z</time>
  <course>193.89</course>
  <speed>0.99</speed>
  <fix>3d</fix>
</trkpt>
<trkpt lat="33.8104837" lon="-118.3937713">
  <ele>-25.06</ele>
  <time>2026-09-02T22:11:35Z</time>
  <course>195.23</course>
  <speed>0.9726767191621274</speed>
  <fix>3d</fix>
</trkpt>
<trkpt lat="33.8104856" lon="-118.3937705">
  <ele>-24.45</ele>
  <time>2026-09-02T22:11:35Z</time>
  <course>193.89</course>
  <speed>0.99</speed>
  <fix>3d</fix>
</trkpt>
<trkpt lat="33.8104828" lon="-118.3937716">
  <ele>-25.061</ele>
  <time>2026-09-02T22:11:35Z</time>
  <course>195.26</course>
  <speed>0.9726767191621274</speed>
  <fix>3d</fix>
</trkpt>
<trkpt lat="33.8104838" lon="-118.3937711">
  <ele>-24.46</ele>
  <time>2026-09-02T22:11:35Z</time>
  <course>193.93</course>
  <speed>0.99</speed>
  <fix>3d</fix>
</trkpt>
<trkpt lat="33.810482" lon="-118.3937718">
  <ele>-25.061</ele>
  <time>2026-09-02T22:11:35Z</time>
  <course>195.28</course>
  <speed>0.9726767191621274</speed>
  <fix>3d</fix>
</trkpt>
<trkpt lat="33.8104838" lon="-118.3937711">
  <ele>-24.46</ele>
  <time>2026-09-02T22:11:35Z</time>
  <course>193.93</course>
  <speed>0.99</speed>
  <fix>3d</fix>
</trkpt>
<trkpt lat="33.8104811" lon="-118.3937721">
  <ele>-25.062</ele>
  <time>2026-09-02T22:11:35Z</time>
  <course>195.28</course>
  <speed>0.9726767191621274</speed>
  <fix>3d</fix>
</trkpt>
<trkpt lat="33.8104821" lon="-118.3937716">
  <ele>-24.46</ele>
  <time>2026-09-02T22:11:35Z</time>
  <course>193.95</course>
  <speed>0.99</speed>
  <fix>3d</fix>
</trkpt>
<trkpt lat="33.8104802" lon="-118.3937723">
  <ele>-25.064</ele>
  <time>2026-09-02T22:11:35Z</time>
  <course>195.27</course>
  <speed>0.9726767191621274</speed>
  <fix>3d</fix>
</trkpt>
<trkpt lat="33.8104821" lon="-118.3937716">
  <ele>-24.46</ele>
  <time>2026-09-02T22:11:35Z</time>
  <course>193.95</course>
  <speed>0.99</speed>
  <fix>3d</fix>
</trkpt>
<trkpt lat="33.8104793" lon="-118.3937726">
  <ele>-25.067</ele>
  <time>2026-09-02T22:11:35Z</time>
  <course>195.27</course>
  <speed>0.9726767191621274</speed>
  <fix>3d</fix>
</trkpt>
<trkpt lat="33.8104804" lon="-118.3937721">
  <ele>-24.46</ele>
  <time>2026-09-02T22:11:35Z</time>
  <course>193.94</course>
  <speed>0.99</speed>
  <fix>3d</fix>
</trkpt>
<trkpt lat="33.8104785" lon="-118.3937729">
  <ele>-25.069</ele>
  <time>2026-09-02T22:11:35Z</time>
  <course>195.25</course>
  <speed>0.9726767191621274</speed>
  <fix>3d</fix>
</trkpt>
<trkpt lat="33.8104804" lon="-118.3937721">
  <ele>-24.46</ele>
  <time>2026-09-02T22:11:35Z</time>
  <course>193.94</course>
  <speed>0.99</speed>
  <fix>3d</fix>
</trkpt>
<trkpt lat="33.8104776" lon="-118.3937731">
  <ele>-25.071</ele>
  <time>2026-09-02T22:11:35Z</time>
  <course>195.24</course>
  <speed>0.9726767191621274</speed>
  <fix>3d</fix>
</trkpt>
<trkpt lat="33.8104786" lon="-118.3937726">
  <ele>-24.47</ele>
  <time>2026-09-02T22:11:35Z</time>
  <course>193.92</course>
  <speed>0.99</speed>
  <fix>3d</fix>
</trkpt>
<trkpt lat="33.8104767" lon="-118.3937734">
  <ele>-25.072</ele>
  <time>2026-09-02T22:11:35Z</time>
  <course>195.23</course>
  <speed>0.9726767191621274</speed>
  <fix>3d</fix>
</trkpt>
<trkpt lat="33.8104786" lon="-118.3937726">
  <ele>-24.47</ele>
  <time>2026-09-02T22:11:35Z</time>
  <course>193.92</course>
  <speed>0.99</speed>
  <fix>3d</fix>
</trkpt>
<trkpt lat="33.8104758" lon="-118.3937736">
  <ele>-25.073</ele>
  <time>2026-09-02T22:11:35Z</time>
  <course>195.24</course>
  <speed>0.9726767191621274</speed>
  <fix>3d</fix>
</trkpt>
<trkpt lat="33.8104769" lon="-118.3937731">
  <ele>-24.47</ele>
  <time>2026-09-02T22:11:35Z</time>
  <course>193.92</course>
  <speed>0.99</speed>
  <fix>3d</fix>
</trkpt>
<trkpt lat="33.810475" lon="-118.3937739">
  <ele>-25.073</ele>
  <time>2026-09-02T22:11:35Z</time>
  <course>195.25</course>
  <speed>0.9726767191621274</speed>
  <fix>3d</fix>
</trkpt>
<trkpt lat="33.8104769" lon="-118.3937731">
  <ele>-24.47</ele>
  <time>2026-09-02T22:11:35Z</time>
  <course>193.92</course>
  <speed>0.99</speed>
  <fix>3d</fix>
</trkpt>
<trkpt lat="33.8104741" lon="-118.3937742">
  <ele>-25.071</ele>
  <time>2026-09-02T22:11:35Z</time>
  <course>195.28</course>
  <speed>0.9726767191621274</speed>
  <fix>3d</fix>
</trkpt>
<trkpt lat="33.8104751" lon="-118.3937737">
  <ele>-24.47</ele>
  <time>2026-09-02T22:11:35Z</time>
  <course>193.95</course>
  <speed>0.99</speed>
  <fix>3d</fix>
</trkpt>
<trkpt lat="33.8104732" lon="-118.3937744">
  <ele>-25.069</ele>
  <time>2026-09-02T22:11:35Z</time>
  <course>195.29</course>
  <speed>0.9726767191621274</speed>
  <fix>3d</fix>
</trkpt>
<trkpt lat="33.8104751" lon="-118.3937737">
  <ele>-24.47</ele>
  <time>2026-09-02T22:11:35Z</time>
  <course>193.95</course>
  <speed>0.99</speed>
  <fix>3d</fix>
</trkpt>
<trkpt lat="33.8104724" lon="-118.3937747">
  <ele>-25.066</ele>
  <time>2026-09-02T22:11:35Z</time>
  <course>195.3</course>
  <speed>0.9726767191621274</speed>
  <fix>3d</fix>
</trkpt>
<trkpt lat="33.8104734" lon="-118.3937742">
  <ele>-24.46</ele>
  <time>2026-09-02T22:11:35Z</time>
  <course>193.96</course>
  <speed>0.99</speed>
  <fix>3d</fix>
</trkpt>
<trkpt lat="33.8104715" lon="-118.393775">
  <ele>-25.063</ele>
  <time>2026-09-02T22:11:35Z</time>
  <course>195.3</course>
  <speed>0.9726767191621274</speed>
  <fix>3d</fix>
</trkpt>
<trkpt lat="33.8104734" lon="-118.3937742">
  <ele>-24.46</ele>
  <time>2026-09-02T22:11:35Z</time>
  <course>193.96</course>
  <speed>0.99</speed>
  <fix>3d</fix>
</trkpt>
<trkpt lat="33.8104706" lon="-118.3937752">
  <ele>-25.061</ele>
  <time>2026-09-02T22:11:35Z</time>
  <course>195.28</course>
  <speed>0.9726767191621274</speed>
  <fix>3d</fix>
</trkpt>
<trkpt lat="33.8104716" lon="-118.3937747">
  <ele>-24.46</ele>
  <time>2026-09-02T22:11:35Z</time>
  <course>193.94</course>
  <speed>0.99</speed>
  <fix>3d</fix>
</trkpt>
<trkpt lat="33.8104697" lon="-118.3937755">
  <ele>-25.06</ele>
  <time>2026-09-02T22:11:35Z</time>
  <course>195.27</course>
  <speed>0.9726767191621274</speed>
  <fix>3d</fix>
</trkpt>
<trkpt lat="33.8104716" lon="-118.3937747">
  <ele>-24.46</ele>
  <time>2026-09-02T22:11:35Z</time>
  <course>193.94</course>
  <speed>0.99</speed>
  <fix>3d</fix>
</trkpt>
<trkpt lat="33.8104689" lon="-118.3937757">
  <ele>-25.061</ele>
  <time>2026-09-02T22:11:35Z</time>
  <course>195.27</course>
  <speed>0.9726767191621274</speed>
  <fix>3d</fix>
</trkpt>
<trkpt lat="33.8104699" lon="-118.3937752">
  <ele>-24.45</ele>
  <time>2026-09-02T22:11:35Z</time>
  <course>193.95</course>
  <speed>0.99</speed>
  <fix>3d</fix>
</trkpt>
<trkpt lat="33.810468" lon="-118.393776">
  <ele>-25.061</ele>
  <time>2026-09-02T22:11:35Z</time>
  <course>195.28</course>
  <speed>0.9726767191621274</speed>
  <fix>3d</fix>
</trkpt>
<trkpt lat="33.8104699" lon="-118.3937752">
  <ele>-24.45</ele>
  <time>2026-09-02T22:11:35Z</time>
  <course>193.95</course>
  <speed>0.99</speed>
  <fix>3d</fix>
</trkpt>
<trkpt lat="33.8104671" lon="-118.3937763">
  <ele>-25.061</ele>
  <time>2026-09-02T22:11:35Z</time>
  <course>195.29</course>
  <speed>0.9726767191621274</speed>
  <fix>3d</fix>
</trkpt>
<trkpt lat="33.8104682" lon="-118.3937757">
  <ele>-24.45</ele>
  <time>2026-09-02T22:11:35Z</time>
  <course>193.98</course>
  <speed>0.99</speed>
  <fix>3d</fix>
</trkpt>
<trkpt lat="33.8104663" lon="-118.3937765">
  <ele>-25.061</ele>
  <time>2026-09-02T22:11:35Z</time>
  <course>195.3</course>
  <speed>0.9726767191621274</speed>
  <fix>3d</fix>
</trkpt>
<trkpt lat="33.8104682" lon="-118.3937757">
  <ele>-24.45</ele>
  <time>2026-09-02T22:11:35Z</time>
  <course>193.98</course>
  <speed>0.99</speed>
  <fix>3d</fix>
</trkpt>
<trkpt lat="33.8104654" lon="-118.3937768">
  <ele>-25.062</ele>
  <time>2026-09-02T22:11:35Z</time>
  <course>195.31</course>
  <speed>0.9726767191621274</speed>
  <fix>3d</fix>
</trkpt>
<trkpt lat="33.8104664" lon="-118.3937762">
  <ele>-24.45</ele>
  <time>2026-09-02T22:11:35Z</time>
  <course>194.01</course>
  <speed>0.99</speed>
  <fix>3d</fix>
</trkpt>
<trkpt lat="33.8104645" lon="-118.393777">
  <ele>-25.063</ele>
  <time>2026-09-02T22:11:35Z</time>
  <course>195.33</course>
  <speed>0.9726767191621274</speed>
  <fix>3d</fix>
</trkpt>
<trkpt lat="33.8104664" lon="-118.3937762">
  <ele>-24.45</ele>
  <time>2026-09-02T22:11:35Z</time>
  <course>194.01</course>
  <speed>0.99</speed>
  <fix>3d</fix>
</trkpt>
<trkpt lat="33.8104636" lon="-118.3937773">
  <ele>-25.066</ele>
  <time>2026-09-02T22:11:35Z</time>
  <course>195.36</course>
  <speed>0.9726767191621274</speed>
  <fix>3d</fix>
</trkpt>
<trkpt lat="33.8104647" lon="-118.3937768">
  <ele>-24.46</ele>
  <time>2026-09-02T22:11:35Z</time>
  <course>194.04</course>
  <speed>0.99</speed>
  <fix>3d</fix>
</trkpt>
<trkpt lat="33.8104628" lon="-118.3937776">
  <ele>-25.067</ele>
  <time>2026-09-02T22:11:35Z</time>
  <course>195.38</course>
  <speed>0.9726767191621274</speed>
  <fix>3d</fix>
</trkpt>
<trkpt lat="33.8104647" lon="-118.3937768">
  <ele>-24.46</ele>
  <time>2026-09-02T22:11:35Z</time>
  <course>194.04</course>
  <speed>0.99</speed>
  <fix>3d</fix>
</trkpt>
<trkpt lat="33.8104619" lon="-118.3937778">
  <ele>-25.066</ele>
  <time>2026-09-02T22:11:35Z</time>
  <course>195.38</course>
  <speed>0.9726767191621274</speed>
  <fix>3d</fix>
</trkpt>
<trkpt lat="33.810463" lon="-118.3937773">
  <ele>-24.46</ele>
  <time>2026-09-02T22:11:35Z</time>
  <course>194.07</course>
  <speed>0.99</speed>
  <fix>3d</fix>
</trkpt>
<trkpt lat="33.810461" lon="-118.3937781">
  <ele>-25.065</ele>
  <time>2026-09-02T22:11:35Z</time>
  <course>195.37</course>
  <speed>0.9726767191621274</speed>
  <fix>3d</fix>
</trkpt>
<trkpt lat="33.810463" lon="-118.3937773">
  <ele>-24.46</ele>
  <time>2026-09-02T22:11:35Z</time>
  <course>194.07</course>
  <speed>0.99</speed>
  <fix>3d</fix>
</trkpt>
<trkpt lat="33.8104602" lon="-118.3937783">
  <ele>-25.064</ele>
  <time>2026-09-02T22:11:35Z</time>
  <course>195.36</course>
  <speed>0.9726767191621274</speed>
  <fix>3d</fix>
</trkpt>
<trkpt lat="33.8104612" lon="-118.3937778">
  <ele>-24.46</ele>
  <time>2026-09-02T22:11:35Z</time>
  <course>194.04</course>
  <speed>0.99</speed>
  <fix>3d</fix>
</trkpt>
<trkpt lat="33.8104593" lon="-118.3937786">
  <ele>-25.064</ele>
  <time>2026-09-02T22:11:35Z</time>
  <course>195.35</course>
  <speed>0.9726767191621274</speed>
  <fix>3d</fix>
</trkpt>
<trkpt lat="33.8104612" lon="-118.3937778">
  <ele>-24.46</ele>
  <time>2026-09-02T22:11:35Z</time>
  <course>194.04</course>
  <speed>0.99</speed>
  <fix>3d</fix>
</trkpt>
<trkpt lat="33.8104584" lon="-118.3937789">
  <ele>-25.063</ele>
  <time>2026-09-02T22:11:35Z</time>
  <course>195.35</course>
  <speed>0.9726767191621274</speed>
  <fix>3d</fix>
</trkpt>
<trkpt lat="33.8104594" lon="-118.3937784">
  <ele>-24.45</ele>
  <time>2026-09-02T22:11:35Z</time>
  <course>194.02</course>
  <speed>1.0</speed>
  <fix>3d</fix>
</trkpt>
<trkpt lat="33.8104575" lon="-118.3937791">
  <ele>-25.061</ele>
  <time>2026-09-02T22:11:35Z</time>
  <course>195.34</course>
  <speed>0.9726767191621274</speed>
  <fix>3d</fix>
</trkpt>
<trkpt lat="33.8104594" lon="-118.3937784">
  <ele>-24.45</ele>
  <time>2026-09-02T22:11:35Z</time>
  <course>194.02</course>
  <speed>1.0</speed>
  <fix>3d</fix>
</trkpt>
<trkpt lat="33.8104567" lon="-118.3937794">
  <ele>-25.059</ele>
  <time>2026-09-02T22:11:35Z</time>
  <course>195.33</course>
  <speed>0.9726767191621274</speed>
  <fix>3d</fix>
</trkpt>
<trkpt lat="33.8104577" lon="-118.3937789">
  <ele>-24.45</ele>
  <time>2026-09-02T22:11:35Z</time>
  <course>194.02</course>
  <speed>1.0</speed>
  <fix>3d</fix>
</trkpt>
<trkpt lat="33.8104558" lon="-118.3937797">
  <ele>-25.057</ele>
  <time>2026-09-02T22:11:35Z</time>
  <course>195.31</course>
  <speed>0.9726767191621274</speed>
  <fix>3d</fix>
</trkpt>
<trkpt lat="33.8104577" lon="-118.3937789">
  <ele>-24.45</ele>
  <time>2026-09-02T22:11:35Z</time>
  <course>194.02</course>
  <speed>1.0</speed>
  <fix>3d</fix>
</trkpt>
<trkpt lat="33.8104549" lon="-118.3937799">
  <ele>-25.057</ele>
  <time>2026-09-02T22:11:35Z</time>
  <course>195.29</course>
  <speed>0.9726767191621274</speed>
  <fix>3d</fix>
</trkpt>
<trkpt lat="33.810456" lon="-118.3937794">
  <ele>-24.45</ele>
  <time>2026-09-02T22:11:35Z</time>
  <course>194.01</course>
  <speed>0.99</speed>
  <fix>3d</fix>
</trkpt>
<trkpt lat="33.810454" lon="-118.3937802">
  <ele>-25.057</ele>
  <time>2026-09-02T22:11:35Z</time>
  <course>195.27</course>
  <speed>0.9726767191621274</speed>
  <fix>3d</fix>
</trkpt>
<trkpt lat="33.810456" lon="-118.3937794">
  <ele>-24.45</ele>
  <time>2026-09-02T22:11:35Z</time>
  <course>194.01</course>
  <speed>0.99</speed>
  <fix>3d</fix>
</trkpt>
<trkpt lat="33.8104532" lon="-118.3937804">
  <ele>-25.057</ele>
  <time>2026-09-02T22:11:35Z</time>
  <course>195.25</course>
  <speed>0.9726767191621274</speed>
  <fix>3d</fix>
</trkpt>
<trkpt lat="33.8104542" lon="-118.3937799">
  <ele>-24.45</ele>
  <time>2026-09-02T22:11:35Z</time>
  <course>193.99</course>
  <speed>0.99</speed>
  <fix>3d</fix>
</trkpt>
<trkpt lat="33.8104523" lon="-118.3937807">
  <ele>-25.057</ele>
  <time>2026-09-02T22:11:35Z</time>
  <course>195.24</course>
  <speed>0.9726767191621274</speed>
  <fix>3d</fix>
</trkpt>
<trkpt lat="33.8104542" lon="-118.3937799">
  <ele>-24.45</ele>
  <time>2026-09-02T22:11:35Z</time>
  <course>193.99</course>
  <speed>0.99</speed>
  <fix>3d</fix>
</trkpt>
<trkpt lat="33.8104514" lon="-118.393781">
  <ele>-25.058</ele>
  <time>2026-09-02T22:11:35Z</time>
  <course>195.23</course>
  <speed>0.9726767191621274</speed>
  <fix>3d</fix>
</trkpt>
<trkpt lat="33.8104525" lon="-118.3937805">
  <ele>-24.45</ele>
  <time>2026-09-02T22:11:35Z</time>
  <course>194.0</course>
  <speed>0.99</speed>
  <fix>3d</fix>
</trkpt>
<trkpt lat="33.8104506" lon="-118.3937812">
  <ele>-25.06</ele>
  <time>2026-09-02T22:11:35Z</time>
  <course>195.23</course>
  <speed>0.9726767191621274</speed>
  <fix>3d</fix>
</trkpt>
<trkpt lat="33.8104525" lon="-118.3937805">
  <ele>-24.45</ele>
  <time>2026-09-02T22:11:35Z</time>
  <course>194.0</course>
  <speed>0.99</speed>
  <fix>3d</fix>
</trkpt>
<trkpt lat="33.8104497" lon="-118.3937815">
  <ele>-25.062</ele>
  <time>2026-09-02T22:11:35Z</time>
  <course>195.22</course>
  <speed>0.9726767191621274</speed>
  <fix>3d</fix>
</trkpt>
<trkpt lat="33.8104508" lon="-118.393781">
  <ele>-24.46</ele>
  <time>2026-09-02T22:11:35Z</time>
  <course>194.0</course>
  <speed>0.99</speed>
  <fix>3d</fix>
</trkpt>
<trkpt lat="33.8104488" lon="-118.3937817">
  <ele>-25.064</ele>
  <time>2026-09-02T22:11:35Z</time>
  <course>195.2</course>
  <speed>0.9726767191621274</speed>
  <fix>3d</fix>
</trkpt>
<trkpt lat="33.8104508" lon="-118.393781">
  <ele>-24.46</ele>
  <time>2026-09-02T22:11:35Z</time>
  <course>194.0</course>
  <speed>0.99</speed>
  <fix>3d</fix>
</trkpt>
<trkpt lat="33.8104479" lon="-118.393782">
  <ele>-25.066</ele>
  <time>2026-09-02T22:11:35Z</time>
  <course>195.17</course>
  <speed>0.9726767191621274</speed>
  <fix>3d</fix>
</trkpt>
<trkpt lat="33.810449" lon="-118.3937815">
  <ele>-24.46</ele>
  <time>2026-09-02T22:11:35Z</time>
  <course>193.95</course>
  <speed>0.99</speed>
  <fix>3d</fix>
</trkpt>
<trkpt lat="33.8104471" lon="-118.3937823">
  <ele>-25.068</ele>
  <time>2026-09-02T22:11:35Z</time>
  <course>195.14</course>
  <speed>0.9726767191621274</speed>
  <fix>3d</fix>
</trkpt>
<trkpt lat="33.810449" lon="-118.3937815">
  <ele>-24.46</ele>
  <time>2026-09-02T22:11:35Z</time>
  <course>193.95</course>
  <speed>0.99</speed>
  <fix>3d</fix>
</trkpt>
<trkpt lat="33.8104462" lon="-118.3937825">
  <ele>-25.07</ele>
  <time>2026-09-02T22:11:35Z</time>
  <course>195.13</course>
  <speed>0.9726767191621274</speed>
  <fix>3d</fix>
</trkpt>
<trkpt lat="33.8104472" lon="-118.393782">
  <ele>-24.47</ele>
  <time>2026-09-02T22:11:35Z</time>
  <course>193.9</course>
  <speed>0.99</speed>
  <fix>3d</fix>
</trkpt>
<trkpt lat="33.8104453" lon="-118.3937828">
  <ele>-25.07</ele>
  <time>2026-09-02T22:11:35Z</time>
  <course>195.12</course>
  <speed>0.9726767191621274</speed>
  <fix>3d</fix>
</trkpt>
<trkpt lat="33.8104472" lon="-118.393782">
  <ele>-24.47</ele>
  <time>2026-09-02T22:11:35Z</time>
  <course>193.9</course>
  <speed>0.99</speed>
  <fix>3d</fix>
</trkpt>
<trkpt lat="33.8104444" lon="-118.3937831">
  <ele>-25.07</ele>
  <time>2026-09-02T22:11:35Z</time>
  <course>195.13</course>
  <speed>0.9726767191621274</speed>
  <fix>3d</fix>
</trkpt>
<trkpt lat="33.8104455" lon="-118.3937825">
  <ele>-24.46</ele>
  <time>2026-09-02T22:11:35Z</time>
  <course>193.92</course>
  <speed>0.99</speed>
  <fix>3d</fix>
</trkpt>
<trkpt lat="33.8104436" lon="-118.3937833">
  <ele>-25.069</ele>
  <time>2026-09-02T22:11:35Z</time>
  <course>195.15</course>
  <speed>0.9726767191621274</speed>
  <fix>3d</fix>
</trkpt>
<trkpt lat="33.8104455" lon="-118.3937825">
  <ele>-24.46</ele>
  <time>2026-09-02T22:11:35Z</time>
  <course>193.92</course>
  <speed>0.99</speed>
  <fix>3d</fix>
</trkpt>
<trkpt lat="33.8104427" lon="-118.3937836">
  <ele>-25.067</ele>
  <time>2026-09-02T22:11:35Z</time>
  <course>195.18</course>
  <speed>0.9726767191621274</speed>
  <fix>3d</fix>
</trkpt>
<trkpt lat="33.8104438" lon="-118.3937831">
  <ele>-24.46</ele>
  <time>2026-09-02T22:11:35Z</time>
  <course>193.98</course>
  <speed>0.99</speed>
  <fix>3d</fix>
</trkpt>
<trkpt lat="33.8104418" lon="-118.3937838">
  <ele>-25.065</ele>
  <time>2026-09-02T22:11:35Z</time>
  <course>195.2</course>
  <speed>0.9726767191621274</speed>
  <fix>3d</fix>
</trkpt>
<trkpt lat="33.8104438" lon="-118.3937831">
  <ele>-24.46</ele>
  <time>2026-09-02T22:11:35Z</time>
  <course>193.98</course>
  <speed>0.99</speed>
  <fix>3d</fix>
</trkpt>
<trkpt lat="33.810441" lon="-118.3937841">
  <ele>-25.064</ele>
  <time>2026-09-02T22:11:35Z</time>
  <course>195.2</course>
  <speed>0.9726767191621274</speed>
  <fix>3d</fix>
</trkpt>
<trkpt lat="33.8104421" lon="-118.3937836">
  <ele>-24.45</ele>
  <time>2026-09-02T22:11:35Z</time>
  <course>193.99</course>
  <speed>0.99</speed>
  <fix>3d</fix>
</trkpt>
<trkpt lat="33.8104401" lon="-118.3937844">
  <ele>-25.062</ele>
  <time>2026-09-02T22:11:35Z</time>
  <course>195.18</course>
  <speed>0.9726767191621274</speed>
  <fix>3d</fix>
</trkpt>
<trkpt lat="33.8104421" lon="-118.3937836">
  <ele>-24.45</ele>
  <time>2026-09-02T22:11:35Z</time>
  <course>193.99</course>
  <speed>0.99</speed>
  <fix>3d</fix>
</trkpt>
<trkpt lat="33.8104392" lon="-118.3937846">
  <ele>-25.061</ele>
  <time>2026-09-02T22:11:35Z</time>
  <course>195.16</course>
  <speed>0.9726767191621274</speed>
  <fix>3d</fix>
</trkpt>
<trkpt lat="33.8104403" lon="-118.3937841">
  <ele>-24.45</ele>
  <time>2026-09-02T22:11:35Z</time>
  <course>193.93</course>
  <speed>0.99</speed>
  <fix>3d</fix>
</trkpt>
<trkpt lat="33.8104384" lon="-118.3937849">
  <ele>-25.06</ele>
  <time>2026-09-02T22:11:35Z</time>
  <course>195.14</course>
  <speed>0.9726767191621274</speed>
  <fix>3d</fix>
</trkpt>
<trkpt lat="33.8104403" lon="-118.3937841">
  <ele>-24.45</ele>
  <time>2026-09-02T22:11:35Z</time>
  <course>193.93</course>
  <speed>0.99</speed>
  <fix>3d</fix>
</trkpt>
<trkpt lat="33.8104375" lon="-118.3937851">
  <ele>-25.059</ele>
  <time>2026-09-02T22:11:35Z</time>
  <course>195.13</course>
  <speed>0.9726767191621274</speed>
  <fix>3d</fix>
</trkpt>
<trkpt lat="33.8104386" lon="-118.3937846">
  <ele>-24.45</ele>
  <time>2026-09-02T22:11:35Z</time>
  <course>193.9</course>
  <speed>1.0</speed>
  <fix>3d</fix>
</trkpt>
<trkpt lat="33.8104366" lon="-118.3937854">
  <ele>-25.058</ele>
  <time>2026-09-02T22:11:35Z</time>
  <course>195.13</course>
  <speed>0.9726767191621274</speed>
  <fix>3d</fix>
</trkpt>
<trkpt lat="33.8104386" lon="-118.3937846">
  <ele>-24.45</ele>
  <time>2026-09-02T22:11:35Z</time>
  <course>193.9</course>
  <speed>1.0</speed>
  <fix>3d</fix>
</trkpt>
<trkpt lat="33.8104357" lon="-118.3937857">
  <ele>-25.057</ele>
  <time>2026-09-02T22:11:35Z</time>
  <course>195.14</course>
  <speed>0.9726767191621274</speed>
  <fix>3d</fix>
</trkpt>
<trkpt lat="33.8104368" lon="-118.3937852">
  <ele>-24.45</ele>
  <time>2026-09-02T22:11:35Z</time>
  <course>193.92</course>
  <speed>1.0</speed>
  <fix>3d</fix>
</trkpt>
<trkpt lat="33.8104349" lon="-118.3937859">
  <ele>-25.057</ele>
  <time>2026-09-02T22:11:35Z</time>
  <course>195.14</course>
  <speed>0.9726767191621274</speed>
  <fix>3d</fix>
</trkpt>
<trkpt lat="33.8104368" lon="-118.3937852">
  <ele>-24.45</ele>
  <time>2026-09-02T22:11:35Z</time>
  <course>193.92</course>
  <speed>1.0</speed>
  <fix>3d</fix>
</trkpt>
<trkpt lat="33.810434" lon="-118.3937862">
  <ele>-25.057</ele>
  <time>2026-09-02T22:11:35Z</time>
  <course>195.13</course>
  <speed>0.9726767191621274</speed>
  <fix>3d</fix>
</trkpt>
<trkpt lat="33.810435" lon="-118.3937857">
  <ele>-24.45</ele>
  <time>2026-09-02T22:11:35Z</time>
  <course>193.93</course>
  <speed>1.0</speed>
  <fix>3d</fix>
</trkpt>
<trkpt lat="33.8104331" lon="-118.3937864">
  <ele>-25.058</ele>
  <time>2026-09-02T22:11:35Z</time>
  <course>195.11</course>
  <speed>0.9726767191621274</speed>
  <fix>3d</fix>
</trkpt>
<trkpt lat="33.810435" lon="-118.3937857">
  <ele>-24.45</ele>
  <time>2026-09-02T22:11:35Z</time>
  <course>193.93</course>
  <speed>1.0</speed>
  <fix>3d</fix>
</trkpt>
<trkpt lat="33.8104322" lon="-118.3937867">
  <ele>-25.059</ele>
  <time>2026-09-02T22:11:35Z</time>
  <course>195.1</course>
  <speed>0.9726767191621274</speed>
  <fix>3d</fix>
</trkpt>
<trkpt lat="33.8104333" lon="-118.3937862">
  <ele>-24.45</ele>
  <time>2026-09-02T22:11:35Z</time>
  <course>193.91</course>
  <speed>1.0</speed>
  <fix>3d</fix>
</trkpt>
<trkpt lat="33.8104314" lon="-118.393787">
  <ele>-25.06</ele>
  <time>2026-09-02T22:11:35Z</time>
  <course>195.1</course>
  <speed>0.9726767191621274</speed>
  <fix>3d</fix>
</trkpt>
<trkpt lat="33.8104333" lon="-118.3937862">
  <ele>-24.45</ele>
  <time>2026-09-02T22:11:35Z</time>
  <course>193.91</course>
  <speed>1.0</speed>
  <fix>3d</fix>
</trkpt>
<trkpt lat="33.8104305" lon="-118.3937872">
  <ele>-25.061</ele>
  <time>2026-09-02T22:11:36Z</time>
  <course>195.11</course>
  <speed>0.9726767191621274</speed>
  <fix>3d</fix>
</trkpt>
<trkpt lat="33.8104316" lon="-118.3937867">
  <ele>-24.45</ele>
  <time>2026-09-02T22:11:36Z</time>
  <course>193.91</course>
  <speed>1.0</speed>
  <fix>3d</fix>
</trkpt>
<trkpt lat="33.8104296" lon="-118.3937875">
  <ele>-25.062</ele>
  <time>2026-09-02T22:11:36Z</time>
  <course>195.12</course>
  <speed>0.9726767191621274</speed>
  <fix>3d</fix>
</trkpt>
<trkpt lat="33.8104316" lon="-118.3937867">
  <ele>-24.45</ele>
  <time>2026-09-02T22:11:36Z</time>
  <course>193.91</course>
  <speed>1.0</speed>
  <fix>3d</fix>
</trkpt>
<trkpt lat="33.8104288" lon="-118.3937877">
  <ele>-25.062</ele>
  <time>2026-09-02T22:11:36Z</time>
  <course>195.13</course>
  <speed>0.9726767191621274</speed>
  <fix>3d</fix>
</trkpt>
<trkpt lat="33.8104298" lon="-118.3937872">
  <ele>-24.46</ele>
  <time>2026-09-02T22:11:36Z</time>
  <course>193.92</course>
  <speed>1.0</speed>
  <fix>3d</fix>
</trkpt>
<trkpt lat="33.8104279" lon="-118.393788">
  <ele>-25.062</ele>
  <time>2026-09-02T22:11:36Z</time>
  <course>195.14</course>
  <speed>0.9726767191621274</speed>
  <fix>3d</fix>
</trkpt>
<trkpt lat="33.8104298" lon="-118.3937872">
  <ele>-24.46</ele>
  <time>2026-09-02T22:11:36Z</time>
  <course>193.92</course>
  <speed>1.0</speed>
  <fix>3d</fix>
</trkpt>
<trkpt lat="33.810427" lon="-118.3937883">
  <ele>-25.062</ele>
  <time>2026-09-02T22:11:36Z</time>
  <course>195.16</course>
  <speed>0.9726767191621274</speed>
  <fix>3d</fix>
</trkpt>
<trkpt lat="33.8104281" lon="-118.3937877">
  <ele>-24.46</ele>
  <time>2026-09-02T22:11:36Z</time>
  <course>193.95</course>
  <speed>1.0</speed>
  <fix>3d</fix>
</trkpt>
<trkpt lat="33.8104261" lon="-118.3937885">
  <ele>-25.062</ele>
  <time>2026-09-02T22:11:36Z</time>
  <course>195.19</course>
  <speed>0.9726767191621274</speed>
  <fix>3d</fix>
</trkpt>
<trkpt lat="33.8104281" lon="-118.3937877">
  <ele>-24.46</ele>
  <time>2026-09-02T22:11:36Z</time>
  <course>193.95</course>
  <speed>1.0</speed>
  <fix>3d</fix>
</trkpt>
<trkpt lat="33.8104253" lon="-118.3937888">
  <ele>-25.063</ele>
  <time>2026-09-02T22:11:36Z</time>
  <course>195.22</course>
  <speed>0.9726767191621274</speed>
  <fix>3d</fix>
</trkpt>
<trkpt lat="33.8104264" lon="-118.3937883">
  <ele>-24.46</ele>
  <time>2026-09-02T22:11:36Z</time>
  <course>194.0</course>
  <speed>1.0</speed>
  <fix>3d</fix>
</trkpt>
<trkpt lat="33.8104244" lon="-118.393789">
  <ele>-25.064</ele>
  <time>2026-09-02T22:11:36Z</time>
  <course>195.23</course>
  <speed>0.9726767191621274</speed>
  <fix>3d</fix>
</trkpt>
<trkpt lat="33.8104264" lon="-118.3937883">
  <ele>-24.46</ele>
  <time>2026-09-02T22:11:36Z</time>
  <course>194.0</course>
  <speed>1.0</speed>
  <fix>3d</fix>
</trkpt>
<trkpt lat="33.8104235" lon="-118.3937893">
  <ele>-25.066</ele>
  <time>2026-09-02T22:11:36Z</time>
  <course>195.22</course>
  <speed>0.9726767191621274</speed>
  <fix>3d</fix>
</trkpt>
<trkpt lat="33.8104246" lon="-118.3937888">
  <ele>-24.46</ele>
  <time>2026-09-02T22:11:36Z</time>
  <course>194.0</course>
  <speed>1.0</speed>
  <fix>3d</fix>
</trkpt>
<trkpt lat="33.8104227" lon="-118.3937896">
  <ele>-25.066</ele>
  <time>2026-09-02T22:11:36Z</time>
  <course>195.2</course>
  <speed>0.9726767191621274</speed>
  <fix>3d</fix>
</trkpt>
<trkpt lat="33.8104246" lon="-118.3937888">
  <ele>-24.46</ele>
  <time>2026-09-02T22:11:36Z</time>
  <course>194.0</course>
  <speed>1.0</speed>
  <fix>3d</fix>
</trkpt>
<trkpt lat="33.8104218" lon="-118.3937898">
  <ele>-25.065</ele>
  <time>2026-09-02T22:11:36Z</time>
  <course>195.18</course>
  <speed>0.9726767191621274</speed>
  <fix>3d</fix>
</trkpt>
<trkpt lat="33.8104228" lon="-118.3937893">
  <ele>-24.45</ele>
  <time>2026-09-02T22:11:36Z</time>
  <course>193.95</course>
  <speed>1.0</speed>
  <fix>3d</fix>
</trkpt>
<trkpt lat="33.8104209" lon="-118.3937901">
  <ele>-25.064</ele>
  <time>2026-09-02T22:11:36Z</time>
  <course>195.18</course>
  <speed>0.9726767191621274</speed>
  <fix>3d</fix>
</trkpt>
<trkpt lat="33.8104228" lon="-118.3937893">
  <ele>-24.45</ele>
  <time>2026-09-02T22:11:36Z</time>
  <course>193.95</course>
  <speed>1.0</speed>
  <fix>3d</fix>
</trkpt>
<trkpt lat="33.8104201" lon="-118.3937903">
  <ele>-25.063</ele>
  <time>2026-09-02T22:11:36Z</time>
  <course>195.19</course>
  <speed>0.9726767191621274</speed>
  <fix>3d</fix>
</trkpt>
<trkpt lat="33.8104211" lon="-118.3937899">
  <ele>-24.45</ele>
  <time>2026-09-02T22:11:36Z</time>
  <course>193.95</course>
  <speed>1.0</speed>
  <fix>3d</fix>
</trkpt>
<trkpt lat="33.8104192" lon="-118.3937906">
  <ele>-25.062</ele>
  <time>2026-09-02T22:11:36Z</time>
  <course>195.19</course>
  <speed>0.9726767191621274</speed>
  <fix>3d</fix>
</trkpt>
<trkpt lat="33.8104211" lon="-118.3937899">
  <ele>-24.45</ele>
  <time>2026-09-02T22:11:36Z</time>
  <course>193.95</course>
  <speed>1.0</speed>
  <fix>3d</fix>
</trkpt>
<trkpt lat="33.8104183" lon="-118.3937909">
  <ele>-25.06</ele>
  <time>2026-09-02T22:11:36Z</time>
  <course>195.19</course>
  <speed>0.9726767191621274</speed>
  <fix>3d</fix>
</trkpt>
<trkpt lat="33.8104194" lon="-118.3937904">
  <ele>-24.45</ele>
  <time>2026-09-02T22:11:36Z</time>
  <course>193.95</course>
  <speed>1.0</speed>
  <fix>3d</fix>
</trkpt>
<trkpt lat="33.8104174" lon="-118.3937911">
  <ele>-25.059</ele>
  <time>2026-09-02T22:11:36Z</time>
  <course>195.17</course>
  <speed>0.9726767191621274</speed>
  <fix>3d</fix>
</trkpt>
<trkpt lat="33.8104194" lon="-118.3937904">
  <ele>-24.45</ele>
  <time>2026-09-02T22:11:36Z</time>
  <course>193.95</course>
  <speed>1.0</speed>
  <fix>3d</fix>
</trkpt>
<trkpt lat="33.8104166" lon="-118.3937914">
  <ele>-25.059</ele>
  <time>2026-09-02T22:11:36Z</time>
  <course>195.15</course>
  <speed>0.9726767191621274</speed>
  <fix>3d</fix>
</trkpt>
<trkpt lat="33.8104176" lon="-118.3937909">
  <ele>-24.44</ele>
  <time>2026-09-02T22:11:36Z</time>
  <course>193.92</course>
  <speed>1.0</speed>
  <fix>3d</fix>
</trkpt>
<trkpt lat="33.8104157" lon="-118.3937917">
  <ele>-25.059</ele>
  <time>2026-09-02T22:11:36Z</time>
  <course>195.12</course>
  <speed>0.9726767191621274</speed>
  <fix>3d</fix>
</trkpt>
<trkpt lat="33.8104176" lon="-118.3937909">
  <ele>-24.44</ele>
  <time>2026-09-02T22:11:36Z</time>
  <course>193.92</course>
  <speed>1.0</speed>
  <fix>3d</fix>
</trkpt>
<trkpt lat="33.8104148" lon="-118.3937919">
  <ele>-25.059</ele>
  <time>2026-09-02T22:11:36Z</time>
  <course>195.11</course>
  <speed>0.9726767191621274</speed>
  <fix>3d</fix>
</trkpt>
<trkpt lat="33.8104158" lon="-118.3937914">
  <ele>-24.44</ele>
  <time>2026-09-02T22:11:36Z</time>
  <course>193.9</course>
  <speed>1.0</speed>
  <fix>3d</fix>
</trkpt>
<trkpt lat="33.810414" lon="-118.3937922">
  <ele>-25.059</ele>
  <time>2026-09-02T22:11:36Z</time>
  <course>195.11</course>
  <speed>0.9726767191621274</speed>
  <fix>3d</fix>
</trkpt>
<trkpt lat="33.8104158" lon="-118.3937914">
  <ele>-24.44</ele>
  <time>2026-09-02T22:11:36Z</time>
  <course>193.9</course>
  <speed>1.0</speed>
  <fix>3d</fix>
</trkpt>
<trkpt lat="33.8104131" lon="-118.3937924">
  <ele>-25.059</ele>
  <time>2026-09-02T22:11:36Z</time>
  <course>195.12</course>
  <speed>0.9726767191621274</speed>
  <fix>3d</fix>
</trkpt>
<trkpt lat="33.8104141" lon="-118.393792">
  <ele>-24.44</ele>
  <time>2026-09-02T22:11:36Z</time>
  <course>193.91</course>
  <speed>1.0</speed>
  <fix>3d</fix>
</trkpt>
<trkpt lat="33.8104122" lon="-118.3937927">
  <ele>-25.06</ele>
  <time>2026-09-02T22:11:36Z</time>
  <course>195.13</course>
  <speed>0.9726767191621274</speed>
  <fix>3d</fix>
</trkpt>
<trkpt lat="33.8104141" lon="-118.393792">
  <ele>-24.44</ele>
  <time>2026-09-02T22:11:36Z</time>
  <course>193.91</course>
  <speed>1.0</speed>
  <fix>3d</fix>
</trkpt>
<trkpt lat="33.8104113" lon="-118.393793">
  <ele>-25.061</ele>
  <time>2026-09-02T22:11:36Z</time>
  <course>195.13</course>
  <speed>0.9726767191621274</speed>
  <fix>3d</fix>
</trkpt>
<trkpt lat="33.8104123" lon="-118.3937925">
  <ele>-24.45</ele>
  <time>2026-09-02T22:11:36Z</time>
  <course>193.9</course>
  <speed>1.0</speed>
  <fix>3d</fix>
</trkpt>
<trkpt lat="33.8104105" lon="-118.3937932">
  <ele>-25.061</ele>
  <time>2026-09-02T22:11:36Z</time>
  <course>195.12</course>
  <speed>0.9726767191621274</speed>
  <fix>3d</fix>
</trkpt>
<trkpt lat="33.8104123" lon="-118.3937925">
  <ele>-24.45</ele>
  <time>2026-09-02T22:11:36Z</time>
  <course>193.9</course>
  <speed>1.0</speed>
  <fix>3d</fix>
</trkpt>
<trkpt lat="33.8104096" lon="-118.3937935">
  <ele>-25.062</ele>
  <time>2026-09-02T22:11:36Z</time>
  <course>195.11</course>
  <speed>0.9726767191621274</speed>
  <fix>3d</fix>
</trkpt>
<trkpt lat="33.8104106" lon="-118.393793">
  <ele>-24.45</ele>
  <time>2026-09-02T22:11:36Z</time>
  <course>193.87</course>
  <speed>1.0</speed>
  <fix>3d</fix>
</trkpt>
<trkpt lat="33.8104087" lon="-118.3937937">
  <ele>-25.062</ele>
  <time>2026-09-02T22:11:36Z</time>
  <course>195.11</course>
  <speed>0.9726767191621274</speed>
  <fix>3d</fix>
</trkpt>
<trkpt lat="33.8104106" lon="-118.393793">
  <ele>-24.45</ele>
  <time>2026-09-02T22:11:36Z</time>
  <course>193.87</course>
  <speed>1.0</speed>
  <fix>3d</fix>
</trkpt>
<trkpt lat="33.8104078" lon="-118.393794">
  <ele>-25.062</ele>
  <time>2026-09-02T22:11:36Z</time>
  <course>195.11</course>
  <speed>0.9726767191621274</speed>
  <fix>3d</fix>
</trkpt>
<trkpt lat="33.8104088" lon="-118.3937935">
  <ele>-24.44</ele>
  <time>2026-09-02T22:11:36Z</time>
  <course>193.85</course>
  <speed>1.0</speed>
  <fix>3d</fix>
</trkpt>
<trkpt lat="33.810407" lon="-118.3937943">
  <ele>-25.061</ele>
  <time>2026-09-02T22:11:36Z</time>
  <course>195.11</course>
  <speed>0.9726767191621274</speed>
  <fix>3d</fix>
</trkpt>
<trkpt lat="33.8104088" lon="-118.3937935">
  <ele>-24.44</ele>
  <time>2026-09-02T22:11:36Z</time>
  <course>193.85</course>
  <speed>1.0</speed>
  <fix>3d</fix>
</trkpt>
<trkpt lat="33.8104061" lon="-118.3937945">
  <ele>-25.06</ele>
  <time>2026-09-02T22:11:36Z</time>
  <course>195.14</course>
  <speed>0.9726767191621274</speed>
  <fix>3d</fix>
</trkpt>
<trkpt lat="33.810407" lon="-118.393794">
  <ele>-24.44</ele>
  <time>2026-09-02T22:11:36Z</time>
  <course>193.88</course>
  <speed>1.0</speed>
  <fix>3d</fix>
</trkpt>
<trkpt lat="33.8104052" lon="-118.3937948">
  <ele>-25.058</ele>
  <time>2026-09-02T22:11:36Z</time>
  <course>195.16</course>
  <speed>0.9726767191621274</speed>
  <fix>3d</fix>
</trkpt>
<trkpt lat="33.810407" lon="-118.393794">
  <ele>-24.44</ele>
  <time>2026-09-02T22:11:36Z</time>
  <course>193.88</course>
  <speed>1.0</speed>
  <fix>3d</fix>
</trkpt>
<trkpt lat="33.8104043" lon="-118.3937951">
  <ele>-25.057</ele>
  <time>2026-09-02T22:11:36Z</time>
  <course>195.2</course>
  <speed>0.9726767191621274</speed>
  <fix>3d</fix>
</trkpt>
<trkpt lat="33.8104053" lon="-118.3937946">
  <ele>-24.44</ele>
  <time>2026-09-02T22:11:36Z</time>
  <course>193.94</course>
  <speed>1.0</speed>
  <fix>3d</fix>
</trkpt>
<trkpt lat="33.8104035" lon="-118.3937953">
  <ele>-25.056</ele>
  <time>2026-09-02T22:11:36Z</time>
  <course>195.22</course>
  <speed>0.9726767191621274</speed>
  <fix>3d</fix>
</trkpt>
<trkpt lat="33.8104053" lon="-118.3937946">
  <ele>-24.44</ele>
  <time>2026-09-02T22:11:36Z</time>
  <course>193.94</course>
  <speed>1.0</speed>
  <fix>3d</fix>
</trkpt>
<trkpt lat="33.8104026" lon="-118.3937956">
  <ele>-25.055</ele>
  <time>2026-09-02T22:11:36Z</time>
  <course>195.23</course>
  <speed>0.9726767191621274</speed>
  <fix>3d</fix>
</trkpt>
<trkpt lat="33.8104036" lon="-118.3937951">
  <ele>-24.44</ele>
  <time>2026-09-02T22:11:36Z</time>
  <course>193.96</course>
  <speed>1.0</speed>
  <fix>3d</fix>
</trkpt>
<trkpt lat="33.8104017" lon="-118.3937958">
  <ele>-25.056</ele>
  <time>2026-09-02T22:11:36Z</time>
  <course>195.24</course>
  <speed>0.9726767191621274</speed>
  <fix>3d</fix>
</trkpt>
<trkpt lat="33.8104036" lon="-118.3937951">
  <ele>-24.44</ele>
  <time>2026-09-02T22:11:36Z</time>
  <course>193.96</course>
  <speed>1.0</speed>
  <fix>3d</fix>
</trkpt>
<trkpt lat="33.8104008" lon="-118.3937961">
  <ele>-25.056</ele>
  <time>2026-09-02T22:11:36Z</time>
  <course>195.24</course>
  <speed>0.9726767191621274</speed>
  <fix>3d</fix>
</trkpt>
<trkpt lat="33.8104018" lon="-118.3937956">
  <ele>-24.44</ele>
  <time>2026-09-02T22:11:36Z</time>
  <course>193.93</course>
  <speed>1.0</speed>
  <fix>3d</fix>
</trkpt>
<trkpt lat="33.8104" lon="-118.3937964">
  <ele>-25.057</ele>
  <time>2026-09-02T22:11:36Z</time>
  <course>195.23</course>
  <speed>0.9726767191621274</speed>
  <fix>3d</fix>
</trkpt>
<trkpt lat="33.8104018" lon="-118.3937956">
  <ele>-24.44</ele>
  <time>2026-09-02T22:11:36Z</time>
  <course>193.93</course>
  <speed>1.0</speed>
  <fix>3d</fix>
</trkpt>
<trkpt lat="33.8103991" lon="-118.3937966">
  <ele>-25.058</ele>
  <time>2026-09-02T22:11:36Z</time>
  <course>195.23</course>
  <speed>0.9726767191621274</speed>
  <fix>3d</fix>
</trkpt>
<trkpt lat="33.8104" lon="-118.3937961">
  <ele>-24.44</ele>
  <time>2026-09-02T22:11:36Z</time>
  <course>193.92</course>
  <speed>1.0</speed>
  <fix>3d</fix>
</trkpt>
<trkpt lat="33.8103982" lon="-118.3937969">
  <ele>-25.059</ele>
  <time>2026-09-02T22:11:36Z</time>
  <course>195.24</course>
  <speed>0.9630160954002794</speed>
  <fix>3d</fix>
</trkpt>
<trkpt lat="33.8104" lon="-118.3937961">
  <ele>-24.44</ele>
  <time>2026-09-02T22:11:36Z</time>
  <course>193.92</course>
  <speed>1.0</speed>
  <fix>3d</fix>
</trkpt>
<trkpt lat="33.8103973" lon="-118.3937971">
  <ele>-25.06</ele>
  <time>2026-09-02T22:11:36Z</time>
  <course>195.26</course>
  <speed>0.9630160954002794</speed>
  <fix>3d</fix>
</trkpt>
<trkpt lat="33.8103983" lon="-118.3937967">
  <ele>-24.45</ele>
  <time>2026-09-02T22:11:36Z</time>
  <course>193.96</course>
  <speed>1.0</speed>
  <fix>3d</fix>
</trkpt>
<trkpt lat="33.8103965" lon="-118.3937974">
  <ele>-25.06</ele>
  <time>2026-09-02T22:11:36Z</time>
  <course>195.27</course>
  <speed>0.9630160954002794</speed>
  <fix>3d</fix>
</trkpt>
<trkpt lat="33.8103983" lon="-118.3937967">
  <ele>-24.45</ele>
  <time>2026-09-02T22:11:36Z</time>
  <course>193.96</course>
  <speed>1.0</speed>
  <fix>3d</fix>
</trkpt>
<trkpt lat="33.8103956" lon="-118.3937977">
  <ele>-25.059</ele>
  <time>2026-09-02T22:11:36Z</time>
  <course>195.28</course>
  <speed>0.9630160954002794</speed>
  <fix>3d</fix>
</trkpt>
<trkpt lat="33.8103966" lon="-118.3937972">
  <ele>-24.45</ele>
  <time>2026-09-02T22:11:36Z</time>
  <course>193.99</course>
  <speed>0.99</speed>
  <fix>3d</fix>
</trkpt>
<trkpt lat="33.8103947" lon="-118.3937979">
  <ele>-25.059</ele>
  <time>2026-09-02T22:11:36Z</time>
  <course>195.27</course>
  <speed>0.9630160954002794</speed>
  <fix>3d</fix>
</trkpt>
<trkpt lat="33.8103966" lon="-118.3937972">
  <ele>-24.45</ele>
  <time>2026-09-02T22:11:36Z</time>
  <course>193.99</course>
  <speed>0.99</speed>
  <fix>3d</fix>
</trkpt>
<trkpt lat="33.8103939" lon="-118.3937982">
  <ele>-25.059</ele>
  <time>2026-09-02T22:11:36Z</time>
  <course>195.25</course>
  <speed>0.9630160954002794</speed>
  <fix>3d</fix>
</trkpt>
<trkpt lat="33.8103948" lon="-118.3937977">
  <ele>-24.45</ele>
  <time>2026-09-02T22:11:36Z</time>
  <course>193.97</course>
  <speed>0.99</speed>
  <fix>3d</fix>
</trkpt>
<trkpt lat="33.810393" lon="-118.3937984">
  <ele>-25.059</ele>
  <time>2026-09-02T22:11:36Z</time>
  <course>195.23</course>
  <speed>0.9630160954002794</speed>
  <fix>3d</fix>
</trkpt>
<trkpt lat="33.8103948" lon="-118.3937977">
  <ele>-24.45</ele>
  <time>2026-09-02T22:11:36Z</time>
  <course>193.97</course>
  <speed>0.99</speed>
  <fix>3d</fix>
</trkpt>
<trkpt lat="33.8103921" lon="-118.3937987">
  <ele>-25.059</ele>
  <time>2026-09-02T22:11:36Z</time>
  <course>195.22</course>
  <speed>0.9630160954002794</speed>
  <fix>3d</fix>
</trkpt>
<trkpt lat="33.8103931" lon="-118.3937982">
  <ele>-24.45</ele>
  <time>2026-09-02T22:11:36Z</time>
  <course>193.95</course>
  <speed>0.99</speed>
  <fix>3d</fix>
</trkpt>
<trkpt lat="33.8103912" lon="-118.393799">
  <ele>-25.061</ele>
  <time>2026-09-02T22:11:36Z</time>
  <course>195.21</course>
  <speed>0.9630160954002794</speed>
  <fix>3d</fix>
</trkpt>
<trkpt lat="33.8103931" lon="-118.3937982">
  <ele>-24.45</ele>
  <time>2026-09-02T22:11:36Z</time>
  <course>193.95</course>
  <speed>0.99</speed>
  <fix>3d</fix>
</trkpt>
<trkpt lat="33.8103904" lon="-118.3937992">
  <ele>-25.061</ele>
  <time>2026-09-02T22:11:36Z</time>
  <course>195.22</course>
  <speed>0.9726767191621274</speed>
  <fix>3d</fix>
</trkpt>
<trkpt lat="33.8103914" lon="-118.3937987">
  <ele>-24.45</ele>
  <time>2026-09-02T22:11:36Z</time>
  <course>193.97</course>
  <speed>0.99</speed>
  <fix>3d</fix>
</trkpt>
<trkpt lat="33.8103895" lon="-118.3937995">
  <ele>-25.061</ele>
  <time>2026-09-02T22:11:36Z</time>
  <course>195.22</course>
  <speed>0.9726767191621274</speed>
  <fix>3d</fix>
</trkpt>
<trkpt lat="33.8103914" lon="-118.3937987">
  <ele>-24.45</ele>
  <time>2026-09-02T22:11:36Z</time>
  <course>193.97</course>
  <speed>0.99</speed>
  <fix>3d</fix>
</trkpt>
<trkpt lat="33.8103886" lon="-118.3937997">
  <ele>-25.061</ele>
  <time>2026-09-02T22:11:36Z</time>
  <course>195.24</course>
  <speed>0.9726767191621274</speed>
  <fix>3d</fix>
</trkpt>
<trkpt lat="33.8103896" lon="-118.3937993">
  <ele>-24.45</ele>
  <time>2026-09-02T22:11:36Z</time>
  <course>193.98</course>
  <speed>0.99</speed>
  <fix>3d</fix>
</trkpt>
<trkpt lat="33.8103878" lon="-118.3938">
  <ele>-25.061</ele>
  <time>2026-09-02T22:11:36Z</time>
  <course>195.25</course>
  <speed>0.9726767191621274</speed>
  <fix>3d</fix>
</trkpt>
<trkpt lat="33.8103896" lon="-118.3937993">
  <ele>-24.45</ele>
  <time>2026-09-02T22:11:36Z</time>
  <course>193.98</course>
  <speed>0.99</speed>
  <fix>3d</fix>
</trkpt>
<trkpt lat="33.8103869" lon="-118.3938003">
  <ele>-25.06</ele>
  <time>2026-09-02T22:11:36Z</time>
  <course>195.24</course>
  <speed>0.9726767191621274</speed>
  <fix>3d</fix>
</trkpt>
<trkpt lat="33.8103878" lon="-118.3937998">
  <ele>-24.45</ele>
  <time>2026-09-02T22:11:36Z</time>
  <course>193.96</course>
  <speed>0.99</speed>
  <fix>3d</fix>
</trkpt>
<trkpt lat="33.810386" lon="-118.3938005">
  <ele>-25.058</ele>
  <time>2026-09-02T22:11:36Z</time>
  <course>195.23</course>
  <speed>0.9726767191621274</speed>
  <fix>3d</fix>
</trkpt>
<trkpt lat="33.8103878" lon="-118.3937998">
  <ele>-24.45</ele>
  <time>2026-09-02T22:11:36Z</time>
  <course>193.96</course>
  <speed>0.99</speed>
  <fix>3d</fix>
</trkpt>
<trkpt lat="33.8103851" lon="-118.3938008">
  <ele>-25.056</ele>
  <time>2026-09-02T22:11:36Z</time>
  <course>195.22</course>
  <speed>0.9726767191621274</speed>
  <fix>3d</fix>
</trkpt>
<trkpt lat="33.8103861" lon="-118.3938003">
  <ele>-24.45</ele>
  <time>2026-09-02T22:11:36Z</time>
  <course>193.94</course>
  <speed>0.99</speed>
  <fix>3d</fix>
</trkpt>
<trkpt lat="33.8103843" lon="-118.3938011">
  <ele>-25.055</ele>
  <time>2026-09-02T22:11:36Z</time>
  <course>195.22</course>
  <speed>0.9630160954002794</speed>
  <fix>3d</fix>
</trkpt>
<trkpt lat="33.8103861" lon="-118.3938003">
  <ele>-24.45</ele>
  <time>2026-09-02T22:11:36Z</time>
  <course>193.94</course>
  <speed>0.99</speed>
  <fix>3d</fix>
</trkpt>
<trkpt lat="33.8103834" lon="-118.3938013">
  <ele>-25.056</ele>
  <time>2026-09-02T22:11:36Z</time>
  <course>195.23</course>
  <speed>0.9630160954002794</speed>
  <fix>3d</fix>
</trkpt>
<trkpt lat="33.8103844" lon="-118.3938008">
  <ele>-24.45</ele>
  <time>2026-09-02T22:11:36Z</time>
  <course>193.94</course>
  <speed>0.99</speed>
  <fix>3d</fix>
</trkpt>
<trkpt lat="33.8103825" lon="-118.3938016">
  <ele>-25.058</ele>
  <time>2026-09-02T22:11:36Z</time>
  <course>195.23</course>
  <speed>0.9726767191621274</speed>
  <fix>3d</fix>
</trkpt>
<trkpt lat="33.8103844" lon="-118.3938008">
  <ele>-24.45</ele>
  <time>2026-09-02T22:11:36Z</time>
  <course>193.94</course>
  <speed>0.99</speed>
  <fix>3d</fix>
</trkpt>
<trkpt lat="33.8103816" lon="-118.3938018">
  <ele>-25.059</ele>
  <time>2026-09-02T22:11:36Z</time>
  <course>195.24</course>
  <speed>0.9726767191621274</speed>
  <fix>3d</fix>
</trkpt>
<trkpt lat="33.8103827" lon="-118.3938013">
  <ele>-24.45</ele>
  <time>2026-09-02T22:11:36Z</time>
  <course>193.96</course>
  <speed>0.99</speed>
  <fix>3d</fix>
</trkpt>
<trkpt lat="33.8103808" lon="-118.3938021">
  <ele>-25.059</ele>
  <time>2026-09-02T22:11:36Z</time>
  <course>195.26</course>
  <speed>0.9726767191621274</speed>
  <fix>3d</fix>
</trkpt>
<trkpt lat="33.8103827" lon="-118.3938013">
  <ele>-24.45</ele>
  <time>2026-09-02T22:11:36Z</time>
  <course>193.96</course>
  <speed>0.99</speed>
  <fix>3d</fix>
</trkpt>
<trkpt lat="33.8103799" lon="-118.3938024">
  <ele>-25.059</ele>
  <time>2026-09-02T22:11:36Z</time>
  <course>195.27</course>
  <speed>0.9726767191621274</speed>
  <fix>3d</fix>
</trkpt>
<trkpt lat="33.8103809" lon="-118.3938019">
  <ele>-24.45</ele>
  <time>2026-09-02T22:11:36Z</time>
  <course>193.99</course>
  <speed>0.99</speed>
  <fix>3d</fix>
</trkpt>
<trkpt lat="33.810379" lon="-118.3938026">
  <ele>-25.059</ele>
  <time>2026-09-02T22:11:36Z</time>
  <course>195.27</course>
  <speed>0.9726767191621274</speed>
  <fix>3d</fix>
</trkpt>
<trkpt lat="33.8103809" lon="-118.3938019">
  <ele>-24.45</ele>
  <time>2026-09-02T22:11:36Z</time>
  <course>193.99</course>
  <speed>0.99</speed>
  <fix>3d</fix>
</trkpt>
<trkpt lat="33.8103782" lon="-118.3938029">
  <ele>-25.06</ele>
  <time>2026-09-02T22:11:36Z</time>
  <course>195.27</course>
  <speed>0.9726767191621274</speed>
  <fix>3d</fix>
</trkpt>
<trkpt lat="33.8103792" lon="-118.3938024">
  <ele>-24.45</ele>
  <time>2026-09-02T22:11:36Z</time>
  <course>193.99</course>
  <speed>0.99</speed>
  <fix>3d</fix>
</trkpt>
<trkpt lat="33.8103773" lon="-118.3938031">
  <ele>-25.06</ele>
  <time>2026-09-02T22:11:36Z</time>
  <course>195.25</course>
  <speed>0.9726767191621274</speed>
  <fix>3d</fix>
</trkpt>
<trkpt lat="33.8103792" lon="-118.3938024">
  <ele>-24.45</ele>
  <time>2026-09-02T22:11:36Z</time>
  <course>193.99</course>
  <speed>0.99</speed>
  <fix>3d</fix>
</trkpt>
<trkpt lat="33.8103764" lon="-118.3938034">
  <ele>-25.061</ele>
  <time>2026-09-02T22:11:36Z</time>
  <course>195.23</course>
  <speed>0.9726767191621274</speed>
  <fix>3d</fix>
</trkpt>
<trkpt lat="33.8103774" lon="-118.3938029">
  <ele>-24.45</ele>
  <time>2026-09-02T22:11:36Z</time>
  <course>193.96</course>
  <speed>0.99</speed>
  <fix>3d</fix>
</trkpt>
<trkpt lat="33.8103756" lon="-118.3938037">
  <ele>-25.06</ele>
  <time>2026-09-02T22:11:36Z</time>
  <course>195.22</course>
  <speed>0.9726767191621274</speed>
  <fix>3d</fix>
</trkpt>
<trkpt lat="33.8103774" lon="-118.3938029">
  <ele>-24.45</ele>
  <time>2026-09-02T22:11:36Z</time>
  <course>193.96</course>
  <speed>0.99</speed>
  <fix>3d</fix>
</trkpt>
<trkpt lat="33.8103747" lon="-118.3938039">
  <ele>-25.06</ele>
  <time>2026-09-02T22:11:36Z</time>
  <course>195.21</course>
  <speed>0.9726767191621274</speed>
  <fix>3d</fix>
</trkpt>
<trkpt lat="33.8103756" lon="-118.3938034">
  <ele>-24.45</ele>
  <time>2026-09-02T22:11:36Z</time>
  <course>193.95</course>
  <speed>0.99</speed>
  <fix>3d</fix>
</trkpt>
<trkpt lat="33.8103738" lon="-118.3938042">
  <ele>-25.06</ele>
  <time>2026-09-02T22:11:36Z</time>
  <course>195.22</course>
  <speed>0.9726767191621274</speed>
  <fix>3d</fix>
</trkpt>
<trkpt lat="33.8103756" lon="-118.3938034">
  <ele>-24.45</ele>
  <time>2026-09-02T22:11:36Z</time>
  <course>193.95</course>
  <speed>0.99</speed>
  <fix>3d</fix>
</trkpt>
<trkpt lat="33.8103729" lon="-118.3938044">
  <ele>-25.059</ele>
  <time>2026-09-02T22:11:36Z</time>
  <course>195.24</course>
  <speed>0.9726767191621274</speed>
  <fix>3d</fix>
</trkpt>
<trkpt lat="33.8103739" lon="-118.393804">
  <ele>-24.45</ele>
  <time>2026-09-02T22:11:36Z</time>
  <course>193.99</course>
  <speed>0.99</speed>
  <fix>3d</fix>
</trkpt>
<trkpt lat="33.810372" lon="-118.3938047">
  <ele>-25.058</ele>
  <time>2026-09-02T22:11:36Z</time>
  <course>195.25</course>
  <speed>0.9726767191621274</speed>
  <fix>3d</fix>
</trkpt>
<trkpt lat="33.8103739" lon="-118.393804">
  <ele>-24.45</ele>
  <time>2026-09-02T22:11:36Z</time>
  <course>193.99</course>
  <speed>0.99</speed>
  <fix>3d</fix>
</trkpt>
<trkpt lat="33.8103712" lon="-118.393805">
  <ele>-25.059</ele>
  <time>2026-09-02T22:11:36Z</time>
  <course>195.25</course>
  <speed>0.9726767191621274</speed>
  <fix>3d</fix>
</trkpt>
<trkpt lat="33.8103722" lon="-118.3938045">
  <ele>-24.45</ele>
  <time>2026-09-02T22:11:36Z</time>
  <course>193.99</course>
  <speed>0.99</speed>
  <fix>3d</fix>
</trkpt>
<trkpt lat="33.8103703" lon="-118.3938052">
  <ele>-25.059</ele>
  <time>2026-09-02T22:11:36Z</time>
  <course>195.24</course>
  <speed>0.9726767191621274</speed>
  <fix>3d</fix>
</trkpt>
<trkpt lat="33.8103722" lon="-118.3938045">
  <ele>-24.45</ele>
  <time>2026-09-02T22:11:36Z</time>
  <course>193.99</course>
  <speed>0.99</speed>
  <fix>3d</fix>
</trkpt>
<trkpt lat="33.8103694" lon="-118.3938055">
  <ele>-25.059</ele>
  <time>2026-09-02T22:11:36Z</time>
  <course>195.23</course>
  <speed>0.9726767191621274</speed>
  <fix>3d</fix>
</trkpt>
<trkpt lat="33.8103705" lon="-118.393805">
  <ele>-24.45</ele>
  <time>2026-09-02T22:11:36Z</time>
  <course>193.95</course>
  <speed>0.99</speed>
  <fix>3d</fix>
</trkpt>
<trkpt lat="33.8103686" lon="-118.3938058">
  <ele>-25.06</ele>
  <time>2026-09-02T22:11:36Z</time>
  <course>195.22</course>
  <speed>0.9726767191621274</speed>
  <fix>3d</fix>
</trkpt>
<trkpt lat="33.8103705" lon="-118.393805">
  <ele>-24.45</ele>
  <time>2026-09-02T22:11:36Z</time>
  <course>193.95</course>
  <speed>0.99</speed>
  <fix>3d</fix>
</trkpt>
<trkpt lat="33.8103677" lon="-118.393806">
  <ele>-25.06</ele>
  <time>2026-09-02T22:11:36Z</time>
  <course>195.21</course>
  <speed>0.9726767191621274</speed>
  <fix>3d</fix>
</trkpt>
<trkpt lat="33.8103687" lon="-118.3938055">
  <ele>-24.45</ele>
  <time>2026-09-02T22:11:36Z</time>
  <course>193.93</course>
  <speed>0.99</speed>
  <fix>3d</fix>
</trkpt>
<trkpt lat="33.8103668" lon="-118.3938063">
  <ele>-25.06</ele>
  <time>2026-09-02T22:11:36Z</time>
  <course>195.2</course>
  <speed>0.9726767191621274</speed>
  <fix>3d</fix>
</trkpt>
<trkpt lat="33.8103687" lon="-118.3938055">
  <ele>-24.45</ele>
  <time>2026-09-02T22:11:36Z</time>
  <course>193.93</course>
  <speed>0.99</speed>
  <fix>3d</fix>
</trkpt>
<trkpt lat="33.810366" lon="-118.3938065">
  <ele>-25.058</ele>
  <time>2026-09-02T22:11:36Z</time>
  <course>195.21</course>
  <speed>0.9726767191621274</speed>
  <fix>3d</fix>
</trkpt>
<trkpt lat="33.810367" lon="-118.393806">
  <ele>-24.45</ele>
  <time>2026-09-02T22:11:36Z</time>
  <course>193.95</course>
  <speed>0.99</speed>
  <fix>3d</fix>
</trkpt>
<trkpt lat="33.8103651" lon="-118.3938068">
  <ele>-25.057</ele>
  <time>2026-09-02T22:11:36Z</time>
  <course>195.21</course>
  <speed>0.9726767191621274</speed>
  <fix>3d</fix>
</trkpt>
<trkpt lat="33.810367" lon="-118.393806">
  <ele>-24.45</ele>
  <time>2026-09-02T22:11:36Z</time>
  <course>193.95</course>
  <speed>0.99</speed>
  <fix>3d</fix>
</trkpt>
<trkpt lat="33.8103642" lon="-118.3938071">
  <ele>-25.056</ele>
  <time>2026-09-02T22:11:36Z</time>
  <course>195.23</course>
  <speed>0.9726767191621274</speed>
  <fix>3d</fix>
</trkpt>
<trkpt lat="33.8103653" lon="-118.3938066">
  <ele>-24.45</ele>
  <time>2026-09-02T22:11:36Z</time>
  <course>193.99</course>
  <speed>0.99</speed>
  <fix>3d</fix>
</trkpt>
<trkpt lat="33.8103634" lon="-118.3938073">
  <ele>-25.056</ele>
  <time>2026-09-02T22:11:36Z</time>
  <course>195.23</course>
  <speed>0.9726767191621274</speed>
  <fix>3d</fix>
</trkpt>
<trkpt lat="33.8103653" lon="-118.3938066">
  <ele>-24.45</ele>
  <time>2026-09-02T22:11:36Z</time>
  <course>193.99</course>
  <speed>0.99</speed>
  <fix>3d</fix>
</trkpt>
<trkpt lat="33.8103625" lon="-118.3938076">
  <ele>-25.057</ele>
  <time>2026-09-02T22:11:36Z</time>
  <course>195.22</course>
  <speed>0.9726767191621274</speed>
  <fix>3d</fix>
</trkpt>
<trkpt lat="33.8103635" lon="-118.3938071">
  <ele>-24.45</ele>
  <time>2026-09-02T22:11:36Z</time>
  <course>193.98</course>
  <speed>0.99</speed>
  <fix>3d</fix>
</trkpt>
<trkpt lat="33.8103616" lon="-118.3938078">
  <ele>-25.057</ele>
  <time>2026-09-02T22:11:36Z</time>
  <course>195.19</course>
  <speed>0.9726767191621274</speed>
  <fix>3d</fix>
</trkpt>
<trkpt lat="33.8103635" lon="-118.3938071">
  <ele>-24.45</ele>
  <time>2026-09-02T22:11:36Z</time>
  <course>193.98</course>
  <speed>0.99</speed>
  <fix>3d</fix>
</trkpt>
<trkpt lat="33.8103607" lon="-118.3938081">
  <ele>-25.056</ele>
  <time>2026-09-02T22:11:36Z</time>
  <course>195.17</course>
  <speed>0.9726767191621274</speed>
  <fix>3d</fix>
</trkpt>
<trkpt lat="33.8103617" lon="-118.3938076">
  <ele>-24.45</ele>
  <time>2026-09-02T22:11:36Z</time>
  <course>193.94</course>
  <speed>0.99</speed>
  <fix>3d</fix>
</trkpt>
<trkpt lat="33.8103599" lon="-118.3938084">
  <ele>-25.057</ele>
  <time>2026-09-02T22:11:36Z</time>
  <course>195.16</course>
  <speed>0.9726767191621274</speed>
  <fix>3d</fix>
</trkpt>
<trkpt lat="33.8103617" lon="-118.3938076">
  <ele>-24.45</ele>
  <time>2026-09-02T22:11:36Z</time>
  <course>193.94</course>
  <speed>0.99</speed>
  <fix>3d</fix>
</trkpt>
<trkpt lat="33.810359" lon="-118.3938086">
  <ele>-25.058</ele>
  <time>2026-09-02T22:11:36Z</time>
  <course>195.16</course>
  <speed>0.9726767191621274</speed>
  <fix>3d</fix>
</trkpt>
<trkpt lat="33.81036" lon="-118.3938081">
  <ele>-24.45</ele>
  <time>2026-09-02T22:11:36Z</time>
  <course>193.94</course>
  <speed>0.99</speed>
  <fix>3d</fix>
</trkpt>
<trkpt lat="33.8103581" lon="-118.3938089">
  <ele>-25.06</ele>
  <time>2026-09-02T22:11:36Z</time>
  <course>195.17</course>
  <speed>0.9726767191621274</speed>
  <fix>3d</fix>
</trkpt>
<trkpt lat="33.81036" lon="-118.3938081">
  <ele>-24.45</ele>
  <time>2026-09-02T22:11:36Z</time>
  <course>193.94</course>
  <speed>0.99</speed>
  <fix>3d</fix>
</trkpt>
<trkpt lat="33.8103572" lon="-118.3938091">
  <ele>-25.061</ele>
  <time>2026-09-02T22:11:36Z</time>
  <course>195.19</course>
  <speed>0.9726767191621274</speed>
  <fix>3d</fix>
</trkpt>
<trkpt lat="33.8103583" lon="-118.3938086">
  <ele>-24.45</ele>
  <time>2026-09-02T22:11:36Z</time>
  <course>193.98</course>
  <speed>0.99</speed>
  <fix>3d</fix>
</trkpt>
<trkpt lat="33.8103564" lon="-118.3938094">
  <ele>-25.062</ele>
  <time>2026-09-02T22:11:36Z</time>
  <course>195.2</course>
  <speed>0.9726767191621274</speed>
  <fix>3d</fix>
</trkpt>
<trkpt lat="33.8103583" lon="-118.3938086">
  <ele>-24.45</ele>
  <time>2026-09-02T22:11:36Z</time>
  <course>193.98</course>
  <speed>0.99</speed>
  <fix>3d</fix>
</trkpt>
<trkpt lat="33.8103555" lon="-118.3938097">
  <ele>-25.062</ele>
  <time>2026-09-02T22:11:36Z</time>
  <course>195.22</course>
  <speed>0.9726767191621274</speed>
  <fix>3d</fix>
</trkpt>
<trkpt lat="33.8103565" lon="-118.3938092">
  <ele>-24.46</ele>
  <time>2026-09-02T22:11:36Z</time>
  <course>194.02</course>
  <speed>0.99</speed>
  <fix>3d</fix>
</trkpt>
<trkpt lat="33.8103546" lon="-118.3938099">
  <ele>-25.062</ele>
  <time>2026-09-02T22:11:36Z</time>
  <course>195.23</course>
  <speed>0.9726767191621274</speed>
  <fix>3d</fix>
</trkpt>
<trkpt lat="33.8103565" lon="-118.3938092">
  <ele>-24.46</ele>
  <time>2026-09-02T22:11:36Z</time>
  <course>194.02</course>
  <speed>0.99</speed>
  <fix>3d</fix>
</trkpt>
<trkpt lat="33.8103538" lon="-118.3938102">
  <ele>-25.061</ele>
  <time>2026-09-02T22:11:36Z</time>
  <course>195.23</course>
  <speed>0.9726767191621274</speed>
  <fix>3d</fix>
</trkpt>
<trkpt lat="33.8103548" lon="-118.3938097">
  <ele>-24.45</ele>
  <time>2026-09-02T22:11:36Z</time>
  <course>194.03</course>
  <speed>0.99</speed>
  <fix>3d</fix>
</trkpt>
<trkpt lat="33.8103529" lon="-118.3938104">
  <ele>-25.058</ele>
  <time>2026-09-02T22:11:36Z</time>
  <course>195.22</course>
  <speed>0.9726767191621274</speed>
  <fix>3d</fix>
</trkpt>
<trkpt lat="33.8103548" lon="-118.3938097">
  <ele>-24.45</ele>
  <time>2026-09-02T22:11:36Z</time>
  <course>194.03</course>
  <speed>0.99</speed>
  <fix>3d</fix>
</trkpt>
<trkpt lat="33.810352" lon="-118.3938107">
  <ele>-25.056</ele>
  <time>2026-09-02T22:11:36Z</time>
  <course>195.21</course>
  <speed>0.9726767191621274</speed>
  <fix>3d</fix>
</trkpt>
<trkpt lat="33.8103531" lon="-118.3938102">
  <ele>-24.45</ele>
  <time>2026-09-02T22:11:36Z</time>
  <course>194.02</course>
  <speed>0.99</speed>
  <fix>3d</fix>
</trkpt>
<trkpt lat="33.8103511" lon="-118.393811">
  <ele>-25.055</ele>
  <time>2026-09-02T22:11:36Z</time>
  <course>195.2</course>
  <speed>0.9726767191621274</speed>
  <fix>3d</fix>
</trkpt>
<trkpt lat="33.8103531" lon="-118.3938102">
  <ele>-24.45</ele>
  <time>2026-09-02T22:11:36Z</time>
  <course>194.02</course>
  <speed>0.99</speed>
  <fix>3d</fix>
</trkpt>
<trkpt lat="33.8103503" lon="-118.3938112">
  <ele>-25.054</ele>
  <time>2026-09-02T22:11:36Z</time>
  <course>195.19</course>
  <speed>0.9726767191621274</speed>
  <fix>3d</fix>
</trkpt>
<trkpt lat="33.8103513" lon="-118.3938107">
  <ele>-24.45</ele>
  <time>2026-09-02T22:11:36Z</time>
  <course>194.03</course>
  <speed>0.99</speed>
  <fix>3d</fix>
</trkpt>
<trkpt lat="33.8103494" lon="-118.3938115">
  <ele>-25.055</ele>
  <time>2026-09-02T22:11:36Z</time>
  <course>195.18</course>
  <speed>0.9726767191621274</speed>
  <fix>3d</fix>
</trkpt>
<trkpt lat="33.8103513" lon="-118.3938107">
  <ele>-24.45</ele>
  <time>2026-09-02T22:11:36Z</time>
  <course>194.03</course>
  <speed>0.99</speed>
  <fix>3d</fix>
</trkpt>
<trkpt lat="33.8103485" lon="-118.3938118">
  <ele>-25.056</ele>
  <time>2026-09-02T22:11:36Z</time>
  <course>195.19</course>
  <speed>0.9726767191621274</speed>
  <fix>3d</fix>
</trkpt>
<trkpt lat="33.8103496" lon="-118.3938113">
  <ele>-24.45</ele>
  <time>2026-09-02T22:11:36Z</time>
  <course>194.06</course>
  <speed>0.99</speed>
  <fix>3d</fix>
</trkpt>
<trkpt lat="33.8103477" lon="-118.393812">
  <ele>-25.058</ele>
  <time>2026-09-02T22:11:36Z</time>
  <course>195.18</course>
  <speed>0.9726767191621274</speed>
  <fix>3d</fix>
</trkpt>
<trkpt lat="33.8103496" lon="-118.3938113">
  <ele>-24.45</ele>
  <time>2026-09-02T22:11:36Z</time>
  <course>194.06</course>
  <speed>0.99</speed>
  <fix>3d</fix>
</trkpt>
<trkpt lat="33.8103468" lon="-118.3938123">
  <ele>-25.059</ele>
  <time>2026-09-02T22:11:36Z</time>
  <course>195.17</course>
  <speed>0.9726767191621274</speed>
  <fix>3d</fix>
</trkpt>
<trkpt lat="33.8103478" lon="-118.3938118">
  <ele>-24.45</ele>
  <time>2026-09-02T22:11:36Z</time>
  <course>194.06</course>
  <speed>0.99</speed>
  <fix>3d</fix>
</trkpt>
<trkpt lat="33.8103459" lon="-118.3938125">
  <ele>-25.06</ele>
  <time>2026-09-02T22:11:36Z</time>
  <course>195.15</course>
  <speed>0.9726767191621274</speed>
  <fix>3d</fix>
</trkpt>
<trkpt lat="33.8103478" lon="-118.3938118">
  <ele>-24.45</ele>
  <time>2026-09-02T22:11:36Z</time>
  <course>194.06</course>
  <speed>0.99</speed>
  <fix>3d</fix>
</trkpt>
<trkpt lat="33.810345" lon="-118.3938128">
  <ele>-25.061</ele>
  <time>2026-09-02T22:11:36Z</time>
  <course>195.13</course>
  <speed>0.9726767191621274</speed>
  <fix>3d</fix>
</trkpt>
<trkpt lat="33.8103461" lon="-118.3938123">
  <ele>-24.45</ele>
  <time>2026-09-02T22:11:36Z</time>
  <course>194.04</course>
  <speed>0.99</speed>
  <fix>3d</fix>
</trkpt>
<trkpt lat="33.8103442" lon="-118.3938131">
  <ele>-25.061</ele>
  <time>2026-09-02T22:11:36Z</time>
  <course>195.11</course>
  <speed>0.9726767191621274</speed>
  <fix>3d</fix>
</trkpt>
<trkpt lat="33.8103461" lon="-118.3938123">
  <ele>-24.45</ele>
  <time>2026-09-02T22:11:36Z</time>
  <course>194.04</course>
  <speed>0.99</speed>
  <fix>3d</fix>
</trkpt>
<trkpt lat="33.8103433" lon="-118.3938133">
  <ele>-25.06</ele>
  <time>2026-09-02T22:11:36Z</time>
  <course>195.11</course>
  <speed>0.9726767191621274</speed>
  <fix>3d</fix>
</trkpt>
<trkpt lat="33.8103444" lon="-118.3938128">
  <ele>-24.45</ele>
  <time>2026-09-02T22:11:36Z</time>
  <course>194.05</course>
  <speed>0.99</speed>
  <fix>3d</fix>
</trkpt>
<trkpt lat="33.8103424" lon="-118.3938136">
  <ele>-25.058</ele>
  <time>2026-09-02T22:11:36Z</time>
  <course>195.1</course>
  <speed>0.9726767191621274</speed>
  <fix>3d</fix>
</trkpt>
<trkpt lat="33.8103444" lon="-118.3938128">
  <ele>-24.45</ele>
  <time>2026-09-02T22:11:36Z</time>
  <course>194.05</course>
  <speed>0.99</speed>
  <fix>3d</fix>
</trkpt>
<trkpt lat="33.8103416" lon="-118.3938138">
  <ele>-25.057</ele>
  <time>2026-09-02T22:11:36Z</time>
  <course>195.1</course>
  <speed>0.9726767191621274</speed>
  <fix>3d</fix>
</trkpt>
<trkpt lat="33.8103426" lon="-118.3938133">
  <ele>-24.45</ele>
  <time>2026-09-02T22:11:36Z</time>
  <course>194.09</course>
  <speed>0.99</speed>
  <fix>3d</fix>
</trkpt>
<trkpt lat="33.8103407" lon="-118.3938141">
  <ele>-25.057</ele>
  <time>2026-09-02T22:11:36Z</time>
  <course>195.1</course>
  <speed>0.9726767191621274</speed>
  <fix>3d</fix>
</trkpt>
<trkpt lat="33.8103426" lon="-118.3938133">
  <ele>-24.45</ele>
  <time>2026-09-02T22:11:36Z</time>
  <course>194.09</course>
  <speed>0.99</speed>
  <fix>3d</fix>
</trkpt>
<trkpt lat="33.8103398" lon="-118.3938144">
  <ele>-25.056</ele>
  <time>2026-09-02T22:11:36Z</time>
  <course>195.12</course>
  <speed>0.9726767191621274</speed>
  <fix>3d</fix>
</trkpt>
<trkpt lat="33.8103409" lon="-118.3938139">
  <ele>-24.44</ele>
  <time>2026-09-02T22:11:36Z</time>
  <course>194.14</course>
  <speed>0.99</speed>
  <fix>3d</fix>
</trkpt>
<trkpt lat="33.810339" lon="-118.3938146">
  <ele>-25.055</ele>
  <time>2026-09-02T22:11:36Z</time>
  <course>195.12</course>
  <speed>0.9726767191621274</speed>
  <fix>3d</fix>
</trkpt>
<trkpt lat="33.8103409" lon="-118.3938139">
  <ele>-24.44</ele>
  <time>2026-09-02T22:11:36Z</time>
  <course>194.14</course>
  <speed>0.99</speed>
  <fix>3d</fix>
</trkpt>
<trkpt lat="33.8103381" lon="-118.3938149">
  <ele>-25.055</ele>
  <time>2026-09-02T22:11:36Z</time>
  <course>195.11</course>
  <speed>0.9726767191621274</speed>
  <fix>3d</fix>
</trkpt>
<trkpt lat="33.8103392" lon="-118.3938144">
  <ele>-24.44</ele>
  <time>2026-09-02T22:11:36Z</time>
  <course>194.17</course>
  <speed>0.99</speed>
  <fix>3d</fix>
</trkpt>
<trkpt lat="33.8103372" lon="-118.3938151">
  <ele>-25.054</ele>
  <time>2026-09-02T22:11:36Z</time>
  <course>195.09</course>
  <speed>0.9726767191621274</speed>
  <fix>3d</fix>
</trkpt>
<trkpt lat="33.8103392" lon="-118.3938144">
  <ele>-24.44</ele>
  <time>2026-09-02T22:11:36Z</time>
  <course>194.17</course>
  <speed>0.99</speed>
  <fix>3d</fix>
</trkpt>
<trkpt lat="33.8103363" lon="-118.3938154">
  <ele>-25.054</ele>
  <time>2026-09-02T22:11:36Z</time>
  <course>195.07</course>
  <speed>0.9726767191621274</speed>
  <fix>3d</fix>
</trkpt>
<trkpt lat="33.8103375" lon="-118.3938149">
  <ele>-24.44</ele>
  <time>2026-09-02T22:11:36Z</time>
  <course>194.15</course>
  <speed>0.99</speed>
  <fix>3d</fix>
</trkpt>
<trkpt lat="33.8103355" lon="-118.3938157">
  <ele>-25.053</ele>
  <time>2026-09-02T22:11:36Z</time>
  <course>195.04</course>
  <speed>0.9726767191621274</speed>
  <fix>3d</fix>
</trkpt>
<trkpt lat="33.8103375" lon="-118.3938149">
  <ele>-24.44</ele>
  <time>2026-09-02T22:11:36Z</time>
  <course>194.15</course>
  <speed>0.99</speed>
  <fix>3d</fix>
</trkpt>
<trkpt lat="33.8103346" lon="-118.3938159">
  <ele>-25.053</ele>
  <time>2026-09-02T22:11:36Z</time>
  <course>195.02</course>
  <speed>0.9726767191621274</speed>
  <fix>3d</fix>
</trkpt>
<trkpt lat="33.8103357" lon="-118.3938155">
  <ele>-24.44</ele>
  <time>2026-09-02T22:11:36Z</time>
  <course>194.14</course>
  <speed>0.99</speed>
  <fix>3d</fix>
</trkpt>
<trkpt lat="33.8103337" lon="-118.3938162">
  <ele>-25.055</ele>
  <time>2026-09-02T22:11:36Z</time>
  <course>195.0</course>
  <speed>0.9726767191621274</speed>
  <fix>3d</fix>
</trkpt>
<trkpt lat="33.8103357" lon="-118.3938155">
  <ele>-24.44</ele>
  <time>2026-09-02T22:11:36Z</time>
  <course>194.14</course>
  <speed>0.99</speed>
  <fix>3d</fix>
</trkpt>
<trkpt lat="33.8103329" lon="-118.3938165">
  <ele>-25.056</ele>
  <time>2026-09-02T22:11:36Z</time>
  <course>194.96</course>
  <speed>0.9726767191621274</speed>
  <fix>3d</fix>
</trkpt>
<trkpt lat="33.810334" lon="-118.393816">
  <ele>-24.44</ele>
  <time>2026-09-02T22:11:36Z</time>
  <course>194.12</course>
  <speed>0.99</speed>
  <fix>3d</fix>
</trkpt>
<trkpt lat="33.810332" lon="-118.3938167">
  <ele>-25.057</ele>
  <time>2026-09-02T22:11:36Z</time>
  <course>194.92</course>
  <speed>0.9726767191621274</speed>
  <fix>3d</fix>
</trkpt>
<trkpt lat="33.810334" lon="-118.393816">
  <ele>-24.44</ele>
  <time>2026-09-02T22:11:36Z</time>
  <course>194.12</course>
  <speed>0.99</speed>
  <fix>3d</fix>
</trkpt>
<trkpt lat="33.8103311" lon="-118.393817">
  <ele>-25.058</ele>
  <time>2026-09-02T22:11:36Z</time>
  <course>194.88</course>
  <speed>0.9726767191621274</speed>
  <fix>3d</fix>
</trkpt>
<trkpt lat="33.8103322" lon="-118.3938165">
  <ele>-24.45</ele>
  <time>2026-09-02T22:11:36Z</time>
  <course>194.09</course>
  <speed>0.99</speed>
  <fix>3d</fix>
</trkpt>
<trkpt lat="33.8103302" lon="-118.3938173">
  <ele>-25.057</ele>
  <time>2026-09-02T22:11:36Z</time>
  <course>194.85</course>
  <speed>0.9726767191621274</speed>
  <fix>3d</fix>
</trkpt>
<trkpt lat="33.8103322" lon="-118.3938165">
  <ele>-24.45</ele>
  <time>2026-09-02T22:11:36Z</time>
  <course>194.09</course>
  <speed>0.99</speed>
  <fix>3d</fix>
</trkpt>
<trkpt lat="33.8103294" lon="-118.3938175">
  <ele>-25.057</ele>
  <time>2026-09-02T22:11:36Z</time>
  <course>194.83</course>
  <speed>0.9726767191621274</speed>
  <fix>3d</fix>
</trkpt>
<trkpt lat="33.8103305" lon="-118.393817">
  <ele>-24.45</ele>
  <time>2026-09-02T22:11:36Z</time>
  <course>194.09</course>
  <speed>0.99</speed>
  <fix>3d</fix>
</trkpt>
<trkpt lat="33.8103285" lon="-118.3938178">
  <ele>-25.058</ele>
  <time>2026-09-02T22:11:36Z</time>
  <course>194.81</course>
  <speed>0.9726767191621274</speed>
  <fix>3d</fix>
</trkpt>
<trkpt lat="33.8103305" lon="-118.393817">
  <ele>-24.45</ele>
  <time>2026-09-02T22:11:36Z</time>
  <course>194.09</course>
  <speed>0.99</speed>
  <fix>3d</fix>
</trkpt>
<trkpt lat="33.8103276" lon="-118.393818">
  <ele>-25.057</ele>
  <time>2026-09-02T22:11:36Z</time>
  <course>194.81</course>
  <speed>0.9726767191621274</speed>
  <fix>3d</fix>
</trkpt>
<trkpt lat="33.8103287" lon="-118.3938176">
  <ele>-24.45</ele>
  <time>2026-09-02T22:11:36Z</time>
  <course>194.12</course>
  <speed>0.99</speed>
  <fix>3d</fix>
</trkpt>
<trkpt lat="33.8103268" lon="-118.3938183">
  <ele>-25.056</ele>
  <time>2026-09-02T22:11:36Z</time>
  <course>194.8</course>
  <speed>0.9726767191621274</speed>
  <fix>3d</fix>
</trkpt>
<trkpt lat="33.8103287" lon="-118.3938176">
  <ele>-24.45</ele>
  <time>2026-09-02T22:11:36Z</time>
  <course>194.12</course>
  <speed>0.99</speed>
  <fix>3d</fix>
</trkpt>
<trkpt lat="33.8103259" lon="-118.3938186">
  <ele>-25.054</ele>
  <time>2026-09-02T22:11:36Z</time>
  <course>194.78</course>
  <speed>0.9726767191621274</speed>
  <fix>3d</fix>
</trkpt>
<trkpt lat="33.810327" lon="-118.3938181">
  <ele>-24.45</ele>
  <time>2026-09-02T22:11:36Z</time>
  <course>194.13</course>
  <speed>0.99</speed>
  <fix>3d</fix>
</trkpt>
<trkpt lat="33.810325" lon="-118.3938188">
  <ele>-25.052</ele>
  <time>2026-09-02T22:11:36Z</time>
  <course>194.76</course>
  <speed>0.9726767191621274</speed>
  <fix>3d</fix>
</trkpt>
<trkpt lat="33.810327" lon="-118.3938181">
  <ele>-24.45</ele>
  <time>2026-09-02T22:11:36Z</time>
  <course>194.13</course>
  <speed>0.99</speed>
  <fix>3d</fix>
</trkpt>
<trkpt lat="33.8103241" lon="-118.3938191">
  <ele>-25.052</ele>
  <time>2026-09-02T22:11:36Z</time>
  <course>194.74</course>
  <speed>0.9726767191621274</speed>
  <fix>3d</fix>
</trkpt>
<trkpt lat="33.8103253" lon="-118.3938186">
  <ele>-24.45</ele>
  <time>2026-09-02T22:11:36Z</time>
  <course>194.14</course>
  <speed>0.99</speed>
  <fix>3d</fix>
</trkpt>
<trkpt lat="33.8103233" lon="-118.3938193">
  <ele>-25.053</ele>
  <time>2026-09-02T22:11:36Z</time>
  <course>194.72</course>
  <speed>0.9726767191621274</speed>
  <fix>3d</fix>
</trkpt>
<trkpt lat="33.8103253" lon="-118.3938186">
  <ele>-24.45</ele>
  <time>2026-09-02T22:11:36Z</time>
  <course>194.14</course>
  <speed>0.99</speed>
  <fix>3d</fix>
</trkpt>
<trkpt lat="33.8103224" lon="-118.3938196">
  <ele>-25.055</ele>
  <time>2026-09-02T22:11:36Z</time>
  <course>194.7</course>
  <speed>0.9726767191621274</speed>
  <fix>3d</fix>
</trkpt>
<trkpt lat="33.8103235" lon="-118.3938191">
  <ele>-24.45</ele>
  <time>2026-09-02T22:11:36Z</time>
  <course>194.14</course>
  <speed>0.99</speed>
  <fix>3d</fix>
</trkpt>
<trkpt lat="33.8103215" lon="-118.3938199">
  <ele>-25.057</ele>
  <time>2026-09-02T22:11:36Z</time>
  <course>194.69</course>
  <speed>0.9726767191621274</speed>
  <fix>3d</fix>
</trkpt>
<trkpt lat="33.8103235" lon="-118.3938191">
  <ele>-24.45</ele>
  <time>2026-09-02T22:11:36Z</time>
  <course>194.14</course>
  <speed>0.99</speed>
  <fix>3d</fix>
</trkpt>
<trkpt lat="33.8103207" lon="-118.3938201">
  <ele>-25.058</ele>
  <time>2026-09-02T22:11:36Z</time>
  <course>194.69</course>
  <speed>0.982344135219425</speed>
  <fix>3d</fix>
</trkpt>
<trkpt lat="33.8103218" lon="-118.3938197">
  <ele>-24.45</ele>
  <time>2026-09-02T22:11:36Z</time>
  <course>194.16</course>
  <speed>0.99</speed>
  <fix>3d</fix>
</trkpt>
<trkpt lat="33.8103198" lon="-118.3938204">
  <ele>-25.059</ele>
  <time>2026-09-02T22:11:36Z</time>
  <course>194.69</course>
  <speed>0.982344135219425</speed>
  <fix>3d</fix>
</trkpt>
<trkpt lat="33.8103218" lon="-118.3938197">
  <ele>-24.45</ele>
  <time>2026-09-02T22:11:36Z</time>
  <course>194.16</course>
  <speed>0.99</speed>
  <fix>3d</fix>
</trkpt>
<trkpt lat="33.8103189" lon="-118.3938207">
  <ele>-25.059</ele>
  <time>2026-09-02T22:11:36Z</time>
  <course>194.67</course>
  <speed>0.982344135219425</speed>
  <fix>3d</fix>
</trkpt>
<trkpt lat="33.8103201" lon="-118.3938202">
  <ele>-24.45</ele>
  <time>2026-09-02T22:11:36Z</time>
  <course>194.17</course>
  <speed>0.99</speed>
  <fix>3d</fix>
</trkpt>
<trkpt lat="33.8103181" lon="-118.3938209">
  <ele>-25.058</ele>
  <time>2026-09-02T22:11:36Z</time>
  <course>194.64</course>
  <speed>0.982344135219425</speed>
  <fix>3d</fix>
</trkpt>
<trkpt lat="33.8103201" lon="-118.3938202">
  <ele>-24.45</ele>
  <time>2026-09-02T22:11:36Z</time>
  <course>194.17</course>
  <speed>0.99</speed>
  <fix>3d</fix>
</trkpt>
<trkpt lat="33.8103172" lon="-118.3938212">
  <ele>-25.057</ele>
  <time>2026-09-02T22:11:36Z</time>
  <course>194.61</course>
  <speed>0.982344135219425</speed>
  <fix>3d</fix>
</trkpt>
<trkpt lat="33.8103183" lon="-118.3938207">
  <ele>-24.45</ele>
  <time>2026-09-02T22:11:36Z</time>
  <course>194.15</course>
  <speed>0.99</speed>
  <fix>3d</fix>
</trkpt>
<trkpt lat="33.8103163" lon="-118.3938214">
  <ele>-25.057</ele>
  <time>2026-09-02T22:11:36Z</time>
  <course>194.58</course>
  <speed>0.982344135219425</speed>
  <fix>3d</fix>
</trkpt>
<trkpt lat="33.8103183" lon="-118.3938207">
  <ele>-24.45</ele>
  <time>2026-09-02T22:11:36Z</time>
  <course>194.15</course>
  <speed>0.99</speed>
  <fix>3d</fix>
</trkpt>
<trkpt lat="33.8103154" lon="-118.3938217">
  <ele>-25.057</ele>
  <time>2026-09-02T22:11:36Z</time>
  <course>194.57</course>
  <speed>0.982344135219425</speed>
  <fix>3d</fix>
</trkpt>
<trkpt lat="33.8103166" lon="-118.3938212">
  <ele>-24.45</ele>
  <time>2026-09-02T22:11:36Z</time>
  <course>194.15</course>
  <speed>0.99</speed>
  <fix>3d</fix>
</trkpt>
<trkpt lat="33.8103146" lon="-118.393822">
  <ele>-25.058</ele>
  <time>2026-09-02T22:11:36Z</time>
  <course>194.56</course>
  <speed>0.982344135219425</speed>
  <fix>3d</fix>
</trkpt>
<trkpt lat="33.8103166" lon="-118.3938212">
  <ele>-24.45</ele>
  <time>2026-09-02T22:11:36Z</time>
  <course>194.15</course>
  <speed>0.99</speed>
  <fix>3d</fix>
</trkpt>
<trkpt lat="33.8103137" lon="-118.3938222">
  <ele>-25.059</ele>
  <time>2026-09-02T22:11:36Z</time>
  <course>194.55</course>
  <speed>0.982344135219425</speed>
  <fix>3d</fix>
</trkpt>
<trkpt lat="33.8103148" lon="-118.3938218">
  <ele>-24.45</ele>
  <time>2026-09-02T22:11:36Z</time>
  <course>194.18</course>
  <speed>0.99</speed>
  <fix>3d</fix>
</trkpt>
<trkpt lat="33.8103128" lon="-118.3938225">
  <ele>-25.059</ele>
  <time>2026-09-02T22:11:36Z</time>
  <course>194.55</course>
  <speed>0.982344135219425</speed>
  <fix>3d</fix>
</trkpt>
<trkpt lat="33.8103148" lon="-118.3938218">
  <ele>-24.45</ele>
  <time>2026-09-02T22:11:36Z</time>
  <course>194.18</course>
  <speed>0.99</speed>
  <fix>3d</fix>
</trkpt>
<trkpt lat="33.810312" lon="-118.3938227">
  <ele>-25.058</ele>
  <time>2026-09-02T22:11:36Z</time>
  <course>194.54</course>
  <speed>0.982344135219425</speed>
  <fix>3d</fix>
</trkpt>
<trkpt lat="33.8103131" lon="-118.3938223">
  <ele>-24.44</ele>
  <time>2026-09-02T22:11:36Z</time>
  <course>194.2</course>
  <speed>1.0</speed>
  <fix>3d</fix>
</trkpt>
<trkpt lat="33.8103111" lon="-118.393823">
  <ele>-25.057</ele>
  <time>2026-09-02T22:11:36Z</time>
  <course>194.52</course>
  <speed>0.982344135219425</speed>
  <fix>3d</fix>
</trkpt>
<trkpt lat="33.8103131" lon="-118.3938223">
  <ele>-24.44</ele>
  <time>2026-09-02T22:11:36Z</time>
  <course>194.2</course>
  <speed>1.0</speed>
  <fix>3d</fix>
</trkpt>
<trkpt lat="33.8103102" lon="-118.3938233">
  <ele>-25.055</ele>
  <time>2026-09-02T22:11:36Z</time>
  <course>194.5</course>
  <speed>0.982344135219425</speed>
  <fix>3d</fix>
</trkpt>
<trkpt lat="33.8103114" lon="-118.3938229">
  <ele>-24.44</ele>
  <time>2026-09-02T22:11:36Z</time>
  <course>194.19</course>
  <speed>1.0</speed>
  <fix>3d</fix>
</trkpt>
<trkpt lat="33.8103094" lon="-118.3938235">
  <ele>-25.055</ele>
  <time>2026-09-02T22:11:36Z</time>
  <course>194.47</course>
  <speed>0.982344135219425</speed>
  <fix>3d</fix>
</trkpt>
<trkpt lat="33.8103114" lon="-118.3938229">
  <ele>-24.44</ele>
  <time>2026-09-02T22:11:36Z</time>
  <course>194.19</course>
  <speed>1.0</speed>
  <fix>3d</fix>
</trkpt>
<trkpt lat="33.8103085" lon="-118.3938238">
  <ele>-25.055</ele>
  <time>2026-09-02T22:11:36Z</time>
  <course>194.43</course>
  <speed>0.982344135219425</speed>
  <fix>3d</fix>
</trkpt>
<trkpt lat="33.8103096" lon="-118.3938234">
  <ele>-24.44</ele>
  <time>2026-09-02T22:11:36Z</time>
  <course>194.17</course>
  <speed>1.0</speed>
  <fix>3d</fix>
</trkpt>
<trkpt lat="33.8103076" lon="-118.3938241">
  <ele>-25.055</ele>
  <time>2026-09-02T22:11:36Z</time>
  <course>194.38</course>
  <speed>0.982344135219425</speed>
  <fix>3d</fix>
</trkpt>
<trkpt lat="33.8103096" lon="-118.3938234">
  <ele>-24.44</ele>
  <time>2026-09-02T22:11:36Z</time>
  <course>194.17</course>
  <speed>1.0</speed>
  <fix>3d</fix>
</trkpt>
<trkpt lat="33.8103068" lon="-118.3938243">
  <ele>-25.056</ele>
  <time>2026-09-02T22:11:36Z</time>
  <course>194.33</course>
  <speed>0.9798469268207153</speed>
  <fix>3d</fix>
</trkpt>
<trkpt lat="33.8103079" lon="-118.3938239">
  <ele>-24.44</ele>
  <time>2026-09-02T22:11:36Z</time>
  <course>194.12</course>
  <speed>1.0</speed>
  <fix>3d</fix>
</trkpt>
<trkpt lat="33.8103059" lon="-118.3938246">
  <ele>-25.056</ele>
  <time>2026-09-02T22:11:36Z</time>
  <course>194.29</course>
  <speed>0.9798469268207153</speed>
  <fix>3d</fix>
</trkpt>
<trkpt lat="33.8103079" lon="-118.3938239">
  <ele>-24.44</ele>
  <time>2026-09-02T22:11:36Z</time>
  <course>194.12</course>
  <speed>1.0</speed>
  <fix>3d</fix>
</trkpt>
<trkpt lat="33.810305" lon="-118.3938248">
  <ele>-25.056</ele>
  <time>2026-09-02T22:11:36Z</time>
  <course>194.26</course>
  <speed>0.9798469268207153</speed>
  <fix>3d</fix>
</trkpt>
<trkpt lat="33.8103061" lon="-118.3938244">
  <ele>-24.44</ele>
  <time>2026-09-02T22:11:36Z</time>
  <course>194.09</course>
  <speed>1.0</speed>
  <fix>3d</fix>
</trkpt>
<trkpt lat="33.8103041" lon="-118.3938251">
  <ele>-25.055</ele>
  <time>2026-09-02T22:11:36Z</time>
  <course>194.24</course>
  <speed>0.982344135219425</speed>
  <fix>3d</fix>
</trkpt>
<trkpt lat="33.8103061" lon="-118.3938244">
  <ele>-24.44</ele>
  <time>2026-09-02T22:11:36Z</time>
  <course>194.09</course>
  <speed>1.0</speed>
  <fix>3d</fix>
</trkpt>
<trkpt lat="33.8103033" lon="-118.3938254">
  <ele>-25.054</ele>
  <time>2026-09-02T22:11:36Z</time>
  <course>194.23</course>
  <speed>0.9798469268207153</speed>
  <fix>3d</fix>
</trkpt>
<trkpt lat="33.8103043" lon="-118.393825">
  <ele>-24.44</ele>
  <time>2026-09-02T22:11:36Z</time>
  <course>194.1</course>
  <speed>1.0</speed>
  <fix>3d</fix>
</trkpt>
<trkpt lat="33.8103024" lon="-118.3938256">
  <ele>-25.052</ele>
  <time>2026-09-02T22:11:36Z</time>
  <course>194.22</course>
  <speed>0.9798469268207153</speed>
  <fix>3d</fix>
</trkpt>
<trkpt lat="33.8103043" lon="-118.393825">
  <ele>-24.44</ele>
  <time>2026-09-02T22:11:36Z</time>
  <course>194.1</course>
  <speed>1.0</speed>
  <fix>3d</fix>
</trkpt>
<trkpt lat="33.8103015" lon="-118.3938259">
  <ele>-25.051</ele>
  <time>2026-09-02T22:11:36Z</time>
  <course>194.21</course>
  <speed>0.9798469268207153</speed>
  <fix>3d</fix>
</trkpt>
<trkpt lat="33.8103026" lon="-118.3938255">
  <ele>-24.44</ele>
  <time>2026-09-02T22:11:36Z</time>
  <course>194.12</course>
  <speed>1.0</speed>
  <fix>3d</fix>
</trkpt>
<trkpt lat="33.8103006" lon="-118.3938262">
  <ele>-25.049</ele>
  <time>2026-09-02T22:11:36Z</time>
  <course>194.2</course>
  <speed>0.9798469268207153</speed>
  <fix>3d</fix>
</trkpt>
<trkpt lat="33.8103026" lon="-118.3938255">
  <ele>-24.44</ele>
  <time>2026-09-02T22:11:36Z</time>
  <course>194.12</course>
  <speed>1.0</speed>
  <fix>3d</fix>
</trkpt>
<trkpt lat="33.8102998" lon="-118.3938264">
  <ele>-25.049</ele>
  <time>2026-09-02T22:11:36Z</time>
  <course>194.19</course>
  <speed>0.9798469268207153</speed>
  <fix>3d</fix>
</trkpt>
<trkpt lat="33.8103009" lon="-118.393826">
  <ele>-24.44</ele>
  <time>2026-09-02T22:11:36Z</time>
  <course>194.11</course>
  <speed>1.0</speed>
  <fix>3d</fix>
</trkpt>
<trkpt lat="33.8102989" lon="-118.3938267">
  <ele>-25.05</ele>
  <time>2026-09-02T22:11:36Z</time>
  <course>194.18</course>
  <speed>0.9798469268207153</speed>
  <fix>3d</fix>
</trkpt>
<trkpt lat="33.8103009" lon="-118.393826">
  <ele>-24.44</ele>
  <time>2026-09-02T22:11:36Z</time>
  <course>194.11</course>
  <speed>1.0</speed>
  <fix>3d</fix>
</trkpt>
<trkpt lat="33.810298" lon="-118.3938269">
  <ele>-25.052</ele>
  <time>2026-09-02T22:11:36Z</time>
  <course>194.17</course>
  <speed>0.9798469268207153</speed>
  <fix>3d</fix>
</trkpt>
<trkpt lat="33.8102991" lon="-118.3938266">
  <ele>-24.44</ele>
  <time>2026-09-02T22:11:36Z</time>
  <course>194.12</course>
  <speed>0.99</speed>
  <fix>3d</fix>
</trkpt>
<trkpt lat="33.8102972" lon="-118.3938272">
  <ele>-25.054</ele>
  <time>2026-09-02T22:11:36Z</time>
  <course>194.16</course>
  <speed>0.9798469268207153</speed>
  <fix>3d</fix>
</trkpt>
<trkpt lat="33.8102991" lon="-118.3938266">
  <ele>-24.44</ele>
  <time>2026-09-02T22:11:36Z</time>
  <course>194.12</course>
  <speed>0.99</speed>
  <fix>3d</fix>
</trkpt>
<trkpt lat="33.8102963" lon="-118.3938275">
  <ele>-25.055</ele>
  <time>2026-09-02T22:11:36Z</time>
  <course>194.14</course>
  <speed>0.9798469268207153</speed>
  <fix>3d</fix>
</trkpt>
<trkpt lat="33.8102974" lon="-118.3938271">
  <ele>-24.44</ele>
  <time>2026-09-02T22:11:36Z</time>
  <course>194.12</course>
  <speed>0.99</speed>
  <fix>3d</fix>
</trkpt>
<trkpt lat="33.8102954" lon="-118.3938277">
  <ele>-25.055</ele>
  <time>2026-09-02T22:11:36Z</time>
  <course>194.11</course>
  <speed>0.9798469268207153</speed>
  <fix>3d</fix>
</trkpt>
<trkpt lat="33.8102974" lon="-118.3938271">
  <ele>-24.44</ele>
  <time>2026-09-02T22:11:36Z</time>
  <course>194.12</course>
  <speed>0.99</speed>
  <fix>3d</fix>
</trkpt>
<trkpt lat="33.8102945" lon="-118.393828">
  <ele>-25.055</ele>
  <time>2026-09-02T22:11:36Z</time>
  <course>194.07</course>
  <speed>0.9798469268207153</speed>
  <fix>3d</fix>
</trkpt>
<trkpt lat="33.8102957" lon="-118.3938276">
  <ele>-24.44</ele>
  <time>2026-09-02T22:11:36Z</time>
  <course>194.1</course>
  <speed>0.99</speed>
  <fix>3d</fix>
</trkpt>
<trkpt lat="33.8102937" lon="-118.3938283">
  <ele>-25.053</ele>
  <time>2026-09-02T22:11:36Z</time>
  <course>194.04</course>
  <speed>0.9798469268207153</speed>
  <fix>3d</fix>
</trkpt>
<trkpt lat="33.8102957" lon="-118.3938276">
  <ele>-24.44</ele>
  <time>2026-09-02T22:11:36Z</time>
  <course>194.1</course>
  <speed>0.99</speed>
  <fix>3d</fix>
</trkpt>
<trkpt lat="33.8102928" lon="-118.3938285">
  <ele>-25.053</ele>
  <time>2026-09-02T22:11:36Z</time>
  <course>194.02</course>
  <speed>0.9798469268207153</speed>
  <fix>3d</fix>
</trkpt>
<trkpt lat="33.8102939" lon="-118.3938281">
  <ele>-24.45</ele>
  <time>2026-09-02T22:11:36Z</time>
  <course>194.07</course>
  <speed>0.99</speed>
  <fix>3d</fix>
</trkpt>
<trkpt lat="33.8102919" lon="-118.3938288">
  <ele>-25.053</ele>
  <time>2026-09-02T22:11:36Z</time>
  <course>194.0</course>
  <speed>0.9798469268207153</speed>
  <fix>3d</fix>
</trkpt>
<trkpt lat="33.8102939" lon="-118.3938281">
  <ele>-24.45</ele>
  <time>2026-09-02T22:11:36Z</time>
  <course>194.07</course>
  <speed>0.99</speed>
  <fix>3d</fix>
</trkpt>
<trkpt lat="33.8102911" lon="-118.393829">
  <ele>-25.054</ele>
  <time>2026-09-02T22:11:36Z</time>
  <course>194.0</course>
  <speed>0.9798469268207153</speed>
  <fix>3d</fix>
</trkpt>
<trkpt lat="33.8102921" lon="-118.3938287">
  <ele>-24.45</ele>
  <time>2026-09-02T22:11:36Z</time>
  <course>194.08</course>
  <speed>0.99</speed>
  <fix>3d</fix>
</trkpt>
<trkpt lat="33.8102902" lon="-118.3938293">
  <ele>-25.054</ele>
  <time>2026-09-02T22:11:36Z</time>
  <course>194.0</course>
  <speed>0.9798469268207153</speed>
  <fix>3d</fix>
</trkpt>
<trkpt lat="33.8102921" lon="-118.3938287">
  <ele>-24.45</ele>
  <time>2026-09-02T22:11:36Z</time>
  <course>194.08</course>
  <speed>0.99</speed>
  <fix>3d</fix>
</trkpt>
<trkpt lat="33.8102893" lon="-118.3938296">
  <ele>-25.055</ele>
  <time>2026-09-02T22:11:36Z</time>
  <course>193.99</course>
  <speed>0.9798469268207153</speed>
  <fix>3d</fix>
</trkpt>
<trkpt lat="33.8102904" lon="-118.3938292">
  <ele>-24.45</ele>
  <time>2026-09-02T22:11:36Z</time>
  <course>194.1</course>
  <speed>0.99</speed>
  <fix>3d</fix>
</trkpt>
<trkpt lat="33.8102884" lon="-118.3938298">
  <ele>-25.056</ele>
  <time>2026-09-02T22:11:36Z</time>
  <course>193.98</course>
  <speed>0.9798469268207153</speed>
  <fix>3d</fix>
</trkpt>
<trkpt lat="33.8102904" lon="-118.3938292">
  <ele>-24.45</ele>
  <time>2026-09-02T22:11:36Z</time>
  <course>194.1</course>
  <speed>0.99</speed>
  <fix>3d</fix>
</trkpt>
<trkpt lat="33.8102876" lon="-118.3938301">
  <ele>-25.058</ele>
  <time>2026-09-02T22:11:36Z</time>
  <course>193.96</course>
  <speed>0.9798469268207153</speed>
  <fix>3d</fix>
</trkpt>
<trkpt lat="33.8102887" lon="-118.3938297">
  <ele>-24.45</ele>
  <time>2026-09-02T22:11:36Z</time>
  <course>194.1</course>
  <speed>0.99</speed>
  <fix>3d</fix>
</trkpt>
<trkpt lat="33.8102867" lon="-118.3938303">
  <ele>-25.059</ele>
  <time>2026-09-02T22:11:36Z</time>
  <course>193.95</course>
  <speed>0.9798469268207153</speed>
  <fix>3d</fix>
</trkpt>
<trkpt lat="33.8102887" lon="-118.3938297">
  <ele>-24.45</ele>
  <time>2026-09-02T22:11:36Z</time>
  <course>194.1</course>
  <speed>0.99</speed>
  <fix>3d</fix>
</trkpt>
<trkpt lat="33.8102858" lon="-118.3938306">
  <ele>-25.058</ele>
  <time>2026-09-02T22:11:36Z</time>
  <course>193.94</course>
  <speed>0.9798469268207153</speed>
  <fix>3d</fix>
</trkpt>
<trkpt lat="33.810287" lon="-118.3938302">
  <ele>-24.45</ele>
  <time>2026-09-02T22:11:36Z</time>
  <course>194.09</course>
  <speed>0.99</speed>
  <fix>3d</fix>
</trkpt>
<trkpt lat="33.810285" lon="-118.3938309">
  <ele>-25.057</ele>
  <time>2026-09-02T22:11:36Z</time>
  <course>193.93</course>
  <speed>0.9798469268207153</speed>
  <fix>3d</fix>
</trkpt>
<trkpt lat="33.810287" lon="-118.3938302">
  <ele>-24.45</ele>
  <time>2026-09-02T22:11:36Z</time>
  <course>194.09</course>
  <speed>0.99</speed>
  <fix>3d</fix>
</trkpt>
<trkpt lat="33.8102841" lon="-118.3938311">
  <ele>-25.056</ele>
  <time>2026-09-02T22:11:36Z</time>
  <course>193.93</course>
  <speed>0.9895453501482385</speed>
  <fix>3d</fix>
</trkpt>
<trkpt lat="33.8102852" lon="-118.3938308">
  <ele>-24.45</ele>
  <time>2026-09-02T22:11:36Z</time>
  <course>194.1</course>
  <speed>0.99</speed>
  <fix>3d</fix>
</trkpt>
<trkpt lat="33.8102832" lon="-118.3938314">
  <ele>-25.055</ele>
  <time>2026-09-02T22:11:36Z</time>
  <course>193.92</course>
  <speed>0.9895453501482385</speed>
  <fix>3d</fix>
</trkpt>
<trkpt lat="33.8102852" lon="-118.3938308">
  <ele>-24.45</ele>
  <time>2026-09-02T22:11:36Z</time>
  <course>194.1</course>
  <speed>0.99</speed>
  <fix>3d</fix>
</trkpt>
<trkpt lat="33.8102823" lon="-118.3938317">
  <ele>-25.053</ele>
  <time>2026-09-02T22:11:36Z</time>
  <course>193.9</course>
  <speed>0.9895453501482385</speed>
  <fix>3d</fix>
</trkpt>
<trkpt lat="33.8102835" lon="-118.3938313">
  <ele>-24.44</ele>
  <time>2026-09-02T22:11:36Z</time>
  <course>194.11</course>
  <speed>0.99</speed>
  <fix>3d</fix>
</trkpt>
<trkpt lat="33.8102815" lon="-118.3938319">
  <ele>-25.051</ele>
  <time>2026-09-02T22:11:36Z</time>
  <course>193.88</course>
  <speed>0.9895453501482385</speed>
  <fix>3d</fix>
</trkpt>
<trkpt lat="33.8102835" lon="-118.3938313">
  <ele>-24.44</ele>
  <time>2026-09-02T22:11:36Z</time>
  <course>194.11</course>
  <speed>0.99</speed>
  <fix>3d</fix>
</trkpt>
<trkpt lat="33.8102806" lon="-118.3938322">
  <ele>-25.051</ele>
  <time>2026-09-02T22:11:36Z</time>
  <course>193.86</course>
  <speed>0.9895453501482385</speed>
  <fix>3d</fix>
</trkpt>
<trkpt lat="33.8102817" lon="-118.3938318">
  <ele>-24.44</ele>
  <time>2026-09-02T22:11:36Z</time>
  <course>194.09</course>
  <speed>0.99</speed>
  <fix>3d</fix>
</trkpt>
<trkpt lat="33.8102797" lon="-118.3938324">
  <ele>-25.051</ele>
  <time>2026-09-02T22:11:36Z</time>
  <course>193.84</course>
  <speed>0.9895453501482385</speed>
  <fix>3d</fix>
</trkpt>
<trkpt lat="33.8102817" lon="-118.3938318">
  <ele>-24.44</ele>
  <time>2026-09-02T22:11:36Z</time>
  <course>194.09</course>
  <speed>0.99</speed>
  <fix>3d</fix>
</trkpt>
<trkpt lat="33.8102789" lon="-118.3938327">
  <ele>-25.052</ele>
  <time>2026-09-02T22:11:36Z</time>
  <course>193.83</course>
  <speed>0.9895453501482385</speed>
  <fix>3d</fix>
</trkpt>
<trkpt lat="33.81028" lon="-118.3938323">
  <ele>-24.44</ele>
  <time>2026-09-02T22:11:36Z</time>
  <course>194.08</course>
  <speed>0.99</speed>
  <fix>3d</fix>
</trkpt>
<trkpt lat="33.810278" lon="-118.393833">
  <ele>-25.053</ele>
  <time>2026-09-02T22:11:36Z</time>
  <course>193.83</course>
  <speed>0.9895453501482385</speed>
  <fix>3d</fix>
</trkpt>
<trkpt lat="33.81028" lon="-118.3938323">
  <ele>-24.44</ele>
  <time>2026-09-02T22:11:36Z</time>
  <course>194.08</course>
  <speed>0.99</speed>
  <fix>3d</fix>
</trkpt>
<trkpt lat="33.8102771" lon="-118.3938332">
  <ele>-25.053</ele>
  <time>2026-09-02T22:11:36Z</time>
  <course>193.83</course>
  <speed>0.9895453501482385</speed>
  <fix>3d</fix>
</trkpt>
<trkpt lat="33.8102782" lon="-118.3938329">
  <ele>-24.44</ele>
  <time>2026-09-02T22:11:36Z</time>
  <course>194.12</course>
  <speed>0.99</speed>
  <fix>3d</fix>
</trkpt>
<trkpt lat="33.8102762" lon="-118.3938335">
  <ele>-25.055</ele>
  <time>2026-09-02T22:11:36Z</time>
  <course>193.83</course>
  <speed>0.9895453501482385</speed>
  <fix>3d</fix>
</trkpt>
<trkpt lat="33.8102782" lon="-118.3938329">
  <ele>-24.44</ele>
  <time>2026-09-02T22:11:36Z</time>
  <course>194.12</course>
  <speed>0.99</speed>
  <fix>3d</fix>
</trkpt>
<trkpt lat="33.8102754" lon="-118.3938337">
  <ele>-25.056</ele>
  <time>2026-09-02T22:11:36Z</time>
  <course>193.83</course>
  <speed>0.9895453501482385</speed>
  <fix>3d</fix>
</trkpt>
<trkpt lat="33.8102765" lon="-118.3938334">
  <ele>-24.44</ele>
  <time>2026-09-02T22:11:36Z</time>
  <course>194.13</course>
  <speed>0.99</speed>
  <fix>3d</fix>
</trkpt>
<trkpt lat="33.8102745" lon="-118.393834">
  <ele>-25.056</ele>
  <time>2026-09-02T22:11:36Z</time>
  <course>193.83</course>
  <speed>0.9895453501482385</speed>
  <fix>3d</fix>
</trkpt>
<trkpt lat="33.8102765" lon="-118.3938334">
  <ele>-24.44</ele>
  <time>2026-09-02T22:11:36Z</time>
  <course>194.13</course>
  <speed>0.99</speed>
  <fix>3d</fix>
</trkpt>
<trkpt lat="33.8102736" lon="-118.3938343">
  <ele>-25.056</ele>
  <time>2026-09-02T22:11:36Z</time>
  <course>193.81</course>
  <speed>0.9895453501482385</speed>
  <fix>3d</fix>
</trkpt>
<trkpt lat="33.8102748" lon="-118.3938339">
  <ele>-24.45</ele>
  <time>2026-09-02T22:11:36Z</time>
  <course>194.11</course>
  <speed>0.99</speed>
  <fix>3d</fix>
</trkpt>
<trkpt lat="33.8102728" lon="-118.3938345">
  <ele>-25.056</ele>
  <time>2026-09-02T22:11:36Z</time>
  <course>193.8</course>
  <speed>0.9895453501482385</speed>
  <fix>3d</fix>
</trkpt>
<trkpt lat="33.8102748" lon="-118.3938339">
  <ele>-24.45</ele>
  <time>2026-09-02T22:11:36Z</time>
  <course>194.11</course>
  <speed>0.99</speed>
  <fix>3d</fix>
</trkpt>
<trkpt lat="33.8102719" lon="-118.3938348">
  <ele>-25.056</ele>
  <time>2026-09-02T22:11:36Z</time>
  <course>193.78</course>
  <speed>0.9895453501482385</speed>
  <fix>3d</fix>
</trkpt>
<trkpt lat="33.8102731" lon="-118.3938344">
  <ele>-24.44</ele>
  <time>2026-09-02T22:11:36Z</time>
  <course>194.12</course>
  <speed>0.99</speed>
  <fix>3d</fix>
</trkpt>
<trkpt lat="33.810271" lon="-118.3938351">
  <ele>-25.055</ele>
  <time>2026-09-02T22:11:36Z</time>
  <course>193.78</course>
  <speed>0.9895453501482385</speed>
  <fix>3d</fix>
</trkpt>
<trkpt lat="33.8102731" lon="-118.3938344">
  <ele>-24.44</ele>
  <time>2026-09-02T22:11:37Z</time>
  <course>194.12</course>
  <speed>0.99</speed>
  <fix>3d</fix>
</trkpt>
<trkpt lat="33.8102701" lon="-118.3938353">
  <ele>-25.054</ele>
  <time>2026-09-02T22:11:37Z</time>
  <course>193.78</course>
  <speed>0.9895453501482385</speed>
  <fix>3d</fix>
</trkpt>
<trkpt lat="33.8102713" lon="-118.393835">
  <ele>-24.44</ele>
  <time>2026-09-02T22:11:37Z</time>
  <course>194.14</course>
  <speed>0.99</speed>
  <fix>3d</fix>
</trkpt>
<trkpt lat="33.8102693" lon="-118.3938356">
  <ele>-25.053</ele>
  <time>2026-09-02T22:11:37Z</time>
  <course>193.77</course>
  <speed>0.9895453501482385</speed>
  <fix>3d</fix>
</trkpt>
<trkpt lat="33.8102713" lon="-118.393835">
  <ele>-24.44</ele>
  <time>2026-09-02T22:11:37Z</time>
  <course>194.14</course>
  <speed>0.99</speed>
  <fix>3d</fix>
</trkpt>
<trkpt lat="33.8102684" lon="-118.3938358">
  <ele>-25.052</ele>
  <time>2026-09-02T22:11:37Z</time>
  <course>193.75</course>
  <speed>0.9895453501482385</speed>
  <fix>3d</fix>
</trkpt>
<trkpt lat="33.8102696" lon="-118.3938355">
  <ele>-24.44</ele>
  <time>2026-09-02T22:11:37Z</time>
  <course>194.15</course>
  <speed>0.99</speed>
  <fix>3d</fix>
</trkpt>
<trkpt lat="33.8102675" lon="-118.3938361">
  <ele>-25.05</ele>
  <time>2026-09-02T22:11:37Z</time>
  <course>193.73</course>
  <speed>0.9895453501482385</speed>
  <fix>3d</fix>
</trkpt>
<trkpt lat="33.8102696" lon="-118.3938355">
  <ele>-24.44</ele>
  <time>2026-09-02T22:11:37Z</time>
  <course>194.15</course>
  <speed>0.99</speed>
  <fix>3d</fix>
</trkpt>
<trkpt lat="33.8102667" lon="-118.3938364">
  <ele>-25.048</ele>
  <time>2026-09-02T22:11:37Z</time>
  <course>193.7</course>
  <speed>0.9895453501482385</speed>
  <fix>3d</fix>
</trkpt>
<trkpt lat="33.8102679" lon="-118.393836">
  <ele>-24.44</ele>
  <time>2026-09-02T22:11:37Z</time>
  <course>194.12</course>
  <speed>0.99</speed>
  <fix>3d</fix>
</trkpt>
<trkpt lat="33.8102658" lon="-118.3938366">
  <ele>-25.047</ele>
  <time>2026-09-02T22:11:37Z</time>
  <course>193.68</course>
  <speed>0.9895453501482385</speed>
  <fix>3d</fix>
</trkpt>
<trkpt lat="33.8102679" lon="-118.393836">
  <ele>-24.44</ele>
  <time>2026-09-02T22:11:37Z</time>
  <course>194.12</course>
  <speed>0.99</speed>
  <fix>3d</fix>
</trkpt>
<trkpt lat="33.8102649" lon="-118.3938369">
  <ele>-25.047</ele>
  <time>2026-09-02T22:11:37Z</time>
  <course>193.66</course>
  <speed>0.9895453501482385</speed>
  <fix>3d</fix>
</trkpt>
<trkpt lat="33.8102661" lon="-118.3938365">
  <ele>-24.44</ele>
  <time>2026-09-02T22:11:37Z</time>
  <course>194.1</course>
  <speed>0.99</speed>
  <fix>3d</fix>
</trkpt>
<trkpt lat="33.8102641" lon="-118.3938371">
  <ele>-25.047</ele>
  <time>2026-09-02T22:11:37Z</time>
  <course>193.65</course>
  <speed>0.9895453501482385</speed>
  <fix>3d</fix>
</trkpt>
<trkpt lat="33.8102661" lon="-118.3938365">
  <ele>-24.44</ele>
  <time>2026-09-02T22:11:37Z</time>
  <course>194.1</course>
  <speed>0.99</speed>
  <fix>3d</fix>
</trkpt>
<trkpt lat="33.8102632" lon="-118.3938374">
  <ele>-25.047</ele>
  <time>2026-09-02T22:11:37Z</time>
  <course>193.65</course>
  <speed>0.9895453501482385</speed>
  <fix>3d</fix>
</trkpt>
<trkpt lat="33.8102644" lon="-118.393837">
  <ele>-24.44</ele>
  <time>2026-09-02T22:11:37Z</time>
  <course>194.11</course>
  <speed>0.99</speed>
  <fix>3d</fix>
</trkpt>
<trkpt lat="33.8102623" lon="-118.3938377">
  <ele>-25.049</ele>
  <time>2026-09-02T22:11:37Z</time>
  <course>193.65</course>
  <speed>0.9895453501482385</speed>
  <fix>3d</fix>
</trkpt>
<trkpt lat="33.8102644" lon="-118.393837">
  <ele>-24.44</ele>
  <time>2026-09-02T22:11:37Z</time>
  <course>194.11</course>
  <speed>0.99</speed>
  <fix>3d</fix>
</trkpt>
<trkpt lat="33.8102614" lon="-118.3938379">
  <ele>-25.051</ele>
  <time>2026-09-02T22:11:37Z</time>
  <course>193.66</course>
  <speed>0.9895453501482385</speed>
  <fix>3d</fix>
</trkpt>
<trkpt lat="33.8102626" lon="-118.3938376">
  <ele>-24.45</ele>
  <time>2026-09-02T22:11:37Z</time>
  <course>194.16</course>
  <speed>0.99</speed>
  <fix>3d</fix>
</trkpt>
<trkpt lat="33.8102606" lon="-118.3938382">
  <ele>-25.053</ele>
  <time>2026-09-02T22:11:37Z</time>
  <course>193.67</course>
  <speed>0.9895453501482385</speed>
  <fix>3d</fix>
</trkpt>
<trkpt lat="33.8102626" lon="-118.3938376">
  <ele>-24.45</ele>
  <time>2026-09-02T22:11:37Z</time>
  <course>194.16</course>
  <speed>0.99</speed>
  <fix>3d</fix>
</trkpt>
<trkpt lat="33.8102597" lon="-118.3938384">
  <ele>-25.055</ele>
  <time>2026-09-02T22:11:37Z</time>
  <course>193.67</course>
  <speed>0.9895453501482385</speed>
  <fix>3d</fix>
</trkpt>
<trkpt lat="33.8102609" lon="-118.3938381">
  <ele>-24.45</ele>
  <time>2026-09-02T22:11:37Z</time>
  <course>194.18</course>
  <speed>0.99</speed>
  <fix>3d</fix>
</trkpt>
<trkpt lat="33.8102588" lon="-118.3938387">
  <ele>-25.057</ele>
  <time>2026-09-02T22:11:37Z</time>
  <course>193.66</course>
  <speed>0.9895453501482385</speed>
  <fix>3d</fix>
</trkpt>
<trkpt lat="33.8102609" lon="-118.3938381">
  <ele>-24.45</ele>
  <time>2026-09-02T22:11:37Z</time>
  <course>194.18</course>
  <speed>0.99</speed>
  <fix>3d</fix>
</trkpt>
<trkpt lat="33.810258" lon="-118.393839">
  <ele>-25.057</ele>
  <time>2026-09-02T22:11:37Z</time>
  <course>193.65</course>
  <speed>0.9895453501482385</speed>
  <fix>3d</fix>
</trkpt>
<trkpt lat="33.8102592" lon="-118.3938387">
  <ele>-24.46</ele>
  <time>2026-09-02T22:11:37Z</time>
  <course>194.17</course>
  <speed>0.99</speed>
  <fix>3d</fix>
</trkpt>
<trkpt lat="33.8102571" lon="-118.3938392">
  <ele>-25.057</ele>
  <time>2026-09-02T22:11:37Z</time>
  <course>193.63</course>
  <speed>0.9895453501482385</speed>
  <fix>3d</fix>
</trkpt>
<trkpt lat="33.8102592" lon="-118.3938387">
  <ele>-24.46</ele>
  <time>2026-09-02T22:11:37Z</time>
  <course>194.17</course>
  <speed>0.99</speed>
  <fix>3d</fix>
</trkpt>
<trkpt lat="33.8102562" lon="-118.3938395">
  <ele>-25.058</ele>
  <time>2026-09-02T22:11:37Z</time>
  <course>193.6</course>
  <speed>0.9895453501482385</speed>
  <fix>3d</fix>
</trkpt>
<trkpt lat="33.8102574" lon="-118.3938392">
  <ele>-24.46</ele>
  <time>2026-09-02T22:11:37Z</time>
  <course>194.14</course>
  <speed>0.99</speed>
  <fix>3d</fix>
</trkpt>
<trkpt lat="33.8102553" lon="-118.3938398">
  <ele>-25.059</ele>
  <time>2026-09-02T22:11:37Z</time>
  <course>193.56</course>
  <speed>0.9895453501482385</speed>
  <fix>3d</fix>
</trkpt>
<trkpt lat="33.8102574" lon="-118.3938392">
  <ele>-24.46</ele>
  <time>2026-09-02T22:11:37Z</time>
  <course>194.14</course>
  <speed>0.99</speed>
  <fix>3d</fix>
</trkpt>
<trkpt lat="33.8102545" lon="-118.39384">
  <ele>-25.058</ele>
  <time>2026-09-02T22:11:37Z</time>
  <course>193.52</course>
  <speed>0.9895453501482385</speed>
  <fix>3d</fix>
</trkpt>
<trkpt lat="33.8102557" lon="-118.3938397">
  <ele>-24.46</ele>
  <time>2026-09-02T22:11:37Z</time>
  <course>194.08</course>
  <speed>0.99</speed>
  <fix>3d</fix>
</trkpt>
<trkpt lat="33.8102536" lon="-118.3938403">
  <ele>-25.057</ele>
  <time>2026-09-02T22:11:37Z</time>
  <course>193.48</course>
  <speed>0.9895453501482385</speed>
  <fix>3d</fix>
</trkpt>
<trkpt lat="33.8102557" lon="-118.3938397">
  <ele>-24.46</ele>
  <time>2026-09-02T22:11:37Z</time>
  <course>194.08</course>
  <speed>0.99</speed>
  <fix>3d</fix>
</trkpt>
<trkpt lat="33.8102527" lon="-118.3938406">
  <ele>-25.055</ele>
  <time>2026-09-02T22:11:37Z</time>
  <course>193.46</course>
  <speed>0.9895453501482385</speed>
  <fix>3d</fix>
</trkpt>
<trkpt lat="33.810254" lon="-118.3938402">
  <ele>-24.45</ele>
  <time>2026-09-02T22:11:37Z</time>
  <course>194.04</course>
  <speed>0.99</speed>
  <fix>3d</fix>
</trkpt>
<trkpt lat="33.8102519" lon="-118.3938408">
  <ele>-25.052</ele>
  <time>2026-09-02T22:11:37Z</time>
  <course>193.45</course>
  <speed>0.9895453501482385</speed>
  <fix>3d</fix>
</trkpt>
<trkpt lat="33.810254" lon="-118.3938402">
  <ele>-24.45</ele>
  <time>2026-09-02T22:11:37Z</time>
  <course>194.04</course>
  <speed>0.99</speed>
  <fix>3d</fix>
</trkpt>
<trkpt lat="33.810251" lon="-118.3938411">
  <ele>-25.05</ele>
  <time>2026-09-02T22:11:37Z</time>
  <course>193.44</course>
  <speed>0.9895453501482385</speed>
  <fix>3d</fix>
</trkpt>
<trkpt lat="33.8102522" lon="-118.3938407">
  <ele>-24.45</ele>
  <time>2026-09-02T22:11:37Z</time>
  <course>194.05</course>
  <speed>0.99</speed>
  <fix>3d</fix>
</trkpt>
<trkpt lat="33.8102501" lon="-118.3938413">
  <ele>-25.05</ele>
  <time>2026-09-02T22:11:37Z</time>
  <course>193.44</course>
  <speed>0.9895453501482385</speed>
  <fix>3d</fix>
</trkpt>
<trkpt lat="33.8102522" lon="-118.3938407">
  <ele>-24.45</ele>
  <time>2026-09-02T22:11:37Z</time>
  <course>194.05</course>
  <speed>0.99</speed>
  <fix>3d</fix>
</trkpt>
<trkpt lat="33.8102492" lon="-118.3938416">
  <ele>-25.051</ele>
  <time>2026-09-02T22:11:37Z</time>
  <course>193.45</course>
  <speed>0.9895453501482385</speed>
  <fix>3d</fix>
</trkpt>
<trkpt lat="33.8102505" lon="-118.3938413">
  <ele>-24.45</ele>
  <time>2026-09-02T22:11:37Z</time>
  <course>194.08</course>
  <speed>0.99</speed>
  <fix>3d</fix>
</trkpt>
<trkpt lat="33.8102484" lon="-118.3938419">
  <ele>-25.053</ele>
  <time>2026-09-02T22:11:37Z</time>
  <course>193.46</course>
  <speed>0.9895453501482385</speed>
  <fix>3d</fix>
</trkpt>
<trkpt lat="33.8102505" lon="-118.3938413">
  <ele>-24.45</ele>
  <time>2026-09-02T22:11:37Z</time>
  <course>194.08</course>
  <speed>0.99</speed>
  <fix>3d</fix>
</trkpt>
<trkpt lat="33.8102475" lon="-118.3938421">
  <ele>-25.055</ele>
  <time>2026-09-02T22:11:37Z</time>
  <course>193.46</course>
  <speed>0.9895453501482385</speed>
  <fix>3d</fix>
</trkpt>
<trkpt lat="33.8102487" lon="-118.3938418">
  <ele>-24.45</ele>
  <time>2026-09-02T22:11:37Z</time>
  <course>194.08</course>
  <speed>0.99</speed>
  <fix>3d</fix>
</trkpt>
<trkpt lat="33.8102466" lon="-118.3938424">
  <ele>-25.055</ele>
  <time>2026-09-02T22:11:37Z</time>
  <course>193.45</course>
  <speed>0.9871676655968833</speed>
  <fix>3d</fix>
</trkpt>
<trkpt lat="33.8102487" lon="-118.3938418">
  <ele>-24.45</ele>
  <time>2026-09-02T22:11:37Z</time>
  <course>194.08</course>
  <speed>0.99</speed>
  <fix>3d</fix>
</trkpt>
<trkpt lat="33.8102458" lon="-118.3938426">
  <ele>-25.055</ele>
  <time>2026-09-02T22:11:37Z</time>
  <course>193.43</course>
  <speed>0.9871676655968833</speed>
  <fix>3d</fix>
</trkpt>
<trkpt lat="33.810247" lon="-118.3938423">
  <ele>-24.45</ele>
  <time>2026-09-02T22:11:37Z</time>
  <course>194.07</course>
  <speed>0.99</speed>
  <fix>3d</fix>
</trkpt>
<trkpt lat="33.8102449" lon="-118.3938429">
  <ele>-25.053</ele>
  <time>2026-09-02T22:11:37Z</time>
  <course>193.43</course>
  <speed>0.9871676655968833</speed>
  <fix>3d</fix>
</trkpt>
<trkpt lat="33.810247" lon="-118.3938423">
  <ele>-24.45</ele>
  <time>2026-09-02T22:11:37Z</time>
  <course>194.07</course>
  <speed>0.99</speed>
  <fix>3d</fix>
</trkpt>
<trkpt lat="33.810244" lon="-118.3938432">
  <ele>-25.052</ele>
  <time>2026-09-02T22:11:37Z</time>
  <course>193.43</course>
  <speed>0.9968951800465282</speed>
  <fix>3d</fix>
</trkpt>
<trkpt lat="33.8102453" lon="-118.3938428">
  <ele>-24.45</ele>
  <time>2026-09-02T22:11:37Z</time>
  <course>194.07</course>
  <speed>0.99</speed>
  <fix>3d</fix>
</trkpt>
<trkpt lat="33.8102431" lon="-118.3938434">
  <ele>-25.052</ele>
  <time>2026-09-02T22:11:37Z</time>
  <course>193.43</course>
  <speed>0.9968951800465282</speed>
  <fix>3d</fix>
</trkpt>
<trkpt lat="33.8102453" lon="-118.3938428">
  <ele>-24.45</ele>
  <time>2026-09-02T22:11:37Z</time>
  <course>194.07</course>
  <speed>0.99</speed>
  <fix>3d</fix>
</trkpt>
<trkpt lat="33.8102423" lon="-118.3938437">
  <ele>-25.051</ele>
  <time>2026-09-02T22:11:37Z</time>
  <course>193.43</course>
  <speed>0.9968951800465282</speed>
  <fix>3d</fix>
</trkpt>
<trkpt lat="33.8102435" lon="-118.3938434">
  <ele>-24.45</ele>
  <time>2026-09-02T22:11:37Z</time>
  <course>194.09</course>
  <speed>0.99</speed>
  <fix>3d</fix>
</trkpt>
<trkpt lat="33.8102414" lon="-118.3938439">
  <ele>-25.051</ele>
  <time>2026-09-02T22:11:37Z</time>
  <course>193.44</course>
  <speed>0.9968951800465282</speed>
  <fix>3d</fix>
</trkpt>
<trkpt lat="33.8102435" lon="-118.3938434">
  <ele>-24.45</ele>
  <time>2026-09-02T22:11:37Z</time>
  <course>194.09</course>
  <speed>0.99</speed>
  <fix>3d</fix>
</trkpt>
<trkpt lat="33.8102405" lon="-118.3938442">
  <ele>-25.051</ele>
  <time>2026-09-02T22:11:37Z</time>
  <course>193.43</course>
  <speed>0.9968951800465282</speed>
  <fix>3d</fix>
</trkpt>
<trkpt lat="33.8102418" lon="-118.3938439">
  <ele>-24.45</ele>
  <time>2026-09-02T22:11:37Z</time>
  <course>194.09</course>
  <speed>0.99</speed>
  <fix>3d</fix>
</trkpt>
<trkpt lat="33.8102397" lon="-118.3938445">
  <ele>-25.052</ele>
  <time>2026-09-02T22:11:37Z</time>
  <course>193.42</course>
  <speed>0.9968951800465282</speed>
  <fix>3d</fix>
</trkpt>
<trkpt lat="33.8102418" lon="-118.3938439">
  <ele>-24.45</ele>
  <time>2026-09-02T22:11:37Z</time>
  <course>194.09</course>
  <speed>0.99</speed>
  <fix>3d</fix>
</trkpt>
<trkpt lat="33.8102388" lon="-118.3938447">
  <ele>-25.053</ele>
  <time>2026-09-02T22:11:37Z</time>
  <course>193.4</course>
  <speed>0.9968951800465282</speed>
  <fix>3d</fix>
</trkpt>
<trkpt lat="33.8102401" lon="-118.3938444">
  <ele>-24.45</ele>
  <time>2026-09-02T22:11:37Z</time>
  <course>194.06</course>
  <speed>0.99</speed>
  <fix>3d</fix>
</trkpt>
<trkpt lat="33.8102379" lon="-118.393845">
  <ele>-25.053</ele>
  <time>2026-09-02T22:11:37Z</time>
  <course>193.39</course>
  <speed>0.9968951800465282</speed>
  <fix>3d</fix>
</trkpt>
<trkpt lat="33.8102401" lon="-118.3938444">
  <ele>-24.45</ele>
  <time>2026-09-02T22:11:37Z</time>
  <course>194.06</course>
  <speed>0.99</speed>
  <fix>3d</fix>
</trkpt>
<trkpt lat="33.810237" lon="-118.3938452">
  <ele>-25.054</ele>
  <time>2026-09-02T22:11:37Z</time>
  <course>193.37</course>
  <speed>0.9968951800465282</speed>
  <fix>3d</fix>
</trkpt>
<trkpt lat="33.8102384" lon="-118.3938449">
  <ele>-24.45</ele>
  <time>2026-09-02T22:11:37Z</time>
  <course>194.05</course>
  <speed>0.99</speed>
  <fix>3d</fix>
</trkpt>
<trkpt lat="33.8102362" lon="-118.3938455">
  <ele>-25.055</ele>
  <time>2026-09-02T22:11:37Z</time>
  <course>193.37</course>
  <speed>0.9968951800465282</speed>
  <fix>3d</fix>
</trkpt>
<trkpt lat="33.8102384" lon="-118.3938449">
  <ele>-24.45</ele>
  <time>2026-09-02T22:11:37Z</time>
  <course>194.05</course>
  <speed>0.99</speed>
  <fix>3d</fix>
</trkpt>
<trkpt lat="33.8102353" lon="-118.3938458">
  <ele>-25.057</ele>
  <time>2026-09-02T22:11:37Z</time>
  <course>193.36</course>
  <speed>0.9968951800465282</speed>
  <fix>3d</fix>
</trkpt>
<trkpt lat="33.8102367" lon="-118.3938455">
  <ele>-24.45</ele>
  <time>2026-09-02T22:11:37Z</time>
  <course>194.05</course>
  <speed>0.99</speed>
  <fix>3d</fix>
</trkpt>
<trkpt lat="33.8102344" lon="-118.393846">
  <ele>-25.057</ele>
  <time>2026-09-02T22:11:37Z</time>
  <course>193.35</course>
  <speed>0.9968951800465282</speed>
  <fix>3d</fix>
</trkpt>
<trkpt lat="33.8102367" lon="-118.3938455">
  <ele>-24.45</ele>
  <time>2026-09-02T22:11:37Z</time>
  <course>194.05</course>
  <speed>0.99</speed>
  <fix>3d</fix>
</trkpt>
<trkpt lat="33.8102336" lon="-118.3938463">
  <ele>-25.056</ele>
  <time>2026-09-02T22:11:37Z</time>
  <course>193.32</course>
  <speed>0.9968951800465282</speed>
  <fix>3d</fix>
</trkpt>
<trkpt lat="33.8102349" lon="-118.393846">
  <ele>-24.45</ele>
  <time>2026-09-02T22:11:37Z</time>
  <course>194.02</course>
  <speed>0.99</speed>
  <fix>3d</fix>
</trkpt>
<trkpt lat="33.8102327" lon="-118.3938466">
  <ele>-25.055</ele>
  <time>2026-09-02T22:11:37Z</time>
  <course>193.28</course>
  <speed>0.9968951800465282</speed>
  <fix>3d</fix>
</trkpt>
<trkpt lat="33.8102349" lon="-118.393846">
  <ele>-24.45</ele>
  <time>2026-09-02T22:11:37Z</time>
  <course>194.02</course>
  <speed>0.99</speed>
  <fix>3d</fix>
</trkpt>
<trkpt lat="33.8102318" lon="-118.3938468">
  <ele>-25.053</ele>
  <time>2026-09-02T22:11:37Z</time>
  <course>193.25</course>
  <speed>0.9968951800465282</speed>
  <fix>3d</fix>
</trkpt>
<trkpt lat="33.8102332" lon="-118.3938465">
  <ele>-24.44</ele>
  <time>2026-09-02T22:11:37Z</time>
  <course>193.97</course>
  <speed>0.99</speed>
  <fix>3d</fix>
</trkpt>
<trkpt lat="33.810231" lon="-118.3938471">
  <ele>-25.052</ele>
  <time>2026-09-02T22:11:37Z</time>
  <course>193.23</course>
  <speed>0.9968951800465282</speed>
  <fix>3d</fix>
</trkpt>
<trkpt lat="33.8102332" lon="-118.3938465">
  <ele>-24.44</ele>
  <time>2026-09-02T22:11:37Z</time>
  <course>193.97</course>
  <speed>0.99</speed>
  <fix>3d</fix>
</trkpt>
<trkpt lat="33.8102301" lon="-118.3938473">
  <ele>-25.051</ele>
  <time>2026-09-02T22:11:37Z</time>
  <course>193.22</course>
  <speed>0.9968951800465282</speed>
  <fix>3d</fix>
</trkpt>
<trkpt lat="33.8102314" lon="-118.393847">
  <ele>-24.44</ele>
  <time>2026-09-02T22:11:37Z</time>
  <course>193.94</course>
  <speed>0.99</speed>
  <fix>3d</fix>
</trkpt>
<trkpt lat="33.8102292" lon="-118.3938476">
  <ele>-25.05</ele>
  <time>2026-09-02T22:11:37Z</time>
  <course>193.22</course>
  <speed>0.9968951800465282</speed>
  <fix>3d</fix>
</trkpt>
<trkpt lat="33.8102314" lon="-118.393847">
  <ele>-24.44</ele>
  <time>2026-09-02T22:11:37Z</time>
  <course>193.94</course>
  <speed>0.99</speed>
  <fix>3d</fix>
</trkpt>
<trkpt lat="33.8102283" lon="-118.3938479">
  <ele>-25.049</ele>
  <time>2026-09-02T22:11:37Z</time>
  <course>193.22</course>
  <speed>0.9968951800465282</speed>
  <fix>3d</fix>
</trkpt>
<trkpt lat="33.8102296" lon="-118.3938475">
  <ele>-24.44</ele>
  <time>2026-09-02T22:11:37Z</time>
  <course>193.95</course>
  <speed>1.0</speed>
  <fix>3d</fix>
</trkpt>
<trkpt lat="33.8102275" lon="-118.3938481">
  <ele>-25.049</ele>
  <time>2026-09-02T22:11:37Z</time>
  <course>193.24</course>
  <speed>0.9968951800465282</speed>
  <fix>3d</fix>
</trkpt>
<trkpt lat="33.8102296" lon="-118.3938475">
  <ele>-24.44</ele>
  <time>2026-09-02T22:11:37Z</time>
  <course>193.95</course>
  <speed>1.0</speed>
  <fix>3d</fix>
</trkpt>
<trkpt lat="33.8102266" lon="-118.3938484">
  <ele>-25.05</ele>
  <time>2026-09-02T22:11:37Z</time>
  <course>193.28</course>
  <speed>0.9968951800465282</speed>
  <fix>3d</fix>
</trkpt>
<trkpt lat="33.8102279" lon="-118.393848">
  <ele>-24.44</ele>
  <time>2026-09-02T22:11:37Z</time>
  <course>194.0</course>
  <speed>0.99</speed>
  <fix>3d</fix>
</trkpt>
<trkpt lat="33.8102257" lon="-118.3938486">
  <ele>-25.05</ele>
  <time>2026-09-02T22:11:37Z</time>
  <course>193.31</course>
  <speed>0.9968951800465282</speed>
  <fix>3d</fix>
</trkpt>
<trkpt lat="33.8102279" lon="-118.393848">
  <ele>-24.44</ele>
  <time>2026-09-02T22:11:37Z</time>
  <course>194.0</course>
  <speed>0.99</speed>
  <fix>3d</fix>
</trkpt>
<trkpt lat="33.8102248" lon="-118.3938489">
  <ele>-25.05</ele>
  <time>2026-09-02T22:11:37Z</time>
  <course>193.34</course>
  <speed>0.9968951800465282</speed>
  <fix>3d</fix>
</trkpt>
<trkpt lat="33.8102262" lon="-118.3938486">
  <ele>-24.44</ele>
  <time>2026-09-02T22:11:37Z</time>
  <course>194.08</course>
  <speed>0.99</speed>
  <fix>3d</fix>
</trkpt>
<trkpt lat="33.810224" lon="-118.3938492">
  <ele>-25.05</ele>
  <time>2026-09-02T22:11:37Z</time>
  <course>193.37</course>
  <speed>0.9968951800465282</speed>
  <fix>3d</fix>
</trkpt>
<trkpt lat="33.8102262" lon="-118.3938486">
  <ele>-24.44</ele>
  <time>2026-09-02T22:11:37Z</time>
  <course>194.08</course>
  <speed>0.99</speed>
  <fix>3d</fix>
</trkpt>
<trkpt lat="33.8102231" lon="-118.3938494">
  <ele>-25.051</ele>
  <time>2026-09-02T22:11:37Z</time>
  <course>193.38</course>
  <speed>0.9968951800465282</speed>
  <fix>3d</fix>
</trkpt>
<trkpt lat="33.8102245" lon="-118.3938491">
  <ele>-24.44</ele>
  <time>2026-09-02T22:11:37Z</time>
  <course>194.11</course>
  <speed>0.99</speed>
  <fix>3d</fix>
</trkpt>
<trkpt lat="33.8102222" lon="-118.3938497">
  <ele>-25.051</ele>
  <time>2026-09-02T22:11:37Z</time>
  <course>193.37</course>
  <speed>0.9968951800465282</speed>
  <fix>3d</fix>
</trkpt>
<trkpt lat="33.8102245" lon="-118.3938491">
  <ele>-24.44</ele>
  <time>2026-09-02T22:11:37Z</time>
  <course>194.11</course>
  <speed>0.99</speed>
  <fix>3d</fix>
</trkpt>
<trkpt lat="33.8102214" lon="-118.3938499">
  <ele>-25.051</ele>
  <time>2026-09-02T22:11:37Z</time>
  <course>193.36</course>
  <speed>0.9968951800465282</speed>
  <fix>3d</fix>
</trkpt>
<trkpt lat="33.8102227" lon="-118.3938496">
  <ele>-24.44</ele>
  <time>2026-09-02T22:11:37Z</time>
  <course>194.09</course>
  <speed>0.99</speed>
  <fix>3d</fix>
</trkpt>
<trkpt lat="33.8102205" lon="-118.3938502">
  <ele>-25.051</ele>
  <time>2026-09-02T22:11:37Z</time>
  <course>193.35</course>
  <speed>0.9968951800465282</speed>
  <fix>3d</fix>
</trkpt>
<trkpt lat="33.8102227" lon="-118.3938496">
  <ele>-24.44</ele>
  <time>2026-09-02T22:11:37Z</time>
  <course>194.09</course>
  <speed>0.99</speed>
  <fix>3d</fix>
</trkpt>
<trkpt lat="33.8102196" lon="-118.3938505">
  <ele>-25.05</ele>
  <time>2026-09-02T22:11:37Z</time>
  <course>193.34</course>
  <speed>0.9968951800465282</speed>
  <fix>3d</fix>
</trkpt>
<trkpt lat="33.810221" lon="-118.3938502">
  <ele>-24.44</ele>
  <time>2026-09-02T22:11:37Z</time>
  <course>194.08</course>
  <speed>1.0</speed>
  <fix>3d</fix>
</trkpt>
<trkpt lat="33.8102187" lon="-118.3938507">
  <ele>-25.049</ele>
  <time>2026-09-02T22:11:37Z</time>
  <course>193.33</course>
  <speed>1.006628034578811</speed>
  <fix>3d</fix>
</trkpt>
<trkpt lat="33.810221" lon="-118.3938502">
  <ele>-24.44</ele>
  <time>2026-09-02T22:11:37Z</time>
  <course>194.08</course>
  <speed>1.0</speed>
  <fix>3d</fix>
</trkpt>
<trkpt lat="33.8102179" lon="-118.393851">
  <ele>-25.049</ele>
  <time>2026-09-02T22:11:37Z</time>
  <course>193.31</course>
  <speed>1.006628034578811</speed>
  <fix>3d</fix>
</trkpt>
<trkpt lat="33.8102192" lon="-118.3938507">
  <ele>-24.44</ele>
  <time>2026-09-02T22:11:37Z</time>
  <course>194.07</course>
  <speed>1.0</speed>
  <fix>3d</fix>
</trkpt>
<trkpt lat="33.810217" lon="-118.3938513">
  <ele>-25.049</ele>
  <time>2026-09-02T22:11:37Z</time>
  <course>193.28</course>
  <speed>1.006628034578811</speed>
  <fix>3d</fix>
</trkpt>
<trkpt lat="33.8102192" lon="-118.3938507">
  <ele>-24.44</ele>
  <time>2026-09-02T22:11:37Z</time>
  <course>194.07</course>
  <speed>1.0</speed>
  <fix>3d</fix>
</trkpt>
<trkpt lat="33.8102161" lon="-118.3938515">
  <ele>-25.049</ele>
  <time>2026-09-02T22:11:37Z</time>
  <course>193.26</course>
  <speed>0.9968951800465282</speed>
  <fix>3d</fix>
</trkpt>
<trkpt lat="33.8102174" lon="-118.3938512">
  <ele>-24.44</ele>
  <time>2026-09-02T22:11:37Z</time>
  <course>194.03</course>
  <speed>1.0</speed>
  <fix>3d</fix>
</trkpt>
<trkpt lat="33.8102153" lon="-118.3938518">
  <ele>-25.048</ele>
  <time>2026-09-02T22:11:37Z</time>
  <course>193.24</course>
  <speed>0.9968951800465282</speed>
  <fix>3d</fix>
</trkpt>
<trkpt lat="33.8102174" lon="-118.3938512">
  <ele>-24.44</ele>
  <time>2026-09-02T22:11:37Z</time>
  <course>194.03</course>
  <speed>1.0</speed>
  <fix>3d</fix>
</trkpt>
<trkpt lat="33.8102144" lon="-118.393852">
  <ele>-25.047</ele>
  <time>2026-09-02T22:11:37Z</time>
  <course>193.24</course>
  <speed>0.9968951800465282</speed>
  <fix>3d</fix>
</trkpt>
<trkpt lat="33.8102157" lon="-118.3938517">
  <ele>-24.44</ele>
  <time>2026-09-02T22:11:37Z</time>
  <course>194.02</course>
  <speed>1.0</speed>
  <fix>3d</fix>
</trkpt>
<trkpt lat="33.8102135" lon="-118.3938523">
  <ele>-25.048</ele>
  <time>2026-09-02T22:11:37Z</time>
  <course>193.25</course>
  <speed>0.9968951800465282</speed>
  <fix>3d</fix>
</trkpt>
<trkpt lat="33.8102157" lon="-118.3938517">
  <ele>-24.44</ele>
  <time>2026-09-02T22:11:37Z</time>
  <course>194.02</course>
  <speed>1.0</speed>
  <fix>3d</fix>
</trkpt>
<trkpt lat="33.8102126" lon="-118.3938526">
  <ele>-25.049</ele>
  <time>2026-09-02T22:11:37Z</time>
  <course>193.26</course>
  <speed>0.9968951800465282</speed>
  <fix>3d</fix>
</trkpt>
<trkpt lat="33.810214" lon="-118.3938523">
  <ele>-24.44</ele>
  <time>2026-09-02T22:11:37Z</time>
  <course>194.04</course>
  <speed>1.0</speed>
  <fix>3d</fix>
</trkpt>
<trkpt lat="33.8102118" lon="-118.3938528">
  <ele>-25.051</ele>
  <time>2026-09-02T22:11:37Z</time>
  <course>193.26</course>
  <speed>0.9968951800465282</speed>
  <fix>3d</fix>
</trkpt>
<trkpt lat="33.810214" lon="-118.3938523">
  <ele>-24.44</ele>
  <time>2026-09-02T22:11:37Z</time>
  <course>194.04</course>
  <speed>1.0</speed>
  <fix>3d</fix>
</trkpt>
<trkpt lat="33.8102109" lon="-118.3938531">
  <ele>-25.052</ele>
  <time>2026-09-02T22:11:37Z</time>
  <course>193.26</course>
  <speed>0.9968951800465282</speed>
  <fix>3d</fix>
</trkpt>
<trkpt lat="33.8102123" lon="-118.3938528">
  <ele>-24.44</ele>
  <time>2026-09-02T22:11:37Z</time>
  <course>194.05</course>
  <speed>0.99</speed>
  <fix>3d</fix>
</trkpt>
<trkpt lat="33.81021" lon="-118.3938534">
  <ele>-25.051</ele>
  <time>2026-09-02T22:11:37Z</time>
  <course>193.24</course>
  <speed>0.9968951800465282</speed>
  <fix>3d</fix>
</trkpt>
<trkpt lat="33.8102123" lon="-118.3938528">
  <ele>-24.44</ele>
  <time>2026-09-02T22:11:37Z</time>
  <course>194.05</course>
  <speed>0.99</speed>
  <fix>3d</fix>
</trkpt>
<trkpt lat="33.8102092" lon="-118.3938536">
  <ele>-25.049</ele>
  <time>2026-09-02T22:11:37Z</time>
  <course>193.22</course>
  <speed>1.006628034578811</speed>
  <fix>3d</fix>
</trkpt>
<trkpt lat="33.8102105" lon="-118.3938533">
  <ele>-24.44</ele>
  <time>2026-09-02T22:11:37Z</time>
  <course>194.02</course>
  <speed>1.0</speed>
  <fix>3d</fix>
</trkpt>
<trkpt lat="33.8102083" lon="-118.3938539">
  <ele>-25.046</ele>
  <time>2026-09-02T22:11:37Z</time>
  <course>193.2</course>
  <speed>1.006628034578811</speed>
  <fix>3d</fix>
</trkpt>
<trkpt lat="33.8102105" lon="-118.3938533">
  <ele>-24.44</ele>
  <time>2026-09-02T22:11:37Z</time>
  <course>194.02</course>
  <speed>1.0</speed>
  <fix>3d</fix>
</trkpt>
<trkpt lat="33.8102074" lon="-118.3938541">
  <ele>-25.046</ele>
  <time>2026-09-02T22:11:37Z</time>
  <course>193.19</course>
  <speed>1.006628034578811</speed>
  <fix>3d</fix>
</trkpt>
<trkpt lat="33.8102088" lon="-118.3938538">
  <ele>-24.44</ele>
  <time>2026-09-02T22:11:37Z</time>
  <course>194.01</course>
  <speed>1.0</speed>
  <fix>3d</fix>
</trkpt>
<trkpt lat="33.8102065" lon="-118.3938544">
  <ele>-25.046</ele>
  <time>2026-09-02T22:11:37Z</time>
  <course>193.18</course>
  <speed>1.006628034578811</speed>
  <fix>3d</fix>
</trkpt>
<trkpt lat="33.8102088" lon="-118.3938538">
  <ele>-24.44</ele>
  <time>2026-09-02T22:11:37Z</time>
  <course>194.01</course>
  <speed>1.0</speed>
  <fix>3d</fix>
</trkpt>
<trkpt lat="33.8102057" lon="-118.3938547">
  <ele>-25.047</ele>
  <time>2026-09-02T22:11:37Z</time>
  <course>193.19</course>
  <speed>1.006628034578811</speed>
  <fix>3d</fix>
</trkpt>
<trkpt lat="33.810207" lon="-118.3938544">
  <ele>-24.44</ele>
  <time>2026-09-02T22:11:37Z</time>
  <course>194.02</course>
  <speed>1.0</speed>
  <fix>3d</fix>
</trkpt>
<trkpt lat="33.8102048" lon="-118.3938549">
  <ele>-25.047</ele>
  <time>2026-09-02T22:11:37Z</time>
  <course>193.18</course>
  <speed>1.006628034578811</speed>
  <fix>3d</fix>
</trkpt>
<trkpt lat="33.810207" lon="-118.3938544">
  <ele>-24.44</ele>
  <time>2026-09-02T22:11:37Z</time>
  <course>194.02</course>
  <speed>1.0</speed>
  <fix>3d</fix>
</trkpt>
<trkpt lat="33.8102039" lon="-118.3938552">
  <ele>-25.048</ele>
  <time>2026-09-02T22:11:37Z</time>
  <course>193.17</course>
  <speed>0.9968951800465282</speed>
  <fix>3d</fix>
</trkpt>
<trkpt lat="33.8102052" lon="-118.3938549">
  <ele>-24.44</ele>
  <time>2026-09-02T22:11:37Z</time>
  <course>194.02</course>
  <speed>1.0</speed>
  <fix>3d</fix>
</trkpt>
<trkpt lat="33.810203" lon="-118.3938554">
  <ele>-25.049</ele>
  <time>2026-09-02T22:11:37Z</time>
  <course>193.16</course>
  <speed>0.9968951800465282</speed>
  <fix>3d</fix>
</trkpt>
<trkpt lat="33.8102052" lon="-118.3938549">
  <ele>-24.44</ele>
  <time>2026-09-02T22:11:37Z</time>
  <course>194.02</course>
  <speed>1.0</speed>
  <fix>3d</fix>
</trkpt>
<trkpt lat="33.8102022" lon="-118.3938557">
  <ele>-25.05</ele>
  <time>2026-09-02T22:11:37Z</time>
  <course>193.15</course>
  <speed>0.9968951800465282</speed>
  <fix>3d</fix>
</trkpt>
<trkpt lat="33.8102035" lon="-118.3938554">
  <ele>-24.45</ele>
  <time>2026-09-02T22:11:37Z</time>
  <course>193.99</course>
  <speed>1.0</speed>
  <fix>3d</fix>
</trkpt>
<trkpt lat="33.8102013" lon="-118.393856">
  <ele>-25.05</ele>
  <time>2026-09-02T22:11:37Z</time>
  <course>193.15</course>
  <speed>0.9968951800465282</speed>
  <fix>3d</fix>
</trkpt>
<trkpt lat="33.8102035" lon="-118.3938554">
  <ele>-24.45</ele>
  <time>2026-09-02T22:11:37Z</time>
  <course>193.99</course>
  <speed>1.0</speed>
  <fix>3d</fix>
</trkpt>
<trkpt lat="33.8102004" lon="-118.3938562">
  <ele>-25.049</ele>
  <time>2026-09-02T22:11:37Z</time>
  <course>193.16</course>
  <speed>0.9968951800465282</speed>
  <fix>3d</fix>
</trkpt>
<trkpt lat="33.8102018" lon="-118.3938559">
  <ele>-24.45</ele>
  <time>2026-09-02T22:11:37Z</time>
  <course>193.99</course>
  <speed>1.0</speed>
  <fix>3d</fix>
</trkpt>
<trkpt lat="33.8101995" lon="-118.3938565">
  <ele>-25.049</ele>
  <time>2026-09-02T22:11:37Z</time>
  <course>193.17</course>
  <speed>0.9968951800465282</speed>
  <fix>3d</fix>
</trkpt>
<trkpt lat="33.8102018" lon="-118.3938559">
  <ele>-24.45</ele>
  <time>2026-09-02T22:11:37Z</time>
  <course>193.99</course>
  <speed>1.0</speed>
  <fix>3d</fix>
</trkpt>
<trkpt lat="33.8101987" lon="-118.3938568">
  <ele>-25.05</ele>
  <time>2026-09-02T22:11:37Z</time>
  <course>193.18</course>
  <speed>0.9968951800465282</speed>
  <fix>3d</fix>
</trkpt>
<trkpt lat="33.8102" lon="-118.3938565">
  <ele>-24.45</ele>
  <time>2026-09-02T22:11:37Z</time>
  <course>194.02</course>
  <speed>1.0</speed>
  <fix>3d</fix>
</trkpt>
<trkpt lat="33.8101978" lon="-118.393857">
  <ele>-25.05</ele>
  <time>2026-09-02T22:11:37Z</time>
  <course>193.19</course>
  <speed>0.9968951800465282</speed>
  <fix>3d</fix>
</trkpt>
<trkpt lat="33.8102" lon="-118.3938565">
  <ele>-24.45</ele>
  <time>2026-09-02T22:11:37Z</time>
  <course>194.02</course>
  <speed>1.0</speed>
  <fix>3d</fix>
</trkpt>
<trkpt lat="33.8101969" lon="-118.3938573">
  <ele>-25.051</ele>
  <time>2026-09-02T22:11:37Z</time>
  <course>193.18</course>
  <speed>0.9968951800465282</speed>
  <fix>3d</fix>
</trkpt>
<trkpt lat="33.8101983" lon="-118.393857">
  <ele>-24.45</ele>
  <time>2026-09-02T22:11:37Z</time>
  <course>194.04</course>
  <speed>0.99</speed>
  <fix>3d</fix>
</trkpt>
<trkpt lat="33.810196" lon="-118.3938575">
  <ele>-25.052</ele>
  <time>2026-09-02T22:11:37Z</time>
  <course>193.17</course>
  <speed>0.9968951800465282</speed>
  <fix>3d</fix>
</trkpt>
<trkpt lat="33.8101983" lon="-118.393857">
  <ele>-24.45</ele>
  <time>2026-09-02T22:11:37Z</time>
  <course>194.04</course>
  <speed>0.99</speed>
  <fix>3d</fix>
</trkpt>
<trkpt lat="33.8101952" lon="-118.3938578">
  <ele>-25.053</ele>
  <time>2026-09-02T22:11:37Z</time>
  <course>193.15</course>
  <speed>0.9968951800465282</speed>
  <fix>3d</fix>
</trkpt>
<trkpt lat="33.8101966" lon="-118.3938575">
  <ele>-24.45</ele>
  <time>2026-09-02T22:11:37Z</time>
  <course>194.02</course>
  <speed>0.99</speed>
  <fix>3d</fix>
</trkpt>
<trkpt lat="33.8101943" lon="-118.3938581">
  <ele>-25.055</ele>
  <time>2026-09-02T22:11:37Z</time>
  <course>193.14</course>
  <speed>1.006628034578811</speed>
  <fix>3d</fix>
</trkpt>
<trkpt lat="33.8101966" lon="-118.3938575">
  <ele>-24.45</ele>
  <time>2026-09-02T22:11:37Z</time>
  <course>194.02</course>
  <speed>0.99</speed>
  <fix>3d</fix>
</trkpt>
<trkpt lat="33.8101934" lon="-118.3938583">
  <ele>-25.056</ele>
  <time>2026-09-02T22:11:37Z</time>
  <course>193.12</course>
  <speed>1.006628034578811</speed>
  <fix>3d</fix>
</trkpt>
<trkpt lat="33.8101948" lon="-118.393858">
  <ele>-24.46</ele>
  <time>2026-09-02T22:11:37Z</time>
  <course>193.99</course>
  <speed>0.99</speed>
  <fix>3d</fix>
</trkpt>
<trkpt lat="33.8101926" lon="-118.3938586">
  <ele>-25.056</ele>
  <time>2026-09-02T22:11:37Z</time>
  <course>193.12</course>
  <speed>1.006628034578811</speed>
  <fix>3d</fix>
</trkpt>
<trkpt lat="33.8101948" lon="-118.393858">
  <ele>-24.46</ele>
  <time>2026-09-02T22:11:37Z</time>
  <course>193.99</course>
  <speed>0.99</speed>
  <fix>3d</fix>
</trkpt>
<trkpt lat="33.8101917" lon="-118.3938588">
  <ele>-25.055</ele>
  <time>2026-09-02T22:11:37Z</time>
  <course>193.12</course>
  <speed>1.006628034578811</speed>
  <fix>3d</fix>
</trkpt>
<trkpt lat="33.810193" lon="-118.3938585">
  <ele>-24.45</ele>
  <time>2026-09-02T22:11:37Z</time>
  <course>193.99</course>
  <speed>0.99</speed>
  <fix>3d</fix>
</trkpt>
<trkpt lat="33.8101908" lon="-118.3938591">
  <ele>-25.054</ele>
  <time>2026-09-02T22:11:37Z</time>
  <course>193.14</course>
  <speed>1.006628034578811</speed>
  <fix>3d</fix>
</trkpt>
<trkpt lat="33.810193" lon="-118.3938585">
  <ele>-24.45</ele>
  <time>2026-09-02T22:11:37Z</time>
  <course>193.99</course>
  <speed>0.99</speed>
  <fix>3d</fix>
</trkpt>
<trkpt lat="33.8101899" lon="-118.3938594">
  <ele>-25.052</ele>
  <time>2026-09-02T22:11:37Z</time>
  <course>193.17</course>
  <speed>1.006628034578811</speed>
  <fix>3d</fix>
</trkpt>
<trkpt lat="33.8101913" lon="-118.3938591">
  <ele>-24.45</ele>
  <time>2026-09-02T22:11:37Z</time>
  <course>194.04</course>
  <speed>0.99</speed>
  <fix>3d</fix>
</trkpt>
<trkpt lat="33.8101891" lon="-118.3938596">
  <ele>-25.051</ele>
  <time>2026-09-02T22:11:37Z</time>
  <course>193.19</course>
  <speed>1.006628034578811</speed>
  <fix>3d</fix>
</trkpt>
<trkpt lat="33.8101913" lon="-118.3938591">
  <ele>-24.45</ele>
  <time>2026-09-02T22:11:37Z</time>
  <course>194.04</course>
  <speed>0.99</speed>
  <fix>3d</fix>
</trkpt>
<trkpt lat="33.8101882" lon="-118.3938599">
  <ele>-25.051</ele>
  <time>2026-09-02T22:11:37Z</time>
  <course>193.2</course>
  <speed>1.006628034578811</speed>
  <fix>3d</fix>
</trkpt>
<trkpt lat="33.8101896" lon="-118.3938596">
  <ele>-24.45</ele>
  <time>2026-09-02T22:11:37Z</time>
  <course>194.09</course>
  <speed>0.99</speed>
  <fix>3d</fix>
</trkpt>
<trkpt lat="33.8101873" lon="-118.3938601">
  <ele>-25.052</ele>
  <time>2026-09-02T22:11:37Z</time>
  <course>193.2</course>
  <speed>1.006628034578811</speed>
  <fix>3d</fix>
</trkpt>
<trkpt lat="33.8101896" lon="-118.3938596">
  <ele>-24.45</ele>
  <time>2026-09-02T22:11:37Z</time>
  <course>194.09</course>
  <speed>0.99</speed>
  <fix>3d</fix>
</trkpt>
<trkpt lat="33.8101865" lon="-118.3938604">
  <ele>-25.052</ele>
  <time>2026-09-02T22:11:37Z</time>
  <course>193.19</course>
  <speed>1.006628034578811</speed>
  <fix>3d</fix>
</trkpt>
<trkpt lat="33.8101878" lon="-118.3938601">
  <ele>-24.44</ele>
  <time>2026-09-02T22:11:37Z</time>
  <course>194.08</course>
  <speed>1.0</speed>
  <fix>3d</fix>
</trkpt>
<trkpt lat="33.8101856" lon="-118.3938607">
  <ele>-25.051</ele>
  <time>2026-09-02T22:11:37Z</time>
  <course>193.18</course>
  <speed>1.006628034578811</speed>
  <fix>3d</fix>
</trkpt>
<trkpt lat="33.8101878" lon="-118.3938601">
  <ele>-24.44</ele>
  <time>2026-09-02T22:11:37Z</time>
  <course>194.08</course>
  <speed>1.0</speed>
  <fix>3d</fix>
</trkpt>
<trkpt lat="33.8101847" lon="-118.3938609">
  <ele>-25.051</ele>
  <time>2026-09-02T22:11:37Z</time>
  <course>193.17</course>
  <speed>1.006628034578811</speed>
  <fix>3d</fix>
</trkpt>
<trkpt lat="33.810186" lon="-118.3938607">
  <ele>-24.44</ele>
  <time>2026-09-02T22:11:37Z</time>
  <course>194.06</course>
  <speed>1.0</speed>
  <fix>3d</fix>
</trkpt>
<trkpt lat="33.8101838" lon="-118.3938612">
  <ele>-25.049</ele>
  <time>2026-09-02T22:11:37Z</time>
  <course>193.16</course>
  <speed>1.006628034578811</speed>
  <fix>3d</fix>
</trkpt>
<trkpt lat="33.810186" lon="-118.3938607">
  <ele>-24.44</ele>
  <time>2026-09-02T22:11:37Z</time>
  <course>194.06</course>
  <speed>1.0</speed>
  <fix>3d</fix>
</trkpt>
<trkpt lat="33.810183" lon="-118.3938615">
  <ele>-25.047</ele>
  <time>2026-09-02T22:11:37Z</time>
  <course>193.15</course>
  <speed>1.006628034578811</speed>
  <fix>3d</fix>
</trkpt>
<trkpt lat="33.8101843" lon="-118.3938612">
  <ele>-24.44</ele>
  <time>2026-09-02T22:11:37Z</time>
  <course>194.05</course>
  <speed>1.0</speed>
  <fix>3d</fix>
</trkpt>
<trkpt lat="33.8101821" lon="-118.3938617">
  <ele>-25.046</ele>
  <time>2026-09-02T22:11:37Z</time>
  <course>193.13</course>
  <speed>1.006628034578811</speed>
  <fix>3d</fix>
</trkpt>
<trkpt lat="33.8101843" lon="-118.3938612">
  <ele>-24.44</ele>
  <time>2026-09-02T22:11:37Z</time>
  <course>194.05</course>
  <speed>1.0</speed>
  <fix>3d</fix>
</trkpt>
<trkpt lat="33.8101812" lon="-118.393862">
  <ele>-25.047</ele>
  <time>2026-09-02T22:11:37Z</time>
  <course>193.11</course>
  <speed>1.006628034578811</speed>
  <fix>3d</fix>
</trkpt>
<trkpt lat="33.8101826" lon="-118.3938617">
  <ele>-24.44</ele>
  <time>2026-09-02T22:11:37Z</time>
  <course>194.03</course>
  <speed>1.0</speed>
  <fix>3d</fix>
</trkpt>
<trkpt lat="33.8101804" lon="-118.3938622">
  <ele>-25.048</ele>
  <time>2026-09-02T22:11:37Z</time>
  <course>193.1</course>
  <speed>1.006628034578811</speed>
  <fix>3d</fix>
</trkpt>
<trkpt lat="33.8101826" lon="-118.3938617">
  <ele>-24.44</ele>
  <time>2026-09-02T22:11:37Z</time>
  <course>194.03</course>
  <speed>1.0</speed>
  <fix>3d</fix>
</trkpt>
<trkpt lat="33.8101795" lon="-118.3938625">
  <ele>-25.048</ele>
  <time>2026-09-02T22:11:37Z</time>
  <course>193.09</course>
  <speed>1.006628034578811</speed>
  <fix>3d</fix>
</trkpt>
<trkpt lat="33.8101808" lon="-118.3938622">
  <ele>-24.44</ele>
  <time>2026-09-02T22:11:37Z</time>
  <course>194.0</course>
  <speed>1.0</speed>
  <fix>3d</fix>
</trkpt>
<trkpt lat="33.8101786" lon="-118.3938628">
  <ele>-25.048</ele>
  <time>2026-09-02T22:11:37Z</time>
  <course>193.08</course>
  <speed>1.006628034578811</speed>
  <fix>3d</fix>
</trkpt>
<trkpt lat="33.8101808" lon="-118.3938622">
  <ele>-24.44</ele>
  <time>2026-09-02T22:11:37Z</time>
  <course>194.0</course>
  <speed>1.0</speed>
  <fix>3d</fix>
</trkpt>
<trkpt lat="33.8101777" lon="-118.393863">
  <ele>-25.048</ele>
  <time>2026-09-02T22:11:37Z</time>
  <course>193.09</course>
  <speed>1.006628034578811</speed>
  <fix>3d</fix>
</trkpt>
<trkpt lat="33.8101791" lon="-118.3938628">
  <ele>-24.44</ele>
  <time>2026-09-02T22:11:37Z</time>
  <course>194.0</course>
  <speed>1.0</speed>
  <fix>3d</fix>
</trkpt>
<trkpt lat="33.8101769" lon="-118.3938633">
  <ele>-25.048</ele>
  <time>2026-09-02T22:11:37Z</time>
  <course>193.1</course>
  <speed>1.006628034578811</speed>
  <fix>3d</fix>
</trkpt>
<trkpt lat="33.8101791" lon="-118.3938628">
  <ele>-24.44</ele>
  <time>2026-09-02T22:11:37Z</time>
  <course>194.0</course>
  <speed>1.0</speed>
  <fix>3d</fix>
</trkpt>
<trkpt lat="33.810176" lon="-118.3938635">
  <ele>-25.049</ele>
  <time>2026-09-02T22:11:37Z</time>
  <course>193.09</course>
  <speed>1.006628034578811</speed>
  <fix>3d</fix>
</trkpt>
<trkpt lat="33.8101774" lon="-118.3938633">
  <ele>-24.44</ele>
  <time>2026-09-02T22:11:37Z</time>
  <course>194.0</course>
  <speed>1.0</speed>
  <fix>3d</fix>
</trkpt>
<trkpt lat="33.8101751" lon="-118.3938638">
  <ele>-25.049</ele>
  <time>2026-09-02T22:11:37Z</time>
  <course>193.07</course>
  <speed>1.006628034578811</speed>
  <fix>3d</fix>
</trkpt>
<trkpt lat="33.8101774" lon="-118.3938633">
  <ele>-24.44</ele>
  <time>2026-09-02T22:11:37Z</time>
  <course>194.0</course>
  <speed>1.0</speed>
  <fix>3d</fix>
</trkpt>
<trkpt lat="33.8101743" lon="-118.3938641">
  <ele>-25.049</ele>
  <time>2026-09-02T22:11:37Z</time>
  <course>193.05</course>
  <speed>1.006628034578811</speed>
  <fix>3d</fix>
</trkpt>
<trkpt lat="33.8101755" lon="-118.3938638">
  <ele>-24.44</ele>
  <time>2026-09-02T22:11:37Z</time>
  <course>193.96</course>
  <speed>1.0</speed>
  <fix>3d</fix>
</trkpt>
<trkpt lat="33.8101734" lon="-118.3938643">
  <ele>-25.048</ele>
  <time>2026-09-02T22:11:37Z</time>
  <course>193.03</course>
  <speed>1.006628034578811</speed>
  <fix>3d</fix>
</trkpt>
<trkpt lat="33.8101755" lon="-118.3938638">
  <ele>-24.44</ele>
  <time>2026-09-02T22:11:37Z</time>
  <course>193.96</course>
  <speed>1.0</speed>
  <fix>3d</fix>
</trkpt>
<trkpt lat="33.8101725" lon="-118.3938646">
  <ele>-25.047</ele>
  <time>2026-09-02T22:11:37Z</time>
  <course>193.03</course>
  <speed>1.006628034578811</speed>
  <fix>3d</fix>
</trkpt>
<trkpt lat="33.8101738" lon="-118.3938643">
  <ele>-24.44</ele>
  <time>2026-09-02T22:11:37Z</time>
  <course>193.95</course>
  <speed>1.0</speed>
  <fix>3d</fix>
</trkpt>
<trkpt lat="33.8101716" lon="-118.3938648">
  <ele>-25.047</ele>
  <time>2026-09-02T22:11:37Z</time>
  <course>193.04</course>
  <speed>1.006628034578811</speed>
  <fix>3d</fix>
</trkpt>
<trkpt lat="33.8101738" lon="-118.3938643">
  <ele>-24.44</ele>
  <time>2026-09-02T22:11:37Z</time>
  <course>193.95</course>
  <speed>1.0</speed>
  <fix>3d</fix>
</trkpt>
<trkpt lat="33.8101707" lon="-118.3938651">
  <ele>-25.049</ele>
  <time>2026-09-02T22:11:37Z</time>
  <course>193.06</course>
  <speed>1.006628034578811</speed>
  <fix>3d</fix>
</trkpt>
<trkpt lat="33.8101721" lon="-118.3938649">
  <ele>-24.44</ele>
  <time>2026-09-02T22:11:37Z</time>
  <course>194.0</course>
  <speed>1.0</speed>
  <fix>3d</fix>
</trkpt>
<trkpt lat="33.8101699" lon="-118.3938654">
  <ele>-25.049</ele>
  <time>2026-09-02T22:11:37Z</time>
  <course>193.07</course>
  <speed>1.006628034578811</speed>
  <fix>3d</fix>
</trkpt>
<trkpt lat="33.8101721" lon="-118.3938649">
  <ele>-24.44</ele>
  <time>2026-09-02T22:11:37Z</time>
  <course>194.0</course>
  <speed>1.0</speed>
  <fix>3d</fix>
</trkpt>
<trkpt lat="33.810169" lon="-118.3938656">
  <ele>-25.05</ele>
  <time>2026-09-02T22:11:37Z</time>
  <course>193.07</course>
  <speed>1.006628034578811</speed>
  <fix>3d</fix>
</trkpt>
<trkpt lat="33.8101703" lon="-118.3938654">
  <ele>-24.44</ele>
  <time>2026-09-02T22:11:37Z</time>
  <course>194.03</course>
  <speed>1.0</speed>
  <fix>3d</fix>
</trkpt>
<trkpt lat="33.8101681" lon="-118.3938659">
  <ele>-25.05</ele>
  <time>2026-09-02T22:11:37Z</time>
  <course>193.05</course>
  <speed>1.006628034578811</speed>
  <fix>3d</fix>
</trkpt>
<trkpt lat="33.8101703" lon="-118.3938654">
  <ele>-24.44</ele>
  <time>2026-09-02T22:11:37Z</time>
  <course>194.03</course>
  <speed>1.0</speed>
  <fix>3d</fix>
</trkpt>
<trkpt lat="33.8101672" lon="-118.3938662">
  <ele>-25.049</ele>
  <time>2026-09-02T22:11:37Z</time>
  <course>193.04</course>
  <speed>1.006628034578811</speed>
  <fix>3d</fix>
</trkpt>
<trkpt lat="33.8101686" lon="-118.3938659">
  <ele>-24.44</ele>
  <time>2026-09-02T22:11:37Z</time>
  <course>194.0</course>
  <speed>1.0</speed>
  <fix>3d</fix>
</trkpt>
<trkpt lat="33.8101664" lon="-118.3938664">
  <ele>-25.049</ele>
  <time>2026-09-02T22:11:37Z</time>
  <course>193.04</course>
  <speed>1.006628034578811</speed>
  <fix>3d</fix>
</trkpt>
<trkpt lat="33.8101686" lon="-118.3938659">
  <ele>-24.44</ele>
  <time>2026-09-02T22:11:37Z</time>
  <course>194.0</course>
  <speed>1.0</speed>
  <fix>3d</fix>
</trkpt>
<trkpt lat="33.8101655" lon="-118.3938667">
  <ele>-25.049</ele>
  <time>2026-09-02T22:11:37Z</time>
  <course>193.03</course>
  <speed>1.006628034578811</speed>
  <fix>3d</fix>
</trkpt>
<trkpt lat="33.8101669" lon="-118.3938664">
  <ele>-24.44</ele>
  <time>2026-09-02T22:11:37Z</time>
  <course>193.99</course>
  <speed>1.0</speed>
  <fix>3d</fix>
</trkpt>
<trkpt lat="33.8101646" lon="-118.3938669">
  <ele>-25.049</ele>
  <time>2026-09-02T22:11:37Z</time>
  <course>193.03</course>
  <speed>1.006628034578811</speed>
  <fix>3d</fix>
</trkpt>
<trkpt lat="33.8101669" lon="-118.3938664">
  <ele>-24.44</ele>
  <time>2026-09-02T22:11:37Z</time>
  <course>193.99</course>
  <speed>1.0</speed>
  <fix>3d</fix>
</trkpt>
<trkpt lat="33.8101638" lon="-118.3938672">
  <ele>-25.049</ele>
  <time>2026-09-02T22:11:37Z</time>
  <course>193.03</course>
  <speed>1.006628034578811</speed>
  <fix>3d</fix>
</trkpt>
<trkpt lat="33.8101651" lon="-118.393867">
  <ele>-24.44</ele>
  <time>2026-09-02T22:11:37Z</time>
  <course>194.0</course>
  <speed>1.0</speed>
  <fix>3d</fix>
</trkpt>
<trkpt lat="33.8101629" lon="-118.3938675">
  <ele>-25.05</ele>
  <time>2026-09-02T22:11:37Z</time>
  <course>193.03</course>
  <speed>1.006628034578811</speed>
  <fix>3d</fix>
</trkpt>
<trkpt lat="33.8101651" lon="-118.393867">
  <ele>-24.44</ele>
  <time>2026-09-02T22:11:37Z</time>
  <course>194.0</course>
  <speed>1.0</speed>
  <fix>3d</fix>
</trkpt>
<trkpt lat="33.810162" lon="-118.3938677">
  <ele>-25.05</ele>
  <time>2026-09-02T22:11:37Z</time>
  <course>193.02</course>
  <speed>1.006628034578811</speed>
  <fix>3d</fix>
</trkpt>
<trkpt lat="33.8101633" lon="-118.3938675">
  <ele>-24.44</ele>
  <time>2026-09-02T22:11:37Z</time>
  <course>194.0</course>
  <speed>1.0</speed>
  <fix>3d</fix>
</trkpt>
<trkpt lat="33.8101611" lon="-118.393868">
  <ele>-25.049</ele>
  <time>2026-09-02T22:11:37Z</time>
  <course>193.01</course>
  <speed>1.006628034578811</speed>
  <fix>3d</fix>
</trkpt>
<trkpt lat="33.8101633" lon="-118.3938675">
  <ele>-24.44</ele>
  <time>2026-09-02T22:11:37Z</time>
  <course>194.0</course>
  <speed>1.0</speed>
  <fix>3d</fix>
</trkpt>
<trkpt lat="33.8101603" lon="-118.3938683">
  <ele>-25.048</ele>
  <time>2026-09-02T22:11:37Z</time>
  <course>193.0</course>
  <speed>1.006628034578811</speed>
  <fix>3d</fix>
</trkpt>
<trkpt lat="33.8101616" lon="-118.393868">
  <ele>-24.44</ele>
  <time>2026-09-02T22:11:37Z</time>
  <course>193.97</course>
  <speed>1.0</speed>
  <fix>3d</fix>
</trkpt>
<trkpt lat="33.8101594" lon="-118.3938685">
  <ele>-25.045</ele>
  <time>2026-09-02T22:11:37Z</time>
  <course>192.99</course>
  <speed>1.006628034578811</speed>
  <fix>3d</fix>
</trkpt>
<trkpt lat="33.8101616" lon="-118.393868">
  <ele>-24.44</ele>
  <time>2026-09-02T22:11:37Z</time>
  <course>193.97</course>
  <speed>1.0</speed>
  <fix>3d</fix>
</trkpt>
<trkpt lat="33.8101585" lon="-118.3938688">
  <ele>-25.043</ele>
  <time>2026-09-02T22:11:37Z</time>
  <course>192.99</course>
  <speed>1.006628034578811</speed>
  <fix>3d</fix>
</trkpt>
<trkpt lat="33.8101599" lon="-118.3938685">
  <ele>-24.43</ele>
  <time>2026-09-02T22:11:37Z</time>
  <course>193.97</course>
  <speed>1.0</speed>
  <fix>3d</fix>
</trkpt>
<trkpt lat="33.8101576" lon="-118.393869">
  <ele>-25.04</ele>
  <time>2026-09-02T22:11:37Z</time>
  <course>193.0</course>
  <speed>1.006628034578811</speed>
  <fix>3d</fix>
</trkpt>
<trkpt lat="33.8101599" lon="-118.3938685">
  <ele>-24.43</ele>
  <time>2026-09-02T22:11:37Z</time>
  <course>193.97</course>
  <speed>1.0</speed>
  <fix>3d</fix>
</trkpt>
<trkpt lat="33.8101568" lon="-118.3938693">
  <ele>-25.039</ele>
  <time>2026-09-02T22:11:37Z</time>
  <course>193.01</course>
  <speed>1.006628034578811</speed>
  <fix>3d</fix>
</trkpt>
<trkpt lat="33.8101581" lon="-118.3938691">
  <ele>-24.43</ele>
  <time>2026-09-02T22:11:37Z</time>
  <course>194.0</course>
  <speed>1.0</speed>
  <fix>3d</fix>
</trkpt>
<trkpt lat="33.8101559" lon="-118.3938696">
  <ele>-25.038</ele>
  <time>2026-09-02T22:11:37Z</time>
  <course>193.01</course>
  <speed>1.006628034578811</speed>
  <fix>3d</fix>
</trkpt>
<trkpt lat="33.8101581" lon="-118.3938691">
  <ele>-24.43</ele>
  <time>2026-09-02T22:11:37Z</time>
  <course>194.0</course>
  <speed>1.0</speed>
  <fix>3d</fix>
</trkpt>
<trkpt lat="33.810155" lon="-118.3938698">
  <ele>-25.04</ele>
  <time>2026-09-02T22:11:37Z</time>
  <course>193.0</course>
  <speed>1.006628034578811</speed>
  <fix>3d</fix>
</trkpt>
<trkpt lat="33.8101563" lon="-118.3938696">
  <ele>-24.43</ele>
  <time>2026-09-02T22:11:37Z</time>
  <course>194.01</course>
  <speed>1.0</speed>
  <fix>3d</fix>
</trkpt>
<trkpt lat="33.8101541" lon="-118.3938701">
  <ele>-25.043</ele>
  <time>2026-09-02T22:11:37Z</time>
  <course>193.0</course>
  <speed>1.006628034578811</speed>
  <fix>3d</fix>
</trkpt>
<trkpt lat="33.8101563" lon="-118.3938696">
  <ele>-24.43</ele>
  <time>2026-09-02T22:11:37Z</time>
  <course>194.01</course>
  <speed>1.0</speed>
  <fix>3d</fix>
</trkpt>
<trkpt lat="33.8101533" lon="-118.3938703">
  <ele>-25.045</ele>
  <time>2026-09-02T22:11:37Z</time>
  <course>192.98</course>
  <speed>1.006628034578811</speed>
  <fix>3d</fix>
</trkpt>
<trkpt lat="33.8101546" lon="-118.3938701">
  <ele>-24.44</ele>
  <time>2026-09-02T22:11:37Z</time>
  <course>193.99</course>
  <speed>0.99</speed>
  <fix>3d</fix>
</trkpt>
<trkpt lat="33.8101524" lon="-118.3938706">
  <ele>-25.047</ele>
  <time>2026-09-02T22:11:37Z</time>
  <course>192.98</course>
  <speed>1.006628034578811</speed>
  <fix>3d</fix>
</trkpt>
<trkpt lat="33.8101546" lon="-118.3938701">
  <ele>-24.44</ele>
  <time>2026-09-02T22:11:37Z</time>
  <course>193.99</course>
  <speed>0.99</speed>
  <fix>3d</fix>
</trkpt>
<trkpt lat="33.8101515" lon="-118.3938709">
  <ele>-25.049</ele>
  <time>2026-09-02T22:11:37Z</time>
  <course>192.99</course>
  <speed>1.006628034578811</speed>
  <fix>3d</fix>
</trkpt>
<trkpt lat="33.8101529" lon="-118.3938706">
  <ele>-24.44</ele>
  <time>2026-09-02T22:11:37Z</time>
  <course>194.0</course>
  <speed>0.99</speed>
  <fix>3d</fix>
</trkpt>
<trkpt lat="33.8101507" lon="-118.3938711">
  <ele>-25.051</ele>
  <time>2026-09-02T22:11:37Z</time>
  <course>192.99</course>
  <speed>1.006628034578811</speed>
  <fix>3d</fix>
</trkpt>
<trkpt lat="33.8101529" lon="-118.3938706">
  <ele>-24.44</ele>
  <time>2026-09-02T22:11:37Z</time>
  <course>194.0</course>
  <speed>0.99</speed>
  <fix>3d</fix>
</trkpt>
<trkpt lat="33.8101498" lon="-118.3938714">
  <ele>-25.052</ele>
  <time>2026-09-02T22:11:37Z</time>
  <course>193.0</course>
  <speed>1.006628034578811</speed>
  <fix>3d</fix>
</trkpt>
<trkpt lat="33.8101511" lon="-118.3938711">
  <ele>-24.45</ele>
  <time>2026-09-02T22:11:37Z</time>
  <course>194.03</course>
  <speed>0.99</speed>
  <fix>3d</fix>
</trkpt>
<trkpt lat="33.8101489" lon="-118.3938716">
  <ele>-25.052</ele>
  <time>2026-09-02T22:11:37Z</time>
  <course>193.01</course>
  <speed>1.006628034578811</speed>
  <fix>3d</fix>
</trkpt>
<trkpt lat="33.8101511" lon="-118.3938711">
  <ele>-24.45</ele>
  <time>2026-09-02T22:11:37Z</time>
  <course>194.03</course>
  <speed>0.99</speed>
  <fix>3d</fix>
</trkpt>
<trkpt lat="33.810148" lon="-118.3938719">
  <ele>-25.051</ele>
  <time>2026-09-02T22:11:37Z</time>
  <course>193.03</course>
  <speed>1.006628034578811</speed>
  <fix>3d</fix>
</trkpt>
<trkpt lat="33.8101494" lon="-118.3938717">
  <ele>-24.45</ele>
  <time>2026-09-02T22:11:37Z</time>
  <course>194.06</course>
  <speed>0.99</speed>
  <fix>3d</fix>
</trkpt>
<trkpt lat="33.8101472" lon="-118.3938722">
  <ele>-25.051</ele>
  <time>2026-09-02T22:11:37Z</time>
  <course>193.06</course>
  <speed>1.006628034578811</speed>
  <fix>3d</fix>
</trkpt>
<trkpt lat="33.8101494" lon="-118.3938717">
  <ele>-24.45</ele>
  <time>2026-09-02T22:11:37Z</time>
  <course>194.06</course>
  <speed>0.99</speed>
  <fix>3d</fix>
</trkpt>
<trkpt lat="33.8101463" lon="-118.3938724">
  <ele>-25.05</ele>
  <time>2026-09-02T22:11:37Z</time>
  <course>193.06</course>
  <speed>1.006628034578811</speed>
  <fix>3d</fix>
</trkpt>
<trkpt lat="33.8101477" lon="-118.3938722">
  <ele>-24.45</ele>
  <time>2026-09-02T22:11:37Z</time>
  <course>194.07</course>
  <speed>0.99</speed>
  <fix>3d</fix>
</trkpt>
<trkpt lat="33.8101454" lon="-118.3938727">
  <ele>-25.049</ele>
  <time>2026-09-02T22:11:37Z</time>
  <course>193.04</course>
  <speed>1.006628034578811</speed>
  <fix>3d</fix>
</trkpt>
<trkpt lat="33.8101477" lon="-118.3938722">
  <ele>-24.45</ele>
  <time>2026-09-02T22:11:37Z</time>
  <course>194.07</course>
  <speed>0.99</speed>
  <fix>3d</fix>
</trkpt>
<trkpt lat="33.8101446" lon="-118.393873">
  <ele>-25.05</ele>
  <time>2026-09-02T22:11:37Z</time>
  <course>193.03</course>
  <speed>1.006628034578811</speed>
  <fix>3d</fix>
</trkpt>
<trkpt lat="33.8101459" lon="-118.3938727">
  <ele>-24.45</ele>
  <time>2026-09-02T22:11:37Z</time>
  <course>194.05</course>
  <speed>0.99</speed>
  <fix>3d</fix>
</trkpt>
<trkpt lat="33.8101437" lon="-118.3938732">
  <ele>-25.051</ele>
  <time>2026-09-02T22:11:37Z</time>
  <course>193.01</course>
  <speed>1.006628034578811</speed>
  <fix>3d</fix>
</trkpt>
<trkpt lat="33.8101459" lon="-118.3938727">
  <ele>-24.45</ele>
  <time>2026-09-02T22:11:37Z</time>
  <course>194.05</course>
  <speed>0.99</speed>
  <fix>3d</fix>
</trkpt>
<trkpt lat="33.8101428" lon="-118.3938735">
  <ele>-25.053</ele>
  <time>2026-09-02T22:11:37Z</time>
  <course>193.01</course>
  <speed>1.006628034578811</speed>
  <fix>3d</fix>
</trkpt>
<trkpt lat="33.8101441" lon="-118.3938732">
  <ele>-24.45</ele>
  <time>2026-09-02T22:11:37Z</time>
  <course>194.06</course>
  <speed>1.0</speed>
  <fix>3d</fix>
</trkpt>
<trkpt lat="33.8101419" lon="-118.3938737">
  <ele>-25.054</ele>
  <time>2026-09-02T22:11:37Z</time>
  <course>193.01</course>
  <speed>1.006628034578811</speed>
  <fix>3d</fix>
</trkpt>
<trkpt lat="33.8101441" lon="-118.3938732">
  <ele>-24.45</ele>
  <time>2026-09-02T22:11:37Z</time>
  <course>194.06</course>
  <speed>1.0</speed>
  <fix>3d</fix>
</trkpt>
<trkpt lat="33.8101411" lon="-118.393874">
  <ele>-25.053</ele>
  <time>2026-09-02T22:11:37Z</time>
  <course>193.03</course>
  <speed>1.006628034578811</speed>
  <fix>3d</fix>
</trkpt>
<trkpt lat="33.8101424" lon="-118.3938738">
  <ele>-24.44</ele>
  <time>2026-09-02T22:11:37Z</time>
  <course>194.09</course>
  <speed>1.0</speed>
  <fix>3d</fix>
</trkpt>
<trkpt lat="33.8101402" lon="-118.3938743">
  <ele>-25.051</ele>
  <time>2026-09-02T22:11:37Z</time>
  <course>193.04</course>
  <speed>1.006628034578811</speed>
  <fix>3d</fix>
</trkpt>
<trkpt lat="33.8101424" lon="-118.3938738">
  <ele>-24.44</ele>
  <time>2026-09-02T22:11:37Z</time>
  <course>194.09</course>
  <speed>1.0</speed>
  <fix>3d</fix>
</trkpt>
<trkpt lat="33.8101393" lon="-118.3938745">
  <ele>-25.049</ele>
  <time>2026-09-02T22:11:37Z</time>
  <course>193.03</course>
  <speed>1.006628034578811</speed>
  <fix>3d</fix>
</trkpt>
<trkpt lat="33.8101407" lon="-118.3938743">
  <ele>-24.44</ele>
  <time>2026-09-02T22:11:37Z</time>
  <course>194.12</course>
  <speed>0.99</speed>
  <fix>3d</fix>
</trkpt>
<trkpt lat="33.8101384" lon="-118.3938748">
  <ele>-25.047</ele>
  <time>2026-09-02T22:11:37Z</time>
  <course>193.02</course>
  <speed>1.006628034578811</speed>
  <fix>3d</fix>
</trkpt>
<trkpt lat="33.8101407" lon="-118.3938743">
  <ele>-24.44</ele>
  <time>2026-09-02T22:11:37Z</time>
  <course>194.12</course>
  <speed>0.99</speed>
  <fix>3d</fix>
</trkpt>
<trkpt lat="33.8101376" lon="-118.393875">
  <ele>-25.045</ele>
  <time>2026-09-02T22:11:37Z</time>
  <course>193.0</course>
  <speed>1.006628034578811</speed>
  <fix>3d</fix>
</trkpt>
<trkpt lat="33.8101389" lon="-118.3938748">
  <ele>-24.44</ele>
  <time>2026-09-02T22:11:37Z</time>
  <course>194.1</course>
  <speed>0.99</speed>
  <fix>3d</fix>
</trkpt>
<trkpt lat="33.8101367" lon="-118.3938753">
  <ele>-25.044</ele>
  <time>2026-09-02T22:11:37Z</time>
  <course>192.98</course>
  <speed>1.006628034578811</speed>
  <fix>3d</fix>
</trkpt>
<trkpt lat="33.8101389" lon="-118.3938748">
  <ele>-24.44</ele>
  <time>2026-09-02T22:11:37Z</time>
  <course>194.1</course>
  <speed>0.99</speed>
  <fix>3d</fix>
</trkpt>
<trkpt lat="33.8101358" lon="-118.3938756">
  <ele>-25.043</ele>
  <time>2026-09-02T22:11:37Z</time>
  <course>192.97</course>
  <speed>1.006628034578811</speed>
  <fix>3d</fix>
</trkpt>
<trkpt lat="33.8101372" lon="-118.3938753">
  <ele>-24.43</ele>
  <time>2026-09-02T22:11:37Z</time>
  <course>194.07</course>
  <speed>0.99</speed>
  <fix>3d</fix>
</trkpt>
<trkpt lat="33.8101349" lon="-118.3938758">
  <ele>-25.042</ele>
  <time>2026-09-02T22:11:37Z</time>
  <course>192.97</course>
  <speed>1.006628034578811</speed>
  <fix>3d</fix>
</trkpt>
<trkpt lat="33.8101372" lon="-118.3938753">
  <ele>-24.43</ele>
  <time>2026-09-02T22:11:37Z</time>
  <course>194.07</course>
  <speed>0.99</speed>
  <fix>3d</fix>
</trkpt>
<trkpt lat="33.8101341" lon="-118.3938761">
  <ele>-25.043</ele>
  <time>2026-09-02T22:11:37Z</time>
  <course>192.98</course>
  <speed>1.006628034578811</speed>
  <fix>3d</fix>
</trkpt>
<trkpt lat="33.8101355" lon="-118.3938759">
  <ele>-24.43</ele>
  <time>2026-09-02T22:11:37Z</time>
  <course>194.08</course>
  <speed>0.99</speed>
  <fix>3d</fix>
</trkpt>
<trkpt lat="33.8101332" lon="-118.3938764">
  <ele>-25.044</ele>
  <time>2026-09-02T22:11:37Z</time>
  <course>192.99</course>
  <speed>1.006628034578811</speed>
  <fix>3d</fix>
</trkpt>
<trkpt lat="33.8101355" lon="-118.3938759">
  <ele>-24.43</ele>
  <time>2026-09-02T22:11:37Z</time>
  <course>194.08</course>
  <speed>0.99</speed>
  <fix>3d</fix>
</trkpt>
<trkpt lat="33.8101323" lon="-118.3938766">
  <ele>-25.045</ele>
  <time>2026-09-02T22:11:37Z</time>
  <course>192.97</course>
  <speed>1.006628034578811</speed>
  <fix>3d</fix>
</trkpt>
<trkpt lat="33.8101337" lon="-118.3938764">
  <ele>-24.44</ele>
  <time>2026-09-02T22:11:37Z</time>
  <course>194.07</course>
  <speed>0.99</speed>
  <fix>3d</fix>
</trkpt>
<trkpt lat="33.8101315" lon="-118.3938769">
  <ele>-25.046</ele>
  <time>2026-09-02T22:11:37Z</time>
  <course>192.95</course>
  <speed>1.006628034578811</speed>
  <fix>3d</fix>
</trkpt>
<trkpt lat="33.8101337" lon="-118.3938764">
  <ele>-24.44</ele>
  <time>2026-09-02T22:11:37Z</time>
  <course>194.07</course>
  <speed>0.99</speed>
  <fix>3d</fix>
</trkpt>
<trkpt lat="33.8101306" lon="-118.3938771">
  <ele>-25.046</ele>
  <time>2026-09-02T22:11:37Z</time>
  <course>192.94</course>
  <speed>1.006628034578811</speed>
  <fix>3d</fix>
</trkpt>
<trkpt lat="33.8101319" lon="-118.3938769">
  <ele>-24.44</ele>
  <time>2026-09-02T22:11:37Z</time>
  <course>194.03</course>
  <speed>0.99</speed>
  <fix>3d</fix>
</trkpt>
<trkpt lat="33.8101297" lon="-118.3938774">
  <ele>-25.046</ele>
  <time>2026-09-02T22:11:37Z</time>
  <course>192.92</course>
  <speed>1.006628034578811</speed>
  <fix>3d</fix>
</trkpt>
<trkpt lat="33.8101319" lon="-118.3938769">
  <ele>-24.44</ele>
  <time>2026-09-02T22:11:37Z</time>
  <course>194.03</course>
  <speed>0.99</speed>
  <fix>3d</fix>
</trkpt>
<trkpt lat="33.8101288" lon="-118.3938777">
  <ele>-25.047</ele>
  <time>2026-09-02T22:11:37Z</time>
  <course>192.92</course>
  <speed>1.006628034578811</speed>
  <fix>3d</fix>
</trkpt>
<trkpt lat="33.8101302" lon="-118.3938775">
  <ele>-24.44</ele>
  <time>2026-09-02T22:11:37Z</time>
  <course>194.04</course>
  <speed>0.99</speed>
  <fix>3d</fix>
</trkpt>
<trkpt lat="33.810128" lon="-118.3938779">
  <ele>-25.049</ele>
  <time>2026-09-02T22:11:37Z</time>
  <course>192.92</course>
  <speed>1.006628034578811</speed>
  <fix>3d</fix>
</trkpt>
<trkpt lat="33.8101302" lon="-118.3938775">
  <ele>-24.44</ele>
  <time>2026-09-02T22:11:37Z</time>
  <course>194.04</course>
  <speed>0.99</speed>
  <fix>3d</fix>
</trkpt>
<trkpt lat="33.8101271" lon="-118.3938782">
  <ele>-25.05</ele>
  <time>2026-09-02T22:11:37Z</time>
  <course>192.9</course>
  <speed>1.006628034578811</speed>
  <fix>3d</fix>
</trkpt>
<trkpt lat="33.8101285" lon="-118.393878">
  <ele>-24.44</ele>
  <time>2026-09-02T22:11:37Z</time>
  <course>194.04</course>
  <speed>0.99</speed>
  <fix>3d</fix>
</trkpt>
<trkpt lat="33.8101262" lon="-118.3938785">
  <ele>-25.048</ele>
  <time>2026-09-02T22:11:37Z</time>
  <course>192.88</course>
  <speed>1.0043903623591774</speed>
  <fix>3d</fix>
</trkpt>
<trkpt lat="33.8101285" lon="-118.393878">
  <ele>-24.44</ele>
  <time>2026-09-02T22:11:37Z</time>
  <course>194.04</course>
  <speed>0.99</speed>
  <fix>3d</fix>
</trkpt>
<trkpt lat="33.8101253" lon="-118.3938787">
  <ele>-25.047</ele>
  <time>2026-09-02T22:11:37Z</time>
  <course>192.85</course>
  <speed>1.0043903623591774</speed>
  <fix>3d</fix>
</trkpt>
<trkpt lat="33.8101267" lon="-118.3938785">
  <ele>-24.44</ele>
  <time>2026-09-02T22:11:37Z</time>
  <course>194.0</course>
  <speed>0.99</speed>
  <fix>3d</fix>
</trkpt>
<trkpt lat="33.8101245" lon="-118.393879">
  <ele>-25.045</ele>
  <time>2026-09-02T22:11:37Z</time>
  <course>192.82</course>
  <speed>1.0043903623591774</speed>
  <fix>3d</fix>
</trkpt>
<trkpt lat="33.8101267" lon="-118.3938785">
  <ele>-24.44</ele>
  <time>2026-09-02T22:11:37Z</time>
  <course>194.0</course>
  <speed>0.99</speed>
  <fix>3d</fix>
</trkpt>
<trkpt lat="33.8101236" lon="-118.3938792">
  <ele>-25.044</ele>
  <time>2026-09-02T22:11:37Z</time>
  <course>192.8</course>
  <speed>1.0043903623591774</speed>
  <fix>3d</fix>
</trkpt>
<trkpt lat="33.810125" lon="-118.393879">
  <ele>-24.44</ele>
  <time>2026-09-02T22:11:37Z</time>
  <course>193.98</course>
  <speed>0.99</speed>
  <fix>3d</fix>
</trkpt>
<trkpt lat="33.8101227" lon="-118.3938795">
  <ele>-25.045</ele>
  <time>2026-09-02T22:11:37Z</time>
  <course>192.8</course>
  <speed>1.0043903623591774</speed>
  <fix>3d</fix>
</trkpt>
<trkpt lat="33.810125" lon="-118.393879">
  <ele>-24.44</ele>
  <time>2026-09-02T22:11:37Z</time>
  <course>193.98</course>
  <speed>0.99</speed>
  <fix>3d</fix>
</trkpt>
<trkpt lat="33.8101219" lon="-118.3938798">
  <ele>-25.046</ele>
  <time>2026-09-02T22:11:37Z</time>
  <course>192.79</course>
  <speed>1.006628034578811</speed>
  <fix>3d</fix>
</trkpt>
<trkpt lat="33.8101233" lon="-118.3938795">
  <ele>-24.44</ele>
  <time>2026-09-02T22:11:37Z</time>
  <course>193.99</course>
  <speed>0.99</speed>
  <fix>3d</fix>
</trkpt>
<trkpt lat="33.810121" lon="-118.39388">
  <ele>-25.048</ele>
  <time>2026-09-02T22:11:37Z</time>
  <course>192.79</course>
  <speed>1.006628034578811</speed>
  <fix>3d</fix>
</trkpt>
<trkpt lat="33.8101233" lon="-118.3938795">
  <ele>-24.44</ele>
  <time>2026-09-02T22:11:37Z</time>
  <course>193.99</course>
  <speed>0.99</speed>
  <fix>3d</fix>
</trkpt>
<trkpt lat="33.8101201" lon="-118.3938803">
  <ele>-25.049</ele>
  <time>2026-09-02T22:11:37Z</time>
  <course>192.8</course>
  <speed>1.006628034578811</speed>
  <fix>3d</fix>
</trkpt>
<trkpt lat="33.8101215" lon="-118.3938801">
  <ele>-24.44</ele>
  <time>2026-09-02T22:11:37Z</time>
  <course>194.0</course>
  <speed>0.99</speed>
  <fix>3d</fix>
</trkpt>
<trkpt lat="33.8101192" lon="-118.3938805">
  <ele>-25.049</ele>
  <time>2026-09-02T22:11:37Z</time>
  <course>192.81</course>
  <speed>1.0043903623591774</speed>
  <fix>3d</fix>
</trkpt>
<trkpt lat="33.8101215" lon="-118.3938801">
  <ele>-24.44</ele>
  <time>2026-09-02T22:11:37Z</time>
  <course>194.0</course>
  <speed>0.99</speed>
  <fix>3d</fix>
</trkpt>
<trkpt lat="33.8101184" lon="-118.3938808">
  <ele>-25.048</ele>
  <time>2026-09-02T22:11:37Z</time>
  <course>192.81</course>
  <speed>1.006628034578811</speed>
  <fix>3d</fix>
</trkpt>
<trkpt lat="33.8101198" lon="-118.3938806">
  <ele>-24.44</ele>
  <time>2026-09-02T22:11:37Z</time>
  <course>194.0</course>
  <speed>0.99</speed>
  <fix>3d</fix>
</trkpt>
<trkpt lat="33.8101175" lon="-118.3938811">
  <ele>-25.046</ele>
  <time>2026-09-02T22:11:37Z</time>
  <course>192.8</course>
  <speed>1.0043903623591774</speed>
  <fix>3d</fix>
</trkpt>
<trkpt lat="33.8101198" lon="-118.3938806">
  <ele>-24.44</ele>
  <time>2026-09-02T22:11:37Z</time>
  <course>194.0</course>
  <speed>0.99</speed>
  <fix>3d</fix>
</trkpt>
<trkpt lat="33.8101166" lon="-118.3938813">
  <ele>-25.044</ele>
  <time>2026-09-02T22:11:37Z</time>
  <course>192.78</course>
  <speed>1.0043903623591774</speed>
  <fix>3d</fix>
</trkpt>
<trkpt lat="33.810118" lon="-118.3938811">
  <ele>-24.44</ele>
  <time>2026-09-02T22:11:37Z</time>
  <course>193.98</course>
  <speed>0.99</speed>
  <fix>3d</fix>
</trkpt>
<trkpt lat="33.8101158" lon="-118.3938816">
  <ele>-25.043</ele>
  <time>2026-09-02T22:11:37Z</time>
  <course>192.76</course>
  <speed>1.0043903623591774</speed>
  <fix>3d</fix>
</trkpt>
<trkpt lat="33.810118" lon="-118.3938811">
  <ele>-24.44</ele>
  <time>2026-09-02T22:11:37Z</time>
  <course>193.98</course>
  <speed>0.99</speed>
  <fix>3d</fix>
</trkpt>
<trkpt lat="33.8101149" lon="-118.3938819">
  <ele>-25.041</ele>
  <time>2026-09-02T22:11:37Z</time>
  <course>192.77</course>
  <speed>1.0043903623591774</speed>
  <fix>3d</fix>
</trkpt>
<trkpt lat="33.8101163" lon="-118.3938816">
  <ele>-24.43</ele>
  <time>2026-09-02T22:11:37Z</time>
  <course>193.97</course>
  <speed>0.99</speed>
  <fix>3d</fix>
</trkpt>
<trkpt lat="33.810114" lon="-118.3938821">
  <ele>-25.039</ele>
  <time>2026-09-02T22:11:37Z</time>
  <course>192.78</course>
  <speed>1.0043903623591774</speed>
  <fix>3d</fix>
</trkpt>
<trkpt lat="33.8101163" lon="-118.3938816">
  <ele>-24.43</ele>
  <time>2026-09-02T22:11:37Z</time>
  <course>193.97</course>
  <speed>0.99</speed>
  <fix>3d</fix>
</trkpt>
<trkpt lat="33.8101131" lon="-118.3938824">
  <ele>-25.04</ele>
  <time>2026-09-02T22:11:37Z</time>
  <course>192.79</course>
  <speed>1.006628034578811</speed>
  <fix>3d</fix>
</trkpt>
<trkpt lat="33.8101146" lon="-118.3938821">
  <ele>-24.43</ele>
  <time>2026-09-02T22:11:37Z</time>
  <course>193.99</course>
  <speed>0.99</speed>
  <fix>3d</fix>
</trkpt>
<trkpt lat="33.8101123" lon="-118.3938826">
  <ele>-25.041</ele>
  <time>2026-09-02T22:11:37Z</time>
  <course>192.8</course>
  <speed>1.006628034578811</speed>
  <fix>3d</fix>
</trkpt>
<trkpt lat="33.8101146" lon="-118.3938821">
  <ele>-24.43</ele>
  <time>2026-09-02T22:11:37Z</time>
  <course>193.99</course>
  <speed>0.99</speed>
  <fix>3d</fix>
</trkpt>
<trkpt lat="33.8101114" lon="-118.3938829">
  <ele>-25.044</ele>
  <time>2026-09-02T22:11:37Z</time>
  <course>192.81</course>
  <speed>1.006628034578811</speed>
  <fix>3d</fix>
</trkpt>
<trkpt lat="33.8101128" lon="-118.3938827">
  <ele>-24.44</ele>
  <time>2026-09-02T22:11:37Z</time>
  <course>194.02</course>
  <speed>0.99</speed>
  <fix>3d</fix>
</trkpt>
<trkpt lat="33.8101105" lon="-118.3938832">
  <ele>-25.047</ele>
  <time>2026-09-02T22:11:38Z</time>
  <course>192.84</course>
  <speed>1.016366075781753</speed>
  <fix>3d</fix>
</trkpt>
<trkpt lat="33.8101128" lon="-118.3938827">
  <ele>-24.44</ele>
  <time>2026-09-02T22:11:38Z</time>
  <course>194.02</course>
  <speed>0.99</speed>
  <fix>3d</fix>
</trkpt>
<trkpt lat="33.8101097" lon="-118.3938834">
  <ele>-25.048</ele>
  <time>2026-09-02T22:11:38Z</time>
  <course>192.84</course>
  <speed>1.0141498903022177</speed>
  <fix>3d</fix>
</trkpt>
<trkpt lat="33.8101111" lon="-118.3938832">
  <ele>-24.44</ele>
  <time>2026-09-02T22:11:38Z</time>
  <course>194.01</course>
  <speed>0.99</speed>
  <fix>3d</fix>
</trkpt>
<trkpt lat="33.8101088" lon="-118.3938837">
  <ele>-25.048</ele>
  <time>2026-09-02T22:11:38Z</time>
  <course>192.83</course>
  <speed>1.0141498903022177</speed>
  <fix>3d</fix>
</trkpt>
<trkpt lat="33.8101111" lon="-118.3938832">
  <ele>-24.44</ele>
  <time>2026-09-02T22:11:38Z</time>
  <course>194.01</course>
  <speed>0.99</speed>
  <fix>3d</fix>
</trkpt>
<trkpt lat="33.8101079" lon="-118.3938839">
  <ele>-25.047</ele>
  <time>2026-09-02T22:11:38Z</time>
  <course>192.82</course>
  <speed>1.0141498903022177</speed>
  <fix>3d</fix>
</trkpt>
<trkpt lat="33.8101094" lon="-118.3938837">
  <ele>-24.44</ele>
  <time>2026-09-02T22:11:38Z</time>
  <course>193.99</course>
  <speed>0.99</speed>
  <fix>3d</fix>
</trkpt>
<trkpt lat="33.810107" lon="-118.3938842">
  <ele>-25.046</ele>
  <time>2026-09-02T22:11:38Z</time>
  <course>192.81</course>
  <speed>1.0141498903022177</speed>
  <fix>3d</fix>
</trkpt>
<trkpt lat="33.8101094" lon="-118.3938837">
  <ele>-24.44</ele>
  <time>2026-09-02T22:11:38Z</time>
  <course>193.99</course>
  <speed>0.99</speed>
  <fix>3d</fix>
</trkpt>
<trkpt lat="33.8101062" lon="-118.3938845">
  <ele>-25.044</ele>
  <time>2026-09-02T22:11:38Z</time>
  <course>192.81</course>
  <speed>1.0141498903022177</speed>
  <fix>3d</fix>
</trkpt>
<trkpt lat="33.8101076" lon="-118.3938842">
  <ele>-24.44</ele>
  <time>2026-09-02T22:11:38Z</time>
  <course>193.97</course>
  <speed>1.0</speed>
  <fix>3d</fix>
</trkpt>
<trkpt lat="33.8101053" lon="-118.3938847">
  <ele>-25.042</ele>
  <time>2026-09-02T22:11:38Z</time>
  <course>192.81</course>
  <speed>1.0141498903022177</speed>
  <fix>3d</fix>
</trkpt>
<trkpt lat="33.8101076" lon="-118.3938842">
  <ele>-24.44</ele>
  <time>2026-09-02T22:11:38Z</time>
  <course>193.97</course>
  <speed>1.0</speed>
  <fix>3d</fix>
</trkpt>
<trkpt lat="33.8101044" lon="-118.393885">
  <ele>-25.041</ele>
  <time>2026-09-02T22:11:38Z</time>
  <course>192.82</course>
  <speed>1.0141498903022177</speed>
  <fix>3d</fix>
</trkpt>
<trkpt lat="33.8101058" lon="-118.3938848">
  <ele>-24.44</ele>
  <time>2026-09-02T22:11:38Z</time>
  <course>193.99</course>
  <speed>1.0</speed>
  <fix>3d</fix>
</trkpt>
<trkpt lat="33.8101035" lon="-118.3938852">
  <ele>-25.042</ele>
  <time>2026-09-02T22:11:38Z</time>
  <course>192.83</course>
  <speed>1.0141498903022177</speed>
  <fix>3d</fix>
</trkpt>
<trkpt lat="33.8101058" lon="-118.3938848">
  <ele>-24.44</ele>
  <time>2026-09-02T22:11:38Z</time>
  <course>193.99</course>
  <speed>1.0</speed>
  <fix>3d</fix>
</trkpt>
<trkpt lat="33.8101027" lon="-118.3938855">
  <ele>-25.044</ele>
  <time>2026-09-02T22:11:38Z</time>
  <course>192.83</course>
  <speed>1.0043903623591774</speed>
  <fix>3d</fix>
</trkpt>
<trkpt lat="33.8101041" lon="-118.3938853">
  <ele>-24.44</ele>
  <time>2026-09-02T22:11:38Z</time>
  <course>193.99</course>
  <speed>1.0</speed>
  <fix>3d</fix>
</trkpt>
<trkpt lat="33.8101018" lon="-118.3938858">
  <ele>-25.046</ele>
  <time>2026-09-02T22:11:38Z</time>
  <course>192.83</course>
  <speed>1.0141498903022177</speed>
  <fix>3d</fix>
</trkpt>
<trkpt lat="33.8101041" lon="-118.3938853">
  <ele>-24.44</ele>
  <time>2026-09-02T22:11:38Z</time>
  <course>193.99</course>
  <speed>1.0</speed>
  <fix>3d</fix>
</trkpt>
<trkpt lat="33.8101009" lon="-118.393886">
  <ele>-25.048</ele>
  <time>2026-09-02T22:11:38Z</time>
  <course>192.82</course>
  <speed>1.0141498903022177</speed>
  <fix>3d</fix>
</trkpt>
<trkpt lat="33.8101024" lon="-118.3938858">
  <ele>-24.44</ele>
  <time>2026-09-02T22:11:38Z</time>
  <course>193.97</course>
  <speed>0.99</speed>
  <fix>3d</fix>
</trkpt>
<trkpt lat="33.8101001" lon="-118.3938863">
  <ele>-25.049</ele>
  <time>2026-09-02T22:11:38Z</time>
  <course>192.81</course>
  <speed>1.0141498903022177</speed>
  <fix>3d</fix>
</trkpt>
<trkpt lat="33.8101024" lon="-118.3938858">
  <ele>-24.44</ele>
  <time>2026-09-02T22:11:38Z</time>
  <course>193.97</course>
  <speed>0.99</speed>
  <fix>3d</fix>
</trkpt>
<trkpt lat="33.8100992" lon="-118.3938865">
  <ele>-25.051</ele>
  <time>2026-09-02T22:11:38Z</time>
  <course>192.81</course>
  <speed>1.0141498903022177</speed>
  <fix>3d</fix>
</trkpt>
<trkpt lat="33.8101006" lon="-118.3938863">
  <ele>-24.45</ele>
  <time>2026-09-02T22:11:38Z</time>
  <course>193.95</course>
  <speed>0.99</speed>
  <fix>3d</fix>
</trkpt>
<trkpt lat="33.8100983" lon="-118.3938868">
  <ele>-25.053</ele>
  <time>2026-09-02T22:11:38Z</time>
  <course>192.81</course>
  <speed>1.0141498903022177</speed>
  <fix>3d</fix>
</trkpt>
<trkpt lat="33.8101006" lon="-118.3938863">
  <ele>-24.45</ele>
  <time>2026-09-02T22:11:38Z</time>
  <course>193.95</course>
  <speed>0.99</speed>
  <fix>3d</fix>
</trkpt>
<trkpt lat="33.8100974" lon="-118.3938871">
  <ele>-25.053</ele>
  <time>2026-09-02T22:11:38Z</time>
  <course>192.82</course>
  <speed>1.0141498903022177</speed>
  <fix>3d</fix>
</trkpt>
<trkpt lat="33.8100989" lon="-118.3938868">
  <ele>-24.45</ele>
  <time>2026-09-02T22:11:38Z</time>
  <course>193.97</course>
  <speed>0.99</speed>
  <fix>3d</fix>
</trkpt>
<trkpt lat="33.8100966" lon="-118.3938873">
  <ele>-25.053</ele>
  <time>2026-09-02T22:11:38Z</time>
  <course>192.83</course>
  <speed>1.0141498903022177</speed>
  <fix>3d</fix>
</trkpt>
<trkpt lat="33.8100989" lon="-118.3938868">
  <ele>-24.45</ele>
  <time>2026-09-02T22:11:38Z</time>
  <course>193.97</course>
  <speed>0.99</speed>
  <fix>3d</fix>
</trkpt>
<trkpt lat="33.8100957" lon="-118.3938876">
  <ele>-25.052</ele>
  <time>2026-09-02T22:11:38Z</time>
  <course>192.86</course>
  <speed>1.016366075781753</speed>
  <fix>3d</fix>
</trkpt>
<trkpt lat="33.8100971" lon="-118.3938874">
  <ele>-24.44</ele>
  <time>2026-09-02T22:11:38Z</time>
  <course>194.0</course>
  <speed>0.99</speed>
  <fix>3d</fix>
</trkpt>
<trkpt lat="33.8100948" lon="-118.3938879">
  <ele>-25.051</ele>
  <time>2026-09-02T22:11:38Z</time>
  <course>192.87</course>
  <speed>1.0141498903022177</speed>
  <fix>3d</fix>
</trkpt>
<trkpt lat="33.8100971" lon="-118.3938874">
  <ele>-24.44</ele>
  <time>2026-09-02T22:11:38Z</time>
  <course>194.0</course>
  <speed>0.99</speed>
  <fix>3d</fix>
</trkpt>
<trkpt lat="33.8100939" lon="-118.3938881">
  <ele>-25.048</ele>
  <time>2026-09-02T22:11:38Z</time>
  <course>192.87</course>
  <speed>1.0141498903022177</speed>
  <fix>3d</fix>
</trkpt>
<trkpt lat="33.8100954" lon="-118.3938879">
  <ele>-24.44</ele>
  <time>2026-09-02T22:11:38Z</time>
  <course>194.02</course>
  <speed>0.99</speed>
  <fix>3d</fix>
</trkpt>
<trkpt lat="33.8100931" lon="-118.3938884">
  <ele>-25.045</ele>
  <time>2026-09-02T22:11:38Z</time>
  <course>192.88</course>
  <speed>1.0141498903022177</speed>
  <fix>3d</fix>
</trkpt>
<trkpt lat="33.8100954" lon="-118.3938879">
  <ele>-24.44</ele>
  <time>2026-09-02T22:11:38Z</time>
  <course>194.02</course>
  <speed>0.99</speed>
  <fix>3d</fix>
</trkpt>
<trkpt lat="33.8100922" lon="-118.3938886">
  <ele>-25.044</ele>
  <time>2026-09-02T22:11:38Z</time>
  <course>192.86</course>
  <speed>1.0141498903022177</speed>
  <fix>3d</fix>
</trkpt>
<trkpt lat="33.8100936" lon="-118.3938884">
  <ele>-24.43</ele>
  <time>2026-09-02T22:11:38Z</time>
  <course>194.0</course>
  <speed>0.99</speed>
  <fix>3d</fix>
</trkpt>
<trkpt lat="33.8100913" lon="-118.3938889">
  <ele>-25.042</ele>
  <time>2026-09-02T22:11:38Z</time>
  <course>192.85</course>
  <speed>1.0141498903022177</speed>
  <fix>3d</fix>
</trkpt>
<trkpt lat="33.8100936" lon="-118.3938884">
  <ele>-24.43</ele>
  <time>2026-09-02T22:11:38Z</time>
  <course>194.0</course>
  <speed>0.99</speed>
  <fix>3d</fix>
</trkpt>
<trkpt lat="33.8100904" lon="-118.3938892">
  <ele>-25.041</ele>
  <time>2026-09-02T22:11:38Z</time>
  <course>192.85</course>
  <speed>1.0141498903022177</speed>
  <fix>3d</fix>
</trkpt>
<trkpt lat="33.8100919" lon="-118.3938889">
  <ele>-24.43</ele>
  <time>2026-09-02T22:11:38Z</time>
  <course>193.98</course>
  <speed>0.99</speed>
  <fix>3d</fix>
</trkpt>
<trkpt lat="33.8100896" lon="-118.3938894">
  <ele>-25.04</ele>
  <time>2026-09-02T22:11:38Z</time>
  <course>192.86</course>
  <speed>1.0141498903022177</speed>
  <fix>3d</fix>
</trkpt>
<trkpt lat="33.8100919" lon="-118.3938889">
  <ele>-24.43</ele>
  <time>2026-09-02T22:11:38Z</time>
  <course>193.98</course>
  <speed>0.99</speed>
  <fix>3d</fix>
</trkpt>
<trkpt lat="33.8100887" lon="-118.3938897">
  <ele>-25.039</ele>
  <time>2026-09-02T22:11:38Z</time>
  <course>192.87</course>
  <speed>1.0043903623591774</speed>
  <fix>3d</fix>
</trkpt>
<trkpt lat="33.8100902" lon="-118.3938895">
  <ele>-24.43</ele>
  <time>2026-09-02T22:11:38Z</time>
  <course>194.0</course>
  <speed>0.99</speed>
  <fix>3d</fix>
</trkpt>
<trkpt lat="33.8100878" lon="-118.3938899">
  <ele>-25.039</ele>
  <time>2026-09-02T22:11:38Z</time>
  <course>192.88</course>
  <speed>1.0141498903022177</speed>
  <fix>3d</fix>
</trkpt>
<trkpt lat="33.8100902" lon="-118.3938895">
  <ele>-24.43</ele>
  <time>2026-09-02T22:11:38Z</time>
  <course>194.0</course>
  <speed>0.99</speed>
  <fix>3d</fix>
</trkpt>
<trkpt lat="33.810087" lon="-118.3938902">
  <ele>-25.041</ele>
  <time>2026-09-02T22:11:38Z</time>
  <course>192.87</course>
  <speed>1.0141498903022177</speed>
  <fix>3d</fix>
</trkpt>
<trkpt lat="33.8100884" lon="-118.39389">
  <ele>-24.43</ele>
  <time>2026-09-02T22:11:38Z</time>
  <course>193.98</course>
  <speed>0.99</speed>
  <fix>3d</fix>
</trkpt>
<trkpt lat="33.8100861" lon="-118.3938905">
  <ele>-25.042</ele>
  <time>2026-09-02T22:11:38Z</time>
  <course>192.85</course>
  <speed>1.0141498903022177</speed>
  <fix>3d</fix>
</trkpt>
<trkpt lat="33.8100884" lon="-118.39389">
  <ele>-24.43</ele>
  <time>2026-09-02T22:11:38Z</time>
  <course>193.98</course>
  <speed>0.99</speed>
  <fix>3d</fix>
</trkpt>
<trkpt lat="33.8100852" lon="-118.3938907">
  <ele>-25.042</ele>
  <time>2026-09-02T22:11:38Z</time>
  <course>192.83</course>
  <speed>1.0141498903022177</speed>
  <fix>3d</fix>
</trkpt>
<trkpt lat="33.8100867" lon="-118.3938905">
  <ele>-24.43</ele>
  <time>2026-09-02T22:11:38Z</time>
  <course>193.94</course>
  <speed>0.99</speed>
  <fix>3d</fix>
</trkpt>
<trkpt lat="33.8100843" lon="-118.393891">
  <ele>-25.043</ele>
  <time>2026-09-02T22:11:38Z</time>
  <course>192.82</course>
  <speed>1.0141498903022177</speed>
  <fix>3d</fix>
</trkpt>
<trkpt lat="33.8100867" lon="-118.3938905">
  <ele>-24.43</ele>
  <time>2026-09-02T22:11:38Z</time>
  <course>193.94</course>
  <speed>0.99</speed>
  <fix>3d</fix>
</trkpt>
<trkpt lat="33.8100835" lon="-118.3938912">
  <ele>-25.043</ele>
  <time>2026-09-02T22:11:38Z</time>
  <course>192.82</course>
  <speed>1.0141498903022177</speed>
  <fix>3d</fix>
</trkpt>
<trkpt lat="33.810085" lon="-118.393891">
  <ele>-24.43</ele>
  <time>2026-09-02T22:11:38Z</time>
  <course>193.93</course>
  <speed>0.99</speed>
  <fix>3d</fix>
</trkpt>
<trkpt lat="33.8100826" lon="-118.3938915">
  <ele>-25.043</ele>
  <time>2026-09-02T22:11:38Z</time>
  <course>192.82</course>
  <speed>1.0141498903022177</speed>
  <fix>3d</fix>
</trkpt>
<trkpt lat="33.810085" lon="-118.393891">
  <ele>-24.43</ele>
  <time>2026-09-02T22:11:38Z</time>
  <course>193.93</course>
  <speed>0.99</speed>
  <fix>3d</fix>
</trkpt>
<trkpt lat="33.8100817" lon="-118.3938918">
  <ele>-25.043</ele>
  <time>2026-09-02T22:11:38Z</time>
  <course>192.82</course>
  <speed>1.0141498903022177</speed>
  <fix>3d</fix>
</trkpt>
<trkpt lat="33.8100832" lon="-118.3938915">
  <ele>-24.44</ele>
  <time>2026-09-02T22:11:38Z</time>
  <course>193.93</course>
  <speed>1.0</speed>
  <fix>3d</fix>
</trkpt>
<trkpt lat="33.8100809" lon="-118.393892">
  <ele>-25.044</ele>
  <time>2026-09-02T22:11:38Z</time>
  <course>192.83</course>
  <speed>1.0141498903022177</speed>
  <fix>3d</fix>
</trkpt>
<trkpt lat="33.8100832" lon="-118.3938915">
  <ele>-24.44</ele>
  <time>2026-09-02T22:11:38Z</time>
  <course>193.93</course>
  <speed>1.0</speed>
  <fix>3d</fix>
</trkpt>
<trkpt lat="33.81008" lon="-118.3938923">
  <ele>-25.044</ele>
  <time>2026-09-02T22:11:38Z</time>
  <course>192.85</course>
  <speed>1.016366075781753</speed>
  <fix>3d</fix>
</trkpt>
<trkpt lat="33.8100814" lon="-118.393892">
  <ele>-24.44</ele>
  <time>2026-09-02T22:11:38Z</time>
  <course>193.96</course>
  <speed>1.0</speed>
  <fix>3d</fix>
</trkpt>
<trkpt lat="33.8100791" lon="-118.3938925">
  <ele>-25.044</ele>
  <time>2026-09-02T22:11:38Z</time>
  <course>192.87</course>
  <speed>1.016366075781753</speed>
  <fix>3d</fix>
</trkpt>
<trkpt lat="33.8100814" lon="-118.393892">
  <ele>-24.44</ele>
  <time>2026-09-02T22:11:38Z</time>
  <course>193.96</course>
  <speed>1.0</speed>
  <fix>3d</fix>
</trkpt>
<trkpt lat="33.8100782" lon="-118.3938928">
  <ele>-25.044</ele>
  <time>2026-09-02T22:11:38Z</time>
  <course>192.9</course>
  <speed>1.016366075781753</speed>
  <fix>3d</fix>
</trkpt>
<trkpt lat="33.8100797" lon="-118.3938926">
  <ele>-24.44</ele>
  <time>2026-09-02T22:11:38Z</time>
  <course>194.01</course>
  <speed>1.0</speed>
  <fix>3d</fix>
</trkpt>
<trkpt lat="33.8100774" lon="-118.3938931">
  <ele>-25.045</ele>
  <time>2026-09-02T22:11:38Z</time>
  <course>192.92</course>
  <speed>1.016366075781753</speed>
  <fix>3d</fix>
</trkpt>
<trkpt lat="33.8100797" lon="-118.3938926">
  <ele>-24.44</ele>
  <time>2026-09-02T22:11:38Z</time>
  <course>194.01</course>
  <speed>1.0</speed>
  <fix>3d</fix>
</trkpt>
<trkpt lat="33.8100765" lon="-118.3938933">
  <ele>-25.046</ele>
  <time>2026-09-02T22:11:38Z</time>
  <course>192.94</course>
  <speed>1.016366075781753</speed>
  <fix>3d</fix>
</trkpt>
<trkpt lat="33.810078" lon="-118.3938931">
  <ele>-24.44</ele>
  <time>2026-09-02T22:11:38Z</time>
  <course>194.04</course>
  <speed>1.0</speed>
  <fix>3d</fix>
</trkpt>
<trkpt lat="33.8100756" lon="-118.3938936">
  <ele>-25.047</ele>
  <time>2026-09-02T22:11:38Z</time>
  <course>192.94</course>
  <speed>1.0141498903022177</speed>
  <fix>3d</fix>
</trkpt>
<trkpt lat="33.810078" lon="-118.3938931">
  <ele>-24.44</ele>
  <time>2026-09-02T22:11:38Z</time>
  <course>194.04</course>
  <speed>1.0</speed>
  <fix>3d</fix>
</trkpt>
<trkpt lat="33.8100747" lon="-118.3938939">
  <ele>-25.048</ele>
  <time>2026-09-02T22:11:38Z</time>
  <course>192.93</course>
  <speed>1.016366075781753</speed>
  <fix>3d</fix>
</trkpt>
<trkpt lat="33.8100762" lon="-118.3938936">
  <ele>-24.44</ele>
  <time>2026-09-02T22:11:38Z</time>
  <course>194.03</course>
  <speed>1.0</speed>
  <fix>3d</fix>
</trkpt>
<trkpt lat="33.8100739" lon="-118.3938941">
  <ele>-25.048</ele>
  <time>2026-09-02T22:11:38Z</time>
  <course>192.93</course>
  <speed>1.016366075781753</speed>
  <fix>3d</fix>
</trkpt>
<trkpt lat="33.8100762" lon="-118.3938936">
  <ele>-24.44</ele>
  <time>2026-09-02T22:11:38Z</time>
  <course>194.03</course>
  <speed>1.0</speed>
  <fix>3d</fix>
</trkpt>
<trkpt lat="33.810073" lon="-118.3938944">
  <ele>-25.048</ele>
  <time>2026-09-02T22:11:38Z</time>
  <course>192.93</course>
  <speed>1.016366075781753</speed>
  <fix>3d</fix>
</trkpt>
<trkpt lat="33.8100745" lon="-118.3938942">
  <ele>-24.44</ele>
  <time>2026-09-02T22:11:38Z</time>
  <course>194.02</course>
  <speed>1.0</speed>
  <fix>3d</fix>
</trkpt>
<trkpt lat="33.8100721" lon="-118.3938946">
  <ele>-25.048</ele>
  <time>2026-09-02T22:11:38Z</time>
  <course>192.92</course>
  <speed>1.0141498903022177</speed>
  <fix>3d</fix>
</trkpt>
<trkpt lat="33.8100745" lon="-118.3938942">
  <ele>-24.44</ele>
  <time>2026-09-02T22:11:38Z</time>
  <course>194.02</course>
  <speed>1.0</speed>
  <fix>3d</fix>
</trkpt>
<trkpt lat="33.8100713" lon="-118.3938949">
  <ele>-25.047</ele>
  <time>2026-09-02T22:11:38Z</time>
  <course>192.91</course>
  <speed>1.0141498903022177</speed>
  <fix>3d</fix>
</trkpt>
<trkpt lat="33.8100727" lon="-118.3938947">
  <ele>-24.43</ele>
  <time>2026-09-02T22:11:38Z</time>
  <course>194.0</course>
  <speed>1.0</speed>
  <fix>3d</fix>
</trkpt>
<trkpt lat="33.8100704" lon="-118.3938952">
  <ele>-25.046</ele>
  <time>2026-09-02T22:11:38Z</time>
  <course>192.89</course>
  <speed>1.0141498903022177</speed>
  <fix>3d</fix>
</trkpt>
<trkpt lat="33.8100727" lon="-118.3938947">
  <ele>-24.43</ele>
  <time>2026-09-02T22:11:38Z</time>
  <course>194.0</course>
  <speed>1.0</speed>
  <fix>3d</fix>
</trkpt>
<trkpt lat="33.8100695" lon="-118.3938954">
  <ele>-25.044</ele>
  <time>2026-09-02T22:11:38Z</time>
  <course>192.87</course>
  <speed>1.0141498903022177</speed>
  <fix>3d</fix>
</trkpt>
<trkpt lat="33.8100709" lon="-118.3938952">
  <ele>-24.43</ele>
  <time>2026-09-02T22:11:38Z</time>
  <course>193.97</course>
  <speed>1.0</speed>
  <fix>3d</fix>
</trkpt>
<trkpt lat="33.8100686" lon="-118.3938957">
  <ele>-25.043</ele>
  <time>2026-09-02T22:11:38Z</time>
  <course>192.85</course>
  <speed>1.0141498903022177</speed>
  <fix>3d</fix>
</trkpt>
<trkpt lat="33.8100709" lon="-118.3938952">
  <ele>-24.43</ele>
  <time>2026-09-02T22:11:38Z</time>
  <course>193.97</course>
  <speed>1.0</speed>
  <fix>3d</fix>
</trkpt>
<trkpt lat="33.8100678" lon="-118.3938959">
  <ele>-25.042</ele>
  <time>2026-09-02T22:11:38Z</time>
  <course>192.85</course>
  <speed>1.0141498903022177</speed>
  <fix>3d</fix>
</trkpt>
<trkpt lat="33.8100692" lon="-118.3938957">
  <ele>-24.43</ele>
  <time>2026-09-02T22:11:38Z</time>
  <course>193.96</course>
  <speed>1.0</speed>
  <fix>3d</fix>
</trkpt>
<trkpt lat="33.8100669" lon="-118.3938962">
  <ele>-25.041</ele>
  <time>2026-09-02T22:11:38Z</time>
  <course>192.86</course>
  <speed>1.0141498903022177</speed>
  <fix>3d</fix>
</trkpt>
<trkpt lat="33.8100692" lon="-118.3938957">
  <ele>-24.43</ele>
  <time>2026-09-02T22:11:38Z</time>
  <course>193.96</course>
  <speed>1.0</speed>
  <fix>3d</fix>
</trkpt>
<trkpt lat="33.810066" lon="-118.3938965">
  <ele>-25.04</ele>
  <time>2026-09-02T22:11:38Z</time>
  <course>192.87</course>
  <speed>1.0141498903022177</speed>
  <fix>3d</fix>
</trkpt>
<trkpt lat="33.8100675" lon="-118.3938963">
  <ele>-24.43</ele>
  <time>2026-09-02T22:11:38Z</time>
  <course>193.99</course>
  <speed>0.99</speed>
  <fix>3d</fix>
</trkpt>
<trkpt lat="33.8100651" lon="-118.3938967">
  <ele>-25.041</ele>
  <time>2026-09-02T22:11:38Z</time>
  <course>192.88</course>
  <speed>1.0141498903022177</speed>
  <fix>3d</fix>
</trkpt>
<trkpt lat="33.8100675" lon="-118.3938963">
  <ele>-24.43</ele>
  <time>2026-09-02T22:11:38Z</time>
  <course>193.99</course>
  <speed>0.99</speed>
  <fix>3d</fix>
</trkpt>
<trkpt lat="33.8100643" lon="-118.393897">
  <ele>-25.042</ele>
  <time>2026-09-02T22:11:38Z</time>
  <course>192.87</course>
  <speed>1.0141498903022177</speed>
  <fix>3d</fix>
</trkpt>
<trkpt lat="33.8100657" lon="-118.3938968">
  <ele>-24.43</ele>
  <time>2026-09-02T22:11:38Z</time>
  <course>193.98</course>
  <speed>0.99</speed>
  <fix>3d</fix>
</trkpt>
<trkpt lat="33.8100634" lon="-118.3938973">
  <ele>-25.043</ele>
  <time>2026-09-02T22:11:38Z</time>
  <course>192.86</course>
  <speed>1.0141498903022177</speed>
  <fix>3d</fix>
</trkpt>
<trkpt lat="33.8100657" lon="-118.3938968">
  <ele>-24.43</ele>
  <time>2026-09-02T22:11:38Z</time>
  <course>193.98</course>
  <speed>0.99</speed>
  <fix>3d</fix>
</trkpt>
<trkpt lat="33.8100625" lon="-118.3938975">
  <ele>-25.042</ele>
  <time>2026-09-02T22:11:38Z</time>
  <course>192.84</course>
  <speed>1.0141498903022177</speed>
  <fix>3d</fix>
</trkpt>
<trkpt lat="33.810064" lon="-118.3938973">
  <ele>-24.43</ele>
  <time>2026-09-02T22:11:38Z</time>
  <course>193.95</course>
  <speed>0.99</speed>
  <fix>3d</fix>
</trkpt>
<trkpt lat="33.8100616" lon="-118.3938978">
  <ele>-25.042</ele>
  <time>2026-09-02T22:11:38Z</time>
  <course>192.84</course>
  <speed>1.0141498903022177</speed>
  <fix>3d</fix>
</trkpt>
<trkpt lat="33.810064" lon="-118.3938973">
  <ele>-24.43</ele>
  <time>2026-09-02T22:11:38Z</time>
  <course>193.95</course>
  <speed>0.99</speed>
  <fix>3d</fix>
</trkpt>
<trkpt lat="33.8100608" lon="-118.393898">
  <ele>-25.041</ele>
  <time>2026-09-02T22:11:38Z</time>
  <course>192.83</course>
  <speed>1.0141498903022177</speed>
  <fix>3d</fix>
</trkpt>
<trkpt lat="33.8100623" lon="-118.3938978">
  <ele>-24.43</ele>
  <time>2026-09-02T22:11:38Z</time>
  <course>193.94</course>
  <speed>1.0</speed>
  <fix>3d</fix>
</trkpt>
<trkpt lat="33.8100599" lon="-118.3938983">
  <ele>-25.039</ele>
  <time>2026-09-02T22:11:38Z</time>
  <course>192.83</course>
  <speed>1.0141498903022177</speed>
  <fix>3d</fix>
</trkpt>
<trkpt lat="33.8100623" lon="-118.3938978">
  <ele>-24.43</ele>
  <time>2026-09-02T22:11:38Z</time>
  <course>193.94</course>
  <speed>1.0</speed>
  <fix>3d</fix>
</trkpt>
<trkpt lat="33.810059" lon="-118.3938986">
  <ele>-25.038</ele>
  <time>2026-09-02T22:11:38Z</time>
  <course>192.83</course>
  <speed>1.0141498903022177</speed>
  <fix>3d</fix>
</trkpt>
<trkpt lat="33.8100605" lon="-118.3938983">
  <ele>-24.43</ele>
  <time>2026-09-02T22:11:38Z</time>
  <course>193.94</course>
  <speed>1.0</speed>
  <fix>3d</fix>
</trkpt>
<trkpt lat="33.8100582" lon="-118.3938988">
  <ele>-25.038</ele>
  <time>2026-09-02T22:11:38Z</time>
  <course>192.84</course>
  <speed>1.0141498903022177</speed>
  <fix>3d</fix>
</trkpt>
<trkpt lat="33.8100605" lon="-118.3938983">
  <ele>-24.43</ele>
  <time>2026-09-02T22:11:38Z</time>
  <course>193.94</course>
  <speed>1.0</speed>
  <fix>3d</fix>
</trkpt>
<trkpt lat="33.8100573" lon="-118.3938991">
  <ele>-25.038</ele>
  <time>2026-09-02T22:11:38Z</time>
  <course>192.85</course>
  <speed>1.016366075781753</speed>
  <fix>3d</fix>
</trkpt>
<trkpt lat="33.8100587" lon="-118.3938989">
  <ele>-24.43</ele>
  <time>2026-09-02T22:11:38Z</time>
  <course>193.96</course>
  <speed>1.0</speed>
  <fix>3d</fix>
</trkpt>
<trkpt lat="33.8100564" lon="-118.3938993">
  <ele>-25.038</ele>
  <time>2026-09-02T22:11:38Z</time>
  <course>192.86</course>
  <speed>1.0141498903022177</speed>
  <fix>3d</fix>
</trkpt>
<trkpt lat="33.8100587" lon="-118.3938989">
  <ele>-24.43</ele>
  <time>2026-09-02T22:11:38Z</time>
  <course>193.96</course>
  <speed>1.0</speed>
  <fix>3d</fix>
</trkpt>
<trkpt lat="33.8100556" lon="-118.3938996">
  <ele>-25.039</ele>
  <time>2026-09-02T22:11:38Z</time>
  <course>192.87</course>
  <speed>1.0141498903022177</speed>
  <fix>3d</fix>
</trkpt>
<trkpt lat="33.810057" lon="-118.3938994">
  <ele>-24.43</ele>
  <time>2026-09-02T22:11:38Z</time>
  <course>193.98</course>
  <speed>1.0</speed>
  <fix>3d</fix>
</trkpt>
<trkpt lat="33.8100547" lon="-118.3938999">
  <ele>-25.041</ele>
  <time>2026-09-02T22:11:38Z</time>
  <course>192.86</course>
  <speed>1.0141498903022177</speed>
  <fix>3d</fix>
</trkpt>
<trkpt lat="33.810057" lon="-118.3938994">
  <ele>-24.43</ele>
  <time>2026-09-02T22:11:38Z</time>
  <course>193.98</course>
  <speed>1.0</speed>
  <fix>3d</fix>
</trkpt>
<trkpt lat="33.8100538" lon="-118.3939001">
  <ele>-25.043</ele>
  <time>2026-09-02T22:11:38Z</time>
  <course>192.85</course>
  <speed>1.0141498903022177</speed>
  <fix>3d</fix>
</trkpt>
<trkpt lat="33.8100553" lon="-118.3938999">
  <ele>-24.44</ele>
  <time>2026-09-02T22:11:38Z</time>
  <course>193.97</course>
  <speed>1.0</speed>
  <fix>3d</fix>
</trkpt>
<trkpt lat="33.8100529" lon="-118.3939004">
  <ele>-25.045</ele>
  <time>2026-09-02T22:11:38Z</time>
  <course>192.85</course>
  <speed>1.0141498903022177</speed>
  <fix>3d</fix>
</trkpt>
<trkpt lat="33.8100553" lon="-118.3938999">
  <ele>-24.44</ele>
  <time>2026-09-02T22:11:38Z</time>
  <course>193.97</course>
  <speed>1.0</speed>
  <fix>3d</fix>
</trkpt>
<trkpt lat="33.8100521" lon="-118.3939006">
  <ele>-25.045</ele>
  <time>2026-09-02T22:11:38Z</time>
  <course>192.84</course>
  <speed>1.0141498903022177</speed>
  <fix>3d</fix>
</trkpt>
<trkpt lat="33.8100535" lon="-118.3939004">
  <ele>-24.44</ele>
  <time>2026-09-02T22:11:38Z</time>
  <course>193.96</course>
  <speed>1.0</speed>
  <fix>3d</fix>
</trkpt>
<trkpt lat="33.8100512" lon="-118.3939009">
  <ele>-25.046</ele>
  <time>2026-09-02T22:11:38Z</time>
  <course>192.84</course>
  <speed>1.0141498903022177</speed>
  <fix>3d</fix>
</trkpt>
<trkpt lat="33.8100535" lon="-118.3939004">
  <ele>-24.44</ele>
  <time>2026-09-02T22:11:38Z</time>
  <course>193.96</course>
  <speed>1.0</speed>
  <fix>3d</fix>
</trkpt>
<trkpt lat="33.8100503" lon="-118.3939012">
  <ele>-25.046</ele>
  <time>2026-09-02T22:11:38Z</time>
  <course>192.85</course>
  <speed>1.0141498903022177</speed>
  <fix>3d</fix>
</trkpt>
<trkpt lat="33.8100517" lon="-118.393901">
  <ele>-24.44</ele>
  <time>2026-09-02T22:11:38Z</time>
  <course>193.96</course>
  <speed>1.0</speed>
  <fix>3d</fix>
</trkpt>
<trkpt lat="33.8100494" lon="-118.3939014">
  <ele>-25.046</ele>
  <time>2026-09-02T22:11:38Z</time>
  <course>192.85</course>
  <speed>1.0141498903022177</speed>
  <fix>3d</fix>
</trkpt>
<trkpt lat="33.8100517" lon="-118.393901">
  <ele>-24.44</ele>
  <time>2026-09-02T22:11:38Z</time>
  <course>193.96</course>
  <speed>1.0</speed>
  <fix>3d</fix>
</trkpt>
<trkpt lat="33.8100486" lon="-118.3939017">
  <ele>-25.046</ele>
  <time>2026-09-02T22:11:38Z</time>
  <course>192.85</course>
  <speed>1.0141498903022177</speed>
  <fix>3d</fix>
</trkpt>
<trkpt lat="33.81005" lon="-118.3939015">
  <ele>-24.44</ele>
  <time>2026-09-02T22:11:38Z</time>
  <course>193.97</course>
  <speed>1.0</speed>
  <fix>3d</fix>
</trkpt>
<trkpt lat="33.8100477" lon="-118.393902">
  <ele>-25.044</ele>
  <time>2026-09-02T22:11:38Z</time>
  <course>192.84</course>
  <speed>1.0141498903022177</speed>
  <fix>3d</fix>
</trkpt>
<trkpt lat="33.81005" lon="-118.3939015">
  <ele>-24.44</ele>
  <time>2026-09-02T22:11:38Z</time>
  <course>193.97</course>
  <speed>1.0</speed>
  <fix>3d</fix>
</trkpt>
<trkpt lat="33.8100468" lon="-118.3939022">
  <ele>-25.043</ele>
  <time>2026-09-02T22:11:38Z</time>
  <course>192.84</course>
  <speed>1.0141498903022177</speed>
  <fix>3d</fix>
</trkpt>
<trkpt lat="33.8100482" lon="-118.393902">
  <ele>-24.44</ele>
  <time>2026-09-02T22:11:38Z</time>
  <course>193.95</course>
  <speed>1.0</speed>
  <fix>3d</fix>
</trkpt>
<trkpt lat="33.8100459" lon="-118.3939025">
  <ele>-25.042</ele>
  <time>2026-09-02T22:11:38Z</time>
  <course>192.83</course>
  <speed>1.0141498903022177</speed>
  <fix>3d</fix>
</trkpt>
<trkpt lat="33.8100482" lon="-118.393902">
  <ele>-24.44</ele>
  <time>2026-09-02T22:11:38Z</time>
  <course>193.95</course>
  <speed>1.0</speed>
  <fix>3d</fix>
</trkpt>
<trkpt lat="33.8100451" lon="-118.3939027">
  <ele>-25.042</ele>
  <time>2026-09-02T22:11:38Z</time>
  <course>192.84</course>
  <speed>1.0141498903022177</speed>
  <fix>3d</fix>
</trkpt>
<trkpt lat="33.8100465" lon="-118.3939026">
  <ele>-24.44</ele>
  <time>2026-09-02T22:11:38Z</time>
  <course>193.95</course>
  <speed>1.0</speed>
  <fix>3d</fix>
</trkpt>
<trkpt lat="33.8100442" lon="-118.393903">
  <ele>-25.042</ele>
  <time>2026-09-02T22:11:38Z</time>
  <course>192.84</course>
  <speed>1.0141498903022177</speed>
  <fix>3d</fix>
</trkpt>
<trkpt lat="33.8100465" lon="-118.3939026">
  <ele>-24.44</ele>
  <time>2026-09-02T22:11:38Z</time>
  <course>193.95</course>
  <speed>1.0</speed>
  <fix>3d</fix>
</trkpt>
<trkpt lat="33.8100433" lon="-118.3939033">
  <ele>-25.042</ele>
  <time>2026-09-02T22:11:38Z</time>
  <course>192.82</course>
  <speed>1.0141498903022177</speed>
  <fix>3d</fix>
</trkpt>
<trkpt lat="33.8100447" lon="-118.3939031">
  <ele>-24.44</ele>
  <time>2026-09-02T22:11:38Z</time>
  <course>193.93</course>
  <speed>1.0</speed>
  <fix>3d</fix>
</trkpt>
<trkpt lat="33.8100424" lon="-118.3939035">
  <ele>-25.044</ele>
  <time>2026-09-02T22:11:38Z</time>
  <course>192.81</course>
  <speed>1.0141498903022177</speed>
  <fix>3d</fix>
</trkpt>
<trkpt lat="33.8100447" lon="-118.3939031">
  <ele>-24.44</ele>
  <time>2026-09-02T22:11:38Z</time>
  <course>193.93</course>
  <speed>1.0</speed>
  <fix>3d</fix>
</trkpt>
<trkpt lat="33.8100416" lon="-118.3939038">
  <ele>-25.045</ele>
  <time>2026-09-02T22:11:38Z</time>
  <course>192.79</course>
  <speed>1.0141498903022177</speed>
  <fix>3d</fix>
</trkpt>
<trkpt lat="33.8100429" lon="-118.3939036">
  <ele>-24.44</ele>
  <time>2026-09-02T22:11:38Z</time>
  <course>193.9</course>
  <speed>1.0</speed>
  <fix>3d</fix>
</trkpt>
<trkpt lat="33.8100407" lon="-118.3939041">
  <ele>-25.046</ele>
  <time>2026-09-02T22:11:38Z</time>
  <course>192.78</course>
  <speed>1.0141498903022177</speed>
  <fix>3d</fix>
</trkpt>
<trkpt lat="33.8100429" lon="-118.3939036">
  <ele>-24.44</ele>
  <time>2026-09-02T22:11:38Z</time>
  <course>193.9</course>
  <speed>1.0</speed>
  <fix>3d</fix>
</trkpt>
<trkpt lat="33.8100398" lon="-118.3939043">
  <ele>-25.046</ele>
  <time>2026-09-02T22:11:38Z</time>
  <course>192.78</course>
  <speed>1.0141498903022177</speed>
  <fix>3d</fix>
</trkpt>
<trkpt lat="33.8100412" lon="-118.3939041">
  <ele>-24.44</ele>
  <time>2026-09-02T22:11:38Z</time>
  <course>193.9</course>
  <speed>1.0</speed>
  <fix>3d</fix>
</trkpt>
<trkpt lat="33.8100389" lon="-118.3939046">
  <ele>-25.046</ele>
  <time>2026-09-02T22:11:38Z</time>
  <course>192.79</course>
  <speed>1.0141498903022177</speed>
  <fix>3d</fix>
</trkpt>
<trkpt lat="33.8100412" lon="-118.3939041">
  <ele>-24.44</ele>
  <time>2026-09-02T22:11:38Z</time>
  <course>193.9</course>
  <speed>1.0</speed>
  <fix>3d</fix>
</trkpt>
<trkpt lat="33.8100381" lon="-118.3939048">
  <ele>-25.046</ele>
  <time>2026-09-02T22:11:38Z</time>
  <course>192.8</course>
  <speed>1.0141498903022177</speed>
  <fix>3d</fix>
</trkpt>
<trkpt lat="33.8100395" lon="-118.3939046">
  <ele>-24.44</ele>
  <time>2026-09-02T22:11:38Z</time>
  <course>193.93</course>
  <speed>1.0</speed>
  <fix>3d</fix>
</trkpt>
<trkpt lat="33.8100372" lon="-118.3939051">
  <ele>-25.045</ele>
  <time>2026-09-02T22:11:38Z</time>
  <course>192.82</course>
  <speed>1.0141498903022177</speed>
  <fix>3d</fix>
</trkpt>
<trkpt lat="33.8100395" lon="-118.3939046">
  <ele>-24.44</ele>
  <time>2026-09-02T22:11:38Z</time>
  <course>193.93</course>
  <speed>1.0</speed>
  <fix>3d</fix>
</trkpt>
<trkpt lat="33.8100363" lon="-118.3939054">
  <ele>-25.044</ele>
  <time>2026-09-02T22:11:38Z</time>
  <course>192.84</course>
  <speed>1.0141498903022177</speed>
  <fix>3d</fix>
</trkpt>
<trkpt lat="33.8100377" lon="-118.3939052">
  <ele>-24.43</ele>
  <time>2026-09-02T22:11:38Z</time>
  <course>193.98</course>
  <speed>1.0</speed>
  <fix>3d</fix>
</trkpt>
<trkpt lat="33.8100354" lon="-118.3939056">
  <ele>-25.041</ele>
  <time>2026-09-02T22:11:38Z</time>
  <course>192.85</course>
  <speed>1.0141498903022177</speed>
  <fix>3d</fix>
</trkpt>
<trkpt lat="33.8100377" lon="-118.3939052">
  <ele>-24.43</ele>
  <time>2026-09-02T22:11:38Z</time>
  <course>193.98</course>
  <speed>1.0</speed>
  <fix>3d</fix>
</trkpt>
<trkpt lat="33.8100346" lon="-118.3939059">
  <ele>-25.039</ele>
  <time>2026-09-02T22:11:38Z</time>
  <course>192.85</course>
  <speed>1.0141498903022177</speed>
  <fix>3d</fix>
</trkpt>
<trkpt lat="33.8100359" lon="-118.3939057">
  <ele>-24.43</ele>
  <time>2026-09-02T22:11:38Z</time>
  <course>194.0</course>
  <speed>1.0</speed>
  <fix>3d</fix>
</trkpt>
<trkpt lat="33.8100337" lon="-118.3939061">
  <ele>-25.038</ele>
  <time>2026-09-02T22:11:38Z</time>
  <course>192.84</course>
  <speed>1.0043903623591774</speed>
  <fix>3d</fix>
</trkpt>
<trkpt lat="33.8100359" lon="-118.3939057">
  <ele>-24.43</ele>
  <time>2026-09-02T22:11:38Z</time>
  <course>194.0</course>
  <speed>1.0</speed>
  <fix>3d</fix>
</trkpt>
<trkpt lat="33.8100328" lon="-118.3939064">
  <ele>-25.038</ele>
  <time>2026-09-02T22:11:38Z</time>
  <course>192.84</course>
  <speed>1.0043903623591774</speed>
  <fix>3d</fix>
</trkpt>
<trkpt lat="33.8100342" lon="-118.3939062">
  <ele>-24.43</ele>
  <time>2026-09-02T22:11:38Z</time>
  <course>193.99</course>
  <speed>1.0</speed>
  <fix>3d</fix>
</trkpt>
<trkpt lat="33.8100319" lon="-118.3939067">
  <ele>-25.038</ele>
  <time>2026-09-02T22:11:38Z</time>
  <course>192.84</course>
  <speed>1.0043903623591774</speed>
  <fix>3d</fix>
</trkpt>
<trkpt lat="33.8100342" lon="-118.3939062">
  <ele>-24.43</ele>
  <time>2026-09-02T22:11:38Z</time>
  <course>193.99</course>
  <speed>1.0</speed>
  <fix>3d</fix>
</trkpt>
<trkpt lat="33.8100311" lon="-118.3939069">
  <ele>-25.04</ele>
  <time>2026-09-02T22:11:38Z</time>
  <course>192.84</course>
  <speed>1.0043903623591774</speed>
  <fix>3d</fix>
</trkpt>
<trkpt lat="33.8100325" lon="-118.3939067">
  <ele>-24.43</ele>
  <time>2026-09-02T22:11:38Z</time>
  <course>194.0</course>
  <speed>0.99</speed>
  <fix>3d</fix>
</trkpt>
<trkpt lat="33.8100302" lon="-118.3939072">
  <ele>-25.043</ele>
  <time>2026-09-02T22:11:38Z</time>
  <course>192.86</course>
  <speed>1.0043903623591774</speed>
  <fix>3d</fix>
</trkpt>
<trkpt lat="33.8100325" lon="-118.3939067">
  <ele>-24.43</ele>
  <time>2026-09-02T22:11:38Z</time>
  <course>194.0</course>
  <speed>0.99</speed>
  <fix>3d</fix>
</trkpt>
<trkpt lat="33.8100293" lon="-118.3939074">
  <ele>-25.044</ele>
  <time>2026-09-02T22:11:38Z</time>
  <course>192.87</course>
  <speed>1.0141498903022177</speed>
  <fix>3d</fix>
</trkpt>
<trkpt lat="33.8100307" lon="-118.3939073">
  <ele>-24.43</ele>
  <time>2026-09-02T22:11:38Z</time>
  <course>194.03</course>
  <speed>0.99</speed>
  <fix>3d</fix>
</trkpt>
<trkpt lat="33.8100285" lon="-118.3939077">
  <ele>-25.045</ele>
  <time>2026-09-02T22:11:38Z</time>
  <course>192.88</course>
  <speed>1.0141498903022177</speed>
  <fix>3d</fix>
</trkpt>
<trkpt lat="33.8100307" lon="-118.3939073">
  <ele>-24.43</ele>
  <time>2026-09-02T22:11:38Z</time>
  <course>194.03</course>
  <speed>0.99</speed>
  <fix>3d</fix>
</trkpt>
<trkpt lat="33.8100276" lon="-118.393908">
  <ele>-25.044</ele>
  <time>2026-09-02T22:11:38Z</time>
  <course>192.87</course>
  <speed>1.0141498903022177</speed>
  <fix>3d</fix>
</trkpt>
<trkpt lat="33.810029" lon="-118.3939078">
  <ele>-24.43</ele>
  <time>2026-09-02T22:11:38Z</time>
  <course>194.02</course>
  <speed>0.99</speed>
  <fix>3d</fix>
</trkpt>
<trkpt lat="33.8100267" lon="-118.3939082">
  <ele>-25.042</ele>
  <time>2026-09-02T22:11:38Z</time>
  <course>192.85</course>
  <speed>1.0141498903022177</speed>
  <fix>3d</fix>
</trkpt>
<trkpt lat="33.810029" lon="-118.3939078">
  <ele>-24.43</ele>
  <time>2026-09-02T22:11:38Z</time>
  <course>194.02</course>
  <speed>0.99</speed>
  <fix>3d</fix>
</trkpt>
<trkpt lat="33.8100258" lon="-118.3939085">
  <ele>-25.039</ele>
  <time>2026-09-02T22:11:38Z</time>
  <course>192.83</course>
  <speed>1.0141498903022177</speed>
  <fix>3d</fix>
</trkpt>
<trkpt lat="33.8100273" lon="-118.3939083">
  <ele>-24.43</ele>
  <time>2026-09-02T22:11:38Z</time>
  <course>193.99</course>
  <speed>0.99</speed>
  <fix>3d</fix>
</trkpt>
<trkpt lat="33.810025" lon="-118.3939088">
  <ele>-25.037</ele>
  <time>2026-09-02T22:11:38Z</time>
  <course>192.81</course>
  <speed>1.0141498903022177</speed>
  <fix>3d</fix>
</trkpt>
<trkpt lat="33.8100273" lon="-118.3939083">
  <ele>-24.43</ele>
  <time>2026-09-02T22:11:38Z</time>
  <course>193.99</course>
  <speed>0.99</speed>
  <fix>3d</fix>
</trkpt>
<trkpt lat="33.8100241" lon="-118.393909">
  <ele>-25.035</ele>
  <time>2026-09-02T22:11:38Z</time>
  <course>192.79</course>
  <speed>1.0141498903022177</speed>
  <fix>3d</fix>
</trkpt>
<trkpt lat="33.8100255" lon="-118.3939088">
  <ele>-24.43</ele>
  <time>2026-09-02T22:11:38Z</time>
  <course>193.96</course>
  <speed>0.99</speed>
  <fix>3d</fix>
</trkpt>
<trkpt lat="33.8100232" lon="-118.3939093">
  <ele>-25.036</ele>
  <time>2026-09-02T22:11:38Z</time>
  <course>192.79</course>
  <speed>1.0141498903022177</speed>
  <fix>3d</fix>
</trkpt>
<trkpt lat="33.8100255" lon="-118.3939088">
  <ele>-24.43</ele>
  <time>2026-09-02T22:11:38Z</time>
  <course>193.96</course>
  <speed>0.99</speed>
  <fix>3d</fix>
</trkpt>
<trkpt lat="33.8100224" lon="-118.3939095">
  <ele>-25.036</ele>
  <time>2026-09-02T22:11:38Z</time>
  <course>192.79</course>
  <speed>1.0141498903022177</speed>
  <fix>3d</fix>
</trkpt>
<trkpt lat="33.8100237" lon="-118.3939093">
  <ele>-24.43</ele>
  <time>2026-09-02T22:11:38Z</time>
  <course>193.96</course>
  <speed>0.99</speed>
  <fix>3d</fix>
</trkpt>
<trkpt lat="33.8100215" lon="-118.3939098">
  <ele>-25.037</ele>
  <time>2026-09-02T22:11:38Z</time>
  <course>192.8</course>
  <speed>1.0141498903022177</speed>
  <fix>3d</fix>
</trkpt>
<trkpt lat="33.8100237" lon="-118.3939093">
  <ele>-24.43</ele>
  <time>2026-09-02T22:11:38Z</time>
  <course>193.96</course>
  <speed>0.99</speed>
  <fix>3d</fix>
</trkpt>
<trkpt lat="33.8100206" lon="-118.3939101">
  <ele>-25.038</ele>
  <time>2026-09-02T22:11:38Z</time>
  <course>192.83</course>
  <speed>1.0141498903022177</speed>
  <fix>3d</fix>
</trkpt>
<trkpt lat="33.810022" lon="-118.3939099">
  <ele>-24.43</ele>
  <time>2026-09-02T22:11:38Z</time>
  <course>194.0</course>
  <speed>0.99</speed>
  <fix>3d</fix>
</trkpt>
<trkpt lat="33.8100197" lon="-118.3939103">
  <ele>-25.04</ele>
  <time>2026-09-02T22:11:38Z</time>
  <course>192.86</course>
  <speed>1.0141498903022177</speed>
  <fix>3d</fix>
</trkpt>
<trkpt lat="33.810022" lon="-118.3939099">
  <ele>-24.43</ele>
  <time>2026-09-02T22:11:38Z</time>
  <course>194.0</course>
  <speed>0.99</speed>
  <fix>3d</fix>
</trkpt>
<trkpt lat="33.8100189" lon="-118.3939106">
  <ele>-25.043</ele>
  <time>2026-09-02T22:11:38Z</time>
  <course>192.86</course>
  <speed>1.0141498903022177</speed>
  <fix>3d</fix>
</trkpt>
<trkpt lat="33.8100203" lon="-118.3939104">
  <ele>-24.44</ele>
  <time>2026-09-02T22:11:38Z</time>
  <course>194.02</course>
  <speed>0.99</speed>
  <fix>3d</fix>
</trkpt>
<trkpt lat="33.810018" lon="-118.3939108">
  <ele>-25.044</ele>
  <time>2026-09-02T22:11:38Z</time>
  <course>192.86</course>
  <speed>1.0141498903022177</speed>
  <fix>3d</fix>
</trkpt>
<trkpt lat="33.8100203" lon="-118.3939104">
  <ele>-24.44</ele>
  <time>2026-09-02T22:11:38Z</time>
  <course>194.02</course>
  <speed>0.99</speed>
  <fix>3d</fix>
</trkpt>
<trkpt lat="33.8100171" lon="-118.3939111">
  <ele>-25.045</ele>
  <time>2026-09-02T22:11:38Z</time>
  <course>192.85</course>
  <speed>1.0141498903022177</speed>
  <fix>3d</fix>
</trkpt>
<trkpt lat="33.8100185" lon="-118.3939109">
  <ele>-24.44</ele>
  <time>2026-09-02T22:11:38Z</time>
  <course>194.01</course>
  <speed>0.99</speed>
  <fix>3d</fix>
</trkpt>
<trkpt lat="33.8100162" lon="-118.3939114">
  <ele>-25.046</ele>
  <time>2026-09-02T22:11:38Z</time>
  <course>192.84</course>
  <speed>1.0141498903022177</speed>
  <fix>3d</fix>
</trkpt>
<trkpt lat="33.8100185" lon="-118.3939109">
  <ele>-24.44</ele>
  <time>2026-09-02T22:11:38Z</time>
  <course>194.01</course>
  <speed>0.99</speed>
  <fix>3d</fix>
</trkpt>
<trkpt lat="33.8100154" lon="-118.3939116">
  <ele>-25.047</ele>
  <time>2026-09-02T22:11:38Z</time>
  <course>192.83</course>
  <speed>1.0141498903022177</speed>
  <fix>3d</fix>
</trkpt>
<trkpt lat="33.8100168" lon="-118.3939114">
  <ele>-24.44</ele>
  <time>2026-09-02T22:11:38Z</time>
  <course>194.01</course>
  <speed>0.99</speed>
  <fix>3d</fix>
</trkpt>
<trkpt lat="33.8100145" lon="-118.3939119">
  <ele>-25.047</ele>
  <time>2026-09-02T22:11:38Z</time>
  <course>192.84</course>
  <speed>1.0141498903022177</speed>
  <fix>3d</fix>
</trkpt>
<trkpt lat="33.8100168" lon="-118.3939114">
  <ele>-24.44</ele>
  <time>2026-09-02T22:11:38Z</time>
  <course>194.01</course>
  <speed>0.99</speed>
  <fix>3d</fix>
</trkpt>
<trkpt lat="33.8100136" lon="-118.3939121">
  <ele>-25.047</ele>
  <time>2026-09-02T22:11:38Z</time>
  <course>192.85</course>
  <speed>1.0141498903022177</speed>
  <fix>3d</fix>
</trkpt>
<trkpt lat="33.8100151" lon="-118.393912">
  <ele>-24.44</ele>
  <time>2026-09-02T22:11:38Z</time>
  <course>194.03</course>
  <speed>0.99</speed>
  <fix>3d</fix>
</trkpt>
<trkpt lat="33.8100128" lon="-118.3939124">
  <ele>-25.046</ele>
  <time>2026-09-02T22:11:38Z</time>
  <course>192.85</course>
  <speed>1.0141498903022177</speed>
  <fix>3d</fix>
</trkpt>
<trkpt lat="33.8100151" lon="-118.393912">
  <ele>-24.44</ele>
  <time>2026-09-02T22:11:38Z</time>
  <course>194.03</course>
  <speed>0.99</speed>
  <fix>3d</fix>
</trkpt>
<trkpt lat="33.8100119" lon="-118.3939127">
  <ele>-25.044</ele>
  <time>2026-09-02T22:11:38Z</time>
  <course>192.83</course>
  <speed>1.0141498903022177</speed>
  <fix>3d</fix>
</trkpt>
<trkpt lat="33.8100133" lon="-118.3939125">
  <ele>-24.44</ele>
  <time>2026-09-02T22:11:38Z</time>
  <course>194.02</course>
  <speed>0.99</speed>
  <fix>3d</fix>
</trkpt>
<trkpt lat="33.810011" lon="-118.3939129">
  <ele>-25.042</ele>
  <time>2026-09-02T22:11:38Z</time>
  <course>192.81</course>
  <speed>1.0141498903022177</speed>
  <fix>3d</fix>
</trkpt>
<trkpt lat="33.8100133" lon="-118.3939125">
  <ele>-24.44</ele>
  <time>2026-09-02T22:11:38Z</time>
  <course>194.02</course>
  <speed>0.99</speed>
  <fix>3d</fix>
</trkpt>
<trkpt lat="33.8100101" lon="-118.3939132">
  <ele>-25.039</ele>
  <time>2026-09-02T22:11:38Z</time>
  <course>192.79</course>
  <speed>1.0141498903022177</speed>
  <fix>3d</fix>
</trkpt>
<trkpt lat="33.8100115" lon="-118.393913">
  <ele>-24.43</ele>
  <time>2026-09-02T22:11:38Z</time>
  <course>193.98</course>
  <speed>0.99</speed>
  <fix>3d</fix>
</trkpt>
<trkpt lat="33.8100093" lon="-118.3939135">
  <ele>-25.038</ele>
  <time>2026-09-02T22:11:38Z</time>
  <course>192.78</course>
  <speed>1.0141498903022177</speed>
  <fix>3d</fix>
</trkpt>
<trkpt lat="33.8100115" lon="-118.393913">
  <ele>-24.43</ele>
  <time>2026-09-02T22:11:38Z</time>
  <course>193.98</course>
  <speed>0.99</speed>
  <fix>3d</fix>
</trkpt>
<trkpt lat="33.8100084" lon="-118.3939137">
  <ele>-25.036</ele>
  <time>2026-09-02T22:11:38Z</time>
  <course>192.77</course>
  <speed>1.0141498903022177</speed>
  <fix>3d</fix>
</trkpt>
<trkpt lat="33.8100098" lon="-118.3939135">
  <ele>-24.43</ele>
  <time>2026-09-02T22:11:38Z</time>
  <course>193.98</course>
  <speed>0.99</speed>
  <fix>3d</fix>
</trkpt>
<trkpt lat="33.8100075" lon="-118.393914">
  <ele>-25.036</ele>
  <time>2026-09-02T22:11:38Z</time>
  <course>192.78</course>
  <speed>1.0141498903022177</speed>
  <fix>3d</fix>
</trkpt>
<trkpt lat="33.8100098" lon="-118.3939135">
  <ele>-24.43</ele>
  <time>2026-09-02T22:11:38Z</time>
  <course>193.98</course>
  <speed>0.99</speed>
  <fix>3d</fix>
</trkpt>
<trkpt lat="33.8100066" lon="-118.3939142">
  <ele>-25.036</ele>
  <time>2026-09-02T22:11:38Z</time>
  <course>192.79</course>
  <speed>1.0141498903022177</speed>
  <fix>3d</fix>
</trkpt>
<trkpt lat="33.8100081" lon="-118.393914">
  <ele>-24.43</ele>
  <time>2026-09-02T22:11:38Z</time>
  <course>194.0</course>
  <speed>0.99</speed>
  <fix>3d</fix>
</trkpt>
<trkpt lat="33.8100058" lon="-118.3939145">
  <ele>-25.037</ele>
  <time>2026-09-02T22:11:38Z</time>
  <course>192.8</course>
  <speed>1.0141498903022177</speed>
  <fix>3d</fix>
</trkpt>
<trkpt lat="33.8100081" lon="-118.393914">
  <ele>-24.43</ele>
  <time>2026-09-02T22:11:38Z</time>
  <course>194.0</course>
  <speed>0.99</speed>
  <fix>3d</fix>
</trkpt>
<trkpt lat="33.8100049" lon="-118.3939148">
  <ele>-25.037</ele>
  <time>2026-09-02T22:11:38Z</time>
  <course>192.82</course>
  <speed>1.0141498903022177</speed>
  <fix>3d</fix>
</trkpt>
<trkpt lat="33.8100063" lon="-118.3939145">
  <ele>-24.43</ele>
  <time>2026-09-02T22:11:38Z</time>
  <course>194.04</course>
  <speed>0.99</speed>
  <fix>3d</fix>
</trkpt>
<trkpt lat="33.810004" lon="-118.393915">
  <ele>-25.038</ele>
  <time>2026-09-02T22:11:38Z</time>
  <course>192.84</course>
  <speed>1.0141498903022177</speed>
  <fix>3d</fix>
</trkpt>
<trkpt lat="33.8100063" lon="-118.3939145">
  <ele>-24.43</ele>
  <time>2026-09-02T22:11:38Z</time>
  <course>194.04</course>
  <speed>0.99</speed>
  <fix>3d</fix>
</trkpt>
<trkpt lat="33.8100032" lon="-118.3939153">
  <ele>-25.039</ele>
  <time>2026-09-02T22:11:38Z</time>
  <course>192.86</course>
  <speed>1.0141498903022177</speed>
  <fix>3d</fix>
</trkpt>
<trkpt lat="33.8100046" lon="-118.3939151">
  <ele>-24.43</ele>
  <time>2026-09-02T22:11:38Z</time>
  <course>194.09</course>
  <speed>0.99</speed>
  <fix>3d</fix>
</trkpt>
<trkpt lat="33.8100023" lon="-118.3939155">
  <ele>-25.041</ele>
  <time>2026-09-02T22:11:38Z</time>
  <course>192.88</course>
  <speed>1.0141498903022177</speed>
  <fix>3d</fix>
</trkpt>
<trkpt lat="33.8100046" lon="-118.3939151">
  <ele>-24.43</ele>
  <time>2026-09-02T22:11:38Z</time>
  <course>194.09</course>
  <speed>0.99</speed>
  <fix>3d</fix>
</trkpt>
<trkpt lat="33.8100014" lon="-118.3939158">
  <ele>-25.042</ele>
  <time>2026-09-02T22:11:38Z</time>
  <course>192.89</course>
  <speed>1.0141498903022177</speed>
  <fix>3d</fix>
</trkpt>
<trkpt lat="33.8100029" lon="-118.3939156">
  <ele>-24.44</ele>
  <time>2026-09-02T22:11:38Z</time>
  <course>194.11</course>
  <speed>0.99</speed>
  <fix>3d</fix>
</trkpt>
<trkpt lat="33.8100005" lon="-118.3939161">
  <ele>-25.043</ele>
  <time>2026-09-02T22:11:38Z</time>
  <course>192.89</course>
  <speed>1.0141498903022177</speed>
  <fix>3d</fix>
</trkpt>
<trkpt lat="33.8100029" lon="-118.3939156">
  <ele>-24.44</ele>
  <time>2026-09-02T22:11:38Z</time>
  <course>194.11</course>
  <speed>0.99</speed>
  <fix>3d</fix>
</trkpt>
<trkpt lat="33.8099997" lon="-118.3939163">
  <ele>-25.044</ele>
  <time>2026-09-02T22:11:38Z</time>
  <course>192.88</course>
  <speed>1.0141498903022177</speed>
  <fix>3d</fix>
</trkpt>
<trkpt lat="33.8100012" lon="-118.3939161">
  <ele>-24.44</ele>
  <time>2026-09-02T22:11:38Z</time>
  <course>194.06</course>
  <speed>0.99</speed>
  <fix>3d</fix>
</trkpt>
<trkpt lat="33.8099988" lon="-118.3939166">
  <ele>-25.043</ele>
  <time>2026-09-02T22:11:38Z</time>
  <course>192.86</course>
  <speed>1.0141498903022177</speed>
  <fix>3d</fix>
</trkpt>
<trkpt lat="33.8100012" lon="-118.3939161">
  <ele>-24.44</ele>
  <time>2026-09-02T22:11:38Z</time>
  <course>194.06</course>
  <speed>0.99</speed>
  <fix>3d</fix>
</trkpt>
<trkpt lat="33.8099979" lon="-118.3939168">
  <ele>-25.043</ele>
  <time>2026-09-02T22:11:38Z</time>
  <course>192.85</course>
  <speed>1.0141498903022177</speed>
  <fix>3d</fix>
</trkpt>
<trkpt lat="33.8099994" lon="-118.3939167">
  <ele>-24.44</ele>
  <time>2026-09-02T22:11:38Z</time>
  <course>194.04</course>
  <speed>1.0</speed>
  <fix>3d</fix>
</trkpt>
<trkpt lat="33.8099971" lon="-118.3939171">
  <ele>-25.044</ele>
  <time>2026-09-02T22:11:38Z</time>
  <course>192.84</course>
  <speed>1.0141498903022177</speed>
  <fix>3d</fix>
</trkpt>
<trkpt lat="33.8099994" lon="-118.3939167">
  <ele>-24.44</ele>
  <time>2026-09-02T22:11:38Z</time>
  <course>194.04</course>
  <speed>1.0</speed>
  <fix>3d</fix>
</trkpt>
<trkpt lat="33.8099962" lon="-118.3939174">
  <ele>-25.044</ele>
  <time>2026-09-02T22:11:38Z</time>
  <course>192.81</course>
  <speed>1.0141498903022177</speed>
  <fix>3d</fix>
</trkpt>
<trkpt lat="33.8099976" lon="-118.3939172">
  <ele>-24.44</ele>
  <time>2026-09-02T22:11:38Z</time>
  <course>194.02</course>
  <speed>1.0</speed>
  <fix>3d</fix>
</trkpt>
<trkpt lat="33.8099953" lon="-118.3939176">
  <ele>-25.044</ele>
  <time>2026-09-02T22:11:38Z</time>
  <course>192.79</course>
  <speed>1.0141498903022177</speed>
  <fix>3d</fix>
</trkpt>
<trkpt lat="33.8099976" lon="-118.3939172">
  <ele>-24.44</ele>
  <time>2026-09-02T22:11:38Z</time>
  <course>194.02</course>
  <speed>1.0</speed>
  <fix>3d</fix>
</trkpt>
<trkpt lat="33.8099944" lon="-118.3939179">
  <ele>-25.043</ele>
  <time>2026-09-02T22:11:38Z</time>
  <course>192.77</course>
  <speed>1.0141498903022177</speed>
  <fix>3d</fix>
</trkpt>
<trkpt lat="33.8099959" lon="-118.3939177">
  <ele>-24.43</ele>
  <time>2026-09-02T22:11:38Z</time>
  <course>193.98</course>
  <speed>1.0</speed>
  <fix>3d</fix>
</trkpt>
<trkpt lat="33.8099936" lon="-118.3939182">
  <ele>-25.041</ele>
  <time>2026-09-02T22:11:38Z</time>
  <course>192.76</course>
  <speed>1.0141498903022177</speed>
  <fix>3d</fix>
</trkpt>
<trkpt lat="33.8099959" lon="-118.3939177">
  <ele>-24.43</ele>
  <time>2026-09-02T22:11:38Z</time>
  <course>193.98</course>
  <speed>1.0</speed>
  <fix>3d</fix>
</trkpt>
<trkpt lat="33.8099927" lon="-118.3939184">
  <ele>-25.039</ele>
  <time>2026-09-02T22:11:38Z</time>
  <course>192.75</course>
  <speed>1.0141498903022177</speed>
  <fix>3d</fix>
</trkpt>
<trkpt lat="33.8099942" lon="-118.3939182">
  <ele>-24.43</ele>
  <time>2026-09-02T22:11:38Z</time>
  <course>193.95</course>
  <speed>1.0</speed>
  <fix>3d</fix>
</trkpt>
<trkpt lat="33.8099918" lon="-118.3939187">
  <ele>-25.037</ele>
  <time>2026-09-02T22:11:38Z</time>
  <course>192.74</course>
  <speed>1.0141498903022177</speed>
  <fix>3d</fix>
</trkpt>
<trkpt lat="33.8099942" lon="-118.3939182">
  <ele>-24.43</ele>
  <time>2026-09-02T22:11:38Z</time>
  <course>193.95</course>
  <speed>1.0</speed>
  <fix>3d</fix>
</trkpt>
<trkpt lat="33.809991" lon="-118.3939189">
  <ele>-25.037</ele>
  <time>2026-09-02T22:11:38Z</time>
  <course>192.74</course>
  <speed>1.0141498903022177</speed>
  <fix>3d</fix>
</trkpt>
<trkpt lat="33.8099924" lon="-118.3939188">
  <ele>-24.43</ele>
  <time>2026-09-02T22:11:38Z</time>
  <course>193.96</course>
  <speed>1.0</speed>
  <fix>3d</fix>
</trkpt>
<trkpt lat="33.8099901" lon="-118.3939192">
  <ele>-25.039</ele>
  <time>2026-09-02T22:11:38Z</time>
  <course>192.74</course>
  <speed>1.0141498903022177</speed>
  <fix>3d</fix>
</trkpt>
<trkpt lat="33.8099924" lon="-118.3939188">
  <ele>-24.43</ele>
  <time>2026-09-02T22:11:38Z</time>
  <course>193.96</course>
  <speed>1.0</speed>
  <fix>3d</fix>
</trkpt>
<trkpt lat="33.8099892" lon="-118.3939195">
  <ele>-25.04</ele>
  <time>2026-09-02T22:11:38Z</time>
  <course>192.73</course>
  <speed>1.0141498903022177</speed>
  <fix>3d</fix>
</trkpt>
<trkpt lat="33.8099907" lon="-118.3939193">
  <ele>-24.43</ele>
  <time>2026-09-02T22:11:38Z</time>
  <course>193.95</course>
  <speed>1.0</speed>
  <fix>3d</fix>
</trkpt>
<trkpt lat="33.8099883" lon="-118.3939197">
  <ele>-25.042</ele>
  <time>2026-09-02T22:11:38Z</time>
  <course>192.71</course>
  <speed>1.0141498903022177</speed>
  <fix>3d</fix>
</trkpt>
<trkpt lat="33.8099907" lon="-118.3939193">
  <ele>-24.43</ele>
  <time>2026-09-02T22:11:38Z</time>
  <course>193.95</course>
  <speed>1.0</speed>
  <fix>3d</fix>
</trkpt>
<trkpt lat="33.8099875" lon="-118.39392">
  <ele>-25.044</ele>
  <time>2026-09-02T22:11:38Z</time>
  <course>192.69</course>
  <speed>1.0141498903022177</speed>
  <fix>3d</fix>
</trkpt>
<trkpt lat="33.8099889" lon="-118.3939198">
  <ele>-24.43</ele>
  <time>2026-09-02T22:11:38Z</time>
  <course>193.92</course>
  <speed>1.0</speed>
  <fix>3d</fix>
</trkpt>
<trkpt lat="33.8099866" lon="-118.3939203">
  <ele>-25.043</ele>
  <time>2026-09-02T22:11:38Z</time>
  <course>192.68</course>
  <speed>1.0141498903022177</speed>
  <fix>3d</fix>
</trkpt>
<trkpt lat="33.8099889" lon="-118.3939198">
  <ele>-24.43</ele>
  <time>2026-09-02T22:11:38Z</time>
  <course>193.92</course>
  <speed>1.0</speed>
  <fix>3d</fix>
</trkpt>
<trkpt lat="33.8099857" lon="-118.3939205">
  <ele>-25.043</ele>
  <time>2026-09-02T22:11:38Z</time>
  <course>192.68</course>
  <speed>1.0141498903022177</speed>
  <fix>3d</fix>
</trkpt>
<trkpt lat="33.8099871" lon="-118.3939203">
  <ele>-24.43</ele>
  <time>2026-09-02T22:11:38Z</time>
  <course>193.9</course>
  <speed>1.0</speed>
  <fix>3d</fix>
</trkpt>
<trkpt lat="33.8099848" lon="-118.3939208">
  <ele>-25.042</ele>
  <time>2026-09-02T22:11:38Z</time>
  <course>192.68</course>
  <speed>1.0141498903022177</speed>
  <fix>3d</fix>
</trkpt>
<trkpt lat="33.8099871" lon="-118.3939203">
  <ele>-24.43</ele>
  <time>2026-09-02T22:11:38Z</time>
  <course>193.9</course>
  <speed>1.0</speed>
  <fix>3d</fix>
</trkpt>
<trkpt lat="33.809984" lon="-118.393921">
  <ele>-25.041</ele>
  <time>2026-09-02T22:11:38Z</time>
  <course>192.7</course>
  <speed>1.0141498903022177</speed>
  <fix>3d</fix>
</trkpt>
<trkpt lat="33.8099854" lon="-118.3939208">
  <ele>-24.42</ele>
  <time>2026-09-02T22:11:38Z</time>
  <course>193.92</course>
  <speed>1.0</speed>
  <fix>3d</fix>
</trkpt>
<trkpt lat="33.8099831" lon="-118.3939213">
  <ele>-25.04</ele>
  <time>2026-09-02T22:11:38Z</time>
  <course>192.73</course>
  <speed>1.0141498903022177</speed>
  <fix>3d</fix>
</trkpt>
<trkpt lat="33.8099854" lon="-118.3939208">
  <ele>-24.42</ele>
  <time>2026-09-02T22:11:38Z</time>
  <course>193.92</course>
  <speed>1.0</speed>
  <fix>3d</fix>
</trkpt>
<trkpt lat="33.8099822" lon="-118.3939216">
  <ele>-25.039</ele>
  <time>2026-09-02T22:11:38Z</time>
  <course>192.76</course>
  <speed>1.0141498903022177</speed>
  <fix>3d</fix>
</trkpt>
<trkpt lat="33.8099837" lon="-118.3939214">
  <ele>-24.42</ele>
  <time>2026-09-02T22:11:38Z</time>
  <course>193.97</course>
  <speed>0.99</speed>
  <fix>3d</fix>
</trkpt>
<trkpt lat="33.8099813" lon="-118.3939218">
  <ele>-25.038</ele>
  <time>2026-09-02T22:11:38Z</time>
  <course>192.78</course>
  <speed>1.0141498903022177</speed>
  <fix>3d</fix>
</trkpt>
<trkpt lat="33.8099837" lon="-118.3939214">
  <ele>-24.42</ele>
  <time>2026-09-02T22:11:38Z</time>
  <course>193.97</course>
  <speed>0.99</speed>
  <fix>3d</fix>
</trkpt>
<trkpt lat="33.8099805" lon="-118.3939221">
  <ele>-25.037</ele>
  <time>2026-09-02T22:11:38Z</time>
  <course>192.78</course>
  <speed>1.0141498903022177</speed>
  <fix>3d</fix>
</trkpt>
<trkpt lat="33.809982" lon="-118.3939219">
  <ele>-24.42</ele>
  <time>2026-09-02T22:11:38Z</time>
  <course>193.99</course>
  <speed>0.99</speed>
  <fix>3d</fix>
</trkpt>
<trkpt lat="33.8099796" lon="-118.3939223">
  <ele>-25.036</ele>
  <time>2026-09-02T22:11:38Z</time>
  <course>192.77</course>
  <speed>1.0141498903022177</speed>
  <fix>3d</fix>
</trkpt>
<trkpt lat="33.809982" lon="-118.3939219">
  <ele>-24.42</ele>
  <time>2026-09-02T22:11:38Z</time>
  <course>193.99</course>
  <speed>0.99</speed>
  <fix>3d</fix>
</trkpt>
<trkpt lat="33.8099787" lon="-118.3939226">
  <ele>-25.036</ele>
  <time>2026-09-02T22:11:38Z</time>
  <course>192.75</course>
  <speed>1.0141498903022177</speed>
  <fix>3d</fix>
</trkpt>
<trkpt lat="33.8099802" lon="-118.3939224">
  <ele>-24.42</ele>
  <time>2026-09-02T22:11:38Z</time>
  <course>193.96</course>
  <speed>0.99</speed>
  <fix>3d</fix>
</trkpt>
<trkpt lat="33.8099778" lon="-118.3939229">
  <ele>-25.035</ele>
  <time>2026-09-02T22:11:38Z</time>
  <course>192.73</course>
  <speed>1.0141498903022177</speed>
  <fix>3d</fix>
</trkpt>
<trkpt lat="33.8099802" lon="-118.3939224">
  <ele>-24.42</ele>
  <time>2026-09-02T22:11:38Z</time>
  <course>193.96</course>
  <speed>0.99</speed>
  <fix>3d</fix>
</trkpt>
<trkpt lat="33.809977" lon="-118.3939231">
  <ele>-25.033</ele>
  <time>2026-09-02T22:11:38Z</time>
  <course>192.73</course>
  <speed>1.0141498903022177</speed>
  <fix>3d</fix>
</trkpt>
<trkpt lat="33.8099785" lon="-118.3939229">
  <ele>-24.42</ele>
  <time>2026-09-02T22:11:38Z</time>
  <course>193.93</course>
  <speed>0.99</speed>
  <fix>3d</fix>
</trkpt>
<trkpt lat="33.8099761" lon="-118.3939234">
  <ele>-25.033</ele>
  <time>2026-09-02T22:11:38Z</time>
  <course>192.73</course>
  <speed>1.0141498903022177</speed>
  <fix>3d</fix>
</trkpt>
<trkpt lat="33.8099785" lon="-118.3939229">
  <ele>-24.42</ele>
  <time>2026-09-02T22:11:38Z</time>
  <course>193.93</course>
  <speed>0.99</speed>
  <fix>3d</fix>
</trkpt>
<trkpt lat="33.8099752" lon="-118.3939236">
  <ele>-25.034</ele>
  <time>2026-09-02T22:11:38Z</time>
  <course>192.74</course>
  <speed>1.0141498903022177</speed>
  <fix>3d</fix>
</trkpt>
<trkpt lat="33.8099767" lon="-118.3939235">
  <ele>-24.42</ele>
  <time>2026-09-02T22:11:38Z</time>
  <course>193.93</course>
  <speed>1.0</speed>
  <fix>3d</fix>
</trkpt>
<trkpt lat="33.8099744" lon="-118.3939239">
  <ele>-25.035</ele>
  <time>2026-09-02T22:11:38Z</time>
  <course>192.74</course>
  <speed>1.0141498903022177</speed>
  <fix>3d</fix>
</trkpt>
<trkpt lat="33.8099767" lon="-118.3939235">
  <ele>-24.42</ele>
  <time>2026-09-02T22:11:38Z</time>
  <course>193.93</course>
  <speed>1.0</speed>
  <fix>3d</fix>
</trkpt>
<trkpt lat="33.8099735" lon="-118.3939242">
  <ele>-25.035</ele>
  <time>2026-09-02T22:11:38Z</time>
  <course>192.73</course>
  <speed>1.0141498903022177</speed>
  <fix>3d</fix>
</trkpt>
<trkpt lat="33.8099749" lon="-118.393924">
  <ele>-24.42</ele>
  <time>2026-09-02T22:11:38Z</time>
  <course>193.93</course>
  <speed>1.0</speed>
  <fix>3d</fix>
</trkpt>
<trkpt lat="33.8099726" lon="-118.3939244">
  <ele>-25.035</ele>
  <time>2026-09-02T22:11:38Z</time>
  <course>192.72</course>
  <speed>1.0141498903022177</speed>
  <fix>3d</fix>
</trkpt>
<trkpt lat="33.8099749" lon="-118.393924">
  <ele>-24.42</ele>
  <time>2026-09-02T22:11:38Z</time>
  <course>193.93</course>
  <speed>1.0</speed>
  <fix>3d</fix>
</trkpt>
<trkpt lat="33.8099717" lon="-118.3939247">
  <ele>-25.036</ele>
  <time>2026-09-02T22:11:38Z</time>
  <course>192.71</course>
  <speed>1.0141498903022177</speed>
  <fix>3d</fix>
</trkpt>
<trkpt lat="33.8099732" lon="-118.3939245">
  <ele>-24.43</ele>
  <time>2026-09-02T22:11:38Z</time>
  <course>193.91</course>
  <speed>1.0</speed>
  <fix>3d</fix>
</trkpt>
<trkpt lat="33.8099709" lon="-118.393925">
  <ele>-25.036</ele>
  <time>2026-09-02T22:11:38Z</time>
  <course>192.71</course>
  <speed>1.0141498903022177</speed>
  <fix>3d</fix>
</trkpt>
<trkpt lat="33.8099732" lon="-118.3939245">
  <ele>-24.43</ele>
  <time>2026-09-02T22:11:38Z</time>
  <course>193.91</course>
  <speed>1.0</speed>
  <fix>3d</fix>
</trkpt>
<trkpt lat="33.80997" lon="-118.3939252">
  <ele>-25.036</ele>
  <time>2026-09-02T22:11:38Z</time>
  <course>192.7</course>
  <speed>1.0141498903022177</speed>
  <fix>3d</fix>
</trkpt>
<trkpt lat="33.8099715" lon="-118.393925">
  <ele>-24.43</ele>
  <time>2026-09-02T22:11:38Z</time>
  <course>193.92</course>
  <speed>0.99</speed>
  <fix>3d</fix>
</trkpt>
<trkpt lat="33.8099691" lon="-118.3939255">
  <ele>-25.036</ele>
  <time>2026-09-02T22:11:38Z</time>
  <course>192.71</course>
  <speed>1.0141498903022177</speed>
  <fix>3d</fix>
</trkpt>
<trkpt lat="33.8099715" lon="-118.393925">
  <ele>-24.43</ele>
  <time>2026-09-02T22:11:38Z</time>
  <course>193.92</course>
  <speed>0.99</speed>
  <fix>3d</fix>
</trkpt>
<trkpt lat="33.8099682" lon="-118.3939257">
  <ele>-25.036</ele>
  <time>2026-09-02T22:11:38Z</time>
  <course>192.72</course>
  <speed>1.0141498903022177</speed>
  <fix>3d</fix>
</trkpt>
<trkpt lat="33.8099698" lon="-118.3939255">
  <ele>-24.43</ele>
  <time>2026-09-02T22:11:38Z</time>
  <course>193.93</course>
  <speed>0.99</speed>
  <fix>3d</fix>
</trkpt>
<trkpt lat="33.8099674" lon="-118.393926">
  <ele>-25.037</ele>
  <time>2026-09-02T22:11:38Z</time>
  <course>192.73</course>
  <speed>1.0141498903022177</speed>
  <fix>3d</fix>
</trkpt>
<trkpt lat="33.8099698" lon="-118.3939255">
  <ele>-24.43</ele>
  <time>2026-09-02T22:11:38Z</time>
  <course>193.93</course>
  <speed>0.99</speed>
  <fix>3d</fix>
</trkpt>
<trkpt lat="33.8099665" lon="-118.3939263">
  <ele>-25.038</ele>
  <time>2026-09-02T22:11:38Z</time>
  <course>192.75</course>
  <speed>1.0141498903022177</speed>
  <fix>3d</fix>
</trkpt>
<trkpt lat="33.809968" lon="-118.393926">
  <ele>-24.43</ele>
  <time>2026-09-02T22:11:38Z</time>
  <course>193.95</course>
  <speed>0.99</speed>
  <fix>3d</fix>
</trkpt>
<trkpt lat="33.8099656" lon="-118.3939265">
  <ele>-25.04</ele>
  <time>2026-09-02T22:11:38Z</time>
  <course>192.77</course>
  <speed>1.0141498903022177</speed>
  <fix>3d</fix>
</trkpt>
<trkpt lat="33.809968" lon="-118.393926">
  <ele>-24.43</ele>
  <time>2026-09-02T22:11:38Z</time>
  <course>193.95</course>
  <speed>0.99</speed>
  <fix>3d</fix>
</trkpt>
<trkpt lat="33.8099648" lon="-118.3939268">
  <ele>-25.041</ele>
  <time>2026-09-02T22:11:38Z</time>
  <course>192.79</course>
  <speed>1.0141498903022177</speed>
  <fix>3d</fix>
</trkpt>
<trkpt lat="33.8099663" lon="-118.3939266">
  <ele>-24.44</ele>
  <time>2026-09-02T22:11:38Z</time>
  <course>193.99</course>
  <speed>1.0</speed>
  <fix>3d</fix>
</trkpt>
<trkpt lat="33.8099639" lon="-118.393927">
  <ele>-25.042</ele>
  <time>2026-09-02T22:11:38Z</time>
  <course>192.8</course>
  <speed>1.0141498903022177</speed>
  <fix>3d</fix>
</trkpt>
<trkpt lat="33.8099663" lon="-118.3939266">
  <ele>-24.44</ele>
  <time>2026-09-02T22:11:38Z</time>
  <course>193.99</course>
  <speed>1.0</speed>
  <fix>3d</fix>
</trkpt>
<trkpt lat="33.809963" lon="-118.3939273">
  <ele>-25.041</ele>
  <time>2026-09-02T22:11:38Z</time>
  <course>192.81</course>
  <speed>1.0141498903022177</speed>
  <fix>3d</fix>
</trkpt>
<trkpt lat="33.8099645" lon="-118.3939271">
  <ele>-24.44</ele>
  <time>2026-09-02T22:11:38Z</time>
  <course>194.01</course>
  <speed>1.0</speed>
  <fix>3d</fix>
</trkpt>
<trkpt lat="33.8099621" lon="-118.3939276">
  <ele>-25.041</ele>
  <time>2026-09-02T22:11:38Z</time>
  <course>192.8</course>
  <speed>1.0141498903022177</speed>
  <fix>3d</fix>
</trkpt>
<trkpt lat="33.8099645" lon="-118.3939271">
  <ele>-24.44</ele>
  <time>2026-09-02T22:11:38Z</time>
  <course>194.01</course>
  <speed>1.0</speed>
  <fix>3d</fix>
</trkpt>
<trkpt lat="33.8099613" lon="-118.3939278">
  <ele>-25.041</ele>
  <time>2026-09-02T22:11:38Z</time>
  <course>192.79</course>
  <speed>1.0141498903022177</speed>
  <fix>3d</fix>
</trkpt>
<trkpt lat="33.8099627" lon="-118.3939276">
  <ele>-24.44</ele>
  <time>2026-09-02T22:11:38Z</time>
  <course>193.99</course>
  <speed>1.0</speed>
  <fix>3d</fix>
</trkpt>
<trkpt lat="33.8099604" lon="-118.3939281">
  <ele>-25.041</ele>
  <time>2026-09-02T22:11:38Z</time>
  <course>192.79</course>
  <speed>1.0141498903022177</speed>
  <fix>3d</fix>
</trkpt>
<trkpt lat="33.8099627" lon="-118.3939276">
  <ele>-24.44</ele>
  <time>2026-09-02T22:11:38Z</time>
  <course>193.99</course>
  <speed>1.0</speed>
  <fix>3d</fix>
</trkpt>
<trkpt lat="33.8099595" lon="-118.3939283">
  <ele>-25.041</ele>
  <time>2026-09-02T22:11:38Z</time>
  <course>192.79</course>
  <speed>1.0141498903022177</speed>
  <fix>3d</fix>
</trkpt>
<trkpt lat="33.809961" lon="-118.3939281">
  <ele>-24.44</ele>
  <time>2026-09-02T22:11:38Z</time>
  <course>194.0</course>
  <speed>1.0</speed>
  <fix>3d</fix>
</trkpt>
<trkpt lat="33.8099586" lon="-118.3939286">
  <ele>-25.041</ele>
  <time>2026-09-02T22:11:38Z</time>
  <course>192.8</course>
  <speed>1.0141498903022177</speed>
  <fix>3d</fix>
</trkpt>
<trkpt lat="33.809961" lon="-118.3939281">
  <ele>-24.44</ele>
  <time>2026-09-02T22:11:38Z</time>
  <course>194.0</course>
  <speed>1.0</speed>
  <fix>3d</fix>
</trkpt>
<trkpt lat="33.8099578" lon="-118.3939289">
  <ele>-25.042</ele>
  <time>2026-09-02T22:11:38Z</time>
  <course>192.82</course>
  <speed>1.0141498903022177</speed>
  <fix>3d</fix>
</trkpt>
<trkpt lat="33.8099593" lon="-118.3939287">
  <ele>-24.44</ele>
  <time>2026-09-02T22:11:38Z</time>
  <course>194.03</course>
  <speed>1.0</speed>
  <fix>3d</fix>
</trkpt>
<trkpt lat="33.8099569" lon="-118.3939291">
  <ele>-25.043</ele>
  <time>2026-09-02T22:11:38Z</time>
  <course>192.83</course>
  <speed>1.0141498903022177</speed>
  <fix>3d</fix>
</trkpt>
<trkpt lat="33.8099593" lon="-118.3939287">
  <ele>-24.44</ele>
  <time>2026-09-02T22:11:38Z</time>
  <course>194.03</course>
  <speed>1.0</speed>
  <fix>3d</fix>
</trkpt>
<trkpt lat="33.809956" lon="-118.3939294">
  <ele>-25.042</ele>
  <time>2026-09-02T22:11:38Z</time>
  <course>192.83</course>
  <speed>1.0141498903022177</speed>
  <fix>3d</fix>
</trkpt>
<trkpt lat="33.8099575" lon="-118.3939292">
  <ele>-24.43</ele>
  <time>2026-09-02T22:11:38Z</time>
  <course>194.03</course>
  <speed>1.0</speed>
  <fix>3d</fix>
</trkpt>
<trkpt lat="33.8099552" lon="-118.3939296">
  <ele>-25.04</ele>
  <time>2026-09-02T22:11:38Z</time>
  <course>192.81</course>
  <speed>1.0141498903022177</speed>
  <fix>3d</fix>
</trkpt>
<trkpt lat="33.8099575" lon="-118.3939292">
  <ele>-24.43</ele>
  <time>2026-09-02T22:11:38Z</time>
  <course>194.03</course>
  <speed>1.0</speed>
  <fix>3d</fix>
</trkpt>
<trkpt lat="33.8099543" lon="-118.3939299">
  <ele>-25.037</ele>
  <time>2026-09-02T22:11:38Z</time>
  <course>192.8</course>
  <speed>1.0141498903022177</speed>
  <fix>3d</fix>
</trkpt>
<trkpt lat="33.8099558" lon="-118.3939297">
  <ele>-24.43</ele>
  <time>2026-09-02T22:11:38Z</time>
  <course>194.0</course>
  <speed>1.0</speed>
  <fix>3d</fix>
</trkpt>
<trkpt lat="33.8099534" lon="-118.3939302">
  <ele>-25.035</ele>
  <time>2026-09-02T22:11:38Z</time>
  <course>192.79</course>
  <speed>1.0141498903022177</speed>
  <fix>3d</fix>
</trkpt>
<trkpt lat="33.8099558" lon="-118.3939297">
  <ele>-24.43</ele>
  <time>2026-09-02T22:11:38Z</time>
  <course>194.0</course>
  <speed>1.0</speed>
  <fix>3d</fix>
</trkpt>
<trkpt lat="33.8099525" lon="-118.3939304">
  <ele>-25.034</ele>
  <time>2026-09-02T22:11:38Z</time>
  <course>192.79</course>
  <speed>1.0141498903022177</speed>
  <fix>3d</fix>
</trkpt>
<trkpt lat="33.8099541" lon="-118.3939302">
  <ele>-24.43</ele>
  <time>2026-09-02T22:11:38Z</time>
  <course>193.99</course>
  <speed>1.0</speed>
  <fix>3d</fix>
</trkpt>
<trkpt lat="33.8099517" lon="-118.3939307">
  <ele>-25.035</ele>
  <time>2026-09-02T22:11:38Z</time>
  <course>192.8</course>
  <speed>1.0141498903022177</speed>
  <fix>3d</fix>
</trkpt>
<trkpt lat="33.8099541" lon="-118.3939302">
  <ele>-24.43</ele>
  <time>2026-09-02T22:11:38Z</time>
  <course>193.99</course>
  <speed>1.0</speed>
  <fix>3d</fix>
</trkpt>
<trkpt lat="33.8099508" lon="-118.393931">
  <ele>-25.036</ele>
  <time>2026-09-02T22:11:38Z</time>
  <course>192.8</course>
  <speed>1.0141498903022177</speed>
  <fix>3d</fix>
</trkpt>
<trkpt lat="33.8099523" lon="-118.3939308">
  <ele>-24.43</ele>
  <time>2026-09-02T22:11:38Z</time>
  <course>194.01</course>
  <speed>1.0</speed>
  <fix>3d</fix>
</trkpt>
<trkpt lat="33.8099499" lon="-118.3939312">
  <ele>-25.037</ele>
  <time>2026-09-02T22:11:38Z</time>
  <course>192.81</course>
  <speed>1.0141498903022177</speed>
  <fix>3d</fix>
</trkpt>
<trkpt lat="33.8099523" lon="-118.3939308">
  <ele>-24.43</ele>
  <time>2026-09-02T22:11:38Z</time>
  <course>194.01</course>
  <speed>1.0</speed>
  <fix>3d</fix>
</trkpt>
<trkpt lat="33.8099491" lon="-118.3939315">
  <ele>-25.038</ele>
  <time>2026-09-02T22:11:39Z</time>
  <course>192.79</course>
  <speed>1.0141498903022177</speed>
  <fix>3d</fix>
</trkpt>
<trkpt lat="33.8099505" lon="-118.3939313">
  <ele>-24.43</ele>
  <time>2026-09-02T22:11:39Z</time>
  <course>194.0</course>
  <speed>1.0</speed>
  <fix>3d</fix>
</trkpt>
<trkpt lat="33.8099482" lon="-118.3939317">
  <ele>-25.039</ele>
  <time>2026-09-02T22:11:39Z</time>
  <course>192.78</course>
  <speed>1.0141498903022177</speed>
  <fix>3d</fix>
</trkpt>
<trkpt lat="33.8099505" lon="-118.3939313">
  <ele>-24.43</ele>
  <time>2026-09-02T22:11:39Z</time>
  <course>194.0</course>
  <speed>1.0</speed>
  <fix>3d</fix>
</trkpt>
<trkpt lat="33.8099473" lon="-118.393932">
  <ele>-25.04</ele>
  <time>2026-09-02T22:11:39Z</time>
  <course>192.76</course>
  <speed>1.0141498903022177</speed>
  <fix>3d</fix>
</trkpt>
<trkpt lat="33.8099488" lon="-118.3939318">
  <ele>-24.43</ele>
  <time>2026-09-02T22:11:39Z</time>
  <course>193.97</course>
  <speed>1.0</speed>
  <fix>3d</fix>
</trkpt>
<trkpt lat="33.8099464" lon="-118.3939323">
  <ele>-25.039</ele>
  <time>2026-09-02T22:11:39Z</time>
  <course>192.75</course>
  <speed>1.0239140588936164</speed>
  <fix>3d</fix>
</trkpt>
<trkpt lat="33.8099488" lon="-118.3939318">
  <ele>-24.43</ele>
  <time>2026-09-02T22:11:39Z</time>
  <course>193.97</course>
  <speed>1.0</speed>
  <fix>3d</fix>
</trkpt>
<trkpt lat="33.8099456" lon="-118.3939325">
  <ele>-25.039</ele>
  <time>2026-09-02T22:11:39Z</time>
  <course>192.75</course>
  <speed>1.0239140588936164</speed>
  <fix>3d</fix>
</trkpt>
<trkpt lat="33.8099471" lon="-118.3939323">
  <ele>-24.43</ele>
  <time>2026-09-02T22:11:39Z</time>
  <course>193.96</course>
  <speed>1.0</speed>
  <fix>3d</fix>
</trkpt>
<trkpt lat="33.8099447" lon="-118.3939328">
  <ele>-25.039</ele>
  <time>2026-09-02T22:11:39Z</time>
  <course>192.75</course>
  <speed>1.0239140588936164</speed>
  <fix>3d</fix>
</trkpt>
<trkpt lat="33.8099471" lon="-118.3939323">
  <ele>-24.43</ele>
  <time>2026-09-02T22:11:39Z</time>
  <course>193.96</course>
  <speed>1.0</speed>
  <fix>3d</fix>
</trkpt>
<trkpt lat="33.8099438" lon="-118.393933">
  <ele>-25.037</ele>
  <time>2026-09-02T22:11:39Z</time>
  <course>192.76</course>
  <speed>1.0239140588936164</speed>
  <fix>3d</fix>
</trkpt>
<trkpt lat="33.8099453" lon="-118.3939329">
  <ele>-24.43</ele>
  <time>2026-09-02T22:11:39Z</time>
  <course>193.99</course>
  <speed>1.0</speed>
  <fix>3d</fix>
</trkpt>
<trkpt lat="33.809943" lon="-118.3939333">
  <ele>-25.036</ele>
  <time>2026-09-02T22:11:39Z</time>
  <course>192.76</course>
  <speed>1.0239140588936164</speed>
  <fix>3d</fix>
</trkpt>
<trkpt lat="33.8099453" lon="-118.3939329">
  <ele>-24.43</ele>
  <time>2026-09-02T22:11:39Z</time>
  <course>193.99</course>
  <speed>1.0</speed>
  <fix>3d</fix>
</trkpt>
<trkpt lat="33.8099421" lon="-118.3939336">
  <ele>-25.035</ele>
  <time>2026-09-02T22:11:39Z</time>
  <course>192.75</course>
  <speed>1.0141498903022177</speed>
  <fix>3d</fix>
</trkpt>
<trkpt lat="33.8099435" lon="-118.3939334">
  <ele>-24.43</ele>
  <time>2026-09-02T22:11:39Z</time>
  <course>193.99</course>
  <speed>1.0</speed>
  <fix>3d</fix>
</trkpt>
<trkpt lat="33.8099412" lon="-118.3939338">
  <ele>-25.036</ele>
  <time>2026-09-02T22:11:39Z</time>
  <course>192.73</course>
  <speed>1.0141498903022177</speed>
  <fix>3d</fix>
</trkpt>
<trkpt lat="33.8099435" lon="-118.3939334">
  <ele>-24.43</ele>
  <time>2026-09-02T22:11:39Z</time>
  <course>193.99</course>
  <speed>1.0</speed>
  <fix>3d</fix>
</trkpt>
<trkpt lat="33.8099403" lon="-118.3939341">
  <ele>-25.037</ele>
  <time>2026-09-02T22:11:39Z</time>
  <course>192.72</course>
  <speed>1.0141498903022177</speed>
  <fix>3d</fix>
</trkpt>
<trkpt lat="33.8099418" lon="-118.3939339">
  <ele>-24.43</ele>
  <time>2026-09-02T22:11:39Z</time>
  <course>193.96</course>
  <speed>1.0</speed>
  <fix>3d</fix>
</trkpt>
<trkpt lat="33.8099395" lon="-118.3939343">
  <ele>-25.038</ele>
  <time>2026-09-02T22:11:39Z</time>
  <course>192.7</course>
  <speed>1.0141498903022177</speed>
  <fix>3d</fix>
</trkpt>
<trkpt lat="33.8099418" lon="-118.3939339">
  <ele>-24.43</ele>
  <time>2026-09-02T22:11:39Z</time>
  <course>193.96</course>
  <speed>1.0</speed>
  <fix>3d</fix>
</trkpt>
<trkpt lat="33.8099386" lon="-118.3939346">
  <ele>-25.038</ele>
  <time>2026-09-02T22:11:39Z</time>
  <course>192.7</course>
  <speed>1.0141498903022177</speed>
  <fix>3d</fix>
</trkpt>
<trkpt lat="33.80994" lon="-118.3939345">
  <ele>-24.43</ele>
  <time>2026-09-02T22:11:39Z</time>
  <course>193.96</course>
  <speed>1.0</speed>
  <fix>3d</fix>
</trkpt>
<trkpt lat="33.8099377" lon="-118.3939349">
  <ele>-25.037</ele>
  <time>2026-09-02T22:11:39Z</time>
  <course>192.69</course>
  <speed>1.0141498903022177</speed>
  <fix>3d</fix>
</trkpt>
<trkpt lat="33.80994" lon="-118.3939345">
  <ele>-24.43</ele>
  <time>2026-09-02T22:11:39Z</time>
  <course>193.96</course>
  <speed>1.0</speed>
  <fix>3d</fix>
</trkpt>
<trkpt lat="33.8099368" lon="-118.3939351">
  <ele>-25.036</ele>
  <time>2026-09-02T22:11:39Z</time>
  <course>192.68</course>
  <speed>1.0141498903022177</speed>
  <fix>3d</fix>
</trkpt>
<trkpt lat="33.8099383" lon="-118.393935">
  <ele>-24.43</ele>
  <time>2026-09-02T22:11:39Z</time>
  <course>193.93</course>
  <speed>1.0</speed>
  <fix>3d</fix>
</trkpt>
<trkpt lat="33.809936" lon="-118.3939354">
  <ele>-25.037</ele>
  <time>2026-09-02T22:11:39Z</time>
  <course>192.66</course>
  <speed>1.0141498903022177</speed>
  <fix>3d</fix>
</trkpt>
<trkpt lat="33.8099383" lon="-118.393935">
  <ele>-24.43</ele>
  <time>2026-09-02T22:11:39Z</time>
  <course>193.93</course>
  <speed>1.0</speed>
  <fix>3d</fix>
</trkpt>
<trkpt lat="33.8099351" lon="-118.3939357">
  <ele>-25.037</ele>
  <time>2026-09-02T22:11:39Z</time>
  <course>192.64</course>
  <speed>1.0141498903022177</speed>
  <fix>3d</fix>
</trkpt>
<trkpt lat="33.8099365" lon="-118.3939355">
  <ele>-24.43</ele>
  <time>2026-09-02T22:11:39Z</time>
  <course>193.87</course>
  <speed>1.0</speed>
  <fix>3d</fix>
</trkpt>
<trkpt lat="33.8099342" lon="-118.3939359">
  <ele>-25.036</ele>
  <time>2026-09-02T22:11:39Z</time>
  <course>192.62</course>
  <speed>1.0141498903022177</speed>
  <fix>3d</fix>
</trkpt>
<trkpt lat="33.8099365" lon="-118.3939355">
  <ele>-24.43</ele>
  <time>2026-09-02T22:11:39Z</time>
  <course>193.87</course>
  <speed>1.0</speed>
  <fix>3d</fix>
</trkpt>
<trkpt lat="33.8099333" lon="-118.3939362">
  <ele>-25.035</ele>
  <time>2026-09-02T22:11:39Z</time>
  <course>192.62</course>
  <speed>1.0141498903022177</speed>
  <fix>3d</fix>
</trkpt>
<trkpt lat="33.8099347" lon="-118.393936">
  <ele>-24.43</ele>
  <time>2026-09-02T22:11:39Z</time>
  <course>193.85</course>
  <speed>1.0</speed>
  <fix>3d</fix>
</trkpt>
<trkpt lat="33.8099325" lon="-118.3939364">
  <ele>-25.034</ele>
  <time>2026-09-02T22:11:39Z</time>
  <course>192.63</course>
  <speed>1.0141498903022177</speed>
  <fix>3d</fix>
</trkpt>
<trkpt lat="33.8099347" lon="-118.393936">
  <ele>-24.43</ele>
  <time>2026-09-02T22:11:39Z</time>
  <course>193.85</course>
  <speed>1.0</speed>
  <fix>3d</fix>
</trkpt>
<trkpt lat="33.8099316" lon="-118.3939367">
  <ele>-25.033</ele>
  <time>2026-09-02T22:11:39Z</time>
  <course>192.64</course>
  <speed>1.0141498903022177</speed>
  <fix>3d</fix>
</trkpt>
<trkpt lat="33.809933" lon="-118.3939365">
  <ele>-24.43</ele>
  <time>2026-09-02T22:11:39Z</time>
  <course>193.89</course>
  <speed>1.0</speed>
  <fix>3d</fix>
</trkpt>
<trkpt lat="33.8099307" lon="-118.393937">
  <ele>-25.034</ele>
  <time>2026-09-02T22:11:39Z</time>
  <course>192.67</course>
  <speed>1.0141498903022177</speed>
  <fix>3d</fix>
</trkpt>
<trkpt lat="33.809933" lon="-118.3939365">
  <ele>-24.43</ele>
  <time>2026-09-02T22:11:39Z</time>
  <course>193.89</course>
  <speed>1.0</speed>
  <fix>3d</fix>
</trkpt>
<trkpt lat="33.8099298" lon="-118.3939372">
  <ele>-25.037</ele>
  <time>2026-09-02T22:11:39Z</time>
  <course>192.69</course>
  <speed>1.0141498903022177</speed>
  <fix>3d</fix>
</trkpt>
<trkpt lat="33.8099313" lon="-118.393937">
  <ele>-24.43</ele>
  <time>2026-09-02T22:11:39Z</time>
  <course>193.96</course>
  <speed>1.0</speed>
  <fix>3d</fix>
</trkpt>
<trkpt lat="33.809929" lon="-118.3939375">
  <ele>-25.039</ele>
  <time>2026-09-02T22:11:39Z</time>
  <course>192.72</course>
  <speed>1.0141498903022177</speed>
  <fix>3d</fix>
</trkpt>
<trkpt lat="33.8099313" lon="-118.393937">
  <ele>-24.43</ele>
  <time>2026-09-02T22:11:39Z</time>
  <course>193.96</course>
  <speed>1.0</speed>
  <fix>3d</fix>
</trkpt>
<trkpt lat="33.8099281" lon="-118.3939377">
  <ele>-25.04</ele>
  <time>2026-09-02T22:11:39Z</time>
  <course>192.75</course>
  <speed>1.0141498903022177</speed>
  <fix>3d</fix>
</trkpt>
<trkpt lat="33.8099295" lon="-118.3939376">
  <ele>-24.44</ele>
  <time>2026-09-02T22:11:39Z</time>
  <course>194.01</course>
  <speed>1.0</speed>
  <fix>3d</fix>
</trkpt>
<trkpt lat="33.8099272" lon="-118.393938">
  <ele>-25.041</ele>
  <time>2026-09-02T22:11:39Z</time>
  <course>192.77</course>
  <speed>1.0141498903022177</speed>
  <fix>3d</fix>
</trkpt>
<trkpt lat="33.8099295" lon="-118.3939376">
  <ele>-24.44</ele>
  <time>2026-09-02T22:11:39Z</time>
  <course>194.01</course>
  <speed>1.0</speed>
  <fix>3d</fix>
</trkpt>
<trkpt lat="33.8099263" lon="-118.3939383">
  <ele>-25.042</ele>
  <time>2026-09-02T22:11:39Z</time>
  <course>192.78</course>
  <speed>1.0141498903022177</speed>
  <fix>3d</fix>
</trkpt>
<trkpt lat="33.8099277" lon="-118.3939381">
  <ele>-24.44</ele>
  <time>2026-09-02T22:11:39Z</time>
  <course>194.02</course>
  <speed>1.0</speed>
  <fix>3d</fix>
</trkpt>
<trkpt lat="33.8099255" lon="-118.3939385">
  <ele>-25.041</ele>
  <time>2026-09-02T22:11:39Z</time>
  <course>192.78</course>
  <speed>1.0141498903022177</speed>
  <fix>3d</fix>
</trkpt>
<trkpt lat="33.8099277" lon="-118.3939381">
  <ele>-24.44</ele>
  <time>2026-09-02T22:11:39Z</time>
  <course>194.02</course>
  <speed>1.0</speed>
  <fix>3d</fix>
</trkpt>
<trkpt lat="33.8099246" lon="-118.3939388">
  <ele>-25.038</ele>
  <time>2026-09-02T22:11:39Z</time>
  <course>192.77</course>
  <speed>1.0141498903022177</speed>
  <fix>3d</fix>
</trkpt>
<trkpt lat="33.809926" lon="-118.3939386">
  <ele>-24.44</ele>
  <time>2026-09-02T22:11:39Z</time>
  <course>194.01</course>
  <speed>1.0</speed>
  <fix>3d</fix>
</trkpt>
<trkpt lat="33.8099237" lon="-118.3939391">
  <ele>-25.036</ele>
  <time>2026-09-02T22:11:39Z</time>
  <course>192.77</course>
  <speed>1.0141498903022177</speed>
  <fix>3d</fix>
</trkpt>
<trkpt lat="33.809926" lon="-118.3939386">
  <ele>-24.44</ele>
  <time>2026-09-02T22:11:39Z</time>
  <course>194.01</course>
  <speed>1.0</speed>
  <fix>3d</fix>
</trkpt>
<trkpt lat="33.8099228" lon="-118.3939393">
  <ele>-25.034</ele>
  <time>2026-09-02T22:11:39Z</time>
  <course>192.78</course>
  <speed>1.0141498903022177</speed>
  <fix>3d</fix>
</trkpt>
<trkpt lat="33.8099242" lon="-118.3939392">
  <ele>-24.43</ele>
  <time>2026-09-02T22:11:39Z</time>
  <course>194.02</course>
  <speed>1.0</speed>
  <fix>3d</fix>
</trkpt>
<trkpt lat="33.809922" lon="-118.3939396">
  <ele>-25.033</ele>
  <time>2026-09-02T22:11:39Z</time>
  <course>192.79</course>
  <speed>1.0141498903022177</speed>
  <fix>3d</fix>
</trkpt>
<trkpt lat="33.8099242" lon="-118.3939392">
  <ele>-24.43</ele>
  <time>2026-09-02T22:11:39Z</time>
  <course>194.02</course>
  <speed>1.0</speed>
  <fix>3d</fix>
</trkpt>
<trkpt lat="33.8099211" lon="-118.3939398">
  <ele>-25.032</ele>
  <time>2026-09-02T22:11:39Z</time>
  <course>192.78</course>
  <speed>1.0141498903022177</speed>
  <fix>3d</fix>
</trkpt>
<trkpt lat="33.8099225" lon="-118.3939397">
  <ele>-24.43</ele>
  <time>2026-09-02T22:11:39Z</time>
  <course>194.0</course>
  <speed>1.0</speed>
  <fix>3d</fix>
</trkpt>
<trkpt lat="33.8099202" lon="-118.3939401">
  <ele>-25.033</ele>
  <time>2026-09-02T22:11:39Z</time>
  <course>192.77</course>
  <speed>1.0141498903022177</speed>
  <fix>3d</fix>
</trkpt>
<trkpt lat="33.8099225" lon="-118.3939397">
  <ele>-24.43</ele>
  <time>2026-09-02T22:11:39Z</time>
  <course>194.0</course>
  <speed>1.0</speed>
  <fix>3d</fix>
</trkpt>
<trkpt lat="33.8099194" lon="-118.3939404">
  <ele>-25.036</ele>
  <time>2026-09-02T22:11:39Z</time>
  <course>192.76</course>
  <speed>1.0141498903022177</speed>
  <fix>3d</fix>
</trkpt>
<trkpt lat="33.8099208" lon="-118.3939402">
  <ele>-24.43</ele>
  <time>2026-09-02T22:11:39Z</time>
  <course>193.96</course>
  <speed>1.0</speed>
  <fix>3d</fix>
</trkpt>
<trkpt lat="33.8099185" lon="-118.3939406">
  <ele>-25.038</ele>
  <time>2026-09-02T22:11:39Z</time>
  <course>192.74</course>
  <speed>1.0141498903022177</speed>
  <fix>3d</fix>
</trkpt>
<trkpt lat="33.8099208" lon="-118.3939402">
  <ele>-24.43</ele>
  <time>2026-09-02T22:11:39Z</time>
  <course>193.96</course>
  <speed>1.0</speed>
  <fix>3d</fix>
</trkpt>
<trkpt lat="33.8099176" lon="-118.3939409">
  <ele>-25.041</ele>
  <time>2026-09-02T22:11:39Z</time>
  <course>192.73</course>
  <speed>1.0141498903022177</speed>
  <fix>3d</fix>
</trkpt>
<trkpt lat="33.809919" lon="-118.3939407">
  <ele>-24.44</ele>
  <time>2026-09-02T22:11:39Z</time>
  <course>193.94</course>
  <speed>1.0</speed>
  <fix>3d</fix>
</trkpt>
<trkpt lat="33.8099167" lon="-118.3939411">
  <ele>-25.044</ele>
  <time>2026-09-02T22:11:39Z</time>
  <course>192.73</course>
  <speed>1.0141498903022177</speed>
  <fix>3d</fix>
</trkpt>
<trkpt lat="33.809919" lon="-118.3939407">
  <ele>-24.44</ele>
  <time>2026-09-02T22:11:39Z</time>
  <course>193.94</course>
  <speed>1.0</speed>
  <fix>3d</fix>
</trkpt>
<trkpt lat="33.8099159" lon="-118.3939414">
  <ele>-25.046</ele>
  <time>2026-09-02T22:11:39Z</time>
  <course>192.73</course>
  <speed>1.0141498903022177</speed>
  <fix>3d</fix>
</trkpt>
<trkpt lat="33.8099172" lon="-118.3939413">
  <ele>-24.44</ele>
  <time>2026-09-02T22:11:39Z</time>
  <course>193.95</course>
  <speed>1.0</speed>
  <fix>3d</fix>
</trkpt>
<trkpt lat="33.809915" lon="-118.3939417">
  <ele>-25.046</ele>
  <time>2026-09-02T22:11:39Z</time>
  <course>192.73</course>
  <speed>1.0141498903022177</speed>
  <fix>3d</fix>
</trkpt>
<trkpt lat="33.8099172" lon="-118.3939413">
  <ele>-24.44</ele>
  <time>2026-09-02T22:11:39Z</time>
  <course>193.95</course>
  <speed>1.0</speed>
  <fix>3d</fix>
</trkpt>
<trkpt lat="33.8099141" lon="-118.3939419">
  <ele>-25.046</ele>
  <time>2026-09-02T22:11:39Z</time>
  <course>192.73</course>
  <speed>1.0141498903022177</speed>
  <fix>3d</fix>
</trkpt>
<trkpt lat="33.8099155" lon="-118.3939418">
  <ele>-24.44</ele>
  <time>2026-09-02T22:11:39Z</time>
  <course>193.97</course>
  <speed>0.99</speed>
  <fix>3d</fix>
</trkpt>
<trkpt lat="33.8099132" lon="-118.3939422">
  <ele>-25.045</ele>
  <time>2026-09-02T22:11:39Z</time>
  <course>192.72</course>
  <speed>1.0141498903022177</speed>
  <fix>3d</fix>
</trkpt>
<trkpt lat="33.8099155" lon="-118.3939418">
  <ele>-24.44</ele>
  <time>2026-09-02T22:11:39Z</time>
  <course>193.97</course>
  <speed>0.99</speed>
  <fix>3d</fix>
</trkpt>
<trkpt lat="33.8099124" lon="-118.3939425">
  <ele>-25.043</ele>
  <time>2026-09-02T22:11:39Z</time>
  <course>192.7</course>
  <speed>1.0141498903022177</speed>
  <fix>3d</fix>
</trkpt>
<trkpt lat="33.8099138" lon="-118.3939423">
  <ele>-24.43</ele>
  <time>2026-09-02T22:11:39Z</time>
  <course>193.96</course>
  <speed>0.99</speed>
  <fix>3d</fix>
</trkpt>
<trkpt lat="33.8099115" lon="-118.3939427">
  <ele>-25.039</ele>
  <time>2026-09-02T22:11:39Z</time>
  <course>192.69</course>
  <speed>1.0141498903022177</speed>
  <fix>3d</fix>
</trkpt>
<trkpt lat="33.8099138" lon="-118.3939423">
  <ele>-24.43</ele>
  <time>2026-09-02T22:11:39Z</time>
  <course>193.96</course>
  <speed>0.99</speed>
  <fix>3d</fix>
</trkpt>
<trkpt lat="33.8099106" lon="-118.393943">
  <ele>-25.036</ele>
  <time>2026-09-02T22:11:39Z</time>
  <course>192.68</course>
  <speed>1.0141498903022177</speed>
  <fix>3d</fix>
</trkpt>
<trkpt lat="33.8099121" lon="-118.3939428">
  <ele>-24.42</ele>
  <time>2026-09-02T22:11:39Z</time>
  <course>193.96</course>
  <speed>0.99</speed>
  <fix>3d</fix>
</trkpt>
<trkpt lat="33.8099097" lon="-118.3939432">
  <ele>-25.034</ele>
  <time>2026-09-02T22:11:39Z</time>
  <course>192.67</course>
  <speed>1.0141498903022177</speed>
  <fix>3d</fix>
</trkpt>
<trkpt lat="33.8099121" lon="-118.3939428">
  <ele>-24.42</ele>
  <time>2026-09-02T22:11:39Z</time>
  <course>193.96</course>
  <speed>0.99</speed>
  <fix>3d</fix>
</trkpt>
<trkpt lat="33.8099089" lon="-118.3939435">
  <ele>-25.032</ele>
  <time>2026-09-02T22:11:39Z</time>
  <course>192.67</course>
  <speed>1.0141498903022177</speed>
  <fix>3d</fix>
</trkpt>
<trkpt lat="33.8099103" lon="-118.3939433">
  <ele>-24.42</ele>
  <time>2026-09-02T22:11:39Z</time>
  <course>193.94</course>
  <speed>0.99</speed>
  <fix>3d</fix>
</trkpt>
<trkpt lat="33.809908" lon="-118.3939438">
  <ele>-25.03</ele>
  <time>2026-09-02T22:11:39Z</time>
  <course>192.67</course>
  <speed>1.0141498903022177</speed>
  <fix>3d</fix>
</trkpt>
<trkpt lat="33.8099103" lon="-118.3939433">
  <ele>-24.42</ele>
  <time>2026-09-02T22:11:39Z</time>
  <course>193.94</course>
  <speed>0.99</speed>
  <fix>3d</fix>
</trkpt>
<trkpt lat="33.8099071" lon="-118.393944">
  <ele>-25.029</ele>
  <time>2026-09-02T22:11:39Z</time>
  <course>192.69</course>
  <speed>1.0141498903022177</speed>
  <fix>3d</fix>
</trkpt>
<trkpt lat="33.8099086" lon="-118.3939439">
  <ele>-24.42</ele>
  <time>2026-09-02T22:11:39Z</time>
  <course>193.95</course>
  <speed>1.0</speed>
  <fix>3d</fix>
</trkpt>
<trkpt lat="33.8099063" lon="-118.3939443">
  <ele>-25.029</ele>
  <time>2026-09-02T22:11:39Z</time>
  <course>192.7</course>
  <speed>1.0141498903022177</speed>
  <fix>3d</fix>
</trkpt>
<trkpt lat="33.8099086" lon="-118.3939439">
  <ele>-24.42</ele>
  <time>2026-09-02T22:11:39Z</time>
  <course>193.95</course>
  <speed>1.0</speed>
  <fix>3d</fix>
</trkpt>
<trkpt lat="33.8099054" lon="-118.3939445">
  <ele>-25.031</ele>
  <time>2026-09-02T22:11:39Z</time>
  <course>192.7</course>
  <speed>1.0141498903022177</speed>
  <fix>3d</fix>
</trkpt>
<trkpt lat="33.8099068" lon="-118.3939444">
  <ele>-24.42</ele>
  <time>2026-09-02T22:11:39Z</time>
  <course>193.96</course>
  <speed>1.0</speed>
  <fix>3d</fix>
</trkpt>
<trkpt lat="33.8099045" lon="-118.3939448">
  <ele>-25.033</ele>
  <time>2026-09-02T22:11:39Z</time>
  <course>192.69</course>
  <speed>1.0141498903022177</speed>
  <fix>3d</fix>
</trkpt>
<trkpt lat="33.8099068" lon="-118.3939444">
  <ele>-24.42</ele>
  <time>2026-09-02T22:11:39Z</time>
  <course>193.96</course>
  <speed>1.0</speed>
  <fix>3d</fix>
</trkpt>
<trkpt lat="33.8099036" lon="-118.3939451">
  <ele>-25.033</ele>
  <time>2026-09-02T22:11:39Z</time>
  <course>192.67</course>
  <speed>1.0141498903022177</speed>
  <fix>3d</fix>
</trkpt>
<trkpt lat="33.809905" lon="-118.3939449">
  <ele>-24.42</ele>
  <time>2026-09-02T22:11:39Z</time>
  <course>193.94</course>
  <speed>1.0</speed>
  <fix>3d</fix>
</trkpt>
<trkpt lat="33.8099028" lon="-118.3939453">
  <ele>-25.033</ele>
  <time>2026-09-02T22:11:39Z</time>
  <course>192.67</course>
  <speed>1.0141498903022177</speed>
  <fix>3d</fix>
</trkpt>
<trkpt lat="33.809905" lon="-118.3939449">
  <ele>-24.42</ele>
  <time>2026-09-02T22:11:39Z</time>
  <course>193.94</course>
  <speed>1.0</speed>
  <fix>3d</fix>
</trkpt>
<trkpt lat="33.8099019" lon="-118.3939456">
  <ele>-25.033</ele>
  <time>2026-09-02T22:11:39Z</time>
  <course>192.67</course>
  <speed>1.0141498903022177</speed>
  <fix>3d</fix>
</trkpt>
<trkpt lat="33.8099033" lon="-118.3939454">
  <ele>-24.42</ele>
  <time>2026-09-02T22:11:39Z</time>
  <course>193.94</course>
  <speed>0.99</speed>
  <fix>3d</fix>
</trkpt>
<trkpt lat="33.809901" lon="-118.3939459">
  <ele>-25.032</ele>
  <time>2026-09-02T22:11:39Z</time>
  <course>192.69</course>
  <speed>1.0141498903022177</speed>
  <fix>3d</fix>
</trkpt>
<trkpt lat="33.8099033" lon="-118.3939454">
  <ele>-24.42</ele>
  <time>2026-09-02T22:11:39Z</time>
  <course>193.94</course>
  <speed>0.99</speed>
  <fix>3d</fix>
</trkpt>
<trkpt lat="33.8099001" lon="-118.3939461">
  <ele>-25.031</ele>
  <time>2026-09-02T22:11:39Z</time>
  <course>192.7</course>
  <speed>1.0141498903022177</speed>
  <fix>3d</fix>
</trkpt>
<trkpt lat="33.8099016" lon="-118.3939459">
  <ele>-24.42</ele>
  <time>2026-09-02T22:11:39Z</time>
  <course>193.99</course>
  <speed>0.99</speed>
  <fix>3d</fix>
</trkpt>
<trkpt lat="33.8098993" lon="-118.3939464">
  <ele>-25.031</ele>
  <time>2026-09-02T22:11:39Z</time>
  <course>192.72</course>
  <speed>1.0141498903022177</speed>
  <fix>3d</fix>
</trkpt>
<trkpt lat="33.8099016" lon="-118.3939459">
  <ele>-24.42</ele>
  <time>2026-09-02T22:11:39Z</time>
  <course>193.99</course>
  <speed>0.99</speed>
  <fix>3d</fix>
</trkpt>
<trkpt lat="33.8098984" lon="-118.3939466">
  <ele>-25.03</ele>
  <time>2026-09-02T22:11:39Z</time>
  <course>192.74</course>
  <speed>1.0141498903022177</speed>
  <fix>3d</fix>
</trkpt>
<trkpt lat="33.8098999" lon="-118.3939465">
  <ele>-24.42</ele>
  <time>2026-09-02T22:11:39Z</time>
  <course>194.03</course>
  <speed>0.99</speed>
  <fix>3d</fix>
</trkpt>
<trkpt lat="33.8098975" lon="-118.3939469">
  <ele>-25.03</ele>
  <time>2026-09-02T22:11:39Z</time>
  <course>192.76</course>
  <speed>1.0141498903022177</speed>
  <fix>3d</fix>
</trkpt>
<trkpt lat="33.8098999" lon="-118.3939465">
  <ele>-24.42</ele>
  <time>2026-09-02T22:11:39Z</time>
  <course>194.03</course>
  <speed>0.99</speed>
  <fix>3d</fix>
</trkpt>
<trkpt lat="33.8098967" lon="-118.3939472">
  <ele>-25.031</ele>
  <time>2026-09-02T22:11:39Z</time>
  <course>192.75</course>
  <speed>1.0141498903022177</speed>
  <fix>3d</fix>
</trkpt>
<trkpt lat="33.8098981" lon="-118.393947">
  <ele>-24.42</ele>
  <time>2026-09-02T22:11:39Z</time>
  <course>194.01</course>
  <speed>0.99</speed>
  <fix>3d</fix>
</trkpt>
<trkpt lat="33.8098958" lon="-118.3939474">
  <ele>-25.033</ele>
  <time>2026-09-02T22:11:39Z</time>
  <course>192.73</course>
  <speed>1.0141498903022177</speed>
  <fix>3d</fix>
</trkpt>
<trkpt lat="33.8098981" lon="-118.393947">
  <ele>-24.42</ele>
  <time>2026-09-02T22:11:39Z</time>
  <course>194.01</course>
  <speed>0.99</speed>
  <fix>3d</fix>
</trkpt>
<trkpt lat="33.8098949" lon="-118.3939477">
  <ele>-25.036</ele>
  <time>2026-09-02T22:11:39Z</time>
  <course>192.72</course>
  <speed>1.0141498903022177</speed>
  <fix>3d</fix>
</trkpt>
<trkpt lat="33.8098964" lon="-118.3939475">
  <ele>-24.43</ele>
  <time>2026-09-02T22:11:39Z</time>
  <course>193.97</course>
  <speed>0.99</speed>
  <fix>3d</fix>
</trkpt>
<trkpt lat="33.809894" lon="-118.3939479">
  <ele>-25.038</ele>
  <time>2026-09-02T22:11:39Z</time>
  <course>192.71</course>
  <speed>1.0141498903022177</speed>
  <fix>3d</fix>
</trkpt>
<trkpt lat="33.8098964" lon="-118.3939475">
  <ele>-24.43</ele>
  <time>2026-09-02T22:11:39Z</time>
  <course>193.97</course>
  <speed>0.99</speed>
  <fix>3d</fix>
</trkpt>
<trkpt lat="33.8098932" lon="-118.3939482">
  <ele>-25.04</ele>
  <time>2026-09-02T22:11:39Z</time>
  <course>192.71</course>
  <speed>1.0141498903022177</speed>
  <fix>3d</fix>
</trkpt>
<trkpt lat="33.8098946" lon="-118.393948">
  <ele>-24.43</ele>
  <time>2026-09-02T22:11:39Z</time>
  <course>193.95</course>
  <speed>0.99</speed>
  <fix>3d</fix>
</trkpt>
<trkpt lat="33.8098923" lon="-118.3939485">
  <ele>-25.041</ele>
  <time>2026-09-02T22:11:39Z</time>
  <course>192.71</course>
  <speed>1.0141498903022177</speed>
  <fix>3d</fix>
</trkpt>
<trkpt lat="33.8098946" lon="-118.393948">
  <ele>-24.43</ele>
  <time>2026-09-02T22:11:39Z</time>
  <course>193.95</course>
  <speed>0.99</speed>
  <fix>3d</fix>
</trkpt>
<trkpt lat="33.8098914" lon="-118.3939487">
  <ele>-25.041</ele>
  <time>2026-09-02T22:11:39Z</time>
  <course>192.72</course>
  <speed>1.0141498903022177</speed>
  <fix>3d</fix>
</trkpt>
<trkpt lat="33.8098928" lon="-118.3939485">
  <ele>-24.43</ele>
  <time>2026-09-02T22:11:39Z</time>
  <course>193.96</course>
  <speed>1.0</speed>
  <fix>3d</fix>
</trkpt>
<trkpt lat="33.8098905" lon="-118.393949">
  <ele>-25.04</ele>
  <time>2026-09-02T22:11:39Z</time>
  <course>192.74</course>
  <speed>1.0141498903022177</speed>
  <fix>3d</fix>
</trkpt>
<trkpt lat="33.8098928" lon="-118.3939485">
  <ele>-24.43</ele>
  <time>2026-09-02T22:11:39Z</time>
  <course>193.96</course>
  <speed>1.0</speed>
  <fix>3d</fix>
</trkpt>
<trkpt lat="33.8098897" lon="-118.3939492">
  <ele>-25.036</ele>
  <time>2026-09-02T22:11:39Z</time>
  <course>192.76</course>
  <speed>1.0141498903022177</speed>
  <fix>3d</fix>
</trkpt>
<trkpt lat="33.8098911" lon="-118.3939491">
  <ele>-24.43</ele>
  <time>2026-09-02T22:11:39Z</time>
  <course>194.02</course>
  <speed>0.99</speed>
  <fix>3d</fix>
</trkpt>
<trkpt lat="33.8098888" lon="-118.3939495">
  <ele>-25.033</ele>
  <time>2026-09-02T22:11:39Z</time>
  <course>192.79</course>
  <speed>1.0141498903022177</speed>
  <fix>3d</fix>
</trkpt>
<trkpt lat="33.8098911" lon="-118.3939491">
  <ele>-24.43</ele>
  <time>2026-09-02T22:11:39Z</time>
  <course>194.02</course>
  <speed>0.99</speed>
  <fix>3d</fix>
</trkpt>
<trkpt lat="33.8098879" lon="-118.3939498">
  <ele>-25.032</ele>
  <time>2026-09-02T22:11:39Z</time>
  <course>192.8</course>
  <speed>1.0141498903022177</speed>
  <fix>3d</fix>
</trkpt>
<trkpt lat="33.8098894" lon="-118.3939496">
  <ele>-24.43</ele>
  <time>2026-09-02T22:11:39Z</time>
  <course>194.05</course>
  <speed>0.99</speed>
  <fix>3d</fix>
</trkpt>
<trkpt lat="33.8098871" lon="-118.39395">
  <ele>-25.031</ele>
  <time>2026-09-02T22:11:39Z</time>
  <course>192.8</course>
  <speed>1.0141498903022177</speed>
  <fix>3d</fix>
</trkpt>
<trkpt lat="33.8098894" lon="-118.3939496">
  <ele>-24.43</ele>
  <time>2026-09-02T22:11:39Z</time>
  <course>194.05</course>
  <speed>0.99</speed>
  <fix>3d</fix>
</trkpt>
<trkpt lat="33.8098862" lon="-118.3939503">
  <ele>-25.03</ele>
  <time>2026-09-02T22:11:39Z</time>
  <course>192.78</course>
  <speed>1.0141498903022177</speed>
  <fix>3d</fix>
</trkpt>
<trkpt lat="33.8098877" lon="-118.3939501">
  <ele>-24.42</ele>
  <time>2026-09-02T22:11:39Z</time>
  <course>194.04</course>
  <speed>0.99</speed>
  <fix>3d</fix>
</trkpt>
<trkpt lat="33.8098853" lon="-118.3939506">
  <ele>-25.029</ele>
  <time>2026-09-02T22:11:39Z</time>
  <course>192.77</course>
  <speed>1.0141498903022177</speed>
  <fix>3d</fix>
</trkpt>
<trkpt lat="33.8098877" lon="-118.3939501">
  <ele>-24.42</ele>
  <time>2026-09-02T22:11:39Z</time>
  <course>194.04</course>
  <speed>0.99</speed>
  <fix>3d</fix>
</trkpt>
<trkpt lat="33.8098844" lon="-118.3939508">
  <ele>-25.03</ele>
  <time>2026-09-02T22:11:39Z</time>
  <course>192.76</course>
  <speed>1.0141498903022177</speed>
  <fix>3d</fix>
</trkpt>
<trkpt lat="33.8098859" lon="-118.3939507">
  <ele>-24.42</ele>
  <time>2026-09-02T22:11:39Z</time>
  <course>194.01</course>
  <speed>0.99</speed>
  <fix>3d</fix>
</trkpt>
<trkpt lat="33.8098836" lon="-118.3939511">
  <ele>-25.032</ele>
  <time>2026-09-02T22:11:39Z</time>
  <course>192.75</course>
  <speed>1.0141498903022177</speed>
  <fix>3d</fix>
</trkpt>
<trkpt lat="33.8098859" lon="-118.3939507">
  <ele>-24.42</ele>
  <time>2026-09-02T22:11:39Z</time>
  <course>194.01</course>
  <speed>0.99</speed>
  <fix>3d</fix>
</trkpt>
<trkpt lat="33.8098827" lon="-118.3939513">
  <ele>-25.034</ele>
  <time>2026-09-02T22:11:39Z</time>
  <course>192.72</course>
  <speed>1.0141498903022177</speed>
  <fix>3d</fix>
</trkpt>
<trkpt lat="33.8098842" lon="-118.3939512">
  <ele>-24.43</ele>
  <time>2026-09-02T22:11:39Z</time>
  <course>193.97</course>
  <speed>0.99</speed>
  <fix>3d</fix>
</trkpt>
<trkpt lat="33.8098818" lon="-118.3939516">
  <ele>-25.035</ele>
  <time>2026-09-02T22:11:39Z</time>
  <course>192.69</course>
  <speed>1.0141498903022177</speed>
  <fix>3d</fix>
</trkpt>
<trkpt lat="33.8098842" lon="-118.3939512">
  <ele>-24.43</ele>
  <time>2026-09-02T22:11:39Z</time>
  <course>193.97</course>
  <speed>0.99</speed>
  <fix>3d</fix>
</trkpt>
<trkpt lat="33.8098809" lon="-118.3939519">
  <ele>-25.036</ele>
  <time>2026-09-02T22:11:39Z</time>
  <course>192.66</course>
  <speed>1.0141498903022177</speed>
  <fix>3d</fix>
</trkpt>
<trkpt lat="33.8098824" lon="-118.3939517">
  <ele>-24.43</ele>
  <time>2026-09-02T22:11:39Z</time>
  <course>193.93</course>
  <speed>0.99</speed>
  <fix>3d</fix>
</trkpt>
<trkpt lat="33.8098801" lon="-118.3939521">
  <ele>-25.037</ele>
  <time>2026-09-02T22:11:39Z</time>
  <course>192.64</course>
  <speed>1.0141498903022177</speed>
  <fix>3d</fix>
</trkpt>
<trkpt lat="33.8098824" lon="-118.3939517">
  <ele>-24.43</ele>
  <time>2026-09-02T22:11:39Z</time>
  <course>193.93</course>
  <speed>0.99</speed>
  <fix>3d</fix>
</trkpt>
<trkpt lat="33.8098792" lon="-118.3939524">
  <ele>-25.038</ele>
  <time>2026-09-02T22:11:39Z</time>
  <course>192.63</course>
  <speed>1.0141498903022177</speed>
  <fix>3d</fix>
</trkpt>
<trkpt lat="33.8098806" lon="-118.3939522">
  <ele>-24.43</ele>
  <time>2026-09-02T22:11:39Z</time>
  <course>193.91</course>
  <speed>0.99</speed>
  <fix>3d</fix>
</trkpt>
<trkpt lat="33.8098783" lon="-118.3939526">
  <ele>-25.038</ele>
  <time>2026-09-02T22:11:39Z</time>
  <course>192.62</course>
  <speed>1.0141498903022177</speed>
  <fix>3d</fix>
</trkpt>
<trkpt lat="33.8098806" lon="-118.3939522">
  <ele>-24.43</ele>
  <time>2026-09-02T22:11:39Z</time>
  <course>193.91</course>
  <speed>0.99</speed>
  <fix>3d</fix>
</trkpt>
<trkpt lat="33.8098775" lon="-118.3939529">
  <ele>-25.038</ele>
  <time>2026-09-02T22:11:39Z</time>
  <course>192.63</course>
  <speed>1.0141498903022177</speed>
  <fix>3d</fix>
</trkpt>
<trkpt lat="33.8098789" lon="-118.3939527">
  <ele>-24.43</ele>
  <time>2026-09-02T22:11:39Z</time>
  <course>193.95</course>
  <speed>0.99</speed>
  <fix>3d</fix>
</trkpt>
<trkpt lat="33.8098766" lon="-118.3939532">
  <ele>-25.037</ele>
  <time>2026-09-02T22:11:39Z</time>
  <course>192.65</course>
  <speed>1.0141498903022177</speed>
  <fix>3d</fix>
</trkpt>
<trkpt lat="33.8098789" lon="-118.3939527">
  <ele>-24.43</ele>
  <time>2026-09-02T22:11:39Z</time>
  <course>193.95</course>
  <speed>0.99</speed>
  <fix>3d</fix>
</trkpt>
<trkpt lat="33.8098757" lon="-118.3939534">
  <ele>-25.035</ele>
  <time>2026-09-02T22:11:39Z</time>
  <course>192.68</course>
  <speed>1.0141498903022177</speed>
  <fix>3d</fix>
</trkpt>
<trkpt lat="33.8098772" lon="-118.3939533">
  <ele>-24.43</ele>
  <time>2026-09-02T22:11:39Z</time>
  <course>194.0</course>
  <speed>0.99</speed>
  <fix>3d</fix>
</trkpt>
<trkpt lat="33.8098748" lon="-118.3939537">
  <ele>-25.033</ele>
  <time>2026-09-02T22:11:39Z</time>
  <course>192.69</course>
  <speed>1.0141498903022177</speed>
  <fix>3d</fix>
</trkpt>
<trkpt lat="33.8098772" lon="-118.3939533">
  <ele>-24.43</ele>
  <time>2026-09-02T22:11:39Z</time>
  <course>194.0</course>
  <speed>0.99</speed>
  <fix>3d</fix>
</trkpt>
<trkpt lat="33.809874" lon="-118.393954">
  <ele>-25.031</ele>
  <time>2026-09-02T22:11:39Z</time>
  <course>192.69</course>
  <speed>1.0141498903022177</speed>
  <fix>3d</fix>
</trkpt>
<trkpt lat="33.8098755" lon="-118.3939538">
  <ele>-24.43</ele>
  <time>2026-09-02T22:11:39Z</time>
  <course>194.01</course>
  <speed>0.99</speed>
  <fix>3d</fix>
</trkpt>
<trkpt lat="33.8098731" lon="-118.3939542">
  <ele>-25.032</ele>
  <time>2026-09-02T22:11:39Z</time>
  <course>192.68</course>
  <speed>1.0141498903022177</speed>
  <fix>3d</fix>
</trkpt>
<trkpt lat="33.8098755" lon="-118.3939538">
  <ele>-24.43</ele>
  <time>2026-09-02T22:11:39Z</time>
  <course>194.01</course>
  <speed>0.99</speed>
  <fix>3d</fix>
</trkpt>
<trkpt lat="33.8098722" lon="-118.3939545">
  <ele>-25.033</ele>
  <time>2026-09-02T22:11:39Z</time>
  <course>192.65</course>
  <speed>1.0141498903022177</speed>
  <fix>3d</fix>
</trkpt>
<trkpt lat="33.8098737" lon="-118.3939543">
  <ele>-24.43</ele>
  <time>2026-09-02T22:11:39Z</time>
  <course>193.96</course>
  <speed>0.99</speed>
  <fix>3d</fix>
</trkpt>
<trkpt lat="33.8098713" lon="-118.3939547">
  <ele>-25.034</ele>
  <time>2026-09-02T22:11:39Z</time>
  <course>192.63</course>
  <speed>1.0141498903022177</speed>
  <fix>3d</fix>
</trkpt>
<trkpt lat="33.8098737" lon="-118.3939543">
  <ele>-24.43</ele>
  <time>2026-09-02T22:11:39Z</time>
  <course>193.96</course>
  <speed>0.99</speed>
  <fix>3d</fix>
</trkpt>
<trkpt lat="33.8098705" lon="-118.393955">
  <ele>-25.034</ele>
  <time>2026-09-02T22:11:39Z</time>
  <course>192.62</course>
  <speed>1.0141498903022177</speed>
  <fix>3d</fix>
</trkpt>
<trkpt lat="33.809872" lon="-118.3939548">
  <ele>-24.43</ele>
  <time>2026-09-02T22:11:39Z</time>
  <course>193.92</course>
  <speed>0.99</speed>
  <fix>3d</fix>
</trkpt>
<trkpt lat="33.8098696" lon="-118.3939553">
  <ele>-25.034</ele>
  <time>2026-09-02T22:11:39Z</time>
  <course>192.62</course>
  <speed>1.0141498903022177</speed>
  <fix>3d</fix>
</trkpt>
<trkpt lat="33.809872" lon="-118.3939548">
  <ele>-24.43</ele>
  <time>2026-09-02T22:11:39Z</time>
  <course>193.92</course>
  <speed>0.99</speed>
  <fix>3d</fix>
</trkpt>
<trkpt lat="33.8098687" lon="-118.3939555">
  <ele>-25.034</ele>
  <time>2026-09-02T22:11:39Z</time>
  <course>192.62</course>
  <speed>1.0141498903022177</speed>
  <fix>3d</fix>
</trkpt>
<trkpt lat="33.8098702" lon="-118.3939553">
  <ele>-24.43</ele>
  <time>2026-09-02T22:11:39Z</time>
  <course>193.92</course>
  <speed>0.99</speed>
  <fix>3d</fix>
</trkpt>
<trkpt lat="33.8098679" lon="-118.3939558">
  <ele>-25.034</ele>
  <time>2026-09-02T22:11:39Z</time>
  <course>192.64</course>
  <speed>1.0141498903022177</speed>
  <fix>3d</fix>
</trkpt>
<trkpt lat="33.8098702" lon="-118.3939553">
  <ele>-24.43</ele>
  <time>2026-09-02T22:11:39Z</time>
  <course>193.92</course>
  <speed>0.99</speed>
  <fix>3d</fix>
</trkpt>
<trkpt lat="33.809867" lon="-118.393956">
  <ele>-25.034</ele>
  <time>2026-09-02T22:11:39Z</time>
  <course>192.66</course>
  <speed>1.0141498903022177</speed>
  <fix>3d</fix>
</trkpt>
<trkpt lat="33.8098685" lon="-118.3939559">
  <ele>-24.43</ele>
  <time>2026-09-02T22:11:39Z</time>
  <course>193.95</course>
  <speed>0.99</speed>
  <fix>3d</fix>
</trkpt>
<trkpt lat="33.8098661" lon="-118.3939563">
  <ele>-25.034</ele>
  <time>2026-09-02T22:11:39Z</time>
  <course>192.68</course>
  <speed>1.0141498903022177</speed>
  <fix>3d</fix>
</trkpt>
<trkpt lat="33.8098685" lon="-118.3939559">
  <ele>-24.43</ele>
  <time>2026-09-02T22:11:39Z</time>
  <course>193.95</course>
  <speed>0.99</speed>
  <fix>3d</fix>
</trkpt>
<trkpt lat="33.8098652" lon="-118.3939566">
  <ele>-25.034</ele>
  <time>2026-09-02T22:11:39Z</time>
  <course>192.69</course>
  <speed>1.0141498903022177</speed>
  <fix>3d</fix>
</trkpt>
<trkpt lat="33.8098667" lon="-118.3939564">
  <ele>-24.43</ele>
  <time>2026-09-02T22:11:39Z</time>
  <course>193.96</course>
  <speed>0.99</speed>
  <fix>3d</fix>
</trkpt>
<trkpt lat="33.8098644" lon="-118.3939568">
  <ele>-25.033</ele>
  <time>2026-09-02T22:11:39Z</time>
  <course>192.68</course>
  <speed>1.0141498903022177</speed>
  <fix>3d</fix>
</trkpt>
<trkpt lat="33.8098667" lon="-118.3939564">
  <ele>-24.43</ele>
  <time>2026-09-02T22:11:39Z</time>
  <course>193.96</course>
  <speed>0.99</speed>
  <fix>3d</fix>
</trkpt>
<trkpt lat="33.8098635" lon="-118.3939571">
  <ele>-25.032</ele>
  <time>2026-09-02T22:11:39Z</time>
  <course>192.67</course>
  <speed>1.0141498903022177</speed>
  <fix>3d</fix>
</trkpt>
<trkpt lat="33.809865" lon="-118.3939569">
  <ele>-24.43</ele>
  <time>2026-09-02T22:11:39Z</time>
  <course>193.95</course>
  <speed>0.99</speed>
  <fix>3d</fix>
</trkpt>
<trkpt lat="33.8098626" lon="-118.3939573">
  <ele>-25.031</ele>
  <time>2026-09-02T22:11:39Z</time>
  <course>192.67</course>
  <speed>1.0141498903022177</speed>
  <fix>3d</fix>
</trkpt>
<trkpt lat="33.809865" lon="-118.3939569">
  <ele>-24.43</ele>
  <time>2026-09-02T22:11:39Z</time>
  <course>193.95</course>
  <speed>0.99</speed>
  <fix>3d</fix>
</trkpt>
<trkpt lat="33.8098617" lon="-118.3939576">
  <ele>-25.031</ele>
  <time>2026-09-02T22:11:39Z</time>
  <course>192.67</course>
  <speed>1.0141498903022177</speed>
  <fix>3d</fix>
</trkpt>
<trkpt lat="33.8098633" lon="-118.3939574">
  <ele>-24.43</ele>
  <time>2026-09-02T22:11:39Z</time>
  <course>193.94</course>
  <speed>0.99</speed>
  <fix>3d</fix>
</trkpt>
<trkpt lat="33.8098609" lon="-118.3939579">
  <ele>-25.032</ele>
  <time>2026-09-02T22:11:39Z</time>
  <course>192.68</course>
  <speed>1.0141498903022177</speed>
  <fix>3d</fix>
</trkpt>
<trkpt lat="33.8098633" lon="-118.3939574">
  <ele>-24.43</ele>
  <time>2026-09-02T22:11:39Z</time>
  <course>193.94</course>
  <speed>0.99</speed>
  <fix>3d</fix>
</trkpt>
<trkpt lat="33.80986" lon="-118.3939581">
  <ele>-25.033</ele>
  <time>2026-09-02T22:11:39Z</time>
  <course>192.69</course>
  <speed>1.0141498903022177</speed>
  <fix>3d</fix>
</trkpt>
<trkpt lat="33.8098615" lon="-118.3939579">
  <ele>-24.43</ele>
  <time>2026-09-02T22:11:39Z</time>
  <course>193.95</course>
  <speed>0.99</speed>
  <fix>3d</fix>
</trkpt>
<trkpt lat="33.8098591" lon="-118.3939584">
  <ele>-25.034</ele>
  <time>2026-09-02T22:11:39Z</time>
  <course>192.7</course>
  <speed>1.0141498903022177</speed>
  <fix>3d</fix>
</trkpt>
<trkpt lat="33.8098615" lon="-118.3939579">
  <ele>-24.43</ele>
  <time>2026-09-02T22:11:39Z</time>
  <course>193.95</course>
  <speed>0.99</speed>
  <fix>3d</fix>
</trkpt>
<trkpt lat="33.8098583" lon="-118.3939586">
  <ele>-25.034</ele>
  <time>2026-09-02T22:11:39Z</time>
  <course>192.72</course>
  <speed>1.0141498903022177</speed>
  <fix>3d</fix>
</trkpt>
<trkpt lat="33.8098598" lon="-118.3939585">
  <ele>-24.43</ele>
  <time>2026-09-02T22:11:39Z</time>
  <course>193.98</course>
  <speed>1.0</speed>
  <fix>3d</fix>
</trkpt>
<trkpt lat="33.8098574" lon="-118.3939589">
  <ele>-25.035</ele>
  <time>2026-09-02T22:11:39Z</time>
  <course>192.73</course>
  <speed>1.0141498903022177</speed>
  <fix>3d</fix>
</trkpt>
<trkpt lat="33.8098598" lon="-118.3939585">
  <ele>-24.43</ele>
  <time>2026-09-02T22:11:39Z</time>
  <course>193.98</course>
  <speed>1.0</speed>
  <fix>3d</fix>
</trkpt>
<trkpt lat="33.8098565" lon="-118.3939592">
  <ele>-25.035</ele>
  <time>2026-09-02T22:11:39Z</time>
  <course>192.72</course>
  <speed>1.0141498903022177</speed>
  <fix>3d</fix>
</trkpt>
<trkpt lat="33.809858" lon="-118.393959">
  <ele>-24.43</ele>
  <time>2026-09-02T22:11:39Z</time>
  <course>194.0</course>
  <speed>1.0</speed>
  <fix>3d</fix>
</trkpt>
<trkpt lat="33.8098556" lon="-118.3939594">
  <ele>-25.035</ele>
  <time>2026-09-02T22:11:39Z</time>
  <course>192.72</course>
  <speed>1.0141498903022177</speed>
  <fix>3d</fix>
</trkpt>
<trkpt lat="33.809858" lon="-118.393959">
  <ele>-24.43</ele>
  <time>2026-09-02T22:11:39Z</time>
  <course>194.0</course>
  <speed>1.0</speed>
  <fix>3d</fix>
</trkpt>
<trkpt lat="33.8098548" lon="-118.3939597">
  <ele>-25.034</ele>
  <time>2026-09-02T22:11:39Z</time>
  <course>192.71</course>
  <speed>1.0141498903022177</speed>
  <fix>3d</fix>
</trkpt>
<trkpt lat="33.8098563" lon="-118.3939595">
  <ele>-24.43</ele>
  <time>2026-09-02T22:11:39Z</time>
  <course>193.98</course>
  <speed>1.0</speed>
  <fix>3d</fix>
</trkpt>
<trkpt lat="33.8098539" lon="-118.39396">
  <ele>-25.034</ele>
  <time>2026-09-02T22:11:39Z</time>
  <course>192.7</course>
  <speed>1.0141498903022177</speed>
  <fix>3d</fix>
</trkpt>
<trkpt lat="33.8098563" lon="-118.3939595">
  <ele>-24.43</ele>
  <time>2026-09-02T22:11:39Z</time>
  <course>193.98</course>
  <speed>1.0</speed>
  <fix>3d</fix>
</trkpt>
<trkpt lat="33.809853" lon="-118.3939602">
  <ele>-25.034</ele>
  <time>2026-09-02T22:11:39Z</time>
  <course>192.69</course>
  <speed>1.0141498903022177</speed>
  <fix>3d</fix>
</trkpt>
<trkpt lat="33.8098545" lon="-118.39396">
  <ele>-24.43</ele>
  <time>2026-09-02T22:11:39Z</time>
  <course>193.98</course>
  <speed>1.0</speed>
  <fix>3d</fix>
</trkpt>
<trkpt lat="33.8098521" lon="-118.3939605">
  <ele>-25.035</ele>
  <time>2026-09-02T22:11:39Z</time>
  <course>192.69</course>
  <speed>1.0141498903022177</speed>
  <fix>3d</fix>
</trkpt>
<trkpt lat="33.8098545" lon="-118.39396">
  <ele>-24.43</ele>
  <time>2026-09-02T22:11:39Z</time>
  <course>193.98</course>
  <speed>1.0</speed>
  <fix>3d</fix>
</trkpt>
<trkpt lat="33.8098513" lon="-118.3939607">
  <ele>-25.036</ele>
  <time>2026-09-02T22:11:39Z</time>
  <course>192.7</course>
  <speed>1.0141498903022177</speed>
  <fix>3d</fix>
</trkpt>
<trkpt lat="33.8098528" lon="-118.3939605">
  <ele>-24.43</ele>
  <time>2026-09-02T22:11:39Z</time>
  <course>194.01</course>
  <speed>1.0</speed>
  <fix>3d</fix>
</trkpt>
<trkpt lat="33.8098504" lon="-118.393961">
  <ele>-25.036</ele>
  <time>2026-09-02T22:11:39Z</time>
  <course>192.72</course>
  <speed>1.0141498903022177</speed>
  <fix>3d</fix>
</trkpt>
<trkpt lat="33.8098528" lon="-118.3939605">
  <ele>-24.43</ele>
  <time>2026-09-02T22:11:39Z</time>
  <course>194.01</course>
  <speed>1.0</speed>
  <fix>3d</fix>
</trkpt>
<trkpt lat="33.8098495" lon="-118.3939613">
  <ele>-25.036</ele>
  <time>2026-09-02T22:11:39Z</time>
  <course>192.74</course>
  <speed>1.0141498903022177</speed>
  <fix>3d</fix>
</trkpt>
<trkpt lat="33.8098511" lon="-118.3939611">
  <ele>-24.43</ele>
  <time>2026-09-02T22:11:39Z</time>
  <course>194.05</course>
  <speed>1.0</speed>
  <fix>3d</fix>
</trkpt>
<trkpt lat="33.8098487" lon="-118.3939615">
  <ele>-25.036</ele>
  <time>2026-09-02T22:11:39Z</time>
  <course>192.75</course>
  <speed>1.0141498903022177</speed>
  <fix>3d</fix>
</trkpt>
<trkpt lat="33.8098511" lon="-118.3939611">
  <ele>-24.43</ele>
  <time>2026-09-02T22:11:39Z</time>
  <course>194.05</course>
  <speed>1.0</speed>
  <fix>3d</fix>
</trkpt>
<trkpt lat="33.8098478" lon="-118.3939618">
  <ele>-25.034</ele>
  <time>2026-09-02T22:11:39Z</time>
  <course>192.74</course>
  <speed>1.0141498903022177</speed>
  <fix>3d</fix>
</trkpt>
<trkpt lat="33.8098493" lon="-118.3939616">
  <ele>-24.43</ele>
  <time>2026-09-02T22:11:39Z</time>
  <course>194.06</course>
  <speed>1.0</speed>
  <fix>3d</fix>
</trkpt>
<trkpt lat="33.8098469" lon="-118.393962">
  <ele>-25.033</ele>
  <time>2026-09-02T22:11:39Z</time>
  <course>192.73</course>
  <speed>1.0141498903022177</speed>
  <fix>3d</fix>
</trkpt>
<trkpt lat="33.8098493" lon="-118.3939616">
  <ele>-24.43</ele>
  <time>2026-09-02T22:11:39Z</time>
  <course>194.06</course>
  <speed>1.0</speed>
  <fix>3d</fix>
</trkpt>
<trkpt lat="33.8098461" lon="-118.3939623">
  <ele>-25.032</ele>
  <time>2026-09-02T22:11:39Z</time>
  <course>192.72</course>
  <speed>1.0141498903022177</speed>
  <fix>3d</fix>
</trkpt>
<trkpt lat="33.8098476" lon="-118.3939621">
  <ele>-24.42</ele>
  <time>2026-09-02T22:11:39Z</time>
  <course>194.03</course>
  <speed>1.0</speed>
  <fix>3d</fix>
</trkpt>
<trkpt lat="33.8098452" lon="-118.3939626">
  <ele>-25.03</ele>
  <time>2026-09-02T22:11:39Z</time>
  <course>192.71</course>
  <speed>1.0141498903022177</speed>
  <fix>3d</fix>
</trkpt>
<trkpt lat="33.8098476" lon="-118.3939621">
  <ele>-24.42</ele>
  <time>2026-09-02T22:11:39Z</time>
  <course>194.03</course>
  <speed>1.0</speed>
  <fix>3d</fix>
</trkpt>
<trkpt lat="33.8098443" lon="-118.3939628">
  <ele>-25.029</ele>
  <time>2026-09-02T22:11:39Z</time>
  <course>192.7</course>
  <speed>1.0141498903022177</speed>
  <fix>3d</fix>
</trkpt>
<trkpt lat="33.8098458" lon="-118.3939627">
  <ele>-24.42</ele>
  <time>2026-09-02T22:11:39Z</time>
  <course>194.01</course>
  <speed>1.0</speed>
  <fix>3d</fix>
</trkpt>
<trkpt lat="33.8098434" lon="-118.3939631">
  <ele>-25.028</ele>
  <time>2026-09-02T22:11:39Z</time>
  <course>192.69</course>
  <speed>1.0141498903022177</speed>
  <fix>3d</fix>
</trkpt>
<trkpt lat="33.8098458" lon="-118.3939627">
  <ele>-24.42</ele>
  <time>2026-09-02T22:11:39Z</time>
  <course>194.01</course>
  <speed>1.0</speed>
  <fix>3d</fix>
</trkpt>
<trkpt lat="33.8098425" lon="-118.3939634">
  <ele>-25.028</ele>
  <time>2026-09-02T22:11:39Z</time>
  <course>192.67</course>
  <speed>1.0141498903022177</speed>
  <fix>3d</fix>
</trkpt>
<trkpt lat="33.809844" lon="-118.3939632">
  <ele>-24.42</ele>
  <time>2026-09-02T22:11:39Z</time>
  <course>193.98</course>
  <speed>1.0</speed>
  <fix>3d</fix>
</trkpt>
<trkpt lat="33.8098417" lon="-118.3939636">
  <ele>-25.028</ele>
  <time>2026-09-02T22:11:39Z</time>
  <course>192.65</course>
  <speed>1.0141498903022177</speed>
  <fix>3d</fix>
</trkpt>
<trkpt lat="33.809844" lon="-118.3939632">
  <ele>-24.42</ele>
  <time>2026-09-02T22:11:39Z</time>
  <course>193.98</course>
  <speed>1.0</speed>
  <fix>3d</fix>
</trkpt>
<trkpt lat="33.8098408" lon="-118.3939639">
  <ele>-25.028</ele>
  <time>2026-09-02T22:11:39Z</time>
  <course>192.63</course>
  <speed>1.0141498903022177</speed>
  <fix>3d</fix>
</trkpt>
<trkpt lat="33.8098423" lon="-118.3939637">
  <ele>-24.42</ele>
  <time>2026-09-02T22:11:39Z</time>
  <course>193.95</course>
  <speed>1.0</speed>
  <fix>3d</fix>
</trkpt>
<trkpt lat="33.8098399" lon="-118.3939641">
  <ele>-25.03</ele>
  <time>2026-09-02T22:11:39Z</time>
  <course>192.62</course>
  <speed>1.0141498903022177</speed>
  <fix>3d</fix>
</trkpt>
<trkpt lat="33.8098423" lon="-118.3939637">
  <ele>-24.42</ele>
  <time>2026-09-02T22:11:39Z</time>
  <course>193.95</course>
  <speed>1.0</speed>
  <fix>3d</fix>
</trkpt>
<trkpt lat="33.8098391" lon="-118.3939644">
  <ele>-25.032</ele>
  <time>2026-09-02T22:11:39Z</time>
  <course>192.62</course>
  <speed>1.0141498903022177</speed>
  <fix>3d</fix>
</trkpt>
<trkpt lat="33.8098406" lon="-118.3939642">
  <ele>-24.42</ele>
  <time>2026-09-02T22:11:39Z</time>
  <course>193.93</course>
  <speed>1.0</speed>
  <fix>3d</fix>
</trkpt>
<trkpt lat="33.8098382" lon="-118.3939647">
  <ele>-25.034</ele>
  <time>2026-09-02T22:11:39Z</time>
  <course>192.62</course>
  <speed>1.0141498903022177</speed>
  <fix>3d</fix>
</trkpt>
<trkpt lat="33.8098406" lon="-118.3939642">
  <ele>-24.42</ele>
  <time>2026-09-02T22:11:39Z</time>
  <course>193.93</course>
  <speed>1.0</speed>
  <fix>3d</fix>
</trkpt>
<trkpt lat="33.8098373" lon="-118.3939649">
  <ele>-25.035</ele>
  <time>2026-09-02T22:11:39Z</time>
  <course>192.63</course>
  <speed>1.0141498903022177</speed>
  <fix>3d</fix>
</trkpt>
<trkpt lat="33.8098388" lon="-118.3939648">
  <ele>-24.43</ele>
  <time>2026-09-02T22:11:39Z</time>
  <course>193.94</course>
  <speed>1.0</speed>
  <fix>3d</fix>
</trkpt>
<trkpt lat="33.8098364" lon="-118.3939652">
  <ele>-25.036</ele>
  <time>2026-09-02T22:11:39Z</time>
  <course>192.63</course>
  <speed>1.0141498903022177</speed>
  <fix>3d</fix>
</trkpt>
<trkpt lat="33.8098388" lon="-118.3939648">
  <ele>-24.43</ele>
  <time>2026-09-02T22:11:39Z</time>
  <course>193.94</course>
  <speed>1.0</speed>
  <fix>3d</fix>
</trkpt>
<trkpt lat="33.8098356" lon="-118.3939655">
  <ele>-25.036</ele>
  <time>2026-09-02T22:11:39Z</time>
  <course>192.62</course>
  <speed>1.0141498903022177</speed>
  <fix>3d</fix>
</trkpt>
<trkpt lat="33.809837" lon="-118.3939653">
  <ele>-24.43</ele>
  <time>2026-09-02T22:11:39Z</time>
  <course>193.94</course>
  <speed>1.0</speed>
  <fix>3d</fix>
</trkpt>
<trkpt lat="33.8098347" lon="-118.3939657">
  <ele>-25.036</ele>
  <time>2026-09-02T22:11:39Z</time>
  <course>192.61</course>
  <speed>1.0141498903022177</speed>
  <fix>3d</fix>
</trkpt>
<trkpt lat="33.809837" lon="-118.3939653">
  <ele>-24.43</ele>
  <time>2026-09-02T22:11:39Z</time>
  <course>193.94</course>
  <speed>1.0</speed>
  <fix>3d</fix>
</trkpt>
<trkpt lat="33.8098338" lon="-118.393966">
  <ele>-25.036</ele>
  <time>2026-09-02T22:11:39Z</time>
  <course>192.6</course>
  <speed>1.0141498903022177</speed>
  <fix>3d</fix>
</trkpt>
<trkpt lat="33.8098353" lon="-118.3939658">
  <ele>-24.43</ele>
  <time>2026-09-02T22:11:39Z</time>
  <course>193.91</course>
  <speed>1.0</speed>
  <fix>3d</fix>
</trkpt>
<trkpt lat="33.8098329" lon="-118.3939662">
  <ele>-25.036</ele>
  <time>2026-09-02T22:11:39Z</time>
  <course>192.6</course>
  <speed>1.0141498903022177</speed>
  <fix>3d</fix>
</trkpt>
<trkpt lat="33.8098353" lon="-118.3939658">
  <ele>-24.43</ele>
  <time>2026-09-02T22:11:39Z</time>
  <course>193.91</course>
  <speed>1.0</speed>
  <fix>3d</fix>
</trkpt>
<trkpt lat="33.8098321" lon="-118.3939665">
  <ele>-25.035</ele>
  <time>2026-09-02T22:11:39Z</time>
  <course>192.59</course>
  <speed>1.0141498903022177</speed>
  <fix>3d</fix>
</trkpt>
<trkpt lat="33.8098336" lon="-118.3939663">
  <ele>-24.43</ele>
  <time>2026-09-02T22:11:39Z</time>
  <course>193.91</course>
  <speed>0.99</speed>
  <fix>3d</fix>
</trkpt>
<trkpt lat="33.8098312" lon="-118.3939668">
  <ele>-25.033</ele>
  <time>2026-09-02T22:11:39Z</time>
  <course>192.6</course>
  <speed>1.0141498903022177</speed>
  <fix>3d</fix>
</trkpt>
<trkpt lat="33.8098336" lon="-118.3939663">
  <ele>-24.43</ele>
  <time>2026-09-02T22:11:39Z</time>
  <course>193.91</course>
  <speed>0.99</speed>
  <fix>3d</fix>
</trkpt>
<trkpt lat="33.8098303" lon="-118.393967">
  <ele>-25.032</ele>
  <time>2026-09-02T22:11:39Z</time>
  <course>192.61</course>
  <speed>1.0141498903022177</speed>
  <fix>3d</fix>
</trkpt>
<trkpt lat="33.8098318" lon="-118.3939668">
  <ele>-24.42</ele>
  <time>2026-09-02T22:11:39Z</time>
  <course>193.92</course>
  <speed>0.99</speed>
  <fix>3d</fix>
</trkpt>
<trkpt lat="33.8098294" lon="-118.3939673">
  <ele>-25.03</ele>
  <time>2026-09-02T22:11:39Z</time>
  <course>192.63</course>
  <speed>1.0141498903022177</speed>
  <fix>3d</fix>
</trkpt>
<trkpt lat="33.8098318" lon="-118.3939668">
  <ele>-24.42</ele>
  <time>2026-09-02T22:11:39Z</time>
  <course>193.92</course>
  <speed>0.99</speed>
  <fix>3d</fix>
</trkpt>
<trkpt lat="33.8098286" lon="-118.3939675">
  <ele>-25.028</ele>
  <time>2026-09-02T22:11:39Z</time>
  <course>192.65</course>
  <speed>1.0141498903022177</speed>
  <fix>3d</fix>
</trkpt>
<trkpt lat="33.8098301" lon="-118.3939674">
  <ele>-24.42</ele>
  <time>2026-09-02T22:11:39Z</time>
  <course>193.95</course>
  <speed>0.99</speed>
  <fix>3d</fix>
</trkpt>
<trkpt lat="33.8098277" lon="-118.3939678">
  <ele>-25.027</ele>
  <time>2026-09-02T22:11:39Z</time>
  <course>192.67</course>
  <speed>1.0141498903022177</speed>
  <fix>3d</fix>
</trkpt>
<trkpt lat="33.8098301" lon="-118.3939674">
  <ele>-24.42</ele>
  <time>2026-09-02T22:11:39Z</time>
  <course>193.95</course>
  <speed>0.99</speed>
  <fix>3d</fix>
</trkpt>
<trkpt lat="33.8098268" lon="-118.3939681">
  <ele>-25.027</ele>
  <time>2026-09-02T22:11:39Z</time>
  <course>192.67</course>
  <speed>1.0141498903022177</speed>
  <fix>3d</fix>
</trkpt>
<trkpt lat="33.8098284" lon="-118.3939679">
  <ele>-24.42</ele>
  <time>2026-09-02T22:11:39Z</time>
  <course>193.94</course>
  <speed>0.99</speed>
  <fix>3d</fix>
</trkpt>
<trkpt lat="33.809826" lon="-118.3939683">
  <ele>-25.026</ele>
  <time>2026-09-02T22:11:39Z</time>
  <course>192.66</course>
  <speed>1.0141498903022177</speed>
  <fix>3d</fix>
</trkpt>
<trkpt lat="33.8098284" lon="-118.3939679">
  <ele>-24.42</ele>
  <time>2026-09-02T22:11:39Z</time>
  <course>193.94</course>
  <speed>0.99</speed>
  <fix>3d</fix>
</trkpt>
<trkpt lat="33.8098251" lon="-118.3939686">
  <ele>-25.027</ele>
  <time>2026-09-02T22:11:39Z</time>
  <course>192.64</course>
  <speed>1.0141498903022177</speed>
  <fix>3d</fix>
</trkpt>
<trkpt lat="33.8098266" lon="-118.3939684">
  <ele>-24.42</ele>
  <time>2026-09-02T22:11:39Z</time>
  <course>193.91</course>
  <speed>1.0</speed>
  <fix>3d</fix>
</trkpt>
<trkpt lat="33.8098242" lon="-118.3939688">
  <ele>-25.028</ele>
  <time>2026-09-02T22:11:39Z</time>
  <course>192.64</course>
  <speed>1.0141498903022177</speed>
  <fix>3d</fix>
</trkpt>
<trkpt lat="33.8098266" lon="-118.3939684">
  <ele>-24.42</ele>
  <time>2026-09-02T22:11:39Z</time>
  <course>193.91</course>
  <speed>1.0</speed>
  <fix>3d</fix>
</trkpt>
<trkpt lat="33.8098233" lon="-118.3939691">
  <ele>-25.03</ele>
  <time>2026-09-02T22:11:39Z</time>
  <course>192.63</course>
  <speed>1.0141498903022177</speed>
  <fix>3d</fix>
</trkpt>
<trkpt lat="33.8098248" lon="-118.3939689">
  <ele>-24.42</ele>
  <time>2026-09-02T22:11:39Z</time>
  <course>193.9</course>
  <speed>1.0</speed>
  <fix>3d</fix>
</trkpt>
<trkpt lat="33.8098225" lon="-118.3939694">
  <ele>-25.032</ele>
  <time>2026-09-02T22:11:39Z</time>
  <course>192.64</course>
  <speed>1.0141498903022177</speed>
  <fix>3d</fix>
</trkpt>
<trkpt lat="33.8098248" lon="-118.3939689">
  <ele>-24.42</ele>
  <time>2026-09-02T22:11:39Z</time>
  <course>193.9</course>
  <speed>1.0</speed>
  <fix>3d</fix>
</trkpt>
<trkpt lat="33.8098216" lon="-118.3939696">
  <ele>-25.033</ele>
  <time>2026-09-02T22:11:39Z</time>
  <course>192.65</course>
  <speed>1.0141498903022177</speed>
  <fix>3d</fix>
</trkpt>
<trkpt lat="33.8098231" lon="-118.3939694">
  <ele>-24.43</ele>
  <time>2026-09-02T22:11:39Z</time>
  <course>193.93</course>
  <speed>1.0</speed>
  <fix>3d</fix>
</trkpt>
<trkpt lat="33.8098207" lon="-118.3939699">
  <ele>-25.033</ele>
  <time>2026-09-02T22:11:39Z</time>
  <course>192.68</course>
  <speed>1.0141498903022177</speed>
  <fix>3d</fix>
</trkpt>
<trkpt lat="33.8098231" lon="-118.3939694">
  <ele>-24.43</ele>
  <time>2026-09-02T22:11:39Z</time>
  <course>193.93</course>
  <speed>1.0</speed>
  <fix>3d</fix>
</trkpt>
<trkpt lat="33.8098199" lon="-118.3939701">
  <ele>-25.034</ele>
  <time>2026-09-02T22:11:39Z</time>
  <course>192.7</course>
  <speed>1.0239140588936164</speed>
  <fix>3d</fix>
</trkpt>
<trkpt lat="33.8098214" lon="-118.39397">
  <ele>-24.43</ele>
  <time>2026-09-02T22:11:39Z</time>
  <course>193.96</course>
  <speed>1.0</speed>
  <fix>3d</fix>
</trkpt>
<trkpt lat="33.809819" lon="-118.3939704">
  <ele>-25.033</ele>
  <time>2026-09-02T22:11:39Z</time>
  <course>192.72</course>
  <speed>1.0239140588936164</speed>
  <fix>3d</fix>
</trkpt>
<trkpt lat="33.8098214" lon="-118.39397">
  <ele>-24.43</ele>
  <time>2026-09-02T22:11:39Z</time>
  <course>193.96</course>
  <speed>1.0</speed>
  <fix>3d</fix>
</trkpt>
<trkpt lat="33.8098181" lon="-118.3939707">
  <ele>-25.034</ele>
  <time>2026-09-02T22:11:39Z</time>
  <course>192.72</course>
  <speed>1.0239140588936164</speed>
  <fix>3d</fix>
</trkpt>
<trkpt lat="33.8098196" lon="-118.3939705">
  <ele>-24.43</ele>
  <time>2026-09-02T22:11:39Z</time>
  <course>193.96</course>
  <speed>1.0</speed>
  <fix>3d</fix>
</trkpt>
<trkpt lat="33.8098172" lon="-118.3939709">
  <ele>-25.035</ele>
  <time>2026-09-02T22:11:39Z</time>
  <course>192.71</course>
  <speed>1.0239140588936164</speed>
  <fix>3d</fix>
</trkpt>
<trkpt lat="33.8098196" lon="-118.3939705">
  <ele>-24.43</ele>
  <time>2026-09-02T22:11:39Z</time>
  <course>193.96</course>
  <speed>1.0</speed>
  <fix>3d</fix>
</trkpt>
<trkpt lat="33.8098164" lon="-118.3939712">
  <ele>-25.036</ele>
  <time>2026-09-02T22:11:39Z</time>
  <course>192.7</course>
  <speed>1.0239140588936164</speed>
  <fix>3d</fix>
</trkpt>
<trkpt lat="33.8098179" lon="-118.393971">
  <ele>-24.43</ele>
  <time>2026-09-02T22:11:39Z</time>
  <course>193.94</course>
  <speed>1.0</speed>
  <fix>3d</fix>
</trkpt>
<trkpt lat="33.8098155" lon="-118.3939714">
  <ele>-25.037</ele>
  <time>2026-09-02T22:11:39Z</time>
  <course>192.69</course>
  <speed>1.0239140588936164</speed>
  <fix>3d</fix>
</trkpt>
<trkpt lat="33.8098179" lon="-118.393971">
  <ele>-24.43</ele>
  <time>2026-09-02T22:11:39Z</time>
  <course>193.94</course>
  <speed>1.0</speed>
  <fix>3d</fix>
</trkpt>
<trkpt lat="33.8098146" lon="-118.3939717">
  <ele>-25.038</ele>
  <time>2026-09-02T22:11:39Z</time>
  <course>192.68</course>
  <speed>1.0239140588936164</speed>
  <fix>3d</fix>
</trkpt>
<trkpt lat="33.8098161" lon="-118.3939715">
  <ele>-24.43</ele>
  <time>2026-09-02T22:11:39Z</time>
  <course>193.93</course>
  <speed>1.0</speed>
  <fix>3d</fix>
</trkpt>
<trkpt lat="33.8098138" lon="-118.393972">
  <ele>-25.038</ele>
  <time>2026-09-02T22:11:39Z</time>
  <course>192.68</course>
  <speed>1.0239140588936164</speed>
  <fix>3d</fix>
</trkpt>
<trkpt lat="33.8098161" lon="-118.3939715">
  <ele>-24.43</ele>
  <time>2026-09-02T22:11:39Z</time>
  <course>193.93</course>
  <speed>1.0</speed>
  <fix>3d</fix>
</trkpt>
<trkpt lat="33.8098129" lon="-118.3939722">
  <ele>-25.037</ele>
  <time>2026-09-02T22:11:39Z</time>
  <course>192.69</course>
  <speed>1.0239140588936164</speed>
  <fix>3d</fix>
</trkpt>
<trkpt lat="33.8098143" lon="-118.393972">
  <ele>-24.42</ele>
  <time>2026-09-02T22:11:39Z</time>
  <course>193.94</course>
  <speed>1.0</speed>
  <fix>3d</fix>
</trkpt>
<trkpt lat="33.809812" lon="-118.3939725">
  <ele>-25.035</ele>
  <time>2026-09-02T22:11:39Z</time>
  <course>192.72</course>
  <speed>1.0239140588936164</speed>
  <fix>3d</fix>
</trkpt>
<trkpt lat="33.8098143" lon="-118.393972">
  <ele>-24.42</ele>
  <time>2026-09-02T22:11:39Z</time>
  <course>193.94</course>
  <speed>1.0</speed>
  <fix>3d</fix>
</trkpt>
<trkpt lat="33.8098111" lon="-118.3939727">
  <ele>-25.032</ele>
  <time>2026-09-02T22:11:39Z</time>
  <course>192.74</course>
  <speed>1.0141498903022177</speed>
  <fix>3d</fix>
</trkpt>
<trkpt lat="33.8098126" lon="-118.3939726">
  <ele>-24.42</ele>
  <time>2026-09-02T22:11:39Z</time>
  <course>194.0</course>
  <speed>1.0</speed>
  <fix>3d</fix>
</trkpt>
<trkpt lat="33.8098103" lon="-118.393973">
  <ele>-25.029</ele>
  <time>2026-09-02T22:11:39Z</time>
  <course>192.76</course>
  <speed>1.0141498903022177</speed>
  <fix>3d</fix>
</trkpt>
<trkpt lat="33.8098126" lon="-118.3939726">
  <ele>-24.42</ele>
  <time>2026-09-02T22:11:39Z</time>
  <course>194.0</course>
  <speed>1.0</speed>
  <fix>3d</fix>
</trkpt>
<trkpt lat="33.8098094" lon="-118.3939733">
  <ele>-25.026</ele>
  <time>2026-09-02T22:11:39Z</time>
  <course>192.77</course>
  <speed>1.0141498903022177</speed>
  <fix>3d</fix>
</trkpt>
<trkpt lat="33.8098108" lon="-118.3939731">
  <ele>-24.41</ele>
  <time>2026-09-02T22:11:39Z</time>
  <course>194.03</course>
  <speed>1.0</speed>
  <fix>3d</fix>
</trkpt>
<trkpt lat="33.8098085" lon="-118.3939735">
  <ele>-25.025</ele>
  <time>2026-09-02T22:11:39Z</time>
  <course>192.77</course>
  <speed>1.0141498903022177</speed>
  <fix>3d</fix>
</trkpt>
<trkpt lat="33.8098108" lon="-118.3939731">
  <ele>-24.41</ele>
  <time>2026-09-02T22:11:39Z</time>
  <course>194.03</course>
  <speed>1.0</speed>
  <fix>3d</fix>
</trkpt>
<trkpt lat="33.8098076" lon="-118.3939738">
  <ele>-25.024</ele>
  <time>2026-09-02T22:11:39Z</time>
  <course>192.77</course>
  <speed>1.0141498903022177</speed>
  <fix>3d</fix>
</trkpt>
<trkpt lat="33.809809" lon="-118.3939736">
  <ele>-24.41</ele>
  <time>2026-09-02T22:11:39Z</time>
  <course>194.0</course>
  <speed>1.0</speed>
  <fix>3d</fix>
</trkpt>
<trkpt lat="33.8098068" lon="-118.3939741">
  <ele>-25.024</ele>
  <time>2026-09-02T22:11:39Z</time>
  <course>192.77</course>
  <speed>1.0141498903022177</speed>
  <fix>3d</fix>
</trkpt>
<trkpt lat="33.809809" lon="-118.3939736">
  <ele>-24.41</ele>
  <time>2026-09-02T22:11:39Z</time>
  <course>194.0</course>
  <speed>1.0</speed>
  <fix>3d</fix>
</trkpt>
<trkpt lat="33.8098059" lon="-118.3939743">
  <ele>-25.023</ele>
  <time>2026-09-02T22:11:39Z</time>
  <course>192.78</course>
  <speed>1.0141498903022177</speed>
  <fix>3d</fix>
</trkpt>
<trkpt lat="33.8098073" lon="-118.3939742">
  <ele>-24.41</ele>
  <time>2026-09-02T22:11:39Z</time>
  <course>194.0</course>
  <speed>1.0</speed>
  <fix>3d</fix>
</trkpt>
<trkpt lat="33.809805" lon="-118.3939746">
  <ele>-25.024</ele>
  <time>2026-09-02T22:11:39Z</time>
  <course>192.79</course>
  <speed>1.0141498903022177</speed>
  <fix>3d</fix>
</trkpt>
<trkpt lat="33.8098073" lon="-118.3939742">
  <ele>-24.41</ele>
  <time>2026-09-02T22:11:39Z</time>
  <course>194.0</course>
  <speed>1.0</speed>
  <fix>3d</fix>
</trkpt>
<trkpt lat="33.8098041" lon="-118.3939748">
  <ele>-25.026</ele>
  <time>2026-09-02T22:11:39Z</time>
  <course>192.79</course>
  <speed>1.0141498903022177</speed>
  <fix>3d</fix>
</trkpt>
<trkpt lat="33.8098056" lon="-118.3939747">
  <ele>-24.41</ele>
  <time>2026-09-02T22:11:39Z</time>
  <course>194.01</course>
  <speed>1.0</speed>
  <fix>3d</fix>
</trkpt>
<trkpt lat="33.8098033" lon="-118.3939751">
  <ele>-25.027</ele>
  <time>2026-09-02T22:11:39Z</time>
  <course>192.77</course>
  <speed>1.0141498903022177</speed>
  <fix>3d</fix>
</trkpt>
<trkpt lat="33.8098056" lon="-118.3939747">
  <ele>-24.41</ele>
  <time>2026-09-02T22:11:39Z</time>
  <course>194.01</course>
  <speed>1.0</speed>
  <fix>3d</fix>
</trkpt>
<trkpt lat="33.8098024" lon="-118.3939754">
  <ele>-25.029</ele>
  <time>2026-09-02T22:11:39Z</time>
  <course>192.75</course>
  <speed>1.0141498903022177</speed>
  <fix>3d</fix>
</trkpt>
<trkpt lat="33.8098038" lon="-118.3939752">
  <ele>-24.42</ele>
  <time>2026-09-02T22:11:39Z</time>
  <course>193.98</course>
  <speed>1.0</speed>
  <fix>3d</fix>
</trkpt>
<trkpt lat="33.8098015" lon="-118.3939756">
  <ele>-25.03</ele>
  <time>2026-09-02T22:11:39Z</time>
  <course>192.74</course>
  <speed>1.0141498903022177</speed>
  <fix>3d</fix>
</trkpt>
<trkpt lat="33.8098038" lon="-118.3939752">
  <ele>-24.42</ele>
  <time>2026-09-02T22:11:39Z</time>
  <course>193.98</course>
  <speed>1.0</speed>
  <fix>3d</fix>
</trkpt>
<trkpt lat="33.8098006" lon="-118.3939759">
  <ele>-25.03</ele>
  <time>2026-09-02T22:11:39Z</time>
  <course>192.73</course>
  <speed>1.0141498903022177</speed>
  <fix>3d</fix>
</trkpt>
<trkpt lat="33.8098021" lon="-118.3939757">
  <ele>-24.42</ele>
  <time>2026-09-02T22:11:39Z</time>
  <course>193.96</course>
  <speed>1.0</speed>
  <fix>3d</fix>
</trkpt>
<trkpt lat="33.8097998" lon="-118.3939761">
  <ele>-25.031</ele>
  <time>2026-09-02T22:11:39Z</time>
  <course>192.72</course>
  <speed>1.0141498903022177</speed>
  <fix>3d</fix>
</trkpt>
<trkpt lat="33.8098021" lon="-118.3939757">
  <ele>-24.42</ele>
  <time>2026-09-02T22:11:39Z</time>
  <course>193.96</course>
  <speed>1.0</speed>
  <fix>3d</fix>
</trkpt>
<trkpt lat="33.8097989" lon="-118.3939764">
  <ele>-25.032</ele>
  <time>2026-09-02T22:11:39Z</time>
  <course>192.73</course>
  <speed>1.0141498903022177</speed>
  <fix>3d</fix>
</trkpt>
<trkpt lat="33.8098003" lon="-118.3939763">
  <ele>-24.43</ele>
  <time>2026-09-02T22:11:39Z</time>
  <course>193.97</course>
  <speed>1.0</speed>
  <fix>3d</fix>
</trkpt>
<trkpt lat="33.809798" lon="-118.3939767">
  <ele>-25.033</ele>
  <time>2026-09-02T22:11:39Z</time>
  <course>192.73</course>
  <speed>1.0141498903022177</speed>
  <fix>3d</fix>
</trkpt>
<trkpt lat="33.8098003" lon="-118.3939763">
  <ele>-24.43</ele>
  <time>2026-09-02T22:11:39Z</time>
  <course>193.97</course>
  <speed>1.0</speed>
  <fix>3d</fix>
</trkpt>
<trkpt lat="33.8097971" lon="-118.3939769">
  <ele>-25.034</ele>
  <time>2026-09-02T22:11:39Z</time>
  <course>192.72</course>
  <speed>1.0141498903022177</speed>
  <fix>3d</fix>
</trkpt>
<trkpt lat="33.8097985" lon="-118.3939768">
  <ele>-24.43</ele>
  <time>2026-09-02T22:11:39Z</time>
  <course>193.98</course>
  <speed>1.0</speed>
  <fix>3d</fix>
</trkpt>
<trkpt lat="33.8097963" lon="-118.3939772">
  <ele>-25.034</ele>
  <time>2026-09-02T22:11:39Z</time>
  <course>192.71</course>
  <speed>1.0141498903022177</speed>
  <fix>3d</fix>
</trkpt>
<trkpt lat="33.8097985" lon="-118.3939768">
  <ele>-24.43</ele>
  <time>2026-09-02T22:11:39Z</time>
  <course>193.98</course>
  <speed>1.0</speed>
  <fix>3d</fix>
</trkpt>
<trkpt lat="33.8097954" lon="-118.3939775">
  <ele>-25.033</ele>
  <time>2026-09-02T22:11:39Z</time>
  <course>192.7</course>
  <speed>1.0141498903022177</speed>
  <fix>3d</fix>
</trkpt>
<trkpt lat="33.8097968" lon="-118.3939773">
  <ele>-24.43</ele>
  <time>2026-09-02T22:11:39Z</time>
  <course>193.95</course>
  <speed>1.0</speed>
  <fix>3d</fix>
</trkpt>
<trkpt lat="33.8097945" lon="-118.3939777">
  <ele>-25.032</ele>
  <time>2026-09-02T22:11:39Z</time>
  <course>192.7</course>
  <speed>1.0141498903022177</speed>
  <fix>3d</fix>
</trkpt>
<trkpt lat="33.8097968" lon="-118.3939773">
  <ele>-24.43</ele>
  <time>2026-09-02T22:11:39Z</time>
  <course>193.95</course>
  <speed>1.0</speed>
  <fix>3d</fix>
</trkpt>
<trkpt lat="33.8097936" lon="-118.393978">
  <ele>-25.032</ele>
  <time>2026-09-02T22:11:39Z</time>
  <course>192.7</course>
  <speed>1.0141498903022177</speed>
  <fix>3d</fix>
</trkpt>
<trkpt lat="33.8097951" lon="-118.3939778">
  <ele>-24.42</ele>
  <time>2026-09-02T22:11:39Z</time>
  <course>193.94</course>
  <speed>0.99</speed>
  <fix>3d</fix>
</trkpt>
<trkpt lat="33.8097928" lon="-118.3939782">
  <ele>-25.031</ele>
  <time>2026-09-02T22:11:39Z</time>
  <course>192.7</course>
  <speed>1.0141498903022177</speed>
  <fix>3d</fix>
</trkpt>
<trkpt lat="33.8097951" lon="-118.3939778">
  <ele>-24.42</ele>
  <time>2026-09-02T22:11:39Z</time>
  <course>193.94</course>
  <speed>0.99</speed>
  <fix>3d</fix>
</trkpt>
<trkpt lat="33.8097919" lon="-118.3939785">
  <ele>-25.031</ele>
  <time>2026-09-02T22:11:39Z</time>
  <course>192.71</course>
  <speed>1.0141498903022177</speed>
  <fix>3d</fix>
</trkpt>
<trkpt lat="33.8097933" lon="-118.3939784">
  <ele>-24.42</ele>
  <time>2026-09-02T22:11:39Z</time>
  <course>193.96</course>
  <speed>0.99</speed>
  <fix>3d</fix>
</trkpt>
<trkpt lat="33.809791" lon="-118.3939788">
  <ele>-25.03</ele>
  <time>2026-09-02T22:11:40Z</time>
  <course>192.73</course>
  <speed>1.0141498903022177</speed>
  <fix>3d</fix>
</trkpt>
<trkpt lat="33.8097933" lon="-118.3939784">
  <ele>-24.42</ele>
  <time>2026-09-02T22:11:40Z</time>
  <course>193.96</course>
  <speed>0.99</speed>
  <fix>3d</fix>
</trkpt>
<trkpt lat="33.8097901" lon="-118.393979">
  <ele>-25.028</ele>
  <time>2026-09-02T22:11:40Z</time>
  <course>192.72</course>
  <speed>1.0141498903022177</speed>
  <fix>3d</fix>
</trkpt>
<trkpt lat="33.8097916" lon="-118.3939789">
  <ele>-24.42</ele>
  <time>2026-09-02T22:11:40Z</time>
  <course>193.95</course>
  <speed>0.99</speed>
  <fix>3d</fix>
</trkpt>
<trkpt lat="33.8097893" lon="-118.3939793">
  <ele>-25.026</ele>
  <time>2026-09-02T22:11:40Z</time>
  <course>192.71</course>
  <speed>1.0141498903022177</speed>
  <fix>3d</fix>
</trkpt>
<trkpt lat="33.8097916" lon="-118.3939789">
  <ele>-24.42</ele>
  <time>2026-09-02T22:11:40Z</time>
  <course>193.95</course>
  <speed>0.99</speed>
  <fix>3d</fix>
</trkpt>
<trkpt lat="33.8097884" lon="-118.3939796">
  <ele>-25.025</ele>
  <time>2026-09-02T22:11:40Z</time>
  <course>192.68</course>
  <speed>1.0141498903022177</speed>
  <fix>3d</fix>
</trkpt>
<trkpt lat="33.8097899" lon="-118.3939794">
  <ele>-24.42</ele>
  <time>2026-09-02T22:11:40Z</time>
  <course>193.92</course>
  <speed>0.99</speed>
  <fix>3d</fix>
</trkpt>
<trkpt lat="33.8097875" lon="-118.3939798">
  <ele>-25.024</ele>
  <time>2026-09-02T22:11:40Z</time>
  <course>192.66</course>
  <speed>0.9924716620639604</speed>
  <fix>3d</fix>
</trkpt>
<trkpt lat="33.8097899" lon="-118.3939794">
  <ele>-24.42</ele>
  <time>2026-09-02T22:11:40Z</time>
  <course>193.92</course>
  <speed>0.99</speed>
  <fix>3d</fix>
</trkpt>
<trkpt lat="33.8097867" lon="-118.3939801">
  <ele>-25.025</ele>
  <time>2026-09-02T22:11:40Z</time>
  <course>192.64</course>
  <speed>0.9729337079164233</speed>
  <fix>3d</fix>
</trkpt>
<trkpt lat="33.8097881" lon="-118.3939799">
  <ele>-24.42</ele>
  <time>2026-09-02T22:11:40Z</time>
  <course>193.89</course>
  <speed>0.98</speed>
  <fix>3d</fix>
</trkpt>
<trkpt lat="33.8097859" lon="-118.3939803">
  <ele>-25.027</ele>
  <time>2026-09-02T22:11:40Z</time>
  <course>192.62</course>
  <speed>0.9414881836751856</speed>
  <fix>3d</fix>
</trkpt>
<trkpt lat="33.8097881" lon="-118.3939799">
  <ele>-24.42</ele>
  <time>2026-09-02T22:11:40Z</time>
  <course>193.89</course>
  <speed>0.98</speed>
  <fix>3d</fix>
</trkpt>
<trkpt lat="33.8097851" lon="-118.3939805">
  <ele>-25.029</ele>
  <time>2026-09-02T22:11:40Z</time>
  <course>192.6</course>
  <speed>0.9100549433962765</speed>
  <fix>3d</fix>
</trkpt>
<trkpt lat="33.8097864" lon="-118.3939804">
  <ele>-24.42</ele>
  <time>2026-09-02T22:11:40Z</time>
  <course>193.88</course>
  <speed>0.94</speed>
  <fix>3d</fix>
</trkpt>
<trkpt lat="33.8097843" lon="-118.3939808">
  <ele>-25.03</ele>
  <time>2026-09-02T22:11:40Z</time>
  <course>192.58</course>
  <speed>0.8590692637965812</speed>
  <fix>3d</fix>
</trkpt>
<trkpt lat="33.8097864" lon="-118.3939804">
  <ele>-24.42</ele>
  <time>2026-09-02T22:11:40Z</time>
  <course>193.88</course>
  <speed>0.94</speed>
  <fix>3d</fix>
</trkpt>
<trkpt lat="33.8097836" lon="-118.393981">
  <ele>-25.03</ele>
  <time>2026-09-02T22:11:40Z</time>
  <course>192.54</course>
  <speed>0.808084154033477</speed>
  <fix>3d</fix>
</trkpt>
<trkpt lat="33.8097848" lon="-118.3939809">
  <ele>-24.43</ele>
  <time>2026-09-02T22:11:40Z</time>
  <course>193.88</course>
  <speed>0.87</speed>
  <fix>3d</fix>
</trkpt>
<trkpt lat="33.8097829" lon="-118.3939812">
  <ele>-25.03</ele>
  <time>2026-09-02T22:11:40Z</time>
  <course>192.49</course>
  <speed>0.7452516353554683</speed>
  <fix>3d</fix>
</trkpt>
<trkpt lat="33.8097848" lon="-118.3939809">
  <ele>-24.43</ele>
  <time>2026-09-02T22:11:40Z</time>
  <course>193.88</course>
  <speed>0.87</speed>
  <fix>3d</fix>
</trkpt>
<trkpt lat="33.8097823" lon="-118.3939814">
  <ele>-25.031</ele>
  <time>2026-09-02T22:11:40Z</time>
  <course>192.39</course>
  <speed>0.6844705983459041</speed>
  <fix>3d</fix>
</trkpt>
<trkpt lat="33.8097834" lon="-118.3939814">
  <ele>-24.43</ele>
  <time>2026-09-02T22:11:40Z</time>
  <course>193.86</course>
  <speed>0.77</speed>
  <fix>3d</fix>
</trkpt>
<trkpt lat="33.8097818" lon="-118.3939815">
  <ele>-25.032</ele>
  <time>2026-09-02T22:11:40Z</time>
  <course>192.25</course>
  <speed>0.6118823416311342</speed>
  <fix>3d</fix>
</trkpt>
<trkpt lat="33.8097834" lon="-118.3939814">
  <ele>-24.43</ele>
  <time>2026-09-02T22:11:40Z</time>
  <course>193.86</course>
  <speed>0.77</speed>
  <fix>3d</fix>
</trkpt>
<trkpt lat="33.8097813" lon="-118.3939817">
  <ele>-25.033</ele>
  <time>2026-09-02T22:11:40Z</time>
  <course>192.02</course>
  <speed>0.539351462406472</speed>
  <fix>3d</fix>
</trkpt>
<trkpt lat="33.8097821" lon="-118.3939817">
  <ele>-24.43</ele>
  <time>2026-09-02T22:11:40Z</time>
  <course>193.76</course>
  <speed>0.64</speed>
  <fix>3d</fix>
</trkpt>
<trkpt lat="33.8097808" lon="-118.3939818">
  <ele>-25.033</ele>
  <time>2026-09-02T22:11:40Z</time>
  <course>191.68</course>
  <speed>0.4687216658103186</speed>
  <fix>3d</fix>
</trkpt>
<trkpt lat="33.8097821" lon="-118.3939817">
  <ele>-24.43</ele>
  <time>2026-09-02T22:11:40Z</time>
  <course>193.76</course>
  <speed>0.64</speed>
  <fix>3d</fix>
</trkpt>
<trkpt lat="33.8097804" lon="-118.3939819">
  <ele>-25.032</ele>
  <time>2026-09-02T22:11:40Z</time>
  <course>191.2</course>
  <speed>0.4159326868617084</speed>
  <fix>3d</fix>
</trkpt>
<trkpt lat="33.8097811" lon="-118.393982">
  <ele>-24.43</ele>
  <time>2026-09-02T22:11:40Z</time>
  <course>193.59</course>
  <speed>0.5</speed>
  <fix>3d</fix>
</trkpt>
<trkpt lat="33.8097801" lon="-118.393982">
  <ele>-25.03</ele>
  <time>2026-09-02T22:11:40Z</time>
  <course>190.5</course>
  <speed>0.3649657518178932</speed>
  <fix>3d</fix>
</trkpt>
<trkpt lat="33.8097811" lon="-118.393982">
  <ele>-24.43</ele>
  <time>2026-09-02T22:11:40Z</time>
  <course>193.59</course>
  <speed>0.5</speed>
  <fix>3d</fix>
</trkpt>
<trkpt lat="33.8097798" lon="-118.3939821">
  <ele>-25.029</ele>
  <time>2026-09-02T22:11:40Z</time>
  <course>189.57</course>
  <speed>0.3238826948140329</speed>
  <fix>3d</fix>
</trkpt>
<trkpt lat="33.8097803" lon="-118.3939822">
  <ele>-24.43</ele>
  <time>2026-09-02T22:11:40Z</time>
  <course>193.52</course>
  <speed>0.38</speed>
  <fix>3d</fix>
</trkpt>
<trkpt lat="33.8097796" lon="-118.3939822">
  <ele>-25.028</ele>
  <time>2026-09-02T22:11:40Z</time>
  <course>188.75</course>
  <speed>0.282842712474619</speed>
  <fix>3d</fix>
</trkpt>
<trkpt lat="33.8097803" lon="-118.3939822">
  <ele>-24.43</ele>
  <time>2026-09-02T22:11:40Z</time>
  <course>193.52</course>
  <speed>0.38</speed>
  <fix>3d</fix>
</trkpt>
<trkpt lat="33.8097793" lon="-118.3939823">
  <ele>-25.028</ele>
  <time>2026-09-02T22:11:40Z</time>
  <course>188.61</course>
  <speed>0.24186773244895649</speed>
  <fix>3d</fix>
</trkpt>
<trkpt lat="33.8097797" lon="-118.3939824">
  <ele>-24.43</ele>
  <time>2026-09-02T22:11:40Z</time>
  <course>193.56</course>
  <speed>0.29</speed>
  <fix>3d</fix>
</trkpt>
<trkpt lat="33.8097791" lon="-118.3939823">
  <ele>-25.029</ele>
  <time>2026-09-02T22:11:40Z</time>
  <course>188.7</course>
  <speed>0.21213203435596426</speed>
  <fix>3d</fix>
</trkpt>
<trkpt lat="33.8097797" lon="-118.3939824">
  <ele>-24.43</ele>
  <time>2026-09-02T22:11:40Z</time>
  <course>193.56</course>
  <speed>0.29</speed>
  <fix>3d</fix>
</trkpt>
<trkpt lat="33.809779" lon="-118.3939824">
  <ele>-25.03</ele>
  <time>2026-09-02T22:11:40Z</time>
  <course>187.4</course>
  <speed>0.17029386365926402</speed>
  <fix>3d</fix>
</trkpt>
<trkpt lat="33.8097793" lon="-118.3939825">
  <ele>-24.43</ele>
  <time>2026-09-02T22:11:40Z</time>
  <course>193.38</course>
  <speed>0.21</speed>
  <fix>3d</fix>
</trkpt>
<trkpt lat="33.8097788" lon="-118.3939824">
  <ele>-25.032</ele>
  <time>2026-09-02T22:11:40Z</time>
  <course>184.78</course>
  <speed>0.13</speed>
  <fix>3d</fix>
</trkpt>
<trkpt lat="33.8097793" lon="-118.3939825">
  <ele>-24.43</ele>
  <time>2026-09-02T22:11:40Z</time>
  <course>193.38</course>
  <speed>0.21</speed>
  <fix>3d</fix>
</trkpt>
<trkpt lat="33.8097787" lon="-118.3939824">
  <ele>-25.033</ele>
  <time>2026-09-02T22:11:40Z</time>
  <course>181.59</course>
  <speed>0.11</speed>
  <fix>3d</fix>
</trkpt>
<trkpt lat="33.809779" lon="-118.3939826">
  <ele>-24.43</ele>
  <time>2026-09-02T22:11:40Z</time>
  <course>192.42</course>
  <speed>0.13</speed>
  <fix>3d</fix>
</trkpt>
<trkpt lat="33.8097787" lon="-118.3939824">
  <ele>-25.035</ele>
  <time>2026-09-02T22:11:40Z</time>
  <course>178.06</course>
  <speed>0.09</speed>
  <fix>3d</fix>
</trkpt>
<trkpt lat="33.809779" lon="-118.3939826">
  <ele>-24.43</ele>
  <time>2026-09-02T22:11:40Z</time>
  <course>192.42</course>
  <speed>0.13</speed>
  <fix>3d</fix>
</trkpt>
<trkpt lat="33.8097786" lon="-118.3939824">
  <ele>-25.035</ele>
  <time>2026-09-02T22:11:40Z</time>
  <course>174.3</course>
  <speed>0.07</speed>
  <fix>3d</fix>
</trkpt>
<trkpt lat="33.8097788" lon="-118.3939827">
  <ele>-24.43</ele>
  <time>2026-09-02T22:11:40Z</time>
  <course>190.7</course>
  <speed>0.07</speed>
  <fix>3d</fix>
</trkpt>
<trkpt lat="33.8097786" lon="-118.3939825">
  <ele>-25.035</ele>
  <time>2026-09-02T22:11:40Z</time>
  <course>170.34</course>
  <speed>0.04</speed>
  <fix>3d</fix>
</trkpt>
<trkpt lat="33.8097788" lon="-118.3939827">
  <ele>-24.43</ele>
  <time>2026-09-02T22:11:40Z</time>
  <course>190.7</course>
  <speed>0.07</speed>
  <fix>3d</fix>
</trkpt>
<trkpt lat="33.8097786" lon="-118.3939825">
  <ele>-25.033</ele>
  <time>2026-09-02T22:11:40Z</time>
  <course>166.21</course>
  <speed>0.01</speed>
  <fix>3d</fix>
</trkpt>
<trkpt lat="33.8097787" lon="-118.3939827">
  <ele>-24.43</ele>
  <time>2026-09-02T22:11:40Z</time>
  <course>200.46</course>
  <speed>0.03</speed>
  <fix>3d</fix>
</trkpt>
<trkpt lat="33.8097786" lon="-118.3939825">
  <ele>-25.033</ele>
  <time>2026-09-02T22:11:40Z</time>
  <course>161.93</course>
  <speed>0.0282842712474619</speed>
  <fix>3d</fix>
</trkpt>
<trkpt lat="33.8097787" lon="-118.3939827">
  <ele>-24.43</ele>
  <time>2026-09-02T22:11:40Z</time>
  <course>200.46</course>
  <speed>0.03</speed>
  <fix>3d</fix>
</trkpt>
<trkpt lat="33.8097786" lon="-118.3939826">
  <ele>-25.033</ele>
  <time>2026-09-02T22:11:40Z</time>
  <course>157.52</course>
  <speed>0.05830951894845301</speed>
  <fix>3d</fix>
</trkpt>
<trkpt lat="33.8097787" lon="-118.3939827">
  <ele>-24.42</ele>
  <time>2026-09-02T22:11:40Z</time>
  <course>319.67</course>
  <speed>0.03</speed>
  <fix>3d</fix>
</trkpt>
<trkpt lat="33.8097787" lon="-118.3939826">
  <ele>-25.034</ele>
  <time>2026-09-02T22:11:40Z</time>
  <course>152.98</course>
  <speed>0.10295630140987001</speed>
  <fix>3d</fix>
</trkpt>
<trkpt lat="33.8097787" lon="-118.3939827">
  <ele>-24.42</ele>
  <time>2026-09-02T22:11:40Z</time>
  <course>319.67</course>
  <speed>0.03</speed>
  <fix>3d</fix>
</trkpt>
<trkpt lat="33.8097789" lon="-118.3939827">
  <ele>-25.038</ele>
  <time>2026-09-02T22:11:40Z</time>
  <course>148.33</course>
  <speed>0.14422205101855956</speed>
  <fix>3d</fix>
</trkpt>
<trkpt lat="33.8097788" lon="-118.3939828">
  <ele>-24.42</ele>
  <time>2026-09-02T22:11:40Z</time>
  <course>329.58</course>
  <speed>0.11</speed>
  <fix>3d</fix>
</trkpt>
<trkpt lat="33.8097789" lon="-118.3939828">
  <ele>-25.044</ele>
  <time>2026-09-02T22:11:40Z</time>
  <course>143.58</course>
  <speed>0.18867962264113206</speed>
  <fix>3d</fix>
</trkpt>
<trkpt lat="33.8097788" lon="-118.3939828">
  <ele>-24.42</ele>
  <time>2026-09-02T22:11:40Z</time>
  <course>329.58</course>
  <speed>0.11</speed>
  <fix>3d</fix>
</trkpt>
<trkpt lat="33.8097791" lon="-118.393983">
  <ele>-25.052</ele>
  <time>2026-09-02T22:11:40Z</time>
  <course>138.72</course>
  <speed>0.22472205054244232</speed>
  <fix>3d</fix>
</trkpt>
<trkpt lat="33.809779" lon="-118.393983">
  <ele>-24.43</ele>
  <time>2026-09-02T22:11:40Z</time>
  <course>329.35</course>
  <speed>0.19</speed>
  <fix>3d</fix>
</trkpt>
<trkpt lat="33.8097793" lon="-118.3939831">
  <ele>-25.062</ele>
  <time>2026-09-02T22:11:40Z</time>
  <course>133.76</course>
  <speed>0.2692582403567252</speed>
  <fix>3d</fix>
</trkpt>
<trkpt lat="33.809779" lon="-118.393983">
  <ele>-24.43</ele>
  <time>2026-09-02T22:11:40Z</time>
  <course>329.35</course>
  <speed>0.19</speed>
  <fix>3d</fix>
</trkpt>
<trkpt lat="33.8097795" lon="-118.3939833">
  <ele>-25.073</ele>
  <time>2026-09-02T22:11:40Z</time>
  <course>128.71</course>
  <speed>0.31064449134018135</speed>
  <fix>3d</fix>
</trkpt>
<trkpt lat="33.8097793" lon="-118.3939832">
  <ele>-24.44</ele>
  <time>2026-09-02T22:11:40Z</time>
  <course>328.59</course>
  <speed>0.28</speed>
  <fix>3d</fix>
</trkpt>
<trkpt lat="33.8097798" lon="-118.3939835">
  <ele>-25.085</ele>
  <time>2026-09-02T22:11:40Z</time>
  <course>123.57</course>
  <speed>0.35510561809129404</speed>
  <fix>3d</fix>
</trkpt>
<trkpt lat="33.8097793" lon="-118.3939832">
  <ele>-24.44</ele>
  <time>2026-09-02T22:11:40Z</time>
  <course>328.59</course>
  <speed>0.28</speed>
  <fix>3d</fix>
</trkpt>
<trkpt lat="33.8097801" lon="-118.3939838">
  <ele>-25.099</ele>
  <time>2026-09-02T22:11:40Z</time>
  <course>118.34</course>
  <speed>0.3911521443121589</speed>
  <fix>3d</fix>
</trkpt>
<trkpt lat="33.8097798" lon="-118.3939836">
  <ele>-24.46</ele>
  <time>2026-09-02T22:11:40Z</time>
  <course>327.93</course>
  <speed>0.36</speed>
  <fix>3d</fix>
</trkpt>
<trkpt lat="33.8097804" lon="-118.393984">
  <ele>-25.115</ele>
  <time>2026-09-02T22:11:40Z</time>
  <course>113.03</course>
  <speed>0.43266615305567874</speed>
  <fix>3d</fix>
</trkpt>
<trkpt lat="33.8097798" lon="-118.3939836">
  <ele>-24.46</ele>
  <time>2026-09-02T22:11:40Z</time>
  <course>327.93</course>
  <speed>0.36</speed>
  <fix>3d</fix>
</trkpt>
<trkpt lat="33.8097808" lon="-118.3939843">
  <ele>-25.132</ele>
  <time>2026-09-02T22:11:40Z</time>
  <course>107.65</course>
  <speed>0.4687216658103186</speed>
  <fix>3d</fix>
</trkpt>
<trkpt lat="33.8097805" lon="-118.3939841">
  <ele>-24.48</ele>
  <time>2026-09-02T22:11:40Z</time>
  <course>327.16</course>
  <speed>0.44</speed>
  <fix>3d</fix>
</trkpt>
<trkpt lat="33.8097812" lon="-118.3939846">
  <ele>-25.151</ele>
  <time>2026-09-02T22:11:40Z</time>
  <course>102.2</course>
  <speed>0.49648766349225637</speed>
  <fix>3d</fix>
</trkpt>
<trkpt lat="33.8097805" lon="-118.3939841">
  <ele>-24.48</ele>
  <time>2026-09-02T22:11:40Z</time>
  <course>327.16</course>
  <speed>0.44</speed>
  <fix>3d</fix>
</trkpt>
<trkpt lat="33.8097816" lon="-118.393985">
  <ele>-25.172</ele>
  <time>2026-09-02T22:11:40Z</time>
  <course>96.68</course>
  <speed>0.5243090691567331</speed>
  <fix>3d</fix>
</trkpt>
<trkpt lat="33.8097812" lon="-118.3939847">
  <ele>-24.52</ele>
  <time>2026-09-02T22:11:40Z</time>
  <course>326.15</course>
  <speed>0.51</speed>
  <fix>3d</fix>
</trkpt>
<trkpt lat="33.809782" lon="-118.3939853">
  <ele>-25.195</ele>
  <time>2026-09-02T22:11:40Z</time>
  <course>91.05</course>
  <speed>0.54644304369257</speed>
  <fix>3d</fix>
</trkpt>
<trkpt lat="33.8097812" lon="-118.3939847">
  <ele>-24.52</ele>
  <time>2026-09-02T22:11:40Z</time>
  <course>326.15</course>
  <speed>0.51</speed>
  <fix>3d</fix>
</trkpt>
<trkpt lat="33.8097824" lon="-118.3939857">
  <ele>-25.218</ele>
  <time>2026-09-02T22:11:40Z</time>
  <course>85.37</course>
  <speed>0.5661271941887265</speed>
  <fix>3d</fix>
</trkpt>
<trkpt lat="33.809782" lon="-118.3939853">
  <ele>-24.56</ele>
  <time>2026-09-02T22:11:40Z</time>
  <course>325.05</course>
  <speed>0.57</speed>
  <fix>3d</fix>
</trkpt>
<trkpt lat="33.8097829" lon="-118.3939861">
  <ele>-25.242</ele>
  <time>2026-09-02T22:11:40Z</time>
  <course>79.6</course>
  <speed>0.5800862004909271</speed>
  <fix>3d</fix>
</trkpt>
<trkpt lat="33.809782" lon="-118.3939853">
  <ele>-24.56</ele>
  <time>2026-09-02T22:11:40Z</time>
  <course>325.05</course>
  <speed>0.57</speed>
  <fix>3d</fix>
</trkpt>
<trkpt lat="33.8097833" lon="-118.3939865">
  <ele>-25.264</ele>
  <time>2026-09-02T22:11:40Z</time>
  <course>73.74</course>
  <speed>0.5882176467941097</speed>
  <fix>3d</fix>
</trkpt>
<trkpt lat="33.8097829" lon="-118.3939861">
  <ele>-24.6</ele>
  <time>2026-09-02T22:11:40Z</time>
  <course>324.19</course>
  <speed>0.6</speed>
  <fix>3d</fix>
</trkpt>
<trkpt lat="33.8097838" lon="-118.3939868">
  <ele>-25.286</ele>
  <time>2026-09-02T22:11:40Z</time>
  <course>67.79</course>
  <speed>0.6021627686929839</speed>
  <fix>3d</fix>
</trkpt>
<trkpt lat="33.8097829" lon="-118.3939861">
  <ele>-24.6</ele>
  <time>2026-09-02T22:11:40Z</time>
  <course>324.19</course>
  <speed>0.6</speed>
  <fix>3d</fix>
</trkpt>
<trkpt lat="33.8097843" lon="-118.3939872">
  <ele>-25.307</ele>
  <time>2026-09-02T22:11:40Z</time>
  <course>61.76</course>
  <speed>0.6103277807866851</speed>
  <fix>3d</fix>
</trkpt>
<trkpt lat="33.8097838" lon="-118.3939868">
  <ele>-24.64</ele>
  <time>2026-09-02T22:11:40Z</time>
  <course>323.97</course>
  <speed>0.62</speed>
  <fix>3d</fix>
</trkpt>
<trkpt lat="33.8097847" lon="-118.3939876">
  <ele>-25.327</ele>
  <time>2026-09-02T22:11:40Z</time>
  <course>55.66</course>
  <speed>0.6129437168288782</speed>
  <fix>3d</fix>
</trkpt>
<trkpt lat="33.8097838" lon="-118.3939868">
  <ele>-24.64</ele>
  <time>2026-09-02T22:11:40Z</time>
  <course>323.97</course>
  <speed>0.62</speed>
  <fix>3d</fix>
</trkpt>
<trkpt lat="33.8097852" lon="-118.393988">
  <ele>-25.347</ele>
  <time>2026-09-02T22:11:40Z</time>
  <course>49.52</course>
  <speed>0.6296824596572467</speed>
  <fix>3d</fix>
</trkpt>
<trkpt lat="33.8097847" lon="-118.3939877">
  <ele>-24.68</ele>
  <time>2026-09-02T22:11:40Z</time>
  <course>324.69</course>
  <speed>0.64</speed>
  <fix>3d</fix>
</trkpt>
<trkpt lat="33.8097857" lon="-118.3939884">
  <ele>-25.366</ele>
  <time>2026-09-02T22:11:40Z</time>
  <course>43.36</course>
  <speed>0.6381222453417527</speed>
  <fix>3d</fix>
</trkpt>
<trkpt lat="33.8097847" lon="-118.3939877">
  <ele>-24.68</ele>
  <time>2026-09-02T22:11:40Z</time>
  <course>324.69</course>
  <speed>0.64</speed>
  <fix>3d</fix>
</trkpt>
<trkpt lat="33.8097862" lon="-118.3939888">
  <ele>-25.385</ele>
  <time>2026-09-02T22:11:40Z</time>
  <course>37.22</course>
  <speed>0.6466065264130885</speed>
  <fix>3d</fix>
</trkpt>
<trkpt lat="33.8097857" lon="-118.3939885">
  <ele>-24.73</ele>
  <time>2026-09-02T22:11:40Z</time>
  <course>326.08</course>
  <speed>0.65</speed>
  <fix>3d</fix>
</trkpt>
<trkpt lat="33.8097868" lon="-118.3939892">
  <ele>-25.402</ele>
  <time>2026-09-02T22:11:40Z</time>
  <course>31.1</course>
  <speed>0.655133574166368</speed>
  <fix>3d</fix>
</trkpt>
<trkpt lat="33.8097857" lon="-118.3939885">
  <ele>-24.73</ele>
  <time>2026-09-02T22:11:40Z</time>
  <course>326.08</course>
  <speed>0.65</speed>
  <fix>3d</fix>
</trkpt>
<trkpt lat="33.8097873" lon="-118.3939896">
  <ele>-25.419</ele>
  <time>2026-09-02T22:11:40Z</time>
  <course>25.01</course>
  <speed>0.6603786792439622</speed>
  <fix>3d</fix>
</trkpt>
<trkpt lat="33.8097866" lon="-118.3939892">
  <ele>-24.76</ele>
  <time>2026-09-02T22:11:40Z</time>
  <course>327.05</course>
  <speed>0.67</speed>
  <fix>3d</fix>
</trkpt>
<trkpt lat="33.8097878" lon="-118.39399">
  <ele>-25.435</ele>
  <time>2026-09-02T22:11:40Z</time>
  <course>19.01</course>
  <speed>0.6688796603276258</speed>
  <fix>3d</fix>
</trkpt>
<trkpt lat="33.8097866" lon="-118.3939892">
  <ele>-24.76</ele>
  <time>2026-09-02T22:11:40Z</time>
  <course>327.05</course>
  <speed>0.67</speed>
  <fix>3d</fix>
</trkpt>
<trkpt lat="33.8097883" lon="-118.3939904">
  <ele>-25.45</ele>
  <time>2026-09-02T22:11:40Z</time>
  <course>13.47</course>
  <speed>0.674166151627327</speed>
  <fix>3d</fix>
</trkpt>
<trkpt lat="33.8097877" lon="-118.3939901">
  <ele>-24.79</ele>
  <time>2026-09-02T22:11:40Z</time>
  <course>326.9</course>
  <speed>0.68</speed>
  <fix>3d</fix>
</trkpt>
<trkpt lat="33.8097888" lon="-118.3939908">
  <ele>-25.464</ele>
  <time>2026-09-02T22:11:40Z</time>
  <course>8.48</course>
  <speed>0.6657326790837296</speed>
  <fix>3d</fix>
</trkpt>
<trkpt lat="33.8097877" lon="-118.3939901">
  <ele>-24.79</ele>
  <time>2026-09-02T22:11:40Z</time>
  <course>326.9</course>
  <speed>0.68</speed>
  <fix>3d</fix>
</trkpt>
<trkpt lat="33.8097894" lon="-118.3939913">
  <ele>-25.479</ele>
  <time>2026-09-02T22:11:40Z</time>
  <course>3.86</course>
  <speed>0.662872536767062</speed>
  <fix>3d</fix>
</trkpt>
<trkpt lat="33.8097887" lon="-118.3939909">
  <ele>-24.82</ele>
  <time>2026-09-02T22:11:40Z</time>
  <course>326.1</course>
  <speed>0.68</speed>
  <fix>3d</fix>
</trkpt>
<trkpt lat="33.8097899" lon="-118.3939917">
  <ele>-25.493</ele>
  <time>2026-09-02T22:11:40Z</time>
  <course>359.5</course>
  <speed>0.6545991139621257</speed>
  <fix>3d</fix>
</trkpt>
<trkpt lat="33.8097887" lon="-118.3939909">
  <ele>-24.82</ele>
  <time>2026-09-02T22:11:40Z</time>
  <course>326.1</course>
  <speed>0.68</speed>
  <fix>3d</fix>
</trkpt>
<trkpt lat="33.8097904" lon="-118.3939921">
  <ele>-25.506</ele>
  <time>2026-09-02T22:11:40Z</time>
  <course>355.32</course>
  <speed>0.6545991139621257</speed>
  <fix>3d</fix>
</trkpt>
<trkpt lat="33.8097896" lon="-118.3939916">
  <ele>-24.85</ele>
  <time>2026-09-02T22:11:40Z</time>
  <course>325.08</course>
  <speed>0.67</speed>
  <fix>3d</fix>
</trkpt>
<trkpt lat="33.8097908" lon="-118.3939925">
  <ele>-25.519</ele>
  <time>2026-09-02T22:11:40Z</time>
  <course>351.31</course>
  <speed>0.6521502894272148</speed>
  <fix>3d</fix>
</trkpt>
<trkpt lat="33.8097896" lon="-118.3939916">
  <ele>-24.85</ele>
  <time>2026-09-02T22:11:40Z</time>
  <course>325.08</course>
  <speed>0.67</speed>
  <fix>3d</fix>
</trkpt>
<trkpt lat="33.8097913" lon="-118.393993">
  <ele>-25.531</ele>
  <time>2026-09-02T22:11:40Z</time>
  <course>347.4</course>
  <speed>0.6440496875241847</speed>
  <fix>3d</fix>
</trkpt>
<trkpt lat="33.8097907" lon="-118.3939925">
  <ele>-24.88</ele>
  <time>2026-09-02T22:11:40Z</time>
  <course>323.9</course>
  <speed>0.65</speed>
  <fix>3d</fix>
</trkpt>
<trkpt lat="33.8097918" lon="-118.3939934">
  <ele>-25.544</ele>
  <time>2026-09-02T22:11:40Z</time>
  <course>343.69</course>
  <speed>0.6360031446463138</speed>
  <fix>3d</fix>
</trkpt>
<trkpt lat="33.8097907" lon="-118.3939925">
  <ele>-24.88</ele>
  <time>2026-09-02T22:11:40Z</time>
  <course>323.9</course>
  <speed>0.65</speed>
  <fix>3d</fix>
</trkpt>
<trkpt lat="33.8097923" lon="-118.3939938">
  <ele>-25.556</ele>
  <time>2026-09-02T22:11:40Z</time>
  <course>340.34</course>
  <speed>0.6360031446463138</speed>
  <fix>3d</fix>
</trkpt>
<trkpt lat="33.8097916" lon="-118.3939934">
  <ele>-24.9</ele>
  <time>2026-09-02T22:11:40Z</time>
  <course>322.85</course>
  <speed>0.64</speed>
  <fix>3d</fix>
</trkpt>
<trkpt lat="33.8097927" lon="-118.3939943">
  <ele>-25.568</ele>
  <time>2026-09-02T22:11:40Z</time>
  <course>337.7</course>
  <speed>0.6300793600809346</speed>
  <fix>3d</fix>
</trkpt>
<trkpt lat="33.8097916" lon="-118.3939934">
  <ele>-24.9</ele>
  <time>2026-09-02T22:11:40Z</time>
  <course>322.85</course>
  <speed>0.64</speed>
  <fix>3d</fix>
</trkpt>
<trkpt lat="33.8097932" lon="-118.3939947">
  <ele>-25.58</ele>
  <time>2026-09-02T22:11:40Z</time>
  <course>335.87</course>
  <speed>0.638200595424354</speed>
  <fix>3d</fix>
</trkpt>
<trkpt lat="33.8097925" lon="-118.3939942">
  <ele>-24.93</ele>
  <time>2026-09-02T22:11:40Z</time>
  <course>322.87</course>
  <speed>0.63</speed>
  <fix>3d</fix>
</trkpt>
<trkpt lat="33.8097936" lon="-118.3939951">
  <ele>-25.592</ele>
  <time>2026-09-02T22:11:40Z</time>
  <course>334.76</course>
  <speed>0.6324555320336759</speed>
  <fix>3d</fix>
</trkpt>
<trkpt lat="33.8097925" lon="-118.3939942">
  <ele>-24.93</ele>
  <time>2026-09-02T22:11:40Z</time>
  <course>322.87</course>
  <speed>0.63</speed>
  <fix>3d</fix>
</trkpt>
<trkpt lat="33.8097941" lon="-118.3939955">
  <ele>-25.604</ele>
  <time>2026-09-02T22:11:40Z</time>
  <course>334.17</course>
  <speed>0.6407027391856539</speed>
  <fix>3d</fix>
</trkpt>
<trkpt lat="33.8097934" lon="-118.393995">
  <ele>-24.95</ele>
  <time>2026-09-02T22:11:40Z</time>
  <course>324.03</course>
  <speed>0.62</speed>
  <fix>3d</fix>
</trkpt>
<trkpt lat="33.8097946" lon="-118.3939959">
  <ele>-25.617</ele>
  <time>2026-09-02T22:11:40Z</time>
  <course>333.87</course>
  <speed>0.6489992295835181</speed>
  <fix>3d</fix>
</trkpt>
<trkpt lat="33.8097934" lon="-118.393995">
  <ele>-24.95</ele>
  <time>2026-09-02T22:11:40Z</time>
  <course>324.03</course>
  <speed>0.62</speed>
  <fix>3d</fix>
</trkpt>
<trkpt lat="33.8097951" lon="-118.3939963">
  <ele>-25.63</ele>
  <time>2026-09-02T22:11:40Z</time>
  <course>333.71</course>
  <speed>0.6489992295835181</speed>
  <fix>3d</fix>
</trkpt>
<trkpt lat="33.8097944" lon="-118.3939958">
  <ele>-24.97</ele>
  <time>2026-09-02T22:11:40Z</time>
  <course>325.28</course>
  <speed>0.63</speed>
  <fix>3d</fix>
</trkpt>
<trkpt lat="33.8097956" lon="-118.3939967">
  <ele>-25.644</ele>
  <time>2026-09-02T22:11:40Z</time>
  <course>333.62</course>
  <speed>0.6573431371817918</speed>
  <fix>3d</fix>
</trkpt>
<trkpt lat="33.8097944" lon="-118.3939958">
  <ele>-24.97</ele>
  <time>2026-09-02T22:11:40Z</time>
  <course>325.28</course>
  <speed>0.63</speed>
  <fix>3d</fix>
</trkpt>
<trkpt lat="33.8097961" lon="-118.3939971">
  <ele>-25.658</ele>
  <time>2026-09-02T22:11:40Z</time>
  <course>333.53</course>
  <speed>0.6573431371817918</speed>
  <fix>3d</fix>
</trkpt>
<trkpt lat="33.8097953" lon="-118.3939966">
  <ele>-25.0</ele>
  <time>2026-09-02T22:11:40Z</time>
  <course>326.08</course>
  <speed>0.63</speed>
  <fix>3d</fix>
</trkpt>
<trkpt lat="33.8097966" lon="-118.3939975">
  <ele>-25.672</ele>
  <time>2026-09-02T22:11:40Z</time>
  <course>333.45</course>
  <speed>0.662872536767062</speed>
  <fix>3d</fix>
</trkpt>
<trkpt lat="33.8097953" lon="-118.3939966">
  <ele>-25.0</ele>
  <time>2026-09-02T22:11:40Z</time>
  <course>326.08</course>
  <speed>0.63</speed>
  <fix>3d</fix>
</trkpt>
<trkpt lat="33.809797" lon="-118.3939979">
  <ele>-25.688</ele>
  <time>2026-09-02T22:11:40Z</time>
  <course>333.73</course>
  <speed>0.662872536767062</speed>
  <fix>3d</fix>
</trkpt>
<trkpt lat="33.8097963" lon="-118.3939974">
  <ele>-25.03</ele>
  <time>2026-09-02T22:11:40Z</time>
  <course>326.52</course>
  <speed>0.64</speed>
  <fix>3d</fix>
</trkpt>
<trkpt lat="33.8097975" lon="-118.3939983">
  <ele>-25.704</ele>
  <time>2026-09-02T22:11:40Z</time>
  <course>333.79</course>
  <speed>0.662872536767062</speed>
  <fix>3d</fix>
</trkpt>
<trkpt lat="33.8097963" lon="-118.3939974">
  <ele>-25.03</ele>
  <time>2026-09-02T22:11:40Z</time>
  <course>326.52</course>
  <speed>0.64</speed>
  <fix>3d</fix>
</trkpt>
<trkpt lat="33.809798" lon="-118.3939987">
  <ele>-25.72</ele>
  <time>2026-09-02T22:11:40Z</time>
  <course>333.9</course>
  <speed>0.662872536767062</speed>
  <fix>3d</fix>
</trkpt>
<trkpt lat="33.8097973" lon="-118.3939981">
  <ele>-25.06</ele>
  <time>2026-09-02T22:11:40Z</time>
  <course>326.73</course>
  <speed>0.64</speed>
  <fix>3d</fix>
</trkpt>
<trkpt lat="33.8097985" lon="-118.3939991">
  <ele>-25.737</ele>
  <time>2026-09-02T22:11:40Z</time>
  <course>333.77</course>
  <speed>0.6711929677819934</speed>
  <fix>3d</fix>
</trkpt>
<trkpt lat="33.8097973" lon="-118.3939981">
  <ele>-25.06</ele>
  <time>2026-09-02T22:11:40Z</time>
  <course>326.73</course>
  <speed>0.64</speed>
  <fix>3d</fix>
</trkpt>
<trkpt lat="33.809799" lon="-118.3939995">
  <ele>-25.754</ele>
  <time>2026-09-02T22:11:40Z</time>
  <course>333.51</course>
  <speed>0.6711929677819934</speed>
  <fix>3d</fix>
</trkpt>
<trkpt lat="33.8097982" lon="-118.3939988">
  <ele>-25.09</ele>
  <time>2026-09-02T22:11:40Z</time>
  <course>326.77</course>
  <speed>0.64</speed>
  <fix>3d</fix>
</trkpt>
<trkpt lat="33.8097995" lon="-118.3939999">
  <ele>-25.769</ele>
  <time>2026-09-02T22:11:40Z</time>
  <course>333.22</course>
  <speed>0.6767569726275453</speed>
  <fix>3d</fix>
</trkpt>
<trkpt lat="33.8097982" lon="-118.3939988">
  <ele>-25.09</ele>
  <time>2026-09-02T22:11:40Z</time>
  <course>326.77</course>
  <speed>0.64</speed>
  <fix>3d</fix>
</trkpt>
<trkpt lat="33.8098" lon="-118.3940003">
  <ele>-25.785</ele>
  <time>2026-09-02T22:11:40Z</time>
  <course>333.01</course>
  <speed>0.6767569726275453</speed>
  <fix>3d</fix>
</trkpt>
<trkpt lat="33.8097992" lon="-118.3939997">
  <ele>-25.12</ele>
  <time>2026-09-02T22:11:40Z</time>
  <course>326.75</course>
  <speed>0.64</speed>
  <fix>3d</fix>
</trkpt>
<trkpt lat="33.8098005" lon="-118.3940007">
  <ele>-25.801</ele>
  <time>2026-09-02T22:11:40Z</time>
  <course>332.86</course>
  <speed>0.6767569726275453</speed>
  <fix>3d</fix>
</trkpt>
<trkpt lat="33.8097992" lon="-118.3939997">
  <ele>-25.12</ele>
  <time>2026-09-02T22:11:40Z</time>
  <course>326.75</course>
  <speed>0.64</speed>
  <fix>3d</fix>
</trkpt>
<trkpt lat="33.809801" lon="-118.3940011">
  <ele>-25.817</ele>
  <time>2026-09-02T22:11:40Z</time>
  <course>332.75</course>
  <speed>0.6767569726275453</speed>
  <fix>3d</fix>
</trkpt>
<trkpt lat="33.8098002" lon="-118.3940004">
  <ele>-25.15</ele>
  <time>2026-09-02T22:11:40Z</time>
  <course>326.79</course>
  <speed>0.64</speed>
  <fix>3d</fix>
</trkpt>
<trkpt lat="33.8098015" lon="-118.3940015">
  <ele>-25.833</ele>
  <time>2026-09-02T22:11:40Z</time>
  <course>332.67</course>
  <speed>0.6767569726275453</speed>
  <fix>3d</fix>
</trkpt>
<trkpt lat="33.8098002" lon="-118.3940004">
  <ele>-25.15</ele>
  <time>2026-09-02T22:11:40Z</time>
  <course>326.79</course>
  <speed>0.64</speed>
  <fix>3d</fix>
</trkpt>
<trkpt lat="33.8098019" lon="-118.3940019">
  <ele>-25.848</ele>
  <time>2026-09-02T22:11:40Z</time>
  <course>332.58</course>
  <speed>0.6767569726275453</speed>
  <fix>3d</fix>
</trkpt>
<trkpt lat="33.8098011" lon="-118.3940012">
  <ele>-25.18</ele>
  <time>2026-09-02T22:11:40Z</time>
  <course>326.83</course>
  <speed>0.64</speed>
  <fix>3d</fix>
</trkpt>
<trkpt lat="33.8098024" lon="-118.3940023">
  <ele>-25.863</ele>
  <time>2026-09-02T22:11:40Z</time>
  <course>332.48</course>
  <speed>0.6767569726275453</speed>
  <fix>3d</fix>
</trkpt>
<trkpt lat="33.8098011" lon="-118.3940012">
  <ele>-25.18</ele>
  <time>2026-09-02T22:11:40Z</time>
  <course>326.83</course>
  <speed>0.64</speed>
  <fix>3d</fix>
</trkpt>
<trkpt lat="33.8098029" lon="-118.3940027">
  <ele>-25.878</ele>
  <time>2026-09-02T22:11:40Z</time>
  <course>332.39</course>
  <speed>0.6767569726275453</speed>
  <fix>3d</fix>
</trkpt>
<trkpt lat="33.8098021" lon="-118.394002">
  <ele>-25.21</ele>
  <time>2026-09-02T22:11:40Z</time>
  <course>326.85</course>
  <speed>0.64</speed>
  <fix>3d</fix>
</trkpt>
<trkpt lat="33.8098034" lon="-118.3940031">
  <ele>-25.893</ele>
  <time>2026-09-02T22:11:40Z</time>
  <course>332.31</course>
  <speed>0.6767569726275453</speed>
  <fix>3d</fix>
</trkpt>
<trkpt lat="33.8098021" lon="-118.394002">
  <ele>-25.21</ele>
  <time>2026-09-02T22:11:40Z</time>
  <course>326.85</course>
  <speed>0.64</speed>
  <fix>3d</fix>
</trkpt>
<trkpt lat="33.8098039" lon="-118.3940035">
  <ele>-25.906</ele>
  <time>2026-09-02T22:11:40Z</time>
  <course>332.23</course>
  <speed>0.6767569726275453</speed>
  <fix>3d</fix>
</trkpt>
<trkpt lat="33.809803" lon="-118.3940027">
  <ele>-25.24</ele>
  <time>2026-09-02T22:11:40Z</time>
  <course>326.92</course>
  <speed>0.65</speed>
  <fix>3d</fix>
</trkpt>
<trkpt lat="33.8098044" lon="-118.3940039">
  <ele>-25.919</ele>
  <time>2026-09-02T22:11:40Z</time>
  <course>332.15</course>
  <speed>0.6824221567329127</speed>
  <fix>3d</fix>
</trkpt>
<trkpt lat="33.809803" lon="-118.3940027">
  <ele>-25.24</ele>
  <time>2026-09-02T22:11:40Z</time>
  <course>326.92</course>
  <speed>0.65</speed>
  <fix>3d</fix>
</trkpt>
<trkpt lat="33.8098049" lon="-118.3940043">
  <ele>-25.933</ele>
  <time>2026-09-02T22:11:40Z</time>
  <course>332.07</course>
  <speed>0.6824221567329127</speed>
  <fix>3d</fix>
</trkpt>
<trkpt lat="33.809804" lon="-118.3940035">
  <ele>-25.27</ele>
  <time>2026-09-02T22:11:40Z</time>
  <course>326.97</course>
  <speed>0.65</speed>
  <fix>3d</fix>
</trkpt>
<trkpt lat="33.8098054" lon="-118.3940047">
  <ele>-25.946</ele>
  <time>2026-09-02T22:11:40Z</time>
  <course>331.99</course>
  <speed>0.6824221567329127</speed>
  <fix>3d</fix>
</trkpt>
<trkpt lat="33.809804" lon="-118.3940035">
  <ele>-25.27</ele>
  <time>2026-09-02T22:11:40Z</time>
  <course>326.97</course>
  <speed>0.65</speed>
  <fix>3d</fix>
</trkpt>
<trkpt lat="33.8098059" lon="-118.3940051">
  <ele>-25.959</ele>
  <time>2026-09-02T22:11:40Z</time>
  <course>331.9</course>
  <speed>0.6824221567329127</speed>
  <fix>3d</fix>
</trkpt>
<trkpt lat="33.8098051" lon="-118.3940043">
  <ele>-25.29</ele>
  <time>2026-09-02T22:11:40Z</time>
  <course>327.0</course>
  <speed>0.65</speed>
  <fix>3d</fix>
</trkpt>
<trkpt lat="33.8098063" lon="-118.3940055">
  <ele>-25.971</ele>
  <time>2026-09-02T22:11:40Z</time>
  <course>331.81</course>
  <speed>0.6824221567329127</speed>
  <fix>3d</fix>
</trkpt>
<trkpt lat="33.8098051" lon="-118.3940043">
  <ele>-25.29</ele>
  <time>2026-09-02T22:11:40Z</time>
  <course>327.0</course>
  <speed>0.65</speed>
  <fix>3d</fix>
</trkpt>
<trkpt lat="33.8098068" lon="-118.3940059">
  <ele>-25.984</ele>
  <time>2026-09-02T22:11:40Z</time>
  <course>331.71</course>
  <speed>0.6824221567329127</speed>
  <fix>3d</fix>
</trkpt>
<trkpt lat="33.8098061" lon="-118.394005">
  <ele>-25.32</ele>
  <time>2026-09-02T22:11:40Z</time>
  <course>327.0</course>
  <speed>0.65</speed>
  <fix>3d</fix>
</trkpt>
<trkpt lat="33.8098073" lon="-118.3940063">
  <ele>-25.998</ele>
  <time>2026-09-02T22:11:40Z</time>
  <course>331.59</course>
  <speed>0.6881860213634101</speed>
  <fix>3d</fix>
</trkpt>
<trkpt lat="33.8098061" lon="-118.394005">
  <ele>-25.32</ele>
  <time>2026-09-02T22:11:40Z</time>
  <course>327.0</course>
  <speed>0.65</speed>
  <fix>3d</fix>
</trkpt>
<trkpt lat="33.8098078" lon="-118.3940067">
  <ele>-26.011</ele>
  <time>2026-09-02T22:11:40Z</time>
  <course>331.46</course>
  <speed>0.6881860213634101</speed>
  <fix>3d</fix>
</trkpt>
<trkpt lat="33.809807" lon="-118.3940058">
  <ele>-25.34</ele>
  <time>2026-09-02T22:11:40Z</time>
  <course>326.88</course>
  <speed>0.65</speed>
  <fix>3d</fix>
</trkpt>
<trkpt lat="33.8098083" lon="-118.3940071">
  <ele>-26.024</ele>
  <time>2026-09-02T22:11:40Z</time>
  <course>331.32</course>
  <speed>0.6881860213634101</speed>
  <fix>3d</fix>
</trkpt>
<trkpt lat="33.809807" lon="-118.3940058">
  <ele>-25.34</ele>
  <time>2026-09-02T22:11:40Z</time>
  <course>326.88</course>
  <speed>0.65</speed>
  <fix>3d</fix>
</trkpt>
<trkpt lat="33.8098088" lon="-118.3940074">
  <ele>-26.037</ele>
  <time>2026-09-02T22:11:40Z</time>
  <course>331.19</course>
  <speed>0.6881860213634101</speed>
  <fix>3d</fix>
</trkpt>
<trkpt lat="33.8098079" lon="-118.3940065">
  <ele>-25.36</ele>
  <time>2026-09-02T22:11:40Z</time>
  <course>326.72</course>
  <speed>0.65</speed>
  <fix>3d</fix>
</trkpt>
<trkpt lat="33.8098093" lon="-118.3940078">
  <ele>-26.05</ele>
  <time>2026-09-02T22:11:40Z</time>
  <course>331.05</course>
  <speed>0.6881860213634101</speed>
  <fix>3d</fix>
</trkpt>
<trkpt lat="33.8098079" lon="-118.3940065">
  <ele>-25.36</ele>
  <time>2026-09-02T22:11:40Z</time>
  <course>326.72</course>
  <speed>0.65</speed>
  <fix>3d</fix>
</trkpt>
<trkpt lat="33.8098098" lon="-118.3940082">
  <ele>-26.063</ele>
  <time>2026-09-02T22:11:40Z</time>
  <course>330.92</course>
  <speed>0.6881860213634101</speed>
  <fix>3d</fix>
</trkpt>
<trkpt lat="33.809809" lon="-118.3940074">
  <ele>-25.39</ele>
  <time>2026-09-02T22:11:40Z</time>
  <course>326.63</course>
  <speed>0.65</speed>
  <fix>3d</fix>
</trkpt>
<trkpt lat="33.8098103" lon="-118.3940086">
  <ele>-26.077</ele>
  <time>2026-09-02T22:11:40Z</time>
  <course>330.79</course>
  <speed>0.6963476143421474</speed>
  <fix>3d</fix>
</trkpt>
<trkpt lat="33.809809" lon="-118.3940074">
  <ele>-25.39</ele>
  <time>2026-09-02T22:11:40Z</time>
  <course>326.63</course>
  <speed>0.65</speed>
  <fix>3d</fix>
</trkpt>
<trkpt lat="33.8098108" lon="-118.394009">
  <ele>-26.092</ele>
  <time>2026-09-02T22:11:40Z</time>
  <course>330.67</course>
  <speed>0.7021395872616784</speed>
  <fix>3d</fix>
</trkpt>
<trkpt lat="33.80981" lon="-118.3940082">
  <ele>-25.42</ele>
  <time>2026-09-02T22:11:40Z</time>
  <course>326.55</course>
  <speed>0.65</speed>
  <fix>3d</fix>
</trkpt>
<trkpt lat="33.8098113" lon="-118.3940095">
  <ele>-26.107</ele>
  <time>2026-09-02T22:11:40Z</time>
  <course>330.56</course>
  <speed>0.7021395872616784</speed>
  <fix>3d</fix>
</trkpt>
<trkpt lat="33.80981" lon="-118.3940082">
  <ele>-25.42</ele>
  <time>2026-09-02T22:11:40Z</time>
  <course>326.55</course>
  <speed>0.65</speed>
  <fix>3d</fix>
</trkpt>
<trkpt lat="33.8098118" lon="-118.3940099">
  <ele>-26.122</ele>
  <time>2026-09-02T22:11:40Z</time>
  <course>330.45</course>
  <speed>0.7021395872616784</speed>
  <fix>3d</fix>
</trkpt>
<trkpt lat="33.8098109" lon="-118.3940089">
  <ele>-25.45</ele>
  <time>2026-09-02T22:11:40Z</time>
  <course>326.49</course>
  <speed>0.66</speed>
  <fix>3d</fix>
</trkpt>
<trkpt lat="33.8098123" lon="-118.3940103">
  <ele>-26.137</ele>
  <time>2026-09-02T22:11:40Z</time>
  <course>330.34</course>
  <speed>0.7021395872616784</speed>
  <fix>3d</fix>
</trkpt>
<trkpt lat="33.8098109" lon="-118.3940089">
  <ele>-25.45</ele>
  <time>2026-09-02T22:11:40Z</time>
  <course>326.49</course>
  <speed>0.66</speed>
  <fix>3d</fix>
</trkpt>
<trkpt lat="33.8098128" lon="-118.3940107">
  <ele>-26.152</ele>
  <time>2026-09-02T22:11:40Z</time>
  <course>330.23</course>
  <speed>0.7021395872616784</speed>
  <fix>3d</fix>
</trkpt>
<trkpt lat="33.8098119" lon="-118.3940097">
  <ele>-25.48</ele>
  <time>2026-09-02T22:11:40Z</time>
  <course>326.44</course>
  <speed>0.66</speed>
  <fix>3d</fix>
</trkpt>
<trkpt lat="33.8098133" lon="-118.3940111">
  <ele>-26.167</ele>
  <time>2026-09-02T22:11:40Z</time>
  <course>330.11</course>
  <speed>0.7021395872616784</speed>
  <fix>3d</fix>
</trkpt>
<trkpt lat="33.8098119" lon="-118.3940097">
  <ele>-25.48</ele>
  <time>2026-09-02T22:11:40Z</time>
  <course>326.44</course>
  <speed>0.66</speed>
  <fix>3d</fix>
</trkpt>
<trkpt lat="33.8098138" lon="-118.3940115">
  <ele>-26.183</ele>
  <time>2026-09-02T22:11:40Z</time>
  <course>329.98</course>
  <speed>0.7080254232723568</speed>
  <fix>3d</fix>
</trkpt>
<trkpt lat="33.809813" lon="-118.3940105">
  <ele>-25.51</ele>
  <time>2026-09-02T22:11:40Z</time>
  <course>326.35</course>
  <speed>0.66</speed>
  <fix>3d</fix>
</trkpt>
<trkpt lat="33.8098143" lon="-118.3940119">
  <ele>-26.199</ele>
  <time>2026-09-02T22:11:40Z</time>
  <course>329.86</course>
  <speed>0.7080254232723568</speed>
  <fix>3d</fix>
</trkpt>
<trkpt lat="33.809813" lon="-118.3940105">
  <ele>-25.51</ele>
  <time>2026-09-02T22:11:40Z</time>
  <course>326.35</course>
  <speed>0.66</speed>
  <fix>3d</fix>
</trkpt>
<trkpt lat="33.8098148" lon="-118.3940123">
  <ele>-26.215</ele>
  <time>2026-09-02T22:11:40Z</time>
  <course>329.72</course>
  <speed>0.7080254232723568</speed>
  <fix>3d</fix>
</trkpt>
<trkpt lat="33.809814" lon="-118.3940113">
  <ele>-25.54</ele>
  <time>2026-09-02T22:11:40Z</time>
  <course>326.23</course>
  <speed>0.67</speed>
  <fix>3d</fix>
</trkpt>
<trkpt lat="33.8098153" lon="-118.3940127">
  <ele>-26.23</ele>
  <time>2026-09-02T22:11:40Z</time>
  <course>329.58</course>
  <speed>0.7080254232723568</speed>
  <fix>3d</fix>
</trkpt>
<trkpt lat="33.809814" lon="-118.3940113">
  <ele>-25.54</ele>
  <time>2026-09-02T22:11:40Z</time>
  <course>326.23</course>
  <speed>0.67</speed>
  <fix>3d</fix>
</trkpt>
<trkpt lat="33.8098158" lon="-118.3940131">
  <ele>-26.245</ele>
  <time>2026-09-02T22:11:40Z</time>
  <course>329.43</course>
  <speed>0.7080254232723568</speed>
  <fix>3d</fix>
</trkpt>
<trkpt lat="33.809815" lon="-118.3940122">
  <ele>-25.57</ele>
  <time>2026-09-02T22:11:40Z</time>
  <course>326.05</course>
  <speed>0.67</speed>
  <fix>3d</fix>
</trkpt>
<trkpt lat="33.8098163" lon="-118.3940135">
  <ele>-26.261</ele>
  <time>2026-09-02T22:11:40Z</time>
  <course>329.29</course>
  <speed>0.7080254232723568</speed>
  <fix>3d</fix>
</trkpt>
<trkpt lat="33.809815" lon="-118.3940122">
  <ele>-25.57</ele>
  <time>2026-09-02T22:11:40Z</time>
  <course>326.05</course>
  <speed>0.67</speed>
  <fix>3d</fix>
</trkpt>
<trkpt lat="33.8098168" lon="-118.394014">
  <ele>-26.277</ele>
  <time>2026-09-02T22:11:40Z</time>
  <course>329.17</course>
  <speed>0.7161005515987263</speed>
  <fix>3d</fix>
</trkpt>
<trkpt lat="33.809816" lon="-118.394013">
  <ele>-25.6</ele>
  <time>2026-09-02T22:11:40Z</time>
  <course>325.9</course>
  <speed>0.67</speed>
  <fix>3d</fix>
</trkpt>
<trkpt lat="33.8098173" lon="-118.3940144">
  <ele>-26.293</ele>
  <time>2026-09-02T22:11:40Z</time>
  <course>329.06</course>
  <speed>0.7220110802473879</speed>
  <fix>3d</fix>
</trkpt>
<trkpt lat="33.809816" lon="-118.394013">
  <ele>-25.6</ele>
  <time>2026-09-02T22:11:40Z</time>
  <course>325.9</course>
  <speed>0.67</speed>
  <fix>3d</fix>
</trkpt>
<trkpt lat="33.8098178" lon="-118.3940148">
  <ele>-26.307</ele>
  <time>2026-09-02T22:11:40Z</time>
  <course>328.95</course>
  <speed>0.7220110802473879</speed>
  <fix>3d</fix>
</trkpt>
<trkpt lat="33.8098169" lon="-118.3940138">
  <ele>-25.63</ele>
  <time>2026-09-02T22:11:40Z</time>
  <course>325.82</course>
  <speed>0.68</speed>
  <fix>3d</fix>
</trkpt>
<trkpt lat="33.8098183" lon="-118.3940152">
  <ele>-26.322</ele>
  <time>2026-09-02T22:11:40Z</time>
  <course>328.86</course>
  <speed>0.7220110802473879</speed>
  <fix>3d</fix>
</trkpt>
<trkpt lat="33.8098169" lon="-118.3940138">
  <ele>-25.63</ele>
  <time>2026-09-02T22:11:40Z</time>
  <course>325.82</course>
  <speed>0.68</speed>
  <fix>3d</fix>
</trkpt>
<trkpt lat="33.8098188" lon="-118.3940156">
  <ele>-26.337</ele>
  <time>2026-09-02T22:11:40Z</time>
  <course>328.78</course>
  <speed>0.7220110802473879</speed>
  <fix>3d</fix>
</trkpt>
<trkpt lat="33.809818" lon="-118.3940146">
  <ele>-25.66</ele>
  <time>2026-09-02T22:11:40Z</time>
  <course>325.82</course>
  <speed>0.68</speed>
  <fix>3d</fix>
</trkpt>
<trkpt lat="33.8098193" lon="-118.3940161">
  <ele>-26.351</ele>
  <time>2026-09-02T22:11:40Z</time>
  <course>328.71</course>
  <speed>0.7220110802473879</speed>
  <fix>3d</fix>
</trkpt>
<trkpt lat="33.809818" lon="-118.3940146">
  <ele>-25.66</ele>
  <time>2026-09-02T22:11:40Z</time>
  <course>325.82</course>
  <speed>0.68</speed>
  <fix>3d</fix>
</trkpt>
<trkpt lat="33.8098199" lon="-118.3940165">
  <ele>-26.365</ele>
  <time>2026-09-02T22:11:40Z</time>
  <course>328.62</course>
  <speed>0.7220110802473879</speed>
  <fix>3d</fix>
</trkpt>
<trkpt lat="33.8098191" lon="-118.3940155">
  <ele>-25.69</ele>
  <time>2026-09-02T22:11:40Z</time>
  <course>325.81</course>
  <speed>0.69</speed>
  <fix>3d</fix>
</trkpt>
<trkpt lat="33.8098204" lon="-118.3940169">
  <ele>-26.379</ele>
  <time>2026-09-02T22:11:40Z</time>
  <course>328.52</course>
  <speed>0.7360027173862879</speed>
  <fix>3d</fix>
</trkpt>
<trkpt lat="33.8098191" lon="-118.3940155">
  <ele>-25.69</ele>
  <time>2026-09-02T22:11:40Z</time>
  <course>325.81</course>
  <speed>0.69</speed>
  <fix>3d</fix>
</trkpt>
<trkpt lat="33.8098209" lon="-118.3940173">
  <ele>-26.393</ele>
  <time>2026-09-02T22:11:40Z</time>
  <course>328.42</course>
  <speed>0.7360027173862879</speed>
  <fix>3d</fix>
</trkpt>
<trkpt lat="33.80982" lon="-118.3940163">
  <ele>-25.72</ele>
  <time>2026-09-02T22:11:40Z</time>
  <course>325.73</course>
  <speed>0.69</speed>
  <fix>3d</fix>
</trkpt>
<trkpt lat="33.8098214" lon="-118.3940178">
  <ele>-26.408</ele>
  <time>2026-09-02T22:11:40Z</time>
  <course>328.32</course>
  <speed>0.7360027173862879</speed>
  <fix>3d</fix>
</trkpt>
<trkpt lat="33.80982" lon="-118.3940163">
  <ele>-25.72</ele>
  <time>2026-09-02T22:11:40Z</time>
  <course>325.73</course>
  <speed>0.69</speed>
  <fix>3d</fix>
</trkpt>
<trkpt lat="33.8098219" lon="-118.3940182">
  <ele>-26.422</ele>
  <time>2026-09-02T22:11:40Z</time>
  <course>328.22</course>
  <speed>0.7360027173862879</speed>
  <fix>3d</fix>
</trkpt>
<trkpt lat="33.8098211" lon="-118.3940171">
  <ele>-25.75</ele>
  <time>2026-09-02T22:11:40Z</time>
  <course>325.66</course>
  <speed>0.7</speed>
  <fix>3d</fix>
</trkpt>
<trkpt lat="33.8098224" lon="-118.3940186">
  <ele>-26.438</ele>
  <time>2026-09-02T22:11:40Z</time>
  <course>328.13</course>
  <speed>0.7360027173862879</speed>
  <fix>3d</fix>
</trkpt>
<trkpt lat="33.8098211" lon="-118.3940171">
  <ele>-25.75</ele>
  <time>2026-09-02T22:11:40Z</time>
  <course>325.66</course>
  <speed>0.7</speed>
  <fix>3d</fix>
</trkpt>
<trkpt lat="33.809823" lon="-118.394019">
  <ele>-26.454</ele>
  <time>2026-09-02T22:11:40Z</time>
  <course>328.02</course>
  <speed>0.7360027173862879</speed>
  <fix>3d</fix>
</trkpt>
<trkpt lat="33.8098222" lon="-118.394018">
  <ele>-25.78</ele>
  <time>2026-09-02T22:11:40Z</time>
  <course>325.59</course>
  <speed>0.7</speed>
  <fix>3d</fix>
</trkpt>
<trkpt lat="33.8098235" lon="-118.3940195">
  <ele>-26.471</ele>
  <time>2026-09-02T22:11:40Z</time>
  <course>327.92</course>
  <speed>0.7360027173862879</speed>
  <fix>3d</fix>
</trkpt>
<trkpt lat="33.8098222" lon="-118.394018">
  <ele>-25.78</ele>
  <time>2026-09-02T22:11:40Z</time>
  <course>325.59</course>
  <speed>0.7</speed>
  <fix>3d</fix>
</trkpt>
<trkpt lat="33.809824" lon="-118.3940199">
  <ele>-26.487</ele>
  <time>2026-09-02T22:11:40Z</time>
  <course>327.81</course>
  <speed>0.7360027173862879</speed>
  <fix>3d</fix>
</trkpt>
<trkpt lat="33.8098232" lon="-118.3940189">
  <ele>-25.81</ele>
  <time>2026-09-02T22:11:40Z</time>
  <course>325.46</course>
  <speed>0.7</speed>
  <fix>3d</fix>
</trkpt>
<trkpt lat="33.8098245" lon="-118.3940203">
  <ele>-26.504</ele>
  <time>2026-09-02T22:11:40Z</time>
  <course>327.71</course>
  <speed>0.75</speed>
  <fix>3d</fix>
</trkpt>
<trkpt lat="33.8098232" lon="-118.3940189">
  <ele>-25.81</ele>
  <time>2026-09-02T22:11:40Z</time>
  <course>325.46</course>
  <speed>0.7</speed>
  <fix>3d</fix>
</trkpt>
<trkpt lat="33.8098251" lon="-118.3940208">
  <ele>-26.522</ele>
  <time>2026-09-02T22:11:40Z</time>
  <course>327.62</course>
  <speed>0.75</speed>
  <fix>3d</fix>
</trkpt>
<trkpt lat="33.8098243" lon="-118.3940197">
  <ele>-25.84</ele>
  <time>2026-09-02T22:11:40Z</time>
  <course>325.39</course>
  <speed>0.71</speed>
  <fix>3d</fix>
</trkpt>
<trkpt lat="33.8098256" lon="-118.3940212">
  <ele>-26.54</ele>
  <time>2026-09-02T22:11:40Z</time>
  <course>327.55</course>
  <speed>0.75</speed>
  <fix>3d</fix>
</trkpt>
<trkpt lat="33.8098243" lon="-118.3940197">
  <ele>-25.84</ele>
  <time>2026-09-02T22:11:40Z</time>
  <course>325.39</course>
  <speed>0.71</speed>
  <fix>3d</fix>
</trkpt>
<trkpt lat="33.8098261" lon="-118.3940217">
  <ele>-26.558</ele>
  <time>2026-09-02T22:11:40Z</time>
  <course>327.46</course>
  <speed>0.75</speed>
  <fix>3d</fix>
</trkpt>
<trkpt lat="33.8098253" lon="-118.3940206">
  <ele>-25.87</ele>
  <time>2026-09-02T22:11:40Z</time>
  <course>325.34</course>
  <speed>0.71</speed>
  <fix>3d</fix>
</trkpt>
<trkpt lat="33.8098267" lon="-118.3940221">
  <ele>-26.576</ele>
  <time>2026-09-02T22:11:40Z</time>
  <course>327.36</course>
  <speed>0.75</speed>
  <fix>3d</fix>
</trkpt>
<trkpt lat="33.8098253" lon="-118.3940206">
  <ele>-25.87</ele>
  <time>2026-09-02T22:11:40Z</time>
  <course>325.34</course>
  <speed>0.71</speed>
  <fix>3d</fix>
</trkpt>
<trkpt lat="33.8098272" lon="-118.3940225">
  <ele>-26.593</ele>
  <time>2026-09-02T22:11:40Z</time>
  <course>327.27</course>
  <speed>0.75</speed>
  <fix>3d</fix>
</trkpt>
<trkpt lat="33.8098264" lon="-118.3940215">
  <ele>-25.9</ele>
  <time>2026-09-02T22:11:40Z</time>
  <course>325.28</course>
  <speed>0.72</speed>
  <fix>3d</fix>
</trkpt>
<trkpt lat="33.8098277" lon="-118.394023">
  <ele>-26.61</ele>
  <time>2026-09-02T22:11:40Z</time>
  <course>327.19</course>
  <speed>0.756042326857432</speed>
  <fix>3d</fix>
</trkpt>
<trkpt lat="33.8098264" lon="-118.3940215">
  <ele>-25.9</ele>
  <time>2026-09-02T22:11:40Z</time>
  <course>325.28</course>
  <speed>0.72</speed>
  <fix>3d</fix>
</trkpt>
<trkpt lat="33.8098283" lon="-118.3940234">
  <ele>-26.626</ele>
  <time>2026-09-02T22:11:40Z</time>
  <course>327.11</course>
  <speed>0.7640026177965623</speed>
  <fix>3d</fix>
</trkpt>
<trkpt lat="33.8098274" lon="-118.3940224">
  <ele>-25.93</ele>
  <time>2026-09-02T22:11:40Z</time>
  <course>325.23</course>
  <speed>0.72</speed>
  <fix>3d</fix>
</trkpt>
<trkpt lat="33.8098288" lon="-118.3940239">
  <ele>-26.642</ele>
  <time>2026-09-02T22:11:40Z</time>
  <course>327.04</course>
  <speed>0.7640026177965623</speed>
  <fix>3d</fix>
</trkpt>
<trkpt lat="33.8098274" lon="-118.3940224">
  <ele>-25.93</ele>
  <time>2026-09-02T22:11:40Z</time>
  <course>325.23</course>
  <speed>0.72</speed>
  <fix>3d</fix>
</trkpt>
<trkpt lat="33.8098293" lon="-118.3940243">
  <ele>-26.657</ele>
  <time>2026-09-02T22:11:40Z</time>
  <course>326.98</course>
  <speed>0.7640026177965623</speed>
  <fix>3d</fix>
</trkpt>
<trkpt lat="33.8098285" lon="-118.3940233">
  <ele>-25.97</ele>
  <time>2026-09-02T22:11:40Z</time>
  <course>325.23</course>
  <speed>0.73</speed>
  <fix>3d</fix>
</trkpt>
<trkpt lat="33.8098299" lon="-118.3940248">
  <ele>-26.672</ele>
  <time>2026-09-02T22:11:40Z</time>
  <course>326.93</course>
  <speed>0.7640026177965623</speed>
  <fix>3d</fix>
</trkpt>
<trkpt lat="33.8098285" lon="-118.3940233">
  <ele>-25.97</ele>
  <time>2026-09-02T22:11:40Z</time>
  <course>325.23</course>
  <speed>0.73</speed>
  <fix>3d</fix>
</trkpt>
<trkpt lat="33.8098304" lon="-118.3940252">
  <ele>-26.686</ele>
  <time>2026-09-02T22:11:40Z</time>
  <course>326.89</course>
  <speed>0.7640026177965623</speed>
  <fix>3d</fix>
</trkpt>
<trkpt lat="33.8098296" lon="-118.3940242">
  <ele>-26.0</ele>
  <time>2026-09-02T22:11:40Z</time>
  <course>325.28</course>
  <speed>0.73</speed>
  <fix>3d</fix>
</trkpt>
<trkpt lat="33.8098309" lon="-118.3940257">
  <ele>-26.701</ele>
  <time>2026-09-02T22:11:40Z</time>
  <course>326.86</course>
  <speed>0.7640026177965623</speed>
  <fix>3d</fix>
</trkpt>
<trkpt lat="33.8098296" lon="-118.3940242">
  <ele>-26.0</ele>
  <time>2026-09-02T22:11:40Z</time>
  <course>325.28</course>
  <speed>0.73</speed>
  <fix>3d</fix>
</trkpt>
<trkpt lat="33.8098315" lon="-118.3940261">
  <ele>-26.715</ele>
  <time>2026-09-02T22:11:40Z</time>
  <course>326.81</course>
  <speed>0.7640026177965623</speed>
  <fix>3d</fix>
</trkpt>
<trkpt lat="33.8098307" lon="-118.3940251">
  <ele>-26.03</ele>
  <time>2026-09-02T22:11:40Z</time>
  <course>325.31</course>
  <speed>0.74</speed>
  <fix>3d</fix>
</trkpt>
<trkpt lat="33.809832" lon="-118.3940266">
  <ele>-26.731</ele>
  <time>2026-09-02T22:11:40Z</time>
  <course>326.76</course>
  <speed>0.7720103626247513</speed>
  <fix>3d</fix>
</trkpt>
<trkpt lat="33.8098307" lon="-118.3940251">
  <ele>-26.03</ele>
  <time>2026-09-02T22:11:40Z</time>
  <course>325.31</course>
  <speed>0.74</speed>
  <fix>3d</fix>
</trkpt>
<trkpt lat="33.8098326" lon="-118.394027">
  <ele>-26.747</ele>
  <time>2026-09-02T22:11:40Z</time>
  <course>326.71</course>
  <speed>0.7720103626247513</speed>
  <fix>3d</fix>
</trkpt>
<trkpt lat="33.8098318" lon="-118.394026">
  <ele>-26.06</ele>
  <time>2026-09-02T22:11:40Z</time>
  <course>325.34</course>
  <speed>0.74</speed>
  <fix>3d</fix>
</trkpt>
<trkpt lat="33.8098331" lon="-118.3940275">
  <ele>-26.764</ele>
  <time>2026-09-02T22:11:40Z</time>
  <course>326.66</course>
  <speed>0.7720103626247513</speed>
  <fix>3d</fix>
</trkpt>
<trkpt lat="33.8098318" lon="-118.394026">
  <ele>-26.06</ele>
  <time>2026-09-02T22:11:40Z</time>
  <course>325.34</course>
  <speed>0.74</speed>
  <fix>3d</fix>
</trkpt>
<trkpt lat="33.8098337" lon="-118.394028">
  <ele>-26.782</ele>
  <time>2026-09-02T22:11:40Z</time>
  <course>326.59</course>
  <speed>0.7720103626247513</speed>
  <fix>3d</fix>
</trkpt>
<trkpt lat="33.8098329" lon="-118.3940269">
  <ele>-26.09</ele>
  <time>2026-09-02T22:11:40Z</time>
  <course>325.33</course>
  <speed>0.74</speed>
  <fix>3d</fix>
</trkpt>
<trkpt lat="33.8098342" lon="-118.3940284">
  <ele>-26.799</ele>
  <time>2026-09-02T22:11:40Z</time>
  <course>326.53</course>
  <speed>0.7780102827083971</speed>
  <fix>3d</fix>
</trkpt>
<trkpt lat="33.8098329" lon="-118.3940269">
  <ele>-26.09</ele>
  <time>2026-09-02T22:11:40Z</time>
  <course>325.33</course>
  <speed>0.74</speed>
  <fix>3d</fix>
</trkpt>
<trkpt lat="33.8098348" lon="-118.3940289">
  <ele>-26.816</ele>
  <time>2026-09-02T22:11:40Z</time>
  <course>326.45</course>
  <speed>0.7780102827083971</speed>
  <fix>3d</fix>
</trkpt>
<trkpt lat="33.809834" lon="-118.3940279">
  <ele>-26.12</ele>
  <time>2026-09-02T22:11:40Z</time>
  <course>325.29</course>
  <speed>0.75</speed>
  <fix>3d</fix>
</trkpt>
<trkpt lat="33.8098353" lon="-118.3940293">
  <ele>-26.833</ele>
  <time>2026-09-02T22:11:40Z</time>
  <course>326.39</course>
  <speed>0.7780102827083971</speed>
  <fix>3d</fix>
</trkpt>
<trkpt lat="33.809834" lon="-118.3940279">
  <ele>-26.12</ele>
  <time>2026-09-02T22:11:40Z</time>
  <course>325.29</course>
  <speed>0.75</speed>
  <fix>3d</fix>
</trkpt>
<trkpt lat="33.8098359" lon="-118.3940298">
  <ele>-26.849</ele>
  <time>2026-09-02T22:11:40Z</time>
  <course>326.34</course>
  <speed>0.7780102827083971</speed>
  <fix>3d</fix>
</trkpt>
<trkpt lat="33.8098351" lon="-118.3940288">
  <ele>-26.16</ele>
  <time>2026-09-02T22:11:40Z</time>
  <course>325.29</course>
  <speed>0.75</speed>
  <fix>3d</fix>
</trkpt>
<trkpt lat="33.8098364" lon="-118.3940303">
  <ele>-26.867</ele>
  <time>2026-09-02T22:11:40Z</time>
  <course>326.3</course>
  <speed>0.7780102827083971</speed>
  <fix>3d</fix>
</trkpt>
<trkpt lat="33.8098351" lon="-118.3940288">
  <ele>-26.16</ele>
  <time>2026-09-02T22:11:40Z</time>
  <course>325.29</course>
  <speed>0.75</speed>
  <fix>3d</fix>
</trkpt>
<trkpt lat="33.809837" lon="-118.3940307">
  <ele>-26.884</ele>
  <time>2026-09-02T22:11:40Z</time>
  <course>326.26</course>
  <speed>0.7780102827083971</speed>
  <fix>3d</fix>
</trkpt>
<trkpt lat="33.8098362" lon="-118.3940297">
  <ele>-26.19</ele>
  <time>2026-09-02T22:11:40Z</time>
  <course>325.33</course>
  <speed>0.75</speed>
  <fix>3d</fix>
</trkpt>
<trkpt lat="33.8098376" lon="-118.3940312">
  <ele>-26.901</ele>
  <time>2026-09-02T22:11:40Z</time>
  <course>326.22</course>
  <speed>0.7780102827083971</speed>
  <fix>3d</fix>
</trkpt>
<trkpt lat="33.8098362" lon="-118.3940297">
  <ele>-26.19</ele>
  <time>2026-09-02T22:11:40Z</time>
  <course>325.33</course>
  <speed>0.75</speed>
  <fix>3d</fix>
</trkpt>
<trkpt lat="33.8098381" lon="-118.3940317">
  <ele>-26.919</ele>
  <time>2026-09-02T22:11:40Z</time>
  <course>326.18</course>
  <speed>0.7860025445251434</speed>
  <fix>3d</fix>
</trkpt>
<trkpt lat="33.8098374" lon="-118.3940307">
  <ele>-26.22</ele>
  <time>2026-09-02T22:11:40Z</time>
  <course>325.36</course>
  <speed>0.76</speed>
  <fix>3d</fix>
</trkpt>
<trkpt lat="33.8098387" lon="-118.3940321">
  <ele>-26.936</ele>
  <time>2026-09-02T22:11:40Z</time>
  <course>326.14</course>
  <speed>0.7860025445251434</speed>
  <fix>3d</fix>
</trkpt>
<trkpt lat="33.8098374" lon="-118.3940307">
  <ele>-26.22</ele>
  <time>2026-09-02T22:11:40Z</time>
  <course>325.36</course>
  <speed>0.76</speed>
  <fix>3d</fix>
</trkpt>
<trkpt lat="33.8098392" lon="-118.3940326">
  <ele>-26.954</ele>
  <time>2026-09-02T22:11:40Z</time>
  <course>326.08</course>
  <speed>0.7860025445251434</speed>
  <fix>3d</fix>
</trkpt>
<trkpt lat="33.8098385" lon="-118.3940316">
  <ele>-26.26</ele>
  <time>2026-09-02T22:11:40Z</time>
  <course>325.37</course>
  <speed>0.76</speed>
  <fix>3d</fix>
</trkpt>
<trkpt lat="33.8098398" lon="-118.3940331">
  <ele>-26.972</ele>
  <time>2026-09-02T22:11:40Z</time>
  <course>326.04</course>
  <speed>0.7860025445251434</speed>
  <fix>3d</fix>
</trkpt>
<trkpt lat="33.8098385" lon="-118.3940316">
  <ele>-26.26</ele>
  <time>2026-09-02T22:11:40Z</time>
  <course>325.37</course>
  <speed>0.76</speed>
  <fix>3d</fix>
</trkpt>
<trkpt lat="33.8098404" lon="-118.3940336">
  <ele>-26.991</ele>
  <time>2026-09-02T22:11:40Z</time>
  <course>325.99</course>
  <speed>0.7860025445251434</speed>
  <fix>3d</fix>
</trkpt>
<trkpt lat="33.8098396" lon="-118.3940325">
  <ele>-26.29</ele>
  <time>2026-09-02T22:11:40Z</time>
  <course>325.35</course>
  <speed>0.76</speed>
  <fix>3d</fix>
</trkpt>
<trkpt lat="33.8098409" lon="-118.394034">
  <ele>-27.008</ele>
  <time>2026-09-02T22:11:40Z</time>
  <course>325.94</course>
  <speed>0.7920227269466451</speed>
  <fix>3d</fix>
</trkpt>
<trkpt lat="33.8098396" lon="-118.3940325">
  <ele>-26.29</ele>
  <time>2026-09-02T22:11:40Z</time>
  <course>325.35</course>
  <speed>0.76</speed>
  <fix>3d</fix>
</trkpt>
<trkpt lat="33.8098415" lon="-118.3940345">
  <ele>-27.025</ele>
  <time>2026-09-02T22:11:40Z</time>
  <course>325.87</course>
  <speed>0.7920227269466451</speed>
  <fix>3d</fix>
</trkpt>
<trkpt lat="33.8098407" lon="-118.3940335">
  <ele>-26.32</ele>
  <time>2026-09-02T22:11:40Z</time>
  <course>325.32</course>
  <speed>0.76</speed>
  <fix>3d</fix>
</trkpt>
<trkpt lat="33.8098421" lon="-118.394035">
  <ele>-27.042</ele>
  <time>2026-09-02T22:11:40Z</time>
  <course>325.81</course>
  <speed>0.7920227269466451</speed>
  <fix>3d</fix>
</trkpt>
<trkpt lat="33.8098407" lon="-118.3940335">
  <ele>-26.32</ele>
  <time>2026-09-02T22:11:40Z</time>
  <course>325.32</course>
  <speed>0.76</speed>
  <fix>3d</fix>
</trkpt>
<trkpt lat="33.8098426" lon="-118.3940355">
  <ele>-27.058</ele>
  <time>2026-09-02T22:11:40Z</time>
  <course>325.76</course>
  <speed>0.7920227269466451</speed>
  <fix>3d</fix>
</trkpt>
<trkpt lat="33.8098419" lon="-118.3940344">
  <ele>-26.36</ele>
  <time>2026-09-02T22:11:40Z</time>
  <course>325.34</course>
  <speed>0.77</speed>
  <fix>3d</fix>
</trkpt>
<trkpt lat="33.8098432" lon="-118.3940359">
  <ele>-27.074</ele>
  <time>2026-09-02T22:11:40Z</time>
  <course>325.73</course>
  <speed>0.8</speed>
  <fix>3d</fix>
</trkpt>
<trkpt lat="33.8098419" lon="-118.3940344">
  <ele>-26.36</ele>
  <time>2026-09-02T22:11:40Z</time>
  <course>325.34</course>
  <speed>0.77</speed>
  <fix>3d</fix>
</trkpt>
<trkpt lat="33.8098438" lon="-118.3940364">
  <ele>-27.091</ele>
  <time>2026-09-02T22:11:40Z</time>
  <course>325.68</course>
  <speed>0.8</speed>
  <fix>3d</fix>
</trkpt>
<trkpt lat="33.809843" lon="-118.3940354">
  <ele>-26.39</ele>
  <time>2026-09-02T22:11:40Z</time>
  <course>325.35</course>
  <speed>0.77</speed>
  <fix>3d</fix>
</trkpt>
<trkpt lat="33.8098444" lon="-118.3940369">
  <ele>-27.108</ele>
  <time>2026-09-02T22:11:40Z</time>
  <course>325.63</course>
  <speed>0.8</speed>
  <fix>3d</fix>
</trkpt>
<trkpt lat="33.809843" lon="-118.3940354">
  <ele>-26.39</ele>
  <time>2026-09-02T22:11:40Z</time>
  <course>325.35</course>
  <speed>0.77</speed>
  <fix>3d</fix>
</trkpt>
<trkpt lat="33.8098449" lon="-118.3940374">
  <ele>-27.125</ele>
  <time>2026-09-02T22:11:40Z</time>
  <course>325.56</course>
  <speed>0.8</speed>
  <fix>3d</fix>
</trkpt>
<trkpt lat="33.8098442" lon="-118.3940363">
  <ele>-26.42</ele>
  <time>2026-09-02T22:11:40Z</time>
  <course>325.34</course>
  <speed>0.77</speed>
  <fix>3d</fix>
</trkpt>
<trkpt lat="33.8098455" lon="-118.3940379">
  <ele>-27.143</ele>
  <time>2026-09-02T22:11:40Z</time>
  <course>325.52</course>
  <speed>0.8</speed>
  <fix>3d</fix>
</trkpt>
<trkpt lat="33.8098442" lon="-118.3940363">
  <ele>-26.42</ele>
  <time>2026-09-02T22:11:40Z</time>
  <course>325.34</course>
  <speed>0.77</speed>
  <fix>3d</fix>
</trkpt>
<trkpt lat="33.8098461" lon="-118.3940383">
  <ele>-27.161</ele>
  <time>2026-09-02T22:11:40Z</time>
  <course>325.45</course>
  <speed>0.8</speed>
  <fix>3d</fix>
</trkpt>
<trkpt lat="33.8098454" lon="-118.3940373">
  <ele>-26.46</ele>
  <time>2026-09-02T22:11:40Z</time>
  <course>325.31</course>
  <speed>0.78</speed>
  <fix>3d</fix>
</trkpt>
<trkpt lat="33.8098467" lon="-118.3940388">
  <ele>-27.18</ele>
  <time>2026-09-02T22:11:40Z</time>
  <course>325.39</course>
  <speed>0.8060397012554654</speed>
  <fix>3d</fix>
</trkpt>
<trkpt lat="33.8098454" lon="-118.3940373">
  <ele>-26.46</ele>
  <time>2026-09-02T22:11:40Z</time>
  <course>325.31</course>
  <speed>0.78</speed>
  <fix>3d</fix>
</trkpt>
<trkpt lat="33.8098473" lon="-118.3940393">
  <ele>-27.199</ele>
  <time>2026-09-02T22:11:40Z</time>
  <course>325.31</course>
  <speed>0.8060397012554654</speed>
  <fix>3d</fix>
</trkpt>
<trkpt lat="33.8098465" lon="-118.3940383">
  <ele>-26.49</ele>
  <time>2026-09-02T22:11:40Z</time>
  <course>325.24</course>
  <speed>0.78</speed>
  <fix>3d</fix>
</trkpt>
<trkpt lat="33.8098478" lon="-118.3940398">
  <ele>-27.217</ele>
  <time>2026-09-02T22:11:40Z</time>
  <course>325.25</course>
  <speed>0.8060397012554654</speed>
  <fix>3d</fix>
</trkpt>
<trkpt lat="33.8098465" lon="-118.3940383">
  <ele>-26.49</ele>
  <time>2026-09-02T22:11:40Z</time>
  <course>325.24</course>
  <speed>0.78</speed>
  <fix>3d</fix>
</trkpt>
<trkpt lat="33.8098484" lon="-118.3940403">
  <ele>-27.235</ele>
  <time>2026-09-02T22:11:40Z</time>
  <course>325.19</course>
  <speed>0.8060397012554654</speed>
  <fix>3d</fix>
</trkpt>
<trkpt lat="33.8098477" lon="-118.3940392">
  <ele>-26.52</ele>
  <time>2026-09-02T22:11:40Z</time>
  <course>325.2</course>
  <speed>0.78</speed>
  <fix>3d</fix>
</trkpt>
<trkpt lat="33.809849" lon="-118.3940408">
  <ele>-27.252</ele>
  <time>2026-09-02T22:11:40Z</time>
  <course>325.14</course>
  <speed>0.8140024569987488</speed>
  <fix>3d</fix>
</trkpt>
<trkpt lat="33.8098477" lon="-118.3940392">
  <ele>-26.52</ele>
  <time>2026-09-02T22:11:40Z</time>
  <course>325.2</course>
  <speed>0.78</speed>
  <fix>3d</fix>
</trkpt>
<trkpt lat="33.8098496" lon="-118.3940413">
  <ele>-27.268</ele>
  <time>2026-09-02T22:11:40Z</time>
  <course>325.08</course>
  <speed>0.8140024569987488</speed>
  <fix>3d</fix>
</trkpt>
<trkpt lat="33.8098488" lon="-118.3940402">
  <ele>-26.56</ele>
  <time>2026-09-02T22:11:40Z</time>
  <course>325.17</course>
  <speed>0.78</speed>
  <fix>3d</fix>
</trkpt>
<trkpt lat="33.8098502" lon="-118.3940417">
  <ele>-27.285</ele>
  <time>2026-09-02T22:11:40Z</time>
  <course>325.02</course>
  <speed>0.8140024569987488</speed>
  <fix>3d</fix>
</trkpt>
<trkpt lat="33.8098488" lon="-118.3940402">
  <ele>-26.56</ele>
  <time>2026-09-02T22:11:40Z</time>
  <course>325.17</course>
  <speed>0.78</speed>
  <fix>3d</fix>
</trkpt>
<trkpt lat="33.8098508" lon="-118.3940422">
  <ele>-27.302</ele>
  <time>2026-09-02T22:11:40Z</time>
  <course>324.96</course>
  <speed>0.8140024569987488</speed>
  <fix>3d</fix>
</trkpt>
<trkpt lat="33.80985" lon="-118.3940412">
  <ele>-26.59</ele>
  <time>2026-09-02T22:11:40Z</time>
  <course>325.14</course>
  <speed>0.79</speed>
  <fix>3d</fix>
</trkpt>
<trkpt lat="33.8098513" lon="-118.3940427">
  <ele>-27.32</ele>
  <time>2026-09-02T22:11:40Z</time>
  <course>324.92</course>
  <speed>0.8200609733428362</speed>
  <fix>3d</fix>
</trkpt>
<trkpt lat="33.80985" lon="-118.3940412">
  <ele>-26.59</ele>
  <time>2026-09-02T22:11:40Z</time>
  <course>325.14</course>
  <speed>0.79</speed>
  <fix>3d</fix>
</trkpt>
<trkpt lat="33.8098519" lon="-118.3940432">
  <ele>-27.338</ele>
  <time>2026-09-02T22:11:40Z</time>
  <course>324.88</course>
  <speed>0.8200609733428362</speed>
  <fix>3d</fix>
</trkpt>
<trkpt lat="33.8098512" lon="-118.3940422">
  <ele>-26.63</ele>
  <time>2026-09-02T22:11:40Z</time>
  <course>325.12</course>
  <speed>0.79</speed>
  <fix>3d</fix>
</trkpt>
<trkpt lat="33.8098525" lon="-118.3940437">
  <ele>-27.356</ele>
  <time>2026-09-02T22:11:40Z</time>
  <course>324.85</course>
  <speed>0.8200609733428362</speed>
  <fix>3d</fix>
</trkpt>
<trkpt lat="33.8098512" lon="-118.3940422">
  <ele>-26.63</ele>
  <time>2026-09-02T22:11:40Z</time>
  <course>325.12</course>
  <speed>0.79</speed>
  <fix>3d</fix>
</trkpt>
<trkpt lat="33.8098531" lon="-118.3940442">
  <ele>-27.373</ele>
  <time>2026-09-02T22:11:40Z</time>
  <course>324.81</course>
  <speed>0.8200609733428362</speed>
  <fix>3d</fix>
</trkpt>
<trkpt lat="33.8098523" lon="-118.3940432">
  <ele>-26.66</ele>
  <time>2026-09-02T22:11:40Z</time>
  <course>325.12</course>
  <speed>0.79</speed>
  <fix>3d</fix>
</trkpt>
<trkpt lat="33.8098537" lon="-118.3940447">
  <ele>-27.392</ele>
  <time>2026-09-02T22:11:40Z</time>
  <course>324.78</course>
  <speed>0.8280096617793781</speed>
  <fix>3d</fix>
</trkpt>
<trkpt lat="33.8098523" lon="-118.3940432">
  <ele>-26.66</ele>
  <time>2026-09-02T22:11:40Z</time>
  <course>325.12</course>
  <speed>0.79</speed>
  <fix>3d</fix>
</trkpt>
<trkpt lat="33.8098543" lon="-118.3940452">
  <ele>-27.41</ele>
  <time>2026-09-02T22:11:40Z</time>
  <course>324.76</course>
  <speed>0.8280096617793781</speed>
  <fix>3d</fix>
</trkpt>
<trkpt lat="33.8098534" lon="-118.3940441">
  <ele>-26.7</ele>
  <time>2026-09-02T22:11:40Z</time>
  <course>325.16</course>
  <speed>0.8</speed>
  <fix>3d</fix>
</trkpt>
<trkpt lat="33.8098549" lon="-118.3940457">
  <ele>-27.429</ele>
  <time>2026-09-02T22:11:40Z</time>
  <course>324.75</course>
  <speed>0.8280096617793781</speed>
  <fix>3d</fix>
</trkpt>
<trkpt lat="33.8098534" lon="-118.3940441">
  <ele>-26.7</ele>
  <time>2026-09-02T22:11:40Z</time>
  <course>325.16</course>
  <speed>0.8</speed>
  <fix>3d</fix>
</trkpt>
<trkpt lat="33.8098555" lon="-118.3940462">
  <ele>-27.446</ele>
  <time>2026-09-02T22:11:40Z</time>
  <course>324.73</course>
  <speed>0.8280096617793781</speed>
  <fix>3d</fix>
</trkpt>
<trkpt lat="33.8098546" lon="-118.3940451">
  <ele>-26.73</ele>
  <time>2026-09-02T22:11:40Z</time>
  <course>325.2</course>
  <speed>0.8</speed>
  <fix>3d</fix>
</trkpt>
<trkpt lat="33.8098561" lon="-118.3940467">
  <ele>-27.464</ele>
  <time>2026-09-02T22:11:40Z</time>
  <course>324.72</course>
  <speed>0.8280096617793781</speed>
  <fix>3d</fix>
</trkpt>
<trkpt lat="33.8098546" lon="-118.3940451">
  <ele>-26.73</ele>
  <time>2026-09-02T22:11:40Z</time>
  <course>325.2</course>
  <speed>0.8</speed>
  <fix>3d</fix>
</trkpt>
<trkpt lat="33.8098567" lon="-118.3940472">
  <ele>-27.482</ele>
  <time>2026-09-02T22:11:40Z</time>
  <course>324.7</course>
  <speed>0.8360023923410747</speed>
  <fix>3d</fix>
</trkpt>
<trkpt lat="33.8098558" lon="-118.3940461">
  <ele>-26.77</ele>
  <time>2026-09-02T22:11:40Z</time>
  <course>325.23</course>
  <speed>0.81</speed>
  <fix>3d</fix>
</trkpt>
<trkpt lat="33.8098573" lon="-118.3940477">
  <ele>-27.5</ele>
  <time>2026-09-02T22:11:40Z</time>
  <course>324.68</course>
  <speed>0.8420213774008353</speed>
  <fix>3d</fix>
</trkpt>
<trkpt lat="33.8098558" lon="-118.3940461">
  <ele>-26.77</ele>
  <time>2026-09-02T22:11:40Z</time>
  <course>325.23</course>
  <speed>0.81</speed>
  <fix>3d</fix>
</trkpt>
<trkpt lat="33.8098579" lon="-118.3940482">
  <ele>-27.518</ele>
  <time>2026-09-02T22:11:40Z</time>
  <course>324.65</course>
  <speed>0.8420213774008353</speed>
  <fix>3d</fix>
</trkpt>
<trkpt lat="33.8098571" lon="-118.3940471">
  <ele>-26.81</ele>
  <time>2026-09-02T22:11:40Z</time>
  <course>325.24</course>
  <speed>0.81</speed>
  <fix>3d</fix>
</trkpt>
<trkpt lat="33.8098585" lon="-118.3940487">
  <ele>-27.536</ele>
  <time>2026-09-02T22:11:40Z</time>
  <course>324.61</course>
  <speed>0.8420213774008353</speed>
  <fix>3d</fix>
</trkpt>
<trkpt lat="33.8098571" lon="-118.3940471">
  <ele>-26.81</ele>
  <time>2026-09-02T22:11:40Z</time>
  <course>325.24</course>
  <speed>0.81</speed>
  <fix>3d</fix>
</trkpt>
<trkpt lat="33.8098591" lon="-118.3940492">
  <ele>-27.555</ele>
  <time>2026-09-02T22:11:40Z</time>
  <course>324.55</course>
  <speed>0.8420213774008353</speed>
  <fix>3d</fix>
</trkpt>
<trkpt lat="33.8098583" lon="-118.3940481">
  <ele>-26.84</ele>
  <time>2026-09-02T22:11:40Z</time>
  <course>325.2</course>
  <speed>0.81</speed>
  <fix>3d</fix>
</trkpt>
<trkpt lat="33.8098597" lon="-118.3940497">
  <ele>-27.573</ele>
  <time>2026-09-02T22:11:41Z</time>
  <course>324.5</course>
  <speed>0.8420213774008353</speed>
  <fix>3d</fix>
</trkpt>
<trkpt lat="33.8098583" lon="-118.3940481">
  <ele>-26.84</ele>
  <time>2026-09-02T22:11:41Z</time>
  <course>325.2</course>
  <speed>0.81</speed>
  <fix>3d</fix>
</trkpt>
<trkpt lat="33.8098603" lon="-118.3940502">
  <ele>-27.591</ele>
  <time>2026-09-02T22:11:41Z</time>
  <course>324.43</course>
  <speed>0.8420213774008353</speed>
  <fix>3d</fix>
</trkpt>
<trkpt lat="33.8098595" lon="-118.3940492">
  <ele>-26.88</ele>
  <time>2026-09-02T22:11:41Z</time>
  <course>325.1</course>
  <speed>0.82</speed>
  <fix>3d</fix>
</trkpt>
<trkpt lat="33.8098609" lon="-118.3940508">
  <ele>-27.609</ele>
  <time>2026-09-02T22:11:41Z</time>
  <course>324.37</course>
  <speed>0.8420213774008353</speed>
  <fix>3d</fix>
</trkpt>
<trkpt lat="33.8098595" lon="-118.3940492">
  <ele>-26.88</ele>
  <time>2026-09-02T22:11:41Z</time>
  <course>325.1</course>
  <speed>0.82</speed>
  <fix>3d</fix>
</trkpt>
<trkpt lat="33.8098615" lon="-118.3940513">
  <ele>-27.628</ele>
  <time>2026-09-02T22:11:41Z</time>
  <course>324.32</course>
  <speed>0.8420213774008353</speed>
  <fix>3d</fix>
</trkpt>
<trkpt lat="33.8098607" lon="-118.3940502">
  <ele>-26.91</ele>
  <time>2026-09-02T22:11:41Z</time>
  <course>325.04</course>
  <speed>0.82</speed>
  <fix>3d</fix>
</trkpt>
<trkpt lat="33.8098621" lon="-118.3940518">
  <ele>-27.647</ele>
  <time>2026-09-02T22:11:41Z</time>
  <course>324.29</course>
  <speed>0.8420213774008353</speed>
  <fix>3d</fix>
</trkpt>
<trkpt lat="33.8098607" lon="-118.3940502">
  <ele>-26.91</ele>
  <time>2026-09-02T22:11:41Z</time>
  <course>325.04</course>
  <speed>0.82</speed>
  <fix>3d</fix>
</trkpt>
<trkpt lat="33.8098627" lon="-118.3940523">
  <ele>-27.665</ele>
  <time>2026-09-02T22:11:41Z</time>
  <course>324.26</course>
  <speed>0.8420213774008353</speed>
  <fix>3d</fix>
</trkpt>
<trkpt lat="33.8098619" lon="-118.3940512">
  <ele>-26.95</ele>
  <time>2026-09-02T22:11:41Z</time>
  <course>325.04</course>
  <speed>0.82</speed>
  <fix>3d</fix>
</trkpt>
<trkpt lat="33.8098633" lon="-118.3940528">
  <ele>-27.683</ele>
  <time>2026-09-02T22:11:41Z</time>
  <course>324.25</course>
  <speed>0.85</speed>
  <fix>3d</fix>
</trkpt>
<trkpt lat="33.8098619" lon="-118.3940512">
  <ele>-26.95</ele>
  <time>2026-09-02T22:11:41Z</time>
  <course>325.04</course>
  <speed>0.82</speed>
  <fix>3d</fix>
</trkpt>
<trkpt lat="33.8098639" lon="-118.3940533">
  <ele>-27.701</ele>
  <time>2026-09-02T22:11:41Z</time>
  <course>324.22</course>
  <speed>0.85</speed>
  <fix>3d</fix>
</trkpt>
<trkpt lat="33.8098631" lon="-118.3940522">
  <ele>-26.98</ele>
  <time>2026-09-02T22:11:41Z</time>
  <course>325.05</course>
  <speed>0.82</speed>
  <fix>3d</fix>
</trkpt>
<trkpt lat="33.8098645" lon="-118.3940538">
  <ele>-27.718</ele>
  <time>2026-09-02T22:11:41Z</time>
  <course>324.2</course>
  <speed>0.8560373823613078</speed>
  <fix>3d</fix>
</trkpt>
<trkpt lat="33.8098631" lon="-118.3940522">
  <ele>-26.98</ele>
  <time>2026-09-02T22:11:41Z</time>
  <course>325.05</course>
  <speed>0.82</speed>
  <fix>3d</fix>
</trkpt>
<trkpt lat="33.8098652" lon="-118.3940544">
  <ele>-27.735</ele>
  <time>2026-09-02T22:11:41Z</time>
  <course>324.17</course>
  <speed>0.8560373823613078</speed>
  <fix>3d</fix>
</trkpt>
<trkpt lat="33.8098643" lon="-118.3940532">
  <ele>-27.02</ele>
  <time>2026-09-02T22:11:41Z</time>
  <course>325.04</course>
  <speed>0.82</speed>
  <fix>3d</fix>
</trkpt>
<trkpt lat="33.8098658" lon="-118.3940549">
  <ele>-27.752</ele>
  <time>2026-09-02T22:11:41Z</time>
  <course>324.14</course>
  <speed>0.8560373823613078</speed>
  <fix>3d</fix>
</trkpt>
<trkpt lat="33.8098643" lon="-118.3940532">
  <ele>-27.02</ele>
  <time>2026-09-02T22:11:41Z</time>
  <course>325.04</course>
  <speed>0.82</speed>
  <fix>3d</fix>
</trkpt>
<trkpt lat="33.8098664" lon="-118.3940554">
  <ele>-27.768</ele>
  <time>2026-09-02T22:11:41Z</time>
  <course>324.11</course>
  <speed>0.8560373823613078</speed>
  <fix>3d</fix>
</trkpt>
<trkpt lat="33.8098655" lon="-118.3940543">
  <ele>-27.06</ele>
  <time>2026-09-02T22:11:41Z</time>
  <course>325.02</course>
  <speed>0.83</speed>
  <fix>3d</fix>
</trkpt>
<trkpt lat="33.809867" lon="-118.3940559">
  <ele>-27.785</ele>
  <time>2026-09-02T22:11:41Z</time>
  <course>324.08</course>
  <speed>0.8560373823613078</speed>
  <fix>3d</fix>
</trkpt>
<trkpt lat="33.8098655" lon="-118.3940543">
  <ele>-27.06</ele>
  <time>2026-09-02T22:11:41Z</time>
  <course>325.02</course>
  <speed>0.83</speed>
  <fix>3d</fix>
</trkpt>
<trkpt lat="33.8098676" lon="-118.3940564">
  <ele>-27.803</ele>
  <time>2026-09-02T22:11:41Z</time>
  <course>324.07</course>
  <speed>0.8560373823613078</speed>
  <fix>3d</fix>
</trkpt>
<trkpt lat="33.8098668" lon="-118.3940553">
  <ele>-27.09</ele>
  <time>2026-09-02T22:11:41Z</time>
  <course>325.03</course>
  <speed>0.83</speed>
  <fix>3d</fix>
</trkpt>
<trkpt lat="33.8098682" lon="-118.3940569">
  <ele>-27.821</ele>
  <time>2026-09-02T22:11:41Z</time>
  <course>324.07</course>
  <speed>0.8640023148117139</speed>
  <fix>3d</fix>
</trkpt>
<trkpt lat="33.8098668" lon="-118.3940553">
  <ele>-27.09</ele>
  <time>2026-09-02T22:11:41Z</time>
  <course>325.03</course>
  <speed>0.83</speed>
  <fix>3d</fix>
</trkpt>
<trkpt lat="33.8098688" lon="-118.3940575">
  <ele>-27.841</ele>
  <time>2026-09-02T22:11:41Z</time>
  <course>324.05</course>
  <speed>0.8640023148117139</speed>
  <fix>3d</fix>
</trkpt>
<trkpt lat="33.809868" lon="-118.3940563">
  <ele>-27.13</ele>
  <time>2026-09-02T22:11:41Z</time>
  <course>325.04</course>
  <speed>0.83</speed>
  <fix>3d</fix>
</trkpt>
<trkpt lat="33.8098695" lon="-118.394058">
  <ele>-27.861</ele>
  <time>2026-09-02T22:11:41Z</time>
  <course>324.04</course>
  <speed>0.8640023148117139</speed>
  <fix>3d</fix>
</trkpt>
<trkpt lat="33.809868" lon="-118.3940563">
  <ele>-27.13</ele>
  <time>2026-09-02T22:11:41Z</time>
  <course>325.04</course>
  <speed>0.83</speed>
  <fix>3d</fix>
</trkpt>
<trkpt lat="33.8098701" lon="-118.3940585">
  <ele>-27.881</ele>
  <time>2026-09-02T22:11:41Z</time>
  <course>324.0</course>
  <speed>0.8640023148117139</speed>
  <fix>3d</fix>
</trkpt>
<trkpt lat="33.8098692" lon="-118.3940574">
  <ele>-27.16</ele>
  <time>2026-09-02T22:11:41Z</time>
  <course>325.0</course>
  <speed>0.84</speed>
  <fix>3d</fix>
</trkpt>
<trkpt lat="33.8098707" lon="-118.394059">
  <ele>-27.901</ele>
  <time>2026-09-02T22:11:41Z</time>
  <course>323.97</course>
  <speed>0.8640023148117139</speed>
  <fix>3d</fix>
</trkpt>
<trkpt lat="33.8098692" lon="-118.3940574">
  <ele>-27.16</ele>
  <time>2026-09-02T22:11:41Z</time>
  <course>325.0</course>
  <speed>0.84</speed>
  <fix>3d</fix>
</trkpt>
<trkpt lat="33.8098713" lon="-118.3940596">
  <ele>-27.921</ele>
  <time>2026-09-02T22:11:41Z</time>
  <course>323.94</course>
  <speed>0.8640023148117139</speed>
  <fix>3d</fix>
</trkpt>
<trkpt lat="33.8098705" lon="-118.3940584">
  <ele>-27.2</ele>
  <time>2026-09-02T22:11:41Z</time>
  <course>324.97</course>
  <speed>0.84</speed>
  <fix>3d</fix>
</trkpt>
<trkpt lat="33.8098719" lon="-118.3940601">
  <ele>-27.941</ele>
  <time>2026-09-02T22:11:41Z</time>
  <course>323.93</course>
  <speed>0.8700574693662483</speed>
  <fix>3d</fix>
</trkpt>
<trkpt lat="33.8098705" lon="-118.3940584">
  <ele>-27.2</ele>
  <time>2026-09-02T22:11:41Z</time>
  <course>324.97</course>
  <speed>0.84</speed>
  <fix>3d</fix>
</trkpt>
<trkpt lat="33.8098726" lon="-118.3940606">
  <ele>-27.962</ele>
  <time>2026-09-02T22:11:41Z</time>
  <course>323.9</course>
  <speed>0.8700574693662483</speed>
  <fix>3d</fix>
</trkpt>
<trkpt lat="33.8098717" lon="-118.3940595">
  <ele>-27.24</ele>
  <time>2026-09-02T22:11:41Z</time>
  <course>324.96</course>
  <speed>0.84</speed>
  <fix>3d</fix>
</trkpt>
<trkpt lat="33.8098732" lon="-118.3940611">
  <ele>-27.982</ele>
  <time>2026-09-02T22:11:41Z</time>
  <course>323.88</course>
  <speed>0.8700574693662483</speed>
  <fix>3d</fix>
</trkpt>
<trkpt lat="33.8098717" lon="-118.3940595">
  <ele>-27.24</ele>
  <time>2026-09-02T22:11:41Z</time>
  <course>324.96</course>
  <speed>0.84</speed>
  <fix>3d</fix>
</trkpt>
<trkpt lat="33.8098738" lon="-118.3940617">
  <ele>-28.001</ele>
  <time>2026-09-02T22:11:41Z</time>
  <course>323.86</course>
  <speed>0.8700574693662483</speed>
  <fix>3d</fix>
</trkpt>
<trkpt lat="33.809873" lon="-118.3940605">
  <ele>-27.27</ele>
  <time>2026-09-02T22:11:41Z</time>
  <course>324.94</course>
  <speed>0.85</speed>
  <fix>3d</fix>
</trkpt>
<trkpt lat="33.8098744" lon="-118.3940622">
  <ele>-28.018</ele>
  <time>2026-09-02T22:11:41Z</time>
  <course>323.84</course>
  <speed>0.8780091115700337</speed>
  <fix>3d</fix>
</trkpt>
<trkpt lat="33.809873" lon="-118.3940605">
  <ele>-27.27</ele>
  <time>2026-09-02T22:11:41Z</time>
  <course>324.94</course>
  <speed>0.85</speed>
  <fix>3d</fix>
</trkpt>
<trkpt lat="33.8098751" lon="-118.3940627">
  <ele>-28.036</ele>
  <time>2026-09-02T22:11:41Z</time>
  <course>323.81</course>
  <speed>0.8780091115700337</speed>
  <fix>3d</fix>
</trkpt>
<trkpt lat="33.8098743" lon="-118.3940615">
  <ele>-27.31</ele>
  <time>2026-09-02T22:11:41Z</time>
  <course>324.91</course>
  <speed>0.85</speed>
  <fix>3d</fix>
</trkpt>
<trkpt lat="33.8098757" lon="-118.3940633">
  <ele>-28.054</ele>
  <time>2026-09-02T22:11:41Z</time>
  <course>323.78</course>
  <speed>0.8780091115700337</speed>
  <fix>3d</fix>
</trkpt>
<trkpt lat="33.8098743" lon="-118.3940615">
  <ele>-27.31</ele>
  <time>2026-09-02T22:11:41Z</time>
  <course>324.91</course>
  <speed>0.85</speed>
  <fix>3d</fix>
</trkpt>
<trkpt lat="33.8098763" lon="-118.3940638">
  <ele>-28.073</ele>
  <time>2026-09-02T22:11:41Z</time>
  <course>323.72</course>
  <speed>0.8780091115700337</speed>
  <fix>3d</fix>
</trkpt>
<trkpt lat="33.8098755" lon="-118.3940626">
  <ele>-27.35</ele>
  <time>2026-09-02T22:11:41Z</time>
  <course>324.81</course>
  <speed>0.85</speed>
  <fix>3d</fix>
</trkpt>
<trkpt lat="33.809877" lon="-118.3940643">
  <ele>-28.091</ele>
  <time>2026-09-02T22:11:41Z</time>
  <course>323.66</course>
  <speed>0.8780091115700337</speed>
  <fix>3d</fix>
</trkpt>
<trkpt lat="33.8098755" lon="-118.3940626">
  <ele>-27.35</ele>
  <time>2026-09-02T22:11:41Z</time>
  <course>324.81</course>
  <speed>0.85</speed>
  <fix>3d</fix>
</trkpt>
<trkpt lat="33.8098776" lon="-118.3940648">
  <ele>-28.108</ele>
  <time>2026-09-02T22:11:41Z</time>
  <course>323.61</course>
  <speed>0.8780091115700337</speed>
  <fix>3d</fix>
</trkpt>
<trkpt lat="33.8098768" lon="-118.3940637">
  <ele>-27.38</ele>
  <time>2026-09-02T22:11:41Z</time>
  <course>324.69</course>
  <speed>0.85</speed>
  <fix>3d</fix>
</trkpt>
<trkpt lat="33.8098782" lon="-118.3940654">
  <ele>-28.126</ele>
  <time>2026-09-02T22:11:41Z</time>
  <course>323.57</course>
  <speed>0.8780091115700337</speed>
  <fix>3d</fix>
</trkpt>
<trkpt lat="33.8098768" lon="-118.3940637">
  <ele>-27.38</ele>
  <time>2026-09-02T22:11:41Z</time>
  <course>324.69</course>
  <speed>0.85</speed>
  <fix>3d</fix>
</trkpt>
<trkpt lat="33.8098789" lon="-118.3940659">
  <ele>-28.144</ele>
  <time>2026-09-02T22:11:41Z</time>
  <course>323.54</course>
  <speed>0.8780091115700337</speed>
  <fix>3d</fix>
</trkpt>
<trkpt lat="33.809878" lon="-118.3940648">
  <ele>-27.42</ele>
  <time>2026-09-02T22:11:41Z</time>
  <course>324.63</course>
  <speed>0.85</speed>
  <fix>3d</fix>
</trkpt>
<trkpt lat="33.8098795" lon="-118.3940665">
  <ele>-28.162</ele>
  <time>2026-09-02T22:11:41Z</time>
  <course>323.53</course>
  <speed>0.8780091115700337</speed>
  <fix>3d</fix>
</trkpt>
<trkpt lat="33.809878" lon="-118.3940648">
  <ele>-27.42</ele>
  <time>2026-09-02T22:11:41Z</time>
  <course>324.63</course>
  <speed>0.85</speed>
  <fix>3d</fix>
</trkpt>
<trkpt lat="33.8098801" lon="-118.394067">
  <ele>-28.181</ele>
  <time>2026-09-02T22:11:41Z</time>
  <course>323.53</course>
  <speed>0.8780091115700337</speed>
  <fix>3d</fix>
</trkpt>
<trkpt lat="33.8098793" lon="-118.3940658">
  <ele>-27.46</ele>
  <time>2026-09-02T22:11:41Z</time>
  <course>324.64</course>
  <speed>0.86</speed>
  <fix>3d</fix>
</trkpt>
<trkpt lat="33.8098808" lon="-118.3940675">
  <ele>-28.201</ele>
  <time>2026-09-02T22:11:41Z</time>
  <course>323.53</course>
  <speed>0.8840814442120137</speed>
  <fix>3d</fix>
</trkpt>
<trkpt lat="33.8098793" lon="-118.3940658">
  <ele>-27.46</ele>
  <time>2026-09-02T22:11:41Z</time>
  <course>324.64</course>
  <speed>0.86</speed>
  <fix>3d</fix>
</trkpt>
<trkpt lat="33.8098814" lon="-118.3940681">
  <ele>-28.22</ele>
  <time>2026-09-02T22:11:41Z</time>
  <course>323.53</course>
  <speed>0.8840814442120137</speed>
  <fix>3d</fix>
</trkpt>
<trkpt lat="33.8098806" lon="-118.3940669">
  <ele>-27.5</ele>
  <time>2026-09-02T22:11:41Z</time>
  <course>324.65</course>
  <speed>0.86</speed>
  <fix>3d</fix>
</trkpt>
<trkpt lat="33.809882" lon="-118.3940686">
  <ele>-28.239</ele>
  <time>2026-09-02T22:11:41Z</time>
  <course>323.52</course>
  <speed>0.8840814442120137</speed>
  <fix>3d</fix>
</trkpt>
<trkpt lat="33.8098806" lon="-118.3940669">
  <ele>-27.5</ele>
  <time>2026-09-02T22:11:41Z</time>
  <course>324.65</course>
  <speed>0.86</speed>
  <fix>3d</fix>
</trkpt>
<trkpt lat="33.8098827" lon="-118.3940691">
  <ele>-28.259</ele>
  <time>2026-09-02T22:11:41Z</time>
  <course>323.5</course>
  <speed>0.8920201791439475</speed>
  <fix>3d</fix>
</trkpt>
<trkpt lat="33.8098818" lon="-118.394068">
  <ele>-27.54</ele>
  <time>2026-09-02T22:11:41Z</time>
  <course>324.61</course>
  <speed>0.86</speed>
  <fix>3d</fix>
</trkpt>
<trkpt lat="33.8098833" lon="-118.3940697">
  <ele>-28.279</ele>
  <time>2026-09-02T22:11:41Z</time>
  <course>323.49</course>
  <speed>0.8920201791439475</speed>
  <fix>3d</fix>
</trkpt>
<trkpt lat="33.8098818" lon="-118.394068">
  <ele>-27.54</ele>
  <time>2026-09-02T22:11:41Z</time>
  <course>324.61</course>
  <speed>0.86</speed>
  <fix>3d</fix>
</trkpt>
<trkpt lat="33.809884" lon="-118.3940702">
  <ele>-28.3</ele>
  <time>2026-09-02T22:11:41Z</time>
  <course>323.48</course>
  <speed>0.8920201791439475</speed>
  <fix>3d</fix>
</trkpt>
<trkpt lat="33.8098831" lon="-118.3940691">
  <ele>-27.57</ele>
  <time>2026-09-02T22:11:41Z</time>
  <course>324.6</course>
  <speed>0.86</speed>
  <fix>3d</fix>
</trkpt>
<trkpt lat="33.8098846" lon="-118.3940708">
  <ele>-28.322</ele>
  <time>2026-09-02T22:11:41Z</time>
  <course>323.48</course>
  <speed>0.8920201791439475</speed>
  <fix>3d</fix>
</trkpt>
<trkpt lat="33.8098831" lon="-118.3940691">
  <ele>-27.57</ele>
  <time>2026-09-02T22:11:41Z</time>
  <course>324.6</course>
  <speed>0.86</speed>
  <fix>3d</fix>
</trkpt>
<trkpt lat="33.8098852" lon="-118.3940713">
  <ele>-28.343</ele>
  <time>2026-09-02T22:11:41Z</time>
  <course>323.5</course>
  <speed>0.8920201791439475</speed>
  <fix>3d</fix>
</trkpt>
<trkpt lat="33.8098844" lon="-118.3940702">
  <ele>-27.61</ele>
  <time>2026-09-02T22:11:41Z</time>
  <course>324.63</course>
  <speed>0.86</speed>
  <fix>3d</fix>
</trkpt>
<trkpt lat="33.8098859" lon="-118.3940719">
  <ele>-28.363</ele>
  <time>2026-09-02T22:11:41Z</time>
  <course>323.51</course>
  <speed>0.8920201791439475</speed>
  <fix>3d</fix>
</trkpt>
<trkpt lat="33.8098844" lon="-118.3940702">
  <ele>-27.61</ele>
  <time>2026-09-02T22:11:41Z</time>
  <course>324.63</course>
  <speed>0.86</speed>
  <fix>3d</fix>
</trkpt>
<trkpt lat="33.8098865" lon="-118.3940724">
  <ele>-28.382</ele>
  <time>2026-09-02T22:11:41Z</time>
  <course>323.53</course>
  <speed>0.8920201791439475</speed>
  <fix>3d</fix>
</trkpt>
<trkpt lat="33.8098856" lon="-118.3940713">
  <ele>-27.65</ele>
  <time>2026-09-02T22:11:41Z</time>
  <course>324.65</course>
  <speed>0.87</speed>
  <fix>3d</fix>
</trkpt>
<trkpt lat="33.8098872" lon="-118.394073">
  <ele>-28.401</ele>
  <time>2026-09-02T22:11:41Z</time>
  <course>323.55</course>
  <speed>0.8920201791439475</speed>
  <fix>3d</fix>
</trkpt>
<trkpt lat="33.8098856" lon="-118.3940713">
  <ele>-27.65</ele>
  <time>2026-09-02T22:11:41Z</time>
  <course>324.65</course>
  <speed>0.87</speed>
  <fix>3d</fix>
</trkpt>
<trkpt lat="33.8098878" lon="-118.3940735">
  <ele>-28.419</ele>
  <time>2026-09-02T22:11:41Z</time>
  <course>323.57</course>
  <speed>0.8920201791439475</speed>
  <fix>3d</fix>
</trkpt>
<trkpt lat="33.8098869" lon="-118.3940723">
  <ele>-27.68</ele>
  <time>2026-09-02T22:11:41Z</time>
  <course>324.7</course>
  <speed>0.87</speed>
  <fix>3d</fix>
</trkpt>
<trkpt lat="33.8098885" lon="-118.3940741">
  <ele>-28.437</ele>
  <time>2026-09-02T22:11:41Z</time>
  <course>323.6</course>
  <speed>0.9</speed>
  <fix>3d</fix>
</trkpt>
<trkpt lat="33.8098869" lon="-118.3940723">
  <ele>-27.68</ele>
  <time>2026-09-02T22:11:41Z</time>
  <course>324.7</course>
  <speed>0.87</speed>
  <fix>3d</fix>
</trkpt>
<trkpt lat="33.8098891" lon="-118.3940746">
  <ele>-28.456</ele>
  <time>2026-09-02T22:11:41Z</time>
  <course>323.61</course>
  <speed>0.9</speed>
  <fix>3d</fix>
</trkpt>
<trkpt lat="33.8098882" lon="-118.3940734">
  <ele>-27.73</ele>
  <time>2026-09-02T22:11:41Z</time>
  <course>324.74</course>
  <speed>0.87</speed>
  <fix>3d</fix>
</trkpt>
<trkpt lat="33.8098897" lon="-118.3940751">
  <ele>-28.474</ele>
  <time>2026-09-02T22:11:41Z</time>
  <course>323.62</course>
  <speed>0.9</speed>
  <fix>3d</fix>
</trkpt>
<trkpt lat="33.8098882" lon="-118.3940734">
  <ele>-27.73</ele>
  <time>2026-09-02T22:11:41Z</time>
  <course>324.74</course>
  <speed>0.87</speed>
  <fix>3d</fix>
</trkpt>
<trkpt lat="33.8098904" lon="-118.3940757">
  <ele>-28.493</ele>
  <time>2026-09-02T22:11:41Z</time>
  <course>323.61</course>
  <speed>0.9</speed>
  <fix>3d</fix>
</trkpt>
<trkpt lat="33.8098895" lon="-118.3940745">
  <ele>-27.76</ele>
  <time>2026-09-02T22:11:41Z</time>
  <course>324.72</course>
  <speed>0.87</speed>
  <fix>3d</fix>
</trkpt>
<trkpt lat="33.809891" lon="-118.3940762">
  <ele>-28.512</ele>
  <time>2026-09-02T22:11:41Z</time>
  <course>323.59</course>
  <speed>0.9060353193998566</speed>
  <fix>3d</fix>
</trkpt>
<trkpt lat="33.8098895" lon="-118.3940745">
  <ele>-27.76</ele>
  <time>2026-09-02T22:11:41Z</time>
  <course>324.72</course>
  <speed>0.87</speed>
  <fix>3d</fix>
</trkpt>
<trkpt lat="33.8098917" lon="-118.3940768">
  <ele>-28.532</ele>
  <time>2026-09-02T22:11:41Z</time>
  <course>323.58</course>
  <speed>0.9060353193998566</speed>
  <fix>3d</fix>
</trkpt>
<trkpt lat="33.8098908" lon="-118.3940756">
  <ele>-27.8</ele>
  <time>2026-09-02T22:11:41Z</time>
  <course>324.69</course>
  <speed>0.88</speed>
  <fix>3d</fix>
</trkpt>
<trkpt lat="33.8098923" lon="-118.3940773">
  <ele>-28.552</ele>
  <time>2026-09-02T22:11:41Z</time>
  <course>323.57</course>
  <speed>0.9060353193998566</speed>
  <fix>3d</fix>
</trkpt>
<trkpt lat="33.8098908" lon="-118.3940756">
  <ele>-27.8</ele>
  <time>2026-09-02T22:11:41Z</time>
  <course>324.69</course>
  <speed>0.88</speed>
  <fix>3d</fix>
</trkpt>
<trkpt lat="33.809893" lon="-118.3940779">
  <ele>-28.573</ele>
  <time>2026-09-02T22:11:41Z</time>
  <course>323.55</course>
  <speed>0.9060353193998566</speed>
  <fix>3d</fix>
</trkpt>
<trkpt lat="33.809892" lon="-118.3940767">
  <ele>-27.84</ele>
  <time>2026-09-02T22:11:41Z</time>
  <course>324.66</course>
  <speed>0.88</speed>
  <fix>3d</fix>
</trkpt>
<trkpt lat="33.8098936" lon="-118.3940784">
  <ele>-28.594</ele>
  <time>2026-09-02T22:11:41Z</time>
  <course>323.55</course>
  <speed>0.9060353193998566</speed>
  <fix>3d</fix>
</trkpt>
<trkpt lat="33.809892" lon="-118.3940767">
  <ele>-27.84</ele>
  <time>2026-09-02T22:11:41Z</time>
  <course>324.66</course>
  <speed>0.88</speed>
  <fix>3d</fix>
</trkpt>
<trkpt lat="33.8098943" lon="-118.394079">
  <ele>-28.614</ele>
  <time>2026-09-02T22:11:41Z</time>
  <course>323.55</course>
  <speed>0.9140021881811882</speed>
  <fix>3d</fix>
</trkpt>
<trkpt lat="33.8098933" lon="-118.3940778">
  <ele>-27.88</ele>
  <time>2026-09-02T22:11:41Z</time>
  <course>324.67</course>
  <speed>0.88</speed>
  <fix>3d</fix>
</trkpt>
<trkpt lat="33.8098949" lon="-118.3940795">
  <ele>-28.635</ele>
  <time>2026-09-02T22:11:41Z</time>
  <course>323.56</course>
  <speed>0.9140021881811882</speed>
  <fix>3d</fix>
</trkpt>
<trkpt lat="33.8098933" lon="-118.3940778">
  <ele>-27.88</ele>
  <time>2026-09-02T22:11:41Z</time>
  <course>324.67</course>
  <speed>0.88</speed>
  <fix>3d</fix>
</trkpt>
<trkpt lat="33.8098956" lon="-118.3940801">
  <ele>-28.654</ele>
  <time>2026-09-02T22:11:41Z</time>
  <course>323.58</course>
  <speed>0.9140021881811882</speed>
  <fix>3d</fix>
</trkpt>
<trkpt lat="33.8098947" lon="-118.394079">
  <ele>-27.92</ele>
  <time>2026-09-02T22:11:41Z</time>
  <course>324.71</course>
  <speed>0.88</speed>
  <fix>3d</fix>
</trkpt>
<trkpt lat="33.8098962" lon="-118.3940807">
  <ele>-28.673</ele>
  <time>2026-09-02T22:11:41Z</time>
  <course>323.6</course>
  <speed>0.9140021881811882</speed>
  <fix>3d</fix>
</trkpt>
<trkpt lat="33.8098947" lon="-118.394079">
  <ele>-27.92</ele>
  <time>2026-09-02T22:11:41Z</time>
  <course>324.71</course>
  <speed>0.88</speed>
  <fix>3d</fix>
</trkpt>
<trkpt lat="33.8098969" lon="-118.3940812">
  <ele>-28.692</ele>
  <time>2026-09-02T22:11:41Z</time>
  <course>323.62</course>
  <speed>0.9140021881811882</speed>
  <fix>3d</fix>
</trkpt>
<trkpt lat="33.809896" lon="-118.3940801">
  <ele>-27.95</ele>
  <time>2026-09-02T22:11:41Z</time>
  <course>324.75</course>
  <speed>0.89</speed>
  <fix>3d</fix>
</trkpt>
<trkpt lat="33.8098976" lon="-118.3940818">
  <ele>-28.713</ele>
  <time>2026-09-02T22:11:41Z</time>
  <course>323.65</course>
  <speed>0.9140021881811882</speed>
  <fix>3d</fix>
</trkpt>
<trkpt lat="33.809896" lon="-118.3940801">
  <ele>-27.95</ele>
  <time>2026-09-02T22:11:41Z</time>
  <course>324.75</course>
  <speed>0.89</speed>
  <fix>3d</fix>
</trkpt>
<trkpt lat="33.8098982" lon="-118.3940823">
  <ele>-28.734</ele>
  <time>2026-09-02T22:11:41Z</time>
  <course>323.66</course>
  <speed>0.9140021881811882</speed>
  <fix>3d</fix>
</trkpt>
<trkpt lat="33.8098973" lon="-118.3940812">
  <ele>-27.99</ele>
  <time>2026-09-02T22:11:41Z</time>
  <course>324.8</course>
  <speed>0.89</speed>
  <fix>3d</fix>
</trkpt>
<trkpt lat="33.8098989" lon="-118.3940829">
  <ele>-28.756</ele>
  <time>2026-09-02T22:11:41Z</time>
  <course>323.68</course>
  <speed>0.9140021881811882</speed>
  <fix>3d</fix>
</trkpt>
<trkpt lat="33.8098973" lon="-118.3940812">
  <ele>-27.99</ele>
  <time>2026-09-02T22:11:41Z</time>
  <course>324.8</course>
  <speed>0.89</speed>
  <fix>3d</fix>
</trkpt>
<trkpt lat="33.8098995" lon="-118.3940835">
  <ele>-28.778</ele>
  <time>2026-09-02T22:11:41Z</time>
  <course>323.69</course>
  <speed>0.9140021881811882</speed>
  <fix>3d</fix>
</trkpt>
<trkpt lat="33.8098986" lon="-118.3940823">
  <ele>-28.02</ele>
  <time>2026-09-02T22:11:41Z</time>
  <course>324.84</course>
  <speed>0.89</speed>
  <fix>3d</fix>
</trkpt>
<trkpt lat="33.8099002" lon="-118.394084">
  <ele>-28.8</ele>
  <time>2026-09-02T22:11:41Z</time>
  <course>323.69</course>
  <speed>0.9140021881811882</speed>
  <fix>3d</fix>
</trkpt>
<trkpt lat="33.8098986" lon="-118.3940823">
  <ele>-28.02</ele>
  <time>2026-09-02T22:11:41Z</time>
  <course>324.84</course>
  <speed>0.89</speed>
  <fix>3d</fix>
</trkpt>
<trkpt lat="33.8099009" lon="-118.3940846">
  <ele>-28.822</ele>
  <time>2026-09-02T22:11:41Z</time>
  <course>323.69</course>
  <speed>0.9140021881811882</speed>
  <fix>3d</fix>
</trkpt>
<trkpt lat="33.8098999" lon="-118.3940834">
  <ele>-28.07</ele>
  <time>2026-09-02T22:11:41Z</time>
  <course>324.85</course>
  <speed>0.89</speed>
  <fix>3d</fix>
</trkpt>
<trkpt lat="33.8099015" lon="-118.3940851">
  <ele>-28.844</ele>
  <time>2026-09-02T22:11:41Z</time>
  <course>323.7</course>
  <speed>0.9140021881811882</speed>
  <fix>3d</fix>
</trkpt>
<trkpt lat="33.8098999" lon="-118.3940834">
  <ele>-28.07</ele>
  <time>2026-09-02T22:11:41Z</time>
  <course>324.85</course>
  <speed>0.89</speed>
  <fix>3d</fix>
</trkpt>
<trkpt lat="33.8099022" lon="-118.3940857">
  <ele>-28.865</ele>
  <time>2026-09-02T22:11:41Z</time>
  <course>323.69</course>
  <speed>0.9220086767487604</speed>
  <fix>3d</fix>
</trkpt>
<trkpt lat="33.8099012" lon="-118.3940845">
  <ele>-28.11</ele>
  <time>2026-09-02T22:11:41Z</time>
  <course>324.86</course>
  <speed>0.89</speed>
  <fix>3d</fix>
</trkpt>
<trkpt lat="33.8099028" lon="-118.3940862">
  <ele>-28.885</ele>
  <time>2026-09-02T22:11:41Z</time>
  <course>323.69</course>
  <speed>0.9220086767487604</speed>
  <fix>3d</fix>
</trkpt>
<trkpt lat="33.8099012" lon="-118.3940845">
  <ele>-28.11</ele>
  <time>2026-09-02T22:11:41Z</time>
  <course>324.86</course>
  <speed>0.89</speed>
  <fix>3d</fix>
</trkpt>
<trkpt lat="33.8099035" lon="-118.3940868">
  <ele>-28.903</ele>
  <time>2026-09-02T22:11:41Z</time>
  <course>323.69</course>
  <speed>0.9220086767487604</speed>
  <fix>3d</fix>
</trkpt>
<trkpt lat="33.8099025" lon="-118.3940856">
  <ele>-28.15</ele>
  <time>2026-09-02T22:11:41Z</time>
  <course>324.86</course>
  <speed>0.89</speed>
  <fix>3d</fix>
</trkpt>
<trkpt lat="33.8099042" lon="-118.3940874">
  <ele>-28.921</ele>
  <time>2026-09-02T22:11:41Z</time>
  <course>323.69</course>
  <speed>0.9280086206496145</speed>
  <fix>3d</fix>
</trkpt>
<trkpt lat="33.8099025" lon="-118.3940856">
  <ele>-28.15</ele>
  <time>2026-09-02T22:11:41Z</time>
  <course>324.86</course>
  <speed>0.89</speed>
  <fix>3d</fix>
</trkpt>
<trkpt lat="33.8099048" lon="-118.3940879">
  <ele>-28.939</ele>
  <time>2026-09-02T22:11:41Z</time>
  <course>323.68</course>
  <speed>0.9220086767487604</speed>
  <fix>3d</fix>
</trkpt>
<trkpt lat="33.8099038" lon="-118.3940868">
  <ele>-28.18</ele>
  <time>2026-09-02T22:11:41Z</time>
  <course>324.85</course>
  <speed>0.9</speed>
  <fix>3d</fix>
</trkpt>
<trkpt lat="33.8099055" lon="-118.3940885">
  <ele>-28.956</ele>
  <time>2026-09-02T22:11:41Z</time>
  <course>323.68</course>
  <speed>0.9280086206496145</speed>
  <fix>3d</fix>
</trkpt>
<trkpt lat="33.8099038" lon="-118.3940868">
  <ele>-28.18</ele>
  <time>2026-09-02T22:11:41Z</time>
  <course>324.85</course>
  <speed>0.9</speed>
  <fix>3d</fix>
</trkpt>
<trkpt lat="33.8099061" lon="-118.3940891">
  <ele>-28.974</ele>
  <time>2026-09-02T22:11:41Z</time>
  <course>323.69</course>
  <speed>0.9220086767487604</speed>
  <fix>3d</fix>
</trkpt>
<trkpt lat="33.8099052" lon="-118.3940879">
  <ele>-28.22</ele>
  <time>2026-09-02T22:11:41Z</time>
  <course>324.89</course>
  <speed>0.9</speed>
  <fix>3d</fix>
</trkpt>
<trkpt lat="33.8099068" lon="-118.3940896">
  <ele>-28.992</ele>
  <time>2026-09-02T22:11:41Z</time>
  <course>323.72</course>
  <speed>0.9280086206496145</speed>
  <fix>3d</fix>
</trkpt>
<trkpt lat="33.8099052" lon="-118.3940879">
  <ele>-28.22</ele>
  <time>2026-09-02T22:11:41Z</time>
  <course>324.89</course>
  <speed>0.9</speed>
  <fix>3d</fix>
</trkpt>
<trkpt lat="33.8099075" lon="-118.3940902">
  <ele>-29.011</ele>
  <time>2026-09-02T22:11:41Z</time>
  <course>323.73</course>
  <speed>0.9280086206496145</speed>
  <fix>3d</fix>
</trkpt>
<trkpt lat="33.8099065" lon="-118.394089">
  <ele>-28.26</ele>
  <time>2026-09-02T22:11:41Z</time>
  <course>324.96</course>
  <speed>0.9</speed>
  <fix>3d</fix>
</trkpt>
<trkpt lat="33.8099081" lon="-118.3940908">
  <ele>-29.029</ele>
  <time>2026-09-02T22:11:41Z</time>
  <course>323.74</course>
  <speed>0.9280086206496145</speed>
  <fix>3d</fix>
</trkpt>
<trkpt lat="33.8099065" lon="-118.394089">
  <ele>-28.26</ele>
  <time>2026-09-02T22:11:41Z</time>
  <course>324.96</course>
  <speed>0.9</speed>
  <fix>3d</fix>
</trkpt>
<trkpt lat="33.8099088" lon="-118.3940913">
  <ele>-29.047</ele>
  <time>2026-09-02T22:11:41Z</time>
  <course>323.73</course>
  <speed>0.9280086206496145</speed>
  <fix>3d</fix>
</trkpt>
<trkpt lat="33.8099079" lon="-118.3940902">
  <ele>-28.3</ele>
  <time>2026-09-02T22:11:41Z</time>
  <course>324.96</course>
  <speed>0.91</speed>
  <fix>3d</fix>
</trkpt>
<trkpt lat="33.8099095" lon="-118.3940919">
  <ele>-29.066</ele>
  <time>2026-09-02T22:11:41Z</time>
  <course>323.71</course>
  <speed>0.9280086206496145</speed>
  <fix>3d</fix>
</trkpt>
<trkpt lat="33.8099079" lon="-118.3940902">
  <ele>-28.3</ele>
  <time>2026-09-02T22:11:41Z</time>
  <course>324.96</course>
  <speed>0.91</speed>
  <fix>3d</fix>
</trkpt>
<trkpt lat="33.8099101" lon="-118.3940925">
  <ele>-29.086</ele>
  <time>2026-09-02T22:11:41Z</time>
  <course>323.7</course>
  <speed>0.9280086206496145</speed>
  <fix>3d</fix>
</trkpt>
<trkpt lat="33.8099092" lon="-118.3940913">
  <ele>-28.34</ele>
  <time>2026-09-02T22:11:41Z</time>
  <course>324.94</course>
  <speed>0.91</speed>
  <fix>3d</fix>
</trkpt>
<trkpt lat="33.8099108" lon="-118.394093">
  <ele>-29.107</ele>
  <time>2026-09-02T22:11:41Z</time>
  <course>323.69</course>
  <speed>0.9360021367496978</speed>
  <fix>3d</fix>
</trkpt>
<trkpt lat="33.8099092" lon="-118.3940913">
  <ele>-28.34</ele>
  <time>2026-09-02T22:11:41Z</time>
  <course>324.94</course>
  <speed>0.91</speed>
  <fix>3d</fix>
</trkpt>
<trkpt lat="33.8099115" lon="-118.3940936">
  <ele>-29.129</ele>
  <time>2026-09-02T22:11:41Z</time>
  <course>323.68</course>
  <speed>0.9360021367496978</speed>
  <fix>3d</fix>
</trkpt>
<trkpt lat="33.8099105" lon="-118.3940924">
  <ele>-28.38</ele>
  <time>2026-09-02T22:11:41Z</time>
  <course>324.93</course>
  <speed>0.91</speed>
  <fix>3d</fix>
</trkpt>
<trkpt lat="33.8099122" lon="-118.3940942">
  <ele>-29.15</ele>
  <time>2026-09-02T22:11:41Z</time>
  <course>323.68</course>
  <speed>0.9360021367496978</speed>
  <fix>3d</fix>
</trkpt>
<trkpt lat="33.8099105" lon="-118.3940924">
  <ele>-28.38</ele>
  <time>2026-09-02T22:11:41Z</time>
  <course>324.93</course>
  <speed>0.91</speed>
  <fix>3d</fix>
</trkpt>
<trkpt lat="33.8099128" lon="-118.3940947">
  <ele>-29.172</ele>
  <time>2026-09-02T22:11:41Z</time>
  <course>323.67</course>
  <speed>0.9360021367496978</speed>
  <fix>3d</fix>
</trkpt>
<trkpt lat="33.8099119" lon="-118.3940936">
  <ele>-28.42</ele>
  <time>2026-09-02T22:11:41Z</time>
  <course>324.94</course>
  <speed>0.91</speed>
  <fix>3d</fix>
</trkpt>
<trkpt lat="33.8099135" lon="-118.3940953">
  <ele>-29.195</ele>
  <time>2026-09-02T22:11:41Z</time>
  <course>323.67</course>
  <speed>0.9360021367496978</speed>
  <fix>3d</fix>
</trkpt>
<trkpt lat="33.8099119" lon="-118.3940936">
  <ele>-28.42</ele>
  <time>2026-09-02T22:11:41Z</time>
  <course>324.94</course>
  <speed>0.91</speed>
  <fix>3d</fix>
</trkpt>
<trkpt lat="33.8099142" lon="-118.3940959">
  <ele>-29.217</ele>
  <time>2026-09-02T22:11:41Z</time>
  <course>323.67</course>
  <speed>0.9360021367496978</speed>
  <fix>3d</fix>
</trkpt>
<trkpt lat="33.8099132" lon="-118.3940947">
  <ele>-28.47</ele>
  <time>2026-09-02T22:11:41Z</time>
  <course>324.96</course>
  <speed>0.91</speed>
  <fix>3d</fix>
</trkpt>
<trkpt lat="33.8099148" lon="-118.3940964">
  <ele>-29.24</ele>
  <time>2026-09-02T22:11:41Z</time>
  <course>323.68</course>
  <speed>0.9360021367496978</speed>
  <fix>3d</fix>
</trkpt>
<trkpt lat="33.8099132" lon="-118.3940947">
  <ele>-28.47</ele>
  <time>2026-09-02T22:11:41Z</time>
  <course>324.96</course>
  <speed>0.91</speed>
  <fix>3d</fix>
</trkpt>
<trkpt lat="33.8099155" lon="-118.394097">
  <ele>-29.263</ele>
  <time>2026-09-02T22:11:41Z</time>
  <course>323.67</course>
  <speed>0.9360021367496978</speed>
  <fix>3d</fix>
</trkpt>
<trkpt lat="33.8099146" lon="-118.3940958">
  <ele>-28.51</ele>
  <time>2026-09-02T22:11:41Z</time>
  <course>324.96</course>
  <speed>0.91</speed>
  <fix>3d</fix>
</trkpt>
<trkpt lat="33.8099162" lon="-118.3940976">
  <ele>-29.284</ele>
  <time>2026-09-02T22:11:41Z</time>
  <course>323.66</course>
  <speed>0.9360021367496978</speed>
  <fix>3d</fix>
</trkpt>
<trkpt lat="33.8099146" lon="-118.3940958">
  <ele>-28.51</ele>
  <time>2026-09-02T22:11:41Z</time>
  <course>324.96</course>
  <speed>0.91</speed>
  <fix>3d</fix>
</trkpt>
<trkpt lat="33.8099169" lon="-118.3940981">
  <ele>-29.304</ele>
  <time>2026-09-02T22:11:41Z</time>
  <course>323.64</course>
  <speed>0.9360021367496978</speed>
  <fix>3d</fix>
</trkpt>
<trkpt lat="33.809916" lon="-118.3940969">
  <ele>-28.55</ele>
  <time>2026-09-02T22:11:41Z</time>
  <course>324.96</course>
  <speed>0.92</speed>
  <fix>3d</fix>
</trkpt>
<trkpt lat="33.8099175" lon="-118.3940987">
  <ele>-29.323</ele>
  <time>2026-09-02T22:11:41Z</time>
  <course>323.61</course>
  <speed>0.942019108086455</speed>
  <fix>3d</fix>
</trkpt>
<trkpt lat="33.809916" lon="-118.3940969">
  <ele>-28.55</ele>
  <time>2026-09-02T22:11:41Z</time>
  <course>324.96</course>
  <speed>0.92</speed>
  <fix>3d</fix>
</trkpt>
<trkpt lat="33.8099182" lon="-118.3940993">
  <ele>-29.343</ele>
  <time>2026-09-02T22:11:41Z</time>
  <course>323.55</course>
  <speed>0.942019108086455</speed>
  <fix>3d</fix>
</trkpt>
<trkpt lat="33.8099173" lon="-118.3940981">
  <ele>-28.59</ele>
  <time>2026-09-02T22:11:41Z</time>
  <course>324.86</course>
  <speed>0.92</speed>
  <fix>3d</fix>
</trkpt>
<trkpt lat="33.8099189" lon="-118.3940998">
  <ele>-29.362</ele>
  <time>2026-09-02T22:11:41Z</time>
  <course>323.5</course>
  <speed>0.942019108086455</speed>
  <fix>3d</fix>
</trkpt>
<trkpt lat="33.8099173" lon="-118.3940981">
  <ele>-28.59</ele>
  <time>2026-09-02T22:11:41Z</time>
  <course>324.86</course>
  <speed>0.92</speed>
  <fix>3d</fix>
</trkpt>
<trkpt lat="33.8099196" lon="-118.3941004">
  <ele>-29.382</ele>
  <time>2026-09-02T22:11:41Z</time>
  <course>323.45</course>
  <speed>0.942019108086455</speed>
  <fix>3d</fix>
</trkpt>
<trkpt lat="33.8099187" lon="-118.3940993">
  <ele>-28.62</ele>
  <time>2026-09-02T22:11:41Z</time>
  <course>324.76</course>
  <speed>0.92</speed>
  <fix>3d</fix>
</trkpt>
<trkpt lat="33.8099203" lon="-118.394101">
  <ele>-29.403</ele>
  <time>2026-09-02T22:11:41Z</time>
  <course>323.42</course>
  <speed>0.942019108086455</speed>
  <fix>3d</fix>
</trkpt>
<trkpt lat="33.8099187" lon="-118.3940993">
  <ele>-28.62</ele>
  <time>2026-09-02T22:11:41Z</time>
  <course>324.76</course>
  <speed>0.92</speed>
  <fix>3d</fix>
</trkpt>
<trkpt lat="33.8099209" lon="-118.3941016">
  <ele>-29.423</ele>
  <time>2026-09-02T22:11:41Z</time>
  <course>323.4</course>
  <speed>0.942019108086455</speed>
  <fix>3d</fix>
</trkpt>
<trkpt lat="33.80992" lon="-118.3941004">
  <ele>-28.66</ele>
  <time>2026-09-02T22:11:41Z</time>
  <course>324.74</course>
  <speed>0.92</speed>
  <fix>3d</fix>
</trkpt>
<trkpt lat="33.8099216" lon="-118.3941021">
  <ele>-29.442</ele>
  <time>2026-09-02T22:11:41Z</time>
  <course>323.39</course>
  <speed>0.95</speed>
  <fix>3d</fix>
</trkpt>
<trkpt lat="33.80992" lon="-118.3941004">
  <ele>-28.66</ele>
  <time>2026-09-02T22:11:41Z</time>
  <course>324.74</course>
  <speed>0.92</speed>
  <fix>3d</fix>
</trkpt>
<trkpt lat="33.8099223" lon="-118.3941027">
  <ele>-29.461</ele>
  <time>2026-09-02T22:11:41Z</time>
  <course>323.38</course>
  <speed>0.95</speed>
  <fix>3d</fix>
</trkpt>
<trkpt lat="33.8099214" lon="-118.3941016">
  <ele>-28.7</ele>
  <time>2026-09-02T22:11:41Z</time>
  <course>324.74</course>
  <speed>0.92</speed>
  <fix>3d</fix>
</trkpt>
<trkpt lat="33.809923" lon="-118.3941033">
  <ele>-29.479</ele>
  <time>2026-09-02T22:11:41Z</time>
  <course>323.37</course>
  <speed>0.95</speed>
  <fix>3d</fix>
</trkpt>
<trkpt lat="33.8099214" lon="-118.3941016">
  <ele>-28.7</ele>
  <time>2026-09-02T22:11:41Z</time>
  <course>324.74</course>
  <speed>0.92</speed>
  <fix>3d</fix>
</trkpt>
<trkpt lat="33.8099237" lon="-118.3941039">
  <ele>-29.497</ele>
  <time>2026-09-02T22:11:41Z</time>
  <course>323.37</course>
  <speed>0.95</speed>
  <fix>3d</fix>
</trkpt>
<trkpt lat="33.8099227" lon="-118.3941027">
  <ele>-28.74</ele>
  <time>2026-09-02T22:11:41Z</time>
  <course>324.75</course>
  <speed>0.93</speed>
  <fix>3d</fix>
</trkpt>
<trkpt lat="33.8099243" lon="-118.3941045">
  <ele>-29.516</ele>
  <time>2026-09-02T22:11:41Z</time>
  <course>323.38</course>
  <speed>0.95</speed>
  <fix>3d</fix>
</trkpt>
<trkpt lat="33.8099227" lon="-118.3941027">
  <ele>-28.74</ele>
  <time>2026-09-02T22:11:41Z</time>
  <course>324.75</course>
  <speed>0.93</speed>
  <fix>3d</fix>
</trkpt>
<trkpt lat="33.809925" lon="-118.394105">
  <ele>-29.536</ele>
  <time>2026-09-02T22:11:41Z</time>
  <course>323.39</course>
  <speed>0.95</speed>
  <fix>3d</fix>
</trkpt>
<trkpt lat="33.8099241" lon="-118.3941039">
  <ele>-28.77</ele>
  <time>2026-09-02T22:11:41Z</time>
  <course>324.77</course>
  <speed>0.93</speed>
  <fix>3d</fix>
</trkpt>
<trkpt lat="33.8099257" lon="-118.3941056">
  <ele>-29.556</ele>
  <time>2026-09-02T22:11:41Z</time>
  <course>323.39</course>
  <speed>0.95</speed>
  <fix>3d</fix>
</trkpt>
<trkpt lat="33.8099241" lon="-118.3941039">
  <ele>-28.77</ele>
  <time>2026-09-02T22:11:41Z</time>
  <course>324.77</course>
  <speed>0.93</speed>
  <fix>3d</fix>
</trkpt>
<trkpt lat="33.8099264" lon="-118.3941062">
  <ele>-29.577</ele>
  <time>2026-09-02T22:11:41Z</time>
  <course>323.4</course>
  <speed>0.95</speed>
  <fix>3d</fix>
</trkpt>
<trkpt lat="33.8099255" lon="-118.3941051">
  <ele>-28.82</ele>
  <time>2026-09-02T22:11:41Z</time>
  <course>324.78</course>
  <speed>0.93</speed>
  <fix>3d</fix>
</trkpt>
<trkpt lat="33.8099271" lon="-118.3941068">
  <ele>-29.6</ele>
  <time>2026-09-02T22:11:41Z</time>
  <course>323.4</course>
  <speed>0.95</speed>
  <fix>3d</fix>
</trkpt>
<trkpt lat="33.8099255" lon="-118.3941051">
  <ele>-28.82</ele>
  <time>2026-09-02T22:11:41Z</time>
  <course>324.78</course>
  <speed>0.93</speed>
  <fix>3d</fix>
</trkpt>
<trkpt lat="33.8099278" lon="-118.3941074">
  <ele>-29.622</ele>
  <time>2026-09-02T22:11:41Z</time>
  <course>323.4</course>
  <speed>0.95</speed>
  <fix>3d</fix>
</trkpt>
<trkpt lat="33.8099269" lon="-118.3941063">
  <ele>-28.86</ele>
  <time>2026-09-02T22:11:41Z</time>
  <course>324.79</course>
  <speed>0.93</speed>
  <fix>3d</fix>
</trkpt>
<trkpt lat="33.8099284" lon="-118.3941079">
  <ele>-29.644</ele>
  <time>2026-09-02T22:11:41Z</time>
  <course>323.42</course>
  <speed>0.95</speed>
  <fix>3d</fix>
</trkpt>
<trkpt lat="33.8099269" lon="-118.3941063">
  <ele>-28.86</ele>
  <time>2026-09-02T22:11:41Z</time>
  <course>324.79</course>
  <speed>0.93</speed>
  <fix>3d</fix>
</trkpt>
<trkpt lat="33.8099291" lon="-118.3941085">
  <ele>-29.666</ele>
  <time>2026-09-02T22:11:41Z</time>
  <course>323.43</course>
  <speed>0.95</speed>
  <fix>3d</fix>
</trkpt>
<trkpt lat="33.8099282" lon="-118.3941074">
  <ele>-28.9</ele>
  <time>2026-09-02T22:11:41Z</time>
  <course>324.82</course>
  <speed>0.93</speed>
  <fix>3d</fix>
</trkpt>
<trkpt lat="33.8099298" lon="-118.3941091">
  <ele>-29.687</ele>
  <time>2026-09-02T22:11:41Z</time>
  <course>323.44</course>
  <speed>0.95</speed>
  <fix>3d</fix>
</trkpt>
<trkpt lat="33.8099282" lon="-118.3941074">
  <ele>-28.9</ele>
  <time>2026-09-02T22:11:41Z</time>
  <course>324.82</course>
  <speed>0.93</speed>
  <fix>3d</fix>
</trkpt>
<trkpt lat="33.8099305" lon="-118.3941097">
  <ele>-29.708</ele>
  <time>2026-09-02T22:11:41Z</time>
  <course>323.45</course>
  <speed>0.95</speed>
  <fix>3d</fix>
</trkpt>
<trkpt lat="33.8099296" lon="-118.3941085">
  <ele>-28.93</ele>
  <time>2026-09-02T22:11:41Z</time>
  <course>324.84</course>
  <speed>0.93</speed>
  <fix>3d</fix>
</trkpt>
<trkpt lat="33.8099312" lon="-118.3941103">
  <ele>-29.728</ele>
  <time>2026-09-02T22:11:41Z</time>
  <course>323.45</course>
  <speed>0.95</speed>
  <fix>3d</fix>
</trkpt>
<trkpt lat="33.8099296" lon="-118.3941085">
  <ele>-28.93</ele>
  <time>2026-09-02T22:11:41Z</time>
  <course>324.84</course>
  <speed>0.93</speed>
  <fix>3d</fix>
</trkpt>
<trkpt lat="33.8099319" lon="-118.3941109">
  <ele>-29.749</ele>
  <time>2026-09-02T22:11:41Z</time>
  <course>323.44</course>
  <speed>0.95</speed>
  <fix>3d</fix>
</trkpt>
<trkpt lat="33.809931" lon="-118.3941098">
  <ele>-28.98</ele>
  <time>2026-09-02T22:11:41Z</time>
  <course>324.82</course>
  <speed>0.93</speed>
  <fix>3d</fix>
</trkpt>
<trkpt lat="33.8099326" lon="-118.3941114">
  <ele>-29.772</ele>
  <time>2026-09-02T22:11:41Z</time>
  <course>323.42</course>
  <speed>0.95</speed>
  <fix>3d</fix>
</trkpt>
<trkpt lat="33.809931" lon="-118.3941098">
  <ele>-28.98</ele>
  <time>2026-09-02T22:11:41Z</time>
  <course>324.82</course>
  <speed>0.93</speed>
  <fix>3d</fix>
</trkpt>
<trkpt lat="33.8099333" lon="-118.394112">
  <ele>-29.794</ele>
  <time>2026-09-02T22:11:41Z</time>
  <course>323.42</course>
  <speed>0.95</speed>
  <fix>3d</fix>
</trkpt>
<trkpt lat="33.8099323" lon="-118.3941109">
  <ele>-29.02</ele>
  <time>2026-09-02T22:11:41Z</time>
  <course>324.8</course>
  <speed>0.93</speed>
  <fix>3d</fix>
</trkpt>
<trkpt lat="33.8099339" lon="-118.3941126">
  <ele>-29.816</ele>
  <time>2026-09-02T22:11:41Z</time>
  <course>323.43</course>
  <speed>0.95</speed>
  <fix>3d</fix>
</trkpt>
<trkpt lat="33.8099323" lon="-118.3941109">
  <ele>-29.02</ele>
  <time>2026-09-02T22:11:41Z</time>
  <course>324.8</course>
  <speed>0.93</speed>
  <fix>3d</fix>
</trkpt>
<trkpt lat="33.8099346" lon="-118.3941132">
  <ele>-29.838</ele>
  <time>2026-09-02T22:11:41Z</time>
  <course>323.44</course>
  <speed>0.95</speed>
  <fix>3d</fix>
</trkpt>
<trkpt lat="33.8099337" lon="-118.3941121">
  <ele>-29.07</ele>
  <time>2026-09-02T22:11:41Z</time>
  <course>324.84</course>
  <speed>0.93</speed>
  <fix>3d</fix>
</trkpt>
<trkpt lat="33.8099353" lon="-118.3941138">
  <ele>-29.86</ele>
  <time>2026-09-02T22:11:41Z</time>
  <course>323.47</course>
  <speed>0.95</speed>
  <fix>3d</fix>
</trkpt>
<trkpt lat="33.8099337" lon="-118.3941121">
  <ele>-29.07</ele>
  <time>2026-09-02T22:11:41Z</time>
  <course>324.84</course>
  <speed>0.93</speed>
  <fix>3d</fix>
</trkpt>
<trkpt lat="33.809936" lon="-118.3941144">
  <ele>-29.881</ele>
  <time>2026-09-02T22:11:41Z</time>
  <course>323.48</course>
  <speed>0.9580187889597991</speed>
  <fix>3d</fix>
</trkpt>
<trkpt lat="33.8099351" lon="-118.3941132">
  <ele>-29.11</ele>
  <time>2026-09-02T22:11:41Z</time>
  <course>324.9</course>
  <speed>0.93</speed>
  <fix>3d</fix>
</trkpt>
<trkpt lat="33.8099367" lon="-118.394115">
  <ele>-29.901</ele>
  <time>2026-09-02T22:11:41Z</time>
  <course>323.5</course>
  <speed>0.9580187889597991</speed>
  <fix>3d</fix>
</trkpt>
<trkpt lat="33.8099351" lon="-118.3941132">
  <ele>-29.11</ele>
  <time>2026-09-02T22:11:41Z</time>
  <course>324.9</course>
  <speed>0.93</speed>
  <fix>3d</fix>
</trkpt>
<trkpt lat="33.8099374" lon="-118.3941155">
  <ele>-29.922</ele>
  <time>2026-09-02T22:11:41Z</time>
  <course>323.5</course>
  <speed>0.9580187889597991</speed>
  <fix>3d</fix>
</trkpt>
<trkpt lat="33.8099365" lon="-118.3941144">
  <ele>-29.15</ele>
  <time>2026-09-02T22:11:41Z</time>
  <course>324.91</course>
  <speed>0.94</speed>
  <fix>3d</fix>
</trkpt>
<trkpt lat="33.8099381" lon="-118.3941161">
  <ele>-29.943</ele>
  <time>2026-09-02T22:11:41Z</time>
  <course>323.49</course>
  <speed>0.9580187889597991</speed>
  <fix>3d</fix>
</trkpt>
<trkpt lat="33.8099365" lon="-118.3941144">
  <ele>-29.15</ele>
  <time>2026-09-02T22:11:41Z</time>
  <course>324.91</course>
  <speed>0.94</speed>
  <fix>3d</fix>
</trkpt>
<trkpt lat="33.8099388" lon="-118.3941167">
  <ele>-29.963</ele>
  <time>2026-09-02T22:11:41Z</time>
  <course>323.46</course>
  <speed>0.9580187889597991</speed>
  <fix>3d</fix>
</trkpt>
<trkpt lat="33.8099378" lon="-118.3941156">
  <ele>-29.18</ele>
  <time>2026-09-02T22:11:41Z</time>
  <course>324.87</course>
  <speed>0.94</speed>
  <fix>3d</fix>
</trkpt>
<trkpt lat="33.8099395" lon="-118.3941173">
  <ele>-29.983</ele>
  <time>2026-09-02T22:11:41Z</time>
  <course>323.45</course>
  <speed>0.9640020746865642</speed>
  <fix>3d</fix>
</trkpt>
<trkpt lat="33.8099378" lon="-118.3941156">
  <ele>-29.18</ele>
  <time>2026-09-02T22:11:41Z</time>
  <course>324.87</course>
  <speed>0.94</speed>
  <fix>3d</fix>
</trkpt>
<trkpt lat="33.8099402" lon="-118.3941179">
  <ele>-30.003</ele>
  <time>2026-09-02T22:11:41Z</time>
  <course>323.45</course>
  <speed>0.9580187889597991</speed>
  <fix>3d</fix>
</trkpt>
<trkpt lat="33.8099392" lon="-118.3941168">
  <ele>-29.23</ele>
  <time>2026-09-02T22:11:41Z</time>
  <course>324.86</course>
  <speed>0.94</speed>
  <fix>3d</fix>
</trkpt>
<trkpt lat="33.8099409" lon="-118.3941185">
  <ele>-30.023</ele>
  <time>2026-09-02T22:11:41Z</time>
  <course>323.47</course>
  <speed>0.9640020746865642</speed>
  <fix>3d</fix>
</trkpt>
<trkpt lat="33.8099392" lon="-118.3941168">
  <ele>-29.23</ele>
  <time>2026-09-02T22:11:41Z</time>
  <course>324.86</course>
  <speed>0.94</speed>
  <fix>3d</fix>
</trkpt>
<trkpt lat="33.8099416" lon="-118.3941191">
  <ele>-30.043</ele>
  <time>2026-09-02T22:11:41Z</time>
  <course>323.48</course>
  <speed>0.9580187889597991</speed>
  <fix>3d</fix>
</trkpt>
<trkpt lat="33.8099407" lon="-118.3941179">
  <ele>-29.27</ele>
  <time>2026-09-02T22:11:41Z</time>
  <course>324.92</course>
  <speed>0.94</speed>
  <fix>3d</fix>
</trkpt>
<trkpt lat="33.8099422" lon="-118.3941197">
  <ele>-30.063</ele>
  <time>2026-09-02T22:11:41Z</time>
  <course>323.5</course>
  <speed>0.9640020746865642</speed>
  <fix>3d</fix>
</trkpt>
<trkpt lat="33.8099407" lon="-118.3941179">
  <ele>-29.27</ele>
  <time>2026-09-02T22:11:41Z</time>
  <course>324.92</course>
  <speed>0.94</speed>
  <fix>3d</fix>
</trkpt>
<trkpt lat="33.8099429" lon="-118.3941202">
  <ele>-30.084</ele>
  <time>2026-09-02T22:11:41Z</time>
  <course>323.48</course>
  <speed>0.9640020746865642</speed>
  <fix>3d</fix>
</trkpt>
<trkpt lat="33.8099421" lon="-118.394119">
  <ele>-29.31</ele>
  <time>2026-09-02T22:11:41Z</time>
  <course>324.92</course>
  <speed>0.94</speed>
  <fix>3d</fix>
</trkpt>
<trkpt lat="33.8099436" lon="-118.3941208">
  <ele>-30.104</ele>
  <time>2026-09-02T22:11:41Z</time>
  <course>323.45</course>
  <speed>0.9640020746865642</speed>
  <fix>3d</fix>
</trkpt>
<trkpt lat="33.8099421" lon="-118.394119">
  <ele>-29.31</ele>
  <time>2026-09-02T22:11:41Z</time>
  <course>324.92</course>
  <speed>0.94</speed>
  <fix>3d</fix>
</trkpt>
<trkpt lat="33.8099443" lon="-118.3941214">
  <ele>-30.123</ele>
  <time>2026-09-02T22:11:41Z</time>
  <course>323.38</course>
  <speed>0.9640020746865642</speed>
  <fix>3d</fix>
</trkpt>
<trkpt lat="33.8099435" lon="-118.3941203">
  <ele>-29.35</ele>
  <time>2026-09-02T22:11:41Z</time>
  <course>324.8</course>
  <speed>0.94</speed>
  <fix>3d</fix>
</trkpt>
<trkpt lat="33.809945" lon="-118.394122">
  <ele>-30.143</ele>
  <time>2026-09-02T22:11:41Z</time>
  <course>323.33</course>
  <speed>0.9640020746865642</speed>
  <fix>3d</fix>
</trkpt>
<trkpt lat="33.8099435" lon="-118.3941203">
  <ele>-29.35</ele>
  <time>2026-09-02T22:11:41Z</time>
  <course>324.8</course>
  <speed>0.94</speed>
  <fix>3d</fix>
</trkpt>
<trkpt lat="33.8099458" lon="-118.3941226">
  <ele>-30.162</ele>
  <time>2026-09-02T22:11:41Z</time>
  <course>323.27</course>
  <speed>0.9640020746865642</speed>
  <fix>3d</fix>
</trkpt>
<trkpt lat="33.8099449" lon="-118.3941214">
  <ele>-29.39</ele>
  <time>2026-09-02T22:11:41Z</time>
  <course>324.69</course>
  <speed>0.94</speed>
  <fix>3d</fix>
</trkpt>
<trkpt lat="33.8099465" lon="-118.3941232">
  <ele>-30.182</ele>
  <time>2026-09-02T22:11:41Z</time>
  <course>323.23</course>
  <speed>0.9640020746865642</speed>
  <fix>3d</fix>
</trkpt>
<trkpt lat="33.8099449" lon="-118.3941214">
  <ele>-29.39</ele>
  <time>2026-09-02T22:11:41Z</time>
  <course>324.69</course>
  <speed>0.94</speed>
  <fix>3d</fix>
</trkpt>
<trkpt lat="33.8099472" lon="-118.3941238">
  <ele>-30.201</ele>
  <time>2026-09-02T22:11:41Z</time>
  <course>323.18</course>
  <speed>0.9640020746865642</speed>
  <fix>3d</fix>
</trkpt>
<trkpt lat="33.8099462" lon="-118.3941227">
  <ele>-29.43</ele>
  <time>2026-09-02T22:11:41Z</time>
  <course>324.61</course>
  <speed>0.94</speed>
  <fix>3d</fix>
</trkpt>
<trkpt lat="33.8099478" lon="-118.3941244">
  <ele>-30.222</ele>
  <time>2026-09-02T22:11:41Z</time>
  <course>323.16</course>
  <speed>0.9640020746865642</speed>
  <fix>3d</fix>
</trkpt>
<trkpt lat="33.8099462" lon="-118.3941227">
  <ele>-29.43</ele>
  <time>2026-09-02T22:11:41Z</time>
  <course>324.61</course>
  <speed>0.94</speed>
  <fix>3d</fix>
</trkpt>
<trkpt lat="33.8099485" lon="-118.394125">
  <ele>-30.242</ele>
  <time>2026-09-02T22:11:41Z</time>
  <course>323.16</course>
  <speed>0.9640020746865642</speed>
  <fix>3d</fix>
</trkpt>
<trkpt lat="33.8099476" lon="-118.3941238">
  <ele>-29.47</ele>
  <time>2026-09-02T22:11:41Z</time>
  <course>324.6</course>
  <speed>0.94</speed>
  <fix>3d</fix>
</trkpt>
<trkpt lat="33.8099492" lon="-118.3941256">
  <ele>-30.263</ele>
  <time>2026-09-02T22:11:41Z</time>
  <course>323.19</course>
  <speed>0.9640020746865642</speed>
  <fix>3d</fix>
</trkpt>
<trkpt lat="33.8099476" lon="-118.3941238">
  <ele>-29.47</ele>
  <time>2026-09-02T22:11:41Z</time>
  <course>324.6</course>
  <speed>0.94</speed>
  <fix>3d</fix>
</trkpt>
<trkpt lat="33.8099499" lon="-118.3941262">
  <ele>-30.284</ele>
  <time>2026-09-02T22:11:41Z</time>
  <course>323.21</course>
  <speed>0.9720082304178294</speed>
  <fix>3d</fix>
</trkpt>
<trkpt lat="33.8099489" lon="-118.394125">
  <ele>-29.51</ele>
  <time>2026-09-02T22:11:41Z</time>
  <course>324.65</course>
  <speed>0.94</speed>
  <fix>3d</fix>
</trkpt>
<trkpt lat="33.8099506" lon="-118.3941268">
  <ele>-30.306</ele>
  <time>2026-09-02T22:11:41Z</time>
  <course>323.23</course>
  <speed>0.9720082304178294</speed>
  <fix>3d</fix>
</trkpt>
<trkpt lat="33.8099489" lon="-118.394125">
  <ele>-29.51</ele>
  <time>2026-09-02T22:11:41Z</time>
  <course>324.65</course>
  <speed>0.94</speed>
  <fix>3d</fix>
</trkpt>
<trkpt lat="33.8099513" lon="-118.3941274">
  <ele>-30.327</ele>
  <time>2026-09-02T22:11:41Z</time>
  <course>323.26</course>
  <speed>0.9720082304178294</speed>
  <fix>3d</fix>
</trkpt>
<trkpt lat="33.8099504" lon="-118.3941262">
  <ele>-29.56</ele>
  <time>2026-09-02T22:11:41Z</time>
  <course>324.71</course>
  <speed>0.95</speed>
  <fix>3d</fix>
</trkpt>
<trkpt lat="33.809952" lon="-118.3941279">
  <ele>-30.347</ele>
  <time>2026-09-02T22:11:41Z</time>
  <course>323.3</course>
  <speed>0.9720082304178294</speed>
  <fix>3d</fix>
</trkpt>
<trkpt lat="33.8099504" lon="-118.3941262">
  <ele>-29.56</ele>
  <time>2026-09-02T22:11:41Z</time>
  <course>324.71</course>
  <speed>0.95</speed>
  <fix>3d</fix>
</trkpt>
<trkpt lat="33.8099527" lon="-118.3941285">
  <ele>-30.369</ele>
  <time>2026-09-02T22:11:41Z</time>
  <course>323.32</course>
  <speed>0.9720082304178294</speed>
  <fix>3d</fix>
</trkpt>
<trkpt lat="33.8099518" lon="-118.3941274">
  <ele>-29.6</ele>
  <time>2026-09-02T22:11:41Z</time>
  <course>324.75</course>
  <speed>0.95</speed>
  <fix>3d</fix>
</trkpt>
<trkpt lat="33.8099534" lon="-118.3941291">
  <ele>-30.391</ele>
  <time>2026-09-02T22:11:41Z</time>
  <course>323.34</course>
  <speed>0.9720082304178294</speed>
  <fix>3d</fix>
</trkpt>
<trkpt lat="33.8099518" lon="-118.3941274">
  <ele>-29.6</ele>
  <time>2026-09-02T22:11:41Z</time>
  <course>324.75</course>
  <speed>0.95</speed>
  <fix>3d</fix>
</trkpt>
<trkpt lat="33.8099541" lon="-118.3941297">
  <ele>-30.413</ele>
  <time>2026-09-02T22:11:41Z</time>
  <course>323.35</course>
  <speed>0.9720082304178294</speed>
  <fix>3d</fix>
</trkpt>
<trkpt lat="33.8099531" lon="-118.3941285">
  <ele>-29.64</ele>
  <time>2026-09-02T22:11:41Z</time>
  <course>324.76</course>
  <speed>0.95</speed>
  <fix>3d</fix>
</trkpt>
<trkpt lat="33.8099548" lon="-118.3941303">
  <ele>-30.435</ele>
  <time>2026-09-02T22:11:41Z</time>
  <course>323.37</course>
  <speed>0.9720082304178294</speed>
  <fix>3d</fix>
</trkpt>
<trkpt lat="33.8099531" lon="-118.3941285">
  <ele>-29.64</ele>
  <time>2026-09-02T22:11:41Z</time>
  <course>324.76</course>
  <speed>0.95</speed>
  <fix>3d</fix>
</trkpt>
<trkpt lat="33.8099555" lon="-118.3941309">
  <ele>-30.458</ele>
  <time>2026-09-02T22:11:41Z</time>
  <course>323.37</course>
  <speed>0.9720082304178294</speed>
  <fix>3d</fix>
</trkpt>
<trkpt lat="33.8099546" lon="-118.3941298">
  <ele>-29.68</ele>
  <time>2026-09-02T22:11:41Z</time>
  <course>324.77</course>
  <speed>0.95</speed>
  <fix>3d</fix>
</trkpt>
<trkpt lat="33.8099562" lon="-118.3941315">
  <ele>-30.48</ele>
  <time>2026-09-02T22:11:41Z</time>
  <course>323.38</course>
  <speed>0.978008179924892</speed>
  <fix>3d</fix>
</trkpt>
<trkpt lat="33.8099546" lon="-118.3941298">
  <ele>-29.68</ele>
  <time>2026-09-02T22:11:41Z</time>
  <course>324.77</course>
  <speed>0.95</speed>
  <fix>3d</fix>
</trkpt>
<trkpt lat="33.8099569" lon="-118.3941321">
  <ele>-30.502</ele>
  <time>2026-09-02T22:11:41Z</time>
  <course>323.39</course>
  <speed>0.9720082304178294</speed>
  <fix>3d</fix>
</trkpt>
<trkpt lat="33.809956" lon="-118.3941309">
  <ele>-29.73</ele>
  <time>2026-09-02T22:11:41Z</time>
  <course>324.77</course>
  <speed>0.95</speed>
  <fix>3d</fix>
</trkpt>
<trkpt lat="33.8099577" lon="-118.3941327">
  <ele>-30.522</ele>
  <time>2026-09-02T22:11:41Z</time>
  <course>323.39</course>
  <speed>0.978008179924892</speed>
  <fix>3d</fix>
</trkpt>
<trkpt lat="33.809956" lon="-118.3941309">
  <ele>-29.73</ele>
  <time>2026-09-02T22:11:41Z</time>
  <course>324.77</course>
  <speed>0.95</speed>
  <fix>3d</fix>
</trkpt>
<trkpt lat="33.8099584" lon="-118.3941333">
  <ele>-30.542</ele>
  <time>2026-09-02T22:11:41Z</time>
  <course>323.38</course>
  <speed>0.978008179924892</speed>
  <fix>3d</fix>
</trkpt>
<trkpt lat="33.8099574" lon="-118.3941322">
  <ele>-29.77</ele>
  <time>2026-09-02T22:11:41Z</time>
  <course>324.76</course>
  <speed>0.95</speed>
  <fix>3d</fix>
</trkpt>
<trkpt lat="33.8099591" lon="-118.3941339">
  <ele>-30.562</ele>
  <time>2026-09-02T22:11:41Z</time>
  <course>323.38</course>
  <speed>0.9860020283954795</speed>
  <fix>3d</fix>
</trkpt>
<trkpt lat="33.8099574" lon="-118.3941322">
  <ele>-29.77</ele>
  <time>2026-09-02T22:11:41Z</time>
  <course>324.76</course>
  <speed>0.95</speed>
  <fix>3d</fix>
</trkpt>
<trkpt lat="33.8099598" lon="-118.3941345">
  <ele>-30.582</ele>
  <time>2026-09-02T22:11:41Z</time>
  <course>323.37</course>
  <speed>0.9860020283954795</speed>
  <fix>3d</fix>
</trkpt>
<trkpt lat="33.8099587" lon="-118.3941333">
  <ele>-29.81</ele>
  <time>2026-09-02T22:11:41Z</time>
  <course>324.77</course>
  <speed>0.96</speed>
  <fix>3d</fix>
</trkpt>
<trkpt lat="33.8099605" lon="-118.3941351">
  <ele>-30.603</ele>
  <time>2026-09-02T22:11:41Z</time>
  <course>323.39</course>
  <speed>0.9860020283954795</speed>
  <fix>3d</fix>
</trkpt>
<trkpt lat="33.8099587" lon="-118.3941333">
  <ele>-29.81</ele>
  <time>2026-09-02T22:11:41Z</time>
  <course>324.77</course>
  <speed>0.96</speed>
  <fix>3d</fix>
</trkpt>
<trkpt lat="33.8099612" lon="-118.3941357">
  <ele>-30.623</ele>
  <time>2026-09-02T22:11:41Z</time>
  <course>323.4</course>
  <speed>0.9860020283954795</speed>
  <fix>3d</fix>
</trkpt>
<trkpt lat="33.8099602" lon="-118.3941346">
  <ele>-29.85</ele>
  <time>2026-09-02T22:11:41Z</time>
  <course>324.81</course>
  <speed>0.96</speed>
  <fix>3d</fix>
</trkpt>
<trkpt lat="33.8099619" lon="-118.3941363">
  <ele>-30.644</ele>
  <time>2026-09-02T22:11:41Z</time>
  <course>323.43</course>
  <speed>0.9860020283954795</speed>
  <fix>3d</fix>
</trkpt>
<trkpt lat="33.8099602" lon="-118.3941346">
  <ele>-29.85</ele>
  <time>2026-09-02T22:11:41Z</time>
  <course>324.81</course>
  <speed>0.96</speed>
  <fix>3d</fix>
</trkpt>
<trkpt lat="33.8099626" lon="-118.3941369">
  <ele>-30.665</ele>
  <time>2026-09-02T22:11:41Z</time>
  <course>323.45</course>
  <speed>0.9860020283954795</speed>
  <fix>3d</fix>
</trkpt>
<trkpt lat="33.8099616" lon="-118.3941357">
  <ele>-29.89</ele>
  <time>2026-09-02T22:11:41Z</time>
  <course>324.85</course>
  <speed>0.96</speed>
  <fix>3d</fix>
</trkpt>
<trkpt lat="33.8099633" lon="-118.3941375">
  <ele>-30.686</ele>
  <time>2026-09-02T22:11:41Z</time>
  <course>323.47</course>
  <speed>0.9860020283954795</speed>
  <fix>3d</fix>
</trkpt>
<trkpt lat="33.8099616" lon="-118.3941357">
  <ele>-29.89</ele>
  <time>2026-09-02T22:11:41Z</time>
  <course>324.85</course>
  <speed>0.96</speed>
  <fix>3d</fix>
</trkpt>
<trkpt lat="33.809964" lon="-118.3941381">
  <ele>-30.708</ele>
  <time>2026-09-02T22:11:41Z</time>
  <course>323.47</course>
  <speed>0.9860020283954795</speed>
  <fix>3d</fix>
</trkpt>
<trkpt lat="33.8099631" lon="-118.394137">
  <ele>-29.93</ele>
  <time>2026-09-02T22:11:41Z</time>
  <course>324.87</course>
  <speed>0.96</speed>
  <fix>3d</fix>
</trkpt>
<trkpt lat="33.8099647" lon="-118.3941387">
  <ele>-30.73</ele>
  <time>2026-09-02T22:11:41Z</time>
  <course>323.47</course>
  <speed>0.9860020283954795</speed>
  <fix>3d</fix>
</trkpt>
<trkpt lat="33.8099631" lon="-118.394137">
  <ele>-29.93</ele>
  <time>2026-09-02T22:11:41Z</time>
  <course>324.87</course>
  <speed>0.96</speed>
  <fix>3d</fix>
</trkpt>
<trkpt lat="33.8099654" lon="-118.3941393">
  <ele>-30.751</ele>
  <time>2026-09-02T22:11:41Z</time>
  <course>323.46</course>
  <speed>0.9860020283954795</speed>
  <fix>3d</fix>
</trkpt>
<trkpt lat="33.8099645" lon="-118.3941381">
  <ele>-29.97</ele>
  <time>2026-09-02T22:11:41Z</time>
  <course>324.86</course>
  <speed>0.96</speed>
  <fix>3d</fix>
</trkpt>
<trkpt lat="33.8099661" lon="-118.3941399">
  <ele>-30.771</ele>
  <time>2026-09-02T22:11:41Z</time>
  <course>323.44</course>
  <speed>0.9860020283954795</speed>
  <fix>3d</fix>
</trkpt>
<trkpt lat="33.8099645" lon="-118.3941381">
  <ele>-29.97</ele>
  <time>2026-09-02T22:11:41Z</time>
  <course>324.86</course>
  <speed>0.96</speed>
  <fix>3d</fix>
</trkpt>
<trkpt lat="33.8099669" lon="-118.3941405">
  <ele>-30.793</ele>
  <time>2026-09-02T22:11:41Z</time>
  <course>323.41</course>
  <speed>0.9860020283954795</speed>
  <fix>3d</fix>
</trkpt>
<trkpt lat="33.8099658" lon="-118.3941394">
  <ele>-30.01</ele>
  <time>2026-09-02T22:11:41Z</time>
  <course>324.83</course>
  <speed>0.96</speed>
  <fix>3d</fix>
</trkpt>
<trkpt lat="33.8099676" lon="-118.3941411">
  <ele>-30.816</ele>
  <time>2026-09-02T22:11:41Z</time>
  <course>323.39</course>
  <speed>0.9860020283954795</speed>
  <fix>3d</fix>
</trkpt>
<trkpt lat="33.8099658" lon="-118.3941394">
  <ele>-30.01</ele>
  <time>2026-09-02T22:11:41Z</time>
  <course>324.83</course>
  <speed>0.96</speed>
  <fix>3d</fix>
</trkpt>
<trkpt lat="33.8099683" lon="-118.3941417">
  <ele>-30.838</ele>
  <time>2026-09-02T22:11:41Z</time>
  <course>323.4</course>
  <speed>0.9860020283954795</speed>
  <fix>3d</fix>
</trkpt>
<trkpt lat="33.8099672" lon="-118.3941405">
  <ele>-30.05</ele>
  <time>2026-09-02T22:11:41Z</time>
  <course>324.82</course>
  <speed>0.96</speed>
  <fix>3d</fix>
</trkpt>
<trkpt lat="33.809969" lon="-118.3941423">
  <ele>-30.861</ele>
  <time>2026-09-02T22:11:41Z</time>
  <course>323.42</course>
  <speed>0.9860020283954795</speed>
  <fix>3d</fix>
</trkpt>
<trkpt lat="33.8099672" lon="-118.3941405">
  <ele>-30.05</ele>
  <time>2026-09-02T22:11:41Z</time>
  <course>324.82</course>
  <speed>0.96</speed>
  <fix>3d</fix>
</trkpt>
<trkpt lat="33.8099697" lon="-118.3941429">
  <ele>-30.885</ele>
  <time>2026-09-02T22:11:41Z</time>
  <course>323.44</course>
  <speed>0.9860020283954795</speed>
  <fix>3d</fix>
</trkpt>
<trkpt lat="33.8099687" lon="-118.3941418">
  <ele>-30.09</ele>
  <time>2026-09-02T22:11:41Z</time>
  <course>324.86</course>
  <speed>0.96</speed>
  <fix>3d</fix>
</trkpt>
<trkpt lat="33.8099704" lon="-118.3941436">
  <ele>-30.907</ele>
  <time>2026-09-02T22:11:41Z</time>
  <course>323.45</course>
  <speed>0.9860020283954795</speed>
  <fix>3d</fix>
</trkpt>
<trkpt lat="33.8099687" lon="-118.3941418">
  <ele>-30.09</ele>
  <time>2026-09-02T22:11:41Z</time>
  <course>324.86</course>
  <speed>0.96</speed>
  <fix>3d</fix>
</trkpt>
<trkpt lat="33.8099711" lon="-118.3941442">
  <ele>-30.93</ele>
  <time>2026-09-02T22:11:41Z</time>
  <course>323.46</course>
  <speed>0.9940321926376429</speed>
  <fix>3d</fix>
</trkpt>
<trkpt lat="33.8099701" lon="-118.3941429">
  <ele>-30.14</ele>
  <time>2026-09-02T22:11:41Z</time>
  <course>324.9</course>
  <speed>0.97</speed>
  <fix>3d</fix>
</trkpt>
<trkpt lat="33.8099718" lon="-118.3941448">
  <ele>-30.952</ele>
  <time>2026-09-02T22:11:41Z</time>
  <course>323.47</course>
  <speed>0.9940321926376429</speed>
  <fix>3d</fix>
</trkpt>
<trkpt lat="33.8099701" lon="-118.3941429">
  <ele>-30.14</ele>
  <time>2026-09-02T22:11:41Z</time>
  <course>324.9</course>
  <speed>0.97</speed>
  <fix>3d</fix>
</trkpt>
<trkpt lat="33.8099725" lon="-118.3941454">
  <ele>-30.976</ele>
  <time>2026-09-02T22:11:41Z</time>
  <course>323.46</course>
  <speed>0.9940321926376429</speed>
  <fix>3d</fix>
</trkpt>
<trkpt lat="33.8099716" lon="-118.3941442">
  <ele>-30.18</ele>
  <time>2026-09-02T22:11:41Z</time>
  <course>324.88</course>
  <speed>0.97</speed>
  <fix>3d</fix>
</trkpt>
<trkpt lat="33.8099733" lon="-118.394146">
  <ele>-30.999</ele>
  <time>2026-09-02T22:11:41Z</time>
  <course>323.44</course>
  <speed>0.9940321926376429</speed>
  <fix>3d</fix>
</trkpt>
<trkpt lat="33.8099716" lon="-118.3941442">
  <ele>-30.18</ele>
  <time>2026-09-02T22:11:41Z</time>
  <course>324.88</course>
  <speed>0.97</speed>
  <fix>3d</fix>
</trkpt>
<trkpt lat="33.809974" lon="-118.3941466">
  <ele>-31.021</ele>
  <time>2026-09-02T22:11:41Z</time>
  <course>323.42</course>
  <speed>0.9940321926376429</speed>
  <fix>3d</fix>
</trkpt>
<trkpt lat="33.809973" lon="-118.3941453">
  <ele>-30.22</ele>
  <time>2026-09-02T22:11:41Z</time>
  <course>324.83</course>
  <speed>0.97</speed>
  <fix>3d</fix>
</trkpt>
<trkpt lat="33.8099747" lon="-118.3941472">
  <ele>-31.043</ele>
  <time>2026-09-02T22:11:41Z</time>
  <course>323.4</course>
  <speed>0.9940321926376429</speed>
  <fix>3d</fix>
</trkpt>
<trkpt lat="33.809973" lon="-118.3941453">
  <ele>-30.22</ele>
  <time>2026-09-02T22:11:41Z</time>
  <course>324.83</course>
  <speed>0.97</speed>
  <fix>3d</fix>
</trkpt>
<trkpt lat="33.8099754" lon="-118.3941478">
  <ele>-31.064</ele>
  <time>2026-09-02T22:11:41Z</time>
  <course>323.37</course>
  <speed>0.9940321926376429</speed>
  <fix>3d</fix>
</trkpt>
<trkpt lat="33.8099744" lon="-118.3941466">
  <ele>-30.26</ele>
  <time>2026-09-02T22:11:41Z</time>
  <course>324.77</course>
  <speed>0.97</speed>
  <fix>3d</fix>
</trkpt>
<trkpt lat="33.8099761" lon="-118.3941484">
  <ele>-31.085</ele>
  <time>2026-09-02T22:11:41Z</time>
  <course>323.34</course>
  <speed>1.0</speed>
  <fix>3d</fix>
</trkpt>
<trkpt lat="33.8099744" lon="-118.3941466">
  <ele>-30.26</ele>
  <time>2026-09-02T22:11:41Z</time>
  <course>324.77</course>
  <speed>0.97</speed>
  <fix>3d</fix>
</trkpt>
<trkpt lat="33.8099768" lon="-118.394149">
  <ele>-31.106</ele>
  <time>2026-09-02T22:11:41Z</time>
  <course>323.33</course>
  <speed>0.9940321926376429</speed>
  <fix>3d</fix>
</trkpt>
<trkpt lat="33.8099759" lon="-118.3941478">
  <ele>-30.31</ele>
  <time>2026-09-02T22:11:41Z</time>
  <course>324.73</course>
  <speed>0.97</speed>
  <fix>3d</fix>
</trkpt>
<trkpt lat="33.8099776" lon="-118.3941496">
  <ele>-31.126</ele>
  <time>2026-09-02T22:11:41Z</time>
  <course>323.32</course>
  <speed>1.0</speed>
  <fix>3d</fix>
</trkpt>
<trkpt lat="33.8099759" lon="-118.3941478">
  <ele>-30.31</ele>
  <time>2026-09-02T22:11:41Z</time>
  <course>324.73</course>
  <speed>0.97</speed>
  <fix>3d</fix>
</trkpt>
<trkpt lat="33.8099783" lon="-118.3941502">
  <ele>-31.148</ele>
  <time>2026-09-02T22:11:41Z</time>
  <course>323.31</course>
  <speed>0.9940321926376429</speed>
  <fix>3d</fix>
</trkpt>
<trkpt lat="33.8099773" lon="-118.3941491">
  <ele>-30.35</ele>
  <time>2026-09-02T22:11:41Z</time>
  <course>324.73</course>
  <speed>0.97</speed>
  <fix>3d</fix>
</trkpt>
<trkpt lat="33.809979" lon="-118.3941508">
  <ele>-31.17</ele>
  <time>2026-09-02T22:11:42Z</time>
  <course>323.3</course>
  <speed>0.9940321926376429</speed>
  <fix>3d</fix>
</trkpt>
<trkpt lat="33.8099773" lon="-118.3941491">
  <ele>-30.35</ele>
  <time>2026-09-02T22:11:42Z</time>
  <course>324.73</course>
  <speed>0.97</speed>
  <fix>3d</fix>
</trkpt>
<trkpt lat="33.8099797" lon="-118.3941514">
  <ele>-31.192</ele>
  <time>2026-09-02T22:11:42Z</time>
  <course>323.31</course>
  <speed>0.9940321926376429</speed>
  <fix>3d</fix>
</trkpt>
<trkpt lat="33.8099787" lon="-118.3941503">
  <ele>-30.39</ele>
  <time>2026-09-02T22:11:42Z</time>
  <course>324.74</course>
  <speed>0.97</speed>
  <fix>3d</fix>
</trkpt>
<trkpt lat="33.8099804" lon="-118.3941521">
  <ele>-31.216</ele>
  <time>2026-09-02T22:11:42Z</time>
  <course>323.34</course>
  <speed>0.9940321926376429</speed>
  <fix>3d</fix>
</trkpt>
<trkpt lat="33.8099787" lon="-118.3941503">
  <ele>-30.39</ele>
  <time>2026-09-02T22:11:42Z</time>
  <course>324.74</course>
  <speed>0.97</speed>
  <fix>3d</fix>
</trkpt>
<trkpt lat="33.8099812" lon="-118.3941527">
  <ele>-31.239</ele>
  <time>2026-09-02T22:11:42Z</time>
  <course>323.36</course>
  <speed>0.9940321926376429</speed>
  <fix>3d</fix>
</trkpt>
<trkpt lat="33.8099802" lon="-118.3941515">
  <ele>-30.43</ele>
  <time>2026-09-02T22:11:42Z</time>
  <course>324.79</course>
  <speed>0.97</speed>
  <fix>3d</fix>
</trkpt>
<trkpt lat="33.8099819" lon="-118.3941533">
  <ele>-31.261</ele>
  <time>2026-09-02T22:11:42Z</time>
  <course>323.39</course>
  <speed>0.9940321926376429</speed>
  <fix>3d</fix>
</trkpt>
<trkpt lat="33.8099802" lon="-118.3941515">
  <ele>-30.43</ele>
  <time>2026-09-02T22:11:42Z</time>
  <course>324.79</course>
  <speed>0.97</speed>
  <fix>3d</fix>
</trkpt>
<trkpt lat="33.8099826" lon="-118.3941539">
  <ele>-31.283</ele>
  <time>2026-09-02T22:11:42Z</time>
  <course>323.4</course>
  <speed>0.9940321926376429</speed>
  <fix>3d</fix>
</trkpt>
<trkpt lat="33.8099816" lon="-118.3941527">
  <ele>-30.47</ele>
  <time>2026-09-02T22:11:42Z</time>
  <course>324.83</course>
  <speed>0.97</speed>
  <fix>3d</fix>
</trkpt>
<trkpt lat="33.8099833" lon="-118.3941545">
  <ele>-31.306</ele>
  <time>2026-09-02T22:11:42Z</time>
  <course>323.41</course>
  <speed>0.9940321926376429</speed>
  <fix>3d</fix>
</trkpt>
<trkpt lat="33.8099816" lon="-118.3941527">
  <ele>-30.47</ele>
  <time>2026-09-02T22:11:42Z</time>
  <course>324.83</course>
  <speed>0.97</speed>
  <fix>3d</fix>
</trkpt>
<trkpt lat="33.809984" lon="-118.3941551">
  <ele>-31.328</ele>
  <time>2026-09-02T22:11:42Z</time>
  <course>323.41</course>
  <speed>0.9940321926376429</speed>
  <fix>3d</fix>
</trkpt>
<trkpt lat="33.809983" lon="-118.3941539">
  <ele>-30.51</ele>
  <time>2026-09-02T22:11:42Z</time>
  <course>324.83</course>
  <speed>0.97</speed>
  <fix>3d</fix>
</trkpt>
<trkpt lat="33.8099848" lon="-118.3941557">
  <ele>-31.351</ele>
  <time>2026-09-02T22:11:42Z</time>
  <course>323.41</course>
  <speed>1.0</speed>
  <fix>3d</fix>
</trkpt>
<trkpt lat="33.809983" lon="-118.3941539">
  <ele>-30.51</ele>
  <time>2026-09-02T22:11:42Z</time>
  <course>324.83</course>
  <speed>0.97</speed>
  <fix>3d</fix>
</trkpt>
<trkpt lat="33.8099855" lon="-118.3941563">
  <ele>-31.373</ele>
  <time>2026-09-02T22:11:42Z</time>
  <course>323.4</course>
  <speed>1.0</speed>
  <fix>3d</fix>
</trkpt>
<trkpt lat="33.8099845" lon="-118.3941551">
  <ele>-30.56</ele>
  <time>2026-09-02T22:11:42Z</time>
  <course>324.82</course>
  <speed>0.97</speed>
  <fix>3d</fix>
</trkpt>
<trkpt lat="33.8099862" lon="-118.3941569">
  <ele>-31.394</ele>
  <time>2026-09-02T22:11:42Z</time>
  <course>323.4</course>
  <speed>1.0</speed>
  <fix>3d</fix>
</trkpt>
<trkpt lat="33.8099845" lon="-118.3941551">
  <ele>-30.56</ele>
  <time>2026-09-02T22:11:42Z</time>
  <course>324.82</course>
  <speed>0.97</speed>
  <fix>3d</fix>
</trkpt>
<trkpt lat="33.8099869" lon="-118.3941576">
  <ele>-31.415</ele>
  <time>2026-09-02T22:11:42Z</time>
  <course>323.38</course>
  <speed>1.0</speed>
  <fix>3d</fix>
</trkpt>
<trkpt lat="33.8099859" lon="-118.3941563">
  <ele>-30.6</ele>
  <time>2026-09-02T22:11:42Z</time>
  <course>324.78</course>
  <speed>0.97</speed>
  <fix>3d</fix>
</trkpt>
<trkpt lat="33.8099876" lon="-118.3941582">
  <ele>-31.436</ele>
  <time>2026-09-02T22:11:42Z</time>
  <course>323.36</course>
  <speed>1.0</speed>
  <fix>3d</fix>
</trkpt>
<trkpt lat="33.8099859" lon="-118.3941563">
  <ele>-30.6</ele>
  <time>2026-09-02T22:11:42Z</time>
  <course>324.78</course>
  <speed>0.97</speed>
  <fix>3d</fix>
</trkpt>
<trkpt lat="33.8099884" lon="-118.3941588">
  <ele>-31.457</ele>
  <time>2026-09-02T22:11:42Z</time>
  <course>323.34</course>
  <speed>1.0</speed>
  <fix>3d</fix>
</trkpt>
<trkpt lat="33.8099873" lon="-118.3941576">
  <ele>-30.64</ele>
  <time>2026-09-02T22:11:42Z</time>
  <course>324.72</course>
  <speed>0.97</speed>
  <fix>3d</fix>
</trkpt>
<trkpt lat="33.8099891" lon="-118.3941594">
  <ele>-31.478</ele>
  <time>2026-09-02T22:11:42Z</time>
  <course>323.33</course>
  <speed>1.0</speed>
  <fix>3d</fix>
</trkpt>
<trkpt lat="33.8099873" lon="-118.3941576">
  <ele>-30.64</ele>
  <time>2026-09-02T22:11:42Z</time>
  <course>324.72</course>
  <speed>0.97</speed>
  <fix>3d</fix>
</trkpt>
<trkpt lat="33.8099898" lon="-118.39416">
  <ele>-31.5</ele>
  <time>2026-09-02T22:11:42Z</time>
  <course>323.34</course>
  <speed>1.0</speed>
  <fix>3d</fix>
</trkpt>
<trkpt lat="33.8099888" lon="-118.3941587">
  <ele>-30.68</ele>
  <time>2026-09-02T22:11:42Z</time>
  <course>324.73</course>
  <speed>0.98</speed>
  <fix>3d</fix>
</trkpt>
<trkpt lat="33.8099905" lon="-118.3941606">
  <ele>-31.521</ele>
  <time>2026-09-02T22:11:42Z</time>
  <course>323.35</course>
  <speed>1.0</speed>
  <fix>3d</fix>
</trkpt>
<trkpt lat="33.8099888" lon="-118.3941587">
  <ele>-30.68</ele>
  <time>2026-09-02T22:11:42Z</time>
  <course>324.73</course>
  <speed>0.98</speed>
  <fix>3d</fix>
</trkpt>
<trkpt lat="33.8099912" lon="-118.3941612">
  <ele>-31.542</ele>
  <time>2026-09-02T22:11:42Z</time>
  <course>323.34</course>
  <speed>1.0</speed>
  <fix>3d</fix>
</trkpt>
<trkpt lat="33.8099902" lon="-118.39416">
  <ele>-30.72</ele>
  <time>2026-09-02T22:11:42Z</time>
  <course>324.72</course>
  <speed>0.98</speed>
  <fix>3d</fix>
</trkpt>
<trkpt lat="33.809992" lon="-118.3941618">
  <ele>-31.562</ele>
  <time>2026-09-02T22:11:42Z</time>
  <course>323.33</course>
  <speed>1.0</speed>
  <fix>3d</fix>
</trkpt>
<trkpt lat="33.8099902" lon="-118.39416">
  <ele>-30.72</ele>
  <time>2026-09-02T22:11:42Z</time>
  <course>324.72</course>
  <speed>0.98</speed>
  <fix>3d</fix>
</trkpt>
<trkpt lat="33.8099927" lon="-118.3941625">
  <ele>-31.584</ele>
  <time>2026-09-02T22:11:42Z</time>
  <course>323.31</course>
  <speed>1.0</speed>
  <fix>3d</fix>
</trkpt>
<trkpt lat="33.8099917" lon="-118.3941613">
  <ele>-30.77</ele>
  <time>2026-09-02T22:11:42Z</time>
  <course>324.68</course>
  <speed>0.98</speed>
  <fix>3d</fix>
</trkpt>
<trkpt lat="33.8099934" lon="-118.3941631">
  <ele>-31.606</ele>
  <time>2026-09-02T22:11:42Z</time>
  <course>323.31</course>
  <speed>1.0</speed>
  <fix>3d</fix>
</trkpt>
<trkpt lat="33.8099917" lon="-118.3941613">
  <ele>-30.77</ele>
  <time>2026-09-02T22:11:42Z</time>
  <course>324.68</course>
  <speed>0.98</speed>
  <fix>3d</fix>
</trkpt>
<trkpt lat="33.8099941" lon="-118.3941637">
  <ele>-31.629</ele>
  <time>2026-09-02T22:11:42Z</time>
  <course>323.32</course>
  <speed>1.0</speed>
  <fix>3d</fix>
</trkpt>
<trkpt lat="33.8099931" lon="-118.3941625">
  <ele>-30.81</ele>
  <time>2026-09-02T22:11:42Z</time>
  <course>324.7</course>
  <speed>0.98</speed>
  <fix>3d</fix>
</trkpt>
<trkpt lat="33.8099949" lon="-118.3941643">
  <ele>-31.652</ele>
  <time>2026-09-02T22:11:42Z</time>
  <course>323.34</course>
  <speed>1.0080178569846865</speed>
  <fix>3d</fix>
</trkpt>
<trkpt lat="33.8099931" lon="-118.3941625">
  <ele>-30.81</ele>
  <time>2026-09-02T22:11:42Z</time>
  <course>324.7</course>
  <speed>0.98</speed>
  <fix>3d</fix>
</trkpt>
<trkpt lat="33.8099956" lon="-118.3941649">
  <ele>-31.674</ele>
  <time>2026-09-02T22:11:42Z</time>
  <course>323.36</course>
  <speed>1.0080178569846865</speed>
  <fix>3d</fix>
</trkpt>
<trkpt lat="33.8099945" lon="-118.3941637">
  <ele>-30.85</ele>
  <time>2026-09-02T22:11:42Z</time>
  <course>324.74</course>
  <speed>0.98</speed>
  <fix>3d</fix>
</trkpt>
<trkpt lat="33.8099963" lon="-118.3941655">
  <ele>-31.696</ele>
  <time>2026-09-02T22:11:42Z</time>
  <course>323.39</course>
  <speed>1.0080178569846865</speed>
  <fix>3d</fix>
</trkpt>
<trkpt lat="33.8099945" lon="-118.3941637">
  <ele>-30.85</ele>
  <time>2026-09-02T22:11:42Z</time>
  <course>324.74</course>
  <speed>0.98</speed>
  <fix>3d</fix>
</trkpt>
<trkpt lat="33.809997" lon="-118.3941661">
  <ele>-31.718</ele>
  <time>2026-09-02T22:11:42Z</time>
  <course>323.41</course>
  <speed>1.0080178569846865</speed>
  <fix>3d</fix>
</trkpt>
<trkpt lat="33.809996" lon="-118.3941649">
  <ele>-30.9</ele>
  <time>2026-09-02T22:11:42Z</time>
  <course>324.78</course>
  <speed>0.98</speed>
  <fix>3d</fix>
</trkpt>
<trkpt lat="33.8099978" lon="-118.3941668">
  <ele>-31.739</ele>
  <time>2026-09-02T22:11:42Z</time>
  <course>323.43</course>
  <speed>1.0080178569846865</speed>
  <fix>3d</fix>
</trkpt>
<trkpt lat="33.809996" lon="-118.3941649">
  <ele>-30.9</ele>
  <time>2026-09-02T22:11:42Z</time>
  <course>324.78</course>
  <speed>0.98</speed>
  <fix>3d</fix>
</trkpt>
<trkpt lat="33.8099985" lon="-118.3941674">
  <ele>-31.76</ele>
  <time>2026-09-02T22:11:42Z</time>
  <course>323.44</course>
  <speed>1.0080178569846865</speed>
  <fix>3d</fix>
</trkpt>
<trkpt lat="33.8099974" lon="-118.3941662">
  <ele>-30.93</ele>
  <time>2026-09-02T22:11:42Z</time>
  <course>324.8</course>
  <speed>0.98</speed>
  <fix>3d</fix>
</trkpt>
<trkpt lat="33.8099992" lon="-118.394168">
  <ele>-31.782</ele>
  <time>2026-09-02T22:11:42Z</time>
  <course>323.45</course>
  <speed>1.0080178569846865</speed>
  <fix>3d</fix>
</trkpt>
<trkpt lat="33.8099974" lon="-118.3941662">
  <ele>-30.93</ele>
  <time>2026-09-02T22:11:42Z</time>
  <course>324.8</course>
  <speed>0.98</speed>
  <fix>3d</fix>
</trkpt>
<trkpt lat="33.8099999" lon="-118.3941686">
  <ele>-31.804</ele>
  <time>2026-09-02T22:11:42Z</time>
  <course>323.46</course>
  <speed>1.0080178569846865</speed>
  <fix>3d</fix>
</trkpt>
<trkpt lat="33.8099988" lon="-118.3941673">
  <ele>-30.98</ele>
  <time>2026-09-02T22:11:42Z</time>
  <course>324.82</course>
  <speed>0.98</speed>
  <fix>3d</fix>
</trkpt>
<trkpt lat="33.8100006" lon="-118.3941692">
  <ele>-31.826</ele>
  <time>2026-09-02T22:11:42Z</time>
  <course>323.48</course>
  <speed>1.0080178569846865</speed>
  <fix>3d</fix>
</trkpt>
<trkpt lat="33.8099988" lon="-118.3941673">
  <ele>-30.98</ele>
  <time>2026-09-02T22:11:42Z</time>
  <course>324.82</course>
  <speed>0.98</speed>
  <fix>3d</fix>
</trkpt>
<trkpt lat="33.8100014" lon="-118.3941698">
  <ele>-31.849</ele>
  <time>2026-09-02T22:11:42Z</time>
  <course>323.49</course>
  <speed>1.0080178569846865</speed>
  <fix>3d</fix>
</trkpt>
<trkpt lat="33.8100003" lon="-118.3941686">
  <ele>-31.02</ele>
  <time>2026-09-02T22:11:42Z</time>
  <course>324.84</course>
  <speed>0.98</speed>
  <fix>3d</fix>
</trkpt>
<trkpt lat="33.8100021" lon="-118.3941704">
  <ele>-31.872</ele>
  <time>2026-09-02T22:11:42Z</time>
  <course>323.5</course>
  <speed>1.0080178569846865</speed>
  <fix>3d</fix>
</trkpt>
<trkpt lat="33.8100003" lon="-118.3941686">
  <ele>-31.02</ele>
  <time>2026-09-02T22:11:42Z</time>
  <course>324.84</course>
  <speed>0.98</speed>
  <fix>3d</fix>
</trkpt>
<trkpt lat="33.8100028" lon="-118.3941711">
  <ele>-31.896</ele>
  <time>2026-09-02T22:11:42Z</time>
  <course>323.5</course>
  <speed>1.0080178569846865</speed>
  <fix>3d</fix>
</trkpt>
<trkpt lat="33.8100017" lon="-118.3941699">
  <ele>-31.07</ele>
  <time>2026-09-02T22:11:42Z</time>
  <course>324.85</course>
  <speed>0.99</speed>
  <fix>3d</fix>
</trkpt>
<trkpt lat="33.8100035" lon="-118.3941717">
  <ele>-31.92</ele>
  <time>2026-09-02T22:11:42Z</time>
  <course>323.51</course>
  <speed>1.0220078277586722</speed>
  <fix>3d</fix>
</trkpt>
<trkpt lat="33.8100017" lon="-118.3941699">
  <ele>-31.07</ele>
  <time>2026-09-02T22:11:42Z</time>
  <course>324.85</course>
  <speed>0.99</speed>
  <fix>3d</fix>
</trkpt>
<trkpt lat="33.8100043" lon="-118.3941723">
  <ele>-31.943</ele>
  <time>2026-09-02T22:11:42Z</time>
  <course>323.53</course>
  <speed>1.016070863670443</speed>
  <fix>3d</fix>
</trkpt>
<trkpt lat="33.8100032" lon="-118.3941711">
  <ele>-31.11</ele>
  <time>2026-09-02T22:11:42Z</time>
  <course>324.86</course>
  <speed>0.99</speed>
  <fix>3d</fix>
</trkpt>
<trkpt lat="33.810005" lon="-118.3941729">
  <ele>-31.967</ele>
  <time>2026-09-02T22:11:42Z</time>
  <course>323.56</course>
  <speed>1.0220078277586722</speed>
  <fix>3d</fix>
</trkpt>
<trkpt lat="33.8100032" lon="-118.3941711">
  <ele>-31.11</ele>
  <time>2026-09-02T22:11:42Z</time>
  <course>324.86</course>
  <speed>0.99</speed>
  <fix>3d</fix>
</trkpt>
<trkpt lat="33.8100057" lon="-118.3941735">
  <ele>-31.989</ele>
  <time>2026-09-02T22:11:42Z</time>
  <course>323.58</course>
  <speed>1.0220078277586722</speed>
  <fix>3d</fix>
</trkpt>
<trkpt lat="33.8100047" lon="-118.3941723">
  <ele>-31.16</ele>
  <time>2026-09-02T22:11:42Z</time>
  <course>324.9</course>
  <speed>0.99</speed>
  <fix>3d</fix>
</trkpt>
<trkpt lat="33.8100064" lon="-118.3941742">
  <ele>-32.011</ele>
  <time>2026-09-02T22:11:42Z</time>
  <course>323.59</course>
  <speed>1.0220078277586722</speed>
  <fix>3d</fix>
</trkpt>
<trkpt lat="33.8100047" lon="-118.3941723">
  <ele>-31.16</ele>
  <time>2026-09-02T22:11:42Z</time>
  <course>324.9</course>
  <speed>0.99</speed>
  <fix>3d</fix>
</trkpt>
<trkpt lat="33.8100072" lon="-118.3941748">
  <ele>-32.032</ele>
  <time>2026-09-02T22:11:42Z</time>
  <course>323.59</course>
  <speed>1.0220078277586722</speed>
  <fix>3d</fix>
</trkpt>
<trkpt lat="33.8100061" lon="-118.3941735">
  <ele>-31.2</ele>
  <time>2026-09-02T22:11:42Z</time>
  <course>324.92</course>
  <speed>1.0</speed>
  <fix>3d</fix>
</trkpt>
<trkpt lat="33.8100079" lon="-118.3941754">
  <ele>-32.052</ele>
  <time>2026-09-02T22:11:42Z</time>
  <course>323.58</course>
  <speed>1.0220078277586722</speed>
  <fix>3d</fix>
</trkpt>
<trkpt lat="33.8100061" lon="-118.3941735">
  <ele>-31.2</ele>
  <time>2026-09-02T22:11:42Z</time>
  <course>324.92</course>
  <speed>1.0</speed>
  <fix>3d</fix>
</trkpt>
<trkpt lat="33.8100086" lon="-118.394176">
  <ele>-32.073</ele>
  <time>2026-09-02T22:11:42Z</time>
  <course>323.55</course>
  <speed>1.0220078277586722</speed>
  <fix>3d</fix>
</trkpt>
<trkpt lat="33.8100076" lon="-118.3941748">
  <ele>-31.24</ele>
  <time>2026-09-02T22:11:42Z</time>
  <course>324.89</course>
  <speed>1.0</speed>
  <fix>3d</fix>
</trkpt>
<trkpt lat="33.8100094" lon="-118.3941766">
  <ele>-32.094</ele>
  <time>2026-09-02T22:11:42Z</time>
  <course>323.53</course>
  <speed>1.0220078277586722</speed>
  <fix>3d</fix>
</trkpt>
<trkpt lat="33.8100076" lon="-118.3941748">
  <ele>-31.24</ele>
  <time>2026-09-02T22:11:42Z</time>
  <course>324.89</course>
  <speed>1.0</speed>
  <fix>3d</fix>
</trkpt>
<trkpt lat="33.8100101" lon="-118.3941772">
  <ele>-32.115</ele>
  <time>2026-09-02T22:11:42Z</time>
  <course>323.52</course>
  <speed>1.0220078277586722</speed>
  <fix>3d</fix>
</trkpt>
<trkpt lat="33.8100091" lon="-118.394176">
  <ele>-31.27</ele>
  <time>2026-09-02T22:11:42Z</time>
  <course>324.87</course>
  <speed>1.0</speed>
  <fix>3d</fix>
</trkpt>
<trkpt lat="33.8100108" lon="-118.3941779">
  <ele>-32.136</ele>
  <time>2026-09-02T22:11:42Z</time>
  <course>323.51</course>
  <speed>1.0220078277586722</speed>
  <fix>3d</fix>
</trkpt>
<trkpt lat="33.8100091" lon="-118.394176">
  <ele>-31.27</ele>
  <time>2026-09-02T22:11:42Z</time>
  <course>324.87</course>
  <speed>1.0</speed>
  <fix>3d</fix>
</trkpt>
<trkpt lat="33.8100116" lon="-118.3941785">
  <ele>-32.156</ele>
  <time>2026-09-02T22:11:42Z</time>
  <course>323.48</course>
  <speed>1.0220078277586722</speed>
  <fix>3d</fix>
</trkpt>
<trkpt lat="33.8100106" lon="-118.3941773">
  <ele>-31.32</ele>
  <time>2026-09-02T22:11:42Z</time>
  <course>324.84</course>
  <speed>1.0</speed>
  <fix>3d</fix>
</trkpt>
<trkpt lat="33.8100123" lon="-118.3941791">
  <ele>-32.176</ele>
  <time>2026-09-02T22:11:42Z</time>
  <course>323.45</course>
  <speed>1.0220078277586722</speed>
  <fix>3d</fix>
</trkpt>
<trkpt lat="33.8100106" lon="-118.3941773">
  <ele>-31.32</ele>
  <time>2026-09-02T22:11:42Z</time>
  <course>324.84</course>
  <speed>1.0</speed>
  <fix>3d</fix>
</trkpt>
<trkpt lat="33.810013" lon="-118.3941797">
  <ele>-32.196</ele>
  <time>2026-09-02T22:11:42Z</time>
  <course>323.43</course>
  <speed>1.0220078277586722</speed>
  <fix>3d</fix>
</trkpt>
<trkpt lat="33.810012" lon="-118.3941786">
  <ele>-31.36</ele>
  <time>2026-09-02T22:11:42Z</time>
  <course>324.79</course>
  <speed>1.0</speed>
  <fix>3d</fix>
</trkpt>
<trkpt lat="33.8100138" lon="-118.3941803">
  <ele>-32.217</ele>
  <time>2026-09-02T22:11:42Z</time>
  <course>323.41</course>
  <speed>1.0220078277586722</speed>
  <fix>3d</fix>
</trkpt>
<trkpt lat="33.810012" lon="-118.3941786">
  <ele>-31.36</ele>
  <time>2026-09-02T22:11:42Z</time>
  <course>324.79</course>
  <speed>1.0</speed>
  <fix>3d</fix>
</trkpt>
<trkpt lat="33.8100145" lon="-118.394181">
  <ele>-32.237</ele>
  <time>2026-09-02T22:11:42Z</time>
  <course>323.42</course>
  <speed>1.0220078277586722</speed>
  <fix>3d</fix>
</trkpt>
<trkpt lat="33.8100135" lon="-118.3941798">
  <ele>-31.41</ele>
  <time>2026-09-02T22:11:42Z</time>
  <course>324.79</course>
  <speed>1.0</speed>
  <fix>3d</fix>
</trkpt>
<trkpt lat="33.8100152" lon="-118.3941816">
  <ele>-32.257</ele>
  <time>2026-09-02T22:11:42Z</time>
  <course>323.43</course>
  <speed>1.0220078277586722</speed>
  <fix>3d</fix>
</trkpt>
<trkpt lat="33.8100135" lon="-118.3941798">
  <ele>-31.41</ele>
  <time>2026-09-02T22:11:42Z</time>
  <course>324.79</course>
  <speed>1.0</speed>
  <fix>3d</fix>
</trkpt>
<trkpt lat="33.810016" lon="-118.3941822">
  <ele>-32.278</ele>
  <time>2026-09-02T22:11:42Z</time>
  <course>323.44</course>
  <speed>1.016070863670443</speed>
  <fix>3d</fix>
</trkpt>
<trkpt lat="33.810015" lon="-118.3941811">
  <ele>-31.45</ele>
  <time>2026-09-02T22:11:42Z</time>
  <course>324.83</course>
  <speed>1.0</speed>
  <fix>3d</fix>
</trkpt>
<trkpt lat="33.8100167" lon="-118.3941828">
  <ele>-32.3</ele>
  <time>2026-09-02T22:11:42Z</time>
  <course>323.46</course>
  <speed>1.0140019723846694</speed>
  <fix>3d</fix>
</trkpt>
<trkpt lat="33.810015" lon="-118.3941811">
  <ele>-31.45</ele>
  <time>2026-09-02T22:11:42Z</time>
  <course>324.83</course>
  <speed>1.0</speed>
  <fix>3d</fix>
</trkpt>
<trkpt lat="33.8100174" lon="-118.3941835">
  <ele>-32.322</ele>
  <time>2026-09-02T22:11:42Z</time>
  <course>323.47</course>
  <speed>1.0080178569846865</speed>
  <fix>3d</fix>
</trkpt>
<trkpt lat="33.8100164" lon="-118.3941823">
  <ele>-31.49</ele>
  <time>2026-09-02T22:11:42Z</time>
  <course>324.84</course>
  <speed>1.0</speed>
  <fix>3d</fix>
</trkpt>
<trkpt lat="33.8100182" lon="-118.3941841">
  <ele>-32.346</ele>
  <time>2026-09-02T22:11:42Z</time>
  <course>323.48</course>
  <speed>1.0140019723846694</speed>
  <fix>3d</fix>
</trkpt>
<trkpt lat="33.8100164" lon="-118.3941823">
  <ele>-31.49</ele>
  <time>2026-09-02T22:11:42Z</time>
  <course>324.84</course>
  <speed>1.0</speed>
  <fix>3d</fix>
</trkpt>
<trkpt lat="33.8100189" lon="-118.3941847">
  <ele>-32.371</ele>
  <time>2026-09-02T22:11:42Z</time>
  <course>323.49</course>
  <speed>1.0080178569846865</speed>
  <fix>3d</fix>
</trkpt>
<trkpt lat="33.8100179" lon="-118.3941836">
  <ele>-31.54</ele>
  <time>2026-09-02T22:11:42Z</time>
  <course>324.86</course>
  <speed>0.99</speed>
  <fix>3d</fix>
</trkpt>
<trkpt lat="33.8100196" lon="-118.3941853">
  <ele>-32.395</ele>
  <time>2026-09-02T22:11:42Z</time>
  <course>323.51</course>
  <speed>1.0080178569846865</speed>
  <fix>3d</fix>
</trkpt>
<trkpt lat="33.8100179" lon="-118.3941836">
  <ele>-31.54</ele>
  <time>2026-09-02T22:11:42Z</time>
  <course>324.86</course>
  <speed>0.99</speed>
  <fix>3d</fix>
</trkpt>
<trkpt lat="33.8100203" lon="-118.394186">
  <ele>-32.419</ele>
  <time>2026-09-02T22:11:42Z</time>
  <course>323.52</course>
  <speed>1.0080178569846865</speed>
  <fix>3d</fix>
</trkpt>
<trkpt lat="33.8100194" lon="-118.3941848">
  <ele>-31.58</ele>
  <time>2026-09-02T22:11:42Z</time>
  <course>324.9</course>
  <speed>0.99</speed>
  <fix>3d</fix>
</trkpt>
<trkpt lat="33.8100211" lon="-118.3941866">
  <ele>-32.443</ele>
  <time>2026-09-02T22:11:42Z</time>
  <course>323.54</course>
  <speed>1.016070863670443</speed>
  <fix>3d</fix>
</trkpt>
<trkpt lat="33.8100194" lon="-118.3941848">
  <ele>-31.58</ele>
  <time>2026-09-02T22:11:42Z</time>
  <course>324.9</course>
  <speed>0.99</speed>
  <fix>3d</fix>
</trkpt>
<trkpt lat="33.8100218" lon="-118.3941872">
  <ele>-32.467</ele>
  <time>2026-09-02T22:11:42Z</time>
  <course>323.55</course>
  <speed>1.0080178569846865</speed>
  <fix>3d</fix>
</trkpt>
<trkpt lat="33.8100209" lon="-118.394186">
  <ele>-31.63</ele>
  <time>2026-09-02T22:11:42Z</time>
  <course>324.91</course>
  <speed>0.99</speed>
  <fix>3d</fix>
</trkpt>
<trkpt lat="33.8100226" lon="-118.3941878">
  <ele>-32.491</ele>
  <time>2026-09-02T22:11:42Z</time>
  <course>323.54</course>
  <speed>1.0140019723846694</speed>
  <fix>3d</fix>
</trkpt>
<trkpt lat="33.8100209" lon="-118.394186">
  <ele>-31.63</ele>
  <time>2026-09-02T22:11:42Z</time>
  <course>324.91</course>
  <speed>0.99</speed>
  <fix>3d</fix>
</trkpt>
<trkpt lat="33.8100233" lon="-118.3941884">
  <ele>-32.514</ele>
  <time>2026-09-02T22:11:42Z</time>
  <course>323.51</course>
  <speed>1.0080178569846865</speed>
  <fix>3d</fix>
</trkpt>
<trkpt lat="33.8100223" lon="-118.3941873">
  <ele>-31.67</ele>
  <time>2026-09-02T22:11:42Z</time>
  <course>324.88</course>
  <speed>0.99</speed>
  <fix>3d</fix>
</trkpt>
<trkpt lat="33.810024" lon="-118.3941891">
  <ele>-32.538</ele>
  <time>2026-09-02T22:11:42Z</time>
  <course>323.48</course>
  <speed>1.0080178569846865</speed>
  <fix>3d</fix>
</trkpt>
<trkpt lat="33.8100223" lon="-118.3941873">
  <ele>-31.67</ele>
  <time>2026-09-02T22:11:42Z</time>
  <course>324.88</course>
  <speed>0.99</speed>
  <fix>3d</fix>
</trkpt>
<trkpt lat="33.8100248" lon="-118.3941897">
  <ele>-32.561</ele>
  <time>2026-09-02T22:11:42Z</time>
  <course>323.45</course>
  <speed>1.0080178569846865</speed>
  <fix>3d</fix>
</trkpt>
<trkpt lat="33.8100238" lon="-118.3941885">
  <ele>-31.72</ele>
  <time>2026-09-02T22:11:42Z</time>
  <course>324.84</course>
  <speed>0.99</speed>
  <fix>3d</fix>
</trkpt>
<trkpt lat="33.8100255" lon="-118.3941903">
  <ele>-32.583</ele>
  <time>2026-09-02T22:11:42Z</time>
  <course>323.45</course>
  <speed>1.0140019723846694</speed>
  <fix>3d</fix>
</trkpt>
<trkpt lat="33.8100238" lon="-118.3941885">
  <ele>-31.72</ele>
  <time>2026-09-02T22:11:42Z</time>
  <course>324.84</course>
  <speed>0.99</speed>
  <fix>3d</fix>
</trkpt>
<trkpt lat="33.8100262" lon="-118.3941909">
  <ele>-32.605</ele>
  <time>2026-09-02T22:11:42Z</time>
  <course>323.43</course>
  <speed>1.0080178569846865</speed>
  <fix>3d</fix>
</trkpt>
<trkpt lat="33.8100253" lon="-118.3941898">
  <ele>-31.76</ele>
  <time>2026-09-02T22:11:42Z</time>
  <course>324.83</course>
  <speed>0.99</speed>
  <fix>3d</fix>
</trkpt>
<trkpt lat="33.810027" lon="-118.3941915">
  <ele>-32.626</ele>
  <time>2026-09-02T22:11:42Z</time>
  <course>323.42</course>
  <speed>1.0080178569846865</speed>
  <fix>3d</fix>
</trkpt>
<trkpt lat="33.8100253" lon="-118.3941898">
  <ele>-31.76</ele>
  <time>2026-09-02T22:11:42Z</time>
  <course>324.83</course>
  <speed>0.99</speed>
  <fix>3d</fix>
</trkpt>
<trkpt lat="33.8100277" lon="-118.3941922">
  <ele>-32.648</ele>
  <time>2026-09-02T22:11:42Z</time>
  <course>323.4</course>
  <speed>1.0080178569846865</speed>
  <fix>3d</fix>
</trkpt>
<trkpt lat="33.8100267" lon="-118.394191">
  <ele>-31.8</ele>
  <time>2026-09-02T22:11:42Z</time>
  <course>324.82</course>
  <speed>0.99</speed>
  <fix>3d</fix>
</trkpt>
<trkpt lat="33.8100284" lon="-118.3941928">
  <ele>-32.67</ele>
  <time>2026-09-02T22:11:42Z</time>
  <course>323.39</course>
  <speed>1.0080178569846865</speed>
  <fix>3d</fix>
</trkpt>
<trkpt lat="33.8100267" lon="-118.394191">
  <ele>-31.8</ele>
  <time>2026-09-02T22:11:42Z</time>
  <course>324.82</course>
  <speed>0.99</speed>
  <fix>3d</fix>
</trkpt>
<trkpt lat="33.8100292" lon="-118.3941934">
  <ele>-32.692</ele>
  <time>2026-09-02T22:11:42Z</time>
  <course>323.38</course>
  <speed>1.0080178569846865</speed>
  <fix>3d</fix>
</trkpt>
<trkpt lat="33.8100282" lon="-118.3941922">
  <ele>-31.84</ele>
  <time>2026-09-02T22:11:42Z</time>
  <course>324.83</course>
  <speed>0.99</speed>
  <fix>3d</fix>
</trkpt>
<trkpt lat="33.8100299" lon="-118.394194">
  <ele>-32.713</ele>
  <time>2026-09-02T22:11:42Z</time>
  <course>323.37</course>
  <speed>1.0140019723846694</speed>
  <fix>3d</fix>
</trkpt>
<trkpt lat="33.8100282" lon="-118.3941922">
  <ele>-31.84</ele>
  <time>2026-09-02T22:11:42Z</time>
  <course>324.83</course>
  <speed>0.99</speed>
  <fix>3d</fix>
</trkpt>
<trkpt lat="33.8100306" lon="-118.3941946">
  <ele>-32.734</ele>
  <time>2026-09-02T22:11:42Z</time>
  <course>323.35</course>
  <speed>1.0080178569846865</speed>
  <fix>3d</fix>
</trkpt>
<trkpt lat="33.8100297" lon="-118.3941935">
  <ele>-31.88</ele>
  <time>2026-09-02T22:11:42Z</time>
  <course>324.8</course>
  <speed>0.99</speed>
  <fix>3d</fix>
</trkpt>
<trkpt lat="33.8100314" lon="-118.3941953">
  <ele>-32.754</ele>
  <time>2026-09-02T22:11:42Z</time>
  <course>323.33</course>
  <speed>1.0140019723846694</speed>
  <fix>3d</fix>
</trkpt>
<trkpt lat="33.8100297" lon="-118.3941935">
  <ele>-31.88</ele>
  <time>2026-09-02T22:11:42Z</time>
  <course>324.8</course>
  <speed>0.99</speed>
  <fix>3d</fix>
</trkpt>
<trkpt lat="33.8100321" lon="-118.3941959">
  <ele>-32.776</ele>
  <time>2026-09-02T22:11:42Z</time>
  <course>323.31</course>
  <speed>1.0140019723846694</speed>
  <fix>3d</fix>
</trkpt>
<trkpt lat="33.8100311" lon="-118.3941947">
  <ele>-31.92</ele>
  <time>2026-09-02T22:11:42Z</time>
  <course>324.76</course>
  <speed>0.99</speed>
  <fix>3d</fix>
</trkpt>
<trkpt lat="33.8100328" lon="-118.3941965">
  <ele>-32.798</ele>
  <time>2026-09-02T22:11:42Z</time>
  <course>323.3</course>
  <speed>1.0140019723846694</speed>
  <fix>3d</fix>
</trkpt>
<trkpt lat="33.8100311" lon="-118.3941947">
  <ele>-31.92</ele>
  <time>2026-09-02T22:11:42Z</time>
  <course>324.76</course>
  <speed>0.99</speed>
  <fix>3d</fix>
</trkpt>
<trkpt lat="33.8100336" lon="-118.3941971">
  <ele>-32.82</ele>
  <time>2026-09-02T22:11:42Z</time>
  <course>323.28</course>
  <speed>1.0140019723846694</speed>
  <fix>3d</fix>
</trkpt>
<trkpt lat="33.8100326" lon="-118.394196">
  <ele>-31.96</ele>
  <time>2026-09-02T22:11:42Z</time>
  <course>324.74</course>
  <speed>0.99</speed>
  <fix>3d</fix>
</trkpt>
<trkpt lat="33.8100343" lon="-118.3941978">
  <ele>-32.841</ele>
  <time>2026-09-02T22:11:42Z</time>
  <course>323.28</course>
  <speed>1.0140019723846694</speed>
  <fix>3d</fix>
</trkpt>
<trkpt lat="33.8100326" lon="-118.394196">
  <ele>-31.96</ele>
  <time>2026-09-02T22:11:42Z</time>
  <course>324.74</course>
  <speed>0.99</speed>
  <fix>3d</fix>
</trkpt>
<trkpt lat="33.810035" lon="-118.3941984">
  <ele>-32.862</ele>
  <time>2026-09-02T22:11:42Z</time>
  <course>323.28</course>
  <speed>1.0140019723846694</speed>
  <fix>3d</fix>
</trkpt>
<trkpt lat="33.810034" lon="-118.3941972">
  <ele>-32.0</ele>
  <time>2026-09-02T22:11:42Z</time>
  <course>324.74</course>
  <speed>0.99</speed>
  <fix>3d</fix>
</trkpt>
<trkpt lat="33.8100358" lon="-118.394199">
  <ele>-32.883</ele>
  <time>2026-09-02T22:11:42Z</time>
  <course>323.29</course>
  <speed>1.0140019723846694</speed>
  <fix>3d</fix>
</trkpt>
<trkpt lat="33.810034" lon="-118.3941972">
  <ele>-32.0</ele>
  <time>2026-09-02T22:11:42Z</time>
  <course>324.74</course>
  <speed>0.99</speed>
  <fix>3d</fix>
</trkpt>
<trkpt lat="33.8100365" lon="-118.3941996">
  <ele>-32.903</ele>
  <time>2026-09-02T22:11:42Z</time>
  <course>323.29</course>
  <speed>1.0220078277586722</speed>
  <fix>3d</fix>
</trkpt>
<trkpt lat="33.8100355" lon="-118.3941984">
  <ele>-32.05</ele>
  <time>2026-09-02T22:11:42Z</time>
  <course>324.76</course>
  <speed>0.99</speed>
  <fix>3d</fix>
</trkpt>
<trkpt lat="33.8100372" lon="-118.3942003">
  <ele>-32.925</ele>
  <time>2026-09-02T22:11:42Z</time>
  <course>323.31</course>
  <speed>1.0220078277586722</speed>
  <fix>3d</fix>
</trkpt>
<trkpt lat="33.8100355" lon="-118.3941984">
  <ele>-32.05</ele>
  <time>2026-09-02T22:11:42Z</time>
  <course>324.76</course>
  <speed>0.99</speed>
  <fix>3d</fix>
</trkpt>
<trkpt lat="33.810038" lon="-118.3942009">
  <ele>-32.948</ele>
  <time>2026-09-02T22:11:42Z</time>
  <course>323.3</course>
  <speed>1.0220078277586722</speed>
  <fix>3d</fix>
</trkpt>
<trkpt lat="33.810037" lon="-118.3941997">
  <ele>-32.09</ele>
  <time>2026-09-02T22:11:42Z</time>
  <course>324.74</course>
  <speed>0.99</speed>
  <fix>3d</fix>
</trkpt>
<trkpt lat="33.8100387" lon="-118.3942015">
  <ele>-32.971</ele>
  <time>2026-09-02T22:11:42Z</time>
  <course>323.3</course>
  <speed>1.0220078277586722</speed>
  <fix>3d</fix>
</trkpt>
<trkpt lat="33.810037" lon="-118.3941997">
  <ele>-32.09</ele>
  <time>2026-09-02T22:11:42Z</time>
  <course>324.74</course>
  <speed>0.99</speed>
  <fix>3d</fix>
</trkpt>
<trkpt lat="33.8100394" lon="-118.3942021">
  <ele>-32.994</ele>
  <time>2026-09-02T22:11:42Z</time>
  <course>323.28</course>
  <speed>1.0140019723846694</speed>
  <fix>3d</fix>
</trkpt>
<trkpt lat="33.8100385" lon="-118.3942009">
  <ele>-32.14</ele>
  <time>2026-09-02T22:11:42Z</time>
  <course>324.71</course>
  <speed>0.99</speed>
  <fix>3d</fix>
</trkpt>
<trkpt lat="33.8100402" lon="-118.3942027">
  <ele>-33.017</ele>
  <time>2026-09-02T22:11:42Z</time>
  <course>323.27</course>
  <speed>1.0140019723846694</speed>
  <fix>3d</fix>
</trkpt>
<trkpt lat="33.8100385" lon="-118.3942009">
  <ele>-32.14</ele>
  <time>2026-09-02T22:11:42Z</time>
  <course>324.71</course>
  <speed>0.99</speed>
  <fix>3d</fix>
</trkpt>
<trkpt lat="33.8100409" lon="-118.3942034">
  <ele>-33.041</ele>
  <time>2026-09-02T22:11:42Z</time>
  <course>323.25</course>
  <speed>1.0140019723846694</speed>
  <fix>3d</fix>
</trkpt>
<trkpt lat="33.8100399" lon="-118.3942022">
  <ele>-32.18</ele>
  <time>2026-09-02T22:11:42Z</time>
  <course>324.67</course>
  <speed>0.99</speed>
  <fix>3d</fix>
</trkpt>
<trkpt lat="33.8100416" lon="-118.394204">
  <ele>-33.063</ele>
  <time>2026-09-02T22:11:42Z</time>
  <course>323.23</course>
  <speed>1.0140019723846694</speed>
  <fix>3d</fix>
</trkpt>
<trkpt lat="33.8100399" lon="-118.3942022">
  <ele>-32.18</ele>
  <time>2026-09-02T22:11:42Z</time>
  <course>324.67</course>
  <speed>0.99</speed>
  <fix>3d</fix>
</trkpt>
<trkpt lat="33.8100424" lon="-118.3942046">
  <ele>-33.086</ele>
  <time>2026-09-02T22:11:42Z</time>
  <course>323.23</course>
  <speed>1.0140019723846694</speed>
  <fix>3d</fix>
</trkpt>
<trkpt lat="33.8100414" lon="-118.3942035">
  <ele>-32.23</ele>
  <time>2026-09-02T22:11:42Z</time>
  <course>324.66</course>
  <speed>0.99</speed>
  <fix>3d</fix>
</trkpt>
<trkpt lat="33.8100431" lon="-118.3942052">
  <ele>-33.11</ele>
  <time>2026-09-02T22:11:42Z</time>
  <course>323.24</course>
  <speed>1.0140019723846694</speed>
  <fix>3d</fix>
</trkpt>
<trkpt lat="33.8100414" lon="-118.3942035">
  <ele>-32.23</ele>
  <time>2026-09-02T22:11:42Z</time>
  <course>324.66</course>
  <speed>0.99</speed>
  <fix>3d</fix>
</trkpt>
<trkpt lat="33.8100438" lon="-118.3942059">
  <ele>-33.133</ele>
  <time>2026-09-02T22:11:42Z</time>
  <course>323.25</course>
  <speed>1.0140019723846694</speed>
  <fix>3d</fix>
</trkpt>
<trkpt lat="33.8100429" lon="-118.3942047">
  <ele>-32.27</ele>
  <time>2026-09-02T22:11:42Z</time>
  <course>324.7</course>
  <speed>0.99</speed>
  <fix>3d</fix>
</trkpt>
<trkpt lat="33.8100446" lon="-118.3942065">
  <ele>-33.157</ele>
  <time>2026-09-02T22:11:42Z</time>
  <course>323.27</course>
  <speed>1.0140019723846694</speed>
  <fix>3d</fix>
</trkpt>
<trkpt lat="33.8100429" lon="-118.3942047">
  <ele>-32.27</ele>
  <time>2026-09-02T22:11:42Z</time>
  <course>324.7</course>
  <speed>0.99</speed>
  <fix>3d</fix>
</trkpt>
<trkpt lat="33.8100453" lon="-118.3942071">
  <ele>-33.18</ele>
  <time>2026-09-02T22:11:42Z</time>
  <course>323.29</course>
  <speed>1.0140019723846694</speed>
  <fix>3d</fix>
</trkpt>
<trkpt lat="33.8100443" lon="-118.394206">
  <ele>-32.32</ele>
  <time>2026-09-02T22:11:42Z</time>
  <course>324.71</course>
  <speed>0.99</speed>
  <fix>3d</fix>
</trkpt>
<trkpt lat="33.810046" lon="-118.3942077">
  <ele>-33.204</ele>
  <time>2026-09-02T22:11:42Z</time>
  <course>323.3</course>
  <speed>1.0140019723846694</speed>
  <fix>3d</fix>
</trkpt>
<trkpt lat="33.8100443" lon="-118.394206">
  <ele>-32.32</ele>
  <time>2026-09-02T22:11:42Z</time>
  <course>324.71</course>
  <speed>0.99</speed>
  <fix>3d</fix>
</trkpt>
<trkpt lat="33.8100468" lon="-118.3942084">
  <ele>-33.226</ele>
  <time>2026-09-02T22:11:42Z</time>
  <course>323.32</course>
  <speed>1.0080178569846865</speed>
  <fix>3d</fix>
</trkpt>
<trkpt lat="33.8100458" lon="-118.3942071">
  <ele>-32.36</ele>
  <time>2026-09-02T22:11:42Z</time>
  <course>324.73</course>
  <speed>0.99</speed>
  <fix>3d</fix>
</trkpt>
<trkpt lat="33.8100475" lon="-118.394209">
  <ele>-33.248</ele>
  <time>2026-09-02T22:11:42Z</time>
  <course>323.34</course>
  <speed>1.0140019723846694</speed>
  <fix>3d</fix>
</trkpt>
<trkpt lat="33.8100458" lon="-118.3942071">
  <ele>-32.36</ele>
  <time>2026-09-02T22:11:42Z</time>
  <course>324.73</course>
  <speed>0.99</speed>
  <fix>3d</fix>
</trkpt>
<trkpt lat="33.8100482" lon="-118.3942096">
  <ele>-33.269</ele>
  <time>2026-09-02T22:11:42Z</time>
  <course>323.33</course>
  <speed>1.0140019723846694</speed>
  <fix>3d</fix>
</trkpt>
<trkpt lat="33.8100472" lon="-118.3942084">
  <ele>-32.4</ele>
  <time>2026-09-02T22:11:42Z</time>
  <course>324.73</course>
  <speed>0.99</speed>
  <fix>3d</fix>
</trkpt>
<trkpt lat="33.810049" lon="-118.3942102">
  <ele>-33.289</ele>
  <time>2026-09-02T22:11:42Z</time>
  <course>323.33</course>
  <speed>1.0220078277586722</speed>
  <fix>3d</fix>
</trkpt>
<trkpt lat="33.8100472" lon="-118.3942084">
  <ele>-32.4</ele>
  <time>2026-09-02T22:11:42Z</time>
  <course>324.73</course>
  <speed>0.99</speed>
  <fix>3d</fix>
</trkpt>
<trkpt lat="33.8100497" lon="-118.3942108">
  <ele>-33.308</ele>
  <time>2026-09-02T22:11:42Z</time>
  <course>323.32</course>
  <speed>1.0220078277586722</speed>
  <fix>3d</fix>
</trkpt>
<trkpt lat="33.8100487" lon="-118.3942097">
  <ele>-32.45</ele>
  <time>2026-09-02T22:11:42Z</time>
  <course>324.71</course>
  <speed>0.99</speed>
  <fix>3d</fix>
</trkpt>
<trkpt lat="33.8100504" lon="-118.3942115">
  <ele>-33.326</ele>
  <time>2026-09-02T22:11:42Z</time>
  <course>323.33</course>
  <speed>1.0220078277586722</speed>
  <fix>3d</fix>
</trkpt>
<trkpt lat="33.8100487" lon="-118.3942097">
  <ele>-32.45</ele>
  <time>2026-09-02T22:11:42Z</time>
  <course>324.71</course>
  <speed>0.99</speed>
  <fix>3d</fix>
</trkpt>
<trkpt lat="33.8100512" lon="-118.3942121">
  <ele>-33.345</ele>
  <time>2026-09-02T22:11:42Z</time>
  <course>323.34</course>
  <speed>1.0220078277586722</speed>
  <fix>3d</fix>
</trkpt>
<trkpt lat="33.8100502" lon="-118.3942109">
  <ele>-32.48</ele>
  <time>2026-09-02T22:11:42Z</time>
  <course>324.74</course>
  <speed>0.99</speed>
  <fix>3d</fix>
</trkpt>
<trkpt lat="33.8100519" lon="-118.3942127">
  <ele>-33.365</ele>
  <time>2026-09-02T22:11:42Z</time>
  <course>323.35</course>
  <speed>1.0220078277586722</speed>
  <fix>3d</fix>
</trkpt>
<trkpt lat="33.8100502" lon="-118.3942109">
  <ele>-32.48</ele>
  <time>2026-09-02T22:11:42Z</time>
  <course>324.74</course>
  <speed>0.99</speed>
  <fix>3d</fix>
</trkpt>
<trkpt lat="33.8100526" lon="-118.3942133">
  <ele>-33.385</ele>
  <time>2026-09-02T22:11:42Z</time>
  <course>323.34</course>
  <speed>1.0220078277586722</speed>
  <fix>3d</fix>
</trkpt>
<trkpt lat="33.8100516" lon="-118.3942122">
  <ele>-32.52</ele>
  <time>2026-09-02T22:11:42Z</time>
  <course>324.75</course>
  <speed>0.99</speed>
  <fix>3d</fix>
</trkpt>
<trkpt lat="33.8100534" lon="-118.394214">
  <ele>-33.405</ele>
  <time>2026-09-02T22:11:42Z</time>
  <course>323.35</course>
  <speed>1.0220078277586722</speed>
  <fix>3d</fix>
</trkpt>
<trkpt lat="33.8100516" lon="-118.3942122">
  <ele>-32.52</ele>
  <time>2026-09-02T22:11:42Z</time>
  <course>324.75</course>
  <speed>0.99</speed>
  <fix>3d</fix>
</trkpt>
<trkpt lat="33.8100541" lon="-118.3942146">
  <ele>-33.425</ele>
  <time>2026-09-02T22:11:42Z</time>
  <course>323.36</course>
  <speed>1.0220078277586722</speed>
  <fix>3d</fix>
</trkpt>
<trkpt lat="33.8100531" lon="-118.3942134">
  <ele>-32.57</ele>
  <time>2026-09-02T22:11:42Z</time>
  <course>324.77</course>
  <speed>0.99</speed>
  <fix>3d</fix>
</trkpt>
<trkpt lat="33.8100548" lon="-118.3942152">
  <ele>-33.446</ele>
  <time>2026-09-02T22:11:42Z</time>
  <course>323.38</course>
  <speed>1.0220078277586722</speed>
  <fix>3d</fix>
</trkpt>
<trkpt lat="33.8100531" lon="-118.3942134">
  <ele>-32.57</ele>
  <time>2026-09-02T22:11:42Z</time>
  <course>324.77</course>
  <speed>0.99</speed>
  <fix>3d</fix>
</trkpt>
<trkpt lat="33.8100556" lon="-118.3942158">
  <ele>-33.468</ele>
  <time>2026-09-02T22:11:42Z</time>
  <course>323.39</course>
  <speed>1.0220078277586722</speed>
  <fix>3d</fix>
</trkpt>
<trkpt lat="33.8100546" lon="-118.3942147">
  <ele>-32.61</ele>
  <time>2026-09-02T22:11:42Z</time>
  <course>324.8</course>
  <speed>0.99</speed>
  <fix>3d</fix>
</trkpt>
<trkpt lat="33.8100563" lon="-118.3942165">
  <ele>-33.49</ele>
  <time>2026-09-02T22:11:42Z</time>
  <course>323.4</course>
  <speed>1.0220078277586722</speed>
  <fix>3d</fix>
</trkpt>
<trkpt lat="33.8100546" lon="-118.3942147">
  <ele>-32.61</ele>
  <time>2026-09-02T22:11:42Z</time>
  <course>324.8</course>
  <speed>0.99</speed>
  <fix>3d</fix>
</trkpt>
<trkpt lat="33.810057" lon="-118.3942171">
  <ele>-33.513</ele>
  <time>2026-09-02T22:11:42Z</time>
  <course>323.4</course>
  <speed>1.0220078277586722</speed>
  <fix>3d</fix>
</trkpt>
<trkpt lat="33.810056" lon="-118.3942159">
  <ele>-32.66</ele>
  <time>2026-09-02T22:11:42Z</time>
  <course>324.81</course>
  <speed>0.99</speed>
  <fix>3d</fix>
</trkpt>
<trkpt lat="33.8100578" lon="-118.3942177">
  <ele>-33.537</ele>
  <time>2026-09-02T22:11:42Z</time>
  <course>323.41</course>
  <speed>1.0220078277586722</speed>
  <fix>3d</fix>
</trkpt>
<trkpt lat="33.810056" lon="-118.3942159">
  <ele>-32.66</ele>
  <time>2026-09-02T22:11:42Z</time>
  <course>324.81</course>
  <speed>0.99</speed>
  <fix>3d</fix>
</trkpt>
<trkpt lat="33.8100585" lon="-118.3942183">
  <ele>-33.56</ele>
  <time>2026-09-02T22:11:42Z</time>
  <course>323.42</course>
  <speed>1.0220078277586722</speed>
  <fix>3d</fix>
</trkpt>
<trkpt lat="33.8100575" lon="-118.3942171">
  <ele>-32.7</ele>
  <time>2026-09-02T22:11:42Z</time>
  <course>324.82</course>
  <speed>0.99</speed>
  <fix>3d</fix>
</trkpt>
<trkpt lat="33.8100592" lon="-118.394219">
  <ele>-33.583</ele>
  <time>2026-09-02T22:11:42Z</time>
  <course>323.42</course>
  <speed>1.0220078277586722</speed>
  <fix>3d</fix>
</trkpt>
<trkpt lat="33.8100575" lon="-118.3942171">
  <ele>-32.7</ele>
  <time>2026-09-02T22:11:42Z</time>
  <course>324.82</course>
  <speed>0.99</speed>
  <fix>3d</fix>
</trkpt>
<trkpt lat="33.81006" lon="-118.3942196">
  <ele>-33.606</ele>
  <time>2026-09-02T22:11:42Z</time>
  <course>323.41</course>
  <speed>1.0220078277586722</speed>
  <fix>3d</fix>
</trkpt>
<trkpt lat="33.8100589" lon="-118.3942184">
  <ele>-32.75</ele>
  <time>2026-09-02T22:11:42Z</time>
  <course>324.82</course>
  <speed>0.99</speed>
  <fix>3d</fix>
</trkpt>
<trkpt lat="33.8100607" lon="-118.3942202">
  <ele>-33.63</ele>
  <time>2026-09-02T22:11:42Z</time>
  <course>323.41</course>
  <speed>1.0220078277586722</speed>
  <fix>3d</fix>
</trkpt>
<trkpt lat="33.8100589" lon="-118.3942184">
  <ele>-32.75</ele>
  <time>2026-09-02T22:11:42Z</time>
  <course>324.82</course>
  <speed>0.99</speed>
  <fix>3d</fix>
</trkpt>
<trkpt lat="33.8100614" lon="-118.3942208">
  <ele>-33.654</ele>
  <time>2026-09-02T22:11:42Z</time>
  <course>323.41</course>
  <speed>1.0220078277586722</speed>
  <fix>3d</fix>
</trkpt>
<trkpt lat="33.8100604" lon="-118.3942196">
  <ele>-32.79</ele>
  <time>2026-09-02T22:11:42Z</time>
  <course>324.82</course>
  <speed>0.99</speed>
  <fix>3d</fix>
</trkpt>
<trkpt lat="33.8100622" lon="-118.3942215">
  <ele>-33.677</ele>
  <time>2026-09-02T22:11:42Z</time>
  <course>323.42</course>
  <speed>1.0220078277586722</speed>
  <fix>3d</fix>
</trkpt>
<trkpt lat="33.8100604" lon="-118.3942196">
  <ele>-32.79</ele>
  <time>2026-09-02T22:11:42Z</time>
  <course>324.82</course>
  <speed>0.99</speed>
  <fix>3d</fix>
</trkpt>
<trkpt lat="33.8100629" lon="-118.3942221">
  <ele>-33.699</ele>
  <time>2026-09-02T22:11:42Z</time>
  <course>323.43</course>
  <speed>1.0220078277586722</speed>
  <fix>3d</fix>
</trkpt>
<trkpt lat="33.8100619" lon="-118.3942209">
  <ele>-32.84</ele>
  <time>2026-09-02T22:11:42Z</time>
  <course>324.83</course>
  <speed>0.99</speed>
  <fix>3d</fix>
</trkpt>
<trkpt lat="33.8100636" lon="-118.3942227">
  <ele>-33.721</ele>
  <time>2026-09-02T22:11:42Z</time>
  <course>323.44</course>
  <speed>1.0220078277586722</speed>
  <fix>3d</fix>
</trkpt>
<trkpt lat="33.8100619" lon="-118.3942209">
  <ele>-32.84</ele>
  <time>2026-09-02T22:11:42Z</time>
  <course>324.83</course>
  <speed>0.99</speed>
  <fix>3d</fix>
</trkpt>
<trkpt lat="33.8100644" lon="-118.3942233">
  <ele>-33.742</ele>
  <time>2026-09-02T22:11:42Z</time>
  <course>323.44</course>
  <speed>1.0220078277586722</speed>
  <fix>3d</fix>
</trkpt>
<trkpt lat="33.8100633" lon="-118.3942221">
  <ele>-32.88</ele>
  <time>2026-09-02T22:11:42Z</time>
  <course>324.83</course>
  <speed>0.99</speed>
  <fix>3d</fix>
</trkpt>
<trkpt lat="33.8100651" lon="-118.3942239">
  <ele>-33.763</ele>
  <time>2026-09-02T22:11:42Z</time>
  <course>323.44</course>
  <speed>1.0220078277586722</speed>
  <fix>3d</fix>
</trkpt>
<trkpt lat="33.8100633" lon="-118.3942221">
  <ele>-32.88</ele>
  <time>2026-09-02T22:11:42Z</time>
  <course>324.83</course>
  <speed>0.99</speed>
  <fix>3d</fix>
</trkpt>
<trkpt lat="33.8100658" lon="-118.3942246">
  <ele>-33.784</ele>
  <time>2026-09-02T22:11:42Z</time>
  <course>323.45</course>
  <speed>1.0220078277586722</speed>
  <fix>3d</fix>
</trkpt>
<trkpt lat="33.8100648" lon="-118.3942233">
  <ele>-32.92</ele>
  <time>2026-09-02T22:11:42Z</time>
  <course>324.85</course>
  <speed>0.99</speed>
  <fix>3d</fix>
</trkpt>
<trkpt lat="33.8100666" lon="-118.3942252">
  <ele>-33.805</ele>
  <time>2026-09-02T22:11:42Z</time>
  <course>323.45</course>
  <speed>1.0220078277586722</speed>
  <fix>3d</fix>
</trkpt>
<trkpt lat="33.8100648" lon="-118.3942233">
  <ele>-32.92</ele>
  <time>2026-09-02T22:11:42Z</time>
  <course>324.85</course>
  <speed>0.99</speed>
  <fix>3d</fix>
</trkpt>
<trkpt lat="33.8100673" lon="-118.3942258">
  <ele>-33.826</ele>
  <time>2026-09-02T22:11:42Z</time>
  <course>323.45</course>
  <speed>1.0220078277586722</speed>
  <fix>3d</fix>
</trkpt>
<trkpt lat="33.8100663" lon="-118.3942246">
  <ele>-32.96</ele>
  <time>2026-09-02T22:11:42Z</time>
  <course>324.83</course>
  <speed>0.99</speed>
  <fix>3d</fix>
</trkpt>
<trkpt lat="33.8100681" lon="-118.3942264">
  <ele>-33.847</ele>
  <time>2026-09-02T22:11:42Z</time>
  <course>323.44</course>
  <speed>1.0220078277586722</speed>
  <fix>3d</fix>
</trkpt>
<trkpt lat="33.8100663" lon="-118.3942246">
  <ele>-32.96</ele>
  <time>2026-09-02T22:11:42Z</time>
  <course>324.83</course>
  <speed>0.99</speed>
  <fix>3d</fix>
</trkpt>
<trkpt lat="33.8100688" lon="-118.3942271">
  <ele>-33.868</ele>
  <time>2026-09-02T22:11:42Z</time>
  <course>323.42</course>
  <speed>1.0220078277586722</speed>
  <fix>3d</fix>
</trkpt>
<trkpt lat="33.8100677" lon="-118.3942258">
  <ele>-33.01</ele>
  <time>2026-09-02T22:11:42Z</time>
  <course>324.81</course>
  <speed>1.0</speed>
  <fix>3d</fix>
</trkpt>
<trkpt lat="33.8100695" lon="-118.3942277">
  <ele>-33.889</ele>
  <time>2026-09-02T22:11:42Z</time>
  <course>323.41</course>
  <speed>1.0220078277586722</speed>
  <fix>3d</fix>
</trkpt>
<trkpt lat="33.8100677" lon="-118.3942258">
  <ele>-33.01</ele>
  <time>2026-09-02T22:11:42Z</time>
  <course>324.81</course>
  <speed>1.0</speed>
  <fix>3d</fix>
</trkpt>
<trkpt lat="33.8100703" lon="-118.3942283">
  <ele>-33.91</ele>
  <time>2026-09-02T22:11:42Z</time>
  <course>323.4</course>
  <speed>1.0220078277586722</speed>
  <fix>3d</fix>
</trkpt>
<trkpt lat="33.8100692" lon="-118.3942271">
  <ele>-33.05</ele>
  <time>2026-09-02T22:11:42Z</time>
  <course>324.81</course>
  <speed>1.0</speed>
  <fix>3d</fix>
</trkpt>
<trkpt lat="33.810071" lon="-118.3942289">
  <ele>-33.931</ele>
  <time>2026-09-02T22:11:42Z</time>
  <course>323.4</course>
  <speed>1.0220078277586722</speed>
  <fix>3d</fix>
</trkpt>
<trkpt lat="33.8100692" lon="-118.3942271">
  <ele>-33.05</ele>
  <time>2026-09-02T22:11:42Z</time>
  <course>324.81</course>
  <speed>1.0</speed>
  <fix>3d</fix>
</trkpt>
<trkpt lat="33.8100717" lon="-118.3942295">
  <ele>-33.953</ele>
  <time>2026-09-02T22:11:42Z</time>
  <course>323.4</course>
  <speed>1.0220078277586722</speed>
  <fix>3d</fix>
</trkpt>
<trkpt lat="33.8100707" lon="-118.3942283">
  <ele>-33.09</ele>
  <time>2026-09-02T22:11:42Z</time>
  <course>324.83</course>
  <speed>1.0</speed>
  <fix>3d</fix>
</trkpt>
<trkpt lat="33.8100725" lon="-118.3942302">
  <ele>-33.974</ele>
  <time>2026-09-02T22:11:42Z</time>
  <course>323.4</course>
  <speed>1.0220078277586722</speed>
  <fix>3d</fix>
</trkpt>
<trkpt lat="33.8100707" lon="-118.3942283">
  <ele>-33.09</ele>
  <time>2026-09-02T22:11:42Z</time>
  <course>324.83</course>
  <speed>1.0</speed>
  <fix>3d</fix>
</trkpt>
<trkpt lat="33.8100732" lon="-118.3942308">
  <ele>-33.997</ele>
  <time>2026-09-02T22:11:42Z</time>
  <course>323.39</course>
  <speed>1.0220078277586722</speed>
  <fix>3d</fix>
</trkpt>
<trkpt lat="33.8100722" lon="-118.3942296">
  <ele>-33.13</ele>
  <time>2026-09-02T22:11:42Z</time>
  <course>324.83</course>
  <speed>1.0</speed>
  <fix>3d</fix>
</trkpt>
<trkpt lat="33.8100739" lon="-118.3942314">
  <ele>-34.02</ele>
  <time>2026-09-02T22:11:42Z</time>
  <course>323.38</course>
  <speed>1.0220078277586722</speed>
  <fix>3d</fix>
</trkpt>
<trkpt lat="33.8100722" lon="-118.3942296">
  <ele>-33.13</ele>
  <time>2026-09-02T22:11:42Z</time>
  <course>324.83</course>
  <speed>1.0</speed>
  <fix>3d</fix>
</trkpt>
<trkpt lat="33.8100747" lon="-118.394232">
  <ele>-34.044</ele>
  <time>2026-09-02T22:11:42Z</time>
  <course>323.36</course>
  <speed>1.0220078277586722</speed>
  <fix>3d</fix>
</trkpt>
<trkpt lat="33.8100736" lon="-118.3942308">
  <ele>-33.17</ele>
  <time>2026-09-02T22:11:42Z</time>
  <course>324.8</course>
  <speed>1.0</speed>
  <fix>3d</fix>
</trkpt>
<trkpt lat="33.8100754" lon="-118.3942327">
  <ele>-34.067</ele>
  <time>2026-09-02T22:11:42Z</time>
  <course>323.35</course>
  <speed>1.0220078277586722</speed>
  <fix>3d</fix>
</trkpt>
<trkpt lat="33.8100736" lon="-118.3942308">
  <ele>-33.17</ele>
  <time>2026-09-02T22:11:42Z</time>
  <course>324.8</course>
  <speed>1.0</speed>
  <fix>3d</fix>
</trkpt>
<trkpt lat="33.8100761" lon="-118.3942333">
  <ele>-34.091</ele>
  <time>2026-09-02T22:11:42Z</time>
  <course>323.34</course>
  <speed>1.0220078277586722</speed>
  <fix>3d</fix>
</trkpt>
<trkpt lat="33.8100751" lon="-118.394232">
  <ele>-33.22</ele>
  <time>2026-09-02T22:11:42Z</time>
  <course>324.79</course>
  <speed>1.0</speed>
  <fix>3d</fix>
</trkpt>
<trkpt lat="33.8100769" lon="-118.3942339">
  <ele>-34.114</ele>
  <time>2026-09-02T22:11:42Z</time>
  <course>323.34</course>
  <speed>1.0220078277586722</speed>
  <fix>3d</fix>
</trkpt>
<trkpt lat="33.8100751" lon="-118.394232">
  <ele>-33.22</ele>
  <time>2026-09-02T22:11:42Z</time>
  <course>324.79</course>
  <speed>1.0</speed>
  <fix>3d</fix>
</trkpt>
<trkpt lat="33.8100776" lon="-118.3942345">
  <ele>-34.138</ele>
  <time>2026-09-02T22:11:42Z</time>
  <course>323.32</course>
  <speed>1.0220078277586722</speed>
  <fix>3d</fix>
</trkpt>
<trkpt lat="33.8100766" lon="-118.3942333">
  <ele>-33.26</ele>
  <time>2026-09-02T22:11:42Z</time>
  <course>324.77</course>
  <speed>1.0</speed>
  <fix>3d</fix>
</trkpt>
<trkpt lat="33.8100783" lon="-118.3942352">
  <ele>-34.16</ele>
  <time>2026-09-02T22:11:42Z</time>
  <course>323.3</course>
  <speed>1.0220078277586722</speed>
  <fix>3d</fix>
</trkpt>
<trkpt lat="33.8100766" lon="-118.3942333">
  <ele>-33.26</ele>
  <time>2026-09-02T22:11:42Z</time>
  <course>324.77</course>
  <speed>1.0</speed>
  <fix>3d</fix>
</trkpt>
<trkpt lat="33.8100791" lon="-118.3942358">
  <ele>-34.181</ele>
  <time>2026-09-02T22:11:42Z</time>
  <course>323.28</course>
  <speed>1.0220078277586722</speed>
  <fix>3d</fix>
</trkpt>
<trkpt lat="33.810078" lon="-118.3942346">
  <ele>-33.31</ele>
  <time>2026-09-02T22:11:42Z</time>
  <course>324.73</course>
  <speed>1.0</speed>
  <fix>3d</fix>
</trkpt>
<trkpt lat="33.8100798" lon="-118.3942364">
  <ele>-34.202</ele>
  <time>2026-09-02T22:11:42Z</time>
  <course>323.27</course>
  <speed>1.0220078277586722</speed>
  <fix>3d</fix>
</trkpt>
<trkpt lat="33.810078" lon="-118.3942346">
  <ele>-33.31</ele>
  <time>2026-09-02T22:11:42Z</time>
  <course>324.73</course>
  <speed>1.0</speed>
  <fix>3d</fix>
</trkpt>
<trkpt lat="33.8100805" lon="-118.394237">
  <ele>-34.224</ele>
  <time>2026-09-02T22:11:42Z</time>
  <course>323.27</course>
  <speed>1.0220078277586722</speed>
  <fix>3d</fix>
</trkpt>
<trkpt lat="33.8100795" lon="-118.3942358">
  <ele>-33.35</ele>
  <time>2026-09-02T22:11:42Z</time>
  <course>324.73</course>
  <speed>1.0</speed>
  <fix>3d</fix>
</trkpt>
<trkpt lat="33.8100813" lon="-118.3942377">
  <ele>-34.247</ele>
  <time>2026-09-02T22:11:42Z</time>
  <course>323.29</course>
  <speed>1.0220078277586722</speed>
  <fix>3d</fix>
</trkpt>
<trkpt lat="33.8100795" lon="-118.3942358">
  <ele>-33.35</ele>
  <time>2026-09-02T22:11:42Z</time>
  <course>324.73</course>
  <speed>1.0</speed>
  <fix>3d</fix>
</trkpt>
<trkpt lat="33.810082" lon="-118.3942383">
  <ele>-34.27</ele>
  <time>2026-09-02T22:11:42Z</time>
  <course>323.31</course>
  <speed>1.0220078277586722</speed>
  <fix>3d</fix>
</trkpt>
<trkpt lat="33.8100809" lon="-118.3942371">
  <ele>-33.39</ele>
  <time>2026-09-02T22:11:42Z</time>
  <course>324.77</course>
  <speed>1.0</speed>
  <fix>3d</fix>
</trkpt>
<trkpt lat="33.8100827" lon="-118.3942389">
  <ele>-34.294</ele>
  <time>2026-09-02T22:11:42Z</time>
  <course>323.33</course>
  <speed>1.0220078277586722</speed>
  <fix>3d</fix>
</trkpt>
<trkpt lat="33.8100809" lon="-118.3942371">
  <ele>-33.39</ele>
  <time>2026-09-02T22:11:42Z</time>
  <course>324.77</course>
  <speed>1.0</speed>
  <fix>3d</fix>
</trkpt>
<trkpt lat="33.8100835" lon="-118.3942395">
  <ele>-34.317</ele>
  <time>2026-09-02T22:11:42Z</time>
  <course>323.36</course>
  <speed>1.0220078277586722</speed>
  <fix>3d</fix>
</trkpt>
<trkpt lat="33.8100824" lon="-118.3942383">
  <ele>-33.44</ele>
  <time>2026-09-02T22:11:42Z</time>
  <course>324.83</course>
  <speed>1.0</speed>
  <fix>3d</fix>
</trkpt>
<trkpt lat="33.8100842" lon="-118.3942402">
  <ele>-34.34</ele>
  <time>2026-09-02T22:11:42Z</time>
  <course>323.38</course>
  <speed>1.0220078277586722</speed>
  <fix>3d</fix>
</trkpt>
<trkpt lat="33.8100824" lon="-118.3942383">
  <ele>-33.44</ele>
  <time>2026-09-02T22:11:42Z</time>
  <course>324.83</course>
  <speed>1.0</speed>
  <fix>3d</fix>
</trkpt>
<trkpt lat="33.8100849" lon="-118.3942408">
  <ele>-34.362</ele>
  <time>2026-09-02T22:11:42Z</time>
  <course>323.4</course>
  <speed>1.0220078277586722</speed>
  <fix>3d</fix>
</trkpt>
<trkpt lat="33.8100839" lon="-118.3942396">
  <ele>-33.48</ele>
  <time>2026-09-02T22:11:42Z</time>
  <course>324.9</course>
  <speed>1.0</speed>
  <fix>3d</fix>
</trkpt>
<trkpt lat="33.8100857" lon="-118.3942414">
  <ele>-34.385</ele>
  <time>2026-09-02T22:11:42Z</time>
  <course>323.42</course>
  <speed>1.0220078277586722</speed>
  <fix>3d</fix>
</trkpt>
<trkpt lat="33.8100839" lon="-118.3942396">
  <ele>-33.48</ele>
  <time>2026-09-02T22:11:42Z</time>
  <course>324.9</course>
  <speed>1.0</speed>
  <fix>3d</fix>
</trkpt>
<trkpt lat="33.8100864" lon="-118.394242">
  <ele>-34.407</ele>
  <time>2026-09-02T22:11:42Z</time>
  <course>323.44</course>
  <speed>1.0220078277586722</speed>
  <fix>3d</fix>
</trkpt>
<trkpt lat="33.8100854" lon="-118.3942408">
  <ele>-33.52</ele>
  <time>2026-09-02T22:11:42Z</time>
  <course>324.93</course>
  <speed>1.0</speed>
  <fix>3d</fix>
</trkpt>
<trkpt lat="33.8100871" lon="-118.3942426">
  <ele>-34.43</ele>
  <time>2026-09-02T22:11:42Z</time>
  <course>323.44</course>
  <speed>1.0220078277586722</speed>
  <fix>3d</fix>
</trkpt>
<trkpt lat="33.8100854" lon="-118.3942408">
  <ele>-33.52</ele>
  <time>2026-09-02T22:11:42Z</time>
  <course>324.93</course>
  <speed>1.0</speed>
  <fix>3d</fix>
</trkpt>
<trkpt lat="33.8100879" lon="-118.3942433">
  <ele>-34.453</ele>
  <time>2026-09-02T22:11:42Z</time>
  <course>323.43</course>
  <speed>1.0220078277586722</speed>
  <fix>3d</fix>
</trkpt>
<trkpt lat="33.8100869" lon="-118.394242">
  <ele>-33.56</ele>
  <time>2026-09-02T22:11:42Z</time>
  <course>324.91</course>
  <speed>1.0</speed>
  <fix>3d</fix>
</trkpt>
<trkpt lat="33.8100886" lon="-118.3942439">
  <ele>-34.475</ele>
  <time>2026-09-02T22:11:42Z</time>
  <course>323.41</course>
  <speed>1.0220078277586722</speed>
  <fix>3d</fix>
</trkpt>
<trkpt lat="33.8100869" lon="-118.394242">
  <ele>-33.56</ele>
  <time>2026-09-02T22:11:42Z</time>
  <course>324.91</course>
  <speed>1.0</speed>
  <fix>3d</fix>
</trkpt>
<trkpt lat="33.8100894" lon="-118.3942445">
  <ele>-34.495</ele>
  <time>2026-09-02T22:11:42Z</time>
  <course>323.38</course>
  <speed>1.0220078277586722</speed>
  <fix>3d</fix>
</trkpt>
<trkpt lat="33.8100883" lon="-118.3942433">
  <ele>-33.61</ele>
  <time>2026-09-02T22:11:42Z</time>
  <course>324.84</course>
  <speed>1.0</speed>
  <fix>3d</fix>
</trkpt>
<trkpt lat="33.8100901" lon="-118.3942451">
  <ele>-34.516</ele>
  <time>2026-09-02T22:11:42Z</time>
  <course>323.35</course>
  <speed>1.0220078277586722</speed>
  <fix>3d</fix>
</trkpt>
<trkpt lat="33.8100883" lon="-118.3942433">
  <ele>-33.61</ele>
  <time>2026-09-02T22:11:42Z</time>
  <course>324.84</course>
  <speed>1.0</speed>
  <fix>3d</fix>
</trkpt>
<trkpt lat="33.8100908" lon="-118.3942458">
  <ele>-34.537</ele>
  <time>2026-09-02T22:11:42Z</time>
  <course>323.33</course>
  <speed>1.0220078277586722</speed>
  <fix>3d</fix>
</trkpt>
<trkpt lat="33.8100898" lon="-118.3942446">
  <ele>-33.65</ele>
  <time>2026-09-02T22:11:42Z</time>
  <course>324.79</course>
  <speed>1.0</speed>
  <fix>3d</fix>
</trkpt>
<trkpt lat="33.8100916" lon="-118.3942464">
  <ele>-34.559</ele>
  <time>2026-09-02T22:11:42Z</time>
  <course>323.32</course>
  <speed>1.0220078277586722</speed>
  <fix>3d</fix>
</trkpt>
<trkpt lat="33.8100898" lon="-118.3942446">
  <ele>-33.65</ele>
  <time>2026-09-02T22:11:42Z</time>
  <course>324.79</course>
  <speed>1.0</speed>
  <fix>3d</fix>
</trkpt>
<trkpt lat="33.8100923" lon="-118.394247">
  <ele>-34.58</ele>
  <time>2026-09-02T22:11:42Z</time>
  <course>323.33</course>
  <speed>1.0220078277586722</speed>
  <fix>3d</fix>
</trkpt>
<trkpt lat="33.8100912" lon="-118.3942458">
  <ele>-33.69</ele>
  <time>2026-09-02T22:11:42Z</time>
  <course>324.81</course>
  <speed>0.99</speed>
  <fix>3d</fix>
</trkpt>
<trkpt lat="33.810093" lon="-118.3942476">
  <ele>-34.601</ele>
  <time>2026-09-02T22:11:42Z</time>
  <course>323.34</course>
  <speed>1.0220078277586722</speed>
  <fix>3d</fix>
</trkpt>
<trkpt lat="33.8100912" lon="-118.3942458">
  <ele>-33.69</ele>
  <time>2026-09-02T22:11:42Z</time>
  <course>324.81</course>
  <speed>0.99</speed>
  <fix>3d</fix>
</trkpt>
<trkpt lat="33.8100938" lon="-118.3942483">
  <ele>-34.62</ele>
  <time>2026-09-02T22:11:42Z</time>
  <course>323.36</course>
  <speed>1.0220078277586722</speed>
  <fix>3d</fix>
</trkpt>
<trkpt lat="33.8100927" lon="-118.394247">
  <ele>-33.73</ele>
  <time>2026-09-02T22:11:42Z</time>
  <course>324.86</course>
  <speed>0.99</speed>
  <fix>3d</fix>
</trkpt>
<trkpt lat="33.8100945" lon="-118.3942489">
  <ele>-34.641</ele>
  <time>2026-09-02T22:11:42Z</time>
  <course>323.38</course>
  <speed>1.0220078277586722</speed>
  <fix>3d</fix>
</trkpt>
<trkpt lat="33.8100927" lon="-118.394247">
  <ele>-33.73</ele>
  <time>2026-09-02T22:11:42Z</time>
  <course>324.86</course>
  <speed>0.99</speed>
  <fix>3d</fix>
</trkpt>
<trkpt lat="33.8100952" lon="-118.3942495">
  <ele>-34.663</ele>
  <time>2026-09-02T22:11:42Z</time>
  <course>323.38</course>
  <speed>1.0220078277586722</speed>
  <fix>3d</fix>
</trkpt>
<trkpt lat="33.8100942" lon="-118.3942482">
  <ele>-33.78</ele>
  <time>2026-09-02T22:11:42Z</time>
  <course>324.87</course>
  <speed>1.0</speed>
  <fix>3d</fix>
</trkpt>
<trkpt lat="33.810096" lon="-118.3942501">
  <ele>-34.686</ele>
  <time>2026-09-02T22:11:42Z</time>
  <course>323.37</course>
  <speed>1.0220078277586722</speed>
  <fix>3d</fix>
</trkpt>
<trkpt lat="33.8100942" lon="-118.3942482">
  <ele>-33.78</ele>
  <time>2026-09-02T22:11:42Z</time>
  <course>324.87</course>
  <speed>1.0</speed>
  <fix>3d</fix>
</trkpt>
<trkpt lat="33.8100967" lon="-118.3942507">
  <ele>-34.709</ele>
  <time>2026-09-02T22:11:42Z</time>
  <course>323.34</course>
  <speed>1.0220078277586722</speed>
  <fix>3d</fix>
</trkpt>
<trkpt lat="33.8100957" lon="-118.3942495">
  <ele>-33.82</ele>
  <time>2026-09-02T22:11:42Z</time>
  <course>324.84</course>
  <speed>1.0</speed>
  <fix>3d</fix>
</trkpt>
<trkpt lat="33.8100974" lon="-118.3942514">
  <ele>-34.733</ele>
  <time>2026-09-02T22:11:42Z</time>
  <course>323.31</course>
  <speed>1.0220078277586722</speed>
  <fix>3d</fix>
</trkpt>
<trkpt lat="33.8100957" lon="-118.3942495">
  <ele>-33.82</ele>
  <time>2026-09-02T22:11:42Z</time>
  <course>324.84</course>
  <speed>1.0</speed>
  <fix>3d</fix>
</trkpt>
<trkpt lat="33.8100982" lon="-118.394252">
  <ele>-34.755</ele>
  <time>2026-09-02T22:11:42Z</time>
  <course>323.28</course>
  <speed>1.0220078277586722</speed>
  <fix>3d</fix>
</trkpt>
<trkpt lat="33.8100971" lon="-118.3942508">
  <ele>-33.86</ele>
  <time>2026-09-02T22:11:42Z</time>
  <course>324.76</course>
  <speed>1.0</speed>
  <fix>3d</fix>
</trkpt>
<trkpt lat="33.8100989" lon="-118.3942526">
  <ele>-34.778</ele>
  <time>2026-09-02T22:11:42Z</time>
  <course>323.26</course>
  <speed>1.0220078277586722</speed>
  <fix>3d</fix>
</trkpt>
<trkpt lat="33.8100971" lon="-118.3942508">
  <ele>-33.86</ele>
  <time>2026-09-02T22:11:42Z</time>
  <course>324.76</course>
  <speed>1.0</speed>
  <fix>3d</fix>
</trkpt>
<trkpt lat="33.8100996" lon="-118.3942532">
  <ele>-34.8</ele>
  <time>2026-09-02T22:11:42Z</time>
  <course>323.26</course>
  <speed>1.0220078277586722</speed>
  <fix>3d</fix>
</trkpt>
<trkpt lat="33.8100986" lon="-118.394252">
  <ele>-33.91</ele>
  <time>2026-09-02T22:11:42Z</time>
  <course>324.75</course>
  <speed>1.0</speed>
  <fix>3d</fix>
</trkpt>
<trkpt lat="33.8101004" lon="-118.3942539">
  <ele>-34.822</ele>
  <time>2026-09-02T22:11:42Z</time>
  <course>323.27</course>
  <speed>1.0220078277586722</speed>
  <fix>3d</fix>
</trkpt>
<trkpt lat="33.8100986" lon="-118.394252">
  <ele>-33.91</ele>
  <time>2026-09-02T22:11:42Z</time>
  <course>324.75</course>
  <speed>1.0</speed>
  <fix>3d</fix>
</trkpt>
<trkpt lat="33.8101011" lon="-118.3942545">
  <ele>-34.845</ele>
  <time>2026-09-02T22:11:43Z</time>
  <course>323.27</course>
  <speed>1.0220078277586722</speed>
  <fix>3d</fix>
</trkpt>
<trkpt lat="33.8101001" lon="-118.3942533">
  <ele>-33.95</ele>
  <time>2026-09-02T22:11:43Z</time>
  <course>324.78</course>
  <speed>1.0</speed>
  <fix>3d</fix>
</trkpt>
<trkpt lat="33.8101018" lon="-118.3942551">
  <ele>-34.868</ele>
  <time>2026-09-02T22:11:43Z</time>
  <course>323.27</course>
  <speed>1.0220078277586722</speed>
  <fix>3d</fix>
</trkpt>
<trkpt lat="33.8101001" lon="-118.3942533">
  <ele>-33.95</ele>
  <time>2026-09-02T22:11:43Z</time>
  <course>324.78</course>
  <speed>1.0</speed>
  <fix>3d</fix>
</trkpt>
<trkpt lat="33.8101026" lon="-118.3942557">
  <ele>-34.891</ele>
  <time>2026-09-02T22:11:43Z</time>
  <course>323.27</course>
  <speed>1.0220078277586722</speed>
  <fix>3d</fix>
</trkpt>
<trkpt lat="33.8101015" lon="-118.3942545">
  <ele>-34.0</ele>
  <time>2026-09-02T22:11:43Z</time>
  <course>324.8</course>
  <speed>1.0</speed>
  <fix>3d</fix>
</trkpt>
<trkpt lat="33.8101033" lon="-118.3942564">
  <ele>-34.913</ele>
  <time>2026-09-02T22:11:43Z</time>
  <course>323.28</course>
  <speed>1.0220078277586722</speed>
  <fix>3d</fix>
</trkpt>
<trkpt lat="33.8101015" lon="-118.3942545">
  <ele>-34.0</ele>
  <time>2026-09-02T22:11:43Z</time>
  <course>324.8</course>
  <speed>1.0</speed>
  <fix>3d</fix>
</trkpt>
<trkpt lat="33.810104" lon="-118.394257">
  <ele>-34.934</ele>
  <time>2026-09-02T22:11:43Z</time>
  <course>323.29</course>
  <speed>1.0220078277586722</speed>
  <fix>3d</fix>
</trkpt>
<trkpt lat="33.810103" lon="-118.3942558">
  <ele>-34.04</ele>
  <time>2026-09-02T22:11:43Z</time>
  <course>324.81</course>
  <speed>0.99</speed>
  <fix>3d</fix>
</trkpt>
<trkpt lat="33.8101048" lon="-118.3942576">
  <ele>-34.955</ele>
  <time>2026-09-02T22:11:43Z</time>
  <course>323.3</course>
  <speed>1.0220078277586722</speed>
  <fix>3d</fix>
</trkpt>
<trkpt lat="33.810103" lon="-118.3942558">
  <ele>-34.04</ele>
  <time>2026-09-02T22:11:43Z</time>
  <course>324.81</course>
  <speed>0.99</speed>
  <fix>3d</fix>
</trkpt>
<trkpt lat="33.8101055" lon="-118.3942582">
  <ele>-34.976</ele>
  <time>2026-09-02T22:11:43Z</time>
  <course>323.31</course>
  <speed>1.0220078277586722</speed>
  <fix>3d</fix>
</trkpt>
<trkpt lat="33.8101045" lon="-118.394257">
  <ele>-34.08</ele>
  <time>2026-09-02T22:11:43Z</time>
  <course>324.83</course>
  <speed>0.99</speed>
  <fix>3d</fix>
</trkpt>
<trkpt lat="33.8101063" lon="-118.3942589">
  <ele>-34.997</ele>
  <time>2026-09-02T22:11:43Z</time>
  <course>323.33</course>
  <speed>1.0220078277586722</speed>
  <fix>3d</fix>
</trkpt>
<trkpt lat="33.8101045" lon="-118.394257">
  <ele>-34.08</ele>
  <time>2026-09-02T22:11:43Z</time>
  <course>324.83</course>
  <speed>0.99</speed>
  <fix>3d</fix>
</trkpt>
<trkpt lat="33.810107" lon="-118.3942595">
  <ele>-35.018</ele>
  <time>2026-09-02T22:11:43Z</time>
  <course>323.33</course>
  <speed>1.0220078277586722</speed>
  <fix>3d</fix>
</trkpt>
<trkpt lat="33.810106" lon="-118.3942583">
  <ele>-34.13</ele>
  <time>2026-09-02T22:11:43Z</time>
  <course>324.82</course>
  <speed>0.99</speed>
  <fix>3d</fix>
</trkpt>
<trkpt lat="33.8101077" lon="-118.3942601">
  <ele>-35.041</ele>
  <time>2026-09-02T22:11:43Z</time>
  <course>323.33</course>
  <speed>1.0220078277586722</speed>
  <fix>3d</fix>
</trkpt>
<trkpt lat="33.810106" lon="-118.3942583">
  <ele>-34.13</ele>
  <time>2026-09-02T22:11:43Z</time>
  <course>324.82</course>
  <speed>0.99</speed>
  <fix>3d</fix>
</trkpt>
<trkpt lat="33.8101085" lon="-118.3942607">
  <ele>-35.065</ele>
  <time>2026-09-02T22:11:43Z</time>
  <course>323.32</course>
  <speed>1.0220078277586722</speed>
  <fix>3d</fix>
</trkpt>
<trkpt lat="33.8101074" lon="-118.3942595">
  <ele>-34.17</ele>
  <time>2026-09-02T22:11:43Z</time>
  <course>324.8</course>
  <speed>0.99</speed>
  <fix>3d</fix>
</trkpt>
<trkpt lat="33.8101092" lon="-118.3942614">
  <ele>-35.09</ele>
  <time>2026-09-02T22:11:43Z</time>
  <course>323.32</course>
  <speed>1.0220078277586722</speed>
  <fix>3d</fix>
</trkpt>
<trkpt lat="33.8101074" lon="-118.3942595">
  <ele>-34.17</ele>
  <time>2026-09-02T22:11:43Z</time>
  <course>324.8</course>
  <speed>0.99</speed>
  <fix>3d</fix>
</trkpt>
<trkpt lat="33.8101099" lon="-118.394262">
  <ele>-35.114</ele>
  <time>2026-09-02T22:11:43Z</time>
  <course>323.32</course>
  <speed>1.0220078277586722</speed>
  <fix>3d</fix>
</trkpt>
<trkpt lat="33.8101089" lon="-118.3942607">
  <ele>-34.21</ele>
  <time>2026-09-02T22:11:43Z</time>
  <course>324.8</course>
  <speed>1.0</speed>
  <fix>3d</fix>
</trkpt>
<trkpt lat="33.8101107" lon="-118.3942626">
  <ele>-35.137</ele>
  <time>2026-09-02T22:11:43Z</time>
  <course>323.32</course>
  <speed>1.0220078277586722</speed>
  <fix>3d</fix>
</trkpt>
<trkpt lat="33.8101089" lon="-118.3942607">
  <ele>-34.21</ele>
  <time>2026-09-02T22:11:43Z</time>
  <course>324.8</course>
  <speed>1.0</speed>
  <fix>3d</fix>
</trkpt>
<trkpt lat="33.8101114" lon="-118.3942632">
  <ele>-35.159</ele>
  <time>2026-09-02T22:11:43Z</time>
  <course>323.3</course>
  <speed>1.0220078277586722</speed>
  <fix>3d</fix>
</trkpt>
<trkpt lat="33.8101104" lon="-118.394262">
  <ele>-34.26</ele>
  <time>2026-09-02T22:11:43Z</time>
  <course>324.78</course>
  <speed>1.0</speed>
  <fix>3d</fix>
</trkpt>
<trkpt lat="33.8101121" lon="-118.3942638">
  <ele>-35.18</ele>
  <time>2026-09-02T22:11:43Z</time>
  <course>323.28</course>
  <speed>1.0220078277586722</speed>
  <fix>3d</fix>
</trkpt>
<trkpt lat="33.8101104" lon="-118.394262">
  <ele>-34.26</ele>
  <time>2026-09-02T22:11:43Z</time>
  <course>324.78</course>
  <speed>1.0</speed>
  <fix>3d</fix>
</trkpt>
<trkpt lat="33.8101129" lon="-118.3942645">
  <ele>-35.201</ele>
  <time>2026-09-02T22:11:43Z</time>
  <course>323.26</course>
  <speed>1.0220078277586722</speed>
  <fix>3d</fix>
</trkpt>
<trkpt lat="33.8101118" lon="-118.3942632">
  <ele>-34.3</ele>
  <time>2026-09-02T22:11:43Z</time>
  <course>324.73</course>
  <speed>1.0</speed>
  <fix>3d</fix>
</trkpt>
<trkpt lat="33.8101136" lon="-118.3942651">
  <ele>-35.223</ele>
  <time>2026-09-02T22:11:43Z</time>
  <course>323.24</course>
  <speed>1.0220078277586722</speed>
  <fix>3d</fix>
</trkpt>
<trkpt lat="33.8101118" lon="-118.3942632">
  <ele>-34.3</ele>
  <time>2026-09-02T22:11:43Z</time>
  <course>324.73</course>
  <speed>1.0</speed>
  <fix>3d</fix>
</trkpt>
<trkpt lat="33.8101143" lon="-118.3942657">
  <ele>-35.244</ele>
  <time>2026-09-02T22:11:43Z</time>
  <course>323.23</course>
  <speed>1.0220078277586722</speed>
  <fix>3d</fix>
</trkpt>
<trkpt lat="33.8101133" lon="-118.3942645">
  <ele>-34.34</ele>
  <time>2026-09-02T22:11:43Z</time>
  <course>324.7</course>
  <speed>1.0</speed>
  <fix>3d</fix>
</trkpt>
<trkpt lat="33.8101151" lon="-118.3942663">
  <ele>-35.265</ele>
  <time>2026-09-02T22:11:43Z</time>
  <course>323.23</course>
  <speed>1.0220078277586722</speed>
  <fix>3d</fix>
</trkpt>
<trkpt lat="33.8101133" lon="-118.3942645">
  <ele>-34.34</ele>
  <time>2026-09-02T22:11:43Z</time>
  <course>324.7</course>
  <speed>1.0</speed>
  <fix>3d</fix>
</trkpt>
<trkpt lat="33.8101158" lon="-118.3942669">
  <ele>-35.286</ele>
  <time>2026-09-02T22:11:43Z</time>
  <course>323.22</course>
  <speed>1.0220078277586722</speed>
  <fix>3d</fix>
</trkpt>
<trkpt lat="33.8101148" lon="-118.3942658">
  <ele>-34.38</ele>
  <time>2026-09-02T22:11:43Z</time>
  <course>324.71</course>
  <speed>1.0</speed>
  <fix>3d</fix>
</trkpt>
<trkpt lat="33.8101165" lon="-118.3942676">
  <ele>-35.308</ele>
  <time>2026-09-02T22:11:43Z</time>
  <course>323.23</course>
  <speed>1.0220078277586722</speed>
  <fix>3d</fix>
</trkpt>
<trkpt lat="33.8101148" lon="-118.3942658">
  <ele>-34.38</ele>
  <time>2026-09-02T22:11:43Z</time>
  <course>324.71</course>
  <speed>1.0</speed>
  <fix>3d</fix>
</trkpt>
<trkpt lat="33.8101173" lon="-118.3942682">
  <ele>-35.331</ele>
  <time>2026-09-02T22:11:43Z</time>
  <course>323.25</course>
  <speed>1.0220078277586722</speed>
  <fix>3d</fix>
</trkpt>
<trkpt lat="33.8101162" lon="-118.394267">
  <ele>-34.42</ele>
  <time>2026-09-02T22:11:43Z</time>
  <course>324.74</course>
  <speed>1.0</speed>
  <fix>3d</fix>
</trkpt>
<trkpt lat="33.810118" lon="-118.3942688">
  <ele>-35.355</ele>
  <time>2026-09-02T22:11:43Z</time>
  <course>323.27</course>
  <speed>1.0220078277586722</speed>
  <fix>3d</fix>
</trkpt>
<trkpt lat="33.8101162" lon="-118.394267">
  <ele>-34.42</ele>
  <time>2026-09-02T22:11:43Z</time>
  <course>324.74</course>
  <speed>1.0</speed>
  <fix>3d</fix>
</trkpt>
<trkpt lat="33.8101187" lon="-118.3942694">
  <ele>-35.378</ele>
  <time>2026-09-02T22:11:43Z</time>
  <course>323.29</course>
  <speed>1.0220078277586722</speed>
  <fix>3d</fix>
</trkpt>
<trkpt lat="33.8101177" lon="-118.3942683">
  <ele>-34.47</ele>
  <time>2026-09-02T22:11:43Z</time>
  <course>324.76</course>
  <speed>1.0</speed>
  <fix>3d</fix>
</trkpt>
<trkpt lat="33.8101195" lon="-118.3942701">
  <ele>-35.4</ele>
  <time>2026-09-02T22:11:43Z</time>
  <course>323.31</course>
  <speed>1.0220078277586722</speed>
  <fix>3d</fix>
</trkpt>
<trkpt lat="33.8101177" lon="-118.3942683">
  <ele>-34.47</ele>
  <time>2026-09-02T22:11:43Z</time>
  <course>324.76</course>
  <speed>1.0</speed>
  <fix>3d</fix>
</trkpt>
<trkpt lat="33.8101202" lon="-118.3942707">
  <ele>-35.421</ele>
  <time>2026-09-02T22:11:43Z</time>
  <course>323.34</course>
  <speed>1.0220078277586722</speed>
  <fix>3d</fix>
</trkpt>
<trkpt lat="33.8101192" lon="-118.3942695">
  <ele>-34.51</ele>
  <time>2026-09-02T22:11:43Z</time>
  <course>324.8</course>
  <speed>1.0</speed>
  <fix>3d</fix>
</trkpt>
<trkpt lat="33.8101209" lon="-118.3942713">
  <ele>-35.442</ele>
  <time>2026-09-02T22:11:43Z</time>
  <course>323.36</course>
  <speed>1.0220078277586722</speed>
  <fix>3d</fix>
</trkpt>
<trkpt lat="33.8101192" lon="-118.3942695">
  <ele>-34.51</ele>
  <time>2026-09-02T22:11:43Z</time>
  <course>324.8</course>
  <speed>1.0</speed>
  <fix>3d</fix>
</trkpt>
<trkpt lat="33.8101217" lon="-118.3942719">
  <ele>-35.463</ele>
  <time>2026-09-02T22:11:43Z</time>
  <course>323.37</course>
  <speed>1.0220078277586722</speed>
  <fix>3d</fix>
</trkpt>
<trkpt lat="33.8101207" lon="-118.3942707">
  <ele>-34.55</ele>
  <time>2026-09-02T22:11:43Z</time>
  <course>324.81</course>
  <speed>1.0</speed>
  <fix>3d</fix>
</trkpt>
<trkpt lat="33.8101224" lon="-118.3942726">
  <ele>-35.485</ele>
  <time>2026-09-02T22:11:43Z</time>
  <course>323.38</course>
  <speed>1.0220078277586722</speed>
  <fix>3d</fix>
</trkpt>
<trkpt lat="33.8101207" lon="-118.3942707">
  <ele>-34.55</ele>
  <time>2026-09-02T22:11:43Z</time>
  <course>324.81</course>
  <speed>1.0</speed>
  <fix>3d</fix>
</trkpt>
<trkpt lat="33.8101231" lon="-118.3942732">
  <ele>-35.507</ele>
  <time>2026-09-02T22:11:43Z</time>
  <course>323.35</course>
  <speed>1.0220078277586722</speed>
  <fix>3d</fix>
</trkpt>
<trkpt lat="33.8101221" lon="-118.394272">
  <ele>-34.6</ele>
  <time>2026-09-02T22:11:43Z</time>
  <course>324.77</course>
  <speed>1.0</speed>
  <fix>3d</fix>
</trkpt>
<trkpt lat="33.8101239" lon="-118.3942738">
  <ele>-35.528</ele>
  <time>2026-09-02T22:11:43Z</time>
  <course>323.31</course>
  <speed>1.0220078277586722</speed>
  <fix>3d</fix>
</trkpt>
<trkpt lat="33.8101221" lon="-118.394272">
  <ele>-34.6</ele>
  <time>2026-09-02T22:11:43Z</time>
  <course>324.77</course>
  <speed>1.0</speed>
  <fix>3d</fix>
</trkpt>
<trkpt lat="33.8101246" lon="-118.3942744">
  <ele>-35.55</ele>
  <time>2026-09-02T22:11:43Z</time>
  <course>323.3</course>
  <speed>1.0220078277586722</speed>
  <fix>3d</fix>
</trkpt>
<trkpt lat="33.8101236" lon="-118.3942733">
  <ele>-34.64</ele>
  <time>2026-09-02T22:11:43Z</time>
  <course>324.74</course>
  <speed>1.0</speed>
  <fix>3d</fix>
</trkpt>
<trkpt lat="33.8101253" lon="-118.3942751">
  <ele>-35.573</ele>
  <time>2026-09-02T22:11:43Z</time>
  <course>323.3</course>
  <speed>1.0220078277586722</speed>
  <fix>3d</fix>
</trkpt>
<trkpt lat="33.8101236" lon="-118.3942733">
  <ele>-34.64</ele>
  <time>2026-09-02T22:11:43Z</time>
  <course>324.74</course>
  <speed>1.0</speed>
  <fix>3d</fix>
</trkpt>
<trkpt lat="33.8101261" lon="-118.3942757">
  <ele>-35.596</ele>
  <time>2026-09-02T22:11:43Z</time>
  <course>323.31</course>
  <speed>1.0220078277586722</speed>
  <fix>3d</fix>
</trkpt>
<trkpt lat="33.8101251" lon="-118.3942745">
  <ele>-34.69</ele>
  <time>2026-09-02T22:11:43Z</time>
  <course>324.76</course>
  <speed>1.0</speed>
  <fix>3d</fix>
</trkpt>
<trkpt lat="33.8101268" lon="-118.3942763">
  <ele>-35.62</ele>
  <time>2026-09-02T22:11:43Z</time>
  <course>323.33</course>
  <speed>1.0220078277586722</speed>
  <fix>3d</fix>
</trkpt>
<trkpt lat="33.8101251" lon="-118.3942745">
  <ele>-34.69</ele>
  <time>2026-09-02T22:11:43Z</time>
  <course>324.76</course>
  <speed>1.0</speed>
  <fix>3d</fix>
</trkpt>
<trkpt lat="33.8101275" lon="-118.3942769">
  <ele>-35.643</ele>
  <time>2026-09-02T22:11:43Z</time>
  <course>323.33</course>
  <speed>1.0220078277586722</speed>
  <fix>3d</fix>
</trkpt>
<trkpt lat="33.8101265" lon="-118.3942758">
  <ele>-34.73</ele>
  <time>2026-09-02T22:11:43Z</time>
  <course>324.79</course>
  <speed>1.0</speed>
  <fix>3d</fix>
</trkpt>
<trkpt lat="33.8101283" lon="-118.3942776">
  <ele>-35.665</ele>
  <time>2026-09-02T22:11:43Z</time>
  <course>323.34</course>
  <speed>1.0220078277586722</speed>
  <fix>3d</fix>
</trkpt>
<trkpt lat="33.8101265" lon="-118.3942758">
  <ele>-34.73</ele>
  <time>2026-09-02T22:11:43Z</time>
  <course>324.79</course>
  <speed>1.0</speed>
  <fix>3d</fix>
</trkpt>
<trkpt lat="33.810129" lon="-118.3942782">
  <ele>-35.688</ele>
  <time>2026-09-02T22:11:43Z</time>
  <course>323.36</course>
  <speed>1.0220078277586722</speed>
  <fix>3d</fix>
</trkpt>
<trkpt lat="33.810128" lon="-118.394277">
  <ele>-34.77</ele>
  <time>2026-09-02T22:11:43Z</time>
  <course>324.8</course>
  <speed>1.0</speed>
  <fix>3d</fix>
</trkpt>
<trkpt lat="33.8101297" lon="-118.3942788">
  <ele>-35.711</ele>
  <time>2026-09-02T22:11:43Z</time>
  <course>323.38</course>
  <speed>1.0220078277586722</speed>
  <fix>3d</fix>
</trkpt>
<trkpt lat="33.810128" lon="-118.394277">
  <ele>-34.77</ele>
  <time>2026-09-02T22:11:43Z</time>
  <course>324.8</course>
  <speed>1.0</speed>
  <fix>3d</fix>
</trkpt>
<trkpt lat="33.8101305" lon="-118.3942794">
  <ele>-35.733</ele>
  <time>2026-09-02T22:11:43Z</time>
  <course>323.39</course>
  <speed>1.0220078277586722</speed>
  <fix>3d</fix>
</trkpt>
<trkpt lat="33.8101295" lon="-118.3942783">
  <ele>-34.82</ele>
  <time>2026-09-02T22:11:43Z</time>
  <course>324.82</course>
  <speed>1.0</speed>
  <fix>3d</fix>
</trkpt>
<trkpt lat="33.8101312" lon="-118.3942801">
  <ele>-35.755</ele>
  <time>2026-09-02T22:11:43Z</time>
  <course>323.41</course>
  <speed>1.0220078277586722</speed>
  <fix>3d</fix>
</trkpt>
<trkpt lat="33.8101295" lon="-118.3942783">
  <ele>-34.82</ele>
  <time>2026-09-02T22:11:43Z</time>
  <course>324.82</course>
  <speed>1.0</speed>
  <fix>3d</fix>
</trkpt>
<trkpt lat="33.810132" lon="-118.3942807">
  <ele>-35.778</ele>
  <time>2026-09-02T22:11:43Z</time>
  <course>323.41</course>
  <speed>1.0220078277586722</speed>
  <fix>3d</fix>
</trkpt>
<trkpt lat="33.810131" lon="-118.3942795">
  <ele>-34.86</ele>
  <time>2026-09-02T22:11:43Z</time>
  <course>324.83</course>
  <speed>1.0</speed>
  <fix>3d</fix>
</trkpt>
<trkpt lat="33.8101327" lon="-118.3942813">
  <ele>-35.801</ele>
  <time>2026-09-02T22:11:43Z</time>
  <course>323.42</course>
  <speed>1.0220078277586722</speed>
  <fix>3d</fix>
</trkpt>
<trkpt lat="33.810131" lon="-118.3942795">
  <ele>-34.86</ele>
  <time>2026-09-02T22:11:43Z</time>
  <course>324.83</course>
  <speed>1.0</speed>
  <fix>3d</fix>
</trkpt>
<trkpt lat="33.8101334" lon="-118.3942819">
  <ele>-35.823</ele>
  <time>2026-09-02T22:11:43Z</time>
  <course>323.41</course>
  <speed>1.0220078277586722</speed>
  <fix>3d</fix>
</trkpt>
<trkpt lat="33.8101324" lon="-118.3942808">
  <ele>-34.9</ele>
  <time>2026-09-02T22:11:43Z</time>
  <course>324.81</course>
  <speed>1.0</speed>
  <fix>3d</fix>
</trkpt>
<trkpt lat="33.8101342" lon="-118.3942826">
  <ele>-35.844</ele>
  <time>2026-09-02T22:11:43Z</time>
  <course>323.4</course>
  <speed>1.0220078277586722</speed>
  <fix>3d</fix>
</trkpt>
<trkpt lat="33.8101324" lon="-118.3942808">
  <ele>-34.9</ele>
  <time>2026-09-02T22:11:43Z</time>
  <course>324.81</course>
  <speed>1.0</speed>
  <fix>3d</fix>
</trkpt>
<trkpt lat="33.8101349" lon="-118.3942832">
  <ele>-35.866</ele>
  <time>2026-09-02T22:11:43Z</time>
  <course>323.41</course>
  <speed>1.0220078277586722</speed>
  <fix>3d</fix>
</trkpt>
<trkpt lat="33.8101339" lon="-118.394282">
  <ele>-34.94</ele>
  <time>2026-09-02T22:11:43Z</time>
  <course>324.78</course>
  <speed>1.0</speed>
  <fix>3d</fix>
</trkpt>
<trkpt lat="33.8101356" lon="-118.3942838">
  <ele>-35.889</ele>
  <time>2026-09-02T22:11:43Z</time>
  <course>323.42</course>
  <speed>1.0220078277586722</speed>
  <fix>3d</fix>
</trkpt>
<trkpt lat="33.8101339" lon="-118.394282">
  <ele>-34.94</ele>
  <time>2026-09-02T22:11:43Z</time>
  <course>324.78</course>
  <speed>1.0</speed>
  <fix>3d</fix>
</trkpt>
<trkpt lat="33.8101364" lon="-118.3942844">
  <ele>-35.91</ele>
  <time>2026-09-02T22:11:43Z</time>
  <course>323.42</course>
  <speed>1.0220078277586722</speed>
  <fix>3d</fix>
</trkpt>
<trkpt lat="33.8101354" lon="-118.3942832">
  <ele>-34.98</ele>
  <time>2026-09-02T22:11:43Z</time>
  <course>324.79</course>
  <speed>1.0</speed>
  <fix>3d</fix>
</trkpt>
<trkpt lat="33.8101371" lon="-118.3942851">
  <ele>-35.931</ele>
  <time>2026-09-02T22:11:43Z</time>
  <course>323.42</course>
  <speed>1.0220078277586722</speed>
  <fix>3d</fix>
</trkpt>
<trkpt lat="33.8101354" lon="-118.3942832">
  <ele>-34.98</ele>
  <time>2026-09-02T22:11:43Z</time>
  <course>324.79</course>
  <speed>1.0</speed>
  <fix>3d</fix>
</trkpt>
<trkpt lat="33.8101378" lon="-118.3942857">
  <ele>-35.953</ele>
  <time>2026-09-02T22:11:43Z</time>
  <course>323.4</course>
  <speed>1.0220078277586722</speed>
  <fix>3d</fix>
</trkpt>
<trkpt lat="33.8101368" lon="-118.3942845">
  <ele>-35.03</ele>
  <time>2026-09-02T22:11:43Z</time>
  <course>324.76</course>
  <speed>1.0</speed>
  <fix>3d</fix>
</trkpt>
<trkpt lat="33.8101386" lon="-118.3942863">
  <ele>-35.976</ele>
  <time>2026-09-02T22:11:43Z</time>
  <course>323.38</course>
  <speed>1.0220078277586722</speed>
  <fix>3d</fix>
</trkpt>
<trkpt lat="33.8101368" lon="-118.3942845">
  <ele>-35.03</ele>
  <time>2026-09-02T22:11:43Z</time>
  <course>324.76</course>
  <speed>1.0</speed>
  <fix>3d</fix>
</trkpt>
<trkpt lat="33.8101393" lon="-118.3942869">
  <ele>-35.998</ele>
  <time>2026-09-02T22:11:43Z</time>
  <course>323.37</course>
  <speed>1.0220078277586722</speed>
  <fix>3d</fix>
</trkpt>
<trkpt lat="33.8101383" lon="-118.3942858">
  <ele>-35.07</ele>
  <time>2026-09-02T22:11:43Z</time>
  <course>324.73</course>
  <speed>1.0</speed>
  <fix>3d</fix>
</trkpt>
<trkpt lat="33.81014" lon="-118.3942875">
  <ele>-36.021</ele>
  <time>2026-09-02T22:11:43Z</time>
  <course>323.38</course>
  <speed>1.0220078277586722</speed>
  <fix>3d</fix>
</trkpt>
<trkpt lat="33.8101383" lon="-118.3942858">
  <ele>-35.07</ele>
  <time>2026-09-02T22:11:43Z</time>
  <course>324.73</course>
  <speed>1.0</speed>
  <fix>3d</fix>
</trkpt>
<trkpt lat="33.8101408" lon="-118.3942882">
  <ele>-36.044</ele>
  <time>2026-09-02T22:11:43Z</time>
  <course>323.39</course>
  <speed>1.0220078277586722</speed>
  <fix>3d</fix>
</trkpt>
<trkpt lat="33.8101398" lon="-118.394287">
  <ele>-35.11</ele>
  <time>2026-09-02T22:11:43Z</time>
  <course>324.75</course>
  <speed>1.0</speed>
  <fix>3d</fix>
</trkpt>
<trkpt lat="33.8101415" lon="-118.3942888">
  <ele>-36.065</ele>
  <time>2026-09-02T22:11:43Z</time>
  <course>323.41</course>
  <speed>1.0220078277586722</speed>
  <fix>3d</fix>
</trkpt>
<trkpt lat="33.8101398" lon="-118.394287">
  <ele>-35.11</ele>
  <time>2026-09-02T22:11:43Z</time>
  <course>324.75</course>
  <speed>1.0</speed>
  <fix>3d</fix>
</trkpt>
<trkpt lat="33.8101422" lon="-118.3942894">
  <ele>-36.088</ele>
  <time>2026-09-02T22:11:43Z</time>
  <course>323.41</course>
  <speed>1.0220078277586722</speed>
  <fix>3d</fix>
</trkpt>
<trkpt lat="33.8101413" lon="-118.3942883">
  <ele>-35.16</ele>
  <time>2026-09-02T22:11:43Z</time>
  <course>324.78</course>
  <speed>0.99</speed>
  <fix>3d</fix>
</trkpt>
<trkpt lat="33.810143" lon="-118.39429">
  <ele>-36.111</ele>
  <time>2026-09-02T22:11:43Z</time>
  <course>323.42</course>
  <speed>1.0220078277586722</speed>
  <fix>3d</fix>
</trkpt>
<trkpt lat="33.8101413" lon="-118.3942883">
  <ele>-35.16</ele>
  <time>2026-09-02T22:11:43Z</time>
  <course>324.78</course>
  <speed>0.99</speed>
  <fix>3d</fix>
</trkpt>
<trkpt lat="33.8101437" lon="-118.3942907">
  <ele>-36.133</ele>
  <time>2026-09-02T22:11:43Z</time>
  <course>323.42</course>
  <speed>1.0220078277586722</speed>
  <fix>3d</fix>
</trkpt>
<trkpt lat="33.8101427" lon="-118.3942895">
  <ele>-35.2</ele>
  <time>2026-09-02T22:11:43Z</time>
  <course>324.78</course>
  <speed>0.99</speed>
  <fix>3d</fix>
</trkpt>
<trkpt lat="33.8101444" lon="-118.3942913">
  <ele>-36.154</ele>
  <time>2026-09-02T22:11:43Z</time>
  <course>323.43</course>
  <speed>1.0220078277586722</speed>
  <fix>3d</fix>
</trkpt>
<trkpt lat="33.8101427" lon="-118.3942895">
  <ele>-35.2</ele>
  <time>2026-09-02T22:11:43Z</time>
  <course>324.78</course>
  <speed>0.99</speed>
  <fix>3d</fix>
</trkpt>
<trkpt lat="33.8101452" lon="-118.3942919">
  <ele>-36.176</ele>
  <time>2026-09-02T22:11:43Z</time>
  <course>323.43</course>
  <speed>1.016070863670443</speed>
  <fix>3d</fix>
</trkpt>
<trkpt lat="33.8101442" lon="-118.3942908">
  <ele>-35.24</ele>
  <time>2026-09-02T22:11:43Z</time>
  <course>324.78</course>
  <speed>0.99</speed>
  <fix>3d</fix>
</trkpt>
<trkpt lat="33.8101459" lon="-118.3942925">
  <ele>-36.197</ele>
  <time>2026-09-02T22:11:43Z</time>
  <course>323.43</course>
  <speed>1.0220078277586722</speed>
  <fix>3d</fix>
</trkpt>
<trkpt lat="33.8101442" lon="-118.3942908">
  <ele>-35.24</ele>
  <time>2026-09-02T22:11:43Z</time>
  <course>324.78</course>
  <speed>0.99</speed>
  <fix>3d</fix>
</trkpt>
<trkpt lat="33.8101466" lon="-118.3942932">
  <ele>-36.219</ele>
  <time>2026-09-02T22:11:43Z</time>
  <course>323.44</course>
  <speed>1.016070863670443</speed>
  <fix>3d</fix>
</trkpt>
<trkpt lat="33.8101457" lon="-118.394292">
  <ele>-35.29</ele>
  <time>2026-09-02T22:11:43Z</time>
  <course>324.8</course>
  <speed>0.99</speed>
  <fix>3d</fix>
</trkpt>
<trkpt lat="33.8101474" lon="-118.3942938">
  <ele>-36.24</ele>
  <time>2026-09-02T22:11:43Z</time>
  <course>323.44</course>
  <speed>1.016070863670443</speed>
  <fix>3d</fix>
</trkpt>
<trkpt lat="33.8101457" lon="-118.394292">
  <ele>-35.29</ele>
  <time>2026-09-02T22:11:43Z</time>
  <course>324.8</course>
  <speed>0.99</speed>
  <fix>3d</fix>
</trkpt>
<trkpt lat="33.8101481" lon="-118.3942944">
  <ele>-36.262</ele>
  <time>2026-09-02T22:11:43Z</time>
  <course>323.44</course>
  <speed>1.016070863670443</speed>
  <fix>3d</fix>
</trkpt>
<trkpt lat="33.8101471" lon="-118.3942932">
  <ele>-35.33</ele>
  <time>2026-09-02T22:11:43Z</time>
  <course>324.8</course>
  <speed>0.99</speed>
  <fix>3d</fix>
</trkpt>
<trkpt lat="33.8101488" lon="-118.394295">
  <ele>-36.283</ele>
  <time>2026-09-02T22:11:43Z</time>
  <course>323.43</course>
  <speed>1.0220078277586722</speed>
  <fix>3d</fix>
</trkpt>
<trkpt lat="33.8101471" lon="-118.3942932">
  <ele>-35.33</ele>
  <time>2026-09-02T22:11:43Z</time>
  <course>324.8</course>
  <speed>0.99</speed>
  <fix>3d</fix>
</trkpt>
<trkpt lat="33.8101496" lon="-118.3942957">
  <ele>-36.304</ele>
  <time>2026-09-02T22:11:43Z</time>
  <course>323.42</course>
  <speed>1.016070863670443</speed>
  <fix>3d</fix>
</trkpt>
<trkpt lat="33.8101486" lon="-118.3942945">
  <ele>-35.37</ele>
  <time>2026-09-02T22:11:43Z</time>
  <course>324.79</course>
  <speed>0.99</speed>
  <fix>3d</fix>
</trkpt>
<trkpt lat="33.8101503" lon="-118.3942963">
  <ele>-36.324</ele>
  <time>2026-09-02T22:11:43Z</time>
  <course>323.41</course>
  <speed>1.0220078277586722</speed>
  <fix>3d</fix>
</trkpt>
<trkpt lat="33.8101486" lon="-118.3942945">
  <ele>-35.37</ele>
  <time>2026-09-02T22:11:43Z</time>
  <course>324.79</course>
  <speed>0.99</speed>
  <fix>3d</fix>
</trkpt>
<trkpt lat="33.810151" lon="-118.3942969">
  <ele>-36.344</ele>
  <time>2026-09-02T22:11:43Z</time>
  <course>323.4</course>
  <speed>1.0220078277586722</speed>
  <fix>3d</fix>
</trkpt>
<trkpt lat="33.8101501" lon="-118.3942957">
  <ele>-35.42</ele>
  <time>2026-09-02T22:11:43Z</time>
  <course>324.77</course>
  <speed>0.99</speed>
  <fix>3d</fix>
</trkpt>
<trkpt lat="33.8101518" lon="-118.3942975">
  <ele>-36.365</ele>
  <time>2026-09-02T22:11:43Z</time>
  <course>323.39</course>
  <speed>1.0220078277586722</speed>
  <fix>3d</fix>
</trkpt>
<trkpt lat="33.8101501" lon="-118.3942957">
  <ele>-35.42</ele>
  <time>2026-09-02T22:11:43Z</time>
  <course>324.77</course>
  <speed>0.99</speed>
  <fix>3d</fix>
</trkpt>
<trkpt lat="33.8101525" lon="-118.3942981">
  <ele>-36.387</ele>
  <time>2026-09-02T22:11:43Z</time>
  <course>323.37</course>
  <speed>1.0220078277586722</speed>
  <fix>3d</fix>
</trkpt>
<trkpt lat="33.8101515" lon="-118.394297">
  <ele>-35.46</ele>
  <time>2026-09-02T22:11:43Z</time>
  <course>324.75</course>
  <speed>0.99</speed>
  <fix>3d</fix>
</trkpt>
<trkpt lat="33.8101533" lon="-118.3942988">
  <ele>-36.411</ele>
  <time>2026-09-02T22:11:43Z</time>
  <course>323.36</course>
  <speed>1.0220078277586722</speed>
  <fix>3d</fix>
</trkpt>
<trkpt lat="33.8101515" lon="-118.394297">
  <ele>-35.46</ele>
  <time>2026-09-02T22:11:43Z</time>
  <course>324.75</course>
  <speed>0.99</speed>
  <fix>3d</fix>
</trkpt>
<trkpt lat="33.810154" lon="-118.3942994">
  <ele>-36.434</ele>
  <time>2026-09-02T22:11:43Z</time>
  <course>323.36</course>
  <speed>1.0220078277586722</speed>
  <fix>3d</fix>
</trkpt>
<trkpt lat="33.810153" lon="-118.3942982">
  <ele>-35.51</ele>
  <time>2026-09-02T22:11:43Z</time>
  <course>324.74</course>
  <speed>0.99</speed>
  <fix>3d</fix>
</trkpt>
<trkpt lat="33.8101547" lon="-118.3943">
  <ele>-36.456</ele>
  <time>2026-09-02T22:11:43Z</time>
  <course>323.36</course>
  <speed>1.0220078277586722</speed>
  <fix>3d</fix>
</trkpt>
<trkpt lat="33.810153" lon="-118.3942982">
  <ele>-35.51</ele>
  <time>2026-09-02T22:11:43Z</time>
  <course>324.74</course>
  <speed>0.99</speed>
  <fix>3d</fix>
</trkpt>
<trkpt lat="33.8101555" lon="-118.3943006">
  <ele>-36.478</ele>
  <time>2026-09-02T22:11:43Z</time>
  <course>323.36</course>
  <speed>1.0220078277586722</speed>
  <fix>3d</fix>
</trkpt>
<trkpt lat="33.8101544" lon="-118.3942995">
  <ele>-35.55</ele>
  <time>2026-09-02T22:11:43Z</time>
  <course>324.75</course>
  <speed>0.99</speed>
  <fix>3d</fix>
</trkpt>
<trkpt lat="33.8101562" lon="-118.3943013">
  <ele>-36.5</ele>
  <time>2026-09-02T22:11:43Z</time>
  <course>323.37</course>
  <speed>1.0220078277586722</speed>
  <fix>3d</fix>
</trkpt>
<trkpt lat="33.8101544" lon="-118.3942995">
  <ele>-35.55</ele>
  <time>2026-09-02T22:11:43Z</time>
  <course>324.75</course>
  <speed>0.99</speed>
  <fix>3d</fix>
</trkpt>
<trkpt lat="33.8101569" lon="-118.3943019">
  <ele>-36.523</ele>
  <time>2026-09-02T22:11:43Z</time>
  <course>323.39</course>
  <speed>1.016070863670443</speed>
  <fix>3d</fix>
</trkpt>
<trkpt lat="33.8101559" lon="-118.3943007">
  <ele>-35.59</ele>
  <time>2026-09-02T22:11:43Z</time>
  <course>324.77</course>
  <speed>0.99</speed>
  <fix>3d</fix>
</trkpt>
<trkpt lat="33.8101577" lon="-118.3943025">
  <ele>-36.545</ele>
  <time>2026-09-02T22:11:43Z</time>
  <course>323.41</course>
  <speed>1.0220078277586722</speed>
  <fix>3d</fix>
</trkpt>
<trkpt lat="33.8101559" lon="-118.3943007">
  <ele>-35.59</ele>
  <time>2026-09-02T22:11:43Z</time>
  <course>324.77</course>
  <speed>0.99</speed>
  <fix>3d</fix>
</trkpt>
<trkpt lat="33.8101584" lon="-118.3943031">
  <ele>-36.567</ele>
  <time>2026-09-02T22:11:43Z</time>
  <course>323.42</course>
  <speed>1.0220078277586722</speed>
  <fix>3d</fix>
</trkpt>
<trkpt lat="33.8101573" lon="-118.3943019">
  <ele>-35.64</ele>
  <time>2026-09-02T22:11:43Z</time>
  <course>324.81</course>
  <speed>0.99</speed>
  <fix>3d</fix>
</trkpt>
<trkpt lat="33.8101591" lon="-118.3943038">
  <ele>-36.589</ele>
  <time>2026-09-02T22:11:43Z</time>
  <course>323.44</course>
  <speed>1.0220078277586722</speed>
  <fix>3d</fix>
</trkpt>
<trkpt lat="33.8101573" lon="-118.3943019">
  <ele>-35.64</ele>
  <time>2026-09-02T22:11:43Z</time>
  <course>324.81</course>
  <speed>0.99</speed>
  <fix>3d</fix>
</trkpt>
<trkpt lat="33.8101598" lon="-118.3943044">
  <ele>-36.611</ele>
  <time>2026-09-02T22:11:43Z</time>
  <course>323.45</course>
  <speed>1.0220078277586722</speed>
  <fix>3d</fix>
</trkpt>
<trkpt lat="33.8101588" lon="-118.3943032">
  <ele>-35.68</ele>
  <time>2026-09-02T22:11:43Z</time>
  <course>324.81</course>
  <speed>0.99</speed>
  <fix>3d</fix>
</trkpt>
<trkpt lat="33.8101606" lon="-118.394305">
  <ele>-36.634</ele>
  <time>2026-09-02T22:11:43Z</time>
  <course>323.46</course>
  <speed>1.0220078277586722</speed>
  <fix>3d</fix>
</trkpt>
<trkpt lat="33.8101588" lon="-118.3943032">
  <ele>-35.68</ele>
  <time>2026-09-02T22:11:43Z</time>
  <course>324.81</course>
  <speed>0.99</speed>
  <fix>3d</fix>
</trkpt>
<trkpt lat="33.8101613" lon="-118.3943056">
  <ele>-36.657</ele>
  <time>2026-09-02T22:11:43Z</time>
  <course>323.47</course>
  <speed>1.0220078277586722</speed>
  <fix>3d</fix>
</trkpt>
<trkpt lat="33.8101603" lon="-118.3943044">
  <ele>-35.72</ele>
  <time>2026-09-02T22:11:43Z</time>
  <course>324.82</course>
  <speed>1.0</speed>
  <fix>3d</fix>
</trkpt>
<trkpt lat="33.810162" lon="-118.3943062">
  <ele>-36.68</ele>
  <time>2026-09-02T22:11:43Z</time>
  <course>323.48</course>
  <speed>1.0220078277586722</speed>
  <fix>3d</fix>
</trkpt>
<trkpt lat="33.8101603" lon="-118.3943044">
  <ele>-35.72</ele>
  <time>2026-09-02T22:11:43Z</time>
  <course>324.82</course>
  <speed>1.0</speed>
  <fix>3d</fix>
</trkpt>
<trkpt lat="33.8101628" lon="-118.3943069">
  <ele>-36.704</ele>
  <time>2026-09-02T22:11:43Z</time>
  <course>323.47</course>
  <speed>1.0220078277586722</speed>
  <fix>3d</fix>
</trkpt>
<trkpt lat="33.8101618" lon="-118.3943057">
  <ele>-35.77</ele>
  <time>2026-09-02T22:11:43Z</time>
  <course>324.83</course>
  <speed>1.0</speed>
  <fix>3d</fix>
</trkpt>
<trkpt lat="33.8101635" lon="-118.3943075">
  <ele>-36.727</ele>
  <time>2026-09-02T22:11:43Z</time>
  <course>323.46</course>
  <speed>1.0220078277586722</speed>
  <fix>3d</fix>
</trkpt>
<trkpt lat="33.8101618" lon="-118.3943057">
  <ele>-35.77</ele>
  <time>2026-09-02T22:11:43Z</time>
  <course>324.83</course>
  <speed>1.0</speed>
  <fix>3d</fix>
</trkpt>
<trkpt lat="33.8101643" lon="-118.3943081">
  <ele>-36.749</ele>
  <time>2026-09-02T22:11:43Z</time>
  <course>323.45</course>
  <speed>1.0220078277586722</speed>
  <fix>3d</fix>
</trkpt>
<trkpt lat="33.8101633" lon="-118.3943069">
  <ele>-35.81</ele>
  <time>2026-09-02T22:11:43Z</time>
  <course>324.8</course>
  <speed>1.0</speed>
  <fix>3d</fix>
</trkpt>
<trkpt lat="33.810165" lon="-118.3943087">
  <ele>-36.771</ele>
  <time>2026-09-02T22:11:43Z</time>
  <course>323.44</course>
  <speed>1.0220078277586722</speed>
  <fix>3d</fix>
</trkpt>
<trkpt lat="33.8101633" lon="-118.3943069">
  <ele>-35.81</ele>
  <time>2026-09-02T22:11:43Z</time>
  <course>324.8</course>
  <speed>1.0</speed>
  <fix>3d</fix>
</trkpt>
<trkpt lat="33.8101657" lon="-118.3943094">
  <ele>-36.791</ele>
  <time>2026-09-02T22:11:43Z</time>
  <course>323.41</course>
  <speed>1.0220078277586722</speed>
  <fix>3d</fix>
</trkpt>
<trkpt lat="33.8101647" lon="-118.3943081">
  <ele>-35.85</ele>
  <time>2026-09-02T22:11:43Z</time>
  <course>324.77</course>
  <speed>0.99</speed>
  <fix>3d</fix>
</trkpt>
<trkpt lat="33.8101665" lon="-118.39431">
  <ele>-36.811</ele>
  <time>2026-09-02T22:11:43Z</time>
  <course>323.39</course>
  <speed>1.0220078277586722</speed>
  <fix>3d</fix>
</trkpt>
<trkpt lat="33.8101647" lon="-118.3943081">
  <ele>-35.85</ele>
  <time>2026-09-02T22:11:43Z</time>
  <course>324.77</course>
  <speed>0.99</speed>
  <fix>3d</fix>
</trkpt>
<trkpt lat="33.8101672" lon="-118.3943106">
  <ele>-36.831</ele>
  <time>2026-09-02T22:11:43Z</time>
  <course>323.35</course>
  <speed>1.0220078277586722</speed>
  <fix>3d</fix>
</trkpt>
<trkpt lat="33.8101662" lon="-118.3943094">
  <ele>-35.89</ele>
  <time>2026-09-02T22:11:43Z</time>
  <course>324.72</course>
  <speed>0.99</speed>
  <fix>3d</fix>
</trkpt>
<trkpt lat="33.8101679" lon="-118.3943112">
  <ele>-36.852</ele>
  <time>2026-09-02T22:11:43Z</time>
  <course>323.32</course>
  <speed>1.0220078277586722</speed>
  <fix>3d</fix>
</trkpt>
<trkpt lat="33.8101662" lon="-118.3943094">
  <ele>-35.89</ele>
  <time>2026-09-02T22:11:43Z</time>
  <course>324.72</course>
  <speed>0.99</speed>
  <fix>3d</fix>
</trkpt>
<trkpt lat="33.8101687" lon="-118.3943119">
  <ele>-36.873</ele>
  <time>2026-09-02T22:11:43Z</time>
  <course>323.29</course>
  <speed>1.0220078277586722</speed>
  <fix>3d</fix>
</trkpt>
<trkpt lat="33.8101677" lon="-118.3943107">
  <ele>-35.93</ele>
  <time>2026-09-02T22:11:43Z</time>
  <course>324.68</course>
  <speed>0.99</speed>
  <fix>3d</fix>
</trkpt>
<trkpt lat="33.8101694" lon="-118.3943125">
  <ele>-36.895</ele>
  <time>2026-09-02T22:11:43Z</time>
  <course>323.28</course>
  <speed>1.0220078277586722</speed>
  <fix>3d</fix>
</trkpt>
<trkpt lat="33.8101677" lon="-118.3943107">
  <ele>-35.93</ele>
  <time>2026-09-02T22:11:43Z</time>
  <course>324.68</course>
  <speed>0.99</speed>
  <fix>3d</fix>
</trkpt>
<trkpt lat="33.8101701" lon="-118.3943131">
  <ele>-36.917</ele>
  <time>2026-09-02T22:11:43Z</time>
  <course>323.28</course>
  <speed>1.0220078277586722</speed>
  <fix>3d</fix>
</trkpt>
<trkpt lat="33.8101691" lon="-118.3943119">
  <ele>-35.97</ele>
  <time>2026-09-02T22:11:43Z</time>
  <course>324.68</course>
  <speed>0.99</speed>
  <fix>3d</fix>
</trkpt>
<trkpt lat="33.8101709" lon="-118.3943137">
  <ele>-36.939</ele>
  <time>2026-09-02T22:11:43Z</time>
  <course>323.28</course>
  <speed>1.0220078277586722</speed>
  <fix>3d</fix>
</trkpt>
<trkpt lat="33.8101691" lon="-118.3943119">
  <ele>-35.97</ele>
  <time>2026-09-02T22:11:43Z</time>
  <course>324.68</course>
  <speed>0.99</speed>
  <fix>3d</fix>
</trkpt>
<trkpt lat="33.8101716" lon="-118.3943143">
  <ele>-36.962</ele>
  <time>2026-09-02T22:11:43Z</time>
  <course>323.29</course>
  <speed>1.0220078277586722</speed>
  <fix>3d</fix>
</trkpt>
<trkpt lat="33.8101706" lon="-118.3943132">
  <ele>-36.02</ele>
  <time>2026-09-02T22:11:43Z</time>
  <course>324.7</course>
  <speed>0.99</speed>
  <fix>3d</fix>
</trkpt>
<trkpt lat="33.8101723" lon="-118.394315">
  <ele>-36.985</ele>
  <time>2026-09-02T22:11:43Z</time>
  <course>323.31</course>
  <speed>1.0220078277586722</speed>
  <fix>3d</fix>
</trkpt>
<trkpt lat="33.8101706" lon="-118.3943132">
  <ele>-36.02</ele>
  <time>2026-09-02T22:11:43Z</time>
  <course>324.7</course>
  <speed>0.99</speed>
  <fix>3d</fix>
</trkpt>
<trkpt lat="33.8101731" lon="-118.3943156">
  <ele>-37.009</ele>
  <time>2026-09-02T22:11:43Z</time>
  <course>323.32</course>
  <speed>1.0220078277586722</speed>
  <fix>3d</fix>
</trkpt>
<trkpt lat="33.810172" lon="-118.3943144">
  <ele>-36.06</ele>
  <time>2026-09-02T22:11:43Z</time>
  <course>324.73</course>
  <speed>0.99</speed>
  <fix>3d</fix>
</trkpt>
<trkpt lat="33.8101738" lon="-118.3943162">
  <ele>-37.031</ele>
  <time>2026-09-02T22:11:43Z</time>
  <course>323.35</course>
  <speed>1.0220078277586722</speed>
  <fix>3d</fix>
</trkpt>
<trkpt lat="33.810172" lon="-118.3943144">
  <ele>-36.06</ele>
  <time>2026-09-02T22:11:43Z</time>
  <course>324.73</course>
  <speed>0.99</speed>
  <fix>3d</fix>
</trkpt>
<trkpt lat="33.8101745" lon="-118.3943168">
  <ele>-37.054</ele>
  <time>2026-09-02T22:11:43Z</time>
  <course>323.37</course>
  <speed>1.0220078277586722</speed>
  <fix>3d</fix>
</trkpt>
<trkpt lat="33.8101735" lon="-118.3943157">
  <ele>-36.11</ele>
  <time>2026-09-02T22:11:43Z</time>
  <course>324.77</course>
  <speed>0.99</speed>
  <fix>3d</fix>
</trkpt>
<trkpt lat="33.8101753" lon="-118.3943175">
  <ele>-37.078</ele>
  <time>2026-09-02T22:11:43Z</time>
  <course>323.4</course>
  <speed>1.0220078277586722</speed>
  <fix>3d</fix>
</trkpt>
<trkpt lat="33.8101735" lon="-118.3943157">
  <ele>-36.11</ele>
  <time>2026-09-02T22:11:43Z</time>
  <course>324.77</course>
  <speed>0.99</speed>
  <fix>3d</fix>
</trkpt>
<trkpt lat="33.810176" lon="-118.3943181">
  <ele>-37.101</ele>
  <time>2026-09-02T22:11:43Z</time>
  <course>323.42</course>
  <speed>1.016070863670443</speed>
  <fix>3d</fix>
</trkpt>
<trkpt lat="33.810175" lon="-118.3943169">
  <ele>-36.15</ele>
  <time>2026-09-02T22:11:43Z</time>
  <course>324.82</course>
  <speed>0.99</speed>
  <fix>3d</fix>
</trkpt>
<trkpt lat="33.8101767" lon="-118.3943187">
  <ele>-37.123</ele>
  <time>2026-09-02T22:11:43Z</time>
  <course>323.45</course>
  <speed>1.0220078277586722</speed>
  <fix>3d</fix>
</trkpt>
<trkpt lat="33.810175" lon="-118.3943169">
  <ele>-36.15</ele>
  <time>2026-09-02T22:11:43Z</time>
  <course>324.82</course>
  <speed>0.99</speed>
  <fix>3d</fix>
</trkpt>
<trkpt lat="33.8101775" lon="-118.3943193">
  <ele>-37.145</ele>
  <time>2026-09-02T22:11:43Z</time>
  <course>323.46</course>
  <speed>1.016070863670443</speed>
  <fix>3d</fix>
</trkpt>
<trkpt lat="33.8101764" lon="-118.3943181">
  <ele>-36.19</ele>
  <time>2026-09-02T22:11:43Z</time>
  <course>324.84</course>
  <speed>0.99</speed>
  <fix>3d</fix>
</trkpt>
<trkpt lat="33.8101782" lon="-118.39432">
  <ele>-37.167</ele>
  <time>2026-09-02T22:11:43Z</time>
  <course>323.46</course>
  <speed>1.0220078277586722</speed>
  <fix>3d</fix>
</trkpt>
<trkpt lat="33.8101764" lon="-118.3943181">
  <ele>-36.19</ele>
  <time>2026-09-02T22:11:43Z</time>
  <course>324.84</course>
  <speed>0.99</speed>
  <fix>3d</fix>
</trkpt>
<trkpt lat="33.8101789" lon="-118.3943206">
  <ele>-37.188</ele>
  <time>2026-09-02T22:11:43Z</time>
  <course>323.45</course>
  <speed>1.0220078277586722</speed>
  <fix>3d</fix>
</trkpt>
<trkpt lat="33.8101779" lon="-118.3943194">
  <ele>-36.23</ele>
  <time>2026-09-02T22:11:43Z</time>
  <course>324.83</course>
  <speed>0.99</speed>
  <fix>3d</fix>
</trkpt>
<trkpt lat="33.8101797" lon="-118.3943212">
  <ele>-37.21</ele>
  <time>2026-09-02T22:11:43Z</time>
  <course>323.45</course>
  <speed>1.0220078277586722</speed>
  <fix>3d</fix>
</trkpt>
<trkpt lat="33.8101779" lon="-118.3943194">
  <ele>-36.23</ele>
  <time>2026-09-02T22:11:43Z</time>
  <course>324.83</course>
  <speed>0.99</speed>
  <fix>3d</fix>
</trkpt>
<trkpt lat="33.8101804" lon="-118.3943218">
  <ele>-37.231</ele>
  <time>2026-09-02T22:11:43Z</time>
  <course>323.45</course>
  <speed>1.0220078277586722</speed>
  <fix>3d</fix>
</trkpt>
<trkpt lat="33.8101793" lon="-118.3943206">
  <ele>-36.28</ele>
  <time>2026-09-02T22:11:43Z</time>
  <course>324.82</course>
  <speed>0.99</speed>
  <fix>3d</fix>
</trkpt>
<trkpt lat="33.8101811" lon="-118.3943225">
  <ele>-37.252</ele>
  <time>2026-09-02T22:11:43Z</time>
  <course>323.45</course>
  <speed>1.0220078277586722</speed>
  <fix>3d</fix>
</trkpt>
<trkpt lat="33.8101793" lon="-118.3943206">
  <ele>-36.28</ele>
  <time>2026-09-02T22:11:43Z</time>
  <course>324.82</course>
  <speed>0.99</speed>
  <fix>3d</fix>
</trkpt>
<trkpt lat="33.8101819" lon="-118.3943231">
  <ele>-37.272</ele>
  <time>2026-09-02T22:11:43Z</time>
  <course>323.46</course>
  <speed>1.0220078277586722</speed>
  <fix>3d</fix>
</trkpt>
<trkpt lat="33.8101808" lon="-118.3943219">
  <ele>-36.33</ele>
  <time>2026-09-02T22:11:43Z</time>
  <course>324.83</course>
  <speed>0.99</speed>
  <fix>3d</fix>
</trkpt>
<trkpt lat="33.8101826" lon="-118.3943237">
  <ele>-37.293</ele>
  <time>2026-09-02T22:11:43Z</time>
  <course>323.47</course>
  <speed>1.0220078277586722</speed>
  <fix>3d</fix>
</trkpt>
<trkpt lat="33.8101808" lon="-118.3943219">
  <ele>-36.33</ele>
  <time>2026-09-02T22:11:43Z</time>
  <course>324.83</course>
  <speed>0.99</speed>
  <fix>3d</fix>
</trkpt>
<trkpt lat="33.8101833" lon="-118.3943243">
  <ele>-37.313</ele>
  <time>2026-09-02T22:11:43Z</time>
  <course>323.48</course>
  <speed>1.0220078277586722</speed>
  <fix>3d</fix>
</trkpt>
<trkpt lat="33.8101823" lon="-118.3943231">
  <ele>-36.37</ele>
  <time>2026-09-02T22:11:43Z</time>
  <course>324.84</course>
  <speed>0.99</speed>
  <fix>3d</fix>
</trkpt>
<trkpt lat="33.8101841" lon="-118.3943249">
  <ele>-37.334</ele>
  <time>2026-09-02T22:11:43Z</time>
  <course>323.5</course>
  <speed>1.0220078277586722</speed>
  <fix>3d</fix>
</trkpt>
<trkpt lat="33.8101823" lon="-118.3943231">
  <ele>-36.37</ele>
  <time>2026-09-02T22:11:43Z</time>
  <course>324.84</course>
  <speed>0.99</speed>
  <fix>3d</fix>
</trkpt>
<trkpt lat="33.8101848" lon="-118.3943256">
  <ele>-37.356</ele>
  <time>2026-09-02T22:11:43Z</time>
  <course>323.5</course>
  <speed>1.0220078277586722</speed>
  <fix>3d</fix>
</trkpt>
<trkpt lat="33.8101838" lon="-118.3943243">
  <ele>-36.41</ele>
  <time>2026-09-02T22:11:43Z</time>
  <course>324.85</course>
  <speed>0.99</speed>
  <fix>3d</fix>
</trkpt>
<trkpt lat="33.8101855" lon="-118.3943262">
  <ele>-37.379</ele>
  <time>2026-09-02T22:11:43Z</time>
  <course>323.5</course>
  <speed>1.0220078277586722</speed>
  <fix>3d</fix>
</trkpt>
<trkpt lat="33.8101838" lon="-118.3943243">
  <ele>-36.41</ele>
  <time>2026-09-02T22:11:43Z</time>
  <course>324.85</course>
  <speed>0.99</speed>
  <fix>3d</fix>
</trkpt>
<trkpt lat="33.8101863" lon="-118.3943268">
  <ele>-37.401</ele>
  <time>2026-09-02T22:11:43Z</time>
  <course>323.46</course>
  <speed>1.0220078277586722</speed>
  <fix>3d</fix>
</trkpt>
<trkpt lat="33.8101852" lon="-118.3943256">
  <ele>-36.45</ele>
  <time>2026-09-02T22:11:43Z</time>
  <course>324.81</course>
  <speed>0.99</speed>
  <fix>3d</fix>
</trkpt>
<trkpt lat="33.810187" lon="-118.3943274">
  <ele>-37.424</ele>
  <time>2026-09-02T22:11:43Z</time>
  <course>323.43</course>
  <speed>1.0220078277586722</speed>
  <fix>3d</fix>
</trkpt>
<trkpt lat="33.8101852" lon="-118.3943256">
  <ele>-36.45</ele>
  <time>2026-09-02T22:11:43Z</time>
  <course>324.81</course>
  <speed>0.99</speed>
  <fix>3d</fix>
</trkpt>
<trkpt lat="33.8101877" lon="-118.3943281">
  <ele>-37.447</ele>
  <time>2026-09-02T22:11:43Z</time>
  <course>323.41</course>
  <speed>1.0220078277586722</speed>
  <fix>3d</fix>
</trkpt>
<trkpt lat="33.8101867" lon="-118.3943268">
  <ele>-36.5</ele>
  <time>2026-09-02T22:11:43Z</time>
  <course>324.78</course>
  <speed>0.99</speed>
  <fix>3d</fix>
</trkpt>
<trkpt lat="33.8101885" lon="-118.3943287">
  <ele>-37.47</ele>
  <time>2026-09-02T22:11:43Z</time>
  <course>323.4</course>
  <speed>1.0220078277586722</speed>
  <fix>3d</fix>
</trkpt>
<trkpt lat="33.8101867" lon="-118.3943268">
  <ele>-36.5</ele>
  <time>2026-09-02T22:11:43Z</time>
  <course>324.78</course>
  <speed>0.99</speed>
  <fix>3d</fix>
</trkpt>
<trkpt lat="33.8101892" lon="-118.3943293">
  <ele>-37.494</ele>
  <time>2026-09-02T22:11:43Z</time>
  <course>323.39</course>
  <speed>1.0220078277586722</speed>
  <fix>3d</fix>
</trkpt>
<trkpt lat="33.8101882" lon="-118.3943281">
  <ele>-36.54</ele>
  <time>2026-09-02T22:11:43Z</time>
  <course>324.77</course>
  <speed>0.99</speed>
  <fix>3d</fix>
</trkpt>
<trkpt lat="33.81019" lon="-118.3943299">
  <ele>-37.517</ele>
  <time>2026-09-02T22:11:43Z</time>
  <course>323.38</course>
  <speed>1.0220078277586722</speed>
  <fix>3d</fix>
</trkpt>
<trkpt lat="33.8101882" lon="-118.3943281">
  <ele>-36.54</ele>
  <time>2026-09-02T22:11:43Z</time>
  <course>324.77</course>
  <speed>0.99</speed>
  <fix>3d</fix>
</trkpt>
<trkpt lat="33.8101907" lon="-118.3943306">
  <ele>-37.54</ele>
  <time>2026-09-02T22:11:43Z</time>
  <course>323.36</course>
  <speed>1.0220078277586722</speed>
  <fix>3d</fix>
</trkpt>
<trkpt lat="33.8101896" lon="-118.3943293">
  <ele>-36.58</ele>
  <time>2026-09-02T22:11:43Z</time>
  <course>324.75</course>
  <speed>0.99</speed>
  <fix>3d</fix>
</trkpt>
<trkpt lat="33.8101914" lon="-118.3943312">
  <ele>-37.563</ele>
  <time>2026-09-02T22:11:43Z</time>
  <course>323.35</course>
  <speed>1.0220078277586722</speed>
  <fix>3d</fix>
</trkpt>
<trkpt lat="33.8101896" lon="-118.3943293">
  <ele>-36.58</ele>
  <time>2026-09-02T22:11:43Z</time>
  <course>324.75</course>
  <speed>0.99</speed>
  <fix>3d</fix>
</trkpt>
<trkpt lat="33.8101922" lon="-118.3943318">
  <ele>-37.585</ele>
  <time>2026-09-02T22:11:43Z</time>
  <course>323.35</course>
  <speed>1.0220078277586722</speed>
  <fix>3d</fix>
</trkpt>
<trkpt lat="33.8101911" lon="-118.3943306">
  <ele>-36.63</ele>
  <time>2026-09-02T22:11:43Z</time>
  <course>324.74</course>
  <speed>0.99</speed>
  <fix>3d</fix>
</trkpt>
<trkpt lat="33.8101929" lon="-118.3943324">
  <ele>-37.606</ele>
  <time>2026-09-02T22:11:43Z</time>
  <course>323.36</course>
  <speed>1.0220078277586722</speed>
  <fix>3d</fix>
</trkpt>
<trkpt lat="33.8101911" lon="-118.3943306">
  <ele>-36.63</ele>
  <time>2026-09-02T22:11:43Z</time>
  <course>324.74</course>
  <speed>0.99</speed>
  <fix>3d</fix>
</trkpt>
<trkpt lat="33.8101936" lon="-118.394333">
  <ele>-37.627</ele>
  <time>2026-09-02T22:11:43Z</time>
  <course>323.36</course>
  <speed>1.0220078277586722</speed>
  <fix>3d</fix>
</trkpt>
<trkpt lat="33.8101926" lon="-118.3943318">
  <ele>-36.67</ele>
  <time>2026-09-02T22:11:43Z</time>
  <course>324.75</course>
  <speed>0.99</speed>
  <fix>3d</fix>
</trkpt>
<trkpt lat="33.8101944" lon="-118.3943337">
  <ele>-37.649</ele>
  <time>2026-09-02T22:11:43Z</time>
  <course>323.37</course>
  <speed>1.0220078277586722</speed>
  <fix>3d</fix>
</trkpt>
<trkpt lat="33.8101926" lon="-118.3943318">
  <ele>-36.67</ele>
  <time>2026-09-02T22:11:43Z</time>
  <course>324.75</course>
  <speed>0.99</speed>
  <fix>3d</fix>
</trkpt>
<trkpt lat="33.8101951" lon="-118.3943343">
  <ele>-37.671</ele>
  <time>2026-09-02T22:11:43Z</time>
  <course>323.36</course>
  <speed>1.0220078277586722</speed>
  <fix>3d</fix>
</trkpt>
<trkpt lat="33.810194" lon="-118.394333">
  <ele>-36.71</ele>
  <time>2026-09-02T22:11:43Z</time>
  <course>324.76</course>
  <speed>0.99</speed>
  <fix>3d</fix>
</trkpt>
<trkpt lat="33.8101958" lon="-118.3943349">
  <ele>-37.693</ele>
  <time>2026-09-02T22:11:43Z</time>
  <course>323.36</course>
  <speed>1.0220078277586722</speed>
  <fix>3d</fix>
</trkpt>
<trkpt lat="33.810194" lon="-118.394333">
  <ele>-36.71</ele>
  <time>2026-09-02T22:11:43Z</time>
  <course>324.76</course>
  <speed>0.99</speed>
  <fix>3d</fix>
</trkpt>
<trkpt lat="33.8101966" lon="-118.3943355">
  <ele>-37.716</ele>
  <time>2026-09-02T22:11:43Z</time>
  <course>323.34</course>
  <speed>1.0220078277586722</speed>
  <fix>3d</fix>
</trkpt>
<trkpt lat="33.8101955" lon="-118.3943343">
  <ele>-36.75</ele>
  <time>2026-09-02T22:11:43Z</time>
  <course>324.73</course>
  <speed>0.99</speed>
  <fix>3d</fix>
</trkpt>
<trkpt lat="33.8101973" lon="-118.3943362">
  <ele>-37.738</ele>
  <time>2026-09-02T22:11:43Z</time>
  <course>323.33</course>
  <speed>1.0220078277586722</speed>
  <fix>3d</fix>
</trkpt>
<trkpt lat="33.8101955" lon="-118.3943343">
  <ele>-36.75</ele>
  <time>2026-09-02T22:11:43Z</time>
  <course>324.73</course>
  <speed>0.99</speed>
  <fix>3d</fix>
</trkpt>
<trkpt lat="33.810198" lon="-118.3943368">
  <ele>-37.759</ele>
  <time>2026-09-02T22:11:43Z</time>
  <course>323.32</course>
  <speed>1.0220078277586722</speed>
  <fix>3d</fix>
</trkpt>
<trkpt lat="33.810197" lon="-118.3943356">
  <ele>-36.8</ele>
  <time>2026-09-02T22:11:43Z</time>
  <course>324.7</course>
  <speed>0.99</speed>
  <fix>3d</fix>
</trkpt>
<trkpt lat="33.8101988" lon="-118.3943374">
  <ele>-37.78</ele>
  <time>2026-09-02T22:11:43Z</time>
  <course>323.33</course>
  <speed>1.0220078277586722</speed>
  <fix>3d</fix>
</trkpt>
<trkpt lat="33.810197" lon="-118.3943356">
  <ele>-36.8</ele>
  <time>2026-09-02T22:11:43Z</time>
  <course>324.7</course>
  <speed>0.99</speed>
  <fix>3d</fix>
</trkpt>
<trkpt lat="33.8101995" lon="-118.394338">
  <ele>-37.802</ele>
  <time>2026-09-02T22:11:43Z</time>
  <course>323.33</course>
  <speed>1.0220078277586722</speed>
  <fix>3d</fix>
</trkpt>
<trkpt lat="33.8101984" lon="-118.3943368">
  <ele>-36.84</ele>
  <time>2026-09-02T22:11:43Z</time>
  <course>324.71</course>
  <speed>0.99</speed>
  <fix>3d</fix>
</trkpt>
<trkpt lat="33.8102002" lon="-118.3943387">
  <ele>-37.823</ele>
  <time>2026-09-02T22:11:43Z</time>
  <course>323.34</course>
  <speed>1.0220078277586722</speed>
  <fix>3d</fix>
</trkpt>
<trkpt lat="33.8101984" lon="-118.3943368">
  <ele>-36.84</ele>
  <time>2026-09-02T22:11:43Z</time>
  <course>324.71</course>
  <speed>0.99</speed>
  <fix>3d</fix>
</trkpt>
<trkpt lat="33.810201" lon="-118.3943393">
  <ele>-37.844</ele>
  <time>2026-09-02T22:11:43Z</time>
  <course>323.35</course>
  <speed>1.0220078277586722</speed>
  <fix>3d</fix>
</trkpt>
<trkpt lat="33.8101999" lon="-118.3943381">
  <ele>-36.88</ele>
  <time>2026-09-02T22:11:43Z</time>
  <course>324.74</course>
  <speed>0.99</speed>
  <fix>3d</fix>
</trkpt>
<trkpt lat="33.8102017" lon="-118.3943399">
  <ele>-37.866</ele>
  <time>2026-09-02T22:11:43Z</time>
  <course>323.38</course>
  <speed>1.0220078277586722</speed>
  <fix>3d</fix>
</trkpt>
<trkpt lat="33.8101999" lon="-118.3943381">
  <ele>-36.88</ele>
  <time>2026-09-02T22:11:43Z</time>
  <course>324.74</course>
  <speed>0.99</speed>
  <fix>3d</fix>
</trkpt>
<trkpt lat="33.8102024" lon="-118.3943405">
  <ele>-37.888</ele>
  <time>2026-09-02T22:11:43Z</time>
  <course>323.4</course>
  <speed>1.0220078277586722</speed>
  <fix>3d</fix>
</trkpt>
<trkpt lat="33.8102013" lon="-118.3943393">
  <ele>-36.92</ele>
  <time>2026-09-02T22:11:43Z</time>
  <course>324.78</course>
  <speed>0.99</speed>
  <fix>3d</fix>
</trkpt>
<trkpt lat="33.8102032" lon="-118.3943412">
  <ele>-37.91</ele>
  <time>2026-09-02T22:11:43Z</time>
  <course>323.43</course>
  <speed>1.0220078277586722</speed>
  <fix>3d</fix>
</trkpt>
<trkpt lat="33.8102013" lon="-118.3943393">
  <ele>-36.92</ele>
  <time>2026-09-02T22:11:43Z</time>
  <course>324.78</course>
  <speed>0.99</speed>
  <fix>3d</fix>
</trkpt>
<trkpt lat="33.8102039" lon="-118.3943418">
  <ele>-37.932</ele>
  <time>2026-09-02T22:11:43Z</time>
  <course>323.45</course>
  <speed>1.0220078277586722</speed>
  <fix>3d</fix>
</trkpt>
<trkpt lat="33.8102028" lon="-118.3943406">
  <ele>-36.97</ele>
  <time>2026-09-02T22:11:43Z</time>
  <course>324.82</course>
  <speed>0.99</speed>
  <fix>3d</fix>
</trkpt>
<trkpt lat="33.8102046" lon="-118.3943424">
  <ele>-37.955</ele>
  <time>2026-09-02T22:11:43Z</time>
  <course>323.48</course>
  <speed>1.0220078277586722</speed>
  <fix>3d</fix>
</trkpt>
<trkpt lat="33.8102028" lon="-118.3943406">
  <ele>-36.97</ele>
  <time>2026-09-02T22:11:43Z</time>
  <course>324.82</course>
  <speed>0.99</speed>
  <fix>3d</fix>
</trkpt>
<trkpt lat="33.8102054" lon="-118.394343">
  <ele>-37.978</ele>
  <time>2026-09-02T22:11:43Z</time>
  <course>323.51</course>
  <speed>1.0220078277586722</speed>
  <fix>3d</fix>
</trkpt>
<trkpt lat="33.8102043" lon="-118.3943418">
  <ele>-37.01</ele>
  <time>2026-09-02T22:11:43Z</time>
  <course>324.87</course>
  <speed>1.0</speed>
  <fix>3d</fix>
</trkpt>
<trkpt lat="33.8102061" lon="-118.3943436">
  <ele>-38.001</ele>
  <time>2026-09-02T22:11:43Z</time>
  <course>323.53</course>
  <speed>1.0220078277586722</speed>
  <fix>3d</fix>
</trkpt>
<trkpt lat="33.8102043" lon="-118.3943418">
  <ele>-37.01</ele>
  <time>2026-09-02T22:11:43Z</time>
  <course>324.87</course>
  <speed>1.0</speed>
  <fix>3d</fix>
</trkpt>
<trkpt lat="33.8102068" lon="-118.3943443">
  <ele>-38.023</ele>
  <time>2026-09-02T22:11:43Z</time>
  <course>323.54</course>
  <speed>1.0220078277586722</speed>
  <fix>3d</fix>
</trkpt>
<trkpt lat="33.8102058" lon="-118.394343">
  <ele>-37.06</ele>
  <time>2026-09-02T22:11:43Z</time>
  <course>324.9</course>
  <speed>1.0</speed>
  <fix>3d</fix>
</trkpt>
<trkpt lat="33.8102076" lon="-118.3943449">
  <ele>-38.044</ele>
  <time>2026-09-02T22:11:43Z</time>
  <course>323.55</course>
  <speed>1.0220078277586722</speed>
  <fix>3d</fix>
</trkpt>
<trkpt lat="33.8102058" lon="-118.394343">
  <ele>-37.06</ele>
  <time>2026-09-02T22:11:43Z</time>
  <course>324.9</course>
  <speed>1.0</speed>
  <fix>3d</fix>
</trkpt>
<trkpt lat="33.8102083" lon="-118.3943455">
  <ele>-38.066</ele>
  <time>2026-09-02T22:11:43Z</time>
  <course>323.52</course>
  <speed>1.0220078277586722</speed>
  <fix>3d</fix>
</trkpt>
<trkpt lat="33.8102072" lon="-118.3943443">
  <ele>-37.1</ele>
  <time>2026-09-02T22:11:43Z</time>
  <course>324.87</course>
  <speed>1.0</speed>
  <fix>3d</fix>
</trkpt>
<trkpt lat="33.810209" lon="-118.3943461">
  <ele>-38.089</ele>
  <time>2026-09-02T22:11:43Z</time>
  <course>323.5</course>
  <speed>1.0220078277586722</speed>
  <fix>3d</fix>
</trkpt>
<trkpt lat="33.8102072" lon="-118.3943443">
  <ele>-37.1</ele>
  <time>2026-09-02T22:11:43Z</time>
  <course>324.87</course>
  <speed>1.0</speed>
  <fix>3d</fix>
</trkpt>
<trkpt lat="33.8102098" lon="-118.3943468">
  <ele>-38.111</ele>
  <time>2026-09-02T22:11:43Z</time>
  <course>323.48</course>
  <speed>1.0220078277586722</speed>
  <fix>3d</fix>
</trkpt>
<trkpt lat="33.8102087" lon="-118.3943455">
  <ele>-37.14</ele>
  <time>2026-09-02T22:11:43Z</time>
  <course>324.83</course>
  <speed>1.0</speed>
  <fix>3d</fix>
</trkpt>
<trkpt lat="33.8102105" lon="-118.3943474">
  <ele>-38.134</ele>
  <time>2026-09-02T22:11:43Z</time>
  <course>323.47</course>
  <speed>1.0220078277586722</speed>
  <fix>3d</fix>
</trkpt>
<trkpt lat="33.8102087" lon="-118.3943455">
  <ele>-37.14</ele>
  <time>2026-09-02T22:11:43Z</time>
  <course>324.83</course>
  <speed>1.0</speed>
  <fix>3d</fix>
</trkpt>
<trkpt lat="33.8102112" lon="-118.394348">
  <ele>-38.157</ele>
  <time>2026-09-02T22:11:43Z</time>
  <course>323.46</course>
  <speed>1.0220078277586722</speed>
  <fix>3d</fix>
</trkpt>
<trkpt lat="33.8102102" lon="-118.3943468">
  <ele>-37.19</ele>
  <time>2026-09-02T22:11:43Z</time>
  <course>324.83</course>
  <speed>1.0</speed>
  <fix>3d</fix>
</trkpt>
<trkpt lat="33.810212" lon="-118.3943486">
  <ele>-38.18</ele>
  <time>2026-09-02T22:11:43Z</time>
  <course>323.45</course>
  <speed>1.0220078277586722</speed>
  <fix>3d</fix>
</trkpt>
<trkpt lat="33.8102102" lon="-118.3943468">
  <ele>-37.19</ele>
  <time>2026-09-02T22:11:43Z</time>
  <course>324.83</course>
  <speed>1.0</speed>
  <fix>3d</fix>
</trkpt>
<trkpt lat="33.8102127" lon="-118.3943492">
  <ele>-38.203</ele>
  <time>2026-09-02T22:11:43Z</time>
  <course>323.44</course>
  <speed>1.0220078277586722</speed>
  <fix>3d</fix>
</trkpt>
<trkpt lat="33.8102116" lon="-118.394348">
  <ele>-37.23</ele>
  <time>2026-09-02T22:11:43Z</time>
  <course>324.82</course>
  <speed>1.0</speed>
  <fix>3d</fix>
</trkpt>
<trkpt lat="33.8102134" lon="-118.3943499">
  <ele>-38.226</ele>
  <time>2026-09-02T22:11:43Z</time>
  <course>323.43</course>
  <speed>1.0220078277586722</speed>
  <fix>3d</fix>
</trkpt>
<trkpt lat="33.8102116" lon="-118.394348">
  <ele>-37.23</ele>
  <time>2026-09-02T22:11:43Z</time>
  <course>324.82</course>
  <speed>1.0</speed>
  <fix>3d</fix>
</trkpt>
<trkpt lat="33.8102142" lon="-118.3943505">
  <ele>-38.248</ele>
  <time>2026-09-02T22:11:43Z</time>
  <course>323.43</course>
  <speed>1.0220078277586722</speed>
  <fix>3d</fix>
</trkpt>
<trkpt lat="33.8102131" lon="-118.3943492">
  <ele>-37.27</ele>
  <time>2026-09-02T22:11:43Z</time>
  <course>324.81</course>
  <speed>1.0</speed>
  <fix>3d</fix>
</trkpt>
<trkpt lat="33.8102149" lon="-118.3943511">
  <ele>-38.269</ele>
  <time>2026-09-02T22:11:43Z</time>
  <course>323.43</course>
  <speed>1.0220078277586722</speed>
  <fix>3d</fix>
</trkpt>
<trkpt lat="33.8102131" lon="-118.3943492">
  <ele>-37.27</ele>
  <time>2026-09-02T22:11:43Z</time>
  <course>324.81</course>
  <speed>1.0</speed>
  <fix>3d</fix>
</trkpt>
<trkpt lat="33.8102156" lon="-118.3943517">
  <ele>-38.291</ele>
  <time>2026-09-02T22:11:43Z</time>
  <course>323.42</course>
  <speed>1.0220078277586722</speed>
  <fix>3d</fix>
</trkpt>
<trkpt lat="33.8102146" lon="-118.3943505">
  <ele>-37.32</ele>
  <time>2026-09-02T22:11:43Z</time>
  <course>324.81</course>
  <speed>1.0</speed>
  <fix>3d</fix>
</trkpt>
<trkpt lat="33.8102164" lon="-118.3943524">
  <ele>-38.313</ele>
  <time>2026-09-02T22:11:43Z</time>
  <course>323.41</course>
  <speed>1.0220078277586722</speed>
  <fix>3d</fix>
</trkpt>
<trkpt lat="33.8102146" lon="-118.3943505">
  <ele>-37.32</ele>
  <time>2026-09-02T22:11:43Z</time>
  <course>324.81</course>
  <speed>1.0</speed>
  <fix>3d</fix>
</trkpt>
<trkpt lat="33.8102171" lon="-118.394353">
  <ele>-38.335</ele>
  <time>2026-09-02T22:11:43Z</time>
  <course>323.38</course>
  <speed>1.0220078277586722</speed>
  <fix>3d</fix>
</trkpt>
<trkpt lat="33.8102161" lon="-118.3943517">
  <ele>-37.36</ele>
  <time>2026-09-02T22:11:43Z</time>
  <course>324.78</course>
  <speed>1.0</speed>
  <fix>3d</fix>
</trkpt>
<trkpt lat="33.8102178" lon="-118.3943536">
  <ele>-38.359</ele>
  <time>2026-09-02T22:11:43Z</time>
  <course>323.35</course>
  <speed>1.0220078277586722</speed>
  <fix>3d</fix>
</trkpt>
<trkpt lat="33.8102161" lon="-118.3943517">
  <ele>-37.36</ele>
  <time>2026-09-02T22:11:43Z</time>
  <course>324.78</course>
  <speed>1.0</speed>
  <fix>3d</fix>
</trkpt>
<trkpt lat="33.8102186" lon="-118.3943542">
  <ele>-38.382</ele>
  <time>2026-09-02T22:11:43Z</time>
  <course>323.32</course>
  <speed>1.0220078277586722</speed>
  <fix>3d</fix>
</trkpt>
<trkpt lat="33.8102175" lon="-118.394353">
  <ele>-37.4</ele>
  <time>2026-09-02T22:11:43Z</time>
  <course>324.72</course>
  <speed>1.0</speed>
  <fix>3d</fix>
</trkpt>
<trkpt lat="33.8102193" lon="-118.3943548">
  <ele>-38.406</ele>
  <time>2026-09-02T22:11:43Z</time>
  <course>323.3</course>
  <speed>1.0220078277586722</speed>
  <fix>3d</fix>
</trkpt>
<trkpt lat="33.8102175" lon="-118.394353">
  <ele>-37.4</ele>
  <time>2026-09-02T22:11:43Z</time>
  <course>324.72</course>
  <speed>1.0</speed>
  <fix>3d</fix>
</trkpt>
<trkpt lat="33.81022" lon="-118.3943555">
  <ele>-38.43</ele>
  <time>2026-09-02T22:11:43Z</time>
  <course>323.28</course>
  <speed>1.0220078277586722</speed>
  <fix>3d</fix>
</trkpt>
<trkpt lat="33.810219" lon="-118.3943543">
  <ele>-37.44</ele>
  <time>2026-09-02T22:11:43Z</time>
  <course>324.68</course>
  <speed>1.0</speed>
  <fix>3d</fix>
</trkpt>
<trkpt lat="33.8102208" lon="-118.3943561">
  <ele>-38.453</ele>
  <time>2026-09-02T22:11:43Z</time>
  <course>323.29</course>
  <speed>1.0220078277586722</speed>
  <fix>3d</fix>
</trkpt>
<trkpt lat="33.810219" lon="-118.3943543">
  <ele>-37.44</ele>
  <time>2026-09-02T22:11:43Z</time>
  <course>324.68</course>
  <speed>1.0</speed>
  <fix>3d</fix>
</trkpt>
<trkpt lat="33.8102215" lon="-118.3943567">
  <ele>-38.477</ele>
  <time>2026-09-02T22:11:43Z</time>
  <course>323.29</course>
  <speed>1.0220078277586722</speed>
  <fix>3d</fix>
</trkpt>
<trkpt lat="33.8102205" lon="-118.3943555">
  <ele>-37.48</ele>
  <time>2026-09-02T22:11:43Z</time>
  <course>324.71</course>
  <speed>1.0</speed>
  <fix>3d</fix>
</trkpt>
<trkpt lat="33.8102222" lon="-118.3943573">
  <ele>-38.5</ele>
  <time>2026-09-02T22:11:43Z</time>
  <course>323.31</course>
  <speed>1.0220078277586722</speed>
  <fix>3d</fix>
</trkpt>
<trkpt lat="33.8102205" lon="-118.3943555">
  <ele>-37.48</ele>
  <time>2026-09-02T22:11:43Z</time>
  <course>324.71</course>
  <speed>1.0</speed>
  <fix>3d</fix>
</trkpt>
<trkpt lat="33.810223" lon="-118.394358">
  <ele>-38.521</ele>
  <time>2026-09-02T22:11:43Z</time>
  <course>323.32</course>
  <speed>1.0220078277586722</speed>
  <fix>3d</fix>
</trkpt>
<trkpt lat="33.8102219" lon="-118.3943568">
  <ele>-37.53</ele>
  <time>2026-09-02T22:11:43Z</time>
  <course>324.74</course>
  <speed>1.0</speed>
  <fix>3d</fix>
</trkpt>
<trkpt lat="33.8102237" lon="-118.3943586">
  <ele>-38.541</ele>
  <time>2026-09-02T22:11:43Z</time>
  <course>323.33</course>
  <speed>1.0220078277586722</speed>
  <fix>3d</fix>
</trkpt>
<trkpt lat="33.8102219" lon="-118.3943568">
  <ele>-37.53</ele>
  <time>2026-09-02T22:11:43Z</time>
  <course>324.74</course>
  <speed>1.0</speed>
  <fix>3d</fix>
</trkpt>
<trkpt lat="33.8102244" lon="-118.3943592">
  <ele>-38.561</ele>
  <time>2026-09-02T22:11:43Z</time>
  <course>323.35</course>
  <speed>1.0220078277586722</speed>
  <fix>3d</fix>
</trkpt>
<trkpt lat="33.8102234" lon="-118.3943581">
  <ele>-37.57</ele>
  <time>2026-09-02T22:11:43Z</time>
  <course>324.77</course>
  <speed>1.0</speed>
  <fix>3d</fix>
</trkpt>
<trkpt lat="33.8102252" lon="-118.3943598">
  <ele>-38.582</ele>
  <time>2026-09-02T22:11:43Z</time>
  <course>323.38</course>
  <speed>1.0220078277586722</speed>
  <fix>3d</fix>
</trkpt>
<trkpt lat="33.8102234" lon="-118.3943581">
  <ele>-37.57</ele>
  <time>2026-09-02T22:11:43Z</time>
  <course>324.77</course>
  <speed>1.0</speed>
  <fix>3d</fix>
</trkpt>
<trkpt lat="33.8102259" lon="-118.3943605">
  <ele>-38.604</ele>
  <time>2026-09-02T22:11:43Z</time>
  <course>323.41</course>
  <speed>1.0220078277586722</speed>
  <fix>3d</fix>
</trkpt>
<trkpt lat="33.8102249" lon="-118.3943593">
  <ele>-37.61</ele>
  <time>2026-09-02T22:11:43Z</time>
  <course>324.83</course>
  <speed>1.0</speed>
  <fix>3d</fix>
</trkpt>
<trkpt lat="33.8102266" lon="-118.3943611">
  <ele>-38.626</ele>
  <time>2026-09-02T22:11:43Z</time>
  <course>323.45</course>
  <speed>1.0220078277586722</speed>
  <fix>3d</fix>
</trkpt>
<trkpt lat="33.8102249" lon="-118.3943593">
  <ele>-37.61</ele>
  <time>2026-09-02T22:11:43Z</time>
  <course>324.83</course>
  <speed>1.0</speed>
  <fix>3d</fix>
</trkpt>
<trkpt lat="33.8102274" lon="-118.3943617">
  <ele>-38.648</ele>
  <time>2026-09-02T22:11:43Z</time>
  <course>323.47</course>
  <speed>1.0220078277586722</speed>
  <fix>3d</fix>
</trkpt>
<trkpt lat="33.8102264" lon="-118.3943606">
  <ele>-37.66</ele>
  <time>2026-09-02T22:11:43Z</time>
  <course>324.87</course>
  <speed>1.0</speed>
  <fix>3d</fix>
</trkpt>
<trkpt lat="33.8102281" lon="-118.3943623">
  <ele>-38.671</ele>
  <time>2026-09-02T22:11:43Z</time>
  <course>323.49</course>
  <speed>1.0220078277586722</speed>
  <fix>3d</fix>
</trkpt>
<trkpt lat="33.8102264" lon="-118.3943606">
  <ele>-37.66</ele>
  <time>2026-09-02T22:11:43Z</time>
  <course>324.87</course>
  <speed>1.0</speed>
  <fix>3d</fix>
</trkpt>
<trkpt lat="33.8102288" lon="-118.394363">
  <ele>-38.695</ele>
  <time>2026-09-02T22:11:43Z</time>
  <course>323.5</course>
  <speed>1.016070863670443</speed>
  <fix>3d</fix>
</trkpt>
<trkpt lat="33.8102279" lon="-118.3943618">
  <ele>-37.7</ele>
  <time>2026-09-02T22:11:43Z</time>
  <course>324.88</course>
  <speed>1.0</speed>
  <fix>3d</fix>
</trkpt>
<trkpt lat="33.8102296" lon="-118.3943636">
  <ele>-38.718</ele>
  <time>2026-09-02T22:11:43Z</time>
  <course>323.51</course>
  <speed>1.0220078277586722</speed>
  <fix>3d</fix>
</trkpt>
<trkpt lat="33.8102279" lon="-118.3943618">
  <ele>-37.7</ele>
  <time>2026-09-02T22:11:43Z</time>
  <course>324.88</course>
  <speed>1.0</speed>
  <fix>3d</fix>
</trkpt>
<trkpt lat="33.8102303" lon="-118.3943642">
  <ele>-38.741</ele>
  <time>2026-09-02T22:11:43Z</time>
  <course>323.49</course>
  <speed>1.016070863670443</speed>
  <fix>3d</fix>
</trkpt>
<trkpt lat="33.8102293" lon="-118.3943631">
  <ele>-37.74</ele>
  <time>2026-09-02T22:11:43Z</time>
  <course>324.87</course>
  <speed>1.0</speed>
  <fix>3d</fix>
</trkpt>
<trkpt lat="33.8102311" lon="-118.3943648">
  <ele>-38.763</ele>
  <time>2026-09-02T22:11:43Z</time>
  <course>323.49</course>
  <speed>1.016070863670443</speed>
  <fix>3d</fix>
</trkpt>
<trkpt lat="33.8102293" lon="-118.3943631">
  <ele>-37.74</ele>
  <time>2026-09-02T22:11:43Z</time>
  <course>324.87</course>
  <speed>1.0</speed>
  <fix>3d</fix>
</trkpt>
<trkpt lat="33.8102318" lon="-118.3943655">
  <ele>-38.785</ele>
  <time>2026-09-02T22:11:43Z</time>
  <course>323.49</course>
  <speed>1.016070863670443</speed>
  <fix>3d</fix>
</trkpt>
<trkpt lat="33.8102308" lon="-118.3943643">
  <ele>-37.79</ele>
  <time>2026-09-02T22:11:43Z</time>
  <course>324.88</course>
  <speed>1.0</speed>
  <fix>3d</fix>
</trkpt>
<trkpt lat="33.8102325" lon="-118.3943661">
  <ele>-38.807</ele>
  <time>2026-09-02T22:11:43Z</time>
  <course>323.5</course>
  <speed>1.016070863670443</speed>
  <fix>3d</fix>
</trkpt>
<trkpt lat="33.8102308" lon="-118.3943643">
  <ele>-37.79</ele>
  <time>2026-09-02T22:11:43Z</time>
  <course>324.88</course>
  <speed>1.0</speed>
  <fix>3d</fix>
</trkpt>
<trkpt lat="33.8102333" lon="-118.3943667">
  <ele>-38.83</ele>
  <time>2026-09-02T22:11:43Z</time>
  <course>323.49</course>
  <speed>1.016070863670443</speed>
  <fix>3d</fix>
</trkpt>
<trkpt lat="33.8102323" lon="-118.3943655">
  <ele>-37.83</ele>
  <time>2026-09-02T22:11:43Z</time>
  <course>324.9</course>
  <speed>1.0</speed>
  <fix>3d</fix>
</trkpt>
<trkpt lat="33.810234" lon="-118.3943673">
  <ele>-38.852</ele>
  <time>2026-09-02T22:11:43Z</time>
  <course>323.49</course>
  <speed>1.0220078277586722</speed>
  <fix>3d</fix>
</trkpt>
<trkpt lat="33.8102323" lon="-118.3943655">
  <ele>-37.83</ele>
  <time>2026-09-02T22:11:43Z</time>
  <course>324.9</course>
  <speed>1.0</speed>
  <fix>3d</fix>
</trkpt>
<trkpt lat="33.8102347" lon="-118.3943679">
  <ele>-38.874</ele>
  <time>2026-09-02T22:11:43Z</time>
  <course>323.46</course>
  <speed>1.0220078277586722</speed>
  <fix>3d</fix>
</trkpt>
<trkpt lat="33.8102338" lon="-118.3943668">
  <ele>-37.88</ele>
  <time>2026-09-02T22:11:43Z</time>
  <course>324.86</course>
  <speed>1.0</speed>
  <fix>3d</fix>
</trkpt>
<trkpt lat="33.8102355" lon="-118.3943686">
  <ele>-38.898</ele>
  <time>2026-09-02T22:11:43Z</time>
  <course>323.44</course>
  <speed>1.0220078277586722</speed>
  <fix>3d</fix>
</trkpt>
<trkpt lat="33.8102338" lon="-118.3943668">
  <ele>-37.88</ele>
  <time>2026-09-02T22:11:43Z</time>
  <course>324.86</course>
  <speed>1.0</speed>
  <fix>3d</fix>
</trkpt>
<trkpt lat="33.8102362" lon="-118.3943692">
  <ele>-38.921</ele>
  <time>2026-09-02T22:11:43Z</time>
  <course>323.41</course>
  <speed>1.0080178569846865</speed>
  <fix>3d</fix>
</trkpt>
<trkpt lat="33.8102352" lon="-118.3943681">
  <ele>-37.92</ele>
  <time>2026-09-02T22:11:43Z</time>
  <course>324.8</course>
  <speed>1.0</speed>
  <fix>3d</fix>
</trkpt>
<trkpt lat="33.8102369" lon="-118.3943698">
  <ele>-38.944</ele>
  <time>2026-09-02T22:11:43Z</time>
  <course>323.39</course>
  <speed>1.0140019723846694</speed>
  <fix>3d</fix>
</trkpt>
<trkpt lat="33.8102352" lon="-118.3943681">
  <ele>-37.92</ele>
  <time>2026-09-02T22:11:43Z</time>
  <course>324.8</course>
  <speed>1.0</speed>
  <fix>3d</fix>
</trkpt>
<trkpt lat="33.8102377" lon="-118.3943704">
  <ele>-38.967</ele>
  <time>2026-09-02T22:11:43Z</time>
  <course>323.39</course>
  <speed>1.0080178569846865</speed>
  <fix>3d</fix>
</trkpt>
<trkpt lat="33.8102367" lon="-118.3943693">
  <ele>-37.96</ele>
  <time>2026-09-02T22:11:43Z</time>
  <course>324.8</course>
  <speed>1.0</speed>
  <fix>3d</fix>
</trkpt>
<trkpt lat="33.8102384" lon="-118.3943711">
  <ele>-38.988</ele>
  <time>2026-09-02T22:11:43Z</time>
  <course>323.41</course>
  <speed>1.0080178569846865</speed>
  <fix>3d</fix>
</trkpt>
<trkpt lat="33.8102367" lon="-118.3943693">
  <ele>-37.96</ele>
  <time>2026-09-02T22:11:43Z</time>
  <course>324.8</course>
  <speed>1.0</speed>
  <fix>3d</fix>
</trkpt>
<trkpt lat="33.8102391" lon="-118.3943717">
  <ele>-39.01</ele>
  <time>2026-09-02T22:11:43Z</time>
  <course>323.42</course>
  <speed>1.0080178569846865</speed>
  <fix>3d</fix>
</trkpt>
<trkpt lat="33.8102382" lon="-118.3943705">
  <ele>-38.01</ele>
  <time>2026-09-02T22:11:43Z</time>
  <course>324.84</course>
  <speed>0.99</speed>
  <fix>3d</fix>
</trkpt>
<trkpt lat="33.8102399" lon="-118.3943723">
  <ele>-39.031</ele>
  <time>2026-09-02T22:11:43Z</time>
  <course>323.42</course>
  <speed>1.0080178569846865</speed>
  <fix>3d</fix>
</trkpt>
<trkpt lat="33.8102382" lon="-118.3943705">
  <ele>-38.01</ele>
  <time>2026-09-02T22:11:43Z</time>
  <course>324.84</course>
  <speed>0.99</speed>
  <fix>3d</fix>
</trkpt>
<trkpt lat="33.8102406" lon="-118.3943729">
  <ele>-39.053</ele>
  <time>2026-09-02T22:11:43Z</time>
  <course>323.39</course>
  <speed>1.0080178569846865</speed>
  <fix>3d</fix>
</trkpt>
<trkpt lat="33.8102396" lon="-118.3943717">
  <ele>-38.05</ele>
  <time>2026-09-02T22:11:43Z</time>
  <course>324.83</course>
  <speed>0.99</speed>
  <fix>3d</fix>
</trkpt>
<trkpt lat="33.8102413" lon="-118.3943736">
  <ele>-39.074</ele>
  <time>2026-09-02T22:11:43Z</time>
  <course>323.37</course>
  <speed>1.0140019723846694</speed>
  <fix>3d</fix>
</trkpt>
<trkpt lat="33.8102396" lon="-118.3943717">
  <ele>-38.05</ele>
  <time>2026-09-02T22:11:43Z</time>
  <course>324.83</course>
  <speed>0.99</speed>
  <fix>3d</fix>
</trkpt>
<trkpt lat="33.8102421" lon="-118.3943742">
  <ele>-39.094</ele>
  <time>2026-09-02T22:11:43Z</time>
  <course>323.34</course>
  <speed>1.0140019723846694</speed>
  <fix>3d</fix>
</trkpt>
<trkpt lat="33.8102411" lon="-118.394373">
  <ele>-38.09</ele>
  <time>2026-09-02T22:11:43Z</time>
  <course>324.78</course>
  <speed>0.99</speed>
  <fix>3d</fix>
</trkpt>
<trkpt lat="33.8102428" lon="-118.3943748">
  <ele>-39.114</ele>
  <time>2026-09-02T22:11:43Z</time>
  <course>323.31</course>
  <speed>1.0140019723846694</speed>
  <fix>3d</fix>
</trkpt>
<trkpt lat="33.8102411" lon="-118.394373">
  <ele>-38.09</ele>
  <time>2026-09-02T22:11:43Z</time>
  <course>324.78</course>
  <speed>0.99</speed>
  <fix>3d</fix>
</trkpt>
<trkpt lat="33.8102435" lon="-118.3943754">
  <ele>-39.134</ele>
  <time>2026-09-02T22:11:44Z</time>
  <course>323.29</course>
  <speed>1.0220078277586722</speed>
  <fix>3d</fix>
</trkpt>
<trkpt lat="33.8102425" lon="-118.3943742">
  <ele>-38.13</ele>
  <time>2026-09-02T22:11:44Z</time>
  <course>324.73</course>
  <speed>0.99</speed>
  <fix>3d</fix>
</trkpt>
<trkpt lat="33.8102443" lon="-118.394376">
  <ele>-39.156</ele>
  <time>2026-09-02T22:11:44Z</time>
  <course>323.28</course>
  <speed>1.0220078277586722</speed>
  <fix>3d</fix>
</trkpt>
<trkpt lat="33.8102425" lon="-118.3943742">
  <ele>-38.13</ele>
  <time>2026-09-02T22:11:44Z</time>
  <course>324.73</course>
  <speed>0.99</speed>
  <fix>3d</fix>
</trkpt>
<trkpt lat="33.810245" lon="-118.3943767">
  <ele>-39.178</ele>
  <time>2026-09-02T22:11:44Z</time>
  <course>323.27</course>
  <speed>1.0220078277586722</speed>
  <fix>3d</fix>
</trkpt>
<trkpt lat="33.810244" lon="-118.3943755">
  <ele>-38.17</ele>
  <time>2026-09-02T22:11:44Z</time>
  <course>324.72</course>
  <speed>1.0</speed>
  <fix>3d</fix>
</trkpt>
<trkpt lat="33.8102457" lon="-118.3943773">
  <ele>-39.201</ele>
  <time>2026-09-02T22:11:44Z</time>
  <course>323.27</course>
  <speed>1.0220078277586722</speed>
  <fix>3d</fix>
</trkpt>
<trkpt lat="33.810244" lon="-118.3943755">
  <ele>-38.17</ele>
  <time>2026-09-02T22:11:44Z</time>
  <course>324.72</course>
  <speed>1.0</speed>
  <fix>3d</fix>
</trkpt>
<trkpt lat="33.8102465" lon="-118.3943779">
  <ele>-39.223</ele>
  <time>2026-09-02T22:11:44Z</time>
  <course>323.28</course>
  <speed>1.0220078277586722</speed>
  <fix>3d</fix>
</trkpt>
<trkpt lat="33.8102455" lon="-118.3943768">
  <ele>-38.22</ele>
  <time>2026-09-02T22:11:44Z</time>
  <course>324.75</course>
  <speed>1.0</speed>
  <fix>3d</fix>
</trkpt>
<trkpt lat="33.8102472" lon="-118.3943785">
  <ele>-39.245</ele>
  <time>2026-09-02T22:11:44Z</time>
  <course>323.3</course>
  <speed>1.0220078277586722</speed>
  <fix>3d</fix>
</trkpt>
<trkpt lat="33.8102455" lon="-118.3943768">
  <ele>-38.22</ele>
  <time>2026-09-02T22:11:44Z</time>
  <course>324.75</course>
  <speed>1.0</speed>
  <fix>3d</fix>
</trkpt>
<trkpt lat="33.810248" lon="-118.3943792">
  <ele>-39.266</ele>
  <time>2026-09-02T22:11:44Z</time>
  <course>323.31</course>
  <speed>1.0220078277586722</speed>
  <fix>3d</fix>
</trkpt>
<trkpt lat="33.810247" lon="-118.394378">
  <ele>-38.26</ele>
  <time>2026-09-02T22:11:44Z</time>
  <course>324.77</course>
  <speed>1.0</speed>
  <fix>3d</fix>
</trkpt>
<trkpt lat="33.8102487" lon="-118.3943798">
  <ele>-39.287</ele>
  <time>2026-09-02T22:11:44Z</time>
  <course>323.33</course>
  <speed>1.0220078277586722</speed>
  <fix>3d</fix>
</trkpt>
<trkpt lat="33.810247" lon="-118.394378">
  <ele>-38.26</ele>
  <time>2026-09-02T22:11:44Z</time>
  <course>324.77</course>
  <speed>1.0</speed>
  <fix>3d</fix>
</trkpt>
<trkpt lat="33.8102494" lon="-118.3943804">
  <ele>-39.307</ele>
  <time>2026-09-02T22:11:44Z</time>
  <course>323.33</course>
  <speed>1.0220078277586722</speed>
  <fix>3d</fix>
</trkpt>
<trkpt lat="33.8102485" lon="-118.3943793">
  <ele>-38.31</ele>
  <time>2026-09-02T22:11:44Z</time>
  <course>324.77</course>
  <speed>1.0</speed>
  <fix>3d</fix>
</trkpt>
<trkpt lat="33.8102502" lon="-118.394381">
  <ele>-39.327</ele>
  <time>2026-09-02T22:11:44Z</time>
  <course>323.33</course>
  <speed>1.0220078277586722</speed>
  <fix>3d</fix>
</trkpt>
<trkpt lat="33.8102485" lon="-118.3943793">
  <ele>-38.31</ele>
  <time>2026-09-02T22:11:44Z</time>
  <course>324.77</course>
  <speed>1.0</speed>
  <fix>3d</fix>
</trkpt>
<trkpt lat="33.8102509" lon="-118.3943817">
  <ele>-39.348</ele>
  <time>2026-09-02T22:11:44Z</time>
  <course>323.33</course>
  <speed>1.0220078277586722</speed>
  <fix>3d</fix>
</trkpt>
<trkpt lat="33.8102499" lon="-118.3943805">
  <ele>-38.35</ele>
  <time>2026-09-02T22:11:44Z</time>
  <course>324.76</course>
  <speed>0.99</speed>
  <fix>3d</fix>
</trkpt>
<trkpt lat="33.8102516" lon="-118.3943823">
  <ele>-39.37</ele>
  <time>2026-09-02T22:11:44Z</time>
  <course>323.33</course>
  <speed>1.0220078277586722</speed>
  <fix>3d</fix>
</trkpt>
<trkpt lat="33.8102499" lon="-118.3943805">
  <ele>-38.35</ele>
  <time>2026-09-02T22:11:44Z</time>
  <course>324.76</course>
  <speed>0.99</speed>
  <fix>3d</fix>
</trkpt>
<trkpt lat="33.8102524" lon="-118.3943829">
  <ele>-39.393</ele>
  <time>2026-09-02T22:11:44Z</time>
  <course>323.32</course>
  <speed>1.016070863670443</speed>
  <fix>3d</fix>
</trkpt>
<trkpt lat="33.8102514" lon="-118.3943818">
  <ele>-38.39</ele>
  <time>2026-09-02T22:11:44Z</time>
  <course>324.76</course>
  <speed>0.99</speed>
  <fix>3d</fix>
</trkpt>
<trkpt lat="33.8102531" lon="-118.3943836">
  <ele>-39.417</ele>
  <time>2026-09-02T22:11:44Z</time>
  <course>323.33</course>
  <speed>1.0140019723846694</speed>
  <fix>3d</fix>
</trkpt>
<trkpt lat="33.8102514" lon="-118.3943818">
  <ele>-38.39</ele>
  <time>2026-09-02T22:11:44Z</time>
  <course>324.76</course>
  <speed>0.99</speed>
  <fix>3d</fix>
</trkpt>
<trkpt lat="33.8102538" lon="-118.3943842">
  <ele>-39.44</ele>
  <time>2026-09-02T22:11:44Z</time>
  <course>323.34</course>
  <speed>1.0080178569846865</speed>
  <fix>3d</fix>
</trkpt>
<trkpt lat="33.8102528" lon="-118.394383">
  <ele>-38.44</ele>
  <time>2026-09-02T22:11:44Z</time>
  <course>324.77</course>
  <speed>0.99</speed>
  <fix>3d</fix>
</trkpt>
<trkpt lat="33.8102546" lon="-118.3943848">
  <ele>-39.463</ele>
  <time>2026-09-02T22:11:44Z</time>
  <course>323.35</course>
  <speed>1.016070863670443</speed>
  <fix>3d</fix>
</trkpt>
<trkpt lat="33.8102528" lon="-118.394383">
  <ele>-38.44</ele>
  <time>2026-09-02T22:11:44Z</time>
  <course>324.77</course>
  <speed>0.99</speed>
  <fix>3d</fix>
</trkpt>
<trkpt lat="33.8102553" lon="-118.3943854">
  <ele>-39.487</ele>
  <time>2026-09-02T22:11:44Z</time>
  <course>323.37</course>
  <speed>1.016070863670443</speed>
  <fix>3d</fix>
</trkpt>
<trkpt lat="33.8102543" lon="-118.3943842">
  <ele>-38.48</ele>
  <time>2026-09-02T22:11:44Z</time>
  <course>324.8</course>
  <speed>0.99</speed>
  <fix>3d</fix>
</trkpt>
<trkpt lat="33.810256" lon="-118.394386">
  <ele>-39.51</ele>
  <time>2026-09-02T22:11:44Z</time>
  <course>323.38</course>
  <speed>1.0220078277586722</speed>
  <fix>3d</fix>
</trkpt>
<trkpt lat="33.8102543" lon="-118.3943842">
  <ele>-38.48</ele>
  <time>2026-09-02T22:11:44Z</time>
  <course>324.8</course>
  <speed>0.99</speed>
  <fix>3d</fix>
</trkpt>
<trkpt lat="33.8102568" lon="-118.3943867">
  <ele>-39.534</ele>
  <time>2026-09-02T22:11:44Z</time>
  <course>323.38</course>
  <speed>1.0220078277586722</speed>
  <fix>3d</fix>
</trkpt>
<trkpt lat="33.8102558" lon="-118.3943855">
  <ele>-38.53</ele>
  <time>2026-09-02T22:11:44Z</time>
  <course>324.81</course>
  <speed>0.99</speed>
  <fix>3d</fix>
</trkpt>
<trkpt lat="33.8102575" lon="-118.3943873">
  <ele>-39.557</ele>
  <time>2026-09-02T22:11:44Z</time>
  <course>323.37</course>
  <speed>1.0220078277586722</speed>
  <fix>3d</fix>
</trkpt>
<trkpt lat="33.8102558" lon="-118.3943855">
  <ele>-38.53</ele>
  <time>2026-09-02T22:11:44Z</time>
  <course>324.81</course>
  <speed>0.99</speed>
  <fix>3d</fix>
</trkpt>
<trkpt lat="33.8102582" lon="-118.3943879">
  <ele>-39.579</ele>
  <time>2026-09-02T22:11:44Z</time>
  <course>323.36</course>
  <speed>1.0220078277586722</speed>
  <fix>3d</fix>
</trkpt>
<trkpt lat="33.8102572" lon="-118.3943868">
  <ele>-38.57</ele>
  <time>2026-09-02T22:11:44Z</time>
  <course>324.79</course>
  <speed>0.99</speed>
  <fix>3d</fix>
</trkpt>
<trkpt lat="33.810259" lon="-118.3943885">
  <ele>-39.601</ele>
  <time>2026-09-02T22:11:44Z</time>
  <course>323.36</course>
  <speed>1.0220078277586722</speed>
  <fix>3d</fix>
</trkpt>
<trkpt lat="33.8102572" lon="-118.3943868">
  <ele>-38.57</ele>
  <time>2026-09-02T22:11:44Z</time>
  <course>324.79</course>
  <speed>0.99</speed>
  <fix>3d</fix>
</trkpt>
<trkpt lat="33.8102597" lon="-118.3943892">
  <ele>-39.623</ele>
  <time>2026-09-02T22:11:44Z</time>
  <course>323.37</course>
  <speed>1.016070863670443</speed>
  <fix>3d</fix>
</trkpt>
<trkpt lat="33.8102587" lon="-118.394388">
  <ele>-38.61</ele>
  <time>2026-09-02T22:11:44Z</time>
  <course>324.8</course>
  <speed>0.99</speed>
  <fix>3d</fix>
</trkpt>
<trkpt lat="33.8102605" lon="-118.3943898">
  <ele>-39.645</ele>
  <time>2026-09-02T22:11:44Z</time>
  <course>323.4</course>
  <speed>1.0220078277586722</speed>
  <fix>3d</fix>
</trkpt>
<trkpt lat="33.8102587" lon="-118.394388">
  <ele>-38.61</ele>
  <time>2026-09-02T22:11:44Z</time>
  <course>324.8</course>
  <speed>0.99</speed>
  <fix>3d</fix>
</trkpt>
<trkpt lat="33.8102612" lon="-118.3943904">
  <ele>-39.667</ele>
  <time>2026-09-02T22:11:44Z</time>
  <course>323.42</course>
  <speed>1.016070863670443</speed>
  <fix>3d</fix>
</trkpt>
<trkpt lat="33.8102602" lon="-118.3943892">
  <ele>-38.66</ele>
  <time>2026-09-02T22:11:44Z</time>
  <course>324.84</course>
  <speed>0.99</speed>
  <fix>3d</fix>
</trkpt>
<trkpt lat="33.8102619" lon="-118.394391">
  <ele>-39.689</ele>
  <time>2026-09-02T22:11:44Z</time>
  <course>323.44</course>
  <speed>1.0220078277586722</speed>
  <fix>3d</fix>
</trkpt>
<trkpt lat="33.8102602" lon="-118.3943892">
  <ele>-38.66</ele>
  <time>2026-09-02T22:11:44Z</time>
  <course>324.84</course>
  <speed>0.99</speed>
  <fix>3d</fix>
</trkpt>
<trkpt lat="33.8102627" lon="-118.3943917">
  <ele>-39.71</ele>
  <time>2026-09-02T22:11:44Z</time>
  <course>323.43</course>
  <speed>1.0220078277586722</speed>
  <fix>3d</fix>
</trkpt>
<trkpt lat="33.8102616" lon="-118.3943904">
  <ele>-38.7</ele>
  <time>2026-09-02T22:11:44Z</time>
  <course>324.83</course>
  <speed>0.99</speed>
  <fix>3d</fix>
</trkpt>
<trkpt lat="33.8102634" lon="-118.3943923">
  <ele>-39.73</ele>
  <time>2026-09-02T22:11:44Z</time>
  <course>323.41</course>
  <speed>1.0220078277586722</speed>
  <fix>3d</fix>
</trkpt>
<trkpt lat="33.8102616" lon="-118.3943904">
  <ele>-38.7</ele>
  <time>2026-09-02T22:11:44Z</time>
  <course>324.83</course>
  <speed>0.99</speed>
  <fix>3d</fix>
</trkpt>
<trkpt lat="33.8102641" lon="-118.3943929">
  <ele>-39.749</ele>
  <time>2026-09-02T22:11:44Z</time>
  <course>323.39</course>
  <speed>1.0220078277586722</speed>
  <fix>3d</fix>
</trkpt>
<trkpt lat="33.8102631" lon="-118.3943917">
  <ele>-38.73</ele>
  <time>2026-09-02T22:11:44Z</time>
  <course>324.77</course>
  <speed>0.99</speed>
  <fix>3d</fix>
</trkpt>
<trkpt lat="33.8102649" lon="-118.3943935">
  <ele>-39.77</ele>
  <time>2026-09-02T22:11:44Z</time>
  <course>323.37</course>
  <speed>1.0220078277586722</speed>
  <fix>3d</fix>
</trkpt>
<trkpt lat="33.8102631" lon="-118.3943917">
  <ele>-38.73</ele>
  <time>2026-09-02T22:11:44Z</time>
  <course>324.77</course>
  <speed>0.99</speed>
  <fix>3d</fix>
</trkpt>
<trkpt lat="33.8102656" lon="-118.3943941">
  <ele>-39.791</ele>
  <time>2026-09-02T22:11:44Z</time>
  <course>323.35</course>
  <speed>1.0220078277586722</speed>
  <fix>3d</fix>
</trkpt>
<trkpt lat="33.8102645" lon="-118.394393">
  <ele>-38.78</ele>
  <time>2026-09-02T22:11:44Z</time>
  <course>324.73</course>
  <speed>1.0</speed>
  <fix>3d</fix>
</trkpt>
<trkpt lat="33.8102663" lon="-118.3943948">
  <ele>-39.812</ele>
  <time>2026-09-02T22:11:44Z</time>
  <course>323.35</course>
  <speed>1.0220078277586722</speed>
  <fix>3d</fix>
</trkpt>
<trkpt lat="33.8102645" lon="-118.394393">
  <ele>-38.78</ele>
  <time>2026-09-02T22:11:44Z</time>
  <course>324.73</course>
  <speed>1.0</speed>
  <fix>3d</fix>
</trkpt>
<trkpt lat="33.8102671" lon="-118.3943954">
  <ele>-39.835</ele>
  <time>2026-09-02T22:11:44Z</time>
  <course>323.37</course>
  <speed>1.0220078277586722</speed>
  <fix>3d</fix>
</trkpt>
<trkpt lat="33.810266" lon="-118.3943942">
  <ele>-38.82</ele>
  <time>2026-09-02T22:11:44Z</time>
  <course>324.76</course>
  <speed>1.0</speed>
  <fix>3d</fix>
</trkpt>
<trkpt lat="33.8102678" lon="-118.394396">
  <ele>-39.858</ele>
  <time>2026-09-02T22:11:44Z</time>
  <course>323.4</course>
  <speed>1.0220078277586722</speed>
  <fix>3d</fix>
</trkpt>
<trkpt lat="33.810266" lon="-118.3943942">
  <ele>-38.82</ele>
  <time>2026-09-02T22:11:44Z</time>
  <course>324.76</course>
  <speed>1.0</speed>
  <fix>3d</fix>
</trkpt>
<trkpt lat="33.8102685" lon="-118.3943966">
  <ele>-39.88</ele>
  <time>2026-09-02T22:11:44Z</time>
  <course>323.42</course>
  <speed>1.0220078277586722</speed>
  <fix>3d</fix>
</trkpt>
<trkpt lat="33.8102675" lon="-118.3943955">
  <ele>-38.87</ele>
  <time>2026-09-02T22:11:44Z</time>
  <course>324.83</course>
  <speed>1.0</speed>
  <fix>3d</fix>
</trkpt>
<trkpt lat="33.8102693" lon="-118.3943973">
  <ele>-39.903</ele>
  <time>2026-09-02T22:11:44Z</time>
  <course>323.45</course>
  <speed>1.0220078277586722</speed>
  <fix>3d</fix>
</trkpt>
<trkpt lat="33.8102675" lon="-118.3943955">
  <ele>-38.87</ele>
  <time>2026-09-02T22:11:44Z</time>
  <course>324.83</course>
  <speed>1.0</speed>
  <fix>3d</fix>
</trkpt>
<trkpt lat="33.81027" lon="-118.3943979">
  <ele>-39.925</ele>
  <time>2026-09-02T22:11:44Z</time>
  <course>323.47</course>
  <speed>1.0220078277586722</speed>
  <fix>3d</fix>
</trkpt>
<trkpt lat="33.810269" lon="-118.3943967">
  <ele>-38.91</ele>
  <time>2026-09-02T22:11:44Z</time>
  <course>324.86</course>
  <speed>1.0</speed>
  <fix>3d</fix>
</trkpt>
<trkpt lat="33.8102707" lon="-118.3943985">
  <ele>-39.948</ele>
  <time>2026-09-02T22:11:44Z</time>
  <course>323.48</course>
  <speed>1.0220078277586722</speed>
  <fix>3d</fix>
</trkpt>
<trkpt lat="33.810269" lon="-118.3943967">
  <ele>-38.91</ele>
  <time>2026-09-02T22:11:44Z</time>
  <course>324.86</course>
  <speed>1.0</speed>
  <fix>3d</fix>
</trkpt>
<trkpt lat="33.8102715" lon="-118.3943991">
  <ele>-39.97</ele>
  <time>2026-09-02T22:11:44Z</time>
  <course>323.47</course>
  <speed>1.0220078277586722</speed>
  <fix>3d</fix>
</trkpt>
<trkpt lat="33.8102705" lon="-118.394398">
  <ele>-38.95</ele>
  <time>2026-09-02T22:11:44Z</time>
  <course>324.85</course>
  <speed>1.0</speed>
  <fix>3d</fix>
</trkpt>
<trkpt lat="33.8102722" lon="-118.3943998">
  <ele>-39.991</ele>
  <time>2026-09-02T22:11:44Z</time>
  <course>323.47</course>
  <speed>1.0220078277586722</speed>
  <fix>3d</fix>
</trkpt>
<trkpt lat="33.8102705" lon="-118.394398">
  <ele>-38.95</ele>
  <time>2026-09-02T22:11:44Z</time>
  <course>324.85</course>
  <speed>1.0</speed>
  <fix>3d</fix>
</trkpt>
<trkpt lat="33.8102729" lon="-118.3944004">
  <ele>-40.013</ele>
  <time>2026-09-02T22:11:44Z</time>
  <course>323.45</course>
  <speed>1.0220078277586722</speed>
  <fix>3d</fix>
</trkpt>
<trkpt lat="33.8102719" lon="-118.3943992">
  <ele>-39.0</ele>
  <time>2026-09-02T22:11:44Z</time>
  <course>324.82</course>
  <speed>1.0</speed>
  <fix>3d</fix>
</trkpt>
<trkpt lat="33.8102737" lon="-118.394401">
  <ele>-40.036</ele>
  <time>2026-09-02T22:11:44Z</time>
  <course>323.45</course>
  <speed>1.0220078277586722</speed>
  <fix>3d</fix>
</trkpt>
<trkpt lat="33.8102719" lon="-118.3943992">
  <ele>-39.0</ele>
  <time>2026-09-02T22:11:44Z</time>
  <course>324.82</course>
  <speed>1.0</speed>
  <fix>3d</fix>
</trkpt>
<trkpt lat="33.8102744" lon="-118.3944016">
  <ele>-40.059</ele>
  <time>2026-09-02T22:11:44Z</time>
  <course>323.44</course>
  <speed>1.0220078277586722</speed>
  <fix>3d</fix>
</trkpt>
<trkpt lat="33.8102734" lon="-118.3944005">
  <ele>-39.04</ele>
  <time>2026-09-02T22:11:44Z</time>
  <course>324.8</course>
  <speed>0.99</speed>
  <fix>3d</fix>
</trkpt>
<trkpt lat="33.8102751" lon="-118.3944023">
  <ele>-40.083</ele>
  <time>2026-09-02T22:11:44Z</time>
  <course>323.45</course>
  <speed>1.0220078277586722</speed>
  <fix>3d</fix>
</trkpt>
<trkpt lat="33.8102734" lon="-118.3944005">
  <ele>-39.04</ele>
  <time>2026-09-02T22:11:44Z</time>
  <course>324.8</course>
  <speed>0.99</speed>
  <fix>3d</fix>
</trkpt>
<trkpt lat="33.8102759" lon="-118.3944029">
  <ele>-40.107</ele>
  <time>2026-09-02T22:11:44Z</time>
  <course>323.45</course>
  <speed>1.0220078277586722</speed>
  <fix>3d</fix>
</trkpt>
<trkpt lat="33.8102748" lon="-118.3944017">
  <ele>-39.08</ele>
  <time>2026-09-02T22:11:44Z</time>
  <course>324.81</course>
  <speed>0.99</speed>
  <fix>3d</fix>
</trkpt>
<trkpt lat="33.8102766" lon="-118.3944035">
  <ele>-40.13</ele>
  <time>2026-09-02T22:11:44Z</time>
  <course>323.46</course>
  <speed>1.0220078277586722</speed>
  <fix>3d</fix>
</trkpt>
<trkpt lat="33.8102748" lon="-118.3944017">
  <ele>-39.08</ele>
  <time>2026-09-02T22:11:44Z</time>
  <course>324.81</course>
  <speed>0.99</speed>
  <fix>3d</fix>
</trkpt>
<trkpt lat="33.8102773" lon="-118.3944041">
  <ele>-40.152</ele>
  <time>2026-09-02T22:11:44Z</time>
  <course>323.48</course>
  <speed>1.0220078277586722</speed>
  <fix>3d</fix>
</trkpt>
<trkpt lat="33.8102763" lon="-118.3944029">
  <ele>-39.13</ele>
  <time>2026-09-02T22:11:44Z</time>
  <course>324.84</course>
  <speed>0.99</speed>
  <fix>3d</fix>
</trkpt>
<trkpt lat="33.8102781" lon="-118.3944048">
  <ele>-40.174</ele>
  <time>2026-09-02T22:11:44Z</time>
  <course>323.49</course>
  <speed>1.0220078277586722</speed>
  <fix>3d</fix>
</trkpt>
<trkpt lat="33.8102763" lon="-118.3944029">
  <ele>-39.13</ele>
  <time>2026-09-02T22:11:44Z</time>
  <course>324.84</course>
  <speed>0.99</speed>
  <fix>3d</fix>
</trkpt>
<trkpt lat="33.8102788" lon="-118.3944054">
  <ele>-40.195</ele>
  <time>2026-09-02T22:11:44Z</time>
  <course>323.49</course>
  <speed>1.0220078277586722</speed>
  <fix>3d</fix>
</trkpt>
<trkpt lat="33.8102778" lon="-118.3944042">
  <ele>-39.17</ele>
  <time>2026-09-02T22:11:44Z</time>
  <course>324.84</course>
  <speed>0.99</speed>
  <fix>3d</fix>
</trkpt>
<trkpt lat="33.8102796" lon="-118.394406">
  <ele>-40.217</ele>
  <time>2026-09-02T22:11:44Z</time>
  <course>323.48</course>
  <speed>1.0220078277586722</speed>
  <fix>3d</fix>
</trkpt>
<trkpt lat="33.8102778" lon="-118.3944042">
  <ele>-39.17</ele>
  <time>2026-09-02T22:11:44Z</time>
  <course>324.84</course>
  <speed>0.99</speed>
  <fix>3d</fix>
</trkpt>
<trkpt lat="33.8102803" lon="-118.3944066">
  <ele>-40.238</ele>
  <time>2026-09-02T22:11:44Z</time>
  <course>323.47</course>
  <speed>1.0220078277586722</speed>
  <fix>3d</fix>
</trkpt>
<trkpt lat="33.8102793" lon="-118.3944054">
  <ele>-39.22</ele>
  <time>2026-09-02T22:11:44Z</time>
  <course>324.81</course>
  <speed>1.0</speed>
  <fix>3d</fix>
</trkpt>
<trkpt lat="33.810281" lon="-118.3944073">
  <ele>-40.259</ele>
  <time>2026-09-02T22:11:44Z</time>
  <course>323.46</course>
  <speed>1.0220078277586722</speed>
  <fix>3d</fix>
</trkpt>
<trkpt lat="33.8102793" lon="-118.3944054">
  <ele>-39.22</ele>
  <time>2026-09-02T22:11:44Z</time>
  <course>324.81</course>
  <speed>1.0</speed>
  <fix>3d</fix>
</trkpt>
<trkpt lat="33.8102818" lon="-118.3944079">
  <ele>-40.28</ele>
  <time>2026-09-02T22:11:44Z</time>
  <course>323.43</course>
  <speed>1.0220078277586722</speed>
  <fix>3d</fix>
</trkpt>
<trkpt lat="33.8102807" lon="-118.3944067">
  <ele>-39.26</ele>
  <time>2026-09-02T22:11:44Z</time>
  <course>324.77</course>
  <speed>1.0</speed>
  <fix>3d</fix>
</trkpt>
<trkpt lat="33.8102825" lon="-118.3944085">
  <ele>-40.3</ele>
  <time>2026-09-02T22:11:44Z</time>
  <course>323.42</course>
  <speed>1.0220078277586722</speed>
  <fix>3d</fix>
</trkpt>
<trkpt lat="33.8102807" lon="-118.3944067">
  <ele>-39.26</ele>
  <time>2026-09-02T22:11:44Z</time>
  <course>324.77</course>
  <speed>1.0</speed>
  <fix>3d</fix>
</trkpt>
<trkpt lat="33.8102832" lon="-118.3944091">
  <ele>-40.32</ele>
  <time>2026-09-02T22:11:44Z</time>
  <course>323.41</course>
  <speed>1.0220078277586722</speed>
  <fix>3d</fix>
</trkpt>
<trkpt lat="33.8102822" lon="-118.3944079">
  <ele>-39.3</ele>
  <time>2026-09-02T22:11:44Z</time>
  <course>324.75</course>
  <speed>1.0</speed>
  <fix>3d</fix>
</trkpt>
<trkpt lat="33.810284" lon="-118.3944098">
  <ele>-40.34</ele>
  <time>2026-09-02T22:11:44Z</time>
  <course>323.41</course>
  <speed>1.0220078277586722</speed>
  <fix>3d</fix>
</trkpt>
<trkpt lat="33.8102822" lon="-118.3944079">
  <ele>-39.3</ele>
  <time>2026-09-02T22:11:44Z</time>
  <course>324.75</course>
  <speed>1.0</speed>
  <fix>3d</fix>
</trkpt>
<trkpt lat="33.8102847" lon="-118.3944104">
  <ele>-40.36</ele>
  <time>2026-09-02T22:11:44Z</time>
  <course>323.4</course>
  <speed>1.0220078277586722</speed>
  <fix>3d</fix>
</trkpt>
<trkpt lat="33.8102837" lon="-118.3944091">
  <ele>-39.34</ele>
  <time>2026-09-02T22:11:44Z</time>
  <course>324.76</course>
  <speed>1.0</speed>
  <fix>3d</fix>
</trkpt>
<trkpt lat="33.8102854" lon="-118.394411">
  <ele>-40.382</ele>
  <time>2026-09-02T22:11:44Z</time>
  <course>323.39</course>
  <speed>1.0220078277586722</speed>
  <fix>3d</fix>
</trkpt>
<trkpt lat="33.8102837" lon="-118.3944091">
  <ele>-39.34</ele>
  <time>2026-09-02T22:11:44Z</time>
  <course>324.76</course>
  <speed>1.0</speed>
  <fix>3d</fix>
</trkpt>
<trkpt lat="33.8102862" lon="-118.3944116">
  <ele>-40.405</ele>
  <time>2026-09-02T22:11:44Z</time>
  <course>323.36</course>
  <speed>1.0220078277586722</speed>
  <fix>3d</fix>
</trkpt>
<trkpt lat="33.8102851" lon="-118.3944104">
  <ele>-39.39</ele>
  <time>2026-09-02T22:11:44Z</time>
  <course>324.72</course>
  <speed>1.0</speed>
  <fix>3d</fix>
</trkpt>
<trkpt lat="33.8102869" lon="-118.3944122">
  <ele>-40.429</ele>
  <time>2026-09-02T22:11:44Z</time>
  <course>323.34</course>
  <speed>1.0220078277586722</speed>
  <fix>3d</fix>
</trkpt>
<trkpt lat="33.8102851" lon="-118.3944104">
  <ele>-39.39</ele>
  <time>2026-09-02T22:11:44Z</time>
  <course>324.72</course>
  <speed>1.0</speed>
  <fix>3d</fix>
</trkpt>
<trkpt lat="33.8102876" lon="-118.3944129">
  <ele>-40.453</ele>
  <time>2026-09-02T22:11:44Z</time>
  <course>323.33</course>
  <speed>1.0220078277586722</speed>
  <fix>3d</fix>
</trkpt>
<trkpt lat="33.8102866" lon="-118.3944117">
  <ele>-39.43</ele>
  <time>2026-09-02T22:11:44Z</time>
  <course>324.69</course>
  <speed>1.0</speed>
  <fix>3d</fix>
</trkpt>
<trkpt lat="33.8102884" lon="-118.3944135">
  <ele>-40.476</ele>
  <time>2026-09-02T22:11:44Z</time>
  <course>323.33</course>
  <speed>1.0220078277586722</speed>
  <fix>3d</fix>
</trkpt>
<trkpt lat="33.8102866" lon="-118.3944117">
  <ele>-39.43</ele>
  <time>2026-09-02T22:11:44Z</time>
  <course>324.69</course>
  <speed>1.0</speed>
  <fix>3d</fix>
</trkpt>
<trkpt lat="33.8102891" lon="-118.3944141">
  <ele>-40.499</ele>
  <time>2026-09-02T22:11:44Z</time>
  <course>323.34</course>
  <speed>1.0220078277586722</speed>
  <fix>3d</fix>
</trkpt>
<trkpt lat="33.810288" lon="-118.3944129">
  <ele>-39.47</ele>
  <time>2026-09-02T22:11:44Z</time>
  <course>324.71</course>
  <speed>1.0</speed>
  <fix>3d</fix>
</trkpt>
<trkpt lat="33.8102898" lon="-118.3944147">
  <ele>-40.523</ele>
  <time>2026-09-02T22:11:44Z</time>
  <course>323.36</course>
  <speed>1.0220078277586722</speed>
  <fix>3d</fix>
</trkpt>
<trkpt lat="33.810288" lon="-118.3944129">
  <ele>-39.47</ele>
  <time>2026-09-02T22:11:44Z</time>
  <course>324.71</course>
  <speed>1.0</speed>
  <fix>3d</fix>
</trkpt>
<trkpt lat="33.8102906" lon="-118.3944154">
  <ele>-40.547</ele>
  <time>2026-09-02T22:11:44Z</time>
  <course>323.38</course>
  <speed>1.0220078277586722</speed>
  <fix>3d</fix>
</trkpt>
<trkpt lat="33.8102895" lon="-118.3944142">
  <ele>-39.52</ele>
  <time>2026-09-02T22:11:44Z</time>
  <course>324.76</course>
  <speed>1.0</speed>
  <fix>3d</fix>
</trkpt>
<trkpt lat="33.8102913" lon="-118.394416">
  <ele>-40.57</ele>
  <time>2026-09-02T22:11:44Z</time>
  <course>323.41</course>
  <speed>1.0220078277586722</speed>
  <fix>3d</fix>
</trkpt>
<trkpt lat="33.8102895" lon="-118.3944142">
  <ele>-39.52</ele>
  <time>2026-09-02T22:11:44Z</time>
  <course>324.76</course>
  <speed>1.0</speed>
  <fix>3d</fix>
</trkpt>
<trkpt lat="33.810292" lon="-118.3944166">
  <ele>-40.592</ele>
  <time>2026-09-02T22:11:44Z</time>
  <course>323.44</course>
  <speed>1.0220078277586722</speed>
  <fix>3d</fix>
</trkpt>
<trkpt lat="33.810291" lon="-118.3944154">
  <ele>-39.56</ele>
  <time>2026-09-02T22:11:44Z</time>
  <course>324.83</course>
  <speed>1.0</speed>
  <fix>3d</fix>
</trkpt>
<trkpt lat="33.8102928" lon="-118.3944172">
  <ele>-40.614</ele>
  <time>2026-09-02T22:11:44Z</time>
  <course>323.46</course>
  <speed>1.0220078277586722</speed>
  <fix>3d</fix>
</trkpt>
<trkpt lat="33.810291" lon="-118.3944154">
  <ele>-39.56</ele>
  <time>2026-09-02T22:11:44Z</time>
  <course>324.83</course>
  <speed>1.0</speed>
  <fix>3d</fix>
</trkpt>
<trkpt lat="33.8102935" lon="-118.3944179">
  <ele>-40.636</ele>
  <time>2026-09-02T22:11:44Z</time>
  <course>323.47</course>
  <speed>1.0220078277586722</speed>
  <fix>3d</fix>
</trkpt>
<trkpt lat="33.8102925" lon="-118.3944167">
  <ele>-39.6</ele>
  <time>2026-09-02T22:11:44Z</time>
  <course>324.85</course>
  <speed>1.0</speed>
  <fix>3d</fix>
</trkpt>
<trkpt lat="33.8102943" lon="-118.3944185">
  <ele>-40.657</ele>
  <time>2026-09-02T22:11:44Z</time>
  <course>323.48</course>
  <speed>1.0220078277586722</speed>
  <fix>3d</fix>
</trkpt>
<trkpt lat="33.8102925" lon="-118.3944167">
  <ele>-39.6</ele>
  <time>2026-09-02T22:11:44Z</time>
  <course>324.85</course>
  <speed>1.0</speed>
  <fix>3d</fix>
</trkpt>
<trkpt lat="33.810295" lon="-118.3944191">
  <ele>-40.678</ele>
  <time>2026-09-02T22:11:44Z</time>
  <course>323.47</course>
  <speed>1.0220078277586722</speed>
  <fix>3d</fix>
</trkpt>
<trkpt lat="33.810294" lon="-118.3944179">
  <ele>-39.65</ele>
  <time>2026-09-02T22:11:44Z</time>
  <course>324.83</course>
  <speed>1.0</speed>
  <fix>3d</fix>
</trkpt>
<trkpt lat="33.8102957" lon="-118.3944197">
  <ele>-40.701</ele>
  <time>2026-09-02T22:11:44Z</time>
  <course>323.47</course>
  <speed>1.0220078277586722</speed>
  <fix>3d</fix>
</trkpt>
<trkpt lat="33.810294" lon="-118.3944179">
  <ele>-39.65</ele>
  <time>2026-09-02T22:11:44Z</time>
  <course>324.83</course>
  <speed>1.0</speed>
  <fix>3d</fix>
</trkpt>
<trkpt lat="33.8102965" lon="-118.3944204">
  <ele>-40.724</ele>
  <time>2026-09-02T22:11:44Z</time>
  <course>323.45</course>
  <speed>1.0220078277586722</speed>
  <fix>3d</fix>
</trkpt>
<trkpt lat="33.8102954" lon="-118.3944191">
  <ele>-39.69</ele>
  <time>2026-09-02T22:11:44Z</time>
  <course>324.8</course>
  <speed>1.0</speed>
  <fix>3d</fix>
</trkpt>
<trkpt lat="33.8102972" lon="-118.394421">
  <ele>-40.746</ele>
  <time>2026-09-02T22:11:44Z</time>
  <course>323.43</course>
  <speed>1.0220078277586722</speed>
  <fix>3d</fix>
</trkpt>
<trkpt lat="33.8102954" lon="-118.3944191">
  <ele>-39.69</ele>
  <time>2026-09-02T22:11:44Z</time>
  <course>324.8</course>
  <speed>1.0</speed>
  <fix>3d</fix>
</trkpt>
<trkpt lat="33.8102979" lon="-118.3944216">
  <ele>-40.769</ele>
  <time>2026-09-02T22:11:44Z</time>
  <course>323.41</course>
  <speed>1.0220078277586722</speed>
  <fix>3d</fix>
</trkpt>
<trkpt lat="33.8102969" lon="-118.3944204">
  <ele>-39.73</ele>
  <time>2026-09-02T22:11:44Z</time>
  <course>324.76</course>
  <speed>0.99</speed>
  <fix>3d</fix>
</trkpt>
<trkpt lat="33.8102987" lon="-118.3944222">
  <ele>-40.791</ele>
  <time>2026-09-02T22:11:44Z</time>
  <course>323.38</course>
  <speed>1.0220078277586722</speed>
  <fix>3d</fix>
</trkpt>
<trkpt lat="33.8102969" lon="-118.3944204">
  <ele>-39.73</ele>
  <time>2026-09-02T22:11:44Z</time>
  <course>324.76</course>
  <speed>0.99</speed>
  <fix>3d</fix>
</trkpt>
<trkpt lat="33.8102994" lon="-118.3944229">
  <ele>-40.813</ele>
  <time>2026-09-02T22:11:44Z</time>
  <course>323.37</course>
  <speed>1.0220078277586722</speed>
  <fix>3d</fix>
</trkpt>
<trkpt lat="33.8102984" lon="-118.3944216">
  <ele>-39.77</ele>
  <time>2026-09-02T22:11:44Z</time>
  <course>324.73</course>
  <speed>0.99</speed>
  <fix>3d</fix>
</trkpt>
<trkpt lat="33.8103001" lon="-118.3944235">
  <ele>-40.834</ele>
  <time>2026-09-02T22:11:44Z</time>
  <course>323.36</course>
  <speed>1.0220078277586722</speed>
  <fix>3d</fix>
</trkpt>
<trkpt lat="33.8102984" lon="-118.3944216">
  <ele>-39.77</ele>
  <time>2026-09-02T22:11:44Z</time>
  <course>324.73</course>
  <speed>0.99</speed>
  <fix>3d</fix>
</trkpt>
<trkpt lat="33.8103009" lon="-118.3944241">
  <ele>-40.856</ele>
  <time>2026-09-02T22:11:44Z</time>
  <course>323.33</course>
  <speed>1.0220078277586722</speed>
  <fix>3d</fix>
</trkpt>
<trkpt lat="33.8102998" lon="-118.3944229">
  <ele>-39.82</ele>
  <time>2026-09-02T22:11:44Z</time>
  <course>324.7</course>
  <speed>0.99</speed>
  <fix>3d</fix>
</trkpt>
<trkpt lat="33.8103016" lon="-118.3944247">
  <ele>-40.876</ele>
  <time>2026-09-02T22:11:44Z</time>
  <course>323.31</course>
  <speed>1.0220078277586722</speed>
  <fix>3d</fix>
</trkpt>
<trkpt lat="33.8102998" lon="-118.3944229">
  <ele>-39.82</ele>
  <time>2026-09-02T22:11:44Z</time>
  <course>324.7</course>
  <speed>0.99</speed>
  <fix>3d</fix>
</trkpt>
<trkpt lat="33.8103023" lon="-118.3944254">
  <ele>-40.897</ele>
  <time>2026-09-02T22:11:44Z</time>
  <course>323.31</course>
  <speed>1.0220078277586722</speed>
  <fix>3d</fix>
</trkpt>
<trkpt lat="33.8103013" lon="-118.3944242">
  <ele>-39.86</ele>
  <time>2026-09-02T22:11:44Z</time>
  <course>324.69</course>
  <speed>0.99</speed>
  <fix>3d</fix>
</trkpt>
<trkpt lat="33.8103031" lon="-118.394426">
  <ele>-40.918</ele>
  <time>2026-09-02T22:11:44Z</time>
  <course>323.32</course>
  <speed>1.0080178569846865</speed>
  <fix>3d</fix>
</trkpt>
<trkpt lat="33.8103013" lon="-118.3944242">
  <ele>-39.86</ele>
  <time>2026-09-02T22:11:44Z</time>
  <course>324.69</course>
  <speed>0.99</speed>
  <fix>3d</fix>
</trkpt>
<trkpt lat="33.8103038" lon="-118.3944266">
  <ele>-40.939</ele>
  <time>2026-09-02T22:11:44Z</time>
  <course>323.34</course>
  <speed>0.9940321926376429</speed>
  <fix>3d</fix>
</trkpt>
<trkpt lat="33.8103028" lon="-118.3944254">
  <ele>-39.9</ele>
  <time>2026-09-02T22:11:44Z</time>
  <course>324.72</course>
  <speed>0.99</speed>
  <fix>3d</fix>
</trkpt>
<trkpt lat="33.8103045" lon="-118.3944272">
  <ele>-40.96</ele>
  <time>2026-09-02T22:11:44Z</time>
  <course>323.36</course>
  <speed>0.9720082304178294</speed>
  <fix>3d</fix>
</trkpt>
<trkpt lat="33.8103028" lon="-118.3944254">
  <ele>-39.9</ele>
  <time>2026-09-02T22:11:44Z</time>
  <course>324.72</course>
  <speed>0.99</speed>
  <fix>3d</fix>
</trkpt>
<trkpt lat="33.8103052" lon="-118.3944278">
  <ele>-40.981</ele>
  <time>2026-09-02T22:11:44Z</time>
  <course>323.36</course>
  <speed>0.9360021367496978</speed>
  <fix>3d</fix>
</trkpt>
<trkpt lat="33.8103042" lon="-118.3944267">
  <ele>-39.95</ele>
  <time>2026-09-02T22:11:44Z</time>
  <course>324.75</course>
  <speed>0.96</speed>
  <fix>3d</fix>
</trkpt>
<trkpt lat="33.8103059" lon="-118.3944284">
  <ele>-41.001</ele>
  <time>2026-09-02T22:11:44Z</time>
  <course>323.34</course>
  <speed>0.9</speed>
  <fix>3d</fix>
</trkpt>
<trkpt lat="33.8103042" lon="-118.3944267">
  <ele>-39.95</ele>
  <time>2026-09-02T22:11:44Z</time>
  <course>324.75</course>
  <speed>0.96</speed>
  <fix>3d</fix>
</trkpt>
<trkpt lat="33.8103065" lon="-118.3944289">
  <ele>-41.02</ele>
  <time>2026-09-02T22:11:44Z</time>
  <course>323.31</course>
  <speed>0.85</speed>
  <fix>3d</fix>
</trkpt>
<trkpt lat="33.8103056" lon="-118.3944278">
  <ele>-39.98</ele>
  <time>2026-09-02T22:11:44Z</time>
  <course>324.75</course>
  <speed>0.9</speed>
  <fix>3d</fix>
</trkpt>
<trkpt lat="33.8103071" lon="-118.3944294">
  <ele>-41.038</ele>
  <time>2026-09-02T22:11:44Z</time>
  <course>323.29</course>
  <speed>0.8</speed>
  <fix>3d</fix>
</trkpt>
<trkpt lat="33.8103056" lon="-118.3944278">
  <ele>-39.98</ele>
  <time>2026-09-02T22:11:44Z</time>
  <course>324.75</course>
  <speed>0.9</speed>
  <fix>3d</fix>
</trkpt>
<trkpt lat="33.8103077" lon="-118.3944299">
  <ele>-41.055</ele>
  <time>2026-09-02T22:11:44Z</time>
  <course>323.23</course>
  <speed>0.742024258363566</speed>
  <fix>3d</fix>
</trkpt>
<trkpt lat="33.8103069" lon="-118.3944289">
  <ele>-40.03</ele>
  <time>2026-09-02T22:11:44Z</time>
  <course>324.77</course>
  <speed>0.81</speed>
  <fix>3d</fix>
</trkpt>
<trkpt lat="33.8103082" lon="-118.3944303">
  <ele>-41.068</ele>
  <time>2026-09-02T22:11:44Z</time>
  <course>323.12</course>
  <speed>0.6780117993073571</speed>
  <fix>3d</fix>
</trkpt>
<trkpt lat="33.8103069" lon="-118.3944289">
  <ele>-40.03</ele>
  <time>2026-09-02T22:11:44Z</time>
  <course>324.77</course>
  <speed>0.81</speed>
  <fix>3d</fix>
</trkpt>
<trkpt lat="33.8103086" lon="-118.3944307">
  <ele>-41.081</ele>
  <time>2026-09-02T22:11:44Z</time>
  <course>322.95</course>
  <speed>0.6060528029800704</speed>
  <fix>3d</fix>
</trkpt>
<trkpt lat="33.810308" lon="-118.3944298">
  <ele>-40.05</ele>
  <time>2026-09-02T22:11:44Z</time>
  <course>324.74</course>
  <speed>0.7</speed>
  <fix>3d</fix>
</trkpt>
<trkpt lat="33.810309" lon="-118.394431">
  <ele>-41.09</ele>
  <time>2026-09-02T22:11:44Z</time>
  <course>322.7</course>
  <speed>0.5341348144429456</speed>
  <fix>3d</fix>
</trkpt>
<trkpt lat="33.810308" lon="-118.3944298">
  <ele>-40.05</ele>
  <time>2026-09-02T22:11:44Z</time>
  <course>324.74</course>
  <speed>0.7</speed>
  <fix>3d</fix>
</trkpt>
<trkpt lat="33.8103094" lon="-118.3944313">
  <ele>-41.095</ele>
  <time>2026-09-02T22:11:44Z</time>
  <course>322.33</course>
  <speed>0.47010637094172636</speed>
  <fix>3d</fix>
</trkpt>
<trkpt lat="33.8103088" lon="-118.3944306">
  <ele>-40.08</ele>
  <time>2026-09-02T22:11:44Z</time>
  <course>324.65</course>
  <speed>0.56</speed>
  <fix>3d</fix>
</trkpt>
<trkpt lat="33.8103097" lon="-118.3944316">
  <ele>-41.094</ele>
  <time>2026-09-02T22:11:44Z</time>
  <course>321.81</course>
  <speed>0.41231056256176607</speed>
  <fix>3d</fix>
</trkpt>
<trkpt lat="33.8103088" lon="-118.3944306">
  <ele>-40.08</ele>
  <time>2026-09-02T22:11:44Z</time>
  <course>324.65</course>
  <speed>0.56</speed>
  <fix>3d</fix>
</trkpt>
<trkpt lat="33.81031" lon="-118.3944318">
  <ele>-41.089</ele>
  <time>2026-09-02T22:11:44Z</time>
  <course>321.04</course>
  <speed>0.36235341863986875</speed>
  <fix>3d</fix>
</trkpt>
<trkpt lat="33.8103096" lon="-118.3944312">
  <ele>-40.09</ele>
  <time>2026-09-02T22:11:44Z</time>
  <course>324.57</course>
  <speed>0.43</speed>
  <fix>3d</fix>
</trkpt>
<trkpt lat="33.8103102" lon="-118.394432">
  <ele>-41.078</ele>
  <time>2026-09-02T22:11:44Z</time>
  <course>320.02</course>
  <speed>0.32015621187164245</speed>
  <fix>3d</fix>
</trkpt>
<trkpt lat="33.8103096" lon="-118.3944312">
  <ele>-40.09</ele>
  <time>2026-09-02T22:11:44Z</time>
  <course>324.57</course>
  <speed>0.43</speed>
  <fix>3d</fix>
</trkpt>
<trkpt lat="33.8103104" lon="-118.3944322">
  <ele>-41.065</ele>
  <time>2026-09-02T22:11:44Z</time>
  <course>319.09</course>
  <speed>0.2842534080710379</speed>
  <fix>3d</fix>
</trkpt>
<trkpt lat="33.8103102" lon="-118.3944317">
  <ele>-40.09</ele>
  <time>2026-09-02T22:11:44Z</time>
  <course>324.51</course>
  <speed>0.33</speed>
  <fix>3d</fix>
</trkpt>
<trkpt lat="33.8103106" lon="-118.3944324">
  <ele>-41.05</ele>
  <time>2026-09-02T22:11:44Z</time>
  <course>318.89</course>
  <speed>0.24839484696748443</speed>
  <fix>3d</fix>
</trkpt>
<trkpt lat="33.8103102" lon="-118.3944317">
  <ele>-40.09</ele>
  <time>2026-09-02T22:11:44Z</time>
  <course>324.51</course>
  <speed>0.33</speed>
  <fix>3d</fix>
</trkpt>
<trkpt lat="33.8103108" lon="-118.3944325">
  <ele>-41.033</ele>
  <time>2026-09-02T22:11:44Z</time>
  <course>319.03</course>
  <speed>0.212602916254693</speed>
  <fix>3d</fix>
</trkpt>
<trkpt lat="33.8103106" lon="-118.3944321">
  <ele>-40.06</ele>
  <time>2026-09-02T22:11:44Z</time>
  <course>324.32</course>
  <speed>0.25</speed>
  <fix>3d</fix>
</trkpt>
<trkpt lat="33.8103109" lon="-118.3944326">
  <ele>-41.013</ele>
  <time>2026-09-02T22:11:44Z</time>
  <course>317.83</course>
  <speed>0.1697056274847714</speed>
  <fix>3d</fix>
</trkpt>
<trkpt lat="33.8103106" lon="-118.3944321">
  <ele>-40.06</ele>
  <time>2026-09-02T22:11:44Z</time>
  <course>324.32</course>
  <speed>0.25</speed>
  <fix>3d</fix>
</trkpt>
<trkpt lat="33.810311" lon="-118.3944327">
  <ele>-40.993</ele>
  <time>2026-09-02T22:11:44Z</time>
  <course>315.26</course>
  <speed>0.1345362404707371</speed>
  <fix>3d</fix>
</trkpt>
<trkpt lat="33.8103109" lon="-118.3944324">
  <ele>-40.03</ele>
  <time>2026-09-02T22:11:44Z</time>
  <course>323.33</course>
  <speed>0.17</speed>
  <fix>3d</fix>
</trkpt>
<trkpt lat="33.8103111" lon="-118.3944328">
  <ele>-40.972</ele>
  <time>2026-09-02T22:11:44Z</time>
  <course>312.08</course>
  <speed>0.11401754250991379</speed>
  <fix>3d</fix>
</trkpt>
<trkpt lat="33.8103109" lon="-118.3944324">
  <ele>-40.03</ele>
  <time>2026-09-02T22:11:44Z</time>
  <course>323.33</course>
  <speed>0.17</speed>
  <fix>3d</fix>
</trkpt>
<trkpt lat="33.8103112" lon="-118.3944329">
  <ele>-40.952</ele>
  <time>2026-09-02T22:11:44Z</time>
  <course>308.56</course>
  <speed>0.08602325267042626</speed>
  <fix>3d</fix>
</trkpt>
<trkpt lat="33.8103111" lon="-118.3944325">
  <ele>-40.0</ele>
  <time>2026-09-02T22:11:44Z</time>
  <course>320.75</course>
  <speed>0.1</speed>
  <fix>3d</fix>
</trkpt>
<trkpt lat="33.8103112" lon="-118.3944329">
  <ele>-40.934</ele>
  <time>2026-09-02T22:11:44Z</time>
  <course>304.79</course>
  <speed>0.07211102550927978</speed>
  <fix>3d</fix>
</trkpt>
<trkpt lat="33.8103111" lon="-118.3944325">
  <ele>-40.0</ele>
  <time>2026-09-02T22:11:44Z</time>
  <course>320.75</course>
  <speed>0.1</speed>
  <fix>3d</fix>
</trkpt>
<trkpt lat="33.8103112" lon="-118.3944329">
  <ele>-40.917</ele>
  <time>2026-09-02T22:11:44Z</time>
  <course>300.82</course>
  <speed>0.03605551275463989</speed>
  <fix>3d</fix>
</trkpt>
<trkpt lat="33.8103112" lon="-118.3944326">
  <ele>-39.96</ele>
  <time>2026-09-02T22:11:44Z</time>
  <course>318.19</course>
  <speed>0.05</speed>
  <fix>3d</fix>
</trkpt>
<trkpt lat="33.8103113" lon="-118.3944329">
  <ele>-40.903</ele>
  <time>2026-09-02T22:11:44Z</time>
  <course>296.65</course>
  <speed>0.01</speed>
  <fix>3d</fix>
</trkpt>
<trkpt lat="33.8103112" lon="-118.3944326">
  <ele>-39.96</ele>
  <time>2026-09-02T22:11:44Z</time>
  <course>318.19</course>
  <speed>0.05</speed>
  <fix>3d</fix>
</trkpt>
<trkpt lat="33.8103113" lon="-118.3944329">
  <ele>-40.895</ele>
  <time>2026-09-02T22:11:44Z</time>
  <course>292.38</course>
  <speed>0.022360679774997897</speed>
  <fix>3d</fix>
</trkpt>
<trkpt lat="33.8103112" lon="-118.3944327">
  <ele>-39.94</ele>
  <time>2026-09-02T22:11:44Z</time>
  <course>41.72</course>
  <speed>0.01</speed>
  <fix>3d</fix>
</trkpt>
<trkpt lat="33.8103113" lon="-118.3944329">
  <ele>-40.891</ele>
  <time>2026-09-02T22:11:44Z</time>
  <course>287.97</course>
  <speed>0.06</speed>
  <fix>3d</fix>
</trkpt>
<trkpt lat="33.8103112" lon="-118.3944327">
  <ele>-39.94</ele>
  <time>2026-09-02T22:11:44Z</time>
  <course>41.72</course>
  <speed>0.01</speed>
  <fix>3d</fix>
</trkpt>
<trkpt lat="33.8103113" lon="-118.3944328">
  <ele>-40.891</ele>
  <time>2026-09-02T22:11:44Z</time>
  <course>283.45</course>
  <speed>0.11</speed>
  <fix>3d</fix>
</trkpt>
<trkpt lat="33.8103112" lon="-118.3944325">
  <ele>-39.92</ele>
  <time>2026-09-02T22:11:44Z</time>
  <course>97.1</course>
  <speed>0.07</speed>
  <fix>3d</fix>
</trkpt>
<trkpt lat="33.8103112" lon="-118.3944326">
  <ele>-40.894</ele>
  <time>2026-09-02T22:11:44Z</time>
  <course>278.82</course>
  <speed>0.15</speed>
  <fix>3d</fix>
</trkpt>
<trkpt lat="33.8103112" lon="-118.3944325">
  <ele>-39.92</ele>
  <time>2026-09-02T22:11:44Z</time>
  <course>97.1</course>
  <speed>0.07</speed>
  <fix>3d</fix>
</trkpt>
<trkpt lat="33.8103112" lon="-118.3944324">
  <ele>-40.901</ele>
  <time>2026-09-02T22:11:44Z</time>
  <course>274.09</course>
  <speed>0.19</speed>
  <fix>3d</fix>
</trkpt>
<trkpt lat="33.8103112" lon="-118.3944324">
  <ele>-39.92</ele>
  <time>2026-09-02T22:11:44Z</time>
  <course>96.77</course>
  <speed>0.15</speed>
  <fix>3d</fix>
</trkpt>
<trkpt lat="33.8103112" lon="-118.3944321">
  <ele>-40.91</ele>
  <time>2026-09-02T22:11:44Z</time>
  <course>269.25</course>
  <speed>0.23</speed>
  <fix>3d</fix>
</trkpt>
<trkpt lat="33.8103112" lon="-118.3944324">
  <ele>-39.92</ele>
  <time>2026-09-02T22:11:44Z</time>
  <course>96.77</course>
  <speed>0.15</speed>
  <fix>3d</fix>
</trkpt>
<trkpt lat="33.8103112" lon="-118.3944318">
  <ele>-40.918</ele>
  <time>2026-09-02T22:11:44Z</time>
  <course>264.32</course>
  <speed>0.27</speed>
  <fix>3d</fix>
</trkpt>
<trkpt lat="33.8103112" lon="-118.394432">
  <ele>-39.92</ele>
  <time>2026-09-02T22:11:44Z</time>
  <course>95.19</course>
  <speed>0.24</speed>
  <fix>3d</fix>
</trkpt>
<trkpt lat="33.8103112" lon="-118.3944315">
  <ele>-40.927</ele>
  <time>2026-09-02T22:11:44Z</time>
  <course>259.28</course>
  <speed>0.32</speed>
  <fix>3d</fix>
</trkpt>
<trkpt lat="33.8103112" lon="-118.394432">
  <ele>-39.92</ele>
  <time>2026-09-02T22:11:44Z</time>
  <course>95.19</course>
  <speed>0.24</speed>
  <fix>3d</fix>
</trkpt>
<trkpt lat="33.8103112" lon="-118.3944311">
  <ele>-40.934</ele>
  <time>2026-09-02T22:11:44Z</time>
  <course>254.14</course>
  <speed>0.36</speed>
  <fix>3d</fix>
</trkpt>
<trkpt lat="33.8103112" lon="-118.3944314">
  <ele>-39.94</ele>
  <time>2026-09-02T22:11:44Z</time>
  <course>94.11</course>
  <speed>0.33</speed>
  <fix>3d</fix>
</trkpt>
<trkpt lat="33.8103112" lon="-118.3944306">
  <ele>-40.941</ele>
  <time>2026-09-02T22:11:44Z</time>
  <course>248.92</course>
  <speed>0.4</speed>
  <fix>3d</fix>
</trkpt>
<trkpt lat="33.8103112" lon="-118.3944314">
  <ele>-39.94</ele>
  <time>2026-09-02T22:11:44Z</time>
  <course>94.11</course>
  <speed>0.33</speed>
  <fix>3d</fix>
</trkpt>
<trkpt lat="33.8103112" lon="-118.3944302">
  <ele>-40.946</ele>
  <time>2026-09-02T22:11:44Z</time>
  <course>243.61</course>
  <speed>0.44</speed>
  <fix>3d</fix>
</trkpt>
<trkpt lat="33.8103112" lon="-118.3944306">
  <ele>-39.95</ele>
  <time>2026-09-02T22:11:44Z</time>
  <course>93.42</course>
  <speed>0.41</speed>
  <fix>3d</fix>
</trkpt>
<trkpt lat="33.8103112" lon="-118.3944296">
  <ele>-40.949</ele>
  <time>2026-09-02T22:11:44Z</time>
  <course>238.23</course>
  <speed>0.48</speed>
  <fix>3d</fix>
</trkpt>
<trkpt lat="33.8103112" lon="-118.3944306">
  <ele>-39.95</ele>
  <time>2026-09-02T22:11:44Z</time>
  <course>93.42</course>
  <speed>0.41</speed>
  <fix>3d</fix>
</trkpt>
<trkpt lat="33.8103112" lon="-118.3944291">
  <ele>-40.949</ele>
  <time>2026-09-02T22:11:44Z</time>
  <course>232.78</course>
  <speed>0.51</speed>
  <fix>3d</fix>
</trkpt>
<trkpt lat="33.8103112" lon="-118.3944296">
  <ele>-39.96</ele>
  <time>2026-09-02T22:11:44Z</time>
  <course>92.72</course>
  <speed>0.49</speed>
  <fix>3d</fix>
</trkpt>
<trkpt lat="33.8103112" lon="-118.3944285">
  <ele>-40.944</ele>
  <time>2026-09-02T22:11:44Z</time>
  <course>227.26</course>
  <speed>0.53</speed>
  <fix>3d</fix>
</trkpt>
<trkpt lat="33.8103112" lon="-118.3944296">
  <ele>-39.96</ele>
  <time>2026-09-02T22:11:44Z</time>
  <course>92.72</course>
  <speed>0.49</speed>
  <fix>3d</fix>
</trkpt>
<trkpt lat="33.8103112" lon="-118.3944279">
  <ele>-40.936</ele>
  <time>2026-09-02T22:11:44Z</time>
  <course>221.67</course>
  <speed>0.56</speed>
  <fix>3d</fix>
</trkpt>
<trkpt lat="33.8103112" lon="-118.3944284">
  <ele>-39.96</ele>
  <time>2026-09-02T22:11:44Z</time>
  <course>91.84</course>
  <speed>0.56</speed>
  <fix>3d</fix>
</trkpt>
<trkpt lat="33.8103112" lon="-118.3944272">
  <ele>-40.923</ele>
  <time>2026-09-02T22:11:44Z</time>
  <course>216.0</course>
  <speed>0.57</speed>
  <fix>3d</fix>
</trkpt>
<trkpt lat="33.8103112" lon="-118.3944284">
  <ele>-39.96</ele>
  <time>2026-09-02T22:11:44Z</time>
  <course>91.84</course>
  <speed>0.56</speed>
  <fix>3d</fix>
</trkpt>
<trkpt lat="33.8103112" lon="-118.3944266">
  <ele>-40.908</ele>
  <time>2026-09-02T22:11:44Z</time>
  <course>210.24</course>
  <speed>0.5900847396772771</speed>
  <fix>3d</fix>
</trkpt>
<trkpt lat="33.8103111" lon="-118.3944271">
  <ele>-39.94</ele>
  <time>2026-09-02T22:11:44Z</time>
  <course>90.93</course>
  <speed>0.61</speed>
  <fix>3d</fix>
</trkpt>
<trkpt lat="33.8103112" lon="-118.3944259">
  <ele>-40.89</ele>
  <time>2026-09-02T22:11:44Z</time>
  <course>204.39</course>
  <speed>0.6000833275470999</speed>
  <fix>3d</fix>
</trkpt>
<trkpt lat="33.8103111" lon="-118.3944271">
  <ele>-39.94</ele>
  <time>2026-09-02T22:11:44Z</time>
  <course>90.93</course>
  <speed>0.61</speed>
  <fix>3d</fix>
</trkpt>
<trkpt lat="33.8103112" lon="-118.3944252">
  <ele>-40.871</ele>
  <time>2026-09-02T22:11:44Z</time>
  <course>198.44</course>
  <speed>0.6100819617067857</speed>
  <fix>3d</fix>
</trkpt>
<trkpt lat="33.8103111" lon="-118.3944258">
  <ele>-39.92</ele>
  <time>2026-09-02T22:11:44Z</time>
  <course>90.25</course>
  <speed>0.64</speed>
  <fix>3d</fix>
</trkpt>
<trkpt lat="33.8103112" lon="-118.3944245">
  <ele>-40.851</ele>
  <time>2026-09-02T22:11:44Z</time>
  <course>192.4</course>
  <speed>0.61</speed>
  <fix>3d</fix>
</trkpt>
<trkpt lat="33.8103111" lon="-118.3944258">
  <ele>-39.92</ele>
  <time>2026-09-02T22:11:44Z</time>
  <course>90.25</course>
  <speed>0.64</speed>
  <fix>3d</fix>
</trkpt>
<trkpt lat="33.8103112" lon="-118.3944238">
  <ele>-40.829</ele>
  <time>2026-09-02T22:11:44Z</time>
  <course>186.22</course>
  <speed>0.62</speed>
  <fix>3d</fix>
</trkpt>
<trkpt lat="33.8103111" lon="-118.3944244">
  <ele>-39.88</ele>
  <time>2026-09-02T22:11:44Z</time>
  <course>90.17</course>
  <speed>0.66</speed>
  <fix>3d</fix>
</trkpt>
<trkpt lat="33.8103112" lon="-118.3944231">
  <ele>-40.808</ele>
  <time>2026-09-02T22:11:44Z</time>
  <course>180.04</course>
  <speed>0.62</speed>
  <fix>3d</fix>
</trkpt>
<trkpt lat="33.8103111" lon="-118.3944244">
  <ele>-39.88</ele>
  <time>2026-09-02T22:11:44Z</time>
  <course>90.17</course>
  <speed>0.66</speed>
  <fix>3d</fix>
</trkpt>
<trkpt lat="33.8103112" lon="-118.3944224">
  <ele>-40.787</ele>
  <time>2026-09-02T22:11:44Z</time>
  <course>173.82</course>
  <speed>0.630317380372777</speed>
  <fix>3d</fix>
</trkpt>
<trkpt lat="33.8103111" lon="-118.3944229">
  <ele>-39.84</ele>
  <time>2026-09-02T22:11:44Z</time>
  <course>91.06</course>
  <speed>0.67</speed>
  <fix>3d</fix>
</trkpt>
<trkpt lat="33.8103112" lon="-118.3944216">
  <ele>-40.766</ele>
  <time>2026-09-02T22:11:44Z</time>
  <course>167.62</course>
  <speed>0.630317380372777</speed>
  <fix>3d</fix>
</trkpt>
<trkpt lat="33.8103111" lon="-118.3944229">
  <ele>-39.84</ele>
  <time>2026-09-02T22:11:44Z</time>
  <course>91.06</course>
  <speed>0.67</speed>
  <fix>3d</fix>
</trkpt>
<trkpt lat="33.8103111" lon="-118.3944209">
  <ele>-40.748</ele>
  <time>2026-09-02T22:11:44Z</time>
  <course>161.43</course>
  <speed>0.6407027391856539</speed>
  <fix>3d</fix>
</trkpt>
<trkpt lat="33.8103111" lon="-118.3944215">
  <ele>-39.8</ele>
  <time>2026-09-02T22:11:44Z</time>
  <course>92.49</course>
  <speed>0.67</speed>
  <fix>3d</fix>
</trkpt>
<trkpt lat="33.8103111" lon="-118.3944202">
  <ele>-40.731</ele>
  <time>2026-09-02T22:11:44Z</time>
  <course>155.28</course>
  <speed>0.6506919393998976</speed>
  <fix>3d</fix>
</trkpt>
<trkpt lat="33.8103111" lon="-118.3944215">
  <ele>-39.8</ele>
  <time>2026-09-02T22:11:44Z</time>
  <course>92.49</course>
  <speed>0.67</speed>
  <fix>3d</fix>
</trkpt>
<trkpt lat="33.810311" lon="-118.3944194">
  <ele>-40.715</ele>
  <time>2026-09-02T22:11:44Z</time>
  <course>149.15</course>
  <speed>0.6606814663663572</speed>
  <fix>3d</fix>
</trkpt>
<trkpt lat="33.810311" lon="-118.39442">
  <ele>-39.77</ele>
  <time>2026-09-02T22:11:44Z</time>
  <course>93.25</course>
  <speed>0.69</speed>
  <fix>3d</fix>
</trkpt>
<trkpt lat="33.810311" lon="-118.3944186">
  <ele>-40.701</ele>
  <time>2026-09-02T22:11:44Z</time>
  <course>143.18</course>
  <speed>0.6702984409947557</speed>
  <fix>3d</fix>
</trkpt>
<trkpt lat="33.810311" lon="-118.39442">
  <ele>-39.77</ele>
  <time>2026-09-02T22:11:44Z</time>
  <course>93.25</course>
  <speed>0.69</speed>
  <fix>3d</fix>
</trkpt>
<trkpt lat="33.810311" lon="-118.3944179">
  <ele>-40.689</ele>
  <time>2026-09-02T22:11:44Z</time>
  <course>137.69</course>
  <speed>0.6700746227100381</speed>
  <fix>3d</fix>
</trkpt>
<trkpt lat="33.8103109" lon="-118.3944185">
  <ele>-39.73</ele>
  <time>2026-09-02T22:11:44Z</time>
  <course>92.83</course>
  <speed>0.7</speed>
  <fix>3d</fix>
</trkpt>
<trkpt lat="33.810311" lon="-118.3944171">
  <ele>-40.681</ele>
  <time>2026-09-02T22:11:44Z</time>
  <course>132.74</course>
  <speed>0.66007575322837</speed>
  <fix>3d</fix>
</trkpt>
<trkpt lat="33.8103109" lon="-118.3944185">
  <ele>-39.73</ele>
  <time>2026-09-02T22:11:44Z</time>
  <course>92.83</course>
  <speed>0.7</speed>
  <fix>3d</fix>
</trkpt>
<trkpt lat="33.810311" lon="-118.3944163">
  <ele>-40.674</ele>
  <time>2026-09-02T22:11:44Z</time>
  <course>128.08</course>
  <speed>0.66</speed>
  <fix>3d</fix>
</trkpt>
<trkpt lat="33.8103109" lon="-118.394417">
  <ele>-39.72</ele>
  <time>2026-09-02T22:11:44Z</time>
  <course>91.71</course>
  <speed>0.7</speed>
  <fix>3d</fix>
</trkpt>
<trkpt lat="33.810311" lon="-118.3944156">
  <ele>-40.669</ele>
  <time>2026-09-02T22:11:44Z</time>
  <course>123.69</course>
  <speed>0.65</speed>
  <fix>3d</fix>
</trkpt>
<trkpt lat="33.8103109" lon="-118.394417">
  <ele>-39.72</ele>
  <time>2026-09-02T22:11:44Z</time>
  <course>91.71</course>
  <speed>0.7</speed>
  <fix>3d</fix>
</trkpt>
<trkpt lat="33.810311" lon="-118.3944148">
  <ele>-40.666</ele>
  <time>2026-09-02T22:11:44Z</time>
  <course>119.49</course>
  <speed>0.6500769185258002</speed>
  <fix>3d</fix>
</trkpt>
<trkpt lat="33.8103109" lon="-118.3944154">
  <ele>-39.7</ele>
  <time>2026-09-02T22:11:44Z</time>
  <course>90.32</course>
  <speed>0.69</speed>
  <fix>3d</fix>
</trkpt>
<trkpt lat="33.810311" lon="-118.3944141">
  <ele>-40.664</ele>
  <time>2026-09-02T22:11:44Z</time>
  <course>115.48</course>
  <speed>0.6403124237432849</speed>
  <fix>3d</fix>
</trkpt>
<trkpt lat="33.8103109" lon="-118.3944154">
  <ele>-39.7</ele>
  <time>2026-09-02T22:11:44Z</time>
  <course>90.32</course>
  <speed>0.69</speed>
  <fix>3d</fix>
</trkpt>
<trkpt lat="33.810311" lon="-118.3944134">
  <ele>-40.663</ele>
  <time>2026-09-02T22:11:44Z</time>
  <course>111.58</course>
  <speed>0.630317380372777</speed>
  <fix>3d</fix>
</trkpt>
<trkpt lat="33.8103109" lon="-118.394414">
  <ele>-39.69</ele>
  <time>2026-09-02T22:11:44Z</time>
  <course>88.8</course>
  <speed>0.67</speed>
  <fix>3d</fix>
</trkpt>
<trkpt lat="33.810311" lon="-118.3944127">
  <ele>-40.663</ele>
  <time>2026-09-02T22:11:44Z</time>
  <course>107.96</course>
  <speed>0.6207253821135398</speed>
  <fix>3d</fix>
</trkpt>
<trkpt lat="33.8103109" lon="-118.394414">
  <ele>-39.69</ele>
  <time>2026-09-02T22:11:44Z</time>
  <course>88.8</course>
  <speed>0.67</speed>
  <fix>3d</fix>
</trkpt>
<trkpt lat="33.810311" lon="-118.3944119">
  <ele>-40.664</ele>
  <time>2026-09-02T22:11:44Z</time>
  <course>104.84</course>
  <speed>0.620322496770833</speed>
  <fix>3d</fix>
</trkpt>
<trkpt lat="33.8103109" lon="-118.3944125">
  <ele>-39.69</ele>
  <time>2026-09-02T22:11:44Z</time>
  <course>87.64</course>
  <speed>0.66</speed>
  <fix>3d</fix>
</trkpt>
<trkpt lat="33.810311" lon="-118.3944112">
  <ele>-40.665</ele>
  <time>2026-09-02T22:11:44Z</time>
  <course>102.52</course>
  <speed>0.620322496770833</speed>
  <fix>3d</fix>
</trkpt>
<trkpt lat="33.8103109" lon="-118.3944125">
  <ele>-39.69</ele>
  <time>2026-09-02T22:11:44Z</time>
  <course>87.64</course>
  <speed>0.66</speed>
  <fix>3d</fix>
</trkpt>
<trkpt lat="33.810311" lon="-118.3944105">
  <ele>-40.666</ele>
  <time>2026-09-02T22:11:44Z</time>
  <course>100.99</course>
  <speed>0.6200806399170998</speed>
  <fix>3d</fix>
</trkpt>
<trkpt lat="33.8103109" lon="-118.3944111">
  <ele>-39.69</ele>
  <time>2026-09-02T22:11:44Z</time>
  <course>87.65</course>
  <speed>0.64</speed>
  <fix>3d</fix>
</trkpt>
<trkpt lat="33.810311" lon="-118.3944098">
  <ele>-40.667</ele>
  <time>2026-09-02T22:11:44Z</time>
  <course>100.11</course>
  <speed>0.6200806399170998</speed>
  <fix>3d</fix>
</trkpt>
<trkpt lat="33.8103109" lon="-118.3944111">
  <ele>-39.69</ele>
  <time>2026-09-02T22:11:44Z</time>
  <course>87.65</course>
  <speed>0.64</speed>
  <fix>3d</fix>
</trkpt>
<trkpt lat="33.810311" lon="-118.3944091">
  <ele>-40.668</ele>
  <time>2026-09-02T22:11:44Z</time>
  <course>99.66</course>
  <speed>0.63</speed>
  <fix>3d</fix>
</trkpt>
<trkpt lat="33.8103109" lon="-118.3944097">
  <ele>-39.69</ele>
  <time>2026-09-02T22:11:44Z</time>
  <course>88.58</course>
  <speed>0.64</speed>
  <fix>3d</fix>
</trkpt>
<trkpt lat="33.810311" lon="-118.3944084">
  <ele>-40.668</ele>
  <time>2026-09-02T22:11:44Z</time>
  <course>99.42</course>
  <speed>0.63</speed>
  <fix>3d</fix>
</trkpt>
<trkpt lat="33.8103109" lon="-118.3944097">
  <ele>-39.69</ele>
  <time>2026-09-02T22:11:44Z</time>
  <course>88.58</course>
  <speed>0.64</speed>
  <fix>3d</fix>
</trkpt>
<trkpt lat="33.810311" lon="-118.3944077">
  <ele>-40.667</ele>
  <time>2026-09-02T22:11:44Z</time>
  <course>99.28</course>
  <speed>0.63</speed>
  <fix>3d</fix>
</trkpt>
<trkpt lat="33.8103109" lon="-118.3944083">
  <ele>-39.69</ele>
  <time>2026-09-02T22:11:44Z</time>
  <course>89.43</course>
  <speed>0.64</speed>
  <fix>3d</fix>
</trkpt>
<trkpt lat="33.810311" lon="-118.3944069">
  <ele>-40.663</ele>
  <time>2026-09-02T22:11:44Z</time>
  <course>99.18</course>
  <speed>0.64</speed>
  <fix>3d</fix>
</trkpt>
<trkpt lat="33.8103109" lon="-118.3944083">
  <ele>-39.69</ele>
  <time>2026-09-02T22:11:44Z</time>
  <course>89.43</course>
  <speed>0.64</speed>
  <fix>3d</fix>
</trkpt>
<trkpt lat="33.810311" lon="-118.3944062">
  <ele>-40.657</ele>
  <time>2026-09-02T22:11:44Z</time>
  <course>99.09</course>
  <speed>0.64</speed>
  <fix>3d</fix>
</trkpt>
<trkpt lat="33.8103109" lon="-118.3944069">
  <ele>-39.68</ele>
  <time>2026-09-02T22:11:44Z</time>
  <course>89.89</course>
  <speed>0.64</speed>
  <fix>3d</fix>
</trkpt>
<trkpt lat="33.810311" lon="-118.3944055">
  <ele>-40.649</ele>
  <time>2026-09-02T22:11:44Z</time>
  <course>99.01</course>
  <speed>0.64</speed>
  <fix>3d</fix>
</trkpt>
<trkpt lat="33.8103109" lon="-118.3944069">
  <ele>-39.68</ele>
  <time>2026-09-02T22:11:44Z</time>
  <course>89.89</course>
  <speed>0.64</speed>
  <fix>3d</fix>
</trkpt>
<trkpt lat="33.810311" lon="-118.3944048">
  <ele>-40.638</ele>
  <time>2026-09-02T22:11:44Z</time>
  <course>98.94</course>
  <speed>0.64</speed>
  <fix>3d</fix>
</trkpt>
<trkpt lat="33.8103109" lon="-118.3944055">
  <ele>-39.67</ele>
  <time>2026-09-02T22:11:44Z</time>
  <course>90.09</course>
  <speed>0.65</speed>
  <fix>3d</fix>
</trkpt>
<trkpt lat="33.810311" lon="-118.394404">
  <ele>-40.625</ele>
  <time>2026-09-02T22:11:44Z</time>
  <course>98.88</course>
  <speed>0.64</speed>
  <fix>3d</fix>
</trkpt>
<trkpt lat="33.8103109" lon="-118.3944055">
  <ele>-39.67</ele>
  <time>2026-09-02T22:11:44Z</time>
  <course>90.09</course>
  <speed>0.65</speed>
  <fix>3d</fix>
</trkpt>
<trkpt lat="33.810311" lon="-118.3944033">
  <ele>-40.611</ele>
  <time>2026-09-02T22:11:44Z</time>
  <course>98.83</course>
  <speed>0.65</speed>
  <fix>3d</fix>
</trkpt>
<trkpt lat="33.8103109" lon="-118.3944041">
  <ele>-39.64</ele>
  <time>2026-09-02T22:11:44Z</time>
  <course>90.18</course>
  <speed>0.65</speed>
  <fix>3d</fix>
</trkpt>
<trkpt lat="33.810311" lon="-118.3944026">
  <ele>-40.596</ele>
  <time>2026-09-02T22:11:44Z</time>
  <course>98.8</course>
  <speed>0.65</speed>
  <fix>3d</fix>
</trkpt>
<trkpt lat="33.8103109" lon="-118.3944041">
  <ele>-39.64</ele>
  <time>2026-09-02T22:11:44Z</time>
  <course>90.18</course>
  <speed>0.65</speed>
  <fix>3d</fix>
</trkpt>
<trkpt lat="33.810311" lon="-118.3944019">
  <ele>-40.58</ele>
  <time>2026-09-02T22:11:44Z</time>
  <course>98.76</course>
  <speed>0.65</speed>
  <fix>3d</fix>
</trkpt>
<trkpt lat="33.8103109" lon="-118.3944027">
  <ele>-39.62</ele>
  <time>2026-09-02T22:11:44Z</time>
  <course>90.26</course>
  <speed>0.65</speed>
  <fix>3d</fix>
</trkpt>
<trkpt lat="33.810311" lon="-118.3944012">
  <ele>-40.564</ele>
  <time>2026-09-02T22:11:44Z</time>
  <course>98.73</course>
  <speed>0.65</speed>
  <fix>3d</fix>
</trkpt>
<trkpt lat="33.8103109" lon="-118.3944027">
  <ele>-39.62</ele>
  <time>2026-09-02T22:11:44Z</time>
  <course>90.26</course>
  <speed>0.65</speed>
  <fix>3d</fix>
</trkpt>
<trkpt lat="33.810311" lon="-118.3944004">
  <ele>-40.549</ele>
  <time>2026-09-02T22:11:44Z</time>
  <course>98.71</course>
  <speed>0.65</speed>
  <fix>3d</fix>
</trkpt>
<trkpt lat="33.8103109" lon="-118.3944013">
  <ele>-39.59</ele>
  <time>2026-09-02T22:11:44Z</time>
  <course>90.35</course>
  <speed>0.65</speed>
  <fix>3d</fix>
</trkpt>
<trkpt lat="33.810311" lon="-118.3943997">
  <ele>-40.533</ele>
  <time>2026-09-02T22:11:44Z</time>
  <course>98.7</course>
  <speed>0.65</speed>
  <fix>3d</fix>
</trkpt>
<trkpt lat="33.8103109" lon="-118.3944013">
  <ele>-39.59</ele>
  <time>2026-09-02T22:11:44Z</time>
  <course>90.35</course>
  <speed>0.65</speed>
  <fix>3d</fix>
</trkpt>
<trkpt lat="33.810311" lon="-118.394399">
  <ele>-40.519</ele>
  <time>2026-09-02T22:11:44Z</time>
  <course>98.69</course>
  <speed>0.65</speed>
  <fix>3d</fix>
</trkpt>
<trkpt lat="33.8103109" lon="-118.3943999">
  <ele>-39.56</ele>
  <time>2026-09-02T22:11:44Z</time>
  <course>90.47</course>
  <speed>0.65</speed>
  <fix>3d</fix>
</trkpt>
<trkpt lat="33.810311" lon="-118.3943983">
  <ele>-40.505</ele>
  <time>2026-09-02T22:11:44Z</time>
  <course>98.68</course>
  <speed>0.65</speed>
  <fix>3d</fix>
</trkpt>
<trkpt lat="33.8103109" lon="-118.3943999">
  <ele>-39.56</ele>
  <time>2026-09-02T22:11:44Z</time>
  <course>90.47</course>
  <speed>0.65</speed>
  <fix>3d</fix>
</trkpt>
<trkpt lat="33.8103109" lon="-118.3943976">
  <ele>-40.492</ele>
  <time>2026-09-02T22:11:44Z</time>
  <course>98.66</course>
  <speed>0.66</speed>
  <fix>3d</fix>
</trkpt>
<trkpt lat="33.8103109" lon="-118.3943985">
  <ele>-39.53</ele>
  <time>2026-09-02T22:11:44Z</time>
  <course>90.6</course>
  <speed>0.65</speed>
  <fix>3d</fix>
</trkpt>
<trkpt lat="33.8103109" lon="-118.3943969">
  <ele>-40.48</ele>
  <time>2026-09-02T22:11:44Z</time>
  <course>98.65</course>
  <speed>0.66</speed>
  <fix>3d</fix>
</trkpt>
<trkpt lat="33.8103109" lon="-118.3943985">
  <ele>-39.53</ele>
  <time>2026-09-02T22:11:44Z</time>
  <course>90.6</course>
  <speed>0.65</speed>
  <fix>3d</fix>
</trkpt>
<trkpt lat="33.8103109" lon="-118.3943961">
  <ele>-40.469</ele>
  <time>2026-09-02T22:11:44Z</time>
  <course>98.63</course>
  <speed>0.66</speed>
  <fix>3d</fix>
</trkpt>
<trkpt lat="33.8103109" lon="-118.3943971">
  <ele>-39.51</ele>
  <time>2026-09-02T22:11:44Z</time>
  <course>90.74</course>
  <speed>0.65</speed>
  <fix>3d</fix>
</trkpt>
<trkpt lat="33.8103109" lon="-118.3943954">
  <ele>-40.461</ele>
  <time>2026-09-02T22:11:44Z</time>
  <course>98.62</course>
  <speed>0.66</speed>
  <fix>3d</fix>
</trkpt>
<trkpt lat="33.8103109" lon="-118.3943971">
  <ele>-39.51</ele>
  <time>2026-09-02T22:11:44Z</time>
  <course>90.74</course>
  <speed>0.65</speed>
  <fix>3d</fix>
</trkpt>
<trkpt lat="33.8103109" lon="-118.3943947">
  <ele>-40.454</ele>
  <time>2026-09-02T22:11:44Z</time>
  <course>98.6</course>
  <speed>0.66</speed>
  <fix>3d</fix>
</trkpt>
<trkpt lat="33.8103109" lon="-118.3943957">
  <ele>-39.48</ele>
  <time>2026-09-02T22:11:44Z</time>
  <course>90.9</course>
  <speed>0.65</speed>
  <fix>3d</fix>
</trkpt>
<trkpt lat="33.8103109" lon="-118.394394">
  <ele>-40.449</ele>
  <time>2026-09-02T22:11:44Z</time>
  <course>98.58</course>
  <speed>0.66</speed>
  <fix>3d</fix>
</trkpt>
<trkpt lat="33.8103109" lon="-118.3943957">
  <ele>-39.48</ele>
  <time>2026-09-02T22:11:44Z</time>
  <course>90.9</course>
  <speed>0.65</speed>
  <fix>3d</fix>
</trkpt>
<trkpt lat="33.8103109" lon="-118.3943933">
  <ele>-40.445</ele>
  <time>2026-09-02T22:11:44Z</time>
  <course>98.55</course>
  <speed>0.67</speed>
  <fix>3d</fix>
</trkpt>
<trkpt lat="33.8103109" lon="-118.3943942">
  <ele>-39.47</ele>
  <time>2026-09-02T22:11:44Z</time>
  <course>91.06</course>
  <speed>0.65</speed>
  <fix>3d</fix>
</trkpt>
<trkpt lat="33.8103109" lon="-118.3943925">
  <ele>-40.442</ele>
  <time>2026-09-02T22:11:44Z</time>
  <course>98.53</course>
  <speed>0.67</speed>
  <fix>3d</fix>
</trkpt>
<trkpt lat="33.8103109" lon="-118.3943942">
  <ele>-39.47</ele>
  <time>2026-09-02T22:11:44Z</time>
  <course>91.06</course>
  <speed>0.65</speed>
  <fix>3d</fix>
</trkpt>
<trkpt lat="33.8103109" lon="-118.3943918">
  <ele>-40.44</ele>
  <time>2026-09-02T22:11:44Z</time>
  <course>98.51</course>
  <speed>0.67</speed>
  <fix>3d</fix>
</trkpt>
<trkpt lat="33.8103109" lon="-118.3943929">
  <ele>-39.46</ele>
  <time>2026-09-02T22:11:44Z</time>
  <course>91.22</course>
  <speed>0.65</speed>
  <fix>3d</fix>
</trkpt>
<trkpt lat="33.8103109" lon="-118.3943911">
  <ele>-40.437</ele>
  <time>2026-09-02T22:11:44Z</time>
  <course>98.48</course>
  <speed>0.6700746227100381</speed>
  <fix>3d</fix>
</trkpt>
<trkpt lat="33.8103109" lon="-118.3943929">
  <ele>-39.46</ele>
  <time>2026-09-02T22:11:44Z</time>
  <course>91.22</course>
  <speed>0.65</speed>
  <fix>3d</fix>
</trkpt>
<trkpt lat="33.8103109" lon="-118.3943904">
  <ele>-40.435</ele>
  <time>2026-09-02T22:11:44Z</time>
  <course>98.46</course>
  <speed>0.6700746227100381</speed>
  <fix>3d</fix>
</trkpt>
<trkpt lat="33.8103109" lon="-118.3943914">
  <ele>-39.46</ele>
  <time>2026-09-02T22:11:44Z</time>
  <course>91.42</course>
  <speed>0.65</speed>
  <fix>3d</fix>
</trkpt>
<trkpt lat="33.8103109" lon="-118.3943897">
  <ele>-40.432</ele>
  <time>2026-09-02T22:11:44Z</time>
  <course>98.43</course>
  <speed>0.6700746227100381</speed>
  <fix>3d</fix>
</trkpt>
<trkpt lat="33.8103109" lon="-118.3943914">
  <ele>-39.46</ele>
  <time>2026-09-02T22:11:44Z</time>
  <course>91.42</course>
  <speed>0.65</speed>
  <fix>3d</fix>
</trkpt>
<trkpt lat="33.8103109" lon="-118.3943889">
  <ele>-40.428</ele>
  <time>2026-09-02T22:11:44Z</time>
  <course>98.4</course>
  <speed>0.6700746227100381</speed>
  <fix>3d</fix>
</trkpt>
<trkpt lat="33.8103109" lon="-118.3943899">
  <ele>-39.45</ele>
  <time>2026-09-02T22:11:44Z</time>
  <course>91.61</course>
  <speed>0.65</speed>
  <fix>3d</fix>
</trkpt>
<trkpt lat="33.8103109" lon="-118.3943882">
  <ele>-40.423</ele>
  <time>2026-09-02T22:11:44Z</time>
  <course>98.37</course>
  <speed>0.6700746227100381</speed>
  <fix>3d</fix>
</trkpt>
<trkpt lat="33.8103109" lon="-118.3943899">
  <ele>-39.45</ele>
  <time>2026-09-02T22:11:44Z</time>
  <course>91.61</course>
  <speed>0.65</speed>
  <fix>3d</fix>
</trkpt>
<trkpt lat="33.8103108" lon="-118.3943875">
  <ele>-40.418</ele>
  <time>2026-09-02T22:11:44Z</time>
  <course>98.34</course>
  <speed>0.6800735254367721</speed>
  <fix>3d</fix>
</trkpt>
<trkpt lat="33.8103108" lon="-118.3943886">
  <ele>-39.45</ele>
  <time>2026-09-02T22:11:44Z</time>
  <course>91.78</course>
  <speed>0.65</speed>
  <fix>3d</fix>
</trkpt>
<trkpt lat="33.8103108" lon="-118.3943868">
  <ele>-40.413</ele>
  <time>2026-09-02T22:11:44Z</time>
  <course>98.3</course>
  <speed>0.6800735254367721</speed>
  <fix>3d</fix>
</trkpt>
<trkpt lat="33.8103108" lon="-118.3943886">
  <ele>-39.45</ele>
  <time>2026-09-02T22:11:44Z</time>
  <course>91.78</course>
  <speed>0.65</speed>
  <fix>3d</fix>
</trkpt>
<trkpt lat="33.8103108" lon="-118.394386">
  <ele>-40.408</ele>
  <time>2026-09-02T22:11:44Z</time>
  <course>98.23</course>
  <speed>0.68</speed>
  <fix>3d</fix>
</trkpt>
<trkpt lat="33.8103107" lon="-118.3943872">
  <ele>-39.44</ele>
  <time>2026-09-02T22:11:44Z</time>
  <course>91.91</course>
  <speed>0.66</speed>
  <fix>3d</fix>
</trkpt>
<trkpt lat="33.8103108" lon="-118.3943853">
  <ele>-40.401</ele>
  <time>2026-09-02T22:11:44Z</time>
  <course>98.14</course>
  <speed>0.68</speed>
  <fix>3d</fix>
</trkpt>
<trkpt lat="33.8103107" lon="-118.3943872">
  <ele>-39.44</ele>
  <time>2026-09-02T22:11:44Z</time>
  <course>91.91</course>
  <speed>0.66</speed>
  <fix>3d</fix>
</trkpt>
<trkpt lat="33.8103108" lon="-118.3943846">
  <ele>-40.393</ele>
  <time>2026-09-02T22:11:44Z</time>
  <course>98.01</course>
  <speed>0.68</speed>
  <fix>3d</fix>
</trkpt>
<trkpt lat="33.8103107" lon="-118.3943857">
  <ele>-39.43</ele>
  <time>2026-09-02T22:11:44Z</time>
  <course>91.87</course>
  <speed>0.66</speed>
  <fix>3d</fix>
</trkpt>
<trkpt lat="33.8103108" lon="-118.3943839">
  <ele>-40.385</ele>
  <time>2026-09-02T22:11:44Z</time>
  <course>97.86</course>
  <speed>0.69</speed>
  <fix>3d</fix>
</trkpt>
<trkpt lat="33.8103107" lon="-118.3943857">
  <ele>-39.43</ele>
  <time>2026-09-02T22:11:44Z</time>
  <course>91.87</course>
  <speed>0.66</speed>
  <fix>3d</fix>
</trkpt>
<trkpt lat="33.8103108" lon="-118.3943831">
  <ele>-40.375</ele>
  <time>2026-09-02T22:11:44Z</time>
  <course>97.7</course>
  <speed>0.69</speed>
  <fix>3d</fix>
</trkpt>
<trkpt lat="33.8103106" lon="-118.3943843">
  <ele>-39.42</ele>
  <time>2026-09-02T22:11:44Z</time>
  <course>91.73</course>
  <speed>0.66</speed>
  <fix>3d</fix>
</trkpt>
<trkpt lat="33.8103108" lon="-118.3943824">
  <ele>-40.363</ele>
  <time>2026-09-02T22:11:44Z</time>
  <course>97.54</course>
  <speed>0.69</speed>
  <fix>3d</fix>
</trkpt>
<trkpt lat="33.8103106" lon="-118.3943843">
  <ele>-39.42</ele>
  <time>2026-09-02T22:11:44Z</time>
  <course>91.73</course>
  <speed>0.66</speed>
  <fix>3d</fix>
</trkpt>
<trkpt lat="33.8103107" lon="-118.3943817">
  <ele>-40.35</ele>
  <time>2026-09-02T22:11:44Z</time>
  <course>97.37</course>
  <speed>0.69</speed>
  <fix>3d</fix>
</trkpt>
<trkpt lat="33.8103106" lon="-118.3943828">
  <ele>-39.4</ele>
  <time>2026-09-02T22:11:44Z</time>
  <course>91.58</course>
  <speed>0.66</speed>
  <fix>3d</fix>
</trkpt>
<trkpt lat="33.8103107" lon="-118.3943809">
  <ele>-40.338</ele>
  <time>2026-09-02T22:11:44Z</time>
  <course>97.2</course>
  <speed>0.69</speed>
  <fix>3d</fix>
</trkpt>
<trkpt lat="33.8103106" lon="-118.3943828">
  <ele>-39.4</ele>
  <time>2026-09-02T22:11:44Z</time>
  <course>91.58</course>
  <speed>0.66</speed>
  <fix>3d</fix>
</trkpt>
<trkpt lat="33.8103107" lon="-118.3943802">
  <ele>-40.325</ele>
  <time>2026-09-02T22:11:44Z</time>
  <course>97.04</course>
  <speed>0.69</speed>
  <fix>3d</fix>
</trkpt>
<trkpt lat="33.8103106" lon="-118.3943814">
  <ele>-39.37</ele>
  <time>2026-09-02T22:11:44Z</time>
  <course>91.42</course>
  <speed>0.67</speed>
  <fix>3d</fix>
</trkpt>
<trkpt lat="33.8103107" lon="-118.3943795">
  <ele>-40.312</ele>
  <time>2026-09-02T22:11:44Z</time>
  <course>96.88</course>
  <speed>0.7</speed>
  <fix>3d</fix>
</trkpt>
<trkpt lat="33.8103106" lon="-118.3943814">
  <ele>-39.37</ele>
  <time>2026-09-02T22:11:44Z</time>
  <course>91.42</course>
  <speed>0.67</speed>
  <fix>3d</fix>
</trkpt>
<trkpt lat="33.8103107" lon="-118.3943787">
  <ele>-40.299</ele>
  <time>2026-09-02T22:11:45Z</time>
  <course>96.74</course>
  <speed>0.7</speed>
  <fix>3d</fix>
</trkpt>
<trkpt lat="33.8103106" lon="-118.3943799">
  <ele>-39.35</ele>
  <time>2026-09-02T22:11:45Z</time>
  <course>91.33</course>
  <speed>0.67</speed>
  <fix>3d</fix>
</trkpt>
<trkpt lat="33.8103107" lon="-118.394378">
  <ele>-40.287</ele>
  <time>2026-09-02T22:11:45Z</time>
  <course>96.61</course>
  <speed>0.7</speed>
  <fix>3d</fix>
</trkpt>
<trkpt lat="33.8103106" lon="-118.3943799">
  <ele>-39.35</ele>
  <time>2026-09-02T22:11:45Z</time>
  <course>91.33</course>
  <speed>0.67</speed>
  <fix>3d</fix>
</trkpt>
<trkpt lat="33.8103107" lon="-118.3943772">
  <ele>-40.276</ele>
  <time>2026-09-02T22:11:45Z</time>
  <course>96.5</course>
  <speed>0.7</speed>
  <fix>3d</fix>
</trkpt>
<trkpt lat="33.8103106" lon="-118.3943784">
  <ele>-39.33</ele>
  <time>2026-09-02T22:11:45Z</time>
  <course>91.32</course>
  <speed>0.68</speed>
  <fix>3d</fix>
</trkpt>
<trkpt lat="33.8103107" lon="-118.3943765">
  <ele>-40.265</ele>
  <time>2026-09-02T22:11:45Z</time>
  <course>96.4</course>
  <speed>0.71</speed>
  <fix>3d</fix>
</trkpt>
<trkpt lat="33.8103106" lon="-118.3943784">
  <ele>-39.33</ele>
  <time>2026-09-02T22:11:45Z</time>
  <course>91.32</course>
  <speed>0.68</speed>
  <fix>3d</fix>
</trkpt>
<trkpt lat="33.8103107" lon="-118.3943758">
  <ele>-40.253</ele>
  <time>2026-09-02T22:11:45Z</time>
  <course>96.32</course>
  <speed>0.71</speed>
  <fix>3d</fix>
</trkpt>
<trkpt lat="33.8103105" lon="-118.394377">
  <ele>-39.3</ele>
  <time>2026-09-02T22:11:45Z</time>
  <course>91.37</course>
  <speed>0.68</speed>
  <fix>3d</fix>
</trkpt>
<trkpt lat="33.8103106" lon="-118.394375">
  <ele>-40.241</ele>
  <time>2026-09-02T22:11:45Z</time>
  <course>96.23</course>
  <speed>0.71</speed>
  <fix>3d</fix>
</trkpt>
<trkpt lat="33.8103105" lon="-118.394377">
  <ele>-39.3</ele>
  <time>2026-09-02T22:11:45Z</time>
  <course>91.37</course>
  <speed>0.68</speed>
  <fix>3d</fix>
</trkpt>
<trkpt lat="33.8103106" lon="-118.3943743">
  <ele>-40.23</ele>
  <time>2026-09-02T22:11:45Z</time>
  <course>96.12</course>
  <speed>0.71</speed>
  <fix>3d</fix>
</trkpt>
<trkpt lat="33.8103105" lon="-118.3943755">
  <ele>-39.29</ele>
  <time>2026-09-02T22:11:45Z</time>
  <course>91.39</course>
  <speed>0.68</speed>
  <fix>3d</fix>
</trkpt>
<trkpt lat="33.8103106" lon="-118.3943735">
  <ele>-40.219</ele>
  <time>2026-09-02T22:11:45Z</time>
  <course>96.01</course>
  <speed>0.72</speed>
  <fix>3d</fix>
</trkpt>
<trkpt lat="33.8103105" lon="-118.3943755">
  <ele>-39.29</ele>
  <time>2026-09-02T22:11:45Z</time>
  <course>91.39</course>
  <speed>0.68</speed>
  <fix>3d</fix>
</trkpt>
<trkpt lat="33.8103106" lon="-118.3943727">
  <ele>-40.21</ele>
  <time>2026-09-02T22:11:45Z</time>
  <course>95.88</course>
  <speed>0.72</speed>
  <fix>3d</fix>
</trkpt>
<trkpt lat="33.8103105" lon="-118.394374">
  <ele>-39.26</ele>
  <time>2026-09-02T22:11:45Z</time>
  <course>91.35</course>
  <speed>0.69</speed>
  <fix>3d</fix>
</trkpt>
<trkpt lat="33.8103106" lon="-118.394372">
  <ele>-40.201</ele>
  <time>2026-09-02T22:11:45Z</time>
  <course>95.76</course>
  <speed>0.72</speed>
  <fix>3d</fix>
</trkpt>
<trkpt lat="33.8103105" lon="-118.394374">
  <ele>-39.26</ele>
  <time>2026-09-02T22:11:45Z</time>
  <course>91.35</course>
  <speed>0.69</speed>
  <fix>3d</fix>
</trkpt>
<trkpt lat="33.8103106" lon="-118.3943712">
  <ele>-40.192</ele>
  <time>2026-09-02T22:11:45Z</time>
  <course>95.64</course>
  <speed>0.72</speed>
  <fix>3d</fix>
</trkpt>
<trkpt lat="33.8103105" lon="-118.3943725">
  <ele>-39.24</ele>
  <time>2026-09-02T22:11:45Z</time>
  <course>91.33</course>
  <speed>0.69</speed>
  <fix>3d</fix>
</trkpt>
<trkpt lat="33.8103106" lon="-118.3943705">
  <ele>-40.185</ele>
  <time>2026-09-02T22:11:45Z</time>
  <course>95.54</course>
  <speed>0.72</speed>
  <fix>3d</fix>
</trkpt>
<trkpt lat="33.8103105" lon="-118.3943725">
  <ele>-39.24</ele>
  <time>2026-09-02T22:11:45Z</time>
  <course>91.33</course>
  <speed>0.69</speed>
  <fix>3d</fix>
</trkpt>
<trkpt lat="33.8103106" lon="-118.3943697">
  <ele>-40.179</ele>
  <time>2026-09-02T22:11:45Z</time>
  <course>95.45</course>
  <speed>0.73</speed>
  <fix>3d</fix>
</trkpt>
<trkpt lat="33.8103104" lon="-118.394371">
  <ele>-39.23</ele>
  <time>2026-09-02T22:11:45Z</time>
  <course>91.36</course>
  <speed>0.7</speed>
  <fix>3d</fix>
</trkpt>
<trkpt lat="33.8103106" lon="-118.3943689">
  <ele>-40.173</ele>
  <time>2026-09-02T22:11:45Z</time>
  <course>95.35</course>
  <speed>0.73</speed>
  <fix>3d</fix>
</trkpt>
<trkpt lat="33.8103104" lon="-118.394371">
  <ele>-39.23</ele>
  <time>2026-09-02T22:11:45Z</time>
  <course>91.36</course>
  <speed>0.7</speed>
  <fix>3d</fix>
</trkpt>
<trkpt lat="33.8103106" lon="-118.3943682">
  <ele>-40.169</ele>
  <time>2026-09-02T22:11:45Z</time>
  <course>95.24</course>
  <speed>0.73</speed>
  <fix>3d</fix>
</trkpt>
<trkpt lat="33.8103104" lon="-118.3943695">
  <ele>-39.21</ele>
  <time>2026-09-02T22:11:45Z</time>
  <course>91.35</course>
  <speed>0.7</speed>
  <fix>3d</fix>
</trkpt>
<trkpt lat="33.8103106" lon="-118.3943674">
  <ele>-40.164</ele>
  <time>2026-09-02T22:11:45Z</time>
  <course>95.13</course>
  <speed>0.73</speed>
  <fix>3d</fix>
</trkpt>
<trkpt lat="33.8103104" lon="-118.3943695">
  <ele>-39.21</ele>
  <time>2026-09-02T22:11:45Z</time>
  <course>91.35</course>
  <speed>0.7</speed>
  <fix>3d</fix>
</trkpt>
<trkpt lat="33.8103105" lon="-118.3943666">
  <ele>-40.158</ele>
  <time>2026-09-02T22:11:45Z</time>
  <course>95.01</course>
  <speed>0.73</speed>
  <fix>3d</fix>
</trkpt>
<trkpt lat="33.8103104" lon="-118.3943679">
  <ele>-39.2</ele>
  <time>2026-09-02T22:11:45Z</time>
  <course>91.29</course>
  <speed>0.71</speed>
  <fix>3d</fix>
</trkpt>
<trkpt lat="33.8103105" lon="-118.3943659">
  <ele>-40.152</ele>
  <time>2026-09-02T22:11:45Z</time>
  <course>94.89</course>
  <speed>0.74</speed>
  <fix>3d</fix>
</trkpt>
<trkpt lat="33.8103104" lon="-118.3943679">
  <ele>-39.2</ele>
  <time>2026-09-02T22:11:45Z</time>
  <course>91.29</course>
  <speed>0.71</speed>
  <fix>3d</fix>
</trkpt>
<trkpt lat="33.8103105" lon="-118.3943651">
  <ele>-40.145</ele>
  <time>2026-09-02T22:11:45Z</time>
  <course>94.78</course>
  <speed>0.74</speed>
  <fix>3d</fix>
</trkpt>
<trkpt lat="33.8103103" lon="-118.3943664">
  <ele>-39.19</ele>
  <time>2026-09-02T22:11:45Z</time>
  <course>91.24</course>
  <speed>0.71</speed>
  <fix>3d</fix>
</trkpt>
<trkpt lat="33.8103105" lon="-118.3943643">
  <ele>-40.138</ele>
  <time>2026-09-02T22:11:45Z</time>
  <course>94.67</course>
  <speed>0.74</speed>
  <fix>3d</fix>
</trkpt>
<trkpt lat="33.8103103" lon="-118.3943664">
  <ele>-39.19</ele>
  <time>2026-09-02T22:11:45Z</time>
  <course>91.24</course>
  <speed>0.71</speed>
  <fix>3d</fix>
</trkpt>
<trkpt lat="33.8103105" lon="-118.3943635">
  <ele>-40.131</ele>
  <time>2026-09-02T22:11:45Z</time>
  <course>94.54</course>
  <speed>0.74</speed>
  <fix>3d</fix>
</trkpt>
<trkpt lat="33.8103103" lon="-118.3943648">
  <ele>-39.18</ele>
  <time>2026-09-02T22:11:45Z</time>
  <course>91.19</course>
  <speed>0.71</speed>
  <fix>3d</fix>
</trkpt>
<trkpt lat="33.8103105" lon="-118.3943627">
  <ele>-40.124</ele>
  <time>2026-09-02T22:11:45Z</time>
  <course>94.43</course>
  <speed>0.7400675644831355</speed>
  <fix>3d</fix>
</trkpt>
<trkpt lat="33.8103103" lon="-118.3943648">
  <ele>-39.18</ele>
  <time>2026-09-02T22:11:45Z</time>
  <course>91.19</course>
  <speed>0.71</speed>
  <fix>3d</fix>
</trkpt>
<trkpt lat="33.8103105" lon="-118.394362">
  <ele>-40.118</ele>
  <time>2026-09-02T22:11:45Z</time>
  <course>94.3</course>
  <speed>0.750066663703967</speed>
  <fix>3d</fix>
</trkpt>
<trkpt lat="33.8103103" lon="-118.3943633">
  <ele>-39.16</ele>
  <time>2026-09-02T22:11:45Z</time>
  <course>91.08</course>
  <speed>0.72</speed>
  <fix>3d</fix>
</trkpt>
<trkpt lat="33.8103105" lon="-118.3943612">
  <ele>-40.112</ele>
  <time>2026-09-02T22:11:45Z</time>
  <course>94.18</course>
  <speed>0.750066663703967</speed>
  <fix>3d</fix>
</trkpt>
<trkpt lat="33.8103103" lon="-118.3943633">
  <ele>-39.16</ele>
  <time>2026-09-02T22:11:45Z</time>
  <course>91.08</course>
  <speed>0.72</speed>
  <fix>3d</fix>
</trkpt>
<trkpt lat="33.8103105" lon="-118.3943604">
  <ele>-40.107</ele>
  <time>2026-09-02T22:11:45Z</time>
  <course>94.07</course>
  <speed>0.750066663703967</speed>
  <fix>3d</fix>
</trkpt>
<trkpt lat="33.8103103" lon="-118.3943617">
  <ele>-39.15</ele>
  <time>2026-09-02T22:11:45Z</time>
  <course>90.98</course>
  <speed>0.72</speed>
  <fix>3d</fix>
</trkpt>
<trkpt lat="33.8103105" lon="-118.3943596">
  <ele>-40.1</ele>
  <time>2026-09-02T22:11:45Z</time>
  <course>93.97</course>
  <speed>0.750066663703967</speed>
  <fix>3d</fix>
</trkpt>
<trkpt lat="33.8103103" lon="-118.3943617">
  <ele>-39.15</ele>
  <time>2026-09-02T22:11:45Z</time>
  <course>90.98</course>
  <speed>0.72</speed>
  <fix>3d</fix>
</trkpt>
<trkpt lat="33.8103105" lon="-118.3943588">
  <ele>-40.093</ele>
  <time>2026-09-02T22:11:45Z</time>
  <course>93.88</course>
  <speed>0.750066663703967</speed>
  <fix>3d</fix>
</trkpt>
<trkpt lat="33.8103102" lon="-118.3943602">
  <ele>-39.13</ele>
  <time>2026-09-02T22:11:45Z</time>
  <course>90.97</course>
  <speed>0.72</speed>
  <fix>3d</fix>
</trkpt>
<trkpt lat="33.8103104" lon="-118.394358">
  <ele>-40.084</ele>
  <time>2026-09-02T22:11:45Z</time>
  <course>93.79</course>
  <speed>0.750066663703967</speed>
  <fix>3d</fix>
</trkpt>
<trkpt lat="33.8103102" lon="-118.3943602">
  <ele>-39.13</ele>
  <time>2026-09-02T22:11:45Z</time>
  <course>90.97</course>
  <speed>0.72</speed>
  <fix>3d</fix>
</trkpt>
<trkpt lat="33.8103104" lon="-118.3943572">
  <ele>-40.075</ele>
  <time>2026-09-02T22:11:45Z</time>
  <course>93.69</course>
  <speed>0.7600657866263946</speed>
  <fix>3d</fix>
</trkpt>
<trkpt lat="33.8103101" lon="-118.3943586">
  <ele>-39.12</ele>
  <time>2026-09-02T22:11:45Z</time>
  <course>90.94</course>
  <speed>0.73</speed>
  <fix>3d</fix>
</trkpt>
<trkpt lat="33.8103104" lon="-118.3943564">
  <ele>-40.065</ele>
  <time>2026-09-02T22:11:45Z</time>
  <course>93.57</course>
  <speed>0.7600657866263946</speed>
  <fix>3d</fix>
</trkpt>
<trkpt lat="33.8103101" lon="-118.3943586">
  <ele>-39.12</ele>
  <time>2026-09-02T22:11:45Z</time>
  <course>90.94</course>
  <speed>0.73</speed>
  <fix>3d</fix>
</trkpt>
<trkpt lat="33.8103104" lon="-118.3943556">
  <ele>-40.054</ele>
  <time>2026-09-02T22:11:45Z</time>
  <course>93.42</course>
  <speed>0.7600657866263946</speed>
  <fix>3d</fix>
</trkpt>
<trkpt lat="33.8103101" lon="-118.3943569">
  <ele>-39.1</ele>
  <time>2026-09-02T22:11:45Z</time>
  <course>90.75</course>
  <speed>0.73</speed>
  <fix>3d</fix>
</trkpt>
<trkpt lat="33.8103104" lon="-118.3943548">
  <ele>-40.042</ele>
  <time>2026-09-02T22:11:45Z</time>
  <course>93.26</course>
  <speed>0.7600657866263946</speed>
  <fix>3d</fix>
</trkpt>
<trkpt lat="33.8103101" lon="-118.3943569">
  <ele>-39.1</ele>
  <time>2026-09-02T22:11:45Z</time>
  <course>90.75</course>
  <speed>0.73</speed>
  <fix>3d</fix>
</trkpt>
<trkpt lat="33.8103104" lon="-118.394354">
  <ele>-40.03</ele>
  <time>2026-09-02T22:11:45Z</time>
  <course>93.1</course>
  <speed>0.7600657866263946</speed>
  <fix>3d</fix>
</trkpt>
<trkpt lat="33.8103101" lon="-118.3943554">
  <ele>-39.08</ele>
  <time>2026-09-02T22:11:45Z</time>
  <course>90.53</course>
  <speed>0.74</speed>
  <fix>3d</fix>
</trkpt>
<trkpt lat="33.8103104" lon="-118.3943532">
  <ele>-40.017</ele>
  <time>2026-09-02T22:11:45Z</time>
  <course>92.97</course>
  <speed>0.7600657866263946</speed>
  <fix>3d</fix>
</trkpt>
<trkpt lat="33.8103101" lon="-118.3943554">
  <ele>-39.08</ele>
  <time>2026-09-02T22:11:45Z</time>
  <course>90.53</course>
  <speed>0.74</speed>
  <fix>3d</fix>
</trkpt>
<trkpt lat="33.8103104" lon="-118.3943524">
  <ele>-40.004</ele>
  <time>2026-09-02T22:11:45Z</time>
  <course>92.83</course>
  <speed>0.7700649323271382</speed>
  <fix>3d</fix>
</trkpt>
<trkpt lat="33.8103101" lon="-118.3943538">
  <ele>-39.05</ele>
  <time>2026-09-02T22:11:45Z</time>
  <course>90.35</course>
  <speed>0.74</speed>
  <fix>3d</fix>
</trkpt>
<trkpt lat="33.8103104" lon="-118.3943516">
  <ele>-39.991</ele>
  <time>2026-09-02T22:11:45Z</time>
  <course>92.73</course>
  <speed>0.7700649323271382</speed>
  <fix>3d</fix>
</trkpt>
<trkpt lat="33.8103101" lon="-118.3943538">
  <ele>-39.05</ele>
  <time>2026-09-02T22:11:45Z</time>
  <course>90.35</course>
  <speed>0.74</speed>
  <fix>3d</fix>
</trkpt>
<trkpt lat="33.8103104" lon="-118.3943508">
  <ele>-39.978</ele>
  <time>2026-09-02T22:11:45Z</time>
  <course>92.63</course>
  <speed>0.7700649323271382</speed>
  <fix>3d</fix>
</trkpt>
<trkpt lat="33.8103101" lon="-118.3943521">
  <ele>-39.03</ele>
  <time>2026-09-02T22:11:45Z</time>
  <course>90.26</course>
  <speed>0.74</speed>
  <fix>3d</fix>
</trkpt>
<trkpt lat="33.8103104" lon="-118.39435">
  <ele>-39.966</ele>
  <time>2026-09-02T22:11:45Z</time>
  <course>92.55</course>
  <speed>0.7700649323271382</speed>
  <fix>3d</fix>
</trkpt>
<trkpt lat="33.8103101" lon="-118.3943521">
  <ele>-39.03</ele>
  <time>2026-09-02T22:11:45Z</time>
  <course>90.26</course>
  <speed>0.74</speed>
  <fix>3d</fix>
</trkpt>
<trkpt lat="33.8103104" lon="-118.3943492">
  <ele>-39.954</ele>
  <time>2026-09-02T22:11:45Z</time>
  <course>92.48</course>
  <speed>0.7700649323271382</speed>
  <fix>3d</fix>
</trkpt>
<trkpt lat="33.8103101" lon="-118.3943505">
  <ele>-39.01</ele>
  <time>2026-09-02T22:11:45Z</time>
  <course>90.22</course>
  <speed>0.75</speed>
  <fix>3d</fix>
</trkpt>
<trkpt lat="33.8103103" lon="-118.3943484">
  <ele>-39.942</ele>
  <time>2026-09-02T22:11:45Z</time>
  <course>92.42</course>
  <speed>0.7700649323271382</speed>
  <fix>3d</fix>
</trkpt>
<trkpt lat="33.8103101" lon="-118.3943505">
  <ele>-39.01</ele>
  <time>2026-09-02T22:11:45Z</time>
  <course>90.22</course>
  <speed>0.75</speed>
  <fix>3d</fix>
</trkpt>
<trkpt lat="33.8103103" lon="-118.3943475">
  <ele>-39.931</ele>
  <time>2026-09-02T22:11:45Z</time>
  <course>92.36</course>
  <speed>0.7700649323271382</speed>
  <fix>3d</fix>
</trkpt>
<trkpt lat="33.8103101" lon="-118.3943488">
  <ele>-38.98</ele>
  <time>2026-09-02T22:11:45Z</time>
  <course>90.2</course>
  <speed>0.75</speed>
  <fix>3d</fix>
</trkpt>
<trkpt lat="33.8103103" lon="-118.3943467">
  <ele>-39.919</ele>
  <time>2026-09-02T22:11:45Z</time>
  <course>92.31</course>
  <speed>0.7800640999302557</speed>
  <fix>3d</fix>
</trkpt>
<trkpt lat="33.8103101" lon="-118.3943488">
  <ele>-38.98</ele>
  <time>2026-09-02T22:11:45Z</time>
  <course>90.2</course>
  <speed>0.75</speed>
  <fix>3d</fix>
</trkpt>
<trkpt lat="33.8103103" lon="-118.3943459">
  <ele>-39.907</ele>
  <time>2026-09-02T22:11:45Z</time>
  <course>92.27</course>
  <speed>0.7800640999302557</speed>
  <fix>3d</fix>
</trkpt>
<trkpt lat="33.8103101" lon="-118.3943473">
  <ele>-38.97</ele>
  <time>2026-09-02T22:11:45Z</time>
  <course>90.22</course>
  <speed>0.75</speed>
  <fix>3d</fix>
</trkpt>
<trkpt lat="33.8103103" lon="-118.3943451">
  <ele>-39.897</ele>
  <time>2026-09-02T22:11:45Z</time>
  <course>92.23</course>
  <speed>0.7800640999302557</speed>
  <fix>3d</fix>
</trkpt>
<trkpt lat="33.8103101" lon="-118.3943473">
  <ele>-38.97</ele>
  <time>2026-09-02T22:11:45Z</time>
  <course>90.22</course>
  <speed>0.75</speed>
  <fix>3d</fix>
</trkpt>
<trkpt lat="33.8103103" lon="-118.3943442">
  <ele>-39.887</ele>
  <time>2026-09-02T22:11:45Z</time>
  <course>92.19</course>
  <speed>0.7800640999302557</speed>
  <fix>3d</fix>
</trkpt>
<trkpt lat="33.8103101" lon="-118.3943456">
  <ele>-38.94</ele>
  <time>2026-09-02T22:11:45Z</time>
  <course>90.26</course>
  <speed>0.76</speed>
  <fix>3d</fix>
</trkpt>
<trkpt lat="33.8103103" lon="-118.3943434">
  <ele>-39.878</ele>
  <time>2026-09-02T22:11:45Z</time>
  <course>92.16</course>
  <speed>0.7800640999302557</speed>
  <fix>3d</fix>
</trkpt>
<trkpt lat="33.8103101" lon="-118.3943456">
  <ele>-38.94</ele>
  <time>2026-09-02T22:11:45Z</time>
  <course>90.26</course>
  <speed>0.76</speed>
  <fix>3d</fix>
</trkpt>
<trkpt lat="33.8103103" lon="-118.3943426">
  <ele>-39.87</ele>
  <time>2026-09-02T22:11:45Z</time>
  <course>92.13</course>
  <speed>0.7900632886041472</speed>
  <fix>3d</fix>
</trkpt>
<trkpt lat="33.8103101" lon="-118.394344">
  <ele>-38.93</ele>
  <time>2026-09-02T22:11:45Z</time>
  <course>90.3</course>
  <speed>0.76</speed>
  <fix>3d</fix>
</trkpt>
<trkpt lat="33.8103103" lon="-118.3943418">
  <ele>-39.863</ele>
  <time>2026-09-02T22:11:45Z</time>
  <course>92.1</course>
  <speed>0.7900632886041472</speed>
  <fix>3d</fix>
</trkpt>
<trkpt lat="33.8103101" lon="-118.394344">
  <ele>-38.93</ele>
  <time>2026-09-02T22:11:45Z</time>
  <course>90.3</course>
  <speed>0.76</speed>
  <fix>3d</fix>
</trkpt>
<trkpt lat="33.8103103" lon="-118.3943409">
  <ele>-39.857</ele>
  <time>2026-09-02T22:11:45Z</time>
  <course>92.06</course>
  <speed>0.7900632886041472</speed>
  <fix>3d</fix>
</trkpt>
<trkpt lat="33.8103101" lon="-118.3943423">
  <ele>-38.91</ele>
  <time>2026-09-02T22:11:45Z</time>
  <course>90.33</course>
  <speed>0.77</speed>
  <fix>3d</fix>
</trkpt>
<trkpt lat="33.8103103" lon="-118.3943401">
  <ele>-39.851</ele>
  <time>2026-09-02T22:11:45Z</time>
  <course>92.02</course>
  <speed>0.7900632886041472</speed>
  <fix>3d</fix>
</trkpt>
<trkpt lat="33.8103101" lon="-118.3943423">
  <ele>-38.91</ele>
  <time>2026-09-02T22:11:45Z</time>
  <course>90.33</course>
  <speed>0.77</speed>
  <fix>3d</fix>
</trkpt>
<trkpt lat="33.8103103" lon="-118.3943393">
  <ele>-39.845</ele>
  <time>2026-09-02T22:11:45Z</time>
  <course>91.98</course>
  <speed>0.8000624975587844</speed>
  <fix>3d</fix>
</trkpt>
<trkpt lat="33.81031" lon="-118.3943406">
  <ele>-38.9</ele>
  <time>2026-09-02T22:11:45Z</time>
  <course>90.36</course>
  <speed>0.77</speed>
  <fix>3d</fix>
</trkpt>
<trkpt lat="33.8103103" lon="-118.3943384">
  <ele>-39.839</ele>
  <time>2026-09-02T22:11:45Z</time>
  <course>91.94</course>
  <speed>0.8000624975587844</speed>
  <fix>3d</fix>
</trkpt>
<trkpt lat="33.81031" lon="-118.3943406">
  <ele>-38.9</ele>
  <time>2026-09-02T22:11:45Z</time>
  <course>90.36</course>
  <speed>0.77</speed>
  <fix>3d</fix>
</trkpt>
<trkpt lat="33.8103103" lon="-118.3943376">
  <ele>-39.833</ele>
  <time>2026-09-02T22:11:45Z</time>
  <course>91.88</course>
  <speed>0.8000624975587844</speed>
  <fix>3d</fix>
</trkpt>
<trkpt lat="33.81031" lon="-118.3943389">
  <ele>-38.88</ele>
  <time>2026-09-02T22:11:45Z</time>
  <course>90.34</course>
  <speed>0.78</speed>
  <fix>3d</fix>
</trkpt>
<trkpt lat="33.8103103" lon="-118.3943367">
  <ele>-39.824</ele>
  <time>2026-09-02T22:11:45Z</time>
  <course>91.8</course>
  <speed>0.8000624975587844</speed>
  <fix>3d</fix>
</trkpt>
<trkpt lat="33.81031" lon="-118.3943389">
  <ele>-38.88</ele>
  <time>2026-09-02T22:11:45Z</time>
  <course>90.34</course>
  <speed>0.78</speed>
  <fix>3d</fix>
</trkpt>
<trkpt lat="33.8103103" lon="-118.3943359">
  <ele>-39.816</ele>
  <time>2026-09-02T22:11:45Z</time>
  <course>91.72</course>
  <speed>0.8000624975587844</speed>
  <fix>3d</fix>
</trkpt>
<trkpt lat="33.81031" lon="-118.3943372">
  <ele>-38.87</ele>
  <time>2026-09-02T22:11:45Z</time>
  <course>90.26</course>
  <speed>0.78</speed>
  <fix>3d</fix>
</trkpt>
<trkpt lat="33.8103103" lon="-118.3943351">
  <ele>-39.807</ele>
  <time>2026-09-02T22:11:45Z</time>
  <course>91.64</course>
  <speed>0.8002499609497022</speed>
  <fix>3d</fix>
</trkpt>
<trkpt lat="33.81031" lon="-118.3943372">
  <ele>-38.87</ele>
  <time>2026-09-02T22:11:45Z</time>
  <course>90.26</course>
  <speed>0.78</speed>
  <fix>3d</fix>
</trkpt>
<trkpt lat="33.8103103" lon="-118.3943342">
  <ele>-39.798</ele>
  <time>2026-09-02T22:11:45Z</time>
  <course>91.57</course>
  <speed>0.8000624975587844</speed>
  <fix>3d</fix>
</trkpt>
<trkpt lat="33.81031" lon="-118.3943355">
  <ele>-38.86</ele>
  <time>2026-09-02T22:11:45Z</time>
  <course>90.17</course>
  <speed>0.78</speed>
  <fix>3d</fix>
</trkpt>
<trkpt lat="33.8103103" lon="-118.3943334">
  <ele>-39.789</ele>
  <time>2026-09-02T22:11:45Z</time>
  <course>91.5</course>
  <speed>0.8002499609497022</speed>
  <fix>3d</fix>
</trkpt>
<trkpt lat="33.81031" lon="-118.3943355">
  <ele>-38.86</ele>
  <time>2026-09-02T22:11:45Z</time>
  <course>90.17</course>
  <speed>0.78</speed>
  <fix>3d</fix>
</trkpt>
<trkpt lat="33.8103103" lon="-118.3943325">
  <ele>-39.78</ele>
  <time>2026-09-02T22:11:45Z</time>
  <course>91.44</course>
  <speed>0.8000624975587844</speed>
  <fix>3d</fix>
</trkpt>
<trkpt lat="33.81031" lon="-118.3943338">
  <ele>-38.84</ele>
  <time>2026-09-02T22:11:45Z</time>
  <course>90.1</course>
  <speed>0.79</speed>
  <fix>3d</fix>
</trkpt>
<trkpt lat="33.8103102" lon="-118.3943316">
  <ele>-39.772</ele>
  <time>2026-09-02T22:11:45Z</time>
  <course>91.38</course>
  <speed>0.8102468759581859</speed>
  <fix>3d</fix>
</trkpt>
<trkpt lat="33.81031" lon="-118.3943338">
  <ele>-38.84</ele>
  <time>2026-09-02T22:11:45Z</time>
  <course>90.1</course>
  <speed>0.79</speed>
  <fix>3d</fix>
</trkpt>
<trkpt lat="33.8103102" lon="-118.3943308">
  <ele>-39.763</ele>
  <time>2026-09-02T22:11:45Z</time>
  <course>91.34</course>
  <speed>0.8100617260431454</speed>
  <fix>3d</fix>
</trkpt>
<trkpt lat="33.81031" lon="-118.3943321">
  <ele>-38.82</ele>
  <time>2026-09-02T22:11:45Z</time>
  <course>90.08</course>
  <speed>0.79</speed>
  <fix>3d</fix>
</trkpt>
<trkpt lat="33.8103102" lon="-118.3943299">
  <ele>-39.754</ele>
  <time>2026-09-02T22:11:45Z</time>
  <course>91.3</course>
  <speed>0.8102468759581859</speed>
  <fix>3d</fix>
</trkpt>
<trkpt lat="33.81031" lon="-118.3943321">
  <ele>-38.82</ele>
  <time>2026-09-02T22:11:45Z</time>
  <course>90.08</course>
  <speed>0.79</speed>
  <fix>3d</fix>
</trkpt>
<trkpt lat="33.8103102" lon="-118.3943291">
  <ele>-39.745</ele>
  <time>2026-09-02T22:11:45Z</time>
  <course>91.26</course>
  <speed>0.8100617260431454</speed>
  <fix>3d</fix>
</trkpt>
<trkpt lat="33.81031" lon="-118.3943304">
  <ele>-38.8</ele>
  <time>2026-09-02T22:11:45Z</time>
  <course>90.08</course>
  <speed>0.79</speed>
  <fix>3d</fix>
</trkpt>
<trkpt lat="33.8103102" lon="-118.3943282">
  <ele>-39.734</ele>
  <time>2026-09-02T22:11:45Z</time>
  <course>91.22</course>
  <speed>0.8102468759581859</speed>
  <fix>3d</fix>
</trkpt>
<trkpt lat="33.81031" lon="-118.3943304">
  <ele>-38.8</ele>
  <time>2026-09-02T22:11:45Z</time>
  <course>90.08</course>
  <speed>0.79</speed>
  <fix>3d</fix>
</trkpt>
<trkpt lat="33.8103102" lon="-118.3943274">
  <ele>-39.722</ele>
  <time>2026-09-02T22:11:45Z</time>
  <course>91.19</course>
  <speed>0.8100617260431454</speed>
  <fix>3d</fix>
</trkpt>
<trkpt lat="33.81031" lon="-118.3943287">
  <ele>-38.78</ele>
  <time>2026-09-02T22:11:45Z</time>
  <course>90.09</course>
  <speed>0.79</speed>
  <fix>3d</fix>
</trkpt>
<trkpt lat="33.8103102" lon="-118.3943265">
  <ele>-39.71</ele>
  <time>2026-09-02T22:11:45Z</time>
  <course>91.16</course>
  <speed>0.8100617260431454</speed>
  <fix>3d</fix>
</trkpt>
<trkpt lat="33.81031" lon="-118.3943287">
  <ele>-38.78</ele>
  <time>2026-09-02T22:11:45Z</time>
  <course>90.09</course>
  <speed>0.79</speed>
  <fix>3d</fix>
</trkpt>
<trkpt lat="33.8103102" lon="-118.3943256">
  <ele>-39.698</ele>
  <time>2026-09-02T22:11:45Z</time>
  <course>91.14</course>
  <speed>0.8100617260431454</speed>
  <fix>3d</fix>
</trkpt>
<trkpt lat="33.81031" lon="-118.394327">
  <ele>-38.76</ele>
  <time>2026-09-02T22:11:45Z</time>
  <course>90.11</course>
  <speed>0.8</speed>
  <fix>3d</fix>
</trkpt>
<trkpt lat="33.8103102" lon="-118.3943248">
  <ele>-39.685</ele>
  <time>2026-09-02T22:11:45Z</time>
  <course>91.11</course>
  <speed>0.8200609733428362</speed>
  <fix>3d</fix>
</trkpt>
<trkpt lat="33.81031" lon="-118.394327">
  <ele>-38.76</ele>
  <time>2026-09-02T22:11:45Z</time>
  <course>90.11</course>
  <speed>0.8</speed>
  <fix>3d</fix>
</trkpt>
<trkpt lat="33.8103102" lon="-118.3943239">
  <ele>-39.671</ele>
  <time>2026-09-02T22:11:45Z</time>
  <course>91.09</course>
  <speed>0.8200609733428362</speed>
  <fix>3d</fix>
</trkpt>
<trkpt lat="33.81031" lon="-118.3943252">
  <ele>-38.73</ele>
  <time>2026-09-02T22:11:45Z</time>
  <course>90.14</course>
  <speed>0.8</speed>
  <fix>3d</fix>
</trkpt>
<trkpt lat="33.8103102" lon="-118.394323">
  <ele>-39.658</ele>
  <time>2026-09-02T22:11:45Z</time>
  <course>91.06</course>
  <speed>0.8200609733428362</speed>
  <fix>3d</fix>
</trkpt>
<trkpt lat="33.81031" lon="-118.3943252">
  <ele>-38.73</ele>
  <time>2026-09-02T22:11:45Z</time>
  <course>90.14</course>
  <speed>0.8</speed>
  <fix>3d</fix>
</trkpt>
<trkpt lat="33.8103102" lon="-118.3943222">
  <ele>-39.644</ele>
  <time>2026-09-02T22:11:45Z</time>
  <course>91.04</course>
  <speed>0.8200609733428362</speed>
  <fix>3d</fix>
</trkpt>
<trkpt lat="33.81031" lon="-118.3943235">
  <ele>-38.71</ele>
  <time>2026-09-02T22:11:45Z</time>
  <course>90.18</course>
  <speed>0.8</speed>
  <fix>3d</fix>
</trkpt>
<trkpt lat="33.8103102" lon="-118.3943213">
  <ele>-39.631</ele>
  <time>2026-09-02T22:11:45Z</time>
  <course>91.03</course>
  <speed>0.8200609733428362</speed>
  <fix>3d</fix>
</trkpt>
<trkpt lat="33.81031" lon="-118.3943235">
  <ele>-38.71</ele>
  <time>2026-09-02T22:11:45Z</time>
  <course>90.18</course>
  <speed>0.8</speed>
  <fix>3d</fix>
</trkpt>
<trkpt lat="33.8103102" lon="-118.3943204">
  <ele>-39.618</ele>
  <time>2026-09-02T22:11:45Z</time>
  <course>91.0</course>
  <speed>0.8200609733428362</speed>
  <fix>3d</fix>
</trkpt>
<trkpt lat="33.81031" lon="-118.3943218">
  <ele>-38.69</ele>
  <time>2026-09-02T22:11:45Z</time>
  <course>90.2</course>
  <speed>0.81</speed>
  <fix>3d</fix>
</trkpt>
<trkpt lat="33.8103102" lon="-118.3943195">
  <ele>-39.606</ele>
  <time>2026-09-02T22:11:45Z</time>
  <course>90.99</course>
  <speed>0.8300602387778854</speed>
  <fix>3d</fix>
</trkpt>
<trkpt lat="33.81031" lon="-118.3943218">
  <ele>-38.69</ele>
  <time>2026-09-02T22:11:45Z</time>
  <course>90.2</course>
  <speed>0.81</speed>
  <fix>3d</fix>
</trkpt>
<trkpt lat="33.8103102" lon="-118.3943187">
  <ele>-39.595</ele>
  <time>2026-09-02T22:11:45Z</time>
  <course>90.97</course>
  <speed>0.8300602387778854</speed>
  <fix>3d</fix>
</trkpt>
<trkpt lat="33.81031" lon="-118.39432">
  <ele>-38.67</ele>
  <time>2026-09-02T22:11:45Z</time>
  <course>90.23</course>
  <speed>0.81</speed>
  <fix>3d</fix>
</trkpt>
<trkpt lat="33.8103102" lon="-118.3943178">
  <ele>-39.584</ele>
  <time>2026-09-02T22:11:45Z</time>
  <course>90.95</course>
  <speed>0.8300602387778854</speed>
  <fix>3d</fix>
</trkpt>
<trkpt lat="33.81031" lon="-118.39432">
  <ele>-38.67</ele>
  <time>2026-09-02T22:11:45Z</time>
  <course>90.23</course>
  <speed>0.81</speed>
  <fix>3d</fix>
</trkpt>
<trkpt lat="33.8103102" lon="-118.3943169">
  <ele>-39.573</ele>
  <time>2026-09-02T22:11:45Z</time>
  <course>90.93</course>
  <speed>0.8300602387778854</speed>
  <fix>3d</fix>
</trkpt>
<trkpt lat="33.81031" lon="-118.3943182">
  <ele>-38.65</ele>
  <time>2026-09-02T22:11:45Z</time>
  <course>90.26</course>
  <speed>0.81</speed>
  <fix>3d</fix>
</trkpt>
<trkpt lat="33.8103102" lon="-118.394316">
  <ele>-39.563</ele>
  <time>2026-09-02T22:11:45Z</time>
  <course>90.91</course>
  <speed>0.8300602387778854</speed>
  <fix>3d</fix>
</trkpt>
<trkpt lat="33.81031" lon="-118.3943182">
  <ele>-38.65</ele>
  <time>2026-09-02T22:11:45Z</time>
  <course>90.26</course>
  <speed>0.81</speed>
  <fix>3d</fix>
</trkpt>
<trkpt lat="33.8103102" lon="-118.3943151">
  <ele>-39.555</ele>
  <time>2026-09-02T22:11:45Z</time>
  <course>90.89</course>
  <speed>0.8300602387778854</speed>
  <fix>3d</fix>
</trkpt>
<trkpt lat="33.81031" lon="-118.3943165">
  <ele>-38.62</ele>
  <time>2026-09-02T22:11:45Z</time>
  <course>90.29</course>
  <speed>0.81</speed>
  <fix>3d</fix>
</trkpt>
<trkpt lat="33.8103102" lon="-118.3943142">
  <ele>-39.548</ele>
  <time>2026-09-02T22:11:45Z</time>
  <course>90.88</course>
  <speed>0.8300602387778854</speed>
  <fix>3d</fix>
</trkpt>
<trkpt lat="33.81031" lon="-118.3943165">
  <ele>-38.62</ele>
  <time>2026-09-02T22:11:45Z</time>
  <course>90.29</course>
  <speed>0.81</speed>
  <fix>3d</fix>
</trkpt>
<trkpt lat="33.8103102" lon="-118.3943134">
  <ele>-39.541</ele>
  <time>2026-09-02T22:11:45Z</time>
  <course>90.86</course>
  <speed>0.8300602387778854</speed>
  <fix>3d</fix>
</trkpt>
<trkpt lat="33.81031" lon="-118.3943147">
  <ele>-38.61</ele>
  <time>2026-09-02T22:11:45Z</time>
  <course>90.32</course>
  <speed>0.82</speed>
  <fix>3d</fix>
</trkpt>
<trkpt lat="33.8103102" lon="-118.3943125">
  <ele>-39.534</ele>
  <time>2026-09-02T22:11:45Z</time>
  <course>90.84</course>
  <speed>0.8400595217006948</speed>
  <fix>3d</fix>
</trkpt>
<trkpt lat="33.81031" lon="-118.3943147">
  <ele>-38.61</ele>
  <time>2026-09-02T22:11:45Z</time>
  <course>90.32</course>
  <speed>0.82</speed>
  <fix>3d</fix>
</trkpt>
<trkpt lat="33.8103102" lon="-118.3943116">
  <ele>-39.527</ele>
  <time>2026-09-02T22:11:45Z</time>
  <course>90.82</course>
  <speed>0.8400595217006948</speed>
  <fix>3d</fix>
</trkpt>
<trkpt lat="33.81031" lon="-118.3943129">
  <ele>-38.59</ele>
  <time>2026-09-02T22:11:45Z</time>
  <course>90.36</course>
  <speed>0.82</speed>
  <fix>3d</fix>
</trkpt>
<trkpt lat="33.8103102" lon="-118.3943107">
  <ele>-39.519</ele>
  <time>2026-09-02T22:11:45Z</time>
  <course>90.81</course>
  <speed>0.8400595217006948</speed>
  <fix>3d</fix>
</trkpt>
<trkpt lat="33.81031" lon="-118.3943129">
  <ele>-38.59</ele>
  <time>2026-09-02T22:11:45Z</time>
  <course>90.36</course>
  <speed>0.82</speed>
  <fix>3d</fix>
</trkpt>
<trkpt lat="33.8103102" lon="-118.3943098">
  <ele>-39.509</ele>
  <time>2026-09-02T22:11:45Z</time>
  <course>90.79</course>
  <speed>0.8400595217006948</speed>
  <fix>3d</fix>
</trkpt>
<trkpt lat="33.81031" lon="-118.3943111">
  <ele>-38.57</ele>
  <time>2026-09-02T22:11:45Z</time>
  <course>90.4</course>
  <speed>0.82</speed>
  <fix>3d</fix>
</trkpt>
<trkpt lat="33.8103102" lon="-118.3943089">
  <ele>-39.499</ele>
  <time>2026-09-02T22:11:45Z</time>
  <course>90.77</course>
  <speed>0.8400595217006948</speed>
  <fix>3d</fix>
</trkpt>
<trkpt lat="33.81031" lon="-118.3943111">
  <ele>-38.57</ele>
  <time>2026-09-02T22:11:45Z</time>
  <course>90.4</course>
  <speed>0.82</speed>
  <fix>3d</fix>
</trkpt>
<trkpt lat="33.8103102" lon="-118.394308">
  <ele>-39.49</ele>
  <time>2026-09-02T22:11:45Z</time>
  <course>90.75</course>
  <speed>0.8400595217006948</speed>
  <fix>3d</fix>
</trkpt>
<trkpt lat="33.81031" lon="-118.3943094">
  <ele>-38.55</ele>
  <time>2026-09-02T22:11:45Z</time>
  <course>90.44</course>
  <speed>0.82</speed>
  <fix>3d</fix>
</trkpt>
<trkpt lat="33.8103102" lon="-118.3943071">
  <ele>-39.48</ele>
  <time>2026-09-02T22:11:45Z</time>
  <course>90.74</course>
  <speed>0.8400595217006948</speed>
  <fix>3d</fix>
</trkpt>
<trkpt lat="33.81031" lon="-118.3943094">
  <ele>-38.55</ele>
  <time>2026-09-02T22:11:45Z</time>
  <course>90.44</course>
  <speed>0.82</speed>
  <fix>3d</fix>
</trkpt>
<trkpt lat="33.8103102" lon="-118.3943062">
  <ele>-39.47</ele>
  <time>2026-09-02T22:11:45Z</time>
  <course>90.72</course>
  <speed>0.8400595217006948</speed>
  <fix>3d</fix>
</trkpt>
<trkpt lat="33.81031" lon="-118.3943076">
  <ele>-38.53</ele>
  <time>2026-09-02T22:11:45Z</time>
  <course>90.48</course>
  <speed>0.83</speed>
  <fix>3d</fix>
</trkpt>
<trkpt lat="33.8103102" lon="-118.3943053">
  <ele>-39.46</ele>
  <time>2026-09-02T22:11:45Z</time>
  <course>90.7</course>
  <speed>0.8500588214941364</speed>
  <fix>3d</fix>
</trkpt>
<trkpt lat="33.81031" lon="-118.3943076">
  <ele>-38.53</ele>
  <time>2026-09-02T22:11:45Z</time>
  <course>90.48</course>
  <speed>0.83</speed>
  <fix>3d</fix>
</trkpt>
<trkpt lat="33.8103102" lon="-118.3943044">
  <ele>-39.449</ele>
  <time>2026-09-02T22:11:45Z</time>
  <course>90.68</course>
  <speed>0.8500588214941364</speed>
  <fix>3d</fix>
</trkpt>
<trkpt lat="33.81031" lon="-118.3943058">
  <ele>-38.51</ele>
  <time>2026-09-02T22:11:45Z</time>
  <course>90.51</course>
  <speed>0.83</speed>
  <fix>3d</fix>
</trkpt>
<trkpt lat="33.8103102" lon="-118.3943035">
  <ele>-39.439</ele>
  <time>2026-09-02T22:11:45Z</time>
  <course>90.66</course>
  <speed>0.8500588214941364</speed>
  <fix>3d</fix>
</trkpt>
<trkpt lat="33.81031" lon="-118.3943058">
  <ele>-38.51</ele>
  <time>2026-09-02T22:11:45Z</time>
  <course>90.51</course>
  <speed>0.83</speed>
  <fix>3d</fix>
</trkpt>
<trkpt lat="33.8103102" lon="-118.3943026">
  <ele>-39.429</ele>
  <time>2026-09-02T22:11:45Z</time>
  <course>90.64</course>
  <speed>0.8500588214941364</speed>
  <fix>3d</fix>
</trkpt>
<trkpt lat="33.81031" lon="-118.394304">
  <ele>-38.5</ele>
  <time>2026-09-02T22:11:45Z</time>
  <course>90.56</course>
  <speed>0.83</speed>
  <fix>3d</fix>
</trkpt>
<trkpt lat="33.8103102" lon="-118.3943017">
  <ele>-39.419</ele>
  <time>2026-09-02T22:11:45Z</time>
  <course>90.62</course>
  <speed>0.8500588214941364</speed>
  <fix>3d</fix>
</trkpt>
<trkpt lat="33.81031" lon="-118.394304">
  <ele>-38.5</ele>
  <time>2026-09-02T22:11:45Z</time>
  <course>90.56</course>
  <speed>0.83</speed>
  <fix>3d</fix>
</trkpt>
<trkpt lat="33.8103102" lon="-118.3943008">
  <ele>-39.41</ele>
  <time>2026-09-02T22:11:45Z</time>
  <course>90.6</course>
  <speed>0.8500588214941364</speed>
  <fix>3d</fix>
</trkpt>
<trkpt lat="33.81031" lon="-118.3943021">
  <ele>-38.48</ele>
  <time>2026-09-02T22:11:45Z</time>
  <course>90.59</course>
  <speed>0.84</speed>
  <fix>3d</fix>
</trkpt>
<trkpt lat="33.8103102" lon="-118.3942999">
  <ele>-39.401</ele>
  <time>2026-09-02T22:11:45Z</time>
  <course>90.59</course>
  <speed>0.8500588214941364</speed>
  <fix>3d</fix>
</trkpt>
<trkpt lat="33.81031" lon="-118.3943021">
  <ele>-38.48</ele>
  <time>2026-09-02T22:11:45Z</time>
  <course>90.59</course>
  <speed>0.84</speed>
  <fix>3d</fix>
</trkpt>
<trkpt lat="33.8103102" lon="-118.394299">
  <ele>-39.392</ele>
  <time>2026-09-02T22:11:45Z</time>
  <course>90.57</course>
  <speed>0.8500588214941364</speed>
  <fix>3d</fix>
</trkpt>
<trkpt lat="33.81031" lon="-118.3943003">
  <ele>-38.46</ele>
  <time>2026-09-02T22:11:45Z</time>
  <course>90.63</course>
  <speed>0.84</speed>
  <fix>3d</fix>
</trkpt>
<trkpt lat="33.8103102" lon="-118.3942981">
  <ele>-39.383</ele>
  <time>2026-09-02T22:11:45Z</time>
  <course>90.55</course>
  <speed>0.8600581375697809</speed>
  <fix>3d</fix>
</trkpt>
<trkpt lat="33.81031" lon="-118.3943003">
  <ele>-38.46</ele>
  <time>2026-09-02T22:11:45Z</time>
  <course>90.63</course>
  <speed>0.84</speed>
  <fix>3d</fix>
</trkpt>
<trkpt lat="33.8103102" lon="-118.3942971">
  <ele>-39.373</ele>
  <time>2026-09-02T22:11:45Z</time>
  <course>90.54</course>
  <speed>0.8600581375697809</speed>
  <fix>3d</fix>
</trkpt>
<trkpt lat="33.8103099" lon="-118.3942985">
  <ele>-38.44</ele>
  <time>2026-09-02T22:11:45Z</time>
  <course>90.69</course>
  <speed>0.84</speed>
  <fix>3d</fix>
</trkpt>
<trkpt lat="33.8103101" lon="-118.3942962">
  <ele>-39.363</ele>
  <time>2026-09-02T22:11:45Z</time>
  <course>90.52</course>
  <speed>0.8600581375697809</speed>
  <fix>3d</fix>
</trkpt>
<trkpt lat="33.8103099" lon="-118.3942985">
  <ele>-38.44</ele>
  <time>2026-09-02T22:11:45Z</time>
  <course>90.69</course>
  <speed>0.84</speed>
  <fix>3d</fix>
</trkpt>
<trkpt lat="33.8103101" lon="-118.3942953">
  <ele>-39.352</ele>
  <time>2026-09-02T22:11:45Z</time>
  <course>90.48</course>
  <speed>0.8600581375697809</speed>
  <fix>3d</fix>
</trkpt>
<trkpt lat="33.8103099" lon="-118.3942966">
  <ele>-38.42</ele>
  <time>2026-09-02T22:11:45Z</time>
  <course>90.68</course>
  <speed>0.84</speed>
  <fix>3d</fix>
</trkpt>
<trkpt lat="33.8103101" lon="-118.3942944">
  <ele>-39.341</ele>
  <time>2026-09-02T22:11:45Z</time>
  <course>90.41</course>
  <speed>0.8600581375697809</speed>
  <fix>3d</fix>
</trkpt>
<trkpt lat="33.8103099" lon="-118.3942966">
  <ele>-38.42</ele>
  <time>2026-09-02T22:11:45Z</time>
  <course>90.68</course>
  <speed>0.84</speed>
  <fix>3d</fix>
</trkpt>
<trkpt lat="33.8103101" lon="-118.3942935">
  <ele>-39.33</ele>
  <time>2026-09-02T22:11:45Z</time>
  <course>90.34</course>
  <speed>0.8600581375697809</speed>
  <fix>3d</fix>
</trkpt>
<trkpt lat="33.8103099" lon="-118.3942948">
  <ele>-38.4</ele>
  <time>2026-09-02T22:11:45Z</time>
  <course>90.59</course>
  <speed>0.84</speed>
  <fix>3d</fix>
</trkpt>
<trkpt lat="33.8103101" lon="-118.3942925">
  <ele>-39.319</ele>
  <time>2026-09-02T22:11:45Z</time>
  <course>90.27</course>
  <speed>0.8600581375697809</speed>
  <fix>3d</fix>
</trkpt>
<trkpt lat="33.8103099" lon="-118.3942948">
  <ele>-38.4</ele>
  <time>2026-09-02T22:11:45Z</time>
  <course>90.59</course>
  <speed>0.84</speed>
  <fix>3d</fix>
</trkpt>
<trkpt lat="33.8103101" lon="-118.3942916">
  <ele>-39.306</ele>
  <time>2026-09-02T22:11:45Z</time>
  <course>90.19</course>
  <speed>0.8600581375697809</speed>
  <fix>3d</fix>
</trkpt>
<trkpt lat="33.8103099" lon="-118.394293">
  <ele>-38.37</ele>
  <time>2026-09-02T22:11:45Z</time>
  <course>90.52</course>
  <speed>0.85</speed>
  <fix>3d</fix>
</trkpt>
<trkpt lat="33.8103101" lon="-118.3942907">
  <ele>-39.292</ele>
  <time>2026-09-02T22:11:45Z</time>
  <course>90.14</course>
  <speed>0.8600581375697809</speed>
  <fix>3d</fix>
</trkpt>
<trkpt lat="33.8103099" lon="-118.394293">
  <ele>-38.37</ele>
  <time>2026-09-02T22:11:45Z</time>
  <course>90.52</course>
  <speed>0.85</speed>
  <fix>3d</fix>
</trkpt>
<trkpt lat="33.8103101" lon="-118.3942898">
  <ele>-39.278</ele>
  <time>2026-09-02T22:11:45Z</time>
  <course>90.08</course>
  <speed>0.8600581375697809</speed>
  <fix>3d</fix>
</trkpt>
<trkpt lat="33.8103099" lon="-118.3942911">
  <ele>-38.36</ele>
  <time>2026-09-02T22:11:45Z</time>
  <course>90.47</course>
  <speed>0.85</speed>
  <fix>3d</fix>
</trkpt>
<trkpt lat="33.8103101" lon="-118.3942888">
  <ele>-39.264</ele>
  <time>2026-09-02T22:11:45Z</time>
  <course>90.03</course>
  <speed>0.8700574693662483</speed>
  <fix>3d</fix>
</trkpt>
<trkpt lat="33.8103099" lon="-118.3942911">
  <ele>-38.36</ele>
  <time>2026-09-02T22:11:45Z</time>
  <course>90.47</course>
  <speed>0.85</speed>
  <fix>3d</fix>
</trkpt>
<trkpt lat="33.8103101" lon="-118.3942879">
  <ele>-39.251</ele>
  <time>2026-09-02T22:11:45Z</time>
  <course>89.99</course>
  <speed>0.8700574693662483</speed>
  <fix>3d</fix>
</trkpt>
<trkpt lat="33.8103099" lon="-118.3942893">
  <ele>-38.33</ele>
  <time>2026-09-02T22:11:45Z</time>
  <course>90.44</course>
  <speed>0.85</speed>
  <fix>3d</fix>
</trkpt>
<trkpt lat="33.8103101" lon="-118.394287">
  <ele>-39.237</ele>
  <time>2026-09-02T22:11:45Z</time>
  <course>89.96</course>
  <speed>0.8700574693662483</speed>
  <fix>3d</fix>
</trkpt>
<trkpt lat="33.8103099" lon="-118.3942893">
  <ele>-38.33</ele>
  <time>2026-09-02T22:11:45Z</time>
  <course>90.44</course>
  <speed>0.85</speed>
  <fix>3d</fix>
</trkpt>
<trkpt lat="33.8103101" lon="-118.3942861">
  <ele>-39.225</ele>
  <time>2026-09-02T22:11:45Z</time>
  <course>89.93</course>
  <speed>0.8700574693662483</speed>
  <fix>3d</fix>
</trkpt>
<trkpt lat="33.8103098" lon="-118.3942874">
  <ele>-38.3</ele>
  <time>2026-09-02T22:11:45Z</time>
  <course>90.45</course>
  <speed>0.85</speed>
  <fix>3d</fix>
</trkpt>
<trkpt lat="33.8103101" lon="-118.3942851">
  <ele>-39.213</ele>
  <time>2026-09-02T22:11:45Z</time>
  <course>89.9</course>
  <speed>0.8702298546935746</speed>
  <fix>3d</fix>
</trkpt>
<trkpt lat="33.8103098" lon="-118.3942874">
  <ele>-38.3</ele>
  <time>2026-09-02T22:11:45Z</time>
  <course>90.45</course>
  <speed>0.85</speed>
  <fix>3d</fix>
</trkpt>
<trkpt lat="33.8103101" lon="-118.3942842">
  <ele>-39.203</ele>
  <time>2026-09-02T22:11:45Z</time>
  <course>89.86</course>
  <speed>0.8702298546935746</speed>
  <fix>3d</fix>
</trkpt>
<trkpt lat="33.8103098" lon="-118.3942856">
  <ele>-38.28</ele>
  <time>2026-09-02T22:11:45Z</time>
  <course>90.4</course>
  <speed>0.85</speed>
  <fix>3d</fix>
</trkpt>
<trkpt lat="33.8103101" lon="-118.3942833">
  <ele>-39.193</ele>
  <time>2026-09-02T22:11:45Z</time>
  <course>89.78</course>
  <speed>0.8702298546935746</speed>
  <fix>3d</fix>
</trkpt>
<trkpt lat="33.8103098" lon="-118.3942856">
  <ele>-38.28</ele>
  <time>2026-09-02T22:11:45Z</time>
  <course>90.4</course>
  <speed>0.85</speed>
  <fix>3d</fix>
</trkpt>
<trkpt lat="33.8103101" lon="-118.3942823">
  <ele>-39.184</ele>
  <time>2026-09-02T22:11:45Z</time>
  <course>89.7</course>
  <speed>0.8702298546935746</speed>
  <fix>3d</fix>
</trkpt>
<trkpt lat="33.8103098" lon="-118.3942837">
  <ele>-38.26</ele>
  <time>2026-09-02T22:11:45Z</time>
  <course>90.29</course>
  <speed>0.86</speed>
  <fix>3d</fix>
</trkpt>
<trkpt lat="33.8103101" lon="-118.3942814">
  <ele>-39.174</ele>
  <time>2026-09-02T22:11:45Z</time>
  <course>89.63</course>
  <speed>0.8802272433866155</speed>
  <fix>3d</fix>
</trkpt>
<trkpt lat="33.8103098" lon="-118.3942837">
  <ele>-38.26</ele>
  <time>2026-09-02T22:11:45Z</time>
  <course>90.29</course>
  <speed>0.86</speed>
  <fix>3d</fix>
</trkpt>
<trkpt lat="33.8103101" lon="-118.3942805">
  <ele>-39.164</ele>
  <time>2026-09-02T22:11:45Z</time>
  <course>89.56</course>
  <speed>0.8802272433866155</speed>
  <fix>3d</fix>
</trkpt>
<trkpt lat="33.8103098" lon="-118.3942818">
  <ele>-38.23</ele>
  <time>2026-09-02T22:11:45Z</time>
  <course>90.19</course>
  <speed>0.86</speed>
  <fix>3d</fix>
</trkpt>
<trkpt lat="33.8103101" lon="-118.3942795">
  <ele>-39.154</ele>
  <time>2026-09-02T22:11:45Z</time>
  <course>89.51</course>
  <speed>0.8802272433866155</speed>
  <fix>3d</fix>
</trkpt>
<trkpt lat="33.8103098" lon="-118.3942818">
  <ele>-38.23</ele>
  <time>2026-09-02T22:11:45Z</time>
  <course>90.19</course>
  <speed>0.86</speed>
  <fix>3d</fix>
</trkpt>
<trkpt lat="33.8103101" lon="-118.3942786">
  <ele>-39.144</ele>
  <time>2026-09-02T22:11:45Z</time>
  <course>89.46</course>
  <speed>0.8802272433866155</speed>
  <fix>3d</fix>
</trkpt>
<trkpt lat="33.8103098" lon="-118.39428">
  <ele>-38.22</ele>
  <time>2026-09-02T22:11:45Z</time>
  <course>90.13</course>
  <speed>0.86</speed>
  <fix>3d</fix>
</trkpt>
<trkpt lat="33.8103101" lon="-118.3942776">
  <ele>-39.134</ele>
  <time>2026-09-02T22:11:45Z</time>
  <course>89.42</course>
  <speed>0.8802272433866155</speed>
  <fix>3d</fix>
</trkpt>
<trkpt lat="33.8103098" lon="-118.39428">
  <ele>-38.22</ele>
  <time>2026-09-02T22:11:45Z</time>
  <course>90.13</course>
  <speed>0.86</speed>
  <fix>3d</fix>
</trkpt>
<trkpt lat="33.8103101" lon="-118.3942767">
  <ele>-39.123</ele>
  <time>2026-09-02T22:11:45Z</time>
  <course>89.38</course>
  <speed>0.8802272433866155</speed>
  <fix>3d</fix>
</trkpt>
<trkpt lat="33.8103098" lon="-118.3942781">
  <ele>-38.19</ele>
  <time>2026-09-02T22:11:45Z</time>
  <course>90.08</course>
  <speed>0.86</speed>
  <fix>3d</fix>
</trkpt>
<trkpt lat="33.8103101" lon="-118.3942758">
  <ele>-39.113</ele>
  <time>2026-09-02T22:11:45Z</time>
  <course>89.35</course>
  <speed>0.8802272433866155</speed>
  <fix>3d</fix>
</trkpt>
<trkpt lat="33.8103098" lon="-118.3942781">
  <ele>-38.19</ele>
  <time>2026-09-02T22:11:45Z</time>
  <course>90.08</course>
  <speed>0.86</speed>
  <fix>3d</fix>
</trkpt>
<trkpt lat="33.8103101" lon="-118.3942748">
  <ele>-39.103</ele>
  <time>2026-09-02T22:11:45Z</time>
  <course>89.32</course>
  <speed>0.8802272433866155</speed>
  <fix>3d</fix>
</trkpt>
<trkpt lat="33.8103098" lon="-118.3942762">
  <ele>-38.18</ele>
  <time>2026-09-02T22:11:45Z</time>
  <course>90.06</course>
  <speed>0.86</speed>
  <fix>3d</fix>
</trkpt>
<trkpt lat="33.8103101" lon="-118.3942739">
  <ele>-39.091</ele>
  <time>2026-09-02T22:11:45Z</time>
  <course>89.31</course>
  <speed>0.8902246907382428</speed>
  <fix>3d</fix>
</trkpt>
<trkpt lat="33.8103098" lon="-118.3942762">
  <ele>-38.18</ele>
  <time>2026-09-02T22:11:45Z</time>
  <course>90.06</course>
  <speed>0.86</speed>
  <fix>3d</fix>
</trkpt>
<trkpt lat="33.8103101" lon="-118.3942729">
  <ele>-39.08</ele>
  <time>2026-09-02T22:11:45Z</time>
  <course>89.28</course>
  <speed>0.8902246907382428</speed>
  <fix>3d</fix>
</trkpt>
<trkpt lat="33.8103098" lon="-118.3942743">
  <ele>-38.16</ele>
  <time>2026-09-02T22:11:45Z</time>
  <course>90.05</course>
  <speed>0.87</speed>
  <fix>3d</fix>
</trkpt>
<trkpt lat="33.8103101" lon="-118.394272">
  <ele>-39.068</ele>
  <time>2026-09-02T22:11:45Z</time>
  <course>89.27</course>
  <speed>0.8902246907382428</speed>
  <fix>3d</fix>
</trkpt>
<trkpt lat="33.8103098" lon="-118.3942743">
  <ele>-38.16</ele>
  <time>2026-09-02T22:11:45Z</time>
  <course>90.05</course>
  <speed>0.87</speed>
  <fix>3d</fix>
</trkpt>
<trkpt lat="33.8103101" lon="-118.394271">
  <ele>-39.058</ele>
  <time>2026-09-02T22:11:45Z</time>
  <course>89.26</course>
  <speed>0.8902246907382428</speed>
  <fix>3d</fix>
</trkpt>
<trkpt lat="33.8103098" lon="-118.3942724">
  <ele>-38.14</ele>
  <time>2026-09-02T22:11:45Z</time>
  <course>90.04</course>
  <speed>0.87</speed>
  <fix>3d</fix>
</trkpt>
<trkpt lat="33.8103101" lon="-118.3942701">
  <ele>-39.048</ele>
  <time>2026-09-02T22:11:45Z</time>
  <course>89.25</course>
  <speed>0.8902246907382428</speed>
  <fix>3d</fix>
</trkpt>
<trkpt lat="33.8103098" lon="-118.3942724">
  <ele>-38.14</ele>
  <time>2026-09-02T22:11:45Z</time>
  <course>90.04</course>
  <speed>0.87</speed>
  <fix>3d</fix>
</trkpt>
<trkpt lat="33.8103101" lon="-118.3942691">
  <ele>-39.039</ele>
  <time>2026-09-02T22:11:45Z</time>
  <course>89.24</course>
  <speed>0.8902246907382428</speed>
  <fix>3d</fix>
</trkpt>
<trkpt lat="33.8103098" lon="-118.3942705">
  <ele>-38.12</ele>
  <time>2026-09-02T22:11:45Z</time>
  <course>90.04</course>
  <speed>0.87</speed>
  <fix>3d</fix>
</trkpt>
<trkpt lat="33.8103101" lon="-118.3942682">
  <ele>-39.03</ele>
  <time>2026-09-02T22:11:45Z</time>
  <course>89.23</course>
  <speed>0.8902246907382428</speed>
  <fix>3d</fix>
</trkpt>
<trkpt lat="33.8103098" lon="-118.3942705">
  <ele>-38.12</ele>
  <time>2026-09-02T22:11:45Z</time>
  <course>90.04</course>
  <speed>0.87</speed>
  <fix>3d</fix>
</trkpt>
<trkpt lat="33.8103101" lon="-118.3942672">
  <ele>-39.021</ele>
  <time>2026-09-02T22:11:45Z</time>
  <course>89.23</course>
  <speed>0.8902246907382428</speed>
  <fix>3d</fix>
</trkpt>
<trkpt lat="33.8103098" lon="-118.3942686">
  <ele>-38.1</ele>
  <time>2026-09-02T22:11:45Z</time>
  <course>90.05</course>
  <speed>0.87</speed>
  <fix>3d</fix>
</trkpt>
<trkpt lat="33.8103101" lon="-118.3942662">
  <ele>-39.014</ele>
  <time>2026-09-02T22:11:45Z</time>
  <course>89.23</course>
  <speed>0.8902246907382428</speed>
  <fix>3d</fix>
</trkpt>
<trkpt lat="33.8103098" lon="-118.3942686">
  <ele>-38.1</ele>
  <time>2026-09-02T22:11:45Z</time>
  <course>90.05</course>
  <speed>0.87</speed>
  <fix>3d</fix>
</trkpt>
<trkpt lat="33.8103101" lon="-118.3942653">
  <ele>-39.006</ele>
  <time>2026-09-02T22:11:45Z</time>
  <course>89.22</course>
  <speed>0.8902246907382428</speed>
  <fix>3d</fix>
</trkpt>
<trkpt lat="33.8103098" lon="-118.3942667">
  <ele>-38.08</ele>
  <time>2026-09-02T22:11:45Z</time>
  <course>90.04</course>
  <speed>0.87</speed>
  <fix>3d</fix>
</trkpt>
<trkpt lat="33.8103101" lon="-118.3942643">
  <ele>-38.997</ele>
  <time>2026-09-02T22:11:45Z</time>
  <course>89.21</course>
  <speed>0.900222194794152</speed>
  <fix>3d</fix>
</trkpt>
<trkpt lat="33.8103098" lon="-118.3942667">
  <ele>-38.08</ele>
  <time>2026-09-02T22:11:45Z</time>
  <course>90.04</course>
  <speed>0.87</speed>
  <fix>3d</fix>
</trkpt>
<trkpt lat="33.8103101" lon="-118.3942634">
  <ele>-38.988</ele>
  <time>2026-09-02T22:11:45Z</time>
  <course>89.2</course>
  <speed>0.900222194794152</speed>
  <fix>3d</fix>
</trkpt>
<trkpt lat="33.8103098" lon="-118.3942648">
  <ele>-38.06</ele>
  <time>2026-09-02T22:11:45Z</time>
  <course>90.03</course>
  <speed>0.88</speed>
  <fix>3d</fix>
</trkpt>
<trkpt lat="33.8103101" lon="-118.3942624">
  <ele>-38.978</ele>
  <time>2026-09-02T22:11:45Z</time>
  <course>89.21</course>
  <speed>0.900222194794152</speed>
  <fix>3d</fix>
</trkpt>
<trkpt lat="33.8103098" lon="-118.3942648">
  <ele>-38.06</ele>
  <time>2026-09-02T22:11:45Z</time>
  <course>90.03</course>
  <speed>0.88</speed>
  <fix>3d</fix>
</trkpt>
<trkpt lat="33.8103101" lon="-118.3942614">
  <ele>-38.969</ele>
  <time>2026-09-02T22:11:45Z</time>
  <course>89.2</course>
  <speed>0.900222194794152</speed>
  <fix>3d</fix>
</trkpt>
<trkpt lat="33.8103098" lon="-118.3942629">
  <ele>-38.05</ele>
  <time>2026-09-02T22:11:45Z</time>
  <course>90.04</course>
  <speed>0.88</speed>
  <fix>3d</fix>
</trkpt>
<trkpt lat="33.8103101" lon="-118.3942605">
  <ele>-38.96</ele>
  <time>2026-09-02T22:11:45Z</time>
  <course>89.2</course>
  <speed>0.900222194794152</speed>
  <fix>3d</fix>
</trkpt>
<trkpt lat="33.8103098" lon="-118.3942629">
  <ele>-38.05</ele>
  <time>2026-09-02T22:11:45Z</time>
  <course>90.04</course>
  <speed>0.88</speed>
  <fix>3d</fix>
</trkpt>
<trkpt lat="33.8103101" lon="-118.3942595">
  <ele>-38.95</ele>
  <time>2026-09-02T22:11:45Z</time>
  <course>89.19</course>
  <speed>0.900222194794152</speed>
  <fix>3d</fix>
</trkpt>
<trkpt lat="33.8103098" lon="-118.394261">
  <ele>-38.03</ele>
  <time>2026-09-02T22:11:45Z</time>
  <course>90.05</course>
  <speed>0.88</speed>
  <fix>3d</fix>
</trkpt>
<trkpt lat="33.8103101" lon="-118.3942586">
  <ele>-38.94</ele>
  <time>2026-09-02T22:11:45Z</time>
  <course>89.19</course>
  <speed>0.900222194794152</speed>
  <fix>3d</fix>
</trkpt>
<trkpt lat="33.8103098" lon="-118.394261">
  <ele>-38.03</ele>
  <time>2026-09-02T22:11:45Z</time>
  <course>90.05</course>
  <speed>0.88</speed>
  <fix>3d</fix>
</trkpt>
<trkpt lat="33.81031" lon="-118.3942576">
  <ele>-38.929</ele>
  <time>2026-09-02T22:11:45Z</time>
  <course>89.19</course>
  <speed>0.900222194794152</speed>
  <fix>3d</fix>
</trkpt>
<trkpt lat="33.8103098" lon="-118.3942591">
  <ele>-38.0</ele>
  <time>2026-09-02T22:11:45Z</time>
  <course>90.05</course>
  <speed>0.88</speed>
  <fix>3d</fix>
</trkpt>
<trkpt lat="33.81031" lon="-118.3942566">
  <ele>-38.918</ele>
  <time>2026-09-02T22:11:45Z</time>
  <course>89.18</course>
  <speed>0.9102197536858887</speed>
  <fix>3d</fix>
</trkpt>
<trkpt lat="33.8103098" lon="-118.3942591">
  <ele>-38.0</ele>
  <time>2026-09-02T22:11:45Z</time>
  <course>90.05</course>
  <speed>0.88</speed>
  <fix>3d</fix>
</trkpt>
<trkpt lat="33.81031" lon="-118.3942557">
  <ele>-38.907</ele>
  <time>2026-09-02T22:11:45Z</time>
  <course>89.18</course>
  <speed>0.9102197536858887</speed>
  <fix>3d</fix>
</trkpt>
<trkpt lat="33.8103098" lon="-118.3942572">
  <ele>-37.98</ele>
  <time>2026-09-02T22:11:45Z</time>
  <course>90.06</course>
  <speed>0.88</speed>
  <fix>3d</fix>
</trkpt>
<trkpt lat="33.81031" lon="-118.3942547">
  <ele>-38.894</ele>
  <time>2026-09-02T22:11:45Z</time>
  <course>89.18</course>
  <speed>0.9102197536858887</speed>
  <fix>3d</fix>
</trkpt>
<trkpt lat="33.8103098" lon="-118.3942572">
  <ele>-37.98</ele>
  <time>2026-09-02T22:11:45Z</time>
  <course>90.06</course>
  <speed>0.88</speed>
  <fix>3d</fix>
</trkpt>
<trkpt lat="33.81031" lon="-118.3942537">
  <ele>-38.88</ele>
  <time>2026-09-02T22:11:45Z</time>
  <course>89.17</course>
  <speed>0.9102197536858887</speed>
  <fix>3d</fix>
</trkpt>
<trkpt lat="33.8103098" lon="-118.3942553">
  <ele>-37.96</ele>
  <time>2026-09-02T22:11:45Z</time>
  <course>90.06</course>
  <speed>0.89</speed>
  <fix>3d</fix>
</trkpt>
<trkpt lat="33.81031" lon="-118.3942528">
  <ele>-38.866</ele>
  <time>2026-09-02T22:11:45Z</time>
  <course>89.17</course>
  <speed>0.9102197536858887</speed>
  <fix>3d</fix>
</trkpt>
<trkpt lat="33.8103098" lon="-118.3942553">
  <ele>-37.96</ele>
  <time>2026-09-02T22:11:45Z</time>
  <course>90.06</course>
  <speed>0.89</speed>
  <fix>3d</fix>
</trkpt>
<trkpt lat="33.81031" lon="-118.3942518">
  <ele>-38.852</ele>
  <time>2026-09-02T22:11:45Z</time>
  <course>89.17</course>
  <speed>0.9102197536858887</speed>
  <fix>3d</fix>
</trkpt>
<trkpt lat="33.8103098" lon="-118.3942533">
  <ele>-37.93</ele>
  <time>2026-09-02T22:11:45Z</time>
  <course>90.07</course>
  <speed>0.89</speed>
  <fix>3d</fix>
</trkpt>
<trkpt lat="33.81031" lon="-118.3942508">
  <ele>-38.839</ele>
  <time>2026-09-02T22:11:45Z</time>
  <course>89.16</course>
  <speed>0.9102197536858887</speed>
  <fix>3d</fix>
</trkpt>
<trkpt lat="33.8103098" lon="-118.3942533">
  <ele>-37.93</ele>
  <time>2026-09-02T22:11:45Z</time>
  <course>90.07</course>
  <speed>0.89</speed>
  <fix>3d</fix>
</trkpt>
<trkpt lat="33.81031" lon="-118.3942499">
  <ele>-38.827</ele>
  <time>2026-09-02T22:11:45Z</time>
  <course>89.16</course>
  <speed>0.9102197536858887</speed>
  <fix>3d</fix>
</trkpt>
<trkpt lat="33.8103098" lon="-118.3942514">
  <ele>-37.9</ele>
  <time>2026-09-02T22:11:45Z</time>
  <course>90.06</course>
  <speed>0.89</speed>
  <fix>3d</fix>
</trkpt>
<trkpt lat="33.81031" lon="-118.3942489">
  <ele>-38.814</ele>
  <time>2026-09-02T22:11:45Z</time>
  <course>89.15</course>
  <speed>0.9202173656261873</speed>
  <fix>3d</fix>
</trkpt>
<trkpt lat="33.8103098" lon="-118.3942514">
  <ele>-37.9</ele>
  <time>2026-09-02T22:11:45Z</time>
  <course>90.06</course>
  <speed>0.89</speed>
  <fix>3d</fix>
</trkpt>
<trkpt lat="33.81031" lon="-118.3942479">
  <ele>-38.803</ele>
  <time>2026-09-02T22:11:45Z</time>
  <course>89.14</course>
  <speed>0.9202173656261873</speed>
  <fix>3d</fix>
</trkpt>
<trkpt lat="33.8103098" lon="-118.3942495">
  <ele>-37.87</ele>
  <time>2026-09-02T22:11:45Z</time>
  <course>90.05</course>
  <speed>0.9</speed>
  <fix>3d</fix>
</trkpt>
<trkpt lat="33.81031" lon="-118.3942469">
  <ele>-38.791</ele>
  <time>2026-09-02T22:11:45Z</time>
  <course>89.15</course>
  <speed>0.9202173656261873</speed>
  <fix>3d</fix>
</trkpt>
<trkpt lat="33.8103098" lon="-118.3942495">
  <ele>-37.87</ele>
  <time>2026-09-02T22:11:45Z</time>
  <course>90.05</course>
  <speed>0.9</speed>
  <fix>3d</fix>
</trkpt>
<trkpt lat="33.81031" lon="-118.394246">
  <ele>-38.78</ele>
  <time>2026-09-02T22:11:45Z</time>
  <course>89.14</course>
  <speed>0.9202173656261873</speed>
  <fix>3d</fix>
</trkpt>
<trkpt lat="33.8103098" lon="-118.3942475">
  <ele>-37.86</ele>
  <time>2026-09-02T22:11:45Z</time>
  <course>90.06</course>
  <speed>0.9</speed>
  <fix>3d</fix>
</trkpt>
<trkpt lat="33.81031" lon="-118.394245">
  <ele>-38.768</ele>
  <time>2026-09-02T22:11:45Z</time>
  <course>89.14</course>
  <speed>0.9202173656261873</speed>
  <fix>3d</fix>
</trkpt>
<trkpt lat="33.8103098" lon="-118.3942475">
  <ele>-37.86</ele>
  <time>2026-09-02T22:11:45Z</time>
  <course>90.06</course>
  <speed>0.9</speed>
  <fix>3d</fix>
</trkpt>
<trkpt lat="33.81031" lon="-118.394244">
  <ele>-38.757</ele>
  <time>2026-09-02T22:11:45Z</time>
  <course>89.14</course>
  <speed>0.9202173656261873</speed>
  <fix>3d</fix>
</trkpt>
<trkpt lat="33.8103098" lon="-118.3942456">
  <ele>-37.83</ele>
  <time>2026-09-02T22:11:45Z</time>
  <course>90.06</course>
  <speed>0.9</speed>
  <fix>3d</fix>
</trkpt>
<trkpt lat="33.81031" lon="-118.394243">
  <ele>-38.745</ele>
  <time>2026-09-02T22:11:45Z</time>
  <course>89.15</course>
  <speed>0.9202173656261873</speed>
  <fix>3d</fix>
</trkpt>
<trkpt lat="33.8103098" lon="-118.3942456">
  <ele>-37.83</ele>
  <time>2026-09-02T22:11:45Z</time>
  <course>90.06</course>
  <speed>0.9</speed>
  <fix>3d</fix>
</trkpt>
<trkpt lat="33.81031" lon="-118.394242">
  <ele>-38.734</ele>
  <time>2026-09-02T22:11:45Z</time>
  <course>89.14</course>
  <speed>0.9202173656261873</speed>
  <fix>3d</fix>
</trkpt>
<trkpt lat="33.8103098" lon="-118.3942436">
  <ele>-37.8</ele>
  <time>2026-09-02T22:11:45Z</time>
  <course>90.07</course>
  <speed>0.9</speed>
  <fix>3d</fix>
</trkpt>
<trkpt lat="33.81031" lon="-118.3942411">
  <ele>-38.722</ele>
  <time>2026-09-02T22:11:45Z</time>
  <course>89.14</course>
  <speed>0.9202173656261873</speed>
  <fix>3d</fix>
</trkpt>
<trkpt lat="33.8103098" lon="-118.3942436">
  <ele>-37.8</ele>
  <time>2026-09-02T22:11:45Z</time>
  <course>90.07</course>
  <speed>0.9</speed>
  <fix>3d</fix>
</trkpt>
<trkpt lat="33.81031" lon="-118.3942401">
  <ele>-38.712</ele>
  <time>2026-09-02T22:11:45Z</time>
  <course>89.14</course>
  <speed>0.9202173656261873</speed>
  <fix>3d</fix>
</trkpt>
<trkpt lat="33.8103098" lon="-118.3942416">
  <ele>-37.79</ele>
  <time>2026-09-02T22:11:45Z</time>
  <course>90.09</course>
  <speed>0.91</speed>
  <fix>3d</fix>
</trkpt>
<trkpt lat="33.81031" lon="-118.3942391">
  <ele>-38.702</ele>
  <time>2026-09-02T22:11:45Z</time>
  <course>89.14</course>
  <speed>0.9302150289046076</speed>
  <fix>3d</fix>
</trkpt>
<trkpt lat="33.8103098" lon="-118.3942416">
  <ele>-37.79</ele>
  <time>2026-09-02T22:11:45Z</time>
  <course>90.09</course>
  <speed>0.91</speed>
  <fix>3d</fix>
</trkpt>
<trkpt lat="33.81031" lon="-118.3942381">
  <ele>-38.691</ele>
  <time>2026-09-02T22:11:45Z</time>
  <course>89.14</course>
  <speed>0.9302150289046076</speed>
  <fix>3d</fix>
</trkpt>
<trkpt lat="33.8103098" lon="-118.3942396">
  <ele>-37.76</ele>
  <time>2026-09-02T22:11:45Z</time>
  <course>90.11</course>
  <speed>0.91</speed>
  <fix>3d</fix>
</trkpt>
<trkpt lat="33.81031" lon="-118.3942371">
  <ele>-38.681</ele>
  <time>2026-09-02T22:11:45Z</time>
  <course>89.14</course>
  <speed>0.9302150289046076</speed>
  <fix>3d</fix>
</trkpt>
<trkpt lat="33.8103098" lon="-118.3942396">
  <ele>-37.76</ele>
  <time>2026-09-02T22:11:45Z</time>
  <course>90.11</course>
  <speed>0.91</speed>
  <fix>3d</fix>
</trkpt>
<trkpt lat="33.81031" lon="-118.3942361">
  <ele>-38.67</ele>
  <time>2026-09-02T22:11:45Z</time>
  <course>89.13</course>
  <speed>0.9302150289046076</speed>
  <fix>3d</fix>
</trkpt>
<trkpt lat="33.8103098" lon="-118.3942377">
  <ele>-37.75</ele>
  <time>2026-09-02T22:11:45Z</time>
  <course>90.12</course>
  <speed>0.91</speed>
  <fix>3d</fix>
</trkpt>
<trkpt lat="33.81031" lon="-118.3942351">
  <ele>-38.658</ele>
  <time>2026-09-02T22:11:45Z</time>
  <course>89.12</course>
  <speed>0.9302150289046076</speed>
  <fix>3d</fix>
</trkpt>
<trkpt lat="33.8103098" lon="-118.3942377">
  <ele>-37.75</ele>
  <time>2026-09-02T22:11:45Z</time>
  <course>90.12</course>
  <speed>0.91</speed>
  <fix>3d</fix>
</trkpt>
<trkpt lat="33.81031" lon="-118.3942341">
  <ele>-38.646</ele>
  <time>2026-09-02T22:11:45Z</time>
  <course>89.12</course>
  <speed>0.9302150289046076</speed>
  <fix>3d</fix>
</trkpt>
<trkpt lat="33.8103098" lon="-118.3942357">
  <ele>-37.73</ele>
  <time>2026-09-02T22:11:45Z</time>
  <course>90.11</course>
  <speed>0.91</speed>
  <fix>3d</fix>
</trkpt>
<trkpt lat="33.81031" lon="-118.3942332">
  <ele>-38.633</ele>
  <time>2026-09-02T22:11:45Z</time>
  <course>89.12</course>
  <speed>0.9302150289046076</speed>
  <fix>3d</fix>
</trkpt>
<trkpt lat="33.8103098" lon="-118.3942357">
  <ele>-37.73</ele>
  <time>2026-09-02T22:11:45Z</time>
  <course>90.11</course>
  <speed>0.91</speed>
  <fix>3d</fix>
</trkpt>
<trkpt lat="33.81031" lon="-118.3942322">
  <ele>-38.621</ele>
  <time>2026-09-02T22:11:45Z</time>
  <course>89.12</course>
  <speed>0.9302150289046076</speed>
  <fix>3d</fix>
</trkpt>
<trkpt lat="33.8103098" lon="-118.3942337">
  <ele>-37.71</ele>
  <time>2026-09-02T22:11:45Z</time>
  <course>90.12</course>
  <speed>0.91</speed>
  <fix>3d</fix>
</trkpt>
<trkpt lat="33.81031" lon="-118.3942312">
  <ele>-38.609</ele>
  <time>2026-09-02T22:11:45Z</time>
  <course>89.11</course>
  <speed>0.9302150289046076</speed>
  <fix>3d</fix>
</trkpt>
<trkpt lat="33.8103098" lon="-118.3942337">
  <ele>-37.71</ele>
  <time>2026-09-02T22:11:45Z</time>
  <course>90.12</course>
  <speed>0.91</speed>
  <fix>3d</fix>
</trkpt>
<trkpt lat="33.81031" lon="-118.3942302">
  <ele>-38.598</ele>
  <time>2026-09-02T22:11:45Z</time>
  <course>89.11</course>
  <speed>0.9302150289046076</speed>
  <fix>3d</fix>
</trkpt>
<trkpt lat="33.8103098" lon="-118.3942317">
  <ele>-37.69</ele>
  <time>2026-09-02T22:11:45Z</time>
  <course>90.14</course>
  <speed>0.91</speed>
  <fix>3d</fix>
</trkpt>
<trkpt lat="33.81031" lon="-118.3942292">
  <ele>-38.586</ele>
  <time>2026-09-02T22:11:45Z</time>
  <course>89.12</course>
  <speed>0.9302150289046076</speed>
  <fix>3d</fix>
</trkpt>
<trkpt lat="33.8103098" lon="-118.3942317">
  <ele>-37.69</ele>
  <time>2026-09-02T22:11:45Z</time>
  <course>90.14</course>
  <speed>0.91</speed>
  <fix>3d</fix>
</trkpt>
<trkpt lat="33.81031" lon="-118.3942282">
  <ele>-38.575</ele>
  <time>2026-09-02T22:11:45Z</time>
  <course>89.11</course>
  <speed>0.9302150289046076</speed>
  <fix>3d</fix>
</trkpt>
<trkpt lat="33.8103098" lon="-118.3942298">
  <ele>-37.67</ele>
  <time>2026-09-02T22:11:45Z</time>
  <course>90.14</course>
  <speed>0.92</speed>
  <fix>3d</fix>
</trkpt>
<trkpt lat="33.81031" lon="-118.3942272">
  <ele>-38.565</ele>
  <time>2026-09-02T22:11:45Z</time>
  <course>89.11</course>
  <speed>0.9302150289046076</speed>
  <fix>3d</fix>
</trkpt>
<trkpt lat="33.8103098" lon="-118.3942298">
  <ele>-37.67</ele>
  <time>2026-09-02T22:11:45Z</time>
  <course>90.14</course>
  <speed>0.92</speed>
  <fix>3d</fix>
</trkpt>
<trkpt lat="33.81031" lon="-118.3942262">
  <ele>-38.555</ele>
  <time>2026-09-02T22:11:45Z</time>
  <course>89.1</course>
  <speed>0.9302150289046076</speed>
  <fix>3d</fix>
</trkpt>
<trkpt lat="33.8103098" lon="-118.3942278">
  <ele>-37.65</ele>
  <time>2026-09-02T22:11:45Z</time>
  <course>90.14</course>
  <speed>0.92</speed>
  <fix>3d</fix>
</trkpt>
<trkpt lat="33.81031" lon="-118.3942252">
  <ele>-38.545</ele>
  <time>2026-09-02T22:11:46Z</time>
  <course>89.1</course>
  <speed>0.9402127418834527</speed>
  <fix>3d</fix>
</trkpt>
<trkpt lat="33.8103098" lon="-118.3942278">
  <ele>-37.65</ele>
  <time>2026-09-02T22:11:46Z</time>
  <course>90.14</course>
  <speed>0.92</speed>
  <fix>3d</fix>
</trkpt>
<trkpt lat="33.81031" lon="-118.3942242">
  <ele>-38.535</ele>
  <time>2026-09-02T22:11:46Z</time>
  <course>89.09</course>
  <speed>0.9402127418834527</speed>
  <fix>3d</fix>
</trkpt>
<trkpt lat="33.8103098" lon="-118.3942257">
  <ele>-37.62</ele>
  <time>2026-09-02T22:11:46Z</time>
  <course>90.15</course>
  <speed>0.92</speed>
  <fix>3d</fix>
</trkpt>
<trkpt lat="33.81031" lon="-118.3942232">
  <ele>-38.525</ele>
  <time>2026-09-02T22:11:46Z</time>
  <course>89.09</course>
  <speed>0.9402127418834527</speed>
  <fix>3d</fix>
</trkpt>
<trkpt lat="33.8103098" lon="-118.3942257">
  <ele>-37.62</ele>
  <time>2026-09-02T22:11:46Z</time>
  <course>90.15</course>
  <speed>0.92</speed>
  <fix>3d</fix>
</trkpt>
<trkpt lat="33.81031" lon="-118.3942222">
  <ele>-38.514</ele>
  <time>2026-09-02T22:11:46Z</time>
  <course>89.09</course>
  <speed>0.9402127418834527</speed>
  <fix>3d</fix>
</trkpt>
<trkpt lat="33.8103097" lon="-118.3942238">
  <ele>-37.61</ele>
  <time>2026-09-02T22:11:46Z</time>
  <course>90.14</course>
  <speed>0.92</speed>
  <fix>3d</fix>
</trkpt>
<trkpt lat="33.81031" lon="-118.3942212">
  <ele>-38.503</ele>
  <time>2026-09-02T22:11:46Z</time>
  <course>89.08</course>
  <speed>0.9402127418834527</speed>
  <fix>3d</fix>
</trkpt>
<trkpt lat="33.8103097" lon="-118.3942238">
  <ele>-37.61</ele>
  <time>2026-09-02T22:11:46Z</time>
  <course>90.14</course>
  <speed>0.92</speed>
  <fix>3d</fix>
</trkpt>
<trkpt lat="33.81031" lon="-118.3942202">
  <ele>-38.491</ele>
  <time>2026-09-02T22:11:46Z</time>
  <course>89.04</course>
  <speed>0.9402127418834527</speed>
  <fix>3d</fix>
</trkpt>
<trkpt lat="33.8103097" lon="-118.3942218">
  <ele>-37.59</ele>
  <time>2026-09-02T22:11:46Z</time>
  <course>90.09</course>
  <speed>0.92</speed>
  <fix>3d</fix>
</trkpt>
<trkpt lat="33.81031" lon="-118.3942192">
  <ele>-38.478</ele>
  <time>2026-09-02T22:11:46Z</time>
  <course>89.0</course>
  <speed>0.9402127418834527</speed>
  <fix>3d</fix>
</trkpt>
<trkpt lat="33.8103097" lon="-118.3942218">
  <ele>-37.59</ele>
  <time>2026-09-02T22:11:46Z</time>
  <course>90.09</course>
  <speed>0.92</speed>
  <fix>3d</fix>
</trkpt>
<trkpt lat="33.81031" lon="-118.3942182">
  <ele>-38.464</ele>
  <time>2026-09-02T22:11:46Z</time>
  <course>88.94</course>
  <speed>0.9402127418834527</speed>
  <fix>3d</fix>
</trkpt>
<trkpt lat="33.8103097" lon="-118.3942198">
  <ele>-37.56</ele>
  <time>2026-09-02T22:11:46Z</time>
  <course>89.99</course>
  <speed>0.92</speed>
  <fix>3d</fix>
</trkpt>
<trkpt lat="33.81031" lon="-118.3942172">
  <ele>-38.449</ele>
  <time>2026-09-02T22:11:46Z</time>
  <course>88.89</course>
  <speed>0.9402127418834527</speed>
  <fix>3d</fix>
</trkpt>
<trkpt lat="33.8103097" lon="-118.3942198">
  <ele>-37.56</ele>
  <time>2026-09-02T22:11:46Z</time>
  <course>89.99</course>
  <speed>0.92</speed>
  <fix>3d</fix>
</trkpt>
<trkpt lat="33.81031" lon="-118.3942162">
  <ele>-38.434</ele>
  <time>2026-09-02T22:11:46Z</time>
  <course>88.84</course>
  <speed>0.9402127418834527</speed>
  <fix>3d</fix>
</trkpt>
<trkpt lat="33.8103097" lon="-118.3942178">
  <ele>-37.54</ele>
  <time>2026-09-02T22:11:46Z</time>
  <course>89.89</course>
  <speed>0.93</speed>
  <fix>3d</fix>
</trkpt>
<trkpt lat="33.81031" lon="-118.3942152">
  <ele>-38.42</ele>
  <time>2026-09-02T22:11:46Z</time>
  <course>88.8</course>
  <speed>0.9402127418834527</speed>
  <fix>3d</fix>
</trkpt>
<trkpt lat="33.8103097" lon="-118.3942178">
  <ele>-37.54</ele>
  <time>2026-09-02T22:11:46Z</time>
  <course>89.89</course>
  <speed>0.93</speed>
  <fix>3d</fix>
</trkpt>
<trkpt lat="33.81031" lon="-118.3942142">
  <ele>-38.407</ele>
  <time>2026-09-02T22:11:46Z</time>
  <course>88.76</course>
  <speed>0.9402127418834527</speed>
  <fix>3d</fix>
</trkpt>
<trkpt lat="33.8103097" lon="-118.3942157">
  <ele>-37.51</ele>
  <time>2026-09-02T22:11:46Z</time>
  <course>89.82</course>
  <speed>0.93</speed>
  <fix>3d</fix>
</trkpt>
<trkpt lat="33.81031" lon="-118.3942132">
  <ele>-38.394</ele>
  <time>2026-09-02T22:11:46Z</time>
  <course>88.72</course>
  <speed>0.9402127418834527</speed>
  <fix>3d</fix>
</trkpt>
<trkpt lat="33.8103097" lon="-118.3942157">
  <ele>-37.51</ele>
  <time>2026-09-02T22:11:46Z</time>
  <course>89.82</course>
  <speed>0.93</speed>
  <fix>3d</fix>
</trkpt>
<trkpt lat="33.81031" lon="-118.3942122">
  <ele>-38.383</ele>
  <time>2026-09-02T22:11:46Z</time>
  <course>88.7</course>
  <speed>0.9402127418834527</speed>
  <fix>3d</fix>
</trkpt>
<trkpt lat="33.8103097" lon="-118.3942137">
  <ele>-37.48</ele>
  <time>2026-09-02T22:11:46Z</time>
  <course>89.77</course>
  <speed>0.93</speed>
  <fix>3d</fix>
</trkpt>
<trkpt lat="33.81031" lon="-118.3942112">
  <ele>-38.371</ele>
  <time>2026-09-02T22:11:46Z</time>
  <course>88.67</course>
  <speed>0.9402127418834527</speed>
  <fix>3d</fix>
</trkpt>
<trkpt lat="33.8103097" lon="-118.3942137">
  <ele>-37.48</ele>
  <time>2026-09-02T22:11:46Z</time>
  <course>89.77</course>
  <speed>0.93</speed>
  <fix>3d</fix>
</trkpt>
<trkpt lat="33.81031" lon="-118.3942101">
  <ele>-38.36</ele>
  <time>2026-09-02T22:11:46Z</time>
  <course>88.65</course>
  <speed>0.9402127418834527</speed>
  <fix>3d</fix>
</trkpt>
<trkpt lat="33.8103097" lon="-118.3942117">
  <ele>-37.46</ele>
  <time>2026-09-02T22:11:46Z</time>
  <course>89.73</course>
  <speed>0.93</speed>
  <fix>3d</fix>
</trkpt>
<trkpt lat="33.81031" lon="-118.3942091">
  <ele>-38.349</ele>
  <time>2026-09-02T22:11:46Z</time>
  <course>88.64</course>
  <speed>0.9502105029939419</speed>
  <fix>3d</fix>
</trkpt>
<trkpt lat="33.8103097" lon="-118.3942117">
  <ele>-37.46</ele>
  <time>2026-09-02T22:11:46Z</time>
  <course>89.73</course>
  <speed>0.93</speed>
  <fix>3d</fix>
</trkpt>
<trkpt lat="33.81031" lon="-118.3942081">
  <ele>-38.339</ele>
  <time>2026-09-02T22:11:46Z</time>
  <course>88.63</course>
  <speed>0.9502105029939419</speed>
  <fix>3d</fix>
</trkpt>
<trkpt lat="33.8103097" lon="-118.3942097">
  <ele>-37.44</ele>
  <time>2026-09-02T22:11:46Z</time>
  <course>89.71</course>
  <speed>0.93</speed>
  <fix>3d</fix>
</trkpt>
<trkpt lat="33.81031" lon="-118.3942071">
  <ele>-38.328</ele>
  <time>2026-09-02T22:11:46Z</time>
  <course>88.63</course>
  <speed>0.9502105029939419</speed>
  <fix>3d</fix>
</trkpt>
<trkpt lat="33.8103097" lon="-118.3942097">
  <ele>-37.44</ele>
  <time>2026-09-02T22:11:46Z</time>
  <course>89.71</course>
  <speed>0.93</speed>
  <fix>3d</fix>
</trkpt>
<trkpt lat="33.81031" lon="-118.3942061">
  <ele>-38.317</ele>
  <time>2026-09-02T22:11:46Z</time>
  <course>88.62</course>
  <speed>0.9502105029939419</speed>
  <fix>3d</fix>
</trkpt>
<trkpt lat="33.8103097" lon="-118.3942076">
  <ele>-37.42</ele>
  <time>2026-09-02T22:11:46Z</time>
  <course>89.69</course>
  <speed>0.93</speed>
  <fix>3d</fix>
</trkpt>
<trkpt lat="33.81031" lon="-118.3942051">
  <ele>-38.307</ele>
  <time>2026-09-02T22:11:46Z</time>
  <course>88.62</course>
  <speed>0.9502105029939419</speed>
  <fix>3d</fix>
</trkpt>
<trkpt lat="33.8103097" lon="-118.3942076">
  <ele>-37.42</ele>
  <time>2026-09-02T22:11:46Z</time>
  <course>89.69</course>
  <speed>0.93</speed>
  <fix>3d</fix>
</trkpt>
<trkpt lat="33.81031" lon="-118.3942041">
  <ele>-38.298</ele>
  <time>2026-09-02T22:11:46Z</time>
  <course>88.61</course>
  <speed>0.9502105029939419</speed>
  <fix>3d</fix>
</trkpt>
<trkpt lat="33.8103097" lon="-118.3942056">
  <ele>-37.39</ele>
  <time>2026-09-02T22:11:46Z</time>
  <course>89.67</course>
  <speed>0.94</speed>
  <fix>3d</fix>
</trkpt>
<trkpt lat="33.81031" lon="-118.3942031">
  <ele>-38.29</ele>
  <time>2026-09-02T22:11:46Z</time>
  <course>88.61</course>
  <speed>0.9502105029939419</speed>
  <fix>3d</fix>
</trkpt>
<trkpt lat="33.8103097" lon="-118.3942056">
  <ele>-37.39</ele>
  <time>2026-09-02T22:11:46Z</time>
  <course>89.67</course>
  <speed>0.94</speed>
  <fix>3d</fix>
</trkpt>
<trkpt lat="33.81031" lon="-118.3942021">
  <ele>-38.281</ele>
  <time>2026-09-02T22:11:46Z</time>
  <course>88.6</course>
  <speed>0.9502105029939419</speed>
  <fix>3d</fix>
</trkpt>
<trkpt lat="33.8103097" lon="-118.3942036">
  <ele>-37.37</ele>
  <time>2026-09-02T22:11:46Z</time>
  <course>89.65</course>
  <speed>0.94</speed>
  <fix>3d</fix>
</trkpt>
<trkpt lat="33.81031" lon="-118.394201">
  <ele>-38.272</ele>
  <time>2026-09-02T22:11:46Z</time>
  <course>88.61</course>
  <speed>0.9502105029939419</speed>
  <fix>3d</fix>
</trkpt>
<trkpt lat="33.8103097" lon="-118.3942036">
  <ele>-37.37</ele>
  <time>2026-09-02T22:11:46Z</time>
  <course>89.65</course>
  <speed>0.94</speed>
  <fix>3d</fix>
</trkpt>
<trkpt lat="33.81031" lon="-118.3942">
  <ele>-38.263</ele>
  <time>2026-09-02T22:11:46Z</time>
  <course>88.6</course>
  <speed>0.9502105029939419</speed>
  <fix>3d</fix>
</trkpt>
<trkpt lat="33.8103097" lon="-118.3942015">
  <ele>-37.35</ele>
  <time>2026-09-02T22:11:46Z</time>
  <course>89.63</course>
  <speed>0.94</speed>
  <fix>3d</fix>
</trkpt>
<trkpt lat="33.81031" lon="-118.394199">
  <ele>-38.251</ele>
  <time>2026-09-02T22:11:46Z</time>
  <course>88.61</course>
  <speed>0.9502105029939419</speed>
  <fix>3d</fix>
</trkpt>
<trkpt lat="33.8103097" lon="-118.3942015">
  <ele>-37.35</ele>
  <time>2026-09-02T22:11:46Z</time>
  <course>89.63</course>
  <speed>0.94</speed>
  <fix>3d</fix>
</trkpt>
<trkpt lat="33.81031" lon="-118.394198">
  <ele>-38.239</ele>
  <time>2026-09-02T22:11:46Z</time>
  <course>88.61</course>
  <speed>0.9502105029939419</speed>
  <fix>3d</fix>
</trkpt>
<trkpt lat="33.8103097" lon="-118.3941995">
  <ele>-37.33</ele>
  <time>2026-09-02T22:11:46Z</time>
  <course>89.61</course>
  <speed>0.94</speed>
  <fix>3d</fix>
</trkpt>
<trkpt lat="33.81031" lon="-118.394197">
  <ele>-38.226</ele>
  <time>2026-09-02T22:11:46Z</time>
  <course>88.61</course>
  <speed>0.9502105029939419</speed>
  <fix>3d</fix>
</trkpt>
<trkpt lat="33.8103097" lon="-118.3941995">
  <ele>-37.33</ele>
  <time>2026-09-02T22:11:46Z</time>
  <course>89.61</course>
  <speed>0.94</speed>
  <fix>3d</fix>
</trkpt>
<trkpt lat="33.81031" lon="-118.394196">
  <ele>-38.214</ele>
  <time>2026-09-02T22:11:46Z</time>
  <course>88.61</course>
  <speed>0.9502105029939419</speed>
  <fix>3d</fix>
</trkpt>
<trkpt lat="33.8103097" lon="-118.3941974">
  <ele>-37.3</ele>
  <time>2026-09-02T22:11:46Z</time>
  <course>89.6</course>
  <speed>0.94</speed>
  <fix>3d</fix>
</trkpt>
<trkpt lat="33.81031" lon="-118.3941949">
  <ele>-38.202</ele>
  <time>2026-09-02T22:11:46Z</time>
  <course>88.62</course>
  <speed>0.9502105029939419</speed>
  <fix>3d</fix>
</trkpt>
<trkpt lat="33.8103097" lon="-118.3941974">
  <ele>-37.3</ele>
  <time>2026-09-02T22:11:46Z</time>
  <course>89.6</course>
  <speed>0.94</speed>
  <fix>3d</fix>
</trkpt>
<trkpt lat="33.81031" lon="-118.3941939">
  <ele>-38.191</ele>
  <time>2026-09-02T22:11:46Z</time>
  <course>88.62</course>
  <speed>0.9502105029939419</speed>
  <fix>3d</fix>
</trkpt>
<trkpt lat="33.8103097" lon="-118.3941954">
  <ele>-37.28</ele>
  <time>2026-09-02T22:11:46Z</time>
  <course>89.58</course>
  <speed>0.94</speed>
  <fix>3d</fix>
</trkpt>
<trkpt lat="33.81031" lon="-118.3941929">
  <ele>-38.18</ele>
  <time>2026-09-02T22:11:46Z</time>
  <course>88.62</course>
  <speed>0.9602083107326242</speed>
  <fix>3d</fix>
</trkpt>
<trkpt lat="33.8103097" lon="-118.3941954">
  <ele>-37.28</ele>
  <time>2026-09-02T22:11:46Z</time>
  <course>89.58</course>
  <speed>0.94</speed>
  <fix>3d</fix>
</trkpt>
<trkpt lat="33.81031" lon="-118.3941919">
  <ele>-38.169</ele>
  <time>2026-09-02T22:11:46Z</time>
  <course>88.63</course>
  <speed>0.9602083107326242</speed>
  <fix>3d</fix>
</trkpt>
<trkpt lat="33.8103098" lon="-118.3941933">
  <ele>-37.26</ele>
  <time>2026-09-02T22:11:46Z</time>
  <course>89.58</course>
  <speed>0.94</speed>
  <fix>3d</fix>
</trkpt>
<trkpt lat="33.81031" lon="-118.3941908">
  <ele>-38.157</ele>
  <time>2026-09-02T22:11:46Z</time>
  <course>88.64</course>
  <speed>0.9602083107326242</speed>
  <fix>3d</fix>
</trkpt>
<trkpt lat="33.8103098" lon="-118.3941933">
  <ele>-37.26</ele>
  <time>2026-09-02T22:11:46Z</time>
  <course>89.58</course>
  <speed>0.94</speed>
  <fix>3d</fix>
</trkpt>
<trkpt lat="33.81031" lon="-118.3941898">
  <ele>-38.144</ele>
  <time>2026-09-02T22:11:46Z</time>
  <course>88.68</course>
  <speed>0.9602083107326242</speed>
  <fix>3d</fix>
</trkpt>
<trkpt lat="33.8103098" lon="-118.3941913">
  <ele>-37.23</ele>
  <time>2026-09-02T22:11:46Z</time>
  <course>89.62</course>
  <speed>0.94</speed>
  <fix>3d</fix>
</trkpt>
<trkpt lat="33.81031" lon="-118.3941888">
  <ele>-38.131</ele>
  <time>2026-09-02T22:11:46Z</time>
  <course>88.73</course>
  <speed>0.9602083107326242</speed>
  <fix>3d</fix>
</trkpt>
<trkpt lat="33.8103098" lon="-118.3941913">
  <ele>-37.23</ele>
  <time>2026-09-02T22:11:46Z</time>
  <course>89.62</course>
  <speed>0.94</speed>
  <fix>3d</fix>
</trkpt>
<trkpt lat="33.81031" lon="-118.3941878">
  <ele>-38.117</ele>
  <time>2026-09-02T22:11:46Z</time>
  <course>88.79</course>
  <speed>0.9602083107326242</speed>
  <fix>3d</fix>
</trkpt>
<trkpt lat="33.8103098" lon="-118.3941892">
  <ele>-37.22</ele>
  <time>2026-09-02T22:11:46Z</time>
  <course>89.73</course>
  <speed>0.94</speed>
  <fix>3d</fix>
</trkpt>
<trkpt lat="33.81031" lon="-118.3941867">
  <ele>-38.103</ele>
  <time>2026-09-02T22:11:46Z</time>
  <course>88.84</course>
  <speed>0.9602083107326242</speed>
  <fix>3d</fix>
</trkpt>
<trkpt lat="33.8103098" lon="-118.3941892">
  <ele>-37.22</ele>
  <time>2026-09-02T22:11:46Z</time>
  <course>89.73</course>
  <speed>0.94</speed>
  <fix>3d</fix>
</trkpt>
<trkpt lat="33.81031" lon="-118.3941857">
  <ele>-38.089</ele>
  <time>2026-09-02T22:11:46Z</time>
  <course>88.89</course>
  <speed>0.9602083107326242</speed>
  <fix>3d</fix>
</trkpt>
<trkpt lat="33.8103098" lon="-118.3941872">
  <ele>-37.19</ele>
  <time>2026-09-02T22:11:46Z</time>
  <course>89.83</course>
  <speed>0.94</speed>
  <fix>3d</fix>
</trkpt>
<trkpt lat="33.81031" lon="-118.3941847">
  <ele>-38.077</ele>
  <time>2026-09-02T22:11:46Z</time>
  <course>88.93</course>
  <speed>0.9602083107326242</speed>
  <fix>3d</fix>
</trkpt>
<trkpt lat="33.8103098" lon="-118.3941872">
  <ele>-37.19</ele>
  <time>2026-09-02T22:11:46Z</time>
  <course>89.83</course>
  <speed>0.94</speed>
  <fix>3d</fix>
</trkpt>
<trkpt lat="33.81031" lon="-118.3941837">
  <ele>-38.064</ele>
  <time>2026-09-02T22:11:46Z</time>
  <course>88.97</course>
  <speed>0.9600520819205591</speed>
  <fix>3d</fix>
</trkpt>
<trkpt lat="33.8103098" lon="-118.3941851">
  <ele>-37.17</ele>
  <time>2026-09-02T22:11:46Z</time>
  <course>89.91</course>
  <speed>0.95</speed>
  <fix>3d</fix>
</trkpt>
<trkpt lat="33.81031" lon="-118.3941826">
  <ele>-38.052</ele>
  <time>2026-09-02T22:11:46Z</time>
  <course>89.0</course>
  <speed>0.9602083107326242</speed>
  <fix>3d</fix>
</trkpt>
<trkpt lat="33.8103098" lon="-118.3941851">
  <ele>-37.17</ele>
  <time>2026-09-02T22:11:46Z</time>
  <course>89.91</course>
  <speed>0.95</speed>
  <fix>3d</fix>
</trkpt>
<trkpt lat="33.81031" lon="-118.3941816">
  <ele>-38.042</ele>
  <time>2026-09-02T22:11:46Z</time>
  <course>89.03</course>
  <speed>0.9600520819205591</speed>
  <fix>3d</fix>
</trkpt>
<trkpt lat="33.8103098" lon="-118.3941831">
  <ele>-37.15</ele>
  <time>2026-09-02T22:11:46Z</time>
  <course>89.96</course>
  <speed>0.95</speed>
  <fix>3d</fix>
</trkpt>
<trkpt lat="33.81031" lon="-118.3941806">
  <ele>-38.03</ele>
  <time>2026-09-02T22:11:46Z</time>
  <course>89.05</course>
  <speed>0.9602083107326242</speed>
  <fix>3d</fix>
</trkpt>
<trkpt lat="33.8103098" lon="-118.3941831">
  <ele>-37.15</ele>
  <time>2026-09-02T22:11:46Z</time>
  <course>89.96</course>
  <speed>0.95</speed>
  <fix>3d</fix>
</trkpt>
<trkpt lat="33.81031" lon="-118.3941795">
  <ele>-38.019</ele>
  <time>2026-09-02T22:11:46Z</time>
  <course>89.07</course>
  <speed>0.9600520819205591</speed>
  <fix>3d</fix>
</trkpt>
<trkpt lat="33.8103098" lon="-118.394181">
  <ele>-37.12</ele>
  <time>2026-09-02T22:11:46Z</time>
  <course>89.98</course>
  <speed>0.95</speed>
  <fix>3d</fix>
</trkpt>
<trkpt lat="33.81031" lon="-118.3941785">
  <ele>-38.008</ele>
  <time>2026-09-02T22:11:46Z</time>
  <course>89.08</course>
  <speed>0.9602083107326242</speed>
  <fix>3d</fix>
</trkpt>
<trkpt lat="33.8103098" lon="-118.394181">
  <ele>-37.12</ele>
  <time>2026-09-02T22:11:46Z</time>
  <course>89.98</course>
  <speed>0.95</speed>
  <fix>3d</fix>
</trkpt>
<trkpt lat="33.81031" lon="-118.3941775">
  <ele>-37.996</ele>
  <time>2026-09-02T22:11:46Z</time>
  <course>89.1</course>
  <speed>0.9600520819205591</speed>
  <fix>3d</fix>
</trkpt>
<trkpt lat="33.8103098" lon="-118.3941789">
  <ele>-37.1</ele>
  <time>2026-09-02T22:11:46Z</time>
  <course>90.0</course>
  <speed>0.95</speed>
  <fix>3d</fix>
</trkpt>
<trkpt lat="33.81031" lon="-118.3941764">
  <ele>-37.984</ele>
  <time>2026-09-02T22:11:46Z</time>
  <course>89.11</course>
  <speed>0.9602083107326242</speed>
  <fix>3d</fix>
</trkpt>
<trkpt lat="33.8103098" lon="-118.3941789">
  <ele>-37.1</ele>
  <time>2026-09-02T22:11:46Z</time>
  <course>90.0</course>
  <speed>0.95</speed>
  <fix>3d</fix>
</trkpt>
<trkpt lat="33.81031" lon="-118.3941754">
  <ele>-37.972</ele>
  <time>2026-09-02T22:11:46Z</time>
  <course>89.12</course>
  <speed>0.9600520819205591</speed>
  <fix>3d</fix>
</trkpt>
<trkpt lat="33.8103098" lon="-118.3941769">
  <ele>-37.08</ele>
  <time>2026-09-02T22:11:46Z</time>
  <course>90.04</course>
  <speed>0.95</speed>
  <fix>3d</fix>
</trkpt>
<trkpt lat="33.81031" lon="-118.3941744">
  <ele>-37.961</ele>
  <time>2026-09-02T22:11:46Z</time>
  <course>89.13</course>
  <speed>0.9600520819205591</speed>
  <fix>3d</fix>
</trkpt>
<trkpt lat="33.8103098" lon="-118.3941769">
  <ele>-37.08</ele>
  <time>2026-09-02T22:11:46Z</time>
  <course>90.04</course>
  <speed>0.95</speed>
  <fix>3d</fix>
</trkpt>
<trkpt lat="33.81031" lon="-118.3941733">
  <ele>-37.948</ele>
  <time>2026-09-02T22:11:46Z</time>
  <course>89.14</course>
  <speed>0.9600520819205591</speed>
  <fix>3d</fix>
</trkpt>
<trkpt lat="33.8103098" lon="-118.3941748">
  <ele>-37.05</ele>
  <time>2026-09-02T22:11:46Z</time>
  <course>90.08</course>
  <speed>0.95</speed>
  <fix>3d</fix>
</trkpt>
<trkpt lat="33.81031" lon="-118.3941723">
  <ele>-37.936</ele>
  <time>2026-09-02T22:11:46Z</time>
  <course>89.15</course>
  <speed>0.9600520819205591</speed>
  <fix>3d</fix>
</trkpt>
<trkpt lat="33.8103098" lon="-118.3941748">
  <ele>-37.05</ele>
  <time>2026-09-02T22:11:46Z</time>
  <course>90.08</course>
  <speed>0.95</speed>
  <fix>3d</fix>
</trkpt>
<trkpt lat="33.81031" lon="-118.3941713">
  <ele>-37.923</ele>
  <time>2026-09-02T22:11:46Z</time>
  <course>89.14</course>
  <speed>0.970051545022222</speed>
  <fix>3d</fix>
</trkpt>
<trkpt lat="33.8103098" lon="-118.3941727">
  <ele>-37.04</ele>
  <time>2026-09-02T22:11:46Z</time>
  <course>90.11</course>
  <speed>0.95</speed>
  <fix>3d</fix>
</trkpt>
<trkpt lat="33.81031" lon="-118.3941702">
  <ele>-37.911</ele>
  <time>2026-09-02T22:11:46Z</time>
  <course>89.15</course>
  <speed>0.970051545022222</speed>
  <fix>3d</fix>
</trkpt>
<trkpt lat="33.8103098" lon="-118.3941727">
  <ele>-37.04</ele>
  <time>2026-09-02T22:11:46Z</time>
  <course>90.11</course>
  <speed>0.95</speed>
  <fix>3d</fix>
</trkpt>
<trkpt lat="33.81031" lon="-118.3941692">
  <ele>-37.898</ele>
  <time>2026-09-02T22:11:46Z</time>
  <course>89.14</course>
  <speed>0.970051545022222</speed>
  <fix>3d</fix>
</trkpt>
<trkpt lat="33.8103098" lon="-118.3941707">
  <ele>-37.01</ele>
  <time>2026-09-02T22:11:46Z</time>
  <course>90.14</course>
  <speed>0.95</speed>
  <fix>3d</fix>
</trkpt>
<trkpt lat="33.81031" lon="-118.3941681">
  <ele>-37.883</ele>
  <time>2026-09-02T22:11:46Z</time>
  <course>89.14</course>
  <speed>0.970051545022222</speed>
  <fix>3d</fix>
</trkpt>
<trkpt lat="33.8103098" lon="-118.3941707">
  <ele>-37.01</ele>
  <time>2026-09-02T22:11:46Z</time>
  <course>90.14</course>
  <speed>0.95</speed>
  <fix>3d</fix>
</trkpt>
<trkpt lat="33.81031" lon="-118.3941671">
  <ele>-37.87</ele>
  <time>2026-09-02T22:11:46Z</time>
  <course>89.14</course>
  <speed>0.970051545022222</speed>
  <fix>3d</fix>
</trkpt>
<trkpt lat="33.8103098" lon="-118.3941686">
  <ele>-36.98</ele>
  <time>2026-09-02T22:11:46Z</time>
  <course>90.14</course>
  <speed>0.95</speed>
  <fix>3d</fix>
</trkpt>
<trkpt lat="33.81031" lon="-118.3941661">
  <ele>-37.856</ele>
  <time>2026-09-02T22:11:46Z</time>
  <course>89.13</course>
  <speed>0.970051545022222</speed>
  <fix>3d</fix>
</trkpt>
<trkpt lat="33.8103098" lon="-118.3941686">
  <ele>-36.98</ele>
  <time>2026-09-02T22:11:46Z</time>
  <course>90.14</course>
  <speed>0.95</speed>
  <fix>3d</fix>
</trkpt>
<trkpt lat="33.81031" lon="-118.394165">
  <ele>-37.844</ele>
  <time>2026-09-02T22:11:46Z</time>
  <course>89.13</course>
  <speed>0.970051545022222</speed>
  <fix>3d</fix>
</trkpt>
<trkpt lat="33.8103098" lon="-118.3941665">
  <ele>-36.96</ele>
  <time>2026-09-02T22:11:46Z</time>
  <course>90.15</course>
  <speed>0.95</speed>
  <fix>3d</fix>
</trkpt>
<trkpt lat="33.81031" lon="-118.394164">
  <ele>-37.833</ele>
  <time>2026-09-02T22:11:46Z</time>
  <course>89.12</course>
  <speed>0.970051545022222</speed>
  <fix>3d</fix>
</trkpt>
<trkpt lat="33.8103098" lon="-118.3941665">
  <ele>-36.96</ele>
  <time>2026-09-02T22:11:46Z</time>
  <course>90.15</course>
  <speed>0.95</speed>
  <fix>3d</fix>
</trkpt>
<trkpt lat="33.81031" lon="-118.3941629">
  <ele>-37.822</ele>
  <time>2026-09-02T22:11:46Z</time>
  <course>89.13</course>
  <speed>0.970051545022222</speed>
  <fix>3d</fix>
</trkpt>
<trkpt lat="33.8103098" lon="-118.3941644">
  <ele>-36.94</ele>
  <time>2026-09-02T22:11:46Z</time>
  <course>90.18</course>
  <speed>0.95</speed>
  <fix>3d</fix>
</trkpt>
<trkpt lat="33.81031" lon="-118.3941619">
  <ele>-37.811</ele>
  <time>2026-09-02T22:11:46Z</time>
  <course>89.12</course>
  <speed>0.970051545022222</speed>
  <fix>3d</fix>
</trkpt>
<trkpt lat="33.8103098" lon="-118.3941644">
  <ele>-36.94</ele>
  <time>2026-09-02T22:11:46Z</time>
  <course>90.18</course>
  <speed>0.95</speed>
  <fix>3d</fix>
</trkpt>
<trkpt lat="33.81031" lon="-118.3941609">
  <ele>-37.801</ele>
  <time>2026-09-02T22:11:46Z</time>
  <course>89.12</course>
  <speed>0.970051545022222</speed>
  <fix>3d</fix>
</trkpt>
<trkpt lat="33.8103098" lon="-118.3941624">
  <ele>-36.92</ele>
  <time>2026-09-02T22:11:46Z</time>
  <course>90.19</course>
  <speed>0.95</speed>
  <fix>3d</fix>
</trkpt>
<trkpt lat="33.81031" lon="-118.3941598">
  <ele>-37.79</ele>
  <time>2026-09-02T22:11:46Z</time>
  <course>89.11</course>
  <speed>0.970051545022222</speed>
  <fix>3d</fix>
</trkpt>
<trkpt lat="33.8103098" lon="-118.3941624">
  <ele>-36.92</ele>
  <time>2026-09-02T22:11:46Z</time>
  <course>90.19</course>
  <speed>0.95</speed>
  <fix>3d</fix>
</trkpt>
<trkpt lat="33.81031" lon="-118.3941588">
  <ele>-37.778</ele>
  <time>2026-09-02T22:11:46Z</time>
  <course>89.11</course>
  <speed>0.970051545022222</speed>
  <fix>3d</fix>
</trkpt>
<trkpt lat="33.8103098" lon="-118.3941603">
  <ele>-36.9</ele>
  <time>2026-09-02T22:11:46Z</time>
  <course>90.2</course>
  <speed>0.96</speed>
  <fix>3d</fix>
</trkpt>
<trkpt lat="33.81031" lon="-118.3941577">
  <ele>-37.767</ele>
  <time>2026-09-02T22:11:46Z</time>
  <course>89.11</course>
  <speed>0.970051545022222</speed>
  <fix>3d</fix>
</trkpt>
<trkpt lat="33.8103098" lon="-118.3941603">
  <ele>-36.9</ele>
  <time>2026-09-02T22:11:46Z</time>
  <course>90.2</course>
  <speed>0.96</speed>
  <fix>3d</fix>
</trkpt>
<trkpt lat="33.81031" lon="-118.3941567">
  <ele>-37.755</ele>
  <time>2026-09-02T22:11:46Z</time>
  <course>89.11</course>
  <speed>0.970051545022222</speed>
  <fix>3d</fix>
</trkpt>
<trkpt lat="33.8103098" lon="-118.3941582">
  <ele>-36.87</ele>
  <time>2026-09-02T22:11:46Z</time>
  <course>90.21</course>
  <speed>0.96</speed>
  <fix>3d</fix>
</trkpt>
<trkpt lat="33.81031" lon="-118.3941556">
  <ele>-37.743</ele>
  <time>2026-09-02T22:11:46Z</time>
  <course>89.1</course>
  <speed>0.9800510190801294</speed>
  <fix>3d</fix>
</trkpt>
<trkpt lat="33.8103098" lon="-118.3941582">
  <ele>-36.87</ele>
  <time>2026-09-02T22:11:46Z</time>
  <course>90.21</course>
  <speed>0.96</speed>
  <fix>3d</fix>
</trkpt>
<trkpt lat="33.81031" lon="-118.3941546">
  <ele>-37.73</ele>
  <time>2026-09-02T22:11:46Z</time>
  <course>89.1</course>
  <speed>0.9800510190801294</speed>
  <fix>3d</fix>
</trkpt>
<trkpt lat="33.8103098" lon="-118.3941561">
  <ele>-36.85</ele>
  <time>2026-09-02T22:11:46Z</time>
  <course>90.23</course>
  <speed>0.96</speed>
  <fix>3d</fix>
</trkpt>
<trkpt lat="33.81031" lon="-118.3941536">
  <ele>-37.717</ele>
  <time>2026-09-02T22:11:46Z</time>
  <course>89.1</course>
  <speed>0.9800510190801294</speed>
  <fix>3d</fix>
</trkpt>
<trkpt lat="33.8103098" lon="-118.3941561">
  <ele>-36.85</ele>
  <time>2026-09-02T22:11:46Z</time>
  <course>90.23</course>
  <speed>0.96</speed>
  <fix>3d</fix>
</trkpt>
<trkpt lat="33.81031" lon="-118.3941525">
  <ele>-37.704</ele>
  <time>2026-09-02T22:11:46Z</time>
  <course>89.09</course>
  <speed>0.9800510190801294</speed>
  <fix>3d</fix>
</trkpt>
<trkpt lat="33.8103098" lon="-118.3941541">
  <ele>-36.82</ele>
  <time>2026-09-02T22:11:46Z</time>
  <course>90.25</course>
  <speed>0.96</speed>
  <fix>3d</fix>
</trkpt>
<trkpt lat="33.81031" lon="-118.3941515">
  <ele>-37.692</ele>
  <time>2026-09-02T22:11:46Z</time>
  <course>89.09</course>
  <speed>0.9800510190801294</speed>
  <fix>3d</fix>
</trkpt>
<trkpt lat="33.8103098" lon="-118.3941541">
  <ele>-36.82</ele>
  <time>2026-09-02T22:11:46Z</time>
  <course>90.25</course>
  <speed>0.96</speed>
  <fix>3d</fix>
</trkpt>
<trkpt lat="33.81031" lon="-118.3941504">
  <ele>-37.679</ele>
  <time>2026-09-02T22:11:46Z</time>
  <course>89.08</course>
  <speed>0.9800510190801294</speed>
  <fix>3d</fix>
</trkpt>
<trkpt lat="33.8103098" lon="-118.394152">
  <ele>-36.8</ele>
  <time>2026-09-02T22:11:46Z</time>
  <course>90.28</course>
  <speed>0.96</speed>
  <fix>3d</fix>
</trkpt>
<trkpt lat="33.81031" lon="-118.3941494">
  <ele>-37.665</ele>
  <time>2026-09-02T22:11:46Z</time>
  <course>89.09</course>
  <speed>0.9800510190801294</speed>
  <fix>3d</fix>
</trkpt>
<trkpt lat="33.8103098" lon="-118.394152">
  <ele>-36.8</ele>
  <time>2026-09-02T22:11:46Z</time>
  <course>90.28</course>
  <speed>0.96</speed>
  <fix>3d</fix>
</trkpt>
<trkpt lat="33.81031" lon="-118.3941483">
  <ele>-37.652</ele>
  <time>2026-09-02T22:11:46Z</time>
  <course>89.08</course>
  <speed>0.9800510190801294</speed>
  <fix>3d</fix>
</trkpt>
<trkpt lat="33.8103098" lon="-118.3941499">
  <ele>-36.78</ele>
  <time>2026-09-02T22:11:46Z</time>
  <course>90.3</course>
  <speed>0.96</speed>
  <fix>3d</fix>
</trkpt>
<trkpt lat="33.81031" lon="-118.3941473">
  <ele>-37.64</ele>
  <time>2026-09-02T22:11:46Z</time>
  <course>89.07</course>
  <speed>0.9800510190801294</speed>
  <fix>3d</fix>
</trkpt>
<trkpt lat="33.8103098" lon="-118.3941499">
  <ele>-36.78</ele>
  <time>2026-09-02T22:11:46Z</time>
  <course>90.3</course>
  <speed>0.96</speed>
  <fix>3d</fix>
</trkpt>
<trkpt lat="33.81031" lon="-118.3941462">
  <ele>-37.63</ele>
  <time>2026-09-02T22:11:46Z</time>
  <course>89.06</course>
  <speed>0.9800510190801294</speed>
  <fix>3d</fix>
</trkpt>
<trkpt lat="33.8103098" lon="-118.3941478">
  <ele>-36.75</ele>
  <time>2026-09-02T22:11:46Z</time>
  <course>90.31</course>
  <speed>0.96</speed>
  <fix>3d</fix>
</trkpt>
<trkpt lat="33.81031" lon="-118.3941452">
  <ele>-37.62</ele>
  <time>2026-09-02T22:11:46Z</time>
  <course>89.06</course>
  <speed>0.9800510190801294</speed>
  <fix>3d</fix>
</trkpt>
<trkpt lat="33.8103098" lon="-118.3941478">
  <ele>-36.75</ele>
  <time>2026-09-02T22:11:46Z</time>
  <course>90.31</course>
  <speed>0.96</speed>
  <fix>3d</fix>
</trkpt>
<trkpt lat="33.81031" lon="-118.3941441">
  <ele>-37.61</ele>
  <time>2026-09-02T22:11:46Z</time>
  <course>89.06</course>
  <speed>0.9800510190801294</speed>
  <fix>3d</fix>
</trkpt>
<trkpt lat="33.8103098" lon="-118.3941457">
  <ele>-36.73</ele>
  <time>2026-09-02T22:11:46Z</time>
  <course>90.34</course>
  <speed>0.97</speed>
  <fix>3d</fix>
</trkpt>
<trkpt lat="33.81031" lon="-118.3941431">
  <ele>-37.6</ele>
  <time>2026-09-02T22:11:46Z</time>
  <course>89.05</course>
  <speed>0.9900505037623081</speed>
  <fix>3d</fix>
</trkpt>
<trkpt lat="33.8103098" lon="-118.3941457">
  <ele>-36.73</ele>
  <time>2026-09-02T22:11:46Z</time>
  <course>90.34</course>
  <speed>0.97</speed>
  <fix>3d</fix>
</trkpt>
<trkpt lat="33.81031" lon="-118.394142">
  <ele>-37.59</ele>
  <time>2026-09-02T22:11:46Z</time>
  <course>89.04</course>
  <speed>0.9900505037623081</speed>
  <fix>3d</fix>
</trkpt>
<trkpt lat="33.8103098" lon="-118.3941436">
  <ele>-36.71</ele>
  <time>2026-09-02T22:11:46Z</time>
  <course>90.35</course>
  <speed>0.97</speed>
  <fix>3d</fix>
</trkpt>
<trkpt lat="33.81031" lon="-118.394141">
  <ele>-37.581</ele>
  <time>2026-09-02T22:11:46Z</time>
  <course>89.04</course>
  <speed>0.9902019995940222</speed>
  <fix>3d</fix>
</trkpt>
<trkpt lat="33.8103098" lon="-118.3941436">
  <ele>-36.71</ele>
  <time>2026-09-02T22:11:46Z</time>
  <course>90.35</course>
  <speed>0.97</speed>
  <fix>3d</fix>
</trkpt>
<trkpt lat="33.81031" lon="-118.3941399">
  <ele>-37.572</ele>
  <time>2026-09-02T22:11:46Z</time>
  <course>89.03</course>
  <speed>0.9900505037623081</speed>
  <fix>3d</fix>
</trkpt>
<trkpt lat="33.8103098" lon="-118.3941415">
  <ele>-36.69</ele>
  <time>2026-09-02T22:11:46Z</time>
  <course>90.35</course>
  <speed>0.97</speed>
  <fix>3d</fix>
</trkpt>
<trkpt lat="33.81031" lon="-118.3941389">
  <ele>-37.563</ele>
  <time>2026-09-02T22:11:46Z</time>
  <course>89.03</course>
  <speed>0.9900505037623081</speed>
  <fix>3d</fix>
</trkpt>
<trkpt lat="33.8103098" lon="-118.3941415">
  <ele>-36.69</ele>
  <time>2026-09-02T22:11:46Z</time>
  <course>90.35</course>
  <speed>0.97</speed>
  <fix>3d</fix>
</trkpt>
<trkpt lat="33.81031" lon="-118.3941378">
  <ele>-37.554</ele>
  <time>2026-09-02T22:11:46Z</time>
  <course>89.03</course>
  <speed>0.9900505037623081</speed>
  <fix>3d</fix>
</trkpt>
<trkpt lat="33.8103098" lon="-118.3941394">
  <ele>-36.66</ele>
  <time>2026-09-02T22:11:46Z</time>
  <course>90.37</course>
  <speed>0.97</speed>
  <fix>3d</fix>
</trkpt>
<trkpt lat="33.81031" lon="-118.3941367">
  <ele>-37.544</ele>
  <time>2026-09-02T22:11:46Z</time>
  <course>89.03</course>
  <speed>0.9900505037623081</speed>
  <fix>3d</fix>
</trkpt>
<trkpt lat="33.8103098" lon="-118.3941394">
  <ele>-36.66</ele>
  <time>2026-09-02T22:11:46Z</time>
  <course>90.37</course>
  <speed>0.97</speed>
  <fix>3d</fix>
</trkpt>
<trkpt lat="33.81031" lon="-118.3941357">
  <ele>-37.533</ele>
  <time>2026-09-02T22:11:46Z</time>
  <course>89.02</course>
  <speed>0.9900505037623081</speed>
  <fix>3d</fix>
</trkpt>
<trkpt lat="33.8103097" lon="-118.3941373">
  <ele>-36.64</ele>
  <time>2026-09-02T22:11:46Z</time>
  <course>90.38</course>
  <speed>0.97</speed>
  <fix>3d</fix>
</trkpt>
<trkpt lat="33.81031" lon="-118.3941346">
  <ele>-37.522</ele>
  <time>2026-09-02T22:11:46Z</time>
  <course>89.01</course>
  <speed>0.9902019995940222</speed>
  <fix>3d</fix>
</trkpt>
<trkpt lat="33.8103097" lon="-118.3941373">
  <ele>-36.64</ele>
  <time>2026-09-02T22:11:46Z</time>
  <course>90.38</course>
  <speed>0.97</speed>
  <fix>3d</fix>
</trkpt>
<trkpt lat="33.81031" lon="-118.3941336">
  <ele>-37.51</ele>
  <time>2026-09-02T22:11:46Z</time>
  <course>88.97</course>
  <speed>0.9902019995940222</speed>
  <fix>3d</fix>
</trkpt>
<trkpt lat="33.8103097" lon="-118.3941352">
  <ele>-36.61</ele>
  <time>2026-09-02T22:11:46Z</time>
  <course>90.34</course>
  <speed>0.97</speed>
  <fix>3d</fix>
</trkpt>
<trkpt lat="33.81031" lon="-118.3941325">
  <ele>-37.497</ele>
  <time>2026-09-02T22:11:46Z</time>
  <course>88.92</course>
  <speed>0.9902019995940222</speed>
  <fix>3d</fix>
</trkpt>
<trkpt lat="33.8103097" lon="-118.3941352">
  <ele>-36.61</ele>
  <time>2026-09-02T22:11:46Z</time>
  <course>90.34</course>
  <speed>0.97</speed>
  <fix>3d</fix>
</trkpt>
<trkpt lat="33.81031" lon="-118.3941315">
  <ele>-37.484</ele>
  <time>2026-09-02T22:11:46Z</time>
  <course>88.87</course>
  <speed>0.9902019995940222</speed>
  <fix>3d</fix>
</trkpt>
<trkpt lat="33.8103097" lon="-118.3941331">
  <ele>-36.59</ele>
  <time>2026-09-02T22:11:46Z</time>
  <course>90.25</course>
  <speed>0.97</speed>
  <fix>3d</fix>
</trkpt>
<trkpt lat="33.81031" lon="-118.3941304">
  <ele>-37.471</ele>
  <time>2026-09-02T22:11:46Z</time>
  <course>88.81</course>
  <speed>0.9902019995940222</speed>
  <fix>3d</fix>
</trkpt>
<trkpt lat="33.8103097" lon="-118.3941331">
  <ele>-36.59</ele>
  <time>2026-09-02T22:11:46Z</time>
  <course>90.25</course>
  <speed>0.97</speed>
  <fix>3d</fix>
</trkpt>
<trkpt lat="33.81031" lon="-118.3941294">
  <ele>-37.459</ele>
  <time>2026-09-02T22:11:46Z</time>
  <course>88.76</course>
  <speed>0.9902019995940222</speed>
  <fix>3d</fix>
</trkpt>
<trkpt lat="33.8103097" lon="-118.3941309">
  <ele>-36.56</ele>
  <time>2026-09-02T22:11:46Z</time>
  <course>90.16</course>
  <speed>0.97</speed>
  <fix>3d</fix>
</trkpt>
<trkpt lat="33.81031" lon="-118.3941283">
  <ele>-37.445</ele>
  <time>2026-09-02T22:11:46Z</time>
  <course>88.72</course>
  <speed>0.9902019995940222</speed>
  <fix>3d</fix>
</trkpt>
<trkpt lat="33.8103097" lon="-118.3941309">
  <ele>-36.56</ele>
  <time>2026-09-02T22:11:46Z</time>
  <course>90.16</course>
  <speed>0.97</speed>
  <fix>3d</fix>
</trkpt>
<trkpt lat="33.81031" lon="-118.3941272">
  <ele>-37.432</ele>
  <time>2026-09-02T22:11:46Z</time>
  <course>88.68</course>
  <speed>0.9902019995940222</speed>
  <fix>3d</fix>
</trkpt>
<trkpt lat="33.8103097" lon="-118.3941288">
  <ele>-36.54</ele>
  <time>2026-09-02T22:11:46Z</time>
  <course>90.11</course>
  <speed>0.97</speed>
  <fix>3d</fix>
</trkpt>
<trkpt lat="33.81031" lon="-118.3941262">
  <ele>-37.418</ele>
  <time>2026-09-02T22:11:46Z</time>
  <course>88.64</course>
  <speed>0.9902019995940222</speed>
  <fix>3d</fix>
</trkpt>
<trkpt lat="33.8103097" lon="-118.3941288">
  <ele>-36.54</ele>
  <time>2026-09-02T22:11:46Z</time>
  <course>90.11</course>
  <speed>0.97</speed>
  <fix>3d</fix>
</trkpt>
<trkpt lat="33.8103099" lon="-118.3941251">
  <ele>-37.404</ele>
  <time>2026-09-02T22:11:46Z</time>
  <course>88.62</course>
  <speed>0.9902019995940222</speed>
  <fix>3d</fix>
</trkpt>
<trkpt lat="33.8103097" lon="-118.3941267">
  <ele>-36.51</ele>
  <time>2026-09-02T22:11:46Z</time>
  <course>90.07</course>
  <speed>0.98</speed>
  <fix>3d</fix>
</trkpt>
<trkpt lat="33.8103099" lon="-118.394124">
  <ele>-37.39</ele>
  <time>2026-09-02T22:11:46Z</time>
  <course>88.59</course>
  <speed>0.9902019995940222</speed>
  <fix>3d</fix>
</trkpt>
<trkpt lat="33.8103097" lon="-118.3941267">
  <ele>-36.51</ele>
  <time>2026-09-02T22:11:46Z</time>
  <course>90.07</course>
  <speed>0.98</speed>
  <fix>3d</fix>
</trkpt>
<trkpt lat="33.8103099" lon="-118.394123">
  <ele>-37.377</ele>
  <time>2026-09-02T22:11:46Z</time>
  <course>88.57</course>
  <speed>0.9902019995940222</speed>
  <fix>3d</fix>
</trkpt>
<trkpt lat="33.8103097" lon="-118.3941246">
  <ele>-36.48</ele>
  <time>2026-09-02T22:11:46Z</time>
  <course>90.04</course>
  <speed>0.98</speed>
  <fix>3d</fix>
</trkpt>
<trkpt lat="33.8103099" lon="-118.3941219">
  <ele>-37.363</ele>
  <time>2026-09-02T22:11:46Z</time>
  <course>88.56</course>
  <speed>0.9902019995940222</speed>
  <fix>3d</fix>
</trkpt>
<trkpt lat="33.8103097" lon="-118.3941246">
  <ele>-36.48</ele>
  <time>2026-09-02T22:11:46Z</time>
  <course>90.04</course>
  <speed>0.98</speed>
  <fix>3d</fix>
</trkpt>
<trkpt lat="33.8103099" lon="-118.3941209">
  <ele>-37.35</ele>
  <time>2026-09-02T22:11:46Z</time>
  <course>88.54</course>
  <speed>0.9902019995940222</speed>
  <fix>3d</fix>
</trkpt>
<trkpt lat="33.8103097" lon="-118.3941225">
  <ele>-36.47</ele>
  <time>2026-09-02T22:11:46Z</time>
  <course>90.02</course>
  <speed>0.98</speed>
  <fix>3d</fix>
</trkpt>
<trkpt lat="33.8103099" lon="-118.3941198">
  <ele>-37.338</ele>
  <time>2026-09-02T22:11:46Z</time>
  <course>88.53</course>
  <speed>0.9902019995940222</speed>
  <fix>3d</fix>
</trkpt>
<trkpt lat="33.8103097" lon="-118.3941225">
  <ele>-36.47</ele>
  <time>2026-09-02T22:11:46Z</time>
  <course>90.02</course>
  <speed>0.98</speed>
  <fix>3d</fix>
</trkpt>
<trkpt lat="33.8103099" lon="-118.3941187">
  <ele>-37.326</ele>
  <time>2026-09-02T22:11:46Z</time>
  <course>88.52</course>
  <speed>0.9902019995940222</speed>
  <fix>3d</fix>
</trkpt>
<trkpt lat="33.8103097" lon="-118.3941203">
  <ele>-36.44</ele>
  <time>2026-09-02T22:11:46Z</time>
  <course>90.01</course>
  <speed>0.98</speed>
  <fix>3d</fix>
</trkpt>
<trkpt lat="33.8103099" lon="-118.3941177">
  <ele>-37.315</ele>
  <time>2026-09-02T22:11:46Z</time>
  <course>88.52</course>
  <speed>1.000199980003999</speed>
  <fix>3d</fix>
</trkpt>
<trkpt lat="33.8103097" lon="-118.3941203">
  <ele>-36.44</ele>
  <time>2026-09-02T22:11:46Z</time>
  <course>90.01</course>
  <speed>0.98</speed>
  <fix>3d</fix>
</trkpt>
<trkpt lat="33.8103099" lon="-118.3941166">
  <ele>-37.305</ele>
  <time>2026-09-02T22:11:46Z</time>
  <course>88.51</course>
  <speed>1.000199980003999</speed>
  <fix>3d</fix>
</trkpt>
<trkpt lat="33.8103097" lon="-118.3941182">
  <ele>-36.42</ele>
  <time>2026-09-02T22:11:46Z</time>
  <course>89.99</course>
  <speed>0.98</speed>
  <fix>3d</fix>
</trkpt>
<trkpt lat="33.8103099" lon="-118.3941155">
  <ele>-37.293</ele>
  <time>2026-09-02T22:11:46Z</time>
  <course>88.51</course>
  <speed>1.000199980003999</speed>
  <fix>3d</fix>
</trkpt>
<trkpt lat="33.8103097" lon="-118.3941182">
  <ele>-36.42</ele>
  <time>2026-09-02T22:11:46Z</time>
  <course>89.99</course>
  <speed>0.98</speed>
  <fix>3d</fix>
</trkpt>
<trkpt lat="33.8103099" lon="-118.3941145">
  <ele>-37.281</ele>
  <time>2026-09-02T22:11:46Z</time>
  <course>88.51</course>
  <speed>1.000199980003999</speed>
  <fix>3d</fix>
</trkpt>
<trkpt lat="33.8103097" lon="-118.3941161">
  <ele>-36.4</ele>
  <time>2026-09-02T22:11:46Z</time>
  <course>89.98</course>
  <speed>0.98</speed>
  <fix>3d</fix>
</trkpt>
<trkpt lat="33.8103099" lon="-118.3941134">
  <ele>-37.269</ele>
  <time>2026-09-02T22:11:46Z</time>
  <course>88.51</course>
  <speed>1.000199980003999</speed>
  <fix>3d</fix>
</trkpt>
<trkpt lat="33.8103097" lon="-118.3941161">
  <ele>-36.4</ele>
  <time>2026-09-02T22:11:46Z</time>
  <course>89.98</course>
  <speed>0.98</speed>
  <fix>3d</fix>
</trkpt>
<trkpt lat="33.8103099" lon="-118.3941123">
  <ele>-37.255</ele>
  <time>2026-09-02T22:11:46Z</time>
  <course>88.51</course>
  <speed>1.000199980003999</speed>
  <fix>3d</fix>
</trkpt>
<trkpt lat="33.8103097" lon="-118.394114">
  <ele>-36.37</ele>
  <time>2026-09-02T22:11:46Z</time>
  <course>89.97</course>
  <speed>0.98</speed>
  <fix>3d</fix>
</trkpt>
<trkpt lat="33.8103099" lon="-118.3941113">
  <ele>-37.241</ele>
  <time>2026-09-02T22:11:46Z</time>
  <course>88.51</course>
  <speed>1.000199980003999</speed>
  <fix>3d</fix>
</trkpt>
<trkpt lat="33.8103097" lon="-118.394114">
  <ele>-36.37</ele>
  <time>2026-09-02T22:11:46Z</time>
  <course>89.97</course>
  <speed>0.98</speed>
  <fix>3d</fix>
</trkpt>
<trkpt lat="33.8103099" lon="-118.3941102">
  <ele>-37.228</ele>
  <time>2026-09-02T22:11:46Z</time>
  <course>88.51</course>
  <speed>1.000199980003999</speed>
  <fix>3d</fix>
</trkpt>
<trkpt lat="33.8103097" lon="-118.3941118">
  <ele>-36.36</ele>
  <time>2026-09-02T22:11:46Z</time>
  <course>89.97</course>
  <speed>0.98</speed>
  <fix>3d</fix>
</trkpt>
<trkpt lat="33.8103099" lon="-118.3941092">
  <ele>-37.216</ele>
  <time>2026-09-02T22:11:46Z</time>
  <course>88.51</course>
  <speed>1.000199980003999</speed>
  <fix>3d</fix>
</trkpt>
<trkpt lat="33.8103097" lon="-118.3941118">
  <ele>-36.36</ele>
  <time>2026-09-02T22:11:46Z</time>
  <course>89.97</course>
  <speed>0.98</speed>
  <fix>3d</fix>
</trkpt>
<trkpt lat="33.8103099" lon="-118.3941081">
  <ele>-37.203</ele>
  <time>2026-09-02T22:11:46Z</time>
  <course>88.51</course>
  <speed>1.000199980003999</speed>
  <fix>3d</fix>
</trkpt>
<trkpt lat="33.8103097" lon="-118.3941097">
  <ele>-36.33</ele>
  <time>2026-09-02T22:11:46Z</time>
  <course>89.97</course>
  <speed>0.98</speed>
  <fix>3d</fix>
</trkpt>
<trkpt lat="33.8103099" lon="-118.394107">
  <ele>-37.191</ele>
  <time>2026-09-02T22:11:46Z</time>
  <course>88.51</course>
  <speed>1.000199980003999</speed>
  <fix>3d</fix>
</trkpt>
<trkpt lat="33.8103097" lon="-118.3941097">
  <ele>-36.33</ele>
  <time>2026-09-02T22:11:46Z</time>
  <course>89.97</course>
  <speed>0.98</speed>
  <fix>3d</fix>
</trkpt>
<trkpt lat="33.8103099" lon="-118.3941059">
  <ele>-37.178</ele>
  <time>2026-09-02T22:11:46Z</time>
  <course>88.51</course>
  <speed>1.000199980003999</speed>
  <fix>3d</fix>
</trkpt>
<trkpt lat="33.8103097" lon="-118.3941075">
  <ele>-36.3</ele>
  <time>2026-09-02T22:11:46Z</time>
  <course>89.97</course>
  <speed>0.98</speed>
  <fix>3d</fix>
</trkpt>
<trkpt lat="33.8103099" lon="-118.3941049">
  <ele>-37.165</ele>
  <time>2026-09-02T22:11:46Z</time>
  <course>88.51</course>
  <speed>1.000199980003999</speed>
  <fix>3d</fix>
</trkpt>
<trkpt lat="33.8103097" lon="-118.3941075">
  <ele>-36.3</ele>
  <time>2026-09-02T22:11:46Z</time>
  <course>89.97</course>
  <speed>0.98</speed>
  <fix>3d</fix>
</trkpt>
<trkpt lat="33.8103099" lon="-118.3941038">
  <ele>-37.151</ele>
  <time>2026-09-02T22:11:46Z</time>
  <course>88.51</course>
  <speed>1.000199980003999</speed>
  <fix>3d</fix>
</trkpt>
<trkpt lat="33.8103097" lon="-118.3941054">
  <ele>-36.28</ele>
  <time>2026-09-02T22:11:46Z</time>
  <course>89.96</course>
  <speed>0.98</speed>
  <fix>3d</fix>
</trkpt>
<trkpt lat="33.8103099" lon="-118.3941027">
  <ele>-37.139</ele>
  <time>2026-09-02T22:11:46Z</time>
  <course>88.52</course>
  <speed>1.000199980003999</speed>
  <fix>3d</fix>
</trkpt>
<trkpt lat="33.8103097" lon="-118.3941054">
  <ele>-36.28</ele>
  <time>2026-09-02T22:11:46Z</time>
  <course>89.96</course>
  <speed>0.98</speed>
  <fix>3d</fix>
</trkpt>
<trkpt lat="33.8103099" lon="-118.3941017">
  <ele>-37.126</ele>
  <time>2026-09-02T22:11:46Z</time>
  <course>88.51</course>
  <speed>1.000199980003999</speed>
  <fix>3d</fix>
</trkpt>
<trkpt lat="33.8103097" lon="-118.3941033">
  <ele>-36.26</ele>
  <time>2026-09-02T22:11:46Z</time>
  <course>89.94</course>
  <speed>0.98</speed>
  <fix>3d</fix>
</trkpt>
<trkpt lat="33.8103099" lon="-118.3941006">
  <ele>-37.114</ele>
  <time>2026-09-02T22:11:46Z</time>
  <course>88.51</course>
  <speed>1.000199980003999</speed>
  <fix>3d</fix>
</trkpt>
<trkpt lat="33.8103097" lon="-118.3941033">
  <ele>-36.26</ele>
  <time>2026-09-02T22:11:46Z</time>
  <course>89.94</course>
  <speed>0.98</speed>
  <fix>3d</fix>
</trkpt>
<trkpt lat="33.8103099" lon="-118.3940995">
  <ele>-37.103</ele>
  <time>2026-09-02T22:11:46Z</time>
  <course>88.51</course>
  <speed>1.000199980003999</speed>
  <fix>3d</fix>
</trkpt>
<trkpt lat="33.8103097" lon="-118.3941012">
  <ele>-36.23</ele>
  <time>2026-09-02T22:11:46Z</time>
  <course>89.91</course>
  <speed>0.98</speed>
  <fix>3d</fix>
</trkpt>
<trkpt lat="33.8103099" lon="-118.3940985">
  <ele>-37.092</ele>
  <time>2026-09-02T22:11:46Z</time>
  <course>88.51</course>
  <speed>1.000199980003999</speed>
  <fix>3d</fix>
</trkpt>
<trkpt lat="33.8103097" lon="-118.3941012">
  <ele>-36.23</ele>
  <time>2026-09-02T22:11:46Z</time>
  <course>89.91</course>
  <speed>0.98</speed>
  <fix>3d</fix>
</trkpt>
<trkpt lat="33.8103099" lon="-118.3940974">
  <ele>-37.082</ele>
  <time>2026-09-02T22:11:46Z</time>
  <course>88.52</course>
  <speed>1.000199980003999</speed>
  <fix>3d</fix>
</trkpt>
<trkpt lat="33.8103097" lon="-118.394099">
  <ele>-36.21</ele>
  <time>2026-09-02T22:11:46Z</time>
  <course>89.9</course>
  <speed>0.98</speed>
  <fix>3d</fix>
</trkpt>
<trkpt lat="33.8103099" lon="-118.3940963">
  <ele>-37.071</ele>
  <time>2026-09-02T22:11:46Z</time>
  <course>88.53</course>
  <speed>1.000199980003999</speed>
  <fix>3d</fix>
</trkpt>
<trkpt lat="33.8103097" lon="-118.394099">
  <ele>-36.21</ele>
  <time>2026-09-02T22:11:46Z</time>
  <course>89.9</course>
  <speed>0.98</speed>
  <fix>3d</fix>
</trkpt>
<trkpt lat="33.8103099" lon="-118.3940952">
  <ele>-37.058</ele>
  <time>2026-09-02T22:11:46Z</time>
  <course>88.53</course>
  <speed>1.000199980003999</speed>
  <fix>3d</fix>
</trkpt>
<trkpt lat="33.8103097" lon="-118.3940969">
  <ele>-36.19</ele>
  <time>2026-09-02T22:11:46Z</time>
  <course>89.91</course>
  <speed>0.99</speed>
  <fix>3d</fix>
</trkpt>
<trkpt lat="33.8103099" lon="-118.3940942">
  <ele>-37.045</ele>
  <time>2026-09-02T22:11:46Z</time>
  <course>88.53</course>
  <speed>1.000199980003999</speed>
  <fix>3d</fix>
</trkpt>
<trkpt lat="33.8103097" lon="-118.3940969">
  <ele>-36.19</ele>
  <time>2026-09-02T22:11:46Z</time>
  <course>89.91</course>
  <speed>0.99</speed>
  <fix>3d</fix>
</trkpt>
<trkpt lat="33.8103099" lon="-118.3940931">
  <ele>-37.033</ele>
  <time>2026-09-02T22:11:46Z</time>
  <course>88.53</course>
  <speed>1.000199980003999</speed>
  <fix>3d</fix>
</trkpt>
<trkpt lat="33.8103097" lon="-118.3940947">
  <ele>-36.16</ele>
  <time>2026-09-02T22:11:46Z</time>
  <course>89.9</course>
  <speed>0.99</speed>
  <fix>3d</fix>
</trkpt>
<trkpt lat="33.8103099" lon="-118.394092">
  <ele>-37.021</ele>
  <time>2026-09-02T22:11:46Z</time>
  <course>88.54</course>
  <speed>1.000199980003999</speed>
  <fix>3d</fix>
</trkpt>
<trkpt lat="33.8103097" lon="-118.3940947">
  <ele>-36.16</ele>
  <time>2026-09-02T22:11:46Z</time>
  <course>89.9</course>
  <speed>0.99</speed>
  <fix>3d</fix>
</trkpt>
<trkpt lat="33.8103099" lon="-118.3940909">
  <ele>-37.009</ele>
  <time>2026-09-02T22:11:46Z</time>
  <course>88.55</course>
  <speed>1.000199980003999</speed>
  <fix>3d</fix>
</trkpt>
<trkpt lat="33.8103097" lon="-118.3940926">
  <ele>-36.14</ele>
  <time>2026-09-02T22:11:46Z</time>
  <course>89.89</course>
  <speed>0.99</speed>
  <fix>3d</fix>
</trkpt>
<trkpt lat="33.8103099" lon="-118.3940899">
  <ele>-36.997</ele>
  <time>2026-09-02T22:11:46Z</time>
  <course>88.55</course>
  <speed>1.000199980003999</speed>
  <fix>3d</fix>
</trkpt>
<trkpt lat="33.8103097" lon="-118.3940926">
  <ele>-36.14</ele>
  <time>2026-09-02T22:11:46Z</time>
  <course>89.89</course>
  <speed>0.99</speed>
  <fix>3d</fix>
</trkpt>
<trkpt lat="33.8103099" lon="-118.3940888">
  <ele>-36.985</ele>
  <time>2026-09-02T22:11:46Z</time>
  <course>88.55</course>
  <speed>1.000199980003999</speed>
  <fix>3d</fix>
</trkpt>
<trkpt lat="33.8103097" lon="-118.3940905">
  <ele>-36.11</ele>
  <time>2026-09-02T22:11:46Z</time>
  <course>89.87</course>
  <speed>0.99</speed>
  <fix>3d</fix>
</trkpt>
<trkpt lat="33.8103099" lon="-118.3940877">
  <ele>-36.973</ele>
  <time>2026-09-02T22:11:46Z</time>
  <course>88.56</course>
  <speed>1.000199980003999</speed>
  <fix>3d</fix>
</trkpt>
<trkpt lat="33.8103097" lon="-118.3940905">
  <ele>-36.11</ele>
  <time>2026-09-02T22:11:46Z</time>
  <course>89.87</course>
  <speed>0.99</speed>
  <fix>3d</fix>
</trkpt>
<trkpt lat="33.8103099" lon="-118.3940867">
  <ele>-36.961</ele>
  <time>2026-09-02T22:11:46Z</time>
  <course>88.56</course>
  <speed>1.010198000393982</speed>
  <fix>3d</fix>
</trkpt>
<trkpt lat="33.8103097" lon="-118.3940883">
  <ele>-36.09</ele>
  <time>2026-09-02T22:11:46Z</time>
  <course>89.84</course>
  <speed>0.99</speed>
  <fix>3d</fix>
</trkpt>
<trkpt lat="33.8103099" lon="-118.3940856">
  <ele>-36.948</ele>
  <time>2026-09-02T22:11:46Z</time>
  <course>88.57</course>
  <speed>1.010198000393982</speed>
  <fix>3d</fix>
</trkpt>
<trkpt lat="33.8103097" lon="-118.3940883">
  <ele>-36.09</ele>
  <time>2026-09-02T22:11:46Z</time>
  <course>89.84</course>
  <speed>0.99</speed>
  <fix>3d</fix>
</trkpt>
<trkpt lat="33.8103099" lon="-118.3940845">
  <ele>-36.935</ele>
  <time>2026-09-02T22:11:46Z</time>
  <course>88.57</course>
  <speed>1.010198000393982</speed>
  <fix>3d</fix>
</trkpt>
<trkpt lat="33.8103097" lon="-118.3940862">
  <ele>-36.06</ele>
  <time>2026-09-02T22:11:46Z</time>
  <course>89.83</course>
  <speed>0.99</speed>
  <fix>3d</fix>
</trkpt>
<trkpt lat="33.8103099" lon="-118.3940834">
  <ele>-36.922</ele>
  <time>2026-09-02T22:11:46Z</time>
  <course>88.58</course>
  <speed>1.010198000393982</speed>
  <fix>3d</fix>
</trkpt>
<trkpt lat="33.8103097" lon="-118.3940862">
  <ele>-36.06</ele>
  <time>2026-09-02T22:11:46Z</time>
  <course>89.83</course>
  <speed>0.99</speed>
  <fix>3d</fix>
</trkpt>
<trkpt lat="33.8103099" lon="-118.3940824">
  <ele>-36.908</ele>
  <time>2026-09-02T22:11:46Z</time>
  <course>88.58</course>
  <speed>1.010198000393982</speed>
  <fix>3d</fix>
</trkpt>
<trkpt lat="33.8103097" lon="-118.394084">
  <ele>-36.04</ele>
  <time>2026-09-02T22:11:46Z</time>
  <course>89.83</course>
  <speed>0.99</speed>
  <fix>3d</fix>
</trkpt>
<trkpt lat="33.8103099" lon="-118.3940813">
  <ele>-36.895</ele>
  <time>2026-09-02T22:11:46Z</time>
  <course>88.59</course>
  <speed>1.010198000393982</speed>
  <fix>3d</fix>
</trkpt>
<trkpt lat="33.8103097" lon="-118.394084">
  <ele>-36.04</ele>
  <time>2026-09-02T22:11:46Z</time>
  <course>89.83</course>
  <speed>0.99</speed>
  <fix>3d</fix>
</trkpt>
<trkpt lat="33.8103099" lon="-118.3940802">
  <ele>-36.883</ele>
  <time>2026-09-02T22:11:46Z</time>
  <course>88.59</course>
  <speed>1.010198000393982</speed>
  <fix>3d</fix>
</trkpt>
<trkpt lat="33.8103097" lon="-118.3940819">
  <ele>-36.01</ele>
  <time>2026-09-02T22:11:46Z</time>
  <course>89.83</course>
  <speed>0.99</speed>
  <fix>3d</fix>
</trkpt>
<trkpt lat="33.8103099" lon="-118.3940791">
  <ele>-36.871</ele>
  <time>2026-09-02T22:11:46Z</time>
  <course>88.59</course>
  <speed>1.010198000393982</speed>
  <fix>3d</fix>
</trkpt>
<trkpt lat="33.8103097" lon="-118.3940819">
  <ele>-36.01</ele>
  <time>2026-09-02T22:11:46Z</time>
  <course>89.83</course>
  <speed>0.99</speed>
  <fix>3d</fix>
</trkpt>
<trkpt lat="33.8103099" lon="-118.394078">
  <ele>-36.859</ele>
  <time>2026-09-02T22:11:46Z</time>
  <course>88.59</course>
  <speed>1.010198000393982</speed>
  <fix>3d</fix>
</trkpt>
<trkpt lat="33.8103097" lon="-118.3940797">
  <ele>-35.98</ele>
  <time>2026-09-02T22:11:46Z</time>
  <course>89.82</course>
  <speed>0.99</speed>
  <fix>3d</fix>
</trkpt>
<trkpt lat="33.8103099" lon="-118.394077">
  <ele>-36.846</ele>
  <time>2026-09-02T22:11:46Z</time>
  <course>88.6</course>
  <speed>1.010198000393982</speed>
  <fix>3d</fix>
</trkpt>
<trkpt lat="33.8103097" lon="-118.3940797">
  <ele>-35.98</ele>
  <time>2026-09-02T22:11:46Z</time>
  <course>89.82</course>
  <speed>0.99</speed>
  <fix>3d</fix>
</trkpt>
<trkpt lat="33.8103099" lon="-118.3940759">
  <ele>-36.833</ele>
  <time>2026-09-02T22:11:46Z</time>
  <course>88.61</course>
  <speed>1.010198000393982</speed>
  <fix>3d</fix>
</trkpt>
<trkpt lat="33.8103097" lon="-118.3940775">
  <ele>-35.97</ele>
  <time>2026-09-02T22:11:46Z</time>
  <course>89.81</course>
  <speed>0.99</speed>
  <fix>3d</fix>
</trkpt>
<trkpt lat="33.8103099" lon="-118.3940748">
  <ele>-36.821</ele>
  <time>2026-09-02T22:11:46Z</time>
  <course>88.62</course>
  <speed>1.010198000393982</speed>
  <fix>3d</fix>
</trkpt>
<trkpt lat="33.8103097" lon="-118.3940775">
  <ele>-35.97</ele>
  <time>2026-09-02T22:11:46Z</time>
  <course>89.81</course>
  <speed>0.99</speed>
  <fix>3d</fix>
</trkpt>
<trkpt lat="33.8103099" lon="-118.3940737">
  <ele>-36.808</ele>
  <time>2026-09-02T22:11:46Z</time>
  <course>88.62</course>
  <speed>1.010198000393982</speed>
  <fix>3d</fix>
</trkpt>
<trkpt lat="33.8103097" lon="-118.3940754">
  <ele>-35.94</ele>
  <time>2026-09-02T22:11:46Z</time>
  <course>89.81</course>
  <speed>0.99</speed>
  <fix>3d</fix>
</trkpt>
<trkpt lat="33.8103099" lon="-118.3940727">
  <ele>-36.795</ele>
  <time>2026-09-02T22:11:46Z</time>
  <course>88.63</course>
  <speed>1.010198000393982</speed>
  <fix>3d</fix>
</trkpt>
<trkpt lat="33.8103097" lon="-118.3940754">
  <ele>-35.94</ele>
  <time>2026-09-02T22:11:46Z</time>
  <course>89.81</course>
  <speed>0.99</speed>
  <fix>3d</fix>
</trkpt>
<trkpt lat="33.8103099" lon="-118.3940716">
  <ele>-36.782</ele>
  <time>2026-09-02T22:11:46Z</time>
  <course>88.63</course>
  <speed>1.010198000393982</speed>
  <fix>3d</fix>
</trkpt>
<trkpt lat="33.8103097" lon="-118.3940732">
  <ele>-35.92</ele>
  <time>2026-09-02T22:11:46Z</time>
  <course>89.8</course>
  <speed>1.0</speed>
  <fix>3d</fix>
</trkpt>
<trkpt lat="33.8103099" lon="-118.3940705">
  <ele>-36.769</ele>
  <time>2026-09-02T22:11:46Z</time>
  <course>88.64</course>
  <speed>1.010198000393982</speed>
  <fix>3d</fix>
</trkpt>
<trkpt lat="33.8103097" lon="-118.3940732">
  <ele>-35.92</ele>
  <time>2026-09-02T22:11:46Z</time>
  <course>89.8</course>
  <speed>1.0</speed>
  <fix>3d</fix>
</trkpt>
<trkpt lat="33.8103099" lon="-118.3940694">
  <ele>-36.754</ele>
  <time>2026-09-02T22:11:46Z</time>
  <course>88.64</course>
  <speed>1.010198000393982</speed>
  <fix>3d</fix>
</trkpt>
<trkpt lat="33.8103097" lon="-118.3940711">
  <ele>-35.9</ele>
  <time>2026-09-02T22:11:46Z</time>
  <course>89.79</course>
  <speed>1.0</speed>
  <fix>3d</fix>
</trkpt>
<trkpt lat="33.8103099" lon="-118.3940684">
  <ele>-36.741</ele>
  <time>2026-09-02T22:11:46Z</time>
  <course>88.64</course>
  <speed>1.010198000393982</speed>
  <fix>3d</fix>
</trkpt>
<trkpt lat="33.8103097" lon="-118.3940711">
  <ele>-35.9</ele>
  <time>2026-09-02T22:11:46Z</time>
  <course>89.79</course>
  <speed>1.0</speed>
  <fix>3d</fix>
</trkpt>
<trkpt lat="33.8103099" lon="-118.3940673">
  <ele>-36.728</ele>
  <time>2026-09-02T22:11:46Z</time>
  <course>88.64</course>
  <speed>1.010198000393982</speed>
  <fix>3d</fix>
</trkpt>
<trkpt lat="33.8103097" lon="-118.3940689">
  <ele>-35.87</ele>
  <time>2026-09-02T22:11:46Z</time>
  <course>89.76</course>
  <speed>1.0</speed>
  <fix>3d</fix>
</trkpt>
<trkpt lat="33.8103099" lon="-118.3940662">
  <ele>-36.716</ele>
  <time>2026-09-02T22:11:46Z</time>
  <course>88.65</course>
  <speed>1.010198000393982</speed>
  <fix>3d</fix>
</trkpt>
<trkpt lat="33.8103097" lon="-118.3940689">
  <ele>-35.87</ele>
  <time>2026-09-02T22:11:46Z</time>
  <course>89.76</course>
  <speed>1.0</speed>
  <fix>3d</fix>
</trkpt>
<trkpt lat="33.8103099" lon="-118.3940651">
  <ele>-36.704</ele>
  <time>2026-09-02T22:11:46Z</time>
  <course>88.65</course>
  <speed>1.010198000393982</speed>
  <fix>3d</fix>
</trkpt>
<trkpt lat="33.8103097" lon="-118.3940667">
  <ele>-35.85</ele>
  <time>2026-09-02T22:11:46Z</time>
  <course>89.76</course>
  <speed>1.0</speed>
  <fix>3d</fix>
</trkpt>
<trkpt lat="33.8103099" lon="-118.394064">
  <ele>-36.692</ele>
  <time>2026-09-02T22:11:46Z</time>
  <course>88.66</course>
  <speed>1.010198000393982</speed>
  <fix>3d</fix>
</trkpt>
<trkpt lat="33.8103097" lon="-118.3940667">
  <ele>-35.85</ele>
  <time>2026-09-02T22:11:46Z</time>
  <course>89.76</course>
  <speed>1.0</speed>
  <fix>3d</fix>
</trkpt>
<trkpt lat="33.8103099" lon="-118.394063">
  <ele>-36.68</ele>
  <time>2026-09-02T22:11:46Z</time>
  <course>88.66</course>
  <speed>1.010198000393982</speed>
  <fix>3d</fix>
</trkpt>
<trkpt lat="33.8103097" lon="-118.3940645">
  <ele>-35.83</ele>
  <time>2026-09-02T22:11:46Z</time>
  <course>89.77</course>
  <speed>1.0</speed>
  <fix>3d</fix>
</trkpt>
<trkpt lat="33.8103099" lon="-118.3940619">
  <ele>-36.667</ele>
  <time>2026-09-02T22:11:46Z</time>
  <course>88.67</course>
  <speed>1.010198000393982</speed>
  <fix>3d</fix>
</trkpt>
<trkpt lat="33.8103097" lon="-118.3940645">
  <ele>-35.83</ele>
  <time>2026-09-02T22:11:46Z</time>
  <course>89.77</course>
  <speed>1.0</speed>
  <fix>3d</fix>
</trkpt>
<trkpt lat="33.8103099" lon="-118.3940608">
  <ele>-36.655</ele>
  <time>2026-09-02T22:11:46Z</time>
  <course>88.67</course>
  <speed>1.010198000393982</speed>
  <fix>3d</fix>
</trkpt>
<trkpt lat="33.8103097" lon="-118.3940624">
  <ele>-35.8</ele>
  <time>2026-09-02T22:11:46Z</time>
  <course>89.76</course>
  <speed>1.0</speed>
  <fix>3d</fix>
</trkpt>
<trkpt lat="33.8103099" lon="-118.3940597">
  <ele>-36.642</ele>
  <time>2026-09-02T22:11:46Z</time>
  <course>88.67</course>
  <speed>1.010198000393982</speed>
  <fix>3d</fix>
</trkpt>
<trkpt lat="33.8103097" lon="-118.3940624">
  <ele>-35.8</ele>
  <time>2026-09-02T22:11:46Z</time>
  <course>89.76</course>
  <speed>1.0</speed>
  <fix>3d</fix>
</trkpt>
<trkpt lat="33.8103099" lon="-118.3940586">
  <ele>-36.631</ele>
  <time>2026-09-02T22:11:46Z</time>
  <course>88.67</course>
  <speed>1.010198000393982</speed>
  <fix>3d</fix>
</trkpt>
<trkpt lat="33.8103097" lon="-118.3940601">
  <ele>-35.78</ele>
  <time>2026-09-02T22:11:46Z</time>
  <course>89.75</course>
  <speed>1.0</speed>
  <fix>3d</fix>
</trkpt>
<trkpt lat="33.8103099" lon="-118.3940575">
  <ele>-36.619</ele>
  <time>2026-09-02T22:11:46Z</time>
  <course>88.67</course>
  <speed>1.010198000393982</speed>
  <fix>3d</fix>
</trkpt>
<trkpt lat="33.8103097" lon="-118.3940601">
  <ele>-35.78</ele>
  <time>2026-09-02T22:11:46Z</time>
  <course>89.75</course>
  <speed>1.0</speed>
  <fix>3d</fix>
</trkpt>
<trkpt lat="33.8103099" lon="-118.3940565">
  <ele>-36.607</ele>
  <time>2026-09-02T22:11:46Z</time>
  <course>88.67</course>
  <speed>1.010198000393982</speed>
  <fix>3d</fix>
</trkpt>
<trkpt lat="33.8103097" lon="-118.394058">
  <ele>-35.76</ele>
  <time>2026-09-02T22:11:46Z</time>
  <course>89.76</course>
  <speed>1.0</speed>
  <fix>3d</fix>
</trkpt>
<trkpt lat="33.8103099" lon="-118.3940554">
  <ele>-36.594</ele>
  <time>2026-09-02T22:11:46Z</time>
  <course>88.68</course>
  <speed>1.010198000393982</speed>
  <fix>3d</fix>
</trkpt>
<trkpt lat="33.8103097" lon="-118.394058">
  <ele>-35.76</ele>
  <time>2026-09-02T22:11:46Z</time>
  <course>89.76</course>
  <speed>1.0</speed>
  <fix>3d</fix>
</trkpt>
<trkpt lat="33.8103099" lon="-118.3940543">
  <ele>-36.582</ele>
  <time>2026-09-02T22:11:46Z</time>
  <course>88.68</course>
  <speed>1.010198000393982</speed>
  <fix>3d</fix>
</trkpt>
<trkpt lat="33.8103097" lon="-118.3940558">
  <ele>-35.73</ele>
  <time>2026-09-02T22:11:46Z</time>
  <course>89.76</course>
  <speed>1.0</speed>
  <fix>3d</fix>
</trkpt>
<trkpt lat="33.8103099" lon="-118.3940532">
  <ele>-36.57</ele>
  <time>2026-09-02T22:11:46Z</time>
  <course>88.68</course>
  <speed>1.010198000393982</speed>
  <fix>3d</fix>
</trkpt>
<trkpt lat="33.8103097" lon="-118.3940558">
  <ele>-35.73</ele>
  <time>2026-09-02T22:11:46Z</time>
  <course>89.76</course>
  <speed>1.0</speed>
  <fix>3d</fix>
</trkpt>
<trkpt lat="33.8103099" lon="-118.3940521">
  <ele>-36.558</ele>
  <time>2026-09-02T22:11:46Z</time>
  <course>88.67</course>
  <speed>1.010198000393982</speed>
  <fix>3d</fix>
</trkpt>
<trkpt lat="33.8103097" lon="-118.3940537">
  <ele>-35.71</ele>
  <time>2026-09-02T22:11:46Z</time>
  <course>89.76</course>
  <speed>1.0</speed>
  <fix>3d</fix>
</trkpt>
<trkpt lat="33.8103099" lon="-118.394051">
  <ele>-36.546</ele>
  <time>2026-09-02T22:11:46Z</time>
  <course>88.68</course>
  <speed>1.010198000393982</speed>
  <fix>3d</fix>
</trkpt>
<trkpt lat="33.8103097" lon="-118.3940537">
  <ele>-35.71</ele>
  <time>2026-09-02T22:11:46Z</time>
  <course>89.76</course>
  <speed>1.0</speed>
  <fix>3d</fix>
</trkpt>
<trkpt lat="33.8103099" lon="-118.39405">
  <ele>-36.534</ele>
  <time>2026-09-02T22:11:46Z</time>
  <course>88.68</course>
  <speed>1.010198000393982</speed>
  <fix>3d</fix>
</trkpt>
<trkpt lat="33.8103097" lon="-118.3940515">
  <ele>-35.68</ele>
  <time>2026-09-02T22:11:46Z</time>
  <course>89.75</course>
  <speed>1.0</speed>
  <fix>3d</fix>
</trkpt>
<trkpt lat="33.8103099" lon="-118.3940489">
  <ele>-36.522</ele>
  <time>2026-09-02T22:11:46Z</time>
  <course>88.68</course>
  <speed>1.010198000393982</speed>
  <fix>3d</fix>
</trkpt>
<trkpt lat="33.8103097" lon="-118.3940515">
  <ele>-35.68</ele>
  <time>2026-09-02T22:11:46Z</time>
  <course>89.75</course>
  <speed>1.0</speed>
  <fix>3d</fix>
</trkpt>
<trkpt lat="33.8103099" lon="-118.3940478">
  <ele>-36.51</ele>
  <time>2026-09-02T22:11:46Z</time>
  <course>88.68</course>
  <speed>1.010198000393982</speed>
  <fix>3d</fix>
</trkpt>
<trkpt lat="33.8103098" lon="-118.3940494">
  <ele>-35.66</ele>
  <time>2026-09-02T22:11:46Z</time>
  <course>89.74</course>
  <speed>1.0</speed>
  <fix>3d</fix>
</trkpt>
<trkpt lat="33.8103099" lon="-118.3940467">
  <ele>-36.498</ele>
  <time>2026-09-02T22:11:46Z</time>
  <course>88.69</course>
  <speed>1.010198000393982</speed>
  <fix>3d</fix>
</trkpt>
<trkpt lat="33.8103098" lon="-118.3940494">
  <ele>-35.66</ele>
  <time>2026-09-02T22:11:46Z</time>
  <course>89.74</course>
  <speed>1.0</speed>
  <fix>3d</fix>
</trkpt>
<trkpt lat="33.8103099" lon="-118.3940456">
  <ele>-36.487</ele>
  <time>2026-09-02T22:11:46Z</time>
  <course>88.72</course>
  <speed>1.010198000393982</speed>
  <fix>3d</fix>
</trkpt>
<trkpt lat="33.8103098" lon="-118.3940472">
  <ele>-35.63</ele>
  <time>2026-09-02T22:11:46Z</time>
  <course>89.78</course>
  <speed>1.0</speed>
  <fix>3d</fix>
</trkpt>
<trkpt lat="33.8103099" lon="-118.3940446">
  <ele>-36.475</ele>
  <time>2026-09-02T22:11:46Z</time>
  <course>88.77</course>
  <speed>1.010198000393982</speed>
  <fix>3d</fix>
</trkpt>
<trkpt lat="33.8103098" lon="-118.3940472">
  <ele>-35.63</ele>
  <time>2026-09-02T22:11:46Z</time>
  <course>89.78</course>
  <speed>1.0</speed>
  <fix>3d</fix>
</trkpt>
<trkpt lat="33.8103099" lon="-118.3940435">
  <ele>-36.462</ele>
  <time>2026-09-02T22:11:46Z</time>
  <course>88.82</course>
  <speed>1.010198000393982</speed>
  <fix>3d</fix>
</trkpt>
<trkpt lat="33.8103098" lon="-118.394045">
  <ele>-35.61</ele>
  <time>2026-09-02T22:11:46Z</time>
  <course>89.89</course>
  <speed>1.0</speed>
  <fix>3d</fix>
</trkpt>
<trkpt lat="33.8103099" lon="-118.3940424">
  <ele>-36.449</ele>
  <time>2026-09-02T22:11:46Z</time>
  <course>88.87</course>
  <speed>1.010198000393982</speed>
  <fix>3d</fix>
</trkpt>
<trkpt lat="33.8103098" lon="-118.394045">
  <ele>-35.61</ele>
  <time>2026-09-02T22:11:46Z</time>
  <course>89.89</course>
  <speed>1.0</speed>
  <fix>3d</fix>
</trkpt>
<trkpt lat="33.8103099" lon="-118.3940413">
  <ele>-36.437</ele>
  <time>2026-09-02T22:11:46Z</time>
  <course>88.92</course>
  <speed>1.010049503737317</speed>
  <fix>3d</fix>
</trkpt>
<trkpt lat="33.8103098" lon="-118.3940429">
  <ele>-35.58</ele>
  <time>2026-09-02T22:11:46Z</time>
  <course>89.98</course>
  <speed>1.0</speed>
  <fix>3d</fix>
</trkpt>
<trkpt lat="33.8103099" lon="-118.3940402">
  <ele>-36.426</ele>
  <time>2026-09-02T22:11:46Z</time>
  <course>88.96</course>
  <speed>1.010049503737317</speed>
  <fix>3d</fix>
</trkpt>
<trkpt lat="33.8103098" lon="-118.3940429">
  <ele>-35.58</ele>
  <time>2026-09-02T22:11:46Z</time>
  <course>89.98</course>
  <speed>1.0</speed>
  <fix>3d</fix>
</trkpt>
<trkpt lat="33.8103099" lon="-118.3940392">
  <ele>-36.414</ele>
  <time>2026-09-02T22:11:46Z</time>
  <course>89.0</course>
  <speed>1.010049503737317</speed>
  <fix>3d</fix>
</trkpt>
<trkpt lat="33.8103098" lon="-118.3940407">
  <ele>-35.55</ele>
  <time>2026-09-02T22:11:46Z</time>
  <course>90.04</course>
  <speed>1.0</speed>
  <fix>3d</fix>
</trkpt>
<trkpt lat="33.8103099" lon="-118.3940381">
  <ele>-36.403</ele>
  <time>2026-09-02T22:11:47Z</time>
  <course>89.03</course>
  <speed>1.010049503737317</speed>
  <fix>3d</fix>
</trkpt>
<trkpt lat="33.8103098" lon="-118.3940407">
  <ele>-35.55</ele>
  <time>2026-09-02T22:11:47Z</time>
  <course>90.04</course>
  <speed>1.0</speed>
  <fix>3d</fix>
</trkpt>
<trkpt lat="33.8103099" lon="-118.394037">
  <ele>-36.391</ele>
  <time>2026-09-02T22:11:47Z</time>
  <course>89.06</course>
  <speed>1.010049503737317</speed>
  <fix>3d</fix>
</trkpt>
<trkpt lat="33.8103098" lon="-118.3940385">
  <ele>-35.54</ele>
  <time>2026-09-02T22:11:47Z</time>
  <course>90.09</course>
  <speed>1.0</speed>
  <fix>3d</fix>
</trkpt>
<trkpt lat="33.8103099" lon="-118.3940359">
  <ele>-36.379</ele>
  <time>2026-09-02T22:11:47Z</time>
  <course>89.08</course>
  <speed>1.010049503737317</speed>
  <fix>3d</fix>
</trkpt>
<trkpt lat="33.8103098" lon="-118.3940385">
  <ele>-35.54</ele>
  <time>2026-09-02T22:11:47Z</time>
  <course>90.09</course>
  <speed>1.0</speed>
  <fix>3d</fix>
</trkpt>
<trkpt lat="33.8103099" lon="-118.3940348">
  <ele>-36.368</ele>
  <time>2026-09-02T22:11:47Z</time>
  <course>89.1</course>
  <speed>1.010049503737317</speed>
  <fix>3d</fix>
</trkpt>
<trkpt lat="33.8103098" lon="-118.3940364">
  <ele>-35.51</ele>
  <time>2026-09-02T22:11:47Z</time>
  <course>90.13</course>
  <speed>1.0</speed>
  <fix>3d</fix>
</trkpt>
<trkpt lat="33.8103099" lon="-118.3940337">
  <ele>-36.356</ele>
  <time>2026-09-02T22:11:47Z</time>
  <course>89.12</course>
  <speed>1.010049503737317</speed>
  <fix>3d</fix>
</trkpt>
<trkpt lat="33.8103098" lon="-118.3940364">
  <ele>-35.51</ele>
  <time>2026-09-02T22:11:47Z</time>
  <course>90.13</course>
  <speed>1.0</speed>
  <fix>3d</fix>
</trkpt>
<trkpt lat="33.8103099" lon="-118.3940327">
  <ele>-36.345</ele>
  <time>2026-09-02T22:11:47Z</time>
  <course>89.13</course>
  <speed>1.010049503737317</speed>
  <fix>3d</fix>
</trkpt>
<trkpt lat="33.8103098" lon="-118.3940342">
  <ele>-35.48</ele>
  <time>2026-09-02T22:11:47Z</time>
  <course>90.15</course>
  <speed>1.0</speed>
  <fix>3d</fix>
</trkpt>
<trkpt lat="33.8103099" lon="-118.3940316">
  <ele>-36.333</ele>
  <time>2026-09-02T22:11:47Z</time>
  <course>89.14</course>
  <speed>1.010049503737317</speed>
  <fix>3d</fix>
</trkpt>
<trkpt lat="33.8103098" lon="-118.3940342">
  <ele>-35.48</ele>
  <time>2026-09-02T22:11:47Z</time>
  <course>90.15</course>
  <speed>1.0</speed>
  <fix>3d</fix>
</trkpt>
<trkpt lat="33.8103099" lon="-118.3940305">
  <ele>-36.321</ele>
  <time>2026-09-02T22:11:47Z</time>
  <course>89.15</course>
  <speed>1.010049503737317</speed>
  <fix>3d</fix>
</trkpt>
<trkpt lat="33.8103098" lon="-118.394032">
  <ele>-35.47</ele>
  <time>2026-09-02T22:11:47Z</time>
  <course>90.17</course>
  <speed>1.0</speed>
  <fix>3d</fix>
</trkpt>
<trkpt lat="33.8103099" lon="-118.3940294">
  <ele>-36.309</ele>
  <time>2026-09-02T22:11:47Z</time>
  <course>89.17</course>
  <speed>1.010049503737317</speed>
  <fix>3d</fix>
</trkpt>
<trkpt lat="33.8103098" lon="-118.394032">
  <ele>-35.47</ele>
  <time>2026-09-02T22:11:47Z</time>
  <course>90.17</course>
  <speed>1.0</speed>
  <fix>3d</fix>
</trkpt>
<trkpt lat="33.8103099" lon="-118.3940283">
  <ele>-36.298</ele>
  <time>2026-09-02T22:11:47Z</time>
  <course>89.17</course>
  <speed>1.010049503737317</speed>
  <fix>3d</fix>
</trkpt>
<trkpt lat="33.8103098" lon="-118.3940299">
  <ele>-35.44</ele>
  <time>2026-09-02T22:11:47Z</time>
  <course>90.19</course>
  <speed>1.0</speed>
  <fix>3d</fix>
</trkpt>
<trkpt lat="33.8103099" lon="-118.3940273">
  <ele>-36.286</ele>
  <time>2026-09-02T22:11:47Z</time>
  <course>89.17</course>
  <speed>1.010049503737317</speed>
  <fix>3d</fix>
</trkpt>
<trkpt lat="33.8103098" lon="-118.3940299">
  <ele>-35.44</ele>
  <time>2026-09-02T22:11:47Z</time>
  <course>90.19</course>
  <speed>1.0</speed>
  <fix>3d</fix>
</trkpt>
<trkpt lat="33.8103099" lon="-118.3940262">
  <ele>-36.274</ele>
  <time>2026-09-02T22:11:47Z</time>
  <course>89.17</course>
  <speed>1.010049503737317</speed>
  <fix>3d</fix>
</trkpt>
<trkpt lat="33.8103098" lon="-118.3940277">
  <ele>-35.42</ele>
  <time>2026-09-02T22:11:47Z</time>
  <course>90.2</course>
  <speed>0.99</speed>
  <fix>3d</fix>
</trkpt>
<trkpt lat="33.8103099" lon="-118.3940251">
  <ele>-36.261</ele>
  <time>2026-09-02T22:11:47Z</time>
  <course>89.18</course>
  <speed>1.010049503737317</speed>
  <fix>3d</fix>
</trkpt>
<trkpt lat="33.8103098" lon="-118.3940277">
  <ele>-35.42</ele>
  <time>2026-09-02T22:11:47Z</time>
  <course>90.2</course>
  <speed>0.99</speed>
  <fix>3d</fix>
</trkpt>
<trkpt lat="33.8103099" lon="-118.394024">
  <ele>-36.247</ele>
  <time>2026-09-02T22:11:47Z</time>
  <course>89.17</course>
  <speed>1.010049503737317</speed>
  <fix>3d</fix>
</trkpt>
<trkpt lat="33.8103098" lon="-118.3940256">
  <ele>-35.4</ele>
  <time>2026-09-02T22:11:47Z</time>
  <course>90.23</course>
  <speed>0.99</speed>
  <fix>3d</fix>
</trkpt>
<trkpt lat="33.8103099" lon="-118.3940229">
  <ele>-36.233</ele>
  <time>2026-09-02T22:11:47Z</time>
  <course>89.17</course>
  <speed>1.010049503737317</speed>
  <fix>3d</fix>
</trkpt>
<trkpt lat="33.8103098" lon="-118.3940256">
  <ele>-35.4</ele>
  <time>2026-09-02T22:11:47Z</time>
  <course>90.23</course>
  <speed>0.99</speed>
  <fix>3d</fix>
</trkpt>
<trkpt lat="33.8103099" lon="-118.3940218">
  <ele>-36.22</ele>
  <time>2026-09-02T22:11:47Z</time>
  <course>89.17</course>
  <speed>1.010049503737317</speed>
  <fix>3d</fix>
</trkpt>
<trkpt lat="33.8103098" lon="-118.3940234">
  <ele>-35.37</ele>
  <time>2026-09-02T22:11:47Z</time>
  <course>90.26</course>
  <speed>0.99</speed>
  <fix>3d</fix>
</trkpt>
<trkpt lat="33.8103099" lon="-118.3940208">
  <ele>-36.206</ele>
  <time>2026-09-02T22:11:47Z</time>
  <course>89.17</course>
  <speed>1.010049503737317</speed>
  <fix>3d</fix>
</trkpt>
<trkpt lat="33.8103098" lon="-118.3940234">
  <ele>-35.37</ele>
  <time>2026-09-02T22:11:47Z</time>
  <course>90.26</course>
  <speed>0.99</speed>
  <fix>3d</fix>
</trkpt>
<trkpt lat="33.8103099" lon="-118.3940197">
  <ele>-36.193</ele>
  <time>2026-09-02T22:11:47Z</time>
  <course>89.17</course>
  <speed>1.010049503737317</speed>
  <fix>3d</fix>
</trkpt>
<trkpt lat="33.8103098" lon="-118.3940212">
  <ele>-35.35</ele>
  <time>2026-09-02T22:11:47Z</time>
  <course>90.29</course>
  <speed>0.99</speed>
  <fix>3d</fix>
</trkpt>
<trkpt lat="33.8103099" lon="-118.3940186">
  <ele>-36.18</ele>
  <time>2026-09-02T22:11:47Z</time>
  <course>89.17</course>
  <speed>1.010049503737317</speed>
  <fix>3d</fix>
</trkpt>
<trkpt lat="33.8103098" lon="-118.3940212">
  <ele>-35.35</ele>
  <time>2026-09-02T22:11:47Z</time>
  <course>90.29</course>
  <speed>0.99</speed>
  <fix>3d</fix>
</trkpt>
<trkpt lat="33.8103099" lon="-118.3940175">
  <ele>-36.166</ele>
  <time>2026-09-02T22:11:47Z</time>
  <course>89.16</course>
  <speed>1.010049503737317</speed>
  <fix>3d</fix>
</trkpt>
<trkpt lat="33.8103098" lon="-118.3940191">
  <ele>-35.32</ele>
  <time>2026-09-02T22:11:47Z</time>
  <course>90.31</course>
  <speed>0.99</speed>
  <fix>3d</fix>
</trkpt>
<trkpt lat="33.8103099" lon="-118.3940164">
  <ele>-36.154</ele>
  <time>2026-09-02T22:11:47Z</time>
  <course>89.15</course>
  <speed>1.010049503737317</speed>
  <fix>3d</fix>
</trkpt>
<trkpt lat="33.8103098" lon="-118.3940191">
  <ele>-35.32</ele>
  <time>2026-09-02T22:11:47Z</time>
  <course>90.31</course>
  <speed>0.99</speed>
  <fix>3d</fix>
</trkpt>
<trkpt lat="33.8103099" lon="-118.3940154">
  <ele>-36.142</ele>
  <time>2026-09-02T22:11:47Z</time>
  <course>89.14</course>
  <speed>1.010049503737317</speed>
  <fix>3d</fix>
</trkpt>
<trkpt lat="33.8103098" lon="-118.3940169">
  <ele>-35.3</ele>
  <time>2026-09-02T22:11:47Z</time>
  <course>90.32</course>
  <speed>0.99</speed>
  <fix>3d</fix>
</trkpt>
<trkpt lat="33.8103099" lon="-118.3940143">
  <ele>-36.129</ele>
  <time>2026-09-02T22:11:47Z</time>
  <course>89.14</course>
  <speed>1.010049503737317</speed>
  <fix>3d</fix>
</trkpt>
<trkpt lat="33.8103098" lon="-118.3940169">
  <ele>-35.3</ele>
  <time>2026-09-02T22:11:47Z</time>
  <course>90.32</course>
  <speed>0.99</speed>
  <fix>3d</fix>
</trkpt>
<trkpt lat="33.8103099" lon="-118.3940142">
  <ele>-36.129</ele>
  <time>2026-09-02T22:11:47Z</time>
  <course>89.14</course>
  <speed>1.010049503737317</speed>
  <fix>3d</fix>
</trkpt>
<trkpt lat="33.8103099" lon="-118.3940132">
  <ele>-36.116</ele>
  <time>2026-09-02T22:11:47Z</time>
  <course>89.13</course>
  <speed>1.010049503737317</speed>
  <fix>3d</fix>
</trkpt>
<trkpt lat="33.8103098" lon="-118.3940147">
  <ele>-35.28</ele>
  <time>2026-09-02T22:11:47Z</time>
  <course>90.35</course>
  <speed>0.99</speed>
  <fix>3d</fix>
</trkpt>
<trkpt lat="33.8103099" lon="-118.3940132">
  <ele>-36.116</ele>
  <time>2026-09-02T22:11:47Z</time>
  <course>89.13</course>
  <speed>1.010049503737317</speed>
  <fix>3d</fix>
</trkpt>
<trkpt lat="33.8103099" lon="-118.3940121">
  <ele>-36.103</ele>
  <time>2026-09-02T22:11:47Z</time>
  <course>89.13</course>
  <speed>1.010049503737317</speed>
  <fix>3d</fix>
</trkpt>
<trkpt lat="33.8103098" lon="-118.3940147">
  <ele>-35.28</ele>
  <time>2026-09-02T22:11:47Z</time>
  <course>90.35</course>
  <speed>0.99</speed>
  <fix>3d</fix>
</trkpt>
<trkpt lat="33.8103099" lon="-118.3940121">
  <ele>-36.103</ele>
  <time>2026-09-02T22:11:47Z</time>
  <course>89.13</course>
  <speed>1.010049503737317</speed>
  <fix>3d</fix>
</trkpt>
<trkpt lat="33.8103099" lon="-118.394011">
  <ele>-36.09</ele>
  <time>2026-09-02T22:11:47Z</time>
  <course>89.12</course>
  <speed>1.010049503737317</speed>
  <fix>3d</fix>
</trkpt>
<trkpt lat="33.8103098" lon="-118.3940126">
  <ele>-35.25</ele>
  <time>2026-09-02T22:11:47Z</time>
  <course>90.38</course>
  <speed>0.99</speed>
  <fix>3d</fix>
</trkpt>
<trkpt lat="33.8103099" lon="-118.3940107">
  <ele>-36.087</ele>
  <time>2026-09-02T22:11:47Z</time>
  <course>89.12</course>
  <speed>1.010049503737317</speed>
  <fix>3d</fix>
</trkpt>
<trkpt lat="33.8103099" lon="-118.3940099">
  <ele>-36.077</ele>
  <time>2026-09-02T22:11:47Z</time>
  <course>89.11</course>
  <speed>1.010049503737317</speed>
  <fix>3d</fix>
</trkpt>
<trkpt lat="33.8103098" lon="-118.3940126">
  <ele>-35.25</ele>
  <time>2026-09-02T22:11:47Z</time>
  <course>90.38</course>
  <speed>0.99</speed>
  <fix>3d</fix>
</trkpt>
<trkpt lat="33.8103099" lon="-118.3940096">
  <ele>-36.073</ele>
  <time>2026-09-02T22:11:47Z</time>
  <course>89.11</course>
  <speed>1.010049503737317</speed>
  <fix>3d</fix>
</trkpt>
<trkpt lat="33.8103099" lon="-118.3940088">
  <ele>-36.065</ele>
  <time>2026-09-02T22:11:47Z</time>
  <course>89.1</course>
  <speed>1.010049503737317</speed>
  <fix>3d</fix>
</trkpt>
<trkpt lat="33.8103098" lon="-118.3940104">
  <ele>-35.23</ele>
  <time>2026-09-02T22:11:47Z</time>
  <course>90.41</course>
  <speed>0.99</speed>
  <fix>3d</fix>
</trkpt>
<trkpt lat="33.8103099" lon="-118.3940085">
  <ele>-36.061</ele>
  <time>2026-09-02T22:11:47Z</time>
  <course>89.1</course>
  <speed>1.010049503737317</speed>
  <fix>3d</fix>
</trkpt>
<trkpt lat="33.8103099" lon="-118.3940078">
  <ele>-36.052</ele>
  <time>2026-09-02T22:11:47Z</time>
  <course>89.09</course>
  <speed>1.010049503737317</speed>
  <fix>3d</fix>
</trkpt>
<trkpt lat="33.8103098" lon="-118.3940104">
  <ele>-35.23</ele>
  <time>2026-09-02T22:11:47Z</time>
  <course>90.41</course>
  <speed>0.99</speed>
  <fix>3d</fix>
</trkpt>
<trkpt lat="33.8103099" lon="-118.3940074">
  <ele>-36.049</ele>
  <time>2026-09-02T22:11:47Z</time>
  <course>89.09</course>
  <speed>1.010049503737317</speed>
  <fix>3d</fix>
</trkpt>
<trkpt lat="33.8103099" lon="-118.3940067">
  <ele>-36.04</ele>
  <time>2026-09-02T22:11:47Z</time>
  <course>89.08</course>
  <speed>1.010049503737317</speed>
  <fix>3d</fix>
</trkpt>
<trkpt lat="33.8103097" lon="-118.3940083">
  <ele>-35.2</ele>
  <time>2026-09-02T22:11:47Z</time>
  <course>90.43</course>
  <speed>0.99</speed>
  <fix>3d</fix>
</trkpt>
<trkpt lat="33.8103099" lon="-118.3940064">
  <ele>-36.037</ele>
  <time>2026-09-02T22:11:47Z</time>
  <course>89.08</course>
  <speed>1.010198000393982</speed>
  <fix>3d</fix>
</trkpt>
<trkpt lat="33.8103099" lon="-118.3940056">
  <ele>-36.029</ele>
  <time>2026-09-02T22:11:47Z</time>
  <course>89.06</course>
  <speed>1.010198000393982</speed>
  <fix>3d</fix>
</trkpt>
<trkpt lat="33.8103097" lon="-118.3940083">
  <ele>-35.2</ele>
  <time>2026-09-02T22:11:47Z</time>
  <course>90.43</course>
  <speed>0.99</speed>
  <fix>3d</fix>
</trkpt>
<trkpt lat="33.8103099" lon="-118.3940052">
  <ele>-36.025</ele>
  <time>2026-09-02T22:11:47Z</time>
  <course>89.04</course>
  <speed>1.010198000393982</speed>
  <fix>3d</fix>
</trkpt>
<trkpt lat="33.8103099" lon="-118.3940045">
  <ele>-36.017</ele>
  <time>2026-09-02T22:11:47Z</time>
  <course>89.02</course>
  <speed>1.010198000393982</speed>
  <fix>3d</fix>
</trkpt>
<trkpt lat="33.8103097" lon="-118.3940061">
  <ele>-35.18</ele>
  <time>2026-09-02T22:11:47Z</time>
  <course>90.38</course>
  <speed>0.99</speed>
  <fix>3d</fix>
</trkpt>
<trkpt lat="33.8103099" lon="-118.3940042">
  <ele>-36.014</ele>
  <time>2026-09-02T22:11:47Z</time>
  <course>89.0</course>
  <speed>1.010198000393982</speed>
  <fix>3d</fix>
</trkpt>
<trkpt lat="33.8103099" lon="-118.3940034">
  <ele>-36.006</ele>
  <time>2026-09-02T22:11:47Z</time>
  <course>88.97</course>
  <speed>1.010198000393982</speed>
  <fix>3d</fix>
</trkpt>
<trkpt lat="33.8103097" lon="-118.3940061">
  <ele>-35.18</ele>
  <time>2026-09-02T22:11:47Z</time>
  <course>90.38</course>
  <speed>0.99</speed>
  <fix>3d</fix>
</trkpt>
<trkpt lat="33.8103099" lon="-118.3940031">
  <ele>-36.003</ele>
  <time>2026-09-02T22:11:47Z</time>
  <course>88.95</course>
  <speed>1.010198000393982</speed>
  <fix>3d</fix>
</trkpt>
<trkpt lat="33.8103099" lon="-118.3940024">
  <ele>-35.995</ele>
  <time>2026-09-02T22:11:47Z</time>
  <course>88.91</course>
  <speed>1.010198000393982</speed>
  <fix>3d</fix>
</trkpt>
<trkpt lat="33.8103097" lon="-118.394004">
  <ele>-35.16</ele>
  <time>2026-09-02T22:11:47Z</time>
  <course>90.29</course>
  <speed>0.99</speed>
  <fix>3d</fix>
</trkpt>
<trkpt lat="33.8103099" lon="-118.394002">
  <ele>-35.992</ele>
  <time>2026-09-02T22:11:47Z</time>
  <course>88.89</course>
  <speed>1.010198000393982</speed>
  <fix>3d</fix>
</trkpt>
<trkpt lat="33.8103099" lon="-118.3940013">
  <ele>-35.985</ele>
  <time>2026-09-02T22:11:47Z</time>
  <course>88.85</course>
  <speed>1.010198000393982</speed>
  <fix>3d</fix>
</trkpt>
<trkpt lat="33.8103097" lon="-118.394004">
  <ele>-35.16</ele>
  <time>2026-09-02T22:11:47Z</time>
  <course>90.29</course>
  <speed>0.99</speed>
  <fix>3d</fix>
</trkpt>
<trkpt lat="33.8103099" lon="-118.3940013">
  <ele>-35.985</ele>
  <time>2026-09-02T22:11:47Z</time>
  <course>88.85</course>
  <speed>1.010198000393982</speed>
  <fix>3d</fix>
</trkpt>
<trkpt lat="33.8103099" lon="-118.3940002">
  <ele>-35.976</ele>
  <time>2026-09-02T22:11:47Z</time>
  <course>88.8</course>
  <speed>1.010198000393982</speed>
  <fix>3d</fix>
</trkpt>
<trkpt lat="33.8103097" lon="-118.3940017">
  <ele>-35.13</ele>
  <time>2026-09-02T22:11:47Z</time>
  <course>90.21</course>
  <speed>0.99</speed>
  <fix>3d</fix>
</trkpt>
<trkpt lat="33.8103099" lon="-118.3939999">
  <ele>-35.973</ele>
  <time>2026-09-02T22:11:47Z</time>
  <course>88.78</course>
  <speed>1.010198000393982</speed>
  <fix>3d</fix>
</trkpt>
<trkpt lat="33.8103099" lon="-118.3939991">
  <ele>-35.965</ele>
  <time>2026-09-02T22:11:47Z</time>
  <course>88.75</course>
  <speed>1.010198000393982</speed>
  <fix>3d</fix>
</trkpt>
<trkpt lat="33.8103097" lon="-118.3940017">
  <ele>-35.13</ele>
  <time>2026-09-02T22:11:47Z</time>
  <course>90.21</course>
  <speed>0.99</speed>
  <fix>3d</fix>
</trkpt>
<trkpt lat="33.8103099" lon="-118.3939988">
  <ele>-35.962</ele>
  <time>2026-09-02T22:11:47Z</time>
  <course>88.73</course>
  <speed>1.010198000393982</speed>
  <fix>3d</fix>
</trkpt>
<trkpt lat="33.8103099" lon="-118.393998">
  <ele>-35.954</ele>
  <time>2026-09-02T22:11:47Z</time>
  <course>88.7</course>
  <speed>1.010198000393982</speed>
  <fix>3d</fix>
</trkpt>
<trkpt lat="33.8103097" lon="-118.3939996">
  <ele>-35.11</ele>
  <time>2026-09-02T22:11:47Z</time>
  <course>90.15</course>
  <speed>0.99</speed>
  <fix>3d</fix>
</trkpt>
<trkpt lat="33.8103099" lon="-118.393998">
  <ele>-35.954</ele>
  <time>2026-09-02T22:11:47Z</time>
  <course>88.7</course>
  <speed>1.010198000393982</speed>
  <fix>3d</fix>
</trkpt>
<trkpt lat="33.8103099" lon="-118.3939969">
  <ele>-35.941</ele>
  <time>2026-09-02T22:11:47Z</time>
  <course>88.67</course>
  <speed>1.010198000393982</speed>
  <fix>3d</fix>
</trkpt>
<trkpt lat="33.8103097" lon="-118.3939996">
  <ele>-35.11</ele>
  <time>2026-09-02T22:11:47Z</time>
  <course>90.15</course>
  <speed>0.99</speed>
  <fix>3d</fix>
</trkpt>
<trkpt lat="33.8103099" lon="-118.3939966">
  <ele>-35.937</ele>
  <time>2026-09-02T22:11:47Z</time>
  <course>88.66</course>
  <speed>1.010198000393982</speed>
  <fix>3d</fix>
</trkpt>
<trkpt lat="33.8103099" lon="-118.3939959">
  <ele>-35.928</ele>
  <time>2026-09-02T22:11:47Z</time>
  <course>88.64</course>
  <speed>1.010198000393982</speed>
  <fix>3d</fix>
</trkpt>
<trkpt lat="33.8103097" lon="-118.3939974">
  <ele>-35.08</ele>
  <time>2026-09-02T22:11:47Z</time>
  <course>90.12</course>
  <speed>0.99</speed>
  <fix>3d</fix>
</trkpt>
<trkpt lat="33.8103099" lon="-118.3939955">
  <ele>-35.924</ele>
  <time>2026-09-02T22:11:47Z</time>
  <course>88.63</course>
  <speed>1.010198000393982</speed>
  <fix>3d</fix>
</trkpt>
<trkpt lat="33.8103099" lon="-118.3939948">
  <ele>-35.915</ele>
  <time>2026-09-02T22:11:47Z</time>
  <course>88.61</course>
  <speed>1.010198000393982</speed>
  <fix>3d</fix>
</trkpt>
<trkpt lat="33.8103097" lon="-118.3939974">
  <ele>-35.08</ele>
  <time>2026-09-02T22:11:47Z</time>
  <course>90.12</course>
  <speed>0.99</speed>
  <fix>3d</fix>
</trkpt>
<trkpt lat="33.8103099" lon="-118.3939945">
  <ele>-35.91</ele>
  <time>2026-09-02T22:11:47Z</time>
  <course>88.6</course>
  <speed>1.010198000393982</speed>
  <fix>3d</fix>
</trkpt>
<trkpt lat="33.8103099" lon="-118.3939937">
  <ele>-35.901</ele>
  <time>2026-09-02T22:11:47Z</time>
  <course>88.59</course>
  <speed>1.010198000393982</speed>
  <fix>3d</fix>
</trkpt>
<trkpt lat="33.8103097" lon="-118.3939953">
  <ele>-35.05</ele>
  <time>2026-09-02T22:11:47Z</time>
  <course>90.11</course>
  <speed>0.99</speed>
  <fix>3d</fix>
</trkpt>
<trkpt lat="33.8103099" lon="-118.3939934">
  <ele>-35.897</ele>
  <time>2026-09-02T22:11:47Z</time>
  <course>88.58</course>
  <speed>1.010198000393982</speed>
  <fix>3d</fix>
</trkpt>
<trkpt lat="33.8103099" lon="-118.3939926">
  <ele>-35.887</ele>
  <time>2026-09-02T22:11:47Z</time>
  <course>88.57</course>
  <speed>1.010198000393982</speed>
  <fix>3d</fix>
</trkpt>
<trkpt lat="33.8103097" lon="-118.3939953">
  <ele>-35.05</ele>
  <time>2026-09-02T22:11:47Z</time>
  <course>90.11</course>
  <speed>0.99</speed>
  <fix>3d</fix>
</trkpt>
<trkpt lat="33.8103099" lon="-118.3939923">
  <ele>-35.884</ele>
  <time>2026-09-02T22:11:47Z</time>
  <course>88.56</course>
  <speed>1.000199980003999</speed>
  <fix>3d</fix>
</trkpt>
<trkpt lat="33.8103099" lon="-118.3939916">
  <ele>-35.875</ele>
  <time>2026-09-02T22:11:47Z</time>
  <course>88.55</course>
  <speed>0.9902019995940222</speed>
  <fix>3d</fix>
</trkpt>
<trkpt lat="33.8103097" lon="-118.3939931">
  <ele>-35.03</ele>
  <time>2026-09-02T22:11:47Z</time>
  <course>90.09</course>
  <speed>0.99</speed>
  <fix>3d</fix>
</trkpt>
<trkpt lat="33.8103099" lon="-118.3939906">
  <ele>-35.864</ele>
  <time>2026-09-02T22:11:47Z</time>
  <course>88.54</course>
  <speed>0.7000714249274855</speed>
  <fix>3d</fix>
</trkpt>
<trkpt lat="33.8103097" lon="-118.3939931">
  <ele>-35.03</ele>
  <time>2026-09-02T22:11:47Z</time>
  <course>90.09</course>
  <speed>0.99</speed>
  <fix>3d</fix>
</trkpt>
<trkpt lat="33.8103099" lon="-118.39399">
  <ele>-35.852</ele>
  <time>2026-09-02T22:11:47Z</time>
  <course>88.52</course>
  <speed>0.540092584655631</speed>
  <fix>3d</fix>
</trkpt>
<trkpt lat="33.8103097" lon="-118.3939911">
  <ele>-35.01</ele>
  <time>2026-09-02T22:11:47Z</time>
  <course>90.21</course>
  <speed>0.81</speed>
  <fix>3d</fix>
</trkpt>
<trkpt lat="33.8103099" lon="-118.3939895">
  <ele>-35.84</ele>
  <time>2026-09-02T22:11:47Z</time>
  <course>88.5</course>
  <speed>0.44011362169330775</speed>
  <fix>3d</fix>
</trkpt>
<trkpt lat="33.8103097" lon="-118.3939911">
  <ele>-35.01</ele>
  <time>2026-09-02T22:11:47Z</time>
  <course>90.21</course>
  <speed>0.81</speed>
  <fix>3d</fix>
</trkpt>
<trkpt lat="33.8103099" lon="-118.393989">
  <ele>-35.829</ele>
  <time>2026-09-02T22:11:47Z</time>
  <course>88.48</course>
  <speed>0.37</speed>
  <fix>3d</fix>
</trkpt>
<trkpt lat="33.8103097" lon="-118.3939896">
  <ele>-34.98</ele>
  <time>2026-09-02T22:11:47Z</time>
  <course>90.66</course>
  <speed>0.52</speed>
  <fix>3d</fix>
</trkpt>
<trkpt lat="33.8103099" lon="-118.3939887">
  <ele>-35.82</ele>
  <time>2026-09-02T22:11:47Z</time>
  <course>88.46</course>
  <speed>0.32</speed>
  <fix>3d</fix>
</trkpt>
<trkpt lat="33.8103097" lon="-118.3939896">
  <ele>-34.98</ele>
  <time>2026-09-02T22:11:47Z</time>
  <course>90.66</course>
  <speed>0.52</speed>
  <fix>3d</fix>
</trkpt>
<trkpt lat="33.8103099" lon="-118.3939883">
  <ele>-35.809</ele>
  <time>2026-09-02T22:11:47Z</time>
  <course>88.45</course>
  <speed>0.28</speed>
  <fix>3d</fix>
</trkpt>
<trkpt lat="33.8103097" lon="-118.3939887">
  <ele>-34.96</ele>
  <time>2026-09-02T22:11:47Z</time>
  <course>91.29</course>
  <speed>0.34</speed>
  <fix>3d</fix>
</trkpt>
<trkpt lat="33.8103099" lon="-118.393988">
  <ele>-35.799</ele>
  <time>2026-09-02T22:11:47Z</time>
  <course>88.43</course>
  <speed>0.26</speed>
  <fix>3d</fix>
</trkpt>
<trkpt lat="33.8103097" lon="-118.3939887">
  <ele>-34.96</ele>
  <time>2026-09-02T22:11:47Z</time>
  <course>91.29</course>
  <speed>0.34</speed>
  <fix>3d</fix>
</trkpt>
<trkpt lat="33.8103099" lon="-118.3939878">
  <ele>-35.789</ele>
  <time>2026-09-02T22:11:47Z</time>
  <course>88.41</course>
  <speed>0.23</speed>
  <fix>3d</fix>
</trkpt>
<trkpt lat="33.8103097" lon="-118.3939881">
  <ele>-34.94</ele>
  <time>2026-09-02T22:11:47Z</time>
  <course>91.9</course>
  <speed>0.26</speed>
  <fix>3d</fix>
</trkpt>
<trkpt lat="33.8103099" lon="-118.3939875">
  <ele>-35.779</ele>
  <time>2026-09-02T22:11:47Z</time>
  <course>88.39</course>
  <speed>0.22</speed>
  <fix>3d</fix>
</trkpt>
<trkpt lat="33.8103097" lon="-118.3939881">
  <ele>-34.94</ele>
  <time>2026-09-02T22:11:47Z</time>
  <course>91.9</course>
  <speed>0.26</speed>
  <fix>3d</fix>
</trkpt>
<trkpt lat="33.8103099" lon="-118.3939873">
  <ele>-35.768</ele>
  <time>2026-09-02T22:11:47Z</time>
  <course>88.38</course>
  <speed>0.2</speed>
  <fix>3d</fix>
</trkpt>
<trkpt lat="33.8103096" lon="-118.3939876">
  <ele>-34.92</ele>
  <time>2026-09-02T22:11:47Z</time>
  <course>92.51</course>
  <speed>0.21</speed>
  <fix>3d</fix>
</trkpt>
<trkpt lat="33.8103098" lon="-118.3939871">
  <ele>-35.756</ele>
  <time>2026-09-02T22:11:47Z</time>
  <course>88.36</course>
  <speed>0.19</speed>
  <fix>3d</fix>
</trkpt>
<trkpt lat="33.8103096" lon="-118.3939876">
  <ele>-34.92</ele>
  <time>2026-09-02T22:11:47Z</time>
  <course>92.51</course>
  <speed>0.21</speed>
  <fix>3d</fix>
</trkpt>
<trkpt lat="33.8103098" lon="-118.3939869">
  <ele>-35.745</ele>
  <time>2026-09-02T22:11:47Z</time>
  <course>88.34</course>
  <speed>0.18</speed>
  <fix>3d</fix>
</trkpt>
<trkpt lat="33.8103095" lon="-118.3939872">
  <ele>-34.9</ele>
  <time>2026-09-02T22:11:47Z</time>
  <course>93.09</course>
  <speed>0.17</speed>
  <fix>3d</fix>
</trkpt>
<trkpt lat="33.8103098" lon="-118.3939867">
  <ele>-35.733</ele>
  <time>2026-09-02T22:11:47Z</time>
  <course>88.32</course>
  <speed>0.17</speed>
  <fix>3d</fix>
</trkpt>
<trkpt lat="33.8103095" lon="-118.3939872">
  <ele>-34.9</ele>
  <time>2026-09-02T22:11:47Z</time>
  <course>93.09</course>
  <speed>0.17</speed>
  <fix>3d</fix>
</trkpt>
<trkpt lat="33.8103098" lon="-118.3939865">
  <ele>-35.721</ele>
  <time>2026-09-02T22:11:47Z</time>
  <course>88.3</course>
  <speed>0.16</speed>
  <fix>3d</fix>
</trkpt>
<trkpt lat="33.8103095" lon="-118.3939868">
  <ele>-34.87</ele>
  <time>2026-09-02T22:11:47Z</time>
  <course>93.66</course>
  <speed>0.15</speed>
  <fix>3d</fix>
</trkpt>
<trkpt lat="33.8103098" lon="-118.3939863">
  <ele>-35.71</ele>
  <time>2026-09-02T22:11:47Z</time>
  <course>88.29</course>
  <speed>0.15</speed>
  <fix>3d</fix>
</trkpt>
<trkpt lat="33.8103095" lon="-118.3939868">
  <ele>-34.87</ele>
  <time>2026-09-02T22:11:47Z</time>
  <course>93.66</course>
  <speed>0.15</speed>
  <fix>3d</fix>
</trkpt>
<trkpt lat="33.8103098" lon="-118.3939862">
  <ele>-35.698</ele>
  <time>2026-09-02T22:11:47Z</time>
  <course>88.27</course>
  <speed>0.15</speed>
  <fix>3d</fix>
</trkpt>
<trkpt lat="33.8103095" lon="-118.3939865">
  <ele>-34.86</ele>
  <time>2026-09-02T22:11:47Z</time>
  <course>94.21</course>
  <speed>0.13</speed>
  <fix>3d</fix>
</trkpt>
<trkpt lat="33.8103097" lon="-118.393986">
  <ele>-35.687</ele>
  <time>2026-09-02T22:11:47Z</time>
  <course>88.25</course>
  <speed>0.14</speed>
  <fix>3d</fix>
</trkpt>
<trkpt lat="33.8103095" lon="-118.3939865">
  <ele>-34.86</ele>
  <time>2026-09-02T22:11:47Z</time>
  <course>94.21</course>
  <speed>0.13</speed>
  <fix>3d</fix>
</trkpt>
<trkpt lat="33.8103097" lon="-118.3939859">
  <ele>-35.675</ele>
  <time>2026-09-02T22:11:47Z</time>
  <course>88.23</course>
  <speed>0.13</speed>
  <fix>3d</fix>
</trkpt>
<trkpt lat="33.8103095" lon="-118.3939862">
  <ele>-34.84</ele>
  <time>2026-09-02T22:11:47Z</time>
  <course>94.75</course>
  <speed>0.11</speed>
  <fix>3d</fix>
</trkpt>
<trkpt lat="33.8103097" lon="-118.3939858">
  <ele>-35.664</ele>
  <time>2026-09-02T22:11:47Z</time>
  <course>88.22</course>
  <speed>0.13</speed>
  <fix>3d</fix>
</trkpt>
<trkpt lat="33.8103095" lon="-118.3939862">
  <ele>-34.84</ele>
  <time>2026-09-02T22:11:47Z</time>
  <course>94.75</course>
  <speed>0.11</speed>
  <fix>3d</fix>
</trkpt>
<trkpt lat="33.8103097" lon="-118.3939857">
  <ele>-35.654</ele>
  <time>2026-09-02T22:11:47Z</time>
  <course>88.2</course>
  <speed>0.13</speed>
  <fix>3d</fix>
</trkpt>
<trkpt lat="33.8103095" lon="-118.3939859">
  <ele>-34.82</ele>
  <time>2026-09-02T22:11:47Z</time>
  <course>95.27</course>
  <speed>0.1</speed>
  <fix>3d</fix>
</trkpt>
<trkpt lat="33.8103097" lon="-118.3939855">
  <ele>-35.645</ele>
  <time>2026-09-02T22:11:47Z</time>
  <course>88.18</course>
  <speed>0.12</speed>
  <fix>3d</fix>
</trkpt>
<trkpt lat="33.8103095" lon="-118.3939859">
  <ele>-34.82</ele>
  <time>2026-09-02T22:11:47Z</time>
  <course>95.27</course>
  <speed>0.1</speed>
  <fix>3d</fix>
</trkpt>
<trkpt lat="33.8103097" lon="-118.3939854">
  <ele>-35.636</ele>
  <time>2026-09-02T22:11:47Z</time>
  <course>88.17</course>
  <speed>0.12</speed>
  <fix>3d</fix>
</trkpt>
<trkpt lat="33.8103095" lon="-118.3939858">
  <ele>-34.8</ele>
  <time>2026-09-02T22:11:47Z</time>
  <course>95.79</course>
  <speed>0.09</speed>
  <fix>3d</fix>
</trkpt>
<trkpt lat="33.8103097" lon="-118.3939853">
  <ele>-35.626</ele>
  <time>2026-09-02T22:11:47Z</time>
  <course>88.15</course>
  <speed>0.11</speed>
  <fix>3d</fix>
</trkpt>
<trkpt lat="33.8103095" lon="-118.3939858">
  <ele>-34.8</ele>
  <time>2026-09-02T22:11:47Z</time>
  <course>95.79</course>
  <speed>0.09</speed>
  <fix>3d</fix>
</trkpt>
<trkpt lat="33.8103097" lon="-118.3939852">
  <ele>-35.617</ele>
  <time>2026-09-02T22:11:47Z</time>
  <course>88.13</course>
  <speed>0.11</speed>
  <fix>3d</fix>
</trkpt>
<trkpt lat="33.8103094" lon="-118.3939856">
  <ele>-34.78</ele>
  <time>2026-09-02T22:11:47Z</time>
  <course>96.3</course>
  <speed>0.08</speed>
  <fix>3d</fix>
</trkpt>
<trkpt lat="33.8103096" lon="-118.3939851">
  <ele>-35.608</ele>
  <time>2026-09-02T22:11:47Z</time>
  <course>88.11</course>
  <speed>0.11</speed>
  <fix>3d</fix>
</trkpt>
<trkpt lat="33.8103094" lon="-118.3939856">
  <ele>-34.78</ele>
  <time>2026-09-02T22:11:47Z</time>
  <course>96.3</course>
  <speed>0.08</speed>
  <fix>3d</fix>
</trkpt>
<trkpt lat="33.8103096" lon="-118.393985">
  <ele>-35.6</ele>
  <time>2026-09-02T22:11:47Z</time>
  <course>88.1</course>
  <speed>0.1</speed>
  <fix>3d</fix>
</trkpt>
<trkpt lat="33.8103094" lon="-118.3939854">
  <ele>-34.76</ele>
  <time>2026-09-02T22:11:47Z</time>
  <course>96.79</course>
  <speed>0.08</speed>
  <fix>3d</fix>
</trkpt>
<trkpt lat="33.8103096" lon="-118.3939849">
  <ele>-35.592</ele>
  <time>2026-09-02T22:11:47Z</time>
  <course>88.08</course>
  <speed>0.1</speed>
  <fix>3d</fix>
</trkpt>
<trkpt lat="33.8103094" lon="-118.3939854">
  <ele>-34.76</ele>
  <time>2026-09-02T22:11:47Z</time>
  <course>96.79</course>
  <speed>0.08</speed>
  <fix>3d</fix>
</trkpt>
<trkpt lat="33.8103096" lon="-118.3939846">
  <ele>-35.559</ele>
  <time>2026-09-02T22:11:47Z</time>
  <course>88.02</course>
  <speed>0.09</speed>
  <fix>3d</fix>
</trkpt>
<trkpt lat="33.8103094" lon="-118.3939851">
  <ele>-34.72</ele>
  <time>2026-09-02T22:11:47Z</time>
  <course>97.71</course>
  <speed>0.07</speed>
  <fix>3d</fix>
</trkpt>
<trkpt lat="33.8103096" lon="-118.3939844">
  <ele>-35.533</ele>
  <time>2026-09-02T22:11:47Z</time>
  <course>87.97</course>
  <speed>0.08062257748298549</speed>
  <fix>3d</fix>
</trkpt>
<trkpt lat="33.8103094" lon="-118.3939848">
  <ele>-34.69</ele>
  <time>2026-09-02T22:11:47Z</time>
  <course>98.59</course>
  <speed>0.06</speed>
  <fix>3d</fix>
</trkpt>
<trkpt lat="33.8103096" lon="-118.3939844">
  <ele>-35.525</ele>
  <time>2026-09-02T22:11:47Z</time>
  <course>87.96</course>
  <speed>0.08062257748298549</speed>
  <fix>3d</fix>
</trkpt>
<trkpt lat="33.8103094" lon="-118.3939848">
  <ele>-34.69</ele>
  <time>2026-09-02T22:11:47Z</time>
  <course>98.59</course>
  <speed>0.06</speed>
  <fix>3d</fix>
</trkpt>
<trkpt lat="33.8103095" lon="-118.3939842">
  <ele>-35.508</ele>
  <time>2026-09-02T22:11:47Z</time>
  <course>87.93</course>
  <speed>0.08062257748298549</speed>
  <fix>3d</fix>
</trkpt>
<trkpt lat="33.8103094" lon="-118.3939846">
  <ele>-34.67</ele>
  <time>2026-09-02T22:11:47Z</time>
  <course>99.03</course>
  <speed>0.06</speed>
  <fix>3d</fix>
</trkpt>
<trkpt lat="33.8103095" lon="-118.3939842">
  <ele>-35.499</ele>
  <time>2026-09-02T22:11:47Z</time>
  <course>87.91</course>
  <speed>0.08062257748298549</speed>
  <fix>3d</fix>
</trkpt>
<trkpt lat="33.8103094" lon="-118.3939845">
  <ele>-34.65</ele>
  <time>2026-09-02T22:11:47Z</time>
  <course>99.46</course>
  <speed>0.05</speed>
  <fix>3d</fix>
</trkpt>
<trkpt lat="33.8103095" lon="-118.3939841">
  <ele>-35.489</ele>
  <time>2026-09-02T22:11:47Z</time>
  <course>87.9</course>
  <speed>0.07071067811865475</speed>
  <fix>3d</fix>
</trkpt>
<trkpt lat="33.8103094" lon="-118.3939845">
  <ele>-34.65</ele>
  <time>2026-09-02T22:11:47Z</time>
  <course>99.46</course>
  <speed>0.05</speed>
  <fix>3d</fix>
</trkpt>
<trkpt lat="33.8103095" lon="-118.3939841">
  <ele>-35.478</ele>
  <time>2026-09-02T22:11:47Z</time>
  <course>87.88</course>
  <speed>0.07071067811865475</speed>
  <fix>3d</fix>
</trkpt>
<trkpt lat="33.8103094" lon="-118.3939844">
  <ele>-34.62</ele>
  <time>2026-09-02T22:11:47Z</time>
  <course>99.87</course>
  <speed>0.05</speed>
  <fix>3d</fix>
</trkpt>
<trkpt lat="33.8103095" lon="-118.393984">
  <ele>-35.467</ele>
  <time>2026-09-02T22:11:47Z</time>
  <course>87.87</course>
  <speed>0.07071067811865475</speed>
  <fix>3d</fix>
</trkpt>
<trkpt lat="33.8103094" lon="-118.3939844">
  <ele>-34.62</ele>
  <time>2026-09-02T22:11:47Z</time>
  <course>99.87</course>
  <speed>0.05</speed>
  <fix>3d</fix>
</trkpt>
<trkpt lat="33.8103095" lon="-118.393984">
  <ele>-35.455</ele>
  <time>2026-09-02T22:11:47Z</time>
  <course>87.85</course>
  <speed>0.07071067811865475</speed>
  <fix>3d</fix>
</trkpt>
<trkpt lat="33.8103094" lon="-118.3939843">
  <ele>-34.61</ele>
  <time>2026-09-02T22:11:47Z</time>
  <course>100.25</course>
  <speed>0.05</speed>
  <fix>3d</fix>
</trkpt>
<trkpt lat="33.8103095" lon="-118.3939839">
  <ele>-35.443</ele>
  <time>2026-09-02T22:11:47Z</time>
  <course>87.84</course>
  <speed>0.07071067811865475</speed>
  <fix>3d</fix>
</trkpt>
<trkpt lat="33.8103094" lon="-118.3939843">
  <ele>-34.61</ele>
  <time>2026-09-02T22:11:47Z</time>
  <course>100.25</course>
  <speed>0.05</speed>
  <fix>3d</fix>
</trkpt>
<trkpt lat="33.8103095" lon="-118.3939839">
  <ele>-35.429</ele>
  <time>2026-09-02T22:11:47Z</time>
  <course>87.83</course>
  <speed>0.07071067811865475</speed>
  <fix>3d</fix>
</trkpt>
<trkpt lat="33.8103093" lon="-118.3939841">
  <ele>-34.59</ele>
  <time>2026-09-02T22:11:47Z</time>
  <course>100.62</course>
  <speed>0.05</speed>
  <fix>3d</fix>
</trkpt>
<trkpt lat="33.8103095" lon="-118.3939838">
  <ele>-35.417</ele>
  <time>2026-09-02T22:11:47Z</time>
  <course>87.81</course>
  <speed>0.07071067811865475</speed>
  <fix>3d</fix>
</trkpt>
<trkpt lat="33.8103093" lon="-118.3939841">
  <ele>-34.59</ele>
  <time>2026-09-02T22:11:47Z</time>
  <course>100.62</course>
  <speed>0.05</speed>
  <fix>3d</fix>
</trkpt>
<trkpt lat="33.8103095" lon="-118.3939838">
  <ele>-35.404</ele>
  <time>2026-09-02T22:11:47Z</time>
  <course>87.8</course>
  <speed>0.06082762530298219</speed>
  <fix>3d</fix>
</trkpt>
<trkpt lat="33.8103093" lon="-118.393984">
  <ele>-34.57</ele>
  <time>2026-09-02T22:11:47Z</time>
  <course>100.99</course>
  <speed>0.04</speed>
  <fix>3d</fix>
</trkpt>
<trkpt lat="33.8103095" lon="-118.3939837">
  <ele>-35.393</ele>
  <time>2026-09-02T22:11:47Z</time>
  <course>87.78</course>
  <speed>0.06082762530298219</speed>
  <fix>3d</fix>
</trkpt>
<trkpt lat="33.8103093" lon="-118.393984">
  <ele>-34.57</ele>
  <time>2026-09-02T22:11:47Z</time>
  <course>100.99</course>
  <speed>0.04</speed>
  <fix>3d</fix>
</trkpt>
<trkpt lat="33.8103095" lon="-118.3939837">
  <ele>-35.383</ele>
  <time>2026-09-02T22:11:47Z</time>
  <course>87.77</course>
  <speed>0.06082762530298219</speed>
  <fix>3d</fix>
</trkpt>
<trkpt lat="33.8103093" lon="-118.3939839">
  <ele>-34.55</ele>
  <time>2026-09-02T22:11:47Z</time>
  <course>101.36</course>
  <speed>0.04</speed>
  <fix>3d</fix>
</trkpt>
<trkpt lat="33.8103095" lon="-118.3939836">
  <ele>-35.373</ele>
  <time>2026-09-02T22:11:47Z</time>
  <course>87.76</course>
  <speed>0.06082762530298219</speed>
  <fix>3d</fix>
</trkpt>
<trkpt lat="33.8103095" lon="-118.3939836">
  <ele>-35.363</ele>
  <time>2026-09-02T22:11:47Z</time>
  <course>87.75</course>
  <speed>0.06082762530298219</speed>
  <fix>3d</fix>
</trkpt>
<trkpt lat="33.8103095" lon="-118.3939835">
  <ele>-35.353</ele>
  <time>2026-09-02T22:11:47Z</time>
  <course>87.73</course>
  <speed>0.06082762530298219</speed>
  <fix>3d</fix>
</trkpt>
<trkpt lat="33.8103095" lon="-118.3939834">
  <ele>-35.344</ele>
  <time>2026-09-02T22:11:47Z</time>
  <course>87.72</course>
  <speed>0.06082762530298219</speed>
  <fix>3d</fix>
</trkpt>
<trkpt lat="33.8103095" lon="-118.3939834">
  <ele>-35.334</ele>
  <time>2026-09-02T22:11:47Z</time>
  <course>87.71</course>
  <speed>0.0632455532033676</speed>
  <fix>3d</fix>
</trkpt>
<trkpt lat="33.8103095" lon="-118.3939833">
  <ele>-35.324</ele>
  <time>2026-09-02T22:11:47Z</time>
  <course>87.69</course>
  <speed>0.0632455532033676</speed>
  <fix>3d</fix>
</trkpt>
<trkpt lat="33.8103095" lon="-118.3939832">
  <ele>-35.314</ele>
  <time>2026-09-02T22:11:47Z</time>
  <course>87.68</course>
  <speed>0.0632455532033676</speed>
  <fix>3d</fix>
</trkpt>
<trkpt lat="33.8103095" lon="-118.3939832">
  <ele>-35.304</ele>
  <time>2026-09-02T22:11:47Z</time>
  <course>87.67</course>
  <speed>0.0632455532033676</speed>
  <fix>3d</fix>
</trkpt>
<trkpt lat="33.8103095" lon="-118.3939831">
  <ele>-35.295</ele>
  <time>2026-09-02T22:11:47Z</time>
  <course>87.65</course>
  <speed>0.0632455532033676</speed>
  <fix>3d</fix>
</trkpt>
<trkpt lat="33.8103096" lon="-118.393983">
  <ele>-35.286</ele>
  <time>2026-09-02T22:11:47Z</time>
  <course>87.64</course>
  <speed>0.0632455532033676</speed>
  <fix>3d</fix>
</trkpt>
<trkpt lat="33.8103096" lon="-118.3939829">
  <ele>-35.276</ele>
  <time>2026-09-02T22:11:47Z</time>
  <course>87.63</course>
  <speed>0.0670820393249937</speed>
  <fix>3d</fix>
</trkpt>
<trkpt lat="33.8103096" lon="-118.3939829">
  <ele>-35.266</ele>
  <time>2026-09-02T22:11:47Z</time>
  <course>87.62</course>
  <speed>0.0670820393249937</speed>
  <fix>3d</fix>
</trkpt>
<trkpt lat="47.607584" lon="-122.343911">
  <ele>-0.078</ele>
  <time>2026-09-02T22:11:48Z</time>
  <course>174.53</course>
  <speed>0.0</speed>
  <fix>3d</fix>
</trkpt>
<trkpt lat="47.607584" lon="-122.343911">
  <ele>-0.062</ele>
  <time>2026-09-02T22:11:48Z</time>
  <course>176.11</course>
  <speed>0.0</speed>
  <fix>3d</fix>
</trkpt>
<trkpt lat="47.607584" lon="-122.343911">
  <ele>-0.051</ele>
  <time>2026-09-02T22:11:48Z</time>
  <course>177.43</course>
  <speed>0.0</speed>
  <fix>3d</fix>
</trkpt>
<trkpt lat="47.607584" lon="-122.343911">
  <ele>-0.046</ele>
  <time>2026-09-02T22:11:48Z</time>
  <course>178.44</course>
  <speed>0.0</speed>
  <fix>3d</fix>
</trkpt>
<trkpt lat="47.607584" lon="-122.343911">
  <ele>-0.047</ele>
  <time>2026-09-02T22:11:48Z</time>
  <course>179.28</course>
  <speed>0.0</speed>
  <fix>3d</fix>
</trkpt>
<trkpt lat="47.607584" lon="-122.343911">
  <ele>-0.054</ele>
  <time>2026-09-02T22:11:48Z</time>
  <course>180.03</course>
  <speed>0.0</speed>
  <fix>3d</fix>
</trkpt>
<trkpt lat="47.607584" lon="-122.343911">
  <ele>-0.064</ele>
  <time>2026-09-02T22:11:48Z</time>
  <course>180.68</course>
  <speed>0.0</speed>
  <fix>3d</fix>
</trkpt>
<trkpt lat="47.607584" lon="-122.343911">
  <ele>-0.073</ele>
  <time>2026-09-02T22:11:48Z</time>
  <course>181.26</course>
  <speed>0.0</speed>
  <fix>3d</fix>
</trkpt>
<trkpt lat="47.607584" lon="-122.343911">
  <ele>-0.081</ele>
  <time>2026-09-02T22:11:48Z</time>
  <course>181.78</course>
  <speed>0.0</speed>
  <fix>3d</fix>
</trkpt>
<trkpt lat="47.607584" lon="-122.343911">
  <ele>-0.089</ele>
  <time>2026-09-02T22:11:48Z</time>
  <course>182.25</course>
  <speed>0.0</speed>
  <fix>3d</fix>
</trkpt>
<trkpt lat="47.607584" lon="-122.343911">
  <ele>-0.095</ele>
  <time>2026-09-02T22:11:48Z</time>
  <course>182.68</course>
  <speed>0.0</speed>
  <fix>3d</fix>
</trkpt>
<trkpt lat="47.607584" lon="-122.343911">
  <ele>-0.098</ele>
  <time>2026-09-02T22:11:48Z</time>
  <course>183.08</course>
  <speed>0.0</speed>
  <fix>3d</fix>
</trkpt>
<trkpt lat="47.607584" lon="-122.343911">
  <ele>-0.099</ele>
  <time>2026-09-02T22:11:48Z</time>
  <course>183.44</course>
  <speed>0.0</speed>
  <fix>3d</fix>
</trkpt>
<trkpt lat="47.607584" lon="-122.343911">
  <ele>-0.1</ele>
  <time>2026-09-02T22:11:48Z</time>
  <course>183.79</course>
  <speed>0.0</speed>
  <fix>3d</fix>
</trkpt>
<trkpt lat="47.607584" lon="-122.343911">
  <ele>-0.103</ele>
  <time>2026-09-02T22:11:48Z</time>
  <course>184.11</course>
  <speed>0.0</speed>
  <fix>3d</fix>
</trkpt>
<trkpt lat="47.607584" lon="-122.343911">
  <ele>-0.105</ele>
  <time>2026-09-02T22:11:48Z</time>
  <course>184.41</course>
  <speed>0.0</speed>
  <fix>3d</fix>
</trkpt>
<trkpt lat="47.607584" lon="-122.343911">
  <ele>-0.106</ele>
  <time>2026-09-02T22:11:48Z</time>
  <course>184.7</course>
  <speed>0.0</speed>
  <fix>3d</fix>
</trkpt>
<trkpt lat="47.607584" lon="-122.343911">
  <ele>-0.105</ele>
  <time>2026-09-02T22:11:48Z</time>
  <course>184.98</course>
  <speed>0.0</speed>
  <fix>3d</fix>
</trkpt>
<trkpt lat="47.607584" lon="-122.343911">
  <ele>-0.103</ele>
  <time>2026-09-02T22:11:48Z</time>
  <course>185.24</course>
  <speed>0.0</speed>
  <fix>3d</fix>
</trkpt>
<trkpt lat="47.607584" lon="-122.343911">
  <ele>-0.1</ele>
  <time>2026-09-02T22:11:48Z</time>
  <course>185.49</course>
  <speed>0.0</speed>
  <fix>3d</fix>
</trkpt>
<trkpt lat="47.607584" lon="-122.343911">
  <ele>-0.098</ele>
  <time>2026-09-02T22:11:48Z</time>
  <course>185.73</course>
  <speed>0.0</speed>
  <fix>3d</fix>
</trkpt>
<trkpt lat="47.607584" lon="-122.343911">
  <ele>-0.095</ele>
  <time>2026-09-02T22:11:48Z</time>
  <course>185.96</course>
  <speed>0.0</speed>
  <fix>3d</fix>
</trkpt>
<trkpt lat="47.607584" lon="-122.343911">
  <ele>-0.093</ele>
  <time>2026-09-02T22:11:48Z</time>
  <course>186.18</course>
  <speed>0.0</speed>
  <fix>3d</fix>
</trkpt>
<trkpt lat="47.607584" lon="-122.343911">
  <ele>-0.089</ele>
  <time>2026-09-02T22:11:48Z</time>
  <course>186.39</course>
  <speed>0.0</speed>
  <fix>3d</fix>
</trkpt>
<trkpt lat="47.607584" lon="-122.343911">
  <ele>-0.085</ele>
  <time>2026-09-02T22:11:48Z</time>
  <course>186.59</course>
  <speed>0.0</speed>
  <fix>3d</fix>
</trkpt>
<trkpt lat="47.607584" lon="-122.343911">
  <ele>-0.08</ele>
  <time>2026-09-02T22:11:48Z</time>
  <course>186.79</course>
  <speed>0.0</speed>
  <fix>3d</fix>
</trkpt>
<trkpt lat="47.607584" lon="-122.343911">
  <ele>-0.077</ele>
  <time>2026-09-02T22:11:48Z</time>
  <course>186.98</course>
  <speed>0.0</speed>
  <fix>3d</fix>
</trkpt>
<trkpt lat="47.607584" lon="-122.343911">
  <ele>-0.072</ele>
  <time>2026-09-02T22:11:48Z</time>
  <course>187.16</course>
  <speed>0.0</speed>
  <fix>3d</fix>
</trkpt>
<trkpt lat="47.607584" lon="-122.343911">
  <ele>-0.066</ele>
  <time>2026-09-02T22:11:48Z</time>
  <course>187.34</course>
  <speed>0.0</speed>
  <fix>3d</fix>
</trkpt>
<trkpt lat="47.607584" lon="-122.343911">
  <ele>-0.06</ele>
  <time>2026-09-02T22:11:48Z</time>
  <course>187.5</course>
  <speed>0.0</speed>
  <fix>3d</fix>
</trkpt>
<trkpt lat="47.607584" lon="-122.343911">
  <ele>-0.055</ele>
  <time>2026-09-02T22:11:48Z</time>
  <course>187.67</course>
  <speed>0.0</speed>
  <fix>3d</fix>
</trkpt>
<trkpt lat="47.607584" lon="-122.343911">
  <ele>-0.051</ele>
  <time>2026-09-02T22:11:48Z</time>
  <course>187.82</course>
  <speed>0.0</speed>
  <fix>3d</fix>
</trkpt>
<trkpt lat="47.607584" lon="-122.343911">
  <ele>-0.052</ele>
  <time>2026-09-02T22:11:48Z</time>
  <course>187.97</course>
  <speed>0.0</speed>
  <fix>3d</fix>
</trkpt>
<trkpt lat="47.607584" lon="-122.343911">
  <ele>-0.057</ele>
  <time>2026-09-02T22:11:48Z</time>
  <course>188.11</course>
  <speed>0.0</speed>
  <fix>3d</fix>
</trkpt>
<trkpt lat="47.607584" lon="-122.343911">
  <ele>-0.064</ele>
  <time>2026-09-02T22:11:48Z</time>
  <course>188.25</course>
  <speed>0.0</speed>
  <fix>3d</fix>
</trkpt>
<trkpt lat="47.607584" lon="-122.343911">
  <ele>-0.071</ele>
  <time>2026-09-02T22:11:48Z</time>
  <course>188.38</course>
  <speed>0.0</speed>
  <fix>3d</fix>
</trkpt>
<trkpt lat="47.607584" lon="-122.343911">
  <ele>-0.077</ele>
  <time>2026-09-02T22:11:48Z</time>
  <course>188.51</course>
  <speed>0.0</speed>
  <fix>3d</fix>
</trkpt>
<trkpt lat="47.607584" lon="-122.343911">
  <ele>-0.082</ele>
  <time>2026-09-02T22:11:48Z</time>
  <course>188.63</course>
  <speed>0.0</speed>
  <fix>3d</fix>
</trkpt>
<trkpt lat="47.607584" lon="-122.343911">
  <ele>-0.088</ele>
  <time>2026-09-02T22:11:48Z</time>
  <course>188.74</course>
  <speed>0.0</speed>
  <fix>3d</fix>
</trkpt>
<trkpt lat="47.607584" lon="-122.343911">
  <ele>-0.092</ele>
  <time>2026-09-02T22:11:48Z</time>
  <course>188.85</course>
  <speed>0.0</speed>
  <fix>3d</fix>
</trkpt>
<trkpt lat="47.607584" lon="-122.343911">
  <ele>-0.096</ele>
  <time>2026-09-02T22:11:48Z</time>
  <course>188.96</course>
  <speed>0.0</speed>
  <fix>3d</fix>
</trkpt>
<trkpt lat="47.607584" lon="-122.343911">
  <ele>-0.098</ele>
  <time>2026-09-02T22:11:48Z</time>
  <course>189.06</course>
  <speed>0.0</speed>
  <fix>3d</fix>
</trkpt>
<trkpt lat="47.607584" lon="-122.343911">
  <ele>-0.098</ele>
  <time>2026-09-02T22:11:48Z</time>
  <course>189.15</course>
  <speed>0.0</speed>
  <fix>3d</fix>
</trkpt>
<trkpt lat="47.607584" lon="-122.343911">
  <ele>-0.097</ele>
  <time>2026-09-02T22:11:48Z</time>
  <course>189.24</course>
  <speed>0.0</speed>
  <fix>3d</fix>
</trkpt>
<trkpt lat="47.607584" lon="-122.343911">
  <ele>-0.095</ele>
  <time>2026-09-02T22:11:48Z</time>
  <course>189.33</course>
  <speed>0.0</speed>
  <fix>3d</fix>
</trkpt>
<trkpt lat="47.607584" lon="-122.343911">
  <ele>-0.092</ele>
  <time>2026-09-02T22:11:48Z</time>
  <course>189.41</course>
  <speed>0.0</speed>
  <fix>3d</fix>
</trkpt>
<trkpt lat="47.607584" lon="-122.343911">
  <ele>-0.088</ele>
  <time>2026-09-02T22:11:48Z</time>
  <course>189.48</course>
  <speed>0.0</speed>
  <fix>3d</fix>
</trkpt>
<trkpt lat="47.607584" lon="-122.343911">
  <ele>-0.085</ele>
  <time>2026-09-02T22:11:48Z</time>
  <course>189.56</course>
  <speed>0.0</speed>
  <fix>3d</fix>
</trkpt>
<trkpt lat="47.607584" lon="-122.343911">
  <ele>-0.082</ele>
  <time>2026-09-02T22:11:48Z</time>
  <course>189.63</course>
  <speed>0.0</speed>
  <fix>3d</fix>
</trkpt>
<trkpt lat="47.607584" lon="-122.343911">
  <ele>-0.08</ele>
  <time>2026-09-02T22:11:48Z</time>
  <course>189.69</course>
  <speed>0.0</speed>
  <fix>3d</fix>
</trkpt>
<trkpt lat="47.607584" lon="-122.343911">
  <ele>-0.078</ele>
  <time>2026-09-02T22:11:48Z</time>
  <course>189.75</course>
  <speed>0.0</speed>
  <fix>3d</fix>
</trkpt>
<trkpt lat="47.607584" lon="-122.343911">
  <ele>-0.075</ele>
  <time>2026-09-02T22:11:48Z</time>
  <course>189.81</course>
  <speed>0.0</speed>
  <fix>3d</fix>
</trkpt>
<trkpt lat="47.607584" lon="-122.343911">
  <ele>-0.072</ele>
  <time>2026-09-02T22:11:48Z</time>
  <course>189.86</course>
  <speed>0.0</speed>
  <fix>3d</fix>
</trkpt>
<trkpt lat="47.607584" lon="-122.343911">
  <ele>-0.069</ele>
  <time>2026-09-02T22:11:48Z</time>
  <course>189.91</course>
  <speed>0.0</speed>
  <fix>3d</fix>
</trkpt>
<trkpt lat="47.607584" lon="-122.343911">
  <ele>-0.068</ele>
  <time>2026-09-02T22:11:48Z</time>
  <course>189.96</course>
  <speed>0.0</speed>
  <fix>3d</fix>
</trkpt>
<trkpt lat="47.607584" lon="-122.343911">
  <ele>-0.07</ele>
  <time>2026-09-02T22:11:48Z</time>
  <course>190.0</course>
  <speed>0.0</speed>
  <fix>3d</fix>
</trkpt>
<trkpt lat="47.607584" lon="-122.343911">
  <ele>-0.073</ele>
  <time>2026-09-02T22:11:48Z</time>
  <course>190.04</course>
  <speed>0.0</speed>
  <fix>3d</fix>
</trkpt>
<trkpt lat="47.607584" lon="-122.343911">
  <ele>-0.078</ele>
  <time>2026-09-02T22:11:48Z</time>
  <course>190.08</course>
  <speed>0.0</speed>
  <fix>3d</fix>
</trkpt>
<trkpt lat="47.607584" lon="-122.343911">
  <ele>-0.084</ele>
  <time>2026-09-02T22:11:48Z</time>
  <course>190.12</course>
  <speed>0.0</speed>
  <fix>3d</fix>
</trkpt>
<trkpt lat="47.607584" lon="-122.343911">
  <ele>-0.088</ele>
  <time>2026-09-02T22:11:48Z</time>
  <course>190.15</course>
  <speed>0.0</speed>
  <fix>3d</fix>
</trkpt>
<trkpt lat="47.607584" lon="-122.343911">
  <ele>-0.091</ele>
  <time>2026-09-02T22:11:48Z</time>
  <course>190.18</course>
  <speed>0.0</speed>
  <fix>3d</fix>
</trkpt>
<trkpt lat="47.607584" lon="-122.343911">
  <ele>-0.093</ele>
  <time>2026-09-02T22:11:48Z</time>
  <course>190.21</course>
  <speed>0.0</speed>
  <fix>3d</fix>
</trkpt>
<trkpt lat="47.607584" lon="-122.343911">
  <ele>-0.094</ele>
  <time>2026-09-02T22:11:48Z</time>
  <course>190.24</course>
  <speed>0.0</speed>
  <fix>3d</fix>
</trkpt>
<trkpt lat="47.607584" lon="-122.343911">
  <ele>-0.095</ele>
  <time>2026-09-02T22:11:48Z</time>
  <course>190.26</course>
  <speed>0.0</speed>
  <fix>3d</fix>
</trkpt>
<trkpt lat="47.607584" lon="-122.343911">
  <ele>-0.095</ele>
  <time>2026-09-02T22:11:48Z</time>
  <course>190.28</course>
  <speed>0.0</speed>
  <fix>3d</fix>
</trkpt>
<trkpt lat="47.607584" lon="-122.343911">
  <ele>-0.095</ele>
  <time>2026-09-02T22:11:48Z</time>
  <course>190.3</course>
  <speed>0.0</speed>
  <fix>3d</fix>
</trkpt>
<trkpt lat="47.607584" lon="-122.343911">
  <ele>-0.095</ele>
  <time>2026-09-02T22:11:48Z</time>
  <course>190.32</course>
  <speed>0.0</speed>
  <fix>3d</fix>
</trkpt>
<trkpt lat="47.607584" lon="-122.343911">
  <ele>-0.096</ele>
  <time>2026-09-02T22:11:48Z</time>
  <course>190.34</course>
  <speed>0.0</speed>
  <fix>3d</fix>
</trkpt>
<trkpt lat="47.607584" lon="-122.343911">
  <ele>-0.096</ele>
  <time>2026-09-02T22:11:48Z</time>
  <course>190.36</course>
  <speed>0.0</speed>
  <fix>3d</fix>
</trkpt>
<trkpt lat="47.607584" lon="-122.343911">
  <ele>-0.094</ele>
  <time>2026-09-02T22:11:48Z</time>
  <course>190.37</course>
  <speed>0.0</speed>
  <fix>3d</fix>
</trkpt>
<trkpt lat="47.607584" lon="-122.343911">
  <ele>-0.091</ele>
  <time>2026-09-02T22:11:48Z</time>
  <course>190.38</course>
  <speed>0.0</speed>
  <fix>3d</fix>
</trkpt>
<trkpt lat="47.607584" lon="-122.343911">
  <ele>-0.088</ele>
  <time>2026-09-02T22:11:48Z</time>
  <course>190.4</course>
  <speed>0.0</speed>
  <fix>3d</fix>
</trkpt>
<trkpt lat="47.6075872" lon="-122.3439104">
  <ele>-0.091</ele>
  <time>2026-09-02T22:11:48Z</time>
  <course>173.68</course>
  <speed>0.0</speed>
  <fix>3d</fix>
</trkpt>
<trkpt lat="47.6075872" lon="-122.3439104">
  <ele>-0.089</ele>
  <time>2026-09-02T22:11:48Z</time>
  <course>174.22</course>
  <speed>0.0</speed>
  <fix>3d</fix>
</trkpt>
<trkpt lat="47.6075872" lon="-122.3439104">
  <ele>-0.087</ele>
  <time>2026-09-02T22:11:48Z</time>
  <course>174.94</course>
  <speed>0.0</speed>
  <fix>3d</fix>
</trkpt>
<trkpt lat="47.6075872" lon="-122.3439104">
  <ele>-0.083</ele>
  <time>2026-09-02T22:11:48Z</time>
  <course>175.68</course>
  <speed>0.0</speed>
  <fix>3d</fix>
</trkpt>
<trkpt lat="47.6075872" lon="-122.3439104">
  <ele>-0.079</ele>
  <time>2026-09-02T22:11:48Z</time>
  <course>176.39</course>
  <speed>0.0</speed>
  <fix>3d</fix>
</trkpt>
<trkpt lat="47.6075872" lon="-122.3439104">
  <ele>-0.074</ele>
  <time>2026-09-02T22:11:48Z</time>
  <course>177.05</course>
  <speed>0.0</speed>
  <fix>3d</fix>
</trkpt>
<trkpt lat="47.6075872" lon="-122.3439104">
  <ele>-0.07</ele>
  <time>2026-09-02T22:11:48Z</time>
  <course>177.69</course>
  <speed>0.0</speed>
  <fix>3d</fix>
</trkpt>
<trkpt lat="47.6075872" lon="-122.3439104">
  <ele>-0.066</ele>
  <time>2026-09-02T22:11:48Z</time>
  <course>178.3</course>
  <speed>0.0</speed>
  <fix>3d</fix>
</trkpt>
<trkpt lat="47.6075872" lon="-122.3439104">
  <ele>-0.061</ele>
  <time>2026-09-02T22:11:48Z</time>
  <course>178.89</course>
  <speed>0.0</speed>
  <fix>3d</fix>
</trkpt>
<trkpt lat="47.6075872" lon="-122.3439104">
  <ele>-0.056</ele>
  <time>2026-09-02T22:11:48Z</time>
  <course>179.47</course>
  <speed>0.0</speed>
  <fix>3d</fix>
</trkpt>
<trkpt lat="47.6075872" lon="-122.3439104">
  <ele>-0.053</ele>
  <time>2026-09-02T22:11:48Z</time>
  <course>180.04</course>
  <speed>0.0</speed>
  <fix>3d</fix>
</trkpt>
<trkpt lat="47.6075872" lon="-122.3439104">
  <ele>-0.052</ele>
  <time>2026-09-02T22:11:48Z</time>
  <course>180.59</course>
  <speed>0.0</speed>
  <fix>3d</fix>
</trkpt>
<trkpt lat="47.6075872" lon="-122.3439104">
  <ele>-0.257</ele>
  <time>2026-09-02T22:11:48Z</time>
  <course>0.0</course>
  <speed>0.0</speed>
  <fix>3d</fix>
</trkpt>
<trkpt lat="47.6075872" lon="-122.3439104">
  <ele>-0.243</ele>
  <time>2026-09-02T22:11:49Z</time>
  <course>0.0</course>
  <speed>0.0</speed>
  <fix>3d</fix>
</trkpt>
<trkpt lat="47.6075872" lon="-122.3439104">
  <ele>-0.204</ele>
  <time>2026-09-02T22:11:49Z</time>
  <course>0.0</course>
  <speed>0.0</speed>
  <fix>3d</fix>
</trkpt>
<trkpt lat="47.6075872" lon="-122.3439104">
  <ele>-0.175</ele>
  <time>2026-09-02T22:11:49Z</time>
  <course>0.0</course>
  <speed>0.0</speed>
  <fix>3d</fix>
</trkpt>
<trkpt lat="47.6075872" lon="-122.3439104">
  <ele>-0.159</ele>
  <time>2026-09-02T22:11:49Z</time>
  <course>0.0</course>
  <speed>0.0</speed>
  <fix>3d</fix>
</trkpt>
<trkpt lat="47.6075872" lon="-122.3439104">
  <ele>-0.152</ele>
  <time>2026-09-02T22:11:49Z</time>
  <course>0.01</course>
  <speed>0.0</speed>
  <fix>3d</fix>
</trkpt>
<trkpt lat="47.6075872" lon="-122.3439104">
  <ele>-0.19</ele>
  <time>2026-09-02T22:11:49Z</time>
  <course>188.68</course>
  <speed>0.0</speed>
  <fix>3d</fix>
</trkpt>
<trkpt lat="47.6075872" lon="-122.3439104">
  <ele>-0.173</ele>
  <time>2026-09-02T22:11:49Z</time>
  <course>188.68</course>
  <speed>0.0</speed>
  <fix>3d</fix>
</trkpt>
<trkpt lat="47.6075872" lon="-122.3439104">
  <ele>-0.155</ele>
  <time>2026-09-02T22:11:49Z</time>
  <course>188.68</course>
  <speed>0.0</speed>
  <fix>3d</fix>
</trkpt>
<trkpt lat="47.6075872" lon="-122.3439104">
  <ele>-0.14</ele>
  <time>2026-09-02T22:11:49Z</time>
  <course>188.68</course>
  <speed>0.0</speed>
  <fix>3d</fix>
</trkpt>
<trkpt lat="47.6075872" lon="-122.3439104">
  <ele>-0.124</ele>
  <time>2026-09-02T22:11:49Z</time>
  <course>188.68</course>
  <speed>0.0</speed>
  <fix>3d</fix>
</trkpt>
<trkpt lat="47.6075872" lon="-122.3439104">
  <ele>-0.108</ele>
  <time>2026-09-02T22:11:49Z</time>
  <course>188.68</course>
  <speed>0.0</speed>
  <fix>3d</fix>
</trkpt>
<trkpt lat="47.6075872" lon="-122.3439104">
  <ele>-0.093</ele>
  <time>2026-09-02T22:11:49Z</time>
  <course>188.68</course>
  <speed>0.0</speed>
  <fix>3d</fix>
</trkpt>
<trkpt lat="47.6075872" lon="-122.3439104">
  <ele>-0.078</ele>
  <time>2026-09-02T22:11:49Z</time>
  <course>188.68</course>
  <speed>0.0</speed>
  <fix>3d</fix>
</trkpt>
<trkpt lat="47.6075872" lon="-122.3439104">
  <ele>-0.062</ele>
  <time>2026-09-02T22:11:49Z</time>
  <course>188.68</course>
  <speed>0.0</speed>
  <fix>3d</fix>
</trkpt>
<trkpt lat="47.6075872" lon="-122.3439104">
  <ele>-0.051</ele>
  <time>2026-09-02T22:11:49Z</time>
  <course>188.68</course>
  <speed>0.0</speed>
  <fix>3d</fix>
</trkpt>
<trkpt lat="47.6075872" lon="-122.3439104">
  <ele>-0.046</ele>
  <time>2026-09-02T22:11:49Z</time>
  <course>188.68</course>
  <speed>0.0</speed>
  <fix>3d</fix>
</trkpt>
<trkpt lat="47.6075872" lon="-122.3439104">
  <ele>-0.047</ele>
  <time>2026-09-02T22:11:49Z</time>
  <course>188.68</course>
  <speed>0.0</speed>
  <fix>3d</fix>
</trkpt>
<trkpt lat="47.6075872" lon="-122.3439104">
  <ele>-0.054</ele>
  <time>2026-09-02T22:11:49Z</time>
  <course>188.68</course>
  <speed>0.0</speed>
  <fix>3d</fix>
</trkpt>
<trkpt lat="47.6075872" lon="-122.3439104">
  <ele>-0.064</ele>
  <time>2026-09-02T22:11:49Z</time>
  <course>188.68</course>
  <speed>0.0</speed>
  <fix>3d</fix>
</trkpt>
<trkpt lat="47.6075872" lon="-122.3439104">
  <ele>-0.073</ele>
  <time>2026-09-02T22:11:49Z</time>
  <course>188.68</course>
  <speed>0.0</speed>
  <fix>3d</fix>
</trkpt>
<trkpt lat="47.6075872" lon="-122.3439104">
  <ele>-0.081</ele>
  <time>2026-09-02T22:11:49Z</time>
  <course>188.68</course>
  <speed>0.0</speed>
  <fix>3d</fix>
</trkpt>
<trkpt lat="47.6075872" lon="-122.3439104">
  <ele>-0.089</ele>
  <time>2026-09-02T22:11:49Z</time>
  <course>188.68</course>
  <speed>0.0</speed>
  <fix>3d</fix>
</trkpt>
<trkpt lat="47.6075872" lon="-122.3439104">
  <ele>-0.095</ele>
  <time>2026-09-02T22:11:49Z</time>
  <course>188.68</course>
  <speed>0.0</speed>
  <fix>3d</fix>
</trkpt>
<trkpt lat="47.6075872" lon="-122.3439104">
  <ele>-0.098</ele>
  <time>2026-09-02T22:11:49Z</time>
  <course>188.68</course>
  <speed>0.0</speed>
  <fix>3d</fix>
</trkpt>
<trkpt lat="33.4368002" lon="-117.0859339">
  <ele>-0.11</ele>
  <time>2026-09-02T22:11:49Z</time>
  <course>0.0</course>
  <speed>0.0</speed>
  <fix>3d</fix>
</trkpt>
<trkpt lat="33.4368002" lon="-117.0859339">
  <ele>-0.11</ele>
  <time>2026-09-02T22:11:49Z</time>
  <course>0.0</course>
  <speed>0.0</speed>
  <fix>3d</fix>
</trkpt>
<trkpt lat="33.810313" lon="-118.393867">
  <ele>0.0</ele>
  <time>2026-09-02T22:11:49Z</time>
  <course>173.5</course>
  <speed>0.0</speed>
  <fix>3d</fix>
</trkpt>
<trkpt lat="33.810313" lon="-118.393867">
  <ele>-0.11</ele>
  <time>2026-09-02T22:11:49Z</time>
  <course>0.0</course>
  <speed>0.0</speed>
  <fix>3d</fix>
</trkpt>
<trkpt lat="33.4368002" lon="-117.0859339">
  <ele>-0.11</ele>
  <time>2026-09-02T22:11:50Z</time>
  <course>0.0</course>
  <speed>0.0</speed>
  <fix>3d</fix>
</trkpt>
<trkpt lat="33.4368002" lon="-117.0859339">
  <ele>-0.11</ele>
  <time>2026-09-02T22:11:50Z</time>
  <course>0.0</course>
  <speed>0.0</speed>
  <fix>3d</fix>
</trkpt>
<trkpt lat="33.810313" lon="-118.393867">
  <ele>0.0</ele>
  <time>2026-09-02T22:11:50Z</time>
  <course>173.5</course>
  <speed>0.0</speed>
  <fix>3d</fix>
</trkpt>
<trkpt lat="33.810313" lon="-118.393867">
  <ele>-0.11</ele>
  <time>2026-09-02T22:11:50Z</time>
  <course>0.0</course>
  <speed>0.0</speed>
  <fix>3d</fix>
</trkpt>
<trkpt lat="33.810313" lon="-118.393867">
  <ele>0.0</ele>
  <time>2026-09-02T22:11:50Z</time>
  <course>173.61</course>
  <speed>0.0</speed>
  <fix>3d</fix>
</trkpt>
<trkpt lat="33.810313" lon="-118.393867">
  <ele>-0.11</ele>
  <time>2026-09-02T22:11:50Z</time>
  <course>0.0</course>
  <speed>0.0</speed>
  <fix>3d</fix>
</trkpt>
<trkpt lat="33.810313" lon="-118.393867">
  <ele>0.0</ele>
  <time>2026-09-02T22:11:50Z</time>
  <course>173.98</course>
  <speed>0.0</speed>
  <fix>3d</fix>
</trkpt>
<trkpt lat="33.810313" lon="-118.393867">
  <ele>-0.11</ele>
  <time>2026-09-02T22:11:50Z</time>
  <course>0.0</course>
  <speed>0.0</speed>
  <fix>3d</fix>
</trkpt>
<trkpt lat="33.810313" lon="-118.393867">
  <ele>0.0</ele>
  <time>2026-09-02T22:11:50Z</time>
  <course>174.51</course>
  <speed>0.0</speed>
  <fix>3d</fix>
</trkpt>
<trkpt lat="33.810313" lon="-118.393867">
  <ele>-0.11</ele>
  <time>2026-09-02T22:11:50Z</time>
  <course>0.0</course>
  <speed>0.0</speed>
  <fix>3d</fix>
</trkpt>
<trkpt lat="33.810313" lon="-118.393867">
  <ele>0.0</ele>
  <time>2026-09-02T22:11:50Z</time>
  <course>175.07</course>
  <speed>0.0</speed>
  <fix>3d</fix>
</trkpt>
<trkpt lat="33.810313" lon="-118.393867">
  <ele>-0.12</ele>
  <time>2026-09-02T22:11:50Z</time>
  <course>0.0</course>
  <speed>0.0</speed>
  <fix>3d</fix>
</trkpt>
<trkpt lat="33.810313" lon="-118.393867">
  <ele>0.0</ele>
  <time>2026-09-02T22:11:50Z</time>
  <course>175.61</course>
  <speed>0.0</speed>
  <fix>3d</fix>
</trkpt>
<trkpt lat="33.810313" lon="-118.393867">
  <ele>-0.12</ele>
  <time>2026-09-02T22:11:50Z</time>
  <course>0.0</course>
  <speed>0.0</speed>
  <fix>3d</fix>
</trkpt>
<trkpt lat="33.810313" lon="-118.393867">
  <ele>0.0</ele>
  <time>2026-09-02T22:11:50Z</time>
  <course>176.12</course>
  <speed>0.0</speed>
  <fix>3d</fix>
</trkpt>
<trkpt lat="33.810313" lon="-118.393867">
  <ele>-0.13</ele>
  <time>2026-09-02T22:11:50Z</time>
  <course>0.0</course>
  <speed>0.0</speed>
  <fix>3d</fix>
</trkpt>
<trkpt lat="33.810313" lon="-118.393867">
  <ele>0.0</ele>
  <time>2026-09-02T22:11:50Z</time>
  <course>176.6</course>
  <speed>0.0</speed>
  <fix>3d</fix>
</trkpt>
<trkpt lat="33.810313" lon="-118.393867">
  <ele>-0.13</ele>
  <time>2026-09-02T22:11:50Z</time>
  <course>0.0</course>
  <speed>0.0</speed>
  <fix>3d</fix>
</trkpt>
<trkpt lat="33.810313" lon="-118.393867">
  <ele>0.0</ele>
  <time>2026-09-02T22:11:50Z</time>
  <course>177.07</course>
  <speed>0.0</speed>
  <fix>3d</fix>
</trkpt>
<trkpt lat="33.810313" lon="-118.393867">
  <ele>-0.13</ele>
  <time>2026-09-02T22:11:50Z</time>
  <course>0.0</course>
  <speed>0.0</speed>
  <fix>3d</fix>
</trkpt>
<trkpt lat="33.810313" lon="-118.393867">
  <ele>0.0</ele>
  <time>2026-09-02T22:11:50Z</time>
  <course>177.53</course>
  <speed>0.0</speed>
  <fix>3d</fix>
</trkpt>
<trkpt lat="33.810313" lon="-118.393867">
  <ele>-0.13</ele>
  <time>2026-09-02T22:11:50Z</time>
  <course>0.0</course>
  <speed>0.0</speed>
  <fix>3d</fix>
</trkpt>
<trkpt lat="33.810313" lon="-118.393867">
  <ele>0.0</ele>
  <time>2026-09-02T22:11:50Z</time>
  <course>177.97</course>
  <speed>0.0</speed>
  <fix>3d</fix>
</trkpt>
<trkpt lat="33.810313" lon="-118.393867">
  <ele>-0.14</ele>
  <time>2026-09-02T22:11:50Z</time>
  <course>0.0</course>
  <speed>0.0</speed>
  <fix>3d</fix>
</trkpt>
<trkpt lat="33.810313" lon="-118.393867">
  <ele>0.0</ele>
  <time>2026-09-02T22:11:50Z</time>
  <course>178.4</course>
  <speed>0.0</speed>
  <fix>3d</fix>
</trkpt>
<trkpt lat="33.810313" lon="-118.393867">
  <ele>-0.14</ele>
  <time>2026-09-02T22:11:50Z</time>
  <course>0.0</course>
  <speed>0.0</speed>
  <fix>3d</fix>
</trkpt>
<trkpt lat="33.810313" lon="-118.393867">
  <ele>0.0</ele>
  <time>2026-09-02T22:11:50Z</time>
  <course>178.83</course>
  <speed>0.0</speed>
  <fix>3d</fix>
</trkpt>
<trkpt lat="33.810313" lon="-118.393867">
  <ele>-0.14</ele>
  <time>2026-09-02T22:11:50Z</time>
  <course>0.0</course>
  <speed>0.0</speed>
  <fix>3d</fix>
</trkpt>
<trkpt lat="33.810313" lon="-118.393867">
  <ele>0.0</ele>
  <time>2026-09-02T22:11:50Z</time>
  <course>179.23</course>
  <speed>0.0</speed>
  <fix>3d</fix>
</trkpt>
<trkpt lat="33.810313" lon="-118.393867">
  <ele>-0.14</ele>
  <time>2026-09-02T22:11:50Z</time>
  <course>0.0</course>
  <speed>0.0</speed>
  <fix>3d</fix>
</trkpt>
<trkpt lat="33.810313" lon="-118.393867">
  <ele>0.0</ele>
  <time>2026-09-02T22:11:50Z</time>
  <course>179.62</course>
  <speed>0.0</speed>
  <fix>3d</fix>
</trkpt>
<trkpt lat="33.810313" lon="-118.393867">
  <ele>-0.14</ele>
  <time>2026-09-02T22:11:50Z</time>
  <course>0.0</course>
  <speed>0.0</speed>
  <fix>3d</fix>
</trkpt>
<trkpt lat="33.810313" lon="-118.393867">
  <ele>0.0</ele>
  <time>2026-09-02T22:11:50Z</time>
  <course>180.01</course>
  <speed>0.0</speed>
  <fix>3d</fix>
</trkpt>
<trkpt lat="33.810313" lon="-118.393867">
  <ele>-0.14</ele>
  <time>2026-09-02T22:11:50Z</time>
  <course>0.0</course>
  <speed>0.0</speed>
  <fix>3d</fix>
</trkpt>
<trkpt lat="33.810313" lon="-118.393867">
  <ele>0.0</ele>
  <time>2026-09-02T22:11:50Z</time>
  <course>180.37</course>
  <speed>0.0</speed>
  <fix>3d</fix>
</trkpt>
<trkpt lat="33.810313" lon="-118.393867">
  <ele>-0.14</ele>
  <time>2026-09-02T22:11:50Z</time>
  <course>0.0</course>
  <speed>0.0</speed>
  <fix>3d</fix>
</trkpt>
<trkpt lat="33.810313" lon="-118.393867">
  <ele>0.0</ele>
  <time>2026-09-02T22:11:50Z</time>
  <course>180.73</course>
  <speed>0.0</speed>
  <fix>3d</fix>
</trkpt>
<trkpt lat="33.810313" lon="-118.393867">
  <ele>-0.14</ele>
  <time>2026-09-02T22:11:50Z</time>
  <course>0.0</course>
  <speed>0.0</speed>
  <fix>3d</fix>
</trkpt>
<trkpt lat="33.810313" lon="-118.393867">
  <ele>0.0</ele>
  <time>2026-09-02T22:11:50Z</time>
  <course>181.07</course>
  <speed>0.0</speed>
  <fix>3d</fix>
</trkpt>
<trkpt lat="33.810313" lon="-118.393867">
  <ele>-0.13</ele>
  <time>2026-09-02T22:11:50Z</time>
  <course>0.0</course>
  <speed>0.0</speed>
  <fix>3d</fix>
</trkpt>
<trkpt lat="33.810313" lon="-118.393867">
  <ele>0.0</ele>
  <time>2026-09-02T22:11:50Z</time>
  <course>181.4</course>
  <speed>0.0</speed>
  <fix>3d</fix>
</trkpt>
<trkpt lat="33.810313" lon="-118.393867">
  <ele>-0.13</ele>
  <time>2026-09-02T22:11:50Z</time>
  <course>0.0</course>
  <speed>0.0</speed>
  <fix>3d</fix>
</trkpt>
<trkpt lat="33.810313" lon="-118.393867">
  <ele>0.0</ele>
  <time>2026-09-02T22:11:50Z</time>
  <course>181.72</course>
  <speed>0.0</speed>
  <fix>3d</fix>
</trkpt>
<trkpt lat="33.810313" lon="-118.393867">
  <ele>-0.12</ele>
  <time>2026-09-02T22:11:50Z</time>
  <course>0.0</course>
  <speed>0.0</speed>
  <fix>3d</fix>
</trkpt>
<trkpt lat="33.810313" lon="-118.393867">
  <ele>0.0</ele>
  <time>2026-09-02T22:11:50Z</time>
  <course>182.02</course>
  <speed>0.0</speed>
  <fix>3d</fix>
</trkpt>
<trkpt lat="33.810313" lon="-118.393867">
  <ele>-0.12</ele>
  <time>2026-09-02T22:11:50Z</time>
  <course>0.0</course>
  <speed>0.0</speed>
  <fix>3d</fix>
</trkpt>
<trkpt lat="33.810313" lon="-118.393867">
  <ele>0.0</ele>
  <time>2026-09-02T22:11:50Z</time>
  <course>182.32</course>
  <speed>0.0</speed>
  <fix>3d</fix>
</trkpt>
<trkpt lat="33.810313" lon="-118.393867">
  <ele>-0.12</ele>
  <time>2026-09-02T22:11:50Z</time>
  <course>0.0</course>
  <speed>0.0</speed>
  <fix>3d</fix>
</trkpt>
<trkpt lat="33.810313" lon="-118.393867">
  <ele>0.0</ele>
  <time>2026-09-02T22:11:50Z</time>
  <course>182.6</course>
  <speed>0.0</speed>
  <fix>3d</fix>
</trkpt>
<trkpt lat="33.810313" lon="-118.393867">
  <ele>-0.12</ele>
  <time>2026-09-02T22:11:50Z</time>
  <course>0.0</course>
  <speed>0.0</speed>
  <fix>3d</fix>
</trkpt>
<trkpt lat="33.810313" lon="-118.393867">
  <ele>0.0</ele>
  <time>2026-09-02T22:11:50Z</time>
  <course>182.87</course>
  <speed>0.0</speed>
  <fix>3d</fix>
</trkpt>
<trkpt lat="33.810313" lon="-118.393867">
  <ele>-0.11</ele>
  <time>2026-09-02T22:11:50Z</time>
  <course>0.0</course>
  <speed>0.0</speed>
  <fix>3d</fix>
</trkpt>
<trkpt lat="33.810313" lon="-118.393867">
  <ele>0.0</ele>
  <time>2026-09-02T22:11:50Z</time>
  <course>183.14</course>
  <speed>0.0</speed>
  <fix>3d</fix>
</trkpt>
<trkpt lat="33.810313" lon="-118.393867">
  <ele>-0.11</ele>
  <time>2026-09-02T22:11:50Z</time>
  <course>0.0</course>
  <speed>0.0</speed>
  <fix>3d</fix>
</trkpt>
<trkpt lat="33.810313" lon="-118.393867">
  <ele>0.0</ele>
  <time>2026-09-02T22:11:50Z</time>
  <course>183.39</course>
  <speed>0.0</speed>
  <fix>3d</fix>
</trkpt>
<trkpt lat="33.810313" lon="-118.393867">
  <ele>-0.11</ele>
  <time>2026-09-02T22:11:50Z</time>
  <course>0.0</course>
  <speed>0.0</speed>
  <fix>3d</fix>
</trkpt>
<trkpt lat="33.810313" lon="-118.393867">
  <ele>0.0</ele>
  <time>2026-09-02T22:11:50Z</time>
  <course>183.63</course>
  <speed>0.0</speed>
  <fix>3d</fix>
</trkpt>
<trkpt lat="33.810313" lon="-118.393867">
  <ele>-0.11</ele>
  <time>2026-09-02T22:11:50Z</time>
  <course>0.0</course>
  <speed>0.0</speed>
  <fix>3d</fix>
</trkpt>
<trkpt lat="33.810313" lon="-118.393867">
  <ele>0.0</ele>
  <time>2026-09-02T22:11:50Z</time>
  <course>183.86</course>
  <speed>0.0</speed>
  <fix>3d</fix>
</trkpt>
<trkpt lat="33.810313" lon="-118.393867">
  <ele>-0.12</ele>
  <time>2026-09-02T22:11:50Z</time>
  <course>0.0</course>
  <speed>0.0</speed>
  <fix>3d</fix>
</trkpt>
<trkpt lat="33.810313" lon="-118.393867">
  <ele>0.0</ele>
  <time>2026-09-02T22:11:50Z</time>
  <course>184.08</course>
  <speed>0.0</speed>
  <fix>3d</fix>
</trkpt>
<trkpt lat="33.810313" lon="-118.393867">
  <ele>-0.12</ele>
  <time>2026-09-02T22:11:50Z</time>
  <course>0.0</course>
  <speed>0.0</speed>
  <fix>3d</fix>
</trkpt>
<trkpt lat="33.810313" lon="-118.393867">
  <ele>0.0</ele>
  <time>2026-09-02T22:11:50Z</time>
  <course>184.3</course>
  <speed>0.0</speed>
  <fix>3d</fix>
</trkpt>
<trkpt lat="33.810313" lon="-118.393867">
  <ele>-0.13</ele>
  <time>2026-09-02T22:11:50Z</time>
  <course>0.0</course>
  <speed>0.0</speed>
  <fix>3d</fix>
</trkpt>
<trkpt lat="33.810313" lon="-118.393867">
  <ele>0.0</ele>
  <time>2026-09-02T22:11:50Z</time>
  <course>184.5</course>
  <speed>0.0</speed>
  <fix>3d</fix>
</trkpt>
<trkpt lat="33.810313" lon="-118.393867">
  <ele>-0.13</ele>
  <time>2026-09-02T22:11:50Z</time>
  <course>0.0</course>
  <speed>0.0</speed>
  <fix>3d</fix>
</trkpt>
<trkpt lat="33.810313" lon="-118.393867">
  <ele>0.0</ele>
  <time>2026-09-02T22:11:50Z</time>
  <course>184.7</course>
  <speed>0.0</speed>
  <fix>3d</fix>
</trkpt>
<trkpt lat="33.810313" lon="-118.393867">
  <ele>-0.13</ele>
  <time>2026-09-02T22:11:50Z</time>
  <course>0.0</course>
  <speed>0.0</speed>
  <fix>3d</fix>
</trkpt>
<trkpt lat="33.810313" lon="-118.393867">
  <ele>0.0</ele>
  <time>2026-09-02T22:11:50Z</time>
  <course>184.89</course>
  <speed>0.0</speed>
  <fix>3d</fix>
</trkpt>
<trkpt lat="33.810313" lon="-118.393867">
  <ele>-0.13</ele>
  <time>2026-09-02T22:11:50Z</time>
  <course>0.0</course>
  <speed>0.0</speed>
  <fix>3d</fix>
</trkpt>
<trkpt lat="33.810313" lon="-118.393867">
  <ele>0.0</ele>
  <time>2026-09-02T22:11:50Z</time>
  <course>185.07</course>
  <speed>0.0</speed>
  <fix>3d</fix>
</trkpt>
<trkpt lat="33.810313" lon="-118.393867">
  <ele>-0.14</ele>
  <time>2026-09-02T22:11:50Z</time>
  <course>0.0</course>
  <speed>0.0</speed>
  <fix>3d</fix>
</trkpt>
<trkpt lat="33.810313" lon="-118.393867">
  <ele>0.0</ele>
  <time>2026-09-02T22:11:50Z</time>
  <course>185.24</course>
  <speed>0.0</speed>
  <fix>3d</fix>
</trkpt>
<trkpt lat="33.810313" lon="-118.393867">
  <ele>-0.14</ele>
  <time>2026-09-02T22:11:50Z</time>
  <course>0.0</course>
  <speed>0.0</speed>
  <fix>3d</fix>
</trkpt>
<trkpt lat="33.810313" lon="-118.393867">
  <ele>0.0</ele>
  <time>2026-09-02T22:11:50Z</time>
  <course>185.41</course>
  <speed>0.0</speed>
  <fix>3d</fix>
</trkpt>
<trkpt lat="33.810313" lon="-118.393867">
  <ele>-0.13</ele>
  <time>2026-09-02T22:11:50Z</time>
  <course>0.0</course>
  <speed>0.0</speed>
  <fix>3d</fix>
</trkpt>
<trkpt lat="33.810313" lon="-118.393867">
  <ele>0.0</ele>
  <time>2026-09-02T22:11:50Z</time>
  <course>185.56</course>
  <speed>0.0</speed>
  <fix>3d</fix>
</trkpt>
<trkpt lat="33.810313" lon="-118.393867">
  <ele>-0.13</ele>
  <time>2026-09-02T22:11:50Z</time>
  <course>0.0</course>
  <speed>0.0</speed>
  <fix>3d</fix>
</trkpt>
<trkpt lat="33.810313" lon="-118.393867">
  <ele>0.0</ele>
  <time>2026-09-02T22:11:50Z</time>
  <course>185.72</course>
  <speed>0.0</speed>
  <fix>3d</fix>
</trkpt>
<trkpt lat="33.810313" lon="-118.393867">
  <ele>-0.13</ele>
  <time>2026-09-02T22:11:50Z</time>
  <course>0.0</course>
  <speed>0.0</speed>
  <fix>3d</fix>
</trkpt>
<trkpt lat="33.810313" lon="-118.393867">
  <ele>0.0</ele>
  <time>2026-09-02T22:11:50Z</time>
  <course>185.86</course>
  <speed>0.0</speed>
  <fix>3d</fix>
</trkpt>
<trkpt lat="33.810313" lon="-118.393867">
  <ele>-0.13</ele>
  <time>2026-09-02T22:11:50Z</time>
  <course>0.0</course>
  <speed>0.0</speed>
  <fix>3d</fix>
</trkpt>
<trkpt lat="33.810313" lon="-118.393867">
  <ele>0.0</ele>
  <time>2026-09-02T22:11:50Z</time>
  <course>186.0</course>
  <speed>0.0</speed>
  <fix>3d</fix>
</trkpt>
<trkpt lat="33.810313" lon="-118.393867">
  <ele>-0.12</ele>
  <time>2026-09-02T22:11:50Z</time>
  <course>0.0</course>
  <speed>0.0</speed>
  <fix>3d</fix>
</trkpt>
<trkpt lat="33.810313" lon="-118.393867">
  <ele>0.0</ele>
  <time>2026-09-02T22:11:50Z</time>
  <course>186.13</course>
  <speed>0.0</speed>
  <fix>3d</fix>
</trkpt>
<trkpt lat="33.810313" lon="-118.393867">
  <ele>-0.12</ele>
  <time>2026-09-02T22:11:50Z</time>
  <course>0.0</course>
  <speed>0.0</speed>
  <fix>3d</fix>
</trkpt>
<trkpt lat="33.810313" lon="-118.393867">
  <ele>0.0</ele>
  <time>2026-09-02T22:11:50Z</time>
  <course>186.26</course>
  <speed>0.0</speed>
  <fix>3d</fix>
</trkpt>
<trkpt lat="33.810313" lon="-118.393867">
  <ele>-0.12</ele>
  <time>2026-09-02T22:11:50Z</time>
  <course>0.0</course>
  <speed>0.0</speed>
  <fix>3d</fix>
</trkpt>
<trkpt lat="33.810313" lon="-118.393867">
  <ele>0.0</ele>
  <time>2026-09-02T22:11:50Z</time>
  <course>186.38</course>
  <speed>0.0</speed>
  <fix>3d</fix>
</trkpt>
<trkpt lat="33.810313" lon="-118.393867">
  <ele>-0.12</ele>
  <time>2026-09-02T22:11:50Z</time>
  <course>0.0</course>
  <speed>0.0</speed>
  <fix>3d</fix>
</trkpt>
<trkpt lat="33.810313" lon="-118.393867">
  <ele>0.0</ele>
  <time>2026-09-02T22:11:50Z</time>
  <course>186.49</course>
  <speed>0.0</speed>
  <fix>3d</fix>
</trkpt>
<trkpt lat="33.810313" lon="-118.393867">
  <ele>-0.12</ele>
  <time>2026-09-02T22:11:50Z</time>
  <course>0.0</course>
  <speed>0.0</speed>
  <fix>3d</fix>
</trkpt>
<trkpt lat="33.810313" lon="-118.393867">
  <ele>0.0</ele>
  <time>2026-09-02T22:11:50Z</time>
  <course>186.6</course>
  <speed>0.0</speed>
  <fix>3d</fix>
</trkpt>
<trkpt lat="33.810313" lon="-118.393867">
  <ele>-0.12</ele>
  <time>2026-09-02T22:11:50Z</time>
  <course>0.0</course>
  <speed>0.0</speed>
  <fix>3d</fix>
</trkpt>
<trkpt lat="33.810313" lon="-118.393867">
  <ele>0.0</ele>
  <time>2026-09-02T22:11:50Z</time>
  <course>186.71</course>
  <speed>0.0</speed>
  <fix>3d</fix>
</trkpt>
<trkpt lat="33.810313" lon="-118.393867">
  <ele>-0.12</ele>
  <time>2026-09-02T22:11:50Z</time>
  <course>0.0</course>
  <speed>0.0</speed>
  <fix>3d</fix>
</trkpt>
<trkpt lat="33.810313" lon="-118.393867">
  <ele>0.0</ele>
  <time>2026-09-02T22:11:50Z</time>
  <course>186.81</course>
  <speed>0.0</speed>
  <fix>3d</fix>
</trkpt>
<trkpt lat="33.810313" lon="-118.393867">
  <ele>-0.12</ele>
  <time>2026-09-02T22:11:50Z</time>
  <course>0.0</course>
  <speed>0.0</speed>
  <fix>3d</fix>
</trkpt>
<trkpt lat="33.810313" lon="-118.393867">
  <ele>0.0</ele>
  <time>2026-09-02T22:11:50Z</time>
  <course>186.9</course>
  <speed>0.0</speed>
  <fix>3d</fix>
</trkpt>
<trkpt lat="33.810313" lon="-118.393867">
  <ele>-0.12</ele>
  <time>2026-09-02T22:11:50Z</time>
  <course>0.0</course>
  <speed>0.0</speed>
  <fix>3d</fix>
</trkpt>
<trkpt lat="33.810313" lon="-118.393867">
  <ele>0.0</ele>
  <time>2026-09-02T22:11:50Z</time>
  <course>187.0</course>
  <speed>0.0</speed>
  <fix>3d</fix>
</trkpt>
<trkpt lat="33.810313" lon="-118.393867">
  <ele>-0.12</ele>
  <time>2026-09-02T22:11:50Z</time>
  <course>0.0</course>
  <speed>0.0</speed>
  <fix>3d</fix>
</trkpt>
<trkpt lat="33.810313" lon="-118.393867">
  <ele>0.0</ele>
  <time>2026-09-02T22:11:50Z</time>
  <course>187.08</course>
  <speed>0.0</speed>
  <fix>3d</fix>
</trkpt>
<trkpt lat="33.810313" lon="-118.393867">
  <ele>-0.13</ele>
  <time>2026-09-02T22:11:50Z</time>
  <course>0.0</course>
  <speed>0.0</speed>
  <fix>3d</fix>
</trkpt>
<trkpt lat="33.810313" lon="-118.393867">
  <ele>0.0</ele>
  <time>2026-09-02T22:11:50Z</time>
  <course>187.17</course>
  <speed>0.0</speed>
  <fix>3d</fix>
</trkpt>
<trkpt lat="33.810313" lon="-118.393867">
  <ele>-0.13</ele>
  <time>2026-09-02T22:11:50Z</time>
  <course>0.0</course>
  <speed>0.0</speed>
  <fix>3d</fix>
</trkpt>
<trkpt lat="33.810313" lon="-118.393867">
  <ele>0.0</ele>
  <time>2026-09-02T22:11:50Z</time>
  <course>187.24</course>
  <speed>0.0</speed>
  <fix>3d</fix>
</trkpt>
<trkpt lat="33.810313" lon="-118.393867">
  <ele>-0.13</ele>
  <time>2026-09-02T22:11:50Z</time>
  <course>0.0</course>
  <speed>0.0</speed>
  <fix>3d</fix>
</trkpt>
<trkpt lat="33.810313" lon="-118.393867">
  <ele>0.0</ele>
  <time>2026-09-02T22:11:50Z</time>
  <course>187.32</course>
  <speed>0.0</speed>
  <fix>3d</fix>
</trkpt>
<trkpt lat="33.810313" lon="-118.393867">
  <ele>-0.13</ele>
  <time>2026-09-02T22:11:50Z</time>
  <course>0.0</course>
  <speed>0.0</speed>
  <fix>3d</fix>
</trkpt>
<trkpt lat="33.810313" lon="-118.393867">
  <ele>0.0</ele>
  <time>2026-09-02T22:11:50Z</time>
  <course>187.39</course>
  <speed>0.0</speed>
  <fix>3d</fix>
</trkpt>
<trkpt lat="33.810313" lon="-118.393867">
  <ele>-0.13</ele>
  <time>2026-09-02T22:11:50Z</time>
  <course>0.0</course>
  <speed>0.0</speed>
  <fix>3d</fix>
</trkpt>
<trkpt lat="33.810313" lon="-118.393867">
  <ele>0.0</ele>
  <time>2026-09-02T22:11:50Z</time>
  <course>187.46</course>
  <speed>0.0</speed>
  <fix>3d</fix>
</trkpt>
<trkpt lat="33.810313" lon="-118.393867">
  <ele>-0.13</ele>
  <time>2026-09-02T22:11:50Z</time>
  <course>0.0</course>
  <speed>0.0</speed>
  <fix>3d</fix>
</trkpt>
<trkpt lat="33.810313" lon="-118.393867">
  <ele>0.0</ele>
  <time>2026-09-02T22:11:50Z</time>
  <course>187.53</course>
  <speed>0.0</speed>
  <fix>3d</fix>
</trkpt>
<trkpt lat="33.810313" lon="-118.393867">
  <ele>-0.13</ele>
  <time>2026-09-02T22:11:50Z</time>
  <course>0.0</course>
  <speed>0.0</speed>
  <fix>3d</fix>
</trkpt>
<trkpt lat="33.810313" lon="-118.393867">
  <ele>0.0</ele>
  <time>2026-09-02T22:11:50Z</time>
  <course>187.59</course>
  <speed>0.0</speed>
  <fix>3d</fix>
</trkpt>
<trkpt lat="33.810313" lon="-118.393867">
  <ele>-0.13</ele>
  <time>2026-09-02T22:11:50Z</time>
  <course>0.0</course>
  <speed>0.0</speed>
  <fix>3d</fix>
</trkpt>
<trkpt lat="33.810313" lon="-118.393867">
  <ele>0.0</ele>
  <time>2026-09-02T22:11:50Z</time>
  <course>187.65</course>
  <speed>0.0</speed>
  <fix>3d</fix>
</trkpt>
<trkpt lat="33.810313" lon="-118.393867">
  <ele>-0.12</ele>
  <time>2026-09-02T22:11:50Z</time>
  <course>0.0</course>
  <speed>0.0</speed>
  <fix>3d</fix>
</trkpt>
<trkpt lat="33.810313" lon="-118.393867">
  <ele>0.0</ele>
  <time>2026-09-02T22:11:50Z</time>
  <course>187.7</course>
  <speed>0.0</speed>
  <fix>3d</fix>
</trkpt>
<trkpt lat="33.810313" lon="-118.393867">
  <ele>-0.12</ele>
  <time>2026-09-02T22:11:50Z</time>
  <course>0.0</course>
  <speed>0.0</speed>
  <fix>3d</fix>
</trkpt>
<trkpt lat="33.810313" lon="-118.393867">
  <ele>0.0</ele>
  <time>2026-09-02T22:11:50Z</time>
  <course>187.76</course>
  <speed>0.0</speed>
  <fix>3d</fix>
</trkpt>
<trkpt lat="33.810313" lon="-118.393867">
  <ele>-0.12</ele>
  <time>2026-09-02T22:11:50Z</time>
  <course>0.0</course>
  <speed>0.0</speed>
  <fix>3d</fix>
</trkpt>
<trkpt lat="33.810313" lon="-118.393867">
  <ele>0.0</ele>
  <time>2026-09-02T22:11:50Z</time>
  <course>187.81</course>
  <speed>0.0</speed>
  <fix>3d</fix>
</trkpt>
<trkpt lat="33.810313" lon="-118.393867">
  <ele>-0.12</ele>
  <time>2026-09-02T22:11:50Z</time>
  <course>0.0</course>
  <speed>0.0</speed>
  <fix>3d</fix>
</trkpt>
<trkpt lat="33.810313" lon="-118.393867">
  <ele>0.0</ele>
  <time>2026-09-02T22:11:50Z</time>
  <course>187.86</course>
  <speed>0.0</speed>
  <fix>3d</fix>
</trkpt>
<trkpt lat="33.810313" lon="-118.393867">
  <ele>-0.12</ele>
  <time>2026-09-02T22:11:50Z</time>
  <course>0.0</course>
  <speed>0.0</speed>
  <fix>3d</fix>
</trkpt>
<trkpt lat="33.810313" lon="-118.393867">
  <ele>0.0</ele>
  <time>2026-09-02T22:11:50Z</time>
  <course>187.9</course>
  <speed>0.0</speed>
  <fix>3d</fix>
</trkpt>
<trkpt lat="33.810313" lon="-118.393867">
  <ele>-0.12</ele>
  <time>2026-09-02T22:11:50Z</time>
  <course>0.0</course>
  <speed>0.0</speed>
  <fix>3d</fix>
</trkpt>
<trkpt lat="33.810313" lon="-118.393867">
  <ele>0.0</ele>
  <time>2026-09-02T22:11:50Z</time>
  <course>187.94</course>
  <speed>0.0</speed>
  <fix>3d</fix>
</trkpt>
<trkpt lat="33.810313" lon="-118.393867">
  <ele>-0.12</ele>
  <time>2026-09-02T22:11:50Z</time>
  <course>0.0</course>
  <speed>0.0</speed>
  <fix>3d</fix>
</trkpt>
<trkpt lat="33.810313" lon="-118.393867">
  <ele>0.0</ele>
  <time>2026-09-02T22:11:50Z</time>
  <course>187.99</course>
  <speed>0.0</speed>
  <fix>3d</fix>
</trkpt>
<trkpt lat="33.810313" lon="-118.393867">
  <ele>-0.12</ele>
  <time>2026-09-02T22:11:50Z</time>
  <course>0.0</course>
  <speed>0.0</speed>
  <fix>3d</fix>
</trkpt>
<trkpt lat="33.810313" lon="-118.393867">
  <ele>0.0</ele>
  <time>2026-09-02T22:11:50Z</time>
  <course>188.02</course>
  <speed>0.0</speed>
  <fix>3d</fix>
</trkpt>
<trkpt lat="33.810313" lon="-118.393867">
  <ele>-0.12</ele>
  <time>2026-09-02T22:11:50Z</time>
  <course>0.0</course>
  <speed>0.0</speed>
  <fix>3d</fix>
</trkpt>
<trkpt lat="33.810313" lon="-118.393867">
  <ele>0.0</ele>
  <time>2026-09-02T22:11:50Z</time>
  <course>188.06</course>
  <speed>0.0</speed>
  <fix>3d</fix>
</trkpt>
<trkpt lat="33.810313" lon="-118.393867">
  <ele>-0.12</ele>
  <time>2026-09-02T22:11:50Z</time>
  <course>0.0</course>
  <speed>0.0</speed>
  <fix>3d</fix>
</trkpt>
<trkpt lat="33.810313" lon="-118.393867">
  <ele>0.0</ele>
  <time>2026-09-02T22:11:50Z</time>
  <course>188.1</course>
  <speed>0.0</speed>
  <fix>3d</fix>
</trkpt>
<trkpt lat="33.810313" lon="-118.393867">
  <ele>-0.13</ele>
  <time>2026-09-02T22:11:50Z</time>
  <course>0.0</course>
  <speed>0.0</speed>
  <fix>3d</fix>
</trkpt>
<trkpt lat="33.810313" lon="-118.393867">
  <ele>0.0</ele>
  <time>2026-09-02T22:11:50Z</time>
  <course>188.13</course>
  <speed>0.0</speed>
  <fix>3d</fix>
</trkpt>
<trkpt lat="33.810313" lon="-118.393867">
  <ele>-0.13</ele>
  <time>2026-09-02T22:11:50Z</time>
  <course>0.0</course>
  <speed>0.0</speed>
  <fix>3d</fix>
</trkpt>
<trkpt lat="33.810313" lon="-118.393867">
  <ele>0.0</ele>
  <time>2026-09-02T22:11:50Z</time>
  <course>188.16</course>
  <speed>0.0</speed>
  <fix>3d</fix>
</trkpt>
<trkpt lat="33.810313" lon="-118.393867">
  <ele>-0.13</ele>
  <time>2026-09-02T22:11:50Z</time>
  <course>0.0</course>
  <speed>0.0</speed>
  <fix>3d</fix>
</trkpt>
<trkpt lat="33.810313" lon="-118.393867">
  <ele>0.0</ele>
  <time>2026-09-02T22:11:50Z</time>
  <course>188.19</course>
  <speed>0.0</speed>
  <fix>3d</fix>
</trkpt>
<trkpt lat="33.810313" lon="-118.393867">
  <ele>-0.13</ele>
  <time>2026-09-02T22:11:50Z</time>
  <course>0.0</course>
  <speed>0.0</speed>
  <fix>3d</fix>
</trkpt>
<trkpt lat="33.810313" lon="-118.393867">
  <ele>0.0</ele>
  <time>2026-09-02T22:11:50Z</time>
  <course>188.22</course>
  <speed>0.0</speed>
  <fix>3d</fix>
</trkpt>
<trkpt lat="33.810313" lon="-118.393867">
  <ele>-0.13</ele>
  <time>2026-09-02T22:11:50Z</time>
  <course>0.0</course>
  <speed>0.0</speed>
  <fix>3d</fix>
</trkpt>
<trkpt lat="33.810313" lon="-118.393867">
  <ele>0.0</ele>
  <time>2026-09-02T22:11:50Z</time>
  <course>188.24</course>
  <speed>0.0</speed>
  <fix>3d</fix>
</trkpt>
<trkpt lat="33.810313" lon="-118.393867">
  <ele>-0.13</ele>
  <time>2026-09-02T22:11:50Z</time>
  <course>0.0</course>
  <speed>0.0</speed>
  <fix>3d</fix>
</trkpt>
<trkpt lat="33.810313" lon="-118.393867">
  <ele>0.0</ele>
  <time>2026-09-02T22:11:50Z</time>
  <course>188.27</course>
  <speed>0.0</speed>
  <fix>3d</fix>
</trkpt>
<trkpt lat="33.810313" lon="-118.393867">
  <ele>-0.12</ele>
  <time>2026-09-02T22:11:50Z</time>
  <course>0.0</course>
  <speed>0.0</speed>
  <fix>3d</fix>
</trkpt>
<trkpt lat="33.810313" lon="-118.393867">
  <ele>0.0</ele>
  <time>2026-09-02T22:11:50Z</time>
  <course>188.29</course>
  <speed>0.0</speed>
  <fix>3d</fix>
</trkpt>
<trkpt lat="33.810313" lon="-118.393867">
  <ele>-0.12</ele>
  <time>2026-09-02T22:11:50Z</time>
  <course>0.0</course>
  <speed>0.0</speed>
  <fix>3d</fix>
</trkpt>
<trkpt lat="33.810313" lon="-118.393867">
  <ele>0.0</ele>
  <time>2026-09-02T22:11:50Z</time>
  <course>188.32</course>
  <speed>0.0</speed>
  <fix>3d</fix>
</trkpt>
<trkpt lat="33.810313" lon="-118.393867">
  <ele>-0.12</ele>
  <time>2026-09-02T22:11:50Z</time>
  <course>0.0</course>
  <speed>0.0</speed>
  <fix>3d</fix>
</trkpt>
<trkpt lat="33.810313" lon="-118.393867">
  <ele>0.0</ele>
  <time>2026-09-02T22:11:50Z</time>
  <course>188.34</course>
  <speed>0.0</speed>
  <fix>3d</fix>
</trkpt>
<trkpt lat="33.810313" lon="-118.393867">
  <ele>-0.12</ele>
  <time>2026-09-02T22:11:50Z</time>
  <course>0.0</course>
  <speed>0.0</speed>
  <fix>3d</fix>
</trkpt>
<trkpt lat="33.810313" lon="-118.393867">
  <ele>0.0</ele>
  <time>2026-09-02T22:11:50Z</time>
  <course>188.36</course>
  <speed>0.0</speed>
  <fix>3d</fix>
</trkpt>
<trkpt lat="33.810313" lon="-118.393867">
  <ele>-0.12</ele>
  <time>2026-09-02T22:11:50Z</time>
  <course>0.0</course>
  <speed>0.0</speed>
  <fix>3d</fix>
</trkpt>
<trkpt lat="33.810313" lon="-118.393867">
  <ele>0.0</ele>
  <time>2026-09-02T22:11:50Z</time>
  <course>188.38</course>
  <speed>0.0</speed>
  <fix>3d</fix>
</trkpt>
<trkpt lat="33.810313" lon="-118.393867">
  <ele>-0.12</ele>
  <time>2026-09-02T22:11:50Z</time>
  <course>0.0</course>
  <speed>0.0</speed>
  <fix>3d</fix>
</trkpt>
<trkpt lat="33.810313" lon="-118.393867">
  <ele>0.0</ele>
  <time>2026-09-02T22:11:50Z</time>
  <course>188.39</course>
  <speed>0.0</speed>
  <fix>3d</fix>
</trkpt>
<trkpt lat="33.810313" lon="-118.393867">
  <ele>-0.12</ele>
  <time>2026-09-02T22:11:50Z</time>
  <course>0.0</course>
  <speed>0.0</speed>
  <fix>3d</fix>
</trkpt>
<trkpt lat="33.810313" lon="-118.393867">
  <ele>0.0</ele>
  <time>2026-09-02T22:11:50Z</time>
  <course>188.41</course>
  <speed>0.0</speed>
  <fix>3d</fix>
</trkpt>
<trkpt lat="33.810313" lon="-118.393867">
  <ele>-0.12</ele>
  <time>2026-09-02T22:11:50Z</time>
  <course>0.0</course>
  <speed>0.0</speed>
  <fix>3d</fix>
</trkpt>
<trkpt lat="33.810313" lon="-118.393867">
  <ele>0.0</ele>
  <time>2026-09-02T22:11:50Z</time>
  <course>188.42</course>
  <speed>0.0</speed>
  <fix>3d</fix>
</trkpt>
<trkpt lat="33.810313" lon="-118.393867">
  <ele>-0.12</ele>
  <time>2026-09-02T22:11:50Z</time>
  <course>0.0</course>
  <speed>0.0</speed>
  <fix>3d</fix>
</trkpt>
<trkpt lat="33.810313" lon="-118.393867">
  <ele>0.0</ele>
  <time>2026-09-02T22:11:50Z</time>
  <course>188.44</course>
  <speed>0.0</speed>
  <fix>3d</fix>
</trkpt>
<trkpt lat="33.810313" lon="-118.393867">
  <ele>-0.12</ele>
  <time>2026-09-02T22:11:50Z</time>
  <course>0.0</course>
  <speed>0.0</speed>
  <fix>3d</fix>
</trkpt>
<trkpt lat="33.810313" lon="-118.393867">
  <ele>0.0</ele>
  <time>2026-09-02T22:11:50Z</time>
  <course>188.45</course>
  <speed>0.0</speed>
  <fix>3d</fix>
</trkpt>
<trkpt lat="33.810313" lon="-118.393867">
  <ele>-0.13</ele>
  <time>2026-09-02T22:11:50Z</time>
  <course>0.0</course>
  <speed>0.0</speed>
  <fix>3d</fix>
</trkpt>
<trkpt lat="33.810313" lon="-118.393867">
  <ele>0.0</ele>
  <time>2026-09-02T22:11:50Z</time>
  <course>188.46</course>
  <speed>0.0</speed>
  <fix>3d</fix>
</trkpt>
<trkpt lat="33.810313" lon="-118.393867">
  <ele>-0.13</ele>
  <time>2026-09-02T22:11:50Z</time>
  <course>0.0</course>
  <speed>0.0</speed>
  <fix>3d</fix>
</trkpt>
<trkpt lat="33.810313" lon="-118.393867">
  <ele>0.0</ele>
  <time>2026-09-02T22:11:50Z</time>
  <course>188.47</course>
  <speed>0.0</speed>
  <fix>3d</fix>
</trkpt>
<trkpt lat="33.810313" lon="-118.393867">
  <ele>-0.13</ele>
  <time>2026-09-02T22:11:50Z</time>
  <course>0.0</course>
  <speed>0.0</speed>
  <fix>3d</fix>
</trkpt>
<trkpt lat="33.810313" lon="-118.393867">
  <ele>0.0</ele>
  <time>2026-09-02T22:11:50Z</time>
  <course>188.48</course>
  <speed>0.0</speed>
  <fix>3d</fix>
</trkpt>
<trkpt lat="33.810313" lon="-118.393867">
  <ele>-0.13</ele>
  <time>2026-09-02T22:11:50Z</time>
  <course>0.0</course>
  <speed>0.0</speed>
  <fix>3d</fix>
</trkpt>
<trkpt lat="33.810313" lon="-118.393867">
  <ele>0.0</ele>
  <time>2026-09-02T22:11:50Z</time>
  <course>188.49</course>
  <speed>0.0</speed>
  <fix>3d</fix>
</trkpt>
<trkpt lat="33.810313" lon="-118.393867">
  <ele>-0.13</ele>
  <time>2026-09-02T22:11:50Z</time>
  <course>0.0</course>
  <speed>0.0</speed>
  <fix>3d</fix>
</trkpt>
<trkpt lat="33.810313" lon="-118.393867">
  <ele>0.0</ele>
  <time>2026-09-02T22:11:50Z</time>
  <course>188.5</course>
  <speed>0.0</speed>
  <fix>3d</fix>
</trkpt>
<trkpt lat="33.810313" lon="-118.393867">
  <ele>-0.13</ele>
  <time>2026-09-02T22:11:50Z</time>
  <course>0.0</course>
  <speed>0.0</speed>
  <fix>3d</fix>
</trkpt>
<trkpt lat="33.810313" lon="-118.393867">
  <ele>0.0</ele>
  <time>2026-09-02T22:11:50Z</time>
  <course>188.51</course>
  <speed>0.0</speed>
  <fix>3d</fix>
</trkpt>
<trkpt lat="33.810313" lon="-118.393867">
  <ele>-0.12</ele>
  <time>2026-09-02T22:11:50Z</time>
  <course>0.0</course>
  <speed>0.0</speed>
  <fix>3d</fix>
</trkpt>
<trkpt lat="33.810313" lon="-118.393867">
  <ele>0.0</ele>
  <time>2026-09-02T22:11:50Z</time>
  <course>188.52</course>
  <speed>0.0</speed>
  <fix>3d</fix>
</trkpt>
<trkpt lat="33.810313" lon="-118.393867">
  <ele>-0.12</ele>
  <time>2026-09-02T22:11:50Z</time>
  <course>0.0</course>
  <speed>0.0</speed>
  <fix>3d</fix>
</trkpt>
<trkpt lat="33.810313" lon="-118.393867">
  <ele>0.0</ele>
  <time>2026-09-02T22:11:50Z</time>
  <course>188.53</course>
  <speed>0.0</speed>
  <fix>3d</fix>
</trkpt>
<trkpt lat="33.810313" lon="-118.393867">
  <ele>-0.12</ele>
  <time>2026-09-02T22:11:50Z</time>
  <course>0.0</course>
  <speed>0.0</speed>
  <fix>3d</fix>
</trkpt>
<trkpt lat="33.810313" lon="-118.393867">
  <ele>0.0</ele>
  <time>2026-09-02T22:11:50Z</time>
  <course>188.53</course>
  <speed>0.0</speed>
  <fix>3d</fix>
</trkpt>
<trkpt lat="33.810313" lon="-118.393867">
  <ele>-0.12</ele>
  <time>2026-09-02T22:11:50Z</time>
  <course>0.0</course>
  <speed>0.0</speed>
  <fix>3d</fix>
</trkpt>
<trkpt lat="33.810313" lon="-118.393867">
  <ele>0.0</ele>
  <time>2026-09-02T22:11:50Z</time>
  <course>188.54</course>
  <speed>0.0</speed>
  <fix>3d</fix>
</trkpt>
<trkpt lat="33.810313" lon="-118.393867">
  <ele>-0.12</ele>
  <time>2026-09-02T22:11:50Z</time>
  <course>0.0</course>
  <speed>0.0</speed>
  <fix>3d</fix>
</trkpt>
<trkpt lat="33.810313" lon="-118.393867">
  <ele>0.0</ele>
  <time>2026-09-02T22:11:50Z</time>
  <course>188.54</course>
  <speed>0.0</speed>
  <fix>3d</fix>
</trkpt>
<trkpt lat="33.810313" lon="-118.393867">
  <ele>-0.12</ele>
  <time>2026-09-02T22:11:50Z</time>
  <course>0.0</course>
  <speed>0.0</speed>
  <fix>3d</fix>
</trkpt>
<trkpt lat="33.810313" lon="-118.393867">
  <ele>0.0</ele>
  <time>2026-09-02T22:11:50Z</time>
  <course>188.54</course>
  <speed>0.0</speed>
  <fix>3d</fix>
</trkpt>
<trkpt lat="33.810313" lon="-118.393867">
  <ele>-0.12</ele>
  <time>2026-09-02T22:11:50Z</time>
  <course>0.0</course>
  <speed>0.0</speed>
  <fix>3d</fix>
</trkpt>
<trkpt lat="33.810313" lon="-118.393867">
  <ele>0.0</ele>
  <time>2026-09-02T22:11:50Z</time>
  <course>188.55</course>
  <speed>0.0</speed>
  <fix>3d</fix>
</trkpt>
<trkpt lat="33.810313" lon="-118.393867">
  <ele>-0.12</ele>
  <time>2026-09-02T22:11:50Z</time>
  <course>0.0</course>
  <speed>0.0</speed>
  <fix>3d</fix>
</trkpt>
<trkpt lat="33.810313" lon="-118.393867">
  <ele>0.0</ele>
  <time>2026-09-02T22:11:50Z</time>
  <course>188.55</course>
  <speed>0.0</speed>
  <fix>3d</fix>
</trkpt>
<trkpt lat="33.810313" lon="-118.393867">
  <ele>-0.12</ele>
  <time>2026-09-02T22:11:50Z</time>
  <course>0.0</course>
  <speed>0.0</speed>
  <fix>3d</fix>
</trkpt>
<trkpt lat="33.810313" lon="-118.393867">
  <ele>0.0</ele>
  <time>2026-09-02T22:11:50Z</time>
  <course>188.55</course>
  <speed>0.0</speed>
  <fix>3d</fix>
</trkpt>
<trkpt lat="33.810313" lon="-118.393867">
  <ele>-0.12</ele>
  <time>2026-09-02T22:11:50Z</time>
  <course>0.0</course>
  <speed>0.0</speed>
  <fix>3d</fix>
</trkpt>
<trkpt lat="33.810313" lon="-118.393867">
  <ele>-0.126</ele>
  <time>2026-09-02T22:11:50Z</time>
  <course>188.55</course>
  <speed>0.0</speed>
  <fix>3d</fix>
</trkpt>
<trkpt lat="33.810313" lon="-118.393867">
  <ele>-0.13</ele>
  <time>2026-09-02T22:11:50Z</time>
  <course>0.0</course>
  <speed>0.0</speed>
  <fix>3d</fix>
</trkpt>
<trkpt lat="33.810313" lon="-118.393867">
  <ele>-0.126</ele>
  <time>2026-09-02T22:11:50Z</time>
  <course>188.56</course>
  <speed>0.0</speed>
  <fix>3d</fix>
</trkpt>
<trkpt lat="33.810313" lon="-118.393867">
  <ele>-0.13</ele>
  <time>2026-09-02T22:11:50Z</time>
  <course>0.0</course>
  <speed>0.0</speed>
  <fix>3d</fix>
</trkpt>
<trkpt lat="33.810313" lon="-118.393867">
  <ele>-0.125</ele>
  <time>2026-09-02T22:11:50Z</time>
  <course>188.56</course>
  <speed>0.0</speed>
  <fix>3d</fix>
</trkpt>
<trkpt lat="33.810313" lon="-118.393867">
  <ele>-0.13</ele>
  <time>2026-09-02T22:11:50Z</time>
  <course>0.0</course>
  <speed>0.0</speed>
  <fix>3d</fix>
</trkpt>
<trkpt lat="33.810313" lon="-118.393867">
  <ele>-0.123</ele>
  <time>2026-09-02T22:11:50Z</time>
  <course>188.56</course>
  <speed>0.0</speed>
  <fix>3d</fix>
</trkpt>
<trkpt lat="33.810313" lon="-118.393867">
  <ele>-0.13</ele>
  <time>2026-09-02T22:11:50Z</time>
  <course>0.0</course>
  <speed>0.0</speed>
  <fix>3d</fix>
</trkpt>
<trkpt lat="33.810313" lon="-118.393867">
  <ele>-0.121</ele>
  <time>2026-09-02T22:11:50Z</time>
  <course>188.56</course>
  <speed>0.0</speed>
  <fix>3d</fix>
</trkpt>
<trkpt lat="33.810313" lon="-118.393867">
  <ele>-0.12</ele>
  <time>2026-09-02T22:11:50Z</time>
  <course>0.0</course>
  <speed>0.0</speed>
  <fix>3d</fix>
</trkpt>
<trkpt lat="33.810313" lon="-118.393867">
  <ele>-0.12</ele>
  <time>2026-09-02T22:11:50Z</time>
  <course>188.56</course>
  <speed>0.0</speed>
  <fix>3d</fix>
</trkpt>
<trkpt lat="33.810313" lon="-118.393867">
  <ele>-0.12</ele>
  <time>2026-09-02T22:11:50Z</time>
  <course>0.0</course>
  <speed>0.0</speed>
  <fix>3d</fix>
</trkpt>
<trkpt lat="33.810313" lon="-118.393867">
  <ele>-0.119</ele>
  <time>2026-09-02T22:11:50Z</time>
  <course>188.56</course>
  <speed>0.0</speed>
  <fix>3d</fix>
</trkpt>
<trkpt lat="33.810313" lon="-118.393867">
  <ele>-0.12</ele>
  <time>2026-09-02T22:11:50Z</time>
  <course>0.0</course>
  <speed>0.0</speed>
  <fix>3d</fix>
</trkpt>
<trkpt lat="33.810313" lon="-118.393867">
  <ele>-0.12</ele>
  <time>2026-09-02T22:11:50Z</time>
  <course>188.56</course>
  <speed>0.0</speed>
  <fix>3d</fix>
</trkpt>
<trkpt lat="33.810313" lon="-118.393867">
  <ele>-0.12</ele>
  <time>2026-09-02T22:11:50Z</time>
  <course>0.0</course>
  <speed>0.0</speed>
  <fix>3d</fix>
</trkpt>
<trkpt lat="33.810313" lon="-118.393867">
  <ele>-0.123</ele>
  <time>2026-09-02T22:11:50Z</time>
  <course>188.55</course>
  <speed>0.0</speed>
  <fix>3d</fix>
</trkpt>
<trkpt lat="33.810313" lon="-118.393867">
  <ele>-0.12</ele>
  <time>2026-09-02T22:11:50Z</time>
  <course>0.0</course>
  <speed>0.0</speed>
  <fix>3d</fix>
</trkpt>
<trkpt lat="33.810313" lon="-118.393867">
  <ele>-0.127</ele>
  <time>2026-09-02T22:11:50Z</time>
  <course>188.55</course>
  <speed>0.0</speed>
  <fix>3d</fix>
</trkpt>
<trkpt lat="33.810313" lon="-118.393867">
  <ele>-0.12</ele>
  <time>2026-09-02T22:11:50Z</time>
  <course>0.0</course>
  <speed>0.0</speed>
  <fix>3d</fix>
</trkpt>
<trkpt lat="33.810313" lon="-118.393867">
  <ele>-0.13</ele>
  <time>2026-09-02T22:11:50Z</time>
  <course>188.55</course>
  <speed>0.0</speed>
  <fix>3d</fix>
</trkpt>
<trkpt lat="33.810313" lon="-118.393867">
  <ele>-0.12</ele>
  <time>2026-09-02T22:11:50Z</time>
  <course>0.0</course>
  <speed>0.0</speed>
  <fix>3d</fix>
</trkpt>
<trkpt lat="33.810313" lon="-118.393867">
  <ele>-0.132</ele>
  <time>2026-09-02T22:11:50Z</time>
  <course>188.55</course>
  <speed>0.0</speed>
  <fix>3d</fix>
</trkpt>
<trkpt lat="33.810313" lon="-118.393867">
  <ele>-0.12</ele>
  <time>2026-09-02T22:11:50Z</time>
  <course>0.0</course>
  <speed>0.0</speed>
  <fix>3d</fix>
</trkpt>
<trkpt lat="33.810313" lon="-118.393867">
  <ele>-0.132</ele>
  <time>2026-09-02T22:11:50Z</time>
  <course>188.55</course>
  <speed>0.0</speed>
  <fix>3d</fix>
</trkpt>
<trkpt lat="33.810313" lon="-118.393867">
  <ele>-0.12</ele>
  <time>2026-09-02T22:11:50Z</time>
  <course>0.0</course>
  <speed>0.0</speed>
  <fix>3d</fix>
</trkpt>
<trkpt lat="33.810313" lon="-118.393867">
  <ele>-0.132</ele>
  <time>2026-09-02T22:11:50Z</time>
  <course>188.55</course>
  <speed>0.0</speed>
  <fix>3d</fix>
</trkpt>
<trkpt lat="33.810313" lon="-118.393867">
  <ele>-0.12</ele>
  <time>2026-09-02T22:11:50Z</time>
  <course>0.0</course>
  <speed>0.0</speed>
  <fix>3d</fix>
</trkpt>
<trkpt lat="33.810313" lon="-118.393867">
  <ele>-0.132</ele>
  <time>2026-09-02T22:11:50Z</time>
  <course>188.55</course>
  <speed>0.0</speed>
  <fix>3d</fix>
</trkpt>
<trkpt lat="33.810313" lon="-118.393867">
  <ele>-0.12</ele>
  <time>2026-09-02T22:11:50Z</time>
  <course>0.0</course>
  <speed>0.0</speed>
  <fix>3d</fix>
</trkpt>
<trkpt lat="33.810313" lon="-118.393867">
  <ele>-0.131</ele>
  <time>2026-09-02T22:11:50Z</time>
  <course>188.55</course>
  <speed>0.0</speed>
  <fix>3d</fix>
</trkpt>
<trkpt lat="33.810313" lon="-118.393867">
  <ele>-0.12</ele>
  <time>2026-09-02T22:11:50Z</time>
  <course>0.0</course>
  <speed>0.0</speed>
  <fix>3d</fix>
</trkpt>
<trkpt lat="33.810313" lon="-118.393867">
  <ele>-0.129</ele>
  <time>2026-09-02T22:11:50Z</time>
  <course>188.54</course>
  <speed>0.0</speed>
  <fix>3d</fix>
</trkpt>
<trkpt lat="33.810313" lon="-118.393867">
  <ele>-0.13</ele>
  <time>2026-09-02T22:11:50Z</time>
  <course>0.0</course>
  <speed>0.0</speed>
  <fix>3d</fix>
</trkpt>
<trkpt lat="33.810313" lon="-118.393867">
  <ele>-0.128</ele>
  <time>2026-09-02T22:11:50Z</time>
  <course>188.54</course>
  <speed>0.0</speed>
  <fix>3d</fix>
</trkpt>
<trkpt lat="33.810313" lon="-118.393867">
  <ele>-0.13</ele>
  <time>2026-09-02T22:11:50Z</time>
  <course>0.0</course>
  <speed>0.0</speed>
  <fix>3d</fix>
</trkpt>
<trkpt lat="33.810313" lon="-118.393867">
  <ele>-0.125</ele>
  <time>2026-09-02T22:11:50Z</time>
  <course>188.53</course>
  <speed>0.0</speed>
  <fix>3d</fix>
</trkpt>
<trkpt lat="33.810313" lon="-118.393867">
  <ele>-0.12</ele>
  <time>2026-09-02T22:11:50Z</time>
  <course>0.0</course>
  <speed>0.0</speed>
  <fix>3d</fix>
</trkpt>
<trkpt lat="33.810313" lon="-118.393867">
  <ele>-0.123</ele>
  <time>2026-09-02T22:11:50Z</time>
  <course>188.53</course>
  <speed>0.0</speed>
  <fix>3d</fix>
</trkpt>
<trkpt lat="33.810313" lon="-118.393867">
  <ele>-0.12</ele>
  <time>2026-09-02T22:11:50Z</time>
  <course>0.0</course>
  <speed>0.0</speed>
  <fix>3d</fix>
</trkpt>
<trkpt lat="33.810313" lon="-118.393867">
  <ele>-0.121</ele>
  <time>2026-09-02T22:11:50Z</time>
  <course>188.52</course>
  <speed>0.0</speed>
  <fix>3d</fix>
</trkpt>
<trkpt lat="33.810313" lon="-118.393867">
  <ele>-0.12</ele>
  <time>2026-09-02T22:11:50Z</time>
  <course>0.0</course>
  <speed>0.0</speed>
  <fix>3d</fix>
</trkpt>
<trkpt lat="33.810313" lon="-118.393867">
  <ele>-0.121</ele>
  <time>2026-09-02T22:11:50Z</time>
  <course>188.52</course>
  <speed>0.0</speed>
  <fix>3d</fix>
</trkpt>
<trkpt lat="33.810313" lon="-118.393867">
  <ele>-0.12</ele>
  <time>2026-09-02T22:11:50Z</time>
  <course>0.0</course>
  <speed>0.0</speed>
  <fix>3d</fix>
</trkpt>
<trkpt lat="33.810313" lon="-118.393867">
  <ele>-0.121</ele>
  <time>2026-09-02T22:11:50Z</time>
  <course>188.51</course>
  <speed>0.0</speed>
  <fix>3d</fix>
</trkpt>
<trkpt lat="33.810313" lon="-118.393867">
  <ele>-0.12</ele>
  <time>2026-09-02T22:11:50Z</time>
  <course>0.0</course>
  <speed>0.0</speed>
  <fix>3d</fix>
</trkpt>
<trkpt lat="33.810313" lon="-118.393867">
  <ele>-0.123</ele>
  <time>2026-09-02T22:11:50Z</time>
  <course>188.51</course>
  <speed>0.0</speed>
  <fix>3d</fix>
</trkpt>
<trkpt lat="33.810313" lon="-118.393867">
  <ele>-0.12</ele>
  <time>2026-09-02T22:11:50Z</time>
  <course>0.0</course>
  <speed>0.0</speed>
  <fix>3d</fix>
</trkpt>
<trkpt lat="33.810313" lon="-118.393867">
  <ele>-0.126</ele>
  <time>2026-09-02T22:11:50Z</time>
  <course>188.5</course>
  <speed>0.0</speed>
  <fix>3d</fix>
</trkpt>
<trkpt lat="33.810313" lon="-118.393867">
  <ele>-0.12</ele>
  <time>2026-09-02T22:11:50Z</time>
  <course>0.0</course>
  <speed>0.0</speed>
  <fix>3d</fix>
</trkpt>
<trkpt lat="33.810313" lon="-118.393867">
  <ele>-0.127</ele>
  <time>2026-09-02T22:11:50Z</time>
  <course>188.5</course>
  <speed>0.0</speed>
  <fix>3d</fix>
</trkpt>
<trkpt lat="33.810313" lon="-118.393867">
  <ele>-0.12</ele>
  <time>2026-09-02T22:11:50Z</time>
  <course>0.0</course>
  <speed>0.0</speed>
  <fix>3d</fix>
</trkpt>
<trkpt lat="33.810313" lon="-118.393867">
  <ele>-0.128</ele>
  <time>2026-09-02T22:11:50Z</time>
  <course>188.49</course>
  <speed>0.0</speed>
  <fix>3d</fix>
</trkpt>
<trkpt lat="33.810313" lon="-118.393867">
  <ele>-0.12</ele>
  <time>2026-09-02T22:11:50Z</time>
  <course>0.0</course>
  <speed>0.0</speed>
  <fix>3d</fix>
</trkpt>
<trkpt lat="33.810313" lon="-118.393867">
  <ele>-0.127</ele>
  <time>2026-09-02T22:11:50Z</time>
  <course>188.49</course>
  <speed>0.0</speed>
  <fix>3d</fix>
</trkpt>
<trkpt lat="33.810313" lon="-118.393867">
  <ele>-0.12</ele>
  <time>2026-09-02T22:11:50Z</time>
  <course>0.0</course>
  <speed>0.0</speed>
  <fix>3d</fix>
</trkpt>
<trkpt lat="33.810313" lon="-118.393867">
  <ele>-0.127</ele>
  <time>2026-09-02T22:11:50Z</time>
  <course>188.48</course>
  <speed>0.0</speed>
  <fix>3d</fix>
</trkpt>
<trkpt lat="33.810313" lon="-118.393867">
  <ele>-0.12</ele>
  <time>2026-09-02T22:11:50Z</time>
  <course>0.0</course>
  <speed>0.0</speed>
  <fix>3d</fix>
</trkpt>
<trkpt lat="33.810313" lon="-118.393867">
  <ele>-0.127</ele>
  <time>2026-09-02T22:11:50Z</time>
  <course>188.47</course>
  <speed>0.01</speed>
  <fix>3d</fix>
</trkpt>
<trkpt lat="33.810313" lon="-118.393867">
  <ele>-0.12</ele>
  <time>2026-09-02T22:11:50Z</time>
  <course>0.0</course>
  <speed>0.0</speed>
  <fix>3d</fix>
</trkpt>
<trkpt lat="33.810313" lon="-118.393867">
  <ele>-0.127</ele>
  <time>2026-09-02T22:11:50Z</time>
  <course>188.47</course>
  <speed>0.01</speed>
  <fix>3d</fix>
</trkpt>
<trkpt lat="33.810313" lon="-118.393867">
  <ele>-0.12</ele>
  <time>2026-09-02T22:11:50Z</time>
  <course>0.0</course>
  <speed>0.0</speed>
  <fix>3d</fix>
</trkpt>
<trkpt lat="33.810313" lon="-118.393867">
  <ele>-0.127</ele>
  <time>2026-09-02T22:11:50Z</time>
  <course>188.46</course>
  <speed>0.01</speed>
  <fix>3d</fix>
</trkpt>
<trkpt lat="33.810313" lon="-118.393867">
  <ele>-0.12</ele>
  <time>2026-09-02T22:11:50Z</time>
  <course>0.0</course>
  <speed>0.0</speed>
  <fix>3d</fix>
</trkpt>
<trkpt lat="33.810313" lon="-118.393867">
  <ele>-0.126</ele>
  <time>2026-09-02T22:11:50Z</time>
  <course>188.45</course>
  <speed>0.01</speed>
  <fix>3d</fix>
</trkpt>
<trkpt lat="33.810313" lon="-118.393867">
  <ele>-0.12</ele>
  <time>2026-09-02T22:11:50Z</time>
  <course>0.0</course>
  <speed>0.0</speed>
  <fix>3d</fix>
</trkpt>
<trkpt lat="33.810313" lon="-118.393867">
  <ele>-0.126</ele>
  <time>2026-09-02T22:11:50Z</time>
  <course>188.45</course>
  <speed>0.01</speed>
  <fix>3d</fix>
</trkpt>
<trkpt lat="33.810313" lon="-118.393867">
  <ele>-0.12</ele>
  <time>2026-09-02T22:11:50Z</time>
  <course>0.0</course>
  <speed>0.0</speed>
  <fix>3d</fix>
</trkpt>
<trkpt lat="33.810313" lon="-118.393867">
  <ele>-0.125</ele>
  <time>2026-09-02T22:11:50Z</time>
  <course>188.44</course>
  <speed>0.01</speed>
  <fix>3d</fix>
</trkpt>
<trkpt lat="33.810313" lon="-118.393867">
  <ele>-0.12</ele>
  <time>2026-09-02T22:11:50Z</time>
  <course>0.0</course>
  <speed>0.0</speed>
  <fix>3d</fix>
</trkpt>
<trkpt lat="33.810313" lon="-118.393867">
  <ele>-0.126</ele>
  <time>2026-09-02T22:11:50Z</time>
  <course>188.43</course>
  <speed>0.01</speed>
  <fix>3d</fix>
</trkpt>
<trkpt lat="33.810313" lon="-118.393867">
  <ele>-0.12</ele>
  <time>2026-09-02T22:11:50Z</time>
  <course>0.0</course>
  <speed>0.0</speed>
  <fix>3d</fix>
</trkpt>
<trkpt lat="33.810313" lon="-118.393867">
  <ele>-0.127</ele>
  <time>2026-09-02T22:11:50Z</time>
  <course>188.42</course>
  <speed>0.01</speed>
  <fix>3d</fix>
</trkpt>
<trkpt lat="33.810313" lon="-118.393867">
  <ele>-0.12</ele>
  <time>2026-09-02T22:11:50Z</time>
  <course>0.0</course>
  <speed>0.0</speed>
  <fix>3d</fix>
</trkpt>
<trkpt lat="33.810313" lon="-118.393867">
  <ele>-0.128</ele>
  <time>2026-09-02T22:11:50Z</time>
  <course>188.42</course>
  <speed>0.01</speed>
  <fix>3d</fix>
</trkpt>
<trkpt lat="33.810313" lon="-118.393867">
  <ele>-0.12</ele>
  <time>2026-09-02T22:11:50Z</time>
  <course>0.0</course>
  <speed>0.0</speed>
  <fix>3d</fix>
</trkpt>
<trkpt lat="33.810313" lon="-118.393867">
  <ele>-0.129</ele>
  <time>2026-09-02T22:11:50Z</time>
  <course>188.41</course>
  <speed>0.01</speed>
  <fix>3d</fix>
</trkpt>
<trkpt lat="33.810313" lon="-118.393867">
  <ele>-0.12</ele>
  <time>2026-09-02T22:11:50Z</time>
  <course>0.0</course>
  <speed>0.0</speed>
  <fix>3d</fix>
</trkpt>
<trkpt lat="33.810313" lon="-118.393867">
  <ele>-0.129</ele>
  <time>2026-09-02T22:11:50Z</time>
  <course>188.4</course>
  <speed>0.01</speed>
  <fix>3d</fix>
</trkpt>
<trkpt lat="33.810313" lon="-118.393867">
  <ele>-0.12</ele>
  <time>2026-09-02T22:11:50Z</time>
  <course>0.0</course>
  <speed>0.0</speed>
  <fix>3d</fix>
</trkpt>
<trkpt lat="33.810313" lon="-118.393867">
  <ele>-0.13</ele>
  <time>2026-09-02T22:11:50Z</time>
  <course>188.4</course>
  <speed>0.01414213562373095</speed>
  <fix>3d</fix>
</trkpt>
<trkpt lat="33.810313" lon="-118.393867">
  <ele>-0.12</ele>
  <time>2026-09-02T22:11:50Z</time>
  <course>0.0</course>
  <speed>0.0</speed>
  <fix>3d</fix>
</trkpt>
<trkpt lat="33.810313" lon="-118.393867">
  <ele>-0.13</ele>
  <time>2026-09-02T22:11:50Z</time>
  <course>188.39</course>
  <speed>0.01414213562373095</speed>
  <fix>3d</fix>
</trkpt>
<trkpt lat="33.810313" lon="-118.393867">
  <ele>-0.12</ele>
  <time>2026-09-02T22:11:50Z</time>
  <course>0.0</course>
  <speed>0.0</speed>
  <fix>3d</fix>
</trkpt>
<trkpt lat="33.810313" lon="-118.393867">
  <ele>-0.13</ele>
  <time>2026-09-02T22:11:50Z</time>
  <course>188.38</course>
  <speed>0.01414213562373095</speed>
  <fix>3d</fix>
</trkpt>
<trkpt lat="33.810313" lon="-118.393867">
  <ele>-0.12</ele>
  <time>2026-09-02T22:11:50Z</time>
  <course>0.0</course>
  <speed>0.0</speed>
  <fix>3d</fix>
</trkpt>
<trkpt lat="33.810313" lon="-118.393867">
  <ele>-0.129</ele>
  <time>2026-09-02T22:11:50Z</time>
  <course>188.37</course>
  <speed>0.01414213562373095</speed>
  <fix>3d</fix>
</trkpt>
<trkpt lat="33.810313" lon="-118.393867">
  <ele>-0.12</ele>
  <time>2026-09-02T22:11:50Z</time>
  <course>0.0</course>
  <speed>0.0</speed>
  <fix>3d</fix>
</trkpt>
<trkpt lat="33.810313" lon="-118.393867">
  <ele>-0.128</ele>
  <time>2026-09-02T22:11:50Z</time>
  <course>188.37</course>
  <speed>0.01414213562373095</speed>
  <fix>3d</fix>
</trkpt>
<trkpt lat="33.810313" lon="-118.393867">
  <ele>-0.12</ele>
  <time>2026-09-02T22:11:50Z</time>
  <course>0.0</course>
  <speed>0.0</speed>
  <fix>3d</fix>
</trkpt>
<trkpt lat="33.810313" lon="-118.393867">
  <ele>-0.126</ele>
  <time>2026-09-02T22:11:50Z</time>
  <course>188.36</course>
  <speed>0.01414213562373095</speed>
  <fix>3d</fix>
</trkpt>
<trkpt lat="33.810313" lon="-118.393867">
  <ele>-0.12</ele>
  <time>2026-09-02T22:11:50Z</time>
  <course>0.0</course>
  <speed>0.0</speed>
  <fix>3d</fix>
</trkpt>
<trkpt lat="33.810313" lon="-118.393867">
  <ele>-0.124</ele>
  <time>2026-09-02T22:11:50Z</time>
  <course>188.35</course>
  <speed>0.01414213562373095</speed>
  <fix>3d</fix>
</trkpt>
<trkpt lat="33.810313" lon="-118.393867">
  <ele>-0.12</ele>
  <time>2026-09-02T22:11:50Z</time>
  <course>0.0</course>
  <speed>0.0</speed>
  <fix>3d</fix>
</trkpt>
<trkpt lat="33.810313" lon="-118.393867">
  <ele>-0.122</ele>
  <time>2026-09-02T22:11:50Z</time>
  <course>188.34</course>
  <speed>0.01414213562373095</speed>
  <fix>3d</fix>
</trkpt>
<trkpt lat="33.810313" lon="-118.393867">
  <ele>-0.12</ele>
  <time>2026-09-02T22:11:50Z</time>
  <course>0.0</course>
  <speed>0.0</speed>
  <fix>3d</fix>
</trkpt>
<trkpt lat="33.810313" lon="-118.393867">
  <ele>-0.123</ele>
  <time>2026-09-02T22:11:50Z</time>
  <course>188.34</course>
  <speed>0.01414213562373095</speed>
  <fix>3d</fix>
</trkpt>
<trkpt lat="33.810313" lon="-118.393867">
  <ele>-0.12</ele>
  <time>2026-09-02T22:11:50Z</time>
  <course>0.0</course>
  <speed>0.0</speed>
  <fix>3d</fix>
</trkpt>
<trkpt lat="33.810313" lon="-118.393867">
  <ele>-0.125</ele>
  <time>2026-09-02T22:11:50Z</time>
  <course>188.33</course>
  <speed>0.01414213562373095</speed>
  <fix>3d</fix>
</trkpt>
<trkpt lat="33.810313" lon="-118.393867">
  <ele>-0.12</ele>
  <time>2026-09-02T22:11:50Z</time>
  <course>0.0</course>
  <speed>0.0</speed>
  <fix>3d</fix>
</trkpt>
<trkpt lat="33.810313" lon="-118.393867">
  <ele>-0.128</ele>
  <time>2026-09-02T22:11:50Z</time>
  <course>188.32</course>
  <speed>0.01414213562373095</speed>
  <fix>3d</fix>
</trkpt>
<trkpt lat="33.810313" lon="-118.393867">
  <ele>-0.12</ele>
  <time>2026-09-02T22:11:50Z</time>
  <course>0.0</course>
  <speed>0.0</speed>
  <fix>3d</fix>
</trkpt>
<trkpt lat="33.810313" lon="-118.393867">
  <ele>-0.131</ele>
  <time>2026-09-02T22:11:50Z</time>
  <course>188.31</course>
  <speed>0.01414213562373095</speed>
  <fix>3d</fix>
</trkpt>
<trkpt lat="33.810313" lon="-118.393867">
  <ele>-0.12</ele>
  <time>2026-09-02T22:11:50Z</time>
  <course>0.0</course>
  <speed>0.0</speed>
  <fix>3d</fix>
</trkpt>
<trkpt lat="33.810313" lon="-118.393867">
  <ele>-0.134</ele>
  <time>2026-09-02T22:11:50Z</time>
  <course>188.3</course>
  <speed>0.01414213562373095</speed>
  <fix>3d</fix>
</trkpt>
<trkpt lat="33.810313" lon="-118.393867">
  <ele>-0.12</ele>
  <time>2026-09-02T22:11:50Z</time>
  <course>0.0</course>
  <speed>0.0</speed>
  <fix>3d</fix>
</trkpt>
<trkpt lat="33.810313" lon="-118.393867">
  <ele>-0.135</ele>
  <time>2026-09-02T22:11:50Z</time>
  <course>188.3</course>
  <speed>0.01414213562373095</speed>
  <fix>3d</fix>
</trkpt>
<trkpt lat="33.810313" lon="-118.393867">
  <ele>-0.12</ele>
  <time>2026-09-02T22:11:50Z</time>
  <course>0.0</course>
  <speed>0.0</speed>
  <fix>3d</fix>
</trkpt>
<trkpt lat="33.810313" lon="-118.393867">
  <ele>-0.134</ele>
  <time>2026-09-02T22:11:50Z</time>
  <course>188.29</course>
  <speed>0.01414213562373095</speed>
  <fix>3d</fix>
</trkpt>
<trkpt lat="33.810313" lon="-118.393867">
  <ele>-0.12</ele>
  <time>2026-09-02T22:11:50Z</time>
  <course>0.0</course>
  <speed>0.0</speed>
  <fix>3d</fix>
</trkpt>
<trkpt lat="33.810313" lon="-118.393867">
  <ele>-0.132</ele>
  <time>2026-09-02T22:11:50Z</time>
  <course>188.28</course>
  <speed>0.01414213562373095</speed>
  <fix>3d</fix>
</trkpt>
<trkpt lat="33.810313" lon="-118.393867">
  <ele>-0.12</ele>
  <time>2026-09-02T22:11:50Z</time>
  <course>0.0</course>
  <speed>0.0</speed>
  <fix>3d</fix>
</trkpt>
<trkpt lat="33.810313" lon="-118.393867">
  <ele>-0.13</ele>
  <time>2026-09-02T22:11:50Z</time>
  <course>188.27</course>
  <speed>0.01414213562373095</speed>
  <fix>3d</fix>
</trkpt>
<trkpt lat="33.810313" lon="-118.393867">
  <ele>-0.12</ele>
  <time>2026-09-02T22:11:50Z</time>
  <course>0.0</course>
  <speed>0.0</speed>
  <fix>3d</fix>
</trkpt>
<trkpt lat="33.810313" lon="-118.393867">
  <ele>-0.127</ele>
  <time>2026-09-02T22:11:50Z</time>
  <course>188.26</course>
  <speed>0.01414213562373095</speed>
  <fix>3d</fix>
</trkpt>
<trkpt lat="33.810313" lon="-118.393867">
  <ele>-0.12</ele>
  <time>2026-09-02T22:11:50Z</time>
  <course>0.0</course>
  <speed>0.0</speed>
  <fix>3d</fix>
</trkpt>
<trkpt lat="33.810313" lon="-118.393867">
  <ele>-0.125</ele>
  <time>2026-09-02T22:11:50Z</time>
  <course>188.25</course>
  <speed>0.01414213562373095</speed>
  <fix>3d</fix>
</trkpt>
<trkpt lat="33.810313" lon="-118.393867">
  <ele>-0.12</ele>
  <time>2026-09-02T22:11:50Z</time>
  <course>0.0</course>
  <speed>0.0</speed>
  <fix>3d</fix>
</trkpt>
<trkpt lat="33.810313" lon="-118.393867">
  <ele>-0.123</ele>
  <time>2026-09-02T22:11:50Z</time>
  <course>188.25</course>
  <speed>0.01414213562373095</speed>
  <fix>3d</fix>
</trkpt>
<trkpt lat="33.810313" lon="-118.393867">
  <ele>-0.12</ele>
  <time>2026-09-02T22:11:50Z</time>
  <course>0.0</course>
  <speed>0.0</speed>
  <fix>3d</fix>
</trkpt>
<trkpt lat="33.810313" lon="-118.393867">
  <ele>-0.124</ele>
  <time>2026-09-02T22:11:50Z</time>
  <course>188.24</course>
  <speed>0.01414213562373095</speed>
  <fix>3d</fix>
</trkpt>
<trkpt lat="33.810313" lon="-118.393867">
  <ele>-0.12</ele>
  <time>2026-09-02T22:11:50Z</time>
  <course>0.0</course>
  <speed>0.0</speed>
  <fix>3d</fix>
</trkpt>
<trkpt lat="33.810313" lon="-118.393867">
  <ele>-0.125</ele>
  <time>2026-09-02T22:11:50Z</time>
  <course>188.23</course>
  <speed>0.01414213562373095</speed>
  <fix>3d</fix>
</trkpt>
<trkpt lat="33.810313" lon="-118.393867">
  <ele>-0.12</ele>
  <time>2026-09-02T22:11:50Z</time>
  <course>0.0</course>
  <speed>0.0</speed>
  <fix>3d</fix>
</trkpt>
<trkpt lat="33.810313" lon="-118.393867">
  <ele>-0.127</ele>
  <time>2026-09-02T22:11:50Z</time>
  <course>188.22</course>
  <speed>0.01414213562373095</speed>
  <fix>3d</fix>
</trkpt>
<trkpt lat="33.810313" lon="-118.393867">
  <ele>-0.12</ele>
  <time>2026-09-02T22:11:50Z</time>
  <course>0.0</course>
  <speed>0.0</speed>
  <fix>3d</fix>
</trkpt>
<trkpt lat="33.810313" lon="-118.393867">
  <ele>-0.128</ele>
  <time>2026-09-02T22:11:50Z</time>
  <course>188.21</course>
  <speed>0.01414213562373095</speed>
  <fix>3d</fix>
</trkpt>
<trkpt lat="33.810313" lon="-118.393867">
  <ele>-0.12</ele>
  <time>2026-09-02T22:11:50Z</time>
  <course>0.0</course>
  <speed>0.0</speed>
  <fix>3d</fix>
</trkpt>
<trkpt lat="33.810313" lon="-118.393867">
  <ele>-0.129</ele>
  <time>2026-09-02T22:11:50Z</time>
  <course>188.21</course>
  <speed>0.01414213562373095</speed>
  <fix>3d</fix>
</trkpt>
<trkpt lat="33.810313" lon="-118.393867">
  <ele>-0.12</ele>
  <time>2026-09-02T22:11:50Z</time>
  <course>0.0</course>
  <speed>0.0</speed>
  <fix>3d</fix>
</trkpt>
<trkpt lat="33.810313" lon="-118.393867">
  <ele>-0.129</ele>
  <time>2026-09-02T22:11:50Z</time>
  <course>188.2</course>
  <speed>0.01414213562373095</speed>
  <fix>3d</fix>
</trkpt>
<trkpt lat="33.810313" lon="-118.393867">
  <ele>-0.12</ele>
  <time>2026-09-02T22:11:50Z</time>
  <course>0.0</course>
  <speed>0.0</speed>
  <fix>3d</fix>
</trkpt>
<trkpt lat="33.810313" lon="-118.393867">
  <ele>-0.128</ele>
  <time>2026-09-02T22:11:50Z</time>
  <course>188.19</course>
  <speed>0.01414213562373095</speed>
  <fix>3d</fix>
</trkpt>
<trkpt lat="33.810313" lon="-118.393867">
  <ele>-0.12</ele>
  <time>2026-09-02T22:11:50Z</time>
  <course>0.0</course>
  <speed>0.0</speed>
  <fix>3d</fix>
</trkpt>
<trkpt lat="33.810313" lon="-118.393867">
  <ele>-0.128</ele>
  <time>2026-09-02T22:11:50Z</time>
  <course>188.18</course>
  <speed>0.01414213562373095</speed>
  <fix>3d</fix>
</trkpt>
<trkpt lat="33.810313" lon="-118.393867">
  <ele>-0.12</ele>
  <time>2026-09-02T22:11:50Z</time>
  <course>0.0</course>
  <speed>0.0</speed>
  <fix>3d</fix>
</trkpt>
<trkpt lat="33.810313" lon="-118.393867">
  <ele>-0.127</ele>
  <time>2026-09-02T22:11:50Z</time>
  <course>188.17</course>
  <speed>0.01414213562373095</speed>
  <fix>3d</fix>
</trkpt>
<trkpt lat="33.810313" lon="-118.393867">
  <ele>-0.12</ele>
  <time>2026-09-02T22:11:50Z</time>
  <course>0.0</course>
  <speed>0.0</speed>
  <fix>3d</fix>
</trkpt>
<trkpt lat="33.810313" lon="-118.393867">
  <ele>-0.127</ele>
  <time>2026-09-02T22:11:50Z</time>
  <course>188.16</course>
  <speed>0.01414213562373095</speed>
  <fix>3d</fix>
</trkpt>
<trkpt lat="33.810313" lon="-118.393867">
  <ele>-0.12</ele>
  <time>2026-09-02T22:11:50Z</time>
  <course>0.0</course>
  <speed>0.0</speed>
  <fix>3d</fix>
</trkpt>
<trkpt lat="33.810313" lon="-118.393867">
  <ele>-0.128</ele>
  <time>2026-09-02T22:11:50Z</time>
  <course>188.16</course>
  <speed>0.01414213562373095</speed>
  <fix>3d</fix>
</trkpt>
<trkpt lat="33.810313" lon="-118.393867">
  <ele>-0.12</ele>
  <time>2026-09-02T22:11:50Z</time>
  <course>0.0</course>
  <speed>0.0</speed>
  <fix>3d</fix>
</trkpt>
<trkpt lat="33.810313" lon="-118.393867">
  <ele>-0.129</ele>
  <time>2026-09-02T22:11:50Z</time>
  <course>188.15</course>
  <speed>0.01414213562373095</speed>
  <fix>3d</fix>
</trkpt>
<trkpt lat="33.810313" lon="-118.393867">
  <ele>-0.12</ele>
  <time>2026-09-02T22:11:50Z</time>
  <course>0.0</course>
  <speed>0.0</speed>
  <fix>3d</fix>
</trkpt>
<trkpt lat="33.810313" lon="-118.393867">
  <ele>-0.131</ele>
  <time>2026-09-02T22:11:50Z</time>
  <course>188.14</course>
  <speed>0.01414213562373095</speed>
  <fix>3d</fix>
</trkpt>
<trkpt lat="33.810313" lon="-118.393867">
  <ele>-0.12</ele>
  <time>2026-09-02T22:11:50Z</time>
  <course>0.0</course>
  <speed>0.0</speed>
  <fix>3d</fix>
</trkpt>
<trkpt lat="33.810313" lon="-118.393867">
  <ele>-0.133</ele>
  <time>2026-09-02T22:11:50Z</time>
  <course>188.13</course>
  <speed>0.01414213562373095</speed>
  <fix>3d</fix>
</trkpt>
<trkpt lat="33.810313" lon="-118.393867">
  <ele>-0.12</ele>
  <time>2026-09-02T22:11:50Z</time>
  <course>0.0</course>
  <speed>0.0</speed>
  <fix>3d</fix>
</trkpt>
<trkpt lat="33.810313" lon="-118.393867">
  <ele>-0.135</ele>
  <time>2026-09-02T22:11:50Z</time>
  <course>188.12</course>
  <speed>0.01414213562373095</speed>
  <fix>3d</fix>
</trkpt>
<trkpt lat="33.810313" lon="-118.393867">
  <ele>-0.12</ele>
  <time>2026-09-02T22:11:50Z</time>
  <course>0.0</course>
  <speed>0.0</speed>
  <fix>3d</fix>
</trkpt>
<trkpt lat="33.810313" lon="-118.393867">
  <ele>-0.136</ele>
  <time>2026-09-02T22:11:50Z</time>
  <course>188.12</course>
  <speed>0.01414213562373095</speed>
  <fix>3d</fix>
</trkpt>
<trkpt lat="33.810313" lon="-118.393867">
  <ele>-0.12</ele>
  <time>2026-09-02T22:11:50Z</time>
  <course>0.0</course>
  <speed>0.0</speed>
  <fix>3d</fix>
</trkpt>
<trkpt lat="33.810313" lon="-118.393867">
  <ele>-0.136</ele>
  <time>2026-09-02T22:11:51Z</time>
  <course>188.11</course>
  <speed>0.01414213562373095</speed>
  <fix>3d</fix>
</trkpt>
<trkpt lat="33.810313" lon="-118.393867">
  <ele>-0.12</ele>
  <time>2026-09-02T22:11:51Z</time>
  <course>0.0</course>
  <speed>0.0</speed>
  <fix>3d</fix>
</trkpt>
<trkpt lat="33.810313" lon="-118.393867">
  <ele>-0.136</ele>
  <time>2026-09-02T22:11:51Z</time>
  <course>188.1</course>
  <speed>0.01414213562373095</speed>
  <fix>3d</fix>
</trkpt>
<trkpt lat="33.810313" lon="-118.393867">
  <ele>-0.12</ele>
  <time>2026-09-02T22:11:51Z</time>
  <course>0.0</course>
  <speed>0.0</speed>
  <fix>3d</fix>
</trkpt>
<trkpt lat="33.810313" lon="-118.393867">
  <ele>-0.135</ele>
  <time>2026-09-02T22:11:51Z</time>
  <course>188.09</course>
  <speed>0.01414213562373095</speed>
  <fix>3d</fix>
</trkpt>
<trkpt lat="33.810313" lon="-118.393867">
  <ele>-0.12</ele>
  <time>2026-09-02T22:11:51Z</time>
  <course>0.0</course>
  <speed>0.0</speed>
  <fix>3d</fix>
</trkpt>
<trkpt lat="33.810313" lon="-118.393867">
  <ele>-0.134</ele>
  <time>2026-09-02T22:11:51Z</time>
  <course>188.08</course>
  <speed>0.01414213562373095</speed>
  <fix>3d</fix>
</trkpt>
<trkpt lat="33.810313" lon="-118.393867">
  <ele>-0.12</ele>
  <time>2026-09-02T22:11:51Z</time>
  <course>0.0</course>
  <speed>0.0</speed>
  <fix>3d</fix>
</trkpt>
<trkpt lat="33.810313" lon="-118.393867">
  <ele>-0.131</ele>
  <time>2026-09-02T22:11:51Z</time>
  <course>188.07</course>
  <speed>0.022360679774997897</speed>
  <fix>3d</fix>
</trkpt>
<trkpt lat="33.810313" lon="-118.393867">
  <ele>-0.12</ele>
  <time>2026-09-02T22:11:51Z</time>
  <course>0.0</course>
  <speed>0.0</speed>
  <fix>3d</fix>
</trkpt>
<trkpt lat="33.810313" lon="-118.393867">
  <ele>-0.128</ele>
  <time>2026-09-02T22:11:51Z</time>
  <course>188.07</course>
  <speed>0.022360679774997897</speed>
  <fix>3d</fix>
</trkpt>
<trkpt lat="33.810313" lon="-118.393867">
  <ele>-0.12</ele>
  <time>2026-09-02T22:11:51Z</time>
  <course>0.0</course>
  <speed>0.0</speed>
  <fix>3d</fix>
</trkpt>
<trkpt lat="33.810313" lon="-118.393867">
  <ele>-0.127</ele>
  <time>2026-09-02T22:11:51Z</time>
  <course>188.06</course>
  <speed>0.022360679774997897</speed>
  <fix>3d</fix>
</trkpt>
<trkpt lat="33.810313" lon="-118.393867">
  <ele>-0.12</ele>
  <time>2026-09-02T22:11:51Z</time>
  <course>0.0</course>
  <speed>0.0</speed>
  <fix>3d</fix>
</trkpt>
<trkpt lat="33.810313" lon="-118.393867">
  <ele>-0.126</ele>
  <time>2026-09-02T22:11:51Z</time>
  <course>188.05</course>
  <speed>0.022360679774997897</speed>
  <fix>3d</fix>
</trkpt>
<trkpt lat="33.810313" lon="-118.393867">
  <ele>-0.12</ele>
  <time>2026-09-02T22:11:51Z</time>
  <course>0.0</course>
  <speed>0.0</speed>
  <fix>3d</fix>
</trkpt>
<trkpt lat="33.810313" lon="-118.393867">
  <ele>-0.126</ele>
  <time>2026-09-02T22:11:51Z</time>
  <course>188.04</course>
  <speed>0.022360679774997897</speed>
  <fix>3d</fix>
</trkpt>
<trkpt lat="33.810313" lon="-118.393867">
  <ele>-0.12</ele>
  <time>2026-09-02T22:11:51Z</time>
  <course>0.0</course>
  <speed>0.0</speed>
  <fix>3d</fix>
</trkpt>
<trkpt lat="33.810313" lon="-118.393867">
  <ele>-0.127</ele>
  <time>2026-09-02T22:11:51Z</time>
  <course>188.03</course>
  <speed>0.022360679774997897</speed>
  <fix>3d</fix>
</trkpt>
<trkpt lat="33.810313" lon="-118.393867">
  <ele>-0.12</ele>
  <time>2026-09-02T22:11:51Z</time>
  <course>0.0</course>
  <speed>0.0</speed>
  <fix>3d</fix>
</trkpt>
<trkpt lat="33.810313" lon="-118.393867">
  <ele>-0.127</ele>
  <time>2026-09-02T22:11:51Z</time>
  <course>188.03</course>
  <speed>0.022360679774997897</speed>
  <fix>3d</fix>
</trkpt>
<trkpt lat="33.810313" lon="-118.393867">
  <ele>-0.12</ele>
  <time>2026-09-02T22:11:51Z</time>
  <course>0.0</course>
  <speed>0.0</speed>
  <fix>3d</fix>
</trkpt>
<trkpt lat="33.810313" lon="-118.393867">
  <ele>-0.127</ele>
  <time>2026-09-02T22:11:51Z</time>
  <course>188.02</course>
  <speed>0.022360679774997897</speed>
  <fix>3d</fix>
</trkpt>
<trkpt lat="33.810313" lon="-118.393867">
  <ele>-0.12</ele>
  <time>2026-09-02T22:11:51Z</time>
  <course>0.0</course>
  <speed>0.0</speed>
  <fix>3d</fix>
</trkpt>
<trkpt lat="33.810313" lon="-118.393867">
  <ele>-0.128</ele>
  <time>2026-09-02T22:11:51Z</time>
  <course>188.01</course>
  <speed>0.022360679774997897</speed>
  <fix>3d</fix>
</trkpt>
<trkpt lat="33.810313" lon="-118.393867">
  <ele>-0.12</ele>
  <time>2026-09-02T22:11:51Z</time>
  <course>0.0</course>
  <speed>0.0</speed>
  <fix>3d</fix>
</trkpt>
<trkpt lat="33.810313" lon="-118.393867">
  <ele>-0.128</ele>
  <time>2026-09-02T22:11:51Z</time>
  <course>188.0</course>
  <speed>0.022360679774997897</speed>
  <fix>3d</fix>
</trkpt>
<trkpt lat="33.810313" lon="-118.393867">
  <ele>-0.12</ele>
  <time>2026-09-02T22:11:51Z</time>
  <course>0.0</course>
  <speed>0.0</speed>
  <fix>3d</fix>
</trkpt>
<trkpt lat="33.810313" lon="-118.393867">
  <ele>-0.128</ele>
  <time>2026-09-02T22:11:51Z</time>
  <course>187.99</course>
  <speed>0.022360679774997897</speed>
  <fix>3d</fix>
</trkpt>
<trkpt lat="33.810313" lon="-118.393867">
  <ele>-0.12</ele>
  <time>2026-09-02T22:11:51Z</time>
  <course>0.0</course>
  <speed>0.0</speed>
  <fix>3d</fix>
</trkpt>
<trkpt lat="33.810313" lon="-118.393867">
  <ele>-0.126</ele>
  <time>2026-09-02T22:11:51Z</time>
  <course>187.99</course>
  <speed>0.022360679774997897</speed>
  <fix>3d</fix>
</trkpt>
<trkpt lat="33.810313" lon="-118.393867">
  <ele>-0.12</ele>
  <time>2026-09-02T22:11:51Z</time>
  <course>0.0</course>
  <speed>0.0</speed>
  <fix>3d</fix>
</trkpt>
<trkpt lat="33.810313" lon="-118.393867">
  <ele>-0.124</ele>
  <time>2026-09-02T22:11:51Z</time>
  <course>187.98</course>
  <speed>0.022360679774997897</speed>
  <fix>3d</fix>
</trkpt>
<trkpt lat="33.810313" lon="-118.393867">
  <ele>-0.12</ele>
  <time>2026-09-02T22:11:51Z</time>
  <course>0.0</course>
  <speed>0.0</speed>
  <fix>3d</fix>
</trkpt>
<trkpt lat="33.810313" lon="-118.393867">
  <ele>-0.122</ele>
  <time>2026-09-02T22:11:51Z</time>
  <course>187.97</course>
  <speed>0.022360679774997897</speed>
  <fix>3d</fix>
</trkpt>
<trkpt lat="33.810313" lon="-118.393867">
  <ele>-0.12</ele>
  <time>2026-09-02T22:11:51Z</time>
  <course>0.0</course>
  <speed>0.0</speed>
  <fix>3d</fix>
</trkpt>
<trkpt lat="33.810313" lon="-118.393867">
  <ele>-0.12</ele>
  <time>2026-09-02T22:11:51Z</time>
  <course>187.96</course>
  <speed>0.022360679774997897</speed>
  <fix>3d</fix>
</trkpt>
<trkpt lat="33.810313" lon="-118.393867">
  <ele>-0.12</ele>
  <time>2026-09-02T22:11:51Z</time>
  <course>0.0</course>
  <speed>0.0</speed>
  <fix>3d</fix>
</trkpt>
<trkpt lat="33.810313" lon="-118.393867">
  <ele>-0.12</ele>
  <time>2026-09-02T22:11:51Z</time>
  <course>187.95</course>
  <speed>0.022360679774997897</speed>
  <fix>3d</fix>
</trkpt>
<trkpt lat="33.810313" lon="-118.393867">
  <ele>-0.12</ele>
  <time>2026-09-02T22:11:51Z</time>
  <course>0.0</course>
  <speed>0.0</speed>
  <fix>3d</fix>
</trkpt>
<trkpt lat="33.810313" lon="-118.393867">
  <ele>-0.122</ele>
  <time>2026-09-02T22:11:51Z</time>
  <course>187.94</course>
  <speed>0.022360679774997897</speed>
  <fix>3d</fix>
</trkpt>
<trkpt lat="33.810313" lon="-118.393867">
  <ele>-0.12</ele>
  <time>2026-09-02T22:11:51Z</time>
  <course>0.0</course>
  <speed>0.0</speed>
  <fix>3d</fix>
</trkpt>
<trkpt lat="33.810313" lon="-118.393867">
  <ele>-0.125</ele>
  <time>2026-09-02T22:11:51Z</time>
  <course>187.94</course>
  <speed>0.022360679774997897</speed>
  <fix>3d</fix>
</trkpt>
<trkpt lat="33.810313" lon="-118.393867">
  <ele>-0.12</ele>
  <time>2026-09-02T22:11:51Z</time>
  <course>0.0</course>
  <speed>0.0</speed>
  <fix>3d</fix>
</trkpt>
<trkpt lat="33.810313" lon="-118.393867">
  <ele>-0.128</ele>
  <time>2026-09-02T22:11:51Z</time>
  <course>187.93</course>
  <speed>0.022360679774997897</speed>
  <fix>3d</fix>
</trkpt>
<trkpt lat="33.810313" lon="-118.393867">
  <ele>-0.12</ele>
  <time>2026-09-02T22:11:51Z</time>
  <course>0.0</course>
  <speed>0.0</speed>
  <fix>3d</fix>
</trkpt>
<trkpt lat="33.810313" lon="-118.393867">
  <ele>-0.131</ele>
  <time>2026-09-02T22:11:51Z</time>
  <course>187.92</course>
  <speed>0.022360679774997897</speed>
  <fix>3d</fix>
</trkpt>
<trkpt lat="33.810313" lon="-118.393867">
  <ele>-0.12</ele>
  <time>2026-09-02T22:11:51Z</time>
  <course>0.0</course>
  <speed>0.0</speed>
  <fix>3d</fix>
</trkpt>
<trkpt lat="33.810313" lon="-118.393867">
  <ele>-0.132</ele>
  <time>2026-09-02T22:11:51Z</time>
  <course>187.91</course>
  <speed>0.022360679774997897</speed>
  <fix>3d</fix>
</trkpt>
<trkpt lat="33.810313" lon="-118.393867">
  <ele>-0.12</ele>
  <time>2026-09-02T22:11:51Z</time>
  <course>0.0</course>
  <speed>0.0</speed>
  <fix>3d</fix>
</trkpt>
<trkpt lat="33.810313" lon="-118.393867">
  <ele>-0.132</ele>
  <time>2026-09-02T22:11:51Z</time>
  <course>187.91</course>
  <speed>0.022360679774997897</speed>
  <fix>3d</fix>
</trkpt>
<trkpt lat="33.810313" lon="-118.393867">
  <ele>-0.12</ele>
  <time>2026-09-02T22:11:51Z</time>
  <course>0.0</course>
  <speed>0.0</speed>
  <fix>3d</fix>
</trkpt>
<trkpt lat="33.810313" lon="-118.393867">
  <ele>-0.132</ele>
  <time>2026-09-02T22:11:51Z</time>
  <course>187.9</course>
  <speed>0.022360679774997897</speed>
  <fix>3d</fix>
</trkpt>
<trkpt lat="33.810313" lon="-118.393867">
  <ele>-0.12</ele>
  <time>2026-09-02T22:11:51Z</time>
  <course>0.0</course>
  <speed>0.0</speed>
  <fix>3d</fix>
</trkpt>
<trkpt lat="33.810313" lon="-118.393867">
  <ele>-0.13</ele>
  <time>2026-09-02T22:11:51Z</time>
  <course>187.89</course>
  <speed>0.022360679774997897</speed>
  <fix>3d</fix>
</trkpt>
<trkpt lat="33.810313" lon="-118.393867">
  <ele>-0.12</ele>
  <time>2026-09-02T22:11:51Z</time>
  <course>0.0</course>
  <speed>0.0</speed>
  <fix>3d</fix>
</trkpt>
<trkpt lat="33.810313" lon="-118.393867">
  <ele>-0.127</ele>
  <time>2026-09-02T22:11:51Z</time>
  <course>187.88</course>
  <speed>0.022360679774997897</speed>
  <fix>3d</fix>
</trkpt>
<trkpt lat="33.810313" lon="-118.393867">
  <ele>-0.12</ele>
  <time>2026-09-02T22:11:51Z</time>
  <course>0.0</course>
  <speed>0.0</speed>
  <fix>3d</fix>
</trkpt>
<trkpt lat="33.810313" lon="-118.393867">
  <ele>-0.123</ele>
  <time>2026-09-02T22:11:51Z</time>
  <course>187.87</course>
  <speed>0.022360679774997897</speed>
  <fix>3d</fix>
</trkpt>
<trkpt lat="33.810313" lon="-118.393867">
  <ele>-0.12</ele>
  <time>2026-09-02T22:11:51Z</time>
  <course>0.0</course>
  <speed>0.0</speed>
  <fix>3d</fix>
</trkpt>
<trkpt lat="33.810313" lon="-118.393867">
  <ele>-0.121</ele>
  <time>2026-09-02T22:11:51Z</time>
  <course>187.87</course>
  <speed>0.022360679774997897</speed>
  <fix>3d</fix>
</trkpt>
<trkpt lat="33.810313" lon="-118.393867">
  <ele>-0.12</ele>
  <time>2026-09-02T22:11:51Z</time>
  <course>0.0</course>
  <speed>0.0</speed>
  <fix>3d</fix>
</trkpt>
<trkpt lat="33.810313" lon="-118.393867">
  <ele>-0.121</ele>
  <time>2026-09-02T22:11:51Z</time>
  <course>187.86</course>
  <speed>0.022360679774997897</speed>
  <fix>3d</fix>
</trkpt>
<trkpt lat="33.810313" lon="-118.393867">
  <ele>-0.12</ele>
  <time>2026-09-02T22:11:51Z</time>
  <course>0.0</course>
  <speed>0.0</speed>
  <fix>3d</fix>
</trkpt>
<trkpt lat="33.810313" lon="-118.393867">
  <ele>-0.123</ele>
  <time>2026-09-02T22:11:51Z</time>
  <course>187.85</course>
  <speed>0.022360679774997897</speed>
  <fix>3d</fix>
</trkpt>
<trkpt lat="33.810313" lon="-118.393867">
  <ele>-0.12</ele>
  <time>2026-09-02T22:11:51Z</time>
  <course>0.0</course>
  <speed>0.0</speed>
  <fix>3d</fix>
</trkpt>
<trkpt lat="33.810313" lon="-118.393867">
  <ele>-0.124</ele>
  <time>2026-09-02T22:11:51Z</time>
  <course>187.84</course>
  <speed>0.022360679774997897</speed>
  <fix>3d</fix>
</trkpt>
<trkpt lat="33.810313" lon="-118.393867">
  <ele>-0.12</ele>
  <time>2026-09-02T22:11:51Z</time>
  <course>0.0</course>
  <speed>0.0</speed>
  <fix>3d</fix>
</trkpt>
<trkpt lat="33.810313" lon="-118.393867">
  <ele>-0.126</ele>
  <time>2026-09-02T22:11:51Z</time>
  <course>187.83</course>
  <speed>0.022360679774997897</speed>
  <fix>3d</fix>
</trkpt>
<trkpt lat="33.810313" lon="-118.393867">
  <ele>-0.12</ele>
  <time>2026-09-02T22:11:51Z</time>
  <course>0.0</course>
  <speed>0.0</speed>
  <fix>3d</fix>
</trkpt>
<trkpt lat="33.810313" lon="-118.393867">
  <ele>-0.127</ele>
  <time>2026-09-02T22:11:51Z</time>
  <course>187.83</course>
  <speed>0.022360679774997897</speed>
  <fix>3d</fix>
</trkpt>
<trkpt lat="33.810313" lon="-118.393867">
  <ele>-0.12</ele>
  <time>2026-09-02T22:11:51Z</time>
  <course>0.0</course>
  <speed>0.0</speed>
  <fix>3d</fix>
</trkpt>
<trkpt lat="33.810313" lon="-118.393867">
  <ele>-0.127</ele>
  <time>2026-09-02T22:11:51Z</time>
  <course>187.82</course>
  <speed>0.022360679774997897</speed>
  <fix>3d</fix>
</trkpt>
<trkpt lat="33.810313" lon="-118.393867">
  <ele>-0.12</ele>
  <time>2026-09-02T22:11:51Z</time>
  <course>0.0</course>
  <speed>0.0</speed>
  <fix>3d</fix>
</trkpt>
<trkpt lat="33.810313" lon="-118.393867">
  <ele>-0.127</ele>
  <time>2026-09-02T22:11:51Z</time>
  <course>187.81</course>
  <speed>0.022360679774997897</speed>
  <fix>3d</fix>
</trkpt>
<trkpt lat="33.810313" lon="-118.393867">
  <ele>-0.12</ele>
  <time>2026-09-02T22:11:51Z</time>
  <course>0.0</course>
  <speed>0.0</speed>
  <fix>3d</fix>
</trkpt>
<trkpt lat="33.810313" lon="-118.393867">
  <ele>-0.126</ele>
  <time>2026-09-02T22:11:51Z</time>
  <course>187.8</course>
  <speed>0.022360679774997897</speed>
  <fix>3d</fix>
</trkpt>
<trkpt lat="33.810313" lon="-118.393867">
  <ele>-0.12</ele>
  <time>2026-09-02T22:11:51Z</time>
  <course>0.0</course>
  <speed>0.0</speed>
  <fix>3d</fix>
</trkpt>
<trkpt lat="33.810313" lon="-118.393867">
  <ele>-0.124</ele>
  <time>2026-09-02T22:11:51Z</time>
  <course>187.8</course>
  <speed>0.022360679774997897</speed>
  <fix>3d</fix>
</trkpt>
<trkpt lat="33.810313" lon="-118.393867">
  <ele>-0.12</ele>
  <time>2026-09-02T22:11:51Z</time>
  <course>0.0</course>
  <speed>0.0</speed>
  <fix>3d</fix>
</trkpt>
<trkpt lat="33.810313" lon="-118.393867">
  <ele>-0.121</ele>
  <time>2026-09-02T22:11:51Z</time>
  <course>187.79</course>
  <speed>0.022360679774997897</speed>
  <fix>3d</fix>
</trkpt>
<trkpt lat="33.810313" lon="-118.393867">
  <ele>-0.12</ele>
  <time>2026-09-02T22:11:51Z</time>
  <course>0.0</course>
  <speed>0.0</speed>
  <fix>3d</fix>
</trkpt>
<trkpt lat="33.810313" lon="-118.393867">
  <ele>-0.119</ele>
  <time>2026-09-02T22:11:51Z</time>
  <course>187.78</course>
  <speed>0.022360679774997897</speed>
  <fix>3d</fix>
</trkpt>
<trkpt lat="33.810313" lon="-118.393867">
  <ele>-0.12</ele>
  <time>2026-09-02T22:11:51Z</time>
  <course>0.0</course>
  <speed>0.0</speed>
  <fix>3d</fix>
</trkpt>
<trkpt lat="33.810313" lon="-118.393867">
  <ele>-0.118</ele>
  <time>2026-09-02T22:11:51Z</time>
  <course>187.77</course>
  <speed>0.022360679774997897</speed>
  <fix>3d</fix>
</trkpt>
<trkpt lat="33.810313" lon="-118.393867">
  <ele>-0.12</ele>
  <time>2026-09-02T22:11:51Z</time>
  <course>0.0</course>
  <speed>0.0</speed>
  <fix>3d</fix>
</trkpt>
<trkpt lat="33.810313" lon="-118.393867">
  <ele>-0.118</ele>
  <time>2026-09-02T22:11:51Z</time>
  <course>187.77</course>
  <speed>0.022360679774997897</speed>
  <fix>3d</fix>
</trkpt>
<trkpt lat="33.810313" lon="-118.393867">
  <ele>-0.12</ele>
  <time>2026-09-02T22:11:51Z</time>
  <course>0.0</course>
  <speed>0.0</speed>
  <fix>3d</fix>
</trkpt>
<trkpt lat="33.810313" lon="-118.393867">
  <ele>-0.119</ele>
  <time>2026-09-02T22:11:51Z</time>
  <course>187.76</course>
  <speed>0.022360679774997897</speed>
  <fix>3d</fix>
</trkpt>
<trkpt lat="33.810313" lon="-118.393867">
  <ele>-0.12</ele>
  <time>2026-09-02T22:11:51Z</time>
  <course>0.0</course>
  <speed>0.0</speed>
  <fix>3d</fix>
</trkpt>
<trkpt lat="33.810313" lon="-118.393867">
  <ele>-0.12</ele>
  <time>2026-09-02T22:11:51Z</time>
  <course>187.75</course>
  <speed>0.022360679774997897</speed>
  <fix>3d</fix>
</trkpt>
<trkpt lat="33.810313" lon="-118.393867">
  <ele>-0.12</ele>
  <time>2026-09-02T22:11:51Z</time>
  <course>0.0</course>
  <speed>0.0</speed>
  <fix>3d</fix>
</trkpt>
<trkpt lat="33.810313" lon="-118.393867">
  <ele>-0.12</ele>
  <time>2026-09-02T22:11:51Z</time>
  <course>187.74</course>
  <speed>0.0282842712474619</speed>
  <fix>3d</fix>
</trkpt>
<trkpt lat="33.810313" lon="-118.393867">
  <ele>-0.12</ele>
  <time>2026-09-02T22:11:51Z</time>
  <course>0.0</course>
  <speed>0.0</speed>
  <fix>3d</fix>
</trkpt>
<trkpt lat="33.810313" lon="-118.393867">
  <ele>-0.12</ele>
  <time>2026-09-02T22:11:51Z</time>
  <course>187.74</course>
  <speed>0.0282842712474619</speed>
  <fix>3d</fix>
</trkpt>
<trkpt lat="33.810313" lon="-118.393867">
  <ele>-0.12</ele>
  <time>2026-09-02T22:11:51Z</time>
  <course>0.0</course>
  <speed>0.0</speed>
  <fix>3d</fix>
</trkpt>
<trkpt lat="33.810313" lon="-118.393867">
  <ele>-0.119</ele>
  <time>2026-09-02T22:11:51Z</time>
  <course>187.73</course>
  <speed>0.0282842712474619</speed>
  <fix>3d</fix>
</trkpt>
<trkpt lat="33.810313" lon="-118.393867">
  <ele>-0.12</ele>
  <time>2026-09-02T22:11:51Z</time>
  <course>0.0</course>
  <speed>0.0</speed>
  <fix>3d</fix>
</trkpt>
<trkpt lat="33.810313" lon="-118.393867">
  <ele>-0.118</ele>
  <time>2026-09-02T22:11:51Z</time>
  <course>187.72</course>
  <speed>0.0282842712474619</speed>
  <fix>3d</fix>
</trkpt>
<trkpt lat="33.810313" lon="-118.393867">
  <ele>-0.12</ele>
  <time>2026-09-02T22:11:51Z</time>
  <course>0.0</course>
  <speed>0.0</speed>
  <fix>3d</fix>
</trkpt>
<trkpt lat="33.810313" lon="-118.393867">
  <ele>-0.116</ele>
  <time>2026-09-02T22:11:51Z</time>
  <course>187.71</course>
  <speed>0.0282842712474619</speed>
  <fix>3d</fix>
</trkpt>
<trkpt lat="33.810313" lon="-118.393867">
  <ele>-0.12</ele>
  <time>2026-09-02T22:11:51Z</time>
  <course>0.0</course>
  <speed>0.0</speed>
  <fix>3d</fix>
</trkpt>
<trkpt lat="33.810313" lon="-118.393867">
  <ele>-0.114</ele>
  <time>2026-09-02T22:11:51Z</time>
  <course>187.71</course>
  <speed>0.0282842712474619</speed>
  <fix>3d</fix>
</trkpt>
<trkpt lat="33.810313" lon="-118.393867">
  <ele>-0.12</ele>
  <time>2026-09-02T22:11:51Z</time>
  <course>0.0</course>
  <speed>0.0</speed>
  <fix>3d</fix>
</trkpt>
<trkpt lat="33.810313" lon="-118.393867">
  <ele>-0.112</ele>
  <time>2026-09-02T22:11:51Z</time>
  <course>187.7</course>
  <speed>0.0282842712474619</speed>
  <fix>3d</fix>
</trkpt>
<trkpt lat="33.810313" lon="-118.393867">
  <ele>-0.12</ele>
  <time>2026-09-02T22:11:51Z</time>
  <course>0.0</course>
  <speed>0.0</speed>
  <fix>3d</fix>
</trkpt>
<trkpt lat="33.810313" lon="-118.393867">
  <ele>-0.113</ele>
  <time>2026-09-02T22:11:51Z</time>
  <course>187.69</course>
  <speed>0.0282842712474619</speed>
  <fix>3d</fix>
</trkpt>
<trkpt lat="33.810313" lon="-118.393867">
  <ele>-0.12</ele>
  <time>2026-09-02T22:11:51Z</time>
  <course>0.0</course>
  <speed>0.0</speed>
  <fix>3d</fix>
</trkpt>
<trkpt lat="33.810313" lon="-118.393867">
  <ele>-0.115</ele>
  <time>2026-09-02T22:11:51Z</time>
  <course>187.69</course>
  <speed>0.0282842712474619</speed>
  <fix>3d</fix>
</trkpt>
<trkpt lat="33.810313" lon="-118.393867">
  <ele>-0.12</ele>
  <time>2026-09-02T22:11:51Z</time>
  <course>0.0</course>
  <speed>0.0</speed>
  <fix>3d</fix>
</trkpt>
<trkpt lat="33.810313" lon="-118.393867">
  <ele>-0.119</ele>
  <time>2026-09-02T22:11:51Z</time>
  <course>187.68</course>
  <speed>0.0282842712474619</speed>
  <fix>3d</fix>
</trkpt>
<trkpt lat="33.810313" lon="-118.393867">
  <ele>-0.12</ele>
  <time>2026-09-02T22:11:51Z</time>
  <course>0.0</course>
  <speed>0.0</speed>
  <fix>3d</fix>
</trkpt>
<trkpt lat="33.810313" lon="-118.393867">
  <ele>-0.123</ele>
  <time>2026-09-02T22:11:51Z</time>
  <course>187.67</course>
  <speed>0.0282842712474619</speed>
  <fix>3d</fix>
</trkpt>
<trkpt lat="33.810313" lon="-118.393867">
  <ele>-0.12</ele>
  <time>2026-09-02T22:11:51Z</time>
  <course>0.0</course>
  <speed>0.0</speed>
  <fix>3d</fix>
</trkpt>
<trkpt lat="33.810313" lon="-118.393867">
  <ele>-0.128</ele>
  <time>2026-09-02T22:11:51Z</time>
  <course>187.66</course>
  <speed>0.0282842712474619</speed>
  <fix>3d</fix>
</trkpt>
<trkpt lat="33.810313" lon="-118.393867">
  <ele>-0.12</ele>
  <time>2026-09-02T22:11:51Z</time>
  <course>0.0</course>
  <speed>0.0</speed>
  <fix>3d</fix>
</trkpt>
<trkpt lat="33.810313" lon="-118.393867">
  <ele>-0.132</ele>
  <time>2026-09-02T22:11:51Z</time>
  <course>187.66</course>
  <speed>0.0282842712474619</speed>
  <fix>3d</fix>
</trkpt>
<trkpt lat="33.810313" lon="-118.393867">
  <ele>-0.12</ele>
  <time>2026-09-02T22:11:51Z</time>
  <course>0.0</course>
  <speed>0.0</speed>
  <fix>3d</fix>
</trkpt>
<trkpt lat="33.810313" lon="-118.393867">
  <ele>-0.134</ele>
  <time>2026-09-02T22:11:51Z</time>
  <course>187.65</course>
  <speed>0.0282842712474619</speed>
  <fix>3d</fix>
</trkpt>
<trkpt lat="33.810313" lon="-118.393867">
  <ele>-0.12</ele>
  <time>2026-09-02T22:11:51Z</time>
  <course>0.0</course>
  <speed>0.0</speed>
  <fix>3d</fix>
</trkpt>
<trkpt lat="33.810313" lon="-118.393867">
  <ele>-0.135</ele>
  <time>2026-09-02T22:11:51Z</time>
  <course>187.64</course>
  <speed>0.0282842712474619</speed>
  <fix>3d</fix>
</trkpt>
<trkpt lat="33.810313" lon="-118.393867">
  <ele>-0.12</ele>
  <time>2026-09-02T22:11:51Z</time>
  <course>0.0</course>
  <speed>0.0</speed>
  <fix>3d</fix>
</trkpt>
<trkpt lat="33.810313" lon="-118.393867">
  <ele>-0.135</ele>
  <time>2026-09-02T22:11:51Z</time>
  <course>187.64</course>
  <speed>0.0282842712474619</speed>
  <fix>3d</fix>
</trkpt>
<trkpt lat="33.810313" lon="-118.393867">
  <ele>-0.12</ele>
  <time>2026-09-02T22:11:51Z</time>
  <course>0.0</course>
  <speed>0.0</speed>
  <fix>3d</fix>
</trkpt>
<trkpt lat="33.810313" lon="-118.393867">
  <ele>-0.133</ele>
  <time>2026-09-02T22:11:51Z</time>
  <course>187.63</course>
  <speed>0.0282842712474619</speed>
  <fix>3d</fix>
</trkpt>
<trkpt lat="33.810313" lon="-118.393867">
  <ele>-0.12</ele>
  <time>2026-09-02T22:11:51Z</time>
  <course>0.0</course>
  <speed>0.0</speed>
  <fix>3d</fix>
</trkpt>
<trkpt lat="33.810313" lon="-118.393867">
  <ele>-0.132</ele>
  <time>2026-09-02T22:11:51Z</time>
  <course>187.63</course>
  <speed>0.0282842712474619</speed>
  <fix>3d</fix>
</trkpt>
<trkpt lat="33.810313" lon="-118.393867">
  <ele>-0.12</ele>
  <time>2026-09-02T22:11:51Z</time>
  <course>0.0</course>
  <speed>0.0</speed>
  <fix>3d</fix>
</trkpt>
<trkpt lat="33.810313" lon="-118.393867">
  <ele>-0.132</ele>
  <time>2026-09-02T22:11:51Z</time>
  <course>187.62</course>
  <speed>0.03605551275463989</speed>
  <fix>3d</fix>
</trkpt>
<trkpt lat="33.810313" lon="-118.393867">
  <ele>-0.12</ele>
  <time>2026-09-02T22:11:51Z</time>
  <course>0.0</course>
  <speed>0.0</speed>
  <fix>3d</fix>
</trkpt>
<trkpt lat="33.810313" lon="-118.393867">
  <ele>-0.132</ele>
  <time>2026-09-02T22:11:51Z</time>
  <course>187.61</course>
  <speed>0.03605551275463989</speed>
  <fix>3d</fix>
</trkpt>
<trkpt lat="33.810313" lon="-118.393867">
  <ele>-0.12</ele>
  <time>2026-09-02T22:11:51Z</time>
  <course>0.0</course>
  <speed>0.0</speed>
  <fix>3d</fix>
</trkpt>
<trkpt lat="33.810313" lon="-118.393867">
  <ele>-0.133</ele>
  <time>2026-09-02T22:11:51Z</time>
  <course>187.61</course>
  <speed>0.03605551275463989</speed>
  <fix>3d</fix>
</trkpt>
<trkpt lat="33.810313" lon="-118.393867">
  <ele>-0.12</ele>
  <time>2026-09-02T22:11:51Z</time>
  <course>0.0</course>
  <speed>0.0</speed>
  <fix>3d</fix>
</trkpt>
<trkpt lat="33.810313" lon="-118.393867">
  <ele>-0.134</ele>
  <time>2026-09-02T22:11:51Z</time>
  <course>187.6</course>
  <speed>0.03605551275463989</speed>
  <fix>3d</fix>
</trkpt>
<trkpt lat="33.810313" lon="-118.393867">
  <ele>-0.12</ele>
  <time>2026-09-02T22:11:51Z</time>
  <course>0.0</course>
  <speed>0.0</speed>
  <fix>3d</fix>
</trkpt>
<trkpt lat="33.810313" lon="-118.393867">
  <ele>-0.133</ele>
  <time>2026-09-02T22:11:51Z</time>
  <course>187.59</course>
  <speed>0.03605551275463989</speed>
  <fix>3d</fix>
</trkpt>
<trkpt lat="33.810313" lon="-118.393867">
  <ele>-0.12</ele>
  <time>2026-09-02T22:11:51Z</time>
  <course>0.0</course>
  <speed>0.0</speed>
  <fix>3d</fix>
</trkpt>
<trkpt lat="33.810313" lon="-118.393867">
  <ele>-0.132</ele>
  <time>2026-09-02T22:11:51Z</time>
  <course>187.59</course>
  <speed>0.03605551275463989</speed>
  <fix>3d</fix>
</trkpt>
<trkpt lat="33.810313" lon="-118.393867">
  <ele>-0.12</ele>
  <time>2026-09-02T22:11:51Z</time>
  <course>0.0</course>
  <speed>0.0</speed>
  <fix>3d</fix>
</trkpt>
<trkpt lat="33.810313" lon="-118.393867">
  <ele>-0.13</ele>
  <time>2026-09-02T22:11:51Z</time>
  <course>187.58</course>
  <speed>0.03605551275463989</speed>
  <fix>3d</fix>
</trkpt>
<trkpt lat="33.810313" lon="-118.393867">
  <ele>-0.12</ele>
  <time>2026-09-02T22:11:51Z</time>
  <course>0.0</course>
  <speed>0.0</speed>
  <fix>3d</fix>
</trkpt>
<trkpt lat="33.810313" lon="-118.393867">
  <ele>-0.127</ele>
  <time>2026-09-02T22:11:51Z</time>
  <course>187.57</course>
  <speed>0.03605551275463989</speed>
  <fix>3d</fix>
</trkpt>
<trkpt lat="33.810313" lon="-118.393867">
  <ele>-0.12</ele>
  <time>2026-09-02T22:11:51Z</time>
  <course>0.0</course>
  <speed>0.0</speed>
  <fix>3d</fix>
</trkpt>
<trkpt lat="33.810313" lon="-118.393867">
  <ele>-0.125</ele>
  <time>2026-09-02T22:11:51Z</time>
  <course>187.57</course>
  <speed>0.03605551275463989</speed>
  <fix>3d</fix>
</trkpt>
<trkpt lat="33.810313" lon="-118.393867">
  <ele>-0.12</ele>
  <time>2026-09-02T22:11:51Z</time>
  <course>0.0</course>
  <speed>0.0</speed>
  <fix>3d</fix>
</trkpt>
<trkpt lat="33.810313" lon="-118.393867">
  <ele>-0.122</ele>
  <time>2026-09-02T22:11:51Z</time>
  <course>187.56</course>
  <speed>0.03605551275463989</speed>
  <fix>3d</fix>
</trkpt>
<trkpt lat="33.810313" lon="-118.393867">
  <ele>-0.12</ele>
  <time>2026-09-02T22:11:51Z</time>
  <course>0.0</course>
  <speed>0.0</speed>
  <fix>3d</fix>
</trkpt>
<trkpt lat="33.810313" lon="-118.393867">
  <ele>-0.119</ele>
  <time>2026-09-02T22:11:51Z</time>
  <course>187.55</course>
  <speed>0.03605551275463989</speed>
  <fix>3d</fix>
</trkpt>
<trkpt lat="33.810313" lon="-118.393867">
  <ele>-0.12</ele>
  <time>2026-09-02T22:11:51Z</time>
  <course>0.0</course>
  <speed>0.0</speed>
  <fix>3d</fix>
</trkpt>
<trkpt lat="33.810313" lon="-118.393867">
  <ele>-0.117</ele>
  <time>2026-09-02T22:11:51Z</time>
  <course>187.55</course>
  <speed>0.03605551275463989</speed>
  <fix>3d</fix>
</trkpt>
<trkpt lat="33.810313" lon="-118.393867">
  <ele>-0.12</ele>
  <time>2026-09-02T22:11:51Z</time>
  <course>0.0</course>
  <speed>0.0</speed>
  <fix>3d</fix>
</trkpt>
<trkpt lat="33.810313" lon="-118.393867">
  <ele>-0.117</ele>
  <time>2026-09-02T22:11:51Z</time>
  <course>187.54</course>
  <speed>0.03605551275463989</speed>
  <fix>3d</fix>
</trkpt>
<trkpt lat="33.810313" lon="-118.393867">
  <ele>-0.12</ele>
  <time>2026-09-02T22:11:51Z</time>
  <course>0.0</course>
  <speed>0.0</speed>
  <fix>3d</fix>
</trkpt>
<trkpt lat="33.810313" lon="-118.393867">
  <ele>-0.118</ele>
  <time>2026-09-02T22:11:51Z</time>
  <course>187.53</course>
  <speed>0.03605551275463989</speed>
  <fix>3d</fix>
</trkpt>
<trkpt lat="33.810313" lon="-118.393867">
  <ele>-0.12</ele>
  <time>2026-09-02T22:11:51Z</time>
  <course>0.0</course>
  <speed>0.0</speed>
  <fix>3d</fix>
</trkpt>
<trkpt lat="33.810313" lon="-118.393867">
  <ele>-0.119</ele>
  <time>2026-09-02T22:11:51Z</time>
  <course>187.53</course>
  <speed>0.03605551275463989</speed>
  <fix>3d</fix>
</trkpt>
<trkpt lat="33.810313" lon="-118.393867">
  <ele>-0.12</ele>
  <time>2026-09-02T22:11:51Z</time>
  <course>0.0</course>
  <speed>0.0</speed>
  <fix>3d</fix>
</trkpt>
<trkpt lat="33.810313" lon="-118.393867">
  <ele>-0.12</ele>
  <time>2026-09-02T22:11:51Z</time>
  <course>187.52</course>
  <speed>0.03605551275463989</speed>
  <fix>3d</fix>
</trkpt>
<trkpt lat="33.810313" lon="-118.393867">
  <ele>-0.12</ele>
  <time>2026-09-02T22:11:51Z</time>
  <course>0.0</course>
  <speed>0.0</speed>
  <fix>3d</fix>
</trkpt>
<trkpt lat="33.810313" lon="-118.393867">
  <ele>-0.121</ele>
  <time>2026-09-02T22:11:51Z</time>
  <course>187.51</course>
  <speed>0.03605551275463989</speed>
  <fix>3d</fix>
</trkpt>
<trkpt lat="33.810313" lon="-118.393867">
  <ele>-0.12</ele>
  <time>2026-09-02T22:11:51Z</time>
  <course>0.0</course>
  <speed>0.0</speed>
  <fix>3d</fix>
</trkpt>
<trkpt lat="33.810313" lon="-118.393867">
  <ele>-0.121</ele>
  <time>2026-09-02T22:11:51Z</time>
  <course>187.51</course>
  <speed>0.03605551275463989</speed>
  <fix>3d</fix>
</trkpt>
<trkpt lat="33.810313" lon="-118.393867">
  <ele>-0.12</ele>
  <time>2026-09-02T22:11:51Z</time>
  <course>0.0</course>
  <speed>0.0</speed>
  <fix>3d</fix>
</trkpt>
<trkpt lat="33.810313" lon="-118.393867">
  <ele>-0.121</ele>
  <time>2026-09-02T22:11:51Z</time>
  <course>187.5</course>
  <speed>0.03605551275463989</speed>
  <fix>3d</fix>
</trkpt>
<trkpt lat="33.810313" lon="-118.393867">
  <ele>-0.12</ele>
  <time>2026-09-02T22:11:51Z</time>
  <course>0.0</course>
  <speed>0.0</speed>
  <fix>3d</fix>
</trkpt>
<trkpt lat="33.810313" lon="-118.393867">
  <ele>-0.121</ele>
  <time>2026-09-02T22:11:51Z</time>
  <course>187.49</course>
  <speed>0.03605551275463989</speed>
  <fix>3d</fix>
</trkpt>
<trkpt lat="33.810313" lon="-118.393867">
  <ele>-0.12</ele>
  <time>2026-09-02T22:11:51Z</time>
  <course>0.0</course>
  <speed>0.0</speed>
  <fix>3d</fix>
</trkpt>
<trkpt lat="33.810313" lon="-118.393867">
  <ele>-0.121</ele>
  <time>2026-09-02T22:11:51Z</time>
  <course>187.49</course>
  <speed>0.03605551275463989</speed>
  <fix>3d</fix>
</trkpt>
<trkpt lat="33.810313" lon="-118.393867">
  <ele>-0.12</ele>
  <time>2026-09-02T22:11:51Z</time>
  <course>0.0</course>
  <speed>0.0</speed>
  <fix>3d</fix>
</trkpt>
<trkpt lat="33.810313" lon="-118.393867">
  <ele>-0.121</ele>
  <time>2026-09-02T22:11:51Z</time>
  <course>187.48</course>
  <speed>0.03605551275463989</speed>
  <fix>3d</fix>
</trkpt>
<trkpt lat="33.810313" lon="-118.393867">
  <ele>-0.12</ele>
  <time>2026-09-02T22:11:51Z</time>
  <course>0.0</course>
  <speed>0.0</speed>
  <fix>3d</fix>
</trkpt>
<trkpt lat="33.810313" lon="-118.393867">
  <ele>-0.122</ele>
  <time>2026-09-02T22:11:51Z</time>
  <course>187.47</course>
  <speed>0.03605551275463989</speed>
  <fix>3d</fix>
</trkpt>
<trkpt lat="33.810313" lon="-118.393867">
  <ele>-0.12</ele>
  <time>2026-09-02T22:11:51Z</time>
  <course>0.0</course>
  <speed>0.0</speed>
  <fix>3d</fix>
</trkpt>
<trkpt lat="33.810313" lon="-118.393867">
  <ele>-0.124</ele>
  <time>2026-09-02T22:11:51Z</time>
  <course>187.47</course>
  <speed>0.03605551275463989</speed>
  <fix>3d</fix>
</trkpt>
<trkpt lat="33.810313" lon="-118.393867">
  <ele>-0.12</ele>
  <time>2026-09-02T22:11:51Z</time>
  <course>0.0</course>
  <speed>0.0</speed>
  <fix>3d</fix>
</trkpt>
<trkpt lat="33.810313" lon="-118.393867">
  <ele>-0.127</ele>
  <time>2026-09-02T22:11:51Z</time>
  <course>187.46</course>
  <speed>0.03605551275463989</speed>
  <fix>3d</fix>
</trkpt>
<trkpt lat="33.810313" lon="-118.393867">
  <ele>-0.12</ele>
  <time>2026-09-02T22:11:51Z</time>
  <course>0.0</course>
  <speed>0.0</speed>
  <fix>3d</fix>
</trkpt>
<trkpt lat="33.810313" lon="-118.393867">
  <ele>-0.129</ele>
  <time>2026-09-02T22:11:51Z</time>
  <course>187.46</course>
  <speed>0.03605551275463989</speed>
  <fix>3d</fix>
</trkpt>
<trkpt lat="33.810313" lon="-118.393867">
  <ele>-0.12</ele>
  <time>2026-09-02T22:11:51Z</time>
  <course>0.0</course>
  <speed>0.0</speed>
  <fix>3d</fix>
</trkpt>
<trkpt lat="33.810313" lon="-118.393867">
  <ele>-0.131</ele>
  <time>2026-09-02T22:11:51Z</time>
  <course>187.45</course>
  <speed>0.03605551275463989</speed>
  <fix>3d</fix>
</trkpt>
<trkpt lat="33.810313" lon="-118.393867">
  <ele>-0.12</ele>
  <time>2026-09-02T22:11:51Z</time>
  <course>0.0</course>
  <speed>0.0</speed>
  <fix>3d</fix>
</trkpt>
<trkpt lat="33.810313" lon="-118.393867">
  <ele>-0.132</ele>
  <time>2026-09-02T22:11:51Z</time>
  <course>187.44</course>
  <speed>0.03605551275463989</speed>
  <fix>3d</fix>
</trkpt>
<trkpt lat="33.810313" lon="-118.393867">
  <ele>-0.12</ele>
  <time>2026-09-02T22:11:51Z</time>
  <course>0.0</course>
  <speed>0.0</speed>
  <fix>3d</fix>
</trkpt>
<trkpt lat="33.810313" lon="-118.393867">
  <ele>-0.132</ele>
  <time>2026-09-02T22:11:51Z</time>
  <course>187.44</course>
  <speed>0.03605551275463989</speed>
  <fix>3d</fix>
</trkpt>
<trkpt lat="33.810313" lon="-118.393867">
  <ele>-0.12</ele>
  <time>2026-09-02T22:11:51Z</time>
  <course>0.0</course>
  <speed>0.0</speed>
  <fix>3d</fix>
</trkpt>
<trkpt lat="33.810313" lon="-118.393867">
  <ele>-0.132</ele>
  <time>2026-09-02T22:11:51Z</time>
  <course>187.43</course>
  <speed>0.03605551275463989</speed>
  <fix>3d</fix>
</trkpt>
<trkpt lat="33.810313" lon="-118.393867">
  <ele>-0.12</ele>
  <time>2026-09-02T22:11:51Z</time>
  <course>0.0</course>
  <speed>0.0</speed>
  <fix>3d</fix>
</trkpt>
<trkpt lat="33.810313" lon="-118.393867">
  <ele>-0.132</ele>
  <time>2026-09-02T22:11:51Z</time>
  <course>187.42</course>
  <speed>0.03605551275463989</speed>
  <fix>3d</fix>
</trkpt>
<trkpt lat="33.810313" lon="-118.393867">
  <ele>-0.12</ele>
  <time>2026-09-02T22:11:51Z</time>
  <course>0.0</course>
  <speed>0.0</speed>
  <fix>3d</fix>
</trkpt>
<trkpt lat="33.810313" lon="-118.393867">
  <ele>-0.131</ele>
  <time>2026-09-02T22:11:51Z</time>
  <course>187.42</course>
  <speed>0.03605551275463989</speed>
  <fix>3d</fix>
</trkpt>
<trkpt lat="33.810313" lon="-118.393867">
  <ele>-0.12</ele>
  <time>2026-09-02T22:11:51Z</time>
  <course>0.0</course>
  <speed>0.0</speed>
  <fix>3d</fix>
</trkpt>
<trkpt lat="33.810313" lon="-118.393867">
  <ele>-0.131</ele>
  <time>2026-09-02T22:11:51Z</time>
  <course>187.41</course>
  <speed>0.03605551275463989</speed>
  <fix>3d</fix>
</trkpt>
<trkpt lat="33.810313" lon="-118.393867">
  <ele>-0.12</ele>
  <time>2026-09-02T22:11:51Z</time>
  <course>0.0</course>
  <speed>0.0</speed>
  <fix>3d</fix>
</trkpt>
<trkpt lat="33.810313" lon="-118.393867">
  <ele>-0.132</ele>
  <time>2026-09-02T22:11:51Z</time>
  <course>187.41</course>
  <speed>0.03605551275463989</speed>
  <fix>3d</fix>
</trkpt>
<trkpt lat="33.810313" lon="-118.393867">
  <ele>-0.12</ele>
  <time>2026-09-02T22:11:51Z</time>
  <course>0.0</course>
  <speed>0.0</speed>
  <fix>3d</fix>
</trkpt>
<trkpt lat="33.810313" lon="-118.393867">
  <ele>-0.134</ele>
  <time>2026-09-02T22:11:51Z</time>
  <course>187.4</course>
  <speed>0.03605551275463989</speed>
  <fix>3d</fix>
</trkpt>
<trkpt lat="33.810313" lon="-118.393867">
  <ele>-0.12</ele>
  <time>2026-09-02T22:11:51Z</time>
  <course>0.0</course>
  <speed>0.0</speed>
  <fix>3d</fix>
</trkpt>
<trkpt lat="33.810313" lon="-118.393867">
  <ele>-0.137</ele>
  <time>2026-09-02T22:11:51Z</time>
  <course>187.39</course>
  <speed>0.03605551275463989</speed>
  <fix>3d</fix>
</trkpt>
<trkpt lat="33.810313" lon="-118.393867">
  <ele>-0.12</ele>
  <time>2026-09-02T22:11:51Z</time>
  <course>0.0</course>
  <speed>0.0</speed>
  <fix>3d</fix>
</trkpt>
<trkpt lat="33.810313" lon="-118.393867">
  <ele>-0.139</ele>
  <time>2026-09-02T22:11:51Z</time>
  <course>187.39</course>
  <speed>0.03605551275463989</speed>
  <fix>3d</fix>
</trkpt>
<trkpt lat="33.810313" lon="-118.393867">
  <ele>-0.12</ele>
  <time>2026-09-02T22:11:51Z</time>
  <course>0.0</course>
  <speed>0.0</speed>
  <fix>3d</fix>
</trkpt>
<trkpt lat="33.810313" lon="-118.393867">
  <ele>-0.141</ele>
  <time>2026-09-02T22:11:51Z</time>
  <course>187.38</course>
  <speed>0.03605551275463989</speed>
  <fix>3d</fix>
</trkpt>
<trkpt lat="33.810313" lon="-118.393867">
  <ele>-0.12</ele>
  <time>2026-09-02T22:11:51Z</time>
  <course>0.0</course>
  <speed>0.0</speed>
  <fix>3d</fix>
</trkpt>
<trkpt lat="33.810313" lon="-118.393867">
  <ele>-0.141</ele>
  <time>2026-09-02T22:11:51Z</time>
  <course>187.38</course>
  <speed>0.03605551275463989</speed>
  <fix>3d</fix>
</trkpt>
<trkpt lat="33.810313" lon="-118.393867">
  <ele>-0.12</ele>
  <time>2026-09-02T22:11:51Z</time>
  <course>0.0</course>
  <speed>0.0</speed>
  <fix>3d</fix>
</trkpt>
<trkpt lat="33.810313" lon="-118.393867">
  <ele>-0.139</ele>
  <time>2026-09-02T22:11:51Z</time>
  <course>187.37</course>
  <speed>0.03605551275463989</speed>
  <fix>3d</fix>
</trkpt>
<trkpt lat="33.810313" lon="-118.393867">
  <ele>-0.12</ele>
  <time>2026-09-02T22:11:51Z</time>
  <course>0.0</course>
  <speed>0.0</speed>
  <fix>3d</fix>
</trkpt>
<trkpt lat="33.810313" lon="-118.393867">
  <ele>-0.136</ele>
  <time>2026-09-02T22:11:51Z</time>
  <course>187.36</course>
  <speed>0.03605551275463989</speed>
  <fix>3d</fix>
</trkpt>
<trkpt lat="33.810313" lon="-118.393867">
  <ele>-0.12</ele>
  <time>2026-09-02T22:11:51Z</time>
  <course>0.0</course>
  <speed>0.0</speed>
  <fix>3d</fix>
</trkpt>
<trkpt lat="33.810313" lon="-118.393867">
  <ele>-0.133</ele>
  <time>2026-09-02T22:11:51Z</time>
  <course>187.36</course>
  <speed>0.03605551275463989</speed>
  <fix>3d</fix>
</trkpt>
<trkpt lat="33.810313" lon="-118.393867">
  <ele>-0.12</ele>
  <time>2026-09-02T22:11:51Z</time>
  <course>0.0</course>
  <speed>0.0</speed>
  <fix>3d</fix>
</trkpt>
<trkpt lat="33.810313" lon="-118.393867">
  <ele>-0.129</ele>
  <time>2026-09-02T22:11:51Z</time>
  <course>187.35</course>
  <speed>0.03605551275463989</speed>
  <fix>3d</fix>
</trkpt>
<trkpt lat="33.810313" lon="-118.393867">
  <ele>-0.12</ele>
  <time>2026-09-02T22:11:51Z</time>
  <course>0.0</course>
  <speed>0.0</speed>
  <fix>3d</fix>
</trkpt>
<trkpt lat="33.810313" lon="-118.393867">
  <ele>-0.127</ele>
  <time>2026-09-02T22:11:51Z</time>
  <course>187.35</course>
  <speed>0.03605551275463989</speed>
  <fix>3d</fix>
</trkpt>
<trkpt lat="33.810313" lon="-118.393867">
  <ele>-0.12</ele>
  <time>2026-09-02T22:11:51Z</time>
  <course>0.0</course>
  <speed>0.0</speed>
  <fix>3d</fix>
</trkpt>
<trkpt lat="33.810313" lon="-118.393867">
  <ele>-0.127</ele>
  <time>2026-09-02T22:11:51Z</time>
  <course>187.34</course>
  <speed>0.03605551275463989</speed>
  <fix>3d</fix>
</trkpt>
<trkpt lat="33.810313" lon="-118.393867">
  <ele>-0.12</ele>
  <time>2026-09-02T22:11:51Z</time>
  <course>0.0</course>
  <speed>0.0</speed>
  <fix>3d</fix>
</trkpt>
<trkpt lat="33.810313" lon="-118.393867">
  <ele>-0.126</ele>
  <time>2026-09-02T22:11:51Z</time>
  <course>187.34</course>
  <speed>0.03605551275463989</speed>
  <fix>3d</fix>
</trkpt>
<trkpt lat="33.810313" lon="-118.393867">
  <ele>-0.12</ele>
  <time>2026-09-02T22:11:51Z</time>
  <course>0.0</course>
  <speed>0.0</speed>
  <fix>3d</fix>
</trkpt>
<trkpt lat="33.810313" lon="-118.393867">
  <ele>-0.126</ele>
  <time>2026-09-02T22:11:51Z</time>
  <course>187.33</course>
  <speed>0.03605551275463989</speed>
  <fix>3d</fix>
</trkpt>
<trkpt lat="33.810313" lon="-118.393867">
  <ele>-0.12</ele>
  <time>2026-09-02T22:11:51Z</time>
  <course>0.0</course>
  <speed>0.0</speed>
  <fix>3d</fix>
</trkpt>
<trkpt lat="33.810313" lon="-118.393867">
  <ele>-0.126</ele>
  <time>2026-09-02T22:11:51Z</time>
  <course>187.32</course>
  <speed>0.03605551275463989</speed>
  <fix>3d</fix>
</trkpt>
<trkpt lat="33.810313" lon="-118.393867">
  <ele>-0.12</ele>
  <time>2026-09-02T22:11:51Z</time>
  <course>0.0</course>
  <speed>0.0</speed>
  <fix>3d</fix>
</trkpt>
<trkpt lat="33.810313" lon="-118.393867">
  <ele>-0.126</ele>
  <time>2026-09-02T22:11:51Z</time>
  <course>187.32</course>
  <speed>0.03605551275463989</speed>
  <fix>3d</fix>
</trkpt>
<trkpt lat="33.810313" lon="-118.393867">
  <ele>-0.12</ele>
  <time>2026-09-02T22:11:51Z</time>
  <course>0.0</course>
  <speed>0.0</speed>
  <fix>3d</fix>
</trkpt>
<trkpt lat="33.810313" lon="-118.393867">
  <ele>-0.125</ele>
  <time>2026-09-02T22:11:51Z</time>
  <course>187.31</course>
  <speed>0.03605551275463989</speed>
  <fix>3d</fix>
</trkpt>
<trkpt lat="33.810313" lon="-118.393867">
  <ele>-0.12</ele>
  <time>2026-09-02T22:11:51Z</time>
  <course>0.0</course>
  <speed>0.0</speed>
  <fix>3d</fix>
</trkpt>
<trkpt lat="33.810313" lon="-118.393867">
  <ele>-0.124</ele>
  <time>2026-09-02T22:11:51Z</time>
  <course>187.31</course>
  <speed>0.03605551275463989</speed>
  <fix>3d</fix>
</trkpt>
<trkpt lat="33.810313" lon="-118.393867">
  <ele>-0.12</ele>
  <time>2026-09-02T22:11:51Z</time>
  <course>0.0</course>
  <speed>0.0</speed>
  <fix>3d</fix>
</trkpt>
<trkpt lat="33.810313" lon="-118.393867">
  <ele>-0.122</ele>
  <time>2026-09-02T22:11:51Z</time>
  <course>187.3</course>
  <speed>0.03605551275463989</speed>
  <fix>3d</fix>
</trkpt>
<trkpt lat="33.810313" lon="-118.393867">
  <ele>-0.12</ele>
  <time>2026-09-02T22:11:51Z</time>
  <course>0.0</course>
  <speed>0.0</speed>
  <fix>3d</fix>
</trkpt>
<trkpt lat="33.810313" lon="-118.393867">
  <ele>-0.121</ele>
  <time>2026-09-02T22:11:51Z</time>
  <course>187.3</course>
  <speed>0.03605551275463989</speed>
  <fix>3d</fix>
</trkpt>
<trkpt lat="33.810313" lon="-118.393867">
  <ele>-0.12</ele>
  <time>2026-09-02T22:11:51Z</time>
  <course>0.0</course>
  <speed>0.0</speed>
  <fix>3d</fix>
</trkpt>
<trkpt lat="33.810313" lon="-118.393867">
  <ele>-0.122</ele>
  <time>2026-09-02T22:11:51Z</time>
  <course>187.29</course>
  <speed>0.03605551275463989</speed>
  <fix>3d</fix>
</trkpt>
<trkpt lat="33.810313" lon="-118.393867">
  <ele>-0.12</ele>
  <time>2026-09-02T22:11:51Z</time>
  <course>0.0</course>
  <speed>0.0</speed>
  <fix>3d</fix>
</trkpt>
<trkpt lat="33.810313" lon="-118.393867">
  <ele>-0.124</ele>
  <time>2026-09-02T22:11:51Z</time>
  <course>187.28</course>
  <speed>0.03605551275463989</speed>
  <fix>3d</fix>
</trkpt>
<trkpt lat="33.810313" lon="-118.393867">
  <ele>-0.12</ele>
  <time>2026-09-02T22:11:51Z</time>
  <course>0.0</course>
  <speed>0.0</speed>
  <fix>3d</fix>
</trkpt>
<trkpt lat="33.810313" lon="-118.393867">
  <ele>-0.127</ele>
  <time>2026-09-02T22:11:51Z</time>
  <course>187.28</course>
  <speed>0.03605551275463989</speed>
  <fix>3d</fix>
</trkpt>
<trkpt lat="33.810313" lon="-118.393867">
  <ele>-0.12</ele>
  <time>2026-09-02T22:11:51Z</time>
  <course>0.0</course>
  <speed>0.0</speed>
  <fix>3d</fix>
</trkpt>
<trkpt lat="33.810313" lon="-118.393867">
  <ele>-0.13</ele>
  <time>2026-09-02T22:11:51Z</time>
  <course>187.27</course>
  <speed>0.03605551275463989</speed>
  <fix>3d</fix>
</trkpt>
<trkpt lat="33.810313" lon="-118.393867">
  <ele>-0.12</ele>
  <time>2026-09-02T22:11:51Z</time>
  <course>0.0</course>
  <speed>0.0</speed>
  <fix>3d</fix>
</trkpt>
<trkpt lat="33.810313" lon="-118.393867">
  <ele>-0.132</ele>
  <time>2026-09-02T22:11:51Z</time>
  <course>187.27</course>
  <speed>0.03605551275463989</speed>
  <fix>3d</fix>
</trkpt>
<trkpt lat="33.810313" lon="-118.393867">
  <ele>-0.12</ele>
  <time>2026-09-02T22:11:51Z</time>
  <course>0.0</course>
  <speed>0.0</speed>
  <fix>3d</fix>
</trkpt>
<trkpt lat="33.810313" lon="-118.393867">
  <ele>-0.134</ele>
  <time>2026-09-02T22:11:51Z</time>
  <course>187.26</course>
  <speed>0.03605551275463989</speed>
  <fix>3d</fix>
</trkpt>
<trkpt lat="33.810313" lon="-118.393867">
  <ele>-0.12</ele>
  <time>2026-09-02T22:11:51Z</time>
  <course>0.0</course>
  <speed>0.0</speed>
  <fix>3d</fix>
</trkpt>
<trkpt lat="33.810313" lon="-118.393867">
  <ele>-0.136</ele>
  <time>2026-09-02T22:11:51Z</time>
  <course>187.26</course>
  <speed>0.03605551275463989</speed>
  <fix>3d</fix>
</trkpt>
<trkpt lat="33.810313" lon="-118.393867">
  <ele>-0.12</ele>
  <time>2026-09-02T22:11:51Z</time>
  <course>0.0</course>
  <speed>0.0</speed>
  <fix>3d</fix>
</trkpt>
<trkpt lat="33.810313" lon="-118.393867">
  <ele>-0.136</ele>
  <time>2026-09-02T22:11:51Z</time>
  <course>187.25</course>
  <speed>0.03605551275463989</speed>
  <fix>3d</fix>
</trkpt>
<trkpt lat="33.810313" lon="-118.393867">
  <ele>-0.12</ele>
  <time>2026-09-02T22:11:51Z</time>
  <course>0.0</course>
  <speed>0.0</speed>
  <fix>3d</fix>
</trkpt>
<trkpt lat="33.810313" lon="-118.393867">
  <ele>-0.135</ele>
  <time>2026-09-02T22:11:51Z</time>
  <course>187.25</course>
  <speed>0.03605551275463989</speed>
  <fix>3d</fix>
</trkpt>
<trkpt lat="33.810313" lon="-118.393867">
  <ele>-0.12</ele>
  <time>2026-09-02T22:11:51Z</time>
  <course>0.0</course>
  <speed>0.0</speed>
  <fix>3d</fix>
</trkpt>
<trkpt lat="33.810313" lon="-118.393867">
  <ele>-0.134</ele>
  <time>2026-09-02T22:11:51Z</time>
  <course>187.24</course>
  <speed>0.03605551275463989</speed>
  <fix>3d</fix>
</trkpt>
<trkpt lat="33.810313" lon="-118.393867">
  <ele>-0.12</ele>
  <time>2026-09-02T22:11:51Z</time>
  <course>0.0</course>
  <speed>0.0</speed>
  <fix>3d</fix>
</trkpt>
<trkpt lat="33.810313" lon="-118.393867">
  <ele>-0.132</ele>
  <time>2026-09-02T22:11:51Z</time>
  <course>187.24</course>
  <speed>0.03605551275463989</speed>
  <fix>3d</fix>
</trkpt>
<trkpt lat="33.810313" lon="-118.393867">
  <ele>-0.12</ele>
  <time>2026-09-02T22:11:51Z</time>
  <course>0.0</course>
  <speed>0.0</speed>
  <fix>3d</fix>
</trkpt>
<trkpt lat="33.810313" lon="-118.393867">
  <ele>-0.131</ele>
  <time>2026-09-02T22:11:51Z</time>
  <course>187.23</course>
  <speed>0.03605551275463989</speed>
  <fix>3d</fix>
</trkpt>
<trkpt lat="33.810313" lon="-118.393867">
  <ele>-0.12</ele>
  <time>2026-09-02T22:11:51Z</time>
  <course>0.0</course>
  <speed>0.0</speed>
  <fix>3d</fix>
</trkpt>
<trkpt lat="33.810313" lon="-118.393867">
  <ele>-0.131</ele>
  <time>2026-09-02T22:11:51Z</time>
  <course>187.23</course>
  <speed>0.03605551275463989</speed>
  <fix>3d</fix>
</trkpt>
<trkpt lat="33.810313" lon="-118.393867">
  <ele>-0.12</ele>
  <time>2026-09-02T22:11:51Z</time>
  <course>0.0</course>
  <speed>0.0</speed>
  <fix>3d</fix>
</trkpt>
<trkpt lat="33.810313" lon="-118.393867">
  <ele>-0.132</ele>
  <time>2026-09-02T22:11:51Z</time>
  <course>187.22</course>
  <speed>0.03605551275463989</speed>
  <fix>3d</fix>
</trkpt>
<trkpt lat="33.810313" lon="-118.393867">
  <ele>-0.12</ele>
  <time>2026-09-02T22:11:51Z</time>
  <course>0.0</course>
  <speed>0.0</speed>
  <fix>3d</fix>
</trkpt>
<trkpt lat="33.810313" lon="-118.393867">
  <ele>-0.132</ele>
  <time>2026-09-02T22:11:51Z</time>
  <course>187.21</course>
  <speed>0.03605551275463989</speed>
  <fix>3d</fix>
</trkpt>
<trkpt lat="33.810313" lon="-118.393867">
  <ele>-0.12</ele>
  <time>2026-09-02T22:11:51Z</time>
  <course>0.0</course>
  <speed>0.0</speed>
  <fix>3d</fix>
</trkpt>
<trkpt lat="33.810313" lon="-118.393867">
  <ele>-0.133</ele>
  <time>2026-09-02T22:11:51Z</time>
  <course>187.21</course>
  <speed>0.03605551275463989</speed>
  <fix>3d</fix>
</trkpt>
<trkpt lat="33.810313" lon="-118.393867">
  <ele>-0.12</ele>
  <time>2026-09-02T22:11:51Z</time>
  <course>0.0</course>
  <speed>0.0</speed>
  <fix>3d</fix>
</trkpt>
<trkpt lat="33.810313" lon="-118.393867">
  <ele>-0.132</ele>
  <time>2026-09-02T22:11:51Z</time>
  <course>187.2</course>
  <speed>0.03605551275463989</speed>
  <fix>3d</fix>
</trkpt>
<trkpt lat="33.810313" lon="-118.393867">
  <ele>-0.12</ele>
  <time>2026-09-02T22:11:51Z</time>
  <course>0.0</course>
  <speed>0.0</speed>
  <fix>3d</fix>
</trkpt>
<trkpt lat="33.810313" lon="-118.393867">
  <ele>-0.131</ele>
  <time>2026-09-02T22:11:51Z</time>
  <course>187.2</course>
  <speed>0.03605551275463989</speed>
  <fix>3d</fix>
</trkpt>
<trkpt lat="33.810313" lon="-118.393867">
  <ele>-0.12</ele>
  <time>2026-09-02T22:11:51Z</time>
  <course>0.0</course>
  <speed>0.0</speed>
  <fix>3d</fix>
</trkpt>
<trkpt lat="33.810313" lon="-118.393867">
  <ele>-0.129</ele>
  <time>2026-09-02T22:11:51Z</time>
  <course>187.19</course>
  <speed>0.03605551275463989</speed>
  <fix>3d</fix>
</trkpt>
<trkpt lat="33.810313" lon="-118.393867">
  <ele>-0.12</ele>
  <time>2026-09-02T22:11:51Z</time>
  <course>0.0</course>
  <speed>0.0</speed>
  <fix>3d</fix>
</trkpt>
<trkpt lat="33.810313" lon="-118.393867">
  <ele>-0.126</ele>
  <time>2026-09-02T22:11:51Z</time>
  <course>187.19</course>
  <speed>0.03605551275463989</speed>
  <fix>3d</fix>
</trkpt>
<trkpt lat="33.810313" lon="-118.393867">
  <ele>-0.12</ele>
  <time>2026-09-02T22:11:51Z</time>
  <course>0.0</course>
  <speed>0.0</speed>
  <fix>3d</fix>
</trkpt>
<trkpt lat="33.810313" lon="-118.393867">
  <ele>-0.124</ele>
  <time>2026-09-02T22:11:51Z</time>
  <course>187.18</course>
  <speed>0.03605551275463989</speed>
  <fix>3d</fix>
</trkpt>
<trkpt lat="33.810313" lon="-118.393867">
  <ele>-0.12</ele>
  <time>2026-09-02T22:11:51Z</time>
  <course>0.0</course>
  <speed>0.0</speed>
  <fix>3d</fix>
</trkpt>
<trkpt lat="33.810313" lon="-118.393867">
  <ele>-0.123</ele>
  <time>2026-09-02T22:11:51Z</time>
  <course>187.18</course>
  <speed>0.03605551275463989</speed>
  <fix>3d</fix>
</trkpt>
<trkpt lat="33.810313" lon="-118.393867">
  <ele>-0.12</ele>
  <time>2026-09-02T22:11:51Z</time>
  <course>0.0</course>
  <speed>0.0</speed>
  <fix>3d</fix>
</trkpt>
<trkpt lat="33.810313" lon="-118.393867">
  <ele>-0.123</ele>
  <time>2026-09-02T22:11:51Z</time>
  <course>187.17</course>
  <speed>0.03605551275463989</speed>
  <fix>3d</fix>
</trkpt>
<trkpt lat="33.810313" lon="-118.393867">
  <ele>-0.12</ele>
  <time>2026-09-02T22:11:51Z</time>
  <course>0.0</course>
  <speed>0.0</speed>
  <fix>3d</fix>
</trkpt>
<trkpt lat="33.810313" lon="-118.393867">
  <ele>-0.122</ele>
  <time>2026-09-02T22:11:51Z</time>
  <course>187.17</course>
  <speed>0.0</speed>
  <fix>3d</fix>
</trkpt>
<trkpt lat="33.810313" lon="-118.393867">
  <ele>-0.12</ele>
  <time>2026-09-02T22:11:51Z</time>
  <course>0.0</course>
  <speed>0.0</speed>
  <fix>3d</fix>
</trkpt>
<trkpt lat="33.810313" lon="-118.393867">
  <ele>-0.121</ele>
  <time>2026-09-02T22:11:51Z</time>
  <course>187.16</course>
  <speed>0.0</speed>
  <fix>3d</fix>
</trkpt>
<trkpt lat="33.810313" lon="-118.393867">
  <ele>-0.12</ele>
  <time>2026-09-02T22:11:51Z</time>
  <course>0.0</course>
  <speed>0.0</speed>
  <fix>3d</fix>
</trkpt>
<trkpt lat="33.810313" lon="-118.393867">
  <ele>-0.121</ele>
  <time>2026-09-02T22:11:51Z</time>
  <course>187.16</course>
  <speed>0.0</speed>
  <fix>3d</fix>
</trkpt>
<trkpt lat="33.810313" lon="-118.393867">
  <ele>-0.12</ele>
  <time>2026-09-02T22:11:51Z</time>
  <course>0.0</course>
  <speed>0.0</speed>
  <fix>3d</fix>
</trkpt>
<trkpt lat="33.810313" lon="-118.393867">
  <ele>-0.119</ele>
  <time>2026-09-02T22:11:51Z</time>
  <course>187.15</course>
  <speed>0.0</speed>
  <fix>3d</fix>
</trkpt>
<trkpt lat="33.810313" lon="-118.393867">
  <ele>-0.12</ele>
  <time>2026-09-02T22:11:51Z</time>
  <course>0.0</course>
  <speed>0.0</speed>
  <fix>3d</fix>
</trkpt>
<trkpt lat="33.810313" lon="-118.393867">
  <ele>-0.116</ele>
  <time>2026-09-02T22:11:51Z</time>
  <course>187.15</course>
  <speed>0.0</speed>
  <fix>3d</fix>
</trkpt>
<trkpt lat="33.810313" lon="-118.393867">
  <ele>-0.12</ele>
  <time>2026-09-02T22:11:51Z</time>
  <course>0.0</course>
  <speed>0.0</speed>
  <fix>3d</fix>
</trkpt>
<trkpt lat="33.810313" lon="-118.393867">
  <ele>-0.114</ele>
  <time>2026-09-02T22:11:51Z</time>
  <course>187.14</course>
  <speed>0.0</speed>
  <fix>3d</fix>
</trkpt>
<trkpt lat="33.810313" lon="-118.393867">
  <ele>-0.12</ele>
  <time>2026-09-02T22:11:51Z</time>
  <course>0.0</course>
  <speed>0.0</speed>
  <fix>3d</fix>
</trkpt>
<trkpt lat="33.810313" lon="-118.393867">
  <ele>-0.113</ele>
  <time>2026-09-02T22:11:51Z</time>
  <course>187.14</course>
  <speed>0.0</speed>
  <fix>3d</fix>
</trkpt>
<trkpt lat="33.810313" lon="-118.393867">
  <ele>-0.12</ele>
  <time>2026-09-02T22:11:51Z</time>
  <course>0.0</course>
  <speed>0.0</speed>
  <fix>3d</fix>
</trkpt>
<trkpt lat="33.810313" lon="-118.393867">
  <ele>-0.112</ele>
  <time>2026-09-02T22:11:51Z</time>
  <course>187.13</course>
  <speed>0.0</speed>
  <fix>3d</fix>
</trkpt>
<trkpt lat="33.810313" lon="-118.393867">
  <ele>-0.12</ele>
  <time>2026-09-02T22:11:51Z</time>
  <course>0.0</course>
  <speed>0.0</speed>
  <fix>3d</fix>
</trkpt>
<trkpt lat="33.810313" lon="-118.393867">
  <ele>-0.113</ele>
  <time>2026-09-02T22:11:51Z</time>
  <course>187.13</course>
  <speed>0.0</speed>
  <fix>3d</fix>
</trkpt>
<trkpt lat="33.810313" lon="-118.393867">
  <ele>-0.12</ele>
  <time>2026-09-02T22:11:51Z</time>
  <course>0.0</course>
  <speed>0.0</speed>
  <fix>3d</fix>
</trkpt>
<trkpt lat="33.810313" lon="-118.393867">
  <ele>-0.114</ele>
  <time>2026-09-02T22:11:51Z</time>
  <course>187.12</course>
  <speed>0.0</speed>
  <fix>3d</fix>
</trkpt>
<trkpt lat="33.810313" lon="-118.393867">
  <ele>-0.12</ele>
  <time>2026-09-02T22:11:51Z</time>
  <course>0.0</course>
  <speed>0.0</speed>
  <fix>3d</fix>
</trkpt>
<trkpt lat="33.810313" lon="-118.393867">
  <ele>-0.116</ele>
  <time>2026-09-02T22:11:51Z</time>
  <course>187.12</course>
  <speed>0.0</speed>
  <fix>3d</fix>
</trkpt>
<trkpt lat="33.810313" lon="-118.393867">
  <ele>-0.12</ele>
  <time>2026-09-02T22:11:51Z</time>
  <course>0.0</course>
  <speed>0.0</speed>
  <fix>3d</fix>
</trkpt>
<trkpt lat="33.810313" lon="-118.393867">
  <ele>-0.119</ele>
  <time>2026-09-02T22:11:51Z</time>
  <course>187.11</course>
  <speed>0.01</speed>
  <fix>3d</fix>
</trkpt>
<trkpt lat="33.810313" lon="-118.393867">
  <ele>-0.12</ele>
  <time>2026-09-02T22:11:51Z</time>
  <course>0.0</course>
  <speed>0.0</speed>
  <fix>3d</fix>
</trkpt>
<trkpt lat="33.810313" lon="-118.393867">
  <ele>-0.12</ele>
  <time>2026-09-02T22:11:51Z</time>
  <course>187.11</course>
  <speed>0.01</speed>
  <fix>3d</fix>
</trkpt>
<trkpt lat="33.810313" lon="-118.393867">
  <ele>-0.12</ele>
  <time>2026-09-02T22:11:51Z</time>
  <course>0.0</course>
  <speed>0.0</speed>
  <fix>3d</fix>
</trkpt>
<trkpt lat="33.810313" lon="-118.393867">
  <ele>-0.121</ele>
  <time>2026-09-02T22:11:51Z</time>
  <course>187.1</course>
  <speed>0.01</speed>
  <fix>3d</fix>
</trkpt>
<trkpt lat="33.810313" lon="-118.393867">
  <ele>-0.12</ele>
  <time>2026-09-02T22:11:51Z</time>
  <course>0.0</course>
  <speed>0.0</speed>
  <fix>3d</fix>
</trkpt>
<trkpt lat="33.810313" lon="-118.393867">
  <ele>-0.122</ele>
  <time>2026-09-02T22:11:51Z</time>
  <course>187.1</course>
  <speed>0.01414213562373095</speed>
  <fix>3d</fix>
</trkpt>
<trkpt lat="33.810313" lon="-118.393867">
  <ele>-0.12</ele>
  <time>2026-09-02T22:11:51Z</time>
  <course>0.0</course>
  <speed>0.0</speed>
  <fix>3d</fix>
</trkpt>
<trkpt lat="33.810313" lon="-118.393867">
  <ele>-0.122</ele>
  <time>2026-09-02T22:11:51Z</time>
  <course>187.1</course>
  <speed>0.01414213562373095</speed>
  <fix>3d</fix>
</trkpt>
<trkpt lat="33.810313" lon="-118.393867">
  <ele>-0.12</ele>
  <time>2026-09-02T22:11:51Z</time>
  <course>0.0</course>
  <speed>0.0</speed>
  <fix>3d</fix>
</trkpt>
<trkpt lat="33.810313" lon="-118.393867">
  <ele>-0.123</ele>
  <time>2026-09-02T22:11:51Z</time>
  <course>187.09</course>
  <speed>0.01414213562373095</speed>
  <fix>3d</fix>
</trkpt>
<trkpt lat="33.810313" lon="-118.393867">
  <ele>-0.12</ele>
  <time>2026-09-02T22:11:51Z</time>
  <course>0.0</course>
  <speed>0.0</speed>
  <fix>3d</fix>
</trkpt>
<trkpt lat="33.810313" lon="-118.393867">
  <ele>-0.124</ele>
  <time>2026-09-02T22:11:51Z</time>
  <course>187.09</course>
  <speed>0.01414213562373095</speed>
  <fix>3d</fix>
</trkpt>
<trkpt lat="33.810313" lon="-118.393867">
  <ele>-0.12</ele>
  <time>2026-09-02T22:11:51Z</time>
  <course>0.0</course>
  <speed>0.0</speed>
  <fix>3d</fix>
</trkpt>
<trkpt lat="33.810313" lon="-118.393867">
  <ele>-0.126</ele>
  <time>2026-09-02T22:11:51Z</time>
  <course>187.08</course>
  <speed>0.01414213562373095</speed>
  <fix>3d</fix>
</trkpt>
<trkpt lat="33.810313" lon="-118.393867">
  <ele>-0.12</ele>
  <time>2026-09-02T22:11:51Z</time>
  <course>0.0</course>
  <speed>0.0</speed>
  <fix>3d</fix>
</trkpt>
<trkpt lat="33.810313" lon="-118.393867">
  <ele>-0.128</ele>
  <time>2026-09-02T22:11:51Z</time>
  <course>187.08</course>
  <speed>0.01414213562373095</speed>
  <fix>3d</fix>
</trkpt>
<trkpt lat="33.810313" lon="-118.393867">
  <ele>-0.12</ele>
  <time>2026-09-02T22:11:51Z</time>
  <course>0.0</course>
  <speed>0.0</speed>
  <fix>3d</fix>
</trkpt>
<trkpt lat="33.810313" lon="-118.393867">
  <ele>-0.13</ele>
  <time>2026-09-02T22:11:51Z</time>
  <course>187.07</course>
  <speed>0.01414213562373095</speed>
  <fix>3d</fix>
</trkpt>
<trkpt lat="33.810313" lon="-118.393867">
  <ele>-0.12</ele>
  <time>2026-09-02T22:11:51Z</time>
  <course>0.0</course>
  <speed>0.0</speed>
  <fix>3d</fix>
</trkpt>
<trkpt lat="33.810313" lon="-118.393867">
  <ele>-0.134</ele>
  <time>2026-09-02T22:11:51Z</time>
  <course>187.07</course>
  <speed>0.01414213562373095</speed>
  <fix>3d</fix>
</trkpt>
<trkpt lat="33.810313" lon="-118.393867">
  <ele>-0.12</ele>
  <time>2026-09-02T22:11:51Z</time>
  <course>0.0</course>
  <speed>0.0</speed>
  <fix>3d</fix>
</trkpt>
<trkpt lat="33.810313" lon="-118.393867">
  <ele>-0.136</ele>
  <time>2026-09-02T22:11:51Z</time>
  <course>187.06</course>
  <speed>0.01414213562373095</speed>
  <fix>3d</fix>
</trkpt>
<trkpt lat="33.810313" lon="-118.393867">
  <ele>-0.12</ele>
  <time>2026-09-02T22:11:51Z</time>
  <course>0.0</course>
  <speed>0.0</speed>
  <fix>3d</fix>
</trkpt>
<trkpt lat="33.810313" lon="-118.393867">
  <ele>-0.137</ele>
  <time>2026-09-02T22:11:51Z</time>
  <course>187.06</course>
  <speed>0.01414213562373095</speed>
  <fix>3d</fix>
</trkpt>
<trkpt lat="33.810313" lon="-118.393867">
  <ele>-0.12</ele>
  <time>2026-09-02T22:11:51Z</time>
  <course>0.0</course>
  <speed>0.0</speed>
  <fix>3d</fix>
</trkpt>
<trkpt lat="33.810313" lon="-118.393867">
  <ele>-0.137</ele>
  <time>2026-09-02T22:11:51Z</time>
  <course>187.05</course>
  <speed>0.01414213562373095</speed>
  <fix>3d</fix>
</trkpt>
<trkpt lat="33.810313" lon="-118.393867">
  <ele>-0.12</ele>
  <time>2026-09-02T22:11:51Z</time>
  <course>0.0</course>
  <speed>0.0</speed>
  <fix>3d</fix>
</trkpt>
<trkpt lat="33.810313" lon="-118.393867">
  <ele>-0.136</ele>
  <time>2026-09-02T22:11:51Z</time>
  <course>187.05</course>
  <speed>0.01414213562373095</speed>
  <fix>3d</fix>
</trkpt>
<trkpt lat="33.810313" lon="-118.393867">
  <ele>-0.12</ele>
  <time>2026-09-02T22:11:51Z</time>
  <course>0.0</course>
  <speed>0.0</speed>
  <fix>3d</fix>
</trkpt>
<trkpt lat="33.810313" lon="-118.393867">
  <ele>-0.133</ele>
  <time>2026-09-02T22:11:51Z</time>
  <course>187.04</course>
  <speed>0.01414213562373095</speed>
  <fix>3d</fix>
</trkpt>
<trkpt lat="33.810313" lon="-118.393867">
  <ele>-0.12</ele>
  <time>2026-09-02T22:11:51Z</time>
  <course>0.0</course>
  <speed>0.0</speed>
  <fix>3d</fix>
</trkpt>
<trkpt lat="33.810313" lon="-118.393867">
  <ele>-0.131</ele>
  <time>2026-09-02T22:11:51Z</time>
  <course>187.04</course>
  <speed>0.01414213562373095</speed>
  <fix>3d</fix>
</trkpt>
<trkpt lat="33.810313" lon="-118.393867">
  <ele>-0.12</ele>
  <time>2026-09-02T22:11:51Z</time>
  <course>0.0</course>
  <speed>0.0</speed>
  <fix>3d</fix>
</trkpt>
<trkpt lat="33.810313" lon="-118.393867">
  <ele>-0.129</ele>
  <time>2026-09-02T22:11:51Z</time>
  <course>187.03</course>
  <speed>0.01414213562373095</speed>
  <fix>3d</fix>
</trkpt>
<trkpt lat="33.810313" lon="-118.393867">
  <ele>-0.12</ele>
  <time>2026-09-02T22:11:51Z</time>
  <course>0.0</course>
  <speed>0.0</speed>
  <fix>3d</fix>
</trkpt>
<trkpt lat="33.810313" lon="-118.393867">
  <ele>-0.129</ele>
  <time>2026-09-02T22:11:51Z</time>
  <course>187.03</course>
  <speed>0.01414213562373095</speed>
  <fix>3d</fix>
</trkpt>
<trkpt lat="33.810313" lon="-118.393867">
  <ele>-0.12</ele>
  <time>2026-09-02T22:11:51Z</time>
  <course>0.0</course>
  <speed>0.0</speed>
  <fix>3d</fix>
</trkpt>
<trkpt lat="33.810313" lon="-118.393867">
  <ele>-0.128</ele>
  <time>2026-09-02T22:11:51Z</time>
  <course>187.02</course>
  <speed>0.01414213562373095</speed>
  <fix>3d</fix>
</trkpt>
<trkpt lat="33.810313" lon="-118.393867">
  <ele>-0.12</ele>
  <time>2026-09-02T22:11:51Z</time>
  <course>0.0</course>
  <speed>0.0</speed>
  <fix>3d</fix>
</trkpt>
<trkpt lat="33.810313" lon="-118.393867">
  <ele>-0.129</ele>
  <time>2026-09-02T22:11:51Z</time>
  <course>187.02</course>
  <speed>0.01</speed>
  <fix>3d</fix>
</trkpt>
<trkpt lat="33.810313" lon="-118.393867">
  <ele>-0.12</ele>
  <time>2026-09-02T22:11:51Z</time>
  <course>0.0</course>
  <speed>0.0</speed>
  <fix>3d</fix>
</trkpt>
<trkpt lat="33.810313" lon="-118.393867">
  <ele>-0.13</ele>
  <time>2026-09-02T22:11:51Z</time>
  <course>187.01</course>
  <speed>0.01</speed>
  <fix>3d</fix>
</trkpt>
<trkpt lat="33.810313" lon="-118.393867">
  <ele>-0.12</ele>
  <time>2026-09-02T22:11:51Z</time>
  <course>0.0</course>
  <speed>0.0</speed>
  <fix>3d</fix>
</trkpt>
<trkpt lat="33.810313" lon="-118.393867">
  <ele>-0.131</ele>
  <time>2026-09-02T22:11:51Z</time>
  <course>187.01</course>
  <speed>0.01</speed>
  <fix>3d</fix>
</trkpt>
<trkpt lat="33.810313" lon="-118.393867">
  <ele>-0.12</ele>
  <time>2026-09-02T22:11:51Z</time>
  <course>0.0</course>
  <speed>0.0</speed>
  <fix>3d</fix>
</trkpt>
<trkpt lat="33.810313" lon="-118.393867">
  <ele>-0.13</ele>
  <time>2026-09-02T22:11:51Z</time>
  <course>187.0</course>
  <speed>0.01</speed>
  <fix>3d</fix>
</trkpt>
<trkpt lat="33.810313" lon="-118.393867">
  <ele>-0.12</ele>
  <time>2026-09-02T22:11:51Z</time>
  <course>0.0</course>
  <speed>0.0</speed>
  <fix>3d</fix>
</trkpt>
<trkpt lat="33.810313" lon="-118.393867">
  <ele>-0.13</ele>
  <time>2026-09-02T22:11:51Z</time>
  <course>187.0</course>
  <speed>0.0</speed>
  <fix>3d</fix>
</trkpt>
<trkpt lat="33.810313" lon="-118.393867">
  <ele>-0.12</ele>
  <time>2026-09-02T22:11:51Z</time>
  <course>0.0</course>
  <speed>0.0</speed>
  <fix>3d</fix>
</trkpt>
<trkpt lat="33.810313" lon="-118.393867">
  <ele>-0.129</ele>
  <time>2026-09-02T22:11:51Z</time>
  <course>186.99</course>
  <speed>0.0</speed>
  <fix>3d</fix>
</trkpt>
<trkpt lat="33.810313" lon="-118.393867">
  <ele>-0.12</ele>
  <time>2026-09-02T22:11:51Z</time>
  <course>0.0</course>
  <speed>0.0</speed>
  <fix>3d</fix>
</trkpt>
<trkpt lat="33.810313" lon="-118.393867">
  <ele>-0.128</ele>
  <time>2026-09-02T22:11:51Z</time>
  <course>186.99</course>
  <speed>0.0</speed>
  <fix>3d</fix>
</trkpt>
<trkpt lat="33.810313" lon="-118.393867">
  <ele>-0.12</ele>
  <time>2026-09-02T22:11:51Z</time>
  <course>0.0</course>
  <speed>0.0</speed>
  <fix>3d</fix>
</trkpt>
<trkpt lat="33.810313" lon="-118.393867">
  <ele>-0.128</ele>
  <time>2026-09-02T22:11:51Z</time>
  <course>186.98</course>
  <speed>0.0</speed>
  <fix>3d</fix>
</trkpt>
<trkpt lat="33.810313" lon="-118.393867">
  <ele>-0.12</ele>
  <time>2026-09-02T22:11:51Z</time>
  <course>0.0</course>
  <speed>0.0</speed>
  <fix>3d</fix>
</trkpt>
<trkpt lat="33.810313" lon="-118.393867">
  <ele>-0.128</ele>
  <time>2026-09-02T22:11:51Z</time>
  <course>186.98</course>
  <speed>0.0</speed>
  <fix>3d</fix>
</trkpt>
<trkpt lat="33.810313" lon="-118.393867">
  <ele>-0.12</ele>
  <time>2026-09-02T22:11:51Z</time>
  <course>0.0</course>
  <speed>0.0</speed>
  <fix>3d</fix>
</trkpt>
<trkpt lat="33.810313" lon="-118.393867">
  <ele>-0.129</ele>
  <time>2026-09-02T22:11:51Z</time>
  <course>186.97</course>
  <speed>0.0</speed>
  <fix>3d</fix>
</trkpt>
<trkpt lat="33.810313" lon="-118.393867">
  <ele>-0.12</ele>
  <time>2026-09-02T22:11:51Z</time>
  <course>0.0</course>
  <speed>0.0</speed>
  <fix>3d</fix>
</trkpt>
<trkpt lat="33.810313" lon="-118.393867">
  <ele>-0.131</ele>
  <time>2026-09-02T22:11:51Z</time>
  <course>186.97</course>
  <speed>0.0</speed>
  <fix>3d</fix>
</trkpt>
<trkpt lat="33.810313" lon="-118.393867">
  <ele>-0.12</ele>
  <time>2026-09-02T22:11:51Z</time>
  <course>0.0</course>
  <speed>0.0</speed>
  <fix>3d</fix>
</trkpt>
<trkpt lat="33.810313" lon="-118.393867">
  <ele>-0.133</ele>
  <time>2026-09-02T22:11:51Z</time>
  <course>186.96</course>
  <speed>0.0</speed>
  <fix>3d</fix>
</trkpt>
<trkpt lat="33.810313" lon="-118.393867">
  <ele>-0.12</ele>
  <time>2026-09-02T22:11:51Z</time>
  <course>0.0</course>
  <speed>0.0</speed>
  <fix>3d</fix>
</trkpt>
<trkpt lat="33.810313" lon="-118.393867">
  <ele>-0.134</ele>
  <time>2026-09-02T22:11:51Z</time>
  <course>186.96</course>
  <speed>0.0</speed>
  <fix>3d</fix>
</trkpt>
<trkpt lat="33.810313" lon="-118.393867">
  <ele>-0.12</ele>
  <time>2026-09-02T22:11:51Z</time>
  <course>0.0</course>
  <speed>0.0</speed>
  <fix>3d</fix>
</trkpt>
<trkpt lat="33.810313" lon="-118.393867">
  <ele>-0.133</ele>
  <time>2026-09-02T22:11:51Z</time>
  <course>186.95</course>
  <speed>0.0</speed>
  <fix>3d</fix>
</trkpt>
<trkpt lat="33.810313" lon="-118.393867">
  <ele>-0.12</ele>
  <time>2026-09-02T22:11:51Z</time>
  <course>0.0</course>
  <speed>0.0</speed>
  <fix>3d</fix>
</trkpt>
<trkpt lat="33.810313" lon="-118.393867">
  <ele>-0.131</ele>
  <time>2026-09-02T22:11:51Z</time>
  <course>186.95</course>
  <speed>0.0</speed>
  <fix>3d</fix>
</trkpt>
<trkpt lat="33.810313" lon="-118.393867">
  <ele>-0.12</ele>
  <time>2026-09-02T22:11:51Z</time>
  <course>0.0</course>
  <speed>0.0</speed>
  <fix>3d</fix>
</trkpt>
<trkpt lat="33.810313" lon="-118.393867">
  <ele>-0.13</ele>
  <time>2026-09-02T22:11:51Z</time>
  <course>186.94</course>
  <speed>0.0</speed>
  <fix>3d</fix>
</trkpt>
<trkpt lat="33.810313" lon="-118.393867">
  <ele>-0.12</ele>
  <time>2026-09-02T22:11:51Z</time>
  <course>0.0</course>
  <speed>0.0</speed>
  <fix>3d</fix>
</trkpt>
<trkpt lat="33.810313" lon="-118.393867">
  <ele>-0.129</ele>
  <time>2026-09-02T22:11:51Z</time>
  <course>186.94</course>
  <speed>0.0</speed>
  <fix>3d</fix>
</trkpt>
<trkpt lat="33.810313" lon="-118.393867">
  <ele>-0.12</ele>
  <time>2026-09-02T22:11:51Z</time>
  <course>0.0</course>
  <speed>0.0</speed>
  <fix>3d</fix>
</trkpt>
<trkpt lat="33.810313" lon="-118.393867">
  <ele>-0.128</ele>
  <time>2026-09-02T22:11:51Z</time>
  <course>186.93</course>
  <speed>0.0</speed>
  <fix>3d</fix>
</trkpt>
<trkpt lat="33.810313" lon="-118.393867">
  <ele>-0.12</ele>
  <time>2026-09-02T22:11:51Z</time>
  <course>0.0</course>
  <speed>0.0</speed>
  <fix>3d</fix>
</trkpt>
<trkpt lat="33.810313" lon="-118.393867">
  <ele>-0.128</ele>
  <time>2026-09-02T22:11:51Z</time>
  <course>186.93</course>
  <speed>0.0</speed>
  <fix>3d</fix>
</trkpt>
<trkpt lat="33.810313" lon="-118.393867">
  <ele>-0.12</ele>
  <time>2026-09-02T22:11:51Z</time>
  <course>0.0</course>
  <speed>0.0</speed>
  <fix>3d</fix>
</trkpt>
<trkpt lat="33.810313" lon="-118.393867">
  <ele>-0.127</ele>
  <time>2026-09-02T22:11:51Z</time>
  <course>186.93</course>
  <speed>0.0</speed>
  <fix>3d</fix>
</trkpt>
<trkpt lat="33.810313" lon="-118.393867">
  <ele>-0.12</ele>
  <time>2026-09-02T22:11:51Z</time>
  <course>0.0</course>
  <speed>0.0</speed>
  <fix>3d</fix>
</trkpt>
<trkpt lat="33.810313" lon="-118.393867">
  <ele>-0.128</ele>
  <time>2026-09-02T22:11:51Z</time>
  <course>186.92</course>
  <speed>0.0</speed>
  <fix>3d</fix>
</trkpt>
<trkpt lat="33.810313" lon="-118.393867">
  <ele>-0.12</ele>
  <time>2026-09-02T22:11:51Z</time>
  <course>0.0</course>
  <speed>0.0</speed>
  <fix>3d</fix>
</trkpt>
<trkpt lat="33.810313" lon="-118.393867">
  <ele>-0.128</ele>
  <time>2026-09-02T22:11:51Z</time>
  <course>186.92</course>
  <speed>0.0</speed>
  <fix>3d</fix>
</trkpt>
<trkpt lat="33.810313" lon="-118.393867">
  <ele>-0.12</ele>
  <time>2026-09-02T22:11:51Z</time>
  <course>0.0</course>
  <speed>0.0</speed>
  <fix>3d</fix>
</trkpt>
<trkpt lat="33.810313" lon="-118.393867">
  <ele>-0.127</ele>
  <time>2026-09-02T22:11:51Z</time>
  <course>186.91</course>
  <speed>0.0</speed>
  <fix>3d</fix>
</trkpt>
<trkpt lat="33.810313" lon="-118.393867">
  <ele>-0.12</ele>
  <time>2026-09-02T22:11:51Z</time>
  <course>0.0</course>
  <speed>0.0</speed>
  <fix>3d</fix>
</trkpt>
<trkpt lat="33.810313" lon="-118.393867">
  <ele>-0.127</ele>
  <time>2026-09-02T22:11:51Z</time>
  <course>186.91</course>
  <speed>0.0</speed>
  <fix>3d</fix>
</trkpt>
<trkpt lat="33.810313" lon="-118.393867">
  <ele>-0.12</ele>
  <time>2026-09-02T22:11:51Z</time>
  <course>0.0</course>
  <speed>0.0</speed>
  <fix>3d</fix>
</trkpt>
<trkpt lat="33.810313" lon="-118.393867">
  <ele>-0.125</ele>
  <time>2026-09-02T22:11:51Z</time>
  <course>186.9</course>
  <speed>0.0</speed>
  <fix>3d</fix>
</trkpt>
<trkpt lat="33.810313" lon="-118.393867">
  <ele>-0.12</ele>
  <time>2026-09-02T22:11:51Z</time>
  <course>0.0</course>
  <speed>0.0</speed>
  <fix>3d</fix>
</trkpt>
<trkpt lat="33.810313" lon="-118.393867">
  <ele>-0.124</ele>
  <time>2026-09-02T22:11:51Z</time>
  <course>186.9</course>
  <speed>0.0</speed>
  <fix>3d</fix>
</trkpt>
<trkpt lat="33.810313" lon="-118.393867">
  <ele>-0.12</ele>
  <time>2026-09-02T22:11:51Z</time>
  <course>0.0</course>
  <speed>0.0</speed>
  <fix>3d</fix>
</trkpt>
<trkpt lat="33.810313" lon="-118.393867">
  <ele>-0.123</ele>
  <time>2026-09-02T22:11:51Z</time>
  <course>186.89</course>
  <speed>0.0</speed>
  <fix>3d</fix>
</trkpt>
<trkpt lat="33.810313" lon="-118.393867">
  <ele>-0.12</ele>
  <time>2026-09-02T22:11:51Z</time>
  <course>0.0</course>
  <speed>0.0</speed>
  <fix>3d</fix>
</trkpt>
<trkpt lat="33.810313" lon="-118.393867">
  <ele>-0.121</ele>
  <time>2026-09-02T22:11:51Z</time>
  <course>186.89</course>
  <speed>0.0</speed>
  <fix>3d</fix>
</trkpt>
<trkpt lat="33.810313" lon="-118.393867">
  <ele>-0.12</ele>
  <time>2026-09-02T22:11:51Z</time>
  <course>0.0</course>
  <speed>0.0</speed>
  <fix>3d</fix>
</trkpt>
<trkpt lat="33.810313" lon="-118.393867">
  <ele>-0.12</ele>
  <time>2026-09-02T22:11:51Z</time>
  <course>186.88</course>
  <speed>0.0</speed>
  <fix>3d</fix>
</trkpt>
<trkpt lat="33.810313" lon="-118.393867">
  <ele>-0.12</ele>
  <time>2026-09-02T22:11:51Z</time>
  <course>0.0</course>
  <speed>0.0</speed>
  <fix>3d</fix>
</trkpt>
<trkpt lat="33.810313" lon="-118.393867">
  <ele>-0.119</ele>
  <time>2026-09-02T22:11:51Z</time>
  <course>186.88</course>
  <speed>0.0</speed>
  <fix>3d</fix>
</trkpt>
<trkpt lat="33.810313" lon="-118.393867">
  <ele>-0.12</ele>
  <time>2026-09-02T22:11:51Z</time>
  <course>0.0</course>
  <speed>0.0</speed>
  <fix>3d</fix>
</trkpt>
<trkpt lat="33.810313" lon="-118.393867">
  <ele>-0.119</ele>
  <time>2026-09-02T22:11:51Z</time>
  <course>186.87</course>
  <speed>0.0</speed>
  <fix>3d</fix>
</trkpt>
<trkpt lat="33.810313" lon="-118.393867">
  <ele>-0.12</ele>
  <time>2026-09-02T22:11:51Z</time>
  <course>0.0</course>
  <speed>0.0</speed>
  <fix>3d</fix>
</trkpt>
<trkpt lat="33.810313" lon="-118.393867">
  <ele>-0.119</ele>
  <time>2026-09-02T22:11:52Z</time>
  <course>186.87</course>
  <speed>0.01</speed>
  <fix>3d</fix>
</trkpt>
<trkpt lat="33.810313" lon="-118.393867">
  <ele>-0.12</ele>
  <time>2026-09-02T22:11:52Z</time>
  <course>0.0</course>
  <speed>0.0</speed>
  <fix>3d</fix>
</trkpt>
<trkpt lat="33.810313" lon="-118.393867">
  <ele>-0.119</ele>
  <time>2026-09-02T22:11:52Z</time>
  <course>186.86</course>
  <speed>0.01</speed>
  <fix>3d</fix>
</trkpt>
<trkpt lat="33.810313" lon="-118.393867">
  <ele>-0.12</ele>
  <time>2026-09-02T22:11:52Z</time>
  <course>0.0</course>
  <speed>0.0</speed>
  <fix>3d</fix>
</trkpt>
<trkpt lat="33.810313" lon="-118.393867">
  <ele>-0.119</ele>
  <time>2026-09-02T22:11:52Z</time>
  <course>186.86</course>
  <speed>0.01</speed>
  <fix>3d</fix>
</trkpt>
<trkpt lat="33.810313" lon="-118.393867">
  <ele>-0.12</ele>
  <time>2026-09-02T22:11:52Z</time>
  <course>0.0</course>
  <speed>0.0</speed>
  <fix>3d</fix>
</trkpt>
<trkpt lat="33.810313" lon="-118.393867">
  <ele>-0.119</ele>
  <time>2026-09-02T22:11:52Z</time>
  <course>186.85</course>
  <speed>0.01</speed>
  <fix>3d</fix>
</trkpt>
<trkpt lat="33.810313" lon="-118.393867">
  <ele>-0.12</ele>
  <time>2026-09-02T22:11:52Z</time>
  <course>0.0</course>
  <speed>0.0</speed>
  <fix>3d</fix>
</trkpt>
<trkpt lat="33.810313" lon="-118.393867">
  <ele>-0.119</ele>
  <time>2026-09-02T22:11:52Z</time>
  <course>186.85</course>
  <speed>0.01</speed>
  <fix>3d</fix>
</trkpt>
<trkpt lat="33.810313" lon="-118.393867">
  <ele>-0.12</ele>
  <time>2026-09-02T22:11:52Z</time>
  <course>0.0</course>
  <speed>0.0</speed>
  <fix>3d</fix>
</trkpt>
<trkpt lat="33.810313" lon="-118.393867">
  <ele>-0.12</ele>
  <time>2026-09-02T22:11:52Z</time>
  <course>186.84</course>
  <speed>0.01</speed>
  <fix>3d</fix>
</trkpt>
<trkpt lat="33.810313" lon="-118.393867">
  <ele>-0.12</ele>
  <time>2026-09-02T22:11:52Z</time>
  <course>0.0</course>
  <speed>0.0</speed>
  <fix>3d</fix>
</trkpt>
<trkpt lat="33.810313" lon="-118.393867">
  <ele>-0.121</ele>
  <time>2026-09-02T22:11:52Z</time>
  <course>186.84</course>
  <speed>0.01</speed>
  <fix>3d</fix>
</trkpt>
<trkpt lat="33.810313" lon="-118.393867">
  <ele>-0.12</ele>
  <time>2026-09-02T22:11:52Z</time>
  <course>0.0</course>
  <speed>0.0</speed>
  <fix>3d</fix>
</trkpt>
<trkpt lat="33.810313" lon="-118.393867">
  <ele>-0.124</ele>
  <time>2026-09-02T22:11:52Z</time>
  <course>184.72</course>
  <speed>0.01414213562373095</speed>
  <fix>3d</fix>
</trkpt>
<trkpt lat="33.810313" lon="-118.393867">
  <ele>-0.12</ele>
  <time>2026-09-02T22:11:52Z</time>
  <course>0.0</course>
  <speed>0.0</speed>
  <fix>3d</fix>
</trkpt>
<trkpt lat="33.810313" lon="-118.393867">
  <ele>-0.125</ele>
  <time>2026-09-02T22:11:52Z</time>
  <course>184.72</course>
  <speed>0.01414213562373095</speed>
  <fix>3d</fix>
</trkpt>
<trkpt lat="33.810313" lon="-118.393867">
  <ele>-0.12</ele>
  <time>2026-09-02T22:11:52Z</time>
  <course>0.0</course>
  <speed>0.0</speed>
  <fix>3d</fix>
</trkpt>
<trkpt lat="33.810313" lon="-118.393867">
  <ele>-0.128</ele>
  <time>2026-09-02T22:11:52Z</time>
  <course>184.73</course>
  <speed>0.01414213562373095</speed>
  <fix>3d</fix>
</trkpt>
<trkpt lat="33.810313" lon="-118.393867">
  <ele>-0.12</ele>
  <time>2026-09-02T22:11:52Z</time>
  <course>0.0</course>
  <speed>0.0</speed>
  <fix>3d</fix>
</trkpt>
<trkpt lat="33.810313" lon="-118.393867">
  <ele>-0.13</ele>
  <time>2026-09-02T22:11:52Z</time>
  <course>184.74</course>
  <speed>0.01414213562373095</speed>
  <fix>3d</fix>
</trkpt>
<trkpt lat="33.810313" lon="-118.393867">
  <ele>-0.12</ele>
  <time>2026-09-02T22:11:52Z</time>
  <course>0.0</course>
  <speed>0.0</speed>
  <fix>3d</fix>
</trkpt>
<trkpt lat="33.810313" lon="-118.393867">
  <ele>-0.132</ele>
  <time>2026-09-02T22:11:52Z</time>
  <course>184.75</course>
  <speed>0.01414213562373095</speed>
  <fix>3d</fix>
</trkpt>
<trkpt lat="33.810313" lon="-118.393867">
  <ele>-0.12</ele>
  <time>2026-09-02T22:11:52Z</time>
  <course>0.0</course>
  <speed>0.0</speed>
  <fix>3d</fix>
</trkpt>
<trkpt lat="33.810313" lon="-118.393867">
  <ele>-0.133</ele>
  <time>2026-09-02T22:11:52Z</time>
  <course>184.76</course>
  <speed>0.01414213562373095</speed>
  <fix>3d</fix>
</trkpt>
<trkpt lat="33.810313" lon="-118.393867">
  <ele>-0.12</ele>
  <time>2026-09-02T22:11:52Z</time>
  <course>0.0</course>
  <speed>0.0</speed>
  <fix>3d</fix>
</trkpt>
<trkpt lat="33.810313" lon="-118.393867">
  <ele>-0.132</ele>
  <time>2026-09-02T22:11:52Z</time>
  <course>184.77</course>
  <speed>0.01414213562373095</speed>
  <fix>3d</fix>
</trkpt>
<trkpt lat="33.810313" lon="-118.393867">
  <ele>-0.12</ele>
  <time>2026-09-02T22:11:52Z</time>
  <course>0.0</course>
  <speed>0.0</speed>
  <fix>3d</fix>
</trkpt>
<trkpt lat="33.810313" lon="-118.393867">
  <ele>-0.13</ele>
  <time>2026-09-02T22:11:52Z</time>
  <course>184.78</course>
  <speed>0.01414213562373095</speed>
  <fix>3d</fix>
</trkpt>
<trkpt lat="33.810313" lon="-118.393867">
  <ele>-0.12</ele>
  <time>2026-09-02T22:11:52Z</time>
  <course>0.0</course>
  <speed>0.0</speed>
  <fix>3d</fix>
</trkpt>
<trkpt lat="33.810313" lon="-118.393867">
  <ele>-0.129</ele>
  <time>2026-09-02T22:11:52Z</time>
  <course>184.79</course>
  <speed>0.01414213562373095</speed>
  <fix>3d</fix>
</trkpt>
<trkpt lat="33.810313" lon="-118.393867">
  <ele>-0.12</ele>
  <time>2026-09-02T22:11:52Z</time>
  <course>0.0</course>
  <speed>0.0</speed>
  <fix>3d</fix>
</trkpt>
<trkpt lat="33.810313" lon="-118.393867">
  <ele>-0.128</ele>
  <time>2026-09-02T22:11:52Z</time>
  <course>184.8</course>
  <speed>0.01414213562373095</speed>
  <fix>3d</fix>
</trkpt>
<trkpt lat="33.810313" lon="-118.393867">
  <ele>-0.12</ele>
  <time>2026-09-02T22:11:52Z</time>
  <course>0.0</course>
  <speed>0.0</speed>
  <fix>3d</fix>
</trkpt>
<trkpt lat="33.810313" lon="-118.393867">
  <ele>-0.128</ele>
  <time>2026-09-02T22:11:52Z</time>
  <course>184.81</course>
  <speed>0.01414213562373095</speed>
  <fix>3d</fix>
</trkpt>
<trkpt lat="33.810313" lon="-118.393867">
  <ele>-0.12</ele>
  <time>2026-09-02T22:11:52Z</time>
  <course>0.0</course>
  <speed>0.0</speed>
  <fix>3d</fix>
</trkpt>
<trkpt lat="33.8103131" lon="-118.393867">
  <ele>-0.128</ele>
  <time>2026-09-02T22:11:52Z</time>
  <course>184.82</course>
  <speed>0.01414213562373095</speed>
  <fix>3d</fix>
</trkpt>
<trkpt lat="33.810313" lon="-118.393867">
  <ele>-0.12</ele>
  <time>2026-09-02T22:11:52Z</time>
  <course>0.0</course>
  <speed>0.0</speed>
  <fix>3d</fix>
</trkpt>
<trkpt lat="33.8103131" lon="-118.393867">
  <ele>-0.128</ele>
  <time>2026-09-02T22:11:52Z</time>
  <course>184.83</course>
  <speed>0.01414213562373095</speed>
  <fix>3d</fix>
</trkpt>
<trkpt lat="33.810313" lon="-118.393867">
  <ele>-0.12</ele>
  <time>2026-09-02T22:11:52Z</time>
  <course>0.0</course>
  <speed>0.0</speed>
  <fix>3d</fix>
</trkpt>
<trkpt lat="33.8103131" lon="-118.3938671">
  <ele>-0.127</ele>
  <time>2026-09-02T22:11:52Z</time>
  <course>184.84</course>
  <speed>0.01414213562373095</speed>
  <fix>3d</fix>
</trkpt>
<trkpt lat="33.810313" lon="-118.393867">
  <ele>-0.12</ele>
  <time>2026-09-02T22:11:52Z</time>
  <course>0.0</course>
  <speed>0.0</speed>
  <fix>3d</fix>
</trkpt>
<trkpt lat="33.8103131" lon="-118.3938671">
  <ele>-0.126</ele>
  <time>2026-09-02T22:11:52Z</time>
  <course>184.85</course>
  <speed>0.01414213562373095</speed>
  <fix>3d</fix>
</trkpt>
<trkpt lat="33.810313" lon="-118.393867">
  <ele>-0.12</ele>
  <time>2026-09-02T22:11:52Z</time>
  <course>0.0</course>
  <speed>0.0</speed>
  <fix>3d</fix>
</trkpt>
<trkpt lat="33.8103131" lon="-118.3938671">
  <ele>-0.125</ele>
  <time>2026-09-02T22:11:52Z</time>
  <course>184.86</course>
  <speed>0.01414213562373095</speed>
  <fix>3d</fix>
</trkpt>
<trkpt lat="33.810313" lon="-118.393867">
  <ele>-0.12</ele>
  <time>2026-09-02T22:11:52Z</time>
  <course>0.0</course>
  <speed>0.0</speed>
  <fix>3d</fix>
</trkpt>
<trkpt lat="33.8103131" lon="-118.3938671">
  <ele>-0.124</ele>
  <time>2026-09-02T22:11:52Z</time>
  <course>184.87</course>
  <speed>0.01414213562373095</speed>
  <fix>3d</fix>
</trkpt>
<trkpt lat="33.810313" lon="-118.393867">
  <ele>-0.12</ele>
  <time>2026-09-02T22:11:52Z</time>
  <course>0.0</course>
  <speed>0.0</speed>
  <fix>3d</fix>
</trkpt>
<trkpt lat="33.8103131" lon="-118.3938671">
  <ele>-0.123</ele>
  <time>2026-09-02T22:11:52Z</time>
  <course>184.88</course>
  <speed>0.01414213562373095</speed>
  <fix>3d</fix>
</trkpt>
<trkpt lat="33.810313" lon="-118.393867">
  <ele>-0.12</ele>
  <time>2026-09-02T22:11:52Z</time>
  <course>0.0</course>
  <speed>0.0</speed>
  <fix>3d</fix>
</trkpt>
<trkpt lat="33.8103131" lon="-118.3938671">
  <ele>-0.122</ele>
  <time>2026-09-02T22:11:52Z</time>
  <course>184.89</course>
  <speed>0.01414213562373095</speed>
  <fix>3d</fix>
</trkpt>
<trkpt lat="33.810313" lon="-118.393867">
  <ele>-0.12</ele>
  <time>2026-09-02T22:11:52Z</time>
  <course>0.0</course>
  <speed>0.0</speed>
  <fix>3d</fix>
</trkpt>
<trkpt lat="33.8103131" lon="-118.3938671">
  <ele>-0.122</ele>
  <time>2026-09-02T22:11:52Z</time>
  <course>184.9</course>
  <speed>0.01414213562373095</speed>
  <fix>3d</fix>
</trkpt>
<trkpt lat="33.810313" lon="-118.393867">
  <ele>-0.12</ele>
  <time>2026-09-02T22:11:52Z</time>
  <course>0.0</course>
  <speed>0.0</speed>
  <fix>3d</fix>
</trkpt>
<trkpt lat="33.8103131" lon="-118.3938671">
  <ele>-0.122</ele>
  <time>2026-09-02T22:11:52Z</time>
  <course>184.91</course>
  <speed>0.01414213562373095</speed>
  <fix>3d</fix>
</trkpt>
<trkpt lat="33.810313" lon="-118.393867">
  <ele>-0.12</ele>
  <time>2026-09-02T22:11:52Z</time>
  <course>0.0</course>
  <speed>0.0</speed>
  <fix>3d</fix>
</trkpt>
<trkpt lat="33.8103131" lon="-118.3938671">
  <ele>-0.121</ele>
  <time>2026-09-02T22:11:52Z</time>
  <course>184.92</course>
  <speed>0.01414213562373095</speed>
  <fix>3d</fix>
</trkpt>
<trkpt lat="33.810313" lon="-118.393867">
  <ele>-0.12</ele>
  <time>2026-09-02T22:11:52Z</time>
  <course>0.0</course>
  <speed>0.0</speed>
  <fix>3d</fix>
</trkpt>
<trkpt lat="33.8103131" lon="-118.3938671">
  <ele>-0.122</ele>
  <time>2026-09-02T22:11:52Z</time>
  <course>184.93</course>
  <speed>0.01414213562373095</speed>
  <fix>3d</fix>
</trkpt>
<trkpt lat="33.810313" lon="-118.393867">
  <ele>-0.12</ele>
  <time>2026-09-02T22:11:52Z</time>
  <course>0.0</course>
  <speed>0.0</speed>
  <fix>3d</fix>
</trkpt>
<trkpt lat="33.8103131" lon="-118.3938671">
  <ele>-0.122</ele>
  <time>2026-09-02T22:11:52Z</time>
  <course>184.94</course>
  <speed>0.01414213562373095</speed>
  <fix>3d</fix>
</trkpt>
<trkpt lat="33.810313" lon="-118.393867">
  <ele>-0.12</ele>
  <time>2026-09-02T22:11:52Z</time>
  <course>0.0</course>
  <speed>0.0</speed>
  <fix>3d</fix>
</trkpt>
<trkpt lat="33.8103131" lon="-118.3938671">
  <ele>-0.123</ele>
  <time>2026-09-02T22:11:52Z</time>
  <course>184.95</course>
  <speed>0.01414213562373095</speed>
  <fix>3d</fix>
</trkpt>
<trkpt lat="33.810313" lon="-118.393867">
  <ele>-0.12</ele>
  <time>2026-09-02T22:11:52Z</time>
  <course>0.0</course>
  <speed>0.0</speed>
  <fix>3d</fix>
</trkpt>
<trkpt lat="33.8103131" lon="-118.3938671">
  <ele>-0.122</ele>
  <time>2026-09-02T22:11:52Z</time>
  <course>184.96</course>
  <speed>0.01414213562373095</speed>
  <fix>3d</fix>
</trkpt>
<trkpt lat="33.810313" lon="-118.393867">
  <ele>-0.12</ele>
  <time>2026-09-02T22:11:52Z</time>
  <course>0.0</course>
  <speed>0.0</speed>
  <fix>3d</fix>
</trkpt>
<trkpt lat="33.8103131" lon="-118.3938671">
  <ele>-0.122</ele>
  <time>2026-09-02T22:11:52Z</time>
  <course>184.97</course>
  <speed>0.01414213562373095</speed>
  <fix>3d</fix>
</trkpt>
<trkpt lat="33.810313" lon="-118.393867">
  <ele>-0.12</ele>
  <time>2026-09-02T22:11:52Z</time>
  <course>0.0</course>
  <speed>0.0</speed>
  <fix>3d</fix>
</trkpt>
<trkpt lat="33.810313" lon="-118.3938671">
  <ele>-0.121</ele>
  <time>2026-09-02T22:11:52Z</time>
  <course>184.98</course>
  <speed>0.01414213562373095</speed>
  <fix>3d</fix>
</trkpt>
<trkpt lat="33.810313" lon="-118.393867">
  <ele>-0.12</ele>
  <time>2026-09-02T22:11:52Z</time>
  <course>0.0</course>
  <speed>0.0</speed>
  <fix>3d</fix>
</trkpt>
<trkpt lat="33.810313" lon="-118.393867">
  <ele>-0.12</ele>
  <time>2026-09-02T22:11:52Z</time>
  <course>184.99</course>
  <speed>0.01414213562373095</speed>
  <fix>3d</fix>
</trkpt>
<trkpt lat="33.810313" lon="-118.393867">
  <ele>-0.12</ele>
  <time>2026-09-02T22:11:52Z</time>
  <course>0.0</course>
  <speed>0.0</speed>
  <fix>3d</fix>
</trkpt>
<trkpt lat="33.810313" lon="-118.393867">
  <ele>-0.12</ele>
  <time>2026-09-02T22:11:52Z</time>
  <course>185.0</course>
  <speed>0.01414213562373095</speed>
  <fix>3d</fix>
</trkpt>
<trkpt lat="33.810313" lon="-118.393867">
  <ele>-0.12</ele>
  <time>2026-09-02T22:11:52Z</time>
  <course>0.0</course>
  <speed>0.0</speed>
  <fix>3d</fix>
</trkpt>
<trkpt lat="33.810313" lon="-118.393867">
  <ele>-0.12</ele>
  <time>2026-09-02T22:11:52Z</time>
  <course>185.01</course>
  <speed>0.01414213562373095</speed>
  <fix>3d</fix>
</trkpt>
<trkpt lat="33.810313" lon="-118.393867">
  <ele>-0.12</ele>
  <time>2026-09-02T22:11:52Z</time>
  <course>0.0</course>
  <speed>0.0</speed>
  <fix>3d</fix>
</trkpt>
<trkpt lat="33.810313" lon="-118.393867">
  <ele>-0.122</ele>
  <time>2026-09-02T22:11:52Z</time>
  <course>185.02</course>
  <speed>0.01414213562373095</speed>
  <fix>3d</fix>
</trkpt>
<trkpt lat="33.810313" lon="-118.393867">
  <ele>-0.12</ele>
  <time>2026-09-02T22:11:52Z</time>
  <course>0.0</course>
  <speed>0.0</speed>
  <fix>3d</fix>
</trkpt>
<trkpt lat="33.810313" lon="-118.393867">
  <ele>-0.124</ele>
  <time>2026-09-02T22:11:52Z</time>
  <course>185.03</course>
  <speed>0.01414213562373095</speed>
  <fix>3d</fix>
</trkpt>
<trkpt lat="33.810313" lon="-118.393867">
  <ele>-0.12</ele>
  <time>2026-09-02T22:11:52Z</time>
  <course>0.0</course>
  <speed>0.0</speed>
  <fix>3d</fix>
</trkpt>
<trkpt lat="33.810313" lon="-118.393867">
  <ele>-0.127</ele>
  <time>2026-09-02T22:11:52Z</time>
  <course>185.04</course>
  <speed>0.01414213562373095</speed>
  <fix>3d</fix>
</trkpt>
<trkpt lat="33.810313" lon="-118.393867">
  <ele>-0.12</ele>
  <time>2026-09-02T22:11:52Z</time>
  <course>0.0</course>
  <speed>0.0</speed>
  <fix>3d</fix>
</trkpt>
<trkpt lat="33.810313" lon="-118.393867">
  <ele>-0.129</ele>
  <time>2026-09-02T22:11:52Z</time>
  <course>185.05</course>
  <speed>0.01414213562373095</speed>
  <fix>3d</fix>
</trkpt>
<trkpt lat="33.810313" lon="-118.393867">
  <ele>-0.12</ele>
  <time>2026-09-02T22:11:52Z</time>
  <course>0.0</course>
  <speed>0.0</speed>
  <fix>3d</fix>
</trkpt>
<trkpt lat="33.810313" lon="-118.393867">
  <ele>-0.13</ele>
  <time>2026-09-02T22:11:52Z</time>
  <course>185.05</course>
  <speed>0.01414213562373095</speed>
  <fix>3d</fix>
</trkpt>
<trkpt lat="33.810313" lon="-118.393867">
  <ele>-0.12</ele>
  <time>2026-09-02T22:11:52Z</time>
  <course>0.0</course>
  <speed>0.0</speed>
  <fix>3d</fix>
</trkpt>
<trkpt lat="33.810313" lon="-118.393867">
  <ele>-0.129</ele>
  <time>2026-09-02T22:11:52Z</time>
  <course>185.06</course>
  <speed>0.01414213562373095</speed>
  <fix>3d</fix>
</trkpt>
<trkpt lat="33.810313" lon="-118.393867">
  <ele>-0.12</ele>
  <time>2026-09-02T22:11:52Z</time>
  <course>0.0</course>
  <speed>0.0</speed>
  <fix>3d</fix>
</trkpt>
<trkpt lat="33.810313" lon="-118.393867">
  <ele>-0.127</ele>
  <time>2026-09-02T22:11:52Z</time>
  <course>185.07</course>
  <speed>0.01414213562373095</speed>
  <fix>3d</fix>
</trkpt>
<trkpt lat="33.810313" lon="-118.393867">
  <ele>-0.12</ele>
  <time>2026-09-02T22:11:52Z</time>
  <course>0.0</course>
  <speed>0.0</speed>
  <fix>3d</fix>
</trkpt>
<trkpt lat="33.810313" lon="-118.393867">
  <ele>-0.125</ele>
  <time>2026-09-02T22:11:52Z</time>
  <course>185.08</course>
  <speed>0.01414213562373095</speed>
  <fix>3d</fix>
</trkpt>
<trkpt lat="33.810313" lon="-118.393867">
  <ele>-0.12</ele>
  <time>2026-09-02T22:11:52Z</time>
  <course>0.0</course>
  <speed>0.0</speed>
  <fix>3d</fix>
</trkpt>
<trkpt lat="33.810313" lon="-118.393867">
  <ele>-0.124</ele>
  <time>2026-09-02T22:11:52Z</time>
  <course>185.09</course>
  <speed>0.01414213562373095</speed>
  <fix>3d</fix>
</trkpt>
<trkpt lat="33.810313" lon="-118.393867">
  <ele>-0.12</ele>
  <time>2026-09-02T22:11:52Z</time>
  <course>0.0</course>
  <speed>0.0</speed>
  <fix>3d</fix>
</trkpt>
<trkpt lat="33.810313" lon="-118.393867">
  <ele>-0.124</ele>
  <time>2026-09-02T22:11:52Z</time>
  <course>185.1</course>
  <speed>0.01414213562373095</speed>
  <fix>3d</fix>
</trkpt>
<trkpt lat="33.810313" lon="-118.393867">
  <ele>-0.12</ele>
  <time>2026-09-02T22:11:52Z</time>
  <course>0.0</course>
  <speed>0.0</speed>
  <fix>3d</fix>
</trkpt>
<trkpt lat="33.810313" lon="-118.393867">
  <ele>-0.123</ele>
  <time>2026-09-02T22:11:52Z</time>
  <course>185.11</course>
  <speed>0.01414213562373095</speed>
  <fix>3d</fix>
</trkpt>
<trkpt lat="33.810313" lon="-118.393867">
  <ele>-0.12</ele>
  <time>2026-09-02T22:11:52Z</time>
  <course>0.0</course>
  <speed>0.0</speed>
  <fix>3d</fix>
</trkpt>
<trkpt lat="33.810313" lon="-118.393867">
  <ele>-0.122</ele>
  <time>2026-09-02T22:11:52Z</time>
  <course>185.12</course>
  <speed>0.01414213562373095</speed>
  <fix>3d</fix>
</trkpt>
<trkpt lat="33.810313" lon="-118.393867">
  <ele>-0.12</ele>
  <time>2026-09-02T22:11:52Z</time>
  <course>0.0</course>
  <speed>0.0</speed>
  <fix>3d</fix>
</trkpt>
<trkpt lat="33.810313" lon="-118.393867">
  <ele>-0.122</ele>
  <time>2026-09-02T22:11:52Z</time>
  <course>185.13</course>
  <speed>0.01414213562373095</speed>
  <fix>3d</fix>
</trkpt>
<trkpt lat="33.810313" lon="-118.393867">
  <ele>-0.12</ele>
  <time>2026-09-02T22:11:52Z</time>
  <course>0.0</course>
  <speed>0.0</speed>
  <fix>3d</fix>
</trkpt>
<trkpt lat="33.810313" lon="-118.393867">
  <ele>-0.122</ele>
  <time>2026-09-02T22:11:52Z</time>
  <course>185.14</course>
  <speed>0.01414213562373095</speed>
  <fix>3d</fix>
</trkpt>
<trkpt lat="33.810313" lon="-118.393867">
  <ele>-0.12</ele>
  <time>2026-09-02T22:11:52Z</time>
  <course>0.0</course>
  <speed>0.0</speed>
  <fix>3d</fix>
</trkpt>
<trkpt lat="33.810313" lon="-118.393867">
  <ele>-0.122</ele>
  <time>2026-09-02T22:11:52Z</time>
  <course>185.15</course>
  <speed>0.01414213562373095</speed>
  <fix>3d</fix>
</trkpt>
<trkpt lat="33.810313" lon="-118.393867">
  <ele>-0.12</ele>
  <time>2026-09-02T22:11:52Z</time>
  <course>0.0</course>
  <speed>0.0</speed>
  <fix>3d</fix>
</trkpt>
<trkpt lat="33.810313" lon="-118.393867">
  <ele>-0.121</ele>
  <time>2026-09-02T22:11:52Z</time>
  <course>185.15</course>
  <speed>0.01414213562373095</speed>
  <fix>3d</fix>
</trkpt>
<trkpt lat="33.810313" lon="-118.393867">
  <ele>-0.12</ele>
  <time>2026-09-02T22:11:52Z</time>
  <course>0.0</course>
  <speed>0.0</speed>
  <fix>3d</fix>
</trkpt>
<trkpt lat="33.810313" lon="-118.393867">
  <ele>-0.12</ele>
  <time>2026-09-02T22:11:52Z</time>
  <course>185.16</course>
  <speed>0.01414213562373095</speed>
  <fix>3d</fix>
</trkpt>
<trkpt lat="33.810313" lon="-118.393867">
  <ele>-0.12</ele>
  <time>2026-09-02T22:11:52Z</time>
  <course>0.0</course>
  <speed>0.0</speed>
  <fix>3d</fix>
</trkpt>
<trkpt lat="33.810313" lon="-118.393867">
  <ele>-0.12</ele>
  <time>2026-09-02T22:11:52Z</time>
  <course>185.16</course>
  <speed>0.01414213562373095</speed>
  <fix>3d</fix>
</trkpt>
<trkpt lat="33.810313" lon="-118.393867">
  <ele>-0.12</ele>
  <time>2026-09-02T22:11:52Z</time>
  <course>0.0</course>
  <speed>0.0</speed>
  <fix>3d</fix>
</trkpt>
<trkpt lat="33.810313" lon="-118.393867">
  <ele>-0.12</ele>
  <time>2026-09-02T22:11:52Z</time>
  <course>185.13</course>
  <speed>0.01414213562373095</speed>
  <fix>3d</fix>
</trkpt>
<trkpt lat="33.810313" lon="-118.393867">
  <ele>-0.12</ele>
  <time>2026-09-02T22:11:52Z</time>
  <course>0.0</course>
  <speed>0.0</speed>
  <fix>3d</fix>
</trkpt>
<trkpt lat="33.810313" lon="-118.393867">
  <ele>-0.121</ele>
  <time>2026-09-02T22:11:52Z</time>
  <course>185.09</course>
  <speed>0.01414213562373095</speed>
  <fix>3d</fix>
</trkpt>
<trkpt lat="33.810313" lon="-118.393867">
  <ele>-0.12</ele>
  <time>2026-09-02T22:11:52Z</time>
  <course>0.0</course>
  <speed>0.0</speed>
  <fix>3d</fix>
</trkpt>
<trkpt lat="33.810313" lon="-118.3938671">
  <ele>-0.122</ele>
  <time>2026-09-02T22:11:52Z</time>
  <course>185.05</course>
  <speed>0.01414213562373095</speed>
  <fix>3d</fix>
</trkpt>
<trkpt lat="33.810313" lon="-118.393867">
  <ele>-0.12</ele>
  <time>2026-09-02T22:11:52Z</time>
  <course>0.0</course>
  <speed>0.0</speed>
  <fix>3d</fix>
</trkpt>
<trkpt lat="33.810313" lon="-118.3938671">
  <ele>-0.124</ele>
  <time>2026-09-02T22:11:52Z</time>
  <course>185.02</course>
  <speed>0.01414213562373095</speed>
  <fix>3d</fix>
</trkpt>
<trkpt lat="33.810313" lon="-118.393867">
  <ele>-0.12</ele>
  <time>2026-09-02T22:11:52Z</time>
  <course>0.0</course>
  <speed>0.0</speed>
  <fix>3d</fix>
</trkpt>
<trkpt lat="33.8103131" lon="-118.3938671">
  <ele>-0.126</ele>
  <time>2026-09-02T22:11:52Z</time>
  <course>185.0</course>
  <speed>0.01414213562373095</speed>
  <fix>3d</fix>
</trkpt>
<trkpt lat="33.810313" lon="-118.393867">
  <ele>-0.12</ele>
  <time>2026-09-02T22:11:52Z</time>
  <course>0.0</course>
  <speed>0.0</speed>
  <fix>3d</fix>
</trkpt>
<trkpt lat="33.8103131" lon="-118.3938671">
  <ele>-0.127</ele>
  <time>2026-09-02T22:11:52Z</time>
  <course>184.99</course>
  <speed>0.01414213562373095</speed>
  <fix>3d</fix>
</trkpt>
<trkpt lat="33.810313" lon="-118.393867">
  <ele>-0.12</ele>
  <time>2026-09-02T22:11:52Z</time>
  <course>0.0</course>
  <speed>0.0</speed>
  <fix>3d</fix>
</trkpt>
<trkpt lat="33.8103131" lon="-118.3938671">
  <ele>-0.127</ele>
  <time>2026-09-02T22:11:52Z</time>
  <course>184.98</course>
  <speed>0.01414213562373095</speed>
  <fix>3d</fix>
</trkpt>
<trkpt lat="33.810313" lon="-118.393867">
  <ele>-0.12</ele>
  <time>2026-09-02T22:11:52Z</time>
  <course>0.0</course>
  <speed>0.0</speed>
  <fix>3d</fix>
</trkpt>
<trkpt lat="33.8103131" lon="-118.3938671">
  <ele>-0.127</ele>
  <time>2026-09-02T22:11:52Z</time>
  <course>184.97</course>
  <speed>0.01414213562373095</speed>
  <fix>3d</fix>
</trkpt>
<trkpt lat="33.810313" lon="-118.393867">
  <ele>-0.12</ele>
  <time>2026-09-02T22:11:52Z</time>
  <course>0.0</course>
  <speed>0.0</speed>
  <fix>3d</fix>
</trkpt>
<trkpt lat="33.8103131" lon="-118.3938671">
  <ele>-0.125</ele>
  <time>2026-09-02T22:11:52Z</time>
  <course>184.97</course>
  <speed>0.01414213562373095</speed>
  <fix>3d</fix>
</trkpt>
<trkpt lat="33.810313" lon="-118.393867">
  <ele>-0.12</ele>
  <time>2026-09-02T22:11:52Z</time>
  <course>0.0</course>
  <speed>0.0</speed>
  <fix>3d</fix>
</trkpt>
<trkpt lat="33.8103131" lon="-118.3938671">
  <ele>-0.125</ele>
  <time>2026-09-02T22:11:52Z</time>
  <course>184.96</course>
  <speed>0.01414213562373095</speed>
  <fix>3d</fix>
</trkpt>
<trkpt lat="33.810313" lon="-118.393867">
  <ele>-0.12</ele>
  <time>2026-09-02T22:11:52Z</time>
  <course>0.0</course>
  <speed>0.0</speed>
  <fix>3d</fix>
</trkpt>
<trkpt lat="33.8103131" lon="-118.3938671">
  <ele>-0.125</ele>
  <time>2026-09-02T22:11:52Z</time>
  <course>184.96</course>
  <speed>0.022360679774997897</speed>
  <fix>3d</fix>
</trkpt>
<trkpt lat="33.810313" lon="-118.393867">
  <ele>-0.12</ele>
  <time>2026-09-02T22:11:52Z</time>
  <course>0.0</course>
  <speed>0.0</speed>
  <fix>3d</fix>
</trkpt>
<trkpt lat="33.8103131" lon="-118.3938671">
  <ele>-0.125</ele>
  <time>2026-09-02T22:11:52Z</time>
  <course>184.96</course>
  <speed>0.022360679774997897</speed>
  <fix>3d</fix>
</trkpt>
<trkpt lat="33.810313" lon="-118.393867">
  <ele>-0.12</ele>
  <time>2026-09-02T22:11:52Z</time>
  <course>0.0</course>
  <speed>0.0</speed>
  <fix>3d</fix>
</trkpt>
<trkpt lat="33.8103131" lon="-118.3938671">
  <ele>-0.128</ele>
  <time>2026-09-02T22:11:52Z</time>
  <course>184.95</course>
  <speed>0.022360679774997897</speed>
  <fix>3d</fix>
</trkpt>
<trkpt lat="33.810313" lon="-118.393867">
  <ele>-0.12</ele>
  <time>2026-09-02T22:11:52Z</time>
  <course>0.0</course>
  <speed>0.0</speed>
  <fix>3d</fix>
</trkpt>
<trkpt lat="33.8103131" lon="-118.3938671">
  <ele>-0.13</ele>
  <time>2026-09-02T22:11:52Z</time>
  <course>184.95</course>
  <speed>0.022360679774997897</speed>
  <fix>3d</fix>
</trkpt>
<trkpt lat="33.810313" lon="-118.393867">
  <ele>-0.12</ele>
  <time>2026-09-02T22:11:52Z</time>
  <course>0.0</course>
  <speed>0.0</speed>
  <fix>3d</fix>
</trkpt>
<trkpt lat="33.8103131" lon="-118.3938671">
  <ele>-0.132</ele>
  <time>2026-09-02T22:11:52Z</time>
  <course>184.95</course>
  <speed>0.022360679774997897</speed>
  <fix>3d</fix>
</trkpt>
<trkpt lat="33.810313" lon="-118.393867">
  <ele>-0.12</ele>
  <time>2026-09-02T22:11:52Z</time>
  <course>0.0</course>
  <speed>0.0</speed>
  <fix>3d</fix>
</trkpt>
<trkpt lat="33.8103131" lon="-118.3938671">
  <ele>-0.132</ele>
  <time>2026-09-02T22:11:52Z</time>
  <course>184.96</course>
  <speed>0.022360679774997897</speed>
  <fix>3d</fix>
</trkpt>
<trkpt lat="33.810313" lon="-118.393867">
  <ele>-0.12</ele>
  <time>2026-09-02T22:11:52Z</time>
  <course>0.0</course>
  <speed>0.0</speed>
  <fix>3d</fix>
</trkpt>
<trkpt lat="33.8103131" lon="-118.3938671">
  <ele>-0.132</ele>
  <time>2026-09-02T22:11:52Z</time>
  <course>184.96</course>
  <speed>0.022360679774997897</speed>
  <fix>3d</fix>
</trkpt>
<trkpt lat="33.810313" lon="-118.393867">
  <ele>-0.12</ele>
  <time>2026-09-02T22:11:52Z</time>
  <course>0.0</course>
  <speed>0.0</speed>
  <fix>3d</fix>
</trkpt>
<trkpt lat="33.8103131" lon="-118.3938671">
  <ele>-0.132</ele>
  <time>2026-09-02T22:11:52Z</time>
  <course>184.96</course>
  <speed>0.022360679774997897</speed>
  <fix>3d</fix>
</trkpt>
<trkpt lat="33.810313" lon="-118.393867">
  <ele>-0.12</ele>
  <time>2026-09-02T22:11:52Z</time>
  <course>0.0</course>
  <speed>0.0</speed>
  <fix>3d</fix>
</trkpt>
<trkpt lat="33.8103131" lon="-118.3938671">
  <ele>-0.131</ele>
  <time>2026-09-02T22:11:52Z</time>
  <course>184.96</course>
  <speed>0.022360679774997897</speed>
  <fix>3d</fix>
</trkpt>
<trkpt lat="33.810313" lon="-118.393867">
  <ele>-0.12</ele>
  <time>2026-09-02T22:11:52Z</time>
  <course>0.0</course>
  <speed>0.0</speed>
  <fix>3d</fix>
</trkpt>
<trkpt lat="33.8103131" lon="-118.3938671">
  <ele>-0.13</ele>
  <time>2026-09-02T22:11:52Z</time>
  <course>184.97</course>
  <speed>0.022360679774997897</speed>
  <fix>3d</fix>
</trkpt>
<trkpt lat="33.810313" lon="-118.393867">
  <ele>-0.12</ele>
  <time>2026-09-02T22:11:52Z</time>
  <course>0.0</course>
  <speed>0.0</speed>
  <fix>3d</fix>
</trkpt>
<trkpt lat="33.8103131" lon="-118.3938671">
  <ele>-0.13</ele>
  <time>2026-09-02T22:11:52Z</time>
  <course>184.97</course>
  <speed>0.022360679774997897</speed>
  <fix>3d</fix>
</trkpt>
<trkpt lat="33.810313" lon="-118.393867">
  <ele>-0.12</ele>
  <time>2026-09-02T22:11:52Z</time>
  <course>0.0</course>
  <speed>0.0</speed>
  <fix>3d</fix>
</trkpt>
<trkpt lat="33.8103131" lon="-118.3938671">
  <ele>-0.129</ele>
  <time>2026-09-02T22:11:52Z</time>
  <course>184.97</course>
  <speed>0.022360679774997897</speed>
  <fix>3d</fix>
</trkpt>
<trkpt lat="33.810313" lon="-118.393867">
  <ele>-0.12</ele>
  <time>2026-09-02T22:11:52Z</time>
  <course>0.0</course>
  <speed>0.0</speed>
  <fix>3d</fix>
</trkpt>
<trkpt lat="33.8103131" lon="-118.3938671">
  <ele>-0.129</ele>
  <time>2026-09-02T22:11:52Z</time>
  <course>184.98</course>
  <speed>0.022360679774997897</speed>
  <fix>3d</fix>
</trkpt>
<trkpt lat="33.810313" lon="-118.393867">
  <ele>-0.12</ele>
  <time>2026-09-02T22:11:52Z</time>
  <course>0.0</course>
  <speed>0.0</speed>
  <fix>3d</fix>
</trkpt>
<trkpt lat="33.8103131" lon="-118.3938671">
  <ele>-0.129</ele>
  <time>2026-09-02T22:11:52Z</time>
  <course>184.98</course>
  <speed>0.022360679774997897</speed>
  <fix>3d</fix>
</trkpt>
<trkpt lat="33.810313" lon="-118.393867">
  <ele>-0.12</ele>
  <time>2026-09-02T22:11:52Z</time>
  <course>0.0</course>
  <speed>0.0</speed>
  <fix>3d</fix>
</trkpt>
<trkpt lat="33.8103131" lon="-118.3938671">
  <ele>-0.13</ele>
  <time>2026-09-02T22:11:52Z</time>
  <course>184.99</course>
  <speed>0.022360679774997897</speed>
  <fix>3d</fix>
</trkpt>
<trkpt lat="33.810313" lon="-118.393867">
  <ele>-0.12</ele>
  <time>2026-09-02T22:11:52Z</time>
  <course>0.0</course>
  <speed>0.0</speed>
  <fix>3d</fix>
</trkpt>
<trkpt lat="33.8103131" lon="-118.3938671">
  <ele>-0.13</ele>
  <time>2026-09-02T22:11:52Z</time>
  <course>184.99</course>
  <speed>0.022360679774997897</speed>
  <fix>3d</fix>
</trkpt>
<trkpt lat="33.810313" lon="-118.393867">
  <ele>-0.12</ele>
  <time>2026-09-02T22:11:52Z</time>
  <course>0.0</course>
  <speed>0.0</speed>
  <fix>3d</fix>
</trkpt>
<trkpt lat="33.4368002" lon="-117.0859339">
  <ele>-0.11</ele>
  <time>2026-09-02T22:11:52Z</time>
  <course>0.0</course>
  <speed>0.0</speed>
  <fix>3d</fix>
</trkpt>
<trkpt lat="33.4368002" lon="-117.0859339">
  <ele>-0.11</ele>
  <time>2026-09-02T22:11:52Z</time>
  <course>0.0</course>
  <speed>0.0</speed>
  <fix>3d</fix>
</trkpt>
<trkpt lat="33.810313" lon="-118.393867">
  <ele>0.0</ele>
  <time>2026-09-02T22:11:52Z</time>
  <course>173.5</course>
  <speed>0.0</speed>
  <fix>3d</fix>
</trkpt>
<trkpt lat="33.810313" lon="-118.393867">
  <ele>-0.11</ele>
  <time>2026-09-02T22:11:52Z</time>
  <course>0.0</course>
  <speed>0.0</speed>
  <fix>3d</fix>
</trkpt>
<trkpt lat="33.810313" lon="-118.393867">
  <ele>0.0</ele>
  <time>2026-09-02T22:11:52Z</time>
  <course>173.61</course>
  <speed>0.0</speed>
  <fix>3d</fix>
</trkpt>
<trkpt lat="33.810313" lon="-118.393867">
  <ele>-0.11</ele>
  <time>2026-09-02T22:11:52Z</time>
  <course>0.0</course>
  <speed>0.0</speed>
  <fix>3d</fix>
</trkpt>
<trkpt lat="33.810313" lon="-118.393867">
  <ele>0.0</ele>
  <time>2026-09-02T22:11:52Z</time>
  <course>173.98</course>
  <speed>0.0</speed>
  <fix>3d</fix>
</trkpt>
<trkpt lat="33.810313" lon="-118.393867">
  <ele>-0.11</ele>
  <time>2026-09-02T22:11:52Z</time>
  <course>0.0</course>
  <speed>0.0</speed>
  <fix>3d</fix>
</trkpt>
<trkpt lat="33.810313" lon="-118.393867">
  <ele>0.0</ele>
  <time>2026-09-02T22:11:52Z</time>
  <course>174.51</course>
  <speed>0.0</speed>
  <fix>3d</fix>
</trkpt>
<trkpt lat="33.810313" lon="-118.393867">
  <ele>-0.11</ele>
  <time>2026-09-02T22:11:52Z</time>
  <course>0.0</course>
  <speed>0.0</speed>
  <fix>3d</fix>
</trkpt>
<trkpt lat="33.810313" lon="-118.393867">
  <ele>0.0</ele>
  <time>2026-09-02T22:11:52Z</time>
  <course>175.07</course>
  <speed>0.0</speed>
  <fix>3d</fix>
</trkpt>
<trkpt lat="33.810313" lon="-118.393867">
  <ele>-0.12</ele>
  <time>2026-09-02T22:11:52Z</time>
  <course>0.0</course>
  <speed>0.0</speed>
  <fix>3d</fix>
</trkpt>
<trkpt lat="33.810313" lon="-118.393867">
  <ele>0.0</ele>
  <time>2026-09-02T22:11:52Z</time>
  <course>175.61</course>
  <speed>0.0</speed>
  <fix>3d</fix>
</trkpt>
<trkpt lat="33.810313" lon="-118.393867">
  <ele>-0.12</ele>
  <time>2026-09-02T22:11:52Z</time>
  <course>0.0</course>
  <speed>0.0</speed>
  <fix>3d</fix>
</trkpt>
<trkpt lat="33.810313" lon="-118.393867">
  <ele>0.0</ele>
  <time>2026-09-02T22:11:52Z</time>
  <course>176.12</course>
  <speed>0.0</speed>
  <fix>3d</fix>
</trkpt>
<trkpt lat="33.810313" lon="-118.393867">
  <ele>-0.13</ele>
  <time>2026-09-02T22:11:52Z</time>
  <course>0.0</course>
  <speed>0.0</speed>
  <fix>3d</fix>
</trkpt>
<trkpt lat="33.810313" lon="-118.393867">
  <ele>0.0</ele>
  <time>2026-09-02T22:11:52Z</time>
  <course>176.6</course>
  <speed>0.0</speed>
  <fix>3d</fix>
</trkpt>
<trkpt lat="33.810313" lon="-118.393867">
  <ele>-0.13</ele>
  <time>2026-09-02T22:11:52Z</time>
  <course>0.0</course>
  <speed>0.0</speed>
  <fix>3d</fix>
</trkpt>
<trkpt lat="33.810313" lon="-118.393867">
  <ele>0.0</ele>
  <time>2026-09-02T22:11:52Z</time>
  <course>177.07</course>
  <speed>0.0</speed>
  <fix>3d</fix>
</trkpt>
<trkpt lat="33.810313" lon="-118.393867">
  <ele>-0.13</ele>
  <time>2026-09-02T22:11:52Z</time>
  <course>0.0</course>
  <speed>0.0</speed>
  <fix>3d</fix>
</trkpt>
<trkpt lat="33.810313" lon="-118.393867">
  <ele>0.0</ele>
  <time>2026-09-02T22:11:52Z</time>
  <course>177.53</course>
  <speed>0.0</speed>
  <fix>3d</fix>
</trkpt>
<trkpt lat="33.810313" lon="-118.393867">
  <ele>-0.13</ele>
  <time>2026-09-02T22:11:52Z</time>
  <course>0.0</course>
  <speed>0.0</speed>
  <fix>3d</fix>
</trkpt>
<trkpt lat="33.810313" lon="-118.393867">
  <ele>0.0</ele>
  <time>2026-09-02T22:11:52Z</time>
  <course>177.97</course>
  <speed>0.0</speed>
  <fix>3d</fix>
</trkpt>
<trkpt lat="33.810313" lon="-118.393867">
  <ele>-0.14</ele>
  <time>2026-09-02T22:11:52Z</time>
  <course>0.0</course>
  <speed>0.0</speed>
  <fix>3d</fix>
</trkpt>
<trkpt lat="33.810313" lon="-118.393867">
  <ele>0.0</ele>
  <time>2026-09-02T22:11:52Z</time>
  <course>178.4</course>
  <speed>0.0</speed>
  <fix>3d</fix>
</trkpt>
<trkpt lat="33.810313" lon="-118.393867">
  <ele>-0.14</ele>
  <time>2026-09-02T22:11:52Z</time>
  <course>0.0</course>
  <speed>0.0</speed>
  <fix>3d</fix>
</trkpt>
<trkpt lat="33.810313" lon="-118.393867">
  <ele>0.0</ele>
  <time>2026-09-02T22:11:52Z</time>
  <course>178.83</course>
  <speed>0.0</speed>
  <fix>3d</fix>
</trkpt>
<trkpt lat="33.810313" lon="-118.393867">
  <ele>-0.14</ele>
  <time>2026-09-02T22:11:52Z</time>
  <course>0.0</course>
  <speed>0.0</speed>
  <fix>3d</fix>
</trkpt>
<trkpt lat="33.810313" lon="-118.393867">
  <ele>0.0</ele>
  <time>2026-09-02T22:11:52Z</time>
  <course>179.23</course>
  <speed>0.0</speed>
  <fix>3d</fix>
</trkpt>
<trkpt lat="33.810313" lon="-118.393867">
  <ele>-0.14</ele>
  <time>2026-09-02T22:11:52Z</time>
  <course>0.0</course>
  <speed>0.0</speed>
  <fix>3d</fix>
</trkpt>
<trkpt lat="33.810313" lon="-118.393867">
  <ele>0.0</ele>
  <time>2026-09-02T22:11:52Z</time>
  <course>179.62</course>
  <speed>0.0</speed>
  <fix>3d</fix>
</trkpt>
<trkpt lat="33.810313" lon="-118.393867">
  <ele>-0.14</ele>
  <time>2026-09-02T22:11:52Z</time>
  <course>0.0</course>
  <speed>0.0</speed>
  <fix>3d</fix>
</trkpt>
<trkpt lat="33.810313" lon="-118.393867">
  <ele>0.0</ele>
  <time>2026-09-02T22:11:52Z</time>
  <course>180.01</course>
  <speed>0.0</speed>
  <fix>3d</fix>
</trkpt>
<trkpt lat="33.810313" lon="-118.393867">
  <ele>-0.14</ele>
  <time>2026-09-02T22:11:52Z</time>
  <course>0.0</course>
  <speed>0.0</speed>
  <fix>3d</fix>
</trkpt>
<trkpt lat="33.810313" lon="-118.393867">
  <ele>0.0</ele>
  <time>2026-09-02T22:11:52Z</time>
  <course>180.37</course>
  <speed>0.0</speed>
  <fix>3d</fix>
</trkpt>
<trkpt lat="33.810313" lon="-118.393867">
  <ele>-0.14</ele>
  <time>2026-09-02T22:11:52Z</time>
  <course>0.0</course>
  <speed>0.0</speed>
  <fix>3d</fix>
</trkpt>
<trkpt lat="33.810313" lon="-118.393867">
  <ele>0.0</ele>
  <time>2026-09-02T22:11:52Z</time>
  <course>180.73</course>
  <speed>0.0</speed>
  <fix>3d</fix>
</trkpt>
<trkpt lat="33.810313" lon="-118.393867">
  <ele>-0.14</ele>
  <time>2026-09-02T22:11:52Z</time>
  <course>0.0</course>
  <speed>0.0</speed>
  <fix>3d</fix>
</trkpt>
<trkpt lat="33.810313" lon="-118.393867">
  <ele>0.0</ele>
  <time>2026-09-02T22:11:52Z</time>
  <course>181.07</course>
  <speed>0.0</speed>
  <fix>3d</fix>
</trkpt>
<trkpt lat="33.810313" lon="-118.393867">
  <ele>-0.13</ele>
  <time>2026-09-02T22:11:52Z</time>
  <course>0.0</course>
  <speed>0.0</speed>
  <fix>3d</fix>
</trkpt>
<trkpt lat="33.810313" lon="-118.393867">
  <ele>0.0</ele>
  <time>2026-09-02T22:11:52Z</time>
  <course>181.4</course>
  <speed>0.0</speed>
  <fix>3d</fix>
</trkpt>
<trkpt lat="33.810313" lon="-118.393867">
  <ele>-0.13</ele>
  <time>2026-09-02T22:11:52Z</time>
  <course>0.0</course>
  <speed>0.0</speed>
  <fix>3d</fix>
</trkpt>
<trkpt lat="33.810313" lon="-118.393867">
  <ele>0.0</ele>
  <time>2026-09-02T22:11:52Z</time>
  <course>181.72</course>
  <speed>0.0</speed>
  <fix>3d</fix>
</trkpt>
<trkpt lat="33.810313" lon="-118.393867">
  <ele>-0.12</ele>
  <time>2026-09-02T22:11:52Z</time>
  <course>0.0</course>
  <speed>0.0</speed>
  <fix>3d</fix>
</trkpt>
<trkpt lat="33.810313" lon="-118.393867">
  <ele>0.0</ele>
  <time>2026-09-02T22:11:52Z</time>
  <course>182.02</course>
  <speed>0.0</speed>
  <fix>3d</fix>
</trkpt>
<trkpt lat="33.810313" lon="-118.393867">
  <ele>-0.12</ele>
  <time>2026-09-02T22:11:52Z</time>
  <course>0.0</course>
  <speed>0.0</speed>
  <fix>3d</fix>
</trkpt>
<trkpt lat="33.810313" lon="-118.393867">
  <ele>0.0</ele>
  <time>2026-09-02T22:11:52Z</time>
  <course>182.32</course>
  <speed>0.0</speed>
  <fix>3d</fix>
</trkpt>
<trkpt lat="33.810313" lon="-118.393867">
  <ele>-0.12</ele>
  <time>2026-09-02T22:11:52Z</time>
  <course>0.0</course>
  <speed>0.0</speed>
  <fix>3d</fix>
</trkpt>
<trkpt lat="33.810313" lon="-118.393867">
  <ele>0.0</ele>
  <time>2026-09-02T22:11:52Z</time>
  <course>182.6</course>
  <speed>0.0</speed>
  <fix>3d</fix>
</trkpt>
<trkpt lat="33.810313" lon="-118.393867">
  <ele>-0.12</ele>
  <time>2026-09-02T22:11:52Z</time>
  <course>0.0</course>
  <speed>0.0</speed>
  <fix>3d</fix>
</trkpt>
<trkpt lat="33.810313" lon="-118.393867">
  <ele>0.0</ele>
  <time>2026-09-02T22:11:52Z</time>
  <course>182.87</course>
  <speed>0.0</speed>
  <fix>3d</fix>
</trkpt>
<trkpt lat="33.810313" lon="-118.393867">
  <ele>-0.11</ele>
  <time>2026-09-02T22:11:52Z</time>
  <course>0.0</course>
  <speed>0.0</speed>
  <fix>3d</fix>
</trkpt>
<trkpt lat="33.810313" lon="-118.393867">
  <ele>0.0</ele>
  <time>2026-09-02T22:11:52Z</time>
  <course>183.14</course>
  <speed>0.0</speed>
  <fix>3d</fix>
</trkpt>
<trkpt lat="33.810313" lon="-118.393867">
  <ele>-0.11</ele>
  <time>2026-09-02T22:11:52Z</time>
  <course>0.0</course>
  <speed>0.0</speed>
  <fix>3d</fix>
</trkpt>
<trkpt lat="33.810313" lon="-118.393867">
  <ele>0.0</ele>
  <time>2026-09-02T22:11:52Z</time>
  <course>183.39</course>
  <speed>0.0</speed>
  <fix>3d</fix>
</trkpt>
<trkpt lat="33.810313" lon="-118.393867">
  <ele>-0.11</ele>
  <time>2026-09-02T22:11:52Z</time>
  <course>0.0</course>
  <speed>0.0</speed>
  <fix>3d</fix>
</trkpt>
<trkpt lat="33.810313" lon="-118.393867">
  <ele>0.0</ele>
  <time>2026-09-02T22:11:52Z</time>
  <course>183.63</course>
  <speed>0.0</speed>
  <fix>3d</fix>
</trkpt>
<trkpt lat="33.810313" lon="-118.393867">
  <ele>-0.11</ele>
  <time>2026-09-02T22:11:52Z</time>
  <course>0.0</course>
  <speed>0.0</speed>
  <fix>3d</fix>
</trkpt>
<trkpt lat="33.810313" lon="-118.393867">
  <ele>0.0</ele>
  <time>2026-09-02T22:11:52Z</time>
  <course>183.86</course>
  <speed>0.0</speed>
  <fix>3d</fix>
</trkpt>
<trkpt lat="33.810313" lon="-118.393867">
  <ele>-0.12</ele>
  <time>2026-09-02T22:11:52Z</time>
  <course>0.0</course>
  <speed>0.0</speed>
  <fix>3d</fix>
</trkpt>
<trkpt lat="33.810313" lon="-118.393867">
  <ele>0.0</ele>
  <time>2026-09-02T22:11:53Z</time>
  <course>184.08</course>
  <speed>0.0</speed>
  <fix>3d</fix>
</trkpt>
<trkpt lat="33.810313" lon="-118.393867">
  <ele>-0.12</ele>
  <time>2026-09-02T22:11:53Z</time>
  <course>0.0</course>
  <speed>0.0</speed>
  <fix>3d</fix>
</trkpt>
<trkpt lat="33.810313" lon="-118.393867">
  <ele>0.0</ele>
  <time>2026-09-02T22:11:53Z</time>
  <course>184.3</course>
  <speed>0.0</speed>
  <fix>3d</fix>
</trkpt>
<trkpt lat="33.810313" lon="-118.393867">
  <ele>-0.13</ele>
  <time>2026-09-02T22:11:53Z</time>
  <course>0.0</course>
  <speed>0.0</speed>
  <fix>3d</fix>
</trkpt>
<trkpt lat="33.810313" lon="-118.393867">
  <ele>0.0</ele>
  <time>2026-09-02T22:11:53Z</time>
  <course>184.5</course>
  <speed>0.0</speed>
  <fix>3d</fix>
</trkpt>
<trkpt lat="33.810313" lon="-118.393867">
  <ele>-0.13</ele>
  <time>2026-09-02T22:11:53Z</time>
  <course>0.0</course>
  <speed>0.0</speed>
  <fix>3d</fix>
</trkpt>
<trkpt lat="33.810313" lon="-118.393867">
  <ele>0.0</ele>
  <time>2026-09-02T22:11:53Z</time>
  <course>184.7</course>
  <speed>0.0</speed>
  <fix>3d</fix>
</trkpt>
<trkpt lat="33.810313" lon="-118.393867">
  <ele>-0.13</ele>
  <time>2026-09-02T22:11:53Z</time>
  <course>0.0</course>
  <speed>0.0</speed>
  <fix>3d</fix>
</trkpt>
<trkpt lat="33.810313" lon="-118.393867">
  <ele>0.0</ele>
  <time>2026-09-02T22:11:53Z</time>
  <course>184.89</course>
  <speed>0.0</speed>
  <fix>3d</fix>
</trkpt>
<trkpt lat="33.810313" lon="-118.393867">
  <ele>-0.13</ele>
  <time>2026-09-02T22:11:53Z</time>
  <course>0.0</course>
  <speed>0.0</speed>
  <fix>3d</fix>
</trkpt>
<trkpt lat="33.810313" lon="-118.393867">
  <ele>0.0</ele>
  <time>2026-09-02T22:11:53Z</time>
  <course>185.07</course>
  <speed>0.0</speed>
  <fix>3d</fix>
</trkpt>
<trkpt lat="33.810313" lon="-118.393867">
  <ele>-0.14</ele>
  <time>2026-09-02T22:11:53Z</time>
  <course>0.0</course>
  <speed>0.0</speed>
  <fix>3d</fix>
</trkpt>
<trkpt lat="33.810313" lon="-118.393867">
  <ele>0.0</ele>
  <time>2026-09-02T22:11:53Z</time>
  <course>185.24</course>
  <speed>0.0</speed>
  <fix>3d</fix>
</trkpt>
<trkpt lat="33.810313" lon="-118.393867">
  <ele>-0.14</ele>
  <time>2026-09-02T22:11:53Z</time>
  <course>0.0</course>
  <speed>0.0</speed>
  <fix>3d</fix>
</trkpt>
<trkpt lat="33.810313" lon="-118.393867">
  <ele>0.0</ele>
  <time>2026-09-02T22:11:53Z</time>
  <course>185.41</course>
  <speed>0.0</speed>
  <fix>3d</fix>
</trkpt>
<trkpt lat="33.810313" lon="-118.393867">
  <ele>-0.13</ele>
  <time>2026-09-02T22:11:53Z</time>
  <course>0.0</course>
  <speed>0.0</speed>
  <fix>3d</fix>
</trkpt>
<trkpt lat="33.810313" lon="-118.393867">
  <ele>0.0</ele>
  <time>2026-09-02T22:11:53Z</time>
  <course>185.56</course>
  <speed>0.0</speed>
  <fix>3d</fix>
</trkpt>
<trkpt lat="33.810313" lon="-118.393867">
  <ele>-0.13</ele>
  <time>2026-09-02T22:11:53Z</time>
  <course>0.0</course>
  <speed>0.0</speed>
  <fix>3d</fix>
</trkpt>
<trkpt lat="33.810313" lon="-118.393867">
  <ele>0.0</ele>
  <time>2026-09-02T22:11:53Z</time>
  <course>185.72</course>
  <speed>0.0</speed>
  <fix>3d</fix>
</trkpt>
<trkpt lat="33.810313" lon="-118.393867">
  <ele>-0.13</ele>
  <time>2026-09-02T22:11:53Z</time>
  <course>0.0</course>
  <speed>0.0</speed>
  <fix>3d</fix>
</trkpt>
<trkpt lat="33.810313" lon="-118.393867">
  <ele>0.0</ele>
  <time>2026-09-02T22:11:53Z</time>
  <course>185.86</course>
  <speed>0.0</speed>
  <fix>3d</fix>
</trkpt>
<trkpt lat="33.810313" lon="-118.393867">
  <ele>-0.13</ele>
  <time>2026-09-02T22:11:53Z</time>
  <course>0.0</course>
  <speed>0.0</speed>
  <fix>3d</fix>
</trkpt>
<trkpt lat="33.810313" lon="-118.393867">
  <ele>0.0</ele>
  <time>2026-09-02T22:11:53Z</time>
  <course>186.0</course>
  <speed>0.0</speed>
  <fix>3d</fix>
</trkpt>
<trkpt lat="33.810313" lon="-118.393867">
  <ele>-0.12</ele>
  <time>2026-09-02T22:11:53Z</time>
  <course>0.0</course>
  <speed>0.0</speed>
  <fix>3d</fix>
</trkpt>
<trkpt lat="33.810313" lon="-118.393867">
  <ele>0.0</ele>
  <time>2026-09-02T22:11:53Z</time>
  <course>186.13</course>
  <speed>0.0</speed>
  <fix>3d</fix>
</trkpt>
<trkpt lat="33.810313" lon="-118.393867">
  <ele>-0.12</ele>
  <time>2026-09-02T22:11:53Z</time>
  <course>0.0</course>
  <speed>0.0</speed>
  <fix>3d</fix>
</trkpt>
<trkpt lat="33.810313" lon="-118.393867">
  <ele>0.0</ele>
  <time>2026-09-02T22:11:53Z</time>
  <course>186.26</course>
  <speed>0.0</speed>
  <fix>3d</fix>
</trkpt>
<trkpt lat="33.810313" lon="-118.393867">
  <ele>-0.12</ele>
  <time>2026-09-02T22:11:53Z</time>
  <course>0.0</course>
  <speed>0.0</speed>
  <fix>3d</fix>
</trkpt>
<trkpt lat="33.810313" lon="-118.393867">
  <ele>0.0</ele>
  <time>2026-09-02T22:11:53Z</time>
  <course>186.38</course>
  <speed>0.0</speed>
  <fix>3d</fix>
</trkpt>
<trkpt lat="33.810313" lon="-118.393867">
  <ele>-0.12</ele>
  <time>2026-09-02T22:11:53Z</time>
  <course>0.0</course>
  <speed>0.0</speed>
  <fix>3d</fix>
</trkpt>
<trkpt lat="33.810313" lon="-118.393867">
  <ele>0.0</ele>
  <time>2026-09-02T22:11:53Z</time>
  <course>186.49</course>
  <speed>0.0</speed>
  <fix>3d</fix>
</trkpt>
<trkpt lat="33.810313" lon="-118.393867">
  <ele>-0.12</ele>
  <time>2026-09-02T22:11:53Z</time>
  <course>0.0</course>
  <speed>0.0</speed>
  <fix>3d</fix>
</trkpt>
<trkpt lat="33.810313" lon="-118.393867">
  <ele>0.0</ele>
  <time>2026-09-02T22:11:53Z</time>
  <course>186.6</course>
  <speed>0.0</speed>
  <fix>3d</fix>
</trkpt>
<trkpt lat="33.810313" lon="-118.393867">
  <ele>-0.12</ele>
  <time>2026-09-02T22:11:53Z</time>
  <course>0.0</course>
  <speed>0.0</speed>
  <fix>3d</fix>
</trkpt>
<trkpt lat="33.810313" lon="-118.393867">
  <ele>0.0</ele>
  <time>2026-09-02T22:11:53Z</time>
  <course>186.71</course>
  <speed>0.0</speed>
  <fix>3d</fix>
</trkpt>
<trkpt lat="33.810313" lon="-118.393867">
  <ele>-0.12</ele>
  <time>2026-09-02T22:11:53Z</time>
  <course>0.0</course>
  <speed>0.0</speed>
  <fix>3d</fix>
</trkpt>
<trkpt lat="33.810313" lon="-118.393867">
  <ele>0.0</ele>
  <time>2026-09-02T22:11:53Z</time>
  <course>186.81</course>
  <speed>0.0</speed>
  <fix>3d</fix>
</trkpt>
<trkpt lat="33.810313" lon="-118.393867">
  <ele>-0.12</ele>
  <time>2026-09-02T22:11:53Z</time>
  <course>0.0</course>
  <speed>0.0</speed>
  <fix>3d</fix>
</trkpt>
<trkpt lat="33.810313" lon="-118.393867">
  <ele>0.0</ele>
  <time>2026-09-02T22:11:53Z</time>
  <course>186.9</course>
  <speed>0.0</speed>
  <fix>3d</fix>
</trkpt>
<trkpt lat="33.810313" lon="-118.393867">
  <ele>-0.12</ele>
  <time>2026-09-02T22:11:53Z</time>
  <course>0.0</course>
  <speed>0.0</speed>
  <fix>3d</fix>
</trkpt>
<trkpt lat="33.810313" lon="-118.393867">
  <ele>0.0</ele>
  <time>2026-09-02T22:11:53Z</time>
  <course>187.0</course>
  <speed>0.0</speed>
  <fix>3d</fix>
</trkpt>
<trkpt lat="33.810313" lon="-118.393867">
  <ele>-0.12</ele>
  <time>2026-09-02T22:11:53Z</time>
  <course>0.0</course>
  <speed>0.0</speed>
  <fix>3d</fix>
</trkpt>
<trkpt lat="33.810313" lon="-118.393867">
  <ele>0.0</ele>
  <time>2026-09-02T22:11:53Z</time>
  <course>187.08</course>
  <speed>0.0</speed>
  <fix>3d</fix>
</trkpt>
<trkpt lat="33.810313" lon="-118.393867">
  <ele>-0.13</ele>
  <time>2026-09-02T22:11:53Z</time>
  <course>0.0</course>
  <speed>0.0</speed>
  <fix>3d</fix>
</trkpt>
<trkpt lat="33.810313" lon="-118.393867">
  <ele>0.0</ele>
  <time>2026-09-02T22:11:53Z</time>
  <course>187.17</course>
  <speed>0.0</speed>
  <fix>3d</fix>
</trkpt>
<trkpt lat="33.810313" lon="-118.393867">
  <ele>-0.13</ele>
  <time>2026-09-02T22:11:53Z</time>
  <course>0.0</course>
  <speed>0.0</speed>
  <fix>3d</fix>
</trkpt>
<trkpt lat="33.810313" lon="-118.393867">
  <ele>0.0</ele>
  <time>2026-09-02T22:11:53Z</time>
  <course>187.24</course>
  <speed>0.0</speed>
  <fix>3d</fix>
</trkpt>
<trkpt lat="33.810313" lon="-118.393867">
  <ele>-0.13</ele>
  <time>2026-09-02T22:11:53Z</time>
  <course>0.0</course>
  <speed>0.0</speed>
  <fix>3d</fix>
</trkpt>
<trkpt lat="33.810313" lon="-118.393867">
  <ele>0.0</ele>
  <time>2026-09-02T22:11:53Z</time>
  <course>187.32</course>
  <speed>0.0</speed>
  <fix>3d</fix>
</trkpt>
<trkpt lat="33.810313" lon="-118.393867">
  <ele>-0.13</ele>
  <time>2026-09-02T22:11:53Z</time>
  <course>0.0</course>
  <speed>0.0</speed>
  <fix>3d</fix>
</trkpt>
<trkpt lat="33.810313" lon="-118.393867">
  <ele>0.0</ele>
  <time>2026-09-02T22:11:53Z</time>
  <course>187.39</course>
  <speed>0.0</speed>
  <fix>3d</fix>
</trkpt>
<trkpt lat="33.810313" lon="-118.393867">
  <ele>-0.13</ele>
  <time>2026-09-02T22:11:53Z</time>
  <course>0.0</course>
  <speed>0.0</speed>
  <fix>3d</fix>
</trkpt>
<trkpt lat="33.810313" lon="-118.393867">
  <ele>0.0</ele>
  <time>2026-09-02T22:11:53Z</time>
  <course>187.46</course>
  <speed>0.0</speed>
  <fix>3d</fix>
</trkpt>
<trkpt lat="33.810313" lon="-118.393867">
  <ele>-0.13</ele>
  <time>2026-09-02T22:11:53Z</time>
  <course>0.0</course>
  <speed>0.0</speed>
  <fix>3d</fix>
</trkpt>
<trkpt lat="33.810313" lon="-118.393867">
  <ele>0.0</ele>
  <time>2026-09-02T22:11:53Z</time>
  <course>187.53</course>
  <speed>0.0</speed>
  <fix>3d</fix>
</trkpt>
<trkpt lat="33.810313" lon="-118.393867">
  <ele>-0.13</ele>
  <time>2026-09-02T22:11:53Z</time>
  <course>0.0</course>
  <speed>0.0</speed>
  <fix>3d</fix>
</trkpt>
<trkpt lat="33.810313" lon="-118.393867">
  <ele>0.0</ele>
  <time>2026-09-02T22:11:53Z</time>
  <course>187.59</course>
  <speed>0.0</speed>
  <fix>3d</fix>
</trkpt>
<trkpt lat="33.810313" lon="-118.393867">
  <ele>-0.13</ele>
  <time>2026-09-02T22:11:53Z</time>
  <course>0.0</course>
  <speed>0.0</speed>
  <fix>3d</fix>
</trkpt>
<trkpt lat="33.810313" lon="-118.393867">
  <ele>0.0</ele>
  <time>2026-09-02T22:11:53Z</time>
  <course>187.65</course>
  <speed>0.0</speed>
  <fix>3d</fix>
</trkpt>
<trkpt lat="33.810313" lon="-118.393867">
  <ele>-0.12</ele>
  <time>2026-09-02T22:11:53Z</time>
  <course>0.0</course>
  <speed>0.0</speed>
  <fix>3d</fix>
</trkpt>
<trkpt lat="33.810313" lon="-118.393867">
  <ele>0.0</ele>
  <time>2026-09-02T22:11:53Z</time>
  <course>187.7</course>
  <speed>0.0</speed>
  <fix>3d</fix>
</trkpt>
<trkpt lat="33.810313" lon="-118.393867">
  <ele>-0.12</ele>
  <time>2026-09-02T22:11:53Z</time>
  <course>0.0</course>
  <speed>0.0</speed>
  <fix>3d</fix>
</trkpt>
<trkpt lat="33.810313" lon="-118.393867">
  <ele>0.0</ele>
  <time>2026-09-02T22:11:53Z</time>
  <course>187.76</course>
  <speed>0.0</speed>
  <fix>3d</fix>
</trkpt>
<trkpt lat="33.810313" lon="-118.393867">
  <ele>-0.12</ele>
  <time>2026-09-02T22:11:53Z</time>
  <course>0.0</course>
  <speed>0.0</speed>
  <fix>3d</fix>
</trkpt>
<trkpt lat="33.810313" lon="-118.393867">
  <ele>0.0</ele>
  <time>2026-09-02T22:11:53Z</time>
  <course>187.81</course>
  <speed>0.0</speed>
  <fix>3d</fix>
</trkpt>
<trkpt lat="33.810313" lon="-118.393867">
  <ele>-0.12</ele>
  <time>2026-09-02T22:11:53Z</time>
  <course>0.0</course>
  <speed>0.0</speed>
  <fix>3d</fix>
</trkpt>
<trkpt lat="33.810313" lon="-118.393867">
  <ele>0.0</ele>
  <time>2026-09-02T22:11:53Z</time>
  <course>187.86</course>
  <speed>0.0</speed>
  <fix>3d</fix>
</trkpt>
<trkpt lat="33.810313" lon="-118.393867">
  <ele>-0.12</ele>
  <time>2026-09-02T22:11:53Z</time>
  <course>0.0</course>
  <speed>0.0</speed>
  <fix>3d</fix>
</trkpt>
<trkpt lat="33.810313" lon="-118.393867">
  <ele>0.0</ele>
  <time>2026-09-02T22:11:53Z</time>
  <course>187.9</course>
  <speed>0.0</speed>
  <fix>3d</fix>
</trkpt>
<trkpt lat="33.810313" lon="-118.393867">
  <ele>-0.12</ele>
  <time>2026-09-02T22:11:53Z</time>
  <course>0.0</course>
  <speed>0.0</speed>
  <fix>3d</fix>
</trkpt>
<trkpt lat="33.810313" lon="-118.393867">
  <ele>0.0</ele>
  <time>2026-09-02T22:11:53Z</time>
  <course>187.94</course>
  <speed>0.0</speed>
  <fix>3d</fix>
</trkpt>
<trkpt lat="33.810313" lon="-118.393867">
  <ele>-0.12</ele>
  <time>2026-09-02T22:11:53Z</time>
  <course>0.0</course>
  <speed>0.0</speed>
  <fix>3d</fix>
</trkpt>
<trkpt lat="33.810313" lon="-118.393867">
  <ele>0.0</ele>
  <time>2026-09-02T22:11:53Z</time>
  <course>187.99</course>
  <speed>0.0</speed>
  <fix>3d</fix>
</trkpt>
<trkpt lat="33.810313" lon="-118.393867">
  <ele>-0.12</ele>
  <time>2026-09-02T22:11:53Z</time>
  <course>0.0</course>
  <speed>0.0</speed>
  <fix>3d</fix>
</trkpt>
<trkpt lat="33.810313" lon="-118.393867">
  <ele>0.0</ele>
  <time>2026-09-02T22:11:53Z</time>
  <course>188.02</course>
  <speed>0.0</speed>
  <fix>3d</fix>
</trkpt>
<trkpt lat="33.810313" lon="-118.393867">
  <ele>-0.12</ele>
  <time>2026-09-02T22:11:53Z</time>
  <course>0.0</course>
  <speed>0.0</speed>
  <fix>3d</fix>
</trkpt>
<trkpt lat="33.810313" lon="-118.393867">
  <ele>0.0</ele>
  <time>2026-09-02T22:11:53Z</time>
  <course>188.06</course>
  <speed>0.0</speed>
  <fix>3d</fix>
</trkpt>
<trkpt lat="33.810313" lon="-118.393867">
  <ele>-0.12</ele>
  <time>2026-09-02T22:11:53Z</time>
  <course>0.0</course>
  <speed>0.0</speed>
  <fix>3d</fix>
</trkpt>
<trkpt lat="33.810313" lon="-118.393867">
  <ele>0.0</ele>
  <time>2026-09-02T22:11:53Z</time>
  <course>188.1</course>
  <speed>0.0</speed>
  <fix>3d</fix>
</trkpt>
<trkpt lat="33.810313" lon="-118.393867">
  <ele>-0.13</ele>
  <time>2026-09-02T22:11:53Z</time>
  <course>0.0</course>
  <speed>0.0</speed>
  <fix>3d</fix>
</trkpt>
<trkpt lat="33.810313" lon="-118.393867">
  <ele>0.0</ele>
  <time>2026-09-02T22:11:53Z</time>
  <course>188.13</course>
  <speed>0.0</speed>
  <fix>3d</fix>
</trkpt>
<trkpt lat="33.810313" lon="-118.393867">
  <ele>-0.13</ele>
  <time>2026-09-02T22:11:53Z</time>
  <course>0.0</course>
  <speed>0.0</speed>
  <fix>3d</fix>
</trkpt>
<trkpt lat="33.810313" lon="-118.393867">
  <ele>0.0</ele>
  <time>2026-09-02T22:11:53Z</time>
  <course>188.16</course>
  <speed>0.0</speed>
  <fix>3d</fix>
</trkpt>
<trkpt lat="33.810313" lon="-118.393867">
  <ele>-0.13</ele>
  <time>2026-09-02T22:11:53Z</time>
  <course>0.0</course>
  <speed>0.0</speed>
  <fix>3d</fix>
</trkpt>
<trkpt lat="33.810313" lon="-118.393867">
  <ele>0.0</ele>
  <time>2026-09-02T22:11:53Z</time>
  <course>188.19</course>
  <speed>0.0</speed>
  <fix>3d</fix>
</trkpt>
<trkpt lat="33.810313" lon="-118.393867">
  <ele>-0.13</ele>
  <time>2026-09-02T22:11:53Z</time>
  <course>0.0</course>
  <speed>0.0</speed>
  <fix>3d</fix>
</trkpt>
<trkpt lat="33.810313" lon="-118.393867">
  <ele>0.0</ele>
  <time>2026-09-02T22:11:53Z</time>
  <course>188.22</course>
  <speed>0.0</speed>
  <fix>3d</fix>
</trkpt>
<trkpt lat="33.810313" lon="-118.393867">
  <ele>-0.13</ele>
  <time>2026-09-02T22:11:53Z</time>
  <course>0.0</course>
  <speed>0.0</speed>
  <fix>3d</fix>
</trkpt>
<trkpt lat="33.810313" lon="-118.393867">
  <ele>0.0</ele>
  <time>2026-09-02T22:11:53Z</time>
  <course>188.24</course>
  <speed>0.0</speed>
  <fix>3d</fix>
</trkpt>
<trkpt lat="33.810313" lon="-118.393867">
  <ele>-0.13</ele>
  <time>2026-09-02T22:11:53Z</time>
  <course>0.0</course>
  <speed>0.0</speed>
  <fix>3d</fix>
</trkpt>
<trkpt lat="33.810313" lon="-118.393867">
  <ele>0.0</ele>
  <time>2026-09-02T22:11:53Z</time>
  <course>188.27</course>
  <speed>0.0</speed>
  <fix>3d</fix>
</trkpt>
<trkpt lat="33.810313" lon="-118.393867">
  <ele>-0.12</ele>
  <time>2026-09-02T22:11:53Z</time>
  <course>0.0</course>
  <speed>0.0</speed>
  <fix>3d</fix>
</trkpt>
<trkpt lat="33.810313" lon="-118.393867">
  <ele>0.0</ele>
  <time>2026-09-02T22:11:53Z</time>
  <course>188.29</course>
  <speed>0.0</speed>
  <fix>3d</fix>
</trkpt>
<trkpt lat="33.810313" lon="-118.393867">
  <ele>-0.12</ele>
  <time>2026-09-02T22:11:53Z</time>
  <course>0.0</course>
  <speed>0.0</speed>
  <fix>3d</fix>
</trkpt>
<trkpt lat="33.810313" lon="-118.393867">
  <ele>0.0</ele>
  <time>2026-09-02T22:11:53Z</time>
  <course>188.32</course>
  <speed>0.0</speed>
  <fix>3d</fix>
</trkpt>
<trkpt lat="33.810313" lon="-118.393867">
  <ele>-0.12</ele>
  <time>2026-09-02T22:11:53Z</time>
  <course>0.0</course>
  <speed>0.0</speed>
  <fix>3d</fix>
</trkpt>
<trkpt lat="33.810313" lon="-118.393867">
  <ele>0.0</ele>
  <time>2026-09-02T22:11:53Z</time>
  <course>188.34</course>
  <speed>0.0</speed>
  <fix>3d</fix>
</trkpt>
<trkpt lat="33.810313" lon="-118.393867">
  <ele>-0.12</ele>
  <time>2026-09-02T22:11:53Z</time>
  <course>0.0</course>
  <speed>0.0</speed>
  <fix>3d</fix>
</trkpt>
<trkpt lat="33.810313" lon="-118.393867">
  <ele>0.0</ele>
  <time>2026-09-02T22:11:53Z</time>
  <course>188.36</course>
  <speed>0.0</speed>
  <fix>3d</fix>
</trkpt>
<trkpt lat="33.810313" lon="-118.393867">
  <ele>-0.12</ele>
  <time>2026-09-02T22:11:53Z</time>
  <course>0.0</course>
  <speed>0.0</speed>
  <fix>3d</fix>
</trkpt>
<trkpt lat="33.810313" lon="-118.393867">
  <ele>0.0</ele>
  <time>2026-09-02T22:11:53Z</time>
  <course>188.38</course>
  <speed>0.0</speed>
  <fix>3d</fix>
</trkpt>
<trkpt lat="33.810313" lon="-118.393867">
  <ele>-0.12</ele>
  <time>2026-09-02T22:11:53Z</time>
  <course>0.0</course>
  <speed>0.0</speed>
  <fix>3d</fix>
</trkpt>
<trkpt lat="33.810313" lon="-118.393867">
  <ele>0.0</ele>
  <time>2026-09-02T22:11:53Z</time>
  <course>188.39</course>
  <speed>0.0</speed>
  <fix>3d</fix>
</trkpt>
<trkpt lat="33.810313" lon="-118.393867">
  <ele>-0.12</ele>
  <time>2026-09-02T22:11:53Z</time>
  <course>0.0</course>
  <speed>0.0</speed>
  <fix>3d</fix>
</trkpt>
<trkpt lat="33.810313" lon="-118.393867">
  <ele>0.0</ele>
  <time>2026-09-02T22:11:53Z</time>
  <course>188.41</course>
  <speed>0.0</speed>
  <fix>3d</fix>
</trkpt>
<trkpt lat="33.810313" lon="-118.393867">
  <ele>-0.12</ele>
  <time>2026-09-02T22:11:53Z</time>
  <course>0.0</course>
  <speed>0.0</speed>
  <fix>3d</fix>
</trkpt>
<trkpt lat="33.810313" lon="-118.393867">
  <ele>0.0</ele>
  <time>2026-09-02T22:11:53Z</time>
  <course>188.42</course>
  <speed>0.0</speed>
  <fix>3d</fix>
</trkpt>
<trkpt lat="33.810313" lon="-118.393867">
  <ele>-0.12</ele>
  <time>2026-09-02T22:11:53Z</time>
  <course>0.0</course>
  <speed>0.0</speed>
  <fix>3d</fix>
</trkpt>
<trkpt lat="33.810313" lon="-118.393867">
  <ele>0.0</ele>
  <time>2026-09-02T22:11:53Z</time>
  <course>188.44</course>
  <speed>0.0</speed>
  <fix>3d</fix>
</trkpt>
<trkpt lat="33.810313" lon="-118.393867">
  <ele>-0.12</ele>
  <time>2026-09-02T22:11:53Z</time>
  <course>0.0</course>
  <speed>0.0</speed>
  <fix>3d</fix>
</trkpt>
<trkpt lat="33.810313" lon="-118.393867">
  <ele>0.0</ele>
  <time>2026-09-02T22:11:53Z</time>
  <course>188.45</course>
  <speed>0.0</speed>
  <fix>3d</fix>
</trkpt>
<trkpt lat="33.810313" lon="-118.393867">
  <ele>-0.13</ele>
  <time>2026-09-02T22:11:53Z</time>
  <course>0.0</course>
  <speed>0.0</speed>
  <fix>3d</fix>
</trkpt>
<trkpt lat="33.810313" lon="-118.393867">
  <ele>0.0</ele>
  <time>2026-09-02T22:11:53Z</time>
  <course>188.46</course>
  <speed>0.0</speed>
  <fix>3d</fix>
</trkpt>
<trkpt lat="33.810313" lon="-118.393867">
  <ele>-0.13</ele>
  <time>2026-09-02T22:11:53Z</time>
  <course>0.0</course>
  <speed>0.0</speed>
  <fix>3d</fix>
</trkpt>
<trkpt lat="33.810313" lon="-118.393867">
  <ele>0.0</ele>
  <time>2026-09-02T22:11:53Z</time>
  <course>188.47</course>
  <speed>0.0</speed>
  <fix>3d</fix>
</trkpt>
<trkpt lat="33.810313" lon="-118.393867">
  <ele>-0.13</ele>
  <time>2026-09-02T22:11:53Z</time>
  <course>0.0</course>
  <speed>0.0</speed>
  <fix>3d</fix>
</trkpt>
<trkpt lat="33.810313" lon="-118.393867">
  <ele>0.0</ele>
  <time>2026-09-02T22:11:53Z</time>
  <course>188.48</course>
  <speed>0.0</speed>
  <fix>3d</fix>
</trkpt>
<trkpt lat="33.810313" lon="-118.393867">
  <ele>-0.13</ele>
  <time>2026-09-02T22:11:53Z</time>
  <course>0.0</course>
  <speed>0.0</speed>
  <fix>3d</fix>
</trkpt>
<trkpt lat="33.810313" lon="-118.393867">
  <ele>0.0</ele>
  <time>2026-09-02T22:11:53Z</time>
  <course>188.49</course>
  <speed>0.0</speed>
  <fix>3d</fix>
</trkpt>
<trkpt lat="33.810313" lon="-118.393867">
  <ele>-0.13</ele>
  <time>2026-09-02T22:11:53Z</time>
  <course>0.0</course>
  <speed>0.0</speed>
  <fix>3d</fix>
</trkpt>
<trkpt lat="33.810313" lon="-118.393867">
  <ele>0.0</ele>
  <time>2026-09-02T22:11:53Z</time>
  <course>188.5</course>
  <speed>0.0</speed>
  <fix>3d</fix>
</trkpt>
<trkpt lat="33.810313" lon="-118.393867">
  <ele>-0.13</ele>
  <time>2026-09-02T22:11:53Z</time>
  <course>0.0</course>
  <speed>0.0</speed>
  <fix>3d</fix>
</trkpt>
<trkpt lat="33.810313" lon="-118.393867">
  <ele>0.0</ele>
  <time>2026-09-02T22:11:53Z</time>
  <course>188.51</course>
  <speed>0.0</speed>
  <fix>3d</fix>
</trkpt>
<trkpt lat="33.810313" lon="-118.393867">
  <ele>-0.12</ele>
  <time>2026-09-02T22:11:53Z</time>
  <course>0.0</course>
  <speed>0.0</speed>
  <fix>3d</fix>
</trkpt>
<trkpt lat="33.810313" lon="-118.393867">
  <ele>0.0</ele>
  <time>2026-09-02T22:11:53Z</time>
  <course>188.52</course>
  <speed>0.0</speed>
  <fix>3d</fix>
</trkpt>
<trkpt lat="33.810313" lon="-118.393867">
  <ele>-0.12</ele>
  <time>2026-09-02T22:11:53Z</time>
  <course>0.0</course>
  <speed>0.0</speed>
  <fix>3d</fix>
</trkpt>
<trkpt lat="33.810313" lon="-118.393867">
  <ele>0.0</ele>
  <time>2026-09-02T22:11:53Z</time>
  <course>188.53</course>
  <speed>0.0</speed>
  <fix>3d</fix>
</trkpt>
<trkpt lat="33.810313" lon="-118.393867">
  <ele>-0.12</ele>
  <time>2026-09-02T22:11:53Z</time>
  <course>0.0</course>
  <speed>0.0</speed>
  <fix>3d</fix>
</trkpt>
<trkpt lat="33.810313" lon="-118.393867">
  <ele>0.0</ele>
  <time>2026-09-02T22:11:53Z</time>
  <course>188.53</course>
  <speed>0.0</speed>
  <fix>3d</fix>
</trkpt>
<trkpt lat="33.810313" lon="-118.393867">
  <ele>-0.12</ele>
  <time>2026-09-02T22:11:53Z</time>
  <course>0.0</course>
  <speed>0.0</speed>
  <fix>3d</fix>
</trkpt>
<trkpt lat="33.810313" lon="-118.393867">
  <ele>0.0</ele>
  <time>2026-09-02T22:11:53Z</time>
  <course>188.54</course>
  <speed>0.0</speed>
  <fix>3d</fix>
</trkpt>
<trkpt lat="33.810313" lon="-118.393867">
  <ele>-0.12</ele>
  <time>2026-09-02T22:11:53Z</time>
  <course>0.0</course>
  <speed>0.0</speed>
  <fix>3d</fix>
</trkpt>
<trkpt lat="33.810313" lon="-118.393867">
  <ele>0.0</ele>
  <time>2026-09-02T22:11:53Z</time>
  <course>188.54</course>
  <speed>0.0</speed>
  <fix>3d</fix>
</trkpt>
<trkpt lat="33.810313" lon="-118.393867">
  <ele>-0.12</ele>
  <time>2026-09-02T22:11:53Z</time>
  <course>0.0</course>
  <speed>0.0</speed>
  <fix>3d</fix>
</trkpt>
<trkpt lat="33.810313" lon="-118.393867">
  <ele>0.0</ele>
  <time>2026-09-02T22:11:53Z</time>
  <course>188.54</course>
  <speed>0.0</speed>
  <fix>3d</fix>
</trkpt>
<trkpt lat="33.810313" lon="-118.393867">
  <ele>-0.12</ele>
  <time>2026-09-02T22:11:53Z</time>
  <course>0.0</course>
  <speed>0.0</speed>
  <fix>3d</fix>
</trkpt>
<trkpt lat="33.810313" lon="-118.393867">
  <ele>0.0</ele>
  <time>2026-09-02T22:11:53Z</time>
  <course>188.55</course>
  <speed>0.0</speed>
  <fix>3d</fix>
</trkpt>
<trkpt lat="33.810313" lon="-118.393867">
  <ele>-0.12</ele>
  <time>2026-09-02T22:11:53Z</time>
  <course>0.0</course>
  <speed>0.0</speed>
  <fix>3d</fix>
</trkpt>
<trkpt lat="33.810313" lon="-118.393867">
  <ele>0.0</ele>
  <time>2026-09-02T22:11:53Z</time>
  <course>188.55</course>
  <speed>0.0</speed>
  <fix>3d</fix>
</trkpt>
<trkpt lat="33.810313" lon="-118.393867">
  <ele>-0.12</ele>
  <time>2026-09-02T22:11:53Z</time>
  <course>0.0</course>
  <speed>0.0</speed>
  <fix>3d</fix>
</trkpt>
<trkpt lat="33.810313" lon="-118.393867">
  <ele>0.0</ele>
  <time>2026-09-02T22:11:53Z</time>
  <course>188.55</course>
  <speed>0.0</speed>
  <fix>3d</fix>
</trkpt>
<trkpt lat="33.810313" lon="-118.393867">
  <ele>-0.12</ele>
  <time>2026-09-02T22:11:53Z</time>
  <course>0.0</course>
  <speed>0.0</speed>
  <fix>3d</fix>
</trkpt>
<trkpt lat="33.810313" lon="-118.393867">
  <ele>-0.126</ele>
  <time>2026-09-02T22:11:53Z</time>
  <course>188.55</course>
  <speed>0.0</speed>
  <fix>3d</fix>
</trkpt>
<trkpt lat="33.810313" lon="-118.393867">
  <ele>-0.13</ele>
  <time>2026-09-02T22:11:53Z</time>
  <course>0.0</course>
  <speed>0.0</speed>
  <fix>3d</fix>
</trkpt>
<trkpt lat="33.810313" lon="-118.393867">
  <ele>-0.126</ele>
  <time>2026-09-02T22:11:53Z</time>
  <course>188.56</course>
  <speed>0.0</speed>
  <fix>3d</fix>
</trkpt>
<trkpt lat="33.810313" lon="-118.393867">
  <ele>-0.13</ele>
  <time>2026-09-02T22:11:53Z</time>
  <course>0.0</course>
  <speed>0.0</speed>
  <fix>3d</fix>
</trkpt>
<trkpt lat="33.810313" lon="-118.393867">
  <ele>-0.125</ele>
  <time>2026-09-02T22:11:53Z</time>
  <course>188.56</course>
  <speed>0.0</speed>
  <fix>3d</fix>
</trkpt>
<trkpt lat="33.810313" lon="-118.393867">
  <ele>-0.13</ele>
  <time>2026-09-02T22:11:53Z</time>
  <course>0.0</course>
  <speed>0.0</speed>
  <fix>3d</fix>
</trkpt>
<trkpt lat="33.810313" lon="-118.393867">
  <ele>-0.123</ele>
  <time>2026-09-02T22:11:53Z</time>
  <course>188.56</course>
  <speed>0.0</speed>
  <fix>3d</fix>
</trkpt>
<trkpt lat="33.810313" lon="-118.393867">
  <ele>-0.13</ele>
  <time>2026-09-02T22:11:53Z</time>
  <course>0.0</course>
  <speed>0.0</speed>
  <fix>3d</fix>
</trkpt>
<trkpt lat="33.810313" lon="-118.393867">
  <ele>-0.121</ele>
  <time>2026-09-02T22:11:53Z</time>
  <course>188.56</course>
  <speed>0.0</speed>
  <fix>3d</fix>
</trkpt>
<trkpt lat="33.810313" lon="-118.393867">
  <ele>-0.12</ele>
  <time>2026-09-02T22:11:53Z</time>
  <course>0.0</course>
  <speed>0.0</speed>
  <fix>3d</fix>
</trkpt>
<trkpt lat="33.810313" lon="-118.393867">
  <ele>-0.12</ele>
  <time>2026-09-02T22:11:53Z</time>
  <course>188.56</course>
  <speed>0.0</speed>
  <fix>3d</fix>
</trkpt>
<trkpt lat="33.810313" lon="-118.393867">
  <ele>-0.12</ele>
  <time>2026-09-02T22:11:53Z</time>
  <course>0.0</course>
  <speed>0.0</speed>
  <fix>3d</fix>
</trkpt>
<trkpt lat="33.810313" lon="-118.393867">
  <ele>-0.119</ele>
  <time>2026-09-02T22:11:53Z</time>
  <course>188.56</course>
  <speed>0.0</speed>
  <fix>3d</fix>
</trkpt>
<trkpt lat="33.810313" lon="-118.393867">
  <ele>-0.12</ele>
  <time>2026-09-02T22:11:53Z</time>
  <course>0.0</course>
  <speed>0.0</speed>
  <fix>3d</fix>
</trkpt>
<trkpt lat="33.810313" lon="-118.393867">
  <ele>-0.12</ele>
  <time>2026-09-02T22:11:53Z</time>
  <course>188.56</course>
  <speed>0.0</speed>
  <fix>3d</fix>
</trkpt>
<trkpt lat="33.810313" lon="-118.393867">
  <ele>-0.12</ele>
  <time>2026-09-02T22:11:53Z</time>
  <course>0.0</course>
  <speed>0.0</speed>
  <fix>3d</fix>
</trkpt>
<trkpt lat="33.810313" lon="-118.393867">
  <ele>-0.123</ele>
  <time>2026-09-02T22:11:53Z</time>
  <course>188.55</course>
  <speed>0.0</speed>
  <fix>3d</fix>
</trkpt>
<trkpt lat="33.810313" lon="-118.393867">
  <ele>-0.12</ele>
  <time>2026-09-02T22:11:53Z</time>
  <course>0.0</course>
  <speed>0.0</speed>
  <fix>3d</fix>
</trkpt>
<trkpt lat="33.810313" lon="-118.393867">
  <ele>-0.127</ele>
  <time>2026-09-02T22:11:53Z</time>
  <course>188.55</course>
  <speed>0.0</speed>
  <fix>3d</fix>
</trkpt>
<trkpt lat="33.810313" lon="-118.393867">
  <ele>-0.12</ele>
  <time>2026-09-02T22:11:53Z</time>
  <course>0.0</course>
  <speed>0.0</speed>
  <fix>3d</fix>
</trkpt>
<trkpt lat="33.810313" lon="-118.393867">
  <ele>-0.13</ele>
  <time>2026-09-02T22:11:53Z</time>
  <course>188.55</course>
  <speed>0.0</speed>
  <fix>3d</fix>
</trkpt>
<trkpt lat="33.810313" lon="-118.393867">
  <ele>-0.12</ele>
  <time>2026-09-02T22:11:53Z</time>
  <course>0.0</course>
  <speed>0.0</speed>
  <fix>3d</fix>
</trkpt>
<trkpt lat="33.810313" lon="-118.393867">
  <ele>-0.132</ele>
  <time>2026-09-02T22:11:53Z</time>
  <course>188.55</course>
  <speed>0.0</speed>
  <fix>3d</fix>
</trkpt>
<trkpt lat="33.810313" lon="-118.393867">
  <ele>-0.12</ele>
  <time>2026-09-02T22:11:53Z</time>
  <course>0.0</course>
  <speed>0.0</speed>
  <fix>3d</fix>
</trkpt>
<trkpt lat="33.810313" lon="-118.393867">
  <ele>-0.132</ele>
  <time>2026-09-02T22:11:53Z</time>
  <course>188.55</course>
  <speed>0.0</speed>
  <fix>3d</fix>
</trkpt>
<trkpt lat="33.810313" lon="-118.393867">
  <ele>-0.12</ele>
  <time>2026-09-02T22:11:53Z</time>
  <course>0.0</course>
  <speed>0.0</speed>
  <fix>3d</fix>
</trkpt>
<trkpt lat="33.810313" lon="-118.393867">
  <ele>-0.132</ele>
  <time>2026-09-02T22:11:53Z</time>
  <course>188.55</course>
  <speed>0.0</speed>
  <fix>3d</fix>
</trkpt>
<trkpt lat="33.810313" lon="-118.393867">
  <ele>-0.12</ele>
  <time>2026-09-02T22:11:53Z</time>
  <course>0.0</course>
  <speed>0.0</speed>
  <fix>3d</fix>
</trkpt>
<trkpt lat="33.810313" lon="-118.393867">
  <ele>-0.132</ele>
  <time>2026-09-02T22:11:53Z</time>
  <course>188.55</course>
  <speed>0.0</speed>
  <fix>3d</fix>
</trkpt>
<trkpt lat="33.810313" lon="-118.393867">
  <ele>-0.12</ele>
  <time>2026-09-02T22:11:53Z</time>
  <course>0.0</course>
  <speed>0.0</speed>
  <fix>3d</fix>
</trkpt>
<trkpt lat="33.810313" lon="-118.393867">
  <ele>-0.131</ele>
  <time>2026-09-02T22:11:53Z</time>
  <course>188.55</course>
  <speed>0.0</speed>
  <fix>3d</fix>
</trkpt>
<trkpt lat="33.810313" lon="-118.393867">
  <ele>-0.12</ele>
  <time>2026-09-02T22:11:53Z</time>
  <course>0.0</course>
  <speed>0.0</speed>
  <fix>3d</fix>
</trkpt>
<trkpt lat="33.810313" lon="-118.393867">
  <ele>-0.129</ele>
  <time>2026-09-02T22:11:53Z</time>
  <course>188.54</course>
  <speed>0.0</speed>
  <fix>3d</fix>
</trkpt>
<trkpt lat="33.810313" lon="-118.393867">
  <ele>-0.13</ele>
  <time>2026-09-02T22:11:53Z</time>
  <course>0.0</course>
  <speed>0.0</speed>
  <fix>3d</fix>
</trkpt>
<trkpt lat="33.810313" lon="-118.393867">
  <ele>-0.128</ele>
  <time>2026-09-02T22:11:53Z</time>
  <course>188.54</course>
  <speed>0.0</speed>
  <fix>3d</fix>
</trkpt>
<trkpt lat="33.810313" lon="-118.393867">
  <ele>-0.13</ele>
  <time>2026-09-02T22:11:53Z</time>
  <course>0.0</course>
  <speed>0.0</speed>
  <fix>3d</fix>
</trkpt>
<trkpt lat="33.810313" lon="-118.393867">
  <ele>-0.125</ele>
  <time>2026-09-02T22:11:53Z</time>
  <course>188.53</course>
  <speed>0.0</speed>
  <fix>3d</fix>
</trkpt>
<trkpt lat="33.810313" lon="-118.393867">
  <ele>-0.12</ele>
  <time>2026-09-02T22:11:53Z</time>
  <course>0.0</course>
  <speed>0.0</speed>
  <fix>3d</fix>
</trkpt>
<trkpt lat="33.810313" lon="-118.393867">
  <ele>-0.123</ele>
  <time>2026-09-02T22:11:53Z</time>
  <course>188.53</course>
  <speed>0.0</speed>
  <fix>3d</fix>
</trkpt>
<trkpt lat="33.810313" lon="-118.393867">
  <ele>-0.12</ele>
  <time>2026-09-02T22:11:53Z</time>
  <course>0.0</course>
  <speed>0.0</speed>
  <fix>3d</fix>
</trkpt>
<trkpt lat="33.810313" lon="-118.393867">
  <ele>-0.121</ele>
  <time>2026-09-02T22:11:53Z</time>
  <course>188.52</course>
  <speed>0.0</speed>
  <fix>3d</fix>
</trkpt>
<trkpt lat="33.810313" lon="-118.393867">
  <ele>-0.12</ele>
  <time>2026-09-02T22:11:53Z</time>
  <course>0.0</course>
  <speed>0.0</speed>
  <fix>3d</fix>
</trkpt>
<trkpt lat="33.810313" lon="-118.393867">
  <ele>-0.121</ele>
  <time>2026-09-02T22:11:53Z</time>
  <course>188.52</course>
  <speed>0.0</speed>
  <fix>3d</fix>
</trkpt>
<trkpt lat="33.810313" lon="-118.393867">
  <ele>-0.12</ele>
  <time>2026-09-02T22:11:53Z</time>
  <course>0.0</course>
  <speed>0.0</speed>
  <fix>3d</fix>
</trkpt>
<trkpt lat="33.810313" lon="-118.393867">
  <ele>-0.121</ele>
  <time>2026-09-02T22:11:53Z</time>
  <course>188.51</course>
  <speed>0.0</speed>
  <fix>3d</fix>
</trkpt>
<trkpt lat="33.810313" lon="-118.393867">
  <ele>-0.12</ele>
  <time>2026-09-02T22:11:53Z</time>
  <course>0.0</course>
  <speed>0.0</speed>
  <fix>3d</fix>
</trkpt>
<trkpt lat="33.810313" lon="-118.393867">
  <ele>-0.123</ele>
  <time>2026-09-02T22:11:53Z</time>
  <course>188.51</course>
  <speed>0.0</speed>
  <fix>3d</fix>
</trkpt>
<trkpt lat="33.810313" lon="-118.393867">
  <ele>-0.12</ele>
  <time>2026-09-02T22:11:53Z</time>
  <course>0.0</course>
  <speed>0.0</speed>
  <fix>3d</fix>
</trkpt>
<trkpt lat="33.810313" lon="-118.393867">
  <ele>-0.126</ele>
  <time>2026-09-02T22:11:53Z</time>
  <course>188.5</course>
  <speed>0.0</speed>
  <fix>3d</fix>
</trkpt>
<trkpt lat="33.810313" lon="-118.393867">
  <ele>-0.12</ele>
  <time>2026-09-02T22:11:53Z</time>
  <course>0.0</course>
  <speed>0.0</speed>
  <fix>3d</fix>
</trkpt>
<trkpt lat="33.810313" lon="-118.393867">
  <ele>-0.127</ele>
  <time>2026-09-02T22:11:53Z</time>
  <course>188.5</course>
  <speed>0.0</speed>
  <fix>3d</fix>
</trkpt>
<trkpt lat="33.810313" lon="-118.393867">
  <ele>-0.12</ele>
  <time>2026-09-02T22:11:53Z</time>
  <course>0.0</course>
  <speed>0.0</speed>
  <fix>3d</fix>
</trkpt>
<trkpt lat="33.810313" lon="-118.393867">
  <ele>-0.128</ele>
  <time>2026-09-02T22:11:53Z</time>
  <course>188.49</course>
  <speed>0.0</speed>
  <fix>3d</fix>
</trkpt>
<trkpt lat="33.810313" lon="-118.393867">
  <ele>-0.12</ele>
  <time>2026-09-02T22:11:53Z</time>
  <course>0.0</course>
  <speed>0.0</speed>
  <fix>3d</fix>
</trkpt>
<trkpt lat="33.810313" lon="-118.393867">
  <ele>-0.127</ele>
  <time>2026-09-02T22:11:53Z</time>
  <course>188.49</course>
  <speed>0.0</speed>
  <fix>3d</fix>
</trkpt>
<trkpt lat="33.810313" lon="-118.393867">
  <ele>-0.12</ele>
  <time>2026-09-02T22:11:53Z</time>
  <course>0.0</course>
  <speed>0.0</speed>
  <fix>3d</fix>
</trkpt>
<trkpt lat="33.810313" lon="-118.393867">
  <ele>-0.127</ele>
  <time>2026-09-02T22:11:53Z</time>
  <course>188.48</course>
  <speed>0.0</speed>
  <fix>3d</fix>
</trkpt>
<trkpt lat="33.810313" lon="-118.393867">
  <ele>-0.12</ele>
  <time>2026-09-02T22:11:53Z</time>
  <course>0.0</course>
  <speed>0.0</speed>
  <fix>3d</fix>
</trkpt>
<trkpt lat="33.810313" lon="-118.393867">
  <ele>-0.127</ele>
  <time>2026-09-02T22:11:53Z</time>
  <course>188.47</course>
  <speed>0.01</speed>
  <fix>3d</fix>
</trkpt>
<trkpt lat="33.810313" lon="-118.393867">
  <ele>-0.12</ele>
  <time>2026-09-02T22:11:53Z</time>
  <course>0.0</course>
  <speed>0.0</speed>
  <fix>3d</fix>
</trkpt>
<trkpt lat="33.810313" lon="-118.393867">
  <ele>-0.127</ele>
  <time>2026-09-02T22:11:53Z</time>
  <course>188.47</course>
  <speed>0.01</speed>
  <fix>3d</fix>
</trkpt>
<trkpt lat="33.810313" lon="-118.393867">
  <ele>-0.12</ele>
  <time>2026-09-02T22:11:53Z</time>
  <course>0.0</course>
  <speed>0.0</speed>
  <fix>3d</fix>
</trkpt>
<trkpt lat="33.810313" lon="-118.393867">
  <ele>-0.127</ele>
  <time>2026-09-02T22:11:53Z</time>
  <course>188.46</course>
  <speed>0.01</speed>
  <fix>3d</fix>
</trkpt>
<trkpt lat="33.810313" lon="-118.393867">
  <ele>-0.12</ele>
  <time>2026-09-02T22:11:53Z</time>
  <course>0.0</course>
  <speed>0.0</speed>
  <fix>3d</fix>
</trkpt>
<trkpt lat="33.810313" lon="-118.393867">
  <ele>-0.126</ele>
  <time>2026-09-02T22:11:53Z</time>
  <course>188.45</course>
  <speed>0.01</speed>
  <fix>3d</fix>
</trkpt>
<trkpt lat="33.810313" lon="-118.393867">
  <ele>-0.12</ele>
  <time>2026-09-02T22:11:53Z</time>
  <course>0.0</course>
  <speed>0.0</speed>
  <fix>3d</fix>
</trkpt>
<trkpt lat="33.810313" lon="-118.393867">
  <ele>-0.126</ele>
  <time>2026-09-02T22:11:53Z</time>
  <course>188.45</course>
  <speed>0.01</speed>
  <fix>3d</fix>
</trkpt>
<trkpt lat="33.810313" lon="-118.393867">
  <ele>-0.12</ele>
  <time>2026-09-02T22:11:53Z</time>
  <course>0.0</course>
  <speed>0.0</speed>
  <fix>3d</fix>
</trkpt>
<trkpt lat="33.810313" lon="-118.393867">
  <ele>-0.125</ele>
  <time>2026-09-02T22:11:53Z</time>
  <course>188.44</course>
  <speed>0.01</speed>
  <fix>3d</fix>
</trkpt>
<trkpt lat="33.810313" lon="-118.393867">
  <ele>-0.12</ele>
  <time>2026-09-02T22:11:53Z</time>
  <course>0.0</course>
  <speed>0.0</speed>
  <fix>3d</fix>
</trkpt>
<trkpt lat="33.810313" lon="-118.393867">
  <ele>-0.126</ele>
  <time>2026-09-02T22:11:53Z</time>
  <course>188.43</course>
  <speed>0.01</speed>
  <fix>3d</fix>
</trkpt>
<trkpt lat="33.810313" lon="-118.393867">
  <ele>-0.12</ele>
  <time>2026-09-02T22:11:53Z</time>
  <course>0.0</course>
  <speed>0.0</speed>
  <fix>3d</fix>
</trkpt>
<trkpt lat="33.810313" lon="-118.393867">
  <ele>-0.127</ele>
  <time>2026-09-02T22:11:53Z</time>
  <course>188.42</course>
  <speed>0.01</speed>
  <fix>3d</fix>
</trkpt>
<trkpt lat="33.810313" lon="-118.393867">
  <ele>-0.12</ele>
  <time>2026-09-02T22:11:53Z</time>
  <course>0.0</course>
  <speed>0.0</speed>
  <fix>3d</fix>
</trkpt>
<trkpt lat="33.810313" lon="-118.393867">
  <ele>-0.128</ele>
  <time>2026-09-02T22:11:53Z</time>
  <course>188.42</course>
  <speed>0.01</speed>
  <fix>3d</fix>
</trkpt>
<trkpt lat="33.810313" lon="-118.393867">
  <ele>-0.12</ele>
  <time>2026-09-02T22:11:53Z</time>
  <course>0.0</course>
  <speed>0.0</speed>
  <fix>3d</fix>
</trkpt>
<trkpt lat="33.810313" lon="-118.393867">
  <ele>-0.129</ele>
  <time>2026-09-02T22:11:53Z</time>
  <course>188.41</course>
  <speed>0.01</speed>
  <fix>3d</fix>
</trkpt>
<trkpt lat="33.810313" lon="-118.393867">
  <ele>-0.12</ele>
  <time>2026-09-02T22:11:53Z</time>
  <course>0.0</course>
  <speed>0.0</speed>
  <fix>3d</fix>
</trkpt>
<trkpt lat="33.810313" lon="-118.393867">
  <ele>-0.129</ele>
  <time>2026-09-02T22:11:53Z</time>
  <course>188.4</course>
  <speed>0.01</speed>
  <fix>3d</fix>
</trkpt>
<trkpt lat="33.810313" lon="-118.393867">
  <ele>-0.12</ele>
  <time>2026-09-02T22:11:53Z</time>
  <course>0.0</course>
  <speed>0.0</speed>
  <fix>3d</fix>
</trkpt>
<trkpt lat="33.810313" lon="-118.393867">
  <ele>-0.13</ele>
  <time>2026-09-02T22:11:53Z</time>
  <course>188.4</course>
  <speed>0.01414213562373095</speed>
  <fix>3d</fix>
</trkpt>
<trkpt lat="33.810313" lon="-118.393867">
  <ele>-0.12</ele>
  <time>2026-09-02T22:11:53Z</time>
  <course>0.0</course>
  <speed>0.0</speed>
  <fix>3d</fix>
</trkpt>
<trkpt lat="33.810313" lon="-118.393867">
  <ele>-0.13</ele>
  <time>2026-09-02T22:11:53Z</time>
  <course>188.39</course>
  <speed>0.01414213562373095</speed>
  <fix>3d</fix>
</trkpt>
<trkpt lat="33.810313" lon="-118.393867">
  <ele>-0.12</ele>
  <time>2026-09-02T22:11:53Z</time>
  <course>0.0</course>
  <speed>0.0</speed>
  <fix>3d</fix>
</trkpt>
<trkpt lat="33.810313" lon="-118.393867">
  <ele>-0.13</ele>
  <time>2026-09-02T22:11:53Z</time>
  <course>188.38</course>
  <speed>0.01414213562373095</speed>
  <fix>3d</fix>
</trkpt>
<trkpt lat="33.810313" lon="-118.393867">
  <ele>-0.12</ele>
  <time>2026-09-02T22:11:53Z</time>
  <course>0.0</course>
  <speed>0.0</speed>
  <fix>3d</fix>
</trkpt>
<trkpt lat="33.810313" lon="-118.393867">
  <ele>-0.129</ele>
  <time>2026-09-02T22:11:53Z</time>
  <course>188.37</course>
  <speed>0.01414213562373095</speed>
  <fix>3d</fix>
</trkpt>
<trkpt lat="33.810313" lon="-118.393867">
  <ele>-0.12</ele>
  <time>2026-09-02T22:11:53Z</time>
  <course>0.0</course>
  <speed>0.0</speed>
  <fix>3d</fix>
</trkpt>
<trkpt lat="33.810313" lon="-118.393867">
  <ele>-0.128</ele>
  <time>2026-09-02T22:11:53Z</time>
  <course>188.37</course>
  <speed>0.01414213562373095</speed>
  <fix>3d</fix>
</trkpt>
<trkpt lat="33.810313" lon="-118.393867">
  <ele>-0.12</ele>
  <time>2026-09-02T22:11:53Z</time>
  <course>0.0</course>
  <speed>0.0</speed>
  <fix>3d</fix>
</trkpt>
<trkpt lat="33.810313" lon="-118.393867">
  <ele>-0.126</ele>
  <time>2026-09-02T22:11:53Z</time>
  <course>188.36</course>
  <speed>0.01414213562373095</speed>
  <fix>3d</fix>
</trkpt>
<trkpt lat="33.810313" lon="-118.393867">
  <ele>-0.12</ele>
  <time>2026-09-02T22:11:53Z</time>
  <course>0.0</course>
  <speed>0.0</speed>
  <fix>3d</fix>
</trkpt>
<trkpt lat="33.810313" lon="-118.393867">
  <ele>-0.124</ele>
  <time>2026-09-02T22:11:53Z</time>
  <course>188.35</course>
  <speed>0.01414213562373095</speed>
  <fix>3d</fix>
</trkpt>
<trkpt lat="33.810313" lon="-118.393867">
  <ele>-0.12</ele>
  <time>2026-09-02T22:11:53Z</time>
  <course>0.0</course>
  <speed>0.0</speed>
  <fix>3d</fix>
</trkpt>
<trkpt lat="33.810313" lon="-118.393867">
  <ele>-0.122</ele>
  <time>2026-09-02T22:11:53Z</time>
  <course>188.34</course>
  <speed>0.01414213562373095</speed>
  <fix>3d</fix>
</trkpt>
<trkpt lat="33.810313" lon="-118.393867">
  <ele>-0.12</ele>
  <time>2026-09-02T22:11:53Z</time>
  <course>0.0</course>
  <speed>0.0</speed>
  <fix>3d</fix>
</trkpt>
<trkpt lat="33.810313" lon="-118.393867">
  <ele>-0.123</ele>
  <time>2026-09-02T22:11:53Z</time>
  <course>188.34</course>
  <speed>0.01414213562373095</speed>
  <fix>3d</fix>
</trkpt>
<trkpt lat="33.810313" lon="-118.393867">
  <ele>-0.12</ele>
  <time>2026-09-02T22:11:53Z</time>
  <course>0.0</course>
  <speed>0.0</speed>
  <fix>3d</fix>
</trkpt>
<trkpt lat="33.810313" lon="-118.393867">
  <ele>-0.125</ele>
  <time>2026-09-02T22:11:53Z</time>
  <course>188.33</course>
  <speed>0.01414213562373095</speed>
  <fix>3d</fix>
</trkpt>
<trkpt lat="33.810313" lon="-118.393867">
  <ele>-0.12</ele>
  <time>2026-09-02T22:11:53Z</time>
  <course>0.0</course>
  <speed>0.0</speed>
  <fix>3d</fix>
</trkpt>
<trkpt lat="33.810313" lon="-118.393867">
  <ele>-0.128</ele>
  <time>2026-09-02T22:11:53Z</time>
  <course>188.32</course>
  <speed>0.01414213562373095</speed>
  <fix>3d</fix>
</trkpt>
<trkpt lat="33.810313" lon="-118.393867">
  <ele>-0.12</ele>
  <time>2026-09-02T22:11:53Z</time>
  <course>0.0</course>
  <speed>0.0</speed>
  <fix>3d</fix>
</trkpt>
<trkpt lat="33.810313" lon="-118.393867">
  <ele>-0.131</ele>
  <time>2026-09-02T22:11:53Z</time>
  <course>188.31</course>
  <speed>0.01414213562373095</speed>
  <fix>3d</fix>
</trkpt>
<trkpt lat="33.810313" lon="-118.393867">
  <ele>-0.12</ele>
  <time>2026-09-02T22:11:53Z</time>
  <course>0.0</course>
  <speed>0.0</speed>
  <fix>3d</fix>
</trkpt>
<trkpt lat="33.810313" lon="-118.393867">
  <ele>-0.134</ele>
  <time>2026-09-02T22:11:53Z</time>
  <course>188.3</course>
  <speed>0.01414213562373095</speed>
  <fix>3d</fix>
</trkpt>
<trkpt lat="33.810313" lon="-118.393867">
  <ele>-0.12</ele>
  <time>2026-09-02T22:11:53Z</time>
  <course>0.0</course>
  <speed>0.0</speed>
  <fix>3d</fix>
</trkpt>
<trkpt lat="33.810313" lon="-118.393867">
  <ele>-0.135</ele>
  <time>2026-09-02T22:11:53Z</time>
  <course>188.3</course>
  <speed>0.01414213562373095</speed>
  <fix>3d</fix>
</trkpt>
<trkpt lat="33.810313" lon="-118.393867">
  <ele>-0.12</ele>
  <time>2026-09-02T22:11:53Z</time>
  <course>0.0</course>
  <speed>0.0</speed>
  <fix>3d</fix>
</trkpt>
<trkpt lat="33.810313" lon="-118.393867">
  <ele>-0.134</ele>
  <time>2026-09-02T22:11:53Z</time>
  <course>188.29</course>
  <speed>0.01414213562373095</speed>
  <fix>3d</fix>
</trkpt>
<trkpt lat="33.810313" lon="-118.393867">
  <ele>-0.12</ele>
  <time>2026-09-02T22:11:53Z</time>
  <course>0.0</course>
  <speed>0.0</speed>
  <fix>3d</fix>
</trkpt>
<trkpt lat="33.810313" lon="-118.393867">
  <ele>-0.132</ele>
  <time>2026-09-02T22:11:53Z</time>
  <course>188.28</course>
  <speed>0.01414213562373095</speed>
  <fix>3d</fix>
</trkpt>
<trkpt lat="33.810313" lon="-118.393867">
  <ele>-0.12</ele>
  <time>2026-09-02T22:11:53Z</time>
  <course>0.0</course>
  <speed>0.0</speed>
  <fix>3d</fix>
</trkpt>
<trkpt lat="33.810313" lon="-118.393867">
  <ele>-0.13</ele>
  <time>2026-09-02T22:11:53Z</time>
  <course>188.27</course>
  <speed>0.01414213562373095</speed>
  <fix>3d</fix>
</trkpt>
<trkpt lat="33.810313" lon="-118.393867">
  <ele>-0.12</ele>
  <time>2026-09-02T22:11:53Z</time>
  <course>0.0</course>
  <speed>0.0</speed>
  <fix>3d</fix>
</trkpt>
<trkpt lat="33.810313" lon="-118.393867">
  <ele>-0.127</ele>
  <time>2026-09-02T22:11:53Z</time>
  <course>188.26</course>
  <speed>0.01414213562373095</speed>
  <fix>3d</fix>
</trkpt>
<trkpt lat="33.810313" lon="-118.393867">
  <ele>-0.12</ele>
  <time>2026-09-02T22:11:53Z</time>
  <course>0.0</course>
  <speed>0.0</speed>
  <fix>3d</fix>
</trkpt>
<trkpt lat="33.810313" lon="-118.393867">
  <ele>-0.125</ele>
  <time>2026-09-02T22:11:53Z</time>
  <course>188.25</course>
  <speed>0.01414213562373095</speed>
  <fix>3d</fix>
</trkpt>
<trkpt lat="33.810313" lon="-118.393867">
  <ele>-0.12</ele>
  <time>2026-09-02T22:11:53Z</time>
  <course>0.0</course>
  <speed>0.0</speed>
  <fix>3d</fix>
</trkpt>
<trkpt lat="33.810313" lon="-118.393867">
  <ele>-0.123</ele>
  <time>2026-09-02T22:11:53Z</time>
  <course>188.25</course>
  <speed>0.01414213562373095</speed>
  <fix>3d</fix>
</trkpt>
<trkpt lat="33.810313" lon="-118.393867">
  <ele>-0.12</ele>
  <time>2026-09-02T22:11:53Z</time>
  <course>0.0</course>
  <speed>0.0</speed>
  <fix>3d</fix>
</trkpt>
<trkpt lat="33.810313" lon="-118.393867">
  <ele>-0.124</ele>
  <time>2026-09-02T22:11:53Z</time>
  <course>188.24</course>
  <speed>0.01414213562373095</speed>
  <fix>3d</fix>
</trkpt>
<trkpt lat="33.810313" lon="-118.393867">
  <ele>-0.12</ele>
  <time>2026-09-02T22:11:53Z</time>
  <course>0.0</course>
  <speed>0.0</speed>
  <fix>3d</fix>
</trkpt>
<trkpt lat="33.810313" lon="-118.393867">
  <ele>-0.125</ele>
  <time>2026-09-02T22:11:53Z</time>
  <course>188.23</course>
  <speed>0.01414213562373095</speed>
  <fix>3d</fix>
</trkpt>
<trkpt lat="33.810313" lon="-118.393867">
  <ele>-0.12</ele>
  <time>2026-09-02T22:11:53Z</time>
  <course>0.0</course>
  <speed>0.0</speed>
  <fix>3d</fix>
</trkpt>
<trkpt lat="33.810313" lon="-118.393867">
  <ele>-0.127</ele>
  <time>2026-09-02T22:11:53Z</time>
  <course>188.22</course>
  <speed>0.01414213562373095</speed>
  <fix>3d</fix>
</trkpt>
<trkpt lat="33.810313" lon="-118.393867">
  <ele>-0.12</ele>
  <time>2026-09-02T22:11:53Z</time>
  <course>0.0</course>
  <speed>0.0</speed>
  <fix>3d</fix>
</trkpt>
<trkpt lat="33.810313" lon="-118.393867">
  <ele>-0.128</ele>
  <time>2026-09-02T22:11:53Z</time>
  <course>188.21</course>
  <speed>0.01414213562373095</speed>
  <fix>3d</fix>
</trkpt>
<trkpt lat="33.810313" lon="-118.393867">
  <ele>-0.12</ele>
  <time>2026-09-02T22:11:53Z</time>
  <course>0.0</course>
  <speed>0.0</speed>
  <fix>3d</fix>
</trkpt>
<trkpt lat="33.810313" lon="-118.393867">
  <ele>-0.129</ele>
  <time>2026-09-02T22:11:53Z</time>
  <course>188.21</course>
  <speed>0.01414213562373095</speed>
  <fix>3d</fix>
</trkpt>
<trkpt lat="33.810313" lon="-118.393867">
  <ele>-0.12</ele>
  <time>2026-09-02T22:11:53Z</time>
  <course>0.0</course>
  <speed>0.0</speed>
  <fix>3d</fix>
</trkpt>
<trkpt lat="33.810313" lon="-118.393867">
  <ele>-0.129</ele>
  <time>2026-09-02T22:11:53Z</time>
  <course>188.2</course>
  <speed>0.01414213562373095</speed>
  <fix>3d</fix>
</trkpt>
<trkpt lat="33.810313" lon="-118.393867">
  <ele>-0.12</ele>
  <time>2026-09-02T22:11:53Z</time>
  <course>0.0</course>
  <speed>0.0</speed>
  <fix>3d</fix>
</trkpt>
<trkpt lat="33.810313" lon="-118.393867">
  <ele>-0.128</ele>
  <time>2026-09-02T22:11:53Z</time>
  <course>188.19</course>
  <speed>0.01414213562373095</speed>
  <fix>3d</fix>
</trkpt>
<trkpt lat="33.810313" lon="-118.393867">
  <ele>-0.12</ele>
  <time>2026-09-02T22:11:53Z</time>
  <course>0.0</course>
  <speed>0.0</speed>
  <fix>3d</fix>
</trkpt>
<trkpt lat="33.810313" lon="-118.393867">
  <ele>-0.128</ele>
  <time>2026-09-02T22:11:53Z</time>
  <course>188.18</course>
  <speed>0.01414213562373095</speed>
  <fix>3d</fix>
</trkpt>
<trkpt lat="33.810313" lon="-118.393867">
  <ele>-0.12</ele>
  <time>2026-09-02T22:11:53Z</time>
  <course>0.0</course>
  <speed>0.0</speed>
  <fix>3d</fix>
</trkpt>
<trkpt lat="33.810313" lon="-118.393867">
  <ele>-0.127</ele>
  <time>2026-09-02T22:11:53Z</time>
  <course>188.17</course>
  <speed>0.01414213562373095</speed>
  <fix>3d</fix>
</trkpt>
<trkpt lat="33.810313" lon="-118.393867">
  <ele>-0.12</ele>
  <time>2026-09-02T22:11:53Z</time>
  <course>0.0</course>
  <speed>0.0</speed>
  <fix>3d</fix>
</trkpt>
<trkpt lat="33.810313" lon="-118.393867">
  <ele>-0.127</ele>
  <time>2026-09-02T22:11:53Z</time>
  <course>188.16</course>
  <speed>0.01414213562373095</speed>
  <fix>3d</fix>
</trkpt>
<trkpt lat="33.810313" lon="-118.393867">
  <ele>-0.12</ele>
  <time>2026-09-02T22:11:53Z</time>
  <course>0.0</course>
  <speed>0.0</speed>
  <fix>3d</fix>
</trkpt>
<trkpt lat="33.810313" lon="-118.393867">
  <ele>-0.128</ele>
  <time>2026-09-02T22:11:53Z</time>
  <course>188.16</course>
  <speed>0.01414213562373095</speed>
  <fix>3d</fix>
</trkpt>
<trkpt lat="33.810313" lon="-118.393867">
  <ele>-0.12</ele>
  <time>2026-09-02T22:11:53Z</time>
  <course>0.0</course>
  <speed>0.0</speed>
  <fix>3d</fix>
</trkpt>
<trkpt lat="33.810313" lon="-118.393867">
  <ele>-0.129</ele>
  <time>2026-09-02T22:11:53Z</time>
  <course>188.15</course>
  <speed>0.01414213562373095</speed>
  <fix>3d</fix>
</trkpt>
<trkpt lat="33.810313" lon="-118.393867">
  <ele>-0.12</ele>
  <time>2026-09-02T22:11:53Z</time>
  <course>0.0</course>
  <speed>0.0</speed>
  <fix>3d</fix>
</trkpt>
<trkpt lat="33.810313" lon="-118.393867">
  <ele>-0.131</ele>
  <time>2026-09-02T22:11:53Z</time>
  <course>188.14</course>
  <speed>0.01414213562373095</speed>
  <fix>3d</fix>
</trkpt>
<trkpt lat="33.810313" lon="-118.393867">
  <ele>-0.12</ele>
  <time>2026-09-02T22:11:53Z</time>
  <course>0.0</course>
  <speed>0.0</speed>
  <fix>3d</fix>
</trkpt>
<trkpt lat="33.810313" lon="-118.393867">
  <ele>-0.133</ele>
  <time>2026-09-02T22:11:53Z</time>
  <course>188.13</course>
  <speed>0.01414213562373095</speed>
  <fix>3d</fix>
</trkpt>
<trkpt lat="33.810313" lon="-118.393867">
  <ele>-0.12</ele>
  <time>2026-09-02T22:11:53Z</time>
  <course>0.0</course>
  <speed>0.0</speed>
  <fix>3d</fix>
</trkpt>
<trkpt lat="33.810313" lon="-118.393867">
  <ele>-0.135</ele>
  <time>2026-09-02T22:11:53Z</time>
  <course>188.12</course>
  <speed>0.01414213562373095</speed>
  <fix>3d</fix>
</trkpt>
<trkpt lat="33.810313" lon="-118.393867">
  <ele>-0.12</ele>
  <time>2026-09-02T22:11:53Z</time>
  <course>0.0</course>
  <speed>0.0</speed>
  <fix>3d</fix>
</trkpt>
<trkpt lat="33.810313" lon="-118.393867">
  <ele>-0.136</ele>
  <time>2026-09-02T22:11:53Z</time>
  <course>188.12</course>
  <speed>0.01414213562373095</speed>
  <fix>3d</fix>
</trkpt>
<trkpt lat="33.810313" lon="-118.393867">
  <ele>-0.12</ele>
  <time>2026-09-02T22:11:53Z</time>
  <course>0.0</course>
  <speed>0.0</speed>
  <fix>3d</fix>
</trkpt>
<trkpt lat="33.810313" lon="-118.393867">
  <ele>-0.136</ele>
  <time>2026-09-02T22:11:53Z</time>
  <course>188.11</course>
  <speed>0.01414213562373095</speed>
  <fix>3d</fix>
</trkpt>
<trkpt lat="33.810313" lon="-118.393867">
  <ele>-0.12</ele>
  <time>2026-09-02T22:11:53Z</time>
  <course>0.0</course>
  <speed>0.0</speed>
  <fix>3d</fix>
</trkpt>
<trkpt lat="33.810313" lon="-118.393867">
  <ele>-0.136</ele>
  <time>2026-09-02T22:11:53Z</time>
  <course>188.1</course>
  <speed>0.01414213562373095</speed>
  <fix>3d</fix>
</trkpt>
<trkpt lat="33.810313" lon="-118.393867">
  <ele>-0.12</ele>
  <time>2026-09-02T22:11:53Z</time>
  <course>0.0</course>
  <speed>0.0</speed>
  <fix>3d</fix>
</trkpt>
<trkpt lat="33.810313" lon="-118.393867">
  <ele>-0.135</ele>
  <time>2026-09-02T22:11:53Z</time>
  <course>188.09</course>
  <speed>0.01414213562373095</speed>
  <fix>3d</fix>
</trkpt>
<trkpt lat="33.810313" lon="-118.393867">
  <ele>-0.12</ele>
  <time>2026-09-02T22:11:53Z</time>
  <course>0.0</course>
  <speed>0.0</speed>
  <fix>3d</fix>
</trkpt>
<trkpt lat="33.810313" lon="-118.393867">
  <ele>-0.134</ele>
  <time>2026-09-02T22:11:53Z</time>
  <course>188.08</course>
  <speed>0.01414213562373095</speed>
  <fix>3d</fix>
</trkpt>
<trkpt lat="33.810313" lon="-118.393867">
  <ele>-0.12</ele>
  <time>2026-09-02T22:11:53Z</time>
  <course>0.0</course>
  <speed>0.0</speed>
  <fix>3d</fix>
</trkpt>
<trkpt lat="33.810313" lon="-118.393867">
  <ele>-0.131</ele>
  <time>2026-09-02T22:11:53Z</time>
  <course>188.07</course>
  <speed>0.022360679774997897</speed>
  <fix>3d</fix>
</trkpt>
<trkpt lat="33.810313" lon="-118.393867">
  <ele>-0.12</ele>
  <time>2026-09-02T22:11:53Z</time>
  <course>0.0</course>
  <speed>0.0</speed>
  <fix>3d</fix>
</trkpt>
<trkpt lat="33.810313" lon="-118.393867">
  <ele>-0.128</ele>
  <time>2026-09-02T22:11:53Z</time>
  <course>188.07</course>
  <speed>0.022360679774997897</speed>
  <fix>3d</fix>
</trkpt>
<trkpt lat="33.810313" lon="-118.393867">
  <ele>-0.12</ele>
  <time>2026-09-02T22:11:53Z</time>
  <course>0.0</course>
  <speed>0.0</speed>
  <fix>3d</fix>
</trkpt>
<trkpt lat="33.810313" lon="-118.393867">
  <ele>-0.127</ele>
  <time>2026-09-02T22:11:53Z</time>
  <course>188.06</course>
  <speed>0.022360679774997897</speed>
  <fix>3d</fix>
</trkpt>
<trkpt lat="33.810313" lon="-118.393867">
  <ele>-0.12</ele>
  <time>2026-09-02T22:11:53Z</time>
  <course>0.0</course>
  <speed>0.0</speed>
  <fix>3d</fix>
</trkpt>
<trkpt lat="33.810313" lon="-118.393867">
  <ele>-0.126</ele>
  <time>2026-09-02T22:11:53Z</time>
  <course>188.05</course>
  <speed>0.022360679774997897</speed>
  <fix>3d</fix>
</trkpt>
<trkpt lat="33.810313" lon="-118.393867">
  <ele>-0.12</ele>
  <time>2026-09-02T22:11:53Z</time>
  <course>0.0</course>
  <speed>0.0</speed>
  <fix>3d</fix>
</trkpt>
<trkpt lat="33.810313" lon="-118.393867">
  <ele>-0.126</ele>
  <time>2026-09-02T22:11:53Z</time>
  <course>188.04</course>
  <speed>0.022360679774997897</speed>
  <fix>3d</fix>
</trkpt>
<trkpt lat="33.810313" lon="-118.393867">
  <ele>-0.12</ele>
  <time>2026-09-02T22:11:53Z</time>
  <course>0.0</course>
  <speed>0.0</speed>
  <fix>3d</fix>
</trkpt>
<trkpt lat="33.810313" lon="-118.393867">
  <ele>-0.127</ele>
  <time>2026-09-02T22:11:53Z</time>
  <course>188.03</course>
  <speed>0.022360679774997897</speed>
  <fix>3d</fix>
</trkpt>
<trkpt lat="33.810313" lon="-118.393867">
  <ele>-0.12</ele>
  <time>2026-09-02T22:11:53Z</time>
  <course>0.0</course>
  <speed>0.0</speed>
  <fix>3d</fix>
</trkpt>
<trkpt lat="33.810313" lon="-118.393867">
  <ele>-0.127</ele>
  <time>2026-09-02T22:11:53Z</time>
  <course>188.03</course>
  <speed>0.022360679774997897</speed>
  <fix>3d</fix>
</trkpt>
<trkpt lat="33.810313" lon="-118.393867">
  <ele>-0.12</ele>
  <time>2026-09-02T22:11:53Z</time>
  <course>0.0</course>
  <speed>0.0</speed>
  <fix>3d</fix>
</trkpt>
<trkpt lat="33.810313" lon="-118.393867">
  <ele>-0.127</ele>
  <time>2026-09-02T22:11:53Z</time>
  <course>188.02</course>
  <speed>0.022360679774997897</speed>
  <fix>3d</fix>
</trkpt>
<trkpt lat="33.810313" lon="-118.393867">
  <ele>-0.12</ele>
  <time>2026-09-02T22:11:53Z</time>
  <course>0.0</course>
  <speed>0.0</speed>
  <fix>3d</fix>
</trkpt>
<trkpt lat="33.810313" lon="-118.393867">
  <ele>-0.128</ele>
  <time>2026-09-02T22:11:53Z</time>
  <course>188.01</course>
  <speed>0.022360679774997897</speed>
  <fix>3d</fix>
</trkpt>
<trkpt lat="33.810313" lon="-118.393867">
  <ele>-0.12</ele>
  <time>2026-09-02T22:11:53Z</time>
  <course>0.0</course>
  <speed>0.0</speed>
  <fix>3d</fix>
</trkpt>
<trkpt lat="33.810313" lon="-118.393867">
  <ele>-0.128</ele>
  <time>2026-09-02T22:11:53Z</time>
  <course>188.0</course>
  <speed>0.022360679774997897</speed>
  <fix>3d</fix>
</trkpt>
<trkpt lat="33.810313" lon="-118.393867">
  <ele>-0.12</ele>
  <time>2026-09-02T22:11:53Z</time>
  <course>0.0</course>
  <speed>0.0</speed>
  <fix>3d</fix>
</trkpt>
<trkpt lat="33.810313" lon="-118.393867">
  <ele>-0.128</ele>
  <time>2026-09-02T22:11:53Z</time>
  <course>187.99</course>
  <speed>0.022360679774997897</speed>
  <fix>3d</fix>
</trkpt>
<trkpt lat="33.810313" lon="-118.393867">
  <ele>-0.12</ele>
  <time>2026-09-02T22:11:53Z</time>
  <course>0.0</course>
  <speed>0.0</speed>
  <fix>3d</fix>
</trkpt>
<trkpt lat="33.810313" lon="-118.393867">
  <ele>-0.126</ele>
  <time>2026-09-02T22:11:53Z</time>
  <course>187.99</course>
  <speed>0.022360679774997897</speed>
  <fix>3d</fix>
</trkpt>
<trkpt lat="33.810313" lon="-118.393867">
  <ele>-0.12</ele>
  <time>2026-09-02T22:11:53Z</time>
  <course>0.0</course>
  <speed>0.0</speed>
  <fix>3d</fix>
</trkpt>
<trkpt lat="33.810313" lon="-118.393867">
  <ele>-0.124</ele>
  <time>2026-09-02T22:11:53Z</time>
  <course>187.98</course>
  <speed>0.022360679774997897</speed>
  <fix>3d</fix>
</trkpt>
<trkpt lat="33.810313" lon="-118.393867">
  <ele>-0.12</ele>
  <time>2026-09-02T22:11:53Z</time>
  <course>0.0</course>
  <speed>0.0</speed>
  <fix>3d</fix>
</trkpt>
<trkpt lat="33.810313" lon="-118.393867">
  <ele>-0.122</ele>
  <time>2026-09-02T22:11:53Z</time>
  <course>187.97</course>
  <speed>0.022360679774997897</speed>
  <fix>3d</fix>
</trkpt>
<trkpt lat="33.810313" lon="-118.393867">
  <ele>-0.12</ele>
  <time>2026-09-02T22:11:53Z</time>
  <course>0.0</course>
  <speed>0.0</speed>
  <fix>3d</fix>
</trkpt>
<trkpt lat="33.810313" lon="-118.393867">
  <ele>-0.12</ele>
  <time>2026-09-02T22:11:53Z</time>
  <course>187.96</course>
  <speed>0.022360679774997897</speed>
  <fix>3d</fix>
</trkpt>
<trkpt lat="33.810313" lon="-118.393867">
  <ele>-0.12</ele>
  <time>2026-09-02T22:11:53Z</time>
  <course>0.0</course>
  <speed>0.0</speed>
  <fix>3d</fix>
</trkpt>
<trkpt lat="33.810313" lon="-118.393867">
  <ele>-0.12</ele>
  <time>2026-09-02T22:11:53Z</time>
  <course>187.95</course>
  <speed>0.022360679774997897</speed>
  <fix>3d</fix>
</trkpt>
<trkpt lat="33.810313" lon="-118.393867">
  <ele>-0.12</ele>
  <time>2026-09-02T22:11:53Z</time>
  <course>0.0</course>
  <speed>0.0</speed>
  <fix>3d</fix>
</trkpt>
<trkpt lat="33.810313" lon="-118.393867">
  <ele>-0.122</ele>
  <time>2026-09-02T22:11:53Z</time>
  <course>187.94</course>
  <speed>0.022360679774997897</speed>
  <fix>3d</fix>
</trkpt>
<trkpt lat="33.810313" lon="-118.393867">
  <ele>-0.12</ele>
  <time>2026-09-02T22:11:53Z</time>
  <course>0.0</course>
  <speed>0.0</speed>
  <fix>3d</fix>
</trkpt>
<trkpt lat="33.810313" lon="-118.393867">
  <ele>-0.125</ele>
  <time>2026-09-02T22:11:53Z</time>
  <course>187.94</course>
  <speed>0.022360679774997897</speed>
  <fix>3d</fix>
</trkpt>
<trkpt lat="33.810313" lon="-118.393867">
  <ele>-0.12</ele>
  <time>2026-09-02T22:11:53Z</time>
  <course>0.0</course>
  <speed>0.0</speed>
  <fix>3d</fix>
</trkpt>
<trkpt lat="33.810313" lon="-118.393867">
  <ele>-0.128</ele>
  <time>2026-09-02T22:11:53Z</time>
  <course>187.93</course>
  <speed>0.022360679774997897</speed>
  <fix>3d</fix>
</trkpt>
<trkpt lat="33.810313" lon="-118.393867">
  <ele>-0.12</ele>
  <time>2026-09-02T22:11:53Z</time>
  <course>0.0</course>
  <speed>0.0</speed>
  <fix>3d</fix>
</trkpt>
<trkpt lat="33.810313" lon="-118.393867">
  <ele>-0.131</ele>
  <time>2026-09-02T22:11:53Z</time>
  <course>187.92</course>
  <speed>0.022360679774997897</speed>
  <fix>3d</fix>
</trkpt>
<trkpt lat="33.810313" lon="-118.393867">
  <ele>-0.12</ele>
  <time>2026-09-02T22:11:53Z</time>
  <course>0.0</course>
  <speed>0.0</speed>
  <fix>3d</fix>
</trkpt>
<trkpt lat="33.810313" lon="-118.393867">
  <ele>-0.132</ele>
  <time>2026-09-02T22:11:53Z</time>
  <course>187.91</course>
  <speed>0.022360679774997897</speed>
  <fix>3d</fix>
</trkpt>
<trkpt lat="33.810313" lon="-118.393867">
  <ele>-0.12</ele>
  <time>2026-09-02T22:11:53Z</time>
  <course>0.0</course>
  <speed>0.0</speed>
  <fix>3d</fix>
</trkpt>
<trkpt lat="33.810313" lon="-118.393867">
  <ele>-0.132</ele>
  <time>2026-09-02T22:11:53Z</time>
  <course>187.91</course>
  <speed>0.022360679774997897</speed>
  <fix>3d</fix>
</trkpt>
<trkpt lat="33.810313" lon="-118.393867">
  <ele>-0.12</ele>
  <time>2026-09-02T22:11:53Z</time>
  <course>0.0</course>
  <speed>0.0</speed>
  <fix>3d</fix>
</trkpt>
<trkpt lat="33.810313" lon="-118.393867">
  <ele>-0.132</ele>
  <time>2026-09-02T22:11:53Z</time>
  <course>187.9</course>
  <speed>0.022360679774997897</speed>
  <fix>3d</fix>
</trkpt>
<trkpt lat="33.810313" lon="-118.393867">
  <ele>-0.12</ele>
  <time>2026-09-02T22:11:53Z</time>
  <course>0.0</course>
  <speed>0.0</speed>
  <fix>3d</fix>
</trkpt>
<trkpt lat="33.810313" lon="-118.393867">
  <ele>-0.13</ele>
  <time>2026-09-02T22:11:53Z</time>
  <course>187.89</course>
  <speed>0.022360679774997897</speed>
  <fix>3d</fix>
</trkpt>
<trkpt lat="33.810313" lon="-118.393867">
  <ele>-0.12</ele>
  <time>2026-09-02T22:11:53Z</time>
  <course>0.0</course>
  <speed>0.0</speed>
  <fix>3d</fix>
</trkpt>
<trkpt lat="33.810313" lon="-118.393867">
  <ele>-0.127</ele>
  <time>2026-09-02T22:11:53Z</time>
  <course>187.88</course>
  <speed>0.022360679774997897</speed>
  <fix>3d</fix>
</trkpt>
<trkpt lat="33.810313" lon="-118.393867">
  <ele>-0.12</ele>
  <time>2026-09-02T22:11:53Z</time>
  <course>0.0</course>
  <speed>0.0</speed>
  <fix>3d</fix>
</trkpt>
<trkpt lat="33.810313" lon="-118.393867">
  <ele>-0.123</ele>
  <time>2026-09-02T22:11:53Z</time>
  <course>187.87</course>
  <speed>0.022360679774997897</speed>
  <fix>3d</fix>
</trkpt>
<trkpt lat="33.810313" lon="-118.393867">
  <ele>-0.12</ele>
  <time>2026-09-02T22:11:53Z</time>
  <course>0.0</course>
  <speed>0.0</speed>
  <fix>3d</fix>
</trkpt>
<trkpt lat="33.810313" lon="-118.393867">
  <ele>-0.121</ele>
  <time>2026-09-02T22:11:53Z</time>
  <course>187.87</course>
  <speed>0.022360679774997897</speed>
  <fix>3d</fix>
</trkpt>
<trkpt lat="33.810313" lon="-118.393867">
  <ele>-0.12</ele>
  <time>2026-09-02T22:11:53Z</time>
  <course>0.0</course>
  <speed>0.0</speed>
  <fix>3d</fix>
</trkpt>
<trkpt lat="33.810313" lon="-118.393867">
  <ele>-0.121</ele>
  <time>2026-09-02T22:11:53Z</time>
  <course>187.86</course>
  <speed>0.022360679774997897</speed>
  <fix>3d</fix>
</trkpt>
<trkpt lat="33.810313" lon="-118.393867">
  <ele>-0.12</ele>
  <time>2026-09-02T22:11:53Z</time>
  <course>0.0</course>
  <speed>0.0</speed>
  <fix>3d</fix>
</trkpt>
<trkpt lat="33.810313" lon="-118.393867">
  <ele>-0.123</ele>
  <time>2026-09-02T22:11:53Z</time>
  <course>187.85</course>
  <speed>0.022360679774997897</speed>
  <fix>3d</fix>
</trkpt>
<trkpt lat="33.810313" lon="-118.393867">
  <ele>-0.12</ele>
  <time>2026-09-02T22:11:53Z</time>
  <course>0.0</course>
  <speed>0.0</speed>
  <fix>3d</fix>
</trkpt>
<trkpt lat="33.810313" lon="-118.393867">
  <ele>-0.124</ele>
  <time>2026-09-02T22:11:53Z</time>
  <course>187.84</course>
  <speed>0.022360679774997897</speed>
  <fix>3d</fix>
</trkpt>
<trkpt lat="33.810313" lon="-118.393867">
  <ele>-0.12</ele>
  <time>2026-09-02T22:11:53Z</time>
  <course>0.0</course>
  <speed>0.0</speed>
  <fix>3d</fix>
</trkpt>
<trkpt lat="33.810313" lon="-118.393867">
  <ele>-0.126</ele>
  <time>2026-09-02T22:11:53Z</time>
  <course>187.83</course>
  <speed>0.022360679774997897</speed>
  <fix>3d</fix>
</trkpt>
<trkpt lat="33.810313" lon="-118.393867">
  <ele>-0.12</ele>
  <time>2026-09-02T22:11:53Z</time>
  <course>0.0</course>
  <speed>0.0</speed>
  <fix>3d</fix>
</trkpt>
<trkpt lat="33.810313" lon="-118.393867">
  <ele>-0.127</ele>
  <time>2026-09-02T22:11:53Z</time>
  <course>187.83</course>
  <speed>0.022360679774997897</speed>
  <fix>3d</fix>
</trkpt>
<trkpt lat="33.810313" lon="-118.393867">
  <ele>-0.12</ele>
  <time>2026-09-02T22:11:53Z</time>
  <course>0.0</course>
  <speed>0.0</speed>
  <fix>3d</fix>
</trkpt>
<trkpt lat="33.810313" lon="-118.393867">
  <ele>-0.127</ele>
  <time>2026-09-02T22:11:53Z</time>
  <course>187.82</course>
  <speed>0.022360679774997897</speed>
  <fix>3d</fix>
</trkpt>
<trkpt lat="33.810313" lon="-118.393867">
  <ele>-0.12</ele>
  <time>2026-09-02T22:11:53Z</time>
  <course>0.0</course>
  <speed>0.0</speed>
  <fix>3d</fix>
</trkpt>
<trkpt lat="33.810313" lon="-118.393867">
  <ele>-0.127</ele>
  <time>2026-09-02T22:11:53Z</time>
  <course>187.81</course>
  <speed>0.022360679774997897</speed>
  <fix>3d</fix>
</trkpt>
<trkpt lat="33.810313" lon="-118.393867">
  <ele>-0.12</ele>
  <time>2026-09-02T22:11:53Z</time>
  <course>0.0</course>
  <speed>0.0</speed>
  <fix>3d</fix>
</trkpt>
<trkpt lat="33.810313" lon="-118.393867">
  <ele>-0.126</ele>
  <time>2026-09-02T22:11:53Z</time>
  <course>187.8</course>
  <speed>0.022360679774997897</speed>
  <fix>3d</fix>
</trkpt>
<trkpt lat="33.810313" lon="-118.393867">
  <ele>-0.12</ele>
  <time>2026-09-02T22:11:53Z</time>
  <course>0.0</course>
  <speed>0.0</speed>
  <fix>3d</fix>
</trkpt>
<trkpt lat="33.810313" lon="-118.393867">
  <ele>-0.124</ele>
  <time>2026-09-02T22:11:53Z</time>
  <course>187.8</course>
  <speed>0.022360679774997897</speed>
  <fix>3d</fix>
</trkpt>
<trkpt lat="33.810313" lon="-118.393867">
  <ele>-0.12</ele>
  <time>2026-09-02T22:11:53Z</time>
  <course>0.0</course>
  <speed>0.0</speed>
  <fix>3d</fix>
</trkpt>
<trkpt lat="33.810313" lon="-118.393867">
  <ele>-0.121</ele>
  <time>2026-09-02T22:11:53Z</time>
  <course>187.79</course>
  <speed>0.022360679774997897</speed>
  <fix>3d</fix>
</trkpt>
<trkpt lat="33.810313" lon="-118.393867">
  <ele>-0.12</ele>
  <time>2026-09-02T22:11:53Z</time>
  <course>0.0</course>
  <speed>0.0</speed>
  <fix>3d</fix>
</trkpt>
<trkpt lat="33.810313" lon="-118.393867">
  <ele>-0.119</ele>
  <time>2026-09-02T22:11:53Z</time>
  <course>187.78</course>
  <speed>0.022360679774997897</speed>
  <fix>3d</fix>
</trkpt>
<trkpt lat="33.810313" lon="-118.393867">
  <ele>-0.12</ele>
  <time>2026-09-02T22:11:53Z</time>
  <course>0.0</course>
  <speed>0.0</speed>
  <fix>3d</fix>
</trkpt>
<trkpt lat="33.810313" lon="-118.393867">
  <ele>-0.118</ele>
  <time>2026-09-02T22:11:53Z</time>
  <course>187.77</course>
  <speed>0.022360679774997897</speed>
  <fix>3d</fix>
</trkpt>
<trkpt lat="33.810313" lon="-118.393867">
  <ele>-0.12</ele>
  <time>2026-09-02T22:11:53Z</time>
  <course>0.0</course>
  <speed>0.0</speed>
  <fix>3d</fix>
</trkpt>
<trkpt lat="33.810313" lon="-118.393867">
  <ele>-0.118</ele>
  <time>2026-09-02T22:11:53Z</time>
  <course>187.77</course>
  <speed>0.022360679774997897</speed>
  <fix>3d</fix>
</trkpt>
<trkpt lat="33.810313" lon="-118.393867">
  <ele>-0.12</ele>
  <time>2026-09-02T22:11:53Z</time>
  <course>0.0</course>
  <speed>0.0</speed>
  <fix>3d</fix>
</trkpt>
<trkpt lat="33.810313" lon="-118.393867">
  <ele>-0.119</ele>
  <time>2026-09-02T22:11:53Z</time>
  <course>187.76</course>
  <speed>0.022360679774997897</speed>
  <fix>3d</fix>
</trkpt>
<trkpt lat="33.810313" lon="-118.393867">
  <ele>-0.12</ele>
  <time>2026-09-02T22:11:53Z</time>
  <course>0.0</course>
  <speed>0.0</speed>
  <fix>3d</fix>
</trkpt>
<trkpt lat="33.810313" lon="-118.393867">
  <ele>-0.12</ele>
  <time>2026-09-02T22:11:53Z</time>
  <course>187.75</course>
  <speed>0.022360679774997897</speed>
  <fix>3d</fix>
</trkpt>
<trkpt lat="33.810313" lon="-118.393867">
  <ele>-0.12</ele>
  <time>2026-09-02T22:11:53Z</time>
  <course>0.0</course>
  <speed>0.0</speed>
  <fix>3d</fix>
</trkpt>
<trkpt lat="33.810313" lon="-118.393867">
  <ele>-0.12</ele>
  <time>2026-09-02T22:11:53Z</time>
  <course>187.74</course>
  <speed>0.0282842712474619</speed>
  <fix>3d</fix>
</trkpt>
<trkpt lat="33.810313" lon="-118.393867">
  <ele>-0.12</ele>
  <time>2026-09-02T22:11:53Z</time>
  <course>0.0</course>
  <speed>0.0</speed>
  <fix>3d</fix>
</trkpt>
<trkpt lat="33.810313" lon="-118.393867">
  <ele>-0.12</ele>
  <time>2026-09-02T22:11:53Z</time>
  <course>187.74</course>
  <speed>0.0282842712474619</speed>
  <fix>3d</fix>
</trkpt>
<trkpt lat="33.810313" lon="-118.393867">
  <ele>-0.12</ele>
  <time>2026-09-02T22:11:53Z</time>
  <course>0.0</course>
  <speed>0.0</speed>
  <fix>3d</fix>
</trkpt>
<trkpt lat="33.810313" lon="-118.393867">
  <ele>-0.119</ele>
  <time>2026-09-02T22:11:53Z</time>
  <course>187.73</course>
  <speed>0.0282842712474619</speed>
  <fix>3d</fix>
</trkpt>
<trkpt lat="33.810313" lon="-118.393867">
  <ele>-0.12</ele>
  <time>2026-09-02T22:11:53Z</time>
  <course>0.0</course>
  <speed>0.0</speed>
  <fix>3d</fix>
</trkpt>
<trkpt lat="33.810313" lon="-118.393867">
  <ele>-0.118</ele>
  <time>2026-09-02T22:11:53Z</time>
  <course>187.72</course>
  <speed>0.0282842712474619</speed>
  <fix>3d</fix>
</trkpt>
<trkpt lat="33.810313" lon="-118.393867">
  <ele>-0.12</ele>
  <time>2026-09-02T22:11:53Z</time>
  <course>0.0</course>
  <speed>0.0</speed>
  <fix>3d</fix>
</trkpt>
<trkpt lat="33.810313" lon="-118.393867">
  <ele>-0.116</ele>
  <time>2026-09-02T22:11:53Z</time>
  <course>187.71</course>
  <speed>0.0282842712474619</speed>
  <fix>3d</fix>
</trkpt>
<trkpt lat="33.810313" lon="-118.393867">
  <ele>-0.12</ele>
  <time>2026-09-02T22:11:53Z</time>
  <course>0.0</course>
  <speed>0.0</speed>
  <fix>3d</fix>
</trkpt>
<trkpt lat="33.810313" lon="-118.393867">
  <ele>-0.114</ele>
  <time>2026-09-02T22:11:53Z</time>
  <course>187.71</course>
  <speed>0.0282842712474619</speed>
  <fix>3d</fix>
</trkpt>
<trkpt lat="33.810313" lon="-118.393867">
  <ele>-0.12</ele>
  <time>2026-09-02T22:11:53Z</time>
  <course>0.0</course>
  <speed>0.0</speed>
  <fix>3d</fix>
</trkpt>
<trkpt lat="33.810313" lon="-118.393867">
  <ele>-0.112</ele>
  <time>2026-09-02T22:11:53Z</time>
  <course>187.7</course>
  <speed>0.0282842712474619</speed>
  <fix>3d</fix>
</trkpt>
<trkpt lat="33.810313" lon="-118.393867">
  <ele>-0.12</ele>
  <time>2026-09-02T22:11:53Z</time>
  <course>0.0</course>
  <speed>0.0</speed>
  <fix>3d</fix>
</trkpt>
<trkpt lat="33.810313" lon="-118.393867">
  <ele>-0.113</ele>
  <time>2026-09-02T22:11:53Z</time>
  <course>187.69</course>
  <speed>0.0282842712474619</speed>
  <fix>3d</fix>
</trkpt>
<trkpt lat="33.810313" lon="-118.393867">
  <ele>-0.12</ele>
  <time>2026-09-02T22:11:53Z</time>
  <course>0.0</course>
  <speed>0.0</speed>
  <fix>3d</fix>
</trkpt>
<trkpt lat="33.810313" lon="-118.393867">
  <ele>-0.115</ele>
  <time>2026-09-02T22:11:53Z</time>
  <course>187.69</course>
  <speed>0.0282842712474619</speed>
  <fix>3d</fix>
</trkpt>
<trkpt lat="33.810313" lon="-118.393867">
  <ele>-0.12</ele>
  <time>2026-09-02T22:11:53Z</time>
  <course>0.0</course>
  <speed>0.0</speed>
  <fix>3d</fix>
</trkpt>
<trkpt lat="33.810313" lon="-118.393867">
  <ele>-0.119</ele>
  <time>2026-09-02T22:11:53Z</time>
  <course>187.68</course>
  <speed>0.0282842712474619</speed>
  <fix>3d</fix>
</trkpt>
<trkpt lat="33.810313" lon="-118.393867">
  <ele>-0.12</ele>
  <time>2026-09-02T22:11:53Z</time>
  <course>0.0</course>
  <speed>0.0</speed>
  <fix>3d</fix>
</trkpt>
<trkpt lat="33.810313" lon="-118.393867">
  <ele>-0.123</ele>
  <time>2026-09-02T22:11:53Z</time>
  <course>187.67</course>
  <speed>0.0282842712474619</speed>
  <fix>3d</fix>
</trkpt>
<trkpt lat="33.810313" lon="-118.393867">
  <ele>-0.12</ele>
  <time>2026-09-02T22:11:53Z</time>
  <course>0.0</course>
  <speed>0.0</speed>
  <fix>3d</fix>
</trkpt>
<trkpt lat="33.810313" lon="-118.393867">
  <ele>-0.128</ele>
  <time>2026-09-02T22:11:53Z</time>
  <course>187.66</course>
  <speed>0.0282842712474619</speed>
  <fix>3d</fix>
</trkpt>
<trkpt lat="33.810313" lon="-118.393867">
  <ele>-0.12</ele>
  <time>2026-09-02T22:11:53Z</time>
  <course>0.0</course>
  <speed>0.0</speed>
  <fix>3d</fix>
</trkpt>
<trkpt lat="33.810313" lon="-118.393867">
  <ele>-0.132</ele>
  <time>2026-09-02T22:11:53Z</time>
  <course>187.66</course>
  <speed>0.0282842712474619</speed>
  <fix>3d</fix>
</trkpt>
<trkpt lat="33.810313" lon="-118.393867">
  <ele>-0.12</ele>
  <time>2026-09-02T22:11:53Z</time>
  <course>0.0</course>
  <speed>0.0</speed>
  <fix>3d</fix>
</trkpt>
<trkpt lat="33.810313" lon="-118.393867">
  <ele>-0.134</ele>
  <time>2026-09-02T22:11:53Z</time>
  <course>187.65</course>
  <speed>0.0282842712474619</speed>
  <fix>3d</fix>
</trkpt>
<trkpt lat="33.810313" lon="-118.393867">
  <ele>-0.12</ele>
  <time>2026-09-02T22:11:53Z</time>
  <course>0.0</course>
  <speed>0.0</speed>
  <fix>3d</fix>
</trkpt>
<trkpt lat="33.810313" lon="-118.393867">
  <ele>-0.135</ele>
  <time>2026-09-02T22:11:53Z</time>
  <course>187.64</course>
  <speed>0.0282842712474619</speed>
  <fix>3d</fix>
</trkpt>
<trkpt lat="33.810313" lon="-118.393867">
  <ele>-0.12</ele>
  <time>2026-09-02T22:11:53Z</time>
  <course>0.0</course>
  <speed>0.0</speed>
  <fix>3d</fix>
</trkpt>
<trkpt lat="33.810313" lon="-118.393867">
  <ele>-0.135</ele>
  <time>2026-09-02T22:11:53Z</time>
  <course>187.64</course>
  <speed>0.0282842712474619</speed>
  <fix>3d</fix>
</trkpt>
<trkpt lat="33.810313" lon="-118.393867">
  <ele>-0.12</ele>
  <time>2026-09-02T22:11:53Z</time>
  <course>0.0</course>
  <speed>0.0</speed>
  <fix>3d</fix>
</trkpt>
<trkpt lat="33.810313" lon="-118.393867">
  <ele>-0.133</ele>
  <time>2026-09-02T22:11:53Z</time>
  <course>187.63</course>
  <speed>0.0282842712474619</speed>
  <fix>3d</fix>
</trkpt>
<trkpt lat="33.810313" lon="-118.393867">
  <ele>-0.12</ele>
  <time>2026-09-02T22:11:53Z</time>
  <course>0.0</course>
  <speed>0.0</speed>
  <fix>3d</fix>
</trkpt>
<trkpt lat="33.810313" lon="-118.393867">
  <ele>-0.132</ele>
  <time>2026-09-02T22:11:53Z</time>
  <course>187.63</course>
  <speed>0.0282842712474619</speed>
  <fix>3d</fix>
</trkpt>
<trkpt lat="33.810313" lon="-118.393867">
  <ele>-0.12</ele>
  <time>2026-09-02T22:11:53Z</time>
  <course>0.0</course>
  <speed>0.0</speed>
  <fix>3d</fix>
</trkpt>
<trkpt lat="33.810313" lon="-118.393867">
  <ele>-0.132</ele>
  <time>2026-09-02T22:11:53Z</time>
  <course>187.62</course>
  <speed>0.03605551275463989</speed>
  <fix>3d</fix>
</trkpt>
<trkpt lat="33.810313" lon="-118.393867">
  <ele>-0.12</ele>
  <time>2026-09-02T22:11:53Z</time>
  <course>0.0</course>
  <speed>0.0</speed>
  <fix>3d</fix>
</trkpt>
<trkpt lat="33.810313" lon="-118.393867">
  <ele>-0.132</ele>
  <time>2026-09-02T22:11:53Z</time>
  <course>187.61</course>
  <speed>0.03605551275463989</speed>
  <fix>3d</fix>
</trkpt>
<trkpt lat="33.810313" lon="-118.393867">
  <ele>-0.12</ele>
  <time>2026-09-02T22:11:53Z</time>
  <course>0.0</course>
  <speed>0.0</speed>
  <fix>3d</fix>
</trkpt>
<trkpt lat="33.810313" lon="-118.393867">
  <ele>-0.133</ele>
  <time>2026-09-02T22:11:53Z</time>
  <course>187.61</course>
  <speed>0.03605551275463989</speed>
  <fix>3d</fix>
</trkpt>
<trkpt lat="33.810313" lon="-118.393867">
  <ele>-0.12</ele>
  <time>2026-09-02T22:11:53Z</time>
  <course>0.0</course>
  <speed>0.0</speed>
  <fix>3d</fix>
</trkpt>
<trkpt lat="33.810313" lon="-118.393867">
  <ele>-0.134</ele>
  <time>2026-09-02T22:11:53Z</time>
  <course>187.6</course>
  <speed>0.03605551275463989</speed>
  <fix>3d</fix>
</trkpt>
<trkpt lat="33.810313" lon="-118.393867">
  <ele>-0.12</ele>
  <time>2026-09-02T22:11:53Z</time>
  <course>0.0</course>
  <speed>0.0</speed>
  <fix>3d</fix>
</trkpt>
<trkpt lat="33.810313" lon="-118.393867">
  <ele>-0.133</ele>
  <time>2026-09-02T22:11:53Z</time>
  <course>187.59</course>
  <speed>0.03605551275463989</speed>
  <fix>3d</fix>
</trkpt>
<trkpt lat="33.810313" lon="-118.393867">
  <ele>-0.12</ele>
  <time>2026-09-02T22:11:53Z</time>
  <course>0.0</course>
  <speed>0.0</speed>
  <fix>3d</fix>
</trkpt>
<trkpt lat="33.810313" lon="-118.393867">
  <ele>-0.132</ele>
  <time>2026-09-02T22:11:53Z</time>
  <course>187.59</course>
  <speed>0.03605551275463989</speed>
  <fix>3d</fix>
</trkpt>
<trkpt lat="33.810313" lon="-118.393867">
  <ele>-0.12</ele>
  <time>2026-09-02T22:11:53Z</time>
  <course>0.0</course>
  <speed>0.0</speed>
  <fix>3d</fix>
</trkpt>
<trkpt lat="33.810313" lon="-118.393867">
  <ele>-0.13</ele>
  <time>2026-09-02T22:11:53Z</time>
  <course>187.58</course>
  <speed>0.03605551275463989</speed>
  <fix>3d</fix>
</trkpt>
<trkpt lat="33.810313" lon="-118.393867">
  <ele>-0.12</ele>
  <time>2026-09-02T22:11:53Z</time>
  <course>0.0</course>
  <speed>0.0</speed>
  <fix>3d</fix>
</trkpt>
<trkpt lat="33.810313" lon="-118.393867">
  <ele>-0.127</ele>
  <time>2026-09-02T22:11:53Z</time>
  <course>187.57</course>
  <speed>0.03605551275463989</speed>
  <fix>3d</fix>
</trkpt>
<trkpt lat="33.810313" lon="-118.393867">
  <ele>-0.12</ele>
  <time>2026-09-02T22:11:53Z</time>
  <course>0.0</course>
  <speed>0.0</speed>
  <fix>3d</fix>
</trkpt>
<trkpt lat="33.810313" lon="-118.393867">
  <ele>-0.125</ele>
  <time>2026-09-02T22:11:53Z</time>
  <course>187.57</course>
  <speed>0.03605551275463989</speed>
  <fix>3d</fix>
</trkpt>
<trkpt lat="33.810313" lon="-118.393867">
  <ele>-0.12</ele>
  <time>2026-09-02T22:11:53Z</time>
  <course>0.0</course>
  <speed>0.0</speed>
  <fix>3d</fix>
</trkpt>
<trkpt lat="33.810313" lon="-118.393867">
  <ele>-0.122</ele>
  <time>2026-09-02T22:11:53Z</time>
  <course>187.56</course>
  <speed>0.03605551275463989</speed>
  <fix>3d</fix>
</trkpt>
<trkpt lat="33.810313" lon="-118.393867">
  <ele>-0.12</ele>
  <time>2026-09-02T22:11:53Z</time>
  <course>0.0</course>
  <speed>0.0</speed>
  <fix>3d</fix>
</trkpt>
<trkpt lat="33.810313" lon="-118.393867">
  <ele>-0.119</ele>
  <time>2026-09-02T22:11:53Z</time>
  <course>187.55</course>
  <speed>0.03605551275463989</speed>
  <fix>3d</fix>
</trkpt>
<trkpt lat="33.810313" lon="-118.393867">
  <ele>-0.12</ele>
  <time>2026-09-02T22:11:53Z</time>
  <course>0.0</course>
  <speed>0.0</speed>
  <fix>3d</fix>
</trkpt>
<trkpt lat="33.810313" lon="-118.393867">
  <ele>-0.117</ele>
  <time>2026-09-02T22:11:53Z</time>
  <course>187.55</course>
  <speed>0.03605551275463989</speed>
  <fix>3d</fix>
</trkpt>
<trkpt lat="33.810313" lon="-118.393867">
  <ele>-0.12</ele>
  <time>2026-09-02T22:11:53Z</time>
  <course>0.0</course>
  <speed>0.0</speed>
  <fix>3d</fix>
</trkpt>
<trkpt lat="33.810313" lon="-118.393867">
  <ele>-0.117</ele>
  <time>2026-09-02T22:11:53Z</time>
  <course>187.54</course>
  <speed>0.03605551275463989</speed>
  <fix>3d</fix>
</trkpt>
<trkpt lat="33.810313" lon="-118.393867">
  <ele>-0.12</ele>
  <time>2026-09-02T22:11:53Z</time>
  <course>0.0</course>
  <speed>0.0</speed>
  <fix>3d</fix>
</trkpt>
<trkpt lat="33.810313" lon="-118.393867">
  <ele>-0.118</ele>
  <time>2026-09-02T22:11:53Z</time>
  <course>187.53</course>
  <speed>0.03605551275463989</speed>
  <fix>3d</fix>
</trkpt>
<trkpt lat="33.810313" lon="-118.393867">
  <ele>-0.12</ele>
  <time>2026-09-02T22:11:53Z</time>
  <course>0.0</course>
  <speed>0.0</speed>
  <fix>3d</fix>
</trkpt>
<trkpt lat="33.810313" lon="-118.393867">
  <ele>-0.119</ele>
  <time>2026-09-02T22:11:53Z</time>
  <course>187.53</course>
  <speed>0.03605551275463989</speed>
  <fix>3d</fix>
</trkpt>
<trkpt lat="33.810313" lon="-118.393867">
  <ele>-0.12</ele>
  <time>2026-09-02T22:11:53Z</time>
  <course>0.0</course>
  <speed>0.0</speed>
  <fix>3d</fix>
</trkpt>
<trkpt lat="33.810313" lon="-118.393867">
  <ele>-0.12</ele>
  <time>2026-09-02T22:11:53Z</time>
  <course>187.52</course>
  <speed>0.03605551275463989</speed>
  <fix>3d</fix>
</trkpt>
<trkpt lat="33.810313" lon="-118.393867">
  <ele>-0.12</ele>
  <time>2026-09-02T22:11:53Z</time>
  <course>0.0</course>
  <speed>0.0</speed>
  <fix>3d</fix>
</trkpt>
<trkpt lat="33.810313" lon="-118.393867">
  <ele>-0.121</ele>
  <time>2026-09-02T22:11:54Z</time>
  <course>187.51</course>
  <speed>0.03605551275463989</speed>
  <fix>3d</fix>
</trkpt>
<trkpt lat="33.810313" lon="-118.393867">
  <ele>-0.12</ele>
  <time>2026-09-02T22:11:54Z</time>
  <course>0.0</course>
  <speed>0.0</speed>
  <fix>3d</fix>
</trkpt>
<trkpt lat="33.810313" lon="-118.393867">
  <ele>-0.121</ele>
  <time>2026-09-02T22:11:54Z</time>
  <course>187.51</course>
  <speed>0.03605551275463989</speed>
  <fix>3d</fix>
</trkpt>
<trkpt lat="33.810313" lon="-118.393867">
  <ele>-0.12</ele>
  <time>2026-09-02T22:11:54Z</time>
  <course>0.0</course>
  <speed>0.0</speed>
  <fix>3d</fix>
</trkpt>
<trkpt lat="33.810313" lon="-118.393867">
  <ele>-0.121</ele>
  <time>2026-09-02T22:11:54Z</time>
  <course>187.5</course>
  <speed>0.03605551275463989</speed>
  <fix>3d</fix>
</trkpt>
<trkpt lat="33.810313" lon="-118.393867">
  <ele>-0.12</ele>
  <time>2026-09-02T22:11:54Z</time>
  <course>0.0</course>
  <speed>0.0</speed>
  <fix>3d</fix>
</trkpt>
<trkpt lat="33.810313" lon="-118.393867">
  <ele>-0.121</ele>
  <time>2026-09-02T22:11:54Z</time>
  <course>187.49</course>
  <speed>0.03605551275463989</speed>
  <fix>3d</fix>
</trkpt>
<trkpt lat="33.810313" lon="-118.393867">
  <ele>-0.12</ele>
  <time>2026-09-02T22:11:54Z</time>
  <course>0.0</course>
  <speed>0.0</speed>
  <fix>3d</fix>
</trkpt>
<trkpt lat="33.810313" lon="-118.393867">
  <ele>-0.121</ele>
  <time>2026-09-02T22:11:54Z</time>
  <course>187.49</course>
  <speed>0.03605551275463989</speed>
  <fix>3d</fix>
</trkpt>
<trkpt lat="33.810313" lon="-118.393867">
  <ele>-0.12</ele>
  <time>2026-09-02T22:11:54Z</time>
  <course>0.0</course>
  <speed>0.0</speed>
  <fix>3d</fix>
</trkpt>
<trkpt lat="33.810313" lon="-118.393867">
  <ele>-0.121</ele>
  <time>2026-09-02T22:11:54Z</time>
  <course>187.48</course>
  <speed>0.03605551275463989</speed>
  <fix>3d</fix>
</trkpt>
<trkpt lat="33.810313" lon="-118.393867">
  <ele>-0.12</ele>
  <time>2026-09-02T22:11:54Z</time>
  <course>0.0</course>
  <speed>0.0</speed>
  <fix>3d</fix>
</trkpt>
<trkpt lat="33.810313" lon="-118.393867">
  <ele>-0.122</ele>
  <time>2026-09-02T22:11:54Z</time>
  <course>187.47</course>
  <speed>0.03605551275463989</speed>
  <fix>3d</fix>
</trkpt>
<trkpt lat="33.810313" lon="-118.393867">
  <ele>-0.12</ele>
  <time>2026-09-02T22:11:54Z</time>
  <course>0.0</course>
  <speed>0.0</speed>
  <fix>3d</fix>
</trkpt>
<trkpt lat="33.810313" lon="-118.393867">
  <ele>-0.124</ele>
  <time>2026-09-02T22:11:54Z</time>
  <course>187.47</course>
  <speed>0.03605551275463989</speed>
  <fix>3d</fix>
</trkpt>
<trkpt lat="33.810313" lon="-118.393867">
  <ele>-0.12</ele>
  <time>2026-09-02T22:11:54Z</time>
  <course>0.0</course>
  <speed>0.0</speed>
  <fix>3d</fix>
</trkpt>
<trkpt lat="33.810313" lon="-118.393867">
  <ele>-0.127</ele>
  <time>2026-09-02T22:11:54Z</time>
  <course>187.46</course>
  <speed>0.03605551275463989</speed>
  <fix>3d</fix>
</trkpt>
<trkpt lat="33.810313" lon="-118.393867">
  <ele>-0.12</ele>
  <time>2026-09-02T22:11:54Z</time>
  <course>0.0</course>
  <speed>0.0</speed>
  <fix>3d</fix>
</trkpt>
<trkpt lat="33.810313" lon="-118.393867">
  <ele>-0.129</ele>
  <time>2026-09-02T22:11:54Z</time>
  <course>187.46</course>
  <speed>0.03605551275463989</speed>
  <fix>3d</fix>
</trkpt>
<trkpt lat="33.810313" lon="-118.393867">
  <ele>-0.12</ele>
  <time>2026-09-02T22:11:54Z</time>
  <course>0.0</course>
  <speed>0.0</speed>
  <fix>3d</fix>
</trkpt>
<trkpt lat="33.810313" lon="-118.393867">
  <ele>-0.131</ele>
  <time>2026-09-02T22:11:54Z</time>
  <course>187.45</course>
  <speed>0.03605551275463989</speed>
  <fix>3d</fix>
</trkpt>
<trkpt lat="33.810313" lon="-118.393867">
  <ele>-0.12</ele>
  <time>2026-09-02T22:11:54Z</time>
  <course>0.0</course>
  <speed>0.0</speed>
  <fix>3d</fix>
</trkpt>
<trkpt lat="33.810313" lon="-118.393867">
  <ele>-0.132</ele>
  <time>2026-09-02T22:11:54Z</time>
  <course>187.44</course>
  <speed>0.03605551275463989</speed>
  <fix>3d</fix>
</trkpt>
<trkpt lat="33.810313" lon="-118.393867">
  <ele>-0.12</ele>
  <time>2026-09-02T22:11:54Z</time>
  <course>0.0</course>
  <speed>0.0</speed>
  <fix>3d</fix>
</trkpt>
<trkpt lat="33.810313" lon="-118.393867">
  <ele>-0.132</ele>
  <time>2026-09-02T22:11:54Z</time>
  <course>187.44</course>
  <speed>0.03605551275463989</speed>
  <fix>3d</fix>
</trkpt>
<trkpt lat="33.810313" lon="-118.393867">
  <ele>-0.12</ele>
  <time>2026-09-02T22:11:54Z</time>
  <course>0.0</course>
  <speed>0.0</speed>
  <fix>3d</fix>
</trkpt>
<trkpt lat="33.810313" lon="-118.393867">
  <ele>-0.132</ele>
  <time>2026-09-02T22:11:54Z</time>
  <course>187.43</course>
  <speed>0.03605551275463989</speed>
  <fix>3d</fix>
</trkpt>
<trkpt lat="33.810313" lon="-118.393867">
  <ele>-0.12</ele>
  <time>2026-09-02T22:11:54Z</time>
  <course>0.0</course>
  <speed>0.0</speed>
  <fix>3d</fix>
</trkpt>
<trkpt lat="33.810313" lon="-118.393867">
  <ele>-0.132</ele>
  <time>2026-09-02T22:11:54Z</time>
  <course>187.42</course>
  <speed>0.03605551275463989</speed>
  <fix>3d</fix>
</trkpt>
<trkpt lat="33.810313" lon="-118.393867">
  <ele>-0.12</ele>
  <time>2026-09-02T22:11:54Z</time>
  <course>0.0</course>
  <speed>0.0</speed>
  <fix>3d</fix>
</trkpt>
<trkpt lat="33.810313" lon="-118.393867">
  <ele>-0.131</ele>
  <time>2026-09-02T22:11:54Z</time>
  <course>187.42</course>
  <speed>0.03605551275463989</speed>
  <fix>3d</fix>
</trkpt>
<trkpt lat="33.810313" lon="-118.393867">
  <ele>-0.12</ele>
  <time>2026-09-02T22:11:54Z</time>
  <course>0.0</course>
  <speed>0.0</speed>
  <fix>3d</fix>
</trkpt>
<trkpt lat="33.810313" lon="-118.393867">
  <ele>-0.131</ele>
  <time>2026-09-02T22:11:54Z</time>
  <course>187.41</course>
  <speed>0.03605551275463989</speed>
  <fix>3d</fix>
</trkpt>
<trkpt lat="33.810313" lon="-118.393867">
  <ele>-0.12</ele>
  <time>2026-09-02T22:11:54Z</time>
  <course>0.0</course>
  <speed>0.0</speed>
  <fix>3d</fix>
</trkpt>
<trkpt lat="33.810313" lon="-118.393867">
  <ele>-0.132</ele>
  <time>2026-09-02T22:11:54Z</time>
  <course>187.41</course>
  <speed>0.03605551275463989</speed>
  <fix>3d</fix>
</trkpt>
<trkpt lat="33.810313" lon="-118.393867">
  <ele>-0.12</ele>
  <time>2026-09-02T22:11:54Z</time>
  <course>0.0</course>
  <speed>0.0</speed>
  <fix>3d</fix>
</trkpt>
<trkpt lat="33.810313" lon="-118.393867">
  <ele>-0.134</ele>
  <time>2026-09-02T22:11:54Z</time>
  <course>187.4</course>
  <speed>0.03605551275463989</speed>
  <fix>3d</fix>
</trkpt>
<trkpt lat="33.810313" lon="-118.393867">
  <ele>-0.12</ele>
  <time>2026-09-02T22:11:54Z</time>
  <course>0.0</course>
  <speed>0.0</speed>
  <fix>3d</fix>
</trkpt>
<trkpt lat="33.810313" lon="-118.393867">
  <ele>-0.137</ele>
  <time>2026-09-02T22:11:54Z</time>
  <course>187.39</course>
  <speed>0.03605551275463989</speed>
  <fix>3d</fix>
</trkpt>
<trkpt lat="33.810313" lon="-118.393867">
  <ele>-0.12</ele>
  <time>2026-09-02T22:11:54Z</time>
  <course>0.0</course>
  <speed>0.0</speed>
  <fix>3d</fix>
</trkpt>
<trkpt lat="33.810313" lon="-118.393867">
  <ele>-0.139</ele>
  <time>2026-09-02T22:11:54Z</time>
  <course>187.39</course>
  <speed>0.03605551275463989</speed>
  <fix>3d</fix>
</trkpt>
<trkpt lat="33.810313" lon="-118.393867">
  <ele>-0.12</ele>
  <time>2026-09-02T22:11:54Z</time>
  <course>0.0</course>
  <speed>0.0</speed>
  <fix>3d</fix>
</trkpt>
<trkpt lat="33.810313" lon="-118.393867">
  <ele>-0.141</ele>
  <time>2026-09-02T22:11:54Z</time>
  <course>187.38</course>
  <speed>0.03605551275463989</speed>
  <fix>3d</fix>
</trkpt>
<trkpt lat="33.810313" lon="-118.393867">
  <ele>-0.12</ele>
  <time>2026-09-02T22:11:54Z</time>
  <course>0.0</course>
  <speed>0.0</speed>
  <fix>3d</fix>
</trkpt>
<trkpt lat="33.810313" lon="-118.393867">
  <ele>-0.141</ele>
  <time>2026-09-02T22:11:54Z</time>
  <course>187.38</course>
  <speed>0.03605551275463989</speed>
  <fix>3d</fix>
</trkpt>
<trkpt lat="33.810313" lon="-118.393867">
  <ele>-0.12</ele>
  <time>2026-09-02T22:11:54Z</time>
  <course>0.0</course>
  <speed>0.0</speed>
  <fix>3d</fix>
</trkpt>
<trkpt lat="33.810313" lon="-118.393867">
  <ele>-0.139</ele>
  <time>2026-09-02T22:11:54Z</time>
  <course>187.37</course>
  <speed>0.03605551275463989</speed>
  <fix>3d</fix>
</trkpt>
<trkpt lat="33.810313" lon="-118.393867">
  <ele>-0.12</ele>
  <time>2026-09-02T22:11:54Z</time>
  <course>0.0</course>
  <speed>0.0</speed>
  <fix>3d</fix>
</trkpt>
<trkpt lat="33.810313" lon="-118.393867">
  <ele>-0.136</ele>
  <time>2026-09-02T22:11:54Z</time>
  <course>187.36</course>
  <speed>0.03605551275463989</speed>
  <fix>3d</fix>
</trkpt>
<trkpt lat="33.810313" lon="-118.393867">
  <ele>-0.12</ele>
  <time>2026-09-02T22:11:54Z</time>
  <course>0.0</course>
  <speed>0.0</speed>
  <fix>3d</fix>
</trkpt>
<trkpt lat="33.810313" lon="-118.393867">
  <ele>-0.133</ele>
  <time>2026-09-02T22:11:54Z</time>
  <course>187.36</course>
  <speed>0.03605551275463989</speed>
  <fix>3d</fix>
</trkpt>
<trkpt lat="33.810313" lon="-118.393867">
  <ele>-0.12</ele>
  <time>2026-09-02T22:11:54Z</time>
  <course>0.0</course>
  <speed>0.0</speed>
  <fix>3d</fix>
</trkpt>
<trkpt lat="33.810313" lon="-118.393867">
  <ele>-0.129</ele>
  <time>2026-09-02T22:11:54Z</time>
  <course>187.35</course>
  <speed>0.03605551275463989</speed>
  <fix>3d</fix>
</trkpt>
<trkpt lat="33.810313" lon="-118.393867">
  <ele>-0.12</ele>
  <time>2026-09-02T22:11:54Z</time>
  <course>0.0</course>
  <speed>0.0</speed>
  <fix>3d</fix>
</trkpt>
<trkpt lat="33.810313" lon="-118.393867">
  <ele>-0.127</ele>
  <time>2026-09-02T22:11:54Z</time>
  <course>187.35</course>
  <speed>0.03605551275463989</speed>
  <fix>3d</fix>
</trkpt>
<trkpt lat="33.810313" lon="-118.393867">
  <ele>-0.12</ele>
  <time>2026-09-02T22:11:54Z</time>
  <course>0.0</course>
  <speed>0.0</speed>
  <fix>3d</fix>
</trkpt>
<trkpt lat="33.810313" lon="-118.393867">
  <ele>-0.127</ele>
  <time>2026-09-02T22:11:54Z</time>
  <course>187.34</course>
  <speed>0.03605551275463989</speed>
  <fix>3d</fix>
</trkpt>
<trkpt lat="33.810313" lon="-118.393867">
  <ele>-0.12</ele>
  <time>2026-09-02T22:11:54Z</time>
  <course>0.0</course>
  <speed>0.0</speed>
  <fix>3d</fix>
</trkpt>
<trkpt lat="33.810313" lon="-118.393867">
  <ele>-0.126</ele>
  <time>2026-09-02T22:11:54Z</time>
  <course>187.34</course>
  <speed>0.03605551275463989</speed>
  <fix>3d</fix>
</trkpt>
<trkpt lat="33.810313" lon="-118.393867">
  <ele>-0.12</ele>
  <time>2026-09-02T22:11:54Z</time>
  <course>0.0</course>
  <speed>0.0</speed>
  <fix>3d</fix>
</trkpt>
<trkpt lat="33.810313" lon="-118.393867">
  <ele>-0.126</ele>
  <time>2026-09-02T22:11:54Z</time>
  <course>187.33</course>
  <speed>0.03605551275463989</speed>
  <fix>3d</fix>
</trkpt>
<trkpt lat="33.810313" lon="-118.393867">
  <ele>-0.12</ele>
  <time>2026-09-02T22:11:54Z</time>
  <course>0.0</course>
  <speed>0.0</speed>
  <fix>3d</fix>
</trkpt>
<trkpt lat="33.810313" lon="-118.393867">
  <ele>-0.126</ele>
  <time>2026-09-02T22:11:54Z</time>
  <course>187.32</course>
  <speed>0.03605551275463989</speed>
  <fix>3d</fix>
</trkpt>
<trkpt lat="33.810313" lon="-118.393867">
  <ele>-0.12</ele>
  <time>2026-09-02T22:11:54Z</time>
  <course>0.0</course>
  <speed>0.0</speed>
  <fix>3d</fix>
</trkpt>
<trkpt lat="33.810313" lon="-118.393867">
  <ele>-0.126</ele>
  <time>2026-09-02T22:11:54Z</time>
  <course>187.32</course>
  <speed>0.03605551275463989</speed>
  <fix>3d</fix>
</trkpt>
<trkpt lat="33.810313" lon="-118.393867">
  <ele>-0.12</ele>
  <time>2026-09-02T22:11:54Z</time>
  <course>0.0</course>
  <speed>0.0</speed>
  <fix>3d</fix>
</trkpt>
<trkpt lat="33.810313" lon="-118.393867">
  <ele>-0.125</ele>
  <time>2026-09-02T22:11:54Z</time>
  <course>187.31</course>
  <speed>0.03605551275463989</speed>
  <fix>3d</fix>
</trkpt>
<trkpt lat="33.810313" lon="-118.393867">
  <ele>-0.12</ele>
  <time>2026-09-02T22:11:54Z</time>
  <course>0.0</course>
  <speed>0.0</speed>
  <fix>3d</fix>
</trkpt>
<trkpt lat="33.810313" lon="-118.393867">
  <ele>-0.124</ele>
  <time>2026-09-02T22:11:54Z</time>
  <course>187.31</course>
  <speed>0.03605551275463989</speed>
  <fix>3d</fix>
</trkpt>
<trkpt lat="33.810313" lon="-118.393867">
  <ele>-0.12</ele>
  <time>2026-09-02T22:11:54Z</time>
  <course>0.0</course>
  <speed>0.0</speed>
  <fix>3d</fix>
</trkpt>
<trkpt lat="33.810313" lon="-118.393867">
  <ele>-0.122</ele>
  <time>2026-09-02T22:11:54Z</time>
  <course>187.3</course>
  <speed>0.03605551275463989</speed>
  <fix>3d</fix>
</trkpt>
<trkpt lat="33.810313" lon="-118.393867">
  <ele>-0.12</ele>
  <time>2026-09-02T22:11:54Z</time>
  <course>0.0</course>
  <speed>0.0</speed>
  <fix>3d</fix>
</trkpt>
<trkpt lat="33.810313" lon="-118.393867">
  <ele>-0.121</ele>
  <time>2026-09-02T22:11:54Z</time>
  <course>187.3</course>
  <speed>0.03605551275463989</speed>
  <fix>3d</fix>
</trkpt>
<trkpt lat="33.810313" lon="-118.393867">
  <ele>-0.12</ele>
  <time>2026-09-02T22:11:54Z</time>
  <course>0.0</course>
  <speed>0.0</speed>
  <fix>3d</fix>
</trkpt>
<trkpt lat="33.810313" lon="-118.393867">
  <ele>-0.122</ele>
  <time>2026-09-02T22:11:54Z</time>
  <course>187.29</course>
  <speed>0.03605551275463989</speed>
  <fix>3d</fix>
</trkpt>
<trkpt lat="33.810313" lon="-118.393867">
  <ele>-0.12</ele>
  <time>2026-09-02T22:11:54Z</time>
  <course>0.0</course>
  <speed>0.0</speed>
  <fix>3d</fix>
</trkpt>
<trkpt lat="33.810313" lon="-118.393867">
  <ele>-0.124</ele>
  <time>2026-09-02T22:11:54Z</time>
  <course>187.28</course>
  <speed>0.03605551275463989</speed>
  <fix>3d</fix>
</trkpt>
<trkpt lat="33.810313" lon="-118.393867">
  <ele>-0.12</ele>
  <time>2026-09-02T22:11:54Z</time>
  <course>0.0</course>
  <speed>0.0</speed>
  <fix>3d</fix>
</trkpt>
<trkpt lat="33.810313" lon="-118.393867">
  <ele>-0.127</ele>
  <time>2026-09-02T22:11:54Z</time>
  <course>187.28</course>
  <speed>0.03605551275463989</speed>
  <fix>3d</fix>
</trkpt>
<trkpt lat="33.810313" lon="-118.393867">
  <ele>-0.12</ele>
  <time>2026-09-02T22:11:54Z</time>
  <course>0.0</course>
  <speed>0.0</speed>
  <fix>3d</fix>
</trkpt>
<trkpt lat="33.810313" lon="-118.393867">
  <ele>-0.13</ele>
  <time>2026-09-02T22:11:54Z</time>
  <course>187.27</course>
  <speed>0.03605551275463989</speed>
  <fix>3d</fix>
</trkpt>
<trkpt lat="33.810313" lon="-118.393867">
  <ele>-0.12</ele>
  <time>2026-09-02T22:11:54Z</time>
  <course>0.0</course>
  <speed>0.0</speed>
  <fix>3d</fix>
</trkpt>
<trkpt lat="33.810313" lon="-118.393867">
  <ele>-0.132</ele>
  <time>2026-09-02T22:11:54Z</time>
  <course>187.27</course>
  <speed>0.03605551275463989</speed>
  <fix>3d</fix>
</trkpt>
<trkpt lat="33.810313" lon="-118.393867">
  <ele>-0.12</ele>
  <time>2026-09-02T22:11:54Z</time>
  <course>0.0</course>
  <speed>0.0</speed>
  <fix>3d</fix>
</trkpt>
<trkpt lat="33.810313" lon="-118.393867">
  <ele>-0.134</ele>
  <time>2026-09-02T22:11:54Z</time>
  <course>187.26</course>
  <speed>0.03605551275463989</speed>
  <fix>3d</fix>
</trkpt>
<trkpt lat="33.810313" lon="-118.393867">
  <ele>-0.12</ele>
  <time>2026-09-02T22:11:54Z</time>
  <course>0.0</course>
  <speed>0.0</speed>
  <fix>3d</fix>
</trkpt>
<trkpt lat="33.810313" lon="-118.393867">
  <ele>-0.136</ele>
  <time>2026-09-02T22:11:54Z</time>
  <course>187.26</course>
  <speed>0.03605551275463989</speed>
  <fix>3d</fix>
</trkpt>
<trkpt lat="33.810313" lon="-118.393867">
  <ele>-0.12</ele>
  <time>2026-09-02T22:11:54Z</time>
  <course>0.0</course>
  <speed>0.0</speed>
  <fix>3d</fix>
</trkpt>
<trkpt lat="33.810313" lon="-118.393867">
  <ele>-0.136</ele>
  <time>2026-09-02T22:11:54Z</time>
  <course>187.25</course>
  <speed>0.03605551275463989</speed>
  <fix>3d</fix>
</trkpt>
<trkpt lat="33.810313" lon="-118.393867">
  <ele>-0.12</ele>
  <time>2026-09-02T22:11:54Z</time>
  <course>0.0</course>
  <speed>0.0</speed>
  <fix>3d</fix>
</trkpt>
<trkpt lat="33.810313" lon="-118.393867">
  <ele>-0.135</ele>
  <time>2026-09-02T22:11:54Z</time>
  <course>187.25</course>
  <speed>0.03605551275463989</speed>
  <fix>3d</fix>
</trkpt>
<trkpt lat="33.810313" lon="-118.393867">
  <ele>-0.12</ele>
  <time>2026-09-02T22:11:54Z</time>
  <course>0.0</course>
  <speed>0.0</speed>
  <fix>3d</fix>
</trkpt>
<trkpt lat="33.810313" lon="-118.393867">
  <ele>-0.134</ele>
  <time>2026-09-02T22:11:54Z</time>
  <course>187.24</course>
  <speed>0.03605551275463989</speed>
  <fix>3d</fix>
</trkpt>
<trkpt lat="33.810313" lon="-118.393867">
  <ele>-0.12</ele>
  <time>2026-09-02T22:11:54Z</time>
  <course>0.0</course>
  <speed>0.0</speed>
  <fix>3d</fix>
</trkpt>
<trkpt lat="33.810313" lon="-118.393867">
  <ele>-0.132</ele>
  <time>2026-09-02T22:11:54Z</time>
  <course>187.24</course>
  <speed>0.03605551275463989</speed>
  <fix>3d</fix>
</trkpt>
<trkpt lat="33.810313" lon="-118.393867">
  <ele>-0.12</ele>
  <time>2026-09-02T22:11:54Z</time>
  <course>0.0</course>
  <speed>0.0</speed>
  <fix>3d</fix>
</trkpt>
<trkpt lat="33.810313" lon="-118.393867">
  <ele>-0.131</ele>
  <time>2026-09-02T22:11:54Z</time>
  <course>187.23</course>
  <speed>0.03605551275463989</speed>
  <fix>3d</fix>
</trkpt>
<trkpt lat="33.810313" lon="-118.393867">
  <ele>-0.12</ele>
  <time>2026-09-02T22:11:54Z</time>
  <course>0.0</course>
  <speed>0.0</speed>
  <fix>3d</fix>
</trkpt>
<trkpt lat="33.810313" lon="-118.393867">
  <ele>-0.131</ele>
  <time>2026-09-02T22:11:54Z</time>
  <course>187.23</course>
  <speed>0.03605551275463989</speed>
  <fix>3d</fix>
</trkpt>
<trkpt lat="33.810313" lon="-118.393867">
  <ele>-0.12</ele>
  <time>2026-09-02T22:11:54Z</time>
  <course>0.0</course>
  <speed>0.0</speed>
  <fix>3d</fix>
</trkpt>
<trkpt lat="33.810313" lon="-118.393867">
  <ele>-0.132</ele>
  <time>2026-09-02T22:11:54Z</time>
  <course>187.22</course>
  <speed>0.03605551275463989</speed>
  <fix>3d</fix>
</trkpt>
<trkpt lat="33.810313" lon="-118.393867">
  <ele>-0.12</ele>
  <time>2026-09-02T22:11:54Z</time>
  <course>0.0</course>
  <speed>0.0</speed>
  <fix>3d</fix>
</trkpt>
<trkpt lat="33.810313" lon="-118.393867">
  <ele>-0.132</ele>
  <time>2026-09-02T22:11:54Z</time>
  <course>187.21</course>
  <speed>0.03605551275463989</speed>
  <fix>3d</fix>
</trkpt>
<trkpt lat="33.810313" lon="-118.393867">
  <ele>-0.12</ele>
  <time>2026-09-02T22:11:54Z</time>
  <course>0.0</course>
  <speed>0.0</speed>
  <fix>3d</fix>
</trkpt>
<trkpt lat="33.810313" lon="-118.393867">
  <ele>-0.133</ele>
  <time>2026-09-02T22:11:54Z</time>
  <course>187.21</course>
  <speed>0.03605551275463989</speed>
  <fix>3d</fix>
</trkpt>
<trkpt lat="33.810313" lon="-118.393867">
  <ele>-0.12</ele>
  <time>2026-09-02T22:11:54Z</time>
  <course>0.0</course>
  <speed>0.0</speed>
  <fix>3d</fix>
</trkpt>
<trkpt lat="33.810313" lon="-118.393867">
  <ele>-0.132</ele>
  <time>2026-09-02T22:11:54Z</time>
  <course>187.2</course>
  <speed>0.03605551275463989</speed>
  <fix>3d</fix>
</trkpt>
<trkpt lat="33.810313" lon="-118.393867">
  <ele>-0.12</ele>
  <time>2026-09-02T22:11:54Z</time>
  <course>0.0</course>
  <speed>0.0</speed>
  <fix>3d</fix>
</trkpt>
<trkpt lat="33.810313" lon="-118.393867">
  <ele>-0.131</ele>
  <time>2026-09-02T22:11:54Z</time>
  <course>187.2</course>
  <speed>0.03605551275463989</speed>
  <fix>3d</fix>
</trkpt>
<trkpt lat="33.810313" lon="-118.393867">
  <ele>-0.12</ele>
  <time>2026-09-02T22:11:54Z</time>
  <course>0.0</course>
  <speed>0.0</speed>
  <fix>3d</fix>
</trkpt>
<trkpt lat="33.810313" lon="-118.393867">
  <ele>-0.129</ele>
  <time>2026-09-02T22:11:54Z</time>
  <course>187.19</course>
  <speed>0.03605551275463989</speed>
  <fix>3d</fix>
</trkpt>
<trkpt lat="33.810313" lon="-118.393867">
  <ele>-0.12</ele>
  <time>2026-09-02T22:11:54Z</time>
  <course>0.0</course>
  <speed>0.0</speed>
  <fix>3d</fix>
</trkpt>
<trkpt lat="33.810313" lon="-118.393867">
  <ele>-0.126</ele>
  <time>2026-09-02T22:11:54Z</time>
  <course>187.19</course>
  <speed>0.03605551275463989</speed>
  <fix>3d</fix>
</trkpt>
<trkpt lat="33.810313" lon="-118.393867">
  <ele>-0.12</ele>
  <time>2026-09-02T22:11:54Z</time>
  <course>0.0</course>
  <speed>0.0</speed>
  <fix>3d</fix>
</trkpt>
<trkpt lat="33.810313" lon="-118.393867">
  <ele>-0.124</ele>
  <time>2026-09-02T22:11:54Z</time>
  <course>187.18</course>
  <speed>0.03605551275463989</speed>
  <fix>3d</fix>
</trkpt>
<trkpt lat="33.810313" lon="-118.393867">
  <ele>-0.12</ele>
  <time>2026-09-02T22:11:54Z</time>
  <course>0.0</course>
  <speed>0.0</speed>
  <fix>3d</fix>
</trkpt>
<trkpt lat="33.810313" lon="-118.393867">
  <ele>-0.123</ele>
  <time>2026-09-02T22:11:54Z</time>
  <course>187.18</course>
  <speed>0.03605551275463989</speed>
  <fix>3d</fix>
</trkpt>
<trkpt lat="33.810313" lon="-118.393867">
  <ele>-0.12</ele>
  <time>2026-09-02T22:11:54Z</time>
  <course>0.0</course>
  <speed>0.0</speed>
  <fix>3d</fix>
</trkpt>
<trkpt lat="33.810313" lon="-118.393867">
  <ele>-0.123</ele>
  <time>2026-09-02T22:11:54Z</time>
  <course>187.17</course>
  <speed>0.03605551275463989</speed>
  <fix>3d</fix>
</trkpt>
<trkpt lat="33.810313" lon="-118.393867">
  <ele>-0.12</ele>
  <time>2026-09-02T22:11:54Z</time>
  <course>0.0</course>
  <speed>0.0</speed>
  <fix>3d</fix>
</trkpt>
<trkpt lat="33.810313" lon="-118.393867">
  <ele>-0.122</ele>
  <time>2026-09-02T22:11:54Z</time>
  <course>187.17</course>
  <speed>0.0</speed>
  <fix>3d</fix>
</trkpt>
<trkpt lat="33.810313" lon="-118.393867">
  <ele>-0.12</ele>
  <time>2026-09-02T22:11:54Z</time>
  <course>0.0</course>
  <speed>0.0</speed>
  <fix>3d</fix>
</trkpt>
<trkpt lat="33.810313" lon="-118.393867">
  <ele>-0.121</ele>
  <time>2026-09-02T22:11:54Z</time>
  <course>187.16</course>
  <speed>0.0</speed>
  <fix>3d</fix>
</trkpt>
<trkpt lat="33.810313" lon="-118.393867">
  <ele>-0.12</ele>
  <time>2026-09-02T22:11:54Z</time>
  <course>0.0</course>
  <speed>0.0</speed>
  <fix>3d</fix>
</trkpt>
<trkpt lat="33.810313" lon="-118.393867">
  <ele>-0.121</ele>
  <time>2026-09-02T22:11:54Z</time>
  <course>187.16</course>
  <speed>0.0</speed>
  <fix>3d</fix>
</trkpt>
<trkpt lat="33.810313" lon="-118.393867">
  <ele>-0.12</ele>
  <time>2026-09-02T22:11:54Z</time>
  <course>0.0</course>
  <speed>0.0</speed>
  <fix>3d</fix>
</trkpt>
<trkpt lat="33.810313" lon="-118.393867">
  <ele>-0.119</ele>
  <time>2026-09-02T22:11:54Z</time>
  <course>187.15</course>
  <speed>0.0</speed>
  <fix>3d</fix>
</trkpt>
<trkpt lat="33.810313" lon="-118.393867">
  <ele>-0.12</ele>
  <time>2026-09-02T22:11:54Z</time>
  <course>0.0</course>
  <speed>0.0</speed>
  <fix>3d</fix>
</trkpt>
<trkpt lat="33.810313" lon="-118.393867">
  <ele>-0.116</ele>
  <time>2026-09-02T22:11:54Z</time>
  <course>187.15</course>
  <speed>0.0</speed>
  <fix>3d</fix>
</trkpt>
<trkpt lat="33.810313" lon="-118.393867">
  <ele>-0.12</ele>
  <time>2026-09-02T22:11:54Z</time>
  <course>0.0</course>
  <speed>0.0</speed>
  <fix>3d</fix>
</trkpt>
<trkpt lat="33.810313" lon="-118.393867">
  <ele>-0.114</ele>
  <time>2026-09-02T22:11:54Z</time>
  <course>187.14</course>
  <speed>0.0</speed>
  <fix>3d</fix>
</trkpt>
<trkpt lat="33.810313" lon="-118.393867">
  <ele>-0.12</ele>
  <time>2026-09-02T22:11:54Z</time>
  <course>0.0</course>
  <speed>0.0</speed>
  <fix>3d</fix>
</trkpt>
<trkpt lat="33.810313" lon="-118.393867">
  <ele>-0.113</ele>
  <time>2026-09-02T22:11:54Z</time>
  <course>187.14</course>
  <speed>0.0</speed>
  <fix>3d</fix>
</trkpt>
<trkpt lat="33.810313" lon="-118.393867">
  <ele>-0.12</ele>
  <time>2026-09-02T22:11:54Z</time>
  <course>0.0</course>
  <speed>0.0</speed>
  <fix>3d</fix>
</trkpt>
<trkpt lat="33.810313" lon="-118.393867">
  <ele>-0.112</ele>
  <time>2026-09-02T22:11:54Z</time>
  <course>187.13</course>
  <speed>0.0</speed>
  <fix>3d</fix>
</trkpt>
<trkpt lat="33.810313" lon="-118.393867">
  <ele>-0.12</ele>
  <time>2026-09-02T22:11:54Z</time>
  <course>0.0</course>
  <speed>0.0</speed>
  <fix>3d</fix>
</trkpt>
<trkpt lat="33.810313" lon="-118.393867">
  <ele>-0.113</ele>
  <time>2026-09-02T22:11:54Z</time>
  <course>187.13</course>
  <speed>0.0</speed>
  <fix>3d</fix>
</trkpt>
<trkpt lat="33.810313" lon="-118.393867">
  <ele>-0.12</ele>
  <time>2026-09-02T22:11:54Z</time>
  <course>0.0</course>
  <speed>0.0</speed>
  <fix>3d</fix>
</trkpt>
<trkpt lat="33.810313" lon="-118.393867">
  <ele>-0.114</ele>
  <time>2026-09-02T22:11:54Z</time>
  <course>187.12</course>
  <speed>0.0</speed>
  <fix>3d</fix>
</trkpt>
<trkpt lat="33.810313" lon="-118.393867">
  <ele>-0.12</ele>
  <time>2026-09-02T22:11:54Z</time>
  <course>0.0</course>
  <speed>0.0</speed>
  <fix>3d</fix>
</trkpt>
<trkpt lat="33.810313" lon="-118.393867">
  <ele>-0.116</ele>
  <time>2026-09-02T22:11:54Z</time>
  <course>187.12</course>
  <speed>0.0</speed>
  <fix>3d</fix>
</trkpt>
<trkpt lat="33.810313" lon="-118.393867">
  <ele>-0.12</ele>
  <time>2026-09-02T22:11:54Z</time>
  <course>0.0</course>
  <speed>0.0</speed>
  <fix>3d</fix>
</trkpt>
<trkpt lat="33.810313" lon="-118.393867">
  <ele>-0.119</ele>
  <time>2026-09-02T22:11:54Z</time>
  <course>187.11</course>
  <speed>0.01</speed>
  <fix>3d</fix>
</trkpt>
<trkpt lat="33.810313" lon="-118.393867">
  <ele>-0.12</ele>
  <time>2026-09-02T22:11:54Z</time>
  <course>0.0</course>
  <speed>0.0</speed>
  <fix>3d</fix>
</trkpt>
<trkpt lat="33.810313" lon="-118.393867">
  <ele>-0.119</ele>
  <time>2026-09-02T22:11:54Z</time>
  <course>187.11</course>
  <speed>0.01</speed>
  <fix>3d</fix>
</trkpt>
<trkpt lat="33.810313" lon="-118.393867">
  <ele>-0.12</ele>
  <time>2026-09-02T22:11:54Z</time>
  <course>187.11</course>
  <speed>0.01</speed>
  <fix>3d</fix>
</trkpt>
<trkpt lat="33.810313" lon="-118.393867">
  <ele>-0.12</ele>
  <time>2026-09-02T22:11:54Z</time>
  <course>0.0</course>
  <speed>0.0</speed>
  <fix>3d</fix>
</trkpt>
<trkpt lat="33.810313" lon="-118.393867">
  <ele>-0.121</ele>
  <time>2026-09-02T22:11:54Z</time>
  <course>187.1</course>
  <speed>0.01</speed>
  <fix>3d</fix>
</trkpt>
<trkpt lat="33.810313" lon="-118.393867">
  <ele>-0.12</ele>
  <time>2026-09-02T22:11:54Z</time>
  <course>0.0</course>
  <speed>0.0</speed>
  <fix>3d</fix>
</trkpt>
<trkpt lat="33.810313" lon="-118.393867">
  <ele>-0.122</ele>
  <time>2026-09-02T22:11:54Z</time>
  <course>187.1</course>
  <speed>0.01414213562373095</speed>
  <fix>3d</fix>
</trkpt>
<trkpt lat="33.810313" lon="-118.393867">
  <ele>-0.12</ele>
  <time>2026-09-02T22:11:54Z</time>
  <course>0.0</course>
  <speed>0.0</speed>
  <fix>3d</fix>
</trkpt>
<trkpt lat="33.810313" lon="-118.393867">
  <ele>-0.122</ele>
  <time>2026-09-02T22:11:54Z</time>
  <course>187.1</course>
  <speed>0.01414213562373095</speed>
  <fix>3d</fix>
</trkpt>
<trkpt lat="33.810313" lon="-118.393867">
  <ele>-0.12</ele>
  <time>2026-09-02T22:11:54Z</time>
  <course>0.0</course>
  <speed>0.0</speed>
  <fix>3d</fix>
</trkpt>
<trkpt lat="33.810313" lon="-118.393867">
  <ele>-0.123</ele>
  <time>2026-09-02T22:11:54Z</time>
  <course>187.09</course>
  <speed>0.01414213562373095</speed>
  <fix>3d</fix>
</trkpt>
<trkpt lat="33.810313" lon="-118.393867">
  <ele>-0.12</ele>
  <time>2026-09-02T22:11:54Z</time>
  <course>0.0</course>
  <speed>0.0</speed>
  <fix>3d</fix>
</trkpt>
<trkpt lat="33.810313" lon="-118.393867">
  <ele>-0.124</ele>
  <time>2026-09-02T22:11:54Z</time>
  <course>187.09</course>
  <speed>0.01414213562373095</speed>
  <fix>3d</fix>
</trkpt>
<trkpt lat="33.810313" lon="-118.393867">
  <ele>-0.12</ele>
  <time>2026-09-02T22:11:54Z</time>
  <course>0.0</course>
  <speed>0.0</speed>
  <fix>3d</fix>
</trkpt>
<trkpt lat="33.810313" lon="-118.393867">
  <ele>-0.126</ele>
  <time>2026-09-02T22:11:54Z</time>
  <course>187.08</course>
  <speed>0.01414213562373095</speed>
  <fix>3d</fix>
</trkpt>
<trkpt lat="33.810313" lon="-118.393867">
  <ele>-0.12</ele>
  <time>2026-09-02T22:11:54Z</time>
  <course>0.0</course>
  <speed>0.0</speed>
  <fix>3d</fix>
</trkpt>
<trkpt lat="33.810313" lon="-118.393867">
  <ele>-0.128</ele>
  <time>2026-09-02T22:11:54Z</time>
  <course>187.08</course>
  <speed>0.01414213562373095</speed>
  <fix>3d</fix>
</trkpt>
<trkpt lat="33.810313" lon="-118.393867">
  <ele>-0.12</ele>
  <time>2026-09-02T22:11:54Z</time>
  <course>0.0</course>
  <speed>0.0</speed>
  <fix>3d</fix>
</trkpt>
<trkpt lat="33.810313" lon="-118.393867">
  <ele>-0.13</ele>
  <time>2026-09-02T22:11:54Z</time>
  <course>187.07</course>
  <speed>0.01414213562373095</speed>
  <fix>3d</fix>
</trkpt>
<trkpt lat="33.810313" lon="-118.393867">
  <ele>-0.12</ele>
  <time>2026-09-02T22:11:54Z</time>
  <course>0.0</course>
  <speed>0.0</speed>
  <fix>3d</fix>
</trkpt>
<trkpt lat="33.810313" lon="-118.393867">
  <ele>-0.134</ele>
  <time>2026-09-02T22:11:54Z</time>
  <course>187.07</course>
  <speed>0.01414213562373095</speed>
  <fix>3d</fix>
</trkpt>
<trkpt lat="33.810313" lon="-118.393867">
  <ele>-0.12</ele>
  <time>2026-09-02T22:11:54Z</time>
  <course>0.0</course>
  <speed>0.0</speed>
  <fix>3d</fix>
</trkpt>
<trkpt lat="33.810313" lon="-118.393867">
  <ele>-0.138</ele>
  <time>2026-09-02T22:11:54Z</time>
  <course>187.06</course>
  <speed>0.01414213562373095</speed>
  <fix>3d</fix>
</trkpt>
<trkpt lat="33.810313" lon="-118.393867">
  <ele>-0.12</ele>
  <time>2026-09-02T22:11:54Z</time>
  <course>0.0</course>
  <speed>0.0</speed>
  <fix>3d</fix>
</trkpt>
<trkpt lat="33.810313" lon="-118.393867">
  <ele>-0.16</ele>
  <time>2026-09-02T22:11:54Z</time>
  <course>187.06</course>
  <speed>0.01414213562373095</speed>
  <fix>3d</fix>
</trkpt>
<trkpt lat="33.810313" lon="-118.393867">
  <ele>-0.12</ele>
  <time>2026-09-02T22:11:54Z</time>
  <course>0.0</course>
  <speed>0.0</speed>
  <fix>3d</fix>
</trkpt>
<trkpt lat="33.810313" lon="-118.393867">
  <ele>-0.2</ele>
  <time>2026-09-02T22:11:54Z</time>
  <course>187.05</course>
  <speed>0.01414213562373095</speed>
  <fix>3d</fix>
</trkpt>
<trkpt lat="33.810313" lon="-118.393867">
  <ele>-0.14</ele>
  <time>2026-09-02T22:11:54Z</time>
  <course>0.0</course>
  <speed>0.0</speed>
  <fix>3d</fix>
</trkpt>
<trkpt lat="33.810313" lon="-118.393867">
  <ele>-0.252</ele>
  <time>2026-09-02T22:11:54Z</time>
  <course>187.05</course>
  <speed>0.01414213562373095</speed>
  <fix>3d</fix>
</trkpt>
<trkpt lat="33.810313" lon="-118.393867">
  <ele>-0.14</ele>
  <time>2026-09-02T22:11:54Z</time>
  <course>0.0</course>
  <speed>0.0</speed>
  <fix>3d</fix>
</trkpt>
<trkpt lat="33.810313" lon="-118.393867">
  <ele>-0.253</ele>
  <time>2026-09-02T22:11:54Z</time>
  <course>187.05</course>
  <speed>0.01414213562373095</speed>
  <fix>3d</fix>
</trkpt>
<trkpt lat="33.810313" lon="-118.393867">
  <ele>-0.309</ele>
  <time>2026-09-02T22:11:54Z</time>
  <course>187.04</course>
  <speed>0.01414213562373095</speed>
  <fix>3d</fix>
</trkpt>
<trkpt lat="33.810313" lon="-118.393867">
  <ele>-0.2</ele>
  <time>2026-09-02T22:11:54Z</time>
  <course>0.0</course>
  <speed>0.0</speed>
  <fix>3d</fix>
</trkpt>
<trkpt lat="33.810313" lon="-118.393867">
  <ele>-0.311</ele>
  <time>2026-09-02T22:11:54Z</time>
  <course>187.04</course>
  <speed>0.01414213562373095</speed>
  <fix>3d</fix>
</trkpt>
<trkpt lat="33.810313" lon="-118.393867">
  <ele>-0.37</ele>
  <time>2026-09-02T22:11:54Z</time>
  <course>187.04</course>
  <speed>0.01414213562373095</speed>
  <fix>3d</fix>
</trkpt>
<trkpt lat="33.810313" lon="-118.393867">
  <ele>-0.2</ele>
  <time>2026-09-02T22:11:54Z</time>
  <course>0.0</course>
  <speed>0.0</speed>
  <fix>3d</fix>
</trkpt>
<trkpt lat="33.810313" lon="-118.393867">
  <ele>-0.373</ele>
  <time>2026-09-02T22:11:54Z</time>
  <course>187.04</course>
  <speed>0.01414213562373095</speed>
  <fix>3d</fix>
</trkpt>
<trkpt lat="33.810313" lon="-118.393867">
  <ele>-0.432</ele>
  <time>2026-09-02T22:11:54Z</time>
  <course>187.03</course>
  <speed>0.01414213562373095</speed>
  <fix>3d</fix>
</trkpt>
<trkpt lat="33.810313" lon="-118.393867">
  <ele>-0.31</ele>
  <time>2026-09-02T22:11:54Z</time>
  <course>0.0</course>
  <speed>0.0</speed>
  <fix>3d</fix>
</trkpt>
<trkpt lat="33.810313" lon="-118.393867">
  <ele>-0.452</ele>
  <time>2026-09-02T22:11:54Z</time>
  <course>187.03</course>
  <speed>0.01414213562373095</speed>
  <fix>3d</fix>
</trkpt>
<trkpt lat="33.810313" lon="-118.393867">
  <ele>-0.496</ele>
  <time>2026-09-02T22:11:54Z</time>
  <course>187.03</course>
  <speed>0.01414213562373095</speed>
  <fix>3d</fix>
</trkpt>
<trkpt lat="33.810313" lon="-118.393867">
  <ele>-0.31</ele>
  <time>2026-09-02T22:11:54Z</time>
  <course>0.0</course>
  <speed>0.0</speed>
  <fix>3d</fix>
</trkpt>
<trkpt lat="33.810313" lon="-118.393867">
  <ele>-0.516</ele>
  <time>2026-09-02T22:11:54Z</time>
  <course>187.03</course>
  <speed>0.01414213562373095</speed>
  <fix>3d</fix>
</trkpt>
<trkpt lat="33.810313" lon="-118.393867">
  <ele>-0.559</ele>
  <time>2026-09-02T22:11:54Z</time>
  <course>187.02</course>
  <speed>0.01414213562373095</speed>
  <fix>3d</fix>
</trkpt>
<trkpt lat="33.810313" lon="-118.393867">
  <ele>-0.43</ele>
  <time>2026-09-02T22:11:54Z</time>
  <course>0.0</course>
  <speed>0.0</speed>
  <fix>3d</fix>
</trkpt>
<trkpt lat="33.810313" lon="-118.393867">
  <ele>-0.58</ele>
  <time>2026-09-02T22:11:54Z</time>
  <course>187.02</course>
  <speed>0.01414213562373095</speed>
  <fix>3d</fix>
</trkpt>
<trkpt lat="33.810313" lon="-118.393867">
  <ele>-0.624</ele>
  <time>2026-09-02T22:11:54Z</time>
  <course>187.02</course>
  <speed>0.01</speed>
  <fix>3d</fix>
</trkpt>
<trkpt lat="33.810313" lon="-118.393867">
  <ele>-0.43</ele>
  <time>2026-09-02T22:11:54Z</time>
  <course>0.0</course>
  <speed>0.0</speed>
  <fix>3d</fix>
</trkpt>
<trkpt lat="33.810313" lon="-118.393867">
  <ele>-0.645</ele>
  <time>2026-09-02T22:11:54Z</time>
  <course>187.02</course>
  <speed>0.01</speed>
  <fix>3d</fix>
</trkpt>
<trkpt lat="33.810313" lon="-118.393867">
  <ele>-0.69</ele>
  <time>2026-09-02T22:11:54Z</time>
  <course>187.01</course>
  <speed>0.01</speed>
  <fix>3d</fix>
</trkpt>
<trkpt lat="33.810313" lon="-118.393867">
  <ele>-0.55</ele>
  <time>2026-09-02T22:11:54Z</time>
  <course>0.0</course>
  <speed>0.0</speed>
  <fix>3d</fix>
</trkpt>
<trkpt lat="33.810313" lon="-118.393867">
  <ele>-0.711</ele>
  <time>2026-09-02T22:11:54Z</time>
  <course>187.01</course>
  <speed>0.01</speed>
  <fix>3d</fix>
</trkpt>
<trkpt lat="33.810313" lon="-118.393867">
  <ele>-0.755</ele>
  <time>2026-09-02T22:11:54Z</time>
  <course>184.83</course>
  <speed>0.01</speed>
  <fix>3d</fix>
</trkpt>
<trkpt lat="33.810313" lon="-118.393867">
  <ele>-0.55</ele>
  <time>2026-09-02T22:11:54Z</time>
  <course>0.0</course>
  <speed>0.0</speed>
  <fix>3d</fix>
</trkpt>
<trkpt lat="33.810313" lon="-118.393867">
  <ele>-0.756</ele>
  <time>2026-09-02T22:11:54Z</time>
  <course>184.83</course>
  <speed>0.01</speed>
  <fix>3d</fix>
</trkpt>
<trkpt lat="33.810313" lon="-118.393867">
  <ele>-0.82</ele>
  <time>2026-09-02T22:11:54Z</time>
  <course>184.82</course>
  <speed>0.01</speed>
  <fix>3d</fix>
</trkpt>
<trkpt lat="33.810313" lon="-118.393867">
  <ele>-0.67</ele>
  <time>2026-09-02T22:11:54Z</time>
  <course>0.0</course>
  <speed>0.0</speed>
  <fix>3d</fix>
</trkpt>
<trkpt lat="33.810313" lon="-118.393867">
  <ele>-0.825</ele>
  <time>2026-09-02T22:11:54Z</time>
  <course>184.82</course>
  <speed>0.01</speed>
  <fix>3d</fix>
</trkpt>
<trkpt lat="33.810313" lon="-118.393867">
  <ele>-0.885</ele>
  <time>2026-09-02T22:11:54Z</time>
  <course>184.82</course>
  <speed>0.01</speed>
  <fix>3d</fix>
</trkpt>
<trkpt lat="33.810313" lon="-118.393867">
  <ele>-0.67</ele>
  <time>2026-09-02T22:11:54Z</time>
  <course>0.0</course>
  <speed>0.0</speed>
  <fix>3d</fix>
</trkpt>
<trkpt lat="33.810313" lon="-118.393867">
  <ele>-0.89</ele>
  <time>2026-09-02T22:11:54Z</time>
  <course>184.82</course>
  <speed>0.01</speed>
  <fix>3d</fix>
</trkpt>
<trkpt lat="33.810313" lon="-118.393867">
  <ele>-0.95</ele>
  <time>2026-09-02T22:11:54Z</time>
  <course>184.82</course>
  <speed>0.0</speed>
  <fix>3d</fix>
</trkpt>
<trkpt lat="33.810313" lon="-118.393867">
  <ele>-0.79</ele>
  <time>2026-09-02T22:11:54Z</time>
  <course>0.0</course>
  <speed>0.0</speed>
  <fix>3d</fix>
</trkpt>
<trkpt lat="33.810313" lon="-118.393867">
  <ele>-0.956</ele>
  <time>2026-09-02T22:11:54Z</time>
  <course>184.82</course>
  <speed>0.0</speed>
  <fix>3d</fix>
</trkpt>
<trkpt lat="33.810313" lon="-118.393867">
  <ele>-1.013</ele>
  <time>2026-09-02T22:11:54Z</time>
  <course>184.81</course>
  <speed>0.0</speed>
  <fix>3d</fix>
</trkpt>
<trkpt lat="33.810313" lon="-118.393867">
  <ele>-0.79</ele>
  <time>2026-09-02T22:11:54Z</time>
  <course>0.0</course>
  <speed>0.0</speed>
  <fix>3d</fix>
</trkpt>
<trkpt lat="33.810313" lon="-118.393867">
  <ele>-1.014</ele>
  <time>2026-09-02T22:11:54Z</time>
  <course>184.81</course>
  <speed>0.0</speed>
  <fix>3d</fix>
</trkpt>
<trkpt lat="33.810313" lon="-118.393867">
  <ele>-1.077</ele>
  <time>2026-09-02T22:11:54Z</time>
  <course>184.81</course>
  <speed>0.0</speed>
  <fix>3d</fix>
</trkpt>
<trkpt lat="33.810313" lon="-118.393867">
  <ele>-0.91</ele>
  <time>2026-09-02T22:11:54Z</time>
  <course>0.0</course>
  <speed>0.0</speed>
  <fix>3d</fix>
</trkpt>
<trkpt lat="33.810313" lon="-118.393867">
  <ele>-1.08</ele>
  <time>2026-09-02T22:11:54Z</time>
  <course>184.81</course>
  <speed>0.0</speed>
  <fix>3d</fix>
</trkpt>
<trkpt lat="33.810313" lon="-118.393867">
  <ele>-1.14</ele>
  <time>2026-09-02T22:11:54Z</time>
  <course>184.81</course>
  <speed>0.0</speed>
  <fix>3d</fix>
</trkpt>
<trkpt lat="33.810313" lon="-118.393867">
  <ele>-0.91</ele>
  <time>2026-09-02T22:11:54Z</time>
  <course>0.0</course>
  <speed>0.0</speed>
  <fix>3d</fix>
</trkpt>
<trkpt lat="33.810313" lon="-118.393867">
  <ele>-1.141</ele>
  <time>2026-09-02T22:11:54Z</time>
  <course>184.81</course>
  <speed>0.0</speed>
  <fix>3d</fix>
</trkpt>
<trkpt lat="33.810313" lon="-118.393867">
  <ele>-1.203</ele>
  <time>2026-09-02T22:11:54Z</time>
  <course>184.81</course>
  <speed>0.0</speed>
  <fix>3d</fix>
</trkpt>
<trkpt lat="33.810313" lon="-118.393867">
  <ele>-1.03</ele>
  <time>2026-09-02T22:11:54Z</time>
  <course>0.0</course>
  <speed>0.0</speed>
  <fix>3d</fix>
</trkpt>
<trkpt lat="33.810313" lon="-118.393867">
  <ele>-1.204</ele>
  <time>2026-09-02T22:11:54Z</time>
  <course>184.81</course>
  <speed>0.0</speed>
  <fix>3d</fix>
</trkpt>
<trkpt lat="33.810313" lon="-118.393867">
  <ele>-1.267</ele>
  <time>2026-09-02T22:11:54Z</time>
  <course>184.8</course>
  <speed>0.0</speed>
  <fix>3d</fix>
</trkpt>
<trkpt lat="33.810313" lon="-118.393867">
  <ele>-1.03</ele>
  <time>2026-09-02T22:11:54Z</time>
  <course>0.0</course>
  <speed>0.0</speed>
  <fix>3d</fix>
</trkpt>
<trkpt lat="33.810313" lon="-118.393867">
  <ele>-1.268</ele>
  <time>2026-09-02T22:11:54Z</time>
  <course>184.8</course>
  <speed>0.0</speed>
  <fix>3d</fix>
</trkpt>
<trkpt lat="33.810313" lon="-118.393867">
  <ele>-1.331</ele>
  <time>2026-09-02T22:11:54Z</time>
  <course>184.8</course>
  <speed>0.0</speed>
  <fix>3d</fix>
</trkpt>
<trkpt lat="33.810313" lon="-118.393867">
  <ele>-1.15</ele>
  <time>2026-09-02T22:11:54Z</time>
  <course>0.0</course>
  <speed>0.0</speed>
  <fix>3d</fix>
</trkpt>
<trkpt lat="33.810313" lon="-118.393867">
  <ele>-1.332</ele>
  <time>2026-09-02T22:11:54Z</time>
  <course>184.8</course>
  <speed>0.0</speed>
  <fix>3d</fix>
</trkpt>
<trkpt lat="33.810313" lon="-118.393867">
  <ele>-1.394</ele>
  <time>2026-09-02T22:11:54Z</time>
  <course>184.8</course>
  <speed>0.0</speed>
  <fix>3d</fix>
</trkpt>
<trkpt lat="33.810313" lon="-118.393867">
  <ele>-1.15</ele>
  <time>2026-09-02T22:11:54Z</time>
  <course>0.0</course>
  <speed>0.0</speed>
  <fix>3d</fix>
</trkpt>
<trkpt lat="33.810313" lon="-118.393867">
  <ele>-1.395</ele>
  <time>2026-09-02T22:11:54Z</time>
  <course>184.8</course>
  <speed>0.0</speed>
  <fix>3d</fix>
</trkpt>
<trkpt lat="33.810313" lon="-118.393867">
  <ele>-1.456</ele>
  <time>2026-09-02T22:11:54Z</time>
  <course>184.79</course>
  <speed>0.0</speed>
  <fix>3d</fix>
</trkpt>
<trkpt lat="33.810313" lon="-118.393867">
  <ele>-1.27</ele>
  <time>2026-09-02T22:11:54Z</time>
  <course>0.0</course>
  <speed>0.0</speed>
  <fix>3d</fix>
</trkpt>
<trkpt lat="33.810313" lon="-118.393867">
  <ele>-1.458</ele>
  <time>2026-09-02T22:11:54Z</time>
  <course>184.79</course>
  <speed>0.0</speed>
  <fix>3d</fix>
</trkpt>
<trkpt lat="33.810313" lon="-118.393867">
  <ele>-1.519</ele>
  <time>2026-09-02T22:11:54Z</time>
  <course>184.79</course>
  <speed>0.0</speed>
  <fix>3d</fix>
</trkpt>
<trkpt lat="33.810313" lon="-118.393867">
  <ele>-1.27</ele>
  <time>2026-09-02T22:11:54Z</time>
  <course>0.0</course>
  <speed>0.0</speed>
  <fix>3d</fix>
</trkpt>
<trkpt lat="33.810313" lon="-118.393867">
  <ele>-1.52</ele>
  <time>2026-09-02T22:11:54Z</time>
  <course>184.79</course>
  <speed>0.0</speed>
  <fix>3d</fix>
</trkpt>
<trkpt lat="33.810313" lon="-118.393867">
  <ele>-1.582</ele>
  <time>2026-09-02T22:11:54Z</time>
  <course>184.79</course>
  <speed>0.0</speed>
  <fix>3d</fix>
</trkpt>
<trkpt lat="33.810313" lon="-118.393867">
  <ele>-1.39</ele>
  <time>2026-09-02T22:11:54Z</time>
  <course>0.0</course>
  <speed>0.0</speed>
  <fix>3d</fix>
</trkpt>
<trkpt lat="33.810313" lon="-118.393867">
  <ele>-1.585</ele>
  <time>2026-09-02T22:11:54Z</time>
  <course>184.79</course>
  <speed>0.0</speed>
  <fix>3d</fix>
</trkpt>
<trkpt lat="33.810313" lon="-118.393867">
  <ele>-1.645</ele>
  <time>2026-09-02T22:11:54Z</time>
  <course>184.78</course>
  <speed>0.0</speed>
  <fix>3d</fix>
</trkpt>
<trkpt lat="33.810313" lon="-118.393867">
  <ele>-1.39</ele>
  <time>2026-09-02T22:11:54Z</time>
  <course>0.0</course>
  <speed>0.0</speed>
  <fix>3d</fix>
</trkpt>
<trkpt lat="33.810313" lon="-118.393867">
  <ele>-1.647</ele>
  <time>2026-09-02T22:11:54Z</time>
  <course>184.78</course>
  <speed>0.0</speed>
  <fix>3d</fix>
</trkpt>
<trkpt lat="33.810313" lon="-118.393867">
  <ele>-1.707</ele>
  <time>2026-09-02T22:11:54Z</time>
  <course>184.78</course>
  <speed>0.0</speed>
  <fix>3d</fix>
</trkpt>
<trkpt lat="33.810313" lon="-118.393867">
  <ele>-1.51</ele>
  <time>2026-09-02T22:11:54Z</time>
  <course>0.0</course>
  <speed>0.0</speed>
  <fix>3d</fix>
</trkpt>
<trkpt lat="33.810313" lon="-118.393867">
  <ele>-1.708</ele>
  <time>2026-09-02T22:11:54Z</time>
  <course>184.78</course>
  <speed>0.0</speed>
  <fix>3d</fix>
</trkpt>
<trkpt lat="33.810313" lon="-118.393867">
  <ele>-1.768</ele>
  <time>2026-09-02T22:11:54Z</time>
  <course>184.78</course>
  <speed>0.0</speed>
  <fix>3d</fix>
</trkpt>
<trkpt lat="33.810313" lon="-118.393867">
  <ele>-1.51</ele>
  <time>2026-09-02T22:11:54Z</time>
  <course>0.0</course>
  <speed>0.0</speed>
  <fix>3d</fix>
</trkpt>
<trkpt lat="33.810313" lon="-118.393867">
  <ele>-1.771</ele>
  <time>2026-09-02T22:11:54Z</time>
  <course>184.78</course>
  <speed>0.0</speed>
  <fix>3d</fix>
</trkpt>
<trkpt lat="33.810313" lon="-118.393867">
  <ele>-1.829</ele>
  <time>2026-09-02T22:11:54Z</time>
  <course>184.79</course>
  <speed>0.0</speed>
  <fix>3d</fix>
</trkpt>
<trkpt lat="33.810313" lon="-118.393867">
  <ele>-1.63</ele>
  <time>2026-09-02T22:11:54Z</time>
  <course>0.0</course>
  <speed>0.0</speed>
  <fix>3d</fix>
</trkpt>
<trkpt lat="33.810313" lon="-118.393867">
  <ele>-1.849</ele>
  <time>2026-09-02T22:11:54Z</time>
  <course>184.79</course>
  <speed>0.0</speed>
  <fix>3d</fix>
</trkpt>
<trkpt lat="33.810313" lon="-118.393867">
  <ele>-1.89</ele>
  <time>2026-09-02T22:11:54Z</time>
  <course>184.8</course>
  <speed>0.0</speed>
  <fix>3d</fix>
</trkpt>
<trkpt lat="33.810313" lon="-118.393867">
  <ele>-1.63</ele>
  <time>2026-09-02T22:11:54Z</time>
  <course>0.0</course>
  <speed>0.0</speed>
  <fix>3d</fix>
</trkpt>
<trkpt lat="33.810313" lon="-118.393867">
  <ele>-1.909</ele>
  <time>2026-09-02T22:11:54Z</time>
  <course>184.8</course>
  <speed>0.0</speed>
  <fix>3d</fix>
</trkpt>
<trkpt lat="33.810313" lon="-118.393867">
  <ele>-1.95</ele>
  <time>2026-09-02T22:11:54Z</time>
  <course>184.81</course>
  <speed>0.0</speed>
  <fix>3d</fix>
</trkpt>
<trkpt lat="33.810313" lon="-118.393867">
  <ele>-1.75</ele>
  <time>2026-09-02T22:11:54Z</time>
  <course>0.0</course>
  <speed>0.0</speed>
  <fix>3d</fix>
</trkpt>
<trkpt lat="33.810313" lon="-118.393867">
  <ele>-1.969</ele>
  <time>2026-09-02T22:11:54Z</time>
  <course>184.81</course>
  <speed>0.0</speed>
  <fix>3d</fix>
</trkpt>
<trkpt lat="33.810313" lon="-118.393867">
  <ele>-2.01</ele>
  <time>2026-09-02T22:11:54Z</time>
  <course>184.82</course>
  <speed>0.0</speed>
  <fix>3d</fix>
</trkpt>
<trkpt lat="33.810313" lon="-118.393867">
  <ele>-1.75</ele>
  <time>2026-09-02T22:11:54Z</time>
  <course>0.0</course>
  <speed>0.0</speed>
  <fix>3d</fix>
</trkpt>
<trkpt lat="33.810313" lon="-118.393867">
  <ele>-2.029</ele>
  <time>2026-09-02T22:11:54Z</time>
  <course>184.82</course>
  <speed>0.0</speed>
  <fix>3d</fix>
</trkpt>
<trkpt lat="33.810313" lon="-118.393867">
  <ele>-2.069</ele>
  <time>2026-09-02T22:11:54Z</time>
  <course>184.83</course>
  <speed>0.0</speed>
  <fix>3d</fix>
</trkpt>
<trkpt lat="33.810313" lon="-118.393867">
  <ele>-1.86</ele>
  <time>2026-09-02T22:11:54Z</time>
  <course>0.0</course>
  <speed>0.0</speed>
  <fix>3d</fix>
</trkpt>
<trkpt lat="33.810313" lon="-118.393867">
  <ele>-2.088</ele>
  <time>2026-09-02T22:11:54Z</time>
  <course>184.83</course>
  <speed>0.0</speed>
  <fix>3d</fix>
</trkpt>
<trkpt lat="33.810313" lon="-118.393867">
  <ele>-2.129</ele>
  <time>2026-09-02T22:11:54Z</time>
  <course>184.84</course>
  <speed>0.0</speed>
  <fix>3d</fix>
</trkpt>
<trkpt lat="33.810313" lon="-118.393867">
  <ele>-1.86</ele>
  <time>2026-09-02T22:11:54Z</time>
  <course>0.0</course>
  <speed>0.0</speed>
  <fix>3d</fix>
</trkpt>
<trkpt lat="33.810313" lon="-118.393867">
  <ele>-2.148</ele>
  <time>2026-09-02T22:11:54Z</time>
  <course>184.85</course>
  <speed>0.0</speed>
  <fix>3d</fix>
</trkpt>
<trkpt lat="33.810313" lon="-118.393867">
  <ele>-2.189</ele>
  <time>2026-09-02T22:11:54Z</time>
  <course>184.85</course>
  <speed>0.0</speed>
  <fix>3d</fix>
</trkpt>
<trkpt lat="33.810313" lon="-118.393867">
  <ele>-1.99</ele>
  <time>2026-09-02T22:11:54Z</time>
  <course>0.0</course>
  <speed>0.0</speed>
  <fix>3d</fix>
</trkpt>
<trkpt lat="33.810313" lon="-118.393867">
  <ele>-2.217</ele>
  <time>2026-09-02T22:11:54Z</time>
  <course>184.86</course>
  <speed>0.0</speed>
  <fix>3d</fix>
</trkpt>
<trkpt lat="33.810313" lon="-118.393867">
  <ele>-2.249</ele>
  <time>2026-09-02T22:11:54Z</time>
  <course>184.86</course>
  <speed>0.0</speed>
  <fix>3d</fix>
</trkpt>
<trkpt lat="33.810313" lon="-118.393867">
  <ele>-1.99</ele>
  <time>2026-09-02T22:11:54Z</time>
  <course>0.0</course>
  <speed>0.0</speed>
  <fix>3d</fix>
</trkpt>
<trkpt lat="33.810313" lon="-118.393867">
  <ele>-2.27</ele>
  <time>2026-09-02T22:11:54Z</time>
  <course>184.87</course>
  <speed>0.0</speed>
  <fix>3d</fix>
</trkpt>
<trkpt lat="33.810313" lon="-118.393867">
  <ele>-2.308</ele>
  <time>2026-09-02T22:11:54Z</time>
  <course>184.88</course>
  <speed>0.0</speed>
  <fix>3d</fix>
</trkpt>
<trkpt lat="33.810313" lon="-118.393867">
  <ele>-2.11</ele>
  <time>2026-09-02T22:11:54Z</time>
  <course>0.0</course>
  <speed>0.0</speed>
  <fix>3d</fix>
</trkpt>
<trkpt lat="33.810313" lon="-118.393867">
  <ele>-2.309</ele>
  <time>2026-09-02T22:11:54Z</time>
  <course>184.88</course>
  <speed>0.0</speed>
  <fix>3d</fix>
</trkpt>
<trkpt lat="33.810313" lon="-118.393867">
  <ele>-2.367</ele>
  <time>2026-09-02T22:11:54Z</time>
  <course>184.89</course>
  <speed>0.0</speed>
  <fix>3d</fix>
</trkpt>
<trkpt lat="33.810313" lon="-118.393867">
  <ele>-2.11</ele>
  <time>2026-09-02T22:11:54Z</time>
  <course>0.0</course>
  <speed>0.0</speed>
  <fix>3d</fix>
</trkpt>
<trkpt lat="33.810313" lon="-118.393867">
  <ele>-2.386</ele>
  <time>2026-09-02T22:11:54Z</time>
  <course>184.89</course>
  <speed>0.0</speed>
  <fix>3d</fix>
</trkpt>
<trkpt lat="33.810313" lon="-118.393867">
  <ele>-2.426</ele>
  <time>2026-09-02T22:11:54Z</time>
  <course>184.9</course>
  <speed>0.0</speed>
  <fix>3d</fix>
</trkpt>
<trkpt lat="33.810313" lon="-118.393867">
  <ele>-2.23</ele>
  <time>2026-09-02T22:11:54Z</time>
  <course>0.0</course>
  <speed>0.0</speed>
  <fix>3d</fix>
</trkpt>
<trkpt lat="33.810313" lon="-118.393867">
  <ele>-2.445</ele>
  <time>2026-09-02T22:11:54Z</time>
  <course>184.9</course>
  <speed>0.0</speed>
  <fix>3d</fix>
</trkpt>
<trkpt lat="33.810313" lon="-118.393867">
  <ele>-2.484</ele>
  <time>2026-09-02T22:11:54Z</time>
  <course>184.91</course>
  <speed>0.0</speed>
  <fix>3d</fix>
</trkpt>
<trkpt lat="33.810313" lon="-118.393867">
  <ele>-2.23</ele>
  <time>2026-09-02T22:11:54Z</time>
  <course>0.0</course>
  <speed>0.0</speed>
  <fix>3d</fix>
</trkpt>
<trkpt lat="33.810313" lon="-118.393867">
  <ele>-2.503</ele>
  <time>2026-09-02T22:11:54Z</time>
  <course>184.91</course>
  <speed>0.0</speed>
  <fix>3d</fix>
</trkpt>
<trkpt lat="33.810313" lon="-118.393867">
  <ele>-2.544</ele>
  <time>2026-09-02T22:11:54Z</time>
  <course>184.92</course>
  <speed>0.0</speed>
  <fix>3d</fix>
</trkpt>
<trkpt lat="33.810313" lon="-118.393867">
  <ele>-2.36</ele>
  <time>2026-09-02T22:11:54Z</time>
  <course>0.0</course>
  <speed>0.0</speed>
  <fix>3d</fix>
</trkpt>
<trkpt lat="33.810313" lon="-118.393867">
  <ele>-2.563</ele>
  <time>2026-09-02T22:11:54Z</time>
  <course>184.92</course>
  <speed>0.0</speed>
  <fix>3d</fix>
</trkpt>
<trkpt lat="33.810313" lon="-118.393867">
  <ele>-2.604</ele>
  <time>2026-09-02T22:11:54Z</time>
  <course>184.93</course>
  <speed>0.0</speed>
  <fix>3d</fix>
</trkpt>
<trkpt lat="33.810313" lon="-118.393867">
  <ele>-2.36</ele>
  <time>2026-09-02T22:11:54Z</time>
  <course>0.0</course>
  <speed>0.0</speed>
  <fix>3d</fix>
</trkpt>
<trkpt lat="33.810313" lon="-118.393867">
  <ele>-2.624</ele>
  <time>2026-09-02T22:11:54Z</time>
  <course>184.93</course>
  <speed>0.0</speed>
  <fix>3d</fix>
</trkpt>
<trkpt lat="33.810313" lon="-118.393867">
  <ele>-2.664</ele>
  <time>2026-09-02T22:11:54Z</time>
  <course>184.94</course>
  <speed>0.0</speed>
  <fix>3d</fix>
</trkpt>
<trkpt lat="33.810313" lon="-118.393867">
  <ele>-2.48</ele>
  <time>2026-09-02T22:11:54Z</time>
  <course>0.0</course>
  <speed>0.0</speed>
  <fix>3d</fix>
</trkpt>
<trkpt lat="33.810313" lon="-118.393867">
  <ele>-2.684</ele>
  <time>2026-09-02T22:11:54Z</time>
  <course>184.95</course>
  <speed>0.0</speed>
  <fix>3d</fix>
</trkpt>
<trkpt lat="33.810313" lon="-118.393867">
  <ele>-2.726</ele>
  <time>2026-09-02T22:11:54Z</time>
  <course>184.95</course>
  <speed>0.0</speed>
  <fix>3d</fix>
</trkpt>
<trkpt lat="33.810313" lon="-118.393867">
  <ele>-2.48</ele>
  <time>2026-09-02T22:11:54Z</time>
  <course>0.0</course>
  <speed>0.0</speed>
  <fix>3d</fix>
</trkpt>
<trkpt lat="33.810313" lon="-118.393867">
  <ele>-2.746</ele>
  <time>2026-09-02T22:11:54Z</time>
  <course>184.96</course>
  <speed>0.0</speed>
  <fix>3d</fix>
</trkpt>
<trkpt lat="33.810313" lon="-118.393867">
  <ele>-2.787</ele>
  <time>2026-09-02T22:11:54Z</time>
  <course>184.96</course>
  <speed>0.0</speed>
  <fix>3d</fix>
</trkpt>
<trkpt lat="33.810313" lon="-118.393867">
  <ele>-2.6</ele>
  <time>2026-09-02T22:11:54Z</time>
  <course>0.0</course>
  <speed>0.0</speed>
  <fix>3d</fix>
</trkpt>
<trkpt lat="33.810313" lon="-118.393867">
  <ele>-2.809</ele>
  <time>2026-09-02T22:11:54Z</time>
  <course>184.97</course>
  <speed>0.0</speed>
  <fix>3d</fix>
</trkpt>
<trkpt lat="33.810313" lon="-118.393867">
  <ele>-2.85</ele>
  <time>2026-09-02T22:11:54Z</time>
  <course>184.98</course>
  <speed>0.0</speed>
  <fix>3d</fix>
</trkpt>
<trkpt lat="33.810313" lon="-118.393867">
  <ele>-2.6</ele>
  <time>2026-09-02T22:11:54Z</time>
  <course>0.0</course>
  <speed>0.0</speed>
  <fix>3d</fix>
</trkpt>
<trkpt lat="33.810313" lon="-118.393867">
  <ele>-2.87</ele>
  <time>2026-09-02T22:11:54Z</time>
  <course>184.98</course>
  <speed>0.0</speed>
  <fix>3d</fix>
</trkpt>
<trkpt lat="33.810313" lon="-118.393867">
  <ele>-2.914</ele>
  <time>2026-09-02T22:11:54Z</time>
  <course>184.99</course>
  <speed>0.0</speed>
  <fix>3d</fix>
</trkpt>
<trkpt lat="33.810313" lon="-118.393867">
  <ele>-2.72</ele>
  <time>2026-09-02T22:11:54Z</time>
  <course>0.0</course>
  <speed>0.0</speed>
  <fix>3d</fix>
</trkpt>
<trkpt lat="33.810313" lon="-118.393867">
  <ele>-2.915</ele>
  <time>2026-09-02T22:11:54Z</time>
  <course>184.99</course>
  <speed>0.0</speed>
  <fix>3d</fix>
</trkpt>
<trkpt lat="33.810313" lon="-118.393867">
  <ele>-2.977</ele>
  <time>2026-09-02T22:11:54Z</time>
  <course>185.0</course>
  <speed>0.0</speed>
  <fix>3d</fix>
</trkpt>
<trkpt lat="33.810313" lon="-118.393867">
  <ele>-2.72</ele>
  <time>2026-09-02T22:11:54Z</time>
  <course>0.0</course>
  <speed>0.0</speed>
  <fix>3d</fix>
</trkpt>
<trkpt lat="33.810313" lon="-118.393867">
  <ele>-2.998</ele>
  <time>2026-09-02T22:11:54Z</time>
  <course>185.0</course>
  <speed>0.01</speed>
  <fix>3d</fix>
</trkpt>
<trkpt lat="33.810313" lon="-118.393867">
  <ele>-3.04</ele>
  <time>2026-09-02T22:11:54Z</time>
  <course>185.01</course>
  <speed>0.01</speed>
  <fix>3d</fix>
</trkpt>
<trkpt lat="33.810313" lon="-118.393867">
  <ele>-2.84</ele>
  <time>2026-09-02T22:11:54Z</time>
  <course>0.0</course>
  <speed>0.0</speed>
  <fix>3d</fix>
</trkpt>
<trkpt lat="33.810313" lon="-118.393867">
  <ele>-3.062</ele>
  <time>2026-09-02T22:11:54Z</time>
  <course>185.02</course>
  <speed>0.01</speed>
  <fix>3d</fix>
</trkpt>
<trkpt lat="33.810313" lon="-118.393867">
  <ele>-3.104</ele>
  <time>2026-09-02T22:11:54Z</time>
  <course>185.02</course>
  <speed>0.01</speed>
  <fix>3d</fix>
</trkpt>
<trkpt lat="33.810313" lon="-118.393867">
  <ele>-2.84</ele>
  <time>2026-09-02T22:11:54Z</time>
  <course>0.0</course>
  <speed>0.0</speed>
  <fix>3d</fix>
</trkpt>
<trkpt lat="33.810313" lon="-118.393867">
  <ele>-3.125</ele>
  <time>2026-09-02T22:11:54Z</time>
  <course>185.03</course>
  <speed>0.01</speed>
  <fix>3d</fix>
</trkpt>
<trkpt lat="33.810313" lon="-118.393867">
  <ele>-3.168</ele>
  <time>2026-09-02T22:11:54Z</time>
  <course>185.03</course>
  <speed>0.01</speed>
  <fix>3d</fix>
</trkpt>
<trkpt lat="33.810313" lon="-118.393867">
  <ele>-2.96</ele>
  <time>2026-09-02T22:11:54Z</time>
  <course>0.0</course>
  <speed>0.0</speed>
  <fix>3d</fix>
</trkpt>
<trkpt lat="33.810313" lon="-118.393867">
  <ele>-3.219</ele>
  <time>2026-09-02T22:11:54Z</time>
  <course>185.05</course>
  <speed>0.01</speed>
  <fix>3d</fix>
</trkpt>
<trkpt lat="33.810313" lon="-118.393867">
  <ele>-2.96</ele>
  <time>2026-09-02T22:11:54Z</time>
  <course>0.0</course>
  <speed>0.0</speed>
  <fix>3d</fix>
</trkpt>
<trkpt lat="33.810313" lon="-118.393867">
  <ele>-3.257</ele>
  <time>2026-09-02T22:11:54Z</time>
  <course>185.06</course>
  <speed>0.01414213562373095</speed>
  <fix>3d</fix>
</trkpt>
<trkpt lat="33.810313" lon="-118.393867">
  <ele>-3.07</ele>
  <time>2026-09-02T22:11:54Z</time>
  <course>0.0</course>
  <speed>0.0</speed>
  <fix>3d</fix>
</trkpt>
<trkpt lat="33.810313" lon="-118.393867">
  <ele>-3.286</ele>
  <time>2026-09-02T22:11:54Z</time>
  <course>185.07</course>
  <speed>0.01414213562373095</speed>
  <fix>3d</fix>
</trkpt>
<trkpt lat="33.810313" lon="-118.393867">
  <ele>-3.07</ele>
  <time>2026-09-02T22:11:54Z</time>
  <course>0.0</course>
  <speed>0.0</speed>
  <fix>3d</fix>
</trkpt>
<trkpt lat="33.810313" lon="-118.393867">
  <ele>-3.309</ele>
  <time>2026-09-02T22:11:54Z</time>
  <course>185.08</course>
  <speed>0.01414213562373095</speed>
  <fix>3d</fix>
</trkpt>
<trkpt lat="33.810313" lon="-118.393867">
  <ele>-3.15</ele>
  <time>2026-09-02T22:11:54Z</time>
  <course>0.0</course>
  <speed>0.0</speed>
  <fix>3d</fix>
</trkpt>
<trkpt lat="33.810313" lon="-118.393867">
  <ele>-3.328</ele>
  <time>2026-09-02T22:11:54Z</time>
  <course>185.08</course>
  <speed>0.01414213562373095</speed>
  <fix>3d</fix>
</trkpt>
<trkpt lat="33.810313" lon="-118.393867">
  <ele>-3.15</ele>
  <time>2026-09-02T22:11:54Z</time>
  <course>0.0</course>
  <speed>0.0</speed>
  <fix>3d</fix>
</trkpt>
<trkpt lat="33.810313" lon="-118.393867">
  <ele>-3.343</ele>
  <time>2026-09-02T22:11:54Z</time>
  <course>185.07</course>
  <speed>0.01414213562373095</speed>
  <fix>3d</fix>
</trkpt>
<trkpt lat="33.810313" lon="-118.393867">
  <ele>-3.2</ele>
  <time>2026-09-02T22:11:54Z</time>
  <course>0.0</course>
  <speed>0.0</speed>
  <fix>3d</fix>
</trkpt>
<trkpt lat="33.810313" lon="-118.393867">
  <ele>-3.356</ele>
  <time>2026-09-02T22:11:54Z</time>
  <course>185.05</course>
  <speed>0.01414213562373095</speed>
  <fix>3d</fix>
</trkpt>
<trkpt lat="33.810313" lon="-118.393867">
  <ele>-3.2</ele>
  <time>2026-09-02T22:11:54Z</time>
  <course>0.0</course>
  <speed>0.0</speed>
  <fix>3d</fix>
</trkpt>
<trkpt lat="33.810313" lon="-118.393867">
  <ele>-3.366</ele>
  <time>2026-09-02T22:11:54Z</time>
  <course>185.04</course>
  <speed>0.01414213562373095</speed>
  <fix>3d</fix>
</trkpt>
<trkpt lat="33.810313" lon="-118.393867">
  <ele>-3.23</ele>
  <time>2026-09-02T22:11:54Z</time>
  <course>0.0</course>
  <speed>0.0</speed>
  <fix>3d</fix>
</trkpt>
<trkpt lat="33.810313" lon="-118.393867">
  <ele>-3.374</ele>
  <time>2026-09-02T22:11:54Z</time>
  <course>185.02</course>
  <speed>0.01414213562373095</speed>
  <fix>3d</fix>
</trkpt>
<trkpt lat="33.810313" lon="-118.393867">
  <ele>-3.23</ele>
  <time>2026-09-02T22:11:54Z</time>
  <course>0.0</course>
  <speed>0.0</speed>
  <fix>3d</fix>
</trkpt>
<trkpt lat="33.810313" lon="-118.393867">
  <ele>-3.381</ele>
  <time>2026-09-02T22:11:54Z</time>
  <course>185.02</course>
  <speed>0.01414213562373095</speed>
  <fix>3d</fix>
</trkpt>
<trkpt lat="33.810313" lon="-118.393867">
  <ele>-3.26</ele>
  <time>2026-09-02T22:11:54Z</time>
  <course>0.0</course>
  <speed>0.0</speed>
  <fix>3d</fix>
</trkpt>
<trkpt lat="33.810313" lon="-118.393867">
  <ele>-3.386</ele>
  <time>2026-09-02T22:11:54Z</time>
  <course>185.01</course>
  <speed>0.01414213562373095</speed>
  <fix>3d</fix>
</trkpt>
<trkpt lat="33.810313" lon="-118.393867">
  <ele>-3.26</ele>
  <time>2026-09-02T22:11:54Z</time>
  <course>0.0</course>
  <speed>0.0</speed>
  <fix>3d</fix>
</trkpt>
<trkpt lat="33.810313" lon="-118.393867">
  <ele>-3.391</ele>
  <time>2026-09-02T22:11:54Z</time>
  <course>185.01</course>
  <speed>0.01414213562373095</speed>
  <fix>3d</fix>
</trkpt>
<trkpt lat="33.810313" lon="-118.393867">
  <ele>-3.28</ele>
  <time>2026-09-02T22:11:54Z</time>
  <course>0.0</course>
  <speed>0.0</speed>
  <fix>3d</fix>
</trkpt>
<trkpt lat="33.810313" lon="-118.393867">
  <ele>-3.395</ele>
  <time>2026-09-02T22:11:54Z</time>
  <course>185.01</course>
  <speed>0.01414213562373095</speed>
  <fix>3d</fix>
</trkpt>
<trkpt lat="33.810313" lon="-118.393867">
  <ele>-3.28</ele>
  <time>2026-09-02T22:11:54Z</time>
  <course>0.0</course>
  <speed>0.0</speed>
  <fix>3d</fix>
</trkpt>
<trkpt lat="33.810313" lon="-118.393867">
  <ele>-3.398</ele>
  <time>2026-09-02T22:11:54Z</time>
  <course>185.01</course>
  <speed>0.01414213562373095</speed>
  <fix>3d</fix>
</trkpt>
<trkpt lat="33.810313" lon="-118.393867">
  <ele>-3.29</ele>
  <time>2026-09-02T22:11:54Z</time>
  <course>0.0</course>
  <speed>0.0</speed>
  <fix>3d</fix>
</trkpt>
<trkpt lat="33.810313" lon="-118.393867">
  <ele>-3.401</ele>
  <time>2026-09-02T22:11:54Z</time>
  <course>185.01</course>
  <speed>0.01414213562373095</speed>
  <fix>3d</fix>
</trkpt>
<trkpt lat="33.810313" lon="-118.393867">
  <ele>-3.29</ele>
  <time>2026-09-02T22:11:54Z</time>
  <course>0.0</course>
  <speed>0.0</speed>
  <fix>3d</fix>
</trkpt>
<trkpt lat="33.810313" lon="-118.393867">
  <ele>-3.404</ele>
  <time>2026-09-02T22:11:54Z</time>
  <course>185.01</course>
  <speed>0.01414213562373095</speed>
  <fix>3d</fix>
</trkpt>
<trkpt lat="33.810313" lon="-118.393867">
  <ele>-3.3</ele>
  <time>2026-09-02T22:11:54Z</time>
  <course>0.0</course>
  <speed>0.0</speed>
  <fix>3d</fix>
</trkpt>
<trkpt lat="33.810313" lon="-118.393867">
  <ele>-3.405</ele>
  <time>2026-09-02T22:11:54Z</time>
  <course>185.01</course>
  <speed>0.01414213562373095</speed>
  <fix>3d</fix>
</trkpt>
<trkpt lat="33.810313" lon="-118.393867">
  <ele>-3.3</ele>
  <time>2026-09-02T22:11:54Z</time>
  <course>0.0</course>
  <speed>0.0</speed>
  <fix>3d</fix>
</trkpt>
<trkpt lat="33.810313" lon="-118.393867">
  <ele>-3.405</ele>
  <time>2026-09-02T22:11:54Z</time>
  <course>185.02</course>
  <speed>0.01414213562373095</speed>
  <fix>3d</fix>
</trkpt>
<trkpt lat="33.810313" lon="-118.393867">
  <ele>-3.31</ele>
  <time>2026-09-02T22:11:54Z</time>
  <course>0.0</course>
  <speed>0.0</speed>
  <fix>3d</fix>
</trkpt>
<trkpt lat="33.810313" lon="-118.393867">
  <ele>-3.405</ele>
  <time>2026-09-02T22:11:54Z</time>
  <course>185.02</course>
  <speed>0.01414213562373095</speed>
  <fix>3d</fix>
</trkpt>
<trkpt lat="33.810313" lon="-118.393867">
  <ele>-3.31</ele>
  <time>2026-09-02T22:11:54Z</time>
  <course>0.0</course>
  <speed>0.0</speed>
  <fix>3d</fix>
</trkpt>
<trkpt lat="33.810313" lon="-118.393867">
  <ele>-3.404</ele>
  <time>2026-09-02T22:11:54Z</time>
  <course>185.03</course>
  <speed>0.01414213562373095</speed>
  <fix>3d</fix>
</trkpt>
<trkpt lat="33.810313" lon="-118.393867">
  <ele>-3.32</ele>
  <time>2026-09-02T22:11:54Z</time>
  <course>0.0</course>
  <speed>0.0</speed>
  <fix>3d</fix>
</trkpt>
<trkpt lat="33.810313" lon="-118.393867">
  <ele>-3.404</ele>
  <time>2026-09-02T22:11:54Z</time>
  <course>185.03</course>
  <speed>0.01414213562373095</speed>
  <fix>3d</fix>
</trkpt>
<trkpt lat="33.810313" lon="-118.393867">
  <ele>-3.32</ele>
  <time>2026-09-02T22:11:54Z</time>
  <course>0.0</course>
  <speed>0.0</speed>
  <fix>3d</fix>
</trkpt>
<trkpt lat="33.810313" lon="-118.393867">
  <ele>-3.402</ele>
  <time>2026-09-02T22:11:54Z</time>
  <course>185.03</course>
  <speed>0.01414213562373095</speed>
  <fix>3d</fix>
</trkpt>
<trkpt lat="33.810313" lon="-118.393867">
  <ele>-3.32</ele>
  <time>2026-09-02T22:11:54Z</time>
  <course>0.0</course>
  <speed>0.0</speed>
  <fix>3d</fix>
</trkpt>
<trkpt lat="33.810313" lon="-118.3938671">
  <ele>-3.401</ele>
  <time>2026-09-02T22:11:54Z</time>
  <course>185.04</course>
  <speed>0.01414213562373095</speed>
  <fix>3d</fix>
</trkpt>
<trkpt lat="33.810313" lon="-118.393867">
  <ele>-3.32</ele>
  <time>2026-09-02T22:11:54Z</time>
  <course>0.0</course>
  <speed>0.0</speed>
  <fix>3d</fix>
</trkpt>
<trkpt lat="33.8103131" lon="-118.3938671">
  <ele>-3.399</ele>
  <time>2026-09-02T22:11:54Z</time>
  <course>185.05</course>
  <speed>0.01414213562373095</speed>
  <fix>3d</fix>
</trkpt>
<trkpt lat="33.810313" lon="-118.393867">
  <ele>-3.32</ele>
  <time>2026-09-02T22:11:54Z</time>
  <course>0.0</course>
  <speed>0.0</speed>
  <fix>3d</fix>
</trkpt>
<trkpt lat="33.8103131" lon="-118.3938671">
  <ele>-3.397</ele>
  <time>2026-09-02T22:11:54Z</time>
  <course>185.05</course>
  <speed>0.01414213562373095</speed>
  <fix>3d</fix>
</trkpt>
<trkpt lat="33.810313" lon="-118.393867">
  <ele>-3.32</ele>
  <time>2026-09-02T22:11:54Z</time>
  <course>0.0</course>
  <speed>0.0</speed>
  <fix>3d</fix>
</trkpt>
<trkpt lat="33.8103131" lon="-118.3938671">
  <ele>-3.394</ele>
  <time>2026-09-02T22:11:54Z</time>
  <course>185.06</course>
  <speed>0.01414213562373095</speed>
  <fix>3d</fix>
</trkpt>
<trkpt lat="33.810313" lon="-118.393867">
  <ele>-3.32</ele>
  <time>2026-09-02T22:11:54Z</time>
  <course>0.0</course>
  <speed>0.0</speed>
  <fix>3d</fix>
</trkpt>
<trkpt lat="33.8103131" lon="-118.3938671">
  <ele>-3.391</ele>
  <time>2026-09-02T22:11:54Z</time>
  <course>185.06</course>
  <speed>0.01414213562373095</speed>
  <fix>3d</fix>
</trkpt>
<trkpt lat="33.810313" lon="-118.393867">
  <ele>-3.32</ele>
  <time>2026-09-02T22:11:54Z</time>
  <course>0.0</course>
  <speed>0.0</speed>
  <fix>3d</fix>
</trkpt>
<trkpt lat="33.8103131" lon="-118.3938671">
  <ele>-3.388</ele>
  <time>2026-09-02T22:11:54Z</time>
  <course>185.07</course>
  <speed>0.01414213562373095</speed>
  <fix>3d</fix>
</trkpt>
<trkpt lat="33.810313" lon="-118.393867">
  <ele>-3.32</ele>
  <time>2026-09-02T22:11:54Z</time>
  <course>0.0</course>
  <speed>0.0</speed>
  <fix>3d</fix>
</trkpt>
<trkpt lat="33.8103131" lon="-118.3938671">
  <ele>-3.386</ele>
  <time>2026-09-02T22:11:54Z</time>
  <course>185.08</course>
  <speed>0.01414213562373095</speed>
  <fix>3d</fix>
</trkpt>
<trkpt lat="33.810313" lon="-118.393867">
  <ele>-3.32</ele>
  <time>2026-09-02T22:11:54Z</time>
  <course>0.0</course>
  <speed>0.0</speed>
  <fix>3d</fix>
</trkpt>
<trkpt lat="33.8103131" lon="-118.3938671">
  <ele>-3.384</ele>
  <time>2026-09-02T22:11:54Z</time>
  <course>185.08</course>
  <speed>0.01414213562373095</speed>
  <fix>3d</fix>
</trkpt>
<trkpt lat="33.810313" lon="-118.393867">
  <ele>-3.31</ele>
  <time>2026-09-02T22:11:54Z</time>
  <course>0.0</course>
  <speed>0.0</speed>
  <fix>3d</fix>
</trkpt>
<trkpt lat="33.8103131" lon="-118.3938671">
  <ele>-3.381</ele>
  <time>2026-09-02T22:11:54Z</time>
  <course>185.09</course>
  <speed>0.01414213562373095</speed>
  <fix>3d</fix>
</trkpt>
<trkpt lat="33.810313" lon="-118.393867">
  <ele>-3.31</ele>
  <time>2026-09-02T22:11:54Z</time>
  <course>0.0</course>
  <speed>0.0</speed>
  <fix>3d</fix>
</trkpt>
<trkpt lat="33.4368002" lon="-117.0859339">
  <ele>-0.11</ele>
  <time>2026-09-02T22:11:55Z</time>
  <course>0.0</course>
  <speed>0.0</speed>
  <fix>3d</fix>
</trkpt>
<trkpt lat="33.4368002" lon="-117.0859339">
  <ele>-0.11</ele>
  <time>2026-09-02T22:11:55Z</time>
  <course>0.0</course>
  <speed>0.0</speed>
  <fix>3d</fix>
</trkpt>
<trkpt lat="33.810313" lon="-118.393867">
  <ele>0.0</ele>
  <time>2026-09-02T22:11:55Z</time>
  <course>173.5</course>
  <speed>0.0</speed>
  <fix>3d</fix>
</trkpt>
<trkpt lat="33.810313" lon="-118.393867">
  <ele>-0.11</ele>
  <time>2026-09-02T22:11:55Z</time>
  <course>0.0</course>
  <speed>0.0</speed>
  <fix>3d</fix>
</trkpt>
<trkpt lat="33.810313" lon="-118.393867">
  <ele>0.0</ele>
  <time>2026-09-02T22:11:55Z</time>
  <course>173.53</course>
  <speed>0.0</speed>
  <fix>3d</fix>
</trkpt>
<trkpt lat="33.810313" lon="-118.393867">
  <ele>-0.11</ele>
  <time>2026-09-02T22:11:55Z</time>
  <course>0.0</course>
  <speed>0.0</speed>
  <fix>3d</fix>
</trkpt>
<trkpt lat="33.810313" lon="-118.393867">
  <ele>0.0</ele>
  <time>2026-09-02T22:11:55Z</time>
  <course>173.62</course>
  <speed>0.0</speed>
  <fix>3d</fix>
</trkpt>
<trkpt lat="33.810313" lon="-118.393867">
  <ele>-0.11</ele>
  <time>2026-09-02T22:11:55Z</time>
  <course>0.0</course>
  <speed>0.0</speed>
  <fix>3d</fix>
</trkpt>
<trkpt lat="33.810313" lon="-118.393867">
  <ele>0.0</ele>
  <time>2026-09-02T22:11:55Z</time>
  <course>173.76</course>
  <speed>0.0</speed>
  <fix>3d</fix>
</trkpt>
<trkpt lat="33.810313" lon="-118.393867">
  <ele>-0.11</ele>
  <time>2026-09-02T22:11:55Z</time>
  <course>0.0</course>
  <speed>0.0</speed>
  <fix>3d</fix>
</trkpt>
<trkpt lat="33.810313" lon="-118.393867">
  <ele>0.0</ele>
  <time>2026-09-02T22:11:55Z</time>
  <course>173.9</course>
  <speed>0.0</speed>
  <fix>3d</fix>
</trkpt>
<trkpt lat="33.810313" lon="-118.393867">
  <ele>-0.12</ele>
  <time>2026-09-02T22:11:55Z</time>
  <course>0.0</course>
  <speed>0.0</speed>
  <fix>3d</fix>
</trkpt>
<trkpt lat="33.810313" lon="-118.393867">
  <ele>0.0</ele>
  <time>2026-09-02T22:11:55Z</time>
  <course>174.03</course>
  <speed>0.0</speed>
  <fix>3d</fix>
</trkpt>
<trkpt lat="33.810313" lon="-118.393867">
  <ele>-0.12</ele>
  <time>2026-09-02T22:11:55Z</time>
  <course>0.0</course>
  <speed>0.0</speed>
  <fix>3d</fix>
</trkpt>
<trkpt lat="33.810313" lon="-118.393867">
  <ele>0.0</ele>
  <time>2026-09-02T22:11:55Z</time>
  <course>174.15</course>
  <speed>0.0</speed>
  <fix>3d</fix>
</trkpt>
<trkpt lat="33.810313" lon="-118.393867">
  <ele>-0.13</ele>
  <time>2026-09-02T22:11:55Z</time>
  <course>0.0</course>
  <speed>0.0</speed>
  <fix>3d</fix>
</trkpt>
<trkpt lat="33.810313" lon="-118.393867">
  <ele>0.0</ele>
  <time>2026-09-02T22:11:55Z</time>
  <course>174.28</course>
  <speed>0.0</speed>
  <fix>3d</fix>
</trkpt>
<trkpt lat="33.810313" lon="-118.393867">
  <ele>-0.13</ele>
  <time>2026-09-02T22:11:55Z</time>
  <course>0.0</course>
  <speed>0.0</speed>
  <fix>3d</fix>
</trkpt>
<trkpt lat="33.810313" lon="-118.393867">
  <ele>0.0</ele>
  <time>2026-09-02T22:11:55Z</time>
  <course>174.39</course>
  <speed>0.0</speed>
  <fix>3d</fix>
</trkpt>
<trkpt lat="33.810313" lon="-118.393867">
  <ele>-0.13</ele>
  <time>2026-09-02T22:11:55Z</time>
  <course>0.0</course>
  <speed>0.0</speed>
  <fix>3d</fix>
</trkpt>
<trkpt lat="33.810313" lon="-118.393867">
  <ele>0.0</ele>
  <time>2026-09-02T22:11:55Z</time>
  <course>174.51</course>
  <speed>0.0</speed>
  <fix>3d</fix>
</trkpt>
<trkpt lat="33.810313" lon="-118.393867">
  <ele>-0.13</ele>
  <time>2026-09-02T22:11:55Z</time>
  <course>0.0</course>
  <speed>0.0</speed>
  <fix>3d</fix>
</trkpt>
<trkpt lat="33.810313" lon="-118.393867">
  <ele>0.0</ele>
  <time>2026-09-02T22:11:55Z</time>
  <course>174.62</course>
  <speed>0.0</speed>
  <fix>3d</fix>
</trkpt>
<trkpt lat="33.810313" lon="-118.393867">
  <ele>-0.14</ele>
  <time>2026-09-02T22:11:55Z</time>
  <course>0.0</course>
  <speed>0.0</speed>
  <fix>3d</fix>
</trkpt>
<trkpt lat="33.810313" lon="-118.393867">
  <ele>0.0</ele>
  <time>2026-09-02T22:11:55Z</time>
  <course>174.73</course>
  <speed>0.0</speed>
  <fix>3d</fix>
</trkpt>
<trkpt lat="33.810313" lon="-118.393867">
  <ele>-0.14</ele>
  <time>2026-09-02T22:11:55Z</time>
  <course>0.0</course>
  <speed>0.0</speed>
  <fix>3d</fix>
</trkpt>
<trkpt lat="33.810313" lon="-118.393867">
  <ele>0.0</ele>
  <time>2026-09-02T22:11:55Z</time>
  <course>174.83</course>
  <speed>0.0</speed>
  <fix>3d</fix>
</trkpt>
<trkpt lat="33.810313" lon="-118.393867">
  <ele>-0.14</ele>
  <time>2026-09-02T22:11:55Z</time>
  <course>0.0</course>
  <speed>0.0</speed>
  <fix>3d</fix>
</trkpt>
<trkpt lat="33.810313" lon="-118.393867">
  <ele>0.0</ele>
  <time>2026-09-02T22:11:55Z</time>
  <course>174.94</course>
  <speed>0.0</speed>
  <fix>3d</fix>
</trkpt>
<trkpt lat="33.810313" lon="-118.393867">
  <ele>-0.14</ele>
  <time>2026-09-02T22:11:55Z</time>
  <course>0.0</course>
  <speed>0.0</speed>
  <fix>3d</fix>
</trkpt>
<trkpt lat="33.810313" lon="-118.393867">
  <ele>0.0</ele>
  <time>2026-09-02T22:11:55Z</time>
  <course>175.04</course>
  <speed>0.0</speed>
  <fix>3d</fix>
</trkpt>
<trkpt lat="33.810313" lon="-118.393867">
  <ele>-0.14</ele>
  <time>2026-09-02T22:11:55Z</time>
  <course>0.0</course>
  <speed>0.0</speed>
  <fix>3d</fix>
</trkpt>
<trkpt lat="33.810313" lon="-118.393867">
  <ele>0.0</ele>
  <time>2026-09-02T22:11:55Z</time>
  <course>175.14</course>
  <speed>0.0</speed>
  <fix>3d</fix>
</trkpt>
<trkpt lat="33.810313" lon="-118.393867">
  <ele>-0.14</ele>
  <time>2026-09-02T22:11:55Z</time>
  <course>0.0</course>
  <speed>0.0</speed>
  <fix>3d</fix>
</trkpt>
<trkpt lat="33.810313" lon="-118.393867">
  <ele>0.0</ele>
  <time>2026-09-02T22:11:55Z</time>
  <course>175.23</course>
  <speed>0.0</speed>
  <fix>3d</fix>
</trkpt>
<trkpt lat="33.810313" lon="-118.393867">
  <ele>-0.14</ele>
  <time>2026-09-02T22:11:55Z</time>
  <course>0.0</course>
  <speed>0.0</speed>
  <fix>3d</fix>
</trkpt>
<trkpt lat="33.810313" lon="-118.393867">
  <ele>0.0</ele>
  <time>2026-09-02T22:11:55Z</time>
  <course>175.33</course>
  <speed>0.0</speed>
  <fix>3d</fix>
</trkpt>
<trkpt lat="33.810313" lon="-118.393867">
  <ele>-0.14</ele>
  <time>2026-09-02T22:11:55Z</time>
  <course>0.0</course>
  <speed>0.0</speed>
  <fix>3d</fix>
</trkpt>
<trkpt lat="33.810313" lon="-118.393867">
  <ele>0.0</ele>
  <time>2026-09-02T22:11:55Z</time>
  <course>175.42</course>
  <speed>0.0</speed>
  <fix>3d</fix>
</trkpt>
<trkpt lat="33.810313" lon="-118.393867">
  <ele>-0.13</ele>
  <time>2026-09-02T22:11:55Z</time>
  <course>0.0</course>
  <speed>0.0</speed>
  <fix>3d</fix>
</trkpt>
<trkpt lat="33.810313" lon="-118.393867">
  <ele>0.0</ele>
  <time>2026-09-02T22:11:55Z</time>
  <course>175.51</course>
  <speed>0.0</speed>
  <fix>3d</fix>
</trkpt>
<trkpt lat="33.810313" lon="-118.393867">
  <ele>-0.13</ele>
  <time>2026-09-02T22:11:55Z</time>
  <course>0.0</course>
  <speed>0.0</speed>
  <fix>3d</fix>
</trkpt>
<trkpt lat="33.810313" lon="-118.393867">
  <ele>0.0</ele>
  <time>2026-09-02T22:11:55Z</time>
  <course>175.6</course>
  <speed>0.0</speed>
  <fix>3d</fix>
</trkpt>
<trkpt lat="33.810313" lon="-118.393867">
  <ele>-0.12</ele>
  <time>2026-09-02T22:11:55Z</time>
  <course>0.0</course>
  <speed>0.0</speed>
  <fix>3d</fix>
</trkpt>
<trkpt lat="33.810313" lon="-118.393867">
  <ele>0.0</ele>
  <time>2026-09-02T22:11:55Z</time>
  <course>175.69</course>
  <speed>0.0</speed>
  <fix>3d</fix>
</trkpt>
<trkpt lat="33.810313" lon="-118.393867">
  <ele>-0.12</ele>
  <time>2026-09-02T22:11:55Z</time>
  <course>0.0</course>
  <speed>0.0</speed>
  <fix>3d</fix>
</trkpt>
<trkpt lat="33.810313" lon="-118.393867">
  <ele>0.0</ele>
  <time>2026-09-02T22:11:55Z</time>
  <course>175.77</course>
  <speed>0.0</speed>
  <fix>3d</fix>
</trkpt>
<trkpt lat="33.810313" lon="-118.393867">
  <ele>-0.12</ele>
  <time>2026-09-02T22:11:55Z</time>
  <course>0.0</course>
  <speed>0.0</speed>
  <fix>3d</fix>
</trkpt>
<trkpt lat="33.810313" lon="-118.393867">
  <ele>0.0</ele>
  <time>2026-09-02T22:11:55Z</time>
  <course>175.86</course>
  <speed>0.0</speed>
  <fix>3d</fix>
</trkpt>
<trkpt lat="33.810313" lon="-118.393867">
  <ele>-0.12</ele>
  <time>2026-09-02T22:11:55Z</time>
  <course>0.0</course>
  <speed>0.0</speed>
  <fix>3d</fix>
</trkpt>
<trkpt lat="33.810313" lon="-118.393867">
  <ele>0.0</ele>
  <time>2026-09-02T22:11:55Z</time>
  <course>175.94</course>
  <speed>0.0</speed>
  <fix>3d</fix>
</trkpt>
<trkpt lat="33.810313" lon="-118.393867">
  <ele>-0.11</ele>
  <time>2026-09-02T22:11:55Z</time>
  <course>0.0</course>
  <speed>0.0</speed>
  <fix>3d</fix>
</trkpt>
<trkpt lat="33.810313" lon="-118.393867">
  <ele>0.0</ele>
  <time>2026-09-02T22:11:55Z</time>
  <course>176.02</course>
  <speed>0.0</speed>
  <fix>3d</fix>
</trkpt>
<trkpt lat="33.810313" lon="-118.393867">
  <ele>-0.11</ele>
  <time>2026-09-02T22:11:55Z</time>
  <course>0.0</course>
  <speed>0.0</speed>
  <fix>3d</fix>
</trkpt>
<trkpt lat="33.810313" lon="-118.393867">
  <ele>0.0</ele>
  <time>2026-09-02T22:11:55Z</time>
  <course>176.09</course>
  <speed>0.0</speed>
  <fix>3d</fix>
</trkpt>
<trkpt lat="33.810313" lon="-118.393867">
  <ele>-0.11</ele>
  <time>2026-09-02T22:11:55Z</time>
  <course>0.0</course>
  <speed>0.0</speed>
  <fix>3d</fix>
</trkpt>
<trkpt lat="33.810313" lon="-118.393867">
  <ele>0.0</ele>
  <time>2026-09-02T22:11:55Z</time>
  <course>176.17</course>
  <speed>0.0</speed>
  <fix>3d</fix>
</trkpt>
<trkpt lat="33.810313" lon="-118.393867">
  <ele>-0.11</ele>
  <time>2026-09-02T22:11:55Z</time>
  <course>0.0</course>
  <speed>0.0</speed>
  <fix>3d</fix>
</trkpt>
<trkpt lat="33.810313" lon="-118.393867">
  <ele>0.0</ele>
  <time>2026-09-02T22:11:55Z</time>
  <course>176.25</course>
  <speed>0.0</speed>
  <fix>3d</fix>
</trkpt>
<trkpt lat="33.810313" lon="-118.393867">
  <ele>-0.12</ele>
  <time>2026-09-02T22:11:55Z</time>
  <course>0.0</course>
  <speed>0.0</speed>
  <fix>3d</fix>
</trkpt>
<trkpt lat="33.810313" lon="-118.393867">
  <ele>0.0</ele>
  <time>2026-09-02T22:11:55Z</time>
  <course>176.32</course>
  <speed>0.0</speed>
  <fix>3d</fix>
</trkpt>
<trkpt lat="33.810313" lon="-118.393867">
  <ele>-0.12</ele>
  <time>2026-09-02T22:11:55Z</time>
  <course>0.0</course>
  <speed>0.0</speed>
  <fix>3d</fix>
</trkpt>
<trkpt lat="33.810313" lon="-118.393867">
  <ele>0.0</ele>
  <time>2026-09-02T22:11:55Z</time>
  <course>176.39</course>
  <speed>0.0</speed>
  <fix>3d</fix>
</trkpt>
<trkpt lat="33.810313" lon="-118.393867">
  <ele>-0.13</ele>
  <time>2026-09-02T22:11:55Z</time>
  <course>0.0</course>
  <speed>0.0</speed>
  <fix>3d</fix>
</trkpt>
<trkpt lat="33.810313" lon="-118.393867">
  <ele>0.0</ele>
  <time>2026-09-02T22:11:55Z</time>
  <course>176.46</course>
  <speed>0.0</speed>
  <fix>3d</fix>
</trkpt>
<trkpt lat="33.810313" lon="-118.393867">
  <ele>-0.13</ele>
  <time>2026-09-02T22:11:55Z</time>
  <course>0.0</course>
  <speed>0.0</speed>
  <fix>3d</fix>
</trkpt>
<trkpt lat="33.810313" lon="-118.393867">
  <ele>0.0</ele>
  <time>2026-09-02T22:11:55Z</time>
  <course>176.53</course>
  <speed>0.0</speed>
  <fix>3d</fix>
</trkpt>
<trkpt lat="33.810313" lon="-118.393867">
  <ele>-0.13</ele>
  <time>2026-09-02T22:11:55Z</time>
  <course>0.0</course>
  <speed>0.0</speed>
  <fix>3d</fix>
</trkpt>
<trkpt lat="33.810313" lon="-118.393867">
  <ele>0.0</ele>
  <time>2026-09-02T22:11:55Z</time>
  <course>176.6</course>
  <speed>0.0</speed>
  <fix>3d</fix>
</trkpt>
<trkpt lat="33.810313" lon="-118.393867">
  <ele>-0.13</ele>
  <time>2026-09-02T22:11:55Z</time>
  <course>0.0</course>
  <speed>0.0</speed>
  <fix>3d</fix>
</trkpt>
<trkpt lat="33.810313" lon="-118.393867">
  <ele>0.0</ele>
  <time>2026-09-02T22:11:55Z</time>
  <course>176.67</course>
  <speed>0.0</speed>
  <fix>3d</fix>
</trkpt>
<trkpt lat="33.810313" lon="-118.393867">
  <ele>-0.14</ele>
  <time>2026-09-02T22:11:55Z</time>
  <course>0.0</course>
  <speed>0.0</speed>
  <fix>3d</fix>
</trkpt>
<trkpt lat="33.810313" lon="-118.393867">
  <ele>0.0</ele>
  <time>2026-09-02T22:11:55Z</time>
  <course>176.73</course>
  <speed>0.0</speed>
  <fix>3d</fix>
</trkpt>
<trkpt lat="33.810313" lon="-118.393867">
  <ele>-0.14</ele>
  <time>2026-09-02T22:11:55Z</time>
  <course>0.0</course>
  <speed>0.0</speed>
  <fix>3d</fix>
</trkpt>
<trkpt lat="33.810313" lon="-118.393867">
  <ele>0.0</ele>
  <time>2026-09-02T22:11:55Z</time>
  <course>176.8</course>
  <speed>0.0</speed>
  <fix>3d</fix>
</trkpt>
<trkpt lat="33.810313" lon="-118.393867">
  <ele>-0.13</ele>
  <time>2026-09-02T22:11:55Z</time>
  <course>0.0</course>
  <speed>0.0</speed>
  <fix>3d</fix>
</trkpt>
<trkpt lat="33.810313" lon="-118.393867">
  <ele>0.0</ele>
  <time>2026-09-02T22:11:55Z</time>
  <course>176.86</course>
  <speed>0.0</speed>
  <fix>3d</fix>
</trkpt>
<trkpt lat="33.810313" lon="-118.393867">
  <ele>-0.13</ele>
  <time>2026-09-02T22:11:55Z</time>
  <course>0.0</course>
  <speed>0.0</speed>
  <fix>3d</fix>
</trkpt>
<trkpt lat="33.810313" lon="-118.393867">
  <ele>0.0</ele>
  <time>2026-09-02T22:11:55Z</time>
  <course>176.93</course>
  <speed>0.0</speed>
  <fix>3d</fix>
</trkpt>
<trkpt lat="33.810313" lon="-118.393867">
  <ele>-0.13</ele>
  <time>2026-09-02T22:11:55Z</time>
  <course>0.0</course>
  <speed>0.0</speed>
  <fix>3d</fix>
</trkpt>
<trkpt lat="33.810313" lon="-118.393867">
  <ele>0.0</ele>
  <time>2026-09-02T22:11:55Z</time>
  <course>176.99</course>
  <speed>0.0</speed>
  <fix>3d</fix>
</trkpt>
<trkpt lat="33.810313" lon="-118.393867">
  <ele>-0.13</ele>
  <time>2026-09-02T22:11:55Z</time>
  <course>0.0</course>
  <speed>0.0</speed>
  <fix>3d</fix>
</trkpt>
<trkpt lat="33.810313" lon="-118.393867">
  <ele>0.0</ele>
  <time>2026-09-02T22:11:55Z</time>
  <course>177.05</course>
  <speed>0.0</speed>
  <fix>3d</fix>
</trkpt>
<trkpt lat="33.810313" lon="-118.393867">
  <ele>-0.12</ele>
  <time>2026-09-02T22:11:55Z</time>
  <course>0.0</course>
  <speed>0.0</speed>
  <fix>3d</fix>
</trkpt>
<trkpt lat="33.810313" lon="-118.393867">
  <ele>0.0</ele>
  <time>2026-09-02T22:11:55Z</time>
  <course>177.11</course>
  <speed>0.0</speed>
  <fix>3d</fix>
</trkpt>
<trkpt lat="33.810313" lon="-118.393867">
  <ele>-0.12</ele>
  <time>2026-09-02T22:11:55Z</time>
  <course>0.0</course>
  <speed>0.0</speed>
  <fix>3d</fix>
</trkpt>
<trkpt lat="33.810313" lon="-118.393867">
  <ele>0.0</ele>
  <time>2026-09-02T22:11:55Z</time>
  <course>177.16</course>
  <speed>0.0</speed>
  <fix>3d</fix>
</trkpt>
<trkpt lat="33.810313" lon="-118.393867">
  <ele>-0.12</ele>
  <time>2026-09-02T22:11:55Z</time>
  <course>0.0</course>
  <speed>0.0</speed>
  <fix>3d</fix>
</trkpt>
<trkpt lat="33.810313" lon="-118.393867">
  <ele>0.0</ele>
  <time>2026-09-02T22:11:55Z</time>
  <course>177.22</course>
  <speed>0.0</speed>
  <fix>3d</fix>
</trkpt>
<trkpt lat="33.810313" lon="-118.393867">
  <ele>-0.12</ele>
  <time>2026-09-02T22:11:55Z</time>
  <course>0.0</course>
  <speed>0.0</speed>
  <fix>3d</fix>
</trkpt>
<trkpt lat="33.810313" lon="-118.393867">
  <ele>0.0</ele>
  <time>2026-09-02T22:11:55Z</time>
  <course>177.28</course>
  <speed>0.0</speed>
  <fix>3d</fix>
</trkpt>
<trkpt lat="33.810313" lon="-118.393867">
  <ele>-0.12</ele>
  <time>2026-09-02T22:11:55Z</time>
  <course>0.0</course>
  <speed>0.0</speed>
  <fix>3d</fix>
</trkpt>
<trkpt lat="33.810313" lon="-118.393867">
  <ele>0.0</ele>
  <time>2026-09-02T22:11:55Z</time>
  <course>177.33</course>
  <speed>0.0</speed>
  <fix>3d</fix>
</trkpt>
<trkpt lat="33.810313" lon="-118.393867">
  <ele>-0.12</ele>
  <time>2026-09-02T22:11:55Z</time>
  <course>0.0</course>
  <speed>0.0</speed>
  <fix>3d</fix>
</trkpt>
<trkpt lat="33.810313" lon="-118.393867">
  <ele>0.0</ele>
  <time>2026-09-02T22:11:55Z</time>
  <course>177.39</course>
  <speed>0.0</speed>
  <fix>3d</fix>
</trkpt>
<trkpt lat="33.810313" lon="-118.393867">
  <ele>-0.12</ele>
  <time>2026-09-02T22:11:55Z</time>
  <course>0.0</course>
  <speed>0.0</speed>
  <fix>3d</fix>
</trkpt>
<trkpt lat="33.810313" lon="-118.393867">
  <ele>0.0</ele>
  <time>2026-09-02T22:11:55Z</time>
  <course>177.44</course>
  <speed>0.0</speed>
  <fix>3d</fix>
</trkpt>
<trkpt lat="33.810313" lon="-118.393867">
  <ele>-0.12</ele>
  <time>2026-09-02T22:11:55Z</time>
  <course>0.0</course>
  <speed>0.0</speed>
  <fix>3d</fix>
</trkpt>
<trkpt lat="33.810313" lon="-118.393867">
  <ele>0.0</ele>
  <time>2026-09-02T22:11:55Z</time>
  <course>177.49</course>
  <speed>0.0</speed>
  <fix>3d</fix>
</trkpt>
<trkpt lat="33.810313" lon="-118.393867">
  <ele>-0.12</ele>
  <time>2026-09-02T22:11:55Z</time>
  <course>0.0</course>
  <speed>0.0</speed>
  <fix>3d</fix>
</trkpt>
<trkpt lat="33.810313" lon="-118.393867">
  <ele>0.0</ele>
  <time>2026-09-02T22:11:55Z</time>
  <course>177.54</course>
  <speed>0.0</speed>
  <fix>3d</fix>
</trkpt>
<trkpt lat="33.810313" lon="-118.393867">
  <ele>-0.12</ele>
  <time>2026-09-02T22:11:55Z</time>
  <course>0.0</course>
  <speed>0.0</speed>
  <fix>3d</fix>
</trkpt>
<trkpt lat="33.810313" lon="-118.393867">
  <ele>0.0</ele>
  <time>2026-09-02T22:11:55Z</time>
  <course>177.59</course>
  <speed>0.0</speed>
  <fix>3d</fix>
</trkpt>
<trkpt lat="33.810313" lon="-118.393867">
  <ele>-0.13</ele>
  <time>2026-09-02T22:11:55Z</time>
  <course>0.0</course>
  <speed>0.0</speed>
  <fix>3d</fix>
</trkpt>
<trkpt lat="33.810313" lon="-118.393867">
  <ele>0.0</ele>
  <time>2026-09-02T22:11:55Z</time>
  <course>177.64</course>
  <speed>0.0</speed>
  <fix>3d</fix>
</trkpt>
<trkpt lat="33.810313" lon="-118.393867">
  <ele>-0.13</ele>
  <time>2026-09-02T22:11:55Z</time>
  <course>0.0</course>
  <speed>0.0</speed>
  <fix>3d</fix>
</trkpt>
<trkpt lat="33.810313" lon="-118.393867">
  <ele>0.0</ele>
  <time>2026-09-02T22:11:55Z</time>
  <course>177.69</course>
  <speed>0.0</speed>
  <fix>3d</fix>
</trkpt>
<trkpt lat="33.810313" lon="-118.393867">
  <ele>-0.13</ele>
  <time>2026-09-02T22:11:55Z</time>
  <course>0.0</course>
  <speed>0.0</speed>
  <fix>3d</fix>
</trkpt>
<trkpt lat="33.810313" lon="-118.393867">
  <ele>0.0</ele>
  <time>2026-09-02T22:11:55Z</time>
  <course>177.74</course>
  <speed>0.0</speed>
  <fix>3d</fix>
</trkpt>
<trkpt lat="33.810313" lon="-118.393867">
  <ele>-0.13</ele>
  <time>2026-09-02T22:11:55Z</time>
  <course>0.0</course>
  <speed>0.0</speed>
  <fix>3d</fix>
</trkpt>
<trkpt lat="33.810313" lon="-118.393867">
  <ele>0.0</ele>
  <time>2026-09-02T22:11:55Z</time>
  <course>177.79</course>
  <speed>0.0</speed>
  <fix>3d</fix>
</trkpt>
<trkpt lat="33.810313" lon="-118.393867">
  <ele>-0.13</ele>
  <time>2026-09-02T22:11:55Z</time>
  <course>0.0</course>
  <speed>0.0</speed>
  <fix>3d</fix>
</trkpt>
<trkpt lat="33.810313" lon="-118.393867">
  <ele>0.0</ele>
  <time>2026-09-02T22:11:55Z</time>
  <course>177.84</course>
  <speed>0.0</speed>
  <fix>3d</fix>
</trkpt>
<trkpt lat="33.810313" lon="-118.393867">
  <ele>-0.13</ele>
  <time>2026-09-02T22:11:55Z</time>
  <course>0.0</course>
  <speed>0.0</speed>
  <fix>3d</fix>
</trkpt>
<trkpt lat="33.810313" lon="-118.393867">
  <ele>0.0</ele>
  <time>2026-09-02T22:11:55Z</time>
  <course>177.88</course>
  <speed>0.0</speed>
  <fix>3d</fix>
</trkpt>
<trkpt lat="33.810313" lon="-118.393867">
  <ele>-0.13</ele>
  <time>2026-09-02T22:11:55Z</time>
  <course>0.0</course>
  <speed>0.0</speed>
  <fix>3d</fix>
</trkpt>
<trkpt lat="33.810313" lon="-118.393867">
  <ele>0.0</ele>
  <time>2026-09-02T22:11:55Z</time>
  <course>177.93</course>
  <speed>0.0</speed>
  <fix>3d</fix>
</trkpt>
<trkpt lat="33.810313" lon="-118.393867">
  <ele>-0.13</ele>
  <time>2026-09-02T22:11:55Z</time>
  <course>0.0</course>
  <speed>0.0</speed>
  <fix>3d</fix>
</trkpt>
<trkpt lat="33.810313" lon="-118.393867">
  <ele>0.0</ele>
  <time>2026-09-02T22:11:55Z</time>
  <course>177.97</course>
  <speed>0.0</speed>
  <fix>3d</fix>
</trkpt>
<trkpt lat="33.810313" lon="-118.393867">
  <ele>-0.12</ele>
  <time>2026-09-02T22:11:55Z</time>
  <course>0.0</course>
  <speed>0.0</speed>
  <fix>3d</fix>
</trkpt>
<trkpt lat="33.810313" lon="-118.393867">
  <ele>0.0</ele>
  <time>2026-09-02T22:11:55Z</time>
  <course>178.01</course>
  <speed>0.0</speed>
  <fix>3d</fix>
</trkpt>
<trkpt lat="33.810313" lon="-118.393867">
  <ele>-0.12</ele>
  <time>2026-09-02T22:11:55Z</time>
  <course>0.0</course>
  <speed>0.0</speed>
  <fix>3d</fix>
</trkpt>
<trkpt lat="33.810313" lon="-118.393867">
  <ele>0.0</ele>
  <time>2026-09-02T22:11:55Z</time>
  <course>178.06</course>
  <speed>0.0</speed>
  <fix>3d</fix>
</trkpt>
<trkpt lat="33.810313" lon="-118.393867">
  <ele>-0.12</ele>
  <time>2026-09-02T22:11:55Z</time>
  <course>0.0</course>
  <speed>0.0</speed>
  <fix>3d</fix>
</trkpt>
<trkpt lat="33.810313" lon="-118.393867">
  <ele>0.0</ele>
  <time>2026-09-02T22:11:55Z</time>
  <course>178.1</course>
  <speed>0.0</speed>
  <fix>3d</fix>
</trkpt>
<trkpt lat="33.810313" lon="-118.393867">
  <ele>-0.12</ele>
  <time>2026-09-02T22:11:55Z</time>
  <course>0.0</course>
  <speed>0.0</speed>
  <fix>3d</fix>
</trkpt>
<trkpt lat="33.810313" lon="-118.393867">
  <ele>0.0</ele>
  <time>2026-09-02T22:11:55Z</time>
  <course>178.14</course>
  <speed>0.0</speed>
  <fix>3d</fix>
</trkpt>
<trkpt lat="33.810313" lon="-118.393867">
  <ele>-0.12</ele>
  <time>2026-09-02T22:11:55Z</time>
  <course>0.0</course>
  <speed>0.0</speed>
  <fix>3d</fix>
</trkpt>
<trkpt lat="33.810313" lon="-118.393867">
  <ele>0.0</ele>
  <time>2026-09-02T22:11:55Z</time>
  <course>178.18</course>
  <speed>0.0</speed>
  <fix>3d</fix>
</trkpt>
<trkpt lat="33.810313" lon="-118.393867">
  <ele>-0.12</ele>
  <time>2026-09-02T22:11:55Z</time>
  <course>0.0</course>
  <speed>0.0</speed>
  <fix>3d</fix>
</trkpt>
<trkpt lat="33.810313" lon="-118.393867">
  <ele>0.0</ele>
  <time>2026-09-02T22:11:55Z</time>
  <course>178.22</course>
  <speed>0.0</speed>
  <fix>3d</fix>
</trkpt>
<trkpt lat="33.810313" lon="-118.393867">
  <ele>-0.12</ele>
  <time>2026-09-02T22:11:55Z</time>
  <course>0.0</course>
  <speed>0.0</speed>
  <fix>3d</fix>
</trkpt>
<trkpt lat="33.810313" lon="-118.393867">
  <ele>0.0</ele>
  <time>2026-09-02T22:11:55Z</time>
  <course>178.26</course>
  <speed>0.0</speed>
  <fix>3d</fix>
</trkpt>
<trkpt lat="33.810313" lon="-118.393867">
  <ele>-0.12</ele>
  <time>2026-09-02T22:11:55Z</time>
  <course>0.0</course>
  <speed>0.0</speed>
  <fix>3d</fix>
</trkpt>
<trkpt lat="33.810313" lon="-118.393867">
  <ele>0.0</ele>
  <time>2026-09-02T22:11:55Z</time>
  <course>178.3</course>
  <speed>0.0</speed>
  <fix>3d</fix>
</trkpt>
<trkpt lat="33.810313" lon="-118.393867">
  <ele>-0.12</ele>
  <time>2026-09-02T22:11:55Z</time>
  <course>0.0</course>
  <speed>0.0</speed>
  <fix>3d</fix>
</trkpt>
<trkpt lat="33.810313" lon="-118.393867">
  <ele>0.0</ele>
  <time>2026-09-02T22:11:55Z</time>
  <course>178.34</course>
  <speed>0.0</speed>
  <fix>3d</fix>
</trkpt>
<trkpt lat="33.810313" lon="-118.393867">
  <ele>-0.12</ele>
  <time>2026-09-02T22:11:55Z</time>
  <course>0.0</course>
  <speed>0.0</speed>
  <fix>3d</fix>
</trkpt>
<trkpt lat="33.810313" lon="-118.393867">
  <ele>0.0</ele>
  <time>2026-09-02T22:11:55Z</time>
  <course>178.37</course>
  <speed>0.0</speed>
  <fix>3d</fix>
</trkpt>
<trkpt lat="33.810313" lon="-118.393867">
  <ele>-0.13</ele>
  <time>2026-09-02T22:11:55Z</time>
  <course>0.0</course>
  <speed>0.0</speed>
  <fix>3d</fix>
</trkpt>
<trkpt lat="33.810313" lon="-118.393867">
  <ele>0.0</ele>
  <time>2026-09-02T22:11:55Z</time>
  <course>178.41</course>
  <speed>0.0</speed>
  <fix>3d</fix>
</trkpt>
<trkpt lat="33.810313" lon="-118.393867">
  <ele>-0.13</ele>
  <time>2026-09-02T22:11:55Z</time>
  <course>0.0</course>
  <speed>0.0</speed>
  <fix>3d</fix>
</trkpt>
<trkpt lat="33.810313" lon="-118.393867">
  <ele>0.0</ele>
  <time>2026-09-02T22:11:55Z</time>
  <course>178.45</course>
  <speed>0.0</speed>
  <fix>3d</fix>
</trkpt>
<trkpt lat="33.810313" lon="-118.393867">
  <ele>-0.13</ele>
  <time>2026-09-02T22:11:55Z</time>
  <course>0.0</course>
  <speed>0.0</speed>
  <fix>3d</fix>
</trkpt>
<trkpt lat="33.810313" lon="-118.393867">
  <ele>0.0</ele>
  <time>2026-09-02T22:11:55Z</time>
  <course>178.48</course>
  <speed>0.0</speed>
  <fix>3d</fix>
</trkpt>
<trkpt lat="33.810313" lon="-118.393867">
  <ele>-0.13</ele>
  <time>2026-09-02T22:11:55Z</time>
  <course>0.0</course>
  <speed>0.0</speed>
  <fix>3d</fix>
</trkpt>
<trkpt lat="33.810313" lon="-118.393867">
  <ele>0.0</ele>
  <time>2026-09-02T22:11:55Z</time>
  <course>178.52</course>
  <speed>0.0</speed>
  <fix>3d</fix>
</trkpt>
<trkpt lat="33.810313" lon="-118.393867">
  <ele>-0.13</ele>
  <time>2026-09-02T22:11:55Z</time>
  <course>0.0</course>
  <speed>0.0</speed>
  <fix>3d</fix>
</trkpt>
<trkpt lat="33.810313" lon="-118.393867">
  <ele>0.0</ele>
  <time>2026-09-02T22:11:55Z</time>
  <course>178.55</course>
  <speed>0.0</speed>
  <fix>3d</fix>
</trkpt>
<trkpt lat="33.810313" lon="-118.393867">
  <ele>-0.13</ele>
  <time>2026-09-02T22:11:55Z</time>
  <course>0.0</course>
  <speed>0.0</speed>
  <fix>3d</fix>
</trkpt>
<trkpt lat="33.810313" lon="-118.393867">
  <ele>0.0</ele>
  <time>2026-09-02T22:11:55Z</time>
  <course>178.59</course>
  <speed>0.0</speed>
  <fix>3d</fix>
</trkpt>
<trkpt lat="33.810313" lon="-118.393867">
  <ele>-0.12</ele>
  <time>2026-09-02T22:11:55Z</time>
  <course>0.0</course>
  <speed>0.0</speed>
  <fix>3d</fix>
</trkpt>
<trkpt lat="33.810313" lon="-118.393867">
  <ele>0.0</ele>
  <time>2026-09-02T22:11:55Z</time>
  <course>178.62</course>
  <speed>0.0</speed>
  <fix>3d</fix>
</trkpt>
<trkpt lat="33.810313" lon="-118.393867">
  <ele>-0.12</ele>
  <time>2026-09-02T22:11:55Z</time>
  <course>0.0</course>
  <speed>0.0</speed>
  <fix>3d</fix>
</trkpt>
<trkpt lat="33.810313" lon="-118.393867">
  <ele>0.0</ele>
  <time>2026-09-02T22:11:55Z</time>
  <course>178.65</course>
  <speed>0.0</speed>
  <fix>3d</fix>
</trkpt>
<trkpt lat="33.810313" lon="-118.393867">
  <ele>-0.12</ele>
  <time>2026-09-02T22:11:55Z</time>
  <course>0.0</course>
  <speed>0.0</speed>
  <fix>3d</fix>
</trkpt>
<trkpt lat="33.810313" lon="-118.393867">
  <ele>0.0</ele>
  <time>2026-09-02T22:11:55Z</time>
  <course>178.68</course>
  <speed>0.0</speed>
  <fix>3d</fix>
</trkpt>
<trkpt lat="33.810313" lon="-118.393867">
  <ele>-0.12</ele>
  <time>2026-09-02T22:11:55Z</time>
  <course>0.0</course>
  <speed>0.0</speed>
  <fix>3d</fix>
</trkpt>
<trkpt lat="33.810313" lon="-118.393867">
  <ele>0.0</ele>
  <time>2026-09-02T22:11:55Z</time>
  <course>178.71</course>
  <speed>0.0</speed>
  <fix>3d</fix>
</trkpt>
<trkpt lat="33.810313" lon="-118.393867">
  <ele>-0.12</ele>
  <time>2026-09-02T22:11:55Z</time>
  <course>0.0</course>
  <speed>0.0</speed>
  <fix>3d</fix>
</trkpt>
<trkpt lat="33.810313" lon="-118.393867">
  <ele>0.0</ele>
  <time>2026-09-02T22:11:55Z</time>
  <course>178.75</course>
  <speed>0.0</speed>
  <fix>3d</fix>
</trkpt>
<trkpt lat="33.810313" lon="-118.393867">
  <ele>-0.12</ele>
  <time>2026-09-02T22:11:55Z</time>
  <course>0.0</course>
  <speed>0.0</speed>
  <fix>3d</fix>
</trkpt>
<trkpt lat="33.810313" lon="-118.393867">
  <ele>0.0</ele>
  <time>2026-09-02T22:11:55Z</time>
  <course>178.78</course>
  <speed>0.0</speed>
  <fix>3d</fix>
</trkpt>
<trkpt lat="33.810313" lon="-118.393867">
  <ele>-0.12</ele>
  <time>2026-09-02T22:11:55Z</time>
  <course>0.0</course>
  <speed>0.0</speed>
  <fix>3d</fix>
</trkpt>
<trkpt lat="33.810313" lon="-118.393867">
  <ele>0.0</ele>
  <time>2026-09-02T22:11:55Z</time>
  <course>178.81</course>
  <speed>0.0</speed>
  <fix>3d</fix>
</trkpt>
<trkpt lat="33.810313" lon="-118.393867">
  <ele>-0.12</ele>
  <time>2026-09-02T22:11:55Z</time>
  <course>0.0</course>
  <speed>0.0</speed>
  <fix>3d</fix>
</trkpt>
<trkpt lat="33.810313" lon="-118.393867">
  <ele>0.0</ele>
  <time>2026-09-02T22:11:55Z</time>
  <course>178.83</course>
  <speed>0.0</speed>
  <fix>3d</fix>
</trkpt>
<trkpt lat="33.810313" lon="-118.393867">
  <ele>-0.12</ele>
  <time>2026-09-02T22:11:55Z</time>
  <course>0.0</course>
  <speed>0.0</speed>
  <fix>3d</fix>
</trkpt>
<trkpt lat="33.810313" lon="-118.393867">
  <ele>0.0</ele>
  <time>2026-09-02T22:11:55Z</time>
  <course>178.86</course>
  <speed>0.0</speed>
  <fix>3d</fix>
</trkpt>
<trkpt lat="33.810313" lon="-118.393867">
  <ele>-0.12</ele>
  <time>2026-09-02T22:11:55Z</time>
  <course>0.0</course>
  <speed>0.0</speed>
  <fix>3d</fix>
</trkpt>
<trkpt lat="33.810313" lon="-118.393867">
  <ele>0.0</ele>
  <time>2026-09-02T22:11:55Z</time>
  <course>178.89</course>
  <speed>0.0</speed>
  <fix>3d</fix>
</trkpt>
<trkpt lat="33.810313" lon="-118.393867">
  <ele>-0.13</ele>
  <time>2026-09-02T22:11:55Z</time>
  <course>0.0</course>
  <speed>0.0</speed>
  <fix>3d</fix>
</trkpt>
<trkpt lat="33.810313" lon="-118.393867">
  <ele>0.0</ele>
  <time>2026-09-02T22:11:55Z</time>
  <course>178.92</course>
  <speed>0.0</speed>
  <fix>3d</fix>
</trkpt>
<trkpt lat="33.810313" lon="-118.393867">
  <ele>-0.13</ele>
  <time>2026-09-02T22:11:55Z</time>
  <course>0.0</course>
  <speed>0.0</speed>
  <fix>3d</fix>
</trkpt>
<trkpt lat="33.810313" lon="-118.393867">
  <ele>0.0</ele>
  <time>2026-09-02T22:11:55Z</time>
  <course>178.95</course>
  <speed>0.0</speed>
  <fix>3d</fix>
</trkpt>
<trkpt lat="33.810313" lon="-118.393867">
  <ele>-0.13</ele>
  <time>2026-09-02T22:11:55Z</time>
  <course>0.0</course>
  <speed>0.0</speed>
  <fix>3d</fix>
</trkpt>
<trkpt lat="33.810313" lon="-118.393867">
  <ele>0.0</ele>
  <time>2026-09-02T22:11:55Z</time>
  <course>178.97</course>
  <speed>0.0</speed>
  <fix>3d</fix>
</trkpt>
<trkpt lat="33.810313" lon="-118.393867">
  <ele>-0.13</ele>
  <time>2026-09-02T22:11:55Z</time>
  <course>0.0</course>
  <speed>0.0</speed>
  <fix>3d</fix>
</trkpt>
<trkpt lat="33.810313" lon="-118.393867">
  <ele>0.0</ele>
  <time>2026-09-02T22:11:55Z</time>
  <course>179.0</course>
  <speed>0.0</speed>
  <fix>3d</fix>
</trkpt>
<trkpt lat="33.810313" lon="-118.393867">
  <ele>-0.13</ele>
  <time>2026-09-02T22:11:55Z</time>
  <course>0.0</course>
  <speed>0.0</speed>
  <fix>3d</fix>
</trkpt>
<trkpt lat="33.810313" lon="-118.393867">
  <ele>0.0</ele>
  <time>2026-09-02T22:11:55Z</time>
  <course>179.03</course>
  <speed>0.0</speed>
  <fix>3d</fix>
</trkpt>
<trkpt lat="33.810313" lon="-118.393867">
  <ele>-0.13</ele>
  <time>2026-09-02T22:11:55Z</time>
  <course>0.0</course>
  <speed>0.0</speed>
  <fix>3d</fix>
</trkpt>
<trkpt lat="33.810313" lon="-118.393867">
  <ele>0.0</ele>
  <time>2026-09-02T22:11:55Z</time>
  <course>179.05</course>
  <speed>0.0</speed>
  <fix>3d</fix>
</trkpt>
<trkpt lat="33.810313" lon="-118.393867">
  <ele>-0.12</ele>
  <time>2026-09-02T22:11:55Z</time>
  <course>0.0</course>
  <speed>0.0</speed>
  <fix>3d</fix>
</trkpt>
<trkpt lat="33.810313" lon="-118.393867">
  <ele>0.0</ele>
  <time>2026-09-02T22:11:55Z</time>
  <course>179.08</course>
  <speed>0.0</speed>
  <fix>3d</fix>
</trkpt>
<trkpt lat="33.810313" lon="-118.393867">
  <ele>-0.12</ele>
  <time>2026-09-02T22:11:55Z</time>
  <course>0.0</course>
  <speed>0.0</speed>
  <fix>3d</fix>
</trkpt>
<trkpt lat="33.810313" lon="-118.393867">
  <ele>0.0</ele>
  <time>2026-09-02T22:11:55Z</time>
  <course>179.1</course>
  <speed>0.0</speed>
  <fix>3d</fix>
</trkpt>
<trkpt lat="33.810313" lon="-118.393867">
  <ele>-0.12</ele>
  <time>2026-09-02T22:11:55Z</time>
  <course>0.0</course>
  <speed>0.0</speed>
  <fix>3d</fix>
</trkpt>
<trkpt lat="33.810313" lon="-118.393867">
  <ele>0.0</ele>
  <time>2026-09-02T22:11:55Z</time>
  <course>179.12</course>
  <speed>0.0</speed>
  <fix>3d</fix>
</trkpt>
<trkpt lat="33.810313" lon="-118.393867">
  <ele>-0.12</ele>
  <time>2026-09-02T22:11:55Z</time>
  <course>0.0</course>
  <speed>0.0</speed>
  <fix>3d</fix>
</trkpt>
<trkpt lat="33.810313" lon="-118.393867">
  <ele>0.0</ele>
  <time>2026-09-02T22:11:55Z</time>
  <course>179.15</course>
  <speed>0.0</speed>
  <fix>3d</fix>
</trkpt>
<trkpt lat="33.810313" lon="-118.393867">
  <ele>-0.12</ele>
  <time>2026-09-02T22:11:55Z</time>
  <course>0.0</course>
  <speed>0.0</speed>
  <fix>3d</fix>
</trkpt>
<trkpt lat="33.810313" lon="-118.393867">
  <ele>0.0</ele>
  <time>2026-09-02T22:11:55Z</time>
  <course>179.17</course>
  <speed>0.0</speed>
  <fix>3d</fix>
</trkpt>
<trkpt lat="33.810313" lon="-118.393867">
  <ele>-0.12</ele>
  <time>2026-09-02T22:11:55Z</time>
  <course>0.0</course>
  <speed>0.0</speed>
  <fix>3d</fix>
</trkpt>
<trkpt lat="33.810313" lon="-118.393867">
  <ele>0.0</ele>
  <time>2026-09-02T22:11:55Z</time>
  <course>179.19</course>
  <speed>0.0</speed>
  <fix>3d</fix>
</trkpt>
<trkpt lat="33.810313" lon="-118.393867">
  <ele>-0.12</ele>
  <time>2026-09-02T22:11:55Z</time>
  <course>0.0</course>
  <speed>0.0</speed>
  <fix>3d</fix>
</trkpt>
<trkpt lat="33.810313" lon="-118.393867">
  <ele>0.0</ele>
  <time>2026-09-02T22:11:55Z</time>
  <course>179.21</course>
  <speed>0.0</speed>
  <fix>3d</fix>
</trkpt>
<trkpt lat="33.810313" lon="-118.393867">
  <ele>-0.12</ele>
  <time>2026-09-02T22:11:55Z</time>
  <course>0.0</course>
  <speed>0.0</speed>
  <fix>3d</fix>
</trkpt>
<trkpt lat="33.810313" lon="-118.393867">
  <ele>0.0</ele>
  <time>2026-09-02T22:11:55Z</time>
  <course>179.24</course>
  <speed>0.0</speed>
  <fix>3d</fix>
</trkpt>
<trkpt lat="33.810313" lon="-118.393867">
  <ele>-0.12</ele>
  <time>2026-09-02T22:11:55Z</time>
  <course>0.0</course>
  <speed>0.0</speed>
  <fix>3d</fix>
</trkpt>
<trkpt lat="33.810313" lon="-118.393867">
  <ele>0.0</ele>
  <time>2026-09-02T22:11:55Z</time>
  <course>179.26</course>
  <speed>0.0</speed>
  <fix>3d</fix>
</trkpt>
<trkpt lat="33.810313" lon="-118.393867">
  <ele>-0.12</ele>
  <time>2026-09-02T22:11:55Z</time>
  <course>0.0</course>
  <speed>0.0</speed>
  <fix>3d</fix>
</trkpt>
<trkpt lat="33.810313" lon="-118.393867">
  <ele>0.0</ele>
  <time>2026-09-02T22:11:55Z</time>
  <course>179.28</course>
  <speed>0.0</speed>
  <fix>3d</fix>
</trkpt>
<trkpt lat="33.810313" lon="-118.393867">
  <ele>-0.13</ele>
  <time>2026-09-02T22:11:55Z</time>
  <course>0.0</course>
  <speed>0.0</speed>
  <fix>3d</fix>
</trkpt>
<trkpt lat="33.810313" lon="-118.393867">
  <ele>0.0</ele>
  <time>2026-09-02T22:11:55Z</time>
  <course>179.3</course>
  <speed>0.0</speed>
  <fix>3d</fix>
</trkpt>
<trkpt lat="33.810313" lon="-118.393867">
  <ele>-0.13</ele>
  <time>2026-09-02T22:11:55Z</time>
  <course>0.0</course>
  <speed>0.0</speed>
  <fix>3d</fix>
</trkpt>
<trkpt lat="33.810313" lon="-118.393867">
  <ele>-0.125</ele>
  <time>2026-09-02T22:11:55Z</time>
  <course>179.32</course>
  <speed>0.0</speed>
  <fix>3d</fix>
</trkpt>
<trkpt lat="33.810313" lon="-118.393867">
  <ele>-0.13</ele>
  <time>2026-09-02T22:11:55Z</time>
  <course>0.0</course>
  <speed>0.0</speed>
  <fix>3d</fix>
</trkpt>
<trkpt lat="33.810313" lon="-118.393867">
  <ele>-0.123</ele>
  <time>2026-09-02T22:11:55Z</time>
  <course>179.35</course>
  <speed>0.0</speed>
  <fix>3d</fix>
</trkpt>
<trkpt lat="33.810313" lon="-118.393867">
  <ele>-0.13</ele>
  <time>2026-09-02T22:11:55Z</time>
  <course>0.0</course>
  <speed>0.0</speed>
  <fix>3d</fix>
</trkpt>
<trkpt lat="33.810313" lon="-118.393867">
  <ele>-0.121</ele>
  <time>2026-09-02T22:11:55Z</time>
  <course>179.46</course>
  <speed>0.0</speed>
  <fix>3d</fix>
</trkpt>
<trkpt lat="33.810313" lon="-118.393867">
  <ele>-0.12</ele>
  <time>2026-09-02T22:11:55Z</time>
  <course>0.0</course>
  <speed>0.0</speed>
  <fix>3d</fix>
</trkpt>
<trkpt lat="33.810313" lon="-118.393867">
  <ele>-0.119</ele>
  <time>2026-09-02T22:11:55Z</time>
  <course>179.67</course>
  <speed>0.01</speed>
  <fix>3d</fix>
</trkpt>
<trkpt lat="33.810313" lon="-118.393867">
  <ele>-0.12</ele>
  <time>2026-09-02T22:11:55Z</time>
  <course>0.0</course>
  <speed>0.0</speed>
  <fix>3d</fix>
</trkpt>
<trkpt lat="33.810313" lon="-118.393867">
  <ele>-0.119</ele>
  <time>2026-09-02T22:11:55Z</time>
  <course>179.95</course>
  <speed>0.01</speed>
  <fix>3d</fix>
</trkpt>
<trkpt lat="33.810313" lon="-118.393867">
  <ele>-0.12</ele>
  <time>2026-09-02T22:11:55Z</time>
  <course>0.0</course>
  <speed>0.0</speed>
  <fix>3d</fix>
</trkpt>
<trkpt lat="33.810313" lon="-118.393867">
  <ele>-0.12</ele>
  <time>2026-09-02T22:11:55Z</time>
  <course>180.24</course>
  <speed>0.01</speed>
  <fix>3d</fix>
</trkpt>
<trkpt lat="33.810313" lon="-118.393867">
  <ele>-0.12</ele>
  <time>2026-09-02T22:11:55Z</time>
  <course>0.0</course>
  <speed>0.0</speed>
  <fix>3d</fix>
</trkpt>
<trkpt lat="33.810313" lon="-118.393867">
  <ele>-0.123</ele>
  <time>2026-09-02T22:11:55Z</time>
  <course>180.51</course>
  <speed>0.02</speed>
  <fix>3d</fix>
</trkpt>
<trkpt lat="33.810313" lon="-118.393867">
  <ele>-0.12</ele>
  <time>2026-09-02T22:11:55Z</time>
  <course>0.0</course>
  <speed>0.0</speed>
  <fix>3d</fix>
</trkpt>
<trkpt lat="33.810313" lon="-118.393867">
  <ele>-0.127</ele>
  <time>2026-09-02T22:11:55Z</time>
  <course>180.75</course>
  <speed>0.02</speed>
  <fix>3d</fix>
</trkpt>
<trkpt lat="33.810313" lon="-118.393867">
  <ele>-0.12</ele>
  <time>2026-09-02T22:11:55Z</time>
  <course>0.0</course>
  <speed>0.0</speed>
  <fix>3d</fix>
</trkpt>
<trkpt lat="33.810313" lon="-118.393867">
  <ele>-0.13</ele>
  <time>2026-09-02T22:11:55Z</time>
  <course>180.97</course>
  <speed>0.02</speed>
  <fix>3d</fix>
</trkpt>
<trkpt lat="33.810313" lon="-118.393867">
  <ele>-0.12</ele>
  <time>2026-09-02T22:11:55Z</time>
  <course>0.0</course>
  <speed>0.0</speed>
  <fix>3d</fix>
</trkpt>
<trkpt lat="33.810313" lon="-118.393867">
  <ele>-0.132</ele>
  <time>2026-09-02T22:11:55Z</time>
  <course>181.18</course>
  <speed>0.03</speed>
  <fix>3d</fix>
</trkpt>
<trkpt lat="33.810313" lon="-118.393867">
  <ele>-0.12</ele>
  <time>2026-09-02T22:11:55Z</time>
  <course>0.0</course>
  <speed>0.0</speed>
  <fix>3d</fix>
</trkpt>
<trkpt lat="33.810313" lon="-118.393867">
  <ele>-0.132</ele>
  <time>2026-09-02T22:11:55Z</time>
  <course>181.38</course>
  <speed>0.03</speed>
  <fix>3d</fix>
</trkpt>
<trkpt lat="33.810313" lon="-118.393867">
  <ele>-0.12</ele>
  <time>2026-09-02T22:11:55Z</time>
  <course>0.0</course>
  <speed>0.0</speed>
  <fix>3d</fix>
</trkpt>
<trkpt lat="33.810313" lon="-118.393867">
  <ele>-0.132</ele>
  <time>2026-09-02T22:11:55Z</time>
  <course>181.55</course>
  <speed>0.03</speed>
  <fix>3d</fix>
</trkpt>
<trkpt lat="33.810313" lon="-118.393867">
  <ele>-0.12</ele>
  <time>2026-09-02T22:11:55Z</time>
  <course>0.0</course>
  <speed>0.0</speed>
  <fix>3d</fix>
</trkpt>
<trkpt lat="33.810313" lon="-118.393867">
  <ele>-0.132</ele>
  <time>2026-09-02T22:11:55Z</time>
  <course>181.72</course>
  <speed>0.03</speed>
  <fix>3d</fix>
</trkpt>
<trkpt lat="33.810313" lon="-118.393867">
  <ele>-0.12</ele>
  <time>2026-09-02T22:11:55Z</time>
  <course>0.0</course>
  <speed>0.0</speed>
  <fix>3d</fix>
</trkpt>
<trkpt lat="33.810313" lon="-118.393867">
  <ele>-0.131</ele>
  <time>2026-09-02T22:11:55Z</time>
  <course>181.89</course>
  <speed>0.04</speed>
  <fix>3d</fix>
</trkpt>
<trkpt lat="33.810313" lon="-118.393867">
  <ele>-0.12</ele>
  <time>2026-09-02T22:11:55Z</time>
  <course>0.0</course>
  <speed>0.0</speed>
  <fix>3d</fix>
</trkpt>
<trkpt lat="33.810313" lon="-118.393867">
  <ele>-0.129</ele>
  <time>2026-09-02T22:11:55Z</time>
  <course>182.04</course>
  <speed>0.04</speed>
  <fix>3d</fix>
</trkpt>
<trkpt lat="33.810313" lon="-118.393867">
  <ele>-0.13</ele>
  <time>2026-09-02T22:11:55Z</time>
  <course>0.0</course>
  <speed>0.0</speed>
  <fix>3d</fix>
</trkpt>
<trkpt lat="33.810313" lon="-118.393867">
  <ele>-0.128</ele>
  <time>2026-09-02T22:11:55Z</time>
  <course>182.19</course>
  <speed>0.04</speed>
  <fix>3d</fix>
</trkpt>
<trkpt lat="33.810313" lon="-118.393867">
  <ele>-0.13</ele>
  <time>2026-09-02T22:11:55Z</time>
  <course>0.0</course>
  <speed>0.0</speed>
  <fix>3d</fix>
</trkpt>
<trkpt lat="33.810313" lon="-118.393867">
  <ele>-0.125</ele>
  <time>2026-09-02T22:11:55Z</time>
  <course>182.34</course>
  <speed>0.04</speed>
  <fix>3d</fix>
</trkpt>
<trkpt lat="33.810313" lon="-118.393867">
  <ele>-0.12</ele>
  <time>2026-09-02T22:11:55Z</time>
  <course>0.0</course>
  <speed>0.0</speed>
  <fix>3d</fix>
</trkpt>
<trkpt lat="33.810313" lon="-118.393867">
  <ele>-0.123</ele>
  <time>2026-09-02T22:11:55Z</time>
  <course>182.47</course>
  <speed>0.04</speed>
  <fix>3d</fix>
</trkpt>
<trkpt lat="33.810313" lon="-118.393867">
  <ele>-0.12</ele>
  <time>2026-09-02T22:11:55Z</time>
  <course>0.0</course>
  <speed>0.0</speed>
  <fix>3d</fix>
</trkpt>
<trkpt lat="33.810313" lon="-118.393867">
  <ele>-0.121</ele>
  <time>2026-09-02T22:11:55Z</time>
  <course>182.6</course>
  <speed>0.04</speed>
  <fix>3d</fix>
</trkpt>
<trkpt lat="33.810313" lon="-118.393867">
  <ele>-0.12</ele>
  <time>2026-09-02T22:11:55Z</time>
  <course>0.0</course>
  <speed>0.0</speed>
  <fix>3d</fix>
</trkpt>
<trkpt lat="33.810313" lon="-118.393867">
  <ele>-0.121</ele>
  <time>2026-09-02T22:11:55Z</time>
  <course>182.73</course>
  <speed>0.04</speed>
  <fix>3d</fix>
</trkpt>
<trkpt lat="33.810313" lon="-118.393867">
  <ele>-0.12</ele>
  <time>2026-09-02T22:11:55Z</time>
  <course>0.0</course>
  <speed>0.0</speed>
  <fix>3d</fix>
</trkpt>
<trkpt lat="33.810313" lon="-118.393867">
  <ele>-0.121</ele>
  <time>2026-09-02T22:11:55Z</time>
  <course>182.84</course>
  <speed>0.05</speed>
  <fix>3d</fix>
</trkpt>
<trkpt lat="33.810313" lon="-118.393867">
  <ele>-0.12</ele>
  <time>2026-09-02T22:11:55Z</time>
  <course>0.0</course>
  <speed>0.0</speed>
  <fix>3d</fix>
</trkpt>
<trkpt lat="33.810313" lon="-118.393867">
  <ele>-0.123</ele>
  <time>2026-09-02T22:11:55Z</time>
  <course>182.96</course>
  <speed>0.05</speed>
  <fix>3d</fix>
</trkpt>
<trkpt lat="33.810313" lon="-118.393867">
  <ele>-0.12</ele>
  <time>2026-09-02T22:11:55Z</time>
  <course>0.0</course>
  <speed>0.0</speed>
  <fix>3d</fix>
</trkpt>
<trkpt lat="33.810313" lon="-118.393867">
  <ele>-0.126</ele>
  <time>2026-09-02T22:11:55Z</time>
  <course>183.07</course>
  <speed>0.05</speed>
  <fix>3d</fix>
</trkpt>
<trkpt lat="33.810313" lon="-118.393867">
  <ele>-0.12</ele>
  <time>2026-09-02T22:11:55Z</time>
  <course>0.0</course>
  <speed>0.0</speed>
  <fix>3d</fix>
</trkpt>
<trkpt lat="33.810313" lon="-118.393867">
  <ele>-0.127</ele>
  <time>2026-09-02T22:11:56Z</time>
  <course>183.17</course>
  <speed>0.05</speed>
  <fix>3d</fix>
</trkpt>
<trkpt lat="33.810313" lon="-118.393867">
  <ele>-0.12</ele>
  <time>2026-09-02T22:11:56Z</time>
  <course>0.0</course>
  <speed>0.0</speed>
  <fix>3d</fix>
</trkpt>
<trkpt lat="33.810313" lon="-118.393867">
  <ele>-0.127</ele>
  <time>2026-09-02T22:11:56Z</time>
  <course>183.27</course>
  <speed>0.05</speed>
  <fix>3d</fix>
</trkpt>
<trkpt lat="33.810313" lon="-118.393867">
  <ele>-0.12</ele>
  <time>2026-09-02T22:11:56Z</time>
  <course>0.0</course>
  <speed>0.0</speed>
  <fix>3d</fix>
</trkpt>
<trkpt lat="33.810313" lon="-118.393867">
  <ele>-0.127</ele>
  <time>2026-09-02T22:11:56Z</time>
  <course>183.37</course>
  <speed>0.05</speed>
  <fix>3d</fix>
</trkpt>
<trkpt lat="33.810313" lon="-118.393867">
  <ele>-0.12</ele>
  <time>2026-09-02T22:11:56Z</time>
  <course>0.0</course>
  <speed>0.0</speed>
  <fix>3d</fix>
</trkpt>
<trkpt lat="33.810313" lon="-118.393867">
  <ele>-0.127</ele>
  <time>2026-09-02T22:11:56Z</time>
  <course>183.46</course>
  <speed>0.05</speed>
  <fix>3d</fix>
</trkpt>
<trkpt lat="33.810313" lon="-118.393867">
  <ele>-0.12</ele>
  <time>2026-09-02T22:11:56Z</time>
  <course>0.0</course>
  <speed>0.0</speed>
  <fix>3d</fix>
</trkpt>
<trkpt lat="33.810313" lon="-118.393867">
  <ele>-0.127</ele>
  <time>2026-09-02T22:11:56Z</time>
  <course>183.55</course>
  <speed>0.05</speed>
  <fix>3d</fix>
</trkpt>
<trkpt lat="33.810313" lon="-118.393867">
  <ele>-0.12</ele>
  <time>2026-09-02T22:11:56Z</time>
  <course>0.0</course>
  <speed>0.0</speed>
  <fix>3d</fix>
</trkpt>
<trkpt lat="33.810313" lon="-118.393867">
  <ele>-0.127</ele>
  <time>2026-09-02T22:11:56Z</time>
  <course>183.64</course>
  <speed>0.05</speed>
  <fix>3d</fix>
</trkpt>
<trkpt lat="33.810313" lon="-118.393867">
  <ele>-0.12</ele>
  <time>2026-09-02T22:11:56Z</time>
  <course>0.0</course>
  <speed>0.0</speed>
  <fix>3d</fix>
</trkpt>
<trkpt lat="33.810313" lon="-118.393867">
  <ele>-0.127</ele>
  <time>2026-09-02T22:11:56Z</time>
  <course>183.72</course>
  <speed>0.05</speed>
  <fix>3d</fix>
</trkpt>
<trkpt lat="33.810313" lon="-118.393867">
  <ele>-0.12</ele>
  <time>2026-09-02T22:11:56Z</time>
  <course>0.0</course>
  <speed>0.0</speed>
  <fix>3d</fix>
</trkpt>
<trkpt lat="33.810313" lon="-118.393867">
  <ele>-0.126</ele>
  <time>2026-09-02T22:11:56Z</time>
  <course>183.8</course>
  <speed>0.05</speed>
  <fix>3d</fix>
</trkpt>
<trkpt lat="33.810313" lon="-118.393867">
  <ele>-0.12</ele>
  <time>2026-09-02T22:11:56Z</time>
  <course>0.0</course>
  <speed>0.0</speed>
  <fix>3d</fix>
</trkpt>
<trkpt lat="33.810313" lon="-118.393867">
  <ele>-0.126</ele>
  <time>2026-09-02T22:11:56Z</time>
  <course>183.88</course>
  <speed>0.05</speed>
  <fix>3d</fix>
</trkpt>
<trkpt lat="33.810313" lon="-118.393867">
  <ele>-0.12</ele>
  <time>2026-09-02T22:11:56Z</time>
  <course>0.0</course>
  <speed>0.0</speed>
  <fix>3d</fix>
</trkpt>
<trkpt lat="33.810313" lon="-118.393867">
  <ele>-0.125</ele>
  <time>2026-09-02T22:11:56Z</time>
  <course>183.96</course>
  <speed>0.05</speed>
  <fix>3d</fix>
</trkpt>
<trkpt lat="33.810313" lon="-118.393867">
  <ele>-0.12</ele>
  <time>2026-09-02T22:11:56Z</time>
  <course>0.0</course>
  <speed>0.0</speed>
  <fix>3d</fix>
</trkpt>
<trkpt lat="33.810313" lon="-118.393867">
  <ele>-0.126</ele>
  <time>2026-09-02T22:11:56Z</time>
  <course>184.03</course>
  <speed>0.05</speed>
  <fix>3d</fix>
</trkpt>
<trkpt lat="33.810313" lon="-118.393867">
  <ele>-0.12</ele>
  <time>2026-09-02T22:11:56Z</time>
  <course>0.0</course>
  <speed>0.0</speed>
  <fix>3d</fix>
</trkpt>
<trkpt lat="33.810313" lon="-118.393867">
  <ele>-0.127</ele>
  <time>2026-09-02T22:11:56Z</time>
  <course>184.1</course>
  <speed>0.05</speed>
  <fix>3d</fix>
</trkpt>
<trkpt lat="33.810313" lon="-118.393867">
  <ele>-0.12</ele>
  <time>2026-09-02T22:11:56Z</time>
  <course>0.0</course>
  <speed>0.0</speed>
  <fix>3d</fix>
</trkpt>
<trkpt lat="33.810313" lon="-118.393867">
  <ele>-0.128</ele>
  <time>2026-09-02T22:11:56Z</time>
  <course>184.16</course>
  <speed>0.05</speed>
  <fix>3d</fix>
</trkpt>
<trkpt lat="33.810313" lon="-118.393867">
  <ele>-0.12</ele>
  <time>2026-09-02T22:11:56Z</time>
  <course>0.0</course>
  <speed>0.0</speed>
  <fix>3d</fix>
</trkpt>
<trkpt lat="33.810313" lon="-118.393867">
  <ele>-0.129</ele>
  <time>2026-09-02T22:11:56Z</time>
  <course>184.23</course>
  <speed>0.05</speed>
  <fix>3d</fix>
</trkpt>
<trkpt lat="33.810313" lon="-118.393867">
  <ele>-0.12</ele>
  <time>2026-09-02T22:11:56Z</time>
  <course>0.0</course>
  <speed>0.0</speed>
  <fix>3d</fix>
</trkpt>
<trkpt lat="33.810313" lon="-118.393867">
  <ele>-0.129</ele>
  <time>2026-09-02T22:11:56Z</time>
  <course>184.29</course>
  <speed>0.05</speed>
  <fix>3d</fix>
</trkpt>
<trkpt lat="33.810313" lon="-118.393867">
  <ele>-0.12</ele>
  <time>2026-09-02T22:11:56Z</time>
  <course>0.0</course>
  <speed>0.0</speed>
  <fix>3d</fix>
</trkpt>
<trkpt lat="33.810313" lon="-118.393867">
  <ele>-0.13</ele>
  <time>2026-09-02T22:11:56Z</time>
  <course>184.35</course>
  <speed>0.05</speed>
  <fix>3d</fix>
</trkpt>
<trkpt lat="33.810313" lon="-118.393867">
  <ele>-0.12</ele>
  <time>2026-09-02T22:11:56Z</time>
  <course>0.0</course>
  <speed>0.0</speed>
  <fix>3d</fix>
</trkpt>
<trkpt lat="33.810313" lon="-118.393867">
  <ele>-0.13</ele>
  <time>2026-09-02T22:11:56Z</time>
  <course>184.41</course>
  <speed>0.05</speed>
  <fix>3d</fix>
</trkpt>
<trkpt lat="33.810313" lon="-118.393867">
  <ele>-0.12</ele>
  <time>2026-09-02T22:11:56Z</time>
  <course>0.0</course>
  <speed>0.0</speed>
  <fix>3d</fix>
</trkpt>
<trkpt lat="33.810313" lon="-118.393867">
  <ele>-0.13</ele>
  <time>2026-09-02T22:11:56Z</time>
  <course>184.47</course>
  <speed>0.05</speed>
  <fix>3d</fix>
</trkpt>
<trkpt lat="33.810313" lon="-118.393867">
  <ele>-0.12</ele>
  <time>2026-09-02T22:11:56Z</time>
  <course>0.0</course>
  <speed>0.0</speed>
  <fix>3d</fix>
</trkpt>
<trkpt lat="33.810313" lon="-118.393867">
  <ele>-0.129</ele>
  <time>2026-09-02T22:11:56Z</time>
  <course>184.52</course>
  <speed>0.05</speed>
  <fix>3d</fix>
</trkpt>
<trkpt lat="33.810313" lon="-118.393867">
  <ele>-0.12</ele>
  <time>2026-09-02T22:11:56Z</time>
  <course>0.0</course>
  <speed>0.0</speed>
  <fix>3d</fix>
</trkpt>
<trkpt lat="33.810313" lon="-118.393867">
  <ele>-0.128</ele>
  <time>2026-09-02T22:11:56Z</time>
  <course>184.57</course>
  <speed>0.05</speed>
  <fix>3d</fix>
</trkpt>
<trkpt lat="33.810313" lon="-118.393867">
  <ele>-0.12</ele>
  <time>2026-09-02T22:11:56Z</time>
  <course>0.0</course>
  <speed>0.0</speed>
  <fix>3d</fix>
</trkpt>
<trkpt lat="33.810313" lon="-118.393867">
  <ele>-0.126</ele>
  <time>2026-09-02T22:11:56Z</time>
  <course>184.63</course>
  <speed>0.05</speed>
  <fix>3d</fix>
</trkpt>
<trkpt lat="33.810313" lon="-118.393867">
  <ele>-0.12</ele>
  <time>2026-09-02T22:11:56Z</time>
  <course>0.0</course>
  <speed>0.0</speed>
  <fix>3d</fix>
</trkpt>
<trkpt lat="33.810313" lon="-118.393867">
  <ele>-0.124</ele>
  <time>2026-09-02T22:11:56Z</time>
  <course>184.67</course>
  <speed>0.05</speed>
  <fix>3d</fix>
</trkpt>
<trkpt lat="33.810313" lon="-118.393867">
  <ele>-0.12</ele>
  <time>2026-09-02T22:11:56Z</time>
  <course>0.0</course>
  <speed>0.0</speed>
  <fix>3d</fix>
</trkpt>
<trkpt lat="33.810313" lon="-118.393867">
  <ele>-0.122</ele>
  <time>2026-09-02T22:11:56Z</time>
  <course>184.72</course>
  <speed>0.04</speed>
  <fix>3d</fix>
</trkpt>
<trkpt lat="33.810313" lon="-118.393867">
  <ele>-0.12</ele>
  <time>2026-09-02T22:11:56Z</time>
  <course>0.0</course>
  <speed>0.0</speed>
  <fix>3d</fix>
</trkpt>
<trkpt lat="33.810313" lon="-118.393867">
  <ele>-0.123</ele>
  <time>2026-09-02T22:11:56Z</time>
  <course>184.77</course>
  <speed>0.04</speed>
  <fix>3d</fix>
</trkpt>
<trkpt lat="33.810313" lon="-118.393867">
  <ele>-0.12</ele>
  <time>2026-09-02T22:11:56Z</time>
  <course>0.0</course>
  <speed>0.0</speed>
  <fix>3d</fix>
</trkpt>
<trkpt lat="33.810313" lon="-118.393867">
  <ele>-0.125</ele>
  <time>2026-09-02T22:11:56Z</time>
  <course>184.81</course>
  <speed>0.04</speed>
  <fix>3d</fix>
</trkpt>
<trkpt lat="33.810313" lon="-118.393867">
  <ele>-0.12</ele>
  <time>2026-09-02T22:11:56Z</time>
  <course>0.0</course>
  <speed>0.0</speed>
  <fix>3d</fix>
</trkpt>
<trkpt lat="33.810313" lon="-118.393867">
  <ele>-0.128</ele>
  <time>2026-09-02T22:11:56Z</time>
  <course>184.85</course>
  <speed>0.04</speed>
  <fix>3d</fix>
</trkpt>
<trkpt lat="33.810313" lon="-118.393867">
  <ele>-0.12</ele>
  <time>2026-09-02T22:11:56Z</time>
  <course>0.0</course>
  <speed>0.0</speed>
  <fix>3d</fix>
</trkpt>
<trkpt lat="33.810313" lon="-118.393867">
  <ele>-0.131</ele>
  <time>2026-09-02T22:11:56Z</time>
  <course>184.9</course>
  <speed>0.04</speed>
  <fix>3d</fix>
</trkpt>
<trkpt lat="33.810313" lon="-118.393867">
  <ele>-0.12</ele>
  <time>2026-09-02T22:11:56Z</time>
  <course>0.0</course>
  <speed>0.0</speed>
  <fix>3d</fix>
</trkpt>
<trkpt lat="33.810313" lon="-118.393867">
  <ele>-0.134</ele>
  <time>2026-09-02T22:11:56Z</time>
  <course>184.94</course>
  <speed>0.04</speed>
  <fix>3d</fix>
</trkpt>
<trkpt lat="33.810313" lon="-118.393867">
  <ele>-0.12</ele>
  <time>2026-09-02T22:11:56Z</time>
  <course>0.0</course>
  <speed>0.0</speed>
  <fix>3d</fix>
</trkpt>
<trkpt lat="33.810313" lon="-118.393867">
  <ele>-0.135</ele>
  <time>2026-09-02T22:11:56Z</time>
  <course>184.97</course>
  <speed>0.04</speed>
  <fix>3d</fix>
</trkpt>
<trkpt lat="33.810313" lon="-118.393867">
  <ele>-0.12</ele>
  <time>2026-09-02T22:11:56Z</time>
  <course>0.0</course>
  <speed>0.0</speed>
  <fix>3d</fix>
</trkpt>
<trkpt lat="33.810313" lon="-118.393867">
  <ele>-0.134</ele>
  <time>2026-09-02T22:11:56Z</time>
  <course>185.01</course>
  <speed>0.04</speed>
  <fix>3d</fix>
</trkpt>
<trkpt lat="33.810313" lon="-118.393867">
  <ele>-0.12</ele>
  <time>2026-09-02T22:11:56Z</time>
  <course>0.0</course>
  <speed>0.0</speed>
  <fix>3d</fix>
</trkpt>
<trkpt lat="33.810313" lon="-118.393867">
  <ele>-0.132</ele>
  <time>2026-09-02T22:11:56Z</time>
  <course>185.05</course>
  <speed>0.04</speed>
  <fix>3d</fix>
</trkpt>
<trkpt lat="33.810313" lon="-118.393867">
  <ele>-0.12</ele>
  <time>2026-09-02T22:11:56Z</time>
  <course>0.0</course>
  <speed>0.0</speed>
  <fix>3d</fix>
</trkpt>
<trkpt lat="33.810313" lon="-118.393867">
  <ele>-0.13</ele>
  <time>2026-09-02T22:11:56Z</time>
  <course>185.08</course>
  <speed>0.04</speed>
  <fix>3d</fix>
</trkpt>
<trkpt lat="33.810313" lon="-118.393867">
  <ele>-0.12</ele>
  <time>2026-09-02T22:11:56Z</time>
  <course>0.0</course>
  <speed>0.0</speed>
  <fix>3d</fix>
</trkpt>
<trkpt lat="33.810313" lon="-118.393867">
  <ele>-0.127</ele>
  <time>2026-09-02T22:11:56Z</time>
  <course>185.11</course>
  <speed>0.04</speed>
  <fix>3d</fix>
</trkpt>
<trkpt lat="33.810313" lon="-118.393867">
  <ele>-0.12</ele>
  <time>2026-09-02T22:11:56Z</time>
  <course>0.0</course>
  <speed>0.0</speed>
  <fix>3d</fix>
</trkpt>
<trkpt lat="33.810313" lon="-118.393867">
  <ele>-0.125</ele>
  <time>2026-09-02T22:11:56Z</time>
  <course>185.14</course>
  <speed>0.04</speed>
  <fix>3d</fix>
</trkpt>
<trkpt lat="33.810313" lon="-118.393867">
  <ele>-0.12</ele>
  <time>2026-09-02T22:11:56Z</time>
  <course>0.0</course>
  <speed>0.0</speed>
  <fix>3d</fix>
</trkpt>
<trkpt lat="33.810313" lon="-118.393867">
  <ele>-0.123</ele>
  <time>2026-09-02T22:11:56Z</time>
  <course>185.17</course>
  <speed>0.0316227766016838</speed>
  <fix>3d</fix>
</trkpt>
<trkpt lat="33.810313" lon="-118.393867">
  <ele>-0.12</ele>
  <time>2026-09-02T22:11:56Z</time>
  <course>0.0</course>
  <speed>0.0</speed>
  <fix>3d</fix>
</trkpt>
<trkpt lat="33.810313" lon="-118.393867">
  <ele>-0.124</ele>
  <time>2026-09-02T22:11:56Z</time>
  <course>185.2</course>
  <speed>0.0316227766016838</speed>
  <fix>3d</fix>
</trkpt>
<trkpt lat="33.810313" lon="-118.393867">
  <ele>-0.12</ele>
  <time>2026-09-02T22:11:56Z</time>
  <course>0.0</course>
  <speed>0.0</speed>
  <fix>3d</fix>
</trkpt>
<trkpt lat="33.810313" lon="-118.393867">
  <ele>-0.126</ele>
  <time>2026-09-02T22:11:56Z</time>
  <course>185.23</course>
  <speed>0.0316227766016838</speed>
  <fix>3d</fix>
</trkpt>
<trkpt lat="33.810313" lon="-118.393867">
  <ele>-0.12</ele>
  <time>2026-09-02T22:11:56Z</time>
  <course>0.0</course>
  <speed>0.0</speed>
  <fix>3d</fix>
</trkpt>
<trkpt lat="33.810313" lon="-118.393867">
  <ele>-0.127</ele>
  <time>2026-09-02T22:11:56Z</time>
  <course>185.26</course>
  <speed>0.0316227766016838</speed>
  <fix>3d</fix>
</trkpt>
<trkpt lat="33.810313" lon="-118.393867">
  <ele>-0.12</ele>
  <time>2026-09-02T22:11:56Z</time>
  <course>0.0</course>
  <speed>0.0</speed>
  <fix>3d</fix>
</trkpt>
<trkpt lat="33.810313" lon="-118.393867">
  <ele>-0.128</ele>
  <time>2026-09-02T22:11:56Z</time>
  <course>185.28</course>
  <speed>0.0316227766016838</speed>
  <fix>3d</fix>
</trkpt>
<trkpt lat="33.810313" lon="-118.393867">
  <ele>-0.12</ele>
  <time>2026-09-02T22:11:56Z</time>
  <course>0.0</course>
  <speed>0.0</speed>
  <fix>3d</fix>
</trkpt>
<trkpt lat="33.810313" lon="-118.393867">
  <ele>-0.129</ele>
  <time>2026-09-02T22:11:56Z</time>
  <course>185.31</course>
  <speed>0.0316227766016838</speed>
  <fix>3d</fix>
</trkpt>
<trkpt lat="33.810313" lon="-118.393867">
  <ele>-0.12</ele>
  <time>2026-09-02T22:11:56Z</time>
  <course>0.0</course>
  <speed>0.0</speed>
  <fix>3d</fix>
</trkpt>
<trkpt lat="33.810313" lon="-118.393867">
  <ele>-0.129</ele>
  <time>2026-09-02T22:11:56Z</time>
  <course>185.33</course>
  <speed>0.0316227766016838</speed>
  <fix>3d</fix>
</trkpt>
<trkpt lat="33.810313" lon="-118.393867">
  <ele>-0.12</ele>
  <time>2026-09-02T22:11:56Z</time>
  <course>0.0</course>
  <speed>0.0</speed>
  <fix>3d</fix>
</trkpt>
<trkpt lat="33.810313" lon="-118.393867">
  <ele>-0.128</ele>
  <time>2026-09-02T22:11:56Z</time>
  <course>185.36</course>
  <speed>0.0316227766016838</speed>
  <fix>3d</fix>
</trkpt>
<trkpt lat="33.810313" lon="-118.393867">
  <ele>-0.12</ele>
  <time>2026-09-02T22:11:56Z</time>
  <course>0.0</course>
  <speed>0.0</speed>
  <fix>3d</fix>
</trkpt>
<trkpt lat="33.810313" lon="-118.393867">
  <ele>-0.128</ele>
  <time>2026-09-02T22:11:56Z</time>
  <course>185.38</course>
  <speed>0.0316227766016838</speed>
  <fix>3d</fix>
</trkpt>
<trkpt lat="33.810313" lon="-118.393867">
  <ele>-0.12</ele>
  <time>2026-09-02T22:11:56Z</time>
  <course>0.0</course>
  <speed>0.0</speed>
  <fix>3d</fix>
</trkpt>
<trkpt lat="33.810313" lon="-118.393867">
  <ele>-0.127</ele>
  <time>2026-09-02T22:11:56Z</time>
  <course>185.4</course>
  <speed>0.0316227766016838</speed>
  <fix>3d</fix>
</trkpt>
<trkpt lat="33.810313" lon="-118.393867">
  <ele>-0.12</ele>
  <time>2026-09-02T22:11:56Z</time>
  <course>0.0</course>
  <speed>0.0</speed>
  <fix>3d</fix>
</trkpt>
<trkpt lat="33.810313" lon="-118.393867">
  <ele>-0.127</ele>
  <time>2026-09-02T22:11:56Z</time>
  <course>185.42</course>
  <speed>0.0316227766016838</speed>
  <fix>3d</fix>
</trkpt>
<trkpt lat="33.810313" lon="-118.393867">
  <ele>-0.12</ele>
  <time>2026-09-02T22:11:56Z</time>
  <course>0.0</course>
  <speed>0.0</speed>
  <fix>3d</fix>
</trkpt>
<trkpt lat="33.810313" lon="-118.393867">
  <ele>-0.127</ele>
  <time>2026-09-02T22:11:56Z</time>
  <course>185.44</course>
  <speed>0.022360679774997897</speed>
  <fix>3d</fix>
</trkpt>
<trkpt lat="33.810313" lon="-118.393867">
  <ele>-0.12</ele>
  <time>2026-09-02T22:11:56Z</time>
  <course>0.0</course>
  <speed>0.0</speed>
  <fix>3d</fix>
</trkpt>
<trkpt lat="33.810313" lon="-118.393867">
  <ele>-0.129</ele>
  <time>2026-09-02T22:11:56Z</time>
  <course>185.45</course>
  <speed>0.022360679774997897</speed>
  <fix>3d</fix>
</trkpt>
<trkpt lat="33.810313" lon="-118.393867">
  <ele>-0.12</ele>
  <time>2026-09-02T22:11:56Z</time>
  <course>0.0</course>
  <speed>0.0</speed>
  <fix>3d</fix>
</trkpt>
<trkpt lat="33.810313" lon="-118.393867">
  <ele>-0.131</ele>
  <time>2026-09-02T22:11:56Z</time>
  <course>185.47</course>
  <speed>0.022360679774997897</speed>
  <fix>3d</fix>
</trkpt>
<trkpt lat="33.810313" lon="-118.393867">
  <ele>-0.12</ele>
  <time>2026-09-02T22:11:56Z</time>
  <course>0.0</course>
  <speed>0.0</speed>
  <fix>3d</fix>
</trkpt>
<trkpt lat="33.810313" lon="-118.393867">
  <ele>-0.133</ele>
  <time>2026-09-02T22:11:56Z</time>
  <course>185.49</course>
  <speed>0.022360679774997897</speed>
  <fix>3d</fix>
</trkpt>
<trkpt lat="33.810313" lon="-118.393867">
  <ele>-0.12</ele>
  <time>2026-09-02T22:11:56Z</time>
  <course>0.0</course>
  <speed>0.0</speed>
  <fix>3d</fix>
</trkpt>
<trkpt lat="33.810313" lon="-118.393867">
  <ele>-0.135</ele>
  <time>2026-09-02T22:11:56Z</time>
  <course>185.5</course>
  <speed>0.022360679774997897</speed>
  <fix>3d</fix>
</trkpt>
<trkpt lat="33.810313" lon="-118.393867">
  <ele>-0.12</ele>
  <time>2026-09-02T22:11:56Z</time>
  <course>0.0</course>
  <speed>0.0</speed>
  <fix>3d</fix>
</trkpt>
<trkpt lat="33.810313" lon="-118.393867">
  <ele>-0.136</ele>
  <time>2026-09-02T22:11:56Z</time>
  <course>185.52</course>
  <speed>0.022360679774997897</speed>
  <fix>3d</fix>
</trkpt>
<trkpt lat="33.810313" lon="-118.393867">
  <ele>-0.12</ele>
  <time>2026-09-02T22:11:56Z</time>
  <course>0.0</course>
  <speed>0.0</speed>
  <fix>3d</fix>
</trkpt>
<trkpt lat="33.810313" lon="-118.393867">
  <ele>-0.136</ele>
  <time>2026-09-02T22:11:56Z</time>
  <course>185.53</course>
  <speed>0.022360679774997897</speed>
  <fix>3d</fix>
</trkpt>
<trkpt lat="33.810313" lon="-118.393867">
  <ele>-0.12</ele>
  <time>2026-09-02T22:11:56Z</time>
  <course>0.0</course>
  <speed>0.0</speed>
  <fix>3d</fix>
</trkpt>
<trkpt lat="33.810313" lon="-118.393867">
  <ele>-0.136</ele>
  <time>2026-09-02T22:11:56Z</time>
  <course>185.54</course>
  <speed>0.022360679774997897</speed>
  <fix>3d</fix>
</trkpt>
<trkpt lat="33.810313" lon="-118.393867">
  <ele>-0.12</ele>
  <time>2026-09-02T22:11:56Z</time>
  <course>0.0</course>
  <speed>0.0</speed>
  <fix>3d</fix>
</trkpt>
<trkpt lat="33.810313" lon="-118.393867">
  <ele>-0.135</ele>
  <time>2026-09-02T22:11:56Z</time>
  <course>185.56</course>
  <speed>0.022360679774997897</speed>
  <fix>3d</fix>
</trkpt>
<trkpt lat="33.810313" lon="-118.393867">
  <ele>-0.12</ele>
  <time>2026-09-02T22:11:56Z</time>
  <course>0.0</course>
  <speed>0.0</speed>
  <fix>3d</fix>
</trkpt>
<trkpt lat="33.810313" lon="-118.393867">
  <ele>-0.134</ele>
  <time>2026-09-02T22:11:56Z</time>
  <course>185.57</course>
  <speed>0.022360679774997897</speed>
  <fix>3d</fix>
</trkpt>
<trkpt lat="33.810313" lon="-118.393867">
  <ele>-0.12</ele>
  <time>2026-09-02T22:11:56Z</time>
  <course>0.0</course>
  <speed>0.0</speed>
  <fix>3d</fix>
</trkpt>
<trkpt lat="33.810313" lon="-118.393867">
  <ele>-0.131</ele>
  <time>2026-09-02T22:11:56Z</time>
  <course>185.58</course>
  <speed>0.022360679774997897</speed>
  <fix>3d</fix>
</trkpt>
<trkpt lat="33.810313" lon="-118.393867">
  <ele>-0.12</ele>
  <time>2026-09-02T22:11:56Z</time>
  <course>0.0</course>
  <speed>0.0</speed>
  <fix>3d</fix>
</trkpt>
<trkpt lat="33.810313" lon="-118.393867">
  <ele>-0.129</ele>
  <time>2026-09-02T22:11:56Z</time>
  <course>185.59</course>
  <speed>0.022360679774997897</speed>
  <fix>3d</fix>
</trkpt>
<trkpt lat="33.810313" lon="-118.393867">
  <ele>-0.12</ele>
  <time>2026-09-02T22:11:56Z</time>
  <course>0.0</course>
  <speed>0.0</speed>
  <fix>3d</fix>
</trkpt>
<trkpt lat="33.810313" lon="-118.393867">
  <ele>-0.126</ele>
  <time>2026-09-02T22:11:56Z</time>
  <course>185.6</course>
  <speed>0.022360679774997897</speed>
  <fix>3d</fix>
</trkpt>
<trkpt lat="33.810313" lon="-118.393867">
  <ele>-0.12</ele>
  <time>2026-09-02T22:11:56Z</time>
  <course>0.0</course>
  <speed>0.0</speed>
  <fix>3d</fix>
</trkpt>
<trkpt lat="33.810313" lon="-118.393867">
  <ele>-0.126</ele>
  <time>2026-09-02T22:11:56Z</time>
  <course>185.61</course>
  <speed>0.01414213562373095</speed>
  <fix>3d</fix>
</trkpt>
<trkpt lat="33.810313" lon="-118.393867">
  <ele>-0.12</ele>
  <time>2026-09-02T22:11:56Z</time>
  <course>0.0</course>
  <speed>0.0</speed>
  <fix>3d</fix>
</trkpt>
<trkpt lat="33.810313" lon="-118.393867">
  <ele>-0.126</ele>
  <time>2026-09-02T22:11:56Z</time>
  <course>185.62</course>
  <speed>0.01414213562373095</speed>
  <fix>3d</fix>
</trkpt>
<trkpt lat="33.810313" lon="-118.393867">
  <ele>-0.12</ele>
  <time>2026-09-02T22:11:56Z</time>
  <course>0.0</course>
  <speed>0.0</speed>
  <fix>3d</fix>
</trkpt>
<trkpt lat="33.810313" lon="-118.393867">
  <ele>-0.127</ele>
  <time>2026-09-02T22:11:56Z</time>
  <course>185.62</course>
  <speed>0.01414213562373095</speed>
  <fix>3d</fix>
</trkpt>
<trkpt lat="33.810313" lon="-118.393867">
  <ele>-0.12</ele>
  <time>2026-09-02T22:11:56Z</time>
  <course>0.0</course>
  <speed>0.0</speed>
  <fix>3d</fix>
</trkpt>
<trkpt lat="33.810313" lon="-118.393867">
  <ele>-0.127</ele>
  <time>2026-09-02T22:11:56Z</time>
  <course>185.63</course>
  <speed>0.01414213562373095</speed>
  <fix>3d</fix>
</trkpt>
<trkpt lat="33.810313" lon="-118.393867">
  <ele>-0.12</ele>
  <time>2026-09-02T22:11:56Z</time>
  <course>0.0</course>
  <speed>0.0</speed>
  <fix>3d</fix>
</trkpt>
<trkpt lat="33.810313" lon="-118.393867">
  <ele>-0.127</ele>
  <time>2026-09-02T22:11:56Z</time>
  <course>185.64</course>
  <speed>0.01414213562373095</speed>
  <fix>3d</fix>
</trkpt>
<trkpt lat="33.810313" lon="-118.393867">
  <ele>-0.12</ele>
  <time>2026-09-02T22:11:56Z</time>
  <course>0.0</course>
  <speed>0.0</speed>
  <fix>3d</fix>
</trkpt>
<trkpt lat="33.810313" lon="-118.393867">
  <ele>-0.128</ele>
  <time>2026-09-02T22:11:56Z</time>
  <course>185.64</course>
  <speed>0.01414213562373095</speed>
  <fix>3d</fix>
</trkpt>
<trkpt lat="33.810313" lon="-118.393867">
  <ele>-0.12</ele>
  <time>2026-09-02T22:11:56Z</time>
  <course>0.0</course>
  <speed>0.0</speed>
  <fix>3d</fix>
</trkpt>
<trkpt lat="33.810313" lon="-118.393867">
  <ele>-0.129</ele>
  <time>2026-09-02T22:11:56Z</time>
  <course>185.65</course>
  <speed>0.01414213562373095</speed>
  <fix>3d</fix>
</trkpt>
<trkpt lat="33.810313" lon="-118.393867">
  <ele>-0.12</ele>
  <time>2026-09-02T22:11:56Z</time>
  <course>0.0</course>
  <speed>0.0</speed>
  <fix>3d</fix>
</trkpt>
<trkpt lat="33.810313" lon="-118.393867">
  <ele>-0.128</ele>
  <time>2026-09-02T22:11:56Z</time>
  <course>185.65</course>
  <speed>0.01414213562373095</speed>
  <fix>3d</fix>
</trkpt>
<trkpt lat="33.810313" lon="-118.393867">
  <ele>-0.12</ele>
  <time>2026-09-02T22:11:56Z</time>
  <course>0.0</course>
  <speed>0.0</speed>
  <fix>3d</fix>
</trkpt>
<trkpt lat="33.810313" lon="-118.393867">
  <ele>-0.126</ele>
  <time>2026-09-02T22:11:56Z</time>
  <course>185.66</course>
  <speed>0.01414213562373095</speed>
  <fix>3d</fix>
</trkpt>
<trkpt lat="33.810313" lon="-118.393867">
  <ele>-0.12</ele>
  <time>2026-09-02T22:11:56Z</time>
  <course>0.0</course>
  <speed>0.0</speed>
  <fix>3d</fix>
</trkpt>
<trkpt lat="33.810313" lon="-118.393867">
  <ele>-0.124</ele>
  <time>2026-09-02T22:11:56Z</time>
  <course>185.66</course>
  <speed>0.01414213562373095</speed>
  <fix>3d</fix>
</trkpt>
<trkpt lat="33.810313" lon="-118.393867">
  <ele>-0.12</ele>
  <time>2026-09-02T22:11:56Z</time>
  <course>0.0</course>
  <speed>0.0</speed>
  <fix>3d</fix>
</trkpt>
<trkpt lat="33.810313" lon="-118.393867">
  <ele>-0.121</ele>
  <time>2026-09-02T22:11:56Z</time>
  <course>185.66</course>
  <speed>0.01414213562373095</speed>
  <fix>3d</fix>
</trkpt>
<trkpt lat="33.810313" lon="-118.393867">
  <ele>-0.12</ele>
  <time>2026-09-02T22:11:56Z</time>
  <course>0.0</course>
  <speed>0.0</speed>
  <fix>3d</fix>
</trkpt>
<trkpt lat="33.810313" lon="-118.393867">
  <ele>-0.12</ele>
  <time>2026-09-02T22:11:56Z</time>
  <course>185.66</course>
  <speed>0.01414213562373095</speed>
  <fix>3d</fix>
</trkpt>
<trkpt lat="33.810313" lon="-118.393867">
  <ele>-0.12</ele>
  <time>2026-09-02T22:11:56Z</time>
  <course>0.0</course>
  <speed>0.0</speed>
  <fix>3d</fix>
</trkpt>
<trkpt lat="33.810313" lon="-118.393867">
  <ele>-0.12</ele>
  <time>2026-09-02T22:11:56Z</time>
  <course>185.67</course>
  <speed>0.01414213562373095</speed>
  <fix>3d</fix>
</trkpt>
<trkpt lat="33.810313" lon="-118.393867">
  <ele>-0.12</ele>
  <time>2026-09-02T22:11:56Z</time>
  <course>0.0</course>
  <speed>0.0</speed>
  <fix>3d</fix>
</trkpt>
<trkpt lat="33.810313" lon="-118.393867">
  <ele>-0.121</ele>
  <time>2026-09-02T22:11:56Z</time>
  <course>185.67</course>
  <speed>0.01414213562373095</speed>
  <fix>3d</fix>
</trkpt>
<trkpt lat="33.810313" lon="-118.393867">
  <ele>-0.12</ele>
  <time>2026-09-02T22:11:56Z</time>
  <course>0.0</course>
  <speed>0.0</speed>
  <fix>3d</fix>
</trkpt>
<trkpt lat="33.810313" lon="-118.393867">
  <ele>-0.125</ele>
  <time>2026-09-02T22:11:56Z</time>
  <course>185.67</course>
  <speed>0.01414213562373095</speed>
  <fix>3d</fix>
</trkpt>
<trkpt lat="33.810313" lon="-118.393867">
  <ele>-0.12</ele>
  <time>2026-09-02T22:11:56Z</time>
  <course>0.0</course>
  <speed>0.0</speed>
  <fix>3d</fix>
</trkpt>
<trkpt lat="33.810313" lon="-118.393867">
  <ele>-0.128</ele>
  <time>2026-09-02T22:11:56Z</time>
  <course>185.67</course>
  <speed>0.01414213562373095</speed>
  <fix>3d</fix>
</trkpt>
<trkpt lat="33.810313" lon="-118.393867">
  <ele>-0.12</ele>
  <time>2026-09-02T22:11:56Z</time>
  <course>0.0</course>
  <speed>0.0</speed>
  <fix>3d</fix>
</trkpt>
<trkpt lat="33.810313" lon="-118.393867">
  <ele>-0.131</ele>
  <time>2026-09-02T22:11:56Z</time>
  <course>185.67</course>
  <speed>0.01414213562373095</speed>
  <fix>3d</fix>
</trkpt>
<trkpt lat="33.810313" lon="-118.393867">
  <ele>-0.12</ele>
  <time>2026-09-02T22:11:56Z</time>
  <course>0.0</course>
  <speed>0.0</speed>
  <fix>3d</fix>
</trkpt>
<trkpt lat="33.810313" lon="-118.393867">
  <ele>-0.132</ele>
  <time>2026-09-02T22:11:56Z</time>
  <course>185.67</course>
  <speed>0.01414213562373095</speed>
  <fix>3d</fix>
</trkpt>
<trkpt lat="33.810313" lon="-118.393867">
  <ele>-0.12</ele>
  <time>2026-09-02T22:11:56Z</time>
  <course>0.0</course>
  <speed>0.0</speed>
  <fix>3d</fix>
</trkpt>
<trkpt lat="33.810313" lon="-118.393867">
  <ele>-0.132</ele>
  <time>2026-09-02T22:11:56Z</time>
  <course>185.67</course>
  <speed>0.01414213562373095</speed>
  <fix>3d</fix>
</trkpt>
<trkpt lat="33.810313" lon="-118.393867">
  <ele>-0.12</ele>
  <time>2026-09-02T22:11:56Z</time>
  <course>0.0</course>
  <speed>0.0</speed>
  <fix>3d</fix>
</trkpt>
<trkpt lat="33.810313" lon="-118.393867">
  <ele>-0.132</ele>
  <time>2026-09-02T22:11:56Z</time>
  <course>185.67</course>
  <speed>0.01414213562373095</speed>
  <fix>3d</fix>
</trkpt>
<trkpt lat="33.810313" lon="-118.393867">
  <ele>-0.12</ele>
  <time>2026-09-02T22:11:56Z</time>
  <course>0.0</course>
  <speed>0.0</speed>
  <fix>3d</fix>
</trkpt>
<trkpt lat="33.810313" lon="-118.393867">
  <ele>-0.13</ele>
  <time>2026-09-02T22:11:56Z</time>
  <course>185.67</course>
  <speed>0.01414213562373095</speed>
  <fix>3d</fix>
</trkpt>
<trkpt lat="33.810313" lon="-118.393867">
  <ele>-0.12</ele>
  <time>2026-09-02T22:11:56Z</time>
  <course>0.0</course>
  <speed>0.0</speed>
  <fix>3d</fix>
</trkpt>
<trkpt lat="33.810313" lon="-118.393867">
  <ele>-0.127</ele>
  <time>2026-09-02T22:11:56Z</time>
  <course>185.66</course>
  <speed>0.01414213562373095</speed>
  <fix>3d</fix>
</trkpt>
<trkpt lat="33.810313" lon="-118.393867">
  <ele>-0.12</ele>
  <time>2026-09-02T22:11:56Z</time>
  <course>0.0</course>
  <speed>0.0</speed>
  <fix>3d</fix>
</trkpt>
<trkpt lat="33.810313" lon="-118.393867">
  <ele>-0.124</ele>
  <time>2026-09-02T22:11:56Z</time>
  <course>185.66</course>
  <speed>0.01414213562373095</speed>
  <fix>3d</fix>
</trkpt>
<trkpt lat="33.810313" lon="-118.393867">
  <ele>-0.12</ele>
  <time>2026-09-02T22:11:56Z</time>
  <course>0.0</course>
  <speed>0.0</speed>
  <fix>3d</fix>
</trkpt>
<trkpt lat="33.810313" lon="-118.393867">
  <ele>-0.121</ele>
  <time>2026-09-02T22:11:56Z</time>
  <course>185.66</course>
  <speed>0.01414213562373095</speed>
  <fix>3d</fix>
</trkpt>
<trkpt lat="33.810313" lon="-118.393867">
  <ele>-0.12</ele>
  <time>2026-09-02T22:11:56Z</time>
  <course>0.0</course>
  <speed>0.0</speed>
  <fix>3d</fix>
</trkpt>
<trkpt lat="33.810313" lon="-118.393867">
  <ele>-0.121</ele>
  <time>2026-09-02T22:11:56Z</time>
  <course>185.66</course>
  <speed>0.01414213562373095</speed>
  <fix>3d</fix>
</trkpt>
<trkpt lat="33.810313" lon="-118.393867">
  <ele>-0.12</ele>
  <time>2026-09-02T22:11:56Z</time>
  <course>0.0</course>
  <speed>0.0</speed>
  <fix>3d</fix>
</trkpt>
<trkpt lat="33.810313" lon="-118.393867">
  <ele>-0.123</ele>
  <time>2026-09-02T22:11:56Z</time>
  <course>185.65</course>
  <speed>0.01414213562373095</speed>
  <fix>3d</fix>
</trkpt>
<trkpt lat="33.810313" lon="-118.393867">
  <ele>-0.12</ele>
  <time>2026-09-02T22:11:56Z</time>
  <course>0.0</course>
  <speed>0.0</speed>
  <fix>3d</fix>
</trkpt>
<trkpt lat="33.810313" lon="-118.393867">
  <ele>-0.124</ele>
  <time>2026-09-02T22:11:56Z</time>
  <course>185.65</course>
  <speed>0.01414213562373095</speed>
  <fix>3d</fix>
</trkpt>
<trkpt lat="33.810313" lon="-118.393867">
  <ele>-0.12</ele>
  <time>2026-09-02T22:11:56Z</time>
  <course>0.0</course>
  <speed>0.0</speed>
  <fix>3d</fix>
</trkpt>
<trkpt lat="33.810313" lon="-118.393867">
  <ele>-0.126</ele>
  <time>2026-09-02T22:11:56Z</time>
  <course>185.65</course>
  <speed>0.01414213562373095</speed>
  <fix>3d</fix>
</trkpt>
<trkpt lat="33.810313" lon="-118.393867">
  <ele>-0.12</ele>
  <time>2026-09-02T22:11:56Z</time>
  <course>0.0</course>
  <speed>0.0</speed>
  <fix>3d</fix>
</trkpt>
<trkpt lat="33.810313" lon="-118.393867">
  <ele>-0.127</ele>
  <time>2026-09-02T22:11:56Z</time>
  <course>185.64</course>
  <speed>0.01414213562373095</speed>
  <fix>3d</fix>
</trkpt>
<trkpt lat="33.810313" lon="-118.393867">
  <ele>-0.12</ele>
  <time>2026-09-02T22:11:56Z</time>
  <course>0.0</course>
  <speed>0.0</speed>
  <fix>3d</fix>
</trkpt>
<trkpt lat="33.810313" lon="-118.393867">
  <ele>-0.127</ele>
  <time>2026-09-02T22:11:56Z</time>
  <course>185.64</course>
  <speed>0.01414213562373095</speed>
  <fix>3d</fix>
</trkpt>
<trkpt lat="33.810313" lon="-118.393867">
  <ele>-0.12</ele>
  <time>2026-09-02T22:11:56Z</time>
  <course>0.0</course>
  <speed>0.0</speed>
  <fix>3d</fix>
</trkpt>
<trkpt lat="33.810313" lon="-118.393867">
  <ele>-0.127</ele>
  <time>2026-09-02T22:11:56Z</time>
  <course>185.63</course>
  <speed>0.01414213562373095</speed>
  <fix>3d</fix>
</trkpt>
<trkpt lat="33.810313" lon="-118.393867">
  <ele>-0.12</ele>
  <time>2026-09-02T22:11:56Z</time>
  <course>0.0</course>
  <speed>0.0</speed>
  <fix>3d</fix>
</trkpt>
<trkpt lat="33.810313" lon="-118.393867">
  <ele>-0.126</ele>
  <time>2026-09-02T22:11:56Z</time>
  <course>185.63</course>
  <speed>0.01414213562373095</speed>
  <fix>3d</fix>
</trkpt>
<trkpt lat="33.810313" lon="-118.393867">
  <ele>-0.12</ele>
  <time>2026-09-02T22:11:56Z</time>
  <course>0.0</course>
  <speed>0.0</speed>
  <fix>3d</fix>
</trkpt>
<trkpt lat="33.810313" lon="-118.393867">
  <ele>-0.124</ele>
  <time>2026-09-02T22:11:56Z</time>
  <course>185.62</course>
  <speed>0.01414213562373095</speed>
  <fix>3d</fix>
</trkpt>
<trkpt lat="33.810313" lon="-118.393867">
  <ele>-0.12</ele>
  <time>2026-09-02T22:11:56Z</time>
  <course>0.0</course>
  <speed>0.0</speed>
  <fix>3d</fix>
</trkpt>
<trkpt lat="33.810313" lon="-118.393867">
  <ele>-0.122</ele>
  <time>2026-09-02T22:11:56Z</time>
  <course>185.62</course>
  <speed>0.01414213562373095</speed>
  <fix>3d</fix>
</trkpt>
<trkpt lat="33.810313" lon="-118.393867">
  <ele>-0.12</ele>
  <time>2026-09-02T22:11:56Z</time>
  <course>0.0</course>
  <speed>0.0</speed>
  <fix>3d</fix>
</trkpt>
<trkpt lat="33.810313" lon="-118.393867">
  <ele>-0.119</ele>
  <time>2026-09-02T22:11:56Z</time>
  <course>185.61</course>
  <speed>0.01414213562373095</speed>
  <fix>3d</fix>
</trkpt>
<trkpt lat="33.810313" lon="-118.393867">
  <ele>-0.12</ele>
  <time>2026-09-02T22:11:56Z</time>
  <course>0.0</course>
  <speed>0.0</speed>
  <fix>3d</fix>
</trkpt>
<trkpt lat="33.810313" lon="-118.393867">
  <ele>-0.118</ele>
  <time>2026-09-02T22:11:56Z</time>
  <course>185.61</course>
  <speed>0.01414213562373095</speed>
  <fix>3d</fix>
</trkpt>
<trkpt lat="33.810313" lon="-118.393867">
  <ele>-0.12</ele>
  <time>2026-09-02T22:11:56Z</time>
  <course>0.0</course>
  <speed>0.0</speed>
  <fix>3d</fix>
</trkpt>
<trkpt lat="33.810313" lon="-118.393867">
  <ele>-0.118</ele>
  <time>2026-09-02T22:11:56Z</time>
  <course>185.6</course>
  <speed>0.01414213562373095</speed>
  <fix>3d</fix>
</trkpt>
<trkpt lat="33.810313" lon="-118.393867">
  <ele>-0.12</ele>
  <time>2026-09-02T22:11:56Z</time>
  <course>0.0</course>
  <speed>0.0</speed>
  <fix>3d</fix>
</trkpt>
<trkpt lat="33.810313" lon="-118.393867">
  <ele>-0.119</ele>
  <time>2026-09-02T22:11:56Z</time>
  <course>185.59</course>
  <speed>0.01414213562373095</speed>
  <fix>3d</fix>
</trkpt>
<trkpt lat="33.810313" lon="-118.393867">
  <ele>-0.12</ele>
  <time>2026-09-02T22:11:56Z</time>
  <course>0.0</course>
  <speed>0.0</speed>
  <fix>3d</fix>
</trkpt>
<trkpt lat="33.810313" lon="-118.393867">
  <ele>-0.12</ele>
  <time>2026-09-02T22:11:56Z</time>
  <course>185.59</course>
  <speed>0.01414213562373095</speed>
  <fix>3d</fix>
</trkpt>
<trkpt lat="33.810313" lon="-118.393867">
  <ele>-0.12</ele>
  <time>2026-09-02T22:11:56Z</time>
  <course>0.0</course>
  <speed>0.0</speed>
  <fix>3d</fix>
</trkpt>
<trkpt lat="33.810313" lon="-118.393867">
  <ele>-0.12</ele>
  <time>2026-09-02T22:11:56Z</time>
  <course>185.58</course>
  <speed>0.01414213562373095</speed>
  <fix>3d</fix>
</trkpt>
<trkpt lat="33.810313" lon="-118.393867">
  <ele>-0.12</ele>
  <time>2026-09-02T22:11:56Z</time>
  <course>0.0</course>
  <speed>0.0</speed>
  <fix>3d</fix>
</trkpt>
<trkpt lat="33.810313" lon="-118.393867">
  <ele>-0.12</ele>
  <time>2026-09-02T22:11:56Z</time>
  <course>185.58</course>
  <speed>0.01414213562373095</speed>
  <fix>3d</fix>
</trkpt>
<trkpt lat="33.810313" lon="-118.393867">
  <ele>-0.12</ele>
  <time>2026-09-02T22:11:56Z</time>
  <course>0.0</course>
  <speed>0.0</speed>
  <fix>3d</fix>
</trkpt>
<trkpt lat="33.810313" lon="-118.393867">
  <ele>-0.119</ele>
  <time>2026-09-02T22:11:56Z</time>
  <course>185.57</course>
  <speed>0.01414213562373095</speed>
  <fix>3d</fix>
</trkpt>
<trkpt lat="33.810313" lon="-118.393867">
  <ele>-0.12</ele>
  <time>2026-09-02T22:11:56Z</time>
  <course>0.0</course>
  <speed>0.0</speed>
  <fix>3d</fix>
</trkpt>
<trkpt lat="33.810313" lon="-118.393867">
  <ele>-0.118</ele>
  <time>2026-09-02T22:11:56Z</time>
  <course>185.56</course>
  <speed>0.022360679774997897</speed>
  <fix>3d</fix>
</trkpt>
<trkpt lat="33.810313" lon="-118.393867">
  <ele>-0.12</ele>
  <time>2026-09-02T22:11:56Z</time>
  <course>0.0</course>
  <speed>0.0</speed>
  <fix>3d</fix>
</trkpt>
<trkpt lat="33.810313" lon="-118.393867">
  <ele>-0.116</ele>
  <time>2026-09-02T22:11:56Z</time>
  <course>185.56</course>
  <speed>0.022360679774997897</speed>
  <fix>3d</fix>
</trkpt>
<trkpt lat="33.810313" lon="-118.393867">
  <ele>-0.12</ele>
  <time>2026-09-02T22:11:56Z</time>
  <course>0.0</course>
  <speed>0.0</speed>
  <fix>3d</fix>
</trkpt>
<trkpt lat="33.810313" lon="-118.393867">
  <ele>-0.114</ele>
  <time>2026-09-02T22:11:56Z</time>
  <course>185.55</course>
  <speed>0.022360679774997897</speed>
  <fix>3d</fix>
</trkpt>
<trkpt lat="33.810313" lon="-118.393867">
  <ele>-0.12</ele>
  <time>2026-09-02T22:11:56Z</time>
  <course>0.0</course>
  <speed>0.0</speed>
  <fix>3d</fix>
</trkpt>
<trkpt lat="33.810313" lon="-118.393867">
  <ele>-0.112</ele>
  <time>2026-09-02T22:11:56Z</time>
  <course>185.54</course>
  <speed>0.022360679774997897</speed>
  <fix>3d</fix>
</trkpt>
<trkpt lat="33.810313" lon="-118.393867">
  <ele>-0.12</ele>
  <time>2026-09-02T22:11:56Z</time>
  <course>0.0</course>
  <speed>0.0</speed>
  <fix>3d</fix>
</trkpt>
<trkpt lat="33.810313" lon="-118.393867">
  <ele>-0.113</ele>
  <time>2026-09-02T22:11:56Z</time>
  <course>185.53</course>
  <speed>0.022360679774997897</speed>
  <fix>3d</fix>
</trkpt>
<trkpt lat="33.810313" lon="-118.393867">
  <ele>-0.12</ele>
  <time>2026-09-02T22:11:56Z</time>
  <course>0.0</course>
  <speed>0.0</speed>
  <fix>3d</fix>
</trkpt>
<trkpt lat="33.810313" lon="-118.393867">
  <ele>-0.114</ele>
  <time>2026-09-02T22:11:56Z</time>
  <course>185.53</course>
  <speed>0.022360679774997897</speed>
  <fix>3d</fix>
</trkpt>
<trkpt lat="33.810313" lon="-118.393867">
  <ele>-0.12</ele>
  <time>2026-09-02T22:11:56Z</time>
  <course>0.0</course>
  <speed>0.0</speed>
  <fix>3d</fix>
</trkpt>
<trkpt lat="33.810313" lon="-118.393867">
  <ele>-0.118</ele>
  <time>2026-09-02T22:11:56Z</time>
  <course>185.52</course>
  <speed>0.022360679774997897</speed>
  <fix>3d</fix>
</trkpt>
<trkpt lat="33.810313" lon="-118.393867">
  <ele>-0.12</ele>
  <time>2026-09-02T22:11:56Z</time>
  <course>0.0</course>
  <speed>0.0</speed>
  <fix>3d</fix>
</trkpt>
<trkpt lat="33.810313" lon="-118.393867">
  <ele>-0.123</ele>
  <time>2026-09-02T22:11:56Z</time>
  <course>185.51</course>
  <speed>0.022360679774997897</speed>
  <fix>3d</fix>
</trkpt>
<trkpt lat="33.810313" lon="-118.393867">
  <ele>-0.12</ele>
  <time>2026-09-02T22:11:56Z</time>
  <course>0.0</course>
  <speed>0.0</speed>
  <fix>3d</fix>
</trkpt>
<trkpt lat="33.810313" lon="-118.393867">
  <ele>-0.128</ele>
  <time>2026-09-02T22:11:56Z</time>
  <course>185.5</course>
  <speed>0.022360679774997897</speed>
  <fix>3d</fix>
</trkpt>
<trkpt lat="33.810313" lon="-118.393867">
  <ele>-0.12</ele>
  <time>2026-09-02T22:11:56Z</time>
  <course>0.0</course>
  <speed>0.0</speed>
  <fix>3d</fix>
</trkpt>
<trkpt lat="33.810313" lon="-118.393867">
  <ele>-0.132</ele>
  <time>2026-09-02T22:11:56Z</time>
  <course>185.5</course>
  <speed>0.022360679774997897</speed>
  <fix>3d</fix>
</trkpt>
<trkpt lat="33.810313" lon="-118.393867">
  <ele>-0.12</ele>
  <time>2026-09-02T22:11:56Z</time>
  <course>0.0</course>
  <speed>0.0</speed>
  <fix>3d</fix>
</trkpt>
<trkpt lat="33.810313" lon="-118.393867">
  <ele>-0.134</ele>
  <time>2026-09-02T22:11:56Z</time>
  <course>185.49</course>
  <speed>0.022360679774997897</speed>
  <fix>3d</fix>
</trkpt>
<trkpt lat="33.810313" lon="-118.393867">
  <ele>-0.12</ele>
  <time>2026-09-02T22:11:56Z</time>
  <course>0.0</course>
  <speed>0.0</speed>
  <fix>3d</fix>
</trkpt>
<trkpt lat="33.810313" lon="-118.393867">
  <ele>-0.135</ele>
  <time>2026-09-02T22:11:56Z</time>
  <course>185.48</course>
  <speed>0.022360679774997897</speed>
  <fix>3d</fix>
</trkpt>
<trkpt lat="33.810313" lon="-118.393867">
  <ele>-0.12</ele>
  <time>2026-09-02T22:11:56Z</time>
  <course>0.0</course>
  <speed>0.0</speed>
  <fix>3d</fix>
</trkpt>
<trkpt lat="33.810313" lon="-118.393867">
  <ele>-0.135</ele>
  <time>2026-09-02T22:11:56Z</time>
  <course>185.47</course>
  <speed>0.022360679774997897</speed>
  <fix>3d</fix>
</trkpt>
<trkpt lat="33.810313" lon="-118.393867">
  <ele>-0.12</ele>
  <time>2026-09-02T22:11:56Z</time>
  <course>0.0</course>
  <speed>0.0</speed>
  <fix>3d</fix>
</trkpt>
<trkpt lat="33.810313" lon="-118.393867">
  <ele>-0.133</ele>
  <time>2026-09-02T22:11:56Z</time>
  <course>185.47</course>
  <speed>0.022360679774997897</speed>
  <fix>3d</fix>
</trkpt>
<trkpt lat="33.810313" lon="-118.393867">
  <ele>-0.12</ele>
  <time>2026-09-02T22:11:56Z</time>
  <course>0.0</course>
  <speed>0.0</speed>
  <fix>3d</fix>
</trkpt>
<trkpt lat="33.810313" lon="-118.393867">
  <ele>-0.132</ele>
  <time>2026-09-02T22:11:56Z</time>
  <course>185.46</course>
  <speed>0.022360679774997897</speed>
  <fix>3d</fix>
</trkpt>
<trkpt lat="33.810313" lon="-118.393867">
  <ele>-0.12</ele>
  <time>2026-09-02T22:11:56Z</time>
  <course>0.0</course>
  <speed>0.0</speed>
  <fix>3d</fix>
</trkpt>
<trkpt lat="33.810313" lon="-118.393867">
  <ele>-0.132</ele>
  <time>2026-09-02T22:11:56Z</time>
  <course>185.45</course>
  <speed>0.022360679774997897</speed>
  <fix>3d</fix>
</trkpt>
<trkpt lat="33.810313" lon="-118.393867">
  <ele>-0.12</ele>
  <time>2026-09-02T22:11:56Z</time>
  <course>0.0</course>
  <speed>0.0</speed>
  <fix>3d</fix>
</trkpt>
<trkpt lat="33.810313" lon="-118.393867">
  <ele>-0.132</ele>
  <time>2026-09-02T22:11:56Z</time>
  <course>185.44</course>
  <speed>0.022360679774997897</speed>
  <fix>3d</fix>
</trkpt>
<trkpt lat="33.810313" lon="-118.393867">
  <ele>-0.12</ele>
  <time>2026-09-02T22:11:56Z</time>
  <course>0.0</course>
  <speed>0.0</speed>
  <fix>3d</fix>
</trkpt>
<trkpt lat="33.810313" lon="-118.393867">
  <ele>-0.133</ele>
  <time>2026-09-02T22:11:56Z</time>
  <course>185.43</course>
  <speed>0.022360679774997897</speed>
  <fix>3d</fix>
</trkpt>
<trkpt lat="33.810313" lon="-118.393867">
  <ele>-0.12</ele>
  <time>2026-09-02T22:11:56Z</time>
  <course>0.0</course>
  <speed>0.0</speed>
  <fix>3d</fix>
</trkpt>
<trkpt lat="33.810313" lon="-118.393867">
  <ele>-0.134</ele>
  <time>2026-09-02T22:11:56Z</time>
  <course>185.42</course>
  <speed>0.022360679774997897</speed>
  <fix>3d</fix>
</trkpt>
<trkpt lat="33.810313" lon="-118.393867">
  <ele>-0.12</ele>
  <time>2026-09-02T22:11:56Z</time>
  <course>0.0</course>
  <speed>0.0</speed>
  <fix>3d</fix>
</trkpt>
<trkpt lat="33.810313" lon="-118.393867">
  <ele>-0.133</ele>
  <time>2026-09-02T22:11:56Z</time>
  <course>185.42</course>
  <speed>0.022360679774997897</speed>
  <fix>3d</fix>
</trkpt>
<trkpt lat="33.810313" lon="-118.393867">
  <ele>-0.12</ele>
  <time>2026-09-02T22:11:56Z</time>
  <course>0.0</course>
  <speed>0.0</speed>
  <fix>3d</fix>
</trkpt>
<trkpt lat="33.810313" lon="-118.393867">
  <ele>-0.132</ele>
  <time>2026-09-02T22:11:56Z</time>
  <course>185.41</course>
  <speed>0.022360679774997897</speed>
  <fix>3d</fix>
</trkpt>
<trkpt lat="33.810313" lon="-118.393867">
  <ele>-0.12</ele>
  <time>2026-09-02T22:11:56Z</time>
  <course>0.0</course>
  <speed>0.0</speed>
  <fix>3d</fix>
</trkpt>
<trkpt lat="33.810313" lon="-118.393867">
  <ele>-0.13</ele>
  <time>2026-09-02T22:11:56Z</time>
  <course>185.4</course>
  <speed>0.022360679774997897</speed>
  <fix>3d</fix>
</trkpt>
<trkpt lat="33.810313" lon="-118.393867">
  <ele>-0.12</ele>
  <time>2026-09-02T22:11:56Z</time>
  <course>0.0</course>
  <speed>0.0</speed>
  <fix>3d</fix>
</trkpt>
<trkpt lat="33.810313" lon="-118.393867">
  <ele>-0.128</ele>
  <time>2026-09-02T22:11:56Z</time>
  <course>185.39</course>
  <speed>0.022360679774997897</speed>
  <fix>3d</fix>
</trkpt>
<trkpt lat="33.810313" lon="-118.393867">
  <ele>-0.12</ele>
  <time>2026-09-02T22:11:56Z</time>
  <course>0.0</course>
  <speed>0.0</speed>
  <fix>3d</fix>
</trkpt>
<trkpt lat="33.810313" lon="-118.393867">
  <ele>-0.125</ele>
  <time>2026-09-02T22:11:56Z</time>
  <course>185.38</course>
  <speed>0.022360679774997897</speed>
  <fix>3d</fix>
</trkpt>
<trkpt lat="33.810313" lon="-118.393867">
  <ele>-0.12</ele>
  <time>2026-09-02T22:11:56Z</time>
  <course>0.0</course>
  <speed>0.0</speed>
  <fix>3d</fix>
</trkpt>
<trkpt lat="33.810313" lon="-118.393867">
  <ele>-0.122</ele>
  <time>2026-09-02T22:11:56Z</time>
  <course>185.37</course>
  <speed>0.022360679774997897</speed>
  <fix>3d</fix>
</trkpt>
<trkpt lat="33.810313" lon="-118.393867">
  <ele>-0.12</ele>
  <time>2026-09-02T22:11:56Z</time>
  <course>0.0</course>
  <speed>0.0</speed>
  <fix>3d</fix>
</trkpt>
<trkpt lat="33.810313" lon="-118.393867">
  <ele>-0.119</ele>
  <time>2026-09-02T22:11:56Z</time>
  <course>185.36</course>
  <speed>0.022360679774997897</speed>
  <fix>3d</fix>
</trkpt>
<trkpt lat="33.810313" lon="-118.393867">
  <ele>-0.12</ele>
  <time>2026-09-02T22:11:56Z</time>
  <course>0.0</course>
  <speed>0.0</speed>
  <fix>3d</fix>
</trkpt>
<trkpt lat="33.810313" lon="-118.393867">
  <ele>-0.117</ele>
  <time>2026-09-02T22:11:56Z</time>
  <course>185.35</course>
  <speed>0.022360679774997897</speed>
  <fix>3d</fix>
</trkpt>
<trkpt lat="33.810313" lon="-118.393867">
  <ele>-0.12</ele>
  <time>2026-09-02T22:11:56Z</time>
  <course>0.0</course>
  <speed>0.0</speed>
  <fix>3d</fix>
</trkpt>
<trkpt lat="33.810313" lon="-118.393867">
  <ele>-0.117</ele>
  <time>2026-09-02T22:11:56Z</time>
  <course>185.35</course>
  <speed>0.022360679774997897</speed>
  <fix>3d</fix>
</trkpt>
<trkpt lat="33.810313" lon="-118.393867">
  <ele>-0.12</ele>
  <time>2026-09-02T22:11:56Z</time>
  <course>0.0</course>
  <speed>0.0</speed>
  <fix>3d</fix>
</trkpt>
<trkpt lat="33.810313" lon="-118.393867">
  <ele>-0.118</ele>
  <time>2026-09-02T22:11:56Z</time>
  <course>185.34</course>
  <speed>0.022360679774997897</speed>
  <fix>3d</fix>
</trkpt>
<trkpt lat="33.810313" lon="-118.393867">
  <ele>-0.12</ele>
  <time>2026-09-02T22:11:56Z</time>
  <course>0.0</course>
  <speed>0.0</speed>
  <fix>3d</fix>
</trkpt>
<trkpt lat="33.810313" lon="-118.393867">
  <ele>-0.119</ele>
  <time>2026-09-02T22:11:56Z</time>
  <course>185.33</course>
  <speed>0.022360679774997897</speed>
  <fix>3d</fix>
</trkpt>
<trkpt lat="33.810313" lon="-118.393867">
  <ele>-0.12</ele>
  <time>2026-09-02T22:11:56Z</time>
  <course>0.0</course>
  <speed>0.0</speed>
  <fix>3d</fix>
</trkpt>
<trkpt lat="33.810313" lon="-118.393867">
  <ele>-0.12</ele>
  <time>2026-09-02T22:11:56Z</time>
  <course>185.32</course>
  <speed>0.022360679774997897</speed>
  <fix>3d</fix>
</trkpt>
<trkpt lat="33.810313" lon="-118.393867">
  <ele>-0.12</ele>
  <time>2026-09-02T22:11:56Z</time>
  <course>0.0</course>
  <speed>0.0</speed>
  <fix>3d</fix>
</trkpt>
<trkpt lat="33.810313" lon="-118.393867">
  <ele>-0.121</ele>
  <time>2026-09-02T22:11:56Z</time>
  <course>185.31</course>
  <speed>0.022360679774997897</speed>
  <fix>3d</fix>
</trkpt>
<trkpt lat="33.810313" lon="-118.393867">
  <ele>-0.12</ele>
  <time>2026-09-02T22:11:56Z</time>
  <course>0.0</course>
  <speed>0.0</speed>
  <fix>3d</fix>
</trkpt>
<trkpt lat="33.810313" lon="-118.393867">
  <ele>-0.121</ele>
  <time>2026-09-02T22:11:56Z</time>
  <course>185.3</course>
  <speed>0.022360679774997897</speed>
  <fix>3d</fix>
</trkpt>
<trkpt lat="33.810313" lon="-118.393867">
  <ele>-0.12</ele>
  <time>2026-09-02T22:11:56Z</time>
  <course>0.0</course>
  <speed>0.0</speed>
  <fix>3d</fix>
</trkpt>
<trkpt lat="33.810313" lon="-118.393867">
  <ele>-0.121</ele>
  <time>2026-09-02T22:11:56Z</time>
  <course>185.29</course>
  <speed>0.022360679774997897</speed>
  <fix>3d</fix>
</trkpt>
<trkpt lat="33.810313" lon="-118.393867">
  <ele>-0.12</ele>
  <time>2026-09-02T22:11:56Z</time>
  <course>0.0</course>
  <speed>0.0</speed>
  <fix>3d</fix>
</trkpt>
<trkpt lat="33.810313" lon="-118.393867">
  <ele>-0.121</ele>
  <time>2026-09-02T22:11:56Z</time>
  <course>185.28</course>
  <speed>0.022360679774997897</speed>
  <fix>3d</fix>
</trkpt>
<trkpt lat="33.810313" lon="-118.393867">
  <ele>-0.12</ele>
  <time>2026-09-02T22:11:56Z</time>
  <course>0.0</course>
  <speed>0.0</speed>
  <fix>3d</fix>
</trkpt>
<trkpt lat="33.810313" lon="-118.393867">
  <ele>-0.121</ele>
  <time>2026-09-02T22:11:56Z</time>
  <course>185.28</course>
  <speed>0.022360679774997897</speed>
  <fix>3d</fix>
</trkpt>
<trkpt lat="33.810313" lon="-118.393867">
  <ele>-0.12</ele>
  <time>2026-09-02T22:11:56Z</time>
  <course>0.0</course>
  <speed>0.0</speed>
  <fix>3d</fix>
</trkpt>
<trkpt lat="33.810313" lon="-118.393867">
  <ele>-0.121</ele>
  <time>2026-09-02T22:11:56Z</time>
  <course>185.27</course>
  <speed>0.022360679774997897</speed>
  <fix>3d</fix>
</trkpt>
<trkpt lat="33.810313" lon="-118.393867">
  <ele>-0.12</ele>
  <time>2026-09-02T22:11:56Z</time>
  <course>0.0</course>
  <speed>0.0</speed>
  <fix>3d</fix>
</trkpt>
<trkpt lat="33.810313" lon="-118.393867">
  <ele>-0.122</ele>
  <time>2026-09-02T22:11:56Z</time>
  <course>185.26</course>
  <speed>0.022360679774997897</speed>
  <fix>3d</fix>
</trkpt>
<trkpt lat="33.810313" lon="-118.393867">
  <ele>-0.12</ele>
  <time>2026-09-02T22:11:56Z</time>
  <course>0.0</course>
  <speed>0.0</speed>
  <fix>3d</fix>
</trkpt>
<trkpt lat="33.810313" lon="-118.393867">
  <ele>-0.124</ele>
  <time>2026-09-02T22:11:56Z</time>
  <course>185.25</course>
  <speed>0.022360679774997897</speed>
  <fix>3d</fix>
</trkpt>
<trkpt lat="33.810313" lon="-118.393867">
  <ele>-0.12</ele>
  <time>2026-09-02T22:11:56Z</time>
  <course>0.0</course>
  <speed>0.0</speed>
  <fix>3d</fix>
</trkpt>
<trkpt lat="33.810313" lon="-118.393867">
  <ele>-0.127</ele>
  <time>2026-09-02T22:11:56Z</time>
  <course>185.24</course>
  <speed>0.022360679774997897</speed>
  <fix>3d</fix>
</trkpt>
<trkpt lat="33.810313" lon="-118.393867">
  <ele>-0.12</ele>
  <time>2026-09-02T22:11:56Z</time>
  <course>0.0</course>
  <speed>0.0</speed>
  <fix>3d</fix>
</trkpt>
<trkpt lat="33.810313" lon="-118.393867">
  <ele>-0.129</ele>
  <time>2026-09-02T22:11:56Z</time>
  <course>185.23</course>
  <speed>0.022360679774997897</speed>
  <fix>3d</fix>
</trkpt>
<trkpt lat="33.810313" lon="-118.393867">
  <ele>-0.12</ele>
  <time>2026-09-02T22:11:56Z</time>
  <course>0.0</course>
  <speed>0.0</speed>
  <fix>3d</fix>
</trkpt>
<trkpt lat="33.810313" lon="-118.393867">
  <ele>-0.131</ele>
  <time>2026-09-02T22:11:56Z</time>
  <course>185.22</course>
  <speed>0.022360679774997897</speed>
  <fix>3d</fix>
</trkpt>
<trkpt lat="33.810313" lon="-118.393867">
  <ele>-0.12</ele>
  <time>2026-09-02T22:11:56Z</time>
  <course>0.0</course>
  <speed>0.0</speed>
  <fix>3d</fix>
</trkpt>
<trkpt lat="33.810313" lon="-118.393867">
  <ele>-0.132</ele>
  <time>2026-09-02T22:11:56Z</time>
  <course>185.21</course>
  <speed>0.022360679774997897</speed>
  <fix>3d</fix>
</trkpt>
<trkpt lat="33.810313" lon="-118.393867">
  <ele>-0.12</ele>
  <time>2026-09-02T22:11:56Z</time>
  <course>0.0</course>
  <speed>0.0</speed>
  <fix>3d</fix>
</trkpt>
<trkpt lat="33.810313" lon="-118.393867">
  <ele>-0.132</ele>
  <time>2026-09-02T22:11:56Z</time>
  <course>185.21</course>
  <speed>0.022360679774997897</speed>
  <fix>3d</fix>
</trkpt>
<trkpt lat="33.810313" lon="-118.393867">
  <ele>-0.12</ele>
  <time>2026-09-02T22:11:56Z</time>
  <course>0.0</course>
  <speed>0.0</speed>
  <fix>3d</fix>
</trkpt>
<trkpt lat="33.810313" lon="-118.393867">
  <ele>-0.132</ele>
  <time>2026-09-02T22:11:56Z</time>
  <course>185.2</course>
  <speed>0.022360679774997897</speed>
  <fix>3d</fix>
</trkpt>
<trkpt lat="33.810313" lon="-118.393867">
  <ele>-0.12</ele>
  <time>2026-09-02T22:11:56Z</time>
  <course>0.0</course>
  <speed>0.0</speed>
  <fix>3d</fix>
</trkpt>
<trkpt lat="33.810313" lon="-118.393867">
  <ele>-0.132</ele>
  <time>2026-09-02T22:11:56Z</time>
  <course>185.19</course>
  <speed>0.0</speed>
  <fix>3d</fix>
</trkpt>
<trkpt lat="33.810313" lon="-118.393867">
  <ele>-0.12</ele>
  <time>2026-09-02T22:11:56Z</time>
  <course>0.0</course>
  <speed>0.0</speed>
  <fix>3d</fix>
</trkpt>
<trkpt lat="33.810313" lon="-118.393867">
  <ele>-0.131</ele>
  <time>2026-09-02T22:11:56Z</time>
  <course>185.18</course>
  <speed>0.0</speed>
  <fix>3d</fix>
</trkpt>
<trkpt lat="33.810313" lon="-118.393867">
  <ele>-0.12</ele>
  <time>2026-09-02T22:11:56Z</time>
  <course>0.0</course>
  <speed>0.0</speed>
  <fix>3d</fix>
</trkpt>
<trkpt lat="33.810313" lon="-118.393867">
  <ele>-0.131</ele>
  <time>2026-09-02T22:11:56Z</time>
  <course>185.17</course>
  <speed>0.0</speed>
  <fix>3d</fix>
</trkpt>
<trkpt lat="33.810313" lon="-118.393867">
  <ele>-0.12</ele>
  <time>2026-09-02T22:11:56Z</time>
  <course>0.0</course>
  <speed>0.0</speed>
  <fix>3d</fix>
</trkpt>
<trkpt lat="33.810313" lon="-118.393867">
  <ele>-0.132</ele>
  <time>2026-09-02T22:11:56Z</time>
  <course>185.16</course>
  <speed>0.0</speed>
  <fix>3d</fix>
</trkpt>
<trkpt lat="33.810313" lon="-118.393867">
  <ele>-0.12</ele>
  <time>2026-09-02T22:11:56Z</time>
  <course>0.0</course>
  <speed>0.0</speed>
  <fix>3d</fix>
</trkpt>
<trkpt lat="33.810313" lon="-118.393867">
  <ele>-0.134</ele>
  <time>2026-09-02T22:11:56Z</time>
  <course>185.15</course>
  <speed>0.0</speed>
  <fix>3d</fix>
</trkpt>
<trkpt lat="33.810313" lon="-118.393867">
  <ele>-0.12</ele>
  <time>2026-09-02T22:11:56Z</time>
  <course>0.0</course>
  <speed>0.0</speed>
  <fix>3d</fix>
</trkpt>
<trkpt lat="33.810313" lon="-118.393867">
  <ele>-0.137</ele>
  <time>2026-09-02T22:11:56Z</time>
  <course>185.14</course>
  <speed>0.0</speed>
  <fix>3d</fix>
</trkpt>
<trkpt lat="33.810313" lon="-118.393867">
  <ele>-0.12</ele>
  <time>2026-09-02T22:11:56Z</time>
  <course>0.0</course>
  <speed>0.0</speed>
  <fix>3d</fix>
</trkpt>
<trkpt lat="33.810313" lon="-118.393867">
  <ele>-0.139</ele>
  <time>2026-09-02T22:11:56Z</time>
  <course>185.14</course>
  <speed>0.0</speed>
  <fix>3d</fix>
</trkpt>
<trkpt lat="33.810313" lon="-118.393867">
  <ele>-0.12</ele>
  <time>2026-09-02T22:11:56Z</time>
  <course>0.0</course>
  <speed>0.0</speed>
  <fix>3d</fix>
</trkpt>
<trkpt lat="33.810313" lon="-118.393867">
  <ele>-0.141</ele>
  <time>2026-09-02T22:11:56Z</time>
  <course>185.13</course>
  <speed>0.0</speed>
  <fix>3d</fix>
</trkpt>
<trkpt lat="33.810313" lon="-118.393867">
  <ele>-0.12</ele>
  <time>2026-09-02T22:11:56Z</time>
  <course>0.0</course>
  <speed>0.0</speed>
  <fix>3d</fix>
</trkpt>
<trkpt lat="33.810313" lon="-118.393867">
  <ele>-0.141</ele>
  <time>2026-09-02T22:11:56Z</time>
  <course>185.12</course>
  <speed>0.0</speed>
  <fix>3d</fix>
</trkpt>
<trkpt lat="33.810313" lon="-118.393867">
  <ele>-0.12</ele>
  <time>2026-09-02T22:11:56Z</time>
  <course>0.0</course>
  <speed>0.0</speed>
  <fix>3d</fix>
</trkpt>
<trkpt lat="33.810313" lon="-118.393867">
  <ele>-0.139</ele>
  <time>2026-09-02T22:11:56Z</time>
  <course>185.11</course>
  <speed>0.0</speed>
  <fix>3d</fix>
</trkpt>
<trkpt lat="33.810313" lon="-118.393867">
  <ele>-0.12</ele>
  <time>2026-09-02T22:11:56Z</time>
  <course>0.0</course>
  <speed>0.0</speed>
  <fix>3d</fix>
</trkpt>
<trkpt lat="33.810313" lon="-118.393867">
  <ele>-0.136</ele>
  <time>2026-09-02T22:11:56Z</time>
  <course>185.1</course>
  <speed>0.0</speed>
  <fix>3d</fix>
</trkpt>
<trkpt lat="33.810313" lon="-118.393867">
  <ele>-0.12</ele>
  <time>2026-09-02T22:11:56Z</time>
  <course>0.0</course>
  <speed>0.0</speed>
  <fix>3d</fix>
</trkpt>
<trkpt lat="33.810313" lon="-118.393867">
  <ele>-0.133</ele>
  <time>2026-09-02T22:11:56Z</time>
  <course>185.09</course>
  <speed>0.0</speed>
  <fix>3d</fix>
</trkpt>
<trkpt lat="33.810313" lon="-118.393867">
  <ele>-0.12</ele>
  <time>2026-09-02T22:11:56Z</time>
  <course>0.0</course>
  <speed>0.0</speed>
  <fix>3d</fix>
</trkpt>
<trkpt lat="33.810313" lon="-118.393867">
  <ele>-0.129</ele>
  <time>2026-09-02T22:11:56Z</time>
  <course>185.08</course>
  <speed>0.0</speed>
  <fix>3d</fix>
</trkpt>
<trkpt lat="33.810313" lon="-118.393867">
  <ele>-0.12</ele>
  <time>2026-09-02T22:11:56Z</time>
  <course>0.0</course>
  <speed>0.0</speed>
  <fix>3d</fix>
</trkpt>
<trkpt lat="33.810313" lon="-118.393867">
  <ele>-0.127</ele>
  <time>2026-09-02T22:11:56Z</time>
  <course>185.07</course>
  <speed>0.0</speed>
  <fix>3d</fix>
</trkpt>
<trkpt lat="33.810313" lon="-118.393867">
  <ele>-0.12</ele>
  <time>2026-09-02T22:11:56Z</time>
  <course>0.0</course>
  <speed>0.0</speed>
  <fix>3d</fix>
</trkpt>
<trkpt lat="33.810313" lon="-118.393867">
  <ele>-0.126</ele>
  <time>2026-09-02T22:11:56Z</time>
  <course>185.07</course>
  <speed>0.0</speed>
  <fix>3d</fix>
</trkpt>
<trkpt lat="33.810313" lon="-118.393867">
  <ele>-0.12</ele>
  <time>2026-09-02T22:11:56Z</time>
  <course>0.0</course>
  <speed>0.0</speed>
  <fix>3d</fix>
</trkpt>
<trkpt lat="33.810313" lon="-118.393867">
  <ele>-0.126</ele>
  <time>2026-09-02T22:11:56Z</time>
  <course>185.06</course>
  <speed>0.01</speed>
  <fix>3d</fix>
</trkpt>
<trkpt lat="33.810313" lon="-118.393867">
  <ele>-0.12</ele>
  <time>2026-09-02T22:11:56Z</time>
  <course>0.0</course>
  <speed>0.0</speed>
  <fix>3d</fix>
</trkpt>
<trkpt lat="33.810313" lon="-118.393867">
  <ele>-0.126</ele>
  <time>2026-09-02T22:11:56Z</time>
  <course>185.05</course>
  <speed>0.01</speed>
  <fix>3d</fix>
</trkpt>
<trkpt lat="33.810313" lon="-118.393867">
  <ele>-0.12</ele>
  <time>2026-09-02T22:11:56Z</time>
  <course>0.0</course>
  <speed>0.0</speed>
  <fix>3d</fix>
</trkpt>
<trkpt lat="33.810313" lon="-118.393867">
  <ele>-0.126</ele>
  <time>2026-09-02T22:11:56Z</time>
  <course>185.04</course>
  <speed>0.01</speed>
  <fix>3d</fix>
</trkpt>
<trkpt lat="33.810313" lon="-118.393867">
  <ele>-0.12</ele>
  <time>2026-09-02T22:11:56Z</time>
  <course>0.0</course>
  <speed>0.0</speed>
  <fix>3d</fix>
</trkpt>
<trkpt lat="33.810313" lon="-118.393867">
  <ele>-0.126</ele>
  <time>2026-09-02T22:11:56Z</time>
  <course>185.03</course>
  <speed>0.01</speed>
  <fix>3d</fix>
</trkpt>
<trkpt lat="33.810313" lon="-118.393867">
  <ele>-0.12</ele>
  <time>2026-09-02T22:11:56Z</time>
  <course>0.0</course>
  <speed>0.0</speed>
  <fix>3d</fix>
</trkpt>
<trkpt lat="33.810313" lon="-118.393867">
  <ele>-0.125</ele>
  <time>2026-09-02T22:11:56Z</time>
  <course>185.02</course>
  <speed>0.01</speed>
  <fix>3d</fix>
</trkpt>
<trkpt lat="33.810313" lon="-118.393867">
  <ele>-0.12</ele>
  <time>2026-09-02T22:11:56Z</time>
  <course>0.0</course>
  <speed>0.0</speed>
  <fix>3d</fix>
</trkpt>
<trkpt lat="33.4368002" lon="-117.0859339">
  <ele>-0.11</ele>
  <time>2026-09-02T22:11:57Z</time>
  <course>0.0</course>
  <speed>0.0</speed>
  <fix>3d</fix>
</trkpt>
<trkpt lat="33.4368002" lon="-117.0859339">
  <ele>-0.11</ele>
  <time>2026-09-02T22:11:57Z</time>
  <course>0.0</course>
  <speed>0.0</speed>
  <fix>3d</fix>
</trkpt>
<trkpt lat="33.810313" lon="-118.393867">
  <ele>0.0</ele>
  <time>2026-09-02T22:11:57Z</time>
  <course>173.5</course>
  <speed>0.0</speed>
  <fix>3d</fix>
</trkpt>
<trkpt lat="33.810313" lon="-118.393867">
  <ele>-0.11</ele>
  <time>2026-09-02T22:11:57Z</time>
  <course>0.0</course>
  <speed>0.0</speed>
  <fix>3d</fix>
</trkpt>
<trkpt lat="33.810313" lon="-118.393867">
  <ele>0.0</ele>
  <time>2026-09-02T22:11:57Z</time>
  <course>173.57</course>
  <speed>0.0</speed>
  <fix>3d</fix>
</trkpt>
<trkpt lat="33.810313" lon="-118.393867">
  <ele>-0.11</ele>
  <time>2026-09-02T22:11:57Z</time>
  <course>0.0</course>
  <speed>0.0</speed>
  <fix>3d</fix>
</trkpt>
<trkpt lat="33.810313" lon="-118.393867">
  <ele>0.0</ele>
  <time>2026-09-02T22:11:57Z</time>
  <course>173.8</course>
  <speed>0.0</speed>
  <fix>3d</fix>
</trkpt>
<trkpt lat="33.810313" lon="-118.393867">
  <ele>-0.11</ele>
  <time>2026-09-02T22:11:57Z</time>
  <course>0.0</course>
  <speed>0.0</speed>
  <fix>3d</fix>
</trkpt>
<trkpt lat="33.810313" lon="-118.393867">
  <ele>0.0</ele>
  <time>2026-09-02T22:11:57Z</time>
  <course>174.12</course>
  <speed>0.01</speed>
  <fix>3d</fix>
</trkpt>
<trkpt lat="33.810313" lon="-118.393867">
  <ele>-0.11</ele>
  <time>2026-09-02T22:11:57Z</time>
  <course>0.0</course>
  <speed>0.0</speed>
  <fix>3d</fix>
</trkpt>
<trkpt lat="33.810313" lon="-118.393867">
  <ele>0.0</ele>
  <time>2026-09-02T22:11:57Z</time>
  <course>174.47</course>
  <speed>0.02</speed>
  <fix>3d</fix>
</trkpt>
<trkpt lat="33.810313" lon="-118.393867">
  <ele>-0.12</ele>
  <time>2026-09-02T22:11:57Z</time>
  <course>0.0</course>
  <speed>0.0</speed>
  <fix>3d</fix>
</trkpt>
<trkpt lat="33.810313" lon="-118.393867">
  <ele>0.0</ele>
  <time>2026-09-02T22:11:57Z</time>
  <course>174.8</course>
  <speed>0.03</speed>
  <fix>3d</fix>
</trkpt>
<trkpt lat="33.810313" lon="-118.393867">
  <ele>-0.12</ele>
  <time>2026-09-02T22:11:57Z</time>
  <course>0.0</course>
  <speed>0.0</speed>
  <fix>3d</fix>
</trkpt>
<trkpt lat="33.810313" lon="-118.393867">
  <ele>0.0</ele>
  <time>2026-09-02T22:11:57Z</time>
  <course>175.1</course>
  <speed>0.04</speed>
  <fix>3d</fix>
</trkpt>
<trkpt lat="33.810313" lon="-118.393867">
  <ele>-0.13</ele>
  <time>2026-09-02T22:11:57Z</time>
  <course>0.0</course>
  <speed>0.0</speed>
  <fix>3d</fix>
</trkpt>
<trkpt lat="33.810313" lon="-118.393867">
  <ele>0.0</ele>
  <time>2026-09-02T22:11:57Z</time>
  <course>175.39</course>
  <speed>0.05</speed>
  <fix>3d</fix>
</trkpt>
<trkpt lat="33.810313" lon="-118.393867">
  <ele>-0.13</ele>
  <time>2026-09-02T22:11:57Z</time>
  <course>0.0</course>
  <speed>0.0</speed>
  <fix>3d</fix>
</trkpt>
<trkpt lat="33.810313" lon="-118.393867">
  <ele>0.0</ele>
  <time>2026-09-02T22:11:57Z</time>
  <course>175.67</course>
  <speed>0.06</speed>
  <fix>3d</fix>
</trkpt>
<trkpt lat="33.810313" lon="-118.393867">
  <ele>-0.13</ele>
  <time>2026-09-02T22:11:57Z</time>
  <course>0.0</course>
  <speed>0.0</speed>
  <fix>3d</fix>
</trkpt>
<trkpt lat="33.810313" lon="-118.393867">
  <ele>0.0</ele>
  <time>2026-09-02T22:11:57Z</time>
  <course>175.93</course>
  <speed>0.07</speed>
  <fix>3d</fix>
</trkpt>
<trkpt lat="33.810313" lon="-118.393867">
  <ele>-0.13</ele>
  <time>2026-09-02T22:11:57Z</time>
  <course>0.0</course>
  <speed>0.0</speed>
  <fix>3d</fix>
</trkpt>
<trkpt lat="33.810313" lon="-118.393867">
  <ele>0.0</ele>
  <time>2026-09-02T22:11:57Z</time>
  <course>176.18</course>
  <speed>0.08</speed>
  <fix>3d</fix>
</trkpt>
<trkpt lat="33.810313" lon="-118.393867">
  <ele>-0.14</ele>
  <time>2026-09-02T22:11:57Z</time>
  <course>0.0</course>
  <speed>0.0</speed>
  <fix>3d</fix>
</trkpt>
<trkpt lat="33.810313" lon="-118.393867">
  <ele>0.0</ele>
  <time>2026-09-02T22:11:57Z</time>
  <course>176.43</course>
  <speed>0.09</speed>
  <fix>3d</fix>
</trkpt>
<trkpt lat="33.810313" lon="-118.393867">
  <ele>-0.14</ele>
  <time>2026-09-02T22:11:57Z</time>
  <course>0.0</course>
  <speed>0.0</speed>
  <fix>3d</fix>
</trkpt>
<trkpt lat="33.810313" lon="-118.393867">
  <ele>0.0</ele>
  <time>2026-09-02T22:11:57Z</time>
  <course>176.66</course>
  <speed>0.1</speed>
  <fix>3d</fix>
</trkpt>
<trkpt lat="33.810313" lon="-118.393867">
  <ele>-0.14</ele>
  <time>2026-09-02T22:11:57Z</time>
  <course>0.0</course>
  <speed>0.0</speed>
  <fix>3d</fix>
</trkpt>
<trkpt lat="33.810313" lon="-118.393867">
  <ele>0.0</ele>
  <time>2026-09-02T22:11:57Z</time>
  <course>176.88</course>
  <speed>0.11</speed>
  <fix>3d</fix>
</trkpt>
<trkpt lat="33.810313" lon="-118.393867">
  <ele>-0.14</ele>
  <time>2026-09-02T22:11:57Z</time>
  <course>0.0</course>
  <speed>0.0</speed>
  <fix>3d</fix>
</trkpt>
<trkpt lat="33.810313" lon="-118.393867">
  <ele>0.0</ele>
  <time>2026-09-02T22:11:57Z</time>
  <course>177.08</course>
  <speed>0.11</speed>
  <fix>3d</fix>
</trkpt>
<trkpt lat="33.810313" lon="-118.393867">
  <ele>-0.14</ele>
  <time>2026-09-02T22:11:57Z</time>
  <course>0.0</course>
  <speed>0.0</speed>
  <fix>3d</fix>
</trkpt>
<trkpt lat="33.810313" lon="-118.393867">
  <ele>0.0</ele>
  <time>2026-09-02T22:11:57Z</time>
  <course>177.28</course>
  <speed>0.12</speed>
  <fix>3d</fix>
</trkpt>
<trkpt lat="33.810313" lon="-118.393867">
  <ele>-0.14</ele>
  <time>2026-09-02T22:11:57Z</time>
  <course>0.0</course>
  <speed>0.0</speed>
  <fix>3d</fix>
</trkpt>
<trkpt lat="33.810313" lon="-118.393867">
  <ele>0.0</ele>
  <time>2026-09-02T22:11:57Z</time>
  <course>177.48</course>
  <speed>0.12</speed>
  <fix>3d</fix>
</trkpt>
<trkpt lat="33.810313" lon="-118.393867">
  <ele>-0.14</ele>
  <time>2026-09-02T22:11:57Z</time>
  <course>0.0</course>
  <speed>0.0</speed>
  <fix>3d</fix>
</trkpt>
<trkpt lat="33.810313" lon="-118.393867">
  <ele>0.0</ele>
  <time>2026-09-02T22:11:57Z</time>
  <course>177.66</course>
  <speed>0.13</speed>
  <fix>3d</fix>
</trkpt>
<trkpt lat="33.810313" lon="-118.393867">
  <ele>-0.14</ele>
  <time>2026-09-02T22:11:57Z</time>
  <course>0.0</course>
  <speed>0.0</speed>
  <fix>3d</fix>
</trkpt>
<trkpt lat="33.810313" lon="-118.393867">
  <ele>0.0</ele>
  <time>2026-09-02T22:11:57Z</time>
  <course>177.84</course>
  <speed>0.13</speed>
  <fix>3d</fix>
</trkpt>
<trkpt lat="33.810313" lon="-118.393867">
  <ele>-0.13</ele>
  <time>2026-09-02T22:11:57Z</time>
  <course>0.0</course>
  <speed>0.0</speed>
  <fix>3d</fix>
</trkpt>
<trkpt lat="33.810313" lon="-118.393867">
  <ele>0.0</ele>
  <time>2026-09-02T22:11:57Z</time>
  <course>178.01</course>
  <speed>0.13</speed>
  <fix>3d</fix>
</trkpt>
<trkpt lat="33.810313" lon="-118.393867">
  <ele>-0.13</ele>
  <time>2026-09-02T22:11:57Z</time>
  <course>0.0</course>
  <speed>0.0</speed>
  <fix>3d</fix>
</trkpt>
<trkpt lat="33.810313" lon="-118.393867">
  <ele>0.0</ele>
  <time>2026-09-02T22:11:57Z</time>
  <course>178.17</course>
  <speed>0.13</speed>
  <fix>3d</fix>
</trkpt>
<trkpt lat="33.810313" lon="-118.393867">
  <ele>-0.12</ele>
  <time>2026-09-02T22:11:57Z</time>
  <course>0.0</course>
  <speed>0.0</speed>
  <fix>3d</fix>
</trkpt>
<trkpt lat="33.810313" lon="-118.393867">
  <ele>0.0</ele>
  <time>2026-09-02T22:11:57Z</time>
  <course>178.33</course>
  <speed>0.13</speed>
  <fix>3d</fix>
</trkpt>
<trkpt lat="33.810313" lon="-118.393867">
  <ele>-0.12</ele>
  <time>2026-09-02T22:11:57Z</time>
  <course>0.0</course>
  <speed>0.0</speed>
  <fix>3d</fix>
</trkpt>
<trkpt lat="33.810313" lon="-118.393867">
  <ele>0.0</ele>
  <time>2026-09-02T22:11:57Z</time>
  <course>178.49</course>
  <speed>0.13</speed>
  <fix>3d</fix>
</trkpt>
<trkpt lat="33.810313" lon="-118.393867">
  <ele>-0.12</ele>
  <time>2026-09-02T22:11:57Z</time>
  <course>0.0</course>
  <speed>0.0</speed>
  <fix>3d</fix>
</trkpt>
<trkpt lat="33.810313" lon="-118.393867">
  <ele>0.0</ele>
  <time>2026-09-02T22:11:57Z</time>
  <course>178.64</course>
  <speed>0.13</speed>
  <fix>3d</fix>
</trkpt>
<trkpt lat="33.810313" lon="-118.393867">
  <ele>-0.12</ele>
  <time>2026-09-02T22:11:57Z</time>
  <course>0.0</course>
  <speed>0.0</speed>
  <fix>3d</fix>
</trkpt>
<trkpt lat="33.810313" lon="-118.393867">
  <ele>0.0</ele>
  <time>2026-09-02T22:11:57Z</time>
  <course>178.78</course>
  <speed>0.13</speed>
  <fix>3d</fix>
</trkpt>
<trkpt lat="33.810313" lon="-118.393867">
  <ele>-0.11</ele>
  <time>2026-09-02T22:11:57Z</time>
  <course>0.0</course>
  <speed>0.0</speed>
  <fix>3d</fix>
</trkpt>
<trkpt lat="33.810313" lon="-118.393867">
  <ele>0.0</ele>
  <time>2026-09-02T22:11:57Z</time>
  <course>178.93</course>
  <speed>0.13</speed>
  <fix>3d</fix>
</trkpt>
<trkpt lat="33.810313" lon="-118.393867">
  <ele>-0.11</ele>
  <time>2026-09-02T22:11:57Z</time>
  <course>0.0</course>
  <speed>0.0</speed>
  <fix>3d</fix>
</trkpt>
<trkpt lat="33.810313" lon="-118.393867">
  <ele>0.0</ele>
  <time>2026-09-02T22:11:57Z</time>
  <course>179.06</course>
  <speed>0.13</speed>
  <fix>3d</fix>
</trkpt>
<trkpt lat="33.810313" lon="-118.393867">
  <ele>-0.11</ele>
  <time>2026-09-02T22:11:57Z</time>
  <course>0.0</course>
  <speed>0.0</speed>
  <fix>3d</fix>
</trkpt>
<trkpt lat="33.810313" lon="-118.393867">
  <ele>0.0</ele>
  <time>2026-09-02T22:11:57Z</time>
  <course>179.2</course>
  <speed>0.13</speed>
  <fix>3d</fix>
</trkpt>
<trkpt lat="33.810313" lon="-118.393867">
  <ele>-0.11</ele>
  <time>2026-09-02T22:11:57Z</time>
  <course>0.0</course>
  <speed>0.0</speed>
  <fix>3d</fix>
</trkpt>
<trkpt lat="33.810313" lon="-118.393867">
  <ele>0.0</ele>
  <time>2026-09-02T22:11:57Z</time>
  <course>179.33</course>
  <speed>0.13</speed>
  <fix>3d</fix>
</trkpt>
<trkpt lat="33.810313" lon="-118.393867">
  <ele>-0.12</ele>
  <time>2026-09-02T22:11:57Z</time>
  <course>0.0</course>
  <speed>0.0</speed>
  <fix>3d</fix>
</trkpt>
<trkpt lat="33.810313" lon="-118.393867">
  <ele>0.0</ele>
  <time>2026-09-02T22:11:57Z</time>
  <course>179.46</course>
  <speed>0.12</speed>
  <fix>3d</fix>
</trkpt>
<trkpt lat="33.810313" lon="-118.393867">
  <ele>-0.12</ele>
  <time>2026-09-02T22:11:57Z</time>
  <course>0.0</course>
  <speed>0.0</speed>
  <fix>3d</fix>
</trkpt>
<trkpt lat="33.810313" lon="-118.393867">
  <ele>0.0</ele>
  <time>2026-09-02T22:11:57Z</time>
  <course>179.59</course>
  <speed>0.12</speed>
  <fix>3d</fix>
</trkpt>
<trkpt lat="33.810313" lon="-118.393867">
  <ele>-0.13</ele>
  <time>2026-09-02T22:11:57Z</time>
  <course>0.0</course>
  <speed>0.0</speed>
  <fix>3d</fix>
</trkpt>
<trkpt lat="33.810313" lon="-118.393867">
  <ele>0.0</ele>
  <time>2026-09-02T22:11:57Z</time>
  <course>179.72</course>
  <speed>0.12</speed>
  <fix>3d</fix>
</trkpt>
<trkpt lat="33.810313" lon="-118.393867">
  <ele>-0.13</ele>
  <time>2026-09-02T22:11:57Z</time>
  <course>0.0</course>
  <speed>0.0</speed>
  <fix>3d</fix>
</trkpt>
<trkpt lat="33.810313" lon="-118.393867">
  <ele>0.0</ele>
  <time>2026-09-02T22:11:57Z</time>
  <course>179.84</course>
  <speed>0.12041594578792296</speed>
  <fix>3d</fix>
</trkpt>
<trkpt lat="33.810313" lon="-118.393867">
  <ele>-0.13</ele>
  <time>2026-09-02T22:11:57Z</time>
  <course>0.0</course>
  <speed>0.0</speed>
  <fix>3d</fix>
</trkpt>
<trkpt lat="33.810313" lon="-118.393867">
  <ele>0.0</ele>
  <time>2026-09-02T22:11:57Z</time>
  <course>179.95</course>
  <speed>0.12041594578792296</speed>
  <fix>3d</fix>
</trkpt>
<trkpt lat="33.810313" lon="-118.393867">
  <ele>-0.13</ele>
  <time>2026-09-02T22:11:57Z</time>
  <course>0.0</course>
  <speed>0.0</speed>
  <fix>3d</fix>
</trkpt>
<trkpt lat="33.810313" lon="-118.393867">
  <ele>0.0</ele>
  <time>2026-09-02T22:11:57Z</time>
  <course>180.08</course>
  <speed>0.12041594578792296</speed>
  <fix>3d</fix>
</trkpt>
<trkpt lat="33.810313" lon="-118.393867">
  <ele>-0.14</ele>
  <time>2026-09-02T22:11:57Z</time>
  <course>0.0</course>
  <speed>0.0</speed>
  <fix>3d</fix>
</trkpt>
<trkpt lat="33.810313" lon="-118.393867">
  <ele>0.0</ele>
  <time>2026-09-02T22:11:57Z</time>
  <course>180.19</course>
  <speed>0.11045361017187261</speed>
  <fix>3d</fix>
</trkpt>
<trkpt lat="33.810313" lon="-118.393867">
  <ele>-0.14</ele>
  <time>2026-09-02T22:11:57Z</time>
  <course>0.0</course>
  <speed>0.0</speed>
  <fix>3d</fix>
</trkpt>
<trkpt lat="33.810313" lon="-118.393867">
  <ele>0.0</ele>
  <time>2026-09-02T22:11:57Z</time>
  <course>180.3</course>
  <speed>0.11045361017187261</speed>
  <fix>3d</fix>
</trkpt>
<trkpt lat="33.810313" lon="-118.393867">
  <ele>-0.13</ele>
  <time>2026-09-02T22:11:57Z</time>
  <course>0.0</course>
  <speed>0.0</speed>
  <fix>3d</fix>
</trkpt>
<trkpt lat="33.810313" lon="-118.393867">
  <ele>0.0</ele>
  <time>2026-09-02T22:11:57Z</time>
  <course>180.41</course>
  <speed>0.11045361017187261</speed>
  <fix>3d</fix>
</trkpt>
<trkpt lat="33.810313" lon="-118.393867">
  <ele>-0.13</ele>
  <time>2026-09-02T22:11:57Z</time>
  <course>0.0</course>
  <speed>0.0</speed>
  <fix>3d</fix>
</trkpt>
<trkpt lat="33.810313" lon="-118.393867">
  <ele>0.0</ele>
  <time>2026-09-02T22:11:57Z</time>
  <course>180.51</course>
  <speed>0.11045361017187261</speed>
  <fix>3d</fix>
</trkpt>
<trkpt lat="33.810313" lon="-118.393867">
  <ele>-0.13</ele>
  <time>2026-09-02T22:11:57Z</time>
  <course>0.0</course>
  <speed>0.0</speed>
  <fix>3d</fix>
</trkpt>
<trkpt lat="33.810313" lon="-118.393867">
  <ele>0.0</ele>
  <time>2026-09-02T22:11:57Z</time>
  <course>180.62</course>
  <speed>0.11045361017187261</speed>
  <fix>3d</fix>
</trkpt>
<trkpt lat="33.810313" lon="-118.393867">
  <ele>-0.13</ele>
  <time>2026-09-02T22:11:57Z</time>
  <course>0.0</course>
  <speed>0.0</speed>
  <fix>3d</fix>
</trkpt>
<trkpt lat="33.810313" lon="-118.393867">
  <ele>0.0</ele>
  <time>2026-09-02T22:11:57Z</time>
  <course>180.72</course>
  <speed>0.1004987562112089</speed>
  <fix>3d</fix>
</trkpt>
<trkpt lat="33.810313" lon="-118.393867">
  <ele>-0.12</ele>
  <time>2026-09-02T22:11:57Z</time>
  <course>0.0</course>
  <speed>0.0</speed>
  <fix>3d</fix>
</trkpt>
<trkpt lat="33.810313" lon="-118.393867">
  <ele>0.0</ele>
  <time>2026-09-02T22:11:57Z</time>
  <course>180.82</course>
  <speed>0.1004987562112089</speed>
  <fix>3d</fix>
</trkpt>
<trkpt lat="33.810313" lon="-118.393867">
  <ele>-0.12</ele>
  <time>2026-09-02T22:11:57Z</time>
  <course>0.0</course>
  <speed>0.0</speed>
  <fix>3d</fix>
</trkpt>
<trkpt lat="33.810313" lon="-118.393867">
  <ele>0.0</ele>
  <time>2026-09-02T22:11:57Z</time>
  <course>180.91</course>
  <speed>0.1004987562112089</speed>
  <fix>3d</fix>
</trkpt>
<trkpt lat="33.810313" lon="-118.393867">
  <ele>-0.12</ele>
  <time>2026-09-02T22:11:57Z</time>
  <course>0.0</course>
  <speed>0.0</speed>
  <fix>3d</fix>
</trkpt>
<trkpt lat="33.810313" lon="-118.393867">
  <ele>0.0</ele>
  <time>2026-09-02T22:11:57Z</time>
  <course>181.01</course>
  <speed>0.1004987562112089</speed>
  <fix>3d</fix>
</trkpt>
<trkpt lat="33.810313" lon="-118.393867">
  <ele>-0.12</ele>
  <time>2026-09-02T22:11:57Z</time>
  <course>0.0</course>
  <speed>0.0</speed>
  <fix>3d</fix>
</trkpt>
<trkpt lat="33.810313" lon="-118.393867">
  <ele>0.0</ele>
  <time>2026-09-02T22:11:57Z</time>
  <course>181.1</course>
  <speed>0.1004987562112089</speed>
  <fix>3d</fix>
</trkpt>
<trkpt lat="33.810313" lon="-118.393867">
  <ele>-0.12</ele>
  <time>2026-09-02T22:11:57Z</time>
  <course>0.0</course>
  <speed>0.0</speed>
  <fix>3d</fix>
</trkpt>
<trkpt lat="33.810313" lon="-118.393867">
  <ele>0.0</ele>
  <time>2026-09-02T22:11:57Z</time>
  <course>181.19</course>
  <speed>0.1004987562112089</speed>
  <fix>3d</fix>
</trkpt>
<trkpt lat="33.810313" lon="-118.393867">
  <ele>-0.12</ele>
  <time>2026-09-02T22:11:57Z</time>
  <course>0.0</course>
  <speed>0.0</speed>
  <fix>3d</fix>
</trkpt>
<trkpt lat="33.810313" lon="-118.393867">
  <ele>0.0</ele>
  <time>2026-09-02T22:11:57Z</time>
  <course>181.28</course>
  <speed>0.1004987562112089</speed>
  <fix>3d</fix>
</trkpt>
<trkpt lat="33.810313" lon="-118.393867">
  <ele>-0.12</ele>
  <time>2026-09-02T22:11:57Z</time>
  <course>0.0</course>
  <speed>0.0</speed>
  <fix>3d</fix>
</trkpt>
<trkpt lat="33.810313" lon="-118.393867">
  <ele>0.0</ele>
  <time>2026-09-02T22:11:57Z</time>
  <course>181.37</course>
  <speed>0.1004987562112089</speed>
  <fix>3d</fix>
</trkpt>
<trkpt lat="33.810313" lon="-118.393867">
  <ele>-0.12</ele>
  <time>2026-09-02T22:11:57Z</time>
  <course>0.0</course>
  <speed>0.0</speed>
  <fix>3d</fix>
</trkpt>
<trkpt lat="33.810313" lon="-118.393867">
  <ele>0.0</ele>
  <time>2026-09-02T22:11:57Z</time>
  <course>181.45</course>
  <speed>0.1004987562112089</speed>
  <fix>3d</fix>
</trkpt>
<trkpt lat="33.810313" lon="-118.393867">
  <ele>-0.12</ele>
  <time>2026-09-02T22:11:57Z</time>
  <course>0.0</course>
  <speed>0.0</speed>
  <fix>3d</fix>
</trkpt>
<trkpt lat="33.810313" lon="-118.393867">
  <ele>0.0</ele>
  <time>2026-09-02T22:11:57Z</time>
  <course>181.54</course>
  <speed>0.1004987562112089</speed>
  <fix>3d</fix>
</trkpt>
<trkpt lat="33.810313" lon="-118.393867">
  <ele>-0.12</ele>
  <time>2026-09-02T22:11:57Z</time>
  <course>0.0</course>
  <speed>0.0</speed>
  <fix>3d</fix>
</trkpt>
<trkpt lat="33.810313" lon="-118.393867">
  <ele>0.0</ele>
  <time>2026-09-02T22:11:57Z</time>
  <course>181.62</course>
  <speed>0.09055385138137417</speed>
  <fix>3d</fix>
</trkpt>
<trkpt lat="33.810313" lon="-118.393867">
  <ele>-0.13</ele>
  <time>2026-09-02T22:11:57Z</time>
  <course>0.0</course>
  <speed>0.0</speed>
  <fix>3d</fix>
</trkpt>
<trkpt lat="33.810313" lon="-118.393867">
  <ele>0.0</ele>
  <time>2026-09-02T22:11:57Z</time>
  <course>181.7</course>
  <speed>0.09055385138137417</speed>
  <fix>3d</fix>
</trkpt>
<trkpt lat="33.810313" lon="-118.393867">
  <ele>-0.13</ele>
  <time>2026-09-02T22:11:57Z</time>
  <course>0.0</course>
  <speed>0.0</speed>
  <fix>3d</fix>
</trkpt>
<trkpt lat="33.810313" lon="-118.393867">
  <ele>0.0</ele>
  <time>2026-09-02T22:11:57Z</time>
  <course>181.78</course>
  <speed>0.09055385138137417</speed>
  <fix>3d</fix>
</trkpt>
<trkpt lat="33.810313" lon="-118.393867">
  <ele>-0.13</ele>
  <time>2026-09-02T22:11:57Z</time>
  <course>0.0</course>
  <speed>0.0</speed>
  <fix>3d</fix>
</trkpt>
<trkpt lat="33.810313" lon="-118.393867">
  <ele>0.0</ele>
  <time>2026-09-02T22:11:57Z</time>
  <course>181.86</course>
  <speed>0.09055385138137417</speed>
  <fix>3d</fix>
</trkpt>
<trkpt lat="33.810313" lon="-118.393867">
  <ele>-0.13</ele>
  <time>2026-09-02T22:11:57Z</time>
  <course>0.0</course>
  <speed>0.0</speed>
  <fix>3d</fix>
</trkpt>
<trkpt lat="33.810313" lon="-118.393867">
  <ele>0.0</ele>
  <time>2026-09-02T22:11:57Z</time>
  <course>181.93</course>
  <speed>0.09055385138137417</speed>
  <fix>3d</fix>
</trkpt>
<trkpt lat="33.810313" lon="-118.393867">
  <ele>-0.13</ele>
  <time>2026-09-02T22:11:57Z</time>
  <course>0.0</course>
  <speed>0.0</speed>
  <fix>3d</fix>
</trkpt>
<trkpt lat="33.810313" lon="-118.393867">
  <ele>0.0</ele>
  <time>2026-09-02T22:11:57Z</time>
  <course>182.01</course>
  <speed>0.09055385138137417</speed>
  <fix>3d</fix>
</trkpt>
<trkpt lat="33.810313" lon="-118.393867">
  <ele>-0.13</ele>
  <time>2026-09-02T22:11:57Z</time>
  <course>0.0</course>
  <speed>0.0</speed>
  <fix>3d</fix>
</trkpt>
<trkpt lat="33.810313" lon="-118.393867">
  <ele>0.0</ele>
  <time>2026-09-02T22:11:57Z</time>
  <course>182.08</course>
  <speed>0.09055385138137417</speed>
  <fix>3d</fix>
</trkpt>
<trkpt lat="33.810313" lon="-118.393867">
  <ele>-0.13</ele>
  <time>2026-09-02T22:11:57Z</time>
  <course>0.0</course>
  <speed>0.0</speed>
  <fix>3d</fix>
</trkpt>
<trkpt lat="33.810313" lon="-118.393867">
  <ele>0.0</ele>
  <time>2026-09-02T22:11:57Z</time>
  <course>182.15</course>
  <speed>0.09055385138137417</speed>
  <fix>3d</fix>
</trkpt>
<trkpt lat="33.810313" lon="-118.393867">
  <ele>-0.13</ele>
  <time>2026-09-02T22:11:57Z</time>
  <course>0.0</course>
  <speed>0.0</speed>
  <fix>3d</fix>
</trkpt>
<trkpt lat="33.810313" lon="-118.393867">
  <ele>0.0</ele>
  <time>2026-09-02T22:11:57Z</time>
  <course>182.22</course>
  <speed>0.09055385138137417</speed>
  <fix>3d</fix>
</trkpt>
<trkpt lat="33.810313" lon="-118.393867">
  <ele>-0.12</ele>
  <time>2026-09-02T22:11:57Z</time>
  <course>0.0</course>
  <speed>0.0</speed>
  <fix>3d</fix>
</trkpt>
<trkpt lat="33.810313" lon="-118.393867">
  <ele>0.0</ele>
  <time>2026-09-02T22:11:57Z</time>
  <course>182.28</course>
  <speed>0.1004987562112089</speed>
  <fix>3d</fix>
</trkpt>
<trkpt lat="33.810313" lon="-118.393867">
  <ele>-0.12</ele>
  <time>2026-09-02T22:11:57Z</time>
  <course>0.0</course>
  <speed>0.0</speed>
  <fix>3d</fix>
</trkpt>
<trkpt lat="33.810313" lon="-118.393867">
  <ele>0.0</ele>
  <time>2026-09-02T22:11:57Z</time>
  <course>182.35</course>
  <speed>0.1004987562112089</speed>
  <fix>3d</fix>
</trkpt>
<trkpt lat="33.810313" lon="-118.393867">
  <ele>-0.12</ele>
  <time>2026-09-02T22:11:57Z</time>
  <course>0.0</course>
  <speed>0.0</speed>
  <fix>3d</fix>
</trkpt>
<trkpt lat="33.810313" lon="-118.393867">
  <ele>0.0</ele>
  <time>2026-09-02T22:11:57Z</time>
  <course>182.41</course>
  <speed>0.1004987562112089</speed>
  <fix>3d</fix>
</trkpt>
<trkpt lat="33.810313" lon="-118.393867">
  <ele>-0.12</ele>
  <time>2026-09-02T22:11:57Z</time>
  <course>0.0</course>
  <speed>0.0</speed>
  <fix>3d</fix>
</trkpt>
<trkpt lat="33.810313" lon="-118.393867">
  <ele>0.0</ele>
  <time>2026-09-02T22:11:57Z</time>
  <course>182.48</course>
  <speed>0.1004987562112089</speed>
  <fix>3d</fix>
</trkpt>
<trkpt lat="33.810313" lon="-118.393867">
  <ele>-0.12</ele>
  <time>2026-09-02T22:11:57Z</time>
  <course>0.0</course>
  <speed>0.0</speed>
  <fix>3d</fix>
</trkpt>
<trkpt lat="33.810313" lon="-118.393867">
  <ele>0.0</ele>
  <time>2026-09-02T22:11:57Z</time>
  <course>182.54</course>
  <speed>0.1004987562112089</speed>
  <fix>3d</fix>
</trkpt>
<trkpt lat="33.810313" lon="-118.393867">
  <ele>-0.12</ele>
  <time>2026-09-02T22:11:57Z</time>
  <course>0.0</course>
  <speed>0.0</speed>
  <fix>3d</fix>
</trkpt>
<trkpt lat="33.810313" lon="-118.393867">
  <ele>0.0</ele>
  <time>2026-09-02T22:11:57Z</time>
  <course>182.6</course>
  <speed>0.1004987562112089</speed>
  <fix>3d</fix>
</trkpt>
<trkpt lat="33.810313" lon="-118.393867">
  <ele>-0.12</ele>
  <time>2026-09-02T22:11:57Z</time>
  <course>0.0</course>
  <speed>0.0</speed>
  <fix>3d</fix>
</trkpt>
<trkpt lat="33.810313" lon="-118.393867">
  <ele>0.0</ele>
  <time>2026-09-02T22:11:57Z</time>
  <course>182.65</course>
  <speed>0.1004987562112089</speed>
  <fix>3d</fix>
</trkpt>
<trkpt lat="33.810313" lon="-118.393867">
  <ele>-0.12</ele>
  <time>2026-09-02T22:11:57Z</time>
  <course>0.0</course>
  <speed>0.0</speed>
  <fix>3d</fix>
</trkpt>
<trkpt lat="33.810313" lon="-118.393867">
  <ele>0.0</ele>
  <time>2026-09-02T22:11:57Z</time>
  <course>182.71</course>
  <speed>0.1004987562112089</speed>
  <fix>3d</fix>
</trkpt>
<trkpt lat="33.810313" lon="-118.393867">
  <ele>-0.12</ele>
  <time>2026-09-02T22:11:57Z</time>
  <course>0.0</course>
  <speed>0.0</speed>
  <fix>3d</fix>
</trkpt>
<trkpt lat="33.810313" lon="-118.393867">
  <ele>0.0</ele>
  <time>2026-09-02T22:11:57Z</time>
  <course>182.77</course>
  <speed>0.1004987562112089</speed>
  <fix>3d</fix>
</trkpt>
<trkpt lat="33.810313" lon="-118.393867">
  <ele>-0.12</ele>
  <time>2026-09-02T22:11:57Z</time>
  <course>0.0</course>
  <speed>0.0</speed>
  <fix>3d</fix>
</trkpt>
<trkpt lat="33.810313" lon="-118.393867">
  <ele>0.0</ele>
  <time>2026-09-02T22:11:57Z</time>
  <course>182.82</course>
  <speed>0.1004987562112089</speed>
  <fix>3d</fix>
</trkpt>
<trkpt lat="33.810313" lon="-118.393867">
  <ele>-0.13</ele>
  <time>2026-09-02T22:11:57Z</time>
  <course>0.0</course>
  <speed>0.0</speed>
  <fix>3d</fix>
</trkpt>
<trkpt lat="33.810313" lon="-118.393867">
  <ele>0.0</ele>
  <time>2026-09-02T22:11:57Z</time>
  <course>182.87</course>
  <speed>0.1004987562112089</speed>
  <fix>3d</fix>
</trkpt>
<trkpt lat="33.810313" lon="-118.393867">
  <ele>-0.13</ele>
  <time>2026-09-02T22:11:57Z</time>
  <course>0.0</course>
  <speed>0.0</speed>
  <fix>3d</fix>
</trkpt>
<trkpt lat="33.810313" lon="-118.393867">
  <ele>0.0</ele>
  <time>2026-09-02T22:11:57Z</time>
  <course>182.92</course>
  <speed>0.1004987562112089</speed>
  <fix>3d</fix>
</trkpt>
<trkpt lat="33.810313" lon="-118.393867">
  <ele>-0.13</ele>
  <time>2026-09-02T22:11:57Z</time>
  <course>0.0</course>
  <speed>0.0</speed>
  <fix>3d</fix>
</trkpt>
<trkpt lat="33.810313" lon="-118.393867">
  <ele>0.0</ele>
  <time>2026-09-02T22:11:57Z</time>
  <course>182.97</course>
  <speed>0.1004987562112089</speed>
  <fix>3d</fix>
</trkpt>
<trkpt lat="33.810313" lon="-118.393867">
  <ele>-0.13</ele>
  <time>2026-09-02T22:11:57Z</time>
  <course>0.0</course>
  <speed>0.0</speed>
  <fix>3d</fix>
</trkpt>
<trkpt lat="33.810313" lon="-118.393867">
  <ele>0.0</ele>
  <time>2026-09-02T22:11:57Z</time>
  <course>183.02</course>
  <speed>0.1004987562112089</speed>
  <fix>3d</fix>
</trkpt>
<trkpt lat="33.810313" lon="-118.393867">
  <ele>-0.13</ele>
  <time>2026-09-02T22:11:57Z</time>
  <course>0.0</course>
  <speed>0.0</speed>
  <fix>3d</fix>
</trkpt>
<trkpt lat="33.810313" lon="-118.393867">
  <ele>0.0</ele>
  <time>2026-09-02T22:11:57Z</time>
  <course>183.07</course>
  <speed>0.1004987562112089</speed>
  <fix>3d</fix>
</trkpt>
<trkpt lat="33.810313" lon="-118.393867">
  <ele>-0.13</ele>
  <time>2026-09-02T22:11:57Z</time>
  <course>0.0</course>
  <speed>0.0</speed>
  <fix>3d</fix>
</trkpt>
<trkpt lat="33.810313" lon="-118.393867">
  <ele>0.0</ele>
  <time>2026-09-02T22:11:57Z</time>
  <course>183.12</course>
  <speed>0.1004987562112089</speed>
  <fix>3d</fix>
</trkpt>
<trkpt lat="33.810313" lon="-118.393867">
  <ele>-0.12</ele>
  <time>2026-09-02T22:11:57Z</time>
  <course>0.0</course>
  <speed>0.0</speed>
  <fix>3d</fix>
</trkpt>
<trkpt lat="33.810313" lon="-118.393867">
  <ele>0.0</ele>
  <time>2026-09-02T22:11:57Z</time>
  <course>183.16</course>
  <speed>0.1004987562112089</speed>
  <fix>3d</fix>
</trkpt>
<trkpt lat="33.810313" lon="-118.393867">
  <ele>-0.12</ele>
  <time>2026-09-02T22:11:57Z</time>
  <course>0.0</course>
  <speed>0.0</speed>
  <fix>3d</fix>
</trkpt>
<trkpt lat="33.810313" lon="-118.393867">
  <ele>0.0</ele>
  <time>2026-09-02T22:11:57Z</time>
  <course>183.21</course>
  <speed>0.1004987562112089</speed>
  <fix>3d</fix>
</trkpt>
<trkpt lat="33.810313" lon="-118.393867">
  <ele>-0.12</ele>
  <time>2026-09-02T22:11:57Z</time>
  <course>0.0</course>
  <speed>0.0</speed>
  <fix>3d</fix>
</trkpt>
<trkpt lat="33.810313" lon="-118.393867">
  <ele>0.0</ele>
  <time>2026-09-02T22:11:57Z</time>
  <course>183.25</course>
  <speed>0.1004987562112089</speed>
  <fix>3d</fix>
</trkpt>
<trkpt lat="33.810313" lon="-118.393867">
  <ele>-0.12</ele>
  <time>2026-09-02T22:11:57Z</time>
  <course>0.0</course>
  <speed>0.0</speed>
  <fix>3d</fix>
</trkpt>
<trkpt lat="33.810313" lon="-118.393867">
  <ele>0.0</ele>
  <time>2026-09-02T22:11:57Z</time>
  <course>183.29</course>
  <speed>0.1004987562112089</speed>
  <fix>3d</fix>
</trkpt>
<trkpt lat="33.810313" lon="-118.393867">
  <ele>-0.12</ele>
  <time>2026-09-02T22:11:57Z</time>
  <course>0.0</course>
  <speed>0.0</speed>
  <fix>3d</fix>
</trkpt>
<trkpt lat="33.810313" lon="-118.393867">
  <ele>0.0</ele>
  <time>2026-09-02T22:11:57Z</time>
  <course>183.33</course>
  <speed>0.1004987562112089</speed>
  <fix>3d</fix>
</trkpt>
<trkpt lat="33.810313" lon="-118.393867">
  <ele>-0.12</ele>
  <time>2026-09-02T22:11:57Z</time>
  <course>0.0</course>
  <speed>0.0</speed>
  <fix>3d</fix>
</trkpt>
<trkpt lat="33.810313" lon="-118.393867">
  <ele>0.0</ele>
  <time>2026-09-02T22:11:57Z</time>
  <course>183.37</course>
  <speed>0.1004987562112089</speed>
  <fix>3d</fix>
</trkpt>
<trkpt lat="33.810313" lon="-118.393867">
  <ele>-0.12</ele>
  <time>2026-09-02T22:11:57Z</time>
  <course>0.0</course>
  <speed>0.0</speed>
  <fix>3d</fix>
</trkpt>
<trkpt lat="33.810313" lon="-118.393867">
  <ele>0.0</ele>
  <time>2026-09-02T22:11:57Z</time>
  <course>183.41</course>
  <speed>0.1004987562112089</speed>
  <fix>3d</fix>
</trkpt>
<trkpt lat="33.810313" lon="-118.393867">
  <ele>-0.12</ele>
  <time>2026-09-02T22:11:57Z</time>
  <course>0.0</course>
  <speed>0.0</speed>
  <fix>3d</fix>
</trkpt>
<trkpt lat="33.810313" lon="-118.393867">
  <ele>0.0</ele>
  <time>2026-09-02T22:11:57Z</time>
  <course>183.45</course>
  <speed>0.1004987562112089</speed>
  <fix>3d</fix>
</trkpt>
<trkpt lat="33.810313" lon="-118.393867">
  <ele>-0.12</ele>
  <time>2026-09-02T22:11:57Z</time>
  <course>0.0</course>
  <speed>0.0</speed>
  <fix>3d</fix>
</trkpt>
<trkpt lat="33.810313" lon="-118.393867">
  <ele>0.0</ele>
  <time>2026-09-02T22:11:57Z</time>
  <course>183.49</course>
  <speed>0.1004987562112089</speed>
  <fix>3d</fix>
</trkpt>
<trkpt lat="33.810313" lon="-118.393867">
  <ele>-0.12</ele>
  <time>2026-09-02T22:11:57Z</time>
  <course>0.0</course>
  <speed>0.0</speed>
  <fix>3d</fix>
</trkpt>
<trkpt lat="33.810313" lon="-118.393867">
  <ele>0.0</ele>
  <time>2026-09-02T22:11:57Z</time>
  <course>183.52</course>
  <speed>0.1004987562112089</speed>
  <fix>3d</fix>
</trkpt>
<trkpt lat="33.810313" lon="-118.393867">
  <ele>-0.13</ele>
  <time>2026-09-02T22:11:57Z</time>
  <course>0.0</course>
  <speed>0.0</speed>
  <fix>3d</fix>
</trkpt>
<trkpt lat="33.810313" lon="-118.393867">
  <ele>0.0</ele>
  <time>2026-09-02T22:11:57Z</time>
  <course>183.56</course>
  <speed>0.1004987562112089</speed>
  <fix>3d</fix>
</trkpt>
<trkpt lat="33.810313" lon="-118.393867">
  <ele>-0.13</ele>
  <time>2026-09-02T22:11:57Z</time>
  <course>0.0</course>
  <speed>0.0</speed>
  <fix>3d</fix>
</trkpt>
<trkpt lat="33.810313" lon="-118.393867">
  <ele>0.0</ele>
  <time>2026-09-02T22:11:57Z</time>
  <course>183.59</course>
  <speed>0.1004987562112089</speed>
  <fix>3d</fix>
</trkpt>
<trkpt lat="33.810313" lon="-118.393867">
  <ele>-0.13</ele>
  <time>2026-09-02T22:11:57Z</time>
  <course>0.0</course>
  <speed>0.0</speed>
  <fix>3d</fix>
</trkpt>
<trkpt lat="33.810313" lon="-118.393867">
  <ele>0.0</ele>
  <time>2026-09-02T22:11:57Z</time>
  <course>183.62</course>
  <speed>0.1004987562112089</speed>
  <fix>3d</fix>
</trkpt>
<trkpt lat="33.810313" lon="-118.393867">
  <ele>-0.13</ele>
  <time>2026-09-02T22:11:57Z</time>
  <course>0.0</course>
  <speed>0.0</speed>
  <fix>3d</fix>
</trkpt>
<trkpt lat="33.810313" lon="-118.393867">
  <ele>0.0</ele>
  <time>2026-09-02T22:11:57Z</time>
  <course>183.66</course>
  <speed>0.1004987562112089</speed>
  <fix>3d</fix>
</trkpt>
<trkpt lat="33.810313" lon="-118.393867">
  <ele>-0.13</ele>
  <time>2026-09-02T22:11:57Z</time>
  <course>0.0</course>
  <speed>0.0</speed>
  <fix>3d</fix>
</trkpt>
<trkpt lat="33.810313" lon="-118.393867">
  <ele>0.0</ele>
  <time>2026-09-02T22:11:57Z</time>
  <course>183.69</course>
  <speed>0.1004987562112089</speed>
  <fix>3d</fix>
</trkpt>
<trkpt lat="33.810313" lon="-118.393867">
  <ele>-0.13</ele>
  <time>2026-09-02T22:11:57Z</time>
  <course>0.0</course>
  <speed>0.0</speed>
  <fix>3d</fix>
</trkpt>
<trkpt lat="33.810313" lon="-118.393867">
  <ele>0.0</ele>
  <time>2026-09-02T22:11:57Z</time>
  <course>183.72</course>
  <speed>0.1004987562112089</speed>
  <fix>3d</fix>
</trkpt>
<trkpt lat="33.810313" lon="-118.393867">
  <ele>-0.12</ele>
  <time>2026-09-02T22:11:57Z</time>
  <course>0.0</course>
  <speed>0.0</speed>
  <fix>3d</fix>
</trkpt>
<trkpt lat="33.810313" lon="-118.393867">
  <ele>0.0</ele>
  <time>2026-09-02T22:11:57Z</time>
  <course>183.75</course>
  <speed>0.1004987562112089</speed>
  <fix>3d</fix>
</trkpt>
<trkpt lat="33.810313" lon="-118.393867">
  <ele>-0.12</ele>
  <time>2026-09-02T22:11:57Z</time>
  <course>0.0</course>
  <speed>0.0</speed>
  <fix>3d</fix>
</trkpt>
<trkpt lat="33.810313" lon="-118.393867">
  <ele>0.0</ele>
  <time>2026-09-02T22:11:57Z</time>
  <course>183.78</course>
  <speed>0.1004987562112089</speed>
  <fix>3d</fix>
</trkpt>
<trkpt lat="33.810313" lon="-118.393867">
  <ele>-0.12</ele>
  <time>2026-09-02T22:11:57Z</time>
  <course>0.0</course>
  <speed>0.0</speed>
  <fix>3d</fix>
</trkpt>
<trkpt lat="33.810313" lon="-118.393867">
  <ele>0.0</ele>
  <time>2026-09-02T22:11:57Z</time>
  <course>183.81</course>
  <speed>0.1004987562112089</speed>
  <fix>3d</fix>
</trkpt>
<trkpt lat="33.810313" lon="-118.393867">
  <ele>-0.12</ele>
  <time>2026-09-02T22:11:57Z</time>
  <course>0.0</course>
  <speed>0.0</speed>
  <fix>3d</fix>
</trkpt>
<trkpt lat="33.810313" lon="-118.393867">
  <ele>0.0</ele>
  <time>2026-09-02T22:11:57Z</time>
  <course>183.83</course>
  <speed>0.1004987562112089</speed>
  <fix>3d</fix>
</trkpt>
<trkpt lat="33.810313" lon="-118.393867">
  <ele>-0.12</ele>
  <time>2026-09-02T22:11:57Z</time>
  <course>0.0</course>
  <speed>0.0</speed>
  <fix>3d</fix>
</trkpt>
<trkpt lat="33.810313" lon="-118.393867">
  <ele>0.0</ele>
  <time>2026-09-02T22:11:57Z</time>
  <course>183.86</course>
  <speed>0.1004987562112089</speed>
  <fix>3d</fix>
</trkpt>
<trkpt lat="33.810313" lon="-118.393867">
  <ele>-0.12</ele>
  <time>2026-09-02T22:11:57Z</time>
  <course>0.0</course>
  <speed>0.0</speed>
  <fix>3d</fix>
</trkpt>
<trkpt lat="33.810313" lon="-118.393867">
  <ele>0.0</ele>
  <time>2026-09-02T22:11:57Z</time>
  <course>183.89</course>
  <speed>0.1004987562112089</speed>
  <fix>3d</fix>
</trkpt>
<trkpt lat="33.810313" lon="-118.393867">
  <ele>-0.12</ele>
  <time>2026-09-02T22:11:57Z</time>
  <course>0.0</course>
  <speed>0.0</speed>
  <fix>3d</fix>
</trkpt>
<trkpt lat="33.810313" lon="-118.393867">
  <ele>0.0</ele>
  <time>2026-09-02T22:11:57Z</time>
  <course>183.91</course>
  <speed>0.1004987562112089</speed>
  <fix>3d</fix>
</trkpt>
<trkpt lat="33.810313" lon="-118.393867">
  <ele>-0.12</ele>
  <time>2026-09-02T22:11:57Z</time>
  <course>0.0</course>
  <speed>0.0</speed>
  <fix>3d</fix>
</trkpt>
<trkpt lat="33.810313" lon="-118.393867">
  <ele>0.0</ele>
  <time>2026-09-02T22:11:57Z</time>
  <course>183.94</course>
  <speed>0.1004987562112089</speed>
  <fix>3d</fix>
</trkpt>
<trkpt lat="33.810313" lon="-118.393867">
  <ele>-0.12</ele>
  <time>2026-09-02T22:11:57Z</time>
  <course>0.0</course>
  <speed>0.0</speed>
  <fix>3d</fix>
</trkpt>
<trkpt lat="33.810313" lon="-118.393867">
  <ele>0.0</ele>
  <time>2026-09-02T22:11:57Z</time>
  <course>183.96</course>
  <speed>0.1004987562112089</speed>
  <fix>3d</fix>
</trkpt>
<trkpt lat="33.810313" lon="-118.393867">
  <ele>-0.12</ele>
  <time>2026-09-02T22:11:57Z</time>
  <course>0.0</course>
  <speed>0.0</speed>
  <fix>3d</fix>
</trkpt>
<trkpt lat="33.810313" lon="-118.393867">
  <ele>0.0</ele>
  <time>2026-09-02T22:11:57Z</time>
  <course>183.98</course>
  <speed>0.1004987562112089</speed>
  <fix>3d</fix>
</trkpt>
<trkpt lat="33.810313" lon="-118.393867">
  <ele>-0.13</ele>
  <time>2026-09-02T22:11:57Z</time>
  <course>0.0</course>
  <speed>0.0</speed>
  <fix>3d</fix>
</trkpt>
<trkpt lat="33.810313" lon="-118.393867">
  <ele>0.0</ele>
  <time>2026-09-02T22:11:57Z</time>
  <course>184.01</course>
  <speed>0.1004987562112089</speed>
  <fix>3d</fix>
</trkpt>
<trkpt lat="33.810313" lon="-118.393867">
  <ele>-0.13</ele>
  <time>2026-09-02T22:11:57Z</time>
  <course>0.0</course>
  <speed>0.0</speed>
  <fix>3d</fix>
</trkpt>
<trkpt lat="33.810313" lon="-118.393867">
  <ele>-0.124</ele>
  <time>2026-09-02T22:11:57Z</time>
  <course>184.03</course>
  <speed>0.1004987562112089</speed>
  <fix>3d</fix>
</trkpt>
<trkpt lat="33.810313" lon="-118.393867">
  <ele>-0.13</ele>
  <time>2026-09-02T22:11:57Z</time>
  <course>0.0</course>
  <speed>0.0</speed>
  <fix>3d</fix>
</trkpt>
<trkpt lat="33.810313" lon="-118.393867">
  <ele>-0.123</ele>
  <time>2026-09-02T22:11:57Z</time>
  <course>184.01</course>
  <speed>0.1004987562112089</speed>
  <fix>3d</fix>
</trkpt>
<trkpt lat="33.810313" lon="-118.393867">
  <ele>-0.13</ele>
  <time>2026-09-02T22:11:57Z</time>
  <course>0.0</course>
  <speed>0.0</speed>
  <fix>3d</fix>
</trkpt>
<trkpt lat="33.810313" lon="-118.393867">
  <ele>-0.121</ele>
  <time>2026-09-02T22:11:57Z</time>
  <course>183.96</course>
  <speed>0.1004987562112089</speed>
  <fix>3d</fix>
</trkpt>
<trkpt lat="33.810313" lon="-118.393867">
  <ele>-0.12</ele>
  <time>2026-09-02T22:11:57Z</time>
  <course>0.0</course>
  <speed>0.0</speed>
  <fix>3d</fix>
</trkpt>
<trkpt lat="33.810313" lon="-118.393867">
  <ele>-0.119</ele>
  <time>2026-09-02T22:11:57Z</time>
  <course>183.96</course>
  <speed>0.1004987562112089</speed>
  <fix>3d</fix>
</trkpt>
<trkpt lat="33.810313" lon="-118.393867">
  <ele>-0.12</ele>
  <time>2026-09-02T22:11:57Z</time>
  <course>0.0</course>
  <speed>0.0</speed>
  <fix>3d</fix>
</trkpt>
<trkpt lat="33.810313" lon="-118.393867">
  <ele>-0.119</ele>
  <time>2026-09-02T22:11:57Z</time>
  <course>184.01</course>
  <speed>0.09055385138137417</speed>
  <fix>3d</fix>
</trkpt>
<trkpt lat="33.810313" lon="-118.393867">
  <ele>-0.12</ele>
  <time>2026-09-02T22:11:57Z</time>
  <course>0.0</course>
  <speed>0.0</speed>
  <fix>3d</fix>
</trkpt>
<trkpt lat="33.810313" lon="-118.393867">
  <ele>-0.12</ele>
  <time>2026-09-02T22:11:57Z</time>
  <course>184.1</course>
  <speed>0.09055385138137417</speed>
  <fix>3d</fix>
</trkpt>
<trkpt lat="33.810313" lon="-118.393867">
  <ele>-0.12</ele>
  <time>2026-09-02T22:11:57Z</time>
  <course>0.0</course>
  <speed>0.0</speed>
  <fix>3d</fix>
</trkpt>
<trkpt lat="33.810313" lon="-118.393867">
  <ele>-0.123</ele>
  <time>2026-09-02T22:11:57Z</time>
  <course>184.2</course>
  <speed>0.08062257748298549</speed>
  <fix>3d</fix>
</trkpt>
<trkpt lat="33.810313" lon="-118.393867">
  <ele>-0.12</ele>
  <time>2026-09-02T22:11:57Z</time>
  <course>0.0</course>
  <speed>0.0</speed>
  <fix>3d</fix>
</trkpt>
<trkpt lat="33.810313" lon="-118.393867">
  <ele>-0.127</ele>
  <time>2026-09-02T22:11:57Z</time>
  <course>184.3</course>
  <speed>0.08062257748298549</speed>
  <fix>3d</fix>
</trkpt>
<trkpt lat="33.810313" lon="-118.393867">
  <ele>-0.12</ele>
  <time>2026-09-02T22:11:57Z</time>
  <course>0.0</course>
  <speed>0.0</speed>
  <fix>3d</fix>
</trkpt>
<trkpt lat="33.810313" lon="-118.393867">
  <ele>-0.13</ele>
  <time>2026-09-02T22:11:57Z</time>
  <course>184.39</course>
  <speed>0.08062257748298549</speed>
  <fix>3d</fix>
</trkpt>
<trkpt lat="33.810313" lon="-118.393867">
  <ele>-0.12</ele>
  <time>2026-09-02T22:11:57Z</time>
  <course>0.0</course>
  <speed>0.0</speed>
  <fix>3d</fix>
</trkpt>
<trkpt lat="33.810313" lon="-118.393867">
  <ele>-0.132</ele>
  <time>2026-09-02T22:11:57Z</time>
  <course>184.48</course>
  <speed>0.07071067811865475</speed>
  <fix>3d</fix>
</trkpt>
<trkpt lat="33.810313" lon="-118.393867">
  <ele>-0.12</ele>
  <time>2026-09-02T22:11:57Z</time>
  <course>0.0</course>
  <speed>0.0</speed>
  <fix>3d</fix>
</trkpt>
<trkpt lat="33.810313" lon="-118.393867">
  <ele>-0.132</ele>
  <time>2026-09-02T22:11:57Z</time>
  <course>184.56</course>
  <speed>0.07071067811865475</speed>
  <fix>3d</fix>
</trkpt>
<trkpt lat="33.810313" lon="-118.393867">
  <ele>-0.12</ele>
  <time>2026-09-02T22:11:57Z</time>
  <course>0.0</course>
  <speed>0.0</speed>
  <fix>3d</fix>
</trkpt>
<trkpt lat="33.810313" lon="-118.393867">
  <ele>-0.132</ele>
  <time>2026-09-02T22:11:57Z</time>
  <course>184.64</course>
  <speed>0.06082762530298219</speed>
  <fix>3d</fix>
</trkpt>
<trkpt lat="33.810313" lon="-118.393867">
  <ele>-0.12</ele>
  <time>2026-09-02T22:11:57Z</time>
  <course>0.0</course>
  <speed>0.0</speed>
  <fix>3d</fix>
</trkpt>
<trkpt lat="33.810313" lon="-118.393867">
  <ele>-0.132</ele>
  <time>2026-09-02T22:11:57Z</time>
  <course>184.72</course>
  <speed>0.06082762530298219</speed>
  <fix>3d</fix>
</trkpt>
<trkpt lat="33.810313" lon="-118.393867">
  <ele>-0.12</ele>
  <time>2026-09-02T22:11:57Z</time>
  <course>0.0</course>
  <speed>0.0</speed>
  <fix>3d</fix>
</trkpt>
<trkpt lat="33.810313" lon="-118.393867">
  <ele>-0.131</ele>
  <time>2026-09-02T22:11:57Z</time>
  <course>184.8</course>
  <speed>0.06082762530298219</speed>
  <fix>3d</fix>
</trkpt>
<trkpt lat="33.810313" lon="-118.393867">
  <ele>-0.12</ele>
  <time>2026-09-02T22:11:57Z</time>
  <course>0.0</course>
  <speed>0.0</speed>
  <fix>3d</fix>
</trkpt>
<trkpt lat="33.810313" lon="-118.393867">
  <ele>-0.129</ele>
  <time>2026-09-02T22:11:57Z</time>
  <course>184.88</course>
  <speed>0.05099019513592785</speed>
  <fix>3d</fix>
</trkpt>
<trkpt lat="33.810313" lon="-118.393867">
  <ele>-0.13</ele>
  <time>2026-09-02T22:11:57Z</time>
  <course>0.0</course>
  <speed>0.0</speed>
  <fix>3d</fix>
</trkpt>
<trkpt lat="33.810313" lon="-118.393867">
  <ele>-0.128</ele>
  <time>2026-09-02T22:11:57Z</time>
  <course>184.95</course>
  <speed>0.05099019513592785</speed>
  <fix>3d</fix>
</trkpt>
<trkpt lat="33.810313" lon="-118.393867">
  <ele>-0.13</ele>
  <time>2026-09-02T22:11:57Z</time>
  <course>0.0</course>
  <speed>0.0</speed>
  <fix>3d</fix>
</trkpt>
<trkpt lat="33.810313" lon="-118.393867">
  <ele>-0.125</ele>
  <time>2026-09-02T22:11:57Z</time>
  <course>185.02</course>
  <speed>0.05099019513592785</speed>
  <fix>3d</fix>
</trkpt>
<trkpt lat="33.810313" lon="-118.393867">
  <ele>-0.12</ele>
  <time>2026-09-02T22:11:57Z</time>
  <course>0.0</course>
  <speed>0.0</speed>
  <fix>3d</fix>
</trkpt>
<trkpt lat="33.810313" lon="-118.393867">
  <ele>-0.123</ele>
  <time>2026-09-02T22:11:57Z</time>
  <course>185.08</course>
  <speed>0.0412310562561766</speed>
  <fix>3d</fix>
</trkpt>
<trkpt lat="33.810313" lon="-118.393867">
  <ele>-0.12</ele>
  <time>2026-09-02T22:11:57Z</time>
  <course>0.0</course>
  <speed>0.0</speed>
  <fix>3d</fix>
</trkpt>
<trkpt lat="33.810313" lon="-118.393867">
  <ele>-0.121</ele>
  <time>2026-09-02T22:11:57Z</time>
  <course>185.15</course>
  <speed>0.0412310562561766</speed>
  <fix>3d</fix>
</trkpt>
<trkpt lat="33.810313" lon="-118.393867">
  <ele>-0.12</ele>
  <time>2026-09-02T22:11:57Z</time>
  <course>0.0</course>
  <speed>0.0</speed>
  <fix>3d</fix>
</trkpt>
<trkpt lat="33.810313" lon="-118.393867">
  <ele>-0.12</ele>
  <time>2026-09-02T22:11:57Z</time>
  <course>185.21</course>
  <speed>0.0412310562561766</speed>
  <fix>3d</fix>
</trkpt>
<trkpt lat="33.810313" lon="-118.393867">
  <ele>-0.12</ele>
  <time>2026-09-02T22:11:57Z</time>
  <course>0.0</course>
  <speed>0.0</speed>
  <fix>3d</fix>
</trkpt>
<trkpt lat="33.810313" lon="-118.393867">
  <ele>-0.121</ele>
  <time>2026-09-02T22:11:57Z</time>
  <course>185.27</course>
  <speed>0.0316227766016838</speed>
  <fix>3d</fix>
</trkpt>
<trkpt lat="33.810313" lon="-118.393867">
  <ele>-0.12</ele>
  <time>2026-09-02T22:11:57Z</time>
  <course>0.0</course>
  <speed>0.0</speed>
  <fix>3d</fix>
</trkpt>
<trkpt lat="33.810313" lon="-118.393867">
  <ele>-0.123</ele>
  <time>2026-09-02T22:11:57Z</time>
  <course>185.33</course>
  <speed>0.0316227766016838</speed>
  <fix>3d</fix>
</trkpt>
<trkpt lat="33.810313" lon="-118.393867">
  <ele>-0.12</ele>
  <time>2026-09-02T22:11:57Z</time>
  <course>0.0</course>
  <speed>0.0</speed>
  <fix>3d</fix>
</trkpt>
<trkpt lat="33.810313" lon="-118.393867">
  <ele>-0.125</ele>
  <time>2026-09-02T22:11:57Z</time>
  <course>185.39</course>
  <speed>0.0316227766016838</speed>
  <fix>3d</fix>
</trkpt>
<trkpt lat="33.810313" lon="-118.393867">
  <ele>-0.12</ele>
  <time>2026-09-02T22:11:57Z</time>
  <course>0.0</course>
  <speed>0.0</speed>
  <fix>3d</fix>
</trkpt>
<trkpt lat="33.810313" lon="-118.393867">
  <ele>-0.127</ele>
  <time>2026-09-02T22:11:57Z</time>
  <course>185.44</course>
  <speed>0.0316227766016838</speed>
  <fix>3d</fix>
</trkpt>
<trkpt lat="33.810313" lon="-118.393867">
  <ele>-0.12</ele>
  <time>2026-09-02T22:11:57Z</time>
  <course>0.0</course>
  <speed>0.0</speed>
  <fix>3d</fix>
</trkpt>
<trkpt lat="33.810313" lon="-118.393867">
  <ele>-0.127</ele>
  <time>2026-09-02T22:11:57Z</time>
  <course>185.49</course>
  <speed>0.0316227766016838</speed>
  <fix>3d</fix>
</trkpt>
<trkpt lat="33.810313" lon="-118.393867">
  <ele>-0.12</ele>
  <time>2026-09-02T22:11:57Z</time>
  <course>0.0</course>
  <speed>0.0</speed>
  <fix>3d</fix>
</trkpt>
<trkpt lat="33.810313" lon="-118.393867">
  <ele>-0.127</ele>
  <time>2026-09-02T22:11:57Z</time>
  <course>185.54</course>
  <speed>0.022360679774997897</speed>
  <fix>3d</fix>
</trkpt>
<trkpt lat="33.810313" lon="-118.393867">
  <ele>-0.12</ele>
  <time>2026-09-02T22:11:57Z</time>
  <course>0.0</course>
  <speed>0.0</speed>
  <fix>3d</fix>
</trkpt>
<trkpt lat="33.810313" lon="-118.393867">
  <ele>-0.127</ele>
  <time>2026-09-02T22:11:57Z</time>
  <course>185.59</course>
  <speed>0.022360679774997897</speed>
  <fix>3d</fix>
</trkpt>
<trkpt lat="33.810313" lon="-118.393867">
  <ele>-0.12</ele>
  <time>2026-09-02T22:11:57Z</time>
  <course>0.0</course>
  <speed>0.0</speed>
  <fix>3d</fix>
</trkpt>
<trkpt lat="33.810313" lon="-118.393867">
  <ele>-0.127</ele>
  <time>2026-09-02T22:11:57Z</time>
  <course>185.64</course>
  <speed>0.02</speed>
  <fix>3d</fix>
</trkpt>
<trkpt lat="33.810313" lon="-118.393867">
  <ele>-0.12</ele>
  <time>2026-09-02T22:11:57Z</time>
  <course>0.0</course>
  <speed>0.0</speed>
  <fix>3d</fix>
</trkpt>
<trkpt lat="33.810313" lon="-118.393867">
  <ele>-0.127</ele>
  <time>2026-09-02T22:11:57Z</time>
  <course>185.68</course>
  <speed>0.02</speed>
  <fix>3d</fix>
</trkpt>
<trkpt lat="33.810313" lon="-118.393867">
  <ele>-0.12</ele>
  <time>2026-09-02T22:11:57Z</time>
  <course>0.0</course>
  <speed>0.0</speed>
  <fix>3d</fix>
</trkpt>
<trkpt lat="33.810313" lon="-118.393867">
  <ele>-0.126</ele>
  <time>2026-09-02T22:11:58Z</time>
  <course>185.73</course>
  <speed>0.02</speed>
  <fix>3d</fix>
</trkpt>
<trkpt lat="33.810313" lon="-118.393867">
  <ele>-0.12</ele>
  <time>2026-09-02T22:11:58Z</time>
  <course>0.0</course>
  <speed>0.0</speed>
  <fix>3d</fix>
</trkpt>
<trkpt lat="33.810313" lon="-118.393867">
  <ele>-0.126</ele>
  <time>2026-09-02T22:11:58Z</time>
  <course>185.77</course>
  <speed>0.01</speed>
  <fix>3d</fix>
</trkpt>
<trkpt lat="33.810313" lon="-118.393867">
  <ele>-0.12</ele>
  <time>2026-09-02T22:11:58Z</time>
  <course>0.0</course>
  <speed>0.0</speed>
  <fix>3d</fix>
</trkpt>
<trkpt lat="33.810313" lon="-118.393867">
  <ele>-0.125</ele>
  <time>2026-09-02T22:11:58Z</time>
  <course>185.81</course>
  <speed>0.01</speed>
  <fix>3d</fix>
</trkpt>
<trkpt lat="33.810313" lon="-118.393867">
  <ele>-0.12</ele>
  <time>2026-09-02T22:11:58Z</time>
  <course>0.0</course>
  <speed>0.0</speed>
  <fix>3d</fix>
</trkpt>
<trkpt lat="33.810313" lon="-118.393867">
  <ele>-0.125</ele>
  <time>2026-09-02T22:11:58Z</time>
  <course>185.85</course>
  <speed>0.01</speed>
  <fix>3d</fix>
</trkpt>
<trkpt lat="33.810313" lon="-118.393867">
  <ele>-0.12</ele>
  <time>2026-09-02T22:11:58Z</time>
  <course>0.0</course>
  <speed>0.0</speed>
  <fix>3d</fix>
</trkpt>
<trkpt lat="33.810313" lon="-118.393867">
  <ele>-0.126</ele>
  <time>2026-09-02T22:11:58Z</time>
  <course>185.89</course>
  <speed>0.01</speed>
  <fix>3d</fix>
</trkpt>
<trkpt lat="33.810313" lon="-118.393867">
  <ele>-0.12</ele>
  <time>2026-09-02T22:11:58Z</time>
  <course>0.0</course>
  <speed>0.0</speed>
  <fix>3d</fix>
</trkpt>
<trkpt lat="33.810313" lon="-118.393867">
  <ele>-0.127</ele>
  <time>2026-09-02T22:11:58Z</time>
  <course>185.92</course>
  <speed>0.01</speed>
  <fix>3d</fix>
</trkpt>
<trkpt lat="33.810313" lon="-118.393867">
  <ele>-0.12</ele>
  <time>2026-09-02T22:11:58Z</time>
  <course>0.0</course>
  <speed>0.0</speed>
  <fix>3d</fix>
</trkpt>
<trkpt lat="33.810313" lon="-118.393867">
  <ele>-0.128</ele>
  <time>2026-09-02T22:11:58Z</time>
  <course>185.96</course>
  <speed>0.01</speed>
  <fix>3d</fix>
</trkpt>
<trkpt lat="33.810313" lon="-118.393867">
  <ele>-0.12</ele>
  <time>2026-09-02T22:11:58Z</time>
  <course>0.0</course>
  <speed>0.0</speed>
  <fix>3d</fix>
</trkpt>
<trkpt lat="33.810313" lon="-118.393867">
  <ele>-0.129</ele>
  <time>2026-09-02T22:11:58Z</time>
  <course>185.99</course>
  <speed>0.01</speed>
  <fix>3d</fix>
</trkpt>
<trkpt lat="33.810313" lon="-118.393867">
  <ele>-0.12</ele>
  <time>2026-09-02T22:11:58Z</time>
  <course>0.0</course>
  <speed>0.0</speed>
  <fix>3d</fix>
</trkpt>
<trkpt lat="33.810313" lon="-118.393867">
  <ele>-0.129</ele>
  <time>2026-09-02T22:11:58Z</time>
  <course>186.03</course>
  <speed>0.0</speed>
  <fix>3d</fix>
</trkpt>
<trkpt lat="33.810313" lon="-118.393867">
  <ele>-0.12</ele>
  <time>2026-09-02T22:11:58Z</time>
  <course>0.0</course>
  <speed>0.0</speed>
  <fix>3d</fix>
</trkpt>
<trkpt lat="33.810313" lon="-118.393867">
  <ele>-0.13</ele>
  <time>2026-09-02T22:11:58Z</time>
  <course>186.06</course>
  <speed>0.0</speed>
  <fix>3d</fix>
</trkpt>
<trkpt lat="33.810313" lon="-118.393867">
  <ele>-0.12</ele>
  <time>2026-09-02T22:11:58Z</time>
  <course>0.0</course>
  <speed>0.0</speed>
  <fix>3d</fix>
</trkpt>
<trkpt lat="33.810313" lon="-118.393867">
  <ele>-0.13</ele>
  <time>2026-09-02T22:11:58Z</time>
  <course>186.09</course>
  <speed>0.0</speed>
  <fix>3d</fix>
</trkpt>
<trkpt lat="33.810313" lon="-118.393867">
  <ele>-0.12</ele>
  <time>2026-09-02T22:11:58Z</time>
  <course>0.0</course>
  <speed>0.0</speed>
  <fix>3d</fix>
</trkpt>
<trkpt lat="33.810313" lon="-118.393867">
  <ele>-0.13</ele>
  <time>2026-09-02T22:11:58Z</time>
  <course>186.12</course>
  <speed>0.0</speed>
  <fix>3d</fix>
</trkpt>
<trkpt lat="33.810313" lon="-118.393867">
  <ele>-0.12</ele>
  <time>2026-09-02T22:11:58Z</time>
  <course>0.0</course>
  <speed>0.0</speed>
  <fix>3d</fix>
</trkpt>
<trkpt lat="33.810313" lon="-118.393867">
  <ele>-0.129</ele>
  <time>2026-09-02T22:11:58Z</time>
  <course>186.14</course>
  <speed>0.0</speed>
  <fix>3d</fix>
</trkpt>
<trkpt lat="33.810313" lon="-118.393867">
  <ele>-0.12</ele>
  <time>2026-09-02T22:11:58Z</time>
  <course>0.0</course>
  <speed>0.0</speed>
  <fix>3d</fix>
</trkpt>
<trkpt lat="33.810313" lon="-118.393867">
  <ele>-0.128</ele>
  <time>2026-09-02T22:11:58Z</time>
  <course>186.17</course>
  <speed>0.0</speed>
  <fix>3d</fix>
</trkpt>
<trkpt lat="33.810313" lon="-118.393867">
  <ele>-0.12</ele>
  <time>2026-09-02T22:11:58Z</time>
  <course>0.0</course>
  <speed>0.0</speed>
  <fix>3d</fix>
</trkpt>
<trkpt lat="33.810313" lon="-118.393867">
  <ele>-0.126</ele>
  <time>2026-09-02T22:11:58Z</time>
  <course>186.2</course>
  <speed>0.0</speed>
  <fix>3d</fix>
</trkpt>
<trkpt lat="33.810313" lon="-118.393867">
  <ele>-0.12</ele>
  <time>2026-09-02T22:11:58Z</time>
  <course>0.0</course>
  <speed>0.0</speed>
  <fix>3d</fix>
</trkpt>
<trkpt lat="33.810313" lon="-118.393867">
  <ele>-0.124</ele>
  <time>2026-09-02T22:11:58Z</time>
  <course>186.22</course>
  <speed>0.0</speed>
  <fix>3d</fix>
</trkpt>
<trkpt lat="33.810313" lon="-118.393867">
  <ele>-0.12</ele>
  <time>2026-09-02T22:11:58Z</time>
  <course>0.0</course>
  <speed>0.0</speed>
  <fix>3d</fix>
</trkpt>
<trkpt lat="33.810313" lon="-118.393867">
  <ele>-0.122</ele>
  <time>2026-09-02T22:11:58Z</time>
  <course>186.24</course>
  <speed>0.0</speed>
  <fix>3d</fix>
</trkpt>
<trkpt lat="33.810313" lon="-118.393867">
  <ele>-0.12</ele>
  <time>2026-09-02T22:11:58Z</time>
  <course>0.0</course>
  <speed>0.0</speed>
  <fix>3d</fix>
</trkpt>
<trkpt lat="33.810313" lon="-118.393867">
  <ele>-0.123</ele>
  <time>2026-09-02T22:11:58Z</time>
  <course>186.27</course>
  <speed>0.0</speed>
  <fix>3d</fix>
</trkpt>
<trkpt lat="33.810313" lon="-118.393867">
  <ele>-0.12</ele>
  <time>2026-09-02T22:11:58Z</time>
  <course>0.0</course>
  <speed>0.0</speed>
  <fix>3d</fix>
</trkpt>
<trkpt lat="33.810313" lon="-118.393867">
  <ele>-0.125</ele>
  <time>2026-09-02T22:11:58Z</time>
  <course>186.29</course>
  <speed>0.0</speed>
  <fix>3d</fix>
</trkpt>
<trkpt lat="33.810313" lon="-118.393867">
  <ele>-0.12</ele>
  <time>2026-09-02T22:11:58Z</time>
  <course>0.0</course>
  <speed>0.0</speed>
  <fix>3d</fix>
</trkpt>
<trkpt lat="33.810313" lon="-118.393867">
  <ele>-0.128</ele>
  <time>2026-09-02T22:11:58Z</time>
  <course>186.31</course>
  <speed>0.0</speed>
  <fix>3d</fix>
</trkpt>
<trkpt lat="33.810313" lon="-118.393867">
  <ele>-0.12</ele>
  <time>2026-09-02T22:11:58Z</time>
  <course>0.0</course>
  <speed>0.0</speed>
  <fix>3d</fix>
</trkpt>
<trkpt lat="33.810313" lon="-118.393867">
  <ele>-0.131</ele>
  <time>2026-09-02T22:11:58Z</time>
  <course>186.33</course>
  <speed>0.0</speed>
  <fix>3d</fix>
</trkpt>
<trkpt lat="33.810313" lon="-118.393867">
  <ele>-0.12</ele>
  <time>2026-09-02T22:11:58Z</time>
  <course>0.0</course>
  <speed>0.0</speed>
  <fix>3d</fix>
</trkpt>
<trkpt lat="33.810313" lon="-118.393867">
  <ele>-0.134</ele>
  <time>2026-09-02T22:11:58Z</time>
  <course>186.35</course>
  <speed>0.0</speed>
  <fix>3d</fix>
</trkpt>
<trkpt lat="33.810313" lon="-118.393867">
  <ele>-0.12</ele>
  <time>2026-09-02T22:11:58Z</time>
  <course>0.0</course>
  <speed>0.0</speed>
  <fix>3d</fix>
</trkpt>
<trkpt lat="33.810313" lon="-118.393867">
  <ele>-0.135</ele>
  <time>2026-09-02T22:11:58Z</time>
  <course>186.36</course>
  <speed>0.0</speed>
  <fix>3d</fix>
</trkpt>
<trkpt lat="33.810313" lon="-118.393867">
  <ele>-0.12</ele>
  <time>2026-09-02T22:11:58Z</time>
  <course>0.0</course>
  <speed>0.0</speed>
  <fix>3d</fix>
</trkpt>
<trkpt lat="33.810313" lon="-118.393867">
  <ele>-0.134</ele>
  <time>2026-09-02T22:11:58Z</time>
  <course>186.38</course>
  <speed>0.0</speed>
  <fix>3d</fix>
</trkpt>
<trkpt lat="33.810313" lon="-118.393867">
  <ele>-0.12</ele>
  <time>2026-09-02T22:11:58Z</time>
  <course>0.0</course>
  <speed>0.0</speed>
  <fix>3d</fix>
</trkpt>
<trkpt lat="33.810313" lon="-118.393867">
  <ele>-0.132</ele>
  <time>2026-09-02T22:11:58Z</time>
  <course>186.4</course>
  <speed>0.0</speed>
  <fix>3d</fix>
</trkpt>
<trkpt lat="33.810313" lon="-118.393867">
  <ele>-0.12</ele>
  <time>2026-09-02T22:11:58Z</time>
  <course>0.0</course>
  <speed>0.0</speed>
  <fix>3d</fix>
</trkpt>
<trkpt lat="33.810313" lon="-118.393867">
  <ele>-0.13</ele>
  <time>2026-09-02T22:11:58Z</time>
  <course>186.41</course>
  <speed>0.0</speed>
  <fix>3d</fix>
</trkpt>
<trkpt lat="33.810313" lon="-118.393867">
  <ele>-0.12</ele>
  <time>2026-09-02T22:11:58Z</time>
  <course>0.0</course>
  <speed>0.0</speed>
  <fix>3d</fix>
</trkpt>
<trkpt lat="33.810313" lon="-118.393867">
  <ele>-0.127</ele>
  <time>2026-09-02T22:11:58Z</time>
  <course>186.43</course>
  <speed>0.0</speed>
  <fix>3d</fix>
</trkpt>
<trkpt lat="33.810313" lon="-118.393867">
  <ele>-0.12</ele>
  <time>2026-09-02T22:11:58Z</time>
  <course>0.0</course>
  <speed>0.0</speed>
  <fix>3d</fix>
</trkpt>
<trkpt lat="33.810313" lon="-118.393867">
  <ele>-0.125</ele>
  <time>2026-09-02T22:11:58Z</time>
  <course>186.44</course>
  <speed>0.0</speed>
  <fix>3d</fix>
</trkpt>
<trkpt lat="33.810313" lon="-118.393867">
  <ele>-0.12</ele>
  <time>2026-09-02T22:11:58Z</time>
  <course>0.0</course>
  <speed>0.0</speed>
  <fix>3d</fix>
</trkpt>
<trkpt lat="33.810313" lon="-118.393867">
  <ele>-0.123</ele>
  <time>2026-09-02T22:11:58Z</time>
  <course>186.45</course>
  <speed>0.0</speed>
  <fix>3d</fix>
</trkpt>
<trkpt lat="33.810313" lon="-118.393867">
  <ele>-0.12</ele>
  <time>2026-09-02T22:11:58Z</time>
  <course>0.0</course>
  <speed>0.0</speed>
  <fix>3d</fix>
</trkpt>
<trkpt lat="33.810313" lon="-118.393867">
  <ele>-0.124</ele>
  <time>2026-09-02T22:11:58Z</time>
  <course>186.47</course>
  <speed>0.0</speed>
  <fix>3d</fix>
</trkpt>
<trkpt lat="33.810313" lon="-118.393867">
  <ele>-0.12</ele>
  <time>2026-09-02T22:11:58Z</time>
  <course>0.0</course>
  <speed>0.0</speed>
  <fix>3d</fix>
</trkpt>
<trkpt lat="33.810313" lon="-118.393867">
  <ele>-0.126</ele>
  <time>2026-09-02T22:11:58Z</time>
  <course>186.48</course>
  <speed>0.0</speed>
  <fix>3d</fix>
</trkpt>
<trkpt lat="33.810313" lon="-118.393867">
  <ele>-0.12</ele>
  <time>2026-09-02T22:11:58Z</time>
  <course>0.0</course>
  <speed>0.0</speed>
  <fix>3d</fix>
</trkpt>
<trkpt lat="33.810313" lon="-118.393867">
  <ele>-0.127</ele>
  <time>2026-09-02T22:11:58Z</time>
  <course>186.49</course>
  <speed>0.0</speed>
  <fix>3d</fix>
</trkpt>
<trkpt lat="33.810313" lon="-118.393867">
  <ele>-0.12</ele>
  <time>2026-09-02T22:11:58Z</time>
  <course>0.0</course>
  <speed>0.0</speed>
  <fix>3d</fix>
</trkpt>
<trkpt lat="33.810313" lon="-118.393867">
  <ele>-0.128</ele>
  <time>2026-09-02T22:11:58Z</time>
  <course>186.5</course>
  <speed>0.0</speed>
  <fix>3d</fix>
</trkpt>
<trkpt lat="33.810313" lon="-118.393867">
  <ele>-0.12</ele>
  <time>2026-09-02T22:11:58Z</time>
  <course>0.0</course>
  <speed>0.0</speed>
  <fix>3d</fix>
</trkpt>
<trkpt lat="33.810313" lon="-118.393867">
  <ele>-0.129</ele>
  <time>2026-09-02T22:11:58Z</time>
  <course>186.51</course>
  <speed>0.0</speed>
  <fix>3d</fix>
</trkpt>
<trkpt lat="33.810313" lon="-118.393867">
  <ele>-0.12</ele>
  <time>2026-09-02T22:11:58Z</time>
  <course>0.0</course>
  <speed>0.0</speed>
  <fix>3d</fix>
</trkpt>
<trkpt lat="33.810313" lon="-118.393867">
  <ele>-0.129</ele>
  <time>2026-09-02T22:11:58Z</time>
  <course>186.52</course>
  <speed>0.0</speed>
  <fix>3d</fix>
</trkpt>
<trkpt lat="33.810313" lon="-118.393867">
  <ele>-0.12</ele>
  <time>2026-09-02T22:11:58Z</time>
  <course>0.0</course>
  <speed>0.0</speed>
  <fix>3d</fix>
</trkpt>
<trkpt lat="33.810313" lon="-118.393867">
  <ele>-0.128</ele>
  <time>2026-09-02T22:11:58Z</time>
  <course>186.53</course>
  <speed>0.0</speed>
  <fix>3d</fix>
</trkpt>
<trkpt lat="33.810313" lon="-118.393867">
  <ele>-0.12</ele>
  <time>2026-09-02T22:11:58Z</time>
  <course>0.0</course>
  <speed>0.0</speed>
  <fix>3d</fix>
</trkpt>
<trkpt lat="33.810313" lon="-118.393867">
  <ele>-0.128</ele>
  <time>2026-09-02T22:11:58Z</time>
  <course>186.54</course>
  <speed>0.0</speed>
  <fix>3d</fix>
</trkpt>
<trkpt lat="33.810313" lon="-118.393867">
  <ele>-0.12</ele>
  <time>2026-09-02T22:11:58Z</time>
  <course>0.0</course>
  <speed>0.0</speed>
  <fix>3d</fix>
</trkpt>
<trkpt lat="33.810313" lon="-118.393867">
  <ele>-0.127</ele>
  <time>2026-09-02T22:11:58Z</time>
  <course>186.54</course>
  <speed>0.0</speed>
  <fix>3d</fix>
</trkpt>
<trkpt lat="33.810313" lon="-118.393867">
  <ele>-0.12</ele>
  <time>2026-09-02T22:11:58Z</time>
  <course>0.0</course>
  <speed>0.0</speed>
  <fix>3d</fix>
</trkpt>
<trkpt lat="33.810313" lon="-118.393867">
  <ele>-0.127</ele>
  <time>2026-09-02T22:11:58Z</time>
  <course>186.55</course>
  <speed>0.01</speed>
  <fix>3d</fix>
</trkpt>
<trkpt lat="33.810313" lon="-118.393867">
  <ele>-0.12</ele>
  <time>2026-09-02T22:11:58Z</time>
  <course>0.0</course>
  <speed>0.0</speed>
  <fix>3d</fix>
</trkpt>
<trkpt lat="33.810313" lon="-118.393867">
  <ele>-0.127</ele>
  <time>2026-09-02T22:11:58Z</time>
  <course>186.56</course>
  <speed>0.01</speed>
  <fix>3d</fix>
</trkpt>
<trkpt lat="33.810313" lon="-118.393867">
  <ele>-0.12</ele>
  <time>2026-09-02T22:11:58Z</time>
  <course>0.0</course>
  <speed>0.0</speed>
  <fix>3d</fix>
</trkpt>
<trkpt lat="33.810313" lon="-118.393867">
  <ele>-0.129</ele>
  <time>2026-09-02T22:11:58Z</time>
  <course>186.56</course>
  <speed>0.01</speed>
  <fix>3d</fix>
</trkpt>
<trkpt lat="33.810313" lon="-118.393867">
  <ele>-0.12</ele>
  <time>2026-09-02T22:11:58Z</time>
  <course>0.0</course>
  <speed>0.0</speed>
  <fix>3d</fix>
</trkpt>
<trkpt lat="33.810313" lon="-118.393867">
  <ele>-0.13</ele>
  <time>2026-09-02T22:11:58Z</time>
  <course>186.57</course>
  <speed>0.01</speed>
  <fix>3d</fix>
</trkpt>
<trkpt lat="33.810313" lon="-118.393867">
  <ele>-0.12</ele>
  <time>2026-09-02T22:11:58Z</time>
  <course>0.0</course>
  <speed>0.0</speed>
  <fix>3d</fix>
</trkpt>
<trkpt lat="33.810313" lon="-118.393867">
  <ele>-0.132</ele>
  <time>2026-09-02T22:11:58Z</time>
  <course>186.57</course>
  <speed>0.01</speed>
  <fix>3d</fix>
</trkpt>
<trkpt lat="33.810313" lon="-118.393867">
  <ele>-0.12</ele>
  <time>2026-09-02T22:11:58Z</time>
  <course>0.0</course>
  <speed>0.0</speed>
  <fix>3d</fix>
</trkpt>
<trkpt lat="33.810313" lon="-118.393867">
  <ele>-0.135</ele>
  <time>2026-09-02T22:11:58Z</time>
  <course>186.58</course>
  <speed>0.01</speed>
  <fix>3d</fix>
</trkpt>
<trkpt lat="33.810313" lon="-118.393867">
  <ele>-0.12</ele>
  <time>2026-09-02T22:11:58Z</time>
  <course>0.0</course>
  <speed>0.0</speed>
  <fix>3d</fix>
</trkpt>
<trkpt lat="33.810313" lon="-118.393867">
  <ele>-0.136</ele>
  <time>2026-09-02T22:11:58Z</time>
  <course>186.58</course>
  <speed>0.01</speed>
  <fix>3d</fix>
</trkpt>
<trkpt lat="33.810313" lon="-118.393867">
  <ele>-0.12</ele>
  <time>2026-09-02T22:11:58Z</time>
  <course>0.0</course>
  <speed>0.0</speed>
  <fix>3d</fix>
</trkpt>
<trkpt lat="33.810313" lon="-118.393867">
  <ele>-0.136</ele>
  <time>2026-09-02T22:11:58Z</time>
  <course>186.59</course>
  <speed>0.01414213562373095</speed>
  <fix>3d</fix>
</trkpt>
<trkpt lat="33.810313" lon="-118.393867">
  <ele>-0.12</ele>
  <time>2026-09-02T22:11:58Z</time>
  <course>0.0</course>
  <speed>0.0</speed>
  <fix>3d</fix>
</trkpt>
<trkpt lat="33.810313" lon="-118.393867">
  <ele>-0.136</ele>
  <time>2026-09-02T22:11:58Z</time>
  <course>186.59</course>
  <speed>0.01414213562373095</speed>
  <fix>3d</fix>
</trkpt>
<trkpt lat="33.810313" lon="-118.393867">
  <ele>-0.12</ele>
  <time>2026-09-02T22:11:58Z</time>
  <course>0.0</course>
  <speed>0.0</speed>
  <fix>3d</fix>
</trkpt>
<trkpt lat="33.810313" lon="-118.393867">
  <ele>-0.135</ele>
  <time>2026-09-02T22:11:58Z</time>
  <course>186.59</course>
  <speed>0.01414213562373095</speed>
  <fix>3d</fix>
</trkpt>
<trkpt lat="33.810313" lon="-118.393867">
  <ele>-0.12</ele>
  <time>2026-09-02T22:11:58Z</time>
  <course>0.0</course>
  <speed>0.0</speed>
  <fix>3d</fix>
</trkpt>
<trkpt lat="33.810313" lon="-118.393867">
  <ele>-0.134</ele>
  <time>2026-09-02T22:11:58Z</time>
  <course>186.59</course>
  <speed>0.01414213562373095</speed>
  <fix>3d</fix>
</trkpt>
<trkpt lat="33.810313" lon="-118.393867">
  <ele>-0.12</ele>
  <time>2026-09-02T22:11:58Z</time>
  <course>0.0</course>
  <speed>0.0</speed>
  <fix>3d</fix>
</trkpt>
<trkpt lat="33.810313" lon="-118.393867">
  <ele>-0.131</ele>
  <time>2026-09-02T22:11:58Z</time>
  <course>186.6</course>
  <speed>0.01414213562373095</speed>
  <fix>3d</fix>
</trkpt>
<trkpt lat="33.810313" lon="-118.393867">
  <ele>-0.12</ele>
  <time>2026-09-02T22:11:58Z</time>
  <course>0.0</course>
  <speed>0.0</speed>
  <fix>3d</fix>
</trkpt>
<trkpt lat="33.810313" lon="-118.393867">
  <ele>-0.129</ele>
  <time>2026-09-02T22:11:58Z</time>
  <course>186.6</course>
  <speed>0.01414213562373095</speed>
  <fix>3d</fix>
</trkpt>
<trkpt lat="33.810313" lon="-118.393867">
  <ele>-0.12</ele>
  <time>2026-09-02T22:11:58Z</time>
  <course>0.0</course>
  <speed>0.0</speed>
  <fix>3d</fix>
</trkpt>
<trkpt lat="33.810313" lon="-118.393867">
  <ele>-0.126</ele>
  <time>2026-09-02T22:11:58Z</time>
  <course>186.6</course>
  <speed>0.01414213562373095</speed>
  <fix>3d</fix>
</trkpt>
<trkpt lat="33.810313" lon="-118.393867">
  <ele>-0.12</ele>
  <time>2026-09-02T22:11:58Z</time>
  <course>0.0</course>
  <speed>0.0</speed>
  <fix>3d</fix>
</trkpt>
<trkpt lat="33.810313" lon="-118.393867">
  <ele>-0.126</ele>
  <time>2026-09-02T22:11:58Z</time>
  <course>186.6</course>
  <speed>0.01414213562373095</speed>
  <fix>3d</fix>
</trkpt>
<trkpt lat="33.810313" lon="-118.393867">
  <ele>-0.12</ele>
  <time>2026-09-02T22:11:58Z</time>
  <course>0.0</course>
  <speed>0.0</speed>
  <fix>3d</fix>
</trkpt>
<trkpt lat="33.810313" lon="-118.393867">
  <ele>-0.126</ele>
  <time>2026-09-02T22:11:58Z</time>
  <course>186.6</course>
  <speed>0.01414213562373095</speed>
  <fix>3d</fix>
</trkpt>
<trkpt lat="33.810313" lon="-118.393867">
  <ele>-0.12</ele>
  <time>2026-09-02T22:11:58Z</time>
  <course>0.0</course>
  <speed>0.0</speed>
  <fix>3d</fix>
</trkpt>
<trkpt lat="33.810313" lon="-118.393867">
  <ele>-0.127</ele>
  <time>2026-09-02T22:11:58Z</time>
  <course>186.6</course>
  <speed>0.01414213562373095</speed>
  <fix>3d</fix>
</trkpt>
<trkpt lat="33.810313" lon="-118.393867">
  <ele>-0.12</ele>
  <time>2026-09-02T22:11:58Z</time>
  <course>0.0</course>
  <speed>0.0</speed>
  <fix>3d</fix>
</trkpt>
<trkpt lat="33.810313" lon="-118.393867">
  <ele>-0.127</ele>
  <time>2026-09-02T22:11:58Z</time>
  <course>186.6</course>
  <speed>0.01414213562373095</speed>
  <fix>3d</fix>
</trkpt>
<trkpt lat="33.810313" lon="-118.393867">
  <ele>-0.12</ele>
  <time>2026-09-02T22:11:58Z</time>
  <course>0.0</course>
  <speed>0.0</speed>
  <fix>3d</fix>
</trkpt>
<trkpt lat="33.810313" lon="-118.393867">
  <ele>-0.127</ele>
  <time>2026-09-02T22:11:58Z</time>
  <course>186.6</course>
  <speed>0.01414213562373095</speed>
  <fix>3d</fix>
</trkpt>
<trkpt lat="33.810313" lon="-118.393867">
  <ele>-0.12</ele>
  <time>2026-09-02T22:11:58Z</time>
  <course>0.0</course>
  <speed>0.0</speed>
  <fix>3d</fix>
</trkpt>
<trkpt lat="33.810313" lon="-118.393867">
  <ele>-0.128</ele>
  <time>2026-09-02T22:11:58Z</time>
  <course>186.6</course>
  <speed>0.01414213562373095</speed>
  <fix>3d</fix>
</trkpt>
<trkpt lat="33.810313" lon="-118.393867">
  <ele>-0.12</ele>
  <time>2026-09-02T22:11:58Z</time>
  <course>0.0</course>
  <speed>0.0</speed>
  <fix>3d</fix>
</trkpt>
<trkpt lat="33.810313" lon="-118.393867">
  <ele>-0.129</ele>
  <time>2026-09-02T22:11:58Z</time>
  <course>186.6</course>
  <speed>0.01414213562373095</speed>
  <fix>3d</fix>
</trkpt>
<trkpt lat="33.810313" lon="-118.393867">
  <ele>-0.12</ele>
  <time>2026-09-02T22:11:58Z</time>
  <course>0.0</course>
  <speed>0.0</speed>
  <fix>3d</fix>
</trkpt>
<trkpt lat="33.810313" lon="-118.393867">
  <ele>-0.128</ele>
  <time>2026-09-02T22:11:58Z</time>
  <course>186.6</course>
  <speed>0.01414213562373095</speed>
  <fix>3d</fix>
</trkpt>
<trkpt lat="33.810313" lon="-118.393867">
  <ele>-0.12</ele>
  <time>2026-09-02T22:11:58Z</time>
  <course>0.0</course>
  <speed>0.0</speed>
  <fix>3d</fix>
</trkpt>
<trkpt lat="33.810313" lon="-118.393867">
  <ele>-0.126</ele>
  <time>2026-09-02T22:11:58Z</time>
  <course>186.6</course>
  <speed>0.01414213562373095</speed>
  <fix>3d</fix>
</trkpt>
<trkpt lat="33.810313" lon="-118.393867">
  <ele>-0.12</ele>
  <time>2026-09-02T22:11:58Z</time>
  <course>0.0</course>
  <speed>0.0</speed>
  <fix>3d</fix>
</trkpt>
<trkpt lat="33.810313" lon="-118.393867">
  <ele>-0.124</ele>
  <time>2026-09-02T22:11:58Z</time>
  <course>186.6</course>
  <speed>0.01414213562373095</speed>
  <fix>3d</fix>
</trkpt>
<trkpt lat="33.810313" lon="-118.393867">
  <ele>-0.12</ele>
  <time>2026-09-02T22:11:58Z</time>
  <course>0.0</course>
  <speed>0.0</speed>
  <fix>3d</fix>
</trkpt>
<trkpt lat="33.810313" lon="-118.393867">
  <ele>-0.121</ele>
  <time>2026-09-02T22:11:58Z</time>
  <course>186.59</course>
  <speed>0.01414213562373095</speed>
  <fix>3d</fix>
</trkpt>
<trkpt lat="33.810313" lon="-118.393867">
  <ele>-0.12</ele>
  <time>2026-09-02T22:11:58Z</time>
  <course>0.0</course>
  <speed>0.0</speed>
  <fix>3d</fix>
</trkpt>
<trkpt lat="33.810313" lon="-118.393867">
  <ele>-0.12</ele>
  <time>2026-09-02T22:11:58Z</time>
  <course>186.59</course>
  <speed>0.01414213562373095</speed>
  <fix>3d</fix>
</trkpt>
<trkpt lat="33.810313" lon="-118.393867">
  <ele>-0.12</ele>
  <time>2026-09-02T22:11:58Z</time>
  <course>0.0</course>
  <speed>0.0</speed>
  <fix>3d</fix>
</trkpt>
<trkpt lat="33.810313" lon="-118.393867">
  <ele>-0.12</ele>
  <time>2026-09-02T22:11:58Z</time>
  <course>186.59</course>
  <speed>0.01414213562373095</speed>
  <fix>3d</fix>
</trkpt>
<trkpt lat="33.810313" lon="-118.393867">
  <ele>-0.12</ele>
  <time>2026-09-02T22:11:58Z</time>
  <course>0.0</course>
  <speed>0.0</speed>
  <fix>3d</fix>
</trkpt>
<trkpt lat="33.810313" lon="-118.393867">
  <ele>-0.121</ele>
  <time>2026-09-02T22:11:58Z</time>
  <course>186.59</course>
  <speed>0.01414213562373095</speed>
  <fix>3d</fix>
</trkpt>
<trkpt lat="33.810313" lon="-118.393867">
  <ele>-0.12</ele>
  <time>2026-09-02T22:11:58Z</time>
  <course>0.0</course>
  <speed>0.0</speed>
  <fix>3d</fix>
</trkpt>
<trkpt lat="33.810313" lon="-118.393867">
  <ele>-0.125</ele>
  <time>2026-09-02T22:11:58Z</time>
  <course>186.58</course>
  <speed>0.01414213562373095</speed>
  <fix>3d</fix>
</trkpt>
<trkpt lat="33.810313" lon="-118.393867">
  <ele>-0.12</ele>
  <time>2026-09-02T22:11:58Z</time>
  <course>0.0</course>
  <speed>0.0</speed>
  <fix>3d</fix>
</trkpt>
<trkpt lat="33.810313" lon="-118.393867">
  <ele>-0.128</ele>
  <time>2026-09-02T22:11:58Z</time>
  <course>186.58</course>
  <speed>0.01414213562373095</speed>
  <fix>3d</fix>
</trkpt>
<trkpt lat="33.810313" lon="-118.393867">
  <ele>-0.12</ele>
  <time>2026-09-02T22:11:58Z</time>
  <course>0.0</course>
  <speed>0.0</speed>
  <fix>3d</fix>
</trkpt>
<trkpt lat="33.810313" lon="-118.393867">
  <ele>-0.131</ele>
  <time>2026-09-02T22:11:58Z</time>
  <course>186.58</course>
  <speed>0.01414213562373095</speed>
  <fix>3d</fix>
</trkpt>
<trkpt lat="33.810313" lon="-118.393867">
  <ele>-0.12</ele>
  <time>2026-09-02T22:11:58Z</time>
  <course>0.0</course>
  <speed>0.0</speed>
  <fix>3d</fix>
</trkpt>
<trkpt lat="33.810313" lon="-118.393867">
  <ele>-0.132</ele>
  <time>2026-09-02T22:11:58Z</time>
  <course>186.58</course>
  <speed>0.01414213562373095</speed>
  <fix>3d</fix>
</trkpt>
<trkpt lat="33.810313" lon="-118.393867">
  <ele>-0.12</ele>
  <time>2026-09-02T22:11:58Z</time>
  <course>0.0</course>
  <speed>0.0</speed>
  <fix>3d</fix>
</trkpt>
<trkpt lat="33.810313" lon="-118.393867">
  <ele>-0.132</ele>
  <time>2026-09-02T22:11:58Z</time>
  <course>186.57</course>
  <speed>0.01414213562373095</speed>
  <fix>3d</fix>
</trkpt>
<trkpt lat="33.810313" lon="-118.393867">
  <ele>-0.12</ele>
  <time>2026-09-02T22:11:58Z</time>
  <course>0.0</course>
  <speed>0.0</speed>
  <fix>3d</fix>
</trkpt>
<trkpt lat="33.810313" lon="-118.393867">
  <ele>-0.132</ele>
  <time>2026-09-02T22:11:58Z</time>
  <course>186.57</course>
  <speed>0.01414213562373095</speed>
  <fix>3d</fix>
</trkpt>
<trkpt lat="33.810313" lon="-118.393867">
  <ele>-0.12</ele>
  <time>2026-09-02T22:11:58Z</time>
  <course>0.0</course>
  <speed>0.0</speed>
  <fix>3d</fix>
</trkpt>
<trkpt lat="33.810313" lon="-118.393867">
  <ele>-0.13</ele>
  <time>2026-09-02T22:11:58Z</time>
  <course>186.57</course>
  <speed>0.01414213562373095</speed>
  <fix>3d</fix>
</trkpt>
<trkpt lat="33.810313" lon="-118.393867">
  <ele>-0.12</ele>
  <time>2026-09-02T22:11:58Z</time>
  <course>0.0</course>
  <speed>0.0</speed>
  <fix>3d</fix>
</trkpt>
<trkpt lat="33.810313" lon="-118.393867">
  <ele>-0.127</ele>
  <time>2026-09-02T22:11:58Z</time>
  <course>186.56</course>
  <speed>0.01414213562373095</speed>
  <fix>3d</fix>
</trkpt>
<trkpt lat="33.810313" lon="-118.393867">
  <ele>-0.12</ele>
  <time>2026-09-02T22:11:58Z</time>
  <course>0.0</course>
  <speed>0.0</speed>
  <fix>3d</fix>
</trkpt>
<trkpt lat="33.810313" lon="-118.393867">
  <ele>-0.124</ele>
  <time>2026-09-02T22:11:58Z</time>
  <course>186.56</course>
  <speed>0.01414213562373095</speed>
  <fix>3d</fix>
</trkpt>
<trkpt lat="33.810313" lon="-118.393867">
  <ele>-0.12</ele>
  <time>2026-09-02T22:11:58Z</time>
  <course>0.0</course>
  <speed>0.0</speed>
  <fix>3d</fix>
</trkpt>
<trkpt lat="33.810313" lon="-118.393867">
  <ele>-0.121</ele>
  <time>2026-09-02T22:11:58Z</time>
  <course>186.56</course>
  <speed>0.01414213562373095</speed>
  <fix>3d</fix>
</trkpt>
<trkpt lat="33.810313" lon="-118.393867">
  <ele>-0.12</ele>
  <time>2026-09-02T22:11:58Z</time>
  <course>0.0</course>
  <speed>0.0</speed>
  <fix>3d</fix>
</trkpt>
<trkpt lat="33.810313" lon="-118.393867">
  <ele>-0.121</ele>
  <time>2026-09-02T22:11:58Z</time>
  <course>186.55</course>
  <speed>0.01414213562373095</speed>
  <fix>3d</fix>
</trkpt>
<trkpt lat="33.810313" lon="-118.393867">
  <ele>-0.12</ele>
  <time>2026-09-02T22:11:58Z</time>
  <course>0.0</course>
  <speed>0.0</speed>
  <fix>3d</fix>
</trkpt>
<trkpt lat="33.810313" lon="-118.393867">
  <ele>-0.123</ele>
  <time>2026-09-02T22:11:58Z</time>
  <course>186.55</course>
  <speed>0.01414213562373095</speed>
  <fix>3d</fix>
</trkpt>
<trkpt lat="33.810313" lon="-118.393867">
  <ele>-0.12</ele>
  <time>2026-09-02T22:11:58Z</time>
  <course>0.0</course>
  <speed>0.0</speed>
  <fix>3d</fix>
</trkpt>
<trkpt lat="33.810313" lon="-118.393867">
  <ele>-0.124</ele>
  <time>2026-09-02T22:11:58Z</time>
  <course>186.54</course>
  <speed>0.01414213562373095</speed>
  <fix>3d</fix>
</trkpt>
<trkpt lat="33.810313" lon="-118.393867">
  <ele>-0.12</ele>
  <time>2026-09-02T22:11:58Z</time>
  <course>0.0</course>
  <speed>0.0</speed>
  <fix>3d</fix>
</trkpt>
<trkpt lat="33.810313" lon="-118.393867">
  <ele>-0.126</ele>
  <time>2026-09-02T22:11:58Z</time>
  <course>186.54</course>
  <speed>0.01414213562373095</speed>
  <fix>3d</fix>
</trkpt>
<trkpt lat="33.810313" lon="-118.393867">
  <ele>-0.12</ele>
  <time>2026-09-02T22:11:58Z</time>
  <course>0.0</course>
  <speed>0.0</speed>
  <fix>3d</fix>
</trkpt>
<trkpt lat="33.810313" lon="-118.393867">
  <ele>-0.127</ele>
  <time>2026-09-02T22:11:58Z</time>
  <course>186.53</course>
  <speed>0.022360679774997897</speed>
  <fix>3d</fix>
</trkpt>
<trkpt lat="33.810313" lon="-118.393867">
  <ele>-0.12</ele>
  <time>2026-09-02T22:11:58Z</time>
  <course>0.0</course>
  <speed>0.0</speed>
  <fix>3d</fix>
</trkpt>
<trkpt lat="33.810313" lon="-118.393867">
  <ele>-0.127</ele>
  <time>2026-09-02T22:11:58Z</time>
  <course>186.53</course>
  <speed>0.022360679774997897</speed>
  <fix>3d</fix>
</trkpt>
<trkpt lat="33.810313" lon="-118.393867">
  <ele>-0.12</ele>
  <time>2026-09-02T22:11:58Z</time>
  <course>0.0</course>
  <speed>0.0</speed>
  <fix>3d</fix>
</trkpt>
<trkpt lat="33.810313" lon="-118.393867">
  <ele>-0.127</ele>
  <time>2026-09-02T22:11:58Z</time>
  <course>186.53</course>
  <speed>0.022360679774997897</speed>
  <fix>3d</fix>
</trkpt>
<trkpt lat="33.810313" lon="-118.393867">
  <ele>-0.12</ele>
  <time>2026-09-02T22:11:58Z</time>
  <course>0.0</course>
  <speed>0.0</speed>
  <fix>3d</fix>
</trkpt>
<trkpt lat="33.810313" lon="-118.393867">
  <ele>-0.126</ele>
  <time>2026-09-02T22:11:58Z</time>
  <course>186.52</course>
  <speed>0.022360679774997897</speed>
  <fix>3d</fix>
</trkpt>
<trkpt lat="33.810313" lon="-118.393867">
  <ele>-0.12</ele>
  <time>2026-09-02T22:11:58Z</time>
  <course>0.0</course>
  <speed>0.0</speed>
  <fix>3d</fix>
</trkpt>
<trkpt lat="33.810313" lon="-118.393867">
  <ele>-0.124</ele>
  <time>2026-09-02T22:11:58Z</time>
  <course>186.52</course>
  <speed>0.022360679774997897</speed>
  <fix>3d</fix>
</trkpt>
<trkpt lat="33.810313" lon="-118.393867">
  <ele>-0.12</ele>
  <time>2026-09-02T22:11:58Z</time>
  <course>0.0</course>
  <speed>0.0</speed>
  <fix>3d</fix>
</trkpt>
<trkpt lat="33.810313" lon="-118.393867">
  <ele>-0.122</ele>
  <time>2026-09-02T22:11:58Z</time>
  <course>186.51</course>
  <speed>0.022360679774997897</speed>
  <fix>3d</fix>
</trkpt>
<trkpt lat="33.810313" lon="-118.393867">
  <ele>-0.12</ele>
  <time>2026-09-02T22:11:58Z</time>
  <course>0.0</course>
  <speed>0.0</speed>
  <fix>3d</fix>
</trkpt>
<trkpt lat="33.810313" lon="-118.393867">
  <ele>-0.119</ele>
  <time>2026-09-02T22:11:58Z</time>
  <course>186.51</course>
  <speed>0.022360679774997897</speed>
  <fix>3d</fix>
</trkpt>
<trkpt lat="33.810313" lon="-118.393867">
  <ele>-0.12</ele>
  <time>2026-09-02T22:11:58Z</time>
  <course>0.0</course>
  <speed>0.0</speed>
  <fix>3d</fix>
</trkpt>
<trkpt lat="33.810313" lon="-118.393867">
  <ele>-0.118</ele>
  <time>2026-09-02T22:11:58Z</time>
  <course>186.5</course>
  <speed>0.022360679774997897</speed>
  <fix>3d</fix>
</trkpt>
<trkpt lat="33.810313" lon="-118.393867">
  <ele>-0.12</ele>
  <time>2026-09-02T22:11:58Z</time>
  <course>0.0</course>
  <speed>0.0</speed>
  <fix>3d</fix>
</trkpt>
<trkpt lat="33.810313" lon="-118.393867">
  <ele>-0.118</ele>
  <time>2026-09-02T22:11:58Z</time>
  <course>186.5</course>
  <speed>0.022360679774997897</speed>
  <fix>3d</fix>
</trkpt>
<trkpt lat="33.810313" lon="-118.393867">
  <ele>-0.12</ele>
  <time>2026-09-02T22:11:58Z</time>
  <course>0.0</course>
  <speed>0.0</speed>
  <fix>3d</fix>
</trkpt>
<trkpt lat="33.810313" lon="-118.393867">
  <ele>-0.119</ele>
  <time>2026-09-02T22:11:58Z</time>
  <course>186.49</course>
  <speed>0.022360679774997897</speed>
  <fix>3d</fix>
</trkpt>
<trkpt lat="33.810313" lon="-118.393867">
  <ele>-0.12</ele>
  <time>2026-09-02T22:11:58Z</time>
  <course>0.0</course>
  <speed>0.0</speed>
  <fix>3d</fix>
</trkpt>
<trkpt lat="33.810313" lon="-118.393867">
  <ele>-0.12</ele>
  <time>2026-09-02T22:11:58Z</time>
  <course>186.49</course>
  <speed>0.022360679774997897</speed>
  <fix>3d</fix>
</trkpt>
<trkpt lat="33.810313" lon="-118.393867">
  <ele>-0.12</ele>
  <time>2026-09-02T22:11:58Z</time>
  <course>0.0</course>
  <speed>0.0</speed>
  <fix>3d</fix>
</trkpt>
<trkpt lat="33.810313" lon="-118.393867">
  <ele>-0.12</ele>
  <time>2026-09-02T22:11:58Z</time>
  <course>186.48</course>
  <speed>0.022360679774997897</speed>
  <fix>3d</fix>
</trkpt>
<trkpt lat="33.810313" lon="-118.393867">
  <ele>-0.12</ele>
  <time>2026-09-02T22:11:58Z</time>
  <course>0.0</course>
  <speed>0.0</speed>
  <fix>3d</fix>
</trkpt>
<trkpt lat="33.810313" lon="-118.393867">
  <ele>-0.12</ele>
  <time>2026-09-02T22:11:58Z</time>
  <course>186.48</course>
  <speed>0.022360679774997897</speed>
  <fix>3d</fix>
</trkpt>
<trkpt lat="33.810313" lon="-118.393867">
  <ele>-0.12</ele>
  <time>2026-09-02T22:11:58Z</time>
  <course>0.0</course>
  <speed>0.0</speed>
  <fix>3d</fix>
</trkpt>
<trkpt lat="33.810313" lon="-118.393867">
  <ele>-0.119</ele>
  <time>2026-09-02T22:11:58Z</time>
  <course>186.47</course>
  <speed>0.022360679774997897</speed>
  <fix>3d</fix>
</trkpt>
<trkpt lat="33.810313" lon="-118.393867">
  <ele>-0.12</ele>
  <time>2026-09-02T22:11:58Z</time>
  <course>0.0</course>
  <speed>0.0</speed>
  <fix>3d</fix>
</trkpt>
<trkpt lat="33.810313" lon="-118.393867">
  <ele>-0.118</ele>
  <time>2026-09-02T22:11:58Z</time>
  <course>186.47</course>
  <speed>0.022360679774997897</speed>
  <fix>3d</fix>
</trkpt>
<trkpt lat="33.810313" lon="-118.393867">
  <ele>-0.12</ele>
  <time>2026-09-02T22:11:58Z</time>
  <course>0.0</course>
  <speed>0.0</speed>
  <fix>3d</fix>
</trkpt>
<trkpt lat="33.810313" lon="-118.393867">
  <ele>-0.116</ele>
  <time>2026-09-02T22:11:58Z</time>
  <course>186.46</course>
  <speed>0.022360679774997897</speed>
  <fix>3d</fix>
</trkpt>
<trkpt lat="33.810313" lon="-118.393867">
  <ele>-0.12</ele>
  <time>2026-09-02T22:11:58Z</time>
  <course>0.0</course>
  <speed>0.0</speed>
  <fix>3d</fix>
</trkpt>
<trkpt lat="33.810313" lon="-118.393867">
  <ele>-0.114</ele>
  <time>2026-09-02T22:11:58Z</time>
  <course>186.46</course>
  <speed>0.022360679774997897</speed>
  <fix>3d</fix>
</trkpt>
<trkpt lat="33.810313" lon="-118.393867">
  <ele>-0.12</ele>
  <time>2026-09-02T22:11:58Z</time>
  <course>0.0</course>
  <speed>0.0</speed>
  <fix>3d</fix>
</trkpt>
<trkpt lat="33.810313" lon="-118.393867">
  <ele>-0.112</ele>
  <time>2026-09-02T22:11:58Z</time>
  <course>186.45</course>
  <speed>0.022360679774997897</speed>
  <fix>3d</fix>
</trkpt>
<trkpt lat="33.810313" lon="-118.393867">
  <ele>-0.12</ele>
  <time>2026-09-02T22:11:58Z</time>
  <course>0.0</course>
  <speed>0.0</speed>
  <fix>3d</fix>
</trkpt>
<trkpt lat="33.810313" lon="-118.393867">
  <ele>-0.113</ele>
  <time>2026-09-02T22:11:58Z</time>
  <course>186.45</course>
  <speed>0.0282842712474619</speed>
  <fix>3d</fix>
</trkpt>
<trkpt lat="33.810313" lon="-118.393867">
  <ele>-0.12</ele>
  <time>2026-09-02T22:11:58Z</time>
  <course>0.0</course>
  <speed>0.0</speed>
  <fix>3d</fix>
</trkpt>
<trkpt lat="33.810313" lon="-118.393867">
  <ele>-0.114</ele>
  <time>2026-09-02T22:11:58Z</time>
  <course>186.44</course>
  <speed>0.0282842712474619</speed>
  <fix>3d</fix>
</trkpt>
<trkpt lat="33.810313" lon="-118.393867">
  <ele>-0.12</ele>
  <time>2026-09-02T22:11:58Z</time>
  <course>0.0</course>
  <speed>0.0</speed>
  <fix>3d</fix>
</trkpt>
<trkpt lat="33.810313" lon="-118.393867">
  <ele>-0.118</ele>
  <time>2026-09-02T22:11:58Z</time>
  <course>186.44</course>
  <speed>0.0282842712474619</speed>
  <fix>3d</fix>
</trkpt>
<trkpt lat="33.810313" lon="-118.393867">
  <ele>-0.12</ele>
  <time>2026-09-02T22:11:58Z</time>
  <course>0.0</course>
  <speed>0.0</speed>
  <fix>3d</fix>
</trkpt>
<trkpt lat="33.810313" lon="-118.393867">
  <ele>-0.123</ele>
  <time>2026-09-02T22:11:58Z</time>
  <course>186.43</course>
  <speed>0.0282842712474619</speed>
  <fix>3d</fix>
</trkpt>
<trkpt lat="33.810313" lon="-118.393867">
  <ele>-0.12</ele>
  <time>2026-09-02T22:11:58Z</time>
  <course>0.0</course>
  <speed>0.0</speed>
  <fix>3d</fix>
</trkpt>
<trkpt lat="33.810313" lon="-118.393867">
  <ele>-0.128</ele>
  <time>2026-09-02T22:11:58Z</time>
  <course>186.42</course>
  <speed>0.0282842712474619</speed>
  <fix>3d</fix>
</trkpt>
<trkpt lat="33.810313" lon="-118.393867">
  <ele>-0.12</ele>
  <time>2026-09-02T22:11:58Z</time>
  <course>0.0</course>
  <speed>0.0</speed>
  <fix>3d</fix>
</trkpt>
<trkpt lat="33.810313" lon="-118.393867">
  <ele>-0.132</ele>
  <time>2026-09-02T22:11:58Z</time>
  <course>186.42</course>
  <speed>0.0282842712474619</speed>
  <fix>3d</fix>
</trkpt>
<trkpt lat="33.810313" lon="-118.393867">
  <ele>-0.12</ele>
  <time>2026-09-02T22:11:58Z</time>
  <course>0.0</course>
  <speed>0.0</speed>
  <fix>3d</fix>
</trkpt>
<trkpt lat="33.810313" lon="-118.393867">
  <ele>-0.134</ele>
  <time>2026-09-02T22:11:58Z</time>
  <course>186.41</course>
  <speed>0.0282842712474619</speed>
  <fix>3d</fix>
</trkpt>
<trkpt lat="33.810313" lon="-118.393867">
  <ele>-0.12</ele>
  <time>2026-09-02T22:11:58Z</time>
  <course>0.0</course>
  <speed>0.0</speed>
  <fix>3d</fix>
</trkpt>
<trkpt lat="33.810313" lon="-118.393867">
  <ele>-0.135</ele>
  <time>2026-09-02T22:11:58Z</time>
  <course>186.41</course>
  <speed>0.0282842712474619</speed>
  <fix>3d</fix>
</trkpt>
<trkpt lat="33.810313" lon="-118.393867">
  <ele>-0.12</ele>
  <time>2026-09-02T22:11:58Z</time>
  <course>0.0</course>
  <speed>0.0</speed>
  <fix>3d</fix>
</trkpt>
<trkpt lat="33.810313" lon="-118.393867">
  <ele>-0.135</ele>
  <time>2026-09-02T22:11:58Z</time>
  <course>186.4</course>
  <speed>0.0282842712474619</speed>
  <fix>3d</fix>
</trkpt>
<trkpt lat="33.810313" lon="-118.393867">
  <ele>-0.12</ele>
  <time>2026-09-02T22:11:58Z</time>
  <course>0.0</course>
  <speed>0.0</speed>
  <fix>3d</fix>
</trkpt>
<trkpt lat="33.810313" lon="-118.393867">
  <ele>-0.133</ele>
  <time>2026-09-02T22:11:58Z</time>
  <course>186.4</course>
  <speed>0.0282842712474619</speed>
  <fix>3d</fix>
</trkpt>
<trkpt lat="33.810313" lon="-118.393867">
  <ele>-0.12</ele>
  <time>2026-09-02T22:11:58Z</time>
  <course>0.0</course>
  <speed>0.0</speed>
  <fix>3d</fix>
</trkpt>
<trkpt lat="33.810313" lon="-118.393867">
  <ele>-0.132</ele>
  <time>2026-09-02T22:11:58Z</time>
  <course>186.4</course>
  <speed>0.0282842712474619</speed>
  <fix>3d</fix>
</trkpt>
<trkpt lat="33.810313" lon="-118.393867">
  <ele>-0.12</ele>
  <time>2026-09-02T22:11:58Z</time>
  <course>0.0</course>
  <speed>0.0</speed>
  <fix>3d</fix>
</trkpt>
<trkpt lat="33.810313" lon="-118.393867">
  <ele>-0.132</ele>
  <time>2026-09-02T22:11:58Z</time>
  <course>186.39</course>
  <speed>0.0282842712474619</speed>
  <fix>3d</fix>
</trkpt>
<trkpt lat="33.810313" lon="-118.393867">
  <ele>-0.12</ele>
  <time>2026-09-02T22:11:58Z</time>
  <course>0.0</course>
  <speed>0.0</speed>
  <fix>3d</fix>
</trkpt>
<trkpt lat="33.810313" lon="-118.393867">
  <ele>-0.132</ele>
  <time>2026-09-02T22:11:58Z</time>
  <course>186.39</course>
  <speed>0.0282842712474619</speed>
  <fix>3d</fix>
</trkpt>
<trkpt lat="33.810313" lon="-118.393867">
  <ele>-0.12</ele>
  <time>2026-09-02T22:11:58Z</time>
  <course>0.0</course>
  <speed>0.0</speed>
  <fix>3d</fix>
</trkpt>
<trkpt lat="33.810313" lon="-118.393867">
  <ele>-0.133</ele>
  <time>2026-09-02T22:11:58Z</time>
  <course>186.38</course>
  <speed>0.0</speed>
  <fix>3d</fix>
</trkpt>
<trkpt lat="33.810313" lon="-118.393867">
  <ele>-0.12</ele>
  <time>2026-09-02T22:11:58Z</time>
  <course>0.0</course>
  <speed>0.0</speed>
  <fix>3d</fix>
</trkpt>
<trkpt lat="33.810313" lon="-118.393867">
  <ele>-0.134</ele>
  <time>2026-09-02T22:11:58Z</time>
  <course>186.37</course>
  <speed>0.0</speed>
  <fix>3d</fix>
</trkpt>
<trkpt lat="33.810313" lon="-118.393867">
  <ele>-0.12</ele>
  <time>2026-09-02T22:11:58Z</time>
  <course>0.0</course>
  <speed>0.0</speed>
  <fix>3d</fix>
</trkpt>
<trkpt lat="33.810313" lon="-118.393867">
  <ele>-0.133</ele>
  <time>2026-09-02T22:11:58Z</time>
  <course>186.37</course>
  <speed>0.0</speed>
  <fix>3d</fix>
</trkpt>
<trkpt lat="33.810313" lon="-118.393867">
  <ele>-0.12</ele>
  <time>2026-09-02T22:11:58Z</time>
  <course>0.0</course>
  <speed>0.0</speed>
  <fix>3d</fix>
</trkpt>
<trkpt lat="33.810313" lon="-118.393867">
  <ele>-0.132</ele>
  <time>2026-09-02T22:11:58Z</time>
  <course>186.36</course>
  <speed>0.0</speed>
  <fix>3d</fix>
</trkpt>
<trkpt lat="33.810313" lon="-118.393867">
  <ele>-0.12</ele>
  <time>2026-09-02T22:11:58Z</time>
  <course>0.0</course>
  <speed>0.0</speed>
  <fix>3d</fix>
</trkpt>
<trkpt lat="33.810313" lon="-118.393867">
  <ele>-0.13</ele>
  <time>2026-09-02T22:11:58Z</time>
  <course>186.36</course>
  <speed>0.0</speed>
  <fix>3d</fix>
</trkpt>
<trkpt lat="33.810313" lon="-118.393867">
  <ele>-0.12</ele>
  <time>2026-09-02T22:11:58Z</time>
  <course>0.0</course>
  <speed>0.0</speed>
  <fix>3d</fix>
</trkpt>
<trkpt lat="33.810313" lon="-118.393867">
  <ele>-0.128</ele>
  <time>2026-09-02T22:11:58Z</time>
  <course>186.35</course>
  <speed>0.0</speed>
  <fix>3d</fix>
</trkpt>
<trkpt lat="33.810313" lon="-118.393867">
  <ele>-0.12</ele>
  <time>2026-09-02T22:11:58Z</time>
  <course>0.0</course>
  <speed>0.0</speed>
  <fix>3d</fix>
</trkpt>
<trkpt lat="33.810313" lon="-118.393867">
  <ele>-0.125</ele>
  <time>2026-09-02T22:11:58Z</time>
  <course>186.34</course>
  <speed>0.0</speed>
  <fix>3d</fix>
</trkpt>
<trkpt lat="33.810313" lon="-118.393867">
  <ele>-0.12</ele>
  <time>2026-09-02T22:11:58Z</time>
  <course>0.0</course>
  <speed>0.0</speed>
  <fix>3d</fix>
</trkpt>
<trkpt lat="33.810313" lon="-118.393867">
  <ele>-0.122</ele>
  <time>2026-09-02T22:11:58Z</time>
  <course>186.34</course>
  <speed>0.0</speed>
  <fix>3d</fix>
</trkpt>
<trkpt lat="33.810313" lon="-118.393867">
  <ele>-0.12</ele>
  <time>2026-09-02T22:11:58Z</time>
  <course>0.0</course>
  <speed>0.0</speed>
  <fix>3d</fix>
</trkpt>
<trkpt lat="33.810313" lon="-118.393867">
  <ele>-0.119</ele>
  <time>2026-09-02T22:11:58Z</time>
  <course>186.33</course>
  <speed>0.0</speed>
  <fix>3d</fix>
</trkpt>
<trkpt lat="33.810313" lon="-118.393867">
  <ele>-0.12</ele>
  <time>2026-09-02T22:11:58Z</time>
  <course>0.0</course>
  <speed>0.0</speed>
  <fix>3d</fix>
</trkpt>
<trkpt lat="33.810313" lon="-118.393867">
  <ele>-0.117</ele>
  <time>2026-09-02T22:11:58Z</time>
  <course>186.33</course>
  <speed>0.0</speed>
  <fix>3d</fix>
</trkpt>
<trkpt lat="33.810313" lon="-118.393867">
  <ele>-0.12</ele>
  <time>2026-09-02T22:11:58Z</time>
  <course>0.0</course>
  <speed>0.0</speed>
  <fix>3d</fix>
</trkpt>
<trkpt lat="33.810313" lon="-118.393867">
  <ele>-0.117</ele>
  <time>2026-09-02T22:11:58Z</time>
  <course>186.32</course>
  <speed>0.0</speed>
  <fix>3d</fix>
</trkpt>
<trkpt lat="33.810313" lon="-118.393867">
  <ele>-0.12</ele>
  <time>2026-09-02T22:11:58Z</time>
  <course>0.0</course>
  <speed>0.0</speed>
  <fix>3d</fix>
</trkpt>
<trkpt lat="33.810313" lon="-118.393867">
  <ele>-0.118</ele>
  <time>2026-09-02T22:11:58Z</time>
  <course>186.31</course>
  <speed>0.0</speed>
  <fix>3d</fix>
</trkpt>
<trkpt lat="33.810313" lon="-118.393867">
  <ele>-0.12</ele>
  <time>2026-09-02T22:11:58Z</time>
  <course>0.0</course>
  <speed>0.0</speed>
  <fix>3d</fix>
</trkpt>
<trkpt lat="33.810313" lon="-118.393867">
  <ele>-0.119</ele>
  <time>2026-09-02T22:11:58Z</time>
  <course>186.31</course>
  <speed>0.0</speed>
  <fix>3d</fix>
</trkpt>
<trkpt lat="33.810313" lon="-118.393867">
  <ele>-0.12</ele>
  <time>2026-09-02T22:11:58Z</time>
  <course>0.0</course>
  <speed>0.0</speed>
  <fix>3d</fix>
</trkpt>
<trkpt lat="33.810313" lon="-118.393867">
  <ele>-0.12</ele>
  <time>2026-09-02T22:11:58Z</time>
  <course>186.3</course>
  <speed>0.0</speed>
  <fix>3d</fix>
</trkpt>
<trkpt lat="33.810313" lon="-118.393867">
  <ele>-0.12</ele>
  <time>2026-09-02T22:11:58Z</time>
  <course>0.0</course>
  <speed>0.0</speed>
  <fix>3d</fix>
</trkpt>
<trkpt lat="33.810313" lon="-118.393867">
  <ele>-0.121</ele>
  <time>2026-09-02T22:11:58Z</time>
  <course>186.29</course>
  <speed>0.0</speed>
  <fix>3d</fix>
</trkpt>
<trkpt lat="33.810313" lon="-118.393867">
  <ele>-0.12</ele>
  <time>2026-09-02T22:11:58Z</time>
  <course>0.0</course>
  <speed>0.0</speed>
  <fix>3d</fix>
</trkpt>
<trkpt lat="33.810313" lon="-118.393867">
  <ele>-0.121</ele>
  <time>2026-09-02T22:11:58Z</time>
  <course>186.29</course>
  <speed>0.0</speed>
  <fix>3d</fix>
</trkpt>
<trkpt lat="33.810313" lon="-118.393867">
  <ele>-0.12</ele>
  <time>2026-09-02T22:11:58Z</time>
  <course>0.0</course>
  <speed>0.0</speed>
  <fix>3d</fix>
</trkpt>
<trkpt lat="33.810313" lon="-118.393867">
  <ele>-0.121</ele>
  <time>2026-09-02T22:11:58Z</time>
  <course>186.28</course>
  <speed>0.0</speed>
  <fix>3d</fix>
</trkpt>
<trkpt lat="33.810313" lon="-118.393867">
  <ele>-0.12</ele>
  <time>2026-09-02T22:11:58Z</time>
  <course>0.0</course>
  <speed>0.0</speed>
  <fix>3d</fix>
</trkpt>
<trkpt lat="33.810313" lon="-118.393867">
  <ele>-0.121</ele>
  <time>2026-09-02T22:11:58Z</time>
  <course>186.28</course>
  <speed>0.01</speed>
  <fix>3d</fix>
</trkpt>
<trkpt lat="33.810313" lon="-118.393867">
  <ele>-0.12</ele>
  <time>2026-09-02T22:11:58Z</time>
  <course>0.0</course>
  <speed>0.0</speed>
  <fix>3d</fix>
</trkpt>
<trkpt lat="33.810313" lon="-118.393867">
  <ele>-0.121</ele>
  <time>2026-09-02T22:11:58Z</time>
  <course>186.27</course>
  <speed>0.01</speed>
  <fix>3d</fix>
</trkpt>
<trkpt lat="33.810313" lon="-118.393867">
  <ele>-0.12</ele>
  <time>2026-09-02T22:11:58Z</time>
  <course>0.0</course>
  <speed>0.0</speed>
  <fix>3d</fix>
</trkpt>
<trkpt lat="33.810313" lon="-118.393867">
  <ele>-0.121</ele>
  <time>2026-09-02T22:11:58Z</time>
  <course>186.27</course>
  <speed>0.01</speed>
  <fix>3d</fix>
</trkpt>
<trkpt lat="33.810313" lon="-118.393867">
  <ele>-0.12</ele>
  <time>2026-09-02T22:11:58Z</time>
  <course>0.0</course>
  <speed>0.0</speed>
  <fix>3d</fix>
</trkpt>
<trkpt lat="33.810313" lon="-118.393867">
  <ele>-0.122</ele>
  <time>2026-09-02T22:11:58Z</time>
  <course>186.26</course>
  <speed>0.01</speed>
  <fix>3d</fix>
</trkpt>
<trkpt lat="33.810313" lon="-118.393867">
  <ele>-0.12</ele>
  <time>2026-09-02T22:11:58Z</time>
  <course>0.0</course>
  <speed>0.0</speed>
  <fix>3d</fix>
</trkpt>
<trkpt lat="33.810313" lon="-118.393867">
  <ele>-0.124</ele>
  <time>2026-09-02T22:11:58Z</time>
  <course>186.25</course>
  <speed>0.01</speed>
  <fix>3d</fix>
</trkpt>
<trkpt lat="33.810313" lon="-118.393867">
  <ele>-0.12</ele>
  <time>2026-09-02T22:11:58Z</time>
  <course>0.0</course>
  <speed>0.0</speed>
  <fix>3d</fix>
</trkpt>
<trkpt lat="33.810313" lon="-118.393867">
  <ele>-0.127</ele>
  <time>2026-09-02T22:11:58Z</time>
  <course>186.25</course>
  <speed>0.01</speed>
  <fix>3d</fix>
</trkpt>
<trkpt lat="33.810313" lon="-118.393867">
  <ele>-0.12</ele>
  <time>2026-09-02T22:11:58Z</time>
  <course>0.0</course>
  <speed>0.0</speed>
  <fix>3d</fix>
</trkpt>
<trkpt lat="33.810313" lon="-118.393867">
  <ele>-0.129</ele>
  <time>2026-09-02T22:11:58Z</time>
  <course>186.24</course>
  <speed>0.01</speed>
  <fix>3d</fix>
</trkpt>
<trkpt lat="33.810313" lon="-118.393867">
  <ele>-0.12</ele>
  <time>2026-09-02T22:11:58Z</time>
  <course>0.0</course>
  <speed>0.0</speed>
  <fix>3d</fix>
</trkpt>
<trkpt lat="33.810313" lon="-118.393867">
  <ele>-0.131</ele>
  <time>2026-09-02T22:11:58Z</time>
  <course>186.24</course>
  <speed>0.01</speed>
  <fix>3d</fix>
</trkpt>
<trkpt lat="33.810313" lon="-118.393867">
  <ele>-0.12</ele>
  <time>2026-09-02T22:11:58Z</time>
  <course>0.0</course>
  <speed>0.0</speed>
  <fix>3d</fix>
</trkpt>
<trkpt lat="33.810313" lon="-118.393867">
  <ele>-0.132</ele>
  <time>2026-09-02T22:11:58Z</time>
  <course>186.23</course>
  <speed>0.01</speed>
  <fix>3d</fix>
</trkpt>
<trkpt lat="33.810313" lon="-118.393867">
  <ele>-0.12</ele>
  <time>2026-09-02T22:11:58Z</time>
  <course>0.0</course>
  <speed>0.0</speed>
  <fix>3d</fix>
</trkpt>
<trkpt lat="33.810313" lon="-118.393867">
  <ele>-0.132</ele>
  <time>2026-09-02T22:11:58Z</time>
  <course>186.23</course>
  <speed>0.01414213562373095</speed>
  <fix>3d</fix>
</trkpt>
<trkpt lat="33.810313" lon="-118.393867">
  <ele>-0.12</ele>
  <time>2026-09-02T22:11:58Z</time>
  <course>0.0</course>
  <speed>0.0</speed>
  <fix>3d</fix>
</trkpt>
<trkpt lat="33.810313" lon="-118.393867">
  <ele>-0.132</ele>
  <time>2026-09-02T22:11:58Z</time>
  <course>186.22</course>
  <speed>0.01414213562373095</speed>
  <fix>3d</fix>
</trkpt>
<trkpt lat="33.810313" lon="-118.393867">
  <ele>-0.12</ele>
  <time>2026-09-02T22:11:58Z</time>
  <course>0.0</course>
  <speed>0.0</speed>
  <fix>3d</fix>
</trkpt>
<trkpt lat="33.810313" lon="-118.393867">
  <ele>-0.132</ele>
  <time>2026-09-02T22:11:58Z</time>
  <course>186.22</course>
  <speed>0.01414213562373095</speed>
  <fix>3d</fix>
</trkpt>
<trkpt lat="33.810313" lon="-118.393867">
  <ele>-0.12</ele>
  <time>2026-09-02T22:11:58Z</time>
  <course>0.0</course>
  <speed>0.0</speed>
  <fix>3d</fix>
</trkpt>
<trkpt lat="33.810313" lon="-118.393867">
  <ele>-0.131</ele>
  <time>2026-09-02T22:11:58Z</time>
  <course>186.21</course>
  <speed>0.01414213562373095</speed>
  <fix>3d</fix>
</trkpt>
<trkpt lat="33.810313" lon="-118.393867">
  <ele>-0.12</ele>
  <time>2026-09-02T22:11:58Z</time>
  <course>0.0</course>
  <speed>0.0</speed>
  <fix>3d</fix>
</trkpt>
<trkpt lat="33.810313" lon="-118.393867">
  <ele>-0.131</ele>
  <time>2026-09-02T22:11:58Z</time>
  <course>186.21</course>
  <speed>0.01414213562373095</speed>
  <fix>3d</fix>
</trkpt>
<trkpt lat="33.810313" lon="-118.393867">
  <ele>-0.12</ele>
  <time>2026-09-02T22:11:58Z</time>
  <course>0.0</course>
  <speed>0.0</speed>
  <fix>3d</fix>
</trkpt>
<trkpt lat="33.810313" lon="-118.393867">
  <ele>-0.132</ele>
  <time>2026-09-02T22:11:58Z</time>
  <course>186.2</course>
  <speed>0.01414213562373095</speed>
  <fix>3d</fix>
</trkpt>
<trkpt lat="33.810313" lon="-118.393867">
  <ele>-0.12</ele>
  <time>2026-09-02T22:11:58Z</time>
  <course>0.0</course>
  <speed>0.0</speed>
  <fix>3d</fix>
</trkpt>
<trkpt lat="33.810313" lon="-118.393867">
  <ele>-0.134</ele>
  <time>2026-09-02T22:11:58Z</time>
  <course>186.2</course>
  <speed>0.01414213562373095</speed>
  <fix>3d</fix>
</trkpt>
<trkpt lat="33.810313" lon="-118.393867">
  <ele>-0.12</ele>
  <time>2026-09-02T22:11:58Z</time>
  <course>0.0</course>
  <speed>0.0</speed>
  <fix>3d</fix>
</trkpt>
<trkpt lat="33.810313" lon="-118.393867">
  <ele>-0.137</ele>
  <time>2026-09-02T22:11:58Z</time>
  <course>186.19</course>
  <speed>0.01414213562373095</speed>
  <fix>3d</fix>
</trkpt>
<trkpt lat="33.810313" lon="-118.393867">
  <ele>-0.12</ele>
  <time>2026-09-02T22:11:58Z</time>
  <course>0.0</course>
  <speed>0.0</speed>
  <fix>3d</fix>
</trkpt>
<trkpt lat="33.810313" lon="-118.393867">
  <ele>-0.139</ele>
  <time>2026-09-02T22:11:58Z</time>
  <course>186.19</course>
  <speed>0.01414213562373095</speed>
  <fix>3d</fix>
</trkpt>
<trkpt lat="33.810313" lon="-118.393867">
  <ele>-0.12</ele>
  <time>2026-09-02T22:11:58Z</time>
  <course>0.0</course>
  <speed>0.0</speed>
  <fix>3d</fix>
</trkpt>
<trkpt lat="33.810313" lon="-118.393867">
  <ele>-0.141</ele>
  <time>2026-09-02T22:11:58Z</time>
  <course>186.18</course>
  <speed>0.01414213562373095</speed>
  <fix>3d</fix>
</trkpt>
<trkpt lat="33.810313" lon="-118.393867">
  <ele>-0.12</ele>
  <time>2026-09-02T22:11:58Z</time>
  <course>0.0</course>
  <speed>0.0</speed>
  <fix>3d</fix>
</trkpt>
<trkpt lat="33.8103131" lon="-118.393867">
  <ele>-0.141</ele>
  <time>2026-09-02T22:11:58Z</time>
  <course>186.18</course>
  <speed>0.01414213562373095</speed>
  <fix>3d</fix>
</trkpt>
<trkpt lat="33.810313" lon="-118.393867">
  <ele>-0.12</ele>
  <time>2026-09-02T22:11:58Z</time>
  <course>0.0</course>
  <speed>0.0</speed>
  <fix>3d</fix>
</trkpt>
<trkpt lat="33.8103131" lon="-118.393867">
  <ele>-0.139</ele>
  <time>2026-09-02T22:11:58Z</time>
  <course>186.17</course>
  <speed>0.01414213562373095</speed>
  <fix>3d</fix>
</trkpt>
<trkpt lat="33.810313" lon="-118.393867">
  <ele>-0.12</ele>
  <time>2026-09-02T22:11:58Z</time>
  <course>0.0</course>
  <speed>0.0</speed>
  <fix>3d</fix>
</trkpt>
<trkpt lat="33.8103131" lon="-118.393867">
  <ele>-0.136</ele>
  <time>2026-09-02T22:11:58Z</time>
  <course>186.17</course>
  <speed>0.01414213562373095</speed>
  <fix>3d</fix>
</trkpt>
<trkpt lat="33.810313" lon="-118.393867">
  <ele>-0.12</ele>
  <time>2026-09-02T22:11:58Z</time>
  <course>0.0</course>
  <speed>0.0</speed>
  <fix>3d</fix>
</trkpt>
<trkpt lat="33.8103131" lon="-118.393867">
  <ele>-0.133</ele>
  <time>2026-09-02T22:11:58Z</time>
  <course>186.16</course>
  <speed>0.01414213562373095</speed>
  <fix>3d</fix>
</trkpt>
<trkpt lat="33.810313" lon="-118.393867">
  <ele>-0.12</ele>
  <time>2026-09-02T22:11:58Z</time>
  <course>0.0</course>
  <speed>0.0</speed>
  <fix>3d</fix>
</trkpt>
<trkpt lat="33.8103131" lon="-118.393867">
  <ele>-0.129</ele>
  <time>2026-09-02T22:11:58Z</time>
  <course>186.16</course>
  <speed>0.01414213562373095</speed>
  <fix>3d</fix>
</trkpt>
<trkpt lat="33.810313" lon="-118.393867">
  <ele>-0.12</ele>
  <time>2026-09-02T22:11:58Z</time>
  <course>0.0</course>
  <speed>0.0</speed>
  <fix>3d</fix>
</trkpt>
<trkpt lat="33.8103131" lon="-118.393867">
  <ele>-0.127</ele>
  <time>2026-09-02T22:11:58Z</time>
  <course>186.15</course>
  <speed>0.01414213562373095</speed>
  <fix>3d</fix>
</trkpt>
<trkpt lat="33.810313" lon="-118.393867">
  <ele>-0.12</ele>
  <time>2026-09-02T22:11:58Z</time>
  <course>0.0</course>
  <speed>0.0</speed>
  <fix>3d</fix>
</trkpt>
<trkpt lat="33.8103131" lon="-118.393867">
  <ele>-0.126</ele>
  <time>2026-09-02T22:11:58Z</time>
  <course>186.15</course>
  <speed>0.01414213562373095</speed>
  <fix>3d</fix>
</trkpt>
<trkpt lat="33.810313" lon="-118.393867">
  <ele>-0.12</ele>
  <time>2026-09-02T22:11:58Z</time>
  <course>0.0</course>
  <speed>0.0</speed>
  <fix>3d</fix>
</trkpt>
<trkpt lat="33.8103131" lon="-118.393867">
  <ele>-0.126</ele>
  <time>2026-09-02T22:11:58Z</time>
  <course>186.15</course>
  <speed>0.01414213562373095</speed>
  <fix>3d</fix>
</trkpt>
<trkpt lat="33.810313" lon="-118.393867">
  <ele>-0.12</ele>
  <time>2026-09-02T22:11:58Z</time>
  <course>0.0</course>
  <speed>0.0</speed>
  <fix>3d</fix>
</trkpt>
<trkpt lat="33.8103131" lon="-118.393867">
  <ele>-0.126</ele>
  <time>2026-09-02T22:11:58Z</time>
  <course>186.14</course>
  <speed>0.01414213562373095</speed>
  <fix>3d</fix>
</trkpt>
<trkpt lat="33.810313" lon="-118.393867">
  <ele>-0.12</ele>
  <time>2026-09-02T22:11:58Z</time>
  <course>0.0</course>
  <speed>0.0</speed>
  <fix>3d</fix>
</trkpt>
<trkpt lat="33.8103131" lon="-118.393867">
  <ele>-0.126</ele>
  <time>2026-09-02T22:11:58Z</time>
  <course>186.14</course>
  <speed>0.01414213562373095</speed>
  <fix>3d</fix>
</trkpt>
<trkpt lat="33.810313" lon="-118.393867">
  <ele>-0.12</ele>
  <time>2026-09-02T22:11:58Z</time>
  <course>0.0</course>
  <speed>0.0</speed>
  <fix>3d</fix>
</trkpt>
<trkpt lat="33.8103131" lon="-118.393867">
  <ele>-0.126</ele>
  <time>2026-09-02T22:11:58Z</time>
  <course>186.13</course>
  <speed>0.01414213562373095</speed>
  <fix>3d</fix>
</trkpt>
<trkpt lat="33.810313" lon="-118.393867">
  <ele>-0.12</ele>
  <time>2026-09-02T22:11:58Z</time>
  <course>0.0</course>
  <speed>0.0</speed>
  <fix>3d</fix>
</trkpt>
<trkpt lat="33.8103131" lon="-118.393867">
  <ele>-0.125</ele>
  <time>2026-09-02T22:11:58Z</time>
  <course>186.13</course>
  <speed>0.01414213562373095</speed>
  <fix>3d</fix>
</trkpt>
<trkpt lat="33.810313" lon="-118.393867">
  <ele>-0.12</ele>
  <time>2026-09-02T22:11:58Z</time>
  <course>0.0</course>
  <speed>0.0</speed>
  <fix>3d</fix>
</trkpt>
<trkpt lat="33.8103131" lon="-118.393867">
  <ele>-0.124</ele>
  <time>2026-09-02T22:11:58Z</time>
  <course>186.13</course>
  <speed>0.01414213562373095</speed>
  <fix>3d</fix>
</trkpt>
<trkpt lat="33.810313" lon="-118.393867">
  <ele>-0.12</ele>
  <time>2026-09-02T22:11:58Z</time>
  <course>0.0</course>
  <speed>0.0</speed>
  <fix>3d</fix>
</trkpt>
<trkpt lat="33.8103131" lon="-118.393867">
  <ele>-0.122</ele>
  <time>2026-09-02T22:11:58Z</time>
  <course>186.12</course>
  <speed>0.01414213562373095</speed>
  <fix>3d</fix>
</trkpt>
<trkpt lat="33.810313" lon="-118.393867">
  <ele>-0.12</ele>
  <time>2026-09-02T22:11:58Z</time>
  <course>0.0</course>
  <speed>0.0</speed>
  <fix>3d</fix>
</trkpt>
<trkpt lat="33.8103131" lon="-118.393867">
  <ele>-0.121</ele>
  <time>2026-09-02T22:11:58Z</time>
  <course>186.12</course>
  <speed>0.01414213562373095</speed>
  <fix>3d</fix>
</trkpt>
<trkpt lat="33.810313" lon="-118.393867">
  <ele>-0.12</ele>
  <time>2026-09-02T22:11:58Z</time>
  <course>0.0</course>
  <speed>0.0</speed>
  <fix>3d</fix>
</trkpt>
<trkpt lat="33.8103131" lon="-118.393867">
  <ele>-0.122</ele>
  <time>2026-09-02T22:11:58Z</time>
  <course>186.11</course>
  <speed>0.01414213562373095</speed>
  <fix>3d</fix>
</trkpt>
<trkpt lat="33.810313" lon="-118.393867">
  <ele>-0.12</ele>
  <time>2026-09-02T22:11:58Z</time>
  <course>0.0</course>
  <speed>0.0</speed>
  <fix>3d</fix>
</trkpt>
<trkpt lat="33.8103131" lon="-118.393867">
  <ele>-0.124</ele>
  <time>2026-09-02T22:11:58Z</time>
  <course>186.11</course>
  <speed>0.01414213562373095</speed>
  <fix>3d</fix>
</trkpt>
<trkpt lat="33.810313" lon="-118.393867">
  <ele>-0.12</ele>
  <time>2026-09-02T22:11:58Z</time>
  <course>0.0</course>
  <speed>0.0</speed>
  <fix>3d</fix>
</trkpt>
<trkpt lat="33.8103131" lon="-118.393867">
  <ele>-0.127</ele>
  <time>2026-09-02T22:11:58Z</time>
  <course>186.11</course>
  <speed>0.01414213562373095</speed>
  <fix>3d</fix>
</trkpt>
<trkpt lat="33.810313" lon="-118.393867">
  <ele>-0.12</ele>
  <time>2026-09-02T22:11:58Z</time>
  <course>0.0</course>
  <speed>0.0</speed>
  <fix>3d</fix>
</trkpt>
<trkpt lat="33.8103131" lon="-118.393867">
  <ele>-0.13</ele>
  <time>2026-09-02T22:11:58Z</time>
  <course>186.1</course>
  <speed>0.01</speed>
  <fix>3d</fix>
</trkpt>
<trkpt lat="33.810313" lon="-118.393867">
  <ele>-0.12</ele>
  <time>2026-09-02T22:11:58Z</time>
  <course>0.0</course>
  <speed>0.0</speed>
  <fix>3d</fix>
</trkpt>
<trkpt lat="33.8103131" lon="-118.393867">
  <ele>-0.132</ele>
  <time>2026-09-02T22:11:58Z</time>
  <course>186.1</course>
  <speed>0.01</speed>
  <fix>3d</fix>
</trkpt>
<trkpt lat="33.810313" lon="-118.393867">
  <ele>-0.12</ele>
  <time>2026-09-02T22:11:58Z</time>
  <course>0.0</course>
  <speed>0.0</speed>
  <fix>3d</fix>
</trkpt>
<trkpt lat="33.8103131" lon="-118.393867">
  <ele>-0.134</ele>
  <time>2026-09-02T22:11:58Z</time>
  <course>186.09</course>
  <speed>0.01</speed>
  <fix>3d</fix>
</trkpt>
<trkpt lat="33.810313" lon="-118.393867">
  <ele>-0.12</ele>
  <time>2026-09-02T22:11:58Z</time>
  <course>0.0</course>
  <speed>0.0</speed>
  <fix>3d</fix>
</trkpt>
<trkpt lat="33.8103131" lon="-118.393867">
  <ele>-0.136</ele>
  <time>2026-09-02T22:11:58Z</time>
  <course>186.09</course>
  <speed>0.01</speed>
  <fix>3d</fix>
</trkpt>
<trkpt lat="33.810313" lon="-118.393867">
  <ele>-0.12</ele>
  <time>2026-09-02T22:11:58Z</time>
  <course>0.0</course>
  <speed>0.0</speed>
  <fix>3d</fix>
</trkpt>
<trkpt lat="33.8103131" lon="-118.393867">
  <ele>-0.136</ele>
  <time>2026-09-02T22:11:58Z</time>
  <course>186.09</course>
  <speed>0.01</speed>
  <fix>3d</fix>
</trkpt>
<trkpt lat="33.810313" lon="-118.393867">
  <ele>-0.12</ele>
  <time>2026-09-02T22:11:58Z</time>
  <course>0.0</course>
  <speed>0.0</speed>
  <fix>3d</fix>
</trkpt>
<trkpt lat="33.8103131" lon="-118.393867">
  <ele>-0.135</ele>
  <time>2026-09-02T22:11:58Z</time>
  <course>186.08</course>
  <speed>0.01</speed>
  <fix>3d</fix>
</trkpt>
<trkpt lat="33.810313" lon="-118.393867">
  <ele>-0.12</ele>
  <time>2026-09-02T22:11:58Z</time>
  <course>0.0</course>
  <speed>0.0</speed>
  <fix>3d</fix>
</trkpt>
<trkpt lat="33.8103131" lon="-118.393867">
  <ele>-0.134</ele>
  <time>2026-09-02T22:11:58Z</time>
  <course>186.08</course>
  <speed>0.01</speed>
  <fix>3d</fix>
</trkpt>
<trkpt lat="33.810313" lon="-118.393867">
  <ele>-0.12</ele>
  <time>2026-09-02T22:11:58Z</time>
  <course>0.0</course>
  <speed>0.0</speed>
  <fix>3d</fix>
</trkpt>
<trkpt lat="33.8103131" lon="-118.393867">
  <ele>-0.133</ele>
  <time>2026-09-02T22:11:58Z</time>
  <course>186.07</course>
  <speed>0.01</speed>
  <fix>3d</fix>
</trkpt>
<trkpt lat="33.810313" lon="-118.393867">
  <ele>-0.12</ele>
  <time>2026-09-02T22:11:58Z</time>
  <course>0.0</course>
  <speed>0.0</speed>
  <fix>3d</fix>
</trkpt>
<trkpt lat="33.8103131" lon="-118.393867">
  <ele>-0.131</ele>
  <time>2026-09-02T22:11:58Z</time>
  <course>186.07</course>
  <speed>0.01</speed>
  <fix>3d</fix>
</trkpt>
<trkpt lat="33.810313" lon="-118.393867">
  <ele>-0.12</ele>
  <time>2026-09-02T22:11:58Z</time>
  <course>0.0</course>
  <speed>0.0</speed>
  <fix>3d</fix>
</trkpt>
<trkpt lat="33.8103131" lon="-118.393867">
  <ele>-0.131</ele>
  <time>2026-09-02T22:11:58Z</time>
  <course>186.07</course>
  <speed>0.01</speed>
  <fix>3d</fix>
</trkpt>
<trkpt lat="33.810313" lon="-118.393867">
  <ele>-0.12</ele>
  <time>2026-09-02T22:11:58Z</time>
  <course>0.0</course>
  <speed>0.0</speed>
  <fix>3d</fix>
</trkpt>
<trkpt lat="33.8103131" lon="-118.393867">
  <ele>-0.131</ele>
  <time>2026-09-02T22:11:58Z</time>
  <course>186.06</course>
  <speed>0.01</speed>
  <fix>3d</fix>
</trkpt>
<trkpt lat="33.810313" lon="-118.393867">
  <ele>-0.12</ele>
  <time>2026-09-02T22:11:58Z</time>
  <course>0.0</course>
  <speed>0.0</speed>
  <fix>3d</fix>
</trkpt>
<trkpt lat="33.8103131" lon="-118.393867">
  <ele>-0.132</ele>
  <time>2026-09-02T22:11:58Z</time>
  <course>186.06</course>
  <speed>0.01</speed>
  <fix>3d</fix>
</trkpt>
<trkpt lat="33.810313" lon="-118.393867">
  <ele>-0.12</ele>
  <time>2026-09-02T22:11:58Z</time>
  <course>0.0</course>
  <speed>0.0</speed>
  <fix>3d</fix>
</trkpt>
<trkpt lat="33.8103131" lon="-118.393867">
  <ele>-0.133</ele>
  <time>2026-09-02T22:11:58Z</time>
  <course>186.06</course>
  <speed>0.01</speed>
  <fix>3d</fix>
</trkpt>
<trkpt lat="33.810313" lon="-118.393867">
  <ele>-0.12</ele>
  <time>2026-09-02T22:11:58Z</time>
  <course>0.0</course>
  <speed>0.0</speed>
  <fix>3d</fix>
</trkpt>
<trkpt lat="33.8103131" lon="-118.393867">
  <ele>-0.132</ele>
  <time>2026-09-02T22:11:58Z</time>
  <course>186.05</course>
  <speed>0.01</speed>
  <fix>3d</fix>
</trkpt>
<trkpt lat="33.810313" lon="-118.393867">
  <ele>-0.12</ele>
  <time>2026-09-02T22:11:58Z</time>
  <course>0.0</course>
  <speed>0.0</speed>
  <fix>3d</fix>
</trkpt>
<trkpt lat="33.8103131" lon="-118.393867">
  <ele>-0.131</ele>
  <time>2026-09-02T22:11:58Z</time>
  <course>186.05</course>
  <speed>0.01</speed>
  <fix>3d</fix>
</trkpt>
<trkpt lat="33.810313" lon="-118.393867">
  <ele>-0.12</ele>
  <time>2026-09-02T22:11:58Z</time>
  <course>0.0</course>
  <speed>0.0</speed>
  <fix>3d</fix>
</trkpt>
<trkpt lat="33.8103131" lon="-118.393867">
  <ele>-0.129</ele>
  <time>2026-09-02T22:11:58Z</time>
  <course>186.04</course>
  <speed>0.01</speed>
  <fix>3d</fix>
</trkpt>
<trkpt lat="33.810313" lon="-118.393867">
  <ele>-0.12</ele>
  <time>2026-09-02T22:11:58Z</time>
  <course>0.0</course>
  <speed>0.0</speed>
  <fix>3d</fix>
</trkpt>
<trkpt lat="33.8103131" lon="-118.393867">
  <ele>-0.126</ele>
  <time>2026-09-02T22:11:58Z</time>
  <course>186.04</course>
  <speed>0.01</speed>
  <fix>3d</fix>
</trkpt>
<trkpt lat="33.810313" lon="-118.393867">
  <ele>-0.12</ele>
  <time>2026-09-02T22:11:58Z</time>
  <course>0.0</course>
  <speed>0.0</speed>
  <fix>3d</fix>
</trkpt>
<trkpt lat="33.8103131" lon="-118.393867">
  <ele>-0.124</ele>
  <time>2026-09-02T22:11:58Z</time>
  <course>186.04</course>
  <speed>0.01</speed>
  <fix>3d</fix>
</trkpt>
<trkpt lat="33.810313" lon="-118.393867">
  <ele>-0.12</ele>
  <time>2026-09-02T22:11:58Z</time>
  <course>0.0</course>
  <speed>0.0</speed>
  <fix>3d</fix>
</trkpt>
<trkpt lat="33.8103131" lon="-118.393867">
  <ele>-0.123</ele>
  <time>2026-09-02T22:11:58Z</time>
  <course>186.03</course>
  <speed>0.01</speed>
  <fix>3d</fix>
</trkpt>
<trkpt lat="33.810313" lon="-118.393867">
  <ele>-0.12</ele>
  <time>2026-09-02T22:11:58Z</time>
  <course>0.0</course>
  <speed>0.0</speed>
  <fix>3d</fix>
</trkpt>
<trkpt lat="33.8103131" lon="-118.393867">
  <ele>-0.123</ele>
  <time>2026-09-02T22:11:58Z</time>
  <course>186.03</course>
  <speed>0.01</speed>
  <fix>3d</fix>
</trkpt>
<trkpt lat="33.810313" lon="-118.393867">
  <ele>-0.12</ele>
  <time>2026-09-02T22:11:58Z</time>
  <course>0.0</course>
  <speed>0.0</speed>
  <fix>3d</fix>
</trkpt>
<trkpt lat="33.8103131" lon="-118.393867">
  <ele>-0.122</ele>
  <time>2026-09-02T22:11:58Z</time>
  <course>186.03</course>
  <speed>0.01</speed>
  <fix>3d</fix>
</trkpt>
<trkpt lat="33.810313" lon="-118.393867">
  <ele>-0.12</ele>
  <time>2026-09-02T22:11:58Z</time>
  <course>0.0</course>
  <speed>0.0</speed>
  <fix>3d</fix>
</trkpt>
<trkpt lat="33.8103131" lon="-118.393867">
  <ele>-0.122</ele>
  <time>2026-09-02T22:11:58Z</time>
  <course>186.02</course>
  <speed>0.01</speed>
  <fix>3d</fix>
</trkpt>
<trkpt lat="33.810313" lon="-118.393867">
  <ele>-0.12</ele>
  <time>2026-09-02T22:11:58Z</time>
  <course>0.0</course>
  <speed>0.0</speed>
  <fix>3d</fix>
</trkpt>
<trkpt lat="33.8103131" lon="-118.393867">
  <ele>-0.121</ele>
  <time>2026-09-02T22:11:58Z</time>
  <course>186.02</course>
  <speed>0.01</speed>
  <fix>3d</fix>
</trkpt>
<trkpt lat="33.810313" lon="-118.393867">
  <ele>-0.12</ele>
  <time>2026-09-02T22:11:58Z</time>
  <course>0.0</course>
  <speed>0.0</speed>
  <fix>3d</fix>
</trkpt>
<trkpt lat="33.8103131" lon="-118.393867">
  <ele>-0.119</ele>
  <time>2026-09-02T22:11:58Z</time>
  <course>186.01</course>
  <speed>0.01</speed>
  <fix>3d</fix>
</trkpt>
<trkpt lat="33.810313" lon="-118.393867">
  <ele>-0.12</ele>
  <time>2026-09-02T22:11:58Z</time>
  <course>0.0</course>
  <speed>0.0</speed>
  <fix>3d</fix>
</trkpt>
<trkpt lat="33.8103131" lon="-118.393867">
  <ele>-0.116</ele>
  <time>2026-09-02T22:11:58Z</time>
  <course>186.01</course>
  <speed>0.01</speed>
  <fix>3d</fix>
</trkpt>
<trkpt lat="33.810313" lon="-118.393867">
  <ele>-0.12</ele>
  <time>2026-09-02T22:11:58Z</time>
  <course>0.0</course>
  <speed>0.0</speed>
  <fix>3d</fix>
</trkpt>
<trkpt lat="33.8103131" lon="-118.393867">
  <ele>-0.114</ele>
  <time>2026-09-02T22:11:58Z</time>
  <course>186.01</course>
  <speed>0.01</speed>
  <fix>3d</fix>
</trkpt>
<trkpt lat="33.810313" lon="-118.393867">
  <ele>-0.12</ele>
  <time>2026-09-02T22:11:58Z</time>
  <course>0.0</course>
  <speed>0.0</speed>
  <fix>3d</fix>
</trkpt>
<trkpt lat="33.8103131" lon="-118.393867">
  <ele>-0.113</ele>
  <time>2026-09-02T22:11:58Z</time>
  <course>186.0</course>
  <speed>0.01</speed>
  <fix>3d</fix>
</trkpt>
<trkpt lat="33.810313" lon="-118.393867">
  <ele>-0.12</ele>
  <time>2026-09-02T22:11:58Z</time>
  <course>0.0</course>
  <speed>0.0</speed>
  <fix>3d</fix>
</trkpt>
<trkpt lat="33.8103131" lon="-118.393867">
  <ele>-0.112</ele>
  <time>2026-09-02T22:11:58Z</time>
  <course>186.0</course>
  <speed>0.01</speed>
  <fix>3d</fix>
</trkpt>
<trkpt lat="33.810313" lon="-118.393867">
  <ele>-0.12</ele>
  <time>2026-09-02T22:11:58Z</time>
  <course>0.0</course>
  <speed>0.0</speed>
  <fix>3d</fix>
</trkpt>
<trkpt lat="33.8103131" lon="-118.393867">
  <ele>-0.112</ele>
  <time>2026-09-02T22:11:58Z</time>
  <course>186.0</course>
  <speed>0.01</speed>
  <fix>3d</fix>
</trkpt>
<trkpt lat="33.810313" lon="-118.393867">
  <ele>-0.12</ele>
  <time>2026-09-02T22:11:58Z</time>
  <course>0.0</course>
  <speed>0.0</speed>
  <fix>3d</fix>
</trkpt>
<trkpt lat="33.8103131" lon="-118.393867">
  <ele>-0.114</ele>
  <time>2026-09-02T22:11:58Z</time>
  <course>185.99</course>
  <speed>0.01</speed>
  <fix>3d</fix>
</trkpt>
<trkpt lat="33.810313" lon="-118.393867">
  <ele>-0.12</ele>
  <time>2026-09-02T22:11:58Z</time>
  <course>0.0</course>
  <speed>0.0</speed>
  <fix>3d</fix>
</trkpt>
<trkpt lat="33.8103131" lon="-118.393867">
  <ele>-0.116</ele>
  <time>2026-09-02T22:11:58Z</time>
  <course>185.99</course>
  <speed>0.01</speed>
  <fix>3d</fix>
</trkpt>
<trkpt lat="33.810313" lon="-118.393867">
  <ele>-0.12</ele>
  <time>2026-09-02T22:11:58Z</time>
  <course>0.0</course>
  <speed>0.0</speed>
  <fix>3d</fix>
</trkpt>
<trkpt lat="33.8103131" lon="-118.393867">
  <ele>-0.118</ele>
  <time>2026-09-02T22:11:58Z</time>
  <course>185.99</course>
  <speed>0.01</speed>
  <fix>3d</fix>
</trkpt>
<trkpt lat="33.810313" lon="-118.393867">
  <ele>-0.12</ele>
  <time>2026-09-02T22:11:58Z</time>
  <course>0.0</course>
  <speed>0.0</speed>
  <fix>3d</fix>
</trkpt>
<trkpt lat="33.8103131" lon="-118.393867">
  <ele>-0.12</ele>
  <time>2026-09-02T22:11:59Z</time>
  <course>185.98</course>
  <speed>0.01</speed>
  <fix>3d</fix>
</trkpt>
<trkpt lat="33.810313" lon="-118.393867">
  <ele>-0.12</ele>
  <time>2026-09-02T22:11:59Z</time>
  <course>0.0</course>
  <speed>0.0</speed>
  <fix>3d</fix>
</trkpt>
<trkpt lat="33.8103131" lon="-118.393867">
  <ele>-0.121</ele>
  <time>2026-09-02T22:11:59Z</time>
  <course>185.98</course>
  <speed>0.01</speed>
  <fix>3d</fix>
</trkpt>
<trkpt lat="33.810313" lon="-118.393867">
  <ele>-0.12</ele>
  <time>2026-09-02T22:11:59Z</time>
  <course>0.0</course>
  <speed>0.0</speed>
  <fix>3d</fix>
</trkpt>
<trkpt lat="33.8103131" lon="-118.393867">
  <ele>-0.122</ele>
  <time>2026-09-02T22:11:59Z</time>
  <course>185.97</course>
  <speed>0.01</speed>
  <fix>3d</fix>
</trkpt>
<trkpt lat="33.810313" lon="-118.393867">
  <ele>-0.12</ele>
  <time>2026-09-02T22:11:59Z</time>
  <course>0.0</course>
  <speed>0.0</speed>
  <fix>3d</fix>
</trkpt>
<trkpt lat="33.8103131" lon="-118.393867">
  <ele>-0.122</ele>
  <time>2026-09-02T22:11:59Z</time>
  <course>185.97</course>
  <speed>0.01</speed>
  <fix>3d</fix>
</trkpt>
<trkpt lat="33.810313" lon="-118.393867">
  <ele>-0.12</ele>
  <time>2026-09-02T22:11:59Z</time>
  <course>0.0</course>
  <speed>0.0</speed>
  <fix>3d</fix>
</trkpt>
<trkpt lat="33.8103131" lon="-118.393867">
  <ele>-0.123</ele>
  <time>2026-09-02T22:11:59Z</time>
  <course>185.97</course>
  <speed>0.01</speed>
  <fix>3d</fix>
</trkpt>
<trkpt lat="33.810313" lon="-118.393867">
  <ele>-0.12</ele>
  <time>2026-09-02T22:11:59Z</time>
  <course>0.0</course>
  <speed>0.0</speed>
  <fix>3d</fix>
</trkpt>
<trkpt lat="33.8103131" lon="-118.393867">
  <ele>-0.124</ele>
  <time>2026-09-02T22:11:59Z</time>
  <course>185.96</course>
  <speed>0.01</speed>
  <fix>3d</fix>
</trkpt>
<trkpt lat="33.810313" lon="-118.393867">
  <ele>-0.12</ele>
  <time>2026-09-02T22:11:59Z</time>
  <course>0.0</course>
  <speed>0.0</speed>
  <fix>3d</fix>
</trkpt>
<trkpt lat="33.8103131" lon="-118.393867">
  <ele>-0.125</ele>
  <time>2026-09-02T22:11:59Z</time>
  <course>185.96</course>
  <speed>0.01</speed>
  <fix>3d</fix>
</trkpt>
<trkpt lat="33.810313" lon="-118.393867">
  <ele>-0.12</ele>
  <time>2026-09-02T22:11:59Z</time>
  <course>0.0</course>
  <speed>0.0</speed>
  <fix>3d</fix>
</trkpt>
<trkpt lat="33.8103131" lon="-118.393867">
  <ele>-0.127</ele>
  <time>2026-09-02T22:11:59Z</time>
  <course>185.96</course>
  <speed>0.01</speed>
  <fix>3d</fix>
</trkpt>
<trkpt lat="33.810313" lon="-118.393867">
  <ele>-0.12</ele>
  <time>2026-09-02T22:11:59Z</time>
  <course>0.0</course>
  <speed>0.0</speed>
  <fix>3d</fix>
</trkpt>
<trkpt lat="33.8103131" lon="-118.393867">
  <ele>-0.13</ele>
  <time>2026-09-02T22:11:59Z</time>
  <course>185.95</course>
  <speed>0.01</speed>
  <fix>3d</fix>
</trkpt>
<trkpt lat="33.810313" lon="-118.393867">
  <ele>-0.12</ele>
  <time>2026-09-02T22:11:59Z</time>
  <course>0.0</course>
  <speed>0.0</speed>
  <fix>3d</fix>
</trkpt>
<trkpt lat="33.8103131" lon="-118.393867">
  <ele>-0.133</ele>
  <time>2026-09-02T22:11:59Z</time>
  <course>185.95</course>
  <speed>0.01</speed>
  <fix>3d</fix>
</trkpt>
<trkpt lat="33.810313" lon="-118.393867">
  <ele>-0.12</ele>
  <time>2026-09-02T22:11:59Z</time>
  <course>0.0</course>
  <speed>0.0</speed>
  <fix>3d</fix>
</trkpt>
<trkpt lat="33.8103131" lon="-118.393867">
  <ele>-0.136</ele>
  <time>2026-09-02T22:11:59Z</time>
  <course>185.95</course>
  <speed>0.01</speed>
  <fix>3d</fix>
</trkpt>
<trkpt lat="33.810313" lon="-118.393867">
  <ele>-0.12</ele>
  <time>2026-09-02T22:11:59Z</time>
  <course>0.0</course>
  <speed>0.0</speed>
  <fix>3d</fix>
</trkpt>
<trkpt lat="33.8103131" lon="-118.393867">
  <ele>-0.137</ele>
  <time>2026-09-02T22:11:59Z</time>
  <course>185.94</course>
  <speed>0.01</speed>
  <fix>3d</fix>
</trkpt>
<trkpt lat="33.810313" lon="-118.393867">
  <ele>-0.12</ele>
  <time>2026-09-02T22:11:59Z</time>
  <course>0.0</course>
  <speed>0.0</speed>
  <fix>3d</fix>
</trkpt>
<trkpt lat="33.8103131" lon="-118.393867">
  <ele>-0.137</ele>
  <time>2026-09-02T22:11:59Z</time>
  <course>185.94</course>
  <speed>0.01</speed>
  <fix>3d</fix>
</trkpt>
<trkpt lat="33.810313" lon="-118.393867">
  <ele>-0.12</ele>
  <time>2026-09-02T22:11:59Z</time>
  <course>0.0</course>
  <speed>0.0</speed>
  <fix>3d</fix>
</trkpt>
<trkpt lat="33.8103131" lon="-118.393867">
  <ele>-0.136</ele>
  <time>2026-09-02T22:11:59Z</time>
  <course>185.94</course>
  <speed>0.01</speed>
  <fix>3d</fix>
</trkpt>
<trkpt lat="33.810313" lon="-118.393867">
  <ele>-0.12</ele>
  <time>2026-09-02T22:11:59Z</time>
  <course>0.0</course>
  <speed>0.0</speed>
  <fix>3d</fix>
</trkpt>
<trkpt lat="33.8103131" lon="-118.393867">
  <ele>-0.134</ele>
  <time>2026-09-02T22:11:59Z</time>
  <course>185.93</course>
  <speed>0.01</speed>
  <fix>3d</fix>
</trkpt>
<trkpt lat="33.810313" lon="-118.393867">
  <ele>-0.12</ele>
  <time>2026-09-02T22:11:59Z</time>
  <course>0.0</course>
  <speed>0.0</speed>
  <fix>3d</fix>
</trkpt>
<trkpt lat="33.8103131" lon="-118.393867">
  <ele>-0.131</ele>
  <time>2026-09-02T22:11:59Z</time>
  <course>185.93</course>
  <speed>0.01</speed>
  <fix>3d</fix>
</trkpt>
<trkpt lat="33.810313" lon="-118.393867">
  <ele>-0.12</ele>
  <time>2026-09-02T22:11:59Z</time>
  <course>0.0</course>
  <speed>0.0</speed>
  <fix>3d</fix>
</trkpt>
<trkpt lat="33.8103131" lon="-118.393867">
  <ele>-0.129</ele>
  <time>2026-09-02T22:11:59Z</time>
  <course>185.93</course>
  <speed>0.01</speed>
  <fix>3d</fix>
</trkpt>
<trkpt lat="33.810313" lon="-118.393867">
  <ele>-0.12</ele>
  <time>2026-09-02T22:11:59Z</time>
  <course>0.0</course>
  <speed>0.0</speed>
  <fix>3d</fix>
</trkpt>
<trkpt lat="33.8103131" lon="-118.393867">
  <ele>-0.129</ele>
  <time>2026-09-02T22:11:59Z</time>
  <course>185.92</course>
  <speed>0.01</speed>
  <fix>3d</fix>
</trkpt>
<trkpt lat="33.810313" lon="-118.393867">
  <ele>-0.12</ele>
  <time>2026-09-02T22:11:59Z</time>
  <course>0.0</course>
  <speed>0.0</speed>
  <fix>3d</fix>
</trkpt>
<trkpt lat="33.8103131" lon="-118.393867">
  <ele>-0.129</ele>
  <time>2026-09-02T22:11:59Z</time>
  <course>185.92</course>
  <speed>0.01</speed>
  <fix>3d</fix>
</trkpt>
<trkpt lat="33.810313" lon="-118.393867">
  <ele>-0.12</ele>
  <time>2026-09-02T22:11:59Z</time>
  <course>0.0</course>
  <speed>0.0</speed>
  <fix>3d</fix>
</trkpt>
<trkpt lat="33.8103131" lon="-118.393867">
  <ele>-0.129</ele>
  <time>2026-09-02T22:11:59Z</time>
  <course>185.92</course>
  <speed>0.01</speed>
  <fix>3d</fix>
</trkpt>
<trkpt lat="33.810313" lon="-118.393867">
  <ele>-0.12</ele>
  <time>2026-09-02T22:11:59Z</time>
  <course>0.0</course>
  <speed>0.0</speed>
  <fix>3d</fix>
</trkpt>
<trkpt lat="33.8103131" lon="-118.393867">
  <ele>-0.13</ele>
  <time>2026-09-02T22:11:59Z</time>
  <course>185.91</course>
  <speed>0.01</speed>
  <fix>3d</fix>
</trkpt>
<trkpt lat="33.810313" lon="-118.393867">
  <ele>-0.12</ele>
  <time>2026-09-02T22:11:59Z</time>
  <course>0.0</course>
  <speed>0.0</speed>
  <fix>3d</fix>
</trkpt>
<trkpt lat="33.8103131" lon="-118.393867">
  <ele>-0.131</ele>
  <time>2026-09-02T22:11:59Z</time>
  <course>185.91</course>
  <speed>0.01</speed>
  <fix>3d</fix>
</trkpt>
<trkpt lat="33.810313" lon="-118.393867">
  <ele>-0.12</ele>
  <time>2026-09-02T22:11:59Z</time>
  <course>0.0</course>
  <speed>0.0</speed>
  <fix>3d</fix>
</trkpt>
<trkpt lat="33.8103131" lon="-118.393867">
  <ele>-0.13</ele>
  <time>2026-09-02T22:11:59Z</time>
  <course>185.91</course>
  <speed>0.01</speed>
  <fix>3d</fix>
</trkpt>
<trkpt lat="33.810313" lon="-118.393867">
  <ele>-0.12</ele>
  <time>2026-09-02T22:11:59Z</time>
  <course>0.0</course>
  <speed>0.0</speed>
  <fix>3d</fix>
</trkpt>
<trkpt lat="33.8103131" lon="-118.393867">
  <ele>-0.13</ele>
  <time>2026-09-02T22:11:59Z</time>
  <course>185.9</course>
  <speed>0.01</speed>
  <fix>3d</fix>
</trkpt>
<trkpt lat="33.810313" lon="-118.393867">
  <ele>-0.12</ele>
  <time>2026-09-02T22:11:59Z</time>
  <course>0.0</course>
  <speed>0.0</speed>
  <fix>3d</fix>
</trkpt>
<trkpt lat="33.8103131" lon="-118.393867">
  <ele>-0.129</ele>
  <time>2026-09-02T22:11:59Z</time>
  <course>185.9</course>
  <speed>0.01</speed>
  <fix>3d</fix>
</trkpt>
<trkpt lat="33.810313" lon="-118.393867">
  <ele>-0.12</ele>
  <time>2026-09-02T22:11:59Z</time>
  <course>0.0</course>
  <speed>0.0</speed>
  <fix>3d</fix>
</trkpt>
<trkpt lat="33.8103131" lon="-118.393867">
  <ele>-0.128</ele>
  <time>2026-09-02T22:11:59Z</time>
  <course>185.9</course>
  <speed>0.01</speed>
  <fix>3d</fix>
</trkpt>
<trkpt lat="33.810313" lon="-118.393867">
  <ele>-0.12</ele>
  <time>2026-09-02T22:11:59Z</time>
  <course>0.0</course>
  <speed>0.0</speed>
  <fix>3d</fix>
</trkpt>
<trkpt lat="33.8103131" lon="-118.393867">
  <ele>-0.127</ele>
  <time>2026-09-02T22:11:59Z</time>
  <course>185.9</course>
  <speed>0.01</speed>
  <fix>3d</fix>
</trkpt>
<trkpt lat="33.810313" lon="-118.393867">
  <ele>-0.12</ele>
  <time>2026-09-02T22:11:59Z</time>
  <course>0.0</course>
  <speed>0.0</speed>
  <fix>3d</fix>
</trkpt>
<trkpt lat="33.8103131" lon="-118.393867">
  <ele>-0.128</ele>
  <time>2026-09-02T22:11:59Z</time>
  <course>185.89</course>
  <speed>0.01</speed>
  <fix>3d</fix>
</trkpt>
<trkpt lat="33.810313" lon="-118.393867">
  <ele>-0.12</ele>
  <time>2026-09-02T22:11:59Z</time>
  <course>0.0</course>
  <speed>0.0</speed>
  <fix>3d</fix>
</trkpt>
<trkpt lat="33.8103131" lon="-118.393867">
  <ele>-0.129</ele>
  <time>2026-09-02T22:11:59Z</time>
  <course>185.89</course>
  <speed>0.01</speed>
  <fix>3d</fix>
</trkpt>
<trkpt lat="33.810313" lon="-118.393867">
  <ele>-0.12</ele>
  <time>2026-09-02T22:11:59Z</time>
  <course>0.0</course>
  <speed>0.0</speed>
  <fix>3d</fix>
</trkpt>
<trkpt lat="33.8103131" lon="-118.393867">
  <ele>-0.131</ele>
  <time>2026-09-02T22:11:59Z</time>
  <course>185.89</course>
  <speed>0.01</speed>
  <fix>3d</fix>
</trkpt>
<trkpt lat="33.810313" lon="-118.393867">
  <ele>-0.12</ele>
  <time>2026-09-02T22:11:59Z</time>
  <course>0.0</course>
  <speed>0.0</speed>
  <fix>3d</fix>
</trkpt>
<trkpt lat="33.8103131" lon="-118.393867">
  <ele>-0.133</ele>
  <time>2026-09-02T22:11:59Z</time>
  <course>185.88</course>
  <speed>0.01</speed>
  <fix>3d</fix>
</trkpt>
<trkpt lat="33.810313" lon="-118.393867">
  <ele>-0.12</ele>
  <time>2026-09-02T22:11:59Z</time>
  <course>0.0</course>
  <speed>0.0</speed>
  <fix>3d</fix>
</trkpt>
<trkpt lat="33.8103131" lon="-118.393867">
  <ele>-0.134</ele>
  <time>2026-09-02T22:11:59Z</time>
  <course>185.88</course>
  <speed>0.01</speed>
  <fix>3d</fix>
</trkpt>
<trkpt lat="33.810313" lon="-118.393867">
  <ele>-0.12</ele>
  <time>2026-09-02T22:11:59Z</time>
  <course>0.0</course>
  <speed>0.0</speed>
  <fix>3d</fix>
</trkpt>
<trkpt lat="33.8103131" lon="-118.393867">
  <ele>-0.133</ele>
  <time>2026-09-02T22:11:59Z</time>
  <course>185.88</course>
  <speed>0.01</speed>
  <fix>3d</fix>
</trkpt>
<trkpt lat="33.810313" lon="-118.393867">
  <ele>-0.12</ele>
  <time>2026-09-02T22:11:59Z</time>
  <course>0.0</course>
  <speed>0.0</speed>
  <fix>3d</fix>
</trkpt>
<trkpt lat="33.8103131" lon="-118.393867">
  <ele>-0.131</ele>
  <time>2026-09-02T22:11:59Z</time>
  <course>185.87</course>
  <speed>0.01</speed>
  <fix>3d</fix>
</trkpt>
<trkpt lat="33.810313" lon="-118.393867">
  <ele>-0.12</ele>
  <time>2026-09-02T22:11:59Z</time>
  <course>0.0</course>
  <speed>0.0</speed>
  <fix>3d</fix>
</trkpt>
<trkpt lat="33.8103131" lon="-118.393867">
  <ele>-0.13</ele>
  <time>2026-09-02T22:11:59Z</time>
  <course>185.87</course>
  <speed>0.01</speed>
  <fix>3d</fix>
</trkpt>
<trkpt lat="33.810313" lon="-118.393867">
  <ele>-0.12</ele>
  <time>2026-09-02T22:11:59Z</time>
  <course>0.0</course>
  <speed>0.0</speed>
  <fix>3d</fix>
</trkpt>
<trkpt lat="33.8103131" lon="-118.393867">
  <ele>-0.129</ele>
  <time>2026-09-02T22:11:59Z</time>
  <course>185.87</course>
  <speed>0.01</speed>
  <fix>3d</fix>
</trkpt>
<trkpt lat="33.810313" lon="-118.393867">
  <ele>-0.12</ele>
  <time>2026-09-02T22:11:59Z</time>
  <course>0.0</course>
  <speed>0.0</speed>
  <fix>3d</fix>
</trkpt>
<trkpt lat="33.8103131" lon="-118.393867">
  <ele>-0.129</ele>
  <time>2026-09-02T22:11:59Z</time>
  <course>185.86</course>
  <speed>0.01</speed>
  <fix>3d</fix>
</trkpt>
<trkpt lat="33.810313" lon="-118.393867">
  <ele>-0.12</ele>
  <time>2026-09-02T22:11:59Z</time>
  <course>0.0</course>
  <speed>0.0</speed>
  <fix>3d</fix>
</trkpt>
<trkpt lat="33.8103131" lon="-118.393867">
  <ele>-0.128</ele>
  <time>2026-09-02T22:11:59Z</time>
  <course>185.86</course>
  <speed>0.01</speed>
  <fix>3d</fix>
</trkpt>
<trkpt lat="33.810313" lon="-118.393867">
  <ele>-0.12</ele>
  <time>2026-09-02T22:11:59Z</time>
  <course>0.0</course>
  <speed>0.0</speed>
  <fix>3d</fix>
</trkpt>
<trkpt lat="33.8103131" lon="-118.393867">
  <ele>-0.127</ele>
  <time>2026-09-02T22:11:59Z</time>
  <course>185.86</course>
  <speed>0.01</speed>
  <fix>3d</fix>
</trkpt>
<trkpt lat="33.810313" lon="-118.393867">
  <ele>-0.12</ele>
  <time>2026-09-02T22:11:59Z</time>
  <course>0.0</course>
  <speed>0.0</speed>
  <fix>3d</fix>
</trkpt>
<trkpt lat="33.8103131" lon="-118.393867">
  <ele>-0.128</ele>
  <time>2026-09-02T22:11:59Z</time>
  <course>185.86</course>
  <speed>0.01</speed>
  <fix>3d</fix>
</trkpt>
<trkpt lat="33.810313" lon="-118.393867">
  <ele>-0.12</ele>
  <time>2026-09-02T22:11:59Z</time>
  <course>0.0</course>
  <speed>0.0</speed>
  <fix>3d</fix>
</trkpt>
<trkpt lat="33.8103131" lon="-118.393867">
  <ele>-0.128</ele>
  <time>2026-09-02T22:11:59Z</time>
  <course>185.85</course>
  <speed>0.01</speed>
  <fix>3d</fix>
</trkpt>
<trkpt lat="33.810313" lon="-118.393867">
  <ele>-0.12</ele>
  <time>2026-09-02T22:11:59Z</time>
  <course>0.0</course>
  <speed>0.0</speed>
  <fix>3d</fix>
</trkpt>
<trkpt lat="33.8103131" lon="-118.393867">
  <ele>-0.127</ele>
  <time>2026-09-02T22:11:59Z</time>
  <course>185.85</course>
  <speed>0.01</speed>
  <fix>3d</fix>
</trkpt>
<trkpt lat="33.810313" lon="-118.393867">
  <ele>-0.12</ele>
  <time>2026-09-02T22:11:59Z</time>
  <course>0.0</course>
  <speed>0.0</speed>
  <fix>3d</fix>
</trkpt>
<trkpt lat="33.8103131" lon="-118.393867">
  <ele>-0.126</ele>
  <time>2026-09-02T22:11:59Z</time>
  <course>185.85</course>
  <speed>0.01</speed>
  <fix>3d</fix>
</trkpt>
<trkpt lat="33.810313" lon="-118.393867">
  <ele>-0.12</ele>
  <time>2026-09-02T22:11:59Z</time>
  <course>0.0</course>
  <speed>0.0</speed>
  <fix>3d</fix>
</trkpt>
<trkpt lat="33.8103131" lon="-118.393867">
  <ele>-0.125</ele>
  <time>2026-09-02T22:11:59Z</time>
  <course>185.84</course>
  <speed>0.01</speed>
  <fix>3d</fix>
</trkpt>
<trkpt lat="33.810313" lon="-118.393867">
  <ele>-0.12</ele>
  <time>2026-09-02T22:11:59Z</time>
  <course>0.0</course>
  <speed>0.0</speed>
  <fix>3d</fix>
</trkpt>
<trkpt lat="33.8103131" lon="-118.393867">
  <ele>-0.124</ele>
  <time>2026-09-02T22:11:59Z</time>
  <course>185.84</course>
  <speed>0.01</speed>
  <fix>3d</fix>
</trkpt>
<trkpt lat="33.810313" lon="-118.393867">
  <ele>-0.12</ele>
  <time>2026-09-02T22:11:59Z</time>
  <course>0.0</course>
  <speed>0.0</speed>
  <fix>3d</fix>
</trkpt>
<trkpt lat="33.8103131" lon="-118.393867">
  <ele>-0.123</ele>
  <time>2026-09-02T22:11:59Z</time>
  <course>185.84</course>
  <speed>0.01</speed>
  <fix>3d</fix>
</trkpt>
<trkpt lat="33.810313" lon="-118.393867">
  <ele>-0.12</ele>
  <time>2026-09-02T22:11:59Z</time>
  <course>0.0</course>
  <speed>0.0</speed>
  <fix>3d</fix>
</trkpt>
<trkpt lat="33.8103131" lon="-118.393867">
  <ele>-0.121</ele>
  <time>2026-09-02T22:11:59Z</time>
  <course>185.84</course>
  <speed>0.01</speed>
  <fix>3d</fix>
</trkpt>
<trkpt lat="33.810313" lon="-118.393867">
  <ele>-0.12</ele>
  <time>2026-09-02T22:11:59Z</time>
  <course>0.0</course>
  <speed>0.0</speed>
  <fix>3d</fix>
</trkpt>
<trkpt lat="33.8103131" lon="-118.393867">
  <ele>-0.12</ele>
  <time>2026-09-02T22:11:59Z</time>
  <course>185.83</course>
  <speed>0.01</speed>
  <fix>3d</fix>
</trkpt>
<trkpt lat="33.810313" lon="-118.393867">
  <ele>-0.12</ele>
  <time>2026-09-02T22:11:59Z</time>
  <course>0.0</course>
  <speed>0.0</speed>
  <fix>3d</fix>
</trkpt>
<trkpt lat="33.8103131" lon="-118.393867">
  <ele>-0.119</ele>
  <time>2026-09-02T22:11:59Z</time>
  <course>185.83</course>
  <speed>0.01</speed>
  <fix>3d</fix>
</trkpt>
<trkpt lat="33.810313" lon="-118.393867">
  <ele>-0.12</ele>
  <time>2026-09-02T22:11:59Z</time>
  <course>0.0</course>
  <speed>0.0</speed>
  <fix>3d</fix>
</trkpt>
<trkpt lat="33.8103131" lon="-118.393867">
  <ele>-0.119</ele>
  <time>2026-09-02T22:11:59Z</time>
  <course>185.83</course>
  <speed>0.01</speed>
  <fix>3d</fix>
</trkpt>
<trkpt lat="33.810313" lon="-118.393867">
  <ele>-0.12</ele>
  <time>2026-09-02T22:11:59Z</time>
  <course>0.0</course>
  <speed>0.0</speed>
  <fix>3d</fix>
</trkpt>
<trkpt lat="33.8103131" lon="-118.393867">
  <ele>-0.119</ele>
  <time>2026-09-02T22:11:59Z</time>
  <course>185.83</course>
  <speed>0.01</speed>
  <fix>3d</fix>
</trkpt>
<trkpt lat="33.810313" lon="-118.393867">
  <ele>-0.12</ele>
  <time>2026-09-02T22:11:59Z</time>
  <course>0.0</course>
  <speed>0.0</speed>
  <fix>3d</fix>
</trkpt>
<trkpt lat="33.8103131" lon="-118.393867">
  <ele>-0.119</ele>
  <time>2026-09-02T22:11:59Z</time>
  <course>185.82</course>
  <speed>0.01</speed>
  <fix>3d</fix>
</trkpt>
<trkpt lat="33.810313" lon="-118.393867">
  <ele>-0.12</ele>
  <time>2026-09-02T22:11:59Z</time>
  <course>0.0</course>
  <speed>0.0</speed>
  <fix>3d</fix>
</trkpt>
<trkpt lat="33.8103131" lon="-118.393867">
  <ele>-0.119</ele>
  <time>2026-09-02T22:11:59Z</time>
  <course>185.82</course>
  <speed>0.01</speed>
  <fix>3d</fix>
</trkpt>
<trkpt lat="33.810313" lon="-118.393867">
  <ele>-0.12</ele>
  <time>2026-09-02T22:11:59Z</time>
  <course>0.0</course>
  <speed>0.0</speed>
  <fix>3d</fix>
</trkpt>
<trkpt lat="33.8103131" lon="-118.393867">
  <ele>-0.119</ele>
  <time>2026-09-02T22:11:59Z</time>
  <course>185.82</course>
  <speed>0.01</speed>
  <fix>3d</fix>
</trkpt>
<trkpt lat="33.810313" lon="-118.393867">
  <ele>-0.12</ele>
  <time>2026-09-02T22:11:59Z</time>
  <course>0.0</course>
  <speed>0.0</speed>
  <fix>3d</fix>
</trkpt>
<trkpt lat="33.8103131" lon="-118.393867">
  <ele>-0.119</ele>
  <time>2026-09-02T22:11:59Z</time>
  <course>185.81</course>
  <speed>0.01</speed>
  <fix>3d</fix>
</trkpt>
<trkpt lat="33.810313" lon="-118.393867">
  <ele>-0.12</ele>
  <time>2026-09-02T22:11:59Z</time>
  <course>0.0</course>
  <speed>0.0</speed>
  <fix>3d</fix>
</trkpt>
<trkpt lat="33.8103131" lon="-118.393867">
  <ele>-0.119</ele>
  <time>2026-09-02T22:11:59Z</time>
  <course>185.81</course>
  <speed>0.01</speed>
  <fix>3d</fix>
</trkpt>
<trkpt lat="33.810313" lon="-118.393867">
  <ele>-0.12</ele>
  <time>2026-09-02T22:11:59Z</time>
  <course>0.0</course>
  <speed>0.0</speed>
  <fix>3d</fix>
</trkpt>
<trkpt lat="33.8103131" lon="-118.393867">
  <ele>-0.121</ele>
  <time>2026-09-02T22:11:59Z</time>
  <course>185.81</course>
  <speed>0.01</speed>
  <fix>3d</fix>
</trkpt>
<trkpt lat="33.810313" lon="-118.393867">
  <ele>-0.12</ele>
  <time>2026-09-02T22:11:59Z</time>
  <course>0.0</course>
  <speed>0.0</speed>
  <fix>3d</fix>
</trkpt>
<trkpt lat="33.8103131" lon="-118.393867">
  <ele>-0.124</ele>
  <time>2026-09-02T22:11:59Z</time>
  <course>185.81</course>
  <speed>0.01</speed>
  <fix>3d</fix>
</trkpt>
<trkpt lat="33.810313" lon="-118.393867">
  <ele>-0.12</ele>
  <time>2026-09-02T22:11:59Z</time>
  <course>0.0</course>
  <speed>0.0</speed>
  <fix>3d</fix>
</trkpt>
<trkpt lat="33.8103131" lon="-118.393867">
  <ele>-0.125</ele>
  <time>2026-09-02T22:11:59Z</time>
  <course>185.81</course>
  <speed>0.01</speed>
  <fix>3d</fix>
</trkpt>
<trkpt lat="33.810313" lon="-118.393867">
  <ele>-0.12</ele>
  <time>2026-09-02T22:11:59Z</time>
  <course>0.0</course>
  <speed>0.0</speed>
  <fix>3d</fix>
</trkpt>
<trkpt lat="33.8103131" lon="-118.393867">
  <ele>-0.128</ele>
  <time>2026-09-02T22:11:59Z</time>
  <course>185.8</course>
  <speed>0.01</speed>
  <fix>3d</fix>
</trkpt>
<trkpt lat="33.810313" lon="-118.393867">
  <ele>-0.12</ele>
  <time>2026-09-02T22:11:59Z</time>
  <course>0.0</course>
  <speed>0.0</speed>
  <fix>3d</fix>
</trkpt>
<trkpt lat="33.8103131" lon="-118.393867">
  <ele>-0.131</ele>
  <time>2026-09-02T22:11:59Z</time>
  <course>185.8</course>
  <speed>0.01</speed>
  <fix>3d</fix>
</trkpt>
<trkpt lat="33.810313" lon="-118.393867">
  <ele>-0.12</ele>
  <time>2026-09-02T22:11:59Z</time>
  <course>0.0</course>
  <speed>0.0</speed>
  <fix>3d</fix>
</trkpt>
<trkpt lat="33.8103131" lon="-118.393867">
  <ele>-0.133</ele>
  <time>2026-09-02T22:11:59Z</time>
  <course>185.8</course>
  <speed>0.01</speed>
  <fix>3d</fix>
</trkpt>
<trkpt lat="33.810313" lon="-118.393867">
  <ele>-0.12</ele>
  <time>2026-09-02T22:11:59Z</time>
  <course>0.0</course>
  <speed>0.0</speed>
  <fix>3d</fix>
</trkpt>
<trkpt lat="33.8103131" lon="-118.393867">
  <ele>-0.133</ele>
  <time>2026-09-02T22:11:59Z</time>
  <course>185.79</course>
  <speed>0.01</speed>
  <fix>3d</fix>
</trkpt>
<trkpt lat="33.810313" lon="-118.393867">
  <ele>-0.12</ele>
  <time>2026-09-02T22:11:59Z</time>
  <course>0.0</course>
  <speed>0.0</speed>
  <fix>3d</fix>
</trkpt>
<trkpt lat="33.8103131" lon="-118.393867">
  <ele>-0.132</ele>
  <time>2026-09-02T22:11:59Z</time>
  <course>185.79</course>
  <speed>0.01</speed>
  <fix>3d</fix>
</trkpt>
<trkpt lat="33.810313" lon="-118.393867">
  <ele>-0.12</ele>
  <time>2026-09-02T22:11:59Z</time>
  <course>0.0</course>
  <speed>0.0</speed>
  <fix>3d</fix>
</trkpt>
<trkpt lat="33.8103131" lon="-118.393867">
  <ele>-0.131</ele>
  <time>2026-09-02T22:11:59Z</time>
  <course>185.79</course>
  <speed>0.01</speed>
  <fix>3d</fix>
</trkpt>
<trkpt lat="33.810313" lon="-118.393867">
  <ele>-0.12</ele>
  <time>2026-09-02T22:11:59Z</time>
  <course>0.0</course>
  <speed>0.0</speed>
  <fix>3d</fix>
</trkpt>
<trkpt lat="33.8103131" lon="-118.393867">
  <ele>-0.129</ele>
  <time>2026-09-02T22:11:59Z</time>
  <course>185.79</course>
  <speed>0.01</speed>
  <fix>3d</fix>
</trkpt>
<trkpt lat="33.810313" lon="-118.393867">
  <ele>-0.12</ele>
  <time>2026-09-02T22:11:59Z</time>
  <course>0.0</course>
  <speed>0.0</speed>
  <fix>3d</fix>
</trkpt>
<trkpt lat="33.8103131" lon="-118.393867">
  <ele>-0.128</ele>
  <time>2026-09-02T22:11:59Z</time>
  <course>185.78</course>
  <speed>0.01</speed>
  <fix>3d</fix>
</trkpt>
<trkpt lat="33.810313" lon="-118.393867">
  <ele>-0.12</ele>
  <time>2026-09-02T22:11:59Z</time>
  <course>0.0</course>
  <speed>0.0</speed>
  <fix>3d</fix>
</trkpt>
<trkpt lat="33.8103131" lon="-118.393867">
  <ele>-0.128</ele>
  <time>2026-09-02T22:11:59Z</time>
  <course>185.78</course>
  <speed>0.01</speed>
  <fix>3d</fix>
</trkpt>
<trkpt lat="33.810313" lon="-118.393867">
  <ele>-0.12</ele>
  <time>2026-09-02T22:11:59Z</time>
  <course>0.0</course>
  <speed>0.0</speed>
  <fix>3d</fix>
</trkpt>
<trkpt lat="33.8103131" lon="-118.393867">
  <ele>-0.128</ele>
  <time>2026-09-02T22:11:59Z</time>
  <course>185.78</course>
  <speed>0.01</speed>
  <fix>3d</fix>
</trkpt>
<trkpt lat="33.810313" lon="-118.393867">
  <ele>-0.12</ele>
  <time>2026-09-02T22:11:59Z</time>
  <course>0.0</course>
  <speed>0.0</speed>
  <fix>3d</fix>
</trkpt>
<trkpt lat="33.8103131" lon="-118.393867">
  <ele>-0.128</ele>
  <time>2026-09-02T22:11:59Z</time>
  <course>185.78</course>
  <speed>0.01</speed>
  <fix>3d</fix>
</trkpt>
<trkpt lat="33.810313" lon="-118.393867">
  <ele>-0.12</ele>
  <time>2026-09-02T22:11:59Z</time>
  <course>0.0</course>
  <speed>0.0</speed>
  <fix>3d</fix>
</trkpt>
<trkpt lat="33.8103131" lon="-118.393867">
  <ele>-0.127</ele>
  <time>2026-09-02T22:11:59Z</time>
  <course>185.78</course>
  <speed>0.01</speed>
  <fix>3d</fix>
</trkpt>
<trkpt lat="33.810313" lon="-118.393867">
  <ele>-0.12</ele>
  <time>2026-09-02T22:11:59Z</time>
  <course>0.0</course>
  <speed>0.0</speed>
  <fix>3d</fix>
</trkpt>
<trkpt lat="33.8103131" lon="-118.393867">
  <ele>-0.126</ele>
  <time>2026-09-02T22:11:59Z</time>
  <course>185.77</course>
  <speed>0.01</speed>
  <fix>3d</fix>
</trkpt>
<trkpt lat="33.810313" lon="-118.393867">
  <ele>-0.12</ele>
  <time>2026-09-02T22:11:59Z</time>
  <course>0.0</course>
  <speed>0.0</speed>
  <fix>3d</fix>
</trkpt>
<trkpt lat="33.8103131" lon="-118.393867">
  <ele>-0.125</ele>
  <time>2026-09-02T22:11:59Z</time>
  <course>185.77</course>
  <speed>0.01</speed>
  <fix>3d</fix>
</trkpt>
<trkpt lat="33.810313" lon="-118.393867">
  <ele>-0.12</ele>
  <time>2026-09-02T22:11:59Z</time>
  <course>0.0</course>
  <speed>0.0</speed>
  <fix>3d</fix>
</trkpt>
<trkpt lat="33.8103131" lon="-118.393867">
  <ele>-0.124</ele>
  <time>2026-09-02T22:11:59Z</time>
  <course>185.77</course>
  <speed>0.01</speed>
  <fix>3d</fix>
</trkpt>
<trkpt lat="33.810313" lon="-118.393867">
  <ele>-0.12</ele>
  <time>2026-09-02T22:11:59Z</time>
  <course>0.0</course>
  <speed>0.0</speed>
  <fix>3d</fix>
</trkpt>
<trkpt lat="33.8103131" lon="-118.393867">
  <ele>-0.123</ele>
  <time>2026-09-02T22:11:59Z</time>
  <course>185.77</course>
  <speed>0.01</speed>
  <fix>3d</fix>
</trkpt>
<trkpt lat="33.810313" lon="-118.393867">
  <ele>-0.12</ele>
  <time>2026-09-02T22:11:59Z</time>
  <course>0.0</course>
  <speed>0.0</speed>
  <fix>3d</fix>
</trkpt>
<trkpt lat="33.8103131" lon="-118.393867">
  <ele>-0.122</ele>
  <time>2026-09-02T22:11:59Z</time>
  <course>185.76</course>
  <speed>0.01</speed>
  <fix>3d</fix>
</trkpt>
<trkpt lat="33.810313" lon="-118.393867">
  <ele>-0.12</ele>
  <time>2026-09-02T22:11:59Z</time>
  <course>0.0</course>
  <speed>0.0</speed>
  <fix>3d</fix>
</trkpt>
<trkpt lat="33.8103131" lon="-118.393867">
  <ele>-0.122</ele>
  <time>2026-09-02T22:11:59Z</time>
  <course>185.76</course>
  <speed>0.01</speed>
  <fix>3d</fix>
</trkpt>
<trkpt lat="33.810313" lon="-118.393867">
  <ele>-0.12</ele>
  <time>2026-09-02T22:11:59Z</time>
  <course>0.0</course>
  <speed>0.0</speed>
  <fix>3d</fix>
</trkpt>
<trkpt lat="33.8103131" lon="-118.393867">
  <ele>-0.122</ele>
  <time>2026-09-02T22:11:59Z</time>
  <course>185.76</course>
  <speed>0.01</speed>
  <fix>3d</fix>
</trkpt>
<trkpt lat="33.810313" lon="-118.393867">
  <ele>-0.12</ele>
  <time>2026-09-02T22:11:59Z</time>
  <course>0.0</course>
  <speed>0.0</speed>
  <fix>3d</fix>
</trkpt>
<trkpt lat="33.8103131" lon="-118.393867">
  <ele>-0.121</ele>
  <time>2026-09-02T22:11:59Z</time>
  <course>185.76</course>
  <speed>0.01</speed>
  <fix>3d</fix>
</trkpt>
<trkpt lat="33.810313" lon="-118.393867">
  <ele>-0.12</ele>
  <time>2026-09-02T22:11:59Z</time>
  <course>0.0</course>
  <speed>0.0</speed>
  <fix>3d</fix>
</trkpt>
<trkpt lat="33.8103131" lon="-118.393867">
  <ele>-0.122</ele>
  <time>2026-09-02T22:11:59Z</time>
  <course>185.75</course>
  <speed>0.01</speed>
  <fix>3d</fix>
</trkpt>
<trkpt lat="33.810313" lon="-118.393867">
  <ele>-0.12</ele>
  <time>2026-09-02T22:11:59Z</time>
  <course>0.0</course>
  <speed>0.0</speed>
  <fix>3d</fix>
</trkpt>
<trkpt lat="33.8103131" lon="-118.393867">
  <ele>-0.122</ele>
  <time>2026-09-02T22:11:59Z</time>
  <course>185.75</course>
  <speed>0.01</speed>
  <fix>3d</fix>
</trkpt>
<trkpt lat="33.810313" lon="-118.393867">
  <ele>-0.12</ele>
  <time>2026-09-02T22:11:59Z</time>
  <course>0.0</course>
  <speed>0.0</speed>
  <fix>3d</fix>
</trkpt>
<trkpt lat="33.8103131" lon="-118.393867">
  <ele>-0.122</ele>
  <time>2026-09-02T22:11:59Z</time>
  <course>185.75</course>
  <speed>0.01</speed>
  <fix>3d</fix>
</trkpt>
<trkpt lat="33.810313" lon="-118.393867">
  <ele>-0.12</ele>
  <time>2026-09-02T22:11:59Z</time>
  <course>0.0</course>
  <speed>0.0</speed>
  <fix>3d</fix>
</trkpt>
<trkpt lat="33.8103131" lon="-118.393867">
  <ele>-0.122</ele>
  <time>2026-09-02T22:11:59Z</time>
  <course>185.75</course>
  <speed>0.01</speed>
  <fix>3d</fix>
</trkpt>
<trkpt lat="33.810313" lon="-118.393867">
  <ele>-0.12</ele>
  <time>2026-09-02T22:11:59Z</time>
  <course>0.0</course>
  <speed>0.0</speed>
  <fix>3d</fix>
</trkpt>
<trkpt lat="33.8103131" lon="-118.393867">
  <ele>-0.122</ele>
  <time>2026-09-02T22:11:59Z</time>
  <course>185.74</course>
  <speed>0.01</speed>
  <fix>3d</fix>
</trkpt>
<trkpt lat="33.810313" lon="-118.393867">
  <ele>-0.12</ele>
  <time>2026-09-02T22:11:59Z</time>
  <course>0.0</course>
  <speed>0.0</speed>
  <fix>3d</fix>
</trkpt>
<trkpt lat="33.8103131" lon="-118.393867">
  <ele>-0.121</ele>
  <time>2026-09-02T22:11:59Z</time>
  <course>185.74</course>
  <speed>0.01</speed>
  <fix>3d</fix>
</trkpt>
<trkpt lat="33.810313" lon="-118.393867">
  <ele>-0.12</ele>
  <time>2026-09-02T22:11:59Z</time>
  <course>0.0</course>
  <speed>0.0</speed>
  <fix>3d</fix>
</trkpt>
<trkpt lat="33.8103131" lon="-118.393867">
  <ele>-0.12</ele>
  <time>2026-09-02T22:11:59Z</time>
  <course>185.74</course>
  <speed>0.01</speed>
  <fix>3d</fix>
</trkpt>
<trkpt lat="33.810313" lon="-118.393867">
  <ele>-0.12</ele>
  <time>2026-09-02T22:11:59Z</time>
  <course>0.0</course>
  <speed>0.0</speed>
  <fix>3d</fix>
</trkpt>
<trkpt lat="33.8103131" lon="-118.393867">
  <ele>-0.12</ele>
  <time>2026-09-02T22:11:59Z</time>
  <course>185.74</course>
  <speed>0.01</speed>
  <fix>3d</fix>
</trkpt>
<trkpt lat="33.810313" lon="-118.393867">
  <ele>-0.12</ele>
  <time>2026-09-02T22:11:59Z</time>
  <course>0.0</course>
  <speed>0.0</speed>
  <fix>3d</fix>
</trkpt>
<trkpt lat="33.8103131" lon="-118.393867">
  <ele>-0.12</ele>
  <time>2026-09-02T22:11:59Z</time>
  <course>185.74</course>
  <speed>0.01</speed>
  <fix>3d</fix>
</trkpt>
<trkpt lat="33.810313" lon="-118.393867">
  <ele>-0.12</ele>
  <time>2026-09-02T22:11:59Z</time>
  <course>0.0</course>
  <speed>0.0</speed>
  <fix>3d</fix>
</trkpt>
<trkpt lat="33.8103131" lon="-118.393867">
  <ele>-0.122</ele>
  <time>2026-09-02T22:11:59Z</time>
  <course>185.73</course>
  <speed>0.01</speed>
  <fix>3d</fix>
</trkpt>
<trkpt lat="33.810313" lon="-118.393867">
  <ele>-0.12</ele>
  <time>2026-09-02T22:11:59Z</time>
  <course>0.0</course>
  <speed>0.0</speed>
  <fix>3d</fix>
</trkpt>
<trkpt lat="33.8103131" lon="-118.393867">
  <ele>-0.125</ele>
  <time>2026-09-02T22:11:59Z</time>
  <course>185.73</course>
  <speed>0.01</speed>
  <fix>3d</fix>
</trkpt>
<trkpt lat="33.810313" lon="-118.393867">
  <ele>-0.12</ele>
  <time>2026-09-02T22:11:59Z</time>
  <course>0.0</course>
  <speed>0.0</speed>
  <fix>3d</fix>
</trkpt>
<trkpt lat="33.8103131" lon="-118.393867">
  <ele>-0.128</ele>
  <time>2026-09-02T22:11:59Z</time>
  <course>185.73</course>
  <speed>0.01</speed>
  <fix>3d</fix>
</trkpt>
<trkpt lat="33.810313" lon="-118.393867">
  <ele>-0.12</ele>
  <time>2026-09-02T22:11:59Z</time>
  <course>0.0</course>
  <speed>0.0</speed>
  <fix>3d</fix>
</trkpt>
<trkpt lat="33.8103131" lon="-118.393867">
  <ele>-0.13</ele>
  <time>2026-09-02T22:11:59Z</time>
  <course>185.73</course>
  <speed>0.01</speed>
  <fix>3d</fix>
</trkpt>
<trkpt lat="33.810313" lon="-118.393867">
  <ele>-0.12</ele>
  <time>2026-09-02T22:11:59Z</time>
  <course>0.0</course>
  <speed>0.0</speed>
  <fix>3d</fix>
</trkpt>
<trkpt lat="33.8103131" lon="-118.393867">
  <ele>-0.13</ele>
  <time>2026-09-02T22:11:59Z</time>
  <course>185.73</course>
  <speed>0.01</speed>
  <fix>3d</fix>
</trkpt>
<trkpt lat="33.810313" lon="-118.393867">
  <ele>-0.12</ele>
  <time>2026-09-02T22:11:59Z</time>
  <course>0.0</course>
  <speed>0.0</speed>
  <fix>3d</fix>
</trkpt>
<trkpt lat="33.8103131" lon="-118.393867">
  <ele>-0.129</ele>
  <time>2026-09-02T22:11:59Z</time>
  <course>185.72</course>
  <speed>0.01</speed>
  <fix>3d</fix>
</trkpt>
<trkpt lat="33.810313" lon="-118.393867">
  <ele>-0.12</ele>
  <time>2026-09-02T22:11:59Z</time>
  <course>0.0</course>
  <speed>0.0</speed>
  <fix>3d</fix>
</trkpt>
<trkpt lat="33.8103131" lon="-118.393867">
  <ele>-0.127</ele>
  <time>2026-09-02T22:11:59Z</time>
  <course>185.72</course>
  <speed>0.01</speed>
  <fix>3d</fix>
</trkpt>
<trkpt lat="33.810313" lon="-118.393867">
  <ele>-0.12</ele>
  <time>2026-09-02T22:11:59Z</time>
  <course>0.0</course>
  <speed>0.0</speed>
  <fix>3d</fix>
</trkpt>
<trkpt lat="33.8103131" lon="-118.393867">
  <ele>-0.125</ele>
  <time>2026-09-02T22:11:59Z</time>
  <course>185.72</course>
  <speed>0.01414213562373095</speed>
  <fix>3d</fix>
</trkpt>
<trkpt lat="33.810313" lon="-118.393867">
  <ele>-0.12</ele>
  <time>2026-09-02T22:11:59Z</time>
  <course>0.0</course>
  <speed>0.0</speed>
  <fix>3d</fix>
</trkpt>
<trkpt lat="33.8103131" lon="-118.393867">
  <ele>-0.125</ele>
  <time>2026-09-02T22:11:59Z</time>
  <course>185.72</course>
  <speed>0.01414213562373095</speed>
  <fix>3d</fix>
</trkpt>
<trkpt lat="33.810313" lon="-118.393867">
  <ele>-0.12</ele>
  <time>2026-09-02T22:11:59Z</time>
  <course>0.0</course>
  <speed>0.0</speed>
  <fix>3d</fix>
</trkpt>
<trkpt lat="33.8103131" lon="-118.393867">
  <ele>-0.124</ele>
  <time>2026-09-02T22:11:59Z</time>
  <course>185.72</course>
  <speed>0.01414213562373095</speed>
  <fix>3d</fix>
</trkpt>
<trkpt lat="33.810313" lon="-118.393867">
  <ele>-0.12</ele>
  <time>2026-09-02T22:11:59Z</time>
  <course>0.0</course>
  <speed>0.0</speed>
  <fix>3d</fix>
</trkpt>
<trkpt lat="33.8103131" lon="-118.393867">
  <ele>-0.123</ele>
  <time>2026-09-02T22:11:59Z</time>
  <course>185.71</course>
  <speed>0.01414213562373095</speed>
  <fix>3d</fix>
</trkpt>
<trkpt lat="33.810313" lon="-118.393867">
  <ele>-0.12</ele>
  <time>2026-09-02T22:11:59Z</time>
  <course>0.0</course>
  <speed>0.0</speed>
  <fix>3d</fix>
</trkpt>
<trkpt lat="33.8103131" lon="-118.393867">
  <ele>-0.122</ele>
  <time>2026-09-02T22:11:59Z</time>
  <course>185.71</course>
  <speed>0.01414213562373095</speed>
  <fix>3d</fix>
</trkpt>
<trkpt lat="33.810313" lon="-118.393867">
  <ele>-0.12</ele>
  <time>2026-09-02T22:11:59Z</time>
  <course>0.0</course>
  <speed>0.0</speed>
  <fix>3d</fix>
</trkpt>
<trkpt lat="33.8103131" lon="-118.393867">
  <ele>-0.122</ele>
  <time>2026-09-02T22:11:59Z</time>
  <course>185.71</course>
  <speed>0.01414213562373095</speed>
  <fix>3d</fix>
</trkpt>
<trkpt lat="33.810313" lon="-118.393867">
  <ele>-0.12</ele>
  <time>2026-09-02T22:11:59Z</time>
  <course>0.0</course>
  <speed>0.0</speed>
  <fix>3d</fix>
</trkpt>
<trkpt lat="33.8103131" lon="-118.393867">
  <ele>-0.122</ele>
  <time>2026-09-02T22:11:59Z</time>
  <course>185.71</course>
  <speed>0.01414213562373095</speed>
  <fix>3d</fix>
</trkpt>
<trkpt lat="33.810313" lon="-118.393867">
  <ele>-0.12</ele>
  <time>2026-09-02T22:11:59Z</time>
  <course>0.0</course>
  <speed>0.0</speed>
  <fix>3d</fix>
</trkpt>
<trkpt lat="33.8103131" lon="-118.393867">
  <ele>-0.122</ele>
  <time>2026-09-02T22:11:59Z</time>
  <course>185.71</course>
  <speed>0.01414213562373095</speed>
  <fix>3d</fix>
</trkpt>
<trkpt lat="33.810313" lon="-118.393867">
  <ele>-0.12</ele>
  <time>2026-09-02T22:11:59Z</time>
  <course>0.0</course>
  <speed>0.0</speed>
  <fix>3d</fix>
</trkpt>
<trkpt lat="33.8103131" lon="-118.393867">
  <ele>-0.121</ele>
  <time>2026-09-02T22:11:59Z</time>
  <course>185.7</course>
  <speed>0.01414213562373095</speed>
  <fix>3d</fix>
</trkpt>
<trkpt lat="33.810313" lon="-118.393867">
  <ele>-0.12</ele>
  <time>2026-09-02T22:11:59Z</time>
  <course>0.0</course>
  <speed>0.0</speed>
  <fix>3d</fix>
</trkpt>
<trkpt lat="33.8103131" lon="-118.393867">
  <ele>-0.12</ele>
  <time>2026-09-02T22:11:59Z</time>
  <course>185.7</course>
  <speed>0.01414213562373095</speed>
  <fix>3d</fix>
</trkpt>
<trkpt lat="33.810313" lon="-118.393867">
  <ele>-0.12</ele>
  <time>2026-09-02T22:11:59Z</time>
  <course>0.0</course>
  <speed>0.0</speed>
  <fix>3d</fix>
</trkpt>
<trkpt lat="33.8103131" lon="-118.393867">
  <ele>-0.12</ele>
  <time>2026-09-02T22:11:59Z</time>
  <course>185.7</course>
  <speed>0.01414213562373095</speed>
  <fix>3d</fix>
</trkpt>
<trkpt lat="33.810313" lon="-118.393867">
  <ele>-0.12</ele>
  <time>2026-09-02T22:11:59Z</time>
  <course>0.0</course>
  <speed>0.0</speed>
  <fix>3d</fix>
</trkpt>
<trkpt lat="33.8103131" lon="-118.393867">
  <ele>-0.12</ele>
  <time>2026-09-02T22:11:59Z</time>
  <course>185.7</course>
  <speed>0.01414213562373095</speed>
  <fix>3d</fix>
</trkpt>
<trkpt lat="33.810313" lon="-118.393867">
  <ele>-0.12</ele>
  <time>2026-09-02T22:11:59Z</time>
  <course>0.0</course>
  <speed>0.0</speed>
  <fix>3d</fix>
</trkpt>
<trkpt lat="33.8103131" lon="-118.393867">
  <ele>-0.121</ele>
  <time>2026-09-02T22:11:59Z</time>
  <course>185.7</course>
  <speed>0.01414213562373095</speed>
  <fix>3d</fix>
</trkpt>
<trkpt lat="33.810313" lon="-118.393867">
  <ele>-0.12</ele>
  <time>2026-09-02T22:11:59Z</time>
  <course>0.0</course>
  <speed>0.0</speed>
  <fix>3d</fix>
</trkpt>
<trkpt lat="33.8103131" lon="-118.393867">
  <ele>-0.122</ele>
  <time>2026-09-02T22:11:59Z</time>
  <course>185.69</course>
  <speed>0.01414213562373095</speed>
  <fix>3d</fix>
</trkpt>
<trkpt lat="33.810313" lon="-118.393867">
  <ele>-0.12</ele>
  <time>2026-09-02T22:11:59Z</time>
  <course>0.0</course>
  <speed>0.0</speed>
  <fix>3d</fix>
</trkpt>
<trkpt lat="33.8103131" lon="-118.393867">
  <ele>-0.124</ele>
  <time>2026-09-02T22:11:59Z</time>
  <course>185.69</course>
  <speed>0.01414213562373095</speed>
  <fix>3d</fix>
</trkpt>
<trkpt lat="33.810313" lon="-118.393867">
  <ele>-0.12</ele>
  <time>2026-09-02T22:11:59Z</time>
  <course>0.0</course>
  <speed>0.0</speed>
  <fix>3d</fix>
</trkpt>
<trkpt lat="33.8103131" lon="-118.393867">
  <ele>-0.126</ele>
  <time>2026-09-02T22:11:59Z</time>
  <course>185.69</course>
  <speed>0.01414213562373095</speed>
  <fix>3d</fix>
</trkpt>
<trkpt lat="33.810313" lon="-118.393867">
  <ele>-0.12</ele>
  <time>2026-09-02T22:11:59Z</time>
  <course>0.0</course>
  <speed>0.0</speed>
  <fix>3d</fix>
</trkpt>
<trkpt lat="33.8103131" lon="-118.393867">
  <ele>-0.127</ele>
  <time>2026-09-02T22:11:59Z</time>
  <course>185.69</course>
  <speed>0.01414213562373095</speed>
  <fix>3d</fix>
</trkpt>
<trkpt lat="33.810313" lon="-118.393867">
  <ele>-0.12</ele>
  <time>2026-09-02T22:11:59Z</time>
  <course>0.0</course>
  <speed>0.0</speed>
  <fix>3d</fix>
</trkpt>
<trkpt lat="33.8103131" lon="-118.393867">
  <ele>-0.128</ele>
  <time>2026-09-02T22:11:59Z</time>
  <course>185.69</course>
  <speed>0.01414213562373095</speed>
  <fix>3d</fix>
</trkpt>
<trkpt lat="33.810313" lon="-118.393867">
  <ele>-0.12</ele>
  <time>2026-09-02T22:11:59Z</time>
  <course>0.0</course>
  <speed>0.0</speed>
  <fix>3d</fix>
</trkpt>
<trkpt lat="33.8103131" lon="-118.393867">
  <ele>-0.127</ele>
  <time>2026-09-02T22:11:59Z</time>
  <course>185.69</course>
  <speed>0.01414213562373095</speed>
  <fix>3d</fix>
</trkpt>
<trkpt lat="33.810313" lon="-118.393867">
  <ele>-0.12</ele>
  <time>2026-09-02T22:11:59Z</time>
  <course>0.0</course>
  <speed>0.0</speed>
  <fix>3d</fix>
</trkpt>
<trkpt lat="33.8103131" lon="-118.393867">
  <ele>-0.126</ele>
  <time>2026-09-02T22:11:59Z</time>
  <course>185.68</course>
  <speed>0.01414213562373095</speed>
  <fix>3d</fix>
</trkpt>
<trkpt lat="33.810313" lon="-118.393867">
  <ele>-0.12</ele>
  <time>2026-09-02T22:11:59Z</time>
  <course>0.0</course>
  <speed>0.0</speed>
  <fix>3d</fix>
</trkpt>
<trkpt lat="33.8103131" lon="-118.393867">
  <ele>-0.125</ele>
  <time>2026-09-02T22:11:59Z</time>
  <course>185.68</course>
  <speed>0.01414213562373095</speed>
  <fix>3d</fix>
</trkpt>
<trkpt lat="33.810313" lon="-118.393867">
  <ele>-0.12</ele>
  <time>2026-09-02T22:11:59Z</time>
  <course>0.0</course>
  <speed>0.0</speed>
  <fix>3d</fix>
</trkpt>
<trkpt lat="33.8103131" lon="-118.393867">
  <ele>-0.125</ele>
  <time>2026-09-02T22:11:59Z</time>
  <course>185.68</course>
  <speed>0.01414213562373095</speed>
  <fix>3d</fix>
</trkpt>
<trkpt lat="33.810313" lon="-118.393867">
  <ele>-0.12</ele>
  <time>2026-09-02T22:11:59Z</time>
  <course>0.0</course>
  <speed>0.0</speed>
  <fix>3d</fix>
</trkpt>
<trkpt lat="33.8103131" lon="-118.393867">
  <ele>-0.126</ele>
  <time>2026-09-02T22:11:59Z</time>
  <course>185.68</course>
  <speed>0.01414213562373095</speed>
  <fix>3d</fix>
</trkpt>
<trkpt lat="33.810313" lon="-118.393867">
  <ele>-0.12</ele>
  <time>2026-09-02T22:11:59Z</time>
  <course>0.0</course>
  <speed>0.0</speed>
  <fix>3d</fix>
</trkpt>
<trkpt lat="33.8103131" lon="-118.393867">
  <ele>-0.128</ele>
  <time>2026-09-02T22:11:59Z</time>
  <course>185.68</course>
  <speed>0.01414213562373095</speed>
  <fix>3d</fix>
</trkpt>
<trkpt lat="33.810313" lon="-118.393867">
  <ele>-0.12</ele>
  <time>2026-09-02T22:11:59Z</time>
  <course>0.0</course>
  <speed>0.0</speed>
  <fix>3d</fix>
</trkpt>
<trkpt lat="33.8103131" lon="-118.393867">
  <ele>-0.131</ele>
  <time>2026-09-02T22:11:59Z</time>
  <course>185.67</course>
  <speed>0.01414213562373095</speed>
  <fix>3d</fix>
</trkpt>
<trkpt lat="33.810313" lon="-118.393867">
  <ele>-0.12</ele>
  <time>2026-09-02T22:11:59Z</time>
  <course>0.0</course>
  <speed>0.0</speed>
  <fix>3d</fix>
</trkpt>
<trkpt lat="33.8103131" lon="-118.393867">
  <ele>-0.133</ele>
  <time>2026-09-02T22:11:59Z</time>
  <course>185.67</course>
  <speed>0.01414213562373095</speed>
  <fix>3d</fix>
</trkpt>
<trkpt lat="33.810313" lon="-118.393867">
  <ele>-0.12</ele>
  <time>2026-09-02T22:11:59Z</time>
  <course>0.0</course>
  <speed>0.0</speed>
  <fix>3d</fix>
</trkpt>
<trkpt lat="33.8103131" lon="-118.393867">
  <ele>-0.133</ele>
  <time>2026-09-02T22:11:59Z</time>
  <course>185.67</course>
  <speed>0.01414213562373095</speed>
  <fix>3d</fix>
</trkpt>
<trkpt lat="33.810313" lon="-118.393867">
  <ele>-0.12</ele>
  <time>2026-09-02T22:11:59Z</time>
  <course>0.0</course>
  <speed>0.0</speed>
  <fix>3d</fix>
</trkpt>
<trkpt lat="33.8103131" lon="-118.393867">
  <ele>-0.132</ele>
  <time>2026-09-02T22:11:59Z</time>
  <course>185.67</course>
  <speed>0.01414213562373095</speed>
  <fix>3d</fix>
</trkpt>
<trkpt lat="33.810313" lon="-118.393867">
  <ele>-0.12</ele>
  <time>2026-09-02T22:11:59Z</time>
  <course>0.0</course>
  <speed>0.0</speed>
  <fix>3d</fix>
</trkpt>
<trkpt lat="33.8103131" lon="-118.393867">
  <ele>-0.132</ele>
  <time>2026-09-02T22:11:59Z</time>
  <course>185.67</course>
  <speed>0.01414213562373095</speed>
  <fix>3d</fix>
</trkpt>
<trkpt lat="33.810313" lon="-118.393867">
  <ele>-0.12</ele>
  <time>2026-09-02T22:11:59Z</time>
  <course>0.0</course>
  <speed>0.0</speed>
  <fix>3d</fix>
</trkpt>
<trkpt lat="33.8103131" lon="-118.393867">
  <ele>-0.131</ele>
  <time>2026-09-02T22:11:59Z</time>
  <course>185.67</course>
  <speed>0.01414213562373095</speed>
  <fix>3d</fix>
</trkpt>
<trkpt lat="33.810313" lon="-118.393867">
  <ele>-0.12</ele>
  <time>2026-09-02T22:11:59Z</time>
  <course>0.0</course>
  <speed>0.0</speed>
  <fix>3d</fix>
</trkpt>
<trkpt lat="33.8103131" lon="-118.393867">
  <ele>-0.13</ele>
  <time>2026-09-02T22:11:59Z</time>
  <course>185.66</course>
  <speed>0.01414213562373095</speed>
  <fix>3d</fix>
</trkpt>
<trkpt lat="33.810313" lon="-118.393867">
  <ele>-0.12</ele>
  <time>2026-09-02T22:11:59Z</time>
  <course>0.0</course>
  <speed>0.0</speed>
  <fix>3d</fix>
</trkpt>
<trkpt lat="33.8103131" lon="-118.393867">
  <ele>-0.13</ele>
  <time>2026-09-02T22:11:59Z</time>
  <course>185.66</course>
  <speed>0.01414213562373095</speed>
  <fix>3d</fix>
</trkpt>
<trkpt lat="33.810313" lon="-118.393867">
  <ele>-0.12</ele>
  <time>2026-09-02T22:11:59Z</time>
  <course>0.0</course>
  <speed>0.0</speed>
  <fix>3d</fix>
</trkpt>
<trkpt lat="33.8103131" lon="-118.393867">
  <ele>-0.13</ele>
  <time>2026-09-02T22:11:59Z</time>
  <course>185.66</course>
  <speed>0.01414213562373095</speed>
  <fix>3d</fix>
</trkpt>
<trkpt lat="33.810313" lon="-118.393867">
  <ele>-0.12</ele>
  <time>2026-09-02T22:11:59Z</time>
  <course>0.0</course>
  <speed>0.0</speed>
  <fix>3d</fix>
</trkpt>
<trkpt lat="33.8103131" lon="-118.393867">
  <ele>-0.129</ele>
  <time>2026-09-02T22:11:59Z</time>
  <course>185.66</course>
  <speed>0.01414213562373095</speed>
  <fix>3d</fix>
</trkpt>
<trkpt lat="33.810313" lon="-118.393867">
  <ele>-0.12</ele>
  <time>2026-09-02T22:11:59Z</time>
  <course>0.0</course>
  <speed>0.0</speed>
  <fix>3d</fix>
</trkpt>
<trkpt lat="33.8103131" lon="-118.393867">
  <ele>-0.13</ele>
  <time>2026-09-02T22:11:59Z</time>
  <course>185.66</course>
  <speed>0.01414213562373095</speed>
  <fix>3d</fix>
</trkpt>
<trkpt lat="33.810313" lon="-118.393867">
  <ele>-0.12</ele>
  <time>2026-09-02T22:11:59Z</time>
  <course>0.0</course>
  <speed>0.0</speed>
  <fix>3d</fix>
</trkpt>
<trkpt lat="33.8103131" lon="-118.393867">
  <ele>-0.13</ele>
  <time>2026-09-02T22:11:59Z</time>
  <course>185.66</course>
  <speed>0.01414213562373095</speed>
  <fix>3d</fix>
</trkpt>
<trkpt lat="33.810313" lon="-118.393867">
  <ele>-0.12</ele>
  <time>2026-09-02T22:11:59Z</time>
  <course>0.0</course>
  <speed>0.0</speed>
  <fix>3d</fix>
</trkpt>
<trkpt lat="33.8103131" lon="-118.393867">
  <ele>-0.13</ele>
  <time>2026-09-02T22:11:59Z</time>
  <course>185.65</course>
  <speed>0.01414213562373095</speed>
  <fix>3d</fix>
</trkpt>
<trkpt lat="33.810313" lon="-118.393867">
  <ele>-0.12</ele>
  <time>2026-09-02T22:11:59Z</time>
  <course>0.0</course>
  <speed>0.0</speed>
  <fix>3d</fix>
</trkpt>
<trkpt lat="33.8103131" lon="-118.393867">
  <ele>-0.128</ele>
  <time>2026-09-02T22:11:59Z</time>
  <course>185.65</course>
  <speed>0.01414213562373095</speed>
  <fix>3d</fix>
</trkpt>
<trkpt lat="33.810313" lon="-118.393867">
  <ele>-0.12</ele>
  <time>2026-09-02T22:11:59Z</time>
  <course>0.0</course>
  <speed>0.0</speed>
  <fix>3d</fix>
</trkpt>
<trkpt lat="33.8103131" lon="-118.393867">
  <ele>-0.127</ele>
  <time>2026-09-02T22:11:59Z</time>
  <course>185.65</course>
  <speed>0.01414213562373095</speed>
  <fix>3d</fix>
</trkpt>
<trkpt lat="33.810313" lon="-118.393867">
  <ele>-0.12</ele>
  <time>2026-09-02T22:11:59Z</time>
  <course>0.0</course>
  <speed>0.0</speed>
  <fix>3d</fix>
</trkpt>
<trkpt lat="33.8103131" lon="-118.393867">
  <ele>-0.125</ele>
  <time>2026-09-02T22:11:59Z</time>
  <course>185.65</course>
  <speed>0.01414213562373095</speed>
  <fix>3d</fix>
</trkpt>
<trkpt lat="33.810313" lon="-118.393867">
  <ele>-0.12</ele>
  <time>2026-09-02T22:11:59Z</time>
  <course>0.0</course>
  <speed>0.0</speed>
  <fix>3d</fix>
</trkpt>
<trkpt lat="33.8103131" lon="-118.393867">
  <ele>-0.122</ele>
  <time>2026-09-02T22:11:59Z</time>
  <course>185.65</course>
  <speed>0.01414213562373095</speed>
  <fix>3d</fix>
</trkpt>
<trkpt lat="33.810313" lon="-118.393867">
  <ele>-0.12</ele>
  <time>2026-09-02T22:11:59Z</time>
  <course>0.0</course>
  <speed>0.0</speed>
  <fix>3d</fix>
</trkpt>
<trkpt lat="33.8103131" lon="-118.393867">
  <ele>-0.121</ele>
  <time>2026-09-02T22:11:59Z</time>
  <course>185.65</course>
  <speed>0.01414213562373095</speed>
  <fix>3d</fix>
</trkpt>
<trkpt lat="33.810313" lon="-118.393867">
  <ele>-0.12</ele>
  <time>2026-09-02T22:11:59Z</time>
  <course>0.0</course>
  <speed>0.0</speed>
  <fix>3d</fix>
</trkpt>
<trkpt lat="33.8103131" lon="-118.393867">
  <ele>-0.122</ele>
  <time>2026-09-02T22:11:59Z</time>
  <course>185.65</course>
  <speed>0.01414213562373095</speed>
  <fix>3d</fix>
</trkpt>
<trkpt lat="33.810313" lon="-118.393867">
  <ele>-0.12</ele>
  <time>2026-09-02T22:11:59Z</time>
  <course>0.0</course>
  <speed>0.0</speed>
  <fix>3d</fix>
</trkpt>
<trkpt lat="33.8103131" lon="-118.393867">
  <ele>-0.124</ele>
  <time>2026-09-02T22:11:59Z</time>
  <course>185.64</course>
  <speed>0.01414213562373095</speed>
  <fix>3d</fix>
</trkpt>
<trkpt lat="33.810313" lon="-118.393867">
  <ele>-0.12</ele>
  <time>2026-09-02T22:11:59Z</time>
  <course>0.0</course>
  <speed>0.0</speed>
  <fix>3d</fix>
</trkpt>
<trkpt lat="33.8103131" lon="-118.393867">
  <ele>-0.126</ele>
  <time>2026-09-02T22:11:59Z</time>
  <course>185.64</course>
  <speed>0.01414213562373095</speed>
  <fix>3d</fix>
</trkpt>
<trkpt lat="33.810313" lon="-118.393867">
  <ele>-0.12</ele>
  <time>2026-09-02T22:11:59Z</time>
  <course>0.0</course>
  <speed>0.0</speed>
  <fix>3d</fix>
</trkpt>
<trkpt lat="33.8103131" lon="-118.393867">
  <ele>-0.128</ele>
  <time>2026-09-02T22:11:59Z</time>
  <course>185.64</course>
  <speed>0.01414213562373095</speed>
  <fix>3d</fix>
</trkpt>
<trkpt lat="33.810313" lon="-118.393867">
  <ele>-0.12</ele>
  <time>2026-09-02T22:11:59Z</time>
  <course>0.0</course>
  <speed>0.0</speed>
  <fix>3d</fix>
</trkpt>
<trkpt lat="33.8103131" lon="-118.393867">
  <ele>-0.129</ele>
  <time>2026-09-02T22:11:59Z</time>
  <course>185.64</course>
  <speed>0.01414213562373095</speed>
  <fix>3d</fix>
</trkpt>
<trkpt lat="33.810313" lon="-118.393867">
  <ele>-0.12</ele>
  <time>2026-09-02T22:11:59Z</time>
  <course>0.0</course>
  <speed>0.0</speed>
  <fix>3d</fix>
</trkpt>
<trkpt lat="33.8103131" lon="-118.3938671">
  <ele>-0.129</ele>
  <time>2026-09-02T22:11:59Z</time>
  <course>185.64</course>
  <speed>0.01414213562373095</speed>
  <fix>3d</fix>
</trkpt>
<trkpt lat="33.810313" lon="-118.393867">
  <ele>-0.12</ele>
  <time>2026-09-02T22:11:59Z</time>
  <course>0.0</course>
  <speed>0.0</speed>
  <fix>3d</fix>
</trkpt>
<trkpt lat="33.8103131" lon="-118.3938671">
  <ele>-0.129</ele>
  <time>2026-09-02T22:11:59Z</time>
  <course>185.64</course>
  <speed>0.01414213562373095</speed>
  <fix>3d</fix>
</trkpt>
<trkpt lat="33.810313" lon="-118.393867">
  <ele>-0.12</ele>
  <time>2026-09-02T22:11:59Z</time>
  <course>0.0</course>
  <speed>0.0</speed>
  <fix>3d</fix>
</trkpt>
<trkpt lat="33.8103131" lon="-118.3938671">
  <ele>-0.128</ele>
  <time>2026-09-02T22:11:59Z</time>
  <course>185.64</course>
  <speed>0.022360679774997897</speed>
  <fix>3d</fix>
</trkpt>
<trkpt lat="33.810313" lon="-118.393867">
  <ele>-0.12</ele>
  <time>2026-09-02T22:11:59Z</time>
  <course>0.0</course>
  <speed>0.0</speed>
  <fix>3d</fix>
</trkpt>
<trkpt lat="33.8103131" lon="-118.3938671">
  <ele>-0.127</ele>
  <time>2026-09-02T22:11:59Z</time>
  <course>185.63</course>
  <speed>0.022360679774997897</speed>
  <fix>3d</fix>
</trkpt>
<trkpt lat="33.810313" lon="-118.393867">
  <ele>-0.12</ele>
  <time>2026-09-02T22:11:59Z</time>
  <course>0.0</course>
  <speed>0.0</speed>
  <fix>3d</fix>
</trkpt>
<trkpt lat="33.8103131" lon="-118.3938671">
  <ele>-0.126</ele>
  <time>2026-09-02T22:11:59Z</time>
  <course>185.63</course>
  <speed>0.022360679774997897</speed>
  <fix>3d</fix>
</trkpt>
<trkpt lat="33.810313" lon="-118.393867">
  <ele>-0.12</ele>
  <time>2026-09-02T22:11:59Z</time>
  <course>0.0</course>
  <speed>0.0</speed>
  <fix>3d</fix>
</trkpt>
<trkpt lat="33.8103131" lon="-118.3938671">
  <ele>-0.126</ele>
  <time>2026-09-02T22:11:59Z</time>
  <course>185.63</course>
  <speed>0.022360679774997897</speed>
  <fix>3d</fix>
</trkpt>
<trkpt lat="33.810313" lon="-118.393867">
  <ele>-0.12</ele>
  <time>2026-09-02T22:11:59Z</time>
  <course>0.0</course>
  <speed>0.0</speed>
  <fix>3d</fix>
</trkpt>
<trkpt lat="33.8103131" lon="-118.3938671">
  <ele>-0.126</ele>
  <time>2026-09-02T22:11:59Z</time>
  <course>185.63</course>
  <speed>0.022360679774997897</speed>
  <fix>3d</fix>
</trkpt>
<trkpt lat="33.810313" lon="-118.393867">
  <ele>-0.12</ele>
  <time>2026-09-02T22:11:59Z</time>
  <course>0.0</course>
  <speed>0.0</speed>
  <fix>3d</fix>
</trkpt>
<trkpt lat="33.8103131" lon="-118.3938671">
  <ele>-0.127</ele>
  <time>2026-09-02T22:11:59Z</time>
  <course>185.63</course>
  <speed>0.022360679774997897</speed>
  <fix>3d</fix>
</trkpt>
<trkpt lat="33.810313" lon="-118.393867">
  <ele>-0.12</ele>
  <time>2026-09-02T22:11:59Z</time>
  <course>0.0</course>
  <speed>0.0</speed>
  <fix>3d</fix>
</trkpt>
<trkpt lat="33.8103131" lon="-118.3938671">
  <ele>-0.127</ele>
  <time>2026-09-02T22:11:59Z</time>
  <course>185.63</course>
  <speed>0.022360679774997897</speed>
  <fix>3d</fix>
</trkpt>
<trkpt lat="33.810313" lon="-118.393867">
  <ele>-0.12</ele>
  <time>2026-09-02T22:11:59Z</time>
  <course>0.0</course>
  <speed>0.0</speed>
  <fix>3d</fix>
</trkpt>
<trkpt lat="33.8103131" lon="-118.3938671">
  <ele>-0.127</ele>
  <time>2026-09-02T22:11:59Z</time>
  <course>185.62</course>
  <speed>0.022360679774997897</speed>
  <fix>3d</fix>
</trkpt>
<trkpt lat="33.810313" lon="-118.393867">
  <ele>-0.12</ele>
  <time>2026-09-02T22:11:59Z</time>
  <course>0.0</course>
  <speed>0.0</speed>
  <fix>3d</fix>
</trkpt>
<trkpt lat="33.8103131" lon="-118.3938671">
  <ele>-0.127</ele>
  <time>2026-09-02T22:11:59Z</time>
  <course>185.62</course>
  <speed>0.022360679774997897</speed>
  <fix>3d</fix>
</trkpt>
<trkpt lat="33.810313" lon="-118.393867">
  <ele>-0.12</ele>
  <time>2026-09-02T22:11:59Z</time>
  <course>0.0</course>
  <speed>0.0</speed>
  <fix>3d</fix>
</trkpt>
<trkpt lat="33.8103131" lon="-118.3938671">
  <ele>-0.127</ele>
  <time>2026-09-02T22:11:59Z</time>
  <course>185.62</course>
  <speed>0.022360679774997897</speed>
  <fix>3d</fix>
</trkpt>
<trkpt lat="33.810313" lon="-118.393867">
  <ele>-0.12</ele>
  <time>2026-09-02T22:11:59Z</time>
  <course>0.0</course>
  <speed>0.0</speed>
  <fix>3d</fix>
</trkpt>
<trkpt lat="33.8103131" lon="-118.3938671">
  <ele>-0.126</ele>
  <time>2026-09-02T22:11:59Z</time>
  <course>185.62</course>
  <speed>0.022360679774997897</speed>
  <fix>3d</fix>
</trkpt>
<trkpt lat="33.810313" lon="-118.393867">
  <ele>-0.12</ele>
  <time>2026-09-02T22:11:59Z</time>
  <course>0.0</course>
  <speed>0.0</speed>
  <fix>3d</fix>
</trkpt>
<trkpt lat="33.8103131" lon="-118.3938671">
  <ele>-0.125</ele>
  <time>2026-09-02T22:11:59Z</time>
  <course>185.62</course>
  <speed>0.022360679774997897</speed>
  <fix>3d</fix>
</trkpt>
<trkpt lat="33.810313" lon="-118.393867">
  <ele>-0.12</ele>
  <time>2026-09-02T22:11:59Z</time>
  <course>0.0</course>
  <speed>0.0</speed>
  <fix>3d</fix>
</trkpt>
<trkpt lat="33.8103131" lon="-118.3938671">
  <ele>-0.125</ele>
  <time>2026-09-02T22:11:59Z</time>
  <course>185.62</course>
  <speed>0.022360679774997897</speed>
  <fix>3d</fix>
</trkpt>
<trkpt lat="33.810313" lon="-118.393867">
  <ele>-0.12</ele>
  <time>2026-09-02T22:11:59Z</time>
  <course>0.0</course>
  <speed>0.0</speed>
  <fix>3d</fix>
</trkpt>
<trkpt lat="33.8103131" lon="-118.3938671">
  <ele>-0.124</ele>
  <time>2026-09-02T22:11:59Z</time>
  <course>185.62</course>
  <speed>0.022360679774997897</speed>
  <fix>3d</fix>
</trkpt>
<trkpt lat="33.810313" lon="-118.393867">
  <ele>-0.12</ele>
  <time>2026-09-02T22:11:59Z</time>
  <course>0.0</course>
  <speed>0.0</speed>
  <fix>3d</fix>
</trkpt>
<trkpt lat="33.8103131" lon="-118.3938671">
  <ele>-0.125</ele>
  <time>2026-09-02T22:11:59Z</time>
  <course>185.62</course>
  <speed>0.022360679774997897</speed>
  <fix>3d</fix>
</trkpt>
<trkpt lat="33.810313" lon="-118.393867">
  <ele>-0.12</ele>
  <time>2026-09-02T22:11:59Z</time>
  <course>0.0</course>
  <speed>0.0</speed>
  <fix>3d</fix>
</trkpt>
<trkpt lat="33.8103131" lon="-118.3938671">
  <ele>-0.126</ele>
  <time>2026-09-02T22:11:59Z</time>
  <course>185.61</course>
  <speed>0.022360679774997897</speed>
  <fix>3d</fix>
</trkpt>
<trkpt lat="33.810313" lon="-118.393867">
  <ele>-0.12</ele>
  <time>2026-09-02T22:11:59Z</time>
  <course>0.0</course>
  <speed>0.0</speed>
  <fix>3d</fix>
</trkpt>
<trkpt lat="33.8103131" lon="-118.3938671">
  <ele>-0.128</ele>
  <time>2026-09-02T22:11:59Z</time>
  <course>185.61</course>
  <speed>0.022360679774997897</speed>
  <fix>3d</fix>
</trkpt>
<trkpt lat="33.810313" lon="-118.393867">
  <ele>-0.12</ele>
  <time>2026-09-02T22:11:59Z</time>
  <course>0.0</course>
  <speed>0.0</speed>
  <fix>3d</fix>
</trkpt>
<trkpt lat="33.8103131" lon="-118.3938671">
  <ele>-0.129</ele>
  <time>2026-09-02T22:11:59Z</time>
  <course>185.61</course>
  <speed>0.022360679774997897</speed>
  <fix>3d</fix>
</trkpt>
<trkpt lat="33.810313" lon="-118.393867">
  <ele>-0.12</ele>
  <time>2026-09-02T22:11:59Z</time>
  <course>0.0</course>
  <speed>0.0</speed>
  <fix>3d</fix>
</trkpt>
<trkpt lat="33.8103131" lon="-118.3938671">
  <ele>-0.131</ele>
  <time>2026-09-02T22:11:59Z</time>
  <course>185.61</course>
  <speed>0.022360679774997897</speed>
  <fix>3d</fix>
</trkpt>
<trkpt lat="33.810313" lon="-118.393867">
  <ele>-0.12</ele>
  <time>2026-09-02T22:11:59Z</time>
  <course>0.0</course>
  <speed>0.0</speed>
  <fix>3d</fix>
</trkpt>
<trkpt lat="33.8103131" lon="-118.3938671">
  <ele>-0.132</ele>
  <time>2026-09-02T22:11:59Z</time>
  <course>185.61</course>
  <speed>0.022360679774997897</speed>
  <fix>3d</fix>
</trkpt>
<trkpt lat="33.810313" lon="-118.393867">
  <ele>-0.12</ele>
  <time>2026-09-02T22:11:59Z</time>
  <course>0.0</course>
  <speed>0.0</speed>
  <fix>3d</fix>
</trkpt>
<trkpt lat="33.8103131" lon="-118.3938671">
  <ele>-0.132</ele>
  <time>2026-09-02T22:11:59Z</time>
  <course>185.61</course>
  <speed>0.022360679774997897</speed>
  <fix>3d</fix>
</trkpt>
<trkpt lat="33.810313" lon="-118.393867">
  <ele>-0.12</ele>
  <time>2026-09-02T22:11:59Z</time>
  <course>0.0</course>
  <speed>0.0</speed>
  <fix>3d</fix>
</trkpt>
<trkpt lat="33.8103131" lon="-118.3938671">
  <ele>-0.13</ele>
  <time>2026-09-02T22:11:59Z</time>
  <course>185.61</course>
  <speed>0.022360679774997897</speed>
  <fix>3d</fix>
</trkpt>
<trkpt lat="33.810313" lon="-118.393867">
  <ele>-0.12</ele>
  <time>2026-09-02T22:11:59Z</time>
  <course>0.0</course>
  <speed>0.0</speed>
  <fix>3d</fix>
</trkpt>
<trkpt lat="33.8103131" lon="-118.3938671">
  <ele>-0.129</ele>
  <time>2026-09-02T22:11:59Z</time>
  <course>185.6</course>
  <speed>0.022360679774997897</speed>
  <fix>3d</fix>
</trkpt>
<trkpt lat="33.810313" lon="-118.393867">
  <ele>-0.12</ele>
  <time>2026-09-02T22:11:59Z</time>
  <course>0.0</course>
  <speed>0.0</speed>
  <fix>3d</fix>
</trkpt>
<trkpt lat="33.8103131" lon="-118.3938671">
  <ele>-0.129</ele>
  <time>2026-09-02T22:11:59Z</time>
  <course>185.6</course>
  <speed>0.022360679774997897</speed>
  <fix>3d</fix>
</trkpt>
<trkpt lat="33.810313" lon="-118.393867">
  <ele>-0.12</ele>
  <time>2026-09-02T22:11:59Z</time>
  <course>0.0</course>
  <speed>0.0</speed>
  <fix>3d</fix>
</trkpt>
<trkpt lat="33.8103131" lon="-118.3938671">
  <ele>-0.13</ele>
  <time>2026-09-02T22:11:59Z</time>
  <course>185.6</course>
  <speed>0.022360679774997897</speed>
  <fix>3d</fix>
</trkpt>
<trkpt lat="33.810313" lon="-118.393867">
  <ele>-0.12</ele>
  <time>2026-09-02T22:11:59Z</time>
  <course>0.0</course>
  <speed>0.0</speed>
  <fix>3d</fix>
</trkpt>
<trkpt lat="33.8103131" lon="-118.3938671">
  <ele>-0.132</ele>
  <time>2026-09-02T22:11:59Z</time>
  <course>185.6</course>
  <speed>0.022360679774997897</speed>
  <fix>3d</fix>
</trkpt>
<trkpt lat="33.810313" lon="-118.393867">
  <ele>-0.12</ele>
  <time>2026-09-02T22:11:59Z</time>
  <course>0.0</course>
  <speed>0.0</speed>
  <fix>3d</fix>
</trkpt>
<trkpt lat="33.8103131" lon="-118.3938671">
  <ele>-0.133</ele>
  <time>2026-09-02T22:11:59Z</time>
  <course>185.6</course>
  <speed>0.022360679774997897</speed>
  <fix>3d</fix>
</trkpt>
<trkpt lat="33.810313" lon="-118.393867">
  <ele>-0.12</ele>
  <time>2026-09-02T22:11:59Z</time>
  <course>0.0</course>
  <speed>0.0</speed>
  <fix>3d</fix>
</trkpt>
<trkpt lat="33.8103131" lon="-118.3938671">
  <ele>-0.133</ele>
  <time>2026-09-02T22:11:59Z</time>
  <course>185.6</course>
  <speed>0.022360679774997897</speed>
  <fix>3d</fix>
</trkpt>
<trkpt lat="33.810313" lon="-118.393867">
  <ele>-0.12</ele>
  <time>2026-09-02T22:11:59Z</time>
  <course>0.0</course>
  <speed>0.0</speed>
  <fix>3d</fix>
</trkpt>
<trkpt lat="33.8103131" lon="-118.3938671">
  <ele>-0.132</ele>
  <time>2026-09-02T22:11:59Z</time>
  <course>185.6</course>
  <speed>0.022360679774997897</speed>
  <fix>3d</fix>
</trkpt>
<trkpt lat="33.810313" lon="-118.393867">
  <ele>-0.12</ele>
  <time>2026-09-02T22:11:59Z</time>
  <course>0.0</course>
  <speed>0.0</speed>
  <fix>3d</fix>
</trkpt>
<trkpt lat="33.8103131" lon="-118.3938671">
  <ele>-0.131</ele>
  <time>2026-09-02T22:11:59Z</time>
  <course>185.6</course>
  <speed>0.022360679774997897</speed>
  <fix>3d</fix>
</trkpt>
<trkpt lat="33.810313" lon="-118.393867">
  <ele>-0.12</ele>
  <time>2026-09-02T22:11:59Z</time>
  <course>0.0</course>
  <speed>0.0</speed>
  <fix>3d</fix>
</trkpt>
<trkpt lat="33.8103131" lon="-118.3938671">
  <ele>-0.128</ele>
  <time>2026-09-02T22:11:59Z</time>
  <course>185.6</course>
  <speed>0.022360679774997897</speed>
  <fix>3d</fix>
</trkpt>
<trkpt lat="33.810313" lon="-118.393867">
  <ele>-0.12</ele>
  <time>2026-09-02T22:11:59Z</time>
  <course>0.0</course>
  <speed>0.0</speed>
  <fix>3d</fix>
</trkpt>
<trkpt lat="33.8103131" lon="-118.3938671">
  <ele>-0.126</ele>
  <time>2026-09-02T22:11:59Z</time>
  <course>185.59</course>
  <speed>0.022360679774997897</speed>
  <fix>3d</fix>
</trkpt>
<trkpt lat="33.810313" lon="-118.393867">
  <ele>-0.12</ele>
  <time>2026-09-02T22:11:59Z</time>
  <course>0.0</course>
  <speed>0.0</speed>
  <fix>3d</fix>
</trkpt>
<trkpt lat="33.8103131" lon="-118.3938671">
  <ele>-0.124</ele>
  <time>2026-09-02T22:11:59Z</time>
  <course>185.59</course>
  <speed>0.022360679774997897</speed>
  <fix>3d</fix>
</trkpt>
<trkpt lat="33.810313" lon="-118.393867">
  <ele>-0.12</ele>
  <time>2026-09-02T22:11:59Z</time>
  <course>0.0</course>
  <speed>0.0</speed>
  <fix>3d</fix>
</trkpt>
<trkpt lat="33.8103131" lon="-118.3938671">
  <ele>-0.125</ele>
  <time>2026-09-02T22:11:59Z</time>
  <course>185.59</course>
  <speed>0.022360679774997897</speed>
  <fix>3d</fix>
</trkpt>
<trkpt lat="33.810313" lon="-118.393867">
  <ele>-0.12</ele>
  <time>2026-09-02T22:11:59Z</time>
  <course>0.0</course>
  <speed>0.0</speed>
  <fix>3d</fix>
</trkpt>
<trkpt lat="33.8103131" lon="-118.3938671">
  <ele>-0.126</ele>
  <time>2026-09-02T22:11:59Z</time>
  <course>185.59</course>
  <speed>0.022360679774997897</speed>
  <fix>3d</fix>
</trkpt>
<trkpt lat="33.810313" lon="-118.393867">
  <ele>-0.12</ele>
  <time>2026-09-02T22:11:59Z</time>
  <course>0.0</course>
  <speed>0.0</speed>
  <fix>3d</fix>
</trkpt>
<trkpt lat="33.8103131" lon="-118.3938671">
  <ele>-0.126</ele>
  <time>2026-09-02T22:11:59Z</time>
  <course>185.59</course>
  <speed>0.022360679774997897</speed>
  <fix>3d</fix>
</trkpt>
<trkpt lat="33.810313" lon="-118.393867">
  <ele>-0.12</ele>
  <time>2026-09-02T22:11:59Z</time>
  <course>0.0</course>
  <speed>0.0</speed>
  <fix>3d</fix>
</trkpt>
<trkpt lat="33.8103131" lon="-118.3938671">
  <ele>-0.127</ele>
  <time>2026-09-02T22:11:59Z</time>
  <course>185.59</course>
  <speed>0.022360679774997897</speed>
  <fix>3d</fix>
</trkpt>
<trkpt lat="33.810313" lon="-118.393867">
  <ele>-0.12</ele>
  <time>2026-09-02T22:11:59Z</time>
  <course>0.0</course>
  <speed>0.0</speed>
  <fix>3d</fix>
</trkpt>
<trkpt lat="33.8103131" lon="-118.3938671">
  <ele>-0.127</ele>
  <time>2026-09-02T22:11:59Z</time>
  <course>185.59</course>
  <speed>0.022360679774997897</speed>
  <fix>3d</fix>
</trkpt>
<trkpt lat="33.810313" lon="-118.393867">
  <ele>-0.12</ele>
  <time>2026-09-02T22:11:59Z</time>
  <course>0.0</course>
  <speed>0.0</speed>
  <fix>3d</fix>
</trkpt>
<trkpt lat="33.8103131" lon="-118.3938671">
  <ele>-0.126</ele>
  <time>2026-09-02T22:11:59Z</time>
  <course>185.59</course>
  <speed>0.022360679774997897</speed>
  <fix>3d</fix>
</trkpt>
<trkpt lat="33.810313" lon="-118.393867">
  <ele>-0.12</ele>
  <time>2026-09-02T22:11:59Z</time>
  <course>0.0</course>
  <speed>0.0</speed>
  <fix>3d</fix>
</trkpt>
<trkpt lat="33.8103131" lon="-118.3938671">
  <ele>-0.125</ele>
  <time>2026-09-02T22:11:59Z</time>
  <course>185.58</course>
  <speed>0.022360679774997897</speed>
  <fix>3d</fix>
</trkpt>
<trkpt lat="33.810313" lon="-118.393867">
  <ele>-0.12</ele>
  <time>2026-09-02T22:11:59Z</time>
  <course>0.0</course>
  <speed>0.0</speed>
  <fix>3d</fix>
</trkpt>
<trkpt lat="33.8103131" lon="-118.3938671">
  <ele>-0.125</ele>
  <time>2026-09-02T22:11:59Z</time>
  <course>185.58</course>
  <speed>0.022360679774997897</speed>
  <fix>3d</fix>
</trkpt>
<trkpt lat="33.810313" lon="-118.393867">
  <ele>-0.12</ele>
  <time>2026-09-02T22:11:59Z</time>
  <course>0.0</course>
  <speed>0.0</speed>
  <fix>3d</fix>
</trkpt>
<trkpt lat="33.8103131" lon="-118.3938671">
  <ele>-0.124</ele>
  <time>2026-09-02T22:11:59Z</time>
  <course>185.58</course>
  <speed>0.022360679774997897</speed>
  <fix>3d</fix>
</trkpt>
<trkpt lat="33.810313" lon="-118.393867">
  <ele>-0.12</ele>
  <time>2026-09-02T22:11:59Z</time>
  <course>0.0</course>
  <speed>0.0</speed>
  <fix>3d</fix>
</trkpt>
<trkpt lat="33.8103131" lon="-118.3938671">
  <ele>-0.125</ele>
  <time>2026-09-02T22:11:59Z</time>
  <course>185.58</course>
  <speed>0.022360679774997897</speed>
  <fix>3d</fix>
</trkpt>
<trkpt lat="33.810313" lon="-118.393867">
  <ele>-0.12</ele>
  <time>2026-09-02T22:11:59Z</time>
  <course>0.0</course>
  <speed>0.0</speed>
  <fix>3d</fix>
</trkpt>
<trkpt lat="33.8103131" lon="-118.3938671">
  <ele>-0.125</ele>
  <time>2026-09-02T22:11:59Z</time>
  <course>185.58</course>
  <speed>0.022360679774997897</speed>
  <fix>3d</fix>
</trkpt>
<trkpt lat="33.810313" lon="-118.393867">
  <ele>-0.12</ele>
  <time>2026-09-02T22:11:59Z</time>
  <course>0.0</course>
  <speed>0.0</speed>
  <fix>3d</fix>
</trkpt>
<trkpt lat="33.8103131" lon="-118.3938671">
  <ele>-0.124</ele>
  <time>2026-09-02T22:11:59Z</time>
  <course>185.58</course>
  <speed>0.022360679774997897</speed>
  <fix>3d</fix>
</trkpt>
<trkpt lat="33.810313" lon="-118.393867">
  <ele>-0.12</ele>
  <time>2026-09-02T22:11:59Z</time>
  <course>0.0</course>
  <speed>0.0</speed>
  <fix>3d</fix>
</trkpt>
<trkpt lat="33.8103131" lon="-118.3938671">
  <ele>-0.124</ele>
  <time>2026-09-02T22:11:59Z</time>
  <course>185.58</course>
  <speed>0.022360679774997897</speed>
  <fix>3d</fix>
</trkpt>
<trkpt lat="33.810313" lon="-118.393867">
  <ele>-0.12</ele>
  <time>2026-09-02T22:11:59Z</time>
  <course>0.0</course>
  <speed>0.0</speed>
  <fix>3d</fix>
</trkpt>
<trkpt lat="33.8103131" lon="-118.3938671">
  <ele>-0.125</ele>
  <time>2026-09-02T22:11:59Z</time>
  <course>185.58</course>
  <speed>0.022360679774997897</speed>
  <fix>3d</fix>
</trkpt>
<trkpt lat="33.810313" lon="-118.393867">
  <ele>-0.12</ele>
  <time>2026-09-02T22:11:59Z</time>
  <course>0.0</course>
  <speed>0.0</speed>
  <fix>3d</fix>
</trkpt>
<trkpt lat="33.8103131" lon="-118.3938671">
  <ele>-0.126</ele>
  <time>2026-09-02T22:11:59Z</time>
  <course>185.58</course>
  <speed>0.022360679774997897</speed>
  <fix>3d</fix>
</trkpt>
<trkpt lat="33.810313" lon="-118.393867">
  <ele>-0.12</ele>
  <time>2026-09-02T22:11:59Z</time>
  <course>0.0</course>
  <speed>0.0</speed>
  <fix>3d</fix>
</trkpt>
<trkpt lat="33.8103131" lon="-118.3938671">
  <ele>-0.126</ele>
  <time>2026-09-02T22:11:59Z</time>
  <course>185.57</course>
  <speed>0.022360679774997897</speed>
  <fix>3d</fix>
</trkpt>
<trkpt lat="33.810313" lon="-118.393867">
  <ele>-0.12</ele>
  <time>2026-09-02T22:11:59Z</time>
  <course>0.0</course>
  <speed>0.0</speed>
  <fix>3d</fix>
</trkpt>
<trkpt lat="33.8103131" lon="-118.3938671">
  <ele>-0.125</ele>
  <time>2026-09-02T22:11:59Z</time>
  <course>185.57</course>
  <speed>0.022360679774997897</speed>
  <fix>3d</fix>
</trkpt>
<trkpt lat="33.810313" lon="-118.393867">
  <ele>-0.12</ele>
  <time>2026-09-02T22:11:59Z</time>
  <course>0.0</course>
  <speed>0.0</speed>
  <fix>3d</fix>
</trkpt>
<trkpt lat="33.8103131" lon="-118.3938671">
  <ele>-0.124</ele>
  <time>2026-09-02T22:11:59Z</time>
  <course>185.57</course>
  <speed>0.022360679774997897</speed>
  <fix>3d</fix>
</trkpt>
<trkpt lat="33.810313" lon="-118.393867">
  <ele>-0.12</ele>
  <time>2026-09-02T22:11:59Z</time>
  <course>0.0</course>
  <speed>0.0</speed>
  <fix>3d</fix>
</trkpt>
<trkpt lat="33.8103131" lon="-118.3938671">
  <ele>-0.123</ele>
  <time>2026-09-02T22:11:59Z</time>
  <course>185.57</course>
  <speed>0.022360679774997897</speed>
  <fix>3d</fix>
</trkpt>
<trkpt lat="33.810313" lon="-118.393867">
  <ele>-0.12</ele>
  <time>2026-09-02T22:11:59Z</time>
  <course>0.0</course>
  <speed>0.0</speed>
  <fix>3d</fix>
</trkpt>
<trkpt lat="33.8103131" lon="-118.3938671">
  <ele>-0.121</ele>
  <time>2026-09-02T22:11:59Z</time>
  <course>185.57</course>
  <speed>0.022360679774997897</speed>
  <fix>3d</fix>
</trkpt>
<trkpt lat="33.810313" lon="-118.393867">
  <ele>-0.12</ele>
  <time>2026-09-02T22:11:59Z</time>
  <course>0.0</course>
  <speed>0.0</speed>
  <fix>3d</fix>
</trkpt>
<trkpt lat="33.8103131" lon="-118.3938671">
  <ele>-0.12</ele>
  <time>2026-09-02T22:11:59Z</time>
  <course>185.57</course>
  <speed>0.022360679774997897</speed>
  <fix>3d</fix>
</trkpt>
<trkpt lat="33.810313" lon="-118.393867">
  <ele>-0.12</ele>
  <time>2026-09-02T22:11:59Z</time>
  <course>0.0</course>
  <speed>0.0</speed>
  <fix>3d</fix>
</trkpt>
<trkpt lat="33.8103131" lon="-118.3938671">
  <ele>-0.12</ele>
  <time>2026-09-02T22:11:59Z</time>
  <course>185.57</course>
  <speed>0.022360679774997897</speed>
  <fix>3d</fix>
</trkpt>
<trkpt lat="33.810313" lon="-118.393867">
  <ele>-0.12</ele>
  <time>2026-09-02T22:11:59Z</time>
  <course>0.0</course>
  <speed>0.0</speed>
  <fix>3d</fix>
</trkpt>
<trkpt lat="33.8103131" lon="-118.3938671">
  <ele>-0.12</ele>
  <time>2026-09-02T22:11:59Z</time>
  <course>185.57</course>
  <speed>0.022360679774997897</speed>
  <fix>3d</fix>
</trkpt>
<trkpt lat="33.810313" lon="-118.393867">
  <ele>-0.12</ele>
  <time>2026-09-02T22:11:59Z</time>
  <course>0.0</course>
  <speed>0.0</speed>
  <fix>3d</fix>
</trkpt>
<trkpt lat="33.8103131" lon="-118.3938671">
  <ele>-0.12</ele>
  <time>2026-09-02T22:11:59Z</time>
  <course>185.57</course>
  <speed>0.022360679774997897</speed>
  <fix>3d</fix>
</trkpt>
<trkpt lat="33.810313" lon="-118.393867">
  <ele>-0.12</ele>
  <time>2026-09-02T22:11:59Z</time>
  <course>0.0</course>
  <speed>0.0</speed>
  <fix>3d</fix>
</trkpt>
<trkpt lat="33.8103131" lon="-118.3938671">
  <ele>-0.121</ele>
  <time>2026-09-02T22:11:59Z</time>
  <course>185.56</course>
  <speed>0.022360679774997897</speed>
  <fix>3d</fix>
</trkpt>
<trkpt lat="33.810313" lon="-118.393867">
  <ele>-0.12</ele>
  <time>2026-09-02T22:11:59Z</time>
  <course>0.0</course>
  <speed>0.0</speed>
  <fix>3d</fix>
</trkpt>
<trkpt lat="33.8103131" lon="-118.3938671">
  <ele>-0.122</ele>
  <time>2026-09-02T22:11:59Z</time>
  <course>185.56</course>
  <speed>0.022360679774997897</speed>
  <fix>3d</fix>
</trkpt>
<trkpt lat="33.810313" lon="-118.393867">
  <ele>-0.12</ele>
  <time>2026-09-02T22:11:59Z</time>
  <course>0.0</course>
  <speed>0.0</speed>
  <fix>3d</fix>
</trkpt>
<trkpt lat="33.8103131" lon="-118.3938671">
  <ele>-0.122</ele>
  <time>2026-09-02T22:11:59Z</time>
  <course>185.56</course>
  <speed>0.022360679774997897</speed>
  <fix>3d</fix>
</trkpt>
<trkpt lat="33.810313" lon="-118.393867">
  <ele>-0.12</ele>
  <time>2026-09-02T22:11:59Z</time>
  <course>0.0</course>
  <speed>0.0</speed>
  <fix>3d</fix>
</trkpt>
<trkpt lat="33.8103131" lon="-118.3938671">
  <ele>-0.122</ele>
  <time>2026-09-02T22:11:59Z</time>
  <course>185.56</course>
  <speed>0.022360679774997897</speed>
  <fix>3d</fix>
</trkpt>
<trkpt lat="33.810313" lon="-118.393867">
  <ele>-0.12</ele>
  <time>2026-09-02T22:11:59Z</time>
  <course>0.0</course>
  <speed>0.0</speed>
  <fix>3d</fix>
</trkpt>
<trkpt lat="33.8103131" lon="-118.3938671">
  <ele>-0.122</ele>
  <time>2026-09-02T22:11:59Z</time>
  <course>185.56</course>
  <speed>0.022360679774997897</speed>
  <fix>3d</fix>
</trkpt>
<trkpt lat="33.810313" lon="-118.393867">
  <ele>-0.12</ele>
  <time>2026-09-02T22:11:59Z</time>
  <course>0.0</course>
  <speed>0.0</speed>
  <fix>3d</fix>
</trkpt>
<trkpt lat="33.8103131" lon="-118.3938671">
  <ele>-0.121</ele>
  <time>2026-09-02T22:11:59Z</time>
  <course>185.56</course>
  <speed>0.022360679774997897</speed>
  <fix>3d</fix>
</trkpt>
<trkpt lat="33.810313" lon="-118.393867">
  <ele>-0.12</ele>
  <time>2026-09-02T22:11:59Z</time>
  <course>0.0</course>
  <speed>0.0</speed>
  <fix>3d</fix>
</trkpt>
<trkpt lat="33.8103131" lon="-118.3938671">
  <ele>-0.121</ele>
  <time>2026-09-02T22:11:59Z</time>
  <course>185.56</course>
  <speed>0.022360679774997897</speed>
  <fix>3d</fix>
</trkpt>
<trkpt lat="33.810313" lon="-118.393867">
  <ele>-0.12</ele>
  <time>2026-09-02T22:11:59Z</time>
  <course>0.0</course>
  <speed>0.0</speed>
  <fix>3d</fix>
</trkpt>
<trkpt lat="33.8103131" lon="-118.3938671">
  <ele>-0.122</ele>
  <time>2026-09-02T22:11:59Z</time>
  <course>185.56</course>
  <speed>0.022360679774997897</speed>
  <fix>3d</fix>
</trkpt>
<trkpt lat="33.810313" lon="-118.393867">
  <ele>-0.12</ele>
  <time>2026-09-02T22:11:59Z</time>
  <course>0.0</course>
  <speed>0.0</speed>
  <fix>3d</fix>
</trkpt>
<trkpt lat="33.8103131" lon="-118.3938671">
  <ele>-0.125</ele>
  <time>2026-09-02T22:11:59Z</time>
  <course>185.56</course>
  <speed>0.022360679774997897</speed>
  <fix>3d</fix>
</trkpt>
<trkpt lat="33.810313" lon="-118.393867">
  <ele>-0.12</ele>
  <time>2026-09-02T22:11:59Z</time>
  <course>0.0</course>
  <speed>0.0</speed>
  <fix>3d</fix>
</trkpt>
<trkpt lat="33.8103131" lon="-118.3938671">
  <ele>-0.127</ele>
  <time>2026-09-02T22:11:59Z</time>
  <course>185.56</course>
  <speed>0.022360679774997897</speed>
  <fix>3d</fix>
</trkpt>
<trkpt lat="33.810313" lon="-118.393867">
  <ele>-0.12</ele>
  <time>2026-09-02T22:11:59Z</time>
  <course>0.0</course>
  <speed>0.0</speed>
  <fix>3d</fix>
</trkpt>
<trkpt lat="33.8103131" lon="-118.3938671">
  <ele>-0.13</ele>
  <time>2026-09-02T22:11:59Z</time>
  <course>185.56</course>
  <speed>0.022360679774997897</speed>
  <fix>3d</fix>
</trkpt>
<trkpt lat="33.810313" lon="-118.393867">
  <ele>-0.12</ele>
  <time>2026-09-02T22:11:59Z</time>
  <course>0.0</course>
  <speed>0.0</speed>
  <fix>3d</fix>
</trkpt>
<trkpt lat="33.8103131" lon="-118.3938671">
  <ele>-0.132</ele>
  <time>2026-09-02T22:11:59Z</time>
  <course>185.55</course>
  <speed>0.022360679774997897</speed>
  <fix>3d</fix>
</trkpt>
<trkpt lat="33.810313" lon="-118.393867">
  <ele>-0.12</ele>
  <time>2026-09-02T22:11:59Z</time>
  <course>0.0</course>
  <speed>0.0</speed>
  <fix>3d</fix>
</trkpt>
<trkpt lat="33.8103131" lon="-118.3938671">
  <ele>-0.133</ele>
  <time>2026-09-02T22:11:59Z</time>
  <course>185.55</course>
  <speed>0.022360679774997897</speed>
  <fix>3d</fix>
</trkpt>
<trkpt lat="33.810313" lon="-118.393867">
  <ele>-0.12</ele>
  <time>2026-09-02T22:11:59Z</time>
  <course>0.0</course>
  <speed>0.0</speed>
  <fix>3d</fix>
</trkpt>
<trkpt lat="33.8103131" lon="-118.3938671">
  <ele>-0.133</ele>
  <time>2026-09-02T22:11:59Z</time>
  <course>185.55</course>
  <speed>0.022360679774997897</speed>
  <fix>3d</fix>
</trkpt>
<trkpt lat="33.810313" lon="-118.393867">
  <ele>-0.12</ele>
  <time>2026-09-02T22:11:59Z</time>
  <course>0.0</course>
  <speed>0.0</speed>
  <fix>3d</fix>
</trkpt>
<trkpt lat="33.8103131" lon="-118.3938671">
  <ele>-0.133</ele>
  <time>2026-09-02T22:11:59Z</time>
  <course>185.55</course>
  <speed>0.022360679774997897</speed>
  <fix>3d</fix>
</trkpt>
<trkpt lat="33.810313" lon="-118.393867">
  <ele>-0.12</ele>
  <time>2026-09-02T22:11:59Z</time>
  <course>0.0</course>
  <speed>0.0</speed>
  <fix>3d</fix>
</trkpt>
<trkpt lat="33.8103131" lon="-118.3938671">
  <ele>-0.133</ele>
  <time>2026-09-02T22:12:00Z</time>
  <course>185.55</course>
  <speed>0.022360679774997897</speed>
  <fix>3d</fix>
</trkpt>
<trkpt lat="33.810313" lon="-118.393867">
  <ele>-0.12</ele>
  <time>2026-09-02T22:12:00Z</time>
  <course>0.0</course>
  <speed>0.0</speed>
  <fix>3d</fix>
</trkpt>
<trkpt lat="33.8103131" lon="-118.3938671">
  <ele>-0.133</ele>
  <time>2026-09-02T22:12:00Z</time>
  <course>185.55</course>
  <speed>0.022360679774997897</speed>
  <fix>3d</fix>
</trkpt>
<trkpt lat="33.810313" lon="-118.393867">
  <ele>-0.12</ele>
  <time>2026-09-02T22:12:00Z</time>
  <course>0.0</course>
  <speed>0.0</speed>
  <fix>3d</fix>
</trkpt>
<trkpt lat="33.8103131" lon="-118.3938671">
  <ele>-0.134</ele>
  <time>2026-09-02T22:12:00Z</time>
  <course>185.55</course>
  <speed>0.022360679774997897</speed>
  <fix>3d</fix>
</trkpt>
<trkpt lat="33.810313" lon="-118.393867">
  <ele>-0.12</ele>
  <time>2026-09-02T22:12:00Z</time>
  <course>0.0</course>
  <speed>0.0</speed>
  <fix>3d</fix>
</trkpt>
<trkpt lat="33.8103131" lon="-118.3938671">
  <ele>-0.134</ele>
  <time>2026-09-02T22:12:00Z</time>
  <course>185.55</course>
  <speed>0.022360679774997897</speed>
  <fix>3d</fix>
</trkpt>
<trkpt lat="33.810313" lon="-118.393867">
  <ele>-0.12</ele>
  <time>2026-09-02T22:12:00Z</time>
  <course>0.0</course>
  <speed>0.0</speed>
  <fix>3d</fix>
</trkpt>
<trkpt lat="33.8103131" lon="-118.3938671">
  <ele>-0.134</ele>
  <time>2026-09-02T22:12:00Z</time>
  <course>185.55</course>
  <speed>0.022360679774997897</speed>
  <fix>3d</fix>
</trkpt>
<trkpt lat="33.810313" lon="-118.393867">
  <ele>-0.12</ele>
  <time>2026-09-02T22:12:00Z</time>
  <course>0.0</course>
  <speed>0.0</speed>
  <fix>3d</fix>
</trkpt>
<trkpt lat="33.8103131" lon="-118.3938671">
  <ele>-0.134</ele>
  <time>2026-09-02T22:12:00Z</time>
  <course>185.55</course>
  <speed>0.022360679774997897</speed>
  <fix>3d</fix>
</trkpt>
<trkpt lat="33.810313" lon="-118.393867">
  <ele>-0.12</ele>
  <time>2026-09-02T22:12:00Z</time>
  <course>0.0</course>
  <speed>0.0</speed>
  <fix>3d</fix>
</trkpt>
<trkpt lat="33.8103131" lon="-118.3938671">
  <ele>-0.133</ele>
  <time>2026-09-02T22:12:00Z</time>
  <course>185.54</course>
  <speed>0.022360679774997897</speed>
  <fix>3d</fix>
</trkpt>
<trkpt lat="33.810313" lon="-118.393867">
  <ele>-0.12</ele>
  <time>2026-09-02T22:12:00Z</time>
  <course>0.0</course>
  <speed>0.0</speed>
  <fix>3d</fix>
</trkpt>
<trkpt lat="33.8103131" lon="-118.3938671">
  <ele>-0.132</ele>
  <time>2026-09-02T22:12:00Z</time>
  <course>185.54</course>
  <speed>0.022360679774997897</speed>
  <fix>3d</fix>
</trkpt>
<trkpt lat="33.810313" lon="-118.393867">
  <ele>-0.12</ele>
  <time>2026-09-02T22:12:00Z</time>
  <course>0.0</course>
  <speed>0.0</speed>
  <fix>3d</fix>
</trkpt>
<trkpt lat="33.8103131" lon="-118.3938671">
  <ele>-0.129</ele>
  <time>2026-09-02T22:12:00Z</time>
  <course>185.54</course>
  <speed>0.022360679774997897</speed>
  <fix>3d</fix>
</trkpt>
<trkpt lat="33.810313" lon="-118.393867">
  <ele>-0.12</ele>
  <time>2026-09-02T22:12:00Z</time>
  <course>0.0</course>
  <speed>0.0</speed>
  <fix>3d</fix>
</trkpt>
<trkpt lat="33.8103131" lon="-118.3938671">
  <ele>-0.126</ele>
  <time>2026-09-02T22:12:00Z</time>
  <course>185.54</course>
  <speed>0.022360679774997897</speed>
  <fix>3d</fix>
</trkpt>
<trkpt lat="33.810313" lon="-118.393867">
  <ele>-0.12</ele>
  <time>2026-09-02T22:12:00Z</time>
  <course>0.0</course>
  <speed>0.0</speed>
  <fix>3d</fix>
</trkpt>
<trkpt lat="33.8103131" lon="-118.3938671">
  <ele>-0.123</ele>
  <time>2026-09-02T22:12:00Z</time>
  <course>185.54</course>
  <speed>0.022360679774997897</speed>
  <fix>3d</fix>
</trkpt>
<trkpt lat="33.810313" lon="-118.393867">
  <ele>-0.12</ele>
  <time>2026-09-02T22:12:00Z</time>
  <course>0.0</course>
  <speed>0.0</speed>
  <fix>3d</fix>
</trkpt>
<trkpt lat="33.8103131" lon="-118.3938671">
  <ele>-0.121</ele>
  <time>2026-09-02T22:12:00Z</time>
  <course>185.54</course>
  <speed>0.022360679774997897</speed>
  <fix>3d</fix>
</trkpt>
<trkpt lat="33.810313" lon="-118.393867">
  <ele>-0.12</ele>
  <time>2026-09-02T22:12:00Z</time>
  <course>0.0</course>
  <speed>0.0</speed>
  <fix>3d</fix>
</trkpt>
<trkpt lat="33.8103131" lon="-118.3938671">
  <ele>-0.12</ele>
  <time>2026-09-02T22:12:00Z</time>
  <course>185.54</course>
  <speed>0.022360679774997897</speed>
  <fix>3d</fix>
</trkpt>
<trkpt lat="33.810313" lon="-118.393867">
  <ele>-0.12</ele>
  <time>2026-09-02T22:12:00Z</time>
  <course>0.0</course>
  <speed>0.0</speed>
  <fix>3d</fix>
</trkpt>
<trkpt lat="33.8103131" lon="-118.3938671">
  <ele>-0.119</ele>
  <time>2026-09-02T22:12:00Z</time>
  <course>185.54</course>
  <speed>0.022360679774997897</speed>
  <fix>3d</fix>
</trkpt>
<trkpt lat="33.810313" lon="-118.393867">
  <ele>-0.12</ele>
  <time>2026-09-02T22:12:00Z</time>
  <course>0.0</course>
  <speed>0.0</speed>
  <fix>3d</fix>
</trkpt>
<trkpt lat="33.8103131" lon="-118.3938671">
  <ele>-0.12</ele>
  <time>2026-09-02T22:12:00Z</time>
  <course>185.54</course>
  <speed>0.022360679774997897</speed>
  <fix>3d</fix>
</trkpt>
<trkpt lat="33.810313" lon="-118.393867">
  <ele>-0.12</ele>
  <time>2026-09-02T22:12:00Z</time>
  <course>0.0</course>
  <speed>0.0</speed>
  <fix>3d</fix>
</trkpt>
<trkpt lat="33.8103131" lon="-118.3938671">
  <ele>-0.12</ele>
  <time>2026-09-02T22:12:00Z</time>
  <course>185.54</course>
  <speed>0.022360679774997897</speed>
  <fix>3d</fix>
</trkpt>
<trkpt lat="33.810313" lon="-118.393867">
  <ele>-0.12</ele>
  <time>2026-09-02T22:12:00Z</time>
  <course>0.0</course>
  <speed>0.0</speed>
  <fix>3d</fix>
</trkpt>
<trkpt lat="33.8103131" lon="-118.3938671">
  <ele>-0.119</ele>
  <time>2026-09-02T22:12:00Z</time>
  <course>185.54</course>
  <speed>0.022360679774997897</speed>
  <fix>3d</fix>
</trkpt>
<trkpt lat="33.810313" lon="-118.393867">
  <ele>-0.12</ele>
  <time>2026-09-02T22:12:00Z</time>
  <course>0.0</course>
  <speed>0.0</speed>
  <fix>3d</fix>
</trkpt>
<trkpt lat="33.8103131" lon="-118.3938671">
  <ele>-0.119</ele>
  <time>2026-09-02T22:12:00Z</time>
  <course>185.54</course>
  <speed>0.022360679774997897</speed>
  <fix>3d</fix>
</trkpt>
<trkpt lat="33.810313" lon="-118.393867">
  <ele>-0.12</ele>
  <time>2026-09-02T22:12:00Z</time>
  <course>0.0</course>
  <speed>0.0</speed>
  <fix>3d</fix>
</trkpt>
<trkpt lat="33.8103131" lon="-118.3938671">
  <ele>-0.119</ele>
  <time>2026-09-02T22:12:00Z</time>
  <course>185.53</course>
  <speed>0.022360679774997897</speed>
  <fix>3d</fix>
</trkpt>
<trkpt lat="33.810313" lon="-118.393867">
  <ele>-0.12</ele>
  <time>2026-09-02T22:12:00Z</time>
  <course>0.0</course>
  <speed>0.0</speed>
  <fix>3d</fix>
</trkpt>
<trkpt lat="33.8103131" lon="-118.3938671">
  <ele>-0.118</ele>
  <time>2026-09-02T22:12:00Z</time>
  <course>185.53</course>
  <speed>0.022360679774997897</speed>
  <fix>3d</fix>
</trkpt>
<trkpt lat="33.810313" lon="-118.393867">
  <ele>-0.12</ele>
  <time>2026-09-02T22:12:00Z</time>
  <course>0.0</course>
  <speed>0.0</speed>
  <fix>3d</fix>
</trkpt>
<trkpt lat="33.8103131" lon="-118.3938671">
  <ele>-0.117</ele>
  <time>2026-09-02T22:12:00Z</time>
  <course>185.54</course>
  <speed>0.022360679774997897</speed>
  <fix>3d</fix>
</trkpt>
<trkpt lat="33.810313" lon="-118.393867">
  <ele>-0.12</ele>
  <time>2026-09-02T22:12:00Z</time>
  <course>0.0</course>
  <speed>0.0</speed>
  <fix>3d</fix>
</trkpt>
<trkpt lat="33.8103131" lon="-118.3938671">
  <ele>-0.116</ele>
  <time>2026-09-02T22:12:00Z</time>
  <course>185.54</course>
  <speed>0.022360679774997897</speed>
  <fix>3d</fix>
</trkpt>
<trkpt lat="33.810313" lon="-118.393867">
  <ele>-0.12</ele>
  <time>2026-09-02T22:12:00Z</time>
  <course>0.0</course>
  <speed>0.0</speed>
  <fix>3d</fix>
</trkpt>
<trkpt lat="33.8103131" lon="-118.3938671">
  <ele>-0.116</ele>
  <time>2026-09-02T22:12:00Z</time>
  <course>185.54</course>
  <speed>0.022360679774997897</speed>
  <fix>3d</fix>
</trkpt>
<trkpt lat="33.810313" lon="-118.393867">
  <ele>-0.12</ele>
  <time>2026-09-02T22:12:00Z</time>
  <course>0.0</course>
  <speed>0.0</speed>
  <fix>3d</fix>
</trkpt>
<trkpt lat="33.8103131" lon="-118.3938671">
  <ele>-0.117</ele>
  <time>2026-09-02T22:12:00Z</time>
  <course>185.54</course>
  <speed>0.01414213562373095</speed>
  <fix>3d</fix>
</trkpt>
<trkpt lat="33.810313" lon="-118.393867">
  <ele>-0.12</ele>
  <time>2026-09-02T22:12:00Z</time>
  <course>0.0</course>
  <speed>0.0</speed>
  <fix>3d</fix>
</trkpt>
<trkpt lat="33.8103131" lon="-118.3938671">
  <ele>-0.118</ele>
  <time>2026-09-02T22:12:00Z</time>
  <course>185.54</course>
  <speed>0.01414213562373095</speed>
  <fix>3d</fix>
</trkpt>
<trkpt lat="33.810313" lon="-118.393867">
  <ele>-0.12</ele>
  <time>2026-09-02T22:12:00Z</time>
  <course>0.0</course>
  <speed>0.0</speed>
  <fix>3d</fix>
</trkpt>
<trkpt lat="33.8103131" lon="-118.3938671">
  <ele>-0.119</ele>
  <time>2026-09-02T22:12:00Z</time>
  <course>185.54</course>
  <speed>0.01414213562373095</speed>
  <fix>3d</fix>
</trkpt>
<trkpt lat="33.810313" lon="-118.393867">
  <ele>-0.12</ele>
  <time>2026-09-02T22:12:00Z</time>
  <course>0.0</course>
  <speed>0.0</speed>
  <fix>3d</fix>
</trkpt>
<trkpt lat="33.8103131" lon="-118.3938671">
  <ele>-0.121</ele>
  <time>2026-09-02T22:12:00Z</time>
  <course>185.54</course>
  <speed>0.01414213562373095</speed>
  <fix>3d</fix>
</trkpt>
<trkpt lat="33.810313" lon="-118.393867">
  <ele>-0.12</ele>
  <time>2026-09-02T22:12:00Z</time>
  <course>0.0</course>
  <speed>0.0</speed>
  <fix>3d</fix>
</trkpt>
<trkpt lat="33.8103131" lon="-118.3938671">
  <ele>-0.121</ele>
  <time>2026-09-02T22:12:00Z</time>
  <course>185.54</course>
  <speed>0.01414213562373095</speed>
  <fix>3d</fix>
</trkpt>
<trkpt lat="33.810313" lon="-118.393867">
  <ele>-0.12</ele>
  <time>2026-09-02T22:12:00Z</time>
  <course>0.0</course>
  <speed>0.0</speed>
  <fix>3d</fix>
</trkpt>
<trkpt lat="33.8103131" lon="-118.3938671">
  <ele>-0.12</ele>
  <time>2026-09-02T22:12:00Z</time>
  <course>185.54</course>
  <speed>0.01</speed>
  <fix>3d</fix>
</trkpt>
<trkpt lat="33.810313" lon="-118.393867">
  <ele>-0.12</ele>
  <time>2026-09-02T22:12:00Z</time>
  <course>0.0</course>
  <speed>0.0</speed>
  <fix>3d</fix>
</trkpt>
<trkpt lat="33.8103131" lon="-118.3938671">
  <ele>-0.119</ele>
  <time>2026-09-02T22:12:00Z</time>
  <course>185.54</course>
  <speed>0.01</speed>
  <fix>3d</fix>
</trkpt>
<trkpt lat="33.810313" lon="-118.393867">
  <ele>-0.12</ele>
  <time>2026-09-02T22:12:00Z</time>
  <course>0.0</course>
  <speed>0.0</speed>
  <fix>3d</fix>
</trkpt>
<trkpt lat="33.8103131" lon="-118.3938671">
  <ele>-0.118</ele>
  <time>2026-09-02T22:12:00Z</time>
  <course>185.54</course>
  <speed>0.01</speed>
  <fix>3d</fix>
</trkpt>
<trkpt lat="33.810313" lon="-118.393867">
  <ele>-0.12</ele>
  <time>2026-09-02T22:12:00Z</time>
  <course>0.0</course>
  <speed>0.0</speed>
  <fix>3d</fix>
</trkpt>
<trkpt lat="33.8103131" lon="-118.3938671">
  <ele>-0.118</ele>
  <time>2026-09-02T22:12:00Z</time>
  <course>185.54</course>
  <speed>0.01</speed>
  <fix>3d</fix>
</trkpt>
<trkpt lat="33.810313" lon="-118.393867">
  <ele>-0.12</ele>
  <time>2026-09-02T22:12:00Z</time>
  <course>0.0</course>
  <speed>0.0</speed>
  <fix>3d</fix>
</trkpt>
<trkpt lat="33.8103131" lon="-118.3938671">
  <ele>-0.119</ele>
  <time>2026-09-02T22:12:00Z</time>
  <course>185.54</course>
  <speed>0.0</speed>
  <fix>3d</fix>
</trkpt>
<trkpt lat="33.810313" lon="-118.393867">
  <ele>-0.12</ele>
  <time>2026-09-02T22:12:00Z</time>
  <course>0.0</course>
  <speed>0.0</speed>
  <fix>3d</fix>
</trkpt>
<trkpt lat="33.8103131" lon="-118.3938671">
  <ele>-0.12</ele>
  <time>2026-09-02T22:12:00Z</time>
  <course>185.55</course>
  <speed>0.0</speed>
  <fix>3d</fix>
</trkpt>
<trkpt lat="33.810313" lon="-118.393867">
  <ele>-0.12</ele>
  <time>2026-09-02T22:12:00Z</time>
  <course>0.0</course>
  <speed>0.0</speed>
  <fix>3d</fix>
</trkpt>
<trkpt lat="33.8103131" lon="-118.3938671">
  <ele>-0.121</ele>
  <time>2026-09-02T22:12:00Z</time>
  <course>185.55</course>
  <speed>0.0</speed>
  <fix>3d</fix>
</trkpt>
<trkpt lat="33.810313" lon="-118.393867">
  <ele>-0.12</ele>
  <time>2026-09-02T22:12:00Z</time>
  <course>0.0</course>
  <speed>0.0</speed>
  <fix>3d</fix>
</trkpt>
<trkpt lat="33.8103131" lon="-118.3938671">
  <ele>-0.122</ele>
  <time>2026-09-02T22:12:00Z</time>
  <course>185.55</course>
  <speed>0.0</speed>
  <fix>3d</fix>
</trkpt>
<trkpt lat="33.810313" lon="-118.393867">
  <ele>-0.12</ele>
  <time>2026-09-02T22:12:00Z</time>
  <course>0.0</course>
  <speed>0.0</speed>
  <fix>3d</fix>
</trkpt>
<trkpt lat="33.8103131" lon="-118.3938671">
  <ele>-0.124</ele>
  <time>2026-09-02T22:12:00Z</time>
  <course>185.55</course>
  <speed>0.0</speed>
  <fix>3d</fix>
</trkpt>
<trkpt lat="33.810313" lon="-118.393867">
  <ele>-0.12</ele>
  <time>2026-09-02T22:12:00Z</time>
  <course>0.0</course>
  <speed>0.0</speed>
  <fix>3d</fix>
</trkpt>
<trkpt lat="33.8103131" lon="-118.3938671">
  <ele>-0.126</ele>
  <time>2026-09-02T22:12:00Z</time>
  <course>185.55</course>
  <speed>0.0</speed>
  <fix>3d</fix>
</trkpt>
<trkpt lat="33.810313" lon="-118.393867">
  <ele>-0.12</ele>
  <time>2026-09-02T22:12:00Z</time>
  <course>0.0</course>
  <speed>0.0</speed>
  <fix>3d</fix>
</trkpt>
<trkpt lat="33.8103131" lon="-118.3938671">
  <ele>-0.127</ele>
  <time>2026-09-02T22:12:00Z</time>
  <course>185.55</course>
  <speed>0.0</speed>
  <fix>3d</fix>
</trkpt>
<trkpt lat="33.810313" lon="-118.393867">
  <ele>-0.12</ele>
  <time>2026-09-02T22:12:00Z</time>
  <course>0.0</course>
  <speed>0.0</speed>
  <fix>3d</fix>
</trkpt>
<trkpt lat="33.8103131" lon="-118.3938671">
  <ele>-0.128</ele>
  <time>2026-09-02T22:12:00Z</time>
  <course>185.55</course>
  <speed>0.0</speed>
  <fix>3d</fix>
</trkpt>
<trkpt lat="33.810313" lon="-118.393867">
  <ele>-0.12</ele>
  <time>2026-09-02T22:12:00Z</time>
  <course>0.0</course>
  <speed>0.0</speed>
  <fix>3d</fix>
</trkpt>
<trkpt lat="33.8103131" lon="-118.3938671">
  <ele>-0.129</ele>
  <time>2026-09-02T22:12:00Z</time>
  <course>185.54</course>
  <speed>0.0</speed>
  <fix>3d</fix>
</trkpt>
<trkpt lat="33.810313" lon="-118.393867">
  <ele>-0.12</ele>
  <time>2026-09-02T22:12:00Z</time>
  <course>0.0</course>
  <speed>0.0</speed>
  <fix>3d</fix>
</trkpt>
<trkpt lat="33.8103131" lon="-118.3938671">
  <ele>-0.13</ele>
  <time>2026-09-02T22:12:00Z</time>
  <course>185.54</course>
  <speed>0.0</speed>
  <fix>3d</fix>
</trkpt>
<trkpt lat="33.810313" lon="-118.393867">
  <ele>-0.12</ele>
  <time>2026-09-02T22:12:00Z</time>
  <course>0.0</course>
  <speed>0.0</speed>
  <fix>3d</fix>
</trkpt>
<trkpt lat="33.8103131" lon="-118.3938671">
  <ele>-0.132</ele>
  <time>2026-09-02T22:12:00Z</time>
  <course>185.54</course>
  <speed>0.0</speed>
  <fix>3d</fix>
</trkpt>
<trkpt lat="33.810313" lon="-118.393867">
  <ele>-0.12</ele>
  <time>2026-09-02T22:12:00Z</time>
  <course>0.0</course>
  <speed>0.0</speed>
  <fix>3d</fix>
</trkpt>
<trkpt lat="33.8103131" lon="-118.3938671">
  <ele>-0.134</ele>
  <time>2026-09-02T22:12:00Z</time>
  <course>185.54</course>
  <speed>0.0</speed>
  <fix>3d</fix>
</trkpt>
<trkpt lat="33.810313" lon="-118.393867">
  <ele>-0.12</ele>
  <time>2026-09-02T22:12:00Z</time>
  <course>0.0</course>
  <speed>0.0</speed>
  <fix>3d</fix>
</trkpt>
<trkpt lat="33.8103131" lon="-118.3938671">
  <ele>-0.136</ele>
  <time>2026-09-02T22:12:00Z</time>
  <course>185.54</course>
  <speed>0.0</speed>
  <fix>3d</fix>
</trkpt>
<trkpt lat="33.810313" lon="-118.393867">
  <ele>-0.12</ele>
  <time>2026-09-02T22:12:00Z</time>
  <course>0.0</course>
  <speed>0.0</speed>
  <fix>3d</fix>
</trkpt>
<trkpt lat="33.8103131" lon="-118.3938671">
  <ele>-0.137</ele>
  <time>2026-09-02T22:12:00Z</time>
  <course>185.53</course>
  <speed>0.0</speed>
  <fix>3d</fix>
</trkpt>
<trkpt lat="33.810313" lon="-118.393867">
  <ele>-0.12</ele>
  <time>2026-09-02T22:12:00Z</time>
  <course>0.0</course>
  <speed>0.0</speed>
  <fix>3d</fix>
</trkpt>
<trkpt lat="33.8103131" lon="-118.3938671">
  <ele>-0.137</ele>
  <time>2026-09-02T22:12:00Z</time>
  <course>185.53</course>
  <speed>0.0</speed>
  <fix>3d</fix>
</trkpt>
<trkpt lat="33.810313" lon="-118.393867">
  <ele>-0.12</ele>
  <time>2026-09-02T22:12:00Z</time>
  <course>0.0</course>
  <speed>0.0</speed>
  <fix>3d</fix>
</trkpt>
<trkpt lat="33.8103131" lon="-118.3938671">
  <ele>-0.138</ele>
  <time>2026-09-02T22:12:00Z</time>
  <course>185.53</course>
  <speed>0.0</speed>
  <fix>3d</fix>
</trkpt>
<trkpt lat="33.810313" lon="-118.393867">
  <ele>-0.12</ele>
  <time>2026-09-02T22:12:00Z</time>
  <course>0.0</course>
  <speed>0.0</speed>
  <fix>3d</fix>
</trkpt>
<trkpt lat="33.810313" lon="-118.3938671">
  <ele>-0.137</ele>
  <time>2026-09-02T22:12:00Z</time>
  <course>185.53</course>
  <speed>0.0</speed>
  <fix>3d</fix>
</trkpt>
<trkpt lat="33.810313" lon="-118.393867">
  <ele>-0.12</ele>
  <time>2026-09-02T22:12:00Z</time>
  <course>0.0</course>
  <speed>0.0</speed>
  <fix>3d</fix>
</trkpt>
<trkpt lat="33.810313" lon="-118.3938671">
  <ele>-0.135</ele>
  <time>2026-09-02T22:12:00Z</time>
  <course>185.53</course>
  <speed>0.0</speed>
  <fix>3d</fix>
</trkpt>
<trkpt lat="33.810313" lon="-118.393867">
  <ele>-0.12</ele>
  <time>2026-09-02T22:12:00Z</time>
  <course>0.0</course>
  <speed>0.0</speed>
  <fix>3d</fix>
</trkpt>
<trkpt lat="33.810313" lon="-118.3938671">
  <ele>-0.133</ele>
  <time>2026-09-02T22:12:00Z</time>
  <course>185.53</course>
  <speed>0.0</speed>
  <fix>3d</fix>
</trkpt>
<trkpt lat="33.810313" lon="-118.393867">
  <ele>-0.12</ele>
  <time>2026-09-02T22:12:00Z</time>
  <course>0.0</course>
  <speed>0.0</speed>
  <fix>3d</fix>
</trkpt>
<trkpt lat="33.810313" lon="-118.393867">
  <ele>-0.133</ele>
  <time>2026-09-02T22:12:00Z</time>
  <course>185.52</course>
  <speed>0.0</speed>
  <fix>3d</fix>
</trkpt>
<trkpt lat="33.810313" lon="-118.393867">
  <ele>-0.12</ele>
  <time>2026-09-02T22:12:00Z</time>
  <course>0.0</course>
  <speed>0.0</speed>
  <fix>3d</fix>
</trkpt>
<trkpt lat="33.810313" lon="-118.3938671">
  <ele>-0.132</ele>
  <time>2026-09-02T22:12:00Z</time>
  <course>185.52</course>
  <speed>0.0</speed>
  <fix>3d</fix>
</trkpt>
<trkpt lat="33.810313" lon="-118.393867">
  <ele>-0.12</ele>
  <time>2026-09-02T22:12:00Z</time>
  <course>0.0</course>
  <speed>0.0</speed>
  <fix>3d</fix>
</trkpt>
<trkpt lat="33.810313" lon="-118.3938671">
  <ele>-0.132</ele>
  <time>2026-09-02T22:12:00Z</time>
  <course>185.52</course>
  <speed>0.0</speed>
  <fix>3d</fix>
</trkpt>
<trkpt lat="33.810313" lon="-118.393867">
  <ele>-0.12</ele>
  <time>2026-09-02T22:12:00Z</time>
  <course>0.0</course>
  <speed>0.0</speed>
  <fix>3d</fix>
</trkpt>
<trkpt lat="33.810313" lon="-118.3938671">
  <ele>-0.132</ele>
  <time>2026-09-02T22:12:00Z</time>
  <course>185.52</course>
  <speed>0.0</speed>
  <fix>3d</fix>
</trkpt>
<trkpt lat="33.810313" lon="-118.393867">
  <ele>-0.12</ele>
  <time>2026-09-02T22:12:00Z</time>
  <course>0.0</course>
  <speed>0.0</speed>
  <fix>3d</fix>
</trkpt>
<trkpt lat="33.810313" lon="-118.3938671">
  <ele>-0.132</ele>
  <time>2026-09-02T22:12:00Z</time>
  <course>185.52</course>
  <speed>0.0</speed>
  <fix>3d</fix>
</trkpt>
<trkpt lat="33.810313" lon="-118.393867">
  <ele>-0.12</ele>
  <time>2026-09-02T22:12:00Z</time>
  <course>0.0</course>
  <speed>0.0</speed>
  <fix>3d</fix>
</trkpt>
<trkpt lat="33.810313" lon="-118.3938671">
  <ele>-0.132</ele>
  <time>2026-09-02T22:12:00Z</time>
  <course>185.52</course>
  <speed>0.0</speed>
  <fix>3d</fix>
</trkpt>
<trkpt lat="33.810313" lon="-118.393867">
  <ele>-0.12</ele>
  <time>2026-09-02T22:12:00Z</time>
  <course>0.0</course>
  <speed>0.0</speed>
  <fix>3d</fix>
</trkpt>
<trkpt lat="33.810313" lon="-118.3938671">
  <ele>-0.132</ele>
  <time>2026-09-02T22:12:00Z</time>
  <course>185.51</course>
  <speed>0.0</speed>
  <fix>3d</fix>
</trkpt>
<trkpt lat="33.810313" lon="-118.393867">
  <ele>-0.12</ele>
  <time>2026-09-02T22:12:00Z</time>
  <course>0.0</course>
  <speed>0.0</speed>
  <fix>3d</fix>
</trkpt>
<trkpt lat="33.810313" lon="-118.3938671">
  <ele>-0.131</ele>
  <time>2026-09-02T22:12:00Z</time>
  <course>185.51</course>
  <speed>0.0</speed>
  <fix>3d</fix>
</trkpt>
<trkpt lat="33.810313" lon="-118.393867">
  <ele>-0.12</ele>
  <time>2026-09-02T22:12:00Z</time>
  <course>0.0</course>
  <speed>0.0</speed>
  <fix>3d</fix>
</trkpt>
<trkpt lat="33.8103131" lon="-118.3938671">
  <ele>-0.13</ele>
  <time>2026-09-02T22:12:00Z</time>
  <course>185.51</course>
  <speed>0.0</speed>
  <fix>3d</fix>
</trkpt>
<trkpt lat="33.810313" lon="-118.393867">
  <ele>-0.12</ele>
  <time>2026-09-02T22:12:00Z</time>
  <course>0.0</course>
  <speed>0.0</speed>
  <fix>3d</fix>
</trkpt>
<trkpt lat="33.8103131" lon="-118.3938671">
  <ele>-0.129</ele>
  <time>2026-09-02T22:12:00Z</time>
  <course>185.51</course>
  <speed>0.0</speed>
  <fix>3d</fix>
</trkpt>
<trkpt lat="33.810313" lon="-118.393867">
  <ele>-0.12</ele>
  <time>2026-09-02T22:12:00Z</time>
  <course>0.0</course>
  <speed>0.0</speed>
  <fix>3d</fix>
</trkpt>
<trkpt lat="33.8103131" lon="-118.3938671">
  <ele>-0.128</ele>
  <time>2026-09-02T22:12:00Z</time>
  <course>185.51</course>
  <speed>0.0</speed>
  <fix>3d</fix>
</trkpt>
<trkpt lat="33.810313" lon="-118.393867">
  <ele>-0.12</ele>
  <time>2026-09-02T22:12:00Z</time>
  <course>0.0</course>
  <speed>0.0</speed>
  <fix>3d</fix>
</trkpt>
<trkpt lat="33.8103131" lon="-118.3938671">
  <ele>-0.126</ele>
  <time>2026-09-02T22:12:00Z</time>
  <course>185.51</course>
  <speed>0.0</speed>
  <fix>3d</fix>
</trkpt>
<trkpt lat="33.810313" lon="-118.393867">
  <ele>-0.12</ele>
  <time>2026-09-02T22:12:00Z</time>
  <course>0.0</course>
  <speed>0.0</speed>
  <fix>3d</fix>
</trkpt>
<trkpt lat="33.8103131" lon="-118.3938671">
  <ele>-0.124</ele>
  <time>2026-09-02T22:12:00Z</time>
  <course>185.5</course>
  <speed>0.0</speed>
  <fix>3d</fix>
</trkpt>
<trkpt lat="33.810313" lon="-118.393867">
  <ele>-0.12</ele>
  <time>2026-09-02T22:12:00Z</time>
  <course>0.0</course>
  <speed>0.0</speed>
  <fix>3d</fix>
</trkpt>
<trkpt lat="33.8103131" lon="-118.3938671">
  <ele>-0.123</ele>
  <time>2026-09-02T22:12:00Z</time>
  <course>185.5</course>
  <speed>0.0</speed>
  <fix>3d</fix>
</trkpt>
<trkpt lat="33.810313" lon="-118.393867">
  <ele>-0.12</ele>
  <time>2026-09-02T22:12:00Z</time>
  <course>0.0</course>
  <speed>0.0</speed>
  <fix>3d</fix>
</trkpt>
<trkpt lat="33.8103131" lon="-118.3938671">
  <ele>-0.124</ele>
  <time>2026-09-02T22:12:00Z</time>
  <course>185.5</course>
  <speed>0.0</speed>
  <fix>3d</fix>
</trkpt>
<trkpt lat="33.810313" lon="-118.393867">
  <ele>-0.12</ele>
  <time>2026-09-02T22:12:00Z</time>
  <course>0.0</course>
  <speed>0.0</speed>
  <fix>3d</fix>
</trkpt>
<trkpt lat="33.8103131" lon="-118.3938671">
  <ele>-0.125</ele>
  <time>2026-09-02T22:12:00Z</time>
  <course>185.5</course>
  <speed>0.0</speed>
  <fix>3d</fix>
</trkpt>
<trkpt lat="33.810313" lon="-118.393867">
  <ele>-0.12</ele>
  <time>2026-09-02T22:12:00Z</time>
  <course>0.0</course>
  <speed>0.0</speed>
  <fix>3d</fix>
</trkpt>
<trkpt lat="33.8103131" lon="-118.3938671">
  <ele>-0.125</ele>
  <time>2026-09-02T22:12:00Z</time>
  <course>185.5</course>
  <speed>0.0</speed>
  <fix>3d</fix>
</trkpt>
<trkpt lat="33.810313" lon="-118.393867">
  <ele>-0.12</ele>
  <time>2026-09-02T22:12:00Z</time>
  <course>0.0</course>
  <speed>0.0</speed>
  <fix>3d</fix>
</trkpt>
<trkpt lat="33.8103131" lon="-118.3938671">
  <ele>-0.125</ele>
  <time>2026-09-02T22:12:00Z</time>
  <course>185.5</course>
  <speed>0.0</speed>
  <fix>3d</fix>
</trkpt>
<trkpt lat="33.810313" lon="-118.393867">
  <ele>-0.12</ele>
  <time>2026-09-02T22:12:00Z</time>
  <course>0.0</course>
  <speed>0.0</speed>
  <fix>3d</fix>
</trkpt>
<trkpt lat="33.8103131" lon="-118.3938671">
  <ele>-0.125</ele>
  <time>2026-09-02T22:12:00Z</time>
  <course>185.49</course>
  <speed>0.0</speed>
  <fix>3d</fix>
</trkpt>
<trkpt lat="33.810313" lon="-118.393867">
  <ele>-0.12</ele>
  <time>2026-09-02T22:12:00Z</time>
  <course>0.0</course>
  <speed>0.0</speed>
  <fix>3d</fix>
</trkpt>
<trkpt lat="33.8103131" lon="-118.3938671">
  <ele>-0.126</ele>
  <time>2026-09-02T22:12:00Z</time>
  <course>185.49</course>
  <speed>0.0</speed>
  <fix>3d</fix>
</trkpt>
<trkpt lat="33.810313" lon="-118.393867">
  <ele>-0.12</ele>
  <time>2026-09-02T22:12:00Z</time>
  <course>0.0</course>
  <speed>0.0</speed>
  <fix>3d</fix>
</trkpt>
<trkpt lat="33.8103131" lon="-118.3938671">
  <ele>-0.127</ele>
  <time>2026-09-02T22:12:00Z</time>
  <course>185.49</course>
  <speed>0.0</speed>
  <fix>3d</fix>
</trkpt>
<trkpt lat="33.810313" lon="-118.393867">
  <ele>-0.12</ele>
  <time>2026-09-02T22:12:00Z</time>
  <course>0.0</course>
  <speed>0.0</speed>
  <fix>3d</fix>
</trkpt>
<trkpt lat="33.8103131" lon="-118.3938671">
  <ele>-0.128</ele>
  <time>2026-09-02T22:12:00Z</time>
  <course>185.49</course>
  <speed>0.0</speed>
  <fix>3d</fix>
</trkpt>
<trkpt lat="33.810313" lon="-118.393867">
  <ele>-0.12</ele>
  <time>2026-09-02T22:12:00Z</time>
  <course>0.0</course>
  <speed>0.0</speed>
  <fix>3d</fix>
</trkpt>
<trkpt lat="33.8103131" lon="-118.3938671">
  <ele>-0.13</ele>
  <time>2026-09-02T22:12:00Z</time>
  <course>185.49</course>
  <speed>0.0</speed>
  <fix>3d</fix>
</trkpt>
<trkpt lat="33.810313" lon="-118.393867">
  <ele>-0.12</ele>
  <time>2026-09-02T22:12:00Z</time>
  <course>0.0</course>
  <speed>0.0</speed>
  <fix>3d</fix>
</trkpt>
<trkpt lat="33.8103131" lon="-118.3938671">
  <ele>-0.132</ele>
  <time>2026-09-02T22:12:00Z</time>
  <course>185.49</course>
  <speed>0.0</speed>
  <fix>3d</fix>
</trkpt>
<trkpt lat="33.810313" lon="-118.393867">
  <ele>-0.12</ele>
  <time>2026-09-02T22:12:00Z</time>
  <course>0.0</course>
  <speed>0.0</speed>
  <fix>3d</fix>
</trkpt>
<trkpt lat="33.8103131" lon="-118.3938671">
  <ele>-0.134</ele>
  <time>2026-09-02T22:12:00Z</time>
  <course>185.49</course>
  <speed>0.01</speed>
  <fix>3d</fix>
</trkpt>
<trkpt lat="33.810313" lon="-118.393867">
  <ele>-0.12</ele>
  <time>2026-09-02T22:12:00Z</time>
  <course>0.0</course>
  <speed>0.0</speed>
  <fix>3d</fix>
</trkpt>
<trkpt lat="33.4368002" lon="-117.0859339">
  <ele>-0.11</ele>
  <time>2026-09-02T22:12:01Z</time>
  <course>0.0</course>
  <speed>0.0</speed>
  <fix>3d</fix>
</trkpt>
<trkpt lat="33.4368002" lon="-117.0859339">
  <ele>-0.11</ele>
  <time>2026-09-02T22:12:01Z</time>
  <course>0.0</course>
  <speed>0.0</speed>
  <fix>3d</fix>
</trkpt>
<trkpt lat="33.810313" lon="-118.393867">
  <ele>0.0</ele>
  <time>2026-09-02T22:12:01Z</time>
  <course>173.5</course>
  <speed>0.0</speed>
  <fix>3d</fix>
</trkpt>
<trkpt lat="33.810313" lon="-118.393867">
  <ele>-0.11</ele>
  <time>2026-09-02T22:12:01Z</time>
  <course>0.0</course>
  <speed>0.0</speed>
  <fix>3d</fix>
</trkpt>
<trkpt lat="33.4368002" lon="-117.0859339">
  <ele>-0.11</ele>
  <time>2026-09-02T22:12:02Z</time>
  <course>0.0</course>
  <speed>0.0</speed>
  <fix>3d</fix>
</trkpt>
<trkpt lat="33.4368002" lon="-117.0859339">
  <ele>-0.11</ele>
  <time>2026-09-02T22:12:02Z</time>
  <course>0.0</course>
  <speed>0.0</speed>
  <fix>3d</fix>
</trkpt>
<trkpt lat="33.810313" lon="-118.393867">
  <ele>0.0</ele>
  <time>2026-09-02T22:12:02Z</time>
  <course>173.5</course>
  <speed>0.0</speed>
  <fix>3d</fix>
</trkpt>
<trkpt lat="33.810313" lon="-118.393867">
  <ele>-0.11</ele>
  <time>2026-09-02T22:12:02Z</time>
  <course>0.0</course>
  <speed>0.0</speed>
  <fix>3d</fix>
</trkpt>
<trkpt lat="33.810313" lon="-118.393867">
  <ele>0.0</ele>
  <time>2026-09-02T22:12:02Z</time>
  <course>173.64</course>
  <speed>0.0</speed>
  <fix>3d</fix>
</trkpt>
<trkpt lat="33.810313" lon="-118.393867">
  <ele>-0.11</ele>
  <time>2026-09-02T22:12:02Z</time>
  <course>0.0</course>
  <speed>0.0</speed>
  <fix>3d</fix>
</trkpt>
<trkpt lat="33.810313" lon="-118.393867">
  <ele>0.0</ele>
  <time>2026-09-02T22:12:02Z</time>
  <course>174.03</course>
  <speed>0.0</speed>
  <fix>3d</fix>
</trkpt>
<trkpt lat="33.810313" lon="-118.393867">
  <ele>-0.11</ele>
  <time>2026-09-02T22:12:02Z</time>
  <course>0.0</course>
  <speed>0.0</speed>
  <fix>3d</fix>
</trkpt>
<trkpt lat="33.810313" lon="-118.393867">
  <ele>0.0</ele>
  <time>2026-09-02T22:12:02Z</time>
  <course>174.57</course>
  <speed>0.0</speed>
  <fix>3d</fix>
</trkpt>
<trkpt lat="33.810313" lon="-118.393867">
  <ele>-0.11</ele>
  <time>2026-09-02T22:12:02Z</time>
  <course>0.0</course>
  <speed>0.0</speed>
  <fix>3d</fix>
</trkpt>
<trkpt lat="33.810313" lon="-118.393867">
  <ele>0.0</ele>
  <time>2026-09-02T22:12:02Z</time>
  <course>175.13</course>
  <speed>0.0</speed>
  <fix>3d</fix>
</trkpt>
<trkpt lat="33.810313" lon="-118.393867">
  <ele>-0.12</ele>
  <time>2026-09-02T22:12:02Z</time>
  <course>0.0</course>
  <speed>0.0</speed>
  <fix>3d</fix>
</trkpt>
<trkpt lat="33.810313" lon="-118.393867">
  <ele>0.0</ele>
  <time>2026-09-02T22:12:02Z</time>
  <course>175.67</course>
  <speed>0.0</speed>
  <fix>3d</fix>
</trkpt>
<trkpt lat="33.810313" lon="-118.393867">
  <ele>-0.12</ele>
  <time>2026-09-02T22:12:02Z</time>
  <course>0.0</course>
  <speed>0.0</speed>
  <fix>3d</fix>
</trkpt>
<trkpt lat="33.810313" lon="-118.393867">
  <ele>0.0</ele>
  <time>2026-09-02T22:12:02Z</time>
  <course>176.17</course>
  <speed>0.0</speed>
  <fix>3d</fix>
</trkpt>
<trkpt lat="33.810313" lon="-118.393867">
  <ele>-0.13</ele>
  <time>2026-09-02T22:12:02Z</time>
  <course>0.0</course>
  <speed>0.0</speed>
  <fix>3d</fix>
</trkpt>
<trkpt lat="33.810313" lon="-118.393867">
  <ele>0.0</ele>
  <time>2026-09-02T22:12:02Z</time>
  <course>176.65</course>
  <speed>0.0</speed>
  <fix>3d</fix>
</trkpt>
<trkpt lat="33.810313" lon="-118.393867">
  <ele>-0.13</ele>
  <time>2026-09-02T22:12:02Z</time>
  <course>0.0</course>
  <speed>0.0</speed>
  <fix>3d</fix>
</trkpt>
<trkpt lat="33.810313" lon="-118.393867">
  <ele>0.0</ele>
  <time>2026-09-02T22:12:02Z</time>
  <course>177.12</course>
  <speed>0.0</speed>
  <fix>3d</fix>
</trkpt>
<trkpt lat="33.810313" lon="-118.393867">
  <ele>-0.13</ele>
  <time>2026-09-02T22:12:02Z</time>
  <course>0.0</course>
  <speed>0.0</speed>
  <fix>3d</fix>
</trkpt>
<trkpt lat="33.810313" lon="-118.393867">
  <ele>0.0</ele>
  <time>2026-09-02T22:12:02Z</time>
  <course>177.57</course>
  <speed>0.0</speed>
  <fix>3d</fix>
</trkpt>
<trkpt lat="33.810313" lon="-118.393867">
  <ele>-0.13</ele>
  <time>2026-09-02T22:12:02Z</time>
  <course>0.0</course>
  <speed>0.0</speed>
  <fix>3d</fix>
</trkpt>
<trkpt lat="33.810313" lon="-118.393867">
  <ele>0.0</ele>
  <time>2026-09-02T22:12:02Z</time>
  <course>178.02</course>
  <speed>0.0</speed>
  <fix>3d</fix>
</trkpt>
<trkpt lat="33.810313" lon="-118.393867">
  <ele>-0.14</ele>
  <time>2026-09-02T22:12:02Z</time>
  <course>0.0</course>
  <speed>0.0</speed>
  <fix>3d</fix>
</trkpt>
<trkpt lat="33.810313" lon="-118.393867">
  <ele>0.0</ele>
  <time>2026-09-02T22:12:02Z</time>
  <course>178.45</course>
  <speed>0.0</speed>
  <fix>3d</fix>
</trkpt>
<trkpt lat="33.810313" lon="-118.393867">
  <ele>-0.14</ele>
  <time>2026-09-02T22:12:02Z</time>
  <course>0.0</course>
  <speed>0.0</speed>
  <fix>3d</fix>
</trkpt>
<trkpt lat="33.810313" lon="-118.393867">
  <ele>0.0</ele>
  <time>2026-09-02T22:12:02Z</time>
  <course>178.87</course>
  <speed>0.0</speed>
  <fix>3d</fix>
</trkpt>
<trkpt lat="33.810313" lon="-118.393867">
  <ele>-0.14</ele>
  <time>2026-09-02T22:12:02Z</time>
  <course>0.0</course>
  <speed>0.0</speed>
  <fix>3d</fix>
</trkpt>
<trkpt lat="33.810313" lon="-118.393867">
  <ele>0.0</ele>
  <time>2026-09-02T22:12:02Z</time>
  <course>179.27</course>
  <speed>0.0</speed>
  <fix>3d</fix>
</trkpt>
<trkpt lat="33.810313" lon="-118.393867">
  <ele>-0.14</ele>
  <time>2026-09-02T22:12:02Z</time>
  <course>0.0</course>
  <speed>0.0</speed>
  <fix>3d</fix>
</trkpt>
<trkpt lat="33.810313" lon="-118.393867">
  <ele>0.0</ele>
  <time>2026-09-02T22:12:02Z</time>
  <course>179.66</course>
  <speed>0.0</speed>
  <fix>3d</fix>
</trkpt>
<trkpt lat="33.810313" lon="-118.393867">
  <ele>-0.14</ele>
  <time>2026-09-02T22:12:02Z</time>
  <course>0.0</course>
  <speed>0.0</speed>
  <fix>3d</fix>
</trkpt>
<trkpt lat="33.810313" lon="-118.393867">
  <ele>0.0</ele>
  <time>2026-09-02T22:12:02Z</time>
  <course>180.05</course>
  <speed>0.0</speed>
  <fix>3d</fix>
</trkpt>
<trkpt lat="33.810313" lon="-118.393867">
  <ele>-0.14</ele>
  <time>2026-09-02T22:12:02Z</time>
  <course>0.0</course>
  <speed>0.0</speed>
  <fix>3d</fix>
</trkpt>
<trkpt lat="33.810313" lon="-118.393867">
  <ele>0.0</ele>
  <time>2026-09-02T22:12:02Z</time>
  <course>180.41</course>
  <speed>0.0</speed>
  <fix>3d</fix>
</trkpt>
<trkpt lat="33.810313" lon="-118.393867">
  <ele>-0.14</ele>
  <time>2026-09-02T22:12:02Z</time>
  <course>0.0</course>
  <speed>0.0</speed>
  <fix>3d</fix>
</trkpt>
<trkpt lat="33.810313" lon="-118.393867">
  <ele>0.0</ele>
  <time>2026-09-02T22:12:02Z</time>
  <course>180.76</course>
  <speed>0.0</speed>
  <fix>3d</fix>
</trkpt>
<trkpt lat="33.810313" lon="-118.393867">
  <ele>-0.14</ele>
  <time>2026-09-02T22:12:02Z</time>
  <course>0.0</course>
  <speed>0.0</speed>
  <fix>3d</fix>
</trkpt>
<trkpt lat="33.810313" lon="-118.393867">
  <ele>0.0</ele>
  <time>2026-09-02T22:12:02Z</time>
  <course>181.1</course>
  <speed>0.0</speed>
  <fix>3d</fix>
</trkpt>
<trkpt lat="33.810313" lon="-118.393867">
  <ele>-0.13</ele>
  <time>2026-09-02T22:12:02Z</time>
  <course>0.0</course>
  <speed>0.0</speed>
  <fix>3d</fix>
</trkpt>
<trkpt lat="33.810313" lon="-118.393867">
  <ele>0.0</ele>
  <time>2026-09-02T22:12:02Z</time>
  <course>181.43</course>
  <speed>0.0</speed>
  <fix>3d</fix>
</trkpt>
<trkpt lat="33.810313" lon="-118.393867">
  <ele>-0.13</ele>
  <time>2026-09-02T22:12:02Z</time>
  <course>0.0</course>
  <speed>0.0</speed>
  <fix>3d</fix>
</trkpt>
<trkpt lat="33.810313" lon="-118.393867">
  <ele>0.0</ele>
  <time>2026-09-02T22:12:02Z</time>
  <course>181.75</course>
  <speed>0.0</speed>
  <fix>3d</fix>
</trkpt>
<trkpt lat="33.810313" lon="-118.393867">
  <ele>-0.12</ele>
  <time>2026-09-02T22:12:02Z</time>
  <course>0.0</course>
  <speed>0.0</speed>
  <fix>3d</fix>
</trkpt>
<trkpt lat="33.810313" lon="-118.393867">
  <ele>0.0</ele>
  <time>2026-09-02T22:12:02Z</time>
  <course>182.05</course>
  <speed>0.0</speed>
  <fix>3d</fix>
</trkpt>
<trkpt lat="33.810313" lon="-118.393867">
  <ele>-0.12</ele>
  <time>2026-09-02T22:12:02Z</time>
  <course>0.0</course>
  <speed>0.0</speed>
  <fix>3d</fix>
</trkpt>
<trkpt lat="33.810313" lon="-118.393867">
  <ele>0.0</ele>
  <time>2026-09-02T22:12:02Z</time>
  <course>182.35</course>
  <speed>0.0</speed>
  <fix>3d</fix>
</trkpt>
<trkpt lat="33.810313" lon="-118.393867">
  <ele>-0.12</ele>
  <time>2026-09-02T22:12:02Z</time>
  <course>0.0</course>
  <speed>0.0</speed>
  <fix>3d</fix>
</trkpt>
<trkpt lat="33.810313" lon="-118.393867">
  <ele>0.0</ele>
  <time>2026-09-02T22:12:02Z</time>
  <course>182.63</course>
  <speed>0.0</speed>
  <fix>3d</fix>
</trkpt>
<trkpt lat="33.810313" lon="-118.393867">
  <ele>-0.12</ele>
  <time>2026-09-02T22:12:02Z</time>
  <course>0.0</course>
  <speed>0.0</speed>
  <fix>3d</fix>
</trkpt>
<trkpt lat="33.810313" lon="-118.393867">
  <ele>0.0</ele>
  <time>2026-09-02T22:12:02Z</time>
  <course>182.9</course>
  <speed>0.0</speed>
  <fix>3d</fix>
</trkpt>
<trkpt lat="33.810313" lon="-118.393867">
  <ele>-0.11</ele>
  <time>2026-09-02T22:12:02Z</time>
  <course>0.0</course>
  <speed>0.0</speed>
  <fix>3d</fix>
</trkpt>
<trkpt lat="33.810313" lon="-118.393867">
  <ele>0.0</ele>
  <time>2026-09-02T22:12:02Z</time>
  <course>183.16</course>
  <speed>0.0</speed>
  <fix>3d</fix>
</trkpt>
<trkpt lat="33.810313" lon="-118.393867">
  <ele>-0.11</ele>
  <time>2026-09-02T22:12:02Z</time>
  <course>0.0</course>
  <speed>0.0</speed>
  <fix>3d</fix>
</trkpt>
<trkpt lat="33.810313" lon="-118.393867">
  <ele>0.0</ele>
  <time>2026-09-02T22:12:02Z</time>
  <course>183.41</course>
  <speed>0.0</speed>
  <fix>3d</fix>
</trkpt>
<trkpt lat="33.810313" lon="-118.393867">
  <ele>-0.11</ele>
  <time>2026-09-02T22:12:02Z</time>
  <course>0.0</course>
  <speed>0.0</speed>
  <fix>3d</fix>
</trkpt>
<trkpt lat="33.810313" lon="-118.393867">
  <ele>0.0</ele>
  <time>2026-09-02T22:12:02Z</time>
  <course>183.65</course>
  <speed>0.0</speed>
  <fix>3d</fix>
</trkpt>
<trkpt lat="33.810313" lon="-118.393867">
  <ele>-0.11</ele>
  <time>2026-09-02T22:12:02Z</time>
  <course>0.0</course>
  <speed>0.0</speed>
  <fix>3d</fix>
</trkpt>
<trkpt lat="33.810313" lon="-118.393867">
  <ele>0.0</ele>
  <time>2026-09-02T22:12:02Z</time>
  <course>183.88</course>
  <speed>0.0</speed>
  <fix>3d</fix>
</trkpt>
<trkpt lat="33.810313" lon="-118.393867">
  <ele>-0.12</ele>
  <time>2026-09-02T22:12:02Z</time>
  <course>0.0</course>
  <speed>0.0</speed>
  <fix>3d</fix>
</trkpt>
<trkpt lat="33.810313" lon="-118.393867">
  <ele>0.0</ele>
  <time>2026-09-02T22:12:02Z</time>
  <course>184.11</course>
  <speed>0.0</speed>
  <fix>3d</fix>
</trkpt>
<trkpt lat="33.810313" lon="-118.393867">
  <ele>-0.12</ele>
  <time>2026-09-02T22:12:02Z</time>
  <course>0.0</course>
  <speed>0.0</speed>
  <fix>3d</fix>
</trkpt>
<trkpt lat="33.810313" lon="-118.393867">
  <ele>0.0</ele>
  <time>2026-09-02T22:12:02Z</time>
  <course>184.32</course>
  <speed>0.0</speed>
  <fix>3d</fix>
</trkpt>
<trkpt lat="33.810313" lon="-118.393867">
  <ele>-0.13</ele>
  <time>2026-09-02T22:12:02Z</time>
  <course>0.0</course>
  <speed>0.0</speed>
  <fix>3d</fix>
</trkpt>
<trkpt lat="33.810313" lon="-118.393867">
  <ele>0.0</ele>
  <time>2026-09-02T22:12:02Z</time>
  <course>184.52</course>
  <speed>0.0</speed>
  <fix>3d</fix>
</trkpt>
<trkpt lat="33.810313" lon="-118.393867">
  <ele>-0.13</ele>
  <time>2026-09-02T22:12:02Z</time>
  <course>0.0</course>
  <speed>0.0</speed>
  <fix>3d</fix>
</trkpt>
<trkpt lat="33.810313" lon="-118.393867">
  <ele>0.0</ele>
  <time>2026-09-02T22:12:02Z</time>
  <course>184.72</course>
  <speed>0.0</speed>
  <fix>3d</fix>
</trkpt>
<trkpt lat="33.810313" lon="-118.393867">
  <ele>-0.13</ele>
  <time>2026-09-02T22:12:02Z</time>
  <course>0.0</course>
  <speed>0.0</speed>
  <fix>3d</fix>
</trkpt>
<trkpt lat="33.810313" lon="-118.393867">
  <ele>0.0</ele>
  <time>2026-09-02T22:12:02Z</time>
  <course>184.91</course>
  <speed>0.0</speed>
  <fix>3d</fix>
</trkpt>
<trkpt lat="33.810313" lon="-118.393867">
  <ele>-0.13</ele>
  <time>2026-09-02T22:12:02Z</time>
  <course>0.0</course>
  <speed>0.0</speed>
  <fix>3d</fix>
</trkpt>
<trkpt lat="33.810313" lon="-118.393867">
  <ele>0.0</ele>
  <time>2026-09-02T22:12:02Z</time>
  <course>185.09</course>
  <speed>0.0</speed>
  <fix>3d</fix>
</trkpt>
<trkpt lat="33.810313" lon="-118.393867">
  <ele>-0.14</ele>
  <time>2026-09-02T22:12:02Z</time>
  <course>0.0</course>
  <speed>0.0</speed>
  <fix>3d</fix>
</trkpt>
<trkpt lat="33.810313" lon="-118.393867">
  <ele>0.0</ele>
  <time>2026-09-02T22:12:02Z</time>
  <course>185.26</course>
  <speed>0.0</speed>
  <fix>3d</fix>
</trkpt>
<trkpt lat="33.810313" lon="-118.393867">
  <ele>-0.14</ele>
  <time>2026-09-02T22:12:02Z</time>
  <course>0.0</course>
  <speed>0.0</speed>
  <fix>3d</fix>
</trkpt>
<trkpt lat="33.810313" lon="-118.393867">
  <ele>0.0</ele>
  <time>2026-09-02T22:12:02Z</time>
  <course>185.42</course>
  <speed>0.0</speed>
  <fix>3d</fix>
</trkpt>
<trkpt lat="33.810313" lon="-118.393867">
  <ele>-0.13</ele>
  <time>2026-09-02T22:12:02Z</time>
  <course>0.0</course>
  <speed>0.0</speed>
  <fix>3d</fix>
</trkpt>
<trkpt lat="33.810313" lon="-118.393867">
  <ele>0.0</ele>
  <time>2026-09-02T22:12:02Z</time>
  <course>185.58</course>
  <speed>0.0</speed>
  <fix>3d</fix>
</trkpt>
<trkpt lat="33.810313" lon="-118.393867">
  <ele>-0.13</ele>
  <time>2026-09-02T22:12:02Z</time>
  <course>0.0</course>
  <speed>0.0</speed>
  <fix>3d</fix>
</trkpt>
<trkpt lat="33.810313" lon="-118.393867">
  <ele>0.0</ele>
  <time>2026-09-02T22:12:02Z</time>
  <course>185.73</course>
  <speed>0.0</speed>
  <fix>3d</fix>
</trkpt>
<trkpt lat="33.810313" lon="-118.393867">
  <ele>-0.13</ele>
  <time>2026-09-02T22:12:02Z</time>
  <course>0.0</course>
  <speed>0.0</speed>
  <fix>3d</fix>
</trkpt>
<trkpt lat="33.810313" lon="-118.393867">
  <ele>0.0</ele>
  <time>2026-09-02T22:12:02Z</time>
  <course>185.87</course>
  <speed>0.0</speed>
  <fix>3d</fix>
</trkpt>
<trkpt lat="33.810313" lon="-118.393867">
  <ele>-0.13</ele>
  <time>2026-09-02T22:12:02Z</time>
  <course>0.0</course>
  <speed>0.0</speed>
  <fix>3d</fix>
</trkpt>
<trkpt lat="33.810313" lon="-118.393867">
  <ele>0.0</ele>
  <time>2026-09-02T22:12:02Z</time>
  <course>186.01</course>
  <speed>0.0</speed>
  <fix>3d</fix>
</trkpt>
<trkpt lat="33.810313" lon="-118.393867">
  <ele>-0.12</ele>
  <time>2026-09-02T22:12:02Z</time>
  <course>0.0</course>
  <speed>0.0</speed>
  <fix>3d</fix>
</trkpt>
<trkpt lat="33.810313" lon="-118.393867">
  <ele>0.0</ele>
  <time>2026-09-02T22:12:02Z</time>
  <course>186.14</course>
  <speed>0.0</speed>
  <fix>3d</fix>
</trkpt>
<trkpt lat="33.810313" lon="-118.393867">
  <ele>-0.12</ele>
  <time>2026-09-02T22:12:02Z</time>
  <course>0.0</course>
  <speed>0.0</speed>
  <fix>3d</fix>
</trkpt>
<trkpt lat="33.810313" lon="-118.393867">
  <ele>0.0</ele>
  <time>2026-09-02T22:12:02Z</time>
  <course>186.27</course>
  <speed>0.0</speed>
  <fix>3d</fix>
</trkpt>
<trkpt lat="33.810313" lon="-118.393867">
  <ele>-0.12</ele>
  <time>2026-09-02T22:12:02Z</time>
  <course>0.0</course>
  <speed>0.0</speed>
  <fix>3d</fix>
</trkpt>
<trkpt lat="33.810313" lon="-118.393867">
  <ele>0.0</ele>
  <time>2026-09-02T22:12:02Z</time>
  <course>186.39</course>
  <speed>0.0</speed>
  <fix>3d</fix>
</trkpt>
<trkpt lat="33.810313" lon="-118.393867">
  <ele>-0.12</ele>
  <time>2026-09-02T22:12:02Z</time>
  <course>0.0</course>
  <speed>0.0</speed>
  <fix>3d</fix>
</trkpt>
<trkpt lat="33.810313" lon="-118.393867">
  <ele>0.0</ele>
  <time>2026-09-02T22:12:02Z</time>
  <course>186.5</course>
  <speed>0.0</speed>
  <fix>3d</fix>
</trkpt>
<trkpt lat="33.810313" lon="-118.393867">
  <ele>-0.12</ele>
  <time>2026-09-02T22:12:02Z</time>
  <course>0.0</course>
  <speed>0.0</speed>
  <fix>3d</fix>
</trkpt>
<trkpt lat="33.810313" lon="-118.393867">
  <ele>0.0</ele>
  <time>2026-09-02T22:12:02Z</time>
  <course>186.61</course>
  <speed>0.0</speed>
  <fix>3d</fix>
</trkpt>
<trkpt lat="33.810313" lon="-118.393867">
  <ele>-0.12</ele>
  <time>2026-09-02T22:12:02Z</time>
  <course>0.0</course>
  <speed>0.0</speed>
  <fix>3d</fix>
</trkpt>
<trkpt lat="33.810313" lon="-118.393867">
  <ele>0.0</ele>
  <time>2026-09-02T22:12:02Z</time>
  <course>186.72</course>
  <speed>0.0</speed>
  <fix>3d</fix>
</trkpt>
<trkpt lat="33.810313" lon="-118.393867">
  <ele>-0.12</ele>
  <time>2026-09-02T22:12:02Z</time>
  <course>0.0</course>
  <speed>0.0</speed>
  <fix>3d</fix>
</trkpt>
<trkpt lat="33.810313" lon="-118.393867">
  <ele>0.0</ele>
  <time>2026-09-02T22:12:02Z</time>
  <course>186.82</course>
  <speed>0.0</speed>
  <fix>3d</fix>
</trkpt>
<trkpt lat="33.810313" lon="-118.393867">
  <ele>-0.12</ele>
  <time>2026-09-02T22:12:02Z</time>
  <course>0.0</course>
  <speed>0.0</speed>
  <fix>3d</fix>
</trkpt>
<trkpt lat="33.810313" lon="-118.393867">
  <ele>0.0</ele>
  <time>2026-09-02T22:12:02Z</time>
  <course>186.91</course>
  <speed>0.0</speed>
  <fix>3d</fix>
</trkpt>
<trkpt lat="33.810313" lon="-118.393867">
  <ele>-0.12</ele>
  <time>2026-09-02T22:12:02Z</time>
  <course>0.0</course>
  <speed>0.0</speed>
  <fix>3d</fix>
</trkpt>
<trkpt lat="33.810313" lon="-118.393867">
  <ele>0.0</ele>
  <time>2026-09-02T22:12:02Z</time>
  <course>187.0</course>
  <speed>0.0</speed>
  <fix>3d</fix>
</trkpt>
<trkpt lat="33.810313" lon="-118.393867">
  <ele>-0.12</ele>
  <time>2026-09-02T22:12:02Z</time>
  <course>0.0</course>
  <speed>0.0</speed>
  <fix>3d</fix>
</trkpt>
<trkpt lat="33.810313" lon="-118.393867">
  <ele>0.0</ele>
  <time>2026-09-02T22:12:02Z</time>
  <course>187.09</course>
  <speed>0.0</speed>
  <fix>3d</fix>
</trkpt>
<trkpt lat="33.810313" lon="-118.393867">
  <ele>-0.13</ele>
  <time>2026-09-02T22:12:02Z</time>
  <course>0.0</course>
  <speed>0.0</speed>
  <fix>3d</fix>
</trkpt>
<trkpt lat="33.810313" lon="-118.393867">
  <ele>0.0</ele>
  <time>2026-09-02T22:12:02Z</time>
  <course>187.17</course>
  <speed>0.0</speed>
  <fix>3d</fix>
</trkpt>
<trkpt lat="33.810313" lon="-118.393867">
  <ele>-0.13</ele>
  <time>2026-09-02T22:12:02Z</time>
  <course>0.0</course>
  <speed>0.0</speed>
  <fix>3d</fix>
</trkpt>
<trkpt lat="33.810313" lon="-118.393867">
  <ele>0.0</ele>
  <time>2026-09-02T22:12:02Z</time>
  <course>187.25</course>
  <speed>0.0</speed>
  <fix>3d</fix>
</trkpt>
<trkpt lat="33.810313" lon="-118.393867">
  <ele>-0.13</ele>
  <time>2026-09-02T22:12:02Z</time>
  <course>0.0</course>
  <speed>0.0</speed>
  <fix>3d</fix>
</trkpt>
<trkpt lat="33.810313" lon="-118.393867">
  <ele>0.0</ele>
  <time>2026-09-02T22:12:02Z</time>
  <course>187.33</course>
  <speed>0.0</speed>
  <fix>3d</fix>
</trkpt>
<trkpt lat="33.810313" lon="-118.393867">
  <ele>-0.13</ele>
  <time>2026-09-02T22:12:02Z</time>
  <course>0.0</course>
  <speed>0.0</speed>
  <fix>3d</fix>
</trkpt>
<trkpt lat="33.810313" lon="-118.393867">
  <ele>0.0</ele>
  <time>2026-09-02T22:12:02Z</time>
  <course>187.4</course>
  <speed>0.0</speed>
  <fix>3d</fix>
</trkpt>
<trkpt lat="33.810313" lon="-118.393867">
  <ele>-0.13</ele>
  <time>2026-09-02T22:12:02Z</time>
  <course>0.0</course>
  <speed>0.0</speed>
  <fix>3d</fix>
</trkpt>
<trkpt lat="33.810313" lon="-118.393867">
  <ele>0.0</ele>
  <time>2026-09-02T22:12:02Z</time>
  <course>187.47</course>
  <speed>0.0</speed>
  <fix>3d</fix>
</trkpt>
<trkpt lat="33.810313" lon="-118.393867">
  <ele>-0.13</ele>
  <time>2026-09-02T22:12:02Z</time>
  <course>0.0</course>
  <speed>0.0</speed>
  <fix>3d</fix>
</trkpt>
<trkpt lat="33.810313" lon="-118.393867">
  <ele>0.0</ele>
  <time>2026-09-02T22:12:02Z</time>
  <course>187.53</course>
  <speed>0.0</speed>
  <fix>3d</fix>
</trkpt>
<trkpt lat="33.810313" lon="-118.393867">
  <ele>-0.13</ele>
  <time>2026-09-02T22:12:02Z</time>
  <course>0.0</course>
  <speed>0.0</speed>
  <fix>3d</fix>
</trkpt>
<trkpt lat="33.810313" lon="-118.393867">
  <ele>0.0</ele>
  <time>2026-09-02T22:12:02Z</time>
  <course>187.59</course>
  <speed>0.0</speed>
  <fix>3d</fix>
</trkpt>
<trkpt lat="33.810313" lon="-118.393867">
  <ele>-0.13</ele>
  <time>2026-09-02T22:12:02Z</time>
  <course>0.0</course>
  <speed>0.0</speed>
  <fix>3d</fix>
</trkpt>
<trkpt lat="33.810313" lon="-118.393867">
  <ele>0.0</ele>
  <time>2026-09-02T22:12:02Z</time>
  <course>187.65</course>
  <speed>0.0</speed>
  <fix>3d</fix>
</trkpt>
<trkpt lat="33.810313" lon="-118.393867">
  <ele>-0.12</ele>
  <time>2026-09-02T22:12:02Z</time>
  <course>0.0</course>
  <speed>0.0</speed>
  <fix>3d</fix>
</trkpt>
<trkpt lat="33.810313" lon="-118.393867">
  <ele>0.0</ele>
  <time>2026-09-02T22:12:02Z</time>
  <course>187.71</course>
  <speed>0.0</speed>
  <fix>3d</fix>
</trkpt>
<trkpt lat="33.810313" lon="-118.393867">
  <ele>-0.12</ele>
  <time>2026-09-02T22:12:02Z</time>
  <course>0.0</course>
  <speed>0.0</speed>
  <fix>3d</fix>
</trkpt>
<trkpt lat="33.810313" lon="-118.393867">
  <ele>0.0</ele>
  <time>2026-09-02T22:12:02Z</time>
  <course>187.76</course>
  <speed>0.0</speed>
  <fix>3d</fix>
</trkpt>
<trkpt lat="33.810313" lon="-118.393867">
  <ele>-0.12</ele>
  <time>2026-09-02T22:12:02Z</time>
  <course>0.0</course>
  <speed>0.0</speed>
  <fix>3d</fix>
</trkpt>
<trkpt lat="33.810313" lon="-118.393867">
  <ele>0.0</ele>
  <time>2026-09-02T22:12:02Z</time>
  <course>187.81</course>
  <speed>0.0</speed>
  <fix>3d</fix>
</trkpt>
<trkpt lat="33.810313" lon="-118.393867">
  <ele>-0.12</ele>
  <time>2026-09-02T22:12:02Z</time>
  <course>0.0</course>
  <speed>0.0</speed>
  <fix>3d</fix>
</trkpt>
<trkpt lat="33.810313" lon="-118.393867">
  <ele>0.0</ele>
  <time>2026-09-02T22:12:02Z</time>
  <course>187.86</course>
  <speed>0.0</speed>
  <fix>3d</fix>
</trkpt>
<trkpt lat="33.810313" lon="-118.393867">
  <ele>-0.12</ele>
  <time>2026-09-02T22:12:02Z</time>
  <course>0.0</course>
  <speed>0.0</speed>
  <fix>3d</fix>
</trkpt>
<trkpt lat="33.810313" lon="-118.393867">
  <ele>0.0</ele>
  <time>2026-09-02T22:12:02Z</time>
  <course>187.91</course>
  <speed>0.0</speed>
  <fix>3d</fix>
</trkpt>
<trkpt lat="33.810313" lon="-118.393867">
  <ele>-0.12</ele>
  <time>2026-09-02T22:12:02Z</time>
  <course>0.0</course>
  <speed>0.0</speed>
  <fix>3d</fix>
</trkpt>
<trkpt lat="33.810313" lon="-118.393867">
  <ele>0.0</ele>
  <time>2026-09-02T22:12:02Z</time>
  <course>187.95</course>
  <speed>0.0</speed>
  <fix>3d</fix>
</trkpt>
<trkpt lat="33.810313" lon="-118.393867">
  <ele>-0.12</ele>
  <time>2026-09-02T22:12:02Z</time>
  <course>0.0</course>
  <speed>0.0</speed>
  <fix>3d</fix>
</trkpt>
<trkpt lat="33.810313" lon="-118.393867">
  <ele>0.0</ele>
  <time>2026-09-02T22:12:02Z</time>
  <course>187.99</course>
  <speed>0.0</speed>
  <fix>3d</fix>
</trkpt>
<trkpt lat="33.810313" lon="-118.393867">
  <ele>-0.12</ele>
  <time>2026-09-02T22:12:02Z</time>
  <course>0.0</course>
  <speed>0.0</speed>
  <fix>3d</fix>
</trkpt>
<trkpt lat="33.810313" lon="-118.393867">
  <ele>0.0</ele>
  <time>2026-09-02T22:12:02Z</time>
  <course>188.03</course>
  <speed>0.0</speed>
  <fix>3d</fix>
</trkpt>
<trkpt lat="33.810313" lon="-118.393867">
  <ele>-0.12</ele>
  <time>2026-09-02T22:12:02Z</time>
  <course>0.0</course>
  <speed>0.0</speed>
  <fix>3d</fix>
</trkpt>
<trkpt lat="33.810313" lon="-118.393867">
  <ele>0.0</ele>
  <time>2026-09-02T22:12:02Z</time>
  <course>188.07</course>
  <speed>0.0</speed>
  <fix>3d</fix>
</trkpt>
<trkpt lat="33.810313" lon="-118.393867">
  <ele>-0.12</ele>
  <time>2026-09-02T22:12:02Z</time>
  <course>0.0</course>
  <speed>0.0</speed>
  <fix>3d</fix>
</trkpt>
<trkpt lat="33.810313" lon="-118.393867">
  <ele>0.0</ele>
  <time>2026-09-02T22:12:02Z</time>
  <course>188.1</course>
  <speed>0.0</speed>
  <fix>3d</fix>
</trkpt>
<trkpt lat="33.810313" lon="-118.393867">
  <ele>-0.13</ele>
  <time>2026-09-02T22:12:02Z</time>
  <course>0.0</course>
  <speed>0.0</speed>
  <fix>3d</fix>
</trkpt>
<trkpt lat="33.810313" lon="-118.393867">
  <ele>0.0</ele>
  <time>2026-09-02T22:12:02Z</time>
  <course>188.13</course>
  <speed>0.0</speed>
  <fix>3d</fix>
</trkpt>
<trkpt lat="33.810313" lon="-118.393867">
  <ele>-0.13</ele>
  <time>2026-09-02T22:12:02Z</time>
  <course>0.0</course>
  <speed>0.0</speed>
  <fix>3d</fix>
</trkpt>
<trkpt lat="33.810313" lon="-118.393867">
  <ele>0.0</ele>
  <time>2026-09-02T22:12:02Z</time>
  <course>188.17</course>
  <speed>0.0</speed>
  <fix>3d</fix>
</trkpt>
<trkpt lat="33.810313" lon="-118.393867">
  <ele>-0.13</ele>
  <time>2026-09-02T22:12:02Z</time>
  <course>0.0</course>
  <speed>0.0</speed>
  <fix>3d</fix>
</trkpt>
<trkpt lat="33.810313" lon="-118.393867">
  <ele>0.0</ele>
  <time>2026-09-02T22:12:02Z</time>
  <course>188.19</course>
  <speed>0.0</speed>
  <fix>3d</fix>
</trkpt>
<trkpt lat="33.810313" lon="-118.393867">
  <ele>-0.13</ele>
  <time>2026-09-02T22:12:02Z</time>
  <course>0.0</course>
  <speed>0.0</speed>
  <fix>3d</fix>
</trkpt>
<trkpt lat="33.810313" lon="-118.393867">
  <ele>0.0</ele>
  <time>2026-09-02T22:12:02Z</time>
  <course>188.22</course>
  <speed>0.0</speed>
  <fix>3d</fix>
</trkpt>
<trkpt lat="33.810313" lon="-118.393867">
  <ele>-0.13</ele>
  <time>2026-09-02T22:12:02Z</time>
  <course>0.0</course>
  <speed>0.0</speed>
  <fix>3d</fix>
</trkpt>
<trkpt lat="33.810313" lon="-118.393867">
  <ele>0.0</ele>
  <time>2026-09-02T22:12:02Z</time>
  <course>188.25</course>
  <speed>0.0</speed>
  <fix>3d</fix>
</trkpt>
<trkpt lat="33.810313" lon="-118.393867">
  <ele>-0.13</ele>
  <time>2026-09-02T22:12:02Z</time>
  <course>0.0</course>
  <speed>0.0</speed>
  <fix>3d</fix>
</trkpt>
<trkpt lat="33.810313" lon="-118.393867">
  <ele>0.0</ele>
  <time>2026-09-02T22:12:02Z</time>
  <course>188.27</course>
  <speed>0.0</speed>
  <fix>3d</fix>
</trkpt>
<trkpt lat="33.810313" lon="-118.393867">
  <ele>-0.12</ele>
  <time>2026-09-02T22:12:02Z</time>
  <course>0.0</course>
  <speed>0.0</speed>
  <fix>3d</fix>
</trkpt>
<trkpt lat="33.810313" lon="-118.393867">
  <ele>0.0</ele>
  <time>2026-09-02T22:12:02Z</time>
  <course>188.3</course>
  <speed>0.0</speed>
  <fix>3d</fix>
</trkpt>
<trkpt lat="33.810313" lon="-118.393867">
  <ele>-0.12</ele>
  <time>2026-09-02T22:12:02Z</time>
  <course>0.0</course>
  <speed>0.0</speed>
  <fix>3d</fix>
</trkpt>
<trkpt lat="33.810313" lon="-118.393867">
  <ele>0.0</ele>
  <time>2026-09-02T22:12:02Z</time>
  <course>188.32</course>
  <speed>0.0</speed>
  <fix>3d</fix>
</trkpt>
<trkpt lat="33.810313" lon="-118.393867">
  <ele>-0.12</ele>
  <time>2026-09-02T22:12:02Z</time>
  <course>0.0</course>
  <speed>0.0</speed>
  <fix>3d</fix>
</trkpt>
<trkpt lat="33.810313" lon="-118.393867">
  <ele>0.0</ele>
  <time>2026-09-02T22:12:02Z</time>
  <course>188.34</course>
  <speed>0.0</speed>
  <fix>3d</fix>
</trkpt>
<trkpt lat="33.810313" lon="-118.393867">
  <ele>-0.12</ele>
  <time>2026-09-02T22:12:02Z</time>
  <course>0.0</course>
  <speed>0.0</speed>
  <fix>3d</fix>
</trkpt>
<trkpt lat="33.810313" lon="-118.393867">
  <ele>0.0</ele>
  <time>2026-09-02T22:12:02Z</time>
  <course>188.36</course>
  <speed>0.0</speed>
  <fix>3d</fix>
</trkpt>
<trkpt lat="33.810313" lon="-118.393867">
  <ele>-0.12</ele>
  <time>2026-09-02T22:12:02Z</time>
  <course>0.0</course>
  <speed>0.0</speed>
  <fix>3d</fix>
</trkpt>
<trkpt lat="33.810313" lon="-118.393867">
  <ele>0.0</ele>
  <time>2026-09-02T22:12:02Z</time>
  <course>188.38</course>
  <speed>0.0</speed>
  <fix>3d</fix>
</trkpt>
<trkpt lat="33.810313" lon="-118.393867">
  <ele>-0.12</ele>
  <time>2026-09-02T22:12:02Z</time>
  <course>0.0</course>
  <speed>0.0</speed>
  <fix>3d</fix>
</trkpt>
<trkpt lat="33.810313" lon="-118.393867">
  <ele>0.0</ele>
  <time>2026-09-02T22:12:02Z</time>
  <course>188.39</course>
  <speed>0.0</speed>
  <fix>3d</fix>
</trkpt>
<trkpt lat="33.810313" lon="-118.393867">
  <ele>-0.12</ele>
  <time>2026-09-02T22:12:02Z</time>
  <course>0.0</course>
  <speed>0.0</speed>
  <fix>3d</fix>
</trkpt>
<trkpt lat="33.810313" lon="-118.393867">
  <ele>0.0</ele>
  <time>2026-09-02T22:12:02Z</time>
  <course>188.41</course>
  <speed>0.0</speed>
  <fix>3d</fix>
</trkpt>
<trkpt lat="33.810313" lon="-118.393867">
  <ele>-0.12</ele>
  <time>2026-09-02T22:12:02Z</time>
  <course>0.0</course>
  <speed>0.0</speed>
  <fix>3d</fix>
</trkpt>
<trkpt lat="33.810313" lon="-118.393867">
  <ele>0.0</ele>
  <time>2026-09-02T22:12:02Z</time>
  <course>188.43</course>
  <speed>0.0</speed>
  <fix>3d</fix>
</trkpt>
<trkpt lat="33.810313" lon="-118.393867">
  <ele>-0.12</ele>
  <time>2026-09-02T22:12:02Z</time>
  <course>0.0</course>
  <speed>0.0</speed>
  <fix>3d</fix>
</trkpt>
<trkpt lat="33.810313" lon="-118.393867">
  <ele>0.0</ele>
  <time>2026-09-02T22:12:02Z</time>
  <course>188.44</course>
  <speed>0.0</speed>
  <fix>3d</fix>
</trkpt>
<trkpt lat="33.810313" lon="-118.393867">
  <ele>-0.12</ele>
  <time>2026-09-02T22:12:02Z</time>
  <course>0.0</course>
  <speed>0.0</speed>
  <fix>3d</fix>
</trkpt>
<trkpt lat="33.810313" lon="-118.393867">
  <ele>0.0</ele>
  <time>2026-09-02T22:12:02Z</time>
  <course>188.45</course>
  <speed>0.0</speed>
  <fix>3d</fix>
</trkpt>
<trkpt lat="33.810313" lon="-118.393867">
  <ele>-0.13</ele>
  <time>2026-09-02T22:12:02Z</time>
  <course>0.0</course>
  <speed>0.0</speed>
  <fix>3d</fix>
</trkpt>
<trkpt lat="33.810313" lon="-118.393867">
  <ele>0.0</ele>
  <time>2026-09-02T22:12:02Z</time>
  <course>188.46</course>
  <speed>0.0</speed>
  <fix>3d</fix>
</trkpt>
<trkpt lat="33.810313" lon="-118.393867">
  <ele>-0.13</ele>
  <time>2026-09-02T22:12:02Z</time>
  <course>0.0</course>
  <speed>0.0</speed>
  <fix>3d</fix>
</trkpt>
<trkpt lat="33.810313" lon="-118.393867">
  <ele>0.0</ele>
  <time>2026-09-02T22:12:02Z</time>
  <course>188.48</course>
  <speed>0.0</speed>
  <fix>3d</fix>
</trkpt>
<trkpt lat="33.810313" lon="-118.393867">
  <ele>-0.13</ele>
  <time>2026-09-02T22:12:02Z</time>
  <course>0.0</course>
  <speed>0.0</speed>
  <fix>3d</fix>
</trkpt>
<trkpt lat="33.810313" lon="-118.393867">
  <ele>0.0</ele>
  <time>2026-09-02T22:12:02Z</time>
  <course>188.49</course>
  <speed>0.0</speed>
  <fix>3d</fix>
</trkpt>
<trkpt lat="33.810313" lon="-118.393867">
  <ele>-0.13</ele>
  <time>2026-09-02T22:12:02Z</time>
  <course>0.0</course>
  <speed>0.0</speed>
  <fix>3d</fix>
</trkpt>
<trkpt lat="33.810313" lon="-118.393867">
  <ele>0.0</ele>
  <time>2026-09-02T22:12:02Z</time>
  <course>188.49</course>
  <speed>0.0</speed>
  <fix>3d</fix>
</trkpt>
<trkpt lat="33.810313" lon="-118.393867">
  <ele>-0.13</ele>
  <time>2026-09-02T22:12:02Z</time>
  <course>0.0</course>
  <speed>0.0</speed>
  <fix>3d</fix>
</trkpt>
<trkpt lat="33.810313" lon="-118.393867">
  <ele>0.0</ele>
  <time>2026-09-02T22:12:02Z</time>
  <course>188.5</course>
  <speed>0.0</speed>
  <fix>3d</fix>
</trkpt>
<trkpt lat="33.810313" lon="-118.393867">
  <ele>-0.13</ele>
  <time>2026-09-02T22:12:02Z</time>
  <course>0.0</course>
  <speed>0.0</speed>
  <fix>3d</fix>
</trkpt>
<trkpt lat="33.810313" lon="-118.393867">
  <ele>0.0</ele>
  <time>2026-09-02T22:12:02Z</time>
  <course>188.51</course>
  <speed>0.0</speed>
  <fix>3d</fix>
</trkpt>
<trkpt lat="33.810313" lon="-118.393867">
  <ele>-0.12</ele>
  <time>2026-09-02T22:12:02Z</time>
  <course>0.0</course>
  <speed>0.0</speed>
  <fix>3d</fix>
</trkpt>
<trkpt lat="33.810313" lon="-118.393867">
  <ele>0.0</ele>
  <time>2026-09-02T22:12:02Z</time>
  <course>188.52</course>
  <speed>0.0</speed>
  <fix>3d</fix>
</trkpt>
<trkpt lat="33.810313" lon="-118.393867">
  <ele>-0.12</ele>
  <time>2026-09-02T22:12:02Z</time>
  <course>0.0</course>
  <speed>0.0</speed>
  <fix>3d</fix>
</trkpt>
<trkpt lat="33.810313" lon="-118.393867">
  <ele>0.0</ele>
  <time>2026-09-02T22:12:02Z</time>
  <course>188.53</course>
  <speed>0.0</speed>
  <fix>3d</fix>
</trkpt>
<trkpt lat="33.810313" lon="-118.393867">
  <ele>-0.12</ele>
  <time>2026-09-02T22:12:02Z</time>
  <course>0.0</course>
  <speed>0.0</speed>
  <fix>3d</fix>
</trkpt>
<trkpt lat="33.810313" lon="-118.393867">
  <ele>0.0</ele>
  <time>2026-09-02T22:12:02Z</time>
  <course>188.53</course>
  <speed>0.0</speed>
  <fix>3d</fix>
</trkpt>
<trkpt lat="33.810313" lon="-118.393867">
  <ele>-0.12</ele>
  <time>2026-09-02T22:12:02Z</time>
  <course>0.0</course>
  <speed>0.0</speed>
  <fix>3d</fix>
</trkpt>
<trkpt lat="33.810313" lon="-118.393867">
  <ele>0.0</ele>
  <time>2026-09-02T22:12:02Z</time>
  <course>188.54</course>
  <speed>0.0</speed>
  <fix>3d</fix>
</trkpt>
<trkpt lat="33.810313" lon="-118.393867">
  <ele>-0.12</ele>
  <time>2026-09-02T22:12:02Z</time>
  <course>0.0</course>
  <speed>0.0</speed>
  <fix>3d</fix>
</trkpt>
<trkpt lat="33.810313" lon="-118.393867">
  <ele>0.0</ele>
  <time>2026-09-02T22:12:02Z</time>
  <course>188.54</course>
  <speed>0.0</speed>
  <fix>3d</fix>
</trkpt>
<trkpt lat="33.810313" lon="-118.393867">
  <ele>-0.12</ele>
  <time>2026-09-02T22:12:02Z</time>
  <course>0.0</course>
  <speed>0.0</speed>
  <fix>3d</fix>
</trkpt>
<trkpt lat="33.810313" lon="-118.393867">
  <ele>0.0</ele>
  <time>2026-09-02T22:12:02Z</time>
  <course>188.54</course>
  <speed>0.0</speed>
  <fix>3d</fix>
</trkpt>
<trkpt lat="33.810313" lon="-118.393867">
  <ele>-0.12</ele>
  <time>2026-09-02T22:12:02Z</time>
  <course>0.0</course>
  <speed>0.0</speed>
  <fix>3d</fix>
</trkpt>
<trkpt lat="33.810313" lon="-118.393867">
  <ele>0.0</ele>
  <time>2026-09-02T22:12:02Z</time>
  <course>188.55</course>
  <speed>0.0</speed>
  <fix>3d</fix>
</trkpt>
<trkpt lat="33.810313" lon="-118.393867">
  <ele>-0.12</ele>
  <time>2026-09-02T22:12:02Z</time>
  <course>0.0</course>
  <speed>0.0</speed>
  <fix>3d</fix>
</trkpt>
<trkpt lat="33.810313" lon="-118.393867">
  <ele>0.0</ele>
  <time>2026-09-02T22:12:02Z</time>
  <course>188.55</course>
  <speed>0.0</speed>
  <fix>3d</fix>
</trkpt>
<trkpt lat="33.810313" lon="-118.393867">
  <ele>-0.12</ele>
  <time>2026-09-02T22:12:02Z</time>
  <course>0.0</course>
  <speed>0.0</speed>
  <fix>3d</fix>
</trkpt>
<trkpt lat="33.810313" lon="-118.393867">
  <ele>0.0</ele>
  <time>2026-09-02T22:12:02Z</time>
  <course>188.55</course>
  <speed>0.0</speed>
  <fix>3d</fix>
</trkpt>
<trkpt lat="33.810313" lon="-118.393867">
  <ele>-0.12</ele>
  <time>2026-09-02T22:12:02Z</time>
  <course>0.0</course>
  <speed>0.0</speed>
  <fix>3d</fix>
</trkpt>
<trkpt lat="33.810313" lon="-118.393867">
  <ele>-0.126</ele>
  <time>2026-09-02T22:12:02Z</time>
  <course>188.55</course>
  <speed>0.0</speed>
  <fix>3d</fix>
</trkpt>
<trkpt lat="33.810313" lon="-118.393867">
  <ele>-0.13</ele>
  <time>2026-09-02T22:12:02Z</time>
  <course>0.0</course>
  <speed>0.0</speed>
  <fix>3d</fix>
</trkpt>
<trkpt lat="33.810313" lon="-118.393867">
  <ele>-0.126</ele>
  <time>2026-09-02T22:12:02Z</time>
  <course>188.56</course>
  <speed>0.0</speed>
  <fix>3d</fix>
</trkpt>
<trkpt lat="33.810313" lon="-118.393867">
  <ele>-0.13</ele>
  <time>2026-09-02T22:12:02Z</time>
  <course>0.0</course>
  <speed>0.0</speed>
  <fix>3d</fix>
</trkpt>
<trkpt lat="33.810313" lon="-118.393867">
  <ele>-0.124</ele>
  <time>2026-09-02T22:12:02Z</time>
  <course>188.56</course>
  <speed>0.0</speed>
  <fix>3d</fix>
</trkpt>
<trkpt lat="33.810313" lon="-118.393867">
  <ele>-0.13</ele>
  <time>2026-09-02T22:12:02Z</time>
  <course>0.0</course>
  <speed>0.0</speed>
  <fix>3d</fix>
</trkpt>
<trkpt lat="33.810313" lon="-118.393867">
  <ele>-0.123</ele>
  <time>2026-09-02T22:12:02Z</time>
  <course>188.56</course>
  <speed>0.0</speed>
  <fix>3d</fix>
</trkpt>
<trkpt lat="33.810313" lon="-118.393867">
  <ele>-0.13</ele>
  <time>2026-09-02T22:12:02Z</time>
  <course>0.0</course>
  <speed>0.0</speed>
  <fix>3d</fix>
</trkpt>
<trkpt lat="33.810313" lon="-118.393867">
  <ele>-0.121</ele>
  <time>2026-09-02T22:12:02Z</time>
  <course>188.56</course>
  <speed>0.0</speed>
  <fix>3d</fix>
</trkpt>
<trkpt lat="33.810313" lon="-118.393867">
  <ele>-0.12</ele>
  <time>2026-09-02T22:12:02Z</time>
  <course>0.0</course>
  <speed>0.0</speed>
  <fix>3d</fix>
</trkpt>
<trkpt lat="33.810313" lon="-118.393867">
  <ele>-0.12</ele>
  <time>2026-09-02T22:12:02Z</time>
  <course>188.56</course>
  <speed>0.0</speed>
  <fix>3d</fix>
</trkpt>
<trkpt lat="33.810313" lon="-118.393867">
  <ele>-0.12</ele>
  <time>2026-09-02T22:12:02Z</time>
  <course>0.0</course>
  <speed>0.0</speed>
  <fix>3d</fix>
</trkpt>
<trkpt lat="33.810313" lon="-118.393867">
  <ele>-0.119</ele>
  <time>2026-09-02T22:12:02Z</time>
  <course>188.56</course>
  <speed>0.0</speed>
  <fix>3d</fix>
</trkpt>
<trkpt lat="33.810313" lon="-118.393867">
  <ele>-0.12</ele>
  <time>2026-09-02T22:12:02Z</time>
  <course>0.0</course>
  <speed>0.0</speed>
  <fix>3d</fix>
</trkpt>
<trkpt lat="33.810313" lon="-118.393867">
  <ele>-0.12</ele>
  <time>2026-09-02T22:12:02Z</time>
  <course>188.56</course>
  <speed>0.0</speed>
  <fix>3d</fix>
</trkpt>
<trkpt lat="33.810313" lon="-118.393867">
  <ele>-0.12</ele>
  <time>2026-09-02T22:12:02Z</time>
  <course>0.0</course>
  <speed>0.0</speed>
  <fix>3d</fix>
</trkpt>
<trkpt lat="33.810313" lon="-118.393867">
  <ele>-0.124</ele>
  <time>2026-09-02T22:12:02Z</time>
  <course>188.55</course>
  <speed>0.0</speed>
  <fix>3d</fix>
</trkpt>
<trkpt lat="33.810313" lon="-118.393867">
  <ele>-0.12</ele>
  <time>2026-09-02T22:12:02Z</time>
  <course>0.0</course>
  <speed>0.0</speed>
  <fix>3d</fix>
</trkpt>
<trkpt lat="33.810313" lon="-118.393867">
  <ele>-0.127</ele>
  <time>2026-09-02T22:12:02Z</time>
  <course>188.55</course>
  <speed>0.0</speed>
  <fix>3d</fix>
</trkpt>
<trkpt lat="33.810313" lon="-118.393867">
  <ele>-0.12</ele>
  <time>2026-09-02T22:12:02Z</time>
  <course>0.0</course>
  <speed>0.0</speed>
  <fix>3d</fix>
</trkpt>
<trkpt lat="33.810313" lon="-118.393867">
  <ele>-0.13</ele>
  <time>2026-09-02T22:12:02Z</time>
  <course>188.55</course>
  <speed>0.0</speed>
  <fix>3d</fix>
</trkpt>
<trkpt lat="33.810313" lon="-118.393867">
  <ele>-0.12</ele>
  <time>2026-09-02T22:12:02Z</time>
  <course>0.0</course>
  <speed>0.0</speed>
  <fix>3d</fix>
</trkpt>
<trkpt lat="33.810313" lon="-118.393867">
  <ele>-0.132</ele>
  <time>2026-09-02T22:12:02Z</time>
  <course>188.55</course>
  <speed>0.0</speed>
  <fix>3d</fix>
</trkpt>
<trkpt lat="33.810313" lon="-118.393867">
  <ele>-0.12</ele>
  <time>2026-09-02T22:12:02Z</time>
  <course>0.0</course>
  <speed>0.0</speed>
  <fix>3d</fix>
</trkpt>
<trkpt lat="33.810313" lon="-118.393867">
  <ele>-0.132</ele>
  <time>2026-09-02T22:12:02Z</time>
  <course>188.55</course>
  <speed>0.0</speed>
  <fix>3d</fix>
</trkpt>
<trkpt lat="33.810313" lon="-118.393867">
  <ele>-0.12</ele>
  <time>2026-09-02T22:12:02Z</time>
  <course>0.0</course>
  <speed>0.0</speed>
  <fix>3d</fix>
</trkpt>
<trkpt lat="33.810313" lon="-118.393867">
  <ele>-0.132</ele>
  <time>2026-09-02T22:12:02Z</time>
  <course>188.55</course>
  <speed>0.0</speed>
  <fix>3d</fix>
</trkpt>
<trkpt lat="33.810313" lon="-118.393867">
  <ele>-0.12</ele>
  <time>2026-09-02T22:12:02Z</time>
  <course>0.0</course>
  <speed>0.0</speed>
  <fix>3d</fix>
</trkpt>
<trkpt lat="33.810313" lon="-118.393867">
  <ele>-0.132</ele>
  <time>2026-09-02T22:12:02Z</time>
  <course>188.55</course>
  <speed>0.0</speed>
  <fix>3d</fix>
</trkpt>
<trkpt lat="33.810313" lon="-118.393867">
  <ele>-0.12</ele>
  <time>2026-09-02T22:12:02Z</time>
  <course>0.0</course>
  <speed>0.0</speed>
  <fix>3d</fix>
</trkpt>
<trkpt lat="33.810313" lon="-118.393867">
  <ele>-0.131</ele>
  <time>2026-09-02T22:12:02Z</time>
  <course>188.55</course>
  <speed>0.0</speed>
  <fix>3d</fix>
</trkpt>
<trkpt lat="33.810313" lon="-118.393867">
  <ele>-0.12</ele>
  <time>2026-09-02T22:12:02Z</time>
  <course>0.0</course>
  <speed>0.0</speed>
  <fix>3d</fix>
</trkpt>
<trkpt lat="33.810313" lon="-118.393867">
  <ele>-0.129</ele>
  <time>2026-09-02T22:12:02Z</time>
  <course>188.54</course>
  <speed>0.0</speed>
  <fix>3d</fix>
</trkpt>
<trkpt lat="33.810313" lon="-118.393867">
  <ele>-0.13</ele>
  <time>2026-09-02T22:12:02Z</time>
  <course>0.0</course>
  <speed>0.0</speed>
  <fix>3d</fix>
</trkpt>
<trkpt lat="33.810313" lon="-118.393867">
  <ele>-0.128</ele>
  <time>2026-09-02T22:12:02Z</time>
  <course>188.54</course>
  <speed>0.0</speed>
  <fix>3d</fix>
</trkpt>
<trkpt lat="33.810313" lon="-118.393867">
  <ele>-0.13</ele>
  <time>2026-09-02T22:12:02Z</time>
  <course>0.0</course>
  <speed>0.0</speed>
  <fix>3d</fix>
</trkpt>
<trkpt lat="33.810313" lon="-118.393867">
  <ele>-0.125</ele>
  <time>2026-09-02T22:12:02Z</time>
  <course>188.53</course>
  <speed>0.0</speed>
  <fix>3d</fix>
</trkpt>
<trkpt lat="33.810313" lon="-118.393867">
  <ele>-0.12</ele>
  <time>2026-09-02T22:12:02Z</time>
  <course>0.0</course>
  <speed>0.0</speed>
  <fix>3d</fix>
</trkpt>
<trkpt lat="33.810313" lon="-118.393867">
  <ele>-0.123</ele>
  <time>2026-09-02T22:12:02Z</time>
  <course>188.53</course>
  <speed>0.0</speed>
  <fix>3d</fix>
</trkpt>
<trkpt lat="33.810313" lon="-118.393867">
  <ele>-0.12</ele>
  <time>2026-09-02T22:12:02Z</time>
  <course>0.0</course>
  <speed>0.0</speed>
  <fix>3d</fix>
</trkpt>
<trkpt lat="33.810313" lon="-118.393867">
  <ele>-0.121</ele>
  <time>2026-09-02T22:12:02Z</time>
  <course>188.52</course>
  <speed>0.0</speed>
  <fix>3d</fix>
</trkpt>
<trkpt lat="33.810313" lon="-118.393867">
  <ele>-0.12</ele>
  <time>2026-09-02T22:12:02Z</time>
  <course>0.0</course>
  <speed>0.0</speed>
  <fix>3d</fix>
</trkpt>
<trkpt lat="33.810313" lon="-118.393867">
  <ele>-0.121</ele>
  <time>2026-09-02T22:12:02Z</time>
  <course>188.52</course>
  <speed>0.0</speed>
  <fix>3d</fix>
</trkpt>
<trkpt lat="33.810313" lon="-118.393867">
  <ele>-0.12</ele>
  <time>2026-09-02T22:12:02Z</time>
  <course>0.0</course>
  <speed>0.0</speed>
  <fix>3d</fix>
</trkpt>
<trkpt lat="33.810313" lon="-118.393867">
  <ele>-0.122</ele>
  <time>2026-09-02T22:12:02Z</time>
  <course>188.51</course>
  <speed>0.0</speed>
  <fix>3d</fix>
</trkpt>
<trkpt lat="33.810313" lon="-118.393867">
  <ele>-0.12</ele>
  <time>2026-09-02T22:12:02Z</time>
  <course>0.0</course>
  <speed>0.0</speed>
  <fix>3d</fix>
</trkpt>
<trkpt lat="33.810313" lon="-118.393867">
  <ele>-0.123</ele>
  <time>2026-09-02T22:12:02Z</time>
  <course>188.51</course>
  <speed>0.0</speed>
  <fix>3d</fix>
</trkpt>
<trkpt lat="33.810313" lon="-118.393867">
  <ele>-0.12</ele>
  <time>2026-09-02T22:12:02Z</time>
  <course>0.0</course>
  <speed>0.0</speed>
  <fix>3d</fix>
</trkpt>
<trkpt lat="33.810313" lon="-118.393867">
  <ele>-0.126</ele>
  <time>2026-09-02T22:12:02Z</time>
  <course>188.5</course>
  <speed>0.0</speed>
  <fix>3d</fix>
</trkpt>
<trkpt lat="33.810313" lon="-118.393867">
  <ele>-0.12</ele>
  <time>2026-09-02T22:12:02Z</time>
  <course>0.0</course>
  <speed>0.0</speed>
  <fix>3d</fix>
</trkpt>
<trkpt lat="33.810313" lon="-118.393867">
  <ele>-0.127</ele>
  <time>2026-09-02T22:12:02Z</time>
  <course>188.5</course>
  <speed>0.0</speed>
  <fix>3d</fix>
</trkpt>
<trkpt lat="33.810313" lon="-118.393867">
  <ele>-0.12</ele>
  <time>2026-09-02T22:12:02Z</time>
  <course>0.0</course>
  <speed>0.0</speed>
  <fix>3d</fix>
</trkpt>
<trkpt lat="33.810313" lon="-118.393867">
  <ele>-0.128</ele>
  <time>2026-09-02T22:12:02Z</time>
  <course>188.49</course>
  <speed>0.0</speed>
  <fix>3d</fix>
</trkpt>
<trkpt lat="33.810313" lon="-118.393867">
  <ele>-0.12</ele>
  <time>2026-09-02T22:12:02Z</time>
  <course>0.0</course>
  <speed>0.0</speed>
  <fix>3d</fix>
</trkpt>
<trkpt lat="33.810313" lon="-118.393867">
  <ele>-0.127</ele>
  <time>2026-09-02T22:12:02Z</time>
  <course>188.48</course>
  <speed>0.0</speed>
  <fix>3d</fix>
</trkpt>
<trkpt lat="33.810313" lon="-118.393867">
  <ele>-0.12</ele>
  <time>2026-09-02T22:12:02Z</time>
  <course>0.0</course>
  <speed>0.0</speed>
  <fix>3d</fix>
</trkpt>
<trkpt lat="33.810313" lon="-118.393867">
  <ele>-0.127</ele>
  <time>2026-09-02T22:12:02Z</time>
  <course>188.48</course>
  <speed>0.0</speed>
  <fix>3d</fix>
</trkpt>
<trkpt lat="33.810313" lon="-118.393867">
  <ele>-0.12</ele>
  <time>2026-09-02T22:12:02Z</time>
  <course>0.0</course>
  <speed>0.0</speed>
  <fix>3d</fix>
</trkpt>
<trkpt lat="33.810313" lon="-118.393867">
  <ele>-0.127</ele>
  <time>2026-09-02T22:12:02Z</time>
  <course>188.47</course>
  <speed>0.01</speed>
  <fix>3d</fix>
</trkpt>
<trkpt lat="33.810313" lon="-118.393867">
  <ele>-0.12</ele>
  <time>2026-09-02T22:12:02Z</time>
  <course>0.0</course>
  <speed>0.0</speed>
  <fix>3d</fix>
</trkpt>
<trkpt lat="33.810313" lon="-118.393867">
  <ele>-0.127</ele>
  <time>2026-09-02T22:12:02Z</time>
  <course>188.47</course>
  <speed>0.01</speed>
  <fix>3d</fix>
</trkpt>
<trkpt lat="33.810313" lon="-118.393867">
  <ele>-0.12</ele>
  <time>2026-09-02T22:12:02Z</time>
  <course>0.0</course>
  <speed>0.0</speed>
  <fix>3d</fix>
</trkpt>
<trkpt lat="33.810313" lon="-118.393867">
  <ele>-0.126</ele>
  <time>2026-09-02T22:12:02Z</time>
  <course>188.46</course>
  <speed>0.01</speed>
  <fix>3d</fix>
</trkpt>
<trkpt lat="33.810313" lon="-118.393867">
  <ele>-0.12</ele>
  <time>2026-09-02T22:12:02Z</time>
  <course>0.0</course>
  <speed>0.0</speed>
  <fix>3d</fix>
</trkpt>
<trkpt lat="33.810313" lon="-118.393867">
  <ele>-0.126</ele>
  <time>2026-09-02T22:12:02Z</time>
  <course>188.45</course>
  <speed>0.01</speed>
  <fix>3d</fix>
</trkpt>
<trkpt lat="33.810313" lon="-118.393867">
  <ele>-0.12</ele>
  <time>2026-09-02T22:12:02Z</time>
  <course>0.0</course>
  <speed>0.0</speed>
  <fix>3d</fix>
</trkpt>
<trkpt lat="33.810313" lon="-118.393867">
  <ele>-0.126</ele>
  <time>2026-09-02T22:12:02Z</time>
  <course>188.45</course>
  <speed>0.01</speed>
  <fix>3d</fix>
</trkpt>
<trkpt lat="33.810313" lon="-118.393867">
  <ele>-0.12</ele>
  <time>2026-09-02T22:12:02Z</time>
  <course>0.0</course>
  <speed>0.0</speed>
  <fix>3d</fix>
</trkpt>
<trkpt lat="33.810313" lon="-118.393867">
  <ele>-0.125</ele>
  <time>2026-09-02T22:12:02Z</time>
  <course>188.44</course>
  <speed>0.01</speed>
  <fix>3d</fix>
</trkpt>
<trkpt lat="33.810313" lon="-118.393867">
  <ele>-0.12</ele>
  <time>2026-09-02T22:12:02Z</time>
  <course>0.0</course>
  <speed>0.0</speed>
  <fix>3d</fix>
</trkpt>
<trkpt lat="33.810313" lon="-118.393867">
  <ele>-0.126</ele>
  <time>2026-09-02T22:12:02Z</time>
  <course>188.43</course>
  <speed>0.01</speed>
  <fix>3d</fix>
</trkpt>
<trkpt lat="33.810313" lon="-118.393867">
  <ele>-0.12</ele>
  <time>2026-09-02T22:12:02Z</time>
  <course>0.0</course>
  <speed>0.0</speed>
  <fix>3d</fix>
</trkpt>
<trkpt lat="33.810313" lon="-118.393867">
  <ele>-0.127</ele>
  <time>2026-09-02T22:12:02Z</time>
  <course>188.42</course>
  <speed>0.01</speed>
  <fix>3d</fix>
</trkpt>
<trkpt lat="33.810313" lon="-118.393867">
  <ele>-0.12</ele>
  <time>2026-09-02T22:12:02Z</time>
  <course>0.0</course>
  <speed>0.0</speed>
  <fix>3d</fix>
</trkpt>
<trkpt lat="33.810313" lon="-118.393867">
  <ele>-0.128</ele>
  <time>2026-09-02T22:12:02Z</time>
  <course>188.42</course>
  <speed>0.01</speed>
  <fix>3d</fix>
</trkpt>
<trkpt lat="33.810313" lon="-118.393867">
  <ele>-0.12</ele>
  <time>2026-09-02T22:12:02Z</time>
  <course>0.0</course>
  <speed>0.0</speed>
  <fix>3d</fix>
</trkpt>
<trkpt lat="33.810313" lon="-118.393867">
  <ele>-0.129</ele>
  <time>2026-09-02T22:12:03Z</time>
  <course>188.41</course>
  <speed>0.01</speed>
  <fix>3d</fix>
</trkpt>
<trkpt lat="33.810313" lon="-118.393867">
  <ele>-0.12</ele>
  <time>2026-09-02T22:12:03Z</time>
  <course>0.0</course>
  <speed>0.0</speed>
  <fix>3d</fix>
</trkpt>
<trkpt lat="33.810313" lon="-118.393867">
  <ele>-0.129</ele>
  <time>2026-09-02T22:12:03Z</time>
  <course>188.4</course>
  <speed>0.01</speed>
  <fix>3d</fix>
</trkpt>
<trkpt lat="33.810313" lon="-118.393867">
  <ele>-0.12</ele>
  <time>2026-09-02T22:12:03Z</time>
  <course>0.0</course>
  <speed>0.0</speed>
  <fix>3d</fix>
</trkpt>
<trkpt lat="33.810313" lon="-118.393867">
  <ele>-0.13</ele>
  <time>2026-09-02T22:12:03Z</time>
  <course>188.4</course>
  <speed>0.01414213562373095</speed>
  <fix>3d</fix>
</trkpt>
<trkpt lat="33.810313" lon="-118.393867">
  <ele>-0.12</ele>
  <time>2026-09-02T22:12:03Z</time>
  <course>0.0</course>
  <speed>0.0</speed>
  <fix>3d</fix>
</trkpt>
<trkpt lat="33.810313" lon="-118.393867">
  <ele>-0.13</ele>
  <time>2026-09-02T22:12:03Z</time>
  <course>188.39</course>
  <speed>0.01414213562373095</speed>
  <fix>3d</fix>
</trkpt>
<trkpt lat="33.810313" lon="-118.393867">
  <ele>-0.12</ele>
  <time>2026-09-02T22:12:03Z</time>
  <course>0.0</course>
  <speed>0.0</speed>
  <fix>3d</fix>
</trkpt>
<trkpt lat="33.810313" lon="-118.393867">
  <ele>-0.13</ele>
  <time>2026-09-02T22:12:03Z</time>
  <course>188.38</course>
  <speed>0.01414213562373095</speed>
  <fix>3d</fix>
</trkpt>
<trkpt lat="33.810313" lon="-118.393867">
  <ele>-0.12</ele>
  <time>2026-09-02T22:12:03Z</time>
  <course>0.0</course>
  <speed>0.0</speed>
  <fix>3d</fix>
</trkpt>
<trkpt lat="33.810313" lon="-118.393867">
  <ele>-0.129</ele>
  <time>2026-09-02T22:12:03Z</time>
  <course>188.37</course>
  <speed>0.01414213562373095</speed>
  <fix>3d</fix>
</trkpt>
<trkpt lat="33.810313" lon="-118.393867">
  <ele>-0.12</ele>
  <time>2026-09-02T22:12:03Z</time>
  <course>0.0</course>
  <speed>0.0</speed>
  <fix>3d</fix>
</trkpt>
<trkpt lat="33.810313" lon="-118.393867">
  <ele>-0.128</ele>
  <time>2026-09-02T22:12:03Z</time>
  <course>188.37</course>
  <speed>0.01414213562373095</speed>
  <fix>3d</fix>
</trkpt>
<trkpt lat="33.810313" lon="-118.393867">
  <ele>-0.12</ele>
  <time>2026-09-02T22:12:03Z</time>
  <course>0.0</course>
  <speed>0.0</speed>
  <fix>3d</fix>
</trkpt>
<trkpt lat="33.810313" lon="-118.393867">
  <ele>-0.126</ele>
  <time>2026-09-02T22:12:03Z</time>
  <course>188.36</course>
  <speed>0.01414213562373095</speed>
  <fix>3d</fix>
</trkpt>
<trkpt lat="33.810313" lon="-118.393867">
  <ele>-0.12</ele>
  <time>2026-09-02T22:12:03Z</time>
  <course>0.0</course>
  <speed>0.0</speed>
  <fix>3d</fix>
</trkpt>
<trkpt lat="33.810313" lon="-118.393867">
  <ele>-0.124</ele>
  <time>2026-09-02T22:12:03Z</time>
  <course>188.35</course>
  <speed>0.01414213562373095</speed>
  <fix>3d</fix>
</trkpt>
<trkpt lat="33.810313" lon="-118.393867">
  <ele>-0.12</ele>
  <time>2026-09-02T22:12:03Z</time>
  <course>0.0</course>
  <speed>0.0</speed>
  <fix>3d</fix>
</trkpt>
<trkpt lat="33.810313" lon="-118.393867">
  <ele>-0.122</ele>
  <time>2026-09-02T22:12:03Z</time>
  <course>188.34</course>
  <speed>0.01414213562373095</speed>
  <fix>3d</fix>
</trkpt>
<trkpt lat="33.810313" lon="-118.393867">
  <ele>-0.12</ele>
  <time>2026-09-02T22:12:03Z</time>
  <course>0.0</course>
  <speed>0.0</speed>
  <fix>3d</fix>
</trkpt>
<trkpt lat="33.810313" lon="-118.393867">
  <ele>-0.123</ele>
  <time>2026-09-02T22:12:03Z</time>
  <course>188.33</course>
  <speed>0.01414213562373095</speed>
  <fix>3d</fix>
</trkpt>
<trkpt lat="33.810313" lon="-118.393867">
  <ele>-0.12</ele>
  <time>2026-09-02T22:12:03Z</time>
  <course>0.0</course>
  <speed>0.0</speed>
  <fix>3d</fix>
</trkpt>
<trkpt lat="33.810313" lon="-118.393867">
  <ele>-0.125</ele>
  <time>2026-09-02T22:12:03Z</time>
  <course>188.33</course>
  <speed>0.01414213562373095</speed>
  <fix>3d</fix>
</trkpt>
<trkpt lat="33.810313" lon="-118.393867">
  <ele>-0.12</ele>
  <time>2026-09-02T22:12:03Z</time>
  <course>0.0</course>
  <speed>0.0</speed>
  <fix>3d</fix>
</trkpt>
<trkpt lat="33.810313" lon="-118.393867">
  <ele>-0.128</ele>
  <time>2026-09-02T22:12:03Z</time>
  <course>188.32</course>
  <speed>0.01414213562373095</speed>
  <fix>3d</fix>
</trkpt>
<trkpt lat="33.810313" lon="-118.393867">
  <ele>-0.12</ele>
  <time>2026-09-02T22:12:03Z</time>
  <course>0.0</course>
  <speed>0.0</speed>
  <fix>3d</fix>
</trkpt>
<trkpt lat="33.810313" lon="-118.393867">
  <ele>-0.132</ele>
  <time>2026-09-02T22:12:03Z</time>
  <course>188.31</course>
  <speed>0.01414213562373095</speed>
  <fix>3d</fix>
</trkpt>
<trkpt lat="33.810313" lon="-118.393867">
  <ele>-0.12</ele>
  <time>2026-09-02T22:12:03Z</time>
  <course>0.0</course>
  <speed>0.0</speed>
  <fix>3d</fix>
</trkpt>
<trkpt lat="33.810313" lon="-118.393867">
  <ele>-0.135</ele>
  <time>2026-09-02T22:12:03Z</time>
  <course>188.3</course>
  <speed>0.01414213562373095</speed>
  <fix>3d</fix>
</trkpt>
<trkpt lat="33.810313" lon="-118.393867">
  <ele>-0.12</ele>
  <time>2026-09-02T22:12:03Z</time>
  <course>0.0</course>
  <speed>0.0</speed>
  <fix>3d</fix>
</trkpt>
<trkpt lat="33.810313" lon="-118.393867">
  <ele>-0.135</ele>
  <time>2026-09-02T22:12:03Z</time>
  <course>188.3</course>
  <speed>0.01414213562373095</speed>
  <fix>3d</fix>
</trkpt>
<trkpt lat="33.810313" lon="-118.393867">
  <ele>-0.12</ele>
  <time>2026-09-02T22:12:03Z</time>
  <course>0.0</course>
  <speed>0.0</speed>
  <fix>3d</fix>
</trkpt>
<trkpt lat="33.810313" lon="-118.393867">
  <ele>-0.134</ele>
  <time>2026-09-02T22:12:03Z</time>
  <course>188.29</course>
  <speed>0.01414213562373095</speed>
  <fix>3d</fix>
</trkpt>
<trkpt lat="33.810313" lon="-118.393867">
  <ele>-0.12</ele>
  <time>2026-09-02T22:12:03Z</time>
  <course>0.0</course>
  <speed>0.0</speed>
  <fix>3d</fix>
</trkpt>
<trkpt lat="33.810313" lon="-118.393867">
  <ele>-0.132</ele>
  <time>2026-09-02T22:12:03Z</time>
  <course>188.28</course>
  <speed>0.01414213562373095</speed>
  <fix>3d</fix>
</trkpt>
<trkpt lat="33.810313" lon="-118.393867">
  <ele>-0.12</ele>
  <time>2026-09-02T22:12:03Z</time>
  <course>0.0</course>
  <speed>0.0</speed>
  <fix>3d</fix>
</trkpt>
<trkpt lat="33.810313" lon="-118.393867">
  <ele>-0.129</ele>
  <time>2026-09-02T22:12:03Z</time>
  <course>188.27</course>
  <speed>0.01414213562373095</speed>
  <fix>3d</fix>
</trkpt>
<trkpt lat="33.810313" lon="-118.393867">
  <ele>-0.12</ele>
  <time>2026-09-02T22:12:03Z</time>
  <course>0.0</course>
  <speed>0.0</speed>
  <fix>3d</fix>
</trkpt>
<trkpt lat="33.810313" lon="-118.393867">
  <ele>-0.127</ele>
  <time>2026-09-02T22:12:03Z</time>
  <course>188.26</course>
  <speed>0.01414213562373095</speed>
  <fix>3d</fix>
</trkpt>
<trkpt lat="33.810313" lon="-118.393867">
  <ele>-0.12</ele>
  <time>2026-09-02T22:12:03Z</time>
  <course>0.0</course>
  <speed>0.0</speed>
  <fix>3d</fix>
</trkpt>
<trkpt lat="33.810313" lon="-118.393867">
  <ele>-0.124</ele>
  <time>2026-09-02T22:12:03Z</time>
  <course>188.25</course>
  <speed>0.01414213562373095</speed>
  <fix>3d</fix>
</trkpt>
<trkpt lat="33.810313" lon="-118.393867">
  <ele>-0.12</ele>
  <time>2026-09-02T22:12:03Z</time>
  <course>0.0</course>
  <speed>0.0</speed>
  <fix>3d</fix>
</trkpt>
<trkpt lat="33.810313" lon="-118.393867">
  <ele>-0.123</ele>
  <time>2026-09-02T22:12:03Z</time>
  <course>188.25</course>
  <speed>0.01414213562373095</speed>
  <fix>3d</fix>
</trkpt>
<trkpt lat="33.810313" lon="-118.393867">
  <ele>-0.12</ele>
  <time>2026-09-02T22:12:03Z</time>
  <course>0.0</course>
  <speed>0.0</speed>
  <fix>3d</fix>
</trkpt>
<trkpt lat="33.810313" lon="-118.393867">
  <ele>-0.124</ele>
  <time>2026-09-02T22:12:03Z</time>
  <course>188.24</course>
  <speed>0.01414213562373095</speed>
  <fix>3d</fix>
</trkpt>
<trkpt lat="33.810313" lon="-118.393867">
  <ele>-0.12</ele>
  <time>2026-09-02T22:12:03Z</time>
  <course>0.0</course>
  <speed>0.0</speed>
  <fix>3d</fix>
</trkpt>
<trkpt lat="33.810313" lon="-118.393867">
  <ele>-0.126</ele>
  <time>2026-09-02T22:12:03Z</time>
  <course>188.23</course>
  <speed>0.01414213562373095</speed>
  <fix>3d</fix>
</trkpt>
<trkpt lat="33.810313" lon="-118.393867">
  <ele>-0.12</ele>
  <time>2026-09-02T22:12:03Z</time>
  <course>0.0</course>
  <speed>0.0</speed>
  <fix>3d</fix>
</trkpt>
<trkpt lat="33.810313" lon="-118.393867">
  <ele>-0.127</ele>
  <time>2026-09-02T22:12:03Z</time>
  <course>188.22</course>
  <speed>0.01414213562373095</speed>
  <fix>3d</fix>
</trkpt>
<trkpt lat="33.810313" lon="-118.393867">
  <ele>-0.12</ele>
  <time>2026-09-02T22:12:03Z</time>
  <course>0.0</course>
  <speed>0.0</speed>
  <fix>3d</fix>
</trkpt>
<trkpt lat="33.810313" lon="-118.393867">
  <ele>-0.129</ele>
  <time>2026-09-02T22:12:03Z</time>
  <course>188.21</course>
  <speed>0.01414213562373095</speed>
  <fix>3d</fix>
</trkpt>
<trkpt lat="33.810313" lon="-118.393867">
  <ele>-0.12</ele>
  <time>2026-09-02T22:12:03Z</time>
  <course>0.0</course>
  <speed>0.0</speed>
  <fix>3d</fix>
</trkpt>
<trkpt lat="33.810313" lon="-118.393867">
  <ele>-0.129</ele>
  <time>2026-09-02T22:12:03Z</time>
  <course>188.21</course>
  <speed>0.01414213562373095</speed>
  <fix>3d</fix>
</trkpt>
<trkpt lat="33.810313" lon="-118.393867">
  <ele>-0.12</ele>
  <time>2026-09-02T22:12:03Z</time>
  <course>0.0</course>
  <speed>0.0</speed>
  <fix>3d</fix>
</trkpt>
<trkpt lat="33.810313" lon="-118.393867">
  <ele>-0.129</ele>
  <time>2026-09-02T22:12:03Z</time>
  <course>188.2</course>
  <speed>0.01414213562373095</speed>
  <fix>3d</fix>
</trkpt>
<trkpt lat="33.810313" lon="-118.393867">
  <ele>-0.12</ele>
  <time>2026-09-02T22:12:03Z</time>
  <course>0.0</course>
  <speed>0.0</speed>
  <fix>3d</fix>
</trkpt>
<trkpt lat="33.810313" lon="-118.393867">
  <ele>-0.128</ele>
  <time>2026-09-02T22:12:03Z</time>
  <course>188.19</course>
  <speed>0.01414213562373095</speed>
  <fix>3d</fix>
</trkpt>
<trkpt lat="33.810313" lon="-118.393867">
  <ele>-0.12</ele>
  <time>2026-09-02T22:12:03Z</time>
  <course>0.0</course>
  <speed>0.0</speed>
  <fix>3d</fix>
</trkpt>
<trkpt lat="33.810313" lon="-118.393867">
  <ele>-0.128</ele>
  <time>2026-09-02T22:12:03Z</time>
  <course>188.18</course>
  <speed>0.01414213562373095</speed>
  <fix>3d</fix>
</trkpt>
<trkpt lat="33.810313" lon="-118.393867">
  <ele>-0.12</ele>
  <time>2026-09-02T22:12:03Z</time>
  <course>0.0</course>
  <speed>0.0</speed>
  <fix>3d</fix>
</trkpt>
<trkpt lat="33.810313" lon="-118.393867">
  <ele>-0.127</ele>
  <time>2026-09-02T22:12:03Z</time>
  <course>188.17</course>
  <speed>0.01414213562373095</speed>
  <fix>3d</fix>
</trkpt>
<trkpt lat="33.810313" lon="-118.393867">
  <ele>-0.12</ele>
  <time>2026-09-02T22:12:03Z</time>
  <course>0.0</course>
  <speed>0.0</speed>
  <fix>3d</fix>
</trkpt>
<trkpt lat="33.810313" lon="-118.393867">
  <ele>-0.127</ele>
  <time>2026-09-02T22:12:03Z</time>
  <course>188.16</course>
  <speed>0.01414213562373095</speed>
  <fix>3d</fix>
</trkpt>
<trkpt lat="33.810313" lon="-118.393867">
  <ele>-0.12</ele>
  <time>2026-09-02T22:12:03Z</time>
  <course>0.0</course>
  <speed>0.0</speed>
  <fix>3d</fix>
</trkpt>
<trkpt lat="33.810313" lon="-118.393867">
  <ele>-0.128</ele>
  <time>2026-09-02T22:12:03Z</time>
  <course>188.16</course>
  <speed>0.01414213562373095</speed>
  <fix>3d</fix>
</trkpt>
<trkpt lat="33.810313" lon="-118.393867">
  <ele>-0.12</ele>
  <time>2026-09-02T22:12:03Z</time>
  <course>0.0</course>
  <speed>0.0</speed>
  <fix>3d</fix>
</trkpt>
<trkpt lat="33.810313" lon="-118.393867">
  <ele>-0.129</ele>
  <time>2026-09-02T22:12:03Z</time>
  <course>188.15</course>
  <speed>0.01414213562373095</speed>
  <fix>3d</fix>
</trkpt>
<trkpt lat="33.810313" lon="-118.393867">
  <ele>-0.12</ele>
  <time>2026-09-02T22:12:03Z</time>
  <course>0.0</course>
  <speed>0.0</speed>
  <fix>3d</fix>
</trkpt>
<trkpt lat="33.810313" lon="-118.393867">
  <ele>-0.131</ele>
  <time>2026-09-02T22:12:03Z</time>
  <course>188.14</course>
  <speed>0.01414213562373095</speed>
  <fix>3d</fix>
</trkpt>
<trkpt lat="33.810313" lon="-118.393867">
  <ele>-0.12</ele>
  <time>2026-09-02T22:12:03Z</time>
  <course>0.0</course>
  <speed>0.0</speed>
  <fix>3d</fix>
</trkpt>
<trkpt lat="33.810313" lon="-118.393867">
  <ele>-0.133</ele>
  <time>2026-09-02T22:12:03Z</time>
  <course>188.13</course>
  <speed>0.01414213562373095</speed>
  <fix>3d</fix>
</trkpt>
<trkpt lat="33.810313" lon="-118.393867">
  <ele>-0.12</ele>
  <time>2026-09-02T22:12:03Z</time>
  <course>0.0</course>
  <speed>0.0</speed>
  <fix>3d</fix>
</trkpt>
<trkpt lat="33.810313" lon="-118.393867">
  <ele>-0.135</ele>
  <time>2026-09-02T22:12:03Z</time>
  <course>188.12</course>
  <speed>0.01414213562373095</speed>
  <fix>3d</fix>
</trkpt>
<trkpt lat="33.810313" lon="-118.393867">
  <ele>-0.12</ele>
  <time>2026-09-02T22:12:03Z</time>
  <course>0.0</course>
  <speed>0.0</speed>
  <fix>3d</fix>
</trkpt>
<trkpt lat="33.810313" lon="-118.393867">
  <ele>-0.136</ele>
  <time>2026-09-02T22:12:03Z</time>
  <course>188.12</course>
  <speed>0.01414213562373095</speed>
  <fix>3d</fix>
</trkpt>
<trkpt lat="33.810313" lon="-118.393867">
  <ele>-0.12</ele>
  <time>2026-09-02T22:12:03Z</time>
  <course>0.0</course>
  <speed>0.0</speed>
  <fix>3d</fix>
</trkpt>
<trkpt lat="33.810313" lon="-118.393867">
  <ele>-0.136</ele>
  <time>2026-09-02T22:12:03Z</time>
  <course>188.11</course>
  <speed>0.01414213562373095</speed>
  <fix>3d</fix>
</trkpt>
<trkpt lat="33.810313" lon="-118.393867">
  <ele>-0.12</ele>
  <time>2026-09-02T22:12:03Z</time>
  <course>0.0</course>
  <speed>0.0</speed>
  <fix>3d</fix>
</trkpt>
<trkpt lat="33.810313" lon="-118.393867">
  <ele>-0.136</ele>
  <time>2026-09-02T22:12:03Z</time>
  <course>188.1</course>
  <speed>0.01414213562373095</speed>
  <fix>3d</fix>
</trkpt>
<trkpt lat="33.810313" lon="-118.393867">
  <ele>-0.12</ele>
  <time>2026-09-02T22:12:03Z</time>
  <course>0.0</course>
  <speed>0.0</speed>
  <fix>3d</fix>
</trkpt>
<trkpt lat="33.810313" lon="-118.393867">
  <ele>-0.135</ele>
  <time>2026-09-02T22:12:03Z</time>
  <course>188.09</course>
  <speed>0.01414213562373095</speed>
  <fix>3d</fix>
</trkpt>
<trkpt lat="33.810313" lon="-118.393867">
  <ele>-0.12</ele>
  <time>2026-09-02T22:12:03Z</time>
  <course>0.0</course>
  <speed>0.0</speed>
  <fix>3d</fix>
</trkpt>
<trkpt lat="33.810313" lon="-118.393867">
  <ele>-0.134</ele>
  <time>2026-09-02T22:12:03Z</time>
  <course>188.08</course>
  <speed>0.01414213562373095</speed>
  <fix>3d</fix>
</trkpt>
<trkpt lat="33.810313" lon="-118.393867">
  <ele>-0.12</ele>
  <time>2026-09-02T22:12:03Z</time>
  <course>0.0</course>
  <speed>0.0</speed>
  <fix>3d</fix>
</trkpt>
<trkpt lat="33.810313" lon="-118.393867">
  <ele>-0.131</ele>
  <time>2026-09-02T22:12:03Z</time>
  <course>188.07</course>
  <speed>0.022360679774997897</speed>
  <fix>3d</fix>
</trkpt>
<trkpt lat="33.810313" lon="-118.393867">
  <ele>-0.12</ele>
  <time>2026-09-02T22:12:03Z</time>
  <course>0.0</course>
  <speed>0.0</speed>
  <fix>3d</fix>
</trkpt>
<trkpt lat="33.810313" lon="-118.393867">
  <ele>-0.128</ele>
  <time>2026-09-02T22:12:03Z</time>
  <course>188.07</course>
  <speed>0.022360679774997897</speed>
  <fix>3d</fix>
</trkpt>
<trkpt lat="33.810313" lon="-118.393867">
  <ele>-0.12</ele>
  <time>2026-09-02T22:12:03Z</time>
  <course>0.0</course>
  <speed>0.0</speed>
  <fix>3d</fix>
</trkpt>
<trkpt lat="33.810313" lon="-118.393867">
  <ele>-0.126</ele>
  <time>2026-09-02T22:12:03Z</time>
  <course>188.06</course>
  <speed>0.022360679774997897</speed>
  <fix>3d</fix>
</trkpt>
<trkpt lat="33.810313" lon="-118.393867">
  <ele>-0.12</ele>
  <time>2026-09-02T22:12:03Z</time>
  <course>0.0</course>
  <speed>0.0</speed>
  <fix>3d</fix>
</trkpt>
<trkpt lat="33.810313" lon="-118.393867">
  <ele>-0.126</ele>
  <time>2026-09-02T22:12:03Z</time>
  <course>188.05</course>
  <speed>0.022360679774997897</speed>
  <fix>3d</fix>
</trkpt>
<trkpt lat="33.810313" lon="-118.393867">
  <ele>-0.12</ele>
  <time>2026-09-02T22:12:03Z</time>
  <course>0.0</course>
  <speed>0.0</speed>
  <fix>3d</fix>
</trkpt>
<trkpt lat="33.810313" lon="-118.393867">
  <ele>-0.126</ele>
  <time>2026-09-02T22:12:03Z</time>
  <course>188.04</course>
  <speed>0.022360679774997897</speed>
  <fix>3d</fix>
</trkpt>
<trkpt lat="33.810313" lon="-118.393867">
  <ele>-0.12</ele>
  <time>2026-09-02T22:12:03Z</time>
  <course>0.0</course>
  <speed>0.0</speed>
  <fix>3d</fix>
</trkpt>
<trkpt lat="33.810313" lon="-118.393867">
  <ele>-0.127</ele>
  <time>2026-09-02T22:12:03Z</time>
  <course>188.03</course>
  <speed>0.022360679774997897</speed>
  <fix>3d</fix>
</trkpt>
<trkpt lat="33.810313" lon="-118.393867">
  <ele>-0.12</ele>
  <time>2026-09-02T22:12:03Z</time>
  <course>0.0</course>
  <speed>0.0</speed>
  <fix>3d</fix>
</trkpt>
<trkpt lat="33.810313" lon="-118.393867">
  <ele>-0.127</ele>
  <time>2026-09-02T22:12:03Z</time>
  <course>188.03</course>
  <speed>0.022360679774997897</speed>
  <fix>3d</fix>
</trkpt>
<trkpt lat="33.810313" lon="-118.393867">
  <ele>-0.12</ele>
  <time>2026-09-02T22:12:03Z</time>
  <course>0.0</course>
  <speed>0.0</speed>
  <fix>3d</fix>
</trkpt>
<trkpt lat="33.810313" lon="-118.393867">
  <ele>-0.127</ele>
  <time>2026-09-02T22:12:03Z</time>
  <course>188.02</course>
  <speed>0.022360679774997897</speed>
  <fix>3d</fix>
</trkpt>
<trkpt lat="33.810313" lon="-118.393867">
  <ele>-0.12</ele>
  <time>2026-09-02T22:12:03Z</time>
  <course>0.0</course>
  <speed>0.0</speed>
  <fix>3d</fix>
</trkpt>
<trkpt lat="33.810313" lon="-118.393867">
  <ele>-0.128</ele>
  <time>2026-09-02T22:12:03Z</time>
  <course>188.01</course>
  <speed>0.022360679774997897</speed>
  <fix>3d</fix>
</trkpt>
<trkpt lat="33.810313" lon="-118.393867">
  <ele>-0.12</ele>
  <time>2026-09-02T22:12:03Z</time>
  <course>0.0</course>
  <speed>0.0</speed>
  <fix>3d</fix>
</trkpt>
<trkpt lat="33.810313" lon="-118.393867">
  <ele>-0.128</ele>
  <time>2026-09-02T22:12:03Z</time>
  <course>188.0</course>
  <speed>0.022360679774997897</speed>
  <fix>3d</fix>
</trkpt>
<trkpt lat="33.810313" lon="-118.393867">
  <ele>-0.12</ele>
  <time>2026-09-02T22:12:03Z</time>
  <course>0.0</course>
  <speed>0.0</speed>
  <fix>3d</fix>
</trkpt>
<trkpt lat="33.810313" lon="-118.393867">
  <ele>-0.127</ele>
  <time>2026-09-02T22:12:03Z</time>
  <course>187.99</course>
  <speed>0.022360679774997897</speed>
  <fix>3d</fix>
</trkpt>
<trkpt lat="33.810313" lon="-118.393867">
  <ele>-0.12</ele>
  <time>2026-09-02T22:12:03Z</time>
  <course>0.0</course>
  <speed>0.0</speed>
  <fix>3d</fix>
</trkpt>
<trkpt lat="33.810313" lon="-118.393867">
  <ele>-0.126</ele>
  <time>2026-09-02T22:12:03Z</time>
  <course>187.98</course>
  <speed>0.022360679774997897</speed>
  <fix>3d</fix>
</trkpt>
<trkpt lat="33.810313" lon="-118.393867">
  <ele>-0.12</ele>
  <time>2026-09-02T22:12:03Z</time>
  <course>0.0</course>
  <speed>0.0</speed>
  <fix>3d</fix>
</trkpt>
<trkpt lat="33.810313" lon="-118.393867">
  <ele>-0.123</ele>
  <time>2026-09-02T22:12:03Z</time>
  <course>187.98</course>
  <speed>0.022360679774997897</speed>
  <fix>3d</fix>
</trkpt>
<trkpt lat="33.810313" lon="-118.393867">
  <ele>-0.12</ele>
  <time>2026-09-02T22:12:03Z</time>
  <course>0.0</course>
  <speed>0.0</speed>
  <fix>3d</fix>
</trkpt>
<trkpt lat="33.810313" lon="-118.393867">
  <ele>-0.121</ele>
  <time>2026-09-02T22:12:03Z</time>
  <course>187.97</course>
  <speed>0.022360679774997897</speed>
  <fix>3d</fix>
</trkpt>
<trkpt lat="33.810313" lon="-118.393867">
  <ele>-0.12</ele>
  <time>2026-09-02T22:12:03Z</time>
  <course>0.0</course>
  <speed>0.0</speed>
  <fix>3d</fix>
</trkpt>
<trkpt lat="33.810313" lon="-118.393867">
  <ele>-0.12</ele>
  <time>2026-09-02T22:12:03Z</time>
  <course>187.96</course>
  <speed>0.022360679774997897</speed>
  <fix>3d</fix>
</trkpt>
<trkpt lat="33.810313" lon="-118.393867">
  <ele>-0.12</ele>
  <time>2026-09-02T22:12:03Z</time>
  <course>0.0</course>
  <speed>0.0</speed>
  <fix>3d</fix>
</trkpt>
<trkpt lat="33.810313" lon="-118.393867">
  <ele>-0.12</ele>
  <time>2026-09-02T22:12:03Z</time>
  <course>187.95</course>
  <speed>0.022360679774997897</speed>
  <fix>3d</fix>
</trkpt>
<trkpt lat="33.810313" lon="-118.393867">
  <ele>-0.12</ele>
  <time>2026-09-02T22:12:03Z</time>
  <course>0.0</course>
  <speed>0.0</speed>
  <fix>3d</fix>
</trkpt>
<trkpt lat="33.810313" lon="-118.393867">
  <ele>-0.122</ele>
  <time>2026-09-02T22:12:03Z</time>
  <course>187.94</course>
  <speed>0.022360679774997897</speed>
  <fix>3d</fix>
</trkpt>
<trkpt lat="33.810313" lon="-118.393867">
  <ele>-0.12</ele>
  <time>2026-09-02T22:12:03Z</time>
  <course>0.0</course>
  <speed>0.0</speed>
  <fix>3d</fix>
</trkpt>
<trkpt lat="33.810313" lon="-118.393867">
  <ele>-0.125</ele>
  <time>2026-09-02T22:12:03Z</time>
  <course>187.94</course>
  <speed>0.022360679774997897</speed>
  <fix>3d</fix>
</trkpt>
<trkpt lat="33.810313" lon="-118.393867">
  <ele>-0.12</ele>
  <time>2026-09-02T22:12:03Z</time>
  <course>0.0</course>
  <speed>0.0</speed>
  <fix>3d</fix>
</trkpt>
<trkpt lat="33.810313" lon="-118.393867">
  <ele>-0.129</ele>
  <time>2026-09-02T22:12:03Z</time>
  <course>187.93</course>
  <speed>0.022360679774997897</speed>
  <fix>3d</fix>
</trkpt>
<trkpt lat="33.810313" lon="-118.393867">
  <ele>-0.12</ele>
  <time>2026-09-02T22:12:03Z</time>
  <course>0.0</course>
  <speed>0.0</speed>
  <fix>3d</fix>
</trkpt>
<trkpt lat="33.810313" lon="-118.393867">
  <ele>-0.131</ele>
  <time>2026-09-02T22:12:03Z</time>
  <course>187.92</course>
  <speed>0.022360679774997897</speed>
  <fix>3d</fix>
</trkpt>
<trkpt lat="33.810313" lon="-118.393867">
  <ele>-0.12</ele>
  <time>2026-09-02T22:12:03Z</time>
  <course>0.0</course>
  <speed>0.0</speed>
  <fix>3d</fix>
</trkpt>
<trkpt lat="33.810313" lon="-118.393867">
  <ele>-0.132</ele>
  <time>2026-09-02T22:12:03Z</time>
  <course>187.91</course>
  <speed>0.022360679774997897</speed>
  <fix>3d</fix>
</trkpt>
<trkpt lat="33.810313" lon="-118.393867">
  <ele>-0.12</ele>
  <time>2026-09-02T22:12:03Z</time>
  <course>0.0</course>
  <speed>0.0</speed>
  <fix>3d</fix>
</trkpt>
<trkpt lat="33.810313" lon="-118.393867">
  <ele>-0.132</ele>
  <time>2026-09-02T22:12:03Z</time>
  <course>187.9</course>
  <speed>0.022360679774997897</speed>
  <fix>3d</fix>
</trkpt>
<trkpt lat="33.810313" lon="-118.393867">
  <ele>-0.12</ele>
  <time>2026-09-02T22:12:03Z</time>
  <course>0.0</course>
  <speed>0.0</speed>
  <fix>3d</fix>
</trkpt>
<trkpt lat="33.810313" lon="-118.393867">
  <ele>-0.132</ele>
  <time>2026-09-02T22:12:03Z</time>
  <course>187.9</course>
  <speed>0.022360679774997897</speed>
  <fix>3d</fix>
</trkpt>
<trkpt lat="33.810313" lon="-118.393867">
  <ele>-0.12</ele>
  <time>2026-09-02T22:12:03Z</time>
  <course>0.0</course>
  <speed>0.0</speed>
  <fix>3d</fix>
</trkpt>
<trkpt lat="33.810313" lon="-118.393867">
  <ele>-0.13</ele>
  <time>2026-09-02T22:12:03Z</time>
  <course>187.89</course>
  <speed>0.022360679774997897</speed>
  <fix>3d</fix>
</trkpt>
<trkpt lat="33.810313" lon="-118.393867">
  <ele>-0.12</ele>
  <time>2026-09-02T22:12:03Z</time>
  <course>0.0</course>
  <speed>0.0</speed>
  <fix>3d</fix>
</trkpt>
<trkpt lat="33.810313" lon="-118.393867">
  <ele>-0.127</ele>
  <time>2026-09-02T22:12:03Z</time>
  <course>187.88</course>
  <speed>0.022360679774997897</speed>
  <fix>3d</fix>
</trkpt>
<trkpt lat="33.810313" lon="-118.393867">
  <ele>-0.12</ele>
  <time>2026-09-02T22:12:03Z</time>
  <course>0.0</course>
  <speed>0.0</speed>
  <fix>3d</fix>
</trkpt>
<trkpt lat="33.810313" lon="-118.393867">
  <ele>-0.123</ele>
  <time>2026-09-02T22:12:03Z</time>
  <course>187.87</course>
  <speed>0.022360679774997897</speed>
  <fix>3d</fix>
</trkpt>
<trkpt lat="33.810313" lon="-118.393867">
  <ele>-0.12</ele>
  <time>2026-09-02T22:12:03Z</time>
  <course>0.0</course>
  <speed>0.0</speed>
  <fix>3d</fix>
</trkpt>
<trkpt lat="33.810313" lon="-118.393867">
  <ele>-0.121</ele>
  <time>2026-09-02T22:12:03Z</time>
  <course>187.87</course>
  <speed>0.022360679774997897</speed>
  <fix>3d</fix>
</trkpt>
<trkpt lat="33.810313" lon="-118.393867">
  <ele>-0.12</ele>
  <time>2026-09-02T22:12:03Z</time>
  <course>0.0</course>
  <speed>0.0</speed>
  <fix>3d</fix>
</trkpt>
<trkpt lat="33.810313" lon="-118.393867">
  <ele>-0.121</ele>
  <time>2026-09-02T22:12:03Z</time>
  <course>187.86</course>
  <speed>0.022360679774997897</speed>
  <fix>3d</fix>
</trkpt>
<trkpt lat="33.810313" lon="-118.393867">
  <ele>-0.12</ele>
  <time>2026-09-02T22:12:03Z</time>
  <course>0.0</course>
  <speed>0.0</speed>
  <fix>3d</fix>
</trkpt>
<trkpt lat="33.810313" lon="-118.393867">
  <ele>-0.123</ele>
  <time>2026-09-02T22:12:03Z</time>
  <course>187.85</course>
  <speed>0.022360679774997897</speed>
  <fix>3d</fix>
</trkpt>
<trkpt lat="33.810313" lon="-118.393867">
  <ele>-0.12</ele>
  <time>2026-09-02T22:12:03Z</time>
  <course>0.0</course>
  <speed>0.0</speed>
  <fix>3d</fix>
</trkpt>
<trkpt lat="33.810313" lon="-118.393867">
  <ele>-0.124</ele>
  <time>2026-09-02T22:12:03Z</time>
  <course>187.84</course>
  <speed>0.022360679774997897</speed>
  <fix>3d</fix>
</trkpt>
<trkpt lat="33.810313" lon="-118.393867">
  <ele>-0.12</ele>
  <time>2026-09-02T22:12:03Z</time>
  <course>0.0</course>
  <speed>0.0</speed>
  <fix>3d</fix>
</trkpt>
<trkpt lat="33.810313" lon="-118.393867">
  <ele>-0.126</ele>
  <time>2026-09-02T22:12:03Z</time>
  <course>187.83</course>
  <speed>0.022360679774997897</speed>
  <fix>3d</fix>
</trkpt>
<trkpt lat="33.810313" lon="-118.393867">
  <ele>-0.12</ele>
  <time>2026-09-02T22:12:03Z</time>
  <course>0.0</course>
  <speed>0.0</speed>
  <fix>3d</fix>
</trkpt>
<trkpt lat="33.810313" lon="-118.393867">
  <ele>-0.127</ele>
  <time>2026-09-02T22:12:03Z</time>
  <course>187.83</course>
  <speed>0.022360679774997897</speed>
  <fix>3d</fix>
</trkpt>
<trkpt lat="33.810313" lon="-118.393867">
  <ele>-0.12</ele>
  <time>2026-09-02T22:12:03Z</time>
  <course>0.0</course>
  <speed>0.0</speed>
  <fix>3d</fix>
</trkpt>
<trkpt lat="33.810313" lon="-118.393867">
  <ele>-0.127</ele>
  <time>2026-09-02T22:12:03Z</time>
  <course>187.82</course>
  <speed>0.022360679774997897</speed>
  <fix>3d</fix>
</trkpt>
<trkpt lat="33.810313" lon="-118.393867">
  <ele>-0.12</ele>
  <time>2026-09-02T22:12:03Z</time>
  <course>0.0</course>
  <speed>0.0</speed>
  <fix>3d</fix>
</trkpt>
<trkpt lat="33.810313" lon="-118.393867">
  <ele>-0.127</ele>
  <time>2026-09-02T22:12:03Z</time>
  <course>187.81</course>
  <speed>0.022360679774997897</speed>
  <fix>3d</fix>
</trkpt>
<trkpt lat="33.810313" lon="-118.393867">
  <ele>-0.12</ele>
  <time>2026-09-02T22:12:03Z</time>
  <course>0.0</course>
  <speed>0.0</speed>
  <fix>3d</fix>
</trkpt>
<trkpt lat="33.810313" lon="-118.393867">
  <ele>-0.126</ele>
  <time>2026-09-02T22:12:03Z</time>
  <course>187.8</course>
  <speed>0.022360679774997897</speed>
  <fix>3d</fix>
</trkpt>
<trkpt lat="33.810313" lon="-118.393867">
  <ele>-0.12</ele>
  <time>2026-09-02T22:12:03Z</time>
  <course>0.0</course>
  <speed>0.0</speed>
  <fix>3d</fix>
</trkpt>
<trkpt lat="33.810313" lon="-118.393867">
  <ele>-0.124</ele>
  <time>2026-09-02T22:12:03Z</time>
  <course>187.8</course>
  <speed>0.022360679774997897</speed>
  <fix>3d</fix>
</trkpt>
<trkpt lat="33.810313" lon="-118.393867">
  <ele>-0.12</ele>
  <time>2026-09-02T22:12:03Z</time>
  <course>0.0</course>
  <speed>0.0</speed>
  <fix>3d</fix>
</trkpt>
<trkpt lat="33.810313" lon="-118.393867">
  <ele>-0.121</ele>
  <time>2026-09-02T22:12:03Z</time>
  <course>187.79</course>
  <speed>0.022360679774997897</speed>
  <fix>3d</fix>
</trkpt>
<trkpt lat="33.810313" lon="-118.393867">
  <ele>-0.12</ele>
  <time>2026-09-02T22:12:03Z</time>
  <course>0.0</course>
  <speed>0.0</speed>
  <fix>3d</fix>
</trkpt>
<trkpt lat="33.810313" lon="-118.393867">
  <ele>-0.119</ele>
  <time>2026-09-02T22:12:03Z</time>
  <course>187.78</course>
  <speed>0.022360679774997897</speed>
  <fix>3d</fix>
</trkpt>
<trkpt lat="33.810313" lon="-118.393867">
  <ele>-0.12</ele>
  <time>2026-09-02T22:12:03Z</time>
  <course>0.0</course>
  <speed>0.0</speed>
  <fix>3d</fix>
</trkpt>
<trkpt lat="33.810313" lon="-118.393867">
  <ele>-0.118</ele>
  <time>2026-09-02T22:12:03Z</time>
  <course>187.77</course>
  <speed>0.022360679774997897</speed>
  <fix>3d</fix>
</trkpt>
<trkpt lat="33.810313" lon="-118.393867">
  <ele>-0.12</ele>
  <time>2026-09-02T22:12:03Z</time>
  <course>0.0</course>
  <speed>0.0</speed>
  <fix>3d</fix>
</trkpt>
<trkpt lat="33.810313" lon="-118.393867">
  <ele>-0.118</ele>
  <time>2026-09-02T22:12:03Z</time>
  <course>187.76</course>
  <speed>0.022360679774997897</speed>
  <fix>3d</fix>
</trkpt>
<trkpt lat="33.810313" lon="-118.393867">
  <ele>-0.12</ele>
  <time>2026-09-02T22:12:03Z</time>
  <course>0.0</course>
  <speed>0.0</speed>
  <fix>3d</fix>
</trkpt>
<trkpt lat="33.810313" lon="-118.393867">
  <ele>-0.119</ele>
  <time>2026-09-02T22:12:03Z</time>
  <course>187.76</course>
  <speed>0.022360679774997897</speed>
  <fix>3d</fix>
</trkpt>
<trkpt lat="33.810313" lon="-118.393867">
  <ele>-0.12</ele>
  <time>2026-09-02T22:12:03Z</time>
  <course>0.0</course>
  <speed>0.0</speed>
  <fix>3d</fix>
</trkpt>
<trkpt lat="33.810313" lon="-118.393867">
  <ele>-0.12</ele>
  <time>2026-09-02T22:12:03Z</time>
  <course>187.75</course>
  <speed>0.022360679774997897</speed>
  <fix>3d</fix>
</trkpt>
<trkpt lat="33.810313" lon="-118.393867">
  <ele>-0.12</ele>
  <time>2026-09-02T22:12:03Z</time>
  <course>0.0</course>
  <speed>0.0</speed>
  <fix>3d</fix>
</trkpt>
<trkpt lat="33.810313" lon="-118.393867">
  <ele>-0.12</ele>
  <time>2026-09-02T22:12:03Z</time>
  <course>187.74</course>
  <speed>0.0282842712474619</speed>
  <fix>3d</fix>
</trkpt>
<trkpt lat="33.810313" lon="-118.393867">
  <ele>-0.12</ele>
  <time>2026-09-02T22:12:03Z</time>
  <course>0.0</course>
  <speed>0.0</speed>
  <fix>3d</fix>
</trkpt>
<trkpt lat="33.810313" lon="-118.393867">
  <ele>-0.12</ele>
  <time>2026-09-02T22:12:03Z</time>
  <course>187.74</course>
  <speed>0.0282842712474619</speed>
  <fix>3d</fix>
</trkpt>
<trkpt lat="33.810313" lon="-118.393867">
  <ele>-0.12</ele>
  <time>2026-09-02T22:12:03Z</time>
  <course>0.0</course>
  <speed>0.0</speed>
  <fix>3d</fix>
</trkpt>
<trkpt lat="33.810313" lon="-118.393867">
  <ele>-0.119</ele>
  <time>2026-09-02T22:12:03Z</time>
  <course>187.73</course>
  <speed>0.0282842712474619</speed>
  <fix>3d</fix>
</trkpt>
<trkpt lat="33.810313" lon="-118.393867">
  <ele>-0.12</ele>
  <time>2026-09-02T22:12:03Z</time>
  <course>0.0</course>
  <speed>0.0</speed>
  <fix>3d</fix>
</trkpt>
<trkpt lat="33.810313" lon="-118.393867">
  <ele>-0.118</ele>
  <time>2026-09-02T22:12:03Z</time>
  <course>187.72</course>
  <speed>0.0282842712474619</speed>
  <fix>3d</fix>
</trkpt>
<trkpt lat="33.810313" lon="-118.393867">
  <ele>-0.12</ele>
  <time>2026-09-02T22:12:03Z</time>
  <course>0.0</course>
  <speed>0.0</speed>
  <fix>3d</fix>
</trkpt>
<trkpt lat="33.810313" lon="-118.393867">
  <ele>-0.116</ele>
  <time>2026-09-02T22:12:03Z</time>
  <course>187.71</course>
  <speed>0.0282842712474619</speed>
  <fix>3d</fix>
</trkpt>
<trkpt lat="33.810313" lon="-118.393867">
  <ele>-0.12</ele>
  <time>2026-09-02T22:12:03Z</time>
  <course>0.0</course>
  <speed>0.0</speed>
  <fix>3d</fix>
</trkpt>
<trkpt lat="33.810313" lon="-118.393867">
  <ele>-0.113</ele>
  <time>2026-09-02T22:12:03Z</time>
  <course>187.71</course>
  <speed>0.0282842712474619</speed>
  <fix>3d</fix>
</trkpt>
<trkpt lat="33.810313" lon="-118.393867">
  <ele>-0.12</ele>
  <time>2026-09-02T22:12:03Z</time>
  <course>0.0</course>
  <speed>0.0</speed>
  <fix>3d</fix>
</trkpt>
<trkpt lat="33.810313" lon="-118.393867">
  <ele>-0.112</ele>
  <time>2026-09-02T22:12:03Z</time>
  <course>187.7</course>
  <speed>0.0282842712474619</speed>
  <fix>3d</fix>
</trkpt>
<trkpt lat="33.810313" lon="-118.393867">
  <ele>-0.12</ele>
  <time>2026-09-02T22:12:03Z</time>
  <course>0.0</course>
  <speed>0.0</speed>
  <fix>3d</fix>
</trkpt>
<trkpt lat="33.810313" lon="-118.393867">
  <ele>-0.113</ele>
  <time>2026-09-02T22:12:03Z</time>
  <course>187.69</course>
  <speed>0.0282842712474619</speed>
  <fix>3d</fix>
</trkpt>
<trkpt lat="33.810313" lon="-118.393867">
  <ele>-0.12</ele>
  <time>2026-09-02T22:12:03Z</time>
  <course>0.0</course>
  <speed>0.0</speed>
  <fix>3d</fix>
</trkpt>
<trkpt lat="33.810313" lon="-118.393867">
  <ele>-0.115</ele>
  <time>2026-09-02T22:12:03Z</time>
  <course>187.68</course>
  <speed>0.0282842712474619</speed>
  <fix>3d</fix>
</trkpt>
<trkpt lat="33.810313" lon="-118.393867">
  <ele>-0.12</ele>
  <time>2026-09-02T22:12:03Z</time>
  <course>0.0</course>
  <speed>0.0</speed>
  <fix>3d</fix>
</trkpt>
<trkpt lat="33.810313" lon="-118.393867">
  <ele>-0.119</ele>
  <time>2026-09-02T22:12:03Z</time>
  <course>187.68</course>
  <speed>0.0282842712474619</speed>
  <fix>3d</fix>
</trkpt>
<trkpt lat="33.810313" lon="-118.393867">
  <ele>-0.12</ele>
  <time>2026-09-02T22:12:03Z</time>
  <course>0.0</course>
  <speed>0.0</speed>
  <fix>3d</fix>
</trkpt>
<trkpt lat="33.810313" lon="-118.393867">
  <ele>-0.124</ele>
  <time>2026-09-02T22:12:03Z</time>
  <course>187.67</course>
  <speed>0.0282842712474619</speed>
  <fix>3d</fix>
</trkpt>
<trkpt lat="33.810313" lon="-118.393867">
  <ele>-0.12</ele>
  <time>2026-09-02T22:12:03Z</time>
  <course>0.0</course>
  <speed>0.0</speed>
  <fix>3d</fix>
</trkpt>
<trkpt lat="33.810313" lon="-118.393867">
  <ele>-0.129</ele>
  <time>2026-09-02T22:12:03Z</time>
  <course>187.66</course>
  <speed>0.0282842712474619</speed>
  <fix>3d</fix>
</trkpt>
<trkpt lat="33.810313" lon="-118.393867">
  <ele>-0.12</ele>
  <time>2026-09-02T22:12:03Z</time>
  <course>0.0</course>
  <speed>0.0</speed>
  <fix>3d</fix>
</trkpt>
<trkpt lat="33.810313" lon="-118.393867">
  <ele>-0.133</ele>
  <time>2026-09-02T22:12:03Z</time>
  <course>187.66</course>
  <speed>0.0282842712474619</speed>
  <fix>3d</fix>
</trkpt>
<trkpt lat="33.810313" lon="-118.393867">
  <ele>-0.12</ele>
  <time>2026-09-02T22:12:03Z</time>
  <course>0.0</course>
  <speed>0.0</speed>
  <fix>3d</fix>
</trkpt>
<trkpt lat="33.810313" lon="-118.393867">
  <ele>-0.135</ele>
  <time>2026-09-02T22:12:03Z</time>
  <course>187.65</course>
  <speed>0.0282842712474619</speed>
  <fix>3d</fix>
</trkpt>
<trkpt lat="33.810313" lon="-118.393867">
  <ele>-0.12</ele>
  <time>2026-09-02T22:12:03Z</time>
  <course>0.0</course>
  <speed>0.0</speed>
  <fix>3d</fix>
</trkpt>
<trkpt lat="33.810313" lon="-118.393867">
  <ele>-0.135</ele>
  <time>2026-09-02T22:12:03Z</time>
  <course>187.64</course>
  <speed>0.0282842712474619</speed>
  <fix>3d</fix>
</trkpt>
<trkpt lat="33.810313" lon="-118.393867">
  <ele>-0.12</ele>
  <time>2026-09-02T22:12:03Z</time>
  <course>0.0</course>
  <speed>0.0</speed>
  <fix>3d</fix>
</trkpt>
<trkpt lat="33.810313" lon="-118.393867">
  <ele>-0.135</ele>
  <time>2026-09-02T22:12:03Z</time>
  <course>187.64</course>
  <speed>0.0282842712474619</speed>
  <fix>3d</fix>
</trkpt>
<trkpt lat="33.810313" lon="-118.393867">
  <ele>-0.12</ele>
  <time>2026-09-02T22:12:03Z</time>
  <course>0.0</course>
  <speed>0.0</speed>
  <fix>3d</fix>
</trkpt>
<trkpt lat="33.810313" lon="-118.393867">
  <ele>-0.133</ele>
  <time>2026-09-02T22:12:03Z</time>
  <course>187.63</course>
  <speed>0.0282842712474619</speed>
  <fix>3d</fix>
</trkpt>
<trkpt lat="33.810313" lon="-118.393867">
  <ele>-0.12</ele>
  <time>2026-09-02T22:12:03Z</time>
  <course>0.0</course>
  <speed>0.0</speed>
  <fix>3d</fix>
</trkpt>
<trkpt lat="33.810313" lon="-118.393867">
  <ele>-0.132</ele>
  <time>2026-09-02T22:12:03Z</time>
  <course>187.63</course>
  <speed>0.03605551275463989</speed>
  <fix>3d</fix>
</trkpt>
<trkpt lat="33.810313" lon="-118.393867">
  <ele>-0.12</ele>
  <time>2026-09-02T22:12:03Z</time>
  <course>0.0</course>
  <speed>0.0</speed>
  <fix>3d</fix>
</trkpt>
<trkpt lat="33.810313" lon="-118.393867">
  <ele>-0.132</ele>
  <time>2026-09-02T22:12:03Z</time>
  <course>187.62</course>
  <speed>0.03605551275463989</speed>
  <fix>3d</fix>
</trkpt>
<trkpt lat="33.810313" lon="-118.393867">
  <ele>-0.12</ele>
  <time>2026-09-02T22:12:03Z</time>
  <course>0.0</course>
  <speed>0.0</speed>
  <fix>3d</fix>
</trkpt>
<trkpt lat="33.810313" lon="-118.393867">
  <ele>-0.133</ele>
  <time>2026-09-02T22:12:03Z</time>
  <course>187.61</course>
  <speed>0.03605551275463989</speed>
  <fix>3d</fix>
</trkpt>
<trkpt lat="33.810313" lon="-118.393867">
  <ele>-0.12</ele>
  <time>2026-09-02T22:12:03Z</time>
  <course>0.0</course>
  <speed>0.0</speed>
  <fix>3d</fix>
</trkpt>
<trkpt lat="33.810313" lon="-118.393867">
  <ele>-0.134</ele>
  <time>2026-09-02T22:12:03Z</time>
  <course>187.6</course>
  <speed>0.03605551275463989</speed>
  <fix>3d</fix>
</trkpt>
<trkpt lat="33.810313" lon="-118.393867">
  <ele>-0.12</ele>
  <time>2026-09-02T22:12:03Z</time>
  <course>0.0</course>
  <speed>0.0</speed>
  <fix>3d</fix>
</trkpt>
<trkpt lat="33.810313" lon="-118.393867">
  <ele>-0.134</ele>
  <time>2026-09-02T22:12:03Z</time>
  <course>187.6</course>
  <speed>0.03605551275463989</speed>
  <fix>3d</fix>
</trkpt>
<trkpt lat="33.810313" lon="-118.393867">
  <ele>-0.12</ele>
  <time>2026-09-02T22:12:03Z</time>
  <course>0.0</course>
  <speed>0.0</speed>
  <fix>3d</fix>
</trkpt>
<trkpt lat="33.810313" lon="-118.393867">
  <ele>-0.134</ele>
  <time>2026-09-02T22:12:03Z</time>
  <course>187.59</course>
  <speed>0.03605551275463989</speed>
  <fix>3d</fix>
</trkpt>
<trkpt lat="33.810313" lon="-118.393867">
  <ele>-0.12</ele>
  <time>2026-09-02T22:12:03Z</time>
  <course>0.0</course>
  <speed>0.0</speed>
  <fix>3d</fix>
</trkpt>
<trkpt lat="33.810313" lon="-118.393867">
  <ele>-0.132</ele>
  <time>2026-09-02T22:12:03Z</time>
  <course>187.58</course>
  <speed>0.03605551275463989</speed>
  <fix>3d</fix>
</trkpt>
<trkpt lat="33.810313" lon="-118.393867">
  <ele>-0.12</ele>
  <time>2026-09-02T22:12:03Z</time>
  <course>0.0</course>
  <speed>0.0</speed>
  <fix>3d</fix>
</trkpt>
<trkpt lat="33.810313" lon="-118.393867">
  <ele>-0.129</ele>
  <time>2026-09-02T22:12:03Z</time>
  <course>187.58</course>
  <speed>0.03605551275463989</speed>
  <fix>3d</fix>
</trkpt>
<trkpt lat="33.810313" lon="-118.393867">
  <ele>-0.12</ele>
  <time>2026-09-02T22:12:03Z</time>
  <course>0.0</course>
  <speed>0.0</speed>
  <fix>3d</fix>
</trkpt>
<trkpt lat="33.810313" lon="-118.393867">
  <ele>-0.127</ele>
  <time>2026-09-02T22:12:03Z</time>
  <course>187.57</course>
  <speed>0.03605551275463989</speed>
  <fix>3d</fix>
</trkpt>
<trkpt lat="33.810313" lon="-118.393867">
  <ele>-0.12</ele>
  <time>2026-09-02T22:12:03Z</time>
  <course>0.0</course>
  <speed>0.0</speed>
  <fix>3d</fix>
</trkpt>
<trkpt lat="33.810313" lon="-118.393867">
  <ele>-0.125</ele>
  <time>2026-09-02T22:12:03Z</time>
  <course>187.56</course>
  <speed>0.03605551275463989</speed>
  <fix>3d</fix>
</trkpt>
<trkpt lat="33.810313" lon="-118.393867">
  <ele>-0.12</ele>
  <time>2026-09-02T22:12:03Z</time>
  <course>0.0</course>
  <speed>0.0</speed>
  <fix>3d</fix>
</trkpt>
<trkpt lat="33.810313" lon="-118.393867">
  <ele>-0.122</ele>
  <time>2026-09-02T22:12:03Z</time>
  <course>187.56</course>
  <speed>0.03605551275463989</speed>
  <fix>3d</fix>
</trkpt>
<trkpt lat="33.810313" lon="-118.393867">
  <ele>-0.12</ele>
  <time>2026-09-02T22:12:03Z</time>
  <course>0.0</course>
  <speed>0.0</speed>
  <fix>3d</fix>
</trkpt>
<trkpt lat="33.810313" lon="-118.393867">
  <ele>-0.119</ele>
  <time>2026-09-02T22:12:03Z</time>
  <course>187.55</course>
  <speed>0.03605551275463989</speed>
  <fix>3d</fix>
</trkpt>
<trkpt lat="33.810313" lon="-118.393867">
  <ele>-0.12</ele>
  <time>2026-09-02T22:12:03Z</time>
  <course>0.0</course>
  <speed>0.0</speed>
  <fix>3d</fix>
</trkpt>
<trkpt lat="33.810313" lon="-118.393867">
  <ele>-0.117</ele>
  <time>2026-09-02T22:12:03Z</time>
  <course>187.54</course>
  <speed>0.03605551275463989</speed>
  <fix>3d</fix>
</trkpt>
<trkpt lat="33.810313" lon="-118.393867">
  <ele>-0.12</ele>
  <time>2026-09-02T22:12:03Z</time>
  <course>0.0</course>
  <speed>0.0</speed>
  <fix>3d</fix>
</trkpt>
<trkpt lat="33.810313" lon="-118.393867">
  <ele>-0.117</ele>
  <time>2026-09-02T22:12:03Z</time>
  <course>187.54</course>
  <speed>0.03605551275463989</speed>
  <fix>3d</fix>
</trkpt>
<trkpt lat="33.810313" lon="-118.393867">
  <ele>-0.12</ele>
  <time>2026-09-02T22:12:03Z</time>
  <course>0.0</course>
  <speed>0.0</speed>
  <fix>3d</fix>
</trkpt>
<trkpt lat="33.810313" lon="-118.393867">
  <ele>-0.118</ele>
  <time>2026-09-02T22:12:03Z</time>
  <course>187.53</course>
  <speed>0.03605551275463989</speed>
  <fix>3d</fix>
</trkpt>
<trkpt lat="33.810313" lon="-118.393867">
  <ele>-0.12</ele>
  <time>2026-09-02T22:12:03Z</time>
  <course>0.0</course>
  <speed>0.0</speed>
  <fix>3d</fix>
</trkpt>
<trkpt lat="33.810313" lon="-118.393867">
  <ele>-0.119</ele>
  <time>2026-09-02T22:12:03Z</time>
  <course>187.52</course>
  <speed>0.03605551275463989</speed>
  <fix>3d</fix>
</trkpt>
<trkpt lat="33.810313" lon="-118.393867">
  <ele>-0.12</ele>
  <time>2026-09-02T22:12:03Z</time>
  <course>0.0</course>
  <speed>0.0</speed>
  <fix>3d</fix>
</trkpt>
<trkpt lat="33.810313" lon="-118.393867">
  <ele>-0.12</ele>
  <time>2026-09-02T22:12:03Z</time>
  <course>187.52</course>
  <speed>0.03605551275463989</speed>
  <fix>3d</fix>
</trkpt>
<trkpt lat="33.810313" lon="-118.393867">
  <ele>-0.12</ele>
  <time>2026-09-02T22:12:03Z</time>
  <course>0.0</course>
  <speed>0.0</speed>
  <fix>3d</fix>
</trkpt>
<trkpt lat="33.810313" lon="-118.393867">
  <ele>-0.121</ele>
  <time>2026-09-02T22:12:03Z</time>
  <course>187.51</course>
  <speed>0.03605551275463989</speed>
  <fix>3d</fix>
</trkpt>
<trkpt lat="33.810313" lon="-118.393867">
  <ele>-0.12</ele>
  <time>2026-09-02T22:12:03Z</time>
  <course>0.0</course>
  <speed>0.0</speed>
  <fix>3d</fix>
</trkpt>
<trkpt lat="33.810313" lon="-118.393867">
  <ele>-0.121</ele>
  <time>2026-09-02T22:12:03Z</time>
  <course>187.51</course>
  <speed>0.03605551275463989</speed>
  <fix>3d</fix>
</trkpt>
<trkpt lat="33.810313" lon="-118.393867">
  <ele>-0.12</ele>
  <time>2026-09-02T22:12:03Z</time>
  <course>0.0</course>
  <speed>0.0</speed>
  <fix>3d</fix>
</trkpt>
<trkpt lat="33.810313" lon="-118.393867">
  <ele>-0.121</ele>
  <time>2026-09-02T22:12:03Z</time>
  <course>187.5</course>
  <speed>0.03605551275463989</speed>
  <fix>3d</fix>
</trkpt>
<trkpt lat="33.810313" lon="-118.393867">
  <ele>-0.12</ele>
  <time>2026-09-02T22:12:03Z</time>
  <course>0.0</course>
  <speed>0.0</speed>
  <fix>3d</fix>
</trkpt>
<trkpt lat="33.810313" lon="-118.393867">
  <ele>-0.121</ele>
  <time>2026-09-02T22:12:03Z</time>
  <course>187.49</course>
  <speed>0.03605551275463989</speed>
  <fix>3d</fix>
</trkpt>
<trkpt lat="33.810313" lon="-118.393867">
  <ele>-0.12</ele>
  <time>2026-09-02T22:12:03Z</time>
  <course>0.0</course>
  <speed>0.0</speed>
  <fix>3d</fix>
</trkpt>
<trkpt lat="33.810313" lon="-118.393867">
  <ele>-0.121</ele>
  <time>2026-09-02T22:12:03Z</time>
  <course>187.49</course>
  <speed>0.03605551275463989</speed>
  <fix>3d</fix>
</trkpt>
<trkpt lat="33.810313" lon="-118.393867">
  <ele>-0.12</ele>
  <time>2026-09-02T22:12:03Z</time>
  <course>0.0</course>
  <speed>0.0</speed>
  <fix>3d</fix>
</trkpt>
<trkpt lat="33.810313" lon="-118.393867">
  <ele>-0.121</ele>
  <time>2026-09-02T22:12:03Z</time>
  <course>187.48</course>
  <speed>0.03605551275463989</speed>
  <fix>3d</fix>
</trkpt>
<trkpt lat="33.810313" lon="-118.393867">
  <ele>-0.12</ele>
  <time>2026-09-02T22:12:03Z</time>
  <course>0.0</course>
  <speed>0.0</speed>
  <fix>3d</fix>
</trkpt>
<trkpt lat="33.810313" lon="-118.393867">
  <ele>-0.122</ele>
  <time>2026-09-02T22:12:03Z</time>
  <course>187.47</course>
  <speed>0.03605551275463989</speed>
  <fix>3d</fix>
</trkpt>
<trkpt lat="33.810313" lon="-118.393867">
  <ele>-0.12</ele>
  <time>2026-09-02T22:12:03Z</time>
  <course>0.0</course>
  <speed>0.0</speed>
  <fix>3d</fix>
</trkpt>
<trkpt lat="33.810313" lon="-118.393867">
  <ele>-0.124</ele>
  <time>2026-09-02T22:12:03Z</time>
  <course>187.47</course>
  <speed>0.03605551275463989</speed>
  <fix>3d</fix>
</trkpt>
<trkpt lat="33.810313" lon="-118.393867">
  <ele>-0.12</ele>
  <time>2026-09-02T22:12:03Z</time>
  <course>0.0</course>
  <speed>0.0</speed>
  <fix>3d</fix>
</trkpt>
<trkpt lat="33.810313" lon="-118.393867">
  <ele>-0.127</ele>
  <time>2026-09-02T22:12:03Z</time>
  <course>187.46</course>
  <speed>0.03605551275463989</speed>
  <fix>3d</fix>
</trkpt>
<trkpt lat="33.810313" lon="-118.393867">
  <ele>-0.12</ele>
  <time>2026-09-02T22:12:03Z</time>
  <course>0.0</course>
  <speed>0.0</speed>
  <fix>3d</fix>
</trkpt>
<trkpt lat="33.810313" lon="-118.393867">
  <ele>-0.129</ele>
  <time>2026-09-02T22:12:03Z</time>
  <course>187.45</course>
  <speed>0.03605551275463989</speed>
  <fix>3d</fix>
</trkpt>
<trkpt lat="33.810313" lon="-118.393867">
  <ele>-0.12</ele>
  <time>2026-09-02T22:12:03Z</time>
  <course>0.0</course>
  <speed>0.0</speed>
  <fix>3d</fix>
</trkpt>
<trkpt lat="33.810313" lon="-118.393867">
  <ele>-0.131</ele>
  <time>2026-09-02T22:12:03Z</time>
  <course>187.45</course>
  <speed>0.03605551275463989</speed>
  <fix>3d</fix>
</trkpt>
<trkpt lat="33.810313" lon="-118.393867">
  <ele>-0.12</ele>
  <time>2026-09-02T22:12:03Z</time>
  <course>0.0</course>
  <speed>0.0</speed>
  <fix>3d</fix>
</trkpt>
<trkpt lat="33.810313" lon="-118.393867">
  <ele>-0.132</ele>
  <time>2026-09-02T22:12:03Z</time>
  <course>187.44</course>
  <speed>0.03605551275463989</speed>
  <fix>3d</fix>
</trkpt>
<trkpt lat="33.810313" lon="-118.393867">
  <ele>-0.12</ele>
  <time>2026-09-02T22:12:03Z</time>
  <course>0.0</course>
  <speed>0.0</speed>
  <fix>3d</fix>
</trkpt>
<trkpt lat="33.810313" lon="-118.393867">
  <ele>-0.132</ele>
  <time>2026-09-02T22:12:03Z</time>
  <course>187.44</course>
  <speed>0.03605551275463989</speed>
  <fix>3d</fix>
</trkpt>
<trkpt lat="33.810313" lon="-118.393867">
  <ele>-0.12</ele>
  <time>2026-09-02T22:12:03Z</time>
  <course>0.0</course>
  <speed>0.0</speed>
  <fix>3d</fix>
</trkpt>
<trkpt lat="33.810313" lon="-118.393867">
  <ele>-0.132</ele>
  <time>2026-09-02T22:12:03Z</time>
  <course>187.43</course>
  <speed>0.03605551275463989</speed>
  <fix>3d</fix>
</trkpt>
<trkpt lat="33.810313" lon="-118.393867">
  <ele>-0.12</ele>
  <time>2026-09-02T22:12:03Z</time>
  <course>0.0</course>
  <speed>0.0</speed>
  <fix>3d</fix>
</trkpt>
<trkpt lat="33.810313" lon="-118.393867">
  <ele>-0.132</ele>
  <time>2026-09-02T22:12:03Z</time>
  <course>187.42</course>
  <speed>0.03605551275463989</speed>
  <fix>3d</fix>
</trkpt>
<trkpt lat="33.810313" lon="-118.393867">
  <ele>-0.12</ele>
  <time>2026-09-02T22:12:03Z</time>
  <course>0.0</course>
  <speed>0.0</speed>
  <fix>3d</fix>
</trkpt>
<trkpt lat="33.810313" lon="-118.393867">
  <ele>-0.131</ele>
  <time>2026-09-02T22:12:03Z</time>
  <course>187.42</course>
  <speed>0.03605551275463989</speed>
  <fix>3d</fix>
</trkpt>
<trkpt lat="33.810313" lon="-118.393867">
  <ele>-0.12</ele>
  <time>2026-09-02T22:12:03Z</time>
  <course>0.0</course>
  <speed>0.0</speed>
  <fix>3d</fix>
</trkpt>
<trkpt lat="33.810313" lon="-118.393867">
  <ele>-0.131</ele>
  <time>2026-09-02T22:12:03Z</time>
  <course>187.41</course>
  <speed>0.03605551275463989</speed>
  <fix>3d</fix>
</trkpt>
<trkpt lat="33.810313" lon="-118.393867">
  <ele>-0.12</ele>
  <time>2026-09-02T22:12:03Z</time>
  <course>0.0</course>
  <speed>0.0</speed>
  <fix>3d</fix>
</trkpt>
<trkpt lat="33.810313" lon="-118.393867">
  <ele>-0.132</ele>
  <time>2026-09-02T22:12:03Z</time>
  <course>187.41</course>
  <speed>0.03605551275463989</speed>
  <fix>3d</fix>
</trkpt>
<trkpt lat="33.810313" lon="-118.393867">
  <ele>-0.12</ele>
  <time>2026-09-02T22:12:03Z</time>
  <course>0.0</course>
  <speed>0.0</speed>
  <fix>3d</fix>
</trkpt>
<trkpt lat="33.810313" lon="-118.393867">
  <ele>-0.134</ele>
  <time>2026-09-02T22:12:03Z</time>
  <course>187.4</course>
  <speed>0.03605551275463989</speed>
  <fix>3d</fix>
</trkpt>
<trkpt lat="33.810313" lon="-118.393867">
  <ele>-0.12</ele>
  <time>2026-09-02T22:12:03Z</time>
  <course>0.0</course>
  <speed>0.0</speed>
  <fix>3d</fix>
</trkpt>
<trkpt lat="33.810313" lon="-118.393867">
  <ele>-0.137</ele>
  <time>2026-09-02T22:12:03Z</time>
  <course>187.39</course>
  <speed>0.03605551275463989</speed>
  <fix>3d</fix>
</trkpt>
<trkpt lat="33.810313" lon="-118.393867">
  <ele>-0.12</ele>
  <time>2026-09-02T22:12:03Z</time>
  <course>0.0</course>
  <speed>0.0</speed>
  <fix>3d</fix>
</trkpt>
<trkpt lat="33.810313" lon="-118.393867">
  <ele>-0.139</ele>
  <time>2026-09-02T22:12:03Z</time>
  <course>187.39</course>
  <speed>0.03605551275463989</speed>
  <fix>3d</fix>
</trkpt>
<trkpt lat="33.810313" lon="-118.393867">
  <ele>-0.12</ele>
  <time>2026-09-02T22:12:03Z</time>
  <course>0.0</course>
  <speed>0.0</speed>
  <fix>3d</fix>
</trkpt>
<trkpt lat="33.810313" lon="-118.393867">
  <ele>-0.141</ele>
  <time>2026-09-02T22:12:03Z</time>
  <course>187.38</course>
  <speed>0.03605551275463989</speed>
  <fix>3d</fix>
</trkpt>
<trkpt lat="33.810313" lon="-118.393867">
  <ele>-0.12</ele>
  <time>2026-09-02T22:12:03Z</time>
  <course>0.0</course>
  <speed>0.0</speed>
  <fix>3d</fix>
</trkpt>
<trkpt lat="33.810313" lon="-118.393867">
  <ele>-0.141</ele>
  <time>2026-09-02T22:12:03Z</time>
  <course>187.38</course>
  <speed>0.03605551275463989</speed>
  <fix>3d</fix>
</trkpt>
<trkpt lat="33.810313" lon="-118.393867">
  <ele>-0.12</ele>
  <time>2026-09-02T22:12:03Z</time>
  <course>0.0</course>
  <speed>0.0</speed>
  <fix>3d</fix>
</trkpt>
<trkpt lat="33.810313" lon="-118.393867">
  <ele>-0.139</ele>
  <time>2026-09-02T22:12:03Z</time>
  <course>187.37</course>
  <speed>0.03605551275463989</speed>
  <fix>3d</fix>
</trkpt>
<trkpt lat="33.810313" lon="-118.393867">
  <ele>-0.12</ele>
  <time>2026-09-02T22:12:03Z</time>
  <course>0.0</course>
  <speed>0.0</speed>
  <fix>3d</fix>
</trkpt>
<trkpt lat="33.810313" lon="-118.393867">
  <ele>-0.136</ele>
  <time>2026-09-02T22:12:03Z</time>
  <course>187.36</course>
  <speed>0.03605551275463989</speed>
  <fix>3d</fix>
</trkpt>
<trkpt lat="33.810313" lon="-118.393867">
  <ele>-0.12</ele>
  <time>2026-09-02T22:12:03Z</time>
  <course>0.0</course>
  <speed>0.0</speed>
  <fix>3d</fix>
</trkpt>
<trkpt lat="33.810313" lon="-118.393867">
  <ele>-0.132</ele>
  <time>2026-09-02T22:12:03Z</time>
  <course>187.36</course>
  <speed>0.03605551275463989</speed>
  <fix>3d</fix>
</trkpt>
<trkpt lat="33.810313" lon="-118.393867">
  <ele>-0.12</ele>
  <time>2026-09-02T22:12:03Z</time>
  <course>0.0</course>
  <speed>0.0</speed>
  <fix>3d</fix>
</trkpt>
<trkpt lat="33.810313" lon="-118.393867">
  <ele>-0.129</ele>
  <time>2026-09-02T22:12:03Z</time>
  <course>187.35</course>
  <speed>0.03605551275463989</speed>
  <fix>3d</fix>
</trkpt>
<trkpt lat="33.810313" lon="-118.393867">
  <ele>-0.12</ele>
  <time>2026-09-02T22:12:03Z</time>
  <course>0.0</course>
  <speed>0.0</speed>
  <fix>3d</fix>
</trkpt>
<trkpt lat="33.810313" lon="-118.393867">
  <ele>-0.127</ele>
  <time>2026-09-02T22:12:03Z</time>
  <course>187.35</course>
  <speed>0.03605551275463989</speed>
  <fix>3d</fix>
</trkpt>
<trkpt lat="33.810313" lon="-118.393867">
  <ele>-0.12</ele>
  <time>2026-09-02T22:12:03Z</time>
  <course>0.0</course>
  <speed>0.0</speed>
  <fix>3d</fix>
</trkpt>
<trkpt lat="33.810313" lon="-118.393867">
  <ele>-0.126</ele>
  <time>2026-09-02T22:12:03Z</time>
  <course>187.34</course>
  <speed>0.03605551275463989</speed>
  <fix>3d</fix>
</trkpt>
<trkpt lat="33.810313" lon="-118.393867">
  <ele>-0.12</ele>
  <time>2026-09-02T22:12:03Z</time>
  <course>0.0</course>
  <speed>0.0</speed>
  <fix>3d</fix>
</trkpt>
<trkpt lat="33.810313" lon="-118.393867">
  <ele>-0.126</ele>
  <time>2026-09-02T22:12:03Z</time>
  <course>187.33</course>
  <speed>0.03605551275463989</speed>
  <fix>3d</fix>
</trkpt>
<trkpt lat="33.810313" lon="-118.393867">
  <ele>-0.12</ele>
  <time>2026-09-02T22:12:03Z</time>
  <course>0.0</course>
  <speed>0.0</speed>
  <fix>3d</fix>
</trkpt>
<trkpt lat="33.810313" lon="-118.393867">
  <ele>-0.127</ele>
  <time>2026-09-02T22:12:03Z</time>
  <course>187.33</course>
  <speed>0.03605551275463989</speed>
  <fix>3d</fix>
</trkpt>
<trkpt lat="33.810313" lon="-118.393867">
  <ele>-0.12</ele>
  <time>2026-09-02T22:12:03Z</time>
  <course>0.0</course>
  <speed>0.0</speed>
  <fix>3d</fix>
</trkpt>
<trkpt lat="33.810313" lon="-118.393867">
  <ele>-0.126</ele>
  <time>2026-09-02T22:12:03Z</time>
  <course>187.32</course>
  <speed>0.03605551275463989</speed>
  <fix>3d</fix>
</trkpt>
<trkpt lat="33.810313" lon="-118.393867">
  <ele>-0.12</ele>
  <time>2026-09-02T22:12:03Z</time>
  <course>0.0</course>
  <speed>0.0</speed>
  <fix>3d</fix>
</trkpt>
<trkpt lat="33.810313" lon="-118.393867">
  <ele>-0.126</ele>
  <time>2026-09-02T22:12:03Z</time>
  <course>187.32</course>
  <speed>0.03605551275463989</speed>
  <fix>3d</fix>
</trkpt>
<trkpt lat="33.810313" lon="-118.393867">
  <ele>-0.12</ele>
  <time>2026-09-02T22:12:03Z</time>
  <course>0.0</course>
  <speed>0.0</speed>
  <fix>3d</fix>
</trkpt>
<trkpt lat="33.810313" lon="-118.393867">
  <ele>-0.125</ele>
  <time>2026-09-02T22:12:03Z</time>
  <course>187.31</course>
  <speed>0.03605551275463989</speed>
  <fix>3d</fix>
</trkpt>
<trkpt lat="33.810313" lon="-118.393867">
  <ele>-0.12</ele>
  <time>2026-09-02T22:12:03Z</time>
  <course>0.0</course>
  <speed>0.0</speed>
  <fix>3d</fix>
</trkpt>
<trkpt lat="33.810313" lon="-118.393867">
  <ele>-0.124</ele>
  <time>2026-09-02T22:12:03Z</time>
  <course>187.31</course>
  <speed>0.03605551275463989</speed>
  <fix>3d</fix>
</trkpt>
<trkpt lat="33.810313" lon="-118.393867">
  <ele>-0.12</ele>
  <time>2026-09-02T22:12:03Z</time>
  <course>0.0</course>
  <speed>0.0</speed>
  <fix>3d</fix>
</trkpt>
<trkpt lat="33.810313" lon="-118.393867">
  <ele>-0.122</ele>
  <time>2026-09-02T22:12:03Z</time>
  <course>187.3</course>
  <speed>0.03605551275463989</speed>
  <fix>3d</fix>
</trkpt>
<trkpt lat="33.810313" lon="-118.393867">
  <ele>-0.12</ele>
  <time>2026-09-02T22:12:03Z</time>
  <course>0.0</course>
  <speed>0.0</speed>
  <fix>3d</fix>
</trkpt>
<trkpt lat="33.810313" lon="-118.393867">
  <ele>-0.121</ele>
  <time>2026-09-02T22:12:03Z</time>
  <course>187.29</course>
  <speed>0.03605551275463989</speed>
  <fix>3d</fix>
</trkpt>
<trkpt lat="33.810313" lon="-118.393867">
  <ele>-0.12</ele>
  <time>2026-09-02T22:12:03Z</time>
  <course>0.0</course>
  <speed>0.0</speed>
  <fix>3d</fix>
</trkpt>
<trkpt lat="33.810313" lon="-118.393867">
  <ele>-0.122</ele>
  <time>2026-09-02T22:12:03Z</time>
  <course>187.29</course>
  <speed>0.03605551275463989</speed>
  <fix>3d</fix>
</trkpt>
<trkpt lat="33.810313" lon="-118.393867">
  <ele>-0.12</ele>
  <time>2026-09-02T22:12:03Z</time>
  <course>0.0</course>
  <speed>0.0</speed>
  <fix>3d</fix>
</trkpt>
<trkpt lat="33.810313" lon="-118.393867">
  <ele>-0.124</ele>
  <time>2026-09-02T22:12:03Z</time>
  <course>187.28</course>
  <speed>0.03605551275463989</speed>
  <fix>3d</fix>
</trkpt>
<trkpt lat="33.810313" lon="-118.393867">
  <ele>-0.12</ele>
  <time>2026-09-02T22:12:03Z</time>
  <course>0.0</course>
  <speed>0.0</speed>
  <fix>3d</fix>
</trkpt>
<trkpt lat="33.810313" lon="-118.393867">
  <ele>-0.128</ele>
  <time>2026-09-02T22:12:03Z</time>
  <course>187.28</course>
  <speed>0.03605551275463989</speed>
  <fix>3d</fix>
</trkpt>
<trkpt lat="33.810313" lon="-118.393867">
  <ele>-0.12</ele>
  <time>2026-09-02T22:12:03Z</time>
  <course>0.0</course>
  <speed>0.0</speed>
  <fix>3d</fix>
</trkpt>
<trkpt lat="33.810313" lon="-118.393867">
  <ele>-0.13</ele>
  <time>2026-09-02T22:12:03Z</time>
  <course>187.27</course>
  <speed>0.03605551275463989</speed>
  <fix>3d</fix>
</trkpt>
<trkpt lat="33.810313" lon="-118.393867">
  <ele>-0.12</ele>
  <time>2026-09-02T22:12:03Z</time>
  <course>0.0</course>
  <speed>0.0</speed>
  <fix>3d</fix>
</trkpt>
<trkpt lat="33.810313" lon="-118.393867">
  <ele>-0.133</ele>
  <time>2026-09-02T22:12:03Z</time>
  <course>187.27</course>
  <speed>0.03605551275463989</speed>
  <fix>3d</fix>
</trkpt>
<trkpt lat="33.810313" lon="-118.393867">
  <ele>-0.12</ele>
  <time>2026-09-02T22:12:03Z</time>
  <course>0.0</course>
  <speed>0.0</speed>
  <fix>3d</fix>
</trkpt>
<trkpt lat="33.810313" lon="-118.393867">
  <ele>-0.135</ele>
  <time>2026-09-02T22:12:03Z</time>
  <course>187.26</course>
  <speed>0.03605551275463989</speed>
  <fix>3d</fix>
</trkpt>
<trkpt lat="33.810313" lon="-118.393867">
  <ele>-0.12</ele>
  <time>2026-09-02T22:12:03Z</time>
  <course>0.0</course>
  <speed>0.0</speed>
  <fix>3d</fix>
</trkpt>
<trkpt lat="33.810313" lon="-118.393867">
  <ele>-0.136</ele>
  <time>2026-09-02T22:12:03Z</time>
  <course>187.26</course>
  <speed>0.03605551275463989</speed>
  <fix>3d</fix>
</trkpt>
<trkpt lat="33.810313" lon="-118.393867">
  <ele>-0.12</ele>
  <time>2026-09-02T22:12:03Z</time>
  <course>0.0</course>
  <speed>0.0</speed>
  <fix>3d</fix>
</trkpt>
<trkpt lat="33.810313" lon="-118.393867">
  <ele>-0.136</ele>
  <time>2026-09-02T22:12:03Z</time>
  <course>187.25</course>
  <speed>0.03605551275463989</speed>
  <fix>3d</fix>
</trkpt>
<trkpt lat="33.810313" lon="-118.393867">
  <ele>-0.12</ele>
  <time>2026-09-02T22:12:03Z</time>
  <course>0.0</course>
  <speed>0.0</speed>
  <fix>3d</fix>
</trkpt>
<trkpt lat="33.810313" lon="-118.393867">
  <ele>-0.135</ele>
  <time>2026-09-02T22:12:03Z</time>
  <course>187.25</course>
  <speed>0.03605551275463989</speed>
  <fix>3d</fix>
</trkpt>
<trkpt lat="33.810313" lon="-118.393867">
  <ele>-0.12</ele>
  <time>2026-09-02T22:12:03Z</time>
  <course>0.0</course>
  <speed>0.0</speed>
  <fix>3d</fix>
</trkpt>
<trkpt lat="33.810313" lon="-118.393867">
  <ele>-0.134</ele>
  <time>2026-09-02T22:12:03Z</time>
  <course>187.24</course>
  <speed>0.03605551275463989</speed>
  <fix>3d</fix>
</trkpt>
<trkpt lat="33.810313" lon="-118.393867">
  <ele>-0.12</ele>
  <time>2026-09-02T22:12:03Z</time>
  <course>0.0</course>
  <speed>0.0</speed>
  <fix>3d</fix>
</trkpt>
<trkpt lat="33.810313" lon="-118.393867">
  <ele>-0.132</ele>
  <time>2026-09-02T22:12:03Z</time>
  <course>187.24</course>
  <speed>0.03605551275463989</speed>
  <fix>3d</fix>
</trkpt>
<trkpt lat="33.810313" lon="-118.393867">
  <ele>-0.12</ele>
  <time>2026-09-02T22:12:03Z</time>
  <course>0.0</course>
  <speed>0.0</speed>
  <fix>3d</fix>
</trkpt>
<trkpt lat="33.810313" lon="-118.393867">
  <ele>-0.131</ele>
  <time>2026-09-02T22:12:03Z</time>
  <course>187.23</course>
  <speed>0.03605551275463989</speed>
  <fix>3d</fix>
</trkpt>
<trkpt lat="33.810313" lon="-118.393867">
  <ele>-0.12</ele>
  <time>2026-09-02T22:12:03Z</time>
  <course>0.0</course>
  <speed>0.0</speed>
  <fix>3d</fix>
</trkpt>
<trkpt lat="33.810313" lon="-118.393867">
  <ele>-0.131</ele>
  <time>2026-09-02T22:12:03Z</time>
  <course>187.22</course>
  <speed>0.03605551275463989</speed>
  <fix>3d</fix>
</trkpt>
<trkpt lat="33.810313" lon="-118.393867">
  <ele>-0.12</ele>
  <time>2026-09-02T22:12:03Z</time>
  <course>0.0</course>
  <speed>0.0</speed>
  <fix>3d</fix>
</trkpt>
<trkpt lat="33.810313" lon="-118.393867">
  <ele>-0.132</ele>
  <time>2026-09-02T22:12:03Z</time>
  <course>187.22</course>
  <speed>0.03605551275463989</speed>
  <fix>3d</fix>
</trkpt>
<trkpt lat="33.810313" lon="-118.393867">
  <ele>-0.12</ele>
  <time>2026-09-02T22:12:03Z</time>
  <course>0.0</course>
  <speed>0.0</speed>
  <fix>3d</fix>
</trkpt>
<trkpt lat="33.810313" lon="-118.393867">
  <ele>-0.132</ele>
  <time>2026-09-02T22:12:03Z</time>
  <course>187.21</course>
  <speed>0.03605551275463989</speed>
  <fix>3d</fix>
</trkpt>
<trkpt lat="33.810313" lon="-118.393867">
  <ele>-0.12</ele>
  <time>2026-09-02T22:12:03Z</time>
  <course>0.0</course>
  <speed>0.0</speed>
  <fix>3d</fix>
</trkpt>
<trkpt lat="33.810313" lon="-118.393867">
  <ele>-0.133</ele>
  <time>2026-09-02T22:12:03Z</time>
  <course>187.21</course>
  <speed>0.03605551275463989</speed>
  <fix>3d</fix>
</trkpt>
<trkpt lat="33.810313" lon="-118.393867">
  <ele>-0.12</ele>
  <time>2026-09-02T22:12:03Z</time>
  <course>0.0</course>
  <speed>0.0</speed>
  <fix>3d</fix>
</trkpt>
<trkpt lat="33.810313" lon="-118.393867">
  <ele>-0.132</ele>
  <time>2026-09-02T22:12:03Z</time>
  <course>187.2</course>
  <speed>0.03605551275463989</speed>
  <fix>3d</fix>
</trkpt>
<trkpt lat="33.810313" lon="-118.393867">
  <ele>-0.12</ele>
  <time>2026-09-02T22:12:03Z</time>
  <course>0.0</course>
  <speed>0.0</speed>
  <fix>3d</fix>
</trkpt>
<trkpt lat="33.810313" lon="-118.393867">
  <ele>-0.131</ele>
  <time>2026-09-02T22:12:03Z</time>
  <course>187.2</course>
  <speed>0.03605551275463989</speed>
  <fix>3d</fix>
</trkpt>
<trkpt lat="33.810313" lon="-118.393867">
  <ele>-0.12</ele>
  <time>2026-09-02T22:12:03Z</time>
  <course>0.0</course>
  <speed>0.0</speed>
  <fix>3d</fix>
</trkpt>
<trkpt lat="33.810313" lon="-118.393867">
  <ele>-0.129</ele>
  <time>2026-09-02T22:12:03Z</time>
  <course>187.19</course>
  <speed>0.03605551275463989</speed>
  <fix>3d</fix>
</trkpt>
<trkpt lat="33.810313" lon="-118.393867">
  <ele>-0.12</ele>
  <time>2026-09-02T22:12:03Z</time>
  <course>0.0</course>
  <speed>0.0</speed>
  <fix>3d</fix>
</trkpt>
<trkpt lat="33.810313" lon="-118.393867">
  <ele>-0.126</ele>
  <time>2026-09-02T22:12:03Z</time>
  <course>187.19</course>
  <speed>0.03605551275463989</speed>
  <fix>3d</fix>
</trkpt>
<trkpt lat="33.810313" lon="-118.393867">
  <ele>-0.12</ele>
  <time>2026-09-02T22:12:03Z</time>
  <course>0.0</course>
  <speed>0.0</speed>
  <fix>3d</fix>
</trkpt>
<trkpt lat="33.810313" lon="-118.393867">
  <ele>-0.124</ele>
  <time>2026-09-02T22:12:03Z</time>
  <course>187.18</course>
  <speed>0.03605551275463989</speed>
  <fix>3d</fix>
</trkpt>
<trkpt lat="33.810313" lon="-118.393867">
  <ele>-0.12</ele>
  <time>2026-09-02T22:12:03Z</time>
  <course>0.0</course>
  <speed>0.0</speed>
  <fix>3d</fix>
</trkpt>
<trkpt lat="33.810313" lon="-118.393867">
  <ele>-0.123</ele>
  <time>2026-09-02T22:12:03Z</time>
  <course>187.18</course>
  <speed>0.03605551275463989</speed>
  <fix>3d</fix>
</trkpt>
<trkpt lat="33.810313" lon="-118.393867">
  <ele>-0.12</ele>
  <time>2026-09-02T22:12:03Z</time>
  <course>0.0</course>
  <speed>0.0</speed>
  <fix>3d</fix>
</trkpt>
<trkpt lat="33.810313" lon="-118.393867">
  <ele>-0.123</ele>
  <time>2026-09-02T22:12:03Z</time>
  <course>187.17</course>
  <speed>0.03605551275463989</speed>
  <fix>3d</fix>
</trkpt>
<trkpt lat="33.810313" lon="-118.393867">
  <ele>-0.12</ele>
  <time>2026-09-02T22:12:03Z</time>
  <course>0.0</course>
  <speed>0.0</speed>
  <fix>3d</fix>
</trkpt>
<trkpt lat="33.810313" lon="-118.393867">
  <ele>-0.122</ele>
  <time>2026-09-02T22:12:03Z</time>
  <course>187.17</course>
  <speed>0.0</speed>
  <fix>3d</fix>
</trkpt>
<trkpt lat="33.810313" lon="-118.393867">
  <ele>-0.12</ele>
  <time>2026-09-02T22:12:03Z</time>
  <course>0.0</course>
  <speed>0.0</speed>
  <fix>3d</fix>
</trkpt>
<trkpt lat="33.810313" lon="-118.393867">
  <ele>-0.121</ele>
  <time>2026-09-02T22:12:03Z</time>
  <course>187.16</course>
  <speed>0.0</speed>
  <fix>3d</fix>
</trkpt>
<trkpt lat="33.810313" lon="-118.393867">
  <ele>-0.12</ele>
  <time>2026-09-02T22:12:03Z</time>
  <course>0.0</course>
  <speed>0.0</speed>
  <fix>3d</fix>
</trkpt>
<trkpt lat="33.810313" lon="-118.393867">
  <ele>-0.12</ele>
  <time>2026-09-02T22:12:03Z</time>
  <course>187.16</course>
  <speed>0.0</speed>
  <fix>3d</fix>
</trkpt>
<trkpt lat="33.810313" lon="-118.393867">
  <ele>-0.12</ele>
  <time>2026-09-02T22:12:03Z</time>
  <course>0.0</course>
  <speed>0.0</speed>
  <fix>3d</fix>
</trkpt>
<trkpt lat="33.810313" lon="-118.393867">
  <ele>-0.119</ele>
  <time>2026-09-02T22:12:03Z</time>
  <course>187.15</course>
  <speed>0.0</speed>
  <fix>3d</fix>
</trkpt>
<trkpt lat="33.810313" lon="-118.393867">
  <ele>-0.12</ele>
  <time>2026-09-02T22:12:03Z</time>
  <course>0.0</course>
  <speed>0.0</speed>
  <fix>3d</fix>
</trkpt>
<trkpt lat="33.810313" lon="-118.393867">
  <ele>-0.116</ele>
  <time>2026-09-02T22:12:03Z</time>
  <course>187.15</course>
  <speed>0.0</speed>
  <fix>3d</fix>
</trkpt>
<trkpt lat="33.810313" lon="-118.393867">
  <ele>-0.12</ele>
  <time>2026-09-02T22:12:03Z</time>
  <course>0.0</course>
  <speed>0.0</speed>
  <fix>3d</fix>
</trkpt>
<trkpt lat="33.810313" lon="-118.393867">
  <ele>-0.114</ele>
  <time>2026-09-02T22:12:03Z</time>
  <course>187.14</course>
  <speed>0.0</speed>
  <fix>3d</fix>
</trkpt>
<trkpt lat="33.810313" lon="-118.393867">
  <ele>-0.12</ele>
  <time>2026-09-02T22:12:03Z</time>
  <course>0.0</course>
  <speed>0.0</speed>
  <fix>3d</fix>
</trkpt>
<trkpt lat="33.810313" lon="-118.393867">
  <ele>-0.113</ele>
  <time>2026-09-02T22:12:03Z</time>
  <course>187.14</course>
  <speed>0.0</speed>
  <fix>3d</fix>
</trkpt>
<trkpt lat="33.810313" lon="-118.393867">
  <ele>-0.12</ele>
  <time>2026-09-02T22:12:03Z</time>
  <course>0.0</course>
  <speed>0.0</speed>
  <fix>3d</fix>
</trkpt>
<trkpt lat="33.810313" lon="-118.393867">
  <ele>-0.112</ele>
  <time>2026-09-02T22:12:03Z</time>
  <course>187.13</course>
  <speed>0.0</speed>
  <fix>3d</fix>
</trkpt>
<trkpt lat="33.810313" lon="-118.393867">
  <ele>-0.12</ele>
  <time>2026-09-02T22:12:03Z</time>
  <course>0.0</course>
  <speed>0.0</speed>
  <fix>3d</fix>
</trkpt>
<trkpt lat="33.810313" lon="-118.393867">
  <ele>-0.113</ele>
  <time>2026-09-02T22:12:03Z</time>
  <course>187.13</course>
  <speed>0.0</speed>
  <fix>3d</fix>
</trkpt>
<trkpt lat="33.810313" lon="-118.393867">
  <ele>-0.12</ele>
  <time>2026-09-02T22:12:03Z</time>
  <course>0.0</course>
  <speed>0.0</speed>
  <fix>3d</fix>
</trkpt>
<trkpt lat="33.810313" lon="-118.393867">
  <ele>-0.114</ele>
  <time>2026-09-02T22:12:03Z</time>
  <course>187.12</course>
  <speed>0.0</speed>
  <fix>3d</fix>
</trkpt>
<trkpt lat="33.810313" lon="-118.393867">
  <ele>-0.12</ele>
  <time>2026-09-02T22:12:03Z</time>
  <course>0.0</course>
  <speed>0.0</speed>
  <fix>3d</fix>
</trkpt>
<trkpt lat="33.810313" lon="-118.393867">
  <ele>-0.117</ele>
  <time>2026-09-02T22:12:03Z</time>
  <course>187.12</course>
  <speed>0.0</speed>
  <fix>3d</fix>
</trkpt>
<trkpt lat="33.810313" lon="-118.393867">
  <ele>-0.12</ele>
  <time>2026-09-02T22:12:03Z</time>
  <course>0.0</course>
  <speed>0.0</speed>
  <fix>3d</fix>
</trkpt>
<trkpt lat="33.810313" lon="-118.393867">
  <ele>-0.119</ele>
  <time>2026-09-02T22:12:03Z</time>
  <course>187.11</course>
  <speed>0.01</speed>
  <fix>3d</fix>
</trkpt>
<trkpt lat="33.810313" lon="-118.393867">
  <ele>-0.12</ele>
  <time>2026-09-02T22:12:03Z</time>
  <course>0.0</course>
  <speed>0.0</speed>
  <fix>3d</fix>
</trkpt>
<trkpt lat="33.810313" lon="-118.393867">
  <ele>-0.12</ele>
  <time>2026-09-02T22:12:03Z</time>
  <course>187.11</course>
  <speed>0.01</speed>
  <fix>3d</fix>
</trkpt>
<trkpt lat="33.810313" lon="-118.393867">
  <ele>-0.12</ele>
  <time>2026-09-02T22:12:03Z</time>
  <course>0.0</course>
  <speed>0.0</speed>
  <fix>3d</fix>
</trkpt>
<trkpt lat="33.810313" lon="-118.393867">
  <ele>-0.121</ele>
  <time>2026-09-02T22:12:03Z</time>
  <course>187.1</course>
  <speed>0.01</speed>
  <fix>3d</fix>
</trkpt>
<trkpt lat="33.810313" lon="-118.393867">
  <ele>-0.12</ele>
  <time>2026-09-02T22:12:03Z</time>
  <course>0.0</course>
  <speed>0.0</speed>
  <fix>3d</fix>
</trkpt>
<trkpt lat="33.810313" lon="-118.393867">
  <ele>-0.122</ele>
  <time>2026-09-02T22:12:03Z</time>
  <course>187.1</course>
  <speed>0.01414213562373095</speed>
  <fix>3d</fix>
</trkpt>
<trkpt lat="33.810313" lon="-118.393867">
  <ele>-0.12</ele>
  <time>2026-09-02T22:12:03Z</time>
  <course>0.0</course>
  <speed>0.0</speed>
  <fix>3d</fix>
</trkpt>
<trkpt lat="33.810313" lon="-118.393867">
  <ele>-0.122</ele>
  <time>2026-09-02T22:12:03Z</time>
  <course>187.09</course>
  <speed>0.01414213562373095</speed>
  <fix>3d</fix>
</trkpt>
<trkpt lat="33.810313" lon="-118.393867">
  <ele>-0.12</ele>
  <time>2026-09-02T22:12:03Z</time>
  <course>0.0</course>
  <speed>0.0</speed>
  <fix>3d</fix>
</trkpt>
<trkpt lat="33.810313" lon="-118.393867">
  <ele>-0.129</ele>
  <time>2026-09-02T22:12:04Z</time>
  <course>187.09</course>
  <speed>0.01414213562373095</speed>
  <fix>3d</fix>
</trkpt>
<trkpt lat="33.810313" lon="-118.393867">
  <ele>-0.12</ele>
  <time>2026-09-02T22:12:04Z</time>
  <course>0.0</course>
  <speed>0.0</speed>
  <fix>3d</fix>
</trkpt>
<trkpt lat="33.810313" lon="-118.393867">
  <ele>-0.157</ele>
  <time>2026-09-02T22:12:04Z</time>
  <course>187.08</course>
  <speed>0.01414213562373095</speed>
  <fix>3d</fix>
</trkpt>
<trkpt lat="33.810313" lon="-118.393867">
  <ele>-0.12</ele>
  <time>2026-09-02T22:12:04Z</time>
  <course>0.0</course>
  <speed>0.0</speed>
  <fix>3d</fix>
</trkpt>
<trkpt lat="33.810313" lon="-118.393867">
  <ele>-0.201</ele>
  <time>2026-09-02T22:12:04Z</time>
  <course>187.08</course>
  <speed>0.01414213562373095</speed>
  <fix>3d</fix>
</trkpt>
<trkpt lat="33.810313" lon="-118.393867">
  <ele>-0.14</ele>
  <time>2026-09-02T22:12:04Z</time>
  <course>0.0</course>
  <speed>0.0</speed>
  <fix>3d</fix>
</trkpt>
<trkpt lat="33.810313" lon="-118.393867">
  <ele>-0.256</ele>
  <time>2026-09-02T22:12:04Z</time>
  <course>187.07</course>
  <speed>0.01414213562373095</speed>
  <fix>3d</fix>
</trkpt>
<trkpt lat="33.810313" lon="-118.393867">
  <ele>-0.14</ele>
  <time>2026-09-02T22:12:04Z</time>
  <course>0.0</course>
  <speed>0.0</speed>
  <fix>3d</fix>
</trkpt>
<trkpt lat="33.810313" lon="-118.393867">
  <ele>-0.316</ele>
  <time>2026-09-02T22:12:04Z</time>
  <course>187.07</course>
  <speed>0.01414213562373095</speed>
  <fix>3d</fix>
</trkpt>
<trkpt lat="33.810313" lon="-118.393867">
  <ele>-0.21</ele>
  <time>2026-09-02T22:12:04Z</time>
  <course>0.0</course>
  <speed>0.0</speed>
  <fix>3d</fix>
</trkpt>
<trkpt lat="33.810313" lon="-118.393867">
  <ele>-0.381</ele>
  <time>2026-09-02T22:12:04Z</time>
  <course>187.06</course>
  <speed>0.01414213562373095</speed>
  <fix>3d</fix>
</trkpt>
<trkpt lat="33.810313" lon="-118.393867">
  <ele>-0.21</ele>
  <time>2026-09-02T22:12:04Z</time>
  <course>0.0</course>
  <speed>0.0</speed>
  <fix>3d</fix>
</trkpt>
<trkpt lat="33.810313" lon="-118.393867">
  <ele>-0.446</ele>
  <time>2026-09-02T22:12:04Z</time>
  <course>187.06</course>
  <speed>0.01414213562373095</speed>
  <fix>3d</fix>
</trkpt>
<trkpt lat="33.810313" lon="-118.393867">
  <ele>-0.31</ele>
  <time>2026-09-02T22:12:04Z</time>
  <course>0.0</course>
  <speed>0.0</speed>
  <fix>3d</fix>
</trkpt>
<trkpt lat="33.810313" lon="-118.393867">
  <ele>-0.513</ele>
  <time>2026-09-02T22:12:04Z</time>
  <course>187.06</course>
  <speed>0.01414213562373095</speed>
  <fix>3d</fix>
</trkpt>
<trkpt lat="33.810313" lon="-118.393867">
  <ele>-0.31</ele>
  <time>2026-09-02T22:12:04Z</time>
  <course>0.0</course>
  <speed>0.0</speed>
  <fix>3d</fix>
</trkpt>
<trkpt lat="33.810313" lon="-118.393867">
  <ele>-0.579</ele>
  <time>2026-09-02T22:12:04Z</time>
  <course>187.05</course>
  <speed>0.01414213562373095</speed>
  <fix>3d</fix>
</trkpt>
<trkpt lat="33.810313" lon="-118.393867">
  <ele>-0.43</ele>
  <time>2026-09-02T22:12:04Z</time>
  <course>0.0</course>
  <speed>0.0</speed>
  <fix>3d</fix>
</trkpt>
<trkpt lat="33.810313" lon="-118.393867">
  <ele>-0.645</ele>
  <time>2026-09-02T22:12:04Z</time>
  <course>187.05</course>
  <speed>0.01414213562373095</speed>
  <fix>3d</fix>
</trkpt>
<trkpt lat="33.810313" lon="-118.393867">
  <ele>-0.43</ele>
  <time>2026-09-02T22:12:04Z</time>
  <course>0.0</course>
  <speed>0.0</speed>
  <fix>3d</fix>
</trkpt>
<trkpt lat="33.810313" lon="-118.393867">
  <ele>-0.71</ele>
  <time>2026-09-02T22:12:04Z</time>
  <course>187.04</course>
  <speed>0.01414213562373095</speed>
  <fix>3d</fix>
</trkpt>
<trkpt lat="33.810313" lon="-118.393867">
  <ele>-0.55</ele>
  <time>2026-09-02T22:12:04Z</time>
  <course>0.0</course>
  <speed>0.0</speed>
  <fix>3d</fix>
</trkpt>
<trkpt lat="33.810313" lon="-118.393867">
  <ele>-0.775</ele>
  <time>2026-09-02T22:12:04Z</time>
  <course>184.84</course>
  <speed>0.01414213562373095</speed>
  <fix>3d</fix>
</trkpt>
<trkpt lat="33.810313" lon="-118.393867">
  <ele>-0.55</ele>
  <time>2026-09-02T22:12:04Z</time>
  <course>0.0</course>
  <speed>0.0</speed>
  <fix>3d</fix>
</trkpt>
<trkpt lat="33.810313" lon="-118.393867">
  <ele>-0.839</ele>
  <time>2026-09-02T22:12:04Z</time>
  <course>184.83</course>
  <speed>0.01414213562373095</speed>
  <fix>3d</fix>
</trkpt>
<trkpt lat="33.810313" lon="-118.393867">
  <ele>-0.67</ele>
  <time>2026-09-02T22:12:04Z</time>
  <course>0.0</course>
  <speed>0.0</speed>
  <fix>3d</fix>
</trkpt>
<trkpt lat="33.810313" lon="-118.393867">
  <ele>-0.903</ele>
  <time>2026-09-02T22:12:04Z</time>
  <course>184.83</course>
  <speed>0.01414213562373095</speed>
  <fix>3d</fix>
</trkpt>
<trkpt lat="33.810313" lon="-118.393867">
  <ele>-0.67</ele>
  <time>2026-09-02T22:12:04Z</time>
  <course>0.0</course>
  <speed>0.0</speed>
  <fix>3d</fix>
</trkpt>
<trkpt lat="33.810313" lon="-118.393867">
  <ele>-0.966</ele>
  <time>2026-09-02T22:12:04Z</time>
  <course>184.83</course>
  <speed>0.01</speed>
  <fix>3d</fix>
</trkpt>
<trkpt lat="33.810313" lon="-118.393867">
  <ele>-0.79</ele>
  <time>2026-09-02T22:12:04Z</time>
  <course>0.0</course>
  <speed>0.0</speed>
  <fix>3d</fix>
</trkpt>
<trkpt lat="33.810313" lon="-118.393867">
  <ele>-1.03</ele>
  <time>2026-09-02T22:12:04Z</time>
  <course>184.83</course>
  <speed>0.01</speed>
  <fix>3d</fix>
</trkpt>
<trkpt lat="33.810313" lon="-118.393867">
  <ele>-0.79</ele>
  <time>2026-09-02T22:12:04Z</time>
  <course>0.0</course>
  <speed>0.0</speed>
  <fix>3d</fix>
</trkpt>
<trkpt lat="33.810313" lon="-118.393867">
  <ele>-1.094</ele>
  <time>2026-09-02T22:12:04Z</time>
  <course>184.82</course>
  <speed>0.01</speed>
  <fix>3d</fix>
</trkpt>
<trkpt lat="33.810313" lon="-118.393867">
  <ele>-0.91</ele>
  <time>2026-09-02T22:12:04Z</time>
  <course>0.0</course>
  <speed>0.0</speed>
  <fix>3d</fix>
</trkpt>
<trkpt lat="33.810313" lon="-118.393867">
  <ele>-1.158</ele>
  <time>2026-09-02T22:12:04Z</time>
  <course>184.82</course>
  <speed>0.01</speed>
  <fix>3d</fix>
</trkpt>
<trkpt lat="33.810313" lon="-118.393867">
  <ele>-0.91</ele>
  <time>2026-09-02T22:12:04Z</time>
  <course>0.0</course>
  <speed>0.0</speed>
  <fix>3d</fix>
</trkpt>
<trkpt lat="33.810313" lon="-118.393867">
  <ele>-1.221</ele>
  <time>2026-09-02T22:12:04Z</time>
  <course>184.82</course>
  <speed>0.01</speed>
  <fix>3d</fix>
</trkpt>
<trkpt lat="33.810313" lon="-118.393867">
  <ele>-1.03</ele>
  <time>2026-09-02T22:12:04Z</time>
  <course>0.0</course>
  <speed>0.0</speed>
  <fix>3d</fix>
</trkpt>
<trkpt lat="33.810313" lon="-118.393867">
  <ele>-1.284</ele>
  <time>2026-09-02T22:12:04Z</time>
  <course>184.81</course>
  <speed>0.0</speed>
  <fix>3d</fix>
</trkpt>
<trkpt lat="33.810313" lon="-118.393867">
  <ele>-1.03</ele>
  <time>2026-09-02T22:12:04Z</time>
  <course>0.0</course>
  <speed>0.0</speed>
  <fix>3d</fix>
</trkpt>
<trkpt lat="33.810313" lon="-118.393867">
  <ele>-1.347</ele>
  <time>2026-09-02T22:12:04Z</time>
  <course>184.81</course>
  <speed>0.0</speed>
  <fix>3d</fix>
</trkpt>
<trkpt lat="33.810313" lon="-118.393867">
  <ele>-1.15</ele>
  <time>2026-09-02T22:12:04Z</time>
  <course>0.0</course>
  <speed>0.0</speed>
  <fix>3d</fix>
</trkpt>
<trkpt lat="33.810313" lon="-118.393867">
  <ele>-1.408</ele>
  <time>2026-09-02T22:12:04Z</time>
  <course>184.81</course>
  <speed>0.0</speed>
  <fix>3d</fix>
</trkpt>
<trkpt lat="33.810313" lon="-118.393867">
  <ele>-1.15</ele>
  <time>2026-09-02T22:12:04Z</time>
  <course>0.0</course>
  <speed>0.0</speed>
  <fix>3d</fix>
</trkpt>
<trkpt lat="33.810313" lon="-118.393867">
  <ele>-1.47</ele>
  <time>2026-09-02T22:12:04Z</time>
  <course>184.81</course>
  <speed>0.0</speed>
  <fix>3d</fix>
</trkpt>
<trkpt lat="33.810313" lon="-118.393867">
  <ele>-1.27</ele>
  <time>2026-09-02T22:12:04Z</time>
  <course>0.0</course>
  <speed>0.0</speed>
  <fix>3d</fix>
</trkpt>
<trkpt lat="33.810313" lon="-118.393867">
  <ele>-1.532</ele>
  <time>2026-09-02T22:12:04Z</time>
  <course>184.8</course>
  <speed>0.0</speed>
  <fix>3d</fix>
</trkpt>
<trkpt lat="33.810313" lon="-118.393867">
  <ele>-1.27</ele>
  <time>2026-09-02T22:12:04Z</time>
  <course>0.0</course>
  <speed>0.0</speed>
  <fix>3d</fix>
</trkpt>
<trkpt lat="33.810313" lon="-118.393867">
  <ele>-1.593</ele>
  <time>2026-09-02T22:12:04Z</time>
  <course>184.8</course>
  <speed>0.0</speed>
  <fix>3d</fix>
</trkpt>
<trkpt lat="33.810313" lon="-118.393867">
  <ele>-1.4</ele>
  <time>2026-09-02T22:12:04Z</time>
  <course>0.0</course>
  <speed>0.0</speed>
  <fix>3d</fix>
</trkpt>
<trkpt lat="33.810313" lon="-118.393867">
  <ele>-1.655</ele>
  <time>2026-09-02T22:12:04Z</time>
  <course>184.8</course>
  <speed>0.0</speed>
  <fix>3d</fix>
</trkpt>
<trkpt lat="33.810313" lon="-118.393867">
  <ele>-1.4</ele>
  <time>2026-09-02T22:12:04Z</time>
  <course>0.0</course>
  <speed>0.0</speed>
  <fix>3d</fix>
</trkpt>
<trkpt lat="33.810313" lon="-118.393867">
  <ele>-1.717</ele>
  <time>2026-09-02T22:12:04Z</time>
  <course>184.79</course>
  <speed>0.0</speed>
  <fix>3d</fix>
</trkpt>
<trkpt lat="33.810313" lon="-118.393867">
  <ele>-1.52</ele>
  <time>2026-09-02T22:12:04Z</time>
  <course>0.0</course>
  <speed>0.0</speed>
  <fix>3d</fix>
</trkpt>
<trkpt lat="33.810313" lon="-118.393867">
  <ele>-1.778</ele>
  <time>2026-09-02T22:12:04Z</time>
  <course>184.79</course>
  <speed>0.0</speed>
  <fix>3d</fix>
</trkpt>
<trkpt lat="33.810313" lon="-118.393867">
  <ele>-1.52</ele>
  <time>2026-09-02T22:12:04Z</time>
  <course>0.0</course>
  <speed>0.0</speed>
  <fix>3d</fix>
</trkpt>
<trkpt lat="33.810313" lon="-118.393867">
  <ele>-1.838</ele>
  <time>2026-09-02T22:12:04Z</time>
  <course>184.8</course>
  <speed>0.0</speed>
  <fix>3d</fix>
</trkpt>
<trkpt lat="33.810313" lon="-118.393867">
  <ele>-1.64</ele>
  <time>2026-09-02T22:12:04Z</time>
  <course>0.0</course>
  <speed>0.0</speed>
  <fix>3d</fix>
</trkpt>
<trkpt lat="33.810313" lon="-118.393867">
  <ele>-1.89</ele>
  <time>2026-09-02T22:12:04Z</time>
  <course>184.81</course>
  <speed>0.0</speed>
  <fix>3d</fix>
</trkpt>
<trkpt lat="33.810313" lon="-118.393867">
  <ele>-1.64</ele>
  <time>2026-09-02T22:12:04Z</time>
  <course>0.0</course>
  <speed>0.0</speed>
  <fix>3d</fix>
</trkpt>
<trkpt lat="33.810313" lon="-118.393867">
  <ele>-1.929</ele>
  <time>2026-09-02T22:12:04Z</time>
  <course>184.82</course>
  <speed>0.0</speed>
  <fix>3d</fix>
</trkpt>
<trkpt lat="33.810313" lon="-118.393867">
  <ele>-1.75</ele>
  <time>2026-09-02T22:12:04Z</time>
  <course>0.0</course>
  <speed>0.0</speed>
  <fix>3d</fix>
</trkpt>
<trkpt lat="33.810313" lon="-118.393867">
  <ele>-1.959</ele>
  <time>2026-09-02T22:12:04Z</time>
  <course>184.83</course>
  <speed>0.0</speed>
  <fix>3d</fix>
</trkpt>
<trkpt lat="33.810313" lon="-118.393867">
  <ele>-1.75</ele>
  <time>2026-09-02T22:12:04Z</time>
  <course>0.0</course>
  <speed>0.0</speed>
  <fix>3d</fix>
</trkpt>
<trkpt lat="33.810313" lon="-118.393867">
  <ele>-1.983</ele>
  <time>2026-09-02T22:12:04Z</time>
  <course>184.85</course>
  <speed>0.0</speed>
  <fix>3d</fix>
</trkpt>
<trkpt lat="33.810313" lon="-118.393867">
  <ele>-1.83</ele>
  <time>2026-09-02T22:12:04Z</time>
  <course>0.0</course>
  <speed>0.0</speed>
  <fix>3d</fix>
</trkpt>
<trkpt lat="33.810313" lon="-118.393867">
  <ele>-2.001</ele>
  <time>2026-09-02T22:12:04Z</time>
  <course>184.86</course>
  <speed>0.0</speed>
  <fix>3d</fix>
</trkpt>
<trkpt lat="33.810313" lon="-118.393867">
  <ele>-1.83</ele>
  <time>2026-09-02T22:12:04Z</time>
  <course>0.0</course>
  <speed>0.0</speed>
  <fix>3d</fix>
</trkpt>
<trkpt lat="33.810313" lon="-118.393867">
  <ele>-2.015</ele>
  <time>2026-09-02T22:12:04Z</time>
  <course>184.87</course>
  <speed>0.0</speed>
  <fix>3d</fix>
</trkpt>
<trkpt lat="33.810313" lon="-118.393867">
  <ele>-1.89</ele>
  <time>2026-09-02T22:12:04Z</time>
  <course>0.0</course>
  <speed>0.0</speed>
  <fix>3d</fix>
</trkpt>
<trkpt lat="33.810313" lon="-118.393867">
  <ele>-2.028</ele>
  <time>2026-09-02T22:12:04Z</time>
  <course>184.88</course>
  <speed>0.0</speed>
  <fix>3d</fix>
</trkpt>
<trkpt lat="33.810313" lon="-118.393867">
  <ele>-1.89</ele>
  <time>2026-09-02T22:12:04Z</time>
  <course>0.0</course>
  <speed>0.0</speed>
  <fix>3d</fix>
</trkpt>
<trkpt lat="33.810313" lon="-118.393867">
  <ele>-2.037</ele>
  <time>2026-09-02T22:12:04Z</time>
  <course>184.89</course>
  <speed>0.0</speed>
  <fix>3d</fix>
</trkpt>
<trkpt lat="33.810313" lon="-118.393867">
  <ele>-1.93</ele>
  <time>2026-09-02T22:12:04Z</time>
  <course>0.0</course>
  <speed>0.0</speed>
  <fix>3d</fix>
</trkpt>
<trkpt lat="33.810313" lon="-118.393867">
  <ele>-2.045</ele>
  <time>2026-09-02T22:12:04Z</time>
  <course>184.9</course>
  <speed>0.0</speed>
  <fix>3d</fix>
</trkpt>
<trkpt lat="33.810313" lon="-118.393867">
  <ele>-1.93</ele>
  <time>2026-09-02T22:12:04Z</time>
  <course>0.0</course>
  <speed>0.0</speed>
  <fix>3d</fix>
</trkpt>
<trkpt lat="33.810313" lon="-118.393867">
  <ele>-2.052</ele>
  <time>2026-09-02T22:12:04Z</time>
  <course>184.91</course>
  <speed>0.0</speed>
  <fix>3d</fix>
</trkpt>
<trkpt lat="33.810313" lon="-118.393867">
  <ele>-1.96</ele>
  <time>2026-09-02T22:12:04Z</time>
  <course>0.0</course>
  <speed>0.0</speed>
  <fix>3d</fix>
</trkpt>
<trkpt lat="33.810313" lon="-118.393867">
  <ele>-2.058</ele>
  <time>2026-09-02T22:12:04Z</time>
  <course>184.93</course>
  <speed>0.0</speed>
  <fix>3d</fix>
</trkpt>
<trkpt lat="33.810313" lon="-118.393867">
  <ele>-1.96</ele>
  <time>2026-09-02T22:12:04Z</time>
  <course>0.0</course>
  <speed>0.0</speed>
  <fix>3d</fix>
</trkpt>
<trkpt lat="33.810313" lon="-118.393867">
  <ele>-2.063</ele>
  <time>2026-09-02T22:12:04Z</time>
  <course>184.94</course>
  <speed>0.0</speed>
  <fix>3d</fix>
</trkpt>
<trkpt lat="33.810313" lon="-118.393867">
  <ele>-1.98</ele>
  <time>2026-09-02T22:12:04Z</time>
  <course>0.0</course>
  <speed>0.0</speed>
  <fix>3d</fix>
</trkpt>
<trkpt lat="33.810313" lon="-118.393867">
  <ele>-2.067</ele>
  <time>2026-09-02T22:12:04Z</time>
  <course>184.95</course>
  <speed>0.0</speed>
  <fix>3d</fix>
</trkpt>
<trkpt lat="33.810313" lon="-118.393867">
  <ele>-1.98</ele>
  <time>2026-09-02T22:12:04Z</time>
  <course>0.0</course>
  <speed>0.0</speed>
  <fix>3d</fix>
</trkpt>
<trkpt lat="33.810313" lon="-118.393867">
  <ele>-2.07</ele>
  <time>2026-09-02T22:12:04Z</time>
  <course>184.96</course>
  <speed>0.0</speed>
  <fix>3d</fix>
</trkpt>
<trkpt lat="33.810313" lon="-118.393867">
  <ele>-2.0</ele>
  <time>2026-09-02T22:12:04Z</time>
  <course>0.0</course>
  <speed>0.0</speed>
  <fix>3d</fix>
</trkpt>
<trkpt lat="33.810313" lon="-118.393867">
  <ele>-2.071</ele>
  <time>2026-09-02T22:12:04Z</time>
  <course>184.97</course>
  <speed>0.0</speed>
  <fix>3d</fix>
</trkpt>
<trkpt lat="33.810313" lon="-118.393867">
  <ele>-2.0</ele>
  <time>2026-09-02T22:12:04Z</time>
  <course>0.0</course>
  <speed>0.0</speed>
  <fix>3d</fix>
</trkpt>
<trkpt lat="33.810313" lon="-118.393867">
  <ele>-2.072</ele>
  <time>2026-09-02T22:12:04Z</time>
  <course>184.98</course>
  <speed>0.0</speed>
  <fix>3d</fix>
</trkpt>
<trkpt lat="33.810313" lon="-118.393867">
  <ele>-2.01</ele>
  <time>2026-09-02T22:12:04Z</time>
  <course>0.0</course>
  <speed>0.0</speed>
  <fix>3d</fix>
</trkpt>
<trkpt lat="33.810313" lon="-118.393867">
  <ele>-2.073</ele>
  <time>2026-09-02T22:12:04Z</time>
  <course>185.0</course>
  <speed>0.0</speed>
  <fix>3d</fix>
</trkpt>
<trkpt lat="33.810313" lon="-118.393867">
  <ele>-2.01</ele>
  <time>2026-09-02T22:12:04Z</time>
  <course>0.0</course>
  <speed>0.0</speed>
  <fix>3d</fix>
</trkpt>
<trkpt lat="33.810313" lon="-118.393867">
  <ele>-2.073</ele>
  <time>2026-09-02T22:12:04Z</time>
  <course>185.01</course>
  <speed>0.0</speed>
  <fix>3d</fix>
</trkpt>
<trkpt lat="33.810313" lon="-118.393867">
  <ele>-2.02</ele>
  <time>2026-09-02T22:12:04Z</time>
  <course>0.0</course>
  <speed>0.0</speed>
  <fix>3d</fix>
</trkpt>
<trkpt lat="33.810313" lon="-118.393867">
  <ele>-2.074</ele>
  <time>2026-09-02T22:12:04Z</time>
  <course>185.02</course>
  <speed>0.0</speed>
  <fix>3d</fix>
</trkpt>
<trkpt lat="33.810313" lon="-118.393867">
  <ele>-2.02</ele>
  <time>2026-09-02T22:12:04Z</time>
  <course>0.0</course>
  <speed>0.0</speed>
  <fix>3d</fix>
</trkpt>
<trkpt lat="33.810313" lon="-118.393867">
  <ele>-2.075</ele>
  <time>2026-09-02T22:12:04Z</time>
  <course>185.03</course>
  <speed>0.01</speed>
  <fix>3d</fix>
</trkpt>
<trkpt lat="33.810313" lon="-118.393867">
  <ele>-2.03</ele>
  <time>2026-09-02T22:12:04Z</time>
  <course>0.0</course>
  <speed>0.0</speed>
  <fix>3d</fix>
</trkpt>
<trkpt lat="33.810313" lon="-118.393867">
  <ele>-2.075</ele>
  <time>2026-09-02T22:12:04Z</time>
  <course>185.04</course>
  <speed>0.01</speed>
  <fix>3d</fix>
</trkpt>
<trkpt lat="33.810313" lon="-118.393867">
  <ele>-2.03</ele>
  <time>2026-09-02T22:12:04Z</time>
  <course>0.0</course>
  <speed>0.0</speed>
  <fix>3d</fix>
</trkpt>
<trkpt lat="33.810313" lon="-118.393867">
  <ele>-2.076</ele>
  <time>2026-09-02T22:12:04Z</time>
  <course>185.05</course>
  <speed>0.01</speed>
  <fix>3d</fix>
</trkpt>
<trkpt lat="33.810313" lon="-118.393867">
  <ele>-2.03</ele>
  <time>2026-09-02T22:12:04Z</time>
  <course>0.0</course>
  <speed>0.0</speed>
  <fix>3d</fix>
</trkpt>
<trkpt lat="33.810313" lon="-118.393867">
  <ele>-2.076</ele>
  <time>2026-09-02T22:12:04Z</time>
  <course>185.07</course>
  <speed>0.01</speed>
  <fix>3d</fix>
</trkpt>
<trkpt lat="33.810313" lon="-118.393867">
  <ele>-2.03</ele>
  <time>2026-09-02T22:12:04Z</time>
  <course>0.0</course>
  <speed>0.0</speed>
  <fix>3d</fix>
</trkpt>
<trkpt lat="33.810313" lon="-118.393867">
  <ele>-2.076</ele>
  <time>2026-09-02T22:12:04Z</time>
  <course>185.08</course>
  <speed>0.01</speed>
  <fix>3d</fix>
</trkpt>
<trkpt lat="33.810313" lon="-118.393867">
  <ele>-2.03</ele>
  <time>2026-09-02T22:12:04Z</time>
  <course>0.0</course>
  <speed>0.0</speed>
  <fix>3d</fix>
</trkpt>
<trkpt lat="33.810313" lon="-118.393867">
  <ele>-2.076</ele>
  <time>2026-09-02T22:12:04Z</time>
  <course>185.09</course>
  <speed>0.01</speed>
  <fix>3d</fix>
</trkpt>
<trkpt lat="33.810313" lon="-118.393867">
  <ele>-2.03</ele>
  <time>2026-09-02T22:12:04Z</time>
  <course>0.0</course>
  <speed>0.0</speed>
  <fix>3d</fix>
</trkpt>
<trkpt lat="33.810313" lon="-118.393867">
  <ele>-2.075</ele>
  <time>2026-09-02T22:12:04Z</time>
  <course>185.1</course>
  <speed>0.01</speed>
  <fix>3d</fix>
</trkpt>
<trkpt lat="33.810313" lon="-118.393867">
  <ele>-2.03</ele>
  <time>2026-09-02T22:12:04Z</time>
  <course>0.0</course>
  <speed>0.0</speed>
  <fix>3d</fix>
</trkpt>
<trkpt lat="33.810313" lon="-118.393867">
  <ele>-2.074</ele>
  <time>2026-09-02T22:12:04Z</time>
  <course>185.11</course>
  <speed>0.01</speed>
  <fix>3d</fix>
</trkpt>
<trkpt lat="33.810313" lon="-118.393867">
  <ele>-2.03</ele>
  <time>2026-09-02T22:12:04Z</time>
  <course>0.0</course>
  <speed>0.0</speed>
  <fix>3d</fix>
</trkpt>
<trkpt lat="33.810313" lon="-118.393867">
  <ele>-2.074</ele>
  <time>2026-09-02T22:12:04Z</time>
  <course>185.13</course>
  <speed>0.01</speed>
  <fix>3d</fix>
</trkpt>
<trkpt lat="33.810313" lon="-118.393867">
  <ele>-2.03</ele>
  <time>2026-09-02T22:12:04Z</time>
  <course>95.0</course>
  <speed>0.0</speed>
  <fix>3d</fix>
</trkpt>
<trkpt lat="33.810313" lon="-118.393867">
  <ele>-2.074</ele>
  <time>2026-09-02T22:12:04Z</time>
  <course>185.14</course>
  <speed>0.01</speed>
  <fix>3d</fix>
</trkpt>
<trkpt lat="33.810313" lon="-118.393867">
  <ele>-2.03</ele>
  <time>2026-09-02T22:12:04Z</time>
  <course>95.0</course>
  <speed>0.0</speed>
  <fix>3d</fix>
</trkpt>
<trkpt lat="33.810313" lon="-118.393867">
  <ele>-2.074</ele>
  <time>2026-09-02T22:12:04Z</time>
  <course>185.15</course>
  <speed>0.01</speed>
  <fix>3d</fix>
</trkpt>
<trkpt lat="33.810313" lon="-118.393867">
  <ele>-2.03</ele>
  <time>2026-09-02T22:12:04Z</time>
  <course>275.0</course>
  <speed>0.0</speed>
  <fix>3d</fix>
</trkpt>
<trkpt lat="33.810313" lon="-118.393867">
  <ele>-2.074</ele>
  <time>2026-09-02T22:12:04Z</time>
  <course>185.14</course>
  <speed>0.01414213562373095</speed>
  <fix>3d</fix>
</trkpt>
<trkpt lat="33.810313" lon="-118.393867">
  <ele>-2.03</ele>
  <time>2026-09-02T22:12:04Z</time>
  <course>275.0</course>
  <speed>0.0</speed>
  <fix>3d</fix>
</trkpt>
<trkpt lat="33.810313" lon="-118.393867">
  <ele>-2.073</ele>
  <time>2026-09-02T22:12:04Z</time>
  <course>185.11</course>
  <speed>0.0316227766016838</speed>
  <fix>3d</fix>
</trkpt>
<trkpt lat="33.810313" lon="-118.393867">
  <ele>-2.03</ele>
  <time>2026-09-02T22:12:04Z</time>
  <course>185.53</course>
  <speed>0.01</speed>
  <fix>3d</fix>
</trkpt>
<trkpt lat="33.810313" lon="-118.393867">
  <ele>-2.073</ele>
  <time>2026-09-02T22:12:04Z</time>
  <course>185.08</course>
  <speed>0.05099019513592785</speed>
  <fix>3d</fix>
</trkpt>
<trkpt lat="33.810313" lon="-118.393867">
  <ele>-2.03</ele>
  <time>2026-09-02T22:12:04Z</time>
  <course>185.53</course>
  <speed>0.01</speed>
  <fix>3d</fix>
</trkpt>
<trkpt lat="33.810313" lon="-118.393867">
  <ele>-2.073</ele>
  <time>2026-09-02T22:12:04Z</time>
  <course>185.06</course>
  <speed>0.07071067811865475</speed>
  <fix>3d</fix>
</trkpt>
<trkpt lat="33.8103129" lon="-118.393867">
  <ele>-2.03</ele>
  <time>2026-09-02T22:12:04Z</time>
  <course>185.1</course>
  <speed>0.05</speed>
  <fix>3d</fix>
</trkpt>
<trkpt lat="33.8103129" lon="-118.393867">
  <ele>-2.073</ele>
  <time>2026-09-02T22:12:04Z</time>
  <course>185.05</course>
  <speed>0.09055385138137417</speed>
  <fix>3d</fix>
</trkpt>
<trkpt lat="33.8103129" lon="-118.393867">
  <ele>-2.03</ele>
  <time>2026-09-02T22:12:04Z</time>
  <course>185.1</course>
  <speed>0.05</speed>
  <fix>3d</fix>
</trkpt>
<trkpt lat="33.8103128" lon="-118.3938671">
  <ele>-2.073</ele>
  <time>2026-09-02T22:12:04Z</time>
  <course>185.05</course>
  <speed>0.1019803902718557</speed>
  <fix>3d</fix>
</trkpt>
<trkpt lat="33.8103128" lon="-118.393867">
  <ele>-2.02</ele>
  <time>2026-09-02T22:12:04Z</time>
  <course>184.8</course>
  <speed>0.09</speed>
  <fix>3d</fix>
</trkpt>
<trkpt lat="33.8103127" lon="-118.3938671">
  <ele>-2.071</ele>
  <time>2026-09-02T22:12:04Z</time>
  <course>185.05</course>
  <speed>0.1118033988749895</speed>
  <fix>3d</fix>
</trkpt>
<trkpt lat="33.8103128" lon="-118.393867">
  <ele>-2.02</ele>
  <time>2026-09-02T22:12:04Z</time>
  <course>184.8</course>
  <speed>0.09</speed>
  <fix>3d</fix>
</trkpt>
<trkpt lat="33.8103125" lon="-118.3938671">
  <ele>-2.07</ele>
  <time>2026-09-02T22:12:04Z</time>
  <course>185.05</course>
  <speed>0.12165525060596438</speed>
  <fix>3d</fix>
</trkpt>
<trkpt lat="33.8103126" lon="-118.393867">
  <ele>-2.02</ele>
  <time>2026-09-02T22:12:04Z</time>
  <course>184.64</course>
  <speed>0.12</speed>
  <fix>3d</fix>
</trkpt>
<trkpt lat="33.8103124" lon="-118.3938671">
  <ele>-2.069</ele>
  <time>2026-09-02T22:12:04Z</time>
  <course>185.05</course>
  <speed>0.13152946437965907</speed>
  <fix>3d</fix>
</trkpt>
<trkpt lat="33.8103126" lon="-118.393867">
  <ele>-2.02</ele>
  <time>2026-09-02T22:12:04Z</time>
  <course>184.64</course>
  <speed>0.12</speed>
  <fix>3d</fix>
</trkpt>
<trkpt lat="33.8103123" lon="-118.3938671">
  <ele>-2.068</ele>
  <time>2026-09-02T22:12:04Z</time>
  <course>185.05</course>
  <speed>0.1414213562373095</speed>
  <fix>3d</fix>
</trkpt>
<trkpt lat="33.8103124" lon="-118.393867">
  <ele>-2.02</ele>
  <time>2026-09-02T22:12:04Z</time>
  <course>184.66</course>
  <speed>0.14</speed>
  <fix>3d</fix>
</trkpt>
<trkpt lat="33.8103121" lon="-118.3938671">
  <ele>-2.069</ele>
  <time>2026-09-02T22:12:04Z</time>
  <course>185.05</course>
  <speed>0.15132745950421556</speed>
  <fix>3d</fix>
</trkpt>
<trkpt lat="33.8103124" lon="-118.393867">
  <ele>-2.02</ele>
  <time>2026-09-02T22:12:04Z</time>
  <course>184.66</course>
  <speed>0.14</speed>
  <fix>3d</fix>
</trkpt>
<trkpt lat="33.810312" lon="-118.3938671">
  <ele>-2.072</ele>
  <time>2026-09-02T22:12:04Z</time>
  <course>185.05</course>
  <speed>0.15132745950421556</speed>
  <fix>3d</fix>
</trkpt>
<trkpt lat="33.8103121" lon="-118.393867">
  <ele>-2.02</ele>
  <time>2026-09-02T22:12:04Z</time>
  <course>184.8</course>
  <speed>0.16</speed>
  <fix>3d</fix>
</trkpt>
<trkpt lat="33.8103118" lon="-118.3938671">
  <ele>-2.074</ele>
  <time>2026-09-02T22:12:04Z</time>
  <course>185.05</course>
  <speed>0.16124515496597097</speed>
  <fix>3d</fix>
</trkpt>
<trkpt lat="33.8103121" lon="-118.393867">
  <ele>-2.02</ele>
  <time>2026-09-02T22:12:04Z</time>
  <course>184.8</course>
  <speed>0.16</speed>
  <fix>3d</fix>
</trkpt>
<trkpt lat="33.8103117" lon="-118.3938672">
  <ele>-2.076</ele>
  <time>2026-09-02T22:12:04Z</time>
  <course>185.05</course>
  <speed>0.16124515496597097</speed>
  <fix>3d</fix>
</trkpt>
<trkpt lat="33.8103118" lon="-118.3938671">
  <ele>-2.03</ele>
  <time>2026-09-02T22:12:04Z</time>
  <course>185.0</course>
  <speed>0.17</speed>
  <fix>3d</fix>
</trkpt>
<trkpt lat="33.8103115" lon="-118.3938672">
  <ele>-2.077</ele>
  <time>2026-09-02T22:12:04Z</time>
  <course>185.05</course>
  <speed>0.16124515496597097</speed>
  <fix>3d</fix>
</trkpt>
<trkpt lat="33.8103118" lon="-118.3938671">
  <ele>-2.03</ele>
  <time>2026-09-02T22:12:04Z</time>
  <course>185.0</course>
  <speed>0.17</speed>
  <fix>3d</fix>
</trkpt>
<trkpt lat="33.8103114" lon="-118.3938672">
  <ele>-2.076</ele>
  <time>2026-09-02T22:12:04Z</time>
  <course>185.05</course>
  <speed>0.1711724276862369</speed>
  <fix>3d</fix>
</trkpt>
<trkpt lat="33.8103115" lon="-118.3938671">
  <ele>-2.03</ele>
  <time>2026-09-02T22:12:04Z</time>
  <course>185.16</course>
  <speed>0.18</speed>
  <fix>3d</fix>
</trkpt>
<trkpt lat="33.8103112" lon="-118.3938672">
  <ele>-2.075</ele>
  <time>2026-09-02T22:12:04Z</time>
  <course>185.05</course>
  <speed>0.1711724276862369</speed>
  <fix>3d</fix>
</trkpt>
<trkpt lat="33.8103115" lon="-118.3938671">
  <ele>-2.03</ele>
  <time>2026-09-02T22:12:04Z</time>
  <course>185.16</course>
  <speed>0.18</speed>
  <fix>3d</fix>
</trkpt>
<trkpt lat="33.810311" lon="-118.3938672">
  <ele>-2.074</ele>
  <time>2026-09-02T22:12:04Z</time>
  <course>185.05</course>
  <speed>0.1711724276862369</speed>
  <fix>3d</fix>
</trkpt>
<trkpt lat="33.8103111" lon="-118.3938671">
  <ele>-2.03</ele>
  <time>2026-09-02T22:12:04Z</time>
  <course>185.16</course>
  <speed>0.19</speed>
  <fix>3d</fix>
</trkpt>
<trkpt lat="33.8103109" lon="-118.3938672">
  <ele>-2.073</ele>
  <time>2026-09-02T22:12:04Z</time>
  <course>185.05</course>
  <speed>0.1711724276862369</speed>
  <fix>3d</fix>
</trkpt>
<trkpt lat="33.8103111" lon="-118.3938671">
  <ele>-2.03</ele>
  <time>2026-09-02T22:12:04Z</time>
  <course>185.16</course>
  <speed>0.19</speed>
  <fix>3d</fix>
</trkpt>
<trkpt lat="33.8103107" lon="-118.3938673">
  <ele>-2.073</ele>
  <time>2026-09-02T22:12:04Z</time>
  <course>185.05</course>
  <speed>0.17262676501632068</speed>
  <fix>3d</fix>
</trkpt>
<trkpt lat="33.8103107" lon="-118.3938672">
  <ele>-2.03</ele>
  <time>2026-09-02T22:12:04Z</time>
  <course>185.13</course>
  <speed>0.19</speed>
  <fix>3d</fix>
</trkpt>
<trkpt lat="33.8103105" lon="-118.3938673">
  <ele>-2.074</ele>
  <time>2026-09-02T22:12:04Z</time>
  <course>185.05</course>
  <speed>0.17262676501632068</speed>
  <fix>3d</fix>
</trkpt>
<trkpt lat="33.8103107" lon="-118.3938672">
  <ele>-2.03</ele>
  <time>2026-09-02T22:12:04Z</time>
  <course>185.13</course>
  <speed>0.19</speed>
  <fix>3d</fix>
</trkpt>
<trkpt lat="33.8103104" lon="-118.3938673">
  <ele>-2.074</ele>
  <time>2026-09-02T22:12:04Z</time>
  <course>185.05</course>
  <speed>0.17262676501632068</speed>
  <fix>3d</fix>
</trkpt>
<trkpt lat="33.8103104" lon="-118.3938672">
  <ele>-2.03</ele>
  <time>2026-09-02T22:12:04Z</time>
  <course>185.11</course>
  <speed>0.19</speed>
  <fix>3d</fix>
</trkpt>
<trkpt lat="33.8103102" lon="-118.3938673">
  <ele>-2.074</ele>
  <time>2026-09-02T22:12:04Z</time>
  <course>185.05</course>
  <speed>0.17262676501632068</speed>
  <fix>3d</fix>
</trkpt>
<trkpt lat="33.8103104" lon="-118.3938672">
  <ele>-2.03</ele>
  <time>2026-09-02T22:12:04Z</time>
  <course>185.11</course>
  <speed>0.19</speed>
  <fix>3d</fix>
</trkpt>
<trkpt lat="33.81031" lon="-118.3938673">
  <ele>-2.074</ele>
  <time>2026-09-02T22:12:04Z</time>
  <course>185.05</course>
  <speed>0.1711724276862369</speed>
  <fix>3d</fix>
</trkpt>
<trkpt lat="33.81031" lon="-118.3938672">
  <ele>-2.02</ele>
  <time>2026-09-02T22:12:04Z</time>
  <course>185.01</course>
  <speed>0.19</speed>
  <fix>3d</fix>
</trkpt>
<trkpt lat="33.8103098" lon="-118.3938673">
  <ele>-2.074</ele>
  <time>2026-09-02T22:12:04Z</time>
  <course>185.05</course>
  <speed>0.17262676501632068</speed>
  <fix>3d</fix>
</trkpt>
<trkpt lat="33.81031" lon="-118.3938672">
  <ele>-2.02</ele>
  <time>2026-09-02T22:12:04Z</time>
  <course>185.01</course>
  <speed>0.19</speed>
  <fix>3d</fix>
</trkpt>
<trkpt lat="33.8103097" lon="-118.3938674">
  <ele>-2.074</ele>
  <time>2026-09-02T22:12:04Z</time>
  <course>185.06</course>
  <speed>0.17262676501632068</speed>
  <fix>3d</fix>
</trkpt>
<trkpt lat="33.8103097" lon="-118.3938673">
  <ele>-2.02</ele>
  <time>2026-09-02T22:12:04Z</time>
  <course>184.92</course>
  <speed>0.19</speed>
  <fix>3d</fix>
</trkpt>
<trkpt lat="33.8103095" lon="-118.3938674">
  <ele>-2.075</ele>
  <time>2026-09-02T22:12:04Z</time>
  <course>185.06</course>
  <speed>0.17262676501632068</speed>
  <fix>3d</fix>
</trkpt>
<trkpt lat="33.8103097" lon="-118.3938673">
  <ele>-2.02</ele>
  <time>2026-09-02T22:12:04Z</time>
  <course>184.92</course>
  <speed>0.19</speed>
  <fix>3d</fix>
</trkpt>
<trkpt lat="33.8103093" lon="-118.3938674">
  <ele>-2.075</ele>
  <time>2026-09-02T22:12:04Z</time>
  <course>185.06</course>
  <speed>0.17262676501632068</speed>
  <fix>3d</fix>
</trkpt>
<trkpt lat="33.8103093" lon="-118.3938673">
  <ele>-2.02</ele>
  <time>2026-09-02T22:12:04Z</time>
  <course>184.85</course>
  <speed>0.19</speed>
  <fix>3d</fix>
</trkpt>
<trkpt lat="33.8103091" lon="-118.3938674">
  <ele>-2.075</ele>
  <time>2026-09-02T22:12:04Z</time>
  <course>185.06</course>
  <speed>0.16278820596099705</speed>
  <fix>3d</fix>
</trkpt>
<trkpt lat="33.8103093" lon="-118.3938673">
  <ele>-2.02</ele>
  <time>2026-09-02T22:12:04Z</time>
  <course>184.85</course>
  <speed>0.19</speed>
  <fix>3d</fix>
</trkpt>
<trkpt lat="33.810309" lon="-118.3938674">
  <ele>-2.074</ele>
  <time>2026-09-02T22:12:04Z</time>
  <course>185.06</course>
  <speed>0.16278820596099705</speed>
  <fix>3d</fix>
</trkpt>
<trkpt lat="33.810309" lon="-118.3938673">
  <ele>-2.02</ele>
  <time>2026-09-02T22:12:04Z</time>
  <course>184.7</course>
  <speed>0.19</speed>
  <fix>3d</fix>
</trkpt>
<trkpt lat="33.8103088" lon="-118.3938675">
  <ele>-2.072</ele>
  <time>2026-09-02T22:12:04Z</time>
  <course>185.06</course>
  <speed>0.16278820596099705</speed>
  <fix>3d</fix>
</trkpt>
<trkpt lat="33.810309" lon="-118.3938673">
  <ele>-2.02</ele>
  <time>2026-09-02T22:12:04Z</time>
  <course>184.7</course>
  <speed>0.19</speed>
  <fix>3d</fix>
</trkpt>
<trkpt lat="33.8103086" lon="-118.3938675">
  <ele>-2.069</ele>
  <time>2026-09-02T22:12:04Z</time>
  <course>185.06</course>
  <speed>0.16278820596099705</speed>
  <fix>3d</fix>
</trkpt>
<trkpt lat="33.8103086" lon="-118.3938674">
  <ele>-2.02</ele>
  <time>2026-09-02T22:12:04Z</time>
  <course>184.58</course>
  <speed>0.19</speed>
  <fix>3d</fix>
</trkpt>
<trkpt lat="33.8103084" lon="-118.3938675">
  <ele>-2.068</ele>
  <time>2026-09-02T22:12:04Z</time>
  <course>185.07</course>
  <speed>0.16278820596099705</speed>
  <fix>3d</fix>
</trkpt>
<trkpt lat="33.8103086" lon="-118.3938674">
  <ele>-2.02</ele>
  <time>2026-09-02T22:12:04Z</time>
  <course>184.58</course>
  <speed>0.19</speed>
  <fix>3d</fix>
</trkpt>
<trkpt lat="33.8103083" lon="-118.3938675">
  <ele>-2.069</ele>
  <time>2026-09-02T22:12:04Z</time>
  <course>185.07</course>
  <speed>0.1414213562373095</speed>
  <fix>3d</fix>
</trkpt>
<trkpt lat="33.8103083" lon="-118.3938674">
  <ele>-2.02</ele>
  <time>2026-09-02T22:12:04Z</time>
  <course>184.52</course>
  <speed>0.18</speed>
  <fix>3d</fix>
</trkpt>
<trkpt lat="33.8103083" lon="-118.3938675">
  <ele>-2.069</ele>
  <time>2026-09-02T22:12:04Z</time>
  <course>185.07</course>
  <speed>0.1414213562373095</speed>
  <fix>3d</fix>
</trkpt>
<trkpt lat="33.8103081" lon="-118.3938675">
  <ele>-2.069</ele>
  <time>2026-09-02T22:12:04Z</time>
  <course>185.07</course>
  <speed>0.13152946437965907</speed>
  <fix>3d</fix>
</trkpt>
<trkpt lat="33.8103083" lon="-118.3938674">
  <ele>-2.02</ele>
  <time>2026-09-02T22:12:04Z</time>
  <course>184.52</course>
  <speed>0.18</speed>
  <fix>3d</fix>
</trkpt>
<trkpt lat="33.810308" lon="-118.3938675">
  <ele>-2.069</ele>
  <time>2026-09-02T22:12:04Z</time>
  <course>185.08</course>
  <speed>0.12165525060596438</speed>
  <fix>3d</fix>
</trkpt>
<trkpt lat="33.810308" lon="-118.3938674">
  <ele>-2.02</ele>
  <time>2026-09-02T22:12:04Z</time>
  <course>184.48</course>
  <speed>0.16</speed>
  <fix>3d</fix>
</trkpt>
<trkpt lat="33.8103079" lon="-118.3938675">
  <ele>-2.069</ele>
  <time>2026-09-02T22:12:04Z</time>
  <course>185.09</course>
  <speed>0.1019803902718557</speed>
  <fix>3d</fix>
</trkpt>
<trkpt lat="33.810308" lon="-118.3938674">
  <ele>-2.02</ele>
  <time>2026-09-02T22:12:04Z</time>
  <course>184.48</course>
  <speed>0.16</speed>
  <fix>3d</fix>
</trkpt>
<trkpt lat="33.8103078" lon="-118.3938676">
  <ele>-2.069</ele>
  <time>2026-09-02T22:12:04Z</time>
  <course>185.06</course>
  <speed>0.09219544457292887</speed>
  <fix>3d</fix>
</trkpt>
<trkpt lat="33.8103077" lon="-118.3938675">
  <ele>-2.02</ele>
  <time>2026-09-02T22:12:04Z</time>
  <course>184.2</course>
  <speed>0.14</speed>
  <fix>3d</fix>
</trkpt>
<trkpt lat="33.8103077" lon="-118.3938676">
  <ele>-2.071</ele>
  <time>2026-09-02T22:12:04Z</time>
  <course>185.04</course>
  <speed>0.07280109889280519</speed>
  <fix>3d</fix>
</trkpt>
<trkpt lat="33.8103077" lon="-118.3938675">
  <ele>-2.02</ele>
  <time>2026-09-02T22:12:04Z</time>
  <course>184.2</course>
  <speed>0.14</speed>
  <fix>3d</fix>
</trkpt>
<trkpt lat="33.8103076" lon="-118.3938676">
  <ele>-2.072</ele>
  <time>2026-09-02T22:12:04Z</time>
  <course>185.03</course>
  <speed>0.0632455532033676</speed>
  <fix>3d</fix>
</trkpt>
<trkpt lat="33.8103075" lon="-118.3938675">
  <ele>-2.02</ele>
  <time>2026-09-02T22:12:04Z</time>
  <course>183.57</course>
  <speed>0.11</speed>
  <fix>3d</fix>
</trkpt>
<trkpt lat="33.8103075" lon="-118.3938676">
  <ele>-2.071</ele>
  <time>2026-09-02T22:12:04Z</time>
  <course>185.04</course>
  <speed>0.044721359549995794</speed>
  <fix>3d</fix>
</trkpt>
<trkpt lat="33.8103075" lon="-118.3938675">
  <ele>-2.02</ele>
  <time>2026-09-02T22:12:04Z</time>
  <course>183.57</course>
  <speed>0.11</speed>
  <fix>3d</fix>
</trkpt>
<trkpt lat="33.8103075" lon="-118.3938676">
  <ele>-2.072</ele>
  <time>2026-09-02T22:12:04Z</time>
  <course>185.05</course>
  <speed>0.0316227766016838</speed>
  <fix>3d</fix>
</trkpt>
<trkpt lat="33.8103073" lon="-118.3938675">
  <ele>-2.02</ele>
  <time>2026-09-02T22:12:04Z</time>
  <course>182.77</course>
  <speed>0.08</speed>
  <fix>3d</fix>
</trkpt>
<trkpt lat="33.8103074" lon="-118.3938676">
  <ele>-2.072</ele>
  <time>2026-09-02T22:12:04Z</time>
  <course>185.07</course>
  <speed>0.022360679774997897</speed>
  <fix>3d</fix>
</trkpt>
<trkpt lat="33.8103073" lon="-118.3938675">
  <ele>-2.02</ele>
  <time>2026-09-02T22:12:04Z</time>
  <course>182.77</course>
  <speed>0.08</speed>
  <fix>3d</fix>
</trkpt>
<trkpt lat="33.8103074" lon="-118.3938676">
  <ele>-2.072</ele>
  <time>2026-09-02T22:12:04Z</time>
  <course>185.07</course>
  <speed>0.01414213562373095</speed>
  <fix>3d</fix>
</trkpt>
<trkpt lat="33.8103072" lon="-118.3938675">
  <ele>-2.02</ele>
  <time>2026-09-02T22:12:04Z</time>
  <course>181.39</course>
  <speed>0.05</speed>
  <fix>3d</fix>
</trkpt>
<trkpt lat="33.8103074" lon="-118.3938676">
  <ele>-2.073</ele>
  <time>2026-09-02T22:12:04Z</time>
  <course>185.08</course>
  <speed>0.01</speed>
  <fix>3d</fix>
</trkpt>
<trkpt lat="33.8103072" lon="-118.3938675">
  <ele>-2.02</ele>
  <time>2026-09-02T22:12:04Z</time>
  <course>181.39</course>
  <speed>0.05</speed>
  <fix>3d</fix>
</trkpt>
<trkpt lat="33.8103073" lon="-118.3938676">
  <ele>-2.073</ele>
  <time>2026-09-02T22:12:04Z</time>
  <course>185.07</course>
  <speed>0.01</speed>
  <fix>3d</fix>
</trkpt>
<trkpt lat="33.8103071" lon="-118.3938675">
  <ele>-2.02</ele>
  <time>2026-09-02T22:12:04Z</time>
  <course>178.55</course>
  <speed>0.03</speed>
  <fix>3d</fix>
</trkpt>
<trkpt lat="33.8103073" lon="-118.3938676">
  <ele>-2.073</ele>
  <time>2026-09-02T22:12:04Z</time>
  <course>185.07</course>
  <speed>0.01</speed>
  <fix>3d</fix>
</trkpt>
<trkpt lat="33.8103073" lon="-118.3938676">
  <ele>-2.073</ele>
  <time>2026-09-02T22:12:04Z</time>
  <course>185.09</course>
  <speed>0.01</speed>
  <fix>3d</fix>
</trkpt>
<trkpt lat="33.8103071" lon="-118.3938675">
  <ele>-2.02</ele>
  <time>2026-09-02T22:12:04Z</time>
  <course>178.55</course>
  <speed>0.03</speed>
  <fix>3d</fix>
</trkpt>
<trkpt lat="33.8103073" lon="-118.3938676">
  <ele>-2.073</ele>
  <time>2026-09-02T22:12:04Z</time>
  <course>185.11</course>
  <speed>0.01414213562373095</speed>
  <fix>3d</fix>
</trkpt>
<trkpt lat="33.810307" lon="-118.3938675">
  <ele>-2.02</ele>
  <time>2026-09-02T22:12:04Z</time>
  <course>173.61</course>
  <speed>0.02</speed>
  <fix>3d</fix>
</trkpt>
<trkpt lat="33.8103073" lon="-118.3938676">
  <ele>-2.073</ele>
  <time>2026-09-02T22:12:04Z</time>
  <course>185.12</course>
  <speed>0.01414213562373095</speed>
  <fix>3d</fix>
</trkpt>
<trkpt lat="33.810307" lon="-118.3938675">
  <ele>-2.02</ele>
  <time>2026-09-02T22:12:04Z</time>
  <course>173.61</course>
  <speed>0.02</speed>
  <fix>3d</fix>
</trkpt>
<trkpt lat="33.8103073" lon="-118.3938676">
  <ele>-2.072</ele>
  <time>2026-09-02T22:12:04Z</time>
  <course>185.12</course>
  <speed>0.022360679774997897</speed>
  <fix>3d</fix>
</trkpt>
<trkpt lat="33.810307" lon="-118.3938675">
  <ele>-2.02</ele>
  <time>2026-09-02T22:12:04Z</time>
  <course>165.72</course>
  <speed>0.01</speed>
  <fix>3d</fix>
</trkpt>
<trkpt lat="33.8103073" lon="-118.3938676">
  <ele>-2.071</ele>
  <time>2026-09-02T22:12:04Z</time>
  <course>185.11</course>
  <speed>0.022360679774997897</speed>
  <fix>3d</fix>
</trkpt>
<trkpt lat="33.810307" lon="-118.3938675">
  <ele>-2.02</ele>
  <time>2026-09-02T22:12:04Z</time>
  <course>165.72</course>
  <speed>0.01</speed>
  <fix>3d</fix>
</trkpt>
<trkpt lat="33.8103073" lon="-118.3938676">
  <ele>-2.07</ele>
  <time>2026-09-02T22:12:04Z</time>
  <course>185.12</course>
  <speed>0.022360679774997897</speed>
  <fix>3d</fix>
</trkpt>
<trkpt lat="33.810307" lon="-118.3938675">
  <ele>-2.02</ele>
  <time>2026-09-02T22:12:04Z</time>
  <course>149.29</course>
  <speed>0.0</speed>
  <fix>3d</fix>
</trkpt>
<trkpt lat="33.8103073" lon="-118.3938676">
  <ele>-2.07</ele>
  <time>2026-09-02T22:12:04Z</time>
  <course>185.1</course>
  <speed>0.022360679774997897</speed>
  <fix>3d</fix>
</trkpt>
<trkpt lat="33.810307" lon="-118.3938675">
  <ele>-2.02</ele>
  <time>2026-09-02T22:12:04Z</time>
  <course>149.29</course>
  <speed>0.0</speed>
  <fix>3d</fix>
</trkpt>
<trkpt lat="33.8103073" lon="-118.3938676">
  <ele>-2.071</ele>
  <time>2026-09-02T22:12:04Z</time>
  <course>185.09</course>
  <speed>0.022360679774997897</speed>
  <fix>3d</fix>
</trkpt>
<trkpt lat="33.810307" lon="-118.3938675">
  <ele>-2.02</ele>
  <time>2026-09-02T22:12:04Z</time>
  <course>114.11</course>
  <speed>0.0</speed>
  <fix>3d</fix>
</trkpt>
<trkpt lat="33.8103073" lon="-118.3938676">
  <ele>-2.073</ele>
  <time>2026-09-02T22:12:04Z</time>
  <course>185.09</course>
  <speed>0.022360679774997897</speed>
  <fix>3d</fix>
</trkpt>
<trkpt lat="33.810307" lon="-118.3938675">
  <ele>-2.02</ele>
  <time>2026-09-02T22:12:04Z</time>
  <course>114.11</course>
  <speed>0.0</speed>
  <fix>3d</fix>
</trkpt>
<trkpt lat="33.8103073" lon="-118.3938676">
  <ele>-2.075</ele>
  <time>2026-09-02T22:12:04Z</time>
  <course>185.08</course>
  <speed>0.022360679774997897</speed>
  <fix>3d</fix>
</trkpt>
<trkpt lat="33.810307" lon="-118.3938675">
  <ele>-2.02</ele>
  <time>2026-09-02T22:12:04Z</time>
  <course>78.23</course>
  <speed>0.0</speed>
  <fix>3d</fix>
</trkpt>
<trkpt lat="33.8103072" lon="-118.3938676">
  <ele>-2.076</ele>
  <time>2026-09-02T22:12:04Z</time>
  <course>185.09</course>
  <speed>0.022360679774997897</speed>
  <fix>3d</fix>
</trkpt>
<trkpt lat="33.810307" lon="-118.3938675">
  <ele>-2.02</ele>
  <time>2026-09-02T22:12:04Z</time>
  <course>78.23</course>
  <speed>0.0</speed>
  <fix>3d</fix>
</trkpt>
<trkpt lat="33.8103072" lon="-118.3938676">
  <ele>-2.076</ele>
  <time>2026-09-02T22:12:04Z</time>
  <course>185.09</course>
  <speed>0.022360679774997897</speed>
  <fix>3d</fix>
</trkpt>
<trkpt lat="33.8103072" lon="-118.3938676">
  <ele>-2.076</ele>
  <time>2026-09-02T22:12:04Z</time>
  <course>185.09</course>
  <speed>0.022360679774997897</speed>
  <fix>3d</fix>
</trkpt>
<trkpt lat="33.810307" lon="-118.3938675">
  <ele>-2.02</ele>
  <time>2026-09-02T22:12:04Z</time>
  <course>68.01</course>
  <speed>0.0</speed>
  <fix>3d</fix>
</trkpt>
<trkpt lat="33.8103072" lon="-118.3938676">
  <ele>-2.075</ele>
  <time>2026-09-02T22:12:04Z</time>
  <course>185.09</course>
  <speed>0.01</speed>
  <fix>3d</fix>
</trkpt>
<trkpt lat="33.810307" lon="-118.3938675">
  <ele>-2.02</ele>
  <time>2026-09-02T22:12:04Z</time>
  <course>68.01</course>
  <speed>0.0</speed>
  <fix>3d</fix>
</trkpt>
<trkpt lat="33.8103072" lon="-118.3938676">
  <ele>-2.073</ele>
  <time>2026-09-02T22:12:04Z</time>
  <course>185.09</course>
  <speed>0.03605551275463989</speed>
  <fix>3d</fix>
</trkpt>
<trkpt lat="33.810307" lon="-118.3938675">
  <ele>-2.02</ele>
  <time>2026-09-02T22:12:04Z</time>
  <course>169.26</course>
  <speed>0.01</speed>
  <fix>3d</fix>
</trkpt>
<trkpt lat="33.8103072" lon="-118.3938676">
  <ele>-2.072</ele>
  <time>2026-09-02T22:12:04Z</time>
  <course>185.09</course>
  <speed>0.07280109889280519</speed>
  <fix>3d</fix>
</trkpt>
<trkpt lat="33.810307" lon="-118.3938675">
  <ele>-2.02</ele>
  <time>2026-09-02T22:12:04Z</time>
  <course>169.26</course>
  <speed>0.01</speed>
  <fix>3d</fix>
</trkpt>
<trkpt lat="33.810307" lon="-118.3938676">
  <ele>-2.071</ele>
  <time>2026-09-02T22:12:04Z</time>
  <course>185.08</course>
  <speed>0.1019803902718557</speed>
  <fix>3d</fix>
</trkpt>
<trkpt lat="33.8103069" lon="-118.3938675">
  <ele>-2.02</ele>
  <time>2026-09-02T22:12:04Z</time>
  <course>180.36</course>
  <speed>0.06</speed>
  <fix>3d</fix>
</trkpt>
<trkpt lat="33.8103069" lon="-118.3938676">
  <ele>-2.071</ele>
  <time>2026-09-02T22:12:04Z</time>
  <course>185.08</course>
  <speed>0.12369316876852982</speed>
  <fix>3d</fix>
</trkpt>
<trkpt lat="33.8103069" lon="-118.3938675">
  <ele>-2.02</ele>
  <time>2026-09-02T22:12:04Z</time>
  <course>180.36</course>
  <speed>0.06</speed>
  <fix>3d</fix>
</trkpt>
<trkpt lat="33.8103068" lon="-118.3938676">
  <ele>-2.072</ele>
  <time>2026-09-02T22:12:04Z</time>
  <course>185.07</course>
  <speed>0.15297058540778355</speed>
  <fix>3d</fix>
</trkpt>
<trkpt lat="33.8103068" lon="-118.3938675">
  <ele>-2.01</ele>
  <time>2026-09-02T22:12:04Z</time>
  <course>182.04</course>
  <speed>0.13</speed>
  <fix>3d</fix>
</trkpt>
<trkpt lat="33.8103066" lon="-118.3938677">
  <ele>-2.072</ele>
  <time>2026-09-02T22:12:04Z</time>
  <course>185.07</course>
  <speed>0.17262676501632068</speed>
  <fix>3d</fix>
</trkpt>
<trkpt lat="33.8103068" lon="-118.3938675">
  <ele>-2.01</ele>
  <time>2026-09-02T22:12:04Z</time>
  <course>182.04</course>
  <speed>0.13</speed>
  <fix>3d</fix>
</trkpt>
<trkpt lat="33.8103064" lon="-118.3938677">
  <ele>-2.071</ele>
  <time>2026-09-02T22:12:04Z</time>
  <course>185.06</course>
  <speed>0.19235384061671343</speed>
  <fix>3d</fix>
</trkpt>
<trkpt lat="33.8103064" lon="-118.3938675">
  <ele>-2.01</ele>
  <time>2026-09-02T22:12:04Z</time>
  <course>182.63</course>
  <speed>0.18</speed>
  <fix>3d</fix>
</trkpt>
<trkpt lat="33.8103062" lon="-118.3938677">
  <ele>-2.071</ele>
  <time>2026-09-02T22:12:04Z</time>
  <course>185.05</course>
  <speed>0.20223748416156684</speed>
  <fix>3d</fix>
</trkpt>
<trkpt lat="33.8103064" lon="-118.3938675">
  <ele>-2.01</ele>
  <time>2026-09-02T22:12:04Z</time>
  <course>182.63</course>
  <speed>0.18</speed>
  <fix>3d</fix>
</trkpt>
<trkpt lat="33.810306" lon="-118.3938677">
  <ele>-2.07</ele>
  <time>2026-09-02T22:12:04Z</time>
  <course>185.05</course>
  <speed>0.21377558326431947</speed>
  <fix>3d</fix>
</trkpt>
<trkpt lat="33.8103061" lon="-118.3938675">
  <ele>-2.01</ele>
  <time>2026-09-02T22:12:04Z</time>
  <course>183.05</course>
  <speed>0.22</speed>
  <fix>3d</fix>
</trkpt>
<trkpt lat="33.8103058" lon="-118.3938677">
  <ele>-2.068</ele>
  <time>2026-09-02T22:12:04Z</time>
  <course>185.04</course>
  <speed>0.223606797749979</speed>
  <fix>3d</fix>
</trkpt>
<trkpt lat="33.8103061" lon="-118.3938675">
  <ele>-2.01</ele>
  <time>2026-09-02T22:12:04Z</time>
  <course>183.05</course>
  <speed>0.22</speed>
  <fix>3d</fix>
</trkpt>
<trkpt lat="33.8103056" lon="-118.3938678">
  <ele>-2.066</ele>
  <time>2026-09-02T22:12:04Z</time>
  <course>185.04</course>
  <speed>0.23345235059857505</speed>
  <fix>3d</fix>
</trkpt>
<trkpt lat="33.8103057" lon="-118.3938675">
  <ele>-2.01</ele>
  <time>2026-09-02T22:12:04Z</time>
  <course>183.47</course>
  <speed>0.25</speed>
  <fix>3d</fix>
</trkpt>
<trkpt lat="33.8103053" lon="-118.3938678">
  <ele>-2.066</ele>
  <time>2026-09-02T22:12:04Z</time>
  <course>185.04</course>
  <speed>0.24331050121192876</speed>
  <fix>3d</fix>
</trkpt>
<trkpt lat="33.8103057" lon="-118.3938675">
  <ele>-2.01</ele>
  <time>2026-09-02T22:12:04Z</time>
  <course>183.47</course>
  <speed>0.25</speed>
  <fix>3d</fix>
</trkpt>
<trkpt lat="33.8103051" lon="-118.3938678">
  <ele>-2.065</ele>
  <time>2026-09-02T22:12:04Z</time>
  <course>185.04</course>
  <speed>0.25317977802344327</speed>
  <fix>3d</fix>
</trkpt>
<trkpt lat="33.8103052" lon="-118.3938676">
  <ele>-2.01</ele>
  <time>2026-09-02T22:12:04Z</time>
  <course>183.93</course>
  <speed>0.27</speed>
  <fix>3d</fix>
</trkpt>
<trkpt lat="33.8103048" lon="-118.3938678">
  <ele>-2.066</ele>
  <time>2026-09-02T22:12:04Z</time>
  <course>185.03</course>
  <speed>0.26305892875931813</speed>
  <fix>3d</fix>
</trkpt>
<trkpt lat="33.8103052" lon="-118.3938676">
  <ele>-2.01</ele>
  <time>2026-09-02T22:12:04Z</time>
  <course>183.93</course>
  <speed>0.27</speed>
  <fix>3d</fix>
</trkpt>
<trkpt lat="33.8103046" lon="-118.3938678">
  <ele>-2.069</ele>
  <time>2026-09-02T22:12:04Z</time>
  <course>185.04</course>
  <speed>0.26305892875931813</speed>
  <fix>3d</fix>
</trkpt>
<trkpt lat="33.8103047" lon="-118.3938676">
  <ele>-2.02</ele>
  <time>2026-09-02T22:12:04Z</time>
  <course>184.38</course>
  <speed>0.28</speed>
  <fix>3d</fix>
</trkpt>
<trkpt lat="33.8103043" lon="-118.3938679">
  <ele>-2.072</ele>
  <time>2026-09-02T22:12:04Z</time>
  <course>185.03</course>
  <speed>0.26476404589747454</speed>
  <fix>3d</fix>
</trkpt>
<trkpt lat="33.8103047" lon="-118.3938676">
  <ele>-2.02</ele>
  <time>2026-09-02T22:12:04Z</time>
  <course>184.38</course>
  <speed>0.28</speed>
  <fix>3d</fix>
</trkpt>
<trkpt lat="33.8103041" lon="-118.3938679">
  <ele>-2.075</ele>
  <time>2026-09-02T22:12:04Z</time>
  <course>185.03</course>
  <speed>0.2745906043549196</speed>
  <fix>3d</fix>
</trkpt>
<trkpt lat="33.8103042" lon="-118.3938676">
  <ele>-2.02</ele>
  <time>2026-09-02T22:12:04Z</time>
  <course>184.74</course>
  <speed>0.29</speed>
  <fix>3d</fix>
</trkpt>
<trkpt lat="33.8103038" lon="-118.3938679">
  <ele>-2.078</ele>
  <time>2026-09-02T22:12:04Z</time>
  <course>185.03</course>
  <speed>0.2745906043549196</speed>
  <fix>3d</fix>
</trkpt>
<trkpt lat="33.8103042" lon="-118.3938676">
  <ele>-2.02</ele>
  <time>2026-09-02T22:12:04Z</time>
  <course>184.74</course>
  <speed>0.29</speed>
  <fix>3d</fix>
</trkpt>
<trkpt lat="33.8103035" lon="-118.3938679">
  <ele>-2.079</ele>
  <time>2026-09-02T22:12:04Z</time>
  <course>185.03</course>
  <speed>0.2745906043549196</speed>
  <fix>3d</fix>
</trkpt>
<trkpt lat="33.8103036" lon="-118.3938677">
  <ele>-2.02</ele>
  <time>2026-09-02T22:12:04Z</time>
  <course>185.08</course>
  <speed>0.3</speed>
  <fix>3d</fix>
</trkpt>
<trkpt lat="33.8103032" lon="-118.393868">
  <ele>-2.079</ele>
  <time>2026-09-02T22:12:04Z</time>
  <course>185.03</course>
  <speed>0.2745906043549196</speed>
  <fix>3d</fix>
</trkpt>
<trkpt lat="33.8103036" lon="-118.3938677">
  <ele>-2.02</ele>
  <time>2026-09-02T22:12:04Z</time>
  <course>185.08</course>
  <speed>0.3</speed>
  <fix>3d</fix>
</trkpt>
<trkpt lat="33.810303" lon="-118.393868">
  <ele>-2.079</ele>
  <time>2026-09-02T22:12:04Z</time>
  <course>185.03</course>
  <speed>0.28442925306655786</speed>
  <fix>3d</fix>
</trkpt>
<trkpt lat="33.8103031" lon="-118.3938678">
  <ele>-2.03</ele>
  <time>2026-09-02T22:12:04Z</time>
  <course>185.41</course>
  <speed>0.31</speed>
  <fix>3d</fix>
</trkpt>
<trkpt lat="33.8103027" lon="-118.393868">
  <ele>-2.078</ele>
  <time>2026-09-02T22:12:04Z</time>
  <course>185.03</course>
  <speed>0.28442925306655786</speed>
  <fix>3d</fix>
</trkpt>
<trkpt lat="33.8103031" lon="-118.3938678">
  <ele>-2.03</ele>
  <time>2026-09-02T22:12:04Z</time>
  <course>185.41</course>
  <speed>0.31</speed>
  <fix>3d</fix>
</trkpt>
<trkpt lat="33.8103024" lon="-118.3938681">
  <ele>-2.076</ele>
  <time>2026-09-02T22:12:04Z</time>
  <course>185.04</course>
  <speed>0.28442925306655786</speed>
  <fix>3d</fix>
</trkpt>
<trkpt lat="33.8103025" lon="-118.3938678">
  <ele>-2.02</ele>
  <time>2026-09-02T22:12:04Z</time>
  <course>185.64</course>
  <speed>0.31</speed>
  <fix>3d</fix>
</trkpt>
<trkpt lat="33.8103021" lon="-118.3938681">
  <ele>-2.073</ele>
  <time>2026-09-02T22:12:04Z</time>
  <course>185.04</course>
  <speed>0.28442925306655786</speed>
  <fix>3d</fix>
</trkpt>
<trkpt lat="33.8103025" lon="-118.3938678">
  <ele>-2.02</ele>
  <time>2026-09-02T22:12:04Z</time>
  <course>185.64</course>
  <speed>0.31</speed>
  <fix>3d</fix>
</trkpt>
<trkpt lat="33.8103018" lon="-118.3938681">
  <ele>-2.07</ele>
  <time>2026-09-02T22:12:04Z</time>
  <course>185.04</course>
  <speed>0.28442925306655786</speed>
  <fix>3d</fix>
</trkpt>
<trkpt lat="33.8103019" lon="-118.3938679">
  <ele>-2.02</ele>
  <time>2026-09-02T22:12:04Z</time>
  <course>185.8</course>
  <speed>0.31</speed>
  <fix>3d</fix>
</trkpt>
<trkpt lat="33.8103016" lon="-118.3938682">
  <ele>-2.069</ele>
  <time>2026-09-02T22:12:04Z</time>
  <course>185.04</course>
  <speed>0.28442925306655786</speed>
  <fix>3d</fix>
</trkpt>
<trkpt lat="33.8103019" lon="-118.3938679">
  <ele>-2.02</ele>
  <time>2026-09-02T22:12:04Z</time>
  <course>185.8</course>
  <speed>0.31</speed>
  <fix>3d</fix>
</trkpt>
<trkpt lat="33.8103013" lon="-118.3938682">
  <ele>-2.068</ele>
  <time>2026-09-02T22:12:04Z</time>
  <course>185.04</course>
  <speed>0.28442925306655786</speed>
  <fix>3d</fix>
</trkpt>
<trkpt lat="33.8103014" lon="-118.393868">
  <ele>-2.01</ele>
  <time>2026-09-02T22:12:04Z</time>
  <course>185.94</course>
  <speed>0.31</speed>
  <fix>3d</fix>
</trkpt>
<trkpt lat="33.810301" lon="-118.3938682">
  <ele>-2.067</ele>
  <time>2026-09-02T22:12:04Z</time>
  <course>185.03</course>
  <speed>0.28442925306655786</speed>
  <fix>3d</fix>
</trkpt>
<trkpt lat="33.8103014" lon="-118.393868">
  <ele>-2.01</ele>
  <time>2026-09-02T22:12:04Z</time>
  <course>185.94</course>
  <speed>0.31</speed>
  <fix>3d</fix>
</trkpt>
<trkpt lat="33.8103007" lon="-118.3938683">
  <ele>-2.067</ele>
  <time>2026-09-02T22:12:04Z</time>
  <course>185.04</course>
  <speed>0.28442925306655786</speed>
  <fix>3d</fix>
</trkpt>
<trkpt lat="33.8103008" lon="-118.393868">
  <ele>-2.01</ele>
  <time>2026-09-02T22:12:04Z</time>
  <course>186.02</course>
  <speed>0.31</speed>
  <fix>3d</fix>
</trkpt>
<trkpt lat="33.8103004" lon="-118.3938683">
  <ele>-2.067</ele>
  <time>2026-09-02T22:12:04Z</time>
  <course>185.04</course>
  <speed>0.28442925306655786</speed>
  <fix>3d</fix>
</trkpt>
<trkpt lat="33.8103008" lon="-118.393868">
  <ele>-2.01</ele>
  <time>2026-09-02T22:12:04Z</time>
  <course>186.02</course>
  <speed>0.31</speed>
  <fix>3d</fix>
</trkpt>
<trkpt lat="33.8103001" lon="-118.3938683">
  <ele>-2.067</ele>
  <time>2026-09-02T22:12:04Z</time>
  <course>185.04</course>
  <speed>0.28442925306655786</speed>
  <fix>3d</fix>
</trkpt>
<trkpt lat="33.8103002" lon="-118.3938681">
  <ele>-2.01</ele>
  <time>2026-09-02T22:12:04Z</time>
  <course>186.04</course>
  <speed>0.31</speed>
  <fix>3d</fix>
</trkpt>
<trkpt lat="33.8102998" lon="-118.3938683">
  <ele>-2.068</ele>
  <time>2026-09-02T22:12:04Z</time>
  <course>185.04</course>
  <speed>0.2745906043549196</speed>
  <fix>3d</fix>
</trkpt>
<trkpt lat="33.8103002" lon="-118.3938681">
  <ele>-2.01</ele>
  <time>2026-09-02T22:12:04Z</time>
  <course>186.04</course>
  <speed>0.31</speed>
  <fix>3d</fix>
</trkpt>
<trkpt lat="33.8102996" lon="-118.3938684">
  <ele>-2.069</ele>
  <time>2026-09-02T22:12:04Z</time>
  <course>185.04</course>
  <speed>0.24331050121192876</speed>
  <fix>3d</fix>
</trkpt>
<trkpt lat="33.8102997" lon="-118.3938682">
  <ele>-2.02</ele>
  <time>2026-09-02T22:12:04Z</time>
  <course>186.13</course>
  <speed>0.31</speed>
  <fix>3d</fix>
</trkpt>
<trkpt lat="33.8102995" lon="-118.3938684">
  <ele>-2.07</ele>
  <time>2026-09-02T22:12:04Z</time>
  <course>185.05</course>
  <speed>0.23345235059857505</speed>
  <fix>3d</fix>
</trkpt>
<trkpt lat="33.8102994" lon="-118.3938684">
  <ele>-2.071</ele>
  <time>2026-09-02T22:12:04Z</time>
  <course>185.05</course>
  <speed>0.21377558326431947</speed>
  <fix>3d</fix>
</trkpt>
<trkpt lat="33.8102997" lon="-118.3938682">
  <ele>-2.02</ele>
  <time>2026-09-02T22:12:04Z</time>
  <course>186.13</course>
  <speed>0.31</speed>
  <fix>3d</fix>
</trkpt>
<trkpt lat="33.8102992" lon="-118.3938684">
  <ele>-2.072</ele>
  <time>2026-09-02T22:12:04Z</time>
  <course>185.06</course>
  <speed>0.18439088914585774</speed>
  <fix>3d</fix>
</trkpt>
<trkpt lat="33.8102991" lon="-118.3938682">
  <ele>-2.02</ele>
  <time>2026-09-02T22:12:04Z</time>
  <course>186.45</course>
  <speed>0.27</speed>
  <fix>3d</fix>
</trkpt>
<trkpt lat="33.810299" lon="-118.3938684">
  <ele>-2.073</ele>
  <time>2026-09-02T22:12:04Z</time>
  <course>185.06</course>
  <speed>0.1649242250247064</speed>
  <fix>3d</fix>
</trkpt>
<trkpt lat="33.8102991" lon="-118.3938682">
  <ele>-2.02</ele>
  <time>2026-09-02T22:12:04Z</time>
  <course>186.45</course>
  <speed>0.27</speed>
  <fix>3d</fix>
</trkpt>
<trkpt lat="33.8102988" lon="-118.3938685">
  <ele>-2.074</ele>
  <time>2026-09-02T22:12:04Z</time>
  <course>185.06</course>
  <speed>0.14317821063276354</speed>
  <fix>3d</fix>
</trkpt>
<trkpt lat="33.8102987" lon="-118.3938683">
  <ele>-2.02</ele>
  <time>2026-09-02T22:12:04Z</time>
  <course>186.98</course>
  <speed>0.21</speed>
  <fix>3d</fix>
</trkpt>
<trkpt lat="33.8102986" lon="-118.3938685">
  <ele>-2.074</ele>
  <time>2026-09-02T22:12:04Z</time>
  <course>185.04</course>
  <speed>0.12369316876852982</speed>
  <fix>3d</fix>
</trkpt>
<trkpt lat="33.8102987" lon="-118.3938683">
  <ele>-2.02</ele>
  <time>2026-09-02T22:12:04Z</time>
  <course>186.98</course>
  <speed>0.21</speed>
  <fix>3d</fix>
</trkpt>
<trkpt lat="33.8102985" lon="-118.3938685">
  <ele>-2.074</ele>
  <time>2026-09-02T22:12:04Z</time>
  <course>185.03</course>
  <speed>0.1044030650891055</speed>
  <fix>3d</fix>
</trkpt>
<trkpt lat="33.8102983" lon="-118.3938684">
  <ele>-2.02</ele>
  <time>2026-09-02T22:12:04Z</time>
  <course>187.62</course>
  <speed>0.17</speed>
  <fix>3d</fix>
</trkpt>
<trkpt lat="33.8102984" lon="-118.3938685">
  <ele>-2.074</ele>
  <time>2026-09-02T22:12:04Z</time>
  <course>185.04</course>
  <speed>0.0854400374531753</speed>
  <fix>3d</fix>
</trkpt>
<trkpt lat="33.8102983" lon="-118.3938684">
  <ele>-2.02</ele>
  <time>2026-09-02T22:12:04Z</time>
  <course>187.62</course>
  <speed>0.17</speed>
  <fix>3d</fix>
</trkpt>
<trkpt lat="33.8102983" lon="-118.3938685">
  <ele>-2.075</ele>
  <time>2026-09-02T22:12:04Z</time>
  <course>185.06</course>
  <speed>0.0632455532033676</speed>
  <fix>3d</fix>
</trkpt>
<trkpt lat="33.8102981" lon="-118.3938684">
  <ele>-2.02</ele>
  <time>2026-09-02T22:12:04Z</time>
  <course>188.56</course>
  <speed>0.13</speed>
  <fix>3d</fix>
</trkpt>
<trkpt lat="33.8102982" lon="-118.3938685">
  <ele>-2.075</ele>
  <time>2026-09-02T22:12:04Z</time>
  <course>185.07</course>
  <speed>0.053851648071345036</speed>
  <fix>3d</fix>
</trkpt>
<trkpt lat="33.8102981" lon="-118.3938684">
  <ele>-2.02</ele>
  <time>2026-09-02T22:12:04Z</time>
  <course>188.56</course>
  <speed>0.13</speed>
  <fix>3d</fix>
</trkpt>
<trkpt lat="33.8102981" lon="-118.3938686">
  <ele>-2.074</ele>
  <time>2026-09-02T22:12:04Z</time>
  <course>185.08</course>
  <speed>0.03605551275463989</speed>
  <fix>3d</fix>
</trkpt>
<trkpt lat="33.8102978" lon="-118.3938685">
  <ele>-2.02</ele>
  <time>2026-09-02T22:12:04Z</time>
  <course>189.89</course>
  <speed>0.09</speed>
  <fix>3d</fix>
</trkpt>
<trkpt lat="33.8102981" lon="-118.3938686">
  <ele>-2.072</ele>
  <time>2026-09-02T22:12:04Z</time>
  <course>185.08</course>
  <speed>0.0282842712474619</speed>
  <fix>3d</fix>
</trkpt>
<trkpt lat="33.8102978" lon="-118.3938685">
  <ele>-2.02</ele>
  <time>2026-09-02T22:12:04Z</time>
  <course>189.89</course>
  <speed>0.09</speed>
  <fix>3d</fix>
</trkpt>
<trkpt lat="33.810298" lon="-118.3938686">
  <ele>-2.072</ele>
  <time>2026-09-02T22:12:04Z</time>
  <course>185.09</course>
  <speed>0.022360679774997897</speed>
  <fix>3d</fix>
</trkpt>
<trkpt lat="33.810298" lon="-118.3938686">
  <ele>-2.071</ele>
  <time>2026-09-02T22:12:04Z</time>
  <course>185.09</course>
  <speed>0.02</speed>
  <fix>3d</fix>
</trkpt>
<trkpt lat="33.8102977" lon="-118.3938685">
  <ele>-2.01</ele>
  <time>2026-09-02T22:12:04Z</time>
  <course>191.92</course>
  <speed>0.06</speed>
  <fix>3d</fix>
</trkpt>
<trkpt lat="33.810298" lon="-118.3938686">
  <ele>-2.07</ele>
  <time>2026-09-02T22:12:04Z</time>
  <course>185.09</course>
  <speed>0.01</speed>
  <fix>3d</fix>
</trkpt>
<trkpt lat="33.8102977" lon="-118.3938685">
  <ele>-2.01</ele>
  <time>2026-09-02T22:12:04Z</time>
  <course>191.92</course>
  <speed>0.06</speed>
  <fix>3d</fix>
</trkpt>
<trkpt lat="33.8102979" lon="-118.3938686">
  <ele>-2.071</ele>
  <time>2026-09-02T22:12:04Z</time>
  <course>185.09</course>
  <speed>0.01414213562373095</speed>
  <fix>3d</fix>
</trkpt>
<trkpt lat="33.8102977" lon="-118.3938685">
  <ele>-2.01</ele>
  <time>2026-09-02T22:12:04Z</time>
  <course>196.0</course>
  <speed>0.03</speed>
  <fix>3d</fix>
</trkpt>
<trkpt lat="33.8102979" lon="-118.3938686">
  <ele>-2.071</ele>
  <time>2026-09-02T22:12:04Z</time>
  <course>185.08</course>
  <speed>0.022360679774997897</speed>
  <fix>3d</fix>
</trkpt>
<trkpt lat="33.8102977" lon="-118.3938685">
  <ele>-2.01</ele>
  <time>2026-09-02T22:12:04Z</time>
  <course>196.0</course>
  <speed>0.03</speed>
  <fix>3d</fix>
</trkpt>
<trkpt lat="33.8102979" lon="-118.3938686">
  <ele>-2.071</ele>
  <time>2026-09-02T22:12:04Z</time>
  <course>185.08</course>
  <speed>0.022360679774997897</speed>
  <fix>3d</fix>
</trkpt>
<trkpt lat="33.8102977" lon="-118.3938685">
  <ele>-2.01</ele>
  <time>2026-09-02T22:12:04Z</time>
  <course>207.65</course>
  <speed>0.01</speed>
  <fix>3d</fix>
</trkpt>
<trkpt lat="33.8102979" lon="-118.3938686">
  <ele>-2.07</ele>
  <time>2026-09-02T22:12:04Z</time>
  <course>185.09</course>
  <speed>0.022360679774997897</speed>
  <fix>3d</fix>
</trkpt>
<trkpt lat="33.8102977" lon="-118.3938685">
  <ele>-2.01</ele>
  <time>2026-09-02T22:12:04Z</time>
  <course>207.65</course>
  <speed>0.01</speed>
  <fix>3d</fix>
</trkpt>
<trkpt lat="33.8102979" lon="-118.3938686">
  <ele>-2.069</ele>
  <time>2026-09-02T22:12:04Z</time>
  <course>185.12</course>
  <speed>0.022360679774997897</speed>
  <fix>3d</fix>
</trkpt>
<trkpt lat="33.8102977" lon="-118.3938685">
  <ele>-2.01</ele>
  <time>2026-09-02T22:12:04Z</time>
  <course>292.12</course>
  <speed>0.0</speed>
  <fix>3d</fix>
</trkpt>
<trkpt lat="33.8102979" lon="-118.3938686">
  <ele>-2.067</ele>
  <time>2026-09-02T22:12:04Z</time>
  <course>185.1</course>
  <speed>0.0316227766016838</speed>
  <fix>3d</fix>
</trkpt>
<trkpt lat="33.8102977" lon="-118.3938685">
  <ele>-2.01</ele>
  <time>2026-09-02T22:12:04Z</time>
  <course>292.12</course>
  <speed>0.0</speed>
  <fix>3d</fix>
</trkpt>
<trkpt lat="33.8102979" lon="-118.3938686">
  <ele>-2.066</ele>
  <time>2026-09-02T22:12:04Z</time>
  <course>185.09</course>
  <speed>0.0316227766016838</speed>
  <fix>3d</fix>
</trkpt>
<trkpt lat="33.8102977" lon="-118.3938686">
  <ele>-2.01</ele>
  <time>2026-09-02T22:12:04Z</time>
  <course>336.22</course>
  <speed>0.0</speed>
  <fix>3d</fix>
</trkpt>
<trkpt lat="33.8102979" lon="-118.3938686">
  <ele>-2.065</ele>
  <time>2026-09-02T22:12:04Z</time>
  <course>185.1</course>
  <speed>0.0316227766016838</speed>
  <fix>3d</fix>
</trkpt>
<trkpt lat="33.8102977" lon="-118.3938686">
  <ele>-2.01</ele>
  <time>2026-09-02T22:12:04Z</time>
  <course>336.22</course>
  <speed>0.0</speed>
  <fix>3d</fix>
</trkpt>
<trkpt lat="33.8102979" lon="-118.3938686">
  <ele>-2.066</ele>
  <time>2026-09-02T22:12:04Z</time>
  <course>185.12</course>
  <speed>0.0316227766016838</speed>
  <fix>3d</fix>
</trkpt>
<trkpt lat="33.8102977" lon="-118.3938686">
  <ele>-2.01</ele>
  <time>2026-09-02T22:12:04Z</time>
  <course>342.09</course>
  <speed>0.0</speed>
  <fix>3d</fix>
</trkpt>
<trkpt lat="33.8102979" lon="-118.3938686">
  <ele>-2.067</ele>
  <time>2026-09-02T22:12:04Z</time>
  <course>185.13</course>
  <speed>0.0316227766016838</speed>
  <fix>3d</fix>
</trkpt>
<trkpt lat="33.8102979" lon="-118.3938686">
  <ele>-2.069</ele>
  <time>2026-09-02T22:12:04Z</time>
  <course>185.14</course>
  <speed>0.0316227766016838</speed>
  <fix>3d</fix>
</trkpt>
<trkpt lat="33.8102977" lon="-118.3938686">
  <ele>-2.01</ele>
  <time>2026-09-02T22:12:04Z</time>
  <course>342.09</course>
  <speed>0.0</speed>
  <fix>3d</fix>
</trkpt>
<trkpt lat="33.8102979" lon="-118.3938686">
  <ele>-2.072</ele>
  <time>2026-09-02T22:12:04Z</time>
  <course>185.14</course>
  <speed>0.01414213562373095</speed>
  <fix>3d</fix>
</trkpt>
<trkpt lat="33.8102977" lon="-118.3938686">
  <ele>-2.01</ele>
  <time>2026-09-02T22:12:04Z</time>
  <course>346.7</course>
  <speed>0.0</speed>
  <fix>3d</fix>
</trkpt>
<trkpt lat="33.8102979" lon="-118.3938686">
  <ele>-2.073</ele>
  <time>2026-09-02T22:12:04Z</time>
  <course>185.12</course>
  <speed>0.06082762530298219</speed>
  <fix>3d</fix>
</trkpt>
<trkpt lat="33.8102977" lon="-118.3938686">
  <ele>-2.01</ele>
  <time>2026-09-02T22:12:04Z</time>
  <course>346.7</course>
  <speed>0.0</speed>
  <fix>3d</fix>
</trkpt>
<trkpt lat="33.8102978" lon="-118.3938686">
  <ele>-2.074</ele>
  <time>2026-09-02T22:12:04Z</time>
  <course>185.09</course>
  <speed>0.1118033988749895</speed>
  <fix>3d</fix>
</trkpt>
<trkpt lat="33.8102976" lon="-118.3938686">
  <ele>-2.02</ele>
  <time>2026-09-02T22:12:04Z</time>
  <course>184.45</course>
  <speed>0.04</speed>
  <fix>3d</fix>
</trkpt>
<trkpt lat="33.8102977" lon="-118.3938687">
  <ele>-2.074</ele>
  <time>2026-09-02T22:12:04Z</time>
  <course>185.07</course>
  <speed>0.16124515496597097</speed>
  <fix>3d</fix>
</trkpt>
<trkpt lat="33.8102976" lon="-118.3938686">
  <ele>-2.02</ele>
  <time>2026-09-02T22:12:04Z</time>
  <course>184.45</course>
  <speed>0.04</speed>
  <fix>3d</fix>
</trkpt>
<trkpt lat="33.8102975" lon="-118.3938687">
  <ele>-2.073</ele>
  <time>2026-09-02T22:12:04Z</time>
  <course>185.06</course>
  <speed>0.191049731745428</speed>
  <fix>3d</fix>
</trkpt>
<trkpt lat="33.8102975" lon="-118.3938686">
  <ele>-2.02</ele>
  <time>2026-09-02T22:12:04Z</time>
  <course>183.05</course>
  <speed>0.14</speed>
  <fix>3d</fix>
</trkpt>
<trkpt lat="33.8102973" lon="-118.3938687">
  <ele>-2.072</ele>
  <time>2026-09-02T22:12:04Z</time>
  <course>185.05</course>
  <speed>0.2220360331117452</speed>
  <fix>3d</fix>
</trkpt>
<trkpt lat="33.8102975" lon="-118.3938686">
  <ele>-2.02</ele>
  <time>2026-09-02T22:12:04Z</time>
  <course>183.05</course>
  <speed>0.14</speed>
  <fix>3d</fix>
</trkpt>
<trkpt lat="33.810297" lon="-118.3938687">
  <ele>-2.071</ele>
  <time>2026-09-02T22:12:04Z</time>
  <course>185.05</course>
  <speed>0.25179356624028343</speed>
  <fix>3d</fix>
</trkpt>
<trkpt lat="33.8102971" lon="-118.3938686">
  <ele>-2.02</ele>
  <time>2026-09-02T22:12:04Z</time>
  <course>183.06</course>
  <speed>0.22</speed>
  <fix>3d</fix>
</trkpt>
<trkpt lat="33.8102968" lon="-118.3938687">
  <ele>-2.071</ele>
  <time>2026-09-02T22:12:04Z</time>
  <course>185.05</course>
  <speed>0.27166155414412246</speed>
  <fix>3d</fix>
</trkpt>
<trkpt lat="33.8102971" lon="-118.3938686">
  <ele>-2.02</ele>
  <time>2026-09-02T22:12:04Z</time>
  <course>183.06</course>
  <speed>0.22</speed>
  <fix>3d</fix>
</trkpt>
<trkpt lat="33.8102965" lon="-118.3938688">
  <ele>-2.072</ele>
  <time>2026-09-02T22:12:04Z</time>
  <course>185.04</course>
  <speed>0.291547594742265</speed>
  <fix>3d</fix>
</trkpt>
<trkpt lat="33.8102967" lon="-118.3938686">
  <ele>-2.02</ele>
  <time>2026-09-02T22:12:04Z</time>
  <course>183.24</course>
  <speed>0.28</speed>
  <fix>3d</fix>
</trkpt>
<trkpt lat="33.8102962" lon="-118.3938688">
  <ele>-2.072</ele>
  <time>2026-09-02T22:12:04Z</time>
  <course>185.04</course>
  <speed>0.3125699921617557</speed>
  <fix>3d</fix>
</trkpt>
<trkpt lat="33.8102967" lon="-118.3938686">
  <ele>-2.02</ele>
  <time>2026-09-02T22:12:04Z</time>
  <course>183.24</course>
  <speed>0.28</speed>
  <fix>3d</fix>
</trkpt>
<trkpt lat="33.8102959" lon="-118.3938688">
  <ele>-2.072</ele>
  <time>2026-09-02T22:12:04Z</time>
  <course>185.04</course>
  <speed>0.32249030993194194</speed>
  <fix>3d</fix>
</trkpt>
<trkpt lat="33.8102961" lon="-118.3938687">
  <ele>-2.02</ele>
  <time>2026-09-02T22:12:04Z</time>
  <course>183.56</course>
  <speed>0.32</speed>
  <fix>3d</fix>
</trkpt>
<trkpt lat="33.8102956" lon="-118.3938688">
  <ele>-2.072</ele>
  <time>2026-09-02T22:12:04Z</time>
  <course>185.04</course>
  <speed>0.3423448553724738</speed>
  <fix>3d</fix>
</trkpt>
<trkpt lat="33.8102961" lon="-118.3938687">
  <ele>-2.02</ele>
  <time>2026-09-02T22:12:04Z</time>
  <course>183.56</course>
  <speed>0.32</speed>
  <fix>3d</fix>
</trkpt>
<trkpt lat="33.8102953" lon="-118.3938689">
  <ele>-2.072</ele>
  <time>2026-09-02T22:12:04Z</time>
  <course>185.04</course>
  <speed>0.3522782990761707</speed>
  <fix>3d</fix>
</trkpt>
<trkpt lat="33.8102955" lon="-118.3938687">
  <ele>-2.02</ele>
  <time>2026-09-02T22:12:04Z</time>
  <course>183.92</course>
  <speed>0.35</speed>
  <fix>3d</fix>
</trkpt>
<trkpt lat="33.8102949" lon="-118.3938689">
  <ele>-2.072</ele>
  <time>2026-09-02T22:12:04Z</time>
  <course>185.03</course>
  <speed>0.3622154055254967</speed>
  <fix>3d</fix>
</trkpt>
<trkpt lat="33.8102955" lon="-118.3938687">
  <ele>-2.02</ele>
  <time>2026-09-02T22:12:04Z</time>
  <course>183.92</course>
  <speed>0.35</speed>
  <fix>3d</fix>
</trkpt>
<trkpt lat="33.8102946" lon="-118.3938689">
  <ele>-2.071</ele>
  <time>2026-09-02T22:12:04Z</time>
  <course>185.03</course>
  <speed>0.37336309405188944</speed>
  <fix>3d</fix>
</trkpt>
<trkpt lat="33.8102949" lon="-118.3938687">
  <ele>-2.02</ele>
  <time>2026-09-02T22:12:05Z</time>
  <course>184.24</course>
  <speed>0.37</speed>
  <fix>3d</fix>
</trkpt>
<trkpt lat="33.8102942" lon="-118.393869">
  <ele>-2.07</ele>
  <time>2026-09-02T22:12:05Z</time>
  <course>185.03</course>
  <speed>0.37336309405188944</speed>
  <fix>3d</fix>
</trkpt>
<trkpt lat="33.8102949" lon="-118.3938687">
  <ele>-2.02</ele>
  <time>2026-09-02T22:12:05Z</time>
  <course>184.24</course>
  <speed>0.37</speed>
  <fix>3d</fix>
</trkpt>
<trkpt lat="33.8102939" lon="-118.393869">
  <ele>-2.07</ele>
  <time>2026-09-02T22:12:05Z</time>
  <course>185.03</course>
  <speed>0.383275357934736</speed>
  <fix>3d</fix>
</trkpt>
<trkpt lat="33.8102942" lon="-118.3938688">
  <ele>-2.02</ele>
  <time>2026-09-02T22:12:05Z</time>
  <course>184.6</course>
  <speed>0.39</speed>
  <fix>3d</fix>
</trkpt>
<trkpt lat="33.8102935" lon="-118.393869">
  <ele>-2.07</ele>
  <time>2026-09-02T22:12:05Z</time>
  <course>185.03</course>
  <speed>0.383275357934736</speed>
  <fix>3d</fix>
</trkpt>
<trkpt lat="33.8102942" lon="-118.3938688">
  <ele>-2.02</ele>
  <time>2026-09-02T22:12:05Z</time>
  <course>184.6</course>
  <speed>0.39</speed>
  <fix>3d</fix>
</trkpt>
<trkpt lat="33.8102931" lon="-118.3938691">
  <ele>-2.07</ele>
  <time>2026-09-02T22:12:05Z</time>
  <course>185.03</course>
  <speed>0.39319206502675</speed>
  <fix>3d</fix>
</trkpt>
<trkpt lat="33.8102934" lon="-118.3938689">
  <ele>-2.02</ele>
  <time>2026-09-02T22:12:05Z</time>
  <course>184.97</course>
  <speed>0.41</speed>
  <fix>3d</fix>
</trkpt>
<trkpt lat="33.8102927" lon="-118.3938691">
  <ele>-2.07</ele>
  <time>2026-09-02T22:12:05Z</time>
  <course>185.03</course>
  <speed>0.39319206502675</speed>
  <fix>3d</fix>
</trkpt>
<trkpt lat="33.8102934" lon="-118.3938689">
  <ele>-2.02</ele>
  <time>2026-09-02T22:12:05Z</time>
  <course>184.97</course>
  <speed>0.41</speed>
  <fix>3d</fix>
</trkpt>
<trkpt lat="33.8102924" lon="-118.3938692">
  <ele>-2.07</ele>
  <time>2026-09-02T22:12:05Z</time>
  <course>185.03</course>
  <speed>0.40311288741492746</speed>
  <fix>3d</fix>
</trkpt>
<trkpt lat="33.8102927" lon="-118.393869">
  <ele>-2.02</ele>
  <time>2026-09-02T22:12:05Z</time>
  <course>185.25</course>
  <speed>0.42</speed>
  <fix>3d</fix>
</trkpt>
<trkpt lat="33.810292" lon="-118.3938692">
  <ele>-2.071</ele>
  <time>2026-09-02T22:12:05Z</time>
  <course>185.03</course>
  <speed>0.40311288741492746</speed>
  <fix>3d</fix>
</trkpt>
<trkpt lat="33.8102927" lon="-118.393869">
  <ele>-2.02</ele>
  <time>2026-09-02T22:12:05Z</time>
  <course>185.25</course>
  <speed>0.42</speed>
  <fix>3d</fix>
</trkpt>
<trkpt lat="33.8102916" lon="-118.3938692">
  <ele>-2.071</ele>
  <time>2026-09-02T22:12:05Z</time>
  <course>185.03</course>
  <speed>0.40311288741492746</speed>
  <fix>3d</fix>
</trkpt>
<trkpt lat="33.8102919" lon="-118.393869">
  <ele>-2.02</ele>
  <time>2026-09-02T22:12:05Z</time>
  <course>185.39</course>
  <speed>0.43</speed>
  <fix>3d</fix>
</trkpt>
<trkpt lat="33.8102912" lon="-118.3938693">
  <ele>-2.071</ele>
  <time>2026-09-02T22:12:05Z</time>
  <course>185.03</course>
  <speed>0.40311288741492746</speed>
  <fix>3d</fix>
</trkpt>
<trkpt lat="33.8102919" lon="-118.393869">
  <ele>-2.02</ele>
  <time>2026-09-02T22:12:05Z</time>
  <course>185.39</course>
  <speed>0.43</speed>
  <fix>3d</fix>
</trkpt>
<trkpt lat="33.8102908" lon="-118.3938693">
  <ele>-2.072</ele>
  <time>2026-09-02T22:12:05Z</time>
  <course>185.03</course>
  <speed>0.41303752856126763</speed>
  <fix>3d</fix>
</trkpt>
<trkpt lat="33.8102911" lon="-118.3938691">
  <ele>-2.02</ele>
  <time>2026-09-02T22:12:05Z</time>
  <course>185.51</course>
  <speed>0.43</speed>
  <fix>3d</fix>
</trkpt>
<trkpt lat="33.8102904" lon="-118.3938694">
  <ele>-2.073</ele>
  <time>2026-09-02T22:12:05Z</time>
  <course>185.03</course>
  <speed>0.41303752856126763</speed>
  <fix>3d</fix>
</trkpt>
<trkpt lat="33.8102911" lon="-118.3938691">
  <ele>-2.02</ele>
  <time>2026-09-02T22:12:05Z</time>
  <course>185.51</course>
  <speed>0.43</speed>
  <fix>3d</fix>
</trkpt>
<trkpt lat="33.81029" lon="-118.3938694">
  <ele>-2.075</ele>
  <time>2026-09-02T22:12:05Z</time>
  <course>185.03</course>
  <speed>0.41303752856126763</speed>
  <fix>3d</fix>
</trkpt>
<trkpt lat="33.8102904" lon="-118.3938692">
  <ele>-2.03</ele>
  <time>2026-09-02T22:12:05Z</time>
  <course>185.65</course>
  <speed>0.43</speed>
  <fix>3d</fix>
</trkpt>
<trkpt lat="33.8102896" lon="-118.3938694">
  <ele>-2.075</ele>
  <time>2026-09-02T22:12:05Z</time>
  <course>185.03</course>
  <speed>0.41303752856126763</speed>
  <fix>3d</fix>
</trkpt>
<trkpt lat="33.8102904" lon="-118.3938692">
  <ele>-2.03</ele>
  <time>2026-09-02T22:12:05Z</time>
  <course>185.65</course>
  <speed>0.43</speed>
  <fix>3d</fix>
</trkpt>
<trkpt lat="33.8102893" lon="-118.3938695">
  <ele>-2.075</ele>
  <time>2026-09-02T22:12:05Z</time>
  <course>185.03</course>
  <speed>0.41303752856126763</speed>
  <fix>3d</fix>
</trkpt>
<trkpt lat="33.8102896" lon="-118.3938693">
  <ele>-2.03</ele>
  <time>2026-09-02T22:12:05Z</time>
  <course>185.77</course>
  <speed>0.44</speed>
  <fix>3d</fix>
</trkpt>
<trkpt lat="33.8102889" lon="-118.3938695">
  <ele>-2.075</ele>
  <time>2026-09-02T22:12:05Z</time>
  <course>185.03</course>
  <speed>0.41303752856126763</speed>
  <fix>3d</fix>
</trkpt>
<trkpt lat="33.8102896" lon="-118.3938693">
  <ele>-2.03</ele>
  <time>2026-09-02T22:12:05Z</time>
  <course>185.77</course>
  <speed>0.44</speed>
  <fix>3d</fix>
</trkpt>
<trkpt lat="33.8102885" lon="-118.3938696">
  <ele>-2.076</ele>
  <time>2026-09-02T22:12:05Z</time>
  <course>185.03</course>
  <speed>0.41303752856126763</speed>
  <fix>3d</fix>
</trkpt>
<trkpt lat="33.8102887" lon="-118.3938694">
  <ele>-2.02</ele>
  <time>2026-09-02T22:12:05Z</time>
  <course>185.84</course>
  <speed>0.44</speed>
  <fix>3d</fix>
</trkpt>
<trkpt lat="33.8102881" lon="-118.3938696">
  <ele>-2.077</ele>
  <time>2026-09-02T22:12:05Z</time>
  <course>185.03</course>
  <speed>0.41303752856126763</speed>
  <fix>3d</fix>
</trkpt>
<trkpt lat="33.8102887" lon="-118.3938694">
  <ele>-2.02</ele>
  <time>2026-09-02T22:12:05Z</time>
  <course>185.84</course>
  <speed>0.44</speed>
  <fix>3d</fix>
</trkpt>
<trkpt lat="33.8102877" lon="-118.3938697">
  <ele>-2.077</ele>
  <time>2026-09-02T22:12:05Z</time>
  <course>185.04</course>
  <speed>0.39319206502675</speed>
  <fix>3d</fix>
</trkpt>
<trkpt lat="33.810288" lon="-118.3938695">
  <ele>-2.02</ele>
  <time>2026-09-02T22:12:05Z</time>
  <course>185.86</course>
  <speed>0.44</speed>
  <fix>3d</fix>
</trkpt>
<trkpt lat="33.8102873" lon="-118.3938697">
  <ele>-2.077</ele>
  <time>2026-09-02T22:12:05Z</time>
  <course>185.04</course>
  <speed>0.33376638536557274</speed>
  <fix>3d</fix>
</trkpt>
<trkpt lat="33.810288" lon="-118.3938695">
  <ele>-2.02</ele>
  <time>2026-09-02T22:12:05Z</time>
  <course>185.86</course>
  <speed>0.44</speed>
  <fix>3d</fix>
</trkpt>
<trkpt lat="33.8102873" lon="-118.3938697">
  <ele>-2.077</ele>
  <time>2026-09-02T22:12:05Z</time>
  <course>185.04</course>
  <speed>0.32249030993194194</speed>
  <fix>3d</fix>
</trkpt>
<trkpt lat="33.810287" lon="-118.3938697">
  <ele>-2.076</ele>
  <time>2026-09-02T22:12:05Z</time>
  <course>185.04</course>
  <speed>0.282842712474619</speed>
  <fix>3d</fix>
</trkpt>
<trkpt lat="33.8102872" lon="-118.3938696">
  <ele>-2.02</ele>
  <time>2026-09-02T22:12:05Z</time>
  <course>186.04</course>
  <speed>0.4</speed>
  <fix>3d</fix>
</trkpt>
<trkpt lat="33.8102868" lon="-118.3938698">
  <ele>-2.075</ele>
  <time>2026-09-02T22:12:05Z</time>
  <course>185.05</course>
  <speed>0.24331050121192876</speed>
  <fix>3d</fix>
</trkpt>
<trkpt lat="33.8102872" lon="-118.3938696">
  <ele>-2.02</ele>
  <time>2026-09-02T22:12:05Z</time>
  <course>186.04</course>
  <speed>0.4</speed>
  <fix>3d</fix>
</trkpt>
<trkpt lat="33.8102865" lon="-118.3938698">
  <ele>-2.074</ele>
  <time>2026-09-02T22:12:05Z</time>
  <course>185.06</course>
  <speed>0.21213203435596426</speed>
  <fix>3d</fix>
</trkpt>
<trkpt lat="33.8102866" lon="-118.3938697">
  <ele>-2.02</ele>
  <time>2026-09-02T22:12:05Z</time>
  <course>186.54</course>
  <speed>0.31</speed>
  <fix>3d</fix>
</trkpt>
<trkpt lat="33.8102863" lon="-118.3938698">
  <ele>-2.072</ele>
  <time>2026-09-02T22:12:05Z</time>
  <course>185.07</course>
  <speed>0.19235384061671343</speed>
  <fix>3d</fix>
</trkpt>
<trkpt lat="33.8102866" lon="-118.3938697">
  <ele>-2.02</ele>
  <time>2026-09-02T22:12:05Z</time>
  <course>186.54</course>
  <speed>0.31</speed>
  <fix>3d</fix>
</trkpt>
<trkpt lat="33.8102861" lon="-118.3938698">
  <ele>-2.071</ele>
  <time>2026-09-02T22:12:05Z</time>
  <course>185.08</course>
  <speed>0.17262676501632068</speed>
  <fix>3d</fix>
</trkpt>
<trkpt lat="33.8102861" lon="-118.3938698">
  <ele>-2.01</ele>
  <time>2026-09-02T22:12:05Z</time>
  <course>187.2</course>
  <speed>0.24</speed>
  <fix>3d</fix>
</trkpt>
<trkpt lat="33.810286" lon="-118.3938699">
  <ele>-2.07</ele>
  <time>2026-09-02T22:12:05Z</time>
  <course>185.1</course>
  <speed>0.15297058540778355</speed>
  <fix>3d</fix>
</trkpt>
<trkpt lat="33.8102861" lon="-118.3938698">
  <ele>-2.01</ele>
  <time>2026-09-02T22:12:05Z</time>
  <course>187.2</course>
  <speed>0.24</speed>
  <fix>3d</fix>
</trkpt>
<trkpt lat="33.8102858" lon="-118.3938699">
  <ele>-2.07</ele>
  <time>2026-09-02T22:12:05Z</time>
  <course>185.12</course>
  <speed>0.13152946437965907</speed>
  <fix>3d</fix>
</trkpt>
<trkpt lat="33.8102857" lon="-118.3938698">
  <ele>-2.01</ele>
  <time>2026-09-02T22:12:05Z</time>
  <course>187.56</course>
  <speed>0.19</speed>
  <fix>3d</fix>
</trkpt>
<trkpt lat="33.8102857" lon="-118.3938699">
  <ele>-2.07</ele>
  <time>2026-09-02T22:12:05Z</time>
  <course>185.11</course>
  <speed>0.1118033988749895</speed>
  <fix>3d</fix>
</trkpt>
<trkpt lat="33.8102857" lon="-118.3938698">
  <ele>-2.01</ele>
  <time>2026-09-02T22:12:05Z</time>
  <course>187.56</course>
  <speed>0.19</speed>
  <fix>3d</fix>
</trkpt>
<trkpt lat="33.8102855" lon="-118.3938699">
  <ele>-2.069</ele>
  <time>2026-09-02T22:12:05Z</time>
  <course>185.09</course>
  <speed>0.09219544457292887</speed>
  <fix>3d</fix>
</trkpt>
<trkpt lat="33.8102854" lon="-118.3938699">
  <ele>-2.01</ele>
  <time>2026-09-02T22:12:05Z</time>
  <course>187.49</course>
  <speed>0.15</speed>
  <fix>3d</fix>
</trkpt>
<trkpt lat="33.8102854" lon="-118.3938699">
  <ele>-2.068</ele>
  <time>2026-09-02T22:12:05Z</time>
  <course>185.08</course>
  <speed>0.07280109889280519</speed>
  <fix>3d</fix>
</trkpt>
<trkpt lat="33.8102854" lon="-118.3938699">
  <ele>-2.01</ele>
  <time>2026-09-02T22:12:05Z</time>
  <course>187.49</course>
  <speed>0.15</speed>
  <fix>3d</fix>
</trkpt>
<trkpt lat="33.8102853" lon="-118.39387">
  <ele>-2.068</ele>
  <time>2026-09-02T22:12:05Z</time>
  <course>185.06</course>
  <speed>0.06082762530298219</speed>
  <fix>3d</fix>
</trkpt>
<trkpt lat="33.8102851" lon="-118.3938699">
  <ele>-2.01</ele>
  <time>2026-09-02T22:12:05Z</time>
  <course>187.52</course>
  <speed>0.11</speed>
  <fix>3d</fix>
</trkpt>
<trkpt lat="33.8102853" lon="-118.39387">
  <ele>-2.068</ele>
  <time>2026-09-02T22:12:05Z</time>
  <course>185.06</course>
  <speed>0.06082762530298219</speed>
  <fix>3d</fix>
</trkpt>
<trkpt lat="33.8102853" lon="-118.39387">
  <ele>-2.067</ele>
  <time>2026-09-02T22:12:05Z</time>
  <course>185.06</course>
  <speed>0.0412310562561766</speed>
  <fix>3d</fix>
</trkpt>
<trkpt lat="33.8102851" lon="-118.3938699">
  <ele>-2.01</ele>
  <time>2026-09-02T22:12:05Z</time>
  <course>187.52</course>
  <speed>0.11</speed>
  <fix>3d</fix>
</trkpt>
<trkpt lat="33.8102852" lon="-118.39387">
  <ele>-2.066</ele>
  <time>2026-09-02T22:12:05Z</time>
  <course>185.06</course>
  <speed>0.0316227766016838</speed>
  <fix>3d</fix>
</trkpt>
<trkpt lat="33.810285" lon="-118.39387">
  <ele>-2.01</ele>
  <time>2026-09-02T22:12:05Z</time>
  <course>187.96</course>
  <speed>0.08</speed>
  <fix>3d</fix>
</trkpt>
<trkpt lat="33.8102851" lon="-118.39387">
  <ele>-2.065</ele>
  <time>2026-09-02T22:12:05Z</time>
  <course>185.06</course>
  <speed>0.01414213562373095</speed>
  <fix>3d</fix>
</trkpt>
<trkpt lat="33.810285" lon="-118.39387">
  <ele>-2.01</ele>
  <time>2026-09-02T22:12:05Z</time>
  <course>187.96</course>
  <speed>0.08</speed>
  <fix>3d</fix>
</trkpt>
<trkpt lat="33.8102851" lon="-118.39387">
  <ele>-2.064</ele>
  <time>2026-09-02T22:12:05Z</time>
  <course>185.07</course>
  <speed>0.01</speed>
  <fix>3d</fix>
</trkpt>
<trkpt lat="33.8102848" lon="-118.39387">
  <ele>-2.01</ele>
  <time>2026-09-02T22:12:05Z</time>
  <course>188.74</course>
  <speed>0.04</speed>
  <fix>3d</fix>
</trkpt>
<trkpt lat="33.8102851" lon="-118.39387">
  <ele>-2.065</ele>
  <time>2026-09-02T22:12:05Z</time>
  <course>185.08</course>
  <speed>0.0</speed>
  <fix>3d</fix>
</trkpt>
<trkpt lat="33.8102848" lon="-118.39387">
  <ele>-2.01</ele>
  <time>2026-09-02T22:12:05Z</time>
  <course>188.74</course>
  <speed>0.04</speed>
  <fix>3d</fix>
</trkpt>
<trkpt lat="33.8102851" lon="-118.39387">
  <ele>-2.066</ele>
  <time>2026-09-02T22:12:05Z</time>
  <course>185.07</course>
  <speed>0.01</speed>
  <fix>3d</fix>
</trkpt>
<trkpt lat="33.8102848" lon="-118.39387">
  <ele>-2.01</ele>
  <time>2026-09-02T22:12:05Z</time>
  <course>190.24</course>
  <speed>0.02</speed>
  <fix>3d</fix>
</trkpt>
<trkpt lat="33.810285" lon="-118.39387">
  <ele>-2.068</ele>
  <time>2026-09-02T22:12:05Z</time>
  <course>185.05</course>
  <speed>0.02</speed>
  <fix>3d</fix>
</trkpt>
<trkpt lat="33.8102848" lon="-118.39387">
  <ele>-2.01</ele>
  <time>2026-09-02T22:12:05Z</time>
  <course>190.24</course>
  <speed>0.02</speed>
  <fix>3d</fix>
</trkpt>
<trkpt lat="33.810285" lon="-118.39387">
  <ele>-2.07</ele>
  <time>2026-09-02T22:12:05Z</time>
  <course>185.06</course>
  <speed>0.02</speed>
  <fix>3d</fix>
</trkpt>
<trkpt lat="33.8102848" lon="-118.39387">
  <ele>-2.02</ele>
  <time>2026-09-02T22:12:05Z</time>
  <course>190.7</course>
  <speed>0.0</speed>
  <fix>3d</fix>
</trkpt>
<trkpt lat="33.810285" lon="-118.39387">
  <ele>-2.071</ele>
  <time>2026-09-02T22:12:05Z</time>
  <course>185.08</course>
  <speed>0.02</speed>
  <fix>3d</fix>
</trkpt>
<trkpt lat="33.8102848" lon="-118.39387">
  <ele>-2.02</ele>
  <time>2026-09-02T22:12:05Z</time>
  <course>190.7</course>
  <speed>0.0</speed>
  <fix>3d</fix>
</trkpt>
<trkpt lat="33.810285" lon="-118.39387">
  <ele>-2.071</ele>
  <time>2026-09-02T22:12:05Z</time>
  <course>185.1</course>
  <speed>0.02</speed>
  <fix>3d</fix>
</trkpt>
<trkpt lat="33.8102848" lon="-118.39387">
  <ele>-2.02</ele>
  <time>2026-09-02T22:12:05Z</time>
  <course>14.0</course>
  <speed>0.0</speed>
  <fix>3d</fix>
</trkpt>
<trkpt lat="33.810285" lon="-118.39387">
  <ele>-2.071</ele>
  <time>2026-09-02T22:12:05Z</time>
  <course>185.1</course>
  <speed>0.02</speed>
  <fix>3d</fix>
</trkpt>
<trkpt lat="33.8102848" lon="-118.39387">
  <ele>-2.02</ele>
  <time>2026-09-02T22:12:05Z</time>
  <course>14.0</course>
  <speed>0.0</speed>
  <fix>3d</fix>
</trkpt>
<trkpt lat="33.810285" lon="-118.39387">
  <ele>-2.072</ele>
  <time>2026-09-02T22:12:05Z</time>
  <course>185.1</course>
  <speed>0.02</speed>
  <fix>3d</fix>
</trkpt>
<trkpt lat="33.8102848" lon="-118.39387">
  <ele>-2.02</ele>
  <time>2026-09-02T22:12:05Z</time>
  <course>13.37</course>
  <speed>0.01</speed>
  <fix>3d</fix>
</trkpt>
<trkpt lat="33.810285" lon="-118.39387">
  <ele>-2.072</ele>
  <time>2026-09-02T22:12:05Z</time>
  <course>185.1</course>
  <speed>0.02</speed>
  <fix>3d</fix>
</trkpt>
<trkpt lat="33.810285" lon="-118.39387">
  <ele>-2.073</ele>
  <time>2026-09-02T22:12:05Z</time>
  <course>185.1</course>
  <speed>0.02</speed>
  <fix>3d</fix>
</trkpt>
<trkpt lat="33.8102848" lon="-118.39387">
  <ele>-2.02</ele>
  <time>2026-09-02T22:12:05Z</time>
  <course>13.37</course>
  <speed>0.01</speed>
  <fix>3d</fix>
</trkpt>
<trkpt lat="33.810285" lon="-118.39387">
  <ele>-2.073</ele>
  <time>2026-09-02T22:12:05Z</time>
  <course>185.11</course>
  <speed>0.02</speed>
  <fix>3d</fix>
</trkpt>
<trkpt lat="33.8102848" lon="-118.39387">
  <ele>-2.03</ele>
  <time>2026-09-02T22:12:05Z</time>
  <course>13.26</course>
  <speed>0.01</speed>
  <fix>3d</fix>
</trkpt>
<trkpt lat="33.810285" lon="-118.39387">
  <ele>-2.073</ele>
  <time>2026-09-02T22:12:05Z</time>
  <course>185.12</course>
  <speed>0.02</speed>
  <fix>3d</fix>
</trkpt>
<trkpt lat="33.8102848" lon="-118.39387">
  <ele>-2.03</ele>
  <time>2026-09-02T22:12:05Z</time>
  <course>13.26</course>
  <speed>0.01</speed>
  <fix>3d</fix>
</trkpt>
<trkpt lat="33.810285" lon="-118.39387">
  <ele>-2.073</ele>
  <time>2026-09-02T22:12:05Z</time>
  <course>185.12</course>
  <speed>0.0</speed>
  <fix>3d</fix>
</trkpt>
<trkpt lat="33.8102848" lon="-118.39387">
  <ele>-2.03</ele>
  <time>2026-09-02T22:12:05Z</time>
  <course>13.41</course>
  <speed>0.01</speed>
  <fix>3d</fix>
</trkpt>
<trkpt lat="33.810285" lon="-118.39387">
  <ele>-2.074</ele>
  <time>2026-09-02T22:12:05Z</time>
  <course>185.1</course>
  <speed>0.08062257748298549</speed>
  <fix>3d</fix>
</trkpt>
<trkpt lat="33.8102848" lon="-118.39387">
  <ele>-2.03</ele>
  <time>2026-09-02T22:12:05Z</time>
  <course>13.41</course>
  <speed>0.01</speed>
  <fix>3d</fix>
</trkpt>
<trkpt lat="33.8102849" lon="-118.39387">
  <ele>-2.074</ele>
  <time>2026-09-02T22:12:05Z</time>
  <course>185.08</course>
  <speed>0.16124515496597097</speed>
  <fix>3d</fix>
</trkpt>
<trkpt lat="33.8102848" lon="-118.39387">
  <ele>-2.03</ele>
  <time>2026-09-02T22:12:05Z</time>
  <course>180.98</course>
  <speed>0.05</speed>
  <fix>3d</fix>
</trkpt>
<trkpt lat="33.8102847" lon="-118.39387">
  <ele>-2.075</ele>
  <time>2026-09-02T22:12:05Z</time>
  <course>185.07</course>
  <speed>0.22090722034374521</speed>
  <fix>3d</fix>
</trkpt>
<trkpt lat="33.8102848" lon="-118.39387">
  <ele>-2.03</ele>
  <time>2026-09-02T22:12:05Z</time>
  <course>180.98</course>
  <speed>0.05</speed>
  <fix>3d</fix>
</trkpt>
<trkpt lat="33.8102845" lon="-118.3938701">
  <ele>-2.076</ele>
  <time>2026-09-02T22:12:05Z</time>
  <course>185.05</course>
  <speed>0.27166155414412246</speed>
  <fix>3d</fix>
</trkpt>
<trkpt lat="33.8102846" lon="-118.39387">
  <ele>-2.03</ele>
  <time>2026-09-02T22:12:05Z</time>
  <course>182.8</course>
  <speed>0.19</speed>
  <fix>3d</fix>
</trkpt>
<trkpt lat="33.8102842" lon="-118.3938701">
  <ele>-2.075</ele>
  <time>2026-09-02T22:12:05Z</time>
  <course>185.05</course>
  <speed>0.31144823004794875</speed>
  <fix>3d</fix>
</trkpt>
<trkpt lat="33.8102846" lon="-118.39387">
  <ele>-2.03</ele>
  <time>2026-09-02T22:12:05Z</time>
  <course>182.8</course>
  <speed>0.19</speed>
  <fix>3d</fix>
</trkpt>
<trkpt lat="33.8102839" lon="-118.3938701">
  <ele>-2.074</ele>
  <time>2026-09-02T22:12:05Z</time>
  <course>185.05</course>
  <speed>0.34132096331752027</speed>
  <fix>3d</fix>
</trkpt>
<trkpt lat="33.8102842" lon="-118.39387">
  <ele>-2.02</ele>
  <time>2026-09-02T22:12:05Z</time>
  <course>183.16</course>
  <speed>0.29</speed>
  <fix>3d</fix>
</trkpt>
<trkpt lat="33.8102836" lon="-118.3938701">
  <ele>-2.072</ele>
  <time>2026-09-02T22:12:05Z</time>
  <course>185.05</course>
  <speed>0.3622154055254967</speed>
  <fix>3d</fix>
</trkpt>
<trkpt lat="33.8102842" lon="-118.39387">
  <ele>-2.02</ele>
  <time>2026-09-02T22:12:05Z</time>
  <course>183.16</course>
  <speed>0.29</speed>
  <fix>3d</fix>
</trkpt>
<trkpt lat="33.8102832" lon="-118.3938702">
  <ele>-2.07</ele>
  <time>2026-09-02T22:12:05Z</time>
  <course>185.04</course>
  <speed>0.3920459156782532</speed>
  <fix>3d</fix>
</trkpt>
<trkpt lat="33.8102836" lon="-118.39387">
  <ele>-2.02</ele>
  <time>2026-09-02T22:12:05Z</time>
  <course>183.39</course>
  <speed>0.36</speed>
  <fix>3d</fix>
</trkpt>
<trkpt lat="33.8102828" lon="-118.3938702">
  <ele>-2.069</ele>
  <time>2026-09-02T22:12:05Z</time>
  <course>185.04</course>
  <speed>0.4119465984809196</speed>
  <fix>3d</fix>
</trkpt>
<trkpt lat="33.8102836" lon="-118.39387">
  <ele>-2.02</ele>
  <time>2026-09-02T22:12:05Z</time>
  <course>183.39</course>
  <speed>0.36</speed>
  <fix>3d</fix>
</trkpt>
<trkpt lat="33.8102824" lon="-118.3938702">
  <ele>-2.07</ele>
  <time>2026-09-02T22:12:05Z</time>
  <course>185.04</course>
  <speed>0.43289721643826723</speed>
  <fix>3d</fix>
</trkpt>
<trkpt lat="33.8102829" lon="-118.3938701">
  <ele>-2.02</ele>
  <time>2026-09-02T22:12:05Z</time>
  <course>183.71</course>
  <speed>0.41</speed>
  <fix>3d</fix>
</trkpt>
<trkpt lat="33.810282" lon="-118.3938703">
  <ele>-2.07</ele>
  <time>2026-09-02T22:12:05Z</time>
  <course>185.03</course>
  <speed>0.4428317965096906</speed>
  <fix>3d</fix>
</trkpt>
<trkpt lat="33.8102829" lon="-118.3938701">
  <ele>-2.02</ele>
  <time>2026-09-02T22:12:05Z</time>
  <course>183.71</course>
  <speed>0.41</speed>
  <fix>3d</fix>
</trkpt>
<trkpt lat="33.8102816" lon="-118.3938703">
  <ele>-2.071</ele>
  <time>2026-09-02T22:12:05Z</time>
  <course>185.03</course>
  <speed>0.46270941205037097</speed>
  <fix>3d</fix>
</trkpt>
<trkpt lat="33.810282" lon="-118.3938702">
  <ele>-2.02</ele>
  <time>2026-09-02T22:12:05Z</time>
  <course>184.05</course>
  <speed>0.45</speed>
  <fix>3d</fix>
</trkpt>
<trkpt lat="33.8102812" lon="-118.3938704">
  <ele>-2.072</ele>
  <time>2026-09-02T22:12:05Z</time>
  <course>185.03</course>
  <speed>0.472652091923859</speed>
  <fix>3d</fix>
</trkpt>
<trkpt lat="33.810282" lon="-118.3938702">
  <ele>-2.02</ele>
  <time>2026-09-02T22:12:05Z</time>
  <course>184.05</course>
  <speed>0.45</speed>
  <fix>3d</fix>
</trkpt>
<trkpt lat="33.8102807" lon="-118.3938704">
  <ele>-2.073</ele>
  <time>2026-09-02T22:12:05Z</time>
  <course>185.03</course>
  <speed>0.4825971404805462</speed>
  <fix>3d</fix>
</trkpt>
<trkpt lat="33.8102812" lon="-118.3938702">
  <ele>-2.02</ele>
  <time>2026-09-02T22:12:05Z</time>
  <course>184.31</course>
  <speed>0.49</speed>
  <fix>3d</fix>
</trkpt>
<trkpt lat="33.8102803" lon="-118.3938705">
  <ele>-2.074</ele>
  <time>2026-09-02T22:12:05Z</time>
  <course>185.02</course>
  <speed>0.4936598018878993</speed>
  <fix>3d</fix>
</trkpt>
<trkpt lat="33.8102812" lon="-118.3938702">
  <ele>-2.02</ele>
  <time>2026-09-02T22:12:05Z</time>
  <course>184.31</course>
  <speed>0.49</speed>
  <fix>3d</fix>
</trkpt>
<trkpt lat="33.8102798" lon="-118.3938705">
  <ele>-2.075</ele>
  <time>2026-09-02T22:12:05Z</time>
  <course>185.02</course>
  <speed>0.5035871324805669</speed>
  <fix>3d</fix>
</trkpt>
<trkpt lat="33.8102803" lon="-118.3938703">
  <ele>-2.02</ele>
  <time>2026-09-02T22:12:05Z</time>
  <course>184.54</course>
  <speed>0.51</speed>
  <fix>3d</fix>
</trkpt>
<trkpt lat="33.8102794" lon="-118.3938705">
  <ele>-2.076</ele>
  <time>2026-09-02T22:12:05Z</time>
  <course>185.02</course>
  <speed>0.5035871324805669</speed>
  <fix>3d</fix>
</trkpt>
<trkpt lat="33.8102803" lon="-118.3938703">
  <ele>-2.02</ele>
  <time>2026-09-02T22:12:05Z</time>
  <course>184.54</course>
  <speed>0.51</speed>
  <fix>3d</fix>
</trkpt>
<trkpt lat="33.8102789" lon="-118.3938706">
  <ele>-2.077</ele>
  <time>2026-09-02T22:12:05Z</time>
  <course>185.02</course>
  <speed>0.5135172830587107</speed>
  <fix>3d</fix>
</trkpt>
<trkpt lat="33.8102794" lon="-118.3938704">
  <ele>-2.02</ele>
  <time>2026-09-02T22:12:05Z</time>
  <course>184.78</course>
  <speed>0.53</speed>
  <fix>3d</fix>
</trkpt>
<trkpt lat="33.8102784" lon="-118.3938706">
  <ele>-2.077</ele>
  <time>2026-09-02T22:12:05Z</time>
  <course>185.02</course>
  <speed>0.523450093132096</speed>
  <fix>3d</fix>
</trkpt>
<trkpt lat="33.8102794" lon="-118.3938704">
  <ele>-2.02</ele>
  <time>2026-09-02T22:12:05Z</time>
  <course>184.78</course>
  <speed>0.53</speed>
  <fix>3d</fix>
</trkpt>
<trkpt lat="33.8102779" lon="-118.3938707">
  <ele>-2.077</ele>
  <time>2026-09-02T22:12:05Z</time>
  <course>185.02</course>
  <speed>0.523450093132096</speed>
  <fix>3d</fix>
</trkpt>
<trkpt lat="33.8102784" lon="-118.3938705">
  <ele>-2.02</ele>
  <time>2026-09-02T22:12:05Z</time>
  <course>185.0</course>
  <speed>0.54</speed>
  <fix>3d</fix>
</trkpt>
<trkpt lat="33.8102774" lon="-118.3938707">
  <ele>-2.077</ele>
  <time>2026-09-02T22:12:05Z</time>
  <course>185.02</course>
  <speed>0.523450093132096</speed>
  <fix>3d</fix>
</trkpt>
<trkpt lat="33.8102784" lon="-118.3938705">
  <ele>-2.02</ele>
  <time>2026-09-02T22:12:05Z</time>
  <course>185.0</course>
  <speed>0.54</speed>
  <fix>3d</fix>
</trkpt>
<trkpt lat="33.8102769" lon="-118.3938708">
  <ele>-2.076</ele>
  <time>2026-09-02T22:12:05Z</time>
  <course>185.02</course>
  <speed>0.5333854141237835</speed>
  <fix>3d</fix>
</trkpt>
<trkpt lat="33.8102775" lon="-118.3938706">
  <ele>-2.02</ele>
  <time>2026-09-02T22:12:05Z</time>
  <course>185.17</course>
  <speed>0.55</speed>
  <fix>3d</fix>
</trkpt>
<trkpt lat="33.8102764" lon="-118.3938708">
  <ele>-2.074</ele>
  <time>2026-09-02T22:12:05Z</time>
  <course>185.02</course>
  <speed>0.5333854141237835</speed>
  <fix>3d</fix>
</trkpt>
<trkpt lat="33.8102775" lon="-118.3938706">
  <ele>-2.02</ele>
  <time>2026-09-02T22:12:05Z</time>
  <course>185.17</course>
  <speed>0.55</speed>
  <fix>3d</fix>
</trkpt>
<trkpt lat="33.810276" lon="-118.3938709">
  <ele>-2.073</ele>
  <time>2026-09-02T22:12:05Z</time>
  <course>185.02</course>
  <speed>0.5333854141237835</speed>
  <fix>3d</fix>
</trkpt>
<trkpt lat="33.8102765" lon="-118.3938707">
  <ele>-2.01</ele>
  <time>2026-09-02T22:12:05Z</time>
  <course>185.28</course>
  <speed>0.56</speed>
  <fix>3d</fix>
</trkpt>
<trkpt lat="33.8102755" lon="-118.393871">
  <ele>-2.072</ele>
  <time>2026-09-02T22:12:05Z</time>
  <course>185.02</course>
  <speed>0.5333854141237835</speed>
  <fix>3d</fix>
</trkpt>
<trkpt lat="33.8102765" lon="-118.3938707">
  <ele>-2.01</ele>
  <time>2026-09-02T22:12:05Z</time>
  <course>185.28</course>
  <speed>0.56</speed>
  <fix>3d</fix>
</trkpt>
<trkpt lat="33.810275" lon="-118.393871">
  <ele>-2.07</ele>
  <time>2026-09-02T22:12:05Z</time>
  <course>185.03</course>
  <speed>0.5433231082882449</speed>
  <fix>3d</fix>
</trkpt>
<trkpt lat="33.8102755" lon="-118.3938708">
  <ele>-2.01</ele>
  <time>2026-09-02T22:12:05Z</time>
  <course>185.37</course>
  <speed>0.56</speed>
  <fix>3d</fix>
</trkpt>
<trkpt lat="33.8102745" lon="-118.3938711">
  <ele>-2.068</ele>
  <time>2026-09-02T22:12:05Z</time>
  <course>185.03</course>
  <speed>0.5433231082882449</speed>
  <fix>3d</fix>
</trkpt>
<trkpt lat="33.8102755" lon="-118.3938708">
  <ele>-2.01</ele>
  <time>2026-09-02T22:12:05Z</time>
  <course>185.37</course>
  <speed>0.56</speed>
  <fix>3d</fix>
</trkpt>
<trkpt lat="33.8102739" lon="-118.3938711">
  <ele>-2.068</ele>
  <time>2026-09-02T22:12:05Z</time>
  <course>185.03</course>
  <speed>0.5433231082882449</speed>
  <fix>3d</fix>
</trkpt>
<trkpt lat="33.8102744" lon="-118.3938709">
  <ele>-2.01</ele>
  <time>2026-09-02T22:12:05Z</time>
  <course>185.43</course>
  <speed>0.57</speed>
  <fix>3d</fix>
</trkpt>
<trkpt lat="33.8102734" lon="-118.3938712">
  <ele>-2.068</ele>
  <time>2026-09-02T22:12:05Z</time>
  <course>185.03</course>
  <speed>0.5433231082882449</speed>
  <fix>3d</fix>
</trkpt>
<trkpt lat="33.8102744" lon="-118.3938709">
  <ele>-2.01</ele>
  <time>2026-09-02T22:12:05Z</time>
  <course>185.43</course>
  <speed>0.57</speed>
  <fix>3d</fix>
</trkpt>
<trkpt lat="33.8102729" lon="-118.3938712">
  <ele>-2.069</ele>
  <time>2026-09-02T22:12:05Z</time>
  <course>185.03</course>
  <speed>0.5433231082882449</speed>
  <fix>3d</fix>
</trkpt>
<trkpt lat="33.8102734" lon="-118.393871">
  <ele>-2.01</ele>
  <time>2026-09-02T22:12:05Z</time>
  <course>185.48</course>
  <speed>0.57</speed>
  <fix>3d</fix>
</trkpt>
<trkpt lat="33.8102724" lon="-118.3938713">
  <ele>-2.069</ele>
  <time>2026-09-02T22:12:05Z</time>
  <course>185.03</course>
  <speed>0.5433231082882449</speed>
  <fix>3d</fix>
</trkpt>
<trkpt lat="33.8102734" lon="-118.393871">
  <ele>-2.01</ele>
  <time>2026-09-02T22:12:05Z</time>
  <course>185.48</course>
  <speed>0.57</speed>
  <fix>3d</fix>
</trkpt>
<trkpt lat="33.8102719" lon="-118.3938713">
  <ele>-2.07</ele>
  <time>2026-09-02T22:12:05Z</time>
  <course>185.04</course>
  <speed>0.5135172830587107</speed>
  <fix>3d</fix>
</trkpt>
<trkpt lat="33.8102724" lon="-118.3938712">
  <ele>-2.01</ele>
  <time>2026-09-02T22:12:05Z</time>
  <course>185.56</course>
  <speed>0.57</speed>
  <fix>3d</fix>
</trkpt>
<trkpt lat="33.8102715" lon="-118.3938714">
  <ele>-2.07</ele>
  <time>2026-09-02T22:12:05Z</time>
  <course>185.04</course>
  <speed>0.4428317965096906</speed>
  <fix>3d</fix>
</trkpt>
<trkpt lat="33.8102724" lon="-118.3938712">
  <ele>-2.01</ele>
  <time>2026-09-02T22:12:05Z</time>
  <course>185.56</course>
  <speed>0.57</speed>
  <fix>3d</fix>
</trkpt>
<trkpt lat="33.8102714" lon="-118.3938714">
  <ele>-2.07</ele>
  <time>2026-09-02T22:12:05Z</time>
  <course>185.04</course>
  <speed>0.422965719651132</speed>
  <fix>3d</fix>
</trkpt>
<trkpt lat="33.8102711" lon="-118.3938714">
  <ele>-2.07</ele>
  <time>2026-09-02T22:12:05Z</time>
  <course>185.06</course>
  <speed>0.3634556369077249</speed>
  <fix>3d</fix>
</trkpt>
<trkpt lat="33.8102714" lon="-118.3938713">
  <ele>-2.01</ele>
  <time>2026-09-02T22:12:05Z</time>
  <course>185.75</course>
  <speed>0.51</speed>
  <fix>3d</fix>
</trkpt>
<trkpt lat="33.8102707" lon="-118.3938715">
  <ele>-2.07</ele>
  <time>2026-09-02T22:12:05Z</time>
  <course>185.07</course>
  <speed>0.3026549190084311</speed>
  <fix>3d</fix>
</trkpt>
<trkpt lat="33.8102714" lon="-118.3938713">
  <ele>-2.01</ele>
  <time>2026-09-02T22:12:05Z</time>
  <course>185.75</course>
  <speed>0.51</speed>
  <fix>3d</fix>
</trkpt>
<trkpt lat="33.8102705" lon="-118.3938715">
  <ele>-2.07</ele>
  <time>2026-09-02T22:12:05Z</time>
  <course>185.06</course>
  <speed>0.26305892875931813</speed>
  <fix>3d</fix>
</trkpt>
<trkpt lat="33.8102705" lon="-118.3938714">
  <ele>-2.01</ele>
  <time>2026-09-02T22:12:05Z</time>
  <course>186.04</course>
  <speed>0.39</speed>
  <fix>3d</fix>
</trkpt>
<trkpt lat="33.8102702" lon="-118.3938715">
  <ele>-2.07</ele>
  <time>2026-09-02T22:12:05Z</time>
  <course>185.03</course>
  <speed>0.23194827009486402</speed>
  <fix>3d</fix>
</trkpt>
<trkpt lat="33.8102705" lon="-118.3938714">
  <ele>-2.01</ele>
  <time>2026-09-02T22:12:05Z</time>
  <course>186.04</course>
  <speed>0.39</speed>
  <fix>3d</fix>
</trkpt>
<trkpt lat="33.81027" lon="-118.3938716">
  <ele>-2.069</ele>
  <time>2026-09-02T22:12:05Z</time>
  <course>185.01</course>
  <speed>0.20223748416156684</speed>
  <fix>3d</fix>
</trkpt>
<trkpt lat="33.8102699" lon="-118.3938715">
  <ele>-2.01</ele>
  <time>2026-09-02T22:12:05Z</time>
  <course>186.39</course>
  <speed>0.28</speed>
  <fix>3d</fix>
</trkpt>
<trkpt lat="33.8102698" lon="-118.3938716">
  <ele>-2.069</ele>
  <time>2026-09-02T22:12:05Z</time>
  <course>184.99</course>
  <speed>0.1824828759089466</speed>
  <fix>3d</fix>
</trkpt>
<trkpt lat="33.8102699" lon="-118.3938715">
  <ele>-2.01</ele>
  <time>2026-09-02T22:12:05Z</time>
  <course>186.39</course>
  <speed>0.28</speed>
  <fix>3d</fix>
</trkpt>
<trkpt lat="33.8102696" lon="-118.3938716">
  <ele>-2.069</ele>
  <time>2026-09-02T22:12:05Z</time>
  <course>184.97</course>
  <speed>0.16278820596099705</speed>
  <fix>3d</fix>
</trkpt>
<trkpt lat="33.8102695" lon="-118.3938716">
  <ele>-2.02</ele>
  <time>2026-09-02T22:12:05Z</time>
  <course>186.85</course>
  <speed>0.22</speed>
  <fix>3d</fix>
</trkpt>
<trkpt lat="33.8102694" lon="-118.3938716">
  <ele>-2.068</ele>
  <time>2026-09-02T22:12:05Z</time>
  <course>184.96</course>
  <speed>0.15297058540778355</speed>
  <fix>3d</fix>
</trkpt>
<trkpt lat="33.8102695" lon="-118.3938716">
  <ele>-2.02</ele>
  <time>2026-09-02T22:12:05Z</time>
  <course>186.85</course>
  <speed>0.22</speed>
  <fix>3d</fix>
</trkpt>
<trkpt lat="33.8102692" lon="-118.3938717">
  <ele>-2.069</ele>
  <time>2026-09-02T22:12:05Z</time>
  <course>184.97</course>
  <speed>0.13152946437965907</speed>
  <fix>3d</fix>
</trkpt>
<trkpt lat="33.8102691" lon="-118.3938716">
  <ele>-2.02</ele>
  <time>2026-09-02T22:12:05Z</time>
  <course>187.35</course>
  <speed>0.18</speed>
  <fix>3d</fix>
</trkpt>
<trkpt lat="33.8102691" lon="-118.3938717">
  <ele>-2.071</ele>
  <time>2026-09-02T22:12:05Z</time>
  <course>185.01</course>
  <speed>0.1118033988749895</speed>
  <fix>3d</fix>
</trkpt>
<trkpt lat="33.8102691" lon="-118.3938716">
  <ele>-2.02</ele>
  <time>2026-09-02T22:12:05Z</time>
  <course>187.35</course>
  <speed>0.18</speed>
  <fix>3d</fix>
</trkpt>
<trkpt lat="33.810269" lon="-118.3938717">
  <ele>-2.073</ele>
  <time>2026-09-02T22:12:05Z</time>
  <course>185.06</course>
  <speed>0.09219544457292887</speed>
  <fix>3d</fix>
</trkpt>
<trkpt lat="33.8102688" lon="-118.3938717">
  <ele>-2.02</ele>
  <time>2026-09-02T22:12:05Z</time>
  <course>187.15</course>
  <speed>0.15</speed>
  <fix>3d</fix>
</trkpt>
<trkpt lat="33.8102689" lon="-118.3938717">
  <ele>-2.073</ele>
  <time>2026-09-02T22:12:05Z</time>
  <course>185.07</course>
  <speed>0.09219544457292887</speed>
  <fix>3d</fix>
</trkpt>
<trkpt lat="33.8102689" lon="-118.3938717">
  <ele>-2.074</ele>
  <time>2026-09-02T22:12:05Z</time>
  <course>185.1</course>
  <speed>0.08062257748298549</speed>
  <fix>3d</fix>
</trkpt>
<trkpt lat="33.8102688" lon="-118.3938717">
  <ele>-2.02</ele>
  <time>2026-09-02T22:12:05Z</time>
  <course>187.15</course>
  <speed>0.15</speed>
  <fix>3d</fix>
</trkpt>
<trkpt lat="33.8102688" lon="-118.3938717">
  <ele>-2.074</ele>
  <time>2026-09-02T22:12:05Z</time>
  <course>185.12</course>
  <speed>0.06082762530298219</speed>
  <fix>3d</fix>
</trkpt>
<trkpt lat="33.8102686" lon="-118.3938717">
  <ele>-2.02</ele>
  <time>2026-09-02T22:12:05Z</time>
  <course>186.18</course>
  <speed>0.11</speed>
  <fix>3d</fix>
</trkpt>
<trkpt lat="33.8102687" lon="-118.3938717">
  <ele>-2.074</ele>
  <time>2026-09-02T22:12:05Z</time>
  <course>185.12</course>
  <speed>0.0412310562561766</speed>
  <fix>3d</fix>
</trkpt>
<trkpt lat="33.8102686" lon="-118.3938717">
  <ele>-2.02</ele>
  <time>2026-09-02T22:12:05Z</time>
  <course>186.18</course>
  <speed>0.11</speed>
  <fix>3d</fix>
</trkpt>
<trkpt lat="33.8102686" lon="-118.3938717">
  <ele>-2.074</ele>
  <time>2026-09-02T22:12:05Z</time>
  <course>185.11</course>
  <speed>0.0316227766016838</speed>
  <fix>3d</fix>
</trkpt>
<trkpt lat="33.8102684" lon="-118.3938717">
  <ele>-2.02</ele>
  <time>2026-09-02T22:12:05Z</time>
  <course>185.14</course>
  <speed>0.08</speed>
  <fix>3d</fix>
</trkpt>
<trkpt lat="33.8102686" lon="-118.3938717">
  <ele>-2.075</ele>
  <time>2026-09-02T22:12:05Z</time>
  <course>185.1</course>
  <speed>0.01414213562373095</speed>
  <fix>3d</fix>
</trkpt>
<trkpt lat="33.8102684" lon="-118.3938717">
  <ele>-2.02</ele>
  <time>2026-09-02T22:12:05Z</time>
  <course>185.14</course>
  <speed>0.08</speed>
  <fix>3d</fix>
</trkpt>
<trkpt lat="33.8102685" lon="-118.3938717">
  <ele>-2.076</ele>
  <time>2026-09-02T22:12:05Z</time>
  <course>185.09</course>
  <speed>0.0</speed>
  <fix>3d</fix>
</trkpt>
<trkpt lat="33.8102683" lon="-118.3938717">
  <ele>-2.02</ele>
  <time>2026-09-02T22:12:05Z</time>
  <course>183.63</course>
  <speed>0.04</speed>
  <fix>3d</fix>
</trkpt>
<trkpt lat="33.8102685" lon="-118.3938717">
  <ele>-2.076</ele>
  <time>2026-09-02T22:12:05Z</time>
  <course>185.08</course>
  <speed>0.0</speed>
  <fix>3d</fix>
</trkpt>
<trkpt lat="33.8102683" lon="-118.3938717">
  <ele>-2.02</ele>
  <time>2026-09-02T22:12:05Z</time>
  <course>183.63</course>
  <speed>0.04</speed>
  <fix>3d</fix>
</trkpt>
<trkpt lat="33.8102685" lon="-118.3938718">
  <ele>-2.076</ele>
  <time>2026-09-02T22:12:05Z</time>
  <course>185.08</course>
  <speed>0.01</speed>
  <fix>3d</fix>
</trkpt>
<trkpt lat="33.8102682" lon="-118.3938718">
  <ele>-2.01</ele>
  <time>2026-09-02T22:12:05Z</time>
  <course>180.67</course>
  <speed>0.02</speed>
  <fix>3d</fix>
</trkpt>
<trkpt lat="33.8102685" lon="-118.3938718">
  <ele>-2.076</ele>
  <time>2026-09-02T22:12:05Z</time>
  <course>185.07</course>
  <speed>0.02</speed>
  <fix>3d</fix>
</trkpt>
<trkpt lat="33.8102682" lon="-118.3938718">
  <ele>-2.01</ele>
  <time>2026-09-02T22:12:05Z</time>
  <course>180.67</course>
  <speed>0.02</speed>
  <fix>3d</fix>
</trkpt>
<trkpt lat="33.8102685" lon="-118.3938718">
  <ele>-2.074</ele>
  <time>2026-09-02T22:12:05Z</time>
  <course>185.08</course>
  <speed>0.02</speed>
  <fix>3d</fix>
</trkpt>
<trkpt lat="33.8102681" lon="-118.3938718">
  <ele>-2.01</ele>
  <time>2026-09-02T22:12:05Z</time>
  <course>145.78</course>
  <speed>0.0</speed>
  <fix>3d</fix>
</trkpt>
<trkpt lat="33.8102685" lon="-118.3938718">
  <ele>-2.071</ele>
  <time>2026-09-02T22:12:05Z</time>
  <course>185.09</course>
  <speed>0.02</speed>
  <fix>3d</fix>
</trkpt>
<trkpt lat="33.8102681" lon="-118.3938718">
  <ele>-2.01</ele>
  <time>2026-09-02T22:12:05Z</time>
  <course>145.78</course>
  <speed>0.0</speed>
  <fix>3d</fix>
</trkpt>
<trkpt lat="33.8102685" lon="-118.3938718">
  <ele>-2.071</ele>
  <time>2026-09-02T22:12:05Z</time>
  <course>185.09</course>
  <speed>0.03</speed>
  <fix>3d</fix>
</trkpt>
<trkpt lat="33.8102685" lon="-118.3938718">
  <ele>-2.069</ele>
  <time>2026-09-02T22:12:05Z</time>
  <course>185.11</course>
  <speed>0.02</speed>
  <fix>3d</fix>
</trkpt>
<trkpt lat="33.8102681" lon="-118.3938718">
  <ele>-2.01</ele>
  <time>2026-09-02T22:12:05Z</time>
  <course>19.98</course>
  <speed>0.01</speed>
  <fix>3d</fix>
</trkpt>
<trkpt lat="33.8102685" lon="-118.3938718">
  <ele>-2.066</ele>
  <time>2026-09-02T22:12:05Z</time>
  <course>185.13</course>
  <speed>0.0</speed>
  <fix>3d</fix>
</trkpt>
<trkpt lat="33.8102681" lon="-118.3938718">
  <ele>-2.01</ele>
  <time>2026-09-02T22:12:05Z</time>
  <course>19.98</course>
  <speed>0.01</speed>
  <fix>3d</fix>
</trkpt>
<trkpt lat="33.8102684" lon="-118.3938718">
  <ele>-2.066</ele>
  <time>2026-09-02T22:12:05Z</time>
  <course>185.11</course>
  <speed>0.09055385138137417</speed>
  <fix>3d</fix>
</trkpt>
<trkpt lat="33.8102681" lon="-118.3938718">
  <ele>-2.01</ele>
  <time>2026-09-02T22:12:05Z</time>
  <course>150.01</course>
  <speed>0.0</speed>
  <fix>3d</fix>
</trkpt>
<trkpt lat="33.8102682" lon="-118.3938718">
  <ele>-2.067</ele>
  <time>2026-09-02T22:12:05Z</time>
  <course>185.09</course>
  <speed>0.25179356624028343</speed>
  <fix>3d</fix>
</trkpt>
<trkpt lat="33.8102681" lon="-118.3938718">
  <ele>-2.01</ele>
  <time>2026-09-02T22:12:05Z</time>
  <course>150.01</course>
  <speed>0.0</speed>
  <fix>3d</fix>
</trkpt>
<trkpt lat="33.8102679" lon="-118.3938718">
  <ele>-2.068</ele>
  <time>2026-09-02T22:12:05Z</time>
  <course>185.08</course>
  <speed>0.3721558813185679</speed>
  <fix>3d</fix>
</trkpt>
<trkpt lat="33.8102681" lon="-118.3938718">
  <ele>-2.01</ele>
  <time>2026-09-02T22:12:05Z</time>
  <course>182.64</course>
  <speed>0.16</speed>
  <fix>3d</fix>
</trkpt>
<trkpt lat="33.8102675" lon="-118.3938719">
  <ele>-2.07</ele>
  <time>2026-09-02T22:12:05Z</time>
  <course>185.07</course>
  <speed>0.45177427992306074</speed>
  <fix>3d</fix>
</trkpt>
<trkpt lat="33.8102681" lon="-118.3938718">
  <ele>-2.01</ele>
  <time>2026-09-02T22:12:05Z</time>
  <course>182.64</course>
  <speed>0.16</speed>
  <fix>3d</fix>
</trkpt>
<trkpt lat="33.8102671" lon="-118.3938719">
  <ele>-2.072</ele>
  <time>2026-09-02T22:12:05Z</time>
  <course>185.06</course>
  <speed>0.5124451190127582</speed>
  <fix>3d</fix>
</trkpt>
<trkpt lat="33.8102676" lon="-118.3938718">
  <ele>-2.01</ele>
  <time>2026-09-02T22:12:05Z</time>
  <course>183.45</course>
  <speed>0.39</speed>
  <fix>3d</fix>
</trkpt>
<trkpt lat="33.8102666" lon="-118.393872">
  <ele>-2.071</ele>
  <time>2026-09-02T22:12:05Z</time>
  <course>185.06</course>
  <speed>0.5622277118748239</speed>
  <fix>3d</fix>
</trkpt>
<trkpt lat="33.8102676" lon="-118.3938718">
  <ele>-2.01</ele>
  <time>2026-09-02T22:12:05Z</time>
  <course>183.45</course>
  <speed>0.39</speed>
  <fix>3d</fix>
</trkpt>
<trkpt lat="33.810266" lon="-118.393872">
  <ele>-2.07</ele>
  <time>2026-09-02T22:12:05Z</time>
  <course>185.05</course>
  <speed>0.6129437168288782</speed>
  <fix>3d</fix>
</trkpt>
<trkpt lat="33.8102667" lon="-118.3938718">
  <ele>-2.01</ele>
  <time>2026-09-02T22:12:05Z</time>
  <course>183.65</course>
  <speed>0.54</speed>
  <fix>3d</fix>
</trkpt>
<trkpt lat="33.8102655" lon="-118.3938721">
  <ele>-2.07</ele>
  <time>2026-09-02T22:12:05Z</time>
  <course>185.05</course>
  <speed>0.6428063471995279</speed>
  <fix>3d</fix>
</trkpt>
<trkpt lat="33.8102667" lon="-118.3938718">
  <ele>-2.01</ele>
  <time>2026-09-02T22:12:05Z</time>
  <course>183.65</course>
  <speed>0.54</speed>
  <fix>3d</fix>
</trkpt>
<trkpt lat="33.8102649" lon="-118.3938721">
  <ele>-2.069</ele>
  <time>2026-09-02T22:12:05Z</time>
  <course>185.05</course>
  <speed>0.6835934464285041</speed>
  <fix>3d</fix>
</trkpt>
<trkpt lat="33.8102656" lon="-118.3938719">
  <ele>-2.01</ele>
  <time>2026-09-02T22:12:05Z</time>
  <course>183.87</course>
  <speed>0.63</speed>
  <fix>3d</fix>
</trkpt>
<trkpt lat="33.8102642" lon="-118.3938722">
  <ele>-2.07</ele>
  <time>2026-09-02T22:12:05Z</time>
  <course>185.04</course>
  <speed>0.7134423592694787</speed>
  <fix>3d</fix>
</trkpt>
<trkpt lat="33.8102656" lon="-118.3938719">
  <ele>-2.01</ele>
  <time>2026-09-02T22:12:05Z</time>
  <course>183.87</course>
  <speed>0.63</speed>
  <fix>3d</fix>
</trkpt>
<trkpt lat="33.8102636" lon="-118.3938722">
  <ele>-2.07</ele>
  <time>2026-09-02T22:12:05Z</time>
  <course>185.04</course>
  <speed>0.7333484846919641</speed>
  <fix>3d</fix>
</trkpt>
<trkpt lat="33.8102644" lon="-118.393872">
  <ele>-2.01</ele>
  <time>2026-09-02T22:12:05Z</time>
  <course>184.16</course>
  <speed>0.7</speed>
  <fix>3d</fix>
</trkpt>
<trkpt lat="33.8102629" lon="-118.3938723">
  <ele>-2.07</ele>
  <time>2026-09-02T22:12:05Z</time>
  <course>185.03</course>
  <speed>0.764198926981712</speed>
  <fix>3d</fix>
</trkpt>
<trkpt lat="33.8102644" lon="-118.393872">
  <ele>-2.01</ele>
  <time>2026-09-02T22:12:05Z</time>
  <course>184.16</course>
  <speed>0.7</speed>
  <fix>3d</fix>
</trkpt>
<trkpt lat="33.8102622" lon="-118.3938724">
  <ele>-2.069</ele>
  <time>2026-09-02T22:12:05Z</time>
  <course>185.03</course>
  <speed>0.7840918313565064</speed>
  <fix>3d</fix>
</trkpt>
<trkpt lat="33.8102631" lon="-118.3938721">
  <ele>-2.01</ele>
  <time>2026-09-02T22:12:05Z</time>
  <course>184.44</course>
  <speed>0.76</speed>
  <fix>3d</fix>
</trkpt>
<trkpt lat="33.8102615" lon="-118.3938724">
  <ele>-2.068</ele>
  <time>2026-09-02T22:12:05Z</time>
  <course>185.02</course>
  <speed>0.8039900496896712</speed>
  <fix>3d</fix>
</trkpt>
<trkpt lat="33.8102631" lon="-118.3938721">
  <ele>-2.01</ele>
  <time>2026-09-02T22:12:05Z</time>
  <course>184.44</course>
  <speed>0.76</speed>
  <fix>3d</fix>
</trkpt>
<trkpt lat="33.8102607" lon="-118.3938725">
  <ele>-2.068</ele>
  <time>2026-09-02T22:12:05Z</time>
  <course>185.03</course>
  <speed>0.8249242389456137</speed>
  <fix>3d</fix>
</trkpt>
<trkpt lat="33.8102617" lon="-118.3938723">
  <ele>-2.01</ele>
  <time>2026-09-02T22:12:05Z</time>
  <course>184.69</course>
  <speed>0.81</speed>
  <fix>3d</fix>
</trkpt>
<trkpt lat="33.81026" lon="-118.3938726">
  <ele>-2.07</ele>
  <time>2026-09-02T22:12:05Z</time>
  <course>185.03</course>
  <speed>0.8348652585896721</speed>
  <fix>3d</fix>
</trkpt>
<trkpt lat="33.8102617" lon="-118.3938723">
  <ele>-2.01</ele>
  <time>2026-09-02T22:12:05Z</time>
  <course>184.69</course>
  <speed>0.81</speed>
  <fix>3d</fix>
</trkpt>
<trkpt lat="33.8102592" lon="-118.3938727">
  <ele>-2.071</ele>
  <time>2026-09-02T22:12:05Z</time>
  <course>185.03</course>
  <speed>0.8448076704197234</speed>
  <fix>3d</fix>
</trkpt>
<trkpt lat="33.8102602" lon="-118.3938724">
  <ele>-2.02</ele>
  <time>2026-09-02T22:12:05Z</time>
  <course>184.89</course>
  <speed>0.85</speed>
  <fix>3d</fix>
</trkpt>
<trkpt lat="33.8102584" lon="-118.3938728">
  <ele>-2.072</ele>
  <time>2026-09-02T22:12:05Z</time>
  <course>185.03</course>
  <speed>0.8646964785403025</speed>
  <fix>3d</fix>
</trkpt>
<trkpt lat="33.8102602" lon="-118.3938724">
  <ele>-2.02</ele>
  <time>2026-09-02T22:12:05Z</time>
  <course>184.89</course>
  <speed>0.85</speed>
  <fix>3d</fix>
</trkpt>
<trkpt lat="33.8102577" lon="-118.3938728">
  <ele>-2.072</ele>
  <time>2026-09-02T22:12:05Z</time>
  <course>185.02</course>
  <speed>0.8746427842267951</speed>
  <fix>3d</fix>
</trkpt>
<trkpt lat="33.8102587" lon="-118.3938726">
  <ele>-2.02</ele>
  <time>2026-09-02T22:12:05Z</time>
  <course>185.02</course>
  <speed>0.87</speed>
  <fix>3d</fix>
</trkpt>
<trkpt lat="33.8102569" lon="-118.3938729">
  <ele>-2.073</ele>
  <time>2026-09-02T22:12:05Z</time>
  <course>185.02</course>
  <speed>0.8746427842267951</speed>
  <fix>3d</fix>
</trkpt>
<trkpt lat="33.8102587" lon="-118.3938726">
  <ele>-2.02</ele>
  <time>2026-09-02T22:12:05Z</time>
  <course>185.02</course>
  <speed>0.87</speed>
  <fix>3d</fix>
</trkpt>
<trkpt lat="33.8102561" lon="-118.393873">
  <ele>-2.073</ele>
  <time>2026-09-02T22:12:05Z</time>
  <course>185.03</course>
  <speed>0.8845903006477066</speed>
  <fix>3d</fix>
</trkpt>
<trkpt lat="33.8102571" lon="-118.3938727">
  <ele>-2.02</ele>
  <time>2026-09-02T22:12:05Z</time>
  <course>185.13</course>
  <speed>0.9</speed>
  <fix>3d</fix>
</trkpt>
<trkpt lat="33.8102552" lon="-118.3938731">
  <ele>-2.073</ele>
  <time>2026-09-02T22:12:05Z</time>
  <course>185.03</course>
  <speed>0.8956003573022958</speed>
  <fix>3d</fix>
</trkpt>
<trkpt lat="33.8102571" lon="-118.3938727">
  <ele>-2.02</ele>
  <time>2026-09-02T22:12:05Z</time>
  <course>185.13</course>
  <speed>0.9</speed>
  <fix>3d</fix>
</trkpt>
<trkpt lat="33.8102544" lon="-118.3938732">
  <ele>-2.071</ele>
  <time>2026-09-02T22:12:05Z</time>
  <course>185.02</course>
  <speed>0.8956003573022958</speed>
  <fix>3d</fix>
</trkpt>
<trkpt lat="33.8102554" lon="-118.3938729">
  <ele>-2.02</ele>
  <time>2026-09-02T22:12:05Z</time>
  <course>185.21</course>
  <speed>0.91</speed>
  <fix>3d</fix>
</trkpt>
<trkpt lat="33.8102536" lon="-118.3938733">
  <ele>-2.07</ele>
  <time>2026-09-02T22:12:05Z</time>
  <course>185.03</course>
  <speed>0.9055385138137417</speed>
  <fix>3d</fix>
</trkpt>
<trkpt lat="33.8102554" lon="-118.3938729">
  <ele>-2.02</ele>
  <time>2026-09-02T22:12:05Z</time>
  <course>185.21</course>
  <speed>0.91</speed>
  <fix>3d</fix>
</trkpt>
<trkpt lat="33.8102528" lon="-118.3938734">
  <ele>-2.068</ele>
  <time>2026-09-02T22:12:05Z</time>
  <course>185.03</course>
  <speed>0.9055385138137417</speed>
  <fix>3d</fix>
</trkpt>
<trkpt lat="33.8102538" lon="-118.3938731">
  <ele>-2.02</ele>
  <time>2026-09-02T22:12:05Z</time>
  <course>185.31</course>
  <speed>0.93</speed>
  <fix>3d</fix>
</trkpt>
<trkpt lat="33.8102519" lon="-118.3938734">
  <ele>-2.067</ele>
  <time>2026-09-02T22:12:05Z</time>
  <course>185.03</course>
  <speed>0.9055385138137417</speed>
  <fix>3d</fix>
</trkpt>
<trkpt lat="33.8102538" lon="-118.3938731">
  <ele>-2.02</ele>
  <time>2026-09-02T22:12:05Z</time>
  <course>185.31</course>
  <speed>0.93</speed>
  <fix>3d</fix>
</trkpt>
<trkpt lat="33.8102511" lon="-118.3938735">
  <ele>-2.067</ele>
  <time>2026-09-02T22:12:05Z</time>
  <course>185.04</course>
  <speed>0.9154780172128657</speed>
  <fix>3d</fix>
</trkpt>
<trkpt lat="33.8102521" lon="-118.3938733">
  <ele>-2.02</ele>
  <time>2026-09-02T22:12:05Z</time>
  <course>185.38</course>
  <speed>0.93</speed>
  <fix>3d</fix>
</trkpt>
<trkpt lat="33.8102503" lon="-118.3938736">
  <ele>-2.069</ele>
  <time>2026-09-02T22:12:05Z</time>
  <course>185.04</course>
  <speed>0.9154780172128657</speed>
  <fix>3d</fix>
</trkpt>
<trkpt lat="33.8102521" lon="-118.3938733">
  <ele>-2.02</ele>
  <time>2026-09-02T22:12:05Z</time>
  <course>185.38</course>
  <speed>0.93</speed>
  <fix>3d</fix>
</trkpt>
<trkpt lat="33.8102494" lon="-118.3938737">
  <ele>-2.071</ele>
  <time>2026-09-02T22:12:05Z</time>
  <course>185.04</course>
  <speed>0.9154780172128657</speed>
  <fix>3d</fix>
</trkpt>
<trkpt lat="33.8102504" lon="-118.3938734">
  <ele>-2.02</ele>
  <time>2026-09-02T22:12:05Z</time>
  <course>185.38</course>
  <speed>0.94</speed>
  <fix>3d</fix>
</trkpt>
<trkpt lat="33.8102486" lon="-118.3938738">
  <ele>-2.072</ele>
  <time>2026-09-02T22:12:05Z</time>
  <course>185.04</course>
  <speed>0.9154780172128657</speed>
  <fix>3d</fix>
</trkpt>
<trkpt lat="33.8102504" lon="-118.3938734">
  <ele>-2.02</ele>
  <time>2026-09-02T22:12:05Z</time>
  <course>185.38</course>
  <speed>0.94</speed>
  <fix>3d</fix>
</trkpt>
<trkpt lat="33.8102477" lon="-118.3938739">
  <ele>-2.073</ele>
  <time>2026-09-02T22:12:05Z</time>
  <course>185.04</course>
  <speed>0.9154780172128657</speed>
  <fix>3d</fix>
</trkpt>
<trkpt lat="33.8102487" lon="-118.3938737">
  <ele>-2.03</ele>
  <time>2026-09-02T22:12:05Z</time>
  <course>185.4</course>
  <speed>0.94</speed>
  <fix>3d</fix>
</trkpt>
<trkpt lat="33.8102469" lon="-118.393874">
  <ele>-2.075</ele>
  <time>2026-09-02T22:12:05Z</time>
  <course>185.04</course>
  <speed>0.8945389874119517</speed>
  <fix>3d</fix>
</trkpt>
<trkpt lat="33.8102487" lon="-118.3938737">
  <ele>-2.03</ele>
  <time>2026-09-02T22:12:05Z</time>
  <course>185.4</course>
  <speed>0.94</speed>
  <fix>3d</fix>
</trkpt>
<trkpt lat="33.8102461" lon="-118.3938741">
  <ele>-2.076</ele>
  <time>2026-09-02T22:12:05Z</time>
  <course>185.05</course>
  <speed>0.8149846624323674</speed>
  <fix>3d</fix>
</trkpt>
<trkpt lat="33.8102471" lon="-118.3938739">
  <ele>-2.03</ele>
  <time>2026-09-02T22:12:05Z</time>
  <course>185.42</course>
  <speed>0.93</speed>
  <fix>3d</fix>
</trkpt>
<trkpt lat="33.8102458" lon="-118.3938741">
  <ele>-2.077</ele>
  <time>2026-09-02T22:12:05Z</time>
  <course>185.05</course>
  <speed>0.7741446893184762</speed>
  <fix>3d</fix>
</trkpt>
<trkpt lat="33.8102454" lon="-118.3938742">
  <ele>-2.078</ele>
  <time>2026-09-02T22:12:05Z</time>
  <course>185.05</course>
  <speed>0.7045565981523414</speed>
  <fix>3d</fix>
</trkpt>
<trkpt lat="33.8102471" lon="-118.3938739">
  <ele>-2.03</ele>
  <time>2026-09-02T22:12:05Z</time>
  <course>185.42</course>
  <speed>0.93</speed>
  <fix>3d</fix>
</trkpt>
<trkpt lat="33.8102448" lon="-118.3938742">
  <ele>-2.079</ele>
  <time>2026-09-02T22:12:05Z</time>
  <course>185.06</course>
  <speed>0.5731491952362839</speed>
  <fix>3d</fix>
</trkpt>
<trkpt lat="33.8102455" lon="-118.3938741">
  <ele>-2.03</ele>
  <time>2026-09-02T22:12:05Z</time>
  <course>185.44</course>
  <speed>0.81</speed>
  <fix>3d</fix>
</trkpt>
<trkpt lat="33.8102443" lon="-118.3938743">
  <ele>-2.079</ele>
  <time>2026-09-02T22:12:05Z</time>
  <course>185.06</course>
  <speed>0.4936598018878993</speed>
  <fix>3d</fix>
</trkpt>
<trkpt lat="33.8102455" lon="-118.3938741">
  <ele>-2.03</ele>
  <time>2026-09-02T22:12:05Z</time>
  <course>185.44</course>
  <speed>0.81</speed>
  <fix>3d</fix>
</trkpt>
<trkpt lat="33.8102439" lon="-118.3938743">
  <ele>-2.078</ele>
  <time>2026-09-02T22:12:05Z</time>
  <course>185.07</course>
  <speed>0.422965719651132</speed>
  <fix>3d</fix>
</trkpt>
<trkpt lat="33.8102442" lon="-118.3938742">
  <ele>-2.03</ele>
  <time>2026-09-02T22:12:05Z</time>
  <course>185.5</course>
  <speed>0.6</speed>
  <fix>3d</fix>
</trkpt>
<trkpt lat="33.8102435" lon="-118.3938744">
  <ele>-2.077</ele>
  <time>2026-09-02T22:12:05Z</time>
  <course>185.07</course>
  <speed>0.3721558813185679</speed>
  <fix>3d</fix>
</trkpt>
<trkpt lat="33.8102442" lon="-118.3938742">
  <ele>-2.03</ele>
  <time>2026-09-02T22:12:05Z</time>
  <course>185.5</course>
  <speed>0.6</speed>
  <fix>3d</fix>
</trkpt>
<trkpt lat="33.8102431" lon="-118.3938744">
  <ele>-2.076</ele>
  <time>2026-09-02T22:12:05Z</time>
  <course>185.08</course>
  <speed>0.33241540277189324</speed>
  <fix>3d</fix>
</trkpt>
<trkpt lat="33.8102432" lon="-118.3938743">
  <ele>-2.02</ele>
  <time>2026-09-02T22:12:05Z</time>
  <course>185.52</course>
  <speed>0.45</speed>
  <fix>3d</fix>
</trkpt>
<trkpt lat="33.8102428" lon="-118.3938744">
  <ele>-2.075</ele>
  <time>2026-09-02T22:12:05Z</time>
  <course>185.08</course>
  <speed>0.29274562336608895</speed>
  <fix>3d</fix>
</trkpt>
<trkpt lat="33.8102432" lon="-118.3938743">
  <ele>-2.02</ele>
  <time>2026-09-02T22:12:05Z</time>
  <course>185.52</course>
  <speed>0.45</speed>
  <fix>3d</fix>
</trkpt>
<trkpt lat="33.8102425" lon="-118.3938745">
  <ele>-2.075</ele>
  <time>2026-09-02T22:12:05Z</time>
  <course>185.09</course>
  <speed>0.261725046566048</speed>
  <fix>3d</fix>
</trkpt>
<trkpt lat="33.8102425" lon="-118.3938744">
  <ele>-2.02</ele>
  <time>2026-09-02T22:12:05Z</time>
  <course>185.5</course>
  <speed>0.35</speed>
  <fix>3d</fix>
</trkpt>
<trkpt lat="33.8102423" lon="-118.3938745">
  <ele>-2.075</ele>
  <time>2026-09-02T22:12:05Z</time>
  <course>185.09</course>
  <speed>0.23194827009486402</speed>
  <fix>3d</fix>
</trkpt>
<trkpt lat="33.8102425" lon="-118.3938744">
  <ele>-2.02</ele>
  <time>2026-09-02T22:12:05Z</time>
  <course>185.5</course>
  <speed>0.35</speed>
  <fix>3d</fix>
</trkpt>
<trkpt lat="33.810242" lon="-118.3938745">
  <ele>-2.073</ele>
  <time>2026-09-02T22:12:05Z</time>
  <course>185.09</course>
  <speed>0.20223748416156684</speed>
  <fix>3d</fix>
</trkpt>
<trkpt lat="33.810242" lon="-118.3938744">
  <ele>-2.01</ele>
  <time>2026-09-02T22:12:05Z</time>
  <course>185.49</course>
  <speed>0.28</speed>
  <fix>3d</fix>
</trkpt>
<trkpt lat="33.8102418" lon="-118.3938746">
  <ele>-2.071</ele>
  <time>2026-09-02T22:12:05Z</time>
  <course>185.1</course>
  <speed>0.1824828759089466</speed>
  <fix>3d</fix>
</trkpt>
<trkpt lat="33.810242" lon="-118.3938744">
  <ele>-2.01</ele>
  <time>2026-09-02T22:12:05Z</time>
  <course>185.49</course>
  <speed>0.28</speed>
  <fix>3d</fix>
</trkpt>
<trkpt lat="33.8102418" lon="-118.3938746">
  <ele>-2.071</ele>
  <time>2026-09-02T22:12:05Z</time>
  <course>185.1</course>
  <speed>0.1824828759089466</speed>
  <fix>3d</fix>
</trkpt>
<trkpt lat="33.8102416" lon="-118.3938746">
  <ele>-2.069</ele>
  <time>2026-09-02T22:12:05Z</time>
  <course>185.1</course>
  <speed>0.16124515496597097</speed>
  <fix>3d</fix>
</trkpt>
<trkpt lat="33.8102416" lon="-118.3938745">
  <ele>-2.01</ele>
  <time>2026-09-02T22:12:05Z</time>
  <course>185.57</course>
  <speed>0.22</speed>
  <fix>3d</fix>
</trkpt>
<trkpt lat="33.8102415" lon="-118.3938746">
  <ele>-2.067</ele>
  <time>2026-09-02T22:12:05Z</time>
  <course>185.11</course>
  <speed>0.15132745950421556</speed>
  <fix>3d</fix>
</trkpt>
<trkpt lat="33.8102416" lon="-118.3938745">
  <ele>-2.01</ele>
  <time>2026-09-02T22:12:05Z</time>
  <course>185.57</course>
  <speed>0.22</speed>
  <fix>3d</fix>
</trkpt>
<trkpt lat="33.8102413" lon="-118.3938746">
  <ele>-2.067</ele>
  <time>2026-09-02T22:12:05Z</time>
  <course>185.1</course>
  <speed>0.13152946437965907</speed>
  <fix>3d</fix>
</trkpt>
<trkpt lat="33.8102411" lon="-118.3938745">
  <ele>-2.01</ele>
  <time>2026-09-02T22:12:05Z</time>
  <course>185.79</course>
  <speed>0.18</speed>
  <fix>3d</fix>
</trkpt>
<trkpt lat="33.8102412" lon="-118.3938746">
  <ele>-2.067</ele>
  <time>2026-09-02T22:12:05Z</time>
  <course>185.1</course>
  <speed>0.1118033988749895</speed>
  <fix>3d</fix>
</trkpt>
<trkpt lat="33.8102411" lon="-118.3938745">
  <ele>-2.01</ele>
  <time>2026-09-02T22:12:05Z</time>
  <course>185.79</course>
  <speed>0.18</speed>
  <fix>3d</fix>
</trkpt>
<trkpt lat="33.810241" lon="-118.3938746">
  <ele>-2.067</ele>
  <time>2026-09-02T22:12:05Z</time>
  <course>185.1</course>
  <speed>0.09219544457292887</speed>
  <fix>3d</fix>
</trkpt>
<trkpt lat="33.8102408" lon="-118.3938746">
  <ele>-2.01</ele>
  <time>2026-09-02T22:12:05Z</time>
  <course>186.17</course>
  <speed>0.14</speed>
  <fix>3d</fix>
</trkpt>
<trkpt lat="33.8102409" lon="-118.3938746">
  <ele>-2.068</ele>
  <time>2026-09-02T22:12:05Z</time>
  <course>185.1</course>
  <speed>0.0632455532033676</speed>
  <fix>3d</fix>
</trkpt>
<trkpt lat="33.8102408" lon="-118.3938746">
  <ele>-2.01</ele>
  <time>2026-09-02T22:12:05Z</time>
  <course>186.17</course>
  <speed>0.14</speed>
  <fix>3d</fix>
</trkpt>
<trkpt lat="33.8102408" lon="-118.3938747">
  <ele>-2.069</ele>
  <time>2026-09-02T22:12:05Z</time>
  <course>185.09</course>
  <speed>0.05099019513592785</speed>
  <fix>3d</fix>
</trkpt>
<trkpt lat="33.8102406" lon="-118.3938746">
  <ele>-2.01</ele>
  <time>2026-09-02T22:12:05Z</time>
  <course>186.91</course>
  <speed>0.1</speed>
  <fix>3d</fix>
</trkpt>
<trkpt lat="33.8102408" lon="-118.3938747">
  <ele>-2.07</ele>
  <time>2026-09-02T22:12:05Z</time>
  <course>185.09</course>
  <speed>0.0316227766016838</speed>
  <fix>3d</fix>
</trkpt>
<trkpt lat="33.8102406" lon="-118.3938746">
  <ele>-2.01</ele>
  <time>2026-09-02T22:12:05Z</time>
  <course>186.91</course>
  <speed>0.1</speed>
  <fix>3d</fix>
</trkpt>
<trkpt lat="33.8102407" lon="-118.3938747">
  <ele>-2.07</ele>
  <time>2026-09-02T22:12:05Z</time>
  <course>185.09</course>
  <speed>0.01414213562373095</speed>
  <fix>3d</fix>
</trkpt>
<trkpt lat="33.8102405" lon="-118.3938747">
  <ele>-2.01</ele>
  <time>2026-09-02T22:12:05Z</time>
  <course>188.32</course>
  <speed>0.06</speed>
  <fix>3d</fix>
</trkpt>
<trkpt lat="33.8102407" lon="-118.3938747">
  <ele>-2.07</ele>
  <time>2026-09-02T22:12:05Z</time>
  <course>185.09</course>
  <speed>0.01</speed>
  <fix>3d</fix>
</trkpt>
<trkpt lat="33.8102405" lon="-118.3938747">
  <ele>-2.01</ele>
  <time>2026-09-02T22:12:05Z</time>
  <course>188.32</course>
  <speed>0.06</speed>
  <fix>3d</fix>
</trkpt>
<trkpt lat="33.8102407" lon="-118.3938747">
  <ele>-2.071</ele>
  <time>2026-09-02T22:12:05Z</time>
  <course>185.09</course>
  <speed>0.01</speed>
  <fix>3d</fix>
</trkpt>
<trkpt lat="33.8102404" lon="-118.3938747">
  <ele>-2.01</ele>
  <time>2026-09-02T22:12:05Z</time>
  <course>191.54</course>
  <speed>0.02</speed>
  <fix>3d</fix>
</trkpt>
<trkpt lat="33.8102407" lon="-118.3938747">
  <ele>-2.071</ele>
  <time>2026-09-02T22:12:05Z</time>
  <course>185.09</course>
  <speed>0.01414213562373095</speed>
  <fix>3d</fix>
</trkpt>
<trkpt lat="33.8102407" lon="-118.3938747">
  <ele>-2.072</ele>
  <time>2026-09-02T22:12:05Z</time>
  <course>185.09</course>
  <speed>0.01414213562373095</speed>
  <fix>3d</fix>
</trkpt>
<trkpt lat="33.8102404" lon="-118.3938747">
  <ele>-2.01</ele>
  <time>2026-09-02T22:12:05Z</time>
  <course>191.54</course>
  <speed>0.02</speed>
  <fix>3d</fix>
</trkpt>
<trkpt lat="33.8102407" lon="-118.3938747">
  <ele>-2.073</ele>
  <time>2026-09-02T22:12:05Z</time>
  <course>185.07</course>
  <speed>0.02</speed>
  <fix>3d</fix>
</trkpt>
<trkpt lat="33.8102404" lon="-118.3938747">
  <ele>-2.02</ele>
  <time>2026-09-02T22:12:05Z</time>
  <course>222.14</course>
  <speed>0.0</speed>
  <fix>3d</fix>
</trkpt>
<trkpt lat="33.8102407" lon="-118.3938747">
  <ele>-2.074</ele>
  <time>2026-09-02T22:12:05Z</time>
  <course>185.08</course>
  <speed>0.03</speed>
  <fix>3d</fix>
</trkpt>
<trkpt lat="33.8102404" lon="-118.3938747">
  <ele>-2.02</ele>
  <time>2026-09-02T22:12:05Z</time>
  <course>222.14</course>
  <speed>0.0</speed>
  <fix>3d</fix>
</trkpt>
<trkpt lat="33.8102407" lon="-118.3938747">
  <ele>-2.074</ele>
  <time>2026-09-02T22:12:05Z</time>
  <course>185.11</course>
  <speed>0.03</speed>
  <fix>3d</fix>
</trkpt>
<trkpt lat="33.8102404" lon="-118.3938747">
  <ele>-2.02</ele>
  <time>2026-09-02T22:12:05Z</time>
  <course>4.14</course>
  <speed>0.01</speed>
  <fix>3d</fix>
</trkpt>
<trkpt lat="33.8102407" lon="-118.3938747">
  <ele>-2.073</ele>
  <time>2026-09-02T22:12:05Z</time>
  <course>185.12</course>
  <speed>0.03</speed>
  <fix>3d</fix>
</trkpt>
<trkpt lat="33.8102404" lon="-118.3938747">
  <ele>-2.02</ele>
  <time>2026-09-02T22:12:05Z</time>
  <course>4.14</course>
  <speed>0.01</speed>
  <fix>3d</fix>
</trkpt>
<trkpt lat="33.8102407" lon="-118.3938747">
  <ele>-2.072</ele>
  <time>2026-09-02T22:12:05Z</time>
  <course>185.14</course>
  <speed>0.03</speed>
  <fix>3d</fix>
</trkpt>
<trkpt lat="33.8102404" lon="-118.3938747">
  <ele>-2.02</ele>
  <time>2026-09-02T22:12:05Z</time>
  <course>9.59</course>
  <speed>0.02</speed>
  <fix>3d</fix>
</trkpt>
<trkpt lat="33.8102407" lon="-118.3938747">
  <ele>-2.071</ele>
  <time>2026-09-02T22:12:05Z</time>
  <course>185.14</course>
  <speed>0.03</speed>
  <fix>3d</fix>
</trkpt>
<trkpt lat="33.8102404" lon="-118.3938747">
  <ele>-2.02</ele>
  <time>2026-09-02T22:12:05Z</time>
  <course>9.59</course>
  <speed>0.02</speed>
  <fix>3d</fix>
</trkpt>
<trkpt lat="33.8102407" lon="-118.3938747">
  <ele>-2.071</ele>
  <time>2026-09-02T22:12:05Z</time>
  <course>185.14</course>
  <speed>0.03</speed>
  <fix>3d</fix>
</trkpt>
<trkpt lat="33.8102404" lon="-118.3938747">
  <ele>-2.01</ele>
  <time>2026-09-02T22:12:05Z</time>
  <course>11.1</course>
  <speed>0.02</speed>
  <fix>3d</fix>
</trkpt>
<trkpt lat="33.8102407" lon="-118.3938747">
  <ele>-2.071</ele>
  <time>2026-09-02T22:12:05Z</time>
  <course>185.15</course>
  <speed>0.03</speed>
  <fix>3d</fix>
</trkpt>
<trkpt lat="33.8102404" lon="-118.3938747">
  <ele>-2.01</ele>
  <time>2026-09-02T22:12:05Z</time>
  <course>11.1</course>
  <speed>0.02</speed>
  <fix>3d</fix>
</trkpt>
<trkpt lat="33.8102407" lon="-118.3938747">
  <ele>-2.072</ele>
  <time>2026-09-02T22:12:05Z</time>
  <course>185.16</course>
  <speed>0.03</speed>
  <fix>3d</fix>
</trkpt>
<trkpt lat="33.8102404" lon="-118.3938747">
  <ele>-2.01</ele>
  <time>2026-09-02T22:12:05Z</time>
  <course>12.17</course>
  <speed>0.02</speed>
  <fix>3d</fix>
</trkpt>
<trkpt lat="33.8102407" lon="-118.3938747">
  <ele>-2.072</ele>
  <time>2026-09-02T22:12:05Z</time>
  <course>185.15</course>
  <speed>0.03</speed>
  <fix>3d</fix>
</trkpt>
<trkpt lat="33.8102404" lon="-118.3938747">
  <ele>-2.01</ele>
  <time>2026-09-02T22:12:05Z</time>
  <course>12.17</course>
  <speed>0.02</speed>
  <fix>3d</fix>
</trkpt>
<trkpt lat="33.8102407" lon="-118.3938747">
  <ele>-2.072</ele>
  <time>2026-09-02T22:12:05Z</time>
  <course>185.15</course>
  <speed>0.03</speed>
  <fix>3d</fix>
</trkpt>
<trkpt lat="33.8102407" lon="-118.3938747">
  <ele>-2.071</ele>
  <time>2026-09-02T22:12:05Z</time>
  <course>185.15</course>
  <speed>0.03</speed>
  <fix>3d</fix>
</trkpt>
<trkpt lat="33.8102405" lon="-118.3938747">
  <ele>-2.01</ele>
  <time>2026-09-02T22:12:05Z</time>
  <course>13.26</course>
  <speed>0.02</speed>
  <fix>3d</fix>
</trkpt>
<trkpt lat="33.8102407" lon="-118.3938747">
  <ele>-2.07</ele>
  <time>2026-09-02T22:12:05Z</time>
  <course>185.14</course>
  <speed>0.0</speed>
  <fix>3d</fix>
</trkpt>
<trkpt lat="33.8102405" lon="-118.3938747">
  <ele>-2.01</ele>
  <time>2026-09-02T22:12:05Z</time>
  <course>13.26</course>
  <speed>0.02</speed>
  <fix>3d</fix>
</trkpt>
<trkpt lat="33.8102407" lon="-118.3938747">
  <ele>-2.069</ele>
  <time>2026-09-02T22:12:05Z</time>
  <course>185.1</course>
  <speed>0.11045361017187261</speed>
  <fix>3d</fix>
</trkpt>
<trkpt lat="33.8102405" lon="-118.3938747">
  <ele>-2.01</ele>
  <time>2026-09-02T22:12:05Z</time>
  <course>129.72</course>
  <speed>0.0</speed>
  <fix>3d</fix>
</trkpt>
<trkpt lat="33.8102405" lon="-118.3938747">
  <ele>-2.067</ele>
  <time>2026-09-02T22:12:05Z</time>
  <course>185.08</course>
  <speed>0.2816025568065745</speed>
  <fix>3d</fix>
</trkpt>
<trkpt lat="33.8102405" lon="-118.3938747">
  <ele>-2.01</ele>
  <time>2026-09-02T22:12:05Z</time>
  <course>129.72</course>
  <speed>0.0</speed>
  <fix>3d</fix>
</trkpt>
<trkpt lat="33.8102401" lon="-118.3938748">
  <ele>-2.066</ele>
  <time>2026-09-02T22:12:05Z</time>
  <course>185.07</course>
  <speed>0.4825971404805462</speed>
  <fix>3d</fix>
</trkpt>
<trkpt lat="33.8102404" lon="-118.3938747">
  <ele>-2.01</ele>
  <time>2026-09-02T22:12:05Z</time>
  <course>182.51</course>
  <speed>0.18</speed>
  <fix>3d</fix>
</trkpt>
<trkpt lat="33.8102396" lon="-118.3938748">
  <ele>-2.066</ele>
  <time>2026-09-02T22:12:06Z</time>
  <course>185.07</course>
  <speed>0.6129437168288782</speed>
  <fix>3d</fix>
</trkpt>
<trkpt lat="33.8102404" lon="-118.3938747">
  <ele>-2.01</ele>
  <time>2026-09-02T22:12:06Z</time>
  <course>182.51</course>
  <speed>0.18</speed>
  <fix>3d</fix>
</trkpt>
<trkpt lat="33.810239" lon="-118.3938749">
  <ele>-2.066</ele>
  <time>2026-09-02T22:12:06Z</time>
  <course>185.06</course>
  <speed>0.7134423592694787</speed>
  <fix>3d</fix>
</trkpt>
<trkpt lat="33.8102398" lon="-118.3938747">
  <ele>-2.01</ele>
  <time>2026-09-02T22:12:06Z</time>
  <course>183.59</course>
  <speed>0.5</speed>
  <fix>3d</fix>
</trkpt>
<trkpt lat="33.8102384" lon="-118.3938749">
  <ele>-2.068</ele>
  <time>2026-09-02T22:12:06Z</time>
  <course>185.06</course>
  <speed>0.7840918313565064</speed>
  <fix>3d</fix>
</trkpt>
<trkpt lat="33.8102398" lon="-118.3938747">
  <ele>-2.01</ele>
  <time>2026-09-02T22:12:06Z</time>
  <course>183.59</course>
  <speed>0.5</speed>
  <fix>3d</fix>
</trkpt>
<trkpt lat="33.8102376" lon="-118.393875">
  <ele>-2.07</ele>
  <time>2026-09-02T22:12:06Z</time>
  <course>185.05</course>
  <speed>0.8438009243891595</speed>
  <fix>3d</fix>
</trkpt>
<trkpt lat="33.8102387" lon="-118.3938747">
  <ele>-2.02</ele>
  <time>2026-09-02T22:12:06Z</time>
  <course>183.87</course>
  <speed>0.73</speed>
  <fix>3d</fix>
</trkpt>
<trkpt lat="33.8102369" lon="-118.3938751">
  <ele>-2.07</ele>
  <time>2026-09-02T22:12:06Z</time>
  <course>185.04</course>
  <speed>0.9044888059008801</speed>
  <fix>3d</fix>
</trkpt>
<trkpt lat="33.8102387" lon="-118.3938747">
  <ele>-2.02</ele>
  <time>2026-09-02T22:12:06Z</time>
  <course>183.87</course>
  <speed>0.73</speed>
  <fix>3d</fix>
</trkpt>
<trkpt lat="33.810236" lon="-118.3938752">
  <ele>-2.07</ele>
  <time>2026-09-02T22:12:06Z</time>
  <course>185.04</course>
  <speed>0.9442986815621421</speed>
  <fix>3d</fix>
</trkpt>
<trkpt lat="33.8102373" lon="-118.3938748">
  <ele>-2.02</ele>
  <time>2026-09-02T22:12:06Z</time>
  <course>184.11</course>
  <speed>0.87</speed>
  <fix>3d</fix>
</trkpt>
<trkpt lat="33.8102352" lon="-118.3938752">
  <ele>-2.07</ele>
  <time>2026-09-02T22:12:06Z</time>
  <course>185.03</course>
  <speed>0.9950376877284599</speed>
  <fix>3d</fix>
</trkpt>
<trkpt lat="33.8102373" lon="-118.3938748">
  <ele>-2.02</ele>
  <time>2026-09-02T22:12:06Z</time>
  <course>184.11</course>
  <speed>0.87</speed>
  <fix>3d</fix>
</trkpt>
<trkpt lat="33.8102343" lon="-118.3938753">
  <ele>-2.07</ele>
  <time>2026-09-02T22:12:06Z</time>
  <course>185.03</course>
  <speed>1.0248902380255165</speed>
  <fix>3d</fix>
</trkpt>
<trkpt lat="33.8102356" lon="-118.393875">
  <ele>-2.02</ele>
  <time>2026-09-02T22:12:06Z</time>
  <course>184.4</course>
  <speed>0.98</speed>
  <fix>3d</fix>
</trkpt>
<trkpt lat="33.8102334" lon="-118.3938754">
  <ele>-2.07</ele>
  <time>2026-09-02T22:12:06Z</time>
  <course>185.02</course>
  <speed>1.0656922632730332</speed>
  <fix>3d</fix>
</trkpt>
<trkpt lat="33.8102356" lon="-118.393875">
  <ele>-2.02</ele>
  <time>2026-09-02T22:12:06Z</time>
  <course>184.4</course>
  <speed>0.98</speed>
  <fix>3d</fix>
</trkpt>
<trkpt lat="33.8102324" lon="-118.3938755">
  <ele>-2.071</ele>
  <time>2026-09-02T22:12:06Z</time>
  <course>185.02</course>
  <speed>1.0955363982999378</speed>
  <fix>3d</fix>
</trkpt>
<trkpt lat="33.8102337" lon="-118.3938752">
  <ele>-2.03</ele>
  <time>2026-09-02T22:12:06Z</time>
  <course>184.67</course>
  <speed>1.06</speed>
  <fix>3d</fix>
</trkpt>
<trkpt lat="33.8102314" lon="-118.3938756">
  <ele>-2.071</ele>
  <time>2026-09-02T22:12:06Z</time>
  <course>185.02</course>
  <speed>1.126410227226298</speed>
  <fix>3d</fix>
</trkpt>
<trkpt lat="33.8102337" lon="-118.3938752">
  <ele>-2.03</ele>
  <time>2026-09-02T22:12:06Z</time>
  <course>184.67</course>
  <speed>1.06</speed>
  <fix>3d</fix>
</trkpt>
<trkpt lat="33.8102304" lon="-118.3938757">
  <ele>-2.071</ele>
  <time>2026-09-02T22:12:06Z</time>
  <course>185.02</course>
  <speed>1.1462983904725679</speed>
  <fix>3d</fix>
</trkpt>
<trkpt lat="33.8102317" lon="-118.3938753">
  <ele>-2.03</ele>
  <time>2026-09-02T22:12:06Z</time>
  <course>184.87</course>
  <speed>1.13</speed>
  <fix>3d</fix>
</trkpt>
<trkpt lat="33.8102293" lon="-118.3938758">
  <ele>-2.072</ele>
  <time>2026-09-02T22:12:06Z</time>
  <course>185.02</course>
  <speed>1.16619037896906</speed>
  <fix>3d</fix>
</trkpt>
<trkpt lat="33.8102317" lon="-118.3938753">
  <ele>-2.03</ele>
  <time>2026-09-02T22:12:06Z</time>
  <course>184.87</course>
  <speed>1.13</speed>
  <fix>3d</fix>
</trkpt>
<trkpt lat="33.8102283" lon="-118.3938759">
  <ele>-2.073</ele>
  <time>2026-09-02T22:12:06Z</time>
  <course>185.02</course>
  <speed>1.1871394189394942</speed>
  <fix>3d</fix>
</trkpt>
<trkpt lat="33.8102297" lon="-118.3938756">
  <ele>-2.03</ele>
  <time>2026-09-02T22:12:06Z</time>
  <course>185.04</course>
  <speed>1.18</speed>
  <fix>3d</fix>
</trkpt>
<trkpt lat="33.8102272" lon="-118.393876">
  <ele>-2.073</ele>
  <time>2026-09-02T22:12:06Z</time>
  <course>185.02</course>
  <speed>1.20702112657567</speed>
  <fix>3d</fix>
</trkpt>
<trkpt lat="33.8102297" lon="-118.3938756">
  <ele>-2.03</ele>
  <time>2026-09-02T22:12:06Z</time>
  <course>185.04</course>
  <speed>1.18</speed>
  <fix>3d</fix>
</trkpt>
<trkpt lat="33.8102261" lon="-118.3938762">
  <ele>-2.075</ele>
  <time>2026-09-02T22:12:06Z</time>
  <course>185.02</course>
  <speed>1.216963434126104</speed>
  <fix>3d</fix>
</trkpt>
<trkpt lat="33.8102276" lon="-118.3938758">
  <ele>-2.03</ele>
  <time>2026-09-02T22:12:06Z</time>
  <course>185.2</course>
  <speed>1.22</speed>
  <fix>3d</fix>
</trkpt>
<trkpt lat="33.810225" lon="-118.3938763">
  <ele>-2.078</ele>
  <time>2026-09-02T22:12:06Z</time>
  <course>185.02</course>
  <speed>1.2368508398347797</speed>
  <fix>3d</fix>
</trkpt>
<trkpt lat="33.8102276" lon="-118.3938758">
  <ele>-2.03</ele>
  <time>2026-09-02T22:12:06Z</time>
  <course>185.2</course>
  <speed>1.22</speed>
  <fix>3d</fix>
</trkpt>
<trkpt lat="33.8102239" lon="-118.3938764">
  <ele>-2.079</ele>
  <time>2026-09-02T22:12:06Z</time>
  <course>185.03</course>
  <speed>1.2467958934805647</speed>
  <fix>3d</fix>
</trkpt>
<trkpt lat="33.8102253" lon="-118.3938761">
  <ele>-2.04</ele>
  <time>2026-09-02T22:12:06Z</time>
  <course>185.31</course>
  <speed>1.26</speed>
  <fix>3d</fix>
</trkpt>
<trkpt lat="33.8102227" lon="-118.3938765">
  <ele>-2.08</ele>
  <time>2026-09-02T22:12:06Z</time>
  <course>185.02</course>
  <speed>1.2567418191498205</speed>
  <fix>3d</fix>
</trkpt>
<trkpt lat="33.8102253" lon="-118.3938761">
  <ele>-2.04</ele>
  <time>2026-09-02T22:12:06Z</time>
  <course>185.31</course>
  <speed>1.26</speed>
  <fix>3d</fix>
</trkpt>
<trkpt lat="33.8102216" lon="-118.3938766">
  <ele>-2.079</ele>
  <time>2026-09-02T22:12:06Z</time>
  <course>185.03</course>
  <speed>1.2567418191498205</speed>
  <fix>3d</fix>
</trkpt>
<trkpt lat="33.810223" lon="-118.3938763">
  <ele>-2.03</ele>
  <time>2026-09-02T22:12:06Z</time>
  <course>185.35</course>
  <speed>1.28</speed>
  <fix>3d</fix>
</trkpt>
<trkpt lat="33.8102205" lon="-118.3938768">
  <ele>-2.077</ele>
  <time>2026-09-02T22:12:06Z</time>
  <course>185.03</course>
  <speed>1.2666885963013956</speed>
  <fix>3d</fix>
</trkpt>
<trkpt lat="33.810223" lon="-118.3938763">
  <ele>-2.03</ele>
  <time>2026-09-02T22:12:06Z</time>
  <course>185.35</course>
  <speed>1.28</speed>
  <fix>3d</fix>
</trkpt>
<trkpt lat="33.8102193" lon="-118.3938769">
  <ele>-2.075</ele>
  <time>2026-09-02T22:12:06Z</time>
  <course>185.03</course>
  <speed>1.2766362050325848</speed>
  <fix>3d</fix>
</trkpt>
<trkpt lat="33.8102207" lon="-118.3938766">
  <ele>-2.03</ele>
  <time>2026-09-02T22:12:06Z</time>
  <course>185.37</course>
  <speed>1.3</speed>
  <fix>3d</fix>
</trkpt>
<trkpt lat="33.8102181" lon="-118.393877">
  <ele>-2.073</ele>
  <time>2026-09-02T22:12:06Z</time>
  <course>185.03</course>
  <speed>1.2766362050325848</speed>
  <fix>3d</fix>
</trkpt>
<trkpt lat="33.8102207" lon="-118.3938766">
  <ele>-2.03</ele>
  <time>2026-09-02T22:12:06Z</time>
  <course>185.37</course>
  <speed>1.3</speed>
  <fix>3d</fix>
</trkpt>
<trkpt lat="33.810217" lon="-118.3938771">
  <ele>-2.073</ele>
  <time>2026-09-02T22:12:06Z</time>
  <course>185.03</course>
  <speed>1.2766362050325848</speed>
  <fix>3d</fix>
</trkpt>
<trkpt lat="33.8102183" lon="-118.3938769">
  <ele>-2.03</ele>
  <time>2026-09-02T22:12:06Z</time>
  <course>185.37</course>
  <speed>1.31</speed>
  <fix>3d</fix>
</trkpt>
<trkpt lat="33.8102158" lon="-118.3938773">
  <ele>-2.074</ele>
  <time>2026-09-02T22:12:06Z</time>
  <course>185.04</course>
  <speed>1.2865846260545786</speed>
  <fix>3d</fix>
</trkpt>
<trkpt lat="33.8102183" lon="-118.3938769">
  <ele>-2.03</ele>
  <time>2026-09-02T22:12:06Z</time>
  <course>185.37</course>
  <speed>1.31</speed>
  <fix>3d</fix>
</trkpt>
<trkpt lat="33.8102146" lon="-118.3938774">
  <ele>-2.075</ele>
  <time>2026-09-02T22:12:06Z</time>
  <course>185.05</course>
  <speed>1.2865846260545786</speed>
  <fix>3d</fix>
</trkpt>
<trkpt lat="33.8102159" lon="-118.3938771">
  <ele>-2.02</ele>
  <time>2026-09-02T22:12:06Z</time>
  <course>185.35</course>
  <speed>1.32</speed>
  <fix>3d</fix>
</trkpt>
<trkpt lat="33.8102134" lon="-118.3938775">
  <ele>-2.074</ele>
  <time>2026-09-02T22:12:06Z</time>
  <course>185.04</course>
  <speed>1.2865846260545786</speed>
  <fix>3d</fix>
</trkpt>
<trkpt lat="33.8102159" lon="-118.3938771">
  <ele>-2.02</ele>
  <time>2026-09-02T22:12:06Z</time>
  <course>185.35</course>
  <speed>1.32</speed>
  <fix>3d</fix>
</trkpt>
<trkpt lat="33.8102122" lon="-118.3938777">
  <ele>-2.073</ele>
  <time>2026-09-02T22:12:06Z</time>
  <course>185.04</course>
  <speed>1.2865846260545786</speed>
  <fix>3d</fix>
</trkpt>
<trkpt lat="33.8102136" lon="-118.3938774">
  <ele>-2.02</ele>
  <time>2026-09-02T22:12:06Z</time>
  <course>185.32</course>
  <speed>1.32</speed>
  <fix>3d</fix>
</trkpt>
<trkpt lat="33.8102111" lon="-118.3938778">
  <ele>-2.071</ele>
  <time>2026-09-02T22:12:06Z</time>
  <course>185.04</course>
  <speed>1.2567418191498205</speed>
  <fix>3d</fix>
</trkpt>
<trkpt lat="33.8102136" lon="-118.3938774">
  <ele>-2.02</ele>
  <time>2026-09-02T22:12:06Z</time>
  <course>185.32</course>
  <speed>1.32</speed>
  <fix>3d</fix>
</trkpt>
<trkpt lat="33.8102099" lon="-118.3938779">
  <ele>-2.07</ele>
  <time>2026-09-02T22:12:06Z</time>
  <course>185.05</course>
  <speed>1.1761377470347596</speed>
  <fix>3d</fix>
</trkpt>
<trkpt lat="33.8102113" lon="-118.3938777">
  <ele>-2.02</ele>
  <time>2026-09-02T22:12:06Z</time>
  <course>185.3</course>
  <speed>1.3</speed>
  <fix>3d</fix>
</trkpt>
<trkpt lat="33.8102096" lon="-118.3938779">
  <ele>-2.07</ele>
  <time>2026-09-02T22:12:06Z</time>
  <course>185.05</course>
  <speed>1.1462983904725679</speed>
  <fix>3d</fix>
</trkpt>
<trkpt lat="33.8102089" lon="-118.393878">
  <ele>-2.069</ele>
  <time>2026-09-02T22:12:06Z</time>
  <course>185.05</course>
  <speed>1.0557461816175324</speed>
  <fix>3d</fix>
</trkpt>
<trkpt lat="33.8102113" lon="-118.3938777">
  <ele>-2.02</ele>
  <time>2026-09-02T22:12:06Z</time>
  <course>185.3</course>
  <speed>1.3</speed>
  <fix>3d</fix>
</trkpt>
<trkpt lat="33.810208" lon="-118.3938781">
  <ele>-2.069</ele>
  <time>2026-09-02T22:12:06Z</time>
  <course>185.05</course>
  <speed>0.9044888059008801</speed>
  <fix>3d</fix>
</trkpt>
<trkpt lat="33.810209" lon="-118.3938779">
  <ele>-2.02</ele>
  <time>2026-09-02T22:12:06Z</time>
  <course>185.29</course>
  <speed>1.17</speed>
  <fix>3d</fix>
</trkpt>
<trkpt lat="33.8102072" lon="-118.3938782">
  <ele>-2.069</ele>
  <time>2026-09-02T22:12:06Z</time>
  <course>185.06</course>
  <speed>0.7443117626371358</speed>
  <fix>3d</fix>
</trkpt>
<trkpt lat="33.810209" lon="-118.3938779">
  <ele>-2.02</ele>
  <time>2026-09-02T22:12:06Z</time>
  <course>185.29</course>
  <speed>1.17</speed>
  <fix>3d</fix>
</trkpt>
<trkpt lat="33.8102066" lon="-118.3938783">
  <ele>-2.07</ele>
  <time>2026-09-02T22:12:06Z</time>
  <course>185.06</course>
  <speed>0.6438167441127949</speed>
  <fix>3d</fix>
</trkpt>
<trkpt lat="33.8102071" lon="-118.3938782">
  <ele>-2.02</ele>
  <time>2026-09-02T22:12:06Z</time>
  <course>185.32</course>
  <speed>0.91</speed>
  <fix>3d</fix>
</trkpt>
<trkpt lat="33.810206" lon="-118.3938783">
  <ele>-2.071</ele>
  <time>2026-09-02T22:12:06Z</time>
  <course>185.07</course>
  <speed>0.5532630477449222</speed>
  <fix>3d</fix>
</trkpt>
<trkpt lat="33.8102071" lon="-118.3938782">
  <ele>-2.02</ele>
  <time>2026-09-02T22:12:06Z</time>
  <course>185.32</course>
  <speed>0.91</speed>
  <fix>3d</fix>
</trkpt>
<trkpt lat="33.8102055" lon="-118.3938784">
  <ele>-2.072</ele>
  <time>2026-09-02T22:12:06Z</time>
  <course>185.07</course>
  <speed>0.49254441424099005</speed>
  <fix>3d</fix>
</trkpt>
<trkpt lat="33.8102057" lon="-118.3938783">
  <ele>-2.02</ele>
  <time>2026-09-02T22:12:06Z</time>
  <course>185.31</course>
  <speed>0.67</speed>
  <fix>3d</fix>
</trkpt>
<trkpt lat="33.810205" lon="-118.3938785">
  <ele>-2.072</ele>
  <time>2026-09-02T22:12:06Z</time>
  <course>185.08</course>
  <speed>0.4428317965096906</speed>
  <fix>3d</fix>
</trkpt>
<trkpt lat="33.8102057" lon="-118.3938783">
  <ele>-2.02</ele>
  <time>2026-09-02T22:12:06Z</time>
  <course>185.31</course>
  <speed>0.67</speed>
  <fix>3d</fix>
</trkpt>
<trkpt lat="33.8102046" lon="-118.3938785">
  <ele>-2.072</ele>
  <time>2026-09-02T22:12:06Z</time>
  <course>185.08</course>
  <speed>0.3920459156782532</speed>
  <fix>3d</fix>
</trkpt>
<trkpt lat="33.8102046" lon="-118.3938784">
  <ele>-2.02</ele>
  <time>2026-09-02T22:12:06Z</time>
  <course>185.18</course>
  <speed>0.52</speed>
  <fix>3d</fix>
</trkpt>
<trkpt lat="33.8102042" lon="-118.3938785">
  <ele>-2.072</ele>
  <time>2026-09-02T22:12:06Z</time>
  <course>185.08</course>
  <speed>0.3423448553724738</speed>
  <fix>3d</fix>
</trkpt>
<trkpt lat="33.8102046" lon="-118.3938784">
  <ele>-2.02</ele>
  <time>2026-09-02T22:12:06Z</time>
  <course>185.18</course>
  <speed>0.52</speed>
  <fix>3d</fix>
</trkpt>
<trkpt lat="33.8102038" lon="-118.3938786">
  <ele>-2.072</ele>
  <time>2026-09-02T22:12:06Z</time>
  <course>185.08</course>
  <speed>0.3026549190084311</speed>
  <fix>3d</fix>
</trkpt>
<trkpt lat="33.8102038" lon="-118.3938785">
  <ele>-2.02</ele>
  <time>2026-09-02T22:12:06Z</time>
  <course>185.06</course>
  <speed>0.41</speed>
  <fix>3d</fix>
</trkpt>
<trkpt lat="33.8102035" lon="-118.3938786">
  <ele>-2.072</ele>
  <time>2026-09-02T22:12:06Z</time>
  <course>185.09</course>
  <speed>0.261725046566048</speed>
  <fix>3d</fix>
</trkpt>
<trkpt lat="33.8102038" lon="-118.3938785">
  <ele>-2.02</ele>
  <time>2026-09-02T22:12:06Z</time>
  <course>185.06</course>
  <speed>0.41</speed>
  <fix>3d</fix>
</trkpt>
<trkpt lat="33.8102035" lon="-118.3938786">
  <ele>-2.072</ele>
  <time>2026-09-02T22:12:06Z</time>
  <course>185.09</course>
  <speed>0.25179356624028343</speed>
  <fix>3d</fix>
</trkpt>
<trkpt lat="33.8102033" lon="-118.3938786">
  <ele>-2.073</ele>
  <time>2026-09-02T22:12:06Z</time>
  <course>185.09</course>
  <speed>0.23194827009486402</speed>
  <fix>3d</fix>
</trkpt>
<trkpt lat="33.8102032" lon="-118.3938786">
  <ele>-2.02</ele>
  <time>2026-09-02T22:12:06Z</time>
  <course>184.98</course>
  <speed>0.32</speed>
  <fix>3d</fix>
</trkpt>
<trkpt lat="33.810203" lon="-118.3938787">
  <ele>-2.073</ele>
  <time>2026-09-02T22:12:06Z</time>
  <course>185.1</course>
  <speed>0.20223748416156684</speed>
  <fix>3d</fix>
</trkpt>
<trkpt lat="33.8102032" lon="-118.3938786">
  <ele>-2.02</ele>
  <time>2026-09-02T22:12:06Z</time>
  <course>184.98</course>
  <speed>0.32</speed>
  <fix>3d</fix>
</trkpt>
<trkpt lat="33.8102028" lon="-118.3938787">
  <ele>-2.073</ele>
  <time>2026-09-02T22:12:06Z</time>
  <course>185.1</course>
  <speed>0.1824828759089466</speed>
  <fix>3d</fix>
</trkpt>
<trkpt lat="33.8102026" lon="-118.3938786">
  <ele>-2.02</ele>
  <time>2026-09-02T22:12:06Z</time>
  <course>184.94</course>
  <speed>0.25</speed>
  <fix>3d</fix>
</trkpt>
<trkpt lat="33.8102026" lon="-118.3938787">
  <ele>-2.073</ele>
  <time>2026-09-02T22:12:06Z</time>
  <course>185.11</course>
  <speed>0.16124515496597097</speed>
  <fix>3d</fix>
</trkpt>
<trkpt lat="33.8102026" lon="-118.3938786">
  <ele>-2.02</ele>
  <time>2026-09-02T22:12:06Z</time>
  <course>184.94</course>
  <speed>0.25</speed>
  <fix>3d</fix>
</trkpt>
<trkpt lat="33.8102024" lon="-118.3938787">
  <ele>-2.073</ele>
  <time>2026-09-02T22:12:06Z</time>
  <course>185.11</course>
  <speed>0.1414213562373095</speed>
  <fix>3d</fix>
</trkpt>
<trkpt lat="33.8102022" lon="-118.3938786">
  <ele>-2.02</ele>
  <time>2026-09-02T22:12:06Z</time>
  <course>184.94</course>
  <speed>0.2</speed>
  <fix>3d</fix>
</trkpt>
<trkpt lat="33.8102022" lon="-118.3938787">
  <ele>-2.072</ele>
  <time>2026-09-02T22:12:06Z</time>
  <course>185.1</course>
  <speed>0.12165525060596438</speed>
  <fix>3d</fix>
</trkpt>
<trkpt lat="33.8102022" lon="-118.3938786">
  <ele>-2.02</ele>
  <time>2026-09-02T22:12:06Z</time>
  <course>184.94</course>
  <speed>0.2</speed>
  <fix>3d</fix>
</trkpt>
<trkpt lat="33.8102021" lon="-118.3938788">
  <ele>-2.072</ele>
  <time>2026-09-02T22:12:06Z</time>
  <course>185.1</course>
  <speed>0.09219544457292887</speed>
  <fix>3d</fix>
</trkpt>
<trkpt lat="33.8102019" lon="-118.3938786">
  <ele>-2.02</ele>
  <time>2026-09-02T22:12:06Z</time>
  <course>185.05</course>
  <speed>0.15</speed>
  <fix>3d</fix>
</trkpt>
<trkpt lat="33.810202" lon="-118.3938788">
  <ele>-2.071</ele>
  <time>2026-09-02T22:12:06Z</time>
  <course>185.09</course>
  <speed>0.07280109889280519</speed>
  <fix>3d</fix>
</trkpt>
<trkpt lat="33.8102019" lon="-118.3938786">
  <ele>-2.02</ele>
  <time>2026-09-02T22:12:06Z</time>
  <course>185.05</course>
  <speed>0.15</speed>
  <fix>3d</fix>
</trkpt>
<trkpt lat="33.8102019" lon="-118.3938788">
  <ele>-2.071</ele>
  <time>2026-09-02T22:12:06Z</time>
  <course>185.09</course>
  <speed>0.053851648071345036</speed>
  <fix>3d</fix>
</trkpt>
<trkpt lat="33.8102017" lon="-118.3938787">
  <ele>-2.02</ele>
  <time>2026-09-02T22:12:06Z</time>
  <course>185.78</course>
  <speed>0.1</speed>
  <fix>3d</fix>
</trkpt>
<trkpt lat="33.8102018" lon="-118.3938788">
  <ele>-2.071</ele>
  <time>2026-09-02T22:12:06Z</time>
  <course>185.09</course>
  <speed>0.0316227766016838</speed>
  <fix>3d</fix>
</trkpt>
<trkpt lat="33.8102017" lon="-118.3938787">
  <ele>-2.02</ele>
  <time>2026-09-02T22:12:06Z</time>
  <course>185.78</course>
  <speed>0.1</speed>
  <fix>3d</fix>
</trkpt>
<trkpt lat="33.8102018" lon="-118.3938788">
  <ele>-2.071</ele>
  <time>2026-09-02T22:12:06Z</time>
  <course>185.08</course>
  <speed>0.01414213562373095</speed>
  <fix>3d</fix>
</trkpt>
<trkpt lat="33.8102015" lon="-118.3938788">
  <ele>-2.01</ele>
  <time>2026-09-02T22:12:06Z</time>
  <course>187.9</course>
  <speed>0.06</speed>
  <fix>3d</fix>
</trkpt>
<trkpt lat="33.8102018" lon="-118.3938788">
  <ele>-2.071</ele>
  <time>2026-09-02T22:12:06Z</time>
  <course>185.08</course>
  <speed>0.01414213562373095</speed>
  <fix>3d</fix>
</trkpt>
<trkpt lat="33.8102017" lon="-118.3938788">
  <ele>-2.07</ele>
  <time>2026-09-02T22:12:06Z</time>
  <course>185.08</course>
  <speed>0.01</speed>
  <fix>3d</fix>
</trkpt>
<trkpt lat="33.8102015" lon="-118.3938788">
  <ele>-2.01</ele>
  <time>2026-09-02T22:12:06Z</time>
  <course>187.9</course>
  <speed>0.06</speed>
  <fix>3d</fix>
</trkpt>
<trkpt lat="33.8102017" lon="-118.3938788">
  <ele>-2.068</ele>
  <time>2026-09-02T22:12:06Z</time>
  <course>185.08</course>
  <speed>0.01414213562373095</speed>
  <fix>3d</fix>
</trkpt>
<trkpt lat="33.8102014" lon="-118.3938788">
  <ele>-2.01</ele>
  <time>2026-09-02T22:12:06Z</time>
  <course>193.67</course>
  <speed>0.02</speed>
  <fix>3d</fix>
</trkpt>
<trkpt lat="33.8102017" lon="-118.3938788">
  <ele>-2.067</ele>
  <time>2026-09-02T22:12:06Z</time>
  <course>185.08</course>
  <speed>0.022360679774997897</speed>
  <fix>3d</fix>
</trkpt>
<trkpt lat="33.8102014" lon="-118.3938788">
  <ele>-2.01</ele>
  <time>2026-09-02T22:12:06Z</time>
  <course>193.67</course>
  <speed>0.02</speed>
  <fix>3d</fix>
</trkpt>
<trkpt lat="33.8102017" lon="-118.3938788">
  <ele>-2.066</ele>
  <time>2026-09-02T22:12:06Z</time>
  <course>185.08</course>
  <speed>0.0316227766016838</speed>
  <fix>3d</fix>
</trkpt>
<trkpt lat="33.8102013" lon="-118.3938788">
  <ele>-2.01</ele>
  <time>2026-09-02T22:12:06Z</time>
  <course>313.73</course>
  <speed>0.0</speed>
  <fix>3d</fix>
</trkpt>
<trkpt lat="33.8102017" lon="-118.3938788">
  <ele>-2.066</ele>
  <time>2026-09-02T22:12:06Z</time>
  <course>185.08</course>
  <speed>0.0316227766016838</speed>
  <fix>3d</fix>
</trkpt>
<trkpt lat="33.8102013" lon="-118.3938788">
  <ele>-2.01</ele>
  <time>2026-09-02T22:12:06Z</time>
  <course>313.73</course>
  <speed>0.0</speed>
  <fix>3d</fix>
</trkpt>
<trkpt lat="33.8102017" lon="-118.3938788">
  <ele>-2.067</ele>
  <time>2026-09-02T22:12:06Z</time>
  <course>185.07</course>
  <speed>0.04</speed>
  <fix>3d</fix>
</trkpt>
<trkpt lat="33.8102013" lon="-118.3938788">
  <ele>-2.01</ele>
  <time>2026-09-02T22:12:06Z</time>
  <course>0.65</course>
  <speed>0.02</speed>
  <fix>3d</fix>
</trkpt>
<trkpt lat="33.8102017" lon="-118.3938788">
  <ele>-2.067</ele>
  <time>2026-09-02T22:12:06Z</time>
  <course>185.09</course>
  <speed>0.04</speed>
  <fix>3d</fix>
</trkpt>
<trkpt lat="33.8102013" lon="-118.3938788">
  <ele>-2.01</ele>
  <time>2026-09-02T22:12:06Z</time>
  <course>0.65</course>
  <speed>0.02</speed>
  <fix>3d</fix>
</trkpt>
<trkpt lat="33.8102017" lon="-118.3938788">
  <ele>-2.067</ele>
  <time>2026-09-02T22:12:06Z</time>
  <course>185.13</course>
  <speed>0.04</speed>
  <fix>3d</fix>
</trkpt>
<trkpt lat="33.8102014" lon="-118.3938788">
  <ele>-2.01</ele>
  <time>2026-09-02T22:12:06Z</time>
  <course>4.73</course>
  <speed>0.03</speed>
  <fix>3d</fix>
</trkpt>
<trkpt lat="33.8102017" lon="-118.3938788">
  <ele>-2.069</ele>
  <time>2026-09-02T22:12:06Z</time>
  <course>185.12</course>
  <speed>0.04</speed>
  <fix>3d</fix>
</trkpt>
<trkpt lat="33.8102014" lon="-118.3938788">
  <ele>-2.01</ele>
  <time>2026-09-02T22:12:06Z</time>
  <course>4.73</course>
  <speed>0.03</speed>
  <fix>3d</fix>
</trkpt>
<trkpt lat="33.8102017" lon="-118.3938788">
  <ele>-2.07</ele>
  <time>2026-09-02T22:12:06Z</time>
  <course>185.11</course>
  <speed>0.04</speed>
  <fix>3d</fix>
</trkpt>
<trkpt lat="33.8102015" lon="-118.3938788">
  <ele>-2.02</ele>
  <time>2026-09-02T22:12:06Z</time>
  <course>5.97</course>
  <speed>0.03</speed>
  <fix>3d</fix>
</trkpt>
<trkpt lat="33.8102017" lon="-118.3938788">
  <ele>-2.071</ele>
  <time>2026-09-02T22:12:06Z</time>
  <course>185.11</course>
  <speed>0.04</speed>
  <fix>3d</fix>
</trkpt>
<trkpt lat="33.8102015" lon="-118.3938788">
  <ele>-2.02</ele>
  <time>2026-09-02T22:12:06Z</time>
  <course>5.97</course>
  <speed>0.03</speed>
  <fix>3d</fix>
</trkpt>
<trkpt lat="33.8102017" lon="-118.3938788">
  <ele>-2.071</ele>
  <time>2026-09-02T22:12:06Z</time>
  <course>185.11</course>
  <speed>0.04</speed>
  <fix>3d</fix>
</trkpt>
<trkpt lat="33.8102017" lon="-118.3938788">
  <ele>-2.072</ele>
  <time>2026-09-02T22:12:06Z</time>
  <course>185.1</course>
  <speed>0.04</speed>
  <fix>3d</fix>
</trkpt>
<trkpt lat="33.8102015" lon="-118.3938788">
  <ele>-2.02</ele>
  <time>2026-09-02T22:12:06Z</time>
  <course>6.65</course>
  <speed>0.03</speed>
  <fix>3d</fix>
</trkpt>
<trkpt lat="33.8102017" lon="-118.3938788">
  <ele>-2.072</ele>
  <time>2026-09-02T22:12:06Z</time>
  <course>185.1</course>
  <speed>0.0412310562561766</speed>
  <fix>3d</fix>
</trkpt>
<trkpt lat="33.8102015" lon="-118.3938788">
  <ele>-2.02</ele>
  <time>2026-09-02T22:12:06Z</time>
  <course>6.65</course>
  <speed>0.03</speed>
  <fix>3d</fix>
</trkpt>
<trkpt lat="33.8102018" lon="-118.3938788">
  <ele>-2.072</ele>
  <time>2026-09-02T22:12:06Z</time>
  <course>185.09</course>
  <speed>0.0412310562561766</speed>
  <fix>3d</fix>
</trkpt>
<trkpt lat="33.8102016" lon="-118.3938788">
  <ele>-2.02</ele>
  <time>2026-09-02T22:12:06Z</time>
  <course>6.7</course>
  <speed>0.03</speed>
  <fix>3d</fix>
</trkpt>
<trkpt lat="33.8102018" lon="-118.3938788">
  <ele>-2.074</ele>
  <time>2026-09-02T22:12:06Z</time>
  <course>185.09</course>
  <speed>0.01414213562373095</speed>
  <fix>3d</fix>
</trkpt>
<trkpt lat="33.8102016" lon="-118.3938788">
  <ele>-2.02</ele>
  <time>2026-09-02T22:12:06Z</time>
  <course>6.7</course>
  <speed>0.03</speed>
  <fix>3d</fix>
</trkpt>
<trkpt lat="33.8102017" lon="-118.3938788">
  <ele>-2.074</ele>
  <time>2026-09-02T22:12:06Z</time>
  <course>185.08</course>
  <speed>0.08062257748298549</speed>
  <fix>3d</fix>
</trkpt>
<trkpt lat="33.8102017" lon="-118.3938788">
  <ele>-2.02</ele>
  <time>2026-09-02T22:12:06Z</time>
  <course>12.98</course>
  <speed>0.01</speed>
  <fix>3d</fix>
</trkpt>
<trkpt lat="33.8102017" lon="-118.3938788">
  <ele>-2.075</ele>
  <time>2026-09-02T22:12:06Z</time>
  <course>185.08</course>
  <speed>0.24186773244895649</speed>
  <fix>3d</fix>
</trkpt>
<trkpt lat="33.8102017" lon="-118.3938788">
  <ele>-2.02</ele>
  <time>2026-09-02T22:12:06Z</time>
  <course>12.98</course>
  <speed>0.01</speed>
  <fix>3d</fix>
</trkpt>
<trkpt lat="33.8102014" lon="-118.3938789">
  <ele>-2.075</ele>
  <time>2026-09-02T22:12:06Z</time>
  <course>185.08</course>
  <speed>0.3622154055254967</speed>
  <fix>3d</fix>
</trkpt>
<trkpt lat="33.8102016" lon="-118.3938788">
  <ele>-2.02</ele>
  <time>2026-09-02T22:12:06Z</time>
  <course>182.53</course>
  <speed>0.14</speed>
  <fix>3d</fix>
</trkpt>
<trkpt lat="33.810201" lon="-118.3938789">
  <ele>-2.075</ele>
  <time>2026-09-02T22:12:06Z</time>
  <course>185.07</course>
  <speed>0.45276925690687087</speed>
  <fix>3d</fix>
</trkpt>
<trkpt lat="33.8102016" lon="-118.3938788">
  <ele>-2.02</ele>
  <time>2026-09-02T22:12:06Z</time>
  <course>182.53</course>
  <speed>0.14</speed>
  <fix>3d</fix>
</trkpt>
<trkpt lat="33.8102006" lon="-118.3938789">
  <ele>-2.075</ele>
  <time>2026-09-02T22:12:06Z</time>
  <course>185.07</course>
  <speed>0.5223983154643591</speed>
  <fix>3d</fix>
</trkpt>
<trkpt lat="33.8102012" lon="-118.3938788">
  <ele>-2.02</ele>
  <time>2026-09-02T22:12:06Z</time>
  <course>183.56</course>
  <speed>0.38</speed>
  <fix>3d</fix>
</trkpt>
<trkpt lat="33.8102001" lon="-118.393879">
  <ele>-2.075</ele>
  <time>2026-09-02T22:12:06Z</time>
  <course>185.07</course>
  <speed>0.5731491952362839</speed>
  <fix>3d</fix>
</trkpt>
<trkpt lat="33.8102012" lon="-118.3938788">
  <ele>-2.02</ele>
  <time>2026-09-02T22:12:06Z</time>
  <course>183.56</course>
  <speed>0.38</speed>
  <fix>3d</fix>
</trkpt>
<trkpt lat="33.8101996" lon="-118.393879">
  <ele>-2.075</ele>
  <time>2026-09-02T22:12:06Z</time>
  <course>185.07</course>
  <speed>0.6129437168288782</speed>
  <fix>3d</fix>
</trkpt>
<trkpt lat="33.8102004" lon="-118.3938788">
  <ele>-2.02</ele>
  <time>2026-09-02T22:12:06Z</time>
  <course>183.83</course>
  <speed>0.53</speed>
  <fix>3d</fix>
</trkpt>
<trkpt lat="33.810199" lon="-118.3938791">
  <ele>-2.074</ele>
  <time>2026-09-02T22:12:06Z</time>
  <course>185.07</course>
  <speed>0.6537583651472461</speed>
  <fix>3d</fix>
</trkpt>
<trkpt lat="33.8102004" lon="-118.3938788">
  <ele>-2.02</ele>
  <time>2026-09-02T22:12:06Z</time>
  <course>183.83</course>
  <speed>0.53</speed>
  <fix>3d</fix>
</trkpt>
<trkpt lat="33.8101984" lon="-118.3938792">
  <ele>-2.073</ele>
  <time>2026-09-02T22:12:06Z</time>
  <course>185.07</course>
  <speed>0.6835934464285041</speed>
  <fix>3d</fix>
</trkpt>
<trkpt lat="33.8101993" lon="-118.3938789">
  <ele>-2.02</ele>
  <time>2026-09-02T22:12:06Z</time>
  <course>184.07</course>
  <speed>0.63</speed>
  <fix>3d</fix>
</trkpt>
<trkpt lat="33.8101978" lon="-118.3938792">
  <ele>-2.073</ele>
  <time>2026-09-02T22:12:06Z</time>
  <course>185.06</course>
  <speed>0.7134423592694787</speed>
  <fix>3d</fix>
</trkpt>
<trkpt lat="33.8101993" lon="-118.3938789">
  <ele>-2.02</ele>
  <time>2026-09-02T22:12:06Z</time>
  <course>184.07</course>
  <speed>0.63</speed>
  <fix>3d</fix>
</trkpt>
<trkpt lat="33.8101971" lon="-118.3938793">
  <ele>-2.073</ele>
  <time>2026-09-02T22:12:06Z</time>
  <course>185.06</course>
  <speed>0.7443117626371358</speed>
  <fix>3d</fix>
</trkpt>
<trkpt lat="33.8101981" lon="-118.393879">
  <ele>-2.02</ele>
  <time>2026-09-02T22:12:06Z</time>
  <course>184.33</course>
  <speed>0.7</speed>
  <fix>3d</fix>
</trkpt>
<trkpt lat="33.8101965" lon="-118.3938793">
  <ele>-2.073</ele>
  <time>2026-09-02T22:12:06Z</time>
  <course>185.05</course>
  <speed>0.7741446893184762</speed>
  <fix>3d</fix>
</trkpt>
<trkpt lat="33.8101981" lon="-118.393879">
  <ele>-2.02</ele>
  <time>2026-09-02T22:12:06Z</time>
  <course>184.33</course>
  <speed>0.7</speed>
  <fix>3d</fix>
</trkpt>
<trkpt lat="33.8101958" lon="-118.3938794">
  <ele>-2.073</ele>
  <time>2026-09-02T22:12:06Z</time>
  <course>185.06</course>
  <speed>0.7940403012442127</speed>
  <fix>3d</fix>
</trkpt>
<trkpt lat="33.8101968" lon="-118.3938791">
  <ele>-2.01</ele>
  <time>2026-09-02T22:12:06Z</time>
  <course>184.58</course>
  <speed>0.76</speed>
  <fix>3d</fix>
</trkpt>
<trkpt lat="33.8101951" lon="-118.3938795">
  <ele>-2.072</ele>
  <time>2026-09-02T22:12:06Z</time>
  <course>185.05</course>
  <speed>0.8149846624323674</speed>
  <fix>3d</fix>
</trkpt>
<trkpt lat="33.8101968" lon="-118.3938791">
  <ele>-2.01</ele>
  <time>2026-09-02T22:12:06Z</time>
  <course>184.58</course>
  <speed>0.76</speed>
  <fix>3d</fix>
</trkpt>
<trkpt lat="33.8101943" lon="-118.3938796">
  <ele>-2.071</ele>
  <time>2026-09-02T22:12:06Z</time>
  <course>185.05</course>
  <speed>0.8249242389456137</speed>
  <fix>3d</fix>
</trkpt>
<trkpt lat="33.8101953" lon="-118.3938793">
  <ele>-2.01</ele>
  <time>2026-09-02T22:12:06Z</time>
  <course>184.8</course>
  <speed>0.81</speed>
  <fix>3d</fix>
</trkpt>
<trkpt lat="33.8101936" lon="-118.3938796">
  <ele>-2.069</ele>
  <time>2026-09-02T22:12:06Z</time>
  <course>185.05</course>
  <speed>0.8448076704197234</speed>
  <fix>3d</fix>
</trkpt>
<trkpt lat="33.8101953" lon="-118.3938793">
  <ele>-2.01</ele>
  <time>2026-09-02T22:12:06Z</time>
  <course>184.8</course>
  <speed>0.81</speed>
  <fix>3d</fix>
</trkpt>
<trkpt lat="33.8101928" lon="-118.3938797">
  <ele>-2.068</ele>
  <time>2026-09-02T22:12:06Z</time>
  <course>185.06</course>
  <speed>0.8547514258543241</speed>
  <fix>3d</fix>
</trkpt>
<trkpt lat="33.8101938" lon="-118.3938795">
  <ele>-2.01</ele>
  <time>2026-09-02T22:12:06Z</time>
  <course>184.95</course>
  <speed>0.85</speed>
  <fix>3d</fix>
</trkpt>
<trkpt lat="33.810192" lon="-118.3938798">
  <ele>-2.067</ele>
  <time>2026-09-02T22:12:06Z</time>
  <course>185.06</course>
  <speed>0.8646964785403025</speed>
  <fix>3d</fix>
</trkpt>
<trkpt lat="33.8101938" lon="-118.3938795">
  <ele>-2.01</ele>
  <time>2026-09-02T22:12:06Z</time>
  <course>184.95</course>
  <speed>0.85</speed>
  <fix>3d</fix>
</trkpt>
<trkpt lat="33.8101912" lon="-118.3938799">
  <ele>-2.068</ele>
  <time>2026-09-02T22:12:06Z</time>
  <course>185.05</course>
  <speed>0.8746427842267951</speed>
  <fix>3d</fix>
</trkpt>
<trkpt lat="33.8101923" lon="-118.3938796">
  <ele>-2.01</ele>
  <time>2026-09-02T22:12:06Z</time>
  <course>185.02</course>
  <speed>0.88</speed>
  <fix>3d</fix>
</trkpt>
<trkpt lat="33.8101904" lon="-118.39388">
  <ele>-2.069</ele>
  <time>2026-09-02T22:12:06Z</time>
  <course>185.05</course>
  <speed>0.8856635930193812</speed>
  <fix>3d</fix>
</trkpt>
<trkpt lat="33.8101923" lon="-118.3938796">
  <ele>-2.01</ele>
  <time>2026-09-02T22:12:06Z</time>
  <course>185.02</course>
  <speed>0.88</speed>
  <fix>3d</fix>
</trkpt>
<trkpt lat="33.8101896" lon="-118.3938801">
  <ele>-2.07</ele>
  <time>2026-09-02T22:12:06Z</time>
  <course>185.05</course>
  <speed>0.8956003573022958</speed>
  <fix>3d</fix>
</trkpt>
<trkpt lat="33.8101907" lon="-118.3938798">
  <ele>-2.01</ele>
  <time>2026-09-02T22:12:06Z</time>
  <course>185.05</course>
  <speed>0.9</speed>
  <fix>3d</fix>
</trkpt>
<trkpt lat="33.8101888" lon="-118.3938801">
  <ele>-2.071</ele>
  <time>2026-09-02T22:12:06Z</time>
  <course>185.05</course>
  <speed>0.8956003573022958</speed>
  <fix>3d</fix>
</trkpt>
<trkpt lat="33.8101907" lon="-118.3938798">
  <ele>-2.01</ele>
  <time>2026-09-02T22:12:06Z</time>
  <course>185.05</course>
  <speed>0.9</speed>
  <fix>3d</fix>
</trkpt>
<trkpt lat="33.810188" lon="-118.3938802">
  <ele>-2.071</ele>
  <time>2026-09-02T22:12:06Z</time>
  <course>185.05</course>
  <speed>0.9055385138137417</speed>
  <fix>3d</fix>
</trkpt>
<trkpt lat="33.8101891" lon="-118.39388">
  <ele>-2.01</ele>
  <time>2026-09-02T22:12:06Z</time>
  <course>185.09</course>
  <speed>0.92</speed>
  <fix>3d</fix>
</trkpt>
<trkpt lat="33.8101872" lon="-118.3938803">
  <ele>-2.071</ele>
  <time>2026-09-02T22:12:06Z</time>
  <course>185.05</course>
  <speed>0.9055385138137417</speed>
  <fix>3d</fix>
</trkpt>
<trkpt lat="33.8101891" lon="-118.39388">
  <ele>-2.01</ele>
  <time>2026-09-02T22:12:06Z</time>
  <course>185.09</course>
  <speed>0.92</speed>
  <fix>3d</fix>
</trkpt>
<trkpt lat="33.8101864" lon="-118.3938804">
  <ele>-2.072</ele>
  <time>2026-09-02T22:12:06Z</time>
  <course>185.05</course>
  <speed>0.9055385138137417</speed>
  <fix>3d</fix>
</trkpt>
<trkpt lat="33.8101874" lon="-118.3938801">
  <ele>-2.02</ele>
  <time>2026-09-02T22:12:06Z</time>
  <course>185.1</course>
  <speed>0.93</speed>
  <fix>3d</fix>
</trkpt>
<trkpt lat="33.8101855" lon="-118.3938805">
  <ele>-2.073</ele>
  <time>2026-09-02T22:12:06Z</time>
  <course>185.05</course>
  <speed>0.9154780172128657</speed>
  <fix>3d</fix>
</trkpt>
<trkpt lat="33.8101874" lon="-118.3938801">
  <ele>-2.02</ele>
  <time>2026-09-02T22:12:06Z</time>
  <course>185.1</course>
  <speed>0.93</speed>
  <fix>3d</fix>
</trkpt>
<trkpt lat="33.8101847" lon="-118.3938806">
  <ele>-2.074</ele>
  <time>2026-09-02T22:12:06Z</time>
  <course>185.05</course>
  <speed>0.9154780172128657</speed>
  <fix>3d</fix>
</trkpt>
<trkpt lat="33.8101857" lon="-118.3938803">
  <ele>-2.02</ele>
  <time>2026-09-02T22:12:06Z</time>
  <course>185.13</course>
  <speed>0.94</speed>
  <fix>3d</fix>
</trkpt>
<trkpt lat="33.8101839" lon="-118.3938807">
  <ele>-2.073</ele>
  <time>2026-09-02T22:12:06Z</time>
  <course>185.05</course>
  <speed>0.9154780172128657</speed>
  <fix>3d</fix>
</trkpt>
<trkpt lat="33.8101857" lon="-118.3938803">
  <ele>-2.02</ele>
  <time>2026-09-02T22:12:06Z</time>
  <course>185.13</course>
  <speed>0.94</speed>
  <fix>3d</fix>
</trkpt>
<trkpt lat="33.810183" lon="-118.3938808">
  <ele>-2.073</ele>
  <time>2026-09-02T22:12:06Z</time>
  <course>185.06</course>
  <speed>0.9154780172128657</speed>
  <fix>3d</fix>
</trkpt>
<trkpt lat="33.810184" lon="-118.3938805">
  <ele>-2.02</ele>
  <time>2026-09-02T22:12:06Z</time>
  <course>185.19</course>
  <speed>0.94</speed>
  <fix>3d</fix>
</trkpt>
<trkpt lat="33.8101822" lon="-118.3938809">
  <ele>-2.072</ele>
  <time>2026-09-02T22:12:06Z</time>
  <course>185.06</course>
  <speed>0.9154780172128657</speed>
  <fix>3d</fix>
</trkpt>
<trkpt lat="33.810184" lon="-118.3938805">
  <ele>-2.02</ele>
  <time>2026-09-02T22:12:06Z</time>
  <course>185.19</course>
  <speed>0.94</speed>
  <fix>3d</fix>
</trkpt>
<trkpt lat="33.8101813" lon="-118.3938809">
  <ele>-2.072</ele>
  <time>2026-09-02T22:12:06Z</time>
  <course>185.05</course>
  <speed>0.9154780172128657</speed>
  <fix>3d</fix>
</trkpt>
<trkpt lat="33.8101823" lon="-118.3938806">
  <ele>-2.02</ele>
  <time>2026-09-02T22:12:06Z</time>
  <course>185.24</course>
  <speed>0.95</speed>
  <fix>3d</fix>
</trkpt>
<trkpt lat="33.8101805" lon="-118.393881">
  <ele>-2.07</ele>
  <time>2026-09-02T22:12:06Z</time>
  <course>185.05</course>
  <speed>0.8856635930193812</speed>
  <fix>3d</fix>
</trkpt>
<trkpt lat="33.8101823" lon="-118.3938806">
  <ele>-2.02</ele>
  <time>2026-09-02T22:12:06Z</time>
  <course>185.24</course>
  <speed>0.95</speed>
  <fix>3d</fix>
</trkpt>
<trkpt lat="33.8101797" lon="-118.3938811">
  <ele>-2.068</ele>
  <time>2026-09-02T22:12:06Z</time>
  <course>185.06</course>
  <speed>0.8050465825031493</speed>
  <fix>3d</fix>
</trkpt>
<trkpt lat="33.8101806" lon="-118.3938809">
  <ele>-2.01</ele>
  <time>2026-09-02T22:12:06Z</time>
  <course>185.32</course>
  <speed>0.92</speed>
  <fix>3d</fix>
</trkpt>
<trkpt lat="33.8101795" lon="-118.3938811">
  <ele>-2.067</ele>
  <time>2026-09-02T22:12:06Z</time>
  <course>185.06</course>
  <speed>0.785175139698144</speed>
  <fix>3d</fix>
</trkpt>
<trkpt lat="33.810179" lon="-118.3938812">
  <ele>-2.066</ele>
  <time>2026-09-02T22:12:06Z</time>
  <course>185.06</course>
  <speed>0.6946221994724903</speed>
  <fix>3d</fix>
</trkpt>
<trkpt lat="33.8101806" lon="-118.3938809">
  <ele>-2.01</ele>
  <time>2026-09-02T22:12:06Z</time>
  <course>185.32</course>
  <speed>0.92</speed>
  <fix>3d</fix>
</trkpt>
<trkpt lat="33.8101784" lon="-118.3938812">
  <ele>-2.064</ele>
  <time>2026-09-02T22:12:06Z</time>
  <course>185.06</course>
  <speed>0.5643580423808985</speed>
  <fix>3d</fix>
</trkpt>
<trkpt lat="33.8101791" lon="-118.393881">
  <ele>-2.01</ele>
  <time>2026-09-02T22:12:06Z</time>
  <course>185.46</course>
  <speed>0.8</speed>
  <fix>3d</fix>
</trkpt>
<trkpt lat="33.8101779" lon="-118.3938813">
  <ele>-2.063</ele>
  <time>2026-09-02T22:12:06Z</time>
  <course>185.06</course>
  <speed>0.4738143096192854</speed>
  <fix>3d</fix>
</trkpt>
<trkpt lat="33.8101791" lon="-118.393881">
  <ele>-2.01</ele>
  <time>2026-09-02T22:12:06Z</time>
  <course>185.46</course>
  <speed>0.8</speed>
  <fix>3d</fix>
</trkpt>
<trkpt lat="33.8101775" lon="-118.3938814">
  <ele>-2.065</ele>
  <time>2026-09-02T22:12:06Z</time>
  <course>185.06</course>
  <speed>0.41303752856126763</speed>
  <fix>3d</fix>
</trkpt>
<trkpt lat="33.8101778" lon="-118.3938812">
  <ele>-2.01</ele>
  <time>2026-09-02T22:12:06Z</time>
  <course>185.68</course>
  <speed>0.59</speed>
  <fix>3d</fix>
</trkpt>
<trkpt lat="33.8101771" lon="-118.3938814">
  <ele>-2.068</ele>
  <time>2026-09-02T22:12:06Z</time>
  <course>185.07</course>
  <speed>0.3634556369077249</speed>
  <fix>3d</fix>
</trkpt>
<trkpt lat="33.8101778" lon="-118.3938812">
  <ele>-2.01</ele>
  <time>2026-09-02T22:12:06Z</time>
  <course>185.68</course>
  <speed>0.59</speed>
  <fix>3d</fix>
</trkpt>
<trkpt lat="33.8101768" lon="-118.3938814">
  <ele>-2.073</ele>
  <time>2026-09-02T22:12:06Z</time>
  <course>185.07</course>
  <speed>0.32249030993194194</speed>
  <fix>3d</fix>
</trkpt>
<trkpt lat="33.8101769" lon="-118.3938813">
  <ele>-2.02</ele>
  <time>2026-09-02T22:12:06Z</time>
  <course>185.93</course>
  <speed>0.44</speed>
  <fix>3d</fix>
</trkpt>
<trkpt lat="33.8101765" lon="-118.3938815">
  <ele>-2.076</ele>
  <time>2026-09-02T22:12:06Z</time>
  <course>185.07</course>
  <speed>0.29274562336608895</speed>
  <fix>3d</fix>
</trkpt>
<trkpt lat="33.8101769" lon="-118.3938813">
  <ele>-2.02</ele>
  <time>2026-09-02T22:12:06Z</time>
  <course>185.93</course>
  <speed>0.44</speed>
  <fix>3d</fix>
</trkpt>
<trkpt lat="33.8101762" lon="-118.3938815">
  <ele>-2.078</ele>
  <time>2026-09-02T22:12:06Z</time>
  <course>185.07</course>
  <speed>0.25317977802344327</speed>
  <fix>3d</fix>
</trkpt>
<trkpt lat="33.8101762" lon="-118.3938814">
  <ele>-2.02</ele>
  <time>2026-09-02T22:12:06Z</time>
  <course>186.07</course>
  <speed>0.35</speed>
  <fix>3d</fix>
</trkpt>
<trkpt lat="33.8101759" lon="-118.3938815">
  <ele>-2.08</ele>
  <time>2026-09-02T22:12:06Z</time>
  <course>185.08</course>
  <speed>0.2220360331117452</speed>
  <fix>3d</fix>
</trkpt>
<trkpt lat="33.8101762" lon="-118.3938814">
  <ele>-2.02</ele>
  <time>2026-09-02T22:12:06Z</time>
  <course>186.07</course>
  <speed>0.35</speed>
  <fix>3d</fix>
</trkpt>
<trkpt lat="33.8101757" lon="-118.3938816">
  <ele>-2.081</ele>
  <time>2026-09-02T22:12:06Z</time>
  <course>185.08</course>
  <speed>0.19235384061671343</speed>
  <fix>3d</fix>
</trkpt>
<trkpt lat="33.8101756" lon="-118.3938815">
  <ele>-2.03</ele>
  <time>2026-09-02T22:12:06Z</time>
  <course>186.13</course>
  <speed>0.27</speed>
  <fix>3d</fix>
</trkpt>
<trkpt lat="33.8101755" lon="-118.3938816">
  <ele>-2.081</ele>
  <time>2026-09-02T22:12:06Z</time>
  <course>185.08</course>
  <speed>0.17262676501632068</speed>
  <fix>3d</fix>
</trkpt>
<trkpt lat="33.8101756" lon="-118.3938815">
  <ele>-2.03</ele>
  <time>2026-09-02T22:12:06Z</time>
  <course>186.13</course>
  <speed>0.27</speed>
  <fix>3d</fix>
</trkpt>
<trkpt lat="33.8101754" lon="-118.3938816">
  <ele>-2.081</ele>
  <time>2026-09-02T22:12:06Z</time>
  <course>185.08</course>
  <speed>0.17262676501632068</speed>
  <fix>3d</fix>
</trkpt>
<trkpt lat="33.8101753" lon="-118.3938816">
  <ele>-2.08</ele>
  <time>2026-09-02T22:12:06Z</time>
  <course>185.08</course>
  <speed>0.16278820596099705</speed>
  <fix>3d</fix>
</trkpt>
<trkpt lat="33.8101752" lon="-118.3938815">
  <ele>-2.03</ele>
  <time>2026-09-02T22:12:06Z</time>
  <course>186.27</course>
  <speed>0.22</speed>
  <fix>3d</fix>
</trkpt>
<trkpt lat="33.8101751" lon="-118.3938816">
  <ele>-2.078</ele>
  <time>2026-09-02T22:12:06Z</time>
  <course>185.09</course>
  <speed>0.14317821063276354</speed>
  <fix>3d</fix>
</trkpt>
<trkpt lat="33.8101752" lon="-118.3938815">
  <ele>-2.03</ele>
  <time>2026-09-02T22:12:06Z</time>
  <course>186.27</course>
  <speed>0.22</speed>
  <fix>3d</fix>
</trkpt>
<trkpt lat="33.810175" lon="-118.3938817">
  <ele>-2.075</ele>
  <time>2026-09-02T22:12:06Z</time>
  <course>185.09</course>
  <speed>0.12165525060596438</speed>
  <fix>3d</fix>
</trkpt>
<trkpt lat="33.8101748" lon="-118.3938816">
  <ele>-2.02</ele>
  <time>2026-09-02T22:12:06Z</time>
  <course>186.18</course>
  <speed>0.18</speed>
  <fix>3d</fix>
</trkpt>
<trkpt lat="33.8101748" lon="-118.3938817">
  <ele>-2.072</ele>
  <time>2026-09-02T22:12:06Z</time>
  <course>185.08</course>
  <speed>0.1019803902718557</speed>
  <fix>3d</fix>
</trkpt>
<trkpt lat="33.8101748" lon="-118.3938816">
  <ele>-2.02</ele>
  <time>2026-09-02T22:12:06Z</time>
  <course>186.18</course>
  <speed>0.18</speed>
  <fix>3d</fix>
</trkpt>
<trkpt lat="33.8101747" lon="-118.3938817">
  <ele>-2.069</ele>
  <time>2026-09-02T22:12:06Z</time>
  <course>185.08</course>
  <speed>0.0824621125123532</speed>
  <fix>3d</fix>
</trkpt>
<trkpt lat="33.8101745" lon="-118.3938816">
  <ele>-2.02</ele>
  <time>2026-09-02T22:12:06Z</time>
  <course>185.75</course>
  <speed>0.14</speed>
  <fix>3d</fix>
</trkpt>
<trkpt lat="33.8101746" lon="-118.3938817">
  <ele>-2.067</ele>
  <time>2026-09-02T22:12:06Z</time>
  <course>185.07</course>
  <speed>0.06082762530298219</speed>
  <fix>3d</fix>
</trkpt>
<trkpt lat="33.8101745" lon="-118.3938816">
  <ele>-2.02</ele>
  <time>2026-09-02T22:12:06Z</time>
  <course>185.75</course>
  <speed>0.14</speed>
  <fix>3d</fix>
</trkpt>
<trkpt lat="33.8101745" lon="-118.3938817">
  <ele>-2.066</ele>
  <time>2026-09-02T22:12:06Z</time>
  <course>185.08</course>
  <speed>0.0412310562561766</speed>
  <fix>3d</fix>
</trkpt>
<trkpt lat="33.8101743" lon="-118.3938817">
  <ele>-2.02</ele>
  <time>2026-09-02T22:12:06Z</time>
  <course>185.38</course>
  <speed>0.1</speed>
  <fix>3d</fix>
</trkpt>
<trkpt lat="33.8101745" lon="-118.3938817">
  <ele>-2.066</ele>
  <time>2026-09-02T22:12:06Z</time>
  <course>185.08</course>
  <speed>0.022360679774997897</speed>
  <fix>3d</fix>
</trkpt>
<trkpt lat="33.8101743" lon="-118.3938817">
  <ele>-2.02</ele>
  <time>2026-09-02T22:12:06Z</time>
  <course>185.38</course>
  <speed>0.1</speed>
  <fix>3d</fix>
</trkpt>
<trkpt lat="33.8101744" lon="-118.3938817">
  <ele>-2.067</ele>
  <time>2026-09-02T22:12:06Z</time>
  <course>185.08</course>
  <speed>0.01414213562373095</speed>
  <fix>3d</fix>
</trkpt>
<trkpt lat="33.8101741" lon="-118.3938817">
  <ele>-2.01</ele>
  <time>2026-09-02T22:12:06Z</time>
  <course>184.69</course>
  <speed>0.06</speed>
  <fix>3d</fix>
</trkpt>
<trkpt lat="33.8101744" lon="-118.3938817">
  <ele>-2.068</ele>
  <time>2026-09-02T22:12:06Z</time>
  <course>185.08</course>
  <speed>0.01</speed>
  <fix>3d</fix>
</trkpt>
<trkpt lat="33.8101741" lon="-118.3938817">
  <ele>-2.01</ele>
  <time>2026-09-02T22:12:06Z</time>
  <course>184.69</course>
  <speed>0.06</speed>
  <fix>3d</fix>
</trkpt>
<trkpt lat="33.8101744" lon="-118.3938817">
  <ele>-2.068</ele>
  <time>2026-09-02T22:12:06Z</time>
  <course>185.08</course>
  <speed>0.01414213562373095</speed>
  <fix>3d</fix>
</trkpt>
<trkpt lat="33.8101741" lon="-118.3938817">
  <ele>-2.01</ele>
  <time>2026-09-02T22:12:06Z</time>
  <course>182.28</course>
  <speed>0.02</speed>
  <fix>3d</fix>
</trkpt>
<trkpt lat="33.8101744" lon="-118.3938817">
  <ele>-2.068</ele>
  <time>2026-09-02T22:12:06Z</time>
  <course>185.08</course>
  <speed>0.01414213562373095</speed>
  <fix>3d</fix>
</trkpt>
<trkpt lat="33.8101744" lon="-118.3938817">
  <ele>-2.069</ele>
  <time>2026-09-02T22:12:06Z</time>
  <course>185.08</course>
  <speed>0.022360679774997897</speed>
  <fix>3d</fix>
</trkpt>
<trkpt lat="33.8101741" lon="-118.3938817">
  <ele>-2.01</ele>
  <time>2026-09-02T22:12:06Z</time>
  <course>182.28</course>
  <speed>0.02</speed>
  <fix>3d</fix>
</trkpt>
<trkpt lat="33.8101744" lon="-118.3938817">
  <ele>-2.07</ele>
  <time>2026-09-02T22:12:06Z</time>
  <course>185.07</course>
  <speed>0.03</speed>
  <fix>3d</fix>
</trkpt>
<trkpt lat="33.8101741" lon="-118.3938817">
  <ele>-2.02</ele>
  <time>2026-09-02T22:12:06Z</time>
  <course>127.9</course>
  <speed>0.0</speed>
  <fix>3d</fix>
</trkpt>
<trkpt lat="33.8101743" lon="-118.3938817">
  <ele>-2.07</ele>
  <time>2026-09-02T22:12:06Z</time>
  <course>185.07</course>
  <speed>0.03</speed>
  <fix>3d</fix>
</trkpt>
<trkpt lat="33.8101741" lon="-118.3938817">
  <ele>-2.02</ele>
  <time>2026-09-02T22:12:06Z</time>
  <course>127.9</course>
  <speed>0.0</speed>
  <fix>3d</fix>
</trkpt>
<trkpt lat="33.8101743" lon="-118.3938817">
  <ele>-2.069</ele>
  <time>2026-09-02T22:12:06Z</time>
  <course>185.1</course>
  <speed>0.03</speed>
  <fix>3d</fix>
</trkpt>
<trkpt lat="33.8101741" lon="-118.3938817">
  <ele>-2.02</ele>
  <time>2026-09-02T22:12:06Z</time>
  <course>16.54</course>
  <speed>0.01</speed>
  <fix>3d</fix>
</trkpt>
<trkpt lat="33.8101743" lon="-118.3938817">
  <ele>-2.069</ele>
  <time>2026-09-02T22:12:06Z</time>
  <course>185.1</course>
  <speed>0.03</speed>
  <fix>3d</fix>
</trkpt>
<trkpt lat="33.8101741" lon="-118.3938817">
  <ele>-2.02</ele>
  <time>2026-09-02T22:12:06Z</time>
  <course>16.54</course>
  <speed>0.01</speed>
  <fix>3d</fix>
</trkpt>
<trkpt lat="33.8101743" lon="-118.3938817">
  <ele>-2.07</ele>
  <time>2026-09-02T22:12:06Z</time>
  <course>185.09</course>
  <speed>0.03</speed>
  <fix>3d</fix>
</trkpt>
<trkpt lat="33.8101741" lon="-118.3938817">
  <ele>-2.02</ele>
  <time>2026-09-02T22:12:06Z</time>
  <course>14.93</course>
  <speed>0.02</speed>
  <fix>3d</fix>
</trkpt>
<trkpt lat="33.8101743" lon="-118.3938817">
  <ele>-2.072</ele>
  <time>2026-09-02T22:12:06Z</time>
  <course>185.1</course>
  <speed>0.03</speed>
  <fix>3d</fix>
</trkpt>
<trkpt lat="33.8101741" lon="-118.3938817">
  <ele>-2.02</ele>
  <time>2026-09-02T22:12:06Z</time>
  <course>14.93</course>
  <speed>0.02</speed>
  <fix>3d</fix>
</trkpt>
<trkpt lat="33.8101743" lon="-118.3938817">
  <ele>-2.074</ele>
  <time>2026-09-02T22:12:06Z</time>
  <course>185.1</course>
  <speed>0.03</speed>
  <fix>3d</fix>
</trkpt>
<trkpt lat="33.8101741" lon="-118.3938817">
  <ele>-2.02</ele>
  <time>2026-09-02T22:12:06Z</time>
  <course>14.88</course>
  <speed>0.02</speed>
  <fix>3d</fix>
</trkpt>
<trkpt lat="33.8101743" lon="-118.3938817">
  <ele>-2.075</ele>
  <time>2026-09-02T22:12:06Z</time>
  <course>185.11</course>
  <speed>0.03</speed>
  <fix>3d</fix>
</trkpt>
<trkpt lat="33.8101741" lon="-118.3938817">
  <ele>-2.02</ele>
  <time>2026-09-02T22:12:06Z</time>
  <course>14.88</course>
  <speed>0.02</speed>
  <fix>3d</fix>
</trkpt>
<trkpt lat="33.8101743" lon="-118.3938817">
  <ele>-2.075</ele>
  <time>2026-09-02T22:12:06Z</time>
  <course>185.11</course>
  <speed>0.03</speed>
  <fix>3d</fix>
</trkpt>
<trkpt lat="33.8101741" lon="-118.3938817">
  <ele>-2.02</ele>
  <time>2026-09-02T22:12:06Z</time>
  <course>14.96</course>
  <speed>0.02</speed>
  <fix>3d</fix>
</trkpt>
<trkpt lat="33.8101744" lon="-118.3938817">
  <ele>-2.073</ele>
  <time>2026-09-02T22:12:06Z</time>
  <course>185.12</course>
  <speed>0.03</speed>
  <fix>3d</fix>
</trkpt>
<trkpt lat="33.8101741" lon="-118.3938817">
  <ele>-2.02</ele>
  <time>2026-09-02T22:12:06Z</time>
  <course>14.96</course>
  <speed>0.02</speed>
  <fix>3d</fix>
</trkpt>
<trkpt lat="33.8101744" lon="-118.3938817">
  <ele>-2.073</ele>
  <time>2026-09-02T22:12:06Z</time>
  <course>185.13</course>
  <speed>0.03</speed>
  <fix>3d</fix>
</trkpt>
<trkpt lat="33.8101744" lon="-118.3938817">
  <ele>-2.071</ele>
  <time>2026-09-02T22:12:06Z</time>
  <course>185.14</course>
  <speed>0.0316227766016838</speed>
  <fix>3d</fix>
</trkpt>
<trkpt lat="33.8101741" lon="-118.3938817">
  <ele>-2.02</ele>
  <time>2026-09-02T22:12:06Z</time>
  <course>15.41</course>
  <speed>0.02</speed>
  <fix>3d</fix>
</trkpt>
<trkpt lat="33.8101744" lon="-118.3938817">
  <ele>-2.07</ele>
  <time>2026-09-02T22:12:06Z</time>
  <course>185.15</course>
  <speed>0.01414213562373095</speed>
  <fix>3d</fix>
</trkpt>
<trkpt lat="33.8101741" lon="-118.3938817">
  <ele>-2.02</ele>
  <time>2026-09-02T22:12:06Z</time>
  <course>15.41</course>
  <speed>0.02</speed>
  <fix>3d</fix>
</trkpt>
<trkpt lat="33.8101743" lon="-118.3938817">
  <ele>-2.07</ele>
  <time>2026-09-02T22:12:06Z</time>
  <course>185.12</course>
  <speed>0.08062257748298549</speed>
  <fix>3d</fix>
</trkpt>
<trkpt lat="33.8101742" lon="-118.3938817">
  <ele>-2.02</ele>
  <time>2026-09-02T22:12:06Z</time>
  <course>48.51</course>
  <speed>0.0</speed>
  <fix>3d</fix>
</trkpt>
<trkpt lat="33.8101743" lon="-118.3938817">
  <ele>-2.069</ele>
  <time>2026-09-02T22:12:06Z</time>
  <course>185.09</course>
  <speed>0.24186773244895649</speed>
  <fix>3d</fix>
</trkpt>
<trkpt lat="33.8101742" lon="-118.3938817">
  <ele>-2.02</ele>
  <time>2026-09-02T22:12:06Z</time>
  <course>48.51</course>
  <speed>0.0</speed>
  <fix>3d</fix>
</trkpt>
<trkpt lat="33.8101739" lon="-118.3938818">
  <ele>-2.07</ele>
  <time>2026-09-02T22:12:06Z</time>
  <course>185.08</course>
  <speed>0.4428317965096906</speed>
  <fix>3d</fix>
</trkpt>
<trkpt lat="33.8101741" lon="-118.3938817">
  <ele>-2.02</ele>
  <time>2026-09-02T22:12:06Z</time>
  <course>182.44</course>
  <speed>0.16</speed>
  <fix>3d</fix>
</trkpt>
<trkpt lat="33.8101734" lon="-118.3938818">
  <ele>-2.071</ele>
  <time>2026-09-02T22:12:06Z</time>
  <course>185.07</course>
  <speed>0.6228964600958975</speed>
  <fix>3d</fix>
</trkpt>
<trkpt lat="33.8101741" lon="-118.3938817">
  <ele>-2.02</ele>
  <time>2026-09-02T22:12:06Z</time>
  <course>182.44</course>
  <speed>0.16</speed>
  <fix>3d</fix>
</trkpt>
<trkpt lat="33.8101728" lon="-118.3938819">
  <ele>-2.073</ele>
  <time>2026-09-02T22:12:06Z</time>
  <course>185.07</course>
  <speed>0.7741446893184762</speed>
  <fix>3d</fix>
</trkpt>
<trkpt lat="33.8101736" lon="-118.3938817">
  <ele>-2.02</ele>
  <time>2026-09-02T22:12:06Z</time>
  <course>183.85</course>
  <speed>0.49</speed>
  <fix>3d</fix>
</trkpt>
<trkpt lat="33.810172" lon="-118.393882">
  <ele>-2.074</ele>
  <time>2026-09-02T22:12:06Z</time>
  <course>185.06</course>
  <speed>0.8845903006477066</speed>
  <fix>3d</fix>
</trkpt>
<trkpt lat="33.8101736" lon="-118.3938817">
  <ele>-2.02</ele>
  <time>2026-09-02T22:12:06Z</time>
  <course>183.85</course>
  <speed>0.49</speed>
  <fix>3d</fix>
</trkpt>
<trkpt lat="33.8101712" lon="-118.393882">
  <ele>-2.074</ele>
  <time>2026-09-02T22:12:06Z</time>
  <course>185.06</course>
  <speed>0.9642095207992918</speed>
  <fix>3d</fix>
</trkpt>
<trkpt lat="33.8101724" lon="-118.3938817">
  <ele>-2.02</ele>
  <time>2026-09-02T22:12:06Z</time>
  <course>184.17</course>
  <speed>0.8</speed>
  <fix>3d</fix>
</trkpt>
<trkpt lat="33.8101703" lon="-118.3938821">
  <ele>-2.074</ele>
  <time>2026-09-02T22:12:06Z</time>
  <course>185.06</course>
  <speed>1.034842983258813</speed>
  <fix>3d</fix>
</trkpt>
<trkpt lat="33.8101724" lon="-118.3938817">
  <ele>-2.02</ele>
  <time>2026-09-02T22:12:06Z</time>
  <course>184.17</course>
  <speed>0.8</speed>
  <fix>3d</fix>
</trkpt>
<trkpt lat="33.8101694" lon="-118.3938822">
  <ele>-2.074</ele>
  <time>2026-09-02T22:12:06Z</time>
  <course>185.05</course>
  <speed>1.0955363982999378</speed>
  <fix>3d</fix>
</trkpt>
<trkpt lat="33.8101707" lon="-118.3938819">
  <ele>-2.02</ele>
  <time>2026-09-02T22:12:06Z</time>
  <course>184.39</course>
  <speed>0.99</speed>
  <fix>3d</fix>
</trkpt>
<trkpt lat="33.8101684" lon="-118.3938823">
  <ele>-2.074</ele>
  <time>2026-09-02T22:12:06Z</time>
  <course>185.05</course>
  <speed>1.145294721894762</speed>
  <fix>3d</fix>
</trkpt>
<trkpt lat="33.8101707" lon="-118.3938819">
  <ele>-2.02</ele>
  <time>2026-09-02T22:12:06Z</time>
  <course>184.39</course>
  <speed>0.99</speed>
  <fix>3d</fix>
</trkpt>
<trkpt lat="33.8101674" lon="-118.3938824">
  <ele>-2.074</ele>
  <time>2026-09-02T22:12:06Z</time>
  <course>185.05</course>
  <speed>1.1960351165413163</speed>
  <fix>3d</fix>
</trkpt>
<trkpt lat="33.8101688" lon="-118.393882">
  <ele>-2.02</ele>
  <time>2026-09-02T22:12:06Z</time>
  <course>184.61</course>
  <speed>1.12</speed>
  <fix>3d</fix>
</trkpt>
<trkpt lat="33.8101663" lon="-118.3938825">
  <ele>-2.074</ele>
  <time>2026-09-02T22:12:06Z</time>
  <course>185.04</course>
  <speed>1.2368508398347797</speed>
  <fix>3d</fix>
</trkpt>
<trkpt lat="33.8101688" lon="-118.393882">
  <ele>-2.02</ele>
  <time>2026-09-02T22:12:06Z</time>
  <course>184.61</course>
  <speed>1.12</speed>
  <fix>3d</fix>
</trkpt>
<trkpt lat="33.8101652" lon="-118.3938826">
  <ele>-2.072</ele>
  <time>2026-09-02T22:12:06Z</time>
  <course>185.05</course>
  <speed>1.2766362050325848</speed>
  <fix>3d</fix>
</trkpt>
<trkpt lat="33.8101668" lon="-118.3938823">
  <ele>-2.02</ele>
  <time>2026-09-02T22:12:06Z</time>
  <course>184.82</course>
  <speed>1.23</speed>
  <fix>3d</fix>
</trkpt>
<trkpt lat="33.810164" lon="-118.3938828">
  <ele>-2.071</ele>
  <time>2026-09-02T22:12:06Z</time>
  <course>185.04</course>
  <speed>1.3075167302944921</speed>
  <fix>3d</fix>
</trkpt>
<trkpt lat="33.8101668" lon="-118.3938823">
  <ele>-2.02</ele>
  <time>2026-09-02T22:12:06Z</time>
  <course>184.82</course>
  <speed>1.23</speed>
  <fix>3d</fix>
</trkpt>
<trkpt lat="33.8101628" lon="-118.3938829">
  <ele>-2.07</ele>
  <time>2026-09-02T22:12:06Z</time>
  <course>185.04</course>
  <speed>1.3472935834479431</speed>
  <fix>3d</fix>
</trkpt>
<trkpt lat="33.8101645" lon="-118.3938825">
  <ele>-2.01</ele>
  <time>2026-09-02T22:12:06Z</time>
  <course>184.99</course>
  <speed>1.31</speed>
  <fix>3d</fix>
</trkpt>
<trkpt lat="33.8101616" lon="-118.393883">
  <ele>-2.07</ele>
  <time>2026-09-02T22:12:06Z</time>
  <course>185.04</course>
  <speed>1.3771347065556077</speed>
  <fix>3d</fix>
</trkpt>
<trkpt lat="33.8101645" lon="-118.3938825">
  <ele>-2.01</ele>
  <time>2026-09-02T22:12:06Z</time>
  <course>184.99</course>
  <speed>1.31</speed>
  <fix>3d</fix>
</trkpt>
<trkpt lat="33.8101604" lon="-118.3938831">
  <ele>-2.069</ele>
  <time>2026-09-02T22:12:06Z</time>
  <course>185.04</course>
  <speed>1.3970325694127537</speed>
  <fix>3d</fix>
</trkpt>
<trkpt lat="33.810162" lon="-118.3938828">
  <ele>-2.01</ele>
  <time>2026-09-02T22:12:06Z</time>
  <course>185.1</course>
  <speed>1.38</speed>
  <fix>3d</fix>
</trkpt>
<trkpt lat="33.8101591" lon="-118.3938833">
  <ele>-2.068</ele>
  <time>2026-09-02T22:12:06Z</time>
  <course>185.04</course>
  <speed>1.417956275771577</speed>
  <fix>3d</fix>
</trkpt>
<trkpt lat="33.810162" lon="-118.3938828">
  <ele>-2.01</ele>
  <time>2026-09-02T22:12:06Z</time>
  <course>185.1</course>
  <speed>1.38</speed>
  <fix>3d</fix>
</trkpt>
<trkpt lat="33.8101578" lon="-118.3938834">
  <ele>-2.069</ele>
  <time>2026-09-02T22:12:06Z</time>
  <course>185.04</course>
  <speed>1.4378456106272326</speed>
  <fix>3d</fix>
</trkpt>
<trkpt lat="33.8101595" lon="-118.393883">
  <ele>-2.01</ele>
  <time>2026-09-02T22:12:06Z</time>
  <course>185.17</course>
  <speed>1.44</speed>
  <fix>3d</fix>
</trkpt>
<trkpt lat="33.8101565" lon="-118.3938836">
  <ele>-2.072</ele>
  <time>2026-09-02T22:12:06Z</time>
  <course>185.04</course>
  <speed>1.457737973711325</speed>
  <fix>3d</fix>
</trkpt>
<trkpt lat="33.8101595" lon="-118.393883">
  <ele>-2.01</ele>
  <time>2026-09-02T22:12:06Z</time>
  <course>185.17</course>
  <speed>1.44</speed>
  <fix>3d</fix>
</trkpt>
<trkpt lat="33.8101552" lon="-118.3938837">
  <ele>-2.074</ele>
  <time>2026-09-02T22:12:06Z</time>
  <course>185.04</course>
  <speed>1.4676852523616908</speed>
  <fix>3d</fix>
</trkpt>
<trkpt lat="33.8101568" lon="-118.3938833">
  <ele>-2.02</ele>
  <time>2026-09-02T22:12:06Z</time>
  <course>185.22</course>
  <speed>1.48</speed>
  <fix>3d</fix>
</trkpt>
<trkpt lat="33.8101538" lon="-118.3938838">
  <ele>-2.075</ele>
  <time>2026-09-02T22:12:06Z</time>
  <course>185.04</course>
  <speed>1.4776332427229701</speed>
  <fix>3d</fix>
</trkpt>
<trkpt lat="33.8101568" lon="-118.3938833">
  <ele>-2.02</ele>
  <time>2026-09-02T22:12:06Z</time>
  <course>185.22</course>
  <speed>1.48</speed>
  <fix>3d</fix>
</trkpt>
<trkpt lat="33.8101525" lon="-118.393884">
  <ele>-2.075</ele>
  <time>2026-09-02T22:12:06Z</time>
  <course>185.05</course>
  <speed>1.4975313018431367</speed>
  <fix>3d</fix>
</trkpt>
<trkpt lat="33.8101542" lon="-118.3938836">
  <ele>-2.02</ele>
  <time>2026-09-02T22:12:06Z</time>
  <course>185.28</course>
  <speed>1.51</speed>
  <fix>3d</fix>
</trkpt>
<trkpt lat="33.8101511" lon="-118.3938841">
  <ele>-2.076</ele>
  <time>2026-09-02T22:12:06Z</time>
  <course>185.04</course>
  <speed>1.4975313018431367</speed>
  <fix>3d</fix>
</trkpt>
<trkpt lat="33.8101542" lon="-118.3938836">
  <ele>-2.02</ele>
  <time>2026-09-02T22:12:06Z</time>
  <course>185.28</course>
  <speed>1.51</speed>
  <fix>3d</fix>
</trkpt>
<trkpt lat="33.8101498" lon="-118.3938843">
  <ele>-2.075</ele>
  <time>2026-09-02T22:12:06Z</time>
  <course>185.04</course>
  <speed>1.5074813431681335</speed>
  <fix>3d</fix>
</trkpt>
<trkpt lat="33.8101515" lon="-118.3938839">
  <ele>-2.02</ele>
  <time>2026-09-02T22:12:06Z</time>
  <course>185.32</course>
  <speed>1.53</speed>
  <fix>3d</fix>
</trkpt>
<trkpt lat="33.8101484" lon="-118.3938844">
  <ele>-2.073</ele>
  <time>2026-09-02T22:12:06Z</time>
  <course>185.05</course>
  <speed>1.518453160291749</speed>
  <fix>3d</fix>
</trkpt>
<trkpt lat="33.8101515" lon="-118.3938839">
  <ele>-2.02</ele>
  <time>2026-09-02T22:12:06Z</time>
  <course>185.32</course>
  <speed>1.53</speed>
  <fix>3d</fix>
</trkpt>
<trkpt lat="33.810147" lon="-118.3938846">
  <ele>-2.071</ele>
  <time>2026-09-02T22:12:06Z</time>
  <course>185.05</course>
  <speed>1.5174320413119</speed>
  <fix>3d</fix>
</trkpt>
<trkpt lat="33.8101487" lon="-118.3938842">
  <ele>-2.01</ele>
  <time>2026-09-02T22:12:06Z</time>
  <course>185.34</course>
  <speed>1.55</speed>
  <fix>3d</fix>
</trkpt>
<trkpt lat="33.8101456" lon="-118.3938847">
  <ele>-2.069</ele>
  <time>2026-09-02T22:12:06Z</time>
  <course>185.05</course>
  <speed>1.528397853963424</speed>
  <fix>3d</fix>
</trkpt>
<trkpt lat="33.8101487" lon="-118.3938842">
  <ele>-2.01</ele>
  <time>2026-09-02T22:12:06Z</time>
  <course>185.34</course>
  <speed>1.55</speed>
  <fix>3d</fix>
</trkpt>
<trkpt lat="33.8101442" lon="-118.3938849">
  <ele>-2.068</ele>
  <time>2026-09-02T22:12:06Z</time>
  <course>185.05</course>
  <speed>1.5273833834371775</speed>
  <fix>3d</fix>
</trkpt>
<trkpt lat="33.8101458" lon="-118.3938845">
  <ele>-2.01</ele>
  <time>2026-09-02T22:12:06Z</time>
  <course>185.35</course>
  <speed>1.56</speed>
  <fix>3d</fix>
</trkpt>
<trkpt lat="33.8101428" lon="-118.393885">
  <ele>-2.067</ele>
  <time>2026-09-02T22:12:06Z</time>
  <course>185.05</course>
  <speed>1.5383432646844464</speed>
  <fix>3d</fix>
</trkpt>
<trkpt lat="33.8101458" lon="-118.3938845">
  <ele>-2.01</ele>
  <time>2026-09-02T22:12:06Z</time>
  <course>185.35</course>
  <speed>1.56</speed>
  <fix>3d</fix>
</trkpt>
<trkpt lat="33.8101414" lon="-118.3938852">
  <ele>-2.066</ele>
  <time>2026-09-02T22:12:06Z</time>
  <course>185.05</course>
  <speed>1.5373353570382746</speed>
  <fix>3d</fix>
</trkpt>
<trkpt lat="33.8101431" lon="-118.3938849">
  <ele>-2.01</ele>
  <time>2026-09-02T22:12:06Z</time>
  <course>185.35</course>
  <speed>1.57</speed>
  <fix>3d</fix>
</trkpt>
<trkpt lat="33.81014" lon="-118.3938853">
  <ele>-2.068</ele>
  <time>2026-09-02T22:12:06Z</time>
  <course>185.06</course>
  <speed>1.4975313018431367</speed>
  <fix>3d</fix>
</trkpt>
<trkpt lat="33.8101431" lon="-118.3938849">
  <ele>-2.01</ele>
  <time>2026-09-02T22:12:06Z</time>
  <course>185.35</course>
  <speed>1.57</speed>
  <fix>3d</fix>
</trkpt>
<trkpt lat="33.8101387" lon="-118.3938855">
  <ele>-2.071</ele>
  <time>2026-09-02T22:12:06Z</time>
  <course>185.06</course>
  <speed>1.4169333082400175</speed>
  <fix>3d</fix>
</trkpt>
<trkpt lat="33.8101403" lon="-118.3938852">
  <ele>-2.01</ele>
  <time>2026-09-02T22:12:06Z</time>
  <course>185.33</course>
  <speed>1.55</speed>
  <fix>3d</fix>
</trkpt>
<trkpt lat="33.8101384" lon="-118.3938855">
  <ele>-2.071</ele>
  <time>2026-09-02T22:12:06Z</time>
  <course>185.06</course>
  <speed>1.3870832707519762</speed>
  <fix>3d</fix>
</trkpt>
<trkpt lat="33.8101374" lon="-118.3938856">
  <ele>-2.073</ele>
  <time>2026-09-02T22:12:06Z</time>
  <course>185.06</course>
  <speed>1.2965338406690357</speed>
  <fix>3d</fix>
</trkpt>
<trkpt lat="33.8101403" lon="-118.3938852">
  <ele>-2.01</ele>
  <time>2026-09-02T22:12:06Z</time>
  <course>185.33</course>
  <speed>1.55</speed>
  <fix>3d</fix>
</trkpt>
<trkpt lat="33.8101363" lon="-118.3938857">
  <ele>-2.075</ele>
  <time>2026-09-02T22:12:06Z</time>
  <course>185.06</course>
  <speed>1.1363538181394033</speed>
  <fix>3d</fix>
</trkpt>
<trkpt lat="33.8101376" lon="-118.3938855">
  <ele>-2.02</ele>
  <time>2026-09-02T22:12:06Z</time>
  <course>185.29</course>
  <speed>1.41</speed>
  <fix>3d</fix>
</trkpt>
<trkpt lat="33.8101353" lon="-118.3938858">
  <ele>-2.077</ele>
  <time>2026-09-02T22:12:06Z</time>
  <course>185.06</course>
  <speed>0.9751410154434076</speed>
  <fix>3d</fix>
</trkpt>
<trkpt lat="33.8101376" lon="-118.3938855">
  <ele>-2.02</ele>
  <time>2026-09-02T22:12:06Z</time>
  <course>185.29</course>
  <speed>1.41</speed>
  <fix>3d</fix>
</trkpt>
<trkpt lat="33.8101345" lon="-118.3938859">
  <ele>-2.077</ele>
  <time>2026-09-02T22:12:06Z</time>
  <course>185.06</course>
  <speed>0.8249242389456137</speed>
  <fix>3d</fix>
</trkpt>
<trkpt lat="33.8101353" lon="-118.3938858">
  <ele>-2.02</ele>
  <time>2026-09-02T22:12:06Z</time>
  <course>185.27</course>
  <speed>1.14</speed>
  <fix>3d</fix>
</trkpt>
<trkpt lat="33.8101338" lon="-118.393886">
  <ele>-2.077</ele>
  <time>2026-09-02T22:12:06Z</time>
  <course>185.07</course>
  <speed>0.7144928271158499</speed>
  <fix>3d</fix>
</trkpt>
<trkpt lat="33.8101353" lon="-118.3938858">
  <ele>-2.02</ele>
  <time>2026-09-02T22:12:06Z</time>
  <course>185.27</course>
  <speed>1.14</speed>
  <fix>3d</fix>
</trkpt>
<trkpt lat="33.8101331" lon="-118.3938861">
  <ele>-2.075</ele>
  <time>2026-09-02T22:12:06Z</time>
  <course>185.07</course>
  <speed>0.6239390995922599</speed>
  <fix>3d</fix>
</trkpt>
<trkpt lat="33.8101335" lon="-118.393886">
  <ele>-2.02</ele>
  <time>2026-09-02T22:12:06Z</time>
  <course>185.23</course>
  <speed>0.85</speed>
  <fix>3d</fix>
</trkpt>
<trkpt lat="33.8101325" lon="-118.3938862">
  <ele>-2.073</ele>
  <time>2026-09-02T22:12:06Z</time>
  <course>185.07</course>
  <speed>0.5532630477449222</speed>
  <fix>3d</fix>
</trkpt>
<trkpt lat="33.8101335" lon="-118.393886">
  <ele>-2.02</ele>
  <time>2026-09-02T22:12:06Z</time>
  <course>185.23</course>
  <speed>0.85</speed>
  <fix>3d</fix>
</trkpt>
<trkpt lat="33.810132" lon="-118.3938862">
  <ele>-2.07</ele>
  <time>2026-09-02T22:12:06Z</time>
  <course>185.08</course>
  <speed>0.49254441424099005</speed>
  <fix>3d</fix>
</trkpt>
<trkpt lat="33.8101321" lon="-118.3938861">
  <ele>-2.01</ele>
  <time>2026-09-02T22:12:06Z</time>
  <course>185.11</course>
  <speed>0.65</speed>
  <fix>3d</fix>
</trkpt>
<trkpt lat="33.8101315" lon="-118.3938863">
  <ele>-2.068</ele>
  <time>2026-09-02T22:12:06Z</time>
  <course>185.08</course>
  <speed>0.43289721643826723</speed>
  <fix>3d</fix>
</trkpt>
<trkpt lat="33.8101321" lon="-118.3938861">
  <ele>-2.01</ele>
  <time>2026-09-02T22:12:06Z</time>
  <course>185.11</course>
  <speed>0.65</speed>
  <fix>3d</fix>
</trkpt>
<trkpt lat="33.8101311" lon="-118.3938863">
  <ele>-2.067</ele>
  <time>2026-09-02T22:12:06Z</time>
  <course>185.08</course>
  <speed>0.382099463490856</speed>
  <fix>3d</fix>
</trkpt>
<trkpt lat="33.8101311" lon="-118.3938862">
  <ele>-2.01</ele>
  <time>2026-09-02T22:12:06Z</time>
  <course>184.97</course>
  <speed>0.51</speed>
  <fix>3d</fix>
</trkpt>
<trkpt lat="33.8101307" lon="-118.3938864">
  <ele>-2.067</ele>
  <time>2026-09-02T22:12:06Z</time>
  <course>185.08</course>
  <speed>0.3423448553724738</speed>
  <fix>3d</fix>
</trkpt>
<trkpt lat="33.8101311" lon="-118.3938862">
  <ele>-2.01</ele>
  <time>2026-09-02T22:12:06Z</time>
  <course>184.97</course>
  <speed>0.51</speed>
  <fix>3d</fix>
</trkpt>
<trkpt lat="33.8101304" lon="-118.3938864">
  <ele>-2.067</ele>
  <time>2026-09-02T22:12:06Z</time>
  <course>185.08</course>
  <speed>0.29274562336608895</speed>
  <fix>3d</fix>
</trkpt>
<trkpt lat="33.8101303" lon="-118.3938863">
  <ele>-2.01</ele>
  <time>2026-09-02T22:12:06Z</time>
  <course>184.87</course>
  <speed>0.4</speed>
  <fix>3d</fix>
</trkpt>
<trkpt lat="33.8101303" lon="-118.3938864">
  <ele>-2.067</ele>
  <time>2026-09-02T22:12:06Z</time>
  <course>185.08</course>
  <speed>0.29274562336608895</speed>
  <fix>3d</fix>
</trkpt>
<trkpt lat="33.8101301" lon="-118.3938864">
  <ele>-2.068</ele>
  <time>2026-09-02T22:12:06Z</time>
  <course>185.08</course>
  <speed>0.25179356624028343</speed>
  <fix>3d</fix>
</trkpt>
<trkpt lat="33.8101303" lon="-118.3938863">
  <ele>-2.01</ele>
  <time>2026-09-02T22:12:06Z</time>
  <course>184.87</course>
  <speed>0.4</speed>
  <fix>3d</fix>
</trkpt>
<trkpt lat="33.8101298" lon="-118.3938864">
  <ele>-2.07</ele>
  <time>2026-09-02T22:12:06Z</time>
  <course>185.09</course>
  <speed>0.2220360331117452</speed>
  <fix>3d</fix>
</trkpt>
<trkpt lat="33.8101296" lon="-118.3938864">
  <ele>-2.01</ele>
  <time>2026-09-02T22:12:06Z</time>
  <course>184.81</course>
  <speed>0.31</speed>
  <fix>3d</fix>
</trkpt>
<trkpt lat="33.8101295" lon="-118.3938865">
  <ele>-2.072</ele>
  <time>2026-09-02T22:12:06Z</time>
  <course>185.09</course>
  <speed>0.20223748416156684</speed>
  <fix>3d</fix>
</trkpt>
<trkpt lat="33.8101296" lon="-118.3938864">
  <ele>-2.01</ele>
  <time>2026-09-02T22:12:06Z</time>
  <course>184.81</course>
  <speed>0.31</speed>
  <fix>3d</fix>
</trkpt>
<trkpt lat="33.8101293" lon="-118.3938865">
  <ele>-2.072</ele>
  <time>2026-09-02T22:12:06Z</time>
  <course>185.09</course>
  <speed>0.1824828759089466</speed>
  <fix>3d</fix>
</trkpt>
<trkpt lat="33.8101291" lon="-118.3938864">
  <ele>-2.01</ele>
  <time>2026-09-02T22:12:06Z</time>
  <course>184.76</course>
  <speed>0.24</speed>
  <fix>3d</fix>
</trkpt>
<trkpt lat="33.8101291" lon="-118.3938865">
  <ele>-2.073</ele>
  <time>2026-09-02T22:12:06Z</time>
  <course>185.09</course>
  <speed>0.15132745950421556</speed>
  <fix>3d</fix>
</trkpt>
<trkpt lat="33.8101291" lon="-118.3938864">
  <ele>-2.01</ele>
  <time>2026-09-02T22:12:06Z</time>
  <course>184.76</course>
  <speed>0.24</speed>
  <fix>3d</fix>
</trkpt>
<trkpt lat="33.810129" lon="-118.3938865">
  <ele>-2.072</ele>
  <time>2026-09-02T22:12:06Z</time>
  <course>185.09</course>
  <speed>0.13152946437965907</speed>
  <fix>3d</fix>
</trkpt>
<trkpt lat="33.8101287" lon="-118.3938865">
  <ele>-2.01</ele>
  <time>2026-09-02T22:12:06Z</time>
  <course>184.79</course>
  <speed>0.19</speed>
  <fix>3d</fix>
</trkpt>
<trkpt lat="33.8101288" lon="-118.3938866">
  <ele>-2.072</ele>
  <time>2026-09-02T22:12:07Z</time>
  <course>185.09</course>
  <speed>0.1019803902718557</speed>
  <fix>3d</fix>
</trkpt>
<trkpt lat="33.8101287" lon="-118.3938865">
  <ele>-2.01</ele>
  <time>2026-09-02T22:12:07Z</time>
  <course>184.79</course>
  <speed>0.19</speed>
  <fix>3d</fix>
</trkpt>
<trkpt lat="33.8101287" lon="-118.3938866">
  <ele>-2.072</ele>
  <time>2026-09-02T22:12:07Z</time>
  <course>185.08</course>
  <speed>0.0824621125123532</speed>
  <fix>3d</fix>
</trkpt>
<trkpt lat="33.8101284" lon="-118.3938865">
  <ele>-2.01</ele>
  <time>2026-09-02T22:12:07Z</time>
  <course>184.93</course>
  <speed>0.13</speed>
  <fix>3d</fix>
</trkpt>
<trkpt lat="33.8101286" lon="-118.3938866">
  <ele>-2.072</ele>
  <time>2026-09-02T22:12:07Z</time>
  <course>185.09</course>
  <speed>0.053851648071345036</speed>
  <fix>3d</fix>
</trkpt>
<trkpt lat="33.8101284" lon="-118.3938865">
  <ele>-2.01</ele>
  <time>2026-09-02T22:12:07Z</time>
  <course>184.93</course>
  <speed>0.13</speed>
  <fix>3d</fix>
</trkpt>
<trkpt lat="33.8101285" lon="-118.3938866">
  <ele>-2.071</ele>
  <time>2026-09-02T22:12:07Z</time>
  <course>185.09</course>
  <speed>0.0316227766016838</speed>
  <fix>3d</fix>
</trkpt>
<trkpt lat="33.8101282" lon="-118.3938865">
  <ele>-2.01</ele>
  <time>2026-09-02T22:12:07Z</time>
  <course>185.14</course>
  <speed>0.08</speed>
  <fix>3d</fix>
</trkpt>
<trkpt lat="33.8101284" lon="-118.3938866">
  <ele>-2.07</ele>
  <time>2026-09-02T22:12:07Z</time>
  <course>185.09</course>
  <speed>0.01414213562373095</speed>
  <fix>3d</fix>
</trkpt>
<trkpt lat="33.8101282" lon="-118.3938865">
  <ele>-2.01</ele>
  <time>2026-09-02T22:12:07Z</time>
  <course>185.14</course>
  <speed>0.08</speed>
  <fix>3d</fix>
</trkpt>
<trkpt lat="33.8101284" lon="-118.3938866">
  <ele>-2.07</ele>
  <time>2026-09-02T22:12:07Z</time>
  <course>185.09</course>
  <speed>0.01414213562373095</speed>
  <fix>3d</fix>
</trkpt>
<trkpt lat="33.8101284" lon="-118.3938866">
  <ele>-2.069</ele>
  <time>2026-09-02T22:12:07Z</time>
  <course>185.09</course>
  <speed>0.01</speed>
  <fix>3d</fix>
</trkpt>
<trkpt lat="33.8101281" lon="-118.3938865">
  <ele>-2.01</ele>
  <time>2026-09-02T22:12:07Z</time>
  <course>185.65</course>
  <speed>0.04</speed>
  <fix>3d</fix>
</trkpt>
<trkpt lat="33.8101284" lon="-118.3938866">
  <ele>-2.068</ele>
  <time>2026-09-02T22:12:07Z</time>
  <course>185.09</course>
  <speed>0.01414213562373095</speed>
  <fix>3d</fix>
</trkpt>
<trkpt lat="33.8101281" lon="-118.3938865">
  <ele>-2.01</ele>
  <time>2026-09-02T22:12:07Z</time>
  <course>185.65</course>
  <speed>0.04</speed>
  <fix>3d</fix>
</trkpt>
<trkpt lat="33.8101284" lon="-118.3938866">
  <ele>-2.068</ele>
  <time>2026-09-02T22:12:07Z</time>
  <course>185.09</course>
  <speed>0.022360679774997897</speed>
  <fix>3d</fix>
</trkpt>
<trkpt lat="33.8101281" lon="-118.3938865">
  <ele>-2.01</ele>
  <time>2026-09-02T22:12:07Z</time>
  <course>197.61</course>
  <speed>0.0</speed>
  <fix>3d</fix>
</trkpt>
<trkpt lat="33.8101284" lon="-118.3938866">
  <ele>-2.069</ele>
  <time>2026-09-02T22:12:07Z</time>
  <course>185.09</course>
  <speed>0.0316227766016838</speed>
  <fix>3d</fix>
</trkpt>
<trkpt lat="33.8101281" lon="-118.3938865">
  <ele>-2.01</ele>
  <time>2026-09-02T22:12:07Z</time>
  <course>197.61</course>
  <speed>0.0</speed>
  <fix>3d</fix>
</trkpt>
<trkpt lat="33.8101284" lon="-118.3938866">
  <ele>-2.07</ele>
  <time>2026-09-02T22:12:07Z</time>
  <course>185.09</course>
  <speed>0.0412310562561766</speed>
  <fix>3d</fix>
</trkpt>
<trkpt lat="33.8101281" lon="-118.3938865">
  <ele>-2.01</ele>
  <time>2026-09-02T22:12:07Z</time>
  <course>1.18</course>
  <speed>0.02</speed>
  <fix>3d</fix>
</trkpt>
<trkpt lat="33.8101284" lon="-118.3938866">
  <ele>-2.07</ele>
  <time>2026-09-02T22:12:07Z</time>
  <course>185.11</course>
  <speed>0.0412310562561766</speed>
  <fix>3d</fix>
</trkpt>
<trkpt lat="33.8101281" lon="-118.3938865">
  <ele>-2.01</ele>
  <time>2026-09-02T22:12:07Z</time>
  <course>1.18</course>
  <speed>0.02</speed>
  <fix>3d</fix>
</trkpt>
<trkpt lat="33.8101284" lon="-118.3938866">
  <ele>-2.07</ele>
  <time>2026-09-02T22:12:07Z</time>
  <course>185.11</course>
  <speed>0.0412310562561766</speed>
  <fix>3d</fix>
</trkpt>
<trkpt lat="33.8101281" lon="-118.3938865">
  <ele>-2.01</ele>
  <time>2026-09-02T22:12:07Z</time>
  <course>1.44</course>
  <speed>0.03</speed>
  <fix>3d</fix>
</trkpt>
<trkpt lat="33.8101284" lon="-118.3938866">
  <ele>-2.07</ele>
  <time>2026-09-02T22:12:07Z</time>
  <course>185.1</course>
  <speed>0.0412310562561766</speed>
  <fix>3d</fix>
</trkpt>
<trkpt lat="33.8101281" lon="-118.3938865">
  <ele>-2.01</ele>
  <time>2026-09-02T22:12:07Z</time>
  <course>1.44</course>
  <speed>0.03</speed>
  <fix>3d</fix>
</trkpt>
<trkpt lat="33.8101284" lon="-118.3938866">
  <ele>-2.07</ele>
  <time>2026-09-02T22:12:07Z</time>
  <course>185.08</course>
  <speed>0.0412310562561766</speed>
  <fix>3d</fix>
</trkpt>
<trkpt lat="33.8101281" lon="-118.3938865">
  <ele>-2.02</ele>
  <time>2026-09-02T22:12:07Z</time>
  <course>0.87</course>
  <speed>0.03</speed>
  <fix>3d</fix>
</trkpt>
<trkpt lat="33.8101284" lon="-118.3938866">
  <ele>-2.071</ele>
  <time>2026-09-02T22:12:07Z</time>
  <course>185.08</course>
  <speed>0.0412310562561766</speed>
  <fix>3d</fix>
</trkpt>
<trkpt lat="33.8101281" lon="-118.3938865">
  <ele>-2.02</ele>
  <time>2026-09-02T22:12:07Z</time>
  <course>0.87</course>
  <speed>0.03</speed>
  <fix>3d</fix>
</trkpt>
<trkpt lat="33.8101284" lon="-118.3938866">
  <ele>-2.072</ele>
  <time>2026-09-02T22:12:07Z</time>
  <course>185.08</course>
  <speed>0.0412310562561766</speed>
  <fix>3d</fix>
</trkpt>
<trkpt lat="33.8101282" lon="-118.3938865">
  <ele>-2.02</ele>
  <time>2026-09-02T22:12:07Z</time>
  <course>0.88</course>
  <speed>0.03</speed>
  <fix>3d</fix>
</trkpt>
<trkpt lat="33.8101284" lon="-118.3938866">
  <ele>-2.072</ele>
  <time>2026-09-02T22:12:07Z</time>
  <course>185.08</course>
  <speed>0.0412310562561766</speed>
  <fix>3d</fix>
</trkpt>
<trkpt lat="33.8101284" lon="-118.3938866">
  <ele>-2.072</ele>
  <time>2026-09-02T22:12:07Z</time>
  <course>185.08</course>
  <speed>0.0412310562561766</speed>
  <fix>3d</fix>
</trkpt>
<trkpt lat="33.8101282" lon="-118.3938865">
  <ele>-2.02</ele>
  <time>2026-09-02T22:12:07Z</time>
  <course>0.88</course>
  <speed>0.03</speed>
  <fix>3d</fix>
</trkpt>
<trkpt lat="33.8101284" lon="-118.3938866">
  <ele>-2.071</ele>
  <time>2026-09-02T22:12:07Z</time>
  <course>185.08</course>
  <speed>0.01</speed>
  <fix>3d</fix>
</trkpt>
<trkpt lat="33.8101282" lon="-118.3938865">
  <ele>-2.02</ele>
  <time>2026-09-02T22:12:07Z</time>
  <course>1.08</course>
  <speed>0.03</speed>
  <fix>3d</fix>
</trkpt>
<trkpt lat="33.8101284" lon="-118.3938866">
  <ele>-2.069</ele>
  <time>2026-09-02T22:12:07Z</time>
  <course>185.08</course>
  <speed>0.1118033988749895</speed>
  <fix>3d</fix>
</trkpt>
<trkpt lat="33.8101282" lon="-118.3938865">
  <ele>-2.02</ele>
  <time>2026-09-02T22:12:07Z</time>
  <course>1.08</course>
  <speed>0.03</speed>
  <fix>3d</fix>
</trkpt>
<trkpt lat="33.8101283" lon="-118.3938866">
  <ele>-2.069</ele>
  <time>2026-09-02T22:12:07Z</time>
  <course>185.08</course>
  <speed>0.29274562336608895</speed>
  <fix>3d</fix>
</trkpt>
<trkpt lat="33.8101282" lon="-118.3938865">
  <ele>-2.02</ele>
  <time>2026-09-02T22:12:07Z</time>
  <course>186.27</course>
  <speed>0.06</speed>
  <fix>3d</fix>
</trkpt>
<trkpt lat="33.8101279" lon="-118.3938867">
  <ele>-2.069</ele>
  <time>2026-09-02T22:12:07Z</time>
  <course>185.08</course>
  <speed>0.4936598018878993</speed>
  <fix>3d</fix>
</trkpt>
<trkpt lat="33.8101282" lon="-118.3938865">
  <ele>-2.02</ele>
  <time>2026-09-02T22:12:07Z</time>
  <course>186.27</course>
  <speed>0.06</speed>
  <fix>3d</fix>
</trkpt>
<trkpt lat="33.8101273" lon="-118.3938867">
  <ele>-2.07</ele>
  <time>2026-09-02T22:12:07Z</time>
  <course>185.08</course>
  <speed>0.6736467917239716</speed>
  <fix>3d</fix>
</trkpt>
<trkpt lat="33.8101279" lon="-118.3938865">
  <ele>-2.02</ele>
  <time>2026-09-02T22:12:07Z</time>
  <course>184.83</course>
  <speed>0.35</speed>
  <fix>3d</fix>
</trkpt>
<trkpt lat="33.8101267" lon="-118.3938868">
  <ele>-2.071</ele>
  <time>2026-09-02T22:12:07Z</time>
  <course>185.08</course>
  <speed>0.8448076704197234</speed>
  <fix>3d</fix>
</trkpt>
<trkpt lat="33.8101279" lon="-118.3938865">
  <ele>-2.02</ele>
  <time>2026-09-02T22:12:07Z</time>
  <course>184.83</course>
  <speed>0.35</speed>
  <fix>3d</fix>
</trkpt>
<trkpt lat="33.8101258" lon="-118.3938869">
  <ele>-2.072</ele>
  <time>2026-09-02T22:12:07Z</time>
  <course>185.07</course>
  <speed>1.0149384217774002</speed>
  <fix>3d</fix>
</trkpt>
<trkpt lat="33.810127" lon="-118.3938866">
  <ele>-2.02</ele>
  <time>2026-09-02T22:12:07Z</time>
  <course>184.75</course>
  <speed>0.72</speed>
  <fix>3d</fix>
</trkpt>
<trkpt lat="33.8101248" lon="-118.393887">
  <ele>-2.073</ele>
  <time>2026-09-02T22:12:07Z</time>
  <course>185.07</course>
  <speed>1.186086000254619</speed>
  <fix>3d</fix>
</trkpt>
<trkpt lat="33.810127" lon="-118.3938866">
  <ele>-2.02</ele>
  <time>2026-09-02T22:12:07Z</time>
  <course>184.75</course>
  <speed>0.72</speed>
  <fix>3d</fix>
</trkpt>
<trkpt lat="33.8101237" lon="-118.3938871">
  <ele>-2.074</ele>
  <time>2026-09-02T22:12:07Z</time>
  <course>185.07</course>
  <speed>1.326386067478093</speed>
  <fix>3d</fix>
</trkpt>
<trkpt lat="33.8101254" lon="-118.3938868">
  <ele>-2.02</ele>
  <time>2026-09-02T22:12:07Z</time>
  <course>184.76</course>
  <speed>1.06</speed>
  <fix>3d</fix>
</trkpt>
<trkpt lat="33.8101225" lon="-118.3938872">
  <ele>-2.075</ele>
  <time>2026-09-02T22:12:07Z</time>
  <course>185.07</course>
  <speed>1.4268847185389575</speed>
  <fix>3d</fix>
</trkpt>
<trkpt lat="33.8101254" lon="-118.3938868">
  <ele>-2.02</ele>
  <time>2026-09-02T22:12:07Z</time>
  <course>184.76</course>
  <speed>1.06</speed>
  <fix>3d</fix>
</trkpt>
<trkpt lat="33.8101212" lon="-118.3938874">
  <ele>-2.075</ele>
  <time>2026-09-02T22:12:07Z</time>
  <course>185.06</course>
  <speed>1.5174320413119</speed>
  <fix>3d</fix>
</trkpt>
<trkpt lat="33.8101233" lon="-118.393887">
  <ele>-2.03</ele>
  <time>2026-09-02T22:12:07Z</time>
  <course>184.78</course>
  <speed>1.35</speed>
  <fix>3d</fix>
</trkpt>
<trkpt lat="33.8101198" lon="-118.3938875">
  <ele>-2.076</ele>
  <time>2026-09-02T22:12:07Z</time>
  <course>185.06</course>
  <speed>1.5871042813879623</speed>
  <fix>3d</fix>
</trkpt>
<trkpt lat="33.8101233" lon="-118.393887">
  <ele>-2.03</ele>
  <time>2026-09-02T22:12:07Z</time>
  <course>184.78</course>
  <speed>1.35</speed>
  <fix>3d</fix>
</trkpt>
<trkpt lat="33.8101184" lon="-118.3938876">
  <ele>-2.076</ele>
  <time>2026-09-02T22:12:07Z</time>
  <course>185.06</course>
  <speed>1.6577394246382633</speed>
  <fix>3d</fix>
</trkpt>
<trkpt lat="33.8101207" lon="-118.3938873">
  <ele>-2.03</ele>
  <time>2026-09-02T22:12:07Z</time>
  <course>184.79</course>
  <speed>1.54</speed>
  <fix>3d</fix>
</trkpt>
<trkpt lat="33.8101169" lon="-118.3938878">
  <ele>-2.075</ele>
  <time>2026-09-02T22:12:07Z</time>
  <course>185.06</course>
  <speed>1.7184295155751952</speed>
  <fix>3d</fix>
</trkpt>
<trkpt lat="33.8101207" lon="-118.3938873">
  <ele>-2.03</ele>
  <time>2026-09-02T22:12:07Z</time>
  <course>184.79</course>
  <speed>1.54</speed>
  <fix>3d</fix>
</trkpt>
<trkpt lat="33.8101154" lon="-118.393888">
  <ele>-2.074</ele>
  <time>2026-09-02T22:12:07Z</time>
  <course>185.06</course>
  <speed>1.7681911661356076</speed>
  <fix>3d</fix>
</trkpt>
<trkpt lat="33.8101178" lon="-118.3938876">
  <ele>-2.02</ele>
  <time>2026-09-02T22:12:07Z</time>
  <course>184.82</course>
  <speed>1.69</speed>
  <fix>3d</fix>
</trkpt>
<trkpt lat="33.8101138" lon="-118.3938881">
  <ele>-2.072</ele>
  <time>2026-09-02T22:12:07Z</time>
  <course>185.05</course>
  <speed>1.8189282558693733</speed>
  <fix>3d</fix>
</trkpt>
<trkpt lat="33.8101178" lon="-118.3938876">
  <ele>-2.02</ele>
  <time>2026-09-02T22:12:07Z</time>
  <course>184.82</course>
  <speed>1.69</speed>
  <fix>3d</fix>
</trkpt>
<trkpt lat="33.8101122" lon="-118.3938883">
  <ele>-2.07</ele>
  <time>2026-09-02T22:12:07Z</time>
  <course>185.05</course>
  <speed>1.8587361297397758</speed>
  <fix>3d</fix>
</trkpt>
<trkpt lat="33.8101146" lon="-118.3938879">
  <ele>-2.02</ele>
  <time>2026-09-02T22:12:07Z</time>
  <course>184.85</course>
  <speed>1.81</speed>
  <fix>3d</fix>
</trkpt>
<trkpt lat="33.8101105" lon="-118.3938885">
  <ele>-2.068</ele>
  <time>2026-09-02T22:12:07Z</time>
  <course>185.05</course>
  <speed>1.8885973631242843</speed>
  <fix>3d</fix>
</trkpt>
<trkpt lat="33.8101146" lon="-118.3938879">
  <ele>-2.02</ele>
  <time>2026-09-02T22:12:07Z</time>
  <course>184.85</course>
  <speed>1.81</speed>
  <fix>3d</fix>
</trkpt>
<trkpt lat="33.8101088" lon="-118.3938887">
  <ele>-2.068</ele>
  <time>2026-09-02T22:12:07Z</time>
  <course>185.05</course>
  <speed>1.8985520798756088</speed>
  <fix>3d</fix>
</trkpt>
<trkpt lat="33.8101113" lon="-118.3938882">
  <ele>-2.02</ele>
  <time>2026-09-02T22:12:07Z</time>
  <course>184.88</course>
  <speed>1.89</speed>
  <fix>3d</fix>
</trkpt>
<trkpt lat="33.8101071" lon="-118.3938888">
  <ele>-2.068</ele>
  <time>2026-09-02T22:12:07Z</time>
  <course>185.05</course>
  <speed>1.9094763680129692</speed>
  <fix>3d</fix>
</trkpt>
<trkpt lat="33.8101113" lon="-118.3938882">
  <ele>-2.02</ele>
  <time>2026-09-02T22:12:07Z</time>
  <course>184.88</course>
  <speed>1.89</speed>
  <fix>3d</fix>
</trkpt>
<trkpt lat="33.8101054" lon="-118.393889">
  <ele>-2.069</ele>
  <time>2026-09-02T22:12:07Z</time>
  <course>185.05</course>
  <speed>1.9293781381574737</speed>
  <fix>3d</fix>
</trkpt>
<trkpt lat="33.8101079" lon="-118.3938886">
  <ele>-2.02</ele>
  <time>2026-09-02T22:12:07Z</time>
  <course>184.95</course>
  <speed>1.94</speed>
  <fix>3d</fix>
</trkpt>
<trkpt lat="33.8101037" lon="-118.3938892">
  <ele>-2.07</ele>
  <time>2026-09-02T22:12:07Z</time>
  <course>185.05</course>
  <speed>1.9393297811357408</speed>
  <fix>3d</fix>
</trkpt>
<trkpt lat="33.8101079" lon="-118.3938886">
  <ele>-2.02</ele>
  <time>2026-09-02T22:12:07Z</time>
  <course>184.95</course>
  <speed>1.94</speed>
  <fix>3d</fix>
</trkpt>
<trkpt lat="33.8101019" lon="-118.3938894">
  <ele>-2.072</ele>
  <time>2026-09-02T22:12:07Z</time>
  <course>185.06</course>
  <speed>1.9492819190666086</speed>
  <fix>3d</fix>
</trkpt>
<trkpt lat="33.8101044" lon="-118.393889">
  <ele>-2.02</ele>
  <time>2026-09-02T22:12:07Z</time>
  <course>185.02</course>
  <speed>1.96</speed>
  <fix>3d</fix>
</trkpt>
<trkpt lat="33.8101001" lon="-118.3938896">
  <ele>-2.074</ele>
  <time>2026-09-02T22:12:07Z</time>
  <course>185.05</course>
  <speed>1.9592345444075858</speed>
  <fix>3d</fix>
</trkpt>
<trkpt lat="33.8101044" lon="-118.393889">
  <ele>-2.02</ele>
  <time>2026-09-02T22:12:07Z</time>
  <course>185.02</course>
  <speed>1.96</speed>
  <fix>3d</fix>
</trkpt>
<trkpt lat="33.8100984" lon="-118.3938898">
  <ele>-2.075</ele>
  <time>2026-09-02T22:12:07Z</time>
  <course>185.06</course>
  <speed>1.9592345444075858</speed>
  <fix>3d</fix>
</trkpt>
<trkpt lat="33.8101008" lon="-118.3938894">
  <ele>-2.03</ele>
  <time>2026-09-02T22:12:07Z</time>
  <course>185.06</course>
  <speed>1.99</speed>
  <fix>3d</fix>
</trkpt>
<trkpt lat="33.8100966" lon="-118.39389">
  <ele>-2.076</ele>
  <time>2026-09-02T22:12:07Z</time>
  <course>185.06</course>
  <speed>1.9592345444075858</speed>
  <fix>3d</fix>
</trkpt>
<trkpt lat="33.8101008" lon="-118.3938894">
  <ele>-2.03</ele>
  <time>2026-09-02T22:12:07Z</time>
  <course>185.06</course>
  <speed>1.99</speed>
  <fix>3d</fix>
</trkpt>
<trkpt lat="33.8100948" lon="-118.3938901">
  <ele>-2.077</ele>
  <time>2026-09-02T22:12:07Z</time>
  <course>185.06</course>
  <speed>1.9592345444075858</speed>
  <fix>3d</fix>
</trkpt>
<trkpt lat="33.8100972" lon="-118.3938897">
  <ele>-2.03</ele>
  <time>2026-09-02T22:12:07Z</time>
  <course>185.07</course>
  <speed>2.0</speed>
  <fix>3d</fix>
</trkpt>
<trkpt lat="33.8100931" lon="-118.3938903">
  <ele>-2.078</ele>
  <time>2026-09-02T22:12:07Z</time>
  <course>185.05</course>
  <speed>1.9592345444075858</speed>
  <fix>3d</fix>
</trkpt>
<trkpt lat="33.8100972" lon="-118.3938897">
  <ele>-2.03</ele>
  <time>2026-09-02T22:12:07Z</time>
  <course>185.07</course>
  <speed>2.0</speed>
  <fix>3d</fix>
</trkpt>
<trkpt lat="33.8100913" lon="-118.3938905">
  <ele>-2.079</ele>
  <time>2026-09-02T22:12:07Z</time>
  <course>185.05</course>
  <speed>1.9492819190666086</speed>
  <fix>3d</fix>
</trkpt>
<trkpt lat="33.8100936" lon="-118.3938901">
  <ele>-2.03</ele>
  <time>2026-09-02T22:12:07Z</time>
  <course>185.08</course>
  <speed>2.0</speed>
  <fix>3d</fix>
</trkpt>
<trkpt lat="33.8100895" lon="-118.3938907">
  <ele>-2.079</ele>
  <time>2026-09-02T22:12:07Z</time>
  <course>185.06</course>
  <speed>1.9492819190666086</speed>
  <fix>3d</fix>
</trkpt>
<trkpt lat="33.8100936" lon="-118.3938901">
  <ele>-2.03</ele>
  <time>2026-09-02T22:12:07Z</time>
  <course>185.08</course>
  <speed>2.0</speed>
  <fix>3d</fix>
</trkpt>
<trkpt lat="33.8100877" lon="-118.3938909">
  <ele>-2.079</ele>
  <time>2026-09-02T22:12:07Z</time>
  <course>185.06</course>
  <speed>1.9492819190666086</speed>
  <fix>3d</fix>
</trkpt>
<trkpt lat="33.81009" lon="-118.3938905">
  <ele>-2.02</ele>
  <time>2026-09-02T22:12:07Z</time>
  <course>185.11</course>
  <speed>1.99</speed>
  <fix>3d</fix>
</trkpt>
<trkpt lat="33.810086" lon="-118.3938911">
  <ele>-2.077</ele>
  <time>2026-09-02T22:12:07Z</time>
  <course>185.06</course>
  <speed>1.9492819190666086</speed>
  <fix>3d</fix>
</trkpt>
<trkpt lat="33.81009" lon="-118.3938905">
  <ele>-2.02</ele>
  <time>2026-09-02T22:12:07Z</time>
  <course>185.11</course>
  <speed>1.99</speed>
  <fix>3d</fix>
</trkpt>
<trkpt lat="33.8100842" lon="-118.3938913">
  <ele>-2.075</ele>
  <time>2026-09-02T22:12:07Z</time>
  <course>185.06</course>
  <speed>1.9293781381574737</speed>
  <fix>3d</fix>
</trkpt>
<trkpt lat="33.8100865" lon="-118.3938909">
  <ele>-2.02</ele>
  <time>2026-09-02T22:12:07Z</time>
  <course>185.13</course>
  <speed>1.99</speed>
  <fix>3d</fix>
</trkpt>
<trkpt lat="33.8100825" lon="-118.3938915">
  <ele>-2.072</ele>
  <time>2026-09-02T22:12:07Z</time>
  <course>185.06</course>
  <speed>1.8885973631242843</speed>
  <fix>3d</fix>
</trkpt>
<trkpt lat="33.8100865" lon="-118.3938909">
  <ele>-2.02</ele>
  <time>2026-09-02T22:12:07Z</time>
  <course>185.13</course>
  <speed>1.99</speed>
  <fix>3d</fix>
</trkpt>
<trkpt lat="33.8100821" lon="-118.3938915">
  <ele>-2.071</ele>
  <time>2026-09-02T22:12:07Z</time>
  <course>185.06</course>
  <speed>1.8686893802876923</speed>
  <fix>3d</fix>
</trkpt>
<trkpt lat="33.8100808" lon="-118.3938916">
  <ele>-2.069</ele>
  <time>2026-09-02T22:12:07Z</time>
  <course>185.06</course>
  <speed>1.7990275150758535</speed>
  <fix>3d</fix>
</trkpt>
<trkpt lat="33.8100829" lon="-118.3938913">
  <ele>-2.02</ele>
  <time>2026-09-02T22:12:07Z</time>
  <course>185.14</course>
  <speed>1.95</speed>
  <fix>3d</fix>
</trkpt>
<trkpt lat="33.8100792" lon="-118.3938918">
  <ele>-2.066</ele>
  <time>2026-09-02T22:12:07Z</time>
  <course>185.06</course>
  <speed>1.6577394246382633</speed>
  <fix>3d</fix>
</trkpt>
<trkpt lat="33.8100829" lon="-118.3938913">
  <ele>-2.02</ele>
  <time>2026-09-02T22:12:07Z</time>
  <course>185.14</course>
  <speed>1.95</speed>
  <fix>3d</fix>
</trkpt>
<trkpt lat="33.8100777" lon="-118.393892">
  <ele>-2.065</ele>
  <time>2026-09-02T22:12:07Z</time>
  <course>185.06</course>
  <speed>1.5174320413119</speed>
  <fix>3d</fix>
</trkpt>
<trkpt lat="33.8100795" lon="-118.3938916">
  <ele>-2.01</ele>
  <time>2026-09-02T22:12:07Z</time>
  <course>185.15</course>
  <speed>1.79</speed>
  <fix>3d</fix>
</trkpt>
<trkpt lat="33.8100764" lon="-118.3938921">
  <ele>-2.065</ele>
  <time>2026-09-02T22:12:07Z</time>
  <course>185.06</course>
  <speed>1.3771347065556077</speed>
  <fix>3d</fix>
</trkpt>
<trkpt lat="33.8100795" lon="-118.3938916">
  <ele>-2.01</ele>
  <time>2026-09-02T22:12:07Z</time>
  <course>185.15</course>
  <speed>1.79</speed>
  <fix>3d</fix>
</trkpt>
<trkpt lat="33.8100752" lon="-118.3938922">
  <ele>-2.066</ele>
  <time>2026-09-02T22:12:07Z</time>
  <course>185.07</course>
  <speed>1.245792920191795</speed>
  <fix>3d</fix>
</trkpt>
<trkpt lat="33.8100766" lon="-118.3938919">
  <ele>-2.01</ele>
  <time>2026-09-02T22:12:07Z</time>
  <course>185.18</course>
  <speed>1.53</speed>
  <fix>3d</fix>
</trkpt>
<trkpt lat="33.8100741" lon="-118.3938924">
  <ele>-2.067</ele>
  <time>2026-09-02T22:12:07Z</time>
  <course>185.07</course>
  <speed>1.0955363982999378</speed>
  <fix>3d</fix>
</trkpt>
<trkpt lat="33.8100766" lon="-118.3938919">
  <ele>-2.01</ele>
  <time>2026-09-02T22:12:07Z</time>
  <course>185.18</course>
  <speed>1.53</speed>
  <fix>3d</fix>
</trkpt>
<trkpt lat="33.8100731" lon="-118.3938925">
  <ele>-2.068</ele>
  <time>2026-09-02T22:12:07Z</time>
  <course>185.07</course>
  <speed>0.945304183847718</speed>
  <fix>3d</fix>
</trkpt>
<trkpt lat="33.8100741" lon="-118.3938922">
  <ele>-2.01</ele>
  <time>2026-09-02T22:12:07Z</time>
  <course>185.24</course>
  <speed>1.25</speed>
  <fix>3d</fix>
</trkpt>
<trkpt lat="33.8100723" lon="-118.3938925">
  <ele>-2.068</ele>
  <time>2026-09-02T22:12:07Z</time>
  <course>185.07</course>
  <speed>0.8249242389456137</speed>
  <fix>3d</fix>
</trkpt>
<trkpt lat="33.8100741" lon="-118.3938922">
  <ele>-2.01</ele>
  <time>2026-09-02T22:12:07Z</time>
  <course>185.24</course>
  <speed>1.25</speed>
  <fix>3d</fix>
</trkpt>
<trkpt lat="33.8100715" lon="-118.3938926">
  <ele>-2.069</ele>
  <time>2026-09-02T22:12:07Z</time>
  <course>185.08</course>
  <speed>0.7244308110509934</speed>
  <fix>3d</fix>
</trkpt>
<trkpt lat="33.8100721" lon="-118.3938925">
  <ele>-2.02</ele>
  <time>2026-09-02T22:12:07Z</time>
  <course>185.34</course>
  <speed>0.97</speed>
  <fix>3d</fix>
</trkpt>
<trkpt lat="33.8100709" lon="-118.3938927">
  <ele>-2.07</ele>
  <time>2026-09-02T22:12:07Z</time>
  <course>185.08</course>
  <speed>0.6438167441127949</speed>
  <fix>3d</fix>
</trkpt>
<trkpt lat="33.8100721" lon="-118.3938925">
  <ele>-2.02</ele>
  <time>2026-09-02T22:12:07Z</time>
  <course>185.34</course>
  <speed>0.97</speed>
  <fix>3d</fix>
</trkpt>
<trkpt lat="33.8100703" lon="-118.3938928">
  <ele>-2.07</ele>
  <time>2026-09-02T22:12:07Z</time>
  <course>185.08</course>
  <speed>0.5731491952362839</speed>
  <fix>3d</fix>
</trkpt>
<trkpt lat="33.8100706" lon="-118.3938926">
  <ele>-2.02</ele>
  <time>2026-09-02T22:12:07Z</time>
  <course>185.41</course>
  <speed>0.74</speed>
  <fix>3d</fix>
</trkpt>
<trkpt lat="33.8100702" lon="-118.3938928">
  <ele>-2.07</ele>
  <time>2026-09-02T22:12:07Z</time>
  <course>185.08</course>
  <speed>0.563205113613149</speed>
  <fix>3d</fix>
</trkpt>
<trkpt lat="33.8100697" lon="-118.3938928">
  <ele>-2.07</ele>
  <time>2026-09-02T22:12:07Z</time>
  <course>185.08</course>
  <speed>0.5035871324805669</speed>
  <fix>3d</fix>
</trkpt>
<trkpt lat="33.8100706" lon="-118.3938926">
  <ele>-2.02</ele>
  <time>2026-09-02T22:12:07Z</time>
  <course>185.41</course>
  <speed>0.74</speed>
  <fix>3d</fix>
</trkpt>
<trkpt lat="33.8100692" lon="-118.3938929">
  <ele>-2.071</ele>
  <time>2026-09-02T22:12:07Z</time>
  <course>185.08</course>
  <speed>0.4428317965096906</speed>
  <fix>3d</fix>
</trkpt>
<trkpt lat="33.8100694" lon="-118.3938927">
  <ele>-2.02</ele>
  <time>2026-09-02T22:12:07Z</time>
  <course>185.43</course>
  <speed>0.59</speed>
  <fix>3d</fix>
</trkpt>
<trkpt lat="33.8100688" lon="-118.3938929">
  <ele>-2.072</ele>
  <time>2026-09-02T22:12:07Z</time>
  <course>185.08</course>
  <speed>0.39319206502675</speed>
  <fix>3d</fix>
</trkpt>
<trkpt lat="33.8100694" lon="-118.3938927">
  <ele>-2.02</ele>
  <time>2026-09-02T22:12:07Z</time>
  <course>185.43</course>
  <speed>0.59</speed>
  <fix>3d</fix>
</trkpt>
<trkpt lat="33.8100684" lon="-118.393893">
  <ele>-2.073</ele>
  <time>2026-09-02T22:12:07Z</time>
  <course>185.08</course>
  <speed>0.3423448553724738</speed>
  <fix>3d</fix>
</trkpt>
<trkpt lat="33.8100685" lon="-118.3938928">
  <ele>-2.03</ele>
  <time>2026-09-02T22:12:07Z</time>
  <course>185.51</course>
  <speed>0.46</speed>
  <fix>3d</fix>
</trkpt>
<trkpt lat="33.8100681" lon="-118.393893">
  <ele>-2.074</ele>
  <time>2026-09-02T22:12:07Z</time>
  <course>185.08</course>
  <speed>0.29274562336608895</speed>
  <fix>3d</fix>
</trkpt>
<trkpt lat="33.8100685" lon="-118.3938928">
  <ele>-2.03</ele>
  <time>2026-09-02T22:12:07Z</time>
  <course>185.51</course>
  <speed>0.46</speed>
  <fix>3d</fix>
</trkpt>
<trkpt lat="33.8100678" lon="-118.393893">
  <ele>-2.075</ele>
  <time>2026-09-02T22:12:07Z</time>
  <course>185.09</course>
  <speed>0.25317977802344327</speed>
  <fix>3d</fix>
</trkpt>
<trkpt lat="33.8100678" lon="-118.3938929">
  <ele>-2.03</ele>
  <time>2026-09-02T22:12:07Z</time>
  <course>185.7</course>
  <speed>0.35</speed>
  <fix>3d</fix>
</trkpt>
<trkpt lat="33.8100676" lon="-118.3938931">
  <ele>-2.076</ele>
  <time>2026-09-02T22:12:07Z</time>
  <course>185.09</course>
  <speed>0.2220360331117452</speed>
  <fix>3d</fix>
</trkpt>
<trkpt lat="33.8100678" lon="-118.3938929">
  <ele>-2.03</ele>
  <time>2026-09-02T22:12:07Z</time>
  <course>185.7</course>
  <speed>0.35</speed>
  <fix>3d</fix>
</trkpt>
<trkpt lat="33.8100673" lon="-118.3938931">
  <ele>-2.076</ele>
  <time>2026-09-02T22:12:07Z</time>
  <course>185.09</course>
  <speed>0.20223748416156684</speed>
  <fix>3d</fix>
</trkpt>
<trkpt lat="33.8100672" lon="-118.393893">
  <ele>-2.03</ele>
  <time>2026-09-02T22:12:07Z</time>
  <course>185.98</course>
  <speed>0.27</speed>
  <fix>3d</fix>
</trkpt>
<trkpt lat="33.8100671" lon="-118.3938931">
  <ele>-2.075</ele>
  <time>2026-09-02T22:12:07Z</time>
  <course>185.09</course>
  <speed>0.1824828759089466</speed>
  <fix>3d</fix>
</trkpt>
<trkpt lat="33.8100672" lon="-118.393893">
  <ele>-2.03</ele>
  <time>2026-09-02T22:12:07Z</time>
  <course>185.98</course>
  <speed>0.27</speed>
  <fix>3d</fix>
</trkpt>
<trkpt lat="33.8100669" lon="-118.3938931">
  <ele>-2.074</ele>
  <time>2026-09-02T22:12:07Z</time>
  <course>185.09</course>
  <speed>0.15297058540778355</speed>
  <fix>3d</fix>
</trkpt>
<trkpt lat="33.8100668" lon="-118.3938931">
  <ele>-2.02</ele>
  <time>2026-09-02T22:12:07Z</time>
  <course>186.29</course>
  <speed>0.21</speed>
  <fix>3d</fix>
</trkpt>
<trkpt lat="33.8100668" lon="-118.3938932">
  <ele>-2.073</ele>
  <time>2026-09-02T22:12:07Z</time>
  <course>185.09</course>
  <speed>0.12165525060596438</speed>
  <fix>3d</fix>
</trkpt>
<trkpt lat="33.8100668" lon="-118.3938931">
  <ele>-2.02</ele>
  <time>2026-09-02T22:12:07Z</time>
  <course>186.29</course>
  <speed>0.21</speed>
  <fix>3d</fix>
</trkpt>
<trkpt lat="33.8100667" lon="-118.3938932">
  <ele>-2.073</ele>
  <time>2026-09-02T22:12:07Z</time>
  <course>185.09</course>
  <speed>0.12165525060596438</speed>
  <fix>3d</fix>
</trkpt>
<trkpt lat="33.8100666" lon="-118.3938932">
  <ele>-2.072</ele>
  <time>2026-09-02T22:12:07Z</time>
  <course>185.09</course>
  <speed>0.1019803902718557</speed>
  <fix>3d</fix>
</trkpt>
<trkpt lat="33.8100664" lon="-118.3938931">
  <ele>-2.02</ele>
  <time>2026-09-02T22:12:07Z</time>
  <course>186.6</course>
  <speed>0.16</speed>
  <fix>3d</fix>
</trkpt>
<trkpt lat="33.8100665" lon="-118.3938932">
  <ele>-2.072</ele>
  <time>2026-09-02T22:12:07Z</time>
  <course>185.09</course>
  <speed>0.07280109889280519</speed>
  <fix>3d</fix>
</trkpt>
<trkpt lat="33.8100664" lon="-118.3938931">
  <ele>-2.02</ele>
  <time>2026-09-02T22:12:07Z</time>
  <course>186.6</course>
  <speed>0.16</speed>
  <fix>3d</fix>
</trkpt>
<trkpt lat="33.8100664" lon="-118.3938932">
  <ele>-2.073</ele>
  <time>2026-09-02T22:12:07Z</time>
  <course>185.09</course>
  <speed>0.053851648071345036</speed>
  <fix>3d</fix>
</trkpt>
<trkpt lat="33.8100661" lon="-118.3938932">
  <ele>-2.02</ele>
  <time>2026-09-02T22:12:07Z</time>
  <course>186.91</course>
  <speed>0.11</speed>
  <fix>3d</fix>
</trkpt>
<trkpt lat="33.8100663" lon="-118.3938932">
  <ele>-2.074</ele>
  <time>2026-09-02T22:12:07Z</time>
  <course>185.09</course>
  <speed>0.0316227766016838</speed>
  <fix>3d</fix>
</trkpt>
<trkpt lat="33.8100661" lon="-118.3938932">
  <ele>-2.02</ele>
  <time>2026-09-02T22:12:07Z</time>
  <course>186.91</course>
  <speed>0.11</speed>
  <fix>3d</fix>
</trkpt>
<trkpt lat="33.8100663" lon="-118.3938932">
  <ele>-2.075</ele>
  <time>2026-09-02T22:12:07Z</time>
  <course>185.08</course>
  <speed>0.01414213562373095</speed>
  <fix>3d</fix>
</trkpt>
<trkpt lat="33.810066" lon="-118.3938932">
  <ele>-2.02</ele>
  <time>2026-09-02T22:12:07Z</time>
  <course>187.33</course>
  <speed>0.06</speed>
  <fix>3d</fix>
</trkpt>
<trkpt lat="33.8100663" lon="-118.3938932">
  <ele>-2.076</ele>
  <time>2026-09-02T22:12:07Z</time>
  <course>185.08</course>
  <speed>0.01</speed>
  <fix>3d</fix>
</trkpt>
<trkpt lat="33.810066" lon="-118.3938932">
  <ele>-2.02</ele>
  <time>2026-09-02T22:12:07Z</time>
  <course>187.33</course>
  <speed>0.06</speed>
  <fix>3d</fix>
</trkpt>
<trkpt lat="33.8100662" lon="-118.3938932">
  <ele>-2.076</ele>
  <time>2026-09-02T22:12:07Z</time>
  <course>185.08</course>
  <speed>0.01414213562373095</speed>
  <fix>3d</fix>
</trkpt>
<trkpt lat="33.8100659" lon="-118.3938932">
  <ele>-2.01</ele>
  <time>2026-09-02T22:12:07Z</time>
  <course>188.11</course>
  <speed>0.01</speed>
  <fix>3d</fix>
</trkpt>
<trkpt lat="33.8100662" lon="-118.3938932">
  <ele>-2.076</ele>
  <time>2026-09-02T22:12:07Z</time>
  <course>185.08</course>
  <speed>0.0316227766016838</speed>
  <fix>3d</fix>
</trkpt>
<trkpt lat="33.8100659" lon="-118.3938932">
  <ele>-2.01</ele>
  <time>2026-09-02T22:12:07Z</time>
  <course>188.11</course>
  <speed>0.01</speed>
  <fix>3d</fix>
</trkpt>
<trkpt lat="33.8100662" lon="-118.3938932">
  <ele>-2.074</ele>
  <time>2026-09-02T22:12:07Z</time>
  <course>185.08</course>
  <speed>0.03</speed>
  <fix>3d</fix>
</trkpt>
<trkpt lat="33.8100659" lon="-118.3938932">
  <ele>-2.01</ele>
  <time>2026-09-02T22:12:07Z</time>
  <course>5.96</course>
  <speed>0.01</speed>
  <fix>3d</fix>
</trkpt>
<trkpt lat="33.8100663" lon="-118.3938932">
  <ele>-2.073</ele>
  <time>2026-09-02T22:12:07Z</time>
  <course>185.08</course>
  <speed>0.04</speed>
  <fix>3d</fix>
</trkpt>
<trkpt lat="33.8100659" lon="-118.3938932">
  <ele>-2.01</ele>
  <time>2026-09-02T22:12:07Z</time>
  <course>5.96</course>
  <speed>0.01</speed>
  <fix>3d</fix>
</trkpt>
<trkpt lat="33.8100663" lon="-118.3938932">
  <ele>-2.07</ele>
  <time>2026-09-02T22:12:07Z</time>
  <course>185.09</course>
  <speed>0.04</speed>
  <fix>3d</fix>
</trkpt>
<trkpt lat="33.810066" lon="-118.3938932">
  <ele>-2.01</ele>
  <time>2026-09-02T22:12:07Z</time>
  <course>7.65</course>
  <speed>0.03</speed>
  <fix>3d</fix>
</trkpt>
<trkpt lat="33.8100663" lon="-118.3938932">
  <ele>-2.07</ele>
  <time>2026-09-02T22:12:07Z</time>
  <course>185.09</course>
  <speed>0.04</speed>
  <fix>3d</fix>
</trkpt>
<trkpt lat="33.8100663" lon="-118.3938932">
  <ele>-2.069</ele>
  <time>2026-09-02T22:12:07Z</time>
  <course>185.09</course>
  <speed>0.05</speed>
  <fix>3d</fix>
</trkpt>
<trkpt lat="33.810066" lon="-118.3938932">
  <ele>-2.01</ele>
  <time>2026-09-02T22:12:07Z</time>
  <course>7.65</course>
  <speed>0.03</speed>
  <fix>3d</fix>
</trkpt>
<trkpt lat="33.8100663" lon="-118.3938932">
  <ele>-2.067</ele>
  <time>2026-09-02T22:12:07Z</time>
  <course>185.09</course>
  <speed>0.04</speed>
  <fix>3d</fix>
</trkpt>
<trkpt lat="33.810066" lon="-118.3938932">
  <ele>-2.0</ele>
  <time>2026-09-02T22:12:07Z</time>
  <course>8.25</course>
  <speed>0.04</speed>
  <fix>3d</fix>
</trkpt>
<trkpt lat="33.8100663" lon="-118.3938932">
  <ele>-2.063</ele>
  <time>2026-09-02T22:12:07Z</time>
  <course>185.09</course>
  <speed>0.04</speed>
  <fix>3d</fix>
</trkpt>
<trkpt lat="33.810066" lon="-118.3938932">
  <ele>-2.0</ele>
  <time>2026-09-02T22:12:07Z</time>
  <course>8.25</course>
  <speed>0.04</speed>
  <fix>3d</fix>
</trkpt>
<trkpt lat="33.8100663" lon="-118.3938932">
  <ele>-2.06</ele>
  <time>2026-09-02T22:12:07Z</time>
  <course>185.09</course>
  <speed>0.04</speed>
  <fix>3d</fix>
</trkpt>
<trkpt lat="33.810066" lon="-118.3938932">
  <ele>-2.0</ele>
  <time>2026-09-02T22:12:07Z</time>
  <course>8.35</course>
  <speed>0.04</speed>
  <fix>3d</fix>
</trkpt>
<trkpt lat="33.8100663" lon="-118.3938932">
  <ele>-2.055</ele>
  <time>2026-09-02T22:12:07Z</time>
  <course>185.08</course>
  <speed>0.0412310562561766</speed>
  <fix>3d</fix>
</trkpt>
<trkpt lat="33.810066" lon="-118.3938932">
  <ele>-2.0</ele>
  <time>2026-09-02T22:12:07Z</time>
  <course>8.35</course>
  <speed>0.04</speed>
  <fix>3d</fix>
</trkpt>
<trkpt lat="33.8100663" lon="-118.3938932">
  <ele>-2.051</ele>
  <time>2026-09-02T22:12:07Z</time>
  <course>185.08</course>
  <speed>0.0412310562561766</speed>
  <fix>3d</fix>
</trkpt>
<trkpt lat="33.8100661" lon="-118.3938932">
  <ele>-1.99</ele>
  <time>2026-09-02T22:12:07Z</time>
  <course>8.47</course>
  <speed>0.04</speed>
  <fix>3d</fix>
</trkpt>
<trkpt lat="33.8100663" lon="-118.3938932">
  <ele>-2.047</ele>
  <time>2026-09-02T22:12:07Z</time>
  <course>185.07</course>
  <speed>0.0412310562561766</speed>
  <fix>3d</fix>
</trkpt>
<trkpt lat="33.8100661" lon="-118.3938932">
  <ele>-1.99</ele>
  <time>2026-09-02T22:12:07Z</time>
  <course>8.47</course>
  <speed>0.04</speed>
  <fix>3d</fix>
</trkpt>
<trkpt lat="33.8100663" lon="-118.3938932">
  <ele>-2.042</ele>
  <time>2026-09-02T22:12:07Z</time>
  <course>185.07</course>
  <speed>0.0412310562561766</speed>
  <fix>3d</fix>
</trkpt>
<trkpt lat="33.8100662" lon="-118.3938932">
  <ele>-1.98</ele>
  <time>2026-09-02T22:12:07Z</time>
  <course>8.6</course>
  <speed>0.04</speed>
  <fix>3d</fix>
</trkpt>
<trkpt lat="33.8100664" lon="-118.3938932">
  <ele>-2.036</ele>
  <time>2026-09-02T22:12:07Z</time>
  <course>185.06</course>
  <speed>0.0412310562561766</speed>
  <fix>3d</fix>
</trkpt>
<trkpt lat="33.8100662" lon="-118.3938932">
  <ele>-1.98</ele>
  <time>2026-09-02T22:12:07Z</time>
  <course>8.6</course>
  <speed>0.04</speed>
  <fix>3d</fix>
</trkpt>
<trkpt lat="33.8100664" lon="-118.3938932">
  <ele>-2.031</ele>
  <time>2026-09-02T22:12:07Z</time>
  <course>185.06</course>
  <speed>0.0412310562561766</speed>
  <fix>3d</fix>
</trkpt>
<trkpt lat="33.8100662" lon="-118.3938932">
  <ele>-1.97</ele>
  <time>2026-09-02T22:12:07Z</time>
  <course>8.73</course>
  <speed>0.03</speed>
  <fix>3d</fix>
</trkpt>
<trkpt lat="33.8100664" lon="-118.3938932">
  <ele>-2.025</ele>
  <time>2026-09-02T22:12:07Z</time>
  <course>185.05</course>
  <speed>0.0412310562561766</speed>
  <fix>3d</fix>
</trkpt>
<trkpt lat="33.8100662" lon="-118.3938932">
  <ele>-1.97</ele>
  <time>2026-09-02T22:12:07Z</time>
  <course>8.73</course>
  <speed>0.03</speed>
  <fix>3d</fix>
</trkpt>
<trkpt lat="33.8100664" lon="-118.3938932">
  <ele>-2.016</ele>
  <time>2026-09-02T22:12:07Z</time>
  <course>185.05</course>
  <speed>0.0412310562561766</speed>
  <fix>3d</fix>
</trkpt>
<trkpt lat="33.8100663" lon="-118.3938932">
  <ele>-1.96</ele>
  <time>2026-09-02T22:12:07Z</time>
  <course>8.88</course>
  <speed>0.03</speed>
  <fix>3d</fix>
</trkpt>
<trkpt lat="33.8100665" lon="-118.3938932">
  <ele>-2.007</ele>
  <time>2026-09-02T22:12:07Z</time>
  <course>185.04</course>
  <speed>0.0412310562561766</speed>
  <fix>3d</fix>
</trkpt>
<trkpt lat="33.8100663" lon="-118.3938932">
  <ele>-1.96</ele>
  <time>2026-09-02T22:12:07Z</time>
  <course>8.88</course>
  <speed>0.03</speed>
  <fix>3d</fix>
</trkpt>
<trkpt lat="33.8100665" lon="-118.3938932">
  <ele>-1.999</ele>
  <time>2026-09-02T22:12:07Z</time>
  <course>185.03</course>
  <speed>0.0412310562561766</speed>
  <fix>3d</fix>
</trkpt>
<trkpt lat="33.8100663" lon="-118.3938932">
  <ele>-1.95</ele>
  <time>2026-09-02T22:12:07Z</time>
  <course>9.01</course>
  <speed>0.03</speed>
  <fix>3d</fix>
</trkpt>
<trkpt lat="33.8100665" lon="-118.3938932">
  <ele>-1.99</ele>
  <time>2026-09-02T22:12:07Z</time>
  <course>185.03</course>
  <speed>0.0316227766016838</speed>
  <fix>3d</fix>
</trkpt>
<trkpt lat="33.8100663" lon="-118.3938932">
  <ele>-1.95</ele>
  <time>2026-09-02T22:12:07Z</time>
  <course>9.01</course>
  <speed>0.03</speed>
  <fix>3d</fix>
</trkpt>
<trkpt lat="33.8100665" lon="-118.3938933">
  <ele>-1.981</ele>
  <time>2026-09-02T22:12:07Z</time>
  <course>185.02</course>
  <speed>0.0316227766016838</speed>
  <fix>3d</fix>
</trkpt>
<trkpt lat="33.8100664" lon="-118.3938932">
  <ele>-1.94</ele>
  <time>2026-09-02T22:12:07Z</time>
  <course>9.14</course>
  <speed>0.03</speed>
  <fix>3d</fix>
</trkpt>
<trkpt lat="33.8100665" lon="-118.3938933">
  <ele>-1.971</ele>
  <time>2026-09-02T22:12:07Z</time>
  <course>185.01</course>
  <speed>0.0316227766016838</speed>
  <fix>3d</fix>
</trkpt>
<trkpt lat="33.8100664" lon="-118.3938932">
  <ele>-1.94</ele>
  <time>2026-09-02T22:12:07Z</time>
  <course>9.14</course>
  <speed>0.03</speed>
  <fix>3d</fix>
</trkpt>
<trkpt lat="33.8100666" lon="-118.3938933">
  <ele>-1.962</ele>
  <time>2026-09-02T22:12:07Z</time>
  <course>185.01</course>
  <speed>0.0316227766016838</speed>
  <fix>3d</fix>
</trkpt>
<trkpt lat="33.8100665" lon="-118.3938932">
  <ele>-1.93</ele>
  <time>2026-09-02T22:12:07Z</time>
  <course>9.25</course>
  <speed>0.03</speed>
  <fix>3d</fix>
</trkpt>
<trkpt lat="33.8100666" lon="-118.3938933">
  <ele>-1.954</ele>
  <time>2026-09-02T22:12:07Z</time>
  <course>185.0</course>
  <speed>0.0316227766016838</speed>
  <fix>3d</fix>
</trkpt>
<trkpt lat="33.8100665" lon="-118.3938932">
  <ele>-1.93</ele>
  <time>2026-09-02T22:12:07Z</time>
  <course>9.25</course>
  <speed>0.03</speed>
  <fix>3d</fix>
</trkpt>
<trkpt lat="33.8100666" lon="-118.3938933">
  <ele>-1.945</ele>
  <time>2026-09-02T22:12:07Z</time>
  <course>184.99</course>
  <speed>0.0316227766016838</speed>
  <fix>3d</fix>
</trkpt>
<trkpt lat="33.8100666" lon="-118.3938932">
  <ele>-1.91</ele>
  <time>2026-09-02T22:12:07Z</time>
  <course>9.37</course>
  <speed>0.03</speed>
  <fix>3d</fix>
</trkpt>
<trkpt lat="33.8100666" lon="-118.3938933">
  <ele>-1.936</ele>
  <time>2026-09-02T22:12:07Z</time>
  <course>184.99</course>
  <speed>0.0316227766016838</speed>
  <fix>3d</fix>
</trkpt>
<trkpt lat="33.8100666" lon="-118.3938932">
  <ele>-1.91</ele>
  <time>2026-09-02T22:12:07Z</time>
  <course>9.37</course>
  <speed>0.03</speed>
  <fix>3d</fix>
</trkpt>
<trkpt lat="33.8100667" lon="-118.3938933">
  <ele>-1.927</ele>
  <time>2026-09-02T22:12:07Z</time>
  <course>184.98</course>
  <speed>0.0316227766016838</speed>
  <fix>3d</fix>
</trkpt>
<trkpt lat="33.8100666" lon="-118.3938932">
  <ele>-1.9</ele>
  <time>2026-09-02T22:12:07Z</time>
  <course>9.5</course>
  <speed>0.03</speed>
  <fix>3d</fix>
</trkpt>
<trkpt lat="33.8100667" lon="-118.3938933">
  <ele>-1.918</ele>
  <time>2026-09-02T22:12:07Z</time>
  <course>184.97</course>
  <speed>0.0316227766016838</speed>
  <fix>3d</fix>
</trkpt>
<trkpt lat="33.8100666" lon="-118.3938932">
  <ele>-1.9</ele>
  <time>2026-09-02T22:12:07Z</time>
  <course>9.5</course>
  <speed>0.03</speed>
  <fix>3d</fix>
</trkpt>
<trkpt lat="33.8100668" lon="-118.3938933">
  <ele>-1.88</ele>
  <time>2026-09-02T22:12:07Z</time>
  <course>184.94</course>
  <speed>0.0316227766016838</speed>
  <fix>3d</fix>
</trkpt>
<trkpt lat="33.8100667" lon="-118.3938932">
  <ele>-1.86</ele>
  <time>2026-09-02T22:12:07Z</time>
  <course>9.79</course>
  <speed>0.03</speed>
  <fix>3d</fix>
</trkpt>
<trkpt lat="33.8100669" lon="-118.3938933">
  <ele>-1.855</ele>
  <time>2026-09-02T22:12:07Z</time>
  <course>184.92</course>
  <speed>0.0316227766016838</speed>
  <fix>3d</fix>
</trkpt>
<trkpt lat="33.8100668" lon="-118.3938931">
  <ele>-1.83</ele>
  <time>2026-09-02T22:12:07Z</time>
  <course>10.02</course>
  <speed>0.02</speed>
  <fix>3d</fix>
</trkpt>
<trkpt lat="33.8100669" lon="-118.3938933">
  <ele>-1.846</ele>
  <time>2026-09-02T22:12:07Z</time>
  <course>184.91</course>
  <speed>0.0316227766016838</speed>
  <fix>3d</fix>
</trkpt>
<trkpt lat="33.8100668" lon="-118.3938931">
  <ele>-1.83</ele>
  <time>2026-09-02T22:12:07Z</time>
  <course>10.02</course>
  <speed>0.02</speed>
  <fix>3d</fix>
</trkpt>
<trkpt lat="33.8100669" lon="-118.3938933">
  <ele>-1.836</ele>
  <time>2026-09-02T22:12:07Z</time>
  <course>184.9</course>
  <speed>0.0316227766016838</speed>
  <fix>3d</fix>
</trkpt>
<trkpt lat="33.8100668" lon="-118.3938931">
  <ele>-1.81</ele>
  <time>2026-09-02T22:12:07Z</time>
  <course>10.12</course>
  <speed>0.02</speed>
  <fix>3d</fix>
</trkpt>
<trkpt lat="33.810067" lon="-118.3938933">
  <ele>-1.825</ele>
  <time>2026-09-02T22:12:07Z</time>
  <course>184.89</course>
  <speed>0.0316227766016838</speed>
  <fix>3d</fix>
</trkpt>
<trkpt lat="33.8100668" lon="-118.3938931">
  <ele>-1.81</ele>
  <time>2026-09-02T22:12:07Z</time>
  <course>10.12</course>
  <speed>0.02</speed>
  <fix>3d</fix>
</trkpt>
<trkpt lat="33.810067" lon="-118.3938933">
  <ele>-1.813</ele>
  <time>2026-09-02T22:12:07Z</time>
  <course>184.88</course>
  <speed>0.0316227766016838</speed>
  <fix>3d</fix>
</trkpt>
<trkpt lat="33.8100669" lon="-118.3938931">
  <ele>-1.79</ele>
  <time>2026-09-02T22:12:07Z</time>
  <course>10.24</course>
  <speed>0.02</speed>
  <fix>3d</fix>
</trkpt>
<trkpt lat="33.810067" lon="-118.3938933">
  <ele>-1.802</ele>
  <time>2026-09-02T22:12:07Z</time>
  <course>184.87</course>
  <speed>0.0316227766016838</speed>
  <fix>3d</fix>
</trkpt>
<trkpt lat="33.8100669" lon="-118.3938931">
  <ele>-1.79</ele>
  <time>2026-09-02T22:12:07Z</time>
  <course>10.24</course>
  <speed>0.02</speed>
  <fix>3d</fix>
</trkpt>
<trkpt lat="33.810067" lon="-118.3938933">
  <ele>-1.791</ele>
  <time>2026-09-02T22:12:07Z</time>
  <course>184.87</course>
  <speed>0.0316227766016838</speed>
  <fix>3d</fix>
</trkpt>
<trkpt lat="33.8100669" lon="-118.3938931">
  <ele>-1.77</ele>
  <time>2026-09-02T22:12:07Z</time>
  <course>10.38</course>
  <speed>0.02</speed>
  <fix>3d</fix>
</trkpt>
<trkpt lat="33.810067" lon="-118.3938933">
  <ele>-1.781</ele>
  <time>2026-09-02T22:12:07Z</time>
  <course>184.86</course>
  <speed>0.0316227766016838</speed>
  <fix>3d</fix>
</trkpt>
<trkpt lat="33.8100669" lon="-118.3938931">
  <ele>-1.77</ele>
  <time>2026-09-02T22:12:07Z</time>
  <course>10.38</course>
  <speed>0.02</speed>
  <fix>3d</fix>
</trkpt>
<trkpt lat="33.8100671" lon="-118.3938933">
  <ele>-1.772</ele>
  <time>2026-09-02T22:12:07Z</time>
  <course>184.85</course>
  <speed>0.0316227766016838</speed>
  <fix>3d</fix>
</trkpt>
<trkpt lat="33.810067" lon="-118.3938931">
  <ele>-1.75</ele>
  <time>2026-09-02T22:12:07Z</time>
  <course>10.53</course>
  <speed>0.02</speed>
  <fix>3d</fix>
</trkpt>
<trkpt lat="33.8100671" lon="-118.3938933">
  <ele>-1.764</ele>
  <time>2026-09-02T22:12:07Z</time>
  <course>184.84</course>
  <speed>0.0316227766016838</speed>
  <fix>3d</fix>
</trkpt>
<trkpt lat="33.810067" lon="-118.3938931">
  <ele>-1.75</ele>
  <time>2026-09-02T22:12:07Z</time>
  <course>10.53</course>
  <speed>0.02</speed>
  <fix>3d</fix>
</trkpt>
<trkpt lat="33.8100671" lon="-118.3938933">
  <ele>-1.755</ele>
  <time>2026-09-02T22:12:07Z</time>
  <course>184.83</course>
  <speed>0.0316227766016838</speed>
  <fix>3d</fix>
</trkpt>
<trkpt lat="33.8100671" lon="-118.3938931">
  <ele>-1.73</ele>
  <time>2026-09-02T22:12:07Z</time>
  <course>10.66</course>
  <speed>0.02</speed>
  <fix>3d</fix>
</trkpt>
<trkpt lat="33.8100671" lon="-118.3938933">
  <ele>-1.747</ele>
  <time>2026-09-02T22:12:07Z</time>
  <course>184.82</course>
  <speed>0.0316227766016838</speed>
  <fix>3d</fix>
</trkpt>
<trkpt lat="33.8100671" lon="-118.3938931">
  <ele>-1.73</ele>
  <time>2026-09-02T22:12:07Z</time>
  <course>10.66</course>
  <speed>0.02</speed>
  <fix>3d</fix>
</trkpt>
<trkpt lat="33.8100672" lon="-118.3938933">
  <ele>-1.739</ele>
  <time>2026-09-02T22:12:07Z</time>
  <course>184.82</course>
  <speed>0.0316227766016838</speed>
  <fix>3d</fix>
</trkpt>
<trkpt lat="33.8100671" lon="-118.3938931">
  <ele>-1.72</ele>
  <time>2026-09-02T22:12:07Z</time>
  <course>10.77</course>
  <speed>0.02</speed>
  <fix>3d</fix>
</trkpt>
<trkpt lat="33.8100672" lon="-118.3938933">
  <ele>-1.731</ele>
  <time>2026-09-02T22:12:07Z</time>
  <course>184.81</course>
  <speed>0.0316227766016838</speed>
  <fix>3d</fix>
</trkpt>
<trkpt lat="33.8100671" lon="-118.3938931">
  <ele>-1.72</ele>
  <time>2026-09-02T22:12:07Z</time>
  <course>10.77</course>
  <speed>0.02</speed>
  <fix>3d</fix>
</trkpt>
<trkpt lat="33.8100672" lon="-118.3938933">
  <ele>-1.722</ele>
  <time>2026-09-02T22:12:07Z</time>
  <course>184.8</course>
  <speed>0.0316227766016838</speed>
  <fix>3d</fix>
</trkpt>
<trkpt lat="33.8100672" lon="-118.3938931">
  <ele>-1.7</ele>
  <time>2026-09-02T22:12:07Z</time>
  <course>10.87</course>
  <speed>0.02</speed>
  <fix>3d</fix>
</trkpt>
<trkpt lat="33.8100672" lon="-118.3938933">
  <ele>-1.713</ele>
  <time>2026-09-02T22:12:07Z</time>
  <course>184.79</course>
  <speed>0.0316227766016838</speed>
  <fix>3d</fix>
</trkpt>
<trkpt lat="33.8100672" lon="-118.3938931">
  <ele>-1.7</ele>
  <time>2026-09-02T22:12:07Z</time>
  <course>10.87</course>
  <speed>0.02</speed>
  <fix>3d</fix>
</trkpt>
<trkpt lat="33.8100673" lon="-118.3938933">
  <ele>-1.705</ele>
  <time>2026-09-02T22:12:07Z</time>
  <course>184.78</course>
  <speed>0.0316227766016838</speed>
  <fix>3d</fix>
</trkpt>
<trkpt lat="33.8100672" lon="-118.393893">
  <ele>-1.68</ele>
  <time>2026-09-02T22:12:07Z</time>
  <course>10.97</course>
  <speed>0.02</speed>
  <fix>3d</fix>
</trkpt>
<trkpt lat="33.8100673" lon="-118.3938933">
  <ele>-1.697</ele>
  <time>2026-09-02T22:12:07Z</time>
  <course>184.77</course>
  <speed>0.0316227766016838</speed>
  <fix>3d</fix>
</trkpt>
<trkpt lat="33.8100672" lon="-118.393893">
  <ele>-1.68</ele>
  <time>2026-09-02T22:12:07Z</time>
  <course>10.97</course>
  <speed>0.02</speed>
  <fix>3d</fix>
</trkpt>
<trkpt lat="33.8100673" lon="-118.3938933">
  <ele>-1.688</ele>
  <time>2026-09-02T22:12:07Z</time>
  <course>184.77</course>
  <speed>0.0412310562561766</speed>
  <fix>3d</fix>
</trkpt>
<trkpt lat="33.8100672" lon="-118.393893">
  <ele>-1.66</ele>
  <time>2026-09-02T22:12:07Z</time>
  <course>11.1</course>
  <speed>0.02</speed>
  <fix>3d</fix>
</trkpt>
<trkpt lat="33.8100673" lon="-118.3938932">
  <ele>-1.68</ele>
  <time>2026-09-02T22:12:07Z</time>
  <course>184.76</course>
  <speed>0.0412310562561766</speed>
  <fix>3d</fix>
</trkpt>
<trkpt lat="33.8100672" lon="-118.393893">
  <ele>-1.66</ele>
  <time>2026-09-02T22:12:07Z</time>
  <course>11.1</course>
  <speed>0.02</speed>
  <fix>3d</fix>
</trkpt>
<trkpt lat="33.8100674" lon="-118.3938932">
  <ele>-1.67</ele>
  <time>2026-09-02T22:12:07Z</time>
  <course>184.75</course>
  <speed>0.0412310562561766</speed>
  <fix>3d</fix>
</trkpt>
<trkpt lat="33.8100673" lon="-118.393893">
  <ele>-1.64</ele>
  <time>2026-09-02T22:12:07Z</time>
  <course>11.24</course>
  <speed>0.02</speed>
  <fix>3d</fix>
</trkpt>
<trkpt lat="33.8100674" lon="-118.3938932">
  <ele>-1.659</ele>
  <time>2026-09-02T22:12:07Z</time>
  <course>184.74</course>
  <speed>0.0412310562561766</speed>
  <fix>3d</fix>
</trkpt>
<trkpt lat="33.8100673" lon="-118.393893">
  <ele>-1.64</ele>
  <time>2026-09-02T22:12:07Z</time>
  <course>11.24</course>
  <speed>0.02</speed>
  <fix>3d</fix>
</trkpt>
<trkpt lat="33.8100674" lon="-118.3938932">
  <ele>-1.65</ele>
  <time>2026-09-02T22:12:07Z</time>
  <course>184.73</course>
  <speed>0.0412310562561766</speed>
  <fix>3d</fix>
</trkpt>
<trkpt lat="33.8100673" lon="-118.393893">
  <ele>-1.62</ele>
  <time>2026-09-02T22:12:07Z</time>
  <course>11.38</course>
  <speed>0.02</speed>
  <fix>3d</fix>
</trkpt>
<trkpt lat="33.8100674" lon="-118.3938932">
  <ele>-1.639</ele>
  <time>2026-09-02T22:12:07Z</time>
  <course>184.73</course>
  <speed>0.0412310562561766</speed>
  <fix>3d</fix>
</trkpt>
<trkpt lat="33.8100673" lon="-118.393893">
  <ele>-1.62</ele>
  <time>2026-09-02T22:12:07Z</time>
  <course>11.38</course>
  <speed>0.02</speed>
  <fix>3d</fix>
</trkpt>
<trkpt lat="33.8100675" lon="-118.3938932">
  <ele>-1.628</ele>
  <time>2026-09-02T22:12:07Z</time>
  <course>184.72</course>
  <speed>0.0412310562561766</speed>
  <fix>3d</fix>
</trkpt>
<trkpt lat="33.8100674" lon="-118.393893">
  <ele>-1.6</ele>
  <time>2026-09-02T22:12:07Z</time>
  <course>11.5</course>
  <speed>0.02</speed>
  <fix>3d</fix>
</trkpt>
<trkpt lat="33.8100675" lon="-118.3938932">
  <ele>-1.618</ele>
  <time>2026-09-02T22:12:07Z</time>
  <course>184.71</course>
  <speed>0.0412310562561766</speed>
  <fix>3d</fix>
</trkpt>
<trkpt lat="33.8100674" lon="-118.393893">
  <ele>-1.6</ele>
  <time>2026-09-02T22:12:07Z</time>
  <course>11.5</course>
  <speed>0.02</speed>
  <fix>3d</fix>
</trkpt>
<trkpt lat="33.8100675" lon="-118.3938932">
  <ele>-1.606</ele>
  <time>2026-09-02T22:12:07Z</time>
  <course>184.7</course>
  <speed>0.0412310562561766</speed>
  <fix>3d</fix>
</trkpt>
<trkpt lat="33.8100674" lon="-118.393893">
  <ele>-1.58</ele>
  <time>2026-09-02T22:12:07Z</time>
  <course>11.6</course>
  <speed>0.02</speed>
  <fix>3d</fix>
</trkpt>
<trkpt lat="33.4368002" lon="-117.0859339">
  <ele>-0.11</ele>
  <time>2026-09-02T22:12:08Z</time>
  <course>0.0</course>
  <speed>0.0</speed>
  <fix>3d</fix>
</trkpt>
<trkpt lat="33.4368002" lon="-117.0859339">
  <ele>-0.11</ele>
  <time>2026-09-02T22:12:08Z</time>
  <course>0.0</course>
  <speed>0.0</speed>
  <fix>3d</fix>
</trkpt>
<trkpt lat="33.810313" lon="-118.393867">
  <ele>0.0</ele>
  <time>2026-09-02T22:12:08Z</time>
  <course>173.5</course>
  <speed>0.0</speed>
  <fix>3d</fix>
</trkpt>
<trkpt lat="33.810313" lon="-118.393867">
  <ele>-0.11</ele>
  <time>2026-09-02T22:12:08Z</time>
  <course>0.0</course>
  <speed>0.0</speed>
  <fix>3d</fix>
</trkpt>
<trkpt lat="33.810313" lon="-118.393867">
  <ele>0.0</ele>
  <time>2026-09-02T22:12:08Z</time>
  <course>173.61</course>
  <speed>0.0</speed>
  <fix>3d</fix>
</trkpt>
<trkpt lat="33.810313" lon="-118.393867">
  <ele>-0.11</ele>
  <time>2026-09-02T22:12:08Z</time>
  <course>0.0</course>
  <speed>0.0</speed>
  <fix>3d</fix>
</trkpt>
<trkpt lat="33.810313" lon="-118.393867">
  <ele>0.0</ele>
  <time>2026-09-02T22:12:08Z</time>
  <course>173.99</course>
  <speed>0.0</speed>
  <fix>3d</fix>
</trkpt>
<trkpt lat="33.810313" lon="-118.393867">
  <ele>-0.11</ele>
  <time>2026-09-02T22:12:08Z</time>
  <course>0.0</course>
  <speed>0.0</speed>
  <fix>3d</fix>
</trkpt>
<trkpt lat="33.810313" lon="-118.393867">
  <ele>0.0</ele>
  <time>2026-09-02T22:12:08Z</time>
  <course>174.51</course>
  <speed>0.0</speed>
  <fix>3d</fix>
</trkpt>
<trkpt lat="33.810313" lon="-118.393867">
  <ele>-0.11</ele>
  <time>2026-09-02T22:12:08Z</time>
  <course>0.0</course>
  <speed>0.0</speed>
  <fix>3d</fix>
</trkpt>
<trkpt lat="33.810313" lon="-118.393867">
  <ele>0.0</ele>
  <time>2026-09-02T22:12:08Z</time>
  <course>175.07</course>
  <speed>0.0</speed>
  <fix>3d</fix>
</trkpt>
<trkpt lat="33.810313" lon="-118.393867">
  <ele>-0.12</ele>
  <time>2026-09-02T22:12:08Z</time>
  <course>0.0</course>
  <speed>0.0</speed>
  <fix>3d</fix>
</trkpt>
<trkpt lat="33.810313" lon="-118.393867">
  <ele>0.0</ele>
  <time>2026-09-02T22:12:08Z</time>
  <course>175.61</course>
  <speed>0.0</speed>
  <fix>3d</fix>
</trkpt>
<trkpt lat="33.810313" lon="-118.393867">
  <ele>-0.12</ele>
  <time>2026-09-02T22:12:08Z</time>
  <course>0.0</course>
  <speed>0.0</speed>
  <fix>3d</fix>
</trkpt>
<trkpt lat="33.810313" lon="-118.393867">
  <ele>0.0</ele>
  <time>2026-09-02T22:12:08Z</time>
  <course>176.12</course>
  <speed>0.0</speed>
  <fix>3d</fix>
</trkpt>
<trkpt lat="33.810313" lon="-118.393867">
  <ele>-0.13</ele>
  <time>2026-09-02T22:12:08Z</time>
  <course>0.0</course>
  <speed>0.0</speed>
  <fix>3d</fix>
</trkpt>
<trkpt lat="33.810313" lon="-118.393867">
  <ele>0.0</ele>
  <time>2026-09-02T22:12:08Z</time>
  <course>176.6</course>
  <speed>0.0</speed>
  <fix>3d</fix>
</trkpt>
<trkpt lat="33.810313" lon="-118.393867">
  <ele>-0.13</ele>
  <time>2026-09-02T22:12:08Z</time>
  <course>0.0</course>
  <speed>0.0</speed>
  <fix>3d</fix>
</trkpt>
<trkpt lat="33.810313" lon="-118.393867">
  <ele>0.0</ele>
  <time>2026-09-02T22:12:08Z</time>
  <course>177.07</course>
  <speed>0.0</speed>
  <fix>3d</fix>
</trkpt>
<trkpt lat="33.810313" lon="-118.393867">
  <ele>-0.13</ele>
  <time>2026-09-02T22:12:08Z</time>
  <course>0.0</course>
  <speed>0.0</speed>
  <fix>3d</fix>
</trkpt>
<trkpt lat="33.810313" lon="-118.393867">
  <ele>0.0</ele>
  <time>2026-09-02T22:12:08Z</time>
  <course>177.53</course>
  <speed>0.0</speed>
  <fix>3d</fix>
</trkpt>
<trkpt lat="33.810313" lon="-118.393867">
  <ele>-0.13</ele>
  <time>2026-09-02T22:12:08Z</time>
  <course>0.0</course>
  <speed>0.0</speed>
  <fix>3d</fix>
</trkpt>
<trkpt lat="33.810313" lon="-118.393867">
  <ele>0.0</ele>
  <time>2026-09-02T22:12:08Z</time>
  <course>177.97</course>
  <speed>0.0</speed>
  <fix>3d</fix>
</trkpt>
<trkpt lat="33.810313" lon="-118.393867">
  <ele>-0.14</ele>
  <time>2026-09-02T22:12:08Z</time>
  <course>0.0</course>
  <speed>0.0</speed>
  <fix>3d</fix>
</trkpt>
<trkpt lat="33.810313" lon="-118.393867">
  <ele>0.0</ele>
  <time>2026-09-02T22:12:08Z</time>
  <course>178.4</course>
  <speed>0.0</speed>
  <fix>3d</fix>
</trkpt>
<trkpt lat="33.810313" lon="-118.393867">
  <ele>-0.14</ele>
  <time>2026-09-02T22:12:08Z</time>
  <course>0.0</course>
  <speed>0.0</speed>
  <fix>3d</fix>
</trkpt>
<trkpt lat="33.810313" lon="-118.393867">
  <ele>0.0</ele>
  <time>2026-09-02T22:12:08Z</time>
  <course>178.82</course>
  <speed>0.0</speed>
  <fix>3d</fix>
</trkpt>
<trkpt lat="33.810313" lon="-118.393867">
  <ele>-0.14</ele>
  <time>2026-09-02T22:12:08Z</time>
  <course>0.0</course>
  <speed>0.0</speed>
  <fix>3d</fix>
</trkpt>
<trkpt lat="33.810313" lon="-118.393867">
  <ele>0.0</ele>
  <time>2026-09-02T22:12:08Z</time>
  <course>179.23</course>
  <speed>0.0</speed>
  <fix>3d</fix>
</trkpt>
<trkpt lat="33.810313" lon="-118.393867">
  <ele>-0.14</ele>
  <time>2026-09-02T22:12:08Z</time>
  <course>0.0</course>
  <speed>0.0</speed>
  <fix>3d</fix>
</trkpt>
<trkpt lat="33.810313" lon="-118.393867">
  <ele>0.0</ele>
  <time>2026-09-02T22:12:08Z</time>
  <course>179.62</course>
  <speed>0.0</speed>
  <fix>3d</fix>
</trkpt>
<trkpt lat="33.810313" lon="-118.393867">
  <ele>-0.14</ele>
  <time>2026-09-02T22:12:08Z</time>
  <course>0.0</course>
  <speed>0.0</speed>
  <fix>3d</fix>
</trkpt>
<trkpt lat="33.810313" lon="-118.393867">
  <ele>0.0</ele>
  <time>2026-09-02T22:12:08Z</time>
  <course>180.01</course>
  <speed>0.0</speed>
  <fix>3d</fix>
</trkpt>
<trkpt lat="33.810313" lon="-118.393867">
  <ele>-0.14</ele>
  <time>2026-09-02T22:12:08Z</time>
  <course>0.0</course>
  <speed>0.0</speed>
  <fix>3d</fix>
</trkpt>
<trkpt lat="33.810313" lon="-118.393867">
  <ele>0.0</ele>
  <time>2026-09-02T22:12:08Z</time>
  <course>180.37</course>
  <speed>0.0</speed>
  <fix>3d</fix>
</trkpt>
<trkpt lat="33.810313" lon="-118.393867">
  <ele>-0.14</ele>
  <time>2026-09-02T22:12:08Z</time>
  <course>0.0</course>
  <speed>0.0</speed>
  <fix>3d</fix>
</trkpt>
<trkpt lat="33.810313" lon="-118.393867">
  <ele>0.0</ele>
  <time>2026-09-02T22:12:08Z</time>
  <course>180.73</course>
  <speed>0.0</speed>
  <fix>3d</fix>
</trkpt>
<trkpt lat="33.810313" lon="-118.393867">
  <ele>-0.14</ele>
  <time>2026-09-02T22:12:08Z</time>
  <course>0.0</course>
  <speed>0.0</speed>
  <fix>3d</fix>
</trkpt>
<trkpt lat="33.810313" lon="-118.393867">
  <ele>0.0</ele>
  <time>2026-09-02T22:12:08Z</time>
  <course>181.07</course>
  <speed>0.0</speed>
  <fix>3d</fix>
</trkpt>
<trkpt lat="33.810313" lon="-118.393867">
  <ele>-0.13</ele>
  <time>2026-09-02T22:12:08Z</time>
  <course>0.0</course>
  <speed>0.0</speed>
  <fix>3d</fix>
</trkpt>
<trkpt lat="33.810313" lon="-118.393867">
  <ele>0.0</ele>
  <time>2026-09-02T22:12:08Z</time>
  <course>181.4</course>
  <speed>0.0</speed>
  <fix>3d</fix>
</trkpt>
<trkpt lat="33.810313" lon="-118.393867">
  <ele>-0.13</ele>
  <time>2026-09-02T22:12:08Z</time>
  <course>0.0</course>
  <speed>0.0</speed>
  <fix>3d</fix>
</trkpt>
<trkpt lat="33.810313" lon="-118.393867">
  <ele>0.0</ele>
  <time>2026-09-02T22:12:08Z</time>
  <course>181.72</course>
  <speed>0.0</speed>
  <fix>3d</fix>
</trkpt>
<trkpt lat="33.810313" lon="-118.393867">
  <ele>-0.12</ele>
  <time>2026-09-02T22:12:08Z</time>
  <course>0.0</course>
  <speed>0.0</speed>
  <fix>3d</fix>
</trkpt>
<trkpt lat="33.810313" lon="-118.393867">
  <ele>0.0</ele>
  <time>2026-09-02T22:12:08Z</time>
  <course>182.02</course>
  <speed>0.0</speed>
  <fix>3d</fix>
</trkpt>
<trkpt lat="33.810313" lon="-118.393867">
  <ele>-0.12</ele>
  <time>2026-09-02T22:12:08Z</time>
  <course>0.0</course>
  <speed>0.0</speed>
  <fix>3d</fix>
</trkpt>
<trkpt lat="33.810313" lon="-118.393867">
  <ele>0.0</ele>
  <time>2026-09-02T22:12:08Z</time>
  <course>182.32</course>
  <speed>0.0</speed>
  <fix>3d</fix>
</trkpt>
<trkpt lat="33.810313" lon="-118.393867">
  <ele>-0.12</ele>
  <time>2026-09-02T22:12:08Z</time>
  <course>0.0</course>
  <speed>0.0</speed>
  <fix>3d</fix>
</trkpt>
<trkpt lat="33.810313" lon="-118.393867">
  <ele>0.0</ele>
  <time>2026-09-02T22:12:08Z</time>
  <course>182.6</course>
  <speed>0.0</speed>
  <fix>3d</fix>
</trkpt>
<trkpt lat="33.810313" lon="-118.393867">
  <ele>-0.12</ele>
  <time>2026-09-02T22:12:08Z</time>
  <course>0.0</course>
  <speed>0.0</speed>
  <fix>3d</fix>
</trkpt>
<trkpt lat="33.810313" lon="-118.393867">
  <ele>0.0</ele>
  <time>2026-09-02T22:12:08Z</time>
  <course>182.87</course>
  <speed>0.0</speed>
  <fix>3d</fix>
</trkpt>
<trkpt lat="33.810313" lon="-118.393867">
  <ele>-0.11</ele>
  <time>2026-09-02T22:12:08Z</time>
  <course>0.0</course>
  <speed>0.0</speed>
  <fix>3d</fix>
</trkpt>
<trkpt lat="33.810313" lon="-118.393867">
  <ele>0.0</ele>
  <time>2026-09-02T22:12:08Z</time>
  <course>183.13</course>
  <speed>0.0</speed>
  <fix>3d</fix>
</trkpt>
<trkpt lat="33.810313" lon="-118.393867">
  <ele>-0.11</ele>
  <time>2026-09-02T22:12:08Z</time>
  <course>0.0</course>
  <speed>0.0</speed>
  <fix>3d</fix>
</trkpt>
<trkpt lat="33.810313" lon="-118.393867">
  <ele>0.0</ele>
  <time>2026-09-02T22:12:08Z</time>
  <course>183.39</course>
  <speed>0.0</speed>
  <fix>3d</fix>
</trkpt>
<trkpt lat="33.810313" lon="-118.393867">
  <ele>-0.11</ele>
  <time>2026-09-02T22:12:08Z</time>
  <course>0.0</course>
  <speed>0.0</speed>
  <fix>3d</fix>
</trkpt>
<trkpt lat="33.810313" lon="-118.393867">
  <ele>0.0</ele>
  <time>2026-09-02T22:12:08Z</time>
  <course>183.63</course>
  <speed>0.0</speed>
  <fix>3d</fix>
</trkpt>
<trkpt lat="33.810313" lon="-118.393867">
  <ele>-0.11</ele>
  <time>2026-09-02T22:12:08Z</time>
  <course>0.0</course>
  <speed>0.0</speed>
  <fix>3d</fix>
</trkpt>
<trkpt lat="33.810313" lon="-118.393867">
  <ele>0.0</ele>
  <time>2026-09-02T22:12:08Z</time>
  <course>183.86</course>
  <speed>0.0</speed>
  <fix>3d</fix>
</trkpt>
<trkpt lat="33.810313" lon="-118.393867">
  <ele>-0.12</ele>
  <time>2026-09-02T22:12:08Z</time>
  <course>0.0</course>
  <speed>0.0</speed>
  <fix>3d</fix>
</trkpt>
<trkpt lat="33.810313" lon="-118.393867">
  <ele>0.0</ele>
  <time>2026-09-02T22:12:08Z</time>
  <course>184.08</course>
  <speed>0.0</speed>
  <fix>3d</fix>
</trkpt>
<trkpt lat="33.810313" lon="-118.393867">
  <ele>-0.12</ele>
  <time>2026-09-02T22:12:08Z</time>
  <course>0.0</course>
  <speed>0.0</speed>
  <fix>3d</fix>
</trkpt>
<trkpt lat="33.810313" lon="-118.393867">
  <ele>0.0</ele>
  <time>2026-09-02T22:12:08Z</time>
  <course>184.3</course>
  <speed>0.0</speed>
  <fix>3d</fix>
</trkpt>
<trkpt lat="33.810313" lon="-118.393867">
  <ele>-0.13</ele>
  <time>2026-09-02T22:12:08Z</time>
  <course>0.0</course>
  <speed>0.0</speed>
  <fix>3d</fix>
</trkpt>
<trkpt lat="33.810313" lon="-118.393867">
  <ele>0.0</ele>
  <time>2026-09-02T22:12:08Z</time>
  <course>184.5</course>
  <speed>0.0</speed>
  <fix>3d</fix>
</trkpt>
<trkpt lat="33.810313" lon="-118.393867">
  <ele>-0.13</ele>
  <time>2026-09-02T22:12:08Z</time>
  <course>0.0</course>
  <speed>0.0</speed>
  <fix>3d</fix>
</trkpt>
<trkpt lat="33.810313" lon="-118.393867">
  <ele>0.0</ele>
  <time>2026-09-02T22:12:08Z</time>
  <course>184.7</course>
  <speed>0.0</speed>
  <fix>3d</fix>
</trkpt>
<trkpt lat="33.810313" lon="-118.393867">
  <ele>-0.13</ele>
  <time>2026-09-02T22:12:08Z</time>
  <course>0.0</course>
  <speed>0.0</speed>
  <fix>3d</fix>
</trkpt>
<trkpt lat="33.810313" lon="-118.393867">
  <ele>0.0</ele>
  <time>2026-09-02T22:12:08Z</time>
  <course>184.89</course>
  <speed>0.0</speed>
  <fix>3d</fix>
</trkpt>
<trkpt lat="33.810313" lon="-118.393867">
  <ele>-0.13</ele>
  <time>2026-09-02T22:12:08Z</time>
  <course>0.0</course>
  <speed>0.0</speed>
  <fix>3d</fix>
</trkpt>
<trkpt lat="33.810313" lon="-118.393867">
  <ele>0.0</ele>
  <time>2026-09-02T22:12:08Z</time>
  <course>185.07</course>
  <speed>0.0</speed>
  <fix>3d</fix>
</trkpt>
<trkpt lat="33.810313" lon="-118.393867">
  <ele>-0.14</ele>
  <time>2026-09-02T22:12:08Z</time>
  <course>0.0</course>
  <speed>0.0</speed>
  <fix>3d</fix>
</trkpt>
<trkpt lat="33.810313" lon="-118.393867">
  <ele>0.0</ele>
  <time>2026-09-02T22:12:08Z</time>
  <course>185.24</course>
  <speed>0.0</speed>
  <fix>3d</fix>
</trkpt>
<trkpt lat="33.810313" lon="-118.393867">
  <ele>-0.14</ele>
  <time>2026-09-02T22:12:08Z</time>
  <course>0.0</course>
  <speed>0.0</speed>
  <fix>3d</fix>
</trkpt>
<trkpt lat="33.810313" lon="-118.393867">
  <ele>0.0</ele>
  <time>2026-09-02T22:12:08Z</time>
  <course>185.41</course>
  <speed>0.0</speed>
  <fix>3d</fix>
</trkpt>
<trkpt lat="33.810313" lon="-118.393867">
  <ele>-0.13</ele>
  <time>2026-09-02T22:12:08Z</time>
  <course>0.0</course>
  <speed>0.0</speed>
  <fix>3d</fix>
</trkpt>
<trkpt lat="33.810313" lon="-118.393867">
  <ele>0.0</ele>
  <time>2026-09-02T22:12:08Z</time>
  <course>185.56</course>
  <speed>0.0</speed>
  <fix>3d</fix>
</trkpt>
<trkpt lat="33.810313" lon="-118.393867">
  <ele>-0.13</ele>
  <time>2026-09-02T22:12:08Z</time>
  <course>0.0</course>
  <speed>0.0</speed>
  <fix>3d</fix>
</trkpt>
<trkpt lat="33.810313" lon="-118.393867">
  <ele>0.0</ele>
  <time>2026-09-02T22:12:08Z</time>
  <course>185.72</course>
  <speed>0.0</speed>
  <fix>3d</fix>
</trkpt>
<trkpt lat="33.810313" lon="-118.393867">
  <ele>-0.13</ele>
  <time>2026-09-02T22:12:08Z</time>
  <course>0.0</course>
  <speed>0.0</speed>
  <fix>3d</fix>
</trkpt>
<trkpt lat="33.810313" lon="-118.393867">
  <ele>0.0</ele>
  <time>2026-09-02T22:12:08Z</time>
  <course>185.86</course>
  <speed>0.0</speed>
  <fix>3d</fix>
</trkpt>
<trkpt lat="33.810313" lon="-118.393867">
  <ele>-0.13</ele>
  <time>2026-09-02T22:12:08Z</time>
  <course>0.0</course>
  <speed>0.0</speed>
  <fix>3d</fix>
</trkpt>
<trkpt lat="33.810313" lon="-118.393867">
  <ele>0.0</ele>
  <time>2026-09-02T22:12:08Z</time>
  <course>186.0</course>
  <speed>0.0</speed>
  <fix>3d</fix>
</trkpt>
<trkpt lat="33.810313" lon="-118.393867">
  <ele>-0.12</ele>
  <time>2026-09-02T22:12:08Z</time>
  <course>0.0</course>
  <speed>0.0</speed>
  <fix>3d</fix>
</trkpt>
<trkpt lat="33.810313" lon="-118.393867">
  <ele>0.0</ele>
  <time>2026-09-02T22:12:08Z</time>
  <course>186.13</course>
  <speed>0.0</speed>
  <fix>3d</fix>
</trkpt>
<trkpt lat="33.810313" lon="-118.393867">
  <ele>-0.12</ele>
  <time>2026-09-02T22:12:08Z</time>
  <course>0.0</course>
  <speed>0.0</speed>
  <fix>3d</fix>
</trkpt>
<trkpt lat="33.810313" lon="-118.393867">
  <ele>0.0</ele>
  <time>2026-09-02T22:12:08Z</time>
  <course>186.26</course>
  <speed>0.0</speed>
  <fix>3d</fix>
</trkpt>
<trkpt lat="33.810313" lon="-118.393867">
  <ele>-0.12</ele>
  <time>2026-09-02T22:12:08Z</time>
  <course>0.0</course>
  <speed>0.0</speed>
  <fix>3d</fix>
</trkpt>
<trkpt lat="33.810313" lon="-118.393867">
  <ele>0.0</ele>
  <time>2026-09-02T22:12:08Z</time>
  <course>186.38</course>
  <speed>0.0</speed>
  <fix>3d</fix>
</trkpt>
<trkpt lat="33.810313" lon="-118.393867">
  <ele>-0.12</ele>
  <time>2026-09-02T22:12:08Z</time>
  <course>0.0</course>
  <speed>0.0</speed>
  <fix>3d</fix>
</trkpt>
<trkpt lat="33.810313" lon="-118.393867">
  <ele>0.0</ele>
  <time>2026-09-02T22:12:08Z</time>
  <course>186.49</course>
  <speed>0.0</speed>
  <fix>3d</fix>
</trkpt>
<trkpt lat="33.810313" lon="-118.393867">
  <ele>-0.12</ele>
  <time>2026-09-02T22:12:08Z</time>
  <course>0.0</course>
  <speed>0.0</speed>
  <fix>3d</fix>
</trkpt>
<trkpt lat="33.810313" lon="-118.393867">
  <ele>0.0</ele>
  <time>2026-09-02T22:12:08Z</time>
  <course>186.6</course>
  <speed>0.0</speed>
  <fix>3d</fix>
</trkpt>
<trkpt lat="33.810313" lon="-118.393867">
  <ele>-0.12</ele>
  <time>2026-09-02T22:12:08Z</time>
  <course>0.0</course>
  <speed>0.0</speed>
  <fix>3d</fix>
</trkpt>
<trkpt lat="33.810313" lon="-118.393867">
  <ele>0.0</ele>
  <time>2026-09-02T22:12:08Z</time>
  <course>186.71</course>
  <speed>0.0</speed>
  <fix>3d</fix>
</trkpt>
<trkpt lat="33.810313" lon="-118.393867">
  <ele>-0.12</ele>
  <time>2026-09-02T22:12:08Z</time>
  <course>0.0</course>
  <speed>0.0</speed>
  <fix>3d</fix>
</trkpt>
<trkpt lat="33.810313" lon="-118.393867">
  <ele>0.0</ele>
  <time>2026-09-02T22:12:08Z</time>
  <course>186.81</course>
  <speed>0.0</speed>
  <fix>3d</fix>
</trkpt>
<trkpt lat="33.810313" lon="-118.393867">
  <ele>-0.12</ele>
  <time>2026-09-02T22:12:08Z</time>
  <course>0.0</course>
  <speed>0.0</speed>
  <fix>3d</fix>
</trkpt>
<trkpt lat="33.810313" lon="-118.393867">
  <ele>0.0</ele>
  <time>2026-09-02T22:12:08Z</time>
  <course>186.9</course>
  <speed>0.0</speed>
  <fix>3d</fix>
</trkpt>
<trkpt lat="33.810313" lon="-118.393867">
  <ele>-0.12</ele>
  <time>2026-09-02T22:12:08Z</time>
  <course>0.0</course>
  <speed>0.0</speed>
  <fix>3d</fix>
</trkpt>
<trkpt lat="33.810313" lon="-118.393867">
  <ele>0.0</ele>
  <time>2026-09-02T22:12:08Z</time>
  <course>187.0</course>
  <speed>0.0</speed>
  <fix>3d</fix>
</trkpt>
<trkpt lat="33.810313" lon="-118.393867">
  <ele>-0.12</ele>
  <time>2026-09-02T22:12:08Z</time>
  <course>0.0</course>
  <speed>0.0</speed>
  <fix>3d</fix>
</trkpt>
<trkpt lat="33.810313" lon="-118.393867">
  <ele>0.0</ele>
  <time>2026-09-02T22:12:08Z</time>
  <course>187.08</course>
  <speed>0.0</speed>
  <fix>3d</fix>
</trkpt>
<trkpt lat="33.810313" lon="-118.393867">
  <ele>-0.13</ele>
  <time>2026-09-02T22:12:08Z</time>
  <course>0.0</course>
  <speed>0.0</speed>
  <fix>3d</fix>
</trkpt>
<trkpt lat="33.810313" lon="-118.393867">
  <ele>0.0</ele>
  <time>2026-09-02T22:12:08Z</time>
  <course>187.17</course>
  <speed>0.0</speed>
  <fix>3d</fix>
</trkpt>
<trkpt lat="33.810313" lon="-118.393867">
  <ele>-0.13</ele>
  <time>2026-09-02T22:12:08Z</time>
  <course>0.0</course>
  <speed>0.0</speed>
  <fix>3d</fix>
</trkpt>
<trkpt lat="33.810313" lon="-118.393867">
  <ele>0.0</ele>
  <time>2026-09-02T22:12:08Z</time>
  <course>187.25</course>
  <speed>0.0</speed>
  <fix>3d</fix>
</trkpt>
<trkpt lat="33.810313" lon="-118.393867">
  <ele>-0.13</ele>
  <time>2026-09-02T22:12:08Z</time>
  <course>0.0</course>
  <speed>0.0</speed>
  <fix>3d</fix>
</trkpt>
<trkpt lat="33.810313" lon="-118.393867">
  <ele>0.0</ele>
  <time>2026-09-02T22:12:08Z</time>
  <course>187.32</course>
  <speed>0.0</speed>
  <fix>3d</fix>
</trkpt>
<trkpt lat="33.810313" lon="-118.393867">
  <ele>-0.13</ele>
  <time>2026-09-02T22:12:08Z</time>
  <course>0.0</course>
  <speed>0.0</speed>
  <fix>3d</fix>
</trkpt>
<trkpt lat="33.810313" lon="-118.393867">
  <ele>0.0</ele>
  <time>2026-09-02T22:12:08Z</time>
  <course>187.39</course>
  <speed>0.0</speed>
  <fix>3d</fix>
</trkpt>
<trkpt lat="33.810313" lon="-118.393867">
  <ele>-0.13</ele>
  <time>2026-09-02T22:12:08Z</time>
  <course>0.0</course>
  <speed>0.0</speed>
  <fix>3d</fix>
</trkpt>
<trkpt lat="33.810313" lon="-118.393867">
  <ele>0.0</ele>
  <time>2026-09-02T22:12:08Z</time>
  <course>187.46</course>
  <speed>0.0</speed>
  <fix>3d</fix>
</trkpt>
<trkpt lat="33.810313" lon="-118.393867">
  <ele>-0.13</ele>
  <time>2026-09-02T22:12:08Z</time>
  <course>0.0</course>
  <speed>0.0</speed>
  <fix>3d</fix>
</trkpt>
<trkpt lat="33.810313" lon="-118.393867">
  <ele>0.0</ele>
  <time>2026-09-02T22:12:08Z</time>
  <course>187.53</course>
  <speed>0.0</speed>
  <fix>3d</fix>
</trkpt>
<trkpt lat="33.810313" lon="-118.393867">
  <ele>-0.13</ele>
  <time>2026-09-02T22:12:08Z</time>
  <course>0.0</course>
  <speed>0.0</speed>
  <fix>3d</fix>
</trkpt>
<trkpt lat="33.810313" lon="-118.393867">
  <ele>0.0</ele>
  <time>2026-09-02T22:12:08Z</time>
  <course>187.59</course>
  <speed>0.0</speed>
  <fix>3d</fix>
</trkpt>
<trkpt lat="33.810313" lon="-118.393867">
  <ele>-0.13</ele>
  <time>2026-09-02T22:12:08Z</time>
  <course>0.0</course>
  <speed>0.0</speed>
  <fix>3d</fix>
</trkpt>
<trkpt lat="33.810313" lon="-118.393867">
  <ele>0.0</ele>
  <time>2026-09-02T22:12:08Z</time>
  <course>187.65</course>
  <speed>0.0</speed>
  <fix>3d</fix>
</trkpt>
<trkpt lat="33.810313" lon="-118.393867">
  <ele>-0.12</ele>
  <time>2026-09-02T22:12:08Z</time>
  <course>0.0</course>
  <speed>0.0</speed>
  <fix>3d</fix>
</trkpt>
<trkpt lat="33.810313" lon="-118.393867">
  <ele>0.0</ele>
  <time>2026-09-02T22:12:08Z</time>
  <course>187.7</course>
  <speed>0.0</speed>
  <fix>3d</fix>
</trkpt>
<trkpt lat="33.810313" lon="-118.393867">
  <ele>-0.12</ele>
  <time>2026-09-02T22:12:08Z</time>
  <course>0.0</course>
  <speed>0.0</speed>
  <fix>3d</fix>
</trkpt>
<trkpt lat="33.810313" lon="-118.393867">
  <ele>0.0</ele>
  <time>2026-09-02T22:12:08Z</time>
  <course>187.76</course>
  <speed>0.0</speed>
  <fix>3d</fix>
</trkpt>
<trkpt lat="33.810313" lon="-118.393867">
  <ele>-0.12</ele>
  <time>2026-09-02T22:12:08Z</time>
  <course>0.0</course>
  <speed>0.0</speed>
  <fix>3d</fix>
</trkpt>
<trkpt lat="33.810313" lon="-118.393867">
  <ele>0.0</ele>
  <time>2026-09-02T22:12:08Z</time>
  <course>187.81</course>
  <speed>0.0</speed>
  <fix>3d</fix>
</trkpt>
<trkpt lat="33.810313" lon="-118.393867">
  <ele>-0.12</ele>
  <time>2026-09-02T22:12:08Z</time>
  <course>0.0</course>
  <speed>0.0</speed>
  <fix>3d</fix>
</trkpt>
<trkpt lat="33.810313" lon="-118.393867">
  <ele>0.0</ele>
  <time>2026-09-02T22:12:08Z</time>
  <course>187.86</course>
  <speed>0.0</speed>
  <fix>3d</fix>
</trkpt>
<trkpt lat="33.810313" lon="-118.393867">
  <ele>-0.12</ele>
  <time>2026-09-02T22:12:08Z</time>
  <course>0.0</course>
  <speed>0.0</speed>
  <fix>3d</fix>
</trkpt>
<trkpt lat="33.810313" lon="-118.393867">
  <ele>0.0</ele>
  <time>2026-09-02T22:12:08Z</time>
  <course>187.9</course>
  <speed>0.0</speed>
  <fix>3d</fix>
</trkpt>
<trkpt lat="33.810313" lon="-118.393867">
  <ele>-0.12</ele>
  <time>2026-09-02T22:12:08Z</time>
  <course>0.0</course>
  <speed>0.0</speed>
  <fix>3d</fix>
</trkpt>
<trkpt lat="33.810313" lon="-118.393867">
  <ele>0.0</ele>
  <time>2026-09-02T22:12:08Z</time>
  <course>187.95</course>
  <speed>0.0</speed>
  <fix>3d</fix>
</trkpt>
<trkpt lat="33.810313" lon="-118.393867">
  <ele>-0.12</ele>
  <time>2026-09-02T22:12:08Z</time>
  <course>0.0</course>
  <speed>0.0</speed>
  <fix>3d</fix>
</trkpt>
<trkpt lat="33.810313" lon="-118.393867">
  <ele>0.0</ele>
  <time>2026-09-02T22:12:08Z</time>
  <course>187.99</course>
  <speed>0.0</speed>
  <fix>3d</fix>
</trkpt>
<trkpt lat="33.810313" lon="-118.393867">
  <ele>-0.12</ele>
  <time>2026-09-02T22:12:08Z</time>
  <course>0.0</course>
  <speed>0.0</speed>
  <fix>3d</fix>
</trkpt>
<trkpt lat="33.810313" lon="-118.393867">
  <ele>0.0</ele>
  <time>2026-09-02T22:12:08Z</time>
  <course>188.03</course>
  <speed>0.0</speed>
  <fix>3d</fix>
</trkpt>
<trkpt lat="33.810313" lon="-118.393867">
  <ele>-0.12</ele>
  <time>2026-09-02T22:12:08Z</time>
  <course>0.0</course>
  <speed>0.0</speed>
  <fix>3d</fix>
</trkpt>
<trkpt lat="33.810313" lon="-118.393867">
  <ele>0.0</ele>
  <time>2026-09-02T22:12:08Z</time>
  <course>188.06</course>
  <speed>0.0</speed>
  <fix>3d</fix>
</trkpt>
<trkpt lat="33.810313" lon="-118.393867">
  <ele>-0.12</ele>
  <time>2026-09-02T22:12:08Z</time>
  <course>0.0</course>
  <speed>0.0</speed>
  <fix>3d</fix>
</trkpt>
<trkpt lat="33.810313" lon="-118.393867">
  <ele>0.0</ele>
  <time>2026-09-02T22:12:08Z</time>
  <course>188.1</course>
  <speed>0.0</speed>
  <fix>3d</fix>
</trkpt>
<trkpt lat="33.810313" lon="-118.393867">
  <ele>-0.13</ele>
  <time>2026-09-02T22:12:08Z</time>
  <course>0.0</course>
  <speed>0.0</speed>
  <fix>3d</fix>
</trkpt>
<trkpt lat="33.810313" lon="-118.393867">
  <ele>0.0</ele>
  <time>2026-09-02T22:12:08Z</time>
  <course>188.13</course>
  <speed>0.0</speed>
  <fix>3d</fix>
</trkpt>
<trkpt lat="33.810313" lon="-118.393867">
  <ele>-0.13</ele>
  <time>2026-09-02T22:12:08Z</time>
  <course>0.0</course>
  <speed>0.0</speed>
  <fix>3d</fix>
</trkpt>
<trkpt lat="33.810313" lon="-118.393867">
  <ele>0.0</ele>
  <time>2026-09-02T22:12:08Z</time>
  <course>188.16</course>
  <speed>0.0</speed>
  <fix>3d</fix>
</trkpt>
<trkpt lat="33.810313" lon="-118.393867">
  <ele>-0.13</ele>
  <time>2026-09-02T22:12:08Z</time>
  <course>0.0</course>
  <speed>0.0</speed>
  <fix>3d</fix>
</trkpt>
<trkpt lat="33.810313" lon="-118.393867">
  <ele>0.0</ele>
  <time>2026-09-02T22:12:08Z</time>
  <course>188.19</course>
  <speed>0.0</speed>
  <fix>3d</fix>
</trkpt>
<trkpt lat="33.810313" lon="-118.393867">
  <ele>-0.13</ele>
  <time>2026-09-02T22:12:08Z</time>
  <course>0.0</course>
  <speed>0.0</speed>
  <fix>3d</fix>
</trkpt>
<trkpt lat="33.810313" lon="-118.393867">
  <ele>0.0</ele>
  <time>2026-09-02T22:12:08Z</time>
  <course>188.22</course>
  <speed>0.0</speed>
  <fix>3d</fix>
</trkpt>
<trkpt lat="33.810313" lon="-118.393867">
  <ele>-0.13</ele>
  <time>2026-09-02T22:12:08Z</time>
  <course>0.0</course>
  <speed>0.0</speed>
  <fix>3d</fix>
</trkpt>
<trkpt lat="33.810313" lon="-118.393867">
  <ele>0.0</ele>
  <time>2026-09-02T22:12:08Z</time>
  <course>188.25</course>
  <speed>0.0</speed>
  <fix>3d</fix>
</trkpt>
<trkpt lat="33.810313" lon="-118.393867">
  <ele>-0.13</ele>
  <time>2026-09-02T22:12:08Z</time>
  <course>0.0</course>
  <speed>0.0</speed>
  <fix>3d</fix>
</trkpt>
<trkpt lat="33.810313" lon="-118.393867">
  <ele>0.0</ele>
  <time>2026-09-02T22:12:08Z</time>
  <course>188.27</course>
  <speed>0.0</speed>
  <fix>3d</fix>
</trkpt>
<trkpt lat="33.810313" lon="-118.393867">
  <ele>-0.12</ele>
  <time>2026-09-02T22:12:08Z</time>
  <course>0.0</course>
  <speed>0.0</speed>
  <fix>3d</fix>
</trkpt>
<trkpt lat="33.810313" lon="-118.393867">
  <ele>0.0</ele>
  <time>2026-09-02T22:12:08Z</time>
  <course>188.29</course>
  <speed>0.0</speed>
  <fix>3d</fix>
</trkpt>
<trkpt lat="33.810313" lon="-118.393867">
  <ele>-0.12</ele>
  <time>2026-09-02T22:12:08Z</time>
  <course>0.0</course>
  <speed>0.0</speed>
  <fix>3d</fix>
</trkpt>
<trkpt lat="33.810313" lon="-118.393867">
  <ele>0.0</ele>
  <time>2026-09-02T22:12:08Z</time>
  <course>188.32</course>
  <speed>0.0</speed>
  <fix>3d</fix>
</trkpt>
<trkpt lat="33.810313" lon="-118.393867">
  <ele>-0.12</ele>
  <time>2026-09-02T22:12:08Z</time>
  <course>0.0</course>
  <speed>0.0</speed>
  <fix>3d</fix>
</trkpt>
<trkpt lat="33.810313" lon="-118.393867">
  <ele>0.0</ele>
  <time>2026-09-02T22:12:08Z</time>
  <course>188.34</course>
  <speed>0.0</speed>
  <fix>3d</fix>
</trkpt>
<trkpt lat="33.810313" lon="-118.393867">
  <ele>-0.12</ele>
  <time>2026-09-02T22:12:08Z</time>
  <course>0.0</course>
  <speed>0.0</speed>
  <fix>3d</fix>
</trkpt>
<trkpt lat="33.810313" lon="-118.393867">
  <ele>0.0</ele>
  <time>2026-09-02T22:12:08Z</time>
  <course>188.36</course>
  <speed>0.0</speed>
  <fix>3d</fix>
</trkpt>
<trkpt lat="33.810313" lon="-118.393867">
  <ele>-0.12</ele>
  <time>2026-09-02T22:12:08Z</time>
  <course>0.0</course>
  <speed>0.0</speed>
  <fix>3d</fix>
</trkpt>
<trkpt lat="33.810313" lon="-118.393867">
  <ele>0.0</ele>
  <time>2026-09-02T22:12:08Z</time>
  <course>188.38</course>
  <speed>0.0</speed>
  <fix>3d</fix>
</trkpt>
<trkpt lat="33.810313" lon="-118.393867">
  <ele>-0.12</ele>
  <time>2026-09-02T22:12:08Z</time>
  <course>0.0</course>
  <speed>0.0</speed>
  <fix>3d</fix>
</trkpt>
<trkpt lat="33.810313" lon="-118.393867">
  <ele>0.0</ele>
  <time>2026-09-02T22:12:08Z</time>
  <course>188.39</course>
  <speed>0.0</speed>
  <fix>3d</fix>
</trkpt>
<trkpt lat="33.810313" lon="-118.393867">
  <ele>-0.12</ele>
  <time>2026-09-02T22:12:08Z</time>
  <course>0.0</course>
  <speed>0.0</speed>
  <fix>3d</fix>
</trkpt>
<trkpt lat="33.810313" lon="-118.393867">
  <ele>0.0</ele>
  <time>2026-09-02T22:12:08Z</time>
  <course>188.41</course>
  <speed>0.0</speed>
  <fix>3d</fix>
</trkpt>
<trkpt lat="33.810313" lon="-118.393867">
  <ele>-0.12</ele>
  <time>2026-09-02T22:12:08Z</time>
  <course>0.0</course>
  <speed>0.0</speed>
  <fix>3d</fix>
</trkpt>
<trkpt lat="33.810313" lon="-118.393867">
  <ele>0.0</ele>
  <time>2026-09-02T22:12:08Z</time>
  <course>188.42</course>
  <speed>0.0</speed>
  <fix>3d</fix>
</trkpt>
<trkpt lat="33.810313" lon="-118.393867">
  <ele>-0.12</ele>
  <time>2026-09-02T22:12:08Z</time>
  <course>0.0</course>
  <speed>0.0</speed>
  <fix>3d</fix>
</trkpt>
<trkpt lat="33.810313" lon="-118.393867">
  <ele>0.0</ele>
  <time>2026-09-02T22:12:08Z</time>
  <course>188.44</course>
  <speed>0.0</speed>
  <fix>3d</fix>
</trkpt>
<trkpt lat="33.810313" lon="-118.393867">
  <ele>-0.12</ele>
  <time>2026-09-02T22:12:08Z</time>
  <course>0.0</course>
  <speed>0.0</speed>
  <fix>3d</fix>
</trkpt>
<trkpt lat="33.810313" lon="-118.393867">
  <ele>0.0</ele>
  <time>2026-09-02T22:12:08Z</time>
  <course>188.45</course>
  <speed>0.0</speed>
  <fix>3d</fix>
</trkpt>
<trkpt lat="33.810313" lon="-118.393867">
  <ele>-0.13</ele>
  <time>2026-09-02T22:12:08Z</time>
  <course>0.0</course>
  <speed>0.0</speed>
  <fix>3d</fix>
</trkpt>
<trkpt lat="33.810313" lon="-118.393867">
  <ele>0.0</ele>
  <time>2026-09-02T22:12:08Z</time>
  <course>188.46</course>
  <speed>0.0</speed>
  <fix>3d</fix>
</trkpt>
<trkpt lat="33.810313" lon="-118.393867">
  <ele>-0.13</ele>
  <time>2026-09-02T22:12:08Z</time>
  <course>0.0</course>
  <speed>0.0</speed>
  <fix>3d</fix>
</trkpt>
<trkpt lat="33.810313" lon="-118.393867">
  <ele>0.0</ele>
  <time>2026-09-02T22:12:08Z</time>
  <course>188.47</course>
  <speed>0.0</speed>
  <fix>3d</fix>
</trkpt>
<trkpt lat="33.810313" lon="-118.393867">
  <ele>-0.13</ele>
  <time>2026-09-02T22:12:08Z</time>
  <course>0.0</course>
  <speed>0.0</speed>
  <fix>3d</fix>
</trkpt>
<trkpt lat="33.810313" lon="-118.393867">
  <ele>0.0</ele>
  <time>2026-09-02T22:12:08Z</time>
  <course>188.48</course>
  <speed>0.0</speed>
  <fix>3d</fix>
</trkpt>
<trkpt lat="33.810313" lon="-118.393867">
  <ele>-0.13</ele>
  <time>2026-09-02T22:12:08Z</time>
  <course>0.0</course>
  <speed>0.0</speed>
  <fix>3d</fix>
</trkpt>
<trkpt lat="33.810313" lon="-118.393867">
  <ele>0.0</ele>
  <time>2026-09-02T22:12:08Z</time>
  <course>188.49</course>
  <speed>0.0</speed>
  <fix>3d</fix>
</trkpt>
<trkpt lat="33.810313" lon="-118.393867">
  <ele>-0.13</ele>
  <time>2026-09-02T22:12:08Z</time>
  <course>0.0</course>
  <speed>0.0</speed>
  <fix>3d</fix>
</trkpt>
<trkpt lat="33.810313" lon="-118.393867">
  <ele>0.0</ele>
  <time>2026-09-02T22:12:08Z</time>
  <course>188.5</course>
  <speed>0.0</speed>
  <fix>3d</fix>
</trkpt>
<trkpt lat="33.810313" lon="-118.393867">
  <ele>-0.13</ele>
  <time>2026-09-02T22:12:08Z</time>
  <course>0.0</course>
  <speed>0.0</speed>
  <fix>3d</fix>
</trkpt>
<trkpt lat="33.4368002" lon="-117.0859339">
  <ele>-0.11</ele>
  <time>2026-09-02T22:12:09Z</time>
  <course>0.0</course>
  <speed>0.0</speed>
  <fix>3d</fix>
</trkpt>
<trkpt lat="33.4368002" lon="-117.0859339">
  <ele>-0.11</ele>
  <time>2026-09-02T22:12:09Z</time>
  <course>0.0</course>
  <speed>0.0</speed>
  <fix>3d</fix>
</trkpt>
<trkpt lat="33.810313" lon="-118.393867">
  <ele>0.0</ele>
  <time>2026-09-02T22:12:09Z</time>
  <course>173.5</course>
  <speed>0.0</speed>
  <fix>3d</fix>
</trkpt>
<trkpt lat="33.810313" lon="-118.393867">
  <ele>-0.11</ele>
  <time>2026-09-02T22:12:09Z</time>
  <course>0.0</course>
  <speed>0.0</speed>
  <fix>3d</fix>
</trkpt>
<trkpt lat="33.810313" lon="-118.393867">
  <ele>0.0</ele>
  <time>2026-09-02T22:12:09Z</time>
  <course>173.61</course>
  <speed>0.0</speed>
  <fix>3d</fix>
</trkpt>
<trkpt lat="33.810313" lon="-118.393867">
  <ele>-0.11</ele>
  <time>2026-09-02T22:12:09Z</time>
  <course>0.0</course>
  <speed>0.0</speed>
  <fix>3d</fix>
</trkpt>
<trkpt lat="33.810313" lon="-118.393867">
  <ele>0.0</ele>
  <time>2026-09-02T22:12:09Z</time>
  <course>173.98</course>
  <speed>0.0</speed>
  <fix>3d</fix>
</trkpt>
<trkpt lat="33.810313" lon="-118.393867">
  <ele>-0.11</ele>
  <time>2026-09-02T22:12:09Z</time>
  <course>0.0</course>
  <speed>0.0</speed>
  <fix>3d</fix>
</trkpt>
<trkpt lat="33.810313" lon="-118.393867">
  <ele>0.0</ele>
  <time>2026-09-02T22:12:09Z</time>
  <course>174.51</course>
  <speed>0.0</speed>
  <fix>3d</fix>
</trkpt>
<trkpt lat="33.810313" lon="-118.393867">
  <ele>-0.11</ele>
  <time>2026-09-02T22:12:09Z</time>
  <course>0.0</course>
  <speed>0.0</speed>
  <fix>3d</fix>
</trkpt>
<trkpt lat="33.810313" lon="-118.393867">
  <ele>0.0</ele>
  <time>2026-09-02T22:12:09Z</time>
  <course>175.07</course>
  <speed>0.0</speed>
  <fix>3d</fix>
</trkpt>
<trkpt lat="33.810313" lon="-118.393867">
  <ele>-0.12</ele>
  <time>2026-09-02T22:12:09Z</time>
  <course>0.0</course>
  <speed>0.0</speed>
  <fix>3d</fix>
</trkpt>
<trkpt lat="33.810313" lon="-118.393867">
  <ele>0.0</ele>
  <time>2026-09-02T22:12:09Z</time>
  <course>175.61</course>
  <speed>0.0</speed>
  <fix>3d</fix>
</trkpt>
<trkpt lat="33.810313" lon="-118.393867">
  <ele>-0.12</ele>
  <time>2026-09-02T22:12:09Z</time>
  <course>0.0</course>
  <speed>0.0</speed>
  <fix>3d</fix>
</trkpt>
<trkpt lat="33.810313" lon="-118.393867">
  <ele>0.0</ele>
  <time>2026-09-02T22:12:09Z</time>
  <course>176.12</course>
  <speed>0.0</speed>
  <fix>3d</fix>
</trkpt>
<trkpt lat="33.810313" lon="-118.393867">
  <ele>-0.13</ele>
  <time>2026-09-02T22:12:09Z</time>
  <course>0.0</course>
  <speed>0.0</speed>
  <fix>3d</fix>
</trkpt>
<trkpt lat="33.810313" lon="-118.393867">
  <ele>0.0</ele>
  <time>2026-09-02T22:12:09Z</time>
  <course>176.6</course>
  <speed>0.0</speed>
  <fix>3d</fix>
</trkpt>
<trkpt lat="33.810313" lon="-118.393867">
  <ele>-0.13</ele>
  <time>2026-09-02T22:12:09Z</time>
  <course>0.0</course>
  <speed>0.0</speed>
  <fix>3d</fix>
</trkpt>
<trkpt lat="33.810313" lon="-118.393867">
  <ele>0.0</ele>
  <time>2026-09-02T22:12:09Z</time>
  <course>177.07</course>
  <speed>0.0</speed>
  <fix>3d</fix>
</trkpt>
<trkpt lat="33.810313" lon="-118.393867">
  <ele>-0.13</ele>
  <time>2026-09-02T22:12:09Z</time>
  <course>0.0</course>
  <speed>0.0</speed>
  <fix>3d</fix>
</trkpt>
<trkpt lat="33.810313" lon="-118.393867">
  <ele>0.0</ele>
  <time>2026-09-02T22:12:09Z</time>
  <course>177.53</course>
  <speed>0.0</speed>
  <fix>3d</fix>
</trkpt>
<trkpt lat="33.810313" lon="-118.393867">
  <ele>-0.13</ele>
  <time>2026-09-02T22:12:09Z</time>
  <course>0.0</course>
  <speed>0.0</speed>
  <fix>3d</fix>
</trkpt>
<trkpt lat="33.810313" lon="-118.393867">
  <ele>0.0</ele>
  <time>2026-09-02T22:12:09Z</time>
  <course>177.97</course>
  <speed>0.0</speed>
  <fix>3d</fix>
</trkpt>
<trkpt lat="33.810313" lon="-118.393867">
  <ele>-0.14</ele>
  <time>2026-09-02T22:12:09Z</time>
  <course>0.0</course>
  <speed>0.0</speed>
  <fix>3d</fix>
</trkpt>
<trkpt lat="33.810313" lon="-118.393867">
  <ele>0.0</ele>
  <time>2026-09-02T22:12:09Z</time>
  <course>178.4</course>
  <speed>0.0</speed>
  <fix>3d</fix>
</trkpt>
<trkpt lat="33.810313" lon="-118.393867">
  <ele>-0.14</ele>
  <time>2026-09-02T22:12:09Z</time>
  <course>0.0</course>
  <speed>0.0</speed>
  <fix>3d</fix>
</trkpt>
<trkpt lat="33.810313" lon="-118.393867">
  <ele>0.0</ele>
  <time>2026-09-02T22:12:09Z</time>
  <course>178.83</course>
  <speed>0.0</speed>
  <fix>3d</fix>
</trkpt>
<trkpt lat="33.810313" lon="-118.393867">
  <ele>-0.14</ele>
  <time>2026-09-02T22:12:09Z</time>
  <course>0.0</course>
  <speed>0.0</speed>
  <fix>3d</fix>
</trkpt>
<trkpt lat="33.810313" lon="-118.393867">
  <ele>0.0</ele>
  <time>2026-09-02T22:12:09Z</time>
  <course>179.23</course>
  <speed>0.0</speed>
  <fix>3d</fix>
</trkpt>
<trkpt lat="33.810313" lon="-118.393867">
  <ele>-0.14</ele>
  <time>2026-09-02T22:12:09Z</time>
  <course>0.0</course>
  <speed>0.0</speed>
  <fix>3d</fix>
</trkpt>
<trkpt lat="33.810313" lon="-118.393867">
  <ele>0.0</ele>
  <time>2026-09-02T22:12:09Z</time>
  <course>179.62</course>
  <speed>0.0</speed>
  <fix>3d</fix>
</trkpt>
<trkpt lat="33.810313" lon="-118.393867">
  <ele>-0.14</ele>
  <time>2026-09-02T22:12:09Z</time>
  <course>0.0</course>
  <speed>0.0</speed>
  <fix>3d</fix>
</trkpt>
<trkpt lat="33.810313" lon="-118.393867">
  <ele>0.0</ele>
  <time>2026-09-02T22:12:09Z</time>
  <course>180.01</course>
  <speed>0.0</speed>
  <fix>3d</fix>
</trkpt>
<trkpt lat="33.810313" lon="-118.393867">
  <ele>-0.14</ele>
  <time>2026-09-02T22:12:09Z</time>
  <course>0.0</course>
  <speed>0.0</speed>
  <fix>3d</fix>
</trkpt>
<trkpt lat="33.810313" lon="-118.393867">
  <ele>0.0</ele>
  <time>2026-09-02T22:12:09Z</time>
  <course>180.37</course>
  <speed>0.0</speed>
  <fix>3d</fix>
</trkpt>
<trkpt lat="33.810313" lon="-118.393867">
  <ele>-0.14</ele>
  <time>2026-09-02T22:12:09Z</time>
  <course>0.0</course>
  <speed>0.0</speed>
  <fix>3d</fix>
</trkpt>
<trkpt lat="33.810313" lon="-118.393867">
  <ele>0.0</ele>
  <time>2026-09-02T22:12:09Z</time>
  <course>180.73</course>
  <speed>0.0</speed>
  <fix>3d</fix>
</trkpt>
<trkpt lat="33.810313" lon="-118.393867">
  <ele>-0.14</ele>
  <time>2026-09-02T22:12:09Z</time>
  <course>0.0</course>
  <speed>0.0</speed>
  <fix>3d</fix>
</trkpt>
<trkpt lat="33.810313" lon="-118.393867">
  <ele>0.0</ele>
  <time>2026-09-02T22:12:09Z</time>
  <course>181.07</course>
  <speed>0.0</speed>
  <fix>3d</fix>
</trkpt>
<trkpt lat="33.810313" lon="-118.393867">
  <ele>-0.13</ele>
  <time>2026-09-02T22:12:09Z</time>
  <course>0.0</course>
  <speed>0.0</speed>
  <fix>3d</fix>
</trkpt>
<trkpt lat="33.810313" lon="-118.393867">
  <ele>0.0</ele>
  <time>2026-09-02T22:12:09Z</time>
  <course>181.4</course>
  <speed>0.0</speed>
  <fix>3d</fix>
</trkpt>
<trkpt lat="33.810313" lon="-118.393867">
  <ele>-0.13</ele>
  <time>2026-09-02T22:12:09Z</time>
  <course>0.0</course>
  <speed>0.0</speed>
  <fix>3d</fix>
</trkpt>
<trkpt lat="33.810313" lon="-118.393867">
  <ele>0.0</ele>
  <time>2026-09-02T22:12:09Z</time>
  <course>181.72</course>
  <speed>0.0</speed>
  <fix>3d</fix>
</trkpt>
<trkpt lat="33.810313" lon="-118.393867">
  <ele>-0.12</ele>
  <time>2026-09-02T22:12:09Z</time>
  <course>0.0</course>
  <speed>0.0</speed>
  <fix>3d</fix>
</trkpt>
<trkpt lat="33.810313" lon="-118.393867">
  <ele>0.0</ele>
  <time>2026-09-02T22:12:09Z</time>
  <course>182.02</course>
  <speed>0.0</speed>
  <fix>3d</fix>
</trkpt>
<trkpt lat="33.810313" lon="-118.393867">
  <ele>-0.12</ele>
  <time>2026-09-02T22:12:09Z</time>
  <course>0.0</course>
  <speed>0.0</speed>
  <fix>3d</fix>
</trkpt>
<trkpt lat="33.810313" lon="-118.393867">
  <ele>0.0</ele>
  <time>2026-09-02T22:12:09Z</time>
  <course>182.32</course>
  <speed>0.0</speed>
  <fix>3d</fix>
</trkpt>
<trkpt lat="33.810313" lon="-118.393867">
  <ele>-0.12</ele>
  <time>2026-09-02T22:12:09Z</time>
  <course>0.0</course>
  <speed>0.0</speed>
  <fix>3d</fix>
</trkpt>
<trkpt lat="33.810313" lon="-118.393867">
  <ele>0.0</ele>
  <time>2026-09-02T22:12:09Z</time>
  <course>182.6</course>
  <speed>0.0</speed>
  <fix>3d</fix>
</trkpt>
<trkpt lat="33.810313" lon="-118.393867">
  <ele>-0.12</ele>
  <time>2026-09-02T22:12:09Z</time>
  <course>0.0</course>
  <speed>0.0</speed>
  <fix>3d</fix>
</trkpt>
<trkpt lat="33.810313" lon="-118.393867">
  <ele>0.0</ele>
  <time>2026-09-02T22:12:09Z</time>
  <course>182.87</course>
  <speed>0.0</speed>
  <fix>3d</fix>
</trkpt>
<trkpt lat="33.810313" lon="-118.393867">
  <ele>-0.11</ele>
  <time>2026-09-02T22:12:09Z</time>
  <course>0.0</course>
  <speed>0.0</speed>
  <fix>3d</fix>
</trkpt>
<trkpt lat="33.810313" lon="-118.393867">
  <ele>0.0</ele>
  <time>2026-09-02T22:12:09Z</time>
  <course>183.14</course>
  <speed>0.0</speed>
  <fix>3d</fix>
</trkpt>
<trkpt lat="33.810313" lon="-118.393867">
  <ele>-0.11</ele>
  <time>2026-09-02T22:12:09Z</time>
  <course>0.0</course>
  <speed>0.0</speed>
  <fix>3d</fix>
</trkpt>
<trkpt lat="33.810313" lon="-118.393867">
  <ele>0.0</ele>
  <time>2026-09-02T22:12:09Z</time>
  <course>183.39</course>
  <speed>0.0</speed>
  <fix>3d</fix>
</trkpt>
<trkpt lat="33.810313" lon="-118.393867">
  <ele>-0.11</ele>
  <time>2026-09-02T22:12:09Z</time>
  <course>0.0</course>
  <speed>0.0</speed>
  <fix>3d</fix>
</trkpt>
<trkpt lat="33.810313" lon="-118.393867">
  <ele>0.0</ele>
  <time>2026-09-02T22:12:09Z</time>
  <course>183.63</course>
  <speed>0.0</speed>
  <fix>3d</fix>
</trkpt>
<trkpt lat="33.810313" lon="-118.393867">
  <ele>-0.11</ele>
  <time>2026-09-02T22:12:09Z</time>
  <course>0.0</course>
  <speed>0.0</speed>
  <fix>3d</fix>
</trkpt>
<trkpt lat="33.810313" lon="-118.393867">
  <ele>0.0</ele>
  <time>2026-09-02T22:12:09Z</time>
  <course>183.86</course>
  <speed>0.0</speed>
  <fix>3d</fix>
</trkpt>
<trkpt lat="33.810313" lon="-118.393867">
  <ele>-0.12</ele>
  <time>2026-09-02T22:12:09Z</time>
  <course>0.0</course>
  <speed>0.0</speed>
  <fix>3d</fix>
</trkpt>
<trkpt lat="33.810313" lon="-118.393867">
  <ele>0.0</ele>
  <time>2026-09-02T22:12:10Z</time>
  <course>184.08</course>
  <speed>0.0</speed>
  <fix>3d</fix>
</trkpt>
<trkpt lat="33.810313" lon="-118.393867">
  <ele>-0.12</ele>
  <time>2026-09-02T22:12:10Z</time>
  <course>0.0</course>
  <speed>0.0</speed>
  <fix>3d</fix>
</trkpt>
<trkpt lat="33.810313" lon="-118.393867">
  <ele>0.0</ele>
  <time>2026-09-02T22:12:10Z</time>
  <course>184.3</course>
  <speed>0.0</speed>
  <fix>3d</fix>
</trkpt>
<trkpt lat="33.810313" lon="-118.393867">
  <ele>-0.13</ele>
  <time>2026-09-02T22:12:10Z</time>
  <course>0.0</course>
  <speed>0.0</speed>
  <fix>3d</fix>
</trkpt>
<trkpt lat="33.810313" lon="-118.393867">
  <ele>0.0</ele>
  <time>2026-09-02T22:12:10Z</time>
  <course>184.5</course>
  <speed>0.0</speed>
  <fix>3d</fix>
</trkpt>
<trkpt lat="33.810313" lon="-118.393867">
  <ele>-0.13</ele>
  <time>2026-09-02T22:12:10Z</time>
  <course>0.0</course>
  <speed>0.0</speed>
  <fix>3d</fix>
</trkpt>
<trkpt lat="33.810313" lon="-118.393867">
  <ele>0.0</ele>
  <time>2026-09-02T22:12:10Z</time>
  <course>184.7</course>
  <speed>0.0</speed>
  <fix>3d</fix>
</trkpt>
<trkpt lat="33.810313" lon="-118.393867">
  <ele>-0.13</ele>
  <time>2026-09-02T22:12:10Z</time>
  <course>0.0</course>
  <speed>0.0</speed>
  <fix>3d</fix>
</trkpt>
<trkpt lat="33.810313" lon="-118.393867">
  <ele>0.0</ele>
  <time>2026-09-02T22:12:10Z</time>
  <course>184.89</course>
  <speed>0.0</speed>
  <fix>3d</fix>
</trkpt>
<trkpt lat="33.810313" lon="-118.393867">
  <ele>-0.13</ele>
  <time>2026-09-02T22:12:10Z</time>
  <course>0.0</course>
  <speed>0.0</speed>
  <fix>3d</fix>
</trkpt>
<trkpt lat="33.810313" lon="-118.393867">
  <ele>0.0</ele>
  <time>2026-09-02T22:12:10Z</time>
  <course>185.07</course>
  <speed>0.0</speed>
  <fix>3d</fix>
</trkpt>
<trkpt lat="33.810313" lon="-118.393867">
  <ele>-0.14</ele>
  <time>2026-09-02T22:12:10Z</time>
  <course>0.0</course>
  <speed>0.0</speed>
  <fix>3d</fix>
</trkpt>
<trkpt lat="33.810313" lon="-118.393867">
  <ele>0.0</ele>
  <time>2026-09-02T22:12:10Z</time>
  <course>185.24</course>
  <speed>0.0</speed>
  <fix>3d</fix>
</trkpt>
<trkpt lat="33.810313" lon="-118.393867">
  <ele>-0.14</ele>
  <time>2026-09-02T22:12:10Z</time>
  <course>0.0</course>
  <speed>0.0</speed>
  <fix>3d</fix>
</trkpt>
<trkpt lat="33.810313" lon="-118.393867">
  <ele>0.0</ele>
  <time>2026-09-02T22:12:10Z</time>
  <course>185.41</course>
  <speed>0.0</speed>
  <fix>3d</fix>
</trkpt>
<trkpt lat="33.810313" lon="-118.393867">
  <ele>-0.13</ele>
  <time>2026-09-02T22:12:10Z</time>
  <course>0.0</course>
  <speed>0.0</speed>
  <fix>3d</fix>
</trkpt>
<trkpt lat="33.810313" lon="-118.393867">
  <ele>0.0</ele>
  <time>2026-09-02T22:12:10Z</time>
  <course>185.56</course>
  <speed>0.0</speed>
  <fix>3d</fix>
</trkpt>
<trkpt lat="33.810313" lon="-118.393867">
  <ele>-0.13</ele>
  <time>2026-09-02T22:12:10Z</time>
  <course>0.0</course>
  <speed>0.0</speed>
  <fix>3d</fix>
</trkpt>
<trkpt lat="33.810313" lon="-118.393867">
  <ele>0.0</ele>
  <time>2026-09-02T22:12:10Z</time>
  <course>185.72</course>
  <speed>0.0</speed>
  <fix>3d</fix>
</trkpt>
<trkpt lat="33.810313" lon="-118.393867">
  <ele>-0.13</ele>
  <time>2026-09-02T22:12:10Z</time>
  <course>0.0</course>
  <speed>0.0</speed>
  <fix>3d</fix>
</trkpt>
<trkpt lat="33.810313" lon="-118.393867">
  <ele>0.0</ele>
  <time>2026-09-02T22:12:10Z</time>
  <course>185.86</course>
  <speed>0.0</speed>
  <fix>3d</fix>
</trkpt>
<trkpt lat="33.810313" lon="-118.393867">
  <ele>-0.13</ele>
  <time>2026-09-02T22:12:10Z</time>
  <course>0.0</course>
  <speed>0.0</speed>
  <fix>3d</fix>
</trkpt>
<trkpt lat="33.810313" lon="-118.393867">
  <ele>0.0</ele>
  <time>2026-09-02T22:12:10Z</time>
  <course>186.0</course>
  <speed>0.0</speed>
  <fix>3d</fix>
</trkpt>
<trkpt lat="33.810313" lon="-118.393867">
  <ele>-0.12</ele>
  <time>2026-09-02T22:12:10Z</time>
  <course>0.0</course>
  <speed>0.0</speed>
  <fix>3d</fix>
</trkpt>
<trkpt lat="33.810313" lon="-118.393867">
  <ele>0.0</ele>
  <time>2026-09-02T22:12:10Z</time>
  <course>186.13</course>
  <speed>0.0</speed>
  <fix>3d</fix>
</trkpt>
<trkpt lat="33.810313" lon="-118.393867">
  <ele>-0.12</ele>
  <time>2026-09-02T22:12:10Z</time>
  <course>0.0</course>
  <speed>0.0</speed>
  <fix>3d</fix>
</trkpt>
<trkpt lat="33.810313" lon="-118.393867">
  <ele>0.0</ele>
  <time>2026-09-02T22:12:10Z</time>
  <course>186.26</course>
  <speed>0.0</speed>
  <fix>3d</fix>
</trkpt>
<trkpt lat="33.810313" lon="-118.393867">
  <ele>-0.12</ele>
  <time>2026-09-02T22:12:10Z</time>
  <course>0.0</course>
  <speed>0.0</speed>
  <fix>3d</fix>
</trkpt>
<trkpt lat="33.810313" lon="-118.393867">
  <ele>0.0</ele>
  <time>2026-09-02T22:12:10Z</time>
  <course>186.38</course>
  <speed>0.0</speed>
  <fix>3d</fix>
</trkpt>
<trkpt lat="33.810313" lon="-118.393867">
  <ele>-0.12</ele>
  <time>2026-09-02T22:12:10Z</time>
  <course>0.0</course>
  <speed>0.0</speed>
  <fix>3d</fix>
</trkpt>
<trkpt lat="33.810313" lon="-118.393867">
  <ele>0.0</ele>
  <time>2026-09-02T22:12:10Z</time>
  <course>186.49</course>
  <speed>0.0</speed>
  <fix>3d</fix>
</trkpt>
<trkpt lat="33.810313" lon="-118.393867">
  <ele>-0.12</ele>
  <time>2026-09-02T22:12:10Z</time>
  <course>0.0</course>
  <speed>0.0</speed>
  <fix>3d</fix>
</trkpt>
<trkpt lat="33.810313" lon="-118.393867">
  <ele>0.0</ele>
  <time>2026-09-02T22:12:10Z</time>
  <course>186.6</course>
  <speed>0.0</speed>
  <fix>3d</fix>
</trkpt>
<trkpt lat="33.810313" lon="-118.393867">
  <ele>-0.12</ele>
  <time>2026-09-02T22:12:10Z</time>
  <course>0.0</course>
  <speed>0.0</speed>
  <fix>3d</fix>
</trkpt>
<trkpt lat="33.810313" lon="-118.393867">
  <ele>0.0</ele>
  <time>2026-09-02T22:12:10Z</time>
  <course>186.71</course>
  <speed>0.0</speed>
  <fix>3d</fix>
</trkpt>
<trkpt lat="33.810313" lon="-118.393867">
  <ele>-0.12</ele>
  <time>2026-09-02T22:12:10Z</time>
  <course>0.0</course>
  <speed>0.0</speed>
  <fix>3d</fix>
</trkpt>
<trkpt lat="33.810313" lon="-118.393867">
  <ele>0.0</ele>
  <time>2026-09-02T22:12:10Z</time>
  <course>186.81</course>
  <speed>0.0</speed>
  <fix>3d</fix>
</trkpt>
<trkpt lat="33.810313" lon="-118.393867">
  <ele>-0.12</ele>
  <time>2026-09-02T22:12:10Z</time>
  <course>0.0</course>
  <speed>0.0</speed>
  <fix>3d</fix>
</trkpt>
<trkpt lat="33.810313" lon="-118.393867">
  <ele>0.0</ele>
  <time>2026-09-02T22:12:10Z</time>
  <course>186.9</course>
  <speed>0.0</speed>
  <fix>3d</fix>
</trkpt>
<trkpt lat="33.810313" lon="-118.393867">
  <ele>-0.12</ele>
  <time>2026-09-02T22:12:10Z</time>
  <course>0.0</course>
  <speed>0.0</speed>
  <fix>3d</fix>
</trkpt>
<trkpt lat="33.810313" lon="-118.393867">
  <ele>0.0</ele>
  <time>2026-09-02T22:12:10Z</time>
  <course>187.0</course>
  <speed>0.0</speed>
  <fix>3d</fix>
</trkpt>
<trkpt lat="33.810313" lon="-118.393867">
  <ele>-0.12</ele>
  <time>2026-09-02T22:12:10Z</time>
  <course>0.0</course>
  <speed>0.0</speed>
  <fix>3d</fix>
</trkpt>
<trkpt lat="33.810313" lon="-118.393867">
  <ele>0.0</ele>
  <time>2026-09-02T22:12:10Z</time>
  <course>187.08</course>
  <speed>0.0</speed>
  <fix>3d</fix>
</trkpt>
<trkpt lat="33.810313" lon="-118.393867">
  <ele>-0.13</ele>
  <time>2026-09-02T22:12:10Z</time>
  <course>0.0</course>
  <speed>0.0</speed>
  <fix>3d</fix>
</trkpt>
<trkpt lat="33.810313" lon="-118.393867">
  <ele>0.0</ele>
  <time>2026-09-02T22:12:10Z</time>
  <course>187.17</course>
  <speed>0.0</speed>
  <fix>3d</fix>
</trkpt>
<trkpt lat="33.810313" lon="-118.393867">
  <ele>-0.13</ele>
  <time>2026-09-02T22:12:10Z</time>
  <course>0.0</course>
  <speed>0.0</speed>
  <fix>3d</fix>
</trkpt>
<trkpt lat="33.810313" lon="-118.393867">
  <ele>0.0</ele>
  <time>2026-09-02T22:12:10Z</time>
  <course>187.24</course>
  <speed>0.0</speed>
  <fix>3d</fix>
</trkpt>
<trkpt lat="33.810313" lon="-118.393867">
  <ele>-0.13</ele>
  <time>2026-09-02T22:12:10Z</time>
  <course>0.0</course>
  <speed>0.0</speed>
  <fix>3d</fix>
</trkpt>
<trkpt lat="33.810313" lon="-118.393867">
  <ele>0.0</ele>
  <time>2026-09-02T22:12:10Z</time>
  <course>187.32</course>
  <speed>0.0</speed>
  <fix>3d</fix>
</trkpt>
<trkpt lat="33.810313" lon="-118.393867">
  <ele>-0.13</ele>
  <time>2026-09-02T22:12:10Z</time>
  <course>0.0</course>
  <speed>0.0</speed>
  <fix>3d</fix>
</trkpt>
<trkpt lat="33.810313" lon="-118.393867">
  <ele>0.0</ele>
  <time>2026-09-02T22:12:10Z</time>
  <course>187.39</course>
  <speed>0.0</speed>
  <fix>3d</fix>
</trkpt>
<trkpt lat="33.810313" lon="-118.393867">
  <ele>-0.13</ele>
  <time>2026-09-02T22:12:10Z</time>
  <course>0.0</course>
  <speed>0.0</speed>
  <fix>3d</fix>
</trkpt>
<trkpt lat="33.810313" lon="-118.393867">
  <ele>0.0</ele>
  <time>2026-09-02T22:12:10Z</time>
  <course>187.46</course>
  <speed>0.0</speed>
  <fix>3d</fix>
</trkpt>
<trkpt lat="33.810313" lon="-118.393867">
  <ele>-0.13</ele>
  <time>2026-09-02T22:12:10Z</time>
  <course>0.0</course>
  <speed>0.0</speed>
  <fix>3d</fix>
</trkpt>
<trkpt lat="33.810313" lon="-118.393867">
  <ele>0.0</ele>
  <time>2026-09-02T22:12:10Z</time>
  <course>187.53</course>
  <speed>0.0</speed>
  <fix>3d</fix>
</trkpt>
<trkpt lat="33.810313" lon="-118.393867">
  <ele>-0.13</ele>
  <time>2026-09-02T22:12:10Z</time>
  <course>0.0</course>
  <speed>0.0</speed>
  <fix>3d</fix>
</trkpt>
<trkpt lat="33.810313" lon="-118.393867">
  <ele>0.0</ele>
  <time>2026-09-02T22:12:10Z</time>
  <course>187.59</course>
  <speed>0.0</speed>
  <fix>3d</fix>
</trkpt>
<trkpt lat="33.810313" lon="-118.393867">
  <ele>-0.13</ele>
  <time>2026-09-02T22:12:10Z</time>
  <course>0.0</course>
  <speed>0.0</speed>
  <fix>3d</fix>
</trkpt>
<trkpt lat="33.810313" lon="-118.393867">
  <ele>0.0</ele>
  <time>2026-09-02T22:12:10Z</time>
  <course>187.65</course>
  <speed>0.0</speed>
  <fix>3d</fix>
</trkpt>
<trkpt lat="33.810313" lon="-118.393867">
  <ele>-0.12</ele>
  <time>2026-09-02T22:12:10Z</time>
  <course>0.0</course>
  <speed>0.0</speed>
  <fix>3d</fix>
</trkpt>
<trkpt lat="33.810313" lon="-118.393867">
  <ele>0.0</ele>
  <time>2026-09-02T22:12:10Z</time>
  <course>187.7</course>
  <speed>0.0</speed>
  <fix>3d</fix>
</trkpt>
<trkpt lat="33.810313" lon="-118.393867">
  <ele>-0.12</ele>
  <time>2026-09-02T22:12:10Z</time>
  <course>0.0</course>
  <speed>0.0</speed>
  <fix>3d</fix>
</trkpt>
<trkpt lat="33.810313" lon="-118.393867">
  <ele>0.0</ele>
  <time>2026-09-02T22:12:10Z</time>
  <course>187.76</course>
  <speed>0.0</speed>
  <fix>3d</fix>
</trkpt>
<trkpt lat="33.810313" lon="-118.393867">
  <ele>-0.12</ele>
  <time>2026-09-02T22:12:10Z</time>
  <course>0.0</course>
  <speed>0.0</speed>
  <fix>3d</fix>
</trkpt>
<trkpt lat="33.810313" lon="-118.393867">
  <ele>0.0</ele>
  <time>2026-09-02T22:12:10Z</time>
  <course>187.81</course>
  <speed>0.0</speed>
  <fix>3d</fix>
</trkpt>
<trkpt lat="33.810313" lon="-118.393867">
  <ele>-0.12</ele>
  <time>2026-09-02T22:12:10Z</time>
  <course>0.0</course>
  <speed>0.0</speed>
  <fix>3d</fix>
</trkpt>
<trkpt lat="33.810313" lon="-118.393867">
  <ele>0.0</ele>
  <time>2026-09-02T22:12:10Z</time>
  <course>187.86</course>
  <speed>0.0</speed>
  <fix>3d</fix>
</trkpt>
<trkpt lat="33.810313" lon="-118.393867">
  <ele>-0.12</ele>
  <time>2026-09-02T22:12:10Z</time>
  <course>0.0</course>
  <speed>0.0</speed>
  <fix>3d</fix>
</trkpt>
<trkpt lat="33.810313" lon="-118.393867">
  <ele>0.0</ele>
  <time>2026-09-02T22:12:10Z</time>
  <course>187.9</course>
  <speed>0.0</speed>
  <fix>3d</fix>
</trkpt>
<trkpt lat="33.810313" lon="-118.393867">
  <ele>-0.12</ele>
  <time>2026-09-02T22:12:10Z</time>
  <course>0.0</course>
  <speed>0.0</speed>
  <fix>3d</fix>
</trkpt>
<trkpt lat="33.810313" lon="-118.393867">
  <ele>0.0</ele>
  <time>2026-09-02T22:12:10Z</time>
  <course>187.94</course>
  <speed>0.0</speed>
  <fix>3d</fix>
</trkpt>
<trkpt lat="33.810313" lon="-118.393867">
  <ele>-0.12</ele>
  <time>2026-09-02T22:12:10Z</time>
  <course>0.0</course>
  <speed>0.0</speed>
  <fix>3d</fix>
</trkpt>
<trkpt lat="33.810313" lon="-118.393867">
  <ele>0.0</ele>
  <time>2026-09-02T22:12:10Z</time>
  <course>187.99</course>
  <speed>0.0</speed>
  <fix>3d</fix>
</trkpt>
<trkpt lat="33.810313" lon="-118.393867">
  <ele>-0.12</ele>
  <time>2026-09-02T22:12:10Z</time>
  <course>0.0</course>
  <speed>0.0</speed>
  <fix>3d</fix>
</trkpt>
<trkpt lat="33.810313" lon="-118.393867">
  <ele>0.0</ele>
  <time>2026-09-02T22:12:10Z</time>
  <course>188.02</course>
  <speed>0.0</speed>
  <fix>3d</fix>
</trkpt>
<trkpt lat="33.810313" lon="-118.393867">
  <ele>-0.12</ele>
  <time>2026-09-02T22:12:10Z</time>
  <course>0.0</course>
  <speed>0.0</speed>
  <fix>3d</fix>
</trkpt>
<trkpt lat="33.810313" lon="-118.393867">
  <ele>0.0</ele>
  <time>2026-09-02T22:12:10Z</time>
  <course>188.06</course>
  <speed>0.0</speed>
  <fix>3d</fix>
</trkpt>
<trkpt lat="33.810313" lon="-118.393867">
  <ele>-0.12</ele>
  <time>2026-09-02T22:12:10Z</time>
  <course>0.0</course>
  <speed>0.0</speed>
  <fix>3d</fix>
</trkpt>
<trkpt lat="33.810313" lon="-118.393867">
  <ele>0.0</ele>
  <time>2026-09-02T22:12:10Z</time>
  <course>188.1</course>
  <speed>0.0</speed>
  <fix>3d</fix>
</trkpt>
<trkpt lat="33.810313" lon="-118.393867">
  <ele>-0.13</ele>
  <time>2026-09-02T22:12:10Z</time>
  <course>0.0</course>
  <speed>0.0</speed>
  <fix>3d</fix>
</trkpt>
<trkpt lat="33.810313" lon="-118.393867">
  <ele>0.0</ele>
  <time>2026-09-02T22:12:10Z</time>
  <course>188.13</course>
  <speed>0.0</speed>
  <fix>3d</fix>
</trkpt>
<trkpt lat="33.810313" lon="-118.393867">
  <ele>-0.13</ele>
  <time>2026-09-02T22:12:10Z</time>
  <course>0.0</course>
  <speed>0.0</speed>
  <fix>3d</fix>
</trkpt>
<trkpt lat="33.810313" lon="-118.393867">
  <ele>0.0</ele>
  <time>2026-09-02T22:12:10Z</time>
  <course>188.16</course>
  <speed>0.0</speed>
  <fix>3d</fix>
</trkpt>
<trkpt lat="33.810313" lon="-118.393867">
  <ele>-0.13</ele>
  <time>2026-09-02T22:12:10Z</time>
  <course>0.0</course>
  <speed>0.0</speed>
  <fix>3d</fix>
</trkpt>
<trkpt lat="33.810313" lon="-118.393867">
  <ele>0.0</ele>
  <time>2026-09-02T22:12:10Z</time>
  <course>188.19</course>
  <speed>0.0</speed>
  <fix>3d</fix>
</trkpt>
<trkpt lat="33.810313" lon="-118.393867">
  <ele>-0.13</ele>
  <time>2026-09-02T22:12:10Z</time>
  <course>0.0</course>
  <speed>0.0</speed>
  <fix>3d</fix>
</trkpt>
<trkpt lat="33.810313" lon="-118.393867">
  <ele>0.0</ele>
  <time>2026-09-02T22:12:10Z</time>
  <course>188.22</course>
  <speed>0.0</speed>
  <fix>3d</fix>
</trkpt>
<trkpt lat="33.810313" lon="-118.393867">
  <ele>-0.13</ele>
  <time>2026-09-02T22:12:10Z</time>
  <course>0.0</course>
  <speed>0.0</speed>
  <fix>3d</fix>
</trkpt>
<trkpt lat="33.810313" lon="-118.393867">
  <ele>0.0</ele>
  <time>2026-09-02T22:12:10Z</time>
  <course>188.24</course>
  <speed>0.0</speed>
  <fix>3d</fix>
</trkpt>
<trkpt lat="33.810313" lon="-118.393867">
  <ele>-0.13</ele>
  <time>2026-09-02T22:12:10Z</time>
  <course>0.0</course>
  <speed>0.0</speed>
  <fix>3d</fix>
</trkpt>
<trkpt lat="33.810313" lon="-118.393867">
  <ele>0.0</ele>
  <time>2026-09-02T22:12:10Z</time>
  <course>188.27</course>
  <speed>0.0</speed>
  <fix>3d</fix>
</trkpt>
<trkpt lat="33.810313" lon="-118.393867">
  <ele>-0.12</ele>
  <time>2026-09-02T22:12:10Z</time>
  <course>0.0</course>
  <speed>0.0</speed>
  <fix>3d</fix>
</trkpt>
<trkpt lat="33.810313" lon="-118.393867">
  <ele>0.0</ele>
  <time>2026-09-02T22:12:10Z</time>
  <course>188.29</course>
  <speed>0.0</speed>
  <fix>3d</fix>
</trkpt>
<trkpt lat="33.810313" lon="-118.393867">
  <ele>-0.12</ele>
  <time>2026-09-02T22:12:10Z</time>
  <course>0.0</course>
  <speed>0.0</speed>
  <fix>3d</fix>
</trkpt>
<trkpt lat="33.810313" lon="-118.393867">
  <ele>0.0</ele>
  <time>2026-09-02T22:12:10Z</time>
  <course>188.32</course>
  <speed>0.0</speed>
  <fix>3d</fix>
</trkpt>
<trkpt lat="33.810313" lon="-118.393867">
  <ele>-0.12</ele>
  <time>2026-09-02T22:12:10Z</time>
  <course>0.0</course>
  <speed>0.0</speed>
  <fix>3d</fix>
</trkpt>
<trkpt lat="33.810313" lon="-118.393867">
  <ele>0.0</ele>
  <time>2026-09-02T22:12:10Z</time>
  <course>188.34</course>
  <speed>0.0</speed>
  <fix>3d</fix>
</trkpt>
<trkpt lat="33.810313" lon="-118.393867">
  <ele>-0.12</ele>
  <time>2026-09-02T22:12:10Z</time>
  <course>0.0</course>
  <speed>0.0</speed>
  <fix>3d</fix>
</trkpt>
<trkpt lat="33.810313" lon="-118.393867">
  <ele>0.0</ele>
  <time>2026-09-02T22:12:10Z</time>
  <course>188.36</course>
  <speed>0.0</speed>
  <fix>3d</fix>
</trkpt>
<trkpt lat="33.810313" lon="-118.393867">
  <ele>-0.12</ele>
  <time>2026-09-02T22:12:10Z</time>
  <course>0.0</course>
  <speed>0.0</speed>
  <fix>3d</fix>
</trkpt>
<trkpt lat="33.810313" lon="-118.393867">
  <ele>0.0</ele>
  <time>2026-09-02T22:12:10Z</time>
  <course>188.38</course>
  <speed>0.0</speed>
  <fix>3d</fix>
</trkpt>
<trkpt lat="33.810313" lon="-118.393867">
  <ele>-0.12</ele>
  <time>2026-09-02T22:12:10Z</time>
  <course>0.0</course>
  <speed>0.0</speed>
  <fix>3d</fix>
</trkpt>
<trkpt lat="33.810313" lon="-118.393867">
  <ele>0.0</ele>
  <time>2026-09-02T22:12:10Z</time>
  <course>188.39</course>
  <speed>0.0</speed>
  <fix>3d</fix>
</trkpt>
<trkpt lat="33.810313" lon="-118.393867">
  <ele>-0.12</ele>
  <time>2026-09-02T22:12:10Z</time>
  <course>0.0</course>
  <speed>0.0</speed>
  <fix>3d</fix>
</trkpt>
<trkpt lat="33.810313" lon="-118.393867">
  <ele>0.0</ele>
  <time>2026-09-02T22:12:10Z</time>
  <course>188.41</course>
  <speed>0.0</speed>
  <fix>3d</fix>
</trkpt>
<trkpt lat="33.810313" lon="-118.393867">
  <ele>-0.12</ele>
  <time>2026-09-02T22:12:10Z</time>
  <course>0.0</course>
  <speed>0.0</speed>
  <fix>3d</fix>
</trkpt>
<trkpt lat="33.810313" lon="-118.393867">
  <ele>0.0</ele>
  <time>2026-09-02T22:12:10Z</time>
  <course>188.42</course>
  <speed>0.0</speed>
  <fix>3d</fix>
</trkpt>
<trkpt lat="33.810313" lon="-118.393867">
  <ele>-0.12</ele>
  <time>2026-09-02T22:12:10Z</time>
  <course>0.0</course>
  <speed>0.0</speed>
  <fix>3d</fix>
</trkpt>
<trkpt lat="33.810313" lon="-118.393867">
  <ele>0.0</ele>
  <time>2026-09-02T22:12:10Z</time>
  <course>188.44</course>
  <speed>0.0</speed>
  <fix>3d</fix>
</trkpt>
<trkpt lat="33.810313" lon="-118.393867">
  <ele>-0.12</ele>
  <time>2026-09-02T22:12:10Z</time>
  <course>0.0</course>
  <speed>0.0</speed>
  <fix>3d</fix>
</trkpt>
<trkpt lat="33.810313" lon="-118.393867">
  <ele>0.0</ele>
  <time>2026-09-02T22:12:10Z</time>
  <course>188.45</course>
  <speed>0.0</speed>
  <fix>3d</fix>
</trkpt>
<trkpt lat="33.810313" lon="-118.393867">
  <ele>-0.13</ele>
  <time>2026-09-02T22:12:10Z</time>
  <course>0.0</course>
  <speed>0.0</speed>
  <fix>3d</fix>
</trkpt>
<trkpt lat="33.810313" lon="-118.393867">
  <ele>0.0</ele>
  <time>2026-09-02T22:12:10Z</time>
  <course>188.46</course>
  <speed>0.0</speed>
  <fix>3d</fix>
</trkpt>
<trkpt lat="33.810313" lon="-118.393867">
  <ele>-0.13</ele>
  <time>2026-09-02T22:12:10Z</time>
  <course>0.0</course>
  <speed>0.0</speed>
  <fix>3d</fix>
</trkpt>
<trkpt lat="33.810313" lon="-118.393867">
  <ele>0.0</ele>
  <time>2026-09-02T22:12:10Z</time>
  <course>188.47</course>
  <speed>0.0</speed>
  <fix>3d</fix>
</trkpt>
<trkpt lat="33.810313" lon="-118.393867">
  <ele>-0.13</ele>
  <time>2026-09-02T22:12:10Z</time>
  <course>0.0</course>
  <speed>0.0</speed>
  <fix>3d</fix>
</trkpt>
<trkpt lat="33.810313" lon="-118.393867">
  <ele>0.0</ele>
  <time>2026-09-02T22:12:10Z</time>
  <course>188.48</course>
  <speed>0.0</speed>
  <fix>3d</fix>
</trkpt>
<trkpt lat="33.810313" lon="-118.393867">
  <ele>-0.13</ele>
  <time>2026-09-02T22:12:10Z</time>
  <course>0.0</course>
  <speed>0.0</speed>
  <fix>3d</fix>
</trkpt>
<trkpt lat="33.810313" lon="-118.393867">
  <ele>0.0</ele>
  <time>2026-09-02T22:12:10Z</time>
  <course>188.49</course>
  <speed>0.0</speed>
  <fix>3d</fix>
</trkpt>
<trkpt lat="33.810313" lon="-118.393867">
  <ele>-0.13</ele>
  <time>2026-09-02T22:12:10Z</time>
  <course>0.0</course>
  <speed>0.0</speed>
  <fix>3d</fix>
</trkpt>
<trkpt lat="33.810313" lon="-118.393867">
  <ele>0.0</ele>
  <time>2026-09-02T22:12:10Z</time>
  <course>188.5</course>
  <speed>0.0</speed>
  <fix>3d</fix>
</trkpt>
<trkpt lat="33.810313" lon="-118.393867">
  <ele>-0.13</ele>
  <time>2026-09-02T22:12:10Z</time>
  <course>0.0</course>
  <speed>0.0</speed>
  <fix>3d</fix>
</trkpt>
<trkpt lat="33.810313" lon="-118.393867">
  <ele>0.0</ele>
  <time>2026-09-02T22:12:10Z</time>
  <course>188.51</course>
  <speed>0.0</speed>
  <fix>3d</fix>
</trkpt>
<trkpt lat="33.810313" lon="-118.393867">
  <ele>-0.12</ele>
  <time>2026-09-02T22:12:10Z</time>
  <course>0.0</course>
  <speed>0.0</speed>
  <fix>3d</fix>
</trkpt>
<trkpt lat="33.810313" lon="-118.393867">
  <ele>0.0</ele>
  <time>2026-09-02T22:12:10Z</time>
  <course>188.52</course>
  <speed>0.0</speed>
  <fix>3d</fix>
</trkpt>
<trkpt lat="33.810313" lon="-118.393867">
  <ele>-0.12</ele>
  <time>2026-09-02T22:12:10Z</time>
  <course>0.0</course>
  <speed>0.0</speed>
  <fix>3d</fix>
</trkpt>
<trkpt lat="33.810313" lon="-118.393867">
  <ele>0.0</ele>
  <time>2026-09-02T22:12:10Z</time>
  <course>188.53</course>
  <speed>0.0</speed>
  <fix>3d</fix>
</trkpt>
<trkpt lat="33.810313" lon="-118.393867">
  <ele>-0.12</ele>
  <time>2026-09-02T22:12:10Z</time>
  <course>0.0</course>
  <speed>0.0</speed>
  <fix>3d</fix>
</trkpt>
<trkpt lat="33.810313" lon="-118.393867">
  <ele>0.0</ele>
  <time>2026-09-02T22:12:10Z</time>
  <course>188.53</course>
  <speed>0.0</speed>
  <fix>3d</fix>
</trkpt>
<trkpt lat="33.810313" lon="-118.393867">
  <ele>-0.12</ele>
  <time>2026-09-02T22:12:10Z</time>
  <course>0.0</course>
  <speed>0.0</speed>
  <fix>3d</fix>
</trkpt>
<trkpt lat="33.810313" lon="-118.393867">
  <ele>0.0</ele>
  <time>2026-09-02T22:12:10Z</time>
  <course>188.54</course>
  <speed>0.0</speed>
  <fix>3d</fix>
</trkpt>
<trkpt lat="33.810313" lon="-118.393867">
  <ele>-0.12</ele>
  <time>2026-09-02T22:12:10Z</time>
  <course>0.0</course>
  <speed>0.0</speed>
  <fix>3d</fix>
</trkpt>
<trkpt lat="33.810313" lon="-118.393867">
  <ele>0.0</ele>
  <time>2026-09-02T22:12:10Z</time>
  <course>188.54</course>
  <speed>0.0</speed>
  <fix>3d</fix>
</trkpt>
<trkpt lat="33.810313" lon="-118.393867">
  <ele>-0.12</ele>
  <time>2026-09-02T22:12:10Z</time>
  <course>0.0</course>
  <speed>0.0</speed>
  <fix>3d</fix>
</trkpt>
<trkpt lat="33.810313" lon="-118.393867">
  <ele>0.0</ele>
  <time>2026-09-02T22:12:10Z</time>
  <course>188.54</course>
  <speed>0.0</speed>
  <fix>3d</fix>
</trkpt>
<trkpt lat="33.810313" lon="-118.393867">
  <ele>-0.12</ele>
  <time>2026-09-02T22:12:10Z</time>
  <course>0.0</course>
  <speed>0.0</speed>
  <fix>3d</fix>
</trkpt>
<trkpt lat="33.810313" lon="-118.393867">
  <ele>0.0</ele>
  <time>2026-09-02T22:12:10Z</time>
  <course>188.55</course>
  <speed>0.0</speed>
  <fix>3d</fix>
</trkpt>
<trkpt lat="33.810313" lon="-118.393867">
  <ele>-0.12</ele>
  <time>2026-09-02T22:12:10Z</time>
  <course>0.0</course>
  <speed>0.0</speed>
  <fix>3d</fix>
</trkpt>
<trkpt lat="33.810313" lon="-118.393867">
  <ele>0.0</ele>
  <time>2026-09-02T22:12:10Z</time>
  <course>188.55</course>
  <speed>0.0</speed>
  <fix>3d</fix>
</trkpt>
<trkpt lat="33.810313" lon="-118.393867">
  <ele>-0.12</ele>
  <time>2026-09-02T22:12:10Z</time>
  <course>0.0</course>
  <speed>0.0</speed>
  <fix>3d</fix>
</trkpt>
<trkpt lat="33.810313" lon="-118.393867">
  <ele>0.0</ele>
  <time>2026-09-02T22:12:10Z</time>
  <course>188.55</course>
  <speed>0.0</speed>
  <fix>3d</fix>
</trkpt>
<trkpt lat="33.810313" lon="-118.393867">
  <ele>-0.12</ele>
  <time>2026-09-02T22:12:10Z</time>
  <course>0.0</course>
  <speed>0.0</speed>
  <fix>3d</fix>
</trkpt>
<trkpt lat="33.810313" lon="-118.393867">
  <ele>-0.126</ele>
  <time>2026-09-02T22:12:10Z</time>
  <course>188.55</course>
  <speed>0.0</speed>
  <fix>3d</fix>
</trkpt>
<trkpt lat="33.810313" lon="-118.393867">
  <ele>-0.13</ele>
  <time>2026-09-02T22:12:10Z</time>
  <course>0.0</course>
  <speed>0.0</speed>
  <fix>3d</fix>
</trkpt>
<trkpt lat="33.810313" lon="-118.393867">
  <ele>-0.126</ele>
  <time>2026-09-02T22:12:10Z</time>
  <course>188.56</course>
  <speed>0.0</speed>
  <fix>3d</fix>
</trkpt>
<trkpt lat="33.810313" lon="-118.393867">
  <ele>-0.13</ele>
  <time>2026-09-02T22:12:10Z</time>
  <course>0.0</course>
  <speed>0.0</speed>
  <fix>3d</fix>
</trkpt>
<trkpt lat="33.810313" lon="-118.393867">
  <ele>-0.125</ele>
  <time>2026-09-02T22:12:10Z</time>
  <course>188.56</course>
  <speed>0.0</speed>
  <fix>3d</fix>
</trkpt>
<trkpt lat="33.810313" lon="-118.393867">
  <ele>-0.13</ele>
  <time>2026-09-02T22:12:10Z</time>
  <course>0.0</course>
  <speed>0.0</speed>
  <fix>3d</fix>
</trkpt>
<trkpt lat="33.810313" lon="-118.393867">
  <ele>-0.123</ele>
  <time>2026-09-02T22:12:10Z</time>
  <course>188.56</course>
  <speed>0.0</speed>
  <fix>3d</fix>
</trkpt>
<trkpt lat="33.810313" lon="-118.393867">
  <ele>-0.13</ele>
  <time>2026-09-02T22:12:10Z</time>
  <course>0.0</course>
  <speed>0.0</speed>
  <fix>3d</fix>
</trkpt>
<trkpt lat="33.810313" lon="-118.393867">
  <ele>-0.121</ele>
  <time>2026-09-02T22:12:10Z</time>
  <course>188.56</course>
  <speed>0.0</speed>
  <fix>3d</fix>
</trkpt>
<trkpt lat="33.810313" lon="-118.393867">
  <ele>-0.12</ele>
  <time>2026-09-02T22:12:10Z</time>
  <course>0.0</course>
  <speed>0.0</speed>
  <fix>3d</fix>
</trkpt>
<trkpt lat="33.810313" lon="-118.393867">
  <ele>-0.12</ele>
  <time>2026-09-02T22:12:10Z</time>
  <course>188.56</course>
  <speed>0.0</speed>
  <fix>3d</fix>
</trkpt>
<trkpt lat="33.810313" lon="-118.393867">
  <ele>-0.12</ele>
  <time>2026-09-02T22:12:10Z</time>
  <course>0.0</course>
  <speed>0.0</speed>
  <fix>3d</fix>
</trkpt>
<trkpt lat="33.810313" lon="-118.393867">
  <ele>-0.119</ele>
  <time>2026-09-02T22:12:10Z</time>
  <course>188.56</course>
  <speed>0.0</speed>
  <fix>3d</fix>
</trkpt>
<trkpt lat="33.810313" lon="-118.393867">
  <ele>-0.12</ele>
  <time>2026-09-02T22:12:10Z</time>
  <course>0.0</course>
  <speed>0.0</speed>
  <fix>3d</fix>
</trkpt>
<trkpt lat="33.810313" lon="-118.393867">
  <ele>-0.12</ele>
  <time>2026-09-02T22:12:10Z</time>
  <course>188.56</course>
  <speed>0.0</speed>
  <fix>3d</fix>
</trkpt>
<trkpt lat="33.810313" lon="-118.393867">
  <ele>-0.12</ele>
  <time>2026-09-02T22:12:10Z</time>
  <course>0.0</course>
  <speed>0.0</speed>
  <fix>3d</fix>
</trkpt>
<trkpt lat="33.810313" lon="-118.393867">
  <ele>-0.123</ele>
  <time>2026-09-02T22:12:10Z</time>
  <course>188.55</course>
  <speed>0.0</speed>
  <fix>3d</fix>
</trkpt>
<trkpt lat="33.810313" lon="-118.393867">
  <ele>-0.12</ele>
  <time>2026-09-02T22:12:10Z</time>
  <course>0.0</course>
  <speed>0.0</speed>
  <fix>3d</fix>
</trkpt>
<trkpt lat="33.810313" lon="-118.393867">
  <ele>-0.127</ele>
  <time>2026-09-02T22:12:10Z</time>
  <course>188.55</course>
  <speed>0.0</speed>
  <fix>3d</fix>
</trkpt>
<trkpt lat="33.810313" lon="-118.393867">
  <ele>-0.12</ele>
  <time>2026-09-02T22:12:10Z</time>
  <course>0.0</course>
  <speed>0.0</speed>
  <fix>3d</fix>
</trkpt>
<trkpt lat="33.810313" lon="-118.393867">
  <ele>-0.13</ele>
  <time>2026-09-02T22:12:10Z</time>
  <course>188.55</course>
  <speed>0.0</speed>
  <fix>3d</fix>
</trkpt>
<trkpt lat="33.810313" lon="-118.393867">
  <ele>-0.12</ele>
  <time>2026-09-02T22:12:10Z</time>
  <course>0.0</course>
  <speed>0.0</speed>
  <fix>3d</fix>
</trkpt>
<trkpt lat="33.810313" lon="-118.393867">
  <ele>-0.132</ele>
  <time>2026-09-02T22:12:10Z</time>
  <course>188.55</course>
  <speed>0.0</speed>
  <fix>3d</fix>
</trkpt>
<trkpt lat="33.810313" lon="-118.393867">
  <ele>-0.12</ele>
  <time>2026-09-02T22:12:10Z</time>
  <course>0.0</course>
  <speed>0.0</speed>
  <fix>3d</fix>
</trkpt>
<trkpt lat="33.810313" lon="-118.393867">
  <ele>-0.132</ele>
  <time>2026-09-02T22:12:10Z</time>
  <course>188.55</course>
  <speed>0.0</speed>
  <fix>3d</fix>
</trkpt>
<trkpt lat="33.810313" lon="-118.393867">
  <ele>-0.12</ele>
  <time>2026-09-02T22:12:10Z</time>
  <course>0.0</course>
  <speed>0.0</speed>
  <fix>3d</fix>
</trkpt>
<trkpt lat="33.810313" lon="-118.393867">
  <ele>-0.132</ele>
  <time>2026-09-02T22:12:10Z</time>
  <course>188.55</course>
  <speed>0.0</speed>
  <fix>3d</fix>
</trkpt>
<trkpt lat="33.810313" lon="-118.393867">
  <ele>-0.12</ele>
  <time>2026-09-02T22:12:10Z</time>
  <course>0.0</course>
  <speed>0.0</speed>
  <fix>3d</fix>
</trkpt>
<trkpt lat="33.810313" lon="-118.393867">
  <ele>-0.132</ele>
  <time>2026-09-02T22:12:10Z</time>
  <course>188.55</course>
  <speed>0.0</speed>
  <fix>3d</fix>
</trkpt>
<trkpt lat="33.810313" lon="-118.393867">
  <ele>-0.12</ele>
  <time>2026-09-02T22:12:10Z</time>
  <course>0.0</course>
  <speed>0.0</speed>
  <fix>3d</fix>
</trkpt>
<trkpt lat="33.810313" lon="-118.393867">
  <ele>-0.131</ele>
  <time>2026-09-02T22:12:10Z</time>
  <course>188.55</course>
  <speed>0.0</speed>
  <fix>3d</fix>
</trkpt>
<trkpt lat="33.810313" lon="-118.393867">
  <ele>-0.12</ele>
  <time>2026-09-02T22:12:10Z</time>
  <course>0.0</course>
  <speed>0.0</speed>
  <fix>3d</fix>
</trkpt>
<trkpt lat="33.810313" lon="-118.393867">
  <ele>-0.129</ele>
  <time>2026-09-02T22:12:10Z</time>
  <course>188.54</course>
  <speed>0.0</speed>
  <fix>3d</fix>
</trkpt>
<trkpt lat="33.810313" lon="-118.393867">
  <ele>-0.13</ele>
  <time>2026-09-02T22:12:10Z</time>
  <course>0.0</course>
  <speed>0.0</speed>
  <fix>3d</fix>
</trkpt>
<trkpt lat="33.810313" lon="-118.393867">
  <ele>-0.128</ele>
  <time>2026-09-02T22:12:10Z</time>
  <course>188.54</course>
  <speed>0.0</speed>
  <fix>3d</fix>
</trkpt>
<trkpt lat="33.810313" lon="-118.393867">
  <ele>-0.13</ele>
  <time>2026-09-02T22:12:10Z</time>
  <course>0.0</course>
  <speed>0.0</speed>
  <fix>3d</fix>
</trkpt>
<trkpt lat="33.810313" lon="-118.393867">
  <ele>-0.125</ele>
  <time>2026-09-02T22:12:10Z</time>
  <course>188.53</course>
  <speed>0.0</speed>
  <fix>3d</fix>
</trkpt>
<trkpt lat="33.810313" lon="-118.393867">
  <ele>-0.12</ele>
  <time>2026-09-02T22:12:10Z</time>
  <course>0.0</course>
  <speed>0.0</speed>
  <fix>3d</fix>
</trkpt>
<trkpt lat="33.810313" lon="-118.393867">
  <ele>-0.123</ele>
  <time>2026-09-02T22:12:10Z</time>
  <course>188.53</course>
  <speed>0.0</speed>
  <fix>3d</fix>
</trkpt>
<trkpt lat="33.810313" lon="-118.393867">
  <ele>-0.12</ele>
  <time>2026-09-02T22:12:10Z</time>
  <course>0.0</course>
  <speed>0.0</speed>
  <fix>3d</fix>
</trkpt>
<trkpt lat="33.810313" lon="-118.393867">
  <ele>-0.121</ele>
  <time>2026-09-02T22:12:10Z</time>
  <course>188.52</course>
  <speed>0.0</speed>
  <fix>3d</fix>
</trkpt>
<trkpt lat="33.810313" lon="-118.393867">
  <ele>-0.12</ele>
  <time>2026-09-02T22:12:10Z</time>
  <course>0.0</course>
  <speed>0.0</speed>
  <fix>3d</fix>
</trkpt>
<trkpt lat="33.810313" lon="-118.393867">
  <ele>-0.121</ele>
  <time>2026-09-02T22:12:10Z</time>
  <course>188.52</course>
  <speed>0.0</speed>
  <fix>3d</fix>
</trkpt>
<trkpt lat="33.810313" lon="-118.393867">
  <ele>-0.12</ele>
  <time>2026-09-02T22:12:10Z</time>
  <course>0.0</course>
  <speed>0.0</speed>
  <fix>3d</fix>
</trkpt>
<trkpt lat="33.810313" lon="-118.393867">
  <ele>-0.121</ele>
  <time>2026-09-02T22:12:10Z</time>
  <course>188.51</course>
  <speed>0.0</speed>
  <fix>3d</fix>
</trkpt>
<trkpt lat="33.810313" lon="-118.393867">
  <ele>-0.12</ele>
  <time>2026-09-02T22:12:10Z</time>
  <course>0.0</course>
  <speed>0.0</speed>
  <fix>3d</fix>
</trkpt>
<trkpt lat="33.810313" lon="-118.393867">
  <ele>-0.123</ele>
  <time>2026-09-02T22:12:10Z</time>
  <course>188.51</course>
  <speed>0.0</speed>
  <fix>3d</fix>
</trkpt>
<trkpt lat="33.810313" lon="-118.393867">
  <ele>-0.12</ele>
  <time>2026-09-02T22:12:10Z</time>
  <course>0.0</course>
  <speed>0.0</speed>
  <fix>3d</fix>
</trkpt>
<trkpt lat="33.810313" lon="-118.393867">
  <ele>-0.126</ele>
  <time>2026-09-02T22:12:10Z</time>
  <course>188.5</course>
  <speed>0.0</speed>
  <fix>3d</fix>
</trkpt>
<trkpt lat="33.810313" lon="-118.393867">
  <ele>-0.12</ele>
  <time>2026-09-02T22:12:10Z</time>
  <course>0.0</course>
  <speed>0.0</speed>
  <fix>3d</fix>
</trkpt>
<trkpt lat="33.810313" lon="-118.393867">
  <ele>-0.127</ele>
  <time>2026-09-02T22:12:10Z</time>
  <course>188.5</course>
  <speed>0.0</speed>
  <fix>3d</fix>
</trkpt>
<trkpt lat="33.810313" lon="-118.393867">
  <ele>-0.12</ele>
  <time>2026-09-02T22:12:10Z</time>
  <course>0.0</course>
  <speed>0.0</speed>
  <fix>3d</fix>
</trkpt>
<trkpt lat="33.810313" lon="-118.393867">
  <ele>-0.128</ele>
  <time>2026-09-02T22:12:10Z</time>
  <course>188.49</course>
  <speed>0.0</speed>
  <fix>3d</fix>
</trkpt>
<trkpt lat="33.810313" lon="-118.393867">
  <ele>-0.12</ele>
  <time>2026-09-02T22:12:10Z</time>
  <course>0.0</course>
  <speed>0.0</speed>
  <fix>3d</fix>
</trkpt>
<trkpt lat="33.810313" lon="-118.393867">
  <ele>-0.127</ele>
  <time>2026-09-02T22:12:10Z</time>
  <course>188.49</course>
  <speed>0.0</speed>
  <fix>3d</fix>
</trkpt>
<trkpt lat="33.810313" lon="-118.393867">
  <ele>-0.12</ele>
  <time>2026-09-02T22:12:10Z</time>
  <course>0.0</course>
  <speed>0.0</speed>
  <fix>3d</fix>
</trkpt>
<trkpt lat="33.810313" lon="-118.393867">
  <ele>-0.127</ele>
  <time>2026-09-02T22:12:10Z</time>
  <course>188.48</course>
  <speed>0.0</speed>
  <fix>3d</fix>
</trkpt>
<trkpt lat="33.810313" lon="-118.393867">
  <ele>-0.12</ele>
  <time>2026-09-02T22:12:10Z</time>
  <course>0.0</course>
  <speed>0.0</speed>
  <fix>3d</fix>
</trkpt>
<trkpt lat="33.810313" lon="-118.393867">
  <ele>-0.127</ele>
  <time>2026-09-02T22:12:10Z</time>
  <course>188.47</course>
  <speed>0.01</speed>
  <fix>3d</fix>
</trkpt>
<trkpt lat="33.810313" lon="-118.393867">
  <ele>-0.12</ele>
  <time>2026-09-02T22:12:10Z</time>
  <course>0.0</course>
  <speed>0.0</speed>
  <fix>3d</fix>
</trkpt>
<trkpt lat="33.810313" lon="-118.393867">
  <ele>-0.127</ele>
  <time>2026-09-02T22:12:10Z</time>
  <course>188.47</course>
  <speed>0.01</speed>
  <fix>3d</fix>
</trkpt>
<trkpt lat="33.810313" lon="-118.393867">
  <ele>-0.12</ele>
  <time>2026-09-02T22:12:10Z</time>
  <course>0.0</course>
  <speed>0.0</speed>
  <fix>3d</fix>
</trkpt>
<trkpt lat="33.810313" lon="-118.393867">
  <ele>-0.127</ele>
  <time>2026-09-02T22:12:10Z</time>
  <course>188.46</course>
  <speed>0.01</speed>
  <fix>3d</fix>
</trkpt>
<trkpt lat="33.810313" lon="-118.393867">
  <ele>-0.12</ele>
  <time>2026-09-02T22:12:10Z</time>
  <course>0.0</course>
  <speed>0.0</speed>
  <fix>3d</fix>
</trkpt>
<trkpt lat="33.810313" lon="-118.393867">
  <ele>-0.126</ele>
  <time>2026-09-02T22:12:10Z</time>
  <course>188.45</course>
  <speed>0.01</speed>
  <fix>3d</fix>
</trkpt>
<trkpt lat="33.810313" lon="-118.393867">
  <ele>-0.12</ele>
  <time>2026-09-02T22:12:10Z</time>
  <course>0.0</course>
  <speed>0.0</speed>
  <fix>3d</fix>
</trkpt>
<trkpt lat="33.810313" lon="-118.393867">
  <ele>-0.126</ele>
  <time>2026-09-02T22:12:10Z</time>
  <course>188.45</course>
  <speed>0.01</speed>
  <fix>3d</fix>
</trkpt>
<trkpt lat="33.810313" lon="-118.393867">
  <ele>-0.12</ele>
  <time>2026-09-02T22:12:10Z</time>
  <course>0.0</course>
  <speed>0.0</speed>
  <fix>3d</fix>
</trkpt>
<trkpt lat="33.810313" lon="-118.393867">
  <ele>-0.125</ele>
  <time>2026-09-02T22:12:10Z</time>
  <course>188.44</course>
  <speed>0.01</speed>
  <fix>3d</fix>
</trkpt>
<trkpt lat="33.810313" lon="-118.393867">
  <ele>-0.12</ele>
  <time>2026-09-02T22:12:10Z</time>
  <course>0.0</course>
  <speed>0.0</speed>
  <fix>3d</fix>
</trkpt>
<trkpt lat="33.810313" lon="-118.393867">
  <ele>-0.126</ele>
  <time>2026-09-02T22:12:10Z</time>
  <course>188.43</course>
  <speed>0.01</speed>
  <fix>3d</fix>
</trkpt>
<trkpt lat="33.810313" lon="-118.393867">
  <ele>-0.12</ele>
  <time>2026-09-02T22:12:10Z</time>
  <course>0.0</course>
  <speed>0.0</speed>
  <fix>3d</fix>
</trkpt>
<trkpt lat="33.810313" lon="-118.393867">
  <ele>-0.127</ele>
  <time>2026-09-02T22:12:10Z</time>
  <course>188.42</course>
  <speed>0.01</speed>
  <fix>3d</fix>
</trkpt>
<trkpt lat="33.810313" lon="-118.393867">
  <ele>-0.12</ele>
  <time>2026-09-02T22:12:10Z</time>
  <course>0.0</course>
  <speed>0.0</speed>
  <fix>3d</fix>
</trkpt>
<trkpt lat="33.810313" lon="-118.393867">
  <ele>-0.128</ele>
  <time>2026-09-02T22:12:10Z</time>
  <course>188.42</course>
  <speed>0.01</speed>
  <fix>3d</fix>
</trkpt>
<trkpt lat="33.810313" lon="-118.393867">
  <ele>-0.12</ele>
  <time>2026-09-02T22:12:10Z</time>
  <course>0.0</course>
  <speed>0.0</speed>
  <fix>3d</fix>
</trkpt>
<trkpt lat="33.810313" lon="-118.393867">
  <ele>-0.129</ele>
  <time>2026-09-02T22:12:10Z</time>
  <course>188.41</course>
  <speed>0.01</speed>
  <fix>3d</fix>
</trkpt>
<trkpt lat="33.810313" lon="-118.393867">
  <ele>-0.12</ele>
  <time>2026-09-02T22:12:10Z</time>
  <course>0.0</course>
  <speed>0.0</speed>
  <fix>3d</fix>
</trkpt>
<trkpt lat="33.810313" lon="-118.393867">
  <ele>-0.129</ele>
  <time>2026-09-02T22:12:10Z</time>
  <course>188.4</course>
  <speed>0.01</speed>
  <fix>3d</fix>
</trkpt>
<trkpt lat="33.810313" lon="-118.393867">
  <ele>-0.12</ele>
  <time>2026-09-02T22:12:10Z</time>
  <course>0.0</course>
  <speed>0.0</speed>
  <fix>3d</fix>
</trkpt>
<trkpt lat="33.810313" lon="-118.393867">
  <ele>-0.13</ele>
  <time>2026-09-02T22:12:10Z</time>
  <course>188.4</course>
  <speed>0.01414213562373095</speed>
  <fix>3d</fix>
</trkpt>
<trkpt lat="33.810313" lon="-118.393867">
  <ele>-0.12</ele>
  <time>2026-09-02T22:12:10Z</time>
  <course>0.0</course>
  <speed>0.0</speed>
  <fix>3d</fix>
</trkpt>
<trkpt lat="33.810313" lon="-118.393867">
  <ele>-0.13</ele>
  <time>2026-09-02T22:12:10Z</time>
  <course>188.39</course>
  <speed>0.01414213562373095</speed>
  <fix>3d</fix>
</trkpt>
<trkpt lat="33.810313" lon="-118.393867">
  <ele>-0.12</ele>
  <time>2026-09-02T22:12:10Z</time>
  <course>0.0</course>
  <speed>0.0</speed>
  <fix>3d</fix>
</trkpt>
<trkpt lat="33.810313" lon="-118.393867">
  <ele>-0.13</ele>
  <time>2026-09-02T22:12:10Z</time>
  <course>188.38</course>
  <speed>0.01414213562373095</speed>
  <fix>3d</fix>
</trkpt>
<trkpt lat="33.810313" lon="-118.393867">
  <ele>-0.12</ele>
  <time>2026-09-02T22:12:10Z</time>
  <course>0.0</course>
  <speed>0.0</speed>
  <fix>3d</fix>
</trkpt>
<trkpt lat="33.810313" lon="-118.393867">
  <ele>-0.129</ele>
  <time>2026-09-02T22:12:10Z</time>
  <course>188.37</course>
  <speed>0.01414213562373095</speed>
  <fix>3d</fix>
</trkpt>
<trkpt lat="33.810313" lon="-118.393867">
  <ele>-0.12</ele>
  <time>2026-09-02T22:12:10Z</time>
  <course>0.0</course>
  <speed>0.0</speed>
  <fix>3d</fix>
</trkpt>
<trkpt lat="33.810313" lon="-118.393867">
  <ele>-0.128</ele>
  <time>2026-09-02T22:12:10Z</time>
  <course>188.37</course>
  <speed>0.01414213562373095</speed>
  <fix>3d</fix>
</trkpt>
<trkpt lat="33.810313" lon="-118.393867">
  <ele>-0.12</ele>
  <time>2026-09-02T22:12:10Z</time>
  <course>0.0</course>
  <speed>0.0</speed>
  <fix>3d</fix>
</trkpt>
<trkpt lat="33.810313" lon="-118.393867">
  <ele>-0.126</ele>
  <time>2026-09-02T22:12:10Z</time>
  <course>188.36</course>
  <speed>0.01414213562373095</speed>
  <fix>3d</fix>
</trkpt>
<trkpt lat="33.810313" lon="-118.393867">
  <ele>-0.12</ele>
  <time>2026-09-02T22:12:10Z</time>
  <course>0.0</course>
  <speed>0.0</speed>
  <fix>3d</fix>
</trkpt>
<trkpt lat="33.810313" lon="-118.393867">
  <ele>-0.124</ele>
  <time>2026-09-02T22:12:10Z</time>
  <course>188.35</course>
  <speed>0.01414213562373095</speed>
  <fix>3d</fix>
</trkpt>
<trkpt lat="33.810313" lon="-118.393867">
  <ele>-0.12</ele>
  <time>2026-09-02T22:12:10Z</time>
  <course>0.0</course>
  <speed>0.0</speed>
  <fix>3d</fix>
</trkpt>
<trkpt lat="33.810313" lon="-118.393867">
  <ele>-0.122</ele>
  <time>2026-09-02T22:12:10Z</time>
  <course>188.34</course>
  <speed>0.01414213562373095</speed>
  <fix>3d</fix>
</trkpt>
<trkpt lat="33.810313" lon="-118.393867">
  <ele>-0.12</ele>
  <time>2026-09-02T22:12:10Z</time>
  <course>0.0</course>
  <speed>0.0</speed>
  <fix>3d</fix>
</trkpt>
<trkpt lat="33.810313" lon="-118.393867">
  <ele>-0.123</ele>
  <time>2026-09-02T22:12:10Z</time>
  <course>188.34</course>
  <speed>0.01414213562373095</speed>
  <fix>3d</fix>
</trkpt>
<trkpt lat="33.810313" lon="-118.393867">
  <ele>-0.12</ele>
  <time>2026-09-02T22:12:10Z</time>
  <course>0.0</course>
  <speed>0.0</speed>
  <fix>3d</fix>
</trkpt>
<trkpt lat="33.810313" lon="-118.393867">
  <ele>-0.125</ele>
  <time>2026-09-02T22:12:10Z</time>
  <course>188.33</course>
  <speed>0.01414213562373095</speed>
  <fix>3d</fix>
</trkpt>
<trkpt lat="33.810313" lon="-118.393867">
  <ele>-0.12</ele>
  <time>2026-09-02T22:12:10Z</time>
  <course>0.0</course>
  <speed>0.0</speed>
  <fix>3d</fix>
</trkpt>
<trkpt lat="33.810313" lon="-118.393867">
  <ele>-0.128</ele>
  <time>2026-09-02T22:12:10Z</time>
  <course>188.32</course>
  <speed>0.01414213562373095</speed>
  <fix>3d</fix>
</trkpt>
<trkpt lat="33.810313" lon="-118.393867">
  <ele>-0.12</ele>
  <time>2026-09-02T22:12:10Z</time>
  <course>0.0</course>
  <speed>0.0</speed>
  <fix>3d</fix>
</trkpt>
<trkpt lat="33.810313" lon="-118.393867">
  <ele>-0.131</ele>
  <time>2026-09-02T22:12:10Z</time>
  <course>188.31</course>
  <speed>0.01414213562373095</speed>
  <fix>3d</fix>
</trkpt>
<trkpt lat="33.810313" lon="-118.393867">
  <ele>-0.12</ele>
  <time>2026-09-02T22:12:10Z</time>
  <course>0.0</course>
  <speed>0.0</speed>
  <fix>3d</fix>
</trkpt>
<trkpt lat="33.810313" lon="-118.393867">
  <ele>-0.134</ele>
  <time>2026-09-02T22:12:10Z</time>
  <course>188.3</course>
  <speed>0.01414213562373095</speed>
  <fix>3d</fix>
</trkpt>
<trkpt lat="33.810313" lon="-118.393867">
  <ele>-0.12</ele>
  <time>2026-09-02T22:12:10Z</time>
  <course>0.0</course>
  <speed>0.0</speed>
  <fix>3d</fix>
</trkpt>
<trkpt lat="33.810313" lon="-118.393867">
  <ele>-0.135</ele>
  <time>2026-09-02T22:12:10Z</time>
  <course>188.3</course>
  <speed>0.01414213562373095</speed>
  <fix>3d</fix>
</trkpt>
<trkpt lat="33.810313" lon="-118.393867">
  <ele>-0.12</ele>
  <time>2026-09-02T22:12:10Z</time>
  <course>0.0</course>
  <speed>0.0</speed>
  <fix>3d</fix>
</trkpt>
<trkpt lat="33.810313" lon="-118.393867">
  <ele>-0.134</ele>
  <time>2026-09-02T22:12:10Z</time>
  <course>188.29</course>
  <speed>0.01414213562373095</speed>
  <fix>3d</fix>
</trkpt>
<trkpt lat="33.810313" lon="-118.393867">
  <ele>-0.12</ele>
  <time>2026-09-02T22:12:10Z</time>
  <course>0.0</course>
  <speed>0.0</speed>
  <fix>3d</fix>
</trkpt>
<trkpt lat="33.810313" lon="-118.393867">
  <ele>-0.132</ele>
  <time>2026-09-02T22:12:10Z</time>
  <course>188.28</course>
  <speed>0.01414213562373095</speed>
  <fix>3d</fix>
</trkpt>
<trkpt lat="33.810313" lon="-118.393867">
  <ele>-0.12</ele>
  <time>2026-09-02T22:12:10Z</time>
  <course>0.0</course>
  <speed>0.0</speed>
  <fix>3d</fix>
</trkpt>
<trkpt lat="33.810313" lon="-118.393867">
  <ele>-0.13</ele>
  <time>2026-09-02T22:12:10Z</time>
  <course>188.27</course>
  <speed>0.01414213562373095</speed>
  <fix>3d</fix>
</trkpt>
<trkpt lat="33.810313" lon="-118.393867">
  <ele>-0.12</ele>
  <time>2026-09-02T22:12:10Z</time>
  <course>0.0</course>
  <speed>0.0</speed>
  <fix>3d</fix>
</trkpt>
<trkpt lat="33.810313" lon="-118.393867">
  <ele>-0.127</ele>
  <time>2026-09-02T22:12:10Z</time>
  <course>188.26</course>
  <speed>0.01414213562373095</speed>
  <fix>3d</fix>
</trkpt>
<trkpt lat="33.810313" lon="-118.393867">
  <ele>-0.12</ele>
  <time>2026-09-02T22:12:10Z</time>
  <course>0.0</course>
  <speed>0.0</speed>
  <fix>3d</fix>
</trkpt>
<trkpt lat="33.810313" lon="-118.393867">
  <ele>-0.125</ele>
  <time>2026-09-02T22:12:10Z</time>
  <course>188.25</course>
  <speed>0.01414213562373095</speed>
  <fix>3d</fix>
</trkpt>
<trkpt lat="33.810313" lon="-118.393867">
  <ele>-0.12</ele>
  <time>2026-09-02T22:12:10Z</time>
  <course>0.0</course>
  <speed>0.0</speed>
  <fix>3d</fix>
</trkpt>
<trkpt lat="33.810313" lon="-118.393867">
  <ele>-0.123</ele>
  <time>2026-09-02T22:12:10Z</time>
  <course>188.25</course>
  <speed>0.01414213562373095</speed>
  <fix>3d</fix>
</trkpt>
<trkpt lat="33.810313" lon="-118.393867">
  <ele>-0.12</ele>
  <time>2026-09-02T22:12:10Z</time>
  <course>0.0</course>
  <speed>0.0</speed>
  <fix>3d</fix>
</trkpt>
<trkpt lat="33.810313" lon="-118.393867">
  <ele>-0.124</ele>
  <time>2026-09-02T22:12:10Z</time>
  <course>188.24</course>
  <speed>0.01414213562373095</speed>
  <fix>3d</fix>
</trkpt>
<trkpt lat="33.810313" lon="-118.393867">
  <ele>-0.12</ele>
  <time>2026-09-02T22:12:10Z</time>
  <course>0.0</course>
  <speed>0.0</speed>
  <fix>3d</fix>
</trkpt>
<trkpt lat="33.810313" lon="-118.393867">
  <ele>-0.125</ele>
  <time>2026-09-02T22:12:10Z</time>
  <course>188.23</course>
  <speed>0.01414213562373095</speed>
  <fix>3d</fix>
</trkpt>
<trkpt lat="33.810313" lon="-118.393867">
  <ele>-0.12</ele>
  <time>2026-09-02T22:12:10Z</time>
  <course>0.0</course>
  <speed>0.0</speed>
  <fix>3d</fix>
</trkpt>
<trkpt lat="33.810313" lon="-118.393867">
  <ele>-0.127</ele>
  <time>2026-09-02T22:12:10Z</time>
  <course>188.22</course>
  <speed>0.01414213562373095</speed>
  <fix>3d</fix>
</trkpt>
<trkpt lat="33.810313" lon="-118.393867">
  <ele>-0.12</ele>
  <time>2026-09-02T22:12:10Z</time>
  <course>0.0</course>
  <speed>0.0</speed>
  <fix>3d</fix>
</trkpt>
<trkpt lat="33.810313" lon="-118.393867">
  <ele>-0.128</ele>
  <time>2026-09-02T22:12:10Z</time>
  <course>188.21</course>
  <speed>0.01414213562373095</speed>
  <fix>3d</fix>
</trkpt>
<trkpt lat="33.810313" lon="-118.393867">
  <ele>-0.12</ele>
  <time>2026-09-02T22:12:10Z</time>
  <course>0.0</course>
  <speed>0.0</speed>
  <fix>3d</fix>
</trkpt>
<trkpt lat="33.810313" lon="-118.393867">
  <ele>-0.129</ele>
  <time>2026-09-02T22:12:10Z</time>
  <course>188.21</course>
  <speed>0.01414213562373095</speed>
  <fix>3d</fix>
</trkpt>
<trkpt lat="33.810313" lon="-118.393867">
  <ele>-0.12</ele>
  <time>2026-09-02T22:12:10Z</time>
  <course>0.0</course>
  <speed>0.0</speed>
  <fix>3d</fix>
</trkpt>
<trkpt lat="33.810313" lon="-118.393867">
  <ele>-0.129</ele>
  <time>2026-09-02T22:12:10Z</time>
  <course>188.2</course>
  <speed>0.01414213562373095</speed>
  <fix>3d</fix>
</trkpt>
<trkpt lat="33.810313" lon="-118.393867">
  <ele>-0.12</ele>
  <time>2026-09-02T22:12:10Z</time>
  <course>0.0</course>
  <speed>0.0</speed>
  <fix>3d</fix>
</trkpt>
<trkpt lat="33.810313" lon="-118.393867">
  <ele>-0.128</ele>
  <time>2026-09-02T22:12:10Z</time>
  <course>188.19</course>
  <speed>0.01414213562373095</speed>
  <fix>3d</fix>
</trkpt>
<trkpt lat="33.810313" lon="-118.393867">
  <ele>-0.12</ele>
  <time>2026-09-02T22:12:10Z</time>
  <course>0.0</course>
  <speed>0.0</speed>
  <fix>3d</fix>
</trkpt>
<trkpt lat="33.810313" lon="-118.393867">
  <ele>-0.128</ele>
  <time>2026-09-02T22:12:10Z</time>
  <course>188.18</course>
  <speed>0.01414213562373095</speed>
  <fix>3d</fix>
</trkpt>
<trkpt lat="33.810313" lon="-118.393867">
  <ele>-0.12</ele>
  <time>2026-09-02T22:12:10Z</time>
  <course>0.0</course>
  <speed>0.0</speed>
  <fix>3d</fix>
</trkpt>
<trkpt lat="33.810313" lon="-118.393867">
  <ele>-0.127</ele>
  <time>2026-09-02T22:12:10Z</time>
  <course>188.17</course>
  <speed>0.01414213562373095</speed>
  <fix>3d</fix>
</trkpt>
<trkpt lat="33.810313" lon="-118.393867">
  <ele>-0.12</ele>
  <time>2026-09-02T22:12:10Z</time>
  <course>0.0</course>
  <speed>0.0</speed>
  <fix>3d</fix>
</trkpt>
<trkpt lat="33.810313" lon="-118.393867">
  <ele>-0.127</ele>
  <time>2026-09-02T22:12:10Z</time>
  <course>188.16</course>
  <speed>0.01414213562373095</speed>
  <fix>3d</fix>
</trkpt>
<trkpt lat="33.810313" lon="-118.393867">
  <ele>-0.12</ele>
  <time>2026-09-02T22:12:10Z</time>
  <course>0.0</course>
  <speed>0.0</speed>
  <fix>3d</fix>
</trkpt>
<trkpt lat="33.810313" lon="-118.393867">
  <ele>-0.128</ele>
  <time>2026-09-02T22:12:10Z</time>
  <course>188.16</course>
  <speed>0.01414213562373095</speed>
  <fix>3d</fix>
</trkpt>
<trkpt lat="33.810313" lon="-118.393867">
  <ele>-0.12</ele>
  <time>2026-09-02T22:12:10Z</time>
  <course>0.0</course>
  <speed>0.0</speed>
  <fix>3d</fix>
</trkpt>
<trkpt lat="33.810313" lon="-118.393867">
  <ele>-0.129</ele>
  <time>2026-09-02T22:12:10Z</time>
  <course>188.15</course>
  <speed>0.01414213562373095</speed>
  <fix>3d</fix>
</trkpt>
<trkpt lat="33.810313" lon="-118.393867">
  <ele>-0.12</ele>
  <time>2026-09-02T22:12:10Z</time>
  <course>0.0</course>
  <speed>0.0</speed>
  <fix>3d</fix>
</trkpt>
<trkpt lat="33.810313" lon="-118.393867">
  <ele>-0.131</ele>
  <time>2026-09-02T22:12:10Z</time>
  <course>188.14</course>
  <speed>0.01414213562373095</speed>
  <fix>3d</fix>
</trkpt>
<trkpt lat="33.810313" lon="-118.393867">
  <ele>-0.12</ele>
  <time>2026-09-02T22:12:10Z</time>
  <course>0.0</course>
  <speed>0.0</speed>
  <fix>3d</fix>
</trkpt>
<trkpt lat="33.810313" lon="-118.393867">
  <ele>-0.133</ele>
  <time>2026-09-02T22:12:10Z</time>
  <course>188.13</course>
  <speed>0.01414213562373095</speed>
  <fix>3d</fix>
</trkpt>
<trkpt lat="33.810313" lon="-118.393867">
  <ele>-0.12</ele>
  <time>2026-09-02T22:12:10Z</time>
  <course>0.0</course>
  <speed>0.0</speed>
  <fix>3d</fix>
</trkpt>
<trkpt lat="33.810313" lon="-118.393867">
  <ele>-0.135</ele>
  <time>2026-09-02T22:12:10Z</time>
  <course>188.12</course>
  <speed>0.01414213562373095</speed>
  <fix>3d</fix>
</trkpt>
<trkpt lat="33.810313" lon="-118.393867">
  <ele>-0.12</ele>
  <time>2026-09-02T22:12:10Z</time>
  <course>0.0</course>
  <speed>0.0</speed>
  <fix>3d</fix>
</trkpt>
<trkpt lat="33.810313" lon="-118.393867">
  <ele>-0.136</ele>
  <time>2026-09-02T22:12:10Z</time>
  <course>188.12</course>
  <speed>0.01414213562373095</speed>
  <fix>3d</fix>
</trkpt>
<trkpt lat="33.810313" lon="-118.393867">
  <ele>-0.12</ele>
  <time>2026-09-02T22:12:10Z</time>
  <course>0.0</course>
  <speed>0.0</speed>
  <fix>3d</fix>
</trkpt>
<trkpt lat="33.810313" lon="-118.393867">
  <ele>-0.136</ele>
  <time>2026-09-02T22:12:10Z</time>
  <course>188.11</course>
  <speed>0.01414213562373095</speed>
  <fix>3d</fix>
</trkpt>
<trkpt lat="33.810313" lon="-118.393867">
  <ele>-0.12</ele>
  <time>2026-09-02T22:12:10Z</time>
  <course>0.0</course>
  <speed>0.0</speed>
  <fix>3d</fix>
</trkpt>
<trkpt lat="33.810313" lon="-118.393867">
  <ele>-0.136</ele>
  <time>2026-09-02T22:12:10Z</time>
  <course>188.1</course>
  <speed>0.01414213562373095</speed>
  <fix>3d</fix>
</trkpt>
<trkpt lat="33.810313" lon="-118.393867">
  <ele>-0.12</ele>
  <time>2026-09-02T22:12:10Z</time>
  <course>0.0</course>
  <speed>0.0</speed>
  <fix>3d</fix>
</trkpt>
<trkpt lat="33.810313" lon="-118.393867">
  <ele>-0.135</ele>
  <time>2026-09-02T22:12:10Z</time>
  <course>188.09</course>
  <speed>0.01414213562373095</speed>
  <fix>3d</fix>
</trkpt>
<trkpt lat="33.810313" lon="-118.393867">
  <ele>-0.12</ele>
  <time>2026-09-02T22:12:10Z</time>
  <course>0.0</course>
  <speed>0.0</speed>
  <fix>3d</fix>
</trkpt>
<trkpt lat="33.810313" lon="-118.393867">
  <ele>-0.134</ele>
  <time>2026-09-02T22:12:10Z</time>
  <course>188.08</course>
  <speed>0.01414213562373095</speed>
  <fix>3d</fix>
</trkpt>
<trkpt lat="33.810313" lon="-118.393867">
  <ele>-0.12</ele>
  <time>2026-09-02T22:12:10Z</time>
  <course>0.0</course>
  <speed>0.0</speed>
  <fix>3d</fix>
</trkpt>
<trkpt lat="33.810313" lon="-118.393867">
  <ele>-0.131</ele>
  <time>2026-09-02T22:12:10Z</time>
  <course>188.07</course>
  <speed>0.022360679774997897</speed>
  <fix>3d</fix>
</trkpt>
<trkpt lat="33.810313" lon="-118.393867">
  <ele>-0.12</ele>
  <time>2026-09-02T22:12:10Z</time>
  <course>0.0</course>
  <speed>0.0</speed>
  <fix>3d</fix>
</trkpt>
<trkpt lat="33.810313" lon="-118.393867">
  <ele>-0.128</ele>
  <time>2026-09-02T22:12:10Z</time>
  <course>188.07</course>
  <speed>0.022360679774997897</speed>
  <fix>3d</fix>
</trkpt>
<trkpt lat="33.810313" lon="-118.393867">
  <ele>-0.12</ele>
  <time>2026-09-02T22:12:10Z</time>
  <course>0.0</course>
  <speed>0.0</speed>
  <fix>3d</fix>
</trkpt>
<trkpt lat="33.810313" lon="-118.393867">
  <ele>-0.127</ele>
  <time>2026-09-02T22:12:10Z</time>
  <course>188.06</course>
  <speed>0.022360679774997897</speed>
  <fix>3d</fix>
</trkpt>
<trkpt lat="33.810313" lon="-118.393867">
  <ele>-0.12</ele>
  <time>2026-09-02T22:12:10Z</time>
  <course>0.0</course>
  <speed>0.0</speed>
  <fix>3d</fix>
</trkpt>
<trkpt lat="33.810313" lon="-118.393867">
  <ele>-0.126</ele>
  <time>2026-09-02T22:12:10Z</time>
  <course>188.05</course>
  <speed>0.022360679774997897</speed>
  <fix>3d</fix>
</trkpt>
<trkpt lat="33.810313" lon="-118.393867">
  <ele>-0.12</ele>
  <time>2026-09-02T22:12:10Z</time>
  <course>0.0</course>
  <speed>0.0</speed>
  <fix>3d</fix>
</trkpt>
<trkpt lat="33.810313" lon="-118.393867">
  <ele>-0.126</ele>
  <time>2026-09-02T22:12:10Z</time>
  <course>188.04</course>
  <speed>0.022360679774997897</speed>
  <fix>3d</fix>
</trkpt>
<trkpt lat="33.810313" lon="-118.393867">
  <ele>-0.12</ele>
  <time>2026-09-02T22:12:10Z</time>
  <course>0.0</course>
  <speed>0.0</speed>
  <fix>3d</fix>
</trkpt>
<trkpt lat="33.810313" lon="-118.393867">
  <ele>-0.127</ele>
  <time>2026-09-02T22:12:10Z</time>
  <course>188.03</course>
  <speed>0.022360679774997897</speed>
  <fix>3d</fix>
</trkpt>
<trkpt lat="33.810313" lon="-118.393867">
  <ele>-0.12</ele>
  <time>2026-09-02T22:12:10Z</time>
  <course>0.0</course>
  <speed>0.0</speed>
  <fix>3d</fix>
</trkpt>
<trkpt lat="33.810313" lon="-118.393867">
  <ele>-0.127</ele>
  <time>2026-09-02T22:12:10Z</time>
  <course>188.03</course>
  <speed>0.022360679774997897</speed>
  <fix>3d</fix>
</trkpt>
<trkpt lat="33.810313" lon="-118.393867">
  <ele>-0.12</ele>
  <time>2026-09-02T22:12:10Z</time>
  <course>0.0</course>
  <speed>0.0</speed>
  <fix>3d</fix>
</trkpt>
<trkpt lat="33.810313" lon="-118.393867">
  <ele>-0.127</ele>
  <time>2026-09-02T22:12:10Z</time>
  <course>188.02</course>
  <speed>0.022360679774997897</speed>
  <fix>3d</fix>
</trkpt>
<trkpt lat="33.810313" lon="-118.393867">
  <ele>-0.12</ele>
  <time>2026-09-02T22:12:10Z</time>
  <course>0.0</course>
  <speed>0.0</speed>
  <fix>3d</fix>
</trkpt>
<trkpt lat="33.810313" lon="-118.393867">
  <ele>-0.128</ele>
  <time>2026-09-02T22:12:10Z</time>
  <course>188.01</course>
  <speed>0.022360679774997897</speed>
  <fix>3d</fix>
</trkpt>
<trkpt lat="33.810313" lon="-118.393867">
  <ele>-0.12</ele>
  <time>2026-09-02T22:12:10Z</time>
  <course>0.0</course>
  <speed>0.0</speed>
  <fix>3d</fix>
</trkpt>
<trkpt lat="33.810313" lon="-118.393867">
  <ele>-0.128</ele>
  <time>2026-09-02T22:12:10Z</time>
  <course>188.0</course>
  <speed>0.022360679774997897</speed>
  <fix>3d</fix>
</trkpt>
<trkpt lat="33.810313" lon="-118.393867">
  <ele>-0.12</ele>
  <time>2026-09-02T22:12:10Z</time>
  <course>0.0</course>
  <speed>0.0</speed>
  <fix>3d</fix>
</trkpt>
<trkpt lat="33.810313" lon="-118.393867">
  <ele>-0.128</ele>
  <time>2026-09-02T22:12:10Z</time>
  <course>187.99</course>
  <speed>0.022360679774997897</speed>
  <fix>3d</fix>
</trkpt>
<trkpt lat="33.810313" lon="-118.393867">
  <ele>-0.12</ele>
  <time>2026-09-02T22:12:10Z</time>
  <course>0.0</course>
  <speed>0.0</speed>
  <fix>3d</fix>
</trkpt>
<trkpt lat="33.810313" lon="-118.393867">
  <ele>-0.126</ele>
  <time>2026-09-02T22:12:10Z</time>
  <course>187.99</course>
  <speed>0.022360679774997897</speed>
  <fix>3d</fix>
</trkpt>
<trkpt lat="33.810313" lon="-118.393867">
  <ele>-0.12</ele>
  <time>2026-09-02T22:12:10Z</time>
  <course>0.0</course>
  <speed>0.0</speed>
  <fix>3d</fix>
</trkpt>
<trkpt lat="33.810313" lon="-118.393867">
  <ele>-0.124</ele>
  <time>2026-09-02T22:12:10Z</time>
  <course>187.98</course>
  <speed>0.022360679774997897</speed>
  <fix>3d</fix>
</trkpt>
<trkpt lat="33.810313" lon="-118.393867">
  <ele>-0.12</ele>
  <time>2026-09-02T22:12:10Z</time>
  <course>0.0</course>
  <speed>0.0</speed>
  <fix>3d</fix>
</trkpt>
<trkpt lat="33.810313" lon="-118.393867">
  <ele>-0.122</ele>
  <time>2026-09-02T22:12:10Z</time>
  <course>187.97</course>
  <speed>0.022360679774997897</speed>
  <fix>3d</fix>
</trkpt>
<trkpt lat="33.810313" lon="-118.393867">
  <ele>-0.12</ele>
  <time>2026-09-02T22:12:10Z</time>
  <course>0.0</course>
  <speed>0.0</speed>
  <fix>3d</fix>
</trkpt>
<trkpt lat="33.810313" lon="-118.393867">
  <ele>-0.12</ele>
  <time>2026-09-02T22:12:10Z</time>
  <course>187.96</course>
  <speed>0.022360679774997897</speed>
  <fix>3d</fix>
</trkpt>
<trkpt lat="33.810313" lon="-118.393867">
  <ele>-0.12</ele>
  <time>2026-09-02T22:12:10Z</time>
  <course>0.0</course>
  <speed>0.0</speed>
  <fix>3d</fix>
</trkpt>
<trkpt lat="33.810313" lon="-118.393867">
  <ele>-0.12</ele>
  <time>2026-09-02T22:12:10Z</time>
  <course>187.95</course>
  <speed>0.022360679774997897</speed>
  <fix>3d</fix>
</trkpt>
<trkpt lat="33.810313" lon="-118.393867">
  <ele>-0.12</ele>
  <time>2026-09-02T22:12:10Z</time>
  <course>0.0</course>
  <speed>0.0</speed>
  <fix>3d</fix>
</trkpt>
<trkpt lat="33.810313" lon="-118.393867">
  <ele>-0.122</ele>
  <time>2026-09-02T22:12:10Z</time>
  <course>187.94</course>
  <speed>0.022360679774997897</speed>
  <fix>3d</fix>
</trkpt>
<trkpt lat="33.810313" lon="-118.393867">
  <ele>-0.12</ele>
  <time>2026-09-02T22:12:10Z</time>
  <course>0.0</course>
  <speed>0.0</speed>
  <fix>3d</fix>
</trkpt>
<trkpt lat="33.810313" lon="-118.393867">
  <ele>-0.125</ele>
  <time>2026-09-02T22:12:10Z</time>
  <course>187.94</course>
  <speed>0.022360679774997897</speed>
  <fix>3d</fix>
</trkpt>
<trkpt lat="33.810313" lon="-118.393867">
  <ele>-0.12</ele>
  <time>2026-09-02T22:12:10Z</time>
  <course>0.0</course>
  <speed>0.0</speed>
  <fix>3d</fix>
</trkpt>
<trkpt lat="33.810313" lon="-118.393867">
  <ele>-0.128</ele>
  <time>2026-09-02T22:12:10Z</time>
  <course>187.93</course>
  <speed>0.022360679774997897</speed>
  <fix>3d</fix>
</trkpt>
<trkpt lat="33.810313" lon="-118.393867">
  <ele>-0.12</ele>
  <time>2026-09-02T22:12:10Z</time>
  <course>0.0</course>
  <speed>0.0</speed>
  <fix>3d</fix>
</trkpt>
<trkpt lat="33.810313" lon="-118.393867">
  <ele>-0.131</ele>
  <time>2026-09-02T22:12:10Z</time>
  <course>187.92</course>
  <speed>0.022360679774997897</speed>
  <fix>3d</fix>
</trkpt>
<trkpt lat="33.810313" lon="-118.393867">
  <ele>-0.12</ele>
  <time>2026-09-02T22:12:10Z</time>
  <course>0.0</course>
  <speed>0.0</speed>
  <fix>3d</fix>
</trkpt>
<trkpt lat="33.810313" lon="-118.393867">
  <ele>-0.132</ele>
  <time>2026-09-02T22:12:10Z</time>
  <course>187.91</course>
  <speed>0.022360679774997897</speed>
  <fix>3d</fix>
</trkpt>
<trkpt lat="33.810313" lon="-118.393867">
  <ele>-0.12</ele>
  <time>2026-09-02T22:12:10Z</time>
  <course>0.0</course>
  <speed>0.0</speed>
  <fix>3d</fix>
</trkpt>
<trkpt lat="33.810313" lon="-118.393867">
  <ele>-0.132</ele>
  <time>2026-09-02T22:12:10Z</time>
  <course>187.91</course>
  <speed>0.022360679774997897</speed>
  <fix>3d</fix>
</trkpt>
<trkpt lat="33.810313" lon="-118.393867">
  <ele>-0.12</ele>
  <time>2026-09-02T22:12:10Z</time>
  <course>0.0</course>
  <speed>0.0</speed>
  <fix>3d</fix>
</trkpt>
<trkpt lat="33.810313" lon="-118.393867">
  <ele>-0.132</ele>
  <time>2026-09-02T22:12:10Z</time>
  <course>187.9</course>
  <speed>0.022360679774997897</speed>
  <fix>3d</fix>
</trkpt>
<trkpt lat="33.810313" lon="-118.393867">
  <ele>-0.12</ele>
  <time>2026-09-02T22:12:10Z</time>
  <course>0.0</course>
  <speed>0.0</speed>
  <fix>3d</fix>
</trkpt>
<trkpt lat="33.810313" lon="-118.393867">
  <ele>-0.13</ele>
  <time>2026-09-02T22:12:10Z</time>
  <course>187.89</course>
  <speed>0.022360679774997897</speed>
  <fix>3d</fix>
</trkpt>
<trkpt lat="33.810313" lon="-118.393867">
  <ele>-0.12</ele>
  <time>2026-09-02T22:12:10Z</time>
  <course>0.0</course>
  <speed>0.0</speed>
  <fix>3d</fix>
</trkpt>
<trkpt lat="33.810313" lon="-118.393867">
  <ele>-0.127</ele>
  <time>2026-09-02T22:12:10Z</time>
  <course>187.88</course>
  <speed>0.022360679774997897</speed>
  <fix>3d</fix>
</trkpt>
<trkpt lat="33.810313" lon="-118.393867">
  <ele>-0.12</ele>
  <time>2026-09-02T22:12:10Z</time>
  <course>0.0</course>
  <speed>0.0</speed>
  <fix>3d</fix>
</trkpt>
<trkpt lat="33.810313" lon="-118.393867">
  <ele>-0.123</ele>
  <time>2026-09-02T22:12:10Z</time>
  <course>187.87</course>
  <speed>0.022360679774997897</speed>
  <fix>3d</fix>
</trkpt>
<trkpt lat="33.810313" lon="-118.393867">
  <ele>-0.12</ele>
  <time>2026-09-02T22:12:10Z</time>
  <course>0.0</course>
  <speed>0.0</speed>
  <fix>3d</fix>
</trkpt>
<trkpt lat="33.810313" lon="-118.393867">
  <ele>-0.121</ele>
  <time>2026-09-02T22:12:10Z</time>
  <course>187.87</course>
  <speed>0.022360679774997897</speed>
  <fix>3d</fix>
</trkpt>
<trkpt lat="33.810313" lon="-118.393867">
  <ele>-0.12</ele>
  <time>2026-09-02T22:12:10Z</time>
  <course>0.0</course>
  <speed>0.0</speed>
  <fix>3d</fix>
</trkpt>
<trkpt lat="33.810313" lon="-118.393867">
  <ele>-0.121</ele>
  <time>2026-09-02T22:12:10Z</time>
  <course>187.86</course>
  <speed>0.022360679774997897</speed>
  <fix>3d</fix>
</trkpt>
<trkpt lat="33.810313" lon="-118.393867">
  <ele>-0.12</ele>
  <time>2026-09-02T22:12:10Z</time>
  <course>0.0</course>
  <speed>0.0</speed>
  <fix>3d</fix>
</trkpt>
<trkpt lat="33.810313" lon="-118.393867">
  <ele>-0.123</ele>
  <time>2026-09-02T22:12:10Z</time>
  <course>187.85</course>
  <speed>0.022360679774997897</speed>
  <fix>3d</fix>
</trkpt>
<trkpt lat="33.810313" lon="-118.393867">
  <ele>-0.12</ele>
  <time>2026-09-02T22:12:10Z</time>
  <course>0.0</course>
  <speed>0.0</speed>
  <fix>3d</fix>
</trkpt>
<trkpt lat="33.810313" lon="-118.393867">
  <ele>-0.124</ele>
  <time>2026-09-02T22:12:10Z</time>
  <course>187.84</course>
  <speed>0.022360679774997897</speed>
  <fix>3d</fix>
</trkpt>
<trkpt lat="33.810313" lon="-118.393867">
  <ele>-0.12</ele>
  <time>2026-09-02T22:12:10Z</time>
  <course>0.0</course>
  <speed>0.0</speed>
  <fix>3d</fix>
</trkpt>
<trkpt lat="33.810313" lon="-118.393867">
  <ele>-0.126</ele>
  <time>2026-09-02T22:12:10Z</time>
  <course>187.83</course>
  <speed>0.022360679774997897</speed>
  <fix>3d</fix>
</trkpt>
<trkpt lat="33.810313" lon="-118.393867">
  <ele>-0.12</ele>
  <time>2026-09-02T22:12:10Z</time>
  <course>0.0</course>
  <speed>0.0</speed>
  <fix>3d</fix>
</trkpt>
<trkpt lat="33.810313" lon="-118.393867">
  <ele>-0.127</ele>
  <time>2026-09-02T22:12:10Z</time>
  <course>187.83</course>
  <speed>0.022360679774997897</speed>
  <fix>3d</fix>
</trkpt>
<trkpt lat="33.810313" lon="-118.393867">
  <ele>-0.12</ele>
  <time>2026-09-02T22:12:10Z</time>
  <course>0.0</course>
  <speed>0.0</speed>
  <fix>3d</fix>
</trkpt>
<trkpt lat="33.810313" lon="-118.393867">
  <ele>-0.127</ele>
  <time>2026-09-02T22:12:10Z</time>
  <course>187.82</course>
  <speed>0.022360679774997897</speed>
  <fix>3d</fix>
</trkpt>
<trkpt lat="33.810313" lon="-118.393867">
  <ele>-0.12</ele>
  <time>2026-09-02T22:12:10Z</time>
  <course>0.0</course>
  <speed>0.0</speed>
  <fix>3d</fix>
</trkpt>
<trkpt lat="33.810313" lon="-118.393867">
  <ele>-0.127</ele>
  <time>2026-09-02T22:12:10Z</time>
  <course>187.81</course>
  <speed>0.022360679774997897</speed>
  <fix>3d</fix>
</trkpt>
<trkpt lat="33.810313" lon="-118.393867">
  <ele>-0.12</ele>
  <time>2026-09-02T22:12:10Z</time>
  <course>0.0</course>
  <speed>0.0</speed>
  <fix>3d</fix>
</trkpt>
<trkpt lat="33.810313" lon="-118.393867">
  <ele>-0.126</ele>
  <time>2026-09-02T22:12:10Z</time>
  <course>187.8</course>
  <speed>0.022360679774997897</speed>
  <fix>3d</fix>
</trkpt>
<trkpt lat="33.810313" lon="-118.393867">
  <ele>-0.12</ele>
  <time>2026-09-02T22:12:10Z</time>
  <course>0.0</course>
  <speed>0.0</speed>
  <fix>3d</fix>
</trkpt>
<trkpt lat="33.810313" lon="-118.393867">
  <ele>-0.124</ele>
  <time>2026-09-02T22:12:10Z</time>
  <course>187.8</course>
  <speed>0.022360679774997897</speed>
  <fix>3d</fix>
</trkpt>
<trkpt lat="33.810313" lon="-118.393867">
  <ele>-0.12</ele>
  <time>2026-09-02T22:12:10Z</time>
  <course>0.0</course>
  <speed>0.0</speed>
  <fix>3d</fix>
</trkpt>
<trkpt lat="33.810313" lon="-118.393867">
  <ele>-0.121</ele>
  <time>2026-09-02T22:12:10Z</time>
  <course>187.79</course>
  <speed>0.022360679774997897</speed>
  <fix>3d</fix>
</trkpt>
<trkpt lat="33.810313" lon="-118.393867">
  <ele>-0.12</ele>
  <time>2026-09-02T22:12:10Z</time>
  <course>0.0</course>
  <speed>0.0</speed>
  <fix>3d</fix>
</trkpt>
<trkpt lat="33.810313" lon="-118.393867">
  <ele>-0.119</ele>
  <time>2026-09-02T22:12:10Z</time>
  <course>187.78</course>
  <speed>0.022360679774997897</speed>
  <fix>3d</fix>
</trkpt>
<trkpt lat="33.810313" lon="-118.393867">
  <ele>-0.12</ele>
  <time>2026-09-02T22:12:10Z</time>
  <course>0.0</course>
  <speed>0.0</speed>
  <fix>3d</fix>
</trkpt>
<trkpt lat="33.810313" lon="-118.393867">
  <ele>-0.118</ele>
  <time>2026-09-02T22:12:10Z</time>
  <course>187.77</course>
  <speed>0.022360679774997897</speed>
  <fix>3d</fix>
</trkpt>
<trkpt lat="33.810313" lon="-118.393867">
  <ele>-0.12</ele>
  <time>2026-09-02T22:12:10Z</time>
  <course>0.0</course>
  <speed>0.0</speed>
  <fix>3d</fix>
</trkpt>
<trkpt lat="33.810313" lon="-118.393867">
  <ele>-0.118</ele>
  <time>2026-09-02T22:12:10Z</time>
  <course>187.77</course>
  <speed>0.022360679774997897</speed>
  <fix>3d</fix>
</trkpt>
<trkpt lat="33.810313" lon="-118.393867">
  <ele>-0.12</ele>
  <time>2026-09-02T22:12:10Z</time>
  <course>0.0</course>
  <speed>0.0</speed>
  <fix>3d</fix>
</trkpt>
<trkpt lat="33.810313" lon="-118.393867">
  <ele>-0.119</ele>
  <time>2026-09-02T22:12:10Z</time>
  <course>187.76</course>
  <speed>0.022360679774997897</speed>
  <fix>3d</fix>
</trkpt>
<trkpt lat="33.810313" lon="-118.393867">
  <ele>-0.12</ele>
  <time>2026-09-02T22:12:10Z</time>
  <course>0.0</course>
  <speed>0.0</speed>
  <fix>3d</fix>
</trkpt>
<trkpt lat="33.810313" lon="-118.393867">
  <ele>-0.12</ele>
  <time>2026-09-02T22:12:10Z</time>
  <course>187.75</course>
  <speed>0.022360679774997897</speed>
  <fix>3d</fix>
</trkpt>
<trkpt lat="33.810313" lon="-118.393867">
  <ele>-0.12</ele>
  <time>2026-09-02T22:12:10Z</time>
  <course>0.0</course>
  <speed>0.0</speed>
  <fix>3d</fix>
</trkpt>
<trkpt lat="33.810313" lon="-118.393867">
  <ele>-0.12</ele>
  <time>2026-09-02T22:12:10Z</time>
  <course>187.74</course>
  <speed>0.0282842712474619</speed>
  <fix>3d</fix>
</trkpt>
<trkpt lat="33.810313" lon="-118.393867">
  <ele>-0.12</ele>
  <time>2026-09-02T22:12:10Z</time>
  <course>0.0</course>
  <speed>0.0</speed>
  <fix>3d</fix>
</trkpt>
<trkpt lat="33.810313" lon="-118.393867">
  <ele>-0.12</ele>
  <time>2026-09-02T22:12:11Z</time>
  <course>187.74</course>
  <speed>0.0282842712474619</speed>
  <fix>3d</fix>
</trkpt>
<trkpt lat="33.810313" lon="-118.393867">
  <ele>-0.12</ele>
  <time>2026-09-02T22:12:11Z</time>
  <course>0.0</course>
  <speed>0.0</speed>
  <fix>3d</fix>
</trkpt>
<trkpt lat="33.810313" lon="-118.393867">
  <ele>-0.119</ele>
  <time>2026-09-02T22:12:11Z</time>
  <course>187.73</course>
  <speed>0.0282842712474619</speed>
  <fix>3d</fix>
</trkpt>
<trkpt lat="33.810313" lon="-118.393867">
  <ele>-0.12</ele>
  <time>2026-09-02T22:12:11Z</time>
  <course>0.0</course>
  <speed>0.0</speed>
  <fix>3d</fix>
</trkpt>
<trkpt lat="33.810313" lon="-118.393867">
  <ele>-0.118</ele>
  <time>2026-09-02T22:12:11Z</time>
  <course>187.72</course>
  <speed>0.0282842712474619</speed>
  <fix>3d</fix>
</trkpt>
<trkpt lat="33.810313" lon="-118.393867">
  <ele>-0.12</ele>
  <time>2026-09-02T22:12:11Z</time>
  <course>0.0</course>
  <speed>0.0</speed>
  <fix>3d</fix>
</trkpt>
<trkpt lat="33.810313" lon="-118.393867">
  <ele>-0.116</ele>
  <time>2026-09-02T22:12:11Z</time>
  <course>187.71</course>
  <speed>0.0282842712474619</speed>
  <fix>3d</fix>
</trkpt>
<trkpt lat="33.810313" lon="-118.393867">
  <ele>-0.12</ele>
  <time>2026-09-02T22:12:11Z</time>
  <course>0.0</course>
  <speed>0.0</speed>
  <fix>3d</fix>
</trkpt>
<trkpt lat="33.810313" lon="-118.393867">
  <ele>-0.114</ele>
  <time>2026-09-02T22:12:11Z</time>
  <course>187.71</course>
  <speed>0.0282842712474619</speed>
  <fix>3d</fix>
</trkpt>
<trkpt lat="33.810313" lon="-118.393867">
  <ele>-0.12</ele>
  <time>2026-09-02T22:12:11Z</time>
  <course>0.0</course>
  <speed>0.0</speed>
  <fix>3d</fix>
</trkpt>
<trkpt lat="33.810313" lon="-118.393867">
  <ele>-0.112</ele>
  <time>2026-09-02T22:12:11Z</time>
  <course>187.7</course>
  <speed>0.0282842712474619</speed>
  <fix>3d</fix>
</trkpt>
<trkpt lat="33.810313" lon="-118.393867">
  <ele>-0.12</ele>
  <time>2026-09-02T22:12:11Z</time>
  <course>0.0</course>
  <speed>0.0</speed>
  <fix>3d</fix>
</trkpt>
<trkpt lat="33.810313" lon="-118.393867">
  <ele>-0.113</ele>
  <time>2026-09-02T22:12:11Z</time>
  <course>187.69</course>
  <speed>0.0282842712474619</speed>
  <fix>3d</fix>
</trkpt>
<trkpt lat="33.810313" lon="-118.393867">
  <ele>-0.12</ele>
  <time>2026-09-02T22:12:11Z</time>
  <course>0.0</course>
  <speed>0.0</speed>
  <fix>3d</fix>
</trkpt>
<trkpt lat="33.810313" lon="-118.393867">
  <ele>-0.115</ele>
  <time>2026-09-02T22:12:11Z</time>
  <course>187.69</course>
  <speed>0.0282842712474619</speed>
  <fix>3d</fix>
</trkpt>
<trkpt lat="33.810313" lon="-118.393867">
  <ele>-0.12</ele>
  <time>2026-09-02T22:12:11Z</time>
  <course>0.0</course>
  <speed>0.0</speed>
  <fix>3d</fix>
</trkpt>
<trkpt lat="33.810313" lon="-118.393867">
  <ele>-0.119</ele>
  <time>2026-09-02T22:12:11Z</time>
  <course>187.68</course>
  <speed>0.0282842712474619</speed>
  <fix>3d</fix>
</trkpt>
<trkpt lat="33.810313" lon="-118.393867">
  <ele>-0.12</ele>
  <time>2026-09-02T22:12:11Z</time>
  <course>0.0</course>
  <speed>0.0</speed>
  <fix>3d</fix>
</trkpt>
<trkpt lat="33.810313" lon="-118.393867">
  <ele>-0.123</ele>
  <time>2026-09-02T22:12:11Z</time>
  <course>187.67</course>
  <speed>0.0282842712474619</speed>
  <fix>3d</fix>
</trkpt>
<trkpt lat="33.810313" lon="-118.393867">
  <ele>-0.12</ele>
  <time>2026-09-02T22:12:11Z</time>
  <course>0.0</course>
  <speed>0.0</speed>
  <fix>3d</fix>
</trkpt>
<trkpt lat="33.810313" lon="-118.393867">
  <ele>-0.128</ele>
  <time>2026-09-02T22:12:11Z</time>
  <course>187.66</course>
  <speed>0.0282842712474619</speed>
  <fix>3d</fix>
</trkpt>
<trkpt lat="33.810313" lon="-118.393867">
  <ele>-0.12</ele>
  <time>2026-09-02T22:12:11Z</time>
  <course>0.0</course>
  <speed>0.0</speed>
  <fix>3d</fix>
</trkpt>
<trkpt lat="33.810313" lon="-118.393867">
  <ele>-0.132</ele>
  <time>2026-09-02T22:12:11Z</time>
  <course>187.66</course>
  <speed>0.0282842712474619</speed>
  <fix>3d</fix>
</trkpt>
<trkpt lat="33.810313" lon="-118.393867">
  <ele>-0.12</ele>
  <time>2026-09-02T22:12:11Z</time>
  <course>0.0</course>
  <speed>0.0</speed>
  <fix>3d</fix>
</trkpt>
<trkpt lat="33.810313" lon="-118.393867">
  <ele>-0.134</ele>
  <time>2026-09-02T22:12:11Z</time>
  <course>187.65</course>
  <speed>0.0282842712474619</speed>
  <fix>3d</fix>
</trkpt>
<trkpt lat="33.810313" lon="-118.393867">
  <ele>-0.12</ele>
  <time>2026-09-02T22:12:11Z</time>
  <course>0.0</course>
  <speed>0.0</speed>
  <fix>3d</fix>
</trkpt>
<trkpt lat="33.810313" lon="-118.393867">
  <ele>-0.135</ele>
  <time>2026-09-02T22:12:11Z</time>
  <course>187.64</course>
  <speed>0.0282842712474619</speed>
  <fix>3d</fix>
</trkpt>
<trkpt lat="33.810313" lon="-118.393867">
  <ele>-0.12</ele>
  <time>2026-09-02T22:12:11Z</time>
  <course>0.0</course>
  <speed>0.0</speed>
  <fix>3d</fix>
</trkpt>
<trkpt lat="33.810313" lon="-118.393867">
  <ele>-0.135</ele>
  <time>2026-09-02T22:12:11Z</time>
  <course>187.64</course>
  <speed>0.0282842712474619</speed>
  <fix>3d</fix>
</trkpt>
<trkpt lat="33.810313" lon="-118.393867">
  <ele>-0.12</ele>
  <time>2026-09-02T22:12:11Z</time>
  <course>0.0</course>
  <speed>0.0</speed>
  <fix>3d</fix>
</trkpt>
<trkpt lat="33.810313" lon="-118.393867">
  <ele>-0.133</ele>
  <time>2026-09-02T22:12:11Z</time>
  <course>187.63</course>
  <speed>0.0282842712474619</speed>
  <fix>3d</fix>
</trkpt>
<trkpt lat="33.810313" lon="-118.393867">
  <ele>-0.12</ele>
  <time>2026-09-02T22:12:11Z</time>
  <course>0.0</course>
  <speed>0.0</speed>
  <fix>3d</fix>
</trkpt>
<trkpt lat="33.810313" lon="-118.393867">
  <ele>-0.132</ele>
  <time>2026-09-02T22:12:11Z</time>
  <course>187.63</course>
  <speed>0.0282842712474619</speed>
  <fix>3d</fix>
</trkpt>
<trkpt lat="33.810313" lon="-118.393867">
  <ele>-0.12</ele>
  <time>2026-09-02T22:12:11Z</time>
  <course>0.0</course>
  <speed>0.0</speed>
  <fix>3d</fix>
</trkpt>
<trkpt lat="33.810313" lon="-118.393867">
  <ele>-0.132</ele>
  <time>2026-09-02T22:12:11Z</time>
  <course>187.62</course>
  <speed>0.03605551275463989</speed>
  <fix>3d</fix>
</trkpt>
<trkpt lat="33.810313" lon="-118.393867">
  <ele>-0.12</ele>
  <time>2026-09-02T22:12:11Z</time>
  <course>0.0</course>
  <speed>0.0</speed>
  <fix>3d</fix>
</trkpt>
<trkpt lat="33.810313" lon="-118.393867">
  <ele>-0.132</ele>
  <time>2026-09-02T22:12:11Z</time>
  <course>187.61</course>
  <speed>0.03605551275463989</speed>
  <fix>3d</fix>
</trkpt>
<trkpt lat="33.810313" lon="-118.393867">
  <ele>-0.12</ele>
  <time>2026-09-02T22:12:11Z</time>
  <course>0.0</course>
  <speed>0.0</speed>
  <fix>3d</fix>
</trkpt>
<trkpt lat="33.810313" lon="-118.393867">
  <ele>-0.133</ele>
  <time>2026-09-02T22:12:11Z</time>
  <course>187.61</course>
  <speed>0.03605551275463989</speed>
  <fix>3d</fix>
</trkpt>
<trkpt lat="33.810313" lon="-118.393867">
  <ele>-0.12</ele>
  <time>2026-09-02T22:12:11Z</time>
  <course>0.0</course>
  <speed>0.0</speed>
  <fix>3d</fix>
</trkpt>
<trkpt lat="33.810313" lon="-118.393867">
  <ele>-0.134</ele>
  <time>2026-09-02T22:12:11Z</time>
  <course>187.6</course>
  <speed>0.03605551275463989</speed>
  <fix>3d</fix>
</trkpt>
<trkpt lat="33.810313" lon="-118.393867">
  <ele>-0.12</ele>
  <time>2026-09-02T22:12:11Z</time>
  <course>0.0</course>
  <speed>0.0</speed>
  <fix>3d</fix>
</trkpt>
<trkpt lat="33.810313" lon="-118.393867">
  <ele>-0.133</ele>
  <time>2026-09-02T22:12:11Z</time>
  <course>187.59</course>
  <speed>0.03605551275463989</speed>
  <fix>3d</fix>
</trkpt>
<trkpt lat="33.810313" lon="-118.393867">
  <ele>-0.12</ele>
  <time>2026-09-02T22:12:11Z</time>
  <course>0.0</course>
  <speed>0.0</speed>
  <fix>3d</fix>
</trkpt>
<trkpt lat="33.810313" lon="-118.393867">
  <ele>-0.132</ele>
  <time>2026-09-02T22:12:11Z</time>
  <course>187.59</course>
  <speed>0.03605551275463989</speed>
  <fix>3d</fix>
</trkpt>
<trkpt lat="33.810313" lon="-118.393867">
  <ele>-0.12</ele>
  <time>2026-09-02T22:12:11Z</time>
  <course>0.0</course>
  <speed>0.0</speed>
  <fix>3d</fix>
</trkpt>
<trkpt lat="33.810313" lon="-118.393867">
  <ele>-0.13</ele>
  <time>2026-09-02T22:12:11Z</time>
  <course>187.58</course>
  <speed>0.03605551275463989</speed>
  <fix>3d</fix>
</trkpt>
<trkpt lat="33.810313" lon="-118.393867">
  <ele>-0.12</ele>
  <time>2026-09-02T22:12:11Z</time>
  <course>0.0</course>
  <speed>0.0</speed>
  <fix>3d</fix>
</trkpt>
<trkpt lat="33.810313" lon="-118.393867">
  <ele>-0.127</ele>
  <time>2026-09-02T22:12:11Z</time>
  <course>187.57</course>
  <speed>0.03605551275463989</speed>
  <fix>3d</fix>
</trkpt>
<trkpt lat="33.810313" lon="-118.393867">
  <ele>-0.12</ele>
  <time>2026-09-02T22:12:11Z</time>
  <course>0.0</course>
  <speed>0.0</speed>
  <fix>3d</fix>
</trkpt>
<trkpt lat="33.810313" lon="-118.393867">
  <ele>-0.125</ele>
  <time>2026-09-02T22:12:11Z</time>
  <course>187.57</course>
  <speed>0.03605551275463989</speed>
  <fix>3d</fix>
</trkpt>
<trkpt lat="33.810313" lon="-118.393867">
  <ele>-0.12</ele>
  <time>2026-09-02T22:12:11Z</time>
  <course>0.0</course>
  <speed>0.0</speed>
  <fix>3d</fix>
</trkpt>
<trkpt lat="33.810313" lon="-118.393867">
  <ele>-0.122</ele>
  <time>2026-09-02T22:12:11Z</time>
  <course>187.56</course>
  <speed>0.03605551275463989</speed>
  <fix>3d</fix>
</trkpt>
<trkpt lat="33.810313" lon="-118.393867">
  <ele>-0.12</ele>
  <time>2026-09-02T22:12:11Z</time>
  <course>0.0</course>
  <speed>0.0</speed>
  <fix>3d</fix>
</trkpt>
<trkpt lat="33.810313" lon="-118.393867">
  <ele>-0.119</ele>
  <time>2026-09-02T22:12:11Z</time>
  <course>187.55</course>
  <speed>0.03605551275463989</speed>
  <fix>3d</fix>
</trkpt>
<trkpt lat="33.810313" lon="-118.393867">
  <ele>-0.12</ele>
  <time>2026-09-02T22:12:11Z</time>
  <course>0.0</course>
  <speed>0.0</speed>
  <fix>3d</fix>
</trkpt>
<trkpt lat="33.810313" lon="-118.393867">
  <ele>-0.117</ele>
  <time>2026-09-02T22:12:11Z</time>
  <course>187.55</course>
  <speed>0.03605551275463989</speed>
  <fix>3d</fix>
</trkpt>
<trkpt lat="33.810313" lon="-118.393867">
  <ele>-0.12</ele>
  <time>2026-09-02T22:12:11Z</time>
  <course>0.0</course>
  <speed>0.0</speed>
  <fix>3d</fix>
</trkpt>
<trkpt lat="33.810313" lon="-118.393867">
  <ele>-0.117</ele>
  <time>2026-09-02T22:12:11Z</time>
  <course>187.54</course>
  <speed>0.03605551275463989</speed>
  <fix>3d</fix>
</trkpt>
<trkpt lat="33.810313" lon="-118.393867">
  <ele>-0.12</ele>
  <time>2026-09-02T22:12:11Z</time>
  <course>0.0</course>
  <speed>0.0</speed>
  <fix>3d</fix>
</trkpt>
<trkpt lat="33.810313" lon="-118.393867">
  <ele>-0.118</ele>
  <time>2026-09-02T22:12:11Z</time>
  <course>187.53</course>
  <speed>0.03605551275463989</speed>
  <fix>3d</fix>
</trkpt>
<trkpt lat="33.810313" lon="-118.393867">
  <ele>-0.12</ele>
  <time>2026-09-02T22:12:11Z</time>
  <course>0.0</course>
  <speed>0.0</speed>
  <fix>3d</fix>
</trkpt>
<trkpt lat="33.810313" lon="-118.393867">
  <ele>-0.119</ele>
  <time>2026-09-02T22:12:11Z</time>
  <course>187.53</course>
  <speed>0.03605551275463989</speed>
  <fix>3d</fix>
</trkpt>
<trkpt lat="33.810313" lon="-118.393867">
  <ele>-0.12</ele>
  <time>2026-09-02T22:12:11Z</time>
  <course>0.0</course>
  <speed>0.0</speed>
  <fix>3d</fix>
</trkpt>
<trkpt lat="33.810313" lon="-118.393867">
  <ele>-0.12</ele>
  <time>2026-09-02T22:12:11Z</time>
  <course>187.52</course>
  <speed>0.03605551275463989</speed>
  <fix>3d</fix>
</trkpt>
<trkpt lat="33.810313" lon="-118.393867">
  <ele>-0.12</ele>
  <time>2026-09-02T22:12:11Z</time>
  <course>0.0</course>
  <speed>0.0</speed>
  <fix>3d</fix>
</trkpt>
<trkpt lat="33.810313" lon="-118.393867">
  <ele>-0.121</ele>
  <time>2026-09-02T22:12:11Z</time>
  <course>187.51</course>
  <speed>0.03605551275463989</speed>
  <fix>3d</fix>
</trkpt>
<trkpt lat="33.810313" lon="-118.393867">
  <ele>-0.12</ele>
  <time>2026-09-02T22:12:11Z</time>
  <course>0.0</course>
  <speed>0.0</speed>
  <fix>3d</fix>
</trkpt>
<trkpt lat="33.810313" lon="-118.393867">
  <ele>-0.121</ele>
  <time>2026-09-02T22:12:11Z</time>
  <course>187.51</course>
  <speed>0.03605551275463989</speed>
  <fix>3d</fix>
</trkpt>
<trkpt lat="33.810313" lon="-118.393867">
  <ele>-0.12</ele>
  <time>2026-09-02T22:12:11Z</time>
  <course>0.0</course>
  <speed>0.0</speed>
  <fix>3d</fix>
</trkpt>
<trkpt lat="33.810313" lon="-118.393867">
  <ele>-0.121</ele>
  <time>2026-09-02T22:12:11Z</time>
  <course>187.5</course>
  <speed>0.03605551275463989</speed>
  <fix>3d</fix>
</trkpt>
<trkpt lat="33.810313" lon="-118.393867">
  <ele>-0.12</ele>
  <time>2026-09-02T22:12:11Z</time>
  <course>0.0</course>
  <speed>0.0</speed>
  <fix>3d</fix>
</trkpt>
<trkpt lat="33.810313" lon="-118.393867">
  <ele>-0.121</ele>
  <time>2026-09-02T22:12:11Z</time>
  <course>187.49</course>
  <speed>0.03605551275463989</speed>
  <fix>3d</fix>
</trkpt>
<trkpt lat="33.810313" lon="-118.393867">
  <ele>-0.12</ele>
  <time>2026-09-02T22:12:11Z</time>
  <course>0.0</course>
  <speed>0.0</speed>
  <fix>3d</fix>
</trkpt>
<trkpt lat="33.810313" lon="-118.393867">
  <ele>-0.121</ele>
  <time>2026-09-02T22:12:11Z</time>
  <course>187.49</course>
  <speed>0.03605551275463989</speed>
  <fix>3d</fix>
</trkpt>
<trkpt lat="33.810313" lon="-118.393867">
  <ele>-0.12</ele>
  <time>2026-09-02T22:12:11Z</time>
  <course>0.0</course>
  <speed>0.0</speed>
  <fix>3d</fix>
</trkpt>
<trkpt lat="33.810313" lon="-118.393867">
  <ele>-0.121</ele>
  <time>2026-09-02T22:12:11Z</time>
  <course>187.48</course>
  <speed>0.03605551275463989</speed>
  <fix>3d</fix>
</trkpt>
<trkpt lat="33.810313" lon="-118.393867">
  <ele>-0.12</ele>
  <time>2026-09-02T22:12:11Z</time>
  <course>0.0</course>
  <speed>0.0</speed>
  <fix>3d</fix>
</trkpt>
<trkpt lat="33.810313" lon="-118.393867">
  <ele>-0.122</ele>
  <time>2026-09-02T22:12:11Z</time>
  <course>187.47</course>
  <speed>0.03605551275463989</speed>
  <fix>3d</fix>
</trkpt>
<trkpt lat="33.810313" lon="-118.393867">
  <ele>-0.12</ele>
  <time>2026-09-02T22:12:11Z</time>
  <course>0.0</course>
  <speed>0.0</speed>
  <fix>3d</fix>
</trkpt>
<trkpt lat="33.810313" lon="-118.393867">
  <ele>-0.124</ele>
  <time>2026-09-02T22:12:11Z</time>
  <course>187.47</course>
  <speed>0.03605551275463989</speed>
  <fix>3d</fix>
</trkpt>
<trkpt lat="33.810313" lon="-118.393867">
  <ele>-0.12</ele>
  <time>2026-09-02T22:12:11Z</time>
  <course>0.0</course>
  <speed>0.0</speed>
  <fix>3d</fix>
</trkpt>
<trkpt lat="33.810313" lon="-118.393867">
  <ele>-0.127</ele>
  <time>2026-09-02T22:12:11Z</time>
  <course>187.46</course>
  <speed>0.03605551275463989</speed>
  <fix>3d</fix>
</trkpt>
<trkpt lat="33.810313" lon="-118.393867">
  <ele>-0.12</ele>
  <time>2026-09-02T22:12:11Z</time>
  <course>0.0</course>
  <speed>0.0</speed>
  <fix>3d</fix>
</trkpt>
<trkpt lat="33.810313" lon="-118.393867">
  <ele>-0.129</ele>
  <time>2026-09-02T22:12:11Z</time>
  <course>187.46</course>
  <speed>0.03605551275463989</speed>
  <fix>3d</fix>
</trkpt>
<trkpt lat="33.810313" lon="-118.393867">
  <ele>-0.12</ele>
  <time>2026-09-02T22:12:11Z</time>
  <course>0.0</course>
  <speed>0.0</speed>
  <fix>3d</fix>
</trkpt>
<trkpt lat="33.810313" lon="-118.393867">
  <ele>-0.131</ele>
  <time>2026-09-02T22:12:11Z</time>
  <course>187.45</course>
  <speed>0.03605551275463989</speed>
  <fix>3d</fix>
</trkpt>
<trkpt lat="33.810313" lon="-118.393867">
  <ele>-0.12</ele>
  <time>2026-09-02T22:12:11Z</time>
  <course>0.0</course>
  <speed>0.0</speed>
  <fix>3d</fix>
</trkpt>
<trkpt lat="33.810313" lon="-118.393867">
  <ele>-0.132</ele>
  <time>2026-09-02T22:12:11Z</time>
  <course>187.44</course>
  <speed>0.03605551275463989</speed>
  <fix>3d</fix>
</trkpt>
<trkpt lat="33.810313" lon="-118.393867">
  <ele>-0.12</ele>
  <time>2026-09-02T22:12:11Z</time>
  <course>0.0</course>
  <speed>0.0</speed>
  <fix>3d</fix>
</trkpt>
<trkpt lat="33.810313" lon="-118.393867">
  <ele>-0.132</ele>
  <time>2026-09-02T22:12:11Z</time>
  <course>187.44</course>
  <speed>0.03605551275463989</speed>
  <fix>3d</fix>
</trkpt>
<trkpt lat="33.810313" lon="-118.393867">
  <ele>-0.12</ele>
  <time>2026-09-02T22:12:11Z</time>
  <course>0.0</course>
  <speed>0.0</speed>
  <fix>3d</fix>
</trkpt>
<trkpt lat="33.810313" lon="-118.393867">
  <ele>-0.132</ele>
  <time>2026-09-02T22:12:11Z</time>
  <course>187.43</course>
  <speed>0.03605551275463989</speed>
  <fix>3d</fix>
</trkpt>
<trkpt lat="33.810313" lon="-118.393867">
  <ele>-0.12</ele>
  <time>2026-09-02T22:12:11Z</time>
  <course>0.0</course>
  <speed>0.0</speed>
  <fix>3d</fix>
</trkpt>
<trkpt lat="33.810313" lon="-118.393867">
  <ele>-0.132</ele>
  <time>2026-09-02T22:12:11Z</time>
  <course>187.42</course>
  <speed>0.03605551275463989</speed>
  <fix>3d</fix>
</trkpt>
<trkpt lat="33.810313" lon="-118.393867">
  <ele>-0.12</ele>
  <time>2026-09-02T22:12:11Z</time>
  <course>0.0</course>
  <speed>0.0</speed>
  <fix>3d</fix>
</trkpt>
<trkpt lat="33.810313" lon="-118.393867">
  <ele>-0.131</ele>
  <time>2026-09-02T22:12:11Z</time>
  <course>187.42</course>
  <speed>0.03605551275463989</speed>
  <fix>3d</fix>
</trkpt>
<trkpt lat="33.810313" lon="-118.393867">
  <ele>-0.12</ele>
  <time>2026-09-02T22:12:11Z</time>
  <course>0.0</course>
  <speed>0.0</speed>
  <fix>3d</fix>
</trkpt>
<trkpt lat="33.810313" lon="-118.393867">
  <ele>-0.131</ele>
  <time>2026-09-02T22:12:11Z</time>
  <course>187.41</course>
  <speed>0.03605551275463989</speed>
  <fix>3d</fix>
</trkpt>
<trkpt lat="33.810313" lon="-118.393867">
  <ele>-0.12</ele>
  <time>2026-09-02T22:12:11Z</time>
  <course>0.0</course>
  <speed>0.0</speed>
  <fix>3d</fix>
</trkpt>
<trkpt lat="33.810313" lon="-118.393867">
  <ele>-0.132</ele>
  <time>2026-09-02T22:12:11Z</time>
  <course>187.41</course>
  <speed>0.03605551275463989</speed>
  <fix>3d</fix>
</trkpt>
<trkpt lat="33.810313" lon="-118.393867">
  <ele>-0.12</ele>
  <time>2026-09-02T22:12:11Z</time>
  <course>0.0</course>
  <speed>0.0</speed>
  <fix>3d</fix>
</trkpt>
<trkpt lat="33.810313" lon="-118.393867">
  <ele>-0.134</ele>
  <time>2026-09-02T22:12:11Z</time>
  <course>187.4</course>
  <speed>0.03605551275463989</speed>
  <fix>3d</fix>
</trkpt>
<trkpt lat="33.810313" lon="-118.393867">
  <ele>-0.12</ele>
  <time>2026-09-02T22:12:11Z</time>
  <course>0.0</course>
  <speed>0.0</speed>
  <fix>3d</fix>
</trkpt>
<trkpt lat="33.810313" lon="-118.393867">
  <ele>-0.137</ele>
  <time>2026-09-02T22:12:11Z</time>
  <course>187.39</course>
  <speed>0.03605551275463989</speed>
  <fix>3d</fix>
</trkpt>
<trkpt lat="33.810313" lon="-118.393867">
  <ele>-0.12</ele>
  <time>2026-09-02T22:12:11Z</time>
  <course>0.0</course>
  <speed>0.0</speed>
  <fix>3d</fix>
</trkpt>
<trkpt lat="33.810313" lon="-118.393867">
  <ele>-0.139</ele>
  <time>2026-09-02T22:12:11Z</time>
  <course>187.39</course>
  <speed>0.03605551275463989</speed>
  <fix>3d</fix>
</trkpt>
<trkpt lat="33.810313" lon="-118.393867">
  <ele>-0.12</ele>
  <time>2026-09-02T22:12:11Z</time>
  <course>0.0</course>
  <speed>0.0</speed>
  <fix>3d</fix>
</trkpt>
<trkpt lat="33.810313" lon="-118.393867">
  <ele>-0.141</ele>
  <time>2026-09-02T22:12:11Z</time>
  <course>187.38</course>
  <speed>0.03605551275463989</speed>
  <fix>3d</fix>
</trkpt>
<trkpt lat="33.810313" lon="-118.393867">
  <ele>-0.12</ele>
  <time>2026-09-02T22:12:11Z</time>
  <course>0.0</course>
  <speed>0.0</speed>
  <fix>3d</fix>
</trkpt>
<trkpt lat="33.810313" lon="-118.393867">
  <ele>-0.141</ele>
  <time>2026-09-02T22:12:11Z</time>
  <course>187.38</course>
  <speed>0.03605551275463989</speed>
  <fix>3d</fix>
</trkpt>
<trkpt lat="33.810313" lon="-118.393867">
  <ele>-0.12</ele>
  <time>2026-09-02T22:12:11Z</time>
  <course>0.0</course>
  <speed>0.0</speed>
  <fix>3d</fix>
</trkpt>
<trkpt lat="33.810313" lon="-118.393867">
  <ele>-0.139</ele>
  <time>2026-09-02T22:12:11Z</time>
  <course>187.37</course>
  <speed>0.03605551275463989</speed>
  <fix>3d</fix>
</trkpt>
<trkpt lat="33.810313" lon="-118.393867">
  <ele>-0.12</ele>
  <time>2026-09-02T22:12:11Z</time>
  <course>0.0</course>
  <speed>0.0</speed>
  <fix>3d</fix>
</trkpt>
<trkpt lat="33.810313" lon="-118.393867">
  <ele>-0.136</ele>
  <time>2026-09-02T22:12:11Z</time>
  <course>187.36</course>
  <speed>0.03605551275463989</speed>
  <fix>3d</fix>
</trkpt>
<trkpt lat="33.810313" lon="-118.393867">
  <ele>-0.12</ele>
  <time>2026-09-02T22:12:11Z</time>
  <course>0.0</course>
  <speed>0.0</speed>
  <fix>3d</fix>
</trkpt>
<trkpt lat="33.810313" lon="-118.393867">
  <ele>-0.133</ele>
  <time>2026-09-02T22:12:11Z</time>
  <course>187.36</course>
  <speed>0.03605551275463989</speed>
  <fix>3d</fix>
</trkpt>
<trkpt lat="33.810313" lon="-118.393867">
  <ele>-0.12</ele>
  <time>2026-09-02T22:12:11Z</time>
  <course>0.0</course>
  <speed>0.0</speed>
  <fix>3d</fix>
</trkpt>
<trkpt lat="33.810313" lon="-118.393867">
  <ele>-0.129</ele>
  <time>2026-09-02T22:12:11Z</time>
  <course>187.35</course>
  <speed>0.03605551275463989</speed>
  <fix>3d</fix>
</trkpt>
<trkpt lat="33.810313" lon="-118.393867">
  <ele>-0.12</ele>
  <time>2026-09-02T22:12:11Z</time>
  <course>0.0</course>
  <speed>0.0</speed>
  <fix>3d</fix>
</trkpt>
<trkpt lat="33.810313" lon="-118.393867">
  <ele>-0.127</ele>
  <time>2026-09-02T22:12:11Z</time>
  <course>187.35</course>
  <speed>0.03605551275463989</speed>
  <fix>3d</fix>
</trkpt>
<trkpt lat="33.810313" lon="-118.393867">
  <ele>-0.12</ele>
  <time>2026-09-02T22:12:11Z</time>
  <course>0.0</course>
  <speed>0.0</speed>
  <fix>3d</fix>
</trkpt>
<trkpt lat="33.810313" lon="-118.393867">
  <ele>-0.127</ele>
  <time>2026-09-02T22:12:11Z</time>
  <course>187.34</course>
  <speed>0.03605551275463989</speed>
  <fix>3d</fix>
</trkpt>
<trkpt lat="33.810313" lon="-118.393867">
  <ele>-0.12</ele>
  <time>2026-09-02T22:12:11Z</time>
  <course>0.0</course>
  <speed>0.0</speed>
  <fix>3d</fix>
</trkpt>
<trkpt lat="33.810313" lon="-118.393867">
  <ele>-0.126</ele>
  <time>2026-09-02T22:12:11Z</time>
  <course>187.34</course>
  <speed>0.03605551275463989</speed>
  <fix>3d</fix>
</trkpt>
<trkpt lat="33.810313" lon="-118.393867">
  <ele>-0.12</ele>
  <time>2026-09-02T22:12:11Z</time>
  <course>0.0</course>
  <speed>0.0</speed>
  <fix>3d</fix>
</trkpt>
<trkpt lat="33.810313" lon="-118.393867">
  <ele>-0.126</ele>
  <time>2026-09-02T22:12:11Z</time>
  <course>187.33</course>
  <speed>0.03605551275463989</speed>
  <fix>3d</fix>
</trkpt>
<trkpt lat="33.810313" lon="-118.393867">
  <ele>-0.12</ele>
  <time>2026-09-02T22:12:11Z</time>
  <course>0.0</course>
  <speed>0.0</speed>
  <fix>3d</fix>
</trkpt>
<trkpt lat="33.810313" lon="-118.393867">
  <ele>-0.126</ele>
  <time>2026-09-02T22:12:11Z</time>
  <course>187.32</course>
  <speed>0.03605551275463989</speed>
  <fix>3d</fix>
</trkpt>
<trkpt lat="33.810313" lon="-118.393867">
  <ele>-0.12</ele>
  <time>2026-09-02T22:12:11Z</time>
  <course>0.0</course>
  <speed>0.0</speed>
  <fix>3d</fix>
</trkpt>
<trkpt lat="33.810313" lon="-118.393867">
  <ele>-0.126</ele>
  <time>2026-09-02T22:12:11Z</time>
  <course>187.32</course>
  <speed>0.03605551275463989</speed>
  <fix>3d</fix>
</trkpt>
<trkpt lat="33.810313" lon="-118.393867">
  <ele>-0.12</ele>
  <time>2026-09-02T22:12:11Z</time>
  <course>0.0</course>
  <speed>0.0</speed>
  <fix>3d</fix>
</trkpt>
<trkpt lat="33.810313" lon="-118.393867">
  <ele>-0.125</ele>
  <time>2026-09-02T22:12:11Z</time>
  <course>187.31</course>
  <speed>0.03605551275463989</speed>
  <fix>3d</fix>
</trkpt>
<trkpt lat="33.810313" lon="-118.393867">
  <ele>-0.12</ele>
  <time>2026-09-02T22:12:11Z</time>
  <course>0.0</course>
  <speed>0.0</speed>
  <fix>3d</fix>
</trkpt>
<trkpt lat="33.810313" lon="-118.393867">
  <ele>-0.124</ele>
  <time>2026-09-02T22:12:11Z</time>
  <course>187.31</course>
  <speed>0.03605551275463989</speed>
  <fix>3d</fix>
</trkpt>
<trkpt lat="33.810313" lon="-118.393867">
  <ele>-0.12</ele>
  <time>2026-09-02T22:12:11Z</time>
  <course>0.0</course>
  <speed>0.0</speed>
  <fix>3d</fix>
</trkpt>
<trkpt lat="33.810313" lon="-118.393867">
  <ele>-0.122</ele>
  <time>2026-09-02T22:12:11Z</time>
  <course>187.3</course>
  <speed>0.03605551275463989</speed>
  <fix>3d</fix>
</trkpt>
<trkpt lat="33.810313" lon="-118.393867">
  <ele>-0.12</ele>
  <time>2026-09-02T22:12:11Z</time>
  <course>0.0</course>
  <speed>0.0</speed>
  <fix>3d</fix>
</trkpt>
<trkpt lat="33.810313" lon="-118.393867">
  <ele>-0.121</ele>
  <time>2026-09-02T22:12:11Z</time>
  <course>187.3</course>
  <speed>0.03605551275463989</speed>
  <fix>3d</fix>
</trkpt>
<trkpt lat="33.810313" lon="-118.393867">
  <ele>-0.12</ele>
  <time>2026-09-02T22:12:11Z</time>
  <course>0.0</course>
  <speed>0.0</speed>
  <fix>3d</fix>
</trkpt>
<trkpt lat="33.810313" lon="-118.393867">
  <ele>-0.122</ele>
  <time>2026-09-02T22:12:11Z</time>
  <course>187.29</course>
  <speed>0.03605551275463989</speed>
  <fix>3d</fix>
</trkpt>
<trkpt lat="33.810313" lon="-118.393867">
  <ele>-0.12</ele>
  <time>2026-09-02T22:12:11Z</time>
  <course>0.0</course>
  <speed>0.0</speed>
  <fix>3d</fix>
</trkpt>
<trkpt lat="33.810313" lon="-118.393867">
  <ele>-0.124</ele>
  <time>2026-09-02T22:12:11Z</time>
  <course>187.28</course>
  <speed>0.03605551275463989</speed>
  <fix>3d</fix>
</trkpt>
<trkpt lat="33.810313" lon="-118.393867">
  <ele>-0.12</ele>
  <time>2026-09-02T22:12:11Z</time>
  <course>0.0</course>
  <speed>0.0</speed>
  <fix>3d</fix>
</trkpt>
<trkpt lat="33.810313" lon="-118.393867">
  <ele>-0.127</ele>
  <time>2026-09-02T22:12:11Z</time>
  <course>187.28</course>
  <speed>0.03605551275463989</speed>
  <fix>3d</fix>
</trkpt>
<trkpt lat="33.810313" lon="-118.393867">
  <ele>-0.12</ele>
  <time>2026-09-02T22:12:11Z</time>
  <course>0.0</course>
  <speed>0.0</speed>
  <fix>3d</fix>
</trkpt>
<trkpt lat="33.810313" lon="-118.393867">
  <ele>-0.13</ele>
  <time>2026-09-02T22:12:11Z</time>
  <course>187.27</course>
  <speed>0.03605551275463989</speed>
  <fix>3d</fix>
</trkpt>
<trkpt lat="33.810313" lon="-118.393867">
  <ele>-0.12</ele>
  <time>2026-09-02T22:12:11Z</time>
  <course>0.0</course>
  <speed>0.0</speed>
  <fix>3d</fix>
</trkpt>
<trkpt lat="33.810313" lon="-118.393867">
  <ele>-0.132</ele>
  <time>2026-09-02T22:12:11Z</time>
  <course>187.27</course>
  <speed>0.03605551275463989</speed>
  <fix>3d</fix>
</trkpt>
<trkpt lat="33.810313" lon="-118.393867">
  <ele>-0.12</ele>
  <time>2026-09-02T22:12:11Z</time>
  <course>0.0</course>
  <speed>0.0</speed>
  <fix>3d</fix>
</trkpt>
<trkpt lat="33.810313" lon="-118.393867">
  <ele>-0.134</ele>
  <time>2026-09-02T22:12:11Z</time>
  <course>187.26</course>
  <speed>0.03605551275463989</speed>
  <fix>3d</fix>
</trkpt>
<trkpt lat="33.810313" lon="-118.393867">
  <ele>-0.12</ele>
  <time>2026-09-02T22:12:11Z</time>
  <course>0.0</course>
  <speed>0.0</speed>
  <fix>3d</fix>
</trkpt>
<trkpt lat="33.810313" lon="-118.393867">
  <ele>-0.136</ele>
  <time>2026-09-02T22:12:11Z</time>
  <course>187.26</course>
  <speed>0.03605551275463989</speed>
  <fix>3d</fix>
</trkpt>
<trkpt lat="33.810313" lon="-118.393867">
  <ele>-0.12</ele>
  <time>2026-09-02T22:12:11Z</time>
  <course>0.0</course>
  <speed>0.0</speed>
  <fix>3d</fix>
</trkpt>
<trkpt lat="33.810313" lon="-118.393867">
  <ele>-0.136</ele>
  <time>2026-09-02T22:12:11Z</time>
  <course>187.25</course>
  <speed>0.03605551275463989</speed>
  <fix>3d</fix>
</trkpt>
<trkpt lat="33.810313" lon="-118.393867">
  <ele>-0.12</ele>
  <time>2026-09-02T22:12:11Z</time>
  <course>0.0</course>
  <speed>0.0</speed>
  <fix>3d</fix>
</trkpt>
<trkpt lat="33.810313" lon="-118.393867">
  <ele>-0.135</ele>
  <time>2026-09-02T22:12:11Z</time>
  <course>187.25</course>
  <speed>0.03605551275463989</speed>
  <fix>3d</fix>
</trkpt>
<trkpt lat="33.810313" lon="-118.393867">
  <ele>-0.12</ele>
  <time>2026-09-02T22:12:11Z</time>
  <course>0.0</course>
  <speed>0.0</speed>
  <fix>3d</fix>
</trkpt>
<trkpt lat="33.810313" lon="-118.393867">
  <ele>-0.134</ele>
  <time>2026-09-02T22:12:11Z</time>
  <course>187.24</course>
  <speed>0.03605551275463989</speed>
  <fix>3d</fix>
</trkpt>
<trkpt lat="33.810313" lon="-118.393867">
  <ele>-0.12</ele>
  <time>2026-09-02T22:12:11Z</time>
  <course>0.0</course>
  <speed>0.0</speed>
  <fix>3d</fix>
</trkpt>
<trkpt lat="33.810313" lon="-118.393867">
  <ele>-0.132</ele>
  <time>2026-09-02T22:12:11Z</time>
  <course>187.24</course>
  <speed>0.03605551275463989</speed>
  <fix>3d</fix>
</trkpt>
<trkpt lat="33.810313" lon="-118.393867">
  <ele>-0.12</ele>
  <time>2026-09-02T22:12:11Z</time>
  <course>0.0</course>
  <speed>0.0</speed>
  <fix>3d</fix>
</trkpt>
<trkpt lat="33.810313" lon="-118.393867">
  <ele>-0.131</ele>
  <time>2026-09-02T22:12:11Z</time>
  <course>187.23</course>
  <speed>0.03605551275463989</speed>
  <fix>3d</fix>
</trkpt>
<trkpt lat="33.810313" lon="-118.393867">
  <ele>-0.12</ele>
  <time>2026-09-02T22:12:11Z</time>
  <course>0.0</course>
  <speed>0.0</speed>
  <fix>3d</fix>
</trkpt>
<trkpt lat="33.810313" lon="-118.393867">
  <ele>-0.131</ele>
  <time>2026-09-02T22:12:11Z</time>
  <course>187.23</course>
  <speed>0.03605551275463989</speed>
  <fix>3d</fix>
</trkpt>
<trkpt lat="33.810313" lon="-118.393867">
  <ele>-0.12</ele>
  <time>2026-09-02T22:12:11Z</time>
  <course>0.0</course>
  <speed>0.0</speed>
  <fix>3d</fix>
</trkpt>
<trkpt lat="33.810313" lon="-118.393867">
  <ele>-0.132</ele>
  <time>2026-09-02T22:12:11Z</time>
  <course>187.22</course>
  <speed>0.03605551275463989</speed>
  <fix>3d</fix>
</trkpt>
<trkpt lat="33.810313" lon="-118.393867">
  <ele>-0.12</ele>
  <time>2026-09-02T22:12:11Z</time>
  <course>0.0</course>
  <speed>0.0</speed>
  <fix>3d</fix>
</trkpt>
<trkpt lat="33.810313" lon="-118.393867">
  <ele>-0.132</ele>
  <time>2026-09-02T22:12:11Z</time>
  <course>187.21</course>
  <speed>0.03605551275463989</speed>
  <fix>3d</fix>
</trkpt>
<trkpt lat="33.810313" lon="-118.393867">
  <ele>-0.12</ele>
  <time>2026-09-02T22:12:11Z</time>
  <course>0.0</course>
  <speed>0.0</speed>
  <fix>3d</fix>
</trkpt>
<trkpt lat="33.810313" lon="-118.393867">
  <ele>-0.133</ele>
  <time>2026-09-02T22:12:11Z</time>
  <course>187.21</course>
  <speed>0.03605551275463989</speed>
  <fix>3d</fix>
</trkpt>
<trkpt lat="33.810313" lon="-118.393867">
  <ele>-0.12</ele>
  <time>2026-09-02T22:12:11Z</time>
  <course>0.0</course>
  <speed>0.0</speed>
  <fix>3d</fix>
</trkpt>
<trkpt lat="33.810313" lon="-118.393867">
  <ele>-0.132</ele>
  <time>2026-09-02T22:12:11Z</time>
  <course>187.2</course>
  <speed>0.03605551275463989</speed>
  <fix>3d</fix>
</trkpt>
<trkpt lat="33.810313" lon="-118.393867">
  <ele>-0.12</ele>
  <time>2026-09-02T22:12:11Z</time>
  <course>0.0</course>
  <speed>0.0</speed>
  <fix>3d</fix>
</trkpt>
<trkpt lat="33.810313" lon="-118.393867">
  <ele>-0.131</ele>
  <time>2026-09-02T22:12:11Z</time>
  <course>187.2</course>
  <speed>0.03605551275463989</speed>
  <fix>3d</fix>
</trkpt>
<trkpt lat="33.810313" lon="-118.393867">
  <ele>-0.12</ele>
  <time>2026-09-02T22:12:11Z</time>
  <course>0.0</course>
  <speed>0.0</speed>
  <fix>3d</fix>
</trkpt>
<trkpt lat="33.810313" lon="-118.393867">
  <ele>-0.129</ele>
  <time>2026-09-02T22:12:11Z</time>
  <course>187.19</course>
  <speed>0.03605551275463989</speed>
  <fix>3d</fix>
</trkpt>
<trkpt lat="33.810313" lon="-118.393867">
  <ele>-0.12</ele>
  <time>2026-09-02T22:12:11Z</time>
  <course>0.0</course>
  <speed>0.0</speed>
  <fix>3d</fix>
</trkpt>
<trkpt lat="33.810313" lon="-118.393867">
  <ele>-0.126</ele>
  <time>2026-09-02T22:12:11Z</time>
  <course>187.19</course>
  <speed>0.03605551275463989</speed>
  <fix>3d</fix>
</trkpt>
<trkpt lat="33.810313" lon="-118.393867">
  <ele>-0.12</ele>
  <time>2026-09-02T22:12:11Z</time>
  <course>0.0</course>
  <speed>0.0</speed>
  <fix>3d</fix>
</trkpt>
<trkpt lat="33.810313" lon="-118.393867">
  <ele>-0.124</ele>
  <time>2026-09-02T22:12:11Z</time>
  <course>187.18</course>
  <speed>0.03605551275463989</speed>
  <fix>3d</fix>
</trkpt>
<trkpt lat="33.810313" lon="-118.393867">
  <ele>-0.12</ele>
  <time>2026-09-02T22:12:11Z</time>
  <course>0.0</course>
  <speed>0.0</speed>
  <fix>3d</fix>
</trkpt>
<trkpt lat="33.810313" lon="-118.393867">
  <ele>-0.123</ele>
  <time>2026-09-02T22:12:11Z</time>
  <course>187.18</course>
  <speed>0.03605551275463989</speed>
  <fix>3d</fix>
</trkpt>
<trkpt lat="33.810313" lon="-118.393867">
  <ele>-0.12</ele>
  <time>2026-09-02T22:12:11Z</time>
  <course>0.0</course>
  <speed>0.0</speed>
  <fix>3d</fix>
</trkpt>
<trkpt lat="33.810313" lon="-118.393867">
  <ele>-0.123</ele>
  <time>2026-09-02T22:12:11Z</time>
  <course>187.17</course>
  <speed>0.03605551275463989</speed>
  <fix>3d</fix>
</trkpt>
<trkpt lat="33.810313" lon="-118.393867">
  <ele>-0.12</ele>
  <time>2026-09-02T22:12:11Z</time>
  <course>0.0</course>
  <speed>0.0</speed>
  <fix>3d</fix>
</trkpt>
<trkpt lat="33.810313" lon="-118.393867">
  <ele>-0.122</ele>
  <time>2026-09-02T22:12:11Z</time>
  <course>187.17</course>
  <speed>0.0</speed>
  <fix>3d</fix>
</trkpt>
<trkpt lat="33.810313" lon="-118.393867">
  <ele>-0.12</ele>
  <time>2026-09-02T22:12:11Z</time>
  <course>0.0</course>
  <speed>0.0</speed>
  <fix>3d</fix>
</trkpt>
<trkpt lat="33.810313" lon="-118.393867">
  <ele>-0.121</ele>
  <time>2026-09-02T22:12:11Z</time>
  <course>187.16</course>
  <speed>0.0</speed>
  <fix>3d</fix>
</trkpt>
<trkpt lat="33.810313" lon="-118.393867">
  <ele>-0.12</ele>
  <time>2026-09-02T22:12:11Z</time>
  <course>0.0</course>
  <speed>0.0</speed>
  <fix>3d</fix>
</trkpt>
<trkpt lat="33.810313" lon="-118.393867">
  <ele>-0.121</ele>
  <time>2026-09-02T22:12:11Z</time>
  <course>187.16</course>
  <speed>0.0</speed>
  <fix>3d</fix>
</trkpt>
<trkpt lat="33.810313" lon="-118.393867">
  <ele>-0.12</ele>
  <time>2026-09-02T22:12:11Z</time>
  <course>0.0</course>
  <speed>0.0</speed>
  <fix>3d</fix>
</trkpt>
<trkpt lat="33.810313" lon="-118.393867">
  <ele>-0.119</ele>
  <time>2026-09-02T22:12:11Z</time>
  <course>187.15</course>
  <speed>0.0</speed>
  <fix>3d</fix>
</trkpt>
<trkpt lat="33.810313" lon="-118.393867">
  <ele>-0.12</ele>
  <time>2026-09-02T22:12:11Z</time>
  <course>0.0</course>
  <speed>0.0</speed>
  <fix>3d</fix>
</trkpt>
<trkpt lat="33.810313" lon="-118.393867">
  <ele>-0.116</ele>
  <time>2026-09-02T22:12:11Z</time>
  <course>187.15</course>
  <speed>0.0</speed>
  <fix>3d</fix>
</trkpt>
<trkpt lat="33.810313" lon="-118.393867">
  <ele>-0.12</ele>
  <time>2026-09-02T22:12:11Z</time>
  <course>0.0</course>
  <speed>0.0</speed>
  <fix>3d</fix>
</trkpt>
<trkpt lat="33.810313" lon="-118.393867">
  <ele>-0.114</ele>
  <time>2026-09-02T22:12:11Z</time>
  <course>187.14</course>
  <speed>0.0</speed>
  <fix>3d</fix>
</trkpt>
<trkpt lat="33.810313" lon="-118.393867">
  <ele>-0.12</ele>
  <time>2026-09-02T22:12:11Z</time>
  <course>0.0</course>
  <speed>0.0</speed>
  <fix>3d</fix>
</trkpt>
<trkpt lat="33.810313" lon="-118.393867">
  <ele>-0.113</ele>
  <time>2026-09-02T22:12:11Z</time>
  <course>187.14</course>
  <speed>0.0</speed>
  <fix>3d</fix>
</trkpt>
<trkpt lat="33.810313" lon="-118.393867">
  <ele>-0.12</ele>
  <time>2026-09-02T22:12:11Z</time>
  <course>0.0</course>
  <speed>0.0</speed>
  <fix>3d</fix>
</trkpt>
<trkpt lat="33.810313" lon="-118.393867">
  <ele>-0.112</ele>
  <time>2026-09-02T22:12:11Z</time>
  <course>187.13</course>
  <speed>0.0</speed>
  <fix>3d</fix>
</trkpt>
<trkpt lat="33.810313" lon="-118.393867">
  <ele>-0.12</ele>
  <time>2026-09-02T22:12:11Z</time>
  <course>0.0</course>
  <speed>0.0</speed>
  <fix>3d</fix>
</trkpt>
<trkpt lat="33.810313" lon="-118.393867">
  <ele>-0.113</ele>
  <time>2026-09-02T22:12:11Z</time>
  <course>187.13</course>
  <speed>0.0</speed>
  <fix>3d</fix>
</trkpt>
<trkpt lat="33.810313" lon="-118.393867">
  <ele>-0.12</ele>
  <time>2026-09-02T22:12:11Z</time>
  <course>0.0</course>
  <speed>0.0</speed>
  <fix>3d</fix>
</trkpt>
<trkpt lat="33.810313" lon="-118.393867">
  <ele>-0.114</ele>
  <time>2026-09-02T22:12:11Z</time>
  <course>187.12</course>
  <speed>0.0</speed>
  <fix>3d</fix>
</trkpt>
<trkpt lat="33.810313" lon="-118.393867">
  <ele>-0.12</ele>
  <time>2026-09-02T22:12:11Z</time>
  <course>0.0</course>
  <speed>0.0</speed>
  <fix>3d</fix>
</trkpt>
<trkpt lat="33.810313" lon="-118.393867">
  <ele>-0.116</ele>
  <time>2026-09-02T22:12:11Z</time>
  <course>187.12</course>
  <speed>0.0</speed>
  <fix>3d</fix>
</trkpt>
<trkpt lat="33.810313" lon="-118.393867">
  <ele>-0.12</ele>
  <time>2026-09-02T22:12:11Z</time>
  <course>0.0</course>
  <speed>0.0</speed>
  <fix>3d</fix>
</trkpt>
<trkpt lat="33.810313" lon="-118.393867">
  <ele>-0.119</ele>
  <time>2026-09-02T22:12:11Z</time>
  <course>187.11</course>
  <speed>0.01</speed>
  <fix>3d</fix>
</trkpt>
<trkpt lat="33.810313" lon="-118.393867">
  <ele>-0.12</ele>
  <time>2026-09-02T22:12:11Z</time>
  <course>0.0</course>
  <speed>0.0</speed>
  <fix>3d</fix>
</trkpt>
<trkpt lat="33.810313" lon="-118.393867">
  <ele>-0.12</ele>
  <time>2026-09-02T22:12:11Z</time>
  <course>187.11</course>
  <speed>0.01</speed>
  <fix>3d</fix>
</trkpt>
<trkpt lat="33.810313" lon="-118.393867">
  <ele>-0.12</ele>
  <time>2026-09-02T22:12:11Z</time>
  <course>0.0</course>
  <speed>0.0</speed>
  <fix>3d</fix>
</trkpt>
<trkpt lat="33.810313" lon="-118.393867">
  <ele>-0.121</ele>
  <time>2026-09-02T22:12:11Z</time>
  <course>187.1</course>
  <speed>0.01</speed>
  <fix>3d</fix>
</trkpt>
<trkpt lat="33.810313" lon="-118.393867">
  <ele>-0.12</ele>
  <time>2026-09-02T22:12:11Z</time>
  <course>0.0</course>
  <speed>0.0</speed>
  <fix>3d</fix>
</trkpt>
<trkpt lat="33.810313" lon="-118.393867">
  <ele>-0.122</ele>
  <time>2026-09-02T22:12:11Z</time>
  <course>187.1</course>
  <speed>0.01414213562373095</speed>
  <fix>3d</fix>
</trkpt>
<trkpt lat="33.810313" lon="-118.393867">
  <ele>-0.12</ele>
  <time>2026-09-02T22:12:11Z</time>
  <course>0.0</course>
  <speed>0.0</speed>
  <fix>3d</fix>
</trkpt>
<trkpt lat="33.810313" lon="-118.393867">
  <ele>-0.122</ele>
  <time>2026-09-02T22:12:11Z</time>
  <course>187.1</course>
  <speed>0.01414213562373095</speed>
  <fix>3d</fix>
</trkpt>
<trkpt lat="33.810313" lon="-118.393867">
  <ele>-0.12</ele>
  <time>2026-09-02T22:12:11Z</time>
  <course>0.0</course>
  <speed>0.0</speed>
  <fix>3d</fix>
</trkpt>
<trkpt lat="33.810313" lon="-118.393867">
  <ele>-0.123</ele>
  <time>2026-09-02T22:12:11Z</time>
  <course>187.09</course>
  <speed>0.01414213562373095</speed>
  <fix>3d</fix>
</trkpt>
<trkpt lat="33.810313" lon="-118.393867">
  <ele>-0.12</ele>
  <time>2026-09-02T22:12:11Z</time>
  <course>0.0</course>
  <speed>0.0</speed>
  <fix>3d</fix>
</trkpt>
<trkpt lat="33.810313" lon="-118.393867">
  <ele>-0.124</ele>
  <time>2026-09-02T22:12:11Z</time>
  <course>187.09</course>
  <speed>0.01414213562373095</speed>
  <fix>3d</fix>
</trkpt>
<trkpt lat="33.810313" lon="-118.393867">
  <ele>-0.12</ele>
  <time>2026-09-02T22:12:11Z</time>
  <course>0.0</course>
  <speed>0.0</speed>
  <fix>3d</fix>
</trkpt>
<trkpt lat="33.810313" lon="-118.393867">
  <ele>-0.126</ele>
  <time>2026-09-02T22:12:11Z</time>
  <course>187.08</course>
  <speed>0.01414213562373095</speed>
  <fix>3d</fix>
</trkpt>
<trkpt lat="33.810313" lon="-118.393867">
  <ele>-0.12</ele>
  <time>2026-09-02T22:12:11Z</time>
  <course>0.0</course>
  <speed>0.0</speed>
  <fix>3d</fix>
</trkpt>
<trkpt lat="33.810313" lon="-118.393867">
  <ele>-0.128</ele>
  <time>2026-09-02T22:12:11Z</time>
  <course>187.08</course>
  <speed>0.01414213562373095</speed>
  <fix>3d</fix>
</trkpt>
<trkpt lat="33.810313" lon="-118.393867">
  <ele>-0.12</ele>
  <time>2026-09-02T22:12:11Z</time>
  <course>0.0</course>
  <speed>0.0</speed>
  <fix>3d</fix>
</trkpt>
<trkpt lat="33.810313" lon="-118.393867">
  <ele>-0.13</ele>
  <time>2026-09-02T22:12:11Z</time>
  <course>187.07</course>
  <speed>0.01414213562373095</speed>
  <fix>3d</fix>
</trkpt>
<trkpt lat="33.810313" lon="-118.393867">
  <ele>-0.12</ele>
  <time>2026-09-02T22:12:11Z</time>
  <course>0.0</course>
  <speed>0.0</speed>
  <fix>3d</fix>
</trkpt>
<trkpt lat="33.810313" lon="-118.393867">
  <ele>-0.134</ele>
  <time>2026-09-02T22:12:11Z</time>
  <course>187.07</course>
  <speed>0.01414213562373095</speed>
  <fix>3d</fix>
</trkpt>
<trkpt lat="33.810313" lon="-118.393867">
  <ele>-0.12</ele>
  <time>2026-09-02T22:12:11Z</time>
  <course>0.0</course>
  <speed>0.0</speed>
  <fix>3d</fix>
</trkpt>
<trkpt lat="33.810313" lon="-118.393867">
  <ele>-0.136</ele>
  <time>2026-09-02T22:12:11Z</time>
  <course>187.06</course>
  <speed>0.01414213562373095</speed>
  <fix>3d</fix>
</trkpt>
<trkpt lat="33.810313" lon="-118.393867">
  <ele>-0.12</ele>
  <time>2026-09-02T22:12:11Z</time>
  <course>0.0</course>
  <speed>0.0</speed>
  <fix>3d</fix>
</trkpt>
<trkpt lat="33.810313" lon="-118.393867">
  <ele>-0.137</ele>
  <time>2026-09-02T22:12:11Z</time>
  <course>187.06</course>
  <speed>0.01414213562373095</speed>
  <fix>3d</fix>
</trkpt>
<trkpt lat="33.810313" lon="-118.393867">
  <ele>-0.12</ele>
  <time>2026-09-02T22:12:11Z</time>
  <course>0.0</course>
  <speed>0.0</speed>
  <fix>3d</fix>
</trkpt>
<trkpt lat="33.810313" lon="-118.393867">
  <ele>-0.137</ele>
  <time>2026-09-02T22:12:11Z</time>
  <course>187.05</course>
  <speed>0.01414213562373095</speed>
  <fix>3d</fix>
</trkpt>
<trkpt lat="33.810313" lon="-118.393867">
  <ele>-0.12</ele>
  <time>2026-09-02T22:12:11Z</time>
  <course>0.0</course>
  <speed>0.0</speed>
  <fix>3d</fix>
</trkpt>
<trkpt lat="33.810313" lon="-118.393867">
  <ele>-0.144</ele>
  <time>2026-09-02T22:12:11Z</time>
  <course>187.05</course>
  <speed>0.01414213562373095</speed>
  <fix>3d</fix>
</trkpt>
<trkpt lat="33.810313" lon="-118.393867">
  <ele>-0.12</ele>
  <time>2026-09-02T22:12:11Z</time>
  <course>0.0</course>
  <speed>0.0</speed>
  <fix>3d</fix>
</trkpt>
<trkpt lat="33.810313" lon="-118.393867">
  <ele>-0.215</ele>
  <time>2026-09-02T22:12:11Z</time>
  <course>187.04</course>
  <speed>0.01414213562373095</speed>
  <fix>3d</fix>
</trkpt>
<trkpt lat="33.810313" lon="-118.393867">
  <ele>-0.13</ele>
  <time>2026-09-02T22:12:11Z</time>
  <course>275.0</course>
  <speed>0.0</speed>
  <fix>3d</fix>
</trkpt>
<trkpt lat="33.810313" lon="-118.393867">
  <ele>-0.325</ele>
  <time>2026-09-02T22:12:11Z</time>
  <course>187.04</course>
  <speed>0.01</speed>
  <fix>3d</fix>
</trkpt>
<trkpt lat="33.810313" lon="-118.393867">
  <ele>-0.13</ele>
  <time>2026-09-02T22:12:11Z</time>
  <course>275.0</course>
  <speed>0.0</speed>
  <fix>3d</fix>
</trkpt>
<trkpt lat="33.810313" lon="-118.393867">
  <ele>-0.448</ele>
  <time>2026-09-02T22:12:11Z</time>
  <course>187.03</course>
  <speed>0.01</speed>
  <fix>3d</fix>
</trkpt>
<trkpt lat="33.810313" lon="-118.393867">
  <ele>-0.25</ele>
  <time>2026-09-02T22:12:11Z</time>
  <course>275.0</course>
  <speed>0.0</speed>
  <fix>3d</fix>
</trkpt>
<trkpt lat="33.810313" lon="-118.393867">
  <ele>-0.451</ele>
  <time>2026-09-02T22:12:11Z</time>
  <course>187.03</course>
  <speed>0.01</speed>
  <fix>3d</fix>
</trkpt>
<trkpt lat="33.810313" lon="-118.393867">
  <ele>-0.575</ele>
  <time>2026-09-02T22:12:11Z</time>
  <course>187.03</course>
  <speed>0.01</speed>
  <fix>3d</fix>
</trkpt>
<trkpt lat="33.810313" lon="-118.393867">
  <ele>-0.25</ele>
  <time>2026-09-02T22:12:11Z</time>
  <course>275.0</course>
  <speed>0.0</speed>
  <fix>3d</fix>
</trkpt>
<trkpt lat="33.810313" lon="-118.393867">
  <ele>-0.578</ele>
  <time>2026-09-02T22:12:11Z</time>
  <course>187.03</course>
  <speed>0.01</speed>
  <fix>3d</fix>
</trkpt>
<trkpt lat="33.810313" lon="-118.393867">
  <ele>-0.705</ele>
  <time>2026-09-02T22:12:11Z</time>
  <course>187.02</course>
  <speed>0.01</speed>
  <fix>3d</fix>
</trkpt>
<trkpt lat="33.810313" lon="-118.393867">
  <ele>-0.46</ele>
  <time>2026-09-02T22:12:11Z</time>
  <course>275.0</course>
  <speed>0.0</speed>
  <fix>3d</fix>
</trkpt>
<trkpt lat="33.810313" lon="-118.393867">
  <ele>-0.744</ele>
  <time>2026-09-02T22:12:11Z</time>
  <course>187.02</course>
  <speed>0.01</speed>
  <fix>3d</fix>
</trkpt>
<trkpt lat="33.810313" lon="-118.393867">
  <ele>-0.836</ele>
  <time>2026-09-02T22:12:11Z</time>
  <course>184.83</course>
  <speed>0.01</speed>
  <fix>3d</fix>
</trkpt>
<trkpt lat="33.810313" lon="-118.393867">
  <ele>-0.46</ele>
  <time>2026-09-02T22:12:11Z</time>
  <course>275.0</course>
  <speed>0.0</speed>
  <fix>3d</fix>
</trkpt>
<trkpt lat="33.810313" lon="-118.393867">
  <ele>-0.839</ele>
  <time>2026-09-02T22:12:11Z</time>
  <course>184.83</course>
  <speed>0.01</speed>
  <fix>3d</fix>
</trkpt>
<trkpt lat="33.810313" lon="-118.393867">
  <ele>-0.969</ele>
  <time>2026-09-02T22:12:11Z</time>
  <course>184.82</course>
  <speed>0.0</speed>
  <fix>3d</fix>
</trkpt>
<trkpt lat="33.810313" lon="-118.393867">
  <ele>-0.71</ele>
  <time>2026-09-02T22:12:11Z</time>
  <course>275.0</course>
  <speed>0.0</speed>
  <fix>3d</fix>
</trkpt>
<trkpt lat="33.810313" lon="-118.393867">
  <ele>-0.972</ele>
  <time>2026-09-02T22:12:11Z</time>
  <course>184.82</course>
  <speed>0.0</speed>
  <fix>3d</fix>
</trkpt>
<trkpt lat="33.810313" lon="-118.393867">
  <ele>-1.103</ele>
  <time>2026-09-02T22:12:11Z</time>
  <course>184.82</course>
  <speed>0.0</speed>
  <fix>3d</fix>
</trkpt>
<trkpt lat="33.810313" lon="-118.393867">
  <ele>-0.71</ele>
  <time>2026-09-02T22:12:11Z</time>
  <course>275.0</course>
  <speed>0.0</speed>
  <fix>3d</fix>
</trkpt>
<trkpt lat="33.810313" lon="-118.393867">
  <ele>-1.11</ele>
  <time>2026-09-02T22:12:11Z</time>
  <course>184.82</course>
  <speed>0.0</speed>
  <fix>3d</fix>
</trkpt>
<trkpt lat="33.810313" lon="-118.393867">
  <ele>-1.236</ele>
  <time>2026-09-02T22:12:11Z</time>
  <course>184.82</course>
  <speed>0.0</speed>
  <fix>3d</fix>
</trkpt>
<trkpt lat="33.810313" lon="-118.393867">
  <ele>-0.96</ele>
  <time>2026-09-02T22:12:11Z</time>
  <course>275.0</course>
  <speed>0.0</speed>
  <fix>3d</fix>
</trkpt>
<trkpt lat="33.810313" lon="-118.393867">
  <ele>-1.238</ele>
  <time>2026-09-02T22:12:11Z</time>
  <course>184.82</course>
  <speed>0.0</speed>
  <fix>3d</fix>
</trkpt>
<trkpt lat="33.810313" lon="-118.393867">
  <ele>-1.369</ele>
  <time>2026-09-02T22:12:11Z</time>
  <course>184.82</course>
  <speed>0.0</speed>
  <fix>3d</fix>
</trkpt>
<trkpt lat="33.810313" lon="-118.393867">
  <ele>-0.96</ele>
  <time>2026-09-02T22:12:11Z</time>
  <course>275.0</course>
  <speed>0.0</speed>
  <fix>3d</fix>
</trkpt>
<trkpt lat="33.810313" lon="-118.393867">
  <ele>-1.372</ele>
  <time>2026-09-02T22:12:11Z</time>
  <course>184.82</course>
  <speed>0.0</speed>
  <fix>3d</fix>
</trkpt>
<trkpt lat="33.810313" lon="-118.393867">
  <ele>-1.501</ele>
  <time>2026-09-02T22:12:11Z</time>
  <course>184.81</course>
  <speed>0.0</speed>
  <fix>3d</fix>
</trkpt>
<trkpt lat="33.810313" lon="-118.393867">
  <ele>-1.2</ele>
  <time>2026-09-02T22:12:11Z</time>
  <course>275.0</course>
  <speed>0.0</speed>
  <fix>3d</fix>
</trkpt>
<trkpt lat="33.810313" lon="-118.393867">
  <ele>-1.503</ele>
  <time>2026-09-02T22:12:11Z</time>
  <course>184.81</course>
  <speed>0.0</speed>
  <fix>3d</fix>
</trkpt>
<trkpt lat="33.810313" lon="-118.393867">
  <ele>-1.632</ele>
  <time>2026-09-02T22:12:11Z</time>
  <course>184.81</course>
  <speed>0.0</speed>
  <fix>3d</fix>
</trkpt>
<trkpt lat="33.810313" lon="-118.393867">
  <ele>-1.2</ele>
  <time>2026-09-02T22:12:11Z</time>
  <course>275.0</course>
  <speed>0.0</speed>
  <fix>3d</fix>
</trkpt>
<trkpt lat="33.810313" lon="-118.393867">
  <ele>-1.634</ele>
  <time>2026-09-02T22:12:11Z</time>
  <course>184.81</course>
  <speed>0.0</speed>
  <fix>3d</fix>
</trkpt>
<trkpt lat="33.810313" lon="-118.393867">
  <ele>-1.763</ele>
  <time>2026-09-02T22:12:11Z</time>
  <course>184.81</course>
  <speed>0.0</speed>
  <fix>3d</fix>
</trkpt>
<trkpt lat="33.810313" lon="-118.393867">
  <ele>-1.44</ele>
  <time>2026-09-02T22:12:11Z</time>
  <course>275.0</course>
  <speed>0.0</speed>
  <fix>3d</fix>
</trkpt>
<trkpt lat="33.810313" lon="-118.393867">
  <ele>-1.766</ele>
  <time>2026-09-02T22:12:11Z</time>
  <course>184.81</course>
  <speed>0.0</speed>
  <fix>3d</fix>
</trkpt>
<trkpt lat="33.810313" lon="-118.393867">
  <ele>-1.893</ele>
  <time>2026-09-02T22:12:11Z</time>
  <course>184.8</course>
  <speed>0.0</speed>
  <fix>3d</fix>
</trkpt>
<trkpt lat="33.810313" lon="-118.393867">
  <ele>-1.44</ele>
  <time>2026-09-02T22:12:11Z</time>
  <course>275.0</course>
  <speed>0.0</speed>
  <fix>3d</fix>
</trkpt>
<trkpt lat="33.810313" lon="-118.393867">
  <ele>-1.913</ele>
  <time>2026-09-02T22:12:11Z</time>
  <course>184.81</course>
  <speed>0.0</speed>
  <fix>3d</fix>
</trkpt>
<trkpt lat="33.810313" lon="-118.393867">
  <ele>-2.022</ele>
  <time>2026-09-02T22:12:11Z</time>
  <course>184.82</course>
  <speed>0.0</speed>
  <fix>3d</fix>
</trkpt>
<trkpt lat="33.810313" lon="-118.393867">
  <ele>-1.68</ele>
  <time>2026-09-02T22:12:11Z</time>
  <course>275.0</course>
  <speed>0.0</speed>
  <fix>3d</fix>
</trkpt>
<trkpt lat="33.810313" lon="-118.393867">
  <ele>-2.026</ele>
  <time>2026-09-02T22:12:11Z</time>
  <course>184.82</course>
  <speed>0.0</speed>
  <fix>3d</fix>
</trkpt>
<trkpt lat="33.810313" lon="-118.393867">
  <ele>-2.151</ele>
  <time>2026-09-02T22:12:11Z</time>
  <course>184.82</course>
  <speed>0.0</speed>
  <fix>3d</fix>
</trkpt>
<trkpt lat="33.810313" lon="-118.393867">
  <ele>-1.68</ele>
  <time>2026-09-02T22:12:11Z</time>
  <course>275.0</course>
  <speed>0.0</speed>
  <fix>3d</fix>
</trkpt>
<trkpt lat="33.810313" lon="-118.393867">
  <ele>-2.208</ele>
  <time>2026-09-02T22:12:11Z</time>
  <course>184.83</course>
  <speed>0.0</speed>
  <fix>3d</fix>
</trkpt>
<trkpt lat="33.810313" lon="-118.393867">
  <ele>-2.278</ele>
  <time>2026-09-02T22:12:11Z</time>
  <course>184.83</course>
  <speed>0.0</speed>
  <fix>3d</fix>
</trkpt>
<trkpt lat="33.810313" lon="-118.393867">
  <ele>-1.93</ele>
  <time>2026-09-02T22:12:11Z</time>
  <course>275.0</course>
  <speed>0.0</speed>
  <fix>3d</fix>
</trkpt>
<trkpt lat="33.810313" lon="-118.393867">
  <ele>-2.334</ele>
  <time>2026-09-02T22:12:11Z</time>
  <course>184.84</course>
  <speed>0.0</speed>
  <fix>3d</fix>
</trkpt>
<trkpt lat="33.810313" lon="-118.393867">
  <ele>-2.403</ele>
  <time>2026-09-02T22:12:11Z</time>
  <course>184.84</course>
  <speed>0.0</speed>
  <fix>3d</fix>
</trkpt>
<trkpt lat="33.810313" lon="-118.393867">
  <ele>-1.93</ele>
  <time>2026-09-02T22:12:11Z</time>
  <course>275.0</course>
  <speed>0.0</speed>
  <fix>3d</fix>
</trkpt>
<trkpt lat="33.810313" lon="-118.393867">
  <ele>-2.456</ele>
  <time>2026-09-02T22:12:11Z</time>
  <course>184.85</course>
  <speed>0.0</speed>
  <fix>3d</fix>
</trkpt>
<trkpt lat="33.810313" lon="-118.393867">
  <ele>-2.527</ele>
  <time>2026-09-02T22:12:11Z</time>
  <course>184.86</course>
  <speed>0.0</speed>
  <fix>3d</fix>
</trkpt>
<trkpt lat="33.810313" lon="-118.393867">
  <ele>-2.17</ele>
  <time>2026-09-02T22:12:11Z</time>
  <course>275.0</course>
  <speed>0.0</speed>
  <fix>3d</fix>
</trkpt>
<trkpt lat="33.810313" lon="-118.393867">
  <ele>-2.595</ele>
  <time>2026-09-02T22:12:11Z</time>
  <course>184.86</course>
  <speed>0.0</speed>
  <fix>3d</fix>
</trkpt>
<trkpt lat="33.810313" lon="-118.393867">
  <ele>-2.65</ele>
  <time>2026-09-02T22:12:11Z</time>
  <course>184.87</course>
  <speed>0.0</speed>
  <fix>3d</fix>
</trkpt>
<trkpt lat="33.810313" lon="-118.393867">
  <ele>-2.17</ele>
  <time>2026-09-02T22:12:11Z</time>
  <course>275.0</course>
  <speed>0.0</speed>
  <fix>3d</fix>
</trkpt>
<trkpt lat="33.810313" lon="-118.393867">
  <ele>-2.703</ele>
  <time>2026-09-02T22:12:11Z</time>
  <course>184.87</course>
  <speed>0.0</speed>
  <fix>3d</fix>
</trkpt>
<trkpt lat="33.810313" lon="-118.393867">
  <ele>-2.775</ele>
  <time>2026-09-02T22:12:11Z</time>
  <course>184.88</course>
  <speed>0.0</speed>
  <fix>3d</fix>
</trkpt>
<trkpt lat="33.810313" lon="-118.393867">
  <ele>-2.42</ele>
  <time>2026-09-02T22:12:11Z</time>
  <course>275.0</course>
  <speed>0.0</speed>
  <fix>3d</fix>
</trkpt>
<trkpt lat="33.810313" lon="-118.393867">
  <ele>-2.828</ele>
  <time>2026-09-02T22:12:11Z</time>
  <course>184.88</course>
  <speed>0.0</speed>
  <fix>3d</fix>
</trkpt>
<trkpt lat="33.810313" lon="-118.393867">
  <ele>-2.899</ele>
  <time>2026-09-02T22:12:11Z</time>
  <course>184.89</course>
  <speed>0.0</speed>
  <fix>3d</fix>
</trkpt>
<trkpt lat="33.810313" lon="-118.393867">
  <ele>-2.42</ele>
  <time>2026-09-02T22:12:11Z</time>
  <course>275.0</course>
  <speed>0.0</speed>
  <fix>3d</fix>
</trkpt>
<trkpt lat="33.810313" lon="-118.393867">
  <ele>-2.954</ele>
  <time>2026-09-02T22:12:11Z</time>
  <course>184.89</course>
  <speed>0.0</speed>
  <fix>3d</fix>
</trkpt>
<trkpt lat="33.810313" lon="-118.393867">
  <ele>-3.022</ele>
  <time>2026-09-02T22:12:11Z</time>
  <course>184.9</course>
  <speed>0.0</speed>
  <fix>3d</fix>
</trkpt>
<trkpt lat="33.810313" lon="-118.393867">
  <ele>-2.65</ele>
  <time>2026-09-02T22:12:11Z</time>
  <course>275.0</course>
  <speed>0.0</speed>
  <fix>3d</fix>
</trkpt>
<trkpt lat="33.810313" lon="-118.393867">
  <ele>-3.073</ele>
  <time>2026-09-02T22:12:11Z</time>
  <course>184.9</course>
  <speed>0.0</speed>
  <fix>3d</fix>
</trkpt>
<trkpt lat="33.810313" lon="-118.393867">
  <ele>-3.143</ele>
  <time>2026-09-02T22:12:11Z</time>
  <course>184.91</course>
  <speed>0.0</speed>
  <fix>3d</fix>
</trkpt>
<trkpt lat="33.810313" lon="-118.393867">
  <ele>-2.65</ele>
  <time>2026-09-02T22:12:11Z</time>
  <course>275.0</course>
  <speed>0.0</speed>
  <fix>3d</fix>
</trkpt>
<trkpt lat="33.810313" lon="-118.393867">
  <ele>-3.195</ele>
  <time>2026-09-02T22:12:11Z</time>
  <course>184.91</course>
  <speed>0.0</speed>
  <fix>3d</fix>
</trkpt>
<trkpt lat="33.810313" lon="-118.393867">
  <ele>-3.265</ele>
  <time>2026-09-02T22:12:11Z</time>
  <course>184.92</course>
  <speed>0.0</speed>
  <fix>3d</fix>
</trkpt>
<trkpt lat="33.810313" lon="-118.393867">
  <ele>-2.9</ele>
  <time>2026-09-02T22:12:11Z</time>
  <course>275.0</course>
  <speed>0.0</speed>
  <fix>3d</fix>
</trkpt>
<trkpt lat="33.810313" lon="-118.393867">
  <ele>-3.32</ele>
  <time>2026-09-02T22:12:11Z</time>
  <course>184.92</course>
  <speed>0.0</speed>
  <fix>3d</fix>
</trkpt>
<trkpt lat="33.810313" lon="-118.393867">
  <ele>-3.387</ele>
  <time>2026-09-02T22:12:11Z</time>
  <course>184.93</course>
  <speed>0.0</speed>
  <fix>3d</fix>
</trkpt>
<trkpt lat="33.810313" lon="-118.393867">
  <ele>-2.9</ele>
  <time>2026-09-02T22:12:11Z</time>
  <course>275.0</course>
  <speed>0.0</speed>
  <fix>3d</fix>
</trkpt>
<trkpt lat="33.810313" lon="-118.393867">
  <ele>-3.393</ele>
  <time>2026-09-02T22:12:11Z</time>
  <course>184.93</course>
  <speed>0.0</speed>
  <fix>3d</fix>
</trkpt>
<trkpt lat="33.810313" lon="-118.393867">
  <ele>-3.51</ele>
  <time>2026-09-02T22:12:11Z</time>
  <course>184.94</course>
  <speed>0.0</speed>
  <fix>3d</fix>
</trkpt>
<trkpt lat="33.810313" lon="-118.393867">
  <ele>-3.14</ele>
  <time>2026-09-02T22:12:11Z</time>
  <course>275.0</course>
  <speed>0.0</speed>
  <fix>3d</fix>
</trkpt>
<trkpt lat="33.810313" lon="-118.393867">
  <ele>-3.513</ele>
  <time>2026-09-02T22:12:11Z</time>
  <course>184.94</course>
  <speed>0.0</speed>
  <fix>3d</fix>
</trkpt>
<trkpt lat="33.810313" lon="-118.393867">
  <ele>-3.632</ele>
  <time>2026-09-02T22:12:11Z</time>
  <course>184.95</course>
  <speed>0.0</speed>
  <fix>3d</fix>
</trkpt>
<trkpt lat="33.810313" lon="-118.393867">
  <ele>-3.14</ele>
  <time>2026-09-02T22:12:11Z</time>
  <course>275.0</course>
  <speed>0.0</speed>
  <fix>3d</fix>
</trkpt>
<trkpt lat="33.810313" lon="-118.393867">
  <ele>-3.687</ele>
  <time>2026-09-02T22:12:11Z</time>
  <course>184.96</course>
  <speed>0.0</speed>
  <fix>3d</fix>
</trkpt>
<trkpt lat="33.810313" lon="-118.393867">
  <ele>-3.755</ele>
  <time>2026-09-02T22:12:11Z</time>
  <course>184.96</course>
  <speed>0.0</speed>
  <fix>3d</fix>
</trkpt>
<trkpt lat="33.810313" lon="-118.393867">
  <ele>-3.38</ele>
  <time>2026-09-02T22:12:11Z</time>
  <course>275.0</course>
  <speed>0.0</speed>
  <fix>3d</fix>
</trkpt>
<trkpt lat="33.810313" lon="-118.393867">
  <ele>-3.812</ele>
  <time>2026-09-02T22:12:11Z</time>
  <course>184.97</course>
  <speed>0.0</speed>
  <fix>3d</fix>
</trkpt>
<trkpt lat="33.810313" lon="-118.393867">
  <ele>-3.878</ele>
  <time>2026-09-02T22:12:11Z</time>
  <course>184.97</course>
  <speed>0.0</speed>
  <fix>3d</fix>
</trkpt>
<trkpt lat="33.810313" lon="-118.393867">
  <ele>-3.38</ele>
  <time>2026-09-02T22:12:11Z</time>
  <course>275.0</course>
  <speed>0.0</speed>
  <fix>3d</fix>
</trkpt>
<trkpt lat="33.810313" lon="-118.393867">
  <ele>-3.929</ele>
  <time>2026-09-02T22:12:11Z</time>
  <course>184.98</course>
  <speed>0.0</speed>
  <fix>3d</fix>
</trkpt>
<trkpt lat="33.810313" lon="-118.393867">
  <ele>-4.001</ele>
  <time>2026-09-02T22:12:11Z</time>
  <course>184.98</course>
  <speed>0.0</speed>
  <fix>3d</fix>
</trkpt>
<trkpt lat="33.810313" lon="-118.393867">
  <ele>-3.63</ele>
  <time>2026-09-02T22:12:11Z</time>
  <course>275.0</course>
  <speed>0.0</speed>
  <fix>3d</fix>
</trkpt>
<trkpt lat="33.810313" lon="-118.393867">
  <ele>-4.057</ele>
  <time>2026-09-02T22:12:11Z</time>
  <course>184.99</course>
  <speed>0.0</speed>
  <fix>3d</fix>
</trkpt>
<trkpt lat="33.810313" lon="-118.393867">
  <ele>-4.125</ele>
  <time>2026-09-02T22:12:11Z</time>
  <course>184.99</course>
  <speed>0.0</speed>
  <fix>3d</fix>
</trkpt>
<trkpt lat="33.810313" lon="-118.393867">
  <ele>-3.63</ele>
  <time>2026-09-02T22:12:11Z</time>
  <course>275.0</course>
  <speed>0.0</speed>
  <fix>3d</fix>
</trkpt>
<trkpt lat="33.810313" lon="-118.393867">
  <ele>-4.18</ele>
  <time>2026-09-02T22:12:11Z</time>
  <course>185.0</course>
  <speed>0.0</speed>
  <fix>3d</fix>
</trkpt>
<trkpt lat="33.810313" lon="-118.393867">
  <ele>-4.248</ele>
  <time>2026-09-02T22:12:11Z</time>
  <course>185.0</course>
  <speed>0.0</speed>
  <fix>3d</fix>
</trkpt>
<trkpt lat="33.810313" lon="-118.393867">
  <ele>-3.87</ele>
  <time>2026-09-02T22:12:11Z</time>
  <course>275.0</course>
  <speed>0.0</speed>
  <fix>3d</fix>
</trkpt>
<trkpt lat="33.810313" lon="-118.393867">
  <ele>-4.29</ele>
  <time>2026-09-02T22:12:11Z</time>
  <course>185.01</course>
  <speed>0.0</speed>
  <fix>3d</fix>
</trkpt>
<trkpt lat="33.810313" lon="-118.393867">
  <ele>-4.37</ele>
  <time>2026-09-02T22:12:11Z</time>
  <course>185.01</course>
  <speed>0.0</speed>
  <fix>3d</fix>
</trkpt>
<trkpt lat="33.810313" lon="-118.393867">
  <ele>-3.87</ele>
  <time>2026-09-02T22:12:11Z</time>
  <course>275.0</course>
  <speed>0.0</speed>
  <fix>3d</fix>
</trkpt>
<trkpt lat="33.810313" lon="-118.393867">
  <ele>-4.422</ele>
  <time>2026-09-02T22:12:11Z</time>
  <course>185.02</course>
  <speed>0.0</speed>
  <fix>3d</fix>
</trkpt>
<trkpt lat="33.810313" lon="-118.393867">
  <ele>-4.492</ele>
  <time>2026-09-02T22:12:11Z</time>
  <course>185.02</course>
  <speed>0.0</speed>
  <fix>3d</fix>
</trkpt>
<trkpt lat="33.810313" lon="-118.393867">
  <ele>-4.12</ele>
  <time>2026-09-02T22:12:11Z</time>
  <course>275.0</course>
  <speed>0.0</speed>
  <fix>3d</fix>
</trkpt>
<trkpt lat="33.810313" lon="-118.393867">
  <ele>-4.547</ele>
  <time>2026-09-02T22:12:11Z</time>
  <course>185.03</course>
  <speed>0.0</speed>
  <fix>3d</fix>
</trkpt>
<trkpt lat="33.810313" lon="-118.393867">
  <ele>-4.615</ele>
  <time>2026-09-02T22:12:11Z</time>
  <course>185.03</course>
  <speed>0.0</speed>
  <fix>3d</fix>
</trkpt>
<trkpt lat="33.810313" lon="-118.393867">
  <ele>-4.12</ele>
  <time>2026-09-02T22:12:11Z</time>
  <course>275.0</course>
  <speed>0.0</speed>
  <fix>3d</fix>
</trkpt>
<trkpt lat="33.810313" lon="-118.393867">
  <ele>-4.666</ele>
  <time>2026-09-02T22:12:11Z</time>
  <course>185.04</course>
  <speed>0.01</speed>
  <fix>3d</fix>
</trkpt>
<trkpt lat="33.810313" lon="-118.393867">
  <ele>-4.738</ele>
  <time>2026-09-02T22:12:11Z</time>
  <course>185.04</course>
  <speed>0.01</speed>
  <fix>3d</fix>
</trkpt>
<trkpt lat="33.810313" lon="-118.393867">
  <ele>-4.35</ele>
  <time>2026-09-02T22:12:11Z</time>
  <course>275.0</course>
  <speed>0.0</speed>
  <fix>3d</fix>
</trkpt>
<trkpt lat="33.810313" lon="-118.393867">
  <ele>-4.741</ele>
  <time>2026-09-02T22:12:11Z</time>
  <course>185.04</course>
  <speed>0.01</speed>
  <fix>3d</fix>
</trkpt>
<trkpt lat="33.810313" lon="-118.393867">
  <ele>-4.862</ele>
  <time>2026-09-02T22:12:11Z</time>
  <course>185.05</course>
  <speed>0.01</speed>
  <fix>3d</fix>
</trkpt>
<trkpt lat="33.810313" lon="-118.393867">
  <ele>-4.35</ele>
  <time>2026-09-02T22:12:11Z</time>
  <course>275.0</course>
  <speed>0.0</speed>
  <fix>3d</fix>
</trkpt>
<trkpt lat="33.810313" lon="-118.393867">
  <ele>-4.914</ele>
  <time>2026-09-02T22:12:11Z</time>
  <course>185.06</course>
  <speed>0.01</speed>
  <fix>3d</fix>
</trkpt>
<trkpt lat="33.810313" lon="-118.393867">
  <ele>-4.986</ele>
  <time>2026-09-02T22:12:11Z</time>
  <course>185.06</course>
  <speed>0.01</speed>
  <fix>3d</fix>
</trkpt>
<trkpt lat="33.810313" lon="-118.393867">
  <ele>-4.6</ele>
  <time>2026-09-02T22:12:11Z</time>
  <course>275.0</course>
  <speed>0.0</speed>
  <fix>3d</fix>
</trkpt>
<trkpt lat="33.810313" lon="-118.393867">
  <ele>-5.042</ele>
  <time>2026-09-02T22:12:11Z</time>
  <course>185.07</course>
  <speed>0.01</speed>
  <fix>3d</fix>
</trkpt>
<trkpt lat="33.810313" lon="-118.393867">
  <ele>-5.111</ele>
  <time>2026-09-02T22:12:11Z</time>
  <course>185.07</course>
  <speed>0.01</speed>
  <fix>3d</fix>
</trkpt>
<trkpt lat="33.810313" lon="-118.393867">
  <ele>-4.6</ele>
  <time>2026-09-02T22:12:11Z</time>
  <course>275.0</course>
  <speed>0.0</speed>
  <fix>3d</fix>
</trkpt>
<trkpt lat="33.810313" lon="-118.393867">
  <ele>-5.167</ele>
  <time>2026-09-02T22:12:11Z</time>
  <course>185.08</course>
  <speed>0.01</speed>
  <fix>3d</fix>
</trkpt>
<trkpt lat="33.810313" lon="-118.393867">
  <ele>-5.236</ele>
  <time>2026-09-02T22:12:11Z</time>
  <course>185.08</course>
  <speed>0.01</speed>
  <fix>3d</fix>
</trkpt>
<trkpt lat="33.810313" lon="-118.393867">
  <ele>-4.85</ele>
  <time>2026-09-02T22:12:11Z</time>
  <course>275.0</course>
  <speed>0.0</speed>
  <fix>3d</fix>
</trkpt>
<trkpt lat="33.810313" lon="-118.393867">
  <ele>-5.293</ele>
  <time>2026-09-02T22:12:11Z</time>
  <course>185.09</course>
  <speed>0.01</speed>
  <fix>3d</fix>
</trkpt>
<trkpt lat="33.810313" lon="-118.393867">
  <ele>-5.362</ele>
  <time>2026-09-02T22:12:11Z</time>
  <course>185.09</course>
  <speed>0.01</speed>
  <fix>3d</fix>
</trkpt>
<trkpt lat="33.810313" lon="-118.393867">
  <ele>-4.85</ele>
  <time>2026-09-02T22:12:11Z</time>
  <course>275.0</course>
  <speed>0.0</speed>
  <fix>3d</fix>
</trkpt>
<trkpt lat="33.810313" lon="-118.393867">
  <ele>-5.422</ele>
  <time>2026-09-02T22:12:11Z</time>
  <course>185.1</course>
  <speed>0.01414213562373095</speed>
  <fix>3d</fix>
</trkpt>
<trkpt lat="33.810313" lon="-118.393867">
  <ele>-5.489</ele>
  <time>2026-09-02T22:12:11Z</time>
  <course>185.1</course>
  <speed>0.01414213562373095</speed>
  <fix>3d</fix>
</trkpt>
<trkpt lat="33.810313" lon="-118.393867">
  <ele>-5.09</ele>
  <time>2026-09-02T22:12:11Z</time>
  <course>275.0</course>
  <speed>0.0</speed>
  <fix>3d</fix>
</trkpt>
<trkpt lat="33.810313" lon="-118.393867">
  <ele>-5.546</ele>
  <time>2026-09-02T22:12:11Z</time>
  <course>185.11</course>
  <speed>0.01414213562373095</speed>
  <fix>3d</fix>
</trkpt>
<trkpt lat="33.810313" lon="-118.393867">
  <ele>-5.616</ele>
  <time>2026-09-02T22:12:11Z</time>
  <course>185.11</course>
  <speed>0.01414213562373095</speed>
  <fix>3d</fix>
</trkpt>
<trkpt lat="33.810313" lon="-118.393867">
  <ele>-5.09</ele>
  <time>2026-09-02T22:12:11Z</time>
  <course>275.0</course>
  <speed>0.0</speed>
  <fix>3d</fix>
</trkpt>
<trkpt lat="33.810313" lon="-118.393867">
  <ele>-5.67</ele>
  <time>2026-09-02T22:12:11Z</time>
  <course>185.12</course>
  <speed>0.01414213562373095</speed>
  <fix>3d</fix>
</trkpt>
<trkpt lat="33.810313" lon="-118.393867">
  <ele>-5.744</ele>
  <time>2026-09-02T22:12:11Z</time>
  <course>185.13</course>
  <speed>0.01414213562373095</speed>
  <fix>3d</fix>
</trkpt>
<trkpt lat="33.810313" lon="-118.393867">
  <ele>-5.33</ele>
  <time>2026-09-02T22:12:11Z</time>
  <course>275.0</course>
  <speed>0.0</speed>
  <fix>3d</fix>
</trkpt>
<trkpt lat="33.810313" lon="-118.393867">
  <ele>-5.804</ele>
  <time>2026-09-02T22:12:11Z</time>
  <course>185.13</course>
  <speed>0.01414213562373095</speed>
  <fix>3d</fix>
</trkpt>
<trkpt lat="33.810313" lon="-118.393867">
  <ele>-5.871</ele>
  <time>2026-09-02T22:12:11Z</time>
  <course>185.14</course>
  <speed>0.01414213562373095</speed>
  <fix>3d</fix>
</trkpt>
<trkpt lat="33.810313" lon="-118.393867">
  <ele>-5.33</ele>
  <time>2026-09-02T22:12:11Z</time>
  <course>275.0</course>
  <speed>0.0</speed>
  <fix>3d</fix>
</trkpt>
<trkpt lat="33.810313" lon="-118.393867">
  <ele>-5.932</ele>
  <time>2026-09-02T22:12:11Z</time>
  <course>185.14</course>
  <speed>0.01414213562373095</speed>
  <fix>3d</fix>
</trkpt>
<trkpt lat="33.810313" lon="-118.393867">
  <ele>-6.0</ele>
  <time>2026-09-02T22:12:11Z</time>
  <course>185.15</course>
  <speed>0.01414213562373095</speed>
  <fix>3d</fix>
</trkpt>
<trkpt lat="33.810313" lon="-118.393867">
  <ele>-5.58</ele>
  <time>2026-09-02T22:12:11Z</time>
  <course>275.0</course>
  <speed>0.0</speed>
  <fix>3d</fix>
</trkpt>
<trkpt lat="33.810313" lon="-118.393867">
  <ele>-6.054</ele>
  <time>2026-09-02T22:12:11Z</time>
  <course>185.15</course>
  <speed>0.01414213562373095</speed>
  <fix>3d</fix>
</trkpt>
<trkpt lat="33.810313" lon="-118.393867">
  <ele>-6.128</ele>
  <time>2026-09-02T22:12:11Z</time>
  <course>185.16</course>
  <speed>0.01414213562373095</speed>
  <fix>3d</fix>
</trkpt>
<trkpt lat="33.810313" lon="-118.393867">
  <ele>-5.58</ele>
  <time>2026-09-02T22:12:11Z</time>
  <course>275.0</course>
  <speed>0.0</speed>
  <fix>3d</fix>
</trkpt>
<trkpt lat="33.810313" lon="-118.393867">
  <ele>-6.131</ele>
  <time>2026-09-02T22:12:11Z</time>
  <course>185.16</course>
  <speed>0.01414213562373095</speed>
  <fix>3d</fix>
</trkpt>
<trkpt lat="33.810313" lon="-118.393867">
  <ele>-6.256</ele>
  <time>2026-09-02T22:12:11Z</time>
  <course>185.17</course>
  <speed>0.01414213562373095</speed>
  <fix>3d</fix>
</trkpt>
<trkpt lat="33.810313" lon="-118.393867">
  <ele>-5.81</ele>
  <time>2026-09-02T22:12:11Z</time>
  <course>275.0</course>
  <speed>0.0</speed>
  <fix>3d</fix>
</trkpt>
<trkpt lat="33.810313" lon="-118.393867">
  <ele>-6.31</ele>
  <time>2026-09-02T22:12:11Z</time>
  <course>185.17</course>
  <speed>0.01414213562373095</speed>
  <fix>3d</fix>
</trkpt>
<trkpt lat="33.810313" lon="-118.393867">
  <ele>-6.383</ele>
  <time>2026-09-02T22:12:11Z</time>
  <course>185.18</course>
  <speed>0.01414213562373095</speed>
  <fix>3d</fix>
</trkpt>
<trkpt lat="33.810313" lon="-118.393867">
  <ele>-5.81</ele>
  <time>2026-09-02T22:12:11Z</time>
  <course>275.0</course>
  <speed>0.0</speed>
  <fix>3d</fix>
</trkpt>
<trkpt lat="33.810313" lon="-118.393867">
  <ele>-6.427</ele>
  <time>2026-09-02T22:12:11Z</time>
  <course>185.18</course>
  <speed>0.01414213562373095</speed>
  <fix>3d</fix>
</trkpt>
<trkpt lat="33.810313" lon="-118.393867">
  <ele>-6.509</ele>
  <time>2026-09-02T22:12:11Z</time>
  <course>185.19</course>
  <speed>0.01414213562373095</speed>
  <fix>3d</fix>
</trkpt>
<trkpt lat="33.810313" lon="-118.393867">
  <ele>-6.06</ele>
  <time>2026-09-02T22:12:11Z</time>
  <course>275.0</course>
  <speed>0.0</speed>
  <fix>3d</fix>
</trkpt>
<trkpt lat="33.810313" lon="-118.393867">
  <ele>-6.553</ele>
  <time>2026-09-02T22:12:11Z</time>
  <course>185.19</course>
  <speed>0.01414213562373095</speed>
  <fix>3d</fix>
</trkpt>
<trkpt lat="33.810313" lon="-118.393867">
  <ele>-6.635</ele>
  <time>2026-09-02T22:12:11Z</time>
  <course>185.2</course>
  <speed>0.01414213562373095</speed>
  <fix>3d</fix>
</trkpt>
<trkpt lat="33.810313" lon="-118.393867">
  <ele>-6.06</ele>
  <time>2026-09-02T22:12:11Z</time>
  <course>275.0</course>
  <speed>0.0</speed>
  <fix>3d</fix>
</trkpt>
<trkpt lat="33.810313" lon="-118.393867">
  <ele>-6.641</ele>
  <time>2026-09-02T22:12:11Z</time>
  <course>185.2</course>
  <speed>0.01414213562373095</speed>
  <fix>3d</fix>
</trkpt>
<trkpt lat="33.810313" lon="-118.393867">
  <ele>-6.76</ele>
  <time>2026-09-02T22:12:11Z</time>
  <course>185.21</course>
  <speed>0.01414213562373095</speed>
  <fix>3d</fix>
</trkpt>
<trkpt lat="33.810313" lon="-118.393867">
  <ele>-6.31</ele>
  <time>2026-09-02T22:12:11Z</time>
  <course>275.0</course>
  <speed>0.0</speed>
  <fix>3d</fix>
</trkpt>
<trkpt lat="33.810313" lon="-118.393867">
  <ele>-6.804</ele>
  <time>2026-09-02T22:12:11Z</time>
  <course>185.21</course>
  <speed>0.01414213562373095</speed>
  <fix>3d</fix>
</trkpt>
<trkpt lat="33.810313" lon="-118.393867">
  <ele>-6.885</ele>
  <time>2026-09-02T22:12:11Z</time>
  <course>185.22</course>
  <speed>0.01414213562373095</speed>
  <fix>3d</fix>
</trkpt>
<trkpt lat="33.810313" lon="-118.393867">
  <ele>-6.31</ele>
  <time>2026-09-02T22:12:11Z</time>
  <course>275.0</course>
  <speed>0.0</speed>
  <fix>3d</fix>
</trkpt>
<trkpt lat="33.810313" lon="-118.393867">
  <ele>-6.929</ele>
  <time>2026-09-02T22:12:11Z</time>
  <course>185.22</course>
  <speed>0.01414213562373095</speed>
  <fix>3d</fix>
</trkpt>
<trkpt lat="33.810313" lon="-118.393867">
  <ele>-7.01</ele>
  <time>2026-09-02T22:12:11Z</time>
  <course>185.23</course>
  <speed>0.01414213562373095</speed>
  <fix>3d</fix>
</trkpt>
<trkpt lat="33.810313" lon="-118.393867">
  <ele>-6.55</ele>
  <time>2026-09-02T22:12:11Z</time>
  <course>275.0</course>
  <speed>0.0</speed>
  <fix>3d</fix>
</trkpt>
<trkpt lat="33.810313" lon="-118.393867">
  <ele>-7.054</ele>
  <time>2026-09-02T22:12:11Z</time>
  <course>185.23</course>
  <speed>0.01414213562373095</speed>
  <fix>3d</fix>
</trkpt>
<trkpt lat="33.810313" lon="-118.393867">
  <ele>-7.134</ele>
  <time>2026-09-02T22:12:11Z</time>
  <course>185.24</course>
  <speed>0.01414213562373095</speed>
  <fix>3d</fix>
</trkpt>
<trkpt lat="33.810313" lon="-118.393867">
  <ele>-6.55</ele>
  <time>2026-09-02T22:12:11Z</time>
  <course>275.0</course>
  <speed>0.0</speed>
  <fix>3d</fix>
</trkpt>
<trkpt lat="33.810313" lon="-118.393867">
  <ele>-7.175</ele>
  <time>2026-09-02T22:12:11Z</time>
  <course>185.24</course>
  <speed>0.01414213562373095</speed>
  <fix>3d</fix>
</trkpt>
<trkpt lat="33.810313" lon="-118.393867">
  <ele>-7.258</ele>
  <time>2026-09-02T22:12:11Z</time>
  <course>185.25</course>
  <speed>0.01414213562373095</speed>
  <fix>3d</fix>
</trkpt>
<trkpt lat="33.810313" lon="-118.393867">
  <ele>-6.79</ele>
  <time>2026-09-02T22:12:11Z</time>
  <course>275.0</course>
  <speed>0.0</speed>
  <fix>3d</fix>
</trkpt>
<trkpt lat="33.810313" lon="-118.393867">
  <ele>-7.302</ele>
  <time>2026-09-02T22:12:11Z</time>
  <course>185.25</course>
  <speed>0.01414213562373095</speed>
  <fix>3d</fix>
</trkpt>
<trkpt lat="33.810313" lon="-118.393867">
  <ele>-7.382</ele>
  <time>2026-09-02T22:12:11Z</time>
  <course>185.26</course>
  <speed>0.01414213562373095</speed>
  <fix>3d</fix>
</trkpt>
<trkpt lat="33.810313" lon="-118.393867">
  <ele>-6.79</ele>
  <time>2026-09-02T22:12:11Z</time>
  <course>275.0</course>
  <speed>0.0</speed>
  <fix>3d</fix>
</trkpt>
<trkpt lat="33.810313" lon="-118.393867">
  <ele>-7.422</ele>
  <time>2026-09-02T22:12:11Z</time>
  <course>185.26</course>
  <speed>0.01414213562373095</speed>
  <fix>3d</fix>
</trkpt>
<trkpt lat="33.810313" lon="-118.3938671">
  <ele>-7.505</ele>
  <time>2026-09-02T22:12:11Z</time>
  <course>185.27</course>
  <speed>0.01414213562373095</speed>
  <fix>3d</fix>
</trkpt>
<trkpt lat="33.810313" lon="-118.393867">
  <ele>-7.04</ele>
  <time>2026-09-02T22:12:11Z</time>
  <course>275.0</course>
  <speed>0.0</speed>
  <fix>3d</fix>
</trkpt>
<trkpt lat="33.810313" lon="-118.3938671">
  <ele>-7.508</ele>
  <time>2026-09-02T22:12:11Z</time>
  <course>185.27</course>
  <speed>0.01414213562373095</speed>
  <fix>3d</fix>
</trkpt>
<trkpt lat="33.810313" lon="-118.3938671">
  <ele>-7.629</ele>
  <time>2026-09-02T22:12:11Z</time>
  <course>185.28</course>
  <speed>0.01414213562373095</speed>
  <fix>3d</fix>
</trkpt>
<trkpt lat="33.810313" lon="-118.393867">
  <ele>-7.04</ele>
  <time>2026-09-02T22:12:11Z</time>
  <course>275.0</course>
  <speed>0.0</speed>
  <fix>3d</fix>
</trkpt>
<trkpt lat="33.810313" lon="-118.3938671">
  <ele>-7.673</ele>
  <time>2026-09-02T22:12:11Z</time>
  <course>185.28</course>
  <speed>0.01414213562373095</speed>
  <fix>3d</fix>
</trkpt>
<trkpt lat="33.810313" lon="-118.3938671">
  <ele>-7.754</ele>
  <time>2026-09-02T22:12:11Z</time>
  <course>185.29</course>
  <speed>0.01414213562373095</speed>
  <fix>3d</fix>
</trkpt>
<trkpt lat="33.810313" lon="-118.393867">
  <ele>-7.27</ele>
  <time>2026-09-02T22:12:11Z</time>
  <course>275.0</course>
  <speed>0.0</speed>
  <fix>3d</fix>
</trkpt>
<trkpt lat="33.810313" lon="-118.3938671">
  <ele>-7.804</ele>
  <time>2026-09-02T22:12:11Z</time>
  <course>185.29</course>
  <speed>0.01414213562373095</speed>
  <fix>3d</fix>
</trkpt>
<trkpt lat="33.8103131" lon="-118.3938671">
  <ele>-7.879</ele>
  <time>2026-09-02T22:12:11Z</time>
  <course>185.3</course>
  <speed>0.01414213562373095</speed>
  <fix>3d</fix>
</trkpt>
<trkpt lat="33.810313" lon="-118.393867">
  <ele>-7.27</ele>
  <time>2026-09-02T22:12:11Z</time>
  <course>275.0</course>
  <speed>0.0</speed>
  <fix>3d</fix>
</trkpt>
<trkpt lat="33.8103131" lon="-118.3938671">
  <ele>-7.923</ele>
  <time>2026-09-02T22:12:11Z</time>
  <course>185.3</course>
  <speed>0.01414213562373095</speed>
  <fix>3d</fix>
</trkpt>
<trkpt lat="33.8103131" lon="-118.3938671">
  <ele>-8.004</ele>
  <time>2026-09-02T22:12:11Z</time>
  <course>185.31</course>
  <speed>0.01414213562373095</speed>
  <fix>3d</fix>
</trkpt>
<trkpt lat="33.810313" lon="-118.3938671">
  <ele>-7.52</ele>
  <time>2026-09-02T22:12:11Z</time>
  <course>275.0</course>
  <speed>0.0</speed>
  <fix>3d</fix>
</trkpt>
<trkpt lat="33.8103131" lon="-118.3938671">
  <ele>-8.042</ele>
  <time>2026-09-02T22:12:11Z</time>
  <course>185.31</course>
  <speed>0.01414213562373095</speed>
  <fix>3d</fix>
</trkpt>
<trkpt lat="33.8103131" lon="-118.3938671">
  <ele>-8.129</ele>
  <time>2026-09-02T22:12:11Z</time>
  <course>185.32</course>
  <speed>0.01414213562373095</speed>
  <fix>3d</fix>
</trkpt>
<trkpt lat="33.810313" lon="-118.3938671">
  <ele>-7.52</ele>
  <time>2026-09-02T22:12:11Z</time>
  <course>275.0</course>
  <speed>0.0</speed>
  <fix>3d</fix>
</trkpt>
<trkpt lat="33.8103131" lon="-118.3938671">
  <ele>-8.169</ele>
  <time>2026-09-02T22:12:11Z</time>
  <course>185.32</course>
  <speed>0.01414213562373095</speed>
  <fix>3d</fix>
</trkpt>
<trkpt lat="33.8103131" lon="-118.3938671">
  <ele>-8.252</ele>
  <time>2026-09-02T22:12:11Z</time>
  <course>185.33</course>
  <speed>0.01414213562373095</speed>
  <fix>3d</fix>
</trkpt>
<trkpt lat="33.810313" lon="-118.3938671">
  <ele>-7.77</ele>
  <time>2026-09-02T22:12:11Z</time>
  <course>275.0</course>
  <speed>0.0</speed>
  <fix>3d</fix>
</trkpt>
<trkpt lat="33.8103131" lon="-118.3938671">
  <ele>-8.296</ele>
  <time>2026-09-02T22:12:11Z</time>
  <course>185.33</course>
  <speed>0.01414213562373095</speed>
  <fix>3d</fix>
</trkpt>
<trkpt lat="33.8103131" lon="-118.3938671">
  <ele>-8.376</ele>
  <time>2026-09-02T22:12:11Z</time>
  <course>185.34</course>
  <speed>0.01414213562373095</speed>
  <fix>3d</fix>
</trkpt>
<trkpt lat="33.810313" lon="-118.3938671">
  <ele>-7.77</ele>
  <time>2026-09-02T22:12:11Z</time>
  <course>275.0</course>
  <speed>0.0</speed>
  <fix>3d</fix>
</trkpt>
<trkpt lat="33.8103131" lon="-118.3938671">
  <ele>-8.379</ele>
  <time>2026-09-02T22:12:11Z</time>
  <course>185.34</course>
  <speed>0.01414213562373095</speed>
  <fix>3d</fix>
</trkpt>
<trkpt lat="33.8103131" lon="-118.3938671">
  <ele>-8.5</ele>
  <time>2026-09-02T22:12:11Z</time>
  <course>185.35</course>
  <speed>0.01414213562373095</speed>
  <fix>3d</fix>
</trkpt>
<trkpt lat="33.810313" lon="-118.3938671">
  <ele>-8.01</ele>
  <time>2026-09-02T22:12:11Z</time>
  <course>275.0</course>
  <speed>0.0</speed>
  <fix>3d</fix>
</trkpt>
<trkpt lat="33.8103131" lon="-118.3938671">
  <ele>-8.503</ele>
  <time>2026-09-02T22:12:11Z</time>
  <course>185.35</course>
  <speed>0.01414213562373095</speed>
  <fix>3d</fix>
</trkpt>
<trkpt lat="33.8103131" lon="-118.3938671">
  <ele>-8.625</ele>
  <time>2026-09-02T22:12:11Z</time>
  <course>185.36</course>
  <speed>0.022360679774997897</speed>
  <fix>3d</fix>
</trkpt>
<trkpt lat="33.810313" lon="-118.3938671">
  <ele>-8.01</ele>
  <time>2026-09-02T22:12:11Z</time>
  <course>275.0</course>
  <speed>0.0</speed>
  <fix>3d</fix>
</trkpt>
<trkpt lat="33.8103131" lon="-118.3938671">
  <ele>-8.665</ele>
  <time>2026-09-02T22:12:11Z</time>
  <course>185.36</course>
  <speed>0.022360679774997897</speed>
  <fix>3d</fix>
</trkpt>
<trkpt lat="33.8103131" lon="-118.3938671">
  <ele>-8.749</ele>
  <time>2026-09-02T22:12:11Z</time>
  <course>185.37</course>
  <speed>0.022360679774997897</speed>
  <fix>3d</fix>
</trkpt>
<trkpt lat="33.810313" lon="-118.3938671">
  <ele>-8.25</ele>
  <time>2026-09-02T22:12:11Z</time>
  <course>275.0</course>
  <speed>0.0</speed>
  <fix>3d</fix>
</trkpt>
<trkpt lat="33.8103131" lon="-118.3938671">
  <ele>-8.796</ele>
  <time>2026-09-02T22:12:11Z</time>
  <course>185.38</course>
  <speed>0.022360679774997897</speed>
  <fix>3d</fix>
</trkpt>
<trkpt lat="33.8103131" lon="-118.3938671">
  <ele>-8.874</ele>
  <time>2026-09-02T22:12:11Z</time>
  <course>185.38</course>
  <speed>0.022360679774997897</speed>
  <fix>3d</fix>
</trkpt>
<trkpt lat="33.810313" lon="-118.3938671">
  <ele>-8.25</ele>
  <time>2026-09-02T22:12:11Z</time>
  <course>275.0</course>
  <speed>0.0</speed>
  <fix>3d</fix>
</trkpt>
<trkpt lat="33.8103131" lon="-118.3938671">
  <ele>-8.877</ele>
  <time>2026-09-02T22:12:11Z</time>
  <course>185.38</course>
  <speed>0.022360679774997897</speed>
  <fix>3d</fix>
</trkpt>
<trkpt lat="33.8103131" lon="-118.3938671">
  <ele>-8.999</ele>
  <time>2026-09-02T22:12:11Z</time>
  <course>185.39</course>
  <speed>0.022360679774997897</speed>
  <fix>3d</fix>
</trkpt>
<trkpt lat="33.810313" lon="-118.3938671">
  <ele>-8.5</ele>
  <time>2026-09-02T22:12:11Z</time>
  <course>275.0</course>
  <speed>0.0</speed>
  <fix>3d</fix>
</trkpt>
<trkpt lat="33.8103131" lon="-118.3938671">
  <ele>-9.038</ele>
  <time>2026-09-02T22:12:11Z</time>
  <course>185.4</course>
  <speed>0.022360679774997897</speed>
  <fix>3d</fix>
</trkpt>
<trkpt lat="33.8103131" lon="-118.3938672">
  <ele>-9.12</ele>
  <time>2026-09-02T22:12:11Z</time>
  <course>185.4</course>
  <speed>0.022360679774997897</speed>
  <fix>3d</fix>
</trkpt>
<trkpt lat="33.810313" lon="-118.3938671">
  <ele>-8.5</ele>
  <time>2026-09-02T22:12:11Z</time>
  <course>275.0</course>
  <speed>0.0</speed>
  <fix>3d</fix>
</trkpt>
<trkpt lat="33.8103131" lon="-118.3938672">
  <ele>-9.2</ele>
  <time>2026-09-02T22:12:11Z</time>
  <course>185.41</course>
  <speed>0.0282842712474619</speed>
  <fix>3d</fix>
</trkpt>
<trkpt lat="33.810313" lon="-118.3938671">
  <ele>-8.73</ele>
  <time>2026-09-02T22:12:11Z</time>
  <course>275.0</course>
  <speed>0.0</speed>
  <fix>3d</fix>
</trkpt>
<trkpt lat="33.8103131" lon="-118.3938672">
  <ele>-9.252</ele>
  <time>2026-09-02T22:12:11Z</time>
  <course>185.42</course>
  <speed>0.0282842712474619</speed>
  <fix>3d</fix>
</trkpt>
<trkpt lat="33.810313" lon="-118.3938671">
  <ele>-8.73</ele>
  <time>2026-09-02T22:12:11Z</time>
  <course>275.0</course>
  <speed>0.0</speed>
  <fix>3d</fix>
</trkpt>
<trkpt lat="33.8103131" lon="-118.3938672">
  <ele>-9.289</ele>
  <time>2026-09-02T22:12:11Z</time>
  <course>185.43</course>
  <speed>0.0282842712474619</speed>
  <fix>3d</fix>
</trkpt>
<trkpt lat="33.810313" lon="-118.3938671">
  <ele>-8.9</ele>
  <time>2026-09-02T22:12:11Z</time>
  <course>275.0</course>
  <speed>0.0</speed>
  <fix>3d</fix>
</trkpt>
<trkpt lat="33.8103131" lon="-118.3938672">
  <ele>-9.317</ele>
  <time>2026-09-02T22:12:11Z</time>
  <course>185.44</course>
  <speed>0.0282842712474619</speed>
  <fix>3d</fix>
</trkpt>
<trkpt lat="33.810313" lon="-118.3938671">
  <ele>-8.9</ele>
  <time>2026-09-02T22:12:11Z</time>
  <course>275.0</course>
  <speed>0.0</speed>
  <fix>3d</fix>
</trkpt>
<trkpt lat="33.8103131" lon="-118.3938672">
  <ele>-9.339</ele>
  <time>2026-09-02T22:12:11Z</time>
  <course>185.46</course>
  <speed>0.0282842712474619</speed>
  <fix>3d</fix>
</trkpt>
<trkpt lat="33.810313" lon="-118.3938671">
  <ele>-8.99</ele>
  <time>2026-09-02T22:12:11Z</time>
  <course>95.0</course>
  <speed>0.0</speed>
  <fix>3d</fix>
</trkpt>
<trkpt lat="33.8103131" lon="-118.3938672">
  <ele>-9.354</ele>
  <time>2026-09-02T22:12:11Z</time>
  <course>185.47</course>
  <speed>0.0282842712474619</speed>
  <fix>3d</fix>
</trkpt>
<trkpt lat="33.810313" lon="-118.3938671">
  <ele>-8.99</ele>
  <time>2026-09-02T22:12:11Z</time>
  <course>95.0</course>
  <speed>0.0</speed>
  <fix>3d</fix>
</trkpt>
<trkpt lat="33.8103131" lon="-118.3938672">
  <ele>-9.365</ele>
  <time>2026-09-02T22:12:11Z</time>
  <course>185.48</course>
  <speed>0.0282842712474619</speed>
  <fix>3d</fix>
</trkpt>
<trkpt lat="33.810313" lon="-118.3938671">
  <ele>-9.04</ele>
  <time>2026-09-02T22:12:11Z</time>
  <course>95.0</course>
  <speed>0.0</speed>
  <fix>3d</fix>
</trkpt>
<trkpt lat="33.8103131" lon="-118.3938672">
  <ele>-9.379</ele>
  <time>2026-09-02T22:12:11Z</time>
  <course>185.49</course>
  <speed>0.0282842712474619</speed>
  <fix>3d</fix>
</trkpt>
<trkpt lat="33.810313" lon="-118.3938671">
  <ele>-9.04</ele>
  <time>2026-09-02T22:12:11Z</time>
  <course>95.0</course>
  <speed>0.0</speed>
  <fix>3d</fix>
</trkpt>
<trkpt lat="33.8103131" lon="-118.3938672">
  <ele>-9.396</ele>
  <time>2026-09-02T22:12:11Z</time>
  <course>185.5</course>
  <speed>0.0282842712474619</speed>
  <fix>3d</fix>
</trkpt>
<trkpt lat="33.810313" lon="-118.3938671">
  <ele>-9.08</ele>
  <time>2026-09-02T22:12:11Z</time>
  <course>274.99</course>
  <speed>0.0</speed>
  <fix>3d</fix>
</trkpt>
<trkpt lat="33.8103131" lon="-118.3938672">
  <ele>-9.418</ele>
  <time>2026-09-02T22:12:11Z</time>
  <course>185.51</course>
  <speed>0.0282842712474619</speed>
  <fix>3d</fix>
</trkpt>
<trkpt lat="33.810313" lon="-118.3938671">
  <ele>-9.08</ele>
  <time>2026-09-02T22:12:11Z</time>
  <course>274.99</course>
  <speed>0.0</speed>
  <fix>3d</fix>
</trkpt>
<trkpt lat="33.8103131" lon="-118.3938672">
  <ele>-9.439</ele>
  <time>2026-09-02T22:12:11Z</time>
  <course>185.52</course>
  <speed>0.0282842712474619</speed>
  <fix>3d</fix>
</trkpt>
<trkpt lat="33.810313" lon="-118.3938671">
  <ele>-9.11</ele>
  <time>2026-09-02T22:12:11Z</time>
  <course>274.99</course>
  <speed>0.0</speed>
  <fix>3d</fix>
</trkpt>
<trkpt lat="33.8103131" lon="-118.3938672">
  <ele>-9.462</ele>
  <time>2026-09-02T22:12:11Z</time>
  <course>185.53</course>
  <speed>0.0282842712474619</speed>
  <fix>3d</fix>
</trkpt>
<trkpt lat="33.810313" lon="-118.3938671">
  <ele>-9.11</ele>
  <time>2026-09-02T22:12:11Z</time>
  <course>274.99</course>
  <speed>0.0</speed>
  <fix>3d</fix>
</trkpt>
<trkpt lat="33.8103131" lon="-118.3938672">
  <ele>-9.494</ele>
  <time>2026-09-02T22:12:11Z</time>
  <course>185.54</course>
  <speed>0.0282842712474619</speed>
  <fix>3d</fix>
</trkpt>
<trkpt lat="33.810313" lon="-118.3938671">
  <ele>-9.13</ele>
  <time>2026-09-02T22:12:11Z</time>
  <course>274.99</course>
  <speed>0.0</speed>
  <fix>3d</fix>
</trkpt>
<trkpt lat="33.8103132" lon="-118.3938672">
  <ele>-9.53</ele>
  <time>2026-09-02T22:12:12Z</time>
  <course>185.55</course>
  <speed>0.0282842712474619</speed>
  <fix>3d</fix>
</trkpt>
<trkpt lat="33.810313" lon="-118.3938671">
  <ele>-9.13</ele>
  <time>2026-09-02T22:12:12Z</time>
  <course>274.99</course>
  <speed>0.0</speed>
  <fix>3d</fix>
</trkpt>
<trkpt lat="33.8103132" lon="-118.3938672">
  <ele>-9.562</ele>
  <time>2026-09-02T22:12:12Z</time>
  <course>185.56</course>
  <speed>0.0282842712474619</speed>
  <fix>3d</fix>
</trkpt>
<trkpt lat="33.810313" lon="-118.3938671">
  <ele>-9.15</ele>
  <time>2026-09-02T22:12:12Z</time>
  <course>274.99</course>
  <speed>0.0</speed>
  <fix>3d</fix>
</trkpt>
<trkpt lat="33.8103132" lon="-118.3938673">
  <ele>-9.591</ele>
  <time>2026-09-02T22:12:12Z</time>
  <course>185.57</course>
  <speed>0.0282842712474619</speed>
  <fix>3d</fix>
</trkpt>
<trkpt lat="33.810313" lon="-118.3938671">
  <ele>-9.15</ele>
  <time>2026-09-02T22:12:12Z</time>
  <course>274.99</course>
  <speed>0.0</speed>
  <fix>3d</fix>
</trkpt>
<trkpt lat="33.8103132" lon="-118.3938673">
  <ele>-9.618</ele>
  <time>2026-09-02T22:12:12Z</time>
  <course>185.58</course>
  <speed>0.0282842712474619</speed>
  <fix>3d</fix>
</trkpt>
<trkpt lat="33.810313" lon="-118.3938671">
  <ele>-9.16</ele>
  <time>2026-09-02T22:12:12Z</time>
  <course>274.99</course>
  <speed>0.0</speed>
  <fix>3d</fix>
</trkpt>
<trkpt lat="33.8103132" lon="-118.3938673">
  <ele>-9.635</ele>
  <time>2026-09-02T22:12:12Z</time>
  <course>185.59</course>
  <speed>0.0282842712474619</speed>
  <fix>3d</fix>
</trkpt>
<trkpt lat="33.810313" lon="-118.3938671">
  <ele>-9.16</ele>
  <time>2026-09-02T22:12:12Z</time>
  <course>274.99</course>
  <speed>0.0</speed>
  <fix>3d</fix>
</trkpt>
<trkpt lat="33.8103132" lon="-118.3938673">
  <ele>-9.647</ele>
  <time>2026-09-02T22:12:12Z</time>
  <course>185.6</course>
  <speed>0.0282842712474619</speed>
  <fix>3d</fix>
</trkpt>
<trkpt lat="33.810313" lon="-118.3938671">
  <ele>-9.17</ele>
  <time>2026-09-02T22:12:12Z</time>
  <course>274.99</course>
  <speed>0.0</speed>
  <fix>3d</fix>
</trkpt>
<trkpt lat="33.8103132" lon="-118.3938673">
  <ele>-9.653</ele>
  <time>2026-09-02T22:12:12Z</time>
  <course>185.62</course>
  <speed>0.0282842712474619</speed>
  <fix>3d</fix>
</trkpt>
<trkpt lat="33.810313" lon="-118.3938671">
  <ele>-9.17</ele>
  <time>2026-09-02T22:12:12Z</time>
  <course>274.99</course>
  <speed>0.0</speed>
  <fix>3d</fix>
</trkpt>
<trkpt lat="33.8103132" lon="-118.3938673">
  <ele>-9.648</ele>
  <time>2026-09-02T22:12:12Z</time>
  <course>185.63</course>
  <speed>0.0282842712474619</speed>
  <fix>3d</fix>
</trkpt>
<trkpt lat="33.810313" lon="-118.3938671">
  <ele>-9.17</ele>
  <time>2026-09-02T22:12:12Z</time>
  <course>274.99</course>
  <speed>0.0</speed>
  <fix>3d</fix>
</trkpt>
<trkpt lat="33.8103132" lon="-118.3938673">
  <ele>-9.635</ele>
  <time>2026-09-02T22:12:12Z</time>
  <course>185.64</course>
  <speed>0.0282842712474619</speed>
  <fix>3d</fix>
</trkpt>
<trkpt lat="33.810313" lon="-118.3938671">
  <ele>-9.17</ele>
  <time>2026-09-02T22:12:12Z</time>
  <course>274.99</course>
  <speed>0.0</speed>
  <fix>3d</fix>
</trkpt>
<trkpt lat="33.8103132" lon="-118.3938673">
  <ele>-9.62</ele>
  <time>2026-09-02T22:12:12Z</time>
  <course>185.65</course>
  <speed>0.0282842712474619</speed>
  <fix>3d</fix>
</trkpt>
<trkpt lat="33.810313" lon="-118.3938671">
  <ele>-9.18</ele>
  <time>2026-09-02T22:12:12Z</time>
  <course>274.99</course>
  <speed>0.0</speed>
  <fix>3d</fix>
</trkpt>
<trkpt lat="33.8103132" lon="-118.3938673">
  <ele>-9.605</ele>
  <time>2026-09-02T22:12:12Z</time>
  <course>185.66</course>
  <speed>0.0282842712474619</speed>
  <fix>3d</fix>
</trkpt>
<trkpt lat="33.810313" lon="-118.3938671">
  <ele>-9.18</ele>
  <time>2026-09-02T22:12:12Z</time>
  <course>274.99</course>
  <speed>0.0</speed>
  <fix>3d</fix>
</trkpt>
<trkpt lat="33.8103132" lon="-118.3938673">
  <ele>-9.594</ele>
  <time>2026-09-02T22:12:12Z</time>
  <course>185.67</course>
  <speed>0.0282842712474619</speed>
  <fix>3d</fix>
</trkpt>
<trkpt lat="33.810313" lon="-118.3938671">
  <ele>-9.18</ele>
  <time>2026-09-02T22:12:12Z</time>
  <course>274.99</course>
  <speed>0.0</speed>
  <fix>3d</fix>
</trkpt>
<trkpt lat="33.8103132" lon="-118.3938673">
  <ele>-9.59</ele>
  <time>2026-09-02T22:12:12Z</time>
  <course>185.68</course>
  <speed>0.0282842712474619</speed>
  <fix>3d</fix>
</trkpt>
<trkpt lat="33.810313" lon="-118.3938671">
  <ele>-9.18</ele>
  <time>2026-09-02T22:12:12Z</time>
  <course>274.99</course>
  <speed>0.0</speed>
  <fix>3d</fix>
</trkpt>
<trkpt lat="33.8103132" lon="-118.3938673">
  <ele>-9.582</ele>
  <time>2026-09-02T22:12:12Z</time>
  <course>185.69</course>
  <speed>0.0282842712474619</speed>
  <fix>3d</fix>
</trkpt>
<trkpt lat="33.810313" lon="-118.3938671">
  <ele>-9.18</ele>
  <time>2026-09-02T22:12:12Z</time>
  <course>274.99</course>
  <speed>0.0</speed>
  <fix>3d</fix>
</trkpt>
<trkpt lat="33.8103132" lon="-118.3938673">
  <ele>-9.574</ele>
  <time>2026-09-02T22:12:12Z</time>
  <course>185.7</course>
  <speed>0.0282842712474619</speed>
  <fix>3d</fix>
</trkpt>
<trkpt lat="33.810313" lon="-118.3938671">
  <ele>-9.18</ele>
  <time>2026-09-02T22:12:12Z</time>
  <course>274.99</course>
  <speed>0.0</speed>
  <fix>3d</fix>
</trkpt>
<trkpt lat="33.8103132" lon="-118.3938673">
  <ele>-9.562</ele>
  <time>2026-09-02T22:12:12Z</time>
  <course>185.71</course>
  <speed>0.0282842712474619</speed>
  <fix>3d</fix>
</trkpt>
<trkpt lat="33.810313" lon="-118.3938671">
  <ele>-9.18</ele>
  <time>2026-09-02T22:12:12Z</time>
  <course>274.99</course>
  <speed>0.0</speed>
  <fix>3d</fix>
</trkpt>
<trkpt lat="33.8103132" lon="-118.3938673">
  <ele>-9.545</ele>
  <time>2026-09-02T22:12:12Z</time>
  <course>185.72</course>
  <speed>0.0282842712474619</speed>
  <fix>3d</fix>
</trkpt>
<trkpt lat="33.810313" lon="-118.3938671">
  <ele>-9.18</ele>
  <time>2026-09-02T22:12:12Z</time>
  <course>274.99</course>
  <speed>0.0</speed>
  <fix>3d</fix>
</trkpt>
<trkpt lat="33.8103132" lon="-118.3938673">
  <ele>-9.528</ele>
  <time>2026-09-02T22:12:12Z</time>
  <course>185.73</course>
  <speed>0.0282842712474619</speed>
  <fix>3d</fix>
</trkpt>
<trkpt lat="33.810313" lon="-118.3938671">
  <ele>-9.17</ele>
  <time>2026-09-02T22:12:12Z</time>
  <course>274.99</course>
  <speed>0.0</speed>
  <fix>3d</fix>
</trkpt>
<trkpt lat="33.8103132" lon="-118.3938673">
  <ele>-9.519</ele>
  <time>2026-09-02T22:12:12Z</time>
  <course>185.74</course>
  <speed>0.0282842712474619</speed>
  <fix>3d</fix>
</trkpt>
<trkpt lat="33.810313" lon="-118.3938671">
  <ele>-9.17</ele>
  <time>2026-09-02T22:12:12Z</time>
  <course>274.99</course>
  <speed>0.0</speed>
  <fix>3d</fix>
</trkpt>
<trkpt lat="33.8103132" lon="-118.3938673">
  <ele>-9.512</ele>
  <time>2026-09-02T22:12:12Z</time>
  <course>185.75</course>
  <speed>0.0282842712474619</speed>
  <fix>3d</fix>
</trkpt>
<trkpt lat="33.810313" lon="-118.3938671">
  <ele>-9.16</ele>
  <time>2026-09-02T22:12:12Z</time>
  <course>274.99</course>
  <speed>0.0</speed>
  <fix>3d</fix>
</trkpt>
<trkpt lat="33.8103132" lon="-118.3938673">
  <ele>-9.505</ele>
  <time>2026-09-02T22:12:12Z</time>
  <course>185.76</course>
  <speed>0.0282842712474619</speed>
  <fix>3d</fix>
</trkpt>
<trkpt lat="33.810313" lon="-118.3938671">
  <ele>-9.16</ele>
  <time>2026-09-02T22:12:12Z</time>
  <course>274.99</course>
  <speed>0.0</speed>
  <fix>3d</fix>
</trkpt>
<trkpt lat="33.8103132" lon="-118.3938673">
  <ele>-9.497</ele>
  <time>2026-09-02T22:12:12Z</time>
  <course>185.77</course>
  <speed>0.0282842712474619</speed>
  <fix>3d</fix>
</trkpt>
<trkpt lat="33.810313" lon="-118.3938671">
  <ele>-9.15</ele>
  <time>2026-09-02T22:12:12Z</time>
  <course>274.99</course>
  <speed>0.0</speed>
  <fix>3d</fix>
</trkpt>
<trkpt lat="33.8103132" lon="-118.3938673">
  <ele>-9.49</ele>
  <time>2026-09-02T22:12:12Z</time>
  <course>185.78</course>
  <speed>0.0282842712474619</speed>
  <fix>3d</fix>
</trkpt>
<trkpt lat="33.810313" lon="-118.3938671">
  <ele>-9.15</ele>
  <time>2026-09-02T22:12:12Z</time>
  <course>274.99</course>
  <speed>0.0</speed>
  <fix>3d</fix>
</trkpt>
<trkpt lat="33.8103132" lon="-118.3938673">
  <ele>-9.498</ele>
  <time>2026-09-02T22:12:12Z</time>
  <course>185.78</course>
  <speed>0.03605551275463989</speed>
  <fix>3d</fix>
</trkpt>
<trkpt lat="33.810313" lon="-118.3938671">
  <ele>-9.14</ele>
  <time>2026-09-02T22:12:12Z</time>
  <course>274.99</course>
  <speed>0.0</speed>
  <fix>3d</fix>
</trkpt>
<trkpt lat="33.8103132" lon="-118.3938673">
  <ele>-9.5</ele>
  <time>2026-09-02T22:12:12Z</time>
  <course>185.79</course>
  <speed>0.03605551275463989</speed>
  <fix>3d</fix>
</trkpt>
<trkpt lat="33.810313" lon="-118.3938671">
  <ele>-9.14</ele>
  <time>2026-09-02T22:12:12Z</time>
  <course>274.99</course>
  <speed>0.0</speed>
  <fix>3d</fix>
</trkpt>
<trkpt lat="33.8103132" lon="-118.3938673">
  <ele>-9.502</ele>
  <time>2026-09-02T22:12:12Z</time>
  <course>185.8</course>
  <speed>0.03605551275463989</speed>
  <fix>3d</fix>
</trkpt>
<trkpt lat="33.810313" lon="-118.3938671">
  <ele>-9.13</ele>
  <time>2026-09-02T22:12:12Z</time>
  <course>274.99</course>
  <speed>0.0</speed>
  <fix>3d</fix>
</trkpt>
<trkpt lat="33.8103132" lon="-118.3938673">
  <ele>-9.507</ele>
  <time>2026-09-02T22:12:12Z</time>
  <course>185.81</course>
  <speed>0.03605551275463989</speed>
  <fix>3d</fix>
</trkpt>
<trkpt lat="33.810313" lon="-118.3938671">
  <ele>-9.13</ele>
  <time>2026-09-02T22:12:12Z</time>
  <course>274.99</course>
  <speed>0.0</speed>
  <fix>3d</fix>
</trkpt>
<trkpt lat="33.8103132" lon="-118.3938673">
  <ele>-9.517</ele>
  <time>2026-09-02T22:12:12Z</time>
  <course>185.82</course>
  <speed>0.03605551275463989</speed>
  <fix>3d</fix>
</trkpt>
<trkpt lat="33.810313" lon="-118.3938671">
  <ele>-9.12</ele>
  <time>2026-09-02T22:12:12Z</time>
  <course>274.99</course>
  <speed>0.0</speed>
  <fix>3d</fix>
</trkpt>
<trkpt lat="33.8103132" lon="-118.3938673">
  <ele>-9.531</ele>
  <time>2026-09-02T22:12:12Z</time>
  <course>185.83</course>
  <speed>0.03605551275463989</speed>
  <fix>3d</fix>
</trkpt>
<trkpt lat="33.810313" lon="-118.3938671">
  <ele>-9.12</ele>
  <time>2026-09-02T22:12:12Z</time>
  <course>274.99</course>
  <speed>0.0</speed>
  <fix>3d</fix>
</trkpt>
<trkpt lat="33.8103132" lon="-118.3938673">
  <ele>-9.542</ele>
  <time>2026-09-02T22:12:12Z</time>
  <course>185.84</course>
  <speed>0.03605551275463989</speed>
  <fix>3d</fix>
</trkpt>
<trkpt lat="33.810313" lon="-118.3938671">
  <ele>-9.1</ele>
  <time>2026-09-02T22:12:12Z</time>
  <course>274.99</course>
  <speed>0.0</speed>
  <fix>3d</fix>
</trkpt>
<trkpt lat="33.8103132" lon="-118.3938673">
  <ele>-9.549</ele>
  <time>2026-09-02T22:12:12Z</time>
  <course>185.85</course>
  <speed>0.03605551275463989</speed>
  <fix>3d</fix>
</trkpt>
<trkpt lat="33.810313" lon="-118.3938671">
  <ele>-9.1</ele>
  <time>2026-09-02T22:12:12Z</time>
  <course>274.99</course>
  <speed>0.0</speed>
  <fix>3d</fix>
</trkpt>
<trkpt lat="33.8103132" lon="-118.3938673">
  <ele>-9.548</ele>
  <time>2026-09-02T22:12:12Z</time>
  <course>185.86</course>
  <speed>0.03605551275463989</speed>
  <fix>3d</fix>
</trkpt>
<trkpt lat="33.810313" lon="-118.3938671">
  <ele>-9.09</ele>
  <time>2026-09-02T22:12:12Z</time>
  <course>274.99</course>
  <speed>0.0</speed>
  <fix>3d</fix>
</trkpt>
<trkpt lat="33.8103132" lon="-118.3938673">
  <ele>-9.54</ele>
  <time>2026-09-02T22:12:12Z</time>
  <course>185.87</course>
  <speed>0.03605551275463989</speed>
  <fix>3d</fix>
</trkpt>
<trkpt lat="33.810313" lon="-118.3938671">
  <ele>-9.09</ele>
  <time>2026-09-02T22:12:12Z</time>
  <course>274.99</course>
  <speed>0.0</speed>
  <fix>3d</fix>
</trkpt>
<trkpt lat="33.8103132" lon="-118.3938673">
  <ele>-9.529</ele>
  <time>2026-09-02T22:12:12Z</time>
  <course>185.88</course>
  <speed>0.0282842712474619</speed>
  <fix>3d</fix>
</trkpt>
<trkpt lat="33.810313" lon="-118.3938671">
  <ele>-9.07</ele>
  <time>2026-09-02T22:12:12Z</time>
  <course>274.99</course>
  <speed>0.0</speed>
  <fix>3d</fix>
</trkpt>
<trkpt lat="33.8103132" lon="-118.3938673">
  <ele>-9.516</ele>
  <time>2026-09-02T22:12:12Z</time>
  <course>185.89</course>
  <speed>0.0282842712474619</speed>
  <fix>3d</fix>
</trkpt>
<trkpt lat="33.810313" lon="-118.3938671">
  <ele>-9.07</ele>
  <time>2026-09-02T22:12:12Z</time>
  <course>274.99</course>
  <speed>0.0</speed>
  <fix>3d</fix>
</trkpt>
<trkpt lat="33.8103132" lon="-118.3938673">
  <ele>-9.503</ele>
  <time>2026-09-02T22:12:12Z</time>
  <course>185.9</course>
  <speed>0.0282842712474619</speed>
  <fix>3d</fix>
</trkpt>
<trkpt lat="33.810313" lon="-118.3938671">
  <ele>-9.05</ele>
  <time>2026-09-02T22:12:12Z</time>
  <course>274.99</course>
  <speed>0.0</speed>
  <fix>3d</fix>
</trkpt>
<trkpt lat="33.8103132" lon="-118.3938673">
  <ele>-9.497</ele>
  <time>2026-09-02T22:12:12Z</time>
  <course>185.91</course>
  <speed>0.0282842712474619</speed>
  <fix>3d</fix>
</trkpt>
<trkpt lat="33.810313" lon="-118.3938671">
  <ele>-9.05</ele>
  <time>2026-09-02T22:12:12Z</time>
  <course>274.99</course>
  <speed>0.0</speed>
  <fix>3d</fix>
</trkpt>
<trkpt lat="33.8103132" lon="-118.3938673">
  <ele>-9.485</ele>
  <time>2026-09-02T22:12:12Z</time>
  <course>185.92</course>
  <speed>0.0282842712474619</speed>
  <fix>3d</fix>
</trkpt>
<trkpt lat="33.810313" lon="-118.3938671">
  <ele>-9.04</ele>
  <time>2026-09-02T22:12:12Z</time>
  <course>274.99</course>
  <speed>0.0</speed>
  <fix>3d</fix>
</trkpt>
<trkpt lat="33.8103132" lon="-118.3938673">
  <ele>-9.471</ele>
  <time>2026-09-02T22:12:12Z</time>
  <course>185.93</course>
  <speed>0.0282842712474619</speed>
  <fix>3d</fix>
</trkpt>
<trkpt lat="33.810313" lon="-118.3938671">
  <ele>-9.04</ele>
  <time>2026-09-02T22:12:12Z</time>
  <course>274.99</course>
  <speed>0.0</speed>
  <fix>3d</fix>
</trkpt>
<trkpt lat="33.8103132" lon="-118.3938673">
  <ele>-9.459</ele>
  <time>2026-09-02T22:12:12Z</time>
  <course>185.94</course>
  <speed>0.0282842712474619</speed>
  <fix>3d</fix>
</trkpt>
<trkpt lat="33.810313" lon="-118.3938671">
  <ele>-9.02</ele>
  <time>2026-09-02T22:12:12Z</time>
  <course>274.99</course>
  <speed>0.0</speed>
  <fix>3d</fix>
</trkpt>
<trkpt lat="33.8103132" lon="-118.3938673">
  <ele>-9.443</ele>
  <time>2026-09-02T22:12:13Z</time>
  <course>185.95</course>
  <speed>0.0282842712474619</speed>
  <fix>3d</fix>
</trkpt>
<trkpt lat="33.810313" lon="-118.3938671">
  <ele>-9.02</ele>
  <time>2026-09-02T22:12:13Z</time>
  <course>274.99</course>
  <speed>0.0</speed>
  <fix>3d</fix>
</trkpt>
<trkpt lat="33.8103132" lon="-118.3938673">
  <ele>-9.427</ele>
  <time>2026-09-02T22:12:13Z</time>
  <course>185.95</course>
  <speed>0.0282842712474619</speed>
  <fix>3d</fix>
</trkpt>
<trkpt lat="33.810313" lon="-118.3938671">
  <ele>-9.0</ele>
  <time>2026-09-02T22:12:13Z</time>
  <course>274.99</course>
  <speed>0.0</speed>
  <fix>3d</fix>
</trkpt>
<trkpt lat="33.8103132" lon="-118.3938673">
  <ele>-9.414</ele>
  <time>2026-09-02T22:12:13Z</time>
  <course>185.96</course>
  <speed>0.022360679774997897</speed>
  <fix>3d</fix>
</trkpt>
<trkpt lat="33.810313" lon="-118.3938671">
  <ele>-9.0</ele>
  <time>2026-09-02T22:12:13Z</time>
  <course>274.99</course>
  <speed>0.0</speed>
  <fix>3d</fix>
</trkpt>
<trkpt lat="33.8103132" lon="-118.3938673">
  <ele>-9.402</ele>
  <time>2026-09-02T22:12:13Z</time>
  <course>185.97</course>
  <speed>0.022360679774997897</speed>
  <fix>3d</fix>
</trkpt>
<trkpt lat="33.810313" lon="-118.3938671">
  <ele>-8.98</ele>
  <time>2026-09-02T22:12:13Z</time>
  <course>274.99</course>
  <speed>0.0</speed>
  <fix>3d</fix>
</trkpt>
<trkpt lat="33.8103132" lon="-118.3938673">
  <ele>-9.397</ele>
  <time>2026-09-02T22:12:13Z</time>
  <course>185.98</course>
  <speed>0.022360679774997897</speed>
  <fix>3d</fix>
</trkpt>
<trkpt lat="33.810313" lon="-118.3938671">
  <ele>-8.98</ele>
  <time>2026-09-02T22:12:13Z</time>
  <course>274.99</course>
  <speed>0.0</speed>
  <fix>3d</fix>
</trkpt>
<trkpt lat="33.8103132" lon="-118.3938673">
  <ele>-9.39</ele>
  <time>2026-09-02T22:12:13Z</time>
  <course>185.99</course>
  <speed>0.022360679774997897</speed>
  <fix>3d</fix>
</trkpt>
<trkpt lat="33.810313" lon="-118.3938671">
  <ele>-8.96</ele>
  <time>2026-09-02T22:12:13Z</time>
  <course>274.99</course>
  <speed>0.0</speed>
  <fix>3d</fix>
</trkpt>
<trkpt lat="33.8103132" lon="-118.3938673">
  <ele>-9.371</ele>
  <time>2026-09-02T22:12:13Z</time>
  <course>186.0</course>
  <speed>0.022360679774997897</speed>
  <fix>3d</fix>
</trkpt>
<trkpt lat="33.810313" lon="-118.3938671">
  <ele>-8.96</ele>
  <time>2026-09-02T22:12:13Z</time>
  <course>274.99</course>
  <speed>0.0</speed>
  <fix>3d</fix>
</trkpt>
<trkpt lat="33.8103132" lon="-118.3938673">
  <ele>-9.359</ele>
  <time>2026-09-02T22:12:13Z</time>
  <course>186.01</course>
  <speed>0.022360679774997897</speed>
  <fix>3d</fix>
</trkpt>
<trkpt lat="33.810313" lon="-118.3938671">
  <ele>-8.94</ele>
  <time>2026-09-02T22:12:13Z</time>
  <course>274.99</course>
  <speed>0.0</speed>
  <fix>3d</fix>
</trkpt>
<trkpt lat="33.8103132" lon="-118.3938673">
  <ele>-9.359</ele>
  <time>2026-09-02T22:12:13Z</time>
  <course>186.01</course>
  <speed>0.022360679774997897</speed>
  <fix>3d</fix>
</trkpt>
<trkpt lat="33.8103132" lon="-118.3938673">
  <ele>-9.348</ele>
  <time>2026-09-02T22:12:13Z</time>
  <course>186.02</course>
  <speed>0.022360679774997897</speed>
  <fix>3d</fix>
</trkpt>
<trkpt lat="33.810313" lon="-118.3938671">
  <ele>-8.94</ele>
  <time>2026-09-02T22:12:13Z</time>
  <course>274.99</course>
  <speed>0.0</speed>
  <fix>3d</fix>
</trkpt>
<trkpt lat="33.8103132" lon="-118.3938673">
  <ele>-9.348</ele>
  <time>2026-09-02T22:12:13Z</time>
  <course>186.02</course>
  <speed>0.022360679774997897</speed>
  <fix>3d</fix>
</trkpt>
<trkpt lat="33.8103132" lon="-118.3938673">
  <ele>-9.336</ele>
  <time>2026-09-02T22:12:13Z</time>
  <course>186.02</course>
  <speed>0.022360679774997897</speed>
  <fix>3d</fix>
</trkpt>
<trkpt lat="33.810313" lon="-118.3938671">
  <ele>-8.92</ele>
  <time>2026-09-02T22:12:13Z</time>
  <course>274.99</course>
  <speed>0.0</speed>
  <fix>3d</fix>
</trkpt>
<trkpt lat="33.8103132" lon="-118.3938673">
  <ele>-9.334</ele>
  <time>2026-09-02T22:12:13Z</time>
  <course>186.03</course>
  <speed>0.022360679774997897</speed>
  <fix>3d</fix>
</trkpt>
<trkpt lat="33.8103132" lon="-118.3938673">
  <ele>-9.331</ele>
  <time>2026-09-02T22:12:13Z</time>
  <course>186.03</course>
  <speed>0.022360679774997897</speed>
  <fix>3d</fix>
</trkpt>
<trkpt lat="33.810313" lon="-118.3938671">
  <ele>-8.92</ele>
  <time>2026-09-02T22:12:13Z</time>
  <course>274.99</course>
  <speed>0.0</speed>
  <fix>3d</fix>
</trkpt>
<trkpt lat="33.8103132" lon="-118.3938673">
  <ele>-9.331</ele>
  <time>2026-09-02T22:12:13Z</time>
  <course>186.03</course>
  <speed>0.022360679774997897</speed>
  <fix>3d</fix>
</trkpt>
<trkpt lat="33.8103132" lon="-118.3938673">
  <ele>-9.331</ele>
  <time>2026-09-02T22:12:13Z</time>
  <course>186.04</course>
  <speed>0.022360679774997897</speed>
  <fix>3d</fix>
</trkpt>
<trkpt lat="33.810313" lon="-118.3938671">
  <ele>-8.9</ele>
  <time>2026-09-02T22:12:13Z</time>
  <course>95.0</course>
  <speed>0.0</speed>
  <fix>3d</fix>
</trkpt>
<trkpt lat="33.8103132" lon="-118.3938673">
  <ele>-9.332</ele>
  <time>2026-09-02T22:12:13Z</time>
  <course>186.04</course>
  <speed>0.022360679774997897</speed>
  <fix>3d</fix>
</trkpt>
<trkpt lat="33.8103132" lon="-118.3938673">
  <ele>-9.327</ele>
  <time>2026-09-02T22:12:13Z</time>
  <course>186.05</course>
  <speed>0.022360679774997897</speed>
  <fix>3d</fix>
</trkpt>
<trkpt lat="33.810313" lon="-118.3938671">
  <ele>-8.9</ele>
  <time>2026-09-02T22:12:13Z</time>
  <course>95.0</course>
  <speed>0.0</speed>
  <fix>3d</fix>
</trkpt>
<trkpt lat="33.8103132" lon="-118.3938673">
  <ele>-9.325</ele>
  <time>2026-09-02T22:12:13Z</time>
  <course>186.05</course>
  <speed>0.022360679774997897</speed>
  <fix>3d</fix>
</trkpt>
<trkpt lat="33.8103132" lon="-118.3938673">
  <ele>-9.319</ele>
  <time>2026-09-02T22:12:13Z</time>
  <course>186.05</course>
  <speed>0.022360679774997897</speed>
  <fix>3d</fix>
</trkpt>
<trkpt lat="33.810313" lon="-118.3938671">
  <ele>-8.87</ele>
  <time>2026-09-02T22:12:13Z</time>
  <course>95.0</course>
  <speed>0.0</speed>
  <fix>3d</fix>
</trkpt>
<trkpt lat="33.8103132" lon="-118.3938673">
  <ele>-9.317</ele>
  <time>2026-09-02T22:12:13Z</time>
  <course>186.06</course>
  <speed>0.022360679774997897</speed>
  <fix>3d</fix>
</trkpt>
<trkpt lat="33.8103132" lon="-118.3938673">
  <ele>-9.308</ele>
  <time>2026-09-02T22:12:13Z</time>
  <course>186.07</course>
  <speed>0.022360679774997897</speed>
  <fix>3d</fix>
</trkpt>
<trkpt lat="33.810313" lon="-118.3938671">
  <ele>-8.87</ele>
  <time>2026-09-02T22:12:13Z</time>
  <course>95.0</course>
  <speed>0.0</speed>
  <fix>3d</fix>
</trkpt>
<trkpt lat="33.8103132" lon="-118.3938673">
  <ele>-9.306</ele>
  <time>2026-09-02T22:12:13Z</time>
  <course>186.08</course>
  <speed>0.022360679774997897</speed>
  <fix>3d</fix>
</trkpt>
<trkpt lat="33.8103132" lon="-118.3938673">
  <ele>-9.296</ele>
  <time>2026-09-02T22:12:13Z</time>
  <course>186.1</course>
  <speed>0.022360679774997897</speed>
  <fix>3d</fix>
</trkpt>
<trkpt lat="33.810313" lon="-118.3938671">
  <ele>-8.85</ele>
  <time>2026-09-02T22:12:13Z</time>
  <course>94.88</course>
  <speed>0.0</speed>
  <fix>3d</fix>
</trkpt>
<trkpt lat="33.8103132" lon="-118.3938673">
  <ele>-9.296</ele>
  <time>2026-09-02T22:12:13Z</time>
  <course>186.1</course>
  <speed>0.022360679774997897</speed>
  <fix>3d</fix>
</trkpt>
<trkpt lat="33.8103132" lon="-118.3938673">
  <ele>-9.281</ele>
  <time>2026-09-02T22:12:13Z</time>
  <course>186.12</course>
  <speed>0.022360679774997897</speed>
  <fix>3d</fix>
</trkpt>
<trkpt lat="33.810313" lon="-118.3938671">
  <ele>-8.85</ele>
  <time>2026-09-02T22:12:13Z</time>
  <course>94.88</course>
  <speed>0.0</speed>
  <fix>3d</fix>
</trkpt>
<trkpt lat="33.8103132" lon="-118.3938673">
  <ele>-9.281</ele>
  <time>2026-09-02T22:12:13Z</time>
  <course>186.13</course>
  <speed>0.022360679774997897</speed>
  <fix>3d</fix>
</trkpt>
<trkpt lat="33.8103132" lon="-118.3938673">
  <ele>-9.264</ele>
  <time>2026-09-02T22:12:13Z</time>
  <course>186.16</course>
  <speed>0.022360679774997897</speed>
  <fix>3d</fix>
</trkpt>
<trkpt lat="33.810313" lon="-118.3938671">
  <ele>-8.82</ele>
  <time>2026-09-02T22:12:13Z</time>
  <course>275.04</course>
  <speed>0.0</speed>
  <fix>3d</fix>
</trkpt>
<trkpt lat="33.8103132" lon="-118.3938673">
  <ele>-9.263</ele>
  <time>2026-09-02T22:12:13Z</time>
  <course>186.16</course>
  <speed>0.022360679774997897</speed>
  <fix>3d</fix>
</trkpt>
<trkpt lat="33.8103132" lon="-118.3938673">
  <ele>-9.238</ele>
  <time>2026-09-02T22:12:13Z</time>
  <course>186.2</course>
  <speed>0.022360679774997897</speed>
  <fix>3d</fix>
</trkpt>
<trkpt lat="33.810313" lon="-118.3938671">
  <ele>-8.82</ele>
  <time>2026-09-02T22:12:13Z</time>
  <course>275.04</course>
  <speed>0.0</speed>
  <fix>3d</fix>
</trkpt>
<trkpt lat="33.8103132" lon="-118.3938673">
  <ele>-9.231</ele>
  <time>2026-09-02T22:12:13Z</time>
  <course>186.21</course>
  <speed>0.022360679774997897</speed>
  <fix>3d</fix>
</trkpt>
<trkpt lat="33.8103132" lon="-118.3938673">
  <ele>-9.204</ele>
  <time>2026-09-02T22:12:13Z</time>
  <course>186.25</course>
  <speed>0.022360679774997897</speed>
  <fix>3d</fix>
</trkpt>
<trkpt lat="33.810313" lon="-118.3938671">
  <ele>-8.79</ele>
  <time>2026-09-02T22:12:13Z</time>
  <course>275.03</course>
  <speed>0.0</speed>
  <fix>3d</fix>
</trkpt>
<trkpt lat="33.8103132" lon="-118.3938673">
  <ele>-9.204</ele>
  <time>2026-09-02T22:12:13Z</time>
  <course>186.25</course>
  <speed>0.022360679774997897</speed>
  <fix>3d</fix>
</trkpt>
<trkpt lat="33.8103132" lon="-118.3938673">
  <ele>-9.168</ele>
  <time>2026-09-02T22:12:13Z</time>
  <course>186.3</course>
  <speed>0.022360679774997897</speed>
  <fix>3d</fix>
</trkpt>
<trkpt lat="33.810313" lon="-118.3938671">
  <ele>-8.79</ele>
  <time>2026-09-02T22:12:13Z</time>
  <course>275.03</course>
  <speed>0.0</speed>
  <fix>3d</fix>
</trkpt>
<trkpt lat="33.8103132" lon="-118.3938673">
  <ele>-9.159</ele>
  <time>2026-09-02T22:12:13Z</time>
  <course>186.31</course>
  <speed>0.022360679774997897</speed>
  <fix>3d</fix>
</trkpt>
<trkpt lat="33.8103132" lon="-118.3938673">
  <ele>-9.137</ele>
  <time>2026-09-02T22:12:13Z</time>
  <course>186.36</course>
  <speed>0.022360679774997897</speed>
  <fix>3d</fix>
</trkpt>
<trkpt lat="33.810313" lon="-118.3938671">
  <ele>-8.76</ele>
  <time>2026-09-02T22:12:13Z</time>
  <course>275.05</course>
  <speed>0.0</speed>
  <fix>3d</fix>
</trkpt>
<trkpt lat="33.8103132" lon="-118.3938673">
  <ele>-9.131</ele>
  <time>2026-09-02T22:12:13Z</time>
  <course>186.38</course>
  <speed>0.022360679774997897</speed>
  <fix>3d</fix>
</trkpt>
<trkpt lat="33.8103132" lon="-118.3938673">
  <ele>-9.108</ele>
  <time>2026-09-02T22:12:13Z</time>
  <course>186.42</course>
  <speed>0.022360679774997897</speed>
  <fix>3d</fix>
</trkpt>
<trkpt lat="33.810313" lon="-118.3938671">
  <ele>-8.76</ele>
  <time>2026-09-02T22:12:13Z</time>
  <course>275.05</course>
  <speed>0.0</speed>
  <fix>3d</fix>
</trkpt>
<trkpt lat="33.8103132" lon="-118.3938673">
  <ele>-9.101</ele>
  <time>2026-09-02T22:12:13Z</time>
  <course>186.44</course>
  <speed>0.022360679774997897</speed>
  <fix>3d</fix>
</trkpt>
<trkpt lat="33.8103132" lon="-118.3938673">
  <ele>-9.075</ele>
  <time>2026-09-02T22:12:13Z</time>
  <course>186.5</course>
  <speed>0.022360679774997897</speed>
  <fix>3d</fix>
</trkpt>
<trkpt lat="33.810313" lon="-118.3938671">
  <ele>-8.73</ele>
  <time>2026-09-02T22:12:13Z</time>
  <course>275.07</course>
  <speed>0.0</speed>
  <fix>3d</fix>
</trkpt>
<trkpt lat="33.8103132" lon="-118.3938673">
  <ele>-9.069</ele>
  <time>2026-09-02T22:12:13Z</time>
  <course>186.51</course>
  <speed>0.022360679774997897</speed>
  <fix>3d</fix>
</trkpt>
<trkpt lat="33.8103132" lon="-118.3938673">
  <ele>-9.042</ele>
  <time>2026-09-02T22:12:13Z</time>
  <course>186.58</course>
  <speed>0.022360679774997897</speed>
  <fix>3d</fix>
</trkpt>
<trkpt lat="33.810313" lon="-118.3938671">
  <ele>-8.73</ele>
  <time>2026-09-02T22:12:13Z</time>
  <course>275.07</course>
  <speed>0.0</speed>
  <fix>3d</fix>
</trkpt>
<trkpt lat="33.8103132" lon="-118.3938673">
  <ele>-9.037</ele>
  <time>2026-09-02T22:12:13Z</time>
  <course>186.59</course>
  <speed>0.022360679774997897</speed>
  <fix>3d</fix>
</trkpt>
<trkpt lat="33.8103132" lon="-118.3938673">
  <ele>-9.013</ele>
  <time>2026-09-02T22:12:13Z</time>
  <course>186.66</course>
  <speed>0.022360679774997897</speed>
  <fix>3d</fix>
</trkpt>
<trkpt lat="33.810313" lon="-118.3938671">
  <ele>-8.69</ele>
  <time>2026-09-02T22:12:13Z</time>
  <course>275.12</course>
  <speed>0.0</speed>
  <fix>3d</fix>
</trkpt>
<trkpt lat="33.8103132" lon="-118.3938673">
  <ele>-9.01</ele>
  <time>2026-09-02T22:12:13Z</time>
  <course>186.67</course>
  <speed>0.022360679774997897</speed>
  <fix>3d</fix>
</trkpt>
<trkpt lat="33.8103132" lon="-118.3938673">
  <ele>-8.994</ele>
  <time>2026-09-02T22:12:13Z</time>
  <course>186.75</course>
  <speed>0.022360679774997897</speed>
  <fix>3d</fix>
</trkpt>
<trkpt lat="33.810313" lon="-118.3938671">
  <ele>-8.69</ele>
  <time>2026-09-02T22:12:13Z</time>
  <course>275.12</course>
  <speed>0.0</speed>
  <fix>3d</fix>
</trkpt>
<trkpt lat="33.8103132" lon="-118.3938673">
  <ele>-8.993</ele>
  <time>2026-09-02T22:12:13Z</time>
  <course>186.76</course>
  <speed>0.022360679774997897</speed>
  <fix>3d</fix>
</trkpt>
<trkpt lat="33.8103132" lon="-118.3938673">
  <ele>-8.981</ele>
  <time>2026-09-02T22:12:13Z</time>
  <course>186.84</course>
  <speed>0.022360679774997897</speed>
  <fix>3d</fix>
</trkpt>
<trkpt lat="33.810313" lon="-118.3938671">
  <ele>-8.66</ele>
  <time>2026-09-02T22:12:13Z</time>
  <course>275.19</course>
  <speed>0.0</speed>
  <fix>3d</fix>
</trkpt>
<trkpt lat="33.8103132" lon="-118.3938673">
  <ele>-8.98</ele>
  <time>2026-09-02T22:12:13Z</time>
  <course>186.85</course>
  <speed>0.022360679774997897</speed>
  <fix>3d</fix>
</trkpt>
<trkpt lat="33.8103132" lon="-118.3938673">
  <ele>-8.969</ele>
  <time>2026-09-02T22:12:13Z</time>
  <course>186.94</course>
  <speed>0.022360679774997897</speed>
  <fix>3d</fix>
</trkpt>
<trkpt lat="33.810313" lon="-118.3938671">
  <ele>-8.66</ele>
  <time>2026-09-02T22:12:13Z</time>
  <course>275.19</course>
  <speed>0.0</speed>
  <fix>3d</fix>
</trkpt>
<trkpt lat="33.8103132" lon="-118.3938673">
  <ele>-8.968</ele>
  <time>2026-09-02T22:12:13Z</time>
  <course>186.95</course>
  <speed>0.022360679774997897</speed>
  <fix>3d</fix>
</trkpt>
<trkpt lat="33.8103132" lon="-118.3938673">
  <ele>-8.963</ele>
  <time>2026-09-02T22:12:13Z</time>
  <course>187.05</course>
  <speed>0.022360679774997897</speed>
  <fix>3d</fix>
</trkpt>
<trkpt lat="33.810313" lon="-118.3938671">
  <ele>-8.63</ele>
  <time>2026-09-02T22:12:13Z</time>
  <course>275.26</course>
  <speed>0.0</speed>
  <fix>3d</fix>
</trkpt>
<trkpt lat="33.8103132" lon="-118.3938673">
  <ele>-8.963</ele>
  <time>2026-09-02T22:12:13Z</time>
  <course>187.06</course>
  <speed>0.022360679774997897</speed>
  <fix>3d</fix>
</trkpt>
<trkpt lat="33.8103132" lon="-118.3938673">
  <ele>-8.955</ele>
  <time>2026-09-02T22:12:13Z</time>
  <course>187.16</course>
  <speed>0.022360679774997897</speed>
  <fix>3d</fix>
</trkpt>
<trkpt lat="33.810313" lon="-118.3938671">
  <ele>-8.63</ele>
  <time>2026-09-02T22:12:13Z</time>
  <course>275.26</course>
  <speed>0.0</speed>
  <fix>3d</fix>
</trkpt>
<trkpt lat="33.8103132" lon="-118.3938673">
  <ele>-8.955</ele>
  <time>2026-09-02T22:12:13Z</time>
  <course>187.16</course>
  <speed>0.022360679774997897</speed>
  <fix>3d</fix>
</trkpt>
<trkpt lat="33.8103132" lon="-118.3938673">
  <ele>-8.933</ele>
  <time>2026-09-02T22:12:13Z</time>
  <course>187.28</course>
  <speed>0.022360679774997897</speed>
  <fix>3d</fix>
</trkpt>
<trkpt lat="33.810313" lon="-118.3938671">
  <ele>-8.6</ele>
  <time>2026-09-02T22:12:13Z</time>
  <course>275.34</course>
  <speed>0.0</speed>
  <fix>3d</fix>
</trkpt>
<trkpt lat="33.8103132" lon="-118.3938673">
  <ele>-8.933</ele>
  <time>2026-09-02T22:12:13Z</time>
  <course>187.29</course>
  <speed>0.022360679774997897</speed>
  <fix>3d</fix>
</trkpt>
<trkpt lat="33.8103132" lon="-118.3938673">
  <ele>-8.907</ele>
  <time>2026-09-02T22:12:13Z</time>
  <course>187.41</course>
  <speed>0.022360679774997897</speed>
  <fix>3d</fix>
</trkpt>
<trkpt lat="33.810313" lon="-118.3938671">
  <ele>-8.6</ele>
  <time>2026-09-02T22:12:13Z</time>
  <course>275.34</course>
  <speed>0.0</speed>
  <fix>3d</fix>
</trkpt>
<trkpt lat="33.8103132" lon="-118.3938673">
  <ele>-8.907</ele>
  <time>2026-09-02T22:12:13Z</time>
  <course>187.41</course>
  <speed>0.022360679774997897</speed>
  <fix>3d</fix>
</trkpt>
<trkpt lat="33.8103132" lon="-118.3938673">
  <ele>-8.879</ele>
  <time>2026-09-02T22:12:13Z</time>
  <course>187.54</course>
  <speed>0.022360679774997897</speed>
  <fix>3d</fix>
</trkpt>
<trkpt lat="33.810313" lon="-118.3938671">
  <ele>-8.57</ele>
  <time>2026-09-02T22:12:13Z</time>
  <course>275.43</course>
  <speed>0.0</speed>
  <fix>3d</fix>
</trkpt>
<trkpt lat="33.8103132" lon="-118.3938673">
  <ele>-8.879</ele>
  <time>2026-09-02T22:12:13Z</time>
  <course>187.55</course>
  <speed>0.022360679774997897</speed>
  <fix>3d</fix>
</trkpt>
<trkpt lat="33.8103132" lon="-118.3938673">
  <ele>-8.855</ele>
  <time>2026-09-02T22:12:13Z</time>
  <course>187.68</course>
  <speed>0.022360679774997897</speed>
  <fix>3d</fix>
</trkpt>
<trkpt lat="33.810313" lon="-118.3938671">
  <ele>-8.57</ele>
  <time>2026-09-02T22:12:13Z</time>
  <course>275.43</course>
  <speed>0.0</speed>
  <fix>3d</fix>
</trkpt>
<trkpt lat="33.8103132" lon="-118.3938673">
  <ele>-8.848</ele>
  <time>2026-09-02T22:12:13Z</time>
  <course>187.72</course>
  <speed>0.022360679774997897</speed>
  <fix>3d</fix>
</trkpt>
<trkpt lat="33.8103132" lon="-118.3938673">
  <ele>-8.832</ele>
  <time>2026-09-02T22:12:13Z</time>
  <course>187.82</course>
  <speed>0.022360679774997897</speed>
  <fix>3d</fix>
</trkpt>
<trkpt lat="33.810313" lon="-118.3938671">
  <ele>-8.54</ele>
  <time>2026-09-02T22:12:13Z</time>
  <course>275.52</course>
  <speed>0.0</speed>
  <fix>3d</fix>
</trkpt>
<trkpt lat="33.8103132" lon="-118.3938673">
  <ele>-8.827</ele>
  <time>2026-09-02T22:12:13Z</time>
  <course>187.85</course>
  <speed>0.022360679774997897</speed>
  <fix>3d</fix>
</trkpt>
<trkpt lat="33.8103132" lon="-118.3938673">
  <ele>-8.813</ele>
  <time>2026-09-02T22:12:13Z</time>
  <course>187.96</course>
  <speed>0.022360679774997897</speed>
  <fix>3d</fix>
</trkpt>
<trkpt lat="33.810313" lon="-118.3938671">
  <ele>-8.54</ele>
  <time>2026-09-02T22:12:13Z</time>
  <course>275.52</course>
  <speed>0.0</speed>
  <fix>3d</fix>
</trkpt>
<trkpt lat="33.8103132" lon="-118.3938673">
  <ele>-8.807</ele>
  <time>2026-09-02T22:12:13Z</time>
  <course>188.0</course>
  <speed>0.022360679774997897</speed>
  <fix>3d</fix>
</trkpt>
<trkpt lat="33.8103132" lon="-118.3938673">
  <ele>-8.789</ele>
  <time>2026-09-02T22:12:13Z</time>
  <course>188.11</course>
  <speed>0.022360679774997897</speed>
  <fix>3d</fix>
</trkpt>
<trkpt lat="33.810313" lon="-118.3938671">
  <ele>-8.51</ele>
  <time>2026-09-02T22:12:13Z</time>
  <course>275.62</course>
  <speed>0.0</speed>
  <fix>3d</fix>
</trkpt>
<trkpt lat="33.8103132" lon="-118.3938673">
  <ele>-8.788</ele>
  <time>2026-09-02T22:12:13Z</time>
  <course>188.12</course>
  <speed>0.022360679774997897</speed>
  <fix>3d</fix>
</trkpt>
<trkpt lat="33.8103132" lon="-118.3938673">
  <ele>-8.77</ele>
  <time>2026-09-02T22:12:13Z</time>
  <course>188.26</course>
  <speed>0.022360679774997897</speed>
  <fix>3d</fix>
</trkpt>
<trkpt lat="33.810313" lon="-118.3938671">
  <ele>-8.51</ele>
  <time>2026-09-02T22:12:13Z</time>
  <course>275.62</course>
  <speed>0.0</speed>
  <fix>3d</fix>
</trkpt>
<trkpt lat="33.8103132" lon="-118.3938673">
  <ele>-8.769</ele>
  <time>2026-09-02T22:12:13Z</time>
  <course>188.27</course>
  <speed>0.022360679774997897</speed>
  <fix>3d</fix>
</trkpt>
<trkpt lat="33.8103132" lon="-118.3938673">
  <ele>-8.753</ele>
  <time>2026-09-02T22:12:13Z</time>
  <course>188.42</course>
  <speed>0.022360679774997897</speed>
  <fix>3d</fix>
</trkpt>
<trkpt lat="33.810313" lon="-118.3938671">
  <ele>-8.47</ele>
  <time>2026-09-02T22:12:13Z</time>
  <course>275.74</course>
  <speed>0.0</speed>
  <fix>3d</fix>
</trkpt>
<trkpt lat="33.8103132" lon="-118.3938673">
  <ele>-8.752</ele>
  <time>2026-09-02T22:12:13Z</time>
  <course>188.43</course>
  <speed>0.022360679774997897</speed>
  <fix>3d</fix>
</trkpt>
<trkpt lat="33.8103132" lon="-118.3938673">
  <ele>-8.733</ele>
  <time>2026-09-02T22:12:14Z</time>
  <course>188.59</course>
  <speed>0.022360679774997897</speed>
  <fix>3d</fix>
</trkpt>
<trkpt lat="33.810313" lon="-118.3938671">
  <ele>-8.47</ele>
  <time>2026-09-02T22:12:14Z</time>
  <course>275.74</course>
  <speed>0.0</speed>
  <fix>3d</fix>
</trkpt>
<trkpt lat="33.8103132" lon="-118.3938673">
  <ele>-8.733</ele>
  <time>2026-09-02T22:12:14Z</time>
  <course>188.59</course>
  <speed>0.022360679774997897</speed>
  <fix>3d</fix>
</trkpt>
<trkpt lat="33.8103132" lon="-118.3938673">
  <ele>-8.72</ele>
  <time>2026-09-02T22:12:14Z</time>
  <course>188.76</course>
  <speed>0.022360679774997897</speed>
  <fix>3d</fix>
</trkpt>
<trkpt lat="33.810313" lon="-118.3938671">
  <ele>-8.44</ele>
  <time>2026-09-02T22:12:14Z</time>
  <course>275.87</course>
  <speed>0.0</speed>
  <fix>3d</fix>
</trkpt>
<trkpt lat="33.8103132" lon="-118.3938673">
  <ele>-8.721</ele>
  <time>2026-09-02T22:12:14Z</time>
  <course>188.77</course>
  <speed>0.022360679774997897</speed>
  <fix>3d</fix>
</trkpt>
<trkpt lat="33.8103132" lon="-118.3938673">
  <ele>-8.707</ele>
  <time>2026-09-02T22:12:14Z</time>
  <course>188.94</course>
  <speed>0.022360679774997897</speed>
  <fix>3d</fix>
</trkpt>
<trkpt lat="33.810313" lon="-118.3938671">
  <ele>-8.44</ele>
  <time>2026-09-02T22:12:14Z</time>
  <course>275.87</course>
  <speed>0.0</speed>
  <fix>3d</fix>
</trkpt>
<trkpt lat="33.8103132" lon="-118.3938673">
  <ele>-8.704</ele>
  <time>2026-09-02T22:12:14Z</time>
  <course>188.97</course>
  <speed>0.022360679774997897</speed>
  <fix>3d</fix>
</trkpt>
<trkpt lat="33.8103132" lon="-118.3938673">
  <ele>-8.692</ele>
  <time>2026-09-02T22:12:14Z</time>
  <course>189.12</course>
  <speed>0.022360679774997897</speed>
  <fix>3d</fix>
</trkpt>
<trkpt lat="33.810313" lon="-118.3938671">
  <ele>-8.41</ele>
  <time>2026-09-02T22:12:14Z</time>
  <course>275.99</course>
  <speed>0.0</speed>
  <fix>3d</fix>
</trkpt>
<trkpt lat="33.8103132" lon="-118.3938673">
  <ele>-8.69</ele>
  <time>2026-09-02T22:12:14Z</time>
  <course>189.16</course>
  <speed>0.022360679774997897</speed>
  <fix>3d</fix>
</trkpt>
<trkpt lat="33.8103132" lon="-118.3938673">
  <ele>-8.681</ele>
  <time>2026-09-02T22:12:14Z</time>
  <course>189.31</course>
  <speed>0.022360679774997897</speed>
  <fix>3d</fix>
</trkpt>
<trkpt lat="33.810313" lon="-118.3938671">
  <ele>-8.41</ele>
  <time>2026-09-02T22:12:14Z</time>
  <course>275.99</course>
  <speed>0.0</speed>
  <fix>3d</fix>
</trkpt>
<trkpt lat="33.8103132" lon="-118.3938673">
  <ele>-8.679</ele>
  <time>2026-09-02T22:12:14Z</time>
  <course>189.35</course>
  <speed>0.022360679774997897</speed>
  <fix>3d</fix>
</trkpt>
<trkpt lat="33.8103132" lon="-118.3938673">
  <ele>-8.673</ele>
  <time>2026-09-02T22:12:14Z</time>
  <course>189.5</course>
  <speed>0.022360679774997897</speed>
  <fix>3d</fix>
</trkpt>
<trkpt lat="33.810313" lon="-118.3938671">
  <ele>-8.38</ele>
  <time>2026-09-02T22:12:14Z</time>
  <course>276.12</course>
  <speed>0.0</speed>
  <fix>3d</fix>
</trkpt>
<trkpt lat="33.8103132" lon="-118.3938673">
  <ele>-8.672</ele>
  <time>2026-09-02T22:12:14Z</time>
  <course>189.55</course>
  <speed>0.022360679774997897</speed>
  <fix>3d</fix>
</trkpt>
<trkpt lat="33.8103132" lon="-118.3938673">
  <ele>-8.671</ele>
  <time>2026-09-02T22:12:14Z</time>
  <course>189.7</course>
  <speed>0.022360679774997897</speed>
  <fix>3d</fix>
</trkpt>
<trkpt lat="33.810313" lon="-118.3938671">
  <ele>-8.38</ele>
  <time>2026-09-02T22:12:14Z</time>
  <course>276.12</course>
  <speed>0.0</speed>
  <fix>3d</fix>
</trkpt>
<trkpt lat="33.8103132" lon="-118.3938673">
  <ele>-8.673</ele>
  <time>2026-09-02T22:12:14Z</time>
  <course>189.75</course>
  <speed>0.022360679774997897</speed>
  <fix>3d</fix>
</trkpt>
<trkpt lat="33.8103132" lon="-118.3938673">
  <ele>-8.677</ele>
  <time>2026-09-02T22:12:14Z</time>
  <course>189.9</course>
  <speed>0.022360679774997897</speed>
  <fix>3d</fix>
</trkpt>
<trkpt lat="33.810313" lon="-118.3938671">
  <ele>-8.35</ele>
  <time>2026-09-02T22:12:14Z</time>
  <course>276.25</course>
  <speed>0.0</speed>
  <fix>3d</fix>
</trkpt>
<trkpt lat="33.8103132" lon="-118.3938673">
  <ele>-8.681</ele>
  <time>2026-09-02T22:12:14Z</time>
  <course>189.96</course>
  <speed>0.022360679774997897</speed>
  <fix>3d</fix>
</trkpt>
<trkpt lat="33.8103132" lon="-118.3938673">
  <ele>-8.688</ele>
  <time>2026-09-02T22:12:14Z</time>
  <course>190.1</course>
  <speed>0.022360679774997897</speed>
  <fix>3d</fix>
</trkpt>
<trkpt lat="33.810313" lon="-118.3938671">
  <ele>-8.35</ele>
  <time>2026-09-02T22:12:14Z</time>
  <course>276.25</course>
  <speed>0.0</speed>
  <fix>3d</fix>
</trkpt>
<trkpt lat="33.8103132" lon="-118.3938673">
  <ele>-8.688</ele>
  <time>2026-09-02T22:12:14Z</time>
  <course>190.11</course>
  <speed>0.022360679774997897</speed>
  <fix>3d</fix>
</trkpt>
<trkpt lat="33.8103132" lon="-118.3938673">
  <ele>-8.691</ele>
  <time>2026-09-02T22:12:14Z</time>
  <course>190.32</course>
  <speed>0.022360679774997897</speed>
  <fix>3d</fix>
</trkpt>
<trkpt lat="33.810313" lon="-118.3938671">
  <ele>-8.32</ele>
  <time>2026-09-02T22:12:14Z</time>
  <course>276.4</course>
  <speed>0.0</speed>
  <fix>3d</fix>
</trkpt>
<trkpt lat="33.8103132" lon="-118.3938673">
  <ele>-8.691</ele>
  <time>2026-09-02T22:12:14Z</time>
  <course>190.32</course>
  <speed>0.022360679774997897</speed>
  <fix>3d</fix>
</trkpt>
<trkpt lat="33.8103132" lon="-118.3938673">
  <ele>-8.683</ele>
  <time>2026-09-02T22:12:14Z</time>
  <course>190.53</course>
  <speed>0.022360679774997897</speed>
  <fix>3d</fix>
</trkpt>
<trkpt lat="33.810313" lon="-118.3938671">
  <ele>-8.32</ele>
  <time>2026-09-02T22:12:14Z</time>
  <course>276.4</course>
  <speed>0.0</speed>
  <fix>3d</fix>
</trkpt>
<trkpt lat="33.8103132" lon="-118.3938673">
  <ele>-8.682</ele>
  <time>2026-09-02T22:12:14Z</time>
  <course>190.54</course>
  <speed>0.022360679774997897</speed>
  <fix>3d</fix>
</trkpt>
<trkpt lat="33.8103132" lon="-118.3938673">
  <ele>-8.675</ele>
  <time>2026-09-02T22:12:14Z</time>
  <course>190.75</course>
  <speed>0.022360679774997897</speed>
  <fix>3d</fix>
</trkpt>
<trkpt lat="33.810313" lon="-118.3938671">
  <ele>-8.28</ele>
  <time>2026-09-02T22:12:14Z</time>
  <course>276.56</course>
  <speed>0.0</speed>
  <fix>3d</fix>
</trkpt>
<trkpt lat="33.8103132" lon="-118.3938673">
  <ele>-8.674</ele>
  <time>2026-09-02T22:12:14Z</time>
  <course>190.76</course>
  <speed>0.022360679774997897</speed>
  <fix>3d</fix>
</trkpt>
<trkpt lat="33.8103132" lon="-118.3938673">
  <ele>-8.667</ele>
  <time>2026-09-02T22:12:14Z</time>
  <course>190.98</course>
  <speed>0.022360679774997897</speed>
  <fix>3d</fix>
</trkpt>
<trkpt lat="33.810313" lon="-118.3938671">
  <ele>-8.28</ele>
  <time>2026-09-02T22:12:14Z</time>
  <course>276.56</course>
  <speed>0.0</speed>
  <fix>3d</fix>
</trkpt>
<trkpt lat="33.8103132" lon="-118.3938673">
  <ele>-8.667</ele>
  <time>2026-09-02T22:12:14Z</time>
  <course>190.98</course>
  <speed>0.022360679774997897</speed>
  <fix>3d</fix>
</trkpt>
<trkpt lat="33.8103132" lon="-118.3938673">
  <ele>-8.656</ele>
  <time>2026-09-02T22:12:14Z</time>
  <course>191.21</course>
  <speed>0.022360679774997897</speed>
  <fix>3d</fix>
</trkpt>
<trkpt lat="33.810313" lon="-118.3938671">
  <ele>-8.25</ele>
  <time>2026-09-02T22:12:14Z</time>
  <course>276.73</course>
  <speed>0.0</speed>
  <fix>3d</fix>
</trkpt>
<trkpt lat="33.8103132" lon="-118.3938673">
  <ele>-8.655</ele>
  <time>2026-09-02T22:12:14Z</time>
  <course>191.22</course>
  <speed>0.022360679774997897</speed>
  <fix>3d</fix>
</trkpt>
<trkpt lat="33.8103132" lon="-118.3938673">
  <ele>-8.636</ele>
  <time>2026-09-02T22:12:14Z</time>
  <course>191.44</course>
  <speed>0.022360679774997897</speed>
  <fix>3d</fix>
</trkpt>
<trkpt lat="33.810313" lon="-118.3938671">
  <ele>-8.25</ele>
  <time>2026-09-02T22:12:14Z</time>
  <course>276.73</course>
  <speed>0.0</speed>
  <fix>3d</fix>
</trkpt>
<trkpt lat="33.8103132" lon="-118.3938673">
  <ele>-8.636</ele>
  <time>2026-09-02T22:12:14Z</time>
  <course>191.45</course>
  <speed>0.022360679774997897</speed>
  <fix>3d</fix>
</trkpt>
<trkpt lat="33.8103132" lon="-118.3938673">
  <ele>-8.618</ele>
  <time>2026-09-02T22:12:14Z</time>
  <course>191.68</course>
  <speed>0.022360679774997897</speed>
  <fix>3d</fix>
</trkpt>
<trkpt lat="33.810313" lon="-118.3938671">
  <ele>-8.22</ele>
  <time>2026-09-02T22:12:14Z</time>
  <course>276.9</course>
  <speed>0.0</speed>
  <fix>3d</fix>
</trkpt>
<trkpt lat="33.8103132" lon="-118.3938673">
  <ele>-8.614</ele>
  <time>2026-09-02T22:12:14Z</time>
  <course>191.73</course>
  <speed>0.022360679774997897</speed>
  <fix>3d</fix>
</trkpt>
<trkpt lat="33.8103132" lon="-118.3938673">
  <ele>-8.602</ele>
  <time>2026-09-02T22:12:14Z</time>
  <course>191.92</course>
  <speed>0.022360679774997897</speed>
  <fix>3d</fix>
</trkpt>
<trkpt lat="33.810313" lon="-118.3938671">
  <ele>-8.22</ele>
  <time>2026-09-02T22:12:14Z</time>
  <course>276.9</course>
  <speed>0.0</speed>
  <fix>3d</fix>
</trkpt>
<trkpt lat="33.8103132" lon="-118.3938673">
  <ele>-8.599</ele>
  <time>2026-09-02T22:12:14Z</time>
  <course>191.97</course>
  <speed>0.022360679774997897</speed>
  <fix>3d</fix>
</trkpt>
<trkpt lat="33.8103132" lon="-118.3938673">
  <ele>-8.584</ele>
  <time>2026-09-02T22:12:14Z</time>
  <course>192.17</course>
  <speed>0.022360679774997897</speed>
  <fix>3d</fix>
</trkpt>
<trkpt lat="33.810313" lon="-118.3938672">
  <ele>-8.19</ele>
  <time>2026-09-02T22:12:14Z</time>
  <course>277.07</course>
  <speed>0.0</speed>
  <fix>3d</fix>
</trkpt>
<trkpt lat="33.8103132" lon="-118.3938673">
  <ele>-8.58</ele>
  <time>2026-09-02T22:12:14Z</time>
  <course>192.22</course>
  <speed>0.022360679774997897</speed>
  <fix>3d</fix>
</trkpt>
<trkpt lat="33.8103132" lon="-118.3938673">
  <ele>-8.566</ele>
  <time>2026-09-02T22:12:14Z</time>
  <course>192.42</course>
  <speed>0.022360679774997897</speed>
  <fix>3d</fix>
</trkpt>
<trkpt lat="33.810313" lon="-118.3938672">
  <ele>-8.19</ele>
  <time>2026-09-02T22:12:14Z</time>
  <course>277.07</course>
  <speed>0.0</speed>
  <fix>3d</fix>
</trkpt>
<trkpt lat="33.8103132" lon="-118.3938673">
  <ele>-8.563</ele>
  <time>2026-09-02T22:12:14Z</time>
  <course>192.47</course>
  <speed>0.022360679774997897</speed>
  <fix>3d</fix>
</trkpt>
<trkpt lat="33.8103132" lon="-118.3938673">
  <ele>-8.556</ele>
  <time>2026-09-02T22:12:14Z</time>
  <course>192.67</course>
  <speed>0.022360679774997897</speed>
  <fix>3d</fix>
</trkpt>
<trkpt lat="33.810313" lon="-118.3938672">
  <ele>-8.16</ele>
  <time>2026-09-02T22:12:14Z</time>
  <course>277.25</course>
  <speed>0.0</speed>
  <fix>3d</fix>
</trkpt>
<trkpt lat="33.8103132" lon="-118.3938673">
  <ele>-8.556</ele>
  <time>2026-09-02T22:12:14Z</time>
  <course>192.72</course>
  <speed>0.022360679774997897</speed>
  <fix>3d</fix>
</trkpt>
<trkpt lat="33.8103132" lon="-118.3938673">
  <ele>-8.551</ele>
  <time>2026-09-02T22:12:14Z</time>
  <course>192.93</course>
  <speed>0.022360679774997897</speed>
  <fix>3d</fix>
</trkpt>
<trkpt lat="33.810313" lon="-118.3938672">
  <ele>-8.16</ele>
  <time>2026-09-02T22:12:14Z</time>
  <course>277.25</course>
  <speed>0.0</speed>
  <fix>3d</fix>
</trkpt>
<trkpt lat="33.8103132" lon="-118.3938673">
  <ele>-8.55</ele>
  <time>2026-09-02T22:12:14Z</time>
  <course>192.98</course>
  <speed>0.022360679774997897</speed>
  <fix>3d</fix>
</trkpt>
<trkpt lat="33.8103132" lon="-118.3938673">
  <ele>-8.538</ele>
  <time>2026-09-02T22:12:14Z</time>
  <course>193.19</course>
  <speed>0.022360679774997897</speed>
  <fix>3d</fix>
</trkpt>
<trkpt lat="33.810313" lon="-118.3938672">
  <ele>-8.12</ele>
  <time>2026-09-02T22:12:14Z</time>
  <course>277.44</course>
  <speed>0.0</speed>
  <fix>3d</fix>
</trkpt>
<trkpt lat="33.8103132" lon="-118.3938673">
  <ele>-8.535</ele>
  <time>2026-09-02T22:12:14Z</time>
  <course>193.24</course>
  <speed>0.022360679774997897</speed>
  <fix>3d</fix>
</trkpt>
<trkpt lat="33.8103132" lon="-118.3938673">
  <ele>-8.516</ele>
  <time>2026-09-02T22:12:14Z</time>
  <course>193.46</course>
  <speed>0.022360679774997897</speed>
  <fix>3d</fix>
</trkpt>
<trkpt lat="33.810313" lon="-118.3938672">
  <ele>-8.12</ele>
  <time>2026-09-02T22:12:14Z</time>
  <course>277.44</course>
  <speed>0.0</speed>
  <fix>3d</fix>
</trkpt>
<trkpt lat="33.8103132" lon="-118.3938673">
  <ele>-8.511</ele>
  <time>2026-09-02T22:12:14Z</time>
  <course>193.51</course>
  <speed>0.022360679774997897</speed>
  <fix>3d</fix>
</trkpt>
<trkpt lat="33.8103132" lon="-118.3938673">
  <ele>-8.49</ele>
  <time>2026-09-02T22:12:14Z</time>
  <course>193.73</course>
  <speed>0.022360679774997897</speed>
  <fix>3d</fix>
</trkpt>
<trkpt lat="33.810313" lon="-118.3938672">
  <ele>-8.09</ele>
  <time>2026-09-02T22:12:14Z</time>
  <course>277.64</course>
  <speed>0.0</speed>
  <fix>3d</fix>
</trkpt>
<trkpt lat="33.8103132" lon="-118.3938673">
  <ele>-8.488</ele>
  <time>2026-09-02T22:12:14Z</time>
  <course>193.74</course>
  <speed>0.022360679774997897</speed>
  <fix>3d</fix>
</trkpt>
<trkpt lat="33.8103132" lon="-118.3938673">
  <ele>-8.458</ele>
  <time>2026-09-02T22:12:14Z</time>
  <course>194.0</course>
  <speed>0.022360679774997897</speed>
  <fix>3d</fix>
</trkpt>
<trkpt lat="33.810313" lon="-118.3938672">
  <ele>-8.09</ele>
  <time>2026-09-02T22:12:14Z</time>
  <course>277.64</course>
  <speed>0.0</speed>
  <fix>3d</fix>
</trkpt>
<trkpt lat="33.8103132" lon="-118.3938673">
  <ele>-8.447</ele>
  <time>2026-09-02T22:12:14Z</time>
  <course>194.08</course>
  <speed>0.022360679774997897</speed>
  <fix>3d</fix>
</trkpt>
<trkpt lat="33.8103132" lon="-118.3938673">
  <ele>-8.42</ele>
  <time>2026-09-02T22:12:14Z</time>
  <course>194.28</course>
  <speed>0.022360679774997897</speed>
  <fix>3d</fix>
</trkpt>
<trkpt lat="33.810313" lon="-118.3938672">
  <ele>-8.06</ele>
  <time>2026-09-02T22:12:14Z</time>
  <course>277.84</course>
  <speed>0.0</speed>
  <fix>3d</fix>
</trkpt>
<trkpt lat="33.8103132" lon="-118.3938673">
  <ele>-8.417</ele>
  <time>2026-09-02T22:12:14Z</time>
  <course>194.29</course>
  <speed>0.022360679774997897</speed>
  <fix>3d</fix>
</trkpt>
<trkpt lat="33.8103132" lon="-118.3938673">
  <ele>-8.383</ele>
  <time>2026-09-02T22:12:14Z</time>
  <course>194.56</course>
  <speed>0.022360679774997897</speed>
  <fix>3d</fix>
</trkpt>
<trkpt lat="33.810313" lon="-118.3938672">
  <ele>-8.06</ele>
  <time>2026-09-02T22:12:14Z</time>
  <course>277.84</course>
  <speed>0.0</speed>
  <fix>3d</fix>
</trkpt>
<trkpt lat="33.8103132" lon="-118.3938673">
  <ele>-8.381</ele>
  <time>2026-09-02T22:12:14Z</time>
  <course>194.57</course>
  <speed>0.022360679774997897</speed>
  <fix>3d</fix>
</trkpt>
<trkpt lat="33.8103132" lon="-118.3938673">
  <ele>-8.359</ele>
  <time>2026-09-02T22:12:14Z</time>
  <course>194.84</course>
  <speed>0.022360679774997897</speed>
  <fix>3d</fix>
</trkpt>
<trkpt lat="33.810313" lon="-118.3938672">
  <ele>-8.03</ele>
  <time>2026-09-02T22:12:14Z</time>
  <course>278.03</course>
  <speed>0.0</speed>
  <fix>3d</fix>
</trkpt>
<trkpt lat="33.8103132" lon="-118.3938673">
  <ele>-8.358</ele>
  <time>2026-09-02T22:12:14Z</time>
  <course>194.86</course>
  <speed>0.022360679774997897</speed>
  <fix>3d</fix>
</trkpt>
<trkpt lat="33.8103132" lon="-118.3938673">
  <ele>-8.344</ele>
  <time>2026-09-02T22:12:14Z</time>
  <course>195.13</course>
  <speed>0.022360679774997897</speed>
  <fix>3d</fix>
</trkpt>
<trkpt lat="33.810313" lon="-118.3938672">
  <ele>-8.03</ele>
  <time>2026-09-02T22:12:14Z</time>
  <course>278.03</course>
  <speed>0.0</speed>
  <fix>3d</fix>
</trkpt>
<trkpt lat="33.8103132" lon="-118.3938673">
  <ele>-8.343</ele>
  <time>2026-09-02T22:12:14Z</time>
  <course>195.16</course>
  <speed>0.022360679774997897</speed>
  <fix>3d</fix>
</trkpt>
<trkpt lat="33.8103132" lon="-118.3938673">
  <ele>-8.333</ele>
  <time>2026-09-02T22:12:14Z</time>
  <course>195.42</course>
  <speed>0.022360679774997897</speed>
  <fix>3d</fix>
</trkpt>
<trkpt lat="33.810313" lon="-118.3938672">
  <ele>-8.0</ele>
  <time>2026-09-02T22:12:14Z</time>
  <course>278.24</course>
  <speed>0.0</speed>
  <fix>3d</fix>
</trkpt>
<trkpt lat="33.8103132" lon="-118.3938673">
  <ele>-8.333</ele>
  <time>2026-09-02T22:12:14Z</time>
  <course>195.44</course>
  <speed>0.022360679774997897</speed>
  <fix>3d</fix>
</trkpt>
<trkpt lat="33.8103132" lon="-118.3938673">
  <ele>-8.318</ele>
  <time>2026-09-02T22:12:14Z</time>
  <course>195.72</course>
  <speed>0.022360679774997897</speed>
  <fix>3d</fix>
</trkpt>
<trkpt lat="33.810313" lon="-118.3938672">
  <ele>-8.0</ele>
  <time>2026-09-02T22:12:14Z</time>
  <course>278.24</course>
  <speed>0.0</speed>
  <fix>3d</fix>
</trkpt>
<trkpt lat="33.8103132" lon="-118.3938673">
  <ele>-8.317</ele>
  <time>2026-09-02T22:12:14Z</time>
  <course>195.74</course>
  <speed>0.022360679774997897</speed>
  <fix>3d</fix>
</trkpt>
<trkpt lat="33.8103132" lon="-118.3938673">
  <ele>-8.292</ele>
  <time>2026-09-02T22:12:14Z</time>
  <course>196.02</course>
  <speed>0.022360679774997897</speed>
  <fix>3d</fix>
</trkpt>
<trkpt lat="33.810313" lon="-118.3938672">
  <ele>-7.97</ele>
  <time>2026-09-02T22:12:14Z</time>
  <course>278.46</course>
  <speed>0.0</speed>
  <fix>3d</fix>
</trkpt>
<trkpt lat="33.8103132" lon="-118.3938673">
  <ele>-8.291</ele>
  <time>2026-09-02T22:12:14Z</time>
  <course>196.03</course>
  <speed>0.022360679774997897</speed>
  <fix>3d</fix>
</trkpt>
<trkpt lat="33.8103132" lon="-118.3938673">
  <ele>-8.267</ele>
  <time>2026-09-02T22:12:14Z</time>
  <course>196.32</course>
  <speed>0.022360679774997897</speed>
  <fix>3d</fix>
</trkpt>
<trkpt lat="33.810313" lon="-118.3938672">
  <ele>-7.97</ele>
  <time>2026-09-02T22:12:14Z</time>
  <course>278.46</course>
  <speed>0.0</speed>
  <fix>3d</fix>
</trkpt>
<trkpt lat="33.8103132" lon="-118.3938673">
  <ele>-8.264</ele>
  <time>2026-09-02T22:12:14Z</time>
  <course>196.36</course>
  <speed>0.022360679774997897</speed>
  <fix>3d</fix>
</trkpt>
<trkpt lat="33.8103132" lon="-118.3938673">
  <ele>-8.246</ele>
  <time>2026-09-02T22:12:14Z</time>
  <course>196.63</course>
  <speed>0.022360679774997897</speed>
  <fix>3d</fix>
</trkpt>
<trkpt lat="33.810313" lon="-118.3938672">
  <ele>-7.93</ele>
  <time>2026-09-02T22:12:14Z</time>
  <course>278.68</course>
  <speed>0.0</speed>
  <fix>3d</fix>
</trkpt>
<trkpt lat="33.8103132" lon="-118.3938673">
  <ele>-8.244</ele>
  <time>2026-09-02T22:12:14Z</time>
  <course>196.66</course>
  <speed>0.022360679774997897</speed>
  <fix>3d</fix>
</trkpt>
<trkpt lat="33.8103132" lon="-118.3938673">
  <ele>-8.228</ele>
  <time>2026-09-02T22:12:14Z</time>
  <course>196.93</course>
  <speed>0.022360679774997897</speed>
  <fix>3d</fix>
</trkpt>
<trkpt lat="33.810313" lon="-118.3938672">
  <ele>-7.93</ele>
  <time>2026-09-02T22:12:14Z</time>
  <course>278.68</course>
  <speed>0.0</speed>
  <fix>3d</fix>
</trkpt>
<trkpt lat="33.8103132" lon="-118.3938673">
  <ele>-8.227</ele>
  <time>2026-09-02T22:12:14Z</time>
  <course>196.94</course>
  <speed>0.022360679774997897</speed>
  <fix>3d</fix>
</trkpt>
<trkpt lat="33.8103132" lon="-118.3938673">
  <ele>-8.215</ele>
  <time>2026-09-02T22:12:14Z</time>
  <course>197.24</course>
  <speed>0.022360679774997897</speed>
  <fix>3d</fix>
</trkpt>
<trkpt lat="33.810313" lon="-118.3938672">
  <ele>-7.9</ele>
  <time>2026-09-02T22:12:14Z</time>
  <course>278.91</course>
  <speed>0.0</speed>
  <fix>3d</fix>
</trkpt>
<trkpt lat="33.8103132" lon="-118.3938673">
  <ele>-8.214</ele>
  <time>2026-09-02T22:12:14Z</time>
  <course>197.28</course>
  <speed>0.022360679774997897</speed>
  <fix>3d</fix>
</trkpt>
<trkpt lat="33.8103132" lon="-118.3938673">
  <ele>-8.204</ele>
  <time>2026-09-02T22:12:14Z</time>
  <course>197.55</course>
  <speed>0.022360679774997897</speed>
  <fix>3d</fix>
</trkpt>
<trkpt lat="33.810313" lon="-118.3938672">
  <ele>-7.9</ele>
  <time>2026-09-02T22:12:14Z</time>
  <course>278.91</course>
  <speed>0.0</speed>
  <fix>3d</fix>
</trkpt>
<trkpt lat="33.8103132" lon="-118.3938673">
  <ele>-8.203</ele>
  <time>2026-09-02T22:12:14Z</time>
  <course>197.59</course>
  <speed>0.022360679774997897</speed>
  <fix>3d</fix>
</trkpt>
<trkpt lat="33.8103132" lon="-118.3938673">
  <ele>-8.192</ele>
  <time>2026-09-02T22:12:14Z</time>
  <course>197.87</course>
  <speed>0.022360679774997897</speed>
  <fix>3d</fix>
</trkpt>
<trkpt lat="33.810313" lon="-118.3938673">
  <ele>-7.87</ele>
  <time>2026-09-02T22:12:14Z</time>
  <course>279.13</course>
  <speed>0.0</speed>
  <fix>3d</fix>
</trkpt>
<trkpt lat="33.8103132" lon="-118.3938673">
  <ele>-8.191</ele>
  <time>2026-09-02T22:12:14Z</time>
  <course>197.91</course>
  <speed>0.022360679774997897</speed>
  <fix>3d</fix>
</trkpt>
<trkpt lat="33.8103132" lon="-118.3938673">
  <ele>-8.18</ele>
  <time>2026-09-02T22:12:14Z</time>
  <course>198.19</course>
  <speed>0.022360679774997897</speed>
  <fix>3d</fix>
</trkpt>
<trkpt lat="33.810313" lon="-118.3938673">
  <ele>-7.87</ele>
  <time>2026-09-02T22:12:14Z</time>
  <course>279.13</course>
  <speed>0.0</speed>
  <fix>3d</fix>
</trkpt>
<trkpt lat="33.8103132" lon="-118.3938673">
  <ele>-8.178</ele>
  <time>2026-09-02T22:12:14Z</time>
  <course>198.23</course>
  <speed>0.022360679774997897</speed>
  <fix>3d</fix>
</trkpt>
<trkpt lat="33.8103132" lon="-118.3938673">
  <ele>-8.165</ele>
  <time>2026-09-02T22:12:14Z</time>
  <course>198.51</course>
  <speed>0.0282842712474619</speed>
  <fix>3d</fix>
</trkpt>
<trkpt lat="33.810313" lon="-118.3938673">
  <ele>-7.84</ele>
  <time>2026-09-02T22:12:14Z</time>
  <course>279.36</course>
  <speed>0.0</speed>
  <fix>3d</fix>
</trkpt>
<trkpt lat="33.8103132" lon="-118.3938674">
  <ele>-8.163</ele>
  <time>2026-09-02T22:12:14Z</time>
  <course>198.57</course>
  <speed>0.0282842712474619</speed>
  <fix>3d</fix>
</trkpt>
<trkpt lat="33.8103132" lon="-118.3938674">
  <ele>-8.154</ele>
  <time>2026-09-02T22:12:15Z</time>
  <course>198.83</course>
  <speed>0.0282842712474619</speed>
  <fix>3d</fix>
</trkpt>
<trkpt lat="33.810313" lon="-118.3938673">
  <ele>-7.84</ele>
  <time>2026-09-02T22:12:15Z</time>
  <course>279.36</course>
  <speed>0.0</speed>
  <fix>3d</fix>
</trkpt>
<trkpt lat="33.8103132" lon="-118.3938674">
  <ele>-8.153</ele>
  <time>2026-09-02T22:12:15Z</time>
  <course>198.9</course>
  <speed>0.0282842712474619</speed>
  <fix>3d</fix>
</trkpt>
<trkpt lat="33.8103132" lon="-118.3938674">
  <ele>-8.143</ele>
  <time>2026-09-02T22:12:15Z</time>
  <course>199.17</course>
  <speed>0.0282842712474619</speed>
  <fix>3d</fix>
</trkpt>
<trkpt lat="33.810313" lon="-118.3938673">
  <ele>-7.81</ele>
  <time>2026-09-02T22:12:15Z</time>
  <course>279.6</course>
  <speed>0.0</speed>
  <fix>3d</fix>
</trkpt>
<trkpt lat="33.8103132" lon="-118.3938674">
  <ele>-8.14</ele>
  <time>2026-09-02T22:12:15Z</time>
  <course>199.23</course>
  <speed>0.0282842712474619</speed>
  <fix>3d</fix>
</trkpt>
<trkpt lat="33.8103132" lon="-118.3938674">
  <ele>-8.126</ele>
  <time>2026-09-02T22:12:15Z</time>
  <course>199.5</course>
  <speed>0.0282842712474619</speed>
  <fix>3d</fix>
</trkpt>
<trkpt lat="33.810313" lon="-118.3938673">
  <ele>-7.81</ele>
  <time>2026-09-02T22:12:15Z</time>
  <course>279.6</course>
  <speed>0.0</speed>
  <fix>3d</fix>
</trkpt>
<trkpt lat="33.8103132" lon="-118.3938674">
  <ele>-8.124</ele>
  <time>2026-09-02T22:12:15Z</time>
  <course>199.55</course>
  <speed>0.0282842712474619</speed>
  <fix>3d</fix>
</trkpt>
<trkpt lat="33.8103132" lon="-118.3938674">
  <ele>-8.117</ele>
  <time>2026-09-02T22:12:15Z</time>
  <course>199.84</course>
  <speed>0.0282842712474619</speed>
  <fix>3d</fix>
</trkpt>
<trkpt lat="33.810313" lon="-118.3938673">
  <ele>-7.77</ele>
  <time>2026-09-02T22:12:15Z</time>
  <course>279.85</course>
  <speed>0.0</speed>
  <fix>3d</fix>
</trkpt>
<trkpt lat="33.8103132" lon="-118.3938674">
  <ele>-8.116</ele>
  <time>2026-09-02T22:12:15Z</time>
  <course>199.88</course>
  <speed>0.0282842712474619</speed>
  <fix>3d</fix>
</trkpt>
<trkpt lat="33.8103132" lon="-118.3938674">
  <ele>-8.117</ele>
  <time>2026-09-02T22:12:15Z</time>
  <course>200.17</course>
  <speed>0.0282842712474619</speed>
  <fix>3d</fix>
</trkpt>
<trkpt lat="33.810313" lon="-118.3938673">
  <ele>-7.77</ele>
  <time>2026-09-02T22:12:15Z</time>
  <course>279.85</course>
  <speed>0.0</speed>
  <fix>3d</fix>
</trkpt>
<trkpt lat="33.8103132" lon="-118.3938674">
  <ele>-8.116</ele>
  <time>2026-09-02T22:12:15Z</time>
  <course>200.18</course>
  <speed>0.0282842712474619</speed>
  <fix>3d</fix>
</trkpt>
<trkpt lat="33.8103132" lon="-118.3938674">
  <ele>-8.121</ele>
  <time>2026-09-02T22:12:15Z</time>
  <course>200.51</course>
  <speed>0.0282842712474619</speed>
  <fix>3d</fix>
</trkpt>
<trkpt lat="33.810313" lon="-118.3938673">
  <ele>-7.74</ele>
  <time>2026-09-02T22:12:15Z</time>
  <course>280.11</course>
  <speed>0.0</speed>
  <fix>3d</fix>
</trkpt>
<trkpt lat="33.8103132" lon="-118.3938674">
  <ele>-8.122</ele>
  <time>2026-09-02T22:12:15Z</time>
  <course>200.59</course>
  <speed>0.0282842712474619</speed>
  <fix>3d</fix>
</trkpt>
<trkpt lat="33.8103132" lon="-118.3938674">
  <ele>-8.124</ele>
  <time>2026-09-02T22:12:15Z</time>
  <course>200.85</course>
  <speed>0.0282842712474619</speed>
  <fix>3d</fix>
</trkpt>
<trkpt lat="33.810313" lon="-118.3938673">
  <ele>-7.74</ele>
  <time>2026-09-02T22:12:15Z</time>
  <course>280.11</course>
  <speed>0.0</speed>
  <fix>3d</fix>
</trkpt>
<trkpt lat="33.8103132" lon="-118.3938674">
  <ele>-8.125</ele>
  <time>2026-09-02T22:12:15Z</time>
  <course>200.94</course>
  <speed>0.0282842712474619</speed>
  <fix>3d</fix>
</trkpt>
<trkpt lat="33.8103132" lon="-118.3938674">
  <ele>-8.119</ele>
  <time>2026-09-02T22:12:15Z</time>
  <course>201.19</course>
  <speed>0.0282842712474619</speed>
  <fix>3d</fix>
</trkpt>
<trkpt lat="33.810313" lon="-118.3938673">
  <ele>-7.71</ele>
  <time>2026-09-02T22:12:15Z</time>
  <course>280.35</course>
  <speed>0.0</speed>
  <fix>3d</fix>
</trkpt>
<trkpt lat="33.8103132" lon="-118.3938674">
  <ele>-8.117</ele>
  <time>2026-09-02T22:12:15Z</time>
  <course>201.27</course>
  <speed>0.0282842712474619</speed>
  <fix>3d</fix>
</trkpt>
<trkpt lat="33.8103132" lon="-118.3938674">
  <ele>-8.11</ele>
  <time>2026-09-02T22:12:15Z</time>
  <course>201.54</course>
  <speed>0.0282842712474619</speed>
  <fix>3d</fix>
</trkpt>
<trkpt lat="33.810313" lon="-118.3938673">
  <ele>-7.71</ele>
  <time>2026-09-02T22:12:15Z</time>
  <course>280.35</course>
  <speed>0.0</speed>
  <fix>3d</fix>
</trkpt>
<trkpt lat="33.8103132" lon="-118.3938674">
  <ele>-8.108</ele>
  <time>2026-09-02T22:12:15Z</time>
  <course>201.61</course>
  <speed>0.0282842712474619</speed>
  <fix>3d</fix>
</trkpt>
<trkpt lat="33.8103132" lon="-118.3938674">
  <ele>-8.094</ele>
  <time>2026-09-02T22:12:15Z</time>
  <course>201.88</course>
  <speed>0.0282842712474619</speed>
  <fix>3d</fix>
</trkpt>
<trkpt lat="33.810313" lon="-118.3938673">
  <ele>-7.68</ele>
  <time>2026-09-02T22:12:15Z</time>
  <course>280.6</course>
  <speed>0.0</speed>
  <fix>3d</fix>
</trkpt>
<trkpt lat="33.8103132" lon="-118.3938674">
  <ele>-8.089</ele>
  <time>2026-09-02T22:12:15Z</time>
  <course>201.95</course>
  <speed>0.0282842712474619</speed>
  <fix>3d</fix>
</trkpt>
<trkpt lat="33.8103132" lon="-118.3938674">
  <ele>-8.076</ele>
  <time>2026-09-02T22:12:15Z</time>
  <course>202.23</course>
  <speed>0.0282842712474619</speed>
  <fix>3d</fix>
</trkpt>
<trkpt lat="33.810313" lon="-118.3938673">
  <ele>-7.68</ele>
  <time>2026-09-02T22:12:15Z</time>
  <course>280.6</course>
  <speed>0.0</speed>
  <fix>3d</fix>
</trkpt>
<trkpt lat="33.8103132" lon="-118.3938674">
  <ele>-8.072</ele>
  <time>2026-09-02T22:12:15Z</time>
  <course>202.29</course>
  <speed>0.0282842712474619</speed>
  <fix>3d</fix>
</trkpt>
<trkpt lat="33.8103132" lon="-118.3938674">
  <ele>-8.055</ele>
  <time>2026-09-02T22:12:15Z</time>
  <course>202.59</course>
  <speed>0.0282842712474619</speed>
  <fix>3d</fix>
</trkpt>
<trkpt lat="33.810313" lon="-118.3938673">
  <ele>-7.64</ele>
  <time>2026-09-02T22:12:15Z</time>
  <course>280.85</course>
  <speed>0.0</speed>
  <fix>3d</fix>
</trkpt>
<trkpt lat="33.8103132" lon="-118.3938674">
  <ele>-8.052</ele>
  <time>2026-09-02T22:12:15Z</time>
  <course>202.6</course>
  <speed>0.0282842712474619</speed>
  <fix>3d</fix>
</trkpt>
<trkpt lat="33.8103132" lon="-118.3938675">
  <ele>-8.026</ele>
  <time>2026-09-02T22:12:15Z</time>
  <course>202.94</course>
  <speed>0.0282842712474619</speed>
  <fix>3d</fix>
</trkpt>
<trkpt lat="33.810313" lon="-118.3938673">
  <ele>-7.64</ele>
  <time>2026-09-02T22:12:15Z</time>
  <course>280.85</course>
  <speed>0.0</speed>
  <fix>3d</fix>
</trkpt>
<trkpt lat="33.8103132" lon="-118.3938675">
  <ele>-8.016</ele>
  <time>2026-09-02T22:12:15Z</time>
  <course>203.05</course>
  <speed>0.0282842712474619</speed>
  <fix>3d</fix>
</trkpt>
<trkpt lat="33.8103132" lon="-118.3938675">
  <ele>-7.994</ele>
  <time>2026-09-02T22:12:15Z</time>
  <course>203.3</course>
  <speed>0.0282842712474619</speed>
  <fix>3d</fix>
</trkpt>
<trkpt lat="33.810313" lon="-118.3938674">
  <ele>-7.61</ele>
  <time>2026-09-02T22:12:15Z</time>
  <course>281.12</course>
  <speed>0.0</speed>
  <fix>3d</fix>
</trkpt>
<trkpt lat="33.8103132" lon="-118.3938675">
  <ele>-7.991</ele>
  <time>2026-09-02T22:12:15Z</time>
  <course>203.32</course>
  <speed>0.0282842712474619</speed>
  <fix>3d</fix>
</trkpt>
<trkpt lat="33.8103132" lon="-118.3938675">
  <ele>-7.958</ele>
  <time>2026-09-02T22:12:15Z</time>
  <course>203.66</course>
  <speed>0.0282842712474619</speed>
  <fix>3d</fix>
</trkpt>
<trkpt lat="33.810313" lon="-118.3938674">
  <ele>-7.61</ele>
  <time>2026-09-02T22:12:15Z</time>
  <course>281.12</course>
  <speed>0.0</speed>
  <fix>3d</fix>
</trkpt>
<trkpt lat="33.8103132" lon="-118.3938675">
  <ele>-7.948</ele>
  <time>2026-09-02T22:12:15Z</time>
  <course>203.75</course>
  <speed>0.0282842712474619</speed>
  <fix>3d</fix>
</trkpt>
<trkpt lat="33.8103132" lon="-118.3938675">
  <ele>-7.915</ele>
  <time>2026-09-02T22:12:15Z</time>
  <course>204.03</course>
  <speed>0.0282842712474619</speed>
  <fix>3d</fix>
</trkpt>
<trkpt lat="33.810313" lon="-118.3938674">
  <ele>-7.58</ele>
  <time>2026-09-02T22:12:15Z</time>
  <course>281.4</course>
  <speed>0.0</speed>
  <fix>3d</fix>
</trkpt>
<trkpt lat="33.8103132" lon="-118.3938675">
  <ele>-7.915</ele>
  <time>2026-09-02T22:12:15Z</time>
  <course>204.04</course>
  <speed>0.0282842712474619</speed>
  <fix>3d</fix>
</trkpt>
<trkpt lat="33.8103132" lon="-118.3938675">
  <ele>-7.882</ele>
  <time>2026-09-02T22:12:15Z</time>
  <course>204.39</course>
  <speed>0.0282842712474619</speed>
  <fix>3d</fix>
</trkpt>
<trkpt lat="33.810313" lon="-118.3938674">
  <ele>-7.58</ele>
  <time>2026-09-02T22:12:15Z</time>
  <course>281.4</course>
  <speed>0.0</speed>
  <fix>3d</fix>
</trkpt>
<trkpt lat="33.8103132" lon="-118.3938675">
  <ele>-7.88</ele>
  <time>2026-09-02T22:12:15Z</time>
  <course>204.42</course>
  <speed>0.0282842712474619</speed>
  <fix>3d</fix>
</trkpt>
<trkpt lat="33.8103132" lon="-118.3938675">
  <ele>-7.855</ele>
  <time>2026-09-02T22:12:15Z</time>
  <course>204.76</course>
  <speed>0.0282842712474619</speed>
  <fix>3d</fix>
</trkpt>
<trkpt lat="33.810313" lon="-118.3938674">
  <ele>-7.55</ele>
  <time>2026-09-02T22:12:15Z</time>
  <course>281.67</course>
  <speed>0.0</speed>
  <fix>3d</fix>
</trkpt>
<trkpt lat="33.8103132" lon="-118.3938675">
  <ele>-7.853</ele>
  <time>2026-09-02T22:12:15Z</time>
  <course>204.78</course>
  <speed>0.0282842712474619</speed>
  <fix>3d</fix>
</trkpt>
<trkpt lat="33.8103132" lon="-118.3938675">
  <ele>-7.832</ele>
  <time>2026-09-02T22:12:15Z</time>
  <course>205.13</course>
  <speed>0.0282842712474619</speed>
  <fix>3d</fix>
</trkpt>
<trkpt lat="33.810313" lon="-118.3938674">
  <ele>-7.55</ele>
  <time>2026-09-02T22:12:15Z</time>
  <course>281.67</course>
  <speed>0.0</speed>
  <fix>3d</fix>
</trkpt>
<trkpt lat="33.8103132" lon="-118.3938675">
  <ele>-7.83</ele>
  <time>2026-09-02T22:12:15Z</time>
  <course>205.16</course>
  <speed>0.0282842712474619</speed>
  <fix>3d</fix>
</trkpt>
<trkpt lat="33.8103132" lon="-118.3938675">
  <ele>-7.81</ele>
  <time>2026-09-02T22:12:15Z</time>
  <course>205.51</course>
  <speed>0.0282842712474619</speed>
  <fix>3d</fix>
</trkpt>
<trkpt lat="33.810313" lon="-118.3938674">
  <ele>-7.52</ele>
  <time>2026-09-02T22:12:15Z</time>
  <course>281.93</course>
  <speed>0.0</speed>
  <fix>3d</fix>
</trkpt>
<trkpt lat="33.8103132" lon="-118.3938675">
  <ele>-7.807</ele>
  <time>2026-09-02T22:12:15Z</time>
  <course>205.56</course>
  <speed>0.0282842712474619</speed>
  <fix>3d</fix>
</trkpt>
<trkpt lat="33.8103132" lon="-118.3938675">
  <ele>-7.789</ele>
  <time>2026-09-02T22:12:15Z</time>
  <course>205.88</course>
  <speed>0.0282842712474619</speed>
  <fix>3d</fix>
</trkpt>
<trkpt lat="33.810313" lon="-118.3938674">
  <ele>-7.52</ele>
  <time>2026-09-02T22:12:15Z</time>
  <course>281.93</course>
  <speed>0.0</speed>
  <fix>3d</fix>
</trkpt>
<trkpt lat="33.8103132" lon="-118.3938675">
  <ele>-7.786</ele>
  <time>2026-09-02T22:12:15Z</time>
  <course>205.95</course>
  <speed>0.0282842712474619</speed>
  <fix>3d</fix>
</trkpt>
<trkpt lat="33.8103132" lon="-118.3938675">
  <ele>-7.772</ele>
  <time>2026-09-02T22:12:15Z</time>
  <course>206.26</course>
  <speed>0.0282842712474619</speed>
  <fix>3d</fix>
</trkpt>
<trkpt lat="33.810313" lon="-118.3938674">
  <ele>-7.48</ele>
  <time>2026-09-02T22:12:15Z</time>
  <course>282.2</course>
  <speed>0.0</speed>
  <fix>3d</fix>
</trkpt>
<trkpt lat="33.8103132" lon="-118.3938675">
  <ele>-7.768</ele>
  <time>2026-09-02T22:12:15Z</time>
  <course>206.35</course>
  <speed>0.0282842712474619</speed>
  <fix>3d</fix>
</trkpt>
<trkpt lat="33.8103132" lon="-118.3938675">
  <ele>-7.754</ele>
  <time>2026-09-02T22:12:15Z</time>
  <course>206.64</course>
  <speed>0.0282842712474619</speed>
  <fix>3d</fix>
</trkpt>
<trkpt lat="33.810313" lon="-118.3938674">
  <ele>-7.48</ele>
  <time>2026-09-02T22:12:15Z</time>
  <course>282.2</course>
  <speed>0.0</speed>
  <fix>3d</fix>
</trkpt>
<trkpt lat="33.8103132" lon="-118.3938675">
  <ele>-7.75</ele>
  <time>2026-09-02T22:12:15Z</time>
  <course>206.74</course>
  <speed>0.0282842712474619</speed>
  <fix>3d</fix>
</trkpt>
<trkpt lat="33.8103132" lon="-118.3938675">
  <ele>-7.736</ele>
  <time>2026-09-02T22:12:15Z</time>
  <course>207.03</course>
  <speed>0.0282842712474619</speed>
  <fix>3d</fix>
</trkpt>
<trkpt lat="33.810313" lon="-118.3938674">
  <ele>-7.45</ele>
  <time>2026-09-02T22:12:15Z</time>
  <course>282.49</course>
  <speed>0.0</speed>
  <fix>3d</fix>
</trkpt>
<trkpt lat="33.8103132" lon="-118.3938675">
  <ele>-7.736</ele>
  <time>2026-09-02T22:12:15Z</time>
  <course>207.05</course>
  <speed>0.0282842712474619</speed>
  <fix>3d</fix>
</trkpt>
<trkpt lat="33.8103132" lon="-118.3938675">
  <ele>-7.725</ele>
  <time>2026-09-02T22:12:15Z</time>
  <course>207.42</course>
  <speed>0.0282842712474619</speed>
  <fix>3d</fix>
</trkpt>
<trkpt lat="33.810313" lon="-118.3938674">
  <ele>-7.45</ele>
  <time>2026-09-02T22:12:15Z</time>
  <course>282.49</course>
  <speed>0.0</speed>
  <fix>3d</fix>
</trkpt>
<trkpt lat="33.8103132" lon="-118.3938676">
  <ele>-7.724</ele>
  <time>2026-09-02T22:12:15Z</time>
  <course>207.45</course>
  <speed>0.0282842712474619</speed>
  <fix>3d</fix>
</trkpt>
<trkpt lat="33.8103132" lon="-118.3938676">
  <ele>-7.722</ele>
  <time>2026-09-02T22:12:15Z</time>
  <course>207.81</course>
  <speed>0.0282842712474619</speed>
  <fix>3d</fix>
</trkpt>
<trkpt lat="33.810313" lon="-118.3938675">
  <ele>-7.42</ele>
  <time>2026-09-02T22:12:15Z</time>
  <course>282.79</course>
  <speed>0.0</speed>
  <fix>3d</fix>
</trkpt>
<trkpt lat="33.8103132" lon="-118.3938676">
  <ele>-7.721</ele>
  <time>2026-09-02T22:12:15Z</time>
  <course>207.82</course>
  <speed>0.0282842712474619</speed>
  <fix>3d</fix>
</trkpt>
<trkpt lat="33.8103132" lon="-118.3938676">
  <ele>-7.71</ele>
  <time>2026-09-02T22:12:15Z</time>
  <course>208.2</course>
  <speed>0.0282842712474619</speed>
  <fix>3d</fix>
</trkpt>
<trkpt lat="33.810313" lon="-118.3938675">
  <ele>-7.42</ele>
  <time>2026-09-02T22:12:15Z</time>
  <course>282.79</course>
  <speed>0.0</speed>
  <fix>3d</fix>
</trkpt>
<trkpt lat="33.8103132" lon="-118.3938676">
  <ele>-7.71</ele>
  <time>2026-09-02T22:12:15Z</time>
  <course>208.21</course>
  <speed>0.0282842712474619</speed>
  <fix>3d</fix>
</trkpt>
<trkpt lat="33.8103132" lon="-118.3938676">
  <ele>-7.691</ele>
  <time>2026-09-02T22:12:15Z</time>
  <course>208.6</course>
  <speed>0.0282842712474619</speed>
  <fix>3d</fix>
</trkpt>
<trkpt lat="33.810313" lon="-118.3938675">
  <ele>-7.39</ele>
  <time>2026-09-02T22:12:15Z</time>
  <course>283.11</course>
  <speed>0.0</speed>
  <fix>3d</fix>
</trkpt>
<trkpt lat="33.8103132" lon="-118.3938676">
  <ele>-7.69</ele>
  <time>2026-09-02T22:12:15Z</time>
  <course>208.63</course>
  <speed>0.0282842712474619</speed>
  <fix>3d</fix>
</trkpt>
<trkpt lat="33.8103132" lon="-118.3938676">
  <ele>-7.671</ele>
  <time>2026-09-02T22:12:15Z</time>
  <course>208.99</course>
  <speed>0.0282842712474619</speed>
  <fix>3d</fix>
</trkpt>
<trkpt lat="33.810313" lon="-118.3938675">
  <ele>-7.39</ele>
  <time>2026-09-02T22:12:15Z</time>
  <course>283.11</course>
  <speed>0.0</speed>
  <fix>3d</fix>
</trkpt>
<trkpt lat="33.8103132" lon="-118.3938676">
  <ele>-7.669</ele>
  <time>2026-09-02T22:12:15Z</time>
  <course>209.04</course>
  <speed>0.0282842712474619</speed>
  <fix>3d</fix>
</trkpt>
<trkpt lat="33.8103132" lon="-118.3938676">
  <ele>-7.65</ele>
  <time>2026-09-02T22:12:15Z</time>
  <course>209.39</course>
  <speed>0.0282842712474619</speed>
  <fix>3d</fix>
</trkpt>
<trkpt lat="33.810313" lon="-118.3938675">
  <ele>-7.35</ele>
  <time>2026-09-02T22:12:15Z</time>
  <course>283.42</course>
  <speed>0.0</speed>
  <fix>3d</fix>
</trkpt>
<trkpt lat="33.8103132" lon="-118.3938676">
  <ele>-7.646</ele>
  <time>2026-09-02T22:12:15Z</time>
  <course>209.46</course>
  <speed>0.0282842712474619</speed>
  <fix>3d</fix>
</trkpt>
<trkpt lat="33.8103132" lon="-118.3938676">
  <ele>-7.626</ele>
  <time>2026-09-02T22:12:15Z</time>
  <course>209.79</course>
  <speed>0.0282842712474619</speed>
  <fix>3d</fix>
</trkpt>
<trkpt lat="33.810313" lon="-118.3938675">
  <ele>-7.35</ele>
  <time>2026-09-02T22:12:15Z</time>
  <course>283.42</course>
  <speed>0.0</speed>
  <fix>3d</fix>
</trkpt>
<trkpt lat="33.8103132" lon="-118.3938676">
  <ele>-7.621</ele>
  <time>2026-09-02T22:12:15Z</time>
  <course>209.88</course>
  <speed>0.0282842712474619</speed>
  <fix>3d</fix>
</trkpt>
<trkpt lat="33.8103132" lon="-118.3938676">
  <ele>-7.601</ele>
  <time>2026-09-02T22:12:15Z</time>
  <course>210.2</course>
  <speed>0.0282842712474619</speed>
  <fix>3d</fix>
</trkpt>
<trkpt lat="33.810313" lon="-118.3938675">
  <ele>-7.32</ele>
  <time>2026-09-02T22:12:15Z</time>
  <course>283.74</course>
  <speed>0.0</speed>
  <fix>3d</fix>
</trkpt>
<trkpt lat="33.8103132" lon="-118.3938676">
  <ele>-7.594</ele>
  <time>2026-09-02T22:12:15Z</time>
  <course>210.31</course>
  <speed>0.0282842712474619</speed>
  <fix>3d</fix>
</trkpt>
<trkpt lat="33.8103132" lon="-118.3938676">
  <ele>-7.574</ele>
  <time>2026-09-02T22:12:15Z</time>
  <course>210.6</course>
  <speed>0.0282842712474619</speed>
  <fix>3d</fix>
</trkpt>
<trkpt lat="33.810313" lon="-118.3938675">
  <ele>-7.32</ele>
  <time>2026-09-02T22:12:15Z</time>
  <course>283.74</course>
  <speed>0.0</speed>
  <fix>3d</fix>
</trkpt>
<trkpt lat="33.8103132" lon="-118.3938676">
  <ele>-7.573</ele>
  <time>2026-09-02T22:12:15Z</time>
  <course>210.62</course>
  <speed>0.0282842712474619</speed>
  <fix>3d</fix>
</trkpt>
<trkpt lat="33.8103132" lon="-118.3938676">
  <ele>-7.547</ele>
  <time>2026-09-02T22:12:15Z</time>
  <course>211.01</course>
  <speed>0.0282842712474619</speed>
  <fix>3d</fix>
</trkpt>
<trkpt lat="33.810313" lon="-118.3938675">
  <ele>-7.29</ele>
  <time>2026-09-02T22:12:15Z</time>
  <course>284.08</course>
  <speed>0.0</speed>
  <fix>3d</fix>
</trkpt>
<trkpt lat="33.8103132" lon="-118.3938676">
  <ele>-7.545</ele>
  <time>2026-09-02T22:12:15Z</time>
  <course>211.05</course>
  <speed>0.0282842712474619</speed>
  <fix>3d</fix>
</trkpt>
<trkpt lat="33.8103132" lon="-118.3938677">
  <ele>-7.526</ele>
  <time>2026-09-02T22:12:15Z</time>
  <course>211.42</course>
  <speed>0.0282842712474619</speed>
  <fix>3d</fix>
</trkpt>
<trkpt lat="33.810313" lon="-118.3938675">
  <ele>-7.29</ele>
  <time>2026-09-02T22:12:15Z</time>
  <course>284.08</course>
  <speed>0.0</speed>
  <fix>3d</fix>
</trkpt>
<trkpt lat="33.8103132" lon="-118.3938677">
  <ele>-7.523</ele>
  <time>2026-09-02T22:12:15Z</time>
  <course>211.47</course>
  <speed>0.0282842712474619</speed>
  <fix>3d</fix>
</trkpt>
<trkpt lat="33.8103132" lon="-118.3938677">
  <ele>-7.507</ele>
  <time>2026-09-02T22:12:15Z</time>
  <course>211.83</course>
  <speed>0.0282842712474619</speed>
  <fix>3d</fix>
</trkpt>
<trkpt lat="33.810313" lon="-118.3938675">
  <ele>-7.26</ele>
  <time>2026-09-02T22:12:15Z</time>
  <course>284.45</course>
  <speed>0.0</speed>
  <fix>3d</fix>
</trkpt>
<trkpt lat="33.8103132" lon="-118.3938677">
  <ele>-7.504</ele>
  <time>2026-09-02T22:12:15Z</time>
  <course>211.91</course>
  <speed>0.0282842712474619</speed>
  <fix>3d</fix>
</trkpt>
<trkpt lat="33.8103132" lon="-118.3938677">
  <ele>-7.488</ele>
  <time>2026-09-02T22:12:15Z</time>
  <course>212.25</course>
  <speed>0.0282842712474619</speed>
  <fix>3d</fix>
</trkpt>
<trkpt lat="33.810313" lon="-118.3938675">
  <ele>-7.26</ele>
  <time>2026-09-02T22:12:15Z</time>
  <course>284.45</course>
  <speed>0.0</speed>
  <fix>3d</fix>
</trkpt>
<trkpt lat="33.8103132" lon="-118.3938677">
  <ele>-7.487</ele>
  <time>2026-09-02T22:12:15Z</time>
  <course>212.27</course>
  <speed>0.0282842712474619</speed>
  <fix>3d</fix>
</trkpt>
<trkpt lat="33.8103132" lon="-118.3938677">
  <ele>-7.473</ele>
  <time>2026-09-02T22:12:15Z</time>
  <course>212.67</course>
  <speed>0.0282842712474619</speed>
  <fix>3d</fix>
</trkpt>
<trkpt lat="33.810313" lon="-118.3938676">
  <ele>-7.22</ele>
  <time>2026-09-02T22:12:15Z</time>
  <course>284.85</course>
  <speed>0.0</speed>
  <fix>3d</fix>
</trkpt>
<trkpt lat="33.8103132" lon="-118.3938677">
  <ele>-7.472</ele>
  <time>2026-09-02T22:12:15Z</time>
  <course>212.72</course>
  <speed>0.0282842712474619</speed>
  <fix>3d</fix>
</trkpt>
<trkpt lat="33.8103132" lon="-118.3938677">
  <ele>-7.47</ele>
  <time>2026-09-02T22:12:15Z</time>
  <course>213.09</course>
  <speed>0.0282842712474619</speed>
  <fix>3d</fix>
</trkpt>
<trkpt lat="33.810313" lon="-118.3938676">
  <ele>-7.22</ele>
  <time>2026-09-02T22:12:15Z</time>
  <course>284.85</course>
  <speed>0.0</speed>
  <fix>3d</fix>
</trkpt>
<trkpt lat="33.8103132" lon="-118.3938677">
  <ele>-7.472</ele>
  <time>2026-09-02T22:12:15Z</time>
  <course>213.17</course>
  <speed>0.0282842712474619</speed>
  <fix>3d</fix>
</trkpt>
<trkpt lat="33.8103132" lon="-118.3938677">
  <ele>-7.479</ele>
  <time>2026-09-02T22:12:15Z</time>
  <course>213.51</course>
  <speed>0.0282842712474619</speed>
  <fix>3d</fix>
</trkpt>
<trkpt lat="33.810313" lon="-118.3938676">
  <ele>-7.19</ele>
  <time>2026-09-02T22:12:15Z</time>
  <course>285.27</course>
  <speed>0.0</speed>
  <fix>3d</fix>
</trkpt>
<trkpt lat="33.8103132" lon="-118.3938677">
  <ele>-7.482</ele>
  <time>2026-09-02T22:12:15Z</time>
  <course>213.61</course>
  <speed>0.0282842712474619</speed>
  <fix>3d</fix>
</trkpt>
<trkpt lat="33.8103132" lon="-118.3938677">
  <ele>-7.483</ele>
  <time>2026-09-02T22:12:16Z</time>
  <course>213.94</course>
  <speed>0.0282842712474619</speed>
  <fix>3d</fix>
</trkpt>
<trkpt lat="33.810313" lon="-118.3938676">
  <ele>-7.19</ele>
  <time>2026-09-02T22:12:16Z</time>
  <course>285.27</course>
  <speed>0.0</speed>
  <fix>3d</fix>
</trkpt>
<trkpt lat="33.8103132" lon="-118.3938677">
  <ele>-7.484</ele>
  <time>2026-09-02T22:12:16Z</time>
  <course>214.02</course>
  <speed>0.0282842712474619</speed>
  <fix>3d</fix>
</trkpt>
<trkpt lat="33.8103132" lon="-118.3938677">
  <ele>-7.482</ele>
  <time>2026-09-02T22:12:16Z</time>
  <course>214.36</course>
  <speed>0.0282842712474619</speed>
  <fix>3d</fix>
</trkpt>
<trkpt lat="33.810313" lon="-118.3938676">
  <ele>-7.16</ele>
  <time>2026-09-02T22:12:16Z</time>
  <course>285.71</course>
  <speed>0.0</speed>
  <fix>3d</fix>
</trkpt>
<trkpt lat="33.8103132" lon="-118.3938677">
  <ele>-7.482</ele>
  <time>2026-09-02T22:12:16Z</time>
  <course>214.44</course>
  <speed>0.0282842712474619</speed>
  <fix>3d</fix>
</trkpt>
<trkpt lat="33.8103132" lon="-118.3938677">
  <ele>-7.478</ele>
  <time>2026-09-02T22:12:16Z</time>
  <course>214.8</course>
  <speed>0.0282842712474619</speed>
  <fix>3d</fix>
</trkpt>
<trkpt lat="33.810313" lon="-118.3938676">
  <ele>-7.16</ele>
  <time>2026-09-02T22:12:16Z</time>
  <course>285.71</course>
  <speed>0.0</speed>
  <fix>3d</fix>
</trkpt>
<trkpt lat="33.8103132" lon="-118.3938677">
  <ele>-7.477</ele>
  <time>2026-09-02T22:12:16Z</time>
  <course>214.87</course>
  <speed>0.0282842712474619</speed>
  <fix>3d</fix>
</trkpt>
<trkpt lat="33.8103132" lon="-118.3938677">
  <ele>-7.473</ele>
  <time>2026-09-02T22:12:16Z</time>
  <course>215.23</course>
  <speed>0.0282842712474619</speed>
  <fix>3d</fix>
</trkpt>
<trkpt lat="33.810313" lon="-118.3938676">
  <ele>-7.13</ele>
  <time>2026-09-02T22:12:16Z</time>
  <course>286.12</course>
  <speed>0.0</speed>
  <fix>3d</fix>
</trkpt>
<trkpt lat="33.8103132" lon="-118.3938677">
  <ele>-7.473</ele>
  <time>2026-09-02T22:12:16Z</time>
  <course>215.29</course>
  <speed>0.0282842712474619</speed>
  <fix>3d</fix>
</trkpt>
<trkpt lat="33.8103132" lon="-118.3938678">
  <ele>-7.468</ele>
  <time>2026-09-02T22:12:16Z</time>
  <course>215.67</course>
  <speed>0.0282842712474619</speed>
  <fix>3d</fix>
</trkpt>
<trkpt lat="33.810313" lon="-118.3938676">
  <ele>-7.13</ele>
  <time>2026-09-02T22:12:16Z</time>
  <course>286.12</course>
  <speed>0.0</speed>
  <fix>3d</fix>
</trkpt>
<trkpt lat="33.8103132" lon="-118.3938678">
  <ele>-7.467</ele>
  <time>2026-09-02T22:12:16Z</time>
  <course>215.71</course>
  <speed>0.0282842712474619</speed>
  <fix>3d</fix>
</trkpt>
<trkpt lat="33.8103132" lon="-118.3938678">
  <ele>-7.453</ele>
  <time>2026-09-02T22:12:16Z</time>
  <course>216.11</course>
  <speed>0.0282842712474619</speed>
  <fix>3d</fix>
</trkpt>
<trkpt lat="33.8103131" lon="-118.3938676">
  <ele>-7.1</ele>
  <time>2026-09-02T22:12:16Z</time>
  <course>286.52</course>
  <speed>0.01</speed>
  <fix>3d</fix>
</trkpt>
<trkpt lat="33.8103132" lon="-118.3938678">
  <ele>-7.452</ele>
  <time>2026-09-02T22:12:16Z</time>
  <course>216.13</course>
  <speed>0.0282842712474619</speed>
  <fix>3d</fix>
</trkpt>
<trkpt lat="33.8103132" lon="-118.3938678">
  <ele>-7.434</ele>
  <time>2026-09-02T22:12:16Z</time>
  <course>216.56</course>
  <speed>0.0282842712474619</speed>
  <fix>3d</fix>
</trkpt>
<trkpt lat="33.8103131" lon="-118.3938676">
  <ele>-7.1</ele>
  <time>2026-09-02T22:12:16Z</time>
  <course>286.52</course>
  <speed>0.01</speed>
  <fix>3d</fix>
</trkpt>
<trkpt lat="33.8103132" lon="-118.3938678">
  <ele>-7.434</ele>
  <time>2026-09-02T22:12:16Z</time>
  <course>216.57</course>
  <speed>0.0282842712474619</speed>
  <fix>3d</fix>
</trkpt>
<trkpt lat="33.8103132" lon="-118.3938678">
  <ele>-7.418</ele>
  <time>2026-09-02T22:12:16Z</time>
  <course>217.0</course>
  <speed>0.0282842712474619</speed>
  <fix>3d</fix>
</trkpt>
<trkpt lat="33.8103131" lon="-118.3938677">
  <ele>-7.07</ele>
  <time>2026-09-02T22:12:16Z</time>
  <course>286.91</course>
  <speed>0.01</speed>
  <fix>3d</fix>
</trkpt>
<trkpt lat="33.8103132" lon="-118.3938678">
  <ele>-7.417</ele>
  <time>2026-09-02T22:12:16Z</time>
  <course>217.03</course>
  <speed>0.0282842712474619</speed>
  <fix>3d</fix>
</trkpt>
<trkpt lat="33.8103132" lon="-118.3938678">
  <ele>-7.406</ele>
  <time>2026-09-02T22:12:16Z</time>
  <course>217.44</course>
  <speed>0.0282842712474619</speed>
  <fix>3d</fix>
</trkpt>
<trkpt lat="33.8103131" lon="-118.3938677">
  <ele>-7.07</ele>
  <time>2026-09-02T22:12:16Z</time>
  <course>286.91</course>
  <speed>0.01</speed>
  <fix>3d</fix>
</trkpt>
<trkpt lat="33.8103132" lon="-118.3938678">
  <ele>-7.406</ele>
  <time>2026-09-02T22:12:16Z</time>
  <course>217.45</course>
  <speed>0.0282842712474619</speed>
  <fix>3d</fix>
</trkpt>
<trkpt lat="33.8103132" lon="-118.3938678">
  <ele>-7.396</ele>
  <time>2026-09-02T22:12:16Z</time>
  <course>217.89</course>
  <speed>0.0282842712474619</speed>
  <fix>3d</fix>
</trkpt>
<trkpt lat="33.8103131" lon="-118.3938677">
  <ele>-7.04</ele>
  <time>2026-09-02T22:12:16Z</time>
  <course>287.28</course>
  <speed>0.01</speed>
  <fix>3d</fix>
</trkpt>
<trkpt lat="33.8103132" lon="-118.3938678">
  <ele>-7.394</ele>
  <time>2026-09-02T22:12:16Z</time>
  <course>217.99</course>
  <speed>0.0282842712474619</speed>
  <fix>3d</fix>
</trkpt>
<trkpt lat="33.8103132" lon="-118.3938678">
  <ele>-7.391</ele>
  <time>2026-09-02T22:12:16Z</time>
  <course>218.34</course>
  <speed>0.0282842712474619</speed>
  <fix>3d</fix>
</trkpt>
<trkpt lat="33.8103131" lon="-118.3938677">
  <ele>-7.04</ele>
  <time>2026-09-02T22:12:16Z</time>
  <course>287.28</course>
  <speed>0.01</speed>
  <fix>3d</fix>
</trkpt>
<trkpt lat="33.8103132" lon="-118.3938678">
  <ele>-7.391</ele>
  <time>2026-09-02T22:12:16Z</time>
  <course>218.42</course>
  <speed>0.0282842712474619</speed>
  <fix>3d</fix>
</trkpt>
<trkpt lat="33.8103132" lon="-118.3938678">
  <ele>-7.391</ele>
  <time>2026-09-02T22:12:16Z</time>
  <course>218.79</course>
  <speed>0.0282842712474619</speed>
  <fix>3d</fix>
</trkpt>
<trkpt lat="33.8103131" lon="-118.3938677">
  <ele>-7.0</ele>
  <time>2026-09-02T22:12:16Z</time>
  <course>287.64</course>
  <speed>0.01</speed>
  <fix>3d</fix>
</trkpt>
<trkpt lat="33.8103132" lon="-118.3938678">
  <ele>-7.39</ele>
  <time>2026-09-02T22:12:16Z</time>
  <course>218.87</course>
  <speed>0.0282842712474619</speed>
  <fix>3d</fix>
</trkpt>
<trkpt lat="33.8103132" lon="-118.3938678">
  <ele>-7.392</ele>
  <time>2026-09-02T22:12:16Z</time>
  <course>219.24</course>
  <speed>0.0282842712474619</speed>
  <fix>3d</fix>
</trkpt>
<trkpt lat="33.8103131" lon="-118.3938677">
  <ele>-7.0</ele>
  <time>2026-09-02T22:12:16Z</time>
  <course>287.64</course>
  <speed>0.01</speed>
  <fix>3d</fix>
</trkpt>
<trkpt lat="33.8103132" lon="-118.3938678">
  <ele>-7.392</ele>
  <time>2026-09-02T22:12:16Z</time>
  <course>219.3</course>
  <speed>0.0282842712474619</speed>
  <fix>3d</fix>
</trkpt>
<trkpt lat="33.8103132" lon="-118.3938678">
  <ele>-7.393</ele>
  <time>2026-09-02T22:12:16Z</time>
  <course>219.7</course>
  <speed>0.0282842712474619</speed>
  <fix>3d</fix>
</trkpt>
<trkpt lat="33.8103131" lon="-118.3938677">
  <ele>-6.97</ele>
  <time>2026-09-02T22:12:16Z</time>
  <course>288.0</course>
  <speed>0.01</speed>
  <fix>3d</fix>
</trkpt>
<trkpt lat="33.8103132" lon="-118.3938679">
  <ele>-7.392</ele>
  <time>2026-09-02T22:12:16Z</time>
  <course>219.74</course>
  <speed>0.0282842712474619</speed>
  <fix>3d</fix>
</trkpt>
<trkpt lat="33.8103132" lon="-118.3938679">
  <ele>-7.395</ele>
  <time>2026-09-02T22:12:16Z</time>
  <course>220.16</course>
  <speed>0.0282842712474619</speed>
  <fix>3d</fix>
</trkpt>
<trkpt lat="33.8103131" lon="-118.3938677">
  <ele>-6.97</ele>
  <time>2026-09-02T22:12:16Z</time>
  <course>288.0</course>
  <speed>0.01</speed>
  <fix>3d</fix>
</trkpt>
<trkpt lat="33.8103132" lon="-118.3938679">
  <ele>-7.394</ele>
  <time>2026-09-02T22:12:16Z</time>
  <course>220.18</course>
  <speed>0.0282842712474619</speed>
  <fix>3d</fix>
</trkpt>
<trkpt lat="33.8103132" lon="-118.3938679">
  <ele>-7.389</ele>
  <time>2026-09-02T22:12:16Z</time>
  <course>220.62</course>
  <speed>0.0282842712474619</speed>
  <fix>3d</fix>
</trkpt>
<trkpt lat="33.8103131" lon="-118.3938678">
  <ele>-6.94</ele>
  <time>2026-09-02T22:12:16Z</time>
  <course>288.33</course>
  <speed>0.01</speed>
  <fix>3d</fix>
</trkpt>
<trkpt lat="33.8103132" lon="-118.3938679">
  <ele>-7.389</ele>
  <time>2026-09-02T22:12:16Z</time>
  <course>220.63</course>
  <speed>0.0282842712474619</speed>
  <fix>3d</fix>
</trkpt>
<trkpt lat="33.8103132" lon="-118.3938679">
  <ele>-7.375</ele>
  <time>2026-09-02T22:12:16Z</time>
  <course>221.08</course>
  <speed>0.0282842712474619</speed>
  <fix>3d</fix>
</trkpt>
<trkpt lat="33.8103131" lon="-118.3938678">
  <ele>-6.94</ele>
  <time>2026-09-02T22:12:16Z</time>
  <course>288.33</course>
  <speed>0.01</speed>
  <fix>3d</fix>
</trkpt>
<trkpt lat="33.8103132" lon="-118.3938679">
  <ele>-7.373</ele>
  <time>2026-09-02T22:12:16Z</time>
  <course>221.18</course>
  <speed>0.0282842712474619</speed>
  <fix>3d</fix>
</trkpt>
<trkpt lat="33.8103132" lon="-118.3938679">
  <ele>-7.355</ele>
  <time>2026-09-02T22:12:16Z</time>
  <course>221.53</course>
  <speed>0.0282842712474619</speed>
  <fix>3d</fix>
</trkpt>
<trkpt lat="33.8103131" lon="-118.3938678">
  <ele>-6.91</ele>
  <time>2026-09-02T22:12:16Z</time>
  <course>288.67</course>
  <speed>0.01</speed>
  <fix>3d</fix>
</trkpt>
<trkpt lat="33.8103132" lon="-118.3938679">
  <ele>-7.353</ele>
  <time>2026-09-02T22:12:16Z</time>
  <course>221.55</course>
  <speed>0.0282842712474619</speed>
  <fix>3d</fix>
</trkpt>
<trkpt lat="33.8103132" lon="-118.3938679">
  <ele>-7.328</ele>
  <time>2026-09-02T22:12:16Z</time>
  <course>222.0</course>
  <speed>0.0282842712474619</speed>
  <fix>3d</fix>
</trkpt>
<trkpt lat="33.8103131" lon="-118.3938678">
  <ele>-6.91</ele>
  <time>2026-09-02T22:12:16Z</time>
  <course>288.67</course>
  <speed>0.01</speed>
  <fix>3d</fix>
</trkpt>
<trkpt lat="33.8103133" lon="-118.3938679">
  <ele>-7.321</ele>
  <time>2026-09-02T22:12:16Z</time>
  <course>222.12</course>
  <speed>0.0282842712474619</speed>
  <fix>3d</fix>
</trkpt>
<trkpt lat="33.8103133" lon="-118.3938679">
  <ele>-7.297</ele>
  <time>2026-09-02T22:12:16Z</time>
  <course>222.47</course>
  <speed>0.0282842712474619</speed>
  <fix>3d</fix>
</trkpt>
<trkpt lat="33.8103131" lon="-118.3938678">
  <ele>-6.88</ele>
  <time>2026-09-02T22:12:16Z</time>
  <course>289.04</course>
  <speed>0.01</speed>
  <fix>3d</fix>
</trkpt>
<trkpt lat="33.8103133" lon="-118.3938679">
  <ele>-7.288</ele>
  <time>2026-09-02T22:12:16Z</time>
  <course>222.58</course>
  <speed>0.0282842712474619</speed>
  <fix>3d</fix>
</trkpt>
<trkpt lat="33.8103133" lon="-118.3938679">
  <ele>-7.265</ele>
  <time>2026-09-02T22:12:16Z</time>
  <course>222.94</course>
  <speed>0.0282842712474619</speed>
  <fix>3d</fix>
</trkpt>
<trkpt lat="33.8103131" lon="-118.3938678">
  <ele>-6.88</ele>
  <time>2026-09-02T22:12:16Z</time>
  <course>289.04</course>
  <speed>0.01</speed>
  <fix>3d</fix>
</trkpt>
<trkpt lat="33.8103133" lon="-118.3938679">
  <ele>-7.263</ele>
  <time>2026-09-02T22:12:16Z</time>
  <course>222.95</course>
  <speed>0.0282842712474619</speed>
  <fix>3d</fix>
</trkpt>
<trkpt lat="33.8103133" lon="-118.3938679">
  <ele>-7.234</ele>
  <time>2026-09-02T22:12:16Z</time>
  <course>223.41</course>
  <speed>0.0282842712474619</speed>
  <fix>3d</fix>
</trkpt>
<trkpt lat="33.8103131" lon="-118.3938678">
  <ele>-6.85</ele>
  <time>2026-09-02T22:12:16Z</time>
  <course>289.4</course>
  <speed>0.01</speed>
  <fix>3d</fix>
</trkpt>
<trkpt lat="33.8103133" lon="-118.3938679">
  <ele>-7.231</ele>
  <time>2026-09-02T22:12:16Z</time>
  <course>223.44</course>
  <speed>0.0282842712474619</speed>
  <fix>3d</fix>
</trkpt>
<trkpt lat="33.8103133" lon="-118.3938679">
  <ele>-7.196</ele>
  <time>2026-09-02T22:12:16Z</time>
  <course>223.88</course>
  <speed>0.03605551275463989</speed>
  <fix>3d</fix>
</trkpt>
<trkpt lat="33.8103131" lon="-118.3938678">
  <ele>-6.85</ele>
  <time>2026-09-02T22:12:16Z</time>
  <course>289.4</course>
  <speed>0.01</speed>
  <fix>3d</fix>
</trkpt>
<trkpt lat="33.8103133" lon="-118.3938679">
  <ele>-7.191</ele>
  <time>2026-09-02T22:12:16Z</time>
  <course>223.95</course>
  <speed>0.03605551275463989</speed>
  <fix>3d</fix>
</trkpt>
<trkpt lat="33.8103133" lon="-118.3938679">
  <ele>-7.154</ele>
  <time>2026-09-02T22:12:16Z</time>
  <course>224.36</course>
  <speed>0.03605551275463989</speed>
  <fix>3d</fix>
</trkpt>
<trkpt lat="33.8103131" lon="-118.3938678">
  <ele>-6.82</ele>
  <time>2026-09-02T22:12:16Z</time>
  <course>289.75</course>
  <speed>0.01</speed>
  <fix>3d</fix>
</trkpt>
<trkpt lat="33.8103133" lon="-118.3938679">
  <ele>-7.145</ele>
  <time>2026-09-02T22:12:16Z</time>
  <course>224.42</course>
  <speed>0.03605551275463989</speed>
  <fix>3d</fix>
</trkpt>
<trkpt lat="33.8103133" lon="-118.393868">
  <ele>-7.114</ele>
  <time>2026-09-02T22:12:16Z</time>
  <course>224.84</course>
  <speed>0.03605551275463989</speed>
  <fix>3d</fix>
</trkpt>
<trkpt lat="33.8103131" lon="-118.3938678">
  <ele>-6.82</ele>
  <time>2026-09-02T22:12:16Z</time>
  <course>289.75</course>
  <speed>0.01</speed>
  <fix>3d</fix>
</trkpt>
<trkpt lat="33.8103133" lon="-118.393868">
  <ele>-7.111</ele>
  <time>2026-09-02T22:12:16Z</time>
  <course>224.89</course>
  <speed>0.03605551275463989</speed>
  <fix>3d</fix>
</trkpt>
<trkpt lat="33.8103133" lon="-118.393868">
  <ele>-7.091</ele>
  <time>2026-09-02T22:12:16Z</time>
  <course>225.32</course>
  <speed>0.03605551275463989</speed>
  <fix>3d</fix>
</trkpt>
<trkpt lat="33.8103131" lon="-118.3938679">
  <ele>-6.78</ele>
  <time>2026-09-02T22:12:16Z</time>
  <course>290.11</course>
  <speed>0.01</speed>
  <fix>3d</fix>
</trkpt>
<trkpt lat="33.8103133" lon="-118.393868">
  <ele>-7.09</ele>
  <time>2026-09-02T22:12:16Z</time>
  <course>225.36</course>
  <speed>0.03605551275463989</speed>
  <fix>3d</fix>
</trkpt>
<trkpt lat="33.8103133" lon="-118.393868">
  <ele>-7.076</ele>
  <time>2026-09-02T22:12:16Z</time>
  <course>225.8</course>
  <speed>0.03605551275463989</speed>
  <fix>3d</fix>
</trkpt>
<trkpt lat="33.8103131" lon="-118.3938679">
  <ele>-6.78</ele>
  <time>2026-09-02T22:12:16Z</time>
  <course>290.11</course>
  <speed>0.01</speed>
  <fix>3d</fix>
</trkpt>
<trkpt lat="33.8103133" lon="-118.393868">
  <ele>-7.074</ele>
  <time>2026-09-02T22:12:16Z</time>
  <course>225.84</course>
  <speed>0.03605551275463989</speed>
  <fix>3d</fix>
</trkpt>
<trkpt lat="33.8103133" lon="-118.393868">
  <ele>-7.066</ele>
  <time>2026-09-02T22:12:16Z</time>
  <course>226.28</course>
  <speed>0.03605551275463989</speed>
  <fix>3d</fix>
</trkpt>
<trkpt lat="33.8103131" lon="-118.3938679">
  <ele>-6.75</ele>
  <time>2026-09-02T22:12:16Z</time>
  <course>290.49</course>
  <speed>0.01</speed>
  <fix>3d</fix>
</trkpt>
<trkpt lat="33.8103133" lon="-118.393868">
  <ele>-7.066</ele>
  <time>2026-09-02T22:12:16Z</time>
  <course>226.29</course>
  <speed>0.03605551275463989</speed>
  <fix>3d</fix>
</trkpt>
<trkpt lat="33.8103133" lon="-118.393868">
  <ele>-7.062</ele>
  <time>2026-09-02T22:12:16Z</time>
  <course>226.76</course>
  <speed>0.03605551275463989</speed>
  <fix>3d</fix>
</trkpt>
<trkpt lat="33.8103131" lon="-118.3938679">
  <ele>-6.75</ele>
  <time>2026-09-02T22:12:16Z</time>
  <course>290.49</course>
  <speed>0.01</speed>
  <fix>3d</fix>
</trkpt>
<trkpt lat="33.8103133" lon="-118.393868">
  <ele>-7.06</ele>
  <time>2026-09-02T22:12:16Z</time>
  <course>226.84</course>
  <speed>0.03605551275463989</speed>
  <fix>3d</fix>
</trkpt>
<trkpt lat="33.8103133" lon="-118.393868">
  <ele>-7.057</ele>
  <time>2026-09-02T22:12:16Z</time>
  <course>227.25</course>
  <speed>0.03605551275463989</speed>
  <fix>3d</fix>
</trkpt>
<trkpt lat="33.8103131" lon="-118.3938679">
  <ele>-6.72</ele>
  <time>2026-09-02T22:12:16Z</time>
  <course>290.88</course>
  <speed>0.01</speed>
  <fix>3d</fix>
</trkpt>
<trkpt lat="33.8103133" lon="-118.393868">
  <ele>-7.055</ele>
  <time>2026-09-02T22:12:16Z</time>
  <course>227.33</course>
  <speed>0.03605551275463989</speed>
  <fix>3d</fix>
</trkpt>
<trkpt lat="33.8103133" lon="-118.393868">
  <ele>-7.047</ele>
  <time>2026-09-02T22:12:16Z</time>
  <course>227.74</course>
  <speed>0.03605551275463989</speed>
  <fix>3d</fix>
</trkpt>
<trkpt lat="33.8103131" lon="-118.3938679">
  <ele>-6.72</ele>
  <time>2026-09-02T22:12:16Z</time>
  <course>290.88</course>
  <speed>0.01</speed>
  <fix>3d</fix>
</trkpt>
<trkpt lat="33.8103133" lon="-118.393868">
  <ele>-7.045</ele>
  <time>2026-09-02T22:12:16Z</time>
  <course>227.82</course>
  <speed>0.03605551275463989</speed>
  <fix>3d</fix>
</trkpt>
<trkpt lat="33.8103133" lon="-118.393868">
  <ele>-7.039</ele>
  <time>2026-09-02T22:12:16Z</time>
  <course>228.22</course>
  <speed>0.03605551275463989</speed>
  <fix>3d</fix>
</trkpt>
<trkpt lat="33.8103131" lon="-118.3938679">
  <ele>-6.69</ele>
  <time>2026-09-02T22:12:16Z</time>
  <course>291.27</course>
  <speed>0.01</speed>
  <fix>3d</fix>
</trkpt>
<trkpt lat="33.8103133" lon="-118.393868">
  <ele>-7.037</ele>
  <time>2026-09-02T22:12:16Z</time>
  <course>228.32</course>
  <speed>0.03605551275463989</speed>
  <fix>3d</fix>
</trkpt>
<trkpt lat="33.8103133" lon="-118.393868">
  <ele>-7.034</ele>
  <time>2026-09-02T22:12:16Z</time>
  <course>228.71</course>
  <speed>0.03605551275463989</speed>
  <fix>3d</fix>
</trkpt>
<trkpt lat="33.8103131" lon="-118.3938679">
  <ele>-6.69</ele>
  <time>2026-09-02T22:12:16Z</time>
  <course>291.27</course>
  <speed>0.01</speed>
  <fix>3d</fix>
</trkpt>
<trkpt lat="33.8103133" lon="-118.3938681">
  <ele>-7.033</ele>
  <time>2026-09-02T22:12:16Z</time>
  <course>228.81</course>
  <speed>0.03605551275463989</speed>
  <fix>3d</fix>
</trkpt>
<trkpt lat="33.8103133" lon="-118.3938681">
  <ele>-7.027</ele>
  <time>2026-09-02T22:12:16Z</time>
  <course>229.2</course>
  <speed>0.03605551275463989</speed>
  <fix>3d</fix>
</trkpt>
<trkpt lat="33.8103131" lon="-118.393868">
  <ele>-6.66</ele>
  <time>2026-09-02T22:12:16Z</time>
  <course>291.64</course>
  <speed>0.01</speed>
  <fix>3d</fix>
</trkpt>
<trkpt lat="33.8103133" lon="-118.3938681">
  <ele>-7.026</ele>
  <time>2026-09-02T22:12:16Z</time>
  <course>229.25</course>
  <speed>0.03605551275463989</speed>
  <fix>3d</fix>
</trkpt>
<trkpt lat="33.8103133" lon="-118.3938681">
  <ele>-7.013</ele>
  <time>2026-09-02T22:12:16Z</time>
  <course>229.7</course>
  <speed>0.03605551275463989</speed>
  <fix>3d</fix>
</trkpt>
<trkpt lat="33.8103131" lon="-118.393868">
  <ele>-6.66</ele>
  <time>2026-09-02T22:12:16Z</time>
  <course>291.64</course>
  <speed>0.01</speed>
  <fix>3d</fix>
</trkpt>
<trkpt lat="33.8103133" lon="-118.3938681">
  <ele>-7.01</ele>
  <time>2026-09-02T22:12:16Z</time>
  <course>229.8</course>
  <speed>0.03605551275463989</speed>
  <fix>3d</fix>
</trkpt>
<trkpt lat="33.8103133" lon="-118.3938681">
  <ele>-7.0</ele>
  <time>2026-09-02T22:12:16Z</time>
  <course>230.19</course>
  <speed>0.03605551275463989</speed>
  <fix>3d</fix>
</trkpt>
<trkpt lat="33.8103131" lon="-118.393868">
  <ele>-6.63</ele>
  <time>2026-09-02T22:12:16Z</time>
  <course>292.02</course>
  <speed>0.01</speed>
  <fix>3d</fix>
</trkpt>
<trkpt lat="33.8103133" lon="-118.3938681">
  <ele>-6.997</ele>
  <time>2026-09-02T22:12:16Z</time>
  <course>230.33</course>
  <speed>0.03605551275463989</speed>
  <fix>3d</fix>
</trkpt>
<trkpt lat="33.8103133" lon="-118.3938681">
  <ele>-6.991</ele>
  <time>2026-09-02T22:12:16Z</time>
  <course>230.69</course>
  <speed>0.03605551275463989</speed>
  <fix>3d</fix>
</trkpt>
<trkpt lat="33.8103131" lon="-118.393868">
  <ele>-6.63</ele>
  <time>2026-09-02T22:12:16Z</time>
  <course>292.02</course>
  <speed>0.01</speed>
  <fix>3d</fix>
</trkpt>
<trkpt lat="33.8103133" lon="-118.3938681">
  <ele>-6.989</ele>
  <time>2026-09-02T22:12:16Z</time>
  <course>230.82</course>
  <speed>0.03605551275463989</speed>
  <fix>3d</fix>
</trkpt>
<trkpt lat="33.8103133" lon="-118.3938681">
  <ele>-6.982</ele>
  <time>2026-09-02T22:12:16Z</time>
  <course>231.18</course>
  <speed>0.03605551275463989</speed>
  <fix>3d</fix>
</trkpt>
<trkpt lat="33.8103131" lon="-118.393868">
  <ele>-6.59</ele>
  <time>2026-09-02T22:12:16Z</time>
  <course>292.42</course>
  <speed>0.01</speed>
  <fix>3d</fix>
</trkpt>
<trkpt lat="33.8103133" lon="-118.3938681">
  <ele>-6.979</ele>
  <time>2026-09-02T22:12:16Z</time>
  <course>231.34</course>
  <speed>0.03605551275463989</speed>
  <fix>3d</fix>
</trkpt>
<trkpt lat="33.8103133" lon="-118.3938681">
  <ele>-6.975</ele>
  <time>2026-09-02T22:12:16Z</time>
  <course>231.68</course>
  <speed>0.03605551275463989</speed>
  <fix>3d</fix>
</trkpt>
<trkpt lat="33.8103131" lon="-118.393868">
  <ele>-6.59</ele>
  <time>2026-09-02T22:12:16Z</time>
  <course>292.42</course>
  <speed>0.01</speed>
  <fix>3d</fix>
</trkpt>
<trkpt lat="33.8103133" lon="-118.3938681">
  <ele>-6.975</ele>
  <time>2026-09-02T22:12:16Z</time>
  <course>231.7</course>
  <speed>0.03605551275463989</speed>
  <fix>3d</fix>
</trkpt>
<trkpt lat="33.8103133" lon="-118.3938681">
  <ele>-6.964</ele>
  <time>2026-09-02T22:12:16Z</time>
  <course>232.2</course>
  <speed>0.03605551275463989</speed>
  <fix>3d</fix>
</trkpt>
<trkpt lat="33.8103131" lon="-118.393868">
  <ele>-6.56</ele>
  <time>2026-09-02T22:12:16Z</time>
  <course>292.84</course>
  <speed>0.01</speed>
  <fix>3d</fix>
</trkpt>
<trkpt lat="33.8103133" lon="-118.3938681">
  <ele>-6.963</ele>
  <time>2026-09-02T22:12:16Z</time>
  <course>232.21</course>
  <speed>0.03605551275463989</speed>
  <fix>3d</fix>
</trkpt>
<trkpt lat="33.8103133" lon="-118.3938681">
  <ele>-6.936</ele>
  <time>2026-09-02T22:12:17Z</time>
  <course>232.7</course>
  <speed>0.03605551275463989</speed>
  <fix>3d</fix>
</trkpt>
<trkpt lat="33.8103131" lon="-118.393868">
  <ele>-6.56</ele>
  <time>2026-09-02T22:12:17Z</time>
  <course>292.84</course>
  <speed>0.01</speed>
  <fix>3d</fix>
</trkpt>
<trkpt lat="33.8103133" lon="-118.3938681">
  <ele>-6.927</ele>
  <time>2026-09-02T22:12:17Z</time>
  <course>232.84</course>
  <speed>0.03605551275463989</speed>
  <fix>3d</fix>
</trkpt>
<trkpt lat="33.8103133" lon="-118.3938681">
  <ele>-6.902</ele>
  <time>2026-09-02T22:12:17Z</time>
  <course>233.21</course>
  <speed>0.03605551275463989</speed>
  <fix>3d</fix>
</trkpt>
<trkpt lat="33.8103131" lon="-118.3938681">
  <ele>-6.53</ele>
  <time>2026-09-02T22:12:17Z</time>
  <course>293.26</course>
  <speed>0.01</speed>
  <fix>3d</fix>
</trkpt>
<trkpt lat="33.8103133" lon="-118.3938681">
  <ele>-6.901</ele>
  <time>2026-09-02T22:12:17Z</time>
  <course>233.22</course>
  <speed>0.03605551275463989</speed>
  <fix>3d</fix>
</trkpt>
<trkpt lat="33.8103133" lon="-118.3938681">
  <ele>-6.867</ele>
  <time>2026-09-02T22:12:17Z</time>
  <course>233.71</course>
  <speed>0.03605551275463989</speed>
  <fix>3d</fix>
</trkpt>
<trkpt lat="33.8103131" lon="-118.3938681">
  <ele>-6.53</ele>
  <time>2026-09-02T22:12:17Z</time>
  <course>293.26</course>
  <speed>0.01</speed>
  <fix>3d</fix>
</trkpt>
<trkpt lat="33.8103133" lon="-118.3938682">
  <ele>-6.857</ele>
  <time>2026-09-02T22:12:17Z</time>
  <course>233.85</course>
  <speed>0.03605551275463989</speed>
  <fix>3d</fix>
</trkpt>
<trkpt lat="33.8103133" lon="-118.3938682">
  <ele>-6.828</ele>
  <time>2026-09-02T22:12:17Z</time>
  <course>234.22</course>
  <speed>0.03605551275463989</speed>
  <fix>3d</fix>
</trkpt>
<trkpt lat="33.8103131" lon="-118.3938681">
  <ele>-6.5</ele>
  <time>2026-09-02T22:12:17Z</time>
  <course>293.66</course>
  <speed>0.01</speed>
  <fix>3d</fix>
</trkpt>
<trkpt lat="33.8103133" lon="-118.3938682">
  <ele>-6.828</ele>
  <time>2026-09-02T22:12:17Z</time>
  <course>234.23</course>
  <speed>0.03605551275463989</speed>
  <fix>3d</fix>
</trkpt>
<trkpt lat="33.8103133" lon="-118.3938682">
  <ele>-6.789</ele>
  <time>2026-09-02T22:12:17Z</time>
  <course>234.73</course>
  <speed>0.03605551275463989</speed>
  <fix>3d</fix>
</trkpt>
<trkpt lat="33.8103131" lon="-118.3938681">
  <ele>-6.5</ele>
  <time>2026-09-02T22:12:17Z</time>
  <course>293.66</course>
  <speed>0.01</speed>
  <fix>3d</fix>
</trkpt>
<trkpt lat="33.8103133" lon="-118.3938682">
  <ele>-6.78</ele>
  <time>2026-09-02T22:12:17Z</time>
  <course>234.87</course>
  <speed>0.03605551275463989</speed>
  <fix>3d</fix>
</trkpt>
<trkpt lat="33.8103133" lon="-118.3938682">
  <ele>-6.756</ele>
  <time>2026-09-02T22:12:17Z</time>
  <course>235.24</course>
  <speed>0.0316227766016838</speed>
  <fix>3d</fix>
</trkpt>
<trkpt lat="33.8103131" lon="-118.3938681">
  <ele>-6.46</ele>
  <time>2026-09-02T22:12:17Z</time>
  <course>294.07</course>
  <speed>0.01</speed>
  <fix>3d</fix>
</trkpt>
<trkpt lat="33.8103133" lon="-118.3938682">
  <ele>-6.747</ele>
  <time>2026-09-02T22:12:17Z</time>
  <course>235.38</course>
  <speed>0.0316227766016838</speed>
  <fix>3d</fix>
</trkpt>
<trkpt lat="33.8103133" lon="-118.3938682">
  <ele>-6.73</ele>
  <time>2026-09-02T22:12:17Z</time>
  <course>235.76</course>
  <speed>0.0316227766016838</speed>
  <fix>3d</fix>
</trkpt>
<trkpt lat="33.8103131" lon="-118.3938681">
  <ele>-6.46</ele>
  <time>2026-09-02T22:12:17Z</time>
  <course>294.07</course>
  <speed>0.01</speed>
  <fix>3d</fix>
</trkpt>
<trkpt lat="33.8103133" lon="-118.3938682">
  <ele>-6.729</ele>
  <time>2026-09-02T22:12:17Z</time>
  <course>235.78</course>
  <speed>0.0316227766016838</speed>
  <fix>3d</fix>
</trkpt>
<trkpt lat="33.8103133" lon="-118.3938682">
  <ele>-6.71</ele>
  <time>2026-09-02T22:12:17Z</time>
  <course>236.27</course>
  <speed>0.0316227766016838</speed>
  <fix>3d</fix>
</trkpt>
<trkpt lat="33.8103131" lon="-118.3938681">
  <ele>-6.43</ele>
  <time>2026-09-02T22:12:17Z</time>
  <course>294.49</course>
  <speed>0.01</speed>
  <fix>3d</fix>
</trkpt>
<trkpt lat="33.8103133" lon="-118.3938682">
  <ele>-6.708</ele>
  <time>2026-09-02T22:12:17Z</time>
  <course>236.32</course>
  <speed>0.0316227766016838</speed>
  <fix>3d</fix>
</trkpt>
<trkpt lat="33.8103133" lon="-118.3938682">
  <ele>-6.694</ele>
  <time>2026-09-02T22:12:17Z</time>
  <course>236.78</course>
  <speed>0.0316227766016838</speed>
  <fix>3d</fix>
</trkpt>
<trkpt lat="33.8103131" lon="-118.3938681">
  <ele>-6.43</ele>
  <time>2026-09-02T22:12:17Z</time>
  <course>294.49</course>
  <speed>0.01</speed>
  <fix>3d</fix>
</trkpt>
<trkpt lat="33.8103133" lon="-118.3938682">
  <ele>-6.694</ele>
  <time>2026-09-02T22:12:17Z</time>
  <course>236.8</course>
  <speed>0.0316227766016838</speed>
  <fix>3d</fix>
</trkpt>
<trkpt lat="33.8103133" lon="-118.3938682">
  <ele>-6.68</ele>
  <time>2026-09-02T22:12:17Z</time>
  <course>237.3</course>
  <speed>0.0316227766016838</speed>
  <fix>3d</fix>
</trkpt>
<trkpt lat="33.8103131" lon="-118.3938682">
  <ele>-6.4</ele>
  <time>2026-09-02T22:12:17Z</time>
  <course>294.95</course>
  <speed>0.01</speed>
  <fix>3d</fix>
</trkpt>
<trkpt lat="33.8103133" lon="-118.3938682">
  <ele>-6.675</ele>
  <time>2026-09-02T22:12:17Z</time>
  <course>237.42</course>
  <speed>0.0316227766016838</speed>
  <fix>3d</fix>
</trkpt>
<trkpt lat="33.8103133" lon="-118.3938682">
  <ele>-6.656</ele>
  <time>2026-09-02T22:12:17Z</time>
  <course>237.82</course>
  <speed>0.0316227766016838</speed>
  <fix>3d</fix>
</trkpt>
<trkpt lat="33.8103131" lon="-118.3938682">
  <ele>-6.4</ele>
  <time>2026-09-02T22:12:17Z</time>
  <course>294.95</course>
  <speed>0.01</speed>
  <fix>3d</fix>
</trkpt>
<trkpt lat="33.8103133" lon="-118.3938682">
  <ele>-6.649</ele>
  <time>2026-09-02T22:12:17Z</time>
  <course>237.95</course>
  <speed>0.0316227766016838</speed>
  <fix>3d</fix>
</trkpt>
<trkpt lat="33.8103133" lon="-118.3938682">
  <ele>-6.63</ele>
  <time>2026-09-02T22:12:17Z</time>
  <course>238.34</course>
  <speed>0.0316227766016838</speed>
  <fix>3d</fix>
</trkpt>
<trkpt lat="33.8103131" lon="-118.3938682">
  <ele>-6.37</ele>
  <time>2026-09-02T22:12:17Z</time>
  <course>295.42</course>
  <speed>0.01</speed>
  <fix>3d</fix>
</trkpt>
<trkpt lat="33.8103133" lon="-118.3938682">
  <ele>-6.629</ele>
  <time>2026-09-02T22:12:17Z</time>
  <course>238.35</course>
  <speed>0.0316227766016838</speed>
  <fix>3d</fix>
</trkpt>
<trkpt lat="33.8103133" lon="-118.3938682">
  <ele>-6.604</ele>
  <time>2026-09-02T22:12:17Z</time>
  <course>238.86</course>
  <speed>0.0316227766016838</speed>
  <fix>3d</fix>
</trkpt>
<trkpt lat="33.8103131" lon="-118.3938682">
  <ele>-6.37</ele>
  <time>2026-09-02T22:12:17Z</time>
  <course>295.42</course>
  <speed>0.01</speed>
  <fix>3d</fix>
</trkpt>
<trkpt lat="33.8103133" lon="-118.3938683">
  <ele>-6.597</ele>
  <time>2026-09-02T22:12:17Z</time>
  <course>238.97</course>
  <speed>0.0316227766016838</speed>
  <fix>3d</fix>
</trkpt>
<trkpt lat="33.8103133" lon="-118.3938683">
  <ele>-6.577</ele>
  <time>2026-09-02T22:12:17Z</time>
  <course>239.38</course>
  <speed>0.0316227766016838</speed>
  <fix>3d</fix>
</trkpt>
<trkpt lat="33.8103131" lon="-118.3938682">
  <ele>-6.33</ele>
  <time>2026-09-02T22:12:17Z</time>
  <course>295.86</course>
  <speed>0.01</speed>
  <fix>3d</fix>
</trkpt>
<trkpt lat="33.8103133" lon="-118.3938683">
  <ele>-6.574</ele>
  <time>2026-09-02T22:12:17Z</time>
  <course>239.48</course>
  <speed>0.0316227766016838</speed>
  <fix>3d</fix>
</trkpt>
<trkpt lat="33.8103133" lon="-118.3938683">
  <ele>-6.555</ele>
  <time>2026-09-02T22:12:17Z</time>
  <course>239.9</course>
  <speed>0.0316227766016838</speed>
  <fix>3d</fix>
</trkpt>
<trkpt lat="33.8103131" lon="-118.3938682">
  <ele>-6.33</ele>
  <time>2026-09-02T22:12:17Z</time>
  <course>295.86</course>
  <speed>0.01</speed>
  <fix>3d</fix>
</trkpt>
<trkpt lat="33.8103133" lon="-118.3938683">
  <ele>-6.551</ele>
  <time>2026-09-02T22:12:17Z</time>
  <course>239.99</course>
  <speed>0.0316227766016838</speed>
  <fix>3d</fix>
</trkpt>
<trkpt lat="33.8103133" lon="-118.3938683">
  <ele>-6.532</ele>
  <time>2026-09-02T22:12:17Z</time>
  <course>240.43</course>
  <speed>0.0316227766016838</speed>
  <fix>3d</fix>
</trkpt>
<trkpt lat="33.8103132" lon="-118.3938682">
  <ele>-6.3</ele>
  <time>2026-09-02T22:12:17Z</time>
  <course>296.31</course>
  <speed>0.01</speed>
  <fix>3d</fix>
</trkpt>
<trkpt lat="33.8103133" lon="-118.3938683">
  <ele>-6.529</ele>
  <time>2026-09-02T22:12:17Z</time>
  <course>240.5</course>
  <speed>0.0316227766016838</speed>
  <fix>3d</fix>
</trkpt>
<trkpt lat="33.8103133" lon="-118.3938683">
  <ele>-6.516</ele>
  <time>2026-09-02T22:12:17Z</time>
  <course>240.95</course>
  <speed>0.0316227766016838</speed>
  <fix>3d</fix>
</trkpt>
<trkpt lat="33.8103132" lon="-118.3938682">
  <ele>-6.3</ele>
  <time>2026-09-02T22:12:17Z</time>
  <course>296.31</course>
  <speed>0.01</speed>
  <fix>3d</fix>
</trkpt>
<trkpt lat="33.8103133" lon="-118.3938683">
  <ele>-6.515</ele>
  <time>2026-09-02T22:12:17Z</time>
  <course>241.01</course>
  <speed>0.0316227766016838</speed>
  <fix>3d</fix>
</trkpt>
<trkpt lat="33.8103133" lon="-118.3938683">
  <ele>-6.501</ele>
  <time>2026-09-02T22:12:17Z</time>
  <course>241.48</course>
  <speed>0.0316227766016838</speed>
  <fix>3d</fix>
</trkpt>
<trkpt lat="33.8103133" lon="-118.3938683">
  <ele>-6.27</ele>
  <time>2026-09-02T22:12:17Z</time>
  <course>296.77</course>
  <speed>0.01</speed>
  <fix>3d</fix>
</trkpt>
<trkpt lat="33.8103133" lon="-118.3938683">
  <ele>-6.5</ele>
  <time>2026-09-02T22:12:17Z</time>
  <course>241.52</course>
  <speed>0.0316227766016838</speed>
  <fix>3d</fix>
</trkpt>
<trkpt lat="33.8103134" lon="-118.3938683">
  <ele>-6.483</ele>
  <time>2026-09-02T22:12:17Z</time>
  <course>242.01</course>
  <speed>0.0316227766016838</speed>
  <fix>3d</fix>
</trkpt>
<trkpt lat="33.8103133" lon="-118.3938683">
  <ele>-6.27</ele>
  <time>2026-09-02T22:12:17Z</time>
  <course>296.77</course>
  <speed>0.01</speed>
  <fix>3d</fix>
</trkpt>
<trkpt lat="33.8103134" lon="-118.3938683">
  <ele>-6.483</ele>
  <time>2026-09-02T22:12:17Z</time>
  <course>242.04</course>
  <speed>0.0316227766016838</speed>
  <fix>3d</fix>
</trkpt>
<trkpt lat="33.8103134" lon="-118.3938683">
  <ele>-6.471</ele>
  <time>2026-09-02T22:12:17Z</time>
  <course>242.54</course>
  <speed>0.0316227766016838</speed>
  <fix>3d</fix>
</trkpt>
<trkpt lat="33.8103133" lon="-118.3938683">
  <ele>-6.24</ele>
  <time>2026-09-02T22:12:17Z</time>
  <course>297.26</course>
  <speed>0.01</speed>
  <fix>3d</fix>
</trkpt>
<trkpt lat="33.8103134" lon="-118.3938683">
  <ele>-6.471</ele>
  <time>2026-09-02T22:12:17Z</time>
  <course>242.55</course>
  <speed>0.0316227766016838</speed>
  <fix>3d</fix>
</trkpt>
<trkpt lat="33.8103134" lon="-118.3938683">
  <ele>-6.46</ele>
  <time>2026-09-02T22:12:17Z</time>
  <course>243.07</course>
  <speed>0.0316227766016838</speed>
  <fix>3d</fix>
</trkpt>
<trkpt lat="33.8103133" lon="-118.3938683">
  <ele>-6.24</ele>
  <time>2026-09-02T22:12:17Z</time>
  <course>297.26</course>
  <speed>0.01</speed>
  <fix>3d</fix>
</trkpt>
<trkpt lat="33.8103134" lon="-118.3938683">
  <ele>-6.458</ele>
  <time>2026-09-02T22:12:17Z</time>
  <course>243.16</course>
  <speed>0.0316227766016838</speed>
  <fix>3d</fix>
</trkpt>
<trkpt lat="33.8103134" lon="-118.3938683">
  <ele>-6.448</ele>
  <time>2026-09-02T22:12:17Z</time>
  <course>243.6</course>
  <speed>0.0316227766016838</speed>
  <fix>3d</fix>
</trkpt>
<trkpt lat="33.8103133" lon="-118.3938683">
  <ele>-6.2</ele>
  <time>2026-09-02T22:12:17Z</time>
  <course>297.77</course>
  <speed>0.01</speed>
  <fix>3d</fix>
</trkpt>
<trkpt lat="33.8103134" lon="-118.3938683">
  <ele>-6.446</ele>
  <time>2026-09-02T22:12:17Z</time>
  <course>243.68</course>
  <speed>0.0316227766016838</speed>
  <fix>3d</fix>
</trkpt>
<trkpt lat="33.8103134" lon="-118.3938684">
  <ele>-6.433</ele>
  <time>2026-09-02T22:12:17Z</time>
  <course>244.14</course>
  <speed>0.0316227766016838</speed>
  <fix>3d</fix>
</trkpt>
<trkpt lat="33.8103133" lon="-118.3938683">
  <ele>-6.2</ele>
  <time>2026-09-02T22:12:17Z</time>
  <course>297.77</course>
  <speed>0.01</speed>
  <fix>3d</fix>
</trkpt>
<trkpt lat="33.8103134" lon="-118.3938684">
  <ele>-6.431</ele>
  <time>2026-09-02T22:12:17Z</time>
  <course>244.19</course>
  <speed>0.0316227766016838</speed>
  <fix>3d</fix>
</trkpt>
<trkpt lat="33.8103134" lon="-118.3938684">
  <ele>-6.413</ele>
  <time>2026-09-02T22:12:17Z</time>
  <course>244.67</course>
  <speed>0.0316227766016838</speed>
  <fix>3d</fix>
</trkpt>
<trkpt lat="33.8103133" lon="-118.3938683">
  <ele>-6.17</ele>
  <time>2026-09-02T22:12:17Z</time>
  <course>298.27</course>
  <speed>0.01</speed>
  <fix>3d</fix>
</trkpt>
<trkpt lat="33.8103134" lon="-118.3938684">
  <ele>-6.411</ele>
  <time>2026-09-02T22:12:17Z</time>
  <course>244.71</course>
  <speed>0.0316227766016838</speed>
  <fix>3d</fix>
</trkpt>
<trkpt lat="33.8103134" lon="-118.3938684">
  <ele>-6.386</ele>
  <time>2026-09-02T22:12:17Z</time>
  <course>245.21</course>
  <speed>0.0316227766016838</speed>
  <fix>3d</fix>
</trkpt>
<trkpt lat="33.8103133" lon="-118.3938683">
  <ele>-6.17</ele>
  <time>2026-09-02T22:12:17Z</time>
  <course>298.27</course>
  <speed>0.01</speed>
  <fix>3d</fix>
</trkpt>
<trkpt lat="33.8103134" lon="-118.3938684">
  <ele>-6.383</ele>
  <time>2026-09-02T22:12:17Z</time>
  <course>245.23</course>
  <speed>0.0316227766016838</speed>
  <fix>3d</fix>
</trkpt>
<trkpt lat="33.8103134" lon="-118.3938684">
  <ele>-6.356</ele>
  <time>2026-09-02T22:12:17Z</time>
  <course>245.75</course>
  <speed>0.0316227766016838</speed>
  <fix>3d</fix>
</trkpt>
<trkpt lat="33.8103133" lon="-118.3938684">
  <ele>-6.14</ele>
  <time>2026-09-02T22:12:17Z</time>
  <course>298.76</course>
  <speed>0.01</speed>
  <fix>3d</fix>
</trkpt>
<trkpt lat="33.8103134" lon="-118.3938684">
  <ele>-6.355</ele>
  <time>2026-09-02T22:12:17Z</time>
  <course>245.76</course>
  <speed>0.0316227766016838</speed>
  <fix>3d</fix>
</trkpt>
<trkpt lat="33.8103135" lon="-118.3938684">
  <ele>-6.335</ele>
  <time>2026-09-02T22:12:17Z</time>
  <course>246.28</course>
  <speed>0.0316227766016838</speed>
  <fix>3d</fix>
</trkpt>
<trkpt lat="33.8103133" lon="-118.3938684">
  <ele>-6.14</ele>
  <time>2026-09-02T22:12:17Z</time>
  <course>298.76</course>
  <speed>0.01</speed>
  <fix>3d</fix>
</trkpt>
<trkpt lat="33.8103135" lon="-118.3938684">
  <ele>-6.333</ele>
  <time>2026-09-02T22:12:17Z</time>
  <course>246.41</course>
  <speed>0.0316227766016838</speed>
  <fix>3d</fix>
</trkpt>
<trkpt lat="33.8103135" lon="-118.3938684">
  <ele>-6.322</ele>
  <time>2026-09-02T22:12:17Z</time>
  <course>246.83</course>
  <speed>0.0316227766016838</speed>
  <fix>3d</fix>
</trkpt>
<trkpt lat="33.8103133" lon="-118.3938684">
  <ele>-6.1</ele>
  <time>2026-09-02T22:12:17Z</time>
  <course>299.27</course>
  <speed>0.01</speed>
  <fix>3d</fix>
</trkpt>
<trkpt lat="33.8103135" lon="-118.3938684">
  <ele>-6.319</ele>
  <time>2026-09-02T22:12:17Z</time>
  <course>246.94</course>
  <speed>0.0316227766016838</speed>
  <fix>3d</fix>
</trkpt>
<trkpt lat="33.8103135" lon="-118.3938684">
  <ele>-6.309</ele>
  <time>2026-09-02T22:12:17Z</time>
  <course>247.37</course>
  <speed>0.0316227766016838</speed>
  <fix>3d</fix>
</trkpt>
<trkpt lat="33.8103133" lon="-118.3938684">
  <ele>-6.1</ele>
  <time>2026-09-02T22:12:17Z</time>
  <course>299.27</course>
  <speed>0.01</speed>
  <fix>3d</fix>
</trkpt>
<trkpt lat="33.8103135" lon="-118.3938684">
  <ele>-6.307</ele>
  <time>2026-09-02T22:12:17Z</time>
  <course>247.46</course>
  <speed>0.0316227766016838</speed>
  <fix>3d</fix>
</trkpt>
<trkpt lat="33.8103135" lon="-118.3938684">
  <ele>-6.298</ele>
  <time>2026-09-02T22:12:17Z</time>
  <course>247.91</course>
  <speed>0.0316227766016838</speed>
  <fix>3d</fix>
</trkpt>
<trkpt lat="33.8103133" lon="-118.3938684">
  <ele>-6.07</ele>
  <time>2026-09-02T22:12:17Z</time>
  <course>299.8</course>
  <speed>0.01</speed>
  <fix>3d</fix>
</trkpt>
<trkpt lat="33.8103135" lon="-118.3938684">
  <ele>-6.297</ele>
  <time>2026-09-02T22:12:17Z</time>
  <course>247.92</course>
  <speed>0.0316227766016838</speed>
  <fix>3d</fix>
</trkpt>
<trkpt lat="33.8103135" lon="-118.3938684">
  <ele>-6.281</ele>
  <time>2026-09-02T22:12:17Z</time>
  <course>248.45</course>
  <speed>0.0316227766016838</speed>
  <fix>3d</fix>
</trkpt>
<trkpt lat="33.8103133" lon="-118.3938684">
  <ele>-6.07</ele>
  <time>2026-09-02T22:12:17Z</time>
  <course>299.8</course>
  <speed>0.01</speed>
  <fix>3d</fix>
</trkpt>
<trkpt lat="33.8103135" lon="-118.3938684">
  <ele>-6.277</ele>
  <time>2026-09-02T22:12:17Z</time>
  <course>248.57</course>
  <speed>0.0316227766016838</speed>
  <fix>3d</fix>
</trkpt>
<trkpt lat="33.8103135" lon="-118.3938685">
  <ele>-6.26</ele>
  <time>2026-09-02T22:12:17Z</time>
  <course>249.0</course>
  <speed>0.0316227766016838</speed>
  <fix>3d</fix>
</trkpt>
<trkpt lat="33.8103133" lon="-118.3938684">
  <ele>-6.04</ele>
  <time>2026-09-02T22:12:17Z</time>
  <course>300.36</course>
  <speed>0.01</speed>
  <fix>3d</fix>
</trkpt>
<trkpt lat="33.8103135" lon="-118.3938685">
  <ele>-6.26</ele>
  <time>2026-09-02T22:12:17Z</time>
  <course>249.01</course>
  <speed>0.0316227766016838</speed>
  <fix>3d</fix>
</trkpt>
<trkpt lat="33.8103135" lon="-118.3938685">
  <ele>-6.241</ele>
  <time>2026-09-02T22:12:17Z</time>
  <course>249.54</course>
  <speed>0.0316227766016838</speed>
  <fix>3d</fix>
</trkpt>
<trkpt lat="33.8103133" lon="-118.3938684">
  <ele>-6.04</ele>
  <time>2026-09-02T22:12:17Z</time>
  <course>300.36</course>
  <speed>0.01</speed>
  <fix>3d</fix>
</trkpt>
<trkpt lat="33.8103135" lon="-118.3938685">
  <ele>-6.24</ele>
  <time>2026-09-02T22:12:17Z</time>
  <course>249.57</course>
  <speed>0.0316227766016838</speed>
  <fix>3d</fix>
</trkpt>
<trkpt lat="33.8103135" lon="-118.3938685">
  <ele>-6.23</ele>
  <time>2026-09-02T22:12:17Z</time>
  <course>250.08</course>
  <speed>0.0316227766016838</speed>
  <fix>3d</fix>
</trkpt>
<trkpt lat="33.8103133" lon="-118.3938685">
  <ele>-6.0</ele>
  <time>2026-09-02T22:12:17Z</time>
  <course>300.92</course>
  <speed>0.01</speed>
  <fix>3d</fix>
</trkpt>
<trkpt lat="33.8103135" lon="-118.3938685">
  <ele>-6.227</ele>
  <time>2026-09-02T22:12:17Z</time>
  <course>250.21</course>
  <speed>0.0316227766016838</speed>
  <fix>3d</fix>
</trkpt>
<trkpt lat="33.8103135" lon="-118.3938685">
  <ele>-6.217</ele>
  <time>2026-09-02T22:12:17Z</time>
  <course>250.63</course>
  <speed>0.0316227766016838</speed>
  <fix>3d</fix>
</trkpt>
<trkpt lat="33.8103133" lon="-118.3938685">
  <ele>-6.0</ele>
  <time>2026-09-02T22:12:17Z</time>
  <course>300.92</course>
  <speed>0.01</speed>
  <fix>3d</fix>
</trkpt>
<trkpt lat="33.8103135" lon="-118.3938685">
  <ele>-6.214</ele>
  <time>2026-09-02T22:12:17Z</time>
  <course>250.74</course>
  <speed>0.0316227766016838</speed>
  <fix>3d</fix>
</trkpt>
<trkpt lat="33.8103135" lon="-118.3938685">
  <ele>-6.205</ele>
  <time>2026-09-02T22:12:17Z</time>
  <course>251.18</course>
  <speed>0.0316227766016838</speed>
  <fix>3d</fix>
</trkpt>
<trkpt lat="33.8103134" lon="-118.3938685">
  <ele>-5.97</ele>
  <time>2026-09-02T22:12:17Z</time>
  <course>301.46</course>
  <speed>0.01</speed>
  <fix>3d</fix>
</trkpt>
<trkpt lat="33.8103135" lon="-118.3938685">
  <ele>-6.202</ele>
  <time>2026-09-02T22:12:17Z</time>
  <course>251.29</course>
  <speed>0.0316227766016838</speed>
  <fix>3d</fix>
</trkpt>
<trkpt lat="33.8103135" lon="-118.3938685">
  <ele>-6.202</ele>
  <time>2026-09-02T22:12:17Z</time>
  <course>251.73</course>
  <speed>0.0316227766016838</speed>
  <fix>3d</fix>
</trkpt>
<trkpt lat="33.8103134" lon="-118.3938685">
  <ele>-5.97</ele>
  <time>2026-09-02T22:12:17Z</time>
  <course>301.46</course>
  <speed>0.01</speed>
  <fix>3d</fix>
</trkpt>
<trkpt lat="33.8103135" lon="-118.3938685">
  <ele>-6.202</ele>
  <time>2026-09-02T22:12:17Z</time>
  <course>251.81</course>
  <speed>0.0316227766016838</speed>
  <fix>3d</fix>
</trkpt>
<trkpt lat="33.8103135" lon="-118.3938685">
  <ele>-6.197</ele>
  <time>2026-09-02T22:12:17Z</time>
  <course>252.28</course>
  <speed>0.0316227766016838</speed>
  <fix>3d</fix>
</trkpt>
<trkpt lat="33.8103134" lon="-118.3938685">
  <ele>-5.94</ele>
  <time>2026-09-02T22:12:17Z</time>
  <course>302.01</course>
  <speed>0.01</speed>
  <fix>3d</fix>
</trkpt>
<trkpt lat="33.8103135" lon="-118.3938685">
  <ele>-6.196</ele>
  <time>2026-09-02T22:12:17Z</time>
  <course>252.34</course>
  <speed>0.0316227766016838</speed>
  <fix>3d</fix>
</trkpt>
<trkpt lat="33.8103136" lon="-118.3938685">
  <ele>-6.186</ele>
  <time>2026-09-02T22:12:17Z</time>
  <course>252.83</course>
  <speed>0.0316227766016838</speed>
  <fix>3d</fix>
</trkpt>
<trkpt lat="33.8103134" lon="-118.3938685">
  <ele>-5.94</ele>
  <time>2026-09-02T22:12:17Z</time>
  <course>302.01</course>
  <speed>0.01</speed>
  <fix>3d</fix>
</trkpt>
<trkpt lat="33.8103136" lon="-118.3938685">
  <ele>-6.184</ele>
  <time>2026-09-02T22:12:17Z</time>
  <course>252.88</course>
  <speed>0.0316227766016838</speed>
  <fix>3d</fix>
</trkpt>
<trkpt lat="33.8103136" lon="-118.3938685">
  <ele>-6.174</ele>
  <time>2026-09-02T22:12:17Z</time>
  <course>253.38</course>
  <speed>0.0316227766016838</speed>
  <fix>3d</fix>
</trkpt>
<trkpt lat="33.8103134" lon="-118.3938686">
  <ele>-5.9</ele>
  <time>2026-09-02T22:12:17Z</time>
  <course>302.59</course>
  <speed>0.01</speed>
  <fix>3d</fix>
</trkpt>
<trkpt lat="33.8103136" lon="-118.3938685">
  <ele>-6.173</ele>
  <time>2026-09-02T22:12:17Z</time>
  <course>253.42</course>
  <speed>0.0316227766016838</speed>
  <fix>3d</fix>
</trkpt>
<trkpt lat="33.8103136" lon="-118.3938686">
  <ele>-6.159</ele>
  <time>2026-09-02T22:12:18Z</time>
  <course>253.93</course>
  <speed>0.0316227766016838</speed>
  <fix>3d</fix>
</trkpt>
<trkpt lat="33.8103134" lon="-118.3938686">
  <ele>-5.9</ele>
  <time>2026-09-02T22:12:18Z</time>
  <course>302.59</course>
  <speed>0.01</speed>
  <fix>3d</fix>
</trkpt>
<trkpt lat="33.8103136" lon="-118.3938686">
  <ele>-6.159</ele>
  <time>2026-09-02T22:12:18Z</time>
  <course>253.95</course>
  <speed>0.0316227766016838</speed>
  <fix>3d</fix>
</trkpt>
<trkpt lat="33.8103136" lon="-118.3938686">
  <ele>-6.141</ele>
  <time>2026-09-02T22:12:18Z</time>
  <course>254.49</course>
  <speed>0.0316227766016838</speed>
  <fix>3d</fix>
</trkpt>
<trkpt lat="33.8103134" lon="-118.3938686">
  <ele>-5.87</ele>
  <time>2026-09-02T22:12:18Z</time>
  <course>303.21</course>
  <speed>0.01</speed>
  <fix>3d</fix>
</trkpt>
<trkpt lat="33.8103136" lon="-118.3938686">
  <ele>-6.141</ele>
  <time>2026-09-02T22:12:18Z</time>
  <course>254.5</course>
  <speed>0.0316227766016838</speed>
  <fix>3d</fix>
</trkpt>
<trkpt lat="33.8103136" lon="-118.3938686">
  <ele>-6.122</ele>
  <time>2026-09-02T22:12:18Z</time>
  <course>255.04</course>
  <speed>0.0316227766016838</speed>
  <fix>3d</fix>
</trkpt>
<trkpt lat="33.8103134" lon="-118.3938686">
  <ele>-5.87</ele>
  <time>2026-09-02T22:12:18Z</time>
  <course>303.21</course>
  <speed>0.01</speed>
  <fix>3d</fix>
</trkpt>
<trkpt lat="33.8103136" lon="-118.3938686">
  <ele>-6.119</ele>
  <time>2026-09-02T22:12:18Z</time>
  <course>255.14</course>
  <speed>0.0316227766016838</speed>
  <fix>3d</fix>
</trkpt>
<trkpt lat="33.8103136" lon="-118.3938686">
  <ele>-6.103</ele>
  <time>2026-09-02T22:12:18Z</time>
  <course>255.59</course>
  <speed>0.0316227766016838</speed>
  <fix>3d</fix>
</trkpt>
<trkpt lat="33.8103134" lon="-118.3938686">
  <ele>-5.84</ele>
  <time>2026-09-02T22:12:18Z</time>
  <course>303.82</course>
  <speed>0.01</speed>
  <fix>3d</fix>
</trkpt>
<trkpt lat="33.8103136" lon="-118.3938686">
  <ele>-6.102</ele>
  <time>2026-09-02T22:12:18Z</time>
  <course>255.61</course>
  <speed>0.0316227766016838</speed>
  <fix>3d</fix>
</trkpt>
<trkpt lat="33.8103136" lon="-118.3938686">
  <ele>-6.089</ele>
  <time>2026-09-02T22:12:18Z</time>
  <course>256.15</course>
  <speed>0.0316227766016838</speed>
  <fix>3d</fix>
</trkpt>
<trkpt lat="33.8103134" lon="-118.3938686">
  <ele>-5.84</ele>
  <time>2026-09-02T22:12:18Z</time>
  <course>303.82</course>
  <speed>0.01</speed>
  <fix>3d</fix>
</trkpt>
<trkpt lat="33.8103136" lon="-118.3938686">
  <ele>-6.089</ele>
  <time>2026-09-02T22:12:18Z</time>
  <course>256.17</course>
  <speed>0.0316227766016838</speed>
  <fix>3d</fix>
</trkpt>
<trkpt lat="33.8103136" lon="-118.3938686">
  <ele>-6.084</ele>
  <time>2026-09-02T22:12:18Z</time>
  <course>256.71</course>
  <speed>0.0316227766016838</speed>
  <fix>3d</fix>
</trkpt>
<trkpt lat="33.8103134" lon="-118.3938686">
  <ele>-5.8</ele>
  <time>2026-09-02T22:12:18Z</time>
  <course>304.41</course>
  <speed>0.01</speed>
  <fix>3d</fix>
</trkpt>
<trkpt lat="33.8103136" lon="-118.3938686">
  <ele>-6.082</ele>
  <time>2026-09-02T22:12:18Z</time>
  <course>256.82</course>
  <speed>0.0316227766016838</speed>
  <fix>3d</fix>
</trkpt>
<trkpt lat="33.8103136" lon="-118.3938686">
  <ele>-6.079</ele>
  <time>2026-09-02T22:12:18Z</time>
  <course>257.27</course>
  <speed>0.0316227766016838</speed>
  <fix>3d</fix>
</trkpt>
<trkpt lat="33.8103134" lon="-118.3938686">
  <ele>-5.8</ele>
  <time>2026-09-02T22:12:18Z</time>
  <course>304.41</course>
  <speed>0.01</speed>
  <fix>3d</fix>
</trkpt>
<trkpt lat="33.8103136" lon="-118.3938686">
  <ele>-6.078</ele>
  <time>2026-09-02T22:12:18Z</time>
  <course>257.37</course>
  <speed>0.0316227766016838</speed>
  <fix>3d</fix>
</trkpt>
<trkpt lat="33.8103136" lon="-118.3938686">
  <ele>-6.07</ele>
  <time>2026-09-02T22:12:18Z</time>
  <course>257.83</course>
  <speed>0.0316227766016838</speed>
  <fix>3d</fix>
</trkpt>
<trkpt lat="33.8103134" lon="-118.3938687">
  <ele>-5.77</ele>
  <time>2026-09-02T22:12:18Z</time>
  <course>305.02</course>
  <speed>0.01</speed>
  <fix>3d</fix>
</trkpt>
<trkpt lat="33.8103136" lon="-118.3938686">
  <ele>-6.069</ele>
  <time>2026-09-02T22:12:18Z</time>
  <course>257.9</course>
  <speed>0.0316227766016838</speed>
  <fix>3d</fix>
</trkpt>
<trkpt lat="33.8103136" lon="-118.3938687">
  <ele>-6.063</ele>
  <time>2026-09-02T22:12:18Z</time>
  <course>258.39</course>
  <speed>0.0316227766016838</speed>
  <fix>3d</fix>
</trkpt>
<trkpt lat="33.8103134" lon="-118.3938687">
  <ele>-5.77</ele>
  <time>2026-09-02T22:12:18Z</time>
  <course>305.02</course>
  <speed>0.01</speed>
  <fix>3d</fix>
</trkpt>
<trkpt lat="33.8103136" lon="-118.3938687">
  <ele>-6.062</ele>
  <time>2026-09-02T22:12:18Z</time>
  <course>258.45</course>
  <speed>0.0316227766016838</speed>
  <fix>3d</fix>
</trkpt>
<trkpt lat="33.8103136" lon="-118.3938687">
  <ele>-6.059</ele>
  <time>2026-09-02T22:12:18Z</time>
  <course>258.95</course>
  <speed>0.0316227766016838</speed>
  <fix>3d</fix>
</trkpt>
<trkpt lat="33.8103135" lon="-118.3938687">
  <ele>-5.73</ele>
  <time>2026-09-02T22:12:18Z</time>
  <course>305.65</course>
  <speed>0.01</speed>
  <fix>3d</fix>
</trkpt>
<trkpt lat="33.8103136" lon="-118.3938687">
  <ele>-6.058</ele>
  <time>2026-09-02T22:12:18Z</time>
  <course>258.99</course>
  <speed>0.0316227766016838</speed>
  <fix>3d</fix>
</trkpt>
<trkpt lat="33.8103136" lon="-118.3938687">
  <ele>-6.057</ele>
  <time>2026-09-02T22:12:18Z</time>
  <course>259.51</course>
  <speed>0.0316227766016838</speed>
  <fix>3d</fix>
</trkpt>
<trkpt lat="33.8103135" lon="-118.3938687">
  <ele>-5.73</ele>
  <time>2026-09-02T22:12:18Z</time>
  <course>305.65</course>
  <speed>0.01</speed>
  <fix>3d</fix>
</trkpt>
<trkpt lat="33.8103136" lon="-118.3938687">
  <ele>-6.057</ele>
  <time>2026-09-02T22:12:18Z</time>
  <course>259.53</course>
  <speed>0.0316227766016838</speed>
  <fix>3d</fix>
</trkpt>
<trkpt lat="33.8103137" lon="-118.3938687">
  <ele>-6.047</ele>
  <time>2026-09-02T22:12:18Z</time>
  <course>260.08</course>
  <speed>0.0316227766016838</speed>
  <fix>3d</fix>
</trkpt>
<trkpt lat="33.8103135" lon="-118.3938687">
  <ele>-5.7</ele>
  <time>2026-09-02T22:12:18Z</time>
  <course>306.31</course>
  <speed>0.01</speed>
  <fix>3d</fix>
</trkpt>
<trkpt lat="33.8103137" lon="-118.3938687">
  <ele>-6.046</ele>
  <time>2026-09-02T22:12:18Z</time>
  <course>260.09</course>
  <speed>0.0316227766016838</speed>
  <fix>3d</fix>
</trkpt>
<trkpt lat="33.8103137" lon="-118.3938687">
  <ele>-6.031</ele>
  <time>2026-09-02T22:12:18Z</time>
  <course>260.64</course>
  <speed>0.0316227766016838</speed>
  <fix>3d</fix>
</trkpt>
<trkpt lat="33.8103135" lon="-118.3938687">
  <ele>-5.7</ele>
  <time>2026-09-02T22:12:18Z</time>
  <course>306.31</course>
  <speed>0.01</speed>
  <fix>3d</fix>
</trkpt>
<trkpt lat="33.8103137" lon="-118.3938687">
  <ele>-6.028</ele>
  <time>2026-09-02T22:12:18Z</time>
  <course>260.75</course>
  <speed>0.0316227766016838</speed>
  <fix>3d</fix>
</trkpt>
<trkpt lat="33.8103137" lon="-118.3938687">
  <ele>-6.008</ele>
  <time>2026-09-02T22:12:18Z</time>
  <course>261.21</course>
  <speed>0.0316227766016838</speed>
  <fix>3d</fix>
</trkpt>
<trkpt lat="33.8103135" lon="-118.3938687">
  <ele>-5.67</ele>
  <time>2026-09-02T22:12:18Z</time>
  <course>306.98</course>
  <speed>0.01</speed>
  <fix>3d</fix>
</trkpt>
<trkpt lat="33.8103137" lon="-118.3938687">
  <ele>-6.005</ele>
  <time>2026-09-02T22:12:18Z</time>
  <course>261.3</course>
  <speed>0.0316227766016838</speed>
  <fix>3d</fix>
</trkpt>
<trkpt lat="33.8103137" lon="-118.3938687">
  <ele>-5.988</ele>
  <time>2026-09-02T22:12:18Z</time>
  <course>261.77</course>
  <speed>0.03</speed>
  <fix>3d</fix>
</trkpt>
<trkpt lat="33.8103135" lon="-118.3938687">
  <ele>-5.67</ele>
  <time>2026-09-02T22:12:18Z</time>
  <course>306.98</course>
  <speed>0.01</speed>
  <fix>3d</fix>
</trkpt>
<trkpt lat="33.8103137" lon="-118.3938687">
  <ele>-5.985</ele>
  <time>2026-09-02T22:12:18Z</time>
  <course>261.86</course>
  <speed>0.03</speed>
  <fix>3d</fix>
</trkpt>
<trkpt lat="33.8103137" lon="-118.3938687">
  <ele>-5.973</ele>
  <time>2026-09-02T22:12:18Z</time>
  <course>262.34</course>
  <speed>0.03</speed>
  <fix>3d</fix>
</trkpt>
<trkpt lat="33.8103135" lon="-118.3938688">
  <ele>-5.63</ele>
  <time>2026-09-02T22:12:18Z</time>
  <course>307.64</course>
  <speed>0.01</speed>
  <fix>3d</fix>
</trkpt>
<trkpt lat="33.8103137" lon="-118.3938687">
  <ele>-5.971</ele>
  <time>2026-09-02T22:12:18Z</time>
  <course>262.41</course>
  <speed>0.03</speed>
  <fix>3d</fix>
</trkpt>
<trkpt lat="33.8103137" lon="-118.3938687">
  <ele>-5.961</ele>
  <time>2026-09-02T22:12:18Z</time>
  <course>262.9</course>
  <speed>0.03</speed>
  <fix>3d</fix>
</trkpt>
<trkpt lat="33.8103135" lon="-118.3938688">
  <ele>-5.63</ele>
  <time>2026-09-02T22:12:18Z</time>
  <course>307.64</course>
  <speed>0.01</speed>
  <fix>3d</fix>
</trkpt>
<trkpt lat="33.8103137" lon="-118.3938687">
  <ele>-5.96</ele>
  <time>2026-09-02T22:12:18Z</time>
  <course>262.99</course>
  <speed>0.03</speed>
  <fix>3d</fix>
</trkpt>
<trkpt lat="33.8103137" lon="-118.3938687">
  <ele>-5.942</ele>
  <time>2026-09-02T22:12:18Z</time>
  <course>263.47</course>
  <speed>0.03</speed>
  <fix>3d</fix>
</trkpt>
<trkpt lat="33.8103135" lon="-118.3938688">
  <ele>-5.6</ele>
  <time>2026-09-02T22:12:18Z</time>
  <course>308.29</course>
  <speed>0.01</speed>
  <fix>3d</fix>
</trkpt>
<trkpt lat="33.8103137" lon="-118.3938687">
  <ele>-5.941</ele>
  <time>2026-09-02T22:12:18Z</time>
  <course>263.51</course>
  <speed>0.03</speed>
  <fix>3d</fix>
</trkpt>
<trkpt lat="33.8103137" lon="-118.3938688">
  <ele>-5.913</ele>
  <time>2026-09-02T22:12:18Z</time>
  <course>264.04</course>
  <speed>0.03</speed>
  <fix>3d</fix>
</trkpt>
<trkpt lat="33.8103135" lon="-118.3938688">
  <ele>-5.6</ele>
  <time>2026-09-02T22:12:18Z</time>
  <course>308.29</course>
  <speed>0.01</speed>
  <fix>3d</fix>
</trkpt>
<trkpt lat="33.8103137" lon="-118.3938688">
  <ele>-5.909</ele>
  <time>2026-09-02T22:12:18Z</time>
  <course>264.11</course>
  <speed>0.03</speed>
  <fix>3d</fix>
</trkpt>
<trkpt lat="33.8103137" lon="-118.3938688">
  <ele>-5.889</ele>
  <time>2026-09-02T22:12:18Z</time>
  <course>264.61</course>
  <speed>0.03</speed>
  <fix>3d</fix>
</trkpt>
<trkpt lat="33.8103135" lon="-118.3938688">
  <ele>-5.56</ele>
  <time>2026-09-02T22:12:18Z</time>
  <course>308.97</course>
  <speed>0.01</speed>
  <fix>3d</fix>
</trkpt>
<trkpt lat="33.8103137" lon="-118.3938688">
  <ele>-5.888</ele>
  <time>2026-09-02T22:12:18Z</time>
  <course>264.67</course>
  <speed>0.03</speed>
  <fix>3d</fix>
</trkpt>
<trkpt lat="33.8103137" lon="-118.3938688">
  <ele>-5.868</ele>
  <time>2026-09-02T22:12:18Z</time>
  <course>265.18</course>
  <speed>0.03</speed>
  <fix>3d</fix>
</trkpt>
<trkpt lat="33.8103135" lon="-118.3938688">
  <ele>-5.56</ele>
  <time>2026-09-02T22:12:18Z</time>
  <course>308.97</course>
  <speed>0.01</speed>
  <fix>3d</fix>
</trkpt>
<trkpt lat="33.8103137" lon="-118.3938688">
  <ele>-5.867</ele>
  <time>2026-09-02T22:12:18Z</time>
  <course>265.22</course>
  <speed>0.03</speed>
  <fix>3d</fix>
</trkpt>
<trkpt lat="33.8103137" lon="-118.3938688">
  <ele>-5.838</ele>
  <time>2026-09-02T22:12:18Z</time>
  <course>265.75</course>
  <speed>0.03</speed>
  <fix>3d</fix>
</trkpt>
<trkpt lat="33.8103136" lon="-118.3938688">
  <ele>-5.53</ele>
  <time>2026-09-02T22:12:18Z</time>
  <course>309.68</course>
  <speed>0.01</speed>
  <fix>3d</fix>
</trkpt>
<trkpt lat="33.8103137" lon="-118.3938688">
  <ele>-5.837</ele>
  <time>2026-09-02T22:12:18Z</time>
  <course>265.77</course>
  <speed>0.03</speed>
  <fix>3d</fix>
</trkpt>
<trkpt lat="33.8103137" lon="-118.3938688">
  <ele>-5.801</ele>
  <time>2026-09-02T22:12:18Z</time>
  <course>266.33</course>
  <speed>0.03</speed>
  <fix>3d</fix>
</trkpt>
<trkpt lat="33.8103136" lon="-118.3938688">
  <ele>-5.53</ele>
  <time>2026-09-02T22:12:18Z</time>
  <course>309.68</course>
  <speed>0.01</speed>
  <fix>3d</fix>
</trkpt>
<trkpt lat="33.8103137" lon="-118.3938688">
  <ele>-5.796</ele>
  <time>2026-09-02T22:12:18Z</time>
  <course>266.4</course>
  <speed>0.03</speed>
  <fix>3d</fix>
</trkpt>
<trkpt lat="33.8103138" lon="-118.3938688">
  <ele>-5.761</ele>
  <time>2026-09-02T22:12:18Z</time>
  <course>266.9</course>
  <speed>0.03</speed>
  <fix>3d</fix>
</trkpt>
<trkpt lat="33.8103136" lon="-118.3938689">
  <ele>-5.49</ele>
  <time>2026-09-02T22:12:18Z</time>
  <course>310.42</course>
  <speed>0.01</speed>
  <fix>3d</fix>
</trkpt>
<trkpt lat="33.8103138" lon="-118.3938688">
  <ele>-5.759</ele>
  <time>2026-09-02T22:12:18Z</time>
  <course>266.96</course>
  <speed>0.03</speed>
  <fix>3d</fix>
</trkpt>
<trkpt lat="33.8103138" lon="-118.3938688">
  <ele>-5.722</ele>
  <time>2026-09-02T22:12:18Z</time>
  <course>267.47</course>
  <speed>0.03</speed>
  <fix>3d</fix>
</trkpt>
<trkpt lat="33.8103136" lon="-118.3938689">
  <ele>-5.49</ele>
  <time>2026-09-02T22:12:18Z</time>
  <course>310.42</course>
  <speed>0.01</speed>
  <fix>3d</fix>
</trkpt>
<trkpt lat="33.8103138" lon="-118.3938688">
  <ele>-5.721</ele>
  <time>2026-09-02T22:12:18Z</time>
  <course>267.52</course>
  <speed>0.03</speed>
  <fix>3d</fix>
</trkpt>
<trkpt lat="33.8103138" lon="-118.3938688">
  <ele>-5.682</ele>
  <time>2026-09-02T22:12:18Z</time>
  <course>268.05</course>
  <speed>0.03</speed>
  <fix>3d</fix>
</trkpt>
<trkpt lat="33.8103136" lon="-118.3938689">
  <ele>-5.46</ele>
  <time>2026-09-02T22:12:18Z</time>
  <course>311.13</course>
  <speed>0.01</speed>
  <fix>3d</fix>
</trkpt>
<trkpt lat="33.8103138" lon="-118.3938688">
  <ele>-5.681</ele>
  <time>2026-09-02T22:12:18Z</time>
  <course>268.06</course>
  <speed>0.03</speed>
  <fix>3d</fix>
</trkpt>
<trkpt lat="33.8103138" lon="-118.3938688">
  <ele>-5.647</ele>
  <time>2026-09-02T22:12:18Z</time>
  <course>268.62</course>
  <speed>0.03</speed>
  <fix>3d</fix>
</trkpt>
<trkpt lat="33.8103136" lon="-118.3938689">
  <ele>-5.46</ele>
  <time>2026-09-02T22:12:18Z</time>
  <course>311.13</course>
  <speed>0.01</speed>
  <fix>3d</fix>
</trkpt>
<trkpt lat="33.8103138" lon="-118.3938688">
  <ele>-5.639</ele>
  <time>2026-09-02T22:12:18Z</time>
  <course>268.77</course>
  <speed>0.03</speed>
  <fix>3d</fix>
</trkpt>
<trkpt lat="33.8103138" lon="-118.3938688">
  <ele>-5.619</ele>
  <time>2026-09-02T22:12:18Z</time>
  <course>269.2</course>
  <speed>0.03</speed>
  <fix>3d</fix>
</trkpt>
<trkpt lat="33.8103136" lon="-118.3938689">
  <ele>-5.43</ele>
  <time>2026-09-02T22:12:18Z</time>
  <course>311.84</course>
  <speed>0.01</speed>
  <fix>3d</fix>
</trkpt>
<trkpt lat="33.8103138" lon="-118.3938688">
  <ele>-5.613</ele>
  <time>2026-09-02T22:12:18Z</time>
  <course>269.33</course>
  <speed>0.03</speed>
  <fix>3d</fix>
</trkpt>
<trkpt lat="33.8103138" lon="-118.3938688">
  <ele>-5.599</ele>
  <time>2026-09-02T22:12:18Z</time>
  <course>269.78</course>
  <speed>0.03</speed>
  <fix>3d</fix>
</trkpt>
<trkpt lat="33.8103136" lon="-118.3938689">
  <ele>-5.43</ele>
  <time>2026-09-02T22:12:18Z</time>
  <course>311.84</course>
  <speed>0.01</speed>
  <fix>3d</fix>
</trkpt>
<trkpt lat="33.8103138" lon="-118.3938688">
  <ele>-5.598</ele>
  <time>2026-09-02T22:12:18Z</time>
  <course>269.8</course>
  <speed>0.03</speed>
  <fix>3d</fix>
</trkpt>
<trkpt lat="33.8103138" lon="-118.3938689">
  <ele>-5.579</ele>
  <time>2026-09-02T22:12:18Z</time>
  <course>270.36</course>
  <speed>0.03</speed>
  <fix>3d</fix>
</trkpt>
<trkpt lat="33.8103136" lon="-118.3938689">
  <ele>-5.39</ele>
  <time>2026-09-02T22:12:18Z</time>
  <course>312.57</course>
  <speed>0.01</speed>
  <fix>3d</fix>
</trkpt>
<trkpt lat="33.8103138" lon="-118.3938689">
  <ele>-5.578</ele>
  <time>2026-09-02T22:12:18Z</time>
  <course>270.38</course>
  <speed>0.03</speed>
  <fix>3d</fix>
</trkpt>
<trkpt lat="33.8103138" lon="-118.3938689">
  <ele>-5.553</ele>
  <time>2026-09-02T22:12:18Z</time>
  <course>270.94</course>
  <speed>0.03</speed>
  <fix>3d</fix>
</trkpt>
<trkpt lat="33.8103136" lon="-118.3938689">
  <ele>-5.39</ele>
  <time>2026-09-02T22:12:18Z</time>
  <course>312.57</course>
  <speed>0.01</speed>
  <fix>3d</fix>
</trkpt>
<trkpt lat="33.8103138" lon="-118.3938689">
  <ele>-5.552</ele>
  <time>2026-09-02T22:12:18Z</time>
  <course>270.97</course>
  <speed>0.03</speed>
  <fix>3d</fix>
</trkpt>
<trkpt lat="33.8103138" lon="-118.3938689">
  <ele>-5.529</ele>
  <time>2026-09-02T22:12:18Z</time>
  <course>271.52</course>
  <speed>0.03</speed>
  <fix>3d</fix>
</trkpt>
<trkpt lat="33.8103136" lon="-118.393869">
  <ele>-5.36</ele>
  <time>2026-09-02T22:12:18Z</time>
  <course>313.32</course>
  <speed>0.01</speed>
  <fix>3d</fix>
</trkpt>
<trkpt lat="33.8103138" lon="-118.3938689">
  <ele>-5.528</ele>
  <time>2026-09-02T22:12:18Z</time>
  <course>271.53</course>
  <speed>0.03</speed>
  <fix>3d</fix>
</trkpt>
<trkpt lat="33.8103138" lon="-118.3938689">
  <ele>-5.515</ele>
  <time>2026-09-02T22:12:18Z</time>
  <course>272.1</course>
  <speed>0.03</speed>
  <fix>3d</fix>
</trkpt>
<trkpt lat="33.8103136" lon="-118.393869">
  <ele>-5.36</ele>
  <time>2026-09-02T22:12:18Z</time>
  <course>313.32</course>
  <speed>0.01</speed>
  <fix>3d</fix>
</trkpt>
<trkpt lat="33.8103138" lon="-118.3938689">
  <ele>-5.515</ele>
  <time>2026-09-02T22:12:18Z</time>
  <course>272.15</course>
  <speed>0.03</speed>
  <fix>3d</fix>
</trkpt>
<trkpt lat="33.8103138" lon="-118.3938689">
  <ele>-5.511</ele>
  <time>2026-09-02T22:12:18Z</time>
  <course>272.68</course>
  <speed>0.03</speed>
  <fix>3d</fix>
</trkpt>
<trkpt lat="33.8103137" lon="-118.393869">
  <ele>-5.32</ele>
  <time>2026-09-02T22:12:18Z</time>
  <course>314.12</course>
  <speed>0.01</speed>
  <fix>3d</fix>
</trkpt>
<trkpt lat="33.8103138" lon="-118.3938689">
  <ele>-5.509</ele>
  <time>2026-09-02T22:12:18Z</time>
  <course>272.72</course>
  <speed>0.03</speed>
  <fix>3d</fix>
</trkpt>
<trkpt lat="33.8103138" lon="-118.3938689">
  <ele>-5.502</ele>
  <time>2026-09-02T22:12:18Z</time>
  <course>273.26</course>
  <speed>0.03</speed>
  <fix>3d</fix>
</trkpt>
<trkpt lat="33.8103137" lon="-118.393869">
  <ele>-5.32</ele>
  <time>2026-09-02T22:12:18Z</time>
  <course>314.12</course>
  <speed>0.01</speed>
  <fix>3d</fix>
</trkpt>
<trkpt lat="33.8103139" lon="-118.3938689">
  <ele>-5.501</ele>
  <time>2026-09-02T22:12:18Z</time>
  <course>273.3</course>
  <speed>0.03</speed>
  <fix>3d</fix>
</trkpt>
<trkpt lat="33.8103139" lon="-118.3938689">
  <ele>-5.496</ele>
  <time>2026-09-02T22:12:18Z</time>
  <course>273.84</course>
  <speed>0.03</speed>
  <fix>3d</fix>
</trkpt>
<trkpt lat="33.8103137" lon="-118.393869">
  <ele>-5.29</ele>
  <time>2026-09-02T22:12:18Z</time>
  <course>314.89</course>
  <speed>0.01</speed>
  <fix>3d</fix>
</trkpt>
<trkpt lat="33.8103139" lon="-118.3938689">
  <ele>-5.495</ele>
  <time>2026-09-02T22:12:18Z</time>
  <course>273.87</course>
  <speed>0.03</speed>
  <fix>3d</fix>
</trkpt>
<trkpt lat="33.8103139" lon="-118.3938689">
  <ele>-5.493</ele>
  <time>2026-09-02T22:12:18Z</time>
  <course>274.43</course>
  <speed>0.03</speed>
  <fix>3d</fix>
</trkpt>
<trkpt lat="33.8103137" lon="-118.393869">
  <ele>-5.29</ele>
  <time>2026-09-02T22:12:18Z</time>
  <course>314.89</course>
  <speed>0.01</speed>
  <fix>3d</fix>
</trkpt>
<trkpt lat="33.8103139" lon="-118.3938689">
  <ele>-5.492</ele>
  <time>2026-09-02T22:12:18Z</time>
  <course>274.57</course>
  <speed>0.03</speed>
  <fix>3d</fix>
</trkpt>
<trkpt lat="33.8103139" lon="-118.3938689">
  <ele>-5.482</ele>
  <time>2026-09-02T22:12:18Z</time>
  <course>275.01</course>
  <speed>0.03</speed>
  <fix>3d</fix>
</trkpt>
<trkpt lat="33.8103137" lon="-118.393869">
  <ele>-5.25</ele>
  <time>2026-09-02T22:12:18Z</time>
  <course>315.65</course>
  <speed>0.01</speed>
  <fix>3d</fix>
</trkpt>
<trkpt lat="33.8103139" lon="-118.3938689">
  <ele>-5.479</ele>
  <time>2026-09-02T22:12:18Z</time>
  <course>275.14</course>
  <speed>0.03</speed>
  <fix>3d</fix>
</trkpt>
<trkpt lat="33.8103139" lon="-118.3938689">
  <ele>-5.468</ele>
  <time>2026-09-02T22:12:18Z</time>
  <course>275.59</course>
  <speed>0.03</speed>
  <fix>3d</fix>
</trkpt>
<trkpt lat="33.8103137" lon="-118.393869">
  <ele>-5.25</ele>
  <time>2026-09-02T22:12:18Z</time>
  <course>315.65</course>
  <speed>0.01</speed>
  <fix>3d</fix>
</trkpt>
<trkpt lat="33.8103139" lon="-118.3938689">
  <ele>-5.465</ele>
  <time>2026-09-02T22:12:18Z</time>
  <course>275.71</course>
  <speed>0.03</speed>
  <fix>3d</fix>
</trkpt>
<trkpt lat="33.8103139" lon="-118.393869">
  <ele>-5.46</ele>
  <time>2026-09-02T22:12:18Z</time>
  <course>276.18</course>
  <speed>0.03</speed>
  <fix>3d</fix>
</trkpt>
<trkpt lat="33.8103137" lon="-118.393869">
  <ele>-5.22</ele>
  <time>2026-09-02T22:12:18Z</time>
  <course>316.42</course>
  <speed>0.01</speed>
  <fix>3d</fix>
</trkpt>
<trkpt lat="33.8103139" lon="-118.393869">
  <ele>-5.458</ele>
  <time>2026-09-02T22:12:18Z</time>
  <course>276.28</course>
  <speed>0.03</speed>
  <fix>3d</fix>
</trkpt>
<trkpt lat="33.8103139" lon="-118.393869">
  <ele>-5.452</ele>
  <time>2026-09-02T22:12:19Z</time>
  <course>276.76</course>
  <speed>0.03</speed>
  <fix>3d</fix>
</trkpt>
<trkpt lat="33.8103137" lon="-118.393869">
  <ele>-5.22</ele>
  <time>2026-09-02T22:12:19Z</time>
  <course>316.42</course>
  <speed>0.01</speed>
  <fix>3d</fix>
</trkpt>
<trkpt lat="33.8103139" lon="-118.393869">
  <ele>-5.452</ele>
  <time>2026-09-02T22:12:19Z</time>
  <course>276.77</course>
  <speed>0.03</speed>
  <fix>3d</fix>
</trkpt>
<trkpt lat="33.8103139" lon="-118.393869">
  <ele>-5.449</ele>
  <time>2026-09-02T22:12:19Z</time>
  <course>277.35</course>
  <speed>0.03</speed>
  <fix>3d</fix>
</trkpt>
<trkpt lat="33.8103137" lon="-118.3938691">
  <ele>-5.18</ele>
  <time>2026-09-02T22:12:19Z</time>
  <course>317.22</course>
  <speed>0.01</speed>
  <fix>3d</fix>
</trkpt>
<trkpt lat="33.8103139" lon="-118.393869">
  <ele>-5.448</ele>
  <time>2026-09-02T22:12:19Z</time>
  <course>277.38</course>
  <speed>0.03</speed>
  <fix>3d</fix>
</trkpt>
<trkpt lat="33.8103139" lon="-118.393869">
  <ele>-5.443</ele>
  <time>2026-09-02T22:12:19Z</time>
  <course>277.94</course>
  <speed>0.03</speed>
  <fix>3d</fix>
</trkpt>
<trkpt lat="33.8103137" lon="-118.3938691">
  <ele>-5.18</ele>
  <time>2026-09-02T22:12:19Z</time>
  <course>317.22</course>
  <speed>0.01</speed>
  <fix>3d</fix>
</trkpt>
<trkpt lat="33.8103139" lon="-118.393869">
  <ele>-5.443</ele>
  <time>2026-09-02T22:12:19Z</time>
  <course>277.95</course>
  <speed>0.03</speed>
  <fix>3d</fix>
</trkpt>
<trkpt lat="33.8103139" lon="-118.393869">
  <ele>-5.438</ele>
  <time>2026-09-02T22:12:19Z</time>
  <course>278.53</course>
  <speed>0.03</speed>
  <fix>3d</fix>
</trkpt>
<trkpt lat="33.8103137" lon="-118.3938691">
  <ele>-5.15</ele>
  <time>2026-09-02T22:12:19Z</time>
  <course>318.07</course>
  <speed>0.01</speed>
  <fix>3d</fix>
</trkpt>
<trkpt lat="33.8103139" lon="-118.393869">
  <ele>-5.436</ele>
  <time>2026-09-02T22:12:19Z</time>
  <course>278.67</course>
  <speed>0.03</speed>
  <fix>3d</fix>
</trkpt>
<trkpt lat="33.8103139" lon="-118.393869">
  <ele>-5.433</ele>
  <time>2026-09-02T22:12:19Z</time>
  <course>279.11</course>
  <speed>0.03</speed>
  <fix>3d</fix>
</trkpt>
<trkpt lat="33.8103137" lon="-118.3938691">
  <ele>-5.15</ele>
  <time>2026-09-02T22:12:19Z</time>
  <course>318.07</course>
  <speed>0.01</speed>
  <fix>3d</fix>
</trkpt>
<trkpt lat="33.8103139" lon="-118.393869">
  <ele>-5.432</ele>
  <time>2026-09-02T22:12:19Z</time>
  <course>279.25</course>
  <speed>0.03</speed>
  <fix>3d</fix>
</trkpt>
<trkpt lat="33.8103139" lon="-118.393869">
  <ele>-5.426</ele>
  <time>2026-09-02T22:12:19Z</time>
  <course>279.7</course>
  <speed>0.03</speed>
  <fix>3d</fix>
</trkpt>
<trkpt lat="33.8103137" lon="-118.3938691">
  <ele>-5.11</ele>
  <time>2026-09-02T22:12:19Z</time>
  <course>318.9</course>
  <speed>0.01</speed>
  <fix>3d</fix>
</trkpt>
<trkpt lat="33.8103139" lon="-118.393869">
  <ele>-5.424</ele>
  <time>2026-09-02T22:12:19Z</time>
  <course>279.81</course>
  <speed>0.03</speed>
  <fix>3d</fix>
</trkpt>
<trkpt lat="33.8103139" lon="-118.393869">
  <ele>-5.408</ele>
  <time>2026-09-02T22:12:19Z</time>
  <course>280.29</course>
  <speed>0.03</speed>
  <fix>3d</fix>
</trkpt>
<trkpt lat="33.8103137" lon="-118.3938691">
  <ele>-5.11</ele>
  <time>2026-09-02T22:12:19Z</time>
  <course>318.9</course>
  <speed>0.01</speed>
  <fix>3d</fix>
</trkpt>
<trkpt lat="33.8103139" lon="-118.393869">
  <ele>-5.404</ele>
  <time>2026-09-02T22:12:19Z</time>
  <course>280.38</course>
  <speed>0.03</speed>
  <fix>3d</fix>
</trkpt>
<trkpt lat="33.8103139" lon="-118.393869">
  <ele>-5.391</ele>
  <time>2026-09-02T22:12:19Z</time>
  <course>280.88</course>
  <speed>0.03</speed>
  <fix>3d</fix>
</trkpt>
<trkpt lat="33.8103137" lon="-118.3938691">
  <ele>-5.08</ele>
  <time>2026-09-02T22:12:19Z</time>
  <course>319.71</course>
  <speed>0.01</speed>
  <fix>3d</fix>
</trkpt>
<trkpt lat="33.8103139" lon="-118.393869">
  <ele>-5.389</ele>
  <time>2026-09-02T22:12:19Z</time>
  <course>280.94</course>
  <speed>0.03</speed>
  <fix>3d</fix>
</trkpt>
<trkpt lat="33.8103139" lon="-118.393869">
  <ele>-5.378</ele>
  <time>2026-09-02T22:12:19Z</time>
  <course>281.48</course>
  <speed>0.03</speed>
  <fix>3d</fix>
</trkpt>
<trkpt lat="33.8103137" lon="-118.3938691">
  <ele>-5.08</ele>
  <time>2026-09-02T22:12:19Z</time>
  <course>319.71</course>
  <speed>0.01</speed>
  <fix>3d</fix>
</trkpt>
<trkpt lat="33.8103139" lon="-118.393869">
  <ele>-5.377</ele>
  <time>2026-09-02T22:12:19Z</time>
  <course>281.52</course>
  <speed>0.03</speed>
  <fix>3d</fix>
</trkpt>
<trkpt lat="33.8103139" lon="-118.393869">
  <ele>-5.366</ele>
  <time>2026-09-02T22:12:19Z</time>
  <course>282.07</course>
  <speed>0.03</speed>
  <fix>3d</fix>
</trkpt>
<trkpt lat="33.8103137" lon="-118.3938692">
  <ele>-5.04</ele>
  <time>2026-09-02T22:12:19Z</time>
  <course>320.53</course>
  <speed>0.01</speed>
  <fix>3d</fix>
</trkpt>
<trkpt lat="33.8103139" lon="-118.393869">
  <ele>-5.364</ele>
  <time>2026-09-02T22:12:19Z</time>
  <course>282.22</course>
  <speed>0.03</speed>
  <fix>3d</fix>
</trkpt>
<trkpt lat="33.8103139" lon="-118.393869">
  <ele>-5.346</ele>
  <time>2026-09-02T22:12:19Z</time>
  <course>282.67</course>
  <speed>0.03</speed>
  <fix>3d</fix>
</trkpt>
<trkpt lat="33.8103137" lon="-118.3938692">
  <ele>-5.04</ele>
  <time>2026-09-02T22:12:19Z</time>
  <course>320.53</course>
  <speed>0.01</speed>
  <fix>3d</fix>
</trkpt>
<trkpt lat="33.810314" lon="-118.393869">
  <ele>-5.34</ele>
  <time>2026-09-02T22:12:19Z</time>
  <course>282.8</course>
  <speed>0.03</speed>
  <fix>3d</fix>
</trkpt>
<trkpt lat="33.810314" lon="-118.3938691">
  <ele>-5.321</ele>
  <time>2026-09-02T22:12:19Z</time>
  <course>283.26</course>
  <speed>0.03</speed>
  <fix>3d</fix>
</trkpt>
<trkpt lat="33.8103138" lon="-118.3938692">
  <ele>-5.01</ele>
  <time>2026-09-02T22:12:19Z</time>
  <course>321.37</course>
  <speed>0.01</speed>
  <fix>3d</fix>
</trkpt>
<trkpt lat="33.810314" lon="-118.3938691">
  <ele>-5.317</ele>
  <time>2026-09-02T22:12:19Z</time>
  <course>283.38</course>
  <speed>0.03</speed>
  <fix>3d</fix>
</trkpt>
<trkpt lat="33.810314" lon="-118.3938691">
  <ele>-5.295</ele>
  <time>2026-09-02T22:12:19Z</time>
  <course>283.85</course>
  <speed>0.03</speed>
  <fix>3d</fix>
</trkpt>
<trkpt lat="33.8103138" lon="-118.3938692">
  <ele>-5.01</ele>
  <time>2026-09-02T22:12:19Z</time>
  <course>321.37</course>
  <speed>0.01</speed>
  <fix>3d</fix>
</trkpt>
<trkpt lat="33.810314" lon="-118.3938691">
  <ele>-5.294</ele>
  <time>2026-09-02T22:12:19Z</time>
  <course>283.87</course>
  <speed>0.03</speed>
  <fix>3d</fix>
</trkpt>
<trkpt lat="33.810314" lon="-118.3938691">
  <ele>-5.261</ele>
  <time>2026-09-02T22:12:19Z</time>
  <course>284.45</course>
  <speed>0.03</speed>
  <fix>3d</fix>
</trkpt>
<trkpt lat="33.8103139" lon="-118.3938692">
  <ele>-4.97</ele>
  <time>2026-09-02T22:12:19Z</time>
  <course>322.26</course>
  <speed>0.01</speed>
  <fix>3d</fix>
</trkpt>
<trkpt lat="33.810314" lon="-118.3938691">
  <ele>-5.256</ele>
  <time>2026-09-02T22:12:19Z</time>
  <course>284.54</course>
  <speed>0.03</speed>
  <fix>3d</fix>
</trkpt>
<trkpt lat="33.810314" lon="-118.3938691">
  <ele>-5.224</ele>
  <time>2026-09-02T22:12:19Z</time>
  <course>285.04</course>
  <speed>0.03</speed>
  <fix>3d</fix>
</trkpt>
<trkpt lat="33.8103139" lon="-118.3938692">
  <ele>-4.97</ele>
  <time>2026-09-02T22:12:19Z</time>
  <course>322.26</course>
  <speed>0.01</speed>
  <fix>3d</fix>
</trkpt>
<trkpt lat="33.810314" lon="-118.3938691">
  <ele>-5.224</ele>
  <time>2026-09-02T22:12:19Z</time>
  <course>285.06</course>
  <speed>0.03</speed>
  <fix>3d</fix>
</trkpt>
<trkpt lat="33.810314" lon="-118.3938691">
  <ele>-5.187</ele>
  <time>2026-09-02T22:12:19Z</time>
  <course>285.64</course>
  <speed>0.03</speed>
  <fix>3d</fix>
</trkpt>
<trkpt lat="33.8103139" lon="-118.3938692">
  <ele>-4.93</ele>
  <time>2026-09-02T22:12:19Z</time>
  <course>323.14</course>
  <speed>0.01</speed>
  <fix>3d</fix>
</trkpt>
<trkpt lat="33.810314" lon="-118.3938691">
  <ele>-5.182</ele>
  <time>2026-09-02T22:12:19Z</time>
  <course>285.74</course>
  <speed>0.03</speed>
  <fix>3d</fix>
</trkpt>
<trkpt lat="33.810314" lon="-118.3938691">
  <ele>-5.156</ele>
  <time>2026-09-02T22:12:19Z</time>
  <course>286.24</course>
  <speed>0.03</speed>
  <fix>3d</fix>
</trkpt>
<trkpt lat="33.8103139" lon="-118.3938692">
  <ele>-4.93</ele>
  <time>2026-09-02T22:12:19Z</time>
  <course>323.14</course>
  <speed>0.01</speed>
  <fix>3d</fix>
</trkpt>
<trkpt lat="33.810314" lon="-118.3938691">
  <ele>-5.152</ele>
  <time>2026-09-02T22:12:19Z</time>
  <course>286.33</course>
  <speed>0.03</speed>
  <fix>3d</fix>
</trkpt>
<trkpt lat="33.810314" lon="-118.3938691">
  <ele>-5.13</ele>
  <time>2026-09-02T22:12:19Z</time>
  <course>286.83</course>
  <speed>0.03</speed>
  <fix>3d</fix>
</trkpt>
<trkpt lat="33.8103139" lon="-118.3938692">
  <ele>-4.9</ele>
  <time>2026-09-02T22:12:19Z</time>
  <course>324.01</course>
  <speed>0.01</speed>
  <fix>3d</fix>
</trkpt>
<trkpt lat="33.810314" lon="-118.3938691">
  <ele>-5.128</ele>
  <time>2026-09-02T22:12:19Z</time>
  <course>286.89</course>
  <speed>0.03</speed>
  <fix>3d</fix>
</trkpt>
<trkpt lat="33.810314" lon="-118.3938691">
  <ele>-5.109</ele>
  <time>2026-09-02T22:12:19Z</time>
  <course>287.43</course>
  <speed>0.03</speed>
  <fix>3d</fix>
</trkpt>
<trkpt lat="33.8103139" lon="-118.3938692">
  <ele>-4.9</ele>
  <time>2026-09-02T22:12:19Z</time>
  <course>324.01</course>
  <speed>0.01</speed>
  <fix>3d</fix>
</trkpt>
<trkpt lat="33.810314" lon="-118.3938691">
  <ele>-5.108</ele>
  <time>2026-09-02T22:12:19Z</time>
  <course>287.47</course>
  <speed>0.03</speed>
  <fix>3d</fix>
</trkpt>
<trkpt lat="33.810314" lon="-118.3938691">
  <ele>-5.09</ele>
  <time>2026-09-02T22:12:19Z</time>
  <course>288.03</course>
  <speed>0.03</speed>
  <fix>3d</fix>
</trkpt>
<trkpt lat="33.8103139" lon="-118.3938693">
  <ele>-4.86</ele>
  <time>2026-09-02T22:12:19Z</time>
  <course>324.87</course>
  <speed>0.01</speed>
  <fix>3d</fix>
</trkpt>
<trkpt lat="33.810314" lon="-118.3938691">
  <ele>-5.089</ele>
  <time>2026-09-02T22:12:19Z</time>
  <course>288.06</course>
  <speed>0.03</speed>
  <fix>3d</fix>
</trkpt>
<trkpt lat="33.8103141" lon="-118.3938691">
  <ele>-5.072</ele>
  <time>2026-09-02T22:12:19Z</time>
  <course>288.62</course>
  <speed>0.03</speed>
  <fix>3d</fix>
</trkpt>
<trkpt lat="33.8103139" lon="-118.3938693">
  <ele>-4.86</ele>
  <time>2026-09-02T22:12:19Z</time>
  <course>324.87</course>
  <speed>0.01</speed>
  <fix>3d</fix>
</trkpt>
<trkpt lat="33.8103141" lon="-118.3938691">
  <ele>-5.067</ele>
  <time>2026-09-02T22:12:19Z</time>
  <course>288.78</course>
  <speed>0.03</speed>
  <fix>3d</fix>
</trkpt>
<trkpt lat="33.8103141" lon="-118.3938691">
  <ele>-5.052</ele>
  <time>2026-09-02T22:12:19Z</time>
  <course>289.23</course>
  <speed>0.03</speed>
  <fix>3d</fix>
</trkpt>
<trkpt lat="33.810314" lon="-118.3938693">
  <ele>-4.83</ele>
  <time>2026-09-02T22:12:19Z</time>
  <course>325.75</course>
  <speed>0.01</speed>
  <fix>3d</fix>
</trkpt>
<trkpt lat="33.8103141" lon="-118.3938691">
  <ele>-5.047</ele>
  <time>2026-09-02T22:12:19Z</time>
  <course>289.38</course>
  <speed>0.03</speed>
  <fix>3d</fix>
</trkpt>
<trkpt lat="33.8103141" lon="-118.3938691">
  <ele>-5.03</ele>
  <time>2026-09-02T22:12:19Z</time>
  <course>289.83</course>
  <speed>0.03</speed>
  <fix>3d</fix>
</trkpt>
<trkpt lat="33.810314" lon="-118.3938693">
  <ele>-4.83</ele>
  <time>2026-09-02T22:12:19Z</time>
  <course>325.75</course>
  <speed>0.01</speed>
  <fix>3d</fix>
</trkpt>
<trkpt lat="33.8103141" lon="-118.3938691">
  <ele>-5.024</ele>
  <time>2026-09-02T22:12:19Z</time>
  <course>289.96</course>
  <speed>0.03</speed>
  <fix>3d</fix>
</trkpt>
<trkpt lat="33.8103141" lon="-118.3938691">
  <ele>-5.008</ele>
  <time>2026-09-02T22:12:19Z</time>
  <course>290.42</course>
  <speed>0.03</speed>
  <fix>3d</fix>
</trkpt>
<trkpt lat="33.810314" lon="-118.3938693">
  <ele>-4.79</ele>
  <time>2026-09-02T22:12:19Z</time>
  <course>326.68</course>
  <speed>0.01</speed>
  <fix>3d</fix>
</trkpt>
<trkpt lat="33.8103141" lon="-118.3938691">
  <ele>-5.008</ele>
  <time>2026-09-02T22:12:19Z</time>
  <course>290.44</course>
  <speed>0.03</speed>
  <fix>3d</fix>
</trkpt>
<trkpt lat="33.8103141" lon="-118.3938691">
  <ele>-4.992</ele>
  <time>2026-09-02T22:12:19Z</time>
  <course>291.03</course>
  <speed>0.03</speed>
  <fix>3d</fix>
</trkpt>
<trkpt lat="33.810314" lon="-118.3938693">
  <ele>-4.79</ele>
  <time>2026-09-02T22:12:19Z</time>
  <course>326.68</course>
  <speed>0.01</speed>
  <fix>3d</fix>
</trkpt>
<trkpt lat="33.8103141" lon="-118.3938691">
  <ele>-4.988</ele>
  <time>2026-09-02T22:12:19Z</time>
  <course>291.15</course>
  <speed>0.03</speed>
  <fix>3d</fix>
</trkpt>
<trkpt lat="33.8103141" lon="-118.3938691">
  <ele>-4.971</ele>
  <time>2026-09-02T22:12:19Z</time>
  <course>291.63</course>
  <speed>0.03</speed>
  <fix>3d</fix>
</trkpt>
<trkpt lat="33.810314" lon="-118.3938693">
  <ele>-4.76</ele>
  <time>2026-09-02T22:12:19Z</time>
  <course>327.61</course>
  <speed>0.01</speed>
  <fix>3d</fix>
</trkpt>
<trkpt lat="33.8103141" lon="-118.3938691">
  <ele>-4.967</ele>
  <time>2026-09-02T22:12:19Z</time>
  <course>291.73</course>
  <speed>0.03</speed>
  <fix>3d</fix>
</trkpt>
<trkpt lat="33.8103141" lon="-118.3938692">
  <ele>-4.948</ele>
  <time>2026-09-02T22:12:19Z</time>
  <course>292.23</course>
  <speed>0.03</speed>
  <fix>3d</fix>
</trkpt>
<trkpt lat="33.810314" lon="-118.3938693">
  <ele>-4.76</ele>
  <time>2026-09-02T22:12:19Z</time>
  <course>327.61</course>
  <speed>0.01</speed>
  <fix>3d</fix>
</trkpt>
<trkpt lat="33.8103141" lon="-118.3938692">
  <ele>-4.945</ele>
  <time>2026-09-02T22:12:19Z</time>
  <course>292.32</course>
  <speed>0.03</speed>
  <fix>3d</fix>
</trkpt>
<trkpt lat="33.8103141" lon="-118.3938692">
  <ele>-4.928</ele>
  <time>2026-09-02T22:12:19Z</time>
  <course>292.83</course>
  <speed>0.03</speed>
  <fix>3d</fix>
</trkpt>
<trkpt lat="33.810314" lon="-118.3938693">
  <ele>-4.72</ele>
  <time>2026-09-02T22:12:19Z</time>
  <course>328.53</course>
  <speed>0.01</speed>
  <fix>3d</fix>
</trkpt>
<trkpt lat="33.8103141" lon="-118.3938692">
  <ele>-4.927</ele>
  <time>2026-09-02T22:12:19Z</time>
  <course>292.85</course>
  <speed>0.03</speed>
  <fix>3d</fix>
</trkpt>
<trkpt lat="33.8103142" lon="-118.3938692">
  <ele>-4.91</ele>
  <time>2026-09-02T22:12:19Z</time>
  <course>293.44</course>
  <speed>0.03</speed>
  <fix>3d</fix>
</trkpt>
<trkpt lat="33.810314" lon="-118.3938693">
  <ele>-4.72</ele>
  <time>2026-09-02T22:12:19Z</time>
  <course>328.53</course>
  <speed>0.01</speed>
  <fix>3d</fix>
</trkpt>
<trkpt lat="33.8103142" lon="-118.3938692">
  <ele>-4.908</ele>
  <time>2026-09-02T22:12:19Z</time>
  <course>293.51</course>
  <speed>0.03</speed>
  <fix>3d</fix>
</trkpt>
<trkpt lat="33.8103142" lon="-118.3938692">
  <ele>-4.892</ele>
  <time>2026-09-02T22:12:19Z</time>
  <course>294.04</course>
  <speed>0.03</speed>
  <fix>3d</fix>
</trkpt>
<trkpt lat="33.8103141" lon="-118.3938694">
  <ele>-4.68</ele>
  <time>2026-09-02T22:12:19Z</time>
  <course>329.43</course>
  <speed>0.01</speed>
  <fix>3d</fix>
</trkpt>
<trkpt lat="33.8103142" lon="-118.3938692">
  <ele>-4.89</ele>
  <time>2026-09-02T22:12:19Z</time>
  <course>294.1</course>
  <speed>0.03</speed>
  <fix>3d</fix>
</trkpt>
<trkpt lat="33.8103142" lon="-118.3938692">
  <ele>-4.875</ele>
  <time>2026-09-02T22:12:19Z</time>
  <course>294.65</course>
  <speed>0.03</speed>
  <fix>3d</fix>
</trkpt>
<trkpt lat="33.8103141" lon="-118.3938694">
  <ele>-4.68</ele>
  <time>2026-09-02T22:12:19Z</time>
  <course>329.43</course>
  <speed>0.01</speed>
  <fix>3d</fix>
</trkpt>
<trkpt lat="33.8103142" lon="-118.3938692">
  <ele>-4.875</ele>
  <time>2026-09-02T22:12:19Z</time>
  <course>294.68</course>
  <speed>0.03</speed>
  <fix>3d</fix>
</trkpt>
<trkpt lat="33.8103142" lon="-118.3938692">
  <ele>-4.863</ele>
  <time>2026-09-02T22:12:19Z</time>
  <course>295.25</course>
  <speed>0.03</speed>
  <fix>3d</fix>
</trkpt>
<trkpt lat="33.8103141" lon="-118.3938694">
  <ele>-4.65</ele>
  <time>2026-09-02T22:12:19Z</time>
  <course>330.36</course>
  <speed>0.01</speed>
  <fix>3d</fix>
</trkpt>
<trkpt lat="33.8103142" lon="-118.3938692">
  <ele>-4.863</ele>
  <time>2026-09-02T22:12:19Z</time>
  <course>295.27</course>
  <speed>0.03</speed>
  <fix>3d</fix>
</trkpt>
<trkpt lat="33.8103142" lon="-118.3938692">
  <ele>-4.855</ele>
  <time>2026-09-02T22:12:19Z</time>
  <course>295.85</course>
  <speed>0.03</speed>
  <fix>3d</fix>
</trkpt>
<trkpt lat="33.8103141" lon="-118.3938694">
  <ele>-4.65</ele>
  <time>2026-09-02T22:12:19Z</time>
  <course>330.36</course>
  <speed>0.01</speed>
  <fix>3d</fix>
</trkpt>
<trkpt lat="33.8103142" lon="-118.3938692">
  <ele>-4.855</ele>
  <time>2026-09-02T22:12:19Z</time>
  <course>295.9</course>
  <speed>0.03</speed>
  <fix>3d</fix>
</trkpt>
<trkpt lat="33.8103142" lon="-118.3938692">
  <ele>-4.845</ele>
  <time>2026-09-02T22:12:19Z</time>
  <course>296.46</course>
  <speed>0.03</speed>
  <fix>3d</fix>
</trkpt>
<trkpt lat="33.8103141" lon="-118.3938694">
  <ele>-4.61</ele>
  <time>2026-09-02T22:12:19Z</time>
  <course>331.31</course>
  <speed>0.01</speed>
  <fix>3d</fix>
</trkpt>
<trkpt lat="33.8103142" lon="-118.3938692">
  <ele>-4.845</ele>
  <time>2026-09-02T22:12:19Z</time>
  <course>296.48</course>
  <speed>0.03</speed>
  <fix>3d</fix>
</trkpt>
<trkpt lat="33.8103142" lon="-118.3938692">
  <ele>-4.832</ele>
  <time>2026-09-02T22:12:19Z</time>
  <course>297.07</course>
  <speed>0.03</speed>
  <fix>3d</fix>
</trkpt>
<trkpt lat="33.8103141" lon="-118.3938694">
  <ele>-4.61</ele>
  <time>2026-09-02T22:12:19Z</time>
  <course>331.31</course>
  <speed>0.01</speed>
  <fix>3d</fix>
</trkpt>
<trkpt lat="33.8103142" lon="-118.3938692">
  <ele>-4.83</ele>
  <time>2026-09-02T22:12:19Z</time>
  <course>297.14</course>
  <speed>0.03</speed>
  <fix>3d</fix>
</trkpt>
<trkpt lat="33.8103143" lon="-118.3938692">
  <ele>-4.821</ele>
  <time>2026-09-02T22:12:19Z</time>
  <course>297.67</course>
  <speed>0.03</speed>
  <fix>3d</fix>
</trkpt>
<trkpt lat="33.8103141" lon="-118.3938694">
  <ele>-4.58</ele>
  <time>2026-09-02T22:12:19Z</time>
  <course>332.3</course>
  <speed>0.01</speed>
  <fix>3d</fix>
</trkpt>
<trkpt lat="33.8103143" lon="-118.3938692">
  <ele>-4.821</ele>
  <time>2026-09-02T22:12:19Z</time>
  <course>297.72</course>
  <speed>0.03</speed>
  <fix>3d</fix>
</trkpt>
<trkpt lat="33.8103143" lon="-118.3938692">
  <ele>-4.819</ele>
  <time>2026-09-02T22:12:19Z</time>
  <course>298.28</course>
  <speed>0.03</speed>
  <fix>3d</fix>
</trkpt>
<trkpt lat="33.8103141" lon="-118.3938694">
  <ele>-4.58</ele>
  <time>2026-09-02T22:12:19Z</time>
  <course>332.3</course>
  <speed>0.01</speed>
  <fix>3d</fix>
</trkpt>
<trkpt lat="33.8103143" lon="-118.3938692">
  <ele>-4.818</ele>
  <time>2026-09-02T22:12:19Z</time>
  <course>298.89</course>
  <speed>0.03</speed>
  <fix>3d</fix>
</trkpt>
<trkpt lat="33.8103141" lon="-118.3938694">
  <ele>-4.54</ele>
  <time>2026-09-02T22:12:19Z</time>
  <course>333.26</course>
  <speed>0.01</speed>
  <fix>3d</fix>
</trkpt>
<trkpt lat="33.8103143" lon="-118.3938692">
  <ele>-4.818</ele>
  <time>2026-09-02T22:12:19Z</time>
  <course>298.9</course>
  <speed>0.03</speed>
  <fix>3d</fix>
</trkpt>
<trkpt lat="33.8103143" lon="-118.3938692">
  <ele>-4.81</ele>
  <time>2026-09-02T22:12:19Z</time>
  <course>299.5</course>
  <speed>0.03</speed>
  <fix>3d</fix>
</trkpt>
<trkpt lat="33.8103141" lon="-118.3938694">
  <ele>-4.54</ele>
  <time>2026-09-02T22:12:19Z</time>
  <course>333.26</course>
  <speed>0.01</speed>
  <fix>3d</fix>
</trkpt>
<trkpt lat="33.8103143" lon="-118.3938692">
  <ele>-4.807</ele>
  <time>2026-09-02T22:12:19Z</time>
  <course>299.63</course>
  <speed>0.03</speed>
  <fix>3d</fix>
</trkpt>
<trkpt lat="33.8103143" lon="-118.3938692">
  <ele>-4.795</ele>
  <time>2026-09-02T22:12:19Z</time>
  <course>300.1</course>
  <speed>0.0316227766016838</speed>
  <fix>3d</fix>
</trkpt>
<trkpt lat="33.8103142" lon="-118.3938694">
  <ele>-4.5</ele>
  <time>2026-09-02T22:12:19Z</time>
  <course>334.2</course>
  <speed>0.01</speed>
  <fix>3d</fix>
</trkpt>
<trkpt lat="33.8103143" lon="-118.3938692">
  <ele>-4.792</ele>
  <time>2026-09-02T22:12:19Z</time>
  <course>300.19</course>
  <speed>0.0316227766016838</speed>
  <fix>3d</fix>
</trkpt>
<trkpt lat="33.8103143" lon="-118.3938692">
  <ele>-4.777</ele>
  <time>2026-09-02T22:12:20Z</time>
  <course>300.71</course>
  <speed>0.0316227766016838</speed>
  <fix>3d</fix>
</trkpt>
<trkpt lat="33.8103142" lon="-118.3938694">
  <ele>-4.5</ele>
  <time>2026-09-02T22:12:20Z</time>
  <course>334.2</course>
  <speed>0.01</speed>
  <fix>3d</fix>
</trkpt>
<trkpt lat="33.8103143" lon="-118.3938692">
  <ele>-4.774</ele>
  <time>2026-09-02T22:12:20Z</time>
  <course>300.84</course>
  <speed>0.0316227766016838</speed>
  <fix>3d</fix>
</trkpt>
<trkpt lat="33.8103143" lon="-118.3938693">
  <ele>-4.757</ele>
  <time>2026-09-02T22:12:20Z</time>
  <course>301.32</course>
  <speed>0.0316227766016838</speed>
  <fix>3d</fix>
</trkpt>
<trkpt lat="33.8103142" lon="-118.3938695">
  <ele>-4.47</ele>
  <time>2026-09-02T22:12:20Z</time>
  <course>335.16</course>
  <speed>0.01</speed>
  <fix>3d</fix>
</trkpt>
<trkpt lat="33.8103143" lon="-118.3938693">
  <ele>-4.751</ele>
  <time>2026-09-02T22:12:20Z</time>
  <course>301.44</course>
  <speed>0.0316227766016838</speed>
  <fix>3d</fix>
</trkpt>
<trkpt lat="33.8103143" lon="-118.3938693">
  <ele>-4.727</ele>
  <time>2026-09-02T22:12:20Z</time>
  <course>301.93</course>
  <speed>0.0316227766016838</speed>
  <fix>3d</fix>
</trkpt>
<trkpt lat="33.8103142" lon="-118.3938695">
  <ele>-4.47</ele>
  <time>2026-09-02T22:12:20Z</time>
  <course>335.16</course>
  <speed>0.01</speed>
  <fix>3d</fix>
</trkpt>
<trkpt lat="33.8103143" lon="-118.3938693">
  <ele>-4.722</ele>
  <time>2026-09-02T22:12:20Z</time>
  <course>302.02</course>
  <speed>0.0316227766016838</speed>
  <fix>3d</fix>
</trkpt>
<trkpt lat="33.8103143" lon="-118.3938693">
  <ele>-4.694</ele>
  <time>2026-09-02T22:12:20Z</time>
  <course>302.54</course>
  <speed>0.0316227766016838</speed>
  <fix>3d</fix>
</trkpt>
<trkpt lat="33.8103142" lon="-118.3938695">
  <ele>-4.43</ele>
  <time>2026-09-02T22:12:20Z</time>
  <course>336.14</course>
  <speed>0.01</speed>
  <fix>3d</fix>
</trkpt>
<trkpt lat="33.8103143" lon="-118.3938693">
  <ele>-4.691</ele>
  <time>2026-09-02T22:12:20Z</time>
  <course>302.62</course>
  <speed>0.0316227766016838</speed>
  <fix>3d</fix>
</trkpt>
<trkpt lat="33.8103144" lon="-118.3938693">
  <ele>-4.666</ele>
  <time>2026-09-02T22:12:20Z</time>
  <course>303.15</course>
  <speed>0.0316227766016838</speed>
  <fix>3d</fix>
</trkpt>
<trkpt lat="33.8103142" lon="-118.3938695">
  <ele>-4.43</ele>
  <time>2026-09-02T22:12:20Z</time>
  <course>336.14</course>
  <speed>0.01</speed>
  <fix>3d</fix>
</trkpt>
<trkpt lat="33.8103144" lon="-118.3938693">
  <ele>-4.666</ele>
  <time>2026-09-02T22:12:20Z</time>
  <course>303.17</course>
  <speed>0.0316227766016838</speed>
  <fix>3d</fix>
</trkpt>
<trkpt lat="33.8103144" lon="-118.3938693">
  <ele>-4.639</ele>
  <time>2026-09-02T22:12:20Z</time>
  <course>303.76</course>
  <speed>0.0316227766016838</speed>
  <fix>3d</fix>
</trkpt>
<trkpt lat="33.8103143" lon="-118.3938695">
  <ele>-4.39</ele>
  <time>2026-09-02T22:12:20Z</time>
  <course>337.17</course>
  <speed>0.01</speed>
  <fix>3d</fix>
</trkpt>
<trkpt lat="33.8103144" lon="-118.3938693">
  <ele>-4.634</ele>
  <time>2026-09-02T22:12:20Z</time>
  <course>303.87</course>
  <speed>0.022360679774997897</speed>
  <fix>3d</fix>
</trkpt>
<trkpt lat="33.8103144" lon="-118.3938693">
  <ele>-4.612</ele>
  <time>2026-09-02T22:12:20Z</time>
  <course>304.37</course>
  <speed>0.022360679774997897</speed>
  <fix>3d</fix>
</trkpt>
<trkpt lat="33.8103143" lon="-118.3938695">
  <ele>-4.39</ele>
  <time>2026-09-02T22:12:20Z</time>
  <course>337.17</course>
  <speed>0.01</speed>
  <fix>3d</fix>
</trkpt>
<trkpt lat="33.8103144" lon="-118.3938693">
  <ele>-4.607</ele>
  <time>2026-09-02T22:12:20Z</time>
  <course>304.48</course>
  <speed>0.022360679774997897</speed>
  <fix>3d</fix>
</trkpt>
<trkpt lat="33.8103144" lon="-118.3938693">
  <ele>-4.583</ele>
  <time>2026-09-02T22:12:20Z</time>
  <course>304.98</course>
  <speed>0.022360679774997897</speed>
  <fix>3d</fix>
</trkpt>
<trkpt lat="33.8103143" lon="-118.3938695">
  <ele>-4.36</ele>
  <time>2026-09-02T22:12:20Z</time>
  <course>338.17</course>
  <speed>0.01</speed>
  <fix>3d</fix>
</trkpt>
<trkpt lat="33.8103144" lon="-118.3938693">
  <ele>-4.579</ele>
  <time>2026-09-02T22:12:20Z</time>
  <course>305.08</course>
  <speed>0.022360679774997897</speed>
  <fix>3d</fix>
</trkpt>
<trkpt lat="33.8103144" lon="-118.3938693">
  <ele>-4.553</ele>
  <time>2026-09-02T22:12:20Z</time>
  <course>305.6</course>
  <speed>0.022360679774997897</speed>
  <fix>3d</fix>
</trkpt>
<trkpt lat="33.8103143" lon="-118.3938695">
  <ele>-4.36</ele>
  <time>2026-09-02T22:12:20Z</time>
  <course>338.17</course>
  <speed>0.01</speed>
  <fix>3d</fix>
</trkpt>
<trkpt lat="33.8103144" lon="-118.3938693">
  <ele>-4.549</ele>
  <time>2026-09-02T22:12:20Z</time>
  <course>305.69</course>
  <speed>0.022360679774997897</speed>
  <fix>3d</fix>
</trkpt>
<trkpt lat="33.8103144" lon="-118.3938693">
  <ele>-4.532</ele>
  <time>2026-09-02T22:12:20Z</time>
  <course>306.21</course>
  <speed>0.022360679774997897</speed>
  <fix>3d</fix>
</trkpt>
<trkpt lat="33.8103143" lon="-118.3938695">
  <ele>-4.32</ele>
  <time>2026-09-02T22:12:20Z</time>
  <course>339.15</course>
  <speed>0.01</speed>
  <fix>3d</fix>
</trkpt>
<trkpt lat="33.8103144" lon="-118.3938693">
  <ele>-4.53</ele>
  <time>2026-09-02T22:12:20Z</time>
  <course>306.27</course>
  <speed>0.022360679774997897</speed>
  <fix>3d</fix>
</trkpt>
<trkpt lat="33.8103144" lon="-118.3938693">
  <ele>-4.522</ele>
  <time>2026-09-02T22:12:20Z</time>
  <course>306.82</course>
  <speed>0.022360679774997897</speed>
  <fix>3d</fix>
</trkpt>
<trkpt lat="33.8103143" lon="-118.3938695">
  <ele>-4.32</ele>
  <time>2026-09-02T22:12:20Z</time>
  <course>339.15</course>
  <speed>0.01</speed>
  <fix>3d</fix>
</trkpt>
<trkpt lat="33.8103144" lon="-118.3938693">
  <ele>-4.522</ele>
  <time>2026-09-02T22:12:20Z</time>
  <course>306.89</course>
  <speed>0.022360679774997897</speed>
  <fix>3d</fix>
</trkpt>
<trkpt lat="33.8103144" lon="-118.3938693">
  <ele>-4.516</ele>
  <time>2026-09-02T22:12:20Z</time>
  <course>307.45</course>
  <speed>0.022360679774997897</speed>
  <fix>3d</fix>
</trkpt>
<trkpt lat="33.8103143" lon="-118.3938695">
  <ele>-4.28</ele>
  <time>2026-09-02T22:12:20Z</time>
  <course>340.14</course>
  <speed>0.01</speed>
  <fix>3d</fix>
</trkpt>
<trkpt lat="33.8103144" lon="-118.3938693">
  <ele>-4.516</ele>
  <time>2026-09-02T22:12:20Z</time>
  <course>307.51</course>
  <speed>0.022360679774997897</speed>
  <fix>3d</fix>
</trkpt>
<trkpt lat="33.8103145" lon="-118.3938693">
  <ele>-4.512</ele>
  <time>2026-09-02T22:12:20Z</time>
  <course>308.06</course>
  <speed>0.022360679774997897</speed>
  <fix>3d</fix>
</trkpt>
<trkpt lat="33.8103143" lon="-118.3938695">
  <ele>-4.28</ele>
  <time>2026-09-02T22:12:20Z</time>
  <course>340.14</course>
  <speed>0.01</speed>
  <fix>3d</fix>
</trkpt>
<trkpt lat="33.8103145" lon="-118.3938693">
  <ele>-4.512</ele>
  <time>2026-09-02T22:12:20Z</time>
  <course>308.14</course>
  <speed>0.022360679774997897</speed>
  <fix>3d</fix>
</trkpt>
<trkpt lat="33.8103145" lon="-118.3938693">
  <ele>-4.506</ele>
  <time>2026-09-02T22:12:20Z</time>
  <course>308.67</course>
  <speed>0.022360679774997897</speed>
  <fix>3d</fix>
</trkpt>
<trkpt lat="33.8103143" lon="-118.3938695">
  <ele>-4.25</ele>
  <time>2026-09-02T22:12:20Z</time>
  <course>341.15</course>
  <speed>0.01</speed>
  <fix>3d</fix>
</trkpt>
<trkpt lat="33.8103145" lon="-118.3938693">
  <ele>-4.504</ele>
  <time>2026-09-02T22:12:20Z</time>
  <course>308.75</course>
  <speed>0.022360679774997897</speed>
  <fix>3d</fix>
</trkpt>
<trkpt lat="33.8103145" lon="-118.3938693">
  <ele>-4.493</ele>
  <time>2026-09-02T22:12:20Z</time>
  <course>309.29</course>
  <speed>0.022360679774997897</speed>
  <fix>3d</fix>
</trkpt>
<trkpt lat="33.8103143" lon="-118.3938695">
  <ele>-4.25</ele>
  <time>2026-09-02T22:12:20Z</time>
  <course>341.15</course>
  <speed>0.01</speed>
  <fix>3d</fix>
</trkpt>
<trkpt lat="33.8103145" lon="-118.3938693">
  <ele>-4.492</ele>
  <time>2026-09-02T22:12:20Z</time>
  <course>309.3</course>
  <speed>0.022360679774997897</speed>
  <fix>3d</fix>
</trkpt>
<trkpt lat="33.8103145" lon="-118.3938693">
  <ele>-4.479</ele>
  <time>2026-09-02T22:12:20Z</time>
  <course>309.9</course>
  <speed>0.022360679774997897</speed>
  <fix>3d</fix>
</trkpt>
<trkpt lat="33.8103143" lon="-118.3938695">
  <ele>-4.21</ele>
  <time>2026-09-02T22:12:20Z</time>
  <course>342.2</course>
  <speed>0.01</speed>
  <fix>3d</fix>
</trkpt>
<trkpt lat="33.8103145" lon="-118.3938693">
  <ele>-4.475</ele>
  <time>2026-09-02T22:12:20Z</time>
  <course>310.06</course>
  <speed>0.022360679774997897</speed>
  <fix>3d</fix>
</trkpt>
<trkpt lat="33.8103145" lon="-118.3938693">
  <ele>-4.458</ele>
  <time>2026-09-02T22:12:20Z</time>
  <course>310.52</course>
  <speed>0.022360679774997897</speed>
  <fix>3d</fix>
</trkpt>
<trkpt lat="33.8103143" lon="-118.3938695">
  <ele>-4.21</ele>
  <time>2026-09-02T22:12:20Z</time>
  <course>342.2</course>
  <speed>0.01</speed>
  <fix>3d</fix>
</trkpt>
<trkpt lat="33.8103145" lon="-118.3938693">
  <ele>-4.452</ele>
  <time>2026-09-02T22:12:20Z</time>
  <course>310.64</course>
  <speed>0.022360679774997897</speed>
  <fix>3d</fix>
</trkpt>
<trkpt lat="33.8103145" lon="-118.3938693">
  <ele>-4.43</ele>
  <time>2026-09-02T22:12:20Z</time>
  <course>311.13</course>
  <speed>0.022360679774997897</speed>
  <fix>3d</fix>
</trkpt>
<trkpt lat="33.8103143" lon="-118.3938695">
  <ele>-4.17</ele>
  <time>2026-09-02T22:12:20Z</time>
  <course>343.25</course>
  <speed>0.01</speed>
  <fix>3d</fix>
</trkpt>
<trkpt lat="33.8103145" lon="-118.3938693">
  <ele>-4.425</ele>
  <time>2026-09-02T22:12:20Z</time>
  <course>311.24</course>
  <speed>0.022360679774997897</speed>
  <fix>3d</fix>
</trkpt>
<trkpt lat="33.8103145" lon="-118.3938693">
  <ele>-4.407</ele>
  <time>2026-09-02T22:12:20Z</time>
  <course>311.75</course>
  <speed>0.022360679774997897</speed>
  <fix>3d</fix>
</trkpt>
<trkpt lat="33.8103143" lon="-118.3938695">
  <ele>-4.17</ele>
  <time>2026-09-02T22:12:20Z</time>
  <course>343.25</course>
  <speed>0.01</speed>
  <fix>3d</fix>
</trkpt>
<trkpt lat="33.8103145" lon="-118.3938693">
  <ele>-4.404</ele>
  <time>2026-09-02T22:12:20Z</time>
  <course>311.84</course>
  <speed>0.022360679774997897</speed>
  <fix>3d</fix>
</trkpt>
<trkpt lat="33.8103145" lon="-118.3938693">
  <ele>-4.391</ele>
  <time>2026-09-02T22:12:20Z</time>
  <course>312.37</course>
  <speed>0.022360679774997897</speed>
  <fix>3d</fix>
</trkpt>
<trkpt lat="33.8103144" lon="-118.3938695">
  <ele>-4.14</ele>
  <time>2026-09-02T22:12:20Z</time>
  <course>344.27</course>
  <speed>0.01</speed>
  <fix>3d</fix>
</trkpt>
<trkpt lat="33.8103145" lon="-118.3938693">
  <ele>-4.39</ele>
  <time>2026-09-02T22:12:20Z</time>
  <course>312.44</course>
  <speed>0.022360679774997897</speed>
  <fix>3d</fix>
</trkpt>
<trkpt lat="33.8103145" lon="-118.3938693">
  <ele>-4.38</ele>
  <time>2026-09-02T22:12:20Z</time>
  <course>312.98</course>
  <speed>0.022360679774997897</speed>
  <fix>3d</fix>
</trkpt>
<trkpt lat="33.8103144" lon="-118.3938695">
  <ele>-4.14</ele>
  <time>2026-09-02T22:12:20Z</time>
  <course>344.27</course>
  <speed>0.01</speed>
  <fix>3d</fix>
</trkpt>
<trkpt lat="33.8103145" lon="-118.3938693">
  <ele>-4.38</ele>
  <time>2026-09-02T22:12:20Z</time>
  <course>313.03</course>
  <speed>0.022360679774997897</speed>
  <fix>3d</fix>
</trkpt>
<trkpt lat="33.8103145" lon="-118.3938693">
  <ele>-4.366</ele>
  <time>2026-09-02T22:12:20Z</time>
  <course>313.6</course>
  <speed>0.022360679774997897</speed>
  <fix>3d</fix>
</trkpt>
<trkpt lat="33.8103144" lon="-118.3938695">
  <ele>-4.1</ele>
  <time>2026-09-02T22:12:20Z</time>
  <course>345.29</course>
  <speed>0.01</speed>
  <fix>3d</fix>
</trkpt>
<trkpt lat="33.8103145" lon="-118.3938693">
  <ele>-4.366</ele>
  <time>2026-09-02T22:12:20Z</time>
  <course>313.61</course>
  <speed>0.022360679774997897</speed>
  <fix>3d</fix>
</trkpt>
<trkpt lat="33.8103145" lon="-118.3938693">
  <ele>-4.341</ele>
  <time>2026-09-02T22:12:20Z</time>
  <course>314.22</course>
  <speed>0.022360679774997897</speed>
  <fix>3d</fix>
</trkpt>
<trkpt lat="33.8103144" lon="-118.3938695">
  <ele>-4.1</ele>
  <time>2026-09-02T22:12:20Z</time>
  <course>345.29</course>
  <speed>0.01</speed>
  <fix>3d</fix>
</trkpt>
<trkpt lat="33.8103145" lon="-118.3938693">
  <ele>-4.338</ele>
  <time>2026-09-02T22:12:20Z</time>
  <course>314.28</course>
  <speed>0.022360679774997897</speed>
  <fix>3d</fix>
</trkpt>
<trkpt lat="33.8103145" lon="-118.3938693">
  <ele>-4.317</ele>
  <time>2026-09-02T22:12:20Z</time>
  <course>314.84</course>
  <speed>0.022360679774997897</speed>
  <fix>3d</fix>
</trkpt>
<trkpt lat="33.8103144" lon="-118.3938695">
  <ele>-4.06</ele>
  <time>2026-09-02T22:12:20Z</time>
  <course>346.32</course>
  <speed>0.01</speed>
  <fix>3d</fix>
</trkpt>
<trkpt lat="33.8103145" lon="-118.3938693">
  <ele>-4.317</ele>
  <time>2026-09-02T22:12:20Z</time>
  <course>314.87</course>
  <speed>0.022360679774997897</speed>
  <fix>3d</fix>
</trkpt>
<trkpt lat="33.8103145" lon="-118.3938693">
  <ele>-4.298</ele>
  <time>2026-09-02T22:12:20Z</time>
  <course>315.45</course>
  <speed>0.022360679774997897</speed>
  <fix>3d</fix>
</trkpt>
<trkpt lat="33.8103144" lon="-118.3938695">
  <ele>-4.06</ele>
  <time>2026-09-02T22:12:20Z</time>
  <course>346.32</course>
  <speed>0.01</speed>
  <fix>3d</fix>
</trkpt>
<trkpt lat="33.8103145" lon="-118.3938693">
  <ele>-4.293</ele>
  <time>2026-09-02T22:12:20Z</time>
  <course>315.56</course>
  <speed>0.022360679774997897</speed>
  <fix>3d</fix>
</trkpt>
<trkpt lat="33.8103145" lon="-118.3938693">
  <ele>-4.274</ele>
  <time>2026-09-02T22:12:20Z</time>
  <course>316.08</course>
  <speed>0.022360679774997897</speed>
  <fix>3d</fix>
</trkpt>
<trkpt lat="33.8103145" lon="-118.3938695">
  <ele>-4.02</ele>
  <time>2026-09-02T22:12:20Z</time>
  <course>347.39</course>
  <speed>0.01</speed>
  <fix>3d</fix>
</trkpt>
<trkpt lat="33.8103146" lon="-118.3938693">
  <ele>-4.274</ele>
  <time>2026-09-02T22:12:20Z</time>
  <course>316.09</course>
  <speed>0.022360679774997897</speed>
  <fix>3d</fix>
</trkpt>
<trkpt lat="33.8103146" lon="-118.3938693">
  <ele>-4.257</ele>
  <time>2026-09-02T22:12:20Z</time>
  <course>316.7</course>
  <speed>0.022360679774997897</speed>
  <fix>3d</fix>
</trkpt>
<trkpt lat="33.8103145" lon="-118.3938695">
  <ele>-4.02</ele>
  <time>2026-09-02T22:12:20Z</time>
  <course>347.39</course>
  <speed>0.01</speed>
  <fix>3d</fix>
</trkpt>
<trkpt lat="33.8103146" lon="-118.3938693">
  <ele>-4.257</ele>
  <time>2026-09-02T22:12:20Z</time>
  <course>316.74</course>
  <speed>0.022360679774997897</speed>
  <fix>3d</fix>
</trkpt>
<trkpt lat="33.8103146" lon="-118.3938693">
  <ele>-4.248</ele>
  <time>2026-09-02T22:12:20Z</time>
  <course>317.31</course>
  <speed>0.0282842712474619</speed>
  <fix>3d</fix>
</trkpt>
<trkpt lat="33.8103146" lon="-118.3938695">
  <ele>-3.99</ele>
  <time>2026-09-02T22:12:20Z</time>
  <course>348.48</course>
  <speed>0.01</speed>
  <fix>3d</fix>
</trkpt>
<trkpt lat="33.8103146" lon="-118.3938693">
  <ele>-4.248</ele>
  <time>2026-09-02T22:12:20Z</time>
  <course>317.35</course>
  <speed>0.0282842712474619</speed>
  <fix>3d</fix>
</trkpt>
<trkpt lat="33.8103146" lon="-118.3938693">
  <ele>-4.24</ele>
  <time>2026-09-02T22:12:20Z</time>
  <course>317.94</course>
  <speed>0.0282842712474619</speed>
  <fix>3d</fix>
</trkpt>
<trkpt lat="33.8103146" lon="-118.3938695">
  <ele>-3.99</ele>
  <time>2026-09-02T22:12:20Z</time>
  <course>348.48</course>
  <speed>0.01</speed>
  <fix>3d</fix>
</trkpt>
<trkpt lat="33.8103146" lon="-118.3938693">
  <ele>-4.238</ele>
  <time>2026-09-02T22:12:20Z</time>
  <course>318.09</course>
  <speed>0.0282842712474619</speed>
  <fix>3d</fix>
</trkpt>
<trkpt lat="33.8103146" lon="-118.3938693">
  <ele>-4.226</ele>
  <time>2026-09-02T22:12:20Z</time>
  <course>318.56</course>
  <speed>0.0282842712474619</speed>
  <fix>3d</fix>
</trkpt>
<trkpt lat="33.8103146" lon="-118.3938695">
  <ele>-3.95</ele>
  <time>2026-09-02T22:12:20Z</time>
  <course>349.55</course>
  <speed>0.01</speed>
  <fix>3d</fix>
</trkpt>
<trkpt lat="33.8103146" lon="-118.3938693">
  <ele>-4.225</ele>
  <time>2026-09-02T22:12:20Z</time>
  <course>318.57</course>
  <speed>0.0282842712474619</speed>
  <fix>3d</fix>
</trkpt>
<trkpt lat="33.8103146" lon="-118.3938693">
  <ele>-4.2</ele>
  <time>2026-09-02T22:12:20Z</time>
  <course>319.18</course>
  <speed>0.0282842712474619</speed>
  <fix>3d</fix>
</trkpt>
<trkpt lat="33.8103146" lon="-118.3938695">
  <ele>-3.95</ele>
  <time>2026-09-02T22:12:20Z</time>
  <course>349.55</course>
  <speed>0.01</speed>
  <fix>3d</fix>
</trkpt>
<trkpt lat="33.8103146" lon="-118.3938693">
  <ele>-4.198</ele>
  <time>2026-09-02T22:12:20Z</time>
  <course>319.21</course>
  <speed>0.0282842712474619</speed>
  <fix>3d</fix>
</trkpt>
<trkpt lat="33.8103146" lon="-118.3938693">
  <ele>-4.174</ele>
  <time>2026-09-02T22:12:20Z</time>
  <course>319.8</course>
  <speed>0.0282842712474619</speed>
  <fix>3d</fix>
</trkpt>
<trkpt lat="33.8103146" lon="-118.3938695">
  <ele>-3.91</ele>
  <time>2026-09-02T22:12:20Z</time>
  <course>350.59</course>
  <speed>0.01</speed>
  <fix>3d</fix>
</trkpt>
<trkpt lat="33.8103146" lon="-118.3938693">
  <ele>-4.172</ele>
  <time>2026-09-02T22:12:20Z</time>
  <course>319.82</course>
  <speed>0.0282842712474619</speed>
  <fix>3d</fix>
</trkpt>
<trkpt lat="33.8103146" lon="-118.3938693">
  <ele>-4.153</ele>
  <time>2026-09-02T22:12:20Z</time>
  <course>320.43</course>
  <speed>0.0282842712474619</speed>
  <fix>3d</fix>
</trkpt>
<trkpt lat="33.8103146" lon="-118.3938695">
  <ele>-3.91</ele>
  <time>2026-09-02T22:12:20Z</time>
  <course>350.59</course>
  <speed>0.01</speed>
  <fix>3d</fix>
</trkpt>
<trkpt lat="33.8103147" lon="-118.3938693">
  <ele>-4.152</ele>
  <time>2026-09-02T22:12:20Z</time>
  <course>320.46</course>
  <speed>0.0282842712474619</speed>
  <fix>3d</fix>
</trkpt>
<trkpt lat="33.8103147" lon="-118.3938693">
  <ele>-4.138</ele>
  <time>2026-09-02T22:12:20Z</time>
  <course>321.05</course>
  <speed>0.0282842712474619</speed>
  <fix>3d</fix>
</trkpt>
<trkpt lat="33.8103146" lon="-118.3938695">
  <ele>-3.87</ele>
  <time>2026-09-02T22:12:20Z</time>
  <course>351.64</course>
  <speed>0.01</speed>
  <fix>3d</fix>
</trkpt>
<trkpt lat="33.8103147" lon="-118.3938693">
  <ele>-4.135</ele>
  <time>2026-09-02T22:12:20Z</time>
  <course>321.2</course>
  <speed>0.0282842712474619</speed>
  <fix>3d</fix>
</trkpt>
<trkpt lat="33.8103147" lon="-118.3938693">
  <ele>-4.121</ele>
  <time>2026-09-02T22:12:20Z</time>
  <course>321.67</course>
  <speed>0.0282842712474619</speed>
  <fix>3d</fix>
</trkpt>
<trkpt lat="33.8103146" lon="-118.3938695">
  <ele>-3.87</ele>
  <time>2026-09-02T22:12:20Z</time>
  <course>351.64</course>
  <speed>0.01</speed>
  <fix>3d</fix>
</trkpt>
<trkpt lat="33.8103147" lon="-118.3938693">
  <ele>-4.115</ele>
  <time>2026-09-02T22:12:20Z</time>
  <course>321.81</course>
  <speed>0.0282842712474619</speed>
  <fix>3d</fix>
</trkpt>
<trkpt lat="33.8103147" lon="-118.3938693">
  <ele>-4.098</ele>
  <time>2026-09-02T22:12:20Z</time>
  <course>322.29</course>
  <speed>0.0282842712474619</speed>
  <fix>3d</fix>
</trkpt>
<trkpt lat="33.8103147" lon="-118.3938695">
  <ele>-3.84</ele>
  <time>2026-09-02T22:12:20Z</time>
  <course>352.73</course>
  <speed>0.01</speed>
  <fix>3d</fix>
</trkpt>
<trkpt lat="33.8103147" lon="-118.3938693">
  <ele>-4.097</ele>
  <time>2026-09-02T22:12:20Z</time>
  <course>322.31</course>
  <speed>0.0282842712474619</speed>
  <fix>3d</fix>
</trkpt>
<trkpt lat="33.8103147" lon="-118.3938693">
  <ele>-4.076</ele>
  <time>2026-09-02T22:12:20Z</time>
  <course>322.92</course>
  <speed>0.0282842712474619</speed>
  <fix>3d</fix>
</trkpt>
<trkpt lat="33.8103147" lon="-118.3938695">
  <ele>-3.84</ele>
  <time>2026-09-02T22:12:20Z</time>
  <course>352.73</course>
  <speed>0.01</speed>
  <fix>3d</fix>
</trkpt>
<trkpt lat="33.8103147" lon="-118.3938693">
  <ele>-4.071</ele>
  <time>2026-09-02T22:12:20Z</time>
  <course>323.05</course>
  <speed>0.0282842712474619</speed>
  <fix>3d</fix>
</trkpt>
<trkpt lat="33.8103147" lon="-118.3938693">
  <ele>-4.049</ele>
  <time>2026-09-02T22:12:20Z</time>
  <course>323.54</course>
  <speed>0.0282842712474619</speed>
  <fix>3d</fix>
</trkpt>
<trkpt lat="33.8103147" lon="-118.3938695">
  <ele>-3.8</ele>
  <time>2026-09-02T22:12:20Z</time>
  <course>353.85</course>
  <speed>0.01</speed>
  <fix>3d</fix>
</trkpt>
<trkpt lat="33.8103147" lon="-118.3938693">
  <ele>-4.042</ele>
  <time>2026-09-02T22:12:20Z</time>
  <course>323.66</course>
  <speed>0.0282842712474619</speed>
  <fix>3d</fix>
</trkpt>
<trkpt lat="33.8103147" lon="-118.3938693">
  <ele>-4.017</ele>
  <time>2026-09-02T22:12:20Z</time>
  <course>324.16</course>
  <speed>0.0282842712474619</speed>
  <fix>3d</fix>
</trkpt>
<trkpt lat="33.8103147" lon="-118.3938695">
  <ele>-3.8</ele>
  <time>2026-09-02T22:12:20Z</time>
  <course>353.85</course>
  <speed>0.01</speed>
  <fix>3d</fix>
</trkpt>
<trkpt lat="33.8103147" lon="-118.3938693">
  <ele>-4.011</ele>
  <time>2026-09-02T22:12:20Z</time>
  <course>324.27</course>
  <speed>0.0282842712474619</speed>
  <fix>3d</fix>
</trkpt>
<trkpt lat="33.8103147" lon="-118.3938693">
  <ele>-3.983</ele>
  <time>2026-09-02T22:12:20Z</time>
  <course>324.78</course>
  <speed>0.0282842712474619</speed>
  <fix>3d</fix>
</trkpt>
<trkpt lat="33.8103147" lon="-118.3938695">
  <ele>-3.76</ele>
  <time>2026-09-02T22:12:20Z</time>
  <course>354.94</course>
  <speed>0.01</speed>
  <fix>3d</fix>
</trkpt>
<trkpt lat="33.8103148" lon="-118.3938693">
  <ele>-3.976</ele>
  <time>2026-09-02T22:12:20Z</time>
  <course>324.88</course>
  <speed>0.0282842712474619</speed>
  <fix>3d</fix>
</trkpt>
<trkpt lat="33.8103148" lon="-118.3938693">
  <ele>-3.95</ele>
  <time>2026-09-02T22:12:21Z</time>
  <course>325.41</course>
  <speed>0.0282842712474619</speed>
  <fix>3d</fix>
</trkpt>
<trkpt lat="33.8103147" lon="-118.3938695">
  <ele>-3.76</ele>
  <time>2026-09-02T22:12:21Z</time>
  <course>354.94</course>
  <speed>0.01</speed>
  <fix>3d</fix>
</trkpt>
<trkpt lat="33.8103148" lon="-118.3938693">
  <ele>-3.948</ele>
  <time>2026-09-02T22:12:21Z</time>
  <course>325.47</course>
  <speed>0.0282842712474619</speed>
  <fix>3d</fix>
</trkpt>
<trkpt lat="33.8103148" lon="-118.3938693">
  <ele>-3.923</ele>
  <time>2026-09-02T22:12:21Z</time>
  <course>326.03</course>
  <speed>0.0282842712474619</speed>
  <fix>3d</fix>
</trkpt>
<trkpt lat="33.8103147" lon="-118.3938695">
  <ele>-3.72</ele>
  <time>2026-09-02T22:12:21Z</time>
  <course>356.01</course>
  <speed>0.01</speed>
  <fix>3d</fix>
</trkpt>
<trkpt lat="33.8103148" lon="-118.3938693">
  <ele>-3.92</ele>
  <time>2026-09-02T22:12:21Z</time>
  <course>326.07</course>
  <speed>0.0282842712474619</speed>
  <fix>3d</fix>
</trkpt>
<trkpt lat="33.8103148" lon="-118.3938693">
  <ele>-3.898</ele>
  <time>2026-09-02T22:12:21Z</time>
  <course>326.66</course>
  <speed>0.0282842712474619</speed>
  <fix>3d</fix>
</trkpt>
<trkpt lat="33.8103147" lon="-118.3938695">
  <ele>-3.72</ele>
  <time>2026-09-02T22:12:21Z</time>
  <course>356.01</course>
  <speed>0.01</speed>
  <fix>3d</fix>
</trkpt>
<trkpt lat="33.8103148" lon="-118.3938693">
  <ele>-3.897</ele>
  <time>2026-09-02T22:12:21Z</time>
  <course>326.69</course>
  <speed>0.0282842712474619</speed>
  <fix>3d</fix>
</trkpt>
<trkpt lat="33.8103148" lon="-118.3938693">
  <ele>-3.881</ele>
  <time>2026-09-02T22:12:21Z</time>
  <course>327.28</course>
  <speed>0.0282842712474619</speed>
  <fix>3d</fix>
</trkpt>
<trkpt lat="33.8103148" lon="-118.3938695">
  <ele>-3.68</ele>
  <time>2026-09-02T22:12:21Z</time>
  <course>357.09</course>
  <speed>0.01</speed>
  <fix>3d</fix>
</trkpt>
<trkpt lat="33.8103148" lon="-118.3938693">
  <ele>-3.877</ele>
  <time>2026-09-02T22:12:21Z</time>
  <course>327.44</course>
  <speed>0.0282842712474619</speed>
  <fix>3d</fix>
</trkpt>
<trkpt lat="33.8103148" lon="-118.3938693">
  <ele>-3.86</ele>
  <time>2026-09-02T22:12:21Z</time>
  <course>327.91</course>
  <speed>0.0282842712474619</speed>
  <fix>3d</fix>
</trkpt>
<trkpt lat="33.8103148" lon="-118.3938695">
  <ele>-3.68</ele>
  <time>2026-09-02T22:12:21Z</time>
  <course>357.09</course>
  <speed>0.01</speed>
  <fix>3d</fix>
</trkpt>
<trkpt lat="33.8103148" lon="-118.3938693">
  <ele>-3.855</ele>
  <time>2026-09-02T22:12:21Z</time>
  <course>328.04</course>
  <speed>0.0282842712474619</speed>
  <fix>3d</fix>
</trkpt>
<trkpt lat="33.8103148" lon="-118.3938693">
  <ele>-3.833</ele>
  <time>2026-09-02T22:12:21Z</time>
  <course>328.54</course>
  <speed>0.0282842712474619</speed>
  <fix>3d</fix>
</trkpt>
<trkpt lat="33.8103148" lon="-118.3938695">
  <ele>-3.65</ele>
  <time>2026-09-02T22:12:21Z</time>
  <course>358.18</course>
  <speed>0.01</speed>
  <fix>3d</fix>
</trkpt>
<trkpt lat="33.8103148" lon="-118.3938693">
  <ele>-3.827</ele>
  <time>2026-09-02T22:12:21Z</time>
  <course>328.65</course>
  <speed>0.0282842712474619</speed>
  <fix>3d</fix>
</trkpt>
<trkpt lat="33.8103148" lon="-118.3938693">
  <ele>-3.802</ele>
  <time>2026-09-02T22:12:21Z</time>
  <course>329.16</course>
  <speed>0.0282842712474619</speed>
  <fix>3d</fix>
</trkpt>
<trkpt lat="33.8103148" lon="-118.3938695">
  <ele>-3.65</ele>
  <time>2026-09-02T22:12:21Z</time>
  <course>358.18</course>
  <speed>0.01</speed>
  <fix>3d</fix>
</trkpt>
<trkpt lat="33.8103148" lon="-118.3938693">
  <ele>-3.8</ele>
  <time>2026-09-02T22:12:21Z</time>
  <course>329.18</course>
  <speed>0.0282842712474619</speed>
  <fix>3d</fix>
</trkpt>
<trkpt lat="33.8103148" lon="-118.3938693">
  <ele>-3.771</ele>
  <time>2026-09-02T22:12:21Z</time>
  <course>329.79</course>
  <speed>0.0282842712474619</speed>
  <fix>3d</fix>
</trkpt>
<trkpt lat="33.8103148" lon="-118.3938695">
  <ele>-3.61</ele>
  <time>2026-09-02T22:12:21Z</time>
  <course>359.33</course>
  <speed>0.01</speed>
  <fix>3d</fix>
</trkpt>
<trkpt lat="33.8103149" lon="-118.3938693">
  <ele>-3.765</ele>
  <time>2026-09-02T22:12:21Z</time>
  <course>329.91</course>
  <speed>0.0282842712474619</speed>
  <fix>3d</fix>
</trkpt>
<trkpt lat="33.8103149" lon="-118.3938693">
  <ele>-3.741</ele>
  <time>2026-09-02T22:12:21Z</time>
  <course>330.41</course>
  <speed>0.022360679774997897</speed>
  <fix>3d</fix>
</trkpt>
<trkpt lat="33.8103148" lon="-118.3938695">
  <ele>-3.61</ele>
  <time>2026-09-02T22:12:21Z</time>
  <course>359.33</course>
  <speed>0.01</speed>
  <fix>3d</fix>
</trkpt>
<trkpt lat="33.8103149" lon="-118.3938693">
  <ele>-3.735</ele>
  <time>2026-09-02T22:12:21Z</time>
  <course>330.51</course>
  <speed>0.022360679774997897</speed>
  <fix>3d</fix>
</trkpt>
<trkpt lat="33.8103149" lon="-118.3938693">
  <ele>-3.708</ele>
  <time>2026-09-02T22:12:21Z</time>
  <course>331.04</course>
  <speed>0.022360679774997897</speed>
  <fix>3d</fix>
</trkpt>
<trkpt lat="33.8103149" lon="-118.3938695">
  <ele>-3.57</ele>
  <time>2026-09-02T22:12:21Z</time>
  <course>0.45</course>
  <speed>0.01</speed>
  <fix>3d</fix>
</trkpt>
<trkpt lat="33.8103149" lon="-118.3938693">
  <ele>-3.704</ele>
  <time>2026-09-02T22:12:21Z</time>
  <course>331.12</course>
  <speed>0.022360679774997897</speed>
  <fix>3d</fix>
</trkpt>
<trkpt lat="33.8103149" lon="-118.3938693">
  <ele>-3.682</ele>
  <time>2026-09-02T22:12:21Z</time>
  <course>331.67</course>
  <speed>0.022360679774997897</speed>
  <fix>3d</fix>
</trkpt>
<trkpt lat="33.8103149" lon="-118.3938695">
  <ele>-3.57</ele>
  <time>2026-09-02T22:12:21Z</time>
  <course>0.45</course>
  <speed>0.01</speed>
  <fix>3d</fix>
</trkpt>
<trkpt lat="33.8103149" lon="-118.3938693">
  <ele>-3.68</ele>
  <time>2026-09-02T22:12:21Z</time>
  <course>331.75</course>
  <speed>0.022360679774997897</speed>
  <fix>3d</fix>
</trkpt>
<trkpt lat="33.8103149" lon="-118.3938693">
  <ele>-3.666</ele>
  <time>2026-09-02T22:12:21Z</time>
  <course>332.3</course>
  <speed>0.022360679774997897</speed>
  <fix>3d</fix>
</trkpt>
<trkpt lat="33.8103149" lon="-118.3938695">
  <ele>-3.53</ele>
  <time>2026-09-02T22:12:21Z</time>
  <course>1.54</course>
  <speed>0.01</speed>
  <fix>3d</fix>
</trkpt>
<trkpt lat="33.8103149" lon="-118.3938693">
  <ele>-3.665</ele>
  <time>2026-09-02T22:12:21Z</time>
  <course>332.36</course>
  <speed>0.022360679774997897</speed>
  <fix>3d</fix>
</trkpt>
<trkpt lat="33.8103149" lon="-118.3938693">
  <ele>-3.653</ele>
  <time>2026-09-02T22:12:21Z</time>
  <course>332.93</course>
  <speed>0.022360679774997897</speed>
  <fix>3d</fix>
</trkpt>
<trkpt lat="33.8103149" lon="-118.3938695">
  <ele>-3.53</ele>
  <time>2026-09-02T22:12:21Z</time>
  <course>1.54</course>
  <speed>0.01</speed>
  <fix>3d</fix>
</trkpt>
<trkpt lat="33.8103149" lon="-118.3938693">
  <ele>-3.651</ele>
  <time>2026-09-02T22:12:21Z</time>
  <course>332.98</course>
  <speed>0.022360679774997897</speed>
  <fix>3d</fix>
</trkpt>
<trkpt lat="33.8103149" lon="-118.3938693">
  <ele>-3.645</ele>
  <time>2026-09-02T22:12:21Z</time>
  <course>333.56</course>
  <speed>0.022360679774997897</speed>
  <fix>3d</fix>
</trkpt>
<trkpt lat="33.8103149" lon="-118.3938695">
  <ele>-3.49</ele>
  <time>2026-09-02T22:12:21Z</time>
  <course>2.64</course>
  <speed>0.01</speed>
  <fix>3d</fix>
</trkpt>
<trkpt lat="33.8103149" lon="-118.3938693">
  <ele>-3.644</ele>
  <time>2026-09-02T22:12:21Z</time>
  <course>333.59</course>
  <speed>0.022360679774997897</speed>
  <fix>3d</fix>
</trkpt>
<trkpt lat="33.8103149" lon="-118.3938693">
  <ele>-3.637</ele>
  <time>2026-09-02T22:12:21Z</time>
  <course>334.19</course>
  <speed>0.022360679774997897</speed>
  <fix>3d</fix>
</trkpt>
<trkpt lat="33.8103149" lon="-118.3938695">
  <ele>-3.49</ele>
  <time>2026-09-02T22:12:21Z</time>
  <course>2.64</course>
  <speed>0.01</speed>
  <fix>3d</fix>
</trkpt>
<trkpt lat="33.8103149" lon="-118.3938693">
  <ele>-3.634</ele>
  <time>2026-09-02T22:12:21Z</time>
  <course>334.35</course>
  <speed>0.022360679774997897</speed>
  <fix>3d</fix>
</trkpt>
<trkpt lat="33.810315" lon="-118.3938693">
  <ele>-3.625</ele>
  <time>2026-09-02T22:12:21Z</time>
  <course>334.82</course>
  <speed>0.022360679774997897</speed>
  <fix>3d</fix>
</trkpt>
<trkpt lat="33.8103149" lon="-118.3938695">
  <ele>-3.46</ele>
  <time>2026-09-02T22:12:21Z</time>
  <course>3.75</course>
  <speed>0.01</speed>
  <fix>3d</fix>
</trkpt>
<trkpt lat="33.810315" lon="-118.3938693">
  <ele>-3.621</ele>
  <time>2026-09-02T22:12:21Z</time>
  <course>334.94</course>
  <speed>0.022360679774997897</speed>
  <fix>3d</fix>
</trkpt>
<trkpt lat="33.810315" lon="-118.3938693">
  <ele>-3.615</ele>
  <time>2026-09-02T22:12:21Z</time>
  <course>335.45</course>
  <speed>0.022360679774997897</speed>
  <fix>3d</fix>
</trkpt>
<trkpt lat="33.8103149" lon="-118.3938695">
  <ele>-3.46</ele>
  <time>2026-09-02T22:12:21Z</time>
  <course>3.75</course>
  <speed>0.01</speed>
  <fix>3d</fix>
</trkpt>
<trkpt lat="33.810315" lon="-118.3938693">
  <ele>-3.615</ele>
  <time>2026-09-02T22:12:21Z</time>
  <course>335.46</course>
  <speed>0.022360679774997897</speed>
  <fix>3d</fix>
</trkpt>
<trkpt lat="33.810315" lon="-118.3938693">
  <ele>-3.602</ele>
  <time>2026-09-02T22:12:21Z</time>
  <course>336.08</course>
  <speed>0.022360679774997897</speed>
  <fix>3d</fix>
</trkpt>
<trkpt lat="33.8103149" lon="-118.3938695">
  <ele>-3.42</ele>
  <time>2026-09-02T22:12:21Z</time>
  <course>4.9</course>
  <speed>0.01</speed>
  <fix>3d</fix>
</trkpt>
<trkpt lat="33.810315" lon="-118.3938693">
  <ele>-3.598</ele>
  <time>2026-09-02T22:12:21Z</time>
  <course>336.22</course>
  <speed>0.022360679774997897</speed>
  <fix>3d</fix>
</trkpt>
<trkpt lat="33.810315" lon="-118.3938693">
  <ele>-3.586</ele>
  <time>2026-09-02T22:12:21Z</time>
  <course>336.71</course>
  <speed>0.022360679774997897</speed>
  <fix>3d</fix>
</trkpt>
<trkpt lat="33.8103149" lon="-118.3938695">
  <ele>-3.42</ele>
  <time>2026-09-02T22:12:21Z</time>
  <course>4.9</course>
  <speed>0.01</speed>
  <fix>3d</fix>
</trkpt>
<trkpt lat="33.810315" lon="-118.3938693">
  <ele>-3.583</ele>
  <time>2026-09-02T22:12:21Z</time>
  <course>336.82</course>
  <speed>0.022360679774997897</speed>
  <fix>3d</fix>
</trkpt>
<trkpt lat="33.810315" lon="-118.3938693">
  <ele>-3.562</ele>
  <time>2026-09-02T22:12:21Z</time>
  <course>337.34</course>
  <speed>0.022360679774997897</speed>
  <fix>3d</fix>
</trkpt>
<trkpt lat="33.8103149" lon="-118.3938695">
  <ele>-3.38</ele>
  <time>2026-09-02T22:12:21Z</time>
  <course>6.06</course>
  <speed>0.01</speed>
  <fix>3d</fix>
</trkpt>
<trkpt lat="33.810315" lon="-118.3938693">
  <ele>-3.558</ele>
  <time>2026-09-02T22:12:21Z</time>
  <course>337.43</course>
  <speed>0.022360679774997897</speed>
  <fix>3d</fix>
</trkpt>
<trkpt lat="33.810315" lon="-118.3938693">
  <ele>-3.541</ele>
  <time>2026-09-02T22:12:21Z</time>
  <course>337.96</course>
  <speed>0.022360679774997897</speed>
  <fix>3d</fix>
</trkpt>
<trkpt lat="33.8103149" lon="-118.3938695">
  <ele>-3.38</ele>
  <time>2026-09-02T22:12:21Z</time>
  <course>6.06</course>
  <speed>0.01</speed>
  <fix>3d</fix>
</trkpt>
<trkpt lat="33.810315" lon="-118.3938693">
  <ele>-3.539</ele>
  <time>2026-09-02T22:12:21Z</time>
  <course>338.03</course>
  <speed>0.022360679774997897</speed>
  <fix>3d</fix>
</trkpt>
<trkpt lat="33.810315" lon="-118.3938693">
  <ele>-3.53</ele>
  <time>2026-09-02T22:12:21Z</time>
  <course>338.6</course>
  <speed>0.022360679774997897</speed>
  <fix>3d</fix>
</trkpt>
<trkpt lat="33.810315" lon="-118.3938695">
  <ele>-3.34</ele>
  <time>2026-09-02T22:12:21Z</time>
  <course>7.17</course>
  <speed>0.01</speed>
  <fix>3d</fix>
</trkpt>
<trkpt lat="33.810315" lon="-118.3938693">
  <ele>-3.53</ele>
  <time>2026-09-02T22:12:21Z</time>
  <course>338.61</course>
  <speed>0.022360679774997897</speed>
  <fix>3d</fix>
</trkpt>
<trkpt lat="33.810315" lon="-118.3938693">
  <ele>-3.516</ele>
  <time>2026-09-02T22:12:21Z</time>
  <course>339.22</course>
  <speed>0.022360679774997897</speed>
  <fix>3d</fix>
</trkpt>
<trkpt lat="33.810315" lon="-118.3938695">
  <ele>-3.34</ele>
  <time>2026-09-02T22:12:21Z</time>
  <course>7.17</course>
  <speed>0.01</speed>
  <fix>3d</fix>
</trkpt>
<trkpt lat="33.810315" lon="-118.3938693">
  <ele>-3.516</ele>
  <time>2026-09-02T22:12:21Z</time>
  <course>339.24</course>
  <speed>0.022360679774997897</speed>
  <fix>3d</fix>
</trkpt>
<trkpt lat="33.810315" lon="-118.3938693">
  <ele>-3.504</ele>
  <time>2026-09-02T22:12:21Z</time>
  <course>339.86</course>
  <speed>0.022360679774997897</speed>
  <fix>3d</fix>
</trkpt>
<trkpt lat="33.810315" lon="-118.3938695">
  <ele>-3.3</ele>
  <time>2026-09-02T22:12:21Z</time>
  <course>8.28</course>
  <speed>0.01</speed>
  <fix>3d</fix>
</trkpt>
<trkpt lat="33.810315" lon="-118.3938693">
  <ele>-3.502</ele>
  <time>2026-09-02T22:12:21Z</time>
  <course>339.98</course>
  <speed>0.022360679774997897</speed>
  <fix>3d</fix>
</trkpt>
<trkpt lat="33.810315" lon="-118.3938693">
  <ele>-3.495</ele>
  <time>2026-09-02T22:12:21Z</time>
  <course>340.49</course>
  <speed>0.022360679774997897</speed>
  <fix>3d</fix>
</trkpt>
<trkpt lat="33.810315" lon="-118.3938695">
  <ele>-3.3</ele>
  <time>2026-09-02T22:12:21Z</time>
  <course>8.28</course>
  <speed>0.01</speed>
  <fix>3d</fix>
</trkpt>
<trkpt lat="33.810315" lon="-118.3938693">
  <ele>-3.493</ele>
  <time>2026-09-02T22:12:21Z</time>
  <course>340.59</course>
  <speed>0.022360679774997897</speed>
  <fix>3d</fix>
</trkpt>
<trkpt lat="33.810315" lon="-118.3938693">
  <ele>-3.477</ele>
  <time>2026-09-02T22:12:21Z</time>
  <course>341.12</course>
  <speed>0.022360679774997897</speed>
  <fix>3d</fix>
</trkpt>
<trkpt lat="33.810315" lon="-118.3938695">
  <ele>-3.26</ele>
  <time>2026-09-02T22:12:21Z</time>
  <course>9.4</course>
  <speed>0.01</speed>
  <fix>3d</fix>
</trkpt>
<trkpt lat="33.810315" lon="-118.3938693">
  <ele>-3.474</ele>
  <time>2026-09-02T22:12:21Z</time>
  <course>341.21</course>
  <speed>0.022360679774997897</speed>
  <fix>3d</fix>
</trkpt>
<trkpt lat="33.810315" lon="-118.3938693">
  <ele>-3.457</ele>
  <time>2026-09-02T22:12:21Z</time>
  <course>341.75</course>
  <speed>0.022360679774997897</speed>
  <fix>3d</fix>
</trkpt>
<trkpt lat="33.810315" lon="-118.3938695">
  <ele>-3.26</ele>
  <time>2026-09-02T22:12:21Z</time>
  <course>9.4</course>
  <speed>0.01</speed>
  <fix>3d</fix>
</trkpt>
<trkpt lat="33.810315" lon="-118.3938693">
  <ele>-3.455</ele>
  <time>2026-09-02T22:12:21Z</time>
  <course>341.81</course>
  <speed>0.022360679774997897</speed>
  <fix>3d</fix>
</trkpt>
<trkpt lat="33.8103151" lon="-118.3938693">
  <ele>-3.433</ele>
  <time>2026-09-02T22:12:21Z</time>
  <course>342.38</course>
  <speed>0.022360679774997897</speed>
  <fix>3d</fix>
</trkpt>
<trkpt lat="33.810315" lon="-118.3938695">
  <ele>-3.22</ele>
  <time>2026-09-02T22:12:21Z</time>
  <course>10.56</course>
  <speed>0.01</speed>
  <fix>3d</fix>
</trkpt>
<trkpt lat="33.8103151" lon="-118.3938693">
  <ele>-3.433</ele>
  <time>2026-09-02T22:12:21Z</time>
  <course>342.4</course>
  <speed>0.022360679774997897</speed>
  <fix>3d</fix>
</trkpt>
<trkpt lat="33.8103151" lon="-118.3938693">
  <ele>-3.417</ele>
  <time>2026-09-02T22:12:21Z</time>
  <course>343.01</course>
  <speed>0.022360679774997897</speed>
  <fix>3d</fix>
</trkpt>
<trkpt lat="33.810315" lon="-118.3938695">
  <ele>-3.22</ele>
  <time>2026-09-02T22:12:21Z</time>
  <course>10.56</course>
  <speed>0.01</speed>
  <fix>3d</fix>
</trkpt>
<trkpt lat="33.8103151" lon="-118.3938693">
  <ele>-3.415</ele>
  <time>2026-09-02T22:12:21Z</time>
  <course>343.11</course>
  <speed>0.022360679774997897</speed>
  <fix>3d</fix>
</trkpt>
<trkpt lat="33.8103151" lon="-118.3938692">
  <ele>-3.404</ele>
  <time>2026-09-02T22:12:21Z</time>
  <course>343.65</course>
  <speed>0.022360679774997897</speed>
  <fix>3d</fix>
</trkpt>
<trkpt lat="33.8103151" lon="-118.3938695">
  <ele>-3.18</ele>
  <time>2026-09-02T22:12:21Z</time>
  <course>11.74</course>
  <speed>0.01</speed>
  <fix>3d</fix>
</trkpt>
<trkpt lat="33.8103151" lon="-118.3938693">
  <ele>-3.403</ele>
  <time>2026-09-02T22:12:21Z</time>
  <course>343.72</course>
  <speed>0.022360679774997897</speed>
  <fix>3d</fix>
</trkpt>
<trkpt lat="33.8103151" lon="-118.3938692">
  <ele>-3.393</ele>
  <time>2026-09-02T22:12:21Z</time>
  <course>344.28</course>
  <speed>0.022360679774997897</speed>
  <fix>3d</fix>
</trkpt>
<trkpt lat="33.8103151" lon="-118.3938695">
  <ele>-3.18</ele>
  <time>2026-09-02T22:12:21Z</time>
  <course>11.74</course>
  <speed>0.01</speed>
  <fix>3d</fix>
</trkpt>
<trkpt lat="33.8103151" lon="-118.3938692">
  <ele>-3.391</ele>
  <time>2026-09-02T22:12:21Z</time>
  <course>344.33</course>
  <speed>0.022360679774997897</speed>
  <fix>3d</fix>
</trkpt>
<trkpt lat="33.8103151" lon="-118.3938692">
  <ele>-3.373</ele>
  <time>2026-09-02T22:12:21Z</time>
  <course>344.91</course>
  <speed>0.022360679774997897</speed>
  <fix>3d</fix>
</trkpt>
<trkpt lat="33.8103152" lon="-118.3938695">
  <ele>-3.15</ele>
  <time>2026-09-02T22:12:21Z</time>
  <course>12.89</course>
  <speed>0.01</speed>
  <fix>3d</fix>
</trkpt>
<trkpt lat="33.8103151" lon="-118.3938692">
  <ele>-3.373</ele>
  <time>2026-09-02T22:12:21Z</time>
  <course>344.93</course>
  <speed>0.022360679774997897</speed>
  <fix>3d</fix>
</trkpt>
<trkpt lat="33.8103151" lon="-118.3938692">
  <ele>-3.348</ele>
  <time>2026-09-02T22:12:21Z</time>
  <course>345.54</course>
  <speed>0.022360679774997897</speed>
  <fix>3d</fix>
</trkpt>
<trkpt lat="33.8103152" lon="-118.3938695">
  <ele>-3.15</ele>
  <time>2026-09-02T22:12:21Z</time>
  <course>12.89</course>
  <speed>0.01</speed>
  <fix>3d</fix>
</trkpt>
<trkpt lat="33.8103151" lon="-118.3938692">
  <ele>-3.344</ele>
  <time>2026-09-02T22:12:21Z</time>
  <course>345.62</course>
  <speed>0.022360679774997897</speed>
  <fix>3d</fix>
</trkpt>
<trkpt lat="33.8103151" lon="-118.3938692">
  <ele>-3.315</ele>
  <time>2026-09-02T22:12:21Z</time>
  <course>346.18</course>
  <speed>0.022360679774997897</speed>
  <fix>3d</fix>
</trkpt>
<trkpt lat="33.8103152" lon="-118.3938695">
  <ele>-3.11</ele>
  <time>2026-09-02T22:12:21Z</time>
  <course>14.01</course>
  <speed>0.01</speed>
  <fix>3d</fix>
</trkpt>
<trkpt lat="33.8103151" lon="-118.3938692">
  <ele>-3.313</ele>
  <time>2026-09-02T22:12:21Z</time>
  <course>346.23</course>
  <speed>0.022360679774997897</speed>
  <fix>3d</fix>
</trkpt>
<trkpt lat="33.8103151" lon="-118.3938692">
  <ele>-3.284</ele>
  <time>2026-09-02T22:12:21Z</time>
  <course>346.81</course>
  <speed>0.022360679774997897</speed>
  <fix>3d</fix>
</trkpt>
<trkpt lat="33.8103152" lon="-118.3938695">
  <ele>-3.11</ele>
  <time>2026-09-02T22:12:21Z</time>
  <course>14.01</course>
  <speed>0.01</speed>
  <fix>3d</fix>
</trkpt>
<trkpt lat="33.8103151" lon="-118.3938692">
  <ele>-3.283</ele>
  <time>2026-09-02T22:12:21Z</time>
  <course>346.85</course>
  <speed>0.022360679774997897</speed>
  <fix>3d</fix>
</trkpt>
<trkpt lat="33.8103151" lon="-118.3938692">
  <ele>-3.258</ele>
  <time>2026-09-02T22:12:21Z</time>
  <course>347.45</course>
  <speed>0.022360679774997897</speed>
  <fix>3d</fix>
</trkpt>
<trkpt lat="33.8103152" lon="-118.3938695">
  <ele>-3.07</ele>
  <time>2026-09-02T22:12:21Z</time>
  <course>15.15</course>
  <speed>0.01</speed>
  <fix>3d</fix>
</trkpt>
<trkpt lat="33.8103151" lon="-118.3938692">
  <ele>-3.256</ele>
  <time>2026-09-02T22:12:21Z</time>
  <course>347.5</course>
  <speed>0.022360679774997897</speed>
  <fix>3d</fix>
</trkpt>
<trkpt lat="33.8103152" lon="-118.3938692">
  <ele>-3.229</ele>
  <time>2026-09-02T22:12:21Z</time>
  <course>348.08</course>
  <speed>0.022360679774997897</speed>
  <fix>3d</fix>
</trkpt>
<trkpt lat="33.8103152" lon="-118.3938695">
  <ele>-3.07</ele>
  <time>2026-09-02T22:12:21Z</time>
  <course>15.15</course>
  <speed>0.01</speed>
  <fix>3d</fix>
</trkpt>
<trkpt lat="33.8103152" lon="-118.3938692">
  <ele>-3.227</ele>
  <time>2026-09-02T22:12:21Z</time>
  <course>348.13</course>
  <speed>0.02</speed>
  <fix>3d</fix>
</trkpt>
<trkpt lat="33.8103152" lon="-118.3938692">
  <ele>-3.202</ele>
  <time>2026-09-02T22:12:21Z</time>
  <course>348.72</course>
  <speed>0.02</speed>
  <fix>3d</fix>
</trkpt>
<trkpt lat="33.8103153" lon="-118.3938695">
  <ele>-3.03</ele>
  <time>2026-09-02T22:12:21Z</time>
  <course>16.3</course>
  <speed>0.01</speed>
  <fix>3d</fix>
</trkpt>
<trkpt lat="33.8103152" lon="-118.3938692">
  <ele>-3.201</ele>
  <time>2026-09-02T22:12:21Z</time>
  <course>348.73</course>
  <speed>0.02</speed>
  <fix>3d</fix>
</trkpt>
<trkpt lat="33.8103152" lon="-118.3938692">
  <ele>-3.176</ele>
  <time>2026-09-02T22:12:21Z</time>
  <course>349.35</course>
  <speed>0.02</speed>
  <fix>3d</fix>
</trkpt>
<trkpt lat="33.8103153" lon="-118.3938695">
  <ele>-3.03</ele>
  <time>2026-09-02T22:12:21Z</time>
  <course>16.3</course>
  <speed>0.01</speed>
  <fix>3d</fix>
</trkpt>
<trkpt lat="33.8103152" lon="-118.3938692">
  <ele>-3.176</ele>
  <time>2026-09-02T22:12:21Z</time>
  <course>349.37</course>
  <speed>0.02</speed>
  <fix>3d</fix>
</trkpt>
<trkpt lat="33.8103152" lon="-118.3938692">
  <ele>-3.15</ele>
  <time>2026-09-02T22:12:21Z</time>
  <course>349.99</course>
  <speed>0.02</speed>
  <fix>3d</fix>
</trkpt>
<trkpt lat="33.8103153" lon="-118.3938695">
  <ele>-2.99</ele>
  <time>2026-09-02T22:12:21Z</time>
  <course>17.51</course>
  <speed>0.01</speed>
  <fix>3d</fix>
</trkpt>
<trkpt lat="33.8103152" lon="-118.3938692">
  <ele>-3.145</ele>
  <time>2026-09-02T22:12:21Z</time>
  <course>350.1</course>
  <speed>0.02</speed>
  <fix>3d</fix>
</trkpt>
<trkpt lat="33.8103152" lon="-118.3938692">
  <ele>-3.123</ele>
  <time>2026-09-02T22:12:22Z</time>
  <course>350.62</course>
  <speed>0.02</speed>
  <fix>3d</fix>
</trkpt>
<trkpt lat="33.8103153" lon="-118.3938695">
  <ele>-2.99</ele>
  <time>2026-09-02T22:12:22Z</time>
  <course>17.51</course>
  <speed>0.01</speed>
  <fix>3d</fix>
</trkpt>
<trkpt lat="33.8103152" lon="-118.3938692">
  <ele>-3.12</ele>
  <time>2026-09-02T22:12:22Z</time>
  <course>350.7</course>
  <speed>0.02</speed>
  <fix>3d</fix>
</trkpt>
<trkpt lat="33.8103152" lon="-118.3938692">
  <ele>-3.101</ele>
  <time>2026-09-02T22:12:22Z</time>
  <course>351.26</course>
  <speed>0.02</speed>
  <fix>3d</fix>
</trkpt>
<trkpt lat="33.8103153" lon="-118.3938695">
  <ele>-2.95</ele>
  <time>2026-09-02T22:12:22Z</time>
  <course>18.68</course>
  <speed>0.01</speed>
  <fix>3d</fix>
</trkpt>
<trkpt lat="33.8103152" lon="-118.3938692">
  <ele>-3.099</ele>
  <time>2026-09-02T22:12:22Z</time>
  <course>351.32</course>
  <speed>0.02</speed>
  <fix>3d</fix>
</trkpt>
<trkpt lat="33.8103152" lon="-118.3938692">
  <ele>-3.082</ele>
  <time>2026-09-02T22:12:22Z</time>
  <course>351.89</course>
  <speed>0.02</speed>
  <fix>3d</fix>
</trkpt>
<trkpt lat="33.8103153" lon="-118.3938695">
  <ele>-2.95</ele>
  <time>2026-09-02T22:12:22Z</time>
  <course>18.68</course>
  <speed>0.01</speed>
  <fix>3d</fix>
</trkpt>
<trkpt lat="33.8103152" lon="-118.3938692">
  <ele>-3.081</ele>
  <time>2026-09-02T22:12:22Z</time>
  <course>351.92</course>
  <speed>0.02</speed>
  <fix>3d</fix>
</trkpt>
<trkpt lat="33.8103153" lon="-118.3938692">
  <ele>-3.069</ele>
  <time>2026-09-02T22:12:22Z</time>
  <course>352.53</course>
  <speed>0.02</speed>
  <fix>3d</fix>
</trkpt>
<trkpt lat="33.8103153" lon="-118.3938695">
  <ele>-2.91</ele>
  <time>2026-09-02T22:12:22Z</time>
  <course>19.81</course>
  <speed>0.01</speed>
  <fix>3d</fix>
</trkpt>
<trkpt lat="33.8103153" lon="-118.3938692">
  <ele>-3.067</ele>
  <time>2026-09-02T22:12:22Z</time>
  <course>352.69</course>
  <speed>0.02</speed>
  <fix>3d</fix>
</trkpt>
<trkpt lat="33.8103153" lon="-118.3938692">
  <ele>-3.056</ele>
  <time>2026-09-02T22:12:22Z</time>
  <course>353.17</course>
  <speed>0.02</speed>
  <fix>3d</fix>
</trkpt>
<trkpt lat="33.8103153" lon="-118.3938695">
  <ele>-2.91</ele>
  <time>2026-09-02T22:12:22Z</time>
  <course>19.81</course>
  <speed>0.01</speed>
  <fix>3d</fix>
</trkpt>
<trkpt lat="33.8103153" lon="-118.3938692">
  <ele>-3.052</ele>
  <time>2026-09-02T22:12:22Z</time>
  <course>353.29</course>
  <speed>0.02</speed>
  <fix>3d</fix>
</trkpt>
<trkpt lat="33.8103153" lon="-118.3938692">
  <ele>-3.043</ele>
  <time>2026-09-02T22:12:22Z</time>
  <course>353.8</course>
  <speed>0.02</speed>
  <fix>3d</fix>
</trkpt>
<trkpt lat="33.8103154" lon="-118.3938695">
  <ele>-2.87</ele>
  <time>2026-09-02T22:12:22Z</time>
  <course>20.95</course>
  <speed>0.01</speed>
  <fix>3d</fix>
</trkpt>
<trkpt lat="33.8103153" lon="-118.3938692">
  <ele>-3.041</ele>
  <time>2026-09-02T22:12:22Z</time>
  <course>353.92</course>
  <speed>0.02</speed>
  <fix>3d</fix>
</trkpt>
<trkpt lat="33.8103153" lon="-118.3938692">
  <ele>-3.031</ele>
  <time>2026-09-02T22:12:22Z</time>
  <course>354.44</course>
  <speed>0.02</speed>
  <fix>3d</fix>
</trkpt>
<trkpt lat="33.8103154" lon="-118.3938695">
  <ele>-2.87</ele>
  <time>2026-09-02T22:12:22Z</time>
  <course>20.95</course>
  <speed>0.01</speed>
  <fix>3d</fix>
</trkpt>
<trkpt lat="33.8103153" lon="-118.3938692">
  <ele>-3.029</ele>
  <time>2026-09-02T22:12:22Z</time>
  <course>354.49</course>
  <speed>0.02</speed>
  <fix>3d</fix>
</trkpt>
<trkpt lat="33.8103153" lon="-118.3938692">
  <ele>-3.012</ele>
  <time>2026-09-02T22:12:22Z</time>
  <course>355.08</course>
  <speed>0.02</speed>
  <fix>3d</fix>
</trkpt>
<trkpt lat="33.8103154" lon="-118.3938695">
  <ele>-2.83</ele>
  <time>2026-09-02T22:12:22Z</time>
  <course>22.11</course>
  <speed>0.01</speed>
  <fix>3d</fix>
</trkpt>
<trkpt lat="33.8103153" lon="-118.3938692">
  <ele>-3.009</ele>
  <time>2026-09-02T22:12:22Z</time>
  <course>355.17</course>
  <speed>0.02</speed>
  <fix>3d</fix>
</trkpt>
<trkpt lat="33.8103153" lon="-118.3938692">
  <ele>-2.985</ele>
  <time>2026-09-02T22:12:22Z</time>
  <course>355.71</course>
  <speed>0.02</speed>
  <fix>3d</fix>
</trkpt>
<trkpt lat="33.8103154" lon="-118.3938695">
  <ele>-2.83</ele>
  <time>2026-09-02T22:12:22Z</time>
  <course>22.11</course>
  <speed>0.01</speed>
  <fix>3d</fix>
</trkpt>
<trkpt lat="33.8103153" lon="-118.3938692">
  <ele>-2.985</ele>
  <time>2026-09-02T22:12:22Z</time>
  <course>355.73</course>
  <speed>0.02</speed>
  <fix>3d</fix>
</trkpt>
<trkpt lat="33.8103153" lon="-118.3938692">
  <ele>-2.963</ele>
  <time>2026-09-02T22:12:22Z</time>
  <course>356.35</course>
  <speed>0.02</speed>
  <fix>3d</fix>
</trkpt>
<trkpt lat="33.8103154" lon="-118.3938695">
  <ele>-2.79</ele>
  <time>2026-09-02T22:12:22Z</time>
  <course>23.31</course>
  <speed>0.01</speed>
  <fix>3d</fix>
</trkpt>
<trkpt lat="33.8103153" lon="-118.3938692">
  <ele>-2.96</ele>
  <time>2026-09-02T22:12:22Z</time>
  <course>356.45</course>
  <speed>0.02</speed>
  <fix>3d</fix>
</trkpt>
<trkpt lat="33.8103153" lon="-118.3938692">
  <ele>-2.943</ele>
  <time>2026-09-02T22:12:22Z</time>
  <course>356.99</course>
  <speed>0.02</speed>
  <fix>3d</fix>
</trkpt>
<trkpt lat="33.8103154" lon="-118.3938695">
  <ele>-2.79</ele>
  <time>2026-09-02T22:12:22Z</time>
  <course>23.31</course>
  <speed>0.01</speed>
  <fix>3d</fix>
</trkpt>
<trkpt lat="33.8103153" lon="-118.3938692">
  <ele>-2.941</ele>
  <time>2026-09-02T22:12:22Z</time>
  <course>357.05</course>
  <speed>0.02</speed>
  <fix>3d</fix>
</trkpt>
<trkpt lat="33.8103154" lon="-118.3938692">
  <ele>-2.917</ele>
  <time>2026-09-02T22:12:22Z</time>
  <course>357.62</course>
  <speed>0.02</speed>
  <fix>3d</fix>
</trkpt>
<trkpt lat="33.8103154" lon="-118.3938695">
  <ele>-2.75</ele>
  <time>2026-09-02T22:12:22Z</time>
  <course>24.5</course>
  <speed>0.01</speed>
  <fix>3d</fix>
</trkpt>
<trkpt lat="33.8103154" lon="-118.3938692">
  <ele>-2.915</ele>
  <time>2026-09-02T22:12:22Z</time>
  <course>357.67</course>
  <speed>0.02</speed>
  <fix>3d</fix>
</trkpt>
<trkpt lat="33.8103154" lon="-118.3938692">
  <ele>-2.885</ele>
  <time>2026-09-02T22:12:22Z</time>
  <course>358.26</course>
  <speed>0.02</speed>
  <fix>3d</fix>
</trkpt>
<trkpt lat="33.8103154" lon="-118.3938695">
  <ele>-2.75</ele>
  <time>2026-09-02T22:12:22Z</time>
  <course>24.5</course>
  <speed>0.01</speed>
  <fix>3d</fix>
</trkpt>
<trkpt lat="33.8103154" lon="-118.3938692">
  <ele>-2.884</ele>
  <time>2026-09-02T22:12:22Z</time>
  <course>358.29</course>
  <speed>0.02</speed>
  <fix>3d</fix>
</trkpt>
<trkpt lat="33.8103154" lon="-118.3938692">
  <ele>-2.854</ele>
  <time>2026-09-02T22:12:22Z</time>
  <course>358.9</course>
  <speed>0.02</speed>
  <fix>3d</fix>
</trkpt>
<trkpt lat="33.8103155" lon="-118.3938695">
  <ele>-2.71</ele>
  <time>2026-09-02T22:12:22Z</time>
  <course>25.66</course>
  <speed>0.01</speed>
  <fix>3d</fix>
</trkpt>
<trkpt lat="33.8103154" lon="-118.3938692">
  <ele>-2.847</ele>
  <time>2026-09-02T22:12:22Z</time>
  <course>359.06</course>
  <speed>0.02</speed>
  <fix>3d</fix>
</trkpt>
<trkpt lat="33.8103154" lon="-118.3938692">
  <ele>-2.836</ele>
  <time>2026-09-02T22:12:22Z</time>
  <course>359.55</course>
  <speed>0.02</speed>
  <fix>3d</fix>
</trkpt>
<trkpt lat="33.8103155" lon="-118.3938695">
  <ele>-2.71</ele>
  <time>2026-09-02T22:12:22Z</time>
  <course>25.66</course>
  <speed>0.01</speed>
  <fix>3d</fix>
</trkpt>
<trkpt lat="33.8103154" lon="-118.3938692">
  <ele>-2.832</ele>
  <time>2026-09-02T22:12:22Z</time>
  <course>359.67</course>
  <speed>0.02</speed>
  <fix>3d</fix>
</trkpt>
<trkpt lat="33.8103154" lon="-118.3938692">
  <ele>-2.817</ele>
  <time>2026-09-02T22:12:22Z</time>
  <course>0.17</course>
  <speed>0.02</speed>
  <fix>3d</fix>
</trkpt>
<trkpt lat="33.8103155" lon="-118.3938695">
  <ele>-2.67</ele>
  <time>2026-09-02T22:12:22Z</time>
  <course>26.81</course>
  <speed>0.01</speed>
  <fix>3d</fix>
</trkpt>
<trkpt lat="33.8103154" lon="-118.3938692">
  <ele>-2.813</ele>
  <time>2026-09-02T22:12:22Z</time>
  <course>0.27</course>
  <speed>0.02</speed>
  <fix>3d</fix>
</trkpt>
<trkpt lat="33.8103154" lon="-118.3938692">
  <ele>-2.79</ele>
  <time>2026-09-02T22:12:22Z</time>
  <course>0.81</course>
  <speed>0.02</speed>
  <fix>3d</fix>
</trkpt>
<trkpt lat="33.8103155" lon="-118.3938695">
  <ele>-2.67</ele>
  <time>2026-09-02T22:12:22Z</time>
  <course>26.81</course>
  <speed>0.01</speed>
  <fix>3d</fix>
</trkpt>
<trkpt lat="33.8103154" lon="-118.3938692">
  <ele>-2.786</ele>
  <time>2026-09-02T22:12:22Z</time>
  <course>0.88</course>
  <speed>0.02</speed>
  <fix>3d</fix>
</trkpt>
<trkpt lat="33.8103154" lon="-118.3938692">
  <ele>-2.763</ele>
  <time>2026-09-02T22:12:22Z</time>
  <course>1.45</course>
  <speed>0.02</speed>
  <fix>3d</fix>
</trkpt>
<trkpt lat="33.8103155" lon="-118.3938695">
  <ele>-2.63</ele>
  <time>2026-09-02T22:12:22Z</time>
  <course>27.97</course>
  <speed>0.01</speed>
  <fix>3d</fix>
</trkpt>
<trkpt lat="33.8103154" lon="-118.3938692">
  <ele>-2.761</ele>
  <time>2026-09-02T22:12:22Z</time>
  <course>1.5</course>
  <speed>0.02</speed>
  <fix>3d</fix>
</trkpt>
<trkpt lat="33.8103154" lon="-118.3938692">
  <ele>-2.733</ele>
  <time>2026-09-02T22:12:22Z</time>
  <course>2.09</course>
  <speed>0.02</speed>
  <fix>3d</fix>
</trkpt>
<trkpt lat="33.8103155" lon="-118.3938695">
  <ele>-2.63</ele>
  <time>2026-09-02T22:12:22Z</time>
  <course>27.97</course>
  <speed>0.01</speed>
  <fix>3d</fix>
</trkpt>
<trkpt lat="33.8103154" lon="-118.3938692">
  <ele>-2.732</ele>
  <time>2026-09-02T22:12:22Z</time>
  <course>2.11</course>
  <speed>0.02</speed>
  <fix>3d</fix>
</trkpt>
<trkpt lat="33.8103154" lon="-118.3938692">
  <ele>-2.708</ele>
  <time>2026-09-02T22:12:22Z</time>
  <course>2.73</course>
  <speed>0.02</speed>
  <fix>3d</fix>
</trkpt>
<trkpt lat="33.8103155" lon="-118.3938695">
  <ele>-2.59</ele>
  <time>2026-09-02T22:12:22Z</time>
  <course>29.17</course>
  <speed>0.01</speed>
  <fix>3d</fix>
</trkpt>
<trkpt lat="33.8103154" lon="-118.3938692">
  <ele>-2.707</ele>
  <time>2026-09-02T22:12:22Z</time>
  <course>2.76</course>
  <speed>0.02</speed>
  <fix>3d</fix>
</trkpt>
<trkpt lat="33.8103154" lon="-118.3938692">
  <ele>-2.684</ele>
  <time>2026-09-02T22:12:22Z</time>
  <course>3.37</course>
  <speed>0.02</speed>
  <fix>3d</fix>
</trkpt>
<trkpt lat="33.8103155" lon="-118.3938695">
  <ele>-2.59</ele>
  <time>2026-09-02T22:12:22Z</time>
  <course>29.17</course>
  <speed>0.01</speed>
  <fix>3d</fix>
</trkpt>
<trkpt lat="33.8103154" lon="-118.3938692">
  <ele>-2.683</ele>
  <time>2026-09-02T22:12:22Z</time>
  <course>3.39</course>
  <speed>0.02</speed>
  <fix>3d</fix>
</trkpt>
<trkpt lat="33.8103155" lon="-118.3938692">
  <ele>-2.664</ele>
  <time>2026-09-02T22:12:22Z</time>
  <course>4.01</course>
  <speed>0.02</speed>
  <fix>3d</fix>
</trkpt>
<trkpt lat="33.8103155" lon="-118.3938695">
  <ele>-2.55</ele>
  <time>2026-09-02T22:12:22Z</time>
  <course>30.38</course>
  <speed>0.01</speed>
  <fix>3d</fix>
</trkpt>
<trkpt lat="33.8103155" lon="-118.3938692">
  <ele>-2.663</ele>
  <time>2026-09-02T22:12:22Z</time>
  <course>4.03</course>
  <speed>0.02</speed>
  <fix>3d</fix>
</trkpt>
<trkpt lat="33.8103155" lon="-118.3938692">
  <ele>-2.655</ele>
  <time>2026-09-02T22:12:22Z</time>
  <course>4.65</course>
  <speed>0.02</speed>
  <fix>3d</fix>
</trkpt>
<trkpt lat="33.8103155" lon="-118.3938695">
  <ele>-2.55</ele>
  <time>2026-09-02T22:12:22Z</time>
  <course>30.38</course>
  <speed>0.01</speed>
  <fix>3d</fix>
</trkpt>
<trkpt lat="33.8103155" lon="-118.3938692">
  <ele>-2.654</ele>
  <time>2026-09-02T22:12:22Z</time>
  <course>4.79</course>
  <speed>0.02</speed>
  <fix>3d</fix>
</trkpt>
<trkpt lat="33.8103155" lon="-118.3938692">
  <ele>-2.646</ele>
  <time>2026-09-02T22:12:22Z</time>
  <course>5.29</course>
  <speed>0.02</speed>
  <fix>3d</fix>
</trkpt>
<trkpt lat="33.8103155" lon="-118.3938695">
  <ele>-2.51</ele>
  <time>2026-09-02T22:12:22Z</time>
  <course>31.56</course>
  <speed>0.01</speed>
  <fix>3d</fix>
</trkpt>
<trkpt lat="33.8103155" lon="-118.3938692">
  <ele>-2.643</ele>
  <time>2026-09-02T22:12:22Z</time>
  <course>5.42</course>
  <speed>0.02</speed>
  <fix>3d</fix>
</trkpt>
<trkpt lat="33.8103155" lon="-118.3938692">
  <ele>-2.637</ele>
  <time>2026-09-02T22:12:22Z</time>
  <course>5.94</course>
  <speed>0.02</speed>
  <fix>3d</fix>
</trkpt>
<trkpt lat="33.8103155" lon="-118.3938695">
  <ele>-2.51</ele>
  <time>2026-09-02T22:12:22Z</time>
  <course>31.56</course>
  <speed>0.01</speed>
  <fix>3d</fix>
</trkpt>
<trkpt lat="33.8103155" lon="-118.3938692">
  <ele>-2.635</ele>
  <time>2026-09-02T22:12:22Z</time>
  <course>6.04</course>
  <speed>0.02</speed>
  <fix>3d</fix>
</trkpt>
<trkpt lat="33.8103155" lon="-118.3938692">
  <ele>-2.63</ele>
  <time>2026-09-02T22:12:22Z</time>
  <course>6.58</course>
  <speed>0.02</speed>
  <fix>3d</fix>
</trkpt>
<trkpt lat="33.8103155" lon="-118.3938695">
  <ele>-2.47</ele>
  <time>2026-09-02T22:12:22Z</time>
  <course>32.71</course>
  <speed>0.01</speed>
  <fix>3d</fix>
</trkpt>
<trkpt lat="33.8103155" lon="-118.3938692">
  <ele>-2.629</ele>
  <time>2026-09-02T22:12:22Z</time>
  <course>6.65</course>
  <speed>0.02</speed>
  <fix>3d</fix>
</trkpt>
<trkpt lat="33.8103155" lon="-118.3938692">
  <ele>-2.629</ele>
  <time>2026-09-02T22:12:22Z</time>
  <course>7.22</course>
  <speed>0.02</speed>
  <fix>3d</fix>
</trkpt>
<trkpt lat="33.8103155" lon="-118.3938695">
  <ele>-2.47</ele>
  <time>2026-09-02T22:12:22Z</time>
  <course>32.71</course>
  <speed>0.01</speed>
  <fix>3d</fix>
</trkpt>
<trkpt lat="33.8103155" lon="-118.3938692">
  <ele>-2.627</ele>
  <time>2026-09-02T22:12:22Z</time>
  <course>7.27</course>
  <speed>0.02</speed>
  <fix>3d</fix>
</trkpt>
<trkpt lat="33.8103155" lon="-118.3938692">
  <ele>-2.62</ele>
  <time>2026-09-02T22:12:22Z</time>
  <course>7.86</course>
  <speed>0.02</speed>
  <fix>3d</fix>
</trkpt>
<trkpt lat="33.8103156" lon="-118.3938694">
  <ele>-2.43</ele>
  <time>2026-09-02T22:12:22Z</time>
  <course>33.87</course>
  <speed>0.01</speed>
  <fix>3d</fix>
</trkpt>
<trkpt lat="33.8103155" lon="-118.3938692">
  <ele>-2.619</ele>
  <time>2026-09-02T22:12:22Z</time>
  <course>7.89</course>
  <speed>0.02</speed>
  <fix>3d</fix>
</trkpt>
<trkpt lat="33.8103155" lon="-118.3938692">
  <ele>-2.608</ele>
  <time>2026-09-02T22:12:22Z</time>
  <course>8.5</course>
  <speed>0.02</speed>
  <fix>3d</fix>
</trkpt>
<trkpt lat="33.8103156" lon="-118.3938694">
  <ele>-2.43</ele>
  <time>2026-09-02T22:12:22Z</time>
  <course>33.87</course>
  <speed>0.01</speed>
  <fix>3d</fix>
</trkpt>
<trkpt lat="33.8103155" lon="-118.3938692">
  <ele>-2.605</ele>
  <time>2026-09-02T22:12:22Z</time>
  <course>8.66</course>
  <speed>0.02</speed>
  <fix>3d</fix>
</trkpt>
<trkpt lat="33.8103155" lon="-118.3938692">
  <ele>-2.59</ele>
  <time>2026-09-02T22:12:22Z</time>
  <course>9.14</course>
  <speed>0.02</speed>
  <fix>3d</fix>
</trkpt>
<trkpt lat="33.8103156" lon="-118.3938694">
  <ele>-2.38</ele>
  <time>2026-09-02T22:12:22Z</time>
  <course>35.06</course>
  <speed>0.01</speed>
  <fix>3d</fix>
</trkpt>
<trkpt lat="33.8103155" lon="-118.3938692">
  <ele>-2.586</ele>
  <time>2026-09-02T22:12:22Z</time>
  <course>9.27</course>
  <speed>0.02</speed>
  <fix>3d</fix>
</trkpt>
<trkpt lat="33.8103155" lon="-118.3938692">
  <ele>-2.571</ele>
  <time>2026-09-02T22:12:22Z</time>
  <course>9.79</course>
  <speed>0.02</speed>
  <fix>3d</fix>
</trkpt>
<trkpt lat="33.8103156" lon="-118.3938694">
  <ele>-2.38</ele>
  <time>2026-09-02T22:12:22Z</time>
  <course>35.06</course>
  <speed>0.01</speed>
  <fix>3d</fix>
</trkpt>
<trkpt lat="33.8103155" lon="-118.3938692">
  <ele>-2.571</ele>
  <time>2026-09-02T22:12:22Z</time>
  <course>9.8</course>
  <speed>0.02</speed>
  <fix>3d</fix>
</trkpt>
<trkpt lat="33.8103155" lon="-118.3938692">
  <ele>-2.553</ele>
  <time>2026-09-02T22:12:22Z</time>
  <course>10.43</course>
  <speed>0.02</speed>
  <fix>3d</fix>
</trkpt>
<trkpt lat="33.8103156" lon="-118.3938694">
  <ele>-2.35</ele>
  <time>2026-09-02T22:12:22Z</time>
  <course>36.29</course>
  <speed>0.01</speed>
  <fix>3d</fix>
</trkpt>
<trkpt lat="33.8103155" lon="-118.3938692">
  <ele>-2.552</ele>
  <time>2026-09-02T22:12:22Z</time>
  <course>10.44</course>
  <speed>0.02</speed>
  <fix>3d</fix>
</trkpt>
<trkpt lat="33.8103155" lon="-118.3938692">
  <ele>-2.54</ele>
  <time>2026-09-02T22:12:22Z</time>
  <course>11.07</course>
  <speed>0.02</speed>
  <fix>3d</fix>
</trkpt>
<trkpt lat="33.8103156" lon="-118.3938694">
  <ele>-2.35</ele>
  <time>2026-09-02T22:12:22Z</time>
  <course>36.29</course>
  <speed>0.01</speed>
  <fix>3d</fix>
</trkpt>
<trkpt lat="33.8103155" lon="-118.3938692">
  <ele>-2.54</ele>
  <time>2026-09-02T22:12:22Z</time>
  <course>11.09</course>
  <speed>0.02</speed>
  <fix>3d</fix>
</trkpt>
<trkpt lat="33.8103155" lon="-118.3938692">
  <ele>-2.523</ele>
  <time>2026-09-02T22:12:22Z</time>
  <course>11.71</course>
  <speed>0.02</speed>
  <fix>3d</fix>
</trkpt>
<trkpt lat="33.8103156" lon="-118.3938694">
  <ele>-2.31</ele>
  <time>2026-09-02T22:12:22Z</time>
  <course>37.48</course>
  <speed>0.01</speed>
  <fix>3d</fix>
</trkpt>
<trkpt lat="33.8103155" lon="-118.3938692">
  <ele>-2.518</ele>
  <time>2026-09-02T22:12:22Z</time>
  <course>11.86</course>
  <speed>0.02</speed>
  <fix>3d</fix>
</trkpt>
<trkpt lat="33.8103155" lon="-118.3938692">
  <ele>-2.505</ele>
  <time>2026-09-02T22:12:22Z</time>
  <course>12.36</course>
  <speed>0.02</speed>
  <fix>3d</fix>
</trkpt>
<trkpt lat="33.8103156" lon="-118.3938694">
  <ele>-2.31</ele>
  <time>2026-09-02T22:12:22Z</time>
  <course>37.48</course>
  <speed>0.01</speed>
  <fix>3d</fix>
</trkpt>
<trkpt lat="33.8103155" lon="-118.3938692">
  <ele>-2.5</ele>
  <time>2026-09-02T22:12:22Z</time>
  <course>12.53</course>
  <speed>0.02</speed>
  <fix>3d</fix>
</trkpt>
<trkpt lat="33.8103155" lon="-118.3938692">
  <ele>-2.489</ele>
  <time>2026-09-02T22:12:22Z</time>
  <course>13.01</course>
  <speed>0.02</speed>
  <fix>3d</fix>
</trkpt>
<trkpt lat="33.8103157" lon="-118.3938694">
  <ele>-2.27</ele>
  <time>2026-09-02T22:12:22Z</time>
  <course>38.64</course>
  <speed>0.01</speed>
  <fix>3d</fix>
</trkpt>
<trkpt lat="33.8103155" lon="-118.3938692">
  <ele>-2.488</ele>
  <time>2026-09-02T22:12:22Z</time>
  <course>13.04</course>
  <speed>0.02</speed>
  <fix>3d</fix>
</trkpt>
<trkpt lat="33.8103155" lon="-118.3938692">
  <ele>-2.47</ele>
  <time>2026-09-02T22:12:22Z</time>
  <course>13.65</course>
  <speed>0.02</speed>
  <fix>3d</fix>
</trkpt>
<trkpt lat="33.8103157" lon="-118.3938694">
  <ele>-2.27</ele>
  <time>2026-09-02T22:12:22Z</time>
  <course>38.64</course>
  <speed>0.01</speed>
  <fix>3d</fix>
</trkpt>
<trkpt lat="33.8103155" lon="-118.3938692">
  <ele>-2.468</ele>
  <time>2026-09-02T22:12:22Z</time>
  <course>13.7</course>
  <speed>0.02</speed>
  <fix>3d</fix>
</trkpt>
<trkpt lat="33.8103155" lon="-118.3938692">
  <ele>-2.443</ele>
  <time>2026-09-02T22:12:22Z</time>
  <course>14.29</course>
  <speed>0.02</speed>
  <fix>3d</fix>
</trkpt>
<trkpt lat="33.8103158" lon="-118.3938693">
  <ele>-2.23</ele>
  <time>2026-09-02T22:12:22Z</time>
  <course>39.81</course>
  <speed>0.01</speed>
  <fix>3d</fix>
</trkpt>
<trkpt lat="33.8103155" lon="-118.3938692">
  <ele>-2.439</ele>
  <time>2026-09-02T22:12:22Z</time>
  <course>14.37</course>
  <speed>0.02</speed>
  <fix>3d</fix>
</trkpt>
<trkpt lat="33.8103156" lon="-118.3938692">
  <ele>-2.408</ele>
  <time>2026-09-02T22:12:22Z</time>
  <course>14.94</course>
  <speed>0.02</speed>
  <fix>3d</fix>
</trkpt>
<trkpt lat="33.8103158" lon="-118.3938693">
  <ele>-2.23</ele>
  <time>2026-09-02T22:12:22Z</time>
  <course>39.81</course>
  <speed>0.01</speed>
  <fix>3d</fix>
</trkpt>
<trkpt lat="33.8103156" lon="-118.3938692">
  <ele>-2.403</ele>
  <time>2026-09-02T22:12:22Z</time>
  <course>15.03</course>
  <speed>0.02</speed>
  <fix>3d</fix>
</trkpt>
<trkpt lat="33.8103156" lon="-118.3938691">
  <ele>-2.371</ele>
  <time>2026-09-02T22:12:22Z</time>
  <course>15.58</course>
  <speed>0.02</speed>
  <fix>3d</fix>
</trkpt>
<trkpt lat="33.8103158" lon="-118.3938693">
  <ele>-2.19</ele>
  <time>2026-09-02T22:12:22Z</time>
  <course>40.99</course>
  <speed>0.01</speed>
  <fix>3d</fix>
</trkpt>
<trkpt lat="33.8103156" lon="-118.3938691">
  <ele>-2.364</ele>
  <time>2026-09-02T22:12:22Z</time>
  <course>15.71</course>
  <speed>0.02</speed>
  <fix>3d</fix>
</trkpt>
<trkpt lat="33.8103156" lon="-118.3938691">
  <ele>-2.34</ele>
  <time>2026-09-02T22:12:23Z</time>
  <course>16.22</course>
  <speed>0.02</speed>
  <fix>3d</fix>
</trkpt>
<trkpt lat="33.8103158" lon="-118.3938693">
  <ele>-2.19</ele>
  <time>2026-09-02T22:12:23Z</time>
  <course>40.99</course>
  <speed>0.01</speed>
  <fix>3d</fix>
</trkpt>
<trkpt lat="33.8103156" lon="-118.3938691">
  <ele>-2.333</ele>
  <time>2026-09-02T22:12:23Z</time>
  <course>16.38</course>
  <speed>0.02</speed>
  <fix>3d</fix>
</trkpt>
<trkpt lat="33.8103156" lon="-118.3938691">
  <ele>-2.316</ele>
  <time>2026-09-02T22:12:23Z</time>
  <course>16.87</course>
  <speed>0.02</speed>
  <fix>3d</fix>
</trkpt>
<trkpt lat="33.8103158" lon="-118.3938693">
  <ele>-2.15</ele>
  <time>2026-09-02T22:12:23Z</time>
  <course>42.23</course>
  <speed>0.01</speed>
  <fix>3d</fix>
</trkpt>
<trkpt lat="33.8103156" lon="-118.3938691">
  <ele>-2.315</ele>
  <time>2026-09-02T22:12:23Z</time>
  <course>16.88</course>
  <speed>0.02</speed>
  <fix>3d</fix>
</trkpt>
<trkpt lat="33.8103156" lon="-118.3938691">
  <ele>-2.301</ele>
  <time>2026-09-02T22:12:23Z</time>
  <course>17.52</course>
  <speed>0.02</speed>
  <fix>3d</fix>
</trkpt>
<trkpt lat="33.8103158" lon="-118.3938693">
  <ele>-2.15</ele>
  <time>2026-09-02T22:12:23Z</time>
  <course>42.23</course>
  <speed>0.01</speed>
  <fix>3d</fix>
</trkpt>
<trkpt lat="33.8103156" lon="-118.3938691">
  <ele>-2.298</ele>
  <time>2026-09-02T22:12:23Z</time>
  <course>17.63</course>
  <speed>0.02</speed>
  <fix>3d</fix>
</trkpt>
<trkpt lat="33.8103156" lon="-118.3938691">
  <ele>-2.289</ele>
  <time>2026-09-02T22:12:23Z</time>
  <course>18.16</course>
  <speed>0.02</speed>
  <fix>3d</fix>
</trkpt>
<trkpt lat="33.8103158" lon="-118.3938693">
  <ele>-2.11</ele>
  <time>2026-09-02T22:12:23Z</time>
  <course>43.43</course>
  <speed>0.01</speed>
  <fix>3d</fix>
</trkpt>
<trkpt lat="33.8103156" lon="-118.3938691">
  <ele>-2.288</ele>
  <time>2026-09-02T22:12:23Z</time>
  <course>18.29</course>
  <speed>0.02</speed>
  <fix>3d</fix>
</trkpt>
<trkpt lat="33.8103156" lon="-118.3938691">
  <ele>-2.283</ele>
  <time>2026-09-02T22:12:23Z</time>
  <course>18.8</course>
  <speed>0.02</speed>
  <fix>3d</fix>
</trkpt>
<trkpt lat="33.8103158" lon="-118.3938693">
  <ele>-2.11</ele>
  <time>2026-09-02T22:12:23Z</time>
  <course>43.43</course>
  <speed>0.01</speed>
  <fix>3d</fix>
</trkpt>
<trkpt lat="33.8103156" lon="-118.3938691">
  <ele>-2.283</ele>
  <time>2026-09-02T22:12:23Z</time>
  <course>18.97</course>
  <speed>0.02</speed>
  <fix>3d</fix>
</trkpt>
<trkpt lat="33.8103156" lon="-118.3938691">
  <ele>-2.278</ele>
  <time>2026-09-02T22:12:23Z</time>
  <course>19.45</course>
  <speed>0.02</speed>
  <fix>3d</fix>
</trkpt>
<trkpt lat="33.8103158" lon="-118.3938692">
  <ele>-2.06</ele>
  <time>2026-09-02T22:12:23Z</time>
  <course>44.6</course>
  <speed>0.01</speed>
  <fix>3d</fix>
</trkpt>
<trkpt lat="33.8103156" lon="-118.3938691">
  <ele>-2.277</ele>
  <time>2026-09-02T22:12:23Z</time>
  <course>19.46</course>
  <speed>0.02</speed>
  <fix>3d</fix>
</trkpt>
<trkpt lat="33.8103156" lon="-118.3938691">
  <ele>-2.266</ele>
  <time>2026-09-02T22:12:23Z</time>
  <course>20.1</course>
  <speed>0.02</speed>
  <fix>3d</fix>
</trkpt>
<trkpt lat="33.8103158" lon="-118.3938692">
  <ele>-2.06</ele>
  <time>2026-09-02T22:12:23Z</time>
  <course>44.6</course>
  <speed>0.01</speed>
  <fix>3d</fix>
</trkpt>
<trkpt lat="33.8103156" lon="-118.3938691">
  <ele>-2.264</ele>
  <time>2026-09-02T22:12:23Z</time>
  <course>20.17</course>
  <speed>0.02</speed>
  <fix>3d</fix>
</trkpt>
<trkpt lat="33.8103157" lon="-118.3938691">
  <ele>-2.256</ele>
  <time>2026-09-02T22:12:23Z</time>
  <course>20.74</course>
  <speed>0.02</speed>
  <fix>3d</fix>
</trkpt>
<trkpt lat="33.8103159" lon="-118.3938692">
  <ele>-2.02</ele>
  <time>2026-09-02T22:12:23Z</time>
  <course>45.77</course>
  <speed>0.01</speed>
  <fix>3d</fix>
</trkpt>
<trkpt lat="33.8103157" lon="-118.3938691">
  <ele>-2.254</ele>
  <time>2026-09-02T22:12:23Z</time>
  <course>20.84</course>
  <speed>0.02</speed>
  <fix>3d</fix>
</trkpt>
<trkpt lat="33.8103157" lon="-118.3938691">
  <ele>-2.247</ele>
  <time>2026-09-02T22:12:23Z</time>
  <course>21.39</course>
  <speed>0.02</speed>
  <fix>3d</fix>
</trkpt>
<trkpt lat="33.8103159" lon="-118.3938692">
  <ele>-2.02</ele>
  <time>2026-09-02T22:12:23Z</time>
  <course>45.77</course>
  <speed>0.01</speed>
  <fix>3d</fix>
</trkpt>
<trkpt lat="33.8103157" lon="-118.393869">
  <ele>-2.246</ele>
  <time>2026-09-02T22:12:23Z</time>
  <course>21.52</course>
  <speed>0.02</speed>
  <fix>3d</fix>
</trkpt>
<trkpt lat="33.8103157" lon="-118.393869">
  <ele>-2.241</ele>
  <time>2026-09-02T22:12:23Z</time>
  <course>22.04</course>
  <speed>0.02</speed>
  <fix>3d</fix>
</trkpt>
<trkpt lat="33.8103159" lon="-118.3938692">
  <ele>-1.98</ele>
  <time>2026-09-02T22:12:23Z</time>
  <course>46.94</course>
  <speed>0.01</speed>
  <fix>3d</fix>
</trkpt>
<trkpt lat="33.8103157" lon="-118.393869">
  <ele>-2.24</ele>
  <time>2026-09-02T22:12:23Z</time>
  <course>22.2</course>
  <speed>0.02</speed>
  <fix>3d</fix>
</trkpt>
<trkpt lat="33.8103157" lon="-118.393869">
  <ele>-2.233</ele>
  <time>2026-09-02T22:12:23Z</time>
  <course>22.68</course>
  <speed>0.02</speed>
  <fix>3d</fix>
</trkpt>
<trkpt lat="33.8103159" lon="-118.3938692">
  <ele>-1.98</ele>
  <time>2026-09-02T22:12:23Z</time>
  <course>46.94</course>
  <speed>0.01</speed>
  <fix>3d</fix>
</trkpt>
<trkpt lat="33.8103157" lon="-118.393869">
  <ele>-2.232</ele>
  <time>2026-09-02T22:12:23Z</time>
  <course>22.7</course>
  <speed>0.02</speed>
  <fix>3d</fix>
</trkpt>
<trkpt lat="33.8103157" lon="-118.393869">
  <ele>-2.217</ele>
  <time>2026-09-02T22:12:23Z</time>
  <course>23.33</course>
  <speed>0.02</speed>
  <fix>3d</fix>
</trkpt>
<trkpt lat="33.8103159" lon="-118.3938692">
  <ele>-1.94</ele>
  <time>2026-09-02T22:12:23Z</time>
  <course>48.16</course>
  <speed>0.01</speed>
  <fix>3d</fix>
</trkpt>
<trkpt lat="33.8103157" lon="-118.393869">
  <ele>-2.216</ele>
  <time>2026-09-02T22:12:23Z</time>
  <course>23.35</course>
  <speed>0.02</speed>
  <fix>3d</fix>
</trkpt>
<trkpt lat="33.8103157" lon="-118.393869">
  <ele>-2.191</ele>
  <time>2026-09-02T22:12:23Z</time>
  <course>23.97</course>
  <speed>0.02</speed>
  <fix>3d</fix>
</trkpt>
<trkpt lat="33.8103159" lon="-118.3938692">
  <ele>-1.94</ele>
  <time>2026-09-02T22:12:23Z</time>
  <course>48.16</course>
  <speed>0.01</speed>
  <fix>3d</fix>
</trkpt>
<trkpt lat="33.8103157" lon="-118.393869">
  <ele>-2.19</ele>
  <time>2026-09-02T22:12:23Z</time>
  <course>23.99</course>
  <speed>0.02</speed>
  <fix>3d</fix>
</trkpt>
<trkpt lat="33.8103157" lon="-118.393869">
  <ele>-2.158</ele>
  <time>2026-09-02T22:12:23Z</time>
  <course>24.62</course>
  <speed>0.02</speed>
  <fix>3d</fix>
</trkpt>
<trkpt lat="33.8103159" lon="-118.3938692">
  <ele>-1.9</ele>
  <time>2026-09-02T22:12:23Z</time>
  <course>49.39</course>
  <speed>0.01</speed>
  <fix>3d</fix>
</trkpt>
<trkpt lat="33.8103157" lon="-118.393869">
  <ele>-2.149</ele>
  <time>2026-09-02T22:12:23Z</time>
  <course>24.78</course>
  <speed>0.02</speed>
  <fix>3d</fix>
</trkpt>
<trkpt lat="33.8103157" lon="-118.393869">
  <ele>-2.127</ele>
  <time>2026-09-02T22:12:23Z</time>
  <course>25.27</course>
  <speed>0.02</speed>
  <fix>3d</fix>
</trkpt>
<trkpt lat="33.8103159" lon="-118.3938692">
  <ele>-1.9</ele>
  <time>2026-09-02T22:12:23Z</time>
  <course>49.39</course>
  <speed>0.01</speed>
  <fix>3d</fix>
</trkpt>
<trkpt lat="33.8103157" lon="-118.393869">
  <ele>-2.127</ele>
  <time>2026-09-02T22:12:23Z</time>
  <course>25.28</course>
  <speed>0.02</speed>
  <fix>3d</fix>
</trkpt>
<trkpt lat="33.8103157" lon="-118.393869">
  <ele>-2.106</ele>
  <time>2026-09-02T22:12:23Z</time>
  <course>25.91</course>
  <speed>0.02</speed>
  <fix>3d</fix>
</trkpt>
<trkpt lat="33.8103159" lon="-118.3938691">
  <ele>-1.86</ele>
  <time>2026-09-02T22:12:23Z</time>
  <course>50.56</course>
  <speed>0.01</speed>
  <fix>3d</fix>
</trkpt>
<trkpt lat="33.8103157" lon="-118.393869">
  <ele>-2.105</ele>
  <time>2026-09-02T22:12:23Z</time>
  <course>25.96</course>
  <speed>0.02</speed>
  <fix>3d</fix>
</trkpt>
<trkpt lat="33.8103157" lon="-118.393869">
  <ele>-2.085</ele>
  <time>2026-09-02T22:12:23Z</time>
  <course>26.57</course>
  <speed>0.022360679774997897</speed>
  <fix>3d</fix>
</trkpt>
<trkpt lat="33.8103159" lon="-118.3938691">
  <ele>-1.86</ele>
  <time>2026-09-02T22:12:23Z</time>
  <course>50.56</course>
  <speed>0.01</speed>
  <fix>3d</fix>
</trkpt>
<trkpt lat="33.8103157" lon="-118.393869">
  <ele>-2.079</ele>
  <time>2026-09-02T22:12:23Z</time>
  <course>26.73</course>
  <speed>0.022360679774997897</speed>
  <fix>3d</fix>
</trkpt>
<trkpt lat="33.8103157" lon="-118.393869">
  <ele>-2.06</ele>
  <time>2026-09-02T22:12:23Z</time>
  <course>27.21</course>
  <speed>0.022360679774997897</speed>
  <fix>3d</fix>
</trkpt>
<trkpt lat="33.8103159" lon="-118.3938691">
  <ele>-1.81</ele>
  <time>2026-09-02T22:12:23Z</time>
  <course>51.73</course>
  <speed>0.01</speed>
  <fix>3d</fix>
</trkpt>
<trkpt lat="33.8103157" lon="-118.3938689">
  <ele>-2.059</ele>
  <time>2026-09-02T22:12:23Z</time>
  <course>27.23</course>
  <speed>0.022360679774997897</speed>
  <fix>3d</fix>
</trkpt>
<trkpt lat="33.8103157" lon="-118.3938689">
  <ele>-2.028</ele>
  <time>2026-09-02T22:12:23Z</time>
  <course>27.86</course>
  <speed>0.022360679774997897</speed>
  <fix>3d</fix>
</trkpt>
<trkpt lat="33.8103159" lon="-118.3938691">
  <ele>-1.81</ele>
  <time>2026-09-02T22:12:23Z</time>
  <course>51.73</course>
  <speed>0.01</speed>
  <fix>3d</fix>
</trkpt>
<trkpt lat="33.8103157" lon="-118.3938689">
  <ele>-2.025</ele>
  <time>2026-09-02T22:12:23Z</time>
  <course>27.89</course>
  <speed>0.022360679774997897</speed>
  <fix>3d</fix>
</trkpt>
<trkpt lat="33.8103158" lon="-118.3938689">
  <ele>-1.993</ele>
  <time>2026-09-02T22:12:23Z</time>
  <course>28.51</course>
  <speed>0.022360679774997897</speed>
  <fix>3d</fix>
</trkpt>
<trkpt lat="33.810316" lon="-118.3938691">
  <ele>-1.78</ele>
  <time>2026-09-02T22:12:23Z</time>
  <course>52.9</course>
  <speed>0.01</speed>
  <fix>3d</fix>
</trkpt>
<trkpt lat="33.8103158" lon="-118.3938689">
  <ele>-1.986</ele>
  <time>2026-09-02T22:12:23Z</time>
  <course>28.67</course>
  <speed>0.022360679774997897</speed>
  <fix>3d</fix>
</trkpt>
<trkpt lat="33.8103158" lon="-118.3938689">
  <ele>-1.966</ele>
  <time>2026-09-02T22:12:23Z</time>
  <course>29.16</course>
  <speed>0.022360679774997897</speed>
  <fix>3d</fix>
</trkpt>
<trkpt lat="33.810316" lon="-118.3938691">
  <ele>-1.78</ele>
  <time>2026-09-02T22:12:23Z</time>
  <course>52.9</course>
  <speed>0.01</speed>
  <fix>3d</fix>
</trkpt>
<trkpt lat="33.8103158" lon="-118.3938689">
  <ele>-1.96</ele>
  <time>2026-09-02T22:12:23Z</time>
  <course>29.29</course>
  <speed>0.022360679774997897</speed>
  <fix>3d</fix>
</trkpt>
<trkpt lat="33.8103158" lon="-118.3938689">
  <ele>-1.936</ele>
  <time>2026-09-02T22:12:23Z</time>
  <course>29.81</course>
  <speed>0.022360679774997897</speed>
  <fix>3d</fix>
</trkpt>
<trkpt lat="33.810316" lon="-118.393869">
  <ele>-1.73</ele>
  <time>2026-09-02T22:12:23Z</time>
  <course>54.11</course>
  <speed>0.01</speed>
  <fix>3d</fix>
</trkpt>
<trkpt lat="33.8103158" lon="-118.3938689">
  <ele>-1.928</ele>
  <time>2026-09-02T22:12:23Z</time>
  <course>29.92</course>
  <speed>0.022360679774997897</speed>
  <fix>3d</fix>
</trkpt>
<trkpt lat="33.8103158" lon="-118.3938689">
  <ele>-1.905</ele>
  <time>2026-09-02T22:12:23Z</time>
  <course>30.45</course>
  <speed>0.022360679774997897</speed>
  <fix>3d</fix>
</trkpt>
<trkpt lat="33.810316" lon="-118.393869">
  <ele>-1.73</ele>
  <time>2026-09-02T22:12:23Z</time>
  <course>54.11</course>
  <speed>0.01</speed>
  <fix>3d</fix>
</trkpt>
<trkpt lat="33.8103158" lon="-118.3938689">
  <ele>-1.903</ele>
  <time>2026-09-02T22:12:23Z</time>
  <course>30.54</course>
  <speed>0.022360679774997897</speed>
  <fix>3d</fix>
</trkpt>
<trkpt lat="33.8103158" lon="-118.3938689">
  <ele>-1.887</ele>
  <time>2026-09-02T22:12:23Z</time>
  <course>31.11</course>
  <speed>0.022360679774997897</speed>
  <fix>3d</fix>
</trkpt>
<trkpt lat="33.810316" lon="-118.393869">
  <ele>-1.69</ele>
  <time>2026-09-02T22:12:23Z</time>
  <course>55.34</course>
  <speed>0.01</speed>
  <fix>3d</fix>
</trkpt>
<trkpt lat="33.8103158" lon="-118.3938689">
  <ele>-1.887</ele>
  <time>2026-09-02T22:12:23Z</time>
  <course>31.12</course>
  <speed>0.022360679774997897</speed>
  <fix>3d</fix>
</trkpt>
<trkpt lat="33.8103158" lon="-118.3938689">
  <ele>-1.874</ele>
  <time>2026-09-02T22:12:23Z</time>
  <course>31.76</course>
  <speed>0.022360679774997897</speed>
  <fix>3d</fix>
</trkpt>
<trkpt lat="33.810316" lon="-118.393869">
  <ele>-1.69</ele>
  <time>2026-09-02T22:12:23Z</time>
  <course>55.34</course>
  <speed>0.01</speed>
  <fix>3d</fix>
</trkpt>
<trkpt lat="33.8103158" lon="-118.3938689">
  <ele>-1.874</ele>
  <time>2026-09-02T22:12:23Z</time>
  <course>31.79</course>
  <speed>0.022360679774997897</speed>
  <fix>3d</fix>
</trkpt>
<trkpt lat="33.8103158" lon="-118.3938688">
  <ele>-1.859</ele>
  <time>2026-09-02T22:12:23Z</time>
  <course>32.41</course>
  <speed>0.022360679774997897</speed>
  <fix>3d</fix>
</trkpt>
<trkpt lat="33.810316" lon="-118.393869">
  <ele>-1.65</ele>
  <time>2026-09-02T22:12:23Z</time>
  <course>56.53</course>
  <speed>0.01</speed>
  <fix>3d</fix>
</trkpt>
<trkpt lat="33.8103158" lon="-118.3938688">
  <ele>-1.857</ele>
  <time>2026-09-02T22:12:23Z</time>
  <course>32.47</course>
  <speed>0.022360679774997897</speed>
  <fix>3d</fix>
</trkpt>
<trkpt lat="33.8103158" lon="-118.3938688">
  <ele>-1.843</ele>
  <time>2026-09-02T22:12:23Z</time>
  <course>33.05</course>
  <speed>0.022360679774997897</speed>
  <fix>3d</fix>
</trkpt>
<trkpt lat="33.810316" lon="-118.393869">
  <ele>-1.65</ele>
  <time>2026-09-02T22:12:23Z</time>
  <course>56.53</course>
  <speed>0.01</speed>
  <fix>3d</fix>
</trkpt>
<trkpt lat="33.8103158" lon="-118.3938688">
  <ele>-1.841</ele>
  <time>2026-09-02T22:12:23Z</time>
  <course>33.13</course>
  <speed>0.022360679774997897</speed>
  <fix>3d</fix>
</trkpt>
<trkpt lat="33.8103158" lon="-118.3938688">
  <ele>-1.828</ele>
  <time>2026-09-02T22:12:23Z</time>
  <course>33.71</course>
  <speed>0.022360679774997897</speed>
  <fix>3d</fix>
</trkpt>
<trkpt lat="33.810316" lon="-118.393869">
  <ele>-1.61</ele>
  <time>2026-09-02T22:12:23Z</time>
  <course>57.69</course>
  <speed>0.01</speed>
  <fix>3d</fix>
</trkpt>
<trkpt lat="33.8103158" lon="-118.3938688">
  <ele>-1.827</ele>
  <time>2026-09-02T22:12:23Z</time>
  <course>33.81</course>
  <speed>0.022360679774997897</speed>
  <fix>3d</fix>
</trkpt>
<trkpt lat="33.8103158" lon="-118.3938688">
  <ele>-1.818</ele>
  <time>2026-09-02T22:12:23Z</time>
  <course>34.35</course>
  <speed>0.022360679774997897</speed>
  <fix>3d</fix>
</trkpt>
<trkpt lat="33.810316" lon="-118.393869">
  <ele>-1.61</ele>
  <time>2026-09-02T22:12:23Z</time>
  <course>57.69</course>
  <speed>0.01</speed>
  <fix>3d</fix>
</trkpt>
<trkpt lat="33.8103158" lon="-118.3938688">
  <ele>-1.817</ele>
  <time>2026-09-02T22:12:23Z</time>
  <course>34.48</course>
  <speed>0.022360679774997897</speed>
  <fix>3d</fix>
</trkpt>
<trkpt lat="33.8103158" lon="-118.3938688">
  <ele>-1.812</ele>
  <time>2026-09-02T22:12:23Z</time>
  <course>35.01</course>
  <speed>0.022360679774997897</speed>
  <fix>3d</fix>
</trkpt>
<trkpt lat="33.810316" lon="-118.3938689">
  <ele>-1.56</ele>
  <time>2026-09-02T22:12:23Z</time>
  <course>58.87</course>
  <speed>0.01</speed>
  <fix>3d</fix>
</trkpt>
<trkpt lat="33.8103158" lon="-118.3938688">
  <ele>-1.813</ele>
  <time>2026-09-02T22:12:23Z</time>
  <course>35.04</course>
  <speed>0.022360679774997897</speed>
  <fix>3d</fix>
</trkpt>
<trkpt lat="33.8103158" lon="-118.3938688">
  <ele>-1.806</ele>
  <time>2026-09-02T22:12:23Z</time>
  <course>35.66</course>
  <speed>0.022360679774997897</speed>
  <fix>3d</fix>
</trkpt>
<trkpt lat="33.810316" lon="-118.3938689">
  <ele>-1.56</ele>
  <time>2026-09-02T22:12:23Z</time>
  <course>58.87</course>
  <speed>0.01</speed>
  <fix>3d</fix>
</trkpt>
<trkpt lat="33.8103158" lon="-118.3938688">
  <ele>-1.806</ele>
  <time>2026-09-02T22:12:23Z</time>
  <course>35.71</course>
  <speed>0.022360679774997897</speed>
  <fix>3d</fix>
</trkpt>
<trkpt lat="33.8103158" lon="-118.3938688">
  <ele>-1.797</ele>
  <time>2026-09-02T22:12:23Z</time>
  <course>36.31</course>
  <speed>0.022360679774997897</speed>
  <fix>3d</fix>
</trkpt>
<trkpt lat="33.8103161" lon="-118.3938689">
  <ele>-1.53</ele>
  <time>2026-09-02T22:12:23Z</time>
  <course>60.06</course>
  <speed>0.01</speed>
  <fix>3d</fix>
</trkpt>
<trkpt lat="33.8103158" lon="-118.3938688">
  <ele>-1.797</ele>
  <time>2026-09-02T22:12:23Z</time>
  <course>36.32</course>
  <speed>0.022360679774997897</speed>
  <fix>3d</fix>
</trkpt>
<trkpt lat="33.8103159" lon="-118.3938688">
  <ele>-1.785</ele>
  <time>2026-09-02T22:12:23Z</time>
  <course>36.96</course>
  <speed>0.022360679774997897</speed>
  <fix>3d</fix>
</trkpt>
<trkpt lat="33.8103161" lon="-118.3938689">
  <ele>-1.53</ele>
  <time>2026-09-02T22:12:23Z</time>
  <course>60.06</course>
  <speed>0.01</speed>
  <fix>3d</fix>
</trkpt>
<trkpt lat="33.8103159" lon="-118.3938687">
  <ele>-1.78</ele>
  <time>2026-09-02T22:12:23Z</time>
  <course>37.14</course>
  <speed>0.022360679774997897</speed>
  <fix>3d</fix>
</trkpt>
<trkpt lat="33.8103159" lon="-118.3938687">
  <ele>-1.761</ele>
  <time>2026-09-02T22:12:23Z</time>
  <course>37.61</course>
  <speed>0.022360679774997897</speed>
  <fix>3d</fix>
</trkpt>
<trkpt lat="33.8103161" lon="-118.3938689">
  <ele>-1.48</ele>
  <time>2026-09-02T22:12:23Z</time>
  <course>61.31</course>
  <speed>0.01</speed>
  <fix>3d</fix>
</trkpt>
<trkpt lat="33.8103159" lon="-118.3938687">
  <ele>-1.759</ele>
  <time>2026-09-02T22:12:23Z</time>
  <course>37.64</course>
  <speed>0.022360679774997897</speed>
  <fix>3d</fix>
</trkpt>
<trkpt lat="33.8103159" lon="-118.3938687">
  <ele>-1.73</ele>
  <time>2026-09-02T22:12:23Z</time>
  <course>38.26</course>
  <speed>0.022360679774997897</speed>
  <fix>3d</fix>
</trkpt>
<trkpt lat="33.8103161" lon="-118.3938689">
  <ele>-1.48</ele>
  <time>2026-09-02T22:12:23Z</time>
  <course>61.31</course>
  <speed>0.01</speed>
  <fix>3d</fix>
</trkpt>
<trkpt lat="33.8103159" lon="-118.3938687">
  <ele>-1.729</ele>
  <time>2026-09-02T22:12:23Z</time>
  <course>38.28</course>
  <speed>0.022360679774997897</speed>
  <fix>3d</fix>
</trkpt>
<trkpt lat="33.8103159" lon="-118.3938687">
  <ele>-1.702</ele>
  <time>2026-09-02T22:12:23Z</time>
  <course>38.91</course>
  <speed>0.022360679774997897</speed>
  <fix>3d</fix>
</trkpt>
<trkpt lat="33.8103161" lon="-118.3938689">
  <ele>-1.44</ele>
  <time>2026-09-02T22:12:23Z</time>
  <course>62.53</course>
  <speed>0.01</speed>
  <fix>3d</fix>
</trkpt>
<trkpt lat="33.8103159" lon="-118.3938687">
  <ele>-1.696</ele>
  <time>2026-09-02T22:12:23Z</time>
  <course>39.0</course>
  <speed>0.022360679774997897</speed>
  <fix>3d</fix>
</trkpt>
<trkpt lat="33.8103159" lon="-118.3938687">
  <ele>-1.673</ele>
  <time>2026-09-02T22:12:23Z</time>
  <course>39.56</course>
  <speed>0.022360679774997897</speed>
  <fix>3d</fix>
</trkpt>
<trkpt lat="33.8103161" lon="-118.3938689">
  <ele>-1.44</ele>
  <time>2026-09-02T22:12:23Z</time>
  <course>62.53</course>
  <speed>0.01</speed>
  <fix>3d</fix>
</trkpt>
<trkpt lat="33.8103159" lon="-118.3938687">
  <ele>-1.67</ele>
  <time>2026-09-02T22:12:23Z</time>
  <course>39.63</course>
  <speed>0.022360679774997897</speed>
  <fix>3d</fix>
</trkpt>
<trkpt lat="33.8103159" lon="-118.3938687">
  <ele>-1.644</ele>
  <time>2026-09-02T22:12:23Z</time>
  <course>40.21</course>
  <speed>0.022360679774997897</speed>
  <fix>3d</fix>
</trkpt>
<trkpt lat="33.8103161" lon="-118.3938688">
  <ele>-1.4</ele>
  <time>2026-09-02T22:12:23Z</time>
  <course>63.69</course>
  <speed>0.01</speed>
  <fix>3d</fix>
</trkpt>
<trkpt lat="33.8103159" lon="-118.3938687">
  <ele>-1.641</ele>
  <time>2026-09-02T22:12:23Z</time>
  <course>40.26</course>
  <speed>0.022360679774997897</speed>
  <fix>3d</fix>
</trkpt>
<trkpt lat="33.8103159" lon="-118.3938687">
  <ele>-1.618</ele>
  <time>2026-09-02T22:12:23Z</time>
  <course>40.86</course>
  <speed>0.022360679774997897</speed>
  <fix>3d</fix>
</trkpt>
<trkpt lat="33.8103161" lon="-118.3938688">
  <ele>-1.4</ele>
  <time>2026-09-02T22:12:23Z</time>
  <course>63.69</course>
  <speed>0.01</speed>
  <fix>3d</fix>
</trkpt>
<trkpt lat="33.8103159" lon="-118.3938687">
  <ele>-1.617</ele>
  <time>2026-09-02T22:12:23Z</time>
  <course>40.89</course>
  <speed>0.022360679774997897</speed>
  <fix>3d</fix>
</trkpt>
<trkpt lat="33.8103159" lon="-118.3938687">
  <ele>-1.596</ele>
  <time>2026-09-02T22:12:23Z</time>
  <course>41.51</course>
  <speed>0.022360679774997897</speed>
  <fix>3d</fix>
</trkpt>
<trkpt lat="33.8103161" lon="-118.3938688">
  <ele>-1.36</ele>
  <time>2026-09-02T22:12:23Z</time>
  <course>64.86</course>
  <speed>0.01</speed>
  <fix>3d</fix>
</trkpt>
<trkpt lat="33.8103159" lon="-118.3938687">
  <ele>-1.595</ele>
  <time>2026-09-02T22:12:23Z</time>
  <course>41.55</course>
  <speed>0.022360679774997897</speed>
  <fix>3d</fix>
</trkpt>
<trkpt lat="33.8103159" lon="-118.3938687">
  <ele>-1.575</ele>
  <time>2026-09-02T22:12:24Z</time>
  <course>42.16</course>
  <speed>0.022360679774997897</speed>
  <fix>3d</fix>
</trkpt>
<trkpt lat="33.8103161" lon="-118.3938688">
  <ele>-1.36</ele>
  <time>2026-09-02T22:12:24Z</time>
  <course>64.86</course>
  <speed>0.01</speed>
  <fix>3d</fix>
</trkpt>
<trkpt lat="33.8103159" lon="-118.3938686">
  <ele>-1.569</ele>
  <time>2026-09-02T22:12:24Z</time>
  <course>42.32</course>
  <speed>0.022360679774997897</speed>
  <fix>3d</fix>
</trkpt>
<trkpt lat="33.8103159" lon="-118.3938686">
  <ele>-1.555</ele>
  <time>2026-09-02T22:12:24Z</time>
  <course>42.81</course>
  <speed>0.022360679774997897</speed>
  <fix>3d</fix>
</trkpt>
<trkpt lat="33.8103161" lon="-118.3938688">
  <ele>-1.31</ele>
  <time>2026-09-02T22:12:24Z</time>
  <course>66.03</course>
  <speed>0.01</speed>
  <fix>3d</fix>
</trkpt>
<trkpt lat="33.8103159" lon="-118.3938686">
  <ele>-1.551</ele>
  <time>2026-09-02T22:12:24Z</time>
  <course>42.96</course>
  <speed>0.022360679774997897</speed>
  <fix>3d</fix>
</trkpt>
<trkpt lat="33.8103159" lon="-118.3938686">
  <ele>-1.538</ele>
  <time>2026-09-02T22:12:24Z</time>
  <course>43.46</course>
  <speed>0.022360679774997897</speed>
  <fix>3d</fix>
</trkpt>
<trkpt lat="33.8103161" lon="-118.3938688">
  <ele>-1.31</ele>
  <time>2026-09-02T22:12:24Z</time>
  <course>66.03</course>
  <speed>0.01</speed>
  <fix>3d</fix>
</trkpt>
<trkpt lat="33.8103159" lon="-118.3938686">
  <ele>-1.537</ele>
  <time>2026-09-02T22:12:24Z</time>
  <course>43.5</course>
  <speed>0.022360679774997897</speed>
  <fix>3d</fix>
</trkpt>
<trkpt lat="33.8103159" lon="-118.3938686">
  <ele>-1.52</ele>
  <time>2026-09-02T22:12:24Z</time>
  <course>44.12</course>
  <speed>0.022360679774997897</speed>
  <fix>3d</fix>
</trkpt>
<trkpt lat="33.8103161" lon="-118.3938687">
  <ele>-1.27</ele>
  <time>2026-09-02T22:12:24Z</time>
  <course>67.25</course>
  <speed>0.01</speed>
  <fix>3d</fix>
</trkpt>
<trkpt lat="33.8103159" lon="-118.3938686">
  <ele>-1.515</ele>
  <time>2026-09-02T22:12:24Z</time>
  <course>44.27</course>
  <speed>0.022360679774997897</speed>
  <fix>3d</fix>
</trkpt>
<trkpt lat="33.8103159" lon="-118.3938686">
  <ele>-1.495</ele>
  <time>2026-09-02T22:12:24Z</time>
  <course>44.77</course>
  <speed>0.022360679774997897</speed>
  <fix>3d</fix>
</trkpt>
<trkpt lat="33.8103161" lon="-118.3938687">
  <ele>-1.27</ele>
  <time>2026-09-02T22:12:24Z</time>
  <course>67.25</course>
  <speed>0.01</speed>
  <fix>3d</fix>
</trkpt>
<trkpt lat="33.8103159" lon="-118.3938686">
  <ele>-1.488</ele>
  <time>2026-09-02T22:12:24Z</time>
  <course>44.91</course>
  <speed>0.022360679774997897</speed>
  <fix>3d</fix>
</trkpt>
<trkpt lat="33.8103159" lon="-118.3938686">
  <ele>-1.465</ele>
  <time>2026-09-02T22:12:24Z</time>
  <course>45.42</course>
  <speed>0.0282842712474619</speed>
  <fix>3d</fix>
</trkpt>
<trkpt lat="33.8103161" lon="-118.3938687">
  <ele>-1.23</ele>
  <time>2026-09-02T22:12:24Z</time>
  <course>68.47</course>
  <speed>0.01</speed>
  <fix>3d</fix>
</trkpt>
<trkpt lat="33.8103159" lon="-118.3938686">
  <ele>-1.465</ele>
  <time>2026-09-02T22:12:24Z</time>
  <course>45.44</course>
  <speed>0.0282842712474619</speed>
  <fix>3d</fix>
</trkpt>
<trkpt lat="33.8103159" lon="-118.3938686">
  <ele>-1.442</ele>
  <time>2026-09-02T22:12:24Z</time>
  <course>46.07</course>
  <speed>0.0282842712474619</speed>
  <fix>3d</fix>
</trkpt>
<trkpt lat="33.8103161" lon="-118.3938687">
  <ele>-1.23</ele>
  <time>2026-09-02T22:12:24Z</time>
  <course>68.47</course>
  <speed>0.01</speed>
  <fix>3d</fix>
</trkpt>
<trkpt lat="33.8103159" lon="-118.3938686">
  <ele>-1.438</ele>
  <time>2026-09-02T22:12:24Z</time>
  <course>46.22</course>
  <speed>0.0282842712474619</speed>
  <fix>3d</fix>
</trkpt>
<trkpt lat="33.8103159" lon="-118.3938686">
  <ele>-1.417</ele>
  <time>2026-09-02T22:12:24Z</time>
  <course>46.72</course>
  <speed>0.0282842712474619</speed>
  <fix>3d</fix>
</trkpt>
<trkpt lat="33.8103161" lon="-118.3938687">
  <ele>-1.19</ele>
  <time>2026-09-02T22:12:24Z</time>
  <course>69.64</course>
  <speed>0.01</speed>
  <fix>3d</fix>
</trkpt>
<trkpt lat="33.8103159" lon="-118.3938686">
  <ele>-1.412</ele>
  <time>2026-09-02T22:12:24Z</time>
  <course>46.86</course>
  <speed>0.0282842712474619</speed>
  <fix>3d</fix>
</trkpt>
<trkpt lat="33.8103159" lon="-118.3938686">
  <ele>-1.387</ele>
  <time>2026-09-02T22:12:24Z</time>
  <course>47.38</course>
  <speed>0.0282842712474619</speed>
  <fix>3d</fix>
</trkpt>
<trkpt lat="33.8103161" lon="-118.3938687">
  <ele>-1.19</ele>
  <time>2026-09-02T22:12:24Z</time>
  <course>69.64</course>
  <speed>0.01</speed>
  <fix>3d</fix>
</trkpt>
<trkpt lat="33.8103159" lon="-118.3938685">
  <ele>-1.382</ele>
  <time>2026-09-02T22:12:24Z</time>
  <course>47.49</course>
  <speed>0.0282842712474619</speed>
  <fix>3d</fix>
</trkpt>
<trkpt lat="33.8103159" lon="-118.3938685">
  <ele>-1.356</ele>
  <time>2026-09-02T22:12:24Z</time>
  <course>48.03</course>
  <speed>0.0282842712474619</speed>
  <fix>3d</fix>
</trkpt>
<trkpt lat="33.8103161" lon="-118.3938687">
  <ele>-1.14</ele>
  <time>2026-09-02T22:12:24Z</time>
  <course>70.8</course>
  <speed>0.01</speed>
  <fix>3d</fix>
</trkpt>
<trkpt lat="33.8103159" lon="-118.3938685">
  <ele>-1.352</ele>
  <time>2026-09-02T22:12:24Z</time>
  <course>48.12</course>
  <speed>0.0282842712474619</speed>
  <fix>3d</fix>
</trkpt>
<trkpt lat="33.8103159" lon="-118.3938685">
  <ele>-1.327</ele>
  <time>2026-09-02T22:12:24Z</time>
  <course>48.68</course>
  <speed>0.0282842712474619</speed>
  <fix>3d</fix>
</trkpt>
<trkpt lat="33.8103161" lon="-118.3938687">
  <ele>-1.14</ele>
  <time>2026-09-02T22:12:24Z</time>
  <course>70.8</course>
  <speed>0.01</speed>
  <fix>3d</fix>
</trkpt>
<trkpt lat="33.8103159" lon="-118.3938685">
  <ele>-1.324</ele>
  <time>2026-09-02T22:12:24Z</time>
  <course>48.75</course>
  <speed>0.0282842712474619</speed>
  <fix>3d</fix>
</trkpt>
<trkpt lat="33.8103159" lon="-118.3938685">
  <ele>-1.302</ele>
  <time>2026-09-02T22:12:24Z</time>
  <course>49.34</course>
  <speed>0.0282842712474619</speed>
  <fix>3d</fix>
</trkpt>
<trkpt lat="33.8103161" lon="-118.3938686">
  <ele>-1.1</ele>
  <time>2026-09-02T22:12:24Z</time>
  <course>71.97</course>
  <speed>0.01</speed>
  <fix>3d</fix>
</trkpt>
<trkpt lat="33.8103159" lon="-118.3938685">
  <ele>-1.3</ele>
  <time>2026-09-02T22:12:24Z</time>
  <course>49.37</course>
  <speed>0.0282842712474619</speed>
  <fix>3d</fix>
</trkpt>
<trkpt lat="33.8103159" lon="-118.3938685">
  <ele>-1.279</ele>
  <time>2026-09-02T22:12:24Z</time>
  <course>49.99</course>
  <speed>0.0282842712474619</speed>
  <fix>3d</fix>
</trkpt>
<trkpt lat="33.8103161" lon="-118.3938686">
  <ele>-1.1</ele>
  <time>2026-09-02T22:12:24Z</time>
  <course>71.97</course>
  <speed>0.01</speed>
  <fix>3d</fix>
</trkpt>
<trkpt lat="33.8103159" lon="-118.3938685">
  <ele>-1.273</ele>
  <time>2026-09-02T22:12:24Z</time>
  <course>50.15</course>
  <speed>0.0282842712474619</speed>
  <fix>3d</fix>
</trkpt>
<trkpt lat="33.8103159" lon="-118.3938685">
  <ele>-1.249</ele>
  <time>2026-09-02T22:12:24Z</time>
  <course>50.64</course>
  <speed>0.0282842712474619</speed>
  <fix>3d</fix>
</trkpt>
<trkpt lat="33.8103161" lon="-118.3938686">
  <ele>-1.06</ele>
  <time>2026-09-02T22:12:24Z</time>
  <course>73.18</course>
  <speed>0.01</speed>
  <fix>3d</fix>
</trkpt>
<trkpt lat="33.8103159" lon="-118.3938685">
  <ele>-1.24</ele>
  <time>2026-09-02T22:12:24Z</time>
  <course>50.8</course>
  <speed>0.0282842712474619</speed>
  <fix>3d</fix>
</trkpt>
<trkpt lat="33.8103159" lon="-118.3938685">
  <ele>-1.218</ele>
  <time>2026-09-02T22:12:24Z</time>
  <course>51.3</course>
  <speed>0.0282842712474619</speed>
  <fix>3d</fix>
</trkpt>
<trkpt lat="33.8103161" lon="-118.3938686">
  <ele>-1.06</ele>
  <time>2026-09-02T22:12:24Z</time>
  <course>73.18</course>
  <speed>0.01</speed>
  <fix>3d</fix>
</trkpt>
<trkpt lat="33.8103159" lon="-118.3938685">
  <ele>-1.217</ele>
  <time>2026-09-02T22:12:24Z</time>
  <course>51.33</course>
  <speed>0.0282842712474619</speed>
  <fix>3d</fix>
</trkpt>
<trkpt lat="33.8103159" lon="-118.3938685">
  <ele>-1.191</ele>
  <time>2026-09-02T22:12:24Z</time>
  <course>51.95</course>
  <speed>0.0282842712474619</speed>
  <fix>3d</fix>
</trkpt>
<trkpt lat="33.8103161" lon="-118.3938686">
  <ele>-1.02</ele>
  <time>2026-09-02T22:12:24Z</time>
  <course>74.41</course>
  <speed>0.01</speed>
  <fix>3d</fix>
</trkpt>
<trkpt lat="33.8103159" lon="-118.3938685">
  <ele>-1.186</ele>
  <time>2026-09-02T22:12:24Z</time>
  <course>52.09</course>
  <speed>0.0282842712474619</speed>
  <fix>3d</fix>
</trkpt>
<trkpt lat="33.8103159" lon="-118.3938685">
  <ele>-1.17</ele>
  <time>2026-09-02T22:12:24Z</time>
  <course>52.6</course>
  <speed>0.0282842712474619</speed>
  <fix>3d</fix>
</trkpt>
<trkpt lat="33.8103161" lon="-118.3938686">
  <ele>-1.02</ele>
  <time>2026-09-02T22:12:24Z</time>
  <course>74.41</course>
  <speed>0.01</speed>
  <fix>3d</fix>
</trkpt>
<trkpt lat="33.8103159" lon="-118.3938685">
  <ele>-1.169</ele>
  <time>2026-09-02T22:12:24Z</time>
  <course>52.62</course>
  <speed>0.0282842712474619</speed>
  <fix>3d</fix>
</trkpt>
<trkpt lat="33.8103159" lon="-118.3938684">
  <ele>-1.153</ele>
  <time>2026-09-02T22:12:24Z</time>
  <course>53.26</course>
  <speed>0.0282842712474619</speed>
  <fix>3d</fix>
</trkpt>
<trkpt lat="33.8103161" lon="-118.3938685">
  <ele>-0.97</ele>
  <time>2026-09-02T22:12:24Z</time>
  <course>75.59</course>
  <speed>0.01</speed>
  <fix>3d</fix>
</trkpt>
<trkpt lat="33.8103159" lon="-118.3938684">
  <ele>-1.152</ele>
  <time>2026-09-02T22:12:24Z</time>
  <course>53.38</course>
  <speed>0.0282842712474619</speed>
  <fix>3d</fix>
</trkpt>
<trkpt lat="33.8103159" lon="-118.3938684">
  <ele>-1.14</ele>
  <time>2026-09-02T22:12:24Z</time>
  <course>53.92</course>
  <speed>0.0282842712474619</speed>
  <fix>3d</fix>
</trkpt>
<trkpt lat="33.8103161" lon="-118.3938685">
  <ele>-0.97</ele>
  <time>2026-09-02T22:12:24Z</time>
  <course>75.59</course>
  <speed>0.01</speed>
  <fix>3d</fix>
</trkpt>
<trkpt lat="33.8103159" lon="-118.3938684">
  <ele>-1.138</ele>
  <time>2026-09-02T22:12:24Z</time>
  <course>54.01</course>
  <speed>0.0282842712474619</speed>
  <fix>3d</fix>
</trkpt>
<trkpt lat="33.8103159" lon="-118.3938684">
  <ele>-1.123</ele>
  <time>2026-09-02T22:12:24Z</time>
  <course>54.58</course>
  <speed>0.0282842712474619</speed>
  <fix>3d</fix>
</trkpt>
<trkpt lat="33.8103161" lon="-118.3938685">
  <ele>-0.93</ele>
  <time>2026-09-02T22:12:24Z</time>
  <course>76.74</course>
  <speed>0.01</speed>
  <fix>3d</fix>
</trkpt>
<trkpt lat="33.8103159" lon="-118.3938684">
  <ele>-1.12</ele>
  <time>2026-09-02T22:12:24Z</time>
  <course>54.65</course>
  <speed>0.0282842712474619</speed>
  <fix>3d</fix>
</trkpt>
<trkpt lat="33.8103159" lon="-118.3938684">
  <ele>-1.095</ele>
  <time>2026-09-02T22:12:24Z</time>
  <course>55.23</course>
  <speed>0.0282842712474619</speed>
  <fix>3d</fix>
</trkpt>
<trkpt lat="33.8103161" lon="-118.3938685">
  <ele>-0.93</ele>
  <time>2026-09-02T22:12:24Z</time>
  <course>76.74</course>
  <speed>0.01</speed>
  <fix>3d</fix>
</trkpt>
<trkpt lat="33.8103159" lon="-118.3938684">
  <ele>-1.091</ele>
  <time>2026-09-02T22:12:24Z</time>
  <course>55.28</course>
  <speed>0.0282842712474619</speed>
  <fix>3d</fix>
</trkpt>
<trkpt lat="33.8103159" lon="-118.3938684">
  <ele>-1.057</ele>
  <time>2026-09-02T22:12:24Z</time>
  <course>55.88</course>
  <speed>0.0282842712474619</speed>
  <fix>3d</fix>
</trkpt>
<trkpt lat="33.8103161" lon="-118.3938685">
  <ele>-0.89</ele>
  <time>2026-09-02T22:12:24Z</time>
  <course>77.91</course>
  <speed>0.01</speed>
  <fix>3d</fix>
</trkpt>
<trkpt lat="33.8103159" lon="-118.3938684">
  <ele>-1.054</ele>
  <time>2026-09-02T22:12:24Z</time>
  <course>55.9</course>
  <speed>0.0282842712474619</speed>
  <fix>3d</fix>
</trkpt>
<trkpt lat="33.8103159" lon="-118.3938684">
  <ele>-1.013</ele>
  <time>2026-09-02T22:12:24Z</time>
  <course>56.54</course>
  <speed>0.0282842712474619</speed>
  <fix>3d</fix>
</trkpt>
<trkpt lat="33.8103161" lon="-118.3938685">
  <ele>-0.89</ele>
  <time>2026-09-02T22:12:24Z</time>
  <course>77.91</course>
  <speed>0.01</speed>
  <fix>3d</fix>
</trkpt>
<trkpt lat="33.8103159" lon="-118.3938684">
  <ele>-1.008</ele>
  <time>2026-09-02T22:12:24Z</time>
  <course>56.61</course>
  <speed>0.0282842712474619</speed>
  <fix>3d</fix>
</trkpt>
<trkpt lat="33.8103159" lon="-118.3938684">
  <ele>-0.972</ele>
  <time>2026-09-02T22:12:24Z</time>
  <course>57.19</course>
  <speed>0.0282842712474619</speed>
  <fix>3d</fix>
</trkpt>
<trkpt lat="33.8103161" lon="-118.3938684">
  <ele>-0.84</ele>
  <time>2026-09-02T22:12:24Z</time>
  <course>79.1</course>
  <speed>0.01</speed>
  <fix>3d</fix>
</trkpt>
<trkpt lat="33.8103159" lon="-118.3938684">
  <ele>-0.97</ele>
  <time>2026-09-02T22:12:24Z</time>
  <course>57.25</course>
  <speed>0.0282842712474619</speed>
  <fix>3d</fix>
</trkpt>
<trkpt lat="33.8103159" lon="-118.3938684">
  <ele>-0.946</ele>
  <time>2026-09-02T22:12:24Z</time>
  <course>57.85</course>
  <speed>0.0282842712474619</speed>
  <fix>3d</fix>
</trkpt>
<trkpt lat="33.8103161" lon="-118.3938684">
  <ele>-0.84</ele>
  <time>2026-09-02T22:12:24Z</time>
  <course>79.1</course>
  <speed>0.01</speed>
  <fix>3d</fix>
</trkpt>
<trkpt lat="33.8103159" lon="-118.3938683">
  <ele>-0.92</ele>
  <time>2026-09-02T22:12:24Z</time>
  <course>58.5</course>
  <speed>0.0282842712474619</speed>
  <fix>3d</fix>
</trkpt>
<trkpt lat="33.8103161" lon="-118.3938684">
  <ele>-0.79</ele>
  <time>2026-09-02T22:12:24Z</time>
  <course>80.34</course>
  <speed>0.01</speed>
  <fix>3d</fix>
</trkpt>
<trkpt lat="33.8103159" lon="-118.3938683">
  <ele>-0.897</ele>
  <time>2026-09-02T22:12:24Z</time>
  <course>59.11</course>
  <speed>0.03605551275463989</speed>
  <fix>3d</fix>
</trkpt>
<trkpt lat="33.8103161" lon="-118.3938684">
  <ele>-0.79</ele>
  <time>2026-09-02T22:12:24Z</time>
  <course>80.34</course>
  <speed>0.01</speed>
  <fix>3d</fix>
</trkpt>
<trkpt lat="33.8103159" lon="-118.3938683">
  <ele>-0.875</ele>
  <time>2026-09-02T22:12:24Z</time>
  <course>59.57</course>
  <speed>0.03605551275463989</speed>
  <fix>3d</fix>
</trkpt>
<trkpt lat="33.8103161" lon="-118.3938684">
  <ele>-0.76</ele>
  <time>2026-09-02T22:12:24Z</time>
  <course>86.59</course>
  <speed>0.01</speed>
  <fix>3d</fix>
</trkpt>
<trkpt lat="33.8103159" lon="-118.3938683">
  <ele>-0.855</ele>
  <time>2026-09-02T22:12:24Z</time>
  <course>59.96</course>
  <speed>0.03605551275463989</speed>
  <fix>3d</fix>
</trkpt>
<trkpt lat="33.8103161" lon="-118.3938684">
  <ele>-0.76</ele>
  <time>2026-09-02T22:12:24Z</time>
  <course>86.59</course>
  <speed>0.01</speed>
  <fix>3d</fix>
</trkpt>
<trkpt lat="33.8103159" lon="-118.3938683">
  <ele>-0.848</ele>
  <time>2026-09-02T22:12:24Z</time>
  <course>60.29</course>
  <speed>0.03605551275463989</speed>
  <fix>3d</fix>
</trkpt>
<trkpt lat="33.8103161" lon="-118.3938683">
  <ele>-0.72</ele>
  <time>2026-09-02T22:12:24Z</time>
  <course>95.63</course>
  <speed>0.01</speed>
  <fix>3d</fix>
</trkpt>
<trkpt lat="33.8103159" lon="-118.3938683">
  <ele>-0.84</ele>
  <time>2026-09-02T22:12:24Z</time>
  <course>60.57</course>
  <speed>0.03605551275463989</speed>
  <fix>3d</fix>
</trkpt>
<trkpt lat="33.8103161" lon="-118.3938683">
  <ele>-0.72</ele>
  <time>2026-09-02T22:12:24Z</time>
  <course>95.63</course>
  <speed>0.01</speed>
  <fix>3d</fix>
</trkpt>
<trkpt lat="33.8103159" lon="-118.3938683">
  <ele>-0.825</ele>
  <time>2026-09-02T22:12:24Z</time>
  <course>60.82</course>
  <speed>0.03605551275463989</speed>
  <fix>3d</fix>
</trkpt>
<trkpt lat="33.8103161" lon="-118.3938683">
  <ele>-0.68</ele>
  <time>2026-09-02T22:12:24Z</time>
  <course>100.42</course>
  <speed>0.01</speed>
  <fix>3d</fix>
</trkpt>
<trkpt lat="33.8103159" lon="-118.3938682">
  <ele>-0.817</ele>
  <time>2026-09-02T22:12:24Z</time>
  <course>61.05</course>
  <speed>0.0316227766016838</speed>
  <fix>3d</fix>
</trkpt>
<trkpt lat="33.8103161" lon="-118.3938683">
  <ele>-0.68</ele>
  <time>2026-09-02T22:12:24Z</time>
  <course>100.42</course>
  <speed>0.01</speed>
  <fix>3d</fix>
</trkpt>
<trkpt lat="33.8103159" lon="-118.3938682">
  <ele>-0.813</ele>
  <time>2026-09-02T22:12:24Z</time>
  <course>61.26</course>
  <speed>0.0316227766016838</speed>
  <fix>3d</fix>
</trkpt>
<trkpt lat="33.8103161" lon="-118.3938683">
  <ele>-0.65</ele>
  <time>2026-09-02T22:12:24Z</time>
  <course>101.68</course>
  <speed>0.01</speed>
  <fix>3d</fix>
</trkpt>
<trkpt lat="33.8103159" lon="-118.3938682">
  <ele>-0.804</ele>
  <time>2026-09-02T22:12:24Z</time>
  <course>61.45</course>
  <speed>0.0316227766016838</speed>
  <fix>3d</fix>
</trkpt>
<trkpt lat="33.8103161" lon="-118.3938683">
  <ele>-0.65</ele>
  <time>2026-09-02T22:12:24Z</time>
  <course>101.68</course>
  <speed>0.01</speed>
  <fix>3d</fix>
</trkpt>
<trkpt lat="33.8103159" lon="-118.3938682">
  <ele>-0.796</ele>
  <time>2026-09-02T22:12:24Z</time>
  <course>61.62</course>
  <speed>0.0316227766016838</speed>
  <fix>3d</fix>
</trkpt>
<trkpt lat="33.8103161" lon="-118.3938682">
  <ele>-0.63</ele>
  <time>2026-09-02T22:12:24Z</time>
  <course>101.43</course>
  <speed>0.01</speed>
  <fix>3d</fix>
</trkpt>
<trkpt lat="33.8103159" lon="-118.3938682">
  <ele>-0.791</ele>
  <time>2026-09-02T22:12:24Z</time>
  <course>61.78</course>
  <speed>0.0316227766016838</speed>
  <fix>3d</fix>
</trkpt>
<trkpt lat="33.8103161" lon="-118.3938682">
  <ele>-0.63</ele>
  <time>2026-09-02T22:12:24Z</time>
  <course>101.43</course>
  <speed>0.01</speed>
  <fix>3d</fix>
</trkpt>
<trkpt lat="33.8103159" lon="-118.3938682">
  <ele>-0.779</ele>
  <time>2026-09-02T22:12:24Z</time>
  <course>61.93</course>
  <speed>0.0316227766016838</speed>
  <fix>3d</fix>
</trkpt>
<trkpt lat="33.8103161" lon="-118.3938682">
  <ele>-0.61</ele>
  <time>2026-09-02T22:12:24Z</time>
  <course>100.65</course>
  <speed>0.01</speed>
  <fix>3d</fix>
</trkpt>
<trkpt lat="33.8103159" lon="-118.3938682">
  <ele>-0.757</ele>
  <time>2026-09-02T22:12:24Z</time>
  <course>62.07</course>
  <speed>0.0316227766016838</speed>
  <fix>3d</fix>
</trkpt>
<trkpt lat="33.8103161" lon="-118.3938682">
  <ele>-0.61</ele>
  <time>2026-09-02T22:12:24Z</time>
  <course>100.65</course>
  <speed>0.01</speed>
  <fix>3d</fix>
</trkpt>
<trkpt lat="33.8103159" lon="-118.3938682">
  <ele>-0.741</ele>
  <time>2026-09-02T22:12:24Z</time>
  <course>62.21</course>
  <speed>0.0316227766016838</speed>
  <fix>3d</fix>
</trkpt>
<trkpt lat="33.8103161" lon="-118.3938682">
  <ele>-0.58</ele>
  <time>2026-09-02T22:12:24Z</time>
  <course>100.02</course>
  <speed>0.01</speed>
  <fix>3d</fix>
</trkpt>
<trkpt lat="33.8103158" lon="-118.3938681">
  <ele>-0.73</ele>
  <time>2026-09-02T22:12:25Z</time>
  <course>62.33</course>
  <speed>0.0316227766016838</speed>
  <fix>3d</fix>
</trkpt>
<trkpt lat="33.8103161" lon="-118.3938682">
  <ele>-0.58</ele>
  <time>2026-09-02T22:12:25Z</time>
  <course>100.02</course>
  <speed>0.01</speed>
  <fix>3d</fix>
</trkpt>
<trkpt lat="33.8103158" lon="-118.3938681">
  <ele>-0.714</ele>
  <time>2026-09-02T22:12:25Z</time>
  <course>62.45</course>
  <speed>0.0316227766016838</speed>
  <fix>3d</fix>
</trkpt>
<trkpt lat="33.8103161" lon="-118.3938681">
  <ele>-0.56</ele>
  <time>2026-09-02T22:12:25Z</time>
  <course>99.87</course>
  <speed>0.01</speed>
  <fix>3d</fix>
</trkpt>
<trkpt lat="33.8103158" lon="-118.3938681">
  <ele>-0.694</ele>
  <time>2026-09-02T22:12:25Z</time>
  <course>62.56</course>
  <speed>0.0316227766016838</speed>
  <fix>3d</fix>
</trkpt>
<trkpt lat="33.8103161" lon="-118.3938681">
  <ele>-0.56</ele>
  <time>2026-09-02T22:12:25Z</time>
  <course>99.87</course>
  <speed>0.01</speed>
  <fix>3d</fix>
</trkpt>
<trkpt lat="33.8103158" lon="-118.3938681">
  <ele>-0.675</ele>
  <time>2026-09-02T22:12:25Z</time>
  <course>62.67</course>
  <speed>0.0316227766016838</speed>
  <fix>3d</fix>
</trkpt>
<trkpt lat="33.8103161" lon="-118.3938681">
  <ele>-0.53</ele>
  <time>2026-09-02T22:12:25Z</time>
  <course>100.13</course>
  <speed>0.01</speed>
  <fix>3d</fix>
</trkpt>
<trkpt lat="33.8103158" lon="-118.3938681">
  <ele>-0.653</ele>
  <time>2026-09-02T22:12:25Z</time>
  <course>62.77</course>
  <speed>0.0316227766016838</speed>
  <fix>3d</fix>
</trkpt>
<trkpt lat="33.8103161" lon="-118.3938681">
  <ele>-0.53</ele>
  <time>2026-09-02T22:12:25Z</time>
  <course>100.13</course>
  <speed>0.01</speed>
  <fix>3d</fix>
</trkpt>
<trkpt lat="33.8103158" lon="-118.3938681">
  <ele>-0.626</ele>
  <time>2026-09-02T22:12:25Z</time>
  <course>62.87</course>
  <speed>0.0316227766016838</speed>
  <fix>3d</fix>
</trkpt>
<trkpt lat="33.8103161" lon="-118.3938681">
  <ele>-0.52</ele>
  <time>2026-09-02T22:12:25Z</time>
  <course>100.5</course>
  <speed>0.01</speed>
  <fix>3d</fix>
</trkpt>
<trkpt lat="33.8103158" lon="-118.3938681">
  <ele>-0.596</ele>
  <time>2026-09-02T22:12:25Z</time>
  <course>62.96</course>
  <speed>0.0316227766016838</speed>
  <fix>3d</fix>
</trkpt>
<trkpt lat="33.8103161" lon="-118.3938681">
  <ele>-0.52</ele>
  <time>2026-09-02T22:12:25Z</time>
  <course>100.5</course>
  <speed>0.01</speed>
  <fix>3d</fix>
</trkpt>
<trkpt lat="33.8103158" lon="-118.3938681">
  <ele>-0.565</ele>
  <time>2026-09-02T22:12:25Z</time>
  <course>63.06</course>
  <speed>0.0316227766016838</speed>
  <fix>3d</fix>
</trkpt>
<trkpt lat="33.8103161" lon="-118.393868">
  <ele>-0.5</ele>
  <time>2026-09-02T22:12:25Z</time>
  <course>100.69</course>
  <speed>0.01</speed>
  <fix>3d</fix>
</trkpt>
<trkpt lat="33.8103158" lon="-118.3938681">
  <ele>-0.533</ele>
  <time>2026-09-02T22:12:25Z</time>
  <course>63.14</course>
  <speed>0.03</speed>
  <fix>3d</fix>
</trkpt>
<trkpt lat="33.8103161" lon="-118.393868">
  <ele>-0.5</ele>
  <time>2026-09-02T22:12:25Z</time>
  <course>100.69</course>
  <speed>0.01</speed>
  <fix>3d</fix>
</trkpt>
<trkpt lat="33.8103158" lon="-118.393868">
  <ele>-0.502</ele>
  <time>2026-09-02T22:12:25Z</time>
  <course>63.23</course>
  <speed>0.03</speed>
  <fix>3d</fix>
</trkpt>
<trkpt lat="33.8103161" lon="-118.393868">
  <ele>-0.48</ele>
  <time>2026-09-02T22:12:25Z</time>
  <course>100.61</course>
  <speed>0.01</speed>
  <fix>3d</fix>
</trkpt>
<trkpt lat="33.8103158" lon="-118.393868">
  <ele>-0.474</ele>
  <time>2026-09-02T22:12:25Z</time>
  <course>63.31</course>
  <speed>0.03</speed>
  <fix>3d</fix>
</trkpt>
<trkpt lat="33.8103161" lon="-118.393868">
  <ele>-0.48</ele>
  <time>2026-09-02T22:12:25Z</time>
  <course>100.61</course>
  <speed>0.01</speed>
  <fix>3d</fix>
</trkpt>
<trkpt lat="33.8103158" lon="-118.393868">
  <ele>-0.447</ele>
  <time>2026-09-02T22:12:25Z</time>
  <course>63.39</course>
  <speed>0.03</speed>
  <fix>3d</fix>
</trkpt>
<trkpt lat="33.8103161" lon="-118.393868">
  <ele>-0.45</ele>
  <time>2026-09-02T22:12:25Z</time>
  <course>100.35</course>
  <speed>0.01</speed>
  <fix>3d</fix>
</trkpt>
<trkpt lat="33.8103159" lon="-118.393868">
  <ele>-0.423</ele>
  <time>2026-09-02T22:12:25Z</time>
  <course>63.46</course>
  <speed>0.03</speed>
  <fix>3d</fix>
</trkpt>
<trkpt lat="33.8103161" lon="-118.393868">
  <ele>-0.45</ele>
  <time>2026-09-02T22:12:25Z</time>
  <course>100.35</course>
  <speed>0.01</speed>
  <fix>3d</fix>
</trkpt>
<trkpt lat="33.810313" lon="-118.3938669">
  <ele>0.0</ele>
  <time>2026-09-02T22:12:25Z</time>
  <course>0.0</course>
  <speed>0.0</speed>
  <fix>3d</fix>
</trkpt>
<trkpt lat="33.810313" lon="-118.3938669">
  <ele>0.0</ele>
  <time>2026-09-02T22:12:25Z</time>
  <course>0.0</course>
  <speed>0.0</speed>
  <fix>3d</fix>
</trkpt>
<trkpt lat="33.810313" lon="-118.3938669">
  <ele>0.0</ele>
  <time>2026-09-02T22:12:25Z</time>
  <course>173.5</course>
  <speed>0.0</speed>
  <fix>3d</fix>
</trkpt>
<trkpt lat="33.810313" lon="-118.3938669">
  <ele>0.15</ele>
  <time>2026-09-02T22:12:25Z</time>
  <course>0.0</course>
  <speed>0.0</speed>
  <fix>3d</fix>
</trkpt>
<trkpt lat="33.810313" lon="-118.3938669">
  <ele>0.0</ele>
  <time>2026-09-02T22:12:25Z</time>
  <course>173.5</course>
  <speed>0.0</speed>
  <fix>3d</fix>
</trkpt>
<trkpt lat="33.810313" lon="-118.3938669">
  <ele>0.15</ele>
  <time>2026-09-02T22:12:25Z</time>
  <course>0.0</course>
  <speed>0.0</speed>
  <fix>3d</fix>
</trkpt>
<trkpt lat="33.810313" lon="-118.3938669">
  <ele>0.0</ele>
  <time>2026-09-02T22:12:25Z</time>
  <course>173.5</course>
  <speed>0.0</speed>
  <fix>3d</fix>
</trkpt>
<trkpt lat="33.810313" lon="-118.3938669">
  <ele>0.14</ele>
  <time>2026-09-02T22:12:25Z</time>
  <course>0.0</course>
  <speed>0.0</speed>
  <fix>3d</fix>
</trkpt>
<trkpt lat="33.810313" lon="-118.3938669">
  <ele>0.0</ele>
  <time>2026-09-02T22:12:25Z</time>
  <course>173.5</course>
  <speed>0.0</speed>
  <fix>3d</fix>
</trkpt>
<trkpt lat="33.810313" lon="-118.3938669">
  <ele>0.14</ele>
  <time>2026-09-02T22:12:25Z</time>
  <course>0.0</course>
  <speed>0.0</speed>
  <fix>3d</fix>
</trkpt>
<trkpt lat="33.810313" lon="-118.3938669">
  <ele>0.0</ele>
  <time>2026-09-02T22:12:25Z</time>
  <course>173.5</course>
  <speed>0.0</speed>
  <fix>3d</fix>
</trkpt>
<trkpt lat="33.810313" lon="-118.3938669">
  <ele>0.13</ele>
  <time>2026-09-02T22:12:25Z</time>
  <course>0.0</course>
  <speed>0.0</speed>
  <fix>3d</fix>
</trkpt>
<trkpt lat="33.810313" lon="-118.3938669">
  <ele>0.0</ele>
  <time>2026-09-02T22:12:25Z</time>
  <course>173.5</course>
  <speed>0.0</speed>
  <fix>3d</fix>
</trkpt>
<trkpt lat="33.810313" lon="-118.3938669">
  <ele>0.13</ele>
  <time>2026-09-02T22:12:25Z</time>
  <course>0.0</course>
  <speed>0.0</speed>
  <fix>3d</fix>
</trkpt>
<trkpt lat="33.810313" lon="-118.3938669">
  <ele>0.0</ele>
  <time>2026-09-02T22:12:25Z</time>
  <course>173.5</course>
  <speed>0.0</speed>
  <fix>3d</fix>
</trkpt>
<trkpt lat="33.810313" lon="-118.3938669">
  <ele>0.12</ele>
  <time>2026-09-02T22:12:25Z</time>
  <course>0.0</course>
  <speed>0.0</speed>
  <fix>3d</fix>
</trkpt>
<trkpt lat="33.810313" lon="-118.3938669">
  <ele>0.0</ele>
  <time>2026-09-02T22:12:25Z</time>
  <course>173.5</course>
  <speed>0.0</speed>
  <fix>3d</fix>
</trkpt>
<trkpt lat="33.810313" lon="-118.3938669">
  <ele>0.12</ele>
  <time>2026-09-02T22:12:25Z</time>
  <course>0.0</course>
  <speed>0.0</speed>
  <fix>3d</fix>
</trkpt>
<trkpt lat="33.810313" lon="-118.3938669">
  <ele>0.0</ele>
  <time>2026-09-02T22:12:25Z</time>
  <course>173.5</course>
  <speed>0.0</speed>
  <fix>3d</fix>
</trkpt>
<trkpt lat="33.810313" lon="-118.3938669">
  <ele>0.11</ele>
  <time>2026-09-02T22:12:25Z</time>
  <course>0.0</course>
  <speed>0.0</speed>
  <fix>3d</fix>
</trkpt>
<trkpt lat="33.810313" lon="-118.3938669">
  <ele>0.0</ele>
  <time>2026-09-02T22:12:25Z</time>
  <course>173.5</course>
  <speed>0.0</speed>
  <fix>3d</fix>
</trkpt>
<trkpt lat="33.810313" lon="-118.3938669">
  <ele>0.35</ele>
  <time>2026-09-02T22:12:25Z</time>
  <course>0.0</course>
  <speed>0.0</speed>
  <fix>3d</fix>
</trkpt>
<trkpt lat="33.810313" lon="-118.3938669">
  <ele>0.0</ele>
  <time>2026-09-02T22:12:25Z</time>
  <course>176.36</course>
  <speed>0.0</speed>
  <fix>3d</fix>
</trkpt>
<trkpt lat="33.810313" lon="-118.3938669">
  <ele>0.36</ele>
  <time>2026-09-02T22:12:25Z</time>
  <course>0.0</course>
  <speed>0.0</speed>
  <fix>3d</fix>
</trkpt>
<trkpt lat="33.810313" lon="-118.3938669">
  <ele>0.0</ele>
  <time>2026-09-02T22:12:25Z</time>
  <course>178.57</course>
  <speed>0.0</speed>
  <fix>3d</fix>
</trkpt>
<trkpt lat="33.810313" lon="-118.3938669">
  <ele>0.0</ele>
  <time>2026-09-02T22:12:25Z</time>
  <course>180.17</course>
  <speed>0.0</speed>
  <fix>3d</fix>
</trkpt>
<trkpt lat="33.810313" lon="-118.3938669">
  <ele>0.36</ele>
  <time>2026-09-02T22:12:25Z</time>
  <course>0.0</course>
  <speed>0.0</speed>
  <fix>3d</fix>
</trkpt>
<trkpt lat="33.810313" lon="-118.3938669">
  <ele>0.0</ele>
  <time>2026-09-02T22:12:25Z</time>
  <course>181.4</course>
  <speed>0.0</speed>
  <fix>3d</fix>
</trkpt>
<trkpt lat="33.810313" lon="-118.3938669">
  <ele>0.34</ele>
  <time>2026-09-02T22:12:25Z</time>
  <course>0.0</course>
  <speed>0.0</speed>
  <fix>3d</fix>
</trkpt>
<trkpt lat="33.810313" lon="-118.3938669">
  <ele>0.0</ele>
  <time>2026-09-02T22:12:25Z</time>
  <course>182.33</course>
  <speed>0.0</speed>
  <fix>3d</fix>
</trkpt>
<trkpt lat="33.810313" lon="-118.3938669">
  <ele>0.0</ele>
  <time>2026-09-02T22:12:25Z</time>
  <course>0.0</course>
  <speed>0.0</speed>
  <fix>3d</fix>
</trkpt>
<trkpt lat="33.810313" lon="-118.3938669">
  <ele>0.31</ele>
  <time>2026-09-02T22:12:25Z</time>
  <course>0.0</course>
  <speed>0.0</speed>
  <fix>3d</fix>
</trkpt>
<trkpt lat="33.810313" lon="-118.3938669">
  <ele>0.0</ele>
  <time>2026-09-02T22:12:25Z</time>
  <course>0.0</course>
  <speed>0.0</speed>
  <fix>3d</fix>
</trkpt>
<trkpt lat="33.810313" lon="-118.3938669">
  <ele>0.29</ele>
  <time>2026-09-02T22:12:25Z</time>
  <course>0.0</course>
  <speed>0.0</speed>
  <fix>3d</fix>
</trkpt>
<trkpt lat="33.810313" lon="-118.3938669">
  <ele>0.0</ele>
  <time>2026-09-02T22:12:25Z</time>
  <course>0.0</course>
  <speed>0.0</speed>
  <fix>3d</fix>
</trkpt>
<trkpt lat="33.810313" lon="-118.3938669">
  <ele>0.0</ele>
  <time>2026-09-02T22:12:25Z</time>
  <course>0.0</course>
  <speed>0.0</speed>
  <fix>3d</fix>
</trkpt>
<trkpt lat="33.810313" lon="-118.3938669">
  <ele>0.24</ele>
  <time>2026-09-02T22:12:25Z</time>
  <course>0.0</course>
  <speed>0.0</speed>
  <fix>3d</fix>
</trkpt>
<trkpt lat="33.810313" lon="-118.3938669">
  <ele>0.0</ele>
  <time>2026-09-02T22:12:25Z</time>
  <course>0.0</course>
  <speed>0.0</speed>
  <fix>3d</fix>
</trkpt>
<trkpt lat="33.810313" lon="-118.3938669">
  <ele>0.22</ele>
  <time>2026-09-02T22:12:25Z</time>
  <course>0.0</course>
  <speed>0.0</speed>
  <fix>3d</fix>
</trkpt>
<trkpt lat="33.810313" lon="-118.3938669">
  <ele>0.0</ele>
  <time>2026-09-02T22:12:25Z</time>
  <course>0.0</course>
  <speed>0.0</speed>
  <fix>3d</fix>
</trkpt>
<trkpt lat="33.810313" lon="-118.3938669">
  <ele>0.22</ele>
  <time>2026-09-02T22:12:25Z</time>
  <course>0.0</course>
  <speed>0.0</speed>
  <fix>3d</fix>
</trkpt>
<trkpt lat="33.810313" lon="-118.3938669">
  <ele>0.0</ele>
  <time>2026-09-02T22:12:25Z</time>
  <course>0.0</course>
  <speed>0.0</speed>
  <fix>3d</fix>
</trkpt>
<trkpt lat="33.810313" lon="-118.3938669">
  <ele>0.2</ele>
  <time>2026-09-02T22:12:25Z</time>
  <course>0.0</course>
  <speed>0.0</speed>
  <fix>3d</fix>
</trkpt>
<trkpt lat="33.810313" lon="-118.3938669">
  <ele>0.0</ele>
  <time>2026-09-02T22:12:25Z</time>
  <course>0.0</course>
  <speed>0.0</speed>
  <fix>3d</fix>
</trkpt>
<trkpt lat="33.810313" lon="-118.3938669">
  <ele>0.2</ele>
  <time>2026-09-02T22:12:25Z</time>
  <course>0.0</course>
  <speed>0.0</speed>
  <fix>3d</fix>
</trkpt>
<trkpt lat="33.810313" lon="-118.3938669">
  <ele>0.0</ele>
  <time>2026-09-02T22:12:25Z</time>
  <course>0.0</course>
  <speed>0.0</speed>
  <fix>3d</fix>
</trkpt>
<trkpt lat="33.810313" lon="-118.3938669">
  <ele>0.18</ele>
  <time>2026-09-02T22:12:25Z</time>
  <course>0.0</course>
  <speed>0.0</speed>
  <fix>3d</fix>
</trkpt>
<trkpt lat="33.810313" lon="-118.3938669">
  <ele>0.0</ele>
  <time>2026-09-02T22:12:25Z</time>
  <course>0.0</course>
  <speed>0.0</speed>
  <fix>3d</fix>
</trkpt>
<trkpt lat="33.810313" lon="-118.3938669">
  <ele>0.18</ele>
  <time>2026-09-02T22:12:25Z</time>
  <course>0.0</course>
  <speed>0.0</speed>
  <fix>3d</fix>
</trkpt>
<trkpt lat="33.810313" lon="-118.3938669">
  <ele>0.0</ele>
  <time>2026-09-02T22:12:26Z</time>
  <course>215.01</course>
  <speed>0.0</speed>
  <fix>3d</fix>
</trkpt>
<trkpt lat="33.810313" lon="-118.3938669">
  <ele>0.17</ele>
  <time>2026-09-02T22:12:26Z</time>
  <course>0.0</course>
  <speed>0.0</speed>
  <fix>3d</fix>
</trkpt>
<trkpt lat="33.810313" lon="-118.3938669">
  <ele>0.0</ele>
  <time>2026-09-02T22:12:26Z</time>
  <course>215.01</course>
  <speed>0.0</speed>
  <fix>3d</fix>
</trkpt>
<trkpt lat="33.810313" lon="-118.3938669">
  <ele>0.17</ele>
  <time>2026-09-02T22:12:26Z</time>
  <course>0.0</course>
  <speed>0.0</speed>
  <fix>3d</fix>
</trkpt>
<trkpt lat="33.810313" lon="-118.3938669">
  <ele>0.0</ele>
  <time>2026-09-02T22:12:26Z</time>
  <course>215.01</course>
  <speed>0.0</speed>
  <fix>3d</fix>
</trkpt>
<trkpt lat="33.810313" lon="-118.3938669">
  <ele>0.15</ele>
  <time>2026-09-02T22:12:26Z</time>
  <course>0.0</course>
  <speed>0.0</speed>
  <fix>3d</fix>
</trkpt>
<trkpt lat="33.810313" lon="-118.3938669">
  <ele>0.0</ele>
  <time>2026-09-02T22:12:26Z</time>
  <course>215.01</course>
  <speed>0.0</speed>
  <fix>3d</fix>
</trkpt>
<trkpt lat="33.810313" lon="-118.3938669">
  <ele>0.15</ele>
  <time>2026-09-02T22:12:26Z</time>
  <course>0.0</course>
  <speed>0.0</speed>
  <fix>3d</fix>
</trkpt>
<trkpt lat="33.810313" lon="-118.3938669">
  <ele>0.0</ele>
  <time>2026-09-02T22:12:26Z</time>
  <course>215.01</course>
  <speed>0.0</speed>
  <fix>3d</fix>
</trkpt>
<trkpt lat="33.810313" lon="-118.3938669">
  <ele>0.13</ele>
  <time>2026-09-02T22:12:26Z</time>
  <course>0.0</course>
  <speed>0.0</speed>
  <fix>3d</fix>
</trkpt>
<trkpt lat="33.810313" lon="-118.3938669">
  <ele>0.0</ele>
  <time>2026-09-02T22:12:26Z</time>
  <course>215.01</course>
  <speed>0.0</speed>
  <fix>3d</fix>
</trkpt>
<trkpt lat="33.810313" lon="-118.3938669">
  <ele>0.13</ele>
  <time>2026-09-02T22:12:26Z</time>
  <course>0.0</course>
  <speed>0.0</speed>
  <fix>3d</fix>
</trkpt>
<trkpt lat="33.810313" lon="-118.3938669">
  <ele>0.0</ele>
  <time>2026-09-02T22:12:26Z</time>
  <course>215.01</course>
  <speed>0.0</speed>
  <fix>3d</fix>
</trkpt>
<trkpt lat="33.810313" lon="-118.3938669">
  <ele>0.11</ele>
  <time>2026-09-02T22:12:26Z</time>
  <course>0.0</course>
  <speed>0.0</speed>
  <fix>3d</fix>
</trkpt>
<trkpt lat="33.810313" lon="-118.3938669">
  <ele>0.0</ele>
  <time>2026-09-02T22:12:26Z</time>
  <course>215.01</course>
  <speed>0.0</speed>
  <fix>3d</fix>
</trkpt>
<trkpt lat="33.810313" lon="-118.3938669">
  <ele>0.11</ele>
  <time>2026-09-02T22:12:26Z</time>
  <course>0.0</course>
  <speed>0.0</speed>
  <fix>3d</fix>
</trkpt>
<trkpt lat="33.810313" lon="-118.3938669">
  <ele>0.0</ele>
  <time>2026-09-02T22:12:26Z</time>
  <course>215.01</course>
  <speed>0.0</speed>
  <fix>3d</fix>
</trkpt>
<trkpt lat="33.810313" lon="-118.3938669">
  <ele>0.11</ele>
  <time>2026-09-02T22:12:26Z</time>
  <course>0.0</course>
  <speed>0.0</speed>
  <fix>3d</fix>
</trkpt>
<trkpt lat="33.810313" lon="-118.3938669">
  <ele>0.0</ele>
  <time>2026-09-02T22:12:26Z</time>
  <course>215.01</course>
  <speed>0.0</speed>
  <fix>3d</fix>
</trkpt>
<trkpt lat="33.810313" lon="-118.3938669">
  <ele>0.11</ele>
  <time>2026-09-02T22:12:26Z</time>
  <course>0.0</course>
  <speed>0.0</speed>
  <fix>3d</fix>
</trkpt>
<trkpt lat="33.810313" lon="-118.3938669">
  <ele>0.0</ele>
  <time>2026-09-02T22:12:26Z</time>
  <course>215.01</course>
  <speed>0.0</speed>
  <fix>3d</fix>
</trkpt>
<trkpt lat="33.810313" lon="-118.3938669">
  <ele>0.12</ele>
  <time>2026-09-02T22:12:26Z</time>
  <course>0.0</course>
  <speed>0.0</speed>
  <fix>3d</fix>
</trkpt>
<trkpt lat="33.810313" lon="-118.3938669">
  <ele>0.0</ele>
  <time>2026-09-02T22:12:26Z</time>
  <course>215.01</course>
  <speed>0.0</speed>
  <fix>3d</fix>
</trkpt>
<trkpt lat="33.810313" lon="-118.3938669">
  <ele>0.12</ele>
  <time>2026-09-02T22:12:26Z</time>
  <course>0.0</course>
  <speed>0.0</speed>
  <fix>3d</fix>
</trkpt>
<trkpt lat="33.810313" lon="-118.3938669">
  <ele>0.0</ele>
  <time>2026-09-02T22:12:26Z</time>
  <course>215.01</course>
  <speed>0.0</speed>
  <fix>3d</fix>
</trkpt>
<trkpt lat="33.810313" lon="-118.3938669">
  <ele>0.13</ele>
  <time>2026-09-02T22:12:26Z</time>
  <course>0.0</course>
  <speed>0.0</speed>
  <fix>3d</fix>
</trkpt>
<trkpt lat="33.810313" lon="-118.3938669">
  <ele>0.0</ele>
  <time>2026-09-02T22:12:26Z</time>
  <course>215.01</course>
  <speed>0.0</speed>
  <fix>3d</fix>
</trkpt>
<trkpt lat="33.810313" lon="-118.3938669">
  <ele>0.13</ele>
  <time>2026-09-02T22:12:26Z</time>
  <course>0.0</course>
  <speed>0.0</speed>
  <fix>3d</fix>
</trkpt>
<trkpt lat="33.810313" lon="-118.3938669">
  <ele>0.0</ele>
  <time>2026-09-02T22:12:26Z</time>
  <course>215.01</course>
  <speed>0.0</speed>
  <fix>3d</fix>
</trkpt>
<trkpt lat="33.810313" lon="-118.3938669">
  <ele>0.14</ele>
  <time>2026-09-02T22:12:26Z</time>
  <course>0.0</course>
  <speed>0.0</speed>
  <fix>3d</fix>
</trkpt>
<trkpt lat="33.810313" lon="-118.3938669">
  <ele>0.0</ele>
  <time>2026-09-02T22:12:26Z</time>
  <course>215.01</course>
  <speed>0.0</speed>
  <fix>3d</fix>
</trkpt>
<trkpt lat="33.810313" lon="-118.3938669">
  <ele>0.14</ele>
  <time>2026-09-02T22:12:26Z</time>
  <course>0.0</course>
  <speed>0.0</speed>
  <fix>3d</fix>
</trkpt>
<trkpt lat="33.810313" lon="-118.3938669">
  <ele>0.0</ele>
  <time>2026-09-02T22:12:26Z</time>
  <course>215.01</course>
  <speed>0.0</speed>
  <fix>3d</fix>
</trkpt>
<trkpt lat="33.810313" lon="-118.3938669">
  <ele>0.15</ele>
  <time>2026-09-02T22:12:26Z</time>
  <course>0.0</course>
  <speed>0.0</speed>
  <fix>3d</fix>
</trkpt>
<trkpt lat="33.810313" lon="-118.3938669">
  <ele>0.0</ele>
  <time>2026-09-02T22:12:26Z</time>
  <course>215.01</course>
  <speed>0.0</speed>
  <fix>3d</fix>
</trkpt>
<trkpt lat="33.810313" lon="-118.3938669">
  <ele>0.15</ele>
  <time>2026-09-02T22:12:26Z</time>
  <course>0.0</course>
  <speed>0.0</speed>
  <fix>3d</fix>
</trkpt>
<trkpt lat="33.810313" lon="-118.3938669">
  <ele>0.0</ele>
  <time>2026-09-02T22:12:26Z</time>
  <course>215.01</course>
  <speed>0.0</speed>
  <fix>3d</fix>
</trkpt>
<trkpt lat="33.810313" lon="-118.3938669">
  <ele>0.16</ele>
  <time>2026-09-02T22:12:26Z</time>
  <course>0.0</course>
  <speed>0.0</speed>
  <fix>3d</fix>
</trkpt>
<trkpt lat="33.810313" lon="-118.3938669">
  <ele>0.0</ele>
  <time>2026-09-02T22:12:26Z</time>
  <course>215.01</course>
  <speed>0.0</speed>
  <fix>3d</fix>
</trkpt>
<trkpt lat="33.810313" lon="-118.3938669">
  <ele>0.16</ele>
  <time>2026-09-02T22:12:26Z</time>
  <course>0.0</course>
  <speed>0.0</speed>
  <fix>3d</fix>
</trkpt>
<trkpt lat="33.810313" lon="-118.3938669">
  <ele>0.0</ele>
  <time>2026-09-02T22:12:26Z</time>
  <course>215.01</course>
  <speed>0.0</speed>
  <fix>3d</fix>
</trkpt>
<trkpt lat="33.810313" lon="-118.3938669">
  <ele>0.16</ele>
  <time>2026-09-02T22:12:26Z</time>
  <course>0.0</course>
  <speed>0.0</speed>
  <fix>3d</fix>
</trkpt>
<trkpt lat="33.810313" lon="-118.3938669">
  <ele>0.0</ele>
  <time>2026-09-02T22:12:26Z</time>
  <course>215.01</course>
  <speed>0.0</speed>
  <fix>3d</fix>
</trkpt>
<trkpt lat="33.810313" lon="-118.3938669">
  <ele>0.16</ele>
  <time>2026-09-02T22:12:26Z</time>
  <course>0.0</course>
  <speed>0.0</speed>
  <fix>3d</fix>
</trkpt>
<trkpt lat="33.810313" lon="-118.3938669">
  <ele>0.0</ele>
  <time>2026-09-02T22:12:26Z</time>
  <course>215.01</course>
  <speed>0.0</speed>
  <fix>3d</fix>
</trkpt>
<trkpt lat="33.810313" lon="-118.3938669">
  <ele>0.16</ele>
  <time>2026-09-02T22:12:26Z</time>
  <course>0.0</course>
  <speed>0.0</speed>
  <fix>3d</fix>
</trkpt>
<trkpt lat="33.810313" lon="-118.3938669">
  <ele>0.0</ele>
  <time>2026-09-02T22:12:26Z</time>
  <course>215.01</course>
  <speed>0.0</speed>
  <fix>3d</fix>
</trkpt>
<trkpt lat="33.810313" lon="-118.3938669">
  <ele>0.16</ele>
  <time>2026-09-02T22:12:26Z</time>
  <course>0.0</course>
  <speed>0.0</speed>
  <fix>3d</fix>
</trkpt>
<trkpt lat="33.810313" lon="-118.3938669">
  <ele>0.0</ele>
  <time>2026-09-02T22:12:26Z</time>
  <course>215.01</course>
  <speed>0.0</speed>
  <fix>3d</fix>
</trkpt>
<trkpt lat="33.810313" lon="-118.3938669">
  <ele>0.16</ele>
  <time>2026-09-02T22:12:26Z</time>
  <course>0.0</course>
  <speed>0.0</speed>
  <fix>3d</fix>
</trkpt>
<trkpt lat="33.810313" lon="-118.3938669">
  <ele>0.0</ele>
  <time>2026-09-02T22:12:26Z</time>
  <course>215.01</course>
  <speed>0.0</speed>
  <fix>3d</fix>
</trkpt>
<trkpt lat="33.810313" lon="-118.3938669">
  <ele>0.16</ele>
  <time>2026-09-02T22:12:26Z</time>
  <course>0.0</course>
  <speed>0.0</speed>
  <fix>3d</fix>
</trkpt>
<trkpt lat="33.810313" lon="-118.3938669">
  <ele>0.0</ele>
  <time>2026-09-02T22:12:26Z</time>
  <course>215.01</course>
  <speed>0.0</speed>
  <fix>3d</fix>
</trkpt>
<trkpt lat="33.810313" lon="-118.3938669">
  <ele>0.15</ele>
  <time>2026-09-02T22:12:26Z</time>
  <course>0.0</course>
  <speed>0.0</speed>
  <fix>3d</fix>
</trkpt>
<trkpt lat="33.810313" lon="-118.3938669">
  <ele>0.0</ele>
  <time>2026-09-02T22:12:26Z</time>
  <course>215.01</course>
  <speed>0.0</speed>
  <fix>3d</fix>
</trkpt>
<trkpt lat="33.810313" lon="-118.3938669">
  <ele>0.15</ele>
  <time>2026-09-02T22:12:26Z</time>
  <course>0.0</course>
  <speed>0.0</speed>
  <fix>3d</fix>
</trkpt>
<trkpt lat="33.810313" lon="-118.3938669">
  <ele>0.0</ele>
  <time>2026-09-02T22:12:26Z</time>
  <course>215.01</course>
  <speed>0.0</speed>
  <fix>3d</fix>
</trkpt>
<trkpt lat="33.810313" lon="-118.3938669">
  <ele>0.15</ele>
  <time>2026-09-02T22:12:26Z</time>
  <course>0.0</course>
  <speed>0.0</speed>
  <fix>3d</fix>
</trkpt>
<trkpt lat="33.810313" lon="-118.3938669">
  <ele>0.0</ele>
  <time>2026-09-02T22:12:26Z</time>
  <course>215.01</course>
  <speed>0.0</speed>
  <fix>3d</fix>
</trkpt>
<trkpt lat="33.810313" lon="-118.3938669">
  <ele>0.15</ele>
  <time>2026-09-02T22:12:26Z</time>
  <course>0.0</course>
  <speed>0.0</speed>
  <fix>3d</fix>
</trkpt>
<trkpt lat="33.810313" lon="-118.3938669">
  <ele>0.0</ele>
  <time>2026-09-02T22:12:26Z</time>
  <course>215.01</course>
  <speed>0.0</speed>
  <fix>3d</fix>
</trkpt>
<trkpt lat="33.810313" lon="-118.3938669">
  <ele>0.14</ele>
  <time>2026-09-02T22:12:26Z</time>
  <course>0.0</course>
  <speed>0.0</speed>
  <fix>3d</fix>
</trkpt>
<trkpt lat="33.810313" lon="-118.3938669">
  <ele>0.0</ele>
  <time>2026-09-02T22:12:26Z</time>
  <course>215.01</course>
  <speed>0.0</speed>
  <fix>3d</fix>
</trkpt>
<trkpt lat="33.810313" lon="-118.3938669">
  <ele>0.14</ele>
  <time>2026-09-02T22:12:26Z</time>
  <course>0.0</course>
  <speed>0.0</speed>
  <fix>3d</fix>
</trkpt>
<trkpt lat="33.810313" lon="-118.3938669">
  <ele>0.0</ele>
  <time>2026-09-02T22:12:26Z</time>
  <course>215.01</course>
  <speed>0.0</speed>
  <fix>3d</fix>
</trkpt>
<trkpt lat="33.810313" lon="-118.3938669">
  <ele>0.13</ele>
  <time>2026-09-02T22:12:26Z</time>
  <course>0.0</course>
  <speed>0.0</speed>
  <fix>3d</fix>
</trkpt>
<trkpt lat="33.810313" lon="-118.3938669">
  <ele>0.0</ele>
  <time>2026-09-02T22:12:26Z</time>
  <course>215.01</course>
  <speed>0.0</speed>
  <fix>3d</fix>
</trkpt>
<trkpt lat="33.810313" lon="-118.3938669">
  <ele>0.13</ele>
  <time>2026-09-02T22:12:26Z</time>
  <course>0.0</course>
  <speed>0.0</speed>
  <fix>3d</fix>
</trkpt>
<trkpt lat="33.810313" lon="-118.3938669">
  <ele>0.0</ele>
  <time>2026-09-02T22:12:26Z</time>
  <course>215.01</course>
  <speed>0.0</speed>
  <fix>3d</fix>
</trkpt>
<trkpt lat="33.810313" lon="-118.3938669">
  <ele>0.12</ele>
  <time>2026-09-02T22:12:26Z</time>
  <course>0.0</course>
  <speed>0.0</speed>
  <fix>3d</fix>
</trkpt>
<trkpt lat="33.810313" lon="-118.3938669">
  <ele>0.0</ele>
  <time>2026-09-02T22:12:26Z</time>
  <course>215.01</course>
  <speed>0.0</speed>
  <fix>3d</fix>
</trkpt>
<trkpt lat="33.810313" lon="-118.3938669">
  <ele>0.12</ele>
  <time>2026-09-02T22:12:26Z</time>
  <course>0.0</course>
  <speed>0.0</speed>
  <fix>3d</fix>
</trkpt>
<trkpt lat="33.810313" lon="-118.3938669">
  <ele>0.0</ele>
  <time>2026-09-02T22:12:26Z</time>
  <course>215.01</course>
  <speed>0.0</speed>
  <fix>3d</fix>
</trkpt>
<trkpt lat="33.810313" lon="-118.3938669">
  <ele>0.11</ele>
  <time>2026-09-02T22:12:26Z</time>
  <course>0.0</course>
  <speed>0.0</speed>
  <fix>3d</fix>
</trkpt>
<trkpt lat="33.810313" lon="-118.3938669">
  <ele>0.0</ele>
  <time>2026-09-02T22:12:26Z</time>
  <course>215.01</course>
  <speed>0.0</speed>
  <fix>3d</fix>
</trkpt>
<trkpt lat="33.810313" lon="-118.3938669">
  <ele>0.11</ele>
  <time>2026-09-02T22:12:26Z</time>
  <course>0.0</course>
  <speed>0.0</speed>
  <fix>3d</fix>
</trkpt>
<trkpt lat="33.810313" lon="-118.3938669">
  <ele>0.0</ele>
  <time>2026-09-02T22:12:26Z</time>
  <course>215.01</course>
  <speed>0.0</speed>
  <fix>3d</fix>
</trkpt>
<trkpt lat="33.810313" lon="-118.3938669">
  <ele>0.11</ele>
  <time>2026-09-02T22:12:26Z</time>
  <course>0.0</course>
  <speed>0.0</speed>
  <fix>3d</fix>
</trkpt>
<trkpt lat="33.810313" lon="-118.3938669">
  <ele>0.0</ele>
  <time>2026-09-02T22:12:26Z</time>
  <course>215.01</course>
  <speed>0.0</speed>
  <fix>3d</fix>
</trkpt>
<trkpt lat="33.810313" lon="-118.3938669">
  <ele>0.11</ele>
  <time>2026-09-02T22:12:26Z</time>
  <course>0.0</course>
  <speed>0.0</speed>
  <fix>3d</fix>
</trkpt>
<trkpt lat="33.810313" lon="-118.3938669">
  <ele>0.0</ele>
  <time>2026-09-02T22:12:26Z</time>
  <course>215.01</course>
  <speed>0.0</speed>
  <fix>3d</fix>
</trkpt>
<trkpt lat="33.810313" lon="-118.3938669">
  <ele>0.12</ele>
  <time>2026-09-02T22:12:26Z</time>
  <course>0.0</course>
  <speed>0.0</speed>
  <fix>3d</fix>
</trkpt>
<trkpt lat="33.810313" lon="-118.3938669">
  <ele>0.0</ele>
  <time>2026-09-02T22:12:26Z</time>
  <course>215.01</course>
  <speed>0.0</speed>
  <fix>3d</fix>
</trkpt>
<trkpt lat="33.810313" lon="-118.3938669">
  <ele>0.12</ele>
  <time>2026-09-02T22:12:26Z</time>
  <course>0.0</course>
  <speed>0.0</speed>
  <fix>3d</fix>
</trkpt>
<trkpt lat="33.810313" lon="-118.3938669">
  <ele>0.0</ele>
  <time>2026-09-02T22:12:26Z</time>
  <course>215.01</course>
  <speed>0.0</speed>
  <fix>3d</fix>
</trkpt>
<trkpt lat="33.810313" lon="-118.3938669">
  <ele>0.13</ele>
  <time>2026-09-02T22:12:26Z</time>
  <course>0.0</course>
  <speed>0.0</speed>
  <fix>3d</fix>
</trkpt>
<trkpt lat="33.810313" lon="-118.3938669">
  <ele>0.0</ele>
  <time>2026-09-02T22:12:26Z</time>
  <course>215.01</course>
  <speed>0.0</speed>
  <fix>3d</fix>
</trkpt>
<trkpt lat="33.810313" lon="-118.3938669">
  <ele>0.13</ele>
  <time>2026-09-02T22:12:26Z</time>
  <course>0.0</course>
  <speed>0.0</speed>
  <fix>3d</fix>
</trkpt>
<trkpt lat="33.810313" lon="-118.3938669">
  <ele>0.0</ele>
  <time>2026-09-02T22:12:26Z</time>
  <course>215.01</course>
  <speed>0.0</speed>
  <fix>3d</fix>
</trkpt>
<trkpt lat="33.810313" lon="-118.3938669">
  <ele>0.14</ele>
  <time>2026-09-02T22:12:26Z</time>
  <course>0.0</course>
  <speed>0.0</speed>
  <fix>3d</fix>
</trkpt>
<trkpt lat="33.810313" lon="-118.3938669">
  <ele>0.0</ele>
  <time>2026-09-02T22:12:26Z</time>
  <course>215.01</course>
  <speed>0.0</speed>
  <fix>3d</fix>
</trkpt>
<trkpt lat="33.810313" lon="-118.3938669">
  <ele>0.14</ele>
  <time>2026-09-02T22:12:26Z</time>
  <course>0.0</course>
  <speed>0.0</speed>
  <fix>3d</fix>
</trkpt>
<trkpt lat="33.810313" lon="-118.3938669">
  <ele>0.0</ele>
  <time>2026-09-02T22:12:26Z</time>
  <course>215.01</course>
  <speed>0.0</speed>
  <fix>3d</fix>
</trkpt>
<trkpt lat="33.810313" lon="-118.3938669">
  <ele>0.14</ele>
  <time>2026-09-02T22:12:26Z</time>
  <course>0.0</course>
  <speed>0.0</speed>
  <fix>3d</fix>
</trkpt>
<trkpt lat="33.810313" lon="-118.3938669">
  <ele>0.0</ele>
  <time>2026-09-02T22:12:26Z</time>
  <course>215.01</course>
  <speed>0.0</speed>
  <fix>3d</fix>
</trkpt>
<trkpt lat="33.810313" lon="-118.3938669">
  <ele>0.14</ele>
  <time>2026-09-02T22:12:26Z</time>
  <course>0.0</course>
  <speed>0.0</speed>
  <fix>3d</fix>
</trkpt>
<trkpt lat="33.810313" lon="-118.3938669">
  <ele>0.0</ele>
  <time>2026-09-02T22:12:26Z</time>
  <course>215.01</course>
  <speed>0.0</speed>
  <fix>3d</fix>
</trkpt>
<trkpt lat="33.810313" lon="-118.3938669">
  <ele>0.14</ele>
  <time>2026-09-02T22:12:26Z</time>
  <course>0.0</course>
  <speed>0.0</speed>
  <fix>3d</fix>
</trkpt>
<trkpt lat="33.810313" lon="-118.3938669">
  <ele>0.0</ele>
  <time>2026-09-02T22:12:26Z</time>
  <course>215.01</course>
  <speed>0.0</speed>
  <fix>3d</fix>
</trkpt>
<trkpt lat="33.810313" lon="-118.3938669">
  <ele>0.14</ele>
  <time>2026-09-02T22:12:26Z</time>
  <course>0.0</course>
  <speed>0.0</speed>
  <fix>3d</fix>
</trkpt>
<trkpt lat="33.810313" lon="-118.3938669">
  <ele>0.0</ele>
  <time>2026-09-02T22:12:26Z</time>
  <course>215.01</course>
  <speed>0.0</speed>
  <fix>3d</fix>
</trkpt>
<trkpt lat="33.810313" lon="-118.3938669">
  <ele>0.14</ele>
  <time>2026-09-02T22:12:26Z</time>
  <course>0.0</course>
  <speed>0.0</speed>
  <fix>3d</fix>
</trkpt>
<trkpt lat="33.810313" lon="-118.3938669">
  <ele>0.0</ele>
  <time>2026-09-02T22:12:26Z</time>
  <course>215.01</course>
  <speed>0.0</speed>
  <fix>3d</fix>
</trkpt>
<trkpt lat="33.810313" lon="-118.3938669">
  <ele>0.14</ele>
  <time>2026-09-02T22:12:26Z</time>
  <course>0.0</course>
  <speed>0.0</speed>
  <fix>3d</fix>
</trkpt>
<trkpt lat="33.810313" lon="-118.3938669">
  <ele>0.0</ele>
  <time>2026-09-02T22:12:26Z</time>
  <course>215.01</course>
  <speed>0.0</speed>
  <fix>3d</fix>
</trkpt>
<trkpt lat="33.810313" lon="-118.3938669">
  <ele>0.14</ele>
  <time>2026-09-02T22:12:26Z</time>
  <course>0.0</course>
  <speed>0.0</speed>
  <fix>3d</fix>
</trkpt>
<trkpt lat="33.810313" lon="-118.3938669">
  <ele>0.0</ele>
  <time>2026-09-02T22:12:26Z</time>
  <course>215.01</course>
  <speed>0.0</speed>
  <fix>3d</fix>
</trkpt>
<trkpt lat="33.810313" lon="-118.3938669">
  <ele>0.14</ele>
  <time>2026-09-02T22:12:26Z</time>
  <course>0.0</course>
  <speed>0.0</speed>
  <fix>3d</fix>
</trkpt>
<trkpt lat="33.810313" lon="-118.3938669">
  <ele>0.0</ele>
  <time>2026-09-02T22:12:26Z</time>
  <course>215.01</course>
  <speed>0.0</speed>
  <fix>3d</fix>
</trkpt>
<trkpt lat="33.810313" lon="-118.3938669">
  <ele>0.13</ele>
  <time>2026-09-02T22:12:26Z</time>
  <course>0.0</course>
  <speed>0.0</speed>
  <fix>3d</fix>
</trkpt>
<trkpt lat="33.810313" lon="-118.3938669">
  <ele>0.0</ele>
  <time>2026-09-02T22:12:26Z</time>
  <course>215.01</course>
  <speed>0.0</speed>
  <fix>3d</fix>
</trkpt>
<trkpt lat="33.810313" lon="-118.3938669">
  <ele>0.13</ele>
  <time>2026-09-02T22:12:26Z</time>
  <course>0.0</course>
  <speed>0.0</speed>
  <fix>3d</fix>
</trkpt>
<trkpt lat="33.810313" lon="-118.3938669">
  <ele>0.0</ele>
  <time>2026-09-02T22:12:26Z</time>
  <course>215.01</course>
  <speed>0.0</speed>
  <fix>3d</fix>
</trkpt>
<trkpt lat="33.810313" lon="-118.3938669">
  <ele>0.12</ele>
  <time>2026-09-02T22:12:26Z</time>
  <course>0.0</course>
  <speed>0.0</speed>
  <fix>3d</fix>
</trkpt>
<trkpt lat="33.810313" lon="-118.3938669">
  <ele>0.0</ele>
  <time>2026-09-02T22:12:26Z</time>
  <course>215.01</course>
  <speed>0.0</speed>
  <fix>3d</fix>
</trkpt>
<trkpt lat="33.810313" lon="-118.3938669">
  <ele>0.12</ele>
  <time>2026-09-02T22:12:26Z</time>
  <course>0.0</course>
  <speed>0.0</speed>
  <fix>3d</fix>
</trkpt>
<trkpt lat="33.810313" lon="-118.3938669">
  <ele>0.0</ele>
  <time>2026-09-02T22:12:26Z</time>
  <course>215.01</course>
  <speed>0.0</speed>
  <fix>3d</fix>
</trkpt>
<trkpt lat="33.810313" lon="-118.3938669">
  <ele>0.11</ele>
  <time>2026-09-02T22:12:26Z</time>
  <course>0.0</course>
  <speed>0.0</speed>
  <fix>3d</fix>
</trkpt>
<trkpt lat="33.810313" lon="-118.3938669">
  <ele>0.0</ele>
  <time>2026-09-02T22:12:26Z</time>
  <course>215.01</course>
  <speed>0.0</speed>
  <fix>3d</fix>
</trkpt>
<trkpt lat="33.810313" lon="-118.3938669">
  <ele>0.11</ele>
  <time>2026-09-02T22:12:26Z</time>
  <course>0.0</course>
  <speed>0.0</speed>
  <fix>3d</fix>
</trkpt>
<trkpt lat="33.810313" lon="-118.3938669">
  <ele>0.0</ele>
  <time>2026-09-02T22:12:26Z</time>
  <course>215.01</course>
  <speed>0.0</speed>
  <fix>3d</fix>
</trkpt>
<trkpt lat="33.810313" lon="-118.3938669">
  <ele>0.11</ele>
  <time>2026-09-02T22:12:26Z</time>
  <course>0.0</course>
  <speed>0.0</speed>
  <fix>3d</fix>
</trkpt>
<trkpt lat="33.810313" lon="-118.3938669">
  <ele>0.0</ele>
  <time>2026-09-02T22:12:26Z</time>
  <course>215.01</course>
  <speed>0.0</speed>
  <fix>3d</fix>
</trkpt>
<trkpt lat="33.810313" lon="-118.3938669">
  <ele>0.11</ele>
  <time>2026-09-02T22:12:26Z</time>
  <course>0.0</course>
  <speed>0.0</speed>
  <fix>3d</fix>
</trkpt>
<trkpt lat="33.810313" lon="-118.3938669">
  <ele>0.0</ele>
  <time>2026-09-02T22:12:26Z</time>
  <course>215.01</course>
  <speed>0.0</speed>
  <fix>3d</fix>
</trkpt>
<trkpt lat="33.810313" lon="-118.3938669">
  <ele>0.12</ele>
  <time>2026-09-02T22:12:26Z</time>
  <course>0.0</course>
  <speed>0.0</speed>
  <fix>3d</fix>
</trkpt>
<trkpt lat="33.810313" lon="-118.3938669">
  <ele>0.0</ele>
  <time>2026-09-02T22:12:26Z</time>
  <course>215.01</course>
  <speed>0.0</speed>
  <fix>3d</fix>
</trkpt>
<trkpt lat="33.810313" lon="-118.3938669">
  <ele>0.12</ele>
  <time>2026-09-02T22:12:26Z</time>
  <course>0.0</course>
  <speed>0.0</speed>
  <fix>3d</fix>
</trkpt>
<trkpt lat="33.810313" lon="-118.3938669">
  <ele>0.0</ele>
  <time>2026-09-02T22:12:26Z</time>
  <course>215.01</course>
  <speed>0.0</speed>
  <fix>3d</fix>
</trkpt>
<trkpt lat="33.810313" lon="-118.3938669">
  <ele>0.13</ele>
  <time>2026-09-02T22:12:26Z</time>
  <course>0.0</course>
  <speed>0.0</speed>
  <fix>3d</fix>
</trkpt>
<trkpt lat="33.810313" lon="-118.3938669">
  <ele>0.0</ele>
  <time>2026-09-02T22:12:26Z</time>
  <course>215.01</course>
  <speed>0.0</speed>
  <fix>3d</fix>
</trkpt>
<trkpt lat="33.810313" lon="-118.3938669">
  <ele>0.13</ele>
  <time>2026-09-02T22:12:26Z</time>
  <course>0.0</course>
  <speed>0.0</speed>
  <fix>3d</fix>
</trkpt>
<trkpt lat="33.810313" lon="-118.3938669">
  <ele>0.0</ele>
  <time>2026-09-02T22:12:26Z</time>
  <course>215.01</course>
  <speed>0.0</speed>
  <fix>3d</fix>
</trkpt>
<trkpt lat="33.810313" lon="-118.3938669">
  <ele>0.13</ele>
  <time>2026-09-02T22:12:26Z</time>
  <course>0.0</course>
  <speed>0.0</speed>
  <fix>3d</fix>
</trkpt>
<trkpt lat="33.810313" lon="-118.3938669">
  <ele>0.0</ele>
  <time>2026-09-02T22:12:26Z</time>
  <course>215.01</course>
  <speed>0.0</speed>
  <fix>3d</fix>
</trkpt>
<trkpt lat="33.810313" lon="-118.3938669">
  <ele>0.13</ele>
  <time>2026-09-02T22:12:26Z</time>
  <course>0.0</course>
  <speed>0.0</speed>
  <fix>3d</fix>
</trkpt>
<trkpt lat="33.810313" lon="-118.3938669">
  <ele>0.0</ele>
  <time>2026-09-02T22:12:26Z</time>
  <course>215.01</course>
  <speed>0.0</speed>
  <fix>3d</fix>
</trkpt>
<trkpt lat="33.810313" lon="-118.3938669">
  <ele>0.14</ele>
  <time>2026-09-02T22:12:26Z</time>
  <course>0.0</course>
  <speed>0.0</speed>
  <fix>3d</fix>
</trkpt>
<trkpt lat="33.810313" lon="-118.3938669">
  <ele>0.0</ele>
  <time>2026-09-02T22:12:26Z</time>
  <course>215.01</course>
  <speed>0.0</speed>
  <fix>3d</fix>
</trkpt>
<trkpt lat="33.810313" lon="-118.3938669">
  <ele>0.14</ele>
  <time>2026-09-02T22:12:26Z</time>
  <course>0.0</course>
  <speed>0.0</speed>
  <fix>3d</fix>
</trkpt>
<trkpt lat="33.810313" lon="-118.3938669">
  <ele>0.0</ele>
  <time>2026-09-02T22:12:26Z</time>
  <course>215.01</course>
  <speed>0.0</speed>
  <fix>3d</fix>
</trkpt>
<trkpt lat="33.810313" lon="-118.3938669">
  <ele>0.14</ele>
  <time>2026-09-02T22:12:26Z</time>
  <course>0.0</course>
  <speed>0.0</speed>
  <fix>3d</fix>
</trkpt>
<trkpt lat="33.810313" lon="-118.3938669">
  <ele>0.0</ele>
  <time>2026-09-02T22:12:26Z</time>
  <course>215.01</course>
  <speed>0.0</speed>
  <fix>3d</fix>
</trkpt>
<trkpt lat="33.810313" lon="-118.3938669">
  <ele>0.14</ele>
  <time>2026-09-02T22:12:26Z</time>
  <course>0.0</course>
  <speed>0.0</speed>
  <fix>3d</fix>
</trkpt>
<trkpt lat="33.810313" lon="-118.3938669">
  <ele>0.0</ele>
  <time>2026-09-02T22:12:26Z</time>
  <course>215.01</course>
  <speed>0.0</speed>
  <fix>3d</fix>
</trkpt>
<trkpt lat="33.810313" lon="-118.3938669">
  <ele>0.13</ele>
  <time>2026-09-02T22:12:26Z</time>
  <course>0.0</course>
  <speed>0.0</speed>
  <fix>3d</fix>
</trkpt>
<trkpt lat="33.810313" lon="-118.3938669">
  <ele>0.0</ele>
  <time>2026-09-02T22:12:26Z</time>
  <course>215.01</course>
  <speed>0.0</speed>
  <fix>3d</fix>
</trkpt>
<trkpt lat="33.810313" lon="-118.3938669">
  <ele>0.13</ele>
  <time>2026-09-02T22:12:26Z</time>
  <course>0.0</course>
  <speed>0.0</speed>
  <fix>3d</fix>
</trkpt>
<trkpt lat="33.810313" lon="-118.3938669">
  <ele>0.0</ele>
  <time>2026-09-02T22:12:26Z</time>
  <course>215.01</course>
  <speed>0.0</speed>
  <fix>3d</fix>
</trkpt>
<trkpt lat="33.810313" lon="-118.3938669">
  <ele>0.13</ele>
  <time>2026-09-02T22:12:26Z</time>
  <course>0.0</course>
  <speed>0.0</speed>
  <fix>3d</fix>
</trkpt>
<trkpt lat="33.810313" lon="-118.3938669">
  <ele>0.0</ele>
  <time>2026-09-02T22:12:26Z</time>
  <course>215.01</course>
  <speed>0.0</speed>
  <fix>3d</fix>
</trkpt>
<trkpt lat="33.810313" lon="-118.3938669">
  <ele>0.13</ele>
  <time>2026-09-02T22:12:26Z</time>
  <course>0.0</course>
  <speed>0.0</speed>
  <fix>3d</fix>
</trkpt>
<trkpt lat="33.810313" lon="-118.3938669">
  <ele>0.0</ele>
  <time>2026-09-02T22:12:26Z</time>
  <course>215.01</course>
  <speed>0.0</speed>
  <fix>3d</fix>
</trkpt>
<trkpt lat="33.810313" lon="-118.3938669">
  <ele>0.12</ele>
  <time>2026-09-02T22:12:26Z</time>
  <course>0.0</course>
  <speed>0.0</speed>
  <fix>3d</fix>
</trkpt>
<trkpt lat="33.810313" lon="-118.3938669">
  <ele>0.0</ele>
  <time>2026-09-02T22:12:26Z</time>
  <course>215.01</course>
  <speed>0.0</speed>
  <fix>3d</fix>
</trkpt>
<trkpt lat="33.810313" lon="-118.3938669">
  <ele>0.12</ele>
  <time>2026-09-02T22:12:26Z</time>
  <course>0.0</course>
  <speed>0.0</speed>
  <fix>3d</fix>
</trkpt>
<trkpt lat="33.810313" lon="-118.3938669">
  <ele>0.0</ele>
  <time>2026-09-02T22:12:26Z</time>
  <course>215.01</course>
  <speed>0.0</speed>
  <fix>3d</fix>
</trkpt>
<trkpt lat="33.810313" lon="-118.3938669">
  <ele>0.11</ele>
  <time>2026-09-02T22:12:26Z</time>
  <course>0.0</course>
  <speed>0.0</speed>
  <fix>3d</fix>
</trkpt>
<trkpt lat="33.810313" lon="-118.3938669">
  <ele>0.0</ele>
  <time>2026-09-02T22:12:26Z</time>
  <course>215.01</course>
  <speed>0.0</speed>
  <fix>3d</fix>
</trkpt>
<trkpt lat="33.810313" lon="-118.3938669">
  <ele>0.11</ele>
  <time>2026-09-02T22:12:26Z</time>
  <course>0.0</course>
  <speed>0.0</speed>
  <fix>3d</fix>
</trkpt>
<trkpt lat="33.810313" lon="-118.3938669">
  <ele>0.1</ele>
  <time>2026-09-02T22:12:26Z</time>
  <course>215.01</course>
  <speed>0.0</speed>
  <fix>3d</fix>
</trkpt>
<trkpt lat="33.810313" lon="-118.3938669">
  <ele>0.11</ele>
  <time>2026-09-02T22:12:26Z</time>
  <course>0.0</course>
  <speed>0.0</speed>
  <fix>3d</fix>
</trkpt>
<trkpt lat="33.810313" lon="-118.3938669">
  <ele>0.097</ele>
  <time>2026-09-02T22:12:26Z</time>
  <course>215.01</course>
  <speed>0.0</speed>
  <fix>3d</fix>
</trkpt>
<trkpt lat="33.810313" lon="-118.3938669">
  <ele>0.11</ele>
  <time>2026-09-02T22:12:26Z</time>
  <course>0.0</course>
  <speed>0.0</speed>
  <fix>3d</fix>
</trkpt>
<trkpt lat="33.810313" lon="-118.3938669">
  <ele>0.093</ele>
  <time>2026-09-02T22:12:26Z</time>
  <course>215.01</course>
  <speed>0.0</speed>
  <fix>3d</fix>
</trkpt>
<trkpt lat="33.810313" lon="-118.3938669">
  <ele>0.12</ele>
  <time>2026-09-02T22:12:26Z</time>
  <course>0.0</course>
  <speed>0.0</speed>
  <fix>3d</fix>
</trkpt>
<trkpt lat="33.810313" lon="-118.3938669">
  <ele>0.09</ele>
  <time>2026-09-02T22:12:26Z</time>
  <course>215.01</course>
  <speed>0.0</speed>
  <fix>3d</fix>
</trkpt>
<trkpt lat="33.810313" lon="-118.3938669">
  <ele>0.12</ele>
  <time>2026-09-02T22:12:26Z</time>
  <course>0.0</course>
  <speed>0.0</speed>
  <fix>3d</fix>
</trkpt>
<trkpt lat="33.810313" lon="-118.3938669">
  <ele>0.088</ele>
  <time>2026-09-02T22:12:26Z</time>
  <course>215.02</course>
  <speed>0.0</speed>
  <fix>3d</fix>
</trkpt>
<trkpt lat="33.810313" lon="-118.3938669">
  <ele>0.13</ele>
  <time>2026-09-02T22:12:26Z</time>
  <course>0.0</course>
  <speed>0.0</speed>
  <fix>3d</fix>
</trkpt>
<trkpt lat="33.810313" lon="-118.3938669">
  <ele>0.087</ele>
  <time>2026-09-02T22:12:26Z</time>
  <course>215.02</course>
  <speed>0.0</speed>
  <fix>3d</fix>
</trkpt>
<trkpt lat="33.810313" lon="-118.3938669">
  <ele>0.13</ele>
  <time>2026-09-02T22:12:26Z</time>
  <course>0.0</course>
  <speed>0.0</speed>
  <fix>3d</fix>
</trkpt>
<trkpt lat="33.810313" lon="-118.3938669">
  <ele>0.087</ele>
  <time>2026-09-02T22:12:26Z</time>
  <course>215.02</course>
  <speed>0.0</speed>
  <fix>3d</fix>
</trkpt>
<trkpt lat="33.810313" lon="-118.3938669">
  <ele>0.13</ele>
  <time>2026-09-02T22:12:26Z</time>
  <course>0.0</course>
  <speed>0.0</speed>
  <fix>3d</fix>
</trkpt>
<trkpt lat="33.810313" lon="-118.3938669">
  <ele>0.089</ele>
  <time>2026-09-02T22:12:26Z</time>
  <course>215.02</course>
  <speed>0.0</speed>
  <fix>3d</fix>
</trkpt>
<trkpt lat="33.810313" lon="-118.3938669">
  <ele>0.13</ele>
  <time>2026-09-02T22:12:26Z</time>
  <course>0.0</course>
  <speed>0.0</speed>
  <fix>3d</fix>
</trkpt>
<trkpt lat="33.810313" lon="-118.3938669">
  <ele>0.092</ele>
  <time>2026-09-02T22:12:26Z</time>
  <course>215.02</course>
  <speed>0.0</speed>
  <fix>3d</fix>
</trkpt>
<trkpt lat="33.810313" lon="-118.3938669">
  <ele>0.13</ele>
  <time>2026-09-02T22:12:26Z</time>
  <course>0.0</course>
  <speed>0.0</speed>
  <fix>3d</fix>
</trkpt>
<trkpt lat="33.810313" lon="-118.3938669">
  <ele>0.096</ele>
  <time>2026-09-02T22:12:26Z</time>
  <course>215.02</course>
  <speed>0.0</speed>
  <fix>3d</fix>
</trkpt>
<trkpt lat="33.810313" lon="-118.3938669">
  <ele>0.13</ele>
  <time>2026-09-02T22:12:26Z</time>
  <course>0.0</course>
  <speed>0.0</speed>
  <fix>3d</fix>
</trkpt>
<trkpt lat="33.810313" lon="-118.3938669">
  <ele>0.1</ele>
  <time>2026-09-02T22:12:26Z</time>
  <course>215.02</course>
  <speed>0.0</speed>
  <fix>3d</fix>
</trkpt>
<trkpt lat="33.810313" lon="-118.3938669">
  <ele>0.13</ele>
  <time>2026-09-02T22:12:26Z</time>
  <course>0.0</course>
  <speed>0.0</speed>
  <fix>3d</fix>
</trkpt>
<trkpt lat="33.810313" lon="-118.3938669">
  <ele>0.103</ele>
  <time>2026-09-02T22:12:26Z</time>
  <course>215.02</course>
  <speed>0.0</speed>
  <fix>3d</fix>
</trkpt>
<trkpt lat="33.810313" lon="-118.3938669">
  <ele>0.13</ele>
  <time>2026-09-02T22:12:26Z</time>
  <course>0.0</course>
  <speed>0.0</speed>
  <fix>3d</fix>
</trkpt>
<trkpt lat="33.810313" lon="-118.3938669">
  <ele>0.108</ele>
  <time>2026-09-02T22:12:26Z</time>
  <course>215.02</course>
  <speed>0.0</speed>
  <fix>3d</fix>
</trkpt>
<trkpt lat="33.810313" lon="-118.3938669">
  <ele>0.13</ele>
  <time>2026-09-02T22:12:26Z</time>
  <course>0.0</course>
  <speed>0.0</speed>
  <fix>3d</fix>
</trkpt>
<trkpt lat="33.810313" lon="-118.3938669">
  <ele>0.114</ele>
  <time>2026-09-02T22:12:26Z</time>
  <course>215.02</course>
  <speed>0.0</speed>
  <fix>3d</fix>
</trkpt>
<trkpt lat="33.810313" lon="-118.3938669">
  <ele>0.13</ele>
  <time>2026-09-02T22:12:26Z</time>
  <course>0.0</course>
  <speed>0.0</speed>
  <fix>3d</fix>
</trkpt>
<trkpt lat="33.810313" lon="-118.3938669">
  <ele>0.118</ele>
  <time>2026-09-02T22:12:26Z</time>
  <course>215.02</course>
  <speed>0.0</speed>
  <fix>3d</fix>
</trkpt>
<trkpt lat="33.810313" lon="-118.3938669">
  <ele>0.12</ele>
  <time>2026-09-02T22:12:26Z</time>
  <course>0.0</course>
  <speed>0.0</speed>
  <fix>3d</fix>
</trkpt>
<trkpt lat="33.810313" lon="-118.3938669">
  <ele>0.121</ele>
  <time>2026-09-02T22:12:26Z</time>
  <course>215.02</course>
  <speed>0.0</speed>
  <fix>3d</fix>
</trkpt>
<trkpt lat="33.810313" lon="-118.3938669">
  <ele>0.12</ele>
  <time>2026-09-02T22:12:26Z</time>
  <course>0.0</course>
  <speed>0.0</speed>
  <fix>3d</fix>
</trkpt>
<trkpt lat="33.810313" lon="-118.3938669">
  <ele>0.121</ele>
  <time>2026-09-02T22:12:26Z</time>
  <course>215.02</course>
  <speed>0.0</speed>
  <fix>3d</fix>
</trkpt>
<trkpt lat="33.810313" lon="-118.3938669">
  <ele>0.11</ele>
  <time>2026-09-02T22:12:26Z</time>
  <course>0.0</course>
  <speed>0.0</speed>
  <fix>3d</fix>
</trkpt>
<trkpt lat="33.810313" lon="-118.3938669">
  <ele>0.119</ele>
  <time>2026-09-02T22:12:26Z</time>
  <course>215.02</course>
  <speed>0.0</speed>
  <fix>3d</fix>
</trkpt>
<trkpt lat="33.810313" lon="-118.3938669">
  <ele>0.11</ele>
  <time>2026-09-02T22:12:26Z</time>
  <course>0.0</course>
  <speed>0.0</speed>
  <fix>3d</fix>
</trkpt>
<trkpt lat="33.810313" lon="-118.3938669">
  <ele>0.115</ele>
  <time>2026-09-02T22:12:26Z</time>
  <course>215.02</course>
  <speed>0.0</speed>
  <fix>3d</fix>
</trkpt>
<trkpt lat="33.810313" lon="-118.3938669">
  <ele>0.11</ele>
  <time>2026-09-02T22:12:26Z</time>
  <course>0.0</course>
  <speed>0.0</speed>
  <fix>3d</fix>
</trkpt>
<trkpt lat="33.810313" lon="-118.3938669">
  <ele>0.11</ele>
  <time>2026-09-02T22:12:26Z</time>
  <course>215.02</course>
  <speed>0.0</speed>
  <fix>3d</fix>
</trkpt>
<trkpt lat="33.810313" lon="-118.3938669">
  <ele>0.11</ele>
  <time>2026-09-02T22:12:26Z</time>
  <course>0.0</course>
  <speed>0.0</speed>
  <fix>3d</fix>
</trkpt>
<trkpt lat="33.810313" lon="-118.3938669">
  <ele>0.105</ele>
  <time>2026-09-02T22:12:26Z</time>
  <course>215.02</course>
  <speed>0.0</speed>
  <fix>3d</fix>
</trkpt>
<trkpt lat="33.810313" lon="-118.3938669">
  <ele>0.12</ele>
  <time>2026-09-02T22:12:26Z</time>
  <course>0.0</course>
  <speed>0.0</speed>
  <fix>3d</fix>
</trkpt>
<trkpt lat="33.810313" lon="-118.3938669">
  <ele>0.101</ele>
  <time>2026-09-02T22:12:26Z</time>
  <course>215.02</course>
  <speed>0.0</speed>
  <fix>3d</fix>
</trkpt>
<trkpt lat="33.810313" lon="-118.3938669">
  <ele>0.12</ele>
  <time>2026-09-02T22:12:26Z</time>
  <course>0.0</course>
  <speed>0.0</speed>
  <fix>3d</fix>
</trkpt>
<trkpt lat="33.810313" lon="-118.3938669">
  <ele>0.097</ele>
  <time>2026-09-02T22:12:26Z</time>
  <course>215.02</course>
  <speed>0.0</speed>
  <fix>3d</fix>
</trkpt>
<trkpt lat="33.810313" lon="-118.3938669">
  <ele>0.13</ele>
  <time>2026-09-02T22:12:26Z</time>
  <course>0.0</course>
  <speed>0.0</speed>
  <fix>3d</fix>
</trkpt>
<trkpt lat="33.810313" lon="-118.3938669">
  <ele>0.094</ele>
  <time>2026-09-02T22:12:26Z</time>
  <course>215.02</course>
  <speed>0.0</speed>
  <fix>3d</fix>
</trkpt>
<trkpt lat="33.810313" lon="-118.3938669">
  <ele>0.13</ele>
  <time>2026-09-02T22:12:26Z</time>
  <course>0.0</course>
  <speed>0.0</speed>
  <fix>3d</fix>
</trkpt>
<trkpt lat="33.810313" lon="-118.3938669">
  <ele>0.093</ele>
  <time>2026-09-02T22:12:26Z</time>
  <course>215.02</course>
  <speed>0.0</speed>
  <fix>3d</fix>
</trkpt>
<trkpt lat="33.810313" lon="-118.3938669">
  <ele>0.13</ele>
  <time>2026-09-02T22:12:26Z</time>
  <course>0.0</course>
  <speed>0.0</speed>
  <fix>3d</fix>
</trkpt>
<trkpt lat="33.810313" lon="-118.3938669">
  <ele>0.093</ele>
  <time>2026-09-02T22:12:26Z</time>
  <course>215.02</course>
  <speed>0.0</speed>
  <fix>3d</fix>
</trkpt>
<trkpt lat="33.810313" lon="-118.3938669">
  <ele>0.13</ele>
  <time>2026-09-02T22:12:26Z</time>
  <course>0.0</course>
  <speed>0.0</speed>
  <fix>3d</fix>
</trkpt>
<trkpt lat="33.810313" lon="-118.3938669">
  <ele>0.093</ele>
  <time>2026-09-02T22:12:26Z</time>
  <course>215.02</course>
  <speed>0.0</speed>
  <fix>3d</fix>
</trkpt>
<trkpt lat="33.810313" lon="-118.3938669">
  <ele>0.13</ele>
  <time>2026-09-02T22:12:26Z</time>
  <course>0.0</course>
  <speed>0.0</speed>
  <fix>3d</fix>
</trkpt>
<trkpt lat="33.810313" lon="-118.3938669">
  <ele>0.094</ele>
  <time>2026-09-02T22:12:26Z</time>
  <course>215.02</course>
  <speed>0.0</speed>
  <fix>3d</fix>
</trkpt>
<trkpt lat="33.810313" lon="-118.3938669">
  <ele>0.13</ele>
  <time>2026-09-02T22:12:26Z</time>
  <course>0.0</course>
  <speed>0.0</speed>
  <fix>3d</fix>
</trkpt>
<trkpt lat="33.810313" lon="-118.3938669">
  <ele>0.097</ele>
  <time>2026-09-02T22:12:26Z</time>
  <course>215.02</course>
  <speed>0.0</speed>
  <fix>3d</fix>
</trkpt>
<trkpt lat="33.810313" lon="-118.3938669">
  <ele>0.13</ele>
  <time>2026-09-02T22:12:26Z</time>
  <course>0.0</course>
  <speed>0.0</speed>
  <fix>3d</fix>
</trkpt>
<trkpt lat="33.810313" lon="-118.3938669">
  <ele>0.1</ele>
  <time>2026-09-02T22:12:26Z</time>
  <course>215.02</course>
  <speed>0.0</speed>
  <fix>3d</fix>
</trkpt>
<trkpt lat="33.810313" lon="-118.3938669">
  <ele>0.13</ele>
  <time>2026-09-02T22:12:26Z</time>
  <course>0.0</course>
  <speed>0.0</speed>
  <fix>3d</fix>
</trkpt>
<trkpt lat="33.810313" lon="-118.3938669">
  <ele>0.102</ele>
  <time>2026-09-02T22:12:26Z</time>
  <course>215.02</course>
  <speed>0.0</speed>
  <fix>3d</fix>
</trkpt>
<trkpt lat="33.810313" lon="-118.3938669">
  <ele>0.12</ele>
  <time>2026-09-02T22:12:26Z</time>
  <course>0.0</course>
  <speed>0.0</speed>
  <fix>3d</fix>
</trkpt>
<trkpt lat="33.810313" lon="-118.3938669">
  <ele>0.104</ele>
  <time>2026-09-02T22:12:26Z</time>
  <course>215.02</course>
  <speed>0.0</speed>
  <fix>3d</fix>
</trkpt>
<trkpt lat="33.810313" lon="-118.3938669">
  <ele>0.12</ele>
  <time>2026-09-02T22:12:26Z</time>
  <course>0.0</course>
  <speed>0.0</speed>
  <fix>3d</fix>
</trkpt>
<trkpt lat="33.810313" lon="-118.3938669">
  <ele>0.103</ele>
  <time>2026-09-02T22:12:26Z</time>
  <course>215.02</course>
  <speed>0.0</speed>
  <fix>3d</fix>
</trkpt>
<trkpt lat="33.810313" lon="-118.3938669">
  <ele>0.12</ele>
  <time>2026-09-02T22:12:26Z</time>
  <course>0.0</course>
  <speed>0.0</speed>
  <fix>3d</fix>
</trkpt>
<trkpt lat="33.810313" lon="-118.3938669">
  <ele>0.101</ele>
  <time>2026-09-02T22:12:26Z</time>
  <course>215.02</course>
  <speed>0.0</speed>
  <fix>3d</fix>
</trkpt>
<trkpt lat="33.810313" lon="-118.3938669">
  <ele>0.12</ele>
  <time>2026-09-02T22:12:26Z</time>
  <course>0.0</course>
  <speed>0.0</speed>
  <fix>3d</fix>
</trkpt>
<trkpt lat="33.810313" lon="-118.3938669">
  <ele>0.097</ele>
  <time>2026-09-02T22:12:26Z</time>
  <course>215.02</course>
  <speed>0.0</speed>
  <fix>3d</fix>
</trkpt>
<trkpt lat="33.810313" lon="-118.3938669">
  <ele>0.12</ele>
  <time>2026-09-02T22:12:26Z</time>
  <course>0.0</course>
  <speed>0.0</speed>
  <fix>3d</fix>
</trkpt>
<trkpt lat="33.810313" lon="-118.3938669">
  <ele>0.095</ele>
  <time>2026-09-02T22:12:26Z</time>
  <course>215.02</course>
  <speed>0.0</speed>
  <fix>3d</fix>
</trkpt>
<trkpt lat="33.810313" lon="-118.3938669">
  <ele>0.12</ele>
  <time>2026-09-02T22:12:26Z</time>
  <course>0.0</course>
  <speed>0.0</speed>
  <fix>3d</fix>
</trkpt>
<trkpt lat="33.810313" lon="-118.3938669">
  <ele>0.092</ele>
  <time>2026-09-02T22:12:26Z</time>
  <course>215.02</course>
  <speed>0.0</speed>
  <fix>3d</fix>
</trkpt>
<trkpt lat="33.810313" lon="-118.3938669">
  <ele>0.12</ele>
  <time>2026-09-02T22:12:26Z</time>
  <course>0.0</course>
  <speed>0.0</speed>
  <fix>3d</fix>
</trkpt>
<trkpt lat="33.810313" lon="-118.3938669">
  <ele>0.09</ele>
  <time>2026-09-02T22:12:26Z</time>
  <course>215.02</course>
  <speed>0.0</speed>
  <fix>3d</fix>
</trkpt>
<trkpt lat="33.810313" lon="-118.3938669">
  <ele>0.12</ele>
  <time>2026-09-02T22:12:26Z</time>
  <course>0.0</course>
  <speed>0.0</speed>
  <fix>3d</fix>
</trkpt>
<trkpt lat="33.810313" lon="-118.3938669">
  <ele>0.089</ele>
  <time>2026-09-02T22:12:26Z</time>
  <course>215.02</course>
  <speed>0.0</speed>
  <fix>3d</fix>
</trkpt>
<trkpt lat="33.810313" lon="-118.3938669">
  <ele>0.12</ele>
  <time>2026-09-02T22:12:26Z</time>
  <course>0.0</course>
  <speed>0.0</speed>
  <fix>3d</fix>
</trkpt>
<trkpt lat="33.810313" lon="-118.3938669">
  <ele>0.088</ele>
  <time>2026-09-02T22:12:26Z</time>
  <course>215.02</course>
  <speed>0.0</speed>
  <fix>3d</fix>
</trkpt>
<trkpt lat="33.810313" lon="-118.3938669">
  <ele>0.12</ele>
  <time>2026-09-02T22:12:26Z</time>
  <course>0.0</course>
  <speed>0.0</speed>
  <fix>3d</fix>
</trkpt>
<trkpt lat="33.810313" lon="-118.3938669">
  <ele>0.087</ele>
  <time>2026-09-02T22:12:26Z</time>
  <course>215.02</course>
  <speed>0.0</speed>
  <fix>3d</fix>
</trkpt>
<trkpt lat="33.810313" lon="-118.3938669">
  <ele>0.13</ele>
  <time>2026-09-02T22:12:26Z</time>
  <course>0.0</course>
  <speed>0.0</speed>
  <fix>3d</fix>
</trkpt>
<trkpt lat="33.810313" lon="-118.3938669">
  <ele>0.086</ele>
  <time>2026-09-02T22:12:26Z</time>
  <course>215.02</course>
  <speed>0.0</speed>
  <fix>3d</fix>
</trkpt>
<trkpt lat="33.810313" lon="-118.3938669">
  <ele>0.13</ele>
  <time>2026-09-02T22:12:26Z</time>
  <course>0.0</course>
  <speed>0.0</speed>
  <fix>3d</fix>
</trkpt>
<trkpt lat="33.810313" lon="-118.3938669">
  <ele>0.087</ele>
  <time>2026-09-02T22:12:26Z</time>
  <course>215.02</course>
  <speed>0.0</speed>
  <fix>3d</fix>
</trkpt>
<trkpt lat="33.810313" lon="-118.3938669">
  <ele>0.13</ele>
  <time>2026-09-02T22:12:26Z</time>
  <course>0.0</course>
  <speed>0.0</speed>
  <fix>3d</fix>
</trkpt>
<trkpt lat="33.810313" lon="-118.3938669">
  <ele>0.09</ele>
  <time>2026-09-02T22:12:26Z</time>
  <course>215.02</course>
  <speed>0.0</speed>
  <fix>3d</fix>
</trkpt>
<trkpt lat="33.810313" lon="-118.3938669">
  <ele>0.13</ele>
  <time>2026-09-02T22:12:26Z</time>
  <course>0.0</course>
  <speed>0.0</speed>
  <fix>3d</fix>
</trkpt>
<trkpt lat="33.810313" lon="-118.3938669">
  <ele>0.094</ele>
  <time>2026-09-02T22:12:26Z</time>
  <course>215.02</course>
  <speed>0.0</speed>
  <fix>3d</fix>
</trkpt>
<trkpt lat="33.810313" lon="-118.3938669">
  <ele>0.12</ele>
  <time>2026-09-02T22:12:26Z</time>
  <course>0.0</course>
  <speed>0.0</speed>
  <fix>3d</fix>
</trkpt>
<trkpt lat="33.810313" lon="-118.3938669">
  <ele>0.098</ele>
  <time>2026-09-02T22:12:26Z</time>
  <course>215.02</course>
  <speed>0.0</speed>
  <fix>3d</fix>
</trkpt>
<trkpt lat="33.810313" lon="-118.3938669">
  <ele>0.12</ele>
  <time>2026-09-02T22:12:26Z</time>
  <course>0.0</course>
  <speed>0.0</speed>
  <fix>3d</fix>
</trkpt>
<trkpt lat="33.810313" lon="-118.3938669">
  <ele>0.103</ele>
  <time>2026-09-02T22:12:26Z</time>
  <course>215.02</course>
  <speed>0.0</speed>
  <fix>3d</fix>
</trkpt>
<trkpt lat="33.810313" lon="-118.3938669">
  <ele>0.12</ele>
  <time>2026-09-02T22:12:26Z</time>
  <course>0.0</course>
  <speed>0.0</speed>
  <fix>3d</fix>
</trkpt>
<trkpt lat="33.810313" lon="-118.3938669">
  <ele>0.106</ele>
  <time>2026-09-02T22:12:26Z</time>
  <course>215.02</course>
  <speed>0.0</speed>
  <fix>3d</fix>
</trkpt>
<trkpt lat="33.810313" lon="-118.3938669">
  <ele>0.12</ele>
  <time>2026-09-02T22:12:26Z</time>
  <course>0.0</course>
  <speed>0.0</speed>
  <fix>3d</fix>
</trkpt>
<trkpt lat="33.810313" lon="-118.3938669">
  <ele>0.106</ele>
  <time>2026-09-02T22:12:26Z</time>
  <course>215.02</course>
  <speed>0.0</speed>
  <fix>3d</fix>
</trkpt>
<trkpt lat="33.810313" lon="-118.3938669">
  <ele>0.12</ele>
  <time>2026-09-02T22:12:26Z</time>
  <course>0.0</course>
  <speed>0.0</speed>
  <fix>3d</fix>
</trkpt>
<trkpt lat="33.810313" lon="-118.3938669">
  <ele>0.105</ele>
  <time>2026-09-02T22:12:26Z</time>
  <course>215.02</course>
  <speed>0.0</speed>
  <fix>3d</fix>
</trkpt>
<trkpt lat="33.810313" lon="-118.3938669">
  <ele>0.12</ele>
  <time>2026-09-02T22:12:26Z</time>
  <course>0.0</course>
  <speed>0.0</speed>
  <fix>3d</fix>
</trkpt>
<trkpt lat="33.810313" lon="-118.3938669">
  <ele>0.103</ele>
  <time>2026-09-02T22:12:26Z</time>
  <course>215.03</course>
  <speed>0.0</speed>
  <fix>3d</fix>
</trkpt>
<trkpt lat="33.810313" lon="-118.3938669">
  <ele>0.12</ele>
  <time>2026-09-02T22:12:26Z</time>
  <course>0.0</course>
  <speed>0.0</speed>
  <fix>3d</fix>
</trkpt>
<trkpt lat="33.810313" lon="-118.3938669">
  <ele>0.101</ele>
  <time>2026-09-02T22:12:26Z</time>
  <course>215.03</course>
  <speed>0.0</speed>
  <fix>3d</fix>
</trkpt>
<trkpt lat="33.810313" lon="-118.3938669">
  <ele>0.12</ele>
  <time>2026-09-02T22:12:26Z</time>
  <course>0.0</course>
  <speed>0.0</speed>
  <fix>3d</fix>
</trkpt>
<trkpt lat="33.810313" lon="-118.3938669">
  <ele>0.1</ele>
  <time>2026-09-02T22:12:26Z</time>
  <course>215.03</course>
  <speed>0.0</speed>
  <fix>3d</fix>
</trkpt>
<trkpt lat="33.810313" lon="-118.3938669">
  <ele>0.12</ele>
  <time>2026-09-02T22:12:26Z</time>
  <course>0.0</course>
  <speed>0.0</speed>
  <fix>3d</fix>
</trkpt>
<trkpt lat="33.810313" lon="-118.3938669">
  <ele>0.101</ele>
  <time>2026-09-02T22:12:26Z</time>
  <course>215.03</course>
  <speed>0.0</speed>
  <fix>3d</fix>
</trkpt>
<trkpt lat="33.810313" lon="-118.3938669">
  <ele>0.12</ele>
  <time>2026-09-02T22:12:26Z</time>
  <course>0.0</course>
  <speed>0.0</speed>
  <fix>3d</fix>
</trkpt>
<trkpt lat="33.810313" lon="-118.3938669">
  <ele>0.102</ele>
  <time>2026-09-02T22:12:26Z</time>
  <course>215.03</course>
  <speed>0.0</speed>
  <fix>3d</fix>
</trkpt>
<trkpt lat="33.810313" lon="-118.3938669">
  <ele>0.12</ele>
  <time>2026-09-02T22:12:26Z</time>
  <course>0.0</course>
  <speed>0.0</speed>
  <fix>3d</fix>
</trkpt>
<trkpt lat="33.810313" lon="-118.3938669">
  <ele>0.102</ele>
  <time>2026-09-02T22:12:26Z</time>
  <course>215.03</course>
  <speed>0.0</speed>
  <fix>3d</fix>
</trkpt>
<trkpt lat="33.810313" lon="-118.3938669">
  <ele>0.12</ele>
  <time>2026-09-02T22:12:26Z</time>
  <course>0.0</course>
  <speed>0.0</speed>
  <fix>3d</fix>
</trkpt>
<trkpt lat="33.810313" lon="-118.3938669">
  <ele>0.103</ele>
  <time>2026-09-02T22:12:26Z</time>
  <course>215.03</course>
  <speed>0.0</speed>
  <fix>3d</fix>
</trkpt>
<trkpt lat="33.810313" lon="-118.3938669">
  <ele>0.13</ele>
  <time>2026-09-02T22:12:26Z</time>
  <course>0.0</course>
  <speed>0.0</speed>
  <fix>3d</fix>
</trkpt>
<trkpt lat="33.810313" lon="-118.3938669">
  <ele>0.103</ele>
  <time>2026-09-02T22:12:26Z</time>
  <course>215.03</course>
  <speed>0.0</speed>
  <fix>3d</fix>
</trkpt>
<trkpt lat="33.810313" lon="-118.3938669">
  <ele>0.13</ele>
  <time>2026-09-02T22:12:26Z</time>
  <course>0.0</course>
  <speed>0.0</speed>
  <fix>3d</fix>
</trkpt>
<trkpt lat="33.810313" lon="-118.3938669">
  <ele>0.103</ele>
  <time>2026-09-02T22:12:26Z</time>
  <course>215.03</course>
  <speed>0.0</speed>
  <fix>3d</fix>
</trkpt>
<trkpt lat="33.810313" lon="-118.3938669">
  <ele>0.12</ele>
  <time>2026-09-02T22:12:26Z</time>
  <course>0.0</course>
  <speed>0.0</speed>
  <fix>3d</fix>
</trkpt>
<trkpt lat="33.810313" lon="-118.3938669">
  <ele>0.103</ele>
  <time>2026-09-02T22:12:26Z</time>
  <course>215.03</course>
  <speed>0.0</speed>
  <fix>3d</fix>
</trkpt>
<trkpt lat="33.810313" lon="-118.3938669">
  <ele>0.12</ele>
  <time>2026-09-02T22:12:26Z</time>
  <course>0.0</course>
  <speed>0.0</speed>
  <fix>3d</fix>
</trkpt>
<trkpt lat="33.810313" lon="-118.3938669">
  <ele>0.104</ele>
  <time>2026-09-02T22:12:26Z</time>
  <course>215.03</course>
  <speed>0.0</speed>
  <fix>3d</fix>
</trkpt>
<trkpt lat="33.810313" lon="-118.3938669">
  <ele>0.12</ele>
  <time>2026-09-02T22:12:26Z</time>
  <course>0.0</course>
  <speed>0.0</speed>
  <fix>3d</fix>
</trkpt>
<trkpt lat="33.810313" lon="-118.3938669">
  <ele>0.104</ele>
  <time>2026-09-02T22:12:26Z</time>
  <course>215.03</course>
  <speed>0.0</speed>
  <fix>3d</fix>
</trkpt>
<trkpt lat="33.810313" lon="-118.3938669">
  <ele>0.12</ele>
  <time>2026-09-02T22:12:26Z</time>
  <course>0.0</course>
  <speed>0.0</speed>
  <fix>3d</fix>
</trkpt>
<trkpt lat="33.810313" lon="-118.3938669">
  <ele>0.103</ele>
  <time>2026-09-02T22:12:26Z</time>
  <course>215.03</course>
  <speed>0.0</speed>
  <fix>3d</fix>
</trkpt>
<trkpt lat="33.810313" lon="-118.3938669">
  <ele>0.12</ele>
  <time>2026-09-02T22:12:26Z</time>
  <course>0.0</course>
  <speed>0.0</speed>
  <fix>3d</fix>
</trkpt>
<trkpt lat="33.810313" lon="-118.3938669">
  <ele>0.101</ele>
  <time>2026-09-02T22:12:26Z</time>
  <course>215.03</course>
  <speed>0.0</speed>
  <fix>3d</fix>
</trkpt>
<trkpt lat="33.810313" lon="-118.3938669">
  <ele>0.12</ele>
  <time>2026-09-02T22:12:26Z</time>
  <course>0.0</course>
  <speed>0.0</speed>
  <fix>3d</fix>
</trkpt>
<trkpt lat="33.810313" lon="-118.3938669">
  <ele>0.098</ele>
  <time>2026-09-02T22:12:26Z</time>
  <course>215.03</course>
  <speed>0.0</speed>
  <fix>3d</fix>
</trkpt>
<trkpt lat="33.810313" lon="-118.3938669">
  <ele>0.12</ele>
  <time>2026-09-02T22:12:26Z</time>
  <course>0.0</course>
  <speed>0.0</speed>
  <fix>3d</fix>
</trkpt>
<trkpt lat="33.810313" lon="-118.3938669">
  <ele>0.094</ele>
  <time>2026-09-02T22:12:26Z</time>
  <course>215.03</course>
  <speed>0.0</speed>
  <fix>3d</fix>
</trkpt>
<trkpt lat="33.810313" lon="-118.3938669">
  <ele>0.12</ele>
  <time>2026-09-02T22:12:26Z</time>
  <course>0.0</course>
  <speed>0.0</speed>
  <fix>3d</fix>
</trkpt>
<trkpt lat="33.810313" lon="-118.3938669">
  <ele>0.093</ele>
  <time>2026-09-02T22:12:26Z</time>
  <course>215.03</course>
  <speed>0.0</speed>
  <fix>3d</fix>
</trkpt>
<trkpt lat="33.810313" lon="-118.3938669">
  <ele>0.12</ele>
  <time>2026-09-02T22:12:26Z</time>
  <course>0.0</course>
  <speed>0.0</speed>
  <fix>3d</fix>
</trkpt>
<trkpt lat="33.810313" lon="-118.3938669">
  <ele>0.093</ele>
  <time>2026-09-02T22:12:26Z</time>
  <course>215.03</course>
  <speed>0.0</speed>
  <fix>3d</fix>
</trkpt>
<trkpt lat="33.810313" lon="-118.3938669">
  <ele>0.12</ele>
  <time>2026-09-02T22:12:26Z</time>
  <course>0.0</course>
  <speed>0.0</speed>
  <fix>3d</fix>
</trkpt>
<trkpt lat="33.810313" lon="-118.3938669">
  <ele>0.093</ele>
  <time>2026-09-02T22:12:26Z</time>
  <course>215.03</course>
  <speed>0.0</speed>
  <fix>3d</fix>
</trkpt>
<trkpt lat="33.810313" lon="-118.3938669">
  <ele>0.12</ele>
  <time>2026-09-02T22:12:26Z</time>
  <course>0.0</course>
  <speed>0.0</speed>
  <fix>3d</fix>
</trkpt>
<trkpt lat="33.810313" lon="-118.3938669">
  <ele>0.096</ele>
  <time>2026-09-02T22:12:26Z</time>
  <course>215.03</course>
  <speed>0.0</speed>
  <fix>3d</fix>
</trkpt>
<trkpt lat="33.810313" lon="-118.3938669">
  <ele>0.12</ele>
  <time>2026-09-02T22:12:26Z</time>
  <course>0.0</course>
  <speed>0.0</speed>
  <fix>3d</fix>
</trkpt>
<trkpt lat="33.810313" lon="-118.3938669">
  <ele>0.097</ele>
  <time>2026-09-02T22:12:26Z</time>
  <course>215.03</course>
  <speed>0.01</speed>
  <fix>3d</fix>
</trkpt>
<trkpt lat="33.810313" lon="-118.3938669">
  <ele>0.13</ele>
  <time>2026-09-02T22:12:26Z</time>
  <course>0.0</course>
  <speed>0.0</speed>
  <fix>3d</fix>
</trkpt>
<trkpt lat="33.810313" lon="-118.3938669">
  <ele>0.1</ele>
  <time>2026-09-02T22:12:26Z</time>
  <course>215.03</course>
  <speed>0.01</speed>
  <fix>3d</fix>
</trkpt>
<trkpt lat="33.810313" lon="-118.3938669">
  <ele>0.13</ele>
  <time>2026-09-02T22:12:26Z</time>
  <course>0.0</course>
  <speed>0.0</speed>
  <fix>3d</fix>
</trkpt>
<trkpt lat="33.810313" lon="-118.3938669">
  <ele>0.103</ele>
  <time>2026-09-02T22:12:26Z</time>
  <course>215.03</course>
  <speed>0.01</speed>
  <fix>3d</fix>
</trkpt>
<trkpt lat="33.810313" lon="-118.3938669">
  <ele>0.12</ele>
  <time>2026-09-02T22:12:26Z</time>
  <course>0.0</course>
  <speed>0.0</speed>
  <fix>3d</fix>
</trkpt>
<trkpt lat="33.810313" lon="-118.3938669">
  <ele>0.107</ele>
  <time>2026-09-02T22:12:26Z</time>
  <course>215.03</course>
  <speed>0.01</speed>
  <fix>3d</fix>
</trkpt>
<trkpt lat="33.810313" lon="-118.3938669">
  <ele>0.12</ele>
  <time>2026-09-02T22:12:26Z</time>
  <course>0.0</course>
  <speed>0.0</speed>
  <fix>3d</fix>
</trkpt>
<trkpt lat="33.810313" lon="-118.3938669">
  <ele>0.111</ele>
  <time>2026-09-02T22:12:26Z</time>
  <course>215.03</course>
  <speed>0.01</speed>
  <fix>3d</fix>
</trkpt>
<trkpt lat="33.810313" lon="-118.3938669">
  <ele>0.12</ele>
  <time>2026-09-02T22:12:26Z</time>
  <course>0.0</course>
  <speed>0.0</speed>
  <fix>3d</fix>
</trkpt>
<trkpt lat="33.810313" lon="-118.3938669">
  <ele>0.114</ele>
  <time>2026-09-02T22:12:26Z</time>
  <course>215.03</course>
  <speed>0.01</speed>
  <fix>3d</fix>
</trkpt>
<trkpt lat="33.810313" lon="-118.3938669">
  <ele>0.12</ele>
  <time>2026-09-02T22:12:26Z</time>
  <course>0.0</course>
  <speed>0.0</speed>
  <fix>3d</fix>
</trkpt>
<trkpt lat="33.810313" lon="-118.3938669">
  <ele>0.115</ele>
  <time>2026-09-02T22:12:26Z</time>
  <course>215.03</course>
  <speed>0.01</speed>
  <fix>3d</fix>
</trkpt>
<trkpt lat="33.810313" lon="-118.3938669">
  <ele>0.12</ele>
  <time>2026-09-02T22:12:26Z</time>
  <course>0.0</course>
  <speed>0.0</speed>
  <fix>3d</fix>
</trkpt>
<trkpt lat="33.810313" lon="-118.3938669">
  <ele>0.114</ele>
  <time>2026-09-02T22:12:26Z</time>
  <course>215.03</course>
  <speed>0.01</speed>
  <fix>3d</fix>
</trkpt>
<trkpt lat="33.810313" lon="-118.3938669">
  <ele>0.12</ele>
  <time>2026-09-02T22:12:26Z</time>
  <course>0.0</course>
  <speed>0.0</speed>
  <fix>3d</fix>
</trkpt>
<trkpt lat="33.810313" lon="-118.3938669">
  <ele>0.112</ele>
  <time>2026-09-02T22:12:26Z</time>
  <course>215.03</course>
  <speed>0.01</speed>
  <fix>3d</fix>
</trkpt>
<trkpt lat="33.810313" lon="-118.3938669">
  <ele>0.12</ele>
  <time>2026-09-02T22:12:26Z</time>
  <course>0.0</course>
  <speed>0.0</speed>
  <fix>3d</fix>
</trkpt>
<trkpt lat="33.810313" lon="-118.3938669">
  <ele>0.108</ele>
  <time>2026-09-02T22:12:26Z</time>
  <course>215.03</course>
  <speed>0.01</speed>
  <fix>3d</fix>
</trkpt>
<trkpt lat="33.810313" lon="-118.3938669">
  <ele>0.12</ele>
  <time>2026-09-02T22:12:26Z</time>
  <course>0.0</course>
  <speed>0.0</speed>
  <fix>3d</fix>
</trkpt>
<trkpt lat="33.810313" lon="-118.3938669">
  <ele>0.106</ele>
  <time>2026-09-02T22:12:26Z</time>
  <course>215.03</course>
  <speed>0.01</speed>
  <fix>3d</fix>
</trkpt>
<trkpt lat="33.810313" lon="-118.3938669">
  <ele>0.12</ele>
  <time>2026-09-02T22:12:26Z</time>
  <course>0.0</course>
  <speed>0.0</speed>
  <fix>3d</fix>
</trkpt>
<trkpt lat="33.810313" lon="-118.3938669">
  <ele>0.104</ele>
  <time>2026-09-02T22:12:26Z</time>
  <course>215.03</course>
  <speed>0.01</speed>
  <fix>3d</fix>
</trkpt>
<trkpt lat="33.810313" lon="-118.3938669">
  <ele>0.12</ele>
  <time>2026-09-02T22:12:26Z</time>
  <course>0.0</course>
  <speed>0.0</speed>
  <fix>3d</fix>
</trkpt>
<trkpt lat="33.810313" lon="-118.3938669">
  <ele>0.103</ele>
  <time>2026-09-02T22:12:26Z</time>
  <course>215.03</course>
  <speed>0.01</speed>
  <fix>3d</fix>
</trkpt>
<trkpt lat="33.810313" lon="-118.3938669">
  <ele>0.12</ele>
  <time>2026-09-02T22:12:26Z</time>
  <course>0.0</course>
  <speed>0.0</speed>
  <fix>3d</fix>
</trkpt>
<trkpt lat="33.810313" lon="-118.3938669">
  <ele>0.102</ele>
  <time>2026-09-02T22:12:26Z</time>
  <course>215.03</course>
  <speed>0.01</speed>
  <fix>3d</fix>
</trkpt>
<trkpt lat="33.810313" lon="-118.3938669">
  <ele>0.12</ele>
  <time>2026-09-02T22:12:26Z</time>
  <course>0.0</course>
  <speed>0.0</speed>
  <fix>3d</fix>
</trkpt>
<trkpt lat="33.810313" lon="-118.3938669">
  <ele>0.101</ele>
  <time>2026-09-02T22:12:26Z</time>
  <course>215.03</course>
  <speed>0.01</speed>
  <fix>3d</fix>
</trkpt>
<trkpt lat="33.810313" lon="-118.3938669">
  <ele>0.13</ele>
  <time>2026-09-02T22:12:26Z</time>
  <course>0.0</course>
  <speed>0.0</speed>
  <fix>3d</fix>
</trkpt>
<trkpt lat="33.810313" lon="-118.3938669">
  <ele>0.1</ele>
  <time>2026-09-02T22:12:26Z</time>
  <course>215.03</course>
  <speed>0.01</speed>
  <fix>3d</fix>
</trkpt>
<trkpt lat="33.810313" lon="-118.3938669">
  <ele>0.13</ele>
  <time>2026-09-02T22:12:26Z</time>
  <course>0.0</course>
  <speed>0.0</speed>
  <fix>3d</fix>
</trkpt>
<trkpt lat="33.810313" lon="-118.3938669">
  <ele>0.1</ele>
  <time>2026-09-02T22:12:26Z</time>
  <course>215.03</course>
  <speed>0.01</speed>
  <fix>3d</fix>
</trkpt>
<trkpt lat="33.810313" lon="-118.3938669">
  <ele>0.12</ele>
  <time>2026-09-02T22:12:26Z</time>
  <course>0.0</course>
  <speed>0.0</speed>
  <fix>3d</fix>
</trkpt>
<trkpt lat="33.810313" lon="-118.3938669">
  <ele>0.102</ele>
  <time>2026-09-02T22:12:26Z</time>
  <course>215.03</course>
  <speed>0.01</speed>
  <fix>3d</fix>
</trkpt>
<trkpt lat="33.810313" lon="-118.3938669">
  <ele>0.12</ele>
  <time>2026-09-02T22:12:26Z</time>
  <course>0.0</course>
  <speed>0.0</speed>
  <fix>3d</fix>
</trkpt>
<trkpt lat="33.810313" lon="-118.3938669">
  <ele>0.102</ele>
  <time>2026-09-02T22:12:26Z</time>
  <course>215.03</course>
  <speed>0.01</speed>
  <fix>3d</fix>
</trkpt>
<trkpt lat="33.810313" lon="-118.3938669">
  <ele>0.12</ele>
  <time>2026-09-02T22:12:26Z</time>
  <course>0.0</course>
  <speed>0.0</speed>
  <fix>3d</fix>
</trkpt>
<trkpt lat="33.810313" lon="-118.3938669">
  <ele>0.101</ele>
  <time>2026-09-02T22:12:26Z</time>
  <course>215.03</course>
  <speed>0.01</speed>
  <fix>3d</fix>
</trkpt>
<trkpt lat="33.810313" lon="-118.3938669">
  <ele>0.12</ele>
  <time>2026-09-02T22:12:26Z</time>
  <course>0.0</course>
  <speed>0.0</speed>
  <fix>3d</fix>
</trkpt>
<trkpt lat="33.810313" lon="-118.3938669">
  <ele>0.099</ele>
  <time>2026-09-02T22:12:26Z</time>
  <course>215.03</course>
  <speed>0.01</speed>
  <fix>3d</fix>
</trkpt>
<trkpt lat="33.810313" lon="-118.3938669">
  <ele>0.12</ele>
  <time>2026-09-02T22:12:26Z</time>
  <course>0.0</course>
  <speed>0.0</speed>
  <fix>3d</fix>
</trkpt>
<trkpt lat="33.810313" lon="-118.3938669">
  <ele>0.095</ele>
  <time>2026-09-02T22:12:26Z</time>
  <course>215.03</course>
  <speed>0.01</speed>
  <fix>3d</fix>
</trkpt>
<trkpt lat="33.810313" lon="-118.3938669">
  <ele>0.12</ele>
  <time>2026-09-02T22:12:26Z</time>
  <course>0.0</course>
  <speed>0.0</speed>
  <fix>3d</fix>
</trkpt>
<trkpt lat="33.810313" lon="-118.3938669">
  <ele>0.091</ele>
  <time>2026-09-02T22:12:26Z</time>
  <course>215.03</course>
  <speed>0.01</speed>
  <fix>3d</fix>
</trkpt>
<trkpt lat="33.810313" lon="-118.3938669">
  <ele>0.12</ele>
  <time>2026-09-02T22:12:26Z</time>
  <course>0.0</course>
  <speed>0.0</speed>
  <fix>3d</fix>
</trkpt>
<trkpt lat="33.810313" lon="-118.3938669">
  <ele>0.088</ele>
  <time>2026-09-02T22:12:26Z</time>
  <course>215.03</course>
  <speed>0.01</speed>
  <fix>3d</fix>
</trkpt>
<trkpt lat="33.810313" lon="-118.3938669">
  <ele>0.12</ele>
  <time>2026-09-02T22:12:26Z</time>
  <course>0.0</course>
  <speed>0.0</speed>
  <fix>3d</fix>
</trkpt>
<trkpt lat="33.810313" lon="-118.3938669">
  <ele>0.087</ele>
  <time>2026-09-02T22:12:26Z</time>
  <course>215.03</course>
  <speed>0.01</speed>
  <fix>3d</fix>
</trkpt>
<trkpt lat="33.810313" lon="-118.3938669">
  <ele>0.12</ele>
  <time>2026-09-02T22:12:26Z</time>
  <course>0.0</course>
  <speed>0.0</speed>
  <fix>3d</fix>
</trkpt>
<trkpt lat="33.810313" lon="-118.3938669">
  <ele>0.087</ele>
  <time>2026-09-02T22:12:26Z</time>
  <course>215.03</course>
  <speed>0.01</speed>
  <fix>3d</fix>
</trkpt>
<trkpt lat="33.810313" lon="-118.3938669">
  <ele>0.12</ele>
  <time>2026-09-02T22:12:26Z</time>
  <course>0.0</course>
  <speed>0.0</speed>
  <fix>3d</fix>
</trkpt>
<trkpt lat="33.810313" lon="-118.3938669">
  <ele>0.087</ele>
  <time>2026-09-02T22:12:26Z</time>
  <course>215.03</course>
  <speed>0.01</speed>
  <fix>3d</fix>
</trkpt>
<trkpt lat="33.810313" lon="-118.3938669">
  <ele>0.12</ele>
  <time>2026-09-02T22:12:26Z</time>
  <course>0.0</course>
  <speed>0.0</speed>
  <fix>3d</fix>
</trkpt>
<trkpt lat="33.810313" lon="-118.3938669">
  <ele>0.088</ele>
  <time>2026-09-02T22:12:26Z</time>
  <course>215.03</course>
  <speed>0.01</speed>
  <fix>3d</fix>
</trkpt>
<trkpt lat="33.810313" lon="-118.3938669">
  <ele>0.12</ele>
  <time>2026-09-02T22:12:26Z</time>
  <course>0.0</course>
  <speed>0.0</speed>
  <fix>3d</fix>
</trkpt>
<trkpt lat="33.810313" lon="-118.3938669">
  <ele>0.091</ele>
  <time>2026-09-02T22:12:26Z</time>
  <course>215.03</course>
  <speed>0.01</speed>
  <fix>3d</fix>
</trkpt>
<trkpt lat="33.810313" lon="-118.3938669">
  <ele>0.12</ele>
  <time>2026-09-02T22:12:26Z</time>
  <course>0.0</course>
  <speed>0.0</speed>
  <fix>3d</fix>
</trkpt>
<trkpt lat="33.810313" lon="-118.3938669">
  <ele>0.094</ele>
  <time>2026-09-02T22:12:26Z</time>
  <course>215.03</course>
  <speed>0.01</speed>
  <fix>3d</fix>
</trkpt>
<trkpt lat="33.810313" lon="-118.3938669">
  <ele>0.12</ele>
  <time>2026-09-02T22:12:27Z</time>
  <course>0.0</course>
  <speed>0.0</speed>
  <fix>3d</fix>
</trkpt>
<trkpt lat="33.810313" lon="-118.3938669">
  <ele>0.097</ele>
  <time>2026-09-02T22:12:27Z</time>
  <course>215.04</course>
  <speed>0.01</speed>
  <fix>3d</fix>
</trkpt>
<trkpt lat="33.810313" lon="-118.3938669">
  <ele>0.12</ele>
  <time>2026-09-02T22:12:27Z</time>
  <course>0.0</course>
  <speed>0.0</speed>
  <fix>3d</fix>
</trkpt>
<trkpt lat="33.810313" lon="-118.3938669">
  <ele>0.1</ele>
  <time>2026-09-02T22:12:27Z</time>
  <course>215.04</course>
  <speed>0.01</speed>
  <fix>3d</fix>
</trkpt>
<trkpt lat="33.810313" lon="-118.3938669">
  <ele>0.12</ele>
  <time>2026-09-02T22:12:27Z</time>
  <course>0.0</course>
  <speed>0.0</speed>
  <fix>3d</fix>
</trkpt>
<trkpt lat="33.810313" lon="-118.3938669">
  <ele>0.102</ele>
  <time>2026-09-02T22:12:27Z</time>
  <course>215.04</course>
  <speed>0.01</speed>
  <fix>3d</fix>
</trkpt>
<trkpt lat="33.810313" lon="-118.3938669">
  <ele>0.12</ele>
  <time>2026-09-02T22:12:27Z</time>
  <course>0.0</course>
  <speed>0.0</speed>
  <fix>3d</fix>
</trkpt>
<trkpt lat="33.810313" lon="-118.3938669">
  <ele>0.103</ele>
  <time>2026-09-02T22:12:27Z</time>
  <course>215.04</course>
  <speed>0.01</speed>
  <fix>3d</fix>
</trkpt>
<trkpt lat="33.810313" lon="-118.3938669">
  <ele>0.12</ele>
  <time>2026-09-02T22:12:27Z</time>
  <course>0.0</course>
  <speed>0.0</speed>
  <fix>3d</fix>
</trkpt>
<trkpt lat="33.810313" lon="-118.3938669">
  <ele>0.103</ele>
  <time>2026-09-02T22:12:27Z</time>
  <course>215.04</course>
  <speed>0.01</speed>
  <fix>3d</fix>
</trkpt>
<trkpt lat="33.810313" lon="-118.3938669">
  <ele>0.12</ele>
  <time>2026-09-02T22:12:27Z</time>
  <course>0.0</course>
  <speed>0.0</speed>
  <fix>3d</fix>
</trkpt>
<trkpt lat="33.810313" lon="-118.3938669">
  <ele>0.102</ele>
  <time>2026-09-02T22:12:27Z</time>
  <course>215.04</course>
  <speed>0.01</speed>
  <fix>3d</fix>
</trkpt>
<trkpt lat="33.810313" lon="-118.3938669">
  <ele>0.12</ele>
  <time>2026-09-02T22:12:27Z</time>
  <course>0.0</course>
  <speed>0.0</speed>
  <fix>3d</fix>
</trkpt>
<trkpt lat="33.810313" lon="-118.3938669">
  <ele>0.102</ele>
  <time>2026-09-02T22:12:27Z</time>
  <course>215.04</course>
  <speed>0.01</speed>
  <fix>3d</fix>
</trkpt>
<trkpt lat="33.810313" lon="-118.3938669">
  <ele>0.12</ele>
  <time>2026-09-02T22:12:27Z</time>
  <course>0.0</course>
  <speed>0.0</speed>
  <fix>3d</fix>
</trkpt>
<trkpt lat="33.810313" lon="-118.3938669">
  <ele>0.102</ele>
  <time>2026-09-02T22:12:27Z</time>
  <course>215.04</course>
  <speed>0.01</speed>
  <fix>3d</fix>
</trkpt>
<trkpt lat="33.810313" lon="-118.3938669">
  <ele>0.12</ele>
  <time>2026-09-02T22:12:27Z</time>
  <course>0.0</course>
  <speed>0.0</speed>
  <fix>3d</fix>
</trkpt>
<trkpt lat="33.810313" lon="-118.3938669">
  <ele>0.102</ele>
  <time>2026-09-02T22:12:27Z</time>
  <course>215.04</course>
  <speed>0.01</speed>
  <fix>3d</fix>
</trkpt>
<trkpt lat="33.810313" lon="-118.3938669">
  <ele>0.12</ele>
  <time>2026-09-02T22:12:27Z</time>
  <course>0.0</course>
  <speed>0.0</speed>
  <fix>3d</fix>
</trkpt>
<trkpt lat="33.810313" lon="-118.3938669">
  <ele>0.103</ele>
  <time>2026-09-02T22:12:27Z</time>
  <course>215.04</course>
  <speed>0.01</speed>
  <fix>3d</fix>
</trkpt>
<trkpt lat="33.810313" lon="-118.3938669">
  <ele>0.12</ele>
  <time>2026-09-02T22:12:27Z</time>
  <course>0.0</course>
  <speed>0.0</speed>
  <fix>3d</fix>
</trkpt>
<trkpt lat="33.810313" lon="-118.3938669">
  <ele>0.104</ele>
  <time>2026-09-02T22:12:27Z</time>
  <course>215.04</course>
  <speed>0.01</speed>
  <fix>3d</fix>
</trkpt>
<trkpt lat="33.810313" lon="-118.3938669">
  <ele>0.12</ele>
  <time>2026-09-02T22:12:27Z</time>
  <course>0.0</course>
  <speed>0.0</speed>
  <fix>3d</fix>
</trkpt>
<trkpt lat="33.810313" lon="-118.3938669">
  <ele>0.106</ele>
  <time>2026-09-02T22:12:27Z</time>
  <course>215.04</course>
  <speed>0.01</speed>
  <fix>3d</fix>
</trkpt>
<trkpt lat="33.810313" lon="-118.3938669">
  <ele>0.12</ele>
  <time>2026-09-02T22:12:27Z</time>
  <course>0.0</course>
  <speed>0.0</speed>
  <fix>3d</fix>
</trkpt>
<trkpt lat="33.810313" lon="-118.3938669">
  <ele>0.108</ele>
  <time>2026-09-02T22:12:27Z</time>
  <course>215.04</course>
  <speed>0.01</speed>
  <fix>3d</fix>
</trkpt>
<trkpt lat="33.810313" lon="-118.3938669">
  <ele>0.12</ele>
  <time>2026-09-02T22:12:27Z</time>
  <course>0.0</course>
  <speed>0.0</speed>
  <fix>3d</fix>
</trkpt>
<trkpt lat="33.810313" lon="-118.3938669">
  <ele>0.111</ele>
  <time>2026-09-02T22:12:27Z</time>
  <course>215.04</course>
  <speed>0.01</speed>
  <fix>3d</fix>
</trkpt>
<trkpt lat="33.810313" lon="-118.3938669">
  <ele>0.12</ele>
  <time>2026-09-02T22:12:27Z</time>
  <course>0.0</course>
  <speed>0.0</speed>
  <fix>3d</fix>
</trkpt>
<trkpt lat="33.810313" lon="-118.3938669">
  <ele>0.114</ele>
  <time>2026-09-02T22:12:27Z</time>
  <course>215.04</course>
  <speed>0.01</speed>
  <fix>3d</fix>
</trkpt>
<trkpt lat="33.810313" lon="-118.3938669">
  <ele>0.12</ele>
  <time>2026-09-02T22:12:27Z</time>
  <course>0.0</course>
  <speed>0.0</speed>
  <fix>3d</fix>
</trkpt>
<trkpt lat="33.810313" lon="-118.3938669">
  <ele>0.115</ele>
  <time>2026-09-02T22:12:27Z</time>
  <course>215.04</course>
  <speed>0.02</speed>
  <fix>3d</fix>
</trkpt>
<trkpt lat="33.810313" lon="-118.3938669">
  <ele>0.12</ele>
  <time>2026-09-02T22:12:27Z</time>
  <course>0.0</course>
  <speed>0.0</speed>
  <fix>3d</fix>
</trkpt>
<trkpt lat="33.810313" lon="-118.3938669">
  <ele>0.114</ele>
  <time>2026-09-02T22:12:27Z</time>
  <course>215.04</course>
  <speed>0.02</speed>
  <fix>3d</fix>
</trkpt>
<trkpt lat="33.810313" lon="-118.3938669">
  <ele>0.12</ele>
  <time>2026-09-02T22:12:27Z</time>
  <course>0.0</course>
  <speed>0.0</speed>
  <fix>3d</fix>
</trkpt>
<trkpt lat="33.810313" lon="-118.3938669">
  <ele>0.113</ele>
  <time>2026-09-02T22:12:27Z</time>
  <course>215.04</course>
  <speed>0.02</speed>
  <fix>3d</fix>
</trkpt>
<trkpt lat="33.810313" lon="-118.3938669">
  <ele>0.12</ele>
  <time>2026-09-02T22:12:27Z</time>
  <course>0.0</course>
  <speed>0.0</speed>
  <fix>3d</fix>
</trkpt>
<trkpt lat="33.810313" lon="-118.3938669">
  <ele>0.111</ele>
  <time>2026-09-02T22:12:27Z</time>
  <course>215.04</course>
  <speed>0.02</speed>
  <fix>3d</fix>
</trkpt>
<trkpt lat="33.810313" lon="-118.3938669">
  <ele>0.12</ele>
  <time>2026-09-02T22:12:27Z</time>
  <course>0.0</course>
  <speed>0.0</speed>
  <fix>3d</fix>
</trkpt>
<trkpt lat="33.810313" lon="-118.3938669">
  <ele>0.11</ele>
  <time>2026-09-02T22:12:27Z</time>
  <course>215.04</course>
  <speed>0.02</speed>
  <fix>3d</fix>
</trkpt>
<trkpt lat="33.810313" lon="-118.3938669">
  <ele>0.12</ele>
  <time>2026-09-02T22:12:27Z</time>
  <course>0.0</course>
  <speed>0.0</speed>
  <fix>3d</fix>
</trkpt>
<trkpt lat="33.810313" lon="-118.3938669">
  <ele>0.108</ele>
  <time>2026-09-02T22:12:27Z</time>
  <course>215.04</course>
  <speed>0.02</speed>
  <fix>3d</fix>
</trkpt>
<trkpt lat="33.810313" lon="-118.3938669">
  <ele>0.12</ele>
  <time>2026-09-02T22:12:27Z</time>
  <course>0.0</course>
  <speed>0.0</speed>
  <fix>3d</fix>
</trkpt>
<trkpt lat="33.810313" lon="-118.3938669">
  <ele>0.107</ele>
  <time>2026-09-02T22:12:27Z</time>
  <course>215.04</course>
  <speed>0.02</speed>
  <fix>3d</fix>
</trkpt>
<trkpt lat="33.810313" lon="-118.3938669">
  <ele>0.12</ele>
  <time>2026-09-02T22:12:27Z</time>
  <course>0.0</course>
  <speed>0.0</speed>
  <fix>3d</fix>
</trkpt>
<trkpt lat="33.810313" lon="-118.3938669">
  <ele>0.107</ele>
  <time>2026-09-02T22:12:27Z</time>
  <course>215.04</course>
  <speed>0.02</speed>
  <fix>3d</fix>
</trkpt>
<trkpt lat="33.810313" lon="-118.3938669">
  <ele>0.12</ele>
  <time>2026-09-02T22:12:27Z</time>
  <course>0.0</course>
  <speed>0.0</speed>
  <fix>3d</fix>
</trkpt>
<trkpt lat="33.810313" lon="-118.3938669">
  <ele>0.107</ele>
  <time>2026-09-02T22:12:27Z</time>
  <course>215.04</course>
  <speed>0.02</speed>
  <fix>3d</fix>
</trkpt>
<trkpt lat="33.810313" lon="-118.3938669">
  <ele>0.12</ele>
  <time>2026-09-02T22:12:27Z</time>
  <course>0.0</course>
  <speed>0.0</speed>
  <fix>3d</fix>
</trkpt>
<trkpt lat="33.810313" lon="-118.3938669">
  <ele>0.108</ele>
  <time>2026-09-02T22:12:27Z</time>
  <course>215.04</course>
  <speed>0.02</speed>
  <fix>3d</fix>
</trkpt>
<trkpt lat="33.810313" lon="-118.3938669">
  <ele>0.12</ele>
  <time>2026-09-02T22:12:27Z</time>
  <course>0.0</course>
  <speed>0.0</speed>
  <fix>3d</fix>
</trkpt>
<trkpt lat="33.810313" lon="-118.3938669">
  <ele>0.11</ele>
  <time>2026-09-02T22:12:27Z</time>
  <course>215.04</course>
  <speed>0.02</speed>
  <fix>3d</fix>
</trkpt>
<trkpt lat="33.810313" lon="-118.3938669">
  <ele>0.12</ele>
  <time>2026-09-02T22:12:27Z</time>
  <course>0.0</course>
  <speed>0.0</speed>
  <fix>3d</fix>
</trkpt>
<trkpt lat="33.810313" lon="-118.3938669">
  <ele>0.11</ele>
  <time>2026-09-02T22:12:27Z</time>
  <course>215.04</course>
  <speed>0.02</speed>
  <fix>3d</fix>
</trkpt>
<trkpt lat="33.810313" lon="-118.3938669">
  <ele>0.12</ele>
  <time>2026-09-02T22:12:27Z</time>
  <course>0.0</course>
  <speed>0.0</speed>
  <fix>3d</fix>
</trkpt>
<trkpt lat="33.810313" lon="-118.3938669">
  <ele>0.109</ele>
  <time>2026-09-02T22:12:27Z</time>
  <course>215.04</course>
  <speed>0.02</speed>
  <fix>3d</fix>
</trkpt>
<trkpt lat="33.810313" lon="-118.3938669">
  <ele>0.12</ele>
  <time>2026-09-02T22:12:27Z</time>
  <course>0.0</course>
  <speed>0.0</speed>
  <fix>3d</fix>
</trkpt>
<trkpt lat="33.810313" lon="-118.3938669">
  <ele>0.106</ele>
  <time>2026-09-02T22:12:27Z</time>
  <course>215.04</course>
  <speed>0.02</speed>
  <fix>3d</fix>
</trkpt>
<trkpt lat="33.810313" lon="-118.3938669">
  <ele>0.12</ele>
  <time>2026-09-02T22:12:27Z</time>
  <course>0.0</course>
  <speed>0.0</speed>
  <fix>3d</fix>
</trkpt>
<trkpt lat="33.810313" lon="-118.3938669">
  <ele>0.102</ele>
  <time>2026-09-02T22:12:27Z</time>
  <course>215.04</course>
  <speed>0.02</speed>
  <fix>3d</fix>
</trkpt>
<trkpt lat="33.810313" lon="-118.3938669">
  <ele>0.12</ele>
  <time>2026-09-02T22:12:27Z</time>
  <course>0.0</course>
  <speed>0.0</speed>
  <fix>3d</fix>
</trkpt>
<trkpt lat="33.810313" lon="-118.3938669">
  <ele>0.1</ele>
  <time>2026-09-02T22:12:27Z</time>
  <course>215.04</course>
  <speed>0.02</speed>
  <fix>3d</fix>
</trkpt>
<trkpt lat="33.810313" lon="-118.3938669">
  <ele>0.12</ele>
  <time>2026-09-02T22:12:27Z</time>
  <course>0.0</course>
  <speed>0.0</speed>
  <fix>3d</fix>
</trkpt>
<trkpt lat="33.810313" lon="-118.3938669">
  <ele>0.098</ele>
  <time>2026-09-02T22:12:27Z</time>
  <course>215.04</course>
  <speed>0.02</speed>
  <fix>3d</fix>
</trkpt>
<trkpt lat="33.810313" lon="-118.3938669">
  <ele>0.12</ele>
  <time>2026-09-02T22:12:27Z</time>
  <course>0.0</course>
  <speed>0.0</speed>
  <fix>3d</fix>
</trkpt>
<trkpt lat="33.810313" lon="-118.3938669">
  <ele>0.097</ele>
  <time>2026-09-02T22:12:27Z</time>
  <course>215.04</course>
  <speed>0.02</speed>
  <fix>3d</fix>
</trkpt>
<trkpt lat="33.810313" lon="-118.3938669">
  <ele>0.12</ele>
  <time>2026-09-02T22:12:27Z</time>
  <course>0.0</course>
  <speed>0.0</speed>
  <fix>3d</fix>
</trkpt>
<trkpt lat="33.810313" lon="-118.3938669">
  <ele>0.096</ele>
  <time>2026-09-02T22:12:27Z</time>
  <course>215.04</course>
  <speed>0.02</speed>
  <fix>3d</fix>
</trkpt>
<trkpt lat="33.810313" lon="-118.3938669">
  <ele>0.12</ele>
  <time>2026-09-02T22:12:27Z</time>
  <course>0.0</course>
  <speed>0.0</speed>
  <fix>3d</fix>
</trkpt>
<trkpt lat="33.810313" lon="-118.3938669">
  <ele>0.096</ele>
  <time>2026-09-02T22:12:27Z</time>
  <course>215.04</course>
  <speed>0.02</speed>
  <fix>3d</fix>
</trkpt>
<trkpt lat="33.810313" lon="-118.3938669">
  <ele>0.12</ele>
  <time>2026-09-02T22:12:27Z</time>
  <course>0.0</course>
  <speed>0.0</speed>
  <fix>3d</fix>
</trkpt>
<trkpt lat="33.810313" lon="-118.3938669">
  <ele>0.096</ele>
  <time>2026-09-02T22:12:27Z</time>
  <course>215.04</course>
  <speed>0.02</speed>
  <fix>3d</fix>
</trkpt>
<trkpt lat="33.810313" lon="-118.3938669">
  <ele>0.12</ele>
  <time>2026-09-02T22:12:27Z</time>
  <course>0.0</course>
  <speed>0.0</speed>
  <fix>3d</fix>
</trkpt>
<trkpt lat="33.810313" lon="-118.3938669">
  <ele>0.097</ele>
  <time>2026-09-02T22:12:27Z</time>
  <course>215.05</course>
  <speed>0.02</speed>
  <fix>3d</fix>
</trkpt>
<trkpt lat="33.810313" lon="-118.3938669">
  <ele>0.12</ele>
  <time>2026-09-02T22:12:27Z</time>
  <course>0.0</course>
  <speed>0.0</speed>
  <fix>3d</fix>
</trkpt>
<trkpt lat="33.810313" lon="-118.3938669">
  <ele>0.098</ele>
  <time>2026-09-02T22:12:27Z</time>
  <course>215.05</course>
  <speed>0.02</speed>
  <fix>3d</fix>
</trkpt>
<trkpt lat="33.810313" lon="-118.3938669">
  <ele>0.12</ele>
  <time>2026-09-02T22:12:27Z</time>
  <course>0.0</course>
  <speed>0.0</speed>
  <fix>3d</fix>
</trkpt>
<trkpt lat="33.810313" lon="-118.3938669">
  <ele>0.098</ele>
  <time>2026-09-02T22:12:27Z</time>
  <course>215.05</course>
  <speed>0.02</speed>
  <fix>3d</fix>
</trkpt>
<trkpt lat="33.810313" lon="-118.3938669">
  <ele>0.12</ele>
  <time>2026-09-02T22:12:27Z</time>
  <course>0.0</course>
  <speed>0.0</speed>
  <fix>3d</fix>
</trkpt>
<trkpt lat="33.810313" lon="-118.3938669">
  <ele>0.098</ele>
  <time>2026-09-02T22:12:27Z</time>
  <course>215.05</course>
  <speed>0.02</speed>
  <fix>3d</fix>
</trkpt>
<trkpt lat="33.810313" lon="-118.3938669">
  <ele>0.12</ele>
  <time>2026-09-02T22:12:27Z</time>
  <course>0.0</course>
  <speed>0.0</speed>
  <fix>3d</fix>
</trkpt>
<trkpt lat="33.810313" lon="-118.3938669">
  <ele>0.097</ele>
  <time>2026-09-02T22:12:27Z</time>
  <course>215.05</course>
  <speed>0.02</speed>
  <fix>3d</fix>
</trkpt>
<trkpt lat="33.810313" lon="-118.3938669">
  <ele>0.12</ele>
  <time>2026-09-02T22:12:27Z</time>
  <course>0.0</course>
  <speed>0.0</speed>
  <fix>3d</fix>
</trkpt>
<trkpt lat="33.810313" lon="-118.3938669">
  <ele>0.095</ele>
  <time>2026-09-02T22:12:27Z</time>
  <course>215.05</course>
  <speed>0.02</speed>
  <fix>3d</fix>
</trkpt>
<trkpt lat="33.810313" lon="-118.3938669">
  <ele>0.12</ele>
  <time>2026-09-02T22:12:27Z</time>
  <course>0.0</course>
  <speed>0.0</speed>
  <fix>3d</fix>
</trkpt>
<trkpt lat="33.810313" lon="-118.3938669">
  <ele>0.094</ele>
  <time>2026-09-02T22:12:27Z</time>
  <course>215.05</course>
  <speed>0.02</speed>
  <fix>3d</fix>
</trkpt>
<trkpt lat="33.810313" lon="-118.3938669">
  <ele>0.12</ele>
  <time>2026-09-02T22:12:27Z</time>
  <course>0.0</course>
  <speed>0.0</speed>
  <fix>3d</fix>
</trkpt>
<trkpt lat="33.810313" lon="-118.3938669">
  <ele>0.093</ele>
  <time>2026-09-02T22:12:27Z</time>
  <course>215.05</course>
  <speed>0.02</speed>
  <fix>3d</fix>
</trkpt>
<trkpt lat="33.810313" lon="-118.3938669">
  <ele>0.12</ele>
  <time>2026-09-02T22:12:27Z</time>
  <course>0.0</course>
  <speed>0.0</speed>
  <fix>3d</fix>
</trkpt>
<trkpt lat="33.810313" lon="-118.3938669">
  <ele>0.094</ele>
  <time>2026-09-02T22:12:27Z</time>
  <course>215.05</course>
  <speed>0.0</speed>
  <fix>3d</fix>
</trkpt>
<trkpt lat="33.810313" lon="-118.3938669">
  <ele>0.12</ele>
  <time>2026-09-02T22:12:27Z</time>
  <course>0.0</course>
  <speed>0.0</speed>
  <fix>3d</fix>
</trkpt>
<trkpt lat="33.810313" lon="-118.3938669">
  <ele>0.095</ele>
  <time>2026-09-02T22:12:27Z</time>
  <course>215.05</course>
  <speed>0.0</speed>
  <fix>3d</fix>
</trkpt>
<trkpt lat="33.810313" lon="-118.3938669">
  <ele>0.12</ele>
  <time>2026-09-02T22:12:27Z</time>
  <course>0.0</course>
  <speed>0.0</speed>
  <fix>3d</fix>
</trkpt>
<trkpt lat="33.810313" lon="-118.3938669">
  <ele>0.096</ele>
  <time>2026-09-02T22:12:27Z</time>
  <course>215.05</course>
  <speed>0.0</speed>
  <fix>3d</fix>
</trkpt>
<trkpt lat="33.810313" lon="-118.3938669">
  <ele>0.12</ele>
  <time>2026-09-02T22:12:27Z</time>
  <course>0.0</course>
  <speed>0.0</speed>
  <fix>3d</fix>
</trkpt>
<trkpt lat="33.810313" lon="-118.3938669">
  <ele>0.098</ele>
  <time>2026-09-02T22:12:27Z</time>
  <course>215.05</course>
  <speed>0.0</speed>
  <fix>3d</fix>
</trkpt>
<trkpt lat="33.810313" lon="-118.3938669">
  <ele>0.12</ele>
  <time>2026-09-02T22:12:27Z</time>
  <course>0.0</course>
  <speed>0.0</speed>
  <fix>3d</fix>
</trkpt>
<trkpt lat="33.810313" lon="-118.3938669">
  <ele>0.1</ele>
  <time>2026-09-02T22:12:27Z</time>
  <course>215.05</course>
  <speed>0.0</speed>
  <fix>3d</fix>
</trkpt>
<trkpt lat="33.810313" lon="-118.3938669">
  <ele>0.12</ele>
  <time>2026-09-02T22:12:27Z</time>
  <course>0.0</course>
  <speed>0.0</speed>
  <fix>3d</fix>
</trkpt>
<trkpt lat="33.810313" lon="-118.3938669">
  <ele>0.103</ele>
  <time>2026-09-02T22:12:27Z</time>
  <course>215.05</course>
  <speed>0.0</speed>
  <fix>3d</fix>
</trkpt>
<trkpt lat="33.810313" lon="-118.3938669">
  <ele>0.12</ele>
  <time>2026-09-02T22:12:27Z</time>
  <course>0.0</course>
  <speed>0.0</speed>
  <fix>3d</fix>
</trkpt>
<trkpt lat="33.810313" lon="-118.3938669">
  <ele>0.105</ele>
  <time>2026-09-02T22:12:27Z</time>
  <course>215.05</course>
  <speed>0.0</speed>
  <fix>3d</fix>
</trkpt>
<trkpt lat="33.810313" lon="-118.3938669">
  <ele>0.12</ele>
  <time>2026-09-02T22:12:27Z</time>
  <course>0.0</course>
  <speed>0.0</speed>
  <fix>3d</fix>
</trkpt>
<trkpt lat="33.810313" lon="-118.3938669">
  <ele>0.107</ele>
  <time>2026-09-02T22:12:27Z</time>
  <course>215.05</course>
  <speed>0.0</speed>
  <fix>3d</fix>
</trkpt>
<trkpt lat="33.810313" lon="-118.3938669">
  <ele>0.12</ele>
  <time>2026-09-02T22:12:27Z</time>
  <course>0.0</course>
  <speed>0.0</speed>
  <fix>3d</fix>
</trkpt>
<trkpt lat="33.810313" lon="-118.3938669">
  <ele>0.108</ele>
  <time>2026-09-02T22:12:27Z</time>
  <course>215.05</course>
  <speed>0.0</speed>
  <fix>3d</fix>
</trkpt>
<trkpt lat="33.810313" lon="-118.3938669">
  <ele>0.12</ele>
  <time>2026-09-02T22:12:27Z</time>
  <course>0.0</course>
  <speed>0.0</speed>
  <fix>3d</fix>
</trkpt>
<trkpt lat="33.810313" lon="-118.3938669">
  <ele>0.108</ele>
  <time>2026-09-02T22:12:27Z</time>
  <course>215.05</course>
  <speed>0.0</speed>
  <fix>3d</fix>
</trkpt>
<trkpt lat="33.810313" lon="-118.3938669">
  <ele>0.12</ele>
  <time>2026-09-02T22:12:27Z</time>
  <course>0.0</course>
  <speed>0.0</speed>
  <fix>3d</fix>
</trkpt>
<trkpt lat="33.810313" lon="-118.3938669">
  <ele>0.107</ele>
  <time>2026-09-02T22:12:27Z</time>
  <course>215.05</course>
  <speed>0.0</speed>
  <fix>3d</fix>
</trkpt>
<trkpt lat="33.810313" lon="-118.3938669">
  <ele>0.12</ele>
  <time>2026-09-02T22:12:27Z</time>
  <course>0.0</course>
  <speed>0.0</speed>
  <fix>3d</fix>
</trkpt>
<trkpt lat="33.810313" lon="-118.3938669">
  <ele>0.106</ele>
  <time>2026-09-02T22:12:27Z</time>
  <course>215.05</course>
  <speed>0.01</speed>
  <fix>3d</fix>
</trkpt>
<trkpt lat="33.810313" lon="-118.3938669">
  <ele>0.12</ele>
  <time>2026-09-02T22:12:27Z</time>
  <course>0.0</course>
  <speed>0.0</speed>
  <fix>3d</fix>
</trkpt>
<trkpt lat="33.810313" lon="-118.3938669">
  <ele>0.105</ele>
  <time>2026-09-02T22:12:27Z</time>
  <course>215.05</course>
  <speed>0.01</speed>
  <fix>3d</fix>
</trkpt>
<trkpt lat="33.810313" lon="-118.3938669">
  <ele>0.12</ele>
  <time>2026-09-02T22:12:27Z</time>
  <course>0.0</course>
  <speed>0.0</speed>
  <fix>3d</fix>
</trkpt>
<trkpt lat="33.810313" lon="-118.3938669">
  <ele>0.105</ele>
  <time>2026-09-02T22:12:27Z</time>
  <course>215.05</course>
  <speed>0.01</speed>
  <fix>3d</fix>
</trkpt>
<trkpt lat="33.810313" lon="-118.3938669">
  <ele>0.12</ele>
  <time>2026-09-02T22:12:27Z</time>
  <course>0.0</course>
  <speed>0.0</speed>
  <fix>3d</fix>
</trkpt>
<trkpt lat="33.810313" lon="-118.3938669">
  <ele>0.106</ele>
  <time>2026-09-02T22:12:27Z</time>
  <course>215.05</course>
  <speed>0.01</speed>
  <fix>3d</fix>
</trkpt>
<trkpt lat="33.810313" lon="-118.3938669">
  <ele>0.12</ele>
  <time>2026-09-02T22:12:27Z</time>
  <course>0.0</course>
  <speed>0.0</speed>
  <fix>3d</fix>
</trkpt>
<trkpt lat="33.810313" lon="-118.3938669">
  <ele>0.107</ele>
  <time>2026-09-02T22:12:27Z</time>
  <course>215.05</course>
  <speed>0.01</speed>
  <fix>3d</fix>
</trkpt>
<trkpt lat="33.810313" lon="-118.3938669">
  <ele>0.12</ele>
  <time>2026-09-02T22:12:27Z</time>
  <course>0.0</course>
  <speed>0.0</speed>
  <fix>3d</fix>
</trkpt>
<trkpt lat="33.810313" lon="-118.3938669">
  <ele>0.109</ele>
  <time>2026-09-02T22:12:27Z</time>
  <course>215.05</course>
  <speed>0.01</speed>
  <fix>3d</fix>
</trkpt>
<trkpt lat="33.810313" lon="-118.3938669">
  <ele>0.12</ele>
  <time>2026-09-02T22:12:27Z</time>
  <course>0.0</course>
  <speed>0.0</speed>
  <fix>3d</fix>
</trkpt>
<trkpt lat="33.810313" lon="-118.3938669">
  <ele>0.11</ele>
  <time>2026-09-02T22:12:27Z</time>
  <course>215.05</course>
  <speed>0.01</speed>
  <fix>3d</fix>
</trkpt>
<trkpt lat="33.810313" lon="-118.3938669">
  <ele>0.12</ele>
  <time>2026-09-02T22:12:27Z</time>
  <course>0.0</course>
  <speed>0.0</speed>
  <fix>3d</fix>
</trkpt>
<trkpt lat="33.810313" lon="-118.3938669">
  <ele>0.111</ele>
  <time>2026-09-02T22:12:27Z</time>
  <course>215.05</course>
  <speed>0.01</speed>
  <fix>3d</fix>
</trkpt>
<trkpt lat="33.810313" lon="-118.3938669">
  <ele>0.12</ele>
  <time>2026-09-02T22:12:27Z</time>
  <course>0.0</course>
  <speed>0.0</speed>
  <fix>3d</fix>
</trkpt>
<trkpt lat="33.810313" lon="-118.3938669">
  <ele>0.11</ele>
  <time>2026-09-02T22:12:27Z</time>
  <course>215.05</course>
  <speed>0.01</speed>
  <fix>3d</fix>
</trkpt>
<trkpt lat="33.810313" lon="-118.3938669">
  <ele>0.12</ele>
  <time>2026-09-02T22:12:27Z</time>
  <course>0.0</course>
  <speed>0.0</speed>
  <fix>3d</fix>
</trkpt>
<trkpt lat="33.810313" lon="-118.3938669">
  <ele>0.108</ele>
  <time>2026-09-02T22:12:27Z</time>
  <course>215.05</course>
  <speed>0.01</speed>
  <fix>3d</fix>
</trkpt>
<trkpt lat="33.810313" lon="-118.3938669">
  <ele>0.12</ele>
  <time>2026-09-02T22:12:27Z</time>
  <course>0.0</course>
  <speed>0.0</speed>
  <fix>3d</fix>
</trkpt>
<trkpt lat="33.810313" lon="-118.3938669">
  <ele>0.105</ele>
  <time>2026-09-02T22:12:27Z</time>
  <course>184.89</course>
  <speed>0.01</speed>
  <fix>3d</fix>
</trkpt>
<trkpt lat="33.810313" lon="-118.3938669">
  <ele>0.12</ele>
  <time>2026-09-02T22:12:27Z</time>
  <course>0.0</course>
  <speed>0.0</speed>
  <fix>3d</fix>
</trkpt>
<trkpt lat="33.810313" lon="-118.3938669">
  <ele>0.103</ele>
  <time>2026-09-02T22:12:27Z</time>
  <course>184.89</course>
  <speed>0.01</speed>
  <fix>3d</fix>
</trkpt>
<trkpt lat="33.810313" lon="-118.3938669">
  <ele>0.12</ele>
  <time>2026-09-02T22:12:27Z</time>
  <course>0.0</course>
  <speed>0.0</speed>
  <fix>3d</fix>
</trkpt>
<trkpt lat="33.810313" lon="-118.3938669">
  <ele>0.101</ele>
  <time>2026-09-02T22:12:27Z</time>
  <course>184.89</course>
  <speed>0.01</speed>
  <fix>3d</fix>
</trkpt>
<trkpt lat="33.810313" lon="-118.3938669">
  <ele>0.12</ele>
  <time>2026-09-02T22:12:27Z</time>
  <course>0.0</course>
  <speed>0.0</speed>
  <fix>3d</fix>
</trkpt>
<trkpt lat="33.8103131" lon="-118.3938669">
  <ele>0.101</ele>
  <time>2026-09-02T22:12:27Z</time>
  <course>184.89</course>
  <speed>0.01</speed>
  <fix>3d</fix>
</trkpt>
<trkpt lat="33.810313" lon="-118.3938669">
  <ele>0.12</ele>
  <time>2026-09-02T22:12:27Z</time>
  <course>0.0</course>
  <speed>0.0</speed>
  <fix>3d</fix>
</trkpt>
<trkpt lat="33.8103131" lon="-118.3938669">
  <ele>0.103</ele>
  <time>2026-09-02T22:12:27Z</time>
  <course>184.89</course>
  <speed>0.02</speed>
  <fix>3d</fix>
</trkpt>
<trkpt lat="33.810313" lon="-118.3938669">
  <ele>0.12</ele>
  <time>2026-09-02T22:12:27Z</time>
  <course>0.0</course>
  <speed>0.0</speed>
  <fix>3d</fix>
</trkpt>
<trkpt lat="33.8103131" lon="-118.3938669">
  <ele>0.105</ele>
  <time>2026-09-02T22:12:27Z</time>
  <course>184.89</course>
  <speed>0.02</speed>
  <fix>3d</fix>
</trkpt>
<trkpt lat="33.810313" lon="-118.3938669">
  <ele>0.12</ele>
  <time>2026-09-02T22:12:27Z</time>
  <course>0.0</course>
  <speed>0.0</speed>
  <fix>3d</fix>
</trkpt>
<trkpt lat="33.8103131" lon="-118.3938669">
  <ele>0.109</ele>
  <time>2026-09-02T22:12:27Z</time>
  <course>184.89</course>
  <speed>0.022360679774997897</speed>
  <fix>3d</fix>
</trkpt>
<trkpt lat="33.810313" lon="-118.3938669">
  <ele>0.12</ele>
  <time>2026-09-02T22:12:27Z</time>
  <course>0.0</course>
  <speed>0.0</speed>
  <fix>3d</fix>
</trkpt>
<trkpt lat="33.8103131" lon="-118.3938669">
  <ele>0.112</ele>
  <time>2026-09-02T22:12:27Z</time>
  <course>184.89</course>
  <speed>0.022360679774997897</speed>
  <fix>3d</fix>
</trkpt>
<trkpt lat="33.810313" lon="-118.3938669">
  <ele>0.12</ele>
  <time>2026-09-02T22:12:27Z</time>
  <course>0.0</course>
  <speed>0.0</speed>
  <fix>3d</fix>
</trkpt>
<trkpt lat="33.8103132" lon="-118.3938669">
  <ele>0.114</ele>
  <time>2026-09-02T22:12:27Z</time>
  <course>184.89</course>
  <speed>0.022360679774997897</speed>
  <fix>3d</fix>
</trkpt>
<trkpt lat="33.810313" lon="-118.3938669">
  <ele>0.12</ele>
  <time>2026-09-02T22:12:27Z</time>
  <course>0.0</course>
  <speed>0.0</speed>
  <fix>3d</fix>
</trkpt>
<trkpt lat="33.8103132" lon="-118.393867">
  <ele>0.114</ele>
  <time>2026-09-02T22:12:27Z</time>
  <course>184.89</course>
  <speed>0.022360679774997897</speed>
  <fix>3d</fix>
</trkpt>
<trkpt lat="33.810313" lon="-118.3938669">
  <ele>0.12</ele>
  <time>2026-09-02T22:12:27Z</time>
  <course>0.0</course>
  <speed>0.0</speed>
  <fix>3d</fix>
</trkpt>
<trkpt lat="33.4368002" lon="-117.0859339">
  <ele>-0.11</ele>
  <time>2026-09-02T22:12:28Z</time>
  <course>0.0</course>
  <speed>0.0</speed>
  <fix>3d</fix>
</trkpt>
<trkpt lat="33.4368002" lon="-117.0859339">
  <ele>-0.11</ele>
  <time>2026-09-02T22:12:28Z</time>
  <course>0.0</course>
  <speed>0.0</speed>
  <fix>3d</fix>
</trkpt>
<trkpt lat="33.810313" lon="-118.393867">
  <ele>0.0</ele>
  <time>2026-09-02T22:12:28Z</time>
  <course>173.5</course>
  <speed>0.0</speed>
  <fix>3d</fix>
</trkpt>
<trkpt lat="33.810313" lon="-118.393867">
  <ele>-0.11</ele>
  <time>2026-09-02T22:12:28Z</time>
  <course>0.0</course>
  <speed>0.0</speed>
  <fix>3d</fix>
</trkpt>
<trkpt lat="33.810313" lon="-118.393867">
  <ele>0.0</ele>
  <time>2026-09-02T22:12:28Z</time>
  <course>173.61</course>
  <speed>0.0</speed>
  <fix>3d</fix>
</trkpt>
<trkpt lat="33.810313" lon="-118.393867">
  <ele>-0.11</ele>
  <time>2026-09-02T22:12:28Z</time>
  <course>0.0</course>
  <speed>0.0</speed>
  <fix>3d</fix>
</trkpt>
<trkpt lat="33.810313" lon="-118.393867">
  <ele>0.0</ele>
  <time>2026-09-02T22:12:28Z</time>
  <course>173.99</course>
  <speed>0.0</speed>
  <fix>3d</fix>
</trkpt>
<trkpt lat="33.810313" lon="-118.393867">
  <ele>-0.11</ele>
  <time>2026-09-02T22:12:28Z</time>
  <course>0.0</course>
  <speed>0.0</speed>
  <fix>3d</fix>
</trkpt>
<trkpt lat="33.810313" lon="-118.393867">
  <ele>0.0</ele>
  <time>2026-09-02T22:12:28Z</time>
  <course>174.51</course>
  <speed>0.0</speed>
  <fix>3d</fix>
</trkpt>
<trkpt lat="33.810313" lon="-118.393867">
  <ele>-0.11</ele>
  <time>2026-09-02T22:12:28Z</time>
  <course>0.0</course>
  <speed>0.0</speed>
  <fix>3d</fix>
</trkpt>
<trkpt lat="33.810313" lon="-118.393867">
  <ele>0.0</ele>
  <time>2026-09-02T22:12:28Z</time>
  <course>175.07</course>
  <speed>0.0</speed>
  <fix>3d</fix>
</trkpt>
<trkpt lat="33.810313" lon="-118.393867">
  <ele>-0.12</ele>
  <time>2026-09-02T22:12:28Z</time>
  <course>0.0</course>
  <speed>0.0</speed>
  <fix>3d</fix>
</trkpt>
<trkpt lat="33.810313" lon="-118.393867">
  <ele>0.0</ele>
  <time>2026-09-02T22:12:28Z</time>
  <course>175.61</course>
  <speed>0.0</speed>
  <fix>3d</fix>
</trkpt>
<trkpt lat="33.810313" lon="-118.393867">
  <ele>-0.12</ele>
  <time>2026-09-02T22:12:28Z</time>
  <course>0.0</course>
  <speed>0.0</speed>
  <fix>3d</fix>
</trkpt>
<trkpt lat="33.810313" lon="-118.393867">
  <ele>0.0</ele>
  <time>2026-09-02T22:12:28Z</time>
  <course>176.12</course>
  <speed>0.0</speed>
  <fix>3d</fix>
</trkpt>
<trkpt lat="33.810313" lon="-118.393867">
  <ele>-0.13</ele>
  <time>2026-09-02T22:12:28Z</time>
  <course>0.0</course>
  <speed>0.0</speed>
  <fix>3d</fix>
</trkpt>
<trkpt lat="33.810313" lon="-118.393867">
  <ele>0.0</ele>
  <time>2026-09-02T22:12:28Z</time>
  <course>176.6</course>
  <speed>0.0</speed>
  <fix>3d</fix>
</trkpt>
<trkpt lat="33.810313" lon="-118.393867">
  <ele>-0.13</ele>
  <time>2026-09-02T22:12:28Z</time>
  <course>0.0</course>
  <speed>0.0</speed>
  <fix>3d</fix>
</trkpt>
<trkpt lat="33.810313" lon="-118.393867">
  <ele>0.0</ele>
  <time>2026-09-02T22:12:28Z</time>
  <course>177.07</course>
  <speed>0.0</speed>
  <fix>3d</fix>
</trkpt>
<trkpt lat="33.810313" lon="-118.393867">
  <ele>-0.13</ele>
  <time>2026-09-02T22:12:28Z</time>
  <course>0.0</course>
  <speed>0.0</speed>
  <fix>3d</fix>
</trkpt>
<trkpt lat="33.810313" lon="-118.393867">
  <ele>0.0</ele>
  <time>2026-09-02T22:12:28Z</time>
  <course>177.53</course>
  <speed>0.0</speed>
  <fix>3d</fix>
</trkpt>
<trkpt lat="33.810313" lon="-118.393867">
  <ele>-0.13</ele>
  <time>2026-09-02T22:12:28Z</time>
  <course>0.0</course>
  <speed>0.0</speed>
  <fix>3d</fix>
</trkpt>
<trkpt lat="33.810313" lon="-118.393867">
  <ele>0.0</ele>
  <time>2026-09-02T22:12:28Z</time>
  <course>177.97</course>
  <speed>0.0</speed>
  <fix>3d</fix>
</trkpt>
<trkpt lat="33.810313" lon="-118.393867">
  <ele>-0.14</ele>
  <time>2026-09-02T22:12:28Z</time>
  <course>0.0</course>
  <speed>0.0</speed>
  <fix>3d</fix>
</trkpt>
<trkpt lat="33.810313" lon="-118.393867">
  <ele>0.0</ele>
  <time>2026-09-02T22:12:28Z</time>
  <course>178.4</course>
  <speed>0.0</speed>
  <fix>3d</fix>
</trkpt>
<trkpt lat="33.810313" lon="-118.393867">
  <ele>-0.14</ele>
  <time>2026-09-02T22:12:28Z</time>
  <course>0.0</course>
  <speed>0.0</speed>
  <fix>3d</fix>
</trkpt>
<trkpt lat="33.810313" lon="-118.393867">
  <ele>0.0</ele>
  <time>2026-09-02T22:12:28Z</time>
  <course>178.82</course>
  <speed>0.0</speed>
  <fix>3d</fix>
</trkpt>
<trkpt lat="33.810313" lon="-118.393867">
  <ele>-0.14</ele>
  <time>2026-09-02T22:12:28Z</time>
  <course>0.0</course>
  <speed>0.0</speed>
  <fix>3d</fix>
</trkpt>
<trkpt lat="33.810313" lon="-118.393867">
  <ele>0.0</ele>
  <time>2026-09-02T22:12:28Z</time>
  <course>179.23</course>
  <speed>0.0</speed>
  <fix>3d</fix>
</trkpt>
<trkpt lat="33.810313" lon="-118.393867">
  <ele>-0.14</ele>
  <time>2026-09-02T22:12:28Z</time>
  <course>0.0</course>
  <speed>0.0</speed>
  <fix>3d</fix>
</trkpt>
<trkpt lat="33.810313" lon="-118.393867">
  <ele>0.0</ele>
  <time>2026-09-02T22:12:28Z</time>
  <course>179.62</course>
  <speed>0.0</speed>
  <fix>3d</fix>
</trkpt>
<trkpt lat="33.810313" lon="-118.393867">
  <ele>-0.14</ele>
  <time>2026-09-02T22:12:28Z</time>
  <course>0.0</course>
  <speed>0.0</speed>
  <fix>3d</fix>
</trkpt>
<trkpt lat="33.810313" lon="-118.393867">
  <ele>0.0</ele>
  <time>2026-09-02T22:12:28Z</time>
  <course>180.01</course>
  <speed>0.0</speed>
  <fix>3d</fix>
</trkpt>
<trkpt lat="33.810313" lon="-118.393867">
  <ele>-0.14</ele>
  <time>2026-09-02T22:12:28Z</time>
  <course>0.0</course>
  <speed>0.0</speed>
  <fix>3d</fix>
</trkpt>
<trkpt lat="33.810313" lon="-118.393867">
  <ele>0.0</ele>
  <time>2026-09-02T22:12:28Z</time>
  <course>180.37</course>
  <speed>0.0</speed>
  <fix>3d</fix>
</trkpt>
<trkpt lat="33.810313" lon="-118.393867">
  <ele>-0.14</ele>
  <time>2026-09-02T22:12:28Z</time>
  <course>0.0</course>
  <speed>0.0</speed>
  <fix>3d</fix>
</trkpt>
<trkpt lat="33.810313" lon="-118.393867">
  <ele>0.0</ele>
  <time>2026-09-02T22:12:28Z</time>
  <course>180.73</course>
  <speed>0.0</speed>
  <fix>3d</fix>
</trkpt>
<trkpt lat="33.810313" lon="-118.393867">
  <ele>-0.14</ele>
  <time>2026-09-02T22:12:28Z</time>
  <course>0.0</course>
  <speed>0.0</speed>
  <fix>3d</fix>
</trkpt>
<trkpt lat="33.810313" lon="-118.393867">
  <ele>0.0</ele>
  <time>2026-09-02T22:12:28Z</time>
  <course>181.07</course>
  <speed>0.0</speed>
  <fix>3d</fix>
</trkpt>
<trkpt lat="33.810313" lon="-118.393867">
  <ele>-0.13</ele>
  <time>2026-09-02T22:12:28Z</time>
  <course>0.0</course>
  <speed>0.0</speed>
  <fix>3d</fix>
</trkpt>
<trkpt lat="33.810313" lon="-118.393867">
  <ele>0.0</ele>
  <time>2026-09-02T22:12:28Z</time>
  <course>181.4</course>
  <speed>0.0</speed>
  <fix>3d</fix>
</trkpt>
<trkpt lat="33.810313" lon="-118.393867">
  <ele>-0.13</ele>
  <time>2026-09-02T22:12:28Z</time>
  <course>0.0</course>
  <speed>0.0</speed>
  <fix>3d</fix>
</trkpt>
<trkpt lat="33.810313" lon="-118.393867">
  <ele>0.0</ele>
  <time>2026-09-02T22:12:28Z</time>
  <course>181.71</course>
  <speed>0.0</speed>
  <fix>3d</fix>
</trkpt>
<trkpt lat="33.810313" lon="-118.393867">
  <ele>-0.12</ele>
  <time>2026-09-02T22:12:28Z</time>
  <course>0.0</course>
  <speed>0.0</speed>
  <fix>3d</fix>
</trkpt>
<trkpt lat="33.810313" lon="-118.393867">
  <ele>0.0</ele>
  <time>2026-09-02T22:12:28Z</time>
  <course>182.02</course>
  <speed>0.0</speed>
  <fix>3d</fix>
</trkpt>
<trkpt lat="33.810313" lon="-118.393867">
  <ele>-0.12</ele>
  <time>2026-09-02T22:12:28Z</time>
  <course>0.0</course>
  <speed>0.0</speed>
  <fix>3d</fix>
</trkpt>
<trkpt lat="33.810313" lon="-118.393867">
  <ele>0.0</ele>
  <time>2026-09-02T22:12:28Z</time>
  <course>182.31</course>
  <speed>0.0</speed>
  <fix>3d</fix>
</trkpt>
<trkpt lat="33.810313" lon="-118.393867">
  <ele>-0.12</ele>
  <time>2026-09-02T22:12:28Z</time>
  <course>0.0</course>
  <speed>0.0</speed>
  <fix>3d</fix>
</trkpt>
<trkpt lat="33.810313" lon="-118.393867">
  <ele>0.0</ele>
  <time>2026-09-02T22:12:28Z</time>
  <course>182.6</course>
  <speed>0.0</speed>
  <fix>3d</fix>
</trkpt>
<trkpt lat="33.810313" lon="-118.393867">
  <ele>-0.12</ele>
  <time>2026-09-02T22:12:28Z</time>
  <course>0.0</course>
  <speed>0.0</speed>
  <fix>3d</fix>
</trkpt>
<trkpt lat="33.810313" lon="-118.393867">
  <ele>0.0</ele>
  <time>2026-09-02T22:12:28Z</time>
  <course>182.87</course>
  <speed>0.0</speed>
  <fix>3d</fix>
</trkpt>
<trkpt lat="33.810313" lon="-118.393867">
  <ele>-0.11</ele>
  <time>2026-09-02T22:12:28Z</time>
  <course>0.0</course>
  <speed>0.0</speed>
  <fix>3d</fix>
</trkpt>
<trkpt lat="33.810313" lon="-118.393867">
  <ele>0.0</ele>
  <time>2026-09-02T22:12:28Z</time>
  <course>183.13</course>
  <speed>0.0</speed>
  <fix>3d</fix>
</trkpt>
<trkpt lat="33.810313" lon="-118.393867">
  <ele>-0.11</ele>
  <time>2026-09-02T22:12:28Z</time>
  <course>0.0</course>
  <speed>0.0</speed>
  <fix>3d</fix>
</trkpt>
<trkpt lat="33.810313" lon="-118.393867">
  <ele>0.0</ele>
  <time>2026-09-02T22:12:28Z</time>
  <course>183.38</course>
  <speed>0.0</speed>
  <fix>3d</fix>
</trkpt>
<trkpt lat="33.810313" lon="-118.393867">
  <ele>-0.11</ele>
  <time>2026-09-02T22:12:28Z</time>
  <course>0.0</course>
  <speed>0.0</speed>
  <fix>3d</fix>
</trkpt>
<trkpt lat="33.810313" lon="-118.393867">
  <ele>0.0</ele>
  <time>2026-09-02T22:12:28Z</time>
  <course>183.63</course>
  <speed>0.0</speed>
  <fix>3d</fix>
</trkpt>
<trkpt lat="33.810313" lon="-118.393867">
  <ele>-0.11</ele>
  <time>2026-09-02T22:12:28Z</time>
  <course>0.0</course>
  <speed>0.0</speed>
  <fix>3d</fix>
</trkpt>
<trkpt lat="33.810313" lon="-118.393867">
  <ele>0.0</ele>
  <time>2026-09-02T22:12:28Z</time>
  <course>183.86</course>
  <speed>0.0</speed>
  <fix>3d</fix>
</trkpt>
<trkpt lat="33.810313" lon="-118.393867">
  <ele>-0.12</ele>
  <time>2026-09-02T22:12:28Z</time>
  <course>0.0</course>
  <speed>0.0</speed>
  <fix>3d</fix>
</trkpt>
<trkpt lat="33.810313" lon="-118.393867">
  <ele>0.0</ele>
  <time>2026-09-02T22:12:28Z</time>
  <course>184.08</course>
  <speed>0.0</speed>
  <fix>3d</fix>
</trkpt>
<trkpt lat="33.810313" lon="-118.393867">
  <ele>-0.12</ele>
  <time>2026-09-02T22:12:28Z</time>
  <course>0.0</course>
  <speed>0.0</speed>
  <fix>3d</fix>
</trkpt>
<trkpt lat="33.810313" lon="-118.393867">
  <ele>0.0</ele>
  <time>2026-09-02T22:12:28Z</time>
  <course>184.3</course>
  <speed>0.0</speed>
  <fix>3d</fix>
</trkpt>
<trkpt lat="33.810313" lon="-118.393867">
  <ele>-0.13</ele>
  <time>2026-09-02T22:12:28Z</time>
  <course>0.0</course>
  <speed>0.0</speed>
  <fix>3d</fix>
</trkpt>
<trkpt lat="33.810313" lon="-118.393867">
  <ele>0.0</ele>
  <time>2026-09-02T22:12:28Z</time>
  <course>184.5</course>
  <speed>0.0</speed>
  <fix>3d</fix>
</trkpt>
<trkpt lat="33.810313" lon="-118.393867">
  <ele>-0.13</ele>
  <time>2026-09-02T22:12:28Z</time>
  <course>0.0</course>
  <speed>0.0</speed>
  <fix>3d</fix>
</trkpt>
<trkpt lat="33.810313" lon="-118.393867">
  <ele>0.0</ele>
  <time>2026-09-02T22:12:28Z</time>
  <course>184.7</course>
  <speed>0.0</speed>
  <fix>3d</fix>
</trkpt>
<trkpt lat="33.810313" lon="-118.393867">
  <ele>-0.13</ele>
  <time>2026-09-02T22:12:28Z</time>
  <course>0.0</course>
  <speed>0.0</speed>
  <fix>3d</fix>
</trkpt>
<trkpt lat="33.810313" lon="-118.393867">
  <ele>0.0</ele>
  <time>2026-09-02T22:12:28Z</time>
  <course>184.89</course>
  <speed>0.0</speed>
  <fix>3d</fix>
</trkpt>
<trkpt lat="33.810313" lon="-118.393867">
  <ele>-0.13</ele>
  <time>2026-09-02T22:12:28Z</time>
  <course>0.0</course>
  <speed>0.0</speed>
  <fix>3d</fix>
</trkpt>
<trkpt lat="33.810313" lon="-118.393867">
  <ele>0.0</ele>
  <time>2026-09-02T22:12:28Z</time>
  <course>185.07</course>
  <speed>0.0</speed>
  <fix>3d</fix>
</trkpt>
<trkpt lat="33.810313" lon="-118.393867">
  <ele>-0.14</ele>
  <time>2026-09-02T22:12:28Z</time>
  <course>0.0</course>
  <speed>0.0</speed>
  <fix>3d</fix>
</trkpt>
<trkpt lat="33.810313" lon="-118.393867">
  <ele>0.0</ele>
  <time>2026-09-02T22:12:28Z</time>
  <course>185.24</course>
  <speed>0.0</speed>
  <fix>3d</fix>
</trkpt>
<trkpt lat="33.810313" lon="-118.393867">
  <ele>-0.14</ele>
  <time>2026-09-02T22:12:28Z</time>
  <course>0.0</course>
  <speed>0.0</speed>
  <fix>3d</fix>
</trkpt>
<trkpt lat="33.810313" lon="-118.393867">
  <ele>0.0</ele>
  <time>2026-09-02T22:12:28Z</time>
  <course>185.4</course>
  <speed>0.0</speed>
  <fix>3d</fix>
</trkpt>
<trkpt lat="33.810313" lon="-118.393867">
  <ele>-0.13</ele>
  <time>2026-09-02T22:12:28Z</time>
  <course>0.0</course>
  <speed>0.0</speed>
  <fix>3d</fix>
</trkpt>
<trkpt lat="33.810313" lon="-118.393867">
  <ele>0.0</ele>
  <time>2026-09-02T22:12:28Z</time>
  <course>185.56</course>
  <speed>0.0</speed>
  <fix>3d</fix>
</trkpt>
<trkpt lat="33.810313" lon="-118.393867">
  <ele>-0.13</ele>
  <time>2026-09-02T22:12:28Z</time>
  <course>0.0</course>
  <speed>0.0</speed>
  <fix>3d</fix>
</trkpt>
<trkpt lat="33.810313" lon="-118.393867">
  <ele>0.0</ele>
  <time>2026-09-02T22:12:28Z</time>
  <course>185.71</course>
  <speed>0.0</speed>
  <fix>3d</fix>
</trkpt>
<trkpt lat="33.810313" lon="-118.393867">
  <ele>-0.13</ele>
  <time>2026-09-02T22:12:28Z</time>
  <course>0.0</course>
  <speed>0.0</speed>
  <fix>3d</fix>
</trkpt>
<trkpt lat="33.810313" lon="-118.393867">
  <ele>0.0</ele>
  <time>2026-09-02T22:12:28Z</time>
  <course>185.86</course>
  <speed>0.0</speed>
  <fix>3d</fix>
</trkpt>
<trkpt lat="33.810313" lon="-118.393867">
  <ele>-0.13</ele>
  <time>2026-09-02T22:12:28Z</time>
  <course>0.0</course>
  <speed>0.0</speed>
  <fix>3d</fix>
</trkpt>
<trkpt lat="33.810313" lon="-118.393867">
  <ele>0.0</ele>
  <time>2026-09-02T22:12:28Z</time>
  <course>186.0</course>
  <speed>0.0</speed>
  <fix>3d</fix>
</trkpt>
<trkpt lat="33.810313" lon="-118.393867">
  <ele>-0.12</ele>
  <time>2026-09-02T22:12:28Z</time>
  <course>0.0</course>
  <speed>0.0</speed>
  <fix>3d</fix>
</trkpt>
<trkpt lat="33.810313" lon="-118.393867">
  <ele>0.0</ele>
  <time>2026-09-02T22:12:28Z</time>
  <course>186.13</course>
  <speed>0.0</speed>
  <fix>3d</fix>
</trkpt>
<trkpt lat="33.810313" lon="-118.393867">
  <ele>-0.12</ele>
  <time>2026-09-02T22:12:28Z</time>
  <course>0.0</course>
  <speed>0.0</speed>
  <fix>3d</fix>
</trkpt>
<trkpt lat="33.810313" lon="-118.393867">
  <ele>0.0</ele>
  <time>2026-09-02T22:12:28Z</time>
  <course>186.26</course>
  <speed>0.0</speed>
  <fix>3d</fix>
</trkpt>
<trkpt lat="33.810313" lon="-118.393867">
  <ele>-0.12</ele>
  <time>2026-09-02T22:12:28Z</time>
  <course>0.0</course>
  <speed>0.0</speed>
  <fix>3d</fix>
</trkpt>
<trkpt lat="33.810313" lon="-118.393867">
  <ele>0.0</ele>
  <time>2026-09-02T22:12:28Z</time>
  <course>186.38</course>
  <speed>0.0</speed>
  <fix>3d</fix>
</trkpt>
<trkpt lat="33.810313" lon="-118.393867">
  <ele>-0.12</ele>
  <time>2026-09-02T22:12:28Z</time>
  <course>0.0</course>
  <speed>0.0</speed>
  <fix>3d</fix>
</trkpt>
<trkpt lat="33.810313" lon="-118.393867">
  <ele>0.0</ele>
  <time>2026-09-02T22:12:28Z</time>
  <course>186.49</course>
  <speed>0.0</speed>
  <fix>3d</fix>
</trkpt>
<trkpt lat="33.810313" lon="-118.393867">
  <ele>-0.12</ele>
  <time>2026-09-02T22:12:28Z</time>
  <course>0.0</course>
  <speed>0.0</speed>
  <fix>3d</fix>
</trkpt>
<trkpt lat="33.810313" lon="-118.393867">
  <ele>0.0</ele>
  <time>2026-09-02T22:12:28Z</time>
  <course>186.6</course>
  <speed>0.0</speed>
  <fix>3d</fix>
</trkpt>
<trkpt lat="33.810313" lon="-118.393867">
  <ele>-0.12</ele>
  <time>2026-09-02T22:12:28Z</time>
  <course>0.0</course>
  <speed>0.0</speed>
  <fix>3d</fix>
</trkpt>
<trkpt lat="33.810313" lon="-118.393867">
  <ele>0.0</ele>
  <time>2026-09-02T22:12:28Z</time>
  <course>186.71</course>
  <speed>0.0</speed>
  <fix>3d</fix>
</trkpt>
<trkpt lat="33.810313" lon="-118.393867">
  <ele>-0.12</ele>
  <time>2026-09-02T22:12:28Z</time>
  <course>0.0</course>
  <speed>0.0</speed>
  <fix>3d</fix>
</trkpt>
<trkpt lat="33.810313" lon="-118.393867">
  <ele>0.0</ele>
  <time>2026-09-02T22:12:28Z</time>
  <course>186.81</course>
  <speed>0.0</speed>
  <fix>3d</fix>
</trkpt>
<trkpt lat="33.810313" lon="-118.393867">
  <ele>-0.12</ele>
  <time>2026-09-02T22:12:28Z</time>
  <course>0.0</course>
  <speed>0.0</speed>
  <fix>3d</fix>
</trkpt>
<trkpt lat="33.810313" lon="-118.393867">
  <ele>0.0</ele>
  <time>2026-09-02T22:12:28Z</time>
  <course>186.9</course>
  <speed>0.0</speed>
  <fix>3d</fix>
</trkpt>
<trkpt lat="33.810313" lon="-118.393867">
  <ele>-0.12</ele>
  <time>2026-09-02T22:12:28Z</time>
  <course>0.0</course>
  <speed>0.0</speed>
  <fix>3d</fix>
</trkpt>
<trkpt lat="33.810313" lon="-118.393867">
  <ele>0.0</ele>
  <time>2026-09-02T22:12:28Z</time>
  <course>187.0</course>
  <speed>0.0</speed>
  <fix>3d</fix>
</trkpt>
<trkpt lat="33.810313" lon="-118.393867">
  <ele>-0.12</ele>
  <time>2026-09-02T22:12:28Z</time>
  <course>0.0</course>
  <speed>0.0</speed>
  <fix>3d</fix>
</trkpt>
<trkpt lat="33.810313" lon="-118.393867">
  <ele>0.0</ele>
  <time>2026-09-02T22:12:28Z</time>
  <course>187.08</course>
  <speed>0.0</speed>
  <fix>3d</fix>
</trkpt>
<trkpt lat="33.810313" lon="-118.393867">
  <ele>-0.13</ele>
  <time>2026-09-02T22:12:28Z</time>
  <course>0.0</course>
  <speed>0.0</speed>
  <fix>3d</fix>
</trkpt>
<trkpt lat="33.810313" lon="-118.393867">
  <ele>0.0</ele>
  <time>2026-09-02T22:12:28Z</time>
  <course>187.17</course>
  <speed>0.0</speed>
  <fix>3d</fix>
</trkpt>
<trkpt lat="33.810313" lon="-118.393867">
  <ele>-0.13</ele>
  <time>2026-09-02T22:12:28Z</time>
  <course>0.0</course>
  <speed>0.0</speed>
  <fix>3d</fix>
</trkpt>
<trkpt lat="33.810313" lon="-118.393867">
  <ele>0.0</ele>
  <time>2026-09-02T22:12:28Z</time>
  <course>187.24</course>
  <speed>0.0</speed>
  <fix>3d</fix>
</trkpt>
<trkpt lat="33.810313" lon="-118.393867">
  <ele>-0.13</ele>
  <time>2026-09-02T22:12:28Z</time>
  <course>0.0</course>
  <speed>0.0</speed>
  <fix>3d</fix>
</trkpt>
<trkpt lat="33.810313" lon="-118.393867">
  <ele>0.0</ele>
  <time>2026-09-02T22:12:28Z</time>
  <course>187.32</course>
  <speed>0.0</speed>
  <fix>3d</fix>
</trkpt>
<trkpt lat="33.810313" lon="-118.393867">
  <ele>-0.13</ele>
  <time>2026-09-02T22:12:28Z</time>
  <course>0.0</course>
  <speed>0.0</speed>
  <fix>3d</fix>
</trkpt>
<trkpt lat="33.810313" lon="-118.393867">
  <ele>0.0</ele>
  <time>2026-09-02T22:12:28Z</time>
  <course>187.39</course>
  <speed>0.0</speed>
  <fix>3d</fix>
</trkpt>
<trkpt lat="33.810313" lon="-118.393867">
  <ele>-0.13</ele>
  <time>2026-09-02T22:12:28Z</time>
  <course>0.0</course>
  <speed>0.0</speed>
  <fix>3d</fix>
</trkpt>
<trkpt lat="33.810313" lon="-118.393867">
  <ele>0.0</ele>
  <time>2026-09-02T22:12:28Z</time>
  <course>187.46</course>
  <speed>0.0</speed>
  <fix>3d</fix>
</trkpt>
<trkpt lat="33.810313" lon="-118.393867">
  <ele>-0.13</ele>
  <time>2026-09-02T22:12:28Z</time>
  <course>0.0</course>
  <speed>0.0</speed>
  <fix>3d</fix>
</trkpt>
<trkpt lat="33.810313" lon="-118.393867">
  <ele>0.0</ele>
  <time>2026-09-02T22:12:29Z</time>
  <course>187.53</course>
  <speed>0.0</speed>
  <fix>3d</fix>
</trkpt>
<trkpt lat="33.810313" lon="-118.393867">
  <ele>-0.13</ele>
  <time>2026-09-02T22:12:29Z</time>
  <course>0.0</course>
  <speed>0.0</speed>
  <fix>3d</fix>
</trkpt>
<trkpt lat="33.810313" lon="-118.393867">
  <ele>0.0</ele>
  <time>2026-09-02T22:12:29Z</time>
  <course>187.59</course>
  <speed>0.0</speed>
  <fix>3d</fix>
</trkpt>
<trkpt lat="33.810313" lon="-118.393867">
  <ele>-0.13</ele>
  <time>2026-09-02T22:12:29Z</time>
  <course>0.0</course>
  <speed>0.0</speed>
  <fix>3d</fix>
</trkpt>
<trkpt lat="33.810313" lon="-118.393867">
  <ele>0.0</ele>
  <time>2026-09-02T22:12:29Z</time>
  <course>187.65</course>
  <speed>0.0</speed>
  <fix>3d</fix>
</trkpt>
<trkpt lat="33.810313" lon="-118.393867">
  <ele>-0.12</ele>
  <time>2026-09-02T22:12:29Z</time>
  <course>0.0</course>
  <speed>0.0</speed>
  <fix>3d</fix>
</trkpt>
<trkpt lat="33.810313" lon="-118.393867">
  <ele>0.0</ele>
  <time>2026-09-02T22:12:29Z</time>
  <course>187.7</course>
  <speed>0.0</speed>
  <fix>3d</fix>
</trkpt>
<trkpt lat="33.810313" lon="-118.393867">
  <ele>-0.12</ele>
  <time>2026-09-02T22:12:29Z</time>
  <course>0.0</course>
  <speed>0.0</speed>
  <fix>3d</fix>
</trkpt>
<trkpt lat="33.810313" lon="-118.393867">
  <ele>0.0</ele>
  <time>2026-09-02T22:12:29Z</time>
  <course>187.76</course>
  <speed>0.0</speed>
  <fix>3d</fix>
</trkpt>
<trkpt lat="33.810313" lon="-118.393867">
  <ele>-0.12</ele>
  <time>2026-09-02T22:12:29Z</time>
  <course>0.0</course>
  <speed>0.0</speed>
  <fix>3d</fix>
</trkpt>
<trkpt lat="33.810313" lon="-118.393867">
  <ele>0.0</ele>
  <time>2026-09-02T22:12:29Z</time>
  <course>187.81</course>
  <speed>0.0</speed>
  <fix>3d</fix>
</trkpt>
<trkpt lat="33.810313" lon="-118.393867">
  <ele>-0.12</ele>
  <time>2026-09-02T22:12:29Z</time>
  <course>0.0</course>
  <speed>0.0</speed>
  <fix>3d</fix>
</trkpt>
<trkpt lat="33.810313" lon="-118.393867">
  <ele>0.0</ele>
  <time>2026-09-02T22:12:29Z</time>
  <course>187.86</course>
  <speed>0.0</speed>
  <fix>3d</fix>
</trkpt>
<trkpt lat="33.810313" lon="-118.393867">
  <ele>-0.12</ele>
  <time>2026-09-02T22:12:29Z</time>
  <course>0.0</course>
  <speed>0.0</speed>
  <fix>3d</fix>
</trkpt>
<trkpt lat="33.810313" lon="-118.393867">
  <ele>0.0</ele>
  <time>2026-09-02T22:12:29Z</time>
  <course>187.9</course>
  <speed>0.0</speed>
  <fix>3d</fix>
</trkpt>
<trkpt lat="33.810313" lon="-118.393867">
  <ele>-0.12</ele>
  <time>2026-09-02T22:12:29Z</time>
  <course>0.0</course>
  <speed>0.0</speed>
  <fix>3d</fix>
</trkpt>
<trkpt lat="33.810313" lon="-118.393867">
  <ele>0.0</ele>
  <time>2026-09-02T22:12:29Z</time>
  <course>187.95</course>
  <speed>0.0</speed>
  <fix>3d</fix>
</trkpt>
<trkpt lat="33.810313" lon="-118.393867">
  <ele>-0.12</ele>
  <time>2026-09-02T22:12:29Z</time>
  <course>0.0</course>
  <speed>0.0</speed>
  <fix>3d</fix>
</trkpt>
<trkpt lat="33.810313" lon="-118.393867">
  <ele>0.0</ele>
  <time>2026-09-02T22:12:29Z</time>
  <course>187.99</course>
  <speed>0.0</speed>
  <fix>3d</fix>
</trkpt>
<trkpt lat="33.810313" lon="-118.393867">
  <ele>-0.12</ele>
  <time>2026-09-02T22:12:29Z</time>
  <course>0.0</course>
  <speed>0.0</speed>
  <fix>3d</fix>
</trkpt>
<trkpt lat="33.810313" lon="-118.393867">
  <ele>0.0</ele>
  <time>2026-09-02T22:12:29Z</time>
  <course>188.02</course>
  <speed>0.0</speed>
  <fix>3d</fix>
</trkpt>
<trkpt lat="33.810313" lon="-118.393867">
  <ele>-0.12</ele>
  <time>2026-09-02T22:12:29Z</time>
  <course>0.0</course>
  <speed>0.0</speed>
  <fix>3d</fix>
</trkpt>
<trkpt lat="33.810313" lon="-118.393867">
  <ele>0.0</ele>
  <time>2026-09-02T22:12:29Z</time>
  <course>188.06</course>
  <speed>0.0</speed>
  <fix>3d</fix>
</trkpt>
<trkpt lat="33.810313" lon="-118.393867">
  <ele>-0.12</ele>
  <time>2026-09-02T22:12:29Z</time>
  <course>0.0</course>
  <speed>0.0</speed>
  <fix>3d</fix>
</trkpt>
<trkpt lat="33.810313" lon="-118.393867">
  <ele>0.0</ele>
  <time>2026-09-02T22:12:29Z</time>
  <course>188.1</course>
  <speed>0.0</speed>
  <fix>3d</fix>
</trkpt>
<trkpt lat="33.810313" lon="-118.393867">
  <ele>-0.13</ele>
  <time>2026-09-02T22:12:29Z</time>
  <course>0.0</course>
  <speed>0.0</speed>
  <fix>3d</fix>
</trkpt>
<trkpt lat="33.810313" lon="-118.393867">
  <ele>0.0</ele>
  <time>2026-09-02T22:12:29Z</time>
  <course>188.13</course>
  <speed>0.0</speed>
  <fix>3d</fix>
</trkpt>
<trkpt lat="33.810313" lon="-118.393867">
  <ele>-0.13</ele>
  <time>2026-09-02T22:12:29Z</time>
  <course>0.0</course>
  <speed>0.0</speed>
  <fix>3d</fix>
</trkpt>
<trkpt lat="33.810313" lon="-118.393867">
  <ele>0.0</ele>
  <time>2026-09-02T22:12:29Z</time>
  <course>188.16</course>
  <speed>0.0</speed>
  <fix>3d</fix>
</trkpt>
<trkpt lat="33.810313" lon="-118.393867">
  <ele>-0.13</ele>
  <time>2026-09-02T22:12:29Z</time>
  <course>0.0</course>
  <speed>0.0</speed>
  <fix>3d</fix>
</trkpt>
<trkpt lat="33.810313" lon="-118.393867">
  <ele>0.0</ele>
  <time>2026-09-02T22:12:29Z</time>
  <course>188.19</course>
  <speed>0.0</speed>
  <fix>3d</fix>
</trkpt>
<trkpt lat="33.810313" lon="-118.393867">
  <ele>-0.13</ele>
  <time>2026-09-02T22:12:29Z</time>
  <course>0.0</course>
  <speed>0.0</speed>
  <fix>3d</fix>
</trkpt>
<trkpt lat="33.810313" lon="-118.393867">
  <ele>0.0</ele>
  <time>2026-09-02T22:12:29Z</time>
  <course>188.22</course>
  <speed>0.0</speed>
  <fix>3d</fix>
</trkpt>
<trkpt lat="33.810313" lon="-118.393867">
  <ele>-0.13</ele>
  <time>2026-09-02T22:12:29Z</time>
  <course>0.0</course>
  <speed>0.0</speed>
  <fix>3d</fix>
</trkpt>
<trkpt lat="33.810313" lon="-118.393867">
  <ele>0.0</ele>
  <time>2026-09-02T22:12:29Z</time>
  <course>188.25</course>
  <speed>0.0</speed>
  <fix>3d</fix>
</trkpt>
<trkpt lat="33.810313" lon="-118.393867">
  <ele>-0.13</ele>
  <time>2026-09-02T22:12:29Z</time>
  <course>0.0</course>
  <speed>0.0</speed>
  <fix>3d</fix>
</trkpt>
<trkpt lat="33.810313" lon="-118.393867">
  <ele>0.0</ele>
  <time>2026-09-02T22:12:29Z</time>
  <course>188.27</course>
  <speed>0.0</speed>
  <fix>3d</fix>
</trkpt>
<trkpt lat="33.810313" lon="-118.393867">
  <ele>-0.12</ele>
  <time>2026-09-02T22:12:29Z</time>
  <course>0.0</course>
  <speed>0.0</speed>
  <fix>3d</fix>
</trkpt>
<trkpt lat="33.810313" lon="-118.393867">
  <ele>0.0</ele>
  <time>2026-09-02T22:12:29Z</time>
  <course>188.29</course>
  <speed>0.0</speed>
  <fix>3d</fix>
</trkpt>
<trkpt lat="33.810313" lon="-118.393867">
  <ele>-0.12</ele>
  <time>2026-09-02T22:12:29Z</time>
  <course>0.0</course>
  <speed>0.0</speed>
  <fix>3d</fix>
</trkpt>
<trkpt lat="33.810313" lon="-118.393867">
  <ele>0.0</ele>
  <time>2026-09-02T22:12:29Z</time>
  <course>188.32</course>
  <speed>0.0</speed>
  <fix>3d</fix>
</trkpt>
<trkpt lat="33.810313" lon="-118.393867">
  <ele>-0.12</ele>
  <time>2026-09-02T22:12:29Z</time>
  <course>0.0</course>
  <speed>0.0</speed>
  <fix>3d</fix>
</trkpt>
<trkpt lat="33.810313" lon="-118.393867">
  <ele>0.0</ele>
  <time>2026-09-02T22:12:29Z</time>
  <course>188.34</course>
  <speed>0.0</speed>
  <fix>3d</fix>
</trkpt>
<trkpt lat="33.810313" lon="-118.393867">
  <ele>-0.12</ele>
  <time>2026-09-02T22:12:29Z</time>
  <course>0.0</course>
  <speed>0.0</speed>
  <fix>3d</fix>
</trkpt>
<trkpt lat="33.810313" lon="-118.393867">
  <ele>0.0</ele>
  <time>2026-09-02T22:12:29Z</time>
  <course>188.36</course>
  <speed>0.0</speed>
  <fix>3d</fix>
</trkpt>
<trkpt lat="33.810313" lon="-118.393867">
  <ele>-0.12</ele>
  <time>2026-09-02T22:12:29Z</time>
  <course>0.0</course>
  <speed>0.0</speed>
  <fix>3d</fix>
</trkpt>
<trkpt lat="33.810313" lon="-118.393867">
  <ele>0.0</ele>
  <time>2026-09-02T22:12:29Z</time>
  <course>188.38</course>
  <speed>0.0</speed>
  <fix>3d</fix>
</trkpt>
<trkpt lat="33.810313" lon="-118.393867">
  <ele>-0.12</ele>
  <time>2026-09-02T22:12:29Z</time>
  <course>0.0</course>
  <speed>0.0</speed>
  <fix>3d</fix>
</trkpt>
<trkpt lat="33.810313" lon="-118.393867">
  <ele>0.0</ele>
  <time>2026-09-02T22:12:29Z</time>
  <course>188.39</course>
  <speed>0.0</speed>
  <fix>3d</fix>
</trkpt>
<trkpt lat="33.810313" lon="-118.393867">
  <ele>-0.12</ele>
  <time>2026-09-02T22:12:29Z</time>
  <course>0.0</course>
  <speed>0.0</speed>
  <fix>3d</fix>
</trkpt>
<trkpt lat="33.810313" lon="-118.393867">
  <ele>0.0</ele>
  <time>2026-09-02T22:12:29Z</time>
  <course>188.41</course>
  <speed>0.0</speed>
  <fix>3d</fix>
</trkpt>
<trkpt lat="33.810313" lon="-118.393867">
  <ele>-0.12</ele>
  <time>2026-09-02T22:12:29Z</time>
  <course>0.0</course>
  <speed>0.0</speed>
  <fix>3d</fix>
</trkpt>
<trkpt lat="33.810313" lon="-118.393867">
  <ele>0.0</ele>
  <time>2026-09-02T22:12:29Z</time>
  <course>188.42</course>
  <speed>0.0</speed>
  <fix>3d</fix>
</trkpt>
<trkpt lat="33.810313" lon="-118.393867">
  <ele>-0.12</ele>
  <time>2026-09-02T22:12:29Z</time>
  <course>0.0</course>
  <speed>0.0</speed>
  <fix>3d</fix>
</trkpt>
<trkpt lat="33.810313" lon="-118.393867">
  <ele>0.0</ele>
  <time>2026-09-02T22:12:29Z</time>
  <course>188.44</course>
  <speed>0.0</speed>
  <fix>3d</fix>
</trkpt>
<trkpt lat="33.810313" lon="-118.393867">
  <ele>-0.12</ele>
  <time>2026-09-02T22:12:29Z</time>
  <course>0.0</course>
  <speed>0.0</speed>
  <fix>3d</fix>
</trkpt>
<trkpt lat="33.810313" lon="-118.393867">
  <ele>0.0</ele>
  <time>2026-09-02T22:12:29Z</time>
  <course>188.45</course>
  <speed>0.0</speed>
  <fix>3d</fix>
</trkpt>
<trkpt lat="33.810313" lon="-118.393867">
  <ele>-0.13</ele>
  <time>2026-09-02T22:12:29Z</time>
  <course>0.0</course>
  <speed>0.0</speed>
  <fix>3d</fix>
</trkpt>
<trkpt lat="33.810313" lon="-118.393867">
  <ele>0.0</ele>
  <time>2026-09-02T22:12:29Z</time>
  <course>188.46</course>
  <speed>0.0</speed>
  <fix>3d</fix>
</trkpt>
<trkpt lat="33.810313" lon="-118.393867">
  <ele>-0.13</ele>
  <time>2026-09-02T22:12:29Z</time>
  <course>0.0</course>
  <speed>0.0</speed>
  <fix>3d</fix>
</trkpt>
<trkpt lat="33.810313" lon="-118.393867">
  <ele>0.0</ele>
  <time>2026-09-02T22:12:29Z</time>
  <course>188.47</course>
  <speed>0.0</speed>
  <fix>3d</fix>
</trkpt>
<trkpt lat="33.810313" lon="-118.393867">
  <ele>-0.13</ele>
  <time>2026-09-02T22:12:29Z</time>
  <course>0.0</course>
  <speed>0.0</speed>
  <fix>3d</fix>
</trkpt>
<trkpt lat="33.810313" lon="-118.393867">
  <ele>0.0</ele>
  <time>2026-09-02T22:12:29Z</time>
  <course>188.48</course>
  <speed>0.0</speed>
  <fix>3d</fix>
</trkpt>
<trkpt lat="33.810313" lon="-118.393867">
  <ele>-0.13</ele>
  <time>2026-09-02T22:12:29Z</time>
  <course>0.0</course>
  <speed>0.0</speed>
  <fix>3d</fix>
</trkpt>
<trkpt lat="33.810313" lon="-118.393867">
  <ele>0.0</ele>
  <time>2026-09-02T22:12:29Z</time>
  <course>188.49</course>
  <speed>0.0</speed>
  <fix>3d</fix>
</trkpt>
<trkpt lat="33.810313" lon="-118.393867">
  <ele>-0.13</ele>
  <time>2026-09-02T22:12:29Z</time>
  <course>0.0</course>
  <speed>0.0</speed>
  <fix>3d</fix>
</trkpt>
<trkpt lat="33.810313" lon="-118.393867">
  <ele>0.0</ele>
  <time>2026-09-02T22:12:29Z</time>
  <course>188.5</course>
  <speed>0.0</speed>
  <fix>3d</fix>
</trkpt>
<trkpt lat="33.810313" lon="-118.393867">
  <ele>-0.13</ele>
  <time>2026-09-02T22:12:29Z</time>
  <course>0.0</course>
  <speed>0.0</speed>
  <fix>3d</fix>
</trkpt>
<trkpt lat="33.810313" lon="-118.393867">
  <ele>0.0</ele>
  <time>2026-09-02T22:12:29Z</time>
  <course>188.51</course>
  <speed>0.0</speed>
  <fix>3d</fix>
</trkpt>
<trkpt lat="33.810313" lon="-118.393867">
  <ele>-0.12</ele>
  <time>2026-09-02T22:12:29Z</time>
  <course>0.0</course>
  <speed>0.0</speed>
  <fix>3d</fix>
</trkpt>
<trkpt lat="33.810313" lon="-118.393867">
  <ele>0.0</ele>
  <time>2026-09-02T22:12:29Z</time>
  <course>188.52</course>
  <speed>0.0</speed>
  <fix>3d</fix>
</trkpt>
<trkpt lat="33.810313" lon="-118.393867">
  <ele>-0.12</ele>
  <time>2026-09-02T22:12:29Z</time>
  <course>0.0</course>
  <speed>0.0</speed>
  <fix>3d</fix>
</trkpt>
<trkpt lat="33.810313" lon="-118.393867">
  <ele>0.0</ele>
  <time>2026-09-02T22:12:29Z</time>
  <course>188.53</course>
  <speed>0.0</speed>
  <fix>3d</fix>
</trkpt>
<trkpt lat="33.810313" lon="-118.393867">
  <ele>-0.12</ele>
  <time>2026-09-02T22:12:29Z</time>
  <course>0.0</course>
  <speed>0.0</speed>
  <fix>3d</fix>
</trkpt>
<trkpt lat="33.810313" lon="-118.393867">
  <ele>0.0</ele>
  <time>2026-09-02T22:12:29Z</time>
  <course>188.53</course>
  <speed>0.0</speed>
  <fix>3d</fix>
</trkpt>
<trkpt lat="33.810313" lon="-118.393867">
  <ele>-0.12</ele>
  <time>2026-09-02T22:12:29Z</time>
  <course>0.0</course>
  <speed>0.0</speed>
  <fix>3d</fix>
</trkpt>
<trkpt lat="33.810313" lon="-118.393867">
  <ele>0.0</ele>
  <time>2026-09-02T22:12:29Z</time>
  <course>188.54</course>
  <speed>0.0</speed>
  <fix>3d</fix>
</trkpt>
<trkpt lat="33.810313" lon="-118.393867">
  <ele>-0.12</ele>
  <time>2026-09-02T22:12:29Z</time>
  <course>0.0</course>
  <speed>0.0</speed>
  <fix>3d</fix>
</trkpt>
<trkpt lat="33.810313" lon="-118.393867">
  <ele>0.0</ele>
  <time>2026-09-02T22:12:29Z</time>
  <course>188.54</course>
  <speed>0.0</speed>
  <fix>3d</fix>
</trkpt>
<trkpt lat="33.810313" lon="-118.393867">
  <ele>-0.12</ele>
  <time>2026-09-02T22:12:29Z</time>
  <course>0.0</course>
  <speed>0.0</speed>
  <fix>3d</fix>
</trkpt>
<trkpt lat="33.810313" lon="-118.393867">
  <ele>0.0</ele>
  <time>2026-09-02T22:12:29Z</time>
  <course>188.54</course>
  <speed>0.0</speed>
  <fix>3d</fix>
</trkpt>
<trkpt lat="33.810313" lon="-118.393867">
  <ele>-0.12</ele>
  <time>2026-09-02T22:12:29Z</time>
  <course>0.0</course>
  <speed>0.0</speed>
  <fix>3d</fix>
</trkpt>
<trkpt lat="33.810313" lon="-118.393867">
  <ele>0.0</ele>
  <time>2026-09-02T22:12:29Z</time>
  <course>188.55</course>
  <speed>0.0</speed>
  <fix>3d</fix>
</trkpt>
<trkpt lat="33.810313" lon="-118.393867">
  <ele>-0.12</ele>
  <time>2026-09-02T22:12:29Z</time>
  <course>0.0</course>
  <speed>0.0</speed>
  <fix>3d</fix>
</trkpt>
<trkpt lat="33.810313" lon="-118.393867">
  <ele>0.0</ele>
  <time>2026-09-02T22:12:29Z</time>
  <course>188.55</course>
  <speed>0.0</speed>
  <fix>3d</fix>
</trkpt>
<trkpt lat="33.810313" lon="-118.393867">
  <ele>-0.12</ele>
  <time>2026-09-02T22:12:29Z</time>
  <course>0.0</course>
  <speed>0.0</speed>
  <fix>3d</fix>
</trkpt>
<trkpt lat="33.810313" lon="-118.393867">
  <ele>0.0</ele>
  <time>2026-09-02T22:12:29Z</time>
  <course>188.55</course>
  <speed>0.0</speed>
  <fix>3d</fix>
</trkpt>
<trkpt lat="33.810313" lon="-118.393867">
  <ele>-0.12</ele>
  <time>2026-09-02T22:12:29Z</time>
  <course>0.0</course>
  <speed>0.0</speed>
  <fix>3d</fix>
</trkpt>
<trkpt lat="33.810313" lon="-118.393867">
  <ele>-0.127</ele>
  <time>2026-09-02T22:12:29Z</time>
  <course>188.55</course>
  <speed>0.0</speed>
  <fix>3d</fix>
</trkpt>
<trkpt lat="33.810313" lon="-118.393867">
  <ele>-0.13</ele>
  <time>2026-09-02T22:12:29Z</time>
  <course>0.0</course>
  <speed>0.0</speed>
  <fix>3d</fix>
</trkpt>
<trkpt lat="33.810313" lon="-118.393867">
  <ele>-0.126</ele>
  <time>2026-09-02T22:12:29Z</time>
  <course>188.56</course>
  <speed>0.0</speed>
  <fix>3d</fix>
</trkpt>
<trkpt lat="33.810313" lon="-118.393867">
  <ele>-0.13</ele>
  <time>2026-09-02T22:12:29Z</time>
  <course>0.0</course>
  <speed>0.0</speed>
  <fix>3d</fix>
</trkpt>
<trkpt lat="33.810313" lon="-118.393867">
  <ele>-0.126</ele>
  <time>2026-09-02T22:12:29Z</time>
  <course>188.56</course>
  <speed>0.0</speed>
  <fix>3d</fix>
</trkpt>
<trkpt lat="33.810313" lon="-118.393867">
  <ele>-0.13</ele>
  <time>2026-09-02T22:12:29Z</time>
  <course>0.0</course>
  <speed>0.0</speed>
  <fix>3d</fix>
</trkpt>
<trkpt lat="33.810313" lon="-118.393867">
  <ele>-0.125</ele>
  <time>2026-09-02T22:12:29Z</time>
  <course>188.56</course>
  <speed>0.0</speed>
  <fix>3d</fix>
</trkpt>
<trkpt lat="33.810313" lon="-118.393867">
  <ele>-0.13</ele>
  <time>2026-09-02T22:12:29Z</time>
  <course>0.0</course>
  <speed>0.0</speed>
  <fix>3d</fix>
</trkpt>
<trkpt lat="33.810313" lon="-118.393867">
  <ele>-0.124</ele>
  <time>2026-09-02T22:12:29Z</time>
  <course>188.56</course>
  <speed>0.0</speed>
  <fix>3d</fix>
</trkpt>
<trkpt lat="33.810313" lon="-118.393867">
  <ele>-0.12</ele>
  <time>2026-09-02T22:12:29Z</time>
  <course>0.0</course>
  <speed>0.0</speed>
  <fix>3d</fix>
</trkpt>
<trkpt lat="33.810313" lon="-118.393867">
  <ele>-0.122</ele>
  <time>2026-09-02T22:12:29Z</time>
  <course>188.56</course>
  <speed>0.0</speed>
  <fix>3d</fix>
</trkpt>
<trkpt lat="33.810313" lon="-118.393867">
  <ele>-0.12</ele>
  <time>2026-09-02T22:12:29Z</time>
  <course>0.0</course>
  <speed>0.0</speed>
  <fix>3d</fix>
</trkpt>
<trkpt lat="33.810313" lon="-118.393867">
  <ele>-0.121</ele>
  <time>2026-09-02T22:12:29Z</time>
  <course>188.56</course>
  <speed>0.0</speed>
  <fix>3d</fix>
</trkpt>
<trkpt lat="33.810313" lon="-118.393867">
  <ele>-0.12</ele>
  <time>2026-09-02T22:12:29Z</time>
  <course>0.0</course>
  <speed>0.0</speed>
  <fix>3d</fix>
</trkpt>
<trkpt lat="33.810313" lon="-118.393867">
  <ele>-0.123</ele>
  <time>2026-09-02T22:12:29Z</time>
  <course>188.56</course>
  <speed>0.0</speed>
  <fix>3d</fix>
</trkpt>
<trkpt lat="33.810313" lon="-118.393867">
  <ele>-0.12</ele>
  <time>2026-09-02T22:12:29Z</time>
  <course>0.0</course>
  <speed>0.0</speed>
  <fix>3d</fix>
</trkpt>
<trkpt lat="33.810313" lon="-118.393867">
  <ele>-0.126</ele>
  <time>2026-09-02T22:12:29Z</time>
  <course>188.55</course>
  <speed>0.0</speed>
  <fix>3d</fix>
</trkpt>
<trkpt lat="33.810313" lon="-118.393867">
  <ele>-0.12</ele>
  <time>2026-09-02T22:12:29Z</time>
  <course>0.0</course>
  <speed>0.0</speed>
  <fix>3d</fix>
</trkpt>
<trkpt lat="33.810313" lon="-118.393867">
  <ele>-0.13</ele>
  <time>2026-09-02T22:12:29Z</time>
  <course>188.55</course>
  <speed>0.0</speed>
  <fix>3d</fix>
</trkpt>
<trkpt lat="33.810313" lon="-118.393867">
  <ele>-0.12</ele>
  <time>2026-09-02T22:12:29Z</time>
  <course>0.0</course>
  <speed>0.0</speed>
  <fix>3d</fix>
</trkpt>
<trkpt lat="33.810313" lon="-118.393867">
  <ele>-0.132</ele>
  <time>2026-09-02T22:12:29Z</time>
  <course>188.55</course>
  <speed>0.0</speed>
  <fix>3d</fix>
</trkpt>
<trkpt lat="33.810313" lon="-118.393867">
  <ele>-0.12</ele>
  <time>2026-09-02T22:12:29Z</time>
  <course>0.0</course>
  <speed>0.0</speed>
  <fix>3d</fix>
</trkpt>
<trkpt lat="33.810313" lon="-118.393867">
  <ele>-0.133</ele>
  <time>2026-09-02T22:12:29Z</time>
  <course>188.55</course>
  <speed>0.0</speed>
  <fix>3d</fix>
</trkpt>
<trkpt lat="33.810313" lon="-118.393867">
  <ele>-0.12</ele>
  <time>2026-09-02T22:12:29Z</time>
  <course>0.0</course>
  <speed>0.0</speed>
  <fix>3d</fix>
</trkpt>
<trkpt lat="33.810313" lon="-118.393867">
  <ele>-0.134</ele>
  <time>2026-09-02T22:12:29Z</time>
  <course>188.55</course>
  <speed>0.0</speed>
  <fix>3d</fix>
</trkpt>
<trkpt lat="33.810313" lon="-118.393867">
  <ele>-0.12</ele>
  <time>2026-09-02T22:12:29Z</time>
  <course>0.0</course>
  <speed>0.0</speed>
  <fix>3d</fix>
</trkpt>
<trkpt lat="33.810313" lon="-118.393867">
  <ele>-0.135</ele>
  <time>2026-09-02T22:12:29Z</time>
  <course>188.55</course>
  <speed>0.0</speed>
  <fix>3d</fix>
</trkpt>
<trkpt lat="33.810313" lon="-118.393867">
  <ele>-0.12</ele>
  <time>2026-09-02T22:12:29Z</time>
  <course>0.0</course>
  <speed>0.0</speed>
  <fix>3d</fix>
</trkpt>
<trkpt lat="33.810313" lon="-118.393867">
  <ele>-0.135</ele>
  <time>2026-09-02T22:12:29Z</time>
  <course>188.55</course>
  <speed>0.0</speed>
  <fix>3d</fix>
</trkpt>
<trkpt lat="33.810313" lon="-118.393867">
  <ele>-0.12</ele>
  <time>2026-09-02T22:12:29Z</time>
  <course>0.0</course>
  <speed>0.0</speed>
  <fix>3d</fix>
</trkpt>
<trkpt lat="33.810313" lon="-118.393867">
  <ele>-0.134</ele>
  <time>2026-09-02T22:12:29Z</time>
  <course>188.55</course>
  <speed>0.0</speed>
  <fix>3d</fix>
</trkpt>
<trkpt lat="33.810313" lon="-118.393867">
  <ele>-0.12</ele>
  <time>2026-09-02T22:12:29Z</time>
  <course>0.0</course>
  <speed>0.0</speed>
  <fix>3d</fix>
</trkpt>
<trkpt lat="33.810313" lon="-118.393867">
  <ele>-0.132</ele>
  <time>2026-09-02T22:12:29Z</time>
  <course>188.54</course>
  <speed>0.0</speed>
  <fix>3d</fix>
</trkpt>
<trkpt lat="33.810313" lon="-118.393867">
  <ele>-0.13</ele>
  <time>2026-09-02T22:12:29Z</time>
  <course>0.0</course>
  <speed>0.0</speed>
  <fix>3d</fix>
</trkpt>
<trkpt lat="33.810313" lon="-118.393867">
  <ele>-0.129</ele>
  <time>2026-09-02T22:12:29Z</time>
  <course>188.54</course>
  <speed>0.0</speed>
  <fix>3d</fix>
</trkpt>
<trkpt lat="33.810313" lon="-118.393867">
  <ele>-0.13</ele>
  <time>2026-09-02T22:12:29Z</time>
  <course>0.0</course>
  <speed>0.0</speed>
  <fix>3d</fix>
</trkpt>
<trkpt lat="33.810313" lon="-118.393867">
  <ele>-0.126</ele>
  <time>2026-09-02T22:12:29Z</time>
  <course>188.53</course>
  <speed>0.0</speed>
  <fix>3d</fix>
</trkpt>
<trkpt lat="33.810313" lon="-118.393867">
  <ele>-0.12</ele>
  <time>2026-09-02T22:12:29Z</time>
  <course>0.0</course>
  <speed>0.0</speed>
  <fix>3d</fix>
</trkpt>
<trkpt lat="33.810313" lon="-118.393867">
  <ele>-0.124</ele>
  <time>2026-09-02T22:12:29Z</time>
  <course>188.53</course>
  <speed>0.0</speed>
  <fix>3d</fix>
</trkpt>
<trkpt lat="33.810313" lon="-118.393867">
  <ele>-0.12</ele>
  <time>2026-09-02T22:12:29Z</time>
  <course>0.0</course>
  <speed>0.0</speed>
  <fix>3d</fix>
</trkpt>
<trkpt lat="33.810313" lon="-118.393867">
  <ele>-0.122</ele>
  <time>2026-09-02T22:12:29Z</time>
  <course>188.53</course>
  <speed>0.0</speed>
  <fix>3d</fix>
</trkpt>
<trkpt lat="33.810313" lon="-118.393867">
  <ele>-0.12</ele>
  <time>2026-09-02T22:12:29Z</time>
  <course>0.0</course>
  <speed>0.0</speed>
  <fix>3d</fix>
</trkpt>
<trkpt lat="33.810313" lon="-118.393867">
  <ele>-0.12</ele>
  <time>2026-09-02T22:12:29Z</time>
  <course>188.52</course>
  <speed>0.0</speed>
  <fix>3d</fix>
</trkpt>
<trkpt lat="33.810313" lon="-118.393867">
  <ele>-0.12</ele>
  <time>2026-09-02T22:12:29Z</time>
  <course>0.0</course>
  <speed>0.0</speed>
  <fix>3d</fix>
</trkpt>
<trkpt lat="33.810313" lon="-118.393867">
  <ele>-0.119</ele>
  <time>2026-09-02T22:12:29Z</time>
  <course>188.52</course>
  <speed>0.0</speed>
  <fix>3d</fix>
</trkpt>
<trkpt lat="33.810313" lon="-118.393867">
  <ele>-0.12</ele>
  <time>2026-09-02T22:12:29Z</time>
  <course>0.0</course>
  <speed>0.0</speed>
  <fix>3d</fix>
</trkpt>
<trkpt lat="33.810313" lon="-118.393867">
  <ele>-0.119</ele>
  <time>2026-09-02T22:12:29Z</time>
  <course>188.51</course>
  <speed>0.0</speed>
  <fix>3d</fix>
</trkpt>
<trkpt lat="33.810313" lon="-118.393867">
  <ele>-0.12</ele>
  <time>2026-09-02T22:12:29Z</time>
  <course>0.0</course>
  <speed>0.0</speed>
  <fix>3d</fix>
</trkpt>
<trkpt lat="33.810313" lon="-118.393867">
  <ele>-0.119</ele>
  <time>2026-09-02T22:12:29Z</time>
  <course>188.5</course>
  <speed>0.0</speed>
  <fix>3d</fix>
</trkpt>
<trkpt lat="33.810313" lon="-118.393867">
  <ele>-0.12</ele>
  <time>2026-09-02T22:12:29Z</time>
  <course>0.0</course>
  <speed>0.0</speed>
  <fix>3d</fix>
</trkpt>
<trkpt lat="33.810313" lon="-118.393867">
  <ele>-0.119</ele>
  <time>2026-09-02T22:12:29Z</time>
  <course>188.5</course>
  <speed>0.0</speed>
  <fix>3d</fix>
</trkpt>
<trkpt lat="33.810313" lon="-118.393867">
  <ele>-0.12</ele>
  <time>2026-09-02T22:12:29Z</time>
  <course>0.0</course>
  <speed>0.0</speed>
  <fix>3d</fix>
</trkpt>
<trkpt lat="33.810313" lon="-118.393867">
  <ele>-0.117</ele>
  <time>2026-09-02T22:12:29Z</time>
  <course>188.49</course>
  <speed>0.0</speed>
  <fix>3d</fix>
</trkpt>
<trkpt lat="33.810313" lon="-118.393867">
  <ele>-0.12</ele>
  <time>2026-09-02T22:12:29Z</time>
  <course>0.0</course>
  <speed>0.0</speed>
  <fix>3d</fix>
</trkpt>
<trkpt lat="33.810313" lon="-118.393867">
  <ele>-0.116</ele>
  <time>2026-09-02T22:12:29Z</time>
  <course>188.49</course>
  <speed>0.0</speed>
  <fix>3d</fix>
</trkpt>
<trkpt lat="33.810313" lon="-118.393867">
  <ele>-0.12</ele>
  <time>2026-09-02T22:12:29Z</time>
  <course>0.0</course>
  <speed>0.0</speed>
  <fix>3d</fix>
</trkpt>
<trkpt lat="33.810313" lon="-118.393867">
  <ele>-0.115</ele>
  <time>2026-09-02T22:12:29Z</time>
  <course>188.48</course>
  <speed>0.01</speed>
  <fix>3d</fix>
</trkpt>
<trkpt lat="33.810313" lon="-118.393867">
  <ele>-0.12</ele>
  <time>2026-09-02T22:12:29Z</time>
  <course>0.0</course>
  <speed>0.0</speed>
  <fix>3d</fix>
</trkpt>
<trkpt lat="33.810313" lon="-118.393867">
  <ele>-0.114</ele>
  <time>2026-09-02T22:12:29Z</time>
  <course>188.47</course>
  <speed>0.01</speed>
  <fix>3d</fix>
</trkpt>
<trkpt lat="33.810313" lon="-118.393867">
  <ele>-0.12</ele>
  <time>2026-09-02T22:12:29Z</time>
  <course>0.0</course>
  <speed>0.0</speed>
  <fix>3d</fix>
</trkpt>
<trkpt lat="33.810313" lon="-118.393867">
  <ele>-0.114</ele>
  <time>2026-09-02T22:12:29Z</time>
  <course>188.47</course>
  <speed>0.01</speed>
  <fix>3d</fix>
</trkpt>
<trkpt lat="33.810313" lon="-118.393867">
  <ele>-0.12</ele>
  <time>2026-09-02T22:12:29Z</time>
  <course>0.0</course>
  <speed>0.0</speed>
  <fix>3d</fix>
</trkpt>
<trkpt lat="33.810313" lon="-118.393867">
  <ele>-0.112</ele>
  <time>2026-09-02T22:12:29Z</time>
  <course>188.46</course>
  <speed>0.01</speed>
  <fix>3d</fix>
</trkpt>
<trkpt lat="33.810313" lon="-118.393867">
  <ele>-0.12</ele>
  <time>2026-09-02T22:12:29Z</time>
  <course>0.0</course>
  <speed>0.0</speed>
  <fix>3d</fix>
</trkpt>
<trkpt lat="33.810313" lon="-118.393867">
  <ele>-0.109</ele>
  <time>2026-09-02T22:12:29Z</time>
  <course>188.45</course>
  <speed>0.01</speed>
  <fix>3d</fix>
</trkpt>
<trkpt lat="33.810313" lon="-118.393867">
  <ele>-0.12</ele>
  <time>2026-09-02T22:12:29Z</time>
  <course>0.0</course>
  <speed>0.0</speed>
  <fix>3d</fix>
</trkpt>
<trkpt lat="33.810313" lon="-118.393867">
  <ele>-0.108</ele>
  <time>2026-09-02T22:12:29Z</time>
  <course>188.45</course>
  <speed>0.01</speed>
  <fix>3d</fix>
</trkpt>
<trkpt lat="33.810313" lon="-118.393867">
  <ele>-0.12</ele>
  <time>2026-09-02T22:12:29Z</time>
  <course>0.0</course>
  <speed>0.0</speed>
  <fix>3d</fix>
</trkpt>
<trkpt lat="33.810313" lon="-118.393867">
  <ele>-0.109</ele>
  <time>2026-09-02T22:12:29Z</time>
  <course>188.44</course>
  <speed>0.01</speed>
  <fix>3d</fix>
</trkpt>
<trkpt lat="33.810313" lon="-118.393867">
  <ele>-0.12</ele>
  <time>2026-09-02T22:12:29Z</time>
  <course>0.0</course>
  <speed>0.0</speed>
  <fix>3d</fix>
</trkpt>
<trkpt lat="33.810313" lon="-118.393867">
  <ele>-0.112</ele>
  <time>2026-09-02T22:12:29Z</time>
  <course>188.43</course>
  <speed>0.01</speed>
  <fix>3d</fix>
</trkpt>
<trkpt lat="33.810313" lon="-118.393867">
  <ele>-0.12</ele>
  <time>2026-09-02T22:12:29Z</time>
  <course>0.0</course>
  <speed>0.0</speed>
  <fix>3d</fix>
</trkpt>
<trkpt lat="33.810313" lon="-118.393867">
  <ele>-0.115</ele>
  <time>2026-09-02T22:12:29Z</time>
  <course>188.43</course>
  <speed>0.01</speed>
  <fix>3d</fix>
</trkpt>
<trkpt lat="33.810313" lon="-118.393867">
  <ele>-0.12</ele>
  <time>2026-09-02T22:12:29Z</time>
  <course>0.0</course>
  <speed>0.0</speed>
  <fix>3d</fix>
</trkpt>
<trkpt lat="33.810313" lon="-118.393867">
  <ele>-0.118</ele>
  <time>2026-09-02T22:12:29Z</time>
  <course>188.42</course>
  <speed>0.01</speed>
  <fix>3d</fix>
</trkpt>
<trkpt lat="33.810313" lon="-118.393867">
  <ele>-0.12</ele>
  <time>2026-09-02T22:12:29Z</time>
  <course>0.0</course>
  <speed>0.0</speed>
  <fix>3d</fix>
</trkpt>
<trkpt lat="33.810313" lon="-118.393867">
  <ele>-0.118</ele>
  <time>2026-09-02T22:12:29Z</time>
  <course>188.41</course>
  <speed>0.01</speed>
  <fix>3d</fix>
</trkpt>
<trkpt lat="33.810313" lon="-118.393867">
  <ele>-0.12</ele>
  <time>2026-09-02T22:12:29Z</time>
  <course>0.0</course>
  <speed>0.0</speed>
  <fix>3d</fix>
</trkpt>
<trkpt lat="33.810313" lon="-118.393867">
  <ele>-0.118</ele>
  <time>2026-09-02T22:12:29Z</time>
  <course>188.41</course>
  <speed>0.01</speed>
  <fix>3d</fix>
</trkpt>
<trkpt lat="33.810313" lon="-118.393867">
  <ele>-0.12</ele>
  <time>2026-09-02T22:12:29Z</time>
  <course>0.0</course>
  <speed>0.0</speed>
  <fix>3d</fix>
</trkpt>
<trkpt lat="33.810313" lon="-118.393867">
  <ele>-0.118</ele>
  <time>2026-09-02T22:12:29Z</time>
  <course>188.4</course>
  <speed>0.01</speed>
  <fix>3d</fix>
</trkpt>
<trkpt lat="33.810313" lon="-118.393867">
  <ele>-0.12</ele>
  <time>2026-09-02T22:12:29Z</time>
  <course>0.0</course>
  <speed>0.0</speed>
  <fix>3d</fix>
</trkpt>
<trkpt lat="33.810313" lon="-118.393867">
  <ele>-0.119</ele>
  <time>2026-09-02T22:12:29Z</time>
  <course>188.39</course>
  <speed>0.01</speed>
  <fix>3d</fix>
</trkpt>
<trkpt lat="33.810313" lon="-118.393867">
  <ele>-0.12</ele>
  <time>2026-09-02T22:12:29Z</time>
  <course>0.0</course>
  <speed>0.0</speed>
  <fix>3d</fix>
</trkpt>
<trkpt lat="33.810313" lon="-118.393867">
  <ele>-0.119</ele>
  <time>2026-09-02T22:12:29Z</time>
  <course>188.38</course>
  <speed>0.01414213562373095</speed>
  <fix>3d</fix>
</trkpt>
<trkpt lat="33.810313" lon="-118.393867">
  <ele>-0.12</ele>
  <time>2026-09-02T22:12:29Z</time>
  <course>0.0</course>
  <speed>0.0</speed>
  <fix>3d</fix>
</trkpt>
<trkpt lat="33.810313" lon="-118.393867">
  <ele>-0.117</ele>
  <time>2026-09-02T22:12:29Z</time>
  <course>188.38</course>
  <speed>0.01414213562373095</speed>
  <fix>3d</fix>
</trkpt>
<trkpt lat="33.810313" lon="-118.393867">
  <ele>-0.12</ele>
  <time>2026-09-02T22:12:29Z</time>
  <course>0.0</course>
  <speed>0.0</speed>
  <fix>3d</fix>
</trkpt>
<trkpt lat="33.810313" lon="-118.393867">
  <ele>-0.115</ele>
  <time>2026-09-02T22:12:29Z</time>
  <course>188.37</course>
  <speed>0.01414213562373095</speed>
  <fix>3d</fix>
</trkpt>
<trkpt lat="33.810313" lon="-118.393867">
  <ele>-0.12</ele>
  <time>2026-09-02T22:12:29Z</time>
  <course>0.0</course>
  <speed>0.0</speed>
  <fix>3d</fix>
</trkpt>
<trkpt lat="33.810313" lon="-118.393867">
  <ele>-0.113</ele>
  <time>2026-09-02T22:12:29Z</time>
  <course>188.36</course>
  <speed>0.01414213562373095</speed>
  <fix>3d</fix>
</trkpt>
<trkpt lat="33.810313" lon="-118.393867">
  <ele>-0.12</ele>
  <time>2026-09-02T22:12:29Z</time>
  <course>0.0</course>
  <speed>0.0</speed>
  <fix>3d</fix>
</trkpt>
<trkpt lat="33.810313" lon="-118.393867">
  <ele>-0.112</ele>
  <time>2026-09-02T22:12:29Z</time>
  <course>188.35</course>
  <speed>0.01414213562373095</speed>
  <fix>3d</fix>
</trkpt>
<trkpt lat="33.810313" lon="-118.393867">
  <ele>-0.12</ele>
  <time>2026-09-02T22:12:29Z</time>
  <course>0.0</course>
  <speed>0.0</speed>
  <fix>3d</fix>
</trkpt>
<trkpt lat="33.810313" lon="-118.393867">
  <ele>-0.113</ele>
  <time>2026-09-02T22:12:29Z</time>
  <course>188.34</course>
  <speed>0.01414213562373095</speed>
  <fix>3d</fix>
</trkpt>
<trkpt lat="33.810313" lon="-118.393867">
  <ele>-0.12</ele>
  <time>2026-09-02T22:12:29Z</time>
  <course>0.0</course>
  <speed>0.0</speed>
  <fix>3d</fix>
</trkpt>
<trkpt lat="33.810313" lon="-118.393867">
  <ele>-0.115</ele>
  <time>2026-09-02T22:12:29Z</time>
  <course>188.34</course>
  <speed>0.01414213562373095</speed>
  <fix>3d</fix>
</trkpt>
<trkpt lat="33.810313" lon="-118.393867">
  <ele>-0.12</ele>
  <time>2026-09-02T22:12:29Z</time>
  <course>0.0</course>
  <speed>0.0</speed>
  <fix>3d</fix>
</trkpt>
<trkpt lat="33.810313" lon="-118.393867">
  <ele>-0.118</ele>
  <time>2026-09-02T22:12:29Z</time>
  <course>188.33</course>
  <speed>0.01414213562373095</speed>
  <fix>3d</fix>
</trkpt>
<trkpt lat="33.810313" lon="-118.393867">
  <ele>-0.12</ele>
  <time>2026-09-02T22:12:29Z</time>
  <course>0.0</course>
  <speed>0.0</speed>
  <fix>3d</fix>
</trkpt>
<trkpt lat="33.810313" lon="-118.393867">
  <ele>-0.121</ele>
  <time>2026-09-02T22:12:29Z</time>
  <course>188.32</course>
  <speed>0.01414213562373095</speed>
  <fix>3d</fix>
</trkpt>
<trkpt lat="33.810313" lon="-118.393867">
  <ele>-0.12</ele>
  <time>2026-09-02T22:12:29Z</time>
  <course>0.0</course>
  <speed>0.0</speed>
  <fix>3d</fix>
</trkpt>
<trkpt lat="33.810313" lon="-118.393867">
  <ele>-0.124</ele>
  <time>2026-09-02T22:12:29Z</time>
  <course>188.31</course>
  <speed>0.01414213562373095</speed>
  <fix>3d</fix>
</trkpt>
<trkpt lat="33.810313" lon="-118.393867">
  <ele>-0.12</ele>
  <time>2026-09-02T22:12:29Z</time>
  <course>0.0</course>
  <speed>0.0</speed>
  <fix>3d</fix>
</trkpt>
<trkpt lat="33.810313" lon="-118.393867">
  <ele>-0.124</ele>
  <time>2026-09-02T22:12:29Z</time>
  <course>188.31</course>
  <speed>0.01414213562373095</speed>
  <fix>3d</fix>
</trkpt>
<trkpt lat="33.810313" lon="-118.393867">
  <ele>-0.12</ele>
  <time>2026-09-02T22:12:29Z</time>
  <course>0.0</course>
  <speed>0.0</speed>
  <fix>3d</fix>
</trkpt>
<trkpt lat="33.810313" lon="-118.393867">
  <ele>-0.123</ele>
  <time>2026-09-02T22:12:29Z</time>
  <course>188.3</course>
  <speed>0.01414213562373095</speed>
  <fix>3d</fix>
</trkpt>
<trkpt lat="33.810313" lon="-118.393867">
  <ele>-0.12</ele>
  <time>2026-09-02T22:12:29Z</time>
  <course>0.0</course>
  <speed>0.0</speed>
  <fix>3d</fix>
</trkpt>
<trkpt lat="33.810313" lon="-118.393867">
  <ele>-0.121</ele>
  <time>2026-09-02T22:12:29Z</time>
  <course>188.29</course>
  <speed>0.01414213562373095</speed>
  <fix>3d</fix>
</trkpt>
<trkpt lat="33.810313" lon="-118.393867">
  <ele>-0.12</ele>
  <time>2026-09-02T22:12:29Z</time>
  <course>0.0</course>
  <speed>0.0</speed>
  <fix>3d</fix>
</trkpt>
<trkpt lat="33.810313" lon="-118.393867">
  <ele>-0.119</ele>
  <time>2026-09-02T22:12:29Z</time>
  <course>188.28</course>
  <speed>0.01414213562373095</speed>
  <fix>3d</fix>
</trkpt>
<trkpt lat="33.810313" lon="-118.393867">
  <ele>-0.12</ele>
  <time>2026-09-02T22:12:29Z</time>
  <course>0.0</course>
  <speed>0.0</speed>
  <fix>3d</fix>
</trkpt>
<trkpt lat="33.810313" lon="-118.393867">
  <ele>-0.117</ele>
  <time>2026-09-02T22:12:29Z</time>
  <course>188.27</course>
  <speed>0.01414213562373095</speed>
  <fix>3d</fix>
</trkpt>
<trkpt lat="33.810313" lon="-118.393867">
  <ele>-0.12</ele>
  <time>2026-09-02T22:12:29Z</time>
  <course>0.0</course>
  <speed>0.0</speed>
  <fix>3d</fix>
</trkpt>
<trkpt lat="33.810313" lon="-118.393867">
  <ele>-0.115</ele>
  <time>2026-09-02T22:12:29Z</time>
  <course>188.26</course>
  <speed>0.01414213562373095</speed>
  <fix>3d</fix>
</trkpt>
<trkpt lat="33.810313" lon="-118.393867">
  <ele>-0.12</ele>
  <time>2026-09-02T22:12:29Z</time>
  <course>0.0</course>
  <speed>0.0</speed>
  <fix>3d</fix>
</trkpt>
<trkpt lat="33.810313" lon="-118.393867">
  <ele>-0.113</ele>
  <time>2026-09-02T22:12:29Z</time>
  <course>188.26</course>
  <speed>0.01414213562373095</speed>
  <fix>3d</fix>
</trkpt>
<trkpt lat="33.810313" lon="-118.393867">
  <ele>-0.12</ele>
  <time>2026-09-02T22:12:29Z</time>
  <course>0.0</course>
  <speed>0.0</speed>
  <fix>3d</fix>
</trkpt>
<trkpt lat="33.810313" lon="-118.393867">
  <ele>-0.113</ele>
  <time>2026-09-02T22:12:29Z</time>
  <course>188.25</course>
  <speed>0.01414213562373095</speed>
  <fix>3d</fix>
</trkpt>
<trkpt lat="33.810313" lon="-118.393867">
  <ele>-0.12</ele>
  <time>2026-09-02T22:12:29Z</time>
  <course>0.0</course>
  <speed>0.0</speed>
  <fix>3d</fix>
</trkpt>
<trkpt lat="33.810313" lon="-118.393867">
  <ele>-0.114</ele>
  <time>2026-09-02T22:12:29Z</time>
  <course>188.24</course>
  <speed>0.01414213562373095</speed>
  <fix>3d</fix>
</trkpt>
<trkpt lat="33.810313" lon="-118.393867">
  <ele>-0.12</ele>
  <time>2026-09-02T22:12:29Z</time>
  <course>0.0</course>
  <speed>0.0</speed>
  <fix>3d</fix>
</trkpt>
<trkpt lat="33.810313" lon="-118.393867">
  <ele>-0.117</ele>
  <time>2026-09-02T22:12:29Z</time>
  <course>188.23</course>
  <speed>0.01414213562373095</speed>
  <fix>3d</fix>
</trkpt>
<trkpt lat="33.810313" lon="-118.393867">
  <ele>-0.12</ele>
  <time>2026-09-02T22:12:29Z</time>
  <course>0.0</course>
  <speed>0.0</speed>
  <fix>3d</fix>
</trkpt>
<trkpt lat="33.810313" lon="-118.393867">
  <ele>-0.121</ele>
  <time>2026-09-02T22:12:29Z</time>
  <course>188.22</course>
  <speed>0.01414213562373095</speed>
  <fix>3d</fix>
</trkpt>
<trkpt lat="33.810313" lon="-118.393867">
  <ele>-0.12</ele>
  <time>2026-09-02T22:12:29Z</time>
  <course>0.0</course>
  <speed>0.0</speed>
  <fix>3d</fix>
</trkpt>
<trkpt lat="33.810313" lon="-118.393867">
  <ele>-0.125</ele>
  <time>2026-09-02T22:12:29Z</time>
  <course>188.22</course>
  <speed>0.01414213562373095</speed>
  <fix>3d</fix>
</trkpt>
<trkpt lat="33.810313" lon="-118.393867">
  <ele>-0.12</ele>
  <time>2026-09-02T22:12:29Z</time>
  <course>0.0</course>
  <speed>0.0</speed>
  <fix>3d</fix>
</trkpt>
<trkpt lat="33.810313" lon="-118.393867">
  <ele>-0.127</ele>
  <time>2026-09-02T22:12:29Z</time>
  <course>188.21</course>
  <speed>0.01414213562373095</speed>
  <fix>3d</fix>
</trkpt>
<trkpt lat="33.810313" lon="-118.393867">
  <ele>-0.12</ele>
  <time>2026-09-02T22:12:29Z</time>
  <course>0.0</course>
  <speed>0.0</speed>
  <fix>3d</fix>
</trkpt>
<trkpt lat="33.810313" lon="-118.393867">
  <ele>-0.128</ele>
  <time>2026-09-02T22:12:29Z</time>
  <course>188.2</course>
  <speed>0.01414213562373095</speed>
  <fix>3d</fix>
</trkpt>
<trkpt lat="33.810313" lon="-118.393867">
  <ele>-0.12</ele>
  <time>2026-09-02T22:12:29Z</time>
  <course>0.0</course>
  <speed>0.0</speed>
  <fix>3d</fix>
</trkpt>
<trkpt lat="33.810313" lon="-118.393867">
  <ele>-0.129</ele>
  <time>2026-09-02T22:12:29Z</time>
  <course>188.19</course>
  <speed>0.01414213562373095</speed>
  <fix>3d</fix>
</trkpt>
<trkpt lat="33.810313" lon="-118.393867">
  <ele>-0.12</ele>
  <time>2026-09-02T22:12:29Z</time>
  <course>0.0</course>
  <speed>0.0</speed>
  <fix>3d</fix>
</trkpt>
<trkpt lat="33.810313" lon="-118.393867">
  <ele>-0.129</ele>
  <time>2026-09-02T22:12:29Z</time>
  <course>188.18</course>
  <speed>0.01414213562373095</speed>
  <fix>3d</fix>
</trkpt>
<trkpt lat="33.810313" lon="-118.393867">
  <ele>-0.12</ele>
  <time>2026-09-02T22:12:29Z</time>
  <course>0.0</course>
  <speed>0.0</speed>
  <fix>3d</fix>
</trkpt>
<trkpt lat="33.810313" lon="-118.393867">
  <ele>-0.129</ele>
  <time>2026-09-02T22:12:29Z</time>
  <course>188.17</course>
  <speed>0.01414213562373095</speed>
  <fix>3d</fix>
</trkpt>
<trkpt lat="33.810313" lon="-118.393867">
  <ele>-0.12</ele>
  <time>2026-09-02T22:12:29Z</time>
  <course>0.0</course>
  <speed>0.0</speed>
  <fix>3d</fix>
</trkpt>
<trkpt lat="33.810313" lon="-118.393867">
  <ele>-0.128</ele>
  <time>2026-09-02T22:12:29Z</time>
  <course>188.17</course>
  <speed>0.01414213562373095</speed>
  <fix>3d</fix>
</trkpt>
<trkpt lat="33.810313" lon="-118.393867">
  <ele>-0.12</ele>
  <time>2026-09-02T22:12:29Z</time>
  <course>0.0</course>
  <speed>0.0</speed>
  <fix>3d</fix>
</trkpt>
<trkpt lat="33.810313" lon="-118.393867">
  <ele>-0.127</ele>
  <time>2026-09-02T22:12:29Z</time>
  <course>188.16</course>
  <speed>0.01414213562373095</speed>
  <fix>3d</fix>
</trkpt>
<trkpt lat="33.810313" lon="-118.393867">
  <ele>-0.12</ele>
  <time>2026-09-02T22:12:29Z</time>
  <course>0.0</course>
  <speed>0.0</speed>
  <fix>3d</fix>
</trkpt>
<trkpt lat="33.810313" lon="-118.393867">
  <ele>-0.126</ele>
  <time>2026-09-02T22:12:29Z</time>
  <course>188.15</course>
  <speed>0.01414213562373095</speed>
  <fix>3d</fix>
</trkpt>
<trkpt lat="33.810313" lon="-118.393867">
  <ele>-0.12</ele>
  <time>2026-09-02T22:12:29Z</time>
  <course>0.0</course>
  <speed>0.0</speed>
  <fix>3d</fix>
</trkpt>
<trkpt lat="33.810313" lon="-118.393867">
  <ele>-0.125</ele>
  <time>2026-09-02T22:12:29Z</time>
  <course>188.14</course>
  <speed>0.01414213562373095</speed>
  <fix>3d</fix>
</trkpt>
<trkpt lat="33.810313" lon="-118.393867">
  <ele>-0.12</ele>
  <time>2026-09-02T22:12:29Z</time>
  <course>0.0</course>
  <speed>0.0</speed>
  <fix>3d</fix>
</trkpt>
<trkpt lat="33.810313" lon="-118.393867">
  <ele>-0.126</ele>
  <time>2026-09-02T22:12:29Z</time>
  <course>188.13</course>
  <speed>0.01414213562373095</speed>
  <fix>3d</fix>
</trkpt>
<trkpt lat="33.810313" lon="-118.393867">
  <ele>-0.12</ele>
  <time>2026-09-02T22:12:29Z</time>
  <course>0.0</course>
  <speed>0.0</speed>
  <fix>3d</fix>
</trkpt>
<trkpt lat="33.810313" lon="-118.393867">
  <ele>-0.127</ele>
  <time>2026-09-02T22:12:29Z</time>
  <course>188.12</course>
  <speed>0.01414213562373095</speed>
  <fix>3d</fix>
</trkpt>
<trkpt lat="33.810313" lon="-118.393867">
  <ele>-0.12</ele>
  <time>2026-09-02T22:12:29Z</time>
  <course>0.0</course>
  <speed>0.0</speed>
  <fix>3d</fix>
</trkpt>
<trkpt lat="33.810313" lon="-118.393867">
  <ele>-0.129</ele>
  <time>2026-09-02T22:12:29Z</time>
  <course>188.12</course>
  <speed>0.01414213562373095</speed>
  <fix>3d</fix>
</trkpt>
<trkpt lat="33.810313" lon="-118.393867">
  <ele>-0.12</ele>
  <time>2026-09-02T22:12:29Z</time>
  <course>0.0</course>
  <speed>0.0</speed>
  <fix>3d</fix>
</trkpt>
<trkpt lat="33.810313" lon="-118.393867">
  <ele>-0.131</ele>
  <time>2026-09-02T22:12:29Z</time>
  <course>188.11</course>
  <speed>0.01414213562373095</speed>
  <fix>3d</fix>
</trkpt>
<trkpt lat="33.810313" lon="-118.393867">
  <ele>-0.12</ele>
  <time>2026-09-02T22:12:29Z</time>
  <course>0.0</course>
  <speed>0.0</speed>
  <fix>3d</fix>
</trkpt>
<trkpt lat="33.810313" lon="-118.393867">
  <ele>-0.132</ele>
  <time>2026-09-02T22:12:29Z</time>
  <course>188.1</course>
  <speed>0.01414213562373095</speed>
  <fix>3d</fix>
</trkpt>
<trkpt lat="33.810313" lon="-118.393867">
  <ele>-0.12</ele>
  <time>2026-09-02T22:12:29Z</time>
  <course>0.0</course>
  <speed>0.0</speed>
  <fix>3d</fix>
</trkpt>
<trkpt lat="33.810313" lon="-118.393867">
  <ele>-0.132</ele>
  <time>2026-09-02T22:12:29Z</time>
  <course>188.09</course>
  <speed>0.01414213562373095</speed>
  <fix>3d</fix>
</trkpt>
<trkpt lat="33.810313" lon="-118.393867">
  <ele>-0.12</ele>
  <time>2026-09-02T22:12:29Z</time>
  <course>0.0</course>
  <speed>0.0</speed>
  <fix>3d</fix>
</trkpt>
<trkpt lat="33.810313" lon="-118.393867">
  <ele>-0.132</ele>
  <time>2026-09-02T22:12:29Z</time>
  <course>188.08</course>
  <speed>0.01414213562373095</speed>
  <fix>3d</fix>
</trkpt>
<trkpt lat="33.810313" lon="-118.393867">
  <ele>-0.12</ele>
  <time>2026-09-02T22:12:29Z</time>
  <course>0.0</course>
  <speed>0.0</speed>
  <fix>3d</fix>
</trkpt>
<trkpt lat="33.810313" lon="-118.393867">
  <ele>-0.13</ele>
  <time>2026-09-02T22:12:29Z</time>
  <course>188.08</course>
  <speed>0.01414213562373095</speed>
  <fix>3d</fix>
</trkpt>
<trkpt lat="33.810313" lon="-118.393867">
  <ele>-0.12</ele>
  <time>2026-09-02T22:12:29Z</time>
  <course>0.0</course>
  <speed>0.0</speed>
  <fix>3d</fix>
</trkpt>
<trkpt lat="33.810313" lon="-118.393867">
  <ele>-0.126</ele>
  <time>2026-09-02T22:12:29Z</time>
  <course>188.07</course>
  <speed>0.01414213562373095</speed>
  <fix>3d</fix>
</trkpt>
<trkpt lat="33.810313" lon="-118.393867">
  <ele>-0.12</ele>
  <time>2026-09-02T22:12:29Z</time>
  <course>0.0</course>
  <speed>0.0</speed>
  <fix>3d</fix>
</trkpt>
<trkpt lat="33.810313" lon="-118.393867">
  <ele>-0.123</ele>
  <time>2026-09-02T22:12:29Z</time>
  <course>188.06</course>
  <speed>0.01414213562373095</speed>
  <fix>3d</fix>
</trkpt>
<trkpt lat="33.810313" lon="-118.393867">
  <ele>-0.12</ele>
  <time>2026-09-02T22:12:29Z</time>
  <course>0.0</course>
  <speed>0.0</speed>
  <fix>3d</fix>
</trkpt>
<trkpt lat="33.810313" lon="-118.393867">
  <ele>-0.119</ele>
  <time>2026-09-02T22:12:29Z</time>
  <course>188.05</course>
  <speed>0.01414213562373095</speed>
  <fix>3d</fix>
</trkpt>
<trkpt lat="33.810313" lon="-118.393867">
  <ele>-0.12</ele>
  <time>2026-09-02T22:12:29Z</time>
  <course>0.0</course>
  <speed>0.0</speed>
  <fix>3d</fix>
</trkpt>
<trkpt lat="33.810313" lon="-118.393867">
  <ele>-0.116</ele>
  <time>2026-09-02T22:12:29Z</time>
  <course>188.04</course>
  <speed>0.022360679774997897</speed>
  <fix>3d</fix>
</trkpt>
<trkpt lat="33.810313" lon="-118.393867">
  <ele>-0.12</ele>
  <time>2026-09-02T22:12:29Z</time>
  <course>0.0</course>
  <speed>0.0</speed>
  <fix>3d</fix>
</trkpt>
<trkpt lat="33.810313" lon="-118.393867">
  <ele>-0.116</ele>
  <time>2026-09-02T22:12:29Z</time>
  <course>188.03</course>
  <speed>0.022360679774997897</speed>
  <fix>3d</fix>
</trkpt>
<trkpt lat="33.810313" lon="-118.393867">
  <ele>-0.12</ele>
  <time>2026-09-02T22:12:29Z</time>
  <course>0.0</course>
  <speed>0.0</speed>
  <fix>3d</fix>
</trkpt>
<trkpt lat="33.810313" lon="-118.393867">
  <ele>-0.116</ele>
  <time>2026-09-02T22:12:29Z</time>
  <course>188.03</course>
  <speed>0.022360679774997897</speed>
  <fix>3d</fix>
</trkpt>
<trkpt lat="33.810313" lon="-118.393867">
  <ele>-0.12</ele>
  <time>2026-09-02T22:12:29Z</time>
  <course>0.0</course>
  <speed>0.0</speed>
  <fix>3d</fix>
</trkpt>
<trkpt lat="33.810313" lon="-118.393867">
  <ele>-0.116</ele>
  <time>2026-09-02T22:12:29Z</time>
  <course>188.02</course>
  <speed>0.022360679774997897</speed>
  <fix>3d</fix>
</trkpt>
<trkpt lat="33.810313" lon="-118.393867">
  <ele>-0.12</ele>
  <time>2026-09-02T22:12:29Z</time>
  <course>0.0</course>
  <speed>0.0</speed>
  <fix>3d</fix>
</trkpt>
<trkpt lat="33.810313" lon="-118.393867">
  <ele>-0.115</ele>
  <time>2026-09-02T22:12:29Z</time>
  <course>188.01</course>
  <speed>0.022360679774997897</speed>
  <fix>3d</fix>
</trkpt>
<trkpt lat="33.810313" lon="-118.393867">
  <ele>-0.12</ele>
  <time>2026-09-02T22:12:29Z</time>
  <course>0.0</course>
  <speed>0.0</speed>
  <fix>3d</fix>
</trkpt>
<trkpt lat="33.810313" lon="-118.393867">
  <ele>-0.114</ele>
  <time>2026-09-02T22:12:29Z</time>
  <course>188.0</course>
  <speed>0.022360679774997897</speed>
  <fix>3d</fix>
</trkpt>
<trkpt lat="33.810313" lon="-118.393867">
  <ele>-0.12</ele>
  <time>2026-09-02T22:12:29Z</time>
  <course>0.0</course>
  <speed>0.0</speed>
  <fix>3d</fix>
</trkpt>
<trkpt lat="33.810313" lon="-118.393867">
  <ele>-0.112</ele>
  <time>2026-09-02T22:12:29Z</time>
  <course>187.99</course>
  <speed>0.022360679774997897</speed>
  <fix>3d</fix>
</trkpt>
<trkpt lat="33.810313" lon="-118.393867">
  <ele>-0.12</ele>
  <time>2026-09-02T22:12:29Z</time>
  <course>0.0</course>
  <speed>0.0</speed>
  <fix>3d</fix>
</trkpt>
<trkpt lat="33.810313" lon="-118.393867">
  <ele>-0.11</ele>
  <time>2026-09-02T22:12:29Z</time>
  <course>187.99</course>
  <speed>0.022360679774997897</speed>
  <fix>3d</fix>
</trkpt>
<trkpt lat="33.810313" lon="-118.393867">
  <ele>-0.12</ele>
  <time>2026-09-02T22:12:29Z</time>
  <course>0.0</course>
  <speed>0.0</speed>
  <fix>3d</fix>
</trkpt>
<trkpt lat="33.810313" lon="-118.393867">
  <ele>-0.107</ele>
  <time>2026-09-02T22:12:29Z</time>
  <course>187.98</course>
  <speed>0.022360679774997897</speed>
  <fix>3d</fix>
</trkpt>
<trkpt lat="33.810313" lon="-118.393867">
  <ele>-0.12</ele>
  <time>2026-09-02T22:12:29Z</time>
  <course>0.0</course>
  <speed>0.0</speed>
  <fix>3d</fix>
</trkpt>
<trkpt lat="33.810313" lon="-118.393867">
  <ele>-0.106</ele>
  <time>2026-09-02T22:12:29Z</time>
  <course>187.97</course>
  <speed>0.022360679774997897</speed>
  <fix>3d</fix>
</trkpt>
<trkpt lat="33.810313" lon="-118.393867">
  <ele>-0.12</ele>
  <time>2026-09-02T22:12:29Z</time>
  <course>0.0</course>
  <speed>0.0</speed>
  <fix>3d</fix>
</trkpt>
<trkpt lat="33.810313" lon="-118.393867">
  <ele>-0.106</ele>
  <time>2026-09-02T22:12:29Z</time>
  <course>187.96</course>
  <speed>0.022360679774997897</speed>
  <fix>3d</fix>
</trkpt>
<trkpt lat="33.810313" lon="-118.393867">
  <ele>-0.12</ele>
  <time>2026-09-02T22:12:29Z</time>
  <course>0.0</course>
  <speed>0.0</speed>
  <fix>3d</fix>
</trkpt>
<trkpt lat="33.810313" lon="-118.393867">
  <ele>-0.107</ele>
  <time>2026-09-02T22:12:29Z</time>
  <course>187.95</course>
  <speed>0.022360679774997897</speed>
  <fix>3d</fix>
</trkpt>
<trkpt lat="33.810313" lon="-118.393867">
  <ele>-0.12</ele>
  <time>2026-09-02T22:12:29Z</time>
  <course>0.0</course>
  <speed>0.0</speed>
  <fix>3d</fix>
</trkpt>
<trkpt lat="33.810313" lon="-118.393867">
  <ele>-0.109</ele>
  <time>2026-09-02T22:12:29Z</time>
  <course>187.94</course>
  <speed>0.022360679774997897</speed>
  <fix>3d</fix>
</trkpt>
<trkpt lat="33.810313" lon="-118.393867">
  <ele>-0.12</ele>
  <time>2026-09-02T22:12:29Z</time>
  <course>0.0</course>
  <speed>0.0</speed>
  <fix>3d</fix>
</trkpt>
<trkpt lat="33.810313" lon="-118.393867">
  <ele>-0.113</ele>
  <time>2026-09-02T22:12:29Z</time>
  <course>187.94</course>
  <speed>0.022360679774997897</speed>
  <fix>3d</fix>
</trkpt>
<trkpt lat="33.810313" lon="-118.393867">
  <ele>-0.12</ele>
  <time>2026-09-02T22:12:29Z</time>
  <course>0.0</course>
  <speed>0.0</speed>
  <fix>3d</fix>
</trkpt>
<trkpt lat="33.810313" lon="-118.393867">
  <ele>-0.116</ele>
  <time>2026-09-02T22:12:29Z</time>
  <course>187.93</course>
  <speed>0.022360679774997897</speed>
  <fix>3d</fix>
</trkpt>
<trkpt lat="33.810313" lon="-118.393867">
  <ele>-0.12</ele>
  <time>2026-09-02T22:12:29Z</time>
  <course>0.0</course>
  <speed>0.0</speed>
  <fix>3d</fix>
</trkpt>
<trkpt lat="33.810313" lon="-118.393867">
  <ele>-0.119</ele>
  <time>2026-09-02T22:12:29Z</time>
  <course>187.92</course>
  <speed>0.022360679774997897</speed>
  <fix>3d</fix>
</trkpt>
<trkpt lat="33.810313" lon="-118.393867">
  <ele>-0.12</ele>
  <time>2026-09-02T22:12:29Z</time>
  <course>0.0</course>
  <speed>0.0</speed>
  <fix>3d</fix>
</trkpt>
<trkpt lat="33.810313" lon="-118.393867">
  <ele>-0.122</ele>
  <time>2026-09-02T22:12:29Z</time>
  <course>187.91</course>
  <speed>0.022360679774997897</speed>
  <fix>3d</fix>
</trkpt>
<trkpt lat="33.810313" lon="-118.393867">
  <ele>-0.12</ele>
  <time>2026-09-02T22:12:29Z</time>
  <course>0.0</course>
  <speed>0.0</speed>
  <fix>3d</fix>
</trkpt>
<trkpt lat="33.810313" lon="-118.393867">
  <ele>-0.124</ele>
  <time>2026-09-02T22:12:29Z</time>
  <course>187.9</course>
  <speed>0.022360679774997897</speed>
  <fix>3d</fix>
</trkpt>
<trkpt lat="33.810313" lon="-118.393867">
  <ele>-0.12</ele>
  <time>2026-09-02T22:12:29Z</time>
  <course>0.0</course>
  <speed>0.0</speed>
  <fix>3d</fix>
</trkpt>
<trkpt lat="33.810313" lon="-118.393867">
  <ele>-0.124</ele>
  <time>2026-09-02T22:12:29Z</time>
  <course>187.9</course>
  <speed>0.022360679774997897</speed>
  <fix>3d</fix>
</trkpt>
<trkpt lat="33.810313" lon="-118.393867">
  <ele>-0.12</ele>
  <time>2026-09-02T22:12:29Z</time>
  <course>0.0</course>
  <speed>0.0</speed>
  <fix>3d</fix>
</trkpt>
<trkpt lat="33.810313" lon="-118.393867">
  <ele>-0.123</ele>
  <time>2026-09-02T22:12:29Z</time>
  <course>187.89</course>
  <speed>0.022360679774997897</speed>
  <fix>3d</fix>
</trkpt>
<trkpt lat="33.810313" lon="-118.393867">
  <ele>-0.12</ele>
  <time>2026-09-02T22:12:29Z</time>
  <course>0.0</course>
  <speed>0.0</speed>
  <fix>3d</fix>
</trkpt>
<trkpt lat="33.810313" lon="-118.393867">
  <ele>-0.12</ele>
  <time>2026-09-02T22:12:29Z</time>
  <course>187.88</course>
  <speed>0.022360679774997897</speed>
  <fix>3d</fix>
</trkpt>
<trkpt lat="33.810313" lon="-118.393867">
  <ele>-0.12</ele>
  <time>2026-09-02T22:12:29Z</time>
  <course>0.0</course>
  <speed>0.0</speed>
  <fix>3d</fix>
</trkpt>
<trkpt lat="33.810313" lon="-118.393867">
  <ele>-0.118</ele>
  <time>2026-09-02T22:12:29Z</time>
  <course>187.87</course>
  <speed>0.022360679774997897</speed>
  <fix>3d</fix>
</trkpt>
<trkpt lat="33.810313" lon="-118.393867">
  <ele>-0.12</ele>
  <time>2026-09-02T22:12:29Z</time>
  <course>0.0</course>
  <speed>0.0</speed>
  <fix>3d</fix>
</trkpt>
<trkpt lat="33.810313" lon="-118.393867">
  <ele>-0.117</ele>
  <time>2026-09-02T22:12:29Z</time>
  <course>187.87</course>
  <speed>0.022360679774997897</speed>
  <fix>3d</fix>
</trkpt>
<trkpt lat="33.810313" lon="-118.393867">
  <ele>-0.12</ele>
  <time>2026-09-02T22:12:29Z</time>
  <course>0.0</course>
  <speed>0.0</speed>
  <fix>3d</fix>
</trkpt>
<trkpt lat="33.810313" lon="-118.393867">
  <ele>-0.118</ele>
  <time>2026-09-02T22:12:29Z</time>
  <course>187.86</course>
  <speed>0.022360679774997897</speed>
  <fix>3d</fix>
</trkpt>
<trkpt lat="33.810313" lon="-118.393867">
  <ele>-0.12</ele>
  <time>2026-09-02T22:12:29Z</time>
  <course>0.0</course>
  <speed>0.0</speed>
  <fix>3d</fix>
</trkpt>
<trkpt lat="33.810313" lon="-118.393867">
  <ele>-0.12</ele>
  <time>2026-09-02T22:12:29Z</time>
  <course>187.85</course>
  <speed>0.022360679774997897</speed>
  <fix>3d</fix>
</trkpt>
<trkpt lat="33.810313" lon="-118.393867">
  <ele>-0.12</ele>
  <time>2026-09-02T22:12:29Z</time>
  <course>0.0</course>
  <speed>0.0</speed>
  <fix>3d</fix>
</trkpt>
<trkpt lat="33.810313" lon="-118.393867">
  <ele>-0.123</ele>
  <time>2026-09-02T22:12:29Z</time>
  <course>187.84</course>
  <speed>0.022360679774997897</speed>
  <fix>3d</fix>
</trkpt>
<trkpt lat="33.810313" lon="-118.393867">
  <ele>-0.12</ele>
  <time>2026-09-02T22:12:29Z</time>
  <course>0.0</course>
  <speed>0.0</speed>
  <fix>3d</fix>
</trkpt>
<trkpt lat="33.810313" lon="-118.393867">
  <ele>-0.126</ele>
  <time>2026-09-02T22:12:29Z</time>
  <course>187.83</course>
  <speed>0.022360679774997897</speed>
  <fix>3d</fix>
</trkpt>
<trkpt lat="33.810313" lon="-118.393867">
  <ele>-0.12</ele>
  <time>2026-09-02T22:12:29Z</time>
  <course>0.0</course>
  <speed>0.0</speed>
  <fix>3d</fix>
</trkpt>
<trkpt lat="33.810313" lon="-118.393867">
  <ele>-0.129</ele>
  <time>2026-09-02T22:12:29Z</time>
  <course>187.83</course>
  <speed>0.022360679774997897</speed>
  <fix>3d</fix>
</trkpt>
<trkpt lat="33.810313" lon="-118.393867">
  <ele>-0.12</ele>
  <time>2026-09-02T22:12:29Z</time>
  <course>0.0</course>
  <speed>0.0</speed>
  <fix>3d</fix>
</trkpt>
<trkpt lat="33.810313" lon="-118.393867">
  <ele>-0.13</ele>
  <time>2026-09-02T22:12:29Z</time>
  <course>187.82</course>
  <speed>0.022360679774997897</speed>
  <fix>3d</fix>
</trkpt>
<trkpt lat="33.810313" lon="-118.393867">
  <ele>-0.12</ele>
  <time>2026-09-02T22:12:29Z</time>
  <course>0.0</course>
  <speed>0.0</speed>
  <fix>3d</fix>
</trkpt>
<trkpt lat="33.810313" lon="-118.393867">
  <ele>-0.13</ele>
  <time>2026-09-02T22:12:29Z</time>
  <course>187.81</course>
  <speed>0.022360679774997897</speed>
  <fix>3d</fix>
</trkpt>
<trkpt lat="33.810313" lon="-118.393867">
  <ele>-0.12</ele>
  <time>2026-09-02T22:12:29Z</time>
  <course>0.0</course>
  <speed>0.0</speed>
  <fix>3d</fix>
</trkpt>
<trkpt lat="33.810313" lon="-118.393867">
  <ele>-0.128</ele>
  <time>2026-09-02T22:12:29Z</time>
  <course>187.8</course>
  <speed>0.022360679774997897</speed>
  <fix>3d</fix>
</trkpt>
<trkpt lat="33.810313" lon="-118.393867">
  <ele>-0.12</ele>
  <time>2026-09-02T22:12:29Z</time>
  <course>0.0</course>
  <speed>0.0</speed>
  <fix>3d</fix>
</trkpt>
<trkpt lat="33.810313" lon="-118.393867">
  <ele>-0.127</ele>
  <time>2026-09-02T22:12:29Z</time>
  <course>187.8</course>
  <speed>0.022360679774997897</speed>
  <fix>3d</fix>
</trkpt>
<trkpt lat="33.810313" lon="-118.393867">
  <ele>-0.12</ele>
  <time>2026-09-02T22:12:29Z</time>
  <course>0.0</course>
  <speed>0.0</speed>
  <fix>3d</fix>
</trkpt>
<trkpt lat="33.810313" lon="-118.393867">
  <ele>-0.124</ele>
  <time>2026-09-02T22:12:29Z</time>
  <course>187.79</course>
  <speed>0.022360679774997897</speed>
  <fix>3d</fix>
</trkpt>
<trkpt lat="33.810313" lon="-118.393867">
  <ele>-0.12</ele>
  <time>2026-09-02T22:12:29Z</time>
  <course>0.0</course>
  <speed>0.0</speed>
  <fix>3d</fix>
</trkpt>
<trkpt lat="33.810313" lon="-118.393867">
  <ele>-0.122</ele>
  <time>2026-09-02T22:12:29Z</time>
  <course>187.78</course>
  <speed>0.022360679774997897</speed>
  <fix>3d</fix>
</trkpt>
<trkpt lat="33.810313" lon="-118.393867">
  <ele>-0.12</ele>
  <time>2026-09-02T22:12:29Z</time>
  <course>0.0</course>
  <speed>0.0</speed>
  <fix>3d</fix>
</trkpt>
<trkpt lat="33.810313" lon="-118.393867">
  <ele>-0.121</ele>
  <time>2026-09-02T22:12:29Z</time>
  <course>187.77</course>
  <speed>0.022360679774997897</speed>
  <fix>3d</fix>
</trkpt>
<trkpt lat="33.810313" lon="-118.393867">
  <ele>-0.12</ele>
  <time>2026-09-02T22:12:29Z</time>
  <course>0.0</course>
  <speed>0.0</speed>
  <fix>3d</fix>
</trkpt>
<trkpt lat="33.810313" lon="-118.393867">
  <ele>-0.12</ele>
  <time>2026-09-02T22:12:29Z</time>
  <course>187.77</course>
  <speed>0.022360679774997897</speed>
  <fix>3d</fix>
</trkpt>
<trkpt lat="33.810313" lon="-118.393867">
  <ele>-0.12</ele>
  <time>2026-09-02T22:12:29Z</time>
  <course>0.0</course>
  <speed>0.0</speed>
  <fix>3d</fix>
</trkpt>
<trkpt lat="33.810313" lon="-118.393867">
  <ele>-0.12</ele>
  <time>2026-09-02T22:12:29Z</time>
  <course>187.76</course>
  <speed>0.022360679774997897</speed>
  <fix>3d</fix>
</trkpt>
<trkpt lat="33.810313" lon="-118.393867">
  <ele>-0.12</ele>
  <time>2026-09-02T22:12:29Z</time>
  <course>0.0</course>
  <speed>0.0</speed>
  <fix>3d</fix>
</trkpt>
<trkpt lat="33.810313" lon="-118.393867">
  <ele>-0.121</ele>
  <time>2026-09-02T22:12:29Z</time>
  <course>187.75</course>
  <speed>0.022360679774997897</speed>
  <fix>3d</fix>
</trkpt>
<trkpt lat="33.810313" lon="-118.393867">
  <ele>-0.12</ele>
  <time>2026-09-02T22:12:29Z</time>
  <course>0.0</course>
  <speed>0.0</speed>
  <fix>3d</fix>
</trkpt>
<trkpt lat="33.810313" lon="-118.393867">
  <ele>-0.121</ele>
  <time>2026-09-02T22:12:29Z</time>
  <course>187.74</course>
  <speed>0.022360679774997897</speed>
  <fix>3d</fix>
</trkpt>
<trkpt lat="33.810313" lon="-118.393867">
  <ele>-0.12</ele>
  <time>2026-09-02T22:12:29Z</time>
  <course>0.0</course>
  <speed>0.0</speed>
  <fix>3d</fix>
</trkpt>
<trkpt lat="33.810313" lon="-118.393867">
  <ele>-0.121</ele>
  <time>2026-09-02T22:12:29Z</time>
  <course>187.74</course>
  <speed>0.0282842712474619</speed>
  <fix>3d</fix>
</trkpt>
<trkpt lat="33.810313" lon="-118.393867">
  <ele>-0.12</ele>
  <time>2026-09-02T22:12:29Z</time>
  <course>0.0</course>
  <speed>0.0</speed>
  <fix>3d</fix>
</trkpt>
<trkpt lat="33.810313" lon="-118.393867">
  <ele>-0.119</ele>
  <time>2026-09-02T22:12:29Z</time>
  <course>187.73</course>
  <speed>0.0282842712474619</speed>
  <fix>3d</fix>
</trkpt>
<trkpt lat="33.810313" lon="-118.393867">
  <ele>-0.12</ele>
  <time>2026-09-02T22:12:29Z</time>
  <course>0.0</course>
  <speed>0.0</speed>
  <fix>3d</fix>
</trkpt>
<trkpt lat="33.810313" lon="-118.393867">
  <ele>-0.117</ele>
  <time>2026-09-02T22:12:29Z</time>
  <course>187.72</course>
  <speed>0.0282842712474619</speed>
  <fix>3d</fix>
</trkpt>
<trkpt lat="33.810313" lon="-118.393867">
  <ele>-0.12</ele>
  <time>2026-09-02T22:12:29Z</time>
  <course>0.0</course>
  <speed>0.0</speed>
  <fix>3d</fix>
</trkpt>
<trkpt lat="33.810313" lon="-118.393867">
  <ele>-0.114</ele>
  <time>2026-09-02T22:12:29Z</time>
  <course>187.71</course>
  <speed>0.0282842712474619</speed>
  <fix>3d</fix>
</trkpt>
<trkpt lat="33.810313" lon="-118.393867">
  <ele>-0.12</ele>
  <time>2026-09-02T22:12:29Z</time>
  <course>0.0</course>
  <speed>0.0</speed>
  <fix>3d</fix>
</trkpt>
<trkpt lat="33.810313" lon="-118.393867">
  <ele>-0.112</ele>
  <time>2026-09-02T22:12:29Z</time>
  <course>187.71</course>
  <speed>0.0282842712474619</speed>
  <fix>3d</fix>
</trkpt>
<trkpt lat="33.810313" lon="-118.393867">
  <ele>-0.12</ele>
  <time>2026-09-02T22:12:29Z</time>
  <course>0.0</course>
  <speed>0.0</speed>
  <fix>3d</fix>
</trkpt>
<trkpt lat="33.810313" lon="-118.393867">
  <ele>-0.111</ele>
  <time>2026-09-02T22:12:29Z</time>
  <course>187.7</course>
  <speed>0.0282842712474619</speed>
  <fix>3d</fix>
</trkpt>
<trkpt lat="33.810313" lon="-118.393867">
  <ele>-0.12</ele>
  <time>2026-09-02T22:12:29Z</time>
  <course>0.0</course>
  <speed>0.0</speed>
  <fix>3d</fix>
</trkpt>
<trkpt lat="33.810313" lon="-118.393867">
  <ele>-0.111</ele>
  <time>2026-09-02T22:12:29Z</time>
  <course>187.69</course>
  <speed>0.0282842712474619</speed>
  <fix>3d</fix>
</trkpt>
<trkpt lat="33.810313" lon="-118.393867">
  <ele>-0.12</ele>
  <time>2026-09-02T22:12:29Z</time>
  <course>0.0</course>
  <speed>0.0</speed>
  <fix>3d</fix>
</trkpt>
<trkpt lat="33.810313" lon="-118.393867">
  <ele>-0.113</ele>
  <time>2026-09-02T22:12:29Z</time>
  <course>187.69</course>
  <speed>0.0282842712474619</speed>
  <fix>3d</fix>
</trkpt>
<trkpt lat="33.810313" lon="-118.393867">
  <ele>-0.12</ele>
  <time>2026-09-02T22:12:29Z</time>
  <course>0.0</course>
  <speed>0.0</speed>
  <fix>3d</fix>
</trkpt>
<trkpt lat="33.810313" lon="-118.393867">
  <ele>-0.114</ele>
  <time>2026-09-02T22:12:29Z</time>
  <course>187.68</course>
  <speed>0.0282842712474619</speed>
  <fix>3d</fix>
</trkpt>
<trkpt lat="33.810313" lon="-118.393867">
  <ele>-0.12</ele>
  <time>2026-09-02T22:12:29Z</time>
  <course>0.0</course>
  <speed>0.0</speed>
  <fix>3d</fix>
</trkpt>
<trkpt lat="33.810313" lon="-118.393867">
  <ele>-0.115</ele>
  <time>2026-09-02T22:12:29Z</time>
  <course>187.67</course>
  <speed>0.0282842712474619</speed>
  <fix>3d</fix>
</trkpt>
<trkpt lat="33.810313" lon="-118.393867">
  <ele>-0.12</ele>
  <time>2026-09-02T22:12:29Z</time>
  <course>0.0</course>
  <speed>0.0</speed>
  <fix>3d</fix>
</trkpt>
<trkpt lat="33.810313" lon="-118.393867">
  <ele>-0.116</ele>
  <time>2026-09-02T22:12:29Z</time>
  <course>187.66</course>
  <speed>0.0282842712474619</speed>
  <fix>3d</fix>
</trkpt>
<trkpt lat="33.810313" lon="-118.393867">
  <ele>-0.12</ele>
  <time>2026-09-02T22:12:29Z</time>
  <course>0.0</course>
  <speed>0.0</speed>
  <fix>3d</fix>
</trkpt>
<trkpt lat="33.810313" lon="-118.393867">
  <ele>-0.116</ele>
  <time>2026-09-02T22:12:29Z</time>
  <course>187.66</course>
  <speed>0.0282842712474619</speed>
  <fix>3d</fix>
</trkpt>
<trkpt lat="33.810313" lon="-118.393867">
  <ele>-0.12</ele>
  <time>2026-09-02T22:12:29Z</time>
  <course>0.0</course>
  <speed>0.0</speed>
  <fix>3d</fix>
</trkpt>
<trkpt lat="33.810313" lon="-118.393867">
  <ele>-0.116</ele>
  <time>2026-09-02T22:12:29Z</time>
  <course>187.65</course>
  <speed>0.0282842712474619</speed>
  <fix>3d</fix>
</trkpt>
<trkpt lat="33.810313" lon="-118.393867">
  <ele>-0.12</ele>
  <time>2026-09-02T22:12:29Z</time>
  <course>0.0</course>
  <speed>0.0</speed>
  <fix>3d</fix>
</trkpt>
<trkpt lat="33.810313" lon="-118.393867">
  <ele>-0.115</ele>
  <time>2026-09-02T22:12:29Z</time>
  <course>187.64</course>
  <speed>0.0282842712474619</speed>
  <fix>3d</fix>
</trkpt>
<trkpt lat="33.810313" lon="-118.393867">
  <ele>-0.12</ele>
  <time>2026-09-02T22:12:29Z</time>
  <course>0.0</course>
  <speed>0.0</speed>
  <fix>3d</fix>
</trkpt>
<trkpt lat="33.810313" lon="-118.393867">
  <ele>-0.113</ele>
  <time>2026-09-02T22:12:29Z</time>
  <course>187.64</course>
  <speed>0.0282842712474619</speed>
  <fix>3d</fix>
</trkpt>
<trkpt lat="33.810313" lon="-118.393867">
  <ele>-0.12</ele>
  <time>2026-09-02T22:12:29Z</time>
  <course>0.0</course>
  <speed>0.0</speed>
  <fix>3d</fix>
</trkpt>
<trkpt lat="33.810313" lon="-118.393867">
  <ele>-0.111</ele>
  <time>2026-09-02T22:12:29Z</time>
  <course>187.63</course>
  <speed>0.0282842712474619</speed>
  <fix>3d</fix>
</trkpt>
<trkpt lat="33.810313" lon="-118.393867">
  <ele>-0.12</ele>
  <time>2026-09-02T22:12:29Z</time>
  <course>0.0</course>
  <speed>0.0</speed>
  <fix>3d</fix>
</trkpt>
<trkpt lat="33.810313" lon="-118.393867">
  <ele>-0.111</ele>
  <time>2026-09-02T22:12:29Z</time>
  <course>187.63</course>
  <speed>0.0282842712474619</speed>
  <fix>3d</fix>
</trkpt>
<trkpt lat="33.810313" lon="-118.393867">
  <ele>-0.12</ele>
  <time>2026-09-02T22:12:29Z</time>
  <course>0.0</course>
  <speed>0.0</speed>
  <fix>3d</fix>
</trkpt>
<trkpt lat="33.810313" lon="-118.393867">
  <ele>-0.113</ele>
  <time>2026-09-02T22:12:29Z</time>
  <course>187.62</course>
  <speed>0.0282842712474619</speed>
  <fix>3d</fix>
</trkpt>
<trkpt lat="33.810313" lon="-118.393867">
  <ele>-0.12</ele>
  <time>2026-09-02T22:12:29Z</time>
  <course>0.0</course>
  <speed>0.0</speed>
  <fix>3d</fix>
</trkpt>
<trkpt lat="33.810313" lon="-118.393867">
  <ele>-0.115</ele>
  <time>2026-09-02T22:12:29Z</time>
  <course>187.61</course>
  <speed>0.03605551275463989</speed>
  <fix>3d</fix>
</trkpt>
<trkpt lat="33.810313" lon="-118.393867">
  <ele>-0.12</ele>
  <time>2026-09-02T22:12:29Z</time>
  <course>0.0</course>
  <speed>0.0</speed>
  <fix>3d</fix>
</trkpt>
<trkpt lat="33.810313" lon="-118.393867">
  <ele>-0.117</ele>
  <time>2026-09-02T22:12:29Z</time>
  <course>187.61</course>
  <speed>0.03605551275463989</speed>
  <fix>3d</fix>
</trkpt>
<trkpt lat="33.810313" lon="-118.393867">
  <ele>-0.12</ele>
  <time>2026-09-02T22:12:29Z</time>
  <course>0.0</course>
  <speed>0.0</speed>
  <fix>3d</fix>
</trkpt>
<trkpt lat="33.810313" lon="-118.393867">
  <ele>-0.119</ele>
  <time>2026-09-02T22:12:29Z</time>
  <course>187.6</course>
  <speed>0.03605551275463989</speed>
  <fix>3d</fix>
</trkpt>
<trkpt lat="33.810313" lon="-118.393867">
  <ele>-0.12</ele>
  <time>2026-09-02T22:12:29Z</time>
  <course>0.0</course>
  <speed>0.0</speed>
  <fix>3d</fix>
</trkpt>
<trkpt lat="33.810313" lon="-118.393867">
  <ele>-0.121</ele>
  <time>2026-09-02T22:12:29Z</time>
  <course>187.59</course>
  <speed>0.03605551275463989</speed>
  <fix>3d</fix>
</trkpt>
<trkpt lat="33.810313" lon="-118.393867">
  <ele>-0.12</ele>
  <time>2026-09-02T22:12:29Z</time>
  <course>0.0</course>
  <speed>0.0</speed>
  <fix>3d</fix>
</trkpt>
<trkpt lat="33.810313" lon="-118.393867">
  <ele>-0.123</ele>
  <time>2026-09-02T22:12:29Z</time>
  <course>187.59</course>
  <speed>0.03605551275463989</speed>
  <fix>3d</fix>
</trkpt>
<trkpt lat="33.810313" lon="-118.393867">
  <ele>-0.12</ele>
  <time>2026-09-02T22:12:29Z</time>
  <course>0.0</course>
  <speed>0.0</speed>
  <fix>3d</fix>
</trkpt>
<trkpt lat="33.810313" lon="-118.393867">
  <ele>-0.125</ele>
  <time>2026-09-02T22:12:29Z</time>
  <course>187.58</course>
  <speed>0.03605551275463989</speed>
  <fix>3d</fix>
</trkpt>
<trkpt lat="33.810313" lon="-118.393867">
  <ele>-0.12</ele>
  <time>2026-09-02T22:12:29Z</time>
  <course>0.0</course>
  <speed>0.0</speed>
  <fix>3d</fix>
</trkpt>
<trkpt lat="33.810313" lon="-118.393867">
  <ele>-0.125</ele>
  <time>2026-09-02T22:12:29Z</time>
  <course>187.57</course>
  <speed>0.03605551275463989</speed>
  <fix>3d</fix>
</trkpt>
<trkpt lat="33.810313" lon="-118.393867">
  <ele>-0.12</ele>
  <time>2026-09-02T22:12:29Z</time>
  <course>0.0</course>
  <speed>0.0</speed>
  <fix>3d</fix>
</trkpt>
<trkpt lat="33.810313" lon="-118.393867">
  <ele>-0.123</ele>
  <time>2026-09-02T22:12:29Z</time>
  <course>187.57</course>
  <speed>0.03605551275463989</speed>
  <fix>3d</fix>
</trkpt>
<trkpt lat="33.810313" lon="-118.393867">
  <ele>-0.12</ele>
  <time>2026-09-02T22:12:29Z</time>
  <course>0.0</course>
  <speed>0.0</speed>
  <fix>3d</fix>
</trkpt>
<trkpt lat="33.810313" lon="-118.393867">
  <ele>-0.121</ele>
  <time>2026-09-02T22:12:30Z</time>
  <course>187.56</course>
  <speed>0.03605551275463989</speed>
  <fix>3d</fix>
</trkpt>
<trkpt lat="33.810313" lon="-118.393867">
  <ele>-0.12</ele>
  <time>2026-09-02T22:12:30Z</time>
  <course>0.0</course>
  <speed>0.0</speed>
  <fix>3d</fix>
</trkpt>
<trkpt lat="33.810313" lon="-118.393867">
  <ele>-0.12</ele>
  <time>2026-09-02T22:12:30Z</time>
  <course>187.55</course>
  <speed>0.03605551275463989</speed>
  <fix>3d</fix>
</trkpt>
<trkpt lat="33.810313" lon="-118.393867">
  <ele>-0.12</ele>
  <time>2026-09-02T22:12:30Z</time>
  <course>0.0</course>
  <speed>0.0</speed>
  <fix>3d</fix>
</trkpt>
<trkpt lat="33.810313" lon="-118.393867">
  <ele>-0.12</ele>
  <time>2026-09-02T22:12:30Z</time>
  <course>187.55</course>
  <speed>0.03605551275463989</speed>
  <fix>3d</fix>
</trkpt>
<trkpt lat="33.810313" lon="-118.393867">
  <ele>-0.12</ele>
  <time>2026-09-02T22:12:30Z</time>
  <course>0.0</course>
  <speed>0.0</speed>
  <fix>3d</fix>
</trkpt>
<trkpt lat="33.810313" lon="-118.393867">
  <ele>-0.121</ele>
  <time>2026-09-02T22:12:30Z</time>
  <course>187.54</course>
  <speed>0.03605551275463989</speed>
  <fix>3d</fix>
</trkpt>
<trkpt lat="33.810313" lon="-118.393867">
  <ele>-0.12</ele>
  <time>2026-09-02T22:12:30Z</time>
  <course>0.0</course>
  <speed>0.0</speed>
  <fix>3d</fix>
</trkpt>
<trkpt lat="33.810313" lon="-118.393867">
  <ele>-0.122</ele>
  <time>2026-09-02T22:12:30Z</time>
  <course>187.53</course>
  <speed>0.03605551275463989</speed>
  <fix>3d</fix>
</trkpt>
<trkpt lat="33.810313" lon="-118.393867">
  <ele>-0.12</ele>
  <time>2026-09-02T22:12:30Z</time>
  <course>0.0</course>
  <speed>0.0</speed>
  <fix>3d</fix>
</trkpt>
<trkpt lat="33.810313" lon="-118.393867">
  <ele>-0.124</ele>
  <time>2026-09-02T22:12:30Z</time>
  <course>187.53</course>
  <speed>0.03605551275463989</speed>
  <fix>3d</fix>
</trkpt>
<trkpt lat="33.810313" lon="-118.393867">
  <ele>-0.12</ele>
  <time>2026-09-02T22:12:30Z</time>
  <course>0.0</course>
  <speed>0.0</speed>
  <fix>3d</fix>
</trkpt>
<trkpt lat="33.810313" lon="-118.393867">
  <ele>-0.124</ele>
  <time>2026-09-02T22:12:30Z</time>
  <course>187.52</course>
  <speed>0.03605551275463989</speed>
  <fix>3d</fix>
</trkpt>
<trkpt lat="33.810313" lon="-118.393867">
  <ele>-0.12</ele>
  <time>2026-09-02T22:12:30Z</time>
  <course>0.0</course>
  <speed>0.0</speed>
  <fix>3d</fix>
</trkpt>
<trkpt lat="33.810313" lon="-118.393867">
  <ele>-0.123</ele>
  <time>2026-09-02T22:12:30Z</time>
  <course>187.51</course>
  <speed>0.03605551275463989</speed>
  <fix>3d</fix>
</trkpt>
<trkpt lat="33.810313" lon="-118.393867">
  <ele>-0.12</ele>
  <time>2026-09-02T22:12:30Z</time>
  <course>0.0</course>
  <speed>0.0</speed>
  <fix>3d</fix>
</trkpt>
<trkpt lat="33.810313" lon="-118.393867">
  <ele>-0.122</ele>
  <time>2026-09-02T22:12:30Z</time>
  <course>187.51</course>
  <speed>0.03605551275463989</speed>
  <fix>3d</fix>
</trkpt>
<trkpt lat="33.810313" lon="-118.393867">
  <ele>-0.12</ele>
  <time>2026-09-02T22:12:30Z</time>
  <course>0.0</course>
  <speed>0.0</speed>
  <fix>3d</fix>
</trkpt>
<trkpt lat="33.810313" lon="-118.393867">
  <ele>-0.119</ele>
  <time>2026-09-02T22:12:30Z</time>
  <course>187.5</course>
  <speed>0.03605551275463989</speed>
  <fix>3d</fix>
</trkpt>
<trkpt lat="33.810313" lon="-118.393867">
  <ele>-0.12</ele>
  <time>2026-09-02T22:12:30Z</time>
  <course>0.0</course>
  <speed>0.0</speed>
  <fix>3d</fix>
</trkpt>
<trkpt lat="33.810313" lon="-118.393867">
  <ele>-0.116</ele>
  <time>2026-09-02T22:12:30Z</time>
  <course>187.49</course>
  <speed>0.03605551275463989</speed>
  <fix>3d</fix>
</trkpt>
<trkpt lat="33.810313" lon="-118.393867">
  <ele>-0.12</ele>
  <time>2026-09-02T22:12:30Z</time>
  <course>0.0</course>
  <speed>0.0</speed>
  <fix>3d</fix>
</trkpt>
<trkpt lat="33.810313" lon="-118.393867">
  <ele>-0.113</ele>
  <time>2026-09-02T22:12:30Z</time>
  <course>187.49</course>
  <speed>0.03605551275463989</speed>
  <fix>3d</fix>
</trkpt>
<trkpt lat="33.810313" lon="-118.393867">
  <ele>-0.12</ele>
  <time>2026-09-02T22:12:30Z</time>
  <course>0.0</course>
  <speed>0.0</speed>
  <fix>3d</fix>
</trkpt>
<trkpt lat="33.810313" lon="-118.393867">
  <ele>-0.112</ele>
  <time>2026-09-02T22:12:30Z</time>
  <course>187.48</course>
  <speed>0.03605551275463989</speed>
  <fix>3d</fix>
</trkpt>
<trkpt lat="33.810313" lon="-118.393867">
  <ele>-0.12</ele>
  <time>2026-09-02T22:12:30Z</time>
  <course>0.0</course>
  <speed>0.0</speed>
  <fix>3d</fix>
</trkpt>
<trkpt lat="33.810313" lon="-118.393867">
  <ele>-0.112</ele>
  <time>2026-09-02T22:12:30Z</time>
  <course>187.47</course>
  <speed>0.03605551275463989</speed>
  <fix>3d</fix>
</trkpt>
<trkpt lat="33.810313" lon="-118.393867">
  <ele>-0.12</ele>
  <time>2026-09-02T22:12:30Z</time>
  <course>0.0</course>
  <speed>0.0</speed>
  <fix>3d</fix>
</trkpt>
<trkpt lat="33.810313" lon="-118.393867">
  <ele>-0.113</ele>
  <time>2026-09-02T22:12:30Z</time>
  <course>187.47</course>
  <speed>0.03605551275463989</speed>
  <fix>3d</fix>
</trkpt>
<trkpt lat="33.810313" lon="-118.393867">
  <ele>-0.12</ele>
  <time>2026-09-02T22:12:30Z</time>
  <course>0.0</course>
  <speed>0.0</speed>
  <fix>3d</fix>
</trkpt>
<trkpt lat="33.810313" lon="-118.393867">
  <ele>-0.115</ele>
  <time>2026-09-02T22:12:30Z</time>
  <course>187.46</course>
  <speed>0.03605551275463989</speed>
  <fix>3d</fix>
</trkpt>
<trkpt lat="33.810313" lon="-118.393867">
  <ele>-0.12</ele>
  <time>2026-09-02T22:12:30Z</time>
  <course>0.0</course>
  <speed>0.0</speed>
  <fix>3d</fix>
</trkpt>
<trkpt lat="33.810313" lon="-118.393867">
  <ele>-0.117</ele>
  <time>2026-09-02T22:12:30Z</time>
  <course>187.46</course>
  <speed>0.03605551275463989</speed>
  <fix>3d</fix>
</trkpt>
<trkpt lat="33.810313" lon="-118.393867">
  <ele>-0.12</ele>
  <time>2026-09-02T22:12:30Z</time>
  <course>0.0</course>
  <speed>0.0</speed>
  <fix>3d</fix>
</trkpt>
<trkpt lat="33.810313" lon="-118.393867">
  <ele>-0.119</ele>
  <time>2026-09-02T22:12:30Z</time>
  <course>187.45</course>
  <speed>0.03605551275463989</speed>
  <fix>3d</fix>
</trkpt>
<trkpt lat="33.810313" lon="-118.393867">
  <ele>-0.12</ele>
  <time>2026-09-02T22:12:30Z</time>
  <course>0.0</course>
  <speed>0.0</speed>
  <fix>3d</fix>
</trkpt>
<trkpt lat="33.810313" lon="-118.393867">
  <ele>-0.119</ele>
  <time>2026-09-02T22:12:30Z</time>
  <course>187.44</course>
  <speed>0.03605551275463989</speed>
  <fix>3d</fix>
</trkpt>
<trkpt lat="33.810313" lon="-118.393867">
  <ele>-0.12</ele>
  <time>2026-09-02T22:12:30Z</time>
  <course>0.0</course>
  <speed>0.0</speed>
  <fix>3d</fix>
</trkpt>
<trkpt lat="33.810313" lon="-118.393867">
  <ele>-0.12</ele>
  <time>2026-09-02T22:12:30Z</time>
  <course>187.44</course>
  <speed>0.03605551275463989</speed>
  <fix>3d</fix>
</trkpt>
<trkpt lat="33.810313" lon="-118.393867">
  <ele>-0.12</ele>
  <time>2026-09-02T22:12:30Z</time>
  <course>0.0</course>
  <speed>0.0</speed>
  <fix>3d</fix>
</trkpt>
<trkpt lat="33.810313" lon="-118.393867">
  <ele>-0.12</ele>
  <time>2026-09-02T22:12:30Z</time>
  <course>187.43</course>
  <speed>0.03605551275463989</speed>
  <fix>3d</fix>
</trkpt>
<trkpt lat="33.810313" lon="-118.393867">
  <ele>-0.12</ele>
  <time>2026-09-02T22:12:30Z</time>
  <course>0.0</course>
  <speed>0.0</speed>
  <fix>3d</fix>
</trkpt>
<trkpt lat="33.810313" lon="-118.393867">
  <ele>-0.119</ele>
  <time>2026-09-02T22:12:30Z</time>
  <course>187.42</course>
  <speed>0.03605551275463989</speed>
  <fix>3d</fix>
</trkpt>
<trkpt lat="33.810313" lon="-118.393867">
  <ele>-0.12</ele>
  <time>2026-09-02T22:12:30Z</time>
  <course>0.0</course>
  <speed>0.0</speed>
  <fix>3d</fix>
</trkpt>
<trkpt lat="33.810313" lon="-118.393867">
  <ele>-0.119</ele>
  <time>2026-09-02T22:12:30Z</time>
  <course>187.42</course>
  <speed>0.03605551275463989</speed>
  <fix>3d</fix>
</trkpt>
<trkpt lat="33.810313" lon="-118.393867">
  <ele>-0.12</ele>
  <time>2026-09-02T22:12:30Z</time>
  <course>0.0</course>
  <speed>0.0</speed>
  <fix>3d</fix>
</trkpt>
<trkpt lat="33.810313" lon="-118.393867">
  <ele>-0.119</ele>
  <time>2026-09-02T22:12:30Z</time>
  <course>187.41</course>
  <speed>0.03605551275463989</speed>
  <fix>3d</fix>
</trkpt>
<trkpt lat="33.810313" lon="-118.393867">
  <ele>-0.12</ele>
  <time>2026-09-02T22:12:30Z</time>
  <course>0.0</course>
  <speed>0.0</speed>
  <fix>3d</fix>
</trkpt>
<trkpt lat="33.810313" lon="-118.393867">
  <ele>-0.12</ele>
  <time>2026-09-02T22:12:30Z</time>
  <course>187.41</course>
  <speed>0.03605551275463989</speed>
  <fix>3d</fix>
</trkpt>
<trkpt lat="33.810313" lon="-118.393867">
  <ele>-0.12</ele>
  <time>2026-09-02T22:12:30Z</time>
  <course>0.0</course>
  <speed>0.0</speed>
  <fix>3d</fix>
</trkpt>
<trkpt lat="33.810313" lon="-118.393867">
  <ele>-0.12</ele>
  <time>2026-09-02T22:12:30Z</time>
  <course>187.4</course>
  <speed>0.03605551275463989</speed>
  <fix>3d</fix>
</trkpt>
<trkpt lat="33.810313" lon="-118.393867">
  <ele>-0.12</ele>
  <time>2026-09-02T22:12:30Z</time>
  <course>0.0</course>
  <speed>0.0</speed>
  <fix>3d</fix>
</trkpt>
<trkpt lat="33.810313" lon="-118.393867">
  <ele>-0.122</ele>
  <time>2026-09-02T22:12:30Z</time>
  <course>187.39</course>
  <speed>0.03605551275463989</speed>
  <fix>3d</fix>
</trkpt>
<trkpt lat="33.810313" lon="-118.393867">
  <ele>-0.12</ele>
  <time>2026-09-02T22:12:30Z</time>
  <course>0.0</course>
  <speed>0.0</speed>
  <fix>3d</fix>
</trkpt>
<trkpt lat="33.810313" lon="-118.393867">
  <ele>-0.123</ele>
  <time>2026-09-02T22:12:30Z</time>
  <course>187.39</course>
  <speed>0.03605551275463989</speed>
  <fix>3d</fix>
</trkpt>
<trkpt lat="33.810313" lon="-118.393867">
  <ele>-0.12</ele>
  <time>2026-09-02T22:12:30Z</time>
  <course>0.0</course>
  <speed>0.0</speed>
  <fix>3d</fix>
</trkpt>
<trkpt lat="33.810313" lon="-118.393867">
  <ele>-0.124</ele>
  <time>2026-09-02T22:12:30Z</time>
  <course>187.38</course>
  <speed>0.03605551275463989</speed>
  <fix>3d</fix>
</trkpt>
<trkpt lat="33.810313" lon="-118.393867">
  <ele>-0.12</ele>
  <time>2026-09-02T22:12:30Z</time>
  <course>0.0</course>
  <speed>0.0</speed>
  <fix>3d</fix>
</trkpt>
<trkpt lat="33.810313" lon="-118.393867">
  <ele>-0.125</ele>
  <time>2026-09-02T22:12:30Z</time>
  <course>187.38</course>
  <speed>0.03605551275463989</speed>
  <fix>3d</fix>
</trkpt>
<trkpt lat="33.810313" lon="-118.393867">
  <ele>-0.12</ele>
  <time>2026-09-02T22:12:30Z</time>
  <course>0.0</course>
  <speed>0.0</speed>
  <fix>3d</fix>
</trkpt>
<trkpt lat="33.810313" lon="-118.393867">
  <ele>-0.125</ele>
  <time>2026-09-02T22:12:30Z</time>
  <course>187.37</course>
  <speed>0.03605551275463989</speed>
  <fix>3d</fix>
</trkpt>
<trkpt lat="33.810313" lon="-118.393867">
  <ele>-0.12</ele>
  <time>2026-09-02T22:12:30Z</time>
  <course>0.0</course>
  <speed>0.0</speed>
  <fix>3d</fix>
</trkpt>
<trkpt lat="33.810313" lon="-118.393867">
  <ele>-0.125</ele>
  <time>2026-09-02T22:12:30Z</time>
  <course>187.36</course>
  <speed>0.03605551275463989</speed>
  <fix>3d</fix>
</trkpt>
<trkpt lat="33.810313" lon="-118.393867">
  <ele>-0.12</ele>
  <time>2026-09-02T22:12:30Z</time>
  <course>0.0</course>
  <speed>0.0</speed>
  <fix>3d</fix>
</trkpt>
<trkpt lat="33.810313" lon="-118.393867">
  <ele>-0.125</ele>
  <time>2026-09-02T22:12:30Z</time>
  <course>187.36</course>
  <speed>0.03605551275463989</speed>
  <fix>3d</fix>
</trkpt>
<trkpt lat="33.810313" lon="-118.393867">
  <ele>-0.12</ele>
  <time>2026-09-02T22:12:30Z</time>
  <course>0.0</course>
  <speed>0.0</speed>
  <fix>3d</fix>
</trkpt>
<trkpt lat="33.810313" lon="-118.393867">
  <ele>-0.125</ele>
  <time>2026-09-02T22:12:30Z</time>
  <course>187.35</course>
  <speed>0.03605551275463989</speed>
  <fix>3d</fix>
</trkpt>
<trkpt lat="33.810313" lon="-118.393867">
  <ele>-0.12</ele>
  <time>2026-09-02T22:12:30Z</time>
  <course>0.0</course>
  <speed>0.0</speed>
  <fix>3d</fix>
</trkpt>
<trkpt lat="33.810313" lon="-118.393867">
  <ele>-0.124</ele>
  <time>2026-09-02T22:12:30Z</time>
  <course>187.35</course>
  <speed>0.03605551275463989</speed>
  <fix>3d</fix>
</trkpt>
<trkpt lat="33.810313" lon="-118.393867">
  <ele>-0.12</ele>
  <time>2026-09-02T22:12:30Z</time>
  <course>0.0</course>
  <speed>0.0</speed>
  <fix>3d</fix>
</trkpt>
<trkpt lat="33.810313" lon="-118.393867">
  <ele>-0.125</ele>
  <time>2026-09-02T22:12:30Z</time>
  <course>187.34</course>
  <speed>0.03605551275463989</speed>
  <fix>3d</fix>
</trkpt>
<trkpt lat="33.810313" lon="-118.393867">
  <ele>-0.12</ele>
  <time>2026-09-02T22:12:30Z</time>
  <course>0.0</course>
  <speed>0.0</speed>
  <fix>3d</fix>
</trkpt>
<trkpt lat="33.810313" lon="-118.393867">
  <ele>-0.125</ele>
  <time>2026-09-02T22:12:30Z</time>
  <course>187.33</course>
  <speed>0.03605551275463989</speed>
  <fix>3d</fix>
</trkpt>
<trkpt lat="33.810313" lon="-118.393867">
  <ele>-0.12</ele>
  <time>2026-09-02T22:12:30Z</time>
  <course>0.0</course>
  <speed>0.0</speed>
  <fix>3d</fix>
</trkpt>
<trkpt lat="33.810313" lon="-118.393867">
  <ele>-0.126</ele>
  <time>2026-09-02T22:12:30Z</time>
  <course>187.33</course>
  <speed>0.03605551275463989</speed>
  <fix>3d</fix>
</trkpt>
<trkpt lat="33.810313" lon="-118.393867">
  <ele>-0.12</ele>
  <time>2026-09-02T22:12:30Z</time>
  <course>0.0</course>
  <speed>0.0</speed>
  <fix>3d</fix>
</trkpt>
<trkpt lat="33.810313" lon="-118.393867">
  <ele>-0.125</ele>
  <time>2026-09-02T22:12:30Z</time>
  <course>187.32</course>
  <speed>0.03605551275463989</speed>
  <fix>3d</fix>
</trkpt>
<trkpt lat="33.810313" lon="-118.393867">
  <ele>-0.12</ele>
  <time>2026-09-02T22:12:30Z</time>
  <course>0.0</course>
  <speed>0.0</speed>
  <fix>3d</fix>
</trkpt>
<trkpt lat="33.810313" lon="-118.393867">
  <ele>-0.125</ele>
  <time>2026-09-02T22:12:30Z</time>
  <course>187.32</course>
  <speed>0.03605551275463989</speed>
  <fix>3d</fix>
</trkpt>
<trkpt lat="33.810313" lon="-118.393867">
  <ele>-0.12</ele>
  <time>2026-09-02T22:12:30Z</time>
  <course>0.0</course>
  <speed>0.0</speed>
  <fix>3d</fix>
</trkpt>
<trkpt lat="33.810313" lon="-118.393867">
  <ele>-0.124</ele>
  <time>2026-09-02T22:12:30Z</time>
  <course>187.31</course>
  <speed>0.03605551275463989</speed>
  <fix>3d</fix>
</trkpt>
<trkpt lat="33.810313" lon="-118.393867">
  <ele>-0.12</ele>
  <time>2026-09-02T22:12:30Z</time>
  <course>0.0</course>
  <speed>0.0</speed>
  <fix>3d</fix>
</trkpt>
<trkpt lat="33.810313" lon="-118.393867">
  <ele>-0.123</ele>
  <time>2026-09-02T22:12:30Z</time>
  <course>187.31</course>
  <speed>0.03605551275463989</speed>
  <fix>3d</fix>
</trkpt>
<trkpt lat="33.810313" lon="-118.393867">
  <ele>-0.12</ele>
  <time>2026-09-02T22:12:30Z</time>
  <course>0.0</course>
  <speed>0.0</speed>
  <fix>3d</fix>
</trkpt>
<trkpt lat="33.810313" lon="-118.393867">
  <ele>-0.122</ele>
  <time>2026-09-02T22:12:30Z</time>
  <course>187.3</course>
  <speed>0.03605551275463989</speed>
  <fix>3d</fix>
</trkpt>
<trkpt lat="33.810313" lon="-118.393867">
  <ele>-0.12</ele>
  <time>2026-09-02T22:12:30Z</time>
  <course>0.0</course>
  <speed>0.0</speed>
  <fix>3d</fix>
</trkpt>
<trkpt lat="33.810313" lon="-118.393867">
  <ele>-0.121</ele>
  <time>2026-09-02T22:12:30Z</time>
  <course>187.29</course>
  <speed>0.03605551275463989</speed>
  <fix>3d</fix>
</trkpt>
<trkpt lat="33.810313" lon="-118.393867">
  <ele>-0.12</ele>
  <time>2026-09-02T22:12:30Z</time>
  <course>0.0</course>
  <speed>0.0</speed>
  <fix>3d</fix>
</trkpt>
<trkpt lat="33.810313" lon="-118.393867">
  <ele>-0.12</ele>
  <time>2026-09-02T22:12:30Z</time>
  <course>187.29</course>
  <speed>0.03605551275463989</speed>
  <fix>3d</fix>
</trkpt>
<trkpt lat="33.810313" lon="-118.393867">
  <ele>-0.12</ele>
  <time>2026-09-02T22:12:30Z</time>
  <course>0.0</course>
  <speed>0.0</speed>
  <fix>3d</fix>
</trkpt>
<trkpt lat="33.810313" lon="-118.393867">
  <ele>-0.121</ele>
  <time>2026-09-02T22:12:30Z</time>
  <course>187.28</course>
  <speed>0.03605551275463989</speed>
  <fix>3d</fix>
</trkpt>
<trkpt lat="33.810313" lon="-118.393867">
  <ele>-0.12</ele>
  <time>2026-09-02T22:12:30Z</time>
  <course>0.0</course>
  <speed>0.0</speed>
  <fix>3d</fix>
</trkpt>
<trkpt lat="33.810313" lon="-118.393867">
  <ele>-0.122</ele>
  <time>2026-09-02T22:12:30Z</time>
  <course>187.28</course>
  <speed>0.03605551275463989</speed>
  <fix>3d</fix>
</trkpt>
<trkpt lat="33.810313" lon="-118.393867">
  <ele>-0.12</ele>
  <time>2026-09-02T22:12:30Z</time>
  <course>0.0</course>
  <speed>0.0</speed>
  <fix>3d</fix>
</trkpt>
<trkpt lat="33.810313" lon="-118.393867">
  <ele>-0.123</ele>
  <time>2026-09-02T22:12:30Z</time>
  <course>187.27</course>
  <speed>0.03605551275463989</speed>
  <fix>3d</fix>
</trkpt>
<trkpt lat="33.810313" lon="-118.393867">
  <ele>-0.12</ele>
  <time>2026-09-02T22:12:30Z</time>
  <course>0.0</course>
  <speed>0.0</speed>
  <fix>3d</fix>
</trkpt>
<trkpt lat="33.810313" lon="-118.393867">
  <ele>-0.125</ele>
  <time>2026-09-02T22:12:30Z</time>
  <course>187.27</course>
  <speed>0.03605551275463989</speed>
  <fix>3d</fix>
</trkpt>
<trkpt lat="33.810313" lon="-118.393867">
  <ele>-0.12</ele>
  <time>2026-09-02T22:12:30Z</time>
  <course>0.0</course>
  <speed>0.0</speed>
  <fix>3d</fix>
</trkpt>
<trkpt lat="33.810313" lon="-118.393867">
  <ele>-0.126</ele>
  <time>2026-09-02T22:12:30Z</time>
  <course>187.26</course>
  <speed>0.03605551275463989</speed>
  <fix>3d</fix>
</trkpt>
<trkpt lat="33.810313" lon="-118.393867">
  <ele>-0.12</ele>
  <time>2026-09-02T22:12:30Z</time>
  <course>0.0</course>
  <speed>0.0</speed>
  <fix>3d</fix>
</trkpt>
<trkpt lat="33.810313" lon="-118.393867">
  <ele>-0.126</ele>
  <time>2026-09-02T22:12:30Z</time>
  <course>187.26</course>
  <speed>0.03605551275463989</speed>
  <fix>3d</fix>
</trkpt>
<trkpt lat="33.810313" lon="-118.393867">
  <ele>-0.12</ele>
  <time>2026-09-02T22:12:30Z</time>
  <course>0.0</course>
  <speed>0.0</speed>
  <fix>3d</fix>
</trkpt>
<trkpt lat="33.810313" lon="-118.393867">
  <ele>-0.125</ele>
  <time>2026-09-02T22:12:30Z</time>
  <course>187.25</course>
  <speed>0.03605551275463989</speed>
  <fix>3d</fix>
</trkpt>
<trkpt lat="33.810313" lon="-118.393867">
  <ele>-0.12</ele>
  <time>2026-09-02T22:12:30Z</time>
  <course>0.0</course>
  <speed>0.0</speed>
  <fix>3d</fix>
</trkpt>
<trkpt lat="33.810313" lon="-118.393867">
  <ele>-0.124</ele>
  <time>2026-09-02T22:12:30Z</time>
  <course>187.25</course>
  <speed>0.03605551275463989</speed>
  <fix>3d</fix>
</trkpt>
<trkpt lat="33.810313" lon="-118.393867">
  <ele>-0.12</ele>
  <time>2026-09-02T22:12:30Z</time>
  <course>0.0</course>
  <speed>0.0</speed>
  <fix>3d</fix>
</trkpt>
<trkpt lat="33.810313" lon="-118.393867">
  <ele>-0.122</ele>
  <time>2026-09-02T22:12:30Z</time>
  <course>187.24</course>
  <speed>0.03605551275463989</speed>
  <fix>3d</fix>
</trkpt>
<trkpt lat="33.810313" lon="-118.393867">
  <ele>-0.12</ele>
  <time>2026-09-02T22:12:30Z</time>
  <course>0.0</course>
  <speed>0.0</speed>
  <fix>3d</fix>
</trkpt>
<trkpt lat="33.810313" lon="-118.393867">
  <ele>-0.12</ele>
  <time>2026-09-02T22:12:30Z</time>
  <course>187.23</course>
  <speed>0.03605551275463989</speed>
  <fix>3d</fix>
</trkpt>
<trkpt lat="33.810313" lon="-118.393867">
  <ele>-0.12</ele>
  <time>2026-09-02T22:12:30Z</time>
  <course>0.0</course>
  <speed>0.0</speed>
  <fix>3d</fix>
</trkpt>
<trkpt lat="33.810313" lon="-118.393867">
  <ele>-0.119</ele>
  <time>2026-09-02T22:12:30Z</time>
  <course>187.23</course>
  <speed>0.03605551275463989</speed>
  <fix>3d</fix>
</trkpt>
<trkpt lat="33.810313" lon="-118.393867">
  <ele>-0.12</ele>
  <time>2026-09-02T22:12:30Z</time>
  <course>0.0</course>
  <speed>0.0</speed>
  <fix>3d</fix>
</trkpt>
<trkpt lat="33.810313" lon="-118.393867">
  <ele>-0.118</ele>
  <time>2026-09-02T22:12:30Z</time>
  <course>187.22</course>
  <speed>0.03605551275463989</speed>
  <fix>3d</fix>
</trkpt>
<trkpt lat="33.810313" lon="-118.393867">
  <ele>-0.12</ele>
  <time>2026-09-02T22:12:30Z</time>
  <course>0.0</course>
  <speed>0.0</speed>
  <fix>3d</fix>
</trkpt>
<trkpt lat="33.810313" lon="-118.393867">
  <ele>-0.118</ele>
  <time>2026-09-02T22:12:30Z</time>
  <course>187.22</course>
  <speed>0.03605551275463989</speed>
  <fix>3d</fix>
</trkpt>
<trkpt lat="33.810313" lon="-118.393867">
  <ele>-0.12</ele>
  <time>2026-09-02T22:12:30Z</time>
  <course>0.0</course>
  <speed>0.0</speed>
  <fix>3d</fix>
</trkpt>
<trkpt lat="33.810313" lon="-118.393867">
  <ele>-0.118</ele>
  <time>2026-09-02T22:12:30Z</time>
  <course>187.21</course>
  <speed>0.03605551275463989</speed>
  <fix>3d</fix>
</trkpt>
<trkpt lat="33.810313" lon="-118.393867">
  <ele>-0.12</ele>
  <time>2026-09-02T22:12:30Z</time>
  <course>0.0</course>
  <speed>0.0</speed>
  <fix>3d</fix>
</trkpt>
<trkpt lat="33.810313" lon="-118.393867">
  <ele>-0.118</ele>
  <time>2026-09-02T22:12:30Z</time>
  <course>187.21</course>
  <speed>0.03605551275463989</speed>
  <fix>3d</fix>
</trkpt>
<trkpt lat="33.810313" lon="-118.393867">
  <ele>-0.12</ele>
  <time>2026-09-02T22:12:30Z</time>
  <course>0.0</course>
  <speed>0.0</speed>
  <fix>3d</fix>
</trkpt>
<trkpt lat="33.810313" lon="-118.393867">
  <ele>-0.116</ele>
  <time>2026-09-02T22:12:30Z</time>
  <course>187.2</course>
  <speed>0.03605551275463989</speed>
  <fix>3d</fix>
</trkpt>
<trkpt lat="33.810313" lon="-118.393867">
  <ele>-0.12</ele>
  <time>2026-09-02T22:12:30Z</time>
  <course>0.0</course>
  <speed>0.0</speed>
  <fix>3d</fix>
</trkpt>
<trkpt lat="33.810313" lon="-118.393867">
  <ele>-0.114</ele>
  <time>2026-09-02T22:12:30Z</time>
  <course>187.2</course>
  <speed>0.03605551275463989</speed>
  <fix>3d</fix>
</trkpt>
<trkpt lat="33.810313" lon="-118.393867">
  <ele>-0.12</ele>
  <time>2026-09-02T22:12:30Z</time>
  <course>0.0</course>
  <speed>0.0</speed>
  <fix>3d</fix>
</trkpt>
<trkpt lat="33.810313" lon="-118.393867">
  <ele>-0.111</ele>
  <time>2026-09-02T22:12:30Z</time>
  <course>187.19</course>
  <speed>0.03605551275463989</speed>
  <fix>3d</fix>
</trkpt>
<trkpt lat="33.810313" lon="-118.393867">
  <ele>-0.12</ele>
  <time>2026-09-02T22:12:30Z</time>
  <course>0.0</course>
  <speed>0.0</speed>
  <fix>3d</fix>
</trkpt>
<trkpt lat="33.810313" lon="-118.393867">
  <ele>-0.109</ele>
  <time>2026-09-02T22:12:30Z</time>
  <course>187.19</course>
  <speed>0.03605551275463989</speed>
  <fix>3d</fix>
</trkpt>
<trkpt lat="33.810313" lon="-118.393867">
  <ele>-0.12</ele>
  <time>2026-09-02T22:12:30Z</time>
  <course>0.0</course>
  <speed>0.0</speed>
  <fix>3d</fix>
</trkpt>
<trkpt lat="33.810313" lon="-118.393867">
  <ele>-0.108</ele>
  <time>2026-09-02T22:12:30Z</time>
  <course>187.18</course>
  <speed>0.03605551275463989</speed>
  <fix>3d</fix>
</trkpt>
<trkpt lat="33.810313" lon="-118.393867">
  <ele>-0.12</ele>
  <time>2026-09-02T22:12:30Z</time>
  <course>0.0</course>
  <speed>0.0</speed>
  <fix>3d</fix>
</trkpt>
<trkpt lat="33.810313" lon="-118.393867">
  <ele>-0.11</ele>
  <time>2026-09-02T22:12:30Z</time>
  <course>187.18</course>
  <speed>0.03605551275463989</speed>
  <fix>3d</fix>
</trkpt>
<trkpt lat="33.810313" lon="-118.393867">
  <ele>-0.12</ele>
  <time>2026-09-02T22:12:30Z</time>
  <course>0.0</course>
  <speed>0.0</speed>
  <fix>3d</fix>
</trkpt>
<trkpt lat="33.810313" lon="-118.393867">
  <ele>-0.112</ele>
  <time>2026-09-02T22:12:30Z</time>
  <course>187.17</course>
  <speed>0.03605551275463989</speed>
  <fix>3d</fix>
</trkpt>
<trkpt lat="33.810313" lon="-118.393867">
  <ele>-0.12</ele>
  <time>2026-09-02T22:12:30Z</time>
  <course>0.0</course>
  <speed>0.0</speed>
  <fix>3d</fix>
</trkpt>
<trkpt lat="33.810313" lon="-118.393867">
  <ele>-0.114</ele>
  <time>2026-09-02T22:12:30Z</time>
  <course>187.17</course>
  <speed>0.0</speed>
  <fix>3d</fix>
</trkpt>
<trkpt lat="33.810313" lon="-118.393867">
  <ele>-0.12</ele>
  <time>2026-09-02T22:12:30Z</time>
  <course>0.0</course>
  <speed>0.0</speed>
  <fix>3d</fix>
</trkpt>
<trkpt lat="33.810313" lon="-118.393867">
  <ele>-0.116</ele>
  <time>2026-09-02T22:12:30Z</time>
  <course>187.16</course>
  <speed>0.0</speed>
  <fix>3d</fix>
</trkpt>
<trkpt lat="33.810313" lon="-118.393867">
  <ele>-0.12</ele>
  <time>2026-09-02T22:12:30Z</time>
  <course>0.0</course>
  <speed>0.0</speed>
  <fix>3d</fix>
</trkpt>
<trkpt lat="33.810313" lon="-118.393867">
  <ele>-0.118</ele>
  <time>2026-09-02T22:12:30Z</time>
  <course>187.16</course>
  <speed>0.0</speed>
  <fix>3d</fix>
</trkpt>
<trkpt lat="33.810313" lon="-118.393867">
  <ele>-0.12</ele>
  <time>2026-09-02T22:12:30Z</time>
  <course>0.0</course>
  <speed>0.0</speed>
  <fix>3d</fix>
</trkpt>
<trkpt lat="33.810313" lon="-118.393867">
  <ele>-0.119</ele>
  <time>2026-09-02T22:12:30Z</time>
  <course>187.15</course>
  <speed>0.0</speed>
  <fix>3d</fix>
</trkpt>
<trkpt lat="33.810313" lon="-118.393867">
  <ele>-0.12</ele>
  <time>2026-09-02T22:12:30Z</time>
  <course>0.0</course>
  <speed>0.0</speed>
  <fix>3d</fix>
</trkpt>
<trkpt lat="33.810313" lon="-118.393867">
  <ele>-0.12</ele>
  <time>2026-09-02T22:12:30Z</time>
  <course>187.15</course>
  <speed>0.0</speed>
  <fix>3d</fix>
</trkpt>
<trkpt lat="33.810313" lon="-118.393867">
  <ele>-0.12</ele>
  <time>2026-09-02T22:12:30Z</time>
  <course>0.0</course>
  <speed>0.0</speed>
  <fix>3d</fix>
</trkpt>
<trkpt lat="33.810313" lon="-118.393867">
  <ele>-0.12</ele>
  <time>2026-09-02T22:12:30Z</time>
  <course>187.14</course>
  <speed>0.0</speed>
  <fix>3d</fix>
</trkpt>
<trkpt lat="33.810313" lon="-118.393867">
  <ele>-0.12</ele>
  <time>2026-09-02T22:12:30Z</time>
  <course>0.0</course>
  <speed>0.0</speed>
  <fix>3d</fix>
</trkpt>
<trkpt lat="33.810313" lon="-118.393867">
  <ele>-0.12</ele>
  <time>2026-09-02T22:12:30Z</time>
  <course>187.14</course>
  <speed>0.0</speed>
  <fix>3d</fix>
</trkpt>
<trkpt lat="33.810313" lon="-118.393867">
  <ele>-0.12</ele>
  <time>2026-09-02T22:12:30Z</time>
  <course>0.0</course>
  <speed>0.0</speed>
  <fix>3d</fix>
</trkpt>
<trkpt lat="33.810313" lon="-118.393867">
  <ele>-0.12</ele>
  <time>2026-09-02T22:12:30Z</time>
  <course>187.13</course>
  <speed>0.0</speed>
  <fix>3d</fix>
</trkpt>
<trkpt lat="33.810313" lon="-118.393867">
  <ele>-0.12</ele>
  <time>2026-09-02T22:12:30Z</time>
  <course>0.0</course>
  <speed>0.0</speed>
  <fix>3d</fix>
</trkpt>
<trkpt lat="33.810313" lon="-118.393867">
  <ele>-0.121</ele>
  <time>2026-09-02T22:12:30Z</time>
  <course>187.13</course>
  <speed>0.0</speed>
  <fix>3d</fix>
</trkpt>
<trkpt lat="33.810313" lon="-118.393867">
  <ele>-0.12</ele>
  <time>2026-09-02T22:12:30Z</time>
  <course>0.0</course>
  <speed>0.0</speed>
  <fix>3d</fix>
</trkpt>
<trkpt lat="33.810313" lon="-118.393867">
  <ele>-0.123</ele>
  <time>2026-09-02T22:12:30Z</time>
  <course>187.12</course>
  <speed>0.0</speed>
  <fix>3d</fix>
</trkpt>
<trkpt lat="33.810313" lon="-118.393867">
  <ele>-0.12</ele>
  <time>2026-09-02T22:12:30Z</time>
  <course>0.0</course>
  <speed>0.0</speed>
  <fix>3d</fix>
</trkpt>
<trkpt lat="33.810313" lon="-118.393867">
  <ele>-0.125</ele>
  <time>2026-09-02T22:12:30Z</time>
  <course>187.12</course>
  <speed>0.0</speed>
  <fix>3d</fix>
</trkpt>
<trkpt lat="33.810313" lon="-118.393867">
  <ele>-0.12</ele>
  <time>2026-09-02T22:12:30Z</time>
  <course>0.0</course>
  <speed>0.0</speed>
  <fix>3d</fix>
</trkpt>
<trkpt lat="33.810313" lon="-118.393867">
  <ele>-0.127</ele>
  <time>2026-09-02T22:12:30Z</time>
  <course>187.11</course>
  <speed>0.01</speed>
  <fix>3d</fix>
</trkpt>
<trkpt lat="33.810313" lon="-118.393867">
  <ele>-0.12</ele>
  <time>2026-09-02T22:12:30Z</time>
  <course>0.0</course>
  <speed>0.0</speed>
  <fix>3d</fix>
</trkpt>
<trkpt lat="33.810313" lon="-118.393867">
  <ele>-0.129</ele>
  <time>2026-09-02T22:12:30Z</time>
  <course>187.11</course>
  <speed>0.01</speed>
  <fix>3d</fix>
</trkpt>
<trkpt lat="33.810313" lon="-118.393867">
  <ele>-0.12</ele>
  <time>2026-09-02T22:12:30Z</time>
  <course>0.0</course>
  <speed>0.0</speed>
  <fix>3d</fix>
</trkpt>
<trkpt lat="33.810313" lon="-118.393867">
  <ele>-0.131</ele>
  <time>2026-09-02T22:12:30Z</time>
  <course>187.1</course>
  <speed>0.01</speed>
  <fix>3d</fix>
</trkpt>
<trkpt lat="33.810313" lon="-118.393867">
  <ele>-0.12</ele>
  <time>2026-09-02T22:12:30Z</time>
  <course>0.0</course>
  <speed>0.0</speed>
  <fix>3d</fix>
</trkpt>
<trkpt lat="33.810313" lon="-118.393867">
  <ele>-0.131</ele>
  <time>2026-09-02T22:12:30Z</time>
  <course>187.1</course>
  <speed>0.01414213562373095</speed>
  <fix>3d</fix>
</trkpt>
<trkpt lat="33.810313" lon="-118.393867">
  <ele>-0.12</ele>
  <time>2026-09-02T22:12:30Z</time>
  <course>0.0</course>
  <speed>0.0</speed>
  <fix>3d</fix>
</trkpt>
<trkpt lat="33.810313" lon="-118.393867">
  <ele>-0.13</ele>
  <time>2026-09-02T22:12:30Z</time>
  <course>187.09</course>
  <speed>0.01414213562373095</speed>
  <fix>3d</fix>
</trkpt>
<trkpt lat="33.810313" lon="-118.393867">
  <ele>-0.12</ele>
  <time>2026-09-02T22:12:30Z</time>
  <course>0.0</course>
  <speed>0.0</speed>
  <fix>3d</fix>
</trkpt>
<trkpt lat="33.810313" lon="-118.393867">
  <ele>-0.129</ele>
  <time>2026-09-02T22:12:30Z</time>
  <course>187.09</course>
  <speed>0.01414213562373095</speed>
  <fix>3d</fix>
</trkpt>
<trkpt lat="33.810313" lon="-118.393867">
  <ele>-0.12</ele>
  <time>2026-09-02T22:12:30Z</time>
  <course>0.0</course>
  <speed>0.0</speed>
  <fix>3d</fix>
</trkpt>
<trkpt lat="33.810313" lon="-118.393867">
  <ele>-0.127</ele>
  <time>2026-09-02T22:12:30Z</time>
  <course>187.08</course>
  <speed>0.01414213562373095</speed>
  <fix>3d</fix>
</trkpt>
<trkpt lat="33.810313" lon="-118.393867">
  <ele>-0.12</ele>
  <time>2026-09-02T22:12:30Z</time>
  <course>0.0</course>
  <speed>0.0</speed>
  <fix>3d</fix>
</trkpt>
<trkpt lat="33.810313" lon="-118.393867">
  <ele>-0.126</ele>
  <time>2026-09-02T22:12:30Z</time>
  <course>187.08</course>
  <speed>0.01414213562373095</speed>
  <fix>3d</fix>
</trkpt>
<trkpt lat="33.810313" lon="-118.393867">
  <ele>-0.12</ele>
  <time>2026-09-02T22:12:30Z</time>
  <course>0.0</course>
  <speed>0.0</speed>
  <fix>3d</fix>
</trkpt>
<trkpt lat="33.810313" lon="-118.393867">
  <ele>-0.125</ele>
  <time>2026-09-02T22:12:30Z</time>
  <course>187.07</course>
  <speed>0.01414213562373095</speed>
  <fix>3d</fix>
</trkpt>
<trkpt lat="33.810313" lon="-118.393867">
  <ele>-0.12</ele>
  <time>2026-09-02T22:12:30Z</time>
  <course>0.0</course>
  <speed>0.0</speed>
  <fix>3d</fix>
</trkpt>
<trkpt lat="33.810313" lon="-118.393867">
  <ele>-0.126</ele>
  <time>2026-09-02T22:12:30Z</time>
  <course>187.07</course>
  <speed>0.01414213562373095</speed>
  <fix>3d</fix>
</trkpt>
<trkpt lat="33.810313" lon="-118.393867">
  <ele>-0.12</ele>
  <time>2026-09-02T22:12:30Z</time>
  <course>0.0</course>
  <speed>0.0</speed>
  <fix>3d</fix>
</trkpt>
<trkpt lat="33.810313" lon="-118.393867">
  <ele>-0.128</ele>
  <time>2026-09-02T22:12:30Z</time>
  <course>187.06</course>
  <speed>0.01414213562373095</speed>
  <fix>3d</fix>
</trkpt>
<trkpt lat="33.810313" lon="-118.393867">
  <ele>-0.12</ele>
  <time>2026-09-02T22:12:30Z</time>
  <course>0.0</course>
  <speed>0.0</speed>
  <fix>3d</fix>
</trkpt>
<trkpt lat="33.810313" lon="-118.393867">
  <ele>-0.129</ele>
  <time>2026-09-02T22:12:30Z</time>
  <course>187.06</course>
  <speed>0.01414213562373095</speed>
  <fix>3d</fix>
</trkpt>
<trkpt lat="33.810313" lon="-118.393867">
  <ele>-0.12</ele>
  <time>2026-09-02T22:12:30Z</time>
  <course>0.0</course>
  <speed>0.0</speed>
  <fix>3d</fix>
</trkpt>
<trkpt lat="33.810313" lon="-118.393867">
  <ele>-0.129</ele>
  <time>2026-09-02T22:12:30Z</time>
  <course>187.05</course>
  <speed>0.01414213562373095</speed>
  <fix>3d</fix>
</trkpt>
<trkpt lat="33.810313" lon="-118.393867">
  <ele>-0.12</ele>
  <time>2026-09-02T22:12:30Z</time>
  <course>0.0</course>
  <speed>0.0</speed>
  <fix>3d</fix>
</trkpt>
<trkpt lat="33.810313" lon="-118.393867">
  <ele>-0.129</ele>
  <time>2026-09-02T22:12:30Z</time>
  <course>187.05</course>
  <speed>0.01414213562373095</speed>
  <fix>3d</fix>
</trkpt>
<trkpt lat="33.810313" lon="-118.393867">
  <ele>-0.12</ele>
  <time>2026-09-02T22:12:30Z</time>
  <course>0.0</course>
  <speed>0.0</speed>
  <fix>3d</fix>
</trkpt>
<trkpt lat="33.810313" lon="-118.393867">
  <ele>-0.128</ele>
  <time>2026-09-02T22:12:30Z</time>
  <course>187.04</course>
  <speed>0.01414213562373095</speed>
  <fix>3d</fix>
</trkpt>
<trkpt lat="33.810313" lon="-118.393867">
  <ele>-0.12</ele>
  <time>2026-09-02T22:12:30Z</time>
  <course>0.0</course>
  <speed>0.0</speed>
  <fix>3d</fix>
</trkpt>
<trkpt lat="33.810313" lon="-118.393867">
  <ele>-0.127</ele>
  <time>2026-09-02T22:12:30Z</time>
  <course>187.04</course>
  <speed>0.01414213562373095</speed>
  <fix>3d</fix>
</trkpt>
<trkpt lat="33.810313" lon="-118.393867">
  <ele>-0.12</ele>
  <time>2026-09-02T22:12:30Z</time>
  <course>0.0</course>
  <speed>0.0</speed>
  <fix>3d</fix>
</trkpt>
<trkpt lat="33.810313" lon="-118.393867">
  <ele>-0.125</ele>
  <time>2026-09-02T22:12:30Z</time>
  <course>187.04</course>
  <speed>0.01414213562373095</speed>
  <fix>3d</fix>
</trkpt>
<trkpt lat="33.810313" lon="-118.393867">
  <ele>-0.12</ele>
  <time>2026-09-02T22:12:30Z</time>
  <course>0.0</course>
  <speed>0.0</speed>
  <fix>3d</fix>
</trkpt>
<trkpt lat="33.810313" lon="-118.393867">
  <ele>-0.125</ele>
  <time>2026-09-02T22:12:30Z</time>
  <course>187.03</course>
  <speed>0.01414213562373095</speed>
  <fix>3d</fix>
</trkpt>
<trkpt lat="33.810313" lon="-118.393867">
  <ele>-0.12</ele>
  <time>2026-09-02T22:12:30Z</time>
  <course>0.0</course>
  <speed>0.0</speed>
  <fix>3d</fix>
</trkpt>
<trkpt lat="33.810313" lon="-118.393867">
  <ele>-0.124</ele>
  <time>2026-09-02T22:12:30Z</time>
  <course>187.03</course>
  <speed>0.01414213562373095</speed>
  <fix>3d</fix>
</trkpt>
<trkpt lat="33.810313" lon="-118.393867">
  <ele>-0.12</ele>
  <time>2026-09-02T22:12:30Z</time>
  <course>0.0</course>
  <speed>0.0</speed>
  <fix>3d</fix>
</trkpt>
<trkpt lat="33.810313" lon="-118.393867">
  <ele>-0.123</ele>
  <time>2026-09-02T22:12:30Z</time>
  <course>187.02</course>
  <speed>0.01</speed>
  <fix>3d</fix>
</trkpt>
<trkpt lat="33.810313" lon="-118.393867">
  <ele>-0.12</ele>
  <time>2026-09-02T22:12:30Z</time>
  <course>0.0</course>
  <speed>0.0</speed>
  <fix>3d</fix>
</trkpt>
<trkpt lat="33.810313" lon="-118.393867">
  <ele>-0.124</ele>
  <time>2026-09-02T22:12:30Z</time>
  <course>187.02</course>
  <speed>0.01</speed>
  <fix>3d</fix>
</trkpt>
<trkpt lat="33.810313" lon="-118.393867">
  <ele>-0.12</ele>
  <time>2026-09-02T22:12:30Z</time>
  <course>0.0</course>
  <speed>0.0</speed>
  <fix>3d</fix>
</trkpt>
<trkpt lat="33.810313" lon="-118.393867">
  <ele>-0.124</ele>
  <time>2026-09-02T22:12:30Z</time>
  <course>187.01</course>
  <speed>0.01</speed>
  <fix>3d</fix>
</trkpt>
<trkpt lat="33.810313" lon="-118.393867">
  <ele>-0.12</ele>
  <time>2026-09-02T22:12:30Z</time>
  <course>0.0</course>
  <speed>0.0</speed>
  <fix>3d</fix>
</trkpt>
<trkpt lat="33.810313" lon="-118.393867">
  <ele>-0.125</ele>
  <time>2026-09-02T22:12:30Z</time>
  <course>187.01</course>
  <speed>0.01</speed>
  <fix>3d</fix>
</trkpt>
<trkpt lat="33.810313" lon="-118.393867">
  <ele>-0.12</ele>
  <time>2026-09-02T22:12:30Z</time>
  <course>0.0</course>
  <speed>0.0</speed>
  <fix>3d</fix>
</trkpt>
<trkpt lat="33.810313" lon="-118.393867">
  <ele>-0.126</ele>
  <time>2026-09-02T22:12:30Z</time>
  <course>187.0</course>
  <speed>0.01</speed>
  <fix>3d</fix>
</trkpt>
<trkpt lat="33.810313" lon="-118.393867">
  <ele>-0.12</ele>
  <time>2026-09-02T22:12:30Z</time>
  <course>0.0</course>
  <speed>0.0</speed>
  <fix>3d</fix>
</trkpt>
<trkpt lat="33.810313" lon="-118.393867">
  <ele>-0.124</ele>
  <time>2026-09-02T22:12:30Z</time>
  <course>187.0</course>
  <speed>0.01</speed>
  <fix>3d</fix>
</trkpt>
<trkpt lat="33.810313" lon="-118.393867">
  <ele>-0.12</ele>
  <time>2026-09-02T22:12:30Z</time>
  <course>0.0</course>
  <speed>0.0</speed>
  <fix>3d</fix>
</trkpt>
<trkpt lat="33.810313" lon="-118.393867">
  <ele>-0.123</ele>
  <time>2026-09-02T22:12:30Z</time>
  <course>186.99</course>
  <speed>0.0</speed>
  <fix>3d</fix>
</trkpt>
<trkpt lat="33.810313" lon="-118.393867">
  <ele>-0.12</ele>
  <time>2026-09-02T22:12:30Z</time>
  <course>0.0</course>
  <speed>0.0</speed>
  <fix>3d</fix>
</trkpt>
<trkpt lat="33.810313" lon="-118.393867">
  <ele>-0.122</ele>
  <time>2026-09-02T22:12:30Z</time>
  <course>186.99</course>
  <speed>0.0</speed>
  <fix>3d</fix>
</trkpt>
<trkpt lat="33.810313" lon="-118.393867">
  <ele>-0.12</ele>
  <time>2026-09-02T22:12:30Z</time>
  <course>0.0</course>
  <speed>0.0</speed>
  <fix>3d</fix>
</trkpt>
<trkpt lat="33.810313" lon="-118.393867">
  <ele>-0.121</ele>
  <time>2026-09-02T22:12:30Z</time>
  <course>186.98</course>
  <speed>0.0</speed>
  <fix>3d</fix>
</trkpt>
<trkpt lat="33.810313" lon="-118.393867">
  <ele>-0.12</ele>
  <time>2026-09-02T22:12:30Z</time>
  <course>0.0</course>
  <speed>0.0</speed>
  <fix>3d</fix>
</trkpt>
<trkpt lat="33.810313" lon="-118.393867">
  <ele>-0.121</ele>
  <time>2026-09-02T22:12:30Z</time>
  <course>186.98</course>
  <speed>0.0</speed>
  <fix>3d</fix>
</trkpt>
<trkpt lat="33.810313" lon="-118.393867">
  <ele>-0.12</ele>
  <time>2026-09-02T22:12:30Z</time>
  <course>0.0</course>
  <speed>0.0</speed>
  <fix>3d</fix>
</trkpt>
<trkpt lat="33.810313" lon="-118.393867">
  <ele>-0.122</ele>
  <time>2026-09-02T22:12:30Z</time>
  <course>186.97</course>
  <speed>0.0</speed>
  <fix>3d</fix>
</trkpt>
<trkpt lat="33.810313" lon="-118.393867">
  <ele>-0.12</ele>
  <time>2026-09-02T22:12:30Z</time>
  <course>0.0</course>
  <speed>0.0</speed>
  <fix>3d</fix>
</trkpt>
<trkpt lat="33.810313" lon="-118.393867">
  <ele>-0.124</ele>
  <time>2026-09-02T22:12:30Z</time>
  <course>186.97</course>
  <speed>0.0</speed>
  <fix>3d</fix>
</trkpt>
<trkpt lat="33.810313" lon="-118.393867">
  <ele>-0.12</ele>
  <time>2026-09-02T22:12:30Z</time>
  <course>0.0</course>
  <speed>0.0</speed>
  <fix>3d</fix>
</trkpt>
<trkpt lat="33.810313" lon="-118.393867">
  <ele>-0.125</ele>
  <time>2026-09-02T22:12:30Z</time>
  <course>186.96</course>
  <speed>0.0</speed>
  <fix>3d</fix>
</trkpt>
<trkpt lat="33.810313" lon="-118.393867">
  <ele>-0.12</ele>
  <time>2026-09-02T22:12:30Z</time>
  <course>0.0</course>
  <speed>0.0</speed>
  <fix>3d</fix>
</trkpt>
<trkpt lat="33.810313" lon="-118.393867">
  <ele>-0.124</ele>
  <time>2026-09-02T22:12:30Z</time>
  <course>186.96</course>
  <speed>0.0</speed>
  <fix>3d</fix>
</trkpt>
<trkpt lat="33.810313" lon="-118.393867">
  <ele>-0.12</ele>
  <time>2026-09-02T22:12:30Z</time>
  <course>0.0</course>
  <speed>0.0</speed>
  <fix>3d</fix>
</trkpt>
<trkpt lat="33.810313" lon="-118.393867">
  <ele>-0.122</ele>
  <time>2026-09-02T22:12:30Z</time>
  <course>186.95</course>
  <speed>0.0</speed>
  <fix>3d</fix>
</trkpt>
<trkpt lat="33.810313" lon="-118.393867">
  <ele>-0.12</ele>
  <time>2026-09-02T22:12:30Z</time>
  <course>0.0</course>
  <speed>0.0</speed>
  <fix>3d</fix>
</trkpt>
<trkpt lat="33.810313" lon="-118.393867">
  <ele>-0.121</ele>
  <time>2026-09-02T22:12:30Z</time>
  <course>186.95</course>
  <speed>0.0</speed>
  <fix>3d</fix>
</trkpt>
<trkpt lat="33.810313" lon="-118.393867">
  <ele>-0.12</ele>
  <time>2026-09-02T22:12:30Z</time>
  <course>0.0</course>
  <speed>0.0</speed>
  <fix>3d</fix>
</trkpt>
<trkpt lat="33.810313" lon="-118.393867">
  <ele>-0.119</ele>
  <time>2026-09-02T22:12:30Z</time>
  <course>186.94</course>
  <speed>0.0</speed>
  <fix>3d</fix>
</trkpt>
<trkpt lat="33.810313" lon="-118.393867">
  <ele>-0.12</ele>
  <time>2026-09-02T22:12:30Z</time>
  <course>0.0</course>
  <speed>0.0</speed>
  <fix>3d</fix>
</trkpt>
<trkpt lat="33.810313" lon="-118.393867">
  <ele>-0.117</ele>
  <time>2026-09-02T22:12:30Z</time>
  <course>186.94</course>
  <speed>0.0</speed>
  <fix>3d</fix>
</trkpt>
<trkpt lat="33.810313" lon="-118.393867">
  <ele>-0.12</ele>
  <time>2026-09-02T22:12:30Z</time>
  <course>0.0</course>
  <speed>0.0</speed>
  <fix>3d</fix>
</trkpt>
<trkpt lat="33.810313" lon="-118.393867">
  <ele>-0.116</ele>
  <time>2026-09-02T22:12:30Z</time>
  <course>186.93</course>
  <speed>0.0</speed>
  <fix>3d</fix>
</trkpt>
<trkpt lat="33.810313" lon="-118.393867">
  <ele>-0.12</ele>
  <time>2026-09-02T22:12:30Z</time>
  <course>0.0</course>
  <speed>0.0</speed>
  <fix>3d</fix>
</trkpt>
<trkpt lat="33.810313" lon="-118.393867">
  <ele>-0.116</ele>
  <time>2026-09-02T22:12:30Z</time>
  <course>186.93</course>
  <speed>0.0</speed>
  <fix>3d</fix>
</trkpt>
<trkpt lat="33.810313" lon="-118.393867">
  <ele>-0.12</ele>
  <time>2026-09-02T22:12:30Z</time>
  <course>0.0</course>
  <speed>0.0</speed>
  <fix>3d</fix>
</trkpt>
<trkpt lat="33.810313" lon="-118.393867">
  <ele>-0.116</ele>
  <time>2026-09-02T22:12:30Z</time>
  <course>186.92</course>
  <speed>0.0</speed>
  <fix>3d</fix>
</trkpt>
<trkpt lat="33.810313" lon="-118.393867">
  <ele>-0.12</ele>
  <time>2026-09-02T22:12:30Z</time>
  <course>0.0</course>
  <speed>0.0</speed>
  <fix>3d</fix>
</trkpt>
<trkpt lat="33.810313" lon="-118.393867">
  <ele>-0.116</ele>
  <time>2026-09-02T22:12:30Z</time>
  <course>186.92</course>
  <speed>0.0</speed>
  <fix>3d</fix>
</trkpt>
<trkpt lat="33.810313" lon="-118.393867">
  <ele>-0.12</ele>
  <time>2026-09-02T22:12:30Z</time>
  <course>0.0</course>
  <speed>0.0</speed>
  <fix>3d</fix>
</trkpt>
<trkpt lat="33.810313" lon="-118.393867">
  <ele>-0.116</ele>
  <time>2026-09-02T22:12:30Z</time>
  <course>186.91</course>
  <speed>0.0</speed>
  <fix>3d</fix>
</trkpt>
<trkpt lat="33.810313" lon="-118.393867">
  <ele>-0.12</ele>
  <time>2026-09-02T22:12:30Z</time>
  <course>0.0</course>
  <speed>0.0</speed>
  <fix>3d</fix>
</trkpt>
<trkpt lat="33.810313" lon="-118.393867">
  <ele>-0.116</ele>
  <time>2026-09-02T22:12:30Z</time>
  <course>186.91</course>
  <speed>0.0</speed>
  <fix>3d</fix>
</trkpt>
<trkpt lat="33.810313" lon="-118.393867">
  <ele>-0.12</ele>
  <time>2026-09-02T22:12:30Z</time>
  <course>0.0</course>
  <speed>0.0</speed>
  <fix>3d</fix>
</trkpt>
<trkpt lat="33.810313" lon="-118.393867">
  <ele>-0.115</ele>
  <time>2026-09-02T22:12:30Z</time>
  <course>186.9</course>
  <speed>0.0</speed>
  <fix>3d</fix>
</trkpt>
<trkpt lat="33.810313" lon="-118.393867">
  <ele>-0.12</ele>
  <time>2026-09-02T22:12:30Z</time>
  <course>0.0</course>
  <speed>0.0</speed>
  <fix>3d</fix>
</trkpt>
<trkpt lat="33.810313" lon="-118.393867">
  <ele>-0.114</ele>
  <time>2026-09-02T22:12:30Z</time>
  <course>186.9</course>
  <speed>0.0</speed>
  <fix>3d</fix>
</trkpt>
<trkpt lat="33.810313" lon="-118.393867">
  <ele>-0.12</ele>
  <time>2026-09-02T22:12:30Z</time>
  <course>0.0</course>
  <speed>0.0</speed>
  <fix>3d</fix>
</trkpt>
<trkpt lat="33.810313" lon="-118.393867">
  <ele>-0.113</ele>
  <time>2026-09-02T22:12:30Z</time>
  <course>186.89</course>
  <speed>0.0</speed>
  <fix>3d</fix>
</trkpt>
<trkpt lat="33.810313" lon="-118.393867">
  <ele>-0.12</ele>
  <time>2026-09-02T22:12:30Z</time>
  <course>0.0</course>
  <speed>0.0</speed>
  <fix>3d</fix>
</trkpt>
<trkpt lat="33.810313" lon="-118.393867">
  <ele>-0.111</ele>
  <time>2026-09-02T22:12:30Z</time>
  <course>186.89</course>
  <speed>0.0</speed>
  <fix>3d</fix>
</trkpt>
<trkpt lat="33.810313" lon="-118.393867">
  <ele>-0.12</ele>
  <time>2026-09-02T22:12:30Z</time>
  <course>0.0</course>
  <speed>0.0</speed>
  <fix>3d</fix>
</trkpt>
<trkpt lat="33.810313" lon="-118.393867">
  <ele>-0.112</ele>
  <time>2026-09-02T22:12:30Z</time>
  <course>186.88</course>
  <speed>0.0</speed>
  <fix>3d</fix>
</trkpt>
<trkpt lat="33.810313" lon="-118.393867">
  <ele>-0.12</ele>
  <time>2026-09-02T22:12:30Z</time>
  <course>0.0</course>
  <speed>0.0</speed>
  <fix>3d</fix>
</trkpt>
<trkpt lat="33.810313" lon="-118.393867">
  <ele>-0.113</ele>
  <time>2026-09-02T22:12:30Z</time>
  <course>186.88</course>
  <speed>0.0</speed>
  <fix>3d</fix>
</trkpt>
<trkpt lat="33.810313" lon="-118.393867">
  <ele>-0.12</ele>
  <time>2026-09-02T22:12:30Z</time>
  <course>0.0</course>
  <speed>0.0</speed>
  <fix>3d</fix>
</trkpt>
<trkpt lat="33.810313" lon="-118.393867">
  <ele>-0.114</ele>
  <time>2026-09-02T22:12:30Z</time>
  <course>186.87</course>
  <speed>0.01</speed>
  <fix>3d</fix>
</trkpt>
<trkpt lat="33.810313" lon="-118.393867">
  <ele>-0.12</ele>
  <time>2026-09-02T22:12:30Z</time>
  <course>0.0</course>
  <speed>0.0</speed>
  <fix>3d</fix>
</trkpt>
<trkpt lat="33.810313" lon="-118.393867">
  <ele>-0.116</ele>
  <time>2026-09-02T22:12:30Z</time>
  <course>186.87</course>
  <speed>0.01</speed>
  <fix>3d</fix>
</trkpt>
<trkpt lat="33.810313" lon="-118.393867">
  <ele>-0.12</ele>
  <time>2026-09-02T22:12:30Z</time>
  <course>0.0</course>
  <speed>0.0</speed>
  <fix>3d</fix>
</trkpt>
<trkpt lat="33.810313" lon="-118.393867">
  <ele>-0.117</ele>
  <time>2026-09-02T22:12:30Z</time>
  <course>186.86</course>
  <speed>0.01</speed>
  <fix>3d</fix>
</trkpt>
<trkpt lat="33.810313" lon="-118.393867">
  <ele>-0.12</ele>
  <time>2026-09-02T22:12:30Z</time>
  <course>0.0</course>
  <speed>0.0</speed>
  <fix>3d</fix>
</trkpt>
<trkpt lat="33.810313" lon="-118.393867">
  <ele>-0.117</ele>
  <time>2026-09-02T22:12:30Z</time>
  <course>186.86</course>
  <speed>0.01</speed>
  <fix>3d</fix>
</trkpt>
<trkpt lat="33.810313" lon="-118.393867">
  <ele>-0.12</ele>
  <time>2026-09-02T22:12:30Z</time>
  <course>0.0</course>
  <speed>0.0</speed>
  <fix>3d</fix>
</trkpt>
<trkpt lat="33.810313" lon="-118.393867">
  <ele>-0.115</ele>
  <time>2026-09-02T22:12:30Z</time>
  <course>186.85</course>
  <speed>0.01</speed>
  <fix>3d</fix>
</trkpt>
<trkpt lat="33.810313" lon="-118.393867">
  <ele>-0.12</ele>
  <time>2026-09-02T22:12:30Z</time>
  <course>0.0</course>
  <speed>0.0</speed>
  <fix>3d</fix>
</trkpt>
<trkpt lat="33.810313" lon="-118.393867">
  <ele>-0.114</ele>
  <time>2026-09-02T22:12:30Z</time>
  <course>186.85</course>
  <speed>0.01</speed>
  <fix>3d</fix>
</trkpt>
<trkpt lat="33.810313" lon="-118.393867">
  <ele>-0.12</ele>
  <time>2026-09-02T22:12:30Z</time>
  <course>0.0</course>
  <speed>0.0</speed>
  <fix>3d</fix>
</trkpt>
<trkpt lat="33.810313" lon="-118.393867">
  <ele>-0.113</ele>
  <time>2026-09-02T22:12:30Z</time>
  <course>186.84</course>
  <speed>0.01</speed>
  <fix>3d</fix>
</trkpt>
<trkpt lat="33.810313" lon="-118.393867">
  <ele>-0.12</ele>
  <time>2026-09-02T22:12:30Z</time>
  <course>0.0</course>
  <speed>0.0</speed>
  <fix>3d</fix>
</trkpt>
<trkpt lat="33.810313" lon="-118.393867">
  <ele>-0.113</ele>
  <time>2026-09-02T22:12:30Z</time>
  <course>186.84</course>
  <speed>0.01</speed>
  <fix>3d</fix>
</trkpt>
<trkpt lat="33.810313" lon="-118.393867">
  <ele>-0.12</ele>
  <time>2026-09-02T22:12:30Z</time>
  <course>0.0</course>
  <speed>0.0</speed>
  <fix>3d</fix>
</trkpt>
<trkpt lat="33.810313" lon="-118.393867">
  <ele>-0.113</ele>
  <time>2026-09-02T22:12:30Z</time>
  <course>186.84</course>
  <speed>0.01414213562373095</speed>
  <fix>3d</fix>
</trkpt>
<trkpt lat="33.810313" lon="-118.393867">
  <ele>-0.12</ele>
  <time>2026-09-02T22:12:30Z</time>
  <course>0.0</course>
  <speed>0.0</speed>
  <fix>3d</fix>
</trkpt>
<trkpt lat="33.810313" lon="-118.393867">
  <ele>-0.112</ele>
  <time>2026-09-02T22:12:30Z</time>
  <course>186.83</course>
  <speed>0.01414213562373095</speed>
  <fix>3d</fix>
</trkpt>
<trkpt lat="33.810313" lon="-118.393867">
  <ele>-0.12</ele>
  <time>2026-09-02T22:12:30Z</time>
  <course>0.0</course>
  <speed>0.0</speed>
  <fix>3d</fix>
</trkpt>
<trkpt lat="33.810313" lon="-118.393867">
  <ele>-0.112</ele>
  <time>2026-09-02T22:12:30Z</time>
  <course>186.83</course>
  <speed>0.01414213562373095</speed>
  <fix>3d</fix>
</trkpt>
<trkpt lat="33.810313" lon="-118.393867">
  <ele>-0.12</ele>
  <time>2026-09-02T22:12:30Z</time>
  <course>0.0</course>
  <speed>0.0</speed>
  <fix>3d</fix>
</trkpt>
<trkpt lat="33.810313" lon="-118.393867">
  <ele>-0.113</ele>
  <time>2026-09-02T22:12:30Z</time>
  <course>186.82</course>
  <speed>0.01414213562373095</speed>
  <fix>3d</fix>
</trkpt>
<trkpt lat="33.810313" lon="-118.393867">
  <ele>-0.12</ele>
  <time>2026-09-02T22:12:30Z</time>
  <course>0.0</course>
  <speed>0.0</speed>
  <fix>3d</fix>
</trkpt>
<trkpt lat="33.810313" lon="-118.393867">
  <ele>-0.113</ele>
  <time>2026-09-02T22:12:30Z</time>
  <course>186.82</course>
  <speed>0.01414213562373095</speed>
  <fix>3d</fix>
</trkpt>
<trkpt lat="33.810313" lon="-118.393867">
  <ele>-0.12</ele>
  <time>2026-09-02T22:12:30Z</time>
  <course>0.0</course>
  <speed>0.0</speed>
  <fix>3d</fix>
</trkpt>
<trkpt lat="33.810313" lon="-118.393867">
  <ele>-0.113</ele>
  <time>2026-09-02T22:12:30Z</time>
  <course>186.81</course>
  <speed>0.01414213562373095</speed>
  <fix>3d</fix>
</trkpt>
<trkpt lat="33.810313" lon="-118.393867">
  <ele>-0.12</ele>
  <time>2026-09-02T22:12:30Z</time>
  <course>0.0</course>
  <speed>0.0</speed>
  <fix>3d</fix>
</trkpt>
<trkpt lat="33.810313" lon="-118.393867">
  <ele>-0.112</ele>
  <time>2026-09-02T22:12:30Z</time>
  <course>186.81</course>
  <speed>0.01414213562373095</speed>
  <fix>3d</fix>
</trkpt>
<trkpt lat="33.810313" lon="-118.393867">
  <ele>-0.12</ele>
  <time>2026-09-02T22:12:30Z</time>
  <course>0.0</course>
  <speed>0.0</speed>
  <fix>3d</fix>
</trkpt>
<trkpt lat="33.810313" lon="-118.393867">
  <ele>-0.112</ele>
  <time>2026-09-02T22:12:30Z</time>
  <course>186.8</course>
  <speed>0.01414213562373095</speed>
  <fix>3d</fix>
</trkpt>
<trkpt lat="33.810313" lon="-118.393867">
  <ele>-0.12</ele>
  <time>2026-09-02T22:12:30Z</time>
  <course>0.0</course>
  <speed>0.0</speed>
  <fix>3d</fix>
</trkpt>
<trkpt lat="33.810313" lon="-118.393867">
  <ele>-0.111</ele>
  <time>2026-09-02T22:12:30Z</time>
  <course>186.8</course>
  <speed>0.01414213562373095</speed>
  <fix>3d</fix>
</trkpt>
<trkpt lat="33.810313" lon="-118.393867">
  <ele>-0.12</ele>
  <time>2026-09-02T22:12:30Z</time>
  <course>0.0</course>
  <speed>0.0</speed>
  <fix>3d</fix>
</trkpt>
<trkpt lat="33.810313" lon="-118.393867">
  <ele>-0.112</ele>
  <time>2026-09-02T22:12:30Z</time>
  <course>186.79</course>
  <speed>0.01414213562373095</speed>
  <fix>3d</fix>
</trkpt>
<trkpt lat="33.810313" lon="-118.393867">
  <ele>-0.12</ele>
  <time>2026-09-02T22:12:30Z</time>
  <course>0.0</course>
  <speed>0.0</speed>
  <fix>3d</fix>
</trkpt>
<trkpt lat="33.810313" lon="-118.393867">
  <ele>-0.114</ele>
  <time>2026-09-02T22:12:30Z</time>
  <course>186.79</course>
  <speed>0.01414213562373095</speed>
  <fix>3d</fix>
</trkpt>
<trkpt lat="33.810313" lon="-118.393867">
  <ele>-0.12</ele>
  <time>2026-09-02T22:12:30Z</time>
  <course>0.0</course>
  <speed>0.0</speed>
  <fix>3d</fix>
</trkpt>
<trkpt lat="33.8103131" lon="-118.393867">
  <ele>-0.117</ele>
  <time>2026-09-02T22:12:30Z</time>
  <course>186.78</course>
  <speed>0.01414213562373095</speed>
  <fix>3d</fix>
</trkpt>
<trkpt lat="33.810313" lon="-118.393867">
  <ele>-0.12</ele>
  <time>2026-09-02T22:12:30Z</time>
  <course>0.0</course>
  <speed>0.0</speed>
  <fix>3d</fix>
</trkpt>
<trkpt lat="33.8103131" lon="-118.393867">
  <ele>-0.12</ele>
  <time>2026-09-02T22:12:30Z</time>
  <course>186.78</course>
  <speed>0.01414213562373095</speed>
  <fix>3d</fix>
</trkpt>
<trkpt lat="33.810313" lon="-118.393867">
  <ele>-0.12</ele>
  <time>2026-09-02T22:12:30Z</time>
  <course>0.0</course>
  <speed>0.0</speed>
  <fix>3d</fix>
</trkpt>
<trkpt lat="33.8103131" lon="-118.3938671">
  <ele>-0.123</ele>
  <time>2026-09-02T22:12:30Z</time>
  <course>186.77</course>
  <speed>0.01414213562373095</speed>
  <fix>3d</fix>
</trkpt>
<trkpt lat="33.810313" lon="-118.393867">
  <ele>-0.12</ele>
  <time>2026-09-02T22:12:30Z</time>
  <course>0.0</course>
  <speed>0.0</speed>
  <fix>3d</fix>
</trkpt>
<trkpt lat="33.8103131" lon="-118.3938671">
  <ele>-0.125</ele>
  <time>2026-09-02T22:12:30Z</time>
  <course>186.77</course>
  <speed>0.01414213562373095</speed>
  <fix>3d</fix>
</trkpt>
<trkpt lat="33.810313" lon="-118.393867">
  <ele>-0.12</ele>
  <time>2026-09-02T22:12:30Z</time>
  <course>0.0</course>
  <speed>0.0</speed>
  <fix>3d</fix>
</trkpt>
<trkpt lat="33.8103131" lon="-118.3938671">
  <ele>-0.125</ele>
  <time>2026-09-02T22:12:30Z</time>
  <course>186.76</course>
  <speed>0.01414213562373095</speed>
  <fix>3d</fix>
</trkpt>
<trkpt lat="33.810313" lon="-118.393867">
  <ele>-0.12</ele>
  <time>2026-09-02T22:12:30Z</time>
  <course>0.0</course>
  <speed>0.0</speed>
  <fix>3d</fix>
</trkpt>
<trkpt lat="33.8103131" lon="-118.3938671">
  <ele>-0.124</ele>
  <time>2026-09-02T22:12:30Z</time>
  <course>186.76</course>
  <speed>0.01414213562373095</speed>
  <fix>3d</fix>
</trkpt>
<trkpt lat="33.810313" lon="-118.393867">
  <ele>-0.12</ele>
  <time>2026-09-02T22:12:30Z</time>
  <course>0.0</course>
  <speed>0.0</speed>
  <fix>3d</fix>
</trkpt>
<trkpt lat="33.8103131" lon="-118.3938671">
  <ele>-0.124</ele>
  <time>2026-09-02T22:12:30Z</time>
  <course>186.75</course>
  <speed>0.022360679774997897</speed>
  <fix>3d</fix>
</trkpt>
<trkpt lat="33.810313" lon="-118.393867">
  <ele>-0.12</ele>
  <time>2026-09-02T22:12:30Z</time>
  <course>0.0</course>
  <speed>0.0</speed>
  <fix>3d</fix>
</trkpt>
<trkpt lat="33.8103131" lon="-118.3938671">
  <ele>-0.124</ele>
  <time>2026-09-02T22:12:30Z</time>
  <course>186.75</course>
  <speed>0.022360679774997897</speed>
  <fix>3d</fix>
</trkpt>
<trkpt lat="33.810313" lon="-118.393867">
  <ele>-0.12</ele>
  <time>2026-09-02T22:12:30Z</time>
  <course>0.0</course>
  <speed>0.0</speed>
  <fix>3d</fix>
</trkpt>
<trkpt lat="33.8103131" lon="-118.3938671">
  <ele>-0.125</ele>
  <time>2026-09-02T22:12:30Z</time>
  <course>186.74</course>
  <speed>0.022360679774997897</speed>
  <fix>3d</fix>
</trkpt>
<trkpt lat="33.810313" lon="-118.393867">
  <ele>-0.12</ele>
  <time>2026-09-02T22:12:30Z</time>
  <course>0.0</course>
  <speed>0.0</speed>
  <fix>3d</fix>
</trkpt>
<trkpt lat="33.8103131" lon="-118.3938671">
  <ele>-0.124</ele>
  <time>2026-09-02T22:12:30Z</time>
  <course>186.74</course>
  <speed>0.022360679774997897</speed>
  <fix>3d</fix>
</trkpt>
<trkpt lat="33.810313" lon="-118.393867">
  <ele>-0.12</ele>
  <time>2026-09-02T22:12:30Z</time>
  <course>0.0</course>
  <speed>0.0</speed>
  <fix>3d</fix>
</trkpt>
<trkpt lat="33.8103131" lon="-118.3938671">
  <ele>-0.124</ele>
  <time>2026-09-02T22:12:30Z</time>
  <course>186.74</course>
  <speed>0.022360679774997897</speed>
  <fix>3d</fix>
</trkpt>
<trkpt lat="33.810313" lon="-118.393867">
  <ele>-0.12</ele>
  <time>2026-09-02T22:12:30Z</time>
  <course>0.0</course>
  <speed>0.0</speed>
  <fix>3d</fix>
</trkpt>
<trkpt lat="33.8103131" lon="-118.3938671">
  <ele>-0.124</ele>
  <time>2026-09-02T22:12:30Z</time>
  <course>186.73</course>
  <speed>0.022360679774997897</speed>
  <fix>3d</fix>
</trkpt>
<trkpt lat="33.810313" lon="-118.393867">
  <ele>-0.12</ele>
  <time>2026-09-02T22:12:30Z</time>
  <course>0.0</course>
  <speed>0.0</speed>
  <fix>3d</fix>
</trkpt>
<trkpt lat="33.8103131" lon="-118.3938671">
  <ele>-0.125</ele>
  <time>2026-09-02T22:12:30Z</time>
  <course>186.73</course>
  <speed>0.022360679774997897</speed>
  <fix>3d</fix>
</trkpt>
<trkpt lat="33.810313" lon="-118.393867">
  <ele>-0.12</ele>
  <time>2026-09-02T22:12:30Z</time>
  <course>0.0</course>
  <speed>0.0</speed>
  <fix>3d</fix>
</trkpt>
<trkpt lat="33.8103131" lon="-118.3938671">
  <ele>-0.127</ele>
  <time>2026-09-02T22:12:30Z</time>
  <course>186.72</course>
  <speed>0.022360679774997897</speed>
  <fix>3d</fix>
</trkpt>
<trkpt lat="33.810313" lon="-118.393867">
  <ele>-0.12</ele>
  <time>2026-09-02T22:12:30Z</time>
  <course>0.0</course>
  <speed>0.0</speed>
  <fix>3d</fix>
</trkpt>
<trkpt lat="33.8103131" lon="-118.3938671">
  <ele>-0.128</ele>
  <time>2026-09-02T22:12:30Z</time>
  <course>186.72</course>
  <speed>0.022360679774997897</speed>
  <fix>3d</fix>
</trkpt>
<trkpt lat="33.810313" lon="-118.393867">
  <ele>-0.12</ele>
  <time>2026-09-02T22:12:30Z</time>
  <course>0.0</course>
  <speed>0.0</speed>
  <fix>3d</fix>
</trkpt>
<trkpt lat="33.8103131" lon="-118.3938671">
  <ele>-0.128</ele>
  <time>2026-09-02T22:12:30Z</time>
  <course>186.71</course>
  <speed>0.022360679774997897</speed>
  <fix>3d</fix>
</trkpt>
<trkpt lat="33.810313" lon="-118.393867">
  <ele>-0.12</ele>
  <time>2026-09-02T22:12:30Z</time>
  <course>0.0</course>
  <speed>0.0</speed>
  <fix>3d</fix>
</trkpt>
<trkpt lat="33.8103131" lon="-118.3938671">
  <ele>-0.127</ele>
  <time>2026-09-02T22:12:30Z</time>
  <course>186.71</course>
  <speed>0.022360679774997897</speed>
  <fix>3d</fix>
</trkpt>
<trkpt lat="33.810313" lon="-118.393867">
  <ele>-0.12</ele>
  <time>2026-09-02T22:12:30Z</time>
  <course>0.0</course>
  <speed>0.0</speed>
  <fix>3d</fix>
</trkpt>
<trkpt lat="33.8103131" lon="-118.3938671">
  <ele>-0.125</ele>
  <time>2026-09-02T22:12:30Z</time>
  <course>186.7</course>
  <speed>0.022360679774997897</speed>
  <fix>3d</fix>
</trkpt>
<trkpt lat="33.810313" lon="-118.393867">
  <ele>-0.12</ele>
  <time>2026-09-02T22:12:30Z</time>
  <course>0.0</course>
  <speed>0.0</speed>
  <fix>3d</fix>
</trkpt>
<trkpt lat="33.8103131" lon="-118.3938671">
  <ele>-0.124</ele>
  <time>2026-09-02T22:12:30Z</time>
  <course>186.7</course>
  <speed>0.022360679774997897</speed>
  <fix>3d</fix>
</trkpt>
<trkpt lat="33.810313" lon="-118.393867">
  <ele>-0.12</ele>
  <time>2026-09-02T22:12:30Z</time>
  <course>0.0</course>
  <speed>0.0</speed>
  <fix>3d</fix>
</trkpt>
<trkpt lat="33.8103131" lon="-118.3938671">
  <ele>-0.123</ele>
  <time>2026-09-02T22:12:30Z</time>
  <course>186.69</course>
  <speed>0.022360679774997897</speed>
  <fix>3d</fix>
</trkpt>
<trkpt lat="33.810313" lon="-118.393867">
  <ele>-0.12</ele>
  <time>2026-09-02T22:12:30Z</time>
  <course>0.0</course>
  <speed>0.0</speed>
  <fix>3d</fix>
</trkpt>
<trkpt lat="33.8103131" lon="-118.3938671">
  <ele>-0.122</ele>
  <time>2026-09-02T22:12:30Z</time>
  <course>186.69</course>
  <speed>0.022360679774997897</speed>
  <fix>3d</fix>
</trkpt>
<trkpt lat="33.810313" lon="-118.393867">
  <ele>-0.12</ele>
  <time>2026-09-02T22:12:30Z</time>
  <course>0.0</course>
  <speed>0.0</speed>
  <fix>3d</fix>
</trkpt>
<trkpt lat="33.8103131" lon="-118.3938671">
  <ele>-0.121</ele>
  <time>2026-09-02T22:12:30Z</time>
  <course>186.69</course>
  <speed>0.0282842712474619</speed>
  <fix>3d</fix>
</trkpt>
<trkpt lat="33.810313" lon="-118.393867">
  <ele>-0.12</ele>
  <time>2026-09-02T22:12:30Z</time>
  <course>0.0</course>
  <speed>0.0</speed>
  <fix>3d</fix>
</trkpt>
<trkpt lat="33.8103131" lon="-118.3938671">
  <ele>-0.12</ele>
  <time>2026-09-02T22:12:30Z</time>
  <course>186.68</course>
  <speed>0.0282842712474619</speed>
  <fix>3d</fix>
</trkpt>
<trkpt lat="33.810313" lon="-118.393867">
  <ele>-0.12</ele>
  <time>2026-09-02T22:12:30Z</time>
  <course>0.0</course>
  <speed>0.0</speed>
  <fix>3d</fix>
</trkpt>
<trkpt lat="33.8103131" lon="-118.3938671">
  <ele>-0.119</ele>
  <time>2026-09-02T22:12:30Z</time>
  <course>186.68</course>
  <speed>0.0282842712474619</speed>
  <fix>3d</fix>
</trkpt>
<trkpt lat="33.810313" lon="-118.393867">
  <ele>-0.12</ele>
  <time>2026-09-02T22:12:30Z</time>
  <course>0.0</course>
  <speed>0.0</speed>
  <fix>3d</fix>
</trkpt>
<trkpt lat="33.8103131" lon="-118.3938671">
  <ele>-0.118</ele>
  <time>2026-09-02T22:12:30Z</time>
  <course>186.67</course>
  <speed>0.0282842712474619</speed>
  <fix>3d</fix>
</trkpt>
<trkpt lat="33.810313" lon="-118.393867">
  <ele>-0.12</ele>
  <time>2026-09-02T22:12:30Z</time>
  <course>0.0</course>
  <speed>0.0</speed>
  <fix>3d</fix>
</trkpt>
<trkpt lat="33.8103131" lon="-118.3938671">
  <ele>-0.116</ele>
  <time>2026-09-02T22:12:30Z</time>
  <course>186.67</course>
  <speed>0.0282842712474619</speed>
  <fix>3d</fix>
</trkpt>
<trkpt lat="33.810313" lon="-118.393867">
  <ele>-0.12</ele>
  <time>2026-09-02T22:12:30Z</time>
  <course>0.0</course>
  <speed>0.0</speed>
  <fix>3d</fix>
</trkpt>
<trkpt lat="33.8103132" lon="-118.3938671">
  <ele>-0.114</ele>
  <time>2026-09-02T22:12:30Z</time>
  <course>186.66</course>
  <speed>0.0282842712474619</speed>
  <fix>3d</fix>
</trkpt>
<trkpt lat="33.810313" lon="-118.393867">
  <ele>-0.12</ele>
  <time>2026-09-02T22:12:30Z</time>
  <course>0.0</course>
  <speed>0.0</speed>
  <fix>3d</fix>
</trkpt>
<trkpt lat="33.8103132" lon="-118.3938671">
  <ele>-0.112</ele>
  <time>2026-09-02T22:12:30Z</time>
  <course>186.66</course>
  <speed>0.0282842712474619</speed>
  <fix>3d</fix>
</trkpt>
<trkpt lat="33.810313" lon="-118.393867">
  <ele>-0.12</ele>
  <time>2026-09-02T22:12:30Z</time>
  <course>0.0</course>
  <speed>0.0</speed>
  <fix>3d</fix>
</trkpt>
<trkpt lat="33.8103132" lon="-118.3938671">
  <ele>-0.111</ele>
  <time>2026-09-02T22:12:30Z</time>
  <course>186.65</course>
  <speed>0.0282842712474619</speed>
  <fix>3d</fix>
</trkpt>
<trkpt lat="33.810313" lon="-118.393867">
  <ele>-0.12</ele>
  <time>2026-09-02T22:12:30Z</time>
  <course>0.0</course>
  <speed>0.0</speed>
  <fix>3d</fix>
</trkpt>
<trkpt lat="33.8103132" lon="-118.3938671">
  <ele>-0.11</ele>
  <time>2026-09-02T22:12:30Z</time>
  <course>186.65</course>
  <speed>0.0282842712474619</speed>
  <fix>3d</fix>
</trkpt>
<trkpt lat="33.810313" lon="-118.393867">
  <ele>-0.12</ele>
  <time>2026-09-02T22:12:30Z</time>
  <course>0.0</course>
  <speed>0.0</speed>
  <fix>3d</fix>
</trkpt>
<trkpt lat="33.8103132" lon="-118.3938672">
  <ele>-0.11</ele>
  <time>2026-09-02T22:12:30Z</time>
  <course>186.65</course>
  <speed>0.0282842712474619</speed>
  <fix>3d</fix>
</trkpt>
<trkpt lat="33.810313" lon="-118.393867">
  <ele>-0.12</ele>
  <time>2026-09-02T22:12:30Z</time>
  <course>0.0</course>
  <speed>0.0</speed>
  <fix>3d</fix>
</trkpt>
<trkpt lat="33.8103132" lon="-118.3938672">
  <ele>-0.112</ele>
  <time>2026-09-02T22:12:30Z</time>
  <course>186.64</course>
  <speed>0.0282842712474619</speed>
  <fix>3d</fix>
</trkpt>
<trkpt lat="33.810313" lon="-118.393867">
  <ele>-0.12</ele>
  <time>2026-09-02T22:12:30Z</time>
  <course>0.0</course>
  <speed>0.0</speed>
  <fix>3d</fix>
</trkpt>
<trkpt lat="33.8103132" lon="-118.3938672">
  <ele>-0.115</ele>
  <time>2026-09-02T22:12:30Z</time>
  <course>186.64</course>
  <speed>0.0282842712474619</speed>
  <fix>3d</fix>
</trkpt>
<trkpt lat="33.810313" lon="-118.393867">
  <ele>-0.12</ele>
  <time>2026-09-02T22:12:30Z</time>
  <course>0.0</course>
  <speed>0.0</speed>
  <fix>3d</fix>
</trkpt>
<trkpt lat="33.8103132" lon="-118.3938672">
  <ele>-0.118</ele>
  <time>2026-09-02T22:12:30Z</time>
  <course>186.63</course>
  <speed>0.0282842712474619</speed>
  <fix>3d</fix>
</trkpt>
<trkpt lat="33.810313" lon="-118.393867">
  <ele>-0.12</ele>
  <time>2026-09-02T22:12:30Z</time>
  <course>0.0</course>
  <speed>0.0</speed>
  <fix>3d</fix>
</trkpt>
<trkpt lat="33.8103132" lon="-118.3938672">
  <ele>-0.119</ele>
  <time>2026-09-02T22:12:30Z</time>
  <course>186.63</course>
  <speed>0.0282842712474619</speed>
  <fix>3d</fix>
</trkpt>
<trkpt lat="33.810313" lon="-118.393867">
  <ele>-0.12</ele>
  <time>2026-09-02T22:12:30Z</time>
  <course>0.0</course>
  <speed>0.0</speed>
  <fix>3d</fix>
</trkpt>
<trkpt lat="33.8103132" lon="-118.3938672">
  <ele>-0.12</ele>
  <time>2026-09-02T22:12:30Z</time>
  <course>186.62</course>
  <speed>0.0282842712474619</speed>
  <fix>3d</fix>
</trkpt>
<trkpt lat="33.810313" lon="-118.393867">
  <ele>-0.12</ele>
  <time>2026-09-02T22:12:30Z</time>
  <course>0.0</course>
  <speed>0.0</speed>
  <fix>3d</fix>
</trkpt>
<trkpt lat="33.8103132" lon="-118.3938672">
  <ele>-0.121</ele>
  <time>2026-09-02T22:12:30Z</time>
  <course>186.62</course>
  <speed>0.0282842712474619</speed>
  <fix>3d</fix>
</trkpt>
<trkpt lat="33.810313" lon="-118.393867">
  <ele>-0.12</ele>
  <time>2026-09-02T22:12:30Z</time>
  <course>0.0</course>
  <speed>0.0</speed>
  <fix>3d</fix>
</trkpt>
<trkpt lat="33.8103132" lon="-118.3938672">
  <ele>-0.12</ele>
  <time>2026-09-02T22:12:30Z</time>
  <course>186.62</course>
  <speed>0.0282842712474619</speed>
  <fix>3d</fix>
</trkpt>
<trkpt lat="33.810313" lon="-118.393867">
  <ele>-0.12</ele>
  <time>2026-09-02T22:12:30Z</time>
  <course>0.0</course>
  <speed>0.0</speed>
  <fix>3d</fix>
</trkpt>
<trkpt lat="33.8103132" lon="-118.3938672">
  <ele>-0.119</ele>
  <time>2026-09-02T22:12:30Z</time>
  <course>186.61</course>
  <speed>0.0282842712474619</speed>
  <fix>3d</fix>
</trkpt>
<trkpt lat="33.810313" lon="-118.393867">
  <ele>-0.12</ele>
  <time>2026-09-02T22:12:30Z</time>
  <course>0.0</course>
  <speed>0.0</speed>
  <fix>3d</fix>
</trkpt>
<trkpt lat="33.8103132" lon="-118.3938672">
  <ele>-0.118</ele>
  <time>2026-09-02T22:12:30Z</time>
  <course>186.61</course>
  <speed>0.0282842712474619</speed>
  <fix>3d</fix>
</trkpt>
<trkpt lat="33.810313" lon="-118.393867">
  <ele>-0.12</ele>
  <time>2026-09-02T22:12:30Z</time>
  <course>0.0</course>
  <speed>0.0</speed>
  <fix>3d</fix>
</trkpt>
<trkpt lat="33.8103132" lon="-118.3938672">
  <ele>-0.119</ele>
  <time>2026-09-02T22:12:30Z</time>
  <course>186.6</course>
  <speed>0.0282842712474619</speed>
  <fix>3d</fix>
</trkpt>
<trkpt lat="33.810313" lon="-118.393867">
  <ele>-0.12</ele>
  <time>2026-09-02T22:12:30Z</time>
  <course>0.0</course>
  <speed>0.0</speed>
  <fix>3d</fix>
</trkpt>
<trkpt lat="33.8103132" lon="-118.3938672">
  <ele>-0.12</ele>
  <time>2026-09-02T22:12:30Z</time>
  <course>186.6</course>
  <speed>0.0282842712474619</speed>
  <fix>3d</fix>
</trkpt>
<trkpt lat="33.810313" lon="-118.393867">
  <ele>-0.12</ele>
  <time>2026-09-02T22:12:30Z</time>
  <course>0.0</course>
  <speed>0.0</speed>
  <fix>3d</fix>
</trkpt>
<trkpt lat="33.8103132" lon="-118.3938672">
  <ele>-0.121</ele>
  <time>2026-09-02T22:12:30Z</time>
  <course>186.6</course>
  <speed>0.0282842712474619</speed>
  <fix>3d</fix>
</trkpt>
<trkpt lat="33.810313" lon="-118.393867">
  <ele>-0.12</ele>
  <time>2026-09-02T22:12:30Z</time>
  <course>0.0</course>
  <speed>0.0</speed>
  <fix>3d</fix>
</trkpt>
<trkpt lat="33.8103132" lon="-118.3938672">
  <ele>-0.122</ele>
  <time>2026-09-02T22:12:30Z</time>
  <course>186.59</course>
  <speed>0.0282842712474619</speed>
  <fix>3d</fix>
</trkpt>
<trkpt lat="33.810313" lon="-118.393867">
  <ele>-0.12</ele>
  <time>2026-09-02T22:12:30Z</time>
  <course>0.0</course>
  <speed>0.0</speed>
  <fix>3d</fix>
</trkpt>
<trkpt lat="33.8103132" lon="-118.3938672">
  <ele>-0.122</ele>
  <time>2026-09-02T22:12:30Z</time>
  <course>186.59</course>
  <speed>0.0282842712474619</speed>
  <fix>3d</fix>
</trkpt>
<trkpt lat="33.810313" lon="-118.393867">
  <ele>-0.12</ele>
  <time>2026-09-02T22:12:30Z</time>
  <course>0.0</course>
  <speed>0.0</speed>
  <fix>3d</fix>
</trkpt>
<trkpt lat="33.8103132" lon="-118.3938672">
  <ele>-0.122</ele>
  <time>2026-09-02T22:12:30Z</time>
  <course>186.59</course>
  <speed>0.0282842712474619</speed>
  <fix>3d</fix>
</trkpt>
<trkpt lat="33.810313" lon="-118.393867">
  <ele>-0.12</ele>
  <time>2026-09-02T22:12:30Z</time>
  <course>0.0</course>
  <speed>0.0</speed>
  <fix>3d</fix>
</trkpt>
<trkpt lat="33.8103132" lon="-118.3938672">
  <ele>-0.121</ele>
  <time>2026-09-02T22:12:30Z</time>
  <course>186.58</course>
  <speed>0.0282842712474619</speed>
  <fix>3d</fix>
</trkpt>
<trkpt lat="33.810313" lon="-118.393867">
  <ele>-0.12</ele>
  <time>2026-09-02T22:12:30Z</time>
  <course>0.0</course>
  <speed>0.0</speed>
  <fix>3d</fix>
</trkpt>
<trkpt lat="33.8103132" lon="-118.3938672">
  <ele>-0.121</ele>
  <time>2026-09-02T22:12:30Z</time>
  <course>186.58</course>
  <speed>0.0282842712474619</speed>
  <fix>3d</fix>
</trkpt>
<trkpt lat="33.810313" lon="-118.393867">
  <ele>-0.12</ele>
  <time>2026-09-02T22:12:30Z</time>
  <course>0.0</course>
  <speed>0.0</speed>
  <fix>3d</fix>
</trkpt>
<trkpt lat="33.8103132" lon="-118.3938672">
  <ele>-0.121</ele>
  <time>2026-09-02T22:12:30Z</time>
  <course>186.57</course>
  <speed>0.0282842712474619</speed>
  <fix>3d</fix>
</trkpt>
<trkpt lat="33.810313" lon="-118.393867">
  <ele>-0.12</ele>
  <time>2026-09-02T22:12:30Z</time>
  <course>0.0</course>
  <speed>0.0</speed>
  <fix>3d</fix>
</trkpt>
<trkpt lat="33.8103132" lon="-118.3938672">
  <ele>-0.121</ele>
  <time>2026-09-02T22:12:30Z</time>
  <course>186.57</course>
  <speed>0.0282842712474619</speed>
  <fix>3d</fix>
</trkpt>
<trkpt lat="33.810313" lon="-118.393867">
  <ele>-0.12</ele>
  <time>2026-09-02T22:12:30Z</time>
  <course>0.0</course>
  <speed>0.0</speed>
  <fix>3d</fix>
</trkpt>
<trkpt lat="33.8103132" lon="-118.3938672">
  <ele>-0.121</ele>
  <time>2026-09-02T22:12:30Z</time>
  <course>186.57</course>
  <speed>0.0282842712474619</speed>
  <fix>3d</fix>
</trkpt>
<trkpt lat="33.810313" lon="-118.393867">
  <ele>-0.12</ele>
  <time>2026-09-02T22:12:30Z</time>
  <course>0.0</course>
  <speed>0.0</speed>
  <fix>3d</fix>
</trkpt>
<trkpt lat="33.8103132" lon="-118.3938672">
  <ele>-0.122</ele>
  <time>2026-09-02T22:12:30Z</time>
  <course>186.56</course>
  <speed>0.0282842712474619</speed>
  <fix>3d</fix>
</trkpt>
<trkpt lat="33.810313" lon="-118.393867">
  <ele>-0.12</ele>
  <time>2026-09-02T22:12:30Z</time>
  <course>0.0</course>
  <speed>0.0</speed>
  <fix>3d</fix>
</trkpt>
<trkpt lat="33.8103132" lon="-118.3938672">
  <ele>-0.124</ele>
  <time>2026-09-02T22:12:30Z</time>
  <course>186.56</course>
  <speed>0.0282842712474619</speed>
  <fix>3d</fix>
</trkpt>
<trkpt lat="33.810313" lon="-118.393867">
  <ele>-0.12</ele>
  <time>2026-09-02T22:12:30Z</time>
  <course>0.0</course>
  <speed>0.0</speed>
  <fix>3d</fix>
</trkpt>
<trkpt lat="33.8103132" lon="-118.3938672">
  <ele>-0.125</ele>
  <time>2026-09-02T22:12:30Z</time>
  <course>186.56</course>
  <speed>0.0282842712474619</speed>
  <fix>3d</fix>
</trkpt>
<trkpt lat="33.810313" lon="-118.393867">
  <ele>-0.12</ele>
  <time>2026-09-02T22:12:30Z</time>
  <course>0.0</course>
  <speed>0.0</speed>
  <fix>3d</fix>
</trkpt>
<trkpt lat="33.8103132" lon="-118.3938672">
  <ele>-0.126</ele>
  <time>2026-09-02T22:12:30Z</time>
  <course>186.55</course>
  <speed>0.0282842712474619</speed>
  <fix>3d</fix>
</trkpt>
<trkpt lat="33.810313" lon="-118.393867">
  <ele>-0.12</ele>
  <time>2026-09-02T22:12:30Z</time>
  <course>0.0</course>
  <speed>0.0</speed>
  <fix>3d</fix>
</trkpt>
<trkpt lat="33.8103132" lon="-118.3938672">
  <ele>-0.126</ele>
  <time>2026-09-02T22:12:30Z</time>
  <course>186.55</course>
  <speed>0.0282842712474619</speed>
  <fix>3d</fix>
</trkpt>
<trkpt lat="33.810313" lon="-118.393867">
  <ele>-0.12</ele>
  <time>2026-09-02T22:12:30Z</time>
  <course>0.0</course>
  <speed>0.0</speed>
  <fix>3d</fix>
</trkpt>
<trkpt lat="33.8103132" lon="-118.3938672">
  <ele>-0.126</ele>
  <time>2026-09-02T22:12:30Z</time>
  <course>186.55</course>
  <speed>0.0282842712474619</speed>
  <fix>3d</fix>
</trkpt>
<trkpt lat="33.810313" lon="-118.393867">
  <ele>-0.12</ele>
  <time>2026-09-02T22:12:30Z</time>
  <course>0.0</course>
  <speed>0.0</speed>
  <fix>3d</fix>
</trkpt>
<trkpt lat="33.8103132" lon="-118.3938672">
  <ele>-0.125</ele>
  <time>2026-09-02T22:12:30Z</time>
  <course>186.54</course>
  <speed>0.0282842712474619</speed>
  <fix>3d</fix>
</trkpt>
<trkpt lat="33.810313" lon="-118.393867">
  <ele>-0.12</ele>
  <time>2026-09-02T22:12:30Z</time>
  <course>0.0</course>
  <speed>0.0</speed>
  <fix>3d</fix>
</trkpt>
<trkpt lat="33.8103132" lon="-118.3938672">
  <ele>-0.125</ele>
  <time>2026-09-02T22:12:30Z</time>
  <course>186.54</course>
  <speed>0.0282842712474619</speed>
  <fix>3d</fix>
</trkpt>
<trkpt lat="33.810313" lon="-118.393867">
  <ele>-0.12</ele>
  <time>2026-09-02T22:12:30Z</time>
  <course>0.0</course>
  <speed>0.0</speed>
  <fix>3d</fix>
</trkpt>
<trkpt lat="33.8103132" lon="-118.3938672">
  <ele>-0.125</ele>
  <time>2026-09-02T22:12:30Z</time>
  <course>186.54</course>
  <speed>0.0282842712474619</speed>
  <fix>3d</fix>
</trkpt>
<trkpt lat="33.810313" lon="-118.393867">
  <ele>-0.12</ele>
  <time>2026-09-02T22:12:30Z</time>
  <course>0.0</course>
  <speed>0.0</speed>
  <fix>3d</fix>
</trkpt>
<trkpt lat="33.8103132" lon="-118.3938672">
  <ele>-0.125</ele>
  <time>2026-09-02T22:12:30Z</time>
  <course>186.53</course>
  <speed>0.0282842712474619</speed>
  <fix>3d</fix>
</trkpt>
<trkpt lat="33.810313" lon="-118.393867">
  <ele>-0.12</ele>
  <time>2026-09-02T22:12:30Z</time>
  <course>0.0</course>
  <speed>0.0</speed>
  <fix>3d</fix>
</trkpt>
<trkpt lat="33.8103132" lon="-118.3938672">
  <ele>-0.126</ele>
  <time>2026-09-02T22:12:30Z</time>
  <course>186.53</course>
  <speed>0.0282842712474619</speed>
  <fix>3d</fix>
</trkpt>
<trkpt lat="33.810313" lon="-118.393867">
  <ele>-0.12</ele>
  <time>2026-09-02T22:12:30Z</time>
  <course>0.0</course>
  <speed>0.0</speed>
  <fix>3d</fix>
</trkpt>
<trkpt lat="33.8103132" lon="-118.3938672">
  <ele>-0.127</ele>
  <time>2026-09-02T22:12:30Z</time>
  <course>186.53</course>
  <speed>0.0282842712474619</speed>
  <fix>3d</fix>
</trkpt>
<trkpt lat="33.810313" lon="-118.393867">
  <ele>-0.12</ele>
  <time>2026-09-02T22:12:30Z</time>
  <course>0.0</course>
  <speed>0.0</speed>
  <fix>3d</fix>
</trkpt>
<trkpt lat="33.8103132" lon="-118.3938672">
  <ele>-0.128</ele>
  <time>2026-09-02T22:12:30Z</time>
  <course>186.52</course>
  <speed>0.0282842712474619</speed>
  <fix>3d</fix>
</trkpt>
<trkpt lat="33.810313" lon="-118.393867">
  <ele>-0.12</ele>
  <time>2026-09-02T22:12:30Z</time>
  <course>0.0</course>
  <speed>0.0</speed>
  <fix>3d</fix>
</trkpt>
<trkpt lat="33.8103132" lon="-118.3938672">
  <ele>-0.128</ele>
  <time>2026-09-02T22:12:30Z</time>
  <course>186.52</course>
  <speed>0.0282842712474619</speed>
  <fix>3d</fix>
</trkpt>
<trkpt lat="33.810313" lon="-118.393867">
  <ele>-0.12</ele>
  <time>2026-09-02T22:12:30Z</time>
  <course>0.0</course>
  <speed>0.0</speed>
  <fix>3d</fix>
</trkpt>
<trkpt lat="33.8103132" lon="-118.3938672">
  <ele>-0.127</ele>
  <time>2026-09-02T22:12:30Z</time>
  <course>186.52</course>
  <speed>0.0282842712474619</speed>
  <fix>3d</fix>
</trkpt>
<trkpt lat="33.810313" lon="-118.393867">
  <ele>-0.12</ele>
  <time>2026-09-02T22:12:30Z</time>
  <course>0.0</course>
  <speed>0.0</speed>
  <fix>3d</fix>
</trkpt>
<trkpt lat="33.8103132" lon="-118.3938672">
  <ele>-0.126</ele>
  <time>2026-09-02T22:12:30Z</time>
  <course>186.51</course>
  <speed>0.0282842712474619</speed>
  <fix>3d</fix>
</trkpt>
<trkpt lat="33.810313" lon="-118.393867">
  <ele>-0.12</ele>
  <time>2026-09-02T22:12:30Z</time>
  <course>0.0</course>
  <speed>0.0</speed>
  <fix>3d</fix>
</trkpt>
<trkpt lat="33.8103132" lon="-118.3938672">
  <ele>-0.125</ele>
  <time>2026-09-02T22:12:30Z</time>
  <course>186.51</course>
  <speed>0.0282842712474619</speed>
  <fix>3d</fix>
</trkpt>
<trkpt lat="33.810313" lon="-118.393867">
  <ele>-0.12</ele>
  <time>2026-09-02T22:12:30Z</time>
  <course>0.0</course>
  <speed>0.0</speed>
  <fix>3d</fix>
</trkpt>
<trkpt lat="33.8103132" lon="-118.3938672">
  <ele>-0.124</ele>
  <time>2026-09-02T22:12:30Z</time>
  <course>186.51</course>
  <speed>0.0282842712474619</speed>
  <fix>3d</fix>
</trkpt>
<trkpt lat="33.810313" lon="-118.393867">
  <ele>-0.12</ele>
  <time>2026-09-02T22:12:30Z</time>
  <course>0.0</course>
  <speed>0.0</speed>
  <fix>3d</fix>
</trkpt>
<trkpt lat="33.8103132" lon="-118.3938672">
  <ele>-0.122</ele>
  <time>2026-09-02T22:12:30Z</time>
  <course>186.51</course>
  <speed>0.0282842712474619</speed>
  <fix>3d</fix>
</trkpt>
<trkpt lat="33.810313" lon="-118.393867">
  <ele>-0.12</ele>
  <time>2026-09-02T22:12:30Z</time>
  <course>0.0</course>
  <speed>0.0</speed>
  <fix>3d</fix>
</trkpt>
<trkpt lat="33.8103132" lon="-118.3938672">
  <ele>-0.121</ele>
  <time>2026-09-02T22:12:30Z</time>
  <course>186.5</course>
  <speed>0.0282842712474619</speed>
  <fix>3d</fix>
</trkpt>
<trkpt lat="33.810313" lon="-118.393867">
  <ele>-0.12</ele>
  <time>2026-09-02T22:12:30Z</time>
  <course>0.0</course>
  <speed>0.0</speed>
  <fix>3d</fix>
</trkpt>
<trkpt lat="33.8103132" lon="-118.3938672">
  <ele>-0.12</ele>
  <time>2026-09-02T22:12:30Z</time>
  <course>186.5</course>
  <speed>0.0282842712474619</speed>
  <fix>3d</fix>
</trkpt>
<trkpt lat="33.810313" lon="-118.393867">
  <ele>-0.12</ele>
  <time>2026-09-02T22:12:30Z</time>
  <course>0.0</course>
  <speed>0.0</speed>
  <fix>3d</fix>
</trkpt>
<trkpt lat="33.8103132" lon="-118.3938672">
  <ele>-0.119</ele>
  <time>2026-09-02T22:12:30Z</time>
  <course>186.5</course>
  <speed>0.0282842712474619</speed>
  <fix>3d</fix>
</trkpt>
<trkpt lat="33.810313" lon="-118.393867">
  <ele>-0.12</ele>
  <time>2026-09-02T22:12:30Z</time>
  <course>0.0</course>
  <speed>0.0</speed>
  <fix>3d</fix>
</trkpt>
<trkpt lat="33.8103132" lon="-118.3938672">
  <ele>-0.119</ele>
  <time>2026-09-02T22:12:30Z</time>
  <course>186.49</course>
  <speed>0.0282842712474619</speed>
  <fix>3d</fix>
</trkpt>
<trkpt lat="33.810313" lon="-118.393867">
  <ele>-0.12</ele>
  <time>2026-09-02T22:12:30Z</time>
  <course>0.0</course>
  <speed>0.0</speed>
  <fix>3d</fix>
</trkpt>
<trkpt lat="33.8103132" lon="-118.3938672">
  <ele>-0.119</ele>
  <time>2026-09-02T22:12:30Z</time>
  <course>186.49</course>
  <speed>0.0282842712474619</speed>
  <fix>3d</fix>
</trkpt>
<trkpt lat="33.810313" lon="-118.393867">
  <ele>-0.12</ele>
  <time>2026-09-02T22:12:30Z</time>
  <course>0.0</course>
  <speed>0.0</speed>
  <fix>3d</fix>
</trkpt>
<trkpt lat="33.8103132" lon="-118.3938672">
  <ele>-0.12</ele>
  <time>2026-09-02T22:12:30Z</time>
  <course>186.49</course>
  <speed>0.0282842712474619</speed>
  <fix>3d</fix>
</trkpt>
<trkpt lat="33.810313" lon="-118.393867">
  <ele>-0.12</ele>
  <time>2026-09-02T22:12:30Z</time>
  <course>0.0</course>
  <speed>0.0</speed>
  <fix>3d</fix>
</trkpt>
<trkpt lat="33.8103132" lon="-118.3938672">
  <ele>-0.121</ele>
  <time>2026-09-02T22:12:30Z</time>
  <course>186.48</course>
  <speed>0.0282842712474619</speed>
  <fix>3d</fix>
</trkpt>
<trkpt lat="33.810313" lon="-118.393867">
  <ele>-0.12</ele>
  <time>2026-09-02T22:12:30Z</time>
  <course>0.0</course>
  <speed>0.0</speed>
  <fix>3d</fix>
</trkpt>
<trkpt lat="33.8103132" lon="-118.3938672">
  <ele>-0.121</ele>
  <time>2026-09-02T22:12:30Z</time>
  <course>186.48</course>
  <speed>0.0282842712474619</speed>
  <fix>3d</fix>
</trkpt>
<trkpt lat="33.810313" lon="-118.393867">
  <ele>-0.12</ele>
  <time>2026-09-02T22:12:30Z</time>
  <course>0.0</course>
  <speed>0.0</speed>
  <fix>3d</fix>
</trkpt>
<trkpt lat="33.8103132" lon="-118.3938672">
  <ele>-0.121</ele>
  <time>2026-09-02T22:12:30Z</time>
  <course>186.48</course>
  <speed>0.0282842712474619</speed>
  <fix>3d</fix>
</trkpt>
<trkpt lat="33.810313" lon="-118.393867">
  <ele>-0.12</ele>
  <time>2026-09-02T22:12:30Z</time>
  <course>0.0</course>
  <speed>0.0</speed>
  <fix>3d</fix>
</trkpt>
<trkpt lat="33.8103132" lon="-118.3938672">
  <ele>-0.122</ele>
  <time>2026-09-02T22:12:30Z</time>
  <course>186.48</course>
  <speed>0.0282842712474619</speed>
  <fix>3d</fix>
</trkpt>
<trkpt lat="33.810313" lon="-118.393867">
  <ele>-0.12</ele>
  <time>2026-09-02T22:12:30Z</time>
  <course>0.0</course>
  <speed>0.0</speed>
  <fix>3d</fix>
</trkpt>
<trkpt lat="33.8103132" lon="-118.3938672">
  <ele>-0.122</ele>
  <time>2026-09-02T22:12:30Z</time>
  <course>186.47</course>
  <speed>0.0282842712474619</speed>
  <fix>3d</fix>
</trkpt>
<trkpt lat="33.810313" lon="-118.393867">
  <ele>-0.12</ele>
  <time>2026-09-02T22:12:30Z</time>
  <course>0.0</course>
  <speed>0.0</speed>
  <fix>3d</fix>
</trkpt>
<trkpt lat="33.8103132" lon="-118.3938672">
  <ele>-0.123</ele>
  <time>2026-09-02T22:12:31Z</time>
  <course>186.47</course>
  <speed>0.0282842712474619</speed>
  <fix>3d</fix>
</trkpt>
<trkpt lat="33.810313" lon="-118.393867">
  <ele>-0.12</ele>
  <time>2026-09-02T22:12:31Z</time>
  <course>0.0</course>
  <speed>0.0</speed>
  <fix>3d</fix>
</trkpt>
<trkpt lat="33.8103132" lon="-118.3938672">
  <ele>-0.124</ele>
  <time>2026-09-02T22:12:31Z</time>
  <course>186.47</course>
  <speed>0.0282842712474619</speed>
  <fix>3d</fix>
</trkpt>
<trkpt lat="33.810313" lon="-118.393867">
  <ele>-0.12</ele>
  <time>2026-09-02T22:12:31Z</time>
  <course>0.0</course>
  <speed>0.0</speed>
  <fix>3d</fix>
</trkpt>
<trkpt lat="33.8103132" lon="-118.3938672">
  <ele>-0.124</ele>
  <time>2026-09-02T22:12:31Z</time>
  <course>186.47</course>
  <speed>0.0282842712474619</speed>
  <fix>3d</fix>
</trkpt>
<trkpt lat="33.810313" lon="-118.393867">
  <ele>-0.12</ele>
  <time>2026-09-02T22:12:31Z</time>
  <course>0.0</course>
  <speed>0.0</speed>
  <fix>3d</fix>
</trkpt>
<trkpt lat="33.8103132" lon="-118.3938672">
  <ele>-0.123</ele>
  <time>2026-09-02T22:12:31Z</time>
  <course>186.46</course>
  <speed>0.0282842712474619</speed>
  <fix>3d</fix>
</trkpt>
<trkpt lat="33.810313" lon="-118.393867">
  <ele>-0.12</ele>
  <time>2026-09-02T22:12:31Z</time>
  <course>0.0</course>
  <speed>0.0</speed>
  <fix>3d</fix>
</trkpt>
<trkpt lat="33.8103132" lon="-118.3938672">
  <ele>-0.122</ele>
  <time>2026-09-02T22:12:31Z</time>
  <course>186.46</course>
  <speed>0.0282842712474619</speed>
  <fix>3d</fix>
</trkpt>
<trkpt lat="33.810313" lon="-118.393867">
  <ele>-0.12</ele>
  <time>2026-09-02T22:12:31Z</time>
  <course>0.0</course>
  <speed>0.0</speed>
  <fix>3d</fix>
</trkpt>
<trkpt lat="33.8103132" lon="-118.3938672">
  <ele>-0.12</ele>
  <time>2026-09-02T22:12:31Z</time>
  <course>186.46</course>
  <speed>0.0282842712474619</speed>
  <fix>3d</fix>
</trkpt>
<trkpt lat="33.810313" lon="-118.393867">
  <ele>-0.12</ele>
  <time>2026-09-02T22:12:31Z</time>
  <course>0.0</course>
  <speed>0.0</speed>
  <fix>3d</fix>
</trkpt>
<trkpt lat="33.8103132" lon="-118.3938672">
  <ele>-0.119</ele>
  <time>2026-09-02T22:12:31Z</time>
  <course>186.46</course>
  <speed>0.0282842712474619</speed>
  <fix>3d</fix>
</trkpt>
<trkpt lat="33.810313" lon="-118.393867">
  <ele>-0.12</ele>
  <time>2026-09-02T22:12:31Z</time>
  <course>0.0</course>
  <speed>0.0</speed>
  <fix>3d</fix>
</trkpt>
<trkpt lat="33.8103132" lon="-118.3938672">
  <ele>-0.118</ele>
  <time>2026-09-02T22:12:31Z</time>
  <course>186.45</course>
  <speed>0.0282842712474619</speed>
  <fix>3d</fix>
</trkpt>
<trkpt lat="33.810313" lon="-118.393867">
  <ele>-0.12</ele>
  <time>2026-09-02T22:12:31Z</time>
  <course>0.0</course>
  <speed>0.0</speed>
  <fix>3d</fix>
</trkpt>
<trkpt lat="33.8103132" lon="-118.3938672">
  <ele>-0.117</ele>
  <time>2026-09-02T22:12:31Z</time>
  <course>186.45</course>
  <speed>0.0282842712474619</speed>
  <fix>3d</fix>
</trkpt>
<trkpt lat="33.810313" lon="-118.393867">
  <ele>-0.12</ele>
  <time>2026-09-02T22:12:31Z</time>
  <course>0.0</course>
  <speed>0.0</speed>
  <fix>3d</fix>
</trkpt>
<trkpt lat="33.8103132" lon="-118.3938672">
  <ele>-0.117</ele>
  <time>2026-09-02T22:12:31Z</time>
  <course>186.45</course>
  <speed>0.0282842712474619</speed>
  <fix>3d</fix>
</trkpt>
<trkpt lat="33.810313" lon="-118.393867">
  <ele>-0.12</ele>
  <time>2026-09-02T22:12:31Z</time>
  <course>0.0</course>
  <speed>0.0</speed>
  <fix>3d</fix>
</trkpt>
<trkpt lat="33.8103132" lon="-118.3938672">
  <ele>-0.119</ele>
  <time>2026-09-02T22:12:31Z</time>
  <course>186.45</course>
  <speed>0.0282842712474619</speed>
  <fix>3d</fix>
</trkpt>
<trkpt lat="33.810313" lon="-118.393867">
  <ele>-0.12</ele>
  <time>2026-09-02T22:12:31Z</time>
  <course>0.0</course>
  <speed>0.0</speed>
  <fix>3d</fix>
</trkpt>
<trkpt lat="33.8103132" lon="-118.3938672">
  <ele>-0.12</ele>
  <time>2026-09-02T22:12:31Z</time>
  <course>186.45</course>
  <speed>0.0282842712474619</speed>
  <fix>3d</fix>
</trkpt>
<trkpt lat="33.810313" lon="-118.393867">
  <ele>-0.12</ele>
  <time>2026-09-02T22:12:31Z</time>
  <course>0.0</course>
  <speed>0.0</speed>
  <fix>3d</fix>
</trkpt>
<trkpt lat="33.8103132" lon="-118.3938672">
  <ele>-0.121</ele>
  <time>2026-09-02T22:12:31Z</time>
  <course>186.44</course>
  <speed>0.0282842712474619</speed>
  <fix>3d</fix>
</trkpt>
<trkpt lat="33.810313" lon="-118.393867">
  <ele>-0.12</ele>
  <time>2026-09-02T22:12:31Z</time>
  <course>0.0</course>
  <speed>0.0</speed>
  <fix>3d</fix>
</trkpt>
<trkpt lat="33.8103132" lon="-118.3938672">
  <ele>-0.121</ele>
  <time>2026-09-02T22:12:31Z</time>
  <course>186.44</course>
  <speed>0.0282842712474619</speed>
  <fix>3d</fix>
</trkpt>
<trkpt lat="33.810313" lon="-118.393867">
  <ele>-0.12</ele>
  <time>2026-09-02T22:12:31Z</time>
  <course>0.0</course>
  <speed>0.0</speed>
  <fix>3d</fix>
</trkpt>
<trkpt lat="33.8103132" lon="-118.3938672">
  <ele>-0.119</ele>
  <time>2026-09-02T22:12:31Z</time>
  <course>186.44</course>
  <speed>0.0282842712474619</speed>
  <fix>3d</fix>
</trkpt>
<trkpt lat="33.810313" lon="-118.393867">
  <ele>-0.12</ele>
  <time>2026-09-02T22:12:31Z</time>
  <course>0.0</course>
  <speed>0.0</speed>
  <fix>3d</fix>
</trkpt>
<trkpt lat="33.8103132" lon="-118.3938672">
  <ele>-0.117</ele>
  <time>2026-09-02T22:12:31Z</time>
  <course>186.44</course>
  <speed>0.0282842712474619</speed>
  <fix>3d</fix>
</trkpt>
<trkpt lat="33.810313" lon="-118.393867">
  <ele>-0.12</ele>
  <time>2026-09-02T22:12:31Z</time>
  <course>0.0</course>
  <speed>0.0</speed>
  <fix>3d</fix>
</trkpt>
<trkpt lat="33.8103132" lon="-118.3938672">
  <ele>-0.115</ele>
  <time>2026-09-02T22:12:31Z</time>
  <course>186.43</course>
  <speed>0.0282842712474619</speed>
  <fix>3d</fix>
</trkpt>
<trkpt lat="33.810313" lon="-118.393867">
  <ele>-0.12</ele>
  <time>2026-09-02T22:12:31Z</time>
  <course>0.0</course>
  <speed>0.0</speed>
  <fix>3d</fix>
</trkpt>
<trkpt lat="33.8103132" lon="-118.3938672">
  <ele>-0.114</ele>
  <time>2026-09-02T22:12:31Z</time>
  <course>186.43</course>
  <speed>0.0282842712474619</speed>
  <fix>3d</fix>
</trkpt>
<trkpt lat="33.810313" lon="-118.393867">
  <ele>-0.12</ele>
  <time>2026-09-02T22:12:31Z</time>
  <course>0.0</course>
  <speed>0.0</speed>
  <fix>3d</fix>
</trkpt>
<trkpt lat="33.8103132" lon="-118.3938672">
  <ele>-0.112</ele>
  <time>2026-09-02T22:12:31Z</time>
  <course>186.43</course>
  <speed>0.0282842712474619</speed>
  <fix>3d</fix>
</trkpt>
<trkpt lat="33.810313" lon="-118.393867">
  <ele>-0.12</ele>
  <time>2026-09-02T22:12:31Z</time>
  <course>0.0</course>
  <speed>0.0</speed>
  <fix>3d</fix>
</trkpt>
<trkpt lat="33.8103132" lon="-118.3938672">
  <ele>-0.112</ele>
  <time>2026-09-02T22:12:31Z</time>
  <course>186.43</course>
  <speed>0.0282842712474619</speed>
  <fix>3d</fix>
</trkpt>
<trkpt lat="33.810313" lon="-118.393867">
  <ele>-0.12</ele>
  <time>2026-09-02T22:12:31Z</time>
  <course>0.0</course>
  <speed>0.0</speed>
  <fix>3d</fix>
</trkpt>
<trkpt lat="33.8103132" lon="-118.3938672">
  <ele>-0.113</ele>
  <time>2026-09-02T22:12:31Z</time>
  <course>186.42</course>
  <speed>0.0282842712474619</speed>
  <fix>3d</fix>
</trkpt>
<trkpt lat="33.810313" lon="-118.393867">
  <ele>-0.12</ele>
  <time>2026-09-02T22:12:31Z</time>
  <course>0.0</course>
  <speed>0.0</speed>
  <fix>3d</fix>
</trkpt>
<trkpt lat="33.8103132" lon="-118.3938672">
  <ele>-0.115</ele>
  <time>2026-09-02T22:12:31Z</time>
  <course>186.42</course>
  <speed>0.0282842712474619</speed>
  <fix>3d</fix>
</trkpt>
<trkpt lat="33.810313" lon="-118.393867">
  <ele>-0.12</ele>
  <time>2026-09-02T22:12:31Z</time>
  <course>0.0</course>
  <speed>0.0</speed>
  <fix>3d</fix>
</trkpt>
<trkpt lat="33.8103132" lon="-118.3938672">
  <ele>-0.117</ele>
  <time>2026-09-02T22:12:31Z</time>
  <course>186.42</course>
  <speed>0.0282842712474619</speed>
  <fix>3d</fix>
</trkpt>
<trkpt lat="33.810313" lon="-118.393867">
  <ele>-0.12</ele>
  <time>2026-09-02T22:12:31Z</time>
  <course>0.0</course>
  <speed>0.0</speed>
  <fix>3d</fix>
</trkpt>
<trkpt lat="33.8103132" lon="-118.3938672">
  <ele>-0.118</ele>
  <time>2026-09-02T22:12:31Z</time>
  <course>186.42</course>
  <speed>0.0282842712474619</speed>
  <fix>3d</fix>
</trkpt>
<trkpt lat="33.810313" lon="-118.393867">
  <ele>-0.12</ele>
  <time>2026-09-02T22:12:31Z</time>
  <course>0.0</course>
  <speed>0.0</speed>
  <fix>3d</fix>
</trkpt>
<trkpt lat="33.8103132" lon="-118.3938672">
  <ele>-0.12</ele>
  <time>2026-09-02T22:12:31Z</time>
  <course>186.42</course>
  <speed>0.0282842712474619</speed>
  <fix>3d</fix>
</trkpt>
<trkpt lat="33.810313" lon="-118.393867">
  <ele>-0.12</ele>
  <time>2026-09-02T22:12:31Z</time>
  <course>0.0</course>
  <speed>0.0</speed>
  <fix>3d</fix>
</trkpt>
<trkpt lat="33.8103132" lon="-118.3938672">
  <ele>-0.121</ele>
  <time>2026-09-02T22:12:31Z</time>
  <course>186.41</course>
  <speed>0.0282842712474619</speed>
  <fix>3d</fix>
</trkpt>
<trkpt lat="33.810313" lon="-118.393867">
  <ele>-0.12</ele>
  <time>2026-09-02T22:12:31Z</time>
  <course>0.0</course>
  <speed>0.0</speed>
  <fix>3d</fix>
</trkpt>
<trkpt lat="33.8103132" lon="-118.3938672">
  <ele>-0.122</ele>
  <time>2026-09-02T22:12:31Z</time>
  <course>186.41</course>
  <speed>0.0282842712474619</speed>
  <fix>3d</fix>
</trkpt>
<trkpt lat="33.810313" lon="-118.393867">
  <ele>-0.12</ele>
  <time>2026-09-02T22:12:31Z</time>
  <course>0.0</course>
  <speed>0.0</speed>
  <fix>3d</fix>
</trkpt>
<trkpt lat="33.8103132" lon="-118.3938672">
  <ele>-0.122</ele>
  <time>2026-09-02T22:12:31Z</time>
  <course>186.41</course>
  <speed>0.0282842712474619</speed>
  <fix>3d</fix>
</trkpt>
<trkpt lat="33.810313" lon="-118.393867">
  <ele>-0.12</ele>
  <time>2026-09-02T22:12:31Z</time>
  <course>0.0</course>
  <speed>0.0</speed>
  <fix>3d</fix>
</trkpt>
<trkpt lat="33.8103132" lon="-118.3938672">
  <ele>-0.121</ele>
  <time>2026-09-02T22:12:31Z</time>
  <course>186.41</course>
  <speed>0.022360679774997897</speed>
  <fix>3d</fix>
</trkpt>
<trkpt lat="33.810313" lon="-118.393867">
  <ele>-0.12</ele>
  <time>2026-09-02T22:12:31Z</time>
  <course>0.0</course>
  <speed>0.0</speed>
  <fix>3d</fix>
</trkpt>
<trkpt lat="33.8103132" lon="-118.3938672">
  <ele>-0.121</ele>
  <time>2026-09-02T22:12:31Z</time>
  <course>186.41</course>
  <speed>0.022360679774997897</speed>
  <fix>3d</fix>
</trkpt>
<trkpt lat="33.810313" lon="-118.393867">
  <ele>-0.12</ele>
  <time>2026-09-02T22:12:31Z</time>
  <course>0.0</course>
  <speed>0.0</speed>
  <fix>3d</fix>
</trkpt>
<trkpt lat="33.8103132" lon="-118.3938672">
  <ele>-0.122</ele>
  <time>2026-09-02T22:12:31Z</time>
  <course>186.4</course>
  <speed>0.022360679774997897</speed>
  <fix>3d</fix>
</trkpt>
<trkpt lat="33.810313" lon="-118.393867">
  <ele>-0.12</ele>
  <time>2026-09-02T22:12:31Z</time>
  <course>0.0</course>
  <speed>0.0</speed>
  <fix>3d</fix>
</trkpt>
<trkpt lat="33.8103132" lon="-118.3938672">
  <ele>-0.124</ele>
  <time>2026-09-02T22:12:31Z</time>
  <course>186.4</course>
  <speed>0.022360679774997897</speed>
  <fix>3d</fix>
</trkpt>
<trkpt lat="33.810313" lon="-118.393867">
  <ele>-0.12</ele>
  <time>2026-09-02T22:12:31Z</time>
  <course>0.0</course>
  <speed>0.0</speed>
  <fix>3d</fix>
</trkpt>
<trkpt lat="33.8103132" lon="-118.3938672">
  <ele>-0.126</ele>
  <time>2026-09-02T22:12:31Z</time>
  <course>186.4</course>
  <speed>0.022360679774997897</speed>
  <fix>3d</fix>
</trkpt>
<trkpt lat="33.810313" lon="-118.393867">
  <ele>-0.12</ele>
  <time>2026-09-02T22:12:31Z</time>
  <course>0.0</course>
  <speed>0.0</speed>
  <fix>3d</fix>
</trkpt>
<trkpt lat="33.8103132" lon="-118.3938672">
  <ele>-0.128</ele>
  <time>2026-09-02T22:12:31Z</time>
  <course>186.4</course>
  <speed>0.022360679774997897</speed>
  <fix>3d</fix>
</trkpt>
<trkpt lat="33.810313" lon="-118.393867">
  <ele>-0.12</ele>
  <time>2026-09-02T22:12:31Z</time>
  <course>0.0</course>
  <speed>0.0</speed>
  <fix>3d</fix>
</trkpt>
<trkpt lat="33.8103132" lon="-118.3938672">
  <ele>-0.128</ele>
  <time>2026-09-02T22:12:31Z</time>
  <course>186.4</course>
  <speed>0.022360679774997897</speed>
  <fix>3d</fix>
</trkpt>
<trkpt lat="33.810313" lon="-118.393867">
  <ele>-0.12</ele>
  <time>2026-09-02T22:12:31Z</time>
  <course>0.0</course>
  <speed>0.0</speed>
  <fix>3d</fix>
</trkpt>
<trkpt lat="33.8103132" lon="-118.3938672">
  <ele>-0.127</ele>
  <time>2026-09-02T22:12:31Z</time>
  <course>186.4</course>
  <speed>0.022360679774997897</speed>
  <fix>3d</fix>
</trkpt>
<trkpt lat="33.810313" lon="-118.393867">
  <ele>-0.12</ele>
  <time>2026-09-02T22:12:31Z</time>
  <course>0.0</course>
  <speed>0.0</speed>
  <fix>3d</fix>
</trkpt>
<trkpt lat="33.8103132" lon="-118.3938672">
  <ele>-0.126</ele>
  <time>2026-09-02T22:12:31Z</time>
  <course>186.39</course>
  <speed>0.022360679774997897</speed>
  <fix>3d</fix>
</trkpt>
<trkpt lat="33.810313" lon="-118.393867">
  <ele>-0.12</ele>
  <time>2026-09-02T22:12:31Z</time>
  <course>0.0</course>
  <speed>0.0</speed>
  <fix>3d</fix>
</trkpt>
<trkpt lat="33.8103132" lon="-118.3938672">
  <ele>-0.125</ele>
  <time>2026-09-02T22:12:31Z</time>
  <course>186.39</course>
  <speed>0.022360679774997897</speed>
  <fix>3d</fix>
</trkpt>
<trkpt lat="33.810313" lon="-118.393867">
  <ele>-0.12</ele>
  <time>2026-09-02T22:12:31Z</time>
  <course>0.0</course>
  <speed>0.0</speed>
  <fix>3d</fix>
</trkpt>
<trkpt lat="33.8103132" lon="-118.3938672">
  <ele>-0.123</ele>
  <time>2026-09-02T22:12:31Z</time>
  <course>186.39</course>
  <speed>0.022360679774997897</speed>
  <fix>3d</fix>
</trkpt>
<trkpt lat="33.810313" lon="-118.393867">
  <ele>-0.12</ele>
  <time>2026-09-02T22:12:31Z</time>
  <course>0.0</course>
  <speed>0.0</speed>
  <fix>3d</fix>
</trkpt>
<trkpt lat="33.8103132" lon="-118.3938672">
  <ele>-0.124</ele>
  <time>2026-09-02T22:12:31Z</time>
  <course>186.39</course>
  <speed>0.022360679774997897</speed>
  <fix>3d</fix>
</trkpt>
<trkpt lat="33.810313" lon="-118.393867">
  <ele>-0.12</ele>
  <time>2026-09-02T22:12:31Z</time>
  <course>0.0</course>
  <speed>0.0</speed>
  <fix>3d</fix>
</trkpt>
<trkpt lat="33.8103132" lon="-118.3938672">
  <ele>-0.125</ele>
  <time>2026-09-02T22:12:31Z</time>
  <course>186.39</course>
  <speed>0.022360679774997897</speed>
  <fix>3d</fix>
</trkpt>
<trkpt lat="33.810313" lon="-118.393867">
  <ele>-0.12</ele>
  <time>2026-09-02T22:12:31Z</time>
  <course>0.0</course>
  <speed>0.0</speed>
  <fix>3d</fix>
</trkpt>
<trkpt lat="33.8103132" lon="-118.3938672">
  <ele>-0.125</ele>
  <time>2026-09-02T22:12:31Z</time>
  <course>186.39</course>
  <speed>0.022360679774997897</speed>
  <fix>3d</fix>
</trkpt>
<trkpt lat="33.810313" lon="-118.393867">
  <ele>-0.12</ele>
  <time>2026-09-02T22:12:31Z</time>
  <course>0.0</course>
  <speed>0.0</speed>
  <fix>3d</fix>
</trkpt>
<trkpt lat="33.8103132" lon="-118.3938672">
  <ele>-0.125</ele>
  <time>2026-09-02T22:12:31Z</time>
  <course>186.38</course>
  <speed>0.022360679774997897</speed>
  <fix>3d</fix>
</trkpt>
<trkpt lat="33.810313" lon="-118.393867">
  <ele>-0.12</ele>
  <time>2026-09-02T22:12:31Z</time>
  <course>0.0</course>
  <speed>0.0</speed>
  <fix>3d</fix>
</trkpt>
<trkpt lat="33.8103132" lon="-118.3938672">
  <ele>-0.124</ele>
  <time>2026-09-02T22:12:31Z</time>
  <course>186.38</course>
  <speed>0.022360679774997897</speed>
  <fix>3d</fix>
</trkpt>
<trkpt lat="33.810313" lon="-118.393867">
  <ele>-0.12</ele>
  <time>2026-09-02T22:12:31Z</time>
  <course>0.0</course>
  <speed>0.0</speed>
  <fix>3d</fix>
</trkpt>
<trkpt lat="33.8103132" lon="-118.3938672">
  <ele>-0.124</ele>
  <time>2026-09-02T22:12:31Z</time>
  <course>186.38</course>
  <speed>0.022360679774997897</speed>
  <fix>3d</fix>
</trkpt>
<trkpt lat="33.810313" lon="-118.393867">
  <ele>-0.12</ele>
  <time>2026-09-02T22:12:31Z</time>
  <course>0.0</course>
  <speed>0.0</speed>
  <fix>3d</fix>
</trkpt>
<trkpt lat="33.8103132" lon="-118.3938672">
  <ele>-0.124</ele>
  <time>2026-09-02T22:12:31Z</time>
  <course>186.38</course>
  <speed>0.022360679774997897</speed>
  <fix>3d</fix>
</trkpt>
<trkpt lat="33.810313" lon="-118.393867">
  <ele>-0.12</ele>
  <time>2026-09-02T22:12:31Z</time>
  <course>0.0</course>
  <speed>0.0</speed>
  <fix>3d</fix>
</trkpt>
<trkpt lat="33.8103132" lon="-118.3938672">
  <ele>-0.124</ele>
  <time>2026-09-02T22:12:31Z</time>
  <course>186.38</course>
  <speed>0.022360679774997897</speed>
  <fix>3d</fix>
</trkpt>
<trkpt lat="33.810313" lon="-118.393867">
  <ele>-0.12</ele>
  <time>2026-09-02T22:12:31Z</time>
  <course>0.0</course>
  <speed>0.0</speed>
  <fix>3d</fix>
</trkpt>
<trkpt lat="33.8103132" lon="-118.3938672">
  <ele>-0.123</ele>
  <time>2026-09-02T22:12:31Z</time>
  <course>186.38</course>
  <speed>0.022360679774997897</speed>
  <fix>3d</fix>
</trkpt>
<trkpt lat="33.810313" lon="-118.393867">
  <ele>-0.12</ele>
  <time>2026-09-02T22:12:31Z</time>
  <course>0.0</course>
  <speed>0.0</speed>
  <fix>3d</fix>
</trkpt>
<trkpt lat="33.8103132" lon="-118.3938672">
  <ele>-0.122</ele>
  <time>2026-09-02T22:12:31Z</time>
  <course>186.37</course>
  <speed>0.022360679774997897</speed>
  <fix>3d</fix>
</trkpt>
<trkpt lat="33.810313" lon="-118.393867">
  <ele>-0.12</ele>
  <time>2026-09-02T22:12:31Z</time>
  <course>0.0</course>
  <speed>0.0</speed>
  <fix>3d</fix>
</trkpt>
<trkpt lat="33.8103132" lon="-118.3938672">
  <ele>-0.122</ele>
  <time>2026-09-02T22:12:31Z</time>
  <course>186.37</course>
  <speed>0.022360679774997897</speed>
  <fix>3d</fix>
</trkpt>
<trkpt lat="33.810313" lon="-118.393867">
  <ele>-0.12</ele>
  <time>2026-09-02T22:12:31Z</time>
  <course>0.0</course>
  <speed>0.0</speed>
  <fix>3d</fix>
</trkpt>
<trkpt lat="33.8103132" lon="-118.3938672">
  <ele>-0.122</ele>
  <time>2026-09-02T22:12:31Z</time>
  <course>186.37</course>
  <speed>0.022360679774997897</speed>
  <fix>3d</fix>
</trkpt>
<trkpt lat="33.810313" lon="-118.393867">
  <ele>-0.12</ele>
  <time>2026-09-02T22:12:31Z</time>
  <course>0.0</course>
  <speed>0.0</speed>
  <fix>3d</fix>
</trkpt>
<trkpt lat="33.8103132" lon="-118.3938672">
  <ele>-0.122</ele>
  <time>2026-09-02T22:12:31Z</time>
  <course>186.37</course>
  <speed>0.022360679774997897</speed>
  <fix>3d</fix>
</trkpt>
<trkpt lat="33.810313" lon="-118.393867">
  <ele>-0.12</ele>
  <time>2026-09-02T22:12:31Z</time>
  <course>0.0</course>
  <speed>0.0</speed>
  <fix>3d</fix>
</trkpt>
<trkpt lat="33.8103132" lon="-118.3938672">
  <ele>-0.121</ele>
  <time>2026-09-02T22:12:31Z</time>
  <course>186.37</course>
  <speed>0.022360679774997897</speed>
  <fix>3d</fix>
</trkpt>
<trkpt lat="33.810313" lon="-118.393867">
  <ele>-0.12</ele>
  <time>2026-09-02T22:12:31Z</time>
  <course>0.0</course>
  <speed>0.0</speed>
  <fix>3d</fix>
</trkpt>
<trkpt lat="33.8103132" lon="-118.3938672">
  <ele>-0.119</ele>
  <time>2026-09-02T22:12:31Z</time>
  <course>186.37</course>
  <speed>0.022360679774997897</speed>
  <fix>3d</fix>
</trkpt>
<trkpt lat="33.810313" lon="-118.393867">
  <ele>-0.12</ele>
  <time>2026-09-02T22:12:31Z</time>
  <course>0.0</course>
  <speed>0.0</speed>
  <fix>3d</fix>
</trkpt>
<trkpt lat="33.8103132" lon="-118.3938672">
  <ele>-0.117</ele>
  <time>2026-09-02T22:12:31Z</time>
  <course>186.37</course>
  <speed>0.022360679774997897</speed>
  <fix>3d</fix>
</trkpt>
<trkpt lat="33.810313" lon="-118.393867">
  <ele>-0.12</ele>
  <time>2026-09-02T22:12:31Z</time>
  <course>0.0</course>
  <speed>0.0</speed>
  <fix>3d</fix>
</trkpt>
<trkpt lat="33.8103132" lon="-118.3938672">
  <ele>-0.116</ele>
  <time>2026-09-02T22:12:31Z</time>
  <course>186.36</course>
  <speed>0.022360679774997897</speed>
  <fix>3d</fix>
</trkpt>
<trkpt lat="33.810313" lon="-118.393867">
  <ele>-0.12</ele>
  <time>2026-09-02T22:12:31Z</time>
  <course>0.0</course>
  <speed>0.0</speed>
  <fix>3d</fix>
</trkpt>
<trkpt lat="33.8103132" lon="-118.3938672">
  <ele>-0.115</ele>
  <time>2026-09-02T22:12:31Z</time>
  <course>186.36</course>
  <speed>0.022360679774997897</speed>
  <fix>3d</fix>
</trkpt>
<trkpt lat="33.810313" lon="-118.393867">
  <ele>-0.12</ele>
  <time>2026-09-02T22:12:31Z</time>
  <course>0.0</course>
  <speed>0.0</speed>
  <fix>3d</fix>
</trkpt>
<trkpt lat="33.8103132" lon="-118.3938672">
  <ele>-0.113</ele>
  <time>2026-09-02T22:12:31Z</time>
  <course>186.36</course>
  <speed>0.022360679774997897</speed>
  <fix>3d</fix>
</trkpt>
<trkpt lat="33.810313" lon="-118.393867">
  <ele>-0.12</ele>
  <time>2026-09-02T22:12:31Z</time>
  <course>0.0</course>
  <speed>0.0</speed>
  <fix>3d</fix>
</trkpt>
<trkpt lat="33.8103132" lon="-118.3938672">
  <ele>-0.113</ele>
  <time>2026-09-02T22:12:31Z</time>
  <course>186.36</course>
  <speed>0.022360679774997897</speed>
  <fix>3d</fix>
</trkpt>
<trkpt lat="33.810313" lon="-118.393867">
  <ele>-0.12</ele>
  <time>2026-09-02T22:12:31Z</time>
  <course>0.0</course>
  <speed>0.0</speed>
  <fix>3d</fix>
</trkpt>
<trkpt lat="33.8103132" lon="-118.3938672">
  <ele>-0.113</ele>
  <time>2026-09-02T22:12:31Z</time>
  <course>186.36</course>
  <speed>0.022360679774997897</speed>
  <fix>3d</fix>
</trkpt>
<trkpt lat="33.810313" lon="-118.393867">
  <ele>-0.12</ele>
  <time>2026-09-02T22:12:31Z</time>
  <course>0.0</course>
  <speed>0.0</speed>
  <fix>3d</fix>
</trkpt>
<trkpt lat="33.8103132" lon="-118.3938672">
  <ele>-0.113</ele>
  <time>2026-09-02T22:12:31Z</time>
  <course>186.36</course>
  <speed>0.022360679774997897</speed>
  <fix>3d</fix>
</trkpt>
<trkpt lat="33.810313" lon="-118.393867">
  <ele>-0.12</ele>
  <time>2026-09-02T22:12:31Z</time>
  <course>0.0</course>
  <speed>0.0</speed>
  <fix>3d</fix>
</trkpt>
<trkpt lat="33.8103132" lon="-118.3938672">
  <ele>-0.114</ele>
  <time>2026-09-02T22:12:31Z</time>
  <course>186.36</course>
  <speed>0.022360679774997897</speed>
  <fix>3d</fix>
</trkpt>
<trkpt lat="33.810313" lon="-118.393867">
  <ele>-0.12</ele>
  <time>2026-09-02T22:12:31Z</time>
  <course>0.0</course>
  <speed>0.0</speed>
  <fix>3d</fix>
</trkpt>
<trkpt lat="33.8103132" lon="-118.3938672">
  <ele>-0.114</ele>
  <time>2026-09-02T22:12:31Z</time>
  <course>186.35</course>
  <speed>0.022360679774997897</speed>
  <fix>3d</fix>
</trkpt>
<trkpt lat="33.810313" lon="-118.393867">
  <ele>-0.12</ele>
  <time>2026-09-02T22:12:31Z</time>
  <course>0.0</course>
  <speed>0.0</speed>
  <fix>3d</fix>
</trkpt>
<trkpt lat="33.8103132" lon="-118.3938672">
  <ele>-0.115</ele>
  <time>2026-09-02T22:12:31Z</time>
  <course>186.35</course>
  <speed>0.022360679774997897</speed>
  <fix>3d</fix>
</trkpt>
<trkpt lat="33.810313" lon="-118.393867">
  <ele>-0.12</ele>
  <time>2026-09-02T22:12:31Z</time>
  <course>0.0</course>
  <speed>0.0</speed>
  <fix>3d</fix>
</trkpt>
<trkpt lat="33.8103132" lon="-118.3938672">
  <ele>-0.116</ele>
  <time>2026-09-02T22:12:31Z</time>
  <course>186.35</course>
  <speed>0.022360679774997897</speed>
  <fix>3d</fix>
</trkpt>
<trkpt lat="33.810313" lon="-118.393867">
  <ele>-0.12</ele>
  <time>2026-09-02T22:12:31Z</time>
  <course>0.0</course>
  <speed>0.0</speed>
  <fix>3d</fix>
</trkpt>
<trkpt lat="33.8103132" lon="-118.3938672">
  <ele>-0.118</ele>
  <time>2026-09-02T22:12:31Z</time>
  <course>186.35</course>
  <speed>0.022360679774997897</speed>
  <fix>3d</fix>
</trkpt>
<trkpt lat="33.810313" lon="-118.393867">
  <ele>-0.12</ele>
  <time>2026-09-02T22:12:31Z</time>
  <course>0.0</course>
  <speed>0.0</speed>
  <fix>3d</fix>
</trkpt>
<trkpt lat="33.8103132" lon="-118.3938672">
  <ele>-0.119</ele>
  <time>2026-09-02T22:12:31Z</time>
  <course>186.35</course>
  <speed>0.022360679774997897</speed>
  <fix>3d</fix>
</trkpt>
<trkpt lat="33.810313" lon="-118.393867">
  <ele>-0.12</ele>
  <time>2026-09-02T22:12:31Z</time>
  <course>0.0</course>
  <speed>0.0</speed>
  <fix>3d</fix>
</trkpt>
<trkpt lat="33.8103132" lon="-118.3938672">
  <ele>-0.119</ele>
  <time>2026-09-02T22:12:31Z</time>
  <course>186.35</course>
  <speed>0.022360679774997897</speed>
  <fix>3d</fix>
</trkpt>
<trkpt lat="33.810313" lon="-118.393867">
  <ele>-0.12</ele>
  <time>2026-09-02T22:12:31Z</time>
  <course>0.0</course>
  <speed>0.0</speed>
  <fix>3d</fix>
</trkpt>
<trkpt lat="33.8103132" lon="-118.3938672">
  <ele>-0.119</ele>
  <time>2026-09-02T22:12:31Z</time>
  <course>186.35</course>
  <speed>0.022360679774997897</speed>
  <fix>3d</fix>
</trkpt>
<trkpt lat="33.810313" lon="-118.393867">
  <ele>-0.12</ele>
  <time>2026-09-02T22:12:31Z</time>
  <course>0.0</course>
  <speed>0.0</speed>
  <fix>3d</fix>
</trkpt>
<trkpt lat="33.8103132" lon="-118.3938672">
  <ele>-0.119</ele>
  <time>2026-09-02T22:12:31Z</time>
  <course>186.34</course>
  <speed>0.022360679774997897</speed>
  <fix>3d</fix>
</trkpt>
<trkpt lat="33.810313" lon="-118.393867">
  <ele>-0.12</ele>
  <time>2026-09-02T22:12:31Z</time>
  <course>0.0</course>
  <speed>0.0</speed>
  <fix>3d</fix>
</trkpt>
<trkpt lat="33.8103132" lon="-118.3938672">
  <ele>-0.12</ele>
  <time>2026-09-02T22:12:31Z</time>
  <course>186.34</course>
  <speed>0.022360679774997897</speed>
  <fix>3d</fix>
</trkpt>
<trkpt lat="33.810313" lon="-118.393867">
  <ele>-0.12</ele>
  <time>2026-09-02T22:12:31Z</time>
  <course>0.0</course>
  <speed>0.0</speed>
  <fix>3d</fix>
</trkpt>
<trkpt lat="33.8103132" lon="-118.3938672">
  <ele>-0.121</ele>
  <time>2026-09-02T22:12:31Z</time>
  <course>186.34</course>
  <speed>0.022360679774997897</speed>
  <fix>3d</fix>
</trkpt>
<trkpt lat="33.810313" lon="-118.393867">
  <ele>-0.12</ele>
  <time>2026-09-02T22:12:31Z</time>
  <course>0.0</course>
  <speed>0.0</speed>
  <fix>3d</fix>
</trkpt>
<trkpt lat="33.8103132" lon="-118.3938672">
  <ele>-0.121</ele>
  <time>2026-09-02T22:12:31Z</time>
  <course>186.34</course>
  <speed>0.022360679774997897</speed>
  <fix>3d</fix>
</trkpt>
<trkpt lat="33.810313" lon="-118.393867">
  <ele>-0.12</ele>
  <time>2026-09-02T22:12:31Z</time>
  <course>0.0</course>
  <speed>0.0</speed>
  <fix>3d</fix>
</trkpt>
<trkpt lat="33.8103132" lon="-118.3938672">
  <ele>-0.122</ele>
  <time>2026-09-02T22:12:31Z</time>
  <course>186.34</course>
  <speed>0.022360679774997897</speed>
  <fix>3d</fix>
</trkpt>
<trkpt lat="33.810313" lon="-118.393867">
  <ele>-0.12</ele>
  <time>2026-09-02T22:12:31Z</time>
  <course>0.0</course>
  <speed>0.0</speed>
  <fix>3d</fix>
</trkpt>
<trkpt lat="33.8103132" lon="-118.3938672">
  <ele>-0.124</ele>
  <time>2026-09-02T22:12:31Z</time>
  <course>186.34</course>
  <speed>0.022360679774997897</speed>
  <fix>3d</fix>
</trkpt>
<trkpt lat="33.810313" lon="-118.393867">
  <ele>-0.12</ele>
  <time>2026-09-02T22:12:31Z</time>
  <course>0.0</course>
  <speed>0.0</speed>
  <fix>3d</fix>
</trkpt>
<trkpt lat="33.8103132" lon="-118.3938672">
  <ele>-0.124</ele>
  <time>2026-09-02T22:12:31Z</time>
  <course>186.34</course>
  <speed>0.022360679774997897</speed>
  <fix>3d</fix>
</trkpt>
<trkpt lat="33.810313" lon="-118.393867">
  <ele>-0.12</ele>
  <time>2026-09-02T22:12:31Z</time>
  <course>0.0</course>
  <speed>0.0</speed>
  <fix>3d</fix>
</trkpt>
<trkpt lat="33.8103132" lon="-118.3938672">
  <ele>-0.123</ele>
  <time>2026-09-02T22:12:31Z</time>
  <course>186.34</course>
  <speed>0.01414213562373095</speed>
  <fix>3d</fix>
</trkpt>
<trkpt lat="33.810313" lon="-118.393867">
  <ele>-0.12</ele>
  <time>2026-09-02T22:12:31Z</time>
  <course>0.0</course>
  <speed>0.0</speed>
  <fix>3d</fix>
</trkpt>
<trkpt lat="33.8103132" lon="-118.3938672">
  <ele>-0.121</ele>
  <time>2026-09-02T22:12:31Z</time>
  <course>186.34</course>
  <speed>0.01414213562373095</speed>
  <fix>3d</fix>
</trkpt>
<trkpt lat="33.810313" lon="-118.393867">
  <ele>-0.12</ele>
  <time>2026-09-02T22:12:31Z</time>
  <course>0.0</course>
  <speed>0.0</speed>
  <fix>3d</fix>
</trkpt>
<trkpt lat="33.8103132" lon="-118.3938672">
  <ele>-0.119</ele>
  <time>2026-09-02T22:12:31Z</time>
  <course>186.33</course>
  <speed>0.01414213562373095</speed>
  <fix>3d</fix>
</trkpt>
<trkpt lat="33.810313" lon="-118.393867">
  <ele>-0.12</ele>
  <time>2026-09-02T22:12:31Z</time>
  <course>0.0</course>
  <speed>0.0</speed>
  <fix>3d</fix>
</trkpt>
<trkpt lat="33.8103132" lon="-118.3938672">
  <ele>-0.118</ele>
  <time>2026-09-02T22:12:31Z</time>
  <course>186.33</course>
  <speed>0.01414213562373095</speed>
  <fix>3d</fix>
</trkpt>
<trkpt lat="33.810313" lon="-118.393867">
  <ele>-0.12</ele>
  <time>2026-09-02T22:12:31Z</time>
  <course>0.0</course>
  <speed>0.0</speed>
  <fix>3d</fix>
</trkpt>
<trkpt lat="33.8103132" lon="-118.3938672">
  <ele>-0.118</ele>
  <time>2026-09-02T22:12:31Z</time>
  <course>186.33</course>
  <speed>0.01414213562373095</speed>
  <fix>3d</fix>
</trkpt>
<trkpt lat="33.810313" lon="-118.393867">
  <ele>-0.12</ele>
  <time>2026-09-02T22:12:31Z</time>
  <course>0.0</course>
  <speed>0.0</speed>
  <fix>3d</fix>
</trkpt>
<trkpt lat="33.8103132" lon="-118.3938672">
  <ele>-0.119</ele>
  <time>2026-09-02T22:12:31Z</time>
  <course>186.33</course>
  <speed>0.01414213562373095</speed>
  <fix>3d</fix>
</trkpt>
<trkpt lat="33.810313" lon="-118.393867">
  <ele>-0.12</ele>
  <time>2026-09-02T22:12:31Z</time>
  <course>0.0</course>
  <speed>0.0</speed>
  <fix>3d</fix>
</trkpt>
<trkpt lat="33.8103132" lon="-118.3938672">
  <ele>-0.12</ele>
  <time>2026-09-02T22:12:31Z</time>
  <course>186.33</course>
  <speed>0.01414213562373095</speed>
  <fix>3d</fix>
</trkpt>
<trkpt lat="33.810313" lon="-118.393867">
  <ele>-0.12</ele>
  <time>2026-09-02T22:12:31Z</time>
  <course>0.0</course>
  <speed>0.0</speed>
  <fix>3d</fix>
</trkpt>
<trkpt lat="33.8103132" lon="-118.3938672">
  <ele>-0.122</ele>
  <time>2026-09-02T22:12:31Z</time>
  <course>186.33</course>
  <speed>0.01414213562373095</speed>
  <fix>3d</fix>
</trkpt>
<trkpt lat="33.810313" lon="-118.393867">
  <ele>-0.12</ele>
  <time>2026-09-02T22:12:31Z</time>
  <course>0.0</course>
  <speed>0.0</speed>
  <fix>3d</fix>
</trkpt>
<trkpt lat="33.4361815" lon="-117.0837675">
  <ele>-0.11</ele>
  <time>2026-09-02T22:12:33Z</time>
  <course>0.0</course>
  <speed>0.0</speed>
  <fix>3d</fix>
</trkpt>
<trkpt lat="33.4361815" lon="-117.0837675">
  <ele>-0.11</ele>
  <time>2026-09-02T22:12:33Z</time>
  <course>0.0</course>
  <speed>0.0</speed>
  <fix>3d</fix>
</trkpt>
<trkpt lat="33.810313" lon="-118.393867">
  <ele>0.0</ele>
  <time>2026-09-02T22:12:33Z</time>
  <course>185.01</course>
  <speed>0.0</speed>
  <fix>3d</fix>
</trkpt>
<trkpt lat="33.810313" lon="-118.393867">
  <ele>-0.11</ele>
  <time>2026-09-02T22:12:33Z</time>
  <course>0.0</course>
  <speed>0.0</speed>
  <fix>3d</fix>
</trkpt>
<trkpt lat="33.810313" lon="-118.393867">
  <ele>0.0</ele>
  <time>2026-09-02T22:12:33Z</time>
  <course>185.01</course>
  <speed>0.0</speed>
  <fix>3d</fix>
</trkpt>
<trkpt lat="33.810313" lon="-118.393867">
  <ele>-0.11</ele>
  <time>2026-09-02T22:12:33Z</time>
  <course>0.0</course>
  <speed>0.0</speed>
  <fix>3d</fix>
</trkpt>
<trkpt lat="33.810313" lon="-118.393867">
  <ele>0.0</ele>
  <time>2026-09-02T22:12:33Z</time>
  <course>185.01</course>
  <speed>0.0</speed>
  <fix>3d</fix>
</trkpt>
<trkpt lat="33.810313" lon="-118.393867">
  <ele>-0.11</ele>
  <time>2026-09-02T22:12:33Z</time>
  <course>0.0</course>
  <speed>0.0</speed>
  <fix>3d</fix>
</trkpt>
<trkpt lat="33.810313" lon="-118.393867">
  <ele>0.0</ele>
  <time>2026-09-02T22:12:33Z</time>
  <course>185.01</course>
  <speed>0.0</speed>
  <fix>3d</fix>
</trkpt>
<trkpt lat="33.810313" lon="-118.393867">
  <ele>-0.11</ele>
  <time>2026-09-02T22:12:33Z</time>
  <course>0.0</course>
  <speed>0.0</speed>
  <fix>3d</fix>
</trkpt>
<trkpt lat="33.810313" lon="-118.393867">
  <ele>0.0</ele>
  <time>2026-09-02T22:12:33Z</time>
  <course>185.01</course>
  <speed>0.0</speed>
  <fix>3d</fix>
</trkpt>
<trkpt lat="33.810313" lon="-118.393867">
  <ele>-0.11</ele>
  <time>2026-09-02T22:12:33Z</time>
  <course>0.0</course>
  <speed>0.0</speed>
  <fix>3d</fix>
</trkpt>
<trkpt lat="33.810313" lon="-118.393867">
  <ele>0.0</ele>
  <time>2026-09-02T22:12:33Z</time>
  <course>185.01</course>
  <speed>0.0</speed>
  <fix>3d</fix>
</trkpt>
<trkpt lat="33.810313" lon="-118.393867">
  <ele>-0.11</ele>
  <time>2026-09-02T22:12:33Z</time>
  <course>0.0</course>
  <speed>0.0</speed>
  <fix>3d</fix>
</trkpt>
<trkpt lat="33.810313" lon="-118.393867">
  <ele>0.0</ele>
  <time>2026-09-02T22:12:33Z</time>
  <course>185.01</course>
  <speed>0.0</speed>
  <fix>3d</fix>
</trkpt>
<trkpt lat="33.810313" lon="-118.393867">
  <ele>-0.12</ele>
  <time>2026-09-02T22:12:33Z</time>
  <course>0.0</course>
  <speed>0.0</speed>
  <fix>3d</fix>
</trkpt>
<trkpt lat="33.810313" lon="-118.393867">
  <ele>0.0</ele>
  <time>2026-09-02T22:12:33Z</time>
  <course>185.01</course>
  <speed>0.0</speed>
  <fix>3d</fix>
</trkpt>
<trkpt lat="33.810313" lon="-118.393867">
  <ele>-0.12</ele>
  <time>2026-09-02T22:12:33Z</time>
  <course>0.0</course>
  <speed>0.0</speed>
  <fix>3d</fix>
</trkpt>
<trkpt lat="33.810313" lon="-118.393867">
  <ele>0.0</ele>
  <time>2026-09-02T22:12:33Z</time>
  <course>185.01</course>
  <speed>0.0</speed>
  <fix>3d</fix>
</trkpt>
<trkpt lat="33.810313" lon="-118.393867">
  <ele>-0.13</ele>
  <time>2026-09-02T22:12:33Z</time>
  <course>0.0</course>
  <speed>0.0</speed>
  <fix>3d</fix>
</trkpt>
<trkpt lat="33.810313" lon="-118.393867">
  <ele>0.0</ele>
  <time>2026-09-02T22:12:33Z</time>
  <course>185.01</course>
  <speed>0.0</speed>
  <fix>3d</fix>
</trkpt>
<trkpt lat="33.810313" lon="-118.393867">
  <ele>-0.13</ele>
  <time>2026-09-02T22:12:33Z</time>
  <course>0.0</course>
  <speed>0.0</speed>
  <fix>3d</fix>
</trkpt>
<trkpt lat="33.810313" lon="-118.393867">
  <ele>0.0</ele>
  <time>2026-09-02T22:12:33Z</time>
  <course>185.01</course>
  <speed>0.0</speed>
  <fix>3d</fix>
</trkpt>
<trkpt lat="33.810313" lon="-118.393867">
  <ele>-0.14</ele>
  <time>2026-09-02T22:12:33Z</time>
  <course>0.0</course>
  <speed>0.0</speed>
  <fix>3d</fix>
</trkpt>
<trkpt lat="33.810313" lon="-118.393867">
  <ele>0.0</ele>
  <time>2026-09-02T22:12:33Z</time>
  <course>185.01</course>
  <speed>0.0</speed>
  <fix>3d</fix>
</trkpt>
<trkpt lat="33.810313" lon="-118.393867">
  <ele>-0.14</ele>
  <time>2026-09-02T22:12:33Z</time>
  <course>0.0</course>
  <speed>0.0</speed>
  <fix>3d</fix>
</trkpt>
<trkpt lat="33.810313" lon="-118.393867">
  <ele>0.0</ele>
  <time>2026-09-02T22:12:33Z</time>
  <course>185.01</course>
  <speed>0.0</speed>
  <fix>3d</fix>
</trkpt>
<trkpt lat="33.810313" lon="-118.393867">
  <ele>-0.14</ele>
  <time>2026-09-02T22:12:33Z</time>
  <course>0.0</course>
  <speed>0.0</speed>
  <fix>3d</fix>
</trkpt>
<trkpt lat="33.810313" lon="-118.393867">
  <ele>0.0</ele>
  <time>2026-09-02T22:12:33Z</time>
  <course>185.01</course>
  <speed>0.0</speed>
  <fix>3d</fix>
</trkpt>
<trkpt lat="33.810313" lon="-118.393867">
  <ele>-0.14</ele>
  <time>2026-09-02T22:12:33Z</time>
  <course>0.0</course>
  <speed>0.0</speed>
  <fix>3d</fix>
</trkpt>
<trkpt lat="33.810313" lon="-118.393867">
  <ele>0.0</ele>
  <time>2026-09-02T22:12:33Z</time>
  <course>185.01</course>
  <speed>0.0</speed>
  <fix>3d</fix>
</trkpt>
<trkpt lat="33.810313" lon="-118.393867">
  <ele>-0.14</ele>
  <time>2026-09-02T22:12:33Z</time>
  <course>0.0</course>
  <speed>0.0</speed>
  <fix>3d</fix>
</trkpt>
<trkpt lat="33.810313" lon="-118.393867">
  <ele>0.0</ele>
  <time>2026-09-02T22:12:33Z</time>
  <course>185.01</course>
  <speed>0.0</speed>
  <fix>3d</fix>
</trkpt>
<trkpt lat="33.810313" lon="-118.393867">
  <ele>-0.14</ele>
  <time>2026-09-02T22:12:33Z</time>
  <course>0.0</course>
  <speed>0.0</speed>
  <fix>3d</fix>
</trkpt>
<trkpt lat="33.810313" lon="-118.393867">
  <ele>0.0</ele>
  <time>2026-09-02T22:12:33Z</time>
  <course>185.01</course>
  <speed>0.0</speed>
  <fix>3d</fix>
</trkpt>
<trkpt lat="33.810313" lon="-118.393867">
  <ele>-0.14</ele>
  <time>2026-09-02T22:12:33Z</time>
  <course>0.0</course>
  <speed>0.0</speed>
  <fix>3d</fix>
</trkpt>
<trkpt lat="33.810313" lon="-118.393867">
  <ele>0.0</ele>
  <time>2026-09-02T22:12:33Z</time>
  <course>185.01</course>
  <speed>0.0</speed>
  <fix>3d</fix>
</trkpt>
<trkpt lat="33.810313" lon="-118.393867">
  <ele>-0.14</ele>
  <time>2026-09-02T22:12:33Z</time>
  <course>0.0</course>
  <speed>0.0</speed>
  <fix>3d</fix>
</trkpt>
<trkpt lat="33.810313" lon="-118.393867">
  <ele>0.0</ele>
  <time>2026-09-02T22:12:33Z</time>
  <course>185.01</course>
  <speed>0.0</speed>
  <fix>3d</fix>
</trkpt>
<trkpt lat="33.810313" lon="-118.393867">
  <ele>-0.13</ele>
  <time>2026-09-02T22:12:33Z</time>
  <course>0.0</course>
  <speed>0.0</speed>
  <fix>3d</fix>
</trkpt>
<trkpt lat="33.810313" lon="-118.393867">
  <ele>0.0</ele>
  <time>2026-09-02T22:12:33Z</time>
  <course>185.01</course>
  <speed>0.0</speed>
  <fix>3d</fix>
</trkpt>
<trkpt lat="33.810313" lon="-118.393867">
  <ele>-0.13</ele>
  <time>2026-09-02T22:12:33Z</time>
  <course>0.0</course>
  <speed>0.0</speed>
  <fix>3d</fix>
</trkpt>
<trkpt lat="33.810313" lon="-118.393867">
  <ele>0.0</ele>
  <time>2026-09-02T22:12:33Z</time>
  <course>185.01</course>
  <speed>0.0</speed>
  <fix>3d</fix>
</trkpt>
<trkpt lat="33.810313" lon="-118.393867">
  <ele>-0.13</ele>
  <time>2026-09-02T22:12:33Z</time>
  <course>0.0</course>
  <speed>0.0</speed>
  <fix>3d</fix>
</trkpt>
<trkpt lat="33.810313" lon="-118.393867">
  <ele>0.0</ele>
  <time>2026-09-02T22:12:33Z</time>
  <course>185.01</course>
  <speed>0.0</speed>
  <fix>3d</fix>
</trkpt>
<trkpt lat="33.810313" lon="-118.393867">
  <ele>-0.13</ele>
  <time>2026-09-02T22:12:33Z</time>
  <course>0.0</course>
  <speed>0.0</speed>
  <fix>3d</fix>
</trkpt>
<trkpt lat="33.810313" lon="-118.393867">
  <ele>0.0</ele>
  <time>2026-09-02T22:12:33Z</time>
  <course>185.01</course>
  <speed>0.0</speed>
  <fix>3d</fix>
</trkpt>
<trkpt lat="33.810313" lon="-118.393867">
  <ele>-0.12</ele>
  <time>2026-09-02T22:12:33Z</time>
  <course>0.0</course>
  <speed>0.0</speed>
  <fix>3d</fix>
</trkpt>
<trkpt lat="33.810313" lon="-118.393867">
  <ele>0.0</ele>
  <time>2026-09-02T22:12:33Z</time>
  <course>185.01</course>
  <speed>0.0</speed>
  <fix>3d</fix>
</trkpt>
<trkpt lat="33.810313" lon="-118.393867">
  <ele>-0.12</ele>
  <time>2026-09-02T22:12:33Z</time>
  <course>0.0</course>
  <speed>0.0</speed>
  <fix>3d</fix>
</trkpt>
<trkpt lat="33.810313" lon="-118.393867">
  <ele>0.0</ele>
  <time>2026-09-02T22:12:33Z</time>
  <course>185.01</course>
  <speed>0.0</speed>
  <fix>3d</fix>
</trkpt>
<trkpt lat="33.810313" lon="-118.393867">
  <ele>-0.11</ele>
  <time>2026-09-02T22:12:33Z</time>
  <course>0.0</course>
  <speed>0.0</speed>
  <fix>3d</fix>
</trkpt>
<trkpt lat="33.810313" lon="-118.393867">
  <ele>0.0</ele>
  <time>2026-09-02T22:12:33Z</time>
  <course>185.01</course>
  <speed>0.0</speed>
  <fix>3d</fix>
</trkpt>
<trkpt lat="33.810313" lon="-118.393867">
  <ele>-0.11</ele>
  <time>2026-09-02T22:12:33Z</time>
  <course>0.0</course>
  <speed>0.0</speed>
  <fix>3d</fix>
</trkpt>
<trkpt lat="33.810313" lon="-118.393867">
  <ele>0.0</ele>
  <time>2026-09-02T22:12:33Z</time>
  <course>185.01</course>
  <speed>0.0</speed>
  <fix>3d</fix>
</trkpt>
<trkpt lat="33.810313" lon="-118.393867">
  <ele>-0.11</ele>
  <time>2026-09-02T22:12:33Z</time>
  <course>0.0</course>
  <speed>0.0</speed>
  <fix>3d</fix>
</trkpt>
<trkpt lat="33.810313" lon="-118.393867">
  <ele>0.0</ele>
  <time>2026-09-02T22:12:33Z</time>
  <course>185.01</course>
  <speed>0.0</speed>
  <fix>3d</fix>
</trkpt>
<trkpt lat="33.810313" lon="-118.393867">
  <ele>-0.11</ele>
  <time>2026-09-02T22:12:33Z</time>
  <course>0.0</course>
  <speed>0.0</speed>
  <fix>3d</fix>
</trkpt>
<trkpt lat="33.810313" lon="-118.393867">
  <ele>0.0</ele>
  <time>2026-09-02T22:12:33Z</time>
  <course>185.01</course>
  <speed>0.0</speed>
  <fix>3d</fix>
</trkpt>
<trkpt lat="33.810313" lon="-118.393867">
  <ele>-0.12</ele>
  <time>2026-09-02T22:12:33Z</time>
  <course>0.0</course>
  <speed>0.0</speed>
  <fix>3d</fix>
</trkpt>
<trkpt lat="33.810313" lon="-118.393867">
  <ele>0.0</ele>
  <time>2026-09-02T22:12:33Z</time>
  <course>185.01</course>
  <speed>0.0</speed>
  <fix>3d</fix>
</trkpt>
<trkpt lat="33.810313" lon="-118.393867">
  <ele>-0.12</ele>
  <time>2026-09-02T22:12:33Z</time>
  <course>0.0</course>
  <speed>0.0</speed>
  <fix>3d</fix>
</trkpt>
<trkpt lat="33.810313" lon="-118.393867">
  <ele>0.0</ele>
  <time>2026-09-02T22:12:33Z</time>
  <course>185.01</course>
  <speed>0.0</speed>
  <fix>3d</fix>
</trkpt>
<trkpt lat="33.810313" lon="-118.393867">
  <ele>-0.13</ele>
  <time>2026-09-02T22:12:33Z</time>
  <course>0.0</course>
  <speed>0.0</speed>
  <fix>3d</fix>
</trkpt>
<trkpt lat="33.810313" lon="-118.393867">
  <ele>0.0</ele>
  <time>2026-09-02T22:12:33Z</time>
  <course>185.01</course>
  <speed>0.0</speed>
  <fix>3d</fix>
</trkpt>
<trkpt lat="33.810313" lon="-118.393867">
  <ele>-0.13</ele>
  <time>2026-09-02T22:12:33Z</time>
  <course>0.0</course>
  <speed>0.0</speed>
  <fix>3d</fix>
</trkpt>
<trkpt lat="33.810313" lon="-118.393867">
  <ele>0.0</ele>
  <time>2026-09-02T22:12:33Z</time>
  <course>185.01</course>
  <speed>0.0</speed>
  <fix>3d</fix>
</trkpt>
<trkpt lat="33.810313" lon="-118.393867">
  <ele>-0.13</ele>
  <time>2026-09-02T22:12:33Z</time>
  <course>0.0</course>
  <speed>0.0</speed>
  <fix>3d</fix>
</trkpt>
<trkpt lat="33.810313" lon="-118.393867">
  <ele>0.0</ele>
  <time>2026-09-02T22:12:33Z</time>
  <course>185.01</course>
  <speed>0.0</speed>
  <fix>3d</fix>
</trkpt>
<trkpt lat="33.810313" lon="-118.393867">
  <ele>-0.13</ele>
  <time>2026-09-02T22:12:33Z</time>
  <course>0.0</course>
  <speed>0.0</speed>
  <fix>3d</fix>
</trkpt>
<trkpt lat="33.810313" lon="-118.393867">
  <ele>0.0</ele>
  <time>2026-09-02T22:12:33Z</time>
  <course>185.01</course>
  <speed>0.0</speed>
  <fix>3d</fix>
</trkpt>
<trkpt lat="33.810313" lon="-118.393867">
  <ele>-0.14</ele>
  <time>2026-09-02T22:12:33Z</time>
  <course>0.0</course>
  <speed>0.0</speed>
  <fix>3d</fix>
</trkpt>
<trkpt lat="33.810313" lon="-118.393867">
  <ele>0.0</ele>
  <time>2026-09-02T22:12:33Z</time>
  <course>185.01</course>
  <speed>0.0</speed>
  <fix>3d</fix>
</trkpt>
<trkpt lat="33.810313" lon="-118.393867">
  <ele>-0.14</ele>
  <time>2026-09-02T22:12:33Z</time>
  <course>0.0</course>
  <speed>0.0</speed>
  <fix>3d</fix>
</trkpt>
<trkpt lat="33.810313" lon="-118.393867">
  <ele>0.0</ele>
  <time>2026-09-02T22:12:33Z</time>
  <course>185.01</course>
  <speed>0.0</speed>
  <fix>3d</fix>
</trkpt>
<trkpt lat="33.810313" lon="-118.393867">
  <ele>-0.13</ele>
  <time>2026-09-02T22:12:33Z</time>
  <course>0.0</course>
  <speed>0.0</speed>
  <fix>3d</fix>
</trkpt>
<trkpt lat="33.810313" lon="-118.393867">
  <ele>0.0</ele>
  <time>2026-09-02T22:12:33Z</time>
  <course>185.01</course>
  <speed>0.0</speed>
  <fix>3d</fix>
</trkpt>
<trkpt lat="33.810313" lon="-118.393867">
  <ele>-0.13</ele>
  <time>2026-09-02T22:12:33Z</time>
  <course>0.0</course>
  <speed>0.0</speed>
  <fix>3d</fix>
</trkpt>
<trkpt lat="33.810313" lon="-118.393867">
  <ele>0.0</ele>
  <time>2026-09-02T22:12:33Z</time>
  <course>185.01</course>
  <speed>0.0</speed>
  <fix>3d</fix>
</trkpt>
<trkpt lat="33.810313" lon="-118.393867">
  <ele>-0.13</ele>
  <time>2026-09-02T22:12:33Z</time>
  <course>0.0</course>
  <speed>0.0</speed>
  <fix>3d</fix>
</trkpt>
<trkpt lat="33.810313" lon="-118.393867">
  <ele>0.0</ele>
  <time>2026-09-02T22:12:33Z</time>
  <course>185.01</course>
  <speed>0.0</speed>
  <fix>3d</fix>
</trkpt>
<trkpt lat="33.810313" lon="-118.393867">
  <ele>-0.13</ele>
  <time>2026-09-02T22:12:33Z</time>
  <course>0.0</course>
  <speed>0.0</speed>
  <fix>3d</fix>
</trkpt>
<trkpt lat="33.810313" lon="-118.393867">
  <ele>0.0</ele>
  <time>2026-09-02T22:12:33Z</time>
  <course>185.01</course>
  <speed>0.0</speed>
  <fix>3d</fix>
</trkpt>
<trkpt lat="33.810313" lon="-118.393867">
  <ele>-0.12</ele>
  <time>2026-09-02T22:12:33Z</time>
  <course>0.0</course>
  <speed>0.0</speed>
  <fix>3d</fix>
</trkpt>
<trkpt lat="33.810313" lon="-118.393867">
  <ele>0.0</ele>
  <time>2026-09-02T22:12:33Z</time>
  <course>185.01</course>
  <speed>0.0</speed>
  <fix>3d</fix>
</trkpt>
<trkpt lat="33.810313" lon="-118.393867">
  <ele>-0.12</ele>
  <time>2026-09-02T22:12:33Z</time>
  <course>0.0</course>
  <speed>0.0</speed>
  <fix>3d</fix>
</trkpt>
<trkpt lat="33.810313" lon="-118.393867">
  <ele>0.0</ele>
  <time>2026-09-02T22:12:33Z</time>
  <course>185.01</course>
  <speed>0.0</speed>
  <fix>3d</fix>
</trkpt>
<trkpt lat="33.810313" lon="-118.393867">
  <ele>-0.12</ele>
  <time>2026-09-02T22:12:33Z</time>
  <course>0.0</course>
  <speed>0.0</speed>
  <fix>3d</fix>
</trkpt>
<trkpt lat="33.810313" lon="-118.393867">
  <ele>0.0</ele>
  <time>2026-09-02T22:12:33Z</time>
  <course>185.01</course>
  <speed>0.0</speed>
  <fix>3d</fix>
</trkpt>
<trkpt lat="33.810313" lon="-118.393867">
  <ele>-0.12</ele>
  <time>2026-09-02T22:12:33Z</time>
  <course>0.0</course>
  <speed>0.0</speed>
  <fix>3d</fix>
</trkpt>
<trkpt lat="33.810313" lon="-118.393867">
  <ele>0.0</ele>
  <time>2026-09-02T22:12:33Z</time>
  <course>185.01</course>
  <speed>0.0</speed>
  <fix>3d</fix>
</trkpt>
<trkpt lat="33.810313" lon="-118.393867">
  <ele>-0.11</ele>
  <time>2026-09-02T22:12:33Z</time>
  <course>0.0</course>
  <speed>0.0</speed>
  <fix>3d</fix>
</trkpt>
<trkpt lat="33.810313" lon="-118.393867">
  <ele>0.0</ele>
  <time>2026-09-02T22:12:33Z</time>
  <course>185.01</course>
  <speed>0.0</speed>
  <fix>3d</fix>
</trkpt>
<trkpt lat="33.810313" lon="-118.393867">
  <ele>-0.11</ele>
  <time>2026-09-02T22:12:33Z</time>
  <course>0.0</course>
  <speed>0.0</speed>
  <fix>3d</fix>
</trkpt>
<trkpt lat="33.810313" lon="-118.393867">
  <ele>0.0</ele>
  <time>2026-09-02T22:12:33Z</time>
  <course>185.01</course>
  <speed>0.0</speed>
  <fix>3d</fix>
</trkpt>
<trkpt lat="33.810313" lon="-118.393867">
  <ele>-0.11</ele>
  <time>2026-09-02T22:12:33Z</time>
  <course>0.0</course>
  <speed>0.0</speed>
  <fix>3d</fix>
</trkpt>
<trkpt lat="33.810313" lon="-118.393867">
  <ele>0.0</ele>
  <time>2026-09-02T22:12:33Z</time>
  <course>185.01</course>
  <speed>0.0</speed>
  <fix>3d</fix>
</trkpt>
<trkpt lat="33.810313" lon="-118.393867">
  <ele>-0.11</ele>
  <time>2026-09-02T22:12:33Z</time>
  <course>0.0</course>
  <speed>0.0</speed>
  <fix>3d</fix>
</trkpt>
<trkpt lat="33.810313" lon="-118.393867">
  <ele>0.0</ele>
  <time>2026-09-02T22:12:33Z</time>
  <course>185.01</course>
  <speed>0.0</speed>
  <fix>3d</fix>
</trkpt>
<trkpt lat="33.810313" lon="-118.393867">
  <ele>-0.12</ele>
  <time>2026-09-02T22:12:33Z</time>
  <course>0.0</course>
  <speed>0.0</speed>
  <fix>3d</fix>
</trkpt>
<trkpt lat="33.810313" lon="-118.393867">
  <ele>0.0</ele>
  <time>2026-09-02T22:12:33Z</time>
  <course>185.01</course>
  <speed>0.0</speed>
  <fix>3d</fix>
</trkpt>
<trkpt lat="33.810313" lon="-118.393867">
  <ele>-0.12</ele>
  <time>2026-09-02T22:12:33Z</time>
  <course>0.0</course>
  <speed>0.0</speed>
  <fix>3d</fix>
</trkpt>
<trkpt lat="33.810313" lon="-118.393867">
  <ele>0.0</ele>
  <time>2026-09-02T22:12:33Z</time>
  <course>185.01</course>
  <speed>0.0</speed>
  <fix>3d</fix>
</trkpt>
<trkpt lat="33.810313" lon="-118.393867">
  <ele>-0.13</ele>
  <time>2026-09-02T22:12:33Z</time>
  <course>0.0</course>
  <speed>0.0</speed>
  <fix>3d</fix>
</trkpt>
<trkpt lat="33.810313" lon="-118.393867">
  <ele>0.0</ele>
  <time>2026-09-02T22:12:33Z</time>
  <course>185.01</course>
  <speed>0.0</speed>
  <fix>3d</fix>
</trkpt>
<trkpt lat="33.810313" lon="-118.393867">
  <ele>-0.13</ele>
  <time>2026-09-02T22:12:33Z</time>
  <course>0.0</course>
  <speed>0.0</speed>
  <fix>3d</fix>
</trkpt>
<trkpt lat="33.810313" lon="-118.393867">
  <ele>0.0</ele>
  <time>2026-09-02T22:12:33Z</time>
  <course>185.01</course>
  <speed>0.0</speed>
  <fix>3d</fix>
</trkpt>
<trkpt lat="33.810313" lon="-118.393867">
  <ele>-0.13</ele>
  <time>2026-09-02T22:12:33Z</time>
  <course>0.0</course>
  <speed>0.0</speed>
  <fix>3d</fix>
</trkpt>
<trkpt lat="33.810313" lon="-118.393867">
  <ele>0.0</ele>
  <time>2026-09-02T22:12:33Z</time>
  <course>185.01</course>
  <speed>0.0</speed>
  <fix>3d</fix>
</trkpt>
<trkpt lat="33.810313" lon="-118.393867">
  <ele>-0.13</ele>
  <time>2026-09-02T22:12:33Z</time>
  <course>0.0</course>
  <speed>0.0</speed>
  <fix>3d</fix>
</trkpt>
<trkpt lat="33.810313" lon="-118.393867">
  <ele>0.0</ele>
  <time>2026-09-02T22:12:33Z</time>
  <course>185.01</course>
  <speed>0.0</speed>
  <fix>3d</fix>
</trkpt>
<trkpt lat="33.810313" lon="-118.393867">
  <ele>-0.13</ele>
  <time>2026-09-02T22:12:33Z</time>
  <course>0.0</course>
  <speed>0.0</speed>
  <fix>3d</fix>
</trkpt>
<trkpt lat="33.810313" lon="-118.393867">
  <ele>0.0</ele>
  <time>2026-09-02T22:12:33Z</time>
  <course>185.01</course>
  <speed>0.0</speed>
  <fix>3d</fix>
</trkpt>
<trkpt lat="33.810313" lon="-118.393867">
  <ele>-0.13</ele>
  <time>2026-09-02T22:12:33Z</time>
  <course>0.0</course>
  <speed>0.0</speed>
  <fix>3d</fix>
</trkpt>
<trkpt lat="33.810313" lon="-118.393867">
  <ele>0.0</ele>
  <time>2026-09-02T22:12:33Z</time>
  <course>185.01</course>
  <speed>0.0</speed>
  <fix>3d</fix>
</trkpt>
<trkpt lat="33.810313" lon="-118.393867">
  <ele>-0.13</ele>
  <time>2026-09-02T22:12:33Z</time>
  <course>0.0</course>
  <speed>0.0</speed>
  <fix>3d</fix>
</trkpt>
<trkpt lat="33.810313" lon="-118.393867">
  <ele>0.0</ele>
  <time>2026-09-02T22:12:33Z</time>
  <course>185.01</course>
  <speed>0.0</speed>
  <fix>3d</fix>
</trkpt>
<trkpt lat="33.810313" lon="-118.393867">
  <ele>-0.13</ele>
  <time>2026-09-02T22:12:33Z</time>
  <course>0.0</course>
  <speed>0.0</speed>
  <fix>3d</fix>
</trkpt>
<trkpt lat="33.810313" lon="-118.393867">
  <ele>0.0</ele>
  <time>2026-09-02T22:12:33Z</time>
  <course>185.01</course>
  <speed>0.0</speed>
  <fix>3d</fix>
</trkpt>
<trkpt lat="33.810313" lon="-118.393867">
  <ele>-0.12</ele>
  <time>2026-09-02T22:12:33Z</time>
  <course>0.0</course>
  <speed>0.0</speed>
  <fix>3d</fix>
</trkpt>
<trkpt lat="33.810313" lon="-118.393867">
  <ele>0.0</ele>
  <time>2026-09-02T22:12:33Z</time>
  <course>185.01</course>
  <speed>0.0</speed>
  <fix>3d</fix>
</trkpt>
<trkpt lat="33.810313" lon="-118.393867">
  <ele>-0.12</ele>
  <time>2026-09-02T22:12:33Z</time>
  <course>0.0</course>
  <speed>0.0</speed>
  <fix>3d</fix>
</trkpt>
<trkpt lat="33.810313" lon="-118.393867">
  <ele>0.0</ele>
  <time>2026-09-02T22:12:33Z</time>
  <course>185.01</course>
  <speed>0.0</speed>
  <fix>3d</fix>
</trkpt>
<trkpt lat="33.810313" lon="-118.393867">
  <ele>-0.12</ele>
  <time>2026-09-02T22:12:33Z</time>
  <course>0.0</course>
  <speed>0.0</speed>
  <fix>3d</fix>
</trkpt>
<trkpt lat="33.810313" lon="-118.393867">
  <ele>0.0</ele>
  <time>2026-09-02T22:12:33Z</time>
  <course>185.01</course>
  <speed>0.0</speed>
  <fix>3d</fix>
</trkpt>
<trkpt lat="33.810313" lon="-118.393867">
  <ele>-0.12</ele>
  <time>2026-09-02T22:12:33Z</time>
  <course>0.0</course>
  <speed>0.0</speed>
  <fix>3d</fix>
</trkpt>
<trkpt lat="33.810313" lon="-118.393867">
  <ele>0.0</ele>
  <time>2026-09-02T22:12:33Z</time>
  <course>185.01</course>
  <speed>0.0</speed>
  <fix>3d</fix>
</trkpt>
<trkpt lat="33.810313" lon="-118.393867">
  <ele>-0.12</ele>
  <time>2026-09-02T22:12:33Z</time>
  <course>0.0</course>
  <speed>0.0</speed>
  <fix>3d</fix>
</trkpt>
<trkpt lat="33.810313" lon="-118.393867">
  <ele>0.0</ele>
  <time>2026-09-02T22:12:33Z</time>
  <course>185.01</course>
  <speed>0.0</speed>
  <fix>3d</fix>
</trkpt>
<trkpt lat="33.810313" lon="-118.393867">
  <ele>-0.12</ele>
  <time>2026-09-02T22:12:33Z</time>
  <course>0.0</course>
  <speed>0.0</speed>
  <fix>3d</fix>
</trkpt>
<trkpt lat="33.810313" lon="-118.393867">
  <ele>0.0</ele>
  <time>2026-09-02T22:12:33Z</time>
  <course>185.01</course>
  <speed>0.0</speed>
  <fix>3d</fix>
</trkpt>
<trkpt lat="33.810313" lon="-118.393867">
  <ele>-0.12</ele>
  <time>2026-09-02T22:12:33Z</time>
  <course>0.0</course>
  <speed>0.0</speed>
  <fix>3d</fix>
</trkpt>
<trkpt lat="33.810313" lon="-118.393867">
  <ele>0.0</ele>
  <time>2026-09-02T22:12:33Z</time>
  <course>185.01</course>
  <speed>0.0</speed>
  <fix>3d</fix>
</trkpt>
<trkpt lat="33.810313" lon="-118.393867">
  <ele>-0.12</ele>
  <time>2026-09-02T22:12:33Z</time>
  <course>0.0</course>
  <speed>0.0</speed>
  <fix>3d</fix>
</trkpt>
<trkpt lat="33.810313" lon="-118.393867">
  <ele>0.0</ele>
  <time>2026-09-02T22:12:33Z</time>
  <course>185.01</course>
  <speed>0.0</speed>
  <fix>3d</fix>
</trkpt>
<trkpt lat="33.810313" lon="-118.393867">
  <ele>-0.12</ele>
  <time>2026-09-02T22:12:33Z</time>
  <course>0.0</course>
  <speed>0.0</speed>
  <fix>3d</fix>
</trkpt>
<trkpt lat="33.810313" lon="-118.393867">
  <ele>0.0</ele>
  <time>2026-09-02T22:12:33Z</time>
  <course>185.01</course>
  <speed>0.0</speed>
  <fix>3d</fix>
</trkpt>
<trkpt lat="33.810313" lon="-118.393867">
  <ele>-0.12</ele>
  <time>2026-09-02T22:12:33Z</time>
  <course>0.0</course>
  <speed>0.0</speed>
  <fix>3d</fix>
</trkpt>
<trkpt lat="33.810313" lon="-118.393867">
  <ele>0.0</ele>
  <time>2026-09-02T22:12:33Z</time>
  <course>185.01</course>
  <speed>0.0</speed>
  <fix>3d</fix>
</trkpt>
<trkpt lat="33.810313" lon="-118.393867">
  <ele>-0.13</ele>
  <time>2026-09-02T22:12:33Z</time>
  <course>0.0</course>
  <speed>0.0</speed>
  <fix>3d</fix>
</trkpt>
<trkpt lat="33.810313" lon="-118.393867">
  <ele>0.0</ele>
  <time>2026-09-02T22:12:33Z</time>
  <course>185.01</course>
  <speed>0.0</speed>
  <fix>3d</fix>
</trkpt>
<trkpt lat="33.810313" lon="-118.393867">
  <ele>-0.13</ele>
  <time>2026-09-02T22:12:33Z</time>
  <course>0.0</course>
  <speed>0.0</speed>
  <fix>3d</fix>
</trkpt>
<trkpt lat="33.810313" lon="-118.393867">
  <ele>0.0</ele>
  <time>2026-09-02T22:12:33Z</time>
  <course>185.01</course>
  <speed>0.0</speed>
  <fix>3d</fix>
</trkpt>
<trkpt lat="33.810313" lon="-118.393867">
  <ele>-0.13</ele>
  <time>2026-09-02T22:12:33Z</time>
  <course>0.0</course>
  <speed>0.0</speed>
  <fix>3d</fix>
</trkpt>
<trkpt lat="33.810313" lon="-118.393867">
  <ele>0.0</ele>
  <time>2026-09-02T22:12:33Z</time>
  <course>185.01</course>
  <speed>0.0</speed>
  <fix>3d</fix>
</trkpt>
<trkpt lat="33.810313" lon="-118.393867">
  <ele>-0.13</ele>
  <time>2026-09-02T22:12:33Z</time>
  <course>0.0</course>
  <speed>0.0</speed>
  <fix>3d</fix>
</trkpt>
<trkpt lat="33.810313" lon="-118.393867">
  <ele>0.0</ele>
  <time>2026-09-02T22:12:33Z</time>
  <course>185.01</course>
  <speed>0.0</speed>
  <fix>3d</fix>
</trkpt>
<trkpt lat="33.810313" lon="-118.393867">
  <ele>-0.13</ele>
  <time>2026-09-02T22:12:33Z</time>
  <course>0.0</course>
  <speed>0.0</speed>
  <fix>3d</fix>
</trkpt>
<trkpt lat="33.810313" lon="-118.393867">
  <ele>0.0</ele>
  <time>2026-09-02T22:12:33Z</time>
  <course>185.02</course>
  <speed>0.0</speed>
  <fix>3d</fix>
</trkpt>
<trkpt lat="33.810313" lon="-118.393867">
  <ele>-0.13</ele>
  <time>2026-09-02T22:12:33Z</time>
  <course>0.0</course>
  <speed>0.0</speed>
  <fix>3d</fix>
</trkpt>
<trkpt lat="33.810313" lon="-118.393867">
  <ele>0.0</ele>
  <time>2026-09-02T22:12:33Z</time>
  <course>185.02</course>
  <speed>0.0</speed>
  <fix>3d</fix>
</trkpt>
<trkpt lat="33.810313" lon="-118.393867">
  <ele>-0.12</ele>
  <time>2026-09-02T22:12:33Z</time>
  <course>0.0</course>
  <speed>0.0</speed>
  <fix>3d</fix>
</trkpt>
<trkpt lat="33.810313" lon="-118.393867">
  <ele>0.0</ele>
  <time>2026-09-02T22:12:33Z</time>
  <course>185.02</course>
  <speed>0.0</speed>
  <fix>3d</fix>
</trkpt>
<trkpt lat="33.810313" lon="-118.393867">
  <ele>-0.12</ele>
  <time>2026-09-02T22:12:33Z</time>
  <course>0.0</course>
  <speed>0.0</speed>
  <fix>3d</fix>
</trkpt>
<trkpt lat="33.810313" lon="-118.393867">
  <ele>0.0</ele>
  <time>2026-09-02T22:12:33Z</time>
  <course>185.02</course>
  <speed>0.0</speed>
  <fix>3d</fix>
</trkpt>
<trkpt lat="33.810313" lon="-118.393867">
  <ele>-0.12</ele>
  <time>2026-09-02T22:12:33Z</time>
  <course>0.0</course>
  <speed>0.0</speed>
  <fix>3d</fix>
</trkpt>
<trkpt lat="33.810313" lon="-118.393867">
  <ele>0.0</ele>
  <time>2026-09-02T22:12:33Z</time>
  <course>185.02</course>
  <speed>0.0</speed>
  <fix>3d</fix>
</trkpt>
<trkpt lat="33.810313" lon="-118.393867">
  <ele>-0.12</ele>
  <time>2026-09-02T22:12:33Z</time>
  <course>0.0</course>
  <speed>0.0</speed>
  <fix>3d</fix>
</trkpt>
<trkpt lat="33.810313" lon="-118.393867">
  <ele>0.0</ele>
  <time>2026-09-02T22:12:33Z</time>
  <course>185.02</course>
  <speed>0.0</speed>
  <fix>3d</fix>
</trkpt>
<trkpt lat="33.810313" lon="-118.393867">
  <ele>-0.12</ele>
  <time>2026-09-02T22:12:33Z</time>
  <course>0.0</course>
  <speed>0.0</speed>
  <fix>3d</fix>
</trkpt>
<trkpt lat="33.810313" lon="-118.393867">
  <ele>0.0</ele>
  <time>2026-09-02T22:12:33Z</time>
  <course>185.02</course>
  <speed>0.0</speed>
  <fix>3d</fix>
</trkpt>
<trkpt lat="33.810313" lon="-118.393867">
  <ele>-0.12</ele>
  <time>2026-09-02T22:12:33Z</time>
  <course>0.0</course>
  <speed>0.0</speed>
  <fix>3d</fix>
</trkpt>
<trkpt lat="33.810313" lon="-118.393867">
  <ele>0.0</ele>
  <time>2026-09-02T22:12:33Z</time>
  <course>185.02</course>
  <speed>0.0</speed>
  <fix>3d</fix>
</trkpt>
<trkpt lat="33.810313" lon="-118.393867">
  <ele>-0.12</ele>
  <time>2026-09-02T22:12:33Z</time>
  <course>0.0</course>
  <speed>0.0</speed>
  <fix>3d</fix>
</trkpt>
<trkpt lat="33.810313" lon="-118.393867">
  <ele>0.0</ele>
  <time>2026-09-02T22:12:33Z</time>
  <course>185.02</course>
  <speed>0.0</speed>
  <fix>3d</fix>
</trkpt>
<trkpt lat="33.810313" lon="-118.393867">
  <ele>-0.12</ele>
  <time>2026-09-02T22:12:33Z</time>
  <course>0.0</course>
  <speed>0.0</speed>
  <fix>3d</fix>
</trkpt>
<trkpt lat="33.810313" lon="-118.393867">
  <ele>0.0</ele>
  <time>2026-09-02T22:12:33Z</time>
  <course>185.02</course>
  <speed>0.0</speed>
  <fix>3d</fix>
</trkpt>
<trkpt lat="33.810313" lon="-118.393867">
  <ele>-0.12</ele>
  <time>2026-09-02T22:12:33Z</time>
  <course>0.0</course>
  <speed>0.0</speed>
  <fix>3d</fix>
</trkpt>
<trkpt lat="33.810313" lon="-118.393867">
  <ele>0.0</ele>
  <time>2026-09-02T22:12:33Z</time>
  <course>185.02</course>
  <speed>0.0</speed>
  <fix>3d</fix>
</trkpt>
<trkpt lat="33.810313" lon="-118.393867">
  <ele>-0.12</ele>
  <time>2026-09-02T22:12:33Z</time>
  <course>0.0</course>
  <speed>0.0</speed>
  <fix>3d</fix>
</trkpt>
<trkpt lat="33.810313" lon="-118.393867">
  <ele>0.0</ele>
  <time>2026-09-02T22:12:33Z</time>
  <course>185.02</course>
  <speed>0.0</speed>
  <fix>3d</fix>
</trkpt>
<trkpt lat="33.810313" lon="-118.393867">
  <ele>-0.13</ele>
  <time>2026-09-02T22:12:33Z</time>
  <course>0.0</course>
  <speed>0.0</speed>
  <fix>3d</fix>
</trkpt>
<trkpt lat="33.810313" lon="-118.393867">
  <ele>0.0</ele>
  <time>2026-09-02T22:12:33Z</time>
  <course>185.02</course>
  <speed>0.0</speed>
  <fix>3d</fix>
</trkpt>
<trkpt lat="33.810313" lon="-118.393867">
  <ele>-0.13</ele>
  <time>2026-09-02T22:12:33Z</time>
  <course>0.0</course>
  <speed>0.0</speed>
  <fix>3d</fix>
</trkpt>
<trkpt lat="33.810313" lon="-118.393867">
  <ele>0.0</ele>
  <time>2026-09-02T22:12:33Z</time>
  <course>185.02</course>
  <speed>0.0</speed>
  <fix>3d</fix>
</trkpt>
<trkpt lat="33.810313" lon="-118.393867">
  <ele>-0.13</ele>
  <time>2026-09-02T22:12:33Z</time>
  <course>0.0</course>
  <speed>0.0</speed>
  <fix>3d</fix>
</trkpt>
<trkpt lat="33.810313" lon="-118.393867">
  <ele>0.0</ele>
  <time>2026-09-02T22:12:33Z</time>
  <course>185.02</course>
  <speed>0.0</speed>
  <fix>3d</fix>
</trkpt>
<trkpt lat="33.810313" lon="-118.393867">
  <ele>-0.13</ele>
  <time>2026-09-02T22:12:33Z</time>
  <course>0.0</course>
  <speed>0.0</speed>
  <fix>3d</fix>
</trkpt>
<trkpt lat="33.810313" lon="-118.393867">
  <ele>0.0</ele>
  <time>2026-09-02T22:12:33Z</time>
  <course>185.02</course>
  <speed>0.0</speed>
  <fix>3d</fix>
</trkpt>
<trkpt lat="33.810313" lon="-118.393867">
  <ele>-0.13</ele>
  <time>2026-09-02T22:12:33Z</time>
  <course>0.0</course>
  <speed>0.0</speed>
  <fix>3d</fix>
</trkpt>
<trkpt lat="33.810313" lon="-118.393867">
  <ele>0.0</ele>
  <time>2026-09-02T22:12:33Z</time>
  <course>185.02</course>
  <speed>0.0</speed>
  <fix>3d</fix>
</trkpt>
<trkpt lat="33.810313" lon="-118.393867">
  <ele>-0.13</ele>
  <time>2026-09-02T22:12:33Z</time>
  <course>0.0</course>
  <speed>0.0</speed>
  <fix>3d</fix>
</trkpt>
<trkpt lat="33.810313" lon="-118.393867">
  <ele>0.0</ele>
  <time>2026-09-02T22:12:33Z</time>
  <course>185.02</course>
  <speed>0.0</speed>
  <fix>3d</fix>
</trkpt>
<trkpt lat="33.810313" lon="-118.393867">
  <ele>-0.12</ele>
  <time>2026-09-02T22:12:33Z</time>
  <course>0.0</course>
  <speed>0.0</speed>
  <fix>3d</fix>
</trkpt>
<trkpt lat="33.810313" lon="-118.393867">
  <ele>0.0</ele>
  <time>2026-09-02T22:12:33Z</time>
  <course>185.02</course>
  <speed>0.0</speed>
  <fix>3d</fix>
</trkpt>
<trkpt lat="33.810313" lon="-118.393867">
  <ele>-0.12</ele>
  <time>2026-09-02T22:12:33Z</time>
  <course>0.0</course>
  <speed>0.0</speed>
  <fix>3d</fix>
</trkpt>
<trkpt lat="33.810313" lon="-118.393867">
  <ele>0.0</ele>
  <time>2026-09-02T22:12:33Z</time>
  <course>185.02</course>
  <speed>0.0</speed>
  <fix>3d</fix>
</trkpt>
<trkpt lat="33.810313" lon="-118.393867">
  <ele>-0.12</ele>
  <time>2026-09-02T22:12:33Z</time>
  <course>0.0</course>
  <speed>0.0</speed>
  <fix>3d</fix>
</trkpt>
<trkpt lat="33.810313" lon="-118.393867">
  <ele>0.0</ele>
  <time>2026-09-02T22:12:33Z</time>
  <course>185.02</course>
  <speed>0.0</speed>
  <fix>3d</fix>
</trkpt>
<trkpt lat="33.810313" lon="-118.393867">
  <ele>-0.12</ele>
  <time>2026-09-02T22:12:33Z</time>
  <course>0.0</course>
  <speed>0.0</speed>
  <fix>3d</fix>
</trkpt>
<trkpt lat="33.810313" lon="-118.393867">
  <ele>0.0</ele>
  <time>2026-09-02T22:12:33Z</time>
  <course>185.02</course>
  <speed>0.0</speed>
  <fix>3d</fix>
</trkpt>
<trkpt lat="33.810313" lon="-118.393867">
  <ele>-0.12</ele>
  <time>2026-09-02T22:12:33Z</time>
  <course>0.0</course>
  <speed>0.0</speed>
  <fix>3d</fix>
</trkpt>
<trkpt lat="33.810313" lon="-118.393867">
  <ele>0.0</ele>
  <time>2026-09-02T22:12:33Z</time>
  <course>185.02</course>
  <speed>0.0</speed>
  <fix>3d</fix>
</trkpt>
<trkpt lat="33.810313" lon="-118.393867">
  <ele>-0.12</ele>
  <time>2026-09-02T22:12:33Z</time>
  <course>0.0</course>
  <speed>0.0</speed>
  <fix>3d</fix>
</trkpt>
<trkpt lat="33.810313" lon="-118.393867">
  <ele>0.0</ele>
  <time>2026-09-02T22:12:33Z</time>
  <course>185.02</course>
  <speed>0.0</speed>
  <fix>3d</fix>
</trkpt>
<trkpt lat="33.810313" lon="-118.393867">
  <ele>-0.12</ele>
  <time>2026-09-02T22:12:33Z</time>
  <course>0.0</course>
  <speed>0.0</speed>
  <fix>3d</fix>
</trkpt>
<trkpt lat="33.810313" lon="-118.393867">
  <ele>0.0</ele>
  <time>2026-09-02T22:12:33Z</time>
  <course>185.02</course>
  <speed>0.0</speed>
  <fix>3d</fix>
</trkpt>
<trkpt lat="33.810313" lon="-118.393867">
  <ele>-0.12</ele>
  <time>2026-09-02T22:12:33Z</time>
  <course>0.0</course>
  <speed>0.0</speed>
  <fix>3d</fix>
</trkpt>
<trkpt lat="33.810313" lon="-118.393867">
  <ele>0.0</ele>
  <time>2026-09-02T22:12:33Z</time>
  <course>185.02</course>
  <speed>0.0</speed>
  <fix>3d</fix>
</trkpt>
<trkpt lat="33.810313" lon="-118.393867">
  <ele>-0.12</ele>
  <time>2026-09-02T22:12:33Z</time>
  <course>0.0</course>
  <speed>0.0</speed>
  <fix>3d</fix>
</trkpt>
<trkpt lat="33.810313" lon="-118.393867">
  <ele>0.0</ele>
  <time>2026-09-02T22:12:33Z</time>
  <course>185.02</course>
  <speed>0.0</speed>
  <fix>3d</fix>
</trkpt>
<trkpt lat="33.810313" lon="-118.393867">
  <ele>-0.12</ele>
  <time>2026-09-02T22:12:33Z</time>
  <course>0.0</course>
  <speed>0.0</speed>
  <fix>3d</fix>
</trkpt>
<trkpt lat="33.810313" lon="-118.393867">
  <ele>0.0</ele>
  <time>2026-09-02T22:12:33Z</time>
  <course>185.02</course>
  <speed>0.0</speed>
  <fix>3d</fix>
</trkpt>
<trkpt lat="33.810313" lon="-118.393867">
  <ele>-0.13</ele>
  <time>2026-09-02T22:12:33Z</time>
  <course>0.0</course>
  <speed>0.0</speed>
  <fix>3d</fix>
</trkpt>
<trkpt lat="33.810313" lon="-118.393867">
  <ele>0.0</ele>
  <time>2026-09-02T22:12:33Z</time>
  <course>185.02</course>
  <speed>0.0</speed>
  <fix>3d</fix>
</trkpt>
<trkpt lat="33.810313" lon="-118.393867">
  <ele>-0.13</ele>
  <time>2026-09-02T22:12:33Z</time>
  <course>0.0</course>
  <speed>0.0</speed>
  <fix>3d</fix>
</trkpt>
<trkpt lat="33.810313" lon="-118.393867">
  <ele>-0.123</ele>
  <time>2026-09-02T22:12:33Z</time>
  <course>185.02</course>
  <speed>0.0</speed>
  <fix>3d</fix>
</trkpt>
<trkpt lat="33.810313" lon="-118.393867">
  <ele>-0.13</ele>
  <time>2026-09-02T22:12:33Z</time>
  <course>0.0</course>
  <speed>0.0</speed>
  <fix>3d</fix>
</trkpt>
<trkpt lat="33.810313" lon="-118.393867">
  <ele>-0.12</ele>
  <time>2026-09-02T22:12:33Z</time>
  <course>185.02</course>
  <speed>0.0</speed>
  <fix>3d</fix>
</trkpt>
<trkpt lat="33.810313" lon="-118.393867">
  <ele>-0.13</ele>
  <time>2026-09-02T22:12:33Z</time>
  <course>0.0</course>
  <speed>0.0</speed>
  <fix>3d</fix>
</trkpt>
<trkpt lat="33.810313" lon="-118.393867">
  <ele>-0.117</ele>
  <time>2026-09-02T22:12:33Z</time>
  <course>185.02</course>
  <speed>0.0</speed>
  <fix>3d</fix>
</trkpt>
<trkpt lat="33.810313" lon="-118.393867">
  <ele>-0.12</ele>
  <time>2026-09-02T22:12:33Z</time>
  <course>0.0</course>
  <speed>0.0</speed>
  <fix>3d</fix>
</trkpt>
<trkpt lat="33.810313" lon="-118.393867">
  <ele>-0.113</ele>
  <time>2026-09-02T22:12:33Z</time>
  <course>185.02</course>
  <speed>0.0</speed>
  <fix>3d</fix>
</trkpt>
<trkpt lat="33.810313" lon="-118.393867">
  <ele>-0.12</ele>
  <time>2026-09-02T22:12:33Z</time>
  <course>0.0</course>
  <speed>0.0</speed>
  <fix>3d</fix>
</trkpt>
<trkpt lat="33.810313" lon="-118.393867">
  <ele>-0.11</ele>
  <time>2026-09-02T22:12:33Z</time>
  <course>185.02</course>
  <speed>0.0</speed>
  <fix>3d</fix>
</trkpt>
<trkpt lat="33.810313" lon="-118.393867">
  <ele>-0.12</ele>
  <time>2026-09-02T22:12:33Z</time>
  <course>0.0</course>
  <speed>0.0</speed>
  <fix>3d</fix>
</trkpt>
<trkpt lat="33.810313" lon="-118.393867">
  <ele>-0.111</ele>
  <time>2026-09-02T22:12:33Z</time>
  <course>185.02</course>
  <speed>0.0</speed>
  <fix>3d</fix>
</trkpt>
<trkpt lat="33.810313" lon="-118.393867">
  <ele>-0.12</ele>
  <time>2026-09-02T22:12:33Z</time>
  <course>0.0</course>
  <speed>0.0</speed>
  <fix>3d</fix>
</trkpt>
<trkpt lat="33.810313" lon="-118.393867">
  <ele>-0.113</ele>
  <time>2026-09-02T22:12:33Z</time>
  <course>185.02</course>
  <speed>0.0</speed>
  <fix>3d</fix>
</trkpt>
<trkpt lat="33.810313" lon="-118.393867">
  <ele>-0.12</ele>
  <time>2026-09-02T22:12:33Z</time>
  <course>0.0</course>
  <speed>0.0</speed>
  <fix>3d</fix>
</trkpt>
<trkpt lat="33.810313" lon="-118.393867">
  <ele>-0.117</ele>
  <time>2026-09-02T22:12:33Z</time>
  <course>185.02</course>
  <speed>0.0</speed>
  <fix>3d</fix>
</trkpt>
<trkpt lat="33.810313" lon="-118.393867">
  <ele>-0.12</ele>
  <time>2026-09-02T22:12:33Z</time>
  <course>0.0</course>
  <speed>0.0</speed>
  <fix>3d</fix>
</trkpt>
<trkpt lat="33.810313" lon="-118.393867">
  <ele>-0.121</ele>
  <time>2026-09-02T22:12:33Z</time>
  <course>185.02</course>
  <speed>0.0</speed>
  <fix>3d</fix>
</trkpt>
<trkpt lat="33.810313" lon="-118.393867">
  <ele>-0.12</ele>
  <time>2026-09-02T22:12:33Z</time>
  <course>0.0</course>
  <speed>0.0</speed>
  <fix>3d</fix>
</trkpt>
<trkpt lat="33.810313" lon="-118.393867">
  <ele>-0.122</ele>
  <time>2026-09-02T22:12:33Z</time>
  <course>185.02</course>
  <speed>0.0</speed>
  <fix>3d</fix>
</trkpt>
<trkpt lat="33.810313" lon="-118.393867">
  <ele>-0.12</ele>
  <time>2026-09-02T22:12:33Z</time>
  <course>0.0</course>
  <speed>0.0</speed>
  <fix>3d</fix>
</trkpt>
<trkpt lat="33.810313" lon="-118.393867">
  <ele>-0.123</ele>
  <time>2026-09-02T22:12:33Z</time>
  <course>185.02</course>
  <speed>0.0</speed>
  <fix>3d</fix>
</trkpt>
<trkpt lat="33.810313" lon="-118.393867">
  <ele>-0.12</ele>
  <time>2026-09-02T22:12:33Z</time>
  <course>0.0</course>
  <speed>0.0</speed>
  <fix>3d</fix>
</trkpt>
<trkpt lat="33.810313" lon="-118.393867">
  <ele>-0.122</ele>
  <time>2026-09-02T22:12:33Z</time>
  <course>185.03</course>
  <speed>0.0</speed>
  <fix>3d</fix>
</trkpt>
<trkpt lat="33.810313" lon="-118.393867">
  <ele>-0.12</ele>
  <time>2026-09-02T22:12:33Z</time>
  <course>0.0</course>
  <speed>0.0</speed>
  <fix>3d</fix>
</trkpt>
<trkpt lat="33.810313" lon="-118.393867">
  <ele>-0.122</ele>
  <time>2026-09-02T22:12:33Z</time>
  <course>185.03</course>
  <speed>0.0</speed>
  <fix>3d</fix>
</trkpt>
<trkpt lat="33.810313" lon="-118.393867">
  <ele>-0.12</ele>
  <time>2026-09-02T22:12:33Z</time>
  <course>0.0</course>
  <speed>0.0</speed>
  <fix>3d</fix>
</trkpt>
<trkpt lat="33.810313" lon="-118.393867">
  <ele>-0.12</ele>
  <time>2026-09-02T22:12:33Z</time>
  <course>185.03</course>
  <speed>0.0</speed>
  <fix>3d</fix>
</trkpt>
<trkpt lat="33.810313" lon="-118.393867">
  <ele>-0.12</ele>
  <time>2026-09-02T22:12:33Z</time>
  <course>0.0</course>
  <speed>0.0</speed>
  <fix>3d</fix>
</trkpt>
<trkpt lat="33.810313" lon="-118.393867">
  <ele>-0.119</ele>
  <time>2026-09-02T22:12:33Z</time>
  <course>185.03</course>
  <speed>0.0</speed>
  <fix>3d</fix>
</trkpt>
<trkpt lat="33.810313" lon="-118.393867">
  <ele>-0.13</ele>
  <time>2026-09-02T22:12:33Z</time>
  <course>0.0</course>
  <speed>0.0</speed>
  <fix>3d</fix>
</trkpt>
<trkpt lat="33.810313" lon="-118.393867">
  <ele>-0.118</ele>
  <time>2026-09-02T22:12:33Z</time>
  <course>185.03</course>
  <speed>0.0</speed>
  <fix>3d</fix>
</trkpt>
<trkpt lat="33.810313" lon="-118.393867">
  <ele>-0.13</ele>
  <time>2026-09-02T22:12:33Z</time>
  <course>0.0</course>
  <speed>0.0</speed>
  <fix>3d</fix>
</trkpt>
<trkpt lat="33.810313" lon="-118.393867">
  <ele>-0.115</ele>
  <time>2026-09-02T22:12:33Z</time>
  <course>185.03</course>
  <speed>0.0</speed>
  <fix>3d</fix>
</trkpt>
<trkpt lat="33.810313" lon="-118.393867">
  <ele>-0.12</ele>
  <time>2026-09-02T22:12:33Z</time>
  <course>0.0</course>
  <speed>0.0</speed>
  <fix>3d</fix>
</trkpt>
<trkpt lat="33.810313" lon="-118.393867">
  <ele>-0.113</ele>
  <time>2026-09-02T22:12:33Z</time>
  <course>185.03</course>
  <speed>0.0</speed>
  <fix>3d</fix>
</trkpt>
<trkpt lat="33.810313" lon="-118.393867">
  <ele>-0.12</ele>
  <time>2026-09-02T22:12:33Z</time>
  <course>0.0</course>
  <speed>0.0</speed>
  <fix>3d</fix>
</trkpt>
<trkpt lat="33.810313" lon="-118.393867">
  <ele>-0.112</ele>
  <time>2026-09-02T22:12:33Z</time>
  <course>185.03</course>
  <speed>0.0</speed>
  <fix>3d</fix>
</trkpt>
<trkpt lat="33.810313" lon="-118.393867">
  <ele>-0.12</ele>
  <time>2026-09-02T22:12:33Z</time>
  <course>0.0</course>
  <speed>0.0</speed>
  <fix>3d</fix>
</trkpt>
<trkpt lat="33.810313" lon="-118.393867">
  <ele>-0.114</ele>
  <time>2026-09-02T22:12:33Z</time>
  <course>185.03</course>
  <speed>0.0</speed>
  <fix>3d</fix>
</trkpt>
<trkpt lat="33.810313" lon="-118.393867">
  <ele>-0.12</ele>
  <time>2026-09-02T22:12:33Z</time>
  <course>0.0</course>
  <speed>0.0</speed>
  <fix>3d</fix>
</trkpt>
<trkpt lat="33.810313" lon="-118.393867">
  <ele>-0.116</ele>
  <time>2026-09-02T22:12:33Z</time>
  <course>185.03</course>
  <speed>0.0</speed>
  <fix>3d</fix>
</trkpt>
<trkpt lat="33.810313" lon="-118.393867">
  <ele>-0.12</ele>
  <time>2026-09-02T22:12:33Z</time>
  <course>0.0</course>
  <speed>0.0</speed>
  <fix>3d</fix>
</trkpt>
<trkpt lat="33.810313" lon="-118.393867">
  <ele>-0.119</ele>
  <time>2026-09-02T22:12:33Z</time>
  <course>185.03</course>
  <speed>0.0</speed>
  <fix>3d</fix>
</trkpt>
<trkpt lat="33.810313" lon="-118.393867">
  <ele>-0.12</ele>
  <time>2026-09-02T22:12:33Z</time>
  <course>0.0</course>
  <speed>0.0</speed>
  <fix>3d</fix>
</trkpt>
<trkpt lat="33.810313" lon="-118.393867">
  <ele>-0.121</ele>
  <time>2026-09-02T22:12:33Z</time>
  <course>185.03</course>
  <speed>0.0</speed>
  <fix>3d</fix>
</trkpt>
<trkpt lat="33.810313" lon="-118.393867">
  <ele>-0.12</ele>
  <time>2026-09-02T22:12:33Z</time>
  <course>0.0</course>
  <speed>0.0</speed>
  <fix>3d</fix>
</trkpt>
<trkpt lat="33.810313" lon="-118.393867">
  <ele>-0.124</ele>
  <time>2026-09-02T22:12:33Z</time>
  <course>185.03</course>
  <speed>0.0</speed>
  <fix>3d</fix>
</trkpt>
<trkpt lat="33.810313" lon="-118.393867">
  <ele>-0.12</ele>
  <time>2026-09-02T22:12:33Z</time>
  <course>0.0</course>
  <speed>0.0</speed>
  <fix>3d</fix>
</trkpt>
<trkpt lat="33.810313" lon="-118.393867">
  <ele>-0.125</ele>
  <time>2026-09-02T22:12:33Z</time>
  <course>185.03</course>
  <speed>0.0</speed>
  <fix>3d</fix>
</trkpt>
<trkpt lat="33.810313" lon="-118.393867">
  <ele>-0.12</ele>
  <time>2026-09-02T22:12:33Z</time>
  <course>0.0</course>
  <speed>0.0</speed>
  <fix>3d</fix>
</trkpt>
<trkpt lat="33.810313" lon="-118.393867">
  <ele>-0.126</ele>
  <time>2026-09-02T22:12:33Z</time>
  <course>185.03</course>
  <speed>0.0</speed>
  <fix>3d</fix>
</trkpt>
<trkpt lat="33.810313" lon="-118.393867">
  <ele>-0.12</ele>
  <time>2026-09-02T22:12:33Z</time>
  <course>0.0</course>
  <speed>0.0</speed>
  <fix>3d</fix>
</trkpt>
<trkpt lat="33.810313" lon="-118.393867">
  <ele>-0.127</ele>
  <time>2026-09-02T22:12:33Z</time>
  <course>185.03</course>
  <speed>0.0</speed>
  <fix>3d</fix>
</trkpt>
<trkpt lat="33.810313" lon="-118.393867">
  <ele>-0.12</ele>
  <time>2026-09-02T22:12:33Z</time>
  <course>0.0</course>
  <speed>0.0</speed>
  <fix>3d</fix>
</trkpt>
<trkpt lat="33.810313" lon="-118.393867">
  <ele>-0.126</ele>
  <time>2026-09-02T22:12:33Z</time>
  <course>185.03</course>
  <speed>0.0</speed>
  <fix>3d</fix>
</trkpt>
<trkpt lat="33.810313" lon="-118.393867">
  <ele>-0.12</ele>
  <time>2026-09-02T22:12:33Z</time>
  <course>0.0</course>
  <speed>0.0</speed>
  <fix>3d</fix>
</trkpt>
<trkpt lat="33.810313" lon="-118.393867">
  <ele>-0.126</ele>
  <time>2026-09-02T22:12:33Z</time>
  <course>185.03</course>
  <speed>0.0</speed>
  <fix>3d</fix>
</trkpt>
<trkpt lat="33.810313" lon="-118.393867">
  <ele>-0.12</ele>
  <time>2026-09-02T22:12:33Z</time>
  <course>0.0</course>
  <speed>0.0</speed>
  <fix>3d</fix>
</trkpt>
<trkpt lat="33.810313" lon="-118.393867">
  <ele>-0.124</ele>
  <time>2026-09-02T22:12:33Z</time>
  <course>185.03</course>
  <speed>0.0</speed>
  <fix>3d</fix>
</trkpt>
<trkpt lat="33.810313" lon="-118.393867">
  <ele>-0.12</ele>
  <time>2026-09-02T22:12:33Z</time>
  <course>0.0</course>
  <speed>0.0</speed>
  <fix>3d</fix>
</trkpt>
<trkpt lat="33.810313" lon="-118.393867">
  <ele>-0.12</ele>
  <time>2026-09-02T22:12:33Z</time>
  <course>185.03</course>
  <speed>0.0</speed>
  <fix>3d</fix>
</trkpt>
<trkpt lat="33.810313" lon="-118.393867">
  <ele>-0.12</ele>
  <time>2026-09-02T22:12:33Z</time>
  <course>0.0</course>
  <speed>0.0</speed>
  <fix>3d</fix>
</trkpt>
<trkpt lat="33.810313" lon="-118.393867">
  <ele>-0.118</ele>
  <time>2026-09-02T22:12:33Z</time>
  <course>185.03</course>
  <speed>0.0</speed>
  <fix>3d</fix>
</trkpt>
<trkpt lat="33.810313" lon="-118.393867">
  <ele>-0.12</ele>
  <time>2026-09-02T22:12:33Z</time>
  <course>0.0</course>
  <speed>0.0</speed>
  <fix>3d</fix>
</trkpt>
<trkpt lat="33.810313" lon="-118.393867">
  <ele>-0.117</ele>
  <time>2026-09-02T22:12:33Z</time>
  <course>185.03</course>
  <speed>0.0</speed>
  <fix>3d</fix>
</trkpt>
<trkpt lat="33.810313" lon="-118.393867">
  <ele>-0.12</ele>
  <time>2026-09-02T22:12:33Z</time>
  <course>0.0</course>
  <speed>0.0</speed>
  <fix>3d</fix>
</trkpt>
<trkpt lat="33.810313" lon="-118.393867">
  <ele>-0.118</ele>
  <time>2026-09-02T22:12:33Z</time>
  <course>185.03</course>
  <speed>0.0</speed>
  <fix>3d</fix>
</trkpt>
<trkpt lat="33.810313" lon="-118.393867">
  <ele>-0.12</ele>
  <time>2026-09-02T22:12:33Z</time>
  <course>0.0</course>
  <speed>0.0</speed>
  <fix>3d</fix>
</trkpt>
<trkpt lat="33.810313" lon="-118.393867">
  <ele>-0.119</ele>
  <time>2026-09-02T22:12:33Z</time>
  <course>185.03</course>
  <speed>0.0</speed>
  <fix>3d</fix>
</trkpt>
<trkpt lat="33.810313" lon="-118.393867">
  <ele>-0.12</ele>
  <time>2026-09-02T22:12:33Z</time>
  <course>0.0</course>
  <speed>0.0</speed>
  <fix>3d</fix>
</trkpt>
<trkpt lat="33.810313" lon="-118.393867">
  <ele>-0.121</ele>
  <time>2026-09-02T22:12:33Z</time>
  <course>185.03</course>
  <speed>0.0</speed>
  <fix>3d</fix>
</trkpt>
<trkpt lat="33.810313" lon="-118.393867">
  <ele>-0.12</ele>
  <time>2026-09-02T22:12:33Z</time>
  <course>0.0</course>
  <speed>0.0</speed>
  <fix>3d</fix>
</trkpt>
<trkpt lat="33.810313" lon="-118.393867">
  <ele>-0.124</ele>
  <time>2026-09-02T22:12:33Z</time>
  <course>185.03</course>
  <speed>0.0</speed>
  <fix>3d</fix>
</trkpt>
<trkpt lat="33.810313" lon="-118.393867">
  <ele>-0.12</ele>
  <time>2026-09-02T22:12:33Z</time>
  <course>0.0</course>
  <speed>0.0</speed>
  <fix>3d</fix>
</trkpt>
<trkpt lat="33.810313" lon="-118.393867">
  <ele>-0.125</ele>
  <time>2026-09-02T22:12:33Z</time>
  <course>185.36</course>
  <speed>0.0</speed>
  <fix>3d</fix>
</trkpt>
<trkpt lat="33.810313" lon="-118.393867">
  <ele>-0.12</ele>
  <time>2026-09-02T22:12:33Z</time>
  <course>0.0</course>
  <speed>0.0</speed>
  <fix>3d</fix>
</trkpt>
<trkpt lat="33.810313" lon="-118.393867">
  <ele>-0.125</ele>
  <time>2026-09-02T22:12:33Z</time>
  <course>186.75</course>
  <speed>0.0</speed>
  <fix>3d</fix>
</trkpt>
<trkpt lat="33.810313" lon="-118.393867">
  <ele>-0.12</ele>
  <time>2026-09-02T22:12:33Z</time>
  <course>284.61</course>
  <speed>0.0</speed>
  <fix>3d</fix>
</trkpt>
<trkpt lat="33.810313" lon="-118.393867">
  <ele>-0.125</ele>
  <time>2026-09-02T22:12:33Z</time>
  <course>188.71</course>
  <speed>0.0</speed>
  <fix>3d</fix>
</trkpt>
<trkpt lat="33.810313" lon="-118.393867">
  <ele>-0.12</ele>
  <time>2026-09-02T22:12:33Z</time>
  <course>284.61</course>
  <speed>0.0</speed>
  <fix>3d</fix>
</trkpt>
<trkpt lat="33.810313" lon="-118.393867">
  <ele>-0.124</ele>
  <time>2026-09-02T22:12:33Z</time>
  <course>190.88</course>
  <speed>0.0</speed>
  <fix>3d</fix>
</trkpt>
<trkpt lat="33.810313" lon="-118.393867">
  <ele>-0.12</ele>
  <time>2026-09-02T22:12:33Z</time>
  <course>98.35</course>
  <speed>0.0</speed>
  <fix>3d</fix>
</trkpt>
<trkpt lat="33.810313" lon="-118.393867">
  <ele>-0.123</ele>
  <time>2026-09-02T22:12:33Z</time>
  <course>193.18</course>
  <speed>0.0</speed>
  <fix>3d</fix>
</trkpt>
<trkpt lat="33.810313" lon="-118.393867">
  <ele>-0.12</ele>
  <time>2026-09-02T22:12:33Z</time>
  <course>98.35</course>
  <speed>0.0</speed>
  <fix>3d</fix>
</trkpt>
<trkpt lat="33.810313" lon="-118.393867">
  <ele>-0.121</ele>
  <time>2026-09-02T22:12:33Z</time>
  <course>195.59</course>
  <speed>0.0</speed>
  <fix>3d</fix>
</trkpt>
<trkpt lat="33.810313" lon="-118.393867">
  <ele>-0.12</ele>
  <time>2026-09-02T22:12:33Z</time>
  <course>97.82</course>
  <speed>0.0</speed>
  <fix>3d</fix>
</trkpt>
<trkpt lat="33.810313" lon="-118.393867">
  <ele>-0.119</ele>
  <time>2026-09-02T22:12:33Z</time>
  <course>198.09</course>
  <speed>0.0</speed>
  <fix>3d</fix>
</trkpt>
<trkpt lat="33.810313" lon="-118.393867">
  <ele>-0.12</ele>
  <time>2026-09-02T22:12:33Z</time>
  <course>97.82</course>
  <speed>0.0</speed>
  <fix>3d</fix>
</trkpt>
<trkpt lat="33.810313" lon="-118.393867">
  <ele>-0.117</ele>
  <time>2026-09-02T22:12:33Z</time>
  <course>200.68</course>
  <speed>0.0</speed>
  <fix>3d</fix>
</trkpt>
<trkpt lat="33.810313" lon="-118.393867">
  <ele>-0.12</ele>
  <time>2026-09-02T22:12:33Z</time>
  <course>96.09</course>
  <speed>0.0</speed>
  <fix>3d</fix>
</trkpt>
<trkpt lat="33.810313" lon="-118.393867">
  <ele>-0.116</ele>
  <time>2026-09-02T22:12:33Z</time>
  <course>203.33</course>
  <speed>0.0</speed>
  <fix>3d</fix>
</trkpt>
<trkpt lat="33.810313" lon="-118.393867">
  <ele>-0.12</ele>
  <time>2026-09-02T22:12:33Z</time>
  <course>96.09</course>
  <speed>0.0</speed>
  <fix>3d</fix>
</trkpt>
<trkpt lat="33.810313" lon="-118.393867">
  <ele>-0.117</ele>
  <time>2026-09-02T22:12:33Z</time>
  <course>206.05</course>
  <speed>0.0</speed>
  <fix>3d</fix>
</trkpt>
<trkpt lat="33.810313" lon="-118.393867">
  <ele>-0.12</ele>
  <time>2026-09-02T22:12:33Z</time>
  <course>295.84</course>
  <speed>0.0</speed>
  <fix>3d</fix>
</trkpt>
<trkpt lat="33.810313" lon="-118.393867">
  <ele>-0.119</ele>
  <time>2026-09-02T22:12:33Z</time>
  <course>208.83</course>
  <speed>0.0</speed>
  <fix>3d</fix>
</trkpt>
<trkpt lat="33.810313" lon="-118.393867">
  <ele>-0.12</ele>
  <time>2026-09-02T22:12:33Z</time>
  <course>295.84</course>
  <speed>0.0</speed>
  <fix>3d</fix>
</trkpt>
<trkpt lat="33.810313" lon="-118.393867">
  <ele>-0.122</ele>
  <time>2026-09-02T22:12:33Z</time>
  <course>211.66</course>
  <speed>0.0</speed>
  <fix>3d</fix>
</trkpt>
<trkpt lat="33.810313" lon="-118.393867">
  <ele>-0.12</ele>
  <time>2026-09-02T22:12:33Z</time>
  <course>295.07</course>
  <speed>0.0</speed>
  <fix>3d</fix>
</trkpt>
<trkpt lat="33.810313" lon="-118.393867">
  <ele>-0.123</ele>
  <time>2026-09-02T22:12:33Z</time>
  <course>214.54</course>
  <speed>0.0</speed>
  <fix>3d</fix>
</trkpt>
<trkpt lat="33.810313" lon="-118.393867">
  <ele>-0.12</ele>
  <time>2026-09-02T22:12:33Z</time>
  <course>295.07</course>
  <speed>0.0</speed>
  <fix>3d</fix>
</trkpt>
<trkpt lat="33.810313" lon="-118.393867">
  <ele>-0.124</ele>
  <time>2026-09-02T22:12:33Z</time>
  <course>217.45</course>
  <speed>0.0</speed>
  <fix>3d</fix>
</trkpt>
<trkpt lat="33.810313" lon="-118.393867">
  <ele>-0.12</ele>
  <time>2026-09-02T22:12:33Z</time>
  <course>295.57</course>
  <speed>0.0</speed>
  <fix>3d</fix>
</trkpt>
<trkpt lat="33.810313" lon="-118.393867">
  <ele>-0.125</ele>
  <time>2026-09-02T22:12:33Z</time>
  <course>220.41</course>
  <speed>0.0</speed>
  <fix>3d</fix>
</trkpt>
<trkpt lat="33.810313" lon="-118.393867">
  <ele>-0.12</ele>
  <time>2026-09-02T22:12:33Z</time>
  <course>295.57</course>
  <speed>0.0</speed>
  <fix>3d</fix>
</trkpt>
<trkpt lat="33.810313" lon="-118.393867">
  <ele>-0.124</ele>
  <time>2026-09-02T22:12:33Z</time>
  <course>223.43</course>
  <speed>0.0</speed>
  <fix>3d</fix>
</trkpt>
<trkpt lat="33.810313" lon="-118.393867">
  <ele>-0.12</ele>
  <time>2026-09-02T22:12:33Z</time>
  <course>295.57</course>
  <speed>0.0</speed>
  <fix>3d</fix>
</trkpt>
<trkpt lat="33.810313" lon="-118.393867">
  <ele>-0.123</ele>
  <time>2026-09-02T22:12:33Z</time>
  <course>226.45</course>
  <speed>0.0</speed>
  <fix>3d</fix>
</trkpt>
<trkpt lat="33.810313" lon="-118.393867">
  <ele>-0.12</ele>
  <time>2026-09-02T22:12:33Z</time>
  <course>295.57</course>
  <speed>0.0</speed>
  <fix>3d</fix>
</trkpt>
<trkpt lat="33.810313" lon="-118.393867">
  <ele>-0.122</ele>
  <time>2026-09-02T22:12:34Z</time>
  <course>229.51</course>
  <speed>0.0</speed>
  <fix>3d</fix>
</trkpt>
<trkpt lat="33.810313" lon="-118.393867">
  <ele>-0.12</ele>
  <time>2026-09-02T22:12:34Z</time>
  <course>295.57</course>
  <speed>0.0</speed>
  <fix>3d</fix>
</trkpt>
<trkpt lat="33.810313" lon="-118.393867">
  <ele>-0.121</ele>
  <time>2026-09-02T22:12:34Z</time>
  <course>232.6</course>
  <speed>0.0</speed>
  <fix>3d</fix>
</trkpt>
<trkpt lat="33.810313" lon="-118.393867">
  <ele>-0.12</ele>
  <time>2026-09-02T22:12:34Z</time>
  <course>295.57</course>
  <speed>0.0</speed>
  <fix>3d</fix>
</trkpt>
<trkpt lat="33.810313" lon="-118.393867">
  <ele>-0.118</ele>
  <time>2026-09-02T22:12:34Z</time>
  <course>235.69</course>
  <speed>0.0</speed>
  <fix>3d</fix>
</trkpt>
<trkpt lat="33.810313" lon="-118.393867">
  <ele>-0.12</ele>
  <time>2026-09-02T22:12:34Z</time>
  <course>302.58</course>
  <speed>0.0</speed>
  <fix>3d</fix>
</trkpt>
<trkpt lat="33.810313" lon="-118.393867">
  <ele>-0.117</ele>
  <time>2026-09-02T22:12:34Z</time>
  <course>238.83</course>
  <speed>0.0</speed>
  <fix>3d</fix>
</trkpt>
<trkpt lat="33.810313" lon="-118.393867">
  <ele>-0.12</ele>
  <time>2026-09-02T22:12:34Z</time>
  <course>302.58</course>
  <speed>0.0</speed>
  <fix>3d</fix>
</trkpt>
<trkpt lat="33.810313" lon="-118.393867">
  <ele>-0.118</ele>
  <time>2026-09-02T22:12:34Z</time>
  <course>241.99</course>
  <speed>0.0</speed>
  <fix>3d</fix>
</trkpt>
<trkpt lat="33.810313" lon="-118.393867">
  <ele>-0.12</ele>
  <time>2026-09-02T22:12:34Z</time>
  <course>307.54</course>
  <speed>0.0</speed>
  <fix>3d</fix>
</trkpt>
<trkpt lat="33.810313" lon="-118.393867">
  <ele>-0.12</ele>
  <time>2026-09-02T22:12:34Z</time>
  <course>245.17</course>
  <speed>0.0</speed>
  <fix>3d</fix>
</trkpt>
<trkpt lat="33.810313" lon="-118.393867">
  <ele>-0.12</ele>
  <time>2026-09-02T22:12:34Z</time>
  <course>307.54</course>
  <speed>0.0</speed>
  <fix>3d</fix>
</trkpt>
<trkpt lat="33.810313" lon="-118.393867">
  <ele>-0.123</ele>
  <time>2026-09-02T22:12:34Z</time>
  <course>248.4</course>
  <speed>0.0</speed>
  <fix>3d</fix>
</trkpt>
<trkpt lat="33.810313" lon="-118.393867">
  <ele>-0.12</ele>
  <time>2026-09-02T22:12:34Z</time>
  <course>308.31</course>
  <speed>0.0</speed>
  <fix>3d</fix>
</trkpt>
<trkpt lat="33.810313" lon="-118.393867">
  <ele>-0.126</ele>
  <time>2026-09-02T22:12:34Z</time>
  <course>251.62</course>
  <speed>0.0</speed>
  <fix>3d</fix>
</trkpt>
<trkpt lat="33.810313" lon="-118.393867">
  <ele>-0.12</ele>
  <time>2026-09-02T22:12:34Z</time>
  <course>308.31</course>
  <speed>0.0</speed>
  <fix>3d</fix>
</trkpt>
<trkpt lat="33.810313" lon="-118.393867">
  <ele>-0.128</ele>
  <time>2026-09-02T22:12:34Z</time>
  <course>254.84</course>
  <speed>0.0</speed>
  <fix>3d</fix>
</trkpt>
<trkpt lat="33.810313" lon="-118.393867">
  <ele>-0.12</ele>
  <time>2026-09-02T22:12:34Z</time>
  <course>308.31</course>
  <speed>0.0</speed>
  <fix>3d</fix>
</trkpt>
<trkpt lat="33.810313" lon="-118.393867">
  <ele>-0.128</ele>
  <time>2026-09-02T22:12:34Z</time>
  <course>258.09</course>
  <speed>0.0</speed>
  <fix>3d</fix>
</trkpt>
<trkpt lat="33.810313" lon="-118.393867">
  <ele>-0.12</ele>
  <time>2026-09-02T22:12:34Z</time>
  <course>308.31</course>
  <speed>0.0</speed>
  <fix>3d</fix>
</trkpt>
<trkpt lat="33.810313" lon="-118.393867">
  <ele>-0.128</ele>
  <time>2026-09-02T22:12:34Z</time>
  <course>261.35</course>
  <speed>0.0</speed>
  <fix>3d</fix>
</trkpt>
<trkpt lat="33.810313" lon="-118.393867">
  <ele>-0.12</ele>
  <time>2026-09-02T22:12:34Z</time>
  <course>308.31</course>
  <speed>0.0</speed>
  <fix>3d</fix>
</trkpt>
<trkpt lat="33.810313" lon="-118.393867">
  <ele>-0.126</ele>
  <time>2026-09-02T22:12:34Z</time>
  <course>264.6</course>
  <speed>0.0</speed>
  <fix>3d</fix>
</trkpt>
<trkpt lat="33.810313" lon="-118.393867">
  <ele>-0.12</ele>
  <time>2026-09-02T22:12:34Z</time>
  <course>308.31</course>
  <speed>0.0</speed>
  <fix>3d</fix>
</trkpt>
<trkpt lat="33.810313" lon="-118.393867">
  <ele>-0.123</ele>
  <time>2026-09-02T22:12:34Z</time>
  <course>267.89</course>
  <speed>0.0</speed>
  <fix>3d</fix>
</trkpt>
<trkpt lat="33.810313" lon="-118.393867">
  <ele>-0.12</ele>
  <time>2026-09-02T22:12:34Z</time>
  <course>303.39</course>
  <speed>0.0</speed>
  <fix>3d</fix>
</trkpt>
<trkpt lat="33.810313" lon="-118.393867">
  <ele>-0.119</ele>
  <time>2026-09-02T22:12:34Z</time>
  <course>271.18</course>
  <speed>0.0</speed>
  <fix>3d</fix>
</trkpt>
<trkpt lat="33.810313" lon="-118.393867">
  <ele>-0.12</ele>
  <time>2026-09-02T22:12:34Z</time>
  <course>303.39</course>
  <speed>0.0</speed>
  <fix>3d</fix>
</trkpt>
<trkpt lat="33.810313" lon="-118.393867">
  <ele>-0.115</ele>
  <time>2026-09-02T22:12:34Z</time>
  <course>274.48</course>
  <speed>0.0</speed>
  <fix>3d</fix>
</trkpt>
<trkpt lat="33.810313" lon="-118.393867">
  <ele>-0.12</ele>
  <time>2026-09-02T22:12:34Z</time>
  <course>275.9</course>
  <speed>0.0</speed>
  <fix>3d</fix>
</trkpt>
<trkpt lat="33.810313" lon="-118.393867">
  <ele>-0.112</ele>
  <time>2026-09-02T22:12:34Z</time>
  <course>277.8</course>
  <speed>0.0</speed>
  <fix>3d</fix>
</trkpt>
<trkpt lat="33.810313" lon="-118.393867">
  <ele>-0.12</ele>
  <time>2026-09-02T22:12:34Z</time>
  <course>275.9</course>
  <speed>0.0</speed>
  <fix>3d</fix>
</trkpt>
<trkpt lat="33.810313" lon="-118.393867">
  <ele>-0.111</ele>
  <time>2026-09-02T22:12:34Z</time>
  <course>281.14</course>
  <speed>0.0</speed>
  <fix>3d</fix>
</trkpt>
<trkpt lat="33.810313" lon="-118.393867">
  <ele>-0.12</ele>
  <time>2026-09-02T22:12:34Z</time>
  <course>234.24</course>
  <speed>0.0</speed>
  <fix>3d</fix>
</trkpt>
<trkpt lat="33.810313" lon="-118.393867">
  <ele>-0.112</ele>
  <time>2026-09-02T22:12:34Z</time>
  <course>284.48</course>
  <speed>0.01</speed>
  <fix>3d</fix>
</trkpt>
<trkpt lat="33.810313" lon="-118.393867">
  <ele>-0.12</ele>
  <time>2026-09-02T22:12:34Z</time>
  <course>234.24</course>
  <speed>0.0</speed>
  <fix>3d</fix>
</trkpt>
<trkpt lat="33.810313" lon="-118.393867">
  <ele>-0.114</ele>
  <time>2026-09-02T22:12:34Z</time>
  <course>287.83</course>
  <speed>0.01</speed>
  <fix>3d</fix>
</trkpt>
<trkpt lat="33.810313" lon="-118.393867">
  <ele>-0.12</ele>
  <time>2026-09-02T22:12:34Z</time>
  <course>216.42</course>
  <speed>0.0</speed>
  <fix>3d</fix>
</trkpt>
<trkpt lat="33.810313" lon="-118.393867">
  <ele>-0.115</ele>
  <time>2026-09-02T22:12:34Z</time>
  <course>291.19</course>
  <speed>0.01</speed>
  <fix>3d</fix>
</trkpt>
<trkpt lat="33.810313" lon="-118.393867">
  <ele>-0.12</ele>
  <time>2026-09-02T22:12:34Z</time>
  <course>216.42</course>
  <speed>0.0</speed>
  <fix>3d</fix>
</trkpt>
<trkpt lat="33.810313" lon="-118.393867">
  <ele>-0.116</ele>
  <time>2026-09-02T22:12:34Z</time>
  <course>294.52</course>
  <speed>0.01</speed>
  <fix>3d</fix>
</trkpt>
<trkpt lat="33.810313" lon="-118.393867">
  <ele>-0.12</ele>
  <time>2026-09-02T22:12:34Z</time>
  <course>210.23</course>
  <speed>0.0</speed>
  <fix>3d</fix>
</trkpt>
<trkpt lat="33.810313" lon="-118.393867">
  <ele>-0.116</ele>
  <time>2026-09-02T22:12:34Z</time>
  <course>297.86</course>
  <speed>0.01</speed>
  <fix>3d</fix>
</trkpt>
<trkpt lat="33.810313" lon="-118.393867">
  <ele>-0.12</ele>
  <time>2026-09-02T22:12:34Z</time>
  <course>210.23</course>
  <speed>0.0</speed>
  <fix>3d</fix>
</trkpt>
<trkpt lat="33.810313" lon="-118.393867">
  <ele>-0.116</ele>
  <time>2026-09-02T22:12:34Z</time>
  <course>301.23</course>
  <speed>0.01</speed>
  <fix>3d</fix>
</trkpt>
<trkpt lat="33.810313" lon="-118.393867">
  <ele>-0.12</ele>
  <time>2026-09-02T22:12:34Z</time>
  <course>208.42</course>
  <speed>0.0</speed>
  <fix>3d</fix>
</trkpt>
<trkpt lat="33.810313" lon="-118.393867">
  <ele>-0.116</ele>
  <time>2026-09-02T22:12:34Z</time>
  <course>304.57</course>
  <speed>0.01</speed>
  <fix>3d</fix>
</trkpt>
<trkpt lat="33.810313" lon="-118.393867">
  <ele>-0.12</ele>
  <time>2026-09-02T22:12:34Z</time>
  <course>208.42</course>
  <speed>0.0</speed>
  <fix>3d</fix>
</trkpt>
<trkpt lat="33.810313" lon="-118.393867">
  <ele>-0.115</ele>
  <time>2026-09-02T22:12:34Z</time>
  <course>307.95</course>
  <speed>0.01</speed>
  <fix>3d</fix>
</trkpt>
<trkpt lat="33.810313" lon="-118.393867">
  <ele>-0.12</ele>
  <time>2026-09-02T22:12:34Z</time>
  <course>208.33</course>
  <speed>0.0</speed>
  <fix>3d</fix>
</trkpt>
<trkpt lat="33.810313" lon="-118.393867">
  <ele>-0.114</ele>
  <time>2026-09-02T22:12:34Z</time>
  <course>311.33</course>
  <speed>0.01</speed>
  <fix>3d</fix>
</trkpt>
<trkpt lat="33.810313" lon="-118.393867">
  <ele>-0.12</ele>
  <time>2026-09-02T22:12:34Z</time>
  <course>208.33</course>
  <speed>0.0</speed>
  <fix>3d</fix>
</trkpt>
<trkpt lat="33.810313" lon="-118.393867">
  <ele>-0.112</ele>
  <time>2026-09-02T22:12:34Z</time>
  <course>314.71</course>
  <speed>0.01</speed>
  <fix>3d</fix>
</trkpt>
<trkpt lat="33.810313" lon="-118.393867">
  <ele>-0.12</ele>
  <time>2026-09-02T22:12:34Z</time>
  <course>208.65</course>
  <speed>0.0</speed>
  <fix>3d</fix>
</trkpt>
<trkpt lat="33.810313" lon="-118.393867">
  <ele>-0.11</ele>
  <time>2026-09-02T22:12:34Z</time>
  <course>318.12</course>
  <speed>0.01</speed>
  <fix>3d</fix>
</trkpt>
<trkpt lat="33.810313" lon="-118.393867">
  <ele>-0.12</ele>
  <time>2026-09-02T22:12:34Z</time>
  <course>208.65</course>
  <speed>0.0</speed>
  <fix>3d</fix>
</trkpt>
<trkpt lat="33.810313" lon="-118.393867">
  <ele>-0.109</ele>
  <time>2026-09-02T22:12:34Z</time>
  <course>321.5</course>
  <speed>0.01</speed>
  <fix>3d</fix>
</trkpt>
<trkpt lat="33.810313" lon="-118.393867">
  <ele>-0.12</ele>
  <time>2026-09-02T22:12:34Z</time>
  <course>209.1</course>
  <speed>0.0</speed>
  <fix>3d</fix>
</trkpt>
<trkpt lat="33.810313" lon="-118.393867">
  <ele>-0.11</ele>
  <time>2026-09-02T22:12:34Z</time>
  <course>324.87</course>
  <speed>0.01</speed>
  <fix>3d</fix>
</trkpt>
<trkpt lat="33.810313" lon="-118.393867">
  <ele>-0.12</ele>
  <time>2026-09-02T22:12:34Z</time>
  <course>209.1</course>
  <speed>0.0</speed>
  <fix>3d</fix>
</trkpt>
<trkpt lat="33.810313" lon="-118.393867">
  <ele>-0.112</ele>
  <time>2026-09-02T22:12:34Z</time>
  <course>328.25</course>
  <speed>0.01</speed>
  <fix>3d</fix>
</trkpt>
<trkpt lat="33.810313" lon="-118.393867">
  <ele>-0.12</ele>
  <time>2026-09-02T22:12:34Z</time>
  <course>209.82</course>
  <speed>0.0</speed>
  <fix>3d</fix>
</trkpt>
<trkpt lat="33.810313" lon="-118.393867">
  <ele>-0.114</ele>
  <time>2026-09-02T22:12:34Z</time>
  <course>331.63</course>
  <speed>0.01</speed>
  <fix>3d</fix>
</trkpt>
<trkpt lat="33.810313" lon="-118.393867">
  <ele>-0.12</ele>
  <time>2026-09-02T22:12:34Z</time>
  <course>209.82</course>
  <speed>0.0</speed>
  <fix>3d</fix>
</trkpt>
<trkpt lat="33.810313" lon="-118.393867">
  <ele>-0.117</ele>
  <time>2026-09-02T22:12:34Z</time>
  <course>335.01</course>
  <speed>0.01</speed>
  <fix>3d</fix>
</trkpt>
<trkpt lat="33.810313" lon="-118.393867">
  <ele>-0.12</ele>
  <time>2026-09-02T22:12:34Z</time>
  <course>210.94</course>
  <speed>0.0</speed>
  <fix>3d</fix>
</trkpt>
<trkpt lat="33.810313" lon="-118.393867">
  <ele>-0.118</ele>
  <time>2026-09-02T22:12:34Z</time>
  <course>338.38</course>
  <speed>0.01</speed>
  <fix>3d</fix>
</trkpt>
<trkpt lat="33.810313" lon="-118.393867">
  <ele>-0.12</ele>
  <time>2026-09-02T22:12:34Z</time>
  <course>210.94</course>
  <speed>0.0</speed>
  <fix>3d</fix>
</trkpt>
<trkpt lat="33.810313" lon="-118.393867">
  <ele>-0.119</ele>
  <time>2026-09-02T22:12:34Z</time>
  <course>341.74</course>
  <speed>0.01</speed>
  <fix>3d</fix>
</trkpt>
<trkpt lat="33.810313" lon="-118.393867">
  <ele>-0.12</ele>
  <time>2026-09-02T22:12:34Z</time>
  <course>212.85</course>
  <speed>0.0</speed>
  <fix>3d</fix>
</trkpt>
<trkpt lat="33.810313" lon="-118.393867">
  <ele>-0.118</ele>
  <time>2026-09-02T22:12:34Z</time>
  <course>345.1</course>
  <speed>0.0</speed>
  <fix>3d</fix>
</trkpt>
<trkpt lat="33.810313" lon="-118.393867">
  <ele>-0.12</ele>
  <time>2026-09-02T22:12:34Z</time>
  <course>212.85</course>
  <speed>0.0</speed>
  <fix>3d</fix>
</trkpt>
<trkpt lat="33.810313" lon="-118.393867">
  <ele>-0.116</ele>
  <time>2026-09-02T22:12:34Z</time>
  <course>348.47</course>
  <speed>0.0</speed>
  <fix>3d</fix>
</trkpt>
<trkpt lat="33.810313" lon="-118.393867">
  <ele>-0.12</ele>
  <time>2026-09-02T22:12:34Z</time>
  <course>215.41</course>
  <speed>0.0</speed>
  <fix>3d</fix>
</trkpt>
<trkpt lat="33.810313" lon="-118.393867">
  <ele>-0.113</ele>
  <time>2026-09-02T22:12:34Z</time>
  <course>351.83</course>
  <speed>0.0</speed>
  <fix>3d</fix>
</trkpt>
<trkpt lat="33.810313" lon="-118.393867">
  <ele>-0.12</ele>
  <time>2026-09-02T22:12:34Z</time>
  <course>215.41</course>
  <speed>0.0</speed>
  <fix>3d</fix>
</trkpt>
<trkpt lat="33.810313" lon="-118.393867">
  <ele>-0.11</ele>
  <time>2026-09-02T22:12:34Z</time>
  <course>355.19</course>
  <speed>0.0</speed>
  <fix>3d</fix>
</trkpt>
<trkpt lat="33.810313" lon="-118.393867">
  <ele>-0.12</ele>
  <time>2026-09-02T22:12:34Z</time>
  <course>218.33</course>
  <speed>0.0</speed>
  <fix>3d</fix>
</trkpt>
<trkpt lat="33.810313" lon="-118.393867">
  <ele>-0.109</ele>
  <time>2026-09-02T22:12:34Z</time>
  <course>358.55</course>
  <speed>0.0</speed>
  <fix>3d</fix>
</trkpt>
<trkpt lat="33.810313" lon="-118.393867">
  <ele>-0.12</ele>
  <time>2026-09-02T22:12:34Z</time>
  <course>218.33</course>
  <speed>0.0</speed>
  <fix>3d</fix>
</trkpt>
<trkpt lat="33.810313" lon="-118.393867">
  <ele>-0.109</ele>
  <time>2026-09-02T22:12:34Z</time>
  <course>1.91</course>
  <speed>0.0</speed>
  <fix>3d</fix>
</trkpt>
<trkpt lat="33.810313" lon="-118.393867">
  <ele>-0.12</ele>
  <time>2026-09-02T22:12:34Z</time>
  <course>221.87</course>
  <speed>0.0</speed>
  <fix>3d</fix>
</trkpt>
<trkpt lat="33.810313" lon="-118.393867">
  <ele>-0.111</ele>
  <time>2026-09-02T22:12:34Z</time>
  <course>5.26</course>
  <speed>0.0</speed>
  <fix>3d</fix>
</trkpt>
<trkpt lat="33.810313" lon="-118.393867">
  <ele>-0.12</ele>
  <time>2026-09-02T22:12:34Z</time>
  <course>221.87</course>
  <speed>0.0</speed>
  <fix>3d</fix>
</trkpt>
<trkpt lat="33.810313" lon="-118.393867">
  <ele>-0.113</ele>
  <time>2026-09-02T22:12:34Z</time>
  <course>8.61</course>
  <speed>0.0</speed>
  <fix>3d</fix>
</trkpt>
<trkpt lat="33.810313" lon="-118.393867">
  <ele>-0.12</ele>
  <time>2026-09-02T22:12:34Z</time>
  <course>226.55</course>
  <speed>0.0</speed>
  <fix>3d</fix>
</trkpt>
<trkpt lat="33.810313" lon="-118.393867">
  <ele>-0.115</ele>
  <time>2026-09-02T22:12:34Z</time>
  <course>11.95</course>
  <speed>0.0</speed>
  <fix>3d</fix>
</trkpt>
<trkpt lat="33.810313" lon="-118.393867">
  <ele>-0.12</ele>
  <time>2026-09-02T22:12:34Z</time>
  <course>226.55</course>
  <speed>0.0</speed>
  <fix>3d</fix>
</trkpt>
<trkpt lat="33.810313" lon="-118.393867">
  <ele>-0.116</ele>
  <time>2026-09-02T22:12:34Z</time>
  <course>15.26</course>
  <speed>0.0</speed>
  <fix>3d</fix>
</trkpt>
<trkpt lat="33.810313" lon="-118.393867">
  <ele>-0.12</ele>
  <time>2026-09-02T22:12:34Z</time>
  <course>231.7</course>
  <speed>0.0</speed>
  <fix>3d</fix>
</trkpt>
<trkpt lat="33.810313" lon="-118.393867">
  <ele>-0.115</ele>
  <time>2026-09-02T22:12:34Z</time>
  <course>18.6</course>
  <speed>0.0</speed>
  <fix>3d</fix>
</trkpt>
<trkpt lat="33.810313" lon="-118.393867">
  <ele>-0.12</ele>
  <time>2026-09-02T22:12:34Z</time>
  <course>231.7</course>
  <speed>0.0</speed>
  <fix>3d</fix>
</trkpt>
<trkpt lat="33.810313" lon="-118.393867">
  <ele>-0.114</ele>
  <time>2026-09-02T22:12:34Z</time>
  <course>21.94</course>
  <speed>0.0</speed>
  <fix>3d</fix>
</trkpt>
<trkpt lat="33.810313" lon="-118.393867">
  <ele>-0.12</ele>
  <time>2026-09-02T22:12:34Z</time>
  <course>236.58</course>
  <speed>0.0</speed>
  <fix>3d</fix>
</trkpt>
<trkpt lat="33.810313" lon="-118.393867">
  <ele>-0.113</ele>
  <time>2026-09-02T22:12:34Z</time>
  <course>25.28</course>
  <speed>0.0</speed>
  <fix>3d</fix>
</trkpt>
<trkpt lat="33.810313" lon="-118.393867">
  <ele>-0.12</ele>
  <time>2026-09-02T22:12:34Z</time>
  <course>236.58</course>
  <speed>0.0</speed>
  <fix>3d</fix>
</trkpt>
<trkpt lat="33.810313" lon="-118.393867">
  <ele>-0.112</ele>
  <time>2026-09-02T22:12:34Z</time>
  <course>28.65</course>
  <speed>0.0</speed>
  <fix>3d</fix>
</trkpt>
<trkpt lat="33.810313" lon="-118.393867">
  <ele>-0.12</ele>
  <time>2026-09-02T22:12:34Z</time>
  <course>241.26</course>
  <speed>0.0</speed>
  <fix>3d</fix>
</trkpt>
<trkpt lat="33.810313" lon="-118.393867">
  <ele>-0.111</ele>
  <time>2026-09-02T22:12:34Z</time>
  <course>32.0</course>
  <speed>0.0</speed>
  <fix>3d</fix>
</trkpt>
<trkpt lat="33.810313" lon="-118.393867">
  <ele>-0.12</ele>
  <time>2026-09-02T22:12:34Z</time>
  <course>241.26</course>
  <speed>0.0</speed>
  <fix>3d</fix>
</trkpt>
<trkpt lat="33.810313" lon="-118.393867">
  <ele>-0.111</ele>
  <time>2026-09-02T22:12:34Z</time>
  <course>35.34</course>
  <speed>0.0</speed>
  <fix>3d</fix>
</trkpt>
<trkpt lat="33.810313" lon="-118.393867">
  <ele>-0.12</ele>
  <time>2026-09-02T22:12:34Z</time>
  <course>245.78</course>
  <speed>0.0</speed>
  <fix>3d</fix>
</trkpt>
<trkpt lat="33.810313" lon="-118.393867">
  <ele>-0.113</ele>
  <time>2026-09-02T22:12:34Z</time>
  <course>38.69</course>
  <speed>0.0</speed>
  <fix>3d</fix>
</trkpt>
<trkpt lat="33.810313" lon="-118.393867">
  <ele>-0.12</ele>
  <time>2026-09-02T22:12:34Z</time>
  <course>245.78</course>
  <speed>0.0</speed>
  <fix>3d</fix>
</trkpt>
<trkpt lat="33.810313" lon="-118.393867">
  <ele>-0.115</ele>
  <time>2026-09-02T22:12:34Z</time>
  <course>42.03</course>
  <speed>0.0</speed>
  <fix>3d</fix>
</trkpt>
<trkpt lat="33.810313" lon="-118.393867">
  <ele>-0.12</ele>
  <time>2026-09-02T22:12:34Z</time>
  <course>250.18</course>
  <speed>0.0</speed>
  <fix>3d</fix>
</trkpt>
<trkpt lat="33.810313" lon="-118.393867">
  <ele>-0.119</ele>
  <time>2026-09-02T22:12:34Z</time>
  <course>45.37</course>
  <speed>0.0</speed>
  <fix>3d</fix>
</trkpt>
<trkpt lat="33.810313" lon="-118.393867">
  <ele>-0.12</ele>
  <time>2026-09-02T22:12:34Z</time>
  <course>250.18</course>
  <speed>0.0</speed>
  <fix>3d</fix>
</trkpt>
<trkpt lat="33.810313" lon="-118.393867">
  <ele>-0.123</ele>
  <time>2026-09-02T22:12:34Z</time>
  <course>48.69</course>
  <speed>0.0</speed>
  <fix>3d</fix>
</trkpt>
<trkpt lat="33.810313" lon="-118.393867">
  <ele>-0.12</ele>
  <time>2026-09-02T22:12:34Z</time>
  <course>254.44</course>
  <speed>0.0</speed>
  <fix>3d</fix>
</trkpt>
<trkpt lat="33.810313" lon="-118.393867">
  <ele>-0.126</ele>
  <time>2026-09-02T22:12:34Z</time>
  <course>52.01</course>
  <speed>0.0</speed>
  <fix>3d</fix>
</trkpt>
<trkpt lat="33.810313" lon="-118.393867">
  <ele>-0.12</ele>
  <time>2026-09-02T22:12:34Z</time>
  <course>254.44</course>
  <speed>0.0</speed>
  <fix>3d</fix>
</trkpt>
<trkpt lat="33.810313" lon="-118.393867">
  <ele>-0.127</ele>
  <time>2026-09-02T22:12:34Z</time>
  <course>55.31</course>
  <speed>0.0</speed>
  <fix>3d</fix>
</trkpt>
<trkpt lat="33.810313" lon="-118.393867">
  <ele>-0.12</ele>
  <time>2026-09-02T22:12:34Z</time>
  <course>258.64</course>
  <speed>0.0</speed>
  <fix>3d</fix>
</trkpt>
<trkpt lat="33.810313" lon="-118.393867">
  <ele>-0.126</ele>
  <time>2026-09-02T22:12:34Z</time>
  <course>58.62</course>
  <speed>0.0</speed>
  <fix>3d</fix>
</trkpt>
<trkpt lat="33.810313" lon="-118.393867">
  <ele>-0.12</ele>
  <time>2026-09-02T22:12:34Z</time>
  <course>258.64</course>
  <speed>0.0</speed>
  <fix>3d</fix>
</trkpt>
<trkpt lat="33.810313" lon="-118.393867">
  <ele>-0.126</ele>
  <time>2026-09-02T22:12:34Z</time>
  <course>61.93</course>
  <speed>0.0</speed>
  <fix>3d</fix>
</trkpt>
<trkpt lat="33.810313" lon="-118.393867">
  <ele>-0.12</ele>
  <time>2026-09-02T22:12:34Z</time>
  <course>262.79</course>
  <speed>0.0</speed>
  <fix>3d</fix>
</trkpt>
<trkpt lat="33.810313" lon="-118.393867">
  <ele>-0.125</ele>
  <time>2026-09-02T22:12:34Z</time>
  <course>65.24</course>
  <speed>0.0</speed>
  <fix>3d</fix>
</trkpt>
<trkpt lat="33.810313" lon="-118.393867">
  <ele>-0.12</ele>
  <time>2026-09-02T22:12:34Z</time>
  <course>262.79</course>
  <speed>0.0</speed>
  <fix>3d</fix>
</trkpt>
<trkpt lat="33.810313" lon="-118.393867">
  <ele>-0.122</ele>
  <time>2026-09-02T22:12:34Z</time>
  <course>68.57</course>
  <speed>0.0</speed>
  <fix>3d</fix>
</trkpt>
<trkpt lat="33.810313" lon="-118.393867">
  <ele>-0.12</ele>
  <time>2026-09-02T22:12:34Z</time>
  <course>266.88</course>
  <speed>0.0</speed>
  <fix>3d</fix>
</trkpt>
<trkpt lat="33.810313" lon="-118.393867">
  <ele>-0.12</ele>
  <time>2026-09-02T22:12:34Z</time>
  <course>71.87</course>
  <speed>0.0</speed>
  <fix>3d</fix>
</trkpt>
<trkpt lat="33.810313" lon="-118.393867">
  <ele>-0.12</ele>
  <time>2026-09-02T22:12:34Z</time>
  <course>266.88</course>
  <speed>0.0</speed>
  <fix>3d</fix>
</trkpt>
<trkpt lat="33.810313" lon="-118.393867">
  <ele>-0.119</ele>
  <time>2026-09-02T22:12:34Z</time>
  <course>75.17</course>
  <speed>0.0</speed>
  <fix>3d</fix>
</trkpt>
<trkpt lat="33.810313" lon="-118.393867">
  <ele>-0.12</ele>
  <time>2026-09-02T22:12:34Z</time>
  <course>270.92</course>
  <speed>0.0</speed>
  <fix>3d</fix>
</trkpt>
<trkpt lat="33.810313" lon="-118.393867">
  <ele>-0.119</ele>
  <time>2026-09-02T22:12:34Z</time>
  <course>78.47</course>
  <speed>0.0</speed>
  <fix>3d</fix>
</trkpt>
<trkpt lat="33.810313" lon="-118.393867">
  <ele>-0.12</ele>
  <time>2026-09-02T22:12:34Z</time>
  <course>270.92</course>
  <speed>0.0</speed>
  <fix>3d</fix>
</trkpt>
<trkpt lat="33.810313" lon="-118.393867">
  <ele>-0.12</ele>
  <time>2026-09-02T22:12:34Z</time>
  <course>81.77</course>
  <speed>0.0</speed>
  <fix>3d</fix>
</trkpt>
<trkpt lat="33.810313" lon="-118.393867">
  <ele>-0.12</ele>
  <time>2026-09-02T22:12:34Z</time>
  <course>274.92</course>
  <speed>0.0</speed>
  <fix>3d</fix>
</trkpt>
<trkpt lat="33.810313" lon="-118.393867">
  <ele>-0.121</ele>
  <time>2026-09-02T22:12:34Z</time>
  <course>85.05</course>
  <speed>0.0</speed>
  <fix>3d</fix>
</trkpt>
<trkpt lat="33.810313" lon="-118.393867">
  <ele>-0.12</ele>
  <time>2026-09-02T22:12:34Z</time>
  <course>274.92</course>
  <speed>0.0</speed>
  <fix>3d</fix>
</trkpt>
<trkpt lat="33.810313" lon="-118.393867">
  <ele>-0.121</ele>
  <time>2026-09-02T22:12:34Z</time>
  <course>88.14</course>
  <speed>0.0</speed>
  <fix>3d</fix>
</trkpt>
<trkpt lat="33.810313" lon="-118.393867">
  <ele>-0.12</ele>
  <time>2026-09-02T22:12:34Z</time>
  <course>278.72</course>
  <speed>0.0</speed>
  <fix>3d</fix>
</trkpt>
<trkpt lat="33.810313" lon="-118.393867">
  <ele>-0.122</ele>
  <time>2026-09-02T22:12:34Z</time>
  <course>90.38</course>
  <speed>0.0</speed>
  <fix>3d</fix>
</trkpt>
<trkpt lat="33.810313" lon="-118.393867">
  <ele>-0.12</ele>
  <time>2026-09-02T22:12:34Z</time>
  <course>278.72</course>
  <speed>0.0</speed>
  <fix>3d</fix>
</trkpt>
<trkpt lat="33.810313" lon="-118.393867">
  <ele>-0.122</ele>
  <time>2026-09-02T22:12:34Z</time>
  <course>92.1</course>
  <speed>0.0</speed>
  <fix>3d</fix>
</trkpt>
<trkpt lat="33.810313" lon="-118.393867">
  <ele>-0.12</ele>
  <time>2026-09-02T22:12:34Z</time>
  <course>280.49</course>
  <speed>0.0</speed>
  <fix>3d</fix>
</trkpt>
<trkpt lat="33.810313" lon="-118.393867">
  <ele>-0.122</ele>
  <time>2026-09-02T22:12:34Z</time>
  <course>93.39</course>
  <speed>0.0</speed>
  <fix>3d</fix>
</trkpt>
<trkpt lat="33.810313" lon="-118.393867">
  <ele>-0.12</ele>
  <time>2026-09-02T22:12:34Z</time>
  <course>280.49</course>
  <speed>0.0</speed>
  <fix>3d</fix>
</trkpt>
<trkpt lat="33.810313" lon="-118.393867">
  <ele>-0.12</ele>
  <time>2026-09-02T22:12:34Z</time>
  <course>94.22</course>
  <speed>0.0</speed>
  <fix>3d</fix>
</trkpt>
<trkpt lat="33.810313" lon="-118.393867">
  <ele>-0.12</ele>
  <time>2026-09-02T22:12:34Z</time>
  <course>280.31</course>
  <speed>0.0</speed>
  <fix>3d</fix>
</trkpt>
<trkpt lat="33.810313" lon="-118.393867">
  <ele>-0.118</ele>
  <time>2026-09-02T22:12:34Z</time>
  <course>94.81</course>
  <speed>0.0</speed>
  <fix>3d</fix>
</trkpt>
<trkpt lat="33.810313" lon="-118.393867">
  <ele>-0.12</ele>
  <time>2026-09-02T22:12:34Z</time>
  <course>280.31</course>
  <speed>0.0</speed>
  <fix>3d</fix>
</trkpt>
<trkpt lat="33.810313" lon="-118.393867">
  <ele>-0.116</ele>
  <time>2026-09-02T22:12:34Z</time>
  <course>95.28</course>
  <speed>0.0</speed>
  <fix>3d</fix>
</trkpt>
<trkpt lat="33.810313" lon="-118.393867">
  <ele>-0.12</ele>
  <time>2026-09-02T22:12:34Z</time>
  <course>280.17</course>
  <speed>0.0</speed>
  <fix>3d</fix>
</trkpt>
<trkpt lat="33.810313" lon="-118.393867">
  <ele>-0.115</ele>
  <time>2026-09-02T22:12:34Z</time>
  <course>95.66</course>
  <speed>0.0</speed>
  <fix>3d</fix>
</trkpt>
<trkpt lat="33.810313" lon="-118.393867">
  <ele>-0.12</ele>
  <time>2026-09-02T22:12:34Z</time>
  <course>280.17</course>
  <speed>0.0</speed>
  <fix>3d</fix>
</trkpt>
<trkpt lat="33.810313" lon="-118.393867">
  <ele>-0.115</ele>
  <time>2026-09-02T22:12:34Z</time>
  <course>95.99</course>
  <speed>0.0</speed>
  <fix>3d</fix>
</trkpt>
<trkpt lat="33.810313" lon="-118.393867">
  <ele>-0.12</ele>
  <time>2026-09-02T22:12:34Z</time>
  <course>280.17</course>
  <speed>0.0</speed>
  <fix>3d</fix>
</trkpt>
<trkpt lat="33.810313" lon="-118.393867">
  <ele>-0.117</ele>
  <time>2026-09-02T22:12:34Z</time>
  <course>96.27</course>
  <speed>0.0</speed>
  <fix>3d</fix>
</trkpt>
<trkpt lat="33.810313" lon="-118.393867">
  <ele>-0.12</ele>
  <time>2026-09-02T22:12:34Z</time>
  <course>280.17</course>
  <speed>0.0</speed>
  <fix>3d</fix>
</trkpt>
<trkpt lat="33.810313" lon="-118.393867">
  <ele>-0.12</ele>
  <time>2026-09-02T22:12:34Z</time>
  <course>96.53</course>
  <speed>0.0</speed>
  <fix>3d</fix>
</trkpt>
<trkpt lat="33.810313" lon="-118.393867">
  <ele>-0.12</ele>
  <time>2026-09-02T22:12:34Z</time>
  <course>280.17</course>
  <speed>0.0</speed>
  <fix>3d</fix>
</trkpt>
<trkpt lat="33.810313" lon="-118.393867">
  <ele>-0.122</ele>
  <time>2026-09-02T22:12:34Z</time>
  <course>96.75</course>
  <speed>0.0</speed>
  <fix>3d</fix>
</trkpt>
<trkpt lat="33.810313" lon="-118.393867">
  <ele>-0.12</ele>
  <time>2026-09-02T22:12:34Z</time>
  <course>280.17</course>
  <speed>0.0</speed>
  <fix>3d</fix>
</trkpt>
<trkpt lat="33.810313" lon="-118.393867">
  <ele>-0.122</ele>
  <time>2026-09-02T22:12:34Z</time>
  <course>96.95</course>
  <speed>0.0</speed>
  <fix>3d</fix>
</trkpt>
<trkpt lat="33.810313" lon="-118.393867">
  <ele>-0.12</ele>
  <time>2026-09-02T22:12:34Z</time>
  <course>280.17</course>
  <speed>0.0</speed>
  <fix>3d</fix>
</trkpt>
<trkpt lat="33.810313" lon="-118.393867">
  <ele>-0.121</ele>
  <time>2026-09-02T22:12:34Z</time>
  <course>97.14</course>
  <speed>0.0</speed>
  <fix>3d</fix>
</trkpt>
<trkpt lat="33.810313" lon="-118.393867">
  <ele>-0.12</ele>
  <time>2026-09-02T22:12:34Z</time>
  <course>280.17</course>
  <speed>0.0</speed>
  <fix>3d</fix>
</trkpt>
<trkpt lat="33.810313" lon="-118.393867">
  <ele>-0.119</ele>
  <time>2026-09-02T22:12:34Z</time>
  <course>97.31</course>
  <speed>0.0</speed>
  <fix>3d</fix>
</trkpt>
<trkpt lat="33.810313" lon="-118.393867">
  <ele>-0.12</ele>
  <time>2026-09-02T22:12:34Z</time>
  <course>280.17</course>
  <speed>0.0</speed>
  <fix>3d</fix>
</trkpt>
<trkpt lat="33.810313" lon="-118.393867">
  <ele>-0.118</ele>
  <time>2026-09-02T22:12:34Z</time>
  <course>97.47</course>
  <speed>0.0</speed>
  <fix>3d</fix>
</trkpt>
<trkpt lat="33.810313" lon="-118.393867">
  <ele>-0.12</ele>
  <time>2026-09-02T22:12:34Z</time>
  <course>280.17</course>
  <speed>0.0</speed>
  <fix>3d</fix>
</trkpt>
<trkpt lat="33.810313" lon="-118.393867">
  <ele>-0.117</ele>
  <time>2026-09-02T22:12:34Z</time>
  <course>97.62</course>
  <speed>0.0</speed>
  <fix>3d</fix>
</trkpt>
<trkpt lat="33.810313" lon="-118.393867">
  <ele>-0.12</ele>
  <time>2026-09-02T22:12:34Z</time>
  <course>280.17</course>
  <speed>0.0</speed>
  <fix>3d</fix>
</trkpt>
<trkpt lat="33.810313" lon="-118.393867">
  <ele>-0.117</ele>
  <time>2026-09-02T22:12:34Z</time>
  <course>97.76</course>
  <speed>0.0</speed>
  <fix>3d</fix>
</trkpt>
<trkpt lat="33.810313" lon="-118.393867">
  <ele>-0.12</ele>
  <time>2026-09-02T22:12:34Z</time>
  <course>280.17</course>
  <speed>0.0</speed>
  <fix>3d</fix>
</trkpt>
<trkpt lat="33.810313" lon="-118.393867">
  <ele>-0.117</ele>
  <time>2026-09-02T22:12:34Z</time>
  <course>97.89</course>
  <speed>0.0</speed>
  <fix>3d</fix>
</trkpt>
<trkpt lat="33.810313" lon="-118.393867">
  <ele>-0.12</ele>
  <time>2026-09-02T22:12:34Z</time>
  <course>280.17</course>
  <speed>0.0</speed>
  <fix>3d</fix>
</trkpt>
<trkpt lat="33.810313" lon="-118.393867">
  <ele>-0.118</ele>
  <time>2026-09-02T22:12:34Z</time>
  <course>98.01</course>
  <speed>0.0</speed>
  <fix>3d</fix>
</trkpt>
<trkpt lat="33.810313" lon="-118.393867">
  <ele>-0.12</ele>
  <time>2026-09-02T22:12:34Z</time>
  <course>280.17</course>
  <speed>0.0</speed>
  <fix>3d</fix>
</trkpt>
<trkpt lat="33.810313" lon="-118.393867">
  <ele>-0.119</ele>
  <time>2026-09-02T22:12:34Z</time>
  <course>98.13</course>
  <speed>0.0</speed>
  <fix>3d</fix>
</trkpt>
<trkpt lat="33.810313" lon="-118.393867">
  <ele>-0.12</ele>
  <time>2026-09-02T22:12:34Z</time>
  <course>280.17</course>
  <speed>0.0</speed>
  <fix>3d</fix>
</trkpt>
<trkpt lat="33.810313" lon="-118.393867">
  <ele>-0.12</ele>
  <time>2026-09-02T22:12:34Z</time>
  <course>98.24</course>
  <speed>0.0</speed>
  <fix>3d</fix>
</trkpt>
<trkpt lat="33.810313" lon="-118.393867">
  <ele>-0.12</ele>
  <time>2026-09-02T22:12:34Z</time>
  <course>280.17</course>
  <speed>0.0</speed>
  <fix>3d</fix>
</trkpt>
<trkpt lat="33.810313" lon="-118.393867">
  <ele>-0.12</ele>
  <time>2026-09-02T22:12:34Z</time>
  <course>98.34</course>
  <speed>0.0</speed>
  <fix>3d</fix>
</trkpt>
<trkpt lat="33.810313" lon="-118.393867">
  <ele>-0.12</ele>
  <time>2026-09-02T22:12:34Z</time>
  <course>280.17</course>
  <speed>0.0</speed>
  <fix>3d</fix>
</trkpt>
<trkpt lat="33.810313" lon="-118.393867">
  <ele>-0.121</ele>
  <time>2026-09-02T22:12:34Z</time>
  <course>98.44</course>
  <speed>0.0</speed>
  <fix>3d</fix>
</trkpt>
<trkpt lat="33.810313" lon="-118.393867">
  <ele>-0.12</ele>
  <time>2026-09-02T22:12:34Z</time>
  <course>280.17</course>
  <speed>0.0</speed>
  <fix>3d</fix>
</trkpt>
<trkpt lat="33.810313" lon="-118.393867">
  <ele>-0.121</ele>
  <time>2026-09-02T22:12:34Z</time>
  <course>98.54</course>
  <speed>0.0</speed>
  <fix>3d</fix>
</trkpt>
<trkpt lat="33.810313" lon="-118.393867">
  <ele>-0.12</ele>
  <time>2026-09-02T22:12:34Z</time>
  <course>280.17</course>
  <speed>0.0</speed>
  <fix>3d</fix>
</trkpt>
<trkpt lat="33.810313" lon="-118.393867">
  <ele>-0.12</ele>
  <time>2026-09-02T22:12:34Z</time>
  <course>98.63</course>
  <speed>0.0</speed>
  <fix>3d</fix>
</trkpt>
<trkpt lat="33.810313" lon="-118.393867">
  <ele>-0.12</ele>
  <time>2026-09-02T22:12:34Z</time>
  <course>280.17</course>
  <speed>0.0</speed>
  <fix>3d</fix>
</trkpt>
<trkpt lat="33.810313" lon="-118.393867">
  <ele>-0.119</ele>
  <time>2026-09-02T22:12:34Z</time>
  <course>98.72</course>
  <speed>0.0</speed>
  <fix>3d</fix>
</trkpt>
<trkpt lat="33.810313" lon="-118.393867">
  <ele>-0.12</ele>
  <time>2026-09-02T22:12:34Z</time>
  <course>280.17</course>
  <speed>0.0</speed>
  <fix>3d</fix>
</trkpt>
<trkpt lat="33.810313" lon="-118.393867">
  <ele>-0.118</ele>
  <time>2026-09-02T22:12:34Z</time>
  <course>98.8</course>
  <speed>0.0</speed>
  <fix>3d</fix>
</trkpt>
<trkpt lat="33.810313" lon="-118.393867">
  <ele>-0.12</ele>
  <time>2026-09-02T22:12:34Z</time>
  <course>280.17</course>
  <speed>0.0</speed>
  <fix>3d</fix>
</trkpt>
<trkpt lat="33.810313" lon="-118.393867">
  <ele>-0.117</ele>
  <time>2026-09-02T22:12:34Z</time>
  <course>98.89</course>
  <speed>0.0</speed>
  <fix>3d</fix>
</trkpt>
<trkpt lat="33.810313" lon="-118.393867">
  <ele>-0.12</ele>
  <time>2026-09-02T22:12:34Z</time>
  <course>280.17</course>
  <speed>0.0</speed>
  <fix>3d</fix>
</trkpt>
<trkpt lat="33.810313" lon="-118.393867">
  <ele>-0.116</ele>
  <time>2026-09-02T22:12:34Z</time>
  <course>98.96</course>
  <speed>0.0</speed>
  <fix>3d</fix>
</trkpt>
<trkpt lat="33.810313" lon="-118.393867">
  <ele>-0.12</ele>
  <time>2026-09-02T22:12:34Z</time>
  <course>280.17</course>
  <speed>0.0</speed>
  <fix>3d</fix>
</trkpt>
<trkpt lat="33.810313" lon="-118.393867">
  <ele>-0.117</ele>
  <time>2026-09-02T22:12:34Z</time>
  <course>99.03</course>
  <speed>0.0</speed>
  <fix>3d</fix>
</trkpt>
<trkpt lat="33.810313" lon="-118.393867">
  <ele>-0.12</ele>
  <time>2026-09-02T22:12:34Z</time>
  <course>280.17</course>
  <speed>0.0</speed>
  <fix>3d</fix>
</trkpt>
<trkpt lat="33.810313" lon="-118.393867">
  <ele>-0.119</ele>
  <time>2026-09-02T22:12:34Z</time>
  <course>99.1</course>
  <speed>0.01</speed>
  <fix>3d</fix>
</trkpt>
<trkpt lat="33.810313" lon="-118.393867">
  <ele>-0.12</ele>
  <time>2026-09-02T22:12:34Z</time>
  <course>280.17</course>
  <speed>0.0</speed>
  <fix>3d</fix>
</trkpt>
<trkpt lat="33.810313" lon="-118.393867">
  <ele>-0.12</ele>
  <time>2026-09-02T22:12:34Z</time>
  <course>99.16</course>
  <speed>0.01</speed>
  <fix>3d</fix>
</trkpt>
<trkpt lat="33.810313" lon="-118.393867">
  <ele>-0.12</ele>
  <time>2026-09-02T22:12:34Z</time>
  <course>280.17</course>
  <speed>0.0</speed>
  <fix>3d</fix>
</trkpt>
<trkpt lat="33.810313" lon="-118.393867">
  <ele>-0.122</ele>
  <time>2026-09-02T22:12:34Z</time>
  <course>99.23</course>
  <speed>0.01</speed>
  <fix>3d</fix>
</trkpt>
<trkpt lat="33.810313" lon="-118.393867">
  <ele>-0.12</ele>
  <time>2026-09-02T22:12:34Z</time>
  <course>280.17</course>
  <speed>0.0</speed>
  <fix>3d</fix>
</trkpt>
<trkpt lat="33.810313" lon="-118.393867">
  <ele>-0.122</ele>
  <time>2026-09-02T22:12:34Z</time>
  <course>99.29</course>
  <speed>0.0</speed>
  <fix>3d</fix>
</trkpt>
<trkpt lat="33.810313" lon="-118.393867">
  <ele>-0.12</ele>
  <time>2026-09-02T22:12:34Z</time>
  <course>280.17</course>
  <speed>0.0</speed>
  <fix>3d</fix>
</trkpt>
<trkpt lat="33.810313" lon="-118.393867">
  <ele>-0.121</ele>
  <time>2026-09-02T22:12:34Z</time>
  <course>99.36</course>
  <speed>0.0</speed>
  <fix>3d</fix>
</trkpt>
<trkpt lat="33.810313" lon="-118.393867">
  <ele>-0.12</ele>
  <time>2026-09-02T22:12:34Z</time>
  <course>280.17</course>
  <speed>0.0</speed>
  <fix>3d</fix>
</trkpt>
<trkpt lat="33.810313" lon="-118.393867">
  <ele>-0.12</ele>
  <time>2026-09-02T22:12:34Z</time>
  <course>99.42</course>
  <speed>0.0</speed>
  <fix>3d</fix>
</trkpt>
<trkpt lat="33.810313" lon="-118.393867">
  <ele>-0.12</ele>
  <time>2026-09-02T22:12:34Z</time>
  <course>280.17</course>
  <speed>0.0</speed>
  <fix>3d</fix>
</trkpt>
<trkpt lat="33.810313" lon="-118.393867">
  <ele>-0.118</ele>
  <time>2026-09-02T22:12:34Z</time>
  <course>99.49</course>
  <speed>0.0</speed>
  <fix>3d</fix>
</trkpt>
<trkpt lat="33.810313" lon="-118.393867">
  <ele>-0.12</ele>
  <time>2026-09-02T22:12:34Z</time>
  <course>280.17</course>
  <speed>0.0</speed>
  <fix>3d</fix>
</trkpt>
<trkpt lat="33.810313" lon="-118.393867">
  <ele>-0.116</ele>
  <time>2026-09-02T22:12:34Z</time>
  <course>99.55</course>
  <speed>0.0</speed>
  <fix>3d</fix>
</trkpt>
<trkpt lat="33.810313" lon="-118.393867">
  <ele>-0.12</ele>
  <time>2026-09-02T22:12:34Z</time>
  <course>280.17</course>
  <speed>0.0</speed>
  <fix>3d</fix>
</trkpt>
<trkpt lat="33.810313" lon="-118.393867">
  <ele>-0.115</ele>
  <time>2026-09-02T22:12:34Z</time>
  <course>99.61</course>
  <speed>0.0</speed>
  <fix>3d</fix>
</trkpt>
<trkpt lat="33.810313" lon="-118.393867">
  <ele>-0.12</ele>
  <time>2026-09-02T22:12:34Z</time>
  <course>280.17</course>
  <speed>0.0</speed>
  <fix>3d</fix>
</trkpt>
<trkpt lat="33.810313" lon="-118.393867">
  <ele>-0.115</ele>
  <time>2026-09-02T22:12:34Z</time>
  <course>99.66</course>
  <speed>0.0</speed>
  <fix>3d</fix>
</trkpt>
<trkpt lat="33.810313" lon="-118.393867">
  <ele>-0.12</ele>
  <time>2026-09-02T22:12:34Z</time>
  <course>280.17</course>
  <speed>0.0</speed>
  <fix>3d</fix>
</trkpt>
<trkpt lat="33.810313" lon="-118.393867">
  <ele>-0.117</ele>
  <time>2026-09-02T22:12:34Z</time>
  <course>99.72</course>
  <speed>0.0</speed>
  <fix>3d</fix>
</trkpt>
<trkpt lat="33.810313" lon="-118.393867">
  <ele>-0.12</ele>
  <time>2026-09-02T22:12:34Z</time>
  <course>280.17</course>
  <speed>0.0</speed>
  <fix>3d</fix>
</trkpt>
<trkpt lat="33.810313" lon="-118.393867">
  <ele>-0.119</ele>
  <time>2026-09-02T22:12:34Z</time>
  <course>99.77</course>
  <speed>0.0</speed>
  <fix>3d</fix>
</trkpt>
<trkpt lat="33.810313" lon="-118.393867">
  <ele>-0.12</ele>
  <time>2026-09-02T22:12:34Z</time>
  <course>280.17</course>
  <speed>0.0</speed>
  <fix>3d</fix>
</trkpt>
<trkpt lat="33.810313" lon="-118.393867">
  <ele>-0.121</ele>
  <time>2026-09-02T22:12:34Z</time>
  <course>99.83</course>
  <speed>0.0</speed>
  <fix>3d</fix>
</trkpt>
<trkpt lat="33.810313" lon="-118.393867">
  <ele>-0.12</ele>
  <time>2026-09-02T22:12:34Z</time>
  <course>280.17</course>
  <speed>0.0</speed>
  <fix>3d</fix>
</trkpt>
<trkpt lat="33.810313" lon="-118.393867">
  <ele>-0.122</ele>
  <time>2026-09-02T22:12:34Z</time>
  <course>99.88</course>
  <speed>0.0</speed>
  <fix>3d</fix>
</trkpt>
<trkpt lat="33.810313" lon="-118.393867">
  <ele>-0.12</ele>
  <time>2026-09-02T22:12:34Z</time>
  <course>280.17</course>
  <speed>0.0</speed>
  <fix>3d</fix>
</trkpt>
<trkpt lat="33.810313" lon="-118.393867">
  <ele>-0.122</ele>
  <time>2026-09-02T22:12:34Z</time>
  <course>99.93</course>
  <speed>0.0</speed>
  <fix>3d</fix>
</trkpt>
<trkpt lat="33.810313" lon="-118.393867">
  <ele>-0.12</ele>
  <time>2026-09-02T22:12:34Z</time>
  <course>280.17</course>
  <speed>0.0</speed>
  <fix>3d</fix>
</trkpt>
<trkpt lat="33.810313" lon="-118.393867">
  <ele>-0.12</ele>
  <time>2026-09-02T22:12:34Z</time>
  <course>99.98</course>
  <speed>0.0</speed>
  <fix>3d</fix>
</trkpt>
<trkpt lat="33.810313" lon="-118.393867">
  <ele>-0.12</ele>
  <time>2026-09-02T22:12:34Z</time>
  <course>280.17</course>
  <speed>0.0</speed>
  <fix>3d</fix>
</trkpt>
<trkpt lat="33.810313" lon="-118.393867">
  <ele>-0.119</ele>
  <time>2026-09-02T22:12:34Z</time>
  <course>100.03</course>
  <speed>0.0</speed>
  <fix>3d</fix>
</trkpt>
<trkpt lat="33.810313" lon="-118.393867">
  <ele>-0.12</ele>
  <time>2026-09-02T22:12:34Z</time>
  <course>280.17</course>
  <speed>0.0</speed>
  <fix>3d</fix>
</trkpt>
<trkpt lat="33.810313" lon="-118.393867">
  <ele>-0.117</ele>
  <time>2026-09-02T22:12:34Z</time>
  <course>100.08</course>
  <speed>0.0</speed>
  <fix>3d</fix>
</trkpt>
<trkpt lat="33.810313" lon="-118.393867">
  <ele>-0.12</ele>
  <time>2026-09-02T22:12:34Z</time>
  <course>280.17</course>
  <speed>0.0</speed>
  <fix>3d</fix>
</trkpt>
<trkpt lat="33.810313" lon="-118.393867">
  <ele>-0.116</ele>
  <time>2026-09-02T22:12:34Z</time>
  <course>100.13</course>
  <speed>0.0</speed>
  <fix>3d</fix>
</trkpt>
<trkpt lat="33.810313" lon="-118.393867">
  <ele>-0.12</ele>
  <time>2026-09-02T22:12:34Z</time>
  <course>280.17</course>
  <speed>0.0</speed>
  <fix>3d</fix>
</trkpt>
<trkpt lat="33.810313" lon="-118.393867">
  <ele>-0.116</ele>
  <time>2026-09-02T22:12:34Z</time>
  <course>100.17</course>
  <speed>0.0</speed>
  <fix>3d</fix>
</trkpt>
<trkpt lat="33.810313" lon="-118.393867">
  <ele>-0.12</ele>
  <time>2026-09-02T22:12:34Z</time>
  <course>280.17</course>
  <speed>0.0</speed>
  <fix>3d</fix>
</trkpt>
<trkpt lat="33.810313" lon="-118.393867">
  <ele>-0.118</ele>
  <time>2026-09-02T22:12:34Z</time>
  <course>100.22</course>
  <speed>0.0</speed>
  <fix>3d</fix>
</trkpt>
<trkpt lat="33.810313" lon="-118.393867">
  <ele>-0.12</ele>
  <time>2026-09-02T22:12:34Z</time>
  <course>280.17</course>
  <speed>0.0</speed>
  <fix>3d</fix>
</trkpt>
<trkpt lat="33.810313" lon="-118.393867">
  <ele>-0.12</ele>
  <time>2026-09-02T22:12:34Z</time>
  <course>100.26</course>
  <speed>0.0</speed>
  <fix>3d</fix>
</trkpt>
<trkpt lat="33.810313" lon="-118.393867">
  <ele>-0.12</ele>
  <time>2026-09-02T22:12:34Z</time>
  <course>280.17</course>
  <speed>0.0</speed>
  <fix>3d</fix>
</trkpt>
<trkpt lat="33.810313" lon="-118.393867">
  <ele>-0.123</ele>
  <time>2026-09-02T22:12:34Z</time>
  <course>100.31</course>
  <speed>0.0</speed>
  <fix>3d</fix>
</trkpt>
<trkpt lat="33.810313" lon="-118.393867">
  <ele>-0.12</ele>
  <time>2026-09-02T22:12:34Z</time>
  <course>280.17</course>
  <speed>0.0</speed>
  <fix>3d</fix>
</trkpt>
<trkpt lat="33.810313" lon="-118.393867">
  <ele>-0.126</ele>
  <time>2026-09-02T22:12:34Z</time>
  <course>100.35</course>
  <speed>0.0</speed>
  <fix>3d</fix>
</trkpt>
<trkpt lat="33.810313" lon="-118.393867">
  <ele>-0.12</ele>
  <time>2026-09-02T22:12:34Z</time>
  <course>280.17</course>
  <speed>0.0</speed>
  <fix>3d</fix>
</trkpt>
<trkpt lat="33.810313" lon="-118.393867">
  <ele>-0.128</ele>
  <time>2026-09-02T22:12:34Z</time>
  <course>100.39</course>
  <speed>0.0</speed>
  <fix>3d</fix>
</trkpt>
<trkpt lat="33.810313" lon="-118.393867">
  <ele>-0.12</ele>
  <time>2026-09-02T22:12:34Z</time>
  <course>280.17</course>
  <speed>0.0</speed>
  <fix>3d</fix>
</trkpt>
<trkpt lat="33.810313" lon="-118.393867">
  <ele>-0.129</ele>
  <time>2026-09-02T22:12:34Z</time>
  <course>100.43</course>
  <speed>0.0</speed>
  <fix>3d</fix>
</trkpt>
<trkpt lat="33.810313" lon="-118.393867">
  <ele>-0.12</ele>
  <time>2026-09-02T22:12:34Z</time>
  <course>280.17</course>
  <speed>0.0</speed>
  <fix>3d</fix>
</trkpt>
<trkpt lat="33.810313" lon="-118.393867">
  <ele>-0.128</ele>
  <time>2026-09-02T22:12:34Z</time>
  <course>100.47</course>
  <speed>0.0</speed>
  <fix>3d</fix>
</trkpt>
<trkpt lat="33.810313" lon="-118.393867">
  <ele>-0.12</ele>
  <time>2026-09-02T22:12:34Z</time>
  <course>280.17</course>
  <speed>0.0</speed>
  <fix>3d</fix>
</trkpt>
<trkpt lat="33.810313" lon="-118.393867">
  <ele>-0.126</ele>
  <time>2026-09-02T22:12:34Z</time>
  <course>100.51</course>
  <speed>0.0</speed>
  <fix>3d</fix>
</trkpt>
<trkpt lat="33.810313" lon="-118.393867">
  <ele>-0.12</ele>
  <time>2026-09-02T22:12:34Z</time>
  <course>280.17</course>
  <speed>0.0</speed>
  <fix>3d</fix>
</trkpt>
<trkpt lat="33.810313" lon="-118.393867">
  <ele>-0.124</ele>
  <time>2026-09-02T22:12:34Z</time>
  <course>100.55</course>
  <speed>0.0</speed>
  <fix>3d</fix>
</trkpt>
<trkpt lat="33.810313" lon="-118.393867">
  <ele>-0.12</ele>
  <time>2026-09-02T22:12:34Z</time>
  <course>280.17</course>
  <speed>0.0</speed>
  <fix>3d</fix>
</trkpt>
<trkpt lat="33.810313" lon="-118.393867">
  <ele>-0.122</ele>
  <time>2026-09-02T22:12:34Z</time>
  <course>100.59</course>
  <speed>0.0</speed>
  <fix>3d</fix>
</trkpt>
<trkpt lat="33.810313" lon="-118.393867">
  <ele>-0.12</ele>
  <time>2026-09-02T22:12:34Z</time>
  <course>280.17</course>
  <speed>0.0</speed>
  <fix>3d</fix>
</trkpt>
<trkpt lat="33.810313" lon="-118.393867">
  <ele>-0.122</ele>
  <time>2026-09-02T22:12:34Z</time>
  <course>100.63</course>
  <speed>0.0</speed>
  <fix>3d</fix>
</trkpt>
<trkpt lat="33.810313" lon="-118.393867">
  <ele>-0.12</ele>
  <time>2026-09-02T22:12:34Z</time>
  <course>280.17</course>
  <speed>0.0</speed>
  <fix>3d</fix>
</trkpt>
<trkpt lat="33.810313" lon="-118.393867">
  <ele>-0.122</ele>
  <time>2026-09-02T22:12:34Z</time>
  <course>100.67</course>
  <speed>0.0</speed>
  <fix>3d</fix>
</trkpt>
<trkpt lat="33.810313" lon="-118.393867">
  <ele>-0.12</ele>
  <time>2026-09-02T22:12:34Z</time>
  <course>280.17</course>
  <speed>0.0</speed>
  <fix>3d</fix>
</trkpt>
<trkpt lat="33.810313" lon="-118.393867">
  <ele>-0.122</ele>
  <time>2026-09-02T22:12:34Z</time>
  <course>100.7</course>
  <speed>0.0</speed>
  <fix>3d</fix>
</trkpt>
<trkpt lat="33.810313" lon="-118.393867">
  <ele>-0.12</ele>
  <time>2026-09-02T22:12:34Z</time>
  <course>280.17</course>
  <speed>0.0</speed>
  <fix>3d</fix>
</trkpt>
<trkpt lat="33.810313" lon="-118.393867">
  <ele>-0.122</ele>
  <time>2026-09-02T22:12:34Z</time>
  <course>101.86</course>
  <speed>0.0</speed>
  <fix>3d</fix>
</trkpt>
<trkpt lat="33.810313" lon="-118.393867">
  <ele>-0.12</ele>
  <time>2026-09-02T22:12:34Z</time>
  <course>280.17</course>
  <speed>0.0</speed>
  <fix>3d</fix>
</trkpt>
<trkpt lat="33.810313" lon="-118.393867">
  <ele>-0.122</ele>
  <time>2026-09-02T22:12:34Z</time>
  <course>112.63</course>
  <speed>0.0</speed>
  <fix>3d</fix>
</trkpt>
<trkpt lat="33.810313" lon="-118.393867">
  <ele>-0.12</ele>
  <time>2026-09-02T22:12:34Z</time>
  <course>280.17</course>
  <speed>0.0</speed>
  <fix>3d</fix>
</trkpt>
<trkpt lat="33.810313" lon="-118.393867">
  <ele>-0.12</ele>
  <time>2026-09-02T22:12:34Z</time>
  <course>125.58</course>
  <speed>0.0</speed>
  <fix>3d</fix>
</trkpt>
<trkpt lat="33.810313" lon="-118.393867">
  <ele>-0.12</ele>
  <time>2026-09-02T22:12:34Z</time>
  <course>280.17</course>
  <speed>0.0</speed>
  <fix>3d</fix>
</trkpt>
<trkpt lat="33.810313" lon="-118.393867">
  <ele>-0.119</ele>
  <time>2026-09-02T22:12:34Z</time>
  <course>136.76</course>
  <speed>0.0</speed>
  <fix>3d</fix>
</trkpt>
<trkpt lat="33.810313" lon="-118.393867">
  <ele>-0.12</ele>
  <time>2026-09-02T22:12:34Z</time>
  <course>280.17</course>
  <speed>0.0</speed>
  <fix>3d</fix>
</trkpt>
<trkpt lat="33.810313" lon="-118.393867">
  <ele>-0.116</ele>
  <time>2026-09-02T22:12:34Z</time>
  <course>143.08</course>
  <speed>0.0</speed>
  <fix>3d</fix>
</trkpt>
<trkpt lat="33.810313" lon="-118.393867">
  <ele>-0.12</ele>
  <time>2026-09-02T22:12:34Z</time>
  <course>280.17</course>
  <speed>0.0</speed>
  <fix>3d</fix>
</trkpt>
<trkpt lat="33.810313" lon="-118.393867">
  <ele>-0.114</ele>
  <time>2026-09-02T22:12:34Z</time>
  <course>146.0</course>
  <speed>0.0</speed>
  <fix>3d</fix>
</trkpt>
<trkpt lat="33.810313" lon="-118.393867">
  <ele>-0.12</ele>
  <time>2026-09-02T22:12:34Z</time>
  <course>280.17</course>
  <speed>0.0</speed>
  <fix>3d</fix>
</trkpt>
<trkpt lat="33.810313" lon="-118.393867">
  <ele>-0.113</ele>
  <time>2026-09-02T22:12:34Z</time>
  <course>146.93</course>
  <speed>0.0</speed>
  <fix>3d</fix>
</trkpt>
<trkpt lat="33.810313" lon="-118.393867">
  <ele>-0.12</ele>
  <time>2026-09-02T22:12:34Z</time>
  <course>280.17</course>
  <speed>0.0</speed>
  <fix>3d</fix>
</trkpt>
<trkpt lat="33.810313" lon="-118.393867">
  <ele>-0.114</ele>
  <time>2026-09-02T22:12:34Z</time>
  <course>147.24</course>
  <speed>0.0</speed>
  <fix>3d</fix>
</trkpt>
<trkpt lat="33.810313" lon="-118.393867">
  <ele>-0.12</ele>
  <time>2026-09-02T22:12:34Z</time>
  <course>280.17</course>
  <speed>0.0</speed>
  <fix>3d</fix>
</trkpt>
<trkpt lat="33.810313" lon="-118.393867">
  <ele>-0.115</ele>
  <time>2026-09-02T22:12:34Z</time>
  <course>147.25</course>
  <speed>0.0</speed>
  <fix>3d</fix>
</trkpt>
<trkpt lat="33.810313" lon="-118.393867">
  <ele>-0.12</ele>
  <time>2026-09-02T22:12:34Z</time>
  <course>280.17</course>
  <speed>0.0</speed>
  <fix>3d</fix>
</trkpt>
<trkpt lat="33.810313" lon="-118.393867">
  <ele>-0.117</ele>
  <time>2026-09-02T22:12:34Z</time>
  <course>147.2</course>
  <speed>0.0</speed>
  <fix>3d</fix>
</trkpt>
<trkpt lat="33.810313" lon="-118.393867">
  <ele>-0.12</ele>
  <time>2026-09-02T22:12:34Z</time>
  <course>280.17</course>
  <speed>0.0</speed>
  <fix>3d</fix>
</trkpt>
<trkpt lat="33.810313" lon="-118.393867">
  <ele>-0.118</ele>
  <time>2026-09-02T22:12:34Z</time>
  <course>147.18</course>
  <speed>0.0</speed>
  <fix>3d</fix>
</trkpt>
<trkpt lat="33.810313" lon="-118.393867">
  <ele>-0.12</ele>
  <time>2026-09-02T22:12:34Z</time>
  <course>280.17</course>
  <speed>0.0</speed>
  <fix>3d</fix>
</trkpt>
<trkpt lat="33.810313" lon="-118.393867">
  <ele>-0.119</ele>
  <time>2026-09-02T22:12:34Z</time>
  <course>147.2</course>
  <speed>0.0</speed>
  <fix>3d</fix>
</trkpt>
<trkpt lat="33.810313" lon="-118.393867">
  <ele>-0.12</ele>
  <time>2026-09-02T22:12:34Z</time>
  <course>280.17</course>
  <speed>0.0</speed>
  <fix>3d</fix>
</trkpt>
<trkpt lat="33.810313" lon="-118.393867">
  <ele>-0.119</ele>
  <time>2026-09-02T22:12:34Z</time>
  <course>147.23</course>
  <speed>0.0</speed>
  <fix>3d</fix>
</trkpt>
<trkpt lat="33.810313" lon="-118.393867">
  <ele>-0.12</ele>
  <time>2026-09-02T22:12:34Z</time>
  <course>280.17</course>
  <speed>0.0</speed>
  <fix>3d</fix>
</trkpt>
<trkpt lat="33.810313" lon="-118.393867">
  <ele>-0.119</ele>
  <time>2026-09-02T22:12:34Z</time>
  <course>147.27</course>
  <speed>0.0</speed>
  <fix>3d</fix>
</trkpt>
<trkpt lat="33.810313" lon="-118.393867">
  <ele>-0.12</ele>
  <time>2026-09-02T22:12:34Z</time>
  <course>280.17</course>
  <speed>0.0</speed>
  <fix>3d</fix>
</trkpt>
<trkpt lat="33.810313" lon="-118.393867">
  <ele>-0.119</ele>
  <time>2026-09-02T22:12:34Z</time>
  <course>147.3</course>
  <speed>0.0</speed>
  <fix>3d</fix>
</trkpt>
<trkpt lat="33.810313" lon="-118.393867">
  <ele>-0.12</ele>
  <time>2026-09-02T22:12:34Z</time>
  <course>280.17</course>
  <speed>0.0</speed>
  <fix>3d</fix>
</trkpt>
<trkpt lat="33.810313" lon="-118.393867">
  <ele>-0.118</ele>
  <time>2026-09-02T22:12:34Z</time>
  <course>147.34</course>
  <speed>0.0</speed>
  <fix>3d</fix>
</trkpt>
<trkpt lat="33.810313" lon="-118.393867">
  <ele>-0.12</ele>
  <time>2026-09-02T22:12:34Z</time>
  <course>280.17</course>
  <speed>0.0</speed>
  <fix>3d</fix>
</trkpt>
<trkpt lat="33.810313" lon="-118.393867">
  <ele>-0.117</ele>
  <time>2026-09-02T22:12:34Z</time>
  <course>147.37</course>
  <speed>0.0</speed>
  <fix>3d</fix>
</trkpt>
<trkpt lat="33.810313" lon="-118.393867">
  <ele>-0.12</ele>
  <time>2026-09-02T22:12:34Z</time>
  <course>280.17</course>
  <speed>0.0</speed>
  <fix>3d</fix>
</trkpt>
<trkpt lat="33.810313" lon="-118.393867">
  <ele>-0.117</ele>
  <time>2026-09-02T22:12:34Z</time>
  <course>147.4</course>
  <speed>0.0</speed>
  <fix>3d</fix>
</trkpt>
<trkpt lat="33.810313" lon="-118.393867">
  <ele>-0.12</ele>
  <time>2026-09-02T22:12:34Z</time>
  <course>280.17</course>
  <speed>0.0</speed>
  <fix>3d</fix>
</trkpt>
<trkpt lat="33.810313" lon="-118.393867">
  <ele>-0.118</ele>
  <time>2026-09-02T22:12:34Z</time>
  <course>147.43</course>
  <speed>0.0</speed>
  <fix>3d</fix>
</trkpt>
<trkpt lat="33.810313" lon="-118.393867">
  <ele>-0.12</ele>
  <time>2026-09-02T22:12:34Z</time>
  <course>280.17</course>
  <speed>0.0</speed>
  <fix>3d</fix>
</trkpt>
<trkpt lat="33.810313" lon="-118.393867">
  <ele>-0.12</ele>
  <time>2026-09-02T22:12:34Z</time>
  <course>147.46</course>
  <speed>0.0</speed>
  <fix>3d</fix>
</trkpt>
<trkpt lat="33.810313" lon="-118.393867">
  <ele>-0.12</ele>
  <time>2026-09-02T22:12:34Z</time>
  <course>280.17</course>
  <speed>0.0</speed>
  <fix>3d</fix>
</trkpt>
<trkpt lat="33.810313" lon="-118.393867">
  <ele>-0.121</ele>
  <time>2026-09-02T22:12:34Z</time>
  <course>147.49</course>
  <speed>0.0</speed>
  <fix>3d</fix>
</trkpt>
<trkpt lat="33.810313" lon="-118.393867">
  <ele>-0.12</ele>
  <time>2026-09-02T22:12:34Z</time>
  <course>280.17</course>
  <speed>0.0</speed>
  <fix>3d</fix>
</trkpt>
<trkpt lat="33.810313" lon="-118.393867">
  <ele>-0.122</ele>
  <time>2026-09-02T22:12:34Z</time>
  <course>147.52</course>
  <speed>0.0</speed>
  <fix>3d</fix>
</trkpt>
<trkpt lat="33.810313" lon="-118.393867">
  <ele>-0.12</ele>
  <time>2026-09-02T22:12:34Z</time>
  <course>280.17</course>
  <speed>0.0</speed>
  <fix>3d</fix>
</trkpt>
<trkpt lat="33.810313" lon="-118.393867">
  <ele>-0.122</ele>
  <time>2026-09-02T22:12:34Z</time>
  <course>147.54</course>
  <speed>0.0</speed>
  <fix>3d</fix>
</trkpt>
<trkpt lat="33.810313" lon="-118.393867">
  <ele>-0.12</ele>
  <time>2026-09-02T22:12:34Z</time>
  <course>280.17</course>
  <speed>0.0</speed>
  <fix>3d</fix>
</trkpt>
<trkpt lat="33.810313" lon="-118.393867">
  <ele>-0.121</ele>
  <time>2026-09-02T22:12:34Z</time>
  <course>147.57</course>
  <speed>0.0</speed>
  <fix>3d</fix>
</trkpt>
<trkpt lat="33.810313" lon="-118.393867">
  <ele>-0.12</ele>
  <time>2026-09-02T22:12:34Z</time>
  <course>280.17</course>
  <speed>0.0</speed>
  <fix>3d</fix>
</trkpt>
<trkpt lat="33.810313" lon="-118.393867">
  <ele>-0.12</ele>
  <time>2026-09-02T22:12:34Z</time>
  <course>147.6</course>
  <speed>0.0</speed>
  <fix>3d</fix>
</trkpt>
<trkpt lat="33.810313" lon="-118.393867">
  <ele>-0.12</ele>
  <time>2026-09-02T22:12:34Z</time>
  <course>280.17</course>
  <speed>0.0</speed>
  <fix>3d</fix>
</trkpt>
<trkpt lat="33.810313" lon="-118.393867">
  <ele>-0.118</ele>
  <time>2026-09-02T22:12:34Z</time>
  <course>147.63</course>
  <speed>0.0</speed>
  <fix>3d</fix>
</trkpt>
<trkpt lat="33.810313" lon="-118.393867">
  <ele>-0.12</ele>
  <time>2026-09-02T22:12:34Z</time>
  <course>280.17</course>
  <speed>0.0</speed>
  <fix>3d</fix>
</trkpt>
<trkpt lat="33.810313" lon="-118.393867">
  <ele>-0.116</ele>
  <time>2026-09-02T22:12:34Z</time>
  <course>147.66</course>
  <speed>0.0</speed>
  <fix>3d</fix>
</trkpt>
<trkpt lat="33.810313" lon="-118.393867">
  <ele>-0.12</ele>
  <time>2026-09-02T22:12:34Z</time>
  <course>280.17</course>
  <speed>0.0</speed>
  <fix>3d</fix>
</trkpt>
<trkpt lat="33.810313" lon="-118.393867">
  <ele>-0.114</ele>
  <time>2026-09-02T22:12:34Z</time>
  <course>147.68</course>
  <speed>0.0</speed>
  <fix>3d</fix>
</trkpt>
<trkpt lat="33.810313" lon="-118.393867">
  <ele>-0.12</ele>
  <time>2026-09-02T22:12:34Z</time>
  <course>280.17</course>
  <speed>0.0</speed>
  <fix>3d</fix>
</trkpt>
<trkpt lat="33.810313" lon="-118.393867">
  <ele>-0.113</ele>
  <time>2026-09-02T22:12:34Z</time>
  <course>146.43</course>
  <speed>0.0</speed>
  <fix>3d</fix>
</trkpt>
<trkpt lat="33.810313" lon="-118.393867">
  <ele>-0.12</ele>
  <time>2026-09-02T22:12:34Z</time>
  <course>280.17</course>
  <speed>0.0</speed>
  <fix>3d</fix>
</trkpt>
<trkpt lat="33.810313" lon="-118.393867">
  <ele>-0.115</ele>
  <time>2026-09-02T22:12:34Z</time>
  <course>136.58</course>
  <speed>0.0</speed>
  <fix>3d</fix>
</trkpt>
<trkpt lat="33.810313" lon="-118.393867">
  <ele>-0.12</ele>
  <time>2026-09-02T22:12:34Z</time>
  <course>280.17</course>
  <speed>0.0</speed>
  <fix>3d</fix>
</trkpt>
<trkpt lat="33.810313" lon="-118.393867">
  <ele>-0.116</ele>
  <time>2026-09-02T22:12:34Z</time>
  <course>123.85</course>
  <speed>0.0</speed>
  <fix>3d</fix>
</trkpt>
<trkpt lat="33.810313" lon="-118.393867">
  <ele>-0.12</ele>
  <time>2026-09-02T22:12:34Z</time>
  <course>280.17</course>
  <speed>0.0</speed>
  <fix>3d</fix>
</trkpt>
<trkpt lat="33.810313" lon="-118.393867">
  <ele>-0.118</ele>
  <time>2026-09-02T22:12:34Z</time>
  <course>114.33</course>
  <speed>0.0</speed>
  <fix>3d</fix>
</trkpt>
<trkpt lat="33.810313" lon="-118.393867">
  <ele>-0.12</ele>
  <time>2026-09-02T22:12:34Z</time>
  <course>280.17</course>
  <speed>0.0</speed>
  <fix>3d</fix>
</trkpt>
<trkpt lat="33.810313" lon="-118.393867">
  <ele>-0.119</ele>
  <time>2026-09-02T22:12:34Z</time>
  <course>109.32</course>
  <speed>0.0</speed>
  <fix>3d</fix>
</trkpt>
<trkpt lat="33.810313" lon="-118.393867">
  <ele>-0.12</ele>
  <time>2026-09-02T22:12:34Z</time>
  <course>280.17</course>
  <speed>0.0</speed>
  <fix>3d</fix>
</trkpt>
<trkpt lat="33.810313" lon="-118.393867">
  <ele>-0.12</ele>
  <time>2026-09-02T22:12:34Z</time>
  <course>106.95</course>
  <speed>0.0</speed>
  <fix>3d</fix>
</trkpt>
<trkpt lat="33.810313" lon="-118.393867">
  <ele>-0.12</ele>
  <time>2026-09-02T22:12:34Z</time>
  <course>280.17</course>
  <speed>0.0</speed>
  <fix>3d</fix>
</trkpt>
<trkpt lat="33.810313" lon="-118.393867">
  <ele>-0.12</ele>
  <time>2026-09-02T22:12:34Z</time>
  <course>105.8</course>
  <speed>0.0</speed>
  <fix>3d</fix>
</trkpt>
<trkpt lat="33.810313" lon="-118.393867">
  <ele>-0.12</ele>
  <time>2026-09-02T22:12:34Z</time>
  <course>280.17</course>
  <speed>0.0</speed>
  <fix>3d</fix>
</trkpt>
<trkpt lat="33.810313" lon="-118.393867">
  <ele>-0.118</ele>
  <time>2026-09-02T22:12:34Z</time>
  <course>105.1</course>
  <speed>0.0</speed>
  <fix>3d</fix>
</trkpt>
<trkpt lat="33.810313" lon="-118.393867">
  <ele>-0.12</ele>
  <time>2026-09-02T22:12:34Z</time>
  <course>280.17</course>
  <speed>0.0</speed>
  <fix>3d</fix>
</trkpt>
<trkpt lat="33.810313" lon="-118.393867">
  <ele>-0.117</ele>
  <time>2026-09-02T22:12:34Z</time>
  <course>104.58</course>
  <speed>0.0</speed>
  <fix>3d</fix>
</trkpt>
<trkpt lat="33.810313" lon="-118.393867">
  <ele>-0.12</ele>
  <time>2026-09-02T22:12:34Z</time>
  <course>280.17</course>
  <speed>0.0</speed>
  <fix>3d</fix>
</trkpt>
<trkpt lat="33.810313" lon="-118.393867">
  <ele>-0.115</ele>
  <time>2026-09-02T22:12:34Z</time>
  <course>104.02</course>
  <speed>0.0</speed>
  <fix>3d</fix>
</trkpt>
<trkpt lat="33.810313" lon="-118.393867">
  <ele>-0.12</ele>
  <time>2026-09-02T22:12:34Z</time>
  <course>280.17</course>
  <speed>0.0</speed>
  <fix>3d</fix>
</trkpt>
<trkpt lat="33.810313" lon="-118.393867">
  <ele>-0.114</ele>
  <time>2026-09-02T22:12:34Z</time>
  <course>103.5</course>
  <speed>0.0</speed>
  <fix>3d</fix>
</trkpt>
<trkpt lat="33.810313" lon="-118.393867">
  <ele>-0.12</ele>
  <time>2026-09-02T22:12:34Z</time>
  <course>280.17</course>
  <speed>0.0</speed>
  <fix>3d</fix>
</trkpt>
<trkpt lat="33.810313" lon="-118.393867">
  <ele>-0.115</ele>
  <time>2026-09-02T22:12:34Z</time>
  <course>103.05</course>
  <speed>0.0</speed>
  <fix>3d</fix>
</trkpt>
<trkpt lat="33.810313" lon="-118.393867">
  <ele>-0.12</ele>
  <time>2026-09-02T22:12:34Z</time>
  <course>280.17</course>
  <speed>0.0</speed>
  <fix>3d</fix>
</trkpt>
<trkpt lat="33.810313" lon="-118.393867">
  <ele>-0.115</ele>
  <time>2026-09-02T22:12:34Z</time>
  <course>102.76</course>
  <speed>0.0</speed>
  <fix>3d</fix>
</trkpt>
<trkpt lat="33.810313" lon="-118.393867">
  <ele>-0.12</ele>
  <time>2026-09-02T22:12:34Z</time>
  <course>280.17</course>
  <speed>0.0</speed>
  <fix>3d</fix>
</trkpt>
<trkpt lat="33.810313" lon="-118.393867">
  <ele>-0.116</ele>
  <time>2026-09-02T22:12:34Z</time>
  <course>102.56</course>
  <speed>0.0</speed>
  <fix>3d</fix>
</trkpt>
<trkpt lat="33.810313" lon="-118.393867">
  <ele>-0.12</ele>
  <time>2026-09-02T22:12:34Z</time>
  <course>280.17</course>
  <speed>0.0</speed>
  <fix>3d</fix>
</trkpt>
<trkpt lat="33.810313" lon="-118.393867">
  <ele>-0.116</ele>
  <time>2026-09-02T22:12:34Z</time>
  <course>102.4</course>
  <speed>0.0</speed>
  <fix>3d</fix>
</trkpt>
<trkpt lat="33.810313" lon="-118.393867">
  <ele>-0.12</ele>
  <time>2026-09-02T22:12:34Z</time>
  <course>280.17</course>
  <speed>0.0</speed>
  <fix>3d</fix>
</trkpt>
<trkpt lat="33.810313" lon="-118.393867">
  <ele>-0.116</ele>
  <time>2026-09-02T22:12:34Z</time>
  <course>102.26</course>
  <speed>0.0</speed>
  <fix>3d</fix>
</trkpt>
<trkpt lat="33.810313" lon="-118.393867">
  <ele>-0.12</ele>
  <time>2026-09-02T22:12:34Z</time>
  <course>280.17</course>
  <speed>0.0</speed>
  <fix>3d</fix>
</trkpt>
<trkpt lat="33.810313" lon="-118.393867">
  <ele>-0.115</ele>
  <time>2026-09-02T22:12:34Z</time>
  <course>102.14</course>
  <speed>0.0</speed>
  <fix>3d</fix>
</trkpt>
<trkpt lat="33.810313" lon="-118.393867">
  <ele>-0.12</ele>
  <time>2026-09-02T22:12:34Z</time>
  <course>280.17</course>
  <speed>0.0</speed>
  <fix>3d</fix>
</trkpt>
<trkpt lat="33.810313" lon="-118.393867">
  <ele>-0.114</ele>
  <time>2026-09-02T22:12:34Z</time>
  <course>102.05</course>
  <speed>0.0</speed>
  <fix>3d</fix>
</trkpt>
<trkpt lat="33.810313" lon="-118.393867">
  <ele>-0.12</ele>
  <time>2026-09-02T22:12:34Z</time>
  <course>280.17</course>
  <speed>0.0</speed>
  <fix>3d</fix>
</trkpt>
<trkpt lat="33.810313" lon="-118.393867">
  <ele>-0.112</ele>
  <time>2026-09-02T22:12:34Z</time>
  <course>102.0</course>
  <speed>0.0</speed>
  <fix>3d</fix>
</trkpt>
<trkpt lat="33.810313" lon="-118.393867">
  <ele>-0.12</ele>
  <time>2026-09-02T22:12:34Z</time>
  <course>280.17</course>
  <speed>0.0</speed>
  <fix>3d</fix>
</trkpt>
<trkpt lat="33.810313" lon="-118.393867">
  <ele>-0.112</ele>
  <time>2026-09-02T22:12:34Z</time>
  <course>101.98</course>
  <speed>0.0</speed>
  <fix>3d</fix>
</trkpt>
<trkpt lat="33.810313" lon="-118.393867">
  <ele>-0.12</ele>
  <time>2026-09-02T22:12:34Z</time>
  <course>280.17</course>
  <speed>0.0</speed>
  <fix>3d</fix>
</trkpt>
<trkpt lat="33.810313" lon="-118.393867">
  <ele>-0.111</ele>
  <time>2026-09-02T22:12:34Z</time>
  <course>101.98</course>
  <speed>0.0</speed>
  <fix>3d</fix>
</trkpt>
<trkpt lat="33.810313" lon="-118.393867">
  <ele>-0.12</ele>
  <time>2026-09-02T22:12:34Z</time>
  <course>280.17</course>
  <speed>0.0</speed>
  <fix>3d</fix>
</trkpt>
<trkpt lat="33.810313" lon="-118.393867">
  <ele>-0.111</ele>
  <time>2026-09-02T22:12:34Z</time>
  <course>101.98</course>
  <speed>0.0</speed>
  <fix>3d</fix>
</trkpt>
<trkpt lat="33.810313" lon="-118.393867">
  <ele>-0.12</ele>
  <time>2026-09-02T22:12:34Z</time>
  <course>280.17</course>
  <speed>0.0</speed>
  <fix>3d</fix>
</trkpt>
<trkpt lat="33.810313" lon="-118.393867">
  <ele>-0.112</ele>
  <time>2026-09-02T22:12:34Z</time>
  <course>101.98</course>
  <speed>0.0</speed>
  <fix>3d</fix>
</trkpt>
<trkpt lat="33.810313" lon="-118.393867">
  <ele>-0.12</ele>
  <time>2026-09-02T22:12:34Z</time>
  <course>280.17</course>
  <speed>0.0</speed>
  <fix>3d</fix>
</trkpt>
<trkpt lat="33.810313" lon="-118.393867">
  <ele>-0.114</ele>
  <time>2026-09-02T22:12:34Z</time>
  <course>101.98</course>
  <speed>0.0</speed>
  <fix>3d</fix>
</trkpt>
<trkpt lat="33.810313" lon="-118.393867">
  <ele>-0.12</ele>
  <time>2026-09-02T22:12:34Z</time>
  <course>280.17</course>
  <speed>0.0</speed>
  <fix>3d</fix>
</trkpt>
<trkpt lat="33.810313" lon="-118.393867">
  <ele>-0.115</ele>
  <time>2026-09-02T22:12:34Z</time>
  <course>101.99</course>
  <speed>0.0</speed>
  <fix>3d</fix>
</trkpt>
<trkpt lat="33.810313" lon="-118.393867">
  <ele>-0.12</ele>
  <time>2026-09-02T22:12:34Z</time>
  <course>280.17</course>
  <speed>0.0</speed>
  <fix>3d</fix>
</trkpt>
<trkpt lat="33.810313" lon="-118.393867">
  <ele>-0.115</ele>
  <time>2026-09-02T22:12:34Z</time>
  <course>102.0</course>
  <speed>0.0</speed>
  <fix>3d</fix>
</trkpt>
<trkpt lat="33.810313" lon="-118.393867">
  <ele>-0.12</ele>
  <time>2026-09-02T22:12:34Z</time>
  <course>280.17</course>
  <speed>0.0</speed>
  <fix>3d</fix>
</trkpt>
<trkpt lat="33.810313" lon="-118.393867">
  <ele>-0.115</ele>
  <time>2026-09-02T22:12:34Z</time>
  <course>102.02</course>
  <speed>0.0</speed>
  <fix>3d</fix>
</trkpt>
<trkpt lat="33.810313" lon="-118.393867">
  <ele>-0.12</ele>
  <time>2026-09-02T22:12:34Z</time>
  <course>280.17</course>
  <speed>0.0</speed>
  <fix>3d</fix>
</trkpt>
<trkpt lat="33.810313" lon="-118.393867">
  <ele>-0.116</ele>
  <time>2026-09-02T22:12:34Z</time>
  <course>102.03</course>
  <speed>0.0</speed>
  <fix>3d</fix>
</trkpt>
<trkpt lat="33.810313" lon="-118.393867">
  <ele>-0.12</ele>
  <time>2026-09-02T22:12:34Z</time>
  <course>280.17</course>
  <speed>0.0</speed>
  <fix>3d</fix>
</trkpt>
<trkpt lat="33.810313" lon="-118.393867">
  <ele>-0.117</ele>
  <time>2026-09-02T22:12:34Z</time>
  <course>102.04</course>
  <speed>0.0</speed>
  <fix>3d</fix>
</trkpt>
<trkpt lat="33.810313" lon="-118.393867">
  <ele>-0.12</ele>
  <time>2026-09-02T22:12:34Z</time>
  <course>280.17</course>
  <speed>0.0</speed>
  <fix>3d</fix>
</trkpt>
<trkpt lat="33.810313" lon="-118.393867">
  <ele>-0.117</ele>
  <time>2026-09-02T22:12:34Z</time>
  <course>102.05</course>
  <speed>0.0</speed>
  <fix>3d</fix>
</trkpt>
<trkpt lat="33.810313" lon="-118.393867">
  <ele>-0.12</ele>
  <time>2026-09-02T22:12:34Z</time>
  <course>280.17</course>
  <speed>0.0</speed>
  <fix>3d</fix>
</trkpt>
<trkpt lat="33.810313" lon="-118.393867">
  <ele>-0.118</ele>
  <time>2026-09-02T22:12:34Z</time>
  <course>102.07</course>
  <speed>0.0</speed>
  <fix>3d</fix>
</trkpt>
<trkpt lat="33.810313" lon="-118.393867">
  <ele>-0.12</ele>
  <time>2026-09-02T22:12:34Z</time>
  <course>280.17</course>
  <speed>0.0</speed>
  <fix>3d</fix>
</trkpt>
<trkpt lat="33.810313" lon="-118.393867">
  <ele>-0.12</ele>
  <time>2026-09-02T22:12:34Z</time>
  <course>102.09</course>
  <speed>0.0</speed>
  <fix>3d</fix>
</trkpt>
<trkpt lat="33.810313" lon="-118.393867">
  <ele>-0.12</ele>
  <time>2026-09-02T22:12:34Z</time>
  <course>280.17</course>
  <speed>0.0</speed>
  <fix>3d</fix>
</trkpt>
<trkpt lat="33.810313" lon="-118.393867">
  <ele>-0.121</ele>
  <time>2026-09-02T22:12:34Z</time>
  <course>102.1</course>
  <speed>0.0</speed>
  <fix>3d</fix>
</trkpt>
<trkpt lat="33.810313" lon="-118.393867">
  <ele>-0.12</ele>
  <time>2026-09-02T22:12:34Z</time>
  <course>280.17</course>
  <speed>0.0</speed>
  <fix>3d</fix>
</trkpt>
<trkpt lat="33.810313" lon="-118.393867">
  <ele>-0.123</ele>
  <time>2026-09-02T22:12:34Z</time>
  <course>102.12</course>
  <speed>0.0</speed>
  <fix>3d</fix>
</trkpt>
<trkpt lat="33.810313" lon="-118.393867">
  <ele>-0.12</ele>
  <time>2026-09-02T22:12:34Z</time>
  <course>280.17</course>
  <speed>0.0</speed>
  <fix>3d</fix>
</trkpt>
<trkpt lat="33.810313" lon="-118.393867">
  <ele>-0.125</ele>
  <time>2026-09-02T22:12:34Z</time>
  <course>102.14</course>
  <speed>0.0</speed>
  <fix>3d</fix>
</trkpt>
<trkpt lat="33.810313" lon="-118.393867">
  <ele>-0.12</ele>
  <time>2026-09-02T22:12:34Z</time>
  <course>280.17</course>
  <speed>0.0</speed>
  <fix>3d</fix>
</trkpt>
<trkpt lat="33.810313" lon="-118.393867">
  <ele>-0.126</ele>
  <time>2026-09-02T22:12:34Z</time>
  <course>102.15</course>
  <speed>0.0</speed>
  <fix>3d</fix>
</trkpt>
<trkpt lat="33.810313" lon="-118.393867">
  <ele>-0.12</ele>
  <time>2026-09-02T22:12:34Z</time>
  <course>280.17</course>
  <speed>0.0</speed>
  <fix>3d</fix>
</trkpt>
<trkpt lat="33.810313" lon="-118.393867">
  <ele>-0.127</ele>
  <time>2026-09-02T22:12:34Z</time>
  <course>102.11</course>
  <speed>0.0</speed>
  <fix>3d</fix>
</trkpt>
<trkpt lat="33.810313" lon="-118.393867">
  <ele>-0.12</ele>
  <time>2026-09-02T22:12:34Z</time>
  <course>280.17</course>
  <speed>0.0</speed>
  <fix>3d</fix>
</trkpt>
<trkpt lat="33.810313" lon="-118.393867">
  <ele>-0.127</ele>
  <time>2026-09-02T22:12:34Z</time>
  <course>102.13</course>
  <speed>0.0</speed>
  <fix>3d</fix>
</trkpt>
<trkpt lat="33.810313" lon="-118.393867">
  <ele>-0.12</ele>
  <time>2026-09-02T22:12:34Z</time>
  <course>280.17</course>
  <speed>0.0</speed>
  <fix>3d</fix>
</trkpt>
<trkpt lat="33.810313" lon="-118.393867">
  <ele>-0.126</ele>
  <time>2026-09-02T22:12:34Z</time>
  <course>102.15</course>
  <speed>0.0</speed>
  <fix>3d</fix>
</trkpt>
<trkpt lat="33.810313" lon="-118.393867">
  <ele>-0.12</ele>
  <time>2026-09-02T22:12:34Z</time>
  <course>280.17</course>
  <speed>0.0</speed>
  <fix>3d</fix>
</trkpt>
<trkpt lat="33.810313" lon="-118.393867">
  <ele>-0.125</ele>
  <time>2026-09-02T22:12:34Z</time>
  <course>102.17</course>
  <speed>0.0</speed>
  <fix>3d</fix>
</trkpt>
<trkpt lat="33.810313" lon="-118.393867">
  <ele>-0.12</ele>
  <time>2026-09-02T22:12:34Z</time>
  <course>280.17</course>
  <speed>0.0</speed>
  <fix>3d</fix>
</trkpt>
<trkpt lat="33.810313" lon="-118.393867">
  <ele>-0.124</ele>
  <time>2026-09-02T22:12:34Z</time>
  <course>102.19</course>
  <speed>0.0</speed>
  <fix>3d</fix>
</trkpt>
<trkpt lat="33.810313" lon="-118.393867">
  <ele>-0.12</ele>
  <time>2026-09-02T22:12:34Z</time>
  <course>280.17</course>
  <speed>0.0</speed>
  <fix>3d</fix>
</trkpt>
<trkpt lat="33.810313" lon="-118.393867">
  <ele>-0.123</ele>
  <time>2026-09-02T22:12:34Z</time>
  <course>102.21</course>
  <speed>0.0</speed>
  <fix>3d</fix>
</trkpt>
<trkpt lat="33.810313" lon="-118.393867">
  <ele>-0.12</ele>
  <time>2026-09-02T22:12:34Z</time>
  <course>280.17</course>
  <speed>0.0</speed>
  <fix>3d</fix>
</trkpt>
<trkpt lat="33.810313" lon="-118.393867">
  <ele>-0.124</ele>
  <time>2026-09-02T22:12:35Z</time>
  <course>102.23</course>
  <speed>0.0</speed>
  <fix>3d</fix>
</trkpt>
<trkpt lat="33.810313" lon="-118.393867">
  <ele>-0.12</ele>
  <time>2026-09-02T22:12:35Z</time>
  <course>280.17</course>
  <speed>0.0</speed>
  <fix>3d</fix>
</trkpt>
<trkpt lat="33.810313" lon="-118.393867">
  <ele>-0.125</ele>
  <time>2026-09-02T22:12:35Z</time>
  <course>102.24</course>
  <speed>0.0</speed>
  <fix>3d</fix>
</trkpt>
<trkpt lat="33.810313" lon="-118.393867">
  <ele>-0.12</ele>
  <time>2026-09-02T22:12:35Z</time>
  <course>280.17</course>
  <speed>0.0</speed>
  <fix>3d</fix>
</trkpt>
<trkpt lat="33.810313" lon="-118.393867">
  <ele>-0.126</ele>
  <time>2026-09-02T22:12:35Z</time>
  <course>102.26</course>
  <speed>0.0</speed>
  <fix>3d</fix>
</trkpt>
<trkpt lat="33.810313" lon="-118.393867">
  <ele>-0.12</ele>
  <time>2026-09-02T22:12:35Z</time>
  <course>280.17</course>
  <speed>0.0</speed>
  <fix>3d</fix>
</trkpt>
<trkpt lat="33.810313" lon="-118.393867">
  <ele>-0.126</ele>
  <time>2026-09-02T22:12:35Z</time>
  <course>102.28</course>
  <speed>0.0</speed>
  <fix>3d</fix>
</trkpt>
<trkpt lat="33.810313" lon="-118.393867">
  <ele>-0.12</ele>
  <time>2026-09-02T22:12:35Z</time>
  <course>280.17</course>
  <speed>0.0</speed>
  <fix>3d</fix>
</trkpt>
<trkpt lat="33.4368002" lon="-117.0859339">
  <ele>-0.11</ele>
  <time>2026-09-02T22:12:36Z</time>
  <course>0.0</course>
  <speed>0.0</speed>
  <fix>3d</fix>
</trkpt>
<trkpt lat="33.4368002" lon="-117.0859339">
  <ele>-0.11</ele>
  <time>2026-09-02T22:12:36Z</time>
  <course>0.0</course>
  <speed>0.0</speed>
  <fix>3d</fix>
</trkpt>
<trkpt lat="33.810313" lon="-118.393867">
  <ele>0.0</ele>
  <time>2026-09-02T22:12:36Z</time>
  <course>173.5</course>
  <speed>0.0</speed>
  <fix>3d</fix>
</trkpt>
<trkpt lat="33.810313" lon="-118.393867">
  <ele>-0.11</ele>
  <time>2026-09-02T22:12:36Z</time>
  <course>0.0</course>
  <speed>0.0</speed>
  <fix>3d</fix>
</trkpt>
<trkpt lat="33.810313" lon="-118.393867">
  <ele>0.0</ele>
  <time>2026-09-02T22:12:36Z</time>
  <course>173.64</course>
  <speed>0.0</speed>
  <fix>3d</fix>
</trkpt>
<trkpt lat="33.810313" lon="-118.393867">
  <ele>-0.11</ele>
  <time>2026-09-02T22:12:36Z</time>
  <course>0.0</course>
  <speed>0.0</speed>
  <fix>3d</fix>
</trkpt>
<trkpt lat="33.810313" lon="-118.393867">
  <ele>0.0</ele>
  <time>2026-09-02T22:12:36Z</time>
  <course>174.05</course>
  <speed>0.0</speed>
  <fix>3d</fix>
</trkpt>
<trkpt lat="33.810313" lon="-118.393867">
  <ele>-0.11</ele>
  <time>2026-09-02T22:12:36Z</time>
  <course>0.0</course>
  <speed>0.0</speed>
  <fix>3d</fix>
</trkpt>
<trkpt lat="33.810313" lon="-118.393867">
  <ele>0.0</ele>
  <time>2026-09-02T22:12:36Z</time>
  <course>174.58</course>
  <speed>0.0</speed>
  <fix>3d</fix>
</trkpt>
<trkpt lat="33.810313" lon="-118.393867">
  <ele>-0.11</ele>
  <time>2026-09-02T22:12:36Z</time>
  <course>0.0</course>
  <speed>0.0</speed>
  <fix>3d</fix>
</trkpt>
<trkpt lat="33.810313" lon="-118.393867">
  <ele>0.0</ele>
  <time>2026-09-02T22:12:36Z</time>
  <course>175.14</course>
  <speed>0.0</speed>
  <fix>3d</fix>
</trkpt>
<trkpt lat="33.810313" lon="-118.393867">
  <ele>-0.12</ele>
  <time>2026-09-02T22:12:36Z</time>
  <course>0.0</course>
  <speed>0.0</speed>
  <fix>3d</fix>
</trkpt>
<trkpt lat="33.810313" lon="-118.393867">
  <ele>0.0</ele>
  <time>2026-09-02T22:12:36Z</time>
  <course>175.68</course>
  <speed>0.0</speed>
  <fix>3d</fix>
</trkpt>
<trkpt lat="33.810313" lon="-118.393867">
  <ele>-0.12</ele>
  <time>2026-09-02T22:12:36Z</time>
  <course>0.0</course>
  <speed>0.0</speed>
  <fix>3d</fix>
</trkpt>
<trkpt lat="33.810313" lon="-118.393867">
  <ele>0.0</ele>
  <time>2026-09-02T22:12:36Z</time>
  <course>176.18</course>
  <speed>0.0</speed>
  <fix>3d</fix>
</trkpt>
<trkpt lat="33.810313" lon="-118.393867">
  <ele>-0.13</ele>
  <time>2026-09-02T22:12:36Z</time>
  <course>0.0</course>
  <speed>0.0</speed>
  <fix>3d</fix>
</trkpt>
<trkpt lat="33.810313" lon="-118.393867">
  <ele>0.0</ele>
  <time>2026-09-02T22:12:36Z</time>
  <course>176.66</course>
  <speed>0.0</speed>
  <fix>3d</fix>
</trkpt>
<trkpt lat="33.810313" lon="-118.393867">
  <ele>-0.13</ele>
  <time>2026-09-02T22:12:36Z</time>
  <course>0.0</course>
  <speed>0.0</speed>
  <fix>3d</fix>
</trkpt>
<trkpt lat="33.810313" lon="-118.393867">
  <ele>0.0</ele>
  <time>2026-09-02T22:12:36Z</time>
  <course>177.12</course>
  <speed>0.0</speed>
  <fix>3d</fix>
</trkpt>
<trkpt lat="33.810313" lon="-118.393867">
  <ele>-0.13</ele>
  <time>2026-09-02T22:12:36Z</time>
  <course>0.0</course>
  <speed>0.0</speed>
  <fix>3d</fix>
</trkpt>
<trkpt lat="33.810313" lon="-118.393867">
  <ele>0.0</ele>
  <time>2026-09-02T22:12:36Z</time>
  <course>177.57</course>
  <speed>0.0</speed>
  <fix>3d</fix>
</trkpt>
<trkpt lat="33.810313" lon="-118.393867">
  <ele>-0.13</ele>
  <time>2026-09-02T22:12:36Z</time>
  <course>0.0</course>
  <speed>0.0</speed>
  <fix>3d</fix>
</trkpt>
<trkpt lat="33.810313" lon="-118.393867">
  <ele>0.0</ele>
  <time>2026-09-02T22:12:36Z</time>
  <course>178.02</course>
  <speed>0.0</speed>
  <fix>3d</fix>
</trkpt>
<trkpt lat="33.810313" lon="-118.393867">
  <ele>-0.14</ele>
  <time>2026-09-02T22:12:36Z</time>
  <course>0.0</course>
  <speed>0.0</speed>
  <fix>3d</fix>
</trkpt>
<trkpt lat="33.810313" lon="-118.393867">
  <ele>0.0</ele>
  <time>2026-09-02T22:12:36Z</time>
  <course>178.46</course>
  <speed>0.0</speed>
  <fix>3d</fix>
</trkpt>
<trkpt lat="33.810313" lon="-118.393867">
  <ele>-0.14</ele>
  <time>2026-09-02T22:12:36Z</time>
  <course>0.0</course>
  <speed>0.0</speed>
  <fix>3d</fix>
</trkpt>
<trkpt lat="33.810313" lon="-118.393867">
  <ele>0.0</ele>
  <time>2026-09-02T22:12:36Z</time>
  <course>178.88</course>
  <speed>0.0</speed>
  <fix>3d</fix>
</trkpt>
<trkpt lat="33.810313" lon="-118.393867">
  <ele>-0.14</ele>
  <time>2026-09-02T22:12:36Z</time>
  <course>0.0</course>
  <speed>0.0</speed>
  <fix>3d</fix>
</trkpt>
<trkpt lat="33.810313" lon="-118.393867">
  <ele>0.0</ele>
  <time>2026-09-02T22:12:36Z</time>
  <course>179.28</course>
  <speed>0.0</speed>
  <fix>3d</fix>
</trkpt>
<trkpt lat="33.810313" lon="-118.393867">
  <ele>-0.14</ele>
  <time>2026-09-02T22:12:36Z</time>
  <course>0.0</course>
  <speed>0.0</speed>
  <fix>3d</fix>
</trkpt>
<trkpt lat="33.810313" lon="-118.393867">
  <ele>0.0</ele>
  <time>2026-09-02T22:12:36Z</time>
  <course>179.67</course>
  <speed>0.0</speed>
  <fix>3d</fix>
</trkpt>
<trkpt lat="33.810313" lon="-118.393867">
  <ele>-0.14</ele>
  <time>2026-09-02T22:12:36Z</time>
  <course>0.0</course>
  <speed>0.0</speed>
  <fix>3d</fix>
</trkpt>
<trkpt lat="33.810313" lon="-118.393867">
  <ele>0.0</ele>
  <time>2026-09-02T22:12:36Z</time>
  <course>180.06</course>
  <speed>0.0</speed>
  <fix>3d</fix>
</trkpt>
<trkpt lat="33.810313" lon="-118.393867">
  <ele>-0.14</ele>
  <time>2026-09-02T22:12:36Z</time>
  <course>0.0</course>
  <speed>0.0</speed>
  <fix>3d</fix>
</trkpt>
<trkpt lat="33.810313" lon="-118.393867">
  <ele>0.0</ele>
  <time>2026-09-02T22:12:36Z</time>
  <course>180.42</course>
  <speed>0.0</speed>
  <fix>3d</fix>
</trkpt>
<trkpt lat="33.810313" lon="-118.393867">
  <ele>-0.14</ele>
  <time>2026-09-02T22:12:36Z</time>
  <course>0.0</course>
  <speed>0.0</speed>
  <fix>3d</fix>
</trkpt>
<trkpt lat="33.810313" lon="-118.393867">
  <ele>0.0</ele>
  <time>2026-09-02T22:12:36Z</time>
  <course>180.77</course>
  <speed>0.0</speed>
  <fix>3d</fix>
</trkpt>
<trkpt lat="33.810313" lon="-118.393867">
  <ele>-0.14</ele>
  <time>2026-09-02T22:12:36Z</time>
  <course>0.0</course>
  <speed>0.0</speed>
  <fix>3d</fix>
</trkpt>
<trkpt lat="33.810313" lon="-118.393867">
  <ele>0.0</ele>
  <time>2026-09-02T22:12:36Z</time>
  <course>181.11</course>
  <speed>0.0</speed>
  <fix>3d</fix>
</trkpt>
<trkpt lat="33.810313" lon="-118.393867">
  <ele>-0.13</ele>
  <time>2026-09-02T22:12:36Z</time>
  <course>0.0</course>
  <speed>0.0</speed>
  <fix>3d</fix>
</trkpt>
<trkpt lat="33.810313" lon="-118.393867">
  <ele>0.0</ele>
  <time>2026-09-02T22:12:36Z</time>
  <course>181.44</course>
  <speed>0.0</speed>
  <fix>3d</fix>
</trkpt>
<trkpt lat="33.810313" lon="-118.393867">
  <ele>-0.13</ele>
  <time>2026-09-02T22:12:36Z</time>
  <course>0.0</course>
  <speed>0.0</speed>
  <fix>3d</fix>
</trkpt>
<trkpt lat="33.810313" lon="-118.393867">
  <ele>0.0</ele>
  <time>2026-09-02T22:12:36Z</time>
  <course>181.76</course>
  <speed>0.0</speed>
  <fix>3d</fix>
</trkpt>
<trkpt lat="33.810313" lon="-118.393867">
  <ele>-0.12</ele>
  <time>2026-09-02T22:12:36Z</time>
  <course>0.0</course>
  <speed>0.0</speed>
  <fix>3d</fix>
</trkpt>
<trkpt lat="33.810313" lon="-118.393867">
  <ele>0.0</ele>
  <time>2026-09-02T22:12:36Z</time>
  <course>182.06</course>
  <speed>0.0</speed>
  <fix>3d</fix>
</trkpt>
<trkpt lat="33.810313" lon="-118.393867">
  <ele>-0.12</ele>
  <time>2026-09-02T22:12:36Z</time>
  <course>0.0</course>
  <speed>0.0</speed>
  <fix>3d</fix>
</trkpt>
<trkpt lat="33.810313" lon="-118.393867">
  <ele>0.0</ele>
  <time>2026-09-02T22:12:36Z</time>
  <course>182.35</course>
  <speed>0.0</speed>
  <fix>3d</fix>
</trkpt>
<trkpt lat="33.810313" lon="-118.393867">
  <ele>-0.12</ele>
  <time>2026-09-02T22:12:36Z</time>
  <course>0.0</course>
  <speed>0.0</speed>
  <fix>3d</fix>
</trkpt>
<trkpt lat="33.810313" lon="-118.393867">
  <ele>0.0</ele>
  <time>2026-09-02T22:12:36Z</time>
  <course>182.64</course>
  <speed>0.0</speed>
  <fix>3d</fix>
</trkpt>
<trkpt lat="33.810313" lon="-118.393867">
  <ele>-0.12</ele>
  <time>2026-09-02T22:12:36Z</time>
  <course>0.0</course>
  <speed>0.0</speed>
  <fix>3d</fix>
</trkpt>
<trkpt lat="33.810313" lon="-118.393867">
  <ele>0.0</ele>
  <time>2026-09-02T22:12:36Z</time>
  <course>182.91</course>
  <speed>0.0</speed>
  <fix>3d</fix>
</trkpt>
<trkpt lat="33.810313" lon="-118.393867">
  <ele>-0.11</ele>
  <time>2026-09-02T22:12:36Z</time>
  <course>0.0</course>
  <speed>0.0</speed>
  <fix>3d</fix>
</trkpt>
<trkpt lat="33.810313" lon="-118.393867">
  <ele>0.0</ele>
  <time>2026-09-02T22:12:36Z</time>
  <course>183.17</course>
  <speed>0.0</speed>
  <fix>3d</fix>
</trkpt>
<trkpt lat="33.810313" lon="-118.393867">
  <ele>-0.11</ele>
  <time>2026-09-02T22:12:36Z</time>
  <course>0.0</course>
  <speed>0.0</speed>
  <fix>3d</fix>
</trkpt>
<trkpt lat="33.810313" lon="-118.393867">
  <ele>0.0</ele>
  <time>2026-09-02T22:12:36Z</time>
  <course>183.42</course>
  <speed>0.0</speed>
  <fix>3d</fix>
</trkpt>
<trkpt lat="33.810313" lon="-118.393867">
  <ele>-0.11</ele>
  <time>2026-09-02T22:12:36Z</time>
  <course>0.0</course>
  <speed>0.0</speed>
  <fix>3d</fix>
</trkpt>
<trkpt lat="33.810313" lon="-118.393867">
  <ele>0.0</ele>
  <time>2026-09-02T22:12:36Z</time>
  <course>183.66</course>
  <speed>0.0</speed>
  <fix>3d</fix>
</trkpt>
<trkpt lat="33.810313" lon="-118.393867">
  <ele>-0.11</ele>
  <time>2026-09-02T22:12:36Z</time>
  <course>0.0</course>
  <speed>0.0</speed>
  <fix>3d</fix>
</trkpt>
<trkpt lat="33.810313" lon="-118.393867">
  <ele>0.0</ele>
  <time>2026-09-02T22:12:36Z</time>
  <course>183.89</course>
  <speed>0.0</speed>
  <fix>3d</fix>
</trkpt>
<trkpt lat="33.810313" lon="-118.393867">
  <ele>-0.12</ele>
  <time>2026-09-02T22:12:36Z</time>
  <course>0.0</course>
  <speed>0.0</speed>
  <fix>3d</fix>
</trkpt>
<trkpt lat="33.810313" lon="-118.393867">
  <ele>0.0</ele>
  <time>2026-09-02T22:12:36Z</time>
  <course>184.11</course>
  <speed>0.0</speed>
  <fix>3d</fix>
</trkpt>
<trkpt lat="33.810313" lon="-118.393867">
  <ele>-0.12</ele>
  <time>2026-09-02T22:12:36Z</time>
  <course>0.0</course>
  <speed>0.0</speed>
  <fix>3d</fix>
</trkpt>
<trkpt lat="33.810313" lon="-118.393867">
  <ele>0.0</ele>
  <time>2026-09-02T22:12:36Z</time>
  <course>184.32</course>
  <speed>0.0</speed>
  <fix>3d</fix>
</trkpt>
<trkpt lat="33.810313" lon="-118.393867">
  <ele>-0.13</ele>
  <time>2026-09-02T22:12:36Z</time>
  <course>0.0</course>
  <speed>0.0</speed>
  <fix>3d</fix>
</trkpt>
<trkpt lat="33.810313" lon="-118.393867">
  <ele>0.0</ele>
  <time>2026-09-02T22:12:36Z</time>
  <course>184.52</course>
  <speed>0.0</speed>
  <fix>3d</fix>
</trkpt>
<trkpt lat="33.810313" lon="-118.393867">
  <ele>-0.13</ele>
  <time>2026-09-02T22:12:36Z</time>
  <course>0.0</course>
  <speed>0.0</speed>
  <fix>3d</fix>
</trkpt>
<trkpt lat="33.810313" lon="-118.393867">
  <ele>0.0</ele>
  <time>2026-09-02T22:12:36Z</time>
  <course>184.72</course>
  <speed>0.0</speed>
  <fix>3d</fix>
</trkpt>
<trkpt lat="33.810313" lon="-118.393867">
  <ele>-0.13</ele>
  <time>2026-09-02T22:12:36Z</time>
  <course>0.0</course>
  <speed>0.0</speed>
  <fix>3d</fix>
</trkpt>
<trkpt lat="33.810313" lon="-118.393867">
  <ele>0.0</ele>
  <time>2026-09-02T22:12:36Z</time>
  <course>184.91</course>
  <speed>0.0</speed>
  <fix>3d</fix>
</trkpt>
<trkpt lat="33.810313" lon="-118.393867">
  <ele>-0.13</ele>
  <time>2026-09-02T22:12:36Z</time>
  <course>0.0</course>
  <speed>0.0</speed>
  <fix>3d</fix>
</trkpt>
<trkpt lat="33.810313" lon="-118.393867">
  <ele>0.0</ele>
  <time>2026-09-02T22:12:36Z</time>
  <course>185.09</course>
  <speed>0.0</speed>
  <fix>3d</fix>
</trkpt>
<trkpt lat="33.810313" lon="-118.393867">
  <ele>-0.14</ele>
  <time>2026-09-02T22:12:36Z</time>
  <course>0.0</course>
  <speed>0.0</speed>
  <fix>3d</fix>
</trkpt>
<trkpt lat="33.810313" lon="-118.393867">
  <ele>0.0</ele>
  <time>2026-09-02T22:12:36Z</time>
  <course>185.26</course>
  <speed>0.0</speed>
  <fix>3d</fix>
</trkpt>
<trkpt lat="33.810313" lon="-118.393867">
  <ele>-0.14</ele>
  <time>2026-09-02T22:12:36Z</time>
  <course>0.0</course>
  <speed>0.0</speed>
  <fix>3d</fix>
</trkpt>
<trkpt lat="33.810313" lon="-118.393867">
  <ele>0.0</ele>
  <time>2026-09-02T22:12:36Z</time>
  <course>185.43</course>
  <speed>0.0</speed>
  <fix>3d</fix>
</trkpt>
<trkpt lat="33.810313" lon="-118.393867">
  <ele>-0.13</ele>
  <time>2026-09-02T22:12:36Z</time>
  <course>0.0</course>
  <speed>0.0</speed>
  <fix>3d</fix>
</trkpt>
<trkpt lat="33.810313" lon="-118.393867">
  <ele>0.0</ele>
  <time>2026-09-02T22:12:36Z</time>
  <course>185.58</course>
  <speed>0.0</speed>
  <fix>3d</fix>
</trkpt>
<trkpt lat="33.810313" lon="-118.393867">
  <ele>-0.13</ele>
  <time>2026-09-02T22:12:36Z</time>
  <course>0.0</course>
  <speed>0.0</speed>
  <fix>3d</fix>
</trkpt>
<trkpt lat="33.810313" lon="-118.393867">
  <ele>0.0</ele>
  <time>2026-09-02T22:12:36Z</time>
  <course>185.73</course>
  <speed>0.0</speed>
  <fix>3d</fix>
</trkpt>
<trkpt lat="33.810313" lon="-118.393867">
  <ele>-0.13</ele>
  <time>2026-09-02T22:12:36Z</time>
  <course>0.0</course>
  <speed>0.0</speed>
  <fix>3d</fix>
</trkpt>
<trkpt lat="33.810313" lon="-118.393867">
  <ele>0.0</ele>
  <time>2026-09-02T22:12:36Z</time>
  <course>185.88</course>
  <speed>0.0</speed>
  <fix>3d</fix>
</trkpt>
<trkpt lat="33.810313" lon="-118.393867">
  <ele>-0.13</ele>
  <time>2026-09-02T22:12:36Z</time>
  <course>0.0</course>
  <speed>0.0</speed>
  <fix>3d</fix>
</trkpt>
<trkpt lat="33.810313" lon="-118.393867">
  <ele>0.0</ele>
  <time>2026-09-02T22:12:36Z</time>
  <course>186.01</course>
  <speed>0.0</speed>
  <fix>3d</fix>
</trkpt>
<trkpt lat="33.810313" lon="-118.393867">
  <ele>-0.12</ele>
  <time>2026-09-02T22:12:36Z</time>
  <course>0.0</course>
  <speed>0.0</speed>
  <fix>3d</fix>
</trkpt>
<trkpt lat="33.810313" lon="-118.393867">
  <ele>0.0</ele>
  <time>2026-09-02T22:12:36Z</time>
  <course>186.15</course>
  <speed>0.0</speed>
  <fix>3d</fix>
</trkpt>
<trkpt lat="33.810313" lon="-118.393867">
  <ele>-0.12</ele>
  <time>2026-09-02T22:12:36Z</time>
  <course>0.0</course>
  <speed>0.0</speed>
  <fix>3d</fix>
</trkpt>
<trkpt lat="33.810313" lon="-118.393867">
  <ele>0.0</ele>
  <time>2026-09-02T22:12:36Z</time>
  <course>186.27</course>
  <speed>0.0</speed>
  <fix>3d</fix>
</trkpt>
<trkpt lat="33.810313" lon="-118.393867">
  <ele>-0.12</ele>
  <time>2026-09-02T22:12:36Z</time>
  <course>0.0</course>
  <speed>0.0</speed>
  <fix>3d</fix>
</trkpt>
<trkpt lat="33.810313" lon="-118.393867">
  <ele>0.0</ele>
  <time>2026-09-02T22:12:36Z</time>
  <course>186.39</course>
  <speed>0.0</speed>
  <fix>3d</fix>
</trkpt>
<trkpt lat="33.810313" lon="-118.393867">
  <ele>-0.12</ele>
  <time>2026-09-02T22:12:36Z</time>
  <course>0.0</course>
  <speed>0.0</speed>
  <fix>3d</fix>
</trkpt>
<trkpt lat="33.810313" lon="-118.393867">
  <ele>0.0</ele>
  <time>2026-09-02T22:12:36Z</time>
  <course>186.51</course>
  <speed>0.0</speed>
  <fix>3d</fix>
</trkpt>
<trkpt lat="33.810313" lon="-118.393867">
  <ele>-0.12</ele>
  <time>2026-09-02T22:12:36Z</time>
  <course>0.0</course>
  <speed>0.0</speed>
  <fix>3d</fix>
</trkpt>
<trkpt lat="33.810313" lon="-118.393867">
  <ele>0.0</ele>
  <time>2026-09-02T22:12:36Z</time>
  <course>186.62</course>
  <speed>0.0</speed>
  <fix>3d</fix>
</trkpt>
<trkpt lat="33.810313" lon="-118.393867">
  <ele>-0.12</ele>
  <time>2026-09-02T22:12:36Z</time>
  <course>0.0</course>
  <speed>0.0</speed>
  <fix>3d</fix>
</trkpt>
<trkpt lat="33.810313" lon="-118.393867">
  <ele>0.0</ele>
  <time>2026-09-02T22:12:36Z</time>
  <course>186.72</course>
  <speed>0.0</speed>
  <fix>3d</fix>
</trkpt>
<trkpt lat="33.810313" lon="-118.393867">
  <ele>-0.12</ele>
  <time>2026-09-02T22:12:36Z</time>
  <course>0.0</course>
  <speed>0.0</speed>
  <fix>3d</fix>
</trkpt>
<trkpt lat="33.810313" lon="-118.393867">
  <ele>0.0</ele>
  <time>2026-09-02T22:12:36Z</time>
  <course>186.82</course>
  <speed>0.0</speed>
  <fix>3d</fix>
</trkpt>
<trkpt lat="33.810313" lon="-118.393867">
  <ele>-0.12</ele>
  <time>2026-09-02T22:12:36Z</time>
  <course>0.0</course>
  <speed>0.0</speed>
  <fix>3d</fix>
</trkpt>
<trkpt lat="33.810313" lon="-118.393867">
  <ele>0.0</ele>
  <time>2026-09-02T22:12:36Z</time>
  <course>186.92</course>
  <speed>0.0</speed>
  <fix>3d</fix>
</trkpt>
<trkpt lat="33.810313" lon="-118.393867">
  <ele>-0.12</ele>
  <time>2026-09-02T22:12:36Z</time>
  <course>0.0</course>
  <speed>0.0</speed>
  <fix>3d</fix>
</trkpt>
<trkpt lat="33.810313" lon="-118.393867">
  <ele>0.0</ele>
  <time>2026-09-02T22:12:36Z</time>
  <course>187.01</course>
  <speed>0.0</speed>
  <fix>3d</fix>
</trkpt>
<trkpt lat="33.810313" lon="-118.393867">
  <ele>-0.12</ele>
  <time>2026-09-02T22:12:36Z</time>
  <course>0.0</course>
  <speed>0.0</speed>
  <fix>3d</fix>
</trkpt>
<trkpt lat="33.810313" lon="-118.393867">
  <ele>0.0</ele>
  <time>2026-09-02T22:12:36Z</time>
  <course>187.09</course>
  <speed>0.0</speed>
  <fix>3d</fix>
</trkpt>
<trkpt lat="33.810313" lon="-118.393867">
  <ele>-0.13</ele>
  <time>2026-09-02T22:12:36Z</time>
  <course>0.0</course>
  <speed>0.0</speed>
  <fix>3d</fix>
</trkpt>
<trkpt lat="33.810313" lon="-118.393867">
  <ele>0.0</ele>
  <time>2026-09-02T22:12:36Z</time>
  <course>187.17</course>
  <speed>0.0</speed>
  <fix>3d</fix>
</trkpt>
<trkpt lat="33.810313" lon="-118.393867">
  <ele>-0.13</ele>
  <time>2026-09-02T22:12:36Z</time>
  <course>0.0</course>
  <speed>0.0</speed>
  <fix>3d</fix>
</trkpt>
<trkpt lat="33.810313" lon="-118.393867">
  <ele>0.0</ele>
  <time>2026-09-02T22:12:36Z</time>
  <course>187.25</course>
  <speed>0.0</speed>
  <fix>3d</fix>
</trkpt>
<trkpt lat="33.810313" lon="-118.393867">
  <ele>-0.13</ele>
  <time>2026-09-02T22:12:36Z</time>
  <course>0.0</course>
  <speed>0.0</speed>
  <fix>3d</fix>
</trkpt>
<trkpt lat="33.810313" lon="-118.393867">
  <ele>0.0</ele>
  <time>2026-09-02T22:12:36Z</time>
  <course>187.33</course>
  <speed>0.0</speed>
  <fix>3d</fix>
</trkpt>
<trkpt lat="33.810313" lon="-118.393867">
  <ele>-0.13</ele>
  <time>2026-09-02T22:12:36Z</time>
  <course>0.0</course>
  <speed>0.0</speed>
  <fix>3d</fix>
</trkpt>
<trkpt lat="33.810313" lon="-118.393867">
  <ele>0.0</ele>
  <time>2026-09-02T22:12:36Z</time>
  <course>187.4</course>
  <speed>0.0</speed>
  <fix>3d</fix>
</trkpt>
<trkpt lat="33.810313" lon="-118.393867">
  <ele>-0.13</ele>
  <time>2026-09-02T22:12:36Z</time>
  <course>0.0</course>
  <speed>0.0</speed>
  <fix>3d</fix>
</trkpt>
<trkpt lat="33.810313" lon="-118.393867">
  <ele>0.0</ele>
  <time>2026-09-02T22:12:36Z</time>
  <course>187.47</course>
  <speed>0.0</speed>
  <fix>3d</fix>
</trkpt>
<trkpt lat="33.810313" lon="-118.393867">
  <ele>-0.13</ele>
  <time>2026-09-02T22:12:36Z</time>
  <course>0.0</course>
  <speed>0.0</speed>
  <fix>3d</fix>
</trkpt>
<trkpt lat="33.810313" lon="-118.393867">
  <ele>0.0</ele>
  <time>2026-09-02T22:12:36Z</time>
  <course>187.53</course>
  <speed>0.0</speed>
  <fix>3d</fix>
</trkpt>
<trkpt lat="33.810313" lon="-118.393867">
  <ele>-0.13</ele>
  <time>2026-09-02T22:12:36Z</time>
  <course>0.0</course>
  <speed>0.0</speed>
  <fix>3d</fix>
</trkpt>
<trkpt lat="33.810313" lon="-118.393867">
  <ele>0.0</ele>
  <time>2026-09-02T22:12:36Z</time>
  <course>187.6</course>
  <speed>0.0</speed>
  <fix>3d</fix>
</trkpt>
<trkpt lat="33.810313" lon="-118.393867">
  <ele>-0.13</ele>
  <time>2026-09-02T22:12:36Z</time>
  <course>0.0</course>
  <speed>0.0</speed>
  <fix>3d</fix>
</trkpt>
<trkpt lat="33.810313" lon="-118.393867">
  <ele>0.0</ele>
  <time>2026-09-02T22:12:36Z</time>
  <course>187.65</course>
  <speed>0.0</speed>
  <fix>3d</fix>
</trkpt>
<trkpt lat="33.810313" lon="-118.393867">
  <ele>-0.12</ele>
  <time>2026-09-02T22:12:36Z</time>
  <course>0.0</course>
  <speed>0.0</speed>
  <fix>3d</fix>
</trkpt>
<trkpt lat="33.810313" lon="-118.393867">
  <ele>0.0</ele>
  <time>2026-09-02T22:12:36Z</time>
  <course>187.71</course>
  <speed>0.0</speed>
  <fix>3d</fix>
</trkpt>
<trkpt lat="33.810313" lon="-118.393867">
  <ele>-0.12</ele>
  <time>2026-09-02T22:12:36Z</time>
  <course>0.0</course>
  <speed>0.0</speed>
  <fix>3d</fix>
</trkpt>
<trkpt lat="33.810313" lon="-118.393867">
  <ele>0.0</ele>
  <time>2026-09-02T22:12:36Z</time>
  <course>187.76</course>
  <speed>0.0</speed>
  <fix>3d</fix>
</trkpt>
<trkpt lat="33.810313" lon="-118.393867">
  <ele>-0.12</ele>
  <time>2026-09-02T22:12:36Z</time>
  <course>0.0</course>
  <speed>0.0</speed>
  <fix>3d</fix>
</trkpt>
<trkpt lat="33.810313" lon="-118.393867">
  <ele>0.0</ele>
  <time>2026-09-02T22:12:36Z</time>
  <course>187.81</course>
  <speed>0.0</speed>
  <fix>3d</fix>
</trkpt>
<trkpt lat="33.810313" lon="-118.393867">
  <ele>-0.12</ele>
  <time>2026-09-02T22:12:36Z</time>
  <course>0.0</course>
  <speed>0.0</speed>
  <fix>3d</fix>
</trkpt>
<trkpt lat="33.810313" lon="-118.393867">
  <ele>0.0</ele>
  <time>2026-09-02T22:12:36Z</time>
  <course>187.86</course>
  <speed>0.0</speed>
  <fix>3d</fix>
</trkpt>
<trkpt lat="33.810313" lon="-118.393867">
  <ele>-0.12</ele>
  <time>2026-09-02T22:12:36Z</time>
  <course>0.0</course>
  <speed>0.0</speed>
  <fix>3d</fix>
</trkpt>
<trkpt lat="33.810313" lon="-118.393867">
  <ele>0.0</ele>
  <time>2026-09-02T22:12:36Z</time>
  <course>187.91</course>
  <speed>0.0</speed>
  <fix>3d</fix>
</trkpt>
<trkpt lat="33.810313" lon="-118.393867">
  <ele>-0.12</ele>
  <time>2026-09-02T22:12:36Z</time>
  <course>0.0</course>
  <speed>0.0</speed>
  <fix>3d</fix>
</trkpt>
<trkpt lat="33.810313" lon="-118.393867">
  <ele>0.0</ele>
  <time>2026-09-02T22:12:36Z</time>
  <course>187.95</course>
  <speed>0.0</speed>
  <fix>3d</fix>
</trkpt>
<trkpt lat="33.810313" lon="-118.393867">
  <ele>-0.12</ele>
  <time>2026-09-02T22:12:36Z</time>
  <course>0.0</course>
  <speed>0.0</speed>
  <fix>3d</fix>
</trkpt>
<trkpt lat="33.810313" lon="-118.393867">
  <ele>0.0</ele>
  <time>2026-09-02T22:12:36Z</time>
  <course>187.99</course>
  <speed>0.0</speed>
  <fix>3d</fix>
</trkpt>
<trkpt lat="33.810313" lon="-118.393867">
  <ele>-0.12</ele>
  <time>2026-09-02T22:12:36Z</time>
  <course>0.0</course>
  <speed>0.0</speed>
  <fix>3d</fix>
</trkpt>
<trkpt lat="33.810313" lon="-118.393867">
  <ele>0.0</ele>
  <time>2026-09-02T22:12:36Z</time>
  <course>188.03</course>
  <speed>0.0</speed>
  <fix>3d</fix>
</trkpt>
<trkpt lat="33.810313" lon="-118.393867">
  <ele>-0.12</ele>
  <time>2026-09-02T22:12:36Z</time>
  <course>0.0</course>
  <speed>0.0</speed>
  <fix>3d</fix>
</trkpt>
<trkpt lat="33.810313" lon="-118.393867">
  <ele>0.0</ele>
  <time>2026-09-02T22:12:36Z</time>
  <course>188.07</course>
  <speed>0.0</speed>
  <fix>3d</fix>
</trkpt>
<trkpt lat="33.810313" lon="-118.393867">
  <ele>-0.12</ele>
  <time>2026-09-02T22:12:36Z</time>
  <course>0.0</course>
  <speed>0.0</speed>
  <fix>3d</fix>
</trkpt>
<trkpt lat="33.810313" lon="-118.393867">
  <ele>0.0</ele>
  <time>2026-09-02T22:12:36Z</time>
  <course>188.1</course>
  <speed>0.0</speed>
  <fix>3d</fix>
</trkpt>
<trkpt lat="33.810313" lon="-118.393867">
  <ele>-0.13</ele>
  <time>2026-09-02T22:12:36Z</time>
  <course>0.0</course>
  <speed>0.0</speed>
  <fix>3d</fix>
</trkpt>
<trkpt lat="33.810313" lon="-118.393867">
  <ele>0.0</ele>
  <time>2026-09-02T22:12:36Z</time>
  <course>188.13</course>
  <speed>0.0</speed>
  <fix>3d</fix>
</trkpt>
<trkpt lat="33.810313" lon="-118.393867">
  <ele>-0.13</ele>
  <time>2026-09-02T22:12:36Z</time>
  <course>0.0</course>
  <speed>0.0</speed>
  <fix>3d</fix>
</trkpt>
<trkpt lat="33.810313" lon="-118.393867">
  <ele>0.0</ele>
  <time>2026-09-02T22:12:36Z</time>
  <course>188.17</course>
  <speed>0.0</speed>
  <fix>3d</fix>
</trkpt>
<trkpt lat="33.810313" lon="-118.393867">
  <ele>-0.13</ele>
  <time>2026-09-02T22:12:36Z</time>
  <course>0.0</course>
  <speed>0.0</speed>
  <fix>3d</fix>
</trkpt>
<trkpt lat="33.810313" lon="-118.393867">
  <ele>0.0</ele>
  <time>2026-09-02T22:12:36Z</time>
  <course>188.19</course>
  <speed>0.0</speed>
  <fix>3d</fix>
</trkpt>
<trkpt lat="33.810313" lon="-118.393867">
  <ele>-0.13</ele>
  <time>2026-09-02T22:12:36Z</time>
  <course>0.0</course>
  <speed>0.0</speed>
  <fix>3d</fix>
</trkpt>
<trkpt lat="33.810313" lon="-118.393867">
  <ele>0.0</ele>
  <time>2026-09-02T22:12:36Z</time>
  <course>188.22</course>
  <speed>0.0</speed>
  <fix>3d</fix>
</trkpt>
<trkpt lat="33.810313" lon="-118.393867">
  <ele>-0.13</ele>
  <time>2026-09-02T22:12:36Z</time>
  <course>0.0</course>
  <speed>0.0</speed>
  <fix>3d</fix>
</trkpt>
<trkpt lat="33.810313" lon="-118.393867">
  <ele>0.0</ele>
  <time>2026-09-02T22:12:36Z</time>
  <course>188.25</course>
  <speed>0.0</speed>
  <fix>3d</fix>
</trkpt>
<trkpt lat="33.810313" lon="-118.393867">
  <ele>-0.13</ele>
  <time>2026-09-02T22:12:36Z</time>
  <course>0.0</course>
  <speed>0.0</speed>
  <fix>3d</fix>
</trkpt>
<trkpt lat="33.810313" lon="-118.393867">
  <ele>0.0</ele>
  <time>2026-09-02T22:12:36Z</time>
  <course>188.27</course>
  <speed>0.0</speed>
  <fix>3d</fix>
</trkpt>
<trkpt lat="33.810313" lon="-118.393867">
  <ele>-0.12</ele>
  <time>2026-09-02T22:12:36Z</time>
  <course>0.0</course>
  <speed>0.0</speed>
  <fix>3d</fix>
</trkpt>
<trkpt lat="33.810313" lon="-118.393867">
  <ele>0.0</ele>
  <time>2026-09-02T22:12:36Z</time>
  <course>188.3</course>
  <speed>0.0</speed>
  <fix>3d</fix>
</trkpt>
<trkpt lat="33.810313" lon="-118.393867">
  <ele>-0.12</ele>
  <time>2026-09-02T22:12:36Z</time>
  <course>0.0</course>
  <speed>0.0</speed>
  <fix>3d</fix>
</trkpt>
<trkpt lat="33.810313" lon="-118.393867">
  <ele>0.0</ele>
  <time>2026-09-02T22:12:36Z</time>
  <course>188.32</course>
  <speed>0.0</speed>
  <fix>3d</fix>
</trkpt>
<trkpt lat="33.810313" lon="-118.393867">
  <ele>-0.12</ele>
  <time>2026-09-02T22:12:36Z</time>
  <course>0.0</course>
  <speed>0.0</speed>
  <fix>3d</fix>
</trkpt>
<trkpt lat="33.810313" lon="-118.393867">
  <ele>0.0</ele>
  <time>2026-09-02T22:12:36Z</time>
  <course>188.34</course>
  <speed>0.0</speed>
  <fix>3d</fix>
</trkpt>
<trkpt lat="33.810313" lon="-118.393867">
  <ele>-0.12</ele>
  <time>2026-09-02T22:12:36Z</time>
  <course>0.0</course>
  <speed>0.0</speed>
  <fix>3d</fix>
</trkpt>
<trkpt lat="33.810313" lon="-118.393867">
  <ele>0.0</ele>
  <time>2026-09-02T22:12:36Z</time>
  <course>188.36</course>
  <speed>0.0</speed>
  <fix>3d</fix>
</trkpt>
<trkpt lat="33.810313" lon="-118.393867">
  <ele>-0.12</ele>
  <time>2026-09-02T22:12:36Z</time>
  <course>0.0</course>
  <speed>0.0</speed>
  <fix>3d</fix>
</trkpt>
<trkpt lat="33.810313" lon="-118.393867">
  <ele>0.0</ele>
  <time>2026-09-02T22:12:36Z</time>
  <course>188.38</course>
  <speed>0.0</speed>
  <fix>3d</fix>
</trkpt>
<trkpt lat="33.810313" lon="-118.393867">
  <ele>-0.12</ele>
  <time>2026-09-02T22:12:36Z</time>
  <course>0.0</course>
  <speed>0.0</speed>
  <fix>3d</fix>
</trkpt>
<trkpt lat="33.810313" lon="-118.393867">
  <ele>0.0</ele>
  <time>2026-09-02T22:12:36Z</time>
  <course>188.39</course>
  <speed>0.0</speed>
  <fix>3d</fix>
</trkpt>
<trkpt lat="33.810313" lon="-118.393867">
  <ele>-0.12</ele>
  <time>2026-09-02T22:12:36Z</time>
  <course>0.0</course>
  <speed>0.0</speed>
  <fix>3d</fix>
</trkpt>
<trkpt lat="33.810313" lon="-118.393867">
  <ele>0.0</ele>
  <time>2026-09-02T22:12:36Z</time>
  <course>188.41</course>
  <speed>0.0</speed>
  <fix>3d</fix>
</trkpt>
<trkpt lat="33.810313" lon="-118.393867">
  <ele>-0.12</ele>
  <time>2026-09-02T22:12:36Z</time>
  <course>0.0</course>
  <speed>0.0</speed>
  <fix>3d</fix>
</trkpt>
<trkpt lat="33.810313" lon="-118.393867">
  <ele>0.0</ele>
  <time>2026-09-02T22:12:36Z</time>
  <course>188.43</course>
  <speed>0.0</speed>
  <fix>3d</fix>
</trkpt>
<trkpt lat="33.810313" lon="-118.393867">
  <ele>-0.12</ele>
  <time>2026-09-02T22:12:36Z</time>
  <course>0.0</course>
  <speed>0.0</speed>
  <fix>3d</fix>
</trkpt>
<trkpt lat="33.810313" lon="-118.393867">
  <ele>0.0</ele>
  <time>2026-09-02T22:12:36Z</time>
  <course>188.44</course>
  <speed>0.0</speed>
  <fix>3d</fix>
</trkpt>
<trkpt lat="33.810313" lon="-118.393867">
  <ele>-0.12</ele>
  <time>2026-09-02T22:12:36Z</time>
  <course>0.0</course>
  <speed>0.0</speed>
  <fix>3d</fix>
</trkpt>
<trkpt lat="33.810313" lon="-118.393867">
  <ele>0.0</ele>
  <time>2026-09-02T22:12:36Z</time>
  <course>188.45</course>
  <speed>0.0</speed>
  <fix>3d</fix>
</trkpt>
<trkpt lat="33.810313" lon="-118.393867">
  <ele>-0.13</ele>
  <time>2026-09-02T22:12:36Z</time>
  <course>0.0</course>
  <speed>0.0</speed>
  <fix>3d</fix>
</trkpt>
<trkpt lat="33.810313" lon="-118.393867">
  <ele>0.0</ele>
  <time>2026-09-02T22:12:36Z</time>
  <course>188.46</course>
  <speed>0.0</speed>
  <fix>3d</fix>
</trkpt>
<trkpt lat="33.810313" lon="-118.393867">
  <ele>-0.13</ele>
  <time>2026-09-02T22:12:36Z</time>
  <course>0.0</course>
  <speed>0.0</speed>
  <fix>3d</fix>
</trkpt>
<trkpt lat="33.810313" lon="-118.393867">
  <ele>0.0</ele>
  <time>2026-09-02T22:12:36Z</time>
  <course>188.48</course>
  <speed>0.0</speed>
  <fix>3d</fix>
</trkpt>
<trkpt lat="33.810313" lon="-118.393867">
  <ele>-0.13</ele>
  <time>2026-09-02T22:12:36Z</time>
  <course>0.0</course>
  <speed>0.0</speed>
  <fix>3d</fix>
</trkpt>
<trkpt lat="33.810313" lon="-118.393867">
  <ele>0.0</ele>
  <time>2026-09-02T22:12:36Z</time>
  <course>188.49</course>
  <speed>0.0</speed>
  <fix>3d</fix>
</trkpt>
<trkpt lat="33.810313" lon="-118.393867">
  <ele>-0.13</ele>
  <time>2026-09-02T22:12:36Z</time>
  <course>0.0</course>
  <speed>0.0</speed>
  <fix>3d</fix>
</trkpt>
<trkpt lat="33.810313" lon="-118.393867">
  <ele>0.0</ele>
  <time>2026-09-02T22:12:36Z</time>
  <course>188.49</course>
  <speed>0.0</speed>
  <fix>3d</fix>
</trkpt>
<trkpt lat="33.810313" lon="-118.393867">
  <ele>-0.13</ele>
  <time>2026-09-02T22:12:36Z</time>
  <course>0.0</course>
  <speed>0.0</speed>
  <fix>3d</fix>
</trkpt>
<trkpt lat="33.810313" lon="-118.393867">
  <ele>0.0</ele>
  <time>2026-09-02T22:12:36Z</time>
  <course>188.5</course>
  <speed>0.0</speed>
  <fix>3d</fix>
</trkpt>
<trkpt lat="33.810313" lon="-118.393867">
  <ele>-0.13</ele>
  <time>2026-09-02T22:12:36Z</time>
  <course>0.0</course>
  <speed>0.0</speed>
  <fix>3d</fix>
</trkpt>
<trkpt lat="33.810313" lon="-118.393867">
  <ele>0.0</ele>
  <time>2026-09-02T22:12:36Z</time>
  <course>188.51</course>
  <speed>0.0</speed>
  <fix>3d</fix>
</trkpt>
<trkpt lat="33.810313" lon="-118.393867">
  <ele>-0.12</ele>
  <time>2026-09-02T22:12:36Z</time>
  <course>0.0</course>
  <speed>0.0</speed>
  <fix>3d</fix>
</trkpt>
<trkpt lat="33.810313" lon="-118.393867">
  <ele>0.0</ele>
  <time>2026-09-02T22:12:36Z</time>
  <course>188.52</course>
  <speed>0.0</speed>
  <fix>3d</fix>
</trkpt>
<trkpt lat="33.810313" lon="-118.393867">
  <ele>-0.12</ele>
  <time>2026-09-02T22:12:36Z</time>
  <course>0.0</course>
  <speed>0.0</speed>
  <fix>3d</fix>
</trkpt>
<trkpt lat="33.810313" lon="-118.393867">
  <ele>0.0</ele>
  <time>2026-09-02T22:12:36Z</time>
  <course>188.53</course>
  <speed>0.0</speed>
  <fix>3d</fix>
</trkpt>
<trkpt lat="33.810313" lon="-118.393867">
  <ele>-0.12</ele>
  <time>2026-09-02T22:12:36Z</time>
  <course>0.0</course>
  <speed>0.0</speed>
  <fix>3d</fix>
</trkpt>
<trkpt lat="33.810313" lon="-118.393867">
  <ele>0.0</ele>
  <time>2026-09-02T22:12:36Z</time>
  <course>188.53</course>
  <speed>0.0</speed>
  <fix>3d</fix>
</trkpt>
<trkpt lat="33.810313" lon="-118.393867">
  <ele>-0.12</ele>
  <time>2026-09-02T22:12:36Z</time>
  <course>0.0</course>
  <speed>0.0</speed>
  <fix>3d</fix>
</trkpt>
<trkpt lat="33.810313" lon="-118.393867">
  <ele>0.0</ele>
  <time>2026-09-02T22:12:36Z</time>
  <course>188.54</course>
  <speed>0.0</speed>
  <fix>3d</fix>
</trkpt>
<trkpt lat="33.810313" lon="-118.393867">
  <ele>-0.12</ele>
  <time>2026-09-02T22:12:36Z</time>
  <course>0.0</course>
  <speed>0.0</speed>
  <fix>3d</fix>
</trkpt>
<trkpt lat="33.810313" lon="-118.393867">
  <ele>0.0</ele>
  <time>2026-09-02T22:12:36Z</time>
  <course>188.54</course>
  <speed>0.0</speed>
  <fix>3d</fix>
</trkpt>
<trkpt lat="33.810313" lon="-118.393867">
  <ele>-0.12</ele>
  <time>2026-09-02T22:12:36Z</time>
  <course>0.0</course>
  <speed>0.0</speed>
  <fix>3d</fix>
</trkpt>
<trkpt lat="33.810313" lon="-118.393867">
  <ele>0.0</ele>
  <time>2026-09-02T22:12:36Z</time>
  <course>188.54</course>
  <speed>0.0</speed>
  <fix>3d</fix>
</trkpt>
<trkpt lat="33.810313" lon="-118.393867">
  <ele>-0.12</ele>
  <time>2026-09-02T22:12:36Z</time>
  <course>0.0</course>
  <speed>0.0</speed>
  <fix>3d</fix>
</trkpt>
<trkpt lat="33.810313" lon="-118.393867">
  <ele>0.0</ele>
  <time>2026-09-02T22:12:36Z</time>
  <course>188.55</course>
  <speed>0.0</speed>
  <fix>3d</fix>
</trkpt>
<trkpt lat="33.810313" lon="-118.393867">
  <ele>-0.12</ele>
  <time>2026-09-02T22:12:36Z</time>
  <course>0.0</course>
  <speed>0.0</speed>
  <fix>3d</fix>
</trkpt>
<trkpt lat="33.810313" lon="-118.393867">
  <ele>0.0</ele>
  <time>2026-09-02T22:12:36Z</time>
  <course>188.55</course>
  <speed>0.0</speed>
  <fix>3d</fix>
</trkpt>
<trkpt lat="33.810313" lon="-118.393867">
  <ele>-0.12</ele>
  <time>2026-09-02T22:12:36Z</time>
  <course>0.0</course>
  <speed>0.0</speed>
  <fix>3d</fix>
</trkpt>
<trkpt lat="33.810313" lon="-118.393867">
  <ele>0.0</ele>
  <time>2026-09-02T22:12:36Z</time>
  <course>188.55</course>
  <speed>0.0</speed>
  <fix>3d</fix>
</trkpt>
<trkpt lat="33.810313" lon="-118.393867">
  <ele>-0.12</ele>
  <time>2026-09-02T22:12:36Z</time>
  <course>0.0</course>
  <speed>0.0</speed>
  <fix>3d</fix>
</trkpt>
<trkpt lat="33.810313" lon="-118.393867">
  <ele>-0.126</ele>
  <time>2026-09-02T22:12:36Z</time>
  <course>188.55</course>
  <speed>0.0</speed>
  <fix>3d</fix>
</trkpt>
<trkpt lat="33.810313" lon="-118.393867">
  <ele>-0.13</ele>
  <time>2026-09-02T22:12:36Z</time>
  <course>0.0</course>
  <speed>0.0</speed>
  <fix>3d</fix>
</trkpt>
<trkpt lat="33.810313" lon="-118.393867">
  <ele>-0.126</ele>
  <time>2026-09-02T22:12:36Z</time>
  <course>188.55</course>
  <speed>0.0</speed>
  <fix>3d</fix>
</trkpt>
<trkpt lat="33.810313" lon="-118.393867">
  <ele>-0.13</ele>
  <time>2026-09-02T22:12:36Z</time>
  <course>0.0</course>
  <speed>0.0</speed>
  <fix>3d</fix>
</trkpt>
<trkpt lat="33.810313" lon="-118.393867">
  <ele>-0.124</ele>
  <time>2026-09-02T22:12:36Z</time>
  <course>188.56</course>
  <speed>0.0</speed>
  <fix>3d</fix>
</trkpt>
<trkpt lat="33.810313" lon="-118.393867">
  <ele>-0.13</ele>
  <time>2026-09-02T22:12:36Z</time>
  <course>0.0</course>
  <speed>0.0</speed>
  <fix>3d</fix>
</trkpt>
<trkpt lat="33.810313" lon="-118.393867">
  <ele>-0.123</ele>
  <time>2026-09-02T22:12:36Z</time>
  <course>188.56</course>
  <speed>0.0</speed>
  <fix>3d</fix>
</trkpt>
<trkpt lat="33.810313" lon="-118.393867">
  <ele>-0.13</ele>
  <time>2026-09-02T22:12:36Z</time>
  <course>0.0</course>
  <speed>0.0</speed>
  <fix>3d</fix>
</trkpt>
<trkpt lat="33.810313" lon="-118.393867">
  <ele>-0.121</ele>
  <time>2026-09-02T22:12:36Z</time>
  <course>188.56</course>
  <speed>0.0</speed>
  <fix>3d</fix>
</trkpt>
<trkpt lat="33.810313" lon="-118.393867">
  <ele>-0.12</ele>
  <time>2026-09-02T22:12:36Z</time>
  <course>0.0</course>
  <speed>0.0</speed>
  <fix>3d</fix>
</trkpt>
<trkpt lat="33.810313" lon="-118.393867">
  <ele>-0.12</ele>
  <time>2026-09-02T22:12:36Z</time>
  <course>188.56</course>
  <speed>0.0</speed>
  <fix>3d</fix>
</trkpt>
<trkpt lat="33.810313" lon="-118.393867">
  <ele>-0.12</ele>
  <time>2026-09-02T22:12:36Z</time>
  <course>0.0</course>
  <speed>0.0</speed>
  <fix>3d</fix>
</trkpt>
<trkpt lat="33.810313" lon="-118.393867">
  <ele>-0.119</ele>
  <time>2026-09-02T22:12:36Z</time>
  <course>188.56</course>
  <speed>0.0</speed>
  <fix>3d</fix>
</trkpt>
<trkpt lat="33.810313" lon="-118.393867">
  <ele>-0.12</ele>
  <time>2026-09-02T22:12:36Z</time>
  <course>0.0</course>
  <speed>0.0</speed>
  <fix>3d</fix>
</trkpt>
<trkpt lat="33.810313" lon="-118.393867">
  <ele>-0.12</ele>
  <time>2026-09-02T22:12:36Z</time>
  <course>188.56</course>
  <speed>0.0</speed>
  <fix>3d</fix>
</trkpt>
<trkpt lat="33.810313" lon="-118.393867">
  <ele>-0.12</ele>
  <time>2026-09-02T22:12:36Z</time>
  <course>0.0</course>
  <speed>0.0</speed>
  <fix>3d</fix>
</trkpt>
<trkpt lat="33.810313" lon="-118.393867">
  <ele>-0.124</ele>
  <time>2026-09-02T22:12:36Z</time>
  <course>188.55</course>
  <speed>0.0</speed>
  <fix>3d</fix>
</trkpt>
<trkpt lat="33.810313" lon="-118.393867">
  <ele>-0.12</ele>
  <time>2026-09-02T22:12:36Z</time>
  <course>0.0</course>
  <speed>0.0</speed>
  <fix>3d</fix>
</trkpt>
<trkpt lat="33.810313" lon="-118.393867">
  <ele>-0.127</ele>
  <time>2026-09-02T22:12:36Z</time>
  <course>188.55</course>
  <speed>0.0</speed>
  <fix>3d</fix>
</trkpt>
<trkpt lat="33.810313" lon="-118.393867">
  <ele>-0.12</ele>
  <time>2026-09-02T22:12:36Z</time>
  <course>0.0</course>
  <speed>0.0</speed>
  <fix>3d</fix>
</trkpt>
<trkpt lat="33.810313" lon="-118.393867">
  <ele>-0.13</ele>
  <time>2026-09-02T22:12:36Z</time>
  <course>188.55</course>
  <speed>0.0</speed>
  <fix>3d</fix>
</trkpt>
<trkpt lat="33.810313" lon="-118.393867">
  <ele>-0.12</ele>
  <time>2026-09-02T22:12:36Z</time>
  <course>0.0</course>
  <speed>0.0</speed>
  <fix>3d</fix>
</trkpt>
<trkpt lat="33.810313" lon="-118.393867">
  <ele>-0.132</ele>
  <time>2026-09-02T22:12:36Z</time>
  <course>188.55</course>
  <speed>0.0</speed>
  <fix>3d</fix>
</trkpt>
<trkpt lat="33.810313" lon="-118.393867">
  <ele>-0.12</ele>
  <time>2026-09-02T22:12:36Z</time>
  <course>0.0</course>
  <speed>0.0</speed>
  <fix>3d</fix>
</trkpt>
<trkpt lat="33.810313" lon="-118.393867">
  <ele>-0.132</ele>
  <time>2026-09-02T22:12:36Z</time>
  <course>188.55</course>
  <speed>0.0</speed>
  <fix>3d</fix>
</trkpt>
<trkpt lat="33.810313" lon="-118.393867">
  <ele>-0.12</ele>
  <time>2026-09-02T22:12:36Z</time>
  <course>0.0</course>
  <speed>0.0</speed>
  <fix>3d</fix>
</trkpt>
<trkpt lat="33.810313" lon="-118.393867">
  <ele>-0.132</ele>
  <time>2026-09-02T22:12:36Z</time>
  <course>188.55</course>
  <speed>0.0</speed>
  <fix>3d</fix>
</trkpt>
<trkpt lat="33.810313" lon="-118.393867">
  <ele>-0.12</ele>
  <time>2026-09-02T22:12:36Z</time>
  <course>0.0</course>
  <speed>0.0</speed>
  <fix>3d</fix>
</trkpt>
<trkpt lat="33.810313" lon="-118.393867">
  <ele>-0.132</ele>
  <time>2026-09-02T22:12:36Z</time>
  <course>188.55</course>
  <speed>0.0</speed>
  <fix>3d</fix>
</trkpt>
<trkpt lat="33.810313" lon="-118.393867">
  <ele>-0.12</ele>
  <time>2026-09-02T22:12:36Z</time>
  <course>0.0</course>
  <speed>0.0</speed>
  <fix>3d</fix>
</trkpt>
<trkpt lat="33.810313" lon="-118.393867">
  <ele>-0.131</ele>
  <time>2026-09-02T22:12:36Z</time>
  <course>188.55</course>
  <speed>0.0</speed>
  <fix>3d</fix>
</trkpt>
<trkpt lat="33.810313" lon="-118.393867">
  <ele>-0.12</ele>
  <time>2026-09-02T22:12:36Z</time>
  <course>0.0</course>
  <speed>0.0</speed>
  <fix>3d</fix>
</trkpt>
<trkpt lat="33.810313" lon="-118.393867">
  <ele>-0.129</ele>
  <time>2026-09-02T22:12:36Z</time>
  <course>188.54</course>
  <speed>0.0</speed>
  <fix>3d</fix>
</trkpt>
<trkpt lat="33.810313" lon="-118.393867">
  <ele>-0.13</ele>
  <time>2026-09-02T22:12:36Z</time>
  <course>0.0</course>
  <speed>0.0</speed>
  <fix>3d</fix>
</trkpt>
<trkpt lat="33.810313" lon="-118.393867">
  <ele>-0.128</ele>
  <time>2026-09-02T22:12:36Z</time>
  <course>188.54</course>
  <speed>0.0</speed>
  <fix>3d</fix>
</trkpt>
<trkpt lat="33.810313" lon="-118.393867">
  <ele>-0.13</ele>
  <time>2026-09-02T22:12:36Z</time>
  <course>0.0</course>
  <speed>0.0</speed>
  <fix>3d</fix>
</trkpt>
<trkpt lat="33.810313" lon="-118.393867">
  <ele>-0.125</ele>
  <time>2026-09-02T22:12:36Z</time>
  <course>188.53</course>
  <speed>0.0</speed>
  <fix>3d</fix>
</trkpt>
<trkpt lat="33.810313" lon="-118.393867">
  <ele>-0.12</ele>
  <time>2026-09-02T22:12:36Z</time>
  <course>0.0</course>
  <speed>0.0</speed>
  <fix>3d</fix>
</trkpt>
<trkpt lat="33.810313" lon="-118.393867">
  <ele>-0.123</ele>
  <time>2026-09-02T22:12:36Z</time>
  <course>188.53</course>
  <speed>0.0</speed>
  <fix>3d</fix>
</trkpt>
<trkpt lat="33.810313" lon="-118.393867">
  <ele>-0.12</ele>
  <time>2026-09-02T22:12:36Z</time>
  <course>0.0</course>
  <speed>0.0</speed>
  <fix>3d</fix>
</trkpt>
<trkpt lat="33.810313" lon="-118.393867">
  <ele>-0.121</ele>
  <time>2026-09-02T22:12:36Z</time>
  <course>188.52</course>
  <speed>0.0</speed>
  <fix>3d</fix>
</trkpt>
<trkpt lat="33.810313" lon="-118.393867">
  <ele>-0.12</ele>
  <time>2026-09-02T22:12:36Z</time>
  <course>0.0</course>
  <speed>0.0</speed>
  <fix>3d</fix>
</trkpt>
<trkpt lat="33.810313" lon="-118.393867">
  <ele>-0.121</ele>
  <time>2026-09-02T22:12:36Z</time>
  <course>188.52</course>
  <speed>0.0</speed>
  <fix>3d</fix>
</trkpt>
<trkpt lat="33.810313" lon="-118.393867">
  <ele>-0.12</ele>
  <time>2026-09-02T22:12:36Z</time>
  <course>0.0</course>
  <speed>0.0</speed>
  <fix>3d</fix>
</trkpt>
<trkpt lat="33.810313" lon="-118.393867">
  <ele>-0.122</ele>
  <time>2026-09-02T22:12:36Z</time>
  <course>188.51</course>
  <speed>0.0</speed>
  <fix>3d</fix>
</trkpt>
<trkpt lat="33.810313" lon="-118.393867">
  <ele>-0.12</ele>
  <time>2026-09-02T22:12:36Z</time>
  <course>0.0</course>
  <speed>0.0</speed>
  <fix>3d</fix>
</trkpt>
<trkpt lat="33.810313" lon="-118.393867">
  <ele>-0.123</ele>
  <time>2026-09-02T22:12:36Z</time>
  <course>188.51</course>
  <speed>0.0</speed>
  <fix>3d</fix>
</trkpt>
<trkpt lat="33.810313" lon="-118.393867">
  <ele>-0.12</ele>
  <time>2026-09-02T22:12:36Z</time>
  <course>0.0</course>
  <speed>0.0</speed>
  <fix>3d</fix>
</trkpt>
<trkpt lat="33.810313" lon="-118.393867">
  <ele>-0.126</ele>
  <time>2026-09-02T22:12:36Z</time>
  <course>188.5</course>
  <speed>0.0</speed>
  <fix>3d</fix>
</trkpt>
<trkpt lat="33.810313" lon="-118.393867">
  <ele>-0.12</ele>
  <time>2026-09-02T22:12:36Z</time>
  <course>0.0</course>
  <speed>0.0</speed>
  <fix>3d</fix>
</trkpt>
<trkpt lat="33.810313" lon="-118.393867">
  <ele>-0.127</ele>
  <time>2026-09-02T22:12:36Z</time>
  <course>188.5</course>
  <speed>0.0</speed>
  <fix>3d</fix>
</trkpt>
<trkpt lat="33.810313" lon="-118.393867">
  <ele>-0.12</ele>
  <time>2026-09-02T22:12:36Z</time>
  <course>0.0</course>
  <speed>0.0</speed>
  <fix>3d</fix>
</trkpt>
<trkpt lat="33.810313" lon="-118.393867">
  <ele>-0.128</ele>
  <time>2026-09-02T22:12:36Z</time>
  <course>188.49</course>
  <speed>0.0</speed>
  <fix>3d</fix>
</trkpt>
<trkpt lat="33.810313" lon="-118.393867">
  <ele>-0.12</ele>
  <time>2026-09-02T22:12:36Z</time>
  <course>0.0</course>
  <speed>0.0</speed>
  <fix>3d</fix>
</trkpt>
<trkpt lat="33.810313" lon="-118.393867">
  <ele>-0.127</ele>
  <time>2026-09-02T22:12:36Z</time>
  <course>188.48</course>
  <speed>0.0</speed>
  <fix>3d</fix>
</trkpt>
<trkpt lat="33.810313" lon="-118.393867">
  <ele>-0.12</ele>
  <time>2026-09-02T22:12:36Z</time>
  <course>0.0</course>
  <speed>0.0</speed>
  <fix>3d</fix>
</trkpt>
<trkpt lat="33.810313" lon="-118.393867">
  <ele>-0.127</ele>
  <time>2026-09-02T22:12:36Z</time>
  <course>188.48</course>
  <speed>0.0</speed>
  <fix>3d</fix>
</trkpt>
<trkpt lat="33.810313" lon="-118.393867">
  <ele>-0.12</ele>
  <time>2026-09-02T22:12:36Z</time>
  <course>0.0</course>
  <speed>0.0</speed>
  <fix>3d</fix>
</trkpt>
<trkpt lat="33.810313" lon="-118.393867">
  <ele>-0.127</ele>
  <time>2026-09-02T22:12:36Z</time>
  <course>188.47</course>
  <speed>0.01</speed>
  <fix>3d</fix>
</trkpt>
<trkpt lat="33.810313" lon="-118.393867">
  <ele>-0.12</ele>
  <time>2026-09-02T22:12:36Z</time>
  <course>0.0</course>
  <speed>0.0</speed>
  <fix>3d</fix>
</trkpt>
<trkpt lat="33.810313" lon="-118.393867">
  <ele>-0.127</ele>
  <time>2026-09-02T22:12:36Z</time>
  <course>188.47</course>
  <speed>0.01</speed>
  <fix>3d</fix>
</trkpt>
<trkpt lat="33.810313" lon="-118.393867">
  <ele>-0.12</ele>
  <time>2026-09-02T22:12:36Z</time>
  <course>0.0</course>
  <speed>0.0</speed>
  <fix>3d</fix>
</trkpt>
<trkpt lat="33.810313" lon="-118.393867">
  <ele>-0.126</ele>
  <time>2026-09-02T22:12:36Z</time>
  <course>188.46</course>
  <speed>0.01</speed>
  <fix>3d</fix>
</trkpt>
<trkpt lat="33.810313" lon="-118.393867">
  <ele>-0.12</ele>
  <time>2026-09-02T22:12:36Z</time>
  <course>0.0</course>
  <speed>0.0</speed>
  <fix>3d</fix>
</trkpt>
<trkpt lat="33.810313" lon="-118.393867">
  <ele>-0.126</ele>
  <time>2026-09-02T22:12:36Z</time>
  <course>188.45</course>
  <speed>0.01</speed>
  <fix>3d</fix>
</trkpt>
<trkpt lat="33.810313" lon="-118.393867">
  <ele>-0.12</ele>
  <time>2026-09-02T22:12:36Z</time>
  <course>0.0</course>
  <speed>0.0</speed>
  <fix>3d</fix>
</trkpt>
<trkpt lat="33.810313" lon="-118.393867">
  <ele>-0.126</ele>
  <time>2026-09-02T22:12:36Z</time>
  <course>188.45</course>
  <speed>0.01</speed>
  <fix>3d</fix>
</trkpt>
<trkpt lat="33.810313" lon="-118.393867">
  <ele>-0.12</ele>
  <time>2026-09-02T22:12:36Z</time>
  <course>0.0</course>
  <speed>0.0</speed>
  <fix>3d</fix>
</trkpt>
<trkpt lat="33.810313" lon="-118.393867">
  <ele>-0.125</ele>
  <time>2026-09-02T22:12:36Z</time>
  <course>188.44</course>
  <speed>0.01</speed>
  <fix>3d</fix>
</trkpt>
<trkpt lat="33.810313" lon="-118.393867">
  <ele>-0.12</ele>
  <time>2026-09-02T22:12:36Z</time>
  <course>0.0</course>
  <speed>0.0</speed>
  <fix>3d</fix>
</trkpt>
<trkpt lat="33.810313" lon="-118.393867">
  <ele>-0.126</ele>
  <time>2026-09-02T22:12:36Z</time>
  <course>188.43</course>
  <speed>0.01</speed>
  <fix>3d</fix>
</trkpt>
<trkpt lat="33.810313" lon="-118.393867">
  <ele>-0.12</ele>
  <time>2026-09-02T22:12:36Z</time>
  <course>0.0</course>
  <speed>0.0</speed>
  <fix>3d</fix>
</trkpt>
<trkpt lat="33.810313" lon="-118.393867">
  <ele>-0.127</ele>
  <time>2026-09-02T22:12:36Z</time>
  <course>188.42</course>
  <speed>0.01</speed>
  <fix>3d</fix>
</trkpt>
<trkpt lat="33.810313" lon="-118.393867">
  <ele>-0.12</ele>
  <time>2026-09-02T22:12:36Z</time>
  <course>0.0</course>
  <speed>0.0</speed>
  <fix>3d</fix>
</trkpt>
<trkpt lat="33.810313" lon="-118.393867">
  <ele>-0.128</ele>
  <time>2026-09-02T22:12:36Z</time>
  <course>188.42</course>
  <speed>0.01</speed>
  <fix>3d</fix>
</trkpt>
<trkpt lat="33.810313" lon="-118.393867">
  <ele>-0.12</ele>
  <time>2026-09-02T22:12:36Z</time>
  <course>0.0</course>
  <speed>0.0</speed>
  <fix>3d</fix>
</trkpt>
<trkpt lat="33.810313" lon="-118.393867">
  <ele>-0.129</ele>
  <time>2026-09-02T22:12:36Z</time>
  <course>188.41</course>
  <speed>0.01</speed>
  <fix>3d</fix>
</trkpt>
<trkpt lat="33.810313" lon="-118.393867">
  <ele>-0.12</ele>
  <time>2026-09-02T22:12:36Z</time>
  <course>0.0</course>
  <speed>0.0</speed>
  <fix>3d</fix>
</trkpt>
<trkpt lat="33.810313" lon="-118.393867">
  <ele>-0.129</ele>
  <time>2026-09-02T22:12:36Z</time>
  <course>188.4</course>
  <speed>0.01</speed>
  <fix>3d</fix>
</trkpt>
<trkpt lat="33.810313" lon="-118.393867">
  <ele>-0.12</ele>
  <time>2026-09-02T22:12:36Z</time>
  <course>0.0</course>
  <speed>0.0</speed>
  <fix>3d</fix>
</trkpt>
<trkpt lat="33.810313" lon="-118.393867">
  <ele>-0.13</ele>
  <time>2026-09-02T22:12:36Z</time>
  <course>188.4</course>
  <speed>0.01414213562373095</speed>
  <fix>3d</fix>
</trkpt>
<trkpt lat="33.810313" lon="-118.393867">
  <ele>-0.12</ele>
  <time>2026-09-02T22:12:36Z</time>
  <course>0.0</course>
  <speed>0.0</speed>
  <fix>3d</fix>
</trkpt>
<trkpt lat="33.810313" lon="-118.393867">
  <ele>-0.13</ele>
  <time>2026-09-02T22:12:36Z</time>
  <course>188.39</course>
  <speed>0.01414213562373095</speed>
  <fix>3d</fix>
</trkpt>
<trkpt lat="33.810313" lon="-118.393867">
  <ele>-0.12</ele>
  <time>2026-09-02T22:12:36Z</time>
  <course>0.0</course>
  <speed>0.0</speed>
  <fix>3d</fix>
</trkpt>
<trkpt lat="33.810313" lon="-118.393867">
  <ele>-0.13</ele>
  <time>2026-09-02T22:12:36Z</time>
  <course>188.38</course>
  <speed>0.01414213562373095</speed>
  <fix>3d</fix>
</trkpt>
<trkpt lat="33.810313" lon="-118.393867">
  <ele>-0.12</ele>
  <time>2026-09-02T22:12:36Z</time>
  <course>0.0</course>
  <speed>0.0</speed>
  <fix>3d</fix>
</trkpt>
<trkpt lat="33.810313" lon="-118.393867">
  <ele>-0.129</ele>
  <time>2026-09-02T22:12:36Z</time>
  <course>188.37</course>
  <speed>0.01414213562373095</speed>
  <fix>3d</fix>
</trkpt>
<trkpt lat="33.810313" lon="-118.393867">
  <ele>-0.12</ele>
  <time>2026-09-02T22:12:36Z</time>
  <course>0.0</course>
  <speed>0.0</speed>
  <fix>3d</fix>
</trkpt>
<trkpt lat="33.810313" lon="-118.393867">
  <ele>-0.128</ele>
  <time>2026-09-02T22:12:36Z</time>
  <course>188.36</course>
  <speed>0.01414213562373095</speed>
  <fix>3d</fix>
</trkpt>
<trkpt lat="33.810313" lon="-118.393867">
  <ele>-0.12</ele>
  <time>2026-09-02T22:12:36Z</time>
  <course>0.0</course>
  <speed>0.0</speed>
  <fix>3d</fix>
</trkpt>
<trkpt lat="33.810313" lon="-118.393867">
  <ele>-0.126</ele>
  <time>2026-09-02T22:12:36Z</time>
  <course>188.36</course>
  <speed>0.01414213562373095</speed>
  <fix>3d</fix>
</trkpt>
<trkpt lat="33.810313" lon="-118.393867">
  <ele>-0.12</ele>
  <time>2026-09-02T22:12:36Z</time>
  <course>0.0</course>
  <speed>0.0</speed>
  <fix>3d</fix>
</trkpt>
<trkpt lat="33.810313" lon="-118.393867">
  <ele>-0.123</ele>
  <time>2026-09-02T22:12:36Z</time>
  <course>188.35</course>
  <speed>0.01414213562373095</speed>
  <fix>3d</fix>
</trkpt>
<trkpt lat="33.810313" lon="-118.393867">
  <ele>-0.12</ele>
  <time>2026-09-02T22:12:36Z</time>
  <course>0.0</course>
  <speed>0.0</speed>
  <fix>3d</fix>
</trkpt>
<trkpt lat="33.810313" lon="-118.393867">
  <ele>-0.122</ele>
  <time>2026-09-02T22:12:36Z</time>
  <course>188.34</course>
  <speed>0.01414213562373095</speed>
  <fix>3d</fix>
</trkpt>
<trkpt lat="33.810313" lon="-118.393867">
  <ele>-0.12</ele>
  <time>2026-09-02T22:12:36Z</time>
  <course>0.0</course>
  <speed>0.0</speed>
  <fix>3d</fix>
</trkpt>
<trkpt lat="33.810313" lon="-118.393867">
  <ele>-0.123</ele>
  <time>2026-09-02T22:12:36Z</time>
  <course>188.33</course>
  <speed>0.01414213562373095</speed>
  <fix>3d</fix>
</trkpt>
<trkpt lat="33.810313" lon="-118.393867">
  <ele>-0.12</ele>
  <time>2026-09-02T22:12:36Z</time>
  <course>0.0</course>
  <speed>0.0</speed>
  <fix>3d</fix>
</trkpt>
<trkpt lat="33.810313" lon="-118.393867">
  <ele>-0.125</ele>
  <time>2026-09-02T22:12:36Z</time>
  <course>188.33</course>
  <speed>0.01414213562373095</speed>
  <fix>3d</fix>
</trkpt>
<trkpt lat="33.810313" lon="-118.393867">
  <ele>-0.12</ele>
  <time>2026-09-02T22:12:36Z</time>
  <course>0.0</course>
  <speed>0.0</speed>
  <fix>3d</fix>
</trkpt>
<trkpt lat="33.810313" lon="-118.393867">
  <ele>-0.128</ele>
  <time>2026-09-02T22:12:36Z</time>
  <course>188.32</course>
  <speed>0.01414213562373095</speed>
  <fix>3d</fix>
</trkpt>
<trkpt lat="33.810313" lon="-118.393867">
  <ele>-0.12</ele>
  <time>2026-09-02T22:12:36Z</time>
  <course>0.0</course>
  <speed>0.0</speed>
  <fix>3d</fix>
</trkpt>
<trkpt lat="33.810313" lon="-118.393867">
  <ele>-0.132</ele>
  <time>2026-09-02T22:12:36Z</time>
  <course>188.31</course>
  <speed>0.01414213562373095</speed>
  <fix>3d</fix>
</trkpt>
<trkpt lat="33.810313" lon="-118.393867">
  <ele>-0.12</ele>
  <time>2026-09-02T22:12:36Z</time>
  <course>0.0</course>
  <speed>0.0</speed>
  <fix>3d</fix>
</trkpt>
<trkpt lat="33.810313" lon="-118.393867">
  <ele>-0.135</ele>
  <time>2026-09-02T22:12:36Z</time>
  <course>188.3</course>
  <speed>0.01414213562373095</speed>
  <fix>3d</fix>
</trkpt>
<trkpt lat="33.810313" lon="-118.393867">
  <ele>-0.12</ele>
  <time>2026-09-02T22:12:36Z</time>
  <course>0.0</course>
  <speed>0.0</speed>
  <fix>3d</fix>
</trkpt>
<trkpt lat="33.810313" lon="-118.393867">
  <ele>-0.135</ele>
  <time>2026-09-02T22:12:36Z</time>
  <course>188.3</course>
  <speed>0.01414213562373095</speed>
  <fix>3d</fix>
</trkpt>
<trkpt lat="33.810313" lon="-118.393867">
  <ele>-0.12</ele>
  <time>2026-09-02T22:12:36Z</time>
  <course>0.0</course>
  <speed>0.0</speed>
  <fix>3d</fix>
</trkpt>
<trkpt lat="33.810313" lon="-118.393867">
  <ele>-0.134</ele>
  <time>2026-09-02T22:12:36Z</time>
  <course>188.29</course>
  <speed>0.01414213562373095</speed>
  <fix>3d</fix>
</trkpt>
<trkpt lat="33.810313" lon="-118.393867">
  <ele>-0.12</ele>
  <time>2026-09-02T22:12:36Z</time>
  <course>0.0</course>
  <speed>0.0</speed>
  <fix>3d</fix>
</trkpt>
<trkpt lat="33.810313" lon="-118.393867">
  <ele>-0.132</ele>
  <time>2026-09-02T22:12:36Z</time>
  <course>188.28</course>
  <speed>0.01414213562373095</speed>
  <fix>3d</fix>
</trkpt>
<trkpt lat="33.810313" lon="-118.393867">
  <ele>-0.12</ele>
  <time>2026-09-02T22:12:36Z</time>
  <course>0.0</course>
  <speed>0.0</speed>
  <fix>3d</fix>
</trkpt>
<trkpt lat="33.810313" lon="-118.393867">
  <ele>-0.129</ele>
  <time>2026-09-02T22:12:36Z</time>
  <course>188.27</course>
  <speed>0.01414213562373095</speed>
  <fix>3d</fix>
</trkpt>
<trkpt lat="33.810313" lon="-118.393867">
  <ele>-0.12</ele>
  <time>2026-09-02T22:12:36Z</time>
  <course>0.0</course>
  <speed>0.0</speed>
  <fix>3d</fix>
</trkpt>
<trkpt lat="33.810313" lon="-118.393867">
  <ele>-0.127</ele>
  <time>2026-09-02T22:12:36Z</time>
  <course>188.26</course>
  <speed>0.01414213562373095</speed>
  <fix>3d</fix>
</trkpt>
<trkpt lat="33.810313" lon="-118.393867">
  <ele>-0.12</ele>
  <time>2026-09-02T22:12:36Z</time>
  <course>0.0</course>
  <speed>0.0</speed>
  <fix>3d</fix>
</trkpt>
<trkpt lat="33.810313" lon="-118.393867">
  <ele>-0.124</ele>
  <time>2026-09-02T22:12:36Z</time>
  <course>188.25</course>
  <speed>0.01414213562373095</speed>
  <fix>3d</fix>
</trkpt>
<trkpt lat="33.810313" lon="-118.393867">
  <ele>-0.12</ele>
  <time>2026-09-02T22:12:36Z</time>
  <course>0.0</course>
  <speed>0.0</speed>
  <fix>3d</fix>
</trkpt>
<trkpt lat="33.810313" lon="-118.393867">
  <ele>-0.123</ele>
  <time>2026-09-02T22:12:36Z</time>
  <course>188.25</course>
  <speed>0.01414213562373095</speed>
  <fix>3d</fix>
</trkpt>
<trkpt lat="33.810313" lon="-118.393867">
  <ele>-0.12</ele>
  <time>2026-09-02T22:12:36Z</time>
  <course>0.0</course>
  <speed>0.0</speed>
  <fix>3d</fix>
</trkpt>
<trkpt lat="33.810313" lon="-118.393867">
  <ele>-0.124</ele>
  <time>2026-09-02T22:12:36Z</time>
  <course>188.24</course>
  <speed>0.01414213562373095</speed>
  <fix>3d</fix>
</trkpt>
<trkpt lat="33.810313" lon="-118.393867">
  <ele>-0.12</ele>
  <time>2026-09-02T22:12:36Z</time>
  <course>0.0</course>
  <speed>0.0</speed>
  <fix>3d</fix>
</trkpt>
<trkpt lat="33.810313" lon="-118.393867">
  <ele>-0.126</ele>
  <time>2026-09-02T22:12:36Z</time>
  <course>188.23</course>
  <speed>0.01414213562373095</speed>
  <fix>3d</fix>
</trkpt>
<trkpt lat="33.810313" lon="-118.393867">
  <ele>-0.12</ele>
  <time>2026-09-02T22:12:36Z</time>
  <course>0.0</course>
  <speed>0.0</speed>
  <fix>3d</fix>
</trkpt>
<trkpt lat="33.810313" lon="-118.393867">
  <ele>-0.127</ele>
  <time>2026-09-02T22:12:36Z</time>
  <course>188.22</course>
  <speed>0.01414213562373095</speed>
  <fix>3d</fix>
</trkpt>
<trkpt lat="33.810313" lon="-118.393867">
  <ele>-0.12</ele>
  <time>2026-09-02T22:12:36Z</time>
  <course>0.0</course>
  <speed>0.0</speed>
  <fix>3d</fix>
</trkpt>
<trkpt lat="33.810313" lon="-118.393867">
  <ele>-0.129</ele>
  <time>2026-09-02T22:12:36Z</time>
  <course>188.21</course>
  <speed>0.01414213562373095</speed>
  <fix>3d</fix>
</trkpt>
<trkpt lat="33.810313" lon="-118.393867">
  <ele>-0.12</ele>
  <time>2026-09-02T22:12:36Z</time>
  <course>0.0</course>
  <speed>0.0</speed>
  <fix>3d</fix>
</trkpt>
<trkpt lat="33.810313" lon="-118.393867">
  <ele>-0.129</ele>
  <time>2026-09-02T22:12:36Z</time>
  <course>188.2</course>
  <speed>0.01414213562373095</speed>
  <fix>3d</fix>
</trkpt>
<trkpt lat="33.810313" lon="-118.393867">
  <ele>-0.12</ele>
  <time>2026-09-02T22:12:36Z</time>
  <course>0.0</course>
  <speed>0.0</speed>
  <fix>3d</fix>
</trkpt>
<trkpt lat="33.810313" lon="-118.393867">
  <ele>-0.129</ele>
  <time>2026-09-02T22:12:36Z</time>
  <course>188.2</course>
  <speed>0.01414213562373095</speed>
  <fix>3d</fix>
</trkpt>
<trkpt lat="33.810313" lon="-118.393867">
  <ele>-0.12</ele>
  <time>2026-09-02T22:12:36Z</time>
  <course>0.0</course>
  <speed>0.0</speed>
  <fix>3d</fix>
</trkpt>
<trkpt lat="33.810313" lon="-118.393867">
  <ele>-0.128</ele>
  <time>2026-09-02T22:12:36Z</time>
  <course>188.19</course>
  <speed>0.01414213562373095</speed>
  <fix>3d</fix>
</trkpt>
<trkpt lat="33.810313" lon="-118.393867">
  <ele>-0.12</ele>
  <time>2026-09-02T22:12:36Z</time>
  <course>0.0</course>
  <speed>0.0</speed>
  <fix>3d</fix>
</trkpt>
<trkpt lat="33.810313" lon="-118.393867">
  <ele>-0.128</ele>
  <time>2026-09-02T22:12:36Z</time>
  <course>188.18</course>
  <speed>0.01414213562373095</speed>
  <fix>3d</fix>
</trkpt>
<trkpt lat="33.810313" lon="-118.393867">
  <ele>-0.12</ele>
  <time>2026-09-02T22:12:36Z</time>
  <course>0.0</course>
  <speed>0.0</speed>
  <fix>3d</fix>
</trkpt>
<trkpt lat="33.810313" lon="-118.393867">
  <ele>-0.127</ele>
  <time>2026-09-02T22:12:36Z</time>
  <course>188.17</course>
  <speed>0.01414213562373095</speed>
  <fix>3d</fix>
</trkpt>
<trkpt lat="33.810313" lon="-118.393867">
  <ele>-0.12</ele>
  <time>2026-09-02T22:12:36Z</time>
  <course>0.0</course>
  <speed>0.0</speed>
  <fix>3d</fix>
</trkpt>
<trkpt lat="33.810313" lon="-118.393867">
  <ele>-0.127</ele>
  <time>2026-09-02T22:12:36Z</time>
  <course>188.16</course>
  <speed>0.01414213562373095</speed>
  <fix>3d</fix>
</trkpt>
<trkpt lat="33.810313" lon="-118.393867">
  <ele>-0.12</ele>
  <time>2026-09-02T22:12:36Z</time>
  <course>0.0</course>
  <speed>0.0</speed>
  <fix>3d</fix>
</trkpt>
<trkpt lat="33.810313" lon="-118.393867">
  <ele>-0.128</ele>
  <time>2026-09-02T22:12:36Z</time>
  <course>188.16</course>
  <speed>0.01414213562373095</speed>
  <fix>3d</fix>
</trkpt>
<trkpt lat="33.810313" lon="-118.393867">
  <ele>-0.12</ele>
  <time>2026-09-02T22:12:36Z</time>
  <course>0.0</course>
  <speed>0.0</speed>
  <fix>3d</fix>
</trkpt>
<trkpt lat="33.810313" lon="-118.393867">
  <ele>-0.129</ele>
  <time>2026-09-02T22:12:36Z</time>
  <course>188.15</course>
  <speed>0.01414213562373095</speed>
  <fix>3d</fix>
</trkpt>
<trkpt lat="33.810313" lon="-118.393867">
  <ele>-0.12</ele>
  <time>2026-09-02T22:12:36Z</time>
  <course>0.0</course>
  <speed>0.0</speed>
  <fix>3d</fix>
</trkpt>
<trkpt lat="33.810313" lon="-118.393867">
  <ele>-0.131</ele>
  <time>2026-09-02T22:12:36Z</time>
  <course>188.14</course>
  <speed>0.01414213562373095</speed>
  <fix>3d</fix>
</trkpt>
<trkpt lat="33.810313" lon="-118.393867">
  <ele>-0.12</ele>
  <time>2026-09-02T22:12:36Z</time>
  <course>0.0</course>
  <speed>0.0</speed>
  <fix>3d</fix>
</trkpt>
<trkpt lat="33.810313" lon="-118.393867">
  <ele>-0.133</ele>
  <time>2026-09-02T22:12:36Z</time>
  <course>188.13</course>
  <speed>0.01414213562373095</speed>
  <fix>3d</fix>
</trkpt>
<trkpt lat="33.810313" lon="-118.393867">
  <ele>-0.12</ele>
  <time>2026-09-02T22:12:36Z</time>
  <course>0.0</course>
  <speed>0.0</speed>
  <fix>3d</fix>
</trkpt>
<trkpt lat="33.810313" lon="-118.393867">
  <ele>-0.135</ele>
  <time>2026-09-02T22:12:36Z</time>
  <course>188.12</course>
  <speed>0.01414213562373095</speed>
  <fix>3d</fix>
</trkpt>
<trkpt lat="33.810313" lon="-118.393867">
  <ele>-0.12</ele>
  <time>2026-09-02T22:12:36Z</time>
  <course>0.0</course>
  <speed>0.0</speed>
  <fix>3d</fix>
</trkpt>
<trkpt lat="33.810313" lon="-118.393867">
  <ele>-0.136</ele>
  <time>2026-09-02T22:12:36Z</time>
  <course>188.12</course>
  <speed>0.01414213562373095</speed>
  <fix>3d</fix>
</trkpt>
<trkpt lat="33.810313" lon="-118.393867">
  <ele>-0.12</ele>
  <time>2026-09-02T22:12:36Z</time>
  <course>0.0</course>
  <speed>0.0</speed>
  <fix>3d</fix>
</trkpt>
<trkpt lat="33.810313" lon="-118.393867">
  <ele>-0.136</ele>
  <time>2026-09-02T22:12:36Z</time>
  <course>188.11</course>
  <speed>0.01414213562373095</speed>
  <fix>3d</fix>
</trkpt>
<trkpt lat="33.810313" lon="-118.393867">
  <ele>-0.12</ele>
  <time>2026-09-02T22:12:36Z</time>
  <course>0.0</course>
  <speed>0.0</speed>
  <fix>3d</fix>
</trkpt>
<trkpt lat="33.810313" lon="-118.393867">
  <ele>-0.136</ele>
  <time>2026-09-02T22:12:36Z</time>
  <course>188.1</course>
  <speed>0.01414213562373095</speed>
  <fix>3d</fix>
</trkpt>
<trkpt lat="33.810313" lon="-118.393867">
  <ele>-0.12</ele>
  <time>2026-09-02T22:12:36Z</time>
  <course>0.0</course>
  <speed>0.0</speed>
  <fix>3d</fix>
</trkpt>
<trkpt lat="33.810313" lon="-118.393867">
  <ele>-0.135</ele>
  <time>2026-09-02T22:12:36Z</time>
  <course>188.09</course>
  <speed>0.01414213562373095</speed>
  <fix>3d</fix>
</trkpt>
<trkpt lat="33.810313" lon="-118.393867">
  <ele>-0.12</ele>
  <time>2026-09-02T22:12:36Z</time>
  <course>0.0</course>
  <speed>0.0</speed>
  <fix>3d</fix>
</trkpt>
<trkpt lat="33.810313" lon="-118.393867">
  <ele>-0.133</ele>
  <time>2026-09-02T22:12:36Z</time>
  <course>188.08</course>
  <speed>0.01414213562373095</speed>
  <fix>3d</fix>
</trkpt>
<trkpt lat="33.810313" lon="-118.393867">
  <ele>-0.12</ele>
  <time>2026-09-02T22:12:36Z</time>
  <course>0.0</course>
  <speed>0.0</speed>
  <fix>3d</fix>
</trkpt>
<trkpt lat="33.810313" lon="-118.393867">
  <ele>-0.131</ele>
  <time>2026-09-02T22:12:36Z</time>
  <course>188.07</course>
  <speed>0.022360679774997897</speed>
  <fix>3d</fix>
</trkpt>
<trkpt lat="33.810313" lon="-118.393867">
  <ele>-0.12</ele>
  <time>2026-09-02T22:12:36Z</time>
  <course>0.0</course>
  <speed>0.0</speed>
  <fix>3d</fix>
</trkpt>
<trkpt lat="33.810313" lon="-118.393867">
  <ele>-0.128</ele>
  <time>2026-09-02T22:12:36Z</time>
  <course>188.07</course>
  <speed>0.022360679774997897</speed>
  <fix>3d</fix>
</trkpt>
<trkpt lat="33.810313" lon="-118.393867">
  <ele>-0.12</ele>
  <time>2026-09-02T22:12:36Z</time>
  <course>0.0</course>
  <speed>0.0</speed>
  <fix>3d</fix>
</trkpt>
<trkpt lat="33.810313" lon="-118.393867">
  <ele>-0.126</ele>
  <time>2026-09-02T22:12:36Z</time>
  <course>188.06</course>
  <speed>0.022360679774997897</speed>
  <fix>3d</fix>
</trkpt>
<trkpt lat="33.810313" lon="-118.393867">
  <ele>-0.12</ele>
  <time>2026-09-02T22:12:36Z</time>
  <course>0.0</course>
  <speed>0.0</speed>
  <fix>3d</fix>
</trkpt>
<trkpt lat="33.810313" lon="-118.393867">
  <ele>-0.126</ele>
  <time>2026-09-02T22:12:36Z</time>
  <course>188.05</course>
  <speed>0.022360679774997897</speed>
  <fix>3d</fix>
</trkpt>
<trkpt lat="33.810313" lon="-118.393867">
  <ele>-0.12</ele>
  <time>2026-09-02T22:12:36Z</time>
  <course>0.0</course>
  <speed>0.0</speed>
  <fix>3d</fix>
</trkpt>
<trkpt lat="33.810313" lon="-118.393867">
  <ele>-0.126</ele>
  <time>2026-09-02T22:12:36Z</time>
  <course>188.04</course>
  <speed>0.022360679774997897</speed>
  <fix>3d</fix>
</trkpt>
<trkpt lat="33.810313" lon="-118.393867">
  <ele>-0.12</ele>
  <time>2026-09-02T22:12:36Z</time>
  <course>0.0</course>
  <speed>0.0</speed>
  <fix>3d</fix>
</trkpt>
<trkpt lat="33.810313" lon="-118.393867">
  <ele>-0.127</ele>
  <time>2026-09-02T22:12:36Z</time>
  <course>188.03</course>
  <speed>0.022360679774997897</speed>
  <fix>3d</fix>
</trkpt>
<trkpt lat="33.810313" lon="-118.393867">
  <ele>-0.12</ele>
  <time>2026-09-02T22:12:36Z</time>
  <course>0.0</course>
  <speed>0.0</speed>
  <fix>3d</fix>
</trkpt>
<trkpt lat="33.810313" lon="-118.393867">
  <ele>-0.127</ele>
  <time>2026-09-02T22:12:36Z</time>
  <course>188.02</course>
  <speed>0.022360679774997897</speed>
  <fix>3d</fix>
</trkpt>
<trkpt lat="33.810313" lon="-118.393867">
  <ele>-0.12</ele>
  <time>2026-09-02T22:12:36Z</time>
  <course>0.0</course>
  <speed>0.0</speed>
  <fix>3d</fix>
</trkpt>
<trkpt lat="33.810313" lon="-118.393867">
  <ele>-0.127</ele>
  <time>2026-09-02T22:12:36Z</time>
  <course>188.02</course>
  <speed>0.022360679774997897</speed>
  <fix>3d</fix>
</trkpt>
<trkpt lat="33.810313" lon="-118.393867">
  <ele>-0.12</ele>
  <time>2026-09-02T22:12:36Z</time>
  <course>0.0</course>
  <speed>0.0</speed>
  <fix>3d</fix>
</trkpt>
<trkpt lat="33.810313" lon="-118.393867">
  <ele>-0.128</ele>
  <time>2026-09-02T22:12:36Z</time>
  <course>188.01</course>
  <speed>0.022360679774997897</speed>
  <fix>3d</fix>
</trkpt>
<trkpt lat="33.810313" lon="-118.393867">
  <ele>-0.12</ele>
  <time>2026-09-02T22:12:36Z</time>
  <course>0.0</course>
  <speed>0.0</speed>
  <fix>3d</fix>
</trkpt>
<trkpt lat="33.810313" lon="-118.393867">
  <ele>-0.128</ele>
  <time>2026-09-02T22:12:36Z</time>
  <course>188.0</course>
  <speed>0.022360679774997897</speed>
  <fix>3d</fix>
</trkpt>
<trkpt lat="33.810313" lon="-118.393867">
  <ele>-0.12</ele>
  <time>2026-09-02T22:12:36Z</time>
  <course>0.0</course>
  <speed>0.0</speed>
  <fix>3d</fix>
</trkpt>
<trkpt lat="33.810313" lon="-118.393867">
  <ele>-0.127</ele>
  <time>2026-09-02T22:12:36Z</time>
  <course>187.99</course>
  <speed>0.022360679774997897</speed>
  <fix>3d</fix>
</trkpt>
<trkpt lat="33.810313" lon="-118.393867">
  <ele>-0.12</ele>
  <time>2026-09-02T22:12:36Z</time>
  <course>0.0</course>
  <speed>0.0</speed>
  <fix>3d</fix>
</trkpt>
<trkpt lat="33.810313" lon="-118.393867">
  <ele>-0.126</ele>
  <time>2026-09-02T22:12:36Z</time>
  <course>187.98</course>
  <speed>0.022360679774997897</speed>
  <fix>3d</fix>
</trkpt>
<trkpt lat="33.810313" lon="-118.393867">
  <ele>-0.12</ele>
  <time>2026-09-02T22:12:36Z</time>
  <course>0.0</course>
  <speed>0.0</speed>
  <fix>3d</fix>
</trkpt>
<trkpt lat="33.810313" lon="-118.393867">
  <ele>-0.123</ele>
  <time>2026-09-02T22:12:36Z</time>
  <course>187.98</course>
  <speed>0.022360679774997897</speed>
  <fix>3d</fix>
</trkpt>
<trkpt lat="33.810313" lon="-118.393867">
  <ele>-0.12</ele>
  <time>2026-09-02T22:12:36Z</time>
  <course>0.0</course>
  <speed>0.0</speed>
  <fix>3d</fix>
</trkpt>
<trkpt lat="33.810313" lon="-118.393867">
  <ele>-0.121</ele>
  <time>2026-09-02T22:12:36Z</time>
  <course>187.97</course>
  <speed>0.022360679774997897</speed>
  <fix>3d</fix>
</trkpt>
<trkpt lat="33.810313" lon="-118.393867">
  <ele>-0.12</ele>
  <time>2026-09-02T22:12:36Z</time>
  <course>0.0</course>
  <speed>0.0</speed>
  <fix>3d</fix>
</trkpt>
<trkpt lat="33.810313" lon="-118.393867">
  <ele>-0.12</ele>
  <time>2026-09-02T22:12:36Z</time>
  <course>187.96</course>
  <speed>0.022360679774997897</speed>
  <fix>3d</fix>
</trkpt>
<trkpt lat="33.810313" lon="-118.393867">
  <ele>-0.12</ele>
  <time>2026-09-02T22:12:36Z</time>
  <course>0.0</course>
  <speed>0.0</speed>
  <fix>3d</fix>
</trkpt>
<trkpt lat="33.810313" lon="-118.393867">
  <ele>-0.12</ele>
  <time>2026-09-02T22:12:36Z</time>
  <course>187.95</course>
  <speed>0.022360679774997897</speed>
  <fix>3d</fix>
</trkpt>
<trkpt lat="33.810313" lon="-118.393867">
  <ele>-0.12</ele>
  <time>2026-09-02T22:12:36Z</time>
  <course>0.0</course>
  <speed>0.0</speed>
  <fix>3d</fix>
</trkpt>
<trkpt lat="33.810313" lon="-118.393867">
  <ele>-0.122</ele>
  <time>2026-09-02T22:12:36Z</time>
  <course>187.94</course>
  <speed>0.022360679774997897</speed>
  <fix>3d</fix>
</trkpt>
<trkpt lat="33.810313" lon="-118.393867">
  <ele>-0.12</ele>
  <time>2026-09-02T22:12:36Z</time>
  <course>0.0</course>
  <speed>0.0</speed>
  <fix>3d</fix>
</trkpt>
<trkpt lat="33.810313" lon="-118.393867">
  <ele>-0.125</ele>
  <time>2026-09-02T22:12:36Z</time>
  <course>187.94</course>
  <speed>0.022360679774997897</speed>
  <fix>3d</fix>
</trkpt>
<trkpt lat="33.810313" lon="-118.393867">
  <ele>-0.12</ele>
  <time>2026-09-02T22:12:36Z</time>
  <course>0.0</course>
  <speed>0.0</speed>
  <fix>3d</fix>
</trkpt>
<trkpt lat="33.810313" lon="-118.393867">
  <ele>-0.129</ele>
  <time>2026-09-02T22:12:36Z</time>
  <course>187.93</course>
  <speed>0.022360679774997897</speed>
  <fix>3d</fix>
</trkpt>
<trkpt lat="33.810313" lon="-118.393867">
  <ele>-0.12</ele>
  <time>2026-09-02T22:12:36Z</time>
  <course>0.0</course>
  <speed>0.0</speed>
  <fix>3d</fix>
</trkpt>
<trkpt lat="33.810313" lon="-118.393867">
  <ele>-0.131</ele>
  <time>2026-09-02T22:12:36Z</time>
  <course>187.92</course>
  <speed>0.022360679774997897</speed>
  <fix>3d</fix>
</trkpt>
<trkpt lat="33.810313" lon="-118.393867">
  <ele>-0.12</ele>
  <time>2026-09-02T22:12:36Z</time>
  <course>0.0</course>
  <speed>0.0</speed>
  <fix>3d</fix>
</trkpt>
<trkpt lat="33.810313" lon="-118.393867">
  <ele>-0.132</ele>
  <time>2026-09-02T22:12:36Z</time>
  <course>187.91</course>
  <speed>0.022360679774997897</speed>
  <fix>3d</fix>
</trkpt>
<trkpt lat="33.810313" lon="-118.393867">
  <ele>-0.12</ele>
  <time>2026-09-02T22:12:36Z</time>
  <course>0.0</course>
  <speed>0.0</speed>
  <fix>3d</fix>
</trkpt>
<trkpt lat="33.810313" lon="-118.393867">
  <ele>-0.132</ele>
  <time>2026-09-02T22:12:36Z</time>
  <course>187.9</course>
  <speed>0.022360679774997897</speed>
  <fix>3d</fix>
</trkpt>
<trkpt lat="33.810313" lon="-118.393867">
  <ele>-0.12</ele>
  <time>2026-09-02T22:12:36Z</time>
  <course>0.0</course>
  <speed>0.0</speed>
  <fix>3d</fix>
</trkpt>
<trkpt lat="33.810313" lon="-118.393867">
  <ele>-0.132</ele>
  <time>2026-09-02T22:12:36Z</time>
  <course>187.9</course>
  <speed>0.022360679774997897</speed>
  <fix>3d</fix>
</trkpt>
<trkpt lat="33.810313" lon="-118.393867">
  <ele>-0.12</ele>
  <time>2026-09-02T22:12:36Z</time>
  <course>0.0</course>
  <speed>0.0</speed>
  <fix>3d</fix>
</trkpt>
<trkpt lat="33.810313" lon="-118.393867">
  <ele>-0.13</ele>
  <time>2026-09-02T22:12:37Z</time>
  <course>187.89</course>
  <speed>0.022360679774997897</speed>
  <fix>3d</fix>
</trkpt>
<trkpt lat="33.810313" lon="-118.393867">
  <ele>-0.12</ele>
  <time>2026-09-02T22:12:37Z</time>
  <course>0.0</course>
  <speed>0.0</speed>
  <fix>3d</fix>
</trkpt>
<trkpt lat="33.810313" lon="-118.393867">
  <ele>-0.127</ele>
  <time>2026-09-02T22:12:37Z</time>
  <course>187.88</course>
  <speed>0.022360679774997897</speed>
  <fix>3d</fix>
</trkpt>
<trkpt lat="33.810313" lon="-118.393867">
  <ele>-0.12</ele>
  <time>2026-09-02T22:12:37Z</time>
  <course>0.0</course>
  <speed>0.0</speed>
  <fix>3d</fix>
</trkpt>
<trkpt lat="33.810313" lon="-118.393867">
  <ele>-0.123</ele>
  <time>2026-09-02T22:12:37Z</time>
  <course>187.87</course>
  <speed>0.022360679774997897</speed>
  <fix>3d</fix>
</trkpt>
<trkpt lat="33.810313" lon="-118.393867">
  <ele>-0.12</ele>
  <time>2026-09-02T22:12:37Z</time>
  <course>0.0</course>
  <speed>0.0</speed>
  <fix>3d</fix>
</trkpt>
<trkpt lat="33.810313" lon="-118.393867">
  <ele>-0.121</ele>
  <time>2026-09-02T22:12:37Z</time>
  <course>187.86</course>
  <speed>0.022360679774997897</speed>
  <fix>3d</fix>
</trkpt>
<trkpt lat="33.810313" lon="-118.393867">
  <ele>-0.12</ele>
  <time>2026-09-02T22:12:37Z</time>
  <course>0.0</course>
  <speed>0.0</speed>
  <fix>3d</fix>
</trkpt>
<trkpt lat="33.810313" lon="-118.393867">
  <ele>-0.121</ele>
  <time>2026-09-02T22:12:37Z</time>
  <course>187.86</course>
  <speed>0.022360679774997897</speed>
  <fix>3d</fix>
</trkpt>
<trkpt lat="33.810313" lon="-118.393867">
  <ele>-0.12</ele>
  <time>2026-09-02T22:12:37Z</time>
  <course>0.0</course>
  <speed>0.0</speed>
  <fix>3d</fix>
</trkpt>
<trkpt lat="33.810313" lon="-118.393867">
  <ele>-0.123</ele>
  <time>2026-09-02T22:12:37Z</time>
  <course>187.85</course>
  <speed>0.022360679774997897</speed>
  <fix>3d</fix>
</trkpt>
<trkpt lat="33.810313" lon="-118.393867">
  <ele>-0.12</ele>
  <time>2026-09-02T22:12:37Z</time>
  <course>0.0</course>
  <speed>0.0</speed>
  <fix>3d</fix>
</trkpt>
<trkpt lat="33.810313" lon="-118.393867">
  <ele>-0.124</ele>
  <time>2026-09-02T22:12:37Z</time>
  <course>187.84</course>
  <speed>0.022360679774997897</speed>
  <fix>3d</fix>
</trkpt>
<trkpt lat="33.810313" lon="-118.393867">
  <ele>-0.12</ele>
  <time>2026-09-02T22:12:37Z</time>
  <course>0.0</course>
  <speed>0.0</speed>
  <fix>3d</fix>
</trkpt>
<trkpt lat="33.810313" lon="-118.393867">
  <ele>-0.126</ele>
  <time>2026-09-02T22:12:37Z</time>
  <course>187.83</course>
  <speed>0.022360679774997897</speed>
  <fix>3d</fix>
</trkpt>
<trkpt lat="33.810313" lon="-118.393867">
  <ele>-0.12</ele>
  <time>2026-09-02T22:12:37Z</time>
  <course>0.0</course>
  <speed>0.0</speed>
  <fix>3d</fix>
</trkpt>
<trkpt lat="33.810313" lon="-118.393867">
  <ele>-0.127</ele>
  <time>2026-09-02T22:12:37Z</time>
  <course>187.83</course>
  <speed>0.022360679774997897</speed>
  <fix>3d</fix>
</trkpt>
<trkpt lat="33.810313" lon="-118.393867">
  <ele>-0.12</ele>
  <time>2026-09-02T22:12:37Z</time>
  <course>0.0</course>
  <speed>0.0</speed>
  <fix>3d</fix>
</trkpt>
<trkpt lat="33.810313" lon="-118.393867">
  <ele>-0.127</ele>
  <time>2026-09-02T22:12:37Z</time>
  <course>187.82</course>
  <speed>0.022360679774997897</speed>
  <fix>3d</fix>
</trkpt>
<trkpt lat="33.810313" lon="-118.393867">
  <ele>-0.12</ele>
  <time>2026-09-02T22:12:37Z</time>
  <course>0.0</course>
  <speed>0.0</speed>
  <fix>3d</fix>
</trkpt>
<trkpt lat="33.810313" lon="-118.393867">
  <ele>-0.127</ele>
  <time>2026-09-02T22:12:37Z</time>
  <course>187.81</course>
  <speed>0.022360679774997897</speed>
  <fix>3d</fix>
</trkpt>
<trkpt lat="33.810313" lon="-118.393867">
  <ele>-0.12</ele>
  <time>2026-09-02T22:12:37Z</time>
  <course>0.0</course>
  <speed>0.0</speed>
  <fix>3d</fix>
</trkpt>
<trkpt lat="33.810313" lon="-118.393867">
  <ele>-0.126</ele>
  <time>2026-09-02T22:12:37Z</time>
  <course>187.8</course>
  <speed>0.022360679774997897</speed>
  <fix>3d</fix>
</trkpt>
<trkpt lat="33.810313" lon="-118.393867">
  <ele>-0.12</ele>
  <time>2026-09-02T22:12:37Z</time>
  <course>0.0</course>
  <speed>0.0</speed>
  <fix>3d</fix>
</trkpt>
<trkpt lat="33.810313" lon="-118.393867">
  <ele>-0.124</ele>
  <time>2026-09-02T22:12:37Z</time>
  <course>187.8</course>
  <speed>0.022360679774997897</speed>
  <fix>3d</fix>
</trkpt>
<trkpt lat="33.810313" lon="-118.393867">
  <ele>-0.12</ele>
  <time>2026-09-02T22:12:37Z</time>
  <course>0.0</course>
  <speed>0.0</speed>
  <fix>3d</fix>
</trkpt>
<trkpt lat="33.810313" lon="-118.393867">
  <ele>-0.121</ele>
  <time>2026-09-02T22:12:37Z</time>
  <course>187.79</course>
  <speed>0.022360679774997897</speed>
  <fix>3d</fix>
</trkpt>
<trkpt lat="33.810313" lon="-118.393867">
  <ele>-0.12</ele>
  <time>2026-09-02T22:12:37Z</time>
  <course>0.0</course>
  <speed>0.0</speed>
  <fix>3d</fix>
</trkpt>
<trkpt lat="33.810313" lon="-118.393867">
  <ele>-0.119</ele>
  <time>2026-09-02T22:12:37Z</time>
  <course>187.78</course>
  <speed>0.022360679774997897</speed>
  <fix>3d</fix>
</trkpt>
<trkpt lat="33.810313" lon="-118.393867">
  <ele>-0.12</ele>
  <time>2026-09-02T22:12:37Z</time>
  <course>0.0</course>
  <speed>0.0</speed>
  <fix>3d</fix>
</trkpt>
<trkpt lat="33.810313" lon="-118.393867">
  <ele>-0.118</ele>
  <time>2026-09-02T22:12:37Z</time>
  <course>187.77</course>
  <speed>0.022360679774997897</speed>
  <fix>3d</fix>
</trkpt>
<trkpt lat="33.810313" lon="-118.393867">
  <ele>-0.12</ele>
  <time>2026-09-02T22:12:37Z</time>
  <course>0.0</course>
  <speed>0.0</speed>
  <fix>3d</fix>
</trkpt>
<trkpt lat="33.810313" lon="-118.393867">
  <ele>-0.118</ele>
  <time>2026-09-02T22:12:37Z</time>
  <course>187.76</course>
  <speed>0.022360679774997897</speed>
  <fix>3d</fix>
</trkpt>
<trkpt lat="33.810313" lon="-118.393867">
  <ele>-0.12</ele>
  <time>2026-09-02T22:12:37Z</time>
  <course>0.0</course>
  <speed>0.0</speed>
  <fix>3d</fix>
</trkpt>
<trkpt lat="33.810313" lon="-118.393867">
  <ele>-0.119</ele>
  <time>2026-09-02T22:12:37Z</time>
  <course>187.76</course>
  <speed>0.022360679774997897</speed>
  <fix>3d</fix>
</trkpt>
<trkpt lat="33.810313" lon="-118.393867">
  <ele>-0.12</ele>
  <time>2026-09-02T22:12:37Z</time>
  <course>0.0</course>
  <speed>0.0</speed>
  <fix>3d</fix>
</trkpt>
<trkpt lat="33.810313" lon="-118.393867">
  <ele>-0.12</ele>
  <time>2026-09-02T22:12:37Z</time>
  <course>187.75</course>
  <speed>0.022360679774997897</speed>
  <fix>3d</fix>
</trkpt>
<trkpt lat="33.810313" lon="-118.393867">
  <ele>-0.12</ele>
  <time>2026-09-02T22:12:37Z</time>
  <course>0.0</course>
  <speed>0.0</speed>
  <fix>3d</fix>
</trkpt>
<trkpt lat="33.810313" lon="-118.393867">
  <ele>-0.12</ele>
  <time>2026-09-02T22:12:37Z</time>
  <course>187.74</course>
  <speed>0.0282842712474619</speed>
  <fix>3d</fix>
</trkpt>
<trkpt lat="33.810313" lon="-118.393867">
  <ele>-0.12</ele>
  <time>2026-09-02T22:12:37Z</time>
  <course>0.0</course>
  <speed>0.0</speed>
  <fix>3d</fix>
</trkpt>
<trkpt lat="33.810313" lon="-118.393867">
  <ele>-0.12</ele>
  <time>2026-09-02T22:12:37Z</time>
  <course>187.74</course>
  <speed>0.0282842712474619</speed>
  <fix>3d</fix>
</trkpt>
<trkpt lat="33.810313" lon="-118.393867">
  <ele>-0.12</ele>
  <time>2026-09-02T22:12:37Z</time>
  <course>0.0</course>
  <speed>0.0</speed>
  <fix>3d</fix>
</trkpt>
<trkpt lat="33.810313" lon="-118.393867">
  <ele>-0.119</ele>
  <time>2026-09-02T22:12:37Z</time>
  <course>187.73</course>
  <speed>0.0282842712474619</speed>
  <fix>3d</fix>
</trkpt>
<trkpt lat="33.810313" lon="-118.393867">
  <ele>-0.12</ele>
  <time>2026-09-02T22:12:37Z</time>
  <course>0.0</course>
  <speed>0.0</speed>
  <fix>3d</fix>
</trkpt>
<trkpt lat="33.810313" lon="-118.393867">
  <ele>-0.118</ele>
  <time>2026-09-02T22:12:37Z</time>
  <course>187.72</course>
  <speed>0.0282842712474619</speed>
  <fix>3d</fix>
</trkpt>
<trkpt lat="33.810313" lon="-118.393867">
  <ele>-0.12</ele>
  <time>2026-09-02T22:12:37Z</time>
  <course>0.0</course>
  <speed>0.0</speed>
  <fix>3d</fix>
</trkpt>
<trkpt lat="33.810313" lon="-118.393867">
  <ele>-0.116</ele>
  <time>2026-09-02T22:12:37Z</time>
  <course>187.71</course>
  <speed>0.0282842712474619</speed>
  <fix>3d</fix>
</trkpt>
<trkpt lat="33.810313" lon="-118.393867">
  <ele>-0.12</ele>
  <time>2026-09-02T22:12:37Z</time>
  <course>0.0</course>
  <speed>0.0</speed>
  <fix>3d</fix>
</trkpt>
<trkpt lat="33.810313" lon="-118.393867">
  <ele>-0.113</ele>
  <time>2026-09-02T22:12:37Z</time>
  <course>187.71</course>
  <speed>0.0282842712474619</speed>
  <fix>3d</fix>
</trkpt>
<trkpt lat="33.810313" lon="-118.393867">
  <ele>-0.12</ele>
  <time>2026-09-02T22:12:37Z</time>
  <course>0.0</course>
  <speed>0.0</speed>
  <fix>3d</fix>
</trkpt>
<trkpt lat="33.810313" lon="-118.393867">
  <ele>-0.112</ele>
  <time>2026-09-02T22:12:37Z</time>
  <course>187.7</course>
  <speed>0.0282842712474619</speed>
  <fix>3d</fix>
</trkpt>
<trkpt lat="33.810313" lon="-118.393867">
  <ele>-0.12</ele>
  <time>2026-09-02T22:12:37Z</time>
  <course>0.0</course>
  <speed>0.0</speed>
  <fix>3d</fix>
</trkpt>
<trkpt lat="33.810313" lon="-118.393867">
  <ele>-0.113</ele>
  <time>2026-09-02T22:12:37Z</time>
  <course>187.69</course>
  <speed>0.0282842712474619</speed>
  <fix>3d</fix>
</trkpt>
<trkpt lat="33.810313" lon="-118.393867">
  <ele>-0.12</ele>
  <time>2026-09-02T22:12:37Z</time>
  <course>0.0</course>
  <speed>0.0</speed>
  <fix>3d</fix>
</trkpt>
<trkpt lat="33.810313" lon="-118.393867">
  <ele>-0.115</ele>
  <time>2026-09-02T22:12:37Z</time>
  <course>187.68</course>
  <speed>0.0282842712474619</speed>
  <fix>3d</fix>
</trkpt>
<trkpt lat="33.810313" lon="-118.393867">
  <ele>-0.12</ele>
  <time>2026-09-02T22:12:37Z</time>
  <course>0.0</course>
  <speed>0.0</speed>
  <fix>3d</fix>
</trkpt>
<trkpt lat="33.810313" lon="-118.393867">
  <ele>-0.119</ele>
  <time>2026-09-02T22:12:37Z</time>
  <course>187.68</course>
  <speed>0.0282842712474619</speed>
  <fix>3d</fix>
</trkpt>
<trkpt lat="33.810313" lon="-118.393867">
  <ele>-0.12</ele>
  <time>2026-09-02T22:12:37Z</time>
  <course>0.0</course>
  <speed>0.0</speed>
  <fix>3d</fix>
</trkpt>
<trkpt lat="33.810313" lon="-118.393867">
  <ele>-0.124</ele>
  <time>2026-09-02T22:12:37Z</time>
  <course>187.67</course>
  <speed>0.0282842712474619</speed>
  <fix>3d</fix>
</trkpt>
<trkpt lat="33.810313" lon="-118.393867">
  <ele>-0.12</ele>
  <time>2026-09-02T22:12:37Z</time>
  <course>0.0</course>
  <speed>0.0</speed>
  <fix>3d</fix>
</trkpt>
<trkpt lat="33.810313" lon="-118.393867">
  <ele>-0.129</ele>
  <time>2026-09-02T22:12:37Z</time>
  <course>187.66</course>
  <speed>0.0282842712474619</speed>
  <fix>3d</fix>
</trkpt>
<trkpt lat="33.810313" lon="-118.393867">
  <ele>-0.12</ele>
  <time>2026-09-02T22:12:37Z</time>
  <course>0.0</course>
  <speed>0.0</speed>
  <fix>3d</fix>
</trkpt>
<trkpt lat="33.810313" lon="-118.393867">
  <ele>-0.133</ele>
  <time>2026-09-02T22:12:37Z</time>
  <course>187.66</course>
  <speed>0.0282842712474619</speed>
  <fix>3d</fix>
</trkpt>
<trkpt lat="33.810313" lon="-118.393867">
  <ele>-0.12</ele>
  <time>2026-09-02T22:12:37Z</time>
  <course>0.0</course>
  <speed>0.0</speed>
  <fix>3d</fix>
</trkpt>
<trkpt lat="33.810313" lon="-118.393867">
  <ele>-0.135</ele>
  <time>2026-09-02T22:12:37Z</time>
  <course>187.65</course>
  <speed>0.0282842712474619</speed>
  <fix>3d</fix>
</trkpt>
<trkpt lat="33.810313" lon="-118.393867">
  <ele>-0.12</ele>
  <time>2026-09-02T22:12:37Z</time>
  <course>0.0</course>
  <speed>0.0</speed>
  <fix>3d</fix>
</trkpt>
<trkpt lat="33.810313" lon="-118.393867">
  <ele>-0.135</ele>
  <time>2026-09-02T22:12:37Z</time>
  <course>187.64</course>
  <speed>0.0282842712474619</speed>
  <fix>3d</fix>
</trkpt>
<trkpt lat="33.810313" lon="-118.393867">
  <ele>-0.12</ele>
  <time>2026-09-02T22:12:37Z</time>
  <course>0.0</course>
  <speed>0.0</speed>
  <fix>3d</fix>
</trkpt>
<trkpt lat="33.810313" lon="-118.393867">
  <ele>-0.135</ele>
  <time>2026-09-02T22:12:37Z</time>
  <course>187.64</course>
  <speed>0.0282842712474619</speed>
  <fix>3d</fix>
</trkpt>
<trkpt lat="33.810313" lon="-118.393867">
  <ele>-0.12</ele>
  <time>2026-09-02T22:12:37Z</time>
  <course>0.0</course>
  <speed>0.0</speed>
  <fix>3d</fix>
</trkpt>
<trkpt lat="33.810313" lon="-118.393867">
  <ele>-0.133</ele>
  <time>2026-09-02T22:12:37Z</time>
  <course>187.63</course>
  <speed>0.0282842712474619</speed>
  <fix>3d</fix>
</trkpt>
<trkpt lat="33.810313" lon="-118.393867">
  <ele>-0.12</ele>
  <time>2026-09-02T22:12:37Z</time>
  <course>0.0</course>
  <speed>0.0</speed>
  <fix>3d</fix>
</trkpt>
<trkpt lat="33.810313" lon="-118.393867">
  <ele>-0.132</ele>
  <time>2026-09-02T22:12:37Z</time>
  <course>187.63</course>
  <speed>0.03605551275463989</speed>
  <fix>3d</fix>
</trkpt>
<trkpt lat="33.810313" lon="-118.393867">
  <ele>-0.12</ele>
  <time>2026-09-02T22:12:37Z</time>
  <course>0.0</course>
  <speed>0.0</speed>
  <fix>3d</fix>
</trkpt>
<trkpt lat="33.810313" lon="-118.393867">
  <ele>-0.132</ele>
  <time>2026-09-02T22:12:37Z</time>
  <course>187.62</course>
  <speed>0.03605551275463989</speed>
  <fix>3d</fix>
</trkpt>
<trkpt lat="33.810313" lon="-118.393867">
  <ele>-0.12</ele>
  <time>2026-09-02T22:12:37Z</time>
  <course>0.0</course>
  <speed>0.0</speed>
  <fix>3d</fix>
</trkpt>
<trkpt lat="33.810313" lon="-118.393867">
  <ele>-0.133</ele>
  <time>2026-09-02T22:12:37Z</time>
  <course>187.61</course>
  <speed>0.03605551275463989</speed>
  <fix>3d</fix>
</trkpt>
<trkpt lat="33.810313" lon="-118.393867">
  <ele>-0.12</ele>
  <time>2026-09-02T22:12:37Z</time>
  <course>0.0</course>
  <speed>0.0</speed>
  <fix>3d</fix>
</trkpt>
<trkpt lat="33.810313" lon="-118.393867">
  <ele>-0.133</ele>
  <time>2026-09-02T22:12:37Z</time>
  <course>187.6</course>
  <speed>0.03605551275463989</speed>
  <fix>3d</fix>
</trkpt>
<trkpt lat="33.810313" lon="-118.393867">
  <ele>-0.12</ele>
  <time>2026-09-02T22:12:37Z</time>
  <course>0.0</course>
  <speed>0.0</speed>
  <fix>3d</fix>
</trkpt>
<trkpt lat="33.810313" lon="-118.393867">
  <ele>-0.134</ele>
  <time>2026-09-02T22:12:37Z</time>
  <course>187.6</course>
  <speed>0.03605551275463989</speed>
  <fix>3d</fix>
</trkpt>
<trkpt lat="33.810313" lon="-118.393867">
  <ele>-0.12</ele>
  <time>2026-09-02T22:12:37Z</time>
  <course>0.0</course>
  <speed>0.0</speed>
  <fix>3d</fix>
</trkpt>
<trkpt lat="33.810313" lon="-118.393867">
  <ele>-0.133</ele>
  <time>2026-09-02T22:12:37Z</time>
  <course>187.59</course>
  <speed>0.03605551275463989</speed>
  <fix>3d</fix>
</trkpt>
<trkpt lat="33.810313" lon="-118.393867">
  <ele>-0.12</ele>
  <time>2026-09-02T22:12:37Z</time>
  <course>0.0</course>
  <speed>0.0</speed>
  <fix>3d</fix>
</trkpt>
<trkpt lat="33.810313" lon="-118.393867">
  <ele>-0.132</ele>
  <time>2026-09-02T22:12:37Z</time>
  <course>187.58</course>
  <speed>0.03605551275463989</speed>
  <fix>3d</fix>
</trkpt>
<trkpt lat="33.810313" lon="-118.393867">
  <ele>-0.12</ele>
  <time>2026-09-02T22:12:37Z</time>
  <course>0.0</course>
  <speed>0.0</speed>
  <fix>3d</fix>
</trkpt>
<trkpt lat="33.810313" lon="-118.393867">
  <ele>-0.129</ele>
  <time>2026-09-02T22:12:37Z</time>
  <course>187.58</course>
  <speed>0.03605551275463989</speed>
  <fix>3d</fix>
</trkpt>
<trkpt lat="33.810313" lon="-118.393867">
  <ele>-0.12</ele>
  <time>2026-09-02T22:12:37Z</time>
  <course>0.0</course>
  <speed>0.0</speed>
  <fix>3d</fix>
</trkpt>
<trkpt lat="33.810313" lon="-118.393867">
  <ele>-0.127</ele>
  <time>2026-09-02T22:12:37Z</time>
  <course>187.57</course>
  <speed>0.03605551275463989</speed>
  <fix>3d</fix>
</trkpt>
<trkpt lat="33.810313" lon="-118.393867">
  <ele>-0.12</ele>
  <time>2026-09-02T22:12:37Z</time>
  <course>0.0</course>
  <speed>0.0</speed>
  <fix>3d</fix>
</trkpt>
<trkpt lat="33.810313" lon="-118.393867">
  <ele>-0.125</ele>
  <time>2026-09-02T22:12:37Z</time>
  <course>187.56</course>
  <speed>0.03605551275463989</speed>
  <fix>3d</fix>
</trkpt>
<trkpt lat="33.810313" lon="-118.393867">
  <ele>-0.12</ele>
  <time>2026-09-02T22:12:37Z</time>
  <course>0.0</course>
  <speed>0.0</speed>
  <fix>3d</fix>
</trkpt>
<trkpt lat="33.810313" lon="-118.393867">
  <ele>-0.121</ele>
  <time>2026-09-02T22:12:37Z</time>
  <course>187.56</course>
  <speed>0.03605551275463989</speed>
  <fix>3d</fix>
</trkpt>
<trkpt lat="33.810313" lon="-118.393867">
  <ele>-0.12</ele>
  <time>2026-09-02T22:12:37Z</time>
  <course>0.0</course>
  <speed>0.0</speed>
  <fix>3d</fix>
</trkpt>
<trkpt lat="33.810313" lon="-118.393867">
  <ele>-0.119</ele>
  <time>2026-09-02T22:12:37Z</time>
  <course>187.55</course>
  <speed>0.03605551275463989</speed>
  <fix>3d</fix>
</trkpt>
<trkpt lat="33.810313" lon="-118.393867">
  <ele>-0.12</ele>
  <time>2026-09-02T22:12:37Z</time>
  <course>0.0</course>
  <speed>0.0</speed>
  <fix>3d</fix>
</trkpt>
<trkpt lat="33.810313" lon="-118.393867">
  <ele>-0.117</ele>
  <time>2026-09-02T22:12:37Z</time>
  <course>187.54</course>
  <speed>0.03605551275463989</speed>
  <fix>3d</fix>
</trkpt>
<trkpt lat="33.810313" lon="-118.393867">
  <ele>-0.12</ele>
  <time>2026-09-02T22:12:37Z</time>
  <course>0.0</course>
  <speed>0.0</speed>
  <fix>3d</fix>
</trkpt>
<trkpt lat="33.810313" lon="-118.393867">
  <ele>-0.117</ele>
  <time>2026-09-02T22:12:37Z</time>
  <course>187.54</course>
  <speed>0.03605551275463989</speed>
  <fix>3d</fix>
</trkpt>
<trkpt lat="33.810313" lon="-118.393867">
  <ele>-0.12</ele>
  <time>2026-09-02T22:12:37Z</time>
  <course>0.0</course>
  <speed>0.0</speed>
  <fix>3d</fix>
</trkpt>
<trkpt lat="33.810313" lon="-118.393867">
  <ele>-0.118</ele>
  <time>2026-09-02T22:12:37Z</time>
  <course>187.53</course>
  <speed>0.03605551275463989</speed>
  <fix>3d</fix>
</trkpt>
<trkpt lat="33.810313" lon="-118.393867">
  <ele>-0.12</ele>
  <time>2026-09-02T22:12:37Z</time>
  <course>0.0</course>
  <speed>0.0</speed>
  <fix>3d</fix>
</trkpt>
<trkpt lat="33.810313" lon="-118.393867">
  <ele>-0.119</ele>
  <time>2026-09-02T22:12:37Z</time>
  <course>187.52</course>
  <speed>0.03605551275463989</speed>
  <fix>3d</fix>
</trkpt>
<trkpt lat="33.810313" lon="-118.393867">
  <ele>-0.12</ele>
  <time>2026-09-02T22:12:37Z</time>
  <course>0.0</course>
  <speed>0.0</speed>
  <fix>3d</fix>
</trkpt>
<trkpt lat="33.810313" lon="-118.393867">
  <ele>-0.12</ele>
  <time>2026-09-02T22:12:37Z</time>
  <course>187.52</course>
  <speed>0.03605551275463989</speed>
  <fix>3d</fix>
</trkpt>
<trkpt lat="33.810313" lon="-118.393867">
  <ele>-0.12</ele>
  <time>2026-09-02T22:12:37Z</time>
  <course>0.0</course>
  <speed>0.0</speed>
  <fix>3d</fix>
</trkpt>
<trkpt lat="33.810313" lon="-118.393867">
  <ele>-0.121</ele>
  <time>2026-09-02T22:12:37Z</time>
  <course>187.51</course>
  <speed>0.03605551275463989</speed>
  <fix>3d</fix>
</trkpt>
<trkpt lat="33.810313" lon="-118.393867">
  <ele>-0.12</ele>
  <time>2026-09-02T22:12:37Z</time>
  <course>0.0</course>
  <speed>0.0</speed>
  <fix>3d</fix>
</trkpt>
<trkpt lat="33.810313" lon="-118.393867">
  <ele>-0.122</ele>
  <time>2026-09-02T22:12:37Z</time>
  <course>187.5</course>
  <speed>0.03605551275463989</speed>
  <fix>3d</fix>
</trkpt>
<trkpt lat="33.810313" lon="-118.393867">
  <ele>-0.12</ele>
  <time>2026-09-02T22:12:37Z</time>
  <course>0.0</course>
  <speed>0.0</speed>
  <fix>3d</fix>
</trkpt>
<trkpt lat="33.810313" lon="-118.393867">
  <ele>-0.121</ele>
  <time>2026-09-02T22:12:37Z</time>
  <course>187.5</course>
  <speed>0.03605551275463989</speed>
  <fix>3d</fix>
</trkpt>
<trkpt lat="33.810313" lon="-118.393867">
  <ele>-0.12</ele>
  <time>2026-09-02T22:12:37Z</time>
  <course>0.0</course>
  <speed>0.0</speed>
  <fix>3d</fix>
</trkpt>
<trkpt lat="33.810313" lon="-118.393867">
  <ele>-0.121</ele>
  <time>2026-09-02T22:12:37Z</time>
  <course>187.49</course>
  <speed>0.03605551275463989</speed>
  <fix>3d</fix>
</trkpt>
<trkpt lat="33.810313" lon="-118.393867">
  <ele>-0.12</ele>
  <time>2026-09-02T22:12:37Z</time>
  <course>0.0</course>
  <speed>0.0</speed>
  <fix>3d</fix>
</trkpt>
<trkpt lat="33.810313" lon="-118.393867">
  <ele>-0.121</ele>
  <time>2026-09-02T22:12:37Z</time>
  <course>187.49</course>
  <speed>0.03605551275463989</speed>
  <fix>3d</fix>
</trkpt>
<trkpt lat="33.810313" lon="-118.393867">
  <ele>-0.12</ele>
  <time>2026-09-02T22:12:37Z</time>
  <course>0.0</course>
  <speed>0.0</speed>
  <fix>3d</fix>
</trkpt>
<trkpt lat="33.810313" lon="-118.393867">
  <ele>-0.121</ele>
  <time>2026-09-02T22:12:37Z</time>
  <course>187.48</course>
  <speed>0.03605551275463989</speed>
  <fix>3d</fix>
</trkpt>
<trkpt lat="33.810313" lon="-118.393867">
  <ele>-0.12</ele>
  <time>2026-09-02T22:12:37Z</time>
  <course>0.0</course>
  <speed>0.0</speed>
  <fix>3d</fix>
</trkpt>
<trkpt lat="33.810313" lon="-118.393867">
  <ele>-0.122</ele>
  <time>2026-09-02T22:12:37Z</time>
  <course>187.47</course>
  <speed>0.03605551275463989</speed>
  <fix>3d</fix>
</trkpt>
<trkpt lat="33.810313" lon="-118.393867">
  <ele>-0.12</ele>
  <time>2026-09-02T22:12:37Z</time>
  <course>0.0</course>
  <speed>0.0</speed>
  <fix>3d</fix>
</trkpt>
<trkpt lat="33.810313" lon="-118.393867">
  <ele>-0.125</ele>
  <time>2026-09-02T22:12:37Z</time>
  <course>187.47</course>
  <speed>0.03605551275463989</speed>
  <fix>3d</fix>
</trkpt>
<trkpt lat="33.810313" lon="-118.393867">
  <ele>-0.12</ele>
  <time>2026-09-02T22:12:37Z</time>
  <course>0.0</course>
  <speed>0.0</speed>
  <fix>3d</fix>
</trkpt>
<trkpt lat="33.810313" lon="-118.393867">
  <ele>-0.127</ele>
  <time>2026-09-02T22:12:37Z</time>
  <course>187.46</course>
  <speed>0.03605551275463989</speed>
  <fix>3d</fix>
</trkpt>
<trkpt lat="33.810313" lon="-118.393867">
  <ele>-0.12</ele>
  <time>2026-09-02T22:12:37Z</time>
  <course>0.0</course>
  <speed>0.0</speed>
  <fix>3d</fix>
</trkpt>
<trkpt lat="33.810313" lon="-118.393867">
  <ele>-0.13</ele>
  <time>2026-09-02T22:12:37Z</time>
  <course>187.45</course>
  <speed>0.03605551275463989</speed>
  <fix>3d</fix>
</trkpt>
<trkpt lat="33.810313" lon="-118.393867">
  <ele>-0.12</ele>
  <time>2026-09-02T22:12:37Z</time>
  <course>0.0</course>
  <speed>0.0</speed>
  <fix>3d</fix>
</trkpt>
<trkpt lat="33.810313" lon="-118.393867">
  <ele>-0.131</ele>
  <time>2026-09-02T22:12:37Z</time>
  <course>187.45</course>
  <speed>0.03605551275463989</speed>
  <fix>3d</fix>
</trkpt>
<trkpt lat="33.810313" lon="-118.393867">
  <ele>-0.12</ele>
  <time>2026-09-02T22:12:37Z</time>
  <course>0.0</course>
  <speed>0.0</speed>
  <fix>3d</fix>
</trkpt>
<trkpt lat="33.810313" lon="-118.393867">
  <ele>-0.132</ele>
  <time>2026-09-02T22:12:37Z</time>
  <course>187.44</course>
  <speed>0.03605551275463989</speed>
  <fix>3d</fix>
</trkpt>
<trkpt lat="33.810313" lon="-118.393867">
  <ele>-0.12</ele>
  <time>2026-09-02T22:12:37Z</time>
  <course>0.0</course>
  <speed>0.0</speed>
  <fix>3d</fix>
</trkpt>
<trkpt lat="33.810313" lon="-118.393867">
  <ele>-0.132</ele>
  <time>2026-09-02T22:12:37Z</time>
  <course>187.44</course>
  <speed>0.03605551275463989</speed>
  <fix>3d</fix>
</trkpt>
<trkpt lat="33.810313" lon="-118.393867">
  <ele>-0.12</ele>
  <time>2026-09-02T22:12:37Z</time>
  <course>0.0</course>
  <speed>0.0</speed>
  <fix>3d</fix>
</trkpt>
<trkpt lat="33.810313" lon="-118.393867">
  <ele>-0.132</ele>
  <time>2026-09-02T22:12:37Z</time>
  <course>187.43</course>
  <speed>0.03605551275463989</speed>
  <fix>3d</fix>
</trkpt>
<trkpt lat="33.810313" lon="-118.393867">
  <ele>-0.12</ele>
  <time>2026-09-02T22:12:37Z</time>
  <course>0.0</course>
  <speed>0.0</speed>
  <fix>3d</fix>
</trkpt>
<trkpt lat="33.810313" lon="-118.393867">
  <ele>-0.132</ele>
  <time>2026-09-02T22:12:37Z</time>
  <course>187.42</course>
  <speed>0.03605551275463989</speed>
  <fix>3d</fix>
</trkpt>
<trkpt lat="33.810313" lon="-118.393867">
  <ele>-0.12</ele>
  <time>2026-09-02T22:12:37Z</time>
  <course>0.0</course>
  <speed>0.0</speed>
  <fix>3d</fix>
</trkpt>
<trkpt lat="33.810313" lon="-118.393867">
  <ele>-0.131</ele>
  <time>2026-09-02T22:12:37Z</time>
  <course>187.42</course>
  <speed>0.03605551275463989</speed>
  <fix>3d</fix>
</trkpt>
<trkpt lat="33.810313" lon="-118.393867">
  <ele>-0.12</ele>
  <time>2026-09-02T22:12:37Z</time>
  <course>0.0</course>
  <speed>0.0</speed>
  <fix>3d</fix>
</trkpt>
<trkpt lat="33.810313" lon="-118.393867">
  <ele>-0.131</ele>
  <time>2026-09-02T22:12:37Z</time>
  <course>187.41</course>
  <speed>0.03605551275463989</speed>
  <fix>3d</fix>
</trkpt>
<trkpt lat="33.810313" lon="-118.393867">
  <ele>-0.12</ele>
  <time>2026-09-02T22:12:37Z</time>
  <course>0.0</course>
  <speed>0.0</speed>
  <fix>3d</fix>
</trkpt>
<trkpt lat="33.810313" lon="-118.393867">
  <ele>-0.132</ele>
  <time>2026-09-02T22:12:37Z</time>
  <course>187.41</course>
  <speed>0.03605551275463989</speed>
  <fix>3d</fix>
</trkpt>
<trkpt lat="33.810313" lon="-118.393867">
  <ele>-0.12</ele>
  <time>2026-09-02T22:12:37Z</time>
  <course>0.0</course>
  <speed>0.0</speed>
  <fix>3d</fix>
</trkpt>
<trkpt lat="33.810313" lon="-118.393867">
  <ele>-0.134</ele>
  <time>2026-09-02T22:12:37Z</time>
  <course>187.4</course>
  <speed>0.03605551275463989</speed>
  <fix>3d</fix>
</trkpt>
<trkpt lat="33.810313" lon="-118.393867">
  <ele>-0.12</ele>
  <time>2026-09-02T22:12:37Z</time>
  <course>0.0</course>
  <speed>0.0</speed>
  <fix>3d</fix>
</trkpt>
<trkpt lat="33.810313" lon="-118.393867">
  <ele>-0.137</ele>
  <time>2026-09-02T22:12:37Z</time>
  <course>187.39</course>
  <speed>0.03605551275463989</speed>
  <fix>3d</fix>
</trkpt>
<trkpt lat="33.810313" lon="-118.393867">
  <ele>-0.12</ele>
  <time>2026-09-02T22:12:37Z</time>
  <course>0.0</course>
  <speed>0.0</speed>
  <fix>3d</fix>
</trkpt>
<trkpt lat="33.810313" lon="-118.393867">
  <ele>-0.14</ele>
  <time>2026-09-02T22:12:37Z</time>
  <course>187.39</course>
  <speed>0.03605551275463989</speed>
  <fix>3d</fix>
</trkpt>
<trkpt lat="33.810313" lon="-118.393867">
  <ele>-0.12</ele>
  <time>2026-09-02T22:12:37Z</time>
  <course>0.0</course>
  <speed>0.0</speed>
  <fix>3d</fix>
</trkpt>
<trkpt lat="33.810313" lon="-118.393867">
  <ele>-0.141</ele>
  <time>2026-09-02T22:12:37Z</time>
  <course>187.38</course>
  <speed>0.03605551275463989</speed>
  <fix>3d</fix>
</trkpt>
<trkpt lat="33.810313" lon="-118.393867">
  <ele>-0.12</ele>
  <time>2026-09-02T22:12:37Z</time>
  <course>0.0</course>
  <speed>0.0</speed>
  <fix>3d</fix>
</trkpt>
<trkpt lat="33.810313" lon="-118.393867">
  <ele>-0.141</ele>
  <time>2026-09-02T22:12:37Z</time>
  <course>187.38</course>
  <speed>0.03605551275463989</speed>
  <fix>3d</fix>
</trkpt>
<trkpt lat="33.810313" lon="-118.393867">
  <ele>-0.12</ele>
  <time>2026-09-02T22:12:37Z</time>
  <course>0.0</course>
  <speed>0.0</speed>
  <fix>3d</fix>
</trkpt>
<trkpt lat="33.810313" lon="-118.393867">
  <ele>-0.139</ele>
  <time>2026-09-02T22:12:37Z</time>
  <course>187.37</course>
  <speed>0.03605551275463989</speed>
  <fix>3d</fix>
</trkpt>
<trkpt lat="33.810313" lon="-118.393867">
  <ele>-0.12</ele>
  <time>2026-09-02T22:12:37Z</time>
  <course>0.0</course>
  <speed>0.0</speed>
  <fix>3d</fix>
</trkpt>
<trkpt lat="33.810313" lon="-118.393867">
  <ele>-0.136</ele>
  <time>2026-09-02T22:12:37Z</time>
  <course>187.36</course>
  <speed>0.03605551275463989</speed>
  <fix>3d</fix>
</trkpt>
<trkpt lat="33.810313" lon="-118.393867">
  <ele>-0.12</ele>
  <time>2026-09-02T22:12:37Z</time>
  <course>0.0</course>
  <speed>0.0</speed>
  <fix>3d</fix>
</trkpt>
<trkpt lat="33.810313" lon="-118.393867">
  <ele>-0.132</ele>
  <time>2026-09-02T22:12:37Z</time>
  <course>187.36</course>
  <speed>0.03605551275463989</speed>
  <fix>3d</fix>
</trkpt>
<trkpt lat="33.810313" lon="-118.393867">
  <ele>-0.12</ele>
  <time>2026-09-02T22:12:37Z</time>
  <course>0.0</course>
  <speed>0.0</speed>
  <fix>3d</fix>
</trkpt>
<trkpt lat="33.810313" lon="-118.393867">
  <ele>-0.129</ele>
  <time>2026-09-02T22:12:37Z</time>
  <course>187.35</course>
  <speed>0.03605551275463989</speed>
  <fix>3d</fix>
</trkpt>
<trkpt lat="33.810313" lon="-118.393867">
  <ele>-0.12</ele>
  <time>2026-09-02T22:12:37Z</time>
  <course>0.0</course>
  <speed>0.0</speed>
  <fix>3d</fix>
</trkpt>
<trkpt lat="33.810313" lon="-118.393867">
  <ele>-0.127</ele>
  <time>2026-09-02T22:12:37Z</time>
  <course>187.35</course>
  <speed>0.03605551275463989</speed>
  <fix>3d</fix>
</trkpt>
<trkpt lat="33.810313" lon="-118.393867">
  <ele>-0.12</ele>
  <time>2026-09-02T22:12:37Z</time>
  <course>0.0</course>
  <speed>0.0</speed>
  <fix>3d</fix>
</trkpt>
<trkpt lat="33.810313" lon="-118.393867">
  <ele>-0.126</ele>
  <time>2026-09-02T22:12:37Z</time>
  <course>187.34</course>
  <speed>0.03605551275463989</speed>
  <fix>3d</fix>
</trkpt>
<trkpt lat="33.810313" lon="-118.393867">
  <ele>-0.12</ele>
  <time>2026-09-02T22:12:37Z</time>
  <course>0.0</course>
  <speed>0.0</speed>
  <fix>3d</fix>
</trkpt>
<trkpt lat="33.810313" lon="-118.393867">
  <ele>-0.126</ele>
  <time>2026-09-02T22:12:37Z</time>
  <course>187.33</course>
  <speed>0.03605551275463989</speed>
  <fix>3d</fix>
</trkpt>
<trkpt lat="33.810313" lon="-118.393867">
  <ele>-0.12</ele>
  <time>2026-09-02T22:12:37Z</time>
  <course>0.0</course>
  <speed>0.0</speed>
  <fix>3d</fix>
</trkpt>
<trkpt lat="33.810313" lon="-118.393867">
  <ele>-0.127</ele>
  <time>2026-09-02T22:12:37Z</time>
  <course>187.33</course>
  <speed>0.03605551275463989</speed>
  <fix>3d</fix>
</trkpt>
<trkpt lat="33.810313" lon="-118.393867">
  <ele>-0.12</ele>
  <time>2026-09-02T22:12:37Z</time>
  <course>0.0</course>
  <speed>0.0</speed>
  <fix>3d</fix>
</trkpt>
<trkpt lat="33.810313" lon="-118.393867">
  <ele>-0.126</ele>
  <time>2026-09-02T22:12:37Z</time>
  <course>187.32</course>
  <speed>0.03605551275463989</speed>
  <fix>3d</fix>
</trkpt>
<trkpt lat="33.810313" lon="-118.393867">
  <ele>-0.12</ele>
  <time>2026-09-02T22:12:37Z</time>
  <course>0.0</course>
  <speed>0.0</speed>
  <fix>3d</fix>
</trkpt>
<trkpt lat="33.810313" lon="-118.393867">
  <ele>-0.126</ele>
  <time>2026-09-02T22:12:37Z</time>
  <course>187.32</course>
  <speed>0.03605551275463989</speed>
  <fix>3d</fix>
</trkpt>
<trkpt lat="33.810313" lon="-118.393867">
  <ele>-0.12</ele>
  <time>2026-09-02T22:12:37Z</time>
  <course>0.0</course>
  <speed>0.0</speed>
  <fix>3d</fix>
</trkpt>
<trkpt lat="33.810313" lon="-118.393867">
  <ele>-0.125</ele>
  <time>2026-09-02T22:12:37Z</time>
  <course>187.31</course>
  <speed>0.03605551275463989</speed>
  <fix>3d</fix>
</trkpt>
<trkpt lat="33.810313" lon="-118.393867">
  <ele>-0.12</ele>
  <time>2026-09-02T22:12:37Z</time>
  <course>0.0</course>
  <speed>0.0</speed>
  <fix>3d</fix>
</trkpt>
<trkpt lat="33.810313" lon="-118.393867">
  <ele>-0.124</ele>
  <time>2026-09-02T22:12:37Z</time>
  <course>187.31</course>
  <speed>0.03605551275463989</speed>
  <fix>3d</fix>
</trkpt>
<trkpt lat="33.810313" lon="-118.393867">
  <ele>-0.12</ele>
  <time>2026-09-02T22:12:37Z</time>
  <course>0.0</course>
  <speed>0.0</speed>
  <fix>3d</fix>
</trkpt>
<trkpt lat="33.810313" lon="-118.393867">
  <ele>-0.121</ele>
  <time>2026-09-02T22:12:37Z</time>
  <course>187.3</course>
  <speed>0.03605551275463989</speed>
  <fix>3d</fix>
</trkpt>
<trkpt lat="33.810313" lon="-118.393867">
  <ele>-0.12</ele>
  <time>2026-09-02T22:12:37Z</time>
  <course>0.0</course>
  <speed>0.0</speed>
  <fix>3d</fix>
</trkpt>
<trkpt lat="33.810313" lon="-118.393867">
  <ele>-0.121</ele>
  <time>2026-09-02T22:12:37Z</time>
  <course>187.29</course>
  <speed>0.03605551275463989</speed>
  <fix>3d</fix>
</trkpt>
<trkpt lat="33.810313" lon="-118.393867">
  <ele>-0.12</ele>
  <time>2026-09-02T22:12:37Z</time>
  <course>0.0</course>
  <speed>0.0</speed>
  <fix>3d</fix>
</trkpt>
<trkpt lat="33.810313" lon="-118.393867">
  <ele>-0.122</ele>
  <time>2026-09-02T22:12:37Z</time>
  <course>187.29</course>
  <speed>0.03605551275463989</speed>
  <fix>3d</fix>
</trkpt>
<trkpt lat="33.810313" lon="-118.393867">
  <ele>-0.12</ele>
  <time>2026-09-02T22:12:37Z</time>
  <course>0.0</course>
  <speed>0.0</speed>
  <fix>3d</fix>
</trkpt>
<trkpt lat="33.810313" lon="-118.393867">
  <ele>-0.124</ele>
  <time>2026-09-02T22:12:37Z</time>
  <course>187.28</course>
  <speed>0.03605551275463989</speed>
  <fix>3d</fix>
</trkpt>
<trkpt lat="33.810313" lon="-118.393867">
  <ele>-0.12</ele>
  <time>2026-09-02T22:12:37Z</time>
  <course>0.0</course>
  <speed>0.0</speed>
  <fix>3d</fix>
</trkpt>
<trkpt lat="33.810313" lon="-118.393867">
  <ele>-0.128</ele>
  <time>2026-09-02T22:12:37Z</time>
  <course>187.28</course>
  <speed>0.03605551275463989</speed>
  <fix>3d</fix>
</trkpt>
<trkpt lat="33.810313" lon="-118.393867">
  <ele>-0.12</ele>
  <time>2026-09-02T22:12:37Z</time>
  <course>0.0</course>
  <speed>0.0</speed>
  <fix>3d</fix>
</trkpt>
<trkpt lat="33.810313" lon="-118.393867">
  <ele>-0.13</ele>
  <time>2026-09-02T22:12:37Z</time>
  <course>187.27</course>
  <speed>0.03605551275463989</speed>
  <fix>3d</fix>
</trkpt>
<trkpt lat="33.810313" lon="-118.393867">
  <ele>-0.12</ele>
  <time>2026-09-02T22:12:37Z</time>
  <course>0.0</course>
  <speed>0.0</speed>
  <fix>3d</fix>
</trkpt>
<trkpt lat="33.810313" lon="-118.393867">
  <ele>-0.133</ele>
  <time>2026-09-02T22:12:37Z</time>
  <course>187.27</course>
  <speed>0.03605551275463989</speed>
  <fix>3d</fix>
</trkpt>
<trkpt lat="33.810313" lon="-118.393867">
  <ele>-0.12</ele>
  <time>2026-09-02T22:12:37Z</time>
  <course>0.0</course>
  <speed>0.0</speed>
  <fix>3d</fix>
</trkpt>
<trkpt lat="33.810313" lon="-118.393867">
  <ele>-0.135</ele>
  <time>2026-09-02T22:12:37Z</time>
  <course>187.26</course>
  <speed>0.03605551275463989</speed>
  <fix>3d</fix>
</trkpt>
<trkpt lat="33.810313" lon="-118.393867">
  <ele>-0.12</ele>
  <time>2026-09-02T22:12:37Z</time>
  <course>0.0</course>
  <speed>0.0</speed>
  <fix>3d</fix>
</trkpt>
<trkpt lat="33.810313" lon="-118.393867">
  <ele>-0.136</ele>
  <time>2026-09-02T22:12:37Z</time>
  <course>187.26</course>
  <speed>0.03605551275463989</speed>
  <fix>3d</fix>
</trkpt>
<trkpt lat="33.810313" lon="-118.393867">
  <ele>-0.12</ele>
  <time>2026-09-02T22:12:37Z</time>
  <course>0.0</course>
  <speed>0.0</speed>
  <fix>3d</fix>
</trkpt>
<trkpt lat="33.810313" lon="-118.393867">
  <ele>-0.136</ele>
  <time>2026-09-02T22:12:37Z</time>
  <course>187.25</course>
  <speed>0.03605551275463989</speed>
  <fix>3d</fix>
</trkpt>
<trkpt lat="33.810313" lon="-118.393867">
  <ele>-0.12</ele>
  <time>2026-09-02T22:12:37Z</time>
  <course>0.0</course>
  <speed>0.0</speed>
  <fix>3d</fix>
</trkpt>
<trkpt lat="33.810313" lon="-118.393867">
  <ele>-0.135</ele>
  <time>2026-09-02T22:12:37Z</time>
  <course>187.25</course>
  <speed>0.03605551275463989</speed>
  <fix>3d</fix>
</trkpt>
<trkpt lat="33.810313" lon="-118.393867">
  <ele>-0.12</ele>
  <time>2026-09-02T22:12:37Z</time>
  <course>0.0</course>
  <speed>0.0</speed>
  <fix>3d</fix>
</trkpt>
<trkpt lat="33.810313" lon="-118.393867">
  <ele>-0.134</ele>
  <time>2026-09-02T22:12:37Z</time>
  <course>187.24</course>
  <speed>0.03605551275463989</speed>
  <fix>3d</fix>
</trkpt>
<trkpt lat="33.810313" lon="-118.393867">
  <ele>-0.12</ele>
  <time>2026-09-02T22:12:37Z</time>
  <course>0.0</course>
  <speed>0.0</speed>
  <fix>3d</fix>
</trkpt>
<trkpt lat="33.810313" lon="-118.393867">
  <ele>-0.132</ele>
  <time>2026-09-02T22:12:37Z</time>
  <course>187.24</course>
  <speed>0.03605551275463989</speed>
  <fix>3d</fix>
</trkpt>
<trkpt lat="33.810313" lon="-118.393867">
  <ele>-0.12</ele>
  <time>2026-09-02T22:12:37Z</time>
  <course>0.0</course>
  <speed>0.0</speed>
  <fix>3d</fix>
</trkpt>
<trkpt lat="33.810313" lon="-118.393867">
  <ele>-0.131</ele>
  <time>2026-09-02T22:12:37Z</time>
  <course>187.23</course>
  <speed>0.03605551275463989</speed>
  <fix>3d</fix>
</trkpt>
<trkpt lat="33.810313" lon="-118.393867">
  <ele>-0.12</ele>
  <time>2026-09-02T22:12:37Z</time>
  <course>0.0</course>
  <speed>0.0</speed>
  <fix>3d</fix>
</trkpt>
<trkpt lat="33.810313" lon="-118.393867">
  <ele>-0.131</ele>
  <time>2026-09-02T22:12:37Z</time>
  <course>187.22</course>
  <speed>0.03605551275463989</speed>
  <fix>3d</fix>
</trkpt>
<trkpt lat="33.810313" lon="-118.393867">
  <ele>-0.12</ele>
  <time>2026-09-02T22:12:37Z</time>
  <course>0.0</course>
  <speed>0.0</speed>
  <fix>3d</fix>
</trkpt>
<trkpt lat="33.810313" lon="-118.393867">
  <ele>-0.132</ele>
  <time>2026-09-02T22:12:37Z</time>
  <course>187.22</course>
  <speed>0.03605551275463989</speed>
  <fix>3d</fix>
</trkpt>
<trkpt lat="33.810313" lon="-118.393867">
  <ele>-0.12</ele>
  <time>2026-09-02T22:12:37Z</time>
  <course>0.0</course>
  <speed>0.0</speed>
  <fix>3d</fix>
</trkpt>
<trkpt lat="33.810313" lon="-118.393867">
  <ele>-0.132</ele>
  <time>2026-09-02T22:12:37Z</time>
  <course>187.21</course>
  <speed>0.03605551275463989</speed>
  <fix>3d</fix>
</trkpt>
<trkpt lat="33.810313" lon="-118.393867">
  <ele>-0.12</ele>
  <time>2026-09-02T22:12:37Z</time>
  <course>0.0</course>
  <speed>0.0</speed>
  <fix>3d</fix>
</trkpt>
<trkpt lat="33.810313" lon="-118.393867">
  <ele>-0.133</ele>
  <time>2026-09-02T22:12:37Z</time>
  <course>187.21</course>
  <speed>0.03605551275463989</speed>
  <fix>3d</fix>
</trkpt>
<trkpt lat="33.810313" lon="-118.393867">
  <ele>-0.12</ele>
  <time>2026-09-02T22:12:37Z</time>
  <course>0.0</course>
  <speed>0.0</speed>
  <fix>3d</fix>
</trkpt>
<trkpt lat="33.810313" lon="-118.393867">
  <ele>-0.132</ele>
  <time>2026-09-02T22:12:37Z</time>
  <course>187.2</course>
  <speed>0.03605551275463989</speed>
  <fix>3d</fix>
</trkpt>
<trkpt lat="33.810313" lon="-118.393867">
  <ele>-0.12</ele>
  <time>2026-09-02T22:12:37Z</time>
  <course>0.0</course>
  <speed>0.0</speed>
  <fix>3d</fix>
</trkpt>
<trkpt lat="33.810313" lon="-118.393867">
  <ele>-0.131</ele>
  <time>2026-09-02T22:12:37Z</time>
  <course>187.2</course>
  <speed>0.03605551275463989</speed>
  <fix>3d</fix>
</trkpt>
<trkpt lat="33.810313" lon="-118.393867">
  <ele>-0.12</ele>
  <time>2026-09-02T22:12:37Z</time>
  <course>0.0</course>
  <speed>0.0</speed>
  <fix>3d</fix>
</trkpt>
<trkpt lat="33.810313" lon="-118.393867">
  <ele>-0.129</ele>
  <time>2026-09-02T22:12:37Z</time>
  <course>187.19</course>
  <speed>0.03605551275463989</speed>
  <fix>3d</fix>
</trkpt>
<trkpt lat="33.810313" lon="-118.393867">
  <ele>-0.12</ele>
  <time>2026-09-02T22:12:37Z</time>
  <course>0.0</course>
  <speed>0.0</speed>
  <fix>3d</fix>
</trkpt>
<trkpt lat="33.810313" lon="-118.393867">
  <ele>-0.126</ele>
  <time>2026-09-02T22:12:37Z</time>
  <course>187.19</course>
  <speed>0.03605551275463989</speed>
  <fix>3d</fix>
</trkpt>
<trkpt lat="33.810313" lon="-118.393867">
  <ele>-0.12</ele>
  <time>2026-09-02T22:12:37Z</time>
  <course>0.0</course>
  <speed>0.0</speed>
  <fix>3d</fix>
</trkpt>
<trkpt lat="33.810313" lon="-118.393867">
  <ele>-0.124</ele>
  <time>2026-09-02T22:12:37Z</time>
  <course>187.18</course>
  <speed>0.03605551275463989</speed>
  <fix>3d</fix>
</trkpt>
<trkpt lat="33.810313" lon="-118.393867">
  <ele>-0.12</ele>
  <time>2026-09-02T22:12:37Z</time>
  <course>0.0</course>
  <speed>0.0</speed>
  <fix>3d</fix>
</trkpt>
<trkpt lat="33.810313" lon="-118.393867">
  <ele>-0.123</ele>
  <time>2026-09-02T22:12:37Z</time>
  <course>187.18</course>
  <speed>0.03605551275463989</speed>
  <fix>3d</fix>
</trkpt>
<trkpt lat="33.810313" lon="-118.393867">
  <ele>-0.12</ele>
  <time>2026-09-02T22:12:37Z</time>
  <course>0.0</course>
  <speed>0.0</speed>
  <fix>3d</fix>
</trkpt>
<trkpt lat="33.810313" lon="-118.393867">
  <ele>-0.123</ele>
  <time>2026-09-02T22:12:37Z</time>
  <course>187.17</course>
  <speed>0.03605551275463989</speed>
  <fix>3d</fix>
</trkpt>
<trkpt lat="33.810313" lon="-118.393867">
  <ele>-0.12</ele>
  <time>2026-09-02T22:12:37Z</time>
  <course>0.0</course>
  <speed>0.0</speed>
  <fix>3d</fix>
</trkpt>
<trkpt lat="33.810313" lon="-118.393867">
  <ele>-0.122</ele>
  <time>2026-09-02T22:12:37Z</time>
  <course>187.17</course>
  <speed>0.0</speed>
  <fix>3d</fix>
</trkpt>
<trkpt lat="33.810313" lon="-118.393867">
  <ele>-0.12</ele>
  <time>2026-09-02T22:12:37Z</time>
  <course>0.0</course>
  <speed>0.0</speed>
  <fix>3d</fix>
</trkpt>
<trkpt lat="33.810313" lon="-118.393867">
  <ele>-0.121</ele>
  <time>2026-09-02T22:12:37Z</time>
  <course>187.16</course>
  <speed>0.0</speed>
  <fix>3d</fix>
</trkpt>
<trkpt lat="33.810313" lon="-118.393867">
  <ele>-0.12</ele>
  <time>2026-09-02T22:12:37Z</time>
  <course>0.0</course>
  <speed>0.0</speed>
  <fix>3d</fix>
</trkpt>
<trkpt lat="33.810313" lon="-118.393867">
  <ele>-0.12</ele>
  <time>2026-09-02T22:12:37Z</time>
  <course>187.16</course>
  <speed>0.0</speed>
  <fix>3d</fix>
</trkpt>
<trkpt lat="33.810313" lon="-118.393867">
  <ele>-0.12</ele>
  <time>2026-09-02T22:12:37Z</time>
  <course>0.0</course>
  <speed>0.0</speed>
  <fix>3d</fix>
</trkpt>
<trkpt lat="33.810313" lon="-118.393867">
  <ele>-0.119</ele>
  <time>2026-09-02T22:12:37Z</time>
  <course>187.15</course>
  <speed>0.0</speed>
  <fix>3d</fix>
</trkpt>
<trkpt lat="33.810313" lon="-118.393867">
  <ele>-0.12</ele>
  <time>2026-09-02T22:12:37Z</time>
  <course>0.0</course>
  <speed>0.0</speed>
  <fix>3d</fix>
</trkpt>
<trkpt lat="33.810313" lon="-118.393867">
  <ele>-0.116</ele>
  <time>2026-09-02T22:12:37Z</time>
  <course>187.15</course>
  <speed>0.0</speed>
  <fix>3d</fix>
</trkpt>
<trkpt lat="33.810313" lon="-118.393867">
  <ele>-0.12</ele>
  <time>2026-09-02T22:12:37Z</time>
  <course>0.0</course>
  <speed>0.0</speed>
  <fix>3d</fix>
</trkpt>
<trkpt lat="33.810313" lon="-118.393867">
  <ele>-0.114</ele>
  <time>2026-09-02T22:12:37Z</time>
  <course>187.14</course>
  <speed>0.0</speed>
  <fix>3d</fix>
</trkpt>
<trkpt lat="33.810313" lon="-118.393867">
  <ele>-0.12</ele>
  <time>2026-09-02T22:12:37Z</time>
  <course>0.0</course>
  <speed>0.0</speed>
  <fix>3d</fix>
</trkpt>
<trkpt lat="33.810313" lon="-118.393867">
  <ele>-0.113</ele>
  <time>2026-09-02T22:12:37Z</time>
  <course>187.14</course>
  <speed>0.0</speed>
  <fix>3d</fix>
</trkpt>
<trkpt lat="33.810313" lon="-118.393867">
  <ele>-0.12</ele>
  <time>2026-09-02T22:12:37Z</time>
  <course>0.0</course>
  <speed>0.0</speed>
  <fix>3d</fix>
</trkpt>
<trkpt lat="33.810313" lon="-118.393867">
  <ele>-0.112</ele>
  <time>2026-09-02T22:12:37Z</time>
  <course>187.13</course>
  <speed>0.0</speed>
  <fix>3d</fix>
</trkpt>
<trkpt lat="33.810313" lon="-118.393867">
  <ele>-0.12</ele>
  <time>2026-09-02T22:12:37Z</time>
  <course>0.0</course>
  <speed>0.0</speed>
  <fix>3d</fix>
</trkpt>
<trkpt lat="33.810313" lon="-118.393867">
  <ele>-0.113</ele>
  <time>2026-09-02T22:12:37Z</time>
  <course>187.13</course>
  <speed>0.0</speed>
  <fix>3d</fix>
</trkpt>
<trkpt lat="33.810313" lon="-118.393867">
  <ele>-0.12</ele>
  <time>2026-09-02T22:12:37Z</time>
  <course>0.0</course>
  <speed>0.0</speed>
  <fix>3d</fix>
</trkpt>
<trkpt lat="33.810313" lon="-118.393867">
  <ele>-0.114</ele>
  <time>2026-09-02T22:12:37Z</time>
  <course>187.12</course>
  <speed>0.0</speed>
  <fix>3d</fix>
</trkpt>
<trkpt lat="33.810313" lon="-118.393867">
  <ele>-0.12</ele>
  <time>2026-09-02T22:12:37Z</time>
  <course>0.0</course>
  <speed>0.0</speed>
  <fix>3d</fix>
</trkpt>
<trkpt lat="33.810313" lon="-118.393867">
  <ele>-0.117</ele>
  <time>2026-09-02T22:12:37Z</time>
  <course>187.12</course>
  <speed>0.0</speed>
  <fix>3d</fix>
</trkpt>
<trkpt lat="33.810313" lon="-118.393867">
  <ele>-0.12</ele>
  <time>2026-09-02T22:12:37Z</time>
  <course>0.0</course>
  <speed>0.0</speed>
  <fix>3d</fix>
</trkpt>
<trkpt lat="33.810313" lon="-118.393867">
  <ele>-0.119</ele>
  <time>2026-09-02T22:12:37Z</time>
  <course>187.11</course>
  <speed>0.01</speed>
  <fix>3d</fix>
</trkpt>
<trkpt lat="33.810313" lon="-118.393867">
  <ele>-0.12</ele>
  <time>2026-09-02T22:12:37Z</time>
  <course>0.0</course>
  <speed>0.0</speed>
  <fix>3d</fix>
</trkpt>
<trkpt lat="33.810313" lon="-118.393867">
  <ele>-0.12</ele>
  <time>2026-09-02T22:12:37Z</time>
  <course>187.11</course>
  <speed>0.01</speed>
  <fix>3d</fix>
</trkpt>
<trkpt lat="33.810313" lon="-118.393867">
  <ele>-0.12</ele>
  <time>2026-09-02T22:12:37Z</time>
  <course>0.0</course>
  <speed>0.0</speed>
  <fix>3d</fix>
</trkpt>
<trkpt lat="33.810313" lon="-118.393867">
  <ele>-0.121</ele>
  <time>2026-09-02T22:12:37Z</time>
  <course>187.1</course>
  <speed>0.01</speed>
  <fix>3d</fix>
</trkpt>
<trkpt lat="33.810313" lon="-118.393867">
  <ele>-0.12</ele>
  <time>2026-09-02T22:12:37Z</time>
  <course>0.0</course>
  <speed>0.0</speed>
  <fix>3d</fix>
</trkpt>
<trkpt lat="33.810313" lon="-118.393867">
  <ele>-0.122</ele>
  <time>2026-09-02T22:12:37Z</time>
  <course>187.1</course>
  <speed>0.01414213562373095</speed>
  <fix>3d</fix>
</trkpt>
<trkpt lat="33.810313" lon="-118.393867">
  <ele>-0.12</ele>
  <time>2026-09-02T22:12:37Z</time>
  <course>0.0</course>
  <speed>0.0</speed>
  <fix>3d</fix>
</trkpt>
<trkpt lat="33.810313" lon="-118.393867">
  <ele>-0.122</ele>
  <time>2026-09-02T22:12:37Z</time>
  <course>187.09</course>
  <speed>0.01414213562373095</speed>
  <fix>3d</fix>
</trkpt>
<trkpt lat="33.810313" lon="-118.393867">
  <ele>-0.12</ele>
  <time>2026-09-02T22:12:37Z</time>
  <course>0.0</course>
  <speed>0.0</speed>
  <fix>3d</fix>
</trkpt>
<trkpt lat="33.810313" lon="-118.393867">
  <ele>-0.123</ele>
  <time>2026-09-02T22:12:37Z</time>
  <course>187.09</course>
  <speed>0.01414213562373095</speed>
  <fix>3d</fix>
</trkpt>
<trkpt lat="33.810313" lon="-118.393867">
  <ele>-0.12</ele>
  <time>2026-09-02T22:12:37Z</time>
  <course>0.0</course>
  <speed>0.0</speed>
  <fix>3d</fix>
</trkpt>
<trkpt lat="33.810313" lon="-118.393867">
  <ele>-0.124</ele>
  <time>2026-09-02T22:12:37Z</time>
  <course>187.08</course>
  <speed>0.01414213562373095</speed>
  <fix>3d</fix>
</trkpt>
<trkpt lat="33.810313" lon="-118.393867">
  <ele>-0.12</ele>
  <time>2026-09-02T22:12:37Z</time>
  <course>0.0</course>
  <speed>0.0</speed>
  <fix>3d</fix>
</trkpt>
<trkpt lat="33.810313" lon="-118.393867">
  <ele>-0.126</ele>
  <time>2026-09-02T22:12:37Z</time>
  <course>187.08</course>
  <speed>0.01414213562373095</speed>
  <fix>3d</fix>
</trkpt>
<trkpt lat="33.810313" lon="-118.393867">
  <ele>-0.12</ele>
  <time>2026-09-02T22:12:37Z</time>
  <course>0.0</course>
  <speed>0.0</speed>
  <fix>3d</fix>
</trkpt>
<trkpt lat="33.810313" lon="-118.393867">
  <ele>-0.128</ele>
  <time>2026-09-02T22:12:37Z</time>
  <course>187.07</course>
  <speed>0.01414213562373095</speed>
  <fix>3d</fix>
</trkpt>
<trkpt lat="33.810313" lon="-118.393867">
  <ele>-0.12</ele>
  <time>2026-09-02T22:12:37Z</time>
  <course>0.0</course>
  <speed>0.0</speed>
  <fix>3d</fix>
</trkpt>
<trkpt lat="33.810313" lon="-118.393867">
  <ele>-0.131</ele>
  <time>2026-09-02T22:12:37Z</time>
  <course>187.07</course>
  <speed>0.01414213562373095</speed>
  <fix>3d</fix>
</trkpt>
<trkpt lat="33.810313" lon="-118.393867">
  <ele>-0.12</ele>
  <time>2026-09-02T22:12:37Z</time>
  <course>0.0</course>
  <speed>0.0</speed>
  <fix>3d</fix>
</trkpt>
<trkpt lat="33.810313" lon="-118.393867">
  <ele>-0.134</ele>
  <time>2026-09-02T22:12:37Z</time>
  <course>187.06</course>
  <speed>0.022360679774997897</speed>
  <fix>3d</fix>
</trkpt>
<trkpt lat="33.810313" lon="-118.393867">
  <ele>-0.12</ele>
  <time>2026-09-02T22:12:37Z</time>
  <course>0.0</course>
  <speed>0.0</speed>
  <fix>3d</fix>
</trkpt>
<trkpt lat="33.810313" lon="-118.393867">
  <ele>-0.135</ele>
  <time>2026-09-02T22:12:37Z</time>
  <course>187.05</course>
  <speed>0.022360679774997897</speed>
  <fix>3d</fix>
</trkpt>
<trkpt lat="33.810313" lon="-118.393867">
  <ele>-0.12</ele>
  <time>2026-09-02T22:12:37Z</time>
  <course>0.0</course>
  <speed>0.0</speed>
  <fix>3d</fix>
</trkpt>
<trkpt lat="33.8103131" lon="-118.3938671">
  <ele>-0.129</ele>
  <time>2026-09-02T22:12:37Z</time>
  <course>187.03</course>
  <speed>0.0282842712474619</speed>
  <fix>3d</fix>
</trkpt>
<trkpt lat="33.810313" lon="-118.393867">
  <ele>-0.12</ele>
  <time>2026-09-02T22:12:37Z</time>
  <course>0.0</course>
  <speed>0.0</speed>
  <fix>3d</fix>
</trkpt>
<trkpt lat="33.8103131" lon="-118.3938671">
  <ele>-0.129</ele>
  <time>2026-09-02T22:12:37Z</time>
  <course>187.03</course>
  <speed>0.0282842712474619</speed>
  <fix>3d</fix>
</trkpt>
<trkpt lat="33.810313" lon="-118.393867">
  <ele>-0.12</ele>
  <time>2026-09-02T22:12:37Z</time>
  <course>0.0</course>
  <speed>0.0</speed>
  <fix>3d</fix>
</trkpt>
<trkpt lat="33.8103131" lon="-118.3938671">
  <ele>-0.128</ele>
  <time>2026-09-02T22:12:37Z</time>
  <course>187.02</course>
  <speed>0.0282842712474619</speed>
  <fix>3d</fix>
</trkpt>
<trkpt lat="33.810313" lon="-118.393867">
  <ele>-0.12</ele>
  <time>2026-09-02T22:12:37Z</time>
  <course>0.0</course>
  <speed>0.0</speed>
  <fix>3d</fix>
</trkpt>
<trkpt lat="33.8103131" lon="-118.3938671">
  <ele>-0.129</ele>
  <time>2026-09-02T22:12:37Z</time>
  <course>187.02</course>
  <speed>0.0282842712474619</speed>
  <fix>3d</fix>
</trkpt>
<trkpt lat="33.810313" lon="-118.393867">
  <ele>-0.12</ele>
  <time>2026-09-02T22:12:37Z</time>
  <course>0.0</course>
  <speed>0.0</speed>
  <fix>3d</fix>
</trkpt>
<trkpt lat="33.8103131" lon="-118.3938671">
  <ele>-0.13</ele>
  <time>2026-09-02T22:12:37Z</time>
  <course>187.01</course>
  <speed>0.0282842712474619</speed>
  <fix>3d</fix>
</trkpt>
<trkpt lat="33.810313" lon="-118.393867">
  <ele>-0.12</ele>
  <time>2026-09-02T22:12:37Z</time>
  <course>0.0</course>
  <speed>0.0</speed>
  <fix>3d</fix>
</trkpt>
<trkpt lat="33.8103131" lon="-118.3938671">
  <ele>-0.131</ele>
  <time>2026-09-02T22:12:37Z</time>
  <course>187.01</course>
  <speed>0.0282842712474619</speed>
  <fix>3d</fix>
</trkpt>
<trkpt lat="33.810313" lon="-118.393867">
  <ele>-0.12</ele>
  <time>2026-09-02T22:12:37Z</time>
  <course>0.0</course>
  <speed>0.0</speed>
  <fix>3d</fix>
</trkpt>
<trkpt lat="33.8103131" lon="-118.3938671">
  <ele>-0.13</ele>
  <time>2026-09-02T22:12:37Z</time>
  <course>187.0</course>
  <speed>0.0282842712474619</speed>
  <fix>3d</fix>
</trkpt>
<trkpt lat="33.810313" lon="-118.393867">
  <ele>-0.12</ele>
  <time>2026-09-02T22:12:37Z</time>
  <course>0.0</course>
  <speed>0.0</speed>
  <fix>3d</fix>
</trkpt>
<trkpt lat="33.8103131" lon="-118.3938671">
  <ele>-0.13</ele>
  <time>2026-09-02T22:12:37Z</time>
  <course>187.0</course>
  <speed>0.0282842712474619</speed>
  <fix>3d</fix>
</trkpt>
<trkpt lat="33.810313" lon="-118.393867">
  <ele>-0.12</ele>
  <time>2026-09-02T22:12:37Z</time>
  <course>0.0</course>
  <speed>0.0</speed>
  <fix>3d</fix>
</trkpt>
<trkpt lat="33.8103131" lon="-118.3938671">
  <ele>-0.129</ele>
  <time>2026-09-02T22:12:37Z</time>
  <course>186.99</course>
  <speed>0.0282842712474619</speed>
  <fix>3d</fix>
</trkpt>
<trkpt lat="33.810313" lon="-118.393867">
  <ele>-0.12</ele>
  <time>2026-09-02T22:12:37Z</time>
  <course>0.0</course>
  <speed>0.0</speed>
  <fix>3d</fix>
</trkpt>
<trkpt lat="33.8103131" lon="-118.3938671">
  <ele>-0.128</ele>
  <time>2026-09-02T22:12:37Z</time>
  <course>186.99</course>
  <speed>0.03605551275463989</speed>
  <fix>3d</fix>
</trkpt>
<trkpt lat="33.810313" lon="-118.393867">
  <ele>-0.12</ele>
  <time>2026-09-02T22:12:37Z</time>
  <course>0.0</course>
  <speed>0.0</speed>
  <fix>3d</fix>
</trkpt>
<trkpt lat="33.8103131" lon="-118.3938671">
  <ele>-0.128</ele>
  <time>2026-09-02T22:12:37Z</time>
  <course>186.99</course>
  <speed>0.03605551275463989</speed>
  <fix>3d</fix>
</trkpt>
<trkpt lat="33.810313" lon="-118.393867">
  <ele>-0.12</ele>
  <time>2026-09-02T22:12:37Z</time>
  <course>0.0</course>
  <speed>0.0</speed>
  <fix>3d</fix>
</trkpt>
<trkpt lat="33.8103131" lon="-118.3938671">
  <ele>-0.128</ele>
  <time>2026-09-02T22:12:37Z</time>
  <course>186.98</course>
  <speed>0.03605551275463989</speed>
  <fix>3d</fix>
</trkpt>
<trkpt lat="33.810313" lon="-118.393867">
  <ele>-0.12</ele>
  <time>2026-09-02T22:12:37Z</time>
  <course>0.0</course>
  <speed>0.0</speed>
  <fix>3d</fix>
</trkpt>
<trkpt lat="33.8103131" lon="-118.3938671">
  <ele>-0.129</ele>
  <time>2026-09-02T22:12:37Z</time>
  <course>186.98</course>
  <speed>0.03605551275463989</speed>
  <fix>3d</fix>
</trkpt>
<trkpt lat="33.810313" lon="-118.393867">
  <ele>-0.12</ele>
  <time>2026-09-02T22:12:37Z</time>
  <course>0.0</course>
  <speed>0.0</speed>
  <fix>3d</fix>
</trkpt>
<trkpt lat="33.8103131" lon="-118.3938671">
  <ele>-0.132</ele>
  <time>2026-09-02T22:12:37Z</time>
  <course>186.97</course>
  <speed>0.03605551275463989</speed>
  <fix>3d</fix>
</trkpt>
<trkpt lat="33.810313" lon="-118.393867">
  <ele>-0.12</ele>
  <time>2026-09-02T22:12:37Z</time>
  <course>0.0</course>
  <speed>0.0</speed>
  <fix>3d</fix>
</trkpt>
<trkpt lat="33.8103131" lon="-118.3938671">
  <ele>-0.133</ele>
  <time>2026-09-02T22:12:37Z</time>
  <course>186.97</course>
  <speed>0.03605551275463989</speed>
  <fix>3d</fix>
</trkpt>
<trkpt lat="33.810313" lon="-118.393867">
  <ele>-0.12</ele>
  <time>2026-09-02T22:12:37Z</time>
  <course>0.0</course>
  <speed>0.0</speed>
  <fix>3d</fix>
</trkpt>
<trkpt lat="33.8103132" lon="-118.3938671">
  <ele>-0.134</ele>
  <time>2026-09-02T22:12:37Z</time>
  <course>186.96</course>
  <speed>0.03605551275463989</speed>
  <fix>3d</fix>
</trkpt>
<trkpt lat="33.810313" lon="-118.393867">
  <ele>-0.12</ele>
  <time>2026-09-02T22:12:37Z</time>
  <course>0.0</course>
  <speed>0.0</speed>
  <fix>3d</fix>
</trkpt>
<trkpt lat="33.8103132" lon="-118.3938671">
  <ele>-0.132</ele>
  <time>2026-09-02T22:12:37Z</time>
  <course>186.96</course>
  <speed>0.03605551275463989</speed>
  <fix>3d</fix>
</trkpt>
<trkpt lat="33.810313" lon="-118.393867">
  <ele>-0.12</ele>
  <time>2026-09-02T22:12:37Z</time>
  <course>0.0</course>
  <speed>0.0</speed>
  <fix>3d</fix>
</trkpt>
<trkpt lat="33.8103132" lon="-118.3938671">
  <ele>-0.131</ele>
  <time>2026-09-02T22:12:37Z</time>
  <course>186.96</course>
  <speed>0.03605551275463989</speed>
  <fix>3d</fix>
</trkpt>
<trkpt lat="33.810313" lon="-118.393867">
  <ele>-0.12</ele>
  <time>2026-09-02T22:12:37Z</time>
  <course>0.0</course>
  <speed>0.0</speed>
  <fix>3d</fix>
</trkpt>
<trkpt lat="33.8103132" lon="-118.3938671">
  <ele>-0.13</ele>
  <time>2026-09-02T22:12:37Z</time>
  <course>186.95</course>
  <speed>0.03605551275463989</speed>
  <fix>3d</fix>
</trkpt>
<trkpt lat="33.810313" lon="-118.393867">
  <ele>-0.12</ele>
  <time>2026-09-02T22:12:37Z</time>
  <course>0.0</course>
  <speed>0.0</speed>
  <fix>3d</fix>
</trkpt>
<trkpt lat="33.8103132" lon="-118.3938672">
  <ele>-0.129</ele>
  <time>2026-09-02T22:12:37Z</time>
  <course>186.95</course>
  <speed>0.03605551275463989</speed>
  <fix>3d</fix>
</trkpt>
<trkpt lat="33.810313" lon="-118.393867">
  <ele>-0.12</ele>
  <time>2026-09-02T22:12:37Z</time>
  <course>0.0</course>
  <speed>0.0</speed>
  <fix>3d</fix>
</trkpt>
<trkpt lat="33.8103132" lon="-118.3938672">
  <ele>-0.128</ele>
  <time>2026-09-02T22:12:37Z</time>
  <course>186.94</course>
  <speed>0.0282842712474619</speed>
  <fix>3d</fix>
</trkpt>
<trkpt lat="33.810313" lon="-118.393867">
  <ele>-0.12</ele>
  <time>2026-09-02T22:12:37Z</time>
  <course>0.0</course>
  <speed>0.0</speed>
  <fix>3d</fix>
</trkpt>
<trkpt lat="33.8103132" lon="-118.3938672">
  <ele>-0.128</ele>
  <time>2026-09-02T22:12:37Z</time>
  <course>186.94</course>
  <speed>0.0282842712474619</speed>
  <fix>3d</fix>
</trkpt>
<trkpt lat="33.810313" lon="-118.393867">
  <ele>-0.12</ele>
  <time>2026-09-02T22:12:37Z</time>
  <course>0.0</course>
  <speed>0.0</speed>
  <fix>3d</fix>
</trkpt>
<trkpt lat="33.8103132" lon="-118.3938672">
  <ele>-0.127</ele>
  <time>2026-09-02T22:12:37Z</time>
  <course>186.93</course>
  <speed>0.0282842712474619</speed>
  <fix>3d</fix>
</trkpt>
<trkpt lat="33.810313" lon="-118.393867">
  <ele>-0.12</ele>
  <time>2026-09-02T22:12:37Z</time>
  <course>0.0</course>
  <speed>0.0</speed>
  <fix>3d</fix>
</trkpt>
<trkpt lat="33.8103132" lon="-118.3938672">
  <ele>-0.128</ele>
  <time>2026-09-02T22:12:37Z</time>
  <course>186.93</course>
  <speed>0.0282842712474619</speed>
  <fix>3d</fix>
</trkpt>
<trkpt lat="33.810313" lon="-118.393867">
  <ele>-0.12</ele>
  <time>2026-09-02T22:12:37Z</time>
  <course>0.0</course>
  <speed>0.0</speed>
  <fix>3d</fix>
</trkpt>
<trkpt lat="33.8103132" lon="-118.3938672">
  <ele>-0.128</ele>
  <time>2026-09-02T22:12:37Z</time>
  <course>186.93</course>
  <speed>0.0282842712474619</speed>
  <fix>3d</fix>
</trkpt>
<trkpt lat="33.810313" lon="-118.393867">
  <ele>-0.12</ele>
  <time>2026-09-02T22:12:37Z</time>
  <course>0.0</course>
  <speed>0.0</speed>
  <fix>3d</fix>
</trkpt>
<trkpt lat="33.8103132" lon="-118.3938672">
  <ele>-0.127</ele>
  <time>2026-09-02T22:12:37Z</time>
  <course>186.92</course>
  <speed>0.0282842712474619</speed>
  <fix>3d</fix>
</trkpt>
<trkpt lat="33.810313" lon="-118.393867">
  <ele>-0.12</ele>
  <time>2026-09-02T22:12:37Z</time>
  <course>0.0</course>
  <speed>0.0</speed>
  <fix>3d</fix>
</trkpt>
<trkpt lat="33.8103132" lon="-118.3938671">
  <ele>-0.126</ele>
  <time>2026-09-02T22:12:37Z</time>
  <course>186.92</course>
  <speed>0.0282842712474619</speed>
  <fix>3d</fix>
</trkpt>
<trkpt lat="33.810313" lon="-118.393867">
  <ele>-0.12</ele>
  <time>2026-09-02T22:12:37Z</time>
  <course>0.0</course>
  <speed>0.0</speed>
  <fix>3d</fix>
</trkpt>
<trkpt lat="33.8103132" lon="-118.3938671">
  <ele>-0.125</ele>
  <time>2026-09-02T22:12:37Z</time>
  <course>186.92</course>
  <speed>0.0282842712474619</speed>
  <fix>3d</fix>
</trkpt>
<trkpt lat="33.810313" lon="-118.393867">
  <ele>-0.12</ele>
  <time>2026-09-02T22:12:37Z</time>
  <course>0.0</course>
  <speed>0.0</speed>
  <fix>3d</fix>
</trkpt>
<trkpt lat="33.8103132" lon="-118.3938671">
  <ele>-0.124</ele>
  <time>2026-09-02T22:12:37Z</time>
  <course>186.91</course>
  <speed>0.0282842712474619</speed>
  <fix>3d</fix>
</trkpt>
<trkpt lat="33.810313" lon="-118.393867">
  <ele>-0.12</ele>
  <time>2026-09-02T22:12:37Z</time>
  <course>0.0</course>
  <speed>0.0</speed>
  <fix>3d</fix>
</trkpt>
<trkpt lat="33.8103132" lon="-118.3938671">
  <ele>-0.122</ele>
  <time>2026-09-02T22:12:37Z</time>
  <course>186.91</course>
  <speed>0.0282842712474619</speed>
  <fix>3d</fix>
</trkpt>
<trkpt lat="33.810313" lon="-118.393867">
  <ele>-0.12</ele>
  <time>2026-09-02T22:12:37Z</time>
  <course>0.0</course>
  <speed>0.0</speed>
  <fix>3d</fix>
</trkpt>
<trkpt lat="33.8103132" lon="-118.3938671">
  <ele>-0.121</ele>
  <time>2026-09-02T22:12:37Z</time>
  <course>186.91</course>
  <speed>0.0282842712474619</speed>
  <fix>3d</fix>
</trkpt>
<trkpt lat="33.810313" lon="-118.393867">
  <ele>-0.12</ele>
  <time>2026-09-02T22:12:37Z</time>
  <course>0.0</course>
  <speed>0.0</speed>
  <fix>3d</fix>
</trkpt>
<trkpt lat="33.8103132" lon="-118.3938671">
  <ele>-0.12</ele>
  <time>2026-09-02T22:12:37Z</time>
  <course>186.9</course>
  <speed>0.0282842712474619</speed>
  <fix>3d</fix>
</trkpt>
<trkpt lat="33.810313" lon="-118.393867">
  <ele>-0.12</ele>
  <time>2026-09-02T22:12:37Z</time>
  <course>0.0</course>
  <speed>0.0</speed>
  <fix>3d</fix>
</trkpt>
<trkpt lat="33.8103132" lon="-118.3938671">
  <ele>-0.119</ele>
  <time>2026-09-02T22:12:37Z</time>
  <course>186.9</course>
  <speed>0.022360679774997897</speed>
  <fix>3d</fix>
</trkpt>
<trkpt lat="33.810313" lon="-118.393867">
  <ele>-0.12</ele>
  <time>2026-09-02T22:12:37Z</time>
  <course>0.0</course>
  <speed>0.0</speed>
  <fix>3d</fix>
</trkpt>
<trkpt lat="33.8103131" lon="-118.3938671">
  <ele>-0.118</ele>
  <time>2026-09-02T22:12:37Z</time>
  <course>186.89</course>
  <speed>0.022360679774997897</speed>
  <fix>3d</fix>
</trkpt>
<trkpt lat="33.810313" lon="-118.393867">
  <ele>-0.12</ele>
  <time>2026-09-02T22:12:37Z</time>
  <course>0.0</course>
  <speed>0.0</speed>
  <fix>3d</fix>
</trkpt>
<trkpt lat="33.8103131" lon="-118.3938671">
  <ele>-0.119</ele>
  <time>2026-09-02T22:12:37Z</time>
  <course>186.89</course>
  <speed>0.022360679774997897</speed>
  <fix>3d</fix>
</trkpt>
<trkpt lat="33.810313" lon="-118.393867">
  <ele>-0.12</ele>
  <time>2026-09-02T22:12:37Z</time>
  <course>0.0</course>
  <speed>0.0</speed>
  <fix>3d</fix>
</trkpt>
<trkpt lat="33.8103131" lon="-118.3938671">
  <ele>-0.119</ele>
  <time>2026-09-02T22:12:37Z</time>
  <course>186.89</course>
  <speed>0.022360679774997897</speed>
  <fix>3d</fix>
</trkpt>
<trkpt lat="33.810313" lon="-118.393867">
  <ele>-0.12</ele>
  <time>2026-09-02T22:12:37Z</time>
  <course>0.0</course>
  <speed>0.0</speed>
  <fix>3d</fix>
</trkpt>
<trkpt lat="33.8103131" lon="-118.3938671">
  <ele>-0.119</ele>
  <time>2026-09-02T22:12:37Z</time>
  <course>187.48</course>
  <speed>0.022360679774997897</speed>
  <fix>3d</fix>
</trkpt>
<trkpt lat="33.810313" lon="-118.393867">
  <ele>-0.12</ele>
  <time>2026-09-02T22:12:37Z</time>
  <course>338.02</course>
  <speed>0.0</speed>
  <fix>3d</fix>
</trkpt>
<trkpt lat="33.8103132" lon="-118.3938671">
  <ele>-0.119</ele>
  <time>2026-09-02T22:12:38Z</time>
  <course>189.76</course>
  <speed>0.044721359549995794</speed>
  <fix>3d</fix>
</trkpt>
<trkpt lat="33.810313" lon="-118.393867">
  <ele>-0.12</ele>
  <time>2026-09-02T22:12:38Z</time>
  <course>338.02</course>
  <speed>0.0</speed>
  <fix>3d</fix>
</trkpt>
<trkpt lat="33.8103132" lon="-118.3938671">
  <ele>-0.119</ele>
  <time>2026-09-02T22:12:38Z</time>
  <course>192.85</course>
  <speed>0.07280109889280519</speed>
  <fix>3d</fix>
</trkpt>
<trkpt lat="33.810313" lon="-118.393867">
  <ele>-0.12</ele>
  <time>2026-09-02T22:12:38Z</time>
  <course>351.82</course>
  <speed>0.01</speed>
  <fix>3d</fix>
</trkpt>
<trkpt lat="33.8103132" lon="-118.3938671">
  <ele>-0.121</ele>
  <time>2026-09-02T22:12:38Z</time>
  <course>196.3</course>
  <speed>0.1118033988749895</speed>
  <fix>3d</fix>
</trkpt>
<trkpt lat="33.810313" lon="-118.393867">
  <ele>-0.12</ele>
  <time>2026-09-02T22:12:38Z</time>
  <course>351.82</course>
  <speed>0.01</speed>
  <fix>3d</fix>
</trkpt>
<trkpt lat="33.8103133" lon="-118.3938671">
  <ele>-0.124</ele>
  <time>2026-09-02T22:12:38Z</time>
  <course>200.07</course>
  <speed>0.15132745950421556</speed>
  <fix>3d</fix>
</trkpt>
<trkpt lat="33.810313" lon="-118.393867">
  <ele>-0.12</ele>
  <time>2026-09-02T22:12:38Z</time>
  <course>354.01</course>
  <speed>0.06</speed>
  <fix>3d</fix>
</trkpt>
<trkpt lat="33.8103135" lon="-118.3938671">
  <ele>-0.128</ele>
  <time>2026-09-02T22:12:38Z</time>
  <course>204.07</course>
  <speed>0.2009975124224178</speed>
  <fix>3d</fix>
</trkpt>
<trkpt lat="33.810313" lon="-118.393867">
  <ele>-0.12</ele>
  <time>2026-09-02T22:12:38Z</time>
  <course>354.01</course>
  <speed>0.06</speed>
  <fix>3d</fix>
</trkpt>
<trkpt lat="33.8103136" lon="-118.3938671">
  <ele>-0.131</ele>
  <time>2026-09-02T22:12:38Z</time>
  <course>208.36</course>
  <speed>0.260768096208106</speed>
  <fix>3d</fix>
</trkpt>
<trkpt lat="33.8103132" lon="-118.393867">
  <ele>-0.12</ele>
  <time>2026-09-02T22:12:38Z</time>
  <course>355.33</course>
  <speed>0.15</speed>
  <fix>3d</fix>
</trkpt>
<trkpt lat="33.8103139" lon="-118.3938671">
  <ele>-0.135</ele>
  <time>2026-09-02T22:12:38Z</time>
  <course>212.74</course>
  <speed>0.3306055050963308</speed>
  <fix>3d</fix>
</trkpt>
<trkpt lat="33.8103132" lon="-118.393867">
  <ele>-0.12</ele>
  <time>2026-09-02T22:12:38Z</time>
  <course>355.33</course>
  <speed>0.15</speed>
  <fix>3d</fix>
</trkpt>
<trkpt lat="33.8103142" lon="-118.3938671">
  <ele>-0.142</ele>
  <time>2026-09-02T22:12:38Z</time>
  <course>217.31</course>
  <speed>0.4001249804748511</speed>
  <fix>3d</fix>
</trkpt>
<trkpt lat="33.8103136" lon="-118.393867">
  <ele>-0.12</ele>
  <time>2026-09-02T22:12:38Z</time>
  <course>356.16</course>
  <speed>0.27</speed>
  <fix>3d</fix>
</trkpt>
<trkpt lat="33.8103146" lon="-118.3938671">
  <ele>-0.15</ele>
  <time>2026-09-02T22:12:38Z</time>
  <course>222.09</course>
  <speed>0.4801041553663121</speed>
  <fix>3d</fix>
</trkpt>
<trkpt lat="33.8103136" lon="-118.393867">
  <ele>-0.12</ele>
  <time>2026-09-02T22:12:38Z</time>
  <course>356.16</course>
  <speed>0.27</speed>
  <fix>3d</fix>
</trkpt>
<trkpt lat="33.810315" lon="-118.3938671">
  <ele>-0.159</ele>
  <time>2026-09-02T22:12:38Z</time>
  <course>227.04</course>
  <speed>0.5500909015790026</speed>
  <fix>3d</fix>
</trkpt>
<trkpt lat="33.8103141" lon="-118.393867">
  <ele>-0.13</ele>
  <time>2026-09-02T22:12:38Z</time>
  <course>357.06</course>
  <speed>0.41</speed>
  <fix>3d</fix>
</trkpt>
<trkpt lat="33.8103155" lon="-118.3938671">
  <ele>-0.169</ele>
  <time>2026-09-02T22:12:38Z</time>
  <course>232.2</course>
  <speed>0.61</speed>
  <fix>3d</fix>
</trkpt>
<trkpt lat="33.8103141" lon="-118.393867">
  <ele>-0.13</ele>
  <time>2026-09-02T22:12:38Z</time>
  <course>357.06</course>
  <speed>0.41</speed>
  <fix>3d</fix>
</trkpt>
<trkpt lat="33.810316" lon="-118.3938671">
  <ele>-0.18</ele>
  <time>2026-09-02T22:12:38Z</time>
  <course>237.62</course>
  <speed>0.67</speed>
  <fix>3d</fix>
</trkpt>
<trkpt lat="33.810315" lon="-118.3938671">
  <ele>-0.15</ele>
  <time>2026-09-02T22:12:38Z</time>
  <course>358.2</course>
  <speed>0.56</speed>
  <fix>3d</fix>
</trkpt>
<trkpt lat="33.8103165" lon="-118.3938671">
  <ele>-0.193</ele>
  <time>2026-09-02T22:12:38Z</time>
  <course>240.59</course>
  <speed>0.5208646657242167</speed>
  <fix>3d</fix>
</trkpt>
<trkpt lat="33.810315" lon="-118.3938671">
  <ele>-0.15</ele>
  <time>2026-09-02T22:12:38Z</time>
  <course>358.2</course>
  <speed>0.56</speed>
  <fix>3d</fix>
</trkpt>
<trkpt lat="33.8103169" lon="-118.3938671">
  <ele>-0.204</ele>
  <time>2026-09-02T22:12:38Z</time>
  <course>241.8</course>
  <speed>0.4119465984809196</speed>
  <fix>3d</fix>
</trkpt>
<trkpt lat="33.8103161" lon="-118.3938671">
  <ele>-0.17</ele>
  <time>2026-09-02T22:12:38Z</time>
  <course>0.94</course>
  <speed>0.57</speed>
  <fix>3d</fix>
</trkpt>
<trkpt lat="33.8103172" lon="-118.3938671">
  <ele>-0.214</ele>
  <time>2026-09-02T22:12:38Z</time>
  <course>242.57</course>
  <speed>0.3423448553724738</speed>
  <fix>3d</fix>
</trkpt>
<trkpt lat="33.8103161" lon="-118.3938671">
  <ele>-0.17</ele>
  <time>2026-09-02T22:12:38Z</time>
  <course>0.94</course>
  <speed>0.57</speed>
  <fix>3d</fix>
</trkpt>
<trkpt lat="33.8103175" lon="-118.393867">
  <ele>-0.223</ele>
  <time>2026-09-02T22:12:38Z</time>
  <course>243.13</course>
  <speed>0.29274562336608895</speed>
  <fix>3d</fix>
</trkpt>
<trkpt lat="33.8103171" lon="-118.393867">
  <ele>-0.19</ele>
  <time>2026-09-02T22:12:38Z</time>
  <course>5.65</course>
  <speed>0.43</speed>
  <fix>3d</fix>
</trkpt>
<trkpt lat="33.8103177" lon="-118.393867">
  <ele>-0.229</ele>
  <time>2026-09-02T22:12:38Z</time>
  <course>243.57</course>
  <speed>0.25317977802344327</speed>
  <fix>3d</fix>
</trkpt>
<trkpt lat="33.8103171" lon="-118.393867">
  <ele>-0.19</ele>
  <time>2026-09-02T22:12:38Z</time>
  <course>5.65</course>
  <speed>0.43</speed>
  <fix>3d</fix>
</trkpt>
<trkpt lat="33.810318" lon="-118.3938669">
  <ele>-0.234</ele>
  <time>2026-09-02T22:12:38Z</time>
  <course>243.94</course>
  <speed>0.223606797749979</speed>
  <fix>3d</fix>
</trkpt>
<trkpt lat="33.8103177" lon="-118.393867">
  <ele>-0.2</ele>
  <time>2026-09-02T22:12:38Z</time>
  <course>9.85</course>
  <speed>0.32</speed>
  <fix>3d</fix>
</trkpt>
<trkpt lat="33.8103182" lon="-118.3938669">
  <ele>-0.238</ele>
  <time>2026-09-02T22:12:38Z</time>
  <course>244.25</course>
  <speed>0.20223748416156684</speed>
  <fix>3d</fix>
</trkpt>
<trkpt lat="33.8103177" lon="-118.393867">
  <ele>-0.2</ele>
  <time>2026-09-02T22:12:38Z</time>
  <course>9.85</course>
  <speed>0.32</speed>
  <fix>3d</fix>
</trkpt>
<trkpt lat="33.8103184" lon="-118.3938669">
  <ele>-0.242</ele>
  <time>2026-09-02T22:12:38Z</time>
  <course>244.53</course>
  <speed>0.1824828759089466</speed>
  <fix>3d</fix>
</trkpt>
<trkpt lat="33.8103183" lon="-118.3938669">
  <ele>-0.21</ele>
  <time>2026-09-02T22:12:38Z</time>
  <course>12.58</course>
  <speed>0.25</speed>
  <fix>3d</fix>
</trkpt>
<trkpt lat="33.8103185" lon="-118.3938668">
  <ele>-0.245</ele>
  <time>2026-09-02T22:12:38Z</time>
  <course>244.77</course>
  <speed>0.16278820596099705</speed>
  <fix>3d</fix>
</trkpt>
<trkpt lat="33.8103183" lon="-118.3938669">
  <ele>-0.21</ele>
  <time>2026-09-02T22:12:38Z</time>
  <course>12.58</course>
  <speed>0.25</speed>
  <fix>3d</fix>
</trkpt>
<trkpt lat="33.8103187" lon="-118.3938668">
  <ele>-0.248</ele>
  <time>2026-09-02T22:12:38Z</time>
  <course>244.98</course>
  <speed>0.15132745950421556</speed>
  <fix>3d</fix>
</trkpt>
<trkpt lat="33.8103186" lon="-118.3938668">
  <ele>-0.22</ele>
  <time>2026-09-02T22:12:38Z</time>
  <course>14.53</course>
  <speed>0.21</speed>
  <fix>3d</fix>
</trkpt>
<trkpt lat="33.8103189" lon="-118.3938667">
  <ele>-0.25</ele>
  <time>2026-09-02T22:12:38Z</time>
  <course>245.18</course>
  <speed>0.1414213562373095</speed>
  <fix>3d</fix>
</trkpt>
<trkpt lat="33.8103186" lon="-118.3938668">
  <ele>-0.22</ele>
  <time>2026-09-02T22:12:38Z</time>
  <course>14.53</course>
  <speed>0.21</speed>
  <fix>3d</fix>
</trkpt>
<trkpt lat="33.810319" lon="-118.3938667">
  <ele>-0.252</ele>
  <time>2026-09-02T22:12:38Z</time>
  <course>245.36</course>
  <speed>0.13152946437965907</speed>
  <fix>3d</fix>
</trkpt>
<trkpt lat="33.810319" lon="-118.3938667">
  <ele>-0.23</ele>
  <time>2026-09-02T22:12:38Z</time>
  <course>16.0</course>
  <speed>0.18</speed>
  <fix>3d</fix>
</trkpt>
<trkpt lat="33.8103192" lon="-118.3938667">
  <ele>-0.253</ele>
  <time>2026-09-02T22:12:38Z</time>
  <course>245.52</course>
  <speed>0.12041594578792296</speed>
  <fix>3d</fix>
</trkpt>
<trkpt lat="33.810319" lon="-118.3938667">
  <ele>-0.23</ele>
  <time>2026-09-02T22:12:38Z</time>
  <course>16.0</course>
  <speed>0.18</speed>
  <fix>3d</fix>
</trkpt>
<trkpt lat="33.8103193" lon="-118.3938666">
  <ele>-0.252</ele>
  <time>2026-09-02T22:12:38Z</time>
  <course>245.67</course>
  <speed>0.11045361017187261</speed>
  <fix>3d</fix>
</trkpt>
<trkpt lat="33.8103193" lon="-118.3938665">
  <ele>-0.24</ele>
  <time>2026-09-02T22:12:38Z</time>
  <course>17.15</course>
  <speed>0.16</speed>
  <fix>3d</fix>
</trkpt>
<trkpt lat="33.8103194" lon="-118.3938666">
  <ele>-0.251</ele>
  <time>2026-09-02T22:12:38Z</time>
  <course>245.82</course>
  <speed>0.11045361017187261</speed>
  <fix>3d</fix>
</trkpt>
<trkpt lat="33.8103193" lon="-118.3938665">
  <ele>-0.24</ele>
  <time>2026-09-02T22:12:38Z</time>
  <course>17.15</course>
  <speed>0.16</speed>
  <fix>3d</fix>
</trkpt>
<trkpt lat="33.8103195" lon="-118.3938666">
  <ele>-0.249</ele>
  <time>2026-09-02T22:12:38Z</time>
  <course>245.95</course>
  <speed>0.1004987562112089</speed>
  <fix>3d</fix>
</trkpt>
<trkpt lat="33.8103196" lon="-118.3938664">
  <ele>-0.24</ele>
  <time>2026-09-02T22:12:38Z</time>
  <course>18.1</course>
  <speed>0.14</speed>
  <fix>3d</fix>
</trkpt>
<trkpt lat="33.8103196" lon="-118.3938665">
  <ele>-0.247</ele>
  <time>2026-09-02T22:12:38Z</time>
  <course>246.08</course>
  <speed>0.1</speed>
  <fix>3d</fix>
</trkpt>
<trkpt lat="33.8103196" lon="-118.3938664">
  <ele>-0.24</ele>
  <time>2026-09-02T22:12:38Z</time>
  <course>18.1</course>
  <speed>0.14</speed>
  <fix>3d</fix>
</trkpt>
<trkpt lat="33.8103198" lon="-118.3938665">
  <ele>-0.245</ele>
  <time>2026-09-02T22:12:38Z</time>
  <course>246.19</course>
  <speed>0.09</speed>
  <fix>3d</fix>
</trkpt>
<trkpt lat="33.8103198" lon="-118.3938664">
  <ele>-0.24</ele>
  <time>2026-09-02T22:12:38Z</time>
  <course>18.88</course>
  <speed>0.13</speed>
  <fix>3d</fix>
</trkpt>
<trkpt lat="33.8103199" lon="-118.3938665">
  <ele>-0.242</ele>
  <time>2026-09-02T22:12:38Z</time>
  <course>246.3</course>
  <speed>0.09</speed>
  <fix>3d</fix>
</trkpt>
<trkpt lat="33.8103198" lon="-118.3938664">
  <ele>-0.24</ele>
  <time>2026-09-02T22:12:38Z</time>
  <course>18.88</course>
  <speed>0.13</speed>
  <fix>3d</fix>
</trkpt>
<trkpt lat="33.81032" lon="-118.3938665">
  <ele>-0.239</ele>
  <time>2026-09-02T22:12:38Z</time>
  <course>246.41</course>
  <speed>0.08</speed>
  <fix>3d</fix>
</trkpt>
<trkpt lat="33.81032" lon="-118.3938663">
  <ele>-0.23</ele>
  <time>2026-09-02T22:12:38Z</time>
  <course>19.55</course>
  <speed>0.11</speed>
  <fix>3d</fix>
</trkpt>
<trkpt lat="33.8103201" lon="-118.3938664">
  <ele>-0.234</ele>
  <time>2026-09-02T22:12:38Z</time>
  <course>246.51</course>
  <speed>0.08</speed>
  <fix>3d</fix>
</trkpt>
<trkpt lat="33.81032" lon="-118.3938663">
  <ele>-0.23</ele>
  <time>2026-09-02T22:12:38Z</time>
  <course>19.55</course>
  <speed>0.11</speed>
  <fix>3d</fix>
</trkpt>
<trkpt lat="33.8103201" lon="-118.3938664">
  <ele>-0.23</ele>
  <time>2026-09-02T22:12:38Z</time>
  <course>246.6</course>
  <speed>0.08</speed>
  <fix>3d</fix>
</trkpt>
<trkpt lat="33.8103202" lon="-118.3938662">
  <ele>-0.23</ele>
  <time>2026-09-02T22:12:38Z</time>
  <course>20.13</course>
  <speed>0.1</speed>
  <fix>3d</fix>
</trkpt>
<trkpt lat="33.8103202" lon="-118.3938664">
  <ele>-0.225</ele>
  <time>2026-09-02T22:12:38Z</time>
  <course>246.69</course>
  <speed>0.08</speed>
  <fix>3d</fix>
</trkpt>
<trkpt lat="33.8103202" lon="-118.3938662">
  <ele>-0.23</ele>
  <time>2026-09-02T22:12:38Z</time>
  <course>20.13</course>
  <speed>0.1</speed>
  <fix>3d</fix>
</trkpt>
<trkpt lat="33.8103203" lon="-118.3938664">
  <ele>-0.22</ele>
  <time>2026-09-02T22:12:38Z</time>
  <course>246.78</course>
  <speed>0.07</speed>
  <fix>3d</fix>
</trkpt>
<trkpt lat="33.8103203" lon="-118.3938661">
  <ele>-0.22</ele>
  <time>2026-09-02T22:12:38Z</time>
  <course>20.64</course>
  <speed>0.1</speed>
  <fix>3d</fix>
</trkpt>
<trkpt lat="33.8103204" lon="-118.3938663">
  <ele>-0.215</ele>
  <time>2026-09-02T22:12:38Z</time>
  <course>246.86</course>
  <speed>0.07</speed>
  <fix>3d</fix>
</trkpt>
<trkpt lat="33.8103203" lon="-118.3938661">
  <ele>-0.22</ele>
  <time>2026-09-02T22:12:38Z</time>
  <course>20.64</course>
  <speed>0.1</speed>
  <fix>3d</fix>
</trkpt>
<trkpt lat="33.8103207" lon="-118.3938662">
  <ele>-0.19</ele>
  <time>2026-09-02T22:12:38Z</time>
  <course>247.16</course>
  <speed>0.06</speed>
  <fix>3d</fix>
</trkpt>
<trkpt lat="33.8103207" lon="-118.393866">
  <ele>-0.2</ele>
  <time>2026-09-02T22:12:38Z</time>
  <course>21.5</course>
  <speed>0.08</speed>
  <fix>3d</fix>
</trkpt>
<trkpt lat="33.8103209" lon="-118.3938661">
  <ele>-0.164</ele>
  <time>2026-09-02T22:12:38Z</time>
  <course>247.36</course>
  <speed>0.06</speed>
  <fix>3d</fix>
</trkpt>
<trkpt lat="33.810321" lon="-118.3938658">
  <ele>-0.17</ele>
  <time>2026-09-02T22:12:38Z</time>
  <course>22.19</course>
  <speed>0.07</speed>
  <fix>3d</fix>
</trkpt>
<trkpt lat="33.810321" lon="-118.3938661">
  <ele>-0.154</ele>
  <time>2026-09-02T22:12:38Z</time>
  <course>247.43</course>
  <speed>0.06</speed>
  <fix>3d</fix>
</trkpt>
<trkpt lat="33.810321" lon="-118.3938658">
  <ele>-0.17</ele>
  <time>2026-09-02T22:12:38Z</time>
  <course>22.19</course>
  <speed>0.07</speed>
  <fix>3d</fix>
</trkpt>
<trkpt lat="33.810321" lon="-118.3938661">
  <ele>-0.145</ele>
  <time>2026-09-02T22:12:38Z</time>
  <course>247.49</course>
  <speed>0.06</speed>
  <fix>3d</fix>
</trkpt>
<trkpt lat="33.8103211" lon="-118.3938658">
  <ele>-0.16</ele>
  <time>2026-09-02T22:12:38Z</time>
  <course>22.49</course>
  <speed>0.07</speed>
  <fix>3d</fix>
</trkpt>
<trkpt lat="33.8103211" lon="-118.393866">
  <ele>-0.135</ele>
  <time>2026-09-02T22:12:38Z</time>
  <course>247.55</course>
  <speed>0.06</speed>
  <fix>3d</fix>
</trkpt>
<trkpt lat="33.8103211" lon="-118.3938658">
  <ele>-0.16</ele>
  <time>2026-09-02T22:12:38Z</time>
  <course>22.49</course>
  <speed>0.07</speed>
  <fix>3d</fix>
</trkpt>
<trkpt lat="33.8103212" lon="-118.393866">
  <ele>-0.125</ele>
  <time>2026-09-02T22:12:38Z</time>
  <course>247.61</course>
  <speed>0.06</speed>
  <fix>3d</fix>
</trkpt>
<trkpt lat="33.8103212" lon="-118.3938657">
  <ele>-0.14</ele>
  <time>2026-09-02T22:12:38Z</time>
  <course>22.77</course>
  <speed>0.06</speed>
  <fix>3d</fix>
</trkpt>
<trkpt lat="33.8103212" lon="-118.393866">
  <ele>-0.117</ele>
  <time>2026-09-02T22:12:38Z</time>
  <course>247.66</course>
  <speed>0.06</speed>
  <fix>3d</fix>
</trkpt>
<trkpt lat="33.8103212" lon="-118.3938657">
  <ele>-0.14</ele>
  <time>2026-09-02T22:12:38Z</time>
  <course>22.77</course>
  <speed>0.06</speed>
  <fix>3d</fix>
</trkpt>
<trkpt lat="33.8103213" lon="-118.393866">
  <ele>-0.108</ele>
  <time>2026-09-02T22:12:38Z</time>
  <course>247.72</course>
  <speed>0.06</speed>
  <fix>3d</fix>
</trkpt>
<trkpt lat="33.8103213" lon="-118.3938657">
  <ele>-0.13</ele>
  <time>2026-09-02T22:12:38Z</time>
  <course>23.03</course>
  <speed>0.06</speed>
  <fix>3d</fix>
</trkpt>
<trkpt lat="33.8103214" lon="-118.3938659">
  <ele>-0.101</ele>
  <time>2026-09-02T22:12:38Z</time>
  <course>247.77</course>
  <speed>0.06</speed>
  <fix>3d</fix>
</trkpt>
<trkpt lat="33.8103213" lon="-118.3938657">
  <ele>-0.13</ele>
  <time>2026-09-02T22:12:38Z</time>
  <course>23.03</course>
  <speed>0.06</speed>
  <fix>3d</fix>
</trkpt>
<trkpt lat="33.8103214" lon="-118.3938659">
  <ele>-0.1</ele>
  <time>2026-09-02T22:12:38Z</time>
  <course>247.82</course>
  <speed>0.05</speed>
  <fix>3d</fix>
</trkpt>
<trkpt lat="33.8103214" lon="-118.3938656">
  <ele>-0.11</ele>
  <time>2026-09-02T22:12:38Z</time>
  <course>23.27</course>
  <speed>0.06</speed>
  <fix>3d</fix>
</trkpt>
<trkpt lat="33.8103215" lon="-118.3938659">
  <ele>-0.104</ele>
  <time>2026-09-02T22:12:38Z</time>
  <course>247.87</course>
  <speed>0.05</speed>
  <fix>3d</fix>
</trkpt>
<trkpt lat="33.8103214" lon="-118.3938656">
  <ele>-0.11</ele>
  <time>2026-09-02T22:12:38Z</time>
  <course>23.27</course>
  <speed>0.06</speed>
  <fix>3d</fix>
</trkpt>
<trkpt lat="33.8103215" lon="-118.3938658">
  <ele>-0.112</ele>
  <time>2026-09-02T22:12:38Z</time>
  <course>247.92</course>
  <speed>0.05</speed>
  <fix>3d</fix>
</trkpt>
<trkpt lat="33.8103215" lon="-118.3938656">
  <ele>-0.11</ele>
  <time>2026-09-02T22:12:38Z</time>
  <course>23.5</course>
  <speed>0.06</speed>
  <fix>3d</fix>
</trkpt>
<trkpt lat="33.8103216" lon="-118.3938658">
  <ele>-0.121</ele>
  <time>2026-09-02T22:12:38Z</time>
  <course>247.97</course>
  <speed>0.05</speed>
  <fix>3d</fix>
</trkpt>
<trkpt lat="33.8103215" lon="-118.3938656">
  <ele>-0.11</ele>
  <time>2026-09-02T22:12:38Z</time>
  <course>23.5</course>
  <speed>0.06</speed>
  <fix>3d</fix>
</trkpt>
<trkpt lat="33.8103216" lon="-118.3938658">
  <ele>-0.131</ele>
  <time>2026-09-02T22:12:38Z</time>
  <course>248.02</course>
  <speed>0.05</speed>
  <fix>3d</fix>
</trkpt>
<trkpt lat="33.8103216" lon="-118.3938655">
  <ele>-0.12</ele>
  <time>2026-09-02T22:12:38Z</time>
  <course>23.7</course>
  <speed>0.05</speed>
  <fix>3d</fix>
</trkpt>
<trkpt lat="33.8103217" lon="-118.3938658">
  <ele>-0.139</ele>
  <time>2026-09-02T22:12:38Z</time>
  <course>248.06</course>
  <speed>0.05</speed>
  <fix>3d</fix>
</trkpt>
<trkpt lat="33.8103216" lon="-118.3938655">
  <ele>-0.12</ele>
  <time>2026-09-02T22:12:38Z</time>
  <course>23.7</course>
  <speed>0.05</speed>
  <fix>3d</fix>
</trkpt>
<trkpt lat="33.4365946" lon="-117.0852142">
  <ele>-0.11</ele>
  <time>2026-09-02T22:12:39Z</time>
  <course>0.0</course>
  <speed>0.0</speed>
  <fix>3d</fix>
</trkpt>
<trkpt lat="33.4365946" lon="-117.0852142">
  <ele>-0.11</ele>
  <time>2026-09-02T22:12:39Z</time>
  <course>0.0</course>
  <speed>0.0</speed>
  <fix>3d</fix>
</trkpt>
<trkpt lat="33.810313" lon="-118.393867">
  <ele>0.0</ele>
  <time>2026-09-02T22:12:39Z</time>
  <course>173.5</course>
  <speed>0.0</speed>
  <fix>3d</fix>
</trkpt>
<trkpt lat="33.810313" lon="-118.393867">
  <ele>-0.11</ele>
  <time>2026-09-02T22:12:39Z</time>
  <course>0.0</course>
  <speed>0.0</speed>
  <fix>3d</fix>
</trkpt>
<trkpt lat="33.810313" lon="-118.393867">
  <ele>0.0</ele>
  <time>2026-09-02T22:12:39Z</time>
  <course>173.64</course>
  <speed>0.0</speed>
  <fix>3d</fix>
</trkpt>
<trkpt lat="33.810313" lon="-118.393867">
  <ele>-0.11</ele>
  <time>2026-09-02T22:12:39Z</time>
  <course>0.0</course>
  <speed>0.0</speed>
  <fix>3d</fix>
</trkpt>
<trkpt lat="33.810313" lon="-118.393867">
  <ele>0.0</ele>
  <time>2026-09-02T22:12:39Z</time>
  <course>174.03</course>
  <speed>0.0</speed>
  <fix>3d</fix>
</trkpt>
<trkpt lat="33.810313" lon="-118.393867">
  <ele>-0.11</ele>
  <time>2026-09-02T22:12:39Z</time>
  <course>0.0</course>
  <speed>0.0</speed>
  <fix>3d</fix>
</trkpt>
<trkpt lat="33.810313" lon="-118.393867">
  <ele>0.0</ele>
  <time>2026-09-02T22:12:39Z</time>
  <course>174.57</course>
  <speed>0.0</speed>
  <fix>3d</fix>
</trkpt>
<trkpt lat="33.810313" lon="-118.393867">
  <ele>-0.11</ele>
  <time>2026-09-02T22:12:39Z</time>
  <course>0.0</course>
  <speed>0.0</speed>
  <fix>3d</fix>
</trkpt>
<trkpt lat="33.810313" lon="-118.393867">
  <ele>0.0</ele>
  <time>2026-09-02T22:12:39Z</time>
  <course>175.13</course>
  <speed>0.0</speed>
  <fix>3d</fix>
</trkpt>
<trkpt lat="33.810313" lon="-118.393867">
  <ele>-0.12</ele>
  <time>2026-09-02T22:12:39Z</time>
  <course>0.0</course>
  <speed>0.0</speed>
  <fix>3d</fix>
</trkpt>
<trkpt lat="33.810313" lon="-118.393867">
  <ele>0.0</ele>
  <time>2026-09-02T22:12:39Z</time>
  <course>175.67</course>
  <speed>0.0</speed>
  <fix>3d</fix>
</trkpt>
<trkpt lat="33.810313" lon="-118.393867">
  <ele>-0.12</ele>
  <time>2026-09-02T22:12:39Z</time>
  <course>0.0</course>
  <speed>0.0</speed>
  <fix>3d</fix>
</trkpt>
<trkpt lat="33.810313" lon="-118.393867">
  <ele>0.0</ele>
  <time>2026-09-02T22:12:39Z</time>
  <course>176.17</course>
  <speed>0.0</speed>
  <fix>3d</fix>
</trkpt>
<trkpt lat="33.810313" lon="-118.393867">
  <ele>-0.13</ele>
  <time>2026-09-02T22:12:39Z</time>
  <course>0.0</course>
  <speed>0.0</speed>
  <fix>3d</fix>
</trkpt>
<trkpt lat="33.810313" lon="-118.393867">
  <ele>0.0</ele>
  <time>2026-09-02T22:12:39Z</time>
  <course>176.65</course>
  <speed>0.0</speed>
  <fix>3d</fix>
</trkpt>
<trkpt lat="33.810313" lon="-118.393867">
  <ele>-0.13</ele>
  <time>2026-09-02T22:12:39Z</time>
  <course>0.0</course>
  <speed>0.0</speed>
  <fix>3d</fix>
</trkpt>
<trkpt lat="33.810313" lon="-118.393867">
  <ele>0.0</ele>
  <time>2026-09-02T22:12:39Z</time>
  <course>177.12</course>
  <speed>0.0</speed>
  <fix>3d</fix>
</trkpt>
<trkpt lat="33.810313" lon="-118.393867">
  <ele>-0.13</ele>
  <time>2026-09-02T22:12:39Z</time>
  <course>0.0</course>
  <speed>0.0</speed>
  <fix>3d</fix>
</trkpt>
<trkpt lat="33.810313" lon="-118.393867">
  <ele>0.0</ele>
  <time>2026-09-02T22:12:39Z</time>
  <course>177.57</course>
  <speed>0.0</speed>
  <fix>3d</fix>
</trkpt>
<trkpt lat="33.810313" lon="-118.393867">
  <ele>-0.13</ele>
  <time>2026-09-02T22:12:39Z</time>
  <course>0.0</course>
  <speed>0.0</speed>
  <fix>3d</fix>
</trkpt>
<trkpt lat="33.810313" lon="-118.393867">
  <ele>0.0</ele>
  <time>2026-09-02T22:12:39Z</time>
  <course>178.02</course>
  <speed>0.0</speed>
  <fix>3d</fix>
</trkpt>
<trkpt lat="33.810313" lon="-118.393867">
  <ele>-0.14</ele>
  <time>2026-09-02T22:12:39Z</time>
  <course>0.0</course>
  <speed>0.0</speed>
  <fix>3d</fix>
</trkpt>
<trkpt lat="33.810313" lon="-118.393867">
  <ele>0.0</ele>
  <time>2026-09-02T22:12:39Z</time>
  <course>178.45</course>
  <speed>0.0</speed>
  <fix>3d</fix>
</trkpt>
<trkpt lat="33.810313" lon="-118.393867">
  <ele>-0.14</ele>
  <time>2026-09-02T22:12:39Z</time>
  <course>0.0</course>
  <speed>0.0</speed>
  <fix>3d</fix>
</trkpt>
<trkpt lat="33.810313" lon="-118.393867">
  <ele>0.0</ele>
  <time>2026-09-02T22:12:39Z</time>
  <course>178.87</course>
  <speed>0.0</speed>
  <fix>3d</fix>
</trkpt>
<trkpt lat="33.810313" lon="-118.393867">
  <ele>-0.14</ele>
  <time>2026-09-02T22:12:39Z</time>
  <course>0.0</course>
  <speed>0.0</speed>
  <fix>3d</fix>
</trkpt>
<trkpt lat="33.810313" lon="-118.393867">
  <ele>0.0</ele>
  <time>2026-09-02T22:12:39Z</time>
  <course>179.27</course>
  <speed>0.0</speed>
  <fix>3d</fix>
</trkpt>
<trkpt lat="33.810313" lon="-118.393867">
  <ele>-0.14</ele>
  <time>2026-09-02T22:12:39Z</time>
  <course>0.0</course>
  <speed>0.0</speed>
  <fix>3d</fix>
</trkpt>
<trkpt lat="33.810313" lon="-118.393867">
  <ele>0.0</ele>
  <time>2026-09-02T22:12:39Z</time>
  <course>179.66</course>
  <speed>0.0</speed>
  <fix>3d</fix>
</trkpt>
<trkpt lat="33.810313" lon="-118.393867">
  <ele>-0.14</ele>
  <time>2026-09-02T22:12:39Z</time>
  <course>0.0</course>
  <speed>0.0</speed>
  <fix>3d</fix>
</trkpt>
<trkpt lat="33.810313" lon="-118.393867">
  <ele>0.0</ele>
  <time>2026-09-02T22:12:39Z</time>
  <course>180.05</course>
  <speed>0.0</speed>
  <fix>3d</fix>
</trkpt>
<trkpt lat="33.810313" lon="-118.393867">
  <ele>-0.14</ele>
  <time>2026-09-02T22:12:39Z</time>
  <course>0.0</course>
  <speed>0.0</speed>
  <fix>3d</fix>
</trkpt>
<trkpt lat="33.810313" lon="-118.393867">
  <ele>0.0</ele>
  <time>2026-09-02T22:12:39Z</time>
  <course>180.41</course>
  <speed>0.0</speed>
  <fix>3d</fix>
</trkpt>
<trkpt lat="33.810313" lon="-118.393867">
  <ele>-0.14</ele>
  <time>2026-09-02T22:12:39Z</time>
  <course>0.0</course>
  <speed>0.0</speed>
  <fix>3d</fix>
</trkpt>
<trkpt lat="33.810313" lon="-118.393867">
  <ele>0.0</ele>
  <time>2026-09-02T22:12:39Z</time>
  <course>180.76</course>
  <speed>0.0</speed>
  <fix>3d</fix>
</trkpt>
<trkpt lat="33.810313" lon="-118.393867">
  <ele>-0.14</ele>
  <time>2026-09-02T22:12:39Z</time>
  <course>0.0</course>
  <speed>0.0</speed>
  <fix>3d</fix>
</trkpt>
<trkpt lat="33.810313" lon="-118.393867">
  <ele>0.0</ele>
  <time>2026-09-02T22:12:39Z</time>
  <course>181.1</course>
  <speed>0.0</speed>
  <fix>3d</fix>
</trkpt>
<trkpt lat="33.810313" lon="-118.393867">
  <ele>-0.13</ele>
  <time>2026-09-02T22:12:39Z</time>
  <course>0.0</course>
  <speed>0.0</speed>
  <fix>3d</fix>
</trkpt>
<trkpt lat="33.810313" lon="-118.393867">
  <ele>0.0</ele>
  <time>2026-09-02T22:12:39Z</time>
  <course>181.43</course>
  <speed>0.0</speed>
  <fix>3d</fix>
</trkpt>
<trkpt lat="33.810313" lon="-118.393867">
  <ele>-0.13</ele>
  <time>2026-09-02T22:12:39Z</time>
  <course>0.0</course>
  <speed>0.0</speed>
  <fix>3d</fix>
</trkpt>
<trkpt lat="33.810313" lon="-118.393867">
  <ele>0.0</ele>
  <time>2026-09-02T22:12:39Z</time>
  <course>181.75</course>
  <speed>0.0</speed>
  <fix>3d</fix>
</trkpt>
<trkpt lat="33.810313" lon="-118.393867">
  <ele>-0.12</ele>
  <time>2026-09-02T22:12:39Z</time>
  <course>0.0</course>
  <speed>0.0</speed>
  <fix>3d</fix>
</trkpt>
<trkpt lat="33.810313" lon="-118.393867">
  <ele>0.0</ele>
  <time>2026-09-02T22:12:39Z</time>
  <course>182.05</course>
  <speed>0.0</speed>
  <fix>3d</fix>
</trkpt>
<trkpt lat="33.810313" lon="-118.393867">
  <ele>-0.12</ele>
  <time>2026-09-02T22:12:39Z</time>
  <course>0.0</course>
  <speed>0.0</speed>
  <fix>3d</fix>
</trkpt>
<trkpt lat="33.810313" lon="-118.393867">
  <ele>0.0</ele>
  <time>2026-09-02T22:12:39Z</time>
  <course>182.35</course>
  <speed>0.0</speed>
  <fix>3d</fix>
</trkpt>
<trkpt lat="33.810313" lon="-118.393867">
  <ele>-0.12</ele>
  <time>2026-09-02T22:12:39Z</time>
  <course>0.0</course>
  <speed>0.0</speed>
  <fix>3d</fix>
</trkpt>
<trkpt lat="33.810313" lon="-118.393867">
  <ele>0.0</ele>
  <time>2026-09-02T22:12:39Z</time>
  <course>182.63</course>
  <speed>0.0</speed>
  <fix>3d</fix>
</trkpt>
<trkpt lat="33.810313" lon="-118.393867">
  <ele>-0.12</ele>
  <time>2026-09-02T22:12:39Z</time>
  <course>0.0</course>
  <speed>0.0</speed>
  <fix>3d</fix>
</trkpt>
<trkpt lat="33.810313" lon="-118.393867">
  <ele>0.0</ele>
  <time>2026-09-02T22:12:39Z</time>
  <course>182.9</course>
  <speed>0.0</speed>
  <fix>3d</fix>
</trkpt>
<trkpt lat="33.810313" lon="-118.393867">
  <ele>-0.11</ele>
  <time>2026-09-02T22:12:39Z</time>
  <course>0.0</course>
  <speed>0.0</speed>
  <fix>3d</fix>
</trkpt>
<trkpt lat="33.810313" lon="-118.393867">
  <ele>0.0</ele>
  <time>2026-09-02T22:12:39Z</time>
  <course>183.16</course>
  <speed>0.0</speed>
  <fix>3d</fix>
</trkpt>
<trkpt lat="33.810313" lon="-118.393867">
  <ele>-0.11</ele>
  <time>2026-09-02T22:12:39Z</time>
  <course>0.0</course>
  <speed>0.0</speed>
  <fix>3d</fix>
</trkpt>
<trkpt lat="33.810313" lon="-118.393867">
  <ele>0.0</ele>
  <time>2026-09-02T22:12:39Z</time>
  <course>183.41</course>
  <speed>0.0</speed>
  <fix>3d</fix>
</trkpt>
<trkpt lat="33.810313" lon="-118.393867">
  <ele>-0.11</ele>
  <time>2026-09-02T22:12:39Z</time>
  <course>0.0</course>
  <speed>0.0</speed>
  <fix>3d</fix>
</trkpt>
<trkpt lat="33.810313" lon="-118.393867">
  <ele>0.0</ele>
  <time>2026-09-02T22:12:39Z</time>
  <course>183.65</course>
  <speed>0.0</speed>
  <fix>3d</fix>
</trkpt>
<trkpt lat="33.810313" lon="-118.393867">
  <ele>-0.11</ele>
  <time>2026-09-02T22:12:39Z</time>
  <course>0.0</course>
  <speed>0.0</speed>
  <fix>3d</fix>
</trkpt>
<trkpt lat="33.810313" lon="-118.393867">
  <ele>0.0</ele>
  <time>2026-09-02T22:12:39Z</time>
  <course>183.88</course>
  <speed>0.0</speed>
  <fix>3d</fix>
</trkpt>
<trkpt lat="33.810313" lon="-118.393867">
  <ele>-0.12</ele>
  <time>2026-09-02T22:12:39Z</time>
  <course>0.0</course>
  <speed>0.0</speed>
  <fix>3d</fix>
</trkpt>
<trkpt lat="33.810313" lon="-118.393867">
  <ele>0.0</ele>
  <time>2026-09-02T22:12:39Z</time>
  <course>184.11</course>
  <speed>0.0</speed>
  <fix>3d</fix>
</trkpt>
<trkpt lat="33.810313" lon="-118.393867">
  <ele>-0.12</ele>
  <time>2026-09-02T22:12:39Z</time>
  <course>0.0</course>
  <speed>0.0</speed>
  <fix>3d</fix>
</trkpt>
<trkpt lat="33.810313" lon="-118.393867">
  <ele>0.0</ele>
  <time>2026-09-02T22:12:39Z</time>
  <course>184.32</course>
  <speed>0.0</speed>
  <fix>3d</fix>
</trkpt>
<trkpt lat="33.810313" lon="-118.393867">
  <ele>-0.13</ele>
  <time>2026-09-02T22:12:39Z</time>
  <course>0.0</course>
  <speed>0.0</speed>
  <fix>3d</fix>
</trkpt>
<trkpt lat="33.810313" lon="-118.393867">
  <ele>0.0</ele>
  <time>2026-09-02T22:12:39Z</time>
  <course>184.53</course>
  <speed>0.0</speed>
  <fix>3d</fix>
</trkpt>
<trkpt lat="33.810313" lon="-118.393867">
  <ele>-0.13</ele>
  <time>2026-09-02T22:12:39Z</time>
  <course>0.0</course>
  <speed>0.0</speed>
  <fix>3d</fix>
</trkpt>
<trkpt lat="33.810313" lon="-118.393867">
  <ele>0.0</ele>
  <time>2026-09-02T22:12:39Z</time>
  <course>184.72</course>
  <speed>0.0</speed>
  <fix>3d</fix>
</trkpt>
<trkpt lat="33.810313" lon="-118.393867">
  <ele>-0.13</ele>
  <time>2026-09-02T22:12:39Z</time>
  <course>0.0</course>
  <speed>0.0</speed>
  <fix>3d</fix>
</trkpt>
<trkpt lat="33.810313" lon="-118.393867">
  <ele>0.0</ele>
  <time>2026-09-02T22:12:39Z</time>
  <course>184.91</course>
  <speed>0.0</speed>
  <fix>3d</fix>
</trkpt>
<trkpt lat="33.810313" lon="-118.393867">
  <ele>-0.13</ele>
  <time>2026-09-02T22:12:39Z</time>
  <course>0.0</course>
  <speed>0.0</speed>
  <fix>3d</fix>
</trkpt>
<trkpt lat="33.810313" lon="-118.393867">
  <ele>0.0</ele>
  <time>2026-09-02T22:12:39Z</time>
  <course>185.09</course>
  <speed>0.0</speed>
  <fix>3d</fix>
</trkpt>
<trkpt lat="33.810313" lon="-118.393867">
  <ele>-0.14</ele>
  <time>2026-09-02T22:12:39Z</time>
  <course>0.0</course>
  <speed>0.0</speed>
  <fix>3d</fix>
</trkpt>
<trkpt lat="33.810313" lon="-118.393867">
  <ele>0.0</ele>
  <time>2026-09-02T22:12:39Z</time>
  <course>185.26</course>
  <speed>0.0</speed>
  <fix>3d</fix>
</trkpt>
<trkpt lat="33.810313" lon="-118.393867">
  <ele>-0.14</ele>
  <time>2026-09-02T22:12:39Z</time>
  <course>0.0</course>
  <speed>0.0</speed>
  <fix>3d</fix>
</trkpt>
<trkpt lat="33.810313" lon="-118.393867">
  <ele>0.0</ele>
  <time>2026-09-02T22:12:39Z</time>
  <course>185.42</course>
  <speed>0.0</speed>
  <fix>3d</fix>
</trkpt>
<trkpt lat="33.810313" lon="-118.393867">
  <ele>-0.13</ele>
  <time>2026-09-02T22:12:39Z</time>
  <course>0.0</course>
  <speed>0.0</speed>
  <fix>3d</fix>
</trkpt>
<trkpt lat="33.810313" lon="-118.393867">
  <ele>0.0</ele>
  <time>2026-09-02T22:12:39Z</time>
  <course>185.58</course>
  <speed>0.0</speed>
  <fix>3d</fix>
</trkpt>
<trkpt lat="33.810313" lon="-118.393867">
  <ele>-0.13</ele>
  <time>2026-09-02T22:12:39Z</time>
  <course>0.0</course>
  <speed>0.0</speed>
  <fix>3d</fix>
</trkpt>
<trkpt lat="33.810313" lon="-118.393867">
  <ele>0.0</ele>
  <time>2026-09-02T22:12:39Z</time>
  <course>185.73</course>
  <speed>0.0</speed>
  <fix>3d</fix>
</trkpt>
<trkpt lat="33.810313" lon="-118.393867">
  <ele>-0.13</ele>
  <time>2026-09-02T22:12:39Z</time>
  <course>0.0</course>
  <speed>0.0</speed>
  <fix>3d</fix>
</trkpt>
<trkpt lat="33.810313" lon="-118.393867">
  <ele>0.0</ele>
  <time>2026-09-02T22:12:39Z</time>
  <course>185.88</course>
  <speed>0.0</speed>
  <fix>3d</fix>
</trkpt>
<trkpt lat="33.810313" lon="-118.393867">
  <ele>-0.13</ele>
  <time>2026-09-02T22:12:39Z</time>
  <course>0.0</course>
  <speed>0.0</speed>
  <fix>3d</fix>
</trkpt>
<trkpt lat="33.810313" lon="-118.393867">
  <ele>0.0</ele>
  <time>2026-09-02T22:12:39Z</time>
  <course>186.01</course>
  <speed>0.0</speed>
  <fix>3d</fix>
</trkpt>
<trkpt lat="33.810313" lon="-118.393867">
  <ele>-0.12</ele>
  <time>2026-09-02T22:12:39Z</time>
  <course>0.0</course>
  <speed>0.0</speed>
  <fix>3d</fix>
</trkpt>
<trkpt lat="33.810313" lon="-118.393867">
  <ele>0.0</ele>
  <time>2026-09-02T22:12:39Z</time>
  <course>186.15</course>
  <speed>0.0</speed>
  <fix>3d</fix>
</trkpt>
<trkpt lat="33.810313" lon="-118.393867">
  <ele>-0.12</ele>
  <time>2026-09-02T22:12:39Z</time>
  <course>0.0</course>
  <speed>0.0</speed>
  <fix>3d</fix>
</trkpt>
<trkpt lat="33.810313" lon="-118.393867">
  <ele>0.0</ele>
  <time>2026-09-02T22:12:39Z</time>
  <course>186.27</course>
  <speed>0.0</speed>
  <fix>3d</fix>
</trkpt>
<trkpt lat="33.810313" lon="-118.393867">
  <ele>-0.12</ele>
  <time>2026-09-02T22:12:39Z</time>
  <course>0.0</course>
  <speed>0.0</speed>
  <fix>3d</fix>
</trkpt>
<trkpt lat="33.810313" lon="-118.393867">
  <ele>0.0</ele>
  <time>2026-09-02T22:12:39Z</time>
  <course>186.39</course>
  <speed>0.0</speed>
  <fix>3d</fix>
</trkpt>
<trkpt lat="33.810313" lon="-118.393867">
  <ele>-0.12</ele>
  <time>2026-09-02T22:12:39Z</time>
  <course>0.0</course>
  <speed>0.0</speed>
  <fix>3d</fix>
</trkpt>
<trkpt lat="33.810313" lon="-118.393867">
  <ele>0.0</ele>
  <time>2026-09-02T22:12:39Z</time>
  <course>186.51</course>
  <speed>0.0</speed>
  <fix>3d</fix>
</trkpt>
<trkpt lat="33.810313" lon="-118.393867">
  <ele>-0.11</ele>
  <time>2026-09-02T22:12:39Z</time>
  <course>0.0</course>
  <speed>0.0</speed>
  <fix>3d</fix>
</trkpt>
<trkpt lat="33.810313" lon="-118.393867">
  <ele>0.0</ele>
  <time>2026-09-02T22:12:39Z</time>
  <course>186.62</course>
  <speed>0.0</speed>
  <fix>3d</fix>
</trkpt>
<trkpt lat="33.810313" lon="-118.393867">
  <ele>-0.11</ele>
  <time>2026-09-02T22:12:39Z</time>
  <course>0.0</course>
  <speed>0.0</speed>
  <fix>3d</fix>
</trkpt>
<trkpt lat="33.810313" lon="-118.393867">
  <ele>0.0</ele>
  <time>2026-09-02T22:12:39Z</time>
  <course>186.72</course>
  <speed>0.0</speed>
  <fix>3d</fix>
</trkpt>
<trkpt lat="33.810313" lon="-118.393867">
  <ele>-0.11</ele>
  <time>2026-09-02T22:12:39Z</time>
  <course>0.0</course>
  <speed>0.0</speed>
  <fix>3d</fix>
</trkpt>
<trkpt lat="33.810313" lon="-118.393867">
  <ele>0.0</ele>
  <time>2026-09-02T22:12:39Z</time>
  <course>186.82</course>
  <speed>0.0</speed>
  <fix>3d</fix>
</trkpt>
<trkpt lat="33.810313" lon="-118.393867">
  <ele>-0.11</ele>
  <time>2026-09-02T22:12:39Z</time>
  <course>0.0</course>
  <speed>0.0</speed>
  <fix>3d</fix>
</trkpt>
<trkpt lat="33.810313" lon="-118.393867">
  <ele>0.0</ele>
  <time>2026-09-02T22:12:39Z</time>
  <course>186.92</course>
  <speed>0.0</speed>
  <fix>3d</fix>
</trkpt>
<trkpt lat="33.810313" lon="-118.393867">
  <ele>-0.12</ele>
  <time>2026-09-02T22:12:39Z</time>
  <course>0.0</course>
  <speed>0.0</speed>
  <fix>3d</fix>
</trkpt>
<trkpt lat="33.810313" lon="-118.393867">
  <ele>0.0</ele>
  <time>2026-09-02T22:12:39Z</time>
  <course>187.01</course>
  <speed>0.0</speed>
  <fix>3d</fix>
</trkpt>
<trkpt lat="33.810313" lon="-118.393867">
  <ele>-0.12</ele>
  <time>2026-09-02T22:12:39Z</time>
  <course>0.0</course>
  <speed>0.0</speed>
  <fix>3d</fix>
</trkpt>
<trkpt lat="33.810313" lon="-118.393867">
  <ele>0.0</ele>
  <time>2026-09-02T22:12:39Z</time>
  <course>187.09</course>
  <speed>0.0</speed>
  <fix>3d</fix>
</trkpt>
<trkpt lat="33.810313" lon="-118.393867">
  <ele>-0.13</ele>
  <time>2026-09-02T22:12:39Z</time>
  <course>0.0</course>
  <speed>0.0</speed>
  <fix>3d</fix>
</trkpt>
<trkpt lat="33.810313" lon="-118.393867">
  <ele>0.0</ele>
  <time>2026-09-02T22:12:39Z</time>
  <course>187.18</course>
  <speed>0.0</speed>
  <fix>3d</fix>
</trkpt>
<trkpt lat="33.810313" lon="-118.393867">
  <ele>-0.13</ele>
  <time>2026-09-02T22:12:39Z</time>
  <course>0.0</course>
  <speed>0.0</speed>
  <fix>3d</fix>
</trkpt>
<trkpt lat="33.810313" lon="-118.393867">
  <ele>0.0</ele>
  <time>2026-09-02T22:12:39Z</time>
  <course>187.26</course>
  <speed>0.0</speed>
  <fix>3d</fix>
</trkpt>
<trkpt lat="33.810313" lon="-118.393867">
  <ele>-0.13</ele>
  <time>2026-09-02T22:12:39Z</time>
  <course>0.0</course>
  <speed>0.0</speed>
  <fix>3d</fix>
</trkpt>
<trkpt lat="33.810313" lon="-118.393867">
  <ele>0.0</ele>
  <time>2026-09-02T22:12:39Z</time>
  <course>187.33</course>
  <speed>0.0</speed>
  <fix>3d</fix>
</trkpt>
<trkpt lat="33.810313" lon="-118.393867">
  <ele>-0.13</ele>
  <time>2026-09-02T22:12:39Z</time>
  <course>0.0</course>
  <speed>0.0</speed>
  <fix>3d</fix>
</trkpt>
<trkpt lat="33.810313" lon="-118.393867">
  <ele>0.0</ele>
  <time>2026-09-02T22:12:39Z</time>
  <course>187.4</course>
  <speed>0.0</speed>
  <fix>3d</fix>
</trkpt>
<trkpt lat="33.810313" lon="-118.393867">
  <ele>-0.13</ele>
  <time>2026-09-02T22:12:39Z</time>
  <course>0.0</course>
  <speed>0.0</speed>
  <fix>3d</fix>
</trkpt>
<trkpt lat="33.810313" lon="-118.393867">
  <ele>0.0</ele>
  <time>2026-09-02T22:12:39Z</time>
  <course>187.47</course>
  <speed>0.0</speed>
  <fix>3d</fix>
</trkpt>
<trkpt lat="33.810313" lon="-118.393867">
  <ele>-0.13</ele>
  <time>2026-09-02T22:12:39Z</time>
  <course>0.0</course>
  <speed>0.0</speed>
  <fix>3d</fix>
</trkpt>
<trkpt lat="33.810313" lon="-118.393867">
  <ele>0.0</ele>
  <time>2026-09-02T22:12:39Z</time>
  <course>187.53</course>
  <speed>0.0</speed>
  <fix>3d</fix>
</trkpt>
<trkpt lat="33.810313" lon="-118.393867">
  <ele>-0.13</ele>
  <time>2026-09-02T22:12:39Z</time>
  <course>0.0</course>
  <speed>0.0</speed>
  <fix>3d</fix>
</trkpt>
<trkpt lat="33.810313" lon="-118.393867">
  <ele>0.0</ele>
  <time>2026-09-02T22:12:39Z</time>
  <course>187.6</course>
  <speed>0.0</speed>
  <fix>3d</fix>
</trkpt>
<trkpt lat="33.810313" lon="-118.393867">
  <ele>-0.13</ele>
  <time>2026-09-02T22:12:39Z</time>
  <course>0.0</course>
  <speed>0.0</speed>
  <fix>3d</fix>
</trkpt>
<trkpt lat="33.810313" lon="-118.393867">
  <ele>0.0</ele>
  <time>2026-09-02T22:12:39Z</time>
  <course>187.66</course>
  <speed>0.0</speed>
  <fix>3d</fix>
</trkpt>
<trkpt lat="33.810313" lon="-118.393867">
  <ele>-0.12</ele>
  <time>2026-09-02T22:12:39Z</time>
  <course>0.0</course>
  <speed>0.0</speed>
  <fix>3d</fix>
</trkpt>
<trkpt lat="33.810313" lon="-118.393867">
  <ele>0.0</ele>
  <time>2026-09-02T22:12:39Z</time>
  <course>187.71</course>
  <speed>0.0</speed>
  <fix>3d</fix>
</trkpt>
<trkpt lat="33.810313" lon="-118.393867">
  <ele>-0.12</ele>
  <time>2026-09-02T22:12:39Z</time>
  <course>0.0</course>
  <speed>0.0</speed>
  <fix>3d</fix>
</trkpt>
<trkpt lat="33.810313" lon="-118.393867">
  <ele>0.0</ele>
  <time>2026-09-02T22:12:39Z</time>
  <course>187.76</course>
  <speed>0.0</speed>
  <fix>3d</fix>
</trkpt>
<trkpt lat="33.810313" lon="-118.393867">
  <ele>-0.12</ele>
  <time>2026-09-02T22:12:39Z</time>
  <course>0.0</course>
  <speed>0.0</speed>
  <fix>3d</fix>
</trkpt>
<trkpt lat="33.810313" lon="-118.393867">
  <ele>0.0</ele>
  <time>2026-09-02T22:12:39Z</time>
  <course>187.82</course>
  <speed>0.0</speed>
  <fix>3d</fix>
</trkpt>
<trkpt lat="33.810313" lon="-118.393867">
  <ele>-0.12</ele>
  <time>2026-09-02T22:12:39Z</time>
  <course>0.0</course>
  <speed>0.0</speed>
  <fix>3d</fix>
</trkpt>
<trkpt lat="33.810313" lon="-118.393867">
  <ele>0.0</ele>
  <time>2026-09-02T22:12:39Z</time>
  <course>187.86</course>
  <speed>0.0</speed>
  <fix>3d</fix>
</trkpt>
<trkpt lat="33.810313" lon="-118.393867">
  <ele>-0.12</ele>
  <time>2026-09-02T22:12:39Z</time>
  <course>0.0</course>
  <speed>0.0</speed>
  <fix>3d</fix>
</trkpt>
<trkpt lat="33.810313" lon="-118.393867">
  <ele>0.0</ele>
  <time>2026-09-02T22:12:39Z</time>
  <course>187.91</course>
  <speed>0.0</speed>
  <fix>3d</fix>
</trkpt>
<trkpt lat="33.810313" lon="-118.393867">
  <ele>-0.12</ele>
  <time>2026-09-02T22:12:39Z</time>
  <course>0.0</course>
  <speed>0.0</speed>
  <fix>3d</fix>
</trkpt>
<trkpt lat="33.810313" lon="-118.393867">
  <ele>0.0</ele>
  <time>2026-09-02T22:12:39Z</time>
  <course>187.95</course>
  <speed>0.0</speed>
  <fix>3d</fix>
</trkpt>
<trkpt lat="33.810313" lon="-118.393867">
  <ele>-0.12</ele>
  <time>2026-09-02T22:12:39Z</time>
  <course>0.0</course>
  <speed>0.0</speed>
  <fix>3d</fix>
</trkpt>
<trkpt lat="33.810313" lon="-118.393867">
  <ele>0.0</ele>
  <time>2026-09-02T22:12:39Z</time>
  <course>187.99</course>
  <speed>0.0</speed>
  <fix>3d</fix>
</trkpt>
<trkpt lat="33.810313" lon="-118.393867">
  <ele>-0.12</ele>
  <time>2026-09-02T22:12:39Z</time>
  <course>0.0</course>
  <speed>0.0</speed>
  <fix>3d</fix>
</trkpt>
<trkpt lat="33.810313" lon="-118.393867">
  <ele>0.0</ele>
  <time>2026-09-02T22:12:39Z</time>
  <course>188.03</course>
  <speed>0.0</speed>
  <fix>3d</fix>
</trkpt>
<trkpt lat="33.810313" lon="-118.393867">
  <ele>-0.12</ele>
  <time>2026-09-02T22:12:39Z</time>
  <course>0.0</course>
  <speed>0.0</speed>
  <fix>3d</fix>
</trkpt>
<trkpt lat="33.810313" lon="-118.393867">
  <ele>0.0</ele>
  <time>2026-09-02T22:12:39Z</time>
  <course>188.07</course>
  <speed>0.0</speed>
  <fix>3d</fix>
</trkpt>
<trkpt lat="33.810313" lon="-118.393867">
  <ele>-0.12</ele>
  <time>2026-09-02T22:12:39Z</time>
  <course>0.0</course>
  <speed>0.0</speed>
  <fix>3d</fix>
</trkpt>
<trkpt lat="33.810313" lon="-118.393867">
  <ele>0.0</ele>
  <time>2026-09-02T22:12:39Z</time>
  <course>188.1</course>
  <speed>0.0</speed>
  <fix>3d</fix>
</trkpt>
<trkpt lat="33.810313" lon="-118.393867">
  <ele>-0.13</ele>
  <time>2026-09-02T22:12:39Z</time>
  <course>0.0</course>
  <speed>0.0</speed>
  <fix>3d</fix>
</trkpt>
<trkpt lat="33.810313" lon="-118.393867">
  <ele>0.0</ele>
  <time>2026-09-02T22:12:39Z</time>
  <course>188.14</course>
  <speed>0.0</speed>
  <fix>3d</fix>
</trkpt>
<trkpt lat="33.810313" lon="-118.393867">
  <ele>-0.13</ele>
  <time>2026-09-02T22:12:39Z</time>
  <course>0.0</course>
  <speed>0.0</speed>
  <fix>3d</fix>
</trkpt>
<trkpt lat="33.810313" lon="-118.393867">
  <ele>0.0</ele>
  <time>2026-09-02T22:12:39Z</time>
  <course>188.17</course>
  <speed>0.0</speed>
  <fix>3d</fix>
</trkpt>
<trkpt lat="33.810313" lon="-118.393867">
  <ele>-0.13</ele>
  <time>2026-09-02T22:12:39Z</time>
  <course>0.0</course>
  <speed>0.0</speed>
  <fix>3d</fix>
</trkpt>
<trkpt lat="33.810313" lon="-118.393867">
  <ele>0.0</ele>
  <time>2026-09-02T22:12:39Z</time>
  <course>188.2</course>
  <speed>0.0</speed>
  <fix>3d</fix>
</trkpt>
<trkpt lat="33.810313" lon="-118.393867">
  <ele>-0.13</ele>
  <time>2026-09-02T22:12:39Z</time>
  <course>0.0</course>
  <speed>0.0</speed>
  <fix>3d</fix>
</trkpt>
<trkpt lat="33.810313" lon="-118.393867">
  <ele>0.0</ele>
  <time>2026-09-02T22:12:39Z</time>
  <course>188.22</course>
  <speed>0.0</speed>
  <fix>3d</fix>
</trkpt>
<trkpt lat="33.810313" lon="-118.393867">
  <ele>-0.13</ele>
  <time>2026-09-02T22:12:39Z</time>
  <course>0.0</course>
  <speed>0.0</speed>
  <fix>3d</fix>
</trkpt>
<trkpt lat="33.810313" lon="-118.393867">
  <ele>0.0</ele>
  <time>2026-09-02T22:12:39Z</time>
  <course>188.25</course>
  <speed>0.0</speed>
  <fix>3d</fix>
</trkpt>
<trkpt lat="33.810313" lon="-118.393867">
  <ele>-0.13</ele>
  <time>2026-09-02T22:12:39Z</time>
  <course>0.0</course>
  <speed>0.0</speed>
  <fix>3d</fix>
</trkpt>
<trkpt lat="33.810313" lon="-118.393867">
  <ele>0.0</ele>
  <time>2026-09-02T22:12:39Z</time>
  <course>188.27</course>
  <speed>0.0</speed>
  <fix>3d</fix>
</trkpt>
<trkpt lat="33.810313" lon="-118.393867">
  <ele>-0.12</ele>
  <time>2026-09-02T22:12:39Z</time>
  <course>0.0</course>
  <speed>0.0</speed>
  <fix>3d</fix>
</trkpt>
<trkpt lat="33.810313" lon="-118.393867">
  <ele>0.0</ele>
  <time>2026-09-02T22:12:39Z</time>
  <course>188.3</course>
  <speed>0.0</speed>
  <fix>3d</fix>
</trkpt>
<trkpt lat="33.810313" lon="-118.393867">
  <ele>-0.12</ele>
  <time>2026-09-02T22:12:39Z</time>
  <course>0.0</course>
  <speed>0.0</speed>
  <fix>3d</fix>
</trkpt>
<trkpt lat="33.810313" lon="-118.393867">
  <ele>0.0</ele>
  <time>2026-09-02T22:12:39Z</time>
  <course>188.32</course>
  <speed>0.0</speed>
  <fix>3d</fix>
</trkpt>
<trkpt lat="33.810313" lon="-118.393867">
  <ele>-0.12</ele>
  <time>2026-09-02T22:12:39Z</time>
  <course>0.0</course>
  <speed>0.0</speed>
  <fix>3d</fix>
</trkpt>
<trkpt lat="33.810313" lon="-118.393867">
  <ele>0.0</ele>
  <time>2026-09-02T22:12:39Z</time>
  <course>188.34</course>
  <speed>0.0</speed>
  <fix>3d</fix>
</trkpt>
<trkpt lat="33.810313" lon="-118.393867">
  <ele>-0.12</ele>
  <time>2026-09-02T22:12:39Z</time>
  <course>0.0</course>
  <speed>0.0</speed>
  <fix>3d</fix>
</trkpt>
<trkpt lat="33.810313" lon="-118.393867">
  <ele>0.0</ele>
  <time>2026-09-02T22:12:39Z</time>
  <course>188.36</course>
  <speed>0.0</speed>
  <fix>3d</fix>
</trkpt>
<trkpt lat="33.810313" lon="-118.393867">
  <ele>-0.12</ele>
  <time>2026-09-02T22:12:39Z</time>
  <course>0.0</course>
  <speed>0.0</speed>
  <fix>3d</fix>
</trkpt>
<trkpt lat="33.810313" lon="-118.393867">
  <ele>0.0</ele>
  <time>2026-09-02T22:12:40Z</time>
  <course>188.38</course>
  <speed>0.0</speed>
  <fix>3d</fix>
</trkpt>
<trkpt lat="33.810313" lon="-118.393867">
  <ele>-0.12</ele>
  <time>2026-09-02T22:12:40Z</time>
  <course>0.0</course>
  <speed>0.0</speed>
  <fix>3d</fix>
</trkpt>
<trkpt lat="33.810313" lon="-118.393867">
  <ele>0.0</ele>
  <time>2026-09-02T22:12:40Z</time>
  <course>188.4</course>
  <speed>0.0</speed>
  <fix>3d</fix>
</trkpt>
<trkpt lat="33.810313" lon="-118.393867">
  <ele>-0.12</ele>
  <time>2026-09-02T22:12:40Z</time>
  <course>0.0</course>
  <speed>0.0</speed>
  <fix>3d</fix>
</trkpt>
<trkpt lat="33.810313" lon="-118.393867">
  <ele>0.0</ele>
  <time>2026-09-02T22:12:40Z</time>
  <course>188.41</course>
  <speed>0.0</speed>
  <fix>3d</fix>
</trkpt>
<trkpt lat="33.810313" lon="-118.393867">
  <ele>-0.12</ele>
  <time>2026-09-02T22:12:40Z</time>
  <course>0.0</course>
  <speed>0.0</speed>
  <fix>3d</fix>
</trkpt>
<trkpt lat="33.810313" lon="-118.393867">
  <ele>0.0</ele>
  <time>2026-09-02T22:12:40Z</time>
  <course>188.43</course>
  <speed>0.0</speed>
  <fix>3d</fix>
</trkpt>
<trkpt lat="33.810313" lon="-118.393867">
  <ele>-0.12</ele>
  <time>2026-09-02T22:12:40Z</time>
  <course>0.0</course>
  <speed>0.0</speed>
  <fix>3d</fix>
</trkpt>
<trkpt lat="33.810313" lon="-118.393867">
  <ele>0.0</ele>
  <time>2026-09-02T22:12:40Z</time>
  <course>188.44</course>
  <speed>0.0</speed>
  <fix>3d</fix>
</trkpt>
<trkpt lat="33.810313" lon="-118.393867">
  <ele>-0.12</ele>
  <time>2026-09-02T22:12:40Z</time>
  <course>0.0</course>
  <speed>0.0</speed>
  <fix>3d</fix>
</trkpt>
<trkpt lat="33.810313" lon="-118.393867">
  <ele>0.0</ele>
  <time>2026-09-02T22:12:40Z</time>
  <course>188.45</course>
  <speed>0.0</speed>
  <fix>3d</fix>
</trkpt>
<trkpt lat="33.810313" lon="-118.393867">
  <ele>-0.13</ele>
  <time>2026-09-02T22:12:40Z</time>
  <course>0.0</course>
  <speed>0.0</speed>
  <fix>3d</fix>
</trkpt>
<trkpt lat="33.810313" lon="-118.393867">
  <ele>0.0</ele>
  <time>2026-09-02T22:12:40Z</time>
  <course>188.47</course>
  <speed>0.0</speed>
  <fix>3d</fix>
</trkpt>
<trkpt lat="33.810313" lon="-118.393867">
  <ele>-0.13</ele>
  <time>2026-09-02T22:12:40Z</time>
  <course>0.0</course>
  <speed>0.0</speed>
  <fix>3d</fix>
</trkpt>
<trkpt lat="33.810313" lon="-118.393867">
  <ele>0.0</ele>
  <time>2026-09-02T22:12:40Z</time>
  <course>188.48</course>
  <speed>0.0</speed>
  <fix>3d</fix>
</trkpt>
<trkpt lat="33.810313" lon="-118.393867">
  <ele>-0.13</ele>
  <time>2026-09-02T22:12:40Z</time>
  <course>0.0</course>
  <speed>0.0</speed>
  <fix>3d</fix>
</trkpt>
<trkpt lat="33.810313" lon="-118.393867">
  <ele>0.0</ele>
  <time>2026-09-02T22:12:40Z</time>
  <course>188.49</course>
  <speed>0.0</speed>
  <fix>3d</fix>
</trkpt>
<trkpt lat="33.810313" lon="-118.393867">
  <ele>-0.13</ele>
  <time>2026-09-02T22:12:40Z</time>
  <course>0.0</course>
  <speed>0.0</speed>
  <fix>3d</fix>
</trkpt>
<trkpt lat="33.810313" lon="-118.393867">
  <ele>0.0</ele>
  <time>2026-09-02T22:12:40Z</time>
  <course>188.5</course>
  <speed>0.0</speed>
  <fix>3d</fix>
</trkpt>
<trkpt lat="33.810313" lon="-118.393867">
  <ele>-0.13</ele>
  <time>2026-09-02T22:12:40Z</time>
  <course>0.0</course>
  <speed>0.0</speed>
  <fix>3d</fix>
</trkpt>
<trkpt lat="33.810313" lon="-118.393867">
  <ele>0.0</ele>
  <time>2026-09-02T22:12:40Z</time>
  <course>188.5</course>
  <speed>0.0</speed>
  <fix>3d</fix>
</trkpt>
<trkpt lat="33.810313" lon="-118.393867">
  <ele>-0.13</ele>
  <time>2026-09-02T22:12:40Z</time>
  <course>0.0</course>
  <speed>0.0</speed>
  <fix>3d</fix>
</trkpt>
<trkpt lat="33.810313" lon="-118.393867">
  <ele>0.0</ele>
  <time>2026-09-02T22:12:40Z</time>
  <course>188.51</course>
  <speed>0.0</speed>
  <fix>3d</fix>
</trkpt>
<trkpt lat="33.810313" lon="-118.393867">
  <ele>-0.12</ele>
  <time>2026-09-02T22:12:40Z</time>
  <course>0.0</course>
  <speed>0.0</speed>
  <fix>3d</fix>
</trkpt>
<trkpt lat="33.810313" lon="-118.393867">
  <ele>0.0</ele>
  <time>2026-09-02T22:12:40Z</time>
  <course>188.52</course>
  <speed>0.0</speed>
  <fix>3d</fix>
</trkpt>
<trkpt lat="33.810313" lon="-118.393867">
  <ele>-0.12</ele>
  <time>2026-09-02T22:12:40Z</time>
  <course>0.0</course>
  <speed>0.0</speed>
  <fix>3d</fix>
</trkpt>
<trkpt lat="33.810313" lon="-118.393867">
  <ele>0.0</ele>
  <time>2026-09-02T22:12:40Z</time>
  <course>188.53</course>
  <speed>0.0</speed>
  <fix>3d</fix>
</trkpt>
<trkpt lat="33.810313" lon="-118.393867">
  <ele>-0.12</ele>
  <time>2026-09-02T22:12:40Z</time>
  <course>0.0</course>
  <speed>0.0</speed>
  <fix>3d</fix>
</trkpt>
<trkpt lat="33.810313" lon="-118.393867">
  <ele>0.0</ele>
  <time>2026-09-02T22:12:40Z</time>
  <course>188.53</course>
  <speed>0.0</speed>
  <fix>3d</fix>
</trkpt>
<trkpt lat="33.810313" lon="-118.393867">
  <ele>-0.12</ele>
  <time>2026-09-02T22:12:40Z</time>
  <course>0.0</course>
  <speed>0.0</speed>
  <fix>3d</fix>
</trkpt>
<trkpt lat="33.810313" lon="-118.393867">
  <ele>0.0</ele>
  <time>2026-09-02T22:12:40Z</time>
  <course>188.54</course>
  <speed>0.0</speed>
  <fix>3d</fix>
</trkpt>
<trkpt lat="33.810313" lon="-118.393867">
  <ele>-0.12</ele>
  <time>2026-09-02T22:12:40Z</time>
  <course>0.0</course>
  <speed>0.0</speed>
  <fix>3d</fix>
</trkpt>
<trkpt lat="33.810313" lon="-118.393867">
  <ele>0.0</ele>
  <time>2026-09-02T22:12:40Z</time>
  <course>188.54</course>
  <speed>0.0</speed>
  <fix>3d</fix>
</trkpt>
<trkpt lat="33.810313" lon="-118.393867">
  <ele>-0.12</ele>
  <time>2026-09-02T22:12:40Z</time>
  <course>0.0</course>
  <speed>0.0</speed>
  <fix>3d</fix>
</trkpt>
<trkpt lat="33.810313" lon="-118.393867">
  <ele>0.0</ele>
  <time>2026-09-02T22:12:40Z</time>
  <course>188.54</course>
  <speed>0.0</speed>
  <fix>3d</fix>
</trkpt>
<trkpt lat="33.810313" lon="-118.393867">
  <ele>-0.12</ele>
  <time>2026-09-02T22:12:40Z</time>
  <course>0.0</course>
  <speed>0.0</speed>
  <fix>3d</fix>
</trkpt>
<trkpt lat="33.810313" lon="-118.393867">
  <ele>0.0</ele>
  <time>2026-09-02T22:12:40Z</time>
  <course>188.55</course>
  <speed>0.0</speed>
  <fix>3d</fix>
</trkpt>
<trkpt lat="33.810313" lon="-118.393867">
  <ele>-0.12</ele>
  <time>2026-09-02T22:12:40Z</time>
  <course>0.0</course>
  <speed>0.0</speed>
  <fix>3d</fix>
</trkpt>
<trkpt lat="33.810313" lon="-118.393867">
  <ele>0.0</ele>
  <time>2026-09-02T22:12:40Z</time>
  <course>188.55</course>
  <speed>0.0</speed>
  <fix>3d</fix>
</trkpt>
<trkpt lat="33.810313" lon="-118.393867">
  <ele>-0.12</ele>
  <time>2026-09-02T22:12:40Z</time>
  <course>0.0</course>
  <speed>0.0</speed>
  <fix>3d</fix>
</trkpt>
<trkpt lat="33.810313" lon="-118.393867">
  <ele>0.0</ele>
  <time>2026-09-02T22:12:40Z</time>
  <course>188.55</course>
  <speed>0.0</speed>
  <fix>3d</fix>
</trkpt>
<trkpt lat="33.810313" lon="-118.393867">
  <ele>-0.12</ele>
  <time>2026-09-02T22:12:40Z</time>
  <course>0.0</course>
  <speed>0.0</speed>
  <fix>3d</fix>
</trkpt>
<trkpt lat="33.810313" lon="-118.393867">
  <ele>-0.129</ele>
  <time>2026-09-02T22:12:40Z</time>
  <course>188.55</course>
  <speed>0.0</speed>
  <fix>3d</fix>
</trkpt>
<trkpt lat="33.810313" lon="-118.393867">
  <ele>-0.13</ele>
  <time>2026-09-02T22:12:40Z</time>
  <course>0.0</course>
  <speed>0.0</speed>
  <fix>3d</fix>
</trkpt>
<trkpt lat="33.810313" lon="-118.393867">
  <ele>-0.13</ele>
  <time>2026-09-02T22:12:40Z</time>
  <course>188.55</course>
  <speed>0.0</speed>
  <fix>3d</fix>
</trkpt>
<trkpt lat="33.810313" lon="-118.393867">
  <ele>-0.13</ele>
  <time>2026-09-02T22:12:40Z</time>
  <course>0.0</course>
  <speed>0.0</speed>
  <fix>3d</fix>
</trkpt>
<trkpt lat="33.810313" lon="-118.393867">
  <ele>-0.13</ele>
  <time>2026-09-02T22:12:40Z</time>
  <course>188.56</course>
  <speed>0.0</speed>
  <fix>3d</fix>
</trkpt>
<trkpt lat="33.810313" lon="-118.393867">
  <ele>-0.13</ele>
  <time>2026-09-02T22:12:40Z</time>
  <course>0.0</course>
  <speed>0.0</speed>
  <fix>3d</fix>
</trkpt>
<trkpt lat="33.810313" lon="-118.393867">
  <ele>-0.128</ele>
  <time>2026-09-02T22:12:40Z</time>
  <course>188.56</course>
  <speed>0.0</speed>
  <fix>3d</fix>
</trkpt>
<trkpt lat="33.810313" lon="-118.393867">
  <ele>-0.13</ele>
  <time>2026-09-02T22:12:40Z</time>
  <course>0.0</course>
  <speed>0.0</speed>
  <fix>3d</fix>
</trkpt>
<trkpt lat="33.810313" lon="-118.393867">
  <ele>-0.125</ele>
  <time>2026-09-02T22:12:40Z</time>
  <course>188.56</course>
  <speed>0.0</speed>
  <fix>3d</fix>
</trkpt>
<trkpt lat="33.810313" lon="-118.393867">
  <ele>-0.12</ele>
  <time>2026-09-02T22:12:40Z</time>
  <course>0.0</course>
  <speed>0.0</speed>
  <fix>3d</fix>
</trkpt>
<trkpt lat="33.810313" lon="-118.393867">
  <ele>-0.121</ele>
  <time>2026-09-02T22:12:40Z</time>
  <course>188.56</course>
  <speed>0.0</speed>
  <fix>3d</fix>
</trkpt>
<trkpt lat="33.810313" lon="-118.393867">
  <ele>-0.12</ele>
  <time>2026-09-02T22:12:40Z</time>
  <course>0.0</course>
  <speed>0.0</speed>
  <fix>3d</fix>
</trkpt>
<trkpt lat="33.810313" lon="-118.393867">
  <ele>-0.118</ele>
  <time>2026-09-02T22:12:40Z</time>
  <course>188.56</course>
  <speed>0.0</speed>
  <fix>3d</fix>
</trkpt>
<trkpt lat="33.810313" lon="-118.393867">
  <ele>-0.12</ele>
  <time>2026-09-02T22:12:40Z</time>
  <course>0.0</course>
  <speed>0.0</speed>
  <fix>3d</fix>
</trkpt>
<trkpt lat="33.810313" lon="-118.393867">
  <ele>-0.117</ele>
  <time>2026-09-02T22:12:40Z</time>
  <course>188.55</course>
  <speed>0.0</speed>
  <fix>3d</fix>
</trkpt>
<trkpt lat="33.810313" lon="-118.393867">
  <ele>-0.12</ele>
  <time>2026-09-02T22:12:40Z</time>
  <course>0.0</course>
  <speed>0.0</speed>
  <fix>3d</fix>
</trkpt>
<trkpt lat="33.810313" lon="-118.393867">
  <ele>-0.119</ele>
  <time>2026-09-02T22:12:40Z</time>
  <course>188.55</course>
  <speed>0.0</speed>
  <fix>3d</fix>
</trkpt>
<trkpt lat="33.810313" lon="-118.393867">
  <ele>-0.12</ele>
  <time>2026-09-02T22:12:40Z</time>
  <course>0.0</course>
  <speed>0.0</speed>
  <fix>3d</fix>
</trkpt>
<trkpt lat="33.810313" lon="-118.393867">
  <ele>-0.122</ele>
  <time>2026-09-02T22:12:40Z</time>
  <course>188.55</course>
  <speed>0.0</speed>
  <fix>3d</fix>
</trkpt>
<trkpt lat="33.810313" lon="-118.393867">
  <ele>-0.12</ele>
  <time>2026-09-02T22:12:40Z</time>
  <course>0.0</course>
  <speed>0.0</speed>
  <fix>3d</fix>
</trkpt>
<trkpt lat="33.810313" lon="-118.393867">
  <ele>-0.125</ele>
  <time>2026-09-02T22:12:40Z</time>
  <course>188.55</course>
  <speed>0.0</speed>
  <fix>3d</fix>
</trkpt>
<trkpt lat="33.810313" lon="-118.393867">
  <ele>-0.12</ele>
  <time>2026-09-02T22:12:40Z</time>
  <course>0.0</course>
  <speed>0.0</speed>
  <fix>3d</fix>
</trkpt>
<trkpt lat="33.810313" lon="-118.393867">
  <ele>-0.127</ele>
  <time>2026-09-02T22:12:40Z</time>
  <course>188.55</course>
  <speed>0.0</speed>
  <fix>3d</fix>
</trkpt>
<trkpt lat="33.810313" lon="-118.393867">
  <ele>-0.12</ele>
  <time>2026-09-02T22:12:40Z</time>
  <course>0.0</course>
  <speed>0.0</speed>
  <fix>3d</fix>
</trkpt>
<trkpt lat="33.810313" lon="-118.393867">
  <ele>-0.127</ele>
  <time>2026-09-02T22:12:40Z</time>
  <course>188.55</course>
  <speed>0.0</speed>
  <fix>3d</fix>
</trkpt>
<trkpt lat="33.810313" lon="-118.393867">
  <ele>-0.12</ele>
  <time>2026-09-02T22:12:40Z</time>
  <course>0.0</course>
  <speed>0.0</speed>
  <fix>3d</fix>
</trkpt>
<trkpt lat="33.810313" lon="-118.393867">
  <ele>-0.128</ele>
  <time>2026-09-02T22:12:40Z</time>
  <course>188.55</course>
  <speed>0.0</speed>
  <fix>3d</fix>
</trkpt>
<trkpt lat="33.810313" lon="-118.393867">
  <ele>-0.12</ele>
  <time>2026-09-02T22:12:40Z</time>
  <course>0.0</course>
  <speed>0.0</speed>
  <fix>3d</fix>
</trkpt>
<trkpt lat="33.810313" lon="-118.393867">
  <ele>-0.128</ele>
  <time>2026-09-02T22:12:40Z</time>
  <course>188.55</course>
  <speed>0.0</speed>
  <fix>3d</fix>
</trkpt>
<trkpt lat="33.810313" lon="-118.393867">
  <ele>-0.12</ele>
  <time>2026-09-02T22:12:40Z</time>
  <course>0.0</course>
  <speed>0.0</speed>
  <fix>3d</fix>
</trkpt>
<trkpt lat="33.810313" lon="-118.393867">
  <ele>-0.127</ele>
  <time>2026-09-02T22:12:40Z</time>
  <course>188.55</course>
  <speed>0.0</speed>
  <fix>3d</fix>
</trkpt>
<trkpt lat="33.810313" lon="-118.393867">
  <ele>-0.12</ele>
  <time>2026-09-02T22:12:40Z</time>
  <course>0.0</course>
  <speed>0.0</speed>
  <fix>3d</fix>
</trkpt>
<trkpt lat="33.810313" lon="-118.393867">
  <ele>-0.127</ele>
  <time>2026-09-02T22:12:40Z</time>
  <course>188.54</course>
  <speed>0.0</speed>
  <fix>3d</fix>
</trkpt>
<trkpt lat="33.810313" lon="-118.393867">
  <ele>-0.13</ele>
  <time>2026-09-02T22:12:40Z</time>
  <course>0.0</course>
  <speed>0.0</speed>
  <fix>3d</fix>
</trkpt>
<trkpt lat="33.810313" lon="-118.393867">
  <ele>-0.126</ele>
  <time>2026-09-02T22:12:40Z</time>
  <course>188.54</course>
  <speed>0.0</speed>
  <fix>3d</fix>
</trkpt>
<trkpt lat="33.810313" lon="-118.393867">
  <ele>-0.13</ele>
  <time>2026-09-02T22:12:40Z</time>
  <course>0.0</course>
  <speed>0.0</speed>
  <fix>3d</fix>
</trkpt>
<trkpt lat="33.810313" lon="-118.393867">
  <ele>-0.125</ele>
  <time>2026-09-02T22:12:40Z</time>
  <course>188.53</course>
  <speed>0.0</speed>
  <fix>3d</fix>
</trkpt>
<trkpt lat="33.810313" lon="-118.393867">
  <ele>-0.12</ele>
  <time>2026-09-02T22:12:40Z</time>
  <course>0.0</course>
  <speed>0.0</speed>
  <fix>3d</fix>
</trkpt>
<trkpt lat="33.810313" lon="-118.393867">
  <ele>-0.124</ele>
  <time>2026-09-02T22:12:40Z</time>
  <course>188.53</course>
  <speed>0.0</speed>
  <fix>3d</fix>
</trkpt>
<trkpt lat="33.810313" lon="-118.393867">
  <ele>-0.12</ele>
  <time>2026-09-02T22:12:40Z</time>
  <course>0.0</course>
  <speed>0.0</speed>
  <fix>3d</fix>
</trkpt>
<trkpt lat="33.810313" lon="-118.393867">
  <ele>-0.122</ele>
  <time>2026-09-02T22:12:40Z</time>
  <course>188.52</course>
  <speed>0.0</speed>
  <fix>3d</fix>
</trkpt>
<trkpt lat="33.810313" lon="-118.393867">
  <ele>-0.12</ele>
  <time>2026-09-02T22:12:40Z</time>
  <course>0.0</course>
  <speed>0.0</speed>
  <fix>3d</fix>
</trkpt>
<trkpt lat="33.810313" lon="-118.393867">
  <ele>-0.121</ele>
  <time>2026-09-02T22:12:40Z</time>
  <course>188.52</course>
  <speed>0.0</speed>
  <fix>3d</fix>
</trkpt>
<trkpt lat="33.810313" lon="-118.393867">
  <ele>-0.12</ele>
  <time>2026-09-02T22:12:40Z</time>
  <course>0.0</course>
  <speed>0.0</speed>
  <fix>3d</fix>
</trkpt>
<trkpt lat="33.810313" lon="-118.393867">
  <ele>-0.121</ele>
  <time>2026-09-02T22:12:40Z</time>
  <course>188.51</course>
  <speed>0.0</speed>
  <fix>3d</fix>
</trkpt>
<trkpt lat="33.810313" lon="-118.393867">
  <ele>-0.12</ele>
  <time>2026-09-02T22:12:40Z</time>
  <course>0.0</course>
  <speed>0.0</speed>
  <fix>3d</fix>
</trkpt>
<trkpt lat="33.810313" lon="-118.393867">
  <ele>-0.122</ele>
  <time>2026-09-02T22:12:40Z</time>
  <course>188.51</course>
  <speed>0.0</speed>
  <fix>3d</fix>
</trkpt>
<trkpt lat="33.810313" lon="-118.393867">
  <ele>-0.12</ele>
  <time>2026-09-02T22:12:40Z</time>
  <course>0.0</course>
  <speed>0.0</speed>
  <fix>3d</fix>
</trkpt>
<trkpt lat="33.810313" lon="-118.393867">
  <ele>-0.123</ele>
  <time>2026-09-02T22:12:40Z</time>
  <course>188.5</course>
  <speed>0.0</speed>
  <fix>3d</fix>
</trkpt>
<trkpt lat="33.810313" lon="-118.393867">
  <ele>-0.12</ele>
  <time>2026-09-02T22:12:40Z</time>
  <course>0.0</course>
  <speed>0.0</speed>
  <fix>3d</fix>
</trkpt>
<trkpt lat="33.810313" lon="-118.393867">
  <ele>-0.124</ele>
  <time>2026-09-02T22:12:40Z</time>
  <course>188.5</course>
  <speed>0.0</speed>
  <fix>3d</fix>
</trkpt>
<trkpt lat="33.810313" lon="-118.393867">
  <ele>-0.12</ele>
  <time>2026-09-02T22:12:40Z</time>
  <course>0.0</course>
  <speed>0.0</speed>
  <fix>3d</fix>
</trkpt>
<trkpt lat="33.810313" lon="-118.393867">
  <ele>-0.124</ele>
  <time>2026-09-02T22:12:40Z</time>
  <course>188.49</course>
  <speed>0.0</speed>
  <fix>3d</fix>
</trkpt>
<trkpt lat="33.810313" lon="-118.393867">
  <ele>-0.12</ele>
  <time>2026-09-02T22:12:40Z</time>
  <course>0.0</course>
  <speed>0.0</speed>
  <fix>3d</fix>
</trkpt>
<trkpt lat="33.810313" lon="-118.393867">
  <ele>-0.124</ele>
  <time>2026-09-02T22:12:40Z</time>
  <course>188.48</course>
  <speed>0.01</speed>
  <fix>3d</fix>
</trkpt>
<trkpt lat="33.810313" lon="-118.393867">
  <ele>-0.12</ele>
  <time>2026-09-02T22:12:40Z</time>
  <course>0.0</course>
  <speed>0.0</speed>
  <fix>3d</fix>
</trkpt>
<trkpt lat="33.810313" lon="-118.393867">
  <ele>-0.123</ele>
  <time>2026-09-02T22:12:40Z</time>
  <course>188.48</course>
  <speed>0.01</speed>
  <fix>3d</fix>
</trkpt>
<trkpt lat="33.810313" lon="-118.393867">
  <ele>-0.12</ele>
  <time>2026-09-02T22:12:40Z</time>
  <course>0.0</course>
  <speed>0.0</speed>
  <fix>3d</fix>
</trkpt>
<trkpt lat="33.810313" lon="-118.393867">
  <ele>-0.122</ele>
  <time>2026-09-02T22:12:40Z</time>
  <course>188.47</course>
  <speed>0.01</speed>
  <fix>3d</fix>
</trkpt>
<trkpt lat="33.810313" lon="-118.393867">
  <ele>-0.12</ele>
  <time>2026-09-02T22:12:40Z</time>
  <course>0.0</course>
  <speed>0.0</speed>
  <fix>3d</fix>
</trkpt>
<trkpt lat="33.810313" lon="-118.393867">
  <ele>-0.121</ele>
  <time>2026-09-02T22:12:40Z</time>
  <course>188.46</course>
  <speed>0.01</speed>
  <fix>3d</fix>
</trkpt>
<trkpt lat="33.810313" lon="-118.393867">
  <ele>-0.12</ele>
  <time>2026-09-02T22:12:40Z</time>
  <course>0.0</course>
  <speed>0.0</speed>
  <fix>3d</fix>
</trkpt>
<trkpt lat="33.810313" lon="-118.393867">
  <ele>-0.12</ele>
  <time>2026-09-02T22:12:40Z</time>
  <course>188.46</course>
  <speed>0.01</speed>
  <fix>3d</fix>
</trkpt>
<trkpt lat="33.810313" lon="-118.393867">
  <ele>-0.12</ele>
  <time>2026-09-02T22:12:40Z</time>
  <course>0.0</course>
  <speed>0.0</speed>
  <fix>3d</fix>
</trkpt>
<trkpt lat="33.810313" lon="-118.393867">
  <ele>-0.118</ele>
  <time>2026-09-02T22:12:40Z</time>
  <course>188.45</course>
  <speed>0.01</speed>
  <fix>3d</fix>
</trkpt>
<trkpt lat="33.810313" lon="-118.393867">
  <ele>-0.12</ele>
  <time>2026-09-02T22:12:40Z</time>
  <course>0.0</course>
  <speed>0.0</speed>
  <fix>3d</fix>
</trkpt>
<trkpt lat="33.810313" lon="-118.393867">
  <ele>-0.117</ele>
  <time>2026-09-02T22:12:40Z</time>
  <course>188.44</course>
  <speed>0.01</speed>
  <fix>3d</fix>
</trkpt>
<trkpt lat="33.810313" lon="-118.393867">
  <ele>-0.12</ele>
  <time>2026-09-02T22:12:40Z</time>
  <course>0.0</course>
  <speed>0.0</speed>
  <fix>3d</fix>
</trkpt>
<trkpt lat="33.810313" lon="-118.393867">
  <ele>-0.118</ele>
  <time>2026-09-02T22:12:40Z</time>
  <course>188.44</course>
  <speed>0.01</speed>
  <fix>3d</fix>
</trkpt>
<trkpt lat="33.810313" lon="-118.393867">
  <ele>-0.12</ele>
  <time>2026-09-02T22:12:40Z</time>
  <course>0.0</course>
  <speed>0.0</speed>
  <fix>3d</fix>
</trkpt>
<trkpt lat="33.810313" lon="-118.393867">
  <ele>-0.12</ele>
  <time>2026-09-02T22:12:40Z</time>
  <course>188.43</course>
  <speed>0.01</speed>
  <fix>3d</fix>
</trkpt>
<trkpt lat="33.810313" lon="-118.393867">
  <ele>-0.12</ele>
  <time>2026-09-02T22:12:40Z</time>
  <course>0.0</course>
  <speed>0.0</speed>
  <fix>3d</fix>
</trkpt>
<trkpt lat="33.810313" lon="-118.393867">
  <ele>-0.123</ele>
  <time>2026-09-02T22:12:40Z</time>
  <course>188.42</course>
  <speed>0.01</speed>
  <fix>3d</fix>
</trkpt>
<trkpt lat="33.810313" lon="-118.393867">
  <ele>-0.12</ele>
  <time>2026-09-02T22:12:40Z</time>
  <course>0.0</course>
  <speed>0.0</speed>
  <fix>3d</fix>
</trkpt>
<trkpt lat="33.810313" lon="-118.393867">
  <ele>-0.127</ele>
  <time>2026-09-02T22:12:40Z</time>
  <course>188.42</course>
  <speed>0.01</speed>
  <fix>3d</fix>
</trkpt>
<trkpt lat="33.810313" lon="-118.393867">
  <ele>-0.12</ele>
  <time>2026-09-02T22:12:40Z</time>
  <course>0.0</course>
  <speed>0.0</speed>
  <fix>3d</fix>
</trkpt>
<trkpt lat="33.810313" lon="-118.393867">
  <ele>-0.13</ele>
  <time>2026-09-02T22:12:40Z</time>
  <course>188.41</course>
  <speed>0.01</speed>
  <fix>3d</fix>
</trkpt>
<trkpt lat="33.810313" lon="-118.393867">
  <ele>-0.12</ele>
  <time>2026-09-02T22:12:40Z</time>
  <course>0.0</course>
  <speed>0.0</speed>
  <fix>3d</fix>
</trkpt>
<trkpt lat="33.810313" lon="-118.393867">
  <ele>-0.131</ele>
  <time>2026-09-02T22:12:40Z</time>
  <course>188.4</course>
  <speed>0.01</speed>
  <fix>3d</fix>
</trkpt>
<trkpt lat="33.810313" lon="-118.393867">
  <ele>-0.12</ele>
  <time>2026-09-02T22:12:40Z</time>
  <course>0.0</course>
  <speed>0.0</speed>
  <fix>3d</fix>
</trkpt>
<trkpt lat="33.810313" lon="-118.393867">
  <ele>-0.13</ele>
  <time>2026-09-02T22:12:40Z</time>
  <course>188.4</course>
  <speed>0.01414213562373095</speed>
  <fix>3d</fix>
</trkpt>
<trkpt lat="33.810313" lon="-118.393867">
  <ele>-0.12</ele>
  <time>2026-09-02T22:12:40Z</time>
  <course>0.0</course>
  <speed>0.0</speed>
  <fix>3d</fix>
</trkpt>
<trkpt lat="33.810313" lon="-118.393867">
  <ele>-0.13</ele>
  <time>2026-09-02T22:12:40Z</time>
  <course>188.39</course>
  <speed>0.01414213562373095</speed>
  <fix>3d</fix>
</trkpt>
<trkpt lat="33.810313" lon="-118.393867">
  <ele>-0.12</ele>
  <time>2026-09-02T22:12:40Z</time>
  <course>0.0</course>
  <speed>0.0</speed>
  <fix>3d</fix>
</trkpt>
<trkpt lat="33.810313" lon="-118.393867">
  <ele>-0.129</ele>
  <time>2026-09-02T22:12:40Z</time>
  <course>188.38</course>
  <speed>0.01414213562373095</speed>
  <fix>3d</fix>
</trkpt>
<trkpt lat="33.810313" lon="-118.393867">
  <ele>-0.12</ele>
  <time>2026-09-02T22:12:40Z</time>
  <course>0.0</course>
  <speed>0.0</speed>
  <fix>3d</fix>
</trkpt>
<trkpt lat="33.810313" lon="-118.393867">
  <ele>-0.127</ele>
  <time>2026-09-02T22:12:40Z</time>
  <course>188.37</course>
  <speed>0.01414213562373095</speed>
  <fix>3d</fix>
</trkpt>
<trkpt lat="33.810313" lon="-118.393867">
  <ele>-0.12</ele>
  <time>2026-09-02T22:12:40Z</time>
  <course>0.0</course>
  <speed>0.0</speed>
  <fix>3d</fix>
</trkpt>
<trkpt lat="33.810313" lon="-118.393867">
  <ele>-0.123</ele>
  <time>2026-09-02T22:12:40Z</time>
  <course>188.37</course>
  <speed>0.01414213562373095</speed>
  <fix>3d</fix>
</trkpt>
<trkpt lat="33.810313" lon="-118.393867">
  <ele>-0.12</ele>
  <time>2026-09-02T22:12:40Z</time>
  <course>0.0</course>
  <speed>0.0</speed>
  <fix>3d</fix>
</trkpt>
<trkpt lat="33.810313" lon="-118.393867">
  <ele>-0.119</ele>
  <time>2026-09-02T22:12:40Z</time>
  <course>188.36</course>
  <speed>0.01414213562373095</speed>
  <fix>3d</fix>
</trkpt>
<trkpt lat="33.810313" lon="-118.393867">
  <ele>-0.12</ele>
  <time>2026-09-02T22:12:40Z</time>
  <course>0.0</course>
  <speed>0.0</speed>
  <fix>3d</fix>
</trkpt>
<trkpt lat="33.810313" lon="-118.393867">
  <ele>-0.115</ele>
  <time>2026-09-02T22:12:40Z</time>
  <course>188.35</course>
  <speed>0.01414213562373095</speed>
  <fix>3d</fix>
</trkpt>
<trkpt lat="33.810313" lon="-118.393867">
  <ele>-0.12</ele>
  <time>2026-09-02T22:12:40Z</time>
  <course>0.0</course>
  <speed>0.0</speed>
  <fix>3d</fix>
</trkpt>
<trkpt lat="33.810313" lon="-118.393867">
  <ele>-0.113</ele>
  <time>2026-09-02T22:12:40Z</time>
  <course>188.34</course>
  <speed>0.01414213562373095</speed>
  <fix>3d</fix>
</trkpt>
<trkpt lat="33.810313" lon="-118.393867">
  <ele>-0.12</ele>
  <time>2026-09-02T22:12:40Z</time>
  <course>0.0</course>
  <speed>0.0</speed>
  <fix>3d</fix>
</trkpt>
<trkpt lat="33.810313" lon="-118.393867">
  <ele>-0.113</ele>
  <time>2026-09-02T22:12:40Z</time>
  <course>188.33</course>
  <speed>0.01414213562373095</speed>
  <fix>3d</fix>
</trkpt>
<trkpt lat="33.810313" lon="-118.393867">
  <ele>-0.12</ele>
  <time>2026-09-02T22:12:40Z</time>
  <course>0.0</course>
  <speed>0.0</speed>
  <fix>3d</fix>
</trkpt>
<trkpt lat="33.810313" lon="-118.393867">
  <ele>-0.114</ele>
  <time>2026-09-02T22:12:40Z</time>
  <course>188.33</course>
  <speed>0.01414213562373095</speed>
  <fix>3d</fix>
</trkpt>
<trkpt lat="33.810313" lon="-118.393867">
  <ele>-0.12</ele>
  <time>2026-09-02T22:12:40Z</time>
  <course>0.0</course>
  <speed>0.0</speed>
  <fix>3d</fix>
</trkpt>
<trkpt lat="33.810313" lon="-118.393867">
  <ele>-0.116</ele>
  <time>2026-09-02T22:12:40Z</time>
  <course>188.32</course>
  <speed>0.01414213562373095</speed>
  <fix>3d</fix>
</trkpt>
<trkpt lat="33.810313" lon="-118.393867">
  <ele>-0.12</ele>
  <time>2026-09-02T22:12:40Z</time>
  <course>0.0</course>
  <speed>0.0</speed>
  <fix>3d</fix>
</trkpt>
<trkpt lat="33.810313" lon="-118.393867">
  <ele>-0.116</ele>
  <time>2026-09-02T22:12:40Z</time>
  <course>188.31</course>
  <speed>0.01414213562373095</speed>
  <fix>3d</fix>
</trkpt>
<trkpt lat="33.810313" lon="-118.393867">
  <ele>-0.12</ele>
  <time>2026-09-02T22:12:40Z</time>
  <course>0.0</course>
  <speed>0.0</speed>
  <fix>3d</fix>
</trkpt>
<trkpt lat="33.810313" lon="-118.393867">
  <ele>-0.116</ele>
  <time>2026-09-02T22:12:40Z</time>
  <course>188.3</course>
  <speed>0.01414213562373095</speed>
  <fix>3d</fix>
</trkpt>
<trkpt lat="33.810313" lon="-118.393867">
  <ele>-0.12</ele>
  <time>2026-09-02T22:12:40Z</time>
  <course>0.0</course>
  <speed>0.0</speed>
  <fix>3d</fix>
</trkpt>
<trkpt lat="33.810313" lon="-118.393867">
  <ele>-0.117</ele>
  <time>2026-09-02T22:12:40Z</time>
  <course>188.3</course>
  <speed>0.01414213562373095</speed>
  <fix>3d</fix>
</trkpt>
<trkpt lat="33.810313" lon="-118.393867">
  <ele>-0.12</ele>
  <time>2026-09-02T22:12:40Z</time>
  <course>0.0</course>
  <speed>0.0</speed>
  <fix>3d</fix>
</trkpt>
<trkpt lat="33.810313" lon="-118.393867">
  <ele>-0.117</ele>
  <time>2026-09-02T22:12:40Z</time>
  <course>188.29</course>
  <speed>0.01414213562373095</speed>
  <fix>3d</fix>
</trkpt>
<trkpt lat="33.810313" lon="-118.393867">
  <ele>-0.12</ele>
  <time>2026-09-02T22:12:40Z</time>
  <course>0.0</course>
  <speed>0.0</speed>
  <fix>3d</fix>
</trkpt>
<trkpt lat="33.810313" lon="-118.393867">
  <ele>-0.117</ele>
  <time>2026-09-02T22:12:40Z</time>
  <course>188.28</course>
  <speed>0.01414213562373095</speed>
  <fix>3d</fix>
</trkpt>
<trkpt lat="33.810313" lon="-118.393867">
  <ele>-0.12</ele>
  <time>2026-09-02T22:12:40Z</time>
  <course>0.0</course>
  <speed>0.0</speed>
  <fix>3d</fix>
</trkpt>
<trkpt lat="33.810313" lon="-118.393867">
  <ele>-0.116</ele>
  <time>2026-09-02T22:12:40Z</time>
  <course>188.27</course>
  <speed>0.01414213562373095</speed>
  <fix>3d</fix>
</trkpt>
<trkpt lat="33.810313" lon="-118.393867">
  <ele>-0.12</ele>
  <time>2026-09-02T22:12:40Z</time>
  <course>0.0</course>
  <speed>0.0</speed>
  <fix>3d</fix>
</trkpt>
<trkpt lat="33.810313" lon="-118.393867">
  <ele>-0.114</ele>
  <time>2026-09-02T22:12:40Z</time>
  <course>188.26</course>
  <speed>0.01414213562373095</speed>
  <fix>3d</fix>
</trkpt>
<trkpt lat="33.810313" lon="-118.393867">
  <ele>-0.12</ele>
  <time>2026-09-02T22:12:40Z</time>
  <course>0.0</course>
  <speed>0.0</speed>
  <fix>3d</fix>
</trkpt>
<trkpt lat="33.810313" lon="-118.393867">
  <ele>-0.111</ele>
  <time>2026-09-02T22:12:40Z</time>
  <course>188.25</course>
  <speed>0.01414213562373095</speed>
  <fix>3d</fix>
</trkpt>
<trkpt lat="33.810313" lon="-118.393867">
  <ele>-0.12</ele>
  <time>2026-09-02T22:12:40Z</time>
  <course>0.0</course>
  <speed>0.0</speed>
  <fix>3d</fix>
</trkpt>
<trkpt lat="33.810313" lon="-118.393867">
  <ele>-0.109</ele>
  <time>2026-09-02T22:12:40Z</time>
  <course>188.25</course>
  <speed>0.01414213562373095</speed>
  <fix>3d</fix>
</trkpt>
<trkpt lat="33.810313" lon="-118.393867">
  <ele>-0.12</ele>
  <time>2026-09-02T22:12:40Z</time>
  <course>0.0</course>
  <speed>0.0</speed>
  <fix>3d</fix>
</trkpt>
<trkpt lat="33.810313" lon="-118.393867">
  <ele>-0.108</ele>
  <time>2026-09-02T22:12:40Z</time>
  <course>188.24</course>
  <speed>0.01414213562373095</speed>
  <fix>3d</fix>
</trkpt>
<trkpt lat="33.810313" lon="-118.393867">
  <ele>-0.12</ele>
  <time>2026-09-02T22:12:40Z</time>
  <course>0.0</course>
  <speed>0.0</speed>
  <fix>3d</fix>
</trkpt>
<trkpt lat="33.810313" lon="-118.393867">
  <ele>-0.109</ele>
  <time>2026-09-02T22:12:40Z</time>
  <course>188.23</course>
  <speed>0.01414213562373095</speed>
  <fix>3d</fix>
</trkpt>
<trkpt lat="33.810313" lon="-118.393867">
  <ele>-0.12</ele>
  <time>2026-09-02T22:12:40Z</time>
  <course>0.0</course>
  <speed>0.0</speed>
  <fix>3d</fix>
</trkpt>
<trkpt lat="33.810313" lon="-118.393867">
  <ele>-0.11</ele>
  <time>2026-09-02T22:12:40Z</time>
  <course>188.22</course>
  <speed>0.01414213562373095</speed>
  <fix>3d</fix>
</trkpt>
<trkpt lat="33.810313" lon="-118.393867">
  <ele>-0.12</ele>
  <time>2026-09-02T22:12:40Z</time>
  <course>0.0</course>
  <speed>0.0</speed>
  <fix>3d</fix>
</trkpt>
<trkpt lat="33.810313" lon="-118.393867">
  <ele>-0.112</ele>
  <time>2026-09-02T22:12:40Z</time>
  <course>188.21</course>
  <speed>0.01414213562373095</speed>
  <fix>3d</fix>
</trkpt>
<trkpt lat="33.810313" lon="-118.393867">
  <ele>-0.12</ele>
  <time>2026-09-02T22:12:40Z</time>
  <course>0.0</course>
  <speed>0.0</speed>
  <fix>3d</fix>
</trkpt>
<trkpt lat="33.810313" lon="-118.393867">
  <ele>-0.114</ele>
  <time>2026-09-02T22:12:40Z</time>
  <course>188.21</course>
  <speed>0.01414213562373095</speed>
  <fix>3d</fix>
</trkpt>
<trkpt lat="33.810313" lon="-118.393867">
  <ele>-0.12</ele>
  <time>2026-09-02T22:12:40Z</time>
  <course>0.0</course>
  <speed>0.0</speed>
  <fix>3d</fix>
</trkpt>
<trkpt lat="33.810313" lon="-118.393867">
  <ele>-0.114</ele>
  <time>2026-09-02T22:12:40Z</time>
  <course>188.2</course>
  <speed>0.01414213562373095</speed>
  <fix>3d</fix>
</trkpt>
<trkpt lat="33.810313" lon="-118.393867">
  <ele>-0.12</ele>
  <time>2026-09-02T22:12:40Z</time>
  <course>0.0</course>
  <speed>0.0</speed>
  <fix>3d</fix>
</trkpt>
<trkpt lat="33.810313" lon="-118.393867">
  <ele>-0.115</ele>
  <time>2026-09-02T22:12:40Z</time>
  <course>188.19</course>
  <speed>0.01414213562373095</speed>
  <fix>3d</fix>
</trkpt>
<trkpt lat="33.810313" lon="-118.393867">
  <ele>-0.12</ele>
  <time>2026-09-02T22:12:40Z</time>
  <course>0.0</course>
  <speed>0.0</speed>
  <fix>3d</fix>
</trkpt>
<trkpt lat="33.810313" lon="-118.393867">
  <ele>-0.114</ele>
  <time>2026-09-02T22:12:40Z</time>
  <course>188.18</course>
  <speed>0.01414213562373095</speed>
  <fix>3d</fix>
</trkpt>
<trkpt lat="33.810313" lon="-118.393867">
  <ele>-0.12</ele>
  <time>2026-09-02T22:12:40Z</time>
  <course>0.0</course>
  <speed>0.0</speed>
  <fix>3d</fix>
</trkpt>
<trkpt lat="33.810313" lon="-118.393867">
  <ele>-0.112</ele>
  <time>2026-09-02T22:12:40Z</time>
  <course>188.17</course>
  <speed>0.01414213562373095</speed>
  <fix>3d</fix>
</trkpt>
<trkpt lat="33.810313" lon="-118.393867">
  <ele>-0.12</ele>
  <time>2026-09-02T22:12:40Z</time>
  <course>0.0</course>
  <speed>0.0</speed>
  <fix>3d</fix>
</trkpt>
<trkpt lat="33.810313" lon="-118.393867">
  <ele>-0.111</ele>
  <time>2026-09-02T22:12:40Z</time>
  <course>188.16</course>
  <speed>0.01414213562373095</speed>
  <fix>3d</fix>
</trkpt>
<trkpt lat="33.810313" lon="-118.393867">
  <ele>-0.12</ele>
  <time>2026-09-02T22:12:40Z</time>
  <course>0.0</course>
  <speed>0.0</speed>
  <fix>3d</fix>
</trkpt>
<trkpt lat="33.810313" lon="-118.393867">
  <ele>-0.109</ele>
  <time>2026-09-02T22:12:40Z</time>
  <course>188.16</course>
  <speed>0.01414213562373095</speed>
  <fix>3d</fix>
</trkpt>
<trkpt lat="33.810313" lon="-118.393867">
  <ele>-0.12</ele>
  <time>2026-09-02T22:12:40Z</time>
  <course>0.0</course>
  <speed>0.0</speed>
  <fix>3d</fix>
</trkpt>
<trkpt lat="33.810313" lon="-118.393867">
  <ele>-0.109</ele>
  <time>2026-09-02T22:12:40Z</time>
  <course>188.15</course>
  <speed>0.01414213562373095</speed>
  <fix>3d</fix>
</trkpt>
<trkpt lat="33.810313" lon="-118.393867">
  <ele>-0.12</ele>
  <time>2026-09-02T22:12:40Z</time>
  <course>0.0</course>
  <speed>0.0</speed>
  <fix>3d</fix>
</trkpt>
<trkpt lat="33.810313" lon="-118.393867">
  <ele>-0.109</ele>
  <time>2026-09-02T22:12:40Z</time>
  <course>188.14</course>
  <speed>0.01414213562373095</speed>
  <fix>3d</fix>
</trkpt>
<trkpt lat="33.810313" lon="-118.393867">
  <ele>-0.12</ele>
  <time>2026-09-02T22:12:40Z</time>
  <course>0.0</course>
  <speed>0.0</speed>
  <fix>3d</fix>
</trkpt>
<trkpt lat="33.810313" lon="-118.393867">
  <ele>-0.111</ele>
  <time>2026-09-02T22:12:40Z</time>
  <course>188.13</course>
  <speed>0.01414213562373095</speed>
  <fix>3d</fix>
</trkpt>
<trkpt lat="33.810313" lon="-118.393867">
  <ele>-0.12</ele>
  <time>2026-09-02T22:12:40Z</time>
  <course>0.0</course>
  <speed>0.0</speed>
  <fix>3d</fix>
</trkpt>
<trkpt lat="33.810313" lon="-118.393867">
  <ele>-0.114</ele>
  <time>2026-09-02T22:12:40Z</time>
  <course>188.12</course>
  <speed>0.01414213562373095</speed>
  <fix>3d</fix>
</trkpt>
<trkpt lat="33.810313" lon="-118.393867">
  <ele>-0.12</ele>
  <time>2026-09-02T22:12:40Z</time>
  <course>0.0</course>
  <speed>0.0</speed>
  <fix>3d</fix>
</trkpt>
<trkpt lat="33.810313" lon="-118.393867">
  <ele>-0.117</ele>
  <time>2026-09-02T22:12:40Z</time>
  <course>188.12</course>
  <speed>0.01414213562373095</speed>
  <fix>3d</fix>
</trkpt>
<trkpt lat="33.810313" lon="-118.393867">
  <ele>-0.12</ele>
  <time>2026-09-02T22:12:40Z</time>
  <course>0.0</course>
  <speed>0.0</speed>
  <fix>3d</fix>
</trkpt>
<trkpt lat="33.810313" lon="-118.393867">
  <ele>-0.118</ele>
  <time>2026-09-02T22:12:40Z</time>
  <course>188.11</course>
  <speed>0.01414213562373095</speed>
  <fix>3d</fix>
</trkpt>
<trkpt lat="33.810313" lon="-118.393867">
  <ele>-0.12</ele>
  <time>2026-09-02T22:12:40Z</time>
  <course>0.0</course>
  <speed>0.0</speed>
  <fix>3d</fix>
</trkpt>
<trkpt lat="33.810313" lon="-118.393867">
  <ele>-0.12</ele>
  <time>2026-09-02T22:12:40Z</time>
  <course>188.1</course>
  <speed>0.01414213562373095</speed>
  <fix>3d</fix>
</trkpt>
<trkpt lat="33.810313" lon="-118.393867">
  <ele>-0.12</ele>
  <time>2026-09-02T22:12:40Z</time>
  <course>0.0</course>
  <speed>0.0</speed>
  <fix>3d</fix>
</trkpt>
<trkpt lat="33.810313" lon="-118.393867">
  <ele>-0.12</ele>
  <time>2026-09-02T22:12:40Z</time>
  <course>188.09</course>
  <speed>0.01414213562373095</speed>
  <fix>3d</fix>
</trkpt>
<trkpt lat="33.810313" lon="-118.393867">
  <ele>-0.12</ele>
  <time>2026-09-02T22:12:40Z</time>
  <course>0.0</course>
  <speed>0.0</speed>
  <fix>3d</fix>
</trkpt>
<trkpt lat="33.810313" lon="-118.393867">
  <ele>-0.12</ele>
  <time>2026-09-02T22:12:40Z</time>
  <course>188.08</course>
  <speed>0.01414213562373095</speed>
  <fix>3d</fix>
</trkpt>
<trkpt lat="33.810313" lon="-118.393867">
  <ele>-0.12</ele>
  <time>2026-09-02T22:12:40Z</time>
  <course>0.0</course>
  <speed>0.0</speed>
  <fix>3d</fix>
</trkpt>
<trkpt lat="33.810313" lon="-118.393867">
  <ele>-0.119</ele>
  <time>2026-09-02T22:12:40Z</time>
  <course>188.07</course>
  <speed>0.022360679774997897</speed>
  <fix>3d</fix>
</trkpt>
<trkpt lat="33.810313" lon="-118.393867">
  <ele>-0.12</ele>
  <time>2026-09-02T22:12:40Z</time>
  <course>0.0</course>
  <speed>0.0</speed>
  <fix>3d</fix>
</trkpt>
<trkpt lat="33.810313" lon="-118.393867">
  <ele>-0.117</ele>
  <time>2026-09-02T22:12:40Z</time>
  <course>188.06</course>
  <speed>0.022360679774997897</speed>
  <fix>3d</fix>
</trkpt>
<trkpt lat="33.810313" lon="-118.393867">
  <ele>-0.12</ele>
  <time>2026-09-02T22:12:40Z</time>
  <course>0.0</course>
  <speed>0.0</speed>
  <fix>3d</fix>
</trkpt>
<trkpt lat="33.810313" lon="-118.393867">
  <ele>-0.114</ele>
  <time>2026-09-02T22:12:40Z</time>
  <course>188.06</course>
  <speed>0.022360679774997897</speed>
  <fix>3d</fix>
</trkpt>
<trkpt lat="33.810313" lon="-118.393867">
  <ele>-0.12</ele>
  <time>2026-09-02T22:12:40Z</time>
  <course>0.0</course>
  <speed>0.0</speed>
  <fix>3d</fix>
</trkpt>
<trkpt lat="33.810313" lon="-118.393867">
  <ele>-0.112</ele>
  <time>2026-09-02T22:12:40Z</time>
  <course>188.05</course>
  <speed>0.022360679774997897</speed>
  <fix>3d</fix>
</trkpt>
<trkpt lat="33.810313" lon="-118.393867">
  <ele>-0.12</ele>
  <time>2026-09-02T22:12:40Z</time>
  <course>0.0</course>
  <speed>0.0</speed>
  <fix>3d</fix>
</trkpt>
<trkpt lat="33.810313" lon="-118.393867">
  <ele>-0.112</ele>
  <time>2026-09-02T22:12:40Z</time>
  <course>188.04</course>
  <speed>0.022360679774997897</speed>
  <fix>3d</fix>
</trkpt>
<trkpt lat="33.810313" lon="-118.393867">
  <ele>-0.12</ele>
  <time>2026-09-02T22:12:40Z</time>
  <course>0.0</course>
  <speed>0.0</speed>
  <fix>3d</fix>
</trkpt>
<trkpt lat="33.810313" lon="-118.393867">
  <ele>-0.113</ele>
  <time>2026-09-02T22:12:40Z</time>
  <course>188.03</course>
  <speed>0.022360679774997897</speed>
  <fix>3d</fix>
</trkpt>
<trkpt lat="33.810313" lon="-118.393867">
  <ele>-0.12</ele>
  <time>2026-09-02T22:12:40Z</time>
  <course>0.0</course>
  <speed>0.0</speed>
  <fix>3d</fix>
</trkpt>
<trkpt lat="33.810313" lon="-118.393867">
  <ele>-0.115</ele>
  <time>2026-09-02T22:12:40Z</time>
  <course>188.02</course>
  <speed>0.022360679774997897</speed>
  <fix>3d</fix>
</trkpt>
<trkpt lat="33.810313" lon="-118.393867">
  <ele>-0.12</ele>
  <time>2026-09-02T22:12:40Z</time>
  <course>0.0</course>
  <speed>0.0</speed>
  <fix>3d</fix>
</trkpt>
<trkpt lat="33.810313" lon="-118.393867">
  <ele>-0.117</ele>
  <time>2026-09-02T22:12:40Z</time>
  <course>188.02</course>
  <speed>0.022360679774997897</speed>
  <fix>3d</fix>
</trkpt>
<trkpt lat="33.810313" lon="-118.393867">
  <ele>-0.12</ele>
  <time>2026-09-02T22:12:40Z</time>
  <course>0.0</course>
  <speed>0.0</speed>
  <fix>3d</fix>
</trkpt>
<trkpt lat="33.810313" lon="-118.393867">
  <ele>-0.118</ele>
  <time>2026-09-02T22:12:40Z</time>
  <course>188.01</course>
  <speed>0.022360679774997897</speed>
  <fix>3d</fix>
</trkpt>
<trkpt lat="33.810313" lon="-118.393867">
  <ele>-0.12</ele>
  <time>2026-09-02T22:12:40Z</time>
  <course>0.0</course>
  <speed>0.0</speed>
  <fix>3d</fix>
</trkpt>
<trkpt lat="33.810313" lon="-118.393867">
  <ele>-0.118</ele>
  <time>2026-09-02T22:12:40Z</time>
  <course>188.0</course>
  <speed>0.022360679774997897</speed>
  <fix>3d</fix>
</trkpt>
<trkpt lat="33.810313" lon="-118.393867">
  <ele>-0.12</ele>
  <time>2026-09-02T22:12:40Z</time>
  <course>0.0</course>
  <speed>0.0</speed>
  <fix>3d</fix>
</trkpt>
<trkpt lat="33.810313" lon="-118.393867">
  <ele>-0.117</ele>
  <time>2026-09-02T22:12:40Z</time>
  <course>187.99</course>
  <speed>0.022360679774997897</speed>
  <fix>3d</fix>
</trkpt>
<trkpt lat="33.810313" lon="-118.393867">
  <ele>-0.12</ele>
  <time>2026-09-02T22:12:40Z</time>
  <course>0.0</course>
  <speed>0.0</speed>
  <fix>3d</fix>
</trkpt>
<trkpt lat="33.810313" lon="-118.393867">
  <ele>-0.115</ele>
  <time>2026-09-02T22:12:40Z</time>
  <course>187.98</course>
  <speed>0.022360679774997897</speed>
  <fix>3d</fix>
</trkpt>
<trkpt lat="33.810313" lon="-118.393867">
  <ele>-0.12</ele>
  <time>2026-09-02T22:12:40Z</time>
  <course>0.0</course>
  <speed>0.0</speed>
  <fix>3d</fix>
</trkpt>
<trkpt lat="33.810313" lon="-118.393867">
  <ele>-0.112</ele>
  <time>2026-09-02T22:12:40Z</time>
  <course>187.98</course>
  <speed>0.022360679774997897</speed>
  <fix>3d</fix>
</trkpt>
<trkpt lat="33.810313" lon="-118.393867">
  <ele>-0.12</ele>
  <time>2026-09-02T22:12:40Z</time>
  <course>0.0</course>
  <speed>0.0</speed>
  <fix>3d</fix>
</trkpt>
<trkpt lat="33.810313" lon="-118.393867">
  <ele>-0.109</ele>
  <time>2026-09-02T22:12:40Z</time>
  <course>187.97</course>
  <speed>0.022360679774997897</speed>
  <fix>3d</fix>
</trkpt>
<trkpt lat="33.810313" lon="-118.393867">
  <ele>-0.12</ele>
  <time>2026-09-02T22:12:40Z</time>
  <course>0.0</course>
  <speed>0.0</speed>
  <fix>3d</fix>
</trkpt>
<trkpt lat="33.810313" lon="-118.393867">
  <ele>-0.107</ele>
  <time>2026-09-02T22:12:40Z</time>
  <course>187.96</course>
  <speed>0.022360679774997897</speed>
  <fix>3d</fix>
</trkpt>
<trkpt lat="33.810313" lon="-118.393867">
  <ele>-0.12</ele>
  <time>2026-09-02T22:12:40Z</time>
  <course>0.0</course>
  <speed>0.0</speed>
  <fix>3d</fix>
</trkpt>
<trkpt lat="33.810313" lon="-118.393867">
  <ele>-0.107</ele>
  <time>2026-09-02T22:12:40Z</time>
  <course>187.95</course>
  <speed>0.022360679774997897</speed>
  <fix>3d</fix>
</trkpt>
<trkpt lat="33.810313" lon="-118.393867">
  <ele>-0.12</ele>
  <time>2026-09-02T22:12:40Z</time>
  <course>0.0</course>
  <speed>0.0</speed>
  <fix>3d</fix>
</trkpt>
<trkpt lat="33.810313" lon="-118.393867">
  <ele>-0.108</ele>
  <time>2026-09-02T22:12:40Z</time>
  <course>187.94</course>
  <speed>0.022360679774997897</speed>
  <fix>3d</fix>
</trkpt>
<trkpt lat="33.810313" lon="-118.393867">
  <ele>-0.12</ele>
  <time>2026-09-02T22:12:40Z</time>
  <course>0.0</course>
  <speed>0.0</speed>
  <fix>3d</fix>
</trkpt>
<trkpt lat="33.810313" lon="-118.393867">
  <ele>-0.111</ele>
  <time>2026-09-02T22:12:40Z</time>
  <course>187.93</course>
  <speed>0.022360679774997897</speed>
  <fix>3d</fix>
</trkpt>
<trkpt lat="33.810313" lon="-118.393867">
  <ele>-0.12</ele>
  <time>2026-09-02T22:12:40Z</time>
  <course>0.0</course>
  <speed>0.0</speed>
  <fix>3d</fix>
</trkpt>
<trkpt lat="33.810313" lon="-118.393867">
  <ele>-0.114</ele>
  <time>2026-09-02T22:12:40Z</time>
  <course>187.93</course>
  <speed>0.022360679774997897</speed>
  <fix>3d</fix>
</trkpt>
<trkpt lat="33.810313" lon="-118.393867">
  <ele>-0.12</ele>
  <time>2026-09-02T22:12:40Z</time>
  <course>0.0</course>
  <speed>0.0</speed>
  <fix>3d</fix>
</trkpt>
<trkpt lat="33.810313" lon="-118.393867">
  <ele>-0.116</ele>
  <time>2026-09-02T22:12:40Z</time>
  <course>187.92</course>
  <speed>0.022360679774997897</speed>
  <fix>3d</fix>
</trkpt>
<trkpt lat="33.810313" lon="-118.393867">
  <ele>-0.12</ele>
  <time>2026-09-02T22:12:40Z</time>
  <course>0.0</course>
  <speed>0.0</speed>
  <fix>3d</fix>
</trkpt>
<trkpt lat="33.810313" lon="-118.393867">
  <ele>-0.118</ele>
  <time>2026-09-02T22:12:40Z</time>
  <course>187.91</course>
  <speed>0.022360679774997897</speed>
  <fix>3d</fix>
</trkpt>
<trkpt lat="33.810313" lon="-118.393867">
  <ele>-0.12</ele>
  <time>2026-09-02T22:12:40Z</time>
  <course>0.0</course>
  <speed>0.0</speed>
  <fix>3d</fix>
</trkpt>
<trkpt lat="33.810313" lon="-118.393867">
  <ele>-0.119</ele>
  <time>2026-09-02T22:12:40Z</time>
  <course>187.9</course>
  <speed>0.022360679774997897</speed>
  <fix>3d</fix>
</trkpt>
<trkpt lat="33.810313" lon="-118.393867">
  <ele>-0.12</ele>
  <time>2026-09-02T22:12:40Z</time>
  <course>0.0</course>
  <speed>0.0</speed>
  <fix>3d</fix>
</trkpt>
<trkpt lat="33.810313" lon="-118.393867">
  <ele>-0.119</ele>
  <time>2026-09-02T22:12:40Z</time>
  <course>187.89</course>
  <speed>0.022360679774997897</speed>
  <fix>3d</fix>
</trkpt>
<trkpt lat="33.810313" lon="-118.393867">
  <ele>-0.12</ele>
  <time>2026-09-02T22:12:40Z</time>
  <course>0.0</course>
  <speed>0.0</speed>
  <fix>3d</fix>
</trkpt>
<trkpt lat="33.810313" lon="-118.393867">
  <ele>-0.118</ele>
  <time>2026-09-02T22:12:40Z</time>
  <course>187.89</course>
  <speed>0.022360679774997897</speed>
  <fix>3d</fix>
</trkpt>
<trkpt lat="33.810313" lon="-118.393867">
  <ele>-0.12</ele>
  <time>2026-09-02T22:12:40Z</time>
  <course>0.0</course>
  <speed>0.0</speed>
  <fix>3d</fix>
</trkpt>
<trkpt lat="33.810313" lon="-118.393867">
  <ele>-0.116</ele>
  <time>2026-09-02T22:12:40Z</time>
  <course>187.88</course>
  <speed>0.022360679774997897</speed>
  <fix>3d</fix>
</trkpt>
<trkpt lat="33.810313" lon="-118.393867">
  <ele>-0.12</ele>
  <time>2026-09-02T22:12:40Z</time>
  <course>0.0</course>
  <speed>0.0</speed>
  <fix>3d</fix>
</trkpt>
<trkpt lat="33.810313" lon="-118.393867">
  <ele>-0.115</ele>
  <time>2026-09-02T22:12:40Z</time>
  <course>187.87</course>
  <speed>0.022360679774997897</speed>
  <fix>3d</fix>
</trkpt>
<trkpt lat="33.810313" lon="-118.393867">
  <ele>-0.12</ele>
  <time>2026-09-02T22:12:40Z</time>
  <course>0.0</course>
  <speed>0.0</speed>
  <fix>3d</fix>
</trkpt>
<trkpt lat="33.810313" lon="-118.393867">
  <ele>-0.114</ele>
  <time>2026-09-02T22:12:40Z</time>
  <course>187.86</course>
  <speed>0.022360679774997897</speed>
  <fix>3d</fix>
</trkpt>
<trkpt lat="33.810313" lon="-118.393867">
  <ele>-0.12</ele>
  <time>2026-09-02T22:12:40Z</time>
  <course>0.0</course>
  <speed>0.0</speed>
  <fix>3d</fix>
</trkpt>
<trkpt lat="33.810313" lon="-118.393867">
  <ele>-0.114</ele>
  <time>2026-09-02T22:12:40Z</time>
  <course>187.86</course>
  <speed>0.022360679774997897</speed>
  <fix>3d</fix>
</trkpt>
<trkpt lat="33.810313" lon="-118.393867">
  <ele>-0.12</ele>
  <time>2026-09-02T22:12:40Z</time>
  <course>0.0</course>
  <speed>0.0</speed>
  <fix>3d</fix>
</trkpt>
<trkpt lat="33.810313" lon="-118.393867">
  <ele>-0.114</ele>
  <time>2026-09-02T22:12:40Z</time>
  <course>187.85</course>
  <speed>0.022360679774997897</speed>
  <fix>3d</fix>
</trkpt>
<trkpt lat="33.810313" lon="-118.393867">
  <ele>-0.12</ele>
  <time>2026-09-02T22:12:40Z</time>
  <course>0.0</course>
  <speed>0.0</speed>
  <fix>3d</fix>
</trkpt>
<trkpt lat="33.810313" lon="-118.393867">
  <ele>-0.114</ele>
  <time>2026-09-02T22:12:40Z</time>
  <course>187.84</course>
  <speed>0.022360679774997897</speed>
  <fix>3d</fix>
</trkpt>
<trkpt lat="33.810313" lon="-118.393867">
  <ele>-0.12</ele>
  <time>2026-09-02T22:12:40Z</time>
  <course>0.0</course>
  <speed>0.0</speed>
  <fix>3d</fix>
</trkpt>
<trkpt lat="33.810313" lon="-118.393867">
  <ele>-0.115</ele>
  <time>2026-09-02T22:12:40Z</time>
  <course>187.83</course>
  <speed>0.022360679774997897</speed>
  <fix>3d</fix>
</trkpt>
<trkpt lat="33.810313" lon="-118.393867">
  <ele>-0.12</ele>
  <time>2026-09-02T22:12:40Z</time>
  <course>0.0</course>
  <speed>0.0</speed>
  <fix>3d</fix>
</trkpt>
<trkpt lat="33.810313" lon="-118.393867">
  <ele>-0.117</ele>
  <time>2026-09-02T22:12:40Z</time>
  <course>187.83</course>
  <speed>0.022360679774997897</speed>
  <fix>3d</fix>
</trkpt>
<trkpt lat="33.810313" lon="-118.393867">
  <ele>-0.12</ele>
  <time>2026-09-02T22:12:40Z</time>
  <course>0.0</course>
  <speed>0.0</speed>
  <fix>3d</fix>
</trkpt>
<trkpt lat="33.810313" lon="-118.393867">
  <ele>-0.118</ele>
  <time>2026-09-02T22:12:40Z</time>
  <course>187.82</course>
  <speed>0.022360679774997897</speed>
  <fix>3d</fix>
</trkpt>
<trkpt lat="33.810313" lon="-118.393867">
  <ele>-0.12</ele>
  <time>2026-09-02T22:12:40Z</time>
  <course>0.0</course>
  <speed>0.0</speed>
  <fix>3d</fix>
</trkpt>
<trkpt lat="33.810313" lon="-118.393867">
  <ele>-0.118</ele>
  <time>2026-09-02T22:12:40Z</time>
  <course>187.81</course>
  <speed>0.022360679774997897</speed>
  <fix>3d</fix>
</trkpt>
<trkpt lat="33.810313" lon="-118.393867">
  <ele>-0.12</ele>
  <time>2026-09-02T22:12:40Z</time>
  <course>0.0</course>
  <speed>0.0</speed>
  <fix>3d</fix>
</trkpt>
<trkpt lat="33.810313" lon="-118.393867">
  <ele>-0.117</ele>
  <time>2026-09-02T22:12:40Z</time>
  <course>187.8</course>
  <speed>0.022360679774997897</speed>
  <fix>3d</fix>
</trkpt>
<trkpt lat="33.810313" lon="-118.393867">
  <ele>-0.12</ele>
  <time>2026-09-02T22:12:40Z</time>
  <course>0.0</course>
  <speed>0.0</speed>
  <fix>3d</fix>
</trkpt>
<trkpt lat="33.810313" lon="-118.393867">
  <ele>-0.116</ele>
  <time>2026-09-02T22:12:40Z</time>
  <course>187.79</course>
  <speed>0.022360679774997897</speed>
  <fix>3d</fix>
</trkpt>
<trkpt lat="33.810313" lon="-118.393867">
  <ele>-0.12</ele>
  <time>2026-09-02T22:12:40Z</time>
  <course>0.0</course>
  <speed>0.0</speed>
  <fix>3d</fix>
</trkpt>
<trkpt lat="33.810313" lon="-118.393867">
  <ele>-0.114</ele>
  <time>2026-09-02T22:12:40Z</time>
  <course>187.79</course>
  <speed>0.022360679774997897</speed>
  <fix>3d</fix>
</trkpt>
<trkpt lat="33.810313" lon="-118.393867">
  <ele>-0.12</ele>
  <time>2026-09-02T22:12:40Z</time>
  <course>0.0</course>
  <speed>0.0</speed>
  <fix>3d</fix>
</trkpt>
<trkpt lat="33.810313" lon="-118.393867">
  <ele>-0.114</ele>
  <time>2026-09-02T22:12:40Z</time>
  <course>187.78</course>
  <speed>0.022360679774997897</speed>
  <fix>3d</fix>
</trkpt>
<trkpt lat="33.810313" lon="-118.393867">
  <ele>-0.12</ele>
  <time>2026-09-02T22:12:40Z</time>
  <course>0.0</course>
  <speed>0.0</speed>
  <fix>3d</fix>
</trkpt>
<trkpt lat="33.810313" lon="-118.393867">
  <ele>-0.114</ele>
  <time>2026-09-02T22:12:40Z</time>
  <course>187.77</course>
  <speed>0.022360679774997897</speed>
  <fix>3d</fix>
</trkpt>
<trkpt lat="33.810313" lon="-118.393867">
  <ele>-0.12</ele>
  <time>2026-09-02T22:12:40Z</time>
  <course>0.0</course>
  <speed>0.0</speed>
  <fix>3d</fix>
</trkpt>
<trkpt lat="33.810313" lon="-118.393867">
  <ele>-0.114</ele>
  <time>2026-09-02T22:12:40Z</time>
  <course>187.76</course>
  <speed>0.022360679774997897</speed>
  <fix>3d</fix>
</trkpt>
<trkpt lat="33.810313" lon="-118.393867">
  <ele>-0.12</ele>
  <time>2026-09-02T22:12:40Z</time>
  <course>0.0</course>
  <speed>0.0</speed>
  <fix>3d</fix>
</trkpt>
<trkpt lat="33.810313" lon="-118.393867">
  <ele>-0.115</ele>
  <time>2026-09-02T22:12:40Z</time>
  <course>187.76</course>
  <speed>0.022360679774997897</speed>
  <fix>3d</fix>
</trkpt>
<trkpt lat="33.810313" lon="-118.393867">
  <ele>-0.12</ele>
  <time>2026-09-02T22:12:40Z</time>
  <course>0.0</course>
  <speed>0.0</speed>
  <fix>3d</fix>
</trkpt>
<trkpt lat="33.810313" lon="-118.393867">
  <ele>-0.116</ele>
  <time>2026-09-02T22:12:40Z</time>
  <course>187.75</course>
  <speed>0.022360679774997897</speed>
  <fix>3d</fix>
</trkpt>
<trkpt lat="33.810313" lon="-118.393867">
  <ele>-0.12</ele>
  <time>2026-09-02T22:12:40Z</time>
  <course>0.0</course>
  <speed>0.0</speed>
  <fix>3d</fix>
</trkpt>
<trkpt lat="33.810313" lon="-118.393867">
  <ele>-0.117</ele>
  <time>2026-09-02T22:12:40Z</time>
  <course>187.74</course>
  <speed>0.0282842712474619</speed>
  <fix>3d</fix>
</trkpt>
<trkpt lat="33.810313" lon="-118.393867">
  <ele>-0.12</ele>
  <time>2026-09-02T22:12:40Z</time>
  <course>0.0</course>
  <speed>0.0</speed>
  <fix>3d</fix>
</trkpt>
<trkpt lat="33.810313" lon="-118.393867">
  <ele>-0.117</ele>
  <time>2026-09-02T22:12:40Z</time>
  <course>187.73</course>
  <speed>0.0282842712474619</speed>
  <fix>3d</fix>
</trkpt>
<trkpt lat="33.810313" lon="-118.393867">
  <ele>-0.12</ele>
  <time>2026-09-02T22:12:40Z</time>
  <course>0.0</course>
  <speed>0.0</speed>
  <fix>3d</fix>
</trkpt>
<trkpt lat="33.810313" lon="-118.393867">
  <ele>-0.116</ele>
  <time>2026-09-02T22:12:40Z</time>
  <course>187.73</course>
  <speed>0.0282842712474619</speed>
  <fix>3d</fix>
</trkpt>
<trkpt lat="33.810313" lon="-118.393867">
  <ele>-0.12</ele>
  <time>2026-09-02T22:12:40Z</time>
  <course>0.0</course>
  <speed>0.0</speed>
  <fix>3d</fix>
</trkpt>
<trkpt lat="33.810313" lon="-118.393867">
  <ele>-0.116</ele>
  <time>2026-09-02T22:12:40Z</time>
  <course>187.72</course>
  <speed>0.0282842712474619</speed>
  <fix>3d</fix>
</trkpt>
<trkpt lat="33.810313" lon="-118.393867">
  <ele>-0.12</ele>
  <time>2026-09-02T22:12:40Z</time>
  <course>0.0</course>
  <speed>0.0</speed>
  <fix>3d</fix>
</trkpt>
<trkpt lat="33.810313" lon="-118.393867">
  <ele>-0.114</ele>
  <time>2026-09-02T22:12:40Z</time>
  <course>187.71</course>
  <speed>0.0282842712474619</speed>
  <fix>3d</fix>
</trkpt>
<trkpt lat="33.810313" lon="-118.393867">
  <ele>-0.12</ele>
  <time>2026-09-02T22:12:40Z</time>
  <course>0.0</course>
  <speed>0.0</speed>
  <fix>3d</fix>
</trkpt>
<trkpt lat="33.810313" lon="-118.393867">
  <ele>-0.111</ele>
  <time>2026-09-02T22:12:40Z</time>
  <course>187.71</course>
  <speed>0.0282842712474619</speed>
  <fix>3d</fix>
</trkpt>
<trkpt lat="33.810313" lon="-118.393867">
  <ele>-0.12</ele>
  <time>2026-09-02T22:12:40Z</time>
  <course>0.0</course>
  <speed>0.0</speed>
  <fix>3d</fix>
</trkpt>
<trkpt lat="33.810313" lon="-118.393867">
  <ele>-0.109</ele>
  <time>2026-09-02T22:12:40Z</time>
  <course>187.7</course>
  <speed>0.0282842712474619</speed>
  <fix>3d</fix>
</trkpt>
<trkpt lat="33.810313" lon="-118.393867">
  <ele>-0.12</ele>
  <time>2026-09-02T22:12:40Z</time>
  <course>0.0</course>
  <speed>0.0</speed>
  <fix>3d</fix>
</trkpt>
<trkpt lat="33.810313" lon="-118.393867">
  <ele>-0.108</ele>
  <time>2026-09-02T22:12:40Z</time>
  <course>187.69</course>
  <speed>0.0282842712474619</speed>
  <fix>3d</fix>
</trkpt>
<trkpt lat="33.810313" lon="-118.393867">
  <ele>-0.12</ele>
  <time>2026-09-02T22:12:40Z</time>
  <course>0.0</course>
  <speed>0.0</speed>
  <fix>3d</fix>
</trkpt>
<trkpt lat="33.810313" lon="-118.393867">
  <ele>-0.109</ele>
  <time>2026-09-02T22:12:40Z</time>
  <course>187.68</course>
  <speed>0.0282842712474619</speed>
  <fix>3d</fix>
</trkpt>
<trkpt lat="33.810313" lon="-118.393867">
  <ele>-0.12</ele>
  <time>2026-09-02T22:12:40Z</time>
  <course>0.0</course>
  <speed>0.0</speed>
  <fix>3d</fix>
</trkpt>
<trkpt lat="33.810313" lon="-118.393867">
  <ele>-0.111</ele>
  <time>2026-09-02T22:12:40Z</time>
  <course>187.68</course>
  <speed>0.0282842712474619</speed>
  <fix>3d</fix>
</trkpt>
<trkpt lat="33.810313" lon="-118.393867">
  <ele>-0.12</ele>
  <time>2026-09-02T22:12:40Z</time>
  <course>0.0</course>
  <speed>0.0</speed>
  <fix>3d</fix>
</trkpt>
<trkpt lat="33.810313" lon="-118.393867">
  <ele>-0.113</ele>
  <time>2026-09-02T22:12:40Z</time>
  <course>187.67</course>
  <speed>0.0282842712474619</speed>
  <fix>3d</fix>
</trkpt>
<trkpt lat="33.810313" lon="-118.393867">
  <ele>-0.12</ele>
  <time>2026-09-02T22:12:40Z</time>
  <course>0.0</course>
  <speed>0.0</speed>
  <fix>3d</fix>
</trkpt>
<trkpt lat="33.810313" lon="-118.393867">
  <ele>-0.114</ele>
  <time>2026-09-02T22:12:40Z</time>
  <course>187.66</course>
  <speed>0.0282842712474619</speed>
  <fix>3d</fix>
</trkpt>
<trkpt lat="33.810313" lon="-118.393867">
  <ele>-0.12</ele>
  <time>2026-09-02T22:12:40Z</time>
  <course>0.0</course>
  <speed>0.0</speed>
  <fix>3d</fix>
</trkpt>
<trkpt lat="33.810313" lon="-118.393867">
  <ele>-0.113</ele>
  <time>2026-09-02T22:12:40Z</time>
  <course>187.66</course>
  <speed>0.0282842712474619</speed>
  <fix>3d</fix>
</trkpt>
<trkpt lat="33.810313" lon="-118.393867">
  <ele>-0.12</ele>
  <time>2026-09-02T22:12:40Z</time>
  <course>0.0</course>
  <speed>0.0</speed>
  <fix>3d</fix>
</trkpt>
<trkpt lat="33.810313" lon="-118.393867">
  <ele>-0.112</ele>
  <time>2026-09-02T22:12:40Z</time>
  <course>187.65</course>
  <speed>0.0282842712474619</speed>
  <fix>3d</fix>
</trkpt>
<trkpt lat="33.810313" lon="-118.393867">
  <ele>-0.12</ele>
  <time>2026-09-02T22:12:40Z</time>
  <course>0.0</course>
  <speed>0.0</speed>
  <fix>3d</fix>
</trkpt>
<trkpt lat="33.810313" lon="-118.393867">
  <ele>-0.11</ele>
  <time>2026-09-02T22:12:40Z</time>
  <course>187.64</course>
  <speed>0.0282842712474619</speed>
  <fix>3d</fix>
</trkpt>
<trkpt lat="33.810313" lon="-118.393867">
  <ele>-0.12</ele>
  <time>2026-09-02T22:12:40Z</time>
  <course>0.0</course>
  <speed>0.0</speed>
  <fix>3d</fix>
</trkpt>
<trkpt lat="33.810313" lon="-118.393867">
  <ele>-0.108</ele>
  <time>2026-09-02T22:12:40Z</time>
  <course>187.64</course>
  <speed>0.0282842712474619</speed>
  <fix>3d</fix>
</trkpt>
<trkpt lat="33.810313" lon="-118.393867">
  <ele>-0.12</ele>
  <time>2026-09-02T22:12:40Z</time>
  <course>0.0</course>
  <speed>0.0</speed>
  <fix>3d</fix>
</trkpt>
<trkpt lat="33.810313" lon="-118.393867">
  <ele>-0.107</ele>
  <time>2026-09-02T22:12:40Z</time>
  <course>187.63</course>
  <speed>0.03605551275463989</speed>
  <fix>3d</fix>
</trkpt>
<trkpt lat="33.810313" lon="-118.393867">
  <ele>-0.12</ele>
  <time>2026-09-02T22:12:40Z</time>
  <course>0.0</course>
  <speed>0.0</speed>
  <fix>3d</fix>
</trkpt>
<trkpt lat="33.810313" lon="-118.393867">
  <ele>-0.105</ele>
  <time>2026-09-02T22:12:40Z</time>
  <course>187.62</course>
  <speed>0.03605551275463989</speed>
  <fix>3d</fix>
</trkpt>
<trkpt lat="33.810313" lon="-118.393867">
  <ele>-0.12</ele>
  <time>2026-09-02T22:12:40Z</time>
  <course>0.0</course>
  <speed>0.0</speed>
  <fix>3d</fix>
</trkpt>
<trkpt lat="33.810313" lon="-118.393867">
  <ele>-0.105</ele>
  <time>2026-09-02T22:12:40Z</time>
  <course>187.62</course>
  <speed>0.03605551275463989</speed>
  <fix>3d</fix>
</trkpt>
<trkpt lat="33.810313" lon="-118.393867">
  <ele>-0.12</ele>
  <time>2026-09-02T22:12:40Z</time>
  <course>0.0</course>
  <speed>0.0</speed>
  <fix>3d</fix>
</trkpt>
<trkpt lat="33.810313" lon="-118.393867">
  <ele>-0.107</ele>
  <time>2026-09-02T22:12:40Z</time>
  <course>187.61</course>
  <speed>0.03605551275463989</speed>
  <fix>3d</fix>
</trkpt>
<trkpt lat="33.810313" lon="-118.393867">
  <ele>-0.12</ele>
  <time>2026-09-02T22:12:40Z</time>
  <course>0.0</course>
  <speed>0.0</speed>
  <fix>3d</fix>
</trkpt>
<trkpt lat="33.810313" lon="-118.393867">
  <ele>-0.112</ele>
  <time>2026-09-02T22:12:40Z</time>
  <course>187.6</course>
  <speed>0.03605551275463989</speed>
  <fix>3d</fix>
</trkpt>
<trkpt lat="33.810313" lon="-118.393867">
  <ele>-0.12</ele>
  <time>2026-09-02T22:12:40Z</time>
  <course>0.0</course>
  <speed>0.0</speed>
  <fix>3d</fix>
</trkpt>
<trkpt lat="33.810313" lon="-118.393867">
  <ele>-0.116</ele>
  <time>2026-09-02T22:12:40Z</time>
  <course>187.6</course>
  <speed>0.03605551275463989</speed>
  <fix>3d</fix>
</trkpt>
<trkpt lat="33.810313" lon="-118.393867">
  <ele>-0.12</ele>
  <time>2026-09-02T22:12:40Z</time>
  <course>0.0</course>
  <speed>0.0</speed>
  <fix>3d</fix>
</trkpt>
<trkpt lat="33.810313" lon="-118.393867">
  <ele>-0.12</ele>
  <time>2026-09-02T22:12:40Z</time>
  <course>187.59</course>
  <speed>0.03605551275463989</speed>
  <fix>3d</fix>
</trkpt>
<trkpt lat="33.810313" lon="-118.393867">
  <ele>-0.12</ele>
  <time>2026-09-02T22:12:40Z</time>
  <course>0.0</course>
  <speed>0.0</speed>
  <fix>3d</fix>
</trkpt>
<trkpt lat="33.810313" lon="-118.393867">
  <ele>-0.123</ele>
  <time>2026-09-02T22:12:40Z</time>
  <course>187.58</course>
  <speed>0.03605551275463989</speed>
  <fix>3d</fix>
</trkpt>
<trkpt lat="33.810313" lon="-118.393867">
  <ele>-0.12</ele>
  <time>2026-09-02T22:12:40Z</time>
  <course>0.0</course>
  <speed>0.0</speed>
  <fix>3d</fix>
</trkpt>
<trkpt lat="33.810313" lon="-118.393867">
  <ele>-0.125</ele>
  <time>2026-09-02T22:12:40Z</time>
  <course>187.58</course>
  <speed>0.03605551275463989</speed>
  <fix>3d</fix>
</trkpt>
<trkpt lat="33.810313" lon="-118.393867">
  <ele>-0.12</ele>
  <time>2026-09-02T22:12:40Z</time>
  <course>0.0</course>
  <speed>0.0</speed>
  <fix>3d</fix>
</trkpt>
<trkpt lat="33.810313" lon="-118.393867">
  <ele>-0.125</ele>
  <time>2026-09-02T22:12:40Z</time>
  <course>187.57</course>
  <speed>0.03605551275463989</speed>
  <fix>3d</fix>
</trkpt>
<trkpt lat="33.810313" lon="-118.393867">
  <ele>-0.12</ele>
  <time>2026-09-02T22:12:40Z</time>
  <course>0.0</course>
  <speed>0.0</speed>
  <fix>3d</fix>
</trkpt>
<trkpt lat="33.810313" lon="-118.393867">
  <ele>-0.124</ele>
  <time>2026-09-02T22:12:40Z</time>
  <course>187.56</course>
  <speed>0.03605551275463989</speed>
  <fix>3d</fix>
</trkpt>
<trkpt lat="33.810313" lon="-118.393867">
  <ele>-0.12</ele>
  <time>2026-09-02T22:12:40Z</time>
  <course>0.0</course>
  <speed>0.0</speed>
  <fix>3d</fix>
</trkpt>
<trkpt lat="33.810313" lon="-118.393867">
  <ele>-0.122</ele>
  <time>2026-09-02T22:12:40Z</time>
  <course>187.56</course>
  <speed>0.03605551275463989</speed>
  <fix>3d</fix>
</trkpt>
<trkpt lat="33.810313" lon="-118.393867">
  <ele>-0.12</ele>
  <time>2026-09-02T22:12:40Z</time>
  <course>0.0</course>
  <speed>0.0</speed>
  <fix>3d</fix>
</trkpt>
<trkpt lat="33.810313" lon="-118.393867">
  <ele>-0.119</ele>
  <time>2026-09-02T22:12:40Z</time>
  <course>187.55</course>
  <speed>0.03605551275463989</speed>
  <fix>3d</fix>
</trkpt>
<trkpt lat="33.810313" lon="-118.393867">
  <ele>-0.12</ele>
  <time>2026-09-02T22:12:40Z</time>
  <course>0.0</course>
  <speed>0.0</speed>
  <fix>3d</fix>
</trkpt>
<trkpt lat="33.810313" lon="-118.393867">
  <ele>-0.118</ele>
  <time>2026-09-02T22:12:40Z</time>
  <course>187.54</course>
  <speed>0.03605551275463989</speed>
  <fix>3d</fix>
</trkpt>
<trkpt lat="33.810313" lon="-118.393867">
  <ele>-0.12</ele>
  <time>2026-09-02T22:12:40Z</time>
  <course>0.0</course>
  <speed>0.0</speed>
  <fix>3d</fix>
</trkpt>
<trkpt lat="33.810313" lon="-118.393867">
  <ele>-0.118</ele>
  <time>2026-09-02T22:12:40Z</time>
  <course>187.54</course>
  <speed>0.03605551275463989</speed>
  <fix>3d</fix>
</trkpt>
<trkpt lat="33.810313" lon="-118.393867">
  <ele>-0.12</ele>
  <time>2026-09-02T22:12:40Z</time>
  <course>0.0</course>
  <speed>0.0</speed>
  <fix>3d</fix>
</trkpt>
<trkpt lat="33.810313" lon="-118.393867">
  <ele>-0.118</ele>
  <time>2026-09-02T22:12:40Z</time>
  <course>187.53</course>
  <speed>0.03605551275463989</speed>
  <fix>3d</fix>
</trkpt>
<trkpt lat="33.810313" lon="-118.393867">
  <ele>-0.12</ele>
  <time>2026-09-02T22:12:40Z</time>
  <course>0.0</course>
  <speed>0.0</speed>
  <fix>3d</fix>
</trkpt>
<trkpt lat="33.810313" lon="-118.393867">
  <ele>-0.118</ele>
  <time>2026-09-02T22:12:40Z</time>
  <course>187.52</course>
  <speed>0.03605551275463989</speed>
  <fix>3d</fix>
</trkpt>
<trkpt lat="33.810313" lon="-118.393867">
  <ele>-0.12</ele>
  <time>2026-09-02T22:12:40Z</time>
  <course>0.0</course>
  <speed>0.0</speed>
  <fix>3d</fix>
</trkpt>
<trkpt lat="33.810313" lon="-118.393867">
  <ele>-0.118</ele>
  <time>2026-09-02T22:12:40Z</time>
  <course>187.52</course>
  <speed>0.03605551275463989</speed>
  <fix>3d</fix>
</trkpt>
<trkpt lat="33.810313" lon="-118.393867">
  <ele>-0.12</ele>
  <time>2026-09-02T22:12:40Z</time>
  <course>0.0</course>
  <speed>0.0</speed>
  <fix>3d</fix>
</trkpt>
<trkpt lat="33.810313" lon="-118.393867">
  <ele>-0.118</ele>
  <time>2026-09-02T22:12:40Z</time>
  <course>187.51</course>
  <speed>0.03605551275463989</speed>
  <fix>3d</fix>
</trkpt>
<trkpt lat="33.810313" lon="-118.393867">
  <ele>-0.12</ele>
  <time>2026-09-02T22:12:40Z</time>
  <course>0.0</course>
  <speed>0.0</speed>
  <fix>3d</fix>
</trkpt>
<trkpt lat="33.810313" lon="-118.393867">
  <ele>-0.117</ele>
  <time>2026-09-02T22:12:40Z</time>
  <course>187.51</course>
  <speed>0.03605551275463989</speed>
  <fix>3d</fix>
</trkpt>
<trkpt lat="33.810313" lon="-118.393867">
  <ele>-0.12</ele>
  <time>2026-09-02T22:12:40Z</time>
  <course>0.0</course>
  <speed>0.0</speed>
  <fix>3d</fix>
</trkpt>
<trkpt lat="33.810313" lon="-118.393867">
  <ele>-0.116</ele>
  <time>2026-09-02T22:12:40Z</time>
  <course>187.5</course>
  <speed>0.03605551275463989</speed>
  <fix>3d</fix>
</trkpt>
<trkpt lat="33.810313" lon="-118.393867">
  <ele>-0.12</ele>
  <time>2026-09-02T22:12:40Z</time>
  <course>0.0</course>
  <speed>0.0</speed>
  <fix>3d</fix>
</trkpt>
<trkpt lat="33.810313" lon="-118.393867">
  <ele>-0.114</ele>
  <time>2026-09-02T22:12:40Z</time>
  <course>187.49</course>
  <speed>0.03605551275463989</speed>
  <fix>3d</fix>
</trkpt>
<trkpt lat="33.810313" lon="-118.393867">
  <ele>-0.12</ele>
  <time>2026-09-02T22:12:40Z</time>
  <course>0.0</course>
  <speed>0.0</speed>
  <fix>3d</fix>
</trkpt>
<trkpt lat="33.810313" lon="-118.393867">
  <ele>-0.113</ele>
  <time>2026-09-02T22:12:41Z</time>
  <course>187.49</course>
  <speed>0.03605551275463989</speed>
  <fix>3d</fix>
</trkpt>
<trkpt lat="33.810313" lon="-118.393867">
  <ele>-0.12</ele>
  <time>2026-09-02T22:12:41Z</time>
  <course>0.0</course>
  <speed>0.0</speed>
  <fix>3d</fix>
</trkpt>
<trkpt lat="33.810313" lon="-118.393867">
  <ele>-0.113</ele>
  <time>2026-09-02T22:12:41Z</time>
  <course>187.48</course>
  <speed>0.03605551275463989</speed>
  <fix>3d</fix>
</trkpt>
<trkpt lat="33.810313" lon="-118.393867">
  <ele>-0.12</ele>
  <time>2026-09-02T22:12:41Z</time>
  <course>0.0</course>
  <speed>0.0</speed>
  <fix>3d</fix>
</trkpt>
<trkpt lat="33.810313" lon="-118.393867">
  <ele>-0.112</ele>
  <time>2026-09-02T22:12:41Z</time>
  <course>187.47</course>
  <speed>0.03605551275463989</speed>
  <fix>3d</fix>
</trkpt>
<trkpt lat="33.810313" lon="-118.393867">
  <ele>-0.12</ele>
  <time>2026-09-02T22:12:41Z</time>
  <course>0.0</course>
  <speed>0.0</speed>
  <fix>3d</fix>
</trkpt>
<trkpt lat="33.810313" lon="-118.393867">
  <ele>-0.113</ele>
  <time>2026-09-02T22:12:41Z</time>
  <course>187.47</course>
  <speed>0.03605551275463989</speed>
  <fix>3d</fix>
</trkpt>
<trkpt lat="33.810313" lon="-118.393867">
  <ele>-0.12</ele>
  <time>2026-09-02T22:12:41Z</time>
  <course>0.0</course>
  <speed>0.0</speed>
  <fix>3d</fix>
</trkpt>
<trkpt lat="33.810313" lon="-118.393867">
  <ele>-0.113</ele>
  <time>2026-09-02T22:12:41Z</time>
  <course>187.46</course>
  <speed>0.03605551275463989</speed>
  <fix>3d</fix>
</trkpt>
<trkpt lat="33.810313" lon="-118.393867">
  <ele>-0.12</ele>
  <time>2026-09-02T22:12:41Z</time>
  <course>0.0</course>
  <speed>0.0</speed>
  <fix>3d</fix>
</trkpt>
<trkpt lat="33.810313" lon="-118.393867">
  <ele>-0.114</ele>
  <time>2026-09-02T22:12:41Z</time>
  <course>187.45</course>
  <speed>0.03605551275463989</speed>
  <fix>3d</fix>
</trkpt>
<trkpt lat="33.810313" lon="-118.393867">
  <ele>-0.12</ele>
  <time>2026-09-02T22:12:41Z</time>
  <course>0.0</course>
  <speed>0.0</speed>
  <fix>3d</fix>
</trkpt>
<trkpt lat="33.810313" lon="-118.393867">
  <ele>-0.113</ele>
  <time>2026-09-02T22:12:41Z</time>
  <course>187.45</course>
  <speed>0.03605551275463989</speed>
  <fix>3d</fix>
</trkpt>
<trkpt lat="33.810313" lon="-118.393867">
  <ele>-0.12</ele>
  <time>2026-09-02T22:12:41Z</time>
  <course>0.0</course>
  <speed>0.0</speed>
  <fix>3d</fix>
</trkpt>
<trkpt lat="33.810313" lon="-118.393867">
  <ele>-0.112</ele>
  <time>2026-09-02T22:12:41Z</time>
  <course>187.44</course>
  <speed>0.03605551275463989</speed>
  <fix>3d</fix>
</trkpt>
<trkpt lat="33.810313" lon="-118.393867">
  <ele>-0.12</ele>
  <time>2026-09-02T22:12:41Z</time>
  <course>0.0</course>
  <speed>0.0</speed>
  <fix>3d</fix>
</trkpt>
<trkpt lat="33.810313" lon="-118.393867">
  <ele>-0.111</ele>
  <time>2026-09-02T22:12:41Z</time>
  <course>187.44</course>
  <speed>0.03605551275463989</speed>
  <fix>3d</fix>
</trkpt>
<trkpt lat="33.810313" lon="-118.393867">
  <ele>-0.12</ele>
  <time>2026-09-02T22:12:41Z</time>
  <course>0.0</course>
  <speed>0.0</speed>
  <fix>3d</fix>
</trkpt>
<trkpt lat="33.810313" lon="-118.393867">
  <ele>-0.11</ele>
  <time>2026-09-02T22:12:41Z</time>
  <course>187.43</course>
  <speed>0.03605551275463989</speed>
  <fix>3d</fix>
</trkpt>
<trkpt lat="33.810313" lon="-118.393867">
  <ele>-0.12</ele>
  <time>2026-09-02T22:12:41Z</time>
  <course>0.0</course>
  <speed>0.0</speed>
  <fix>3d</fix>
</trkpt>
<trkpt lat="33.810313" lon="-118.393867">
  <ele>-0.108</ele>
  <time>2026-09-02T22:12:41Z</time>
  <course>187.42</course>
  <speed>0.03605551275463989</speed>
  <fix>3d</fix>
</trkpt>
<trkpt lat="33.810313" lon="-118.393867">
  <ele>-0.12</ele>
  <time>2026-09-02T22:12:41Z</time>
  <course>0.0</course>
  <speed>0.0</speed>
  <fix>3d</fix>
</trkpt>
<trkpt lat="33.810313" lon="-118.393867">
  <ele>-0.106</ele>
  <time>2026-09-02T22:12:41Z</time>
  <course>187.42</course>
  <speed>0.03605551275463989</speed>
  <fix>3d</fix>
</trkpt>
<trkpt lat="33.810313" lon="-118.393867">
  <ele>-0.12</ele>
  <time>2026-09-02T22:12:41Z</time>
  <course>0.0</course>
  <speed>0.0</speed>
  <fix>3d</fix>
</trkpt>
<trkpt lat="33.810313" lon="-118.393867">
  <ele>-0.106</ele>
  <time>2026-09-02T22:12:41Z</time>
  <course>187.41</course>
  <speed>0.03605551275463989</speed>
  <fix>3d</fix>
</trkpt>
<trkpt lat="33.810313" lon="-118.393867">
  <ele>-0.12</ele>
  <time>2026-09-02T22:12:41Z</time>
  <course>0.0</course>
  <speed>0.0</speed>
  <fix>3d</fix>
</trkpt>
<trkpt lat="33.810313" lon="-118.393867">
  <ele>-0.106</ele>
  <time>2026-09-02T22:12:41Z</time>
  <course>187.41</course>
  <speed>0.03605551275463989</speed>
  <fix>3d</fix>
</trkpt>
<trkpt lat="33.810313" lon="-118.393867">
  <ele>-0.12</ele>
  <time>2026-09-02T22:12:41Z</time>
  <course>0.0</course>
  <speed>0.0</speed>
  <fix>3d</fix>
</trkpt>
<trkpt lat="33.810313" lon="-118.393867">
  <ele>-0.106</ele>
  <time>2026-09-02T22:12:41Z</time>
  <course>187.4</course>
  <speed>0.03605551275463989</speed>
  <fix>3d</fix>
</trkpt>
<trkpt lat="33.810313" lon="-118.393867">
  <ele>-0.12</ele>
  <time>2026-09-02T22:12:41Z</time>
  <course>0.0</course>
  <speed>0.0</speed>
  <fix>3d</fix>
</trkpt>
<trkpt lat="33.810313" lon="-118.393867">
  <ele>-0.107</ele>
  <time>2026-09-02T22:12:41Z</time>
  <course>187.39</course>
  <speed>0.03605551275463989</speed>
  <fix>3d</fix>
</trkpt>
<trkpt lat="33.810313" lon="-118.393867">
  <ele>-0.12</ele>
  <time>2026-09-02T22:12:41Z</time>
  <course>0.0</course>
  <speed>0.0</speed>
  <fix>3d</fix>
</trkpt>
<trkpt lat="33.810313" lon="-118.393867">
  <ele>-0.108</ele>
  <time>2026-09-02T22:12:41Z</time>
  <course>187.39</course>
  <speed>0.03605551275463989</speed>
  <fix>3d</fix>
</trkpt>
<trkpt lat="33.810313" lon="-118.393867">
  <ele>-0.12</ele>
  <time>2026-09-02T22:12:41Z</time>
  <course>0.0</course>
  <speed>0.0</speed>
  <fix>3d</fix>
</trkpt>
<trkpt lat="33.810313" lon="-118.393867">
  <ele>-0.108</ele>
  <time>2026-09-02T22:12:41Z</time>
  <course>187.38</course>
  <speed>0.03605551275463989</speed>
  <fix>3d</fix>
</trkpt>
<trkpt lat="33.810313" lon="-118.393867">
  <ele>-0.12</ele>
  <time>2026-09-02T22:12:41Z</time>
  <course>0.0</course>
  <speed>0.0</speed>
  <fix>3d</fix>
</trkpt>
<trkpt lat="33.810313" lon="-118.393867">
  <ele>-0.107</ele>
  <time>2026-09-02T22:12:41Z</time>
  <course>187.38</course>
  <speed>0.03605551275463989</speed>
  <fix>3d</fix>
</trkpt>
<trkpt lat="33.810313" lon="-118.393867">
  <ele>-0.12</ele>
  <time>2026-09-02T22:12:41Z</time>
  <course>0.0</course>
  <speed>0.0</speed>
  <fix>3d</fix>
</trkpt>
<trkpt lat="33.810313" lon="-118.393867">
  <ele>-0.107</ele>
  <time>2026-09-02T22:12:41Z</time>
  <course>187.37</course>
  <speed>0.03605551275463989</speed>
  <fix>3d</fix>
</trkpt>
<trkpt lat="33.810313" lon="-118.393867">
  <ele>-0.12</ele>
  <time>2026-09-02T22:12:41Z</time>
  <course>0.0</course>
  <speed>0.0</speed>
  <fix>3d</fix>
</trkpt>
<trkpt lat="33.810313" lon="-118.393867">
  <ele>-0.107</ele>
  <time>2026-09-02T22:12:41Z</time>
  <course>187.36</course>
  <speed>0.03605551275463989</speed>
  <fix>3d</fix>
</trkpt>
<trkpt lat="33.810313" lon="-118.393867">
  <ele>-0.12</ele>
  <time>2026-09-02T22:12:41Z</time>
  <course>0.0</course>
  <speed>0.0</speed>
  <fix>3d</fix>
</trkpt>
<trkpt lat="33.810313" lon="-118.393867">
  <ele>-0.108</ele>
  <time>2026-09-02T22:12:41Z</time>
  <course>187.36</course>
  <speed>0.03605551275463989</speed>
  <fix>3d</fix>
</trkpt>
<trkpt lat="33.810313" lon="-118.393867">
  <ele>-0.12</ele>
  <time>2026-09-02T22:12:41Z</time>
  <course>0.0</course>
  <speed>0.0</speed>
  <fix>3d</fix>
</trkpt>
<trkpt lat="33.810313" lon="-118.393867">
  <ele>-0.11</ele>
  <time>2026-09-02T22:12:41Z</time>
  <course>187.35</course>
  <speed>0.03605551275463989</speed>
  <fix>3d</fix>
</trkpt>
<trkpt lat="33.810313" lon="-118.393867">
  <ele>-0.12</ele>
  <time>2026-09-02T22:12:41Z</time>
  <course>0.0</course>
  <speed>0.0</speed>
  <fix>3d</fix>
</trkpt>
<trkpt lat="33.810313" lon="-118.393867">
  <ele>-0.113</ele>
  <time>2026-09-02T22:12:41Z</time>
  <course>187.35</course>
  <speed>0.03605551275463989</speed>
  <fix>3d</fix>
</trkpt>
<trkpt lat="33.810313" lon="-118.393867">
  <ele>-0.12</ele>
  <time>2026-09-02T22:12:41Z</time>
  <course>0.0</course>
  <speed>0.0</speed>
  <fix>3d</fix>
</trkpt>
<trkpt lat="33.810313" lon="-118.393867">
  <ele>-0.117</ele>
  <time>2026-09-02T22:12:41Z</time>
  <course>187.34</course>
  <speed>0.03605551275463989</speed>
  <fix>3d</fix>
</trkpt>
<trkpt lat="33.810313" lon="-118.393867">
  <ele>-0.12</ele>
  <time>2026-09-02T22:12:41Z</time>
  <course>0.0</course>
  <speed>0.0</speed>
  <fix>3d</fix>
</trkpt>
<trkpt lat="33.810313" lon="-118.393867">
  <ele>-0.121</ele>
  <time>2026-09-02T22:12:41Z</time>
  <course>187.34</course>
  <speed>0.03605551275463989</speed>
  <fix>3d</fix>
</trkpt>
<trkpt lat="33.810313" lon="-118.393867">
  <ele>-0.12</ele>
  <time>2026-09-02T22:12:41Z</time>
  <course>0.0</course>
  <speed>0.0</speed>
  <fix>3d</fix>
</trkpt>
<trkpt lat="33.810313" lon="-118.393867">
  <ele>-0.124</ele>
  <time>2026-09-02T22:12:41Z</time>
  <course>187.33</course>
  <speed>0.03605551275463989</speed>
  <fix>3d</fix>
</trkpt>
<trkpt lat="33.810313" lon="-118.393867">
  <ele>-0.12</ele>
  <time>2026-09-02T22:12:41Z</time>
  <course>0.0</course>
  <speed>0.0</speed>
  <fix>3d</fix>
</trkpt>
<trkpt lat="33.810313" lon="-118.393867">
  <ele>-0.126</ele>
  <time>2026-09-02T22:12:41Z</time>
  <course>187.32</course>
  <speed>0.03605551275463989</speed>
  <fix>3d</fix>
</trkpt>
<trkpt lat="33.810313" lon="-118.393867">
  <ele>-0.12</ele>
  <time>2026-09-02T22:12:41Z</time>
  <course>0.0</course>
  <speed>0.0</speed>
  <fix>3d</fix>
</trkpt>
<trkpt lat="33.810313" lon="-118.393867">
  <ele>-0.127</ele>
  <time>2026-09-02T22:12:41Z</time>
  <course>187.32</course>
  <speed>0.03605551275463989</speed>
  <fix>3d</fix>
</trkpt>
<trkpt lat="33.810313" lon="-118.393867">
  <ele>-0.12</ele>
  <time>2026-09-02T22:12:41Z</time>
  <course>0.0</course>
  <speed>0.0</speed>
  <fix>3d</fix>
</trkpt>
<trkpt lat="33.810313" lon="-118.393867">
  <ele>-0.126</ele>
  <time>2026-09-02T22:12:41Z</time>
  <course>187.31</course>
  <speed>0.03605551275463989</speed>
  <fix>3d</fix>
</trkpt>
<trkpt lat="33.810313" lon="-118.393867">
  <ele>-0.12</ele>
  <time>2026-09-02T22:12:41Z</time>
  <course>0.0</course>
  <speed>0.0</speed>
  <fix>3d</fix>
</trkpt>
<trkpt lat="33.810313" lon="-118.393867">
  <ele>-0.125</ele>
  <time>2026-09-02T22:12:41Z</time>
  <course>187.31</course>
  <speed>0.03605551275463989</speed>
  <fix>3d</fix>
</trkpt>
<trkpt lat="33.810313" lon="-118.393867">
  <ele>-0.12</ele>
  <time>2026-09-02T22:12:41Z</time>
  <course>0.0</course>
  <speed>0.0</speed>
  <fix>3d</fix>
</trkpt>
<trkpt lat="33.810313" lon="-118.393867">
  <ele>-0.123</ele>
  <time>2026-09-02T22:12:41Z</time>
  <course>187.3</course>
  <speed>0.03605551275463989</speed>
  <fix>3d</fix>
</trkpt>
<trkpt lat="33.810313" lon="-118.393867">
  <ele>-0.12</ele>
  <time>2026-09-02T22:12:41Z</time>
  <course>0.0</course>
  <speed>0.0</speed>
  <fix>3d</fix>
</trkpt>
<trkpt lat="33.810313" lon="-118.393867">
  <ele>-0.121</ele>
  <time>2026-09-02T22:12:41Z</time>
  <course>187.3</course>
  <speed>0.03605551275463989</speed>
  <fix>3d</fix>
</trkpt>
<trkpt lat="33.810313" lon="-118.393867">
  <ele>-0.12</ele>
  <time>2026-09-02T22:12:41Z</time>
  <course>0.0</course>
  <speed>0.0</speed>
  <fix>3d</fix>
</trkpt>
<trkpt lat="33.810313" lon="-118.393867">
  <ele>-0.119</ele>
  <time>2026-09-02T22:12:41Z</time>
  <course>187.29</course>
  <speed>0.03605551275463989</speed>
  <fix>3d</fix>
</trkpt>
<trkpt lat="33.810313" lon="-118.393867">
  <ele>-0.12</ele>
  <time>2026-09-02T22:12:41Z</time>
  <course>0.0</course>
  <speed>0.0</speed>
  <fix>3d</fix>
</trkpt>
<trkpt lat="33.810313" lon="-118.393867">
  <ele>-0.12</ele>
  <time>2026-09-02T22:12:41Z</time>
  <course>187.28</course>
  <speed>0.03605551275463989</speed>
  <fix>3d</fix>
</trkpt>
<trkpt lat="33.810313" lon="-118.393867">
  <ele>-0.12</ele>
  <time>2026-09-02T22:12:41Z</time>
  <course>0.0</course>
  <speed>0.0</speed>
  <fix>3d</fix>
</trkpt>
<trkpt lat="33.810313" lon="-118.393867">
  <ele>-0.12</ele>
  <time>2026-09-02T22:12:41Z</time>
  <course>187.28</course>
  <speed>0.03605551275463989</speed>
  <fix>3d</fix>
</trkpt>
<trkpt lat="33.810313" lon="-118.393867">
  <ele>-0.12</ele>
  <time>2026-09-02T22:12:41Z</time>
  <course>0.0</course>
  <speed>0.0</speed>
  <fix>3d</fix>
</trkpt>
<trkpt lat="33.810313" lon="-118.393867">
  <ele>-0.122</ele>
  <time>2026-09-02T22:12:41Z</time>
  <course>187.27</course>
  <speed>0.03605551275463989</speed>
  <fix>3d</fix>
</trkpt>
<trkpt lat="33.810313" lon="-118.393867">
  <ele>-0.12</ele>
  <time>2026-09-02T22:12:41Z</time>
  <course>0.0</course>
  <speed>0.0</speed>
  <fix>3d</fix>
</trkpt>
<trkpt lat="33.810313" lon="-118.393867">
  <ele>-0.122</ele>
  <time>2026-09-02T22:12:41Z</time>
  <course>187.27</course>
  <speed>0.03605551275463989</speed>
  <fix>3d</fix>
</trkpt>
<trkpt lat="33.810313" lon="-118.393867">
  <ele>-0.12</ele>
  <time>2026-09-02T22:12:41Z</time>
  <course>0.0</course>
  <speed>0.0</speed>
  <fix>3d</fix>
</trkpt>
<trkpt lat="33.810313" lon="-118.393867">
  <ele>-0.122</ele>
  <time>2026-09-02T22:12:41Z</time>
  <course>187.26</course>
  <speed>0.03605551275463989</speed>
  <fix>3d</fix>
</trkpt>
<trkpt lat="33.810313" lon="-118.393867">
  <ele>-0.12</ele>
  <time>2026-09-02T22:12:41Z</time>
  <course>0.0</course>
  <speed>0.0</speed>
  <fix>3d</fix>
</trkpt>
<trkpt lat="33.810313" lon="-118.393867">
  <ele>-0.12</ele>
  <time>2026-09-02T22:12:41Z</time>
  <course>187.26</course>
  <speed>0.03605551275463989</speed>
  <fix>3d</fix>
</trkpt>
<trkpt lat="33.810313" lon="-118.393867">
  <ele>-0.12</ele>
  <time>2026-09-02T22:12:41Z</time>
  <course>0.0</course>
  <speed>0.0</speed>
  <fix>3d</fix>
</trkpt>
<trkpt lat="33.810313" lon="-118.393867">
  <ele>-0.12</ele>
  <time>2026-09-02T22:12:41Z</time>
  <course>187.25</course>
  <speed>0.03605551275463989</speed>
  <fix>3d</fix>
</trkpt>
<trkpt lat="33.810313" lon="-118.393867">
  <ele>-0.12</ele>
  <time>2026-09-02T22:12:41Z</time>
  <course>0.0</course>
  <speed>0.0</speed>
  <fix>3d</fix>
</trkpt>
<trkpt lat="33.810313" lon="-118.393867">
  <ele>-0.119</ele>
  <time>2026-09-02T22:12:41Z</time>
  <course>187.25</course>
  <speed>0.03605551275463989</speed>
  <fix>3d</fix>
</trkpt>
<trkpt lat="33.810313" lon="-118.393867">
  <ele>-0.12</ele>
  <time>2026-09-02T22:12:41Z</time>
  <course>0.0</course>
  <speed>0.0</speed>
  <fix>3d</fix>
</trkpt>
<trkpt lat="33.810313" lon="-118.393867">
  <ele>-0.119</ele>
  <time>2026-09-02T22:12:41Z</time>
  <course>187.24</course>
  <speed>0.03605551275463989</speed>
  <fix>3d</fix>
</trkpt>
<trkpt lat="33.810313" lon="-118.393867">
  <ele>-0.12</ele>
  <time>2026-09-02T22:12:41Z</time>
  <course>0.0</course>
  <speed>0.0</speed>
  <fix>3d</fix>
</trkpt>
<trkpt lat="33.810313" lon="-118.393867">
  <ele>-0.118</ele>
  <time>2026-09-02T22:12:41Z</time>
  <course>187.24</course>
  <speed>0.03605551275463989</speed>
  <fix>3d</fix>
</trkpt>
<trkpt lat="33.810313" lon="-118.393867">
  <ele>-0.12</ele>
  <time>2026-09-02T22:12:41Z</time>
  <course>0.0</course>
  <speed>0.0</speed>
  <fix>3d</fix>
</trkpt>
<trkpt lat="33.810313" lon="-118.393867">
  <ele>-0.117</ele>
  <time>2026-09-02T22:12:41Z</time>
  <course>187.23</course>
  <speed>0.03605551275463989</speed>
  <fix>3d</fix>
</trkpt>
<trkpt lat="33.810313" lon="-118.393867">
  <ele>-0.12</ele>
  <time>2026-09-02T22:12:41Z</time>
  <course>0.0</course>
  <speed>0.0</speed>
  <fix>3d</fix>
</trkpt>
<trkpt lat="33.810313" lon="-118.393867">
  <ele>-0.117</ele>
  <time>2026-09-02T22:12:41Z</time>
  <course>187.23</course>
  <speed>0.03605551275463989</speed>
  <fix>3d</fix>
</trkpt>
<trkpt lat="33.810313" lon="-118.393867">
  <ele>-0.12</ele>
  <time>2026-09-02T22:12:41Z</time>
  <course>0.0</course>
  <speed>0.0</speed>
  <fix>3d</fix>
</trkpt>
<trkpt lat="33.810313" lon="-118.393867">
  <ele>-0.117</ele>
  <time>2026-09-02T22:12:41Z</time>
  <course>187.22</course>
  <speed>0.03605551275463989</speed>
  <fix>3d</fix>
</trkpt>
<trkpt lat="33.810313" lon="-118.393867">
  <ele>-0.12</ele>
  <time>2026-09-02T22:12:41Z</time>
  <course>0.0</course>
  <speed>0.0</speed>
  <fix>3d</fix>
</trkpt>
<trkpt lat="33.810313" lon="-118.393867">
  <ele>-0.118</ele>
  <time>2026-09-02T22:12:41Z</time>
  <course>187.21</course>
  <speed>0.03605551275463989</speed>
  <fix>3d</fix>
</trkpt>
<trkpt lat="33.810313" lon="-118.393867">
  <ele>-0.12</ele>
  <time>2026-09-02T22:12:41Z</time>
  <course>0.0</course>
  <speed>0.0</speed>
  <fix>3d</fix>
</trkpt>
<trkpt lat="33.810313" lon="-118.393867">
  <ele>-0.119</ele>
  <time>2026-09-02T22:12:41Z</time>
  <course>187.21</course>
  <speed>0.03605551275463989</speed>
  <fix>3d</fix>
</trkpt>
<trkpt lat="33.810313" lon="-118.393867">
  <ele>-0.12</ele>
  <time>2026-09-02T22:12:41Z</time>
  <course>0.0</course>
  <speed>0.0</speed>
  <fix>3d</fix>
</trkpt>
<trkpt lat="33.810313" lon="-118.393867">
  <ele>-0.12</ele>
  <time>2026-09-02T22:12:41Z</time>
  <course>187.2</course>
  <speed>0.03605551275463989</speed>
  <fix>3d</fix>
</trkpt>
<trkpt lat="33.810313" lon="-118.393867">
  <ele>-0.12</ele>
  <time>2026-09-02T22:12:41Z</time>
  <course>0.0</course>
  <speed>0.0</speed>
  <fix>3d</fix>
</trkpt>
<trkpt lat="33.810313" lon="-118.393867">
  <ele>-0.12</ele>
  <time>2026-09-02T22:12:41Z</time>
  <course>187.2</course>
  <speed>0.03605551275463989</speed>
  <fix>3d</fix>
</trkpt>
<trkpt lat="33.810313" lon="-118.393867">
  <ele>-0.12</ele>
  <time>2026-09-02T22:12:41Z</time>
  <course>0.0</course>
  <speed>0.0</speed>
  <fix>3d</fix>
</trkpt>
<trkpt lat="33.810313" lon="-118.393867">
  <ele>-0.119</ele>
  <time>2026-09-02T22:12:41Z</time>
  <course>187.19</course>
  <speed>0.03605551275463989</speed>
  <fix>3d</fix>
</trkpt>
<trkpt lat="33.810313" lon="-118.393867">
  <ele>-0.12</ele>
  <time>2026-09-02T22:12:41Z</time>
  <course>0.0</course>
  <speed>0.0</speed>
  <fix>3d</fix>
</trkpt>
<trkpt lat="33.810313" lon="-118.393867">
  <ele>-0.118</ele>
  <time>2026-09-02T22:12:41Z</time>
  <course>187.19</course>
  <speed>0.03605551275463989</speed>
  <fix>3d</fix>
</trkpt>
<trkpt lat="33.810313" lon="-118.393867">
  <ele>-0.12</ele>
  <time>2026-09-02T22:12:41Z</time>
  <course>0.0</course>
  <speed>0.0</speed>
  <fix>3d</fix>
</trkpt>
<trkpt lat="33.810313" lon="-118.393867">
  <ele>-0.117</ele>
  <time>2026-09-02T22:12:41Z</time>
  <course>187.18</course>
  <speed>0.03605551275463989</speed>
  <fix>3d</fix>
</trkpt>
<trkpt lat="33.810313" lon="-118.393867">
  <ele>-0.12</ele>
  <time>2026-09-02T22:12:41Z</time>
  <course>0.0</course>
  <speed>0.0</speed>
  <fix>3d</fix>
</trkpt>
<trkpt lat="33.810313" lon="-118.393867">
  <ele>-0.118</ele>
  <time>2026-09-02T22:12:41Z</time>
  <course>187.18</course>
  <speed>0.03605551275463989</speed>
  <fix>3d</fix>
</trkpt>
<trkpt lat="33.810313" lon="-118.393867">
  <ele>-0.12</ele>
  <time>2026-09-02T22:12:41Z</time>
  <course>0.0</course>
  <speed>0.0</speed>
  <fix>3d</fix>
</trkpt>
<trkpt lat="33.810313" lon="-118.393867">
  <ele>-0.119</ele>
  <time>2026-09-02T22:12:41Z</time>
  <course>187.17</course>
  <speed>0.03605551275463989</speed>
  <fix>3d</fix>
</trkpt>
<trkpt lat="33.810313" lon="-118.393867">
  <ele>-0.12</ele>
  <time>2026-09-02T22:12:41Z</time>
  <course>0.0</course>
  <speed>0.0</speed>
  <fix>3d</fix>
</trkpt>
<trkpt lat="33.810313" lon="-118.393867">
  <ele>-0.12</ele>
  <time>2026-09-02T22:12:41Z</time>
  <course>187.17</course>
  <speed>0.0</speed>
  <fix>3d</fix>
</trkpt>
<trkpt lat="33.810313" lon="-118.393867">
  <ele>-0.12</ele>
  <time>2026-09-02T22:12:41Z</time>
  <course>0.0</course>
  <speed>0.0</speed>
  <fix>3d</fix>
</trkpt>
<trkpt lat="33.810313" lon="-118.393867">
  <ele>-0.121</ele>
  <time>2026-09-02T22:12:41Z</time>
  <course>187.16</course>
  <speed>0.0</speed>
  <fix>3d</fix>
</trkpt>
<trkpt lat="33.810313" lon="-118.393867">
  <ele>-0.12</ele>
  <time>2026-09-02T22:12:41Z</time>
  <course>0.0</course>
  <speed>0.0</speed>
  <fix>3d</fix>
</trkpt>
<trkpt lat="33.810313" lon="-118.393867">
  <ele>-0.121</ele>
  <time>2026-09-02T22:12:41Z</time>
  <course>187.16</course>
  <speed>0.0</speed>
  <fix>3d</fix>
</trkpt>
<trkpt lat="33.810313" lon="-118.393867">
  <ele>-0.12</ele>
  <time>2026-09-02T22:12:41Z</time>
  <course>0.0</course>
  <speed>0.0</speed>
  <fix>3d</fix>
</trkpt>
<trkpt lat="33.810313" lon="-118.393867">
  <ele>-0.121</ele>
  <time>2026-09-02T22:12:41Z</time>
  <course>187.15</course>
  <speed>0.0</speed>
  <fix>3d</fix>
</trkpt>
<trkpt lat="33.810313" lon="-118.393867">
  <ele>-0.12</ele>
  <time>2026-09-02T22:12:41Z</time>
  <course>0.0</course>
  <speed>0.0</speed>
  <fix>3d</fix>
</trkpt>
<trkpt lat="33.810313" lon="-118.393867">
  <ele>-0.12</ele>
  <time>2026-09-02T22:12:41Z</time>
  <course>187.15</course>
  <speed>0.0</speed>
  <fix>3d</fix>
</trkpt>
<trkpt lat="33.810313" lon="-118.393867">
  <ele>-0.12</ele>
  <time>2026-09-02T22:12:41Z</time>
  <course>0.0</course>
  <speed>0.0</speed>
  <fix>3d</fix>
</trkpt>
<trkpt lat="33.810313" lon="-118.393867">
  <ele>-0.118</ele>
  <time>2026-09-02T22:12:41Z</time>
  <course>187.14</course>
  <speed>0.0</speed>
  <fix>3d</fix>
</trkpt>
<trkpt lat="33.810313" lon="-118.393867">
  <ele>-0.12</ele>
  <time>2026-09-02T22:12:41Z</time>
  <course>0.0</course>
  <speed>0.0</speed>
  <fix>3d</fix>
</trkpt>
<trkpt lat="33.810313" lon="-118.393867">
  <ele>-0.117</ele>
  <time>2026-09-02T22:12:41Z</time>
  <course>187.14</course>
  <speed>0.0</speed>
  <fix>3d</fix>
</trkpt>
<trkpt lat="33.810313" lon="-118.393867">
  <ele>-0.12</ele>
  <time>2026-09-02T22:12:41Z</time>
  <course>0.0</course>
  <speed>0.0</speed>
  <fix>3d</fix>
</trkpt>
<trkpt lat="33.810313" lon="-118.393867">
  <ele>-0.115</ele>
  <time>2026-09-02T22:12:41Z</time>
  <course>187.13</course>
  <speed>0.0</speed>
  <fix>3d</fix>
</trkpt>
<trkpt lat="33.810313" lon="-118.393867">
  <ele>-0.12</ele>
  <time>2026-09-02T22:12:41Z</time>
  <course>0.0</course>
  <speed>0.0</speed>
  <fix>3d</fix>
</trkpt>
<trkpt lat="33.810313" lon="-118.393867">
  <ele>-0.115</ele>
  <time>2026-09-02T22:12:41Z</time>
  <course>187.13</course>
  <speed>0.0</speed>
  <fix>3d</fix>
</trkpt>
<trkpt lat="33.810313" lon="-118.393867">
  <ele>-0.12</ele>
  <time>2026-09-02T22:12:41Z</time>
  <course>0.0</course>
  <speed>0.0</speed>
  <fix>3d</fix>
</trkpt>
<trkpt lat="33.810313" lon="-118.393867">
  <ele>-0.115</ele>
  <time>2026-09-02T22:12:41Z</time>
  <course>187.12</course>
  <speed>0.0</speed>
  <fix>3d</fix>
</trkpt>
<trkpt lat="33.810313" lon="-118.393867">
  <ele>-0.12</ele>
  <time>2026-09-02T22:12:41Z</time>
  <course>0.0</course>
  <speed>0.0</speed>
  <fix>3d</fix>
</trkpt>
<trkpt lat="33.810313" lon="-118.393867">
  <ele>-0.115</ele>
  <time>2026-09-02T22:12:41Z</time>
  <course>187.12</course>
  <speed>0.0</speed>
  <fix>3d</fix>
</trkpt>
<trkpt lat="33.810313" lon="-118.393867">
  <ele>-0.12</ele>
  <time>2026-09-02T22:12:41Z</time>
  <course>0.0</course>
  <speed>0.0</speed>
  <fix>3d</fix>
</trkpt>
<trkpt lat="33.810313" lon="-118.393867">
  <ele>-0.115</ele>
  <time>2026-09-02T22:12:41Z</time>
  <course>187.11</course>
  <speed>0.01</speed>
  <fix>3d</fix>
</trkpt>
<trkpt lat="33.810313" lon="-118.393867">
  <ele>-0.12</ele>
  <time>2026-09-02T22:12:41Z</time>
  <course>0.0</course>
  <speed>0.0</speed>
  <fix>3d</fix>
</trkpt>
<trkpt lat="33.810313" lon="-118.393867">
  <ele>-0.114</ele>
  <time>2026-09-02T22:12:41Z</time>
  <course>187.11</course>
  <speed>0.01</speed>
  <fix>3d</fix>
</trkpt>
<trkpt lat="33.810313" lon="-118.393867">
  <ele>-0.12</ele>
  <time>2026-09-02T22:12:41Z</time>
  <course>0.0</course>
  <speed>0.0</speed>
  <fix>3d</fix>
</trkpt>
<trkpt lat="33.810313" lon="-118.393867">
  <ele>-0.114</ele>
  <time>2026-09-02T22:12:41Z</time>
  <course>187.1</course>
  <speed>0.01</speed>
  <fix>3d</fix>
</trkpt>
<trkpt lat="33.810313" lon="-118.393867">
  <ele>-0.12</ele>
  <time>2026-09-02T22:12:41Z</time>
  <course>0.0</course>
  <speed>0.0</speed>
  <fix>3d</fix>
</trkpt>
<trkpt lat="33.810313" lon="-118.393867">
  <ele>-0.114</ele>
  <time>2026-09-02T22:12:41Z</time>
  <course>187.1</course>
  <speed>0.01414213562373095</speed>
  <fix>3d</fix>
</trkpt>
<trkpt lat="33.810313" lon="-118.393867">
  <ele>-0.12</ele>
  <time>2026-09-02T22:12:41Z</time>
  <course>0.0</course>
  <speed>0.0</speed>
  <fix>3d</fix>
</trkpt>
<trkpt lat="33.810313" lon="-118.393867">
  <ele>-0.116</ele>
  <time>2026-09-02T22:12:41Z</time>
  <course>187.1</course>
  <speed>0.01414213562373095</speed>
  <fix>3d</fix>
</trkpt>
<trkpt lat="33.810313" lon="-118.393867">
  <ele>-0.12</ele>
  <time>2026-09-02T22:12:41Z</time>
  <course>0.0</course>
  <speed>0.0</speed>
  <fix>3d</fix>
</trkpt>
<trkpt lat="33.810313" lon="-118.393867">
  <ele>-0.134</ele>
  <time>2026-09-02T22:12:41Z</time>
  <course>187.86</course>
  <speed>0.01</speed>
  <fix>3d</fix>
</trkpt>
<trkpt lat="33.810313" lon="-118.393867">
  <ele>-0.12</ele>
  <time>2026-09-02T22:12:41Z</time>
  <course>94.87</course>
  <speed>0.0</speed>
  <fix>3d</fix>
</trkpt>
<trkpt lat="33.810313" lon="-118.393867">
  <ele>-0.163</ele>
  <time>2026-09-02T22:12:41Z</time>
  <course>190.85</course>
  <speed>0.01</speed>
  <fix>3d</fix>
</trkpt>
<trkpt lat="33.810313" lon="-118.393867">
  <ele>-0.12</ele>
  <time>2026-09-02T22:12:41Z</time>
  <course>94.87</course>
  <speed>0.0</speed>
  <fix>3d</fix>
</trkpt>
<trkpt lat="33.810313" lon="-118.393867">
  <ele>-0.19</ele>
  <time>2026-09-02T22:12:41Z</time>
  <course>195.41</course>
  <speed>0.022360679774997897</speed>
  <fix>3d</fix>
</trkpt>
<trkpt lat="33.810313" lon="-118.393867">
  <ele>-0.14</ele>
  <time>2026-09-02T22:12:41Z</time>
  <course>93.26</course>
  <speed>0.0</speed>
  <fix>3d</fix>
</trkpt>
<trkpt lat="33.810313" lon="-118.393867">
  <ele>-0.212</ele>
  <time>2026-09-02T22:12:41Z</time>
  <course>200.18</course>
  <speed>0.04242640687119285</speed>
  <fix>3d</fix>
</trkpt>
<trkpt lat="33.810313" lon="-118.393867">
  <ele>-0.14</ele>
  <time>2026-09-02T22:12:41Z</time>
  <course>93.26</course>
  <speed>0.0</speed>
  <fix>3d</fix>
</trkpt>
<trkpt lat="33.810313" lon="-118.393867">
  <ele>-0.228</ele>
  <time>2026-09-02T22:12:41Z</time>
  <course>204.91</course>
  <speed>0.0565685424949238</speed>
  <fix>3d</fix>
</trkpt>
<trkpt lat="33.810313" lon="-118.393867">
  <ele>-0.19</ele>
  <time>2026-09-02T22:12:41Z</time>
  <course>322.93</course>
  <speed>0.0</speed>
  <fix>3d</fix>
</trkpt>
<trkpt lat="33.810313" lon="-118.3938671">
  <ele>-0.241</ele>
  <time>2026-09-02T22:12:41Z</time>
  <course>209.74</course>
  <speed>0.07810249675906654</speed>
  <fix>3d</fix>
</trkpt>
<trkpt lat="33.810313" lon="-118.393867">
  <ele>-0.19</ele>
  <time>2026-09-02T22:12:41Z</time>
  <course>322.93</course>
  <speed>0.0</speed>
  <fix>3d</fix>
</trkpt>
<trkpt lat="33.8103131" lon="-118.3938671">
  <ele>-0.249</ele>
  <time>2026-09-02T22:12:41Z</time>
  <course>214.74</course>
  <speed>0.1063014581273465</speed>
  <fix>3d</fix>
</trkpt>
<trkpt lat="33.810313" lon="-118.393867">
  <ele>-0.22</ele>
  <time>2026-09-02T22:12:41Z</time>
  <course>306.76</course>
  <speed>0.05</speed>
  <fix>3d</fix>
</trkpt>
<trkpt lat="33.8103132" lon="-118.3938672">
  <ele>-0.253</ele>
  <time>2026-09-02T22:12:41Z</time>
  <course>219.87</course>
  <speed>0.1345362404707371</speed>
  <fix>3d</fix>
</trkpt>
<trkpt lat="33.810313" lon="-118.393867">
  <ele>-0.22</ele>
  <time>2026-09-02T22:12:41Z</time>
  <course>306.76</course>
  <speed>0.05</speed>
  <fix>3d</fix>
</trkpt>
<trkpt lat="33.8103132" lon="-118.3938673">
  <ele>-0.252</ele>
  <time>2026-09-02T22:12:41Z</time>
  <course>225.09</course>
  <speed>0.14866068747318506</speed>
  <fix>3d</fix>
</trkpt>
<trkpt lat="33.810313" lon="-118.3938671">
  <ele>-0.24</ele>
  <time>2026-09-02T22:12:41Z</time>
  <course>309.25</course>
  <speed>0.09</speed>
  <fix>3d</fix>
</trkpt>
<trkpt lat="33.8103133" lon="-118.3938674">
  <ele>-0.247</ele>
  <time>2026-09-02T22:12:41Z</time>
  <course>230.45</course>
  <speed>0.14866068747318506</speed>
  <fix>3d</fix>
</trkpt>
<trkpt lat="33.810313" lon="-118.3938671">
  <ele>-0.24</ele>
  <time>2026-09-02T22:12:41Z</time>
  <course>309.25</course>
  <speed>0.09</speed>
  <fix>3d</fix>
</trkpt>
<trkpt lat="33.8103134" lon="-118.3938675">
  <ele>-0.239</ele>
  <time>2026-09-02T22:12:41Z</time>
  <course>235.85</course>
  <speed>0.14866068747318506</speed>
  <fix>3d</fix>
</trkpt>
<trkpt lat="33.8103131" lon="-118.3938672">
  <ele>-0.24</ele>
  <time>2026-09-02T22:12:41Z</time>
  <course>312.1</course>
  <speed>0.13</speed>
  <fix>3d</fix>
</trkpt>
<trkpt lat="33.8103134" lon="-118.3938676">
  <ele>-0.23</ele>
  <time>2026-09-02T22:12:41Z</time>
  <course>241.33</course>
  <speed>0.12806248474865697</speed>
  <fix>3d</fix>
</trkpt>
<trkpt lat="33.8103131" lon="-118.3938672">
  <ele>-0.24</ele>
  <time>2026-09-02T22:12:41Z</time>
  <course>312.1</course>
  <speed>0.13</speed>
  <fix>3d</fix>
</trkpt>
<trkpt lat="33.8103135" lon="-118.3938677">
  <ele>-0.221</ele>
  <time>2026-09-02T22:12:41Z</time>
  <course>246.88</course>
  <speed>0.10295630140987001</speed>
  <fix>3d</fix>
</trkpt>
<trkpt lat="33.8103134" lon="-118.3938675">
  <ele>-0.23</ele>
  <time>2026-09-02T22:12:41Z</time>
  <course>311.99</course>
  <speed>0.13</speed>
  <fix>3d</fix>
</trkpt>
<trkpt lat="33.8103135" lon="-118.3938678">
  <ele>-0.215</ele>
  <time>2026-09-02T22:12:41Z</time>
  <course>252.51</course>
  <speed>0.09486832980505139</speed>
  <fix>3d</fix>
</trkpt>
<trkpt lat="33.8103134" lon="-118.3938675">
  <ele>-0.23</ele>
  <time>2026-09-02T22:12:41Z</time>
  <course>311.99</course>
  <speed>0.13</speed>
  <fix>3d</fix>
</trkpt>
<trkpt lat="33.8103135" lon="-118.3938678">
  <ele>-0.211</ele>
  <time>2026-09-02T22:12:41Z</time>
  <course>258.18</course>
  <speed>0.09</speed>
  <fix>3d</fix>
</trkpt>
<trkpt lat="33.8103135" lon="-118.3938676">
  <ele>-0.22</ele>
  <time>2026-09-02T22:12:41Z</time>
  <course>302.97</course>
  <speed>0.1</speed>
  <fix>3d</fix>
</trkpt>
<trkpt lat="33.8103135" lon="-118.3938679">
  <ele>-0.21</ele>
  <time>2026-09-02T22:12:41Z</time>
  <course>263.91</course>
  <speed>0.09219544457292887</speed>
  <fix>3d</fix>
</trkpt>
<trkpt lat="33.8103135" lon="-118.3938676">
  <ele>-0.22</ele>
  <time>2026-09-02T22:12:41Z</time>
  <course>302.97</course>
  <speed>0.1</speed>
  <fix>3d</fix>
</trkpt>
<trkpt lat="33.8103135" lon="-118.393868">
  <ele>-0.212</ele>
  <time>2026-09-02T22:12:41Z</time>
  <course>269.66</course>
  <speed>0.09848857801796104</speed>
  <fix>3d</fix>
</trkpt>
<trkpt lat="33.8103136" lon="-118.3938679">
  <ele>-0.22</ele>
  <time>2026-09-02T22:12:41Z</time>
  <course>275.77</course>
  <speed>0.07</speed>
  <fix>3d</fix>
</trkpt>
<trkpt lat="33.8103135" lon="-118.3938681">
  <ele>-0.215</ele>
  <time>2026-09-02T22:12:41Z</time>
  <course>275.46</course>
  <speed>0.1118033988749895</speed>
  <fix>3d</fix>
</trkpt>
<trkpt lat="33.8103136" lon="-118.3938679">
  <ele>-0.22</ele>
  <time>2026-09-02T22:12:41Z</time>
  <course>275.77</course>
  <speed>0.07</speed>
  <fix>3d</fix>
</trkpt>
<trkpt lat="33.8103135" lon="-118.3938682">
  <ele>-0.219</ele>
  <time>2026-09-02T22:12:41Z</time>
  <course>281.29</course>
  <speed>0.11661903789690602</speed>
  <fix>3d</fix>
</trkpt>
<trkpt lat="33.8103136" lon="-118.3938681">
  <ele>-0.22</ele>
  <time>2026-09-02T22:12:41Z</time>
  <course>247.57</course>
  <speed>0.08</speed>
  <fix>3d</fix>
</trkpt>
<trkpt lat="33.8103134" lon="-118.3938683">
  <ele>-0.223</ele>
  <time>2026-09-02T22:12:41Z</time>
  <course>287.16</course>
  <speed>0.12529964086141668</speed>
  <fix>3d</fix>
</trkpt>
<trkpt lat="33.8103136" lon="-118.3938681">
  <ele>-0.22</ele>
  <time>2026-09-02T22:12:41Z</time>
  <course>247.57</course>
  <speed>0.08</speed>
  <fix>3d</fix>
</trkpt>
<trkpt lat="33.8103134" lon="-118.3938684">
  <ele>-0.229</ele>
  <time>2026-09-02T22:12:41Z</time>
  <course>293.05</course>
  <speed>0.12083045973594572</speed>
  <fix>3d</fix>
</trkpt>
<trkpt lat="33.8103135" lon="-118.3938682">
  <ele>-0.23</ele>
  <time>2026-09-02T22:12:41Z</time>
  <course>237.52</course>
  <speed>0.09</speed>
  <fix>3d</fix>
</trkpt>
<trkpt lat="33.8103134" lon="-118.3938686">
  <ele>-0.235</ele>
  <time>2026-09-02T22:12:41Z</time>
  <course>298.98</course>
  <speed>0.12083045973594572</speed>
  <fix>3d</fix>
</trkpt>
<trkpt lat="33.8103135" lon="-118.3938682">
  <ele>-0.23</ele>
  <time>2026-09-02T22:12:41Z</time>
  <course>237.52</course>
  <speed>0.09</speed>
  <fix>3d</fix>
</trkpt>
<trkpt lat="33.8103134" lon="-118.3938687">
  <ele>-0.24</ele>
  <time>2026-09-02T22:12:41Z</time>
  <course>304.92</course>
  <speed>0.10770329614269007</speed>
  <fix>3d</fix>
</trkpt>
<trkpt lat="33.8103134" lon="-118.3938684">
  <ele>-0.24</ele>
  <time>2026-09-02T22:12:41Z</time>
  <course>236.38</course>
  <speed>0.09</speed>
  <fix>3d</fix>
</trkpt>
<trkpt lat="33.8103134" lon="-118.3938688">
  <ele>-0.244</ele>
  <time>2026-09-02T22:12:41Z</time>
  <course>310.89</course>
  <speed>0.1044030650891055</speed>
  <fix>3d</fix>
</trkpt>
<trkpt lat="33.8103134" lon="-118.3938684">
  <ele>-0.24</ele>
  <time>2026-09-02T22:12:41Z</time>
  <course>236.38</course>
  <speed>0.09</speed>
  <fix>3d</fix>
</trkpt>
<trkpt lat="33.8103134" lon="-118.3938688">
  <ele>-0.247</ele>
  <time>2026-09-02T22:12:41Z</time>
  <course>316.89</course>
  <speed>0.09219544457292887</speed>
  <fix>3d</fix>
</trkpt>
<trkpt lat="33.8103134" lon="-118.3938685">
  <ele>-0.25</ele>
  <time>2026-09-02T22:12:41Z</time>
  <course>237.99</course>
  <speed>0.07</speed>
  <fix>3d</fix>
</trkpt>
<trkpt lat="33.8103134" lon="-118.3938689">
  <ele>-0.248</ele>
  <time>2026-09-02T22:12:41Z</time>
  <course>322.91</course>
  <speed>0.08062257748298549</speed>
  <fix>3d</fix>
</trkpt>
<trkpt lat="33.8103134" lon="-118.3938685">
  <ele>-0.25</ele>
  <time>2026-09-02T22:12:41Z</time>
  <course>237.99</course>
  <speed>0.07</speed>
  <fix>3d</fix>
</trkpt>
<trkpt lat="33.8103134" lon="-118.3938689">
  <ele>-0.246</ele>
  <time>2026-09-02T22:12:41Z</time>
  <course>328.95</course>
  <speed>0.07071067811865475</speed>
  <fix>3d</fix>
</trkpt>
<trkpt lat="33.8103133" lon="-118.3938686">
  <ele>-0.24</ele>
  <time>2026-09-02T22:12:41Z</time>
  <course>239.3</course>
  <speed>0.05</speed>
  <fix>3d</fix>
</trkpt>
<trkpt lat="33.8103134" lon="-118.393869">
  <ele>-0.242</ele>
  <time>2026-09-02T22:12:41Z</time>
  <course>334.87</course>
  <speed>0.07</speed>
  <fix>3d</fix>
</trkpt>
<trkpt lat="33.8103133" lon="-118.3938686">
  <ele>-0.24</ele>
  <time>2026-09-02T22:12:41Z</time>
  <course>239.3</course>
  <speed>0.05</speed>
  <fix>3d</fix>
</trkpt>
<trkpt lat="33.8103133" lon="-118.393869">
  <ele>-0.235</ele>
  <time>2026-09-02T22:12:41Z</time>
  <course>339.69</course>
  <speed>0.07</speed>
  <fix>3d</fix>
</trkpt>
<trkpt lat="33.8103133" lon="-118.3938687">
  <ele>-0.23</ele>
  <time>2026-09-02T22:12:41Z</time>
  <course>238.29</course>
  <speed>0.03</speed>
  <fix>3d</fix>
</trkpt>
<trkpt lat="33.8103133" lon="-118.3938691">
  <ele>-0.228</ele>
  <time>2026-09-02T22:12:41Z</time>
  <course>341.99</course>
  <speed>0.09</speed>
  <fix>3d</fix>
</trkpt>
<trkpt lat="33.8103133" lon="-118.3938687">
  <ele>-0.23</ele>
  <time>2026-09-02T22:12:41Z</time>
  <course>238.29</course>
  <speed>0.03</speed>
  <fix>3d</fix>
</trkpt>
<trkpt lat="33.8103133" lon="-118.3938691">
  <ele>-0.225</ele>
  <time>2026-09-02T22:12:41Z</time>
  <course>343.1</course>
  <speed>0.11</speed>
  <fix>3d</fix>
</trkpt>
<trkpt lat="33.8103132" lon="-118.3938688">
  <ele>-0.22</ele>
  <time>2026-09-02T22:12:41Z</time>
  <course>245.56</course>
  <speed>0.04</speed>
  <fix>3d</fix>
</trkpt>
<trkpt lat="33.8103133" lon="-118.3938692">
  <ele>-0.224</ele>
  <time>2026-09-02T22:12:41Z</time>
  <course>345.13</course>
  <speed>0.12</speed>
  <fix>3d</fix>
</trkpt>
<trkpt lat="33.8103132" lon="-118.3938688">
  <ele>-0.22</ele>
  <time>2026-09-02T22:12:41Z</time>
  <course>245.56</course>
  <speed>0.04</speed>
  <fix>3d</fix>
</trkpt>
<trkpt lat="33.8103133" lon="-118.3938693">
  <ele>-0.223</ele>
  <time>2026-09-02T22:12:41Z</time>
  <course>347.67</course>
  <speed>0.12</speed>
  <fix>3d</fix>
</trkpt>
<trkpt lat="33.8103131" lon="-118.3938689">
  <ele>-0.22</ele>
  <time>2026-09-02T22:12:41Z</time>
  <course>253.24</course>
  <speed>0.05</speed>
  <fix>3d</fix>
</trkpt>
<trkpt lat="33.8103133" lon="-118.3938694">
  <ele>-0.224</ele>
  <time>2026-09-02T22:12:41Z</time>
  <course>350.08</course>
  <speed>0.12</speed>
  <fix>3d</fix>
</trkpt>
<trkpt lat="33.8103131" lon="-118.3938689">
  <ele>-0.22</ele>
  <time>2026-09-02T22:12:41Z</time>
  <course>253.24</course>
  <speed>0.05</speed>
  <fix>3d</fix>
</trkpt>
<trkpt lat="33.8103133" lon="-118.3938694">
  <ele>-0.224</ele>
  <time>2026-09-02T22:12:41Z</time>
  <course>352.29</course>
  <speed>0.12</speed>
  <fix>3d</fix>
</trkpt>
<trkpt lat="33.8103131" lon="-118.393869">
  <ele>-0.22</ele>
  <time>2026-09-02T22:12:41Z</time>
  <course>255.41</course>
  <speed>0.06</speed>
  <fix>3d</fix>
</trkpt>
<trkpt lat="33.8103132" lon="-118.3938695">
  <ele>-0.223</ele>
  <time>2026-09-02T22:12:41Z</time>
  <course>354.28</course>
  <speed>0.11</speed>
  <fix>3d</fix>
</trkpt>
<trkpt lat="33.8103131" lon="-118.393869">
  <ele>-0.22</ele>
  <time>2026-09-02T22:12:41Z</time>
  <course>255.41</course>
  <speed>0.06</speed>
  <fix>3d</fix>
</trkpt>
<trkpt lat="33.8103132" lon="-118.3938696">
  <ele>-0.221</ele>
  <time>2026-09-02T22:12:41Z</time>
  <course>356.05</course>
  <speed>0.11</speed>
  <fix>3d</fix>
</trkpt>
<trkpt lat="33.8103131" lon="-118.3938691">
  <ele>-0.22</ele>
  <time>2026-09-02T22:12:41Z</time>
  <course>255.48</course>
  <speed>0.06</speed>
  <fix>3d</fix>
</trkpt>
<trkpt lat="33.8103132" lon="-118.3938697">
  <ele>-0.221</ele>
  <time>2026-09-02T22:12:41Z</time>
  <course>357.6</course>
  <speed>0.11</speed>
  <fix>3d</fix>
</trkpt>
<trkpt lat="33.8103131" lon="-118.3938691">
  <ele>-0.22</ele>
  <time>2026-09-02T22:12:41Z</time>
  <course>255.48</course>
  <speed>0.06</speed>
  <fix>3d</fix>
</trkpt>
<trkpt lat="33.8103132" lon="-118.3938697">
  <ele>-0.221</ele>
  <time>2026-09-02T22:12:41Z</time>
  <course>358.88</course>
  <speed>0.11</speed>
  <fix>3d</fix>
</trkpt>
<trkpt lat="33.8103131" lon="-118.3938693">
  <ele>-0.22</ele>
  <time>2026-09-02T22:12:41Z</time>
  <course>255.22</course>
  <speed>0.05</speed>
  <fix>3d</fix>
</trkpt>
<trkpt lat="33.8103132" lon="-118.3938698">
  <ele>-0.22</ele>
  <time>2026-09-02T22:12:41Z</time>
  <course>359.77</course>
  <speed>0.11</speed>
  <fix>3d</fix>
</trkpt>
<trkpt lat="33.8103131" lon="-118.3938693">
  <ele>-0.22</ele>
  <time>2026-09-02T22:12:41Z</time>
  <course>255.22</course>
  <speed>0.05</speed>
  <fix>3d</fix>
</trkpt>
<trkpt lat="33.8103132" lon="-118.3938698">
  <ele>-0.218</ele>
  <time>2026-09-02T22:12:41Z</time>
  <course>0.38</course>
  <speed>0.1</speed>
  <fix>3d</fix>
</trkpt>
<trkpt lat="33.8103131" lon="-118.3938694">
  <ele>-0.21</ele>
  <time>2026-09-02T22:12:41Z</time>
  <course>254.83</course>
  <speed>0.05</speed>
  <fix>3d</fix>
</trkpt>
<trkpt lat="33.8103131" lon="-118.3938699">
  <ele>-0.216</ele>
  <time>2026-09-02T22:12:41Z</time>
  <course>0.85</course>
  <speed>0.1</speed>
  <fix>3d</fix>
</trkpt>
<trkpt lat="33.8103131" lon="-118.3938694">
  <ele>-0.21</ele>
  <time>2026-09-02T22:12:41Z</time>
  <course>254.83</course>
  <speed>0.05</speed>
  <fix>3d</fix>
</trkpt>
<trkpt lat="33.8103131" lon="-118.39387">
  <ele>-0.214</ele>
  <time>2026-09-02T22:12:41Z</time>
  <course>1.23</course>
  <speed>0.1</speed>
  <fix>3d</fix>
</trkpt>
<trkpt lat="33.8103131" lon="-118.3938695">
  <ele>-0.21</ele>
  <time>2026-09-02T22:12:41Z</time>
  <course>254.39</course>
  <speed>0.05</speed>
  <fix>3d</fix>
</trkpt>
<trkpt lat="33.8103131" lon="-118.39387">
  <ele>-0.212</ele>
  <time>2026-09-02T22:12:41Z</time>
  <course>1.55</course>
  <speed>0.1</speed>
  <fix>3d</fix>
</trkpt>
<trkpt lat="33.8103131" lon="-118.3938695">
  <ele>-0.21</ele>
  <time>2026-09-02T22:12:41Z</time>
  <course>254.39</course>
  <speed>0.05</speed>
  <fix>3d</fix>
</trkpt>
<trkpt lat="33.8103131" lon="-118.3938701">
  <ele>-0.208</ele>
  <time>2026-09-02T22:12:41Z</time>
  <course>1.82</course>
  <speed>0.1</speed>
  <fix>3d</fix>
</trkpt>
<trkpt lat="33.8103131" lon="-118.3938696">
  <ele>-0.21</ele>
  <time>2026-09-02T22:12:41Z</time>
  <course>253.98</course>
  <speed>0.04</speed>
  <fix>3d</fix>
</trkpt>
<trkpt lat="33.8103131" lon="-118.3938701">
  <ele>-0.205</ele>
  <time>2026-09-02T22:12:41Z</time>
  <course>2.06</course>
  <speed>0.1</speed>
  <fix>3d</fix>
</trkpt>
<trkpt lat="33.8103131" lon="-118.3938696">
  <ele>-0.21</ele>
  <time>2026-09-02T22:12:41Z</time>
  <course>253.98</course>
  <speed>0.04</speed>
  <fix>3d</fix>
</trkpt>
<trkpt lat="33.8103131" lon="-118.3938702">
  <ele>-0.203</ele>
  <time>2026-09-02T22:12:41Z</time>
  <course>2.28</course>
  <speed>0.09</speed>
  <fix>3d</fix>
</trkpt>
<trkpt lat="33.810313" lon="-118.3938697">
  <ele>-0.2</ele>
  <time>2026-09-02T22:12:41Z</time>
  <course>253.63</course>
  <speed>0.04</speed>
  <fix>3d</fix>
</trkpt>
<trkpt lat="33.8103131" lon="-118.3938702">
  <ele>-0.201</ele>
  <time>2026-09-02T22:12:41Z</time>
  <course>2.47</course>
  <speed>0.09</speed>
  <fix>3d</fix>
</trkpt>
<trkpt lat="33.810313" lon="-118.3938697">
  <ele>-0.2</ele>
  <time>2026-09-02T22:12:41Z</time>
  <course>253.63</course>
  <speed>0.04</speed>
  <fix>3d</fix>
</trkpt>
<trkpt lat="33.8103131" lon="-118.3938703">
  <ele>-0.199</ele>
  <time>2026-09-02T22:12:41Z</time>
  <course>2.64</course>
  <speed>0.09</speed>
  <fix>3d</fix>
</trkpt>
<trkpt lat="33.810313" lon="-118.3938698">
  <ele>-0.2</ele>
  <time>2026-09-02T22:12:41Z</time>
  <course>253.46</course>
  <speed>0.04</speed>
  <fix>3d</fix>
</trkpt>
<trkpt lat="33.8103131" lon="-118.3938703">
  <ele>-0.198</ele>
  <time>2026-09-02T22:12:41Z</time>
  <course>2.8</course>
  <speed>0.09</speed>
  <fix>3d</fix>
</trkpt>
<trkpt lat="33.810313" lon="-118.3938698">
  <ele>-0.2</ele>
  <time>2026-09-02T22:12:41Z</time>
  <course>253.46</course>
  <speed>0.04</speed>
  <fix>3d</fix>
</trkpt>
<trkpt lat="33.8103131" lon="-118.3938703">
  <ele>-0.198</ele>
  <time>2026-09-02T22:12:41Z</time>
  <course>2.95</course>
  <speed>0.09</speed>
  <fix>3d</fix>
</trkpt>
<trkpt lat="33.810313" lon="-118.3938699">
  <ele>-0.2</ele>
  <time>2026-09-02T22:12:41Z</time>
  <course>253.55</course>
  <speed>0.04</speed>
  <fix>3d</fix>
</trkpt>
<trkpt lat="33.8103131" lon="-118.3938704">
  <ele>-0.198</ele>
  <time>2026-09-02T22:12:41Z</time>
  <course>3.09</course>
  <speed>0.08</speed>
  <fix>3d</fix>
</trkpt>
<trkpt lat="33.810313" lon="-118.3938699">
  <ele>-0.2</ele>
  <time>2026-09-02T22:12:41Z</time>
  <course>253.55</course>
  <speed>0.04</speed>
  <fix>3d</fix>
</trkpt>
<trkpt lat="33.810313" lon="-118.3938704">
  <ele>-0.199</ele>
  <time>2026-09-02T22:12:41Z</time>
  <course>3.22</course>
  <speed>0.08</speed>
  <fix>3d</fix>
</trkpt>
<trkpt lat="33.810313" lon="-118.39387">
  <ele>-0.2</ele>
  <time>2026-09-02T22:12:41Z</time>
  <course>253.74</course>
  <speed>0.04</speed>
  <fix>3d</fix>
</trkpt>
<trkpt lat="33.810313" lon="-118.3938704">
  <ele>-0.2</ele>
  <time>2026-09-02T22:12:41Z</time>
  <course>3.34</course>
  <speed>0.08</speed>
  <fix>3d</fix>
</trkpt>
<trkpt lat="33.810313" lon="-118.39387">
  <ele>-0.2</ele>
  <time>2026-09-02T22:12:41Z</time>
  <course>253.74</course>
  <speed>0.04</speed>
  <fix>3d</fix>
</trkpt>
<trkpt lat="33.810313" lon="-118.3938705">
  <ele>-0.201</ele>
  <time>2026-09-02T22:12:41Z</time>
  <course>3.45</course>
  <speed>0.08</speed>
  <fix>3d</fix>
</trkpt>
<trkpt lat="33.8103129" lon="-118.3938701">
  <ele>-0.2</ele>
  <time>2026-09-02T22:12:41Z</time>
  <course>253.86</course>
  <speed>0.03</speed>
  <fix>3d</fix>
</trkpt>
<trkpt lat="33.810313" lon="-118.3938705">
  <ele>-0.203</ele>
  <time>2026-09-02T22:12:41Z</time>
  <course>3.56</course>
  <speed>0.07</speed>
  <fix>3d</fix>
</trkpt>
<trkpt lat="33.8103129" lon="-118.3938701">
  <ele>-0.2</ele>
  <time>2026-09-02T22:12:41Z</time>
  <course>253.86</course>
  <speed>0.03</speed>
  <fix>3d</fix>
</trkpt>
<trkpt lat="33.810313" lon="-118.3938705">
  <ele>-0.206</ele>
  <time>2026-09-02T22:12:41Z</time>
  <course>3.66</course>
  <speed>0.07</speed>
  <fix>3d</fix>
</trkpt>
<trkpt lat="33.8103129" lon="-118.3938702">
  <ele>-0.21</ele>
  <time>2026-09-02T22:12:41Z</time>
  <course>253.87</course>
  <speed>0.03</speed>
  <fix>3d</fix>
</trkpt>
<trkpt lat="33.810313" lon="-118.3938706">
  <ele>-0.214</ele>
  <time>2026-09-02T22:12:41Z</time>
  <course>3.71</course>
  <speed>0.07</speed>
  <fix>3d</fix>
</trkpt>
<trkpt lat="33.8103129" lon="-118.3938702">
  <ele>-0.21</ele>
  <time>2026-09-02T22:12:41Z</time>
  <course>253.87</course>
  <speed>0.03</speed>
  <fix>3d</fix>
</trkpt>
<trkpt lat="33.810313" lon="-118.3938706">
  <ele>-0.223</ele>
  <time>2026-09-02T22:12:41Z</time>
  <course>3.44</course>
  <speed>0.07</speed>
  <fix>3d</fix>
</trkpt>
<trkpt lat="33.8103129" lon="-118.3938702">
  <ele>-0.22</ele>
  <time>2026-09-02T22:12:41Z</time>
  <course>254.89</course>
  <speed>0.03</speed>
  <fix>3d</fix>
</trkpt>
<trkpt lat="33.810313" lon="-118.3938706">
  <ele>-0.231</ele>
  <time>2026-09-02T22:12:41Z</time>
  <course>2.74</course>
  <speed>0.05</speed>
  <fix>3d</fix>
</trkpt>
<trkpt lat="33.8103129" lon="-118.3938702">
  <ele>-0.22</ele>
  <time>2026-09-02T22:12:41Z</time>
  <course>254.89</course>
  <speed>0.03</speed>
  <fix>3d</fix>
</trkpt>
<trkpt lat="33.810313" lon="-118.3938706">
  <ele>-0.237</ele>
  <time>2026-09-02T22:12:41Z</time>
  <course>1.89</course>
  <speed>0.04</speed>
  <fix>3d</fix>
</trkpt>
<trkpt lat="33.8103129" lon="-118.3938703">
  <ele>-0.23</ele>
  <time>2026-09-02T22:12:41Z</time>
  <course>252.9</course>
  <speed>0.02</speed>
  <fix>3d</fix>
</trkpt>
<trkpt lat="33.810313" lon="-118.3938706">
  <ele>-0.24</ele>
  <time>2026-09-02T22:12:41Z</time>
  <course>1.32</course>
  <speed>0.01</speed>
  <fix>3d</fix>
</trkpt>
<trkpt lat="33.8103129" lon="-118.3938703">
  <ele>-0.23</ele>
  <time>2026-09-02T22:12:41Z</time>
  <course>252.9</course>
  <speed>0.02</speed>
  <fix>3d</fix>
</trkpt>
<trkpt lat="33.810313" lon="-118.3938706">
  <ele>-0.242</ele>
  <time>2026-09-02T22:12:41Z</time>
  <course>1.11</course>
  <speed>0.0</speed>
  <fix>3d</fix>
</trkpt>
<trkpt lat="33.8103129" lon="-118.3938704">
  <ele>-0.24</ele>
  <time>2026-09-02T22:12:41Z</time>
  <course>163.31</course>
  <speed>0.0</speed>
  <fix>3d</fix>
</trkpt>
<trkpt lat="33.810313" lon="-118.3938705">
  <ele>-0.242</ele>
  <time>2026-09-02T22:12:41Z</time>
  <course>1.05</course>
  <speed>0.02</speed>
  <fix>3d</fix>
</trkpt>
<trkpt lat="33.8103129" lon="-118.3938704">
  <ele>-0.24</ele>
  <time>2026-09-02T22:12:41Z</time>
  <course>163.31</course>
  <speed>0.0</speed>
  <fix>3d</fix>
</trkpt>
<trkpt lat="33.810313" lon="-118.3938704">
  <ele>-0.243</ele>
  <time>2026-09-02T22:12:41Z</time>
  <course>1.03</course>
  <speed>0.02</speed>
  <fix>3d</fix>
</trkpt>
<trkpt lat="33.8103129" lon="-118.3938703">
  <ele>-0.25</ele>
  <time>2026-09-02T22:12:41Z</time>
  <course>98.84</course>
  <speed>0.04</speed>
  <fix>3d</fix>
</trkpt>
<trkpt lat="33.810313" lon="-118.3938705">
  <ele>-0.243</ele>
  <time>2026-09-02T22:12:41Z</time>
  <course>1.02</course>
  <speed>0.03</speed>
  <fix>3d</fix>
</trkpt>
<trkpt lat="33.8103129" lon="-118.3938703">
  <ele>-0.25</ele>
  <time>2026-09-02T22:12:41Z</time>
  <course>98.84</course>
  <speed>0.04</speed>
  <fix>3d</fix>
</trkpt>
<trkpt lat="33.810313" lon="-118.3938704">
  <ele>-0.241</ele>
  <time>2026-09-02T22:12:41Z</time>
  <course>1.01</course>
  <speed>0.02</speed>
  <fix>3d</fix>
</trkpt>
<trkpt lat="33.8103129" lon="-118.3938702">
  <ele>-0.25</ele>
  <time>2026-09-02T22:12:41Z</time>
  <course>95.67</course>
  <speed>0.05</speed>
  <fix>3d</fix>
</trkpt>
<trkpt lat="33.810313" lon="-118.3938704">
  <ele>-0.238</ele>
  <time>2026-09-02T22:12:41Z</time>
  <course>0.99</course>
  <speed>0.01</speed>
  <fix>3d</fix>
</trkpt>
<trkpt lat="33.8103129" lon="-118.3938702">
  <ele>-0.25</ele>
  <time>2026-09-02T22:12:41Z</time>
  <course>95.67</course>
  <speed>0.05</speed>
  <fix>3d</fix>
</trkpt>
<trkpt lat="33.810313" lon="-118.3938703">
  <ele>-0.235</ele>
  <time>2026-09-02T22:12:41Z</time>
  <course>0.97</course>
  <speed>0.0</speed>
  <fix>3d</fix>
</trkpt>
<trkpt lat="33.8103128" lon="-118.3938701">
  <ele>-0.24</ele>
  <time>2026-09-02T22:12:41Z</time>
  <course>96.41</course>
  <speed>0.05</speed>
  <fix>3d</fix>
</trkpt>
<trkpt lat="33.810313" lon="-118.3938703">
  <ele>-0.231</ele>
  <time>2026-09-02T22:12:41Z</time>
  <course>0.95</course>
  <speed>0.04</speed>
  <fix>3d</fix>
</trkpt>
<trkpt lat="33.8103128" lon="-118.3938701">
  <ele>-0.24</ele>
  <time>2026-09-02T22:12:41Z</time>
  <course>96.41</course>
  <speed>0.05</speed>
  <fix>3d</fix>
</trkpt>
<trkpt lat="33.8103129" lon="-118.3938704">
  <ele>-0.227</ele>
  <time>2026-09-02T22:12:41Z</time>
  <course>0.93</course>
  <speed>0.09</speed>
  <fix>3d</fix>
</trkpt>
<trkpt lat="33.8103128" lon="-118.3938701">
  <ele>-0.24</ele>
  <time>2026-09-02T22:12:41Z</time>
  <course>122.42</course>
  <speed>0.01</speed>
  <fix>3d</fix>
</trkpt>
<trkpt lat="33.8103129" lon="-118.3938705">
  <ele>-0.223</ele>
  <time>2026-09-02T22:12:41Z</time>
  <course>0.91</course>
  <speed>0.15033296378372907</speed>
  <fix>3d</fix>
</trkpt>
<trkpt lat="33.8103128" lon="-118.3938701">
  <ele>-0.24</ele>
  <time>2026-09-02T22:12:41Z</time>
  <course>122.42</course>
  <speed>0.01</speed>
  <fix>3d</fix>
</trkpt>
<trkpt lat="33.810313" lon="-118.3938705">
  <ele>-0.219</ele>
  <time>2026-09-02T22:12:41Z</time>
  <course>0.9</course>
  <speed>0.22022715545545238</speed>
  <fix>3d</fix>
</trkpt>
<trkpt lat="33.8103128" lon="-118.3938701">
  <ele>-0.23</ele>
  <time>2026-09-02T22:12:41Z</time>
  <course>264.88</course>
  <speed>0.08</speed>
  <fix>3d</fix>
</trkpt>
<trkpt lat="33.810313" lon="-118.3938708">
  <ele>-0.215</ele>
  <time>2026-09-02T22:12:41Z</time>
  <course>0.87</course>
  <speed>0.280178514522438</speed>
  <fix>3d</fix>
</trkpt>
<trkpt lat="33.8103128" lon="-118.3938701">
  <ele>-0.23</ele>
  <time>2026-09-02T22:12:41Z</time>
  <course>264.88</course>
  <speed>0.08</speed>
  <fix>3d</fix>
</trkpt>
<trkpt lat="33.810313" lon="-118.3938711">
  <ele>-0.209</ele>
  <time>2026-09-02T22:12:41Z</time>
  <course>0.84</course>
  <speed>0.340147027033899</speed>
  <fix>3d</fix>
</trkpt>
<trkpt lat="33.8103128" lon="-118.3938704">
  <ele>-0.22</ele>
  <time>2026-09-02T22:12:41Z</time>
  <course>267.58</course>
  <speed>0.2</speed>
  <fix>3d</fix>
</trkpt>
<trkpt lat="33.8103129" lon="-118.3938715">
  <ele>-0.202</ele>
  <time>2026-09-02T22:12:41Z</time>
  <course>0.81</course>
  <speed>0.4004996878900158</speed>
  <fix>3d</fix>
</trkpt>
<trkpt lat="33.8103128" lon="-118.3938704">
  <ele>-0.22</ele>
  <time>2026-09-02T22:12:41Z</time>
  <course>267.58</course>
  <speed>0.2</speed>
  <fix>3d</fix>
</trkpt>
<trkpt lat="33.8103129" lon="-118.3938719">
  <ele>-0.195</ele>
  <time>2026-09-02T22:12:41Z</time>
  <course>0.8</course>
  <speed>0.45044422518220834</speed>
  <fix>3d</fix>
</trkpt>
<trkpt lat="33.8103128" lon="-118.3938709">
  <ele>-0.21</ele>
  <time>2026-09-02T22:12:41Z</time>
  <course>268.22</course>
  <speed>0.32</speed>
  <fix>3d</fix>
</trkpt>
<trkpt lat="33.8103129" lon="-118.3938723">
  <ele>-0.19</ele>
  <time>2026-09-02T22:12:41Z</time>
  <course>0.81</course>
  <speed>0.49040799340956914</speed>
  <fix>3d</fix>
</trkpt>
<trkpt lat="33.8103128" lon="-118.3938709">
  <ele>-0.21</ele>
  <time>2026-09-02T22:12:41Z</time>
  <course>268.22</course>
  <speed>0.32</speed>
  <fix>3d</fix>
</trkpt>
<trkpt lat="33.8103129" lon="-118.3938729">
  <ele>-0.185</ele>
  <time>2026-09-02T22:12:41Z</time>
  <course>0.82</course>
  <speed>0.5303772242470448</speed>
  <fix>3d</fix>
</trkpt>
<trkpt lat="33.8103128" lon="-118.3938718">
  <ele>-0.2</ele>
  <time>2026-09-02T22:12:41Z</time>
  <course>268.48</course>
  <speed>0.43</speed>
  <fix>3d</fix>
</trkpt>
<trkpt lat="33.8103129" lon="-118.3938734">
  <ele>-0.18</ele>
  <time>2026-09-02T22:12:41Z</time>
  <course>0.81</course>
  <speed>0.5608029957123981</speed>
  <fix>3d</fix>
</trkpt>
<trkpt lat="33.8103128" lon="-118.3938718">
  <ele>-0.2</ele>
  <time>2026-09-02T22:12:41Z</time>
  <course>268.48</course>
  <speed>0.43</speed>
  <fix>3d</fix>
</trkpt>
<trkpt lat="33.8103129" lon="-118.393874">
  <ele>-0.174</ele>
  <time>2026-09-02T22:12:41Z</time>
  <course>0.78</course>
  <speed>0.5807753438292642</speed>
  <fix>3d</fix>
</trkpt>
<trkpt lat="33.8103127" lon="-118.3938728">
  <ele>-0.19</ele>
  <time>2026-09-02T22:12:41Z</time>
  <course>268.59</course>
  <speed>0.5</speed>
  <fix>3d</fix>
</trkpt>
<trkpt lat="33.8103129" lon="-118.3938746">
  <ele>-0.168</ele>
  <time>2026-09-02T22:12:41Z</time>
  <course>0.77</course>
  <speed>0.5907622195096772</speed>
  <fix>3d</fix>
</trkpt>
<trkpt lat="33.8103127" lon="-118.3938728">
  <ele>-0.19</ele>
  <time>2026-09-02T22:12:41Z</time>
  <course>268.59</course>
  <speed>0.5</speed>
  <fix>3d</fix>
</trkpt>
<trkpt lat="33.8103129" lon="-118.3938752">
  <ele>-0.162</ele>
  <time>2026-09-02T22:12:41Z</time>
  <course>0.77</course>
  <speed>0.6007495318350236</speed>
  <fix>3d</fix>
</trkpt>
<trkpt lat="33.8103127" lon="-118.3938739">
  <ele>-0.18</ele>
  <time>2026-09-02T22:12:41Z</time>
  <course>268.63</course>
  <speed>0.55</speed>
  <fix>3d</fix>
</trkpt>
<trkpt lat="33.8103129" lon="-118.3938758">
  <ele>-0.155</ele>
  <time>2026-09-02T22:12:41Z</time>
  <course>0.76</course>
  <speed>0.6107372593840988</speed>
  <fix>3d</fix>
</trkpt>
<trkpt lat="33.8103127" lon="-118.3938739">
  <ele>-0.18</ele>
  <time>2026-09-02T22:12:41Z</time>
  <course>268.63</course>
  <speed>0.55</speed>
  <fix>3d</fix>
</trkpt>
<trkpt lat="33.8103129" lon="-118.3938764">
  <ele>-0.147</ele>
  <time>2026-09-02T22:12:41Z</time>
  <course>0.72</course>
  <speed>0.611310068623117</speed>
  <fix>3d</fix>
</trkpt>
<trkpt lat="33.8103127" lon="-118.3938752">
  <ele>-0.17</ele>
  <time>2026-09-02T22:12:41Z</time>
  <course>268.64</course>
  <speed>0.58</speed>
  <fix>3d</fix>
</trkpt>
<trkpt lat="33.8103129" lon="-118.3938771">
  <ele>-0.139</ele>
  <time>2026-09-02T22:12:41Z</time>
  <course>0.68</course>
  <speed>0.6312685640834652</speed>
  <fix>3d</fix>
</trkpt>
<trkpt lat="33.8103127" lon="-118.3938752">
  <ele>-0.17</ele>
  <time>2026-09-02T22:12:41Z</time>
  <course>268.64</course>
  <speed>0.58</speed>
  <fix>3d</fix>
</trkpt>
<trkpt lat="33.8103129" lon="-118.3938777">
  <ele>-0.131</ele>
  <time>2026-09-02T22:12:41Z</time>
  <course>0.65</course>
  <speed>0.6512296062065974</speed>
  <fix>3d</fix>
</trkpt>
<trkpt lat="33.8103127" lon="-118.3938765">
  <ele>-0.15</ele>
  <time>2026-09-02T22:12:41Z</time>
  <course>268.64</course>
  <speed>0.6</speed>
  <fix>3d</fix>
</trkpt>
<trkpt lat="33.8103129" lon="-118.3938784">
  <ele>-0.123</ele>
  <time>2026-09-02T22:12:41Z</time>
  <course>0.62</course>
  <speed>0.6811754546370561</speed>
  <fix>3d</fix>
</trkpt>
<trkpt lat="33.8103127" lon="-118.3938765">
  <ele>-0.15</ele>
  <time>2026-09-02T22:12:41Z</time>
  <course>268.64</course>
  <speed>0.6</speed>
  <fix>3d</fix>
</trkpt>
<trkpt lat="33.8103129" lon="-118.3938791">
  <ele>-0.114</ele>
  <time>2026-09-02T22:12:41Z</time>
  <course>0.73</course>
  <speed>0.6911584478250989</speed>
  <fix>3d</fix>
</trkpt>
<trkpt lat="33.8103126" lon="-118.3938778">
  <ele>-0.14</ele>
  <time>2026-09-02T22:12:41Z</time>
  <course>268.67</course>
  <speed>0.63</speed>
  <fix>3d</fix>
</trkpt>
<trkpt lat="33.8103129" lon="-118.3938799">
  <ele>-0.106</ele>
  <time>2026-09-02T22:12:41Z</time>
  <course>1.66</course>
  <speed>0.8714355971613738</speed>
  <fix>3d</fix>
</trkpt>
<trkpt lat="33.8103126" lon="-118.3938778">
  <ele>-0.14</ele>
  <time>2026-09-02T22:12:41Z</time>
  <course>268.67</course>
  <speed>0.63</speed>
  <fix>3d</fix>
</trkpt>
<trkpt lat="33.8103129" lon="-118.3938809">
  <ele>-0.104</ele>
  <time>2026-09-02T22:12:41Z</time>
  <course>3.4</course>
  <speed>1.011236866416568</speed>
  <fix>3d</fix>
</trkpt>
<trkpt lat="33.8103125" lon="-118.3938793">
  <ele>-0.12</ele>
  <time>2026-09-02T22:12:41Z</time>
  <course>268.84</course>
  <speed>0.8</speed>
  <fix>3d</fix>
</trkpt>
<trkpt lat="33.8103129" lon="-118.393882">
  <ele>-0.109</ele>
  <time>2026-09-02T22:12:41Z</time>
  <course>5.08</course>
  <speed>0.930859817588019</speed>
  <fix>3d</fix>
</trkpt>
<trkpt lat="33.8103125" lon="-118.3938793">
  <ele>-0.12</ele>
  <time>2026-09-02T22:12:41Z</time>
  <course>268.84</course>
  <speed>0.8</speed>
  <fix>3d</fix>
</trkpt>
<trkpt lat="33.8103129" lon="-118.3938829">
  <ele>-0.124</ele>
  <time>2026-09-02T22:12:41Z</time>
  <course>5.78</course>
  <speed>0.8709190547921202</speed>
  <fix>3d</fix>
</trkpt>
<trkpt lat="33.8103125" lon="-118.3938811">
  <ele>-0.11</ele>
  <time>2026-09-02T22:12:41Z</time>
  <course>268.64</course>
  <speed>0.91</speed>
  <fix>3d</fix>
</trkpt>
<trkpt lat="33.8103129" lon="-118.3938838">
  <ele>-0.154</ele>
  <time>2026-09-02T22:12:41Z</time>
  <course>5.48</course>
  <speed>0.7605918747922567</speed>
  <fix>3d</fix>
</trkpt>
<trkpt lat="33.8103125" lon="-118.3938811">
  <ele>-0.11</ele>
  <time>2026-09-02T22:12:41Z</time>
  <course>268.64</course>
  <speed>0.91</speed>
  <fix>3d</fix>
</trkpt>
<trkpt lat="33.8103129" lon="-118.3938845">
  <ele>-0.188</ele>
  <time>2026-09-02T22:12:41Z</time>
  <course>4.95</course>
  <speed>0.6003332407921453</speed>
  <fix>3d</fix>
</trkpt>
<trkpt lat="33.8103125" lon="-118.393883">
  <ele>-0.14</ele>
  <time>2026-09-02T22:12:41Z</time>
  <course>267.77</course>
  <speed>0.79</speed>
  <fix>3d</fix>
</trkpt>
<trkpt lat="33.8103128" lon="-118.393885">
  <ele>-0.221</ele>
  <time>2026-09-02T22:12:41Z</time>
  <course>4.48</course>
  <speed>0.48041648597857256</speed>
  <fix>3d</fix>
</trkpt>
<trkpt lat="33.8103125" lon="-118.393883">
  <ele>-0.14</ele>
  <time>2026-09-02T22:12:41Z</time>
  <course>267.77</course>
  <speed>0.79</speed>
  <fix>3d</fix>
</trkpt>
<trkpt lat="33.8103128" lon="-118.3938855">
  <ele>-0.247</ele>
  <time>2026-09-02T22:12:41Z</time>
  <course>4.09</course>
  <speed>0.3901281840626232</speed>
  <fix>3d</fix>
</trkpt>
<trkpt lat="33.8103124" lon="-118.3938845">
  <ele>-0.2</ele>
  <time>2026-09-02T22:12:41Z</time>
  <course>265.79</course>
  <speed>0.57</speed>
  <fix>3d</fix>
</trkpt>
<trkpt lat="33.8103128" lon="-118.3938858">
  <ele>-0.268</ele>
  <time>2026-09-02T22:12:41Z</time>
  <course>3.74</course>
  <speed>0.32015621187164245</speed>
  <fix>3d</fix>
</trkpt>
<trkpt lat="33.8103124" lon="-118.3938845">
  <ele>-0.2</ele>
  <time>2026-09-02T22:12:41Z</time>
  <course>265.79</course>
  <speed>0.57</speed>
  <fix>3d</fix>
</trkpt>
<trkpt lat="33.8103128" lon="-118.3938861">
  <ele>-0.284</ele>
  <time>2026-09-02T22:12:41Z</time>
  <course>3.43</course>
  <speed>0.27018512172212594</speed>
  <fix>3d</fix>
</trkpt>
<trkpt lat="33.8103124" lon="-118.3938855">
  <ele>-0.25</ele>
  <time>2026-09-02T22:12:41Z</time>
  <course>262.27</course>
  <speed>0.37</speed>
  <fix>3d</fix>
</trkpt>
<trkpt lat="33.8103128" lon="-118.3938864">
  <ele>-0.298</ele>
  <time>2026-09-02T22:12:41Z</time>
  <course>3.17</course>
  <speed>0.24020824298928628</speed>
  <fix>3d</fix>
</trkpt>
<trkpt lat="33.8103124" lon="-118.3938855">
  <ele>-0.25</ele>
  <time>2026-09-02T22:12:41Z</time>
  <course>262.27</course>
  <speed>0.37</speed>
  <fix>3d</fix>
</trkpt>
<trkpt lat="33.8103127" lon="-118.3938866">
  <ele>-0.308</ele>
  <time>2026-09-02T22:12:41Z</time>
  <course>2.94</course>
  <speed>0.2109502310972899</speed>
  <fix>3d</fix>
</trkpt>
<trkpt lat="33.8103123" lon="-118.3938862">
  <ele>-0.28</ele>
  <time>2026-09-02T22:12:41Z</time>
  <course>258.74</course>
  <speed>0.26</speed>
  <fix>3d</fix>
</trkpt>
<trkpt lat="33.8103127" lon="-118.3938868">
  <ele>-0.314</ele>
  <time>2026-09-02T22:12:41Z</time>
  <course>2.73</course>
  <speed>0.18110770276274835</speed>
  <fix>3d</fix>
</trkpt>
<trkpt lat="33.8103123" lon="-118.3938862">
  <ele>-0.28</ele>
  <time>2026-09-02T22:12:41Z</time>
  <course>258.74</course>
  <speed>0.26</speed>
  <fix>3d</fix>
</trkpt>
<trkpt lat="33.8103127" lon="-118.393887">
  <ele>-0.316</ele>
  <time>2026-09-02T22:12:41Z</time>
  <course>2.53</course>
  <speed>0.1711724276862369</speed>
  <fix>3d</fix>
</trkpt>
<trkpt lat="33.8103122" lon="-118.3938867">
  <ele>-0.29</ele>
  <time>2026-09-02T22:12:41Z</time>
  <course>255.57</course>
  <speed>0.2</speed>
  <fix>3d</fix>
</trkpt>
<trkpt lat="33.8103126" lon="-118.3938872">
  <ele>-0.314</ele>
  <time>2026-09-02T22:12:41Z</time>
  <course>2.35</course>
  <speed>0.15132745950421556</speed>
  <fix>3d</fix>
</trkpt>
<trkpt lat="33.8103122" lon="-118.3938867">
  <ele>-0.29</ele>
  <time>2026-09-02T22:12:41Z</time>
  <course>255.57</course>
  <speed>0.2</speed>
  <fix>3d</fix>
</trkpt>
<trkpt lat="33.8103126" lon="-118.3938873">
  <ele>-0.307</ele>
  <time>2026-09-02T22:12:41Z</time>
  <course>2.17</course>
  <speed>0.1414213562373095</speed>
  <fix>3d</fix>
</trkpt>
<trkpt lat="33.8103121" lon="-118.3938871">
  <ele>-0.29</ele>
  <time>2026-09-02T22:12:41Z</time>
  <course>252.73</course>
  <speed>0.16</speed>
  <fix>3d</fix>
</trkpt>
<trkpt lat="33.8103125" lon="-118.3938875">
  <ele>-0.298</ele>
  <time>2026-09-02T22:12:41Z</time>
  <course>2.0</course>
  <speed>0.12165525060596438</speed>
  <fix>3d</fix>
</trkpt>
<trkpt lat="33.8103121" lon="-118.3938871">
  <ele>-0.29</ele>
  <time>2026-09-02T22:12:41Z</time>
  <course>252.73</course>
  <speed>0.16</speed>
  <fix>3d</fix>
</trkpt>
<trkpt lat="33.8103125" lon="-118.3938876">
  <ele>-0.289</ele>
  <time>2026-09-02T22:12:41Z</time>
  <course>1.85</course>
  <speed>0.1118033988749895</speed>
  <fix>3d</fix>
</trkpt>
<trkpt lat="33.810312" lon="-118.3938873">
  <ele>-0.28</ele>
  <time>2026-09-02T22:12:41Z</time>
  <course>250.27</course>
  <speed>0.14</speed>
  <fix>3d</fix>
</trkpt>
<trkpt lat="33.8103125" lon="-118.3938877">
  <ele>-0.28</ele>
  <time>2026-09-02T22:12:41Z</time>
  <course>1.7</course>
  <speed>0.1019803902718557</speed>
  <fix>3d</fix>
</trkpt>
<trkpt lat="33.810312" lon="-118.3938873">
  <ele>-0.28</ele>
  <time>2026-09-02T22:12:41Z</time>
  <course>250.27</course>
  <speed>0.14</speed>
  <fix>3d</fix>
</trkpt>
<trkpt lat="33.8103124" lon="-118.3938878">
  <ele>-0.27</ele>
  <time>2026-09-02T22:12:41Z</time>
  <course>1.57</course>
  <speed>0.09219544457292887</speed>
  <fix>3d</fix>
</trkpt>
<trkpt lat="33.8103119" lon="-118.3938876">
  <ele>-0.26</ele>
  <time>2026-09-02T22:12:41Z</time>
  <course>248.19</course>
  <speed>0.12</speed>
  <fix>3d</fix>
</trkpt>
<trkpt lat="33.8103124" lon="-118.3938879">
  <ele>-0.258</ele>
  <time>2026-09-02T22:12:41Z</time>
  <course>1.43</course>
  <speed>0.09219544457292887</speed>
  <fix>3d</fix>
</trkpt>
<trkpt lat="33.8103119" lon="-118.3938876">
  <ele>-0.26</ele>
  <time>2026-09-02T22:12:41Z</time>
  <course>248.19</course>
  <speed>0.12</speed>
  <fix>3d</fix>
</trkpt>
<trkpt lat="33.8103123" lon="-118.393888">
  <ele>-0.246</ele>
  <time>2026-09-02T22:12:42Z</time>
  <course>1.31</course>
  <speed>0.0824621125123532</speed>
  <fix>3d</fix>
</trkpt>
<trkpt lat="33.8103118" lon="-118.3938879">
  <ele>-0.25</ele>
  <time>2026-09-02T22:12:42Z</time>
  <course>246.41</course>
  <speed>0.11</speed>
  <fix>3d</fix>
</trkpt>
<trkpt lat="33.8103123" lon="-118.3938881">
  <ele>-0.234</ele>
  <time>2026-09-02T22:12:42Z</time>
  <course>1.19</course>
  <speed>0.07280109889280519</speed>
  <fix>3d</fix>
</trkpt>
<trkpt lat="33.8103118" lon="-118.3938879">
  <ele>-0.25</ele>
  <time>2026-09-02T22:12:42Z</time>
  <course>246.41</course>
  <speed>0.11</speed>
  <fix>3d</fix>
</trkpt>
<trkpt lat="33.8103123" lon="-118.3938882">
  <ele>-0.223</ele>
  <time>2026-09-02T22:12:42Z</time>
  <course>1.08</course>
  <speed>0.07280109889280519</speed>
  <fix>3d</fix>
</trkpt>
<trkpt lat="33.8103118" lon="-118.3938881">
  <ele>-0.22</ele>
  <time>2026-09-02T22:12:42Z</time>
  <course>244.83</course>
  <speed>0.1</speed>
  <fix>3d</fix>
</trkpt>
<trkpt lat="33.8103122" lon="-118.3938882">
  <ele>-0.213</ele>
  <time>2026-09-02T22:12:42Z</time>
  <course>0.98</course>
  <speed>0.0632455532033676</speed>
  <fix>3d</fix>
</trkpt>
<trkpt lat="33.8103118" lon="-118.3938881">
  <ele>-0.22</ele>
  <time>2026-09-02T22:12:42Z</time>
  <course>244.83</course>
  <speed>0.1</speed>
  <fix>3d</fix>
</trkpt>
<trkpt lat="33.8103122" lon="-118.3938883">
  <ele>-0.205</ele>
  <time>2026-09-02T22:12:42Z</time>
  <course>0.88</course>
  <speed>0.0632455532033676</speed>
  <fix>3d</fix>
</trkpt>
<trkpt lat="33.8103117" lon="-118.3938882">
  <ele>-0.21</ele>
  <time>2026-09-02T22:12:42Z</time>
  <course>243.47</course>
  <speed>0.09</speed>
  <fix>3d</fix>
</trkpt>
<trkpt lat="33.8103121" lon="-118.3938884">
  <ele>-0.199</ele>
  <time>2026-09-02T22:12:42Z</time>
  <course>0.78</course>
  <speed>0.053851648071345036</speed>
  <fix>3d</fix>
</trkpt>
<trkpt lat="33.8103117" lon="-118.3938882">
  <ele>-0.21</ele>
  <time>2026-09-02T22:12:42Z</time>
  <course>243.47</course>
  <speed>0.09</speed>
  <fix>3d</fix>
</trkpt>
<trkpt lat="33.8103121" lon="-118.3938885">
  <ele>-0.196</ele>
  <time>2026-09-02T22:12:42Z</time>
  <course>0.69</course>
  <speed>0.053851648071345036</speed>
  <fix>3d</fix>
</trkpt>
<trkpt lat="33.8103116" lon="-118.3938885">
  <ele>-0.21</ele>
  <time>2026-09-02T22:12:42Z</time>
  <course>242.42</course>
  <speed>0.08</speed>
  <fix>3d</fix>
</trkpt>
<trkpt lat="33.8103121" lon="-118.3938885">
  <ele>-0.196</ele>
  <time>2026-09-02T22:12:42Z</time>
  <course>0.6</course>
  <speed>0.053851648071345036</speed>
  <fix>3d</fix>
</trkpt>
<trkpt lat="33.8103116" lon="-118.3938885">
  <ele>-0.21</ele>
  <time>2026-09-02T22:12:42Z</time>
  <course>242.42</course>
  <speed>0.08</speed>
  <fix>3d</fix>
</trkpt>
<trkpt lat="33.810312" lon="-118.3938886">
  <ele>-0.199</ele>
  <time>2026-09-02T22:12:42Z</time>
  <course>0.51</course>
  <speed>0.0412310562561766</speed>
  <fix>3d</fix>
</trkpt>
<trkpt lat="33.8103115" lon="-118.3938886">
  <ele>-0.21</ele>
  <time>2026-09-02T22:12:42Z</time>
  <course>241.57</course>
  <speed>0.07</speed>
  <fix>3d</fix>
</trkpt>
<trkpt lat="33.810312" lon="-118.3938886">
  <ele>-0.206</ele>
  <time>2026-09-02T22:12:42Z</time>
  <course>0.43</course>
  <speed>0.0412310562561766</speed>
  <fix>3d</fix>
</trkpt>
<trkpt lat="33.8103115" lon="-118.3938886">
  <ele>-0.21</ele>
  <time>2026-09-02T22:12:42Z</time>
  <course>241.57</course>
  <speed>0.07</speed>
  <fix>3d</fix>
</trkpt>
<trkpt lat="33.8103119" lon="-118.3938887">
  <ele>-0.214</ele>
  <time>2026-09-02T22:12:42Z</time>
  <course>0.35</course>
  <speed>0.0412310562561766</speed>
  <fix>3d</fix>
</trkpt>
<trkpt lat="33.8103115" lon="-118.3938887">
  <ele>-0.21</ele>
  <time>2026-09-02T22:12:42Z</time>
  <course>240.79</course>
  <speed>0.07</speed>
  <fix>3d</fix>
</trkpt>
<trkpt lat="33.8103119" lon="-118.3938887">
  <ele>-0.223</ele>
  <time>2026-09-02T22:12:42Z</time>
  <course>0.27</course>
  <speed>0.0316227766016838</speed>
  <fix>3d</fix>
</trkpt>
<trkpt lat="33.8103115" lon="-118.3938887">
  <ele>-0.21</ele>
  <time>2026-09-02T22:12:42Z</time>
  <course>240.79</course>
  <speed>0.07</speed>
  <fix>3d</fix>
</trkpt>
<trkpt lat="33.8103119" lon="-118.3938888">
  <ele>-0.235</ele>
  <time>2026-09-02T22:12:42Z</time>
  <course>0.19</course>
  <speed>0.0316227766016838</speed>
  <fix>3d</fix>
</trkpt>
<trkpt lat="33.8103114" lon="-118.3938889">
  <ele>-0.22</ele>
  <time>2026-09-02T22:12:42Z</time>
  <course>240.1</course>
  <speed>0.06</speed>
  <fix>3d</fix>
</trkpt>
<trkpt lat="33.8103118" lon="-118.3938888">
  <ele>-0.245</ele>
  <time>2026-09-02T22:12:42Z</time>
  <course>0.11</course>
  <speed>0.022360679774997897</speed>
  <fix>3d</fix>
</trkpt>
<trkpt lat="33.8103114" lon="-118.3938889">
  <ele>-0.22</ele>
  <time>2026-09-02T22:12:42Z</time>
  <course>240.1</course>
  <speed>0.06</speed>
  <fix>3d</fix>
</trkpt>
<trkpt lat="33.8103118" lon="-118.3938889">
  <ele>-0.253</ele>
  <time>2026-09-02T22:12:42Z</time>
  <course>0.05</course>
  <speed>0.01414213562373095</speed>
  <fix>3d</fix>
</trkpt>
<trkpt lat="33.8103113" lon="-118.393889">
  <ele>-0.24</ele>
  <time>2026-09-02T22:12:42Z</time>
  <course>237.49</course>
  <speed>0.06</speed>
  <fix>3d</fix>
</trkpt>
<trkpt lat="33.8103117" lon="-118.3938889">
  <ele>-0.259</ele>
  <time>2026-09-02T22:12:42Z</time>
  <course>0.06</course>
  <speed>0.01</speed>
  <fix>3d</fix>
</trkpt>
<trkpt lat="33.8103113" lon="-118.393889">
  <ele>-0.24</ele>
  <time>2026-09-02T22:12:42Z</time>
  <course>237.49</course>
  <speed>0.06</speed>
  <fix>3d</fix>
</trkpt>
<trkpt lat="33.8103117" lon="-118.3938889">
  <ele>-0.263</ele>
  <time>2026-09-02T22:12:42Z</time>
  <course>0.13</course>
  <speed>0.04</speed>
  <fix>3d</fix>
</trkpt>
<trkpt lat="33.8103113" lon="-118.3938891">
  <ele>-0.25</ele>
  <time>2026-09-02T22:12:42Z</time>
  <course>220.78</course>
  <speed>0.04</speed>
  <fix>3d</fix>
</trkpt>
<trkpt lat="33.8103117" lon="-118.3938889">
  <ele>-0.264</ele>
  <time>2026-09-02T22:12:42Z</time>
  <course>0.25</course>
  <speed>0.09</speed>
  <fix>3d</fix>
</trkpt>
<trkpt lat="33.8103113" lon="-118.3938891">
  <ele>-0.25</ele>
  <time>2026-09-02T22:12:42Z</time>
  <course>220.78</course>
  <speed>0.04</speed>
  <fix>3d</fix>
</trkpt>
<trkpt lat="33.8103116" lon="-118.3938888">
  <ele>-0.263</ele>
  <time>2026-09-02T22:12:42Z</time>
  <course>0.34</course>
  <speed>0.13</speed>
  <fix>3d</fix>
</trkpt>
<trkpt lat="33.8103112" lon="-118.3938892">
  <ele>-0.26</ele>
  <time>2026-09-02T22:12:42Z</time>
  <course>132.97</course>
  <speed>0.04</speed>
  <fix>3d</fix>
</trkpt>
<trkpt lat="33.8103116" lon="-118.3938887">
  <ele>-0.262</ele>
  <time>2026-09-02T22:12:42Z</time>
  <course>0.42</course>
  <speed>0.16</speed>
  <fix>3d</fix>
</trkpt>
<trkpt lat="33.8103112" lon="-118.3938892">
  <ele>-0.26</ele>
  <time>2026-09-02T22:12:42Z</time>
  <course>132.97</course>
  <speed>0.04</speed>
  <fix>3d</fix>
</trkpt>
<trkpt lat="33.8103115" lon="-118.3938885">
  <ele>-0.26</ele>
  <time>2026-09-02T22:12:42Z</time>
  <course>0.47</course>
  <speed>0.18</speed>
  <fix>3d</fix>
</trkpt>
<trkpt lat="33.8103112" lon="-118.393889">
  <ele>-0.26</ele>
  <time>2026-09-02T22:12:42Z</time>
  <course>105.0</course>
  <speed>0.11</speed>
  <fix>3d</fix>
</trkpt>
<trkpt lat="33.8103115" lon="-118.3938884">
  <ele>-0.258</ele>
  <time>2026-09-02T22:12:42Z</time>
  <course>0.5</course>
  <speed>0.18</speed>
  <fix>3d</fix>
</trkpt>
<trkpt lat="33.8103112" lon="-118.393889">
  <ele>-0.26</ele>
  <time>2026-09-02T22:12:42Z</time>
  <course>105.0</course>
  <speed>0.11</speed>
  <fix>3d</fix>
</trkpt>
<trkpt lat="33.8103115" lon="-118.3938882">
  <ele>-0.256</ele>
  <time>2026-09-02T22:12:42Z</time>
  <course>0.53</course>
  <speed>0.18</speed>
  <fix>3d</fix>
</trkpt>
<trkpt lat="33.8103111" lon="-118.3938887">
  <ele>-0.26</ele>
  <time>2026-09-02T22:12:42Z</time>
  <course>100.2</course>
  <speed>0.15</speed>
  <fix>3d</fix>
</trkpt>
<trkpt lat="33.8103114" lon="-118.393888">
  <ele>-0.254</ele>
  <time>2026-09-02T22:12:42Z</time>
  <course>0.55</course>
  <speed>0.17</speed>
  <fix>3d</fix>
</trkpt>
<trkpt lat="33.8103111" lon="-118.3938887">
  <ele>-0.26</ele>
  <time>2026-09-02T22:12:42Z</time>
  <course>100.2</course>
  <speed>0.15</speed>
  <fix>3d</fix>
</trkpt>
<trkpt lat="33.8103114" lon="-118.3938879">
  <ele>-0.252</ele>
  <time>2026-09-02T22:12:42Z</time>
  <course>0.57</course>
  <speed>0.16</speed>
  <fix>3d</fix>
</trkpt>
<trkpt lat="33.8103111" lon="-118.3938884">
  <ele>-0.25</ele>
  <time>2026-09-02T22:12:42Z</time>
  <course>99.34</course>
  <speed>0.16</speed>
  <fix>3d</fix>
</trkpt>
<trkpt lat="33.8103114" lon="-118.3938877">
  <ele>-0.249</ele>
  <time>2026-09-02T22:12:42Z</time>
  <course>0.59</course>
  <speed>0.13</speed>
  <fix>3d</fix>
</trkpt>
<trkpt lat="33.8103111" lon="-118.3938884">
  <ele>-0.25</ele>
  <time>2026-09-02T22:12:42Z</time>
  <course>99.34</course>
  <speed>0.16</speed>
  <fix>3d</fix>
</trkpt>
<trkpt lat="33.8103113" lon="-118.3938876">
  <ele>-0.244</ele>
  <time>2026-09-02T22:12:42Z</time>
  <course>0.61</course>
  <speed>0.09</speed>
  <fix>3d</fix>
</trkpt>
<trkpt lat="33.810311" lon="-118.393888">
  <ele>-0.25</ele>
  <time>2026-09-02T22:12:42Z</time>
  <course>100.67</course>
  <speed>0.14</speed>
  <fix>3d</fix>
</trkpt>
<trkpt lat="33.8103113" lon="-118.3938876">
  <ele>-0.237</ele>
  <time>2026-09-02T22:12:42Z</time>
  <course>0.62</course>
  <speed>0.02</speed>
  <fix>3d</fix>
</trkpt>
<trkpt lat="33.810311" lon="-118.393888">
  <ele>-0.25</ele>
  <time>2026-09-02T22:12:42Z</time>
  <course>100.67</course>
  <speed>0.14</speed>
  <fix>3d</fix>
</trkpt>
<trkpt lat="33.8103113" lon="-118.3938877">
  <ele>-0.224</ele>
  <time>2026-09-02T22:12:42Z</time>
  <course>0.63</course>
  <speed>0.09</speed>
  <fix>3d</fix>
</trkpt>
<trkpt lat="33.810311" lon="-118.3938878">
  <ele>-0.24</ele>
  <time>2026-09-02T22:12:42Z</time>
  <course>114.71</course>
  <speed>0.06</speed>
  <fix>3d</fix>
</trkpt>
<trkpt lat="33.8103112" lon="-118.3938879">
  <ele>-0.203</ele>
  <time>2026-09-02T22:12:42Z</time>
  <course>0.64</course>
  <speed>0.23</speed>
  <fix>3d</fix>
</trkpt>
<trkpt lat="33.810311" lon="-118.3938878">
  <ele>-0.24</ele>
  <time>2026-09-02T22:12:42Z</time>
  <course>114.71</course>
  <speed>0.06</speed>
  <fix>3d</fix>
</trkpt>
<trkpt lat="33.8103112" lon="-118.3938881">
  <ele>-0.175</ele>
  <time>2026-09-02T22:12:42Z</time>
  <course>0.65</course>
  <speed>0.36</speed>
  <fix>3d</fix>
</trkpt>
<trkpt lat="33.8103109" lon="-118.3938879">
  <ele>-0.21</ele>
  <time>2026-09-02T22:12:42Z</time>
  <course>258.08</course>
  <speed>0.13</speed>
  <fix>3d</fix>
</trkpt>
<trkpt lat="33.8103112" lon="-118.3938886">
  <ele>-0.138</ele>
  <time>2026-09-02T22:12:42Z</time>
  <course>0.68</course>
  <speed>0.52</speed>
  <fix>3d</fix>
</trkpt>
<trkpt lat="33.8103109" lon="-118.3938879">
  <ele>-0.21</ele>
  <time>2026-09-02T22:12:42Z</time>
  <course>258.08</course>
  <speed>0.13</speed>
  <fix>3d</fix>
</trkpt>
<trkpt lat="33.8103112" lon="-118.3938893">
  <ele>-0.087</ele>
  <time>2026-09-02T22:12:42Z</time>
  <course>0.7</course>
  <speed>0.82</speed>
  <fix>3d</fix>
</trkpt>
<trkpt lat="33.8103109" lon="-118.3938884">
  <ele>-0.16</ele>
  <time>2026-09-02T22:12:42Z</time>
  <course>265.78</course>
  <speed>0.42</speed>
  <fix>3d</fix>
</trkpt>
<trkpt lat="33.8103111" lon="-118.3938904">
  <ele>-0.027</ele>
  <time>2026-09-02T22:12:42Z</time>
  <course>0.72</course>
  <speed>1.19</speed>
  <fix>3d</fix>
</trkpt>
<trkpt lat="33.8103109" lon="-118.3938884">
  <ele>-0.16</ele>
  <time>2026-09-02T22:12:42Z</time>
  <course>265.78</course>
  <speed>0.42</speed>
  <fix>3d</fix>
</trkpt>
<trkpt lat="33.8103111" lon="-118.3938918">
  <ele>0.021</ele>
  <time>2026-09-02T22:12:42Z</time>
  <course>0.73</course>
  <speed>1.36</speed>
  <fix>3d</fix>
</trkpt>
<trkpt lat="33.8103108" lon="-118.3938898">
  <ele>-0.07</ele>
  <time>2026-09-02T22:12:42Z</time>
  <course>267.7</course>
  <speed>0.92</speed>
  <fix>3d</fix>
</trkpt>
<trkpt lat="33.8103111" lon="-118.3938932">
  <ele>0.035</ele>
  <time>2026-09-02T22:12:42Z</time>
  <course>0.73</course>
  <speed>1.22</speed>
  <fix>3d</fix>
</trkpt>
<trkpt lat="33.8103108" lon="-118.3938898">
  <ele>-0.07</ele>
  <time>2026-09-02T22:12:42Z</time>
  <course>267.7</course>
  <speed>0.92</speed>
  <fix>3d</fix>
</trkpt>
<trkpt lat="33.810311" lon="-118.3938944">
  <ele>0.011</ele>
  <time>2026-09-02T22:12:42Z</time>
  <course>0.76</course>
  <speed>0.970051545022222</speed>
  <fix>3d</fix>
</trkpt>
<trkpt lat="33.8103107" lon="-118.3938922">
  <ele>0.0</ele>
  <time>2026-09-02T22:12:42Z</time>
  <course>267.88</course>
  <speed>1.21</speed>
  <fix>3d</fix>
</trkpt>
<trkpt lat="33.810311" lon="-118.3938953">
  <ele>-0.034</ele>
  <time>2026-09-02T22:12:42Z</time>
  <course>0.83</course>
  <speed>0.7900632886041472</speed>
  <fix>3d</fix>
</trkpt>
<trkpt lat="33.8103107" lon="-118.3938922">
  <ele>0.0</ele>
  <time>2026-09-02T22:12:42Z</time>
  <course>267.88</course>
  <speed>1.21</speed>
  <fix>3d</fix>
</trkpt>
<trkpt lat="33.810311" lon="-118.3938961">
  <ele>-0.085</ele>
  <time>2026-09-02T22:12:42Z</time>
  <course>0.9</course>
  <speed>0.7002856560004639</speed>
  <fix>3d</fix>
</trkpt>
<trkpt lat="33.8103106" lon="-118.3938946">
  <ele>-0.01</ele>
  <time>2026-09-02T22:12:42Z</time>
  <course>266.74</course>
  <speed>0.96</speed>
  <fix>3d</fix>
</trkpt>
<trkpt lat="33.8103109" lon="-118.3938968">
  <ele>-0.129</ele>
  <time>2026-09-02T22:12:42Z</time>
  <course>0.96</course>
  <speed>0.660302960768767</speed>
  <fix>3d</fix>
</trkpt>
<trkpt lat="33.8103106" lon="-118.3938946">
  <ele>-0.01</ele>
  <time>2026-09-02T22:12:42Z</time>
  <course>266.74</course>
  <speed>0.96</speed>
  <fix>3d</fix>
</trkpt>
<trkpt lat="33.8103109" lon="-118.3938975">
  <ele>-0.159</ele>
  <time>2026-09-02T22:12:42Z</time>
  <course>0.96</course>
  <speed>0.6503076195155643</speed>
  <fix>3d</fix>
</trkpt>
<trkpt lat="33.8103105" lon="-118.3938963">
  <ele>-0.07</ele>
  <time>2026-09-02T22:12:42Z</time>
  <course>264.73</course>
  <speed>0.71</speed>
  <fix>3d</fix>
</trkpt>
<trkpt lat="33.8103108" lon="-118.3938982">
  <ele>-0.174</ele>
  <time>2026-09-02T22:12:42Z</time>
  <course>0.94</course>
  <speed>0.6500769185258002</speed>
  <fix>3d</fix>
</trkpt>
<trkpt lat="33.8103105" lon="-118.3938963">
  <ele>-0.07</ele>
  <time>2026-09-02T22:12:42Z</time>
  <course>264.73</course>
  <speed>0.71</speed>
  <fix>3d</fix>
</trkpt>
<trkpt lat="33.8103107" lon="-118.3938989">
  <ele>-0.179</ele>
  <time>2026-09-02T22:12:42Z</time>
  <course>0.9</course>
  <speed>0.6500769185258002</speed>
  <fix>3d</fix>
</trkpt>
<trkpt lat="33.8103104" lon="-118.3938978">
  <ele>-0.12</ele>
  <time>2026-09-02T22:12:42Z</time>
  <course>263.81</course>
  <speed>0.65</speed>
  <fix>3d</fix>
</trkpt>
<trkpt lat="33.8103107" lon="-118.3938996">
  <ele>-0.177</ele>
  <time>2026-09-02T22:12:42Z</time>
  <course>0.88</course>
  <speed>0.6500769185258002</speed>
  <fix>3d</fix>
</trkpt>
<trkpt lat="33.8103104" lon="-118.3938978">
  <ele>-0.12</ele>
  <time>2026-09-02T22:12:42Z</time>
  <course>263.81</course>
  <speed>0.65</speed>
  <fix>3d</fix>
</trkpt>
<trkpt lat="33.8103106" lon="-118.3939003">
  <ele>-0.171</ele>
  <time>2026-09-02T22:12:42Z</time>
  <course>0.88</course>
  <speed>0.6500769185258002</speed>
  <fix>3d</fix>
</trkpt>
<trkpt lat="33.8103103" lon="-118.3938992">
  <ele>-0.12</ele>
  <time>2026-09-02T22:12:42Z</time>
  <course>263.73</course>
  <speed>0.64</speed>
  <fix>3d</fix>
</trkpt>
<trkpt lat="33.8103106" lon="-118.393901">
  <ele>-0.168</ele>
  <time>2026-09-02T22:12:42Z</time>
  <course>0.86</course>
  <speed>0.6200806399170998</speed>
  <fix>3d</fix>
</trkpt>
<trkpt lat="33.8103103" lon="-118.3938992">
  <ele>-0.12</ele>
  <time>2026-09-02T22:12:42Z</time>
  <course>263.73</course>
  <speed>0.64</speed>
  <fix>3d</fix>
</trkpt>
<trkpt lat="33.8103105" lon="-118.3939017">
  <ele>-0.169</ele>
  <time>2026-09-02T22:12:42Z</time>
  <course>0.58</course>
  <speed>0.750066663703967</speed>
  <fix>3d</fix>
</trkpt>
<trkpt lat="33.8103101" lon="-118.3939006">
  <ele>-0.1</ele>
  <time>2026-09-02T22:12:42Z</time>
  <course>263.68</course>
  <speed>0.62</speed>
  <fix>3d</fix>
</trkpt>
<trkpt lat="33.8103105" lon="-118.3939027">
  <ele>-0.168</ele>
  <time>2026-09-02T22:12:42Z</time>
  <course>359.93</course>
  <speed>0.9100549433962765</speed>
  <fix>3d</fix>
</trkpt>
<trkpt lat="33.8103101" lon="-118.3939006">
  <ele>-0.1</ele>
  <time>2026-09-02T22:12:42Z</time>
  <course>263.68</course>
  <speed>0.62</speed>
  <fix>3d</fix>
</trkpt>
<trkpt lat="33.8103104" lon="-118.3939035">
  <ele>-0.176</ele>
  <time>2026-09-02T22:12:42Z</time>
  <course>358.98</course>
  <speed>0.75</speed>
  <fix>3d</fix>
</trkpt>
<trkpt lat="33.81031" lon="-118.3939021">
  <ele>-0.09</ele>
  <time>2026-09-02T22:12:42Z</time>
  <course>264.62</course>
  <speed>0.74</speed>
  <fix>3d</fix>
</trkpt>
<trkpt lat="33.8103104" lon="-118.3939042">
  <ele>-0.192</ele>
  <time>2026-09-02T22:12:42Z</time>
  <course>358.33</course>
  <speed>0.63</speed>
  <fix>3d</fix>
</trkpt>
<trkpt lat="33.81031" lon="-118.3939021">
  <ele>-0.09</ele>
  <time>2026-09-02T22:12:42Z</time>
  <course>264.62</course>
  <speed>0.74</speed>
  <fix>3d</fix>
</trkpt>
<trkpt lat="33.8103103" lon="-118.3939048">
  <ele>-0.212</ele>
  <time>2026-09-02T22:12:42Z</time>
  <course>358.17</course>
  <speed>0.59</speed>
  <fix>3d</fix>
</trkpt>
<trkpt lat="33.8103099" lon="-118.3939038">
  <ele>-0.1</ele>
  <time>2026-09-02T22:12:42Z</time>
  <course>264.86</course>
  <speed>0.74</speed>
  <fix>3d</fix>
</trkpt>
<trkpt lat="33.8103103" lon="-118.3939054">
  <ele>-0.233</ele>
  <time>2026-09-02T22:12:42Z</time>
  <course>358.25</course>
  <speed>0.53</speed>
  <fix>3d</fix>
</trkpt>
<trkpt lat="33.8103099" lon="-118.3939038">
  <ele>-0.1</ele>
  <time>2026-09-02T22:12:42Z</time>
  <course>264.86</course>
  <speed>0.74</speed>
  <fix>3d</fix>
</trkpt>
<trkpt lat="33.8103102" lon="-118.393906">
  <ele>-0.252</ele>
  <time>2026-09-02T22:12:42Z</time>
  <course>358.47</course>
  <speed>0.44</speed>
  <fix>3d</fix>
</trkpt>
<trkpt lat="33.8103098" lon="-118.3939052">
  <ele>-0.13</ele>
  <time>2026-09-02T22:12:42Z</time>
  <course>263.99</course>
  <speed>0.56</speed>
  <fix>3d</fix>
</trkpt>
<trkpt lat="33.8103102" lon="-118.3939064">
  <ele>-0.265</ele>
  <time>2026-09-02T22:12:42Z</time>
  <course>358.71</course>
  <speed>0.36</speed>
  <fix>3d</fix>
</trkpt>
<trkpt lat="33.8103098" lon="-118.3939052">
  <ele>-0.13</ele>
  <time>2026-09-02T22:12:42Z</time>
  <course>263.99</course>
  <speed>0.56</speed>
  <fix>3d</fix>
</trkpt>
<trkpt lat="33.8103101" lon="-118.3939067">
  <ele>-0.274</ele>
  <time>2026-09-02T22:12:42Z</time>
  <course>358.93</course>
  <speed>0.30016662039607267</speed>
  <fix>3d</fix>
</trkpt>
<trkpt lat="33.8103097" lon="-118.3939062">
  <ele>-0.16</ele>
  <time>2026-09-02T22:12:42Z</time>
  <course>263.05</course>
  <speed>0.43</speed>
  <fix>3d</fix>
</trkpt>
<trkpt lat="33.8103101" lon="-118.393907">
  <ele>-0.279</ele>
  <time>2026-09-02T22:12:42Z</time>
  <course>359.12</course>
  <speed>0.2501999200639361</speed>
  <fix>3d</fix>
</trkpt>
<trkpt lat="33.8103097" lon="-118.3939062">
  <ele>-0.16</ele>
  <time>2026-09-02T22:12:42Z</time>
  <course>263.05</course>
  <speed>0.43</speed>
  <fix>3d</fix>
</trkpt>
<trkpt lat="33.81031" lon="-118.3939073">
  <ele>-0.281</ele>
  <time>2026-09-02T22:12:42Z</time>
  <course>359.28</course>
  <speed>0.2102379604162864</speed>
  <fix>3d</fix>
</trkpt>
<trkpt lat="33.8103096" lon="-118.393907">
  <ele>-0.18</ele>
  <time>2026-09-02T22:12:42Z</time>
  <course>261.12</course>
  <speed>0.3</speed>
  <fix>3d</fix>
</trkpt>
<trkpt lat="33.81031" lon="-118.3939075">
  <ele>-0.281</ele>
  <time>2026-09-02T22:12:42Z</time>
  <course>359.43</course>
  <speed>0.18027756377319945</speed>
  <fix>3d</fix>
</trkpt>
<trkpt lat="33.8103096" lon="-118.393907">
  <ele>-0.18</ele>
  <time>2026-09-02T22:12:42Z</time>
  <course>261.12</course>
  <speed>0.3</speed>
  <fix>3d</fix>
</trkpt>
<trkpt lat="33.81031" lon="-118.3939077">
  <ele>-0.28</ele>
  <time>2026-09-02T22:12:42Z</time>
  <course>359.58</course>
  <speed>0.16031219541881397</speed>
  <fix>3d</fix>
</trkpt>
<trkpt lat="33.8103095" lon="-118.3939076">
  <ele>-0.19</ele>
  <time>2026-09-02T22:12:42Z</time>
  <course>258.9</course>
  <speed>0.22</speed>
  <fix>3d</fix>
</trkpt>
<trkpt lat="33.8103099" lon="-118.3939079">
  <ele>-0.278</ele>
  <time>2026-09-02T22:12:42Z</time>
  <course>359.71</course>
  <speed>0.140356688476182</speed>
  <fix>3d</fix>
</trkpt>
<trkpt lat="33.8103095" lon="-118.3939076">
  <ele>-0.19</ele>
  <time>2026-09-02T22:12:42Z</time>
  <course>258.9</course>
  <speed>0.22</speed>
  <fix>3d</fix>
</trkpt>
<trkpt lat="33.8103099" lon="-118.3939081">
  <ele>-0.274</ele>
  <time>2026-09-02T22:12:42Z</time>
  <course>359.83</course>
  <speed>0.130384048104053</speed>
  <fix>3d</fix>
</trkpt>
<trkpt lat="33.8103094" lon="-118.393908">
  <ele>-0.2</ele>
  <time>2026-09-02T22:12:42Z</time>
  <course>256.78</course>
  <speed>0.18</speed>
  <fix>3d</fix>
</trkpt>
<trkpt lat="33.8103098" lon="-118.3939082">
  <ele>-0.27</ele>
  <time>2026-09-02T22:12:42Z</time>
  <course>359.95</course>
  <speed>0.11045361017187261</speed>
  <fix>3d</fix>
</trkpt>
<trkpt lat="33.8103094" lon="-118.393908">
  <ele>-0.2</ele>
  <time>2026-09-02T22:12:42Z</time>
  <course>256.78</course>
  <speed>0.18</speed>
  <fix>3d</fix>
</trkpt>
<trkpt lat="33.8103098" lon="-118.3939083">
  <ele>-0.267</ele>
  <time>2026-09-02T22:12:42Z</time>
  <course>0.06</course>
  <speed>0.1004987562112089</speed>
  <fix>3d</fix>
</trkpt>
<trkpt lat="33.8103094" lon="-118.3939083">
  <ele>-0.2</ele>
  <time>2026-09-02T22:12:42Z</time>
  <course>254.81</course>
  <speed>0.15</speed>
  <fix>3d</fix>
</trkpt>
<trkpt lat="33.8103098" lon="-118.3939085">
  <ele>-0.265</ele>
  <time>2026-09-02T22:12:42Z</time>
  <course>0.18</course>
  <speed>0.09055385138137417</speed>
  <fix>3d</fix>
</trkpt>
<trkpt lat="33.8103094" lon="-118.3939083">
  <ele>-0.2</ele>
  <time>2026-09-02T22:12:42Z</time>
  <course>254.81</course>
  <speed>0.15</speed>
  <fix>3d</fix>
</trkpt>
<trkpt lat="33.8103097" lon="-118.3939086">
  <ele>-0.262</ele>
  <time>2026-09-02T22:12:42Z</time>
  <course>0.29</course>
  <speed>0.08062257748298549</speed>
  <fix>3d</fix>
</trkpt>
<trkpt lat="33.8103093" lon="-118.3939087">
  <ele>-0.2</ele>
  <time>2026-09-02T22:12:42Z</time>
  <course>252.97</course>
  <speed>0.12</speed>
  <fix>3d</fix>
</trkpt>
<trkpt lat="33.8103097" lon="-118.3939087">
  <ele>-0.258</ele>
  <time>2026-09-02T22:12:42Z</time>
  <course>0.39</course>
  <speed>0.07071067811865475</speed>
  <fix>3d</fix>
</trkpt>
<trkpt lat="33.8103093" lon="-118.3939087">
  <ele>-0.2</ele>
  <time>2026-09-02T22:12:42Z</time>
  <course>252.97</course>
  <speed>0.12</speed>
  <fix>3d</fix>
</trkpt>
<trkpt lat="33.8103097" lon="-118.3939088">
  <ele>-0.255</ele>
  <time>2026-09-02T22:12:42Z</time>
  <course>0.49</course>
  <speed>0.06082762530298219</speed>
  <fix>3d</fix>
</trkpt>
<trkpt lat="33.8103093" lon="-118.3939089">
  <ele>-0.19</ele>
  <time>2026-09-02T22:12:42Z</time>
  <course>251.26</course>
  <speed>0.11</speed>
  <fix>3d</fix>
</trkpt>
<trkpt lat="33.8103096" lon="-118.3939089">
  <ele>-0.251</ele>
  <time>2026-09-02T22:12:42Z</time>
  <course>0.58</course>
  <speed>0.06082762530298219</speed>
  <fix>3d</fix>
</trkpt>
<trkpt lat="33.8103093" lon="-118.3939089">
  <ele>-0.19</ele>
  <time>2026-09-02T22:12:42Z</time>
  <course>251.26</course>
  <speed>0.11</speed>
  <fix>3d</fix>
</trkpt>
<trkpt lat="33.8103096" lon="-118.393909">
  <ele>-0.247</ele>
  <time>2026-09-02T22:12:42Z</time>
  <course>0.67</course>
  <speed>0.05099019513592785</speed>
  <fix>3d</fix>
</trkpt>
<trkpt lat="33.8103092" lon="-118.3939092">
  <ele>-0.19</ele>
  <time>2026-09-02T22:12:42Z</time>
  <course>249.69</course>
  <speed>0.1</speed>
  <fix>3d</fix>
</trkpt>
<trkpt lat="33.8103096" lon="-118.3939091">
  <ele>-0.244</ele>
  <time>2026-09-02T22:12:42Z</time>
  <course>0.75</course>
  <speed>0.05099019513592785</speed>
  <fix>3d</fix>
</trkpt>
<trkpt lat="33.8103092" lon="-118.3939092">
  <ele>-0.19</ele>
  <time>2026-09-02T22:12:42Z</time>
  <course>249.69</course>
  <speed>0.1</speed>
  <fix>3d</fix>
</trkpt>
<trkpt lat="33.8103095" lon="-118.3939091">
  <ele>-0.242</ele>
  <time>2026-09-02T22:12:42Z</time>
  <course>0.84</course>
  <speed>0.0412310562561766</speed>
  <fix>3d</fix>
</trkpt>
<trkpt lat="33.8103091" lon="-118.3939093">
  <ele>-0.18</ele>
  <time>2026-09-02T22:12:42Z</time>
  <course>248.25</course>
  <speed>0.09</speed>
  <fix>3d</fix>
</trkpt>
<trkpt lat="33.8103095" lon="-118.3939092">
  <ele>-0.241</ele>
  <time>2026-09-02T22:12:42Z</time>
  <course>0.92</course>
  <speed>0.0412310562561766</speed>
  <fix>3d</fix>
</trkpt>
<trkpt lat="33.8103091" lon="-118.3939093">
  <ele>-0.18</ele>
  <time>2026-09-02T22:12:42Z</time>
  <course>248.25</course>
  <speed>0.09</speed>
  <fix>3d</fix>
</trkpt>
<trkpt lat="33.8103095" lon="-118.3939093">
  <ele>-0.24</ele>
  <time>2026-09-02T22:12:42Z</time>
  <course>1.0</course>
  <speed>0.0316227766016838</speed>
  <fix>3d</fix>
</trkpt>
<trkpt lat="33.8103091" lon="-118.3939095">
  <ele>-0.18</ele>
  <time>2026-09-02T22:12:42Z</time>
  <course>246.93</course>
  <speed>0.08</speed>
  <fix>3d</fix>
</trkpt>
<trkpt lat="33.8103094" lon="-118.3939094">
  <ele>-0.24</ele>
  <time>2026-09-02T22:12:42Z</time>
  <course>1.07</course>
  <speed>0.0316227766016838</speed>
  <fix>3d</fix>
</trkpt>
<trkpt lat="33.8103091" lon="-118.3939095">
  <ele>-0.18</ele>
  <time>2026-09-02T22:12:42Z</time>
  <course>246.93</course>
  <speed>0.08</speed>
  <fix>3d</fix>
</trkpt>
<trkpt lat="33.8103094" lon="-118.3939094">
  <ele>-0.239</ele>
  <time>2026-09-02T22:12:42Z</time>
  <course>1.14</course>
  <speed>0.02</speed>
  <fix>3d</fix>
</trkpt>
<trkpt lat="33.810309" lon="-118.3939097">
  <ele>-0.18</ele>
  <time>2026-09-02T22:12:42Z</time>
  <course>245.71</course>
  <speed>0.07</speed>
  <fix>3d</fix>
</trkpt>
<trkpt lat="33.8103094" lon="-118.3939095">
  <ele>-0.239</ele>
  <time>2026-09-02T22:12:42Z</time>
  <course>1.21</course>
  <speed>0.02</speed>
  <fix>3d</fix>
</trkpt>
<trkpt lat="33.810309" lon="-118.3939097">
  <ele>-0.18</ele>
  <time>2026-09-02T22:12:42Z</time>
  <course>245.71</course>
  <speed>0.07</speed>
  <fix>3d</fix>
</trkpt>
<trkpt lat="33.8103093" lon="-118.3939095">
  <ele>-0.24</ele>
  <time>2026-09-02T22:12:42Z</time>
  <course>1.28</course>
  <speed>0.02</speed>
  <fix>3d</fix>
</trkpt>
<trkpt lat="33.8103089" lon="-118.3939098">
  <ele>-0.18</ele>
  <time>2026-09-02T22:12:42Z</time>
  <course>244.58</course>
  <speed>0.07</speed>
  <fix>3d</fix>
</trkpt>
<trkpt lat="33.8103093" lon="-118.3939096">
  <ele>-0.242</ele>
  <time>2026-09-02T22:12:42Z</time>
  <course>1.35</course>
  <speed>0.01</speed>
  <fix>3d</fix>
</trkpt>
<trkpt lat="33.8103089" lon="-118.3939098">
  <ele>-0.18</ele>
  <time>2026-09-02T22:12:42Z</time>
  <course>244.58</course>
  <speed>0.07</speed>
  <fix>3d</fix>
</trkpt>
<trkpt lat="33.8103093" lon="-118.3939097">
  <ele>-0.244</ele>
  <time>2026-09-02T22:12:42Z</time>
  <course>1.41</course>
  <speed>0.01</speed>
  <fix>3d</fix>
</trkpt>
<trkpt lat="33.8103089" lon="-118.3939099">
  <ele>-0.19</ele>
  <time>2026-09-02T22:12:42Z</time>
  <course>243.53</course>
  <speed>0.06</speed>
  <fix>3d</fix>
</trkpt>
<trkpt lat="33.8103092" lon="-118.3939097">
  <ele>-0.247</ele>
  <time>2026-09-02T22:12:42Z</time>
  <course>1.48</course>
  <speed>0.01</speed>
  <fix>3d</fix>
</trkpt>
<trkpt lat="33.8103089" lon="-118.3939099">
  <ele>-0.19</ele>
  <time>2026-09-02T22:12:42Z</time>
  <course>243.53</course>
  <speed>0.06</speed>
  <fix>3d</fix>
</trkpt>
<trkpt lat="33.8103092" lon="-118.3939098">
  <ele>-0.253</ele>
  <time>2026-09-02T22:12:42Z</time>
  <course>1.52</course>
  <speed>0.01</speed>
  <fix>3d</fix>
</trkpt>
<trkpt lat="33.8103088" lon="-118.3939101">
  <ele>-0.19</ele>
  <time>2026-09-02T22:12:42Z</time>
  <course>242.57</course>
  <speed>0.06</speed>
  <fix>3d</fix>
</trkpt>
<trkpt lat="33.8103091" lon="-118.3939098">
  <ele>-0.259</ele>
  <time>2026-09-02T22:12:42Z</time>
  <course>1.42</course>
  <speed>0.0</speed>
  <fix>3d</fix>
</trkpt>
<trkpt lat="33.8103088" lon="-118.3939101">
  <ele>-0.19</ele>
  <time>2026-09-02T22:12:42Z</time>
  <course>242.57</course>
  <speed>0.06</speed>
  <fix>3d</fix>
</trkpt>
<trkpt lat="33.8103091" lon="-118.3939098">
  <ele>-0.264</ele>
  <time>2026-09-02T22:12:42Z</time>
  <course>1.02</course>
  <speed>0.0</speed>
  <fix>3d</fix>
</trkpt>
<trkpt lat="33.8103088" lon="-118.3939102">
  <ele>-0.2</ele>
  <time>2026-09-02T22:12:42Z</time>
  <course>241.12</course>
  <speed>0.05</speed>
  <fix>3d</fix>
</trkpt>
<trkpt lat="33.8103091" lon="-118.3939099">
  <ele>-0.269</ele>
  <time>2026-09-02T22:12:42Z</time>
  <course>0.35</course>
  <speed>0.01</speed>
  <fix>3d</fix>
</trkpt>
<trkpt lat="33.8103088" lon="-118.3939102">
  <ele>-0.2</ele>
  <time>2026-09-02T22:12:42Z</time>
  <course>241.12</course>
  <speed>0.05</speed>
  <fix>3d</fix>
</trkpt>
<trkpt lat="33.810309" lon="-118.3939099">
  <ele>-0.272</ele>
  <time>2026-09-02T22:12:42Z</time>
  <course>359.5</course>
  <speed>0.03</speed>
  <fix>3d</fix>
</trkpt>
<trkpt lat="33.8103088" lon="-118.3939103">
  <ele>-0.21</ele>
  <time>2026-09-02T22:12:42Z</time>
  <course>234.1</course>
  <speed>0.04</speed>
  <fix>3d</fix>
</trkpt>
<trkpt lat="33.810309" lon="-118.39391">
  <ele>-0.275</ele>
  <time>2026-09-02T22:12:42Z</time>
  <course>357.83</course>
  <speed>0.05</speed>
  <fix>3d</fix>
</trkpt>
<trkpt lat="33.8103088" lon="-118.3939103">
  <ele>-0.21</ele>
  <time>2026-09-02T22:12:42Z</time>
  <course>234.1</course>
  <speed>0.04</speed>
  <fix>3d</fix>
</trkpt>
<trkpt lat="33.810309" lon="-118.39391">
  <ele>-0.277</ele>
  <time>2026-09-02T22:12:42Z</time>
  <course>355.43</course>
  <speed>0.08</speed>
  <fix>3d</fix>
</trkpt>
<trkpt lat="33.8103087" lon="-118.3939104">
  <ele>-0.22</ele>
  <time>2026-09-02T22:12:42Z</time>
  <course>190.59</course>
  <speed>0.02</speed>
  <fix>3d</fix>
</trkpt>
<trkpt lat="33.8103089" lon="-118.3939099">
  <ele>-0.278</ele>
  <time>2026-09-02T22:12:42Z</time>
  <course>352.99</course>
  <speed>0.12</speed>
  <fix>3d</fix>
</trkpt>
<trkpt lat="33.8103087" lon="-118.3939104">
  <ele>-0.22</ele>
  <time>2026-09-02T22:12:42Z</time>
  <course>190.59</course>
  <speed>0.02</speed>
  <fix>3d</fix>
</trkpt>
<trkpt lat="33.8103089" lon="-118.3939098">
  <ele>-0.28</ele>
  <time>2026-09-02T22:12:42Z</time>
  <course>351.19</course>
  <speed>0.2</speed>
  <fix>3d</fix>
</trkpt>
<trkpt lat="33.8103087" lon="-118.3939104">
  <ele>-0.22</ele>
  <time>2026-09-02T22:12:42Z</time>
  <course>108.61</course>
  <speed>0.06</speed>
  <fix>3d</fix>
</trkpt>
<trkpt lat="33.8103089" lon="-118.3939095">
  <ele>-0.291</ele>
  <time>2026-09-02T22:12:42Z</time>
  <course>350.13</course>
  <speed>0.3911521443121589</speed>
  <fix>3d</fix>
</trkpt>
<trkpt lat="33.8103087" lon="-118.3939104">
  <ele>-0.22</ele>
  <time>2026-09-02T22:12:42Z</time>
  <course>108.61</course>
  <speed>0.06</speed>
  <fix>3d</fix>
</trkpt>
<trkpt lat="33.8103089" lon="-118.393909">
  <ele>-0.325</ele>
  <time>2026-09-02T22:12:42Z</time>
  <course>349.68</course>
  <speed>0.5622277118748239</speed>
  <fix>3d</fix>
</trkpt>
<trkpt lat="33.8103087" lon="-118.3939101">
  <ele>-0.22</ele>
  <time>2026-09-02T22:12:42Z</time>
  <course>88.39</course>
  <speed>0.25</speed>
  <fix>3d</fix>
</trkpt>
<trkpt lat="33.810309" lon="-118.3939084">
  <ele>-0.384</ele>
  <time>2026-09-02T22:12:42Z</time>
  <course>350.16</course>
  <speed>0.6029925372672534</speed>
  <fix>3d</fix>
</trkpt>
<trkpt lat="33.8103087" lon="-118.3939101">
  <ele>-0.22</ele>
  <time>2026-09-02T22:12:42Z</time>
  <course>88.39</course>
  <speed>0.25</speed>
  <fix>3d</fix>
</trkpt>
<trkpt lat="33.810309" lon="-118.3939079">
  <ele>-0.456</ele>
  <time>2026-09-02T22:12:42Z</time>
  <course>351.22</course>
  <speed>0.54230987451825</speed>
  <fix>3d</fix>
</trkpt>
<trkpt lat="33.8103087" lon="-118.3939093">
  <ele>-0.29</ele>
  <time>2026-09-02T22:12:42Z</time>
  <course>84.93</course>
  <speed>0.48</speed>
  <fix>3d</fix>
</trkpt>
<trkpt lat="33.810309" lon="-118.3939074">
  <ele>-0.53</ele>
  <time>2026-09-02T22:12:42Z</time>
  <course>352.36</course>
  <speed>0.4617358552246078</speed>
  <fix>3d</fix>
</trkpt>
<trkpt lat="33.8103087" lon="-118.3939093">
  <ele>-0.29</ele>
  <time>2026-09-02T22:12:42Z</time>
  <course>84.93</course>
  <speed>0.48</speed>
  <fix>3d</fix>
</trkpt>
<trkpt lat="33.8103091" lon="-118.393907">
  <ele>-0.604</ele>
  <time>2026-09-02T22:12:42Z</time>
  <course>353.4</course>
  <speed>0.38118237105091834</speed>
  <fix>3d</fix>
</trkpt>
<trkpt lat="33.8103087" lon="-118.3939082">
  <ele>-0.41</ele>
  <time>2026-09-02T22:12:42Z</time>
  <course>84.74</course>
  <speed>0.49</speed>
  <fix>3d</fix>
</trkpt>
<trkpt lat="33.8103091" lon="-118.3939067">
  <ele>-0.683</ele>
  <time>2026-09-02T22:12:42Z</time>
  <course>354.2</course>
  <speed>0.30066592756745814</speed>
  <fix>3d</fix>
</trkpt>
<trkpt lat="33.8103087" lon="-118.3939082">
  <ele>-0.41</ele>
  <time>2026-09-02T22:12:42Z</time>
  <course>84.74</course>
  <speed>0.49</speed>
  <fix>3d</fix>
</trkpt>
<trkpt lat="33.8103091" lon="-118.3939064">
  <ele>-0.773</ele>
  <time>2026-09-02T22:12:42Z</time>
  <course>354.28</course>
  <speed>0.24083189157584592</speed>
  <fix>3d</fix>
</trkpt>
<trkpt lat="33.8103087" lon="-118.3939073">
  <ele>-0.55</ele>
  <time>2026-09-02T22:12:42Z</time>
  <course>85.74</course>
  <speed>0.34</speed>
  <fix>3d</fix>
</trkpt>
<trkpt lat="33.8103091" lon="-118.3939062">
  <ele>-0.877</ele>
  <time>2026-09-02T22:12:42Z</time>
  <course>354.81</course>
  <speed>0.18027756377319945</speed>
  <fix>3d</fix>
</trkpt>
<trkpt lat="33.8103087" lon="-118.3939073">
  <ele>-0.55</ele>
  <time>2026-09-02T22:12:42Z</time>
  <course>85.74</course>
  <speed>0.34</speed>
  <fix>3d</fix>
</trkpt>
<trkpt lat="33.810309" lon="-118.3939061">
  <ele>-0.998</ele>
  <time>2026-09-02T22:12:42Z</time>
  <course>355.26</course>
  <speed>0.13</speed>
  <fix>3d</fix>
</trkpt>
<trkpt lat="33.8103088" lon="-118.3939066">
  <ele>-0.72</ele>
  <time>2026-09-02T22:12:42Z</time>
  <course>86.8</course>
  <speed>0.22</speed>
  <fix>3d</fix>
</trkpt>
<trkpt lat="33.810309" lon="-118.393906">
  <ele>-1.141</ele>
  <time>2026-09-02T22:12:42Z</time>
  <course>355.63</course>
  <speed>0.08</speed>
  <fix>3d</fix>
</trkpt>
<trkpt lat="33.8103088" lon="-118.3939066">
  <ele>-0.72</ele>
  <time>2026-09-02T22:12:42Z</time>
  <course>86.8</course>
  <speed>0.22</speed>
  <fix>3d</fix>
</trkpt>
<trkpt lat="33.810309" lon="-118.393906">
  <ele>-1.307</ele>
  <time>2026-09-02T22:12:42Z</time>
  <course>355.94</course>
  <speed>0.04</speed>
  <fix>3d</fix>
</trkpt>
<trkpt lat="33.8103088" lon="-118.3939063">
  <ele>-0.95</ele>
  <time>2026-09-02T22:12:42Z</time>
  <course>88.45</course>
  <speed>0.11</speed>
  <fix>3d</fix>
</trkpt>
<trkpt lat="33.810309" lon="-118.3939059">
  <ele>-1.473</ele>
  <time>2026-09-02T22:12:42Z</time>
  <course>356.19</course>
  <speed>0.03</speed>
  <fix>3d</fix>
</trkpt>
<trkpt lat="33.8103088" lon="-118.3939063">
  <ele>-0.95</ele>
  <time>2026-09-02T22:12:42Z</time>
  <course>88.45</course>
  <speed>0.11</speed>
  <fix>3d</fix>
</trkpt>
<trkpt lat="33.810309" lon="-118.3939059">
  <ele>-1.633</ele>
  <time>2026-09-02T22:12:42Z</time>
  <course>356.44</course>
  <speed>0.02</speed>
  <fix>3d</fix>
</trkpt>
<trkpt lat="33.8103088" lon="-118.3939061">
  <ele>-1.23</ele>
  <time>2026-09-02T22:12:42Z</time>
  <course>92.71</course>
  <speed>0.04</speed>
  <fix>3d</fix>
</trkpt>
<trkpt lat="33.810309" lon="-118.3939059">
  <ele>-1.789</ele>
  <time>2026-09-02T22:12:42Z</time>
  <course>356.64</course>
  <speed>0.01</speed>
  <fix>3d</fix>
</trkpt>
<trkpt lat="33.8103088" lon="-118.3939061">
  <ele>-1.23</ele>
  <time>2026-09-02T22:12:42Z</time>
  <course>92.71</course>
  <speed>0.04</speed>
  <fix>3d</fix>
</trkpt>
<trkpt lat="33.810309" lon="-118.3939059">
  <ele>-1.943</ele>
  <time>2026-09-02T22:12:42Z</time>
  <course>356.8</course>
  <speed>0.0</speed>
  <fix>3d</fix>
</trkpt>
<trkpt lat="33.8103088" lon="-118.3939061">
  <ele>-1.54</ele>
  <time>2026-09-02T22:12:42Z</time>
  <course>104.12</course>
  <speed>0.01</speed>
  <fix>3d</fix>
</trkpt>
<trkpt lat="33.810309" lon="-118.3939059">
  <ele>-2.095</ele>
  <time>2026-09-02T22:12:42Z</time>
  <course>356.96</course>
  <speed>0.0</speed>
  <fix>3d</fix>
</trkpt>
<trkpt lat="33.8103088" lon="-118.3939061">
  <ele>-1.54</ele>
  <time>2026-09-02T22:12:42Z</time>
  <course>104.12</course>
  <speed>0.01</speed>
  <fix>3d</fix>
</trkpt>
<trkpt lat="33.810309" lon="-118.3939059">
  <ele>-2.245</ele>
  <time>2026-09-02T22:12:42Z</time>
  <course>357.12</course>
  <speed>0.01</speed>
  <fix>3d</fix>
</trkpt>
<trkpt lat="33.8103088" lon="-118.3939061">
  <ele>-1.83</ele>
  <time>2026-09-02T22:12:42Z</time>
  <course>201.85</course>
  <speed>0.0</speed>
  <fix>3d</fix>
</trkpt>
<trkpt lat="33.8103089" lon="-118.3939059">
  <ele>-2.397</ele>
  <time>2026-09-02T22:12:42Z</time>
  <course>357.25</course>
  <speed>0.02</speed>
  <fix>3d</fix>
</trkpt>
<trkpt lat="33.8103088" lon="-118.3939061">
  <ele>-1.83</ele>
  <time>2026-09-02T22:12:42Z</time>
  <course>201.85</course>
  <speed>0.0</speed>
  <fix>3d</fix>
</trkpt>
<trkpt lat="33.8103089" lon="-118.3939059">
  <ele>-2.544</ele>
  <time>2026-09-02T22:12:42Z</time>
  <course>357.37</course>
  <speed>0.02</speed>
  <fix>3d</fix>
</trkpt>
<trkpt lat="33.8103088" lon="-118.3939061">
  <ele>-2.11</ele>
  <time>2026-09-02T22:12:42Z</time>
  <course>250.59</course>
  <speed>0.01</speed>
  <fix>3d</fix>
</trkpt>
<trkpt lat="33.8103089" lon="-118.393906">
  <ele>-2.689</ele>
  <time>2026-09-02T22:12:42Z</time>
  <course>357.48</course>
  <speed>0.03</speed>
  <fix>3d</fix>
</trkpt>
<trkpt lat="33.8103088" lon="-118.3939061">
  <ele>-2.11</ele>
  <time>2026-09-02T22:12:42Z</time>
  <course>250.59</course>
  <speed>0.01</speed>
  <fix>3d</fix>
</trkpt>
<trkpt lat="33.8103089" lon="-118.393906">
  <ele>-2.833</ele>
  <time>2026-09-02T22:12:42Z</time>
  <course>357.59</course>
  <speed>0.03</speed>
  <fix>3d</fix>
</trkpt>
<trkpt lat="33.8103088" lon="-118.3939061">
  <ele>-2.38</ele>
  <time>2026-09-02T22:12:42Z</time>
  <course>256.88</course>
  <speed>0.02</speed>
  <fix>3d</fix>
</trkpt>
<trkpt lat="33.8103089" lon="-118.3939061">
  <ele>-2.976</ele>
  <time>2026-09-02T22:12:42Z</time>
  <course>357.69</course>
  <speed>0.03</speed>
  <fix>3d</fix>
</trkpt>
<trkpt lat="33.8103088" lon="-118.3939061">
  <ele>-2.38</ele>
  <time>2026-09-02T22:12:42Z</time>
  <course>256.88</course>
  <speed>0.02</speed>
  <fix>3d</fix>
</trkpt>
<trkpt lat="33.8103089" lon="-118.3939061">
  <ele>-3.12</ele>
  <time>2026-09-02T22:12:42Z</time>
  <course>357.78</course>
  <speed>0.04</speed>
  <fix>3d</fix>
</trkpt>
<trkpt lat="33.8103088" lon="-118.3939061">
  <ele>-2.67</ele>
  <time>2026-09-02T22:12:42Z</time>
  <course>259.34</course>
  <speed>0.03</speed>
  <fix>3d</fix>
</trkpt>
<trkpt lat="33.8103089" lon="-118.3939062">
  <ele>-3.264</ele>
  <time>2026-09-02T22:12:42Z</time>
  <course>357.87</course>
  <speed>0.04</speed>
  <fix>3d</fix>
</trkpt>
<trkpt lat="33.8103088" lon="-118.3939061">
  <ele>-2.67</ele>
  <time>2026-09-02T22:12:42Z</time>
  <course>259.34</course>
  <speed>0.03</speed>
  <fix>3d</fix>
</trkpt>
<trkpt lat="33.8103089" lon="-118.3939062">
  <ele>-3.408</ele>
  <time>2026-09-02T22:12:42Z</time>
  <course>357.97</course>
  <speed>0.04</speed>
  <fix>3d</fix>
</trkpt>
<trkpt lat="33.8103088" lon="-118.3939062">
  <ele>-2.94</ele>
  <time>2026-09-02T22:12:42Z</time>
  <course>260.78</course>
  <speed>0.04</speed>
  <fix>3d</fix>
</trkpt>
<trkpt lat="33.8103089" lon="-118.3939063">
  <ele>-3.551</ele>
  <time>2026-09-02T22:12:42Z</time>
  <course>358.05</course>
  <speed>0.04</speed>
  <fix>3d</fix>
</trkpt>
<trkpt lat="33.8103088" lon="-118.3939062">
  <ele>-2.94</ele>
  <time>2026-09-02T22:12:42Z</time>
  <course>260.78</course>
  <speed>0.04</speed>
  <fix>3d</fix>
</trkpt>
<trkpt lat="33.8103089" lon="-118.3939063">
  <ele>-3.693</ele>
  <time>2026-09-02T22:12:42Z</time>
  <course>358.11</course>
  <speed>0.05</speed>
  <fix>3d</fix>
</trkpt>
<trkpt lat="33.8103088" lon="-118.3939062">
  <ele>-3.23</ele>
  <time>2026-09-02T22:12:42Z</time>
  <course>261.67</course>
  <speed>0.04</speed>
  <fix>3d</fix>
</trkpt>
<trkpt lat="33.8103089" lon="-118.3939064">
  <ele>-3.835</ele>
  <time>2026-09-02T22:12:42Z</time>
  <course>358.18</course>
  <speed>0.05</speed>
  <fix>3d</fix>
</trkpt>
<trkpt lat="33.8103088" lon="-118.3939062">
  <ele>-3.23</ele>
  <time>2026-09-02T22:12:42Z</time>
  <course>261.67</course>
  <speed>0.04</speed>
  <fix>3d</fix>
</trkpt>
<trkpt lat="33.8103089" lon="-118.3939064">
  <ele>-3.977</ele>
  <time>2026-09-02T22:12:42Z</time>
  <course>358.29</course>
  <speed>0.05099019513592785</speed>
  <fix>3d</fix>
</trkpt>
<trkpt lat="33.8103088" lon="-118.3939063">
  <ele>-3.51</ele>
  <time>2026-09-02T22:12:42Z</time>
  <course>262.07</course>
  <speed>0.04</speed>
  <fix>3d</fix>
</trkpt>
<trkpt lat="33.8103089" lon="-118.3939065">
  <ele>-4.12</ele>
  <time>2026-09-02T22:12:42Z</time>
  <course>358.42</course>
  <speed>0.05099019513592785</speed>
  <fix>3d</fix>
</trkpt>
<trkpt lat="33.8103088" lon="-118.3939063">
  <ele>-3.51</ele>
  <time>2026-09-02T22:12:42Z</time>
  <course>262.07</course>
  <speed>0.04</speed>
  <fix>3d</fix>
</trkpt>
<trkpt lat="33.8103089" lon="-118.3939065">
  <ele>-4.263</ele>
  <time>2026-09-02T22:12:42Z</time>
  <course>358.54</course>
  <speed>0.05099019513592785</speed>
  <fix>3d</fix>
</trkpt>
<trkpt lat="33.8103088" lon="-118.3939064">
  <ele>-3.79</ele>
  <time>2026-09-02T22:12:42Z</time>
  <course>262.35</course>
  <speed>0.04</speed>
  <fix>3d</fix>
</trkpt>
<trkpt lat="33.8103089" lon="-118.3939066">
  <ele>-4.407</ele>
  <time>2026-09-02T22:12:42Z</time>
  <course>358.63</course>
  <speed>0.05099019513592785</speed>
  <fix>3d</fix>
</trkpt>
<trkpt lat="33.8103088" lon="-118.3939064">
  <ele>-3.79</ele>
  <time>2026-09-02T22:12:42Z</time>
  <course>262.35</course>
  <speed>0.04</speed>
  <fix>3d</fix>
</trkpt>
<trkpt lat="33.8103089" lon="-118.3939066">
  <ele>-4.55</ele>
  <time>2026-09-02T22:12:42Z</time>
  <course>358.69</course>
  <speed>0.05099019513592785</speed>
  <fix>3d</fix>
</trkpt>
<trkpt lat="33.8103088" lon="-118.3939065">
  <ele>-4.06</ele>
  <time>2026-09-02T22:12:42Z</time>
  <course>262.75</course>
  <speed>0.05</speed>
  <fix>3d</fix>
</trkpt>
<trkpt lat="33.8103089" lon="-118.3939067">
  <ele>-4.691</ele>
  <time>2026-09-02T22:12:42Z</time>
  <course>358.71</course>
  <speed>0.05099019513592785</speed>
  <fix>3d</fix>
</trkpt>
<trkpt lat="33.8103088" lon="-118.3939065">
  <ele>-4.06</ele>
  <time>2026-09-02T22:12:42Z</time>
  <course>262.75</course>
  <speed>0.05</speed>
  <fix>3d</fix>
</trkpt>
<trkpt lat="33.8103089" lon="-118.3939067">
  <ele>-4.833</ele>
  <time>2026-09-02T22:12:42Z</time>
  <course>358.75</course>
  <speed>0.05099019513592785</speed>
  <fix>3d</fix>
</trkpt>
<trkpt lat="33.8103088" lon="-118.3939067">
  <ele>-4.34</ele>
  <time>2026-09-02T22:12:42Z</time>
  <course>263.05</course>
  <speed>0.05</speed>
  <fix>3d</fix>
</trkpt>
<trkpt lat="33.8103089" lon="-118.3939068">
  <ele>-4.975</ele>
  <time>2026-09-02T22:12:42Z</time>
  <course>358.81</course>
  <speed>0.05099019513592785</speed>
  <fix>3d</fix>
</trkpt>
<trkpt lat="33.8103088" lon="-118.3939067">
  <ele>-4.34</ele>
  <time>2026-09-02T22:12:42Z</time>
  <course>263.05</course>
  <speed>0.05</speed>
  <fix>3d</fix>
</trkpt>
<trkpt lat="33.8103089" lon="-118.3939068">
  <ele>-5.117</ele>
  <time>2026-09-02T22:12:42Z</time>
  <course>358.87</course>
  <speed>0.05099019513592785</speed>
  <fix>3d</fix>
</trkpt>
<trkpt lat="33.8103088" lon="-118.3939068">
  <ele>-4.62</ele>
  <time>2026-09-02T22:12:42Z</time>
  <course>263.32</course>
  <speed>0.05</speed>
  <fix>3d</fix>
</trkpt>
<trkpt lat="33.8103089" lon="-118.3939069">
  <ele>-5.261</ele>
  <time>2026-09-02T22:12:42Z</time>
  <course>358.97</course>
  <speed>0.05099019513592785</speed>
  <fix>3d</fix>
</trkpt>
<trkpt lat="33.8103088" lon="-118.3939068">
  <ele>-4.62</ele>
  <time>2026-09-02T22:12:42Z</time>
  <course>263.32</course>
  <speed>0.05</speed>
  <fix>3d</fix>
</trkpt>
<trkpt lat="33.8103089" lon="-118.393907">
  <ele>-5.405</ele>
  <time>2026-09-02T22:12:42Z</time>
  <course>359.09</course>
  <speed>0.05099019513592785</speed>
  <fix>3d</fix>
</trkpt>
<trkpt lat="33.8103088" lon="-118.3939069">
  <ele>-4.9</ele>
  <time>2026-09-02T22:12:42Z</time>
  <course>263.59</course>
  <speed>0.05</speed>
  <fix>3d</fix>
</trkpt>
<trkpt lat="33.8103089" lon="-118.393907">
  <ele>-5.548</ele>
  <time>2026-09-02T22:12:42Z</time>
  <course>359.17</course>
  <speed>0.05099019513592785</speed>
  <fix>3d</fix>
</trkpt>
<trkpt lat="33.8103088" lon="-118.3939069">
  <ele>-4.9</ele>
  <time>2026-09-02T22:12:42Z</time>
  <course>263.59</course>
  <speed>0.05</speed>
  <fix>3d</fix>
</trkpt>
<trkpt lat="33.8103089" lon="-118.3939071">
  <ele>-5.684</ele>
  <time>2026-09-02T22:12:42Z</time>
  <course>359.22</course>
  <speed>0.0412310562561766</speed>
  <fix>3d</fix>
</trkpt>
<trkpt lat="33.8103088" lon="-118.393907">
  <ele>-5.18</ele>
  <time>2026-09-02T22:12:42Z</time>
  <course>263.65</course>
  <speed>0.05</speed>
  <fix>3d</fix>
</trkpt>
<trkpt lat="33.8103089" lon="-118.3939071">
  <ele>-5.807</ele>
  <time>2026-09-02T22:12:42Z</time>
  <course>359.23</course>
  <speed>0.08062257748298549</speed>
  <fix>3d</fix>
</trkpt>
<trkpt lat="33.8103088" lon="-118.393907">
  <ele>-5.18</ele>
  <time>2026-09-02T22:12:42Z</time>
  <course>263.65</course>
  <speed>0.05</speed>
  <fix>3d</fix>
</trkpt>
<trkpt lat="33.8103089" lon="-118.3939073">
  <ele>-5.92</ele>
  <time>2026-09-02T22:12:42Z</time>
  <course>359.41</course>
  <speed>0.16031219541881397</speed>
  <fix>3d</fix>
</trkpt>
<trkpt lat="33.8103088" lon="-118.3939072">
  <ele>-5.45</ele>
  <time>2026-09-02T22:12:42Z</time>
  <course>265.18</course>
  <speed>0.07</speed>
  <fix>3d</fix>
</trkpt>
<trkpt lat="33.8103089" lon="-118.3939075">
  <ele>-6.023</ele>
  <time>2026-09-02T22:12:42Z</time>
  <course>359.77</course>
  <speed>0.36013886210738216</speed>
  <fix>3d</fix>
</trkpt>
<trkpt lat="33.8103088" lon="-118.3939072">
  <ele>-5.45</ele>
  <time>2026-09-02T22:12:42Z</time>
  <course>265.18</course>
  <speed>0.07</speed>
  <fix>3d</fix>
</trkpt>
<trkpt lat="33.8103089" lon="-118.3939081">
  <ele>-6.124</ele>
  <time>2026-09-02T22:12:42Z</time>
  <course>0.24</course>
  <speed>0.6400781202322103</speed>
  <fix>3d</fix>
</trkpt>
<trkpt lat="33.8103087" lon="-118.3939075">
  <ele>-5.68</ele>
  <time>2026-09-02T22:12:42Z</time>
  <course>268.59</course>
  <speed>0.27</speed>
  <fix>3d</fix>
</trkpt>
<trkpt lat="33.8103089" lon="-118.3939089">
  <ele>-6.215</ele>
  <time>2026-09-02T22:12:42Z</time>
  <course>1.26</course>
  <speed>0.8300602387778854</speed>
  <fix>3d</fix>
</trkpt>
<trkpt lat="33.8103087" lon="-118.3939075">
  <ele>-5.68</ele>
  <time>2026-09-02T22:12:42Z</time>
  <course>268.59</course>
  <speed>0.27</speed>
  <fix>3d</fix>
</trkpt>
<trkpt lat="33.8103089" lon="-118.3939099">
  <ele>-6.288</ele>
  <time>2026-09-02T22:12:42Z</time>
  <course>2.82</course>
  <speed>0.9800510190801294</speed>
  <fix>3d</fix>
</trkpt>
<trkpt lat="33.8103087" lon="-118.3939084">
  <ele>-5.89</ele>
  <time>2026-09-02T22:12:42Z</time>
  <course>269.69</course>
  <speed>0.66</speed>
  <fix>3d</fix>
</trkpt>
<trkpt lat="33.8103089" lon="-118.393911">
  <ele>-6.337</ele>
  <time>2026-09-02T22:12:42Z</time>
  <course>4.58</course>
  <speed>1.1000454536063498</speed>
  <fix>3d</fix>
</trkpt>
<trkpt lat="33.8103087" lon="-118.3939084">
  <ele>-5.89</ele>
  <time>2026-09-02T22:12:42Z</time>
  <course>269.69</course>
  <speed>0.66</speed>
  <fix>3d</fix>
</trkpt>
<trkpt lat="33.8103089" lon="-118.3939122">
  <ele>-6.362</ele>
  <time>2026-09-02T22:12:42Z</time>
  <course>6.05</course>
  <speed>1.1801694793545543</speed>
  <fix>3d</fix>
</trkpt>
<trkpt lat="33.8103087" lon="-118.3939102">
  <ele>-6.05</ele>
  <time>2026-09-02T22:12:42Z</time>
  <course>270.26</course>
  <speed>1.01</speed>
  <fix>3d</fix>
</trkpt>
<trkpt lat="33.8103089" lon="-118.3939134">
  <ele>-6.361</ele>
  <time>2026-09-02T22:12:42Z</time>
  <course>7.04</course>
  <speed>1.1801694793545543</speed>
  <fix>3d</fix>
</trkpt>
<trkpt lat="33.8103087" lon="-118.3939102">
  <ele>-6.05</ele>
  <time>2026-09-02T22:12:42Z</time>
  <course>270.26</course>
  <speed>1.01</speed>
  <fix>3d</fix>
</trkpt>
<trkpt lat="33.8103089" lon="-118.3939147">
  <ele>-6.333</ele>
  <time>2026-09-02T22:12:42Z</time>
  <course>7.53</course>
  <speed>1.1201785571952356</speed>
  <fix>3d</fix>
</trkpt>
<trkpt lat="33.8103087" lon="-118.3939126">
  <ele>-6.12</ele>
  <time>2026-09-02T22:12:42Z</time>
  <course>270.74</course>
  <speed>1.17</speed>
  <fix>3d</fix>
</trkpt>
<trkpt lat="33.8103089" lon="-118.3939158">
  <ele>-6.279</ele>
  <time>2026-09-02T22:12:42Z</time>
  <course>7.58</course>
  <speed>1.000199980003999</speed>
  <fix>3d</fix>
</trkpt>
<trkpt lat="33.8103087" lon="-118.3939126">
  <ele>-6.12</ele>
  <time>2026-09-02T22:12:42Z</time>
  <course>270.74</course>
  <speed>1.17</speed>
  <fix>3d</fix>
</trkpt>
<trkpt lat="33.8103089" lon="-118.3939167">
  <ele>-6.207</ele>
  <time>2026-09-02T22:12:42Z</time>
  <course>6.86</course>
  <speed>0.8</speed>
  <fix>3d</fix>
</trkpt>
<trkpt lat="33.8103087" lon="-118.3939152">
  <ele>-6.09</ele>
  <time>2026-09-02T22:12:42Z</time>
  <course>270.69</course>
  <speed>1.11</speed>
  <fix>3d</fix>
</trkpt>
<trkpt lat="33.8103089" lon="-118.3939175">
  <ele>-6.134</ele>
  <time>2026-09-02T22:12:42Z</time>
  <course>5.77</course>
  <speed>0.5900847396772771</speed>
  <fix>3d</fix>
</trkpt>
<trkpt lat="33.8103087" lon="-118.3939152">
  <ele>-6.09</ele>
  <time>2026-09-02T22:12:42Z</time>
  <course>270.69</course>
  <speed>1.11</speed>
  <fix>3d</fix>
</trkpt>
<trkpt lat="33.8103088" lon="-118.393918">
  <ele>-6.066</ele>
  <time>2026-09-02T22:12:42Z</time>
  <course>4.76</course>
  <speed>0.44045431091090476</speed>
  <fix>3d</fix>
</trkpt>
<trkpt lat="33.8103087" lon="-118.3939173">
  <ele>-5.98</ele>
  <time>2026-09-02T22:12:42Z</time>
  <course>269.04</course>
  <speed>0.81</speed>
  <fix>3d</fix>
</trkpt>
<trkpt lat="33.8103088" lon="-118.3939185">
  <ele>-6.006</ele>
  <time>2026-09-02T22:12:42Z</time>
  <course>4.05</course>
  <speed>0.3313608305156178</speed>
  <fix>3d</fix>
</trkpt>
<trkpt lat="33.8103087" lon="-118.3939173">
  <ele>-5.98</ele>
  <time>2026-09-02T22:12:42Z</time>
  <course>269.04</course>
  <speed>0.81</speed>
  <fix>3d</fix>
</trkpt>
<trkpt lat="33.8103088" lon="-118.3939189">
  <ele>-5.953</ele>
  <time>2026-09-02T22:12:42Z</time>
  <course>3.55</course>
  <speed>0.261725046566048</speed>
  <fix>3d</fix>
</trkpt>
<trkpt lat="33.8103087" lon="-118.3939187">
  <ele>-5.86</ele>
  <time>2026-09-02T22:12:42Z</time>
  <course>265.14</course>
  <speed>0.49</speed>
  <fix>3d</fix>
</trkpt>
<trkpt lat="33.8103087" lon="-118.3939192">
  <ele>-5.908</ele>
  <time>2026-09-02T22:12:42Z</time>
  <course>3.18</course>
  <speed>0.20223748416156684</speed>
  <fix>3d</fix>
</trkpt>
<trkpt lat="33.8103087" lon="-118.3939187">
  <ele>-5.86</ele>
  <time>2026-09-02T22:12:42Z</time>
  <course>265.14</course>
  <speed>0.49</speed>
  <fix>3d</fix>
</trkpt>
<trkpt lat="33.8103087" lon="-118.3939194">
  <ele>-5.869</ele>
  <time>2026-09-02T22:12:42Z</time>
  <course>2.87</course>
  <speed>0.17262676501632068</speed>
  <fix>3d</fix>
</trkpt>
<trkpt lat="33.8103086" lon="-118.3939196">
  <ele>-5.77</ele>
  <time>2026-09-02T22:12:42Z</time>
  <course>260.63</course>
  <speed>0.31</speed>
  <fix>3d</fix>
</trkpt>
<trkpt lat="33.8103086" lon="-118.3939197">
  <ele>-5.835</ele>
  <time>2026-09-02T22:12:42Z</time>
  <course>2.62</course>
  <speed>0.14317821063276354</speed>
  <fix>3d</fix>
</trkpt>
<trkpt lat="33.8103086" lon="-118.3939196">
  <ele>-5.77</ele>
  <time>2026-09-02T22:12:42Z</time>
  <course>260.63</course>
  <speed>0.31</speed>
  <fix>3d</fix>
</trkpt>
<trkpt lat="33.8103086" lon="-118.3939199">
  <ele>-5.808</ele>
  <time>2026-09-02T22:12:42Z</time>
  <course>2.39</course>
  <speed>0.12369316876852982</speed>
  <fix>3d</fix>
</trkpt>
<trkpt lat="33.8103085" lon="-118.3939201">
  <ele>-5.7</ele>
  <time>2026-09-02T22:12:42Z</time>
  <course>256.6</course>
  <speed>0.23</speed>
  <fix>3d</fix>
</trkpt>
<trkpt lat="33.8103085" lon="-118.3939201">
  <ele>-5.786</ele>
  <time>2026-09-02T22:12:42Z</time>
  <course>2.2</course>
  <speed>0.1044030650891055</speed>
  <fix>3d</fix>
</trkpt>
<trkpt lat="33.8103085" lon="-118.3939201">
  <ele>-5.7</ele>
  <time>2026-09-02T22:12:42Z</time>
  <course>256.6</course>
  <speed>0.23</speed>
  <fix>3d</fix>
</trkpt>
<trkpt lat="33.8103085" lon="-118.3939202">
  <ele>-5.769</ele>
  <time>2026-09-02T22:12:42Z</time>
  <course>2.03</course>
  <speed>0.09486832980505139</speed>
  <fix>3d</fix>
</trkpt>
<trkpt lat="33.8103084" lon="-118.3939206">
  <ele>-5.65</ele>
  <time>2026-09-02T22:12:42Z</time>
  <course>253.45</course>
  <speed>0.18</speed>
  <fix>3d</fix>
</trkpt>
<trkpt lat="33.8103084" lon="-118.3939204">
  <ele>-5.757</ele>
  <time>2026-09-02T22:12:42Z</time>
  <course>1.87</course>
  <speed>0.0854400374531753</speed>
  <fix>3d</fix>
</trkpt>
<trkpt lat="33.8103084" lon="-118.3939206">
  <ele>-5.65</ele>
  <time>2026-09-02T22:12:42Z</time>
  <course>253.45</course>
  <speed>0.18</speed>
  <fix>3d</fix>
</trkpt>
<trkpt lat="33.8103084" lon="-118.3939206">
  <ele>-5.751</ele>
  <time>2026-09-02T22:12:42Z</time>
  <course>1.73</course>
  <speed>0.0854400374531753</speed>
  <fix>3d</fix>
</trkpt>
<trkpt lat="33.8103083" lon="-118.3939209">
  <ele>-5.62</ele>
  <time>2026-09-02T22:12:42Z</time>
  <course>251.27</course>
  <speed>0.15</speed>
  <fix>3d</fix>
</trkpt>
<trkpt lat="33.8103083" lon="-118.3939207">
  <ele>-5.75</ele>
  <time>2026-09-02T22:12:42Z</time>
  <course>1.59</course>
  <speed>0.08062257748298549</speed>
  <fix>3d</fix>
</trkpt>
<trkpt lat="33.8103083" lon="-118.3939209">
  <ele>-5.62</ele>
  <time>2026-09-02T22:12:42Z</time>
  <course>251.27</course>
  <speed>0.15</speed>
  <fix>3d</fix>
</trkpt>
<trkpt lat="33.8103083" lon="-118.3939208">
  <ele>-5.752</ele>
  <time>2026-09-02T22:12:42Z</time>
  <course>1.47</course>
  <speed>0.08062257748298549</speed>
  <fix>3d</fix>
</trkpt>
<trkpt lat="33.8103082" lon="-118.3939212">
  <ele>-5.6</ele>
  <time>2026-09-02T22:12:42Z</time>
  <course>249.88</course>
  <speed>0.14</speed>
  <fix>3d</fix>
</trkpt>
<trkpt lat="33.8103082" lon="-118.393921">
  <ele>-5.756</ele>
  <time>2026-09-02T22:12:42Z</time>
  <course>1.35</course>
  <speed>0.08062257748298549</speed>
  <fix>3d</fix>
</trkpt>
<trkpt lat="33.8103082" lon="-118.3939212">
  <ele>-5.6</ele>
  <time>2026-09-02T22:12:42Z</time>
  <course>249.88</course>
  <speed>0.14</speed>
  <fix>3d</fix>
</trkpt>
<trkpt lat="33.8103082" lon="-118.3939211">
  <ele>-5.762</ele>
  <time>2026-09-02T22:12:42Z</time>
  <course>1.23</course>
  <speed>0.07211102550927978</speed>
  <fix>3d</fix>
</trkpt>
<trkpt lat="33.8103081" lon="-118.3939215">
  <ele>-5.6</ele>
  <time>2026-09-02T22:12:42Z</time>
  <course>248.84</course>
  <speed>0.12</speed>
  <fix>3d</fix>
</trkpt>
<trkpt lat="33.8103081" lon="-118.3939212">
  <ele>-5.769</ele>
  <time>2026-09-02T22:12:42Z</time>
  <course>1.12</course>
  <speed>0.07211102550927978</speed>
  <fix>3d</fix>
</trkpt>
<trkpt lat="33.8103081" lon="-118.3939215">
  <ele>-5.6</ele>
  <time>2026-09-02T22:12:42Z</time>
  <course>248.84</course>
  <speed>0.12</speed>
  <fix>3d</fix>
</trkpt>
<trkpt lat="33.8103081" lon="-118.3939214">
  <ele>-5.777</ele>
  <time>2026-09-02T22:12:42Z</time>
  <course>1.02</course>
  <speed>0.06403124237432849</speed>
  <fix>3d</fix>
</trkpt>
<trkpt lat="33.8103081" lon="-118.3939217">
  <ele>-5.6</ele>
  <time>2026-09-02T22:12:42Z</time>
  <course>247.79</course>
  <speed>0.11</speed>
  <fix>3d</fix>
</trkpt>
<trkpt lat="33.8103081" lon="-118.3939215">
  <ele>-5.786</ele>
  <time>2026-09-02T22:12:42Z</time>
  <course>0.92</course>
  <speed>0.06403124237432849</speed>
  <fix>3d</fix>
</trkpt>
<trkpt lat="33.8103081" lon="-118.3939217">
  <ele>-5.6</ele>
  <time>2026-09-02T22:12:42Z</time>
  <course>247.79</course>
  <speed>0.11</speed>
  <fix>3d</fix>
</trkpt>
<trkpt lat="33.810308" lon="-118.3939216">
  <ele>-5.796</ele>
  <time>2026-09-02T22:12:42Z</time>
  <course>0.83</course>
  <speed>0.06403124237432849</speed>
  <fix>3d</fix>
</trkpt>
<trkpt lat="33.810308" lon="-118.393922">
  <ele>-5.61</ele>
  <time>2026-09-02T22:12:42Z</time>
  <course>246.71</course>
  <speed>0.1</speed>
  <fix>3d</fix>
</trkpt>
<trkpt lat="33.810308" lon="-118.3939217">
  <ele>-5.805</ele>
  <time>2026-09-02T22:12:42Z</time>
  <course>0.74</course>
  <speed>0.0565685424949238</speed>
  <fix>3d</fix>
</trkpt>
<trkpt lat="33.810308" lon="-118.393922">
  <ele>-5.61</ele>
  <time>2026-09-02T22:12:42Z</time>
  <course>246.71</course>
  <speed>0.1</speed>
  <fix>3d</fix>
</trkpt>
<trkpt lat="33.8103079" lon="-118.3939218">
  <ele>-5.812</ele>
  <time>2026-09-02T22:12:42Z</time>
  <course>0.65</course>
  <speed>0.0565685424949238</speed>
  <fix>3d</fix>
</trkpt>
<trkpt lat="33.8103079" lon="-118.3939222">
  <ele>-5.62</ele>
  <time>2026-09-02T22:12:42Z</time>
  <course>245.49</course>
  <speed>0.09</speed>
  <fix>3d</fix>
</trkpt>
<trkpt lat="33.8103079" lon="-118.3939219">
  <ele>-5.817</ele>
  <time>2026-09-02T22:12:42Z</time>
  <course>0.56</course>
  <speed>0.0565685424949238</speed>
  <fix>3d</fix>
</trkpt>
<trkpt lat="33.8103079" lon="-118.3939222">
  <ele>-5.62</ele>
  <time>2026-09-02T22:12:42Z</time>
  <course>245.49</course>
  <speed>0.09</speed>
  <fix>3d</fix>
</trkpt>
<trkpt lat="33.8103078" lon="-118.393922">
  <ele>-5.819</ele>
  <time>2026-09-02T22:12:42Z</time>
  <course>0.48</course>
  <speed>0.0565685424949238</speed>
  <fix>3d</fix>
</trkpt>
<trkpt lat="33.8103078" lon="-118.3939224">
  <ele>-5.63</ele>
  <time>2026-09-02T22:12:42Z</time>
  <course>243.98</course>
  <speed>0.09</speed>
  <fix>3d</fix>
</trkpt>
<trkpt lat="33.8103078" lon="-118.3939221">
  <ele>-5.82</ele>
  <time>2026-09-02T22:12:42Z</time>
  <course>0.4</course>
  <speed>0.05</speed>
  <fix>3d</fix>
</trkpt>
<trkpt lat="33.8103078" lon="-118.3939224">
  <ele>-5.63</ele>
  <time>2026-09-02T22:12:42Z</time>
  <course>243.98</course>
  <speed>0.09</speed>
  <fix>3d</fix>
</trkpt>
<trkpt lat="33.8103077" lon="-118.3939222">
  <ele>-5.82</ele>
  <time>2026-09-02T22:12:42Z</time>
  <course>0.33</course>
  <speed>0.05830951894845301</speed>
  <fix>3d</fix>
</trkpt>
<trkpt lat="33.8103077" lon="-118.3939225">
  <ele>-5.64</ele>
  <time>2026-09-02T22:12:42Z</time>
  <course>242.32</course>
  <speed>0.08</speed>
  <fix>3d</fix>
</trkpt>
<trkpt lat="33.8103077" lon="-118.3939223">
  <ele>-5.818</ele>
  <time>2026-09-02T22:12:42Z</time>
  <course>0.26</course>
  <speed>0.05830951894845301</speed>
  <fix>3d</fix>
</trkpt>
<trkpt lat="33.8103077" lon="-118.3939225">
  <ele>-5.64</ele>
  <time>2026-09-02T22:12:42Z</time>
  <course>242.32</course>
  <speed>0.08</speed>
  <fix>3d</fix>
</trkpt>
<trkpt lat="33.8103077" lon="-118.3939223">
  <ele>-5.814</ele>
  <time>2026-09-02T22:12:42Z</time>
  <course>0.18</course>
  <speed>0.05830951894845301</speed>
  <fix>3d</fix>
</trkpt>
<trkpt lat="33.8103077" lon="-118.3939227">
  <ele>-5.63</ele>
  <time>2026-09-02T22:12:42Z</time>
  <course>240.8</course>
  <speed>0.07</speed>
  <fix>3d</fix>
</trkpt>
<trkpt lat="33.8103076" lon="-118.3939224">
  <ele>-5.809</ele>
  <time>2026-09-02T22:12:42Z</time>
  <course>0.11</course>
  <speed>0.05830951894845301</speed>
  <fix>3d</fix>
</trkpt>
<trkpt lat="33.8103077" lon="-118.3939227">
  <ele>-5.63</ele>
  <time>2026-09-02T22:12:42Z</time>
  <course>240.8</course>
  <speed>0.07</speed>
  <fix>3d</fix>
</trkpt>
<trkpt lat="33.8103076" lon="-118.3939225">
  <ele>-5.803</ele>
  <time>2026-09-02T22:12:42Z</time>
  <course>0.05</course>
  <speed>0.053851648071345036</speed>
  <fix>3d</fix>
</trkpt>
<trkpt lat="33.8103076" lon="-118.3939228">
  <ele>-5.62</ele>
  <time>2026-09-02T22:12:42Z</time>
  <course>239.57</course>
  <speed>0.07</speed>
  <fix>3d</fix>
</trkpt>
<trkpt lat="33.8103075" lon="-118.3939226">
  <ele>-5.798</ele>
  <time>2026-09-02T22:12:42Z</time>
  <course>359.99</course>
  <speed>0.053851648071345036</speed>
  <fix>3d</fix>
</trkpt>
<trkpt lat="33.8103076" lon="-118.3939228">
  <ele>-5.62</ele>
  <time>2026-09-02T22:12:42Z</time>
  <course>239.57</course>
  <speed>0.07</speed>
  <fix>3d</fix>
</trkpt>
<trkpt lat="33.8103075" lon="-118.3939226">
  <ele>-5.794</ele>
  <time>2026-09-02T22:12:42Z</time>
  <course>359.93</course>
  <speed>0.053851648071345036</speed>
  <fix>3d</fix>
</trkpt>
<trkpt lat="33.8103076" lon="-118.3939229">
  <ele>-5.61</ele>
  <time>2026-09-02T22:12:42Z</time>
  <course>238.75</course>
  <speed>0.06</speed>
  <fix>3d</fix>
</trkpt>
<trkpt lat="33.8103074" lon="-118.3939227">
  <ele>-5.791</ele>
  <time>2026-09-02T22:12:42Z</time>
  <course>359.87</course>
  <speed>0.053851648071345036</speed>
  <fix>3d</fix>
</trkpt>
<trkpt lat="33.8103076" lon="-118.3939229">
  <ele>-5.61</ele>
  <time>2026-09-02T22:12:42Z</time>
  <course>238.75</course>
  <speed>0.06</speed>
  <fix>3d</fix>
</trkpt>
<trkpt lat="33.8103074" lon="-118.3939228">
  <ele>-5.789</ele>
  <time>2026-09-02T22:12:42Z</time>
  <course>359.81</course>
  <speed>0.053851648071345036</speed>
  <fix>3d</fix>
</trkpt>
<trkpt lat="33.8103075" lon="-118.393923">
  <ele>-5.6</ele>
  <time>2026-09-02T22:12:42Z</time>
  <course>238.26</course>
  <speed>0.06</speed>
  <fix>3d</fix>
</trkpt>
<trkpt lat="33.8103074" lon="-118.3939228">
  <ele>-5.788</ele>
  <time>2026-09-02T22:12:42Z</time>
  <course>359.75</course>
  <speed>0.053851648071345036</speed>
  <fix>3d</fix>
</trkpt>
<trkpt lat="33.8103075" lon="-118.393923">
  <ele>-5.6</ele>
  <time>2026-09-02T22:12:42Z</time>
  <course>238.26</course>
  <speed>0.06</speed>
  <fix>3d</fix>
</trkpt>
<trkpt lat="33.8103073" lon="-118.3939229">
  <ele>-5.787</ele>
  <time>2026-09-02T22:12:42Z</time>
  <course>359.69</course>
  <speed>0.053851648071345036</speed>
  <fix>3d</fix>
</trkpt>
<trkpt lat="33.8103075" lon="-118.3939232">
  <ele>-5.59</ele>
  <time>2026-09-02T22:12:42Z</time>
  <course>237.83</course>
  <speed>0.06</speed>
  <fix>3d</fix>
</trkpt>
<trkpt lat="33.8103073" lon="-118.393923">
  <ele>-5.784</ele>
  <time>2026-09-02T22:12:42Z</time>
  <course>359.64</course>
  <speed>0.0632455532033676</speed>
  <fix>3d</fix>
</trkpt>
<trkpt lat="33.8103075" lon="-118.3939232">
  <ele>-5.59</ele>
  <time>2026-09-02T22:12:42Z</time>
  <course>237.83</course>
  <speed>0.06</speed>
  <fix>3d</fix>
</trkpt>
<trkpt lat="33.8103072" lon="-118.393923">
  <ele>-5.78</ele>
  <time>2026-09-02T22:12:42Z</time>
  <course>359.59</course>
  <speed>0.0632455532033676</speed>
  <fix>3d</fix>
</trkpt>
<trkpt lat="33.8103074" lon="-118.3939233">
  <ele>-5.59</ele>
  <time>2026-09-02T22:12:42Z</time>
  <course>237.25</course>
  <speed>0.05</speed>
  <fix>3d</fix>
</trkpt>
<trkpt lat="33.8103072" lon="-118.3939231">
  <ele>-5.775</ele>
  <time>2026-09-02T22:12:42Z</time>
  <course>359.54</course>
  <speed>0.0632455532033676</speed>
  <fix>3d</fix>
</trkpt>
<trkpt lat="33.8103074" lon="-118.3939233">
  <ele>-5.59</ele>
  <time>2026-09-02T22:12:42Z</time>
  <course>237.25</course>
  <speed>0.05</speed>
  <fix>3d</fix>
</trkpt>
<trkpt lat="33.8103072" lon="-118.3939231">
  <ele>-5.769</ele>
  <time>2026-09-02T22:12:42Z</time>
  <course>359.49</course>
  <speed>0.0632455532033676</speed>
  <fix>3d</fix>
</trkpt>
<trkpt lat="33.8103073" lon="-118.3939234">
  <ele>-5.58</ele>
  <time>2026-09-02T22:12:42Z</time>
  <course>236.58</course>
  <speed>0.05</speed>
  <fix>3d</fix>
</trkpt>
<trkpt lat="33.8103071" lon="-118.3939232">
  <ele>-5.762</ele>
  <time>2026-09-02T22:12:42Z</time>
  <course>359.45</course>
  <speed>0.0632455532033676</speed>
  <fix>3d</fix>
</trkpt>
<trkpt lat="33.8103073" lon="-118.3939234">
  <ele>-5.58</ele>
  <time>2026-09-02T22:12:42Z</time>
  <course>236.58</course>
  <speed>0.05</speed>
  <fix>3d</fix>
</trkpt>
<trkpt lat="33.8103071" lon="-118.3939232">
  <ele>-5.755</ele>
  <time>2026-09-02T22:12:42Z</time>
  <course>359.4</course>
  <speed>0.0632455532033676</speed>
  <fix>3d</fix>
</trkpt>
<trkpt lat="33.8103073" lon="-118.3939235">
  <ele>-5.57</ele>
  <time>2026-09-02T22:12:42Z</time>
  <course>235.98</course>
  <speed>0.05</speed>
  <fix>3d</fix>
</trkpt>
<trkpt lat="33.8103071" lon="-118.3939233">
  <ele>-5.748</ele>
  <time>2026-09-02T22:12:42Z</time>
  <course>359.36</course>
  <speed>0.06082762530298219</speed>
  <fix>3d</fix>
</trkpt>
<trkpt lat="33.8103073" lon="-118.3939235">
  <ele>-5.57</ele>
  <time>2026-09-02T22:12:42Z</time>
  <course>235.98</course>
  <speed>0.05</speed>
  <fix>3d</fix>
</trkpt>
<trkpt lat="33.810307" lon="-118.3939233">
  <ele>-5.741</ele>
  <time>2026-09-02T22:12:42Z</time>
  <course>359.32</course>
  <speed>0.06082762530298219</speed>
  <fix>3d</fix>
</trkpt>
<trkpt lat="33.8103072" lon="-118.3939236">
  <ele>-5.56</ele>
  <time>2026-09-02T22:12:42Z</time>
  <course>235.38</course>
  <speed>0.05</speed>
  <fix>3d</fix>
</trkpt>
<trkpt lat="33.810307" lon="-118.3939234">
  <ele>-5.734</ele>
  <time>2026-09-02T22:12:42Z</time>
  <course>359.27</course>
  <speed>0.06082762530298219</speed>
  <fix>3d</fix>
</trkpt>
<trkpt lat="33.8103072" lon="-118.3939236">
  <ele>-5.56</ele>
  <time>2026-09-02T22:12:42Z</time>
  <course>235.38</course>
  <speed>0.05</speed>
  <fix>3d</fix>
</trkpt>
<trkpt lat="33.8103069" lon="-118.3939234">
  <ele>-5.726</ele>
  <time>2026-09-02T22:12:43Z</time>
  <course>359.23</course>
  <speed>0.06082762530298219</speed>
  <fix>3d</fix>
</trkpt>
<trkpt lat="33.8103071" lon="-118.3939236">
  <ele>-5.55</ele>
  <time>2026-09-02T22:12:43Z</time>
  <course>234.75</course>
  <speed>0.04</speed>
  <fix>3d</fix>
</trkpt>
<trkpt lat="33.8103069" lon="-118.3939235">
  <ele>-5.719</ele>
  <time>2026-09-02T22:12:43Z</time>
  <course>359.19</course>
  <speed>0.06082762530298219</speed>
  <fix>3d</fix>
</trkpt>
<trkpt lat="33.8103071" lon="-118.3939236">
  <ele>-5.55</ele>
  <time>2026-09-02T22:12:43Z</time>
  <course>234.75</course>
  <speed>0.04</speed>
  <fix>3d</fix>
</trkpt>
<trkpt lat="33.8103069" lon="-118.3939235">
  <ele>-5.713</ele>
  <time>2026-09-02T22:12:43Z</time>
  <course>359.15</course>
  <speed>0.07071067811865475</speed>
  <fix>3d</fix>
</trkpt>
<trkpt lat="33.8103071" lon="-118.3939237">
  <ele>-5.53</ele>
  <time>2026-09-02T22:12:43Z</time>
  <course>234.13</course>
  <speed>0.04</speed>
  <fix>3d</fix>
</trkpt>
<trkpt lat="33.8103068" lon="-118.3939236">
  <ele>-5.706</ele>
  <time>2026-09-02T22:12:43Z</time>
  <course>359.11</course>
  <speed>0.07071067811865475</speed>
  <fix>3d</fix>
</trkpt>
<trkpt lat="33.8103071" lon="-118.3939237">
  <ele>-5.53</ele>
  <time>2026-09-02T22:12:43Z</time>
  <course>234.13</course>
  <speed>0.04</speed>
  <fix>3d</fix>
</trkpt>
<trkpt lat="33.8103068" lon="-118.3939236">
  <ele>-5.7</ele>
  <time>2026-09-02T22:12:43Z</time>
  <course>359.08</course>
  <speed>0.07071067811865475</speed>
  <fix>3d</fix>
</trkpt>
<trkpt lat="33.810307" lon="-118.3939238">
  <ele>-5.52</ele>
  <time>2026-09-02T22:12:43Z</time>
  <course>233.55</course>
  <speed>0.04</speed>
  <fix>3d</fix>
</trkpt>
<trkpt lat="33.8103067" lon="-118.3939236">
  <ele>-5.693</ele>
  <time>2026-09-02T22:12:43Z</time>
  <course>359.04</course>
  <speed>0.07071067811865475</speed>
  <fix>3d</fix>
</trkpt>
<trkpt lat="33.810307" lon="-118.3939238">
  <ele>-5.52</ele>
  <time>2026-09-02T22:12:43Z</time>
  <course>233.55</course>
  <speed>0.04</speed>
  <fix>3d</fix>
</trkpt>
<trkpt lat="33.8103067" lon="-118.3939237">
  <ele>-5.686</ele>
  <time>2026-09-02T22:12:43Z</time>
  <course>359.01</course>
  <speed>0.07071067811865475</speed>
  <fix>3d</fix>
</trkpt>
<trkpt lat="33.810307" lon="-118.3939239">
  <ele>-5.5</ele>
  <time>2026-09-02T22:12:43Z</time>
  <course>233.05</course>
  <speed>0.04</speed>
  <fix>3d</fix>
</trkpt>
<trkpt lat="33.8103067" lon="-118.3939237">
  <ele>-5.678</ele>
  <time>2026-09-02T22:12:43Z</time>
  <course>358.97</course>
  <speed>0.07</speed>
  <fix>3d</fix>
</trkpt>
<trkpt lat="33.810307" lon="-118.3939239">
  <ele>-5.5</ele>
  <time>2026-09-02T22:12:43Z</time>
  <course>233.05</course>
  <speed>0.04</speed>
  <fix>3d</fix>
</trkpt>
<trkpt lat="33.8103066" lon="-118.3939237">
  <ele>-5.669</ele>
  <time>2026-09-02T22:12:43Z</time>
  <course>358.94</course>
  <speed>0.07</speed>
  <fix>3d</fix>
</trkpt>
<trkpt lat="33.810307" lon="-118.393924">
  <ele>-5.49</ele>
  <time>2026-09-02T22:12:43Z</time>
  <course>232.61</course>
  <speed>0.04</speed>
  <fix>3d</fix>
</trkpt>
<trkpt lat="33.8103066" lon="-118.3939238">
  <ele>-5.659</ele>
  <time>2026-09-02T22:12:43Z</time>
  <course>358.91</course>
  <speed>0.07</speed>
  <fix>3d</fix>
</trkpt>
<trkpt lat="33.810307" lon="-118.393924">
  <ele>-5.49</ele>
  <time>2026-09-02T22:12:43Z</time>
  <course>232.61</course>
  <speed>0.04</speed>
  <fix>3d</fix>
</trkpt>
<trkpt lat="33.8103066" lon="-118.3939238">
  <ele>-5.649</ele>
  <time>2026-09-02T22:12:43Z</time>
  <course>358.88</course>
  <speed>0.07</speed>
  <fix>3d</fix>
</trkpt>
<trkpt lat="33.810307" lon="-118.3939241">
  <ele>-5.47</ele>
  <time>2026-09-02T22:12:43Z</time>
  <course>232.19</course>
  <speed>0.04</speed>
  <fix>3d</fix>
</trkpt>
<trkpt lat="33.8103066" lon="-118.3939238">
  <ele>-5.639</ele>
  <time>2026-09-02T22:12:43Z</time>
  <course>358.84</course>
  <speed>0.07</speed>
  <fix>3d</fix>
</trkpt>
<trkpt lat="33.810307" lon="-118.3939241">
  <ele>-5.47</ele>
  <time>2026-09-02T22:12:43Z</time>
  <course>232.19</course>
  <speed>0.04</speed>
  <fix>3d</fix>
</trkpt>
<trkpt lat="33.8103065" lon="-118.3939239">
  <ele>-5.629</ele>
  <time>2026-09-02T22:12:43Z</time>
  <course>358.81</course>
  <speed>0.07</speed>
  <fix>3d</fix>
</trkpt>
<trkpt lat="33.8103069" lon="-118.3939241">
  <ele>-5.45</ele>
  <time>2026-09-02T22:12:43Z</time>
  <course>231.76</course>
  <speed>0.03</speed>
  <fix>3d</fix>
</trkpt>
<trkpt lat="33.8103065" lon="-118.3939239">
  <ele>-5.619</ele>
  <time>2026-09-02T22:12:43Z</time>
  <course>358.79</course>
  <speed>0.07</speed>
  <fix>3d</fix>
</trkpt>
<trkpt lat="33.8103069" lon="-118.3939241">
  <ele>-5.45</ele>
  <time>2026-09-02T22:12:43Z</time>
  <course>231.76</course>
  <speed>0.03</speed>
  <fix>3d</fix>
</trkpt>
<trkpt lat="33.8103065" lon="-118.3939239">
  <ele>-5.609</ele>
  <time>2026-09-02T22:12:43Z</time>
  <course>358.76</course>
  <speed>0.07</speed>
  <fix>3d</fix>
</trkpt>
<trkpt lat="33.8103069" lon="-118.3939242">
  <ele>-5.43</ele>
  <time>2026-09-02T22:12:43Z</time>
  <course>231.31</course>
  <speed>0.03</speed>
  <fix>3d</fix>
</trkpt>
<trkpt lat="33.8103065" lon="-118.393924">
  <ele>-5.598</ele>
  <time>2026-09-02T22:12:43Z</time>
  <course>358.73</course>
  <speed>0.07</speed>
  <fix>3d</fix>
</trkpt>
<trkpt lat="33.8103069" lon="-118.3939242">
  <ele>-5.43</ele>
  <time>2026-09-02T22:12:43Z</time>
  <course>231.31</course>
  <speed>0.03</speed>
  <fix>3d</fix>
</trkpt>
<trkpt lat="33.8103064" lon="-118.393924">
  <ele>-5.587</ele>
  <time>2026-09-02T22:12:43Z</time>
  <course>358.7</course>
  <speed>0.07</speed>
  <fix>3d</fix>
</trkpt>
<trkpt lat="33.8103068" lon="-118.3939243">
  <ele>-5.42</ele>
  <time>2026-09-02T22:12:43Z</time>
  <course>230.88</course>
  <speed>0.03</speed>
  <fix>3d</fix>
</trkpt>
<trkpt lat="33.4368002" lon="-117.0859339">
  <ele>-0.11</ele>
  <time>2026-09-02T22:12:43Z</time>
  <course>0.0</course>
  <speed>0.0</speed>
  <fix>3d</fix>
</trkpt>
<trkpt lat="33.4368002" lon="-117.0859339">
  <ele>-0.11</ele>
  <time>2026-09-02T22:12:43Z</time>
  <course>0.0</course>
  <speed>0.0</speed>
  <fix>3d</fix>
</trkpt>
<trkpt lat="33.810313" lon="-118.393867">
  <ele>0.0</ele>
  <time>2026-09-02T22:12:43Z</time>
  <course>173.5</course>
  <speed>0.0</speed>
  <fix>3d</fix>
</trkpt>
<trkpt lat="33.810313" lon="-118.393867">
  <ele>-0.11</ele>
  <time>2026-09-02T22:12:43Z</time>
  <course>0.0</course>
  <speed>0.0</speed>
  <fix>3d</fix>
</trkpt>
<trkpt lat="33.4368002" lon="-117.0859339">
  <ele>-0.11</ele>
  <time>2026-09-02T22:12:44Z</time>
  <course>0.0</course>
  <speed>0.0</speed>
  <fix>3d</fix>
</trkpt>
<trkpt lat="33.4368002" lon="-117.0859339">
  <ele>-0.11</ele>
  <time>2026-09-02T22:12:44Z</time>
  <course>0.0</course>
  <speed>0.0</speed>
  <fix>3d</fix>
</trkpt>
<trkpt lat="33.810313" lon="-118.393867">
  <ele>0.0</ele>
  <time>2026-09-02T22:12:44Z</time>
  <course>173.5</course>
  <speed>0.0</speed>
  <fix>3d</fix>
</trkpt>
<trkpt lat="33.810313" lon="-118.393867">
  <ele>-0.11</ele>
  <time>2026-09-02T22:12:44Z</time>
  <course>0.0</course>
  <speed>0.0</speed>
  <fix>3d</fix>
</trkpt>
<trkpt lat="33.810313" lon="-118.393867">
  <ele>0.0</ele>
  <time>2026-09-02T22:12:44Z</time>
  <course>173.61</course>
  <speed>0.0</speed>
  <fix>3d</fix>
</trkpt>
<trkpt lat="33.810313" lon="-118.393867">
  <ele>-0.11</ele>
  <time>2026-09-02T22:12:44Z</time>
  <course>0.0</course>
  <speed>0.0</speed>
  <fix>3d</fix>
</trkpt>
<trkpt lat="33.810313" lon="-118.393867">
  <ele>0.0</ele>
  <time>2026-09-02T22:12:44Z</time>
  <course>173.98</course>
  <speed>0.0</speed>
  <fix>3d</fix>
</trkpt>
<trkpt lat="33.810313" lon="-118.393867">
  <ele>-0.11</ele>
  <time>2026-09-02T22:12:44Z</time>
  <course>0.0</course>
  <speed>0.0</speed>
  <fix>3d</fix>
</trkpt>
<trkpt lat="33.810313" lon="-118.393867">
  <ele>0.0</ele>
  <time>2026-09-02T22:12:44Z</time>
  <course>174.51</course>
  <speed>0.0</speed>
  <fix>3d</fix>
</trkpt>
<trkpt lat="33.810313" lon="-118.393867">
  <ele>-0.11</ele>
  <time>2026-09-02T22:12:44Z</time>
  <course>0.0</course>
  <speed>0.0</speed>
  <fix>3d</fix>
</trkpt>
<trkpt lat="33.810313" lon="-118.393867">
  <ele>0.0</ele>
  <time>2026-09-02T22:12:44Z</time>
  <course>175.07</course>
  <speed>0.0</speed>
  <fix>3d</fix>
</trkpt>
<trkpt lat="33.810313" lon="-118.393867">
  <ele>-0.12</ele>
  <time>2026-09-02T22:12:44Z</time>
  <course>0.0</course>
  <speed>0.0</speed>
  <fix>3d</fix>
</trkpt>
<trkpt lat="33.810313" lon="-118.393867">
  <ele>0.0</ele>
  <time>2026-09-02T22:12:44Z</time>
  <course>175.61</course>
  <speed>0.0</speed>
  <fix>3d</fix>
</trkpt>
<trkpt lat="33.810313" lon="-118.393867">
  <ele>-0.12</ele>
  <time>2026-09-02T22:12:44Z</time>
  <course>0.0</course>
  <speed>0.0</speed>
  <fix>3d</fix>
</trkpt>
<trkpt lat="33.810313" lon="-118.393867">
  <ele>0.0</ele>
  <time>2026-09-02T22:12:44Z</time>
  <course>176.12</course>
  <speed>0.0</speed>
  <fix>3d</fix>
</trkpt>
<trkpt lat="33.810313" lon="-118.393867">
  <ele>-0.13</ele>
  <time>2026-09-02T22:12:44Z</time>
  <course>0.0</course>
  <speed>0.0</speed>
  <fix>3d</fix>
</trkpt>
<trkpt lat="33.810313" lon="-118.393867">
  <ele>0.0</ele>
  <time>2026-09-02T22:12:44Z</time>
  <course>176.6</course>
  <speed>0.0</speed>
  <fix>3d</fix>
</trkpt>
<trkpt lat="33.810313" lon="-118.393867">
  <ele>-0.13</ele>
  <time>2026-09-02T22:12:44Z</time>
  <course>0.0</course>
  <speed>0.0</speed>
  <fix>3d</fix>
</trkpt>
<trkpt lat="33.810313" lon="-118.393867">
  <ele>0.0</ele>
  <time>2026-09-02T22:12:44Z</time>
  <course>177.07</course>
  <speed>0.0</speed>
  <fix>3d</fix>
</trkpt>
<trkpt lat="33.810313" lon="-118.393867">
  <ele>-0.13</ele>
  <time>2026-09-02T22:12:44Z</time>
  <course>0.0</course>
  <speed>0.0</speed>
  <fix>3d</fix>
</trkpt>
<trkpt lat="33.810313" lon="-118.393867">
  <ele>0.0</ele>
  <time>2026-09-02T22:12:44Z</time>
  <course>177.53</course>
  <speed>0.0</speed>
  <fix>3d</fix>
</trkpt>
<trkpt lat="33.810313" lon="-118.393867">
  <ele>-0.13</ele>
  <time>2026-09-02T22:12:44Z</time>
  <course>0.0</course>
  <speed>0.0</speed>
  <fix>3d</fix>
</trkpt>
<trkpt lat="33.810313" lon="-118.393867">
  <ele>0.0</ele>
  <time>2026-09-02T22:12:44Z</time>
  <course>177.97</course>
  <speed>0.0</speed>
  <fix>3d</fix>
</trkpt>
<trkpt lat="33.810313" lon="-118.393867">
  <ele>-0.14</ele>
  <time>2026-09-02T22:12:44Z</time>
  <course>0.0</course>
  <speed>0.0</speed>
  <fix>3d</fix>
</trkpt>
<trkpt lat="33.810313" lon="-118.393867">
  <ele>0.0</ele>
  <time>2026-09-02T22:12:44Z</time>
  <course>178.4</course>
  <speed>0.0</speed>
  <fix>3d</fix>
</trkpt>
<trkpt lat="33.810313" lon="-118.393867">
  <ele>-0.14</ele>
  <time>2026-09-02T22:12:44Z</time>
  <course>0.0</course>
  <speed>0.0</speed>
  <fix>3d</fix>
</trkpt>
<trkpt lat="33.810313" lon="-118.393867">
  <ele>0.0</ele>
  <time>2026-09-02T22:12:44Z</time>
  <course>178.82</course>
  <speed>0.0</speed>
  <fix>3d</fix>
</trkpt>
<trkpt lat="33.810313" lon="-118.393867">
  <ele>-0.14</ele>
  <time>2026-09-02T22:12:44Z</time>
  <course>0.0</course>
  <speed>0.0</speed>
  <fix>3d</fix>
</trkpt>
<trkpt lat="33.810313" lon="-118.393867">
  <ele>0.0</ele>
  <time>2026-09-02T22:12:44Z</time>
  <course>179.23</course>
  <speed>0.0</speed>
  <fix>3d</fix>
</trkpt>
<trkpt lat="33.810313" lon="-118.393867">
  <ele>-0.14</ele>
  <time>2026-09-02T22:12:44Z</time>
  <course>0.0</course>
  <speed>0.0</speed>
  <fix>3d</fix>
</trkpt>
<trkpt lat="33.810313" lon="-118.393867">
  <ele>0.0</ele>
  <time>2026-09-02T22:12:44Z</time>
  <course>179.62</course>
  <speed>0.0</speed>
  <fix>3d</fix>
</trkpt>
<trkpt lat="33.810313" lon="-118.393867">
  <ele>-0.14</ele>
  <time>2026-09-02T22:12:44Z</time>
  <course>0.0</course>
  <speed>0.0</speed>
  <fix>3d</fix>
</trkpt>
<trkpt lat="33.810313" lon="-118.393867">
  <ele>0.0</ele>
  <time>2026-09-02T22:12:44Z</time>
  <course>180.01</course>
  <speed>0.0</speed>
  <fix>3d</fix>
</trkpt>
<trkpt lat="33.810313" lon="-118.393867">
  <ele>-0.14</ele>
  <time>2026-09-02T22:12:44Z</time>
  <course>0.0</course>
  <speed>0.0</speed>
  <fix>3d</fix>
</trkpt>
<trkpt lat="33.810313" lon="-118.393867">
  <ele>0.0</ele>
  <time>2026-09-02T22:12:44Z</time>
  <course>180.37</course>
  <speed>0.0</speed>
  <fix>3d</fix>
</trkpt>
<trkpt lat="33.810313" lon="-118.393867">
  <ele>-0.14</ele>
  <time>2026-09-02T22:12:44Z</time>
  <course>0.0</course>
  <speed>0.0</speed>
  <fix>3d</fix>
</trkpt>
<trkpt lat="33.810313" lon="-118.393867">
  <ele>0.0</ele>
  <time>2026-09-02T22:12:44Z</time>
  <course>180.73</course>
  <speed>0.0</speed>
  <fix>3d</fix>
</trkpt>
<trkpt lat="33.810313" lon="-118.393867">
  <ele>-0.14</ele>
  <time>2026-09-02T22:12:44Z</time>
  <course>0.0</course>
  <speed>0.0</speed>
  <fix>3d</fix>
</trkpt>
<trkpt lat="33.810313" lon="-118.393867">
  <ele>0.0</ele>
  <time>2026-09-02T22:12:44Z</time>
  <course>181.07</course>
  <speed>0.0</speed>
  <fix>3d</fix>
</trkpt>
<trkpt lat="33.810313" lon="-118.393867">
  <ele>-0.13</ele>
  <time>2026-09-02T22:12:44Z</time>
  <course>0.0</course>
  <speed>0.0</speed>
  <fix>3d</fix>
</trkpt>
<trkpt lat="33.810313" lon="-118.393867">
  <ele>0.0</ele>
  <time>2026-09-02T22:12:44Z</time>
  <course>181.4</course>
  <speed>0.0</speed>
  <fix>3d</fix>
</trkpt>
<trkpt lat="33.810313" lon="-118.393867">
  <ele>-0.13</ele>
  <time>2026-09-02T22:12:44Z</time>
  <course>0.0</course>
  <speed>0.0</speed>
  <fix>3d</fix>
</trkpt>
<trkpt lat="33.810313" lon="-118.393867">
  <ele>0.0</ele>
  <time>2026-09-02T22:12:44Z</time>
  <course>181.72</course>
  <speed>0.0</speed>
  <fix>3d</fix>
</trkpt>
<trkpt lat="33.810313" lon="-118.393867">
  <ele>-0.12</ele>
  <time>2026-09-02T22:12:44Z</time>
  <course>0.0</course>
  <speed>0.0</speed>
  <fix>3d</fix>
</trkpt>
<trkpt lat="33.810313" lon="-118.393867">
  <ele>0.0</ele>
  <time>2026-09-02T22:12:44Z</time>
  <course>182.02</course>
  <speed>0.0</speed>
  <fix>3d</fix>
</trkpt>
<trkpt lat="33.810313" lon="-118.393867">
  <ele>-0.12</ele>
  <time>2026-09-02T22:12:44Z</time>
  <course>0.0</course>
  <speed>0.0</speed>
  <fix>3d</fix>
</trkpt>
<trkpt lat="33.810313" lon="-118.393867">
  <ele>0.0</ele>
  <time>2026-09-02T22:12:44Z</time>
  <course>182.32</course>
  <speed>0.0</speed>
  <fix>3d</fix>
</trkpt>
<trkpt lat="33.810313" lon="-118.393867">
  <ele>-0.12</ele>
  <time>2026-09-02T22:12:44Z</time>
  <course>0.0</course>
  <speed>0.0</speed>
  <fix>3d</fix>
</trkpt>
<trkpt lat="33.810313" lon="-118.393867">
  <ele>0.0</ele>
  <time>2026-09-02T22:12:44Z</time>
  <course>182.6</course>
  <speed>0.0</speed>
  <fix>3d</fix>
</trkpt>
<trkpt lat="33.810313" lon="-118.393867">
  <ele>-0.12</ele>
  <time>2026-09-02T22:12:44Z</time>
  <course>0.0</course>
  <speed>0.0</speed>
  <fix>3d</fix>
</trkpt>
<trkpt lat="33.810313" lon="-118.393867">
  <ele>0.0</ele>
  <time>2026-09-02T22:12:44Z</time>
  <course>182.87</course>
  <speed>0.0</speed>
  <fix>3d</fix>
</trkpt>
<trkpt lat="33.810313" lon="-118.393867">
  <ele>-0.11</ele>
  <time>2026-09-02T22:12:44Z</time>
  <course>0.0</course>
  <speed>0.0</speed>
  <fix>3d</fix>
</trkpt>
<trkpt lat="33.810313" lon="-118.393867">
  <ele>0.0</ele>
  <time>2026-09-02T22:12:44Z</time>
  <course>183.13</course>
  <speed>0.0</speed>
  <fix>3d</fix>
</trkpt>
<trkpt lat="33.810313" lon="-118.393867">
  <ele>-0.11</ele>
  <time>2026-09-02T22:12:44Z</time>
  <course>0.0</course>
  <speed>0.0</speed>
  <fix>3d</fix>
</trkpt>
<trkpt lat="33.810313" lon="-118.393867">
  <ele>0.0</ele>
  <time>2026-09-02T22:12:44Z</time>
  <course>183.39</course>
  <speed>0.0</speed>
  <fix>3d</fix>
</trkpt>
<trkpt lat="33.810313" lon="-118.393867">
  <ele>-0.11</ele>
  <time>2026-09-02T22:12:44Z</time>
  <course>0.0</course>
  <speed>0.0</speed>
  <fix>3d</fix>
</trkpt>
<trkpt lat="33.810313" lon="-118.393867">
  <ele>0.0</ele>
  <time>2026-09-02T22:12:44Z</time>
  <course>183.63</course>
  <speed>0.0</speed>
  <fix>3d</fix>
</trkpt>
<trkpt lat="33.810313" lon="-118.393867">
  <ele>-0.11</ele>
  <time>2026-09-02T22:12:44Z</time>
  <course>0.0</course>
  <speed>0.0</speed>
  <fix>3d</fix>
</trkpt>
<trkpt lat="33.810313" lon="-118.393867">
  <ele>0.0</ele>
  <time>2026-09-02T22:12:44Z</time>
  <course>183.86</course>
  <speed>0.0</speed>
  <fix>3d</fix>
</trkpt>
<trkpt lat="33.810313" lon="-118.393867">
  <ele>-0.12</ele>
  <time>2026-09-02T22:12:44Z</time>
  <course>0.0</course>
  <speed>0.0</speed>
  <fix>3d</fix>
</trkpt>
<trkpt lat="33.810313" lon="-118.393867">
  <ele>0.0</ele>
  <time>2026-09-02T22:12:44Z</time>
  <course>184.08</course>
  <speed>0.0</speed>
  <fix>3d</fix>
</trkpt>
<trkpt lat="33.810313" lon="-118.393867">
  <ele>-0.12</ele>
  <time>2026-09-02T22:12:44Z</time>
  <course>0.0</course>
  <speed>0.0</speed>
  <fix>3d</fix>
</trkpt>
<trkpt lat="33.810313" lon="-118.393867">
  <ele>0.0</ele>
  <time>2026-09-02T22:12:44Z</time>
  <course>184.3</course>
  <speed>0.0</speed>
  <fix>3d</fix>
</trkpt>
<trkpt lat="33.810313" lon="-118.393867">
  <ele>-0.13</ele>
  <time>2026-09-02T22:12:44Z</time>
  <course>0.0</course>
  <speed>0.0</speed>
  <fix>3d</fix>
</trkpt>
<trkpt lat="33.810313" lon="-118.393867">
  <ele>0.0</ele>
  <time>2026-09-02T22:12:44Z</time>
  <course>184.5</course>
  <speed>0.0</speed>
  <fix>3d</fix>
</trkpt>
<trkpt lat="33.810313" lon="-118.393867">
  <ele>-0.13</ele>
  <time>2026-09-02T22:12:44Z</time>
  <course>0.0</course>
  <speed>0.0</speed>
  <fix>3d</fix>
</trkpt>
<trkpt lat="33.810313" lon="-118.393867">
  <ele>0.0</ele>
  <time>2026-09-02T22:12:44Z</time>
  <course>184.7</course>
  <speed>0.0</speed>
  <fix>3d</fix>
</trkpt>
<trkpt lat="33.810313" lon="-118.393867">
  <ele>-0.13</ele>
  <time>2026-09-02T22:12:44Z</time>
  <course>0.0</course>
  <speed>0.0</speed>
  <fix>3d</fix>
</trkpt>
<trkpt lat="33.810313" lon="-118.393867">
  <ele>0.0</ele>
  <time>2026-09-02T22:12:44Z</time>
  <course>184.89</course>
  <speed>0.0</speed>
  <fix>3d</fix>
</trkpt>
<trkpt lat="33.810313" lon="-118.393867">
  <ele>-0.13</ele>
  <time>2026-09-02T22:12:44Z</time>
  <course>0.0</course>
  <speed>0.0</speed>
  <fix>3d</fix>
</trkpt>
<trkpt lat="33.810313" lon="-118.393867">
  <ele>0.0</ele>
  <time>2026-09-02T22:12:44Z</time>
  <course>185.07</course>
  <speed>0.0</speed>
  <fix>3d</fix>
</trkpt>
<trkpt lat="33.810313" lon="-118.393867">
  <ele>-0.14</ele>
  <time>2026-09-02T22:12:44Z</time>
  <course>0.0</course>
  <speed>0.0</speed>
  <fix>3d</fix>
</trkpt>
<trkpt lat="33.810313" lon="-118.393867">
  <ele>0.0</ele>
  <time>2026-09-02T22:12:44Z</time>
  <course>185.24</course>
  <speed>0.0</speed>
  <fix>3d</fix>
</trkpt>
<trkpt lat="33.810313" lon="-118.393867">
  <ele>-0.14</ele>
  <time>2026-09-02T22:12:44Z</time>
  <course>0.0</course>
  <speed>0.0</speed>
  <fix>3d</fix>
</trkpt>
<trkpt lat="33.810313" lon="-118.393867">
  <ele>0.0</ele>
  <time>2026-09-02T22:12:44Z</time>
  <course>185.41</course>
  <speed>0.0</speed>
  <fix>3d</fix>
</trkpt>
<trkpt lat="33.810313" lon="-118.393867">
  <ele>-0.13</ele>
  <time>2026-09-02T22:12:44Z</time>
  <course>0.0</course>
  <speed>0.0</speed>
  <fix>3d</fix>
</trkpt>
<trkpt lat="33.810313" lon="-118.393867">
  <ele>0.0</ele>
  <time>2026-09-02T22:12:44Z</time>
  <course>185.57</course>
  <speed>0.0</speed>
  <fix>3d</fix>
</trkpt>
<trkpt lat="33.810313" lon="-118.393867">
  <ele>-0.13</ele>
  <time>2026-09-02T22:12:44Z</time>
  <course>0.0</course>
  <speed>0.0</speed>
  <fix>3d</fix>
</trkpt>
<trkpt lat="33.810313" lon="-118.393867">
  <ele>0.0</ele>
  <time>2026-09-02T22:12:44Z</time>
  <course>185.72</course>
  <speed>0.0</speed>
  <fix>3d</fix>
</trkpt>
<trkpt lat="33.810313" lon="-118.393867">
  <ele>-0.13</ele>
  <time>2026-09-02T22:12:44Z</time>
  <course>0.0</course>
  <speed>0.0</speed>
  <fix>3d</fix>
</trkpt>
<trkpt lat="33.810313" lon="-118.393867">
  <ele>0.0</ele>
  <time>2026-09-02T22:12:44Z</time>
  <course>185.86</course>
  <speed>0.0</speed>
  <fix>3d</fix>
</trkpt>
<trkpt lat="33.810313" lon="-118.393867">
  <ele>-0.13</ele>
  <time>2026-09-02T22:12:44Z</time>
  <course>0.0</course>
  <speed>0.0</speed>
  <fix>3d</fix>
</trkpt>
<trkpt lat="33.810313" lon="-118.393867">
  <ele>0.0</ele>
  <time>2026-09-02T22:12:44Z</time>
  <course>186.0</course>
  <speed>0.0</speed>
  <fix>3d</fix>
</trkpt>
<trkpt lat="33.810313" lon="-118.393867">
  <ele>-0.12</ele>
  <time>2026-09-02T22:12:44Z</time>
  <course>0.0</course>
  <speed>0.0</speed>
  <fix>3d</fix>
</trkpt>
<trkpt lat="33.810313" lon="-118.393867">
  <ele>0.0</ele>
  <time>2026-09-02T22:12:44Z</time>
  <course>186.13</course>
  <speed>0.0</speed>
  <fix>3d</fix>
</trkpt>
<trkpt lat="33.810313" lon="-118.393867">
  <ele>-0.12</ele>
  <time>2026-09-02T22:12:44Z</time>
  <course>0.0</course>
  <speed>0.0</speed>
  <fix>3d</fix>
</trkpt>
<trkpt lat="33.810313" lon="-118.393867">
  <ele>0.0</ele>
  <time>2026-09-02T22:12:44Z</time>
  <course>186.26</course>
  <speed>0.0</speed>
  <fix>3d</fix>
</trkpt>
<trkpt lat="33.810313" lon="-118.393867">
  <ele>-0.12</ele>
  <time>2026-09-02T22:12:44Z</time>
  <course>0.0</course>
  <speed>0.0</speed>
  <fix>3d</fix>
</trkpt>
<trkpt lat="33.810313" lon="-118.393867">
  <ele>0.0</ele>
  <time>2026-09-02T22:12:44Z</time>
  <course>186.38</course>
  <speed>0.0</speed>
  <fix>3d</fix>
</trkpt>
<trkpt lat="33.810313" lon="-118.393867">
  <ele>-0.12</ele>
  <time>2026-09-02T22:12:44Z</time>
  <course>0.0</course>
  <speed>0.0</speed>
  <fix>3d</fix>
</trkpt>
<trkpt lat="33.810313" lon="-118.393867">
  <ele>0.0</ele>
  <time>2026-09-02T22:12:44Z</time>
  <course>186.49</course>
  <speed>0.0</speed>
  <fix>3d</fix>
</trkpt>
<trkpt lat="33.810313" lon="-118.393867">
  <ele>-0.12</ele>
  <time>2026-09-02T22:12:44Z</time>
  <course>0.0</course>
  <speed>0.0</speed>
  <fix>3d</fix>
</trkpt>
<trkpt lat="33.810313" lon="-118.393867">
  <ele>0.0</ele>
  <time>2026-09-02T22:12:44Z</time>
  <course>186.6</course>
  <speed>0.0</speed>
  <fix>3d</fix>
</trkpt>
<trkpt lat="33.810313" lon="-118.393867">
  <ele>-0.12</ele>
  <time>2026-09-02T22:12:44Z</time>
  <course>0.0</course>
  <speed>0.0</speed>
  <fix>3d</fix>
</trkpt>
<trkpt lat="33.810313" lon="-118.393867">
  <ele>0.0</ele>
  <time>2026-09-02T22:12:44Z</time>
  <course>186.71</course>
  <speed>0.0</speed>
  <fix>3d</fix>
</trkpt>
<trkpt lat="33.810313" lon="-118.393867">
  <ele>-0.12</ele>
  <time>2026-09-02T22:12:44Z</time>
  <course>0.0</course>
  <speed>0.0</speed>
  <fix>3d</fix>
</trkpt>
<trkpt lat="33.810313" lon="-118.393867">
  <ele>0.0</ele>
  <time>2026-09-02T22:12:44Z</time>
  <course>186.81</course>
  <speed>0.0</speed>
  <fix>3d</fix>
</trkpt>
<trkpt lat="33.810313" lon="-118.393867">
  <ele>-0.12</ele>
  <time>2026-09-02T22:12:44Z</time>
  <course>0.0</course>
  <speed>0.0</speed>
  <fix>3d</fix>
</trkpt>
<trkpt lat="33.810313" lon="-118.393867">
  <ele>0.0</ele>
  <time>2026-09-02T22:12:44Z</time>
  <course>186.9</course>
  <speed>0.0</speed>
  <fix>3d</fix>
</trkpt>
<trkpt lat="33.810313" lon="-118.393867">
  <ele>-0.12</ele>
  <time>2026-09-02T22:12:44Z</time>
  <course>0.0</course>
  <speed>0.0</speed>
  <fix>3d</fix>
</trkpt>
<trkpt lat="33.810313" lon="-118.393867">
  <ele>0.0</ele>
  <time>2026-09-02T22:12:44Z</time>
  <course>187.0</course>
  <speed>0.0</speed>
  <fix>3d</fix>
</trkpt>
<trkpt lat="33.810313" lon="-118.393867">
  <ele>-0.12</ele>
  <time>2026-09-02T22:12:44Z</time>
  <course>0.0</course>
  <speed>0.0</speed>
  <fix>3d</fix>
</trkpt>
<trkpt lat="33.810313" lon="-118.393867">
  <ele>0.0</ele>
  <time>2026-09-02T22:12:44Z</time>
  <course>187.08</course>
  <speed>0.0</speed>
  <fix>3d</fix>
</trkpt>
<trkpt lat="33.810313" lon="-118.393867">
  <ele>-0.13</ele>
  <time>2026-09-02T22:12:44Z</time>
  <course>0.0</course>
  <speed>0.0</speed>
  <fix>3d</fix>
</trkpt>
<trkpt lat="33.810313" lon="-118.393867">
  <ele>0.0</ele>
  <time>2026-09-02T22:12:44Z</time>
  <course>187.17</course>
  <speed>0.0</speed>
  <fix>3d</fix>
</trkpt>
<trkpt lat="33.810313" lon="-118.393867">
  <ele>-0.13</ele>
  <time>2026-09-02T22:12:44Z</time>
  <course>0.0</course>
  <speed>0.0</speed>
  <fix>3d</fix>
</trkpt>
<trkpt lat="33.810313" lon="-118.393867">
  <ele>0.0</ele>
  <time>2026-09-02T22:12:44Z</time>
  <course>187.24</course>
  <speed>0.0</speed>
  <fix>3d</fix>
</trkpt>
<trkpt lat="33.810313" lon="-118.393867">
  <ele>-0.13</ele>
  <time>2026-09-02T22:12:44Z</time>
  <course>0.0</course>
  <speed>0.0</speed>
  <fix>3d</fix>
</trkpt>
<trkpt lat="33.810313" lon="-118.393867">
  <ele>0.0</ele>
  <time>2026-09-02T22:12:44Z</time>
  <course>187.32</course>
  <speed>0.0</speed>
  <fix>3d</fix>
</trkpt>
<trkpt lat="33.810313" lon="-118.393867">
  <ele>-0.13</ele>
  <time>2026-09-02T22:12:44Z</time>
  <course>0.0</course>
  <speed>0.0</speed>
  <fix>3d</fix>
</trkpt>
<trkpt lat="33.810313" lon="-118.393867">
  <ele>0.0</ele>
  <time>2026-09-02T22:12:44Z</time>
  <course>187.39</course>
  <speed>0.0</speed>
  <fix>3d</fix>
</trkpt>
<trkpt lat="33.810313" lon="-118.393867">
  <ele>-0.13</ele>
  <time>2026-09-02T22:12:44Z</time>
  <course>0.0</course>
  <speed>0.0</speed>
  <fix>3d</fix>
</trkpt>
<trkpt lat="33.810313" lon="-118.393867">
  <ele>0.0</ele>
  <time>2026-09-02T22:12:44Z</time>
  <course>187.46</course>
  <speed>0.0</speed>
  <fix>3d</fix>
</trkpt>
<trkpt lat="33.810313" lon="-118.393867">
  <ele>-0.13</ele>
  <time>2026-09-02T22:12:44Z</time>
  <course>0.0</course>
  <speed>0.0</speed>
  <fix>3d</fix>
</trkpt>
<trkpt lat="33.810313" lon="-118.393867">
  <ele>0.0</ele>
  <time>2026-09-02T22:12:44Z</time>
  <course>187.53</course>
  <speed>0.0</speed>
  <fix>3d</fix>
</trkpt>
<trkpt lat="33.810313" lon="-118.393867">
  <ele>-0.13</ele>
  <time>2026-09-02T22:12:44Z</time>
  <course>0.0</course>
  <speed>0.0</speed>
  <fix>3d</fix>
</trkpt>
<trkpt lat="33.810313" lon="-118.393867">
  <ele>0.0</ele>
  <time>2026-09-02T22:12:44Z</time>
  <course>187.59</course>
  <speed>0.0</speed>
  <fix>3d</fix>
</trkpt>
<trkpt lat="33.810313" lon="-118.393867">
  <ele>-0.13</ele>
  <time>2026-09-02T22:12:44Z</time>
  <course>0.0</course>
  <speed>0.0</speed>
  <fix>3d</fix>
</trkpt>
<trkpt lat="33.810313" lon="-118.393867">
  <ele>0.0</ele>
  <time>2026-09-02T22:12:44Z</time>
  <course>187.65</course>
  <speed>0.0</speed>
  <fix>3d</fix>
</trkpt>
<trkpt lat="33.810313" lon="-118.393867">
  <ele>-0.12</ele>
  <time>2026-09-02T22:12:44Z</time>
  <course>0.0</course>
  <speed>0.0</speed>
  <fix>3d</fix>
</trkpt>
<trkpt lat="33.810313" lon="-118.393867">
  <ele>0.0</ele>
  <time>2026-09-02T22:12:44Z</time>
  <course>187.7</course>
  <speed>0.0</speed>
  <fix>3d</fix>
</trkpt>
<trkpt lat="33.810313" lon="-118.393867">
  <ele>-0.12</ele>
  <time>2026-09-02T22:12:44Z</time>
  <course>0.0</course>
  <speed>0.0</speed>
  <fix>3d</fix>
</trkpt>
<trkpt lat="33.810313" lon="-118.393867">
  <ele>0.0</ele>
  <time>2026-09-02T22:12:44Z</time>
  <course>187.76</course>
  <speed>0.0</speed>
  <fix>3d</fix>
</trkpt>
<trkpt lat="33.810313" lon="-118.393867">
  <ele>-0.12</ele>
  <time>2026-09-02T22:12:44Z</time>
  <course>0.0</course>
  <speed>0.0</speed>
  <fix>3d</fix>
</trkpt>
<trkpt lat="33.810313" lon="-118.393867">
  <ele>0.0</ele>
  <time>2026-09-02T22:12:44Z</time>
  <course>187.81</course>
  <speed>0.0</speed>
  <fix>3d</fix>
</trkpt>
<trkpt lat="33.810313" lon="-118.393867">
  <ele>-0.12</ele>
  <time>2026-09-02T22:12:44Z</time>
  <course>0.0</course>
  <speed>0.0</speed>
  <fix>3d</fix>
</trkpt>
<trkpt lat="33.810313" lon="-118.393867">
  <ele>0.0</ele>
  <time>2026-09-02T22:12:44Z</time>
  <course>187.86</course>
  <speed>0.0</speed>
  <fix>3d</fix>
</trkpt>
<trkpt lat="33.810313" lon="-118.393867">
  <ele>-0.12</ele>
  <time>2026-09-02T22:12:44Z</time>
  <course>0.0</course>
  <speed>0.0</speed>
  <fix>3d</fix>
</trkpt>
<trkpt lat="33.810313" lon="-118.393867">
  <ele>0.0</ele>
  <time>2026-09-02T22:12:44Z</time>
  <course>187.9</course>
  <speed>0.0</speed>
  <fix>3d</fix>
</trkpt>
<trkpt lat="33.810313" lon="-118.393867">
  <ele>-0.12</ele>
  <time>2026-09-02T22:12:44Z</time>
  <course>0.0</course>
  <speed>0.0</speed>
  <fix>3d</fix>
</trkpt>
<trkpt lat="33.810313" lon="-118.393867">
  <ele>0.0</ele>
  <time>2026-09-02T22:12:44Z</time>
  <course>187.95</course>
  <speed>0.0</speed>
  <fix>3d</fix>
</trkpt>
<trkpt lat="33.810313" lon="-118.393867">
  <ele>-0.12</ele>
  <time>2026-09-02T22:12:44Z</time>
  <course>0.0</course>
  <speed>0.0</speed>
  <fix>3d</fix>
</trkpt>
<trkpt lat="33.810313" lon="-118.393867">
  <ele>0.0</ele>
  <time>2026-09-02T22:12:44Z</time>
  <course>187.99</course>
  <speed>0.0</speed>
  <fix>3d</fix>
</trkpt>
<trkpt lat="33.810313" lon="-118.393867">
  <ele>-0.12</ele>
  <time>2026-09-02T22:12:44Z</time>
  <course>0.0</course>
  <speed>0.0</speed>
  <fix>3d</fix>
</trkpt>
<trkpt lat="33.810313" lon="-118.393867">
  <ele>0.0</ele>
  <time>2026-09-02T22:12:44Z</time>
  <course>188.02</course>
  <speed>0.0</speed>
  <fix>3d</fix>
</trkpt>
<trkpt lat="33.810313" lon="-118.393867">
  <ele>-0.12</ele>
  <time>2026-09-02T22:12:44Z</time>
  <course>0.0</course>
  <speed>0.0</speed>
  <fix>3d</fix>
</trkpt>
<trkpt lat="33.810313" lon="-118.393867">
  <ele>0.0</ele>
  <time>2026-09-02T22:12:44Z</time>
  <course>188.06</course>
  <speed>0.0</speed>
  <fix>3d</fix>
</trkpt>
<trkpt lat="33.810313" lon="-118.393867">
  <ele>-0.12</ele>
  <time>2026-09-02T22:12:44Z</time>
  <course>0.0</course>
  <speed>0.0</speed>
  <fix>3d</fix>
</trkpt>
<trkpt lat="33.810313" lon="-118.393867">
  <ele>0.0</ele>
  <time>2026-09-02T22:12:44Z</time>
  <course>188.1</course>
  <speed>0.0</speed>
  <fix>3d</fix>
</trkpt>
<trkpt lat="33.810313" lon="-118.393867">
  <ele>-0.13</ele>
  <time>2026-09-02T22:12:44Z</time>
  <course>0.0</course>
  <speed>0.0</speed>
  <fix>3d</fix>
</trkpt>
<trkpt lat="33.810313" lon="-118.393867">
  <ele>0.0</ele>
  <time>2026-09-02T22:12:44Z</time>
  <course>188.13</course>
  <speed>0.0</speed>
  <fix>3d</fix>
</trkpt>
<trkpt lat="33.810313" lon="-118.393867">
  <ele>-0.13</ele>
  <time>2026-09-02T22:12:44Z</time>
  <course>0.0</course>
  <speed>0.0</speed>
  <fix>3d</fix>
</trkpt>
<trkpt lat="33.810313" lon="-118.393867">
  <ele>0.0</ele>
  <time>2026-09-02T22:12:44Z</time>
  <course>188.16</course>
  <speed>0.0</speed>
  <fix>3d</fix>
</trkpt>
<trkpt lat="33.810313" lon="-118.393867">
  <ele>-0.13</ele>
  <time>2026-09-02T22:12:44Z</time>
  <course>0.0</course>
  <speed>0.0</speed>
  <fix>3d</fix>
</trkpt>
<trkpt lat="33.810313" lon="-118.393867">
  <ele>0.0</ele>
  <time>2026-09-02T22:12:44Z</time>
  <course>188.19</course>
  <speed>0.0</speed>
  <fix>3d</fix>
</trkpt>
<trkpt lat="33.810313" lon="-118.393867">
  <ele>-0.13</ele>
  <time>2026-09-02T22:12:44Z</time>
  <course>0.0</course>
  <speed>0.0</speed>
  <fix>3d</fix>
</trkpt>
<trkpt lat="33.810313" lon="-118.393867">
  <ele>0.0</ele>
  <time>2026-09-02T22:12:44Z</time>
  <course>188.22</course>
  <speed>0.0</speed>
  <fix>3d</fix>
</trkpt>
<trkpt lat="33.810313" lon="-118.393867">
  <ele>-0.13</ele>
  <time>2026-09-02T22:12:44Z</time>
  <course>0.0</course>
  <speed>0.0</speed>
  <fix>3d</fix>
</trkpt>
<trkpt lat="33.810313" lon="-118.393867">
  <ele>0.0</ele>
  <time>2026-09-02T22:12:44Z</time>
  <course>188.24</course>
  <speed>0.0</speed>
  <fix>3d</fix>
</trkpt>
<trkpt lat="33.810313" lon="-118.393867">
  <ele>-0.13</ele>
  <time>2026-09-02T22:12:44Z</time>
  <course>0.0</course>
  <speed>0.0</speed>
  <fix>3d</fix>
</trkpt>
<trkpt lat="33.810313" lon="-118.393867">
  <ele>0.0</ele>
  <time>2026-09-02T22:12:44Z</time>
  <course>188.27</course>
  <speed>0.0</speed>
  <fix>3d</fix>
</trkpt>
<trkpt lat="33.810313" lon="-118.393867">
  <ele>-0.12</ele>
  <time>2026-09-02T22:12:44Z</time>
  <course>0.0</course>
  <speed>0.0</speed>
  <fix>3d</fix>
</trkpt>
<trkpt lat="33.810313" lon="-118.393867">
  <ele>0.0</ele>
  <time>2026-09-02T22:12:44Z</time>
  <course>188.29</course>
  <speed>0.0</speed>
  <fix>3d</fix>
</trkpt>
<trkpt lat="33.810313" lon="-118.393867">
  <ele>-0.12</ele>
  <time>2026-09-02T22:12:44Z</time>
  <course>0.0</course>
  <speed>0.0</speed>
  <fix>3d</fix>
</trkpt>
<trkpt lat="33.810313" lon="-118.393867">
  <ele>0.0</ele>
  <time>2026-09-02T22:12:44Z</time>
  <course>188.32</course>
  <speed>0.0</speed>
  <fix>3d</fix>
</trkpt>
<trkpt lat="33.810313" lon="-118.393867">
  <ele>-0.12</ele>
  <time>2026-09-02T22:12:44Z</time>
  <course>0.0</course>
  <speed>0.0</speed>
  <fix>3d</fix>
</trkpt>
<trkpt lat="33.810313" lon="-118.393867">
  <ele>0.0</ele>
  <time>2026-09-02T22:12:44Z</time>
  <course>188.34</course>
  <speed>0.0</speed>
  <fix>3d</fix>
</trkpt>
<trkpt lat="33.810313" lon="-118.393867">
  <ele>-0.12</ele>
  <time>2026-09-02T22:12:44Z</time>
  <course>0.0</course>
  <speed>0.0</speed>
  <fix>3d</fix>
</trkpt>
<trkpt lat="33.810313" lon="-118.393867">
  <ele>0.0</ele>
  <time>2026-09-02T22:12:44Z</time>
  <course>188.36</course>
  <speed>0.0</speed>
  <fix>3d</fix>
</trkpt>
<trkpt lat="33.810313" lon="-118.393867">
  <ele>-0.12</ele>
  <time>2026-09-02T22:12:44Z</time>
  <course>0.0</course>
  <speed>0.0</speed>
  <fix>3d</fix>
</trkpt>
<trkpt lat="33.810313" lon="-118.393867">
  <ele>0.0</ele>
  <time>2026-09-02T22:12:44Z</time>
  <course>188.37</course>
  <speed>0.0</speed>
  <fix>3d</fix>
</trkpt>
<trkpt lat="33.810313" lon="-118.393867">
  <ele>-0.12</ele>
  <time>2026-09-02T22:12:44Z</time>
  <course>0.0</course>
  <speed>0.0</speed>
  <fix>3d</fix>
</trkpt>
<trkpt lat="33.810313" lon="-118.393867">
  <ele>0.0</ele>
  <time>2026-09-02T22:12:44Z</time>
  <course>188.39</course>
  <speed>0.0</speed>
  <fix>3d</fix>
</trkpt>
<trkpt lat="33.810313" lon="-118.393867">
  <ele>-0.12</ele>
  <time>2026-09-02T22:12:44Z</time>
  <course>0.0</course>
  <speed>0.0</speed>
  <fix>3d</fix>
</trkpt>
<trkpt lat="33.810313" lon="-118.393867">
  <ele>0.0</ele>
  <time>2026-09-02T22:12:44Z</time>
  <course>188.41</course>
  <speed>0.0</speed>
  <fix>3d</fix>
</trkpt>
<trkpt lat="33.810313" lon="-118.393867">
  <ele>-0.12</ele>
  <time>2026-09-02T22:12:44Z</time>
  <course>0.0</course>
  <speed>0.0</speed>
  <fix>3d</fix>
</trkpt>
<trkpt lat="33.810313" lon="-118.393867">
  <ele>0.0</ele>
  <time>2026-09-02T22:12:44Z</time>
  <course>188.42</course>
  <speed>0.0</speed>
  <fix>3d</fix>
</trkpt>
<trkpt lat="33.810313" lon="-118.393867">
  <ele>-0.12</ele>
  <time>2026-09-02T22:12:44Z</time>
  <course>0.0</course>
  <speed>0.0</speed>
  <fix>3d</fix>
</trkpt>
<trkpt lat="33.810313" lon="-118.393867">
  <ele>0.0</ele>
  <time>2026-09-02T22:12:44Z</time>
  <course>188.44</course>
  <speed>0.0</speed>
  <fix>3d</fix>
</trkpt>
<trkpt lat="33.810313" lon="-118.393867">
  <ele>-0.12</ele>
  <time>2026-09-02T22:12:44Z</time>
  <course>0.0</course>
  <speed>0.0</speed>
  <fix>3d</fix>
</trkpt>
<trkpt lat="33.810313" lon="-118.393867">
  <ele>0.0</ele>
  <time>2026-09-02T22:12:44Z</time>
  <course>188.45</course>
  <speed>0.0</speed>
  <fix>3d</fix>
</trkpt>
<trkpt lat="33.810313" lon="-118.393867">
  <ele>-0.13</ele>
  <time>2026-09-02T22:12:44Z</time>
  <course>0.0</course>
  <speed>0.0</speed>
  <fix>3d</fix>
</trkpt>
<trkpt lat="33.810313" lon="-118.393867">
  <ele>0.0</ele>
  <time>2026-09-02T22:12:44Z</time>
  <course>188.46</course>
  <speed>0.0</speed>
  <fix>3d</fix>
</trkpt>
<trkpt lat="33.810313" lon="-118.393867">
  <ele>-0.13</ele>
  <time>2026-09-02T22:12:44Z</time>
  <course>0.0</course>
  <speed>0.0</speed>
  <fix>3d</fix>
</trkpt>
<trkpt lat="33.810313" lon="-118.393867">
  <ele>0.0</ele>
  <time>2026-09-02T22:12:44Z</time>
  <course>188.47</course>
  <speed>0.0</speed>
  <fix>3d</fix>
</trkpt>
<trkpt lat="33.810313" lon="-118.393867">
  <ele>-0.13</ele>
  <time>2026-09-02T22:12:44Z</time>
  <course>0.0</course>
  <speed>0.0</speed>
  <fix>3d</fix>
</trkpt>
<trkpt lat="33.810313" lon="-118.393867">
  <ele>0.0</ele>
  <time>2026-09-02T22:12:44Z</time>
  <course>188.48</course>
  <speed>0.0</speed>
  <fix>3d</fix>
</trkpt>
<trkpt lat="33.810313" lon="-118.393867">
  <ele>-0.13</ele>
  <time>2026-09-02T22:12:44Z</time>
  <course>0.0</course>
  <speed>0.0</speed>
  <fix>3d</fix>
</trkpt>
<trkpt lat="33.810313" lon="-118.393867">
  <ele>0.0</ele>
  <time>2026-09-02T22:12:44Z</time>
  <course>188.49</course>
  <speed>0.0</speed>
  <fix>3d</fix>
</trkpt>
<trkpt lat="33.810313" lon="-118.393867">
  <ele>-0.13</ele>
  <time>2026-09-02T22:12:44Z</time>
  <course>0.0</course>
  <speed>0.0</speed>
  <fix>3d</fix>
</trkpt>
<trkpt lat="33.810313" lon="-118.393867">
  <ele>0.0</ele>
  <time>2026-09-02T22:12:44Z</time>
  <course>188.5</course>
  <speed>0.0</speed>
  <fix>3d</fix>
</trkpt>
<trkpt lat="33.810313" lon="-118.393867">
  <ele>-0.13</ele>
  <time>2026-09-02T22:12:44Z</time>
  <course>0.0</course>
  <speed>0.0</speed>
  <fix>3d</fix>
</trkpt>
<trkpt lat="33.810313" lon="-118.393867">
  <ele>0.0</ele>
  <time>2026-09-02T22:12:44Z</time>
  <course>188.51</course>
  <speed>0.0</speed>
  <fix>3d</fix>
</trkpt>
<trkpt lat="33.810313" lon="-118.393867">
  <ele>-0.12</ele>
  <time>2026-09-02T22:12:44Z</time>
  <course>0.0</course>
  <speed>0.0</speed>
  <fix>3d</fix>
</trkpt>
<trkpt lat="33.810313" lon="-118.393867">
  <ele>0.0</ele>
  <time>2026-09-02T22:12:44Z</time>
  <course>188.52</course>
  <speed>0.0</speed>
  <fix>3d</fix>
</trkpt>
<trkpt lat="33.810313" lon="-118.393867">
  <ele>-0.12</ele>
  <time>2026-09-02T22:12:44Z</time>
  <course>0.0</course>
  <speed>0.0</speed>
  <fix>3d</fix>
</trkpt>
<trkpt lat="33.810313" lon="-118.393867">
  <ele>0.0</ele>
  <time>2026-09-02T22:12:44Z</time>
  <course>188.52</course>
  <speed>0.0</speed>
  <fix>3d</fix>
</trkpt>
<trkpt lat="33.810313" lon="-118.393867">
  <ele>-0.12</ele>
  <time>2026-09-02T22:12:44Z</time>
  <course>0.0</course>
  <speed>0.0</speed>
  <fix>3d</fix>
</trkpt>
<trkpt lat="33.810313" lon="-118.393867">
  <ele>0.0</ele>
  <time>2026-09-02T22:12:44Z</time>
  <course>188.53</course>
  <speed>0.0</speed>
  <fix>3d</fix>
</trkpt>
<trkpt lat="33.810313" lon="-118.393867">
  <ele>-0.12</ele>
  <time>2026-09-02T22:12:44Z</time>
  <course>0.0</course>
  <speed>0.0</speed>
  <fix>3d</fix>
</trkpt>
<trkpt lat="33.810313" lon="-118.393867">
  <ele>0.0</ele>
  <time>2026-09-02T22:12:44Z</time>
  <course>188.53</course>
  <speed>0.0</speed>
  <fix>3d</fix>
</trkpt>
<trkpt lat="33.810313" lon="-118.393867">
  <ele>-0.12</ele>
  <time>2026-09-02T22:12:44Z</time>
  <course>0.0</course>
  <speed>0.0</speed>
  <fix>3d</fix>
</trkpt>
<trkpt lat="33.810313" lon="-118.393867">
  <ele>0.0</ele>
  <time>2026-09-02T22:12:44Z</time>
  <course>188.54</course>
  <speed>0.0</speed>
  <fix>3d</fix>
</trkpt>
<trkpt lat="33.810313" lon="-118.393867">
  <ele>-0.12</ele>
  <time>2026-09-02T22:12:44Z</time>
  <course>0.0</course>
  <speed>0.0</speed>
  <fix>3d</fix>
</trkpt>
<trkpt lat="33.810313" lon="-118.393867">
  <ele>0.0</ele>
  <time>2026-09-02T22:12:44Z</time>
  <course>188.54</course>
  <speed>0.0</speed>
  <fix>3d</fix>
</trkpt>
<trkpt lat="33.810313" lon="-118.393867">
  <ele>-0.12</ele>
  <time>2026-09-02T22:12:44Z</time>
  <course>0.0</course>
  <speed>0.0</speed>
  <fix>3d</fix>
</trkpt>
<trkpt lat="33.810313" lon="-118.393867">
  <ele>0.0</ele>
  <time>2026-09-02T22:12:44Z</time>
  <course>188.55</course>
  <speed>0.0</speed>
  <fix>3d</fix>
</trkpt>
<trkpt lat="33.810313" lon="-118.393867">
  <ele>-0.12</ele>
  <time>2026-09-02T22:12:44Z</time>
  <course>0.0</course>
  <speed>0.0</speed>
  <fix>3d</fix>
</trkpt>
<trkpt lat="33.810313" lon="-118.393867">
  <ele>0.0</ele>
  <time>2026-09-02T22:12:44Z</time>
  <course>188.55</course>
  <speed>0.0</speed>
  <fix>3d</fix>
</trkpt>
<trkpt lat="33.810313" lon="-118.393867">
  <ele>-0.12</ele>
  <time>2026-09-02T22:12:44Z</time>
  <course>0.0</course>
  <speed>0.0</speed>
  <fix>3d</fix>
</trkpt>
<trkpt lat="33.810313" lon="-118.393867">
  <ele>0.0</ele>
  <time>2026-09-02T22:12:44Z</time>
  <course>188.55</course>
  <speed>0.0</speed>
  <fix>3d</fix>
</trkpt>
<trkpt lat="33.810313" lon="-118.393867">
  <ele>-0.12</ele>
  <time>2026-09-02T22:12:44Z</time>
  <course>0.0</course>
  <speed>0.0</speed>
  <fix>3d</fix>
</trkpt>
<trkpt lat="33.810313" lon="-118.393867">
  <ele>-0.128</ele>
  <time>2026-09-02T22:12:44Z</time>
  <course>188.55</course>
  <speed>0.0</speed>
  <fix>3d</fix>
</trkpt>
<trkpt lat="33.810313" lon="-118.393867">
  <ele>-0.13</ele>
  <time>2026-09-02T22:12:44Z</time>
  <course>0.0</course>
  <speed>0.0</speed>
  <fix>3d</fix>
</trkpt>
<trkpt lat="33.810313" lon="-118.393867">
  <ele>-0.128</ele>
  <time>2026-09-02T22:12:44Z</time>
  <course>188.55</course>
  <speed>0.0</speed>
  <fix>3d</fix>
</trkpt>
<trkpt lat="33.810313" lon="-118.393867">
  <ele>-0.13</ele>
  <time>2026-09-02T22:12:44Z</time>
  <course>0.0</course>
  <speed>0.0</speed>
  <fix>3d</fix>
</trkpt>
<trkpt lat="33.810313" lon="-118.393867">
  <ele>-0.127</ele>
  <time>2026-09-02T22:12:44Z</time>
  <course>188.56</course>
  <speed>0.0</speed>
  <fix>3d</fix>
</trkpt>
<trkpt lat="33.810313" lon="-118.393867">
  <ele>-0.13</ele>
  <time>2026-09-02T22:12:44Z</time>
  <course>0.0</course>
  <speed>0.0</speed>
  <fix>3d</fix>
</trkpt>
<trkpt lat="33.810313" lon="-118.393867">
  <ele>-0.126</ele>
  <time>2026-09-02T22:12:44Z</time>
  <course>188.56</course>
  <speed>0.0</speed>
  <fix>3d</fix>
</trkpt>
<trkpt lat="33.810313" lon="-118.393867">
  <ele>-0.13</ele>
  <time>2026-09-02T22:12:44Z</time>
  <course>0.0</course>
  <speed>0.0</speed>
  <fix>3d</fix>
</trkpt>
<trkpt lat="33.810313" lon="-118.393867">
  <ele>-0.124</ele>
  <time>2026-09-02T22:12:44Z</time>
  <course>188.56</course>
  <speed>0.0</speed>
  <fix>3d</fix>
</trkpt>
<trkpt lat="33.810313" lon="-118.393867">
  <ele>-0.12</ele>
  <time>2026-09-02T22:12:44Z</time>
  <course>0.0</course>
  <speed>0.0</speed>
  <fix>3d</fix>
</trkpt>
<trkpt lat="33.810313" lon="-118.393867">
  <ele>-0.12</ele>
  <time>2026-09-02T22:12:44Z</time>
  <course>188.56</course>
  <speed>0.0</speed>
  <fix>3d</fix>
</trkpt>
<trkpt lat="33.810313" lon="-118.393867">
  <ele>-0.12</ele>
  <time>2026-09-02T22:12:44Z</time>
  <course>0.0</course>
  <speed>0.0</speed>
  <fix>3d</fix>
</trkpt>
<trkpt lat="33.810313" lon="-118.393867">
  <ele>-0.118</ele>
  <time>2026-09-02T22:12:44Z</time>
  <course>188.56</course>
  <speed>0.0</speed>
  <fix>3d</fix>
</trkpt>
<trkpt lat="33.810313" lon="-118.393867">
  <ele>-0.12</ele>
  <time>2026-09-02T22:12:44Z</time>
  <course>0.0</course>
  <speed>0.0</speed>
  <fix>3d</fix>
</trkpt>
<trkpt lat="33.810313" lon="-118.393867">
  <ele>-0.117</ele>
  <time>2026-09-02T22:12:44Z</time>
  <course>188.55</course>
  <speed>0.0</speed>
  <fix>3d</fix>
</trkpt>
<trkpt lat="33.810313" lon="-118.393867">
  <ele>-0.12</ele>
  <time>2026-09-02T22:12:44Z</time>
  <course>0.0</course>
  <speed>0.0</speed>
  <fix>3d</fix>
</trkpt>
<trkpt lat="33.810313" lon="-118.393867">
  <ele>-0.118</ele>
  <time>2026-09-02T22:12:44Z</time>
  <course>188.55</course>
  <speed>0.0</speed>
  <fix>3d</fix>
</trkpt>
<trkpt lat="33.810313" lon="-118.393867">
  <ele>-0.12</ele>
  <time>2026-09-02T22:12:44Z</time>
  <course>0.0</course>
  <speed>0.0</speed>
  <fix>3d</fix>
</trkpt>
<trkpt lat="33.810313" lon="-118.393867">
  <ele>-0.12</ele>
  <time>2026-09-02T22:12:44Z</time>
  <course>188.55</course>
  <speed>0.0</speed>
  <fix>3d</fix>
</trkpt>
<trkpt lat="33.810313" lon="-118.393867">
  <ele>-0.12</ele>
  <time>2026-09-02T22:12:44Z</time>
  <course>0.0</course>
  <speed>0.0</speed>
  <fix>3d</fix>
</trkpt>
<trkpt lat="33.810313" lon="-118.393867">
  <ele>-0.123</ele>
  <time>2026-09-02T22:12:44Z</time>
  <course>188.55</course>
  <speed>0.0</speed>
  <fix>3d</fix>
</trkpt>
<trkpt lat="33.810313" lon="-118.393867">
  <ele>-0.12</ele>
  <time>2026-09-02T22:12:44Z</time>
  <course>0.0</course>
  <speed>0.0</speed>
  <fix>3d</fix>
</trkpt>
<trkpt lat="33.810313" lon="-118.393867">
  <ele>-0.124</ele>
  <time>2026-09-02T22:12:44Z</time>
  <course>188.55</course>
  <speed>0.0</speed>
  <fix>3d</fix>
</trkpt>
<trkpt lat="33.810313" lon="-118.393867">
  <ele>-0.12</ele>
  <time>2026-09-02T22:12:44Z</time>
  <course>0.0</course>
  <speed>0.0</speed>
  <fix>3d</fix>
</trkpt>
<trkpt lat="33.810313" lon="-118.393867">
  <ele>-0.124</ele>
  <time>2026-09-02T22:12:44Z</time>
  <course>188.55</course>
  <speed>0.0</speed>
  <fix>3d</fix>
</trkpt>
<trkpt lat="33.810313" lon="-118.393867">
  <ele>-0.12</ele>
  <time>2026-09-02T22:12:44Z</time>
  <course>0.0</course>
  <speed>0.0</speed>
  <fix>3d</fix>
</trkpt>
<trkpt lat="33.810313" lon="-118.393867">
  <ele>-0.125</ele>
  <time>2026-09-02T22:12:44Z</time>
  <course>188.55</course>
  <speed>0.0</speed>
  <fix>3d</fix>
</trkpt>
<trkpt lat="33.810313" lon="-118.393867">
  <ele>-0.12</ele>
  <time>2026-09-02T22:12:44Z</time>
  <course>0.0</course>
  <speed>0.0</speed>
  <fix>3d</fix>
</trkpt>
<trkpt lat="33.810313" lon="-118.393867">
  <ele>-0.125</ele>
  <time>2026-09-02T22:12:44Z</time>
  <course>188.55</course>
  <speed>0.0</speed>
  <fix>3d</fix>
</trkpt>
<trkpt lat="33.810313" lon="-118.393867">
  <ele>-0.12</ele>
  <time>2026-09-02T22:12:44Z</time>
  <course>0.0</course>
  <speed>0.0</speed>
  <fix>3d</fix>
</trkpt>
<trkpt lat="33.810313" lon="-118.393867">
  <ele>-0.125</ele>
  <time>2026-09-02T22:12:44Z</time>
  <course>188.55</course>
  <speed>0.0</speed>
  <fix>3d</fix>
</trkpt>
<trkpt lat="33.810313" lon="-118.393867">
  <ele>-0.12</ele>
  <time>2026-09-02T22:12:44Z</time>
  <course>0.0</course>
  <speed>0.0</speed>
  <fix>3d</fix>
</trkpt>
<trkpt lat="33.810313" lon="-118.393867">
  <ele>-0.125</ele>
  <time>2026-09-02T22:12:44Z</time>
  <course>188.54</course>
  <speed>0.0</speed>
  <fix>3d</fix>
</trkpt>
<trkpt lat="33.810313" lon="-118.393867">
  <ele>-0.13</ele>
  <time>2026-09-02T22:12:44Z</time>
  <course>0.0</course>
  <speed>0.0</speed>
  <fix>3d</fix>
</trkpt>
<trkpt lat="33.810313" lon="-118.393867">
  <ele>-0.124</ele>
  <time>2026-09-02T22:12:44Z</time>
  <course>188.54</course>
  <speed>0.0</speed>
  <fix>3d</fix>
</trkpt>
<trkpt lat="33.810313" lon="-118.393867">
  <ele>-0.13</ele>
  <time>2026-09-02T22:12:44Z</time>
  <course>0.0</course>
  <speed>0.0</speed>
  <fix>3d</fix>
</trkpt>
<trkpt lat="33.810313" lon="-118.393867">
  <ele>-0.122</ele>
  <time>2026-09-02T22:12:44Z</time>
  <course>188.53</course>
  <speed>0.0</speed>
  <fix>3d</fix>
</trkpt>
<trkpt lat="33.810313" lon="-118.393867">
  <ele>-0.12</ele>
  <time>2026-09-02T22:12:44Z</time>
  <course>0.0</course>
  <speed>0.0</speed>
  <fix>3d</fix>
</trkpt>
<trkpt lat="33.810313" lon="-118.393867">
  <ele>-0.119</ele>
  <time>2026-09-02T22:12:44Z</time>
  <course>188.53</course>
  <speed>0.0</speed>
  <fix>3d</fix>
</trkpt>
<trkpt lat="33.810313" lon="-118.393867">
  <ele>-0.12</ele>
  <time>2026-09-02T22:12:44Z</time>
  <course>0.0</course>
  <speed>0.0</speed>
  <fix>3d</fix>
</trkpt>
<trkpt lat="33.810313" lon="-118.393867">
  <ele>-0.116</ele>
  <time>2026-09-02T22:12:44Z</time>
  <course>188.53</course>
  <speed>0.0</speed>
  <fix>3d</fix>
</trkpt>
<trkpt lat="33.810313" lon="-118.393867">
  <ele>-0.12</ele>
  <time>2026-09-02T22:12:44Z</time>
  <course>0.0</course>
  <speed>0.0</speed>
  <fix>3d</fix>
</trkpt>
<trkpt lat="33.810313" lon="-118.393867">
  <ele>-0.116</ele>
  <time>2026-09-02T22:12:44Z</time>
  <course>188.52</course>
  <speed>0.0</speed>
  <fix>3d</fix>
</trkpt>
<trkpt lat="33.810313" lon="-118.393867">
  <ele>-0.12</ele>
  <time>2026-09-02T22:12:44Z</time>
  <course>0.0</course>
  <speed>0.0</speed>
  <fix>3d</fix>
</trkpt>
<trkpt lat="33.810313" lon="-118.393867">
  <ele>-0.117</ele>
  <time>2026-09-02T22:12:44Z</time>
  <course>188.52</course>
  <speed>0.0</speed>
  <fix>3d</fix>
</trkpt>
<trkpt lat="33.810313" lon="-118.393867">
  <ele>-0.12</ele>
  <time>2026-09-02T22:12:44Z</time>
  <course>0.0</course>
  <speed>0.0</speed>
  <fix>3d</fix>
</trkpt>
<trkpt lat="33.810313" lon="-118.393867">
  <ele>-0.119</ele>
  <time>2026-09-02T22:12:44Z</time>
  <course>188.51</course>
  <speed>0.0</speed>
  <fix>3d</fix>
</trkpt>
<trkpt lat="33.810313" lon="-118.393867">
  <ele>-0.12</ele>
  <time>2026-09-02T22:12:44Z</time>
  <course>0.0</course>
  <speed>0.0</speed>
  <fix>3d</fix>
</trkpt>
<trkpt lat="33.810313" lon="-118.393867">
  <ele>-0.121</ele>
  <time>2026-09-02T22:12:44Z</time>
  <course>188.5</course>
  <speed>0.0</speed>
  <fix>3d</fix>
</trkpt>
<trkpt lat="33.810313" lon="-118.393867">
  <ele>-0.12</ele>
  <time>2026-09-02T22:12:44Z</time>
  <course>0.0</course>
  <speed>0.0</speed>
  <fix>3d</fix>
</trkpt>
<trkpt lat="33.810313" lon="-118.393867">
  <ele>-0.122</ele>
  <time>2026-09-02T22:12:44Z</time>
  <course>188.5</course>
  <speed>0.0</speed>
  <fix>3d</fix>
</trkpt>
<trkpt lat="33.810313" lon="-118.393867">
  <ele>-0.12</ele>
  <time>2026-09-02T22:12:44Z</time>
  <course>0.0</course>
  <speed>0.0</speed>
  <fix>3d</fix>
</trkpt>
<trkpt lat="33.810313" lon="-118.393867">
  <ele>-0.123</ele>
  <time>2026-09-02T22:12:44Z</time>
  <course>188.49</course>
  <speed>0.0</speed>
  <fix>3d</fix>
</trkpt>
<trkpt lat="33.810313" lon="-118.393867">
  <ele>-0.12</ele>
  <time>2026-09-02T22:12:44Z</time>
  <course>0.0</course>
  <speed>0.0</speed>
  <fix>3d</fix>
</trkpt>
<trkpt lat="33.810313" lon="-118.393867">
  <ele>-0.122</ele>
  <time>2026-09-02T22:12:45Z</time>
  <course>188.49</course>
  <speed>0.0</speed>
  <fix>3d</fix>
</trkpt>
<trkpt lat="33.810313" lon="-118.393867">
  <ele>-0.12</ele>
  <time>2026-09-02T22:12:45Z</time>
  <course>0.0</course>
  <speed>0.0</speed>
  <fix>3d</fix>
</trkpt>
<trkpt lat="33.810313" lon="-118.393867">
  <ele>-0.122</ele>
  <time>2026-09-02T22:12:45Z</time>
  <course>188.48</course>
  <speed>0.01</speed>
  <fix>3d</fix>
</trkpt>
<trkpt lat="33.810313" lon="-118.393867">
  <ele>-0.12</ele>
  <time>2026-09-02T22:12:45Z</time>
  <course>0.0</course>
  <speed>0.0</speed>
  <fix>3d</fix>
</trkpt>
<trkpt lat="33.810313" lon="-118.393867">
  <ele>-0.12</ele>
  <time>2026-09-02T22:12:45Z</time>
  <course>188.47</course>
  <speed>0.01</speed>
  <fix>3d</fix>
</trkpt>
<trkpt lat="33.810313" lon="-118.393867">
  <ele>-0.12</ele>
  <time>2026-09-02T22:12:45Z</time>
  <course>0.0</course>
  <speed>0.0</speed>
  <fix>3d</fix>
</trkpt>
<trkpt lat="33.810313" lon="-118.393867">
  <ele>-0.118</ele>
  <time>2026-09-02T22:12:45Z</time>
  <course>188.47</course>
  <speed>0.01</speed>
  <fix>3d</fix>
</trkpt>
<trkpt lat="33.810313" lon="-118.393867">
  <ele>-0.12</ele>
  <time>2026-09-02T22:12:45Z</time>
  <course>0.0</course>
  <speed>0.0</speed>
  <fix>3d</fix>
</trkpt>
<trkpt lat="33.810313" lon="-118.393867">
  <ele>-0.115</ele>
  <time>2026-09-02T22:12:45Z</time>
  <course>188.46</course>
  <speed>0.01</speed>
  <fix>3d</fix>
</trkpt>
<trkpt lat="33.810313" lon="-118.393867">
  <ele>-0.12</ele>
  <time>2026-09-02T22:12:45Z</time>
  <course>0.0</course>
  <speed>0.0</speed>
  <fix>3d</fix>
</trkpt>
<trkpt lat="33.810313" lon="-118.393867">
  <ele>-0.112</ele>
  <time>2026-09-02T22:12:45Z</time>
  <course>188.45</course>
  <speed>0.01</speed>
  <fix>3d</fix>
</trkpt>
<trkpt lat="33.810313" lon="-118.393867">
  <ele>-0.12</ele>
  <time>2026-09-02T22:12:45Z</time>
  <course>0.0</course>
  <speed>0.0</speed>
  <fix>3d</fix>
</trkpt>
<trkpt lat="33.810313" lon="-118.393867">
  <ele>-0.109</ele>
  <time>2026-09-02T22:12:45Z</time>
  <course>188.45</course>
  <speed>0.01</speed>
  <fix>3d</fix>
</trkpt>
<trkpt lat="33.810313" lon="-118.393867">
  <ele>-0.12</ele>
  <time>2026-09-02T22:12:45Z</time>
  <course>0.0</course>
  <speed>0.0</speed>
  <fix>3d</fix>
</trkpt>
<trkpt lat="33.810313" lon="-118.393867">
  <ele>-0.108</ele>
  <time>2026-09-02T22:12:45Z</time>
  <course>188.44</course>
  <speed>0.01</speed>
  <fix>3d</fix>
</trkpt>
<trkpt lat="33.810313" lon="-118.393867">
  <ele>-0.12</ele>
  <time>2026-09-02T22:12:45Z</time>
  <course>0.0</course>
  <speed>0.0</speed>
  <fix>3d</fix>
</trkpt>
<trkpt lat="33.810313" lon="-118.393867">
  <ele>-0.109</ele>
  <time>2026-09-02T22:12:45Z</time>
  <course>188.43</course>
  <speed>0.01</speed>
  <fix>3d</fix>
</trkpt>
<trkpt lat="33.810313" lon="-118.393867">
  <ele>-0.12</ele>
  <time>2026-09-02T22:12:45Z</time>
  <course>0.0</course>
  <speed>0.0</speed>
  <fix>3d</fix>
</trkpt>
<trkpt lat="33.810313" lon="-118.393867">
  <ele>-0.111</ele>
  <time>2026-09-02T22:12:45Z</time>
  <course>188.43</course>
  <speed>0.01</speed>
  <fix>3d</fix>
</trkpt>
<trkpt lat="33.810313" lon="-118.393867">
  <ele>-0.12</ele>
  <time>2026-09-02T22:12:45Z</time>
  <course>0.0</course>
  <speed>0.0</speed>
  <fix>3d</fix>
</trkpt>
<trkpt lat="33.810313" lon="-118.393867">
  <ele>-0.114</ele>
  <time>2026-09-02T22:12:45Z</time>
  <course>188.42</course>
  <speed>0.01</speed>
  <fix>3d</fix>
</trkpt>
<trkpt lat="33.810313" lon="-118.393867">
  <ele>-0.12</ele>
  <time>2026-09-02T22:12:45Z</time>
  <course>0.0</course>
  <speed>0.0</speed>
  <fix>3d</fix>
</trkpt>
<trkpt lat="33.810313" lon="-118.393867">
  <ele>-0.116</ele>
  <time>2026-09-02T22:12:45Z</time>
  <course>188.41</course>
  <speed>0.01</speed>
  <fix>3d</fix>
</trkpt>
<trkpt lat="33.810313" lon="-118.393867">
  <ele>-0.12</ele>
  <time>2026-09-02T22:12:45Z</time>
  <course>0.0</course>
  <speed>0.0</speed>
  <fix>3d</fix>
</trkpt>
<trkpt lat="33.810313" lon="-118.393867">
  <ele>-0.119</ele>
  <time>2026-09-02T22:12:45Z</time>
  <course>188.4</course>
  <speed>0.01</speed>
  <fix>3d</fix>
</trkpt>
<trkpt lat="33.810313" lon="-118.393867">
  <ele>-0.12</ele>
  <time>2026-09-02T22:12:45Z</time>
  <course>0.0</course>
  <speed>0.0</speed>
  <fix>3d</fix>
</trkpt>
<trkpt lat="33.810313" lon="-118.393867">
  <ele>-0.122</ele>
  <time>2026-09-02T22:12:45Z</time>
  <course>188.4</course>
  <speed>0.01</speed>
  <fix>3d</fix>
</trkpt>
<trkpt lat="33.810313" lon="-118.393867">
  <ele>-0.12</ele>
  <time>2026-09-02T22:12:45Z</time>
  <course>0.0</course>
  <speed>0.0</speed>
  <fix>3d</fix>
</trkpt>
<trkpt lat="33.810313" lon="-118.393867">
  <ele>-0.124</ele>
  <time>2026-09-02T22:12:45Z</time>
  <course>188.39</course>
  <speed>0.01</speed>
  <fix>3d</fix>
</trkpt>
<trkpt lat="33.810313" lon="-118.393867">
  <ele>-0.12</ele>
  <time>2026-09-02T22:12:45Z</time>
  <course>0.0</course>
  <speed>0.0</speed>
  <fix>3d</fix>
</trkpt>
<trkpt lat="33.810313" lon="-118.393867">
  <ele>-0.124</ele>
  <time>2026-09-02T22:12:45Z</time>
  <course>188.38</course>
  <speed>0.01</speed>
  <fix>3d</fix>
</trkpt>
<trkpt lat="33.810313" lon="-118.393867">
  <ele>-0.12</ele>
  <time>2026-09-02T22:12:45Z</time>
  <course>0.0</course>
  <speed>0.0</speed>
  <fix>3d</fix>
</trkpt>
<trkpt lat="33.810313" lon="-118.393867">
  <ele>-0.125</ele>
  <time>2026-09-02T22:12:45Z</time>
  <course>188.37</course>
  <speed>0.01414213562373095</speed>
  <fix>3d</fix>
</trkpt>
<trkpt lat="33.810313" lon="-118.393867">
  <ele>-0.12</ele>
  <time>2026-09-02T22:12:45Z</time>
  <course>0.0</course>
  <speed>0.0</speed>
  <fix>3d</fix>
</trkpt>
<trkpt lat="33.810313" lon="-118.393867">
  <ele>-0.124</ele>
  <time>2026-09-02T22:12:45Z</time>
  <course>188.37</course>
  <speed>0.01414213562373095</speed>
  <fix>3d</fix>
</trkpt>
<trkpt lat="33.810313" lon="-118.393867">
  <ele>-0.12</ele>
  <time>2026-09-02T22:12:45Z</time>
  <course>0.0</course>
  <speed>0.0</speed>
  <fix>3d</fix>
</trkpt>
<trkpt lat="33.810313" lon="-118.393867">
  <ele>-0.123</ele>
  <time>2026-09-02T22:12:45Z</time>
  <course>188.36</course>
  <speed>0.01414213562373095</speed>
  <fix>3d</fix>
</trkpt>
<trkpt lat="33.810313" lon="-118.393867">
  <ele>-0.12</ele>
  <time>2026-09-02T22:12:45Z</time>
  <course>0.0</course>
  <speed>0.0</speed>
  <fix>3d</fix>
</trkpt>
<trkpt lat="33.810313" lon="-118.393867">
  <ele>-0.12</ele>
  <time>2026-09-02T22:12:45Z</time>
  <course>188.35</course>
  <speed>0.01414213562373095</speed>
  <fix>3d</fix>
</trkpt>
<trkpt lat="33.810313" lon="-118.393867">
  <ele>-0.12</ele>
  <time>2026-09-02T22:12:45Z</time>
  <course>0.0</course>
  <speed>0.0</speed>
  <fix>3d</fix>
</trkpt>
<trkpt lat="33.810313" lon="-118.393867">
  <ele>-0.119</ele>
  <time>2026-09-02T22:12:45Z</time>
  <course>188.34</course>
  <speed>0.01414213562373095</speed>
  <fix>3d</fix>
</trkpt>
<trkpt lat="33.810313" lon="-118.393867">
  <ele>-0.12</ele>
  <time>2026-09-02T22:12:45Z</time>
  <course>0.0</course>
  <speed>0.0</speed>
  <fix>3d</fix>
</trkpt>
<trkpt lat="33.810313" lon="-118.393867">
  <ele>-0.118</ele>
  <time>2026-09-02T22:12:45Z</time>
  <course>188.34</course>
  <speed>0.01414213562373095</speed>
  <fix>3d</fix>
</trkpt>
<trkpt lat="33.810313" lon="-118.393867">
  <ele>-0.12</ele>
  <time>2026-09-02T22:12:45Z</time>
  <course>0.0</course>
  <speed>0.0</speed>
  <fix>3d</fix>
</trkpt>
<trkpt lat="33.810313" lon="-118.393867">
  <ele>-0.12</ele>
  <time>2026-09-02T22:12:45Z</time>
  <course>188.33</course>
  <speed>0.01414213562373095</speed>
  <fix>3d</fix>
</trkpt>
<trkpt lat="33.810313" lon="-118.393867">
  <ele>-0.12</ele>
  <time>2026-09-02T22:12:45Z</time>
  <course>0.0</course>
  <speed>0.0</speed>
  <fix>3d</fix>
</trkpt>
<trkpt lat="33.810313" lon="-118.393867">
  <ele>-0.121</ele>
  <time>2026-09-02T22:12:45Z</time>
  <course>188.32</course>
  <speed>0.01414213562373095</speed>
  <fix>3d</fix>
</trkpt>
<trkpt lat="33.810313" lon="-118.393867">
  <ele>-0.12</ele>
  <time>2026-09-02T22:12:45Z</time>
  <course>0.0</course>
  <speed>0.0</speed>
  <fix>3d</fix>
</trkpt>
<trkpt lat="33.810313" lon="-118.393867">
  <ele>-0.121</ele>
  <time>2026-09-02T22:12:45Z</time>
  <course>188.31</course>
  <speed>0.01414213562373095</speed>
  <fix>3d</fix>
</trkpt>
<trkpt lat="33.810313" lon="-118.393867">
  <ele>-0.12</ele>
  <time>2026-09-02T22:12:45Z</time>
  <course>0.0</course>
  <speed>0.0</speed>
  <fix>3d</fix>
</trkpt>
<trkpt lat="33.810313" lon="-118.393867">
  <ele>-0.121</ele>
  <time>2026-09-02T22:12:45Z</time>
  <course>188.3</course>
  <speed>0.01414213562373095</speed>
  <fix>3d</fix>
</trkpt>
<trkpt lat="33.810313" lon="-118.393867">
  <ele>-0.12</ele>
  <time>2026-09-02T22:12:45Z</time>
  <course>0.0</course>
  <speed>0.0</speed>
  <fix>3d</fix>
</trkpt>
<trkpt lat="33.810313" lon="-118.393867">
  <ele>-0.119</ele>
  <time>2026-09-02T22:12:45Z</time>
  <course>188.3</course>
  <speed>0.01414213562373095</speed>
  <fix>3d</fix>
</trkpt>
<trkpt lat="33.810313" lon="-118.393867">
  <ele>-0.12</ele>
  <time>2026-09-02T22:12:45Z</time>
  <course>0.0</course>
  <speed>0.0</speed>
  <fix>3d</fix>
</trkpt>
<trkpt lat="33.810313" lon="-118.393867">
  <ele>-0.118</ele>
  <time>2026-09-02T22:12:45Z</time>
  <course>188.29</course>
  <speed>0.01414213562373095</speed>
  <fix>3d</fix>
</trkpt>
<trkpt lat="33.810313" lon="-118.393867">
  <ele>-0.12</ele>
  <time>2026-09-02T22:12:45Z</time>
  <course>0.0</course>
  <speed>0.0</speed>
  <fix>3d</fix>
</trkpt>
<trkpt lat="33.810313" lon="-118.393867">
  <ele>-0.116</ele>
  <time>2026-09-02T22:12:45Z</time>
  <course>188.28</course>
  <speed>0.01414213562373095</speed>
  <fix>3d</fix>
</trkpt>
<trkpt lat="33.810313" lon="-118.393867">
  <ele>-0.12</ele>
  <time>2026-09-02T22:12:45Z</time>
  <course>0.0</course>
  <speed>0.0</speed>
  <fix>3d</fix>
</trkpt>
<trkpt lat="33.810313" lon="-118.393867">
  <ele>-0.114</ele>
  <time>2026-09-02T22:12:45Z</time>
  <course>188.27</course>
  <speed>0.01414213562373095</speed>
  <fix>3d</fix>
</trkpt>
<trkpt lat="33.810313" lon="-118.393867">
  <ele>-0.12</ele>
  <time>2026-09-02T22:12:45Z</time>
  <course>0.0</course>
  <speed>0.0</speed>
  <fix>3d</fix>
</trkpt>
<trkpt lat="33.810313" lon="-118.393867">
  <ele>-0.113</ele>
  <time>2026-09-02T22:12:45Z</time>
  <course>188.26</course>
  <speed>0.01414213562373095</speed>
  <fix>3d</fix>
</trkpt>
<trkpt lat="33.810313" lon="-118.393867">
  <ele>-0.12</ele>
  <time>2026-09-02T22:12:45Z</time>
  <course>0.0</course>
  <speed>0.0</speed>
  <fix>3d</fix>
</trkpt>
<trkpt lat="33.810313" lon="-118.393867">
  <ele>-0.113</ele>
  <time>2026-09-02T22:12:45Z</time>
  <course>188.26</course>
  <speed>0.01414213562373095</speed>
  <fix>3d</fix>
</trkpt>
<trkpt lat="33.810313" lon="-118.393867">
  <ele>-0.12</ele>
  <time>2026-09-02T22:12:45Z</time>
  <course>0.0</course>
  <speed>0.0</speed>
  <fix>3d</fix>
</trkpt>
<trkpt lat="33.810313" lon="-118.393867">
  <ele>-0.114</ele>
  <time>2026-09-02T22:12:45Z</time>
  <course>188.25</course>
  <speed>0.01414213562373095</speed>
  <fix>3d</fix>
</trkpt>
<trkpt lat="33.810313" lon="-118.393867">
  <ele>-0.12</ele>
  <time>2026-09-02T22:12:45Z</time>
  <course>0.0</course>
  <speed>0.0</speed>
  <fix>3d</fix>
</trkpt>
<trkpt lat="33.810313" lon="-118.393867">
  <ele>-0.116</ele>
  <time>2026-09-02T22:12:45Z</time>
  <course>188.24</course>
  <speed>0.01414213562373095</speed>
  <fix>3d</fix>
</trkpt>
<trkpt lat="33.810313" lon="-118.393867">
  <ele>-0.12</ele>
  <time>2026-09-02T22:12:45Z</time>
  <course>0.0</course>
  <speed>0.0</speed>
  <fix>3d</fix>
</trkpt>
<trkpt lat="33.810313" lon="-118.393867">
  <ele>-0.118</ele>
  <time>2026-09-02T22:12:45Z</time>
  <course>188.23</course>
  <speed>0.01414213562373095</speed>
  <fix>3d</fix>
</trkpt>
<trkpt lat="33.810313" lon="-118.393867">
  <ele>-0.12</ele>
  <time>2026-09-02T22:12:45Z</time>
  <course>0.0</course>
  <speed>0.0</speed>
  <fix>3d</fix>
</trkpt>
<trkpt lat="33.810313" lon="-118.393867">
  <ele>-0.121</ele>
  <time>2026-09-02T22:12:45Z</time>
  <course>188.22</course>
  <speed>0.01414213562373095</speed>
  <fix>3d</fix>
</trkpt>
<trkpt lat="33.810313" lon="-118.393867">
  <ele>-0.12</ele>
  <time>2026-09-02T22:12:45Z</time>
  <course>0.0</course>
  <speed>0.0</speed>
  <fix>3d</fix>
</trkpt>
<trkpt lat="33.810313" lon="-118.393867">
  <ele>-0.125</ele>
  <time>2026-09-02T22:12:45Z</time>
  <course>188.21</course>
  <speed>0.01414213562373095</speed>
  <fix>3d</fix>
</trkpt>
<trkpt lat="33.810313" lon="-118.393867">
  <ele>-0.12</ele>
  <time>2026-09-02T22:12:45Z</time>
  <course>0.0</course>
  <speed>0.0</speed>
  <fix>3d</fix>
</trkpt>
<trkpt lat="33.810313" lon="-118.393867">
  <ele>-0.127</ele>
  <time>2026-09-02T22:12:45Z</time>
  <course>188.21</course>
  <speed>0.01414213562373095</speed>
  <fix>3d</fix>
</trkpt>
<trkpt lat="33.810313" lon="-118.393867">
  <ele>-0.12</ele>
  <time>2026-09-02T22:12:45Z</time>
  <course>0.0</course>
  <speed>0.0</speed>
  <fix>3d</fix>
</trkpt>
<trkpt lat="33.810313" lon="-118.393867">
  <ele>-0.127</ele>
  <time>2026-09-02T22:12:45Z</time>
  <course>188.2</course>
  <speed>0.01414213562373095</speed>
  <fix>3d</fix>
</trkpt>
<trkpt lat="33.810313" lon="-118.393867">
  <ele>-0.12</ele>
  <time>2026-09-02T22:12:45Z</time>
  <course>0.0</course>
  <speed>0.0</speed>
  <fix>3d</fix>
</trkpt>
<trkpt lat="33.810313" lon="-118.393867">
  <ele>-0.127</ele>
  <time>2026-09-02T22:12:45Z</time>
  <course>188.19</course>
  <speed>0.01414213562373095</speed>
  <fix>3d</fix>
</trkpt>
<trkpt lat="33.810313" lon="-118.393867">
  <ele>-0.12</ele>
  <time>2026-09-02T22:12:45Z</time>
  <course>0.0</course>
  <speed>0.0</speed>
  <fix>3d</fix>
</trkpt>
<trkpt lat="33.810313" lon="-118.393867">
  <ele>-0.125</ele>
  <time>2026-09-02T22:12:45Z</time>
  <course>188.18</course>
  <speed>0.01414213562373095</speed>
  <fix>3d</fix>
</trkpt>
<trkpt lat="33.810313" lon="-118.393867">
  <ele>-0.12</ele>
  <time>2026-09-02T22:12:45Z</time>
  <course>0.0</course>
  <speed>0.0</speed>
  <fix>3d</fix>
</trkpt>
<trkpt lat="33.810313" lon="-118.393867">
  <ele>-0.121</ele>
  <time>2026-09-02T22:12:45Z</time>
  <course>188.17</course>
  <speed>0.01414213562373095</speed>
  <fix>3d</fix>
</trkpt>
<trkpt lat="33.810313" lon="-118.393867">
  <ele>-0.12</ele>
  <time>2026-09-02T22:12:45Z</time>
  <course>0.0</course>
  <speed>0.0</speed>
  <fix>3d</fix>
</trkpt>
<trkpt lat="33.810313" lon="-118.393867">
  <ele>-0.118</ele>
  <time>2026-09-02T22:12:45Z</time>
  <course>188.17</course>
  <speed>0.01414213562373095</speed>
  <fix>3d</fix>
</trkpt>
<trkpt lat="33.810313" lon="-118.393867">
  <ele>-0.12</ele>
  <time>2026-09-02T22:12:45Z</time>
  <course>0.0</course>
  <speed>0.0</speed>
  <fix>3d</fix>
</trkpt>
<trkpt lat="33.810313" lon="-118.393867">
  <ele>-0.115</ele>
  <time>2026-09-02T22:12:45Z</time>
  <course>188.16</course>
  <speed>0.01414213562373095</speed>
  <fix>3d</fix>
</trkpt>
<trkpt lat="33.810313" lon="-118.393867">
  <ele>-0.12</ele>
  <time>2026-09-02T22:12:45Z</time>
  <course>0.0</course>
  <speed>0.0</speed>
  <fix>3d</fix>
</trkpt>
<trkpt lat="33.810313" lon="-118.393867">
  <ele>-0.113</ele>
  <time>2026-09-02T22:12:45Z</time>
  <course>188.15</course>
  <speed>0.01414213562373095</speed>
  <fix>3d</fix>
</trkpt>
<trkpt lat="33.810313" lon="-118.393867">
  <ele>-0.12</ele>
  <time>2026-09-02T22:12:45Z</time>
  <course>0.0</course>
  <speed>0.0</speed>
  <fix>3d</fix>
</trkpt>
<trkpt lat="33.810313" lon="-118.393867">
  <ele>-0.112</ele>
  <time>2026-09-02T22:12:45Z</time>
  <course>188.14</course>
  <speed>0.01414213562373095</speed>
  <fix>3d</fix>
</trkpt>
<trkpt lat="33.810313" lon="-118.393867">
  <ele>-0.12</ele>
  <time>2026-09-02T22:12:45Z</time>
  <course>0.0</course>
  <speed>0.0</speed>
  <fix>3d</fix>
</trkpt>
<trkpt lat="33.810313" lon="-118.393867">
  <ele>-0.113</ele>
  <time>2026-09-02T22:12:45Z</time>
  <course>188.13</course>
  <speed>0.01414213562373095</speed>
  <fix>3d</fix>
</trkpt>
<trkpt lat="33.810313" lon="-118.393867">
  <ele>-0.12</ele>
  <time>2026-09-02T22:12:45Z</time>
  <course>0.0</course>
  <speed>0.0</speed>
  <fix>3d</fix>
</trkpt>
<trkpt lat="33.810313" lon="-118.393867">
  <ele>-0.114</ele>
  <time>2026-09-02T22:12:45Z</time>
  <course>188.12</course>
  <speed>0.01414213562373095</speed>
  <fix>3d</fix>
</trkpt>
<trkpt lat="33.810313" lon="-118.393867">
  <ele>-0.12</ele>
  <time>2026-09-02T22:12:45Z</time>
  <course>0.0</course>
  <speed>0.0</speed>
  <fix>3d</fix>
</trkpt>
<trkpt lat="33.810313" lon="-118.393867">
  <ele>-0.116</ele>
  <time>2026-09-02T22:12:45Z</time>
  <course>188.12</course>
  <speed>0.01414213562373095</speed>
  <fix>3d</fix>
</trkpt>
<trkpt lat="33.810313" lon="-118.393867">
  <ele>-0.12</ele>
  <time>2026-09-02T22:12:45Z</time>
  <course>0.0</course>
  <speed>0.0</speed>
  <fix>3d</fix>
</trkpt>
<trkpt lat="33.810313" lon="-118.393867">
  <ele>-0.117</ele>
  <time>2026-09-02T22:12:45Z</time>
  <course>188.11</course>
  <speed>0.01414213562373095</speed>
  <fix>3d</fix>
</trkpt>
<trkpt lat="33.810313" lon="-118.393867">
  <ele>-0.12</ele>
  <time>2026-09-02T22:12:45Z</time>
  <course>0.0</course>
  <speed>0.0</speed>
  <fix>3d</fix>
</trkpt>
<trkpt lat="33.810313" lon="-118.393867">
  <ele>-0.118</ele>
  <time>2026-09-02T22:12:45Z</time>
  <course>188.1</course>
  <speed>0.01414213562373095</speed>
  <fix>3d</fix>
</trkpt>
<trkpt lat="33.810313" lon="-118.393867">
  <ele>-0.12</ele>
  <time>2026-09-02T22:12:45Z</time>
  <course>0.0</course>
  <speed>0.0</speed>
  <fix>3d</fix>
</trkpt>
<trkpt lat="33.810313" lon="-118.393867">
  <ele>-0.118</ele>
  <time>2026-09-02T22:12:45Z</time>
  <course>188.09</course>
  <speed>0.01414213562373095</speed>
  <fix>3d</fix>
</trkpt>
<trkpt lat="33.810313" lon="-118.393867">
  <ele>-0.12</ele>
  <time>2026-09-02T22:12:45Z</time>
  <course>0.0</course>
  <speed>0.0</speed>
  <fix>3d</fix>
</trkpt>
<trkpt lat="33.810313" lon="-118.393867">
  <ele>-0.118</ele>
  <time>2026-09-02T22:12:45Z</time>
  <course>188.08</course>
  <speed>0.01414213562373095</speed>
  <fix>3d</fix>
</trkpt>
<trkpt lat="33.810313" lon="-118.393867">
  <ele>-0.12</ele>
  <time>2026-09-02T22:12:45Z</time>
  <course>0.0</course>
  <speed>0.0</speed>
  <fix>3d</fix>
</trkpt>
<trkpt lat="33.810313" lon="-118.393867">
  <ele>-0.117</ele>
  <time>2026-09-02T22:12:45Z</time>
  <course>188.07</course>
  <speed>0.022360679774997897</speed>
  <fix>3d</fix>
</trkpt>
<trkpt lat="33.810313" lon="-118.393867">
  <ele>-0.12</ele>
  <time>2026-09-02T22:12:45Z</time>
  <course>0.0</course>
  <speed>0.0</speed>
  <fix>3d</fix>
</trkpt>
<trkpt lat="33.810313" lon="-118.393867">
  <ele>-0.115</ele>
  <time>2026-09-02T22:12:45Z</time>
  <course>188.07</course>
  <speed>0.022360679774997897</speed>
  <fix>3d</fix>
</trkpt>
<trkpt lat="33.810313" lon="-118.393867">
  <ele>-0.12</ele>
  <time>2026-09-02T22:12:45Z</time>
  <course>0.0</course>
  <speed>0.0</speed>
  <fix>3d</fix>
</trkpt>
<trkpt lat="33.810313" lon="-118.393867">
  <ele>-0.113</ele>
  <time>2026-09-02T22:12:45Z</time>
  <course>188.06</course>
  <speed>0.022360679774997897</speed>
  <fix>3d</fix>
</trkpt>
<trkpt lat="33.810313" lon="-118.393867">
  <ele>-0.12</ele>
  <time>2026-09-02T22:12:45Z</time>
  <course>0.0</course>
  <speed>0.0</speed>
  <fix>3d</fix>
</trkpt>
<trkpt lat="33.810313" lon="-118.393867">
  <ele>-0.112</ele>
  <time>2026-09-02T22:12:45Z</time>
  <course>188.05</course>
  <speed>0.022360679774997897</speed>
  <fix>3d</fix>
</trkpt>
<trkpt lat="33.810313" lon="-118.393867">
  <ele>-0.12</ele>
  <time>2026-09-02T22:12:45Z</time>
  <course>0.0</course>
  <speed>0.0</speed>
  <fix>3d</fix>
</trkpt>
<trkpt lat="33.810313" lon="-118.393867">
  <ele>-0.112</ele>
  <time>2026-09-02T22:12:45Z</time>
  <course>188.04</course>
  <speed>0.022360679774997897</speed>
  <fix>3d</fix>
</trkpt>
<trkpt lat="33.810313" lon="-118.393867">
  <ele>-0.12</ele>
  <time>2026-09-02T22:12:45Z</time>
  <course>0.0</course>
  <speed>0.0</speed>
  <fix>3d</fix>
</trkpt>
<trkpt lat="33.810313" lon="-118.393867">
  <ele>-0.113</ele>
  <time>2026-09-02T22:12:45Z</time>
  <course>188.03</course>
  <speed>0.022360679774997897</speed>
  <fix>3d</fix>
</trkpt>
<trkpt lat="33.810313" lon="-118.393867">
  <ele>-0.12</ele>
  <time>2026-09-02T22:12:45Z</time>
  <course>0.0</course>
  <speed>0.0</speed>
  <fix>3d</fix>
</trkpt>
<trkpt lat="33.810313" lon="-118.393867">
  <ele>-0.115</ele>
  <time>2026-09-02T22:12:45Z</time>
  <course>188.03</course>
  <speed>0.022360679774997897</speed>
  <fix>3d</fix>
</trkpt>
<trkpt lat="33.810313" lon="-118.393867">
  <ele>-0.12</ele>
  <time>2026-09-02T22:12:45Z</time>
  <course>0.0</course>
  <speed>0.0</speed>
  <fix>3d</fix>
</trkpt>
<trkpt lat="33.810313" lon="-118.393867">
  <ele>-0.118</ele>
  <time>2026-09-02T22:12:45Z</time>
  <course>188.02</course>
  <speed>0.022360679774997897</speed>
  <fix>3d</fix>
</trkpt>
<trkpt lat="33.810313" lon="-118.393867">
  <ele>-0.12</ele>
  <time>2026-09-02T22:12:45Z</time>
  <course>0.0</course>
  <speed>0.0</speed>
  <fix>3d</fix>
</trkpt>
<trkpt lat="33.810313" lon="-118.393867">
  <ele>-0.121</ele>
  <time>2026-09-02T22:12:45Z</time>
  <course>188.01</course>
  <speed>0.022360679774997897</speed>
  <fix>3d</fix>
</trkpt>
<trkpt lat="33.810313" lon="-118.393867">
  <ele>-0.12</ele>
  <time>2026-09-02T22:12:45Z</time>
  <course>0.0</course>
  <speed>0.0</speed>
  <fix>3d</fix>
</trkpt>
<trkpt lat="33.810313" lon="-118.393867">
  <ele>-0.122</ele>
  <time>2026-09-02T22:12:45Z</time>
  <course>188.0</course>
  <speed>0.022360679774997897</speed>
  <fix>3d</fix>
</trkpt>
<trkpt lat="33.810313" lon="-118.393867">
  <ele>-0.12</ele>
  <time>2026-09-02T22:12:45Z</time>
  <course>0.0</course>
  <speed>0.0</speed>
  <fix>3d</fix>
</trkpt>
<trkpt lat="33.810313" lon="-118.393867">
  <ele>-0.122</ele>
  <time>2026-09-02T22:12:45Z</time>
  <course>187.99</course>
  <speed>0.022360679774997897</speed>
  <fix>3d</fix>
</trkpt>
<trkpt lat="33.810313" lon="-118.393867">
  <ele>-0.12</ele>
  <time>2026-09-02T22:12:45Z</time>
  <course>0.0</course>
  <speed>0.0</speed>
  <fix>3d</fix>
</trkpt>
<trkpt lat="33.810313" lon="-118.393867">
  <ele>-0.121</ele>
  <time>2026-09-02T22:12:45Z</time>
  <course>187.99</course>
  <speed>0.022360679774997897</speed>
  <fix>3d</fix>
</trkpt>
<trkpt lat="33.810313" lon="-118.393867">
  <ele>-0.12</ele>
  <time>2026-09-02T22:12:45Z</time>
  <course>0.0</course>
  <speed>0.0</speed>
  <fix>3d</fix>
</trkpt>
<trkpt lat="33.810313" lon="-118.393867">
  <ele>-0.119</ele>
  <time>2026-09-02T22:12:45Z</time>
  <course>187.98</course>
  <speed>0.022360679774997897</speed>
  <fix>3d</fix>
</trkpt>
<trkpt lat="33.810313" lon="-118.393867">
  <ele>-0.12</ele>
  <time>2026-09-02T22:12:45Z</time>
  <course>0.0</course>
  <speed>0.0</speed>
  <fix>3d</fix>
</trkpt>
<trkpt lat="33.810313" lon="-118.393867">
  <ele>-0.116</ele>
  <time>2026-09-02T22:12:45Z</time>
  <course>187.97</course>
  <speed>0.022360679774997897</speed>
  <fix>3d</fix>
</trkpt>
<trkpt lat="33.810313" lon="-118.393867">
  <ele>-0.12</ele>
  <time>2026-09-02T22:12:45Z</time>
  <course>0.0</course>
  <speed>0.0</speed>
  <fix>3d</fix>
</trkpt>
<trkpt lat="33.810313" lon="-118.393867">
  <ele>-0.112</ele>
  <time>2026-09-02T22:12:45Z</time>
  <course>187.96</course>
  <speed>0.022360679774997897</speed>
  <fix>3d</fix>
</trkpt>
<trkpt lat="33.810313" lon="-118.393867">
  <ele>-0.12</ele>
  <time>2026-09-02T22:12:45Z</time>
  <course>0.0</course>
  <speed>0.0</speed>
  <fix>3d</fix>
</trkpt>
<trkpt lat="33.810313" lon="-118.393867">
  <ele>-0.11</ele>
  <time>2026-09-02T22:12:45Z</time>
  <course>187.95</course>
  <speed>0.022360679774997897</speed>
  <fix>3d</fix>
</trkpt>
<trkpt lat="33.810313" lon="-118.393867">
  <ele>-0.12</ele>
  <time>2026-09-02T22:12:45Z</time>
  <course>0.0</course>
  <speed>0.0</speed>
  <fix>3d</fix>
</trkpt>
<trkpt lat="33.810313" lon="-118.393867">
  <ele>-0.11</ele>
  <time>2026-09-02T22:12:45Z</time>
  <course>187.95</course>
  <speed>0.022360679774997897</speed>
  <fix>3d</fix>
</trkpt>
<trkpt lat="33.810313" lon="-118.393867">
  <ele>-0.12</ele>
  <time>2026-09-02T22:12:45Z</time>
  <course>0.0</course>
  <speed>0.0</speed>
  <fix>3d</fix>
</trkpt>
<trkpt lat="33.810313" lon="-118.393867">
  <ele>-0.112</ele>
  <time>2026-09-02T22:12:45Z</time>
  <course>187.94</course>
  <speed>0.022360679774997897</speed>
  <fix>3d</fix>
</trkpt>
<trkpt lat="33.810313" lon="-118.393867">
  <ele>-0.12</ele>
  <time>2026-09-02T22:12:45Z</time>
  <course>0.0</course>
  <speed>0.0</speed>
  <fix>3d</fix>
</trkpt>
<trkpt lat="33.810313" lon="-118.393867">
  <ele>-0.115</ele>
  <time>2026-09-02T22:12:45Z</time>
  <course>187.93</course>
  <speed>0.022360679774997897</speed>
  <fix>3d</fix>
</trkpt>
<trkpt lat="33.810313" lon="-118.393867">
  <ele>-0.12</ele>
  <time>2026-09-02T22:12:45Z</time>
  <course>0.0</course>
  <speed>0.0</speed>
  <fix>3d</fix>
</trkpt>
<trkpt lat="33.810313" lon="-118.393867">
  <ele>-0.119</ele>
  <time>2026-09-02T22:12:45Z</time>
  <course>187.92</course>
  <speed>0.022360679774997897</speed>
  <fix>3d</fix>
</trkpt>
<trkpt lat="33.810313" lon="-118.393867">
  <ele>-0.12</ele>
  <time>2026-09-02T22:12:45Z</time>
  <course>0.0</course>
  <speed>0.0</speed>
  <fix>3d</fix>
</trkpt>
<trkpt lat="33.810313" lon="-118.393867">
  <ele>-0.122</ele>
  <time>2026-09-02T22:12:45Z</time>
  <course>187.91</course>
  <speed>0.022360679774997897</speed>
  <fix>3d</fix>
</trkpt>
<trkpt lat="33.810313" lon="-118.393867">
  <ele>-0.12</ele>
  <time>2026-09-02T22:12:45Z</time>
  <course>0.0</course>
  <speed>0.0</speed>
  <fix>3d</fix>
</trkpt>
<trkpt lat="33.810313" lon="-118.393867">
  <ele>-0.124</ele>
  <time>2026-09-02T22:12:45Z</time>
  <course>187.91</course>
  <speed>0.022360679774997897</speed>
  <fix>3d</fix>
</trkpt>
<trkpt lat="33.810313" lon="-118.393867">
  <ele>-0.12</ele>
  <time>2026-09-02T22:12:45Z</time>
  <course>0.0</course>
  <speed>0.0</speed>
  <fix>3d</fix>
</trkpt>
<trkpt lat="33.810313" lon="-118.393867">
  <ele>-0.123</ele>
  <time>2026-09-02T22:12:45Z</time>
  <course>187.9</course>
  <speed>0.022360679774997897</speed>
  <fix>3d</fix>
</trkpt>
<trkpt lat="33.810313" lon="-118.393867">
  <ele>-0.12</ele>
  <time>2026-09-02T22:12:45Z</time>
  <course>0.0</course>
  <speed>0.0</speed>
  <fix>3d</fix>
</trkpt>
<trkpt lat="33.810313" lon="-118.393867">
  <ele>-0.123</ele>
  <time>2026-09-02T22:12:45Z</time>
  <course>187.89</course>
  <speed>0.022360679774997897</speed>
  <fix>3d</fix>
</trkpt>
<trkpt lat="33.810313" lon="-118.393867">
  <ele>-0.12</ele>
  <time>2026-09-02T22:12:45Z</time>
  <course>0.0</course>
  <speed>0.0</speed>
  <fix>3d</fix>
</trkpt>
<trkpt lat="33.810313" lon="-118.393867">
  <ele>-0.121</ele>
  <time>2026-09-02T22:12:45Z</time>
  <course>187.88</course>
  <speed>0.022360679774997897</speed>
  <fix>3d</fix>
</trkpt>
<trkpt lat="33.810313" lon="-118.393867">
  <ele>-0.12</ele>
  <time>2026-09-02T22:12:45Z</time>
  <course>0.0</course>
  <speed>0.0</speed>
  <fix>3d</fix>
</trkpt>
<trkpt lat="33.810313" lon="-118.393867">
  <ele>-0.12</ele>
  <time>2026-09-02T22:12:45Z</time>
  <course>187.88</course>
  <speed>0.022360679774997897</speed>
  <fix>3d</fix>
</trkpt>
<trkpt lat="33.810313" lon="-118.393867">
  <ele>-0.12</ele>
  <time>2026-09-02T22:12:45Z</time>
  <course>0.0</course>
  <speed>0.0</speed>
  <fix>3d</fix>
</trkpt>
<trkpt lat="33.810313" lon="-118.393867">
  <ele>-0.12</ele>
  <time>2026-09-02T22:12:45Z</time>
  <course>187.87</course>
  <speed>0.022360679774997897</speed>
  <fix>3d</fix>
</trkpt>
<trkpt lat="33.810313" lon="-118.393867">
  <ele>-0.12</ele>
  <time>2026-09-02T22:12:45Z</time>
  <course>0.0</course>
  <speed>0.0</speed>
  <fix>3d</fix>
</trkpt>
<trkpt lat="33.810313" lon="-118.393867">
  <ele>-0.121</ele>
  <time>2026-09-02T22:12:45Z</time>
  <course>187.86</course>
  <speed>0.022360679774997897</speed>
  <fix>3d</fix>
</trkpt>
<trkpt lat="33.810313" lon="-118.393867">
  <ele>-0.12</ele>
  <time>2026-09-02T22:12:45Z</time>
  <course>0.0</course>
  <speed>0.0</speed>
  <fix>3d</fix>
</trkpt>
<trkpt lat="33.810313" lon="-118.393867">
  <ele>-0.123</ele>
  <time>2026-09-02T22:12:45Z</time>
  <course>187.85</course>
  <speed>0.022360679774997897</speed>
  <fix>3d</fix>
</trkpt>
<trkpt lat="33.810313" lon="-118.393867">
  <ele>-0.12</ele>
  <time>2026-09-02T22:12:45Z</time>
  <course>0.0</course>
  <speed>0.0</speed>
  <fix>3d</fix>
</trkpt>
<trkpt lat="33.810313" lon="-118.393867">
  <ele>-0.126</ele>
  <time>2026-09-02T22:12:45Z</time>
  <course>187.84</course>
  <speed>0.022360679774997897</speed>
  <fix>3d</fix>
</trkpt>
<trkpt lat="33.810313" lon="-118.393867">
  <ele>-0.12</ele>
  <time>2026-09-02T22:12:45Z</time>
  <course>0.0</course>
  <speed>0.0</speed>
  <fix>3d</fix>
</trkpt>
<trkpt lat="33.810313" lon="-118.393867">
  <ele>-0.128</ele>
  <time>2026-09-02T22:12:45Z</time>
  <course>187.84</course>
  <speed>0.022360679774997897</speed>
  <fix>3d</fix>
</trkpt>
<trkpt lat="33.810313" lon="-118.393867">
  <ele>-0.12</ele>
  <time>2026-09-02T22:12:45Z</time>
  <course>0.0</course>
  <speed>0.0</speed>
  <fix>3d</fix>
</trkpt>
<trkpt lat="33.810313" lon="-118.393867">
  <ele>-0.129</ele>
  <time>2026-09-02T22:12:45Z</time>
  <course>187.83</course>
  <speed>0.022360679774997897</speed>
  <fix>3d</fix>
</trkpt>
<trkpt lat="33.810313" lon="-118.393867">
  <ele>-0.12</ele>
  <time>2026-09-02T22:12:45Z</time>
  <course>0.0</course>
  <speed>0.0</speed>
  <fix>3d</fix>
</trkpt>
<trkpt lat="33.810313" lon="-118.393867">
  <ele>-0.129</ele>
  <time>2026-09-02T22:12:45Z</time>
  <course>187.82</course>
  <speed>0.022360679774997897</speed>
  <fix>3d</fix>
</trkpt>
<trkpt lat="33.810313" lon="-118.393867">
  <ele>-0.12</ele>
  <time>2026-09-02T22:12:45Z</time>
  <course>0.0</course>
  <speed>0.0</speed>
  <fix>3d</fix>
</trkpt>
<trkpt lat="33.810313" lon="-118.393867">
  <ele>-0.128</ele>
  <time>2026-09-02T22:12:45Z</time>
  <course>187.81</course>
  <speed>0.022360679774997897</speed>
  <fix>3d</fix>
</trkpt>
<trkpt lat="33.810313" lon="-118.393867">
  <ele>-0.12</ele>
  <time>2026-09-02T22:12:45Z</time>
  <course>0.0</course>
  <speed>0.0</speed>
  <fix>3d</fix>
</trkpt>
<trkpt lat="33.810313" lon="-118.393867">
  <ele>-0.127</ele>
  <time>2026-09-02T22:12:45Z</time>
  <course>187.81</course>
  <speed>0.022360679774997897</speed>
  <fix>3d</fix>
</trkpt>
<trkpt lat="33.810313" lon="-118.393867">
  <ele>-0.12</ele>
  <time>2026-09-02T22:12:45Z</time>
  <course>0.0</course>
  <speed>0.0</speed>
  <fix>3d</fix>
</trkpt>
<trkpt lat="33.810313" lon="-118.393867">
  <ele>-0.125</ele>
  <time>2026-09-02T22:12:45Z</time>
  <course>187.8</course>
  <speed>0.022360679774997897</speed>
  <fix>3d</fix>
</trkpt>
<trkpt lat="33.810313" lon="-118.393867">
  <ele>-0.12</ele>
  <time>2026-09-02T22:12:45Z</time>
  <course>0.0</course>
  <speed>0.0</speed>
  <fix>3d</fix>
</trkpt>
<trkpt lat="33.810313" lon="-118.393867">
  <ele>-0.123</ele>
  <time>2026-09-02T22:12:45Z</time>
  <course>187.79</course>
  <speed>0.022360679774997897</speed>
  <fix>3d</fix>
</trkpt>
<trkpt lat="33.810313" lon="-118.393867">
  <ele>-0.12</ele>
  <time>2026-09-02T22:12:45Z</time>
  <course>0.0</course>
  <speed>0.0</speed>
  <fix>3d</fix>
</trkpt>
<trkpt lat="33.810313" lon="-118.393867">
  <ele>-0.121</ele>
  <time>2026-09-02T22:12:45Z</time>
  <course>187.78</course>
  <speed>0.022360679774997897</speed>
  <fix>3d</fix>
</trkpt>
<trkpt lat="33.810313" lon="-118.393867">
  <ele>-0.12</ele>
  <time>2026-09-02T22:12:45Z</time>
  <course>0.0</course>
  <speed>0.0</speed>
  <fix>3d</fix>
</trkpt>
<trkpt lat="33.810313" lon="-118.393867">
  <ele>-0.12</ele>
  <time>2026-09-02T22:12:45Z</time>
  <course>187.78</course>
  <speed>0.022360679774997897</speed>
  <fix>3d</fix>
</trkpt>
<trkpt lat="33.810313" lon="-118.393867">
  <ele>-0.12</ele>
  <time>2026-09-02T22:12:45Z</time>
  <course>0.0</course>
  <speed>0.0</speed>
  <fix>3d</fix>
</trkpt>
<trkpt lat="33.810313" lon="-118.393867">
  <ele>-0.119</ele>
  <time>2026-09-02T22:12:45Z</time>
  <course>187.77</course>
  <speed>0.022360679774997897</speed>
  <fix>3d</fix>
</trkpt>
<trkpt lat="33.810313" lon="-118.393867">
  <ele>-0.12</ele>
  <time>2026-09-02T22:12:45Z</time>
  <course>0.0</course>
  <speed>0.0</speed>
  <fix>3d</fix>
</trkpt>
<trkpt lat="33.810313" lon="-118.393867">
  <ele>-0.119</ele>
  <time>2026-09-02T22:12:45Z</time>
  <course>187.76</course>
  <speed>0.022360679774997897</speed>
  <fix>3d</fix>
</trkpt>
<trkpt lat="33.810313" lon="-118.393867">
  <ele>-0.12</ele>
  <time>2026-09-02T22:12:45Z</time>
  <course>0.0</course>
  <speed>0.0</speed>
  <fix>3d</fix>
</trkpt>
<trkpt lat="33.810313" lon="-118.393867">
  <ele>-0.118</ele>
  <time>2026-09-02T22:12:45Z</time>
  <course>187.75</course>
  <speed>0.022360679774997897</speed>
  <fix>3d</fix>
</trkpt>
<trkpt lat="33.810313" lon="-118.393867">
  <ele>-0.12</ele>
  <time>2026-09-02T22:12:45Z</time>
  <course>0.0</course>
  <speed>0.0</speed>
  <fix>3d</fix>
</trkpt>
<trkpt lat="33.810313" lon="-118.393867">
  <ele>-0.118</ele>
  <time>2026-09-02T22:12:45Z</time>
  <course>187.75</course>
  <speed>0.022360679774997897</speed>
  <fix>3d</fix>
</trkpt>
<trkpt lat="33.810313" lon="-118.393867">
  <ele>-0.12</ele>
  <time>2026-09-02T22:12:45Z</time>
  <course>0.0</course>
  <speed>0.0</speed>
  <fix>3d</fix>
</trkpt>
<trkpt lat="33.810313" lon="-118.393867">
  <ele>-0.117</ele>
  <time>2026-09-02T22:12:45Z</time>
  <course>187.74</course>
  <speed>0.022360679774997897</speed>
  <fix>3d</fix>
</trkpt>
<trkpt lat="33.810313" lon="-118.393867">
  <ele>-0.12</ele>
  <time>2026-09-02T22:12:45Z</time>
  <course>0.0</course>
  <speed>0.0</speed>
  <fix>3d</fix>
</trkpt>
<trkpt lat="33.810313" lon="-118.393867">
  <ele>-0.116</ele>
  <time>2026-09-02T22:12:45Z</time>
  <course>187.73</course>
  <speed>0.022360679774997897</speed>
  <fix>3d</fix>
</trkpt>
<trkpt lat="33.810313" lon="-118.393867">
  <ele>-0.12</ele>
  <time>2026-09-02T22:12:45Z</time>
  <course>0.0</course>
  <speed>0.0</speed>
  <fix>3d</fix>
</trkpt>
<trkpt lat="33.810313" lon="-118.393867">
  <ele>-0.113</ele>
  <time>2026-09-02T22:12:45Z</time>
  <course>187.72</course>
  <speed>0.022360679774997897</speed>
  <fix>3d</fix>
</trkpt>
<trkpt lat="33.810313" lon="-118.393867">
  <ele>-0.12</ele>
  <time>2026-09-02T22:12:45Z</time>
  <course>0.0</course>
  <speed>0.0</speed>
  <fix>3d</fix>
</trkpt>
<trkpt lat="33.810313" lon="-118.393867">
  <ele>-0.11</ele>
  <time>2026-09-02T22:12:45Z</time>
  <course>187.72</course>
  <speed>0.022360679774997897</speed>
  <fix>3d</fix>
</trkpt>
<trkpt lat="33.810313" lon="-118.393867">
  <ele>-0.12</ele>
  <time>2026-09-02T22:12:45Z</time>
  <course>0.0</course>
  <speed>0.0</speed>
  <fix>3d</fix>
</trkpt>
<trkpt lat="33.810313" lon="-118.393867">
  <ele>-0.107</ele>
  <time>2026-09-02T22:12:45Z</time>
  <course>187.71</course>
  <speed>0.022360679774997897</speed>
  <fix>3d</fix>
</trkpt>
<trkpt lat="33.810313" lon="-118.393867">
  <ele>-0.12</ele>
  <time>2026-09-02T22:12:45Z</time>
  <course>0.0</course>
  <speed>0.0</speed>
  <fix>3d</fix>
</trkpt>
<trkpt lat="33.810313" lon="-118.393867">
  <ele>-0.104</ele>
  <time>2026-09-02T22:12:45Z</time>
  <course>187.7</course>
  <speed>0.0282842712474619</speed>
  <fix>3d</fix>
</trkpt>
<trkpt lat="33.810313" lon="-118.393867">
  <ele>-0.12</ele>
  <time>2026-09-02T22:12:45Z</time>
  <course>0.0</course>
  <speed>0.0</speed>
  <fix>3d</fix>
</trkpt>
<trkpt lat="33.810313" lon="-118.393867">
  <ele>-0.102</ele>
  <time>2026-09-02T22:12:45Z</time>
  <course>187.69</course>
  <speed>0.0282842712474619</speed>
  <fix>3d</fix>
</trkpt>
<trkpt lat="33.810313" lon="-118.393867">
  <ele>-0.12</ele>
  <time>2026-09-02T22:12:45Z</time>
  <course>0.0</course>
  <speed>0.0</speed>
  <fix>3d</fix>
</trkpt>
<trkpt lat="33.810313" lon="-118.393867">
  <ele>-0.103</ele>
  <time>2026-09-02T22:12:45Z</time>
  <course>187.69</course>
  <speed>0.0282842712474619</speed>
  <fix>3d</fix>
</trkpt>
<trkpt lat="33.810313" lon="-118.393867">
  <ele>-0.12</ele>
  <time>2026-09-02T22:12:45Z</time>
  <course>0.0</course>
  <speed>0.0</speed>
  <fix>3d</fix>
</trkpt>
<trkpt lat="33.810313" lon="-118.393867">
  <ele>-0.104</ele>
  <time>2026-09-02T22:12:45Z</time>
  <course>187.68</course>
  <speed>0.0282842712474619</speed>
  <fix>3d</fix>
</trkpt>
<trkpt lat="33.810313" lon="-118.393867">
  <ele>-0.12</ele>
  <time>2026-09-02T22:12:45Z</time>
  <course>0.0</course>
  <speed>0.0</speed>
  <fix>3d</fix>
</trkpt>
<trkpt lat="33.810313" lon="-118.393867">
  <ele>-0.106</ele>
  <time>2026-09-02T22:12:45Z</time>
  <course>187.67</course>
  <speed>0.0282842712474619</speed>
  <fix>3d</fix>
</trkpt>
<trkpt lat="33.810313" lon="-118.393867">
  <ele>-0.12</ele>
  <time>2026-09-02T22:12:45Z</time>
  <course>0.0</course>
  <speed>0.0</speed>
  <fix>3d</fix>
</trkpt>
<trkpt lat="33.810313" lon="-118.393867">
  <ele>-0.107</ele>
  <time>2026-09-02T22:12:45Z</time>
  <course>187.67</course>
  <speed>0.0282842712474619</speed>
  <fix>3d</fix>
</trkpt>
<trkpt lat="33.810313" lon="-118.393867">
  <ele>-0.12</ele>
  <time>2026-09-02T22:12:45Z</time>
  <course>0.0</course>
  <speed>0.0</speed>
  <fix>3d</fix>
</trkpt>
<trkpt lat="33.810313" lon="-118.393867">
  <ele>-0.108</ele>
  <time>2026-09-02T22:12:45Z</time>
  <course>187.66</course>
  <speed>0.0282842712474619</speed>
  <fix>3d</fix>
</trkpt>
<trkpt lat="33.810313" lon="-118.393867">
  <ele>-0.12</ele>
  <time>2026-09-02T22:12:45Z</time>
  <course>0.0</course>
  <speed>0.0</speed>
  <fix>3d</fix>
</trkpt>
<trkpt lat="33.810313" lon="-118.393867">
  <ele>-0.109</ele>
  <time>2026-09-02T22:12:45Z</time>
  <course>187.65</course>
  <speed>0.0282842712474619</speed>
  <fix>3d</fix>
</trkpt>
<trkpt lat="33.810313" lon="-118.393867">
  <ele>-0.12</ele>
  <time>2026-09-02T22:12:45Z</time>
  <course>0.0</course>
  <speed>0.0</speed>
  <fix>3d</fix>
</trkpt>
<trkpt lat="33.810313" lon="-118.393867">
  <ele>-0.109</ele>
  <time>2026-09-02T22:12:45Z</time>
  <course>187.64</course>
  <speed>0.0282842712474619</speed>
  <fix>3d</fix>
</trkpt>
<trkpt lat="33.810313" lon="-118.393867">
  <ele>-0.12</ele>
  <time>2026-09-02T22:12:45Z</time>
  <course>0.0</course>
  <speed>0.0</speed>
  <fix>3d</fix>
</trkpt>
<trkpt lat="33.810313" lon="-118.393867">
  <ele>-0.11</ele>
  <time>2026-09-02T22:12:45Z</time>
  <course>187.64</course>
  <speed>0.0282842712474619</speed>
  <fix>3d</fix>
</trkpt>
<trkpt lat="33.810313" lon="-118.393867">
  <ele>-0.12</ele>
  <time>2026-09-02T22:12:45Z</time>
  <course>0.0</course>
  <speed>0.0</speed>
  <fix>3d</fix>
</trkpt>
<trkpt lat="33.810313" lon="-118.393867">
  <ele>-0.111</ele>
  <time>2026-09-02T22:12:45Z</time>
  <course>187.63</course>
  <speed>0.03605551275463989</speed>
  <fix>3d</fix>
</trkpt>
<trkpt lat="33.810313" lon="-118.393867">
  <ele>-0.12</ele>
  <time>2026-09-02T22:12:45Z</time>
  <course>0.0</course>
  <speed>0.0</speed>
  <fix>3d</fix>
</trkpt>
<trkpt lat="33.810313" lon="-118.393867">
  <ele>-0.11</ele>
  <time>2026-09-02T22:12:45Z</time>
  <course>187.63</course>
  <speed>0.03605551275463989</speed>
  <fix>3d</fix>
</trkpt>
<trkpt lat="33.810313" lon="-118.393867">
  <ele>-0.12</ele>
  <time>2026-09-02T22:12:45Z</time>
  <course>0.0</course>
  <speed>0.0</speed>
  <fix>3d</fix>
</trkpt>
<trkpt lat="33.810313" lon="-118.393867">
  <ele>-0.111</ele>
  <time>2026-09-02T22:12:45Z</time>
  <course>187.62</course>
  <speed>0.03605551275463989</speed>
  <fix>3d</fix>
</trkpt>
<trkpt lat="33.810313" lon="-118.393867">
  <ele>-0.12</ele>
  <time>2026-09-02T22:12:45Z</time>
  <course>0.0</course>
  <speed>0.0</speed>
  <fix>3d</fix>
</trkpt>
<trkpt lat="33.810313" lon="-118.393867">
  <ele>-0.114</ele>
  <time>2026-09-02T22:12:45Z</time>
  <course>187.61</course>
  <speed>0.03605551275463989</speed>
  <fix>3d</fix>
</trkpt>
<trkpt lat="33.810313" lon="-118.393867">
  <ele>-0.12</ele>
  <time>2026-09-02T22:12:45Z</time>
  <course>0.0</course>
  <speed>0.0</speed>
  <fix>3d</fix>
</trkpt>
<trkpt lat="33.810313" lon="-118.393867">
  <ele>-0.117</ele>
  <time>2026-09-02T22:12:45Z</time>
  <course>187.61</course>
  <speed>0.03605551275463989</speed>
  <fix>3d</fix>
</trkpt>
<trkpt lat="33.810313" lon="-118.393867">
  <ele>-0.12</ele>
  <time>2026-09-02T22:12:45Z</time>
  <course>0.0</course>
  <speed>0.0</speed>
  <fix>3d</fix>
</trkpt>
<trkpt lat="33.810313" lon="-118.393867">
  <ele>-0.119</ele>
  <time>2026-09-02T22:12:45Z</time>
  <course>187.6</course>
  <speed>0.03605551275463989</speed>
  <fix>3d</fix>
</trkpt>
<trkpt lat="33.810313" lon="-118.393867">
  <ele>-0.12</ele>
  <time>2026-09-02T22:12:45Z</time>
  <course>0.0</course>
  <speed>0.0</speed>
  <fix>3d</fix>
</trkpt>
<trkpt lat="33.810313" lon="-118.393867">
  <ele>-0.12</ele>
  <time>2026-09-02T22:12:45Z</time>
  <course>187.59</course>
  <speed>0.03605551275463989</speed>
  <fix>3d</fix>
</trkpt>
<trkpt lat="33.810313" lon="-118.393867">
  <ele>-0.12</ele>
  <time>2026-09-02T22:12:45Z</time>
  <course>0.0</course>
  <speed>0.0</speed>
  <fix>3d</fix>
</trkpt>
<trkpt lat="33.810313" lon="-118.393867">
  <ele>-0.121</ele>
  <time>2026-09-02T22:12:45Z</time>
  <course>187.59</course>
  <speed>0.03605551275463989</speed>
  <fix>3d</fix>
</trkpt>
<trkpt lat="33.810313" lon="-118.393867">
  <ele>-0.12</ele>
  <time>2026-09-02T22:12:45Z</time>
  <course>0.0</course>
  <speed>0.0</speed>
  <fix>3d</fix>
</trkpt>
<trkpt lat="33.810313" lon="-118.393867">
  <ele>-0.121</ele>
  <time>2026-09-02T22:12:45Z</time>
  <course>187.58</course>
  <speed>0.03605551275463989</speed>
  <fix>3d</fix>
</trkpt>
<trkpt lat="33.810313" lon="-118.393867">
  <ele>-0.12</ele>
  <time>2026-09-02T22:12:45Z</time>
  <course>0.0</course>
  <speed>0.0</speed>
  <fix>3d</fix>
</trkpt>
<trkpt lat="33.810313" lon="-118.393867">
  <ele>-0.121</ele>
  <time>2026-09-02T22:12:45Z</time>
  <course>187.57</course>
  <speed>0.03605551275463989</speed>
  <fix>3d</fix>
</trkpt>
<trkpt lat="33.810313" lon="-118.393867">
  <ele>-0.12</ele>
  <time>2026-09-02T22:12:45Z</time>
  <course>0.0</course>
  <speed>0.0</speed>
  <fix>3d</fix>
</trkpt>
<trkpt lat="33.810313" lon="-118.393867">
  <ele>-0.12</ele>
  <time>2026-09-02T22:12:45Z</time>
  <course>187.57</course>
  <speed>0.03605551275463989</speed>
  <fix>3d</fix>
</trkpt>
<trkpt lat="33.810313" lon="-118.393867">
  <ele>-0.12</ele>
  <time>2026-09-02T22:12:45Z</time>
  <course>0.0</course>
  <speed>0.0</speed>
  <fix>3d</fix>
</trkpt>
<trkpt lat="33.810313" lon="-118.393867">
  <ele>-0.119</ele>
  <time>2026-09-02T22:12:45Z</time>
  <course>187.56</course>
  <speed>0.03605551275463989</speed>
  <fix>3d</fix>
</trkpt>
<trkpt lat="33.810313" lon="-118.393867">
  <ele>-0.12</ele>
  <time>2026-09-02T22:12:45Z</time>
  <course>0.0</course>
  <speed>0.0</speed>
  <fix>3d</fix>
</trkpt>
<trkpt lat="33.810313" lon="-118.393867">
  <ele>-0.118</ele>
  <time>2026-09-02T22:12:45Z</time>
  <course>187.55</course>
  <speed>0.03605551275463989</speed>
  <fix>3d</fix>
</trkpt>
<trkpt lat="33.810313" lon="-118.393867">
  <ele>-0.12</ele>
  <time>2026-09-02T22:12:45Z</time>
  <course>0.0</course>
  <speed>0.0</speed>
  <fix>3d</fix>
</trkpt>
<trkpt lat="33.810313" lon="-118.393867">
  <ele>-0.117</ele>
  <time>2026-09-02T22:12:45Z</time>
  <course>187.55</course>
  <speed>0.03605551275463989</speed>
  <fix>3d</fix>
</trkpt>
<trkpt lat="33.810313" lon="-118.393867">
  <ele>-0.12</ele>
  <time>2026-09-02T22:12:45Z</time>
  <course>0.0</course>
  <speed>0.0</speed>
  <fix>3d</fix>
</trkpt>
<trkpt lat="33.810313" lon="-118.393867">
  <ele>-0.117</ele>
  <time>2026-09-02T22:12:45Z</time>
  <course>187.54</course>
  <speed>0.03605551275463989</speed>
  <fix>3d</fix>
</trkpt>
<trkpt lat="33.810313" lon="-118.393867">
  <ele>-0.12</ele>
  <time>2026-09-02T22:12:45Z</time>
  <course>0.0</course>
  <speed>0.0</speed>
  <fix>3d</fix>
</trkpt>
<trkpt lat="33.810313" lon="-118.393867">
  <ele>-0.118</ele>
  <time>2026-09-02T22:12:45Z</time>
  <course>187.53</course>
  <speed>0.03605551275463989</speed>
  <fix>3d</fix>
</trkpt>
<trkpt lat="33.810313" lon="-118.393867">
  <ele>-0.12</ele>
  <time>2026-09-02T22:12:45Z</time>
  <course>0.0</course>
  <speed>0.0</speed>
  <fix>3d</fix>
</trkpt>
<trkpt lat="33.810313" lon="-118.393867">
  <ele>-0.119</ele>
  <time>2026-09-02T22:12:45Z</time>
  <course>187.53</course>
  <speed>0.03605551275463989</speed>
  <fix>3d</fix>
</trkpt>
<trkpt lat="33.810313" lon="-118.393867">
  <ele>-0.12</ele>
  <time>2026-09-02T22:12:45Z</time>
  <course>0.0</course>
  <speed>0.0</speed>
  <fix>3d</fix>
</trkpt>
<trkpt lat="33.810313" lon="-118.393867">
  <ele>-0.119</ele>
  <time>2026-09-02T22:12:45Z</time>
  <course>187.52</course>
  <speed>0.03605551275463989</speed>
  <fix>3d</fix>
</trkpt>
<trkpt lat="33.810313" lon="-118.393867">
  <ele>-0.12</ele>
  <time>2026-09-02T22:12:45Z</time>
  <course>0.0</course>
  <speed>0.0</speed>
  <fix>3d</fix>
</trkpt>
<trkpt lat="33.810313" lon="-118.393867">
  <ele>-0.119</ele>
  <time>2026-09-02T22:12:45Z</time>
  <course>187.51</course>
  <speed>0.03605551275463989</speed>
  <fix>3d</fix>
</trkpt>
<trkpt lat="33.810313" lon="-118.393867">
  <ele>-0.12</ele>
  <time>2026-09-02T22:12:45Z</time>
  <course>0.0</course>
  <speed>0.0</speed>
  <fix>3d</fix>
</trkpt>
<trkpt lat="33.810313" lon="-118.393867">
  <ele>-0.118</ele>
  <time>2026-09-02T22:12:45Z</time>
  <course>187.51</course>
  <speed>0.03605551275463989</speed>
  <fix>3d</fix>
</trkpt>
<trkpt lat="33.810313" lon="-118.393867">
  <ele>-0.12</ele>
  <time>2026-09-02T22:12:45Z</time>
  <course>0.0</course>
  <speed>0.0</speed>
  <fix>3d</fix>
</trkpt>
<trkpt lat="33.810313" lon="-118.393867">
  <ele>-0.116</ele>
  <time>2026-09-02T22:12:45Z</time>
  <course>187.5</course>
  <speed>0.03605551275463989</speed>
  <fix>3d</fix>
</trkpt>
<trkpt lat="33.810313" lon="-118.393867">
  <ele>-0.12</ele>
  <time>2026-09-02T22:12:45Z</time>
  <course>0.0</course>
  <speed>0.0</speed>
  <fix>3d</fix>
</trkpt>
<trkpt lat="33.810313" lon="-118.393867">
  <ele>-0.114</ele>
  <time>2026-09-02T22:12:45Z</time>
  <course>187.49</course>
  <speed>0.03605551275463989</speed>
  <fix>3d</fix>
</trkpt>
<trkpt lat="33.810313" lon="-118.393867">
  <ele>-0.12</ele>
  <time>2026-09-02T22:12:45Z</time>
  <course>0.0</course>
  <speed>0.0</speed>
  <fix>3d</fix>
</trkpt>
<trkpt lat="33.810313" lon="-118.393867">
  <ele>-0.112</ele>
  <time>2026-09-02T22:12:45Z</time>
  <course>187.49</course>
  <speed>0.03605551275463989</speed>
  <fix>3d</fix>
</trkpt>
<trkpt lat="33.810313" lon="-118.393867">
  <ele>-0.12</ele>
  <time>2026-09-02T22:12:45Z</time>
  <course>0.0</course>
  <speed>0.0</speed>
  <fix>3d</fix>
</trkpt>
<trkpt lat="33.810313" lon="-118.393867">
  <ele>-0.111</ele>
  <time>2026-09-02T22:12:45Z</time>
  <course>187.48</course>
  <speed>0.03605551275463989</speed>
  <fix>3d</fix>
</trkpt>
<trkpt lat="33.810313" lon="-118.393867">
  <ele>-0.12</ele>
  <time>2026-09-02T22:12:45Z</time>
  <course>0.0</course>
  <speed>0.0</speed>
  <fix>3d</fix>
</trkpt>
<trkpt lat="33.810313" lon="-118.393867">
  <ele>-0.111</ele>
  <time>2026-09-02T22:12:45Z</time>
  <course>187.47</course>
  <speed>0.03605551275463989</speed>
  <fix>3d</fix>
</trkpt>
<trkpt lat="33.810313" lon="-118.393867">
  <ele>-0.12</ele>
  <time>2026-09-02T22:12:45Z</time>
  <course>0.0</course>
  <speed>0.0</speed>
  <fix>3d</fix>
</trkpt>
<trkpt lat="33.810313" lon="-118.393867">
  <ele>-0.111</ele>
  <time>2026-09-02T22:12:45Z</time>
  <course>187.47</course>
  <speed>0.03605551275463989</speed>
  <fix>3d</fix>
</trkpt>
<trkpt lat="33.810313" lon="-118.393867">
  <ele>-0.12</ele>
  <time>2026-09-02T22:12:45Z</time>
  <course>0.0</course>
  <speed>0.0</speed>
  <fix>3d</fix>
</trkpt>
<trkpt lat="33.810313" lon="-118.393867">
  <ele>-0.112</ele>
  <time>2026-09-02T22:12:45Z</time>
  <course>187.46</course>
  <speed>0.03605551275463989</speed>
  <fix>3d</fix>
</trkpt>
<trkpt lat="33.810313" lon="-118.393867">
  <ele>-0.12</ele>
  <time>2026-09-02T22:12:45Z</time>
  <course>0.0</course>
  <speed>0.0</speed>
  <fix>3d</fix>
</trkpt>
<trkpt lat="33.810313" lon="-118.393867">
  <ele>-0.113</ele>
  <time>2026-09-02T22:12:45Z</time>
  <course>187.46</course>
  <speed>0.03605551275463989</speed>
  <fix>3d</fix>
</trkpt>
<trkpt lat="33.810313" lon="-118.393867">
  <ele>-0.12</ele>
  <time>2026-09-02T22:12:45Z</time>
  <course>0.0</course>
  <speed>0.0</speed>
  <fix>3d</fix>
</trkpt>
<trkpt lat="33.810313" lon="-118.393867">
  <ele>-0.113</ele>
  <time>2026-09-02T22:12:45Z</time>
  <course>187.45</course>
  <speed>0.03605551275463989</speed>
  <fix>3d</fix>
</trkpt>
<trkpt lat="33.810313" lon="-118.393867">
  <ele>-0.12</ele>
  <time>2026-09-02T22:12:45Z</time>
  <course>0.0</course>
  <speed>0.0</speed>
  <fix>3d</fix>
</trkpt>
<trkpt lat="33.810313" lon="-118.393867">
  <ele>-0.113</ele>
  <time>2026-09-02T22:12:45Z</time>
  <course>187.44</course>
  <speed>0.03605551275463989</speed>
  <fix>3d</fix>
</trkpt>
<trkpt lat="33.810313" lon="-118.393867">
  <ele>-0.12</ele>
  <time>2026-09-02T22:12:45Z</time>
  <course>0.0</course>
  <speed>0.0</speed>
  <fix>3d</fix>
</trkpt>
<trkpt lat="33.810313" lon="-118.393867">
  <ele>-0.112</ele>
  <time>2026-09-02T22:12:45Z</time>
  <course>187.44</course>
  <speed>0.03605551275463989</speed>
  <fix>3d</fix>
</trkpt>
<trkpt lat="33.810313" lon="-118.393867">
  <ele>-0.12</ele>
  <time>2026-09-02T22:12:45Z</time>
  <course>0.0</course>
  <speed>0.0</speed>
  <fix>3d</fix>
</trkpt>
<trkpt lat="33.810313" lon="-118.393867">
  <ele>-0.111</ele>
  <time>2026-09-02T22:12:45Z</time>
  <course>187.43</course>
  <speed>0.03605551275463989</speed>
  <fix>3d</fix>
</trkpt>
<trkpt lat="33.810313" lon="-118.393867">
  <ele>-0.12</ele>
  <time>2026-09-02T22:12:45Z</time>
  <course>0.0</course>
  <speed>0.0</speed>
  <fix>3d</fix>
</trkpt>
<trkpt lat="33.810313" lon="-118.393867">
  <ele>-0.11</ele>
  <time>2026-09-02T22:12:45Z</time>
  <course>187.43</course>
  <speed>0.03605551275463989</speed>
  <fix>3d</fix>
</trkpt>
<trkpt lat="33.810313" lon="-118.393867">
  <ele>-0.12</ele>
  <time>2026-09-02T22:12:45Z</time>
  <course>0.0</course>
  <speed>0.0</speed>
  <fix>3d</fix>
</trkpt>
<trkpt lat="33.810313" lon="-118.393867">
  <ele>-0.109</ele>
  <time>2026-09-02T22:12:45Z</time>
  <course>187.42</course>
  <speed>0.03605551275463989</speed>
  <fix>3d</fix>
</trkpt>
<trkpt lat="33.810313" lon="-118.393867">
  <ele>-0.12</ele>
  <time>2026-09-02T22:12:45Z</time>
  <course>0.0</course>
  <speed>0.0</speed>
  <fix>3d</fix>
</trkpt>
<trkpt lat="33.810313" lon="-118.393867">
  <ele>-0.11</ele>
  <time>2026-09-02T22:12:45Z</time>
  <course>187.41</course>
  <speed>0.03605551275463989</speed>
  <fix>3d</fix>
</trkpt>
<trkpt lat="33.810313" lon="-118.393867">
  <ele>-0.12</ele>
  <time>2026-09-02T22:12:45Z</time>
  <course>0.0</course>
  <speed>0.0</speed>
  <fix>3d</fix>
</trkpt>
<trkpt lat="33.810313" lon="-118.393867">
  <ele>-0.111</ele>
  <time>2026-09-02T22:12:45Z</time>
  <course>187.41</course>
  <speed>0.03605551275463989</speed>
  <fix>3d</fix>
</trkpt>
<trkpt lat="33.810313" lon="-118.393867">
  <ele>-0.12</ele>
  <time>2026-09-02T22:12:45Z</time>
  <course>0.0</course>
  <speed>0.0</speed>
  <fix>3d</fix>
</trkpt>
<trkpt lat="33.810313" lon="-118.393867">
  <ele>-0.114</ele>
  <time>2026-09-02T22:12:45Z</time>
  <course>187.4</course>
  <speed>0.03605551275463989</speed>
  <fix>3d</fix>
</trkpt>
<trkpt lat="33.810313" lon="-118.393867">
  <ele>-0.12</ele>
  <time>2026-09-02T22:12:45Z</time>
  <course>0.0</course>
  <speed>0.0</speed>
  <fix>3d</fix>
</trkpt>
<trkpt lat="33.810313" lon="-118.393867">
  <ele>-0.116</ele>
  <time>2026-09-02T22:12:45Z</time>
  <course>187.39</course>
  <speed>0.03605551275463989</speed>
  <fix>3d</fix>
</trkpt>
<trkpt lat="33.810313" lon="-118.393867">
  <ele>-0.12</ele>
  <time>2026-09-02T22:12:45Z</time>
  <course>0.0</course>
  <speed>0.0</speed>
  <fix>3d</fix>
</trkpt>
<trkpt lat="33.810313" lon="-118.393867">
  <ele>-0.118</ele>
  <time>2026-09-02T22:12:45Z</time>
  <course>187.39</course>
  <speed>0.03605551275463989</speed>
  <fix>3d</fix>
</trkpt>
<trkpt lat="33.810313" lon="-118.393867">
  <ele>-0.12</ele>
  <time>2026-09-02T22:12:45Z</time>
  <course>0.0</course>
  <speed>0.0</speed>
  <fix>3d</fix>
</trkpt>
<trkpt lat="33.810313" lon="-118.393867">
  <ele>-0.118</ele>
  <time>2026-09-02T22:12:45Z</time>
  <course>187.38</course>
  <speed>0.03605551275463989</speed>
  <fix>3d</fix>
</trkpt>
<trkpt lat="33.810313" lon="-118.393867">
  <ele>-0.12</ele>
  <time>2026-09-02T22:12:45Z</time>
  <course>0.0</course>
  <speed>0.0</speed>
  <fix>3d</fix>
</trkpt>
<trkpt lat="33.810313" lon="-118.393867">
  <ele>-0.117</ele>
  <time>2026-09-02T22:12:45Z</time>
  <course>187.38</course>
  <speed>0.03605551275463989</speed>
  <fix>3d</fix>
</trkpt>
<trkpt lat="33.810313" lon="-118.393867">
  <ele>-0.12</ele>
  <time>2026-09-02T22:12:45Z</time>
  <course>0.0</course>
  <speed>0.0</speed>
  <fix>3d</fix>
</trkpt>
<trkpt lat="33.810313" lon="-118.393867">
  <ele>-0.116</ele>
  <time>2026-09-02T22:12:45Z</time>
  <course>187.37</course>
  <speed>0.03605551275463989</speed>
  <fix>3d</fix>
</trkpt>
<trkpt lat="33.810313" lon="-118.393867">
  <ele>-0.12</ele>
  <time>2026-09-02T22:12:45Z</time>
  <course>0.0</course>
  <speed>0.0</speed>
  <fix>3d</fix>
</trkpt>
<trkpt lat="33.810313" lon="-118.393867">
  <ele>-0.115</ele>
  <time>2026-09-02T22:12:45Z</time>
  <course>187.36</course>
  <speed>0.03605551275463989</speed>
  <fix>3d</fix>
</trkpt>
<trkpt lat="33.810313" lon="-118.393867">
  <ele>-0.12</ele>
  <time>2026-09-02T22:12:45Z</time>
  <course>0.0</course>
  <speed>0.0</speed>
  <fix>3d</fix>
</trkpt>
<trkpt lat="33.810313" lon="-118.393867">
  <ele>-0.115</ele>
  <time>2026-09-02T22:12:45Z</time>
  <course>187.36</course>
  <speed>0.03605551275463989</speed>
  <fix>3d</fix>
</trkpt>
<trkpt lat="33.810313" lon="-118.393867">
  <ele>-0.12</ele>
  <time>2026-09-02T22:12:45Z</time>
  <course>0.0</course>
  <speed>0.0</speed>
  <fix>3d</fix>
</trkpt>
<trkpt lat="33.810313" lon="-118.393867">
  <ele>-0.115</ele>
  <time>2026-09-02T22:12:45Z</time>
  <course>187.35</course>
  <speed>0.03605551275463989</speed>
  <fix>3d</fix>
</trkpt>
<trkpt lat="33.810313" lon="-118.393867">
  <ele>-0.12</ele>
  <time>2026-09-02T22:12:45Z</time>
  <course>0.0</course>
  <speed>0.0</speed>
  <fix>3d</fix>
</trkpt>
<trkpt lat="33.810313" lon="-118.393867">
  <ele>-0.114</ele>
  <time>2026-09-02T22:12:45Z</time>
  <course>187.35</course>
  <speed>0.03605551275463989</speed>
  <fix>3d</fix>
</trkpt>
<trkpt lat="33.810313" lon="-118.393867">
  <ele>-0.12</ele>
  <time>2026-09-02T22:12:45Z</time>
  <course>0.0</course>
  <speed>0.0</speed>
  <fix>3d</fix>
</trkpt>
<trkpt lat="33.810313" lon="-118.393867">
  <ele>-0.114</ele>
  <time>2026-09-02T22:12:45Z</time>
  <course>187.34</course>
  <speed>0.03605551275463989</speed>
  <fix>3d</fix>
</trkpt>
<trkpt lat="33.810313" lon="-118.393867">
  <ele>-0.12</ele>
  <time>2026-09-02T22:12:45Z</time>
  <course>0.0</course>
  <speed>0.0</speed>
  <fix>3d</fix>
</trkpt>
<trkpt lat="33.810313" lon="-118.393867">
  <ele>-0.114</ele>
  <time>2026-09-02T22:12:45Z</time>
  <course>187.34</course>
  <speed>0.03605551275463989</speed>
  <fix>3d</fix>
</trkpt>
<trkpt lat="33.810313" lon="-118.393867">
  <ele>-0.12</ele>
  <time>2026-09-02T22:12:45Z</time>
  <course>0.0</course>
  <speed>0.0</speed>
  <fix>3d</fix>
</trkpt>
<trkpt lat="33.810313" lon="-118.393867">
  <ele>-0.114</ele>
  <time>2026-09-02T22:12:45Z</time>
  <course>187.33</course>
  <speed>0.03605551275463989</speed>
  <fix>3d</fix>
</trkpt>
<trkpt lat="33.810313" lon="-118.393867">
  <ele>-0.12</ele>
  <time>2026-09-02T22:12:45Z</time>
  <course>0.0</course>
  <speed>0.0</speed>
  <fix>3d</fix>
</trkpt>
<trkpt lat="33.810313" lon="-118.393867">
  <ele>-0.113</ele>
  <time>2026-09-02T22:12:45Z</time>
  <course>187.32</course>
  <speed>0.03605551275463989</speed>
  <fix>3d</fix>
</trkpt>
<trkpt lat="33.810313" lon="-118.393867">
  <ele>-0.12</ele>
  <time>2026-09-02T22:12:45Z</time>
  <course>0.0</course>
  <speed>0.0</speed>
  <fix>3d</fix>
</trkpt>
<trkpt lat="33.810313" lon="-118.393867">
  <ele>-0.113</ele>
  <time>2026-09-02T22:12:45Z</time>
  <course>187.32</course>
  <speed>0.03605551275463989</speed>
  <fix>3d</fix>
</trkpt>
<trkpt lat="33.810313" lon="-118.393867">
  <ele>-0.12</ele>
  <time>2026-09-02T22:12:45Z</time>
  <course>0.0</course>
  <speed>0.0</speed>
  <fix>3d</fix>
</trkpt>
<trkpt lat="33.810313" lon="-118.393867">
  <ele>-0.112</ele>
  <time>2026-09-02T22:12:45Z</time>
  <course>187.31</course>
  <speed>0.03605551275463989</speed>
  <fix>3d</fix>
</trkpt>
<trkpt lat="33.810313" lon="-118.393867">
  <ele>-0.12</ele>
  <time>2026-09-02T22:12:45Z</time>
  <course>0.0</course>
  <speed>0.0</speed>
  <fix>3d</fix>
</trkpt>
<trkpt lat="33.810313" lon="-118.393867">
  <ele>-0.11</ele>
  <time>2026-09-02T22:12:45Z</time>
  <course>187.31</course>
  <speed>0.03605551275463989</speed>
  <fix>3d</fix>
</trkpt>
<trkpt lat="33.810313" lon="-118.393867">
  <ele>-0.12</ele>
  <time>2026-09-02T22:12:45Z</time>
  <course>0.0</course>
  <speed>0.0</speed>
  <fix>3d</fix>
</trkpt>
<trkpt lat="33.810313" lon="-118.393867">
  <ele>-0.107</ele>
  <time>2026-09-02T22:12:45Z</time>
  <course>187.3</course>
  <speed>0.03605551275463989</speed>
  <fix>3d</fix>
</trkpt>
<trkpt lat="33.810313" lon="-118.393867">
  <ele>-0.12</ele>
  <time>2026-09-02T22:12:45Z</time>
  <course>0.0</course>
  <speed>0.0</speed>
  <fix>3d</fix>
</trkpt>
<trkpt lat="33.810313" lon="-118.393867">
  <ele>-0.106</ele>
  <time>2026-09-02T22:12:45Z</time>
  <course>187.3</course>
  <speed>0.03605551275463989</speed>
  <fix>3d</fix>
</trkpt>
<trkpt lat="33.810313" lon="-118.393867">
  <ele>-0.12</ele>
  <time>2026-09-02T22:12:45Z</time>
  <course>0.0</course>
  <speed>0.0</speed>
  <fix>3d</fix>
</trkpt>
<trkpt lat="33.810313" lon="-118.393867">
  <ele>-0.105</ele>
  <time>2026-09-02T22:12:45Z</time>
  <course>187.29</course>
  <speed>0.03605551275463989</speed>
  <fix>3d</fix>
</trkpt>
<trkpt lat="33.810313" lon="-118.393867">
  <ele>-0.12</ele>
  <time>2026-09-02T22:12:45Z</time>
  <course>0.0</course>
  <speed>0.0</speed>
  <fix>3d</fix>
</trkpt>
<trkpt lat="33.810313" lon="-118.393867">
  <ele>-0.106</ele>
  <time>2026-09-02T22:12:45Z</time>
  <course>187.29</course>
  <speed>0.03605551275463989</speed>
  <fix>3d</fix>
</trkpt>
<trkpt lat="33.810313" lon="-118.393867">
  <ele>-0.12</ele>
  <time>2026-09-02T22:12:45Z</time>
  <course>0.0</course>
  <speed>0.0</speed>
  <fix>3d</fix>
</trkpt>
<trkpt lat="33.810313" lon="-118.393867">
  <ele>-0.108</ele>
  <time>2026-09-02T22:12:45Z</time>
  <course>187.28</course>
  <speed>0.03605551275463989</speed>
  <fix>3d</fix>
</trkpt>
<trkpt lat="33.810313" lon="-118.393867">
  <ele>-0.12</ele>
  <time>2026-09-02T22:12:45Z</time>
  <course>0.0</course>
  <speed>0.0</speed>
  <fix>3d</fix>
</trkpt>
<trkpt lat="33.810313" lon="-118.393867">
  <ele>-0.109</ele>
  <time>2026-09-02T22:12:45Z</time>
  <course>187.27</course>
  <speed>0.03605551275463989</speed>
  <fix>3d</fix>
</trkpt>
<trkpt lat="33.810313" lon="-118.393867">
  <ele>-0.12</ele>
  <time>2026-09-02T22:12:45Z</time>
  <course>0.0</course>
  <speed>0.0</speed>
  <fix>3d</fix>
</trkpt>
<trkpt lat="33.810313" lon="-118.393867">
  <ele>-0.11</ele>
  <time>2026-09-02T22:12:45Z</time>
  <course>187.27</course>
  <speed>0.03605551275463989</speed>
  <fix>3d</fix>
</trkpt>
<trkpt lat="33.810313" lon="-118.393867">
  <ele>-0.12</ele>
  <time>2026-09-02T22:12:45Z</time>
  <course>0.0</course>
  <speed>0.0</speed>
  <fix>3d</fix>
</trkpt>
<trkpt lat="33.810313" lon="-118.393867">
  <ele>-0.112</ele>
  <time>2026-09-02T22:12:45Z</time>
  <course>187.26</course>
  <speed>0.03605551275463989</speed>
  <fix>3d</fix>
</trkpt>
<trkpt lat="33.810313" lon="-118.393867">
  <ele>-0.12</ele>
  <time>2026-09-02T22:12:45Z</time>
  <course>0.0</course>
  <speed>0.0</speed>
  <fix>3d</fix>
</trkpt>
<trkpt lat="33.810313" lon="-118.393867">
  <ele>-0.113</ele>
  <time>2026-09-02T22:12:45Z</time>
  <course>187.26</course>
  <speed>0.03605551275463989</speed>
  <fix>3d</fix>
</trkpt>
<trkpt lat="33.810313" lon="-118.393867">
  <ele>-0.12</ele>
  <time>2026-09-02T22:12:45Z</time>
  <course>0.0</course>
  <speed>0.0</speed>
  <fix>3d</fix>
</trkpt>
<trkpt lat="33.810313" lon="-118.393867">
  <ele>-0.114</ele>
  <time>2026-09-02T22:12:45Z</time>
  <course>187.25</course>
  <speed>0.03605551275463989</speed>
  <fix>3d</fix>
</trkpt>
<trkpt lat="33.810313" lon="-118.393867">
  <ele>-0.12</ele>
  <time>2026-09-02T22:12:45Z</time>
  <course>0.0</course>
  <speed>0.0</speed>
  <fix>3d</fix>
</trkpt>
<trkpt lat="33.810313" lon="-118.393867">
  <ele>-0.116</ele>
  <time>2026-09-02T22:12:45Z</time>
  <course>187.25</course>
  <speed>0.03605551275463989</speed>
  <fix>3d</fix>
</trkpt>
<trkpt lat="33.810313" lon="-118.393867">
  <ele>-0.12</ele>
  <time>2026-09-02T22:12:45Z</time>
  <course>0.0</course>
  <speed>0.0</speed>
  <fix>3d</fix>
</trkpt>
<trkpt lat="33.810313" lon="-118.393867">
  <ele>-0.117</ele>
  <time>2026-09-02T22:12:45Z</time>
  <course>187.24</course>
  <speed>0.03605551275463989</speed>
  <fix>3d</fix>
</trkpt>
<trkpt lat="33.810313" lon="-118.393867">
  <ele>-0.12</ele>
  <time>2026-09-02T22:12:45Z</time>
  <course>0.0</course>
  <speed>0.0</speed>
  <fix>3d</fix>
</trkpt>
<trkpt lat="33.810313" lon="-118.393867">
  <ele>-0.117</ele>
  <time>2026-09-02T22:12:45Z</time>
  <course>187.24</course>
  <speed>0.03605551275463989</speed>
  <fix>3d</fix>
</trkpt>
<trkpt lat="33.810313" lon="-118.393867">
  <ele>-0.12</ele>
  <time>2026-09-02T22:12:45Z</time>
  <course>0.0</course>
  <speed>0.0</speed>
  <fix>3d</fix>
</trkpt>
<trkpt lat="33.810313" lon="-118.393867">
  <ele>-0.118</ele>
  <time>2026-09-02T22:12:45Z</time>
  <course>187.23</course>
  <speed>0.03605551275463989</speed>
  <fix>3d</fix>
</trkpt>
<trkpt lat="33.810313" lon="-118.393867">
  <ele>-0.12</ele>
  <time>2026-09-02T22:12:45Z</time>
  <course>0.0</course>
  <speed>0.0</speed>
  <fix>3d</fix>
</trkpt>
<trkpt lat="33.810313" lon="-118.393867">
  <ele>-0.12</ele>
  <time>2026-09-02T22:12:45Z</time>
  <course>187.23</course>
  <speed>0.03605551275463989</speed>
  <fix>3d</fix>
</trkpt>
<trkpt lat="33.810313" lon="-118.393867">
  <ele>-0.12</ele>
  <time>2026-09-02T22:12:45Z</time>
  <course>0.0</course>
  <speed>0.0</speed>
  <fix>3d</fix>
</trkpt>
<trkpt lat="33.810313" lon="-118.393867">
  <ele>-0.122</ele>
  <time>2026-09-02T22:12:45Z</time>
  <course>187.22</course>
  <speed>0.03605551275463989</speed>
  <fix>3d</fix>
</trkpt>
<trkpt lat="33.810313" lon="-118.393867">
  <ele>-0.12</ele>
  <time>2026-09-02T22:12:45Z</time>
  <course>0.0</course>
  <speed>0.0</speed>
  <fix>3d</fix>
</trkpt>
<trkpt lat="33.810313" lon="-118.393867">
  <ele>-0.123</ele>
  <time>2026-09-02T22:12:45Z</time>
  <course>187.22</course>
  <speed>0.03605551275463989</speed>
  <fix>3d</fix>
</trkpt>
<trkpt lat="33.810313" lon="-118.393867">
  <ele>-0.12</ele>
  <time>2026-09-02T22:12:45Z</time>
  <course>0.0</course>
  <speed>0.0</speed>
  <fix>3d</fix>
</trkpt>
<trkpt lat="33.810313" lon="-118.393867">
  <ele>-0.124</ele>
  <time>2026-09-02T22:12:45Z</time>
  <course>187.21</course>
  <speed>0.03605551275463989</speed>
  <fix>3d</fix>
</trkpt>
<trkpt lat="33.810313" lon="-118.393867">
  <ele>-0.12</ele>
  <time>2026-09-02T22:12:45Z</time>
  <course>0.0</course>
  <speed>0.0</speed>
  <fix>3d</fix>
</trkpt>
<trkpt lat="33.810313" lon="-118.393867">
  <ele>-0.123</ele>
  <time>2026-09-02T22:12:45Z</time>
  <course>187.21</course>
  <speed>0.03605551275463989</speed>
  <fix>3d</fix>
</trkpt>
<trkpt lat="33.810313" lon="-118.393867">
  <ele>-0.12</ele>
  <time>2026-09-02T22:12:45Z</time>
  <course>0.0</course>
  <speed>0.0</speed>
  <fix>3d</fix>
</trkpt>
<trkpt lat="33.810313" lon="-118.393867">
  <ele>-0.121</ele>
  <time>2026-09-02T22:12:45Z</time>
  <course>187.2</course>
  <speed>0.03605551275463989</speed>
  <fix>3d</fix>
</trkpt>
<trkpt lat="33.810313" lon="-118.393867">
  <ele>-0.12</ele>
  <time>2026-09-02T22:12:45Z</time>
  <course>0.0</course>
  <speed>0.0</speed>
  <fix>3d</fix>
</trkpt>
<trkpt lat="33.810313" lon="-118.393867">
  <ele>-0.119</ele>
  <time>2026-09-02T22:12:45Z</time>
  <course>187.2</course>
  <speed>0.03605551275463989</speed>
  <fix>3d</fix>
</trkpt>
<trkpt lat="33.810313" lon="-118.393867">
  <ele>-0.12</ele>
  <time>2026-09-02T22:12:45Z</time>
  <course>0.0</course>
  <speed>0.0</speed>
  <fix>3d</fix>
</trkpt>
<trkpt lat="33.810313" lon="-118.393867">
  <ele>-0.117</ele>
  <time>2026-09-02T22:12:45Z</time>
  <course>187.19</course>
  <speed>0.03605551275463989</speed>
  <fix>3d</fix>
</trkpt>
<trkpt lat="33.810313" lon="-118.393867">
  <ele>-0.12</ele>
  <time>2026-09-02T22:12:45Z</time>
  <course>0.0</course>
  <speed>0.0</speed>
  <fix>3d</fix>
</trkpt>
<trkpt lat="33.810313" lon="-118.393867">
  <ele>-0.115</ele>
  <time>2026-09-02T22:12:45Z</time>
  <course>187.18</course>
  <speed>0.03605551275463989</speed>
  <fix>3d</fix>
</trkpt>
<trkpt lat="33.810313" lon="-118.393867">
  <ele>-0.12</ele>
  <time>2026-09-02T22:12:45Z</time>
  <course>0.0</course>
  <speed>0.0</speed>
  <fix>3d</fix>
</trkpt>
<trkpt lat="33.810313" lon="-118.393867">
  <ele>-0.114</ele>
  <time>2026-09-02T22:12:45Z</time>
  <course>187.18</course>
  <speed>0.03605551275463989</speed>
  <fix>3d</fix>
</trkpt>
<trkpt lat="33.810313" lon="-118.393867">
  <ele>-0.12</ele>
  <time>2026-09-02T22:12:45Z</time>
  <course>0.0</course>
  <speed>0.0</speed>
  <fix>3d</fix>
</trkpt>
<trkpt lat="33.810313" lon="-118.393867">
  <ele>-0.114</ele>
  <time>2026-09-02T22:12:45Z</time>
  <course>187.17</course>
  <speed>0.03605551275463989</speed>
  <fix>3d</fix>
</trkpt>
<trkpt lat="33.810313" lon="-118.393867">
  <ele>-0.12</ele>
  <time>2026-09-02T22:12:45Z</time>
  <course>0.0</course>
  <speed>0.0</speed>
  <fix>3d</fix>
</trkpt>
<trkpt lat="33.810313" lon="-118.393867">
  <ele>-0.115</ele>
  <time>2026-09-02T22:12:45Z</time>
  <course>187.17</course>
  <speed>0.0</speed>
  <fix>3d</fix>
</trkpt>
<trkpt lat="33.810313" lon="-118.393867">
  <ele>-0.12</ele>
  <time>2026-09-02T22:12:45Z</time>
  <course>0.0</course>
  <speed>0.0</speed>
  <fix>3d</fix>
</trkpt>
<trkpt lat="33.810313" lon="-118.393867">
  <ele>-0.116</ele>
  <time>2026-09-02T22:12:45Z</time>
  <course>187.16</course>
  <speed>0.0</speed>
  <fix>3d</fix>
</trkpt>
<trkpt lat="33.810313" lon="-118.393867">
  <ele>-0.12</ele>
  <time>2026-09-02T22:12:45Z</time>
  <course>0.0</course>
  <speed>0.0</speed>
  <fix>3d</fix>
</trkpt>
<trkpt lat="33.810313" lon="-118.393867">
  <ele>-0.117</ele>
  <time>2026-09-02T22:12:45Z</time>
  <course>187.16</course>
  <speed>0.0</speed>
  <fix>3d</fix>
</trkpt>
<trkpt lat="33.810313" lon="-118.393867">
  <ele>-0.12</ele>
  <time>2026-09-02T22:12:45Z</time>
  <course>0.0</course>
  <speed>0.0</speed>
  <fix>3d</fix>
</trkpt>
<trkpt lat="33.810313" lon="-118.393867">
  <ele>-0.117</ele>
  <time>2026-09-02T22:12:45Z</time>
  <course>187.15</course>
  <speed>0.0</speed>
  <fix>3d</fix>
</trkpt>
<trkpt lat="33.810313" lon="-118.393867">
  <ele>-0.12</ele>
  <time>2026-09-02T22:12:45Z</time>
  <course>0.0</course>
  <speed>0.0</speed>
  <fix>3d</fix>
</trkpt>
<trkpt lat="33.810313" lon="-118.393867">
  <ele>-0.116</ele>
  <time>2026-09-02T22:12:45Z</time>
  <course>187.15</course>
  <speed>0.0</speed>
  <fix>3d</fix>
</trkpt>
<trkpt lat="33.810313" lon="-118.393867">
  <ele>-0.12</ele>
  <time>2026-09-02T22:12:45Z</time>
  <course>0.0</course>
  <speed>0.0</speed>
  <fix>3d</fix>
</trkpt>
<trkpt lat="33.810313" lon="-118.393867">
  <ele>-0.115</ele>
  <time>2026-09-02T22:12:45Z</time>
  <course>187.14</course>
  <speed>0.0</speed>
  <fix>3d</fix>
</trkpt>
<trkpt lat="33.810313" lon="-118.393867">
  <ele>-0.12</ele>
  <time>2026-09-02T22:12:45Z</time>
  <course>0.0</course>
  <speed>0.0</speed>
  <fix>3d</fix>
</trkpt>
<trkpt lat="33.810313" lon="-118.393867">
  <ele>-0.114</ele>
  <time>2026-09-02T22:12:45Z</time>
  <course>187.14</course>
  <speed>0.0</speed>
  <fix>3d</fix>
</trkpt>
<trkpt lat="33.810313" lon="-118.393867">
  <ele>-0.12</ele>
  <time>2026-09-02T22:12:45Z</time>
  <course>0.0</course>
  <speed>0.0</speed>
  <fix>3d</fix>
</trkpt>
<trkpt lat="33.810313" lon="-118.393867">
  <ele>-0.113</ele>
  <time>2026-09-02T22:12:45Z</time>
  <course>187.13</course>
  <speed>0.0</speed>
  <fix>3d</fix>
</trkpt>
<trkpt lat="33.810313" lon="-118.393867">
  <ele>-0.12</ele>
  <time>2026-09-02T22:12:45Z</time>
  <course>0.0</course>
  <speed>0.0</speed>
  <fix>3d</fix>
</trkpt>
<trkpt lat="33.810313" lon="-118.393867">
  <ele>-0.112</ele>
  <time>2026-09-02T22:12:45Z</time>
  <course>187.13</course>
  <speed>0.0</speed>
  <fix>3d</fix>
</trkpt>
<trkpt lat="33.810313" lon="-118.393867">
  <ele>-0.12</ele>
  <time>2026-09-02T22:12:45Z</time>
  <course>0.0</course>
  <speed>0.0</speed>
  <fix>3d</fix>
</trkpt>
<trkpt lat="33.810313" lon="-118.393867">
  <ele>-0.112</ele>
  <time>2026-09-02T22:12:45Z</time>
  <course>187.12</course>
  <speed>0.0</speed>
  <fix>3d</fix>
</trkpt>
<trkpt lat="33.810313" lon="-118.393867">
  <ele>-0.12</ele>
  <time>2026-09-02T22:12:45Z</time>
  <course>0.0</course>
  <speed>0.0</speed>
  <fix>3d</fix>
</trkpt>
<trkpt lat="33.810313" lon="-118.393867">
  <ele>-0.111</ele>
  <time>2026-09-02T22:12:45Z</time>
  <course>187.12</course>
  <speed>0.0</speed>
  <fix>3d</fix>
</trkpt>
<trkpt lat="33.810313" lon="-118.393867">
  <ele>-0.12</ele>
  <time>2026-09-02T22:12:45Z</time>
  <course>0.0</course>
  <speed>0.0</speed>
  <fix>3d</fix>
</trkpt>
<trkpt lat="33.810313" lon="-118.393867">
  <ele>-0.111</ele>
  <time>2026-09-02T22:12:46Z</time>
  <course>187.12</course>
  <speed>0.01</speed>
  <fix>3d</fix>
</trkpt>
<trkpt lat="33.810313" lon="-118.393867">
  <ele>-0.12</ele>
  <time>2026-09-02T22:12:46Z</time>
  <course>0.0</course>
  <speed>0.0</speed>
  <fix>3d</fix>
</trkpt>
<trkpt lat="33.810313" lon="-118.393867">
  <ele>-0.112</ele>
  <time>2026-09-02T22:12:46Z</time>
  <course>187.11</course>
  <speed>0.01</speed>
  <fix>3d</fix>
</trkpt>
<trkpt lat="33.810313" lon="-118.393867">
  <ele>-0.12</ele>
  <time>2026-09-02T22:12:46Z</time>
  <course>0.0</course>
  <speed>0.0</speed>
  <fix>3d</fix>
</trkpt>
<trkpt lat="33.810313" lon="-118.393867">
  <ele>-0.112</ele>
  <time>2026-09-02T22:12:46Z</time>
  <course>187.11</course>
  <speed>0.01</speed>
  <fix>3d</fix>
</trkpt>
<trkpt lat="33.810313" lon="-118.393867">
  <ele>-0.12</ele>
  <time>2026-09-02T22:12:46Z</time>
  <course>0.0</course>
  <speed>0.0</speed>
  <fix>3d</fix>
</trkpt>
<trkpt lat="33.810313" lon="-118.393867">
  <ele>-0.112</ele>
  <time>2026-09-02T22:12:46Z</time>
  <course>187.1</course>
  <speed>0.01414213562373095</speed>
  <fix>3d</fix>
</trkpt>
<trkpt lat="33.810313" lon="-118.393867">
  <ele>-0.12</ele>
  <time>2026-09-02T22:12:46Z</time>
  <course>0.0</course>
  <speed>0.0</speed>
  <fix>3d</fix>
</trkpt>
<trkpt lat="33.810313" lon="-118.393867">
  <ele>-0.112</ele>
  <time>2026-09-02T22:12:46Z</time>
  <course>187.1</course>
  <speed>0.01414213562373095</speed>
  <fix>3d</fix>
</trkpt>
<trkpt lat="33.810313" lon="-118.393867">
  <ele>-0.12</ele>
  <time>2026-09-02T22:12:46Z</time>
  <course>0.0</course>
  <speed>0.0</speed>
  <fix>3d</fix>
</trkpt>
<trkpt lat="33.810313" lon="-118.393867">
  <ele>-0.113</ele>
  <time>2026-09-02T22:12:46Z</time>
  <course>187.09</course>
  <speed>0.01414213562373095</speed>
  <fix>3d</fix>
</trkpt>
<trkpt lat="33.810313" lon="-118.393867">
  <ele>-0.12</ele>
  <time>2026-09-02T22:12:46Z</time>
  <course>0.0</course>
  <speed>0.0</speed>
  <fix>3d</fix>
</trkpt>
<trkpt lat="33.810313" lon="-118.393867">
  <ele>-0.113</ele>
  <time>2026-09-02T22:12:46Z</time>
  <course>187.09</course>
  <speed>0.01414213562373095</speed>
  <fix>3d</fix>
</trkpt>
<trkpt lat="33.810313" lon="-118.393867">
  <ele>-0.12</ele>
  <time>2026-09-02T22:12:46Z</time>
  <course>0.0</course>
  <speed>0.0</speed>
  <fix>3d</fix>
</trkpt>
<trkpt lat="33.810313" lon="-118.393867">
  <ele>-0.114</ele>
  <time>2026-09-02T22:12:46Z</time>
  <course>187.08</course>
  <speed>0.01414213562373095</speed>
  <fix>3d</fix>
</trkpt>
<trkpt lat="33.810313" lon="-118.393867">
  <ele>-0.12</ele>
  <time>2026-09-02T22:12:46Z</time>
  <course>0.0</course>
  <speed>0.0</speed>
  <fix>3d</fix>
</trkpt>
<trkpt lat="33.810313" lon="-118.393867">
  <ele>-0.116</ele>
  <time>2026-09-02T22:12:46Z</time>
  <course>187.08</course>
  <speed>0.01414213562373095</speed>
  <fix>3d</fix>
</trkpt>
<trkpt lat="33.810313" lon="-118.393867">
  <ele>-0.12</ele>
  <time>2026-09-02T22:12:46Z</time>
  <course>0.0</course>
  <speed>0.0</speed>
  <fix>3d</fix>
</trkpt>
<trkpt lat="33.810313" lon="-118.393867">
  <ele>-0.117</ele>
  <time>2026-09-02T22:12:46Z</time>
  <course>187.07</course>
  <speed>0.01414213562373095</speed>
  <fix>3d</fix>
</trkpt>
<trkpt lat="33.810313" lon="-118.393867">
  <ele>-0.12</ele>
  <time>2026-09-02T22:12:46Z</time>
  <course>0.0</course>
  <speed>0.0</speed>
  <fix>3d</fix>
</trkpt>
<trkpt lat="33.810313" lon="-118.393867">
  <ele>-0.118</ele>
  <time>2026-09-02T22:12:46Z</time>
  <course>187.07</course>
  <speed>0.022360679774997897</speed>
  <fix>3d</fix>
</trkpt>
<trkpt lat="33.810313" lon="-118.393867">
  <ele>-0.12</ele>
  <time>2026-09-02T22:12:46Z</time>
  <course>0.0</course>
  <speed>0.0</speed>
  <fix>3d</fix>
</trkpt>
<trkpt lat="33.810313" lon="-118.393867">
  <ele>-0.118</ele>
  <time>2026-09-02T22:12:46Z</time>
  <course>187.06</course>
  <speed>0.022360679774997897</speed>
  <fix>3d</fix>
</trkpt>
<trkpt lat="33.810313" lon="-118.393867">
  <ele>-0.12</ele>
  <time>2026-09-02T22:12:46Z</time>
  <course>0.0</course>
  <speed>0.0</speed>
  <fix>3d</fix>
</trkpt>
<trkpt lat="33.810313" lon="-118.393867">
  <ele>-0.117</ele>
  <time>2026-09-02T22:12:46Z</time>
  <course>187.06</course>
  <speed>0.022360679774997897</speed>
  <fix>3d</fix>
</trkpt>
<trkpt lat="33.810313" lon="-118.393867">
  <ele>-0.12</ele>
  <time>2026-09-02T22:12:46Z</time>
  <course>0.0</course>
  <speed>0.0</speed>
  <fix>3d</fix>
</trkpt>
<trkpt lat="33.810313" lon="-118.393867">
  <ele>-0.115</ele>
  <time>2026-09-02T22:12:46Z</time>
  <course>187.05</course>
  <speed>0.022360679774997897</speed>
  <fix>3d</fix>
</trkpt>
<trkpt lat="33.810313" lon="-118.393867">
  <ele>-0.12</ele>
  <time>2026-09-02T22:12:46Z</time>
  <course>0.0</course>
  <speed>0.0</speed>
  <fix>3d</fix>
</trkpt>
<trkpt lat="33.810313" lon="-118.393867">
  <ele>-0.113</ele>
  <time>2026-09-02T22:12:46Z</time>
  <course>187.05</course>
  <speed>0.022360679774997897</speed>
  <fix>3d</fix>
</trkpt>
<trkpt lat="33.810313" lon="-118.393867">
  <ele>-0.12</ele>
  <time>2026-09-02T22:12:46Z</time>
  <course>0.0</course>
  <speed>0.0</speed>
  <fix>3d</fix>
</trkpt>
<trkpt lat="33.8103131" lon="-118.393867">
  <ele>-0.111</ele>
  <time>2026-09-02T22:12:46Z</time>
  <course>187.04</course>
  <speed>0.022360679774997897</speed>
  <fix>3d</fix>
</trkpt>
<trkpt lat="33.810313" lon="-118.393867">
  <ele>-0.12</ele>
  <time>2026-09-02T22:12:46Z</time>
  <course>0.0</course>
  <speed>0.0</speed>
  <fix>3d</fix>
</trkpt>
<trkpt lat="33.8103131" lon="-118.3938671">
  <ele>-0.111</ele>
  <time>2026-09-02T22:12:46Z</time>
  <course>187.04</course>
  <speed>0.022360679774997897</speed>
  <fix>3d</fix>
</trkpt>
<trkpt lat="33.810313" lon="-118.393867">
  <ele>-0.12</ele>
  <time>2026-09-02T22:12:46Z</time>
  <course>0.0</course>
  <speed>0.0</speed>
  <fix>3d</fix>
</trkpt>
<trkpt lat="33.8103131" lon="-118.3938671">
  <ele>-0.111</ele>
  <time>2026-09-02T22:12:46Z</time>
  <course>187.03</course>
  <speed>0.0282842712474619</speed>
  <fix>3d</fix>
</trkpt>
<trkpt lat="33.810313" lon="-118.393867">
  <ele>-0.12</ele>
  <time>2026-09-02T22:12:46Z</time>
  <course>0.0</course>
  <speed>0.0</speed>
  <fix>3d</fix>
</trkpt>
<trkpt lat="33.8103131" lon="-118.3938671">
  <ele>-0.111</ele>
  <time>2026-09-02T22:12:46Z</time>
  <course>187.03</course>
  <speed>0.0282842712474619</speed>
  <fix>3d</fix>
</trkpt>
<trkpt lat="33.810313" lon="-118.393867">
  <ele>-0.12</ele>
  <time>2026-09-02T22:12:46Z</time>
  <course>0.0</course>
  <speed>0.0</speed>
  <fix>3d</fix>
</trkpt>
<trkpt lat="33.8103131" lon="-118.3938671">
  <ele>-0.113</ele>
  <time>2026-09-02T22:12:46Z</time>
  <course>187.02</course>
  <speed>0.0282842712474619</speed>
  <fix>3d</fix>
</trkpt>
<trkpt lat="33.810313" lon="-118.393867">
  <ele>-0.12</ele>
  <time>2026-09-02T22:12:46Z</time>
  <course>0.0</course>
  <speed>0.0</speed>
  <fix>3d</fix>
</trkpt>
<trkpt lat="33.8103131" lon="-118.3938671">
  <ele>-0.115</ele>
  <time>2026-09-02T22:12:46Z</time>
  <course>187.02</course>
  <speed>0.0282842712474619</speed>
  <fix>3d</fix>
</trkpt>
<trkpt lat="33.810313" lon="-118.393867">
  <ele>-0.12</ele>
  <time>2026-09-02T22:12:46Z</time>
  <course>0.0</course>
  <speed>0.0</speed>
  <fix>3d</fix>
</trkpt>
<trkpt lat="33.8103131" lon="-118.3938671">
  <ele>-0.117</ele>
  <time>2026-09-02T22:12:46Z</time>
  <course>187.01</course>
  <speed>0.0282842712474619</speed>
  <fix>3d</fix>
</trkpt>
<trkpt lat="33.810313" lon="-118.393867">
  <ele>-0.12</ele>
  <time>2026-09-02T22:12:46Z</time>
  <course>0.0</course>
  <speed>0.0</speed>
  <fix>3d</fix>
</trkpt>
<trkpt lat="33.8103131" lon="-118.3938671">
  <ele>-0.117</ele>
  <time>2026-09-02T22:12:46Z</time>
  <course>187.01</course>
  <speed>0.0282842712474619</speed>
  <fix>3d</fix>
</trkpt>
<trkpt lat="33.810313" lon="-118.393867">
  <ele>-0.12</ele>
  <time>2026-09-02T22:12:46Z</time>
  <course>0.0</course>
  <speed>0.0</speed>
  <fix>3d</fix>
</trkpt>
<trkpt lat="33.8103131" lon="-118.3938671">
  <ele>-0.116</ele>
  <time>2026-09-02T22:12:46Z</time>
  <course>187.0</course>
  <speed>0.0282842712474619</speed>
  <fix>3d</fix>
</trkpt>
<trkpt lat="33.810313" lon="-118.393867">
  <ele>-0.12</ele>
  <time>2026-09-02T22:12:46Z</time>
  <course>0.0</course>
  <speed>0.0</speed>
  <fix>3d</fix>
</trkpt>
<trkpt lat="33.8103131" lon="-118.3938671">
  <ele>-0.115</ele>
  <time>2026-09-02T22:12:46Z</time>
  <course>187.0</course>
  <speed>0.03605551275463989</speed>
  <fix>3d</fix>
</trkpt>
<trkpt lat="33.810313" lon="-118.393867">
  <ele>-0.12</ele>
  <time>2026-09-02T22:12:46Z</time>
  <course>0.0</course>
  <speed>0.0</speed>
  <fix>3d</fix>
</trkpt>
<trkpt lat="33.8103131" lon="-118.3938671">
  <ele>-0.115</ele>
  <time>2026-09-02T22:12:46Z</time>
  <course>187.0</course>
  <speed>0.03605551275463989</speed>
  <fix>3d</fix>
</trkpt>
<trkpt lat="33.810313" lon="-118.393867">
  <ele>-0.12</ele>
  <time>2026-09-02T22:12:46Z</time>
  <course>0.0</course>
  <speed>0.0</speed>
  <fix>3d</fix>
</trkpt>
<trkpt lat="33.8103131" lon="-118.3938671">
  <ele>-0.115</ele>
  <time>2026-09-02T22:12:46Z</time>
  <course>186.99</course>
  <speed>0.03605551275463989</speed>
  <fix>3d</fix>
</trkpt>
<trkpt lat="33.810313" lon="-118.393867">
  <ele>-0.12</ele>
  <time>2026-09-02T22:12:46Z</time>
  <course>0.0</course>
  <speed>0.0</speed>
  <fix>3d</fix>
</trkpt>
<trkpt lat="33.8103131" lon="-118.3938671">
  <ele>-0.116</ele>
  <time>2026-09-02T22:12:46Z</time>
  <course>186.99</course>
  <speed>0.03605551275463989</speed>
  <fix>3d</fix>
</trkpt>
<trkpt lat="33.810313" lon="-118.393867">
  <ele>-0.12</ele>
  <time>2026-09-02T22:12:46Z</time>
  <course>0.0</course>
  <speed>0.0</speed>
  <fix>3d</fix>
</trkpt>
<trkpt lat="33.8103131" lon="-118.3938671">
  <ele>-0.118</ele>
  <time>2026-09-02T22:12:46Z</time>
  <course>186.98</course>
  <speed>0.03605551275463989</speed>
  <fix>3d</fix>
</trkpt>
<trkpt lat="33.810313" lon="-118.393867">
  <ele>-0.12</ele>
  <time>2026-09-02T22:12:46Z</time>
  <course>0.0</course>
  <speed>0.0</speed>
  <fix>3d</fix>
</trkpt>
<trkpt lat="33.8103131" lon="-118.3938671">
  <ele>-0.119</ele>
  <time>2026-09-02T22:12:46Z</time>
  <course>186.98</course>
  <speed>0.03605551275463989</speed>
  <fix>3d</fix>
</trkpt>
<trkpt lat="33.810313" lon="-118.393867">
  <ele>-0.12</ele>
  <time>2026-09-02T22:12:46Z</time>
  <course>0.0</course>
  <speed>0.0</speed>
  <fix>3d</fix>
</trkpt>
<trkpt lat="33.8103132" lon="-118.3938671">
  <ele>-0.121</ele>
  <time>2026-09-02T22:12:46Z</time>
  <course>186.97</course>
  <speed>0.03605551275463989</speed>
  <fix>3d</fix>
</trkpt>
<trkpt lat="33.810313" lon="-118.393867">
  <ele>-0.12</ele>
  <time>2026-09-02T22:12:46Z</time>
  <course>0.0</course>
  <speed>0.0</speed>
  <fix>3d</fix>
</trkpt>
<trkpt lat="33.8103132" lon="-118.3938671">
  <ele>-0.123</ele>
  <time>2026-09-02T22:12:46Z</time>
  <course>186.97</course>
  <speed>0.03605551275463989</speed>
  <fix>3d</fix>
</trkpt>
<trkpt lat="33.810313" lon="-118.393867">
  <ele>-0.12</ele>
  <time>2026-09-02T22:12:46Z</time>
  <course>0.0</course>
  <speed>0.0</speed>
  <fix>3d</fix>
</trkpt>
<trkpt lat="33.8103132" lon="-118.3938671">
  <ele>-0.123</ele>
  <time>2026-09-02T22:12:46Z</time>
  <course>186.96</course>
  <speed>0.03605551275463989</speed>
  <fix>3d</fix>
</trkpt>
<trkpt lat="33.810313" lon="-118.393867">
  <ele>-0.12</ele>
  <time>2026-09-02T22:12:46Z</time>
  <course>0.0</course>
  <speed>0.0</speed>
  <fix>3d</fix>
</trkpt>
<trkpt lat="33.8103132" lon="-118.3938671">
  <ele>-0.123</ele>
  <time>2026-09-02T22:12:46Z</time>
  <course>186.96</course>
  <speed>0.03605551275463989</speed>
  <fix>3d</fix>
</trkpt>
<trkpt lat="33.810313" lon="-118.393867">
  <ele>-0.12</ele>
  <time>2026-09-02T22:12:46Z</time>
  <course>0.0</course>
  <speed>0.0</speed>
  <fix>3d</fix>
</trkpt>
<trkpt lat="33.8103132" lon="-118.3938671">
  <ele>-0.121</ele>
  <time>2026-09-02T22:12:46Z</time>
  <course>186.96</course>
  <speed>0.03605551275463989</speed>
  <fix>3d</fix>
</trkpt>
<trkpt lat="33.810313" lon="-118.393867">
  <ele>-0.12</ele>
  <time>2026-09-02T22:12:46Z</time>
  <course>0.0</course>
  <speed>0.0</speed>
  <fix>3d</fix>
</trkpt>
<trkpt lat="33.8103132" lon="-118.3938672">
  <ele>-0.119</ele>
  <time>2026-09-02T22:12:46Z</time>
  <course>186.95</course>
  <speed>0.03605551275463989</speed>
  <fix>3d</fix>
</trkpt>
<trkpt lat="33.810313" lon="-118.393867">
  <ele>-0.12</ele>
  <time>2026-09-02T22:12:46Z</time>
  <course>0.0</course>
  <speed>0.0</speed>
  <fix>3d</fix>
</trkpt>
<trkpt lat="33.8103132" lon="-118.3938672">
  <ele>-0.118</ele>
  <time>2026-09-02T22:12:46Z</time>
  <course>186.95</course>
  <speed>0.03605551275463989</speed>
  <fix>3d</fix>
</trkpt>
<trkpt lat="33.810313" lon="-118.393867">
  <ele>-0.12</ele>
  <time>2026-09-02T22:12:46Z</time>
  <course>0.0</course>
  <speed>0.0</speed>
  <fix>3d</fix>
</trkpt>
<trkpt lat="33.8103132" lon="-118.3938672">
  <ele>-0.118</ele>
  <time>2026-09-02T22:12:46Z</time>
  <course>186.94</course>
  <speed>0.03605551275463989</speed>
  <fix>3d</fix>
</trkpt>
<trkpt lat="33.810313" lon="-118.393867">
  <ele>-0.12</ele>
  <time>2026-09-02T22:12:46Z</time>
  <course>0.0</course>
  <speed>0.0</speed>
  <fix>3d</fix>
</trkpt>
<trkpt lat="33.8103132" lon="-118.3938672">
  <ele>-0.119</ele>
  <time>2026-09-02T22:12:46Z</time>
  <course>186.94</course>
  <speed>0.03605551275463989</speed>
  <fix>3d</fix>
</trkpt>
<trkpt lat="33.810313" lon="-118.393867">
  <ele>-0.12</ele>
  <time>2026-09-02T22:12:46Z</time>
  <course>0.0</course>
  <speed>0.0</speed>
  <fix>3d</fix>
</trkpt>
<trkpt lat="33.8103132" lon="-118.3938672">
  <ele>-0.121</ele>
  <time>2026-09-02T22:12:46Z</time>
  <course>186.94</course>
  <speed>0.03605551275463989</speed>
  <fix>3d</fix>
</trkpt>
<trkpt lat="33.810313" lon="-118.393867">
  <ele>-0.12</ele>
  <time>2026-09-02T22:12:46Z</time>
  <course>0.0</course>
  <speed>0.0</speed>
  <fix>3d</fix>
</trkpt>
<trkpt lat="33.8103132" lon="-118.3938672">
  <ele>-0.123</ele>
  <time>2026-09-02T22:12:46Z</time>
  <course>186.93</course>
  <speed>0.0282842712474619</speed>
  <fix>3d</fix>
</trkpt>
<trkpt lat="33.810313" lon="-118.393867">
  <ele>-0.12</ele>
  <time>2026-09-02T22:12:46Z</time>
  <course>0.0</course>
  <speed>0.0</speed>
  <fix>3d</fix>
</trkpt>
<trkpt lat="33.8103132" lon="-118.3938672">
  <ele>-0.124</ele>
  <time>2026-09-02T22:12:46Z</time>
  <course>186.93</course>
  <speed>0.0282842712474619</speed>
  <fix>3d</fix>
</trkpt>
<trkpt lat="33.810313" lon="-118.393867">
  <ele>-0.12</ele>
  <time>2026-09-02T22:12:46Z</time>
  <course>0.0</course>
  <speed>0.0</speed>
  <fix>3d</fix>
</trkpt>
<trkpt lat="33.8103132" lon="-118.3938672">
  <ele>-0.124</ele>
  <time>2026-09-02T22:12:46Z</time>
  <course>186.92</course>
  <speed>0.0282842712474619</speed>
  <fix>3d</fix>
</trkpt>
<trkpt lat="33.810313" lon="-118.393867">
  <ele>-0.12</ele>
  <time>2026-09-02T22:12:46Z</time>
  <course>0.0</course>
  <speed>0.0</speed>
  <fix>3d</fix>
</trkpt>
<trkpt lat="33.8103132" lon="-118.3938672">
  <ele>-0.123</ele>
  <time>2026-09-02T22:12:46Z</time>
  <course>186.92</course>
  <speed>0.0282842712474619</speed>
  <fix>3d</fix>
</trkpt>
<trkpt lat="33.810313" lon="-118.393867">
  <ele>-0.12</ele>
  <time>2026-09-02T22:12:46Z</time>
  <course>0.0</course>
  <speed>0.0</speed>
  <fix>3d</fix>
</trkpt>
<trkpt lat="33.8103132" lon="-118.3938671">
  <ele>-0.121</ele>
  <time>2026-09-02T22:12:46Z</time>
  <course>186.92</course>
  <speed>0.0282842712474619</speed>
  <fix>3d</fix>
</trkpt>
<trkpt lat="33.810313" lon="-118.393867">
  <ele>-0.12</ele>
  <time>2026-09-02T22:12:46Z</time>
  <course>0.0</course>
  <speed>0.0</speed>
  <fix>3d</fix>
</trkpt>
<trkpt lat="33.8103132" lon="-118.3938671">
  <ele>-0.119</ele>
  <time>2026-09-02T22:12:46Z</time>
  <course>186.91</course>
  <speed>0.0282842712474619</speed>
  <fix>3d</fix>
</trkpt>
<trkpt lat="33.810313" lon="-118.393867">
  <ele>-0.12</ele>
  <time>2026-09-02T22:12:46Z</time>
  <course>0.0</course>
  <speed>0.0</speed>
  <fix>3d</fix>
</trkpt>
<trkpt lat="33.8103132" lon="-118.3938671">
  <ele>-0.118</ele>
  <time>2026-09-02T22:12:46Z</time>
  <course>186.91</course>
  <speed>0.0282842712474619</speed>
  <fix>3d</fix>
</trkpt>
<trkpt lat="33.810313" lon="-118.393867">
  <ele>-0.12</ele>
  <time>2026-09-02T22:12:46Z</time>
  <course>0.0</course>
  <speed>0.0</speed>
  <fix>3d</fix>
</trkpt>
<trkpt lat="33.8103132" lon="-118.3938671">
  <ele>-0.117</ele>
  <time>2026-09-02T22:12:46Z</time>
  <course>186.91</course>
  <speed>0.0282842712474619</speed>
  <fix>3d</fix>
</trkpt>
<trkpt lat="33.810313" lon="-118.393867">
  <ele>-0.12</ele>
  <time>2026-09-02T22:12:46Z</time>
  <course>0.0</course>
  <speed>0.0</speed>
  <fix>3d</fix>
</trkpt>
<trkpt lat="33.8103132" lon="-118.3938671">
  <ele>-0.116</ele>
  <time>2026-09-02T22:12:46Z</time>
  <course>186.9</course>
  <speed>0.0282842712474619</speed>
  <fix>3d</fix>
</trkpt>
<trkpt lat="33.810313" lon="-118.393867">
  <ele>-0.12</ele>
  <time>2026-09-02T22:12:46Z</time>
  <course>0.0</course>
  <speed>0.0</speed>
  <fix>3d</fix>
</trkpt>
<trkpt lat="33.8103132" lon="-118.3938671">
  <ele>-0.116</ele>
  <time>2026-09-02T22:12:46Z</time>
  <course>186.9</course>
  <speed>0.022360679774997897</speed>
  <fix>3d</fix>
</trkpt>
<trkpt lat="33.810313" lon="-118.393867">
  <ele>-0.12</ele>
  <time>2026-09-02T22:12:46Z</time>
  <course>0.0</course>
  <speed>0.0</speed>
  <fix>3d</fix>
</trkpt>
<trkpt lat="33.8103132" lon="-118.3938671">
  <ele>-0.115</ele>
  <time>2026-09-02T22:12:46Z</time>
  <course>186.9</course>
  <speed>0.022360679774997897</speed>
  <fix>3d</fix>
</trkpt>
<trkpt lat="33.810313" lon="-118.393867">
  <ele>-0.12</ele>
  <time>2026-09-02T22:12:46Z</time>
  <course>0.0</course>
  <speed>0.0</speed>
  <fix>3d</fix>
</trkpt>
<trkpt lat="33.8103132" lon="-118.3938671">
  <ele>-0.114</ele>
  <time>2026-09-02T22:12:46Z</time>
  <course>186.89</course>
  <speed>0.022360679774997897</speed>
  <fix>3d</fix>
</trkpt>
<trkpt lat="33.810313" lon="-118.393867">
  <ele>-0.12</ele>
  <time>2026-09-02T22:12:46Z</time>
  <course>0.0</course>
  <speed>0.0</speed>
  <fix>3d</fix>
</trkpt>
<trkpt lat="33.8103131" lon="-118.3938671">
  <ele>-0.113</ele>
  <time>2026-09-02T22:12:46Z</time>
  <course>186.89</course>
  <speed>0.022360679774997897</speed>
  <fix>3d</fix>
</trkpt>
<trkpt lat="33.810313" lon="-118.393867">
  <ele>-0.12</ele>
  <time>2026-09-02T22:12:46Z</time>
  <course>0.0</course>
  <speed>0.0</speed>
  <fix>3d</fix>
</trkpt>
<trkpt lat="33.8103131" lon="-118.3938671">
  <ele>-0.113</ele>
  <time>2026-09-02T22:12:46Z</time>
  <course>186.88</course>
  <speed>0.022360679774997897</speed>
  <fix>3d</fix>
</trkpt>
<trkpt lat="33.810313" lon="-118.393867">
  <ele>-0.12</ele>
  <time>2026-09-02T22:12:46Z</time>
  <course>0.0</course>
  <speed>0.0</speed>
  <fix>3d</fix>
</trkpt>
<trkpt lat="33.8103131" lon="-118.3938671">
  <ele>-0.112</ele>
  <time>2026-09-02T22:12:46Z</time>
  <course>186.88</course>
  <speed>0.022360679774997897</speed>
  <fix>3d</fix>
</trkpt>
<trkpt lat="33.810313" lon="-118.393867">
  <ele>-0.12</ele>
  <time>2026-09-02T22:12:46Z</time>
  <course>0.0</course>
  <speed>0.0</speed>
  <fix>3d</fix>
</trkpt>
<trkpt lat="33.8103131" lon="-118.3938671">
  <ele>-0.11</ele>
  <time>2026-09-02T22:12:46Z</time>
  <course>186.88</course>
  <speed>0.022360679774997897</speed>
  <fix>3d</fix>
</trkpt>
<trkpt lat="33.810313" lon="-118.393867">
  <ele>-0.12</ele>
  <time>2026-09-02T22:12:46Z</time>
  <course>0.0</course>
  <speed>0.0</speed>
  <fix>3d</fix>
</trkpt>
<trkpt lat="33.8103131" lon="-118.3938671">
  <ele>-0.108</ele>
  <time>2026-09-02T22:12:46Z</time>
  <course>186.87</course>
  <speed>0.022360679774997897</speed>
  <fix>3d</fix>
</trkpt>
<trkpt lat="33.810313" lon="-118.393867">
  <ele>-0.12</ele>
  <time>2026-09-02T22:12:46Z</time>
  <course>0.0</course>
  <speed>0.0</speed>
  <fix>3d</fix>
</trkpt>
<trkpt lat="33.8103131" lon="-118.3938671">
  <ele>-0.108</ele>
  <time>2026-09-02T22:12:46Z</time>
  <course>186.87</course>
  <speed>0.022360679774997897</speed>
  <fix>3d</fix>
</trkpt>
<trkpt lat="33.810313" lon="-118.393867">
  <ele>-0.12</ele>
  <time>2026-09-02T22:12:46Z</time>
  <course>0.0</course>
  <speed>0.0</speed>
  <fix>3d</fix>
</trkpt>
<trkpt lat="33.8103131" lon="-118.3938671">
  <ele>-0.108</ele>
  <time>2026-09-02T22:12:46Z</time>
  <course>186.87</course>
  <speed>0.022360679774997897</speed>
  <fix>3d</fix>
</trkpt>
<trkpt lat="33.810313" lon="-118.393867">
  <ele>-0.12</ele>
  <time>2026-09-02T22:12:46Z</time>
  <course>0.0</course>
  <speed>0.0</speed>
  <fix>3d</fix>
</trkpt>
<trkpt lat="33.8103131" lon="-118.3938671">
  <ele>-0.11</ele>
  <time>2026-09-02T22:12:46Z</time>
  <course>186.87</course>
  <speed>0.022360679774997897</speed>
  <fix>3d</fix>
</trkpt>
<trkpt lat="33.810313" lon="-118.393867">
  <ele>-0.12</ele>
  <time>2026-09-02T22:12:46Z</time>
  <course>0.0</course>
  <speed>0.0</speed>
  <fix>3d</fix>
</trkpt>
<trkpt lat="33.8103131" lon="-118.3938671">
  <ele>-0.112</ele>
  <time>2026-09-02T22:12:46Z</time>
  <course>186.86</course>
  <speed>0.022360679774997897</speed>
  <fix>3d</fix>
</trkpt>
<trkpt lat="33.810313" lon="-118.393867">
  <ele>-0.12</ele>
  <time>2026-09-02T22:12:46Z</time>
  <course>0.0</course>
  <speed>0.0</speed>
  <fix>3d</fix>
</trkpt>
<trkpt lat="33.8103131" lon="-118.3938671">
  <ele>-0.114</ele>
  <time>2026-09-02T22:12:46Z</time>
  <course>186.86</course>
  <speed>0.022360679774997897</speed>
  <fix>3d</fix>
</trkpt>
<trkpt lat="33.810313" lon="-118.393867">
  <ele>-0.12</ele>
  <time>2026-09-02T22:12:46Z</time>
  <course>0.0</course>
  <speed>0.0</speed>
  <fix>3d</fix>
</trkpt>
<trkpt lat="33.8103131" lon="-118.3938671">
  <ele>-0.115</ele>
  <time>2026-09-02T22:12:46Z</time>
  <course>186.86</course>
  <speed>0.022360679774997897</speed>
  <fix>3d</fix>
</trkpt>
<trkpt lat="33.810313" lon="-118.393867">
  <ele>-0.12</ele>
  <time>2026-09-02T22:12:46Z</time>
  <course>0.0</course>
  <speed>0.0</speed>
  <fix>3d</fix>
</trkpt>
<trkpt lat="33.8103131" lon="-118.3938671">
  <ele>-0.115</ele>
  <time>2026-09-02T22:12:46Z</time>
  <course>186.85</course>
  <speed>0.022360679774997897</speed>
  <fix>3d</fix>
</trkpt>
<trkpt lat="33.810313" lon="-118.393867">
  <ele>-0.12</ele>
  <time>2026-09-02T22:12:46Z</time>
  <course>0.0</course>
  <speed>0.0</speed>
  <fix>3d</fix>
</trkpt>
<trkpt lat="33.8103131" lon="-118.3938671">
  <ele>-0.114</ele>
  <time>2026-09-02T22:12:46Z</time>
  <course>186.85</course>
  <speed>0.022360679774997897</speed>
  <fix>3d</fix>
</trkpt>
<trkpt lat="33.810313" lon="-118.393867">
  <ele>-0.12</ele>
  <time>2026-09-02T22:12:46Z</time>
  <course>0.0</course>
  <speed>0.0</speed>
  <fix>3d</fix>
</trkpt>
<trkpt lat="33.8103131" lon="-118.3938671">
  <ele>-0.114</ele>
  <time>2026-09-02T22:12:46Z</time>
  <course>186.85</course>
  <speed>0.022360679774997897</speed>
  <fix>3d</fix>
</trkpt>
<trkpt lat="33.810313" lon="-118.393867">
  <ele>-0.12</ele>
  <time>2026-09-02T22:12:46Z</time>
  <course>0.0</course>
  <speed>0.0</speed>
  <fix>3d</fix>
</trkpt>
<trkpt lat="33.8103131" lon="-118.3938671">
  <ele>-0.114</ele>
  <time>2026-09-02T22:12:46Z</time>
  <course>186.84</course>
  <speed>0.022360679774997897</speed>
  <fix>3d</fix>
</trkpt>
<trkpt lat="33.810313" lon="-118.393867">
  <ele>-0.12</ele>
  <time>2026-09-02T22:12:46Z</time>
  <course>0.0</course>
  <speed>0.0</speed>
  <fix>3d</fix>
</trkpt>
<trkpt lat="33.8103131" lon="-118.3938671">
  <ele>-0.114</ele>
  <time>2026-09-02T22:12:46Z</time>
  <course>186.84</course>
  <speed>0.022360679774997897</speed>
  <fix>3d</fix>
</trkpt>
<trkpt lat="33.810313" lon="-118.393867">
  <ele>-0.12</ele>
  <time>2026-09-02T22:12:46Z</time>
  <course>0.0</course>
  <speed>0.0</speed>
  <fix>3d</fix>
</trkpt>
<trkpt lat="33.8103131" lon="-118.3938671">
  <ele>-0.116</ele>
  <time>2026-09-02T22:12:46Z</time>
  <course>186.84</course>
  <speed>0.022360679774997897</speed>
  <fix>3d</fix>
</trkpt>
<trkpt lat="33.810313" lon="-118.393867">
  <ele>-0.12</ele>
  <time>2026-09-02T22:12:46Z</time>
  <course>0.0</course>
  <speed>0.0</speed>
  <fix>3d</fix>
</trkpt>
<trkpt lat="33.8103131" lon="-118.3938671">
  <ele>-0.117</ele>
  <time>2026-09-02T22:12:46Z</time>
  <course>186.83</course>
  <speed>0.022360679774997897</speed>
  <fix>3d</fix>
</trkpt>
<trkpt lat="33.810313" lon="-118.393867">
  <ele>-0.12</ele>
  <time>2026-09-02T22:12:46Z</time>
  <course>0.0</course>
  <speed>0.0</speed>
  <fix>3d</fix>
</trkpt>
<trkpt lat="33.8103131" lon="-118.3938671">
  <ele>-0.118</ele>
  <time>2026-09-02T22:12:46Z</time>
  <course>186.83</course>
  <speed>0.022360679774997897</speed>
  <fix>3d</fix>
</trkpt>
<trkpt lat="33.810313" lon="-118.393867">
  <ele>-0.12</ele>
  <time>2026-09-02T22:12:46Z</time>
  <course>0.0</course>
  <speed>0.0</speed>
  <fix>3d</fix>
</trkpt>
<trkpt lat="33.8103131" lon="-118.3938671">
  <ele>-0.119</ele>
  <time>2026-09-02T22:12:46Z</time>
  <course>186.83</course>
  <speed>0.022360679774997897</speed>
  <fix>3d</fix>
</trkpt>
<trkpt lat="33.810313" lon="-118.393867">
  <ele>-0.12</ele>
  <time>2026-09-02T22:12:46Z</time>
  <course>0.0</course>
  <speed>0.0</speed>
  <fix>3d</fix>
</trkpt>
<trkpt lat="33.8103131" lon="-118.3938671">
  <ele>-0.119</ele>
  <time>2026-09-02T22:12:46Z</time>
  <course>186.82</course>
  <speed>0.022360679774997897</speed>
  <fix>3d</fix>
</trkpt>
<trkpt lat="33.810313" lon="-118.393867">
  <ele>-0.12</ele>
  <time>2026-09-02T22:12:46Z</time>
  <course>0.0</course>
  <speed>0.0</speed>
  <fix>3d</fix>
</trkpt>
<trkpt lat="33.8103131" lon="-118.3938671">
  <ele>-0.119</ele>
  <time>2026-09-02T22:12:46Z</time>
  <course>186.82</course>
  <speed>0.022360679774997897</speed>
  <fix>3d</fix>
</trkpt>
<trkpt lat="33.810313" lon="-118.393867">
  <ele>-0.12</ele>
  <time>2026-09-02T22:12:46Z</time>
  <course>0.0</course>
  <speed>0.0</speed>
  <fix>3d</fix>
</trkpt>
<trkpt lat="33.8103131" lon="-118.3938671">
  <ele>-0.118</ele>
  <time>2026-09-02T22:12:46Z</time>
  <course>186.82</course>
  <speed>0.022360679774997897</speed>
  <fix>3d</fix>
</trkpt>
<trkpt lat="33.810313" lon="-118.393867">
  <ele>-0.12</ele>
  <time>2026-09-02T22:12:46Z</time>
  <course>0.0</course>
  <speed>0.0</speed>
  <fix>3d</fix>
</trkpt>
<trkpt lat="33.8103131" lon="-118.3938671">
  <ele>-0.118</ele>
  <time>2026-09-02T22:12:46Z</time>
  <course>186.82</course>
  <speed>0.022360679774997897</speed>
  <fix>3d</fix>
</trkpt>
<trkpt lat="33.810313" lon="-118.393867">
  <ele>-0.12</ele>
  <time>2026-09-02T22:12:46Z</time>
  <course>0.0</course>
  <speed>0.0</speed>
  <fix>3d</fix>
</trkpt>
<trkpt lat="33.8103131" lon="-118.3938671">
  <ele>-0.118</ele>
  <time>2026-09-02T22:12:46Z</time>
  <course>186.81</course>
  <speed>0.022360679774997897</speed>
  <fix>3d</fix>
</trkpt>
<trkpt lat="33.810313" lon="-118.393867">
  <ele>-0.12</ele>
  <time>2026-09-02T22:12:46Z</time>
  <course>0.0</course>
  <speed>0.0</speed>
  <fix>3d</fix>
</trkpt>
<trkpt lat="33.8103131" lon="-118.3938671">
  <ele>-0.118</ele>
  <time>2026-09-02T22:12:46Z</time>
  <course>186.81</course>
  <speed>0.022360679774997897</speed>
  <fix>3d</fix>
</trkpt>
<trkpt lat="33.810313" lon="-118.393867">
  <ele>-0.12</ele>
  <time>2026-09-02T22:12:46Z</time>
  <course>0.0</course>
  <speed>0.0</speed>
  <fix>3d</fix>
</trkpt>
<trkpt lat="33.8103131" lon="-118.3938671">
  <ele>-0.119</ele>
  <time>2026-09-02T22:12:46Z</time>
  <course>186.81</course>
  <speed>0.022360679774997897</speed>
  <fix>3d</fix>
</trkpt>
<trkpt lat="33.810313" lon="-118.393867">
  <ele>-0.12</ele>
  <time>2026-09-02T22:12:46Z</time>
  <course>0.0</course>
  <speed>0.0</speed>
  <fix>3d</fix>
</trkpt>
<trkpt lat="33.8103131" lon="-118.3938671">
  <ele>-0.12</ele>
  <time>2026-09-02T22:12:46Z</time>
  <course>186.8</course>
  <speed>0.022360679774997897</speed>
  <fix>3d</fix>
</trkpt>
<trkpt lat="33.810313" lon="-118.393867">
  <ele>-0.12</ele>
  <time>2026-09-02T22:12:46Z</time>
  <course>0.0</course>
  <speed>0.0</speed>
  <fix>3d</fix>
</trkpt>
<trkpt lat="33.8103131" lon="-118.3938671">
  <ele>-0.119</ele>
  <time>2026-09-02T22:12:46Z</time>
  <course>186.8</course>
  <speed>0.022360679774997897</speed>
  <fix>3d</fix>
</trkpt>
<trkpt lat="33.810313" lon="-118.393867">
  <ele>-0.12</ele>
  <time>2026-09-02T22:12:46Z</time>
  <course>0.0</course>
  <speed>0.0</speed>
  <fix>3d</fix>
</trkpt>
<trkpt lat="33.8103131" lon="-118.3938671">
  <ele>-0.119</ele>
  <time>2026-09-02T22:12:46Z</time>
  <course>186.8</course>
  <speed>0.022360679774997897</speed>
  <fix>3d</fix>
</trkpt>
<trkpt lat="33.810313" lon="-118.393867">
  <ele>-0.12</ele>
  <time>2026-09-02T22:12:46Z</time>
  <course>0.0</course>
  <speed>0.0</speed>
  <fix>3d</fix>
</trkpt>
<trkpt lat="33.8103131" lon="-118.3938671">
  <ele>-0.118</ele>
  <time>2026-09-02T22:12:46Z</time>
  <course>186.79</course>
  <speed>0.022360679774997897</speed>
  <fix>3d</fix>
</trkpt>
<trkpt lat="33.810313" lon="-118.393867">
  <ele>-0.12</ele>
  <time>2026-09-02T22:12:46Z</time>
  <course>0.0</course>
  <speed>0.0</speed>
  <fix>3d</fix>
</trkpt>
<trkpt lat="33.8103131" lon="-118.3938671">
  <ele>-0.116</ele>
  <time>2026-09-02T22:12:46Z</time>
  <course>186.79</course>
  <speed>0.022360679774997897</speed>
  <fix>3d</fix>
</trkpt>
<trkpt lat="33.810313" lon="-118.393867">
  <ele>-0.12</ele>
  <time>2026-09-02T22:12:46Z</time>
  <course>0.0</course>
  <speed>0.0</speed>
  <fix>3d</fix>
</trkpt>
<trkpt lat="33.8103131" lon="-118.3938671">
  <ele>-0.114</ele>
  <time>2026-09-02T22:12:46Z</time>
  <course>186.79</course>
  <speed>0.022360679774997897</speed>
  <fix>3d</fix>
</trkpt>
<trkpt lat="33.810313" lon="-118.393867">
  <ele>-0.12</ele>
  <time>2026-09-02T22:12:46Z</time>
  <course>0.0</course>
  <speed>0.0</speed>
  <fix>3d</fix>
</trkpt>
<trkpt lat="33.8103131" lon="-118.3938671">
  <ele>-0.113</ele>
  <time>2026-09-02T22:12:46Z</time>
  <course>186.79</course>
  <speed>0.022360679774997897</speed>
  <fix>3d</fix>
</trkpt>
<trkpt lat="33.810313" lon="-118.393867">
  <ele>-0.12</ele>
  <time>2026-09-02T22:12:46Z</time>
  <course>0.0</course>
  <speed>0.0</speed>
  <fix>3d</fix>
</trkpt>
<trkpt lat="33.8103131" lon="-118.3938671">
  <ele>-0.112</ele>
  <time>2026-09-02T22:12:46Z</time>
  <course>186.78</course>
  <speed>0.022360679774997897</speed>
  <fix>3d</fix>
</trkpt>
<trkpt lat="33.810313" lon="-118.393867">
  <ele>-0.12</ele>
  <time>2026-09-02T22:12:46Z</time>
  <course>0.0</course>
  <speed>0.0</speed>
  <fix>3d</fix>
</trkpt>
<trkpt lat="33.8103131" lon="-118.3938671">
  <ele>-0.112</ele>
  <time>2026-09-02T22:12:46Z</time>
  <course>186.78</course>
  <speed>0.022360679774997897</speed>
  <fix>3d</fix>
</trkpt>
<trkpt lat="33.810313" lon="-118.393867">
  <ele>-0.12</ele>
  <time>2026-09-02T22:12:46Z</time>
  <course>0.0</course>
  <speed>0.0</speed>
  <fix>3d</fix>
</trkpt>
<trkpt lat="33.8103131" lon="-118.3938671">
  <ele>-0.113</ele>
  <time>2026-09-02T22:12:46Z</time>
  <course>186.78</course>
  <speed>0.022360679774997897</speed>
  <fix>3d</fix>
</trkpt>
<trkpt lat="33.810313" lon="-118.393867">
  <ele>-0.12</ele>
  <time>2026-09-02T22:12:46Z</time>
  <course>0.0</course>
  <speed>0.0</speed>
  <fix>3d</fix>
</trkpt>
<trkpt lat="33.8103131" lon="-118.3938671">
  <ele>-0.114</ele>
  <time>2026-09-02T22:12:46Z</time>
  <course>186.77</course>
  <speed>0.022360679774997897</speed>
  <fix>3d</fix>
</trkpt>
<trkpt lat="33.810313" lon="-118.393867">
  <ele>-0.12</ele>
  <time>2026-09-02T22:12:46Z</time>
  <course>0.0</course>
  <speed>0.0</speed>
  <fix>3d</fix>
</trkpt>
<trkpt lat="33.8103131" lon="-118.3938671">
  <ele>-0.115</ele>
  <time>2026-09-02T22:12:46Z</time>
  <course>186.77</course>
  <speed>0.022360679774997897</speed>
  <fix>3d</fix>
</trkpt>
<trkpt lat="33.810313" lon="-118.393867">
  <ele>-0.12</ele>
  <time>2026-09-02T22:12:46Z</time>
  <course>0.0</course>
  <speed>0.0</speed>
  <fix>3d</fix>
</trkpt>
<trkpt lat="33.8103131" lon="-118.3938671">
  <ele>-0.115</ele>
  <time>2026-09-02T22:12:46Z</time>
  <course>186.77</course>
  <speed>0.022360679774997897</speed>
  <fix>3d</fix>
</trkpt>
<trkpt lat="33.810313" lon="-118.393867">
  <ele>-0.12</ele>
  <time>2026-09-02T22:12:46Z</time>
  <course>0.0</course>
  <speed>0.0</speed>
  <fix>3d</fix>
</trkpt>
<trkpt lat="33.8103131" lon="-118.3938671">
  <ele>-0.115</ele>
  <time>2026-09-02T22:12:46Z</time>
  <course>186.77</course>
  <speed>0.022360679774997897</speed>
  <fix>3d</fix>
</trkpt>
<trkpt lat="33.810313" lon="-118.393867">
  <ele>-0.12</ele>
  <time>2026-09-02T22:12:46Z</time>
  <course>0.0</course>
  <speed>0.0</speed>
  <fix>3d</fix>
</trkpt>
<trkpt lat="33.8103131" lon="-118.3938671">
  <ele>-0.115</ele>
  <time>2026-09-02T22:12:46Z</time>
  <course>186.76</course>
  <speed>0.022360679774997897</speed>
  <fix>3d</fix>
</trkpt>
<trkpt lat="33.810313" lon="-118.393867">
  <ele>-0.12</ele>
  <time>2026-09-02T22:12:46Z</time>
  <course>0.0</course>
  <speed>0.0</speed>
  <fix>3d</fix>
</trkpt>
<trkpt lat="33.8103131" lon="-118.3938671">
  <ele>-0.114</ele>
  <time>2026-09-02T22:12:46Z</time>
  <course>186.76</course>
  <speed>0.022360679774997897</speed>
  <fix>3d</fix>
</trkpt>
<trkpt lat="33.810313" lon="-118.393867">
  <ele>-0.12</ele>
  <time>2026-09-02T22:12:46Z</time>
  <course>0.0</course>
  <speed>0.0</speed>
  <fix>3d</fix>
</trkpt>
<trkpt lat="33.8103131" lon="-118.3938671">
  <ele>-0.114</ele>
  <time>2026-09-02T22:12:46Z</time>
  <course>186.76</course>
  <speed>0.022360679774997897</speed>
  <fix>3d</fix>
</trkpt>
<trkpt lat="33.810313" lon="-118.393867">
  <ele>-0.12</ele>
  <time>2026-09-02T22:12:46Z</time>
  <course>0.0</course>
  <speed>0.0</speed>
  <fix>3d</fix>
</trkpt>
<trkpt lat="33.8103131" lon="-118.3938671">
  <ele>-0.113</ele>
  <time>2026-09-02T22:12:46Z</time>
  <course>186.76</course>
  <speed>0.022360679774997897</speed>
  <fix>3d</fix>
</trkpt>
<trkpt lat="33.810313" lon="-118.393867">
  <ele>-0.12</ele>
  <time>2026-09-02T22:12:46Z</time>
  <course>0.0</course>
  <speed>0.0</speed>
  <fix>3d</fix>
</trkpt>
<trkpt lat="33.8103131" lon="-118.3938671">
  <ele>-0.114</ele>
  <time>2026-09-02T22:12:46Z</time>
  <course>186.75</course>
  <speed>0.022360679774997897</speed>
  <fix>3d</fix>
</trkpt>
<trkpt lat="33.810313" lon="-118.393867">
  <ele>-0.12</ele>
  <time>2026-09-02T22:12:46Z</time>
  <course>0.0</course>
  <speed>0.0</speed>
  <fix>3d</fix>
</trkpt>
<trkpt lat="33.8103131" lon="-118.3938671">
  <ele>-0.115</ele>
  <time>2026-09-02T22:12:46Z</time>
  <course>186.75</course>
  <speed>0.022360679774997897</speed>
  <fix>3d</fix>
</trkpt>
<trkpt lat="33.810313" lon="-118.393867">
  <ele>-0.12</ele>
  <time>2026-09-02T22:12:46Z</time>
  <course>0.0</course>
  <speed>0.0</speed>
  <fix>3d</fix>
</trkpt>
<trkpt lat="33.8103131" lon="-118.3938671">
  <ele>-0.117</ele>
  <time>2026-09-02T22:12:46Z</time>
  <course>186.75</course>
  <speed>0.022360679774997897</speed>
  <fix>3d</fix>
</trkpt>
<trkpt lat="33.810313" lon="-118.393867">
  <ele>-0.12</ele>
  <time>2026-09-02T22:12:46Z</time>
  <course>0.0</course>
  <speed>0.0</speed>
  <fix>3d</fix>
</trkpt>
<trkpt lat="33.8103131" lon="-118.3938671">
  <ele>-0.118</ele>
  <time>2026-09-02T22:12:46Z</time>
  <course>186.74</course>
  <speed>0.022360679774997897</speed>
  <fix>3d</fix>
</trkpt>
<trkpt lat="33.810313" lon="-118.393867">
  <ele>-0.12</ele>
  <time>2026-09-02T22:12:46Z</time>
  <course>0.0</course>
  <speed>0.0</speed>
  <fix>3d</fix>
</trkpt>
<trkpt lat="33.8103131" lon="-118.3938671">
  <ele>-0.117</ele>
  <time>2026-09-02T22:12:46Z</time>
  <course>186.74</course>
  <speed>0.022360679774997897</speed>
  <fix>3d</fix>
</trkpt>
<trkpt lat="33.810313" lon="-118.393867">
  <ele>-0.12</ele>
  <time>2026-09-02T22:12:46Z</time>
  <course>0.0</course>
  <speed>0.0</speed>
  <fix>3d</fix>
</trkpt>
<trkpt lat="33.8103131" lon="-118.3938671">
  <ele>-0.117</ele>
  <time>2026-09-02T22:12:46Z</time>
  <course>186.74</course>
  <speed>0.022360679774997897</speed>
  <fix>3d</fix>
</trkpt>
<trkpt lat="33.810313" lon="-118.393867">
  <ele>-0.12</ele>
  <time>2026-09-02T22:12:46Z</time>
  <course>0.0</course>
  <speed>0.0</speed>
  <fix>3d</fix>
</trkpt>
<trkpt lat="33.8103131" lon="-118.3938671">
  <ele>-0.117</ele>
  <time>2026-09-02T22:12:46Z</time>
  <course>186.74</course>
  <speed>0.022360679774997897</speed>
  <fix>3d</fix>
</trkpt>
<trkpt lat="33.810313" lon="-118.393867">
  <ele>-0.12</ele>
  <time>2026-09-02T22:12:46Z</time>
  <course>0.0</course>
  <speed>0.0</speed>
  <fix>3d</fix>
</trkpt>
<trkpt lat="33.8103131" lon="-118.3938671">
  <ele>-0.117</ele>
  <time>2026-09-02T22:12:46Z</time>
  <course>186.73</course>
  <speed>0.022360679774997897</speed>
  <fix>3d</fix>
</trkpt>
<trkpt lat="33.810313" lon="-118.393867">
  <ele>-0.12</ele>
  <time>2026-09-02T22:12:46Z</time>
  <course>0.0</course>
  <speed>0.0</speed>
  <fix>3d</fix>
</trkpt>
<trkpt lat="33.8103131" lon="-118.3938671">
  <ele>-0.116</ele>
  <time>2026-09-02T22:12:46Z</time>
  <course>186.73</course>
  <speed>0.022360679774997897</speed>
  <fix>3d</fix>
</trkpt>
<trkpt lat="33.810313" lon="-118.393867">
  <ele>-0.12</ele>
  <time>2026-09-02T22:12:46Z</time>
  <course>0.0</course>
  <speed>0.0</speed>
  <fix>3d</fix>
</trkpt>
<trkpt lat="33.8103131" lon="-118.3938671">
  <ele>-0.114</ele>
  <time>2026-09-02T22:12:46Z</time>
  <course>186.73</course>
  <speed>0.022360679774997897</speed>
  <fix>3d</fix>
</trkpt>
<trkpt lat="33.810313" lon="-118.393867">
  <ele>-0.12</ele>
  <time>2026-09-02T22:12:46Z</time>
  <course>0.0</course>
  <speed>0.0</speed>
  <fix>3d</fix>
</trkpt>
<trkpt lat="33.8103131" lon="-118.3938671">
  <ele>-0.114</ele>
  <time>2026-09-02T22:12:46Z</time>
  <course>186.73</course>
  <speed>0.022360679774997897</speed>
  <fix>3d</fix>
</trkpt>
<trkpt lat="33.810313" lon="-118.393867">
  <ele>-0.12</ele>
  <time>2026-09-02T22:12:46Z</time>
  <course>0.0</course>
  <speed>0.0</speed>
  <fix>3d</fix>
</trkpt>
<trkpt lat="33.8103131" lon="-118.3938671">
  <ele>-0.113</ele>
  <time>2026-09-02T22:12:46Z</time>
  <course>186.72</course>
  <speed>0.022360679774997897</speed>
  <fix>3d</fix>
</trkpt>
<trkpt lat="33.810313" lon="-118.393867">
  <ele>-0.12</ele>
  <time>2026-09-02T22:12:46Z</time>
  <course>0.0</course>
  <speed>0.0</speed>
  <fix>3d</fix>
</trkpt>
<trkpt lat="33.8103131" lon="-118.3938671">
  <ele>-0.113</ele>
  <time>2026-09-02T22:12:46Z</time>
  <course>186.72</course>
  <speed>0.022360679774997897</speed>
  <fix>3d</fix>
</trkpt>
<trkpt lat="33.810313" lon="-118.393867">
  <ele>-0.12</ele>
  <time>2026-09-02T22:12:46Z</time>
  <course>0.0</course>
  <speed>0.0</speed>
  <fix>3d</fix>
</trkpt>
<trkpt lat="33.8103131" lon="-118.3938671">
  <ele>-0.113</ele>
  <time>2026-09-02T22:12:46Z</time>
  <course>186.72</course>
  <speed>0.022360679774997897</speed>
  <fix>3d</fix>
</trkpt>
<trkpt lat="33.810313" lon="-118.393867">
  <ele>-0.12</ele>
  <time>2026-09-02T22:12:46Z</time>
  <course>0.0</course>
  <speed>0.0</speed>
  <fix>3d</fix>
</trkpt>
<trkpt lat="33.8103131" lon="-118.3938671">
  <ele>-0.113</ele>
  <time>2026-09-02T22:12:46Z</time>
  <course>186.72</course>
  <speed>0.022360679774997897</speed>
  <fix>3d</fix>
</trkpt>
<trkpt lat="33.810313" lon="-118.393867">
  <ele>-0.12</ele>
  <time>2026-09-02T22:12:46Z</time>
  <course>0.0</course>
  <speed>0.0</speed>
  <fix>3d</fix>
</trkpt>
<trkpt lat="33.8103131" lon="-118.3938671">
  <ele>-0.113</ele>
  <time>2026-09-02T22:12:46Z</time>
  <course>186.71</course>
  <speed>0.022360679774997897</speed>
  <fix>3d</fix>
</trkpt>
<trkpt lat="33.810313" lon="-118.393867">
  <ele>-0.12</ele>
  <time>2026-09-02T22:12:46Z</time>
  <course>0.0</course>
  <speed>0.0</speed>
  <fix>3d</fix>
</trkpt>
<trkpt lat="33.8103131" lon="-118.3938671">
  <ele>-0.112</ele>
  <time>2026-09-02T22:12:46Z</time>
  <course>186.71</course>
  <speed>0.022360679774997897</speed>
  <fix>3d</fix>
</trkpt>
<trkpt lat="33.810313" lon="-118.393867">
  <ele>-0.12</ele>
  <time>2026-09-02T22:12:46Z</time>
  <course>0.0</course>
  <speed>0.0</speed>
  <fix>3d</fix>
</trkpt>
<trkpt lat="33.8103131" lon="-118.3938671">
  <ele>-0.111</ele>
  <time>2026-09-02T22:12:46Z</time>
  <course>186.71</course>
  <speed>0.022360679774997897</speed>
  <fix>3d</fix>
</trkpt>
<trkpt lat="33.810313" lon="-118.393867">
  <ele>-0.12</ele>
  <time>2026-09-02T22:12:46Z</time>
  <course>0.0</course>
  <speed>0.0</speed>
  <fix>3d</fix>
</trkpt>
<trkpt lat="33.8103131" lon="-118.3938671">
  <ele>-0.11</ele>
  <time>2026-09-02T22:12:46Z</time>
  <course>186.71</course>
  <speed>0.022360679774997897</speed>
  <fix>3d</fix>
</trkpt>
<trkpt lat="33.810313" lon="-118.393867">
  <ele>-0.12</ele>
  <time>2026-09-02T22:12:46Z</time>
  <course>0.0</course>
  <speed>0.0</speed>
  <fix>3d</fix>
</trkpt>
<trkpt lat="33.8103131" lon="-118.3938671">
  <ele>-0.109</ele>
  <time>2026-09-02T22:12:46Z</time>
  <course>186.7</course>
  <speed>0.022360679774997897</speed>
  <fix>3d</fix>
</trkpt>
<trkpt lat="33.810313" lon="-118.393867">
  <ele>-0.12</ele>
  <time>2026-09-02T22:12:46Z</time>
  <course>0.0</course>
  <speed>0.0</speed>
  <fix>3d</fix>
</trkpt>
<trkpt lat="33.8103131" lon="-118.3938671">
  <ele>-0.109</ele>
  <time>2026-09-02T22:12:46Z</time>
  <course>186.7</course>
  <speed>0.022360679774997897</speed>
  <fix>3d</fix>
</trkpt>
<trkpt lat="33.810313" lon="-118.393867">
  <ele>-0.12</ele>
  <time>2026-09-02T22:12:46Z</time>
  <course>0.0</course>
  <speed>0.0</speed>
  <fix>3d</fix>
</trkpt>
<trkpt lat="33.8103131" lon="-118.3938671">
  <ele>-0.109</ele>
  <time>2026-09-02T22:12:46Z</time>
  <course>186.7</course>
  <speed>0.022360679774997897</speed>
  <fix>3d</fix>
</trkpt>
<trkpt lat="33.810313" lon="-118.393867">
  <ele>-0.12</ele>
  <time>2026-09-02T22:12:46Z</time>
  <course>0.0</course>
  <speed>0.0</speed>
  <fix>3d</fix>
</trkpt>
<trkpt lat="33.8103131" lon="-118.3938671">
  <ele>-0.111</ele>
  <time>2026-09-02T22:12:46Z</time>
  <course>186.69</course>
  <speed>0.022360679774997897</speed>
  <fix>3d</fix>
</trkpt>
<trkpt lat="33.810313" lon="-118.393867">
  <ele>-0.12</ele>
  <time>2026-09-02T22:12:46Z</time>
  <course>0.0</course>
  <speed>0.0</speed>
  <fix>3d</fix>
</trkpt>
<trkpt lat="33.8103131" lon="-118.3938671">
  <ele>-0.113</ele>
  <time>2026-09-02T22:12:46Z</time>
  <course>186.69</course>
  <speed>0.022360679774997897</speed>
  <fix>3d</fix>
</trkpt>
<trkpt lat="33.810313" lon="-118.393867">
  <ele>-0.12</ele>
  <time>2026-09-02T22:12:46Z</time>
  <course>0.0</course>
  <speed>0.0</speed>
  <fix>3d</fix>
</trkpt>
<trkpt lat="33.8103131" lon="-118.3938671">
  <ele>-0.115</ele>
  <time>2026-09-02T22:12:46Z</time>
  <course>186.69</course>
  <speed>0.022360679774997897</speed>
  <fix>3d</fix>
</trkpt>
<trkpt lat="33.810313" lon="-118.393867">
  <ele>-0.12</ele>
  <time>2026-09-02T22:12:46Z</time>
  <course>0.0</course>
  <speed>0.0</speed>
  <fix>3d</fix>
</trkpt>
<trkpt lat="33.8103131" lon="-118.3938671">
  <ele>-0.115</ele>
  <time>2026-09-02T22:12:46Z</time>
  <course>186.69</course>
  <speed>0.022360679774997897</speed>
  <fix>3d</fix>
</trkpt>
<trkpt lat="33.810313" lon="-118.393867">
  <ele>-0.12</ele>
  <time>2026-09-02T22:12:46Z</time>
  <course>0.0</course>
  <speed>0.0</speed>
  <fix>3d</fix>
</trkpt>
<trkpt lat="33.8103131" lon="-118.3938671">
  <ele>-0.116</ele>
  <time>2026-09-02T22:12:46Z</time>
  <course>186.68</course>
  <speed>0.022360679774997897</speed>
  <fix>3d</fix>
</trkpt>
<trkpt lat="33.810313" lon="-118.393867">
  <ele>-0.12</ele>
  <time>2026-09-02T22:12:46Z</time>
  <course>0.0</course>
  <speed>0.0</speed>
  <fix>3d</fix>
</trkpt>
<trkpt lat="33.8103131" lon="-118.3938671">
  <ele>-0.116</ele>
  <time>2026-09-02T22:12:46Z</time>
  <course>186.68</course>
  <speed>0.022360679774997897</speed>
  <fix>3d</fix>
</trkpt>
<trkpt lat="33.810313" lon="-118.393867">
  <ele>-0.12</ele>
  <time>2026-09-02T22:12:46Z</time>
  <course>0.0</course>
  <speed>0.0</speed>
  <fix>3d</fix>
</trkpt>
<trkpt lat="33.8103131" lon="-118.3938671">
  <ele>-0.116</ele>
  <time>2026-09-02T22:12:46Z</time>
  <course>186.68</course>
  <speed>0.022360679774997897</speed>
  <fix>3d</fix>
</trkpt>
<trkpt lat="33.810313" lon="-118.393867">
  <ele>-0.12</ele>
  <time>2026-09-02T22:12:46Z</time>
  <course>0.0</course>
  <speed>0.0</speed>
  <fix>3d</fix>
</trkpt>
<trkpt lat="33.8103131" lon="-118.3938671">
  <ele>-0.116</ele>
  <time>2026-09-02T22:12:46Z</time>
  <course>186.68</course>
  <speed>0.022360679774997897</speed>
  <fix>3d</fix>
</trkpt>
<trkpt lat="33.810313" lon="-118.393867">
  <ele>-0.12</ele>
  <time>2026-09-02T22:12:46Z</time>
  <course>0.0</course>
  <speed>0.0</speed>
  <fix>3d</fix>
</trkpt>
<trkpt lat="33.8103131" lon="-118.3938671">
  <ele>-0.115</ele>
  <time>2026-09-02T22:12:46Z</time>
  <course>186.67</course>
  <speed>0.022360679774997897</speed>
  <fix>3d</fix>
</trkpt>
<trkpt lat="33.810313" lon="-118.393867">
  <ele>-0.12</ele>
  <time>2026-09-02T22:12:46Z</time>
  <course>0.0</course>
  <speed>0.0</speed>
  <fix>3d</fix>
</trkpt>
<trkpt lat="33.8103131" lon="-118.3938671">
  <ele>-0.115</ele>
  <time>2026-09-02T22:12:46Z</time>
  <course>186.67</course>
  <speed>0.022360679774997897</speed>
  <fix>3d</fix>
</trkpt>
<trkpt lat="33.810313" lon="-118.393867">
  <ele>-0.12</ele>
  <time>2026-09-02T22:12:46Z</time>
  <course>0.0</course>
  <speed>0.0</speed>
  <fix>3d</fix>
</trkpt>
<trkpt lat="33.8103131" lon="-118.3938671">
  <ele>-0.115</ele>
  <time>2026-09-02T22:12:46Z</time>
  <course>186.67</course>
  <speed>0.022360679774997897</speed>
  <fix>3d</fix>
</trkpt>
<trkpt lat="33.810313" lon="-118.393867">
  <ele>-0.12</ele>
  <time>2026-09-02T22:12:46Z</time>
  <course>0.0</course>
  <speed>0.0</speed>
  <fix>3d</fix>
</trkpt>
<trkpt lat="33.8103131" lon="-118.3938671">
  <ele>-0.116</ele>
  <time>2026-09-02T22:12:46Z</time>
  <course>186.67</course>
  <speed>0.022360679774997897</speed>
  <fix>3d</fix>
</trkpt>
<trkpt lat="33.810313" lon="-118.393867">
  <ele>-0.12</ele>
  <time>2026-09-02T22:12:46Z</time>
  <course>0.0</course>
  <speed>0.0</speed>
  <fix>3d</fix>
</trkpt>
<trkpt lat="33.8103131" lon="-118.3938671">
  <ele>-0.116</ele>
  <time>2026-09-02T22:12:46Z</time>
  <course>186.66</course>
  <speed>0.022360679774997897</speed>
  <fix>3d</fix>
</trkpt>
<trkpt lat="33.810313" lon="-118.393867">
  <ele>-0.12</ele>
  <time>2026-09-02T22:12:46Z</time>
  <course>0.0</course>
  <speed>0.0</speed>
  <fix>3d</fix>
</trkpt>
<trkpt lat="33.8103131" lon="-118.3938671">
  <ele>-0.115</ele>
  <time>2026-09-02T22:12:46Z</time>
  <course>186.66</course>
  <speed>0.022360679774997897</speed>
  <fix>3d</fix>
</trkpt>
<trkpt lat="33.810313" lon="-118.393867">
  <ele>-0.12</ele>
  <time>2026-09-02T22:12:46Z</time>
  <course>0.0</course>
  <speed>0.0</speed>
  <fix>3d</fix>
</trkpt>
<trkpt lat="33.8103131" lon="-118.3938671">
  <ele>-0.114</ele>
  <time>2026-09-02T22:12:46Z</time>
  <course>186.66</course>
  <speed>0.022360679774997897</speed>
  <fix>3d</fix>
</trkpt>
<trkpt lat="33.810313" lon="-118.393867">
  <ele>-0.12</ele>
  <time>2026-09-02T22:12:46Z</time>
  <course>0.0</course>
  <speed>0.0</speed>
  <fix>3d</fix>
</trkpt>
<trkpt lat="33.8103131" lon="-118.3938671">
  <ele>-0.112</ele>
  <time>2026-09-02T22:12:46Z</time>
  <course>186.66</course>
  <speed>0.022360679774997897</speed>
  <fix>3d</fix>
</trkpt>
<trkpt lat="33.810313" lon="-118.393867">
  <ele>-0.12</ele>
  <time>2026-09-02T22:12:46Z</time>
  <course>0.0</course>
  <speed>0.0</speed>
  <fix>3d</fix>
</trkpt>
<trkpt lat="33.8103131" lon="-118.3938671">
  <ele>-0.111</ele>
  <time>2026-09-02T22:12:46Z</time>
  <course>186.66</course>
  <speed>0.022360679774997897</speed>
  <fix>3d</fix>
</trkpt>
<trkpt lat="33.810313" lon="-118.393867">
  <ele>-0.12</ele>
  <time>2026-09-02T22:12:46Z</time>
  <course>0.0</course>
  <speed>0.0</speed>
  <fix>3d</fix>
</trkpt>
<trkpt lat="33.8103131" lon="-118.3938671">
  <ele>-0.109</ele>
  <time>2026-09-02T22:12:46Z</time>
  <course>186.65</course>
  <speed>0.022360679774997897</speed>
  <fix>3d</fix>
</trkpt>
<trkpt lat="33.810313" lon="-118.393867">
  <ele>-0.12</ele>
  <time>2026-09-02T22:12:46Z</time>
  <course>0.0</course>
  <speed>0.0</speed>
  <fix>3d</fix>
</trkpt>
<trkpt lat="33.8103131" lon="-118.3938671">
  <ele>-0.108</ele>
  <time>2026-09-02T22:12:46Z</time>
  <course>186.65</course>
  <speed>0.022360679774997897</speed>
  <fix>3d</fix>
</trkpt>
<trkpt lat="33.810313" lon="-118.393867">
  <ele>-0.12</ele>
  <time>2026-09-02T22:12:46Z</time>
  <course>0.0</course>
  <speed>0.0</speed>
  <fix>3d</fix>
</trkpt>
<trkpt lat="33.8103131" lon="-118.3938671">
  <ele>-0.128</ele>
  <time>2026-09-02T22:12:46Z</time>
  <course>186.65</course>
  <speed>0.022360679774997897</speed>
  <fix>3d</fix>
</trkpt>
<trkpt lat="33.810313" lon="-118.393867">
  <ele>-0.12</ele>
  <time>2026-09-02T22:12:46Z</time>
  <course>0.0</course>
  <speed>0.0</speed>
  <fix>3d</fix>
</trkpt>
<trkpt lat="33.8103131" lon="-118.3938671">
  <ele>-0.156</ele>
  <time>2026-09-02T22:12:46Z</time>
  <course>186.65</course>
  <speed>0.022360679774997897</speed>
  <fix>3d</fix>
</trkpt>
<trkpt lat="33.810313" lon="-118.393867">
  <ele>-0.13</ele>
  <time>2026-09-02T22:12:46Z</time>
  <course>275.0</course>
  <speed>0.0</speed>
  <fix>3d</fix>
</trkpt>
<trkpt lat="33.8103131" lon="-118.3938671">
  <ele>-0.183</ele>
  <time>2026-09-02T22:12:46Z</time>
  <course>186.64</course>
  <speed>0.01414213562373095</speed>
  <fix>3d</fix>
</trkpt>
<trkpt lat="33.810313" lon="-118.393867">
  <ele>-0.13</ele>
  <time>2026-09-02T22:12:46Z</time>
  <course>275.0</course>
  <speed>0.0</speed>
  <fix>3d</fix>
</trkpt>
<trkpt lat="33.8103131" lon="-118.3938671">
  <ele>-0.205</ele>
  <time>2026-09-02T22:12:46Z</time>
  <course>186.64</course>
  <speed>0.01414213562373095</speed>
  <fix>3d</fix>
</trkpt>
<trkpt lat="33.810313" lon="-118.393867">
  <ele>-0.17</ele>
  <time>2026-09-02T22:12:46Z</time>
  <course>95.0</course>
  <speed>0.0</speed>
  <fix>3d</fix>
</trkpt>
<trkpt lat="33.8103131" lon="-118.3938671">
  <ele>-0.205</ele>
  <time>2026-09-02T22:12:46Z</time>
  <course>186.64</course>
  <speed>0.01414213562373095</speed>
  <fix>3d</fix>
</trkpt>
<trkpt lat="33.8103131" lon="-118.3938671">
  <ele>-0.222</ele>
  <time>2026-09-02T22:12:46Z</time>
  <course>186.64</course>
  <speed>0.01414213562373095</speed>
  <fix>3d</fix>
</trkpt>
<trkpt lat="33.810313" lon="-118.393867">
  <ele>-0.17</ele>
  <time>2026-09-02T22:12:46Z</time>
  <course>95.0</course>
  <speed>0.0</speed>
  <fix>3d</fix>
</trkpt>
<trkpt lat="33.8103131" lon="-118.3938671">
  <ele>-0.236</ele>
  <time>2026-09-02T22:12:46Z</time>
  <course>186.64</course>
  <speed>0.01414213562373095</speed>
  <fix>3d</fix>
</trkpt>
<trkpt lat="33.810313" lon="-118.393867">
  <ele>-0.2</ele>
  <time>2026-09-02T22:12:46Z</time>
  <course>95.0</course>
  <speed>0.0</speed>
  <fix>3d</fix>
</trkpt>
<trkpt lat="33.8103131" lon="-118.3938671">
  <ele>-0.255</ele>
  <time>2026-09-02T22:12:46Z</time>
  <course>186.63</course>
  <speed>0.01414213562373095</speed>
  <fix>3d</fix>
</trkpt>
<trkpt lat="33.810313" lon="-118.393867">
  <ele>-0.2</ele>
  <time>2026-09-02T22:12:46Z</time>
  <course>95.0</course>
  <speed>0.0</speed>
  <fix>3d</fix>
</trkpt>
<trkpt lat="33.8103131" lon="-118.3938671">
  <ele>-0.291</ele>
  <time>2026-09-02T22:12:46Z</time>
  <course>186.63</course>
  <speed>0.01414213562373095</speed>
  <fix>3d</fix>
</trkpt>
<trkpt lat="33.810313" lon="-118.393867">
  <ele>-0.24</ele>
  <time>2026-09-02T22:12:46Z</time>
  <course>95.0</course>
  <speed>0.0</speed>
  <fix>3d</fix>
</trkpt>
<trkpt lat="33.8103131" lon="-118.3938671">
  <ele>-0.292</ele>
  <time>2026-09-02T22:12:46Z</time>
  <course>186.63</course>
  <speed>0.01414213562373095</speed>
  <fix>3d</fix>
</trkpt>
<trkpt lat="33.8103131" lon="-118.3938671">
  <ele>-0.345</ele>
  <time>2026-09-02T22:12:46Z</time>
  <course>186.63</course>
  <speed>0.01</speed>
  <fix>3d</fix>
</trkpt>
<trkpt lat="33.810313" lon="-118.393867">
  <ele>-0.24</ele>
  <time>2026-09-02T22:12:46Z</time>
  <course>95.0</course>
  <speed>0.0</speed>
  <fix>3d</fix>
</trkpt>
<trkpt lat="33.8103131" lon="-118.3938671">
  <ele>-0.346</ele>
  <time>2026-09-02T22:12:46Z</time>
  <course>186.63</course>
  <speed>0.01</speed>
  <fix>3d</fix>
</trkpt>
<trkpt lat="33.8103131" lon="-118.3938671">
  <ele>-0.412</ele>
  <time>2026-09-02T22:12:46Z</time>
  <course>186.63</course>
  <speed>0.0</speed>
  <fix>3d</fix>
</trkpt>
<trkpt lat="33.810313" lon="-118.393867">
  <ele>-0.3</ele>
  <time>2026-09-02T22:12:46Z</time>
  <course>275.0</course>
  <speed>0.0</speed>
  <fix>3d</fix>
</trkpt>
<trkpt lat="33.8103131" lon="-118.3938671">
  <ele>-0.432</ele>
  <time>2026-09-02T22:12:46Z</time>
  <course>186.63</course>
  <speed>0.0</speed>
  <fix>3d</fix>
</trkpt>
<trkpt lat="33.8103131" lon="-118.3938671">
  <ele>-0.49</ele>
  <time>2026-09-02T22:12:46Z</time>
  <course>186.62</course>
  <speed>0.0</speed>
  <fix>3d</fix>
</trkpt>
<trkpt lat="33.810313" lon="-118.393867">
  <ele>-0.3</ele>
  <time>2026-09-02T22:12:46Z</time>
  <course>275.0</course>
  <speed>0.0</speed>
  <fix>3d</fix>
</trkpt>
<trkpt lat="33.8103131" lon="-118.3938671">
  <ele>-0.491</ele>
  <time>2026-09-02T22:12:46Z</time>
  <course>186.62</course>
  <speed>0.0</speed>
  <fix>3d</fix>
</trkpt>
<trkpt lat="33.8103131" lon="-118.3938671">
  <ele>-0.574</ele>
  <time>2026-09-02T22:12:46Z</time>
  <course>186.62</course>
  <speed>0.0</speed>
  <fix>3d</fix>
</trkpt>
<trkpt lat="33.810313" lon="-118.393867">
  <ele>-0.42</ele>
  <time>2026-09-02T22:12:46Z</time>
  <course>275.0</course>
  <speed>0.0</speed>
  <fix>3d</fix>
</trkpt>
<trkpt lat="33.8103131" lon="-118.3938671">
  <ele>-0.596</ele>
  <time>2026-09-02T22:12:46Z</time>
  <course>186.62</course>
  <speed>0.0</speed>
  <fix>3d</fix>
</trkpt>
<trkpt lat="33.8103131" lon="-118.3938671">
  <ele>-0.664</ele>
  <time>2026-09-02T22:12:46Z</time>
  <course>186.62</course>
  <speed>0.0</speed>
  <fix>3d</fix>
</trkpt>
<trkpt lat="33.810313" lon="-118.393867">
  <ele>-0.42</ele>
  <time>2026-09-02T22:12:46Z</time>
  <course>275.0</course>
  <speed>0.0</speed>
  <fix>3d</fix>
</trkpt>
<trkpt lat="33.8103131" lon="-118.3938671">
  <ele>-0.689</ele>
  <time>2026-09-02T22:12:46Z</time>
  <course>186.62</course>
  <speed>0.0</speed>
  <fix>3d</fix>
</trkpt>
<trkpt lat="33.8103131" lon="-118.3938671">
  <ele>-0.758</ele>
  <time>2026-09-02T22:12:46Z</time>
  <course>184.88</course>
  <speed>0.0</speed>
  <fix>3d</fix>
</trkpt>
<trkpt lat="33.810313" lon="-118.393867">
  <ele>-0.58</ele>
  <time>2026-09-02T22:12:46Z</time>
  <course>275.0</course>
  <speed>0.0</speed>
  <fix>3d</fix>
</trkpt>
<trkpt lat="33.8103131" lon="-118.3938671">
  <ele>-0.76</ele>
  <time>2026-09-02T22:12:46Z</time>
  <course>184.88</course>
  <speed>0.0</speed>
  <fix>3d</fix>
</trkpt>
<trkpt lat="33.8103131" lon="-118.3938671">
  <ele>-0.854</ele>
  <time>2026-09-02T22:12:46Z</time>
  <course>184.88</course>
  <speed>0.0</speed>
  <fix>3d</fix>
</trkpt>
<trkpt lat="33.810313" lon="-118.393867">
  <ele>-0.58</ele>
  <time>2026-09-02T22:12:46Z</time>
  <course>275.0</course>
  <speed>0.0</speed>
  <fix>3d</fix>
</trkpt>
<trkpt lat="33.8103131" lon="-118.3938671">
  <ele>-0.881</ele>
  <time>2026-09-02T22:12:46Z</time>
  <course>184.89</course>
  <speed>0.0</speed>
  <fix>3d</fix>
</trkpt>
<trkpt lat="33.8103131" lon="-118.3938671">
  <ele>-0.951</ele>
  <time>2026-09-02T22:12:46Z</time>
  <course>184.89</course>
  <speed>0.0</speed>
  <fix>3d</fix>
</trkpt>
<trkpt lat="33.810313" lon="-118.393867">
  <ele>-0.75</ele>
  <time>2026-09-02T22:12:46Z</time>
  <course>275.0</course>
  <speed>0.0</speed>
  <fix>3d</fix>
</trkpt>
<trkpt lat="33.8103131" lon="-118.3938671">
  <ele>-0.953</ele>
  <time>2026-09-02T22:12:46Z</time>
  <course>184.89</course>
  <speed>0.0</speed>
  <fix>3d</fix>
</trkpt>
<trkpt lat="33.8103131" lon="-118.3938671">
  <ele>-1.047</ele>
  <time>2026-09-02T22:12:46Z</time>
  <course>184.89</course>
  <speed>0.0</speed>
  <fix>3d</fix>
</trkpt>
<trkpt lat="33.810313" lon="-118.393867">
  <ele>-0.75</ele>
  <time>2026-09-02T22:12:46Z</time>
  <course>275.0</course>
  <speed>0.0</speed>
  <fix>3d</fix>
</trkpt>
<trkpt lat="33.8103131" lon="-118.3938671">
  <ele>-1.074</ele>
  <time>2026-09-02T22:12:46Z</time>
  <course>184.9</course>
  <speed>0.0</speed>
  <fix>3d</fix>
</trkpt>
<trkpt lat="33.8103131" lon="-118.3938671">
  <ele>-1.145</ele>
  <time>2026-09-02T22:12:46Z</time>
  <course>184.9</course>
  <speed>0.0</speed>
  <fix>3d</fix>
</trkpt>
<trkpt lat="33.810313" lon="-118.393867">
  <ele>-0.92</ele>
  <time>2026-09-02T22:12:46Z</time>
  <course>275.0</course>
  <speed>0.0</speed>
  <fix>3d</fix>
</trkpt>
<trkpt lat="33.8103131" lon="-118.3938671">
  <ele>-1.174</ele>
  <time>2026-09-02T22:12:46Z</time>
  <course>184.9</course>
  <speed>0.0</speed>
  <fix>3d</fix>
</trkpt>
<trkpt lat="33.8103131" lon="-118.3938671">
  <ele>-1.243</ele>
  <time>2026-09-02T22:12:46Z</time>
  <course>184.91</course>
  <speed>0.0</speed>
  <fix>3d</fix>
</trkpt>
<trkpt lat="33.810313" lon="-118.393867">
  <ele>-0.92</ele>
  <time>2026-09-02T22:12:46Z</time>
  <course>275.0</course>
  <speed>0.0</speed>
  <fix>3d</fix>
</trkpt>
<trkpt lat="33.8103131" lon="-118.3938671">
  <ele>-1.267</ele>
  <time>2026-09-02T22:12:46Z</time>
  <course>184.91</course>
  <speed>0.0</speed>
  <fix>3d</fix>
</trkpt>
<trkpt lat="33.8103131" lon="-118.3938671">
  <ele>-1.341</ele>
  <time>2026-09-02T22:12:46Z</time>
  <course>184.92</course>
  <speed>0.0</speed>
  <fix>3d</fix>
</trkpt>
<trkpt lat="33.810313" lon="-118.393867">
  <ele>-1.11</ele>
  <time>2026-09-02T22:12:46Z</time>
  <course>275.0</course>
  <speed>0.0</speed>
  <fix>3d</fix>
</trkpt>
<trkpt lat="33.8103131" lon="-118.3938671">
  <ele>-1.343</ele>
  <time>2026-09-02T22:12:46Z</time>
  <course>184.92</course>
  <speed>0.0</speed>
  <fix>3d</fix>
</trkpt>
<trkpt lat="33.8103131" lon="-118.3938671">
  <ele>-1.439</ele>
  <time>2026-09-02T22:12:46Z</time>
  <course>184.92</course>
  <speed>0.0</speed>
  <fix>3d</fix>
</trkpt>
<trkpt lat="33.810313" lon="-118.393867">
  <ele>-1.11</ele>
  <time>2026-09-02T22:12:46Z</time>
  <course>275.0</course>
  <speed>0.0</speed>
  <fix>3d</fix>
</trkpt>
<trkpt lat="33.8103131" lon="-118.3938671">
  <ele>-1.441</ele>
  <time>2026-09-02T22:12:46Z</time>
  <course>184.92</course>
  <speed>0.0</speed>
  <fix>3d</fix>
</trkpt>
<trkpt lat="33.8103131" lon="-118.3938671">
  <ele>-1.537</ele>
  <time>2026-09-02T22:12:46Z</time>
  <course>184.93</course>
  <speed>0.0</speed>
  <fix>3d</fix>
</trkpt>
<trkpt lat="33.810313" lon="-118.393867">
  <ele>-1.3</ele>
  <time>2026-09-02T22:12:46Z</time>
  <course>275.0</course>
  <speed>0.0</speed>
  <fix>3d</fix>
</trkpt>
<trkpt lat="33.8103131" lon="-118.3938671">
  <ele>-1.564</ele>
  <time>2026-09-02T22:12:46Z</time>
  <course>184.93</course>
  <speed>0.0</speed>
  <fix>3d</fix>
</trkpt>
<trkpt lat="33.8103131" lon="-118.3938671">
  <ele>-1.635</ele>
  <time>2026-09-02T22:12:46Z</time>
  <course>184.93</course>
  <speed>0.0</speed>
  <fix>3d</fix>
</trkpt>
<trkpt lat="33.810313" lon="-118.393867">
  <ele>-1.3</ele>
  <time>2026-09-02T22:12:46Z</time>
  <course>275.0</course>
  <speed>0.0</speed>
  <fix>3d</fix>
</trkpt>
<trkpt lat="33.8103131" lon="-118.3938671">
  <ele>-1.662</ele>
  <time>2026-09-02T22:12:46Z</time>
  <course>184.94</course>
  <speed>0.0</speed>
  <fix>3d</fix>
</trkpt>
<trkpt lat="33.8103131" lon="-118.3938671">
  <ele>-1.733</ele>
  <time>2026-09-02T22:12:46Z</time>
  <course>184.94</course>
  <speed>0.0</speed>
  <fix>3d</fix>
</trkpt>
<trkpt lat="33.810313" lon="-118.393867">
  <ele>-1.48</ele>
  <time>2026-09-02T22:12:46Z</time>
  <course>275.0</course>
  <speed>0.0</speed>
  <fix>3d</fix>
</trkpt>
<trkpt lat="33.8103131" lon="-118.3938671">
  <ele>-1.762</ele>
  <time>2026-09-02T22:12:46Z</time>
  <course>184.94</course>
  <speed>0.0</speed>
  <fix>3d</fix>
</trkpt>
<trkpt lat="33.810313" lon="-118.3938671">
  <ele>-1.83</ele>
  <time>2026-09-02T22:12:46Z</time>
  <course>184.95</course>
  <speed>0.0</speed>
  <fix>3d</fix>
</trkpt>
<trkpt lat="33.810313" lon="-118.393867">
  <ele>-1.48</ele>
  <time>2026-09-02T22:12:46Z</time>
  <course>275.0</course>
  <speed>0.0</speed>
  <fix>3d</fix>
</trkpt>
<trkpt lat="33.810313" lon="-118.3938671">
  <ele>-1.859</ele>
  <time>2026-09-02T22:12:46Z</time>
  <course>184.95</course>
  <speed>0.0</speed>
  <fix>3d</fix>
</trkpt>
<trkpt lat="33.810313" lon="-118.393867">
  <ele>-1.926</ele>
  <time>2026-09-02T22:12:46Z</time>
  <course>184.95</course>
  <speed>0.0</speed>
  <fix>3d</fix>
</trkpt>
<trkpt lat="33.810313" lon="-118.393867">
  <ele>-1.67</ele>
  <time>2026-09-02T22:12:46Z</time>
  <course>275.0</course>
  <speed>0.0</speed>
  <fix>3d</fix>
</trkpt>
<trkpt lat="33.810313" lon="-118.393867">
  <ele>-1.928</ele>
  <time>2026-09-02T22:12:46Z</time>
  <course>184.95</course>
  <speed>0.0</speed>
  <fix>3d</fix>
</trkpt>
<trkpt lat="33.810313" lon="-118.393867">
  <ele>-2.022</ele>
  <time>2026-09-02T22:12:46Z</time>
  <course>184.96</course>
  <speed>0.0</speed>
  <fix>3d</fix>
</trkpt>
<trkpt lat="33.810313" lon="-118.393867">
  <ele>-1.67</ele>
  <time>2026-09-02T22:12:46Z</time>
  <course>275.0</course>
  <speed>0.0</speed>
  <fix>3d</fix>
</trkpt>
<trkpt lat="33.810313" lon="-118.393867">
  <ele>-2.044</ele>
  <time>2026-09-02T22:12:46Z</time>
  <course>184.96</course>
  <speed>0.0</speed>
  <fix>3d</fix>
</trkpt>
<trkpt lat="33.810313" lon="-118.393867">
  <ele>-2.119</ele>
  <time>2026-09-02T22:12:46Z</time>
  <course>184.97</course>
  <speed>0.0</speed>
  <fix>3d</fix>
</trkpt>
<trkpt lat="33.810313" lon="-118.393867">
  <ele>-1.86</ele>
  <time>2026-09-02T22:12:46Z</time>
  <course>275.0</course>
  <speed>0.0</speed>
  <fix>3d</fix>
</trkpt>
<trkpt lat="33.810313" lon="-118.393867">
  <ele>-2.145</ele>
  <time>2026-09-02T22:12:46Z</time>
  <course>184.97</course>
  <speed>0.0</speed>
  <fix>3d</fix>
</trkpt>
<trkpt lat="33.810313" lon="-118.393867">
  <ele>-2.215</ele>
  <time>2026-09-02T22:12:46Z</time>
  <course>184.97</course>
  <speed>0.0</speed>
  <fix>3d</fix>
</trkpt>
<trkpt lat="33.810313" lon="-118.393867">
  <ele>-1.86</ele>
  <time>2026-09-02T22:12:46Z</time>
  <course>275.0</course>
  <speed>0.0</speed>
  <fix>3d</fix>
</trkpt>
<trkpt lat="33.810313" lon="-118.393867">
  <ele>-2.242</ele>
  <time>2026-09-02T22:12:46Z</time>
  <course>184.97</course>
  <speed>0.0</speed>
  <fix>3d</fix>
</trkpt>
<trkpt lat="33.810313" lon="-118.393867">
  <ele>-2.313</ele>
  <time>2026-09-02T22:12:46Z</time>
  <course>184.98</course>
  <speed>0.0</speed>
  <fix>3d</fix>
</trkpt>
<trkpt lat="33.810313" lon="-118.393867">
  <ele>-2.04</ele>
  <time>2026-09-02T22:12:46Z</time>
  <course>275.0</course>
  <speed>0.0</speed>
  <fix>3d</fix>
</trkpt>
<trkpt lat="33.810313" lon="-118.393867">
  <ele>-2.316</ele>
  <time>2026-09-02T22:12:46Z</time>
  <course>184.98</course>
  <speed>0.0</speed>
  <fix>3d</fix>
</trkpt>
<trkpt lat="33.810313" lon="-118.393867">
  <ele>-2.412</ele>
  <time>2026-09-02T22:12:46Z</time>
  <course>184.99</course>
  <speed>0.0</speed>
  <fix>3d</fix>
</trkpt>
<trkpt lat="33.810313" lon="-118.393867">
  <ele>-2.04</ele>
  <time>2026-09-02T22:12:46Z</time>
  <course>275.0</course>
  <speed>0.0</speed>
  <fix>3d</fix>
</trkpt>
<trkpt lat="33.810313" lon="-118.393867">
  <ele>-2.413</ele>
  <time>2026-09-02T22:12:46Z</time>
  <course>184.99</course>
  <speed>0.0</speed>
  <fix>3d</fix>
</trkpt>
<trkpt lat="33.810313" lon="-118.393867">
  <ele>-2.511</ele>
  <time>2026-09-02T22:12:46Z</time>
  <course>184.99</course>
  <speed>0.0</speed>
  <fix>3d</fix>
</trkpt>
<trkpt lat="33.810313" lon="-118.393867">
  <ele>-2.24</ele>
  <time>2026-09-02T22:12:46Z</time>
  <course>275.0</course>
  <speed>0.0</speed>
  <fix>3d</fix>
</trkpt>
<trkpt lat="33.810313" lon="-118.393867">
  <ele>-2.537</ele>
  <time>2026-09-02T22:12:46Z</time>
  <course>184.99</course>
  <speed>0.0</speed>
  <fix>3d</fix>
</trkpt>
<trkpt lat="33.810313" lon="-118.393867">
  <ele>-2.609</ele>
  <time>2026-09-02T22:12:46Z</time>
  <course>185.0</course>
  <speed>0.0</speed>
  <fix>3d</fix>
</trkpt>
<trkpt lat="33.810313" lon="-118.393867">
  <ele>-2.24</ele>
  <time>2026-09-02T22:12:46Z</time>
  <course>275.0</course>
  <speed>0.0</speed>
  <fix>3d</fix>
</trkpt>
<trkpt lat="33.810313" lon="-118.393867">
  <ele>-2.63</ele>
  <time>2026-09-02T22:12:46Z</time>
  <course>185.0</course>
  <speed>0.0</speed>
  <fix>3d</fix>
</trkpt>
<trkpt lat="33.810313" lon="-118.393867">
  <ele>-2.707</ele>
  <time>2026-09-02T22:12:46Z</time>
  <course>185.0</course>
  <speed>0.0</speed>
  <fix>3d</fix>
</trkpt>
<trkpt lat="33.810313" lon="-118.393867">
  <ele>-2.43</ele>
  <time>2026-09-02T22:12:46Z</time>
  <course>275.0</course>
  <speed>0.0</speed>
  <fix>3d</fix>
</trkpt>
<trkpt lat="33.810313" lon="-118.393867">
  <ele>-2.733</ele>
  <time>2026-09-02T22:12:46Z</time>
  <course>185.01</course>
  <speed>0.0</speed>
  <fix>3d</fix>
</trkpt>
<trkpt lat="33.810313" lon="-118.393867">
  <ele>-2.805</ele>
  <time>2026-09-02T22:12:46Z</time>
  <course>185.01</course>
  <speed>0.0</speed>
  <fix>3d</fix>
</trkpt>
<trkpt lat="33.810313" lon="-118.393867">
  <ele>-2.43</ele>
  <time>2026-09-02T22:12:46Z</time>
  <course>275.0</course>
  <speed>0.0</speed>
  <fix>3d</fix>
</trkpt>
<trkpt lat="33.810313" lon="-118.393867">
  <ele>-2.833</ele>
  <time>2026-09-02T22:12:46Z</time>
  <course>185.01</course>
  <speed>0.0</speed>
  <fix>3d</fix>
</trkpt>
<trkpt lat="33.810313" lon="-118.393867">
  <ele>-2.905</ele>
  <time>2026-09-02T22:12:46Z</time>
  <course>185.02</course>
  <speed>0.0</speed>
  <fix>3d</fix>
</trkpt>
<trkpt lat="33.810313" lon="-118.393867">
  <ele>-2.62</ele>
  <time>2026-09-02T22:12:46Z</time>
  <course>275.0</course>
  <speed>0.0</speed>
  <fix>3d</fix>
</trkpt>
<trkpt lat="33.810313" lon="-118.393867">
  <ele>-2.907</ele>
  <time>2026-09-02T22:12:46Z</time>
  <course>185.02</course>
  <speed>0.0</speed>
  <fix>3d</fix>
</trkpt>
<trkpt lat="33.810313" lon="-118.393867">
  <ele>-3.003</ele>
  <time>2026-09-02T22:12:46Z</time>
  <course>185.02</course>
  <speed>0.0</speed>
  <fix>3d</fix>
</trkpt>
<trkpt lat="33.810313" lon="-118.393867">
  <ele>-2.62</ele>
  <time>2026-09-02T22:12:46Z</time>
  <course>275.0</course>
  <speed>0.0</speed>
  <fix>3d</fix>
</trkpt>
<trkpt lat="33.810313" lon="-118.393867">
  <ele>-3.03</ele>
  <time>2026-09-02T22:12:46Z</time>
  <course>185.02</course>
  <speed>0.0</speed>
  <fix>3d</fix>
</trkpt>
<trkpt lat="33.810313" lon="-118.3938671">
  <ele>-3.101</ele>
  <time>2026-09-02T22:12:46Z</time>
  <course>185.03</course>
  <speed>0.0</speed>
  <fix>3d</fix>
</trkpt>
<trkpt lat="33.810313" lon="-118.393867">
  <ele>-2.82</ele>
  <time>2026-09-02T22:12:46Z</time>
  <course>275.0</course>
  <speed>0.0</speed>
  <fix>3d</fix>
</trkpt>
<trkpt lat="33.810313" lon="-118.3938671">
  <ele>-3.125</ele>
  <time>2026-09-02T22:12:46Z</time>
  <course>185.03</course>
  <speed>0.0</speed>
  <fix>3d</fix>
</trkpt>
<trkpt lat="33.810313" lon="-118.3938671">
  <ele>-3.198</ele>
  <time>2026-09-02T22:12:46Z</time>
  <course>185.03</course>
  <speed>0.0</speed>
  <fix>3d</fix>
</trkpt>
<trkpt lat="33.810313" lon="-118.393867">
  <ele>-2.82</ele>
  <time>2026-09-02T22:12:46Z</time>
  <course>275.0</course>
  <speed>0.0</speed>
  <fix>3d</fix>
</trkpt>
<trkpt lat="33.810313" lon="-118.3938671">
  <ele>-3.228</ele>
  <time>2026-09-02T22:12:46Z</time>
  <course>185.04</course>
  <speed>0.0</speed>
  <fix>3d</fix>
</trkpt>
<trkpt lat="33.810313" lon="-118.3938671">
  <ele>-3.297</ele>
  <time>2026-09-02T22:12:46Z</time>
  <course>185.04</course>
  <speed>0.0</speed>
  <fix>3d</fix>
</trkpt>
<trkpt lat="33.810313" lon="-118.393867">
  <ele>-3.01</ele>
  <time>2026-09-02T22:12:46Z</time>
  <course>275.0</course>
  <speed>0.0</speed>
  <fix>3d</fix>
</trkpt>
<trkpt lat="33.810313" lon="-118.3938671">
  <ele>-3.325</ele>
  <time>2026-09-02T22:12:46Z</time>
  <course>185.04</course>
  <speed>0.0</speed>
  <fix>3d</fix>
</trkpt>
<trkpt lat="33.810313" lon="-118.3938671">
  <ele>-3.396</ele>
  <time>2026-09-02T22:12:46Z</time>
  <course>185.05</course>
  <speed>0.0</speed>
  <fix>3d</fix>
</trkpt>
<trkpt lat="33.810313" lon="-118.393867">
  <ele>-3.01</ele>
  <time>2026-09-02T22:12:46Z</time>
  <course>275.0</course>
  <speed>0.0</speed>
  <fix>3d</fix>
</trkpt>
<trkpt lat="33.810313" lon="-118.3938671">
  <ele>-3.399</ele>
  <time>2026-09-02T22:12:46Z</time>
  <course>185.05</course>
  <speed>0.0</speed>
  <fix>3d</fix>
</trkpt>
<trkpt lat="33.810313" lon="-118.3938671">
  <ele>-3.495</ele>
  <time>2026-09-02T22:12:46Z</time>
  <course>185.05</course>
  <speed>0.0</speed>
  <fix>3d</fix>
</trkpt>
<trkpt lat="33.810313" lon="-118.393867">
  <ele>-3.2</ele>
  <time>2026-09-02T22:12:46Z</time>
  <course>275.0</course>
  <speed>0.0</speed>
  <fix>3d</fix>
</trkpt>
<trkpt lat="33.810313" lon="-118.3938671">
  <ele>-3.497</ele>
  <time>2026-09-02T22:12:46Z</time>
  <course>185.05</course>
  <speed>0.0</speed>
  <fix>3d</fix>
</trkpt>
<trkpt lat="33.8103131" lon="-118.3938671">
  <ele>-3.592</ele>
  <time>2026-09-02T22:12:46Z</time>
  <course>185.06</course>
  <speed>0.0</speed>
  <fix>3d</fix>
</trkpt>
<trkpt lat="33.810313" lon="-118.393867">
  <ele>-3.2</ele>
  <time>2026-09-02T22:12:46Z</time>
  <course>275.0</course>
  <speed>0.0</speed>
  <fix>3d</fix>
</trkpt>
<trkpt lat="33.8103131" lon="-118.3938671">
  <ele>-3.594</ele>
  <time>2026-09-02T22:12:46Z</time>
  <course>185.06</course>
  <speed>0.0</speed>
  <fix>3d</fix>
</trkpt>
<trkpt lat="33.8103131" lon="-118.3938671">
  <ele>-3.689</ele>
  <time>2026-09-02T22:12:46Z</time>
  <course>185.07</course>
  <speed>0.0</speed>
  <fix>3d</fix>
</trkpt>
<trkpt lat="33.810313" lon="-118.393867">
  <ele>-3.39</ele>
  <time>2026-09-02T22:12:46Z</time>
  <course>275.0</course>
  <speed>0.0</speed>
  <fix>3d</fix>
</trkpt>
<trkpt lat="33.8103131" lon="-118.3938671">
  <ele>-3.691</ele>
  <time>2026-09-02T22:12:46Z</time>
  <course>185.07</course>
  <speed>0.0</speed>
  <fix>3d</fix>
</trkpt>
<trkpt lat="33.8103131" lon="-118.3938671">
  <ele>-3.784</ele>
  <time>2026-09-02T22:12:46Z</time>
  <course>185.07</course>
  <speed>0.0</speed>
  <fix>3d</fix>
</trkpt>
<trkpt lat="33.810313" lon="-118.393867">
  <ele>-3.39</ele>
  <time>2026-09-02T22:12:46Z</time>
  <course>275.0</course>
  <speed>0.0</speed>
  <fix>3d</fix>
</trkpt>
<trkpt lat="33.8103131" lon="-118.3938671">
  <ele>-3.81</ele>
  <time>2026-09-02T22:12:46Z</time>
  <course>185.07</course>
  <speed>0.0</speed>
  <fix>3d</fix>
</trkpt>
<trkpt lat="33.8103131" lon="-118.3938671">
  <ele>-3.88</ele>
  <time>2026-09-02T22:12:46Z</time>
  <course>185.08</course>
  <speed>0.0</speed>
  <fix>3d</fix>
</trkpt>
<trkpt lat="33.810313" lon="-118.393867">
  <ele>-3.58</ele>
  <time>2026-09-02T22:12:46Z</time>
  <course>275.0</course>
  <speed>0.0</speed>
  <fix>3d</fix>
</trkpt>
<trkpt lat="33.8103131" lon="-118.3938671">
  <ele>-3.882</ele>
  <time>2026-09-02T22:12:46Z</time>
  <course>185.08</course>
  <speed>0.0</speed>
  <fix>3d</fix>
</trkpt>
<trkpt lat="33.8103131" lon="-118.3938671">
  <ele>-3.977</ele>
  <time>2026-09-02T22:12:46Z</time>
  <course>185.08</course>
  <speed>0.0</speed>
  <fix>3d</fix>
</trkpt>
<trkpt lat="33.810313" lon="-118.393867">
  <ele>-3.58</ele>
  <time>2026-09-02T22:12:46Z</time>
  <course>275.0</course>
  <speed>0.0</speed>
  <fix>3d</fix>
</trkpt>
<trkpt lat="33.8103131" lon="-118.3938671">
  <ele>-4.004</ele>
  <time>2026-09-02T22:12:46Z</time>
  <course>185.09</course>
  <speed>0.0</speed>
  <fix>3d</fix>
</trkpt>
<trkpt lat="33.8103131" lon="-118.3938671">
  <ele>-4.076</ele>
  <time>2026-09-02T22:12:46Z</time>
  <course>185.09</course>
  <speed>0.0</speed>
  <fix>3d</fix>
</trkpt>
<trkpt lat="33.810313" lon="-118.393867">
  <ele>-3.78</ele>
  <time>2026-09-02T22:12:46Z</time>
  <course>275.0</course>
  <speed>0.0</speed>
  <fix>3d</fix>
</trkpt>
<trkpt lat="33.8103131" lon="-118.3938671">
  <ele>-4.103</ele>
  <time>2026-09-02T22:12:46Z</time>
  <course>185.09</course>
  <speed>0.0</speed>
  <fix>3d</fix>
</trkpt>
<trkpt lat="33.8103131" lon="-118.3938671">
  <ele>-4.175</ele>
  <time>2026-09-02T22:12:46Z</time>
  <course>185.1</course>
  <speed>0.0</speed>
  <fix>3d</fix>
</trkpt>
<trkpt lat="33.810313" lon="-118.393867">
  <ele>-3.78</ele>
  <time>2026-09-02T22:12:46Z</time>
  <course>275.0</course>
  <speed>0.0</speed>
  <fix>3d</fix>
</trkpt>
<trkpt lat="33.8103131" lon="-118.3938671">
  <ele>-4.204</ele>
  <time>2026-09-02T22:12:46Z</time>
  <course>185.1</course>
  <speed>0.0</speed>
  <fix>3d</fix>
</trkpt>
<trkpt lat="33.8103131" lon="-118.3938671">
  <ele>-4.274</ele>
  <time>2026-09-02T22:12:46Z</time>
  <course>185.1</course>
  <speed>0.0</speed>
  <fix>3d</fix>
</trkpt>
<trkpt lat="33.810313" lon="-118.393867">
  <ele>-3.97</ele>
  <time>2026-09-02T22:12:46Z</time>
  <course>275.0</course>
  <speed>0.0</speed>
  <fix>3d</fix>
</trkpt>
<trkpt lat="33.8103131" lon="-118.3938671">
  <ele>-4.296</ele>
  <time>2026-09-02T22:12:46Z</time>
  <course>185.11</course>
  <speed>0.0</speed>
  <fix>3d</fix>
</trkpt>
<trkpt lat="33.8103131" lon="-118.3938671">
  <ele>-4.373</ele>
  <time>2026-09-02T22:12:46Z</time>
  <course>185.11</course>
  <speed>0.0</speed>
  <fix>3d</fix>
</trkpt>
<trkpt lat="33.810313" lon="-118.393867">
  <ele>-3.97</ele>
  <time>2026-09-02T22:12:46Z</time>
  <course>275.0</course>
  <speed>0.0</speed>
  <fix>3d</fix>
</trkpt>
<trkpt lat="33.8103131" lon="-118.3938671">
  <ele>-4.4</ele>
  <time>2026-09-02T22:12:46Z</time>
  <course>185.11</course>
  <speed>0.0</speed>
  <fix>3d</fix>
</trkpt>
<trkpt lat="33.8103131" lon="-118.3938671">
  <ele>-4.472</ele>
  <time>2026-09-02T22:12:46Z</time>
  <course>185.12</course>
  <speed>0.0</speed>
  <fix>3d</fix>
</trkpt>
<trkpt lat="33.810313" lon="-118.393867">
  <ele>-4.17</ele>
  <time>2026-09-02T22:12:46Z</time>
  <course>275.0</course>
  <speed>0.0</speed>
  <fix>3d</fix>
</trkpt>
<trkpt lat="33.8103131" lon="-118.3938671">
  <ele>-4.474</ele>
  <time>2026-09-02T22:12:46Z</time>
  <course>185.12</course>
  <speed>0.0</speed>
  <fix>3d</fix>
</trkpt>
<trkpt lat="33.8103131" lon="-118.3938671">
  <ele>-4.572</ele>
  <time>2026-09-02T22:12:46Z</time>
  <course>185.12</course>
  <speed>0.0</speed>
  <fix>3d</fix>
</trkpt>
<trkpt lat="33.810313" lon="-118.393867">
  <ele>-4.17</ele>
  <time>2026-09-02T22:12:46Z</time>
  <course>275.0</course>
  <speed>0.0</speed>
  <fix>3d</fix>
</trkpt>
<trkpt lat="33.8103131" lon="-118.3938671">
  <ele>-4.574</ele>
  <time>2026-09-02T22:12:46Z</time>
  <course>185.12</course>
  <speed>0.0</speed>
  <fix>3d</fix>
</trkpt>
<trkpt lat="33.8103131" lon="-118.3938671">
  <ele>-4.671</ele>
  <time>2026-09-02T22:12:46Z</time>
  <course>185.13</course>
  <speed>0.0</speed>
  <fix>3d</fix>
</trkpt>
<trkpt lat="33.810313" lon="-118.393867">
  <ele>-4.36</ele>
  <time>2026-09-02T22:12:46Z</time>
  <course>275.0</course>
  <speed>0.0</speed>
  <fix>3d</fix>
</trkpt>
<trkpt lat="33.8103131" lon="-118.3938671">
  <ele>-4.673</ele>
  <time>2026-09-02T22:12:46Z</time>
  <course>185.13</course>
  <speed>0.0</speed>
  <fix>3d</fix>
</trkpt>
<trkpt lat="33.8103131" lon="-118.3938671">
  <ele>-4.769</ele>
  <time>2026-09-02T22:12:46Z</time>
  <course>185.13</course>
  <speed>0.01</speed>
  <fix>3d</fix>
</trkpt>
<trkpt lat="33.810313" lon="-118.393867">
  <ele>-4.36</ele>
  <time>2026-09-02T22:12:46Z</time>
  <course>275.0</course>
  <speed>0.0</speed>
  <fix>3d</fix>
</trkpt>
<trkpt lat="33.8103131" lon="-118.3938671">
  <ele>-4.795</ele>
  <time>2026-09-02T22:12:46Z</time>
  <course>185.14</course>
  <speed>0.01</speed>
  <fix>3d</fix>
</trkpt>
<trkpt lat="33.8103131" lon="-118.3938671">
  <ele>-4.867</ele>
  <time>2026-09-02T22:12:46Z</time>
  <course>185.14</course>
  <speed>0.01</speed>
  <fix>3d</fix>
</trkpt>
<trkpt lat="33.810313" lon="-118.393867">
  <ele>-4.55</ele>
  <time>2026-09-02T22:12:46Z</time>
  <course>275.0</course>
  <speed>0.0</speed>
  <fix>3d</fix>
</trkpt>
<trkpt lat="33.8103131" lon="-118.3938671">
  <ele>-4.894</ele>
  <time>2026-09-02T22:12:46Z</time>
  <course>185.14</course>
  <speed>0.01</speed>
  <fix>3d</fix>
</trkpt>
<trkpt lat="33.8103131" lon="-118.3938671">
  <ele>-4.966</ele>
  <time>2026-09-02T22:12:46Z</time>
  <course>185.15</course>
  <speed>0.01</speed>
  <fix>3d</fix>
</trkpt>
<trkpt lat="33.810313" lon="-118.393867">
  <ele>-4.55</ele>
  <time>2026-09-02T22:12:46Z</time>
  <course>275.0</course>
  <speed>0.0</speed>
  <fix>3d</fix>
</trkpt>
<trkpt lat="33.8103131" lon="-118.3938671">
  <ele>-4.968</ele>
  <time>2026-09-02T22:12:46Z</time>
  <course>185.15</course>
  <speed>0.01</speed>
  <fix>3d</fix>
</trkpt>
<trkpt lat="33.8103131" lon="-118.3938671">
  <ele>-5.064</ele>
  <time>2026-09-02T22:12:46Z</time>
  <course>185.15</course>
  <speed>0.01414213562373095</speed>
  <fix>3d</fix>
</trkpt>
<trkpt lat="33.810313" lon="-118.393867">
  <ele>-4.74</ele>
  <time>2026-09-02T22:12:46Z</time>
  <course>275.0</course>
  <speed>0.0</speed>
  <fix>3d</fix>
</trkpt>
<trkpt lat="33.8103131" lon="-118.3938671">
  <ele>-5.091</ele>
  <time>2026-09-02T22:12:46Z</time>
  <course>185.16</course>
  <speed>0.01414213562373095</speed>
  <fix>3d</fix>
</trkpt>
<trkpt lat="33.8103131" lon="-118.3938671">
  <ele>-5.162</ele>
  <time>2026-09-02T22:12:46Z</time>
  <course>185.16</course>
  <speed>0.01414213562373095</speed>
  <fix>3d</fix>
</trkpt>
<trkpt lat="33.810313" lon="-118.393867">
  <ele>-4.74</ele>
  <time>2026-09-02T22:12:46Z</time>
  <course>275.0</course>
  <speed>0.0</speed>
  <fix>3d</fix>
</trkpt>
<trkpt lat="33.8103131" lon="-118.3938671">
  <ele>-5.19</ele>
  <time>2026-09-02T22:12:46Z</time>
  <course>185.16</course>
  <speed>0.01414213562373095</speed>
  <fix>3d</fix>
</trkpt>
<trkpt lat="33.8103131" lon="-118.3938671">
  <ele>-5.258</ele>
  <time>2026-09-02T22:12:46Z</time>
  <course>185.17</course>
  <speed>0.01414213562373095</speed>
  <fix>3d</fix>
</trkpt>
<trkpt lat="33.810313" lon="-118.393867">
  <ele>-4.93</ele>
  <time>2026-09-02T22:12:46Z</time>
  <course>275.0</course>
  <speed>0.0</speed>
  <fix>3d</fix>
</trkpt>
<trkpt lat="33.8103131" lon="-118.3938671">
  <ele>-5.282</ele>
  <time>2026-09-02T22:12:46Z</time>
  <course>185.17</course>
  <speed>0.01414213562373095</speed>
  <fix>3d</fix>
</trkpt>
<trkpt lat="33.8103131" lon="-118.3938671">
  <ele>-5.355</ele>
  <time>2026-09-02T22:12:46Z</time>
  <course>185.17</course>
  <speed>0.01414213562373095</speed>
  <fix>3d</fix>
</trkpt>
<trkpt lat="33.810313" lon="-118.393867">
  <ele>-4.93</ele>
  <time>2026-09-02T22:12:46Z</time>
  <course>275.0</course>
  <speed>0.0</speed>
  <fix>3d</fix>
</trkpt>
<trkpt lat="33.8103131" lon="-118.3938671">
  <ele>-5.382</ele>
  <time>2026-09-02T22:12:46Z</time>
  <course>185.17</course>
  <speed>0.01414213562373095</speed>
  <fix>3d</fix>
</trkpt>
<trkpt lat="33.8103131" lon="-118.3938671">
  <ele>-5.452</ele>
  <time>2026-09-02T22:12:46Z</time>
  <course>185.18</course>
  <speed>0.01414213562373095</speed>
  <fix>3d</fix>
</trkpt>
<trkpt lat="33.810313" lon="-118.393867">
  <ele>-5.12</ele>
  <time>2026-09-02T22:12:46Z</time>
  <course>275.0</course>
  <speed>0.0</speed>
  <fix>3d</fix>
</trkpt>
<trkpt lat="33.8103131" lon="-118.3938671">
  <ele>-5.455</ele>
  <time>2026-09-02T22:12:46Z</time>
  <course>185.18</course>
  <speed>0.01414213562373095</speed>
  <fix>3d</fix>
</trkpt>
<trkpt lat="33.8103131" lon="-118.3938671">
  <ele>-5.55</ele>
  <time>2026-09-02T22:12:46Z</time>
  <course>185.19</course>
  <speed>0.01414213562373095</speed>
  <fix>3d</fix>
</trkpt>
<trkpt lat="33.810313" lon="-118.393867">
  <ele>-5.12</ele>
  <time>2026-09-02T22:12:46Z</time>
  <course>275.0</course>
  <speed>0.0</speed>
  <fix>3d</fix>
</trkpt>
<trkpt lat="33.8103131" lon="-118.3938671">
  <ele>-5.576</ele>
  <time>2026-09-02T22:12:46Z</time>
  <course>185.19</course>
  <speed>0.01414213562373095</speed>
  <fix>3d</fix>
</trkpt>
<trkpt lat="33.8103131" lon="-118.3938671">
  <ele>-5.646</ele>
  <time>2026-09-02T22:12:46Z</time>
  <course>185.19</course>
  <speed>0.01414213562373095</speed>
  <fix>3d</fix>
</trkpt>
<trkpt lat="33.810313" lon="-118.393867">
  <ele>-5.31</ele>
  <time>2026-09-02T22:12:46Z</time>
  <course>275.0</course>
  <speed>0.0</speed>
  <fix>3d</fix>
</trkpt>
<trkpt lat="33.8103131" lon="-118.3938671">
  <ele>-5.649</ele>
  <time>2026-09-02T22:12:46Z</time>
  <course>185.19</course>
  <speed>0.01414213562373095</speed>
  <fix>3d</fix>
</trkpt>
<trkpt lat="33.8103131" lon="-118.3938671">
  <ele>-5.744</ele>
  <time>2026-09-02T22:12:46Z</time>
  <course>185.2</course>
  <speed>0.01414213562373095</speed>
  <fix>3d</fix>
</trkpt>
<trkpt lat="33.810313" lon="-118.393867">
  <ele>-5.31</ele>
  <time>2026-09-02T22:12:46Z</time>
  <course>275.0</course>
  <speed>0.0</speed>
  <fix>3d</fix>
</trkpt>
<trkpt lat="33.8103131" lon="-118.3938671">
  <ele>-5.771</ele>
  <time>2026-09-02T22:12:46Z</time>
  <course>185.2</course>
  <speed>0.01414213562373095</speed>
  <fix>3d</fix>
</trkpt>
<trkpt lat="33.8103131" lon="-118.3938671">
  <ele>-5.842</ele>
  <time>2026-09-02T22:12:46Z</time>
  <course>185.21</course>
  <speed>0.01414213562373095</speed>
  <fix>3d</fix>
</trkpt>
<trkpt lat="33.810313" lon="-118.393867">
  <ele>-5.5</ele>
  <time>2026-09-02T22:12:46Z</time>
  <course>275.0</course>
  <speed>0.0</speed>
  <fix>3d</fix>
</trkpt>
<trkpt lat="33.8103131" lon="-118.3938671">
  <ele>-5.869</ele>
  <time>2026-09-02T22:12:46Z</time>
  <course>185.21</course>
  <speed>0.01414213562373095</speed>
  <fix>3d</fix>
</trkpt>
<trkpt lat="33.8103131" lon="-118.3938671">
  <ele>-5.94</ele>
  <time>2026-09-02T22:12:46Z</time>
  <course>185.21</course>
  <speed>0.01414213562373095</speed>
  <fix>3d</fix>
</trkpt>
<trkpt lat="33.810313" lon="-118.393867">
  <ele>-5.5</ele>
  <time>2026-09-02T22:12:46Z</time>
  <course>275.0</course>
  <speed>0.0</speed>
  <fix>3d</fix>
</trkpt>
<trkpt lat="33.8103131" lon="-118.3938671">
  <ele>-5.945</ele>
  <time>2026-09-02T22:12:46Z</time>
  <course>185.21</course>
  <speed>0.01414213562373095</speed>
  <fix>3d</fix>
</trkpt>
<trkpt lat="33.8103131" lon="-118.3938671">
  <ele>-6.04</ele>
  <time>2026-09-02T22:12:46Z</time>
  <course>185.22</course>
  <speed>0.01414213562373095</speed>
  <fix>3d</fix>
</trkpt>
<trkpt lat="33.810313" lon="-118.393867">
  <ele>-5.69</ele>
  <time>2026-09-02T22:12:46Z</time>
  <course>275.0</course>
  <speed>0.0</speed>
  <fix>3d</fix>
</trkpt>
<trkpt lat="33.8103131" lon="-118.3938671">
  <ele>-6.042</ele>
  <time>2026-09-02T22:12:46Z</time>
  <course>185.22</course>
  <speed>0.01414213562373095</speed>
  <fix>3d</fix>
</trkpt>
<trkpt lat="33.8103131" lon="-118.3938671">
  <ele>-6.139</ele>
  <time>2026-09-02T22:12:46Z</time>
  <course>185.22</course>
  <speed>0.01414213562373095</speed>
  <fix>3d</fix>
</trkpt>
<trkpt lat="33.810313" lon="-118.393867">
  <ele>-5.69</ele>
  <time>2026-09-02T22:12:46Z</time>
  <course>275.0</course>
  <speed>0.0</speed>
  <fix>3d</fix>
</trkpt>
<trkpt lat="33.8103131" lon="-118.3938671">
  <ele>-6.163</ele>
  <time>2026-09-02T22:12:46Z</time>
  <course>185.23</course>
  <speed>0.01414213562373095</speed>
  <fix>3d</fix>
</trkpt>
<trkpt lat="33.8103131" lon="-118.3938671">
  <ele>-6.237</ele>
  <time>2026-09-02T22:12:47Z</time>
  <course>185.23</course>
  <speed>0.01414213562373095</speed>
  <fix>3d</fix>
</trkpt>
<trkpt lat="33.810313" lon="-118.393867">
  <ele>-5.88</ele>
  <time>2026-09-02T22:12:47Z</time>
  <course>275.0</course>
  <speed>0.0</speed>
  <fix>3d</fix>
</trkpt>
<trkpt lat="33.8103131" lon="-118.3938671">
  <ele>-6.264</ele>
  <time>2026-09-02T22:12:47Z</time>
  <course>185.23</course>
  <speed>0.01414213562373095</speed>
  <fix>3d</fix>
</trkpt>
<trkpt lat="33.8103131" lon="-118.3938671">
  <ele>-6.336</ele>
  <time>2026-09-02T22:12:47Z</time>
  <course>185.24</course>
  <speed>0.01414213562373095</speed>
  <fix>3d</fix>
</trkpt>
<trkpt lat="33.810313" lon="-118.393867">
  <ele>-5.88</ele>
  <time>2026-09-02T22:12:47Z</time>
  <course>275.0</course>
  <speed>0.0</speed>
  <fix>3d</fix>
</trkpt>
<trkpt lat="33.8103131" lon="-118.3938671">
  <ele>-6.361</ele>
  <time>2026-09-02T22:12:47Z</time>
  <course>185.24</course>
  <speed>0.01414213562373095</speed>
  <fix>3d</fix>
</trkpt>
<trkpt lat="33.8103131" lon="-118.3938671">
  <ele>-6.434</ele>
  <time>2026-09-02T22:12:47Z</time>
  <course>185.24</course>
  <speed>0.022360679774997897</speed>
  <fix>3d</fix>
</trkpt>
<trkpt lat="33.810313" lon="-118.393867">
  <ele>-6.06</ele>
  <time>2026-09-02T22:12:47Z</time>
  <course>275.0</course>
  <speed>0.0</speed>
  <fix>3d</fix>
</trkpt>
<trkpt lat="33.8103131" lon="-118.3938671">
  <ele>-6.436</ele>
  <time>2026-09-02T22:12:47Z</time>
  <course>185.24</course>
  <speed>0.022360679774997897</speed>
  <fix>3d</fix>
</trkpt>
<trkpt lat="33.8103131" lon="-118.3938671">
  <ele>-6.53</ele>
  <time>2026-09-02T22:12:47Z</time>
  <course>185.25</course>
  <speed>0.022360679774997897</speed>
  <fix>3d</fix>
</trkpt>
<trkpt lat="33.810313" lon="-118.393867">
  <ele>-6.06</ele>
  <time>2026-09-02T22:12:47Z</time>
  <course>275.0</course>
  <speed>0.0</speed>
  <fix>3d</fix>
</trkpt>
<trkpt lat="33.8103131" lon="-118.3938671">
  <ele>-6.556</ele>
  <time>2026-09-02T22:12:47Z</time>
  <course>185.25</course>
  <speed>0.022360679774997897</speed>
  <fix>3d</fix>
</trkpt>
<trkpt lat="33.8103131" lon="-118.3938671">
  <ele>-6.627</ele>
  <time>2026-09-02T22:12:47Z</time>
  <course>185.26</course>
  <speed>0.022360679774997897</speed>
  <fix>3d</fix>
</trkpt>
<trkpt lat="33.810313" lon="-118.393867">
  <ele>-6.25</ele>
  <time>2026-09-02T22:12:47Z</time>
  <course>275.0</course>
  <speed>0.0</speed>
  <fix>3d</fix>
</trkpt>
<trkpt lat="33.8103131" lon="-118.3938671">
  <ele>-6.663</ele>
  <time>2026-09-02T22:12:47Z</time>
  <course>185.26</course>
  <speed>0.022360679774997897</speed>
  <fix>3d</fix>
</trkpt>
<trkpt lat="33.8103131" lon="-118.3938671">
  <ele>-6.725</ele>
  <time>2026-09-02T22:12:47Z</time>
  <course>185.26</course>
  <speed>0.022360679774997897</speed>
  <fix>3d</fix>
</trkpt>
<trkpt lat="33.810313" lon="-118.393867">
  <ele>-6.25</ele>
  <time>2026-09-02T22:12:47Z</time>
  <course>275.0</course>
  <speed>0.0</speed>
  <fix>3d</fix>
</trkpt>
<trkpt lat="33.8103131" lon="-118.3938671">
  <ele>-6.727</ele>
  <time>2026-09-02T22:12:47Z</time>
  <course>185.26</course>
  <speed>0.022360679774997897</speed>
  <fix>3d</fix>
</trkpt>
<trkpt lat="33.8103131" lon="-118.3938671">
  <ele>-6.822</ele>
  <time>2026-09-02T22:12:47Z</time>
  <course>185.27</course>
  <speed>0.022360679774997897</speed>
  <fix>3d</fix>
</trkpt>
<trkpt lat="33.810313" lon="-118.393867">
  <ele>-6.44</ele>
  <time>2026-09-02T22:12:47Z</time>
  <course>275.0</course>
  <speed>0.0</speed>
  <fix>3d</fix>
</trkpt>
<trkpt lat="33.8103131" lon="-118.3938671">
  <ele>-6.851</ele>
  <time>2026-09-02T22:12:47Z</time>
  <course>185.27</course>
  <speed>0.022360679774997897</speed>
  <fix>3d</fix>
</trkpt>
<trkpt lat="33.8103131" lon="-118.3938671">
  <ele>-6.918</ele>
  <time>2026-09-02T22:12:47Z</time>
  <course>185.28</course>
  <speed>0.022360679774997897</speed>
  <fix>3d</fix>
</trkpt>
<trkpt lat="33.810313" lon="-118.393867">
  <ele>-6.44</ele>
  <time>2026-09-02T22:12:47Z</time>
  <course>275.0</course>
  <speed>0.0</speed>
  <fix>3d</fix>
</trkpt>
<trkpt lat="33.8103131" lon="-118.3938671">
  <ele>-6.921</ele>
  <time>2026-09-02T22:12:47Z</time>
  <course>185.28</course>
  <speed>0.022360679774997897</speed>
  <fix>3d</fix>
</trkpt>
<trkpt lat="33.8103131" lon="-118.3938671">
  <ele>-7.014</ele>
  <time>2026-09-02T22:12:47Z</time>
  <course>185.28</course>
  <speed>0.022360679774997897</speed>
  <fix>3d</fix>
</trkpt>
<trkpt lat="33.810313" lon="-118.393867">
  <ele>-6.63</ele>
  <time>2026-09-02T22:12:47Z</time>
  <course>275.0</course>
  <speed>0.0</speed>
  <fix>3d</fix>
</trkpt>
<trkpt lat="33.8103131" lon="-118.3938671">
  <ele>-7.041</ele>
  <time>2026-09-02T22:12:47Z</time>
  <course>185.29</course>
  <speed>0.022360679774997897</speed>
  <fix>3d</fix>
</trkpt>
<trkpt lat="33.8103131" lon="-118.3938671">
  <ele>-7.111</ele>
  <time>2026-09-02T22:12:47Z</time>
  <course>185.29</course>
  <speed>0.022360679774997897</speed>
  <fix>3d</fix>
</trkpt>
<trkpt lat="33.810313" lon="-118.393867">
  <ele>-6.63</ele>
  <time>2026-09-02T22:12:47Z</time>
  <course>275.0</course>
  <speed>0.0</speed>
  <fix>3d</fix>
</trkpt>
<trkpt lat="33.8103131" lon="-118.3938671">
  <ele>-7.114</ele>
  <time>2026-09-02T22:12:47Z</time>
  <course>185.29</course>
  <speed>0.022360679774997897</speed>
  <fix>3d</fix>
</trkpt>
<trkpt lat="33.8103131" lon="-118.3938671">
  <ele>-7.208</ele>
  <time>2026-09-02T22:12:47Z</time>
  <course>185.3</course>
  <speed>0.022360679774997897</speed>
  <fix>3d</fix>
</trkpt>
<trkpt lat="33.810313" lon="-118.393867">
  <ele>-6.81</ele>
  <time>2026-09-02T22:12:47Z</time>
  <course>275.0</course>
  <speed>0.0</speed>
  <fix>3d</fix>
</trkpt>
<trkpt lat="33.8103131" lon="-118.3938671">
  <ele>-7.235</ele>
  <time>2026-09-02T22:12:47Z</time>
  <course>185.3</course>
  <speed>0.022360679774997897</speed>
  <fix>3d</fix>
</trkpt>
<trkpt lat="33.8103131" lon="-118.3938671">
  <ele>-7.305</ele>
  <time>2026-09-02T22:12:47Z</time>
  <course>185.31</course>
  <speed>0.022360679774997897</speed>
  <fix>3d</fix>
</trkpt>
<trkpt lat="33.810313" lon="-118.393867">
  <ele>-6.81</ele>
  <time>2026-09-02T22:12:47Z</time>
  <course>275.0</course>
  <speed>0.0</speed>
  <fix>3d</fix>
</trkpt>
<trkpt lat="33.8103131" lon="-118.3938671">
  <ele>-7.332</ele>
  <time>2026-09-02T22:12:47Z</time>
  <course>185.31</course>
  <speed>0.0282842712474619</speed>
  <fix>3d</fix>
</trkpt>
<trkpt lat="33.8103131" lon="-118.3938671">
  <ele>-7.402</ele>
  <time>2026-09-02T22:12:47Z</time>
  <course>185.31</course>
  <speed>0.0282842712474619</speed>
  <fix>3d</fix>
</trkpt>
<trkpt lat="33.810313" lon="-118.393867">
  <ele>-7.0</ele>
  <time>2026-09-02T22:12:47Z</time>
  <course>275.0</course>
  <speed>0.0</speed>
  <fix>3d</fix>
</trkpt>
<trkpt lat="33.8103131" lon="-118.3938671">
  <ele>-7.404</ele>
  <time>2026-09-02T22:12:47Z</time>
  <course>185.31</course>
  <speed>0.0282842712474619</speed>
  <fix>3d</fix>
</trkpt>
<trkpt lat="33.8103131" lon="-118.3938671">
  <ele>-7.498</ele>
  <time>2026-09-02T22:12:47Z</time>
  <course>185.32</course>
  <speed>0.0282842712474619</speed>
  <fix>3d</fix>
</trkpt>
<trkpt lat="33.810313" lon="-118.393867">
  <ele>-7.0</ele>
  <time>2026-09-02T22:12:47Z</time>
  <course>275.0</course>
  <speed>0.0</speed>
  <fix>3d</fix>
</trkpt>
<trkpt lat="33.8103131" lon="-118.3938671">
  <ele>-7.527</ele>
  <time>2026-09-02T22:12:47Z</time>
  <course>185.32</course>
  <speed>0.0282842712474619</speed>
  <fix>3d</fix>
</trkpt>
<trkpt lat="33.8103131" lon="-118.3938671">
  <ele>-7.595</ele>
  <time>2026-09-02T22:12:47Z</time>
  <course>185.33</course>
  <speed>0.0282842712474619</speed>
  <fix>3d</fix>
</trkpt>
<trkpt lat="33.810313" lon="-118.3938671">
  <ele>-7.19</ele>
  <time>2026-09-02T22:12:47Z</time>
  <course>275.0</course>
  <speed>0.0</speed>
  <fix>3d</fix>
</trkpt>
<trkpt lat="33.8103131" lon="-118.3938671">
  <ele>-7.622</ele>
  <time>2026-09-02T22:12:47Z</time>
  <course>185.33</course>
  <speed>0.0282842712474619</speed>
  <fix>3d</fix>
</trkpt>
<trkpt lat="33.8103131" lon="-118.3938671">
  <ele>-7.693</ele>
  <time>2026-09-02T22:12:47Z</time>
  <course>185.33</course>
  <speed>0.0282842712474619</speed>
  <fix>3d</fix>
</trkpt>
<trkpt lat="33.810313" lon="-118.3938671">
  <ele>-7.19</ele>
  <time>2026-09-02T22:12:47Z</time>
  <course>275.0</course>
  <speed>0.0</speed>
  <fix>3d</fix>
</trkpt>
<trkpt lat="33.8103131" lon="-118.3938671">
  <ele>-7.723</ele>
  <time>2026-09-02T22:12:47Z</time>
  <course>185.34</course>
  <speed>0.0282842712474619</speed>
  <fix>3d</fix>
</trkpt>
<trkpt lat="33.8103131" lon="-118.3938671">
  <ele>-7.792</ele>
  <time>2026-09-02T22:12:47Z</time>
  <course>185.34</course>
  <speed>0.0282842712474619</speed>
  <fix>3d</fix>
</trkpt>
<trkpt lat="33.810313" lon="-118.3938671">
  <ele>-7.38</ele>
  <time>2026-09-02T22:12:47Z</time>
  <course>275.0</course>
  <speed>0.0</speed>
  <fix>3d</fix>
</trkpt>
<trkpt lat="33.8103131" lon="-118.3938671">
  <ele>-7.794</ele>
  <time>2026-09-02T22:12:47Z</time>
  <course>185.34</course>
  <speed>0.0282842712474619</speed>
  <fix>3d</fix>
</trkpt>
<trkpt lat="33.8103131" lon="-118.3938672">
  <ele>-7.89</ele>
  <time>2026-09-02T22:12:47Z</time>
  <course>185.35</course>
  <speed>0.0282842712474619</speed>
  <fix>3d</fix>
</trkpt>
<trkpt lat="33.810313" lon="-118.3938671">
  <ele>-7.38</ele>
  <time>2026-09-02T22:12:47Z</time>
  <course>275.0</course>
  <speed>0.0</speed>
  <fix>3d</fix>
</trkpt>
<trkpt lat="33.8103131" lon="-118.3938672">
  <ele>-7.893</ele>
  <time>2026-09-02T22:12:47Z</time>
  <course>185.35</course>
  <speed>0.0282842712474619</speed>
  <fix>3d</fix>
</trkpt>
<trkpt lat="33.8103131" lon="-118.3938672">
  <ele>-7.989</ele>
  <time>2026-09-02T22:12:47Z</time>
  <course>185.35</course>
  <speed>0.0282842712474619</speed>
  <fix>3d</fix>
</trkpt>
<trkpt lat="33.810313" lon="-118.3938671">
  <ele>-7.57</ele>
  <time>2026-09-02T22:12:47Z</time>
  <course>275.0</course>
  <speed>0.0</speed>
  <fix>3d</fix>
</trkpt>
<trkpt lat="33.8103131" lon="-118.3938672">
  <ele>-8.018</ele>
  <time>2026-09-02T22:12:47Z</time>
  <course>185.36</course>
  <speed>0.0282842712474619</speed>
  <fix>3d</fix>
</trkpt>
<trkpt lat="33.8103131" lon="-118.3938672">
  <ele>-8.087</ele>
  <time>2026-09-02T22:12:47Z</time>
  <course>185.36</course>
  <speed>0.0282842712474619</speed>
  <fix>3d</fix>
</trkpt>
<trkpt lat="33.810313" lon="-118.3938671">
  <ele>-7.57</ele>
  <time>2026-09-02T22:12:47Z</time>
  <course>275.0</course>
  <speed>0.0</speed>
  <fix>3d</fix>
</trkpt>
<trkpt lat="33.8103131" lon="-118.3938672">
  <ele>-8.115</ele>
  <time>2026-09-02T22:12:47Z</time>
  <course>185.36</course>
  <speed>0.0282842712474619</speed>
  <fix>3d</fix>
</trkpt>
<trkpt lat="33.8103132" lon="-118.3938672">
  <ele>-8.186</ele>
  <time>2026-09-02T22:12:47Z</time>
  <course>185.37</course>
  <speed>0.0282842712474619</speed>
  <fix>3d</fix>
</trkpt>
<trkpt lat="33.810313" lon="-118.3938671">
  <ele>-7.76</ele>
  <time>2026-09-02T22:12:47Z</time>
  <course>275.0</course>
  <speed>0.0</speed>
  <fix>3d</fix>
</trkpt>
<trkpt lat="33.8103132" lon="-118.3938672">
  <ele>-8.215</ele>
  <time>2026-09-02T22:12:47Z</time>
  <course>185.37</course>
  <speed>0.0282842712474619</speed>
  <fix>3d</fix>
</trkpt>
<trkpt lat="33.8103132" lon="-118.3938672">
  <ele>-8.284</ele>
  <time>2026-09-02T22:12:47Z</time>
  <course>185.37</course>
  <speed>0.0282842712474619</speed>
  <fix>3d</fix>
</trkpt>
<trkpt lat="33.810313" lon="-118.3938671">
  <ele>-7.76</ele>
  <time>2026-09-02T22:12:47Z</time>
  <course>275.0</course>
  <speed>0.0</speed>
  <fix>3d</fix>
</trkpt>
<trkpt lat="33.8103132" lon="-118.3938672">
  <ele>-8.286</ele>
  <time>2026-09-02T22:12:47Z</time>
  <course>185.37</course>
  <speed>0.0282842712474619</speed>
  <fix>3d</fix>
</trkpt>
<trkpt lat="33.8103132" lon="-118.3938672">
  <ele>-8.382</ele>
  <time>2026-09-02T22:12:47Z</time>
  <course>185.38</course>
  <speed>0.0282842712474619</speed>
  <fix>3d</fix>
</trkpt>
<trkpt lat="33.810313" lon="-118.3938671">
  <ele>-7.95</ele>
  <time>2026-09-02T22:12:47Z</time>
  <course>275.0</course>
  <speed>0.0</speed>
  <fix>3d</fix>
</trkpt>
<trkpt lat="33.8103132" lon="-118.3938672">
  <ele>-8.385</ele>
  <time>2026-09-02T22:12:47Z</time>
  <course>185.38</course>
  <speed>0.0282842712474619</speed>
  <fix>3d</fix>
</trkpt>
<trkpt lat="33.8103132" lon="-118.3938672">
  <ele>-8.48</ele>
  <time>2026-09-02T22:12:47Z</time>
  <course>185.39</course>
  <speed>0.0282842712474619</speed>
  <fix>3d</fix>
</trkpt>
<trkpt lat="33.810313" lon="-118.3938671">
  <ele>-7.95</ele>
  <time>2026-09-02T22:12:47Z</time>
  <course>275.0</course>
  <speed>0.0</speed>
  <fix>3d</fix>
</trkpt>
<trkpt lat="33.8103132" lon="-118.3938672">
  <ele>-8.51</ele>
  <time>2026-09-02T22:12:47Z</time>
  <course>185.39</course>
  <speed>0.0282842712474619</speed>
  <fix>3d</fix>
</trkpt>
<trkpt lat="33.8103132" lon="-118.3938672">
  <ele>-8.578</ele>
  <time>2026-09-02T22:12:47Z</time>
  <course>185.4</course>
  <speed>0.0282842712474619</speed>
  <fix>3d</fix>
</trkpt>
<trkpt lat="33.810313" lon="-118.3938671">
  <ele>-8.14</ele>
  <time>2026-09-02T22:12:47Z</time>
  <course>275.0</course>
  <speed>0.0</speed>
  <fix>3d</fix>
</trkpt>
<trkpt lat="33.8103132" lon="-118.3938672">
  <ele>-8.608</ele>
  <time>2026-09-02T22:12:47Z</time>
  <course>185.4</course>
  <speed>0.0282842712474619</speed>
  <fix>3d</fix>
</trkpt>
<trkpt lat="33.8103132" lon="-118.3938672">
  <ele>-8.676</ele>
  <time>2026-09-02T22:12:47Z</time>
  <course>185.4</course>
  <speed>0.0282842712474619</speed>
  <fix>3d</fix>
</trkpt>
<trkpt lat="33.810313" lon="-118.3938671">
  <ele>-8.14</ele>
  <time>2026-09-02T22:12:47Z</time>
  <course>275.0</course>
  <speed>0.0</speed>
  <fix>3d</fix>
</trkpt>
<trkpt lat="33.8103132" lon="-118.3938672">
  <ele>-8.71</ele>
  <time>2026-09-02T22:12:47Z</time>
  <course>185.41</course>
  <speed>0.03605551275463989</speed>
  <fix>3d</fix>
</trkpt>
<trkpt lat="33.8103132" lon="-118.3938672">
  <ele>-8.772</ele>
  <time>2026-09-02T22:12:47Z</time>
  <course>185.41</course>
  <speed>0.03605551275463989</speed>
  <fix>3d</fix>
</trkpt>
<trkpt lat="33.810313" lon="-118.3938671">
  <ele>-8.33</ele>
  <time>2026-09-02T22:12:47Z</time>
  <course>275.0</course>
  <speed>0.0</speed>
  <fix>3d</fix>
</trkpt>
<trkpt lat="33.8103132" lon="-118.3938672">
  <ele>-8.801</ele>
  <time>2026-09-02T22:12:47Z</time>
  <course>185.41</course>
  <speed>0.03605551275463989</speed>
  <fix>3d</fix>
</trkpt>
<trkpt lat="33.8103132" lon="-118.3938673">
  <ele>-8.868</ele>
  <time>2026-09-02T22:12:47Z</time>
  <course>185.42</course>
  <speed>0.03605551275463989</speed>
  <fix>3d</fix>
</trkpt>
<trkpt lat="33.810313" lon="-118.3938671">
  <ele>-8.33</ele>
  <time>2026-09-02T22:12:47Z</time>
  <course>275.0</course>
  <speed>0.0</speed>
  <fix>3d</fix>
</trkpt>
<trkpt lat="33.8103132" lon="-118.3938673">
  <ele>-8.87</ele>
  <time>2026-09-02T22:12:47Z</time>
  <course>185.42</course>
  <speed>0.03605551275463989</speed>
  <fix>3d</fix>
</trkpt>
<trkpt lat="33.8103132" lon="-118.3938673">
  <ele>-8.965</ele>
  <time>2026-09-02T22:12:47Z</time>
  <course>185.42</course>
  <speed>0.03605551275463989</speed>
  <fix>3d</fix>
</trkpt>
<trkpt lat="33.810313" lon="-118.3938671">
  <ele>-8.52</ele>
  <time>2026-09-02T22:12:47Z</time>
  <course>275.0</course>
  <speed>0.0</speed>
  <fix>3d</fix>
</trkpt>
<trkpt lat="33.8103132" lon="-118.3938673">
  <ele>-8.996</ele>
  <time>2026-09-02T22:12:47Z</time>
  <course>185.43</course>
  <speed>0.03605551275463989</speed>
  <fix>3d</fix>
</trkpt>
<trkpt lat="33.8103132" lon="-118.3938673">
  <ele>-9.061</ele>
  <time>2026-09-02T22:12:47Z</time>
  <course>185.43</course>
  <speed>0.03605551275463989</speed>
  <fix>3d</fix>
</trkpt>
<trkpt lat="33.810313" lon="-118.3938671">
  <ele>-8.52</ele>
  <time>2026-09-02T22:12:47Z</time>
  <course>275.0</course>
  <speed>0.0</speed>
  <fix>3d</fix>
</trkpt>
<trkpt lat="33.8103132" lon="-118.3938673">
  <ele>-9.09</ele>
  <time>2026-09-02T22:12:47Z</time>
  <course>185.43</course>
  <speed>0.03605551275463989</speed>
  <fix>3d</fix>
</trkpt>
<trkpt lat="33.8103132" lon="-118.3938673">
  <ele>-9.158</ele>
  <time>2026-09-02T22:12:47Z</time>
  <course>185.44</course>
  <speed>0.03605551275463989</speed>
  <fix>3d</fix>
</trkpt>
<trkpt lat="33.810313" lon="-118.3938671">
  <ele>-8.71</ele>
  <time>2026-09-02T22:12:47Z</time>
  <course>275.0</course>
  <speed>0.0</speed>
  <fix>3d</fix>
</trkpt>
<trkpt lat="33.8103132" lon="-118.3938673">
  <ele>-9.187</ele>
  <time>2026-09-02T22:12:47Z</time>
  <course>185.44</course>
  <speed>0.03605551275463989</speed>
  <fix>3d</fix>
</trkpt>
<trkpt lat="33.8103132" lon="-118.3938673">
  <ele>-9.255</ele>
  <time>2026-09-02T22:12:47Z</time>
  <course>185.45</course>
  <speed>0.03605551275463989</speed>
  <fix>3d</fix>
</trkpt>
<trkpt lat="33.810313" lon="-118.3938671">
  <ele>-8.71</ele>
  <time>2026-09-02T22:12:47Z</time>
  <course>275.0</course>
  <speed>0.0</speed>
  <fix>3d</fix>
</trkpt>
<trkpt lat="33.8103132" lon="-118.3938673">
  <ele>-9.284</ele>
  <time>2026-09-02T22:12:47Z</time>
  <course>185.45</course>
  <speed>0.03605551275463989</speed>
  <fix>3d</fix>
</trkpt>
<trkpt lat="33.8103132" lon="-118.3938673">
  <ele>-9.353</ele>
  <time>2026-09-02T22:12:47Z</time>
  <course>185.46</course>
  <speed>0.03605551275463989</speed>
  <fix>3d</fix>
</trkpt>
<trkpt lat="33.810313" lon="-118.3938671">
  <ele>-8.91</ele>
  <time>2026-09-02T22:12:47Z</time>
  <course>275.0</course>
  <speed>0.0</speed>
  <fix>3d</fix>
</trkpt>
<trkpt lat="33.8103132" lon="-118.3938673">
  <ele>-9.355</ele>
  <time>2026-09-02T22:12:47Z</time>
  <course>185.46</course>
  <speed>0.03605551275463989</speed>
  <fix>3d</fix>
</trkpt>
<trkpt lat="33.8103132" lon="-118.3938673">
  <ele>-9.451</ele>
  <time>2026-09-02T22:12:47Z</time>
  <course>185.46</course>
  <speed>0.03605551275463989</speed>
  <fix>3d</fix>
</trkpt>
<trkpt lat="33.810313" lon="-118.3938671">
  <ele>-8.91</ele>
  <time>2026-09-02T22:12:47Z</time>
  <course>275.0</course>
  <speed>0.0</speed>
  <fix>3d</fix>
</trkpt>
<trkpt lat="33.8103132" lon="-118.3938673">
  <ele>-9.478</ele>
  <time>2026-09-02T22:12:47Z</time>
  <course>185.47</course>
  <speed>0.03605551275463989</speed>
  <fix>3d</fix>
</trkpt>
<trkpt lat="33.8103132" lon="-118.3938673">
  <ele>-9.55</ele>
  <time>2026-09-02T22:12:47Z</time>
  <course>185.47</course>
  <speed>0.03605551275463989</speed>
  <fix>3d</fix>
</trkpt>
<trkpt lat="33.810313" lon="-118.3938671">
  <ele>-9.1</ele>
  <time>2026-09-02T22:12:47Z</time>
  <course>275.0</course>
  <speed>0.0</speed>
  <fix>3d</fix>
</trkpt>
<trkpt lat="33.8103132" lon="-118.3938673">
  <ele>-9.579</ele>
  <time>2026-09-02T22:12:47Z</time>
  <course>185.47</course>
  <speed>0.03605551275463989</speed>
  <fix>3d</fix>
</trkpt>
<trkpt lat="33.8103132" lon="-118.3938673">
  <ele>-9.648</ele>
  <time>2026-09-02T22:12:47Z</time>
  <course>185.48</course>
  <speed>0.03605551275463989</speed>
  <fix>3d</fix>
</trkpt>
<trkpt lat="33.810313" lon="-118.3938671">
  <ele>-9.1</ele>
  <time>2026-09-02T22:12:47Z</time>
  <course>275.0</course>
  <speed>0.0</speed>
  <fix>3d</fix>
</trkpt>
<trkpt lat="33.8103132" lon="-118.3938673">
  <ele>-9.682</ele>
  <time>2026-09-02T22:12:47Z</time>
  <course>185.48</course>
  <speed>0.03605551275463989</speed>
  <fix>3d</fix>
</trkpt>
<trkpt lat="33.8103132" lon="-118.3938673">
  <ele>-9.746</ele>
  <time>2026-09-02T22:12:47Z</time>
  <course>185.49</course>
  <speed>0.03605551275463989</speed>
  <fix>3d</fix>
</trkpt>
<trkpt lat="33.810313" lon="-118.3938671">
  <ele>-9.29</ele>
  <time>2026-09-02T22:12:47Z</time>
  <course>275.0</course>
  <speed>0.0</speed>
  <fix>3d</fix>
</trkpt>
<trkpt lat="33.8103132" lon="-118.3938673">
  <ele>-9.778</ele>
  <time>2026-09-02T22:12:47Z</time>
  <course>185.49</course>
  <speed>0.03605551275463989</speed>
  <fix>3d</fix>
</trkpt>
<trkpt lat="33.8103132" lon="-118.3938673">
  <ele>-9.845</ele>
  <time>2026-09-02T22:12:47Z</time>
  <course>185.49</course>
  <speed>0.03605551275463989</speed>
  <fix>3d</fix>
</trkpt>
<trkpt lat="33.810313" lon="-118.3938671">
  <ele>-9.29</ele>
  <time>2026-09-02T22:12:47Z</time>
  <course>275.0</course>
  <speed>0.0</speed>
  <fix>3d</fix>
</trkpt>
<trkpt lat="33.8103132" lon="-118.3938673">
  <ele>-9.847</ele>
  <time>2026-09-02T22:12:47Z</time>
  <course>185.49</course>
  <speed>0.03605551275463989</speed>
  <fix>3d</fix>
</trkpt>
<trkpt lat="33.8103132" lon="-118.3938673">
  <ele>-9.943</ele>
  <time>2026-09-02T22:12:47Z</time>
  <course>185.5</course>
  <speed>0.03605551275463989</speed>
  <fix>3d</fix>
</trkpt>
<trkpt lat="33.810313" lon="-118.3938671">
  <ele>-9.48</ele>
  <time>2026-09-02T22:12:47Z</time>
  <course>275.0</course>
  <speed>0.0</speed>
  <fix>3d</fix>
</trkpt>
<trkpt lat="33.8103132" lon="-118.3938673">
  <ele>-9.975</ele>
  <time>2026-09-02T22:12:47Z</time>
  <course>185.5</course>
  <speed>0.03605551275463989</speed>
  <fix>3d</fix>
</trkpt>
<trkpt lat="33.8103132" lon="-118.3938673">
  <ele>-10.04</ele>
  <time>2026-09-02T22:12:47Z</time>
  <course>185.51</course>
  <speed>0.03605551275463989</speed>
  <fix>3d</fix>
</trkpt>
<trkpt lat="33.810313" lon="-118.3938671">
  <ele>-9.48</ele>
  <time>2026-09-02T22:12:47Z</time>
  <course>275.0</course>
  <speed>0.0</speed>
  <fix>3d</fix>
</trkpt>
<trkpt lat="33.8103132" lon="-118.3938673">
  <ele>-10.07</ele>
  <time>2026-09-02T22:12:47Z</time>
  <course>185.51</course>
  <speed>0.03605551275463989</speed>
  <fix>3d</fix>
</trkpt>
<trkpt lat="33.8103132" lon="-118.3938673">
  <ele>-10.137</ele>
  <time>2026-09-02T22:12:47Z</time>
  <course>185.52</course>
  <speed>0.03605551275463989</speed>
  <fix>3d</fix>
</trkpt>
<trkpt lat="33.810313" lon="-118.3938671">
  <ele>-9.68</ele>
  <time>2026-09-02T22:12:47Z</time>
  <course>275.0</course>
  <speed>0.0</speed>
  <fix>3d</fix>
</trkpt>
<trkpt lat="33.8103132" lon="-118.3938673">
  <ele>-10.166</ele>
  <time>2026-09-02T22:12:47Z</time>
  <course>185.52</course>
  <speed>0.03605551275463989</speed>
  <fix>3d</fix>
</trkpt>
<trkpt lat="33.8103132" lon="-118.3938673">
  <ele>-10.232</ele>
  <time>2026-09-02T22:12:47Z</time>
  <course>185.53</course>
  <speed>0.03605551275463989</speed>
  <fix>3d</fix>
</trkpt>
<trkpt lat="33.810313" lon="-118.3938671">
  <ele>-9.68</ele>
  <time>2026-09-02T22:12:47Z</time>
  <course>275.0</course>
  <speed>0.0</speed>
  <fix>3d</fix>
</trkpt>
<trkpt lat="33.8103132" lon="-118.3938673">
  <ele>-10.261</ele>
  <time>2026-09-02T22:12:47Z</time>
  <course>185.53</course>
  <speed>0.03605551275463989</speed>
  <fix>3d</fix>
</trkpt>
<trkpt lat="33.8103132" lon="-118.3938673">
  <ele>-10.328</ele>
  <time>2026-09-02T22:12:47Z</time>
  <course>185.53</course>
  <speed>0.03605551275463989</speed>
  <fix>3d</fix>
</trkpt>
<trkpt lat="33.810313" lon="-118.3938671">
  <ele>-9.87</ele>
  <time>2026-09-02T22:12:47Z</time>
  <course>275.0</course>
  <speed>0.0</speed>
  <fix>3d</fix>
</trkpt>
<trkpt lat="33.8103132" lon="-118.3938673">
  <ele>-10.359</ele>
  <time>2026-09-02T22:12:47Z</time>
  <course>185.54</course>
  <speed>0.03605551275463989</speed>
  <fix>3d</fix>
</trkpt>
<trkpt lat="33.8103132" lon="-118.3938673">
  <ele>-10.424</ele>
  <time>2026-09-02T22:12:47Z</time>
  <course>185.54</course>
  <speed>0.03605551275463989</speed>
  <fix>3d</fix>
</trkpt>
<trkpt lat="33.810313" lon="-118.3938671">
  <ele>-9.87</ele>
  <time>2026-09-02T22:12:47Z</time>
  <course>275.0</course>
  <speed>0.0</speed>
  <fix>3d</fix>
</trkpt>
<trkpt lat="33.8103132" lon="-118.3938673">
  <ele>-10.455</ele>
  <time>2026-09-02T22:12:47Z</time>
  <course>185.54</course>
  <speed>0.03605551275463989</speed>
  <fix>3d</fix>
</trkpt>
<trkpt lat="33.8103132" lon="-118.3938673">
  <ele>-10.52</ele>
  <time>2026-09-02T22:12:47Z</time>
  <course>185.55</course>
  <speed>0.03605551275463989</speed>
  <fix>3d</fix>
</trkpt>
<trkpt lat="33.810313" lon="-118.3938671">
  <ele>-10.06</ele>
  <time>2026-09-02T22:12:47Z</time>
  <course>275.0</course>
  <speed>0.0</speed>
  <fix>3d</fix>
</trkpt>
<trkpt lat="33.8103132" lon="-118.3938673">
  <ele>-10.554</ele>
  <time>2026-09-02T22:12:47Z</time>
  <course>185.55</course>
  <speed>0.03605551275463989</speed>
  <fix>3d</fix>
</trkpt>
<trkpt lat="33.8103132" lon="-118.3938673">
  <ele>-10.617</ele>
  <time>2026-09-02T22:12:47Z</time>
  <course>185.56</course>
  <speed>0.03605551275463989</speed>
  <fix>3d</fix>
</trkpt>
<trkpt lat="33.810313" lon="-118.3938671">
  <ele>-10.06</ele>
  <time>2026-09-02T22:12:47Z</time>
  <course>275.0</course>
  <speed>0.0</speed>
  <fix>3d</fix>
</trkpt>
<trkpt lat="33.8103132" lon="-118.3938673">
  <ele>-10.647</ele>
  <time>2026-09-02T22:12:47Z</time>
  <course>185.56</course>
  <speed>0.03605551275463989</speed>
  <fix>3d</fix>
</trkpt>
<trkpt lat="33.8103132" lon="-118.3938673">
  <ele>-10.715</ele>
  <time>2026-09-02T22:12:47Z</time>
  <course>185.57</course>
  <speed>0.03605551275463989</speed>
  <fix>3d</fix>
</trkpt>
<trkpt lat="33.810313" lon="-118.3938671">
  <ele>-10.26</ele>
  <time>2026-09-02T22:12:47Z</time>
  <course>275.0</course>
  <speed>0.0</speed>
  <fix>3d</fix>
</trkpt>
<trkpt lat="33.8103132" lon="-118.3938673">
  <ele>-10.746</ele>
  <time>2026-09-02T22:12:47Z</time>
  <course>185.57</course>
  <speed>0.03605551275463989</speed>
  <fix>3d</fix>
</trkpt>
<trkpt lat="33.8103132" lon="-118.3938673">
  <ele>-10.814</ele>
  <time>2026-09-02T22:12:47Z</time>
  <course>185.57</course>
  <speed>0.03605551275463989</speed>
  <fix>3d</fix>
</trkpt>
<trkpt lat="33.810313" lon="-118.3938671">
  <ele>-10.26</ele>
  <time>2026-09-02T22:12:47Z</time>
  <course>275.0</course>
  <speed>0.0</speed>
  <fix>3d</fix>
</trkpt>
<trkpt lat="33.8103132" lon="-118.3938673">
  <ele>-10.815</ele>
  <time>2026-09-02T22:12:47Z</time>
  <course>185.57</course>
  <speed>0.03605551275463989</speed>
  <fix>3d</fix>
</trkpt>
<trkpt lat="33.8103132" lon="-118.3938673">
  <ele>-10.913</ele>
  <time>2026-09-02T22:12:47Z</time>
  <course>185.58</course>
  <speed>0.03605551275463989</speed>
  <fix>3d</fix>
</trkpt>
<trkpt lat="33.810313" lon="-118.3938671">
  <ele>-10.46</ele>
  <time>2026-09-02T22:12:47Z</time>
  <course>275.0</course>
  <speed>0.0</speed>
  <fix>3d</fix>
</trkpt>
<trkpt lat="33.8103132" lon="-118.3938673">
  <ele>-10.918</ele>
  <time>2026-09-02T22:12:47Z</time>
  <course>185.58</course>
  <speed>0.03605551275463989</speed>
  <fix>3d</fix>
</trkpt>
<trkpt lat="33.8103132" lon="-118.3938673">
  <ele>-11.012</ele>
  <time>2026-09-02T22:12:47Z</time>
  <course>185.59</course>
  <speed>0.03605551275463989</speed>
  <fix>3d</fix>
</trkpt>
<trkpt lat="33.810313" lon="-118.3938671">
  <ele>-10.46</ele>
  <time>2026-09-02T22:12:47Z</time>
  <course>275.0</course>
  <speed>0.0</speed>
  <fix>3d</fix>
</trkpt>
<trkpt lat="33.8103132" lon="-118.3938673">
  <ele>-11.042</ele>
  <time>2026-09-02T22:12:47Z</time>
  <course>185.59</course>
  <speed>0.03605551275463989</speed>
  <fix>3d</fix>
</trkpt>
<trkpt lat="33.8103132" lon="-118.3938673">
  <ele>-11.111</ele>
  <time>2026-09-02T22:12:47Z</time>
  <course>185.6</course>
  <speed>0.03605551275463989</speed>
  <fix>3d</fix>
</trkpt>
<trkpt lat="33.810313" lon="-118.3938671">
  <ele>-10.66</ele>
  <time>2026-09-02T22:12:47Z</time>
  <course>275.0</course>
  <speed>0.0</speed>
  <fix>3d</fix>
</trkpt>
<trkpt lat="33.8103132" lon="-118.3938673">
  <ele>-11.141</ele>
  <time>2026-09-02T22:12:47Z</time>
  <course>185.6</course>
  <speed>0.03605551275463989</speed>
  <fix>3d</fix>
</trkpt>
<trkpt lat="33.8103132" lon="-118.3938673">
  <ele>-11.211</ele>
  <time>2026-09-02T22:12:47Z</time>
  <course>185.6</course>
  <speed>0.03605551275463989</speed>
  <fix>3d</fix>
</trkpt>
<trkpt lat="33.810313" lon="-118.3938671">
  <ele>-10.66</ele>
  <time>2026-09-02T22:12:47Z</time>
  <course>275.0</course>
  <speed>0.0</speed>
  <fix>3d</fix>
</trkpt>
<trkpt lat="33.8103132" lon="-118.3938673">
  <ele>-11.239</ele>
  <time>2026-09-02T22:12:47Z</time>
  <course>185.61</course>
  <speed>0.03605551275463989</speed>
  <fix>3d</fix>
</trkpt>
<trkpt lat="33.8103132" lon="-118.3938673">
  <ele>-11.311</ele>
  <time>2026-09-02T22:12:47Z</time>
  <course>185.61</course>
  <speed>0.03605551275463989</speed>
  <fix>3d</fix>
</trkpt>
<trkpt lat="33.810313" lon="-118.3938672">
  <ele>-10.86</ele>
  <time>2026-09-02T22:12:47Z</time>
  <course>275.0</course>
  <speed>0.0</speed>
  <fix>3d</fix>
</trkpt>
<trkpt lat="33.8103132" lon="-118.3938673">
  <ele>-11.341</ele>
  <time>2026-09-02T22:12:47Z</time>
  <course>185.61</course>
  <speed>0.03605551275463989</speed>
  <fix>3d</fix>
</trkpt>
<trkpt lat="33.8103132" lon="-118.3938673">
  <ele>-11.411</ele>
  <time>2026-09-02T22:12:47Z</time>
  <course>185.62</course>
  <speed>0.03605551275463989</speed>
  <fix>3d</fix>
</trkpt>
<trkpt lat="33.810313" lon="-118.3938672">
  <ele>-10.86</ele>
  <time>2026-09-02T22:12:47Z</time>
  <course>275.0</course>
  <speed>0.0</speed>
  <fix>3d</fix>
</trkpt>
<trkpt lat="33.8103132" lon="-118.3938673">
  <ele>-11.414</ele>
  <time>2026-09-02T22:12:47Z</time>
  <course>185.62</course>
  <speed>0.03605551275463989</speed>
  <fix>3d</fix>
</trkpt>
<trkpt lat="33.8103132" lon="-118.3938673">
  <ele>-11.511</ele>
  <time>2026-09-02T22:12:47Z</time>
  <course>185.63</course>
  <speed>0.03605551275463989</speed>
  <fix>3d</fix>
</trkpt>
<trkpt lat="33.810313" lon="-118.3938672">
  <ele>-11.05</ele>
  <time>2026-09-02T22:12:47Z</time>
  <course>275.0</course>
  <speed>0.0</speed>
  <fix>3d</fix>
</trkpt>
<trkpt lat="33.8103132" lon="-118.3938673">
  <ele>-11.514</ele>
  <time>2026-09-02T22:12:47Z</time>
  <course>185.63</course>
  <speed>0.03605551275463989</speed>
  <fix>3d</fix>
</trkpt>
<trkpt lat="33.8103132" lon="-118.3938673">
  <ele>-11.611</ele>
  <time>2026-09-02T22:12:47Z</time>
  <course>185.63</course>
  <speed>0.03605551275463989</speed>
  <fix>3d</fix>
</trkpt>
<trkpt lat="33.810313" lon="-118.3938672">
  <ele>-11.05</ele>
  <time>2026-09-02T22:12:47Z</time>
  <course>275.0</course>
  <speed>0.0</speed>
  <fix>3d</fix>
</trkpt>
<trkpt lat="33.8103132" lon="-118.3938673">
  <ele>-11.641</ele>
  <time>2026-09-02T22:12:47Z</time>
  <course>185.64</course>
  <speed>0.03605551275463989</speed>
  <fix>3d</fix>
</trkpt>
<trkpt lat="33.8103132" lon="-118.3938673">
  <ele>-11.71</ele>
  <time>2026-09-02T22:12:47Z</time>
  <course>185.64</course>
  <speed>0.03605551275463989</speed>
  <fix>3d</fix>
</trkpt>
<trkpt lat="33.810313" lon="-118.3938672">
  <ele>-11.25</ele>
  <time>2026-09-02T22:12:47Z</time>
  <course>275.0</course>
  <speed>0.0</speed>
  <fix>3d</fix>
</trkpt>
<trkpt lat="33.8103132" lon="-118.3938673">
  <ele>-11.738</ele>
  <time>2026-09-02T22:12:47Z</time>
  <course>185.64</course>
  <speed>0.03605551275463989</speed>
  <fix>3d</fix>
</trkpt>
<trkpt lat="33.8103132" lon="-118.3938673">
  <ele>-11.811</ele>
  <time>2026-09-02T22:12:47Z</time>
  <course>185.65</course>
  <speed>0.03605551275463989</speed>
  <fix>3d</fix>
</trkpt>
<trkpt lat="33.810313" lon="-118.3938672">
  <ele>-11.25</ele>
  <time>2026-09-02T22:12:47Z</time>
  <course>275.0</course>
  <speed>0.0</speed>
  <fix>3d</fix>
</trkpt>
<trkpt lat="33.8103132" lon="-118.3938673">
  <ele>-11.84</ele>
  <time>2026-09-02T22:12:47Z</time>
  <course>185.65</course>
  <speed>0.03605551275463989</speed>
  <fix>3d</fix>
</trkpt>
<trkpt lat="33.8103132" lon="-118.3938673">
  <ele>-11.909</ele>
  <time>2026-09-02T22:12:47Z</time>
  <course>185.65</course>
  <speed>0.03605551275463989</speed>
  <fix>3d</fix>
</trkpt>
<trkpt lat="33.810313" lon="-118.3938672">
  <ele>-11.44</ele>
  <time>2026-09-02T22:12:47Z</time>
  <course>275.0</course>
  <speed>0.0</speed>
  <fix>3d</fix>
</trkpt>
<trkpt lat="33.8103132" lon="-118.3938673">
  <ele>-11.914</ele>
  <time>2026-09-02T22:12:47Z</time>
  <course>185.66</course>
  <speed>0.03605551275463989</speed>
  <fix>3d</fix>
</trkpt>
<trkpt lat="33.8103132" lon="-118.3938674">
  <ele>-12.007</ele>
  <time>2026-09-02T22:12:47Z</time>
  <course>185.66</course>
  <speed>0.03605551275463989</speed>
  <fix>3d</fix>
</trkpt>
<trkpt lat="33.810313" lon="-118.3938672">
  <ele>-11.44</ele>
  <time>2026-09-02T22:12:47Z</time>
  <course>275.0</course>
  <speed>0.0</speed>
  <fix>3d</fix>
</trkpt>
<trkpt lat="33.8103132" lon="-118.3938674">
  <ele>-12.036</ele>
  <time>2026-09-02T22:12:47Z</time>
  <course>185.66</course>
  <speed>0.03605551275463989</speed>
  <fix>3d</fix>
</trkpt>
<trkpt lat="33.8103132" lon="-118.3938674">
  <ele>-12.104</ele>
  <time>2026-09-02T22:12:47Z</time>
  <course>185.67</course>
  <speed>0.03605551275463989</speed>
  <fix>3d</fix>
</trkpt>
<trkpt lat="33.810313" lon="-118.3938672">
  <ele>-11.63</ele>
  <time>2026-09-02T22:12:47Z</time>
  <course>275.0</course>
  <speed>0.0</speed>
  <fix>3d</fix>
</trkpt>
<trkpt lat="33.8103132" lon="-118.3938674">
  <ele>-12.133</ele>
  <time>2026-09-02T22:12:47Z</time>
  <course>185.67</course>
  <speed>0.03605551275463989</speed>
  <fix>3d</fix>
</trkpt>
<trkpt lat="33.8103132" lon="-118.3938674">
  <ele>-12.201</ele>
  <time>2026-09-02T22:12:47Z</time>
  <course>185.68</course>
  <speed>0.03605551275463989</speed>
  <fix>3d</fix>
</trkpt>
<trkpt lat="33.810313" lon="-118.3938672">
  <ele>-11.63</ele>
  <time>2026-09-02T22:12:47Z</time>
  <course>275.0</course>
  <speed>0.0</speed>
  <fix>3d</fix>
</trkpt>
<trkpt lat="33.8103132" lon="-118.3938674">
  <ele>-12.23</ele>
  <time>2026-09-02T22:12:47Z</time>
  <course>185.68</course>
  <speed>0.03605551275463989</speed>
  <fix>3d</fix>
</trkpt>
<trkpt lat="33.8103132" lon="-118.3938674">
  <ele>-12.299</ele>
  <time>2026-09-02T22:12:47Z</time>
  <course>185.68</course>
  <speed>0.03605551275463989</speed>
  <fix>3d</fix>
</trkpt>
<trkpt lat="33.810313" lon="-118.3938672">
  <ele>-11.81</ele>
  <time>2026-09-02T22:12:47Z</time>
  <course>275.0</course>
  <speed>0.0</speed>
  <fix>3d</fix>
</trkpt>
<trkpt lat="33.8103132" lon="-118.3938674">
  <ele>-12.328</ele>
  <time>2026-09-02T22:12:47Z</time>
  <course>185.69</course>
  <speed>0.03605551275463989</speed>
  <fix>3d</fix>
</trkpt>
<trkpt lat="33.8103132" lon="-118.3938674">
  <ele>-12.396</ele>
  <time>2026-09-02T22:12:47Z</time>
  <course>185.69</course>
  <speed>0.03605551275463989</speed>
  <fix>3d</fix>
</trkpt>
<trkpt lat="33.810313" lon="-118.3938672">
  <ele>-11.81</ele>
  <time>2026-09-02T22:12:47Z</time>
  <course>275.0</course>
  <speed>0.0</speed>
  <fix>3d</fix>
</trkpt>
<trkpt lat="33.8103132" lon="-118.3938674">
  <ele>-12.399</ele>
  <time>2026-09-02T22:12:47Z</time>
  <course>185.69</course>
  <speed>0.03605551275463989</speed>
  <fix>3d</fix>
</trkpt>
<trkpt lat="33.8103132" lon="-118.3938674">
  <ele>-12.493</ele>
  <time>2026-09-02T22:12:47Z</time>
  <course>185.7</course>
  <speed>0.03605551275463989</speed>
  <fix>3d</fix>
</trkpt>
<trkpt lat="33.810313" lon="-118.3938672">
  <ele>-12.0</ele>
  <time>2026-09-02T22:12:47Z</time>
  <course>275.0</course>
  <speed>0.0</speed>
  <fix>3d</fix>
</trkpt>
<trkpt lat="33.8103132" lon="-118.3938674">
  <ele>-12.496</ele>
  <time>2026-09-02T22:12:47Z</time>
  <course>185.7</course>
  <speed>0.03605551275463989</speed>
  <fix>3d</fix>
</trkpt>
<trkpt lat="33.8103132" lon="-118.3938674">
  <ele>-12.59</ele>
  <time>2026-09-02T22:12:47Z</time>
  <course>185.71</course>
  <speed>0.0282842712474619</speed>
  <fix>3d</fix>
</trkpt>
<trkpt lat="33.810313" lon="-118.3938672">
  <ele>-12.0</ele>
  <time>2026-09-02T22:12:47Z</time>
  <course>275.0</course>
  <speed>0.0</speed>
  <fix>3d</fix>
</trkpt>
<trkpt lat="33.8103132" lon="-118.3938674">
  <ele>-12.619</ele>
  <time>2026-09-02T22:12:47Z</time>
  <course>185.71</course>
  <speed>0.03605551275463989</speed>
  <fix>3d</fix>
</trkpt>
<trkpt lat="33.8103132" lon="-118.3938674">
  <ele>-12.686</ele>
  <time>2026-09-02T22:12:47Z</time>
  <course>185.71</course>
  <speed>0.0282842712474619</speed>
  <fix>3d</fix>
</trkpt>
<trkpt lat="33.810313" lon="-118.3938672">
  <ele>-12.19</ele>
  <time>2026-09-02T22:12:47Z</time>
  <course>275.0</course>
  <speed>0.0</speed>
  <fix>3d</fix>
</trkpt>
<trkpt lat="33.8103132" lon="-118.3938674">
  <ele>-12.715</ele>
  <time>2026-09-02T22:12:47Z</time>
  <course>185.72</course>
  <speed>0.0282842712474619</speed>
  <fix>3d</fix>
</trkpt>
<trkpt lat="33.8103132" lon="-118.3938674">
  <ele>-12.782</ele>
  <time>2026-09-02T22:12:47Z</time>
  <course>185.72</course>
  <speed>0.0282842712474619</speed>
  <fix>3d</fix>
</trkpt>
<trkpt lat="33.810313" lon="-118.3938672">
  <ele>-12.19</ele>
  <time>2026-09-02T22:12:47Z</time>
  <course>275.0</course>
  <speed>0.0</speed>
  <fix>3d</fix>
</trkpt>
<trkpt lat="33.8103132" lon="-118.3938674">
  <ele>-12.813</ele>
  <time>2026-09-02T22:12:47Z</time>
  <course>185.72</course>
  <speed>0.0282842712474619</speed>
  <fix>3d</fix>
</trkpt>
<trkpt lat="33.8103132" lon="-118.3938674">
  <ele>-12.879</ele>
  <time>2026-09-02T22:12:47Z</time>
  <course>185.73</course>
  <speed>0.0282842712474619</speed>
  <fix>3d</fix>
</trkpt>
<trkpt lat="33.810313" lon="-118.3938672">
  <ele>-12.37</ele>
  <time>2026-09-02T22:12:47Z</time>
  <course>275.0</course>
  <speed>0.0</speed>
  <fix>3d</fix>
</trkpt>
<trkpt lat="33.8103132" lon="-118.3938674">
  <ele>-12.88</ele>
  <time>2026-09-02T22:12:47Z</time>
  <course>185.73</course>
  <speed>0.0282842712474619</speed>
  <fix>3d</fix>
</trkpt>
<trkpt lat="33.8103132" lon="-118.3938674">
  <ele>-12.975</ele>
  <time>2026-09-02T22:12:47Z</time>
  <course>185.74</course>
  <speed>0.0282842712474619</speed>
  <fix>3d</fix>
</trkpt>
<trkpt lat="33.810313" lon="-118.3938672">
  <ele>-12.37</ele>
  <time>2026-09-02T22:12:47Z</time>
  <course>275.0</course>
  <speed>0.0</speed>
  <fix>3d</fix>
</trkpt>
<trkpt lat="33.8103132" lon="-118.3938674">
  <ele>-12.978</ele>
  <time>2026-09-02T22:12:47Z</time>
  <course>185.74</course>
  <speed>0.0282842712474619</speed>
  <fix>3d</fix>
</trkpt>
<trkpt lat="33.8103132" lon="-118.3938674">
  <ele>-13.073</ele>
  <time>2026-09-02T22:12:47Z</time>
  <course>185.74</course>
  <speed>0.0282842712474619</speed>
  <fix>3d</fix>
</trkpt>
<trkpt lat="33.810313" lon="-118.3938672">
  <ele>-12.56</ele>
  <time>2026-09-02T22:12:47Z</time>
  <course>275.0</course>
  <speed>0.0</speed>
  <fix>3d</fix>
</trkpt>
<trkpt lat="33.8103132" lon="-118.3938674">
  <ele>-13.075</ele>
  <time>2026-09-02T22:12:47Z</time>
  <course>185.74</course>
  <speed>0.0282842712474619</speed>
  <fix>3d</fix>
</trkpt>
<trkpt lat="33.8103132" lon="-118.3938674">
  <ele>-13.171</ele>
  <time>2026-09-02T22:12:47Z</time>
  <course>185.75</course>
  <speed>0.0282842712474619</speed>
  <fix>3d</fix>
</trkpt>
<trkpt lat="33.810313" lon="-118.3938672">
  <ele>-12.56</ele>
  <time>2026-09-02T22:12:47Z</time>
  <course>275.0</course>
  <speed>0.0</speed>
  <fix>3d</fix>
</trkpt>
<trkpt lat="33.8103132" lon="-118.3938674">
  <ele>-13.173</ele>
  <time>2026-09-02T22:12:47Z</time>
  <course>185.75</course>
  <speed>0.0282842712474619</speed>
  <fix>3d</fix>
</trkpt>
<trkpt lat="33.8103132" lon="-118.3938674">
  <ele>-13.269</ele>
  <time>2026-09-02T22:12:47Z</time>
  <course>185.76</course>
  <speed>0.0282842712474619</speed>
  <fix>3d</fix>
</trkpt>
<trkpt lat="33.810313" lon="-118.3938672">
  <ele>-12.75</ele>
  <time>2026-09-02T22:12:47Z</time>
  <course>275.0</course>
  <speed>0.0</speed>
  <fix>3d</fix>
</trkpt>
<trkpt lat="33.8103132" lon="-118.3938674">
  <ele>-13.298</ele>
  <time>2026-09-02T22:12:47Z</time>
  <course>185.76</course>
  <speed>0.0282842712474619</speed>
  <fix>3d</fix>
</trkpt>
<trkpt lat="33.8103132" lon="-118.3938674">
  <ele>-13.366</ele>
  <time>2026-09-02T22:12:47Z</time>
  <course>185.76</course>
  <speed>0.0282842712474619</speed>
  <fix>3d</fix>
</trkpt>
<trkpt lat="33.810313" lon="-118.3938672">
  <ele>-12.75</ele>
  <time>2026-09-02T22:12:47Z</time>
  <course>275.0</course>
  <speed>0.0</speed>
  <fix>3d</fix>
</trkpt>
<trkpt lat="33.8103132" lon="-118.3938674">
  <ele>-13.369</ele>
  <time>2026-09-02T22:12:47Z</time>
  <course>185.76</course>
  <speed>0.0282842712474619</speed>
  <fix>3d</fix>
</trkpt>
<trkpt lat="33.8103132" lon="-118.3938674">
  <ele>-13.463</ele>
  <time>2026-09-02T22:12:47Z</time>
  <course>185.77</course>
  <speed>0.0282842712474619</speed>
  <fix>3d</fix>
</trkpt>
<trkpt lat="33.810313" lon="-118.3938672">
  <ele>-12.93</ele>
  <time>2026-09-02T22:12:47Z</time>
  <course>275.0</course>
  <speed>0.0</speed>
  <fix>3d</fix>
</trkpt>
<trkpt lat="33.8103132" lon="-118.3938674">
  <ele>-13.465</ele>
  <time>2026-09-02T22:12:47Z</time>
  <course>185.77</course>
  <speed>0.0282842712474619</speed>
  <fix>3d</fix>
</trkpt>
<trkpt lat="33.8103132" lon="-118.3938674">
  <ele>-13.559</ele>
  <time>2026-09-02T22:12:47Z</time>
  <course>185.78</course>
  <speed>0.0282842712474619</speed>
  <fix>3d</fix>
</trkpt>
<trkpt lat="33.810313" lon="-118.3938672">
  <ele>-12.93</ele>
  <time>2026-09-02T22:12:47Z</time>
  <course>275.0</course>
  <speed>0.0</speed>
  <fix>3d</fix>
</trkpt>
<trkpt lat="33.8103132" lon="-118.3938674">
  <ele>-13.588</ele>
  <time>2026-09-02T22:12:47Z</time>
  <course>185.78</course>
  <speed>0.0282842712474619</speed>
  <fix>3d</fix>
</trkpt>
<trkpt lat="33.8103132" lon="-118.3938674">
  <ele>-13.655</ele>
  <time>2026-09-02T22:12:47Z</time>
  <course>185.78</course>
  <speed>0.0282842712474619</speed>
  <fix>3d</fix>
</trkpt>
<trkpt lat="33.810313" lon="-118.3938672">
  <ele>-13.12</ele>
  <time>2026-09-02T22:12:47Z</time>
  <course>275.0</course>
  <speed>0.0</speed>
  <fix>3d</fix>
</trkpt>
<trkpt lat="33.8103132" lon="-118.3938674">
  <ele>-13.684</ele>
  <time>2026-09-02T22:12:47Z</time>
  <course>185.79</course>
  <speed>0.0282842712474619</speed>
  <fix>3d</fix>
</trkpt>
<trkpt lat="33.8103132" lon="-118.3938674">
  <ele>-13.752</ele>
  <time>2026-09-02T22:12:47Z</time>
  <course>185.79</course>
  <speed>0.0282842712474619</speed>
  <fix>3d</fix>
</trkpt>
<trkpt lat="33.810313" lon="-118.3938672">
  <ele>-13.12</ele>
  <time>2026-09-02T22:12:47Z</time>
  <course>275.0</course>
  <speed>0.0</speed>
  <fix>3d</fix>
</trkpt>
<trkpt lat="33.8103132" lon="-118.3938674">
  <ele>-13.781</ele>
  <time>2026-09-02T22:12:47Z</time>
  <course>185.79</course>
  <speed>0.0282842712474619</speed>
  <fix>3d</fix>
</trkpt>
<trkpt lat="33.8103132" lon="-118.3938674">
  <ele>-13.849</ele>
  <time>2026-09-02T22:12:47Z</time>
  <course>185.8</course>
  <speed>0.0282842712474619</speed>
  <fix>3d</fix>
</trkpt>
<trkpt lat="33.810313" lon="-118.3938672">
  <ele>-13.31</ele>
  <time>2026-09-02T22:12:47Z</time>
  <course>275.0</course>
  <speed>0.0</speed>
  <fix>3d</fix>
</trkpt>
<trkpt lat="33.8103132" lon="-118.3938674">
  <ele>-13.851</ele>
  <time>2026-09-02T22:12:47Z</time>
  <course>185.8</course>
  <speed>0.0282842712474619</speed>
  <fix>3d</fix>
</trkpt>
<trkpt lat="33.8103132" lon="-118.3938674">
  <ele>-13.945</ele>
  <time>2026-09-02T22:12:47Z</time>
  <course>185.8</course>
  <speed>0.0282842712474619</speed>
  <fix>3d</fix>
</trkpt>
<trkpt lat="33.810313" lon="-118.3938672">
  <ele>-13.31</ele>
  <time>2026-09-02T22:12:47Z</time>
  <course>275.0</course>
  <speed>0.0</speed>
  <fix>3d</fix>
</trkpt>
<trkpt lat="33.8103132" lon="-118.3938674">
  <ele>-13.947</ele>
  <time>2026-09-02T22:12:47Z</time>
  <course>185.81</course>
  <speed>0.0282842712474619</speed>
  <fix>3d</fix>
</trkpt>
<trkpt lat="33.8103132" lon="-118.3938674">
  <ele>-14.041</ele>
  <time>2026-09-02T22:12:47Z</time>
  <course>185.81</course>
  <speed>0.0282842712474619</speed>
  <fix>3d</fix>
</trkpt>
<trkpt lat="33.810313" lon="-118.3938672">
  <ele>-13.5</ele>
  <time>2026-09-02T22:12:47Z</time>
  <course>275.0</course>
  <speed>0.0</speed>
  <fix>3d</fix>
</trkpt>
<trkpt lat="33.8103132" lon="-118.3938674">
  <ele>-14.07</ele>
  <time>2026-09-02T22:12:47Z</time>
  <course>185.81</course>
  <speed>0.0282842712474619</speed>
  <fix>3d</fix>
</trkpt>
<trkpt lat="33.8103132" lon="-118.3938674">
  <ele>-14.138</ele>
  <time>2026-09-02T22:12:47Z</time>
  <course>185.82</course>
  <speed>0.0282842712474619</speed>
  <fix>3d</fix>
</trkpt>
<trkpt lat="33.810313" lon="-118.3938672">
  <ele>-13.5</ele>
  <time>2026-09-02T22:12:47Z</time>
  <course>275.0</course>
  <speed>0.0</speed>
  <fix>3d</fix>
</trkpt>
<trkpt lat="33.8103132" lon="-118.3938674">
  <ele>-14.17</ele>
  <time>2026-09-02T22:12:47Z</time>
  <course>185.82</course>
  <speed>0.0282842712474619</speed>
  <fix>3d</fix>
</trkpt>
<trkpt lat="33.8103132" lon="-118.3938674">
  <ele>-14.237</ele>
  <time>2026-09-02T22:12:47Z</time>
  <course>185.83</course>
  <speed>0.0282842712474619</speed>
  <fix>3d</fix>
</trkpt>
<trkpt lat="33.810313" lon="-118.3938672">
  <ele>-13.69</ele>
  <time>2026-09-02T22:12:47Z</time>
  <course>275.0</course>
  <speed>0.0</speed>
  <fix>3d</fix>
</trkpt>
<trkpt lat="33.8103132" lon="-118.3938674">
  <ele>-14.266</ele>
  <time>2026-09-02T22:12:47Z</time>
  <course>185.83</course>
  <speed>0.0282842712474619</speed>
  <fix>3d</fix>
</trkpt>
<trkpt lat="33.8103132" lon="-118.3938674">
  <ele>-14.335</ele>
  <time>2026-09-02T22:12:47Z</time>
  <course>185.83</course>
  <speed>0.0282842712474619</speed>
  <fix>3d</fix>
</trkpt>
<trkpt lat="33.810313" lon="-118.3938672">
  <ele>-13.69</ele>
  <time>2026-09-02T22:12:47Z</time>
  <course>275.0</course>
  <speed>0.0</speed>
  <fix>3d</fix>
</trkpt>
<trkpt lat="33.8103132" lon="-118.3938674">
  <ele>-14.34</ele>
  <time>2026-09-02T22:12:47Z</time>
  <course>185.83</course>
  <speed>0.0282842712474619</speed>
  <fix>3d</fix>
</trkpt>
<trkpt lat="33.8103132" lon="-118.3938674">
  <ele>-14.434</ele>
  <time>2026-09-02T22:12:47Z</time>
  <course>185.84</course>
  <speed>0.0282842712474619</speed>
  <fix>3d</fix>
</trkpt>
<trkpt lat="33.810313" lon="-118.3938673">
  <ele>-13.88</ele>
  <time>2026-09-02T22:12:47Z</time>
  <course>275.0</course>
  <speed>0.0</speed>
  <fix>3d</fix>
</trkpt>
<trkpt lat="33.8103132" lon="-118.3938674">
  <ele>-14.436</ele>
  <time>2026-09-02T22:12:47Z</time>
  <course>185.84</course>
  <speed>0.0282842712474619</speed>
  <fix>3d</fix>
</trkpt>
<trkpt lat="33.8103132" lon="-118.3938674">
  <ele>-14.533</ele>
  <time>2026-09-02T22:12:47Z</time>
  <course>185.84</course>
  <speed>0.0282842712474619</speed>
  <fix>3d</fix>
</trkpt>
<trkpt lat="33.810313" lon="-118.3938673">
  <ele>-13.88</ele>
  <time>2026-09-02T22:12:47Z</time>
  <course>275.0</course>
  <speed>0.0</speed>
  <fix>3d</fix>
</trkpt>
<trkpt lat="33.8103132" lon="-118.3938674">
  <ele>-14.565</ele>
  <time>2026-09-02T22:12:47Z</time>
  <course>185.85</course>
  <speed>0.0282842712474619</speed>
  <fix>3d</fix>
</trkpt>
<trkpt lat="33.8103132" lon="-118.3938674">
  <ele>-14.632</ele>
  <time>2026-09-02T22:12:47Z</time>
  <course>185.85</course>
  <speed>0.0282842712474619</speed>
  <fix>3d</fix>
</trkpt>
<trkpt lat="33.810313" lon="-118.3938673">
  <ele>-14.08</ele>
  <time>2026-09-02T22:12:47Z</time>
  <course>275.0</course>
  <speed>0.0</speed>
  <fix>3d</fix>
</trkpt>
<trkpt lat="33.8103132" lon="-118.3938674">
  <ele>-14.663</ele>
  <time>2026-09-02T22:12:47Z</time>
  <course>185.85</course>
  <speed>0.0282842712474619</speed>
  <fix>3d</fix>
</trkpt>
<trkpt lat="33.8103132" lon="-118.3938674">
  <ele>-14.731</ele>
  <time>2026-09-02T22:12:47Z</time>
  <course>185.86</course>
  <speed>0.0282842712474619</speed>
  <fix>3d</fix>
</trkpt>
<trkpt lat="33.810313" lon="-118.3938673">
  <ele>-14.08</ele>
  <time>2026-09-02T22:12:47Z</time>
  <course>275.0</course>
  <speed>0.0</speed>
  <fix>3d</fix>
</trkpt>
<trkpt lat="33.8103132" lon="-118.3938674">
  <ele>-14.761</ele>
  <time>2026-09-02T22:12:47Z</time>
  <course>185.86</course>
  <speed>0.0282842712474619</speed>
  <fix>3d</fix>
</trkpt>
<trkpt lat="33.8103132" lon="-118.3938674">
  <ele>-14.83</ele>
  <time>2026-09-02T22:12:47Z</time>
  <course>185.86</course>
  <speed>0.0282842712474619</speed>
  <fix>3d</fix>
</trkpt>
<trkpt lat="33.810313" lon="-118.3938673">
  <ele>-14.27</ele>
  <time>2026-09-02T22:12:47Z</time>
  <course>275.0</course>
  <speed>0.0</speed>
  <fix>3d</fix>
</trkpt>
<trkpt lat="33.8103132" lon="-118.3938674">
  <ele>-14.832</ele>
  <time>2026-09-02T22:12:47Z</time>
  <course>185.86</course>
  <speed>0.0282842712474619</speed>
  <fix>3d</fix>
</trkpt>
<trkpt lat="33.8103132" lon="-118.3938674">
  <ele>-14.928</ele>
  <time>2026-09-02T22:12:47Z</time>
  <course>185.87</course>
  <speed>0.0282842712474619</speed>
  <fix>3d</fix>
</trkpt>
<trkpt lat="33.810313" lon="-118.3938673">
  <ele>-14.27</ele>
  <time>2026-09-02T22:12:47Z</time>
  <course>275.0</course>
  <speed>0.0</speed>
  <fix>3d</fix>
</trkpt>
<trkpt lat="33.8103132" lon="-118.3938674">
  <ele>-14.958</ele>
  <time>2026-09-02T22:12:47Z</time>
  <course>185.87</course>
  <speed>0.0282842712474619</speed>
  <fix>3d</fix>
</trkpt>
<trkpt lat="33.8103132" lon="-118.3938674">
  <ele>-15.026</ele>
  <time>2026-09-02T22:12:47Z</time>
  <course>185.88</course>
  <speed>0.0282842712474619</speed>
  <fix>3d</fix>
</trkpt>
<trkpt lat="33.810313" lon="-118.3938673">
  <ele>-14.46</ele>
  <time>2026-09-02T22:12:47Z</time>
  <course>275.0</course>
  <speed>0.0</speed>
  <fix>3d</fix>
</trkpt>
<trkpt lat="33.8103132" lon="-118.3938674">
  <ele>-15.028</ele>
  <time>2026-09-02T22:12:47Z</time>
  <course>185.88</course>
  <speed>0.0282842712474619</speed>
  <fix>3d</fix>
</trkpt>
<trkpt lat="33.8103132" lon="-118.3938674">
  <ele>-15.123</ele>
  <time>2026-09-02T22:12:47Z</time>
  <course>185.88</course>
  <speed>0.0282842712474619</speed>
  <fix>3d</fix>
</trkpt>
<trkpt lat="33.810313" lon="-118.3938673">
  <ele>-14.46</ele>
  <time>2026-09-02T22:12:47Z</time>
  <course>275.0</course>
  <speed>0.0</speed>
  <fix>3d</fix>
</trkpt>
<trkpt lat="33.8103132" lon="-118.3938674">
  <ele>-15.214</ele>
  <time>2026-09-02T22:12:47Z</time>
  <course>185.89</course>
  <speed>0.0282842712474619</speed>
  <fix>3d</fix>
</trkpt>
<trkpt lat="33.810313" lon="-118.3938673">
  <ele>-14.65</ele>
  <time>2026-09-02T22:12:47Z</time>
  <course>275.0</course>
  <speed>0.0</speed>
  <fix>3d</fix>
</trkpt>
<trkpt lat="33.8103132" lon="-118.3938674">
  <ele>-15.294</ele>
  <time>2026-09-02T22:12:47Z</time>
  <course>185.89</course>
  <speed>0.0282842712474619</speed>
  <fix>3d</fix>
</trkpt>
<trkpt lat="33.810313" lon="-118.3938673">
  <ele>-14.65</ele>
  <time>2026-09-02T22:12:47Z</time>
  <course>275.0</course>
  <speed>0.0</speed>
  <fix>3d</fix>
</trkpt>
<trkpt lat="33.8103132" lon="-118.3938674">
  <ele>-15.356</ele>
  <time>2026-09-02T22:12:47Z</time>
  <course>185.9</course>
  <speed>0.0282842712474619</speed>
  <fix>3d</fix>
</trkpt>
<trkpt lat="33.810313" lon="-118.3938673">
  <ele>-14.83</ele>
  <time>2026-09-02T22:12:47Z</time>
  <course>275.0</course>
  <speed>0.0</speed>
  <fix>3d</fix>
</trkpt>
<trkpt lat="33.8103132" lon="-118.3938674">
  <ele>-15.401</ele>
  <time>2026-09-02T22:12:47Z</time>
  <course>185.91</course>
  <speed>0.0282842712474619</speed>
  <fix>3d</fix>
</trkpt>
<trkpt lat="33.810313" lon="-118.3938673">
  <ele>-14.83</ele>
  <time>2026-09-02T22:12:47Z</time>
  <course>275.0</course>
  <speed>0.0</speed>
  <fix>3d</fix>
</trkpt>
<trkpt lat="33.8103132" lon="-118.3938674">
  <ele>-15.435</ele>
  <time>2026-09-02T22:12:47Z</time>
  <course>185.91</course>
  <speed>0.0282842712474619</speed>
  <fix>3d</fix>
</trkpt>
<trkpt lat="33.810313" lon="-118.3938673">
  <ele>-14.95</ele>
  <time>2026-09-02T22:12:47Z</time>
  <course>275.0</course>
  <speed>0.0</speed>
  <fix>3d</fix>
</trkpt>
<trkpt lat="33.8103132" lon="-118.3938674">
  <ele>-15.458</ele>
  <time>2026-09-02T22:12:47Z</time>
  <course>185.92</course>
  <speed>0.0282842712474619</speed>
  <fix>3d</fix>
</trkpt>
<trkpt lat="33.810313" lon="-118.3938673">
  <ele>-14.95</ele>
  <time>2026-09-02T22:12:47Z</time>
  <course>275.0</course>
  <speed>0.0</speed>
  <fix>3d</fix>
</trkpt>
<trkpt lat="33.8103132" lon="-118.3938674">
  <ele>-15.472</ele>
  <time>2026-09-02T22:12:47Z</time>
  <course>185.92</course>
  <speed>0.0282842712474619</speed>
  <fix>3d</fix>
</trkpt>
<trkpt lat="33.810313" lon="-118.3938673">
  <ele>-15.02</ele>
  <time>2026-09-02T22:12:47Z</time>
  <course>275.0</course>
  <speed>0.0</speed>
  <fix>3d</fix>
</trkpt>
<trkpt lat="33.8103132" lon="-118.3938674">
  <ele>-15.477</ele>
  <time>2026-09-02T22:12:47Z</time>
  <course>185.93</course>
  <speed>0.0282842712474619</speed>
  <fix>3d</fix>
</trkpt>
<trkpt lat="33.810313" lon="-118.3938673">
  <ele>-15.02</ele>
  <time>2026-09-02T22:12:47Z</time>
  <course>275.0</course>
  <speed>0.0</speed>
  <fix>3d</fix>
</trkpt>
<trkpt lat="33.8103132" lon="-118.3938674">
  <ele>-15.477</ele>
  <time>2026-09-02T22:12:47Z</time>
  <course>185.94</course>
  <speed>0.022360679774997897</speed>
  <fix>3d</fix>
</trkpt>
<trkpt lat="33.810313" lon="-118.3938673">
  <ele>-15.05</ele>
  <time>2026-09-02T22:12:47Z</time>
  <course>275.0</course>
  <speed>0.0</speed>
  <fix>3d</fix>
</trkpt>
<trkpt lat="33.8103132" lon="-118.3938674">
  <ele>-15.473</ele>
  <time>2026-09-02T22:12:47Z</time>
  <course>185.94</course>
  <speed>0.022360679774997897</speed>
  <fix>3d</fix>
</trkpt>
<trkpt lat="33.810313" lon="-118.3938673">
  <ele>-15.05</ele>
  <time>2026-09-02T22:12:47Z</time>
  <course>275.0</course>
  <speed>0.0</speed>
  <fix>3d</fix>
</trkpt>
<trkpt lat="33.8103132" lon="-118.3938674">
  <ele>-15.468</ele>
  <time>2026-09-02T22:12:47Z</time>
  <course>185.95</course>
  <speed>0.022360679774997897</speed>
  <fix>3d</fix>
</trkpt>
<trkpt lat="33.810313" lon="-118.3938673">
  <ele>-15.07</ele>
  <time>2026-09-02T22:12:47Z</time>
  <course>275.0</course>
  <speed>0.0</speed>
  <fix>3d</fix>
</trkpt>
<trkpt lat="33.8103132" lon="-118.3938674">
  <ele>-15.463</ele>
  <time>2026-09-02T22:12:47Z</time>
  <course>185.95</course>
  <speed>0.022360679774997897</speed>
  <fix>3d</fix>
</trkpt>
<trkpt lat="33.810313" lon="-118.3938673">
  <ele>-15.07</ele>
  <time>2026-09-02T22:12:47Z</time>
  <course>275.0</course>
  <speed>0.0</speed>
  <fix>3d</fix>
</trkpt>
<trkpt lat="33.8103132" lon="-118.3938674">
  <ele>-15.459</ele>
  <time>2026-09-02T22:12:47Z</time>
  <course>185.96</course>
  <speed>0.022360679774997897</speed>
  <fix>3d</fix>
</trkpt>
<trkpt lat="33.810313" lon="-118.3938673">
  <ele>-15.08</ele>
  <time>2026-09-02T22:12:47Z</time>
  <course>275.0</course>
  <speed>0.0</speed>
  <fix>3d</fix>
</trkpt>
<trkpt lat="33.8103132" lon="-118.3938674">
  <ele>-15.456</ele>
  <time>2026-09-02T22:12:47Z</time>
  <course>185.97</course>
  <speed>0.022360679774997897</speed>
  <fix>3d</fix>
</trkpt>
<trkpt lat="33.810313" lon="-118.3938673">
  <ele>-15.08</ele>
  <time>2026-09-02T22:12:47Z</time>
  <course>275.0</course>
  <speed>0.0</speed>
  <fix>3d</fix>
</trkpt>
<trkpt lat="33.8103132" lon="-118.3938674">
  <ele>-15.455</ele>
  <time>2026-09-02T22:12:47Z</time>
  <course>185.97</course>
  <speed>0.022360679774997897</speed>
  <fix>3d</fix>
</trkpt>
<trkpt lat="33.810313" lon="-118.3938673">
  <ele>-15.08</ele>
  <time>2026-09-02T22:12:47Z</time>
  <course>275.0</course>
  <speed>0.0</speed>
  <fix>3d</fix>
</trkpt>
<trkpt lat="33.8103132" lon="-118.3938674">
  <ele>-15.455</ele>
  <time>2026-09-02T22:12:47Z</time>
  <course>185.98</course>
  <speed>0.022360679774997897</speed>
  <fix>3d</fix>
</trkpt>
<trkpt lat="33.810313" lon="-118.3938673">
  <ele>-15.08</ele>
  <time>2026-09-02T22:12:47Z</time>
  <course>275.0</course>
  <speed>0.0</speed>
  <fix>3d</fix>
</trkpt>
<trkpt lat="33.8103132" lon="-118.3938674">
  <ele>-15.455</ele>
  <time>2026-09-02T22:12:47Z</time>
  <course>185.98</course>
  <speed>0.022360679774997897</speed>
  <fix>3d</fix>
</trkpt>
<trkpt lat="33.810313" lon="-118.3938673">
  <ele>-15.08</ele>
  <time>2026-09-02T22:12:47Z</time>
  <course>275.0</course>
  <speed>0.0</speed>
  <fix>3d</fix>
</trkpt>
<trkpt lat="33.8103132" lon="-118.3938674">
  <ele>-15.457</ele>
  <time>2026-09-02T22:12:47Z</time>
  <course>185.99</course>
  <speed>0.022360679774997897</speed>
  <fix>3d</fix>
</trkpt>
<trkpt lat="33.810313" lon="-118.3938673">
  <ele>-15.08</ele>
  <time>2026-09-02T22:12:47Z</time>
  <course>275.0</course>
  <speed>0.0</speed>
  <fix>3d</fix>
</trkpt>
<trkpt lat="33.8103132" lon="-118.3938674">
  <ele>-15.46</ele>
  <time>2026-09-02T22:12:47Z</time>
  <course>185.99</course>
  <speed>0.022360679774997897</speed>
  <fix>3d</fix>
</trkpt>
<trkpt lat="33.810313" lon="-118.3938673">
  <ele>-15.09</ele>
  <time>2026-09-02T22:12:47Z</time>
  <course>275.0</course>
  <speed>0.0</speed>
  <fix>3d</fix>
</trkpt>
<trkpt lat="33.8103132" lon="-118.3938674">
  <ele>-15.463</ele>
  <time>2026-09-02T22:12:47Z</time>
  <course>186.0</course>
  <speed>0.022360679774997897</speed>
  <fix>3d</fix>
</trkpt>
<trkpt lat="33.810313" lon="-118.3938673">
  <ele>-15.09</ele>
  <time>2026-09-02T22:12:47Z</time>
  <course>275.0</course>
  <speed>0.0</speed>
  <fix>3d</fix>
</trkpt>
<trkpt lat="33.8103132" lon="-118.3938674">
  <ele>-15.466</ele>
  <time>2026-09-02T22:12:47Z</time>
  <course>186.0</course>
  <speed>0.022360679774997897</speed>
  <fix>3d</fix>
</trkpt>
<trkpt lat="33.810313" lon="-118.3938673">
  <ele>-15.1</ele>
  <time>2026-09-02T22:12:47Z</time>
  <course>275.0</course>
  <speed>0.0</speed>
  <fix>3d</fix>
</trkpt>
<trkpt lat="33.8103132" lon="-118.3938674">
  <ele>-15.469</ele>
  <time>2026-09-02T22:12:47Z</time>
  <course>186.01</course>
  <speed>0.022360679774997897</speed>
  <fix>3d</fix>
</trkpt>
<trkpt lat="33.810313" lon="-118.3938673">
  <ele>-15.1</ele>
  <time>2026-09-02T22:12:47Z</time>
  <course>275.0</course>
  <speed>0.0</speed>
  <fix>3d</fix>
</trkpt>
<trkpt lat="33.8103132" lon="-118.3938674">
  <ele>-15.471</ele>
  <time>2026-09-02T22:12:47Z</time>
  <course>186.02</course>
  <speed>0.022360679774997897</speed>
  <fix>3d</fix>
</trkpt>
<trkpt lat="33.810313" lon="-118.3938673">
  <ele>-15.11</ele>
  <time>2026-09-02T22:12:47Z</time>
  <course>275.0</course>
  <speed>0.0</speed>
  <fix>3d</fix>
</trkpt>
<trkpt lat="33.8103132" lon="-118.3938674">
  <ele>-15.474</ele>
  <time>2026-09-02T22:12:47Z</time>
  <course>186.02</course>
  <speed>0.022360679774997897</speed>
  <fix>3d</fix>
</trkpt>
<trkpt lat="33.810313" lon="-118.3938673">
  <ele>-15.11</ele>
  <time>2026-09-02T22:12:47Z</time>
  <course>275.0</course>
  <speed>0.0</speed>
  <fix>3d</fix>
</trkpt>
<trkpt lat="33.8103132" lon="-118.3938674">
  <ele>-15.477</ele>
  <time>2026-09-02T22:12:47Z</time>
  <course>186.03</course>
  <speed>0.022360679774997897</speed>
  <fix>3d</fix>
</trkpt>
<trkpt lat="33.810313" lon="-118.3938673">
  <ele>-15.11</ele>
  <time>2026-09-02T22:12:47Z</time>
  <course>275.0</course>
  <speed>0.0</speed>
  <fix>3d</fix>
</trkpt>
<trkpt lat="33.8103132" lon="-118.3938674">
  <ele>-15.48</ele>
  <time>2026-09-02T22:12:47Z</time>
  <course>186.03</course>
  <speed>0.022360679774997897</speed>
  <fix>3d</fix>
</trkpt>
<trkpt lat="33.810313" lon="-118.3938673">
  <ele>-15.11</ele>
  <time>2026-09-02T22:12:47Z</time>
  <course>275.0</course>
  <speed>0.0</speed>
  <fix>3d</fix>
</trkpt>
<trkpt lat="33.8103132" lon="-118.3938674">
  <ele>-15.481</ele>
  <time>2026-09-02T22:12:47Z</time>
  <course>186.04</course>
  <speed>0.022360679774997897</speed>
  <fix>3d</fix>
</trkpt>
<trkpt lat="33.810313" lon="-118.3938673">
  <ele>-15.12</ele>
  <time>2026-09-02T22:12:47Z</time>
  <course>275.0</course>
  <speed>0.0</speed>
  <fix>3d</fix>
</trkpt>
<trkpt lat="33.8103132" lon="-118.3938674">
  <ele>-15.48</ele>
  <time>2026-09-02T22:12:47Z</time>
  <course>186.04</course>
  <speed>0.022360679774997897</speed>
  <fix>3d</fix>
</trkpt>
<trkpt lat="33.810313" lon="-118.3938673">
  <ele>-15.12</ele>
  <time>2026-09-02T22:12:47Z</time>
  <course>275.0</course>
  <speed>0.0</speed>
  <fix>3d</fix>
</trkpt>
<trkpt lat="33.8103132" lon="-118.3938674">
  <ele>-15.478</ele>
  <time>2026-09-02T22:12:47Z</time>
  <course>186.05</course>
  <speed>0.022360679774997897</speed>
  <fix>3d</fix>
</trkpt>
<trkpt lat="33.810313" lon="-118.3938673">
  <ele>-15.12</ele>
  <time>2026-09-02T22:12:47Z</time>
  <course>275.0</course>
  <speed>0.0</speed>
  <fix>3d</fix>
</trkpt>
<trkpt lat="33.8103132" lon="-118.3938674">
  <ele>-15.475</ele>
  <time>2026-09-02T22:12:47Z</time>
  <course>186.05</course>
  <speed>0.022360679774997897</speed>
  <fix>3d</fix>
</trkpt>
<trkpt lat="33.810313" lon="-118.3938673">
  <ele>-15.12</ele>
  <time>2026-09-02T22:12:47Z</time>
  <course>275.0</course>
  <speed>0.0</speed>
  <fix>3d</fix>
</trkpt>
<trkpt lat="33.8103132" lon="-118.3938674">
  <ele>-15.47</ele>
  <time>2026-09-02T22:12:47Z</time>
  <course>186.06</course>
  <speed>0.022360679774997897</speed>
  <fix>3d</fix>
</trkpt>
<trkpt lat="33.810313" lon="-118.3938673">
  <ele>-15.11</ele>
  <time>2026-09-02T22:12:47Z</time>
  <course>275.0</course>
  <speed>0.0</speed>
  <fix>3d</fix>
</trkpt>
<trkpt lat="33.8103132" lon="-118.3938674">
  <ele>-15.466</ele>
  <time>2026-09-02T22:12:47Z</time>
  <course>186.06</course>
  <speed>0.022360679774997897</speed>
  <fix>3d</fix>
</trkpt>
<trkpt lat="33.810313" lon="-118.3938673">
  <ele>-15.11</ele>
  <time>2026-09-02T22:12:47Z</time>
  <course>275.0</course>
  <speed>0.0</speed>
  <fix>3d</fix>
</trkpt>
<trkpt lat="33.8103132" lon="-118.3938674">
  <ele>-15.463</ele>
  <time>2026-09-02T22:12:47Z</time>
  <course>186.07</course>
  <speed>0.022360679774997897</speed>
  <fix>3d</fix>
</trkpt>
<trkpt lat="33.810313" lon="-118.3938673">
  <ele>-15.1</ele>
  <time>2026-09-02T22:12:47Z</time>
  <course>275.0</course>
  <speed>0.0</speed>
  <fix>3d</fix>
</trkpt>
<trkpt lat="33.8103132" lon="-118.3938674">
  <ele>-15.462</ele>
  <time>2026-09-02T22:12:47Z</time>
  <course>186.07</course>
  <speed>0.022360679774997897</speed>
  <fix>3d</fix>
</trkpt>
<trkpt lat="33.810313" lon="-118.3938673">
  <ele>-15.1</ele>
  <time>2026-09-02T22:12:47Z</time>
  <course>275.0</course>
  <speed>0.0</speed>
  <fix>3d</fix>
</trkpt>
<trkpt lat="33.8103132" lon="-118.3938674">
  <ele>-15.463</ele>
  <time>2026-09-02T22:12:47Z</time>
  <course>186.08</course>
  <speed>0.022360679774997897</speed>
  <fix>3d</fix>
</trkpt>
<trkpt lat="33.810313" lon="-118.3938674">
  <ele>-15.1</ele>
  <time>2026-09-02T22:12:47Z</time>
  <course>275.0</course>
  <speed>0.0</speed>
  <fix>3d</fix>
</trkpt>
<trkpt lat="33.8103132" lon="-118.3938674">
  <ele>-15.463</ele>
  <time>2026-09-02T22:12:47Z</time>
  <course>186.08</course>
  <speed>0.022360679774997897</speed>
  <fix>3d</fix>
</trkpt>
<trkpt lat="33.810313" lon="-118.3938674">
  <ele>-15.1</ele>
  <time>2026-09-02T22:12:47Z</time>
  <course>275.0</course>
  <speed>0.0</speed>
  <fix>3d</fix>
</trkpt>
<trkpt lat="33.8103132" lon="-118.3938674">
  <ele>-15.464</ele>
  <time>2026-09-02T22:12:47Z</time>
  <course>186.09</course>
  <speed>0.022360679774997897</speed>
  <fix>3d</fix>
</trkpt>
<trkpt lat="33.810313" lon="-118.3938674">
  <ele>-15.1</ele>
  <time>2026-09-02T22:12:47Z</time>
  <course>275.0</course>
  <speed>0.0</speed>
  <fix>3d</fix>
</trkpt>
<trkpt lat="33.8103132" lon="-118.3938674">
  <ele>-15.466</ele>
  <time>2026-09-02T22:12:47Z</time>
  <course>186.09</course>
  <speed>0.022360679774997897</speed>
  <fix>3d</fix>
</trkpt>
<trkpt lat="33.810313" lon="-118.3938674">
  <ele>-15.1</ele>
  <time>2026-09-02T22:12:47Z</time>
  <course>275.0</course>
  <speed>0.0</speed>
  <fix>3d</fix>
</trkpt>
<trkpt lat="33.8103132" lon="-118.3938674">
  <ele>-15.466</ele>
  <time>2026-09-02T22:12:47Z</time>
  <course>186.09</course>
  <speed>0.022360679774997897</speed>
  <fix>3d</fix>
</trkpt>
<trkpt lat="33.810313" lon="-118.3938674">
  <ele>-15.1</ele>
  <time>2026-09-02T22:12:47Z</time>
  <course>275.0</course>
  <speed>0.0</speed>
  <fix>3d</fix>
</trkpt>
<trkpt lat="33.8103132" lon="-118.3938674">
  <ele>-15.465</ele>
  <time>2026-09-02T22:12:47Z</time>
  <course>186.1</course>
  <speed>0.022360679774997897</speed>
  <fix>3d</fix>
</trkpt>
<trkpt lat="33.810313" lon="-118.3938674">
  <ele>-15.1</ele>
  <time>2026-09-02T22:12:47Z</time>
  <course>275.0</course>
  <speed>0.0</speed>
  <fix>3d</fix>
</trkpt>
<trkpt lat="33.8103132" lon="-118.3938674">
  <ele>-15.465</ele>
  <time>2026-09-02T22:12:47Z</time>
  <course>186.1</course>
  <speed>0.022360679774997897</speed>
  <fix>3d</fix>
</trkpt>
<trkpt lat="33.810313" lon="-118.3938674">
  <ele>-15.1</ele>
  <time>2026-09-02T22:12:47Z</time>
  <course>275.0</course>
  <speed>0.0</speed>
  <fix>3d</fix>
</trkpt>
<trkpt lat="33.8103132" lon="-118.3938674">
  <ele>-15.465</ele>
  <time>2026-09-02T22:12:47Z</time>
  <course>186.11</course>
  <speed>0.022360679774997897</speed>
  <fix>3d</fix>
</trkpt>
<trkpt lat="33.810313" lon="-118.3938674">
  <ele>-15.1</ele>
  <time>2026-09-02T22:12:47Z</time>
  <course>275.0</course>
  <speed>0.0</speed>
  <fix>3d</fix>
</trkpt>
<trkpt lat="33.8103132" lon="-118.3938674">
  <ele>-15.464</ele>
  <time>2026-09-02T22:12:47Z</time>
  <course>186.11</course>
  <speed>0.022360679774997897</speed>
  <fix>3d</fix>
</trkpt>
<trkpt lat="33.810313" lon="-118.3938674">
  <ele>-15.1</ele>
  <time>2026-09-02T22:12:47Z</time>
  <course>275.0</course>
  <speed>0.0</speed>
  <fix>3d</fix>
</trkpt>
<trkpt lat="33.8103132" lon="-118.3938674">
  <ele>-15.465</ele>
  <time>2026-09-02T22:12:47Z</time>
  <course>186.11</course>
  <speed>0.022360679774997897</speed>
  <fix>3d</fix>
</trkpt>
<trkpt lat="33.810313" lon="-118.3938674">
  <ele>-15.1</ele>
  <time>2026-09-02T22:12:47Z</time>
  <course>275.0</course>
  <speed>0.0</speed>
  <fix>3d</fix>
</trkpt>
<trkpt lat="33.8103132" lon="-118.3938674">
  <ele>-15.466</ele>
  <time>2026-09-02T22:12:47Z</time>
  <course>186.12</course>
  <speed>0.022360679774997897</speed>
  <fix>3d</fix>
</trkpt>
<trkpt lat="33.810313" lon="-118.3938674">
  <ele>-15.1</ele>
  <time>2026-09-02T22:12:47Z</time>
  <course>275.0</course>
  <speed>0.0</speed>
  <fix>3d</fix>
</trkpt>
<trkpt lat="33.8103132" lon="-118.3938675">
  <ele>-15.466</ele>
  <time>2026-09-02T22:12:47Z</time>
  <course>186.12</course>
  <speed>0.022360679774997897</speed>
  <fix>3d</fix>
</trkpt>
<trkpt lat="33.810313" lon="-118.3938674">
  <ele>-15.1</ele>
  <time>2026-09-02T22:12:47Z</time>
  <course>275.0</course>
  <speed>0.0</speed>
  <fix>3d</fix>
</trkpt>
<trkpt lat="33.8103132" lon="-118.3938675">
  <ele>-15.466</ele>
  <time>2026-09-02T22:12:47Z</time>
  <course>186.13</course>
  <speed>0.022360679774997897</speed>
  <fix>3d</fix>
</trkpt>
<trkpt lat="33.810313" lon="-118.3938674">
  <ele>-15.1</ele>
  <time>2026-09-02T22:12:47Z</time>
  <course>275.0</course>
  <speed>0.0</speed>
  <fix>3d</fix>
</trkpt>
<trkpt lat="33.8103132" lon="-118.3938675">
  <ele>-15.466</ele>
  <time>2026-09-02T22:12:47Z</time>
  <course>186.13</course>
  <speed>0.022360679774997897</speed>
  <fix>3d</fix>
</trkpt>
<trkpt lat="33.810313" lon="-118.3938674">
  <ele>-15.1</ele>
  <time>2026-09-02T22:12:47Z</time>
  <course>275.0</course>
  <speed>0.0</speed>
  <fix>3d</fix>
</trkpt>
<trkpt lat="33.8103132" lon="-118.3938675">
  <ele>-15.466</ele>
  <time>2026-09-02T22:12:47Z</time>
  <course>186.14</course>
  <speed>0.022360679774997897</speed>
  <fix>3d</fix>
</trkpt>
<trkpt lat="33.810313" lon="-118.3938674">
  <ele>-15.1</ele>
  <time>2026-09-02T22:12:47Z</time>
  <course>275.0</course>
  <speed>0.0</speed>
  <fix>3d</fix>
</trkpt>
<trkpt lat="33.8103132" lon="-118.3938675">
  <ele>-15.466</ele>
  <time>2026-09-02T22:12:47Z</time>
  <course>186.14</course>
  <speed>0.022360679774997897</speed>
  <fix>3d</fix>
</trkpt>
<trkpt lat="33.810313" lon="-118.3938674">
  <ele>-15.1</ele>
  <time>2026-09-02T22:12:47Z</time>
  <course>275.0</course>
  <speed>0.0</speed>
  <fix>3d</fix>
</trkpt>
<trkpt lat="33.8103132" lon="-118.3938675">
  <ele>-15.466</ele>
  <time>2026-09-02T22:12:47Z</time>
  <course>186.14</course>
  <speed>0.022360679774997897</speed>
  <fix>3d</fix>
</trkpt>
<trkpt lat="33.810313" lon="-118.3938674">
  <ele>-15.1</ele>
  <time>2026-09-02T22:12:47Z</time>
  <course>275.0</course>
  <speed>0.0</speed>
  <fix>3d</fix>
</trkpt>
<trkpt lat="33.8103132" lon="-118.3938675">
  <ele>-15.467</ele>
  <time>2026-09-02T22:12:47Z</time>
  <course>186.15</course>
  <speed>0.022360679774997897</speed>
  <fix>3d</fix>
</trkpt>
<trkpt lat="33.810313" lon="-118.3938674">
  <ele>-15.1</ele>
  <time>2026-09-02T22:12:47Z</time>
  <course>275.0</course>
  <speed>0.0</speed>
  <fix>3d</fix>
</trkpt>
<trkpt lat="33.8103132" lon="-118.3938675">
  <ele>-15.467</ele>
  <time>2026-09-02T22:12:47Z</time>
  <course>186.15</course>
  <speed>0.022360679774997897</speed>
  <fix>3d</fix>
</trkpt>
<trkpt lat="33.810313" lon="-118.3938674">
  <ele>-15.1</ele>
  <time>2026-09-02T22:12:47Z</time>
  <course>275.0</course>
  <speed>0.0</speed>
  <fix>3d</fix>
</trkpt>
<trkpt lat="33.8103132" lon="-118.3938675">
  <ele>-15.467</ele>
  <time>2026-09-02T22:12:47Z</time>
  <course>186.15</course>
  <speed>0.022360679774997897</speed>
  <fix>3d</fix>
</trkpt>
<trkpt lat="33.810313" lon="-118.3938674">
  <ele>-15.1</ele>
  <time>2026-09-02T22:12:47Z</time>
  <course>275.0</course>
  <speed>0.0</speed>
  <fix>3d</fix>
</trkpt>
<trkpt lat="33.8103132" lon="-118.3938675">
  <ele>-15.466</ele>
  <time>2026-09-02T22:12:47Z</time>
  <course>186.16</course>
  <speed>0.022360679774997897</speed>
  <fix>3d</fix>
</trkpt>
<trkpt lat="33.810313" lon="-118.3938674">
  <ele>-15.1</ele>
  <time>2026-09-02T22:12:47Z</time>
  <course>275.0</course>
  <speed>0.0</speed>
  <fix>3d</fix>
</trkpt>
<trkpt lat="33.8103132" lon="-118.3938675">
  <ele>-15.465</ele>
  <time>2026-09-02T22:12:47Z</time>
  <course>186.16</course>
  <speed>0.022360679774997897</speed>
  <fix>3d</fix>
</trkpt>
<trkpt lat="33.810313" lon="-118.3938674">
  <ele>-15.1</ele>
  <time>2026-09-02T22:12:47Z</time>
  <course>275.0</course>
  <speed>0.0</speed>
  <fix>3d</fix>
</trkpt>
<trkpt lat="33.8103132" lon="-118.3938675">
  <ele>-15.464</ele>
  <time>2026-09-02T22:12:47Z</time>
  <course>186.17</course>
  <speed>0.022360679774997897</speed>
  <fix>3d</fix>
</trkpt>
<trkpt lat="33.810313" lon="-118.3938674">
  <ele>-15.09</ele>
  <time>2026-09-02T22:12:47Z</time>
  <course>275.0</course>
  <speed>0.0</speed>
  <fix>3d</fix>
</trkpt>
<trkpt lat="33.8103132" lon="-118.3938675">
  <ele>-15.462</ele>
  <time>2026-09-02T22:12:47Z</time>
  <course>186.17</course>
  <speed>0.022360679774997897</speed>
  <fix>3d</fix>
</trkpt>
<trkpt lat="33.810313" lon="-118.3938674">
  <ele>-15.09</ele>
  <time>2026-09-02T22:12:47Z</time>
  <course>275.0</course>
  <speed>0.0</speed>
  <fix>3d</fix>
</trkpt>
<trkpt lat="33.8103132" lon="-118.3938675">
  <ele>-15.461</ele>
  <time>2026-09-02T22:12:47Z</time>
  <course>186.17</course>
  <speed>0.022360679774997897</speed>
  <fix>3d</fix>
</trkpt>
<trkpt lat="33.810313" lon="-118.3938674">
  <ele>-15.09</ele>
  <time>2026-09-02T22:12:47Z</time>
  <course>275.0</course>
  <speed>0.0</speed>
  <fix>3d</fix>
</trkpt>
<trkpt lat="33.8103132" lon="-118.3938675">
  <ele>-15.46</ele>
  <time>2026-09-02T22:12:47Z</time>
  <course>186.18</course>
  <speed>0.022360679774997897</speed>
  <fix>3d</fix>
</trkpt>
<trkpt lat="33.810313" lon="-118.3938674">
  <ele>-15.09</ele>
  <time>2026-09-02T22:12:47Z</time>
  <course>275.0</course>
  <speed>0.0</speed>
  <fix>3d</fix>
</trkpt>
<trkpt lat="33.8103132" lon="-118.3938675">
  <ele>-15.459</ele>
  <time>2026-09-02T22:12:47Z</time>
  <course>186.18</course>
  <speed>0.022360679774997897</speed>
  <fix>3d</fix>
</trkpt>
<trkpt lat="33.810313" lon="-118.3938674">
  <ele>-15.09</ele>
  <time>2026-09-02T22:12:47Z</time>
  <course>275.0</course>
  <speed>0.0</speed>
  <fix>3d</fix>
</trkpt>
<trkpt lat="33.8103132" lon="-118.3938675">
  <ele>-15.46</ele>
  <time>2026-09-02T22:12:47Z</time>
  <course>186.18</course>
  <speed>0.022360679774997897</speed>
  <fix>3d</fix>
</trkpt>
<trkpt lat="33.810313" lon="-118.3938674">
  <ele>-15.09</ele>
  <time>2026-09-02T22:12:47Z</time>
  <course>275.0</course>
  <speed>0.0</speed>
  <fix>3d</fix>
</trkpt>
<trkpt lat="33.8103132" lon="-118.3938675">
  <ele>-15.462</ele>
  <time>2026-09-02T22:12:47Z</time>
  <course>186.19</course>
  <speed>0.022360679774997897</speed>
  <fix>3d</fix>
</trkpt>
<trkpt lat="33.810313" lon="-118.3938674">
  <ele>-15.09</ele>
  <time>2026-09-02T22:12:47Z</time>
  <course>275.0</course>
  <speed>0.0</speed>
  <fix>3d</fix>
</trkpt>
<trkpt lat="33.8103132" lon="-118.3938675">
  <ele>-15.465</ele>
  <time>2026-09-02T22:12:47Z</time>
  <course>186.19</course>
  <speed>0.022360679774997897</speed>
  <fix>3d</fix>
</trkpt>
<trkpt lat="33.810313" lon="-118.3938674">
  <ele>-15.09</ele>
  <time>2026-09-02T22:12:47Z</time>
  <course>275.0</course>
  <speed>0.0</speed>
  <fix>3d</fix>
</trkpt>
<trkpt lat="33.8103132" lon="-118.3938675">
  <ele>-15.467</ele>
  <time>2026-09-02T22:12:47Z</time>
  <course>186.19</course>
  <speed>0.022360679774997897</speed>
  <fix>3d</fix>
</trkpt>
<trkpt lat="33.810313" lon="-118.3938674">
  <ele>-15.1</ele>
  <time>2026-09-02T22:12:47Z</time>
  <course>275.0</course>
  <speed>0.0</speed>
  <fix>3d</fix>
</trkpt>
<trkpt lat="33.8103132" lon="-118.3938675">
  <ele>-15.468</ele>
  <time>2026-09-02T22:12:47Z</time>
  <course>186.2</course>
  <speed>0.022360679774997897</speed>
  <fix>3d</fix>
</trkpt>
<trkpt lat="33.810313" lon="-118.3938674">
  <ele>-15.1</ele>
  <time>2026-09-02T22:12:47Z</time>
  <course>275.0</course>
  <speed>0.0</speed>
  <fix>3d</fix>
</trkpt>
<trkpt lat="33.8103132" lon="-118.3938675">
  <ele>-15.469</ele>
  <time>2026-09-02T22:12:47Z</time>
  <course>186.2</course>
  <speed>0.022360679774997897</speed>
  <fix>3d</fix>
</trkpt>
<trkpt lat="33.810313" lon="-118.3938674">
  <ele>-15.1</ele>
  <time>2026-09-02T22:12:47Z</time>
  <course>275.0</course>
  <speed>0.0</speed>
  <fix>3d</fix>
</trkpt>
<trkpt lat="33.8103132" lon="-118.3938675">
  <ele>-15.469</ele>
  <time>2026-09-02T22:12:47Z</time>
  <course>186.2</course>
  <speed>0.022360679774997897</speed>
  <fix>3d</fix>
</trkpt>
<trkpt lat="33.810313" lon="-118.3938674">
  <ele>-15.1</ele>
  <time>2026-09-02T22:12:47Z</time>
  <course>275.0</course>
  <speed>0.0</speed>
  <fix>3d</fix>
</trkpt>
<trkpt lat="33.8103132" lon="-118.3938675">
  <ele>-15.468</ele>
  <time>2026-09-02T22:12:47Z</time>
  <course>186.21</course>
  <speed>0.022360679774997897</speed>
  <fix>3d</fix>
</trkpt>
<trkpt lat="33.810313" lon="-118.3938674">
  <ele>-15.1</ele>
  <time>2026-09-02T22:12:47Z</time>
  <course>275.0</course>
  <speed>0.0</speed>
  <fix>3d</fix>
</trkpt>
<trkpt lat="33.8103132" lon="-118.3938675">
  <ele>-15.466</ele>
  <time>2026-09-02T22:12:47Z</time>
  <course>186.21</course>
  <speed>0.022360679774997897</speed>
  <fix>3d</fix>
</trkpt>
<trkpt lat="33.810313" lon="-118.3938674">
  <ele>-15.1</ele>
  <time>2026-09-02T22:12:47Z</time>
  <course>275.0</course>
  <speed>0.0</speed>
  <fix>3d</fix>
</trkpt>
<trkpt lat="33.8103132" lon="-118.3938675">
  <ele>-15.465</ele>
  <time>2026-09-02T22:12:47Z</time>
  <course>186.21</course>
  <speed>0.022360679774997897</speed>
  <fix>3d</fix>
</trkpt>
<trkpt lat="33.810313" lon="-118.3938674">
  <ele>-15.1</ele>
  <time>2026-09-02T22:12:47Z</time>
  <course>275.0</course>
  <speed>0.0</speed>
  <fix>3d</fix>
</trkpt>
<trkpt lat="33.8103132" lon="-118.3938675">
  <ele>-15.464</ele>
  <time>2026-09-02T22:12:47Z</time>
  <course>186.22</course>
  <speed>0.022360679774997897</speed>
  <fix>3d</fix>
</trkpt>
<trkpt lat="33.810313" lon="-118.3938674">
  <ele>-15.1</ele>
  <time>2026-09-02T22:12:47Z</time>
  <course>275.0</course>
  <speed>0.0</speed>
  <fix>3d</fix>
</trkpt>
<trkpt lat="33.8103132" lon="-118.3938675">
  <ele>-15.464</ele>
  <time>2026-09-02T22:12:47Z</time>
  <course>186.22</course>
  <speed>0.022360679774997897</speed>
  <fix>3d</fix>
</trkpt>
<trkpt lat="33.810313" lon="-118.3938674">
  <ele>-15.1</ele>
  <time>2026-09-02T22:12:47Z</time>
  <course>275.0</course>
  <speed>0.0</speed>
  <fix>3d</fix>
</trkpt>
<trkpt lat="33.8103132" lon="-118.3938675">
  <ele>-15.463</ele>
  <time>2026-09-02T22:12:47Z</time>
  <course>186.22</course>
  <speed>0.022360679774997897</speed>
  <fix>3d</fix>
</trkpt>
<trkpt lat="33.810313" lon="-118.3938674">
  <ele>-15.1</ele>
  <time>2026-09-02T22:12:47Z</time>
  <course>275.0</course>
  <speed>0.0</speed>
  <fix>3d</fix>
</trkpt>
<trkpt lat="33.8103132" lon="-118.3938675">
  <ele>-15.464</ele>
  <time>2026-09-02T22:12:47Z</time>
  <course>186.23</course>
  <speed>0.022360679774997897</speed>
  <fix>3d</fix>
</trkpt>
<trkpt lat="33.810313" lon="-118.3938674">
  <ele>-15.1</ele>
  <time>2026-09-02T22:12:47Z</time>
  <course>275.0</course>
  <speed>0.0</speed>
  <fix>3d</fix>
</trkpt>
<trkpt lat="33.8103132" lon="-118.3938675">
  <ele>-15.464</ele>
  <time>2026-09-02T22:12:47Z</time>
  <course>186.23</course>
  <speed>0.022360679774997897</speed>
  <fix>3d</fix>
</trkpt>
<trkpt lat="33.810313" lon="-118.3938674">
  <ele>-15.1</ele>
  <time>2026-09-02T22:12:47Z</time>
  <course>275.0</course>
  <speed>0.0</speed>
  <fix>3d</fix>
</trkpt>
<trkpt lat="33.8103132" lon="-118.3938675">
  <ele>-15.465</ele>
  <time>2026-09-02T22:12:47Z</time>
  <course>186.23</course>
  <speed>0.022360679774997897</speed>
  <fix>3d</fix>
</trkpt>
<trkpt lat="33.810313" lon="-118.3938674">
  <ele>-15.1</ele>
  <time>2026-09-02T22:12:47Z</time>
  <course>275.0</course>
  <speed>0.0</speed>
  <fix>3d</fix>
</trkpt>
<trkpt lat="33.8103132" lon="-118.3938675">
  <ele>-15.466</ele>
  <time>2026-09-02T22:12:47Z</time>
  <course>186.23</course>
  <speed>0.022360679774997897</speed>
  <fix>3d</fix>
</trkpt>
<trkpt lat="33.810313" lon="-118.3938674">
  <ele>-15.1</ele>
  <time>2026-09-02T22:12:47Z</time>
  <course>275.0</course>
  <speed>0.0</speed>
  <fix>3d</fix>
</trkpt>
<trkpt lat="33.8103132" lon="-118.3938675">
  <ele>-15.466</ele>
  <time>2026-09-02T22:12:47Z</time>
  <course>186.24</course>
  <speed>0.022360679774997897</speed>
  <fix>3d</fix>
</trkpt>
<trkpt lat="33.810313" lon="-118.3938674">
  <ele>-15.1</ele>
  <time>2026-09-02T22:12:47Z</time>
  <course>275.0</course>
  <speed>0.0</speed>
  <fix>3d</fix>
</trkpt>
<trkpt lat="33.8103132" lon="-118.3938675">
  <ele>-15.467</ele>
  <time>2026-09-02T22:12:47Z</time>
  <course>186.24</course>
  <speed>0.022360679774997897</speed>
  <fix>3d</fix>
</trkpt>
<trkpt lat="33.810313" lon="-118.3938674">
  <ele>-15.1</ele>
  <time>2026-09-02T22:12:47Z</time>
  <course>275.0</course>
  <speed>0.0</speed>
  <fix>3d</fix>
</trkpt>
<trkpt lat="33.8103132" lon="-118.3938675">
  <ele>-15.468</ele>
  <time>2026-09-02T22:12:47Z</time>
  <course>186.24</course>
  <speed>0.022360679774997897</speed>
  <fix>3d</fix>
</trkpt>
<trkpt lat="33.810313" lon="-118.3938674">
  <ele>-15.1</ele>
  <time>2026-09-02T22:12:47Z</time>
  <course>275.0</course>
  <speed>0.0</speed>
  <fix>3d</fix>
</trkpt>
<trkpt lat="33.8103132" lon="-118.3938675">
  <ele>-15.467</ele>
  <time>2026-09-02T22:12:47Z</time>
  <course>186.24</course>
  <speed>0.022360679774997897</speed>
  <fix>3d</fix>
</trkpt>
<trkpt lat="33.810313" lon="-118.3938674">
  <ele>-15.1</ele>
  <time>2026-09-02T22:12:47Z</time>
  <course>275.0</course>
  <speed>0.0</speed>
  <fix>3d</fix>
</trkpt>
<trkpt lat="33.8103132" lon="-118.3938675">
  <ele>-15.466</ele>
  <time>2026-09-02T22:12:47Z</time>
  <course>186.25</course>
  <speed>0.022360679774997897</speed>
  <fix>3d</fix>
</trkpt>
<trkpt lat="33.810313" lon="-118.3938675">
  <ele>-15.1</ele>
  <time>2026-09-02T22:12:47Z</time>
  <course>275.0</course>
  <speed>0.0</speed>
  <fix>3d</fix>
</trkpt>
<trkpt lat="33.8103132" lon="-118.3938675">
  <ele>-15.465</ele>
  <time>2026-09-02T22:12:47Z</time>
  <course>186.25</course>
  <speed>0.022360679774997897</speed>
  <fix>3d</fix>
</trkpt>
<trkpt lat="33.810313" lon="-118.3938675">
  <ele>-15.1</ele>
  <time>2026-09-02T22:12:47Z</time>
  <course>275.0</course>
  <speed>0.0</speed>
  <fix>3d</fix>
</trkpt>
<trkpt lat="33.8103132" lon="-118.3938675">
  <ele>-15.465</ele>
  <time>2026-09-02T22:12:47Z</time>
  <course>186.25</course>
  <speed>0.022360679774997897</speed>
  <fix>3d</fix>
</trkpt>
<trkpt lat="33.810313" lon="-118.3938675">
  <ele>-15.1</ele>
  <time>2026-09-02T22:12:47Z</time>
  <course>275.0</course>
  <speed>0.0</speed>
  <fix>3d</fix>
</trkpt>
<trkpt lat="33.8103132" lon="-118.3938675">
  <ele>-15.466</ele>
  <time>2026-09-02T22:12:47Z</time>
  <course>186.25</course>
  <speed>0.022360679774997897</speed>
  <fix>3d</fix>
</trkpt>
<trkpt lat="33.810313" lon="-118.3938675">
  <ele>-15.1</ele>
  <time>2026-09-02T22:12:47Z</time>
  <course>275.0</course>
  <speed>0.0</speed>
  <fix>3d</fix>
</trkpt>
<trkpt lat="33.8103132" lon="-118.3938675">
  <ele>-15.465</ele>
  <time>2026-09-02T22:12:47Z</time>
  <course>186.26</course>
  <speed>0.022360679774997897</speed>
  <fix>3d</fix>
</trkpt>
<trkpt lat="33.810313" lon="-118.3938675">
  <ele>-15.1</ele>
  <time>2026-09-02T22:12:47Z</time>
  <course>275.0</course>
  <speed>0.0</speed>
  <fix>3d</fix>
</trkpt>
<trkpt lat="33.8103132" lon="-118.3938675">
  <ele>-15.465</ele>
  <time>2026-09-02T22:12:47Z</time>
  <course>186.26</course>
  <speed>0.022360679774997897</speed>
  <fix>3d</fix>
</trkpt>
<trkpt lat="33.810313" lon="-118.3938675">
  <ele>-15.1</ele>
  <time>2026-09-02T22:12:47Z</time>
  <course>275.0</course>
  <speed>0.0</speed>
  <fix>3d</fix>
</trkpt>
<trkpt lat="33.8103132" lon="-118.3938675">
  <ele>-15.466</ele>
  <time>2026-09-02T22:12:47Z</time>
  <course>186.26</course>
  <speed>0.022360679774997897</speed>
  <fix>3d</fix>
</trkpt>
<trkpt lat="33.810313" lon="-118.3938675">
  <ele>-15.1</ele>
  <time>2026-09-02T22:12:47Z</time>
  <course>275.0</course>
  <speed>0.0</speed>
  <fix>3d</fix>
</trkpt>
<trkpt lat="33.8103132" lon="-118.3938675">
  <ele>-15.468</ele>
  <time>2026-09-02T22:12:47Z</time>
  <course>186.26</course>
  <speed>0.022360679774997897</speed>
  <fix>3d</fix>
</trkpt>
<trkpt lat="33.810313" lon="-118.3938675">
  <ele>-15.1</ele>
  <time>2026-09-02T22:12:47Z</time>
  <course>275.0</course>
  <speed>0.0</speed>
  <fix>3d</fix>
</trkpt>
<trkpt lat="33.8103132" lon="-118.3938675">
  <ele>-15.468</ele>
  <time>2026-09-02T22:12:47Z</time>
  <course>186.26</course>
  <speed>0.022360679774997897</speed>
  <fix>3d</fix>
</trkpt>
<trkpt lat="33.810313" lon="-118.3938675">
  <ele>-15.1</ele>
  <time>2026-09-02T22:12:47Z</time>
  <course>275.0</course>
  <speed>0.0</speed>
  <fix>3d</fix>
</trkpt>
<trkpt lat="33.8103132" lon="-118.3938675">
  <ele>-15.468</ele>
  <time>2026-09-02T22:12:47Z</time>
  <course>186.27</course>
  <speed>0.022360679774997897</speed>
  <fix>3d</fix>
</trkpt>
<trkpt lat="33.810313" lon="-118.3938675">
  <ele>-15.1</ele>
  <time>2026-09-02T22:12:47Z</time>
  <course>275.0</course>
  <speed>0.0</speed>
  <fix>3d</fix>
</trkpt>
<trkpt lat="33.8103132" lon="-118.3938676">
  <ele>-15.468</ele>
  <time>2026-09-02T22:12:47Z</time>
  <course>186.27</course>
  <speed>0.022360679774997897</speed>
  <fix>3d</fix>
</trkpt>
<trkpt lat="33.810313" lon="-118.3938675">
  <ele>-15.09</ele>
  <time>2026-09-02T22:12:47Z</time>
  <course>275.0</course>
  <speed>0.0</speed>
  <fix>3d</fix>
</trkpt>
<trkpt lat="33.8103132" lon="-118.3938676">
  <ele>-15.466</ele>
  <time>2026-09-02T22:12:47Z</time>
  <course>186.27</course>
  <speed>0.022360679774997897</speed>
  <fix>3d</fix>
</trkpt>
<trkpt lat="33.810313" lon="-118.3938675">
  <ele>-15.09</ele>
  <time>2026-09-02T22:12:47Z</time>
  <course>275.0</course>
  <speed>0.0</speed>
  <fix>3d</fix>
</trkpt>
<trkpt lat="33.8103132" lon="-118.3938676">
  <ele>-15.465</ele>
  <time>2026-09-02T22:12:47Z</time>
  <course>186.27</course>
  <speed>0.022360679774997897</speed>
  <fix>3d</fix>
</trkpt>
<trkpt lat="33.810313" lon="-118.3938675">
  <ele>-15.09</ele>
  <time>2026-09-02T22:12:47Z</time>
  <course>275.0</course>
  <speed>0.0</speed>
  <fix>3d</fix>
</trkpt>
<trkpt lat="33.8103132" lon="-118.3938676">
  <ele>-15.463</ele>
  <time>2026-09-02T22:12:47Z</time>
  <course>186.27</course>
  <speed>0.022360679774997897</speed>
  <fix>3d</fix>
</trkpt>
<trkpt lat="33.810313" lon="-118.3938675">
  <ele>-15.09</ele>
  <time>2026-09-02T22:12:47Z</time>
  <course>275.0</course>
  <speed>0.0</speed>
  <fix>3d</fix>
</trkpt>
<trkpt lat="33.8103132" lon="-118.3938676">
  <ele>-15.461</ele>
  <time>2026-09-02T22:12:47Z</time>
  <course>186.28</course>
  <speed>0.022360679774997897</speed>
  <fix>3d</fix>
</trkpt>
<trkpt lat="33.810313" lon="-118.3938675">
  <ele>-15.09</ele>
  <time>2026-09-02T22:12:47Z</time>
  <course>275.0</course>
  <speed>0.0</speed>
  <fix>3d</fix>
</trkpt>
<trkpt lat="33.8103132" lon="-118.3938676">
  <ele>-15.459</ele>
  <time>2026-09-02T22:12:47Z</time>
  <course>186.28</course>
  <speed>0.022360679774997897</speed>
  <fix>3d</fix>
</trkpt>
<trkpt lat="33.810313" lon="-118.3938675">
  <ele>-15.09</ele>
  <time>2026-09-02T22:12:47Z</time>
  <course>275.0</course>
  <speed>0.0</speed>
  <fix>3d</fix>
</trkpt>
<trkpt lat="33.8103132" lon="-118.3938676">
  <ele>-15.459</ele>
  <time>2026-09-02T22:12:47Z</time>
  <course>186.28</course>
  <speed>0.022360679774997897</speed>
  <fix>3d</fix>
</trkpt>
<trkpt lat="33.810313" lon="-118.3938675">
  <ele>-15.09</ele>
  <time>2026-09-02T22:12:47Z</time>
  <course>275.0</course>
  <speed>0.0</speed>
  <fix>3d</fix>
</trkpt>
<trkpt lat="33.8103132" lon="-118.3938676">
  <ele>-15.459</ele>
  <time>2026-09-02T22:12:47Z</time>
  <course>186.28</course>
  <speed>0.022360679774997897</speed>
  <fix>3d</fix>
</trkpt>
<trkpt lat="33.810313" lon="-118.3938675">
  <ele>-15.09</ele>
  <time>2026-09-02T22:12:47Z</time>
  <course>275.0</course>
  <speed>0.0</speed>
  <fix>3d</fix>
</trkpt>
<trkpt lat="33.8103132" lon="-118.3938676">
  <ele>-15.459</ele>
  <time>2026-09-02T22:12:47Z</time>
  <course>186.28</course>
  <speed>0.022360679774997897</speed>
  <fix>3d</fix>
</trkpt>
<trkpt lat="33.810313" lon="-118.3938675">
  <ele>-15.09</ele>
  <time>2026-09-02T22:12:47Z</time>
  <course>275.0</course>
  <speed>0.0</speed>
  <fix>3d</fix>
</trkpt>
<trkpt lat="33.8103132" lon="-118.3938676">
  <ele>-15.459</ele>
  <time>2026-09-02T22:12:47Z</time>
  <course>186.28</course>
  <speed>0.022360679774997897</speed>
  <fix>3d</fix>
</trkpt>
<trkpt lat="33.810313" lon="-118.3938675">
  <ele>-15.09</ele>
  <time>2026-09-02T22:12:47Z</time>
  <course>275.0</course>
  <speed>0.0</speed>
  <fix>3d</fix>
</trkpt>
<trkpt lat="33.8103132" lon="-118.3938676">
  <ele>-15.46</ele>
  <time>2026-09-02T22:12:47Z</time>
  <course>186.29</course>
  <speed>0.022360679774997897</speed>
  <fix>3d</fix>
</trkpt>
<trkpt lat="33.810313" lon="-118.3938675">
  <ele>-15.09</ele>
  <time>2026-09-02T22:12:47Z</time>
  <course>275.0</course>
  <speed>0.0</speed>
  <fix>3d</fix>
</trkpt>
<trkpt lat="33.8103132" lon="-118.3938676">
  <ele>-15.46</ele>
  <time>2026-09-02T22:12:47Z</time>
  <course>186.29</course>
  <speed>0.022360679774997897</speed>
  <fix>3d</fix>
</trkpt>
<trkpt lat="33.810313" lon="-118.3938675">
  <ele>-15.09</ele>
  <time>2026-09-02T22:12:47Z</time>
  <course>275.0</course>
  <speed>0.0</speed>
  <fix>3d</fix>
</trkpt>
<trkpt lat="33.8103132" lon="-118.3938676">
  <ele>-15.461</ele>
  <time>2026-09-02T22:12:47Z</time>
  <course>186.29</course>
  <speed>0.022360679774997897</speed>
  <fix>3d</fix>
</trkpt>
<trkpt lat="33.810313" lon="-118.3938675">
  <ele>-15.09</ele>
  <time>2026-09-02T22:12:47Z</time>
  <course>275.0</course>
  <speed>0.0</speed>
  <fix>3d</fix>
</trkpt>
<trkpt lat="33.8103132" lon="-118.3938676">
  <ele>-15.463</ele>
  <time>2026-09-02T22:12:47Z</time>
  <course>186.29</course>
  <speed>0.022360679774997897</speed>
  <fix>3d</fix>
</trkpt>
<trkpt lat="33.810313" lon="-118.3938675">
  <ele>-15.09</ele>
  <time>2026-09-02T22:12:47Z</time>
  <course>275.0</course>
  <speed>0.0</speed>
  <fix>3d</fix>
</trkpt>
<trkpt lat="33.8103132" lon="-118.3938676">
  <ele>-15.465</ele>
  <time>2026-09-02T22:12:47Z</time>
  <course>186.29</course>
  <speed>0.022360679774997897</speed>
  <fix>3d</fix>
</trkpt>
<trkpt lat="33.810313" lon="-118.3938675">
  <ele>-15.1</ele>
  <time>2026-09-02T22:12:47Z</time>
  <course>275.0</course>
  <speed>0.0</speed>
  <fix>3d</fix>
</trkpt>
<trkpt lat="33.8103132" lon="-118.3938676">
  <ele>-15.467</ele>
  <time>2026-09-02T22:12:47Z</time>
  <course>186.29</course>
  <speed>0.022360679774997897</speed>
  <fix>3d</fix>
</trkpt>
<trkpt lat="33.810313" lon="-118.3938675">
  <ele>-15.1</ele>
  <time>2026-09-02T22:12:47Z</time>
  <course>275.0</course>
  <speed>0.0</speed>
  <fix>3d</fix>
</trkpt>
<trkpt lat="33.8103132" lon="-118.3938676">
  <ele>-15.467</ele>
  <time>2026-09-02T22:12:47Z</time>
  <course>186.3</course>
  <speed>0.022360679774997897</speed>
  <fix>3d</fix>
</trkpt>
<trkpt lat="33.810313" lon="-118.3938675">
  <ele>-15.1</ele>
  <time>2026-09-02T22:12:47Z</time>
  <course>275.0</course>
  <speed>0.0</speed>
  <fix>3d</fix>
</trkpt>
<trkpt lat="33.8103132" lon="-118.3938676">
  <ele>-15.467</ele>
  <time>2026-09-02T22:12:47Z</time>
  <course>186.3</course>
  <speed>0.022360679774997897</speed>
  <fix>3d</fix>
</trkpt>
<trkpt lat="33.810313" lon="-118.3938675">
  <ele>-15.1</ele>
  <time>2026-09-02T22:12:47Z</time>
  <course>275.0</course>
  <speed>0.0</speed>
  <fix>3d</fix>
</trkpt>
<trkpt lat="33.8103132" lon="-118.3938676">
  <ele>-15.467</ele>
  <time>2026-09-02T22:12:47Z</time>
  <course>186.3</course>
  <speed>0.022360679774997897</speed>
  <fix>3d</fix>
</trkpt>
<trkpt lat="33.810313" lon="-118.3938675">
  <ele>-15.1</ele>
  <time>2026-09-02T22:12:47Z</time>
  <course>275.0</course>
  <speed>0.0</speed>
  <fix>3d</fix>
</trkpt>
<trkpt lat="33.8103132" lon="-118.3938676">
  <ele>-15.467</ele>
  <time>2026-09-02T22:12:47Z</time>
  <course>186.3</course>
  <speed>0.022360679774997897</speed>
  <fix>3d</fix>
</trkpt>
<trkpt lat="33.810313" lon="-118.3938675">
  <ele>-15.1</ele>
  <time>2026-09-02T22:12:47Z</time>
  <course>275.0</course>
  <speed>0.0</speed>
  <fix>3d</fix>
</trkpt>
<trkpt lat="33.8103132" lon="-118.3938676">
  <ele>-15.466</ele>
  <time>2026-09-02T22:12:47Z</time>
  <course>186.3</course>
  <speed>0.022360679774997897</speed>
  <fix>3d</fix>
</trkpt>
<trkpt lat="33.810313" lon="-118.3938675">
  <ele>-15.1</ele>
  <time>2026-09-02T22:12:47Z</time>
  <course>275.0</course>
  <speed>0.0</speed>
  <fix>3d</fix>
</trkpt>
<trkpt lat="33.8103132" lon="-118.3938676">
  <ele>-15.465</ele>
  <time>2026-09-02T22:12:47Z</time>
  <course>186.3</course>
  <speed>0.022360679774997897</speed>
  <fix>3d</fix>
</trkpt>
<trkpt lat="33.810313" lon="-118.3938675">
  <ele>-15.1</ele>
  <time>2026-09-02T22:12:47Z</time>
  <course>275.0</course>
  <speed>0.0</speed>
  <fix>3d</fix>
</trkpt>
<trkpt lat="33.8103132" lon="-118.3938676">
  <ele>-15.464</ele>
  <time>2026-09-02T22:12:47Z</time>
  <course>186.3</course>
  <speed>0.022360679774997897</speed>
  <fix>3d</fix>
</trkpt>
<trkpt lat="33.810313" lon="-118.3938675">
  <ele>-15.1</ele>
  <time>2026-09-02T22:12:47Z</time>
  <course>275.0</course>
  <speed>0.0</speed>
  <fix>3d</fix>
</trkpt>
<trkpt lat="33.8103132" lon="-118.3938676">
  <ele>-15.464</ele>
  <time>2026-09-02T22:12:47Z</time>
  <course>186.31</course>
  <speed>0.022360679774997897</speed>
  <fix>3d</fix>
</trkpt>
<trkpt lat="33.810313" lon="-118.3938675">
  <ele>-15.1</ele>
  <time>2026-09-02T22:12:47Z</time>
  <course>275.0</course>
  <speed>0.0</speed>
  <fix>3d</fix>
</trkpt>
<trkpt lat="33.8103132" lon="-118.3938676">
  <ele>-15.462</ele>
  <time>2026-09-02T22:12:47Z</time>
  <course>186.31</course>
  <speed>0.022360679774997897</speed>
  <fix>3d</fix>
</trkpt>
<trkpt lat="33.810313" lon="-118.3938675">
  <ele>-15.1</ele>
  <time>2026-09-02T22:12:47Z</time>
  <course>275.0</course>
  <speed>0.0</speed>
  <fix>3d</fix>
</trkpt>
<trkpt lat="33.8103132" lon="-118.3938676">
  <ele>-15.462</ele>
  <time>2026-09-02T22:12:47Z</time>
  <course>186.31</course>
  <speed>0.022360679774997897</speed>
  <fix>3d</fix>
</trkpt>
<trkpt lat="33.810313" lon="-118.3938675">
  <ele>-15.1</ele>
  <time>2026-09-02T22:12:47Z</time>
  <course>275.0</course>
  <speed>0.0</speed>
  <fix>3d</fix>
</trkpt>
<trkpt lat="33.8103132" lon="-118.3938676">
  <ele>-15.462</ele>
  <time>2026-09-02T22:12:47Z</time>
  <course>186.31</course>
  <speed>0.022360679774997897</speed>
  <fix>3d</fix>
</trkpt>
<trkpt lat="33.810313" lon="-118.3938675">
  <ele>-15.1</ele>
  <time>2026-09-02T22:12:47Z</time>
  <course>275.0</course>
  <speed>0.0</speed>
  <fix>3d</fix>
</trkpt>
<trkpt lat="33.8103132" lon="-118.3938676">
  <ele>-15.462</ele>
  <time>2026-09-02T22:12:47Z</time>
  <course>186.31</course>
  <speed>0.022360679774997897</speed>
  <fix>3d</fix>
</trkpt>
<trkpt lat="33.810313" lon="-118.3938675">
  <ele>-15.1</ele>
  <time>2026-09-02T22:12:47Z</time>
  <course>275.0</course>
  <speed>0.0</speed>
  <fix>3d</fix>
</trkpt>
<trkpt lat="33.8103132" lon="-118.3938676">
  <ele>-15.461</ele>
  <time>2026-09-02T22:12:47Z</time>
  <course>186.31</course>
  <speed>0.022360679774997897</speed>
  <fix>3d</fix>
</trkpt>
<trkpt lat="33.810313" lon="-118.3938676">
  <ele>-15.1</ele>
  <time>2026-09-02T22:12:47Z</time>
  <course>275.0</course>
  <speed>0.0</speed>
  <fix>3d</fix>
</trkpt>
<trkpt lat="33.8103132" lon="-118.3938676">
  <ele>-15.461</ele>
  <time>2026-09-02T22:12:47Z</time>
  <course>186.31</course>
  <speed>0.022360679774997897</speed>
  <fix>3d</fix>
</trkpt>
<trkpt lat="33.810313" lon="-118.3938676">
  <ele>-15.1</ele>
  <time>2026-09-02T22:12:47Z</time>
  <course>275.0</course>
  <speed>0.0</speed>
  <fix>3d</fix>
</trkpt>
<trkpt lat="33.8103132" lon="-118.3938676">
  <ele>-15.462</ele>
  <time>2026-09-02T22:12:47Z</time>
  <course>186.31</course>
  <speed>0.022360679774997897</speed>
  <fix>3d</fix>
</trkpt>
<trkpt lat="33.810313" lon="-118.3938676">
  <ele>-15.1</ele>
  <time>2026-09-02T22:12:47Z</time>
  <course>275.0</course>
  <speed>0.0</speed>
  <fix>3d</fix>
</trkpt>
<trkpt lat="33.8103132" lon="-118.3938676">
  <ele>-15.463</ele>
  <time>2026-09-02T22:12:47Z</time>
  <course>186.31</course>
  <speed>0.022360679774997897</speed>
  <fix>3d</fix>
</trkpt>
<trkpt lat="33.810313" lon="-118.3938676">
  <ele>-15.1</ele>
  <time>2026-09-02T22:12:47Z</time>
  <course>275.0</course>
  <speed>0.0</speed>
  <fix>3d</fix>
</trkpt>
<trkpt lat="33.8103132" lon="-118.3938676">
  <ele>-15.464</ele>
  <time>2026-09-02T22:12:47Z</time>
  <course>186.31</course>
  <speed>0.022360679774997897</speed>
  <fix>3d</fix>
</trkpt>
<trkpt lat="33.810313" lon="-118.3938676">
  <ele>-15.1</ele>
  <time>2026-09-02T22:12:47Z</time>
  <course>275.0</course>
  <speed>0.0</speed>
  <fix>3d</fix>
</trkpt>
<trkpt lat="33.8103132" lon="-118.3938676">
  <ele>-15.465</ele>
  <time>2026-09-02T22:12:48Z</time>
  <course>186.33</course>
  <speed>0.022360679774997897</speed>
  <fix>3d</fix>
</trkpt>
<trkpt lat="33.810313" lon="-118.3938676">
  <ele>-15.1</ele>
  <time>2026-09-02T22:12:48Z</time>
  <course>275.0</course>
  <speed>0.0</speed>
  <fix>3d</fix>
</trkpt>
<trkpt lat="33.8103132" lon="-118.3938676">
  <ele>-15.466</ele>
  <time>2026-09-02T22:12:48Z</time>
  <course>186.53</course>
  <speed>0.01414213562373095</speed>
  <fix>3d</fix>
</trkpt>
<trkpt lat="33.810313" lon="-118.3938676">
  <ele>-15.11</ele>
  <time>2026-09-02T22:12:48Z</time>
  <course>238.57</course>
  <speed>0.0</speed>
  <fix>3d</fix>
</trkpt>
<trkpt lat="33.8103132" lon="-118.3938676">
  <ele>-15.466</ele>
  <time>2026-09-02T22:12:48Z</time>
  <course>187.07</course>
  <speed>0.01</speed>
  <fix>3d</fix>
</trkpt>
<trkpt lat="33.810313" lon="-118.3938676">
  <ele>-15.11</ele>
  <time>2026-09-02T22:12:48Z</time>
  <course>238.57</course>
  <speed>0.0</speed>
  <fix>3d</fix>
</trkpt>
<trkpt lat="33.8103132" lon="-118.3938676">
  <ele>-15.466</ele>
  <time>2026-09-02T22:12:48Z</time>
  <course>187.82</course>
  <speed>0.01</speed>
  <fix>3d</fix>
</trkpt>
<trkpt lat="33.810313" lon="-118.3938676">
  <ele>-15.11</ele>
  <time>2026-09-02T22:12:48Z</time>
  <course>175.33</course>
  <speed>0.01</speed>
  <fix>3d</fix>
</trkpt>
<trkpt lat="33.8103132" lon="-118.3938676">
  <ele>-15.466</ele>
  <time>2026-09-02T22:12:48Z</time>
  <course>188.48</course>
  <speed>0.04</speed>
  <fix>3d</fix>
</trkpt>
<trkpt lat="33.810313" lon="-118.3938676">
  <ele>-15.11</ele>
  <time>2026-09-02T22:12:48Z</time>
  <course>175.33</course>
  <speed>0.01</speed>
  <fix>3d</fix>
</trkpt>
<trkpt lat="33.8103131" lon="-118.3938676">
  <ele>-15.465</ele>
  <time>2026-09-02T22:12:48Z</time>
  <course>188.92</course>
  <speed>0.08</speed>
  <fix>3d</fix>
</trkpt>
<trkpt lat="33.810313" lon="-118.3938676">
  <ele>-15.1</ele>
  <time>2026-09-02T22:12:48Z</time>
  <course>172.9</course>
  <speed>0.05</speed>
  <fix>3d</fix>
</trkpt>
<trkpt lat="33.810313" lon="-118.3938676">
  <ele>-15.464</ele>
  <time>2026-09-02T22:12:48Z</time>
  <course>189.13</course>
  <speed>0.13</speed>
  <fix>3d</fix>
</trkpt>
<trkpt lat="33.810313" lon="-118.3938676">
  <ele>-15.1</ele>
  <time>2026-09-02T22:12:48Z</time>
  <course>172.9</course>
  <speed>0.05</speed>
  <fix>3d</fix>
</trkpt>
<trkpt lat="33.8103128" lon="-118.3938676">
  <ele>-15.463</ele>
  <time>2026-09-02T22:12:48Z</time>
  <course>189.15</course>
  <speed>0.18</speed>
  <fix>3d</fix>
</trkpt>
<trkpt lat="33.8103129" lon="-118.3938676">
  <ele>-15.1</ele>
  <time>2026-09-02T22:12:48Z</time>
  <course>174.28</course>
  <speed>0.13</speed>
  <fix>3d</fix>
</trkpt>
<trkpt lat="33.8103126" lon="-118.3938676">
  <ele>-15.462</ele>
  <time>2026-09-02T22:12:48Z</time>
  <course>189.09</course>
  <speed>0.23</speed>
  <fix>3d</fix>
</trkpt>
<trkpt lat="33.8103129" lon="-118.3938676">
  <ele>-15.1</ele>
  <time>2026-09-02T22:12:48Z</time>
  <course>174.28</course>
  <speed>0.13</speed>
  <fix>3d</fix>
</trkpt>
<trkpt lat="33.8103124" lon="-118.3938676">
  <ele>-15.462</ele>
  <time>2026-09-02T22:12:48Z</time>
  <course>189.02</course>
  <speed>0.28</speed>
  <fix>3d</fix>
</trkpt>
<trkpt lat="33.8103125" lon="-118.3938676">
  <ele>-15.1</ele>
  <time>2026-09-02T22:12:48Z</time>
  <course>175.47</course>
  <speed>0.22</speed>
  <fix>3d</fix>
</trkpt>
<trkpt lat="33.8103121" lon="-118.3938676">
  <ele>-15.462</ele>
  <time>2026-09-02T22:12:48Z</time>
  <course>188.96</course>
  <speed>0.31</speed>
  <fix>3d</fix>
</trkpt>
<trkpt lat="33.8103125" lon="-118.3938676">
  <ele>-15.1</ele>
  <time>2026-09-02T22:12:48Z</time>
  <course>175.47</course>
  <speed>0.22</speed>
  <fix>3d</fix>
</trkpt>
<trkpt lat="33.8103118" lon="-118.3938676">
  <ele>-15.461</ele>
  <time>2026-09-02T22:12:48Z</time>
  <course>188.92</course>
  <speed>0.34</speed>
  <fix>3d</fix>
</trkpt>
<trkpt lat="33.810312" lon="-118.3938675">
  <ele>-15.1</ele>
  <time>2026-09-02T22:12:48Z</time>
  <course>176.23</course>
  <speed>0.31</speed>
  <fix>3d</fix>
</trkpt>
<trkpt lat="33.8103114" lon="-118.3938676">
  <ele>-15.46</ele>
  <time>2026-09-02T22:12:48Z</time>
  <course>188.89</course>
  <speed>0.36</speed>
  <fix>3d</fix>
</trkpt>
<trkpt lat="33.810312" lon="-118.3938675">
  <ele>-15.1</ele>
  <time>2026-09-02T22:12:48Z</time>
  <course>176.23</course>
  <speed>0.31</speed>
  <fix>3d</fix>
</trkpt>
<trkpt lat="33.8103111" lon="-118.3938676">
  <ele>-15.46</ele>
  <time>2026-09-02T22:12:48Z</time>
  <course>188.88</course>
  <speed>0.37</speed>
  <fix>3d</fix>
</trkpt>
<trkpt lat="33.8103114" lon="-118.3938675">
  <ele>-15.1</ele>
  <time>2026-09-02T22:12:48Z</time>
  <course>176.82</course>
  <speed>0.37</speed>
  <fix>3d</fix>
</trkpt>
<trkpt lat="33.8103108" lon="-118.3938676">
  <ele>-15.46</ele>
  <time>2026-09-02T22:12:48Z</time>
  <course>188.85</course>
  <speed>0.37</speed>
  <fix>3d</fix>
</trkpt>
<trkpt lat="33.8103114" lon="-118.3938675">
  <ele>-15.1</ele>
  <time>2026-09-02T22:12:48Z</time>
  <course>176.82</course>
  <speed>0.37</speed>
  <fix>3d</fix>
</trkpt>
<trkpt lat="33.8103104" lon="-118.3938676">
  <ele>-15.46</ele>
  <time>2026-09-02T22:12:48Z</time>
  <course>188.84</course>
  <speed>0.38</speed>
  <fix>3d</fix>
</trkpt>
<trkpt lat="33.8103107" lon="-118.3938675">
  <ele>-15.1</ele>
  <time>2026-09-02T22:12:48Z</time>
  <course>177.39</course>
  <speed>0.4</speed>
  <fix>3d</fix>
</trkpt>
<trkpt lat="33.81031" lon="-118.3938676">
  <ele>-15.46</ele>
  <time>2026-09-02T22:12:48Z</time>
  <course>188.81</course>
  <speed>0.38</speed>
  <fix>3d</fix>
</trkpt>
<trkpt lat="33.8103107" lon="-118.3938675">
  <ele>-15.1</ele>
  <time>2026-09-02T22:12:48Z</time>
  <course>177.39</course>
  <speed>0.4</speed>
  <fix>3d</fix>
</trkpt>
<trkpt lat="33.8103097" lon="-118.3938676">
  <ele>-15.459</ele>
  <time>2026-09-02T22:12:48Z</time>
  <course>188.79</course>
  <speed>0.38</speed>
  <fix>3d</fix>
</trkpt>
<trkpt lat="33.81031" lon="-118.3938674">
  <ele>-15.09</ele>
  <time>2026-09-02T22:12:48Z</time>
  <course>177.94</course>
  <speed>0.4</speed>
  <fix>3d</fix>
</trkpt>
<trkpt lat="33.8103093" lon="-118.3938676">
  <ele>-15.457</ele>
  <time>2026-09-02T22:12:48Z</time>
  <course>188.77</course>
  <speed>0.38013155617496425</speed>
  <fix>3d</fix>
</trkpt>
<trkpt lat="33.81031" lon="-118.3938674">
  <ele>-15.09</ele>
  <time>2026-09-02T22:12:48Z</time>
  <course>177.94</course>
  <speed>0.4</speed>
  <fix>3d</fix>
</trkpt>
<trkpt lat="33.810309" lon="-118.3938676">
  <ele>-15.456</ele>
  <time>2026-09-02T22:12:48Z</time>
  <course>188.75</course>
  <speed>0.38013155617496425</speed>
  <fix>3d</fix>
</trkpt>
<trkpt lat="33.8103092" lon="-118.3938674">
  <ele>-15.09</ele>
  <time>2026-09-02T22:12:48Z</time>
  <course>178.46</course>
  <speed>0.41</speed>
  <fix>3d</fix>
</trkpt>
<trkpt lat="33.8103086" lon="-118.3938676">
  <ele>-15.455</ele>
  <time>2026-09-02T22:12:48Z</time>
  <course>188.72</course>
  <speed>0.38013155617496425</speed>
  <fix>3d</fix>
</trkpt>
<trkpt lat="33.8103092" lon="-118.3938674">
  <ele>-15.09</ele>
  <time>2026-09-02T22:12:48Z</time>
  <course>178.46</course>
  <speed>0.41</speed>
  <fix>3d</fix>
</trkpt>
<trkpt lat="33.8103082" lon="-118.3938676">
  <ele>-15.454</ele>
  <time>2026-09-02T22:12:48Z</time>
  <course>188.71</course>
  <speed>0.38013155617496425</speed>
  <fix>3d</fix>
</trkpt>
<trkpt lat="33.8103085" lon="-118.3938674">
  <ele>-15.09</ele>
  <time>2026-09-02T22:12:48Z</time>
  <course>178.95</course>
  <speed>0.41</speed>
  <fix>3d</fix>
</trkpt>
<trkpt lat="33.8103079" lon="-118.3938676">
  <ele>-15.453</ele>
  <time>2026-09-02T22:12:48Z</time>
  <course>188.69</course>
  <speed>0.38013155617496425</speed>
  <fix>3d</fix>
</trkpt>
<trkpt lat="33.8103085" lon="-118.3938674">
  <ele>-15.09</ele>
  <time>2026-09-02T22:12:48Z</time>
  <course>178.95</course>
  <speed>0.41</speed>
  <fix>3d</fix>
</trkpt>
<trkpt lat="33.8103075" lon="-118.3938676">
  <ele>-15.452</ele>
  <time>2026-09-02T22:12:48Z</time>
  <course>188.67</course>
  <speed>0.3901281840626232</speed>
  <fix>3d</fix>
</trkpt>
<trkpt lat="33.8103078" lon="-118.3938674">
  <ele>-15.09</ele>
  <time>2026-09-02T22:12:48Z</time>
  <course>179.33</course>
  <speed>0.41</speed>
  <fix>3d</fix>
</trkpt>
<trkpt lat="33.8103071" lon="-118.3938676">
  <ele>-15.45</ele>
  <time>2026-09-02T22:12:48Z</time>
  <course>188.65</course>
  <speed>0.38013155617496425</speed>
  <fix>3d</fix>
</trkpt>
<trkpt lat="33.8103078" lon="-118.3938674">
  <ele>-15.09</ele>
  <time>2026-09-02T22:12:48Z</time>
  <course>179.33</course>
  <speed>0.41</speed>
  <fix>3d</fix>
</trkpt>
<trkpt lat="33.8103067" lon="-118.3938676">
  <ele>-15.449</ele>
  <time>2026-09-02T22:12:48Z</time>
  <course>188.64</course>
  <speed>0.38013155617496425</speed>
  <fix>3d</fix>
</trkpt>
<trkpt lat="33.810307" lon="-118.3938674">
  <ele>-15.08</ele>
  <time>2026-09-02T22:12:48Z</time>
  <course>179.58</course>
  <speed>0.41</speed>
  <fix>3d</fix>
</trkpt>
<trkpt lat="33.8103064" lon="-118.3938676">
  <ele>-15.448</ele>
  <time>2026-09-02T22:12:48Z</time>
  <course>188.62</course>
  <speed>0.38013155617496425</speed>
  <fix>3d</fix>
</trkpt>
<trkpt lat="33.810307" lon="-118.3938674">
  <ele>-15.08</ele>
  <time>2026-09-02T22:12:48Z</time>
  <course>179.58</course>
  <speed>0.41</speed>
  <fix>3d</fix>
</trkpt>
<trkpt lat="33.810306" lon="-118.3938676">
  <ele>-15.447</ele>
  <time>2026-09-02T22:12:48Z</time>
  <course>188.6</course>
  <speed>0.38013155617496425</speed>
  <fix>3d</fix>
</trkpt>
<trkpt lat="33.8103062" lon="-118.3938674">
  <ele>-15.08</ele>
  <time>2026-09-02T22:12:48Z</time>
  <course>179.74</course>
  <speed>0.41</speed>
  <fix>3d</fix>
</trkpt>
<trkpt lat="33.8103056" lon="-118.3938675">
  <ele>-15.446</ele>
  <time>2026-09-02T22:12:48Z</time>
  <course>188.58</course>
  <speed>0.38013155617496425</speed>
  <fix>3d</fix>
</trkpt>
<trkpt lat="33.8103062" lon="-118.3938674">
  <ele>-15.08</ele>
  <time>2026-09-02T22:12:48Z</time>
  <course>179.74</course>
  <speed>0.41</speed>
  <fix>3d</fix>
</trkpt>
<trkpt lat="33.8103053" lon="-118.3938675">
  <ele>-15.446</ele>
  <time>2026-09-02T22:12:48Z</time>
  <course>188.56</course>
  <speed>0.38013155617496425</speed>
  <fix>3d</fix>
</trkpt>
<trkpt lat="33.8103055" lon="-118.3938674">
  <ele>-15.08</ele>
  <time>2026-09-02T22:12:48Z</time>
  <course>179.85</course>
  <speed>0.41</speed>
  <fix>3d</fix>
</trkpt>
<trkpt lat="33.8103049" lon="-118.3938675">
  <ele>-15.445</ele>
  <time>2026-09-02T22:12:48Z</time>
  <course>188.54</course>
  <speed>0.38013155617496425</speed>
  <fix>3d</fix>
</trkpt>
<trkpt lat="33.8103055" lon="-118.3938674">
  <ele>-15.08</ele>
  <time>2026-09-02T22:12:48Z</time>
  <course>179.85</course>
  <speed>0.41</speed>
  <fix>3d</fix>
</trkpt>
<trkpt lat="33.8103045" lon="-118.3938675">
  <ele>-15.445</ele>
  <time>2026-09-02T22:12:48Z</time>
  <course>188.53</course>
  <speed>0.38013155617496425</speed>
  <fix>3d</fix>
</trkpt>
<trkpt lat="33.8103047" lon="-118.3938674">
  <ele>-15.08</ele>
  <time>2026-09-02T22:12:48Z</time>
  <course>179.91</course>
  <speed>0.41</speed>
  <fix>3d</fix>
</trkpt>
<trkpt lat="33.8103042" lon="-118.3938675">
  <ele>-15.444</ele>
  <time>2026-09-02T22:12:48Z</time>
  <course>188.51</course>
  <speed>0.37013511046643494</speed>
  <fix>3d</fix>
</trkpt>
<trkpt lat="33.8103047" lon="-118.3938674">
  <ele>-15.08</ele>
  <time>2026-09-02T22:12:48Z</time>
  <course>179.91</course>
  <speed>0.41</speed>
  <fix>3d</fix>
</trkpt>
<trkpt lat="33.8103038" lon="-118.3938675">
  <ele>-15.445</ele>
  <time>2026-09-02T22:12:48Z</time>
  <course>188.49</course>
  <speed>0.37013511046643494</speed>
  <fix>3d</fix>
</trkpt>
<trkpt lat="33.810304" lon="-118.3938674">
  <ele>-15.08</ele>
  <time>2026-09-02T22:12:48Z</time>
  <course>179.95</course>
  <speed>0.4</speed>
  <fix>3d</fix>
</trkpt>
<trkpt lat="33.8103034" lon="-118.3938675">
  <ele>-15.446</ele>
  <time>2026-09-02T22:12:48Z</time>
  <course>188.48</course>
  <speed>0.37013511046643494</speed>
  <fix>3d</fix>
</trkpt>
<trkpt lat="33.810304" lon="-118.3938674">
  <ele>-15.08</ele>
  <time>2026-09-02T22:12:48Z</time>
  <course>179.95</course>
  <speed>0.4</speed>
  <fix>3d</fix>
</trkpt>
<trkpt lat="33.8103031" lon="-118.3938675">
  <ele>-15.448</ele>
  <time>2026-09-02T22:12:48Z</time>
  <course>188.46</course>
  <speed>0.37013511046643494</speed>
  <fix>3d</fix>
</trkpt>
<trkpt lat="33.8103033" lon="-118.3938674">
  <ele>-15.09</ele>
  <time>2026-09-02T22:12:48Z</time>
  <course>180.01</course>
  <speed>0.4</speed>
  <fix>3d</fix>
</trkpt>
<trkpt lat="33.8103027" lon="-118.3938675">
  <ele>-15.448</ele>
  <time>2026-09-02T22:12:48Z</time>
  <course>188.45</course>
  <speed>0.37013511046643494</speed>
  <fix>3d</fix>
</trkpt>
<trkpt lat="33.8103033" lon="-118.3938674">
  <ele>-15.09</ele>
  <time>2026-09-02T22:12:48Z</time>
  <course>180.01</course>
  <speed>0.4</speed>
  <fix>3d</fix>
</trkpt>
<trkpt lat="33.8103024" lon="-118.3938675">
  <ele>-15.448</ele>
  <time>2026-09-02T22:12:48Z</time>
  <course>188.43</course>
  <speed>0.37013511046643494</speed>
  <fix>3d</fix>
</trkpt>
<trkpt lat="33.8103025" lon="-118.3938674">
  <ele>-15.09</ele>
  <time>2026-09-02T22:12:48Z</time>
  <course>180.05</course>
  <speed>0.4</speed>
  <fix>3d</fix>
</trkpt>
<trkpt lat="33.810302" lon="-118.3938675">
  <ele>-15.448</ele>
  <time>2026-09-02T22:12:48Z</time>
  <course>188.41</course>
  <speed>0.36013886210738216</speed>
  <fix>3d</fix>
</trkpt>
<trkpt lat="33.8103025" lon="-118.3938674">
  <ele>-15.09</ele>
  <time>2026-09-02T22:12:48Z</time>
  <course>180.05</course>
  <speed>0.4</speed>
  <fix>3d</fix>
</trkpt>
<trkpt lat="33.8103016" lon="-118.3938675">
  <ele>-15.449</ele>
  <time>2026-09-02T22:12:48Z</time>
  <course>188.4</course>
  <speed>0.36013886210738216</speed>
  <fix>3d</fix>
</trkpt>
<trkpt lat="33.8103018" lon="-118.3938674">
  <ele>-15.09</ele>
  <time>2026-09-02T22:12:48Z</time>
  <course>180.11</course>
  <speed>0.39</speed>
  <fix>3d</fix>
</trkpt>
<trkpt lat="33.8103013" lon="-118.3938675">
  <ele>-15.448</ele>
  <time>2026-09-02T22:12:48Z</time>
  <course>188.38</course>
  <speed>0.36013886210738216</speed>
  <fix>3d</fix>
</trkpt>
<trkpt lat="33.8103018" lon="-118.3938674">
  <ele>-15.09</ele>
  <time>2026-09-02T22:12:48Z</time>
  <course>180.11</course>
  <speed>0.39</speed>
  <fix>3d</fix>
</trkpt>
<trkpt lat="33.8103009" lon="-118.3938675">
  <ele>-15.446</ele>
  <time>2026-09-02T22:12:48Z</time>
  <course>188.37</course>
  <speed>0.36013886210738216</speed>
  <fix>3d</fix>
</trkpt>
<trkpt lat="33.8103011" lon="-118.3938674">
  <ele>-15.08</ele>
  <time>2026-09-02T22:12:48Z</time>
  <course>180.2</course>
  <speed>0.39</speed>
  <fix>3d</fix>
</trkpt>
<trkpt lat="33.8103006" lon="-118.3938675">
  <ele>-15.444</ele>
  <time>2026-09-02T22:12:48Z</time>
  <course>188.35</course>
  <speed>0.36013886210738216</speed>
  <fix>3d</fix>
</trkpt>
<trkpt lat="33.8103011" lon="-118.3938674">
  <ele>-15.08</ele>
  <time>2026-09-02T22:12:48Z</time>
  <course>180.2</course>
  <speed>0.39</speed>
  <fix>3d</fix>
</trkpt>
<trkpt lat="33.8103002" lon="-118.3938675">
  <ele>-15.443</ele>
  <time>2026-09-02T22:12:48Z</time>
  <course>188.33</course>
  <speed>0.36013886210738216</speed>
  <fix>3d</fix>
</trkpt>
<trkpt lat="33.8103004" lon="-118.3938674">
  <ele>-15.08</ele>
  <time>2026-09-02T22:12:48Z</time>
  <course>180.28</course>
  <speed>0.39</speed>
  <fix>3d</fix>
</trkpt>
<trkpt lat="33.8102999" lon="-118.3938675">
  <ele>-15.442</ele>
  <time>2026-09-02T22:12:48Z</time>
  <course>188.32</course>
  <speed>0.36013886210738216</speed>
  <fix>3d</fix>
</trkpt>
<trkpt lat="33.8103004" lon="-118.3938674">
  <ele>-15.08</ele>
  <time>2026-09-02T22:12:48Z</time>
  <course>180.28</course>
  <speed>0.39</speed>
  <fix>3d</fix>
</trkpt>
<trkpt lat="33.8102995" lon="-118.3938675">
  <ele>-15.441</ele>
  <time>2026-09-02T22:12:48Z</time>
  <course>188.31</course>
  <speed>0.36013886210738216</speed>
  <fix>3d</fix>
</trkpt>
<trkpt lat="33.8102997" lon="-118.3938674">
  <ele>-15.08</ele>
  <time>2026-09-02T22:12:48Z</time>
  <course>180.35</course>
  <speed>0.39</speed>
  <fix>3d</fix>
</trkpt>
<trkpt lat="33.8102992" lon="-118.3938675">
  <ele>-15.44</ele>
  <time>2026-09-02T22:12:48Z</time>
  <course>188.29</course>
  <speed>0.36013886210738216</speed>
  <fix>3d</fix>
</trkpt>
<trkpt lat="33.8102997" lon="-118.3938674">
  <ele>-15.08</ele>
  <time>2026-09-02T22:12:48Z</time>
  <course>180.35</course>
  <speed>0.39</speed>
  <fix>3d</fix>
</trkpt>
<trkpt lat="33.8102988" lon="-118.3938675">
  <ele>-15.441</ele>
  <time>2026-09-02T22:12:48Z</time>
  <course>188.27</course>
  <speed>0.36013886210738216</speed>
  <fix>3d</fix>
</trkpt>
<trkpt lat="33.810299" lon="-118.3938674">
  <ele>-15.07</ele>
  <time>2026-09-02T22:12:48Z</time>
  <course>180.42</course>
  <speed>0.39</speed>
  <fix>3d</fix>
</trkpt>
<trkpt lat="33.8102984" lon="-118.3938675">
  <ele>-15.441</ele>
  <time>2026-09-02T22:12:48Z</time>
  <course>188.26</course>
  <speed>0.36013886210738216</speed>
  <fix>3d</fix>
</trkpt>
<trkpt lat="33.810299" lon="-118.3938674">
  <ele>-15.07</ele>
  <time>2026-09-02T22:12:48Z</time>
  <course>180.42</course>
  <speed>0.39</speed>
  <fix>3d</fix>
</trkpt>
<trkpt lat="33.8102981" lon="-118.3938675">
  <ele>-15.442</ele>
  <time>2026-09-02T22:12:48Z</time>
  <course>188.24</course>
  <speed>0.36013886210738216</speed>
  <fix>3d</fix>
</trkpt>
<trkpt lat="33.8102983" lon="-118.3938674">
  <ele>-15.07</ele>
  <time>2026-09-02T22:12:48Z</time>
  <course>180.49</course>
  <speed>0.38</speed>
  <fix>3d</fix>
</trkpt>
<trkpt lat="33.8102977" lon="-118.3938675">
  <ele>-15.442</ele>
  <time>2026-09-02T22:12:48Z</time>
  <course>188.23</course>
  <speed>0.36013886210738216</speed>
  <fix>3d</fix>
</trkpt>
<trkpt lat="33.8102983" lon="-118.3938674">
  <ele>-15.07</ele>
  <time>2026-09-02T22:12:48Z</time>
  <course>180.49</course>
  <speed>0.38</speed>
  <fix>3d</fix>
</trkpt>
<trkpt lat="33.8102974" lon="-118.3938675">
  <ele>-15.442</ele>
  <time>2026-09-02T22:12:48Z</time>
  <course>188.21</course>
  <speed>0.36013886210738216</speed>
  <fix>3d</fix>
</trkpt>
<trkpt lat="33.8102976" lon="-118.3938674">
  <ele>-15.07</ele>
  <time>2026-09-02T22:12:48Z</time>
  <course>180.52</course>
  <speed>0.39</speed>
  <fix>3d</fix>
</trkpt>
<trkpt lat="33.810297" lon="-118.3938675">
  <ele>-15.441</ele>
  <time>2026-09-02T22:12:48Z</time>
  <course>188.2</course>
  <speed>0.36013886210738216</speed>
  <fix>3d</fix>
</trkpt>
<trkpt lat="33.8102976" lon="-118.3938674">
  <ele>-15.07</ele>
  <time>2026-09-02T22:12:48Z</time>
  <course>180.52</course>
  <speed>0.39</speed>
  <fix>3d</fix>
</trkpt>
<trkpt lat="33.8102967" lon="-118.3938675">
  <ele>-15.439</ele>
  <time>2026-09-02T22:12:48Z</time>
  <course>188.18</course>
  <speed>0.36013886210738216</speed>
  <fix>3d</fix>
</trkpt>
<trkpt lat="33.8102969" lon="-118.3938674">
  <ele>-15.07</ele>
  <time>2026-09-02T22:12:48Z</time>
  <course>180.54</course>
  <speed>0.39</speed>
  <fix>3d</fix>
</trkpt>
<trkpt lat="33.8102963" lon="-118.3938675">
  <ele>-15.436</ele>
  <time>2026-09-02T22:12:48Z</time>
  <course>188.17</course>
  <speed>0.36013886210738216</speed>
  <fix>3d</fix>
</trkpt>
<trkpt lat="33.8102969" lon="-118.3938674">
  <ele>-15.07</ele>
  <time>2026-09-02T22:12:48Z</time>
  <course>180.54</course>
  <speed>0.39</speed>
  <fix>3d</fix>
</trkpt>
<trkpt lat="33.810296" lon="-118.3938675">
  <ele>-15.434</ele>
  <time>2026-09-02T22:12:48Z</time>
  <course>188.15</course>
  <speed>0.36013886210738216</speed>
  <fix>3d</fix>
</trkpt>
<trkpt lat="33.8102962" lon="-118.3938674">
  <ele>-15.06</ele>
  <time>2026-09-02T22:12:48Z</time>
  <course>180.61</course>
  <speed>0.39</speed>
  <fix>3d</fix>
</trkpt>
<trkpt lat="33.8102956" lon="-118.3938675">
  <ele>-15.433</ele>
  <time>2026-09-02T22:12:48Z</time>
  <course>188.14</course>
  <speed>0.36013886210738216</speed>
  <fix>3d</fix>
</trkpt>
<trkpt lat="33.8102962" lon="-118.3938674">
  <ele>-15.06</ele>
  <time>2026-09-02T22:12:48Z</time>
  <course>180.61</course>
  <speed>0.39</speed>
  <fix>3d</fix>
</trkpt>
<trkpt lat="33.8102953" lon="-118.3938675">
  <ele>-15.432</ele>
  <time>2026-09-02T22:12:48Z</time>
  <course>188.12</course>
  <speed>0.37013511046643494</speed>
  <fix>3d</fix>
</trkpt>
<trkpt lat="33.8102955" lon="-118.3938674">
  <ele>-15.06</ele>
  <time>2026-09-02T22:12:48Z</time>
  <course>180.68</course>
  <speed>0.39</speed>
  <fix>3d</fix>
</trkpt>
<trkpt lat="33.8102949" lon="-118.3938675">
  <ele>-15.432</ele>
  <time>2026-09-02T22:12:48Z</time>
  <course>188.11</course>
  <speed>0.36013886210738216</speed>
  <fix>3d</fix>
</trkpt>
<trkpt lat="33.8102955" lon="-118.3938674">
  <ele>-15.06</ele>
  <time>2026-09-02T22:12:48Z</time>
  <course>180.68</course>
  <speed>0.39</speed>
  <fix>3d</fix>
</trkpt>
<trkpt lat="33.8102946" lon="-118.3938675">
  <ele>-15.432</ele>
  <time>2026-09-02T22:12:48Z</time>
  <course>188.1</course>
  <speed>0.37013511046643494</speed>
  <fix>3d</fix>
</trkpt>
<trkpt lat="33.8102948" lon="-118.3938674">
  <ele>-15.06</ele>
  <time>2026-09-02T22:12:48Z</time>
  <course>180.73</course>
  <speed>0.39</speed>
  <fix>3d</fix>
</trkpt>
<trkpt lat="33.8102942" lon="-118.3938675">
  <ele>-15.431</ele>
  <time>2026-09-02T22:12:48Z</time>
  <course>188.08</course>
  <speed>0.37013511046643494</speed>
  <fix>3d</fix>
</trkpt>
<trkpt lat="33.8102948" lon="-118.3938674">
  <ele>-15.06</ele>
  <time>2026-09-02T22:12:48Z</time>
  <course>180.73</course>
  <speed>0.39</speed>
  <fix>3d</fix>
</trkpt>
<trkpt lat="33.8102939" lon="-118.3938675">
  <ele>-15.43</ele>
  <time>2026-09-02T22:12:48Z</time>
  <course>188.07</course>
  <speed>0.37013511046643494</speed>
  <fix>3d</fix>
</trkpt>
<trkpt lat="33.810294" lon="-118.3938674">
  <ele>-15.06</ele>
  <time>2026-09-02T22:12:48Z</time>
  <course>180.81</course>
  <speed>0.39</speed>
  <fix>3d</fix>
</trkpt>
<trkpt lat="33.8102935" lon="-118.3938675">
  <ele>-15.429</ele>
  <time>2026-09-02T22:12:48Z</time>
  <course>188.06</course>
  <speed>0.37013511046643494</speed>
  <fix>3d</fix>
</trkpt>
<trkpt lat="33.810294" lon="-118.3938674">
  <ele>-15.06</ele>
  <time>2026-09-02T22:12:48Z</time>
  <course>180.81</course>
  <speed>0.39</speed>
  <fix>3d</fix>
</trkpt>
<trkpt lat="33.8102932" lon="-118.3938675">
  <ele>-15.428</ele>
  <time>2026-09-02T22:12:48Z</time>
  <course>188.04</course>
  <speed>0.37013511046643494</speed>
  <fix>3d</fix>
</trkpt>
<trkpt lat="33.8102933" lon="-118.3938674">
  <ele>-15.06</ele>
  <time>2026-09-02T22:12:48Z</time>
  <course>180.89</course>
  <speed>0.39</speed>
  <fix>3d</fix>
</trkpt>
<trkpt lat="33.8102928" lon="-118.3938675">
  <ele>-15.427</ele>
  <time>2026-09-02T22:12:48Z</time>
  <course>188.03</course>
  <speed>0.37013511046643494</speed>
  <fix>3d</fix>
</trkpt>
<trkpt lat="33.8102933" lon="-118.3938674">
  <ele>-15.06</ele>
  <time>2026-09-02T22:12:48Z</time>
  <course>180.89</course>
  <speed>0.39</speed>
  <fix>3d</fix>
</trkpt>
<trkpt lat="33.8102924" lon="-118.3938675">
  <ele>-15.427</ele>
  <time>2026-09-02T22:12:48Z</time>
  <course>188.01</course>
  <speed>0.37013511046643494</speed>
  <fix>3d</fix>
</trkpt>
<trkpt lat="33.8102926" lon="-118.3938674">
  <ele>-15.06</ele>
  <time>2026-09-02T22:12:48Z</time>
  <course>180.95</course>
  <speed>0.39</speed>
  <fix>3d</fix>
</trkpt>
<trkpt lat="33.8102921" lon="-118.3938675">
  <ele>-15.427</ele>
  <time>2026-09-02T22:12:48Z</time>
  <course>188.0</course>
  <speed>0.37013511046643494</speed>
  <fix>3d</fix>
</trkpt>
<trkpt lat="33.8102926" lon="-118.3938674">
  <ele>-15.06</ele>
  <time>2026-09-02T22:12:48Z</time>
  <course>180.95</course>
  <speed>0.39</speed>
  <fix>3d</fix>
</trkpt>
<trkpt lat="33.8102917" lon="-118.3938675">
  <ele>-15.427</ele>
  <time>2026-09-02T22:12:48Z</time>
  <course>187.99</course>
  <speed>0.37013511046643494</speed>
  <fix>3d</fix>
</trkpt>
<trkpt lat="33.8102919" lon="-118.3938674">
  <ele>-15.06</ele>
  <time>2026-09-02T22:12:48Z</time>
  <course>181.02</course>
  <speed>0.39</speed>
  <fix>3d</fix>
</trkpt>
<trkpt lat="33.8102914" lon="-118.3938675">
  <ele>-15.427</ele>
  <time>2026-09-02T22:12:48Z</time>
  <course>187.98</course>
  <speed>0.37013511046643494</speed>
  <fix>3d</fix>
</trkpt>
<trkpt lat="33.8102919" lon="-118.3938674">
  <ele>-15.06</ele>
  <time>2026-09-02T22:12:48Z</time>
  <course>181.02</course>
  <speed>0.39</speed>
  <fix>3d</fix>
</trkpt>
<trkpt lat="33.810291" lon="-118.3938675">
  <ele>-15.427</ele>
  <time>2026-09-02T22:12:48Z</time>
  <course>187.96</course>
  <speed>0.37013511046643494</speed>
  <fix>3d</fix>
</trkpt>
<trkpt lat="33.8102912" lon="-118.3938674">
  <ele>-15.06</ele>
  <time>2026-09-02T22:12:48Z</time>
  <course>181.09</course>
  <speed>0.39</speed>
  <fix>3d</fix>
</trkpt>
<trkpt lat="33.8102906" lon="-118.3938675">
  <ele>-15.427</ele>
  <time>2026-09-02T22:12:48Z</time>
  <course>187.95</course>
  <speed>0.37013511046643494</speed>
  <fix>3d</fix>
</trkpt>
<trkpt lat="33.8102912" lon="-118.3938674">
  <ele>-15.06</ele>
  <time>2026-09-02T22:12:48Z</time>
  <course>181.09</course>
  <speed>0.39</speed>
  <fix>3d</fix>
</trkpt>
<trkpt lat="33.8102903" lon="-118.3938675">
  <ele>-15.426</ele>
  <time>2026-09-02T22:12:48Z</time>
  <course>187.94</course>
  <speed>0.37013511046643494</speed>
  <fix>3d</fix>
</trkpt>
<trkpt lat="33.8102905" lon="-118.3938674">
  <ele>-15.06</ele>
  <time>2026-09-02T22:12:48Z</time>
  <course>181.16</course>
  <speed>0.39</speed>
  <fix>3d</fix>
</trkpt>
<trkpt lat="33.8102899" lon="-118.3938675">
  <ele>-15.426</ele>
  <time>2026-09-02T22:12:48Z</time>
  <course>187.92</course>
  <speed>0.37013511046643494</speed>
  <fix>3d</fix>
</trkpt>
<trkpt lat="33.8102905" lon="-118.3938674">
  <ele>-15.06</ele>
  <time>2026-09-02T22:12:48Z</time>
  <course>181.16</course>
  <speed>0.39</speed>
  <fix>3d</fix>
</trkpt>
<trkpt lat="33.8102896" lon="-118.3938675">
  <ele>-15.426</ele>
  <time>2026-09-02T22:12:48Z</time>
  <course>187.91</course>
  <speed>0.37013511046643494</speed>
  <fix>3d</fix>
</trkpt>
<trkpt lat="33.8102898" lon="-118.3938674">
  <ele>-15.06</ele>
  <time>2026-09-02T22:12:48Z</time>
  <course>181.19</course>
  <speed>0.39</speed>
  <fix>3d</fix>
</trkpt>
<trkpt lat="33.8102892" lon="-118.3938675">
  <ele>-15.425</ele>
  <time>2026-09-02T22:12:48Z</time>
  <course>187.9</course>
  <speed>0.37013511046643494</speed>
  <fix>3d</fix>
</trkpt>
<trkpt lat="33.8102898" lon="-118.3938674">
  <ele>-15.06</ele>
  <time>2026-09-02T22:12:48Z</time>
  <course>181.19</course>
  <speed>0.39</speed>
  <fix>3d</fix>
</trkpt>
<trkpt lat="33.8102889" lon="-118.3938675">
  <ele>-15.423</ele>
  <time>2026-09-02T22:12:48Z</time>
  <course>187.89</course>
  <speed>0.37013511046643494</speed>
  <fix>3d</fix>
</trkpt>
<trkpt lat="33.8102891" lon="-118.3938674">
  <ele>-15.06</ele>
  <time>2026-09-02T22:12:48Z</time>
  <course>181.23</course>
  <speed>0.4</speed>
  <fix>3d</fix>
</trkpt>
<trkpt lat="33.8102885" lon="-118.3938675">
  <ele>-15.422</ele>
  <time>2026-09-02T22:12:48Z</time>
  <course>187.87</course>
  <speed>0.37013511046643494</speed>
  <fix>3d</fix>
</trkpt>
<trkpt lat="33.8102891" lon="-118.3938674">
  <ele>-15.06</ele>
  <time>2026-09-02T22:12:48Z</time>
  <course>181.23</course>
  <speed>0.4</speed>
  <fix>3d</fix>
</trkpt>
<trkpt lat="33.8102881" lon="-118.3938675">
  <ele>-15.419</ele>
  <time>2026-09-02T22:12:48Z</time>
  <course>187.86</course>
  <speed>0.38013155617496425</speed>
  <fix>3d</fix>
</trkpt>
<trkpt lat="33.8102884" lon="-118.3938675">
  <ele>-15.05</ele>
  <time>2026-09-02T22:12:48Z</time>
  <course>181.26</course>
  <speed>0.4</speed>
  <fix>3d</fix>
</trkpt>
<trkpt lat="33.8102878" lon="-118.3938675">
  <ele>-15.418</ele>
  <time>2026-09-02T22:12:48Z</time>
  <course>187.85</course>
  <speed>0.38013155617496425</speed>
  <fix>3d</fix>
</trkpt>
<trkpt lat="33.8102884" lon="-118.3938675">
  <ele>-15.05</ele>
  <time>2026-09-02T22:12:48Z</time>
  <course>181.26</course>
  <speed>0.4</speed>
  <fix>3d</fix>
</trkpt>
<trkpt lat="33.8102874" lon="-118.3938675">
  <ele>-15.416</ele>
  <time>2026-09-02T22:12:48Z</time>
  <course>187.83</course>
  <speed>0.38013155617496425</speed>
  <fix>3d</fix>
</trkpt>
<trkpt lat="33.8102876" lon="-118.3938675">
  <ele>-15.05</ele>
  <time>2026-09-02T22:12:48Z</time>
  <course>181.21</course>
  <speed>0.4</speed>
  <fix>3d</fix>
</trkpt>
<trkpt lat="33.810287" lon="-118.3938675">
  <ele>-15.416</ele>
  <time>2026-09-02T22:12:48Z</time>
  <course>187.82</course>
  <speed>0.38013155617496425</speed>
  <fix>3d</fix>
</trkpt>
<trkpt lat="33.8102876" lon="-118.3938675">
  <ele>-15.05</ele>
  <time>2026-09-02T22:12:48Z</time>
  <course>181.21</course>
  <speed>0.4</speed>
  <fix>3d</fix>
</trkpt>
<trkpt lat="33.8102867" lon="-118.3938675">
  <ele>-15.418</ele>
  <time>2026-09-02T22:12:48Z</time>
  <course>187.81</course>
  <speed>0.38013155617496425</speed>
  <fix>3d</fix>
</trkpt>
<trkpt lat="33.8102869" lon="-118.3938675">
  <ele>-15.05</ele>
  <time>2026-09-02T22:12:48Z</time>
  <course>181.05</course>
  <speed>0.4</speed>
  <fix>3d</fix>
</trkpt>
<trkpt lat="33.8102863" lon="-118.3938675">
  <ele>-15.421</ele>
  <time>2026-09-02T22:12:48Z</time>
  <course>187.8</course>
  <speed>0.38013155617496425</speed>
  <fix>3d</fix>
</trkpt>
<trkpt lat="33.8102869" lon="-118.3938675">
  <ele>-15.05</ele>
  <time>2026-09-02T22:12:48Z</time>
  <course>181.05</course>
  <speed>0.4</speed>
  <fix>3d</fix>
</trkpt>
<trkpt lat="33.8102859" lon="-118.3938675">
  <ele>-15.424</ele>
  <time>2026-09-02T22:12:48Z</time>
  <course>187.79</course>
  <speed>0.38013155617496425</speed>
  <fix>3d</fix>
</trkpt>
<trkpt lat="33.8102861" lon="-118.3938675">
  <ele>-15.06</ele>
  <time>2026-09-02T22:12:48Z</time>
  <course>180.85</course>
  <speed>0.4</speed>
  <fix>3d</fix>
</trkpt>
<trkpt lat="33.8102856" lon="-118.3938675">
  <ele>-15.426</ele>
  <time>2026-09-02T22:12:48Z</time>
  <course>187.78</course>
  <speed>0.38013155617496425</speed>
  <fix>3d</fix>
</trkpt>
<trkpt lat="33.8102861" lon="-118.3938675">
  <ele>-15.06</ele>
  <time>2026-09-02T22:12:48Z</time>
  <course>180.85</course>
  <speed>0.4</speed>
  <fix>3d</fix>
</trkpt>
<trkpt lat="33.8102852" lon="-118.3938676">
  <ele>-15.426</ele>
  <time>2026-09-02T22:12:48Z</time>
  <course>187.76</course>
  <speed>0.38013155617496425</speed>
  <fix>3d</fix>
</trkpt>
<trkpt lat="33.8102854" lon="-118.3938675">
  <ele>-15.06</ele>
  <time>2026-09-02T22:12:48Z</time>
  <course>180.68</course>
  <speed>0.4</speed>
  <fix>3d</fix>
</trkpt>
<trkpt lat="33.8102848" lon="-118.3938676">
  <ele>-15.426</ele>
  <time>2026-09-02T22:12:48Z</time>
  <course>187.75</course>
  <speed>0.38013155617496425</speed>
  <fix>3d</fix>
</trkpt>
<trkpt lat="33.8102854" lon="-118.3938675">
  <ele>-15.06</ele>
  <time>2026-09-02T22:12:48Z</time>
  <course>180.68</course>
  <speed>0.4</speed>
  <fix>3d</fix>
</trkpt>
<trkpt lat="33.8102845" lon="-118.3938676">
  <ele>-15.423</ele>
  <time>2026-09-02T22:12:48Z</time>
  <course>187.74</course>
  <speed>0.38013155617496425</speed>
  <fix>3d</fix>
</trkpt>
<trkpt lat="33.8102847" lon="-118.3938675">
  <ele>-15.06</ele>
  <time>2026-09-02T22:12:48Z</time>
  <course>180.58</course>
  <speed>0.4</speed>
  <fix>3d</fix>
</trkpt>
<trkpt lat="33.8102841" lon="-118.3938676">
  <ele>-15.42</ele>
  <time>2026-09-02T22:12:48Z</time>
  <course>187.73</course>
  <speed>0.38013155617496425</speed>
  <fix>3d</fix>
</trkpt>
<trkpt lat="33.8102847" lon="-118.3938675">
  <ele>-15.06</ele>
  <time>2026-09-02T22:12:48Z</time>
  <course>180.58</course>
  <speed>0.4</speed>
  <fix>3d</fix>
</trkpt>
<trkpt lat="33.8102837" lon="-118.3938676">
  <ele>-15.417</ele>
  <time>2026-09-02T22:12:48Z</time>
  <course>187.72</course>
  <speed>0.38</speed>
  <fix>3d</fix>
</trkpt>
<trkpt lat="33.8102839" lon="-118.3938675">
  <ele>-15.06</ele>
  <time>2026-09-02T22:12:48Z</time>
  <course>180.5</course>
  <speed>0.4</speed>
  <fix>3d</fix>
</trkpt>
<trkpt lat="33.8102834" lon="-118.3938676">
  <ele>-15.414</ele>
  <time>2026-09-02T22:12:48Z</time>
  <course>187.7</course>
  <speed>0.38013155617496425</speed>
  <fix>3d</fix>
</trkpt>
<trkpt lat="33.8102839" lon="-118.3938675">
  <ele>-15.06</ele>
  <time>2026-09-02T22:12:48Z</time>
  <course>180.5</course>
  <speed>0.4</speed>
  <fix>3d</fix>
</trkpt>
<trkpt lat="33.810283" lon="-118.3938676">
  <ele>-15.413</ele>
  <time>2026-09-02T22:12:48Z</time>
  <course>187.69</course>
  <speed>0.38</speed>
  <fix>3d</fix>
</trkpt>
<trkpt lat="33.8102832" lon="-118.3938676">
  <ele>-15.05</ele>
  <time>2026-09-02T22:12:48Z</time>
  <course>180.46</course>
  <speed>0.41</speed>
  <fix>3d</fix>
</trkpt>
<trkpt lat="33.8102826" lon="-118.3938676">
  <ele>-15.414</ele>
  <time>2026-09-02T22:12:48Z</time>
  <course>187.68</course>
  <speed>0.38</speed>
  <fix>3d</fix>
</trkpt>
<trkpt lat="33.8102832" lon="-118.3938676">
  <ele>-15.05</ele>
  <time>2026-09-02T22:12:48Z</time>
  <course>180.46</course>
  <speed>0.41</speed>
  <fix>3d</fix>
</trkpt>
<trkpt lat="33.8102822" lon="-118.3938676">
  <ele>-15.415</ele>
  <time>2026-09-02T22:12:48Z</time>
  <course>187.67</course>
  <speed>0.39</speed>
  <fix>3d</fix>
</trkpt>
<trkpt lat="33.8102825" lon="-118.3938676">
  <ele>-15.05</ele>
  <time>2026-09-02T22:12:48Z</time>
  <course>180.39</course>
  <speed>0.41</speed>
  <fix>3d</fix>
</trkpt>
<trkpt lat="33.8102819" lon="-118.3938676">
  <ele>-15.416</ele>
  <time>2026-09-02T22:12:48Z</time>
  <course>187.66</course>
  <speed>0.39</speed>
  <fix>3d</fix>
</trkpt>
<trkpt lat="33.8102825" lon="-118.3938676">
  <ele>-15.05</ele>
  <time>2026-09-02T22:12:48Z</time>
  <course>180.39</course>
  <speed>0.41</speed>
  <fix>3d</fix>
</trkpt>
<trkpt lat="33.8102815" lon="-118.3938676">
  <ele>-15.417</ele>
  <time>2026-09-02T22:12:48Z</time>
  <course>187.65</course>
  <speed>0.39</speed>
  <fix>3d</fix>
</trkpt>
<trkpt lat="33.8102818" lon="-118.3938676">
  <ele>-15.05</ele>
  <time>2026-09-02T22:12:48Z</time>
  <course>180.2</course>
  <speed>0.41</speed>
  <fix>3d</fix>
</trkpt>
<trkpt lat="33.8102811" lon="-118.3938676">
  <ele>-15.415</ele>
  <time>2026-09-02T22:12:48Z</time>
  <course>187.64</course>
  <speed>0.39</speed>
  <fix>3d</fix>
</trkpt>
<trkpt lat="33.8102818" lon="-118.3938676">
  <ele>-15.05</ele>
  <time>2026-09-02T22:12:48Z</time>
  <course>180.2</course>
  <speed>0.41</speed>
  <fix>3d</fix>
</trkpt>
<trkpt lat="33.8102808" lon="-118.3938676">
  <ele>-15.414</ele>
  <time>2026-09-02T22:12:48Z</time>
  <course>187.63</course>
  <speed>0.39</speed>
  <fix>3d</fix>
</trkpt>
<trkpt lat="33.810281" lon="-118.3938676">
  <ele>-15.05</ele>
  <time>2026-09-02T22:12:48Z</time>
  <course>179.95</course>
  <speed>0.41</speed>
  <fix>3d</fix>
</trkpt>
<trkpt lat="33.8102804" lon="-118.3938676">
  <ele>-15.413</ele>
  <time>2026-09-02T22:12:48Z</time>
  <course>187.63</course>
  <speed>0.39</speed>
  <fix>3d</fix>
</trkpt>
<trkpt lat="33.810281" lon="-118.3938676">
  <ele>-15.05</ele>
  <time>2026-09-02T22:12:48Z</time>
  <course>179.95</course>
  <speed>0.41</speed>
  <fix>3d</fix>
</trkpt>
<trkpt lat="33.81028" lon="-118.3938676">
  <ele>-15.411</ele>
  <time>2026-09-02T22:12:48Z</time>
  <course>187.62</course>
  <speed>0.39</speed>
  <fix>3d</fix>
</trkpt>
<trkpt lat="33.8102803" lon="-118.3938676">
  <ele>-15.05</ele>
  <time>2026-09-02T22:12:48Z</time>
  <course>179.72</course>
  <speed>0.41</speed>
  <fix>3d</fix>
</trkpt>
<trkpt lat="33.8102796" lon="-118.3938676">
  <ele>-15.411</ele>
  <time>2026-09-02T22:12:48Z</time>
  <course>187.61</course>
  <speed>0.39</speed>
  <fix>3d</fix>
</trkpt>
<trkpt lat="33.8102803" lon="-118.3938676">
  <ele>-15.05</ele>
  <time>2026-09-02T22:12:48Z</time>
  <course>179.72</course>
  <speed>0.41</speed>
  <fix>3d</fix>
</trkpt>
<trkpt lat="33.8102793" lon="-118.3938676">
  <ele>-15.411</ele>
  <time>2026-09-02T22:12:48Z</time>
  <course>187.59</course>
  <speed>0.4</speed>
  <fix>3d</fix>
</trkpt>
<trkpt lat="33.8102795" lon="-118.3938676">
  <ele>-15.04</ele>
  <time>2026-09-02T22:12:48Z</time>
  <course>179.55</course>
  <speed>0.42</speed>
  <fix>3d</fix>
</trkpt>
<trkpt lat="33.8102789" lon="-118.3938676">
  <ele>-15.411</ele>
  <time>2026-09-02T22:12:48Z</time>
  <course>187.58</course>
  <speed>0.4</speed>
  <fix>3d</fix>
</trkpt>
<trkpt lat="33.8102795" lon="-118.3938676">
  <ele>-15.04</ele>
  <time>2026-09-02T22:12:48Z</time>
  <course>179.55</course>
  <speed>0.42</speed>
  <fix>3d</fix>
</trkpt>
<trkpt lat="33.8102785" lon="-118.3938676">
  <ele>-15.411</ele>
  <time>2026-09-02T22:12:48Z</time>
  <course>187.57</course>
  <speed>0.4</speed>
  <fix>3d</fix>
</trkpt>
<trkpt lat="33.8102788" lon="-118.3938676">
  <ele>-15.04</ele>
  <time>2026-09-02T22:12:48Z</time>
  <course>179.41</course>
  <speed>0.42</speed>
  <fix>3d</fix>
</trkpt>
<trkpt lat="33.8102781" lon="-118.3938676">
  <ele>-15.41</ele>
  <time>2026-09-02T22:12:48Z</time>
  <course>187.56</course>
  <speed>0.4</speed>
  <fix>3d</fix>
</trkpt>
<trkpt lat="33.8102788" lon="-118.3938676">
  <ele>-15.04</ele>
  <time>2026-09-02T22:12:48Z</time>
  <course>179.41</course>
  <speed>0.42</speed>
  <fix>3d</fix>
</trkpt>
<trkpt lat="33.8102777" lon="-118.3938676">
  <ele>-15.409</ele>
  <time>2026-09-02T22:12:48Z</time>
  <course>187.55</course>
  <speed>0.4</speed>
  <fix>3d</fix>
</trkpt>
<trkpt lat="33.8102779" lon="-118.3938676">
  <ele>-15.04</ele>
  <time>2026-09-02T22:12:48Z</time>
  <course>179.34</course>
  <speed>0.42</speed>
  <fix>3d</fix>
</trkpt>
<trkpt lat="33.8102774" lon="-118.3938676">
  <ele>-15.406</ele>
  <time>2026-09-02T22:12:48Z</time>
  <course>187.55</course>
  <speed>0.4</speed>
  <fix>3d</fix>
</trkpt>
<trkpt lat="33.8102779" lon="-118.3938676">
  <ele>-15.04</ele>
  <time>2026-09-02T22:12:48Z</time>
  <course>179.34</course>
  <speed>0.42</speed>
  <fix>3d</fix>
</trkpt>
<trkpt lat="33.810277" lon="-118.3938676">
  <ele>-15.404</ele>
  <time>2026-09-02T22:12:48Z</time>
  <course>187.54</course>
  <speed>0.4</speed>
  <fix>3d</fix>
</trkpt>
<trkpt lat="33.8102772" lon="-118.3938676">
  <ele>-15.04</ele>
  <time>2026-09-02T22:12:48Z</time>
  <course>179.29</course>
  <speed>0.42</speed>
  <fix>3d</fix>
</trkpt>
<trkpt lat="33.8102766" lon="-118.3938676">
  <ele>-15.401</ele>
  <time>2026-09-02T22:12:48Z</time>
  <course>187.53</course>
  <speed>0.4</speed>
  <fix>3d</fix>
</trkpt>
<trkpt lat="33.8102772" lon="-118.3938676">
  <ele>-15.04</ele>
  <time>2026-09-02T22:12:48Z</time>
  <course>179.29</course>
  <speed>0.42</speed>
  <fix>3d</fix>
</trkpt>
<trkpt lat="33.8102762" lon="-118.3938676">
  <ele>-15.399</ele>
  <time>2026-09-02T22:12:48Z</time>
  <course>187.52</course>
  <speed>0.4</speed>
  <fix>3d</fix>
</trkpt>
<trkpt lat="33.8102765" lon="-118.3938676">
  <ele>-15.03</ele>
  <time>2026-09-02T22:12:48Z</time>
  <course>179.24</course>
  <speed>0.42</speed>
  <fix>3d</fix>
</trkpt>
<trkpt lat="33.8102758" lon="-118.3938676">
  <ele>-15.397</ele>
  <time>2026-09-02T22:12:48Z</time>
  <course>187.51</course>
  <speed>0.4</speed>
  <fix>3d</fix>
</trkpt>
<trkpt lat="33.8102765" lon="-118.3938676">
  <ele>-15.03</ele>
  <time>2026-09-02T22:12:48Z</time>
  <course>179.24</course>
  <speed>0.42</speed>
  <fix>3d</fix>
</trkpt>
<trkpt lat="33.8102754" lon="-118.3938676">
  <ele>-15.397</ele>
  <time>2026-09-02T22:12:48Z</time>
  <course>187.51</course>
  <speed>0.4</speed>
  <fix>3d</fix>
</trkpt>
<trkpt lat="33.8102757" lon="-118.3938676">
  <ele>-15.03</ele>
  <time>2026-09-02T22:12:48Z</time>
  <course>179.2</course>
  <speed>0.42</speed>
  <fix>3d</fix>
</trkpt>
<trkpt lat="33.8102751" lon="-118.3938676">
  <ele>-15.397</ele>
  <time>2026-09-02T22:12:48Z</time>
  <course>187.5</course>
  <speed>0.4</speed>
  <fix>3d</fix>
</trkpt>
<trkpt lat="33.8102757" lon="-118.3938676">
  <ele>-15.03</ele>
  <time>2026-09-02T22:12:48Z</time>
  <course>179.2</course>
  <speed>0.42</speed>
  <fix>3d</fix>
</trkpt>
<trkpt lat="33.8102747" lon="-118.3938676">
  <ele>-15.397</ele>
  <time>2026-09-02T22:12:48Z</time>
  <course>187.49</course>
  <speed>0.4</speed>
  <fix>3d</fix>
</trkpt>
<trkpt lat="33.8102749" lon="-118.3938676">
  <ele>-15.03</ele>
  <time>2026-09-02T22:12:48Z</time>
  <course>179.14</course>
  <speed>0.42</speed>
  <fix>3d</fix>
</trkpt>
<trkpt lat="33.8102743" lon="-118.3938676">
  <ele>-15.398</ele>
  <time>2026-09-02T22:12:48Z</time>
  <course>187.48</course>
  <speed>0.4</speed>
  <fix>3d</fix>
</trkpt>
<trkpt lat="33.8102749" lon="-118.3938676">
  <ele>-15.03</ele>
  <time>2026-09-02T22:12:48Z</time>
  <course>179.14</course>
  <speed>0.42</speed>
  <fix>3d</fix>
</trkpt>
<trkpt lat="33.8102739" lon="-118.3938676">
  <ele>-15.399</ele>
  <time>2026-09-02T22:12:48Z</time>
  <course>187.47</course>
  <speed>0.4</speed>
  <fix>3d</fix>
</trkpt>
<trkpt lat="33.8102741" lon="-118.3938676">
  <ele>-15.04</ele>
  <time>2026-09-02T22:12:48Z</time>
  <course>179.08</course>
  <speed>0.42</speed>
  <fix>3d</fix>
</trkpt>
<trkpt lat="33.8102735" lon="-118.3938676">
  <ele>-15.4</ele>
  <time>2026-09-02T22:12:48Z</time>
  <course>187.46</course>
  <speed>0.4</speed>
  <fix>3d</fix>
</trkpt>
<trkpt lat="33.8102741" lon="-118.3938676">
  <ele>-15.04</ele>
  <time>2026-09-02T22:12:48Z</time>
  <course>179.08</course>
  <speed>0.42</speed>
  <fix>3d</fix>
</trkpt>
<trkpt lat="33.8102731" lon="-118.3938676">
  <ele>-15.402</ele>
  <time>2026-09-02T22:12:48Z</time>
  <course>187.45</course>
  <speed>0.4</speed>
  <fix>3d</fix>
</trkpt>
<trkpt lat="33.8102734" lon="-118.3938676">
  <ele>-15.04</ele>
  <time>2026-09-02T22:12:48Z</time>
  <course>179.02</course>
  <speed>0.42</speed>
  <fix>3d</fix>
</trkpt>
<trkpt lat="33.8102727" lon="-118.3938676">
  <ele>-15.403</ele>
  <time>2026-09-02T22:12:48Z</time>
  <course>187.45</course>
  <speed>0.4</speed>
  <fix>3d</fix>
</trkpt>
<trkpt lat="33.8102734" lon="-118.3938676">
  <ele>-15.04</ele>
  <time>2026-09-02T22:12:48Z</time>
  <course>179.02</course>
  <speed>0.42</speed>
  <fix>3d</fix>
</trkpt>
<trkpt lat="33.8102724" lon="-118.3938676">
  <ele>-15.403</ele>
  <time>2026-09-02T22:12:48Z</time>
  <course>187.44</course>
  <speed>0.4</speed>
  <fix>3d</fix>
</trkpt>
<trkpt lat="33.8102726" lon="-118.3938675">
  <ele>-15.05</ele>
  <time>2026-09-02T22:12:48Z</time>
  <course>178.97</course>
  <speed>0.43</speed>
  <fix>3d</fix>
</trkpt>
<trkpt lat="33.810272" lon="-118.3938676">
  <ele>-15.403</ele>
  <time>2026-09-02T22:12:48Z</time>
  <course>187.43</course>
  <speed>0.4</speed>
  <fix>3d</fix>
</trkpt>
<trkpt lat="33.8102726" lon="-118.3938675">
  <ele>-15.05</ele>
  <time>2026-09-02T22:12:48Z</time>
  <course>178.97</course>
  <speed>0.43</speed>
  <fix>3d</fix>
</trkpt>
<trkpt lat="33.8102716" lon="-118.3938676">
  <ele>-15.403</ele>
  <time>2026-09-02T22:12:48Z</time>
  <course>187.42</course>
  <speed>0.4</speed>
  <fix>3d</fix>
</trkpt>
<trkpt lat="33.8102719" lon="-118.3938675">
  <ele>-15.05</ele>
  <time>2026-09-02T22:12:48Z</time>
  <course>179.0</course>
  <speed>0.43</speed>
  <fix>3d</fix>
</trkpt>
<trkpt lat="33.8102712" lon="-118.3938676">
  <ele>-15.402</ele>
  <time>2026-09-02T22:12:48Z</time>
  <course>187.41</course>
  <speed>0.4</speed>
  <fix>3d</fix>
</trkpt>
<trkpt lat="33.8102719" lon="-118.3938675">
  <ele>-15.05</ele>
  <time>2026-09-02T22:12:48Z</time>
  <course>179.0</course>
  <speed>0.43</speed>
  <fix>3d</fix>
</trkpt>
<trkpt lat="33.8102708" lon="-118.3938676">
  <ele>-15.4</ele>
  <time>2026-09-02T22:12:48Z</time>
  <course>187.41</course>
  <speed>0.41</speed>
  <fix>3d</fix>
</trkpt>
<trkpt lat="33.810271" lon="-118.3938675">
  <ele>-15.04</ele>
  <time>2026-09-02T22:12:48Z</time>
  <course>179.14</course>
  <speed>0.43</speed>
  <fix>3d</fix>
</trkpt>
<trkpt lat="33.8102704" lon="-118.3938676">
  <ele>-15.397</ele>
  <time>2026-09-02T22:12:48Z</time>
  <course>187.4</course>
  <speed>0.41012193308819755</speed>
  <fix>3d</fix>
</trkpt>
<trkpt lat="33.810271" lon="-118.3938675">
  <ele>-15.04</ele>
  <time>2026-09-02T22:12:48Z</time>
  <course>179.14</course>
  <speed>0.43</speed>
  <fix>3d</fix>
</trkpt>
<trkpt lat="33.81027" lon="-118.3938676">
  <ele>-15.394</ele>
  <time>2026-09-02T22:12:48Z</time>
  <course>187.4</course>
  <speed>0.41012193308819755</speed>
  <fix>3d</fix>
</trkpt>
<trkpt lat="33.8102703" lon="-118.3938675">
  <ele>-15.04</ele>
  <time>2026-09-02T22:12:48Z</time>
  <course>179.33</course>
  <speed>0.43</speed>
  <fix>3d</fix>
</trkpt>
<trkpt lat="33.8102696" lon="-118.3938676">
  <ele>-15.393</ele>
  <time>2026-09-02T22:12:48Z</time>
  <course>187.39</course>
  <speed>0.41012193308819755</speed>
  <fix>3d</fix>
</trkpt>
<trkpt lat="33.8102703" lon="-118.3938675">
  <ele>-15.04</ele>
  <time>2026-09-02T22:12:48Z</time>
  <course>179.33</course>
  <speed>0.43</speed>
  <fix>3d</fix>
</trkpt>
<trkpt lat="33.8102692" lon="-118.3938676">
  <ele>-15.393</ele>
  <time>2026-09-02T22:12:48Z</time>
  <course>187.38</course>
  <speed>0.41012193308819755</speed>
  <fix>3d</fix>
</trkpt>
<trkpt lat="33.8102695" lon="-118.3938675">
  <ele>-15.04</ele>
  <time>2026-09-02T22:12:48Z</time>
  <course>179.46</course>
  <speed>0.43</speed>
  <fix>3d</fix>
</trkpt>
<trkpt lat="33.8102688" lon="-118.3938676">
  <ele>-15.395</ele>
  <time>2026-09-02T22:12:48Z</time>
  <course>187.37</course>
  <speed>0.41012193308819755</speed>
  <fix>3d</fix>
</trkpt>
<trkpt lat="33.8102695" lon="-118.3938675">
  <ele>-15.04</ele>
  <time>2026-09-02T22:12:48Z</time>
  <course>179.46</course>
  <speed>0.43</speed>
  <fix>3d</fix>
</trkpt>
<trkpt lat="33.8102685" lon="-118.3938676">
  <ele>-15.397</ele>
  <time>2026-09-02T22:12:48Z</time>
  <course>187.36</course>
  <speed>0.41012193308819755</speed>
  <fix>3d</fix>
</trkpt>
<trkpt lat="33.8102687" lon="-118.3938675">
  <ele>-15.04</ele>
  <time>2026-09-02T22:12:48Z</time>
  <course>179.53</course>
  <speed>0.43</speed>
  <fix>3d</fix>
</trkpt>
<trkpt lat="33.8102681" lon="-118.3938676">
  <ele>-15.399</ele>
  <time>2026-09-02T22:12:48Z</time>
  <course>187.35</course>
  <speed>0.41012193308819755</speed>
  <fix>3d</fix>
</trkpt>
<trkpt lat="33.8102687" lon="-118.3938675">
  <ele>-15.04</ele>
  <time>2026-09-02T22:12:48Z</time>
  <course>179.53</course>
  <speed>0.43</speed>
  <fix>3d</fix>
</trkpt>
<trkpt lat="33.8102677" lon="-118.3938676">
  <ele>-15.4</ele>
  <time>2026-09-02T22:12:48Z</time>
  <course>187.35</course>
  <speed>0.41012193308819755</speed>
  <fix>3d</fix>
</trkpt>
<trkpt lat="33.8102679" lon="-118.3938675">
  <ele>-15.04</ele>
  <time>2026-09-02T22:12:48Z</time>
  <course>179.56</course>
  <speed>0.43</speed>
  <fix>3d</fix>
</trkpt>
<trkpt lat="33.8102673" lon="-118.3938676">
  <ele>-15.401</ele>
  <time>2026-09-02T22:12:48Z</time>
  <course>187.34</course>
  <speed>0.41012193308819755</speed>
  <fix>3d</fix>
</trkpt>
<trkpt lat="33.8102679" lon="-118.3938675">
  <ele>-15.04</ele>
  <time>2026-09-02T22:12:48Z</time>
  <course>179.56</course>
  <speed>0.43</speed>
  <fix>3d</fix>
</trkpt>
<trkpt lat="33.8102669" lon="-118.3938676">
  <ele>-15.4</ele>
  <time>2026-09-02T22:12:48Z</time>
  <course>187.33</course>
  <speed>0.41012193308819755</speed>
  <fix>3d</fix>
</trkpt>
<trkpt lat="33.8102672" lon="-118.3938675">
  <ele>-15.03</ele>
  <time>2026-09-02T22:12:48Z</time>
  <course>179.57</course>
  <speed>0.43</speed>
  <fix>3d</fix>
</trkpt>
<trkpt lat="33.8102665" lon="-118.3938676">
  <ele>-15.399</ele>
  <time>2026-09-02T22:12:48Z</time>
  <course>187.33</course>
  <speed>0.41012193308819755</speed>
  <fix>3d</fix>
</trkpt>
<trkpt lat="33.8102672" lon="-118.3938675">
  <ele>-15.03</ele>
  <time>2026-09-02T22:12:48Z</time>
  <course>179.57</course>
  <speed>0.43</speed>
  <fix>3d</fix>
</trkpt>
<trkpt lat="33.8102661" lon="-118.3938676">
  <ele>-15.396</ele>
  <time>2026-09-02T22:12:48Z</time>
  <course>187.32</course>
  <speed>0.41012193308819755</speed>
  <fix>3d</fix>
</trkpt>
<trkpt lat="33.8102664" lon="-118.3938675">
  <ele>-15.03</ele>
  <time>2026-09-02T22:12:48Z</time>
  <course>179.56</course>
  <speed>0.43</speed>
  <fix>3d</fix>
</trkpt>
<trkpt lat="33.8102657" lon="-118.3938676">
  <ele>-15.394</ele>
  <time>2026-09-02T22:12:48Z</time>
  <course>187.31</course>
  <speed>0.41012193308819755</speed>
  <fix>3d</fix>
</trkpt>
<trkpt lat="33.8102664" lon="-118.3938675">
  <ele>-15.03</ele>
  <time>2026-09-02T22:12:48Z</time>
  <course>179.56</course>
  <speed>0.43</speed>
  <fix>3d</fix>
</trkpt>
<trkpt lat="33.8102653" lon="-118.3938676">
  <ele>-15.391</ele>
  <time>2026-09-02T22:12:48Z</time>
  <course>187.3</course>
  <speed>0.41012193308819755</speed>
  <fix>3d</fix>
</trkpt>
<trkpt lat="33.8102655" lon="-118.3938674">
  <ele>-15.02</ele>
  <time>2026-09-02T22:12:48Z</time>
  <course>179.54</course>
  <speed>0.44</speed>
  <fix>3d</fix>
</trkpt>
<trkpt lat="33.8102649" lon="-118.3938676">
  <ele>-15.388</ele>
  <time>2026-09-02T22:12:48Z</time>
  <course>187.3</course>
  <speed>0.41012193308819755</speed>
  <fix>3d</fix>
</trkpt>
<trkpt lat="33.8102655" lon="-118.3938674">
  <ele>-15.02</ele>
  <time>2026-09-02T22:12:48Z</time>
  <course>179.54</course>
  <speed>0.44</speed>
  <fix>3d</fix>
</trkpt>
<trkpt lat="33.8102645" lon="-118.3938676">
  <ele>-15.385</ele>
  <time>2026-09-02T22:12:48Z</time>
  <course>187.29</course>
  <speed>0.41012193308819755</speed>
  <fix>3d</fix>
</trkpt>
<trkpt lat="33.8102648" lon="-118.3938674">
  <ele>-15.02</ele>
  <time>2026-09-02T22:12:48Z</time>
  <course>179.57</course>
  <speed>0.44</speed>
  <fix>3d</fix>
</trkpt>
<trkpt lat="33.8102641" lon="-118.3938676">
  <ele>-15.383</ele>
  <time>2026-09-02T22:12:48Z</time>
  <course>187.28</course>
  <speed>0.41012193308819755</speed>
  <fix>3d</fix>
</trkpt>
<trkpt lat="33.8102648" lon="-118.3938674">
  <ele>-15.02</ele>
  <time>2026-09-02T22:12:48Z</time>
  <course>179.57</course>
  <speed>0.44</speed>
  <fix>3d</fix>
</trkpt>
<trkpt lat="33.8102637" lon="-118.3938676">
  <ele>-15.38</ele>
  <time>2026-09-02T22:12:48Z</time>
  <course>187.28</course>
  <speed>0.4201190307520001</speed>
  <fix>3d</fix>
</trkpt>
<trkpt lat="33.810264" lon="-118.3938674">
  <ele>-15.01</ele>
  <time>2026-09-02T22:12:48Z</time>
  <course>179.75</course>
  <speed>0.44</speed>
  <fix>3d</fix>
</trkpt>
<trkpt lat="33.8102633" lon="-118.3938676">
  <ele>-15.378</ele>
  <time>2026-09-02T22:12:48Z</time>
  <course>187.27</course>
  <speed>0.4201190307520001</speed>
  <fix>3d</fix>
</trkpt>
<trkpt lat="33.810264" lon="-118.3938674">
  <ele>-15.01</ele>
  <time>2026-09-02T22:12:48Z</time>
  <course>179.75</course>
  <speed>0.44</speed>
  <fix>3d</fix>
</trkpt>
<trkpt lat="33.8102629" lon="-118.3938676">
  <ele>-15.377</ele>
  <time>2026-09-02T22:12:48Z</time>
  <course>187.27</course>
  <speed>0.4201190307520001</speed>
  <fix>3d</fix>
</trkpt>
<trkpt lat="33.8102631" lon="-118.3938674">
  <ele>-15.01</ele>
  <time>2026-09-02T22:12:48Z</time>
  <course>179.96</course>
  <speed>0.44</speed>
  <fix>3d</fix>
</trkpt>
<trkpt lat="33.8102625" lon="-118.3938676">
  <ele>-15.378</ele>
  <time>2026-09-02T22:12:48Z</time>
  <course>187.26</course>
  <speed>0.4201190307520001</speed>
  <fix>3d</fix>
</trkpt>
<trkpt lat="33.8102631" lon="-118.3938674">
  <ele>-15.01</ele>
  <time>2026-09-02T22:12:48Z</time>
  <course>179.96</course>
  <speed>0.44</speed>
  <fix>3d</fix>
</trkpt>
<trkpt lat="33.8102621" lon="-118.3938676">
  <ele>-15.379</ele>
  <time>2026-09-02T22:12:48Z</time>
  <course>187.25</course>
  <speed>0.4201190307520001</speed>
  <fix>3d</fix>
</trkpt>
<trkpt lat="33.8102624" lon="-118.3938674">
  <ele>-15.01</ele>
  <time>2026-09-02T22:12:48Z</time>
  <course>180.13</course>
  <speed>0.44</speed>
  <fix>3d</fix>
</trkpt>
<trkpt lat="33.8102617" lon="-118.3938676">
  <ele>-15.38</ele>
  <time>2026-09-02T22:12:48Z</time>
  <course>187.25</course>
  <speed>0.4201190307520001</speed>
  <fix>3d</fix>
</trkpt>
<trkpt lat="33.8102624" lon="-118.3938674">
  <ele>-15.01</ele>
  <time>2026-09-02T22:12:48Z</time>
  <course>180.13</course>
  <speed>0.44</speed>
  <fix>3d</fix>
</trkpt>
<trkpt lat="33.8102613" lon="-118.3938676">
  <ele>-15.379</ele>
  <time>2026-09-02T22:12:48Z</time>
  <course>187.24</course>
  <speed>0.4201190307520001</speed>
  <fix>3d</fix>
</trkpt>
<trkpt lat="33.8102616" lon="-118.3938674">
  <ele>-15.01</ele>
  <time>2026-09-02T22:12:48Z</time>
  <course>180.26</course>
  <speed>0.44</speed>
  <fix>3d</fix>
</trkpt>
<trkpt lat="33.8102609" lon="-118.3938676">
  <ele>-15.379</ele>
  <time>2026-09-02T22:12:48Z</time>
  <course>187.24</course>
  <speed>0.4201190307520001</speed>
  <fix>3d</fix>
</trkpt>
<trkpt lat="33.8102616" lon="-118.3938674">
  <ele>-15.01</ele>
  <time>2026-09-02T22:12:48Z</time>
  <course>180.26</course>
  <speed>0.44</speed>
  <fix>3d</fix>
</trkpt>
<trkpt lat="33.8102605" lon="-118.3938676">
  <ele>-15.378</ele>
  <time>2026-09-02T22:12:48Z</time>
  <course>187.23</course>
  <speed>0.4201190307520001</speed>
  <fix>3d</fix>
</trkpt>
<trkpt lat="33.8102607" lon="-118.3938674">
  <ele>-15.02</ele>
  <time>2026-09-02T22:12:48Z</time>
  <course>180.33</course>
  <speed>0.44</speed>
  <fix>3d</fix>
</trkpt>
<trkpt lat="33.8102601" lon="-118.3938676">
  <ele>-15.379</ele>
  <time>2026-09-02T22:12:48Z</time>
  <course>187.22</course>
  <speed>0.4201190307520001</speed>
  <fix>3d</fix>
</trkpt>
<trkpt lat="33.8102607" lon="-118.3938674">
  <ele>-15.02</ele>
  <time>2026-09-02T22:12:48Z</time>
  <course>180.33</course>
  <speed>0.44</speed>
  <fix>3d</fix>
</trkpt>
<trkpt lat="33.8102597" lon="-118.3938676">
  <ele>-15.379</ele>
  <time>2026-09-02T22:12:48Z</time>
  <course>187.22</course>
  <speed>0.4201190307520001</speed>
  <fix>3d</fix>
</trkpt>
<trkpt lat="33.81026" lon="-118.3938674">
  <ele>-15.02</ele>
  <time>2026-09-02T22:12:48Z</time>
  <course>180.38</course>
  <speed>0.44</speed>
  <fix>3d</fix>
</trkpt>
<trkpt lat="33.8102593" lon="-118.3938676">
  <ele>-15.38</ele>
  <time>2026-09-02T22:12:48Z</time>
  <course>187.21</course>
  <speed>0.4201190307520001</speed>
  <fix>3d</fix>
</trkpt>
<trkpt lat="33.81026" lon="-118.3938674">
  <ele>-15.02</ele>
  <time>2026-09-02T22:12:48Z</time>
  <course>180.38</course>
  <speed>0.44</speed>
  <fix>3d</fix>
</trkpt>
<trkpt lat="33.8102589" lon="-118.3938676">
  <ele>-15.381</ele>
  <time>2026-09-02T22:12:48Z</time>
  <course>187.21</course>
  <speed>0.4201190307520001</speed>
  <fix>3d</fix>
</trkpt>
<trkpt lat="33.8102592" lon="-118.3938674">
  <ele>-15.02</ele>
  <time>2026-09-02T22:12:48Z</time>
  <course>180.43</course>
  <speed>0.44</speed>
  <fix>3d</fix>
</trkpt>
<trkpt lat="33.8102585" lon="-118.3938676">
  <ele>-15.381</ele>
  <time>2026-09-02T22:12:48Z</time>
  <course>187.2</course>
  <speed>0.4201190307520001</speed>
  <fix>3d</fix>
</trkpt>
<trkpt lat="33.8102592" lon="-118.3938674">
  <ele>-15.02</ele>
  <time>2026-09-02T22:12:48Z</time>
  <course>180.43</course>
  <speed>0.44</speed>
  <fix>3d</fix>
</trkpt>
<trkpt lat="33.8102581" lon="-118.3938676">
  <ele>-15.381</ele>
  <time>2026-09-02T22:12:48Z</time>
  <course>187.19</course>
  <speed>0.4201190307520001</speed>
  <fix>3d</fix>
</trkpt>
<trkpt lat="33.8102583" lon="-118.3938674">
  <ele>-15.02</ele>
  <time>2026-09-02T22:12:48Z</time>
  <course>180.49</course>
  <speed>0.44</speed>
  <fix>3d</fix>
</trkpt>
<trkpt lat="33.8102577" lon="-118.3938676">
  <ele>-15.38</ele>
  <time>2026-09-02T22:12:48Z</time>
  <course>187.19</course>
  <speed>0.4201190307520001</speed>
  <fix>3d</fix>
</trkpt>
<trkpt lat="33.8102583" lon="-118.3938674">
  <ele>-15.02</ele>
  <time>2026-09-02T22:12:48Z</time>
  <course>180.49</course>
  <speed>0.44</speed>
  <fix>3d</fix>
</trkpt>
<trkpt lat="33.8102573" lon="-118.3938676">
  <ele>-15.379</ele>
  <time>2026-09-02T22:12:48Z</time>
  <course>187.18</course>
  <speed>0.4201190307520001</speed>
  <fix>3d</fix>
</trkpt>
<trkpt lat="33.8102576" lon="-118.3938674">
  <ele>-15.02</ele>
  <time>2026-09-02T22:12:48Z</time>
  <course>180.53</course>
  <speed>0.44</speed>
  <fix>3d</fix>
</trkpt>
<trkpt lat="33.8102569" lon="-118.3938676">
  <ele>-15.378</ele>
  <time>2026-09-02T22:12:48Z</time>
  <course>187.18</course>
  <speed>0.4201190307520001</speed>
  <fix>3d</fix>
</trkpt>
<trkpt lat="33.8102576" lon="-118.3938674">
  <ele>-15.02</ele>
  <time>2026-09-02T22:12:48Z</time>
  <course>180.53</course>
  <speed>0.44</speed>
  <fix>3d</fix>
</trkpt>
<trkpt lat="33.8102565" lon="-118.3938676">
  <ele>-15.377</ele>
  <time>2026-09-02T22:12:48Z</time>
  <course>187.18</course>
  <speed>0.4201190307520001</speed>
  <fix>3d</fix>
</trkpt>
<trkpt lat="33.8102568" lon="-118.3938674">
  <ele>-15.01</ele>
  <time>2026-09-02T22:12:48Z</time>
  <course>180.53</course>
  <speed>0.44</speed>
  <fix>3d</fix>
</trkpt>
<trkpt lat="33.8102561" lon="-118.3938676">
  <ele>-15.376</ele>
  <time>2026-09-02T22:12:48Z</time>
  <course>187.17</course>
  <speed>0.4201190307520001</speed>
  <fix>3d</fix>
</trkpt>
<trkpt lat="33.8102568" lon="-118.3938674">
  <ele>-15.01</ele>
  <time>2026-09-02T22:12:48Z</time>
  <course>180.53</course>
  <speed>0.44</speed>
  <fix>3d</fix>
</trkpt>
<trkpt lat="33.8102557" lon="-118.3938676">
  <ele>-15.375</ele>
  <time>2026-09-02T22:12:48Z</time>
  <course>187.16</course>
  <speed>0.4301162633521314</speed>
  <fix>3d</fix>
</trkpt>
<trkpt lat="33.8102559" lon="-118.3938674">
  <ele>-15.01</ele>
  <time>2026-09-02T22:12:48Z</time>
  <course>180.53</course>
  <speed>0.45</speed>
  <fix>3d</fix>
</trkpt>
<trkpt lat="33.8102552" lon="-118.3938676">
  <ele>-15.372</ele>
  <time>2026-09-02T22:12:48Z</time>
  <course>187.16</course>
  <speed>0.4301162633521314</speed>
  <fix>3d</fix>
</trkpt>
<trkpt lat="33.8102559" lon="-118.3938674">
  <ele>-15.01</ele>
  <time>2026-09-02T22:12:48Z</time>
  <course>180.53</course>
  <speed>0.45</speed>
  <fix>3d</fix>
</trkpt>
<trkpt lat="33.8102548" lon="-118.3938676">
  <ele>-15.371</ele>
  <time>2026-09-02T22:12:48Z</time>
  <course>187.15</course>
  <speed>0.4301162633521314</speed>
  <fix>3d</fix>
</trkpt>
<trkpt lat="33.8102552" lon="-118.3938674">
  <ele>-15.01</ele>
  <time>2026-09-02T22:12:48Z</time>
  <course>180.56</course>
  <speed>0.45</speed>
  <fix>3d</fix>
</trkpt>
<trkpt lat="33.8102544" lon="-118.3938676">
  <ele>-15.371</ele>
  <time>2026-09-02T22:12:48Z</time>
  <course>187.15</course>
  <speed>0.4301162633521314</speed>
  <fix>3d</fix>
</trkpt>
<trkpt lat="33.8102552" lon="-118.3938674">
  <ele>-15.01</ele>
  <time>2026-09-02T22:12:48Z</time>
  <course>180.56</course>
  <speed>0.45</speed>
  <fix>3d</fix>
</trkpt>
<trkpt lat="33.810254" lon="-118.3938676">
  <ele>-15.371</ele>
  <time>2026-09-02T22:12:48Z</time>
  <course>187.14</course>
  <speed>0.4301162633521314</speed>
  <fix>3d</fix>
</trkpt>
<trkpt lat="33.8102543" lon="-118.3938674">
  <ele>-15.01</ele>
  <time>2026-09-02T22:12:48Z</time>
  <course>180.57</course>
  <speed>0.45</speed>
  <fix>3d</fix>
</trkpt>
<trkpt lat="33.8102536" lon="-118.3938676">
  <ele>-15.372</ele>
  <time>2026-09-02T22:12:48Z</time>
  <course>187.13</course>
  <speed>0.4301162633521314</speed>
  <fix>3d</fix>
</trkpt>
<trkpt lat="33.8102543" lon="-118.3938674">
  <ele>-15.01</ele>
  <time>2026-09-02T22:12:48Z</time>
  <course>180.57</course>
  <speed>0.45</speed>
  <fix>3d</fix>
</trkpt>
<trkpt lat="33.8102532" lon="-118.3938676">
  <ele>-15.372</ele>
  <time>2026-09-02T22:12:48Z</time>
  <course>187.13</course>
  <speed>0.4301162633521314</speed>
  <fix>3d</fix>
</trkpt>
<trkpt lat="33.8102535" lon="-118.3938674">
  <ele>-15.01</ele>
  <time>2026-09-02T22:12:48Z</time>
  <course>180.58</course>
  <speed>0.45</speed>
  <fix>3d</fix>
</trkpt>
<trkpt lat="33.8102528" lon="-118.3938676">
  <ele>-15.373</ele>
  <time>2026-09-02T22:12:48Z</time>
  <course>187.13</course>
  <speed>0.4301162633521314</speed>
  <fix>3d</fix>
</trkpt>
<trkpt lat="33.8102535" lon="-118.3938674">
  <ele>-15.01</ele>
  <time>2026-09-02T22:12:48Z</time>
  <course>180.58</course>
  <speed>0.45</speed>
  <fix>3d</fix>
</trkpt>
<trkpt lat="33.8102524" lon="-118.3938676">
  <ele>-15.372</ele>
  <time>2026-09-02T22:12:48Z</time>
  <course>187.12</course>
  <speed>0.4301162633521314</speed>
  <fix>3d</fix>
</trkpt>
<trkpt lat="33.8102527" lon="-118.3938674">
  <ele>-15.0</ele>
  <time>2026-09-02T22:12:48Z</time>
  <course>180.6</course>
  <speed>0.45</speed>
  <fix>3d</fix>
</trkpt>
<trkpt lat="33.810252" lon="-118.3938676">
  <ele>-15.371</ele>
  <time>2026-09-02T22:12:48Z</time>
  <course>187.12</course>
  <speed>0.4301162633521314</speed>
  <fix>3d</fix>
</trkpt>
<trkpt lat="33.8102527" lon="-118.3938674">
  <ele>-15.0</ele>
  <time>2026-09-02T22:12:48Z</time>
  <course>180.6</course>
  <speed>0.45</speed>
  <fix>3d</fix>
</trkpt>
<trkpt lat="33.8102516" lon="-118.3938676">
  <ele>-15.37</ele>
  <time>2026-09-02T22:12:48Z</time>
  <course>187.11</course>
  <speed>0.4301162633521314</speed>
  <fix>3d</fix>
</trkpt>
<trkpt lat="33.8102519" lon="-118.3938674">
  <ele>-15.0</ele>
  <time>2026-09-02T22:12:48Z</time>
  <course>180.64</course>
  <speed>0.45</speed>
  <fix>3d</fix>
</trkpt>
<trkpt lat="33.8102512" lon="-118.3938676">
  <ele>-15.369</ele>
  <time>2026-09-02T22:12:48Z</time>
  <course>187.11</course>
  <speed>0.4301162633521314</speed>
  <fix>3d</fix>
</trkpt>
<trkpt lat="33.8102519" lon="-118.3938674">
  <ele>-15.0</ele>
  <time>2026-09-02T22:12:48Z</time>
  <course>180.64</course>
  <speed>0.45</speed>
  <fix>3d</fix>
</trkpt>
<trkpt lat="33.8102507" lon="-118.3938676">
  <ele>-15.368</ele>
  <time>2026-09-02T22:12:48Z</time>
  <course>187.11</course>
  <speed>0.4301162633521314</speed>
  <fix>3d</fix>
</trkpt>
<trkpt lat="33.8102511" lon="-118.3938674">
  <ele>-15.0</ele>
  <time>2026-09-02T22:12:48Z</time>
  <course>180.7</course>
  <speed>0.45</speed>
  <fix>3d</fix>
</trkpt>
<trkpt lat="33.8102503" lon="-118.3938676">
  <ele>-15.367</ele>
  <time>2026-09-02T22:12:48Z</time>
  <course>187.1</course>
  <speed>0.4301162633521314</speed>
  <fix>3d</fix>
</trkpt>
<trkpt lat="33.8102511" lon="-118.3938674">
  <ele>-15.0</ele>
  <time>2026-09-02T22:12:48Z</time>
  <course>180.7</course>
  <speed>0.45</speed>
  <fix>3d</fix>
</trkpt>
<trkpt lat="33.8102499" lon="-118.3938676">
  <ele>-15.366</ele>
  <time>2026-09-02T22:12:48Z</time>
  <course>187.1</course>
  <speed>0.4301162633521314</speed>
  <fix>3d</fix>
</trkpt>
<trkpt lat="33.8102502" lon="-118.3938675">
  <ele>-14.99</ele>
  <time>2026-09-02T22:12:48Z</time>
  <course>180.71</course>
  <speed>0.45</speed>
  <fix>3d</fix>
</trkpt>
<trkpt lat="33.8102495" lon="-118.3938676">
  <ele>-15.365</ele>
  <time>2026-09-02T22:12:48Z</time>
  <course>187.09</course>
  <speed>0.4301162633521314</speed>
  <fix>3d</fix>
</trkpt>
<trkpt lat="33.8102502" lon="-118.3938675">
  <ele>-14.99</ele>
  <time>2026-09-02T22:12:48Z</time>
  <course>180.71</course>
  <speed>0.45</speed>
  <fix>3d</fix>
</trkpt>
<trkpt lat="33.8102491" lon="-118.3938676">
  <ele>-15.362</ele>
  <time>2026-09-02T22:12:48Z</time>
  <course>187.09</course>
  <speed>0.4301162633521314</speed>
  <fix>3d</fix>
</trkpt>
<trkpt lat="33.8102494" lon="-118.3938675">
  <ele>-14.99</ele>
  <time>2026-09-02T22:12:48Z</time>
  <course>180.64</course>
  <speed>0.46</speed>
  <fix>3d</fix>
</trkpt>
<trkpt lat="33.8102487" lon="-118.3938676">
  <ele>-15.36</ele>
  <time>2026-09-02T22:12:48Z</time>
  <course>187.08</course>
  <speed>0.4301162633521314</speed>
  <fix>3d</fix>
</trkpt>
<trkpt lat="33.8102494" lon="-118.3938675">
  <ele>-14.99</ele>
  <time>2026-09-02T22:12:48Z</time>
  <course>180.64</course>
  <speed>0.46</speed>
  <fix>3d</fix>
</trkpt>
<trkpt lat="33.8102483" lon="-118.3938676">
  <ele>-15.358</ele>
  <time>2026-09-02T22:12:49Z</time>
  <course>187.08</course>
  <speed>0.4301162633521314</speed>
  <fix>3d</fix>
</trkpt>
<trkpt lat="33.8102485" lon="-118.3938675">
  <ele>-14.99</ele>
  <time>2026-09-02T22:12:49Z</time>
  <course>180.5</course>
  <speed>0.46</speed>
  <fix>3d</fix>
</trkpt>
<trkpt lat="33.8102478" lon="-118.3938676">
  <ele>-15.358</ele>
  <time>2026-09-02T22:12:49Z</time>
  <course>187.07</course>
  <speed>0.4301162633521314</speed>
  <fix>3d</fix>
</trkpt>
<trkpt lat="33.8102485" lon="-118.3938675">
  <ele>-14.99</ele>
  <time>2026-09-02T22:12:49Z</time>
  <course>180.5</course>
  <speed>0.46</speed>
  <fix>3d</fix>
</trkpt>
<trkpt lat="33.8102474" lon="-118.3938676">
  <ele>-15.357</ele>
  <time>2026-09-02T22:12:49Z</time>
  <course>187.07</course>
  <speed>0.4301162633521314</speed>
  <fix>3d</fix>
</trkpt>
<trkpt lat="33.8102478" lon="-118.3938675">
  <ele>-14.99</ele>
  <time>2026-09-02T22:12:49Z</time>
  <course>180.3</course>
  <speed>0.46</speed>
  <fix>3d</fix>
</trkpt>
<trkpt lat="33.810247" lon="-118.3938676">
  <ele>-15.356</ele>
  <time>2026-09-02T22:12:49Z</time>
  <course>187.07</course>
  <speed>0.4301162633521314</speed>
  <fix>3d</fix>
</trkpt>
<trkpt lat="33.8102478" lon="-118.3938675">
  <ele>-14.99</ele>
  <time>2026-09-02T22:12:49Z</time>
  <course>180.3</course>
  <speed>0.46</speed>
  <fix>3d</fix>
</trkpt>
<trkpt lat="33.8102466" lon="-118.3938676">
  <ele>-15.356</ele>
  <time>2026-09-02T22:12:49Z</time>
  <course>187.06</course>
  <speed>0.4301162633521314</speed>
  <fix>3d</fix>
</trkpt>
<trkpt lat="33.8102469" lon="-118.3938675">
  <ele>-14.99</ele>
  <time>2026-09-02T22:12:49Z</time>
  <course>180.13</course>
  <speed>0.46</speed>
  <fix>3d</fix>
</trkpt>
<trkpt lat="33.8102462" lon="-118.3938676">
  <ele>-15.355</ele>
  <time>2026-09-02T22:12:49Z</time>
  <course>187.06</course>
  <speed>0.4301162633521314</speed>
  <fix>3d</fix>
</trkpt>
<trkpt lat="33.8102469" lon="-118.3938675">
  <ele>-14.99</ele>
  <time>2026-09-02T22:12:49Z</time>
  <course>180.13</course>
  <speed>0.46</speed>
  <fix>3d</fix>
</trkpt>
<trkpt lat="33.8102458" lon="-118.3938676">
  <ele>-15.354</ele>
  <time>2026-09-02T22:12:49Z</time>
  <course>187.05</course>
  <speed>0.44011362169330775</speed>
  <fix>3d</fix>
</trkpt>
<trkpt lat="33.8102461" lon="-118.3938675">
  <ele>-14.99</ele>
  <time>2026-09-02T22:12:49Z</time>
  <course>180.01</course>
  <speed>0.46</speed>
  <fix>3d</fix>
</trkpt>
<trkpt lat="33.8102454" lon="-118.3938676">
  <ele>-15.354</ele>
  <time>2026-09-02T22:12:49Z</time>
  <course>187.05</course>
  <speed>0.44011362169330775</speed>
  <fix>3d</fix>
</trkpt>
<trkpt lat="33.8102461" lon="-118.3938675">
  <ele>-14.99</ele>
  <time>2026-09-02T22:12:49Z</time>
  <course>180.01</course>
  <speed>0.46</speed>
  <fix>3d</fix>
</trkpt>
<trkpt lat="33.8102449" lon="-118.3938676">
  <ele>-15.354</ele>
  <time>2026-09-02T22:12:49Z</time>
  <course>187.05</course>
  <speed>0.44011362169330775</speed>
  <fix>3d</fix>
</trkpt>
<trkpt lat="33.8102453" lon="-118.3938675">
  <ele>-14.99</ele>
  <time>2026-09-02T22:12:49Z</time>
  <course>179.94</course>
  <speed>0.46</speed>
  <fix>3d</fix>
</trkpt>
<trkpt lat="33.8102445" lon="-118.3938676">
  <ele>-15.354</ele>
  <time>2026-09-02T22:12:49Z</time>
  <course>187.04</course>
  <speed>0.44011362169330775</speed>
  <fix>3d</fix>
</trkpt>
<trkpt lat="33.8102453" lon="-118.3938675">
  <ele>-14.99</ele>
  <time>2026-09-02T22:12:49Z</time>
  <course>179.94</course>
  <speed>0.46</speed>
  <fix>3d</fix>
</trkpt>
<trkpt lat="33.8102441" lon="-118.3938676">
  <ele>-15.355</ele>
  <time>2026-09-02T22:12:49Z</time>
  <course>187.04</course>
  <speed>0.44011362169330775</speed>
  <fix>3d</fix>
</trkpt>
<trkpt lat="33.8102444" lon="-118.3938675">
  <ele>-14.99</ele>
  <time>2026-09-02T22:12:49Z</time>
  <course>179.93</course>
  <speed>0.46</speed>
  <fix>3d</fix>
</trkpt>
<trkpt lat="33.8102437" lon="-118.3938676">
  <ele>-15.357</ele>
  <time>2026-09-02T22:12:49Z</time>
  <course>187.03</course>
  <speed>0.44011362169330775</speed>
  <fix>3d</fix>
</trkpt>
<trkpt lat="33.8102444" lon="-118.3938675">
  <ele>-14.99</ele>
  <time>2026-09-02T22:12:49Z</time>
  <course>179.93</course>
  <speed>0.46</speed>
  <fix>3d</fix>
</trkpt>
<trkpt lat="33.8102433" lon="-118.3938676">
  <ele>-15.358</ele>
  <time>2026-09-02T22:12:49Z</time>
  <course>187.03</course>
  <speed>0.44011362169330775</speed>
  <fix>3d</fix>
</trkpt>
<trkpt lat="33.8102435" lon="-118.3938675">
  <ele>-14.99</ele>
  <time>2026-09-02T22:12:49Z</time>
  <course>179.91</course>
  <speed>0.46</speed>
  <fix>3d</fix>
</trkpt>
<trkpt lat="33.8102428" lon="-118.3938676">
  <ele>-15.358</ele>
  <time>2026-09-02T22:12:49Z</time>
  <course>187.03</course>
  <speed>0.44011362169330775</speed>
  <fix>3d</fix>
</trkpt>
<trkpt lat="33.8102435" lon="-118.3938675">
  <ele>-14.99</ele>
  <time>2026-09-02T22:12:49Z</time>
  <course>179.91</course>
  <speed>0.46</speed>
  <fix>3d</fix>
</trkpt>
<trkpt lat="33.8102424" lon="-118.3938676">
  <ele>-15.357</ele>
  <time>2026-09-02T22:12:49Z</time>
  <course>187.02</course>
  <speed>0.44011362169330775</speed>
  <fix>3d</fix>
</trkpt>
<trkpt lat="33.8102428" lon="-118.3938675">
  <ele>-14.99</ele>
  <time>2026-09-02T22:12:49Z</time>
  <course>179.88</course>
  <speed>0.46</speed>
  <fix>3d</fix>
</trkpt>
<trkpt lat="33.810242" lon="-118.3938676">
  <ele>-15.355</ele>
  <time>2026-09-02T22:12:49Z</time>
  <course>187.02</course>
  <speed>0.44011362169330775</speed>
  <fix>3d</fix>
</trkpt>
<trkpt lat="33.8102428" lon="-118.3938675">
  <ele>-14.99</ele>
  <time>2026-09-02T22:12:49Z</time>
  <course>179.88</course>
  <speed>0.46</speed>
  <fix>3d</fix>
</trkpt>
<trkpt lat="33.8102416" lon="-118.3938676">
  <ele>-15.354</ele>
  <time>2026-09-02T22:12:49Z</time>
  <course>187.02</course>
  <speed>0.44011362169330775</speed>
  <fix>3d</fix>
</trkpt>
<trkpt lat="33.8102419" lon="-118.3938675">
  <ele>-14.99</ele>
  <time>2026-09-02T22:12:49Z</time>
  <course>179.85</course>
  <speed>0.46</speed>
  <fix>3d</fix>
</trkpt>
<trkpt lat="33.8102412" lon="-118.3938676">
  <ele>-15.352</ele>
  <time>2026-09-02T22:12:49Z</time>
  <course>187.01</course>
  <speed>0.44011362169330775</speed>
  <fix>3d</fix>
</trkpt>
<trkpt lat="33.8102419" lon="-118.3938675">
  <ele>-14.99</ele>
  <time>2026-09-02T22:12:49Z</time>
  <course>179.85</course>
  <speed>0.46</speed>
  <fix>3d</fix>
</trkpt>
<trkpt lat="33.8102408" lon="-118.3938676">
  <ele>-15.35</ele>
  <time>2026-09-02T22:12:49Z</time>
  <course>187.01</course>
  <speed>0.44011362169330775</speed>
  <fix>3d</fix>
</trkpt>
<trkpt lat="33.8102411" lon="-118.3938675">
  <ele>-14.99</ele>
  <time>2026-09-02T22:12:49Z</time>
  <course>179.79</course>
  <speed>0.46</speed>
  <fix>3d</fix>
</trkpt>
<trkpt lat="33.8102403" lon="-118.3938676">
  <ele>-15.35</ele>
  <time>2026-09-02T22:12:49Z</time>
  <course>187.0</course>
  <speed>0.44011362169330775</speed>
  <fix>3d</fix>
</trkpt>
<trkpt lat="33.8102411" lon="-118.3938675">
  <ele>-14.99</ele>
  <time>2026-09-02T22:12:49Z</time>
  <course>179.79</course>
  <speed>0.46</speed>
  <fix>3d</fix>
</trkpt>
<trkpt lat="33.8102399" lon="-118.3938676">
  <ele>-15.351</ele>
  <time>2026-09-02T22:12:49Z</time>
  <course>187.0</course>
  <speed>0.44011362169330775</speed>
  <fix>3d</fix>
</trkpt>
<trkpt lat="33.8102402" lon="-118.3938675">
  <ele>-14.99</ele>
  <time>2026-09-02T22:12:49Z</time>
  <course>179.75</course>
  <speed>0.46</speed>
  <fix>3d</fix>
</trkpt>
<trkpt lat="33.8102395" lon="-118.3938676">
  <ele>-15.353</ele>
  <time>2026-09-02T22:12:49Z</time>
  <course>187.0</course>
  <speed>0.44011362169330775</speed>
  <fix>3d</fix>
</trkpt>
<trkpt lat="33.8102402" lon="-118.3938675">
  <ele>-14.99</ele>
  <time>2026-09-02T22:12:49Z</time>
  <course>179.75</course>
  <speed>0.46</speed>
  <fix>3d</fix>
</trkpt>
<trkpt lat="33.8102391" lon="-118.3938676">
  <ele>-15.353</ele>
  <time>2026-09-02T22:12:49Z</time>
  <course>186.99</course>
  <speed>0.44011362169330775</speed>
  <fix>3d</fix>
</trkpt>
<trkpt lat="33.8102394" lon="-118.3938675">
  <ele>-14.99</ele>
  <time>2026-09-02T22:12:49Z</time>
  <course>179.74</course>
  <speed>0.47</speed>
  <fix>3d</fix>
</trkpt>
<trkpt lat="33.8102387" lon="-118.3938676">
  <ele>-15.352</ele>
  <time>2026-09-02T22:12:49Z</time>
  <course>186.99</course>
  <speed>0.44011362169330775</speed>
  <fix>3d</fix>
</trkpt>
<trkpt lat="33.8102394" lon="-118.3938675">
  <ele>-14.99</ele>
  <time>2026-09-02T22:12:49Z</time>
  <course>179.74</course>
  <speed>0.47</speed>
  <fix>3d</fix>
</trkpt>
<trkpt lat="33.8102382" lon="-118.3938676">
  <ele>-15.35</ele>
  <time>2026-09-02T22:12:49Z</time>
  <course>186.98</course>
  <speed>0.44011362169330775</speed>
  <fix>3d</fix>
</trkpt>
<trkpt lat="33.8102385" lon="-118.3938675">
  <ele>-14.98</ele>
  <time>2026-09-02T22:12:49Z</time>
  <course>179.72</course>
  <speed>0.47</speed>
  <fix>3d</fix>
</trkpt>
<trkpt lat="33.8102378" lon="-118.3938676">
  <ele>-15.348</ele>
  <time>2026-09-02T22:12:49Z</time>
  <course>186.98</course>
  <speed>0.44011362169330775</speed>
  <fix>3d</fix>
</trkpt>
<trkpt lat="33.8102385" lon="-118.3938675">
  <ele>-14.98</ele>
  <time>2026-09-02T22:12:49Z</time>
  <course>179.72</course>
  <speed>0.47</speed>
  <fix>3d</fix>
</trkpt>
<trkpt lat="33.8102374" lon="-118.3938676">
  <ele>-15.345</ele>
  <time>2026-09-02T22:12:49Z</time>
  <course>186.98</course>
  <speed>0.44011362169330775</speed>
  <fix>3d</fix>
</trkpt>
<trkpt lat="33.8102377" lon="-118.3938675">
  <ele>-14.98</ele>
  <time>2026-09-02T22:12:49Z</time>
  <course>179.7</course>
  <speed>0.47</speed>
  <fix>3d</fix>
</trkpt>
<trkpt lat="33.810237" lon="-118.3938676">
  <ele>-15.344</ele>
  <time>2026-09-02T22:12:49Z</time>
  <course>186.98</course>
  <speed>0.44011362169330775</speed>
  <fix>3d</fix>
</trkpt>
<trkpt lat="33.8102377" lon="-118.3938675">
  <ele>-14.98</ele>
  <time>2026-09-02T22:12:49Z</time>
  <course>179.7</course>
  <speed>0.47</speed>
  <fix>3d</fix>
</trkpt>
<trkpt lat="33.8102365" lon="-118.3938676">
  <ele>-15.342</ele>
  <time>2026-09-02T22:12:49Z</time>
  <course>186.97</course>
  <speed>0.44011362169330775</speed>
  <fix>3d</fix>
</trkpt>
<trkpt lat="33.8102368" lon="-118.3938675">
  <ele>-14.98</ele>
  <time>2026-09-02T22:12:49Z</time>
  <course>179.67</course>
  <speed>0.47</speed>
  <fix>3d</fix>
</trkpt>
<trkpt lat="33.8102361" lon="-118.3938676">
  <ele>-15.342</ele>
  <time>2026-09-02T22:12:49Z</time>
  <course>186.97</course>
  <speed>0.44011362169330775</speed>
  <fix>3d</fix>
</trkpt>
<trkpt lat="33.8102368" lon="-118.3938675">
  <ele>-14.98</ele>
  <time>2026-09-02T22:12:49Z</time>
  <course>179.67</course>
  <speed>0.47</speed>
  <fix>3d</fix>
</trkpt>
<trkpt lat="33.8102357" lon="-118.3938676">
  <ele>-15.342</ele>
  <time>2026-09-02T22:12:49Z</time>
  <course>186.97</course>
  <speed>0.44011362169330775</speed>
  <fix>3d</fix>
</trkpt>
<trkpt lat="33.810236" lon="-118.3938675">
  <ele>-14.98</ele>
  <time>2026-09-02T22:12:49Z</time>
  <course>179.64</course>
  <speed>0.47</speed>
  <fix>3d</fix>
</trkpt>
<trkpt lat="33.8102353" lon="-118.3938676">
  <ele>-15.343</ele>
  <time>2026-09-02T22:12:49Z</time>
  <course>186.96</course>
  <speed>0.44011362169330775</speed>
  <fix>3d</fix>
</trkpt>
<trkpt lat="33.810236" lon="-118.3938675">
  <ele>-14.98</ele>
  <time>2026-09-02T22:12:49Z</time>
  <course>179.64</course>
  <speed>0.47</speed>
  <fix>3d</fix>
</trkpt>
<trkpt lat="33.8102348" lon="-118.3938676">
  <ele>-15.342</ele>
  <time>2026-09-02T22:12:49Z</time>
  <course>186.96</course>
  <speed>0.450111097397076</speed>
  <fix>3d</fix>
</trkpt>
<trkpt lat="33.8102351" lon="-118.3938675">
  <ele>-14.98</ele>
  <time>2026-09-02T22:12:49Z</time>
  <course>179.63</course>
  <speed>0.47</speed>
  <fix>3d</fix>
</trkpt>
<trkpt lat="33.8102344" lon="-118.3938676">
  <ele>-15.342</ele>
  <time>2026-09-02T22:12:49Z</time>
  <course>186.96</course>
  <speed>0.44011362169330775</speed>
  <fix>3d</fix>
</trkpt>
<trkpt lat="33.8102351" lon="-118.3938675">
  <ele>-14.98</ele>
  <time>2026-09-02T22:12:49Z</time>
  <course>179.63</course>
  <speed>0.47</speed>
  <fix>3d</fix>
</trkpt>
<trkpt lat="33.810234" lon="-118.3938676">
  <ele>-15.341</ele>
  <time>2026-09-02T22:12:49Z</time>
  <course>186.95</course>
  <speed>0.450111097397076</speed>
  <fix>3d</fix>
</trkpt>
<trkpt lat="33.8102343" lon="-118.3938675">
  <ele>-14.97</ele>
  <time>2026-09-02T22:12:49Z</time>
  <course>179.6</course>
  <speed>0.47</speed>
  <fix>3d</fix>
</trkpt>
<trkpt lat="33.8102336" lon="-118.3938676">
  <ele>-15.341</ele>
  <time>2026-09-02T22:12:49Z</time>
  <course>186.95</course>
  <speed>0.44011362169330775</speed>
  <fix>3d</fix>
</trkpt>
<trkpt lat="33.8102343" lon="-118.3938675">
  <ele>-14.97</ele>
  <time>2026-09-02T22:12:49Z</time>
  <course>179.6</course>
  <speed>0.47</speed>
  <fix>3d</fix>
</trkpt>
<trkpt lat="33.8102331" lon="-118.3938676">
  <ele>-15.339</ele>
  <time>2026-09-02T22:12:49Z</time>
  <course>186.95</course>
  <speed>0.450111097397076</speed>
  <fix>3d</fix>
</trkpt>
<trkpt lat="33.8102334" lon="-118.3938675">
  <ele>-14.97</ele>
  <time>2026-09-02T22:12:49Z</time>
  <course>179.59</course>
  <speed>0.47</speed>
  <fix>3d</fix>
</trkpt>
<trkpt lat="33.8102327" lon="-118.3938676">
  <ele>-15.338</ele>
  <time>2026-09-02T22:12:49Z</time>
  <course>186.94</course>
  <speed>0.450111097397076</speed>
  <fix>3d</fix>
</trkpt>
<trkpt lat="33.8102334" lon="-118.3938675">
  <ele>-14.97</ele>
  <time>2026-09-02T22:12:49Z</time>
  <course>179.59</course>
  <speed>0.47</speed>
  <fix>3d</fix>
</trkpt>
<trkpt lat="33.8102323" lon="-118.3938676">
  <ele>-15.338</ele>
  <time>2026-09-02T22:12:49Z</time>
  <course>186.94</course>
  <speed>0.450111097397076</speed>
  <fix>3d</fix>
</trkpt>
<trkpt lat="33.8102326" lon="-118.3938675">
  <ele>-14.97</ele>
  <time>2026-09-02T22:12:49Z</time>
  <course>179.58</course>
  <speed>0.47</speed>
  <fix>3d</fix>
</trkpt>
<trkpt lat="33.8102319" lon="-118.3938676">
  <ele>-15.337</ele>
  <time>2026-09-02T22:12:49Z</time>
  <course>186.94</course>
  <speed>0.450111097397076</speed>
  <fix>3d</fix>
</trkpt>
<trkpt lat="33.8102326" lon="-118.3938675">
  <ele>-14.97</ele>
  <time>2026-09-02T22:12:49Z</time>
  <course>179.58</course>
  <speed>0.47</speed>
  <fix>3d</fix>
</trkpt>
<trkpt lat="33.8102314" lon="-118.3938676">
  <ele>-15.336</ele>
  <time>2026-09-02T22:12:49Z</time>
  <course>186.94</course>
  <speed>0.450111097397076</speed>
  <fix>3d</fix>
</trkpt>
<trkpt lat="33.8102317" lon="-118.3938675">
  <ele>-14.97</ele>
  <time>2026-09-02T22:12:49Z</time>
  <course>179.56</course>
  <speed>0.47</speed>
  <fix>3d</fix>
</trkpt>
<trkpt lat="33.810231" lon="-118.3938676">
  <ele>-15.335</ele>
  <time>2026-09-02T22:12:49Z</time>
  <course>186.93</course>
  <speed>0.450111097397076</speed>
  <fix>3d</fix>
</trkpt>
<trkpt lat="33.8102317" lon="-118.3938675">
  <ele>-14.97</ele>
  <time>2026-09-02T22:12:49Z</time>
  <course>179.56</course>
  <speed>0.47</speed>
  <fix>3d</fix>
</trkpt>
<trkpt lat="33.8102306" lon="-118.3938676">
  <ele>-15.335</ele>
  <time>2026-09-02T22:12:49Z</time>
  <course>186.93</course>
  <speed>0.450111097397076</speed>
  <fix>3d</fix>
</trkpt>
<trkpt lat="33.8102308" lon="-118.3938675">
  <ele>-14.97</ele>
  <time>2026-09-02T22:12:49Z</time>
  <course>179.53</course>
  <speed>0.47</speed>
  <fix>3d</fix>
</trkpt>
<trkpt lat="33.8102301" lon="-118.3938676">
  <ele>-15.335</ele>
  <time>2026-09-02T22:12:49Z</time>
  <course>186.93</course>
  <speed>0.450111097397076</speed>
  <fix>3d</fix>
</trkpt>
<trkpt lat="33.8102308" lon="-118.3938675">
  <ele>-14.97</ele>
  <time>2026-09-02T22:12:49Z</time>
  <course>179.53</course>
  <speed>0.47</speed>
  <fix>3d</fix>
</trkpt>
<trkpt lat="33.8102297" lon="-118.3938676">
  <ele>-15.336</ele>
  <time>2026-09-02T22:12:49Z</time>
  <course>186.93</course>
  <speed>0.450111097397076</speed>
  <fix>3d</fix>
</trkpt>
<trkpt lat="33.81023" lon="-118.3938675">
  <ele>-14.97</ele>
  <time>2026-09-02T22:12:49Z</time>
  <course>179.5</course>
  <speed>0.47</speed>
  <fix>3d</fix>
</trkpt>
<trkpt lat="33.8102293" lon="-118.3938676">
  <ele>-15.336</ele>
  <time>2026-09-02T22:12:49Z</time>
  <course>186.93</course>
  <speed>0.450111097397076</speed>
  <fix>3d</fix>
</trkpt>
<trkpt lat="33.81023" lon="-118.3938675">
  <ele>-14.97</ele>
  <time>2026-09-02T22:12:49Z</time>
  <course>179.5</course>
  <speed>0.47</speed>
  <fix>3d</fix>
</trkpt>
<trkpt lat="33.8102289" lon="-118.3938676">
  <ele>-15.336</ele>
  <time>2026-09-02T22:12:49Z</time>
  <course>186.92</course>
  <speed>0.450111097397076</speed>
  <fix>3d</fix>
</trkpt>
<trkpt lat="33.8102291" lon="-118.3938675">
  <ele>-14.97</ele>
  <time>2026-09-02T22:12:49Z</time>
  <course>179.46</course>
  <speed>0.47</speed>
  <fix>3d</fix>
</trkpt>
<trkpt lat="33.8102284" lon="-118.3938676">
  <ele>-15.335</ele>
  <time>2026-09-02T22:12:49Z</time>
  <course>186.92</course>
  <speed>0.450111097397076</speed>
  <fix>3d</fix>
</trkpt>
<trkpt lat="33.8102291" lon="-118.3938675">
  <ele>-14.97</ele>
  <time>2026-09-02T22:12:49Z</time>
  <course>179.46</course>
  <speed>0.47</speed>
  <fix>3d</fix>
</trkpt>
<trkpt lat="33.810228" lon="-118.3938676">
  <ele>-15.333</ele>
  <time>2026-09-02T22:12:49Z</time>
  <course>186.91</course>
  <speed>0.450111097397076</speed>
  <fix>3d</fix>
</trkpt>
<trkpt lat="33.8102283" lon="-118.3938675">
  <ele>-14.97</ele>
  <time>2026-09-02T22:12:49Z</time>
  <course>179.44</course>
  <speed>0.47</speed>
  <fix>3d</fix>
</trkpt>
<trkpt lat="33.8102276" lon="-118.3938676">
  <ele>-15.332</ele>
  <time>2026-09-02T22:12:49Z</time>
  <course>186.91</course>
  <speed>0.450111097397076</speed>
  <fix>3d</fix>
</trkpt>
<trkpt lat="33.8102283" lon="-118.3938675">
  <ele>-14.97</ele>
  <time>2026-09-02T22:12:49Z</time>
  <course>179.44</course>
  <speed>0.47</speed>
  <fix>3d</fix>
</trkpt>
<trkpt lat="33.8102271" lon="-118.3938676">
  <ele>-15.329</ele>
  <time>2026-09-02T22:12:49Z</time>
  <course>186.91</course>
  <speed>0.450111097397076</speed>
  <fix>3d</fix>
</trkpt>
<trkpt lat="33.8102274" lon="-118.3938675">
  <ele>-14.96</ele>
  <time>2026-09-02T22:12:49Z</time>
  <course>179.42</course>
  <speed>0.47</speed>
  <fix>3d</fix>
</trkpt>
<trkpt lat="33.8102267" lon="-118.3938676">
  <ele>-15.327</ele>
  <time>2026-09-02T22:12:49Z</time>
  <course>186.91</course>
  <speed>0.450111097397076</speed>
  <fix>3d</fix>
</trkpt>
<trkpt lat="33.8102274" lon="-118.3938675">
  <ele>-14.96</ele>
  <time>2026-09-02T22:12:49Z</time>
  <course>179.42</course>
  <speed>0.47</speed>
  <fix>3d</fix>
</trkpt>
<trkpt lat="33.8102263" lon="-118.3938676">
  <ele>-15.325</ele>
  <time>2026-09-02T22:12:49Z</time>
  <course>186.91</course>
  <speed>0.450111097397076</speed>
  <fix>3d</fix>
</trkpt>
<trkpt lat="33.8102266" lon="-118.3938675">
  <ele>-14.96</ele>
  <time>2026-09-02T22:12:49Z</time>
  <course>179.4</course>
  <speed>0.47</speed>
  <fix>3d</fix>
</trkpt>
<trkpt lat="33.8102259" lon="-118.3938676">
  <ele>-15.323</ele>
  <time>2026-09-02T22:12:49Z</time>
  <course>186.9</course>
  <speed>0.450111097397076</speed>
  <fix>3d</fix>
</trkpt>
<trkpt lat="33.8102266" lon="-118.3938675">
  <ele>-14.96</ele>
  <time>2026-09-02T22:12:49Z</time>
  <course>179.4</course>
  <speed>0.47</speed>
  <fix>3d</fix>
</trkpt>
<trkpt lat="33.8102254" lon="-118.3938676">
  <ele>-15.323</ele>
  <time>2026-09-02T22:12:49Z</time>
  <course>186.9</course>
  <speed>0.450111097397076</speed>
  <fix>3d</fix>
</trkpt>
<trkpt lat="33.8102257" lon="-118.3938674">
  <ele>-14.96</ele>
  <time>2026-09-02T22:12:49Z</time>
  <course>179.39</course>
  <speed>0.47</speed>
  <fix>3d</fix>
</trkpt>
<trkpt lat="33.810225" lon="-118.3938676">
  <ele>-15.323</ele>
  <time>2026-09-02T22:12:49Z</time>
  <course>186.9</course>
  <speed>0.450111097397076</speed>
  <fix>3d</fix>
</trkpt>
<trkpt lat="33.8102257" lon="-118.3938674">
  <ele>-14.96</ele>
  <time>2026-09-02T22:12:49Z</time>
  <course>179.39</course>
  <speed>0.47</speed>
  <fix>3d</fix>
</trkpt>
<trkpt lat="33.8102246" lon="-118.3938676">
  <ele>-15.325</ele>
  <time>2026-09-02T22:12:49Z</time>
  <course>186.9</course>
  <speed>0.450111097397076</speed>
  <fix>3d</fix>
</trkpt>
<trkpt lat="33.8102248" lon="-118.3938674">
  <ele>-14.96</ele>
  <time>2026-09-02T22:12:49Z</time>
  <course>179.44</course>
  <speed>0.47</speed>
  <fix>3d</fix>
</trkpt>
<trkpt lat="33.8102241" lon="-118.3938676">
  <ele>-15.326</ele>
  <time>2026-09-02T22:12:49Z</time>
  <course>186.89</course>
  <speed>0.450111097397076</speed>
  <fix>3d</fix>
</trkpt>
<trkpt lat="33.8102248" lon="-118.3938674">
  <ele>-14.96</ele>
  <time>2026-09-02T22:12:49Z</time>
  <course>179.44</course>
  <speed>0.47</speed>
  <fix>3d</fix>
</trkpt>
<trkpt lat="33.8102237" lon="-118.3938676">
  <ele>-15.325</ele>
  <time>2026-09-02T22:12:49Z</time>
  <course>186.89</course>
  <speed>0.450111097397076</speed>
  <fix>3d</fix>
</trkpt>
<trkpt lat="33.810224" lon="-118.3938674">
  <ele>-14.96</ele>
  <time>2026-09-02T22:12:49Z</time>
  <course>179.58</course>
  <speed>0.47</speed>
  <fix>3d</fix>
</trkpt>
<trkpt lat="33.8102233" lon="-118.3938676">
  <ele>-15.325</ele>
  <time>2026-09-02T22:12:49Z</time>
  <course>186.89</course>
  <speed>0.450111097397076</speed>
  <fix>3d</fix>
</trkpt>
<trkpt lat="33.810224" lon="-118.3938674">
  <ele>-14.96</ele>
  <time>2026-09-02T22:12:49Z</time>
  <course>179.58</course>
  <speed>0.47</speed>
  <fix>3d</fix>
</trkpt>
<trkpt lat="33.8102228" lon="-118.3938676">
  <ele>-15.324</ele>
  <time>2026-09-02T22:12:49Z</time>
  <course>186.89</course>
  <speed>0.450111097397076</speed>
  <fix>3d</fix>
</trkpt>
<trkpt lat="33.8102231" lon="-118.3938674">
  <ele>-14.96</ele>
  <time>2026-09-02T22:12:49Z</time>
  <course>179.76</course>
  <speed>0.47</speed>
  <fix>3d</fix>
</trkpt>
<trkpt lat="33.8102224" lon="-118.3938676">
  <ele>-15.324</ele>
  <time>2026-09-02T22:12:49Z</time>
  <course>186.88</course>
  <speed>0.450111097397076</speed>
  <fix>3d</fix>
</trkpt>
<trkpt lat="33.8102231" lon="-118.3938674">
  <ele>-14.96</ele>
  <time>2026-09-02T22:12:49Z</time>
  <course>179.76</course>
  <speed>0.47</speed>
  <fix>3d</fix>
</trkpt>
<trkpt lat="33.810222" lon="-118.3938676">
  <ele>-15.324</ele>
  <time>2026-09-02T22:12:49Z</time>
  <course>186.88</course>
  <speed>0.450111097397076</speed>
  <fix>3d</fix>
</trkpt>
<trkpt lat="33.8102223" lon="-118.3938674">
  <ele>-14.96</ele>
  <time>2026-09-02T22:12:49Z</time>
  <course>179.91</course>
  <speed>0.47</speed>
  <fix>3d</fix>
</trkpt>
<trkpt lat="33.8102215" lon="-118.3938676">
  <ele>-15.324</ele>
  <time>2026-09-02T22:12:49Z</time>
  <course>186.88</course>
  <speed>0.450111097397076</speed>
  <fix>3d</fix>
</trkpt>
<trkpt lat="33.8102223" lon="-118.3938674">
  <ele>-14.96</ele>
  <time>2026-09-02T22:12:49Z</time>
  <course>179.91</course>
  <speed>0.47</speed>
  <fix>3d</fix>
</trkpt>
<trkpt lat="33.8102211" lon="-118.3938676">
  <ele>-15.322</ele>
  <time>2026-09-02T22:12:49Z</time>
  <course>186.88</course>
  <speed>0.450111097397076</speed>
  <fix>3d</fix>
</trkpt>
<trkpt lat="33.8102214" lon="-118.3938674">
  <ele>-14.96</ele>
  <time>2026-09-02T22:12:49Z</time>
  <course>180.03</course>
  <speed>0.47</speed>
  <fix>3d</fix>
</trkpt>
<trkpt lat="33.8102207" lon="-118.3938676">
  <ele>-15.32</ele>
  <time>2026-09-02T22:12:49Z</time>
  <course>186.87</course>
  <speed>0.450111097397076</speed>
  <fix>3d</fix>
</trkpt>
<trkpt lat="33.8102214" lon="-118.3938674">
  <ele>-14.96</ele>
  <time>2026-09-02T22:12:49Z</time>
  <course>180.03</course>
  <speed>0.47</speed>
  <fix>3d</fix>
</trkpt>
<trkpt lat="33.8102202" lon="-118.3938676">
  <ele>-15.319</ele>
  <time>2026-09-02T22:12:49Z</time>
  <course>186.87</course>
  <speed>0.450111097397076</speed>
  <fix>3d</fix>
</trkpt>
<trkpt lat="33.8102205" lon="-118.3938674">
  <ele>-14.96</ele>
  <time>2026-09-02T22:12:49Z</time>
  <course>180.11</course>
  <speed>0.48</speed>
  <fix>3d</fix>
</trkpt>
<trkpt lat="33.8102198" lon="-118.3938676">
  <ele>-15.318</ele>
  <time>2026-09-02T22:12:49Z</time>
  <course>186.87</course>
  <speed>0.450111097397076</speed>
  <fix>3d</fix>
</trkpt>
<trkpt lat="33.8102205" lon="-118.3938674">
  <ele>-14.96</ele>
  <time>2026-09-02T22:12:49Z</time>
  <course>180.11</course>
  <speed>0.48</speed>
  <fix>3d</fix>
</trkpt>
<trkpt lat="33.8102194" lon="-118.3938676">
  <ele>-15.318</ele>
  <time>2026-09-02T22:12:49Z</time>
  <course>186.87</course>
  <speed>0.450111097397076</speed>
  <fix>3d</fix>
</trkpt>
<trkpt lat="33.8102197" lon="-118.3938674">
  <ele>-14.96</ele>
  <time>2026-09-02T22:12:49Z</time>
  <course>180.16</course>
  <speed>0.48</speed>
  <fix>3d</fix>
</trkpt>
<trkpt lat="33.8102189" lon="-118.3938676">
  <ele>-15.317</ele>
  <time>2026-09-02T22:12:49Z</time>
  <course>186.87</course>
  <speed>0.450111097397076</speed>
  <fix>3d</fix>
</trkpt>
<trkpt lat="33.8102197" lon="-118.3938674">
  <ele>-14.96</ele>
  <time>2026-09-02T22:12:49Z</time>
  <course>180.16</course>
  <speed>0.48</speed>
  <fix>3d</fix>
</trkpt>
<trkpt lat="33.8102185" lon="-118.3938676">
  <ele>-15.317</ele>
  <time>2026-09-02T22:12:49Z</time>
  <course>186.86</course>
  <speed>0.46010868281309364</speed>
  <fix>3d</fix>
</trkpt>
<trkpt lat="33.8102188" lon="-118.3938674">
  <ele>-14.96</ele>
  <time>2026-09-02T22:12:49Z</time>
  <course>180.19</course>
  <speed>0.48</speed>
  <fix>3d</fix>
</trkpt>
<trkpt lat="33.8102181" lon="-118.3938676">
  <ele>-15.317</ele>
  <time>2026-09-02T22:12:49Z</time>
  <course>186.86</course>
  <speed>0.450111097397076</speed>
  <fix>3d</fix>
</trkpt>
<trkpt lat="33.8102188" lon="-118.3938674">
  <ele>-14.96</ele>
  <time>2026-09-02T22:12:49Z</time>
  <course>180.19</course>
  <speed>0.48</speed>
  <fix>3d</fix>
</trkpt>
<trkpt lat="33.8102176" lon="-118.3938676">
  <ele>-15.317</ele>
  <time>2026-09-02T22:12:49Z</time>
  <course>186.85</course>
  <speed>0.46010868281309364</speed>
  <fix>3d</fix>
</trkpt>
<trkpt lat="33.810218" lon="-118.3938674">
  <ele>-14.96</ele>
  <time>2026-09-02T22:12:49Z</time>
  <course>180.21</course>
  <speed>0.48</speed>
  <fix>3d</fix>
</trkpt>
<trkpt lat="33.8102172" lon="-118.3938676">
  <ele>-15.318</ele>
  <time>2026-09-02T22:12:49Z</time>
  <course>186.85</course>
  <speed>0.46010868281309364</speed>
  <fix>3d</fix>
</trkpt>
<trkpt lat="33.810218" lon="-118.3938674">
  <ele>-14.96</ele>
  <time>2026-09-02T22:12:49Z</time>
  <course>180.21</course>
  <speed>0.48</speed>
  <fix>3d</fix>
</trkpt>
<trkpt lat="33.8102168" lon="-118.3938676">
  <ele>-15.317</ele>
  <time>2026-09-02T22:12:49Z</time>
  <course>186.85</course>
  <speed>0.46010868281309364</speed>
  <fix>3d</fix>
</trkpt>
<trkpt lat="33.8102171" lon="-118.3938674">
  <ele>-14.95</ele>
  <time>2026-09-02T22:12:49Z</time>
  <course>180.22</course>
  <speed>0.48</speed>
  <fix>3d</fix>
</trkpt>
<trkpt lat="33.8102163" lon="-118.3938676">
  <ele>-15.317</ele>
  <time>2026-09-02T22:12:49Z</time>
  <course>186.85</course>
  <speed>0.46010868281309364</speed>
  <fix>3d</fix>
</trkpt>
<trkpt lat="33.8102171" lon="-118.3938674">
  <ele>-14.95</ele>
  <time>2026-09-02T22:12:49Z</time>
  <course>180.22</course>
  <speed>0.48</speed>
  <fix>3d</fix>
</trkpt>
<trkpt lat="33.8102159" lon="-118.3938676">
  <ele>-15.315</ele>
  <time>2026-09-02T22:12:49Z</time>
  <course>186.85</course>
  <speed>0.46010868281309364</speed>
  <fix>3d</fix>
</trkpt>
<trkpt lat="33.8102162" lon="-118.3938674">
  <ele>-14.95</ele>
  <time>2026-09-02T22:12:49Z</time>
  <course>180.25</course>
  <speed>0.48</speed>
  <fix>3d</fix>
</trkpt>
<trkpt lat="33.8102155" lon="-118.3938676">
  <ele>-15.314</ele>
  <time>2026-09-02T22:12:49Z</time>
  <course>186.85</course>
  <speed>0.46010868281309364</speed>
  <fix>3d</fix>
</trkpt>
<trkpt lat="33.8102162" lon="-118.3938674">
  <ele>-14.95</ele>
  <time>2026-09-02T22:12:49Z</time>
  <course>180.25</course>
  <speed>0.48</speed>
  <fix>3d</fix>
</trkpt>
<trkpt lat="33.810215" lon="-118.3938676">
  <ele>-15.313</ele>
  <time>2026-09-02T22:12:49Z</time>
  <course>186.85</course>
  <speed>0.46010868281309364</speed>
  <fix>3d</fix>
</trkpt>
<trkpt lat="33.8102154" lon="-118.3938674">
  <ele>-14.95</ele>
  <time>2026-09-02T22:12:49Z</time>
  <course>180.28</course>
  <speed>0.48</speed>
  <fix>3d</fix>
</trkpt>
<trkpt lat="33.8102146" lon="-118.3938676">
  <ele>-15.312</ele>
  <time>2026-09-02T22:12:49Z</time>
  <course>186.85</course>
  <speed>0.46010868281309364</speed>
  <fix>3d</fix>
</trkpt>
<trkpt lat="33.8102154" lon="-118.3938674">
  <ele>-14.95</ele>
  <time>2026-09-02T22:12:49Z</time>
  <course>180.28</course>
  <speed>0.48</speed>
  <fix>3d</fix>
</trkpt>
<trkpt lat="33.8102142" lon="-118.3938676">
  <ele>-15.31</ele>
  <time>2026-09-02T22:12:49Z</time>
  <course>186.84</course>
  <speed>0.46010868281309364</speed>
  <fix>3d</fix>
</trkpt>
<trkpt lat="33.8102145" lon="-118.3938674">
  <ele>-14.95</ele>
  <time>2026-09-02T22:12:49Z</time>
  <course>180.28</course>
  <speed>0.48</speed>
  <fix>3d</fix>
</trkpt>
<trkpt lat="33.8102137" lon="-118.3938676">
  <ele>-15.308</ele>
  <time>2026-09-02T22:12:49Z</time>
  <course>186.84</course>
  <speed>0.46010868281309364</speed>
  <fix>3d</fix>
</trkpt>
<trkpt lat="33.8102145" lon="-118.3938674">
  <ele>-14.95</ele>
  <time>2026-09-02T22:12:49Z</time>
  <course>180.28</course>
  <speed>0.48</speed>
  <fix>3d</fix>
</trkpt>
<trkpt lat="33.8102133" lon="-118.3938676">
  <ele>-15.307</ele>
  <time>2026-09-02T22:12:49Z</time>
  <course>186.84</course>
  <speed>0.46010868281309364</speed>
  <fix>3d</fix>
</trkpt>
<trkpt lat="33.8102136" lon="-118.3938674">
  <ele>-14.95</ele>
  <time>2026-09-02T22:12:49Z</time>
  <course>180.28</course>
  <speed>0.48</speed>
  <fix>3d</fix>
</trkpt>
<trkpt lat="33.8102128" lon="-118.3938676">
  <ele>-15.306</ele>
  <time>2026-09-02T22:12:49Z</time>
  <course>186.84</course>
  <speed>0.46010868281309364</speed>
  <fix>3d</fix>
</trkpt>
<trkpt lat="33.8102136" lon="-118.3938674">
  <ele>-14.95</ele>
  <time>2026-09-02T22:12:49Z</time>
  <course>180.28</course>
  <speed>0.48</speed>
  <fix>3d</fix>
</trkpt>
<trkpt lat="33.8102124" lon="-118.3938676">
  <ele>-15.306</ele>
  <time>2026-09-02T22:12:49Z</time>
  <course>186.84</course>
  <speed>0.46010868281309364</speed>
  <fix>3d</fix>
</trkpt>
<trkpt lat="33.8102127" lon="-118.3938674">
  <ele>-14.94</ele>
  <time>2026-09-02T22:12:49Z</time>
  <course>180.3</course>
  <speed>0.48</speed>
  <fix>3d</fix>
</trkpt>
<trkpt lat="33.810212" lon="-118.3938676">
  <ele>-15.305</ele>
  <time>2026-09-02T22:12:49Z</time>
  <course>186.83</course>
  <speed>0.46010868281309364</speed>
  <fix>3d</fix>
</trkpt>
<trkpt lat="33.8102127" lon="-118.3938674">
  <ele>-14.94</ele>
  <time>2026-09-02T22:12:49Z</time>
  <course>180.3</course>
  <speed>0.48</speed>
  <fix>3d</fix>
</trkpt>
<trkpt lat="33.8102115" lon="-118.3938676">
  <ele>-15.305</ele>
  <time>2026-09-02T22:12:49Z</time>
  <course>186.83</course>
  <speed>0.46010868281309364</speed>
  <fix>3d</fix>
</trkpt>
<trkpt lat="33.8102119" lon="-118.3938674">
  <ele>-14.94</ele>
  <time>2026-09-02T22:12:49Z</time>
  <course>180.33</course>
  <speed>0.48</speed>
  <fix>3d</fix>
</trkpt>
<trkpt lat="33.8102111" lon="-118.3938676">
  <ele>-15.303</ele>
  <time>2026-09-02T22:12:49Z</time>
  <course>186.83</course>
  <speed>0.46010868281309364</speed>
  <fix>3d</fix>
</trkpt>
<trkpt lat="33.8102119" lon="-118.3938674">
  <ele>-14.94</ele>
  <time>2026-09-02T22:12:49Z</time>
  <course>180.33</course>
  <speed>0.48</speed>
  <fix>3d</fix>
</trkpt>
<trkpt lat="33.8102106" lon="-118.3938676">
  <ele>-15.302</ele>
  <time>2026-09-02T22:12:49Z</time>
  <course>186.83</course>
  <speed>0.46010868281309364</speed>
  <fix>3d</fix>
</trkpt>
<trkpt lat="33.810211" lon="-118.3938674">
  <ele>-14.94</ele>
  <time>2026-09-02T22:12:49Z</time>
  <course>180.37</course>
  <speed>0.48</speed>
  <fix>3d</fix>
</trkpt>
<trkpt lat="33.8102102" lon="-118.3938676">
  <ele>-15.3</ele>
  <time>2026-09-02T22:12:49Z</time>
  <course>186.83</course>
  <speed>0.46010868281309364</speed>
  <fix>3d</fix>
</trkpt>
<trkpt lat="33.810211" lon="-118.3938674">
  <ele>-14.94</ele>
  <time>2026-09-02T22:12:49Z</time>
  <course>180.37</course>
  <speed>0.48</speed>
  <fix>3d</fix>
</trkpt>
<trkpt lat="33.8102098" lon="-118.3938676">
  <ele>-15.299</ele>
  <time>2026-09-02T22:12:49Z</time>
  <course>186.83</course>
  <speed>0.46010868281309364</speed>
  <fix>3d</fix>
</trkpt>
<trkpt lat="33.8102101" lon="-118.3938674">
  <ele>-14.94</ele>
  <time>2026-09-02T22:12:49Z</time>
  <course>180.42</course>
  <speed>0.49</speed>
  <fix>3d</fix>
</trkpt>
<trkpt lat="33.8102093" lon="-118.3938676">
  <ele>-15.299</ele>
  <time>2026-09-02T22:12:49Z</time>
  <course>186.82</course>
  <speed>0.46010868281309364</speed>
  <fix>3d</fix>
</trkpt>
<trkpt lat="33.8102101" lon="-118.3938674">
  <ele>-14.94</ele>
  <time>2026-09-02T22:12:49Z</time>
  <course>180.42</course>
  <speed>0.49</speed>
  <fix>3d</fix>
</trkpt>
<trkpt lat="33.8102089" lon="-118.3938676">
  <ele>-15.299</ele>
  <time>2026-09-02T22:12:49Z</time>
  <course>186.82</course>
  <speed>0.46010868281309364</speed>
  <fix>3d</fix>
</trkpt>
<trkpt lat="33.8102092" lon="-118.3938674">
  <ele>-14.95</ele>
  <time>2026-09-02T22:12:49Z</time>
  <course>180.45</course>
  <speed>0.49</speed>
  <fix>3d</fix>
</trkpt>
<trkpt lat="33.8102085" lon="-118.3938676">
  <ele>-15.3</ele>
  <time>2026-09-02T22:12:49Z</time>
  <course>186.82</course>
  <speed>0.46010868281309364</speed>
  <fix>3d</fix>
</trkpt>
<trkpt lat="33.8102092" lon="-118.3938674">
  <ele>-14.95</ele>
  <time>2026-09-02T22:12:49Z</time>
  <course>180.45</course>
  <speed>0.49</speed>
  <fix>3d</fix>
</trkpt>
<trkpt lat="33.810208" lon="-118.3938676">
  <ele>-15.301</ele>
  <time>2026-09-02T22:12:49Z</time>
  <course>186.82</course>
  <speed>0.46010868281309364</speed>
  <fix>3d</fix>
</trkpt>
<trkpt lat="33.8102083" lon="-118.3938674">
  <ele>-14.95</ele>
  <time>2026-09-02T22:12:49Z</time>
  <course>180.47</course>
  <speed>0.49</speed>
  <fix>3d</fix>
</trkpt>
<trkpt lat="33.8102076" lon="-118.3938676">
  <ele>-15.301</ele>
  <time>2026-09-02T22:12:49Z</time>
  <course>186.82</course>
  <speed>0.46010868281309364</speed>
  <fix>3d</fix>
</trkpt>
<trkpt lat="33.8102083" lon="-118.3938674">
  <ele>-14.95</ele>
  <time>2026-09-02T22:12:49Z</time>
  <course>180.47</course>
  <speed>0.49</speed>
  <fix>3d</fix>
</trkpt>
<trkpt lat="33.8102071" lon="-118.3938676">
  <ele>-15.302</ele>
  <time>2026-09-02T22:12:49Z</time>
  <course>186.82</course>
  <speed>0.46010868281309364</speed>
  <fix>3d</fix>
</trkpt>
<trkpt lat="33.8102075" lon="-118.3938674">
  <ele>-14.95</ele>
  <time>2026-09-02T22:12:49Z</time>
  <course>180.48</course>
  <speed>0.49</speed>
  <fix>3d</fix>
</trkpt>
<trkpt lat="33.8102067" lon="-118.3938676">
  <ele>-15.302</ele>
  <time>2026-09-02T22:12:49Z</time>
  <course>186.81</course>
  <speed>0.46010868281309364</speed>
  <fix>3d</fix>
</trkpt>
<trkpt lat="33.8102075" lon="-118.3938674">
  <ele>-14.95</ele>
  <time>2026-09-02T22:12:49Z</time>
  <course>180.48</course>
  <speed>0.49</speed>
  <fix>3d</fix>
</trkpt>
<trkpt lat="33.8102062" lon="-118.3938676">
  <ele>-15.303</ele>
  <time>2026-09-02T22:12:49Z</time>
  <course>186.81</course>
  <speed>0.46010868281309364</speed>
  <fix>3d</fix>
</trkpt>
<trkpt lat="33.8102066" lon="-118.3938674">
  <ele>-14.95</ele>
  <time>2026-09-02T22:12:49Z</time>
  <course>180.5</course>
  <speed>0.49</speed>
  <fix>3d</fix>
</trkpt>
<trkpt lat="33.8102058" lon="-118.3938676">
  <ele>-15.303</ele>
  <time>2026-09-02T22:12:49Z</time>
  <course>186.81</course>
  <speed>0.46010868281309364</speed>
  <fix>3d</fix>
</trkpt>
<trkpt lat="33.8102066" lon="-118.3938674">
  <ele>-14.95</ele>
  <time>2026-09-02T22:12:49Z</time>
  <course>180.5</course>
  <speed>0.49</speed>
  <fix>3d</fix>
</trkpt>
<trkpt lat="33.8102054" lon="-118.3938676">
  <ele>-15.303</ele>
  <time>2026-09-02T22:12:49Z</time>
  <course>186.81</course>
  <speed>0.46010868281309364</speed>
  <fix>3d</fix>
</trkpt>
<trkpt lat="33.8102057" lon="-118.3938674">
  <ele>-14.95</ele>
  <time>2026-09-02T22:12:49Z</time>
  <course>180.51</course>
  <speed>0.49</speed>
  <fix>3d</fix>
</trkpt>
<trkpt lat="33.8102049" lon="-118.3938676">
  <ele>-15.303</ele>
  <time>2026-09-02T22:12:49Z</time>
  <course>186.81</course>
  <speed>0.46010868281309364</speed>
  <fix>3d</fix>
</trkpt>
<trkpt lat="33.8102057" lon="-118.3938674">
  <ele>-14.95</ele>
  <time>2026-09-02T22:12:49Z</time>
  <course>180.51</course>
  <speed>0.49</speed>
  <fix>3d</fix>
</trkpt>
<trkpt lat="33.8102045" lon="-118.3938676">
  <ele>-15.303</ele>
  <time>2026-09-02T22:12:49Z</time>
  <course>186.81</course>
  <speed>0.46010868281309364</speed>
  <fix>3d</fix>
</trkpt>
<trkpt lat="33.8102048" lon="-118.3938674">
  <ele>-14.94</ele>
  <time>2026-09-02T22:12:49Z</time>
  <course>180.5</course>
  <speed>0.49</speed>
  <fix>3d</fix>
</trkpt>
<trkpt lat="33.810204" lon="-118.3938676">
  <ele>-15.302</ele>
  <time>2026-09-02T22:12:49Z</time>
  <course>186.8</course>
  <speed>0.46010868281309364</speed>
  <fix>3d</fix>
</trkpt>
<trkpt lat="33.8102048" lon="-118.3938674">
  <ele>-14.94</ele>
  <time>2026-09-02T22:12:49Z</time>
  <course>180.5</course>
  <speed>0.49</speed>
  <fix>3d</fix>
</trkpt>
<trkpt lat="33.8102036" lon="-118.3938676">
  <ele>-15.301</ele>
  <time>2026-09-02T22:12:49Z</time>
  <course>186.8</course>
  <speed>0.46010868281309364</speed>
  <fix>3d</fix>
</trkpt>
<trkpt lat="33.8102039" lon="-118.3938674">
  <ele>-14.94</ele>
  <time>2026-09-02T22:12:49Z</time>
  <course>180.5</course>
  <speed>0.49</speed>
  <fix>3d</fix>
</trkpt>
<trkpt lat="33.8102032" lon="-118.3938676">
  <ele>-15.3</ele>
  <time>2026-09-02T22:12:49Z</time>
  <course>186.8</course>
  <speed>0.46010868281309364</speed>
  <fix>3d</fix>
</trkpt>
<trkpt lat="33.8102039" lon="-118.3938674">
  <ele>-14.94</ele>
  <time>2026-09-02T22:12:49Z</time>
  <course>180.5</course>
  <speed>0.49</speed>
  <fix>3d</fix>
</trkpt>
<trkpt lat="33.8102027" lon="-118.3938676">
  <ele>-15.298</ele>
  <time>2026-09-02T22:12:49Z</time>
  <course>186.8</course>
  <speed>0.46010868281309364</speed>
  <fix>3d</fix>
</trkpt>
<trkpt lat="33.810203" lon="-118.3938674">
  <ele>-14.93</ele>
  <time>2026-09-02T22:12:49Z</time>
  <course>180.53</course>
  <speed>0.49</speed>
  <fix>3d</fix>
</trkpt>
<trkpt lat="33.8102023" lon="-118.3938676">
  <ele>-15.296</ele>
  <time>2026-09-02T22:12:49Z</time>
  <course>186.8</course>
  <speed>0.46010868281309364</speed>
  <fix>3d</fix>
</trkpt>
<trkpt lat="33.810203" lon="-118.3938674">
  <ele>-14.93</ele>
  <time>2026-09-02T22:12:49Z</time>
  <course>180.53</course>
  <speed>0.49</speed>
  <fix>3d</fix>
</trkpt>
<trkpt lat="33.8102018" lon="-118.3938676">
  <ele>-15.294</ele>
  <time>2026-09-02T22:12:49Z</time>
  <course>186.8</course>
  <speed>0.46010868281309364</speed>
  <fix>3d</fix>
</trkpt>
<trkpt lat="33.8102022" lon="-118.3938675">
  <ele>-14.93</ele>
  <time>2026-09-02T22:12:49Z</time>
  <course>180.58</course>
  <speed>0.49</speed>
  <fix>3d</fix>
</trkpt>
<trkpt lat="33.8102014" lon="-118.3938676">
  <ele>-15.292</ele>
  <time>2026-09-02T22:12:49Z</time>
  <course>186.8</course>
  <speed>0.46010868281309364</speed>
  <fix>3d</fix>
</trkpt>
<trkpt lat="33.8102022" lon="-118.3938675">
  <ele>-14.93</ele>
  <time>2026-09-02T22:12:49Z</time>
  <course>180.58</course>
  <speed>0.49</speed>
  <fix>3d</fix>
</trkpt>
<trkpt lat="33.8102009" lon="-118.3938676">
  <ele>-15.29</ele>
  <time>2026-09-02T22:12:49Z</time>
  <course>186.79</course>
  <speed>0.46010868281309364</speed>
  <fix>3d</fix>
</trkpt>
<trkpt lat="33.8102013" lon="-118.3938675">
  <ele>-14.92</ele>
  <time>2026-09-02T22:12:49Z</time>
  <course>180.54</course>
  <speed>0.49</speed>
  <fix>3d</fix>
</trkpt>
<trkpt lat="33.8102005" lon="-118.3938676">
  <ele>-15.288</ele>
  <time>2026-09-02T22:12:49Z</time>
  <course>186.79</course>
  <speed>0.46010868281309364</speed>
  <fix>3d</fix>
</trkpt>
<trkpt lat="33.8102013" lon="-118.3938675">
  <ele>-14.92</ele>
  <time>2026-09-02T22:12:49Z</time>
  <course>180.54</course>
  <speed>0.49</speed>
  <fix>3d</fix>
</trkpt>
<trkpt lat="33.8102001" lon="-118.3938676">
  <ele>-15.287</ele>
  <time>2026-09-02T22:12:49Z</time>
  <course>186.79</course>
  <speed>0.46010868281309364</speed>
  <fix>3d</fix>
</trkpt>
<trkpt lat="33.8102004" lon="-118.3938675">
  <ele>-14.92</ele>
  <time>2026-09-02T22:12:49Z</time>
  <course>180.38</course>
  <speed>0.49</speed>
  <fix>3d</fix>
</trkpt>
<trkpt lat="33.8101996" lon="-118.3938676">
  <ele>-15.286</ele>
  <time>2026-09-02T22:12:49Z</time>
  <course>186.79</course>
  <speed>0.46010868281309364</speed>
  <fix>3d</fix>
</trkpt>
<trkpt lat="33.8102004" lon="-118.3938675">
  <ele>-14.92</ele>
  <time>2026-09-02T22:12:49Z</time>
  <course>180.38</course>
  <speed>0.49</speed>
  <fix>3d</fix>
</trkpt>
<trkpt lat="33.8101992" lon="-118.3938676">
  <ele>-15.285</ele>
  <time>2026-09-02T22:12:49Z</time>
  <course>186.79</course>
  <speed>0.47010637094172636</speed>
  <fix>3d</fix>
</trkpt>
<trkpt lat="33.8101995" lon="-118.3938675">
  <ele>-14.91</ele>
  <time>2026-09-02T22:12:49Z</time>
  <course>180.21</course>
  <speed>0.49</speed>
  <fix>3d</fix>
</trkpt>
<trkpt lat="33.8101987" lon="-118.3938676">
  <ele>-15.285</ele>
  <time>2026-09-02T22:12:49Z</time>
  <course>186.79</course>
  <speed>0.47010637094172636</speed>
  <fix>3d</fix>
</trkpt>
<trkpt lat="33.8101995" lon="-118.3938675">
  <ele>-14.91</ele>
  <time>2026-09-02T22:12:49Z</time>
  <course>180.21</course>
  <speed>0.49</speed>
  <fix>3d</fix>
</trkpt>
<trkpt lat="33.8101983" lon="-118.3938676">
  <ele>-15.285</ele>
  <time>2026-09-02T22:12:49Z</time>
  <course>186.79</course>
  <speed>0.47010637094172636</speed>
  <fix>3d</fix>
</trkpt>
<trkpt lat="33.8101986" lon="-118.3938675">
  <ele>-14.91</ele>
  <time>2026-09-02T22:12:49Z</time>
  <course>180.06</course>
  <speed>0.49</speed>
  <fix>3d</fix>
</trkpt>
<trkpt lat="33.8101978" lon="-118.3938676">
  <ele>-15.284</ele>
  <time>2026-09-02T22:12:49Z</time>
  <course>186.79</course>
  <speed>0.47010637094172636</speed>
  <fix>3d</fix>
</trkpt>
<trkpt lat="33.8101986" lon="-118.3938675">
  <ele>-14.91</ele>
  <time>2026-09-02T22:12:49Z</time>
  <course>180.06</course>
  <speed>0.49</speed>
  <fix>3d</fix>
</trkpt>
<trkpt lat="33.8101974" lon="-118.3938676">
  <ele>-15.284</ele>
  <time>2026-09-02T22:12:49Z</time>
  <course>186.79</course>
  <speed>0.47010637094172636</speed>
  <fix>3d</fix>
</trkpt>
<trkpt lat="33.8101977" lon="-118.3938675">
  <ele>-14.91</ele>
  <time>2026-09-02T22:12:49Z</time>
  <course>179.96</course>
  <speed>0.49</speed>
  <fix>3d</fix>
</trkpt>
<trkpt lat="33.8101969" lon="-118.3938676">
  <ele>-15.283</ele>
  <time>2026-09-02T22:12:49Z</time>
  <course>186.78</course>
  <speed>0.47010637094172636</speed>
  <fix>3d</fix>
</trkpt>
<trkpt lat="33.8101977" lon="-118.3938675">
  <ele>-14.91</ele>
  <time>2026-09-02T22:12:49Z</time>
  <course>179.96</course>
  <speed>0.49</speed>
  <fix>3d</fix>
</trkpt>
<trkpt lat="33.8101965" lon="-118.3938676">
  <ele>-15.281</ele>
  <time>2026-09-02T22:12:49Z</time>
  <course>186.78</course>
  <speed>0.47010637094172636</speed>
  <fix>3d</fix>
</trkpt>
<trkpt lat="33.8101968" lon="-118.3938675">
  <ele>-14.91</ele>
  <time>2026-09-02T22:12:49Z</time>
  <course>179.9</course>
  <speed>0.49</speed>
  <fix>3d</fix>
</trkpt>
<trkpt lat="33.8101961" lon="-118.3938676">
  <ele>-15.279</ele>
  <time>2026-09-02T22:12:49Z</time>
  <course>186.78</course>
  <speed>0.47010637094172636</speed>
  <fix>3d</fix>
</trkpt>
<trkpt lat="33.8101968" lon="-118.3938675">
  <ele>-14.91</ele>
  <time>2026-09-02T22:12:49Z</time>
  <course>179.9</course>
  <speed>0.49</speed>
  <fix>3d</fix>
</trkpt>
<trkpt lat="33.8101956" lon="-118.3938676">
  <ele>-15.277</ele>
  <time>2026-09-02T22:12:49Z</time>
  <course>186.78</course>
  <speed>0.47010637094172636</speed>
  <fix>3d</fix>
</trkpt>
<trkpt lat="33.8101959" lon="-118.3938675">
  <ele>-14.91</ele>
  <time>2026-09-02T22:12:49Z</time>
  <course>179.86</course>
  <speed>0.49</speed>
  <fix>3d</fix>
</trkpt>
<trkpt lat="33.8101952" lon="-118.3938676">
  <ele>-15.275</ele>
  <time>2026-09-02T22:12:49Z</time>
  <course>186.78</course>
  <speed>0.46010868281309364</speed>
  <fix>3d</fix>
</trkpt>
<trkpt lat="33.8101959" lon="-118.3938675">
  <ele>-14.91</ele>
  <time>2026-09-02T22:12:49Z</time>
  <course>179.86</course>
  <speed>0.49</speed>
  <fix>3d</fix>
</trkpt>
<trkpt lat="33.8101947" lon="-118.3938676">
  <ele>-15.274</ele>
  <time>2026-09-02T22:12:49Z</time>
  <course>186.78</course>
  <speed>0.47010637094172636</speed>
  <fix>3d</fix>
</trkpt>
<trkpt lat="33.8101951" lon="-118.3938675">
  <ele>-14.91</ele>
  <time>2026-09-02T22:12:49Z</time>
  <course>179.82</course>
  <speed>0.49</speed>
  <fix>3d</fix>
</trkpt>
<trkpt lat="33.8101943" lon="-118.3938676">
  <ele>-15.273</ele>
  <time>2026-09-02T22:12:49Z</time>
  <course>186.78</course>
  <speed>0.47010637094172636</speed>
  <fix>3d</fix>
</trkpt>
<trkpt lat="33.8101951" lon="-118.3938675">
  <ele>-14.91</ele>
  <time>2026-09-02T22:12:49Z</time>
  <course>179.82</course>
  <speed>0.49</speed>
  <fix>3d</fix>
</trkpt>
<trkpt lat="33.8101938" lon="-118.3938676">
  <ele>-15.273</ele>
  <time>2026-09-02T22:12:49Z</time>
  <course>186.78</course>
  <speed>0.47010637094172636</speed>
  <fix>3d</fix>
</trkpt>
<trkpt lat="33.8101942" lon="-118.3938675">
  <ele>-14.91</ele>
  <time>2026-09-02T22:12:49Z</time>
  <course>179.8</course>
  <speed>0.49</speed>
  <fix>3d</fix>
</trkpt>
<trkpt lat="33.8101934" lon="-118.3938676">
  <ele>-15.274</ele>
  <time>2026-09-02T22:12:49Z</time>
  <course>186.78</course>
  <speed>0.47010637094172636</speed>
  <fix>3d</fix>
</trkpt>
<trkpt lat="33.8101942" lon="-118.3938675">
  <ele>-14.91</ele>
  <time>2026-09-02T22:12:49Z</time>
  <course>179.8</course>
  <speed>0.49</speed>
  <fix>3d</fix>
</trkpt>
<trkpt lat="33.8101929" lon="-118.3938676">
  <ele>-15.275</ele>
  <time>2026-09-02T22:12:49Z</time>
  <course>186.78</course>
  <speed>0.47010637094172636</speed>
  <fix>3d</fix>
</trkpt>
<trkpt lat="33.8101933" lon="-118.3938675">
  <ele>-14.91</ele>
  <time>2026-09-02T22:12:49Z</time>
  <course>179.78</course>
  <speed>0.49</speed>
  <fix>3d</fix>
</trkpt>
<trkpt lat="33.8101925" lon="-118.3938676">
  <ele>-15.278</ele>
  <time>2026-09-02T22:12:49Z</time>
  <course>186.77</course>
  <speed>0.47010637094172636</speed>
  <fix>3d</fix>
</trkpt>
<trkpt lat="33.8101933" lon="-118.3938675">
  <ele>-14.91</ele>
  <time>2026-09-02T22:12:49Z</time>
  <course>179.78</course>
  <speed>0.49</speed>
  <fix>3d</fix>
</trkpt>
<trkpt lat="33.8101921" lon="-118.3938676">
  <ele>-15.28</ele>
  <time>2026-09-02T22:12:49Z</time>
  <course>186.77</course>
  <speed>0.47010637094172636</speed>
  <fix>3d</fix>
</trkpt>
<trkpt lat="33.8101924" lon="-118.3938675">
  <ele>-14.92</ele>
  <time>2026-09-02T22:12:49Z</time>
  <course>179.74</course>
  <speed>0.49</speed>
  <fix>3d</fix>
</trkpt>
<trkpt lat="33.8101916" lon="-118.3938676">
  <ele>-15.282</ele>
  <time>2026-09-02T22:12:49Z</time>
  <course>186.77</course>
  <speed>0.47010637094172636</speed>
  <fix>3d</fix>
</trkpt>
<trkpt lat="33.8101924" lon="-118.3938675">
  <ele>-14.92</ele>
  <time>2026-09-02T22:12:49Z</time>
  <course>179.74</course>
  <speed>0.49</speed>
  <fix>3d</fix>
</trkpt>
<trkpt lat="33.8101912" lon="-118.3938676">
  <ele>-15.281</ele>
  <time>2026-09-02T22:12:49Z</time>
  <course>186.76</course>
  <speed>0.47010637094172636</speed>
  <fix>3d</fix>
</trkpt>
<trkpt lat="33.8101915" lon="-118.3938675">
  <ele>-14.92</ele>
  <time>2026-09-02T22:12:49Z</time>
  <course>179.72</course>
  <speed>0.49</speed>
  <fix>3d</fix>
</trkpt>
<trkpt lat="33.8101907" lon="-118.3938676">
  <ele>-15.281</ele>
  <time>2026-09-02T22:12:49Z</time>
  <course>186.76</course>
  <speed>0.47010637094172636</speed>
  <fix>3d</fix>
</trkpt>
<trkpt lat="33.8101915" lon="-118.3938675">
  <ele>-14.92</ele>
  <time>2026-09-02T22:12:49Z</time>
  <course>179.72</course>
  <speed>0.49</speed>
  <fix>3d</fix>
</trkpt>
<trkpt lat="33.8101903" lon="-118.3938676">
  <ele>-15.279</ele>
  <time>2026-09-02T22:12:49Z</time>
  <course>186.76</course>
  <speed>0.47010637094172636</speed>
  <fix>3d</fix>
</trkpt>
<trkpt lat="33.8101906" lon="-118.3938675">
  <ele>-14.92</ele>
  <time>2026-09-02T22:12:49Z</time>
  <course>179.71</course>
  <speed>0.49</speed>
  <fix>3d</fix>
</trkpt>
<trkpt lat="33.8101898" lon="-118.3938676">
  <ele>-15.276</ele>
  <time>2026-09-02T22:12:49Z</time>
  <course>186.76</course>
  <speed>0.47010637094172636</speed>
  <fix>3d</fix>
</trkpt>
<trkpt lat="33.8101906" lon="-118.3938675">
  <ele>-14.92</ele>
  <time>2026-09-02T22:12:49Z</time>
  <course>179.71</course>
  <speed>0.49</speed>
  <fix>3d</fix>
</trkpt>
<trkpt lat="33.8101894" lon="-118.3938676">
  <ele>-15.273</ele>
  <time>2026-09-02T22:12:49Z</time>
  <course>186.76</course>
  <speed>0.47010637094172636</speed>
  <fix>3d</fix>
</trkpt>
<trkpt lat="33.8101897" lon="-118.3938675">
  <ele>-14.91</ele>
  <time>2026-09-02T22:12:49Z</time>
  <course>179.69</course>
  <speed>0.49</speed>
  <fix>3d</fix>
</trkpt>
<trkpt lat="33.8101889" lon="-118.3938676">
  <ele>-15.269</ele>
  <time>2026-09-02T22:12:49Z</time>
  <course>186.76</course>
  <speed>0.47010637094172636</speed>
  <fix>3d</fix>
</trkpt>
<trkpt lat="33.8101897" lon="-118.3938675">
  <ele>-14.91</ele>
  <time>2026-09-02T22:12:49Z</time>
  <course>179.69</course>
  <speed>0.49</speed>
  <fix>3d</fix>
</trkpt>
<trkpt lat="33.8101885" lon="-118.3938676">
  <ele>-15.267</ele>
  <time>2026-09-02T22:12:49Z</time>
  <course>186.76</course>
  <speed>0.47010637094172636</speed>
  <fix>3d</fix>
</trkpt>
<trkpt lat="33.8101888" lon="-118.3938675">
  <ele>-14.91</ele>
  <time>2026-09-02T22:12:49Z</time>
  <course>179.65</course>
  <speed>0.49</speed>
  <fix>3d</fix>
</trkpt>
<trkpt lat="33.810188" lon="-118.3938676">
  <ele>-15.266</ele>
  <time>2026-09-02T22:12:49Z</time>
  <course>186.76</course>
  <speed>0.47010637094172636</speed>
  <fix>3d</fix>
</trkpt>
<trkpt lat="33.8101888" lon="-118.3938675">
  <ele>-14.91</ele>
  <time>2026-09-02T22:12:49Z</time>
  <course>179.65</course>
  <speed>0.49</speed>
  <fix>3d</fix>
</trkpt>
<trkpt lat="33.8101876" lon="-118.3938676">
  <ele>-15.267</ele>
  <time>2026-09-02T22:12:49Z</time>
  <course>186.75</course>
  <speed>0.47010637094172636</speed>
  <fix>3d</fix>
</trkpt>
<trkpt lat="33.8101879" lon="-118.3938675">
  <ele>-14.91</ele>
  <time>2026-09-02T22:12:49Z</time>
  <course>179.61</course>
  <speed>0.49</speed>
  <fix>3d</fix>
</trkpt>
<trkpt lat="33.8101871" lon="-118.3938676">
  <ele>-15.268</ele>
  <time>2026-09-02T22:12:49Z</time>
  <course>186.76</course>
  <speed>0.47010637094172636</speed>
  <fix>3d</fix>
</trkpt>
<trkpt lat="33.8101879" lon="-118.3938675">
  <ele>-14.91</ele>
  <time>2026-09-02T22:12:49Z</time>
  <course>179.61</course>
  <speed>0.49</speed>
  <fix>3d</fix>
</trkpt>
<trkpt lat="33.8101867" lon="-118.3938676">
  <ele>-15.269</ele>
  <time>2026-09-02T22:12:49Z</time>
  <course>186.76</course>
  <speed>0.47010637094172636</speed>
  <fix>3d</fix>
</trkpt>
<trkpt lat="33.810187" lon="-118.3938675">
  <ele>-14.91</ele>
  <time>2026-09-02T22:12:49Z</time>
  <course>179.58</course>
  <speed>0.49</speed>
  <fix>3d</fix>
</trkpt>
<trkpt lat="33.8101862" lon="-118.3938676">
  <ele>-15.269</ele>
  <time>2026-09-02T22:12:49Z</time>
  <course>186.76</course>
  <speed>0.47010637094172636</speed>
  <fix>3d</fix>
</trkpt>
<trkpt lat="33.810187" lon="-118.3938675">
  <ele>-14.91</ele>
  <time>2026-09-02T22:12:49Z</time>
  <course>179.58</course>
  <speed>0.49</speed>
  <fix>3d</fix>
</trkpt>
<trkpt lat="33.8101858" lon="-118.3938676">
  <ele>-15.268</ele>
  <time>2026-09-02T22:12:49Z</time>
  <course>186.75</course>
  <speed>0.47010637094172636</speed>
  <fix>3d</fix>
</trkpt>
<trkpt lat="33.8101862" lon="-118.3938675">
  <ele>-14.91</ele>
  <time>2026-09-02T22:12:49Z</time>
  <course>179.54</course>
  <speed>0.49</speed>
  <fix>3d</fix>
</trkpt>
<trkpt lat="33.8101853" lon="-118.3938676">
  <ele>-15.268</ele>
  <time>2026-09-02T22:12:49Z</time>
  <course>186.75</course>
  <speed>0.47010637094172636</speed>
  <fix>3d</fix>
</trkpt>
<trkpt lat="33.8101862" lon="-118.3938675">
  <ele>-14.91</ele>
  <time>2026-09-02T22:12:49Z</time>
  <course>179.54</course>
  <speed>0.49</speed>
  <fix>3d</fix>
</trkpt>
<trkpt lat="33.8101849" lon="-118.3938676">
  <ele>-15.268</ele>
  <time>2026-09-02T22:12:49Z</time>
  <course>186.75</course>
  <speed>0.47010637094172636</speed>
  <fix>3d</fix>
</trkpt>
<trkpt lat="33.8101853" lon="-118.3938675">
  <ele>-14.91</ele>
  <time>2026-09-02T22:12:49Z</time>
  <course>179.52</course>
  <speed>0.49</speed>
  <fix>3d</fix>
</trkpt>
<trkpt lat="33.8101845" lon="-118.3938676">
  <ele>-15.269</ele>
  <time>2026-09-02T22:12:49Z</time>
  <course>186.75</course>
  <speed>0.47010637094172636</speed>
  <fix>3d</fix>
</trkpt>
<trkpt lat="33.8101853" lon="-118.3938675">
  <ele>-14.91</ele>
  <time>2026-09-02T22:12:49Z</time>
  <course>179.52</course>
  <speed>0.49</speed>
  <fix>3d</fix>
</trkpt>
<trkpt lat="33.810184" lon="-118.3938676">
  <ele>-15.268</ele>
  <time>2026-09-02T22:12:49Z</time>
  <course>186.75</course>
  <speed>0.47010637094172636</speed>
  <fix>3d</fix>
</trkpt>
<trkpt lat="33.8101844" lon="-118.3938675">
  <ele>-14.9</ele>
  <time>2026-09-02T22:12:49Z</time>
  <course>179.49</course>
  <speed>0.49</speed>
  <fix>3d</fix>
</trkpt>
<trkpt lat="33.8101836" lon="-118.3938676">
  <ele>-15.266</ele>
  <time>2026-09-02T22:12:49Z</time>
  <course>186.75</course>
  <speed>0.47010637094172636</speed>
  <fix>3d</fix>
</trkpt>
<trkpt lat="33.8101844" lon="-118.3938675">
  <ele>-14.9</ele>
  <time>2026-09-02T22:12:49Z</time>
  <course>179.49</course>
  <speed>0.49</speed>
  <fix>3d</fix>
</trkpt>
<trkpt lat="33.8101831" lon="-118.3938676">
  <ele>-15.264</ele>
  <time>2026-09-02T22:12:49Z</time>
  <course>186.75</course>
  <speed>0.47010637094172636</speed>
  <fix>3d</fix>
</trkpt>
<trkpt lat="33.8101835" lon="-118.3938675">
  <ele>-14.9</ele>
  <time>2026-09-02T22:12:49Z</time>
  <course>179.46</course>
  <speed>0.5</speed>
  <fix>3d</fix>
</trkpt>
<trkpt lat="33.8101827" lon="-118.3938676">
  <ele>-15.262</ele>
  <time>2026-09-02T22:12:49Z</time>
  <course>186.75</course>
  <speed>0.47010637094172636</speed>
  <fix>3d</fix>
</trkpt>
<trkpt lat="33.8101835" lon="-118.3938675">
  <ele>-14.9</ele>
  <time>2026-09-02T22:12:49Z</time>
  <course>179.46</course>
  <speed>0.5</speed>
  <fix>3d</fix>
</trkpt>
<trkpt lat="33.8101822" lon="-118.3938676">
  <ele>-15.261</ele>
  <time>2026-09-02T22:12:49Z</time>
  <course>186.75</course>
  <speed>0.4801041553663121</speed>
  <fix>3d</fix>
</trkpt>
<trkpt lat="33.8101826" lon="-118.3938675">
  <ele>-14.9</ele>
  <time>2026-09-02T22:12:49Z</time>
  <course>179.46</course>
  <speed>0.5</speed>
  <fix>3d</fix>
</trkpt>
<trkpt lat="33.8101818" lon="-118.3938676">
  <ele>-15.261</ele>
  <time>2026-09-02T22:12:49Z</time>
  <course>186.75</course>
  <speed>0.47010637094172636</speed>
  <fix>3d</fix>
</trkpt>
<trkpt lat="33.8101826" lon="-118.3938675">
  <ele>-14.9</ele>
  <time>2026-09-02T22:12:49Z</time>
  <course>179.46</course>
  <speed>0.5</speed>
  <fix>3d</fix>
</trkpt>
<trkpt lat="33.8101813" lon="-118.3938676">
  <ele>-15.259</ele>
  <time>2026-09-02T22:12:49Z</time>
  <course>186.74</course>
  <speed>0.4801041553663121</speed>
  <fix>3d</fix>
</trkpt>
<trkpt lat="33.8101817" lon="-118.3938675">
  <ele>-14.89</ele>
  <time>2026-09-02T22:12:49Z</time>
  <course>179.44</course>
  <speed>0.5</speed>
  <fix>3d</fix>
</trkpt>
<trkpt lat="33.8101809" lon="-118.3938676">
  <ele>-15.258</ele>
  <time>2026-09-02T22:12:49Z</time>
  <course>186.74</course>
  <speed>0.47010637094172636</speed>
  <fix>3d</fix>
</trkpt>
<trkpt lat="33.8101817" lon="-118.3938675">
  <ele>-14.89</ele>
  <time>2026-09-02T22:12:49Z</time>
  <course>179.44</course>
  <speed>0.5</speed>
  <fix>3d</fix>
</trkpt>
<trkpt lat="33.8101804" lon="-118.3938676">
  <ele>-15.258</ele>
  <time>2026-09-02T22:12:49Z</time>
  <course>186.74</course>
  <speed>0.4801041553663121</speed>
  <fix>3d</fix>
</trkpt>
<trkpt lat="33.8101807" lon="-118.3938675">
  <ele>-14.89</ele>
  <time>2026-09-02T22:12:49Z</time>
  <course>179.41</course>
  <speed>0.5</speed>
  <fix>3d</fix>
</trkpt>
<trkpt lat="33.81018" lon="-118.3938676">
  <ele>-15.257</ele>
  <time>2026-09-02T22:12:49Z</time>
  <course>186.74</course>
  <speed>0.47010637094172636</speed>
  <fix>3d</fix>
</trkpt>
<trkpt lat="33.8101807" lon="-118.3938675">
  <ele>-14.89</ele>
  <time>2026-09-02T22:12:49Z</time>
  <course>179.41</course>
  <speed>0.5</speed>
  <fix>3d</fix>
</trkpt>
<trkpt lat="33.8101795" lon="-118.3938676">
  <ele>-15.257</ele>
  <time>2026-09-02T22:12:49Z</time>
  <course>186.74</course>
  <speed>0.47010637094172636</speed>
  <fix>3d</fix>
</trkpt>
<trkpt lat="33.8101798" lon="-118.3938674">
  <ele>-14.89</ele>
  <time>2026-09-02T22:12:49Z</time>
  <course>179.38</course>
  <speed>0.5</speed>
  <fix>3d</fix>
</trkpt>
<trkpt lat="33.8101791" lon="-118.3938676">
  <ele>-15.256</ele>
  <time>2026-09-02T22:12:49Z</time>
  <course>186.74</course>
  <speed>0.47010637094172636</speed>
  <fix>3d</fix>
</trkpt>
<trkpt lat="33.8101798" lon="-118.3938674">
  <ele>-14.89</ele>
  <time>2026-09-02T22:12:49Z</time>
  <course>179.38</course>
  <speed>0.5</speed>
  <fix>3d</fix>
</trkpt>
<trkpt lat="33.8101786" lon="-118.3938676">
  <ele>-15.255</ele>
  <time>2026-09-02T22:12:49Z</time>
  <course>186.74</course>
  <speed>0.47010637094172636</speed>
  <fix>3d</fix>
</trkpt>
<trkpt lat="33.8101789" lon="-118.3938674">
  <ele>-14.89</ele>
  <time>2026-09-02T22:12:49Z</time>
  <course>179.41</course>
  <speed>0.5</speed>
  <fix>3d</fix>
</trkpt>
<trkpt lat="33.8101782" lon="-118.3938676">
  <ele>-15.254</ele>
  <time>2026-09-02T22:12:49Z</time>
  <course>186.74</course>
  <speed>0.47010637094172636</speed>
  <fix>3d</fix>
</trkpt>
<trkpt lat="33.8101789" lon="-118.3938674">
  <ele>-14.89</ele>
  <time>2026-09-02T22:12:49Z</time>
  <course>179.41</course>
  <speed>0.5</speed>
  <fix>3d</fix>
</trkpt>
<trkpt lat="33.8101777" lon="-118.3938676">
  <ele>-15.253</ele>
  <time>2026-09-02T22:12:49Z</time>
  <course>186.74</course>
  <speed>0.47010637094172636</speed>
  <fix>3d</fix>
</trkpt>
<trkpt lat="33.810178" lon="-118.3938674">
  <ele>-14.89</ele>
  <time>2026-09-02T22:12:49Z</time>
  <course>179.55</course>
  <speed>0.5</speed>
  <fix>3d</fix>
</trkpt>
<trkpt lat="33.8101773" lon="-118.3938676">
  <ele>-15.252</ele>
  <time>2026-09-02T22:12:49Z</time>
  <course>186.74</course>
  <speed>0.47010637094172636</speed>
  <fix>3d</fix>
</trkpt>
<trkpt lat="33.810178" lon="-118.3938674">
  <ele>-14.89</ele>
  <time>2026-09-02T22:12:49Z</time>
  <course>179.55</course>
  <speed>0.5</speed>
  <fix>3d</fix>
</trkpt>
<trkpt lat="33.8101768" lon="-118.3938676">
  <ele>-15.251</ele>
  <time>2026-09-02T22:12:49Z</time>
  <course>186.74</course>
  <speed>0.47010637094172636</speed>
  <fix>3d</fix>
</trkpt>
<trkpt lat="33.8101771" lon="-118.3938674">
  <ele>-14.89</ele>
  <time>2026-09-02T22:12:49Z</time>
  <course>179.72</course>
  <speed>0.5</speed>
  <fix>3d</fix>
</trkpt>
<trkpt lat="33.8101764" lon="-118.3938676">
  <ele>-15.25</ele>
  <time>2026-09-02T22:12:49Z</time>
  <course>186.74</course>
  <speed>0.47010637094172636</speed>
  <fix>3d</fix>
</trkpt>
<trkpt lat="33.8101771" lon="-118.3938674">
  <ele>-14.89</ele>
  <time>2026-09-02T22:12:49Z</time>
  <course>179.72</course>
  <speed>0.5</speed>
  <fix>3d</fix>
</trkpt>
<trkpt lat="33.8101759" lon="-118.3938676">
  <ele>-15.248</ele>
  <time>2026-09-02T22:12:49Z</time>
  <course>186.74</course>
  <speed>0.47010637094172636</speed>
  <fix>3d</fix>
</trkpt>
<trkpt lat="33.8101762" lon="-118.3938674">
  <ele>-14.89</ele>
  <time>2026-09-02T22:12:49Z</time>
  <course>179.86</course>
  <speed>0.49</speed>
  <fix>3d</fix>
</trkpt>
<trkpt lat="33.8101755" lon="-118.3938676">
  <ele>-15.246</ele>
  <time>2026-09-02T22:12:49Z</time>
  <course>186.73</course>
  <speed>0.47010637094172636</speed>
  <fix>3d</fix>
</trkpt>
<trkpt lat="33.8101762" lon="-118.3938674">
  <ele>-14.89</ele>
  <time>2026-09-02T22:12:49Z</time>
  <course>179.86</course>
  <speed>0.49</speed>
  <fix>3d</fix>
</trkpt>
<trkpt lat="33.810175" lon="-118.3938676">
  <ele>-15.246</ele>
  <time>2026-09-02T22:12:49Z</time>
  <course>186.73</course>
  <speed>0.47010637094172636</speed>
  <fix>3d</fix>
</trkpt>
<trkpt lat="33.8101753" lon="-118.3938674">
  <ele>-14.89</ele>
  <time>2026-09-02T22:12:49Z</time>
  <course>179.97</course>
  <speed>0.49</speed>
  <fix>3d</fix>
</trkpt>
<trkpt lat="33.8101746" lon="-118.3938676">
  <ele>-15.246</ele>
  <time>2026-09-02T22:12:49Z</time>
  <course>186.73</course>
  <speed>0.47010637094172636</speed>
  <fix>3d</fix>
</trkpt>
<trkpt lat="33.8101753" lon="-118.3938674">
  <ele>-14.89</ele>
  <time>2026-09-02T22:12:49Z</time>
  <course>179.97</course>
  <speed>0.49</speed>
  <fix>3d</fix>
</trkpt>
<trkpt lat="33.8101741" lon="-118.3938676">
  <ele>-15.246</ele>
  <time>2026-09-02T22:12:49Z</time>
  <course>186.73</course>
  <speed>0.47010637094172636</speed>
  <fix>3d</fix>
</trkpt>
<trkpt lat="33.8101744" lon="-118.3938674">
  <ele>-14.89</ele>
  <time>2026-09-02T22:12:49Z</time>
  <course>180.03</course>
  <speed>0.49</speed>
  <fix>3d</fix>
</trkpt>
<trkpt lat="33.8101737" lon="-118.3938676">
  <ele>-15.246</ele>
  <time>2026-09-02T22:12:49Z</time>
  <course>186.73</course>
  <speed>0.47010637094172636</speed>
  <fix>3d</fix>
</trkpt>
<trkpt lat="33.8101744" lon="-118.3938674">
  <ele>-14.89</ele>
  <time>2026-09-02T22:12:49Z</time>
  <course>180.03</course>
  <speed>0.49</speed>
  <fix>3d</fix>
</trkpt>
<trkpt lat="33.8101732" lon="-118.3938676">
  <ele>-15.246</ele>
  <time>2026-09-02T22:12:49Z</time>
  <course>186.73</course>
  <speed>0.47010637094172636</speed>
  <fix>3d</fix>
</trkpt>
<trkpt lat="33.8101735" lon="-118.3938674">
  <ele>-14.89</ele>
  <time>2026-09-02T22:12:49Z</time>
  <course>180.08</course>
  <speed>0.49</speed>
  <fix>3d</fix>
</trkpt>
<trkpt lat="33.8101728" lon="-118.3938676">
  <ele>-15.247</ele>
  <time>2026-09-02T22:12:49Z</time>
  <course>186.73</course>
  <speed>0.47010637094172636</speed>
  <fix>3d</fix>
</trkpt>
<trkpt lat="33.8101735" lon="-118.3938674">
  <ele>-14.89</ele>
  <time>2026-09-02T22:12:49Z</time>
  <course>180.08</course>
  <speed>0.49</speed>
  <fix>3d</fix>
</trkpt>
<trkpt lat="33.8101723" lon="-118.3938676">
  <ele>-15.248</ele>
  <time>2026-09-02T22:12:49Z</time>
  <course>186.73</course>
  <speed>0.47010637094172636</speed>
  <fix>3d</fix>
</trkpt>
<trkpt lat="33.8101726" lon="-118.3938674">
  <ele>-14.89</ele>
  <time>2026-09-02T22:12:49Z</time>
  <course>180.12</course>
  <speed>0.49</speed>
  <fix>3d</fix>
</trkpt>
<trkpt lat="33.8101719" lon="-118.3938676">
  <ele>-15.249</ele>
  <time>2026-09-02T22:12:49Z</time>
  <course>186.73</course>
  <speed>0.47010637094172636</speed>
  <fix>3d</fix>
</trkpt>
<trkpt lat="33.8101726" lon="-118.3938674">
  <ele>-14.89</ele>
  <time>2026-09-02T22:12:49Z</time>
  <course>180.12</course>
  <speed>0.49</speed>
  <fix>3d</fix>
</trkpt>
<trkpt lat="33.8101714" lon="-118.3938676">
  <ele>-15.25</ele>
  <time>2026-09-02T22:12:49Z</time>
  <course>186.73</course>
  <speed>0.47010637094172636</speed>
  <fix>3d</fix>
</trkpt>
<trkpt lat="33.8101718" lon="-118.3938674">
  <ele>-14.89</ele>
  <time>2026-09-02T22:12:49Z</time>
  <course>180.13</course>
  <speed>0.49</speed>
  <fix>3d</fix>
</trkpt>
<trkpt lat="33.810171" lon="-118.3938676">
  <ele>-15.25</ele>
  <time>2026-09-02T22:12:49Z</time>
  <course>186.73</course>
  <speed>0.47010637094172636</speed>
  <fix>3d</fix>
</trkpt>
<trkpt lat="33.8101718" lon="-118.3938674">
  <ele>-14.89</ele>
  <time>2026-09-02T22:12:49Z</time>
  <course>180.13</course>
  <speed>0.49</speed>
  <fix>3d</fix>
</trkpt>
<trkpt lat="33.8101705" lon="-118.3938676">
  <ele>-15.25</ele>
  <time>2026-09-02T22:12:49Z</time>
  <course>186.73</course>
  <speed>0.47010637094172636</speed>
  <fix>3d</fix>
</trkpt>
<trkpt lat="33.8101709" lon="-118.3938674">
  <ele>-14.89</ele>
  <time>2026-09-02T22:12:49Z</time>
  <course>180.13</course>
  <speed>0.49</speed>
  <fix>3d</fix>
</trkpt>
<trkpt lat="33.8101701" lon="-118.3938676">
  <ele>-15.248</ele>
  <time>2026-09-02T22:12:49Z</time>
  <course>186.73</course>
  <speed>0.47010637094172636</speed>
  <fix>3d</fix>
</trkpt>
<trkpt lat="33.8101709" lon="-118.3938674">
  <ele>-14.89</ele>
  <time>2026-09-02T22:12:49Z</time>
  <course>180.13</course>
  <speed>0.49</speed>
  <fix>3d</fix>
</trkpt>
<trkpt lat="33.8101696" lon="-118.3938676">
  <ele>-15.246</ele>
  <time>2026-09-02T22:12:49Z</time>
  <course>186.72</course>
  <speed>0.47010637094172636</speed>
  <fix>3d</fix>
</trkpt>
<trkpt lat="33.81017" lon="-118.3938674">
  <ele>-14.89</ele>
  <time>2026-09-02T22:12:49Z</time>
  <course>180.11</course>
  <speed>0.49</speed>
  <fix>3d</fix>
</trkpt>
<trkpt lat="33.8101692" lon="-118.3938676">
  <ele>-15.245</ele>
  <time>2026-09-02T22:12:49Z</time>
  <course>186.72</course>
  <speed>0.47010637094172636</speed>
  <fix>3d</fix>
</trkpt>
<trkpt lat="33.81017" lon="-118.3938674">
  <ele>-14.89</ele>
  <time>2026-09-02T22:12:49Z</time>
  <course>180.11</course>
  <speed>0.49</speed>
  <fix>3d</fix>
</trkpt>
<trkpt lat="33.8101687" lon="-118.3938676">
  <ele>-15.243</ele>
  <time>2026-09-02T22:12:49Z</time>
  <course>186.72</course>
  <speed>0.47010637094172636</speed>
  <fix>3d</fix>
</trkpt>
<trkpt lat="33.8101691" lon="-118.3938674">
  <ele>-14.88</ele>
  <time>2026-09-02T22:12:49Z</time>
  <course>180.12</course>
  <speed>0.5</speed>
  <fix>3d</fix>
</trkpt>
<trkpt lat="33.8101683" lon="-118.3938676">
  <ele>-15.24</ele>
  <time>2026-09-02T22:12:49Z</time>
  <course>186.72</course>
  <speed>0.47010637094172636</speed>
  <fix>3d</fix>
</trkpt>
<trkpt lat="33.8101691" lon="-118.3938674">
  <ele>-14.88</ele>
  <time>2026-09-02T22:12:49Z</time>
  <course>180.12</course>
  <speed>0.5</speed>
  <fix>3d</fix>
</trkpt>
<trkpt lat="33.8101679" lon="-118.3938676">
  <ele>-15.238</ele>
  <time>2026-09-02T22:12:49Z</time>
  <course>186.72</course>
  <speed>0.47010637094172636</speed>
  <fix>3d</fix>
</trkpt>
<trkpt lat="33.8101682" lon="-118.3938674">
  <ele>-14.88</ele>
  <time>2026-09-02T22:12:49Z</time>
  <course>180.13</course>
  <speed>0.5</speed>
  <fix>3d</fix>
</trkpt>
<trkpt lat="33.8101674" lon="-118.3938676">
  <ele>-15.236</ele>
  <time>2026-09-02T22:12:49Z</time>
  <course>186.72</course>
  <speed>0.47010637094172636</speed>
  <fix>3d</fix>
</trkpt>
<trkpt lat="33.8101682" lon="-118.3938674">
  <ele>-14.88</ele>
  <time>2026-09-02T22:12:49Z</time>
  <course>180.13</course>
  <speed>0.5</speed>
  <fix>3d</fix>
</trkpt>
<trkpt lat="33.810167" lon="-118.3938676">
  <ele>-15.235</ele>
  <time>2026-09-02T22:12:49Z</time>
  <course>186.72</course>
  <speed>0.47010637094172636</speed>
  <fix>3d</fix>
</trkpt>
<trkpt lat="33.8101673" lon="-118.3938674">
  <ele>-14.88</ele>
  <time>2026-09-02T22:12:49Z</time>
  <course>180.14</course>
  <speed>0.5</speed>
  <fix>3d</fix>
</trkpt>
<trkpt lat="33.8101665" lon="-118.3938676">
  <ele>-15.235</ele>
  <time>2026-09-02T22:12:50Z</time>
  <course>186.72</course>
  <speed>0.47010637094172636</speed>
  <fix>3d</fix>
</trkpt>
<trkpt lat="33.8101673" lon="-118.3938674">
  <ele>-14.88</ele>
  <time>2026-09-02T22:12:50Z</time>
  <course>180.14</course>
  <speed>0.5</speed>
  <fix>3d</fix>
</trkpt>
<trkpt lat="33.8101661" lon="-118.3938676">
  <ele>-15.235</ele>
  <time>2026-09-02T22:12:50Z</time>
  <course>186.72</course>
  <speed>0.47010637094172636</speed>
  <fix>3d</fix>
</trkpt>
<trkpt lat="33.8101664" lon="-118.3938674">
  <ele>-14.88</ele>
  <time>2026-09-02T22:12:50Z</time>
  <course>180.15</course>
  <speed>0.5</speed>
  <fix>3d</fix>
</trkpt>
<trkpt lat="33.8101656" lon="-118.3938676">
  <ele>-15.235</ele>
  <time>2026-09-02T22:12:50Z</time>
  <course>186.72</course>
  <speed>0.47010637094172636</speed>
  <fix>3d</fix>
</trkpt>
<trkpt lat="33.8101664" lon="-118.3938674">
  <ele>-14.88</ele>
  <time>2026-09-02T22:12:50Z</time>
  <course>180.15</course>
  <speed>0.5</speed>
  <fix>3d</fix>
</trkpt>
<trkpt lat="33.8101652" lon="-118.3938676">
  <ele>-15.236</ele>
  <time>2026-09-02T22:12:50Z</time>
  <course>186.71</course>
  <speed>0.47010637094172636</speed>
  <fix>3d</fix>
</trkpt>
<trkpt lat="33.8101654" lon="-118.3938674">
  <ele>-14.88</ele>
  <time>2026-09-02T22:12:50Z</time>
  <course>180.16</course>
  <speed>0.5</speed>
  <fix>3d</fix>
</trkpt>
<trkpt lat="33.8101647" lon="-118.3938676">
  <ele>-15.236</ele>
  <time>2026-09-02T22:12:50Z</time>
  <course>186.71</course>
  <speed>0.47010637094172636</speed>
  <fix>3d</fix>
</trkpt>
<trkpt lat="33.8101654" lon="-118.3938674">
  <ele>-14.88</ele>
  <time>2026-09-02T22:12:50Z</time>
  <course>180.16</course>
  <speed>0.5</speed>
  <fix>3d</fix>
</trkpt>
<trkpt lat="33.8101642" lon="-118.3938676">
  <ele>-15.238</ele>
  <time>2026-09-02T22:12:50Z</time>
  <course>186.72</course>
  <speed>0.47010637094172636</speed>
  <fix>3d</fix>
</trkpt>
<trkpt lat="33.8101645" lon="-118.3938674">
  <ele>-14.88</ele>
  <time>2026-09-02T22:12:50Z</time>
  <course>180.16</course>
  <speed>0.5</speed>
  <fix>3d</fix>
</trkpt>
<trkpt lat="33.8101638" lon="-118.3938676">
  <ele>-15.237</ele>
  <time>2026-09-02T22:12:50Z</time>
  <course>186.71</course>
  <speed>0.47010637094172636</speed>
  <fix>3d</fix>
</trkpt>
<trkpt lat="33.8101645" lon="-118.3938674">
  <ele>-14.88</ele>
  <time>2026-09-02T22:12:50Z</time>
  <course>180.16</course>
  <speed>0.5</speed>
  <fix>3d</fix>
</trkpt>
<trkpt lat="33.8101633" lon="-118.3938676">
  <ele>-15.237</ele>
  <time>2026-09-02T22:12:50Z</time>
  <course>186.71</course>
  <speed>0.47010637094172636</speed>
  <fix>3d</fix>
</trkpt>
<trkpt lat="33.8101636" lon="-118.3938674">
  <ele>-14.88</ele>
  <time>2026-09-02T22:12:50Z</time>
  <course>180.17</course>
  <speed>0.5</speed>
  <fix>3d</fix>
</trkpt>
<trkpt lat="33.8101629" lon="-118.3938676">
  <ele>-15.236</ele>
  <time>2026-09-02T22:12:50Z</time>
  <course>186.71</course>
  <speed>0.47010637094172636</speed>
  <fix>3d</fix>
</trkpt>
<trkpt lat="33.8101636" lon="-118.3938674">
  <ele>-14.88</ele>
  <time>2026-09-02T22:12:50Z</time>
  <course>180.17</course>
  <speed>0.5</speed>
  <fix>3d</fix>
</trkpt>
<trkpt lat="33.8101624" lon="-118.3938676">
  <ele>-15.235</ele>
  <time>2026-09-02T22:12:50Z</time>
  <course>186.71</course>
  <speed>0.47010637094172636</speed>
  <fix>3d</fix>
</trkpt>
<trkpt lat="33.8101627" lon="-118.3938674">
  <ele>-14.87</ele>
  <time>2026-09-02T22:12:50Z</time>
  <course>180.19</course>
  <speed>0.49</speed>
  <fix>3d</fix>
</trkpt>
<trkpt lat="33.810162" lon="-118.3938676">
  <ele>-15.233</ele>
  <time>2026-09-02T22:12:50Z</time>
  <course>186.71</course>
  <speed>0.47010637094172636</speed>
  <fix>3d</fix>
</trkpt>
<trkpt lat="33.8101627" lon="-118.3938674">
  <ele>-14.87</ele>
  <time>2026-09-02T22:12:50Z</time>
  <course>180.19</course>
  <speed>0.49</speed>
  <fix>3d</fix>
</trkpt>
<trkpt lat="33.8101615" lon="-118.3938676">
  <ele>-15.231</ele>
  <time>2026-09-02T22:12:50Z</time>
  <course>186.71</course>
  <speed>0.47010637094172636</speed>
  <fix>3d</fix>
</trkpt>
<trkpt lat="33.8101618" lon="-118.3938674">
  <ele>-14.87</ele>
  <time>2026-09-02T22:12:50Z</time>
  <course>180.23</course>
  <speed>0.49</speed>
  <fix>3d</fix>
</trkpt>
<trkpt lat="33.8101611" lon="-118.3938676">
  <ele>-15.229</ele>
  <time>2026-09-02T22:12:50Z</time>
  <course>186.71</course>
  <speed>0.47010637094172636</speed>
  <fix>3d</fix>
</trkpt>
<trkpt lat="33.8101618" lon="-118.3938674">
  <ele>-14.87</ele>
  <time>2026-09-02T22:12:50Z</time>
  <course>180.23</course>
  <speed>0.49</speed>
  <fix>3d</fix>
</trkpt>
<trkpt lat="33.8101606" lon="-118.3938676">
  <ele>-15.228</ele>
  <time>2026-09-02T22:12:50Z</time>
  <course>186.71</course>
  <speed>0.47010637094172636</speed>
  <fix>3d</fix>
</trkpt>
<trkpt lat="33.8101609" lon="-118.3938674">
  <ele>-14.87</ele>
  <time>2026-09-02T22:12:50Z</time>
  <course>180.24</course>
  <speed>0.49</speed>
  <fix>3d</fix>
</trkpt>
<trkpt lat="33.8101602" lon="-118.3938676">
  <ele>-15.228</ele>
  <time>2026-09-02T22:12:50Z</time>
  <course>186.71</course>
  <speed>0.47010637094172636</speed>
  <fix>3d</fix>
</trkpt>
<trkpt lat="33.8101609" lon="-118.3938674">
  <ele>-14.87</ele>
  <time>2026-09-02T22:12:50Z</time>
  <course>180.24</course>
  <speed>0.49</speed>
  <fix>3d</fix>
</trkpt>
<trkpt lat="33.8101597" lon="-118.3938676">
  <ele>-15.227</ele>
  <time>2026-09-02T22:12:50Z</time>
  <course>186.71</course>
  <speed>0.47010637094172636</speed>
  <fix>3d</fix>
</trkpt>
<trkpt lat="33.8101601" lon="-118.3938674">
  <ele>-14.86</ele>
  <time>2026-09-02T22:12:50Z</time>
  <course>180.24</course>
  <speed>0.49</speed>
  <fix>3d</fix>
</trkpt>
<trkpt lat="33.8101593" lon="-118.3938676">
  <ele>-15.225</ele>
  <time>2026-09-02T22:12:50Z</time>
  <course>186.71</course>
  <speed>0.47010637094172636</speed>
  <fix>3d</fix>
</trkpt>
<trkpt lat="33.8101601" lon="-118.3938674">
  <ele>-14.86</ele>
  <time>2026-09-02T22:12:50Z</time>
  <course>180.24</course>
  <speed>0.49</speed>
  <fix>3d</fix>
</trkpt>
<trkpt lat="33.8101588" lon="-118.3938676">
  <ele>-15.224</ele>
  <time>2026-09-02T22:12:50Z</time>
  <course>186.71</course>
  <speed>0.47010637094172636</speed>
  <fix>3d</fix>
</trkpt>
<trkpt lat="33.8101592" lon="-118.3938674">
  <ele>-14.86</ele>
  <time>2026-09-02T22:12:50Z</time>
  <course>180.25</course>
  <speed>0.49</speed>
  <fix>3d</fix>
</trkpt>
<trkpt lat="33.8101584" lon="-118.3938676">
  <ele>-15.223</ele>
  <time>2026-09-02T22:12:50Z</time>
  <course>186.71</course>
  <speed>0.47010637094172636</speed>
  <fix>3d</fix>
</trkpt>
<trkpt lat="33.8101592" lon="-118.3938674">
  <ele>-14.86</ele>
  <time>2026-09-02T22:12:50Z</time>
  <course>180.25</course>
  <speed>0.49</speed>
  <fix>3d</fix>
</trkpt>
<trkpt lat="33.8101579" lon="-118.3938676">
  <ele>-15.222</ele>
  <time>2026-09-02T22:12:50Z</time>
  <course>186.71</course>
  <speed>0.47010637094172636</speed>
  <fix>3d</fix>
</trkpt>
<trkpt lat="33.8101583" lon="-118.3938674">
  <ele>-14.86</ele>
  <time>2026-09-02T22:12:50Z</time>
  <course>180.26</course>
  <speed>0.49</speed>
  <fix>3d</fix>
</trkpt>
<trkpt lat="33.8101575" lon="-118.3938676">
  <ele>-15.222</ele>
  <time>2026-09-02T22:12:50Z</time>
  <course>186.71</course>
  <speed>0.47010637094172636</speed>
  <fix>3d</fix>
</trkpt>
<trkpt lat="33.8101583" lon="-118.3938674">
  <ele>-14.86</ele>
  <time>2026-09-02T22:12:50Z</time>
  <course>180.26</course>
  <speed>0.49</speed>
  <fix>3d</fix>
</trkpt>
<trkpt lat="33.8101571" lon="-118.3938676">
  <ele>-15.222</ele>
  <time>2026-09-02T22:12:50Z</time>
  <course>186.71</course>
  <speed>0.47010637094172636</speed>
  <fix>3d</fix>
</trkpt>
<trkpt lat="33.8101574" lon="-118.3938674">
  <ele>-14.86</ele>
  <time>2026-09-02T22:12:50Z</time>
  <course>180.25</course>
  <speed>0.49</speed>
  <fix>3d</fix>
</trkpt>
<trkpt lat="33.8101566" lon="-118.3938676">
  <ele>-15.221</ele>
  <time>2026-09-02T22:12:50Z</time>
  <course>186.71</course>
  <speed>0.47010637094172636</speed>
  <fix>3d</fix>
</trkpt>
<trkpt lat="33.8101574" lon="-118.3938674">
  <ele>-14.86</ele>
  <time>2026-09-02T22:12:50Z</time>
  <course>180.25</course>
  <speed>0.49</speed>
  <fix>3d</fix>
</trkpt>
<trkpt lat="33.8101562" lon="-118.3938676">
  <ele>-15.219</ele>
  <time>2026-09-02T22:12:50Z</time>
  <course>186.71</course>
  <speed>0.47010637094172636</speed>
  <fix>3d</fix>
</trkpt>
<trkpt lat="33.8101565" lon="-118.3938674">
  <ele>-14.86</ele>
  <time>2026-09-02T22:12:50Z</time>
  <course>180.21</course>
  <speed>0.49</speed>
  <fix>3d</fix>
</trkpt>
<trkpt lat="33.8101557" lon="-118.3938676">
  <ele>-15.216</ele>
  <time>2026-09-02T22:12:50Z</time>
  <course>186.71</course>
  <speed>0.47010637094172636</speed>
  <fix>3d</fix>
</trkpt>
<trkpt lat="33.8101565" lon="-118.3938674">
  <ele>-14.86</ele>
  <time>2026-09-02T22:12:50Z</time>
  <course>180.21</course>
  <speed>0.49</speed>
  <fix>3d</fix>
</trkpt>
<trkpt lat="33.8101553" lon="-118.3938676">
  <ele>-15.214</ele>
  <time>2026-09-02T22:12:50Z</time>
  <course>186.7</course>
  <speed>0.47010637094172636</speed>
  <fix>3d</fix>
</trkpt>
<trkpt lat="33.8101556" lon="-118.3938674">
  <ele>-14.86</ele>
  <time>2026-09-02T22:12:50Z</time>
  <course>180.2</course>
  <speed>0.5</speed>
  <fix>3d</fix>
</trkpt>
<trkpt lat="33.8101548" lon="-118.3938676">
  <ele>-15.213</ele>
  <time>2026-09-02T22:12:50Z</time>
  <course>186.7</course>
  <speed>0.47010637094172636</speed>
  <fix>3d</fix>
</trkpt>
<trkpt lat="33.8101556" lon="-118.3938674">
  <ele>-14.86</ele>
  <time>2026-09-02T22:12:50Z</time>
  <course>180.2</course>
  <speed>0.5</speed>
  <fix>3d</fix>
</trkpt>
<trkpt lat="33.8101544" lon="-118.3938676">
  <ele>-15.212</ele>
  <time>2026-09-02T22:12:50Z</time>
  <course>186.7</course>
  <speed>0.47010637094172636</speed>
  <fix>3d</fix>
</trkpt>
<trkpt lat="33.8101547" lon="-118.3938674">
  <ele>-14.86</ele>
  <time>2026-09-02T22:12:50Z</time>
  <course>180.23</course>
  <speed>0.5</speed>
  <fix>3d</fix>
</trkpt>
<trkpt lat="33.8101539" lon="-118.3938676">
  <ele>-15.213</ele>
  <time>2026-09-02T22:12:50Z</time>
  <course>186.7</course>
  <speed>0.47010637094172636</speed>
  <fix>3d</fix>
</trkpt>
<trkpt lat="33.8101547" lon="-118.3938674">
  <ele>-14.86</ele>
  <time>2026-09-02T22:12:50Z</time>
  <course>180.23</course>
  <speed>0.5</speed>
  <fix>3d</fix>
</trkpt>
<trkpt lat="33.8101535" lon="-118.3938676">
  <ele>-15.214</ele>
  <time>2026-09-02T22:12:50Z</time>
  <course>186.7</course>
  <speed>0.47010637094172636</speed>
  <fix>3d</fix>
</trkpt>
<trkpt lat="33.8101538" lon="-118.3938674">
  <ele>-14.86</ele>
  <time>2026-09-02T22:12:50Z</time>
  <course>180.26</course>
  <speed>0.5</speed>
  <fix>3d</fix>
</trkpt>
<trkpt lat="33.810153" lon="-118.3938676">
  <ele>-15.216</ele>
  <time>2026-09-02T22:12:50Z</time>
  <course>186.7</course>
  <speed>0.47010637094172636</speed>
  <fix>3d</fix>
</trkpt>
<trkpt lat="33.8101538" lon="-118.3938674">
  <ele>-14.86</ele>
  <time>2026-09-02T22:12:50Z</time>
  <course>180.26</course>
  <speed>0.5</speed>
  <fix>3d</fix>
</trkpt>
<trkpt lat="33.8101526" lon="-118.3938676">
  <ele>-15.219</ele>
  <time>2026-09-02T22:12:50Z</time>
  <course>186.7</course>
  <speed>0.47010637094172636</speed>
  <fix>3d</fix>
</trkpt>
<trkpt lat="33.8101529" lon="-118.3938674">
  <ele>-14.86</ele>
  <time>2026-09-02T22:12:50Z</time>
  <course>180.27</course>
  <speed>0.5</speed>
  <fix>3d</fix>
</trkpt>
<trkpt lat="33.8101521" lon="-118.3938676">
  <ele>-15.222</ele>
  <time>2026-09-02T22:12:50Z</time>
  <course>186.7</course>
  <speed>0.47010637094172636</speed>
  <fix>3d</fix>
</trkpt>
<trkpt lat="33.8101529" lon="-118.3938674">
  <ele>-14.86</ele>
  <time>2026-09-02T22:12:50Z</time>
  <course>180.27</course>
  <speed>0.5</speed>
  <fix>3d</fix>
</trkpt>
<trkpt lat="33.8101517" lon="-118.3938676">
  <ele>-15.224</ele>
  <time>2026-09-02T22:12:50Z</time>
  <course>186.7</course>
  <speed>0.47010637094172636</speed>
  <fix>3d</fix>
</trkpt>
<trkpt lat="33.810152" lon="-118.3938674">
  <ele>-14.87</ele>
  <time>2026-09-02T22:12:50Z</time>
  <course>180.28</course>
  <speed>0.5</speed>
  <fix>3d</fix>
</trkpt>
<trkpt lat="33.8101512" lon="-118.3938676">
  <ele>-15.226</ele>
  <time>2026-09-02T22:12:50Z</time>
  <course>186.7</course>
  <speed>0.47010637094172636</speed>
  <fix>3d</fix>
</trkpt>
<trkpt lat="33.810152" lon="-118.3938674">
  <ele>-14.87</ele>
  <time>2026-09-02T22:12:50Z</time>
  <course>180.28</course>
  <speed>0.5</speed>
  <fix>3d</fix>
</trkpt>
<trkpt lat="33.8101508" lon="-118.3938676">
  <ele>-15.228</ele>
  <time>2026-09-02T22:12:50Z</time>
  <course>186.7</course>
  <speed>0.47010637094172636</speed>
  <fix>3d</fix>
</trkpt>
<trkpt lat="33.8101511" lon="-118.3938674">
  <ele>-14.87</ele>
  <time>2026-09-02T22:12:50Z</time>
  <course>180.28</course>
  <speed>0.5</speed>
  <fix>3d</fix>
</trkpt>
<trkpt lat="33.8101503" lon="-118.3938676">
  <ele>-15.228</ele>
  <time>2026-09-02T22:12:50Z</time>
  <course>186.7</course>
  <speed>0.47010637094172636</speed>
  <fix>3d</fix>
</trkpt>
<trkpt lat="33.8101511" lon="-118.3938674">
  <ele>-14.87</ele>
  <time>2026-09-02T22:12:50Z</time>
  <course>180.28</course>
  <speed>0.5</speed>
  <fix>3d</fix>
</trkpt>
<trkpt lat="33.8101499" lon="-118.3938676">
  <ele>-15.226</ele>
  <time>2026-09-02T22:12:50Z</time>
  <course>186.7</course>
  <speed>0.47010637094172636</speed>
  <fix>3d</fix>
</trkpt>
<trkpt lat="33.8101502" lon="-118.3938674">
  <ele>-14.86</ele>
  <time>2026-09-02T22:12:50Z</time>
  <course>180.27</course>
  <speed>0.5</speed>
  <fix>3d</fix>
</trkpt>
<trkpt lat="33.8101494" lon="-118.3938676">
  <ele>-15.222</ele>
  <time>2026-09-02T22:12:50Z</time>
  <course>186.7</course>
  <speed>0.47010637094172636</speed>
  <fix>3d</fix>
</trkpt>
<trkpt lat="33.8101502" lon="-118.3938674">
  <ele>-14.86</ele>
  <time>2026-09-02T22:12:50Z</time>
  <course>180.27</course>
  <speed>0.5</speed>
  <fix>3d</fix>
</trkpt>
<trkpt lat="33.810149" lon="-118.3938676">
  <ele>-15.216</ele>
  <time>2026-09-02T22:12:50Z</time>
  <course>186.7</course>
  <speed>0.47010637094172636</speed>
  <fix>3d</fix>
</trkpt>
<trkpt lat="33.8101493" lon="-118.3938674">
  <ele>-14.86</ele>
  <time>2026-09-02T22:12:50Z</time>
  <course>180.27</course>
  <speed>0.5</speed>
  <fix>3d</fix>
</trkpt>
<trkpt lat="33.8101485" lon="-118.3938676">
  <ele>-15.21</ele>
  <time>2026-09-02T22:12:50Z</time>
  <course>186.7</course>
  <speed>0.47010637094172636</speed>
  <fix>3d</fix>
</trkpt>
<trkpt lat="33.8101493" lon="-118.3938674">
  <ele>-14.86</ele>
  <time>2026-09-02T22:12:50Z</time>
  <course>180.27</course>
  <speed>0.5</speed>
  <fix>3d</fix>
</trkpt>
<trkpt lat="33.8101481" lon="-118.3938676">
  <ele>-15.206</ele>
  <time>2026-09-02T22:12:50Z</time>
  <course>186.7</course>
  <speed>0.47010637094172636</speed>
  <fix>3d</fix>
</trkpt>
<trkpt lat="33.8101484" lon="-118.3938674">
  <ele>-14.85</ele>
  <time>2026-09-02T22:12:50Z</time>
  <course>180.28</course>
  <speed>0.49</speed>
  <fix>3d</fix>
</trkpt>
<trkpt lat="33.8101476" lon="-118.3938676">
  <ele>-15.204</ele>
  <time>2026-09-02T22:12:50Z</time>
  <course>186.7</course>
  <speed>0.47010637094172636</speed>
  <fix>3d</fix>
</trkpt>
<trkpt lat="33.8101484" lon="-118.3938674">
  <ele>-14.85</ele>
  <time>2026-09-02T22:12:50Z</time>
  <course>180.28</course>
  <speed>0.49</speed>
  <fix>3d</fix>
</trkpt>
<trkpt lat="33.8101472" lon="-118.3938676">
  <ele>-15.202</ele>
  <time>2026-09-02T22:12:50Z</time>
  <course>186.7</course>
  <speed>0.47010637094172636</speed>
  <fix>3d</fix>
</trkpt>
<trkpt lat="33.8101475" lon="-118.3938674">
  <ele>-14.84</ele>
  <time>2026-09-02T22:12:50Z</time>
  <course>180.29</course>
  <speed>0.49</speed>
  <fix>3d</fix>
</trkpt>
<trkpt lat="33.8101467" lon="-118.3938676">
  <ele>-15.201</ele>
  <time>2026-09-02T22:12:50Z</time>
  <course>186.7</course>
  <speed>0.47010637094172636</speed>
  <fix>3d</fix>
</trkpt>
<trkpt lat="33.8101475" lon="-118.3938674">
  <ele>-14.84</ele>
  <time>2026-09-02T22:12:50Z</time>
  <course>180.29</course>
  <speed>0.49</speed>
  <fix>3d</fix>
</trkpt>
<trkpt lat="33.8101463" lon="-118.3938676">
  <ele>-15.201</ele>
  <time>2026-09-02T22:12:50Z</time>
  <course>186.7</course>
  <speed>0.47010637094172636</speed>
  <fix>3d</fix>
</trkpt>
<trkpt lat="33.8101466" lon="-118.3938674">
  <ele>-14.84</ele>
  <time>2026-09-02T22:12:50Z</time>
  <course>180.31</course>
  <speed>0.49</speed>
  <fix>3d</fix>
</trkpt>
<trkpt lat="33.8101458" lon="-118.3938676">
  <ele>-15.201</ele>
  <time>2026-09-02T22:12:50Z</time>
  <course>186.7</course>
  <speed>0.47010637094172636</speed>
  <fix>3d</fix>
</trkpt>
<trkpt lat="33.8101466" lon="-118.3938674">
  <ele>-14.84</ele>
  <time>2026-09-02T22:12:50Z</time>
  <course>180.31</course>
  <speed>0.49</speed>
  <fix>3d</fix>
</trkpt>
<trkpt lat="33.8101454" lon="-118.3938676">
  <ele>-15.201</ele>
  <time>2026-09-02T22:12:50Z</time>
  <course>186.7</course>
  <speed>0.47010637094172636</speed>
  <fix>3d</fix>
</trkpt>
<trkpt lat="33.8101457" lon="-118.3938674">
  <ele>-14.84</ele>
  <time>2026-09-02T22:12:50Z</time>
  <course>180.31</course>
  <speed>0.49</speed>
  <fix>3d</fix>
</trkpt>
<trkpt lat="33.8101449" lon="-118.3938676">
  <ele>-15.201</ele>
  <time>2026-09-02T22:12:50Z</time>
  <course>186.7</course>
  <speed>0.47010637094172636</speed>
  <fix>3d</fix>
</trkpt>
<trkpt lat="33.8101457" lon="-118.3938674">
  <ele>-14.84</ele>
  <time>2026-09-02T22:12:50Z</time>
  <course>180.31</course>
  <speed>0.49</speed>
  <fix>3d</fix>
</trkpt>
<trkpt lat="33.8101445" lon="-118.3938676">
  <ele>-15.2</ele>
  <time>2026-09-02T22:12:50Z</time>
  <course>186.7</course>
  <speed>0.47010637094172636</speed>
  <fix>3d</fix>
</trkpt>
<trkpt lat="33.8101448" lon="-118.3938674">
  <ele>-14.84</ele>
  <time>2026-09-02T22:12:50Z</time>
  <course>180.32</course>
  <speed>0.49</speed>
  <fix>3d</fix>
</trkpt>
<trkpt lat="33.810144" lon="-118.3938676">
  <ele>-15.2</ele>
  <time>2026-09-02T22:12:50Z</time>
  <course>186.69</course>
  <speed>0.47010637094172636</speed>
  <fix>3d</fix>
</trkpt>
<trkpt lat="33.8101448" lon="-118.3938674">
  <ele>-14.84</ele>
  <time>2026-09-02T22:12:50Z</time>
  <course>180.32</course>
  <speed>0.49</speed>
  <fix>3d</fix>
</trkpt>
<trkpt lat="33.8101436" lon="-118.3938676">
  <ele>-15.2</ele>
  <time>2026-09-02T22:12:50Z</time>
  <course>186.69</course>
  <speed>0.47010637094172636</speed>
  <fix>3d</fix>
</trkpt>
<trkpt lat="33.8101439" lon="-118.3938674">
  <ele>-14.84</ele>
  <time>2026-09-02T22:12:50Z</time>
  <course>180.35</course>
  <speed>0.49</speed>
  <fix>3d</fix>
</trkpt>
<trkpt lat="33.8101431" lon="-118.3938676">
  <ele>-15.2</ele>
  <time>2026-09-02T22:12:50Z</time>
  <course>186.69</course>
  <speed>0.47010637094172636</speed>
  <fix>3d</fix>
</trkpt>
<trkpt lat="33.8101439" lon="-118.3938674">
  <ele>-14.84</ele>
  <time>2026-09-02T22:12:50Z</time>
  <course>180.35</course>
  <speed>0.49</speed>
  <fix>3d</fix>
</trkpt>
<trkpt lat="33.8101427" lon="-118.3938676">
  <ele>-15.2</ele>
  <time>2026-09-02T22:12:50Z</time>
  <course>186.69</course>
  <speed>0.47010637094172636</speed>
  <fix>3d</fix>
</trkpt>
<trkpt lat="33.810143" lon="-118.3938675">
  <ele>-14.84</ele>
  <time>2026-09-02T22:12:50Z</time>
  <course>180.36</course>
  <speed>0.49</speed>
  <fix>3d</fix>
</trkpt>
<trkpt lat="33.8101422" lon="-118.3938676">
  <ele>-15.198</ele>
  <time>2026-09-02T22:12:50Z</time>
  <course>186.69</course>
  <speed>0.47010637094172636</speed>
  <fix>3d</fix>
</trkpt>
<trkpt lat="33.810143" lon="-118.3938675">
  <ele>-14.84</ele>
  <time>2026-09-02T22:12:50Z</time>
  <course>180.36</course>
  <speed>0.49</speed>
  <fix>3d</fix>
</trkpt>
<trkpt lat="33.8101418" lon="-118.3938676">
  <ele>-15.197</ele>
  <time>2026-09-02T22:12:50Z</time>
  <course>186.69</course>
  <speed>0.47010637094172636</speed>
  <fix>3d</fix>
</trkpt>
<trkpt lat="33.8101421" lon="-118.3938675">
  <ele>-14.84</ele>
  <time>2026-09-02T22:12:50Z</time>
  <course>180.27</course>
  <speed>0.49</speed>
  <fix>3d</fix>
</trkpt>
<trkpt lat="33.8101413" lon="-118.3938676">
  <ele>-15.196</ele>
  <time>2026-09-02T22:12:50Z</time>
  <course>186.69</course>
  <speed>0.47010637094172636</speed>
  <fix>3d</fix>
</trkpt>
<trkpt lat="33.8101421" lon="-118.3938675">
  <ele>-14.84</ele>
  <time>2026-09-02T22:12:50Z</time>
  <course>180.27</course>
  <speed>0.49</speed>
  <fix>3d</fix>
</trkpt>
<trkpt lat="33.8101409" lon="-118.3938676">
  <ele>-15.197</ele>
  <time>2026-09-02T22:12:50Z</time>
  <course>186.69</course>
  <speed>0.47010637094172636</speed>
  <fix>3d</fix>
</trkpt>
<trkpt lat="33.8101412" lon="-118.3938675">
  <ele>-14.84</ele>
  <time>2026-09-02T22:12:50Z</time>
  <course>180.06</course>
  <speed>0.49</speed>
  <fix>3d</fix>
</trkpt>
<trkpt lat="33.8101404" lon="-118.3938676">
  <ele>-15.198</ele>
  <time>2026-09-02T22:12:50Z</time>
  <course>186.69</course>
  <speed>0.47010637094172636</speed>
  <fix>3d</fix>
</trkpt>
<trkpt lat="33.8101412" lon="-118.3938675">
  <ele>-14.84</ele>
  <time>2026-09-02T22:12:50Z</time>
  <course>180.06</course>
  <speed>0.49</speed>
  <fix>3d</fix>
</trkpt>
<trkpt lat="33.81014" lon="-118.3938676">
  <ele>-15.199</ele>
  <time>2026-09-02T22:12:50Z</time>
  <course>186.69</course>
  <speed>0.47010637094172636</speed>
  <fix>3d</fix>
</trkpt>
<trkpt lat="33.8101403" lon="-118.3938675">
  <ele>-14.84</ele>
  <time>2026-09-02T22:12:50Z</time>
  <course>179.86</course>
  <speed>0.49</speed>
  <fix>3d</fix>
</trkpt>
<trkpt lat="33.8101395" lon="-118.3938676">
  <ele>-15.2</ele>
  <time>2026-09-02T22:12:50Z</time>
  <course>186.69</course>
  <speed>0.47010637094172636</speed>
  <fix>3d</fix>
</trkpt>
<trkpt lat="33.8101403" lon="-118.3938675">
  <ele>-14.84</ele>
  <time>2026-09-02T22:12:50Z</time>
  <course>179.86</course>
  <speed>0.49</speed>
  <fix>3d</fix>
</trkpt>
<trkpt lat="33.8101391" lon="-118.3938676">
  <ele>-15.2</ele>
  <time>2026-09-02T22:12:50Z</time>
  <course>186.69</course>
  <speed>0.47010637094172636</speed>
  <fix>3d</fix>
</trkpt>
<trkpt lat="33.8101394" lon="-118.3938675">
  <ele>-14.84</ele>
  <time>2026-09-02T22:12:50Z</time>
  <course>179.69</course>
  <speed>0.49</speed>
  <fix>3d</fix>
</trkpt>
<trkpt lat="33.8101386" lon="-118.3938676">
  <ele>-15.199</ele>
  <time>2026-09-02T22:12:50Z</time>
  <course>186.69</course>
  <speed>0.47010637094172636</speed>
  <fix>3d</fix>
</trkpt>
<trkpt lat="33.8101394" lon="-118.3938675">
  <ele>-14.84</ele>
  <time>2026-09-02T22:12:50Z</time>
  <course>179.69</course>
  <speed>0.49</speed>
  <fix>3d</fix>
</trkpt>
<trkpt lat="33.8101382" lon="-118.3938676">
  <ele>-15.199</ele>
  <time>2026-09-02T22:12:50Z</time>
  <course>186.69</course>
  <speed>0.47010637094172636</speed>
  <fix>3d</fix>
</trkpt>
<trkpt lat="33.8101385" lon="-118.3938675">
  <ele>-14.84</ele>
  <time>2026-09-02T22:12:50Z</time>
  <course>179.57</course>
  <speed>0.49</speed>
  <fix>3d</fix>
</trkpt>
<trkpt lat="33.8101377" lon="-118.3938676">
  <ele>-15.198</ele>
  <time>2026-09-02T22:12:50Z</time>
  <course>186.68</course>
  <speed>0.47010637094172636</speed>
  <fix>3d</fix>
</trkpt>
<trkpt lat="33.8101385" lon="-118.3938675">
  <ele>-14.84</ele>
  <time>2026-09-02T22:12:50Z</time>
  <course>179.57</course>
  <speed>0.49</speed>
  <fix>3d</fix>
</trkpt>
<trkpt lat="33.8101373" lon="-118.3938676">
  <ele>-15.196</ele>
  <time>2026-09-02T22:12:50Z</time>
  <course>186.68</course>
  <speed>0.47010637094172636</speed>
  <fix>3d</fix>
</trkpt>
<trkpt lat="33.8101376" lon="-118.3938675">
  <ele>-14.83</ele>
  <time>2026-09-02T22:12:50Z</time>
  <course>179.48</course>
  <speed>0.49</speed>
  <fix>3d</fix>
</trkpt>
<trkpt lat="33.8101368" lon="-118.3938676">
  <ele>-15.195</ele>
  <time>2026-09-02T22:12:50Z</time>
  <course>186.68</course>
  <speed>0.47010637094172636</speed>
  <fix>3d</fix>
</trkpt>
<trkpt lat="33.8101376" lon="-118.3938675">
  <ele>-14.83</ele>
  <time>2026-09-02T22:12:50Z</time>
  <course>179.48</course>
  <speed>0.49</speed>
  <fix>3d</fix>
</trkpt>
<trkpt lat="33.8101364" lon="-118.3938676">
  <ele>-15.194</ele>
  <time>2026-09-02T22:12:50Z</time>
  <course>186.69</course>
  <speed>0.47010637094172636</speed>
  <fix>3d</fix>
</trkpt>
<trkpt lat="33.8101367" lon="-118.3938675">
  <ele>-14.83</ele>
  <time>2026-09-02T22:12:50Z</time>
  <course>179.43</course>
  <speed>0.49</speed>
  <fix>3d</fix>
</trkpt>
<trkpt lat="33.8101359" lon="-118.3938676">
  <ele>-15.194</ele>
  <time>2026-09-02T22:12:50Z</time>
  <course>186.69</course>
  <speed>0.47010637094172636</speed>
  <fix>3d</fix>
</trkpt>
<trkpt lat="33.8101367" lon="-118.3938675">
  <ele>-14.83</ele>
  <time>2026-09-02T22:12:50Z</time>
  <course>179.43</course>
  <speed>0.49</speed>
  <fix>3d</fix>
</trkpt>
<trkpt lat="33.8101355" lon="-118.3938676">
  <ele>-15.193</ele>
  <time>2026-09-02T22:12:50Z</time>
  <course>186.69</course>
  <speed>0.47010637094172636</speed>
  <fix>3d</fix>
</trkpt>
<trkpt lat="33.8101359" lon="-118.3938675">
  <ele>-14.82</ele>
  <time>2026-09-02T22:12:50Z</time>
  <course>179.39</course>
  <speed>0.49</speed>
  <fix>3d</fix>
</trkpt>
<trkpt lat="33.810135" lon="-118.3938676">
  <ele>-15.191</ele>
  <time>2026-09-02T22:12:50Z</time>
  <course>186.69</course>
  <speed>0.47010637094172636</speed>
  <fix>3d</fix>
</trkpt>
<trkpt lat="33.8101359" lon="-118.3938675">
  <ele>-14.82</ele>
  <time>2026-09-02T22:12:50Z</time>
  <course>179.39</course>
  <speed>0.49</speed>
  <fix>3d</fix>
</trkpt>
<trkpt lat="33.8101346" lon="-118.3938676">
  <ele>-15.189</ele>
  <time>2026-09-02T22:12:50Z</time>
  <course>186.68</course>
  <speed>0.47010637094172636</speed>
  <fix>3d</fix>
</trkpt>
<trkpt lat="33.810135" lon="-118.3938675">
  <ele>-14.82</ele>
  <time>2026-09-02T22:12:50Z</time>
  <course>179.36</course>
  <speed>0.49</speed>
  <fix>3d</fix>
</trkpt>
<trkpt lat="33.8101341" lon="-118.3938676">
  <ele>-15.187</ele>
  <time>2026-09-02T22:12:50Z</time>
  <course>186.69</course>
  <speed>0.47010637094172636</speed>
  <fix>3d</fix>
</trkpt>
<trkpt lat="33.810135" lon="-118.3938675">
  <ele>-14.82</ele>
  <time>2026-09-02T22:12:50Z</time>
  <course>179.36</course>
  <speed>0.49</speed>
  <fix>3d</fix>
</trkpt>
<trkpt lat="33.8101337" lon="-118.3938676">
  <ele>-15.183</ele>
  <time>2026-09-02T22:12:50Z</time>
  <course>186.69</course>
  <speed>0.47010637094172636</speed>
  <fix>3d</fix>
</trkpt>
<trkpt lat="33.8101341" lon="-118.3938675">
  <ele>-14.82</ele>
  <time>2026-09-02T22:12:50Z</time>
  <course>179.35</course>
  <speed>0.49</speed>
  <fix>3d</fix>
</trkpt>
<trkpt lat="33.8101332" lon="-118.3938676">
  <ele>-15.18</ele>
  <time>2026-09-02T22:12:50Z</time>
  <course>186.69</course>
  <speed>0.47010637094172636</speed>
  <fix>3d</fix>
</trkpt>
<trkpt lat="33.8101341" lon="-118.3938675">
  <ele>-14.82</ele>
  <time>2026-09-02T22:12:50Z</time>
  <course>179.35</course>
  <speed>0.49</speed>
  <fix>3d</fix>
</trkpt>
<trkpt lat="33.8101328" lon="-118.3938676">
  <ele>-15.177</ele>
  <time>2026-09-02T22:12:50Z</time>
  <course>186.69</course>
  <speed>0.47010637094172636</speed>
  <fix>3d</fix>
</trkpt>
<trkpt lat="33.8101332" lon="-118.3938675">
  <ele>-14.81</ele>
  <time>2026-09-02T22:12:50Z</time>
  <course>179.31</course>
  <speed>0.5</speed>
  <fix>3d</fix>
</trkpt>
<trkpt lat="33.8101324" lon="-118.3938676">
  <ele>-15.176</ele>
  <time>2026-09-02T22:12:50Z</time>
  <course>186.68</course>
  <speed>0.47010637094172636</speed>
  <fix>3d</fix>
</trkpt>
<trkpt lat="33.8101332" lon="-118.3938675">
  <ele>-14.81</ele>
  <time>2026-09-02T22:12:50Z</time>
  <course>179.31</course>
  <speed>0.5</speed>
  <fix>3d</fix>
</trkpt>
<trkpt lat="33.8101319" lon="-118.3938676">
  <ele>-15.175</ele>
  <time>2026-09-02T22:12:50Z</time>
  <course>186.68</course>
  <speed>0.4801041553663121</speed>
  <fix>3d</fix>
</trkpt>
<trkpt lat="33.8101323" lon="-118.3938675">
  <ele>-14.81</ele>
  <time>2026-09-02T22:12:50Z</time>
  <course>179.24</course>
  <speed>0.5</speed>
  <fix>3d</fix>
</trkpt>
<trkpt lat="33.8101315" lon="-118.3938676">
  <ele>-15.176</ele>
  <time>2026-09-02T22:12:50Z</time>
  <course>186.68</course>
  <speed>0.47010637094172636</speed>
  <fix>3d</fix>
</trkpt>
<trkpt lat="33.8101323" lon="-118.3938675">
  <ele>-14.81</ele>
  <time>2026-09-02T22:12:50Z</time>
  <course>179.24</course>
  <speed>0.5</speed>
  <fix>3d</fix>
</trkpt>
<trkpt lat="33.810131" lon="-118.3938676">
  <ele>-15.178</ele>
  <time>2026-09-02T22:12:50Z</time>
  <course>186.68</course>
  <speed>0.4801041553663121</speed>
  <fix>3d</fix>
</trkpt>
<trkpt lat="33.8101314" lon="-118.3938674">
  <ele>-14.82</ele>
  <time>2026-09-02T22:12:50Z</time>
  <course>179.2</course>
  <speed>0.5</speed>
  <fix>3d</fix>
</trkpt>
<trkpt lat="33.8101306" lon="-118.3938676">
  <ele>-15.18</ele>
  <time>2026-09-02T22:12:50Z</time>
  <course>186.68</course>
  <speed>0.4801041553663121</speed>
  <fix>3d</fix>
</trkpt>
<trkpt lat="33.8101314" lon="-118.3938674">
  <ele>-14.82</ele>
  <time>2026-09-02T22:12:50Z</time>
  <course>179.2</course>
  <speed>0.5</speed>
  <fix>3d</fix>
</trkpt>
<trkpt lat="33.8101301" lon="-118.3938676">
  <ele>-15.182</ele>
  <time>2026-09-02T22:12:50Z</time>
  <course>186.69</course>
  <speed>0.4801041553663121</speed>
  <fix>3d</fix>
</trkpt>
<trkpt lat="33.8101305" lon="-118.3938674">
  <ele>-14.82</ele>
  <time>2026-09-02T22:12:50Z</time>
  <course>179.25</course>
  <speed>0.5</speed>
  <fix>3d</fix>
</trkpt>
<trkpt lat="33.8101297" lon="-118.3938676">
  <ele>-15.182</ele>
  <time>2026-09-02T22:12:50Z</time>
  <course>186.69</course>
  <speed>0.47010637094172636</speed>
  <fix>3d</fix>
</trkpt>
<trkpt lat="33.8101305" lon="-118.3938674">
  <ele>-14.82</ele>
  <time>2026-09-02T22:12:50Z</time>
  <course>179.25</course>
  <speed>0.5</speed>
  <fix>3d</fix>
</trkpt>
<trkpt lat="33.8101292" lon="-118.3938676">
  <ele>-15.184</ele>
  <time>2026-09-02T22:12:50Z</time>
  <course>186.68</course>
  <speed>0.4801041553663121</speed>
  <fix>3d</fix>
</trkpt>
<trkpt lat="33.8101295" lon="-118.3938674">
  <ele>-14.82</ele>
  <time>2026-09-02T22:12:50Z</time>
  <course>179.39</course>
  <speed>0.5</speed>
  <fix>3d</fix>
</trkpt>
<trkpt lat="33.8101288" lon="-118.3938676">
  <ele>-15.184</ele>
  <time>2026-09-02T22:12:50Z</time>
  <course>186.68</course>
  <speed>0.47010637094172636</speed>
  <fix>3d</fix>
</trkpt>
<trkpt lat="33.8101295" lon="-118.3938674">
  <ele>-14.82</ele>
  <time>2026-09-02T22:12:50Z</time>
  <course>179.39</course>
  <speed>0.5</speed>
  <fix>3d</fix>
</trkpt>
<trkpt lat="33.8101283" lon="-118.3938676">
  <ele>-15.184</ele>
  <time>2026-09-02T22:12:50Z</time>
  <course>186.68</course>
  <speed>0.47010637094172636</speed>
  <fix>3d</fix>
</trkpt>
<trkpt lat="33.8101286" lon="-118.3938674">
  <ele>-14.83</ele>
  <time>2026-09-02T22:12:50Z</time>
  <course>179.53</course>
  <speed>0.5</speed>
  <fix>3d</fix>
</trkpt>
<trkpt lat="33.8101278" lon="-118.3938676">
  <ele>-15.183</ele>
  <time>2026-09-02T22:12:50Z</time>
  <course>186.68</course>
  <speed>0.47010637094172636</speed>
  <fix>3d</fix>
</trkpt>
<trkpt lat="33.8101286" lon="-118.3938674">
  <ele>-14.83</ele>
  <time>2026-09-02T22:12:50Z</time>
  <course>179.53</course>
  <speed>0.5</speed>
  <fix>3d</fix>
</trkpt>
<trkpt lat="33.8101274" lon="-118.3938676">
  <ele>-15.182</ele>
  <time>2026-09-02T22:12:50Z</time>
  <course>186.68</course>
  <speed>0.47010637094172636</speed>
  <fix>3d</fix>
</trkpt>
<trkpt lat="33.8101277" lon="-118.3938674">
  <ele>-14.82</ele>
  <time>2026-09-02T22:12:50Z</time>
  <course>179.63</course>
  <speed>0.5</speed>
  <fix>3d</fix>
</trkpt>
<trkpt lat="33.8101269" lon="-118.3938676">
  <ele>-15.179</ele>
  <time>2026-09-02T22:12:50Z</time>
  <course>186.68</course>
  <speed>0.47010637094172636</speed>
  <fix>3d</fix>
</trkpt>
<trkpt lat="33.8101277" lon="-118.3938674">
  <ele>-14.82</ele>
  <time>2026-09-02T22:12:50Z</time>
  <course>179.63</course>
  <speed>0.5</speed>
  <fix>3d</fix>
</trkpt>
<trkpt lat="33.8101265" lon="-118.3938676">
  <ele>-15.177</ele>
  <time>2026-09-02T22:12:50Z</time>
  <course>186.68</course>
  <speed>0.47010637094172636</speed>
  <fix>3d</fix>
</trkpt>
<trkpt lat="33.8101268" lon="-118.3938674">
  <ele>-14.82</ele>
  <time>2026-09-02T22:12:50Z</time>
  <course>179.74</course>
  <speed>0.5</speed>
  <fix>3d</fix>
</trkpt>
<trkpt lat="33.810126" lon="-118.3938676">
  <ele>-15.176</ele>
  <time>2026-09-02T22:12:50Z</time>
  <course>186.68</course>
  <speed>0.47010637094172636</speed>
  <fix>3d</fix>
</trkpt>
<trkpt lat="33.8101268" lon="-118.3938674">
  <ele>-14.82</ele>
  <time>2026-09-02T22:12:50Z</time>
  <course>179.74</course>
  <speed>0.5</speed>
  <fix>3d</fix>
</trkpt>
<trkpt lat="33.8101256" lon="-118.3938676">
  <ele>-15.175</ele>
  <time>2026-09-02T22:12:50Z</time>
  <course>186.67</course>
  <speed>0.47010637094172636</speed>
  <fix>3d</fix>
</trkpt>
<trkpt lat="33.8101259" lon="-118.3938674">
  <ele>-14.82</ele>
  <time>2026-09-02T22:12:50Z</time>
  <course>179.82</course>
  <speed>0.49</speed>
  <fix>3d</fix>
</trkpt>
<trkpt lat="33.8101251" lon="-118.3938676">
  <ele>-15.175</ele>
  <time>2026-09-02T22:12:50Z</time>
  <course>186.67</course>
  <speed>0.47010637094172636</speed>
  <fix>3d</fix>
</trkpt>
<trkpt lat="33.8101259" lon="-118.3938674">
  <ele>-14.82</ele>
  <time>2026-09-02T22:12:50Z</time>
  <course>179.82</course>
  <speed>0.49</speed>
  <fix>3d</fix>
</trkpt>
<trkpt lat="33.8101247" lon="-118.3938676">
  <ele>-15.174</ele>
  <time>2026-09-02T22:12:50Z</time>
  <course>186.67</course>
  <speed>0.47010637094172636</speed>
  <fix>3d</fix>
</trkpt>
<trkpt lat="33.810125" lon="-118.3938674">
  <ele>-14.81</ele>
  <time>2026-09-02T22:12:50Z</time>
  <course>179.84</course>
  <speed>0.49</speed>
  <fix>3d</fix>
</trkpt>
<trkpt lat="33.8101242" lon="-118.3938676">
  <ele>-15.173</ele>
  <time>2026-09-02T22:12:50Z</time>
  <course>186.68</course>
  <speed>0.47010637094172636</speed>
  <fix>3d</fix>
</trkpt>
<trkpt lat="33.810125" lon="-118.3938674">
  <ele>-14.81</ele>
  <time>2026-09-02T22:12:50Z</time>
  <course>179.84</course>
  <speed>0.49</speed>
  <fix>3d</fix>
</trkpt>
<trkpt lat="33.8101238" lon="-118.3938676">
  <ele>-15.171</ele>
  <time>2026-09-02T22:12:50Z</time>
  <course>186.68</course>
  <speed>0.47010637094172636</speed>
  <fix>3d</fix>
</trkpt>
<trkpt lat="33.8101242" lon="-118.3938674">
  <ele>-14.81</ele>
  <time>2026-09-02T22:12:50Z</time>
  <course>179.85</course>
  <speed>0.49</speed>
  <fix>3d</fix>
</trkpt>
<trkpt lat="33.8101233" lon="-118.3938676">
  <ele>-15.168</ele>
  <time>2026-09-02T22:12:50Z</time>
  <course>186.68</course>
  <speed>0.47010637094172636</speed>
  <fix>3d</fix>
</trkpt>
<trkpt lat="33.8101242" lon="-118.3938674">
  <ele>-14.81</ele>
  <time>2026-09-02T22:12:50Z</time>
  <course>179.85</course>
  <speed>0.49</speed>
  <fix>3d</fix>
</trkpt>
<trkpt lat="33.8101229" lon="-118.3938676">
  <ele>-15.165</ele>
  <time>2026-09-02T22:12:50Z</time>
  <course>186.69</course>
  <speed>0.47010637094172636</speed>
  <fix>3d</fix>
</trkpt>
<trkpt lat="33.8101233" lon="-118.3938674">
  <ele>-14.81</ele>
  <time>2026-09-02T22:12:50Z</time>
  <course>179.85</course>
  <speed>0.49</speed>
  <fix>3d</fix>
</trkpt>
<trkpt lat="33.8101225" lon="-118.3938676">
  <ele>-15.164</ele>
  <time>2026-09-02T22:12:50Z</time>
  <course>186.68</course>
  <speed>0.47010637094172636</speed>
  <fix>3d</fix>
</trkpt>
<trkpt lat="33.8101233" lon="-118.3938674">
  <ele>-14.81</ele>
  <time>2026-09-02T22:12:50Z</time>
  <course>179.85</course>
  <speed>0.49</speed>
  <fix>3d</fix>
</trkpt>
<trkpt lat="33.810122" lon="-118.3938676">
  <ele>-15.165</ele>
  <time>2026-09-02T22:12:50Z</time>
  <course>186.68</course>
  <speed>0.47010637094172636</speed>
  <fix>3d</fix>
</trkpt>
<trkpt lat="33.8101224" lon="-118.3938674">
  <ele>-14.81</ele>
  <time>2026-09-02T22:12:50Z</time>
  <course>179.87</course>
  <speed>0.49</speed>
  <fix>3d</fix>
</trkpt>
<trkpt lat="33.8101216" lon="-118.3938676">
  <ele>-15.166</ele>
  <time>2026-09-02T22:12:50Z</time>
  <course>186.68</course>
  <speed>0.47010637094172636</speed>
  <fix>3d</fix>
</trkpt>
<trkpt lat="33.8101224" lon="-118.3938674">
  <ele>-14.81</ele>
  <time>2026-09-02T22:12:50Z</time>
  <course>179.87</course>
  <speed>0.49</speed>
  <fix>3d</fix>
</trkpt>
<trkpt lat="33.8101211" lon="-118.3938676">
  <ele>-15.168</ele>
  <time>2026-09-02T22:12:50Z</time>
  <course>186.68</course>
  <speed>0.47010637094172636</speed>
  <fix>3d</fix>
</trkpt>
<trkpt lat="33.8101215" lon="-118.3938674">
  <ele>-14.81</ele>
  <time>2026-09-02T22:12:50Z</time>
  <course>179.87</course>
  <speed>0.49</speed>
  <fix>3d</fix>
</trkpt>
<trkpt lat="33.8101207" lon="-118.3938676">
  <ele>-15.169</ele>
  <time>2026-09-02T22:12:50Z</time>
  <course>186.68</course>
  <speed>0.47010637094172636</speed>
  <fix>3d</fix>
</trkpt>
<trkpt lat="33.8101215" lon="-118.3938674">
  <ele>-14.81</ele>
  <time>2026-09-02T22:12:50Z</time>
  <course>179.87</course>
  <speed>0.49</speed>
  <fix>3d</fix>
</trkpt>
<trkpt lat="33.8101202" lon="-118.3938676">
  <ele>-15.169</ele>
  <time>2026-09-02T22:12:50Z</time>
  <course>186.68</course>
  <speed>0.47010637094172636</speed>
  <fix>3d</fix>
</trkpt>
<trkpt lat="33.8101206" lon="-118.3938674">
  <ele>-14.81</ele>
  <time>2026-09-02T22:12:50Z</time>
  <course>179.83</course>
  <speed>0.5</speed>
  <fix>3d</fix>
</trkpt>
<trkpt lat="33.8101198" lon="-118.3938676">
  <ele>-15.168</ele>
  <time>2026-09-02T22:12:50Z</time>
  <course>186.68</course>
  <speed>0.47010637094172636</speed>
  <fix>3d</fix>
</trkpt>
<trkpt lat="33.8101206" lon="-118.3938674">
  <ele>-14.81</ele>
  <time>2026-09-02T22:12:50Z</time>
  <course>179.83</course>
  <speed>0.5</speed>
  <fix>3d</fix>
</trkpt>
<trkpt lat="33.8101193" lon="-118.3938676">
  <ele>-15.166</ele>
  <time>2026-09-02T22:12:50Z</time>
  <course>186.68</course>
  <speed>0.4801041553663121</speed>
  <fix>3d</fix>
</trkpt>
<trkpt lat="33.8101197" lon="-118.3938674">
  <ele>-14.81</ele>
  <time>2026-09-02T22:12:50Z</time>
  <course>179.81</course>
  <speed>0.5</speed>
  <fix>3d</fix>
</trkpt>
<trkpt lat="33.8101189" lon="-118.3938676">
  <ele>-15.163</ele>
  <time>2026-09-02T22:12:50Z</time>
  <course>186.68</course>
  <speed>0.4801041553663121</speed>
  <fix>3d</fix>
</trkpt>
<trkpt lat="33.8101197" lon="-118.3938674">
  <ele>-14.81</ele>
  <time>2026-09-02T22:12:50Z</time>
  <course>179.81</course>
  <speed>0.5</speed>
  <fix>3d</fix>
</trkpt>
<trkpt lat="33.8101184" lon="-118.3938676">
  <ele>-15.162</ele>
  <time>2026-09-02T22:12:50Z</time>
  <course>186.67</course>
  <speed>0.4801041553663121</speed>
  <fix>3d</fix>
</trkpt>
<trkpt lat="33.8101188" lon="-118.3938674">
  <ele>-14.81</ele>
  <time>2026-09-02T22:12:50Z</time>
  <course>179.82</course>
  <speed>0.5</speed>
  <fix>3d</fix>
</trkpt>
<trkpt lat="33.810118" lon="-118.3938676">
  <ele>-15.161</ele>
  <time>2026-09-02T22:12:50Z</time>
  <course>186.67</course>
  <speed>0.4801041553663121</speed>
  <fix>3d</fix>
</trkpt>
<trkpt lat="33.8101188" lon="-118.3938674">
  <ele>-14.81</ele>
  <time>2026-09-02T22:12:50Z</time>
  <course>179.82</course>
  <speed>0.5</speed>
  <fix>3d</fix>
</trkpt>
<trkpt lat="33.8101175" lon="-118.3938676">
  <ele>-15.16</ele>
  <time>2026-09-02T22:12:50Z</time>
  <course>186.67</course>
  <speed>0.4801041553663121</speed>
  <fix>3d</fix>
</trkpt>
<trkpt lat="33.8101179" lon="-118.3938674">
  <ele>-14.81</ele>
  <time>2026-09-02T22:12:50Z</time>
  <course>179.82</course>
  <speed>0.5</speed>
  <fix>3d</fix>
</trkpt>
<trkpt lat="33.8101171" lon="-118.3938676">
  <ele>-15.161</ele>
  <time>2026-09-02T22:12:50Z</time>
  <course>186.67</course>
  <speed>0.4801041553663121</speed>
  <fix>3d</fix>
</trkpt>
<trkpt lat="33.8101179" lon="-118.3938674">
  <ele>-14.81</ele>
  <time>2026-09-02T22:12:50Z</time>
  <course>179.82</course>
  <speed>0.5</speed>
  <fix>3d</fix>
</trkpt>
<trkpt lat="33.8101166" lon="-118.3938676">
  <ele>-15.163</ele>
  <time>2026-09-02T22:12:50Z</time>
  <course>186.67</course>
  <speed>0.4801041553663121</speed>
  <fix>3d</fix>
</trkpt>
<trkpt lat="33.810117" lon="-118.3938674">
  <ele>-14.81</ele>
  <time>2026-09-02T22:12:50Z</time>
  <course>179.81</course>
  <speed>0.5</speed>
  <fix>3d</fix>
</trkpt>
<trkpt lat="33.8101162" lon="-118.3938676">
  <ele>-15.164</ele>
  <time>2026-09-02T22:12:50Z</time>
  <course>186.67</course>
  <speed>0.4801041553663121</speed>
  <fix>3d</fix>
</trkpt>
<trkpt lat="33.810117" lon="-118.3938674">
  <ele>-14.81</ele>
  <time>2026-09-02T22:12:50Z</time>
  <course>179.81</course>
  <speed>0.5</speed>
  <fix>3d</fix>
</trkpt>
<trkpt lat="33.8101157" lon="-118.3938676">
  <ele>-15.165</ele>
  <time>2026-09-02T22:12:50Z</time>
  <course>186.67</course>
  <speed>0.4801041553663121</speed>
  <fix>3d</fix>
</trkpt>
<trkpt lat="33.8101161" lon="-118.3938674">
  <ele>-14.81</ele>
  <time>2026-09-02T22:12:50Z</time>
  <course>179.8</course>
  <speed>0.5</speed>
  <fix>3d</fix>
</trkpt>
<trkpt lat="33.8101153" lon="-118.3938676">
  <ele>-15.166</ele>
  <time>2026-09-02T22:12:50Z</time>
  <course>186.67</course>
  <speed>0.47010637094172636</speed>
  <fix>3d</fix>
</trkpt>
<trkpt lat="33.8101161" lon="-118.3938674">
  <ele>-14.81</ele>
  <time>2026-09-02T22:12:50Z</time>
  <course>179.8</course>
  <speed>0.5</speed>
  <fix>3d</fix>
</trkpt>
<trkpt lat="33.8101148" lon="-118.3938676">
  <ele>-15.165</ele>
  <time>2026-09-02T22:12:50Z</time>
  <course>186.67</course>
  <speed>0.4801041553663121</speed>
  <fix>3d</fix>
</trkpt>
<trkpt lat="33.8101151" lon="-118.3938674">
  <ele>-14.81</ele>
  <time>2026-09-02T22:12:50Z</time>
  <course>179.81</course>
  <speed>0.5</speed>
  <fix>3d</fix>
</trkpt>
<trkpt lat="33.8101144" lon="-118.3938676">
  <ele>-15.164</ele>
  <time>2026-09-02T22:12:50Z</time>
  <course>186.67</course>
  <speed>0.47010637094172636</speed>
  <fix>3d</fix>
</trkpt>
<trkpt lat="33.8101151" lon="-118.3938674">
  <ele>-14.81</ele>
  <time>2026-09-02T22:12:50Z</time>
  <course>179.81</course>
  <speed>0.5</speed>
  <fix>3d</fix>
</trkpt>
<trkpt lat="33.8101139" lon="-118.3938676">
  <ele>-15.163</ele>
  <time>2026-09-02T22:12:50Z</time>
  <course>186.67</course>
  <speed>0.47010637094172636</speed>
  <fix>3d</fix>
</trkpt>
<trkpt lat="33.8101142" lon="-118.3938674">
  <ele>-14.81</ele>
  <time>2026-09-02T22:12:50Z</time>
  <course>179.83</course>
  <speed>0.5</speed>
  <fix>3d</fix>
</trkpt>
<trkpt lat="33.8101135" lon="-118.3938676">
  <ele>-15.161</ele>
  <time>2026-09-02T22:12:50Z</time>
  <course>186.67</course>
  <speed>0.47010637094172636</speed>
  <fix>3d</fix>
</trkpt>
<trkpt lat="33.8101142" lon="-118.3938674">
  <ele>-14.81</ele>
  <time>2026-09-02T22:12:50Z</time>
  <course>179.83</course>
  <speed>0.5</speed>
  <fix>3d</fix>
</trkpt>
<trkpt lat="33.810113" lon="-118.3938676">
  <ele>-15.159</ele>
  <time>2026-09-02T22:12:50Z</time>
  <course>186.67</course>
  <speed>0.47010637094172636</speed>
  <fix>3d</fix>
</trkpt>
<trkpt lat="33.8101133" lon="-118.3938674">
  <ele>-14.8</ele>
  <time>2026-09-02T22:12:50Z</time>
  <course>179.86</course>
  <speed>0.5</speed>
  <fix>3d</fix>
</trkpt>
<trkpt lat="33.8101126" lon="-118.3938676">
  <ele>-15.157</ele>
  <time>2026-09-02T22:12:50Z</time>
  <course>186.67</course>
  <speed>0.47010637094172636</speed>
  <fix>3d</fix>
</trkpt>
<trkpt lat="33.8101133" lon="-118.3938674">
  <ele>-14.8</ele>
  <time>2026-09-02T22:12:50Z</time>
  <course>179.86</course>
  <speed>0.5</speed>
  <fix>3d</fix>
</trkpt>
<trkpt lat="33.8101121" lon="-118.3938676">
  <ele>-15.155</ele>
  <time>2026-09-02T22:12:50Z</time>
  <course>186.67</course>
  <speed>0.47010637094172636</speed>
  <fix>3d</fix>
</trkpt>
<trkpt lat="33.8101124" lon="-118.3938673">
  <ele>-14.79</ele>
  <time>2026-09-02T22:12:50Z</time>
  <course>179.86</course>
  <speed>0.5</speed>
  <fix>3d</fix>
</trkpt>
<trkpt lat="33.8101117" lon="-118.3938676">
  <ele>-15.152</ele>
  <time>2026-09-02T22:12:50Z</time>
  <course>186.67</course>
  <speed>0.47010637094172636</speed>
  <fix>3d</fix>
</trkpt>
<trkpt lat="33.8101124" lon="-118.3938673">
  <ele>-14.79</ele>
  <time>2026-09-02T22:12:50Z</time>
  <course>179.86</course>
  <speed>0.5</speed>
  <fix>3d</fix>
</trkpt>
<trkpt lat="33.8101112" lon="-118.3938676">
  <ele>-15.15</ele>
  <time>2026-09-02T22:12:50Z</time>
  <course>186.68</course>
  <speed>0.47010637094172636</speed>
  <fix>3d</fix>
</trkpt>
<trkpt lat="33.8101115" lon="-118.3938673">
  <ele>-14.79</ele>
  <time>2026-09-02T22:12:50Z</time>
  <course>179.93</course>
  <speed>0.5</speed>
  <fix>3d</fix>
</trkpt>
<trkpt lat="33.8101108" lon="-118.3938676">
  <ele>-15.149</ele>
  <time>2026-09-02T22:12:50Z</time>
  <course>186.67</course>
  <speed>0.47010637094172636</speed>
  <fix>3d</fix>
</trkpt>
<trkpt lat="33.8101115" lon="-118.3938673">
  <ele>-14.79</ele>
  <time>2026-09-02T22:12:50Z</time>
  <course>179.93</course>
  <speed>0.5</speed>
  <fix>3d</fix>
</trkpt>
<trkpt lat="33.8101103" lon="-118.3938676">
  <ele>-15.149</ele>
  <time>2026-09-02T22:12:50Z</time>
  <course>186.67</course>
  <speed>0.47010637094172636</speed>
  <fix>3d</fix>
</trkpt>
<trkpt lat="33.8101106" lon="-118.3938673">
  <ele>-14.79</ele>
  <time>2026-09-02T22:12:50Z</time>
  <course>180.12</course>
  <speed>0.49</speed>
  <fix>3d</fix>
</trkpt>
<trkpt lat="33.8101099" lon="-118.3938676">
  <ele>-15.149</ele>
  <time>2026-09-02T22:12:50Z</time>
  <course>186.68</course>
  <speed>0.47010637094172636</speed>
  <fix>3d</fix>
</trkpt>
<trkpt lat="33.8101106" lon="-118.3938673">
  <ele>-14.79</ele>
  <time>2026-09-02T22:12:50Z</time>
  <course>180.12</course>
  <speed>0.49</speed>
  <fix>3d</fix>
</trkpt>
<trkpt lat="33.8101094" lon="-118.3938676">
  <ele>-15.148</ele>
  <time>2026-09-02T22:12:50Z</time>
  <course>186.68</course>
  <speed>0.47010637094172636</speed>
  <fix>3d</fix>
</trkpt>
<trkpt lat="33.8101097" lon="-118.3938673">
  <ele>-14.79</ele>
  <time>2026-09-02T22:12:50Z</time>
  <course>180.33</course>
  <speed>0.49</speed>
  <fix>3d</fix>
</trkpt>
<trkpt lat="33.810109" lon="-118.3938676">
  <ele>-15.148</ele>
  <time>2026-09-02T22:12:50Z</time>
  <course>186.68</course>
  <speed>0.470425339453563</speed>
  <fix>3d</fix>
</trkpt>
<trkpt lat="33.8101097" lon="-118.3938673">
  <ele>-14.79</ele>
  <time>2026-09-02T22:12:50Z</time>
  <course>180.33</course>
  <speed>0.49</speed>
  <fix>3d</fix>
</trkpt>
<trkpt lat="33.8101085" lon="-118.3938676">
  <ele>-15.148</ele>
  <time>2026-09-02T22:12:50Z</time>
  <course>186.67</course>
  <speed>0.470425339453563</speed>
  <fix>3d</fix>
</trkpt>
<trkpt lat="33.8101088" lon="-118.3938673">
  <ele>-14.79</ele>
  <time>2026-09-02T22:12:50Z</time>
  <course>180.5</course>
  <speed>0.49</speed>
  <fix>3d</fix>
</trkpt>
<trkpt lat="33.8101081" lon="-118.3938676">
  <ele>-15.148</ele>
  <time>2026-09-02T22:12:50Z</time>
  <course>186.67</course>
  <speed>0.470425339453563</speed>
  <fix>3d</fix>
</trkpt>
<trkpt lat="33.8101088" lon="-118.3938673">
  <ele>-14.79</ele>
  <time>2026-09-02T22:12:50Z</time>
  <course>180.5</course>
  <speed>0.49</speed>
  <fix>3d</fix>
</trkpt>
<trkpt lat="33.8101076" lon="-118.3938676">
  <ele>-15.147</ele>
  <time>2026-09-02T22:12:50Z</time>
  <course>186.67</course>
  <speed>0.470425339453563</speed>
  <fix>3d</fix>
</trkpt>
<trkpt lat="33.8101079" lon="-118.3938673">
  <ele>-14.79</ele>
  <time>2026-09-02T22:12:50Z</time>
  <course>180.63</course>
  <speed>0.49</speed>
  <fix>3d</fix>
</trkpt>
<trkpt lat="33.8101072" lon="-118.3938676">
  <ele>-15.147</ele>
  <time>2026-09-02T22:12:50Z</time>
  <course>186.67</course>
  <speed>0.470425339453563</speed>
  <fix>3d</fix>
</trkpt>
<trkpt lat="33.8101079" lon="-118.3938673">
  <ele>-14.79</ele>
  <time>2026-09-02T22:12:50Z</time>
  <course>180.63</course>
  <speed>0.49</speed>
  <fix>3d</fix>
</trkpt>
<trkpt lat="33.8101067" lon="-118.3938676">
  <ele>-15.147</ele>
  <time>2026-09-02T22:12:50Z</time>
  <course>186.67</course>
  <speed>0.470425339453563</speed>
  <fix>3d</fix>
</trkpt>
<trkpt lat="33.810107" lon="-118.3938673">
  <ele>-14.79</ele>
  <time>2026-09-02T22:12:50Z</time>
  <course>180.74</course>
  <speed>0.49</speed>
  <fix>3d</fix>
</trkpt>
<trkpt lat="33.8101063" lon="-118.3938675">
  <ele>-15.147</ele>
  <time>2026-09-02T22:12:50Z</time>
  <course>186.67</course>
  <speed>0.470425339453563</speed>
  <fix>3d</fix>
</trkpt>
<trkpt lat="33.810107" lon="-118.3938673">
  <ele>-14.79</ele>
  <time>2026-09-02T22:12:50Z</time>
  <course>180.74</course>
  <speed>0.49</speed>
  <fix>3d</fix>
</trkpt>
<trkpt lat="33.8101058" lon="-118.3938675">
  <ele>-15.147</ele>
  <time>2026-09-02T22:12:50Z</time>
  <course>186.67</course>
  <speed>0.470425339453563</speed>
  <fix>3d</fix>
</trkpt>
<trkpt lat="33.8101061" lon="-118.3938673">
  <ele>-14.79</ele>
  <time>2026-09-02T22:12:50Z</time>
  <course>180.82</course>
  <speed>0.49</speed>
  <fix>3d</fix>
</trkpt>
<trkpt lat="33.8101054" lon="-118.3938675">
  <ele>-15.147</ele>
  <time>2026-09-02T22:12:50Z</time>
  <course>186.67</course>
  <speed>0.470425339453563</speed>
  <fix>3d</fix>
</trkpt>
<trkpt lat="33.8101061" lon="-118.3938673">
  <ele>-14.79</ele>
  <time>2026-09-02T22:12:50Z</time>
  <course>180.82</course>
  <speed>0.49</speed>
  <fix>3d</fix>
</trkpt>
<trkpt lat="33.8101049" lon="-118.3938675">
  <ele>-15.146</ele>
  <time>2026-09-02T22:12:50Z</time>
  <course>186.67</course>
  <speed>0.470425339453563</speed>
  <fix>3d</fix>
</trkpt>
<trkpt lat="33.8101052" lon="-118.3938673">
  <ele>-14.78</ele>
  <time>2026-09-02T22:12:50Z</time>
  <course>180.86</course>
  <speed>0.49</speed>
  <fix>3d</fix>
</trkpt>
<trkpt lat="33.8101045" lon="-118.3938675">
  <ele>-15.144</ele>
  <time>2026-09-02T22:12:50Z</time>
  <course>186.67</course>
  <speed>0.470425339453563</speed>
  <fix>3d</fix>
</trkpt>
<trkpt lat="33.8101052" lon="-118.3938673">
  <ele>-14.78</ele>
  <time>2026-09-02T22:12:50Z</time>
  <course>180.86</course>
  <speed>0.49</speed>
  <fix>3d</fix>
</trkpt>
<trkpt lat="33.810104" lon="-118.3938675">
  <ele>-15.142</ele>
  <time>2026-09-02T22:12:50Z</time>
  <course>186.67</course>
  <speed>0.470425339453563</speed>
  <fix>3d</fix>
</trkpt>
<trkpt lat="33.8101044" lon="-118.3938673">
  <ele>-14.78</ele>
  <time>2026-09-02T22:12:50Z</time>
  <course>180.89</course>
  <speed>0.49</speed>
  <fix>3d</fix>
</trkpt>
<trkpt lat="33.8101036" lon="-118.3938675">
  <ele>-15.14</ele>
  <time>2026-09-02T22:12:50Z</time>
  <course>186.67</course>
  <speed>0.470425339453563</speed>
  <fix>3d</fix>
</trkpt>
<trkpt lat="33.8101044" lon="-118.3938673">
  <ele>-14.78</ele>
  <time>2026-09-02T22:12:50Z</time>
  <course>180.89</course>
  <speed>0.49</speed>
  <fix>3d</fix>
</trkpt>
<trkpt lat="33.8101031" lon="-118.3938675">
  <ele>-15.138</ele>
  <time>2026-09-02T22:12:50Z</time>
  <course>186.67</course>
  <speed>0.47010637094172636</speed>
  <fix>3d</fix>
</trkpt>
<trkpt lat="33.8101035" lon="-118.3938673">
  <ele>-14.78</ele>
  <time>2026-09-02T22:12:50Z</time>
  <course>180.89</course>
  <speed>0.49</speed>
  <fix>3d</fix>
</trkpt>
<trkpt lat="33.8101027" lon="-118.3938675">
  <ele>-15.138</ele>
  <time>2026-09-02T22:12:50Z</time>
  <course>186.67</course>
  <speed>0.470425339453563</speed>
  <fix>3d</fix>
</trkpt>
<trkpt lat="33.8101035" lon="-118.3938673">
  <ele>-14.78</ele>
  <time>2026-09-02T22:12:50Z</time>
  <course>180.89</course>
  <speed>0.49</speed>
  <fix>3d</fix>
</trkpt>
<trkpt lat="33.8101022" lon="-118.3938675">
  <ele>-15.138</ele>
  <time>2026-09-02T22:12:50Z</time>
  <course>186.67</course>
  <speed>0.47010637094172636</speed>
  <fix>3d</fix>
</trkpt>
<trkpt lat="33.8101026" lon="-118.3938674">
  <ele>-14.78</ele>
  <time>2026-09-02T22:12:50Z</time>
  <course>180.9</course>
  <speed>0.49</speed>
  <fix>3d</fix>
</trkpt>
<trkpt lat="33.8101018" lon="-118.3938675">
  <ele>-15.137</ele>
  <time>2026-09-02T22:12:50Z</time>
  <course>186.67</course>
  <speed>0.47010637094172636</speed>
  <fix>3d</fix>
</trkpt>
<trkpt lat="33.8101026" lon="-118.3938674">
  <ele>-14.78</ele>
  <time>2026-09-02T22:12:50Z</time>
  <course>180.9</course>
  <speed>0.49</speed>
  <fix>3d</fix>
</trkpt>
<trkpt lat="33.8101013" lon="-118.3938675">
  <ele>-15.136</ele>
  <time>2026-09-02T22:12:50Z</time>
  <course>186.67</course>
  <speed>0.47010637094172636</speed>
  <fix>3d</fix>
</trkpt>
<trkpt lat="33.8101017" lon="-118.3938674">
  <ele>-14.77</ele>
  <time>2026-09-02T22:12:50Z</time>
  <course>180.87</course>
  <speed>0.49</speed>
  <fix>3d</fix>
</trkpt>
<trkpt lat="33.8101009" lon="-118.3938675">
  <ele>-15.135</ele>
  <time>2026-09-02T22:12:50Z</time>
  <course>186.67</course>
  <speed>0.47010637094172636</speed>
  <fix>3d</fix>
</trkpt>
<trkpt lat="33.8101017" lon="-118.3938674">
  <ele>-14.77</ele>
  <time>2026-09-02T22:12:50Z</time>
  <course>180.87</course>
  <speed>0.49</speed>
  <fix>3d</fix>
</trkpt>
<trkpt lat="33.8101004" lon="-118.3938675">
  <ele>-15.133</ele>
  <time>2026-09-02T22:12:50Z</time>
  <course>186.67</course>
  <speed>0.47010637094172636</speed>
  <fix>3d</fix>
</trkpt>
<trkpt lat="33.8101008" lon="-118.3938674">
  <ele>-14.77</ele>
  <time>2026-09-02T22:12:50Z</time>
  <course>180.74</course>
  <speed>0.5</speed>
  <fix>3d</fix>
</trkpt>
<trkpt lat="33.8101" lon="-118.3938675">
  <ele>-15.131</ele>
  <time>2026-09-02T22:12:50Z</time>
  <course>186.67</course>
  <speed>0.47010637094172636</speed>
  <fix>3d</fix>
</trkpt>
<trkpt lat="33.8101008" lon="-118.3938674">
  <ele>-14.77</ele>
  <time>2026-09-02T22:12:50Z</time>
  <course>180.74</course>
  <speed>0.5</speed>
  <fix>3d</fix>
</trkpt>
<trkpt lat="33.8100996" lon="-118.3938675">
  <ele>-15.131</ele>
  <time>2026-09-02T22:12:50Z</time>
  <course>186.67</course>
  <speed>0.47010637094172636</speed>
  <fix>3d</fix>
</trkpt>
<trkpt lat="33.8100999" lon="-118.3938674">
  <ele>-14.77</ele>
  <time>2026-09-02T22:12:50Z</time>
  <course>180.59</course>
  <speed>0.5</speed>
  <fix>3d</fix>
</trkpt>
<trkpt lat="33.8100991" lon="-118.3938675">
  <ele>-15.13</ele>
  <time>2026-09-02T22:12:50Z</time>
  <course>186.67</course>
  <speed>0.47010637094172636</speed>
  <fix>3d</fix>
</trkpt>
<trkpt lat="33.8100999" lon="-118.3938674">
  <ele>-14.77</ele>
  <time>2026-09-02T22:12:50Z</time>
  <course>180.59</course>
  <speed>0.5</speed>
  <fix>3d</fix>
</trkpt>
<trkpt lat="33.8100987" lon="-118.3938675">
  <ele>-15.131</ele>
  <time>2026-09-02T22:12:50Z</time>
  <course>186.67</course>
  <speed>0.47010637094172636</speed>
  <fix>3d</fix>
</trkpt>
<trkpt lat="33.810099" lon="-118.3938674">
  <ele>-14.77</ele>
  <time>2026-09-02T22:12:50Z</time>
  <course>180.48</course>
  <speed>0.5</speed>
  <fix>3d</fix>
</trkpt>
<trkpt lat="33.8100982" lon="-118.3938675">
  <ele>-15.133</ele>
  <time>2026-09-02T22:12:50Z</time>
  <course>186.67</course>
  <speed>0.47010637094172636</speed>
  <fix>3d</fix>
</trkpt>
<trkpt lat="33.810099" lon="-118.3938674">
  <ele>-14.77</ele>
  <time>2026-09-02T22:12:50Z</time>
  <course>180.48</course>
  <speed>0.5</speed>
  <fix>3d</fix>
</trkpt>
<trkpt lat="33.8100978" lon="-118.3938675">
  <ele>-15.135</ele>
  <time>2026-09-02T22:12:50Z</time>
  <course>186.67</course>
  <speed>0.47010637094172636</speed>
  <fix>3d</fix>
</trkpt>
<trkpt lat="33.8100981" lon="-118.3938674">
  <ele>-14.78</ele>
  <time>2026-09-02T22:12:50Z</time>
  <course>180.42</course>
  <speed>0.5</speed>
  <fix>3d</fix>
</trkpt>
<trkpt lat="33.8100973" lon="-118.3938675">
  <ele>-15.136</ele>
  <time>2026-09-02T22:12:50Z</time>
  <course>186.67</course>
  <speed>0.47010637094172636</speed>
  <fix>3d</fix>
</trkpt>
<trkpt lat="33.8100981" lon="-118.3938674">
  <ele>-14.78</ele>
  <time>2026-09-02T22:12:50Z</time>
  <course>180.42</course>
  <speed>0.5</speed>
  <fix>3d</fix>
</trkpt>
<trkpt lat="33.8100969" lon="-118.3938675">
  <ele>-15.137</ele>
  <time>2026-09-02T22:12:50Z</time>
  <course>186.67</course>
  <speed>0.47010637094172636</speed>
  <fix>3d</fix>
</trkpt>
<trkpt lat="33.8100972" lon="-118.3938674">
  <ele>-14.78</ele>
  <time>2026-09-02T22:12:50Z</time>
  <course>180.39</course>
  <speed>0.5</speed>
  <fix>3d</fix>
</trkpt>
<trkpt lat="33.8100964" lon="-118.3938675">
  <ele>-15.138</ele>
  <time>2026-09-02T22:12:50Z</time>
  <course>186.67</course>
  <speed>0.47010637094172636</speed>
  <fix>3d</fix>
</trkpt>
<trkpt lat="33.8100972" lon="-118.3938674">
  <ele>-14.78</ele>
  <time>2026-09-02T22:12:50Z</time>
  <course>180.39</course>
  <speed>0.5</speed>
  <fix>3d</fix>
</trkpt>
<trkpt lat="33.810096" lon="-118.3938675">
  <ele>-15.137</ele>
  <time>2026-09-02T22:12:50Z</time>
  <course>186.67</course>
  <speed>0.47010637094172636</speed>
  <fix>3d</fix>
</trkpt>
<trkpt lat="33.8100963" lon="-118.3938674">
  <ele>-14.77</ele>
  <time>2026-09-02T22:12:50Z</time>
  <course>180.37</course>
  <speed>0.5</speed>
  <fix>3d</fix>
</trkpt>
<trkpt lat="33.8100955" lon="-118.3938675">
  <ele>-15.136</ele>
  <time>2026-09-02T22:12:50Z</time>
  <course>186.67</course>
  <speed>0.47010637094172636</speed>
  <fix>3d</fix>
</trkpt>
<trkpt lat="33.8100963" lon="-118.3938674">
  <ele>-14.77</ele>
  <time>2026-09-02T22:12:50Z</time>
  <course>180.37</course>
  <speed>0.5</speed>
  <fix>3d</fix>
</trkpt>
<trkpt lat="33.8100951" lon="-118.3938675">
  <ele>-15.134</ele>
  <time>2026-09-02T22:12:50Z</time>
  <course>186.67</course>
  <speed>0.47010637094172636</speed>
  <fix>3d</fix>
</trkpt>
<trkpt lat="33.8100953" lon="-118.3938674">
  <ele>-14.77</ele>
  <time>2026-09-02T22:12:50Z</time>
  <course>180.36</course>
  <speed>0.5</speed>
  <fix>3d</fix>
</trkpt>
<trkpt lat="33.8100946" lon="-118.3938675">
  <ele>-15.13</ele>
  <time>2026-09-02T22:12:50Z</time>
  <course>186.67</course>
  <speed>0.47010637094172636</speed>
  <fix>3d</fix>
</trkpt>
<trkpt lat="33.8100953" lon="-118.3938674">
  <ele>-14.77</ele>
  <time>2026-09-02T22:12:50Z</time>
  <course>180.36</course>
  <speed>0.5</speed>
  <fix>3d</fix>
</trkpt>
<trkpt lat="33.8100941" lon="-118.3938675">
  <ele>-15.125</ele>
  <time>2026-09-02T22:12:50Z</time>
  <course>186.67</course>
  <speed>0.47010637094172636</speed>
  <fix>3d</fix>
</trkpt>
<trkpt lat="33.8100944" lon="-118.3938674">
  <ele>-14.76</ele>
  <time>2026-09-02T22:12:50Z</time>
  <course>180.34</course>
  <speed>0.5</speed>
  <fix>3d</fix>
</trkpt>
<trkpt lat="33.8100937" lon="-118.3938675">
  <ele>-15.12</ele>
  <time>2026-09-02T22:12:50Z</time>
  <course>186.67</course>
  <speed>0.47010637094172636</speed>
  <fix>3d</fix>
</trkpt>
<trkpt lat="33.8100944" lon="-118.3938674">
  <ele>-14.76</ele>
  <time>2026-09-02T22:12:50Z</time>
  <course>180.34</course>
  <speed>0.5</speed>
  <fix>3d</fix>
</trkpt>
<trkpt lat="33.8100932" lon="-118.3938675">
  <ele>-15.117</ele>
  <time>2026-09-02T22:12:50Z</time>
  <course>186.67</course>
  <speed>0.47010637094172636</speed>
  <fix>3d</fix>
</trkpt>
<trkpt lat="33.8100935" lon="-118.3938675">
  <ele>-14.76</ele>
  <time>2026-09-02T22:12:50Z</time>
  <course>180.35</course>
  <speed>0.5</speed>
  <fix>3d</fix>
</trkpt>
<trkpt lat="33.8100928" lon="-118.3938675">
  <ele>-15.116</ele>
  <time>2026-09-02T22:12:50Z</time>
  <course>186.67</course>
  <speed>0.47010637094172636</speed>
  <fix>3d</fix>
</trkpt>
<trkpt lat="33.8100935" lon="-118.3938675">
  <ele>-14.76</ele>
  <time>2026-09-02T22:12:50Z</time>
  <course>180.35</course>
  <speed>0.5</speed>
  <fix>3d</fix>
</trkpt>
<trkpt lat="33.8100923" lon="-118.3938675">
  <ele>-15.116</ele>
  <time>2026-09-02T22:12:50Z</time>
  <course>186.67</course>
  <speed>0.47010637094172636</speed>
  <fix>3d</fix>
</trkpt>
<trkpt lat="33.8100926" lon="-118.3938675">
  <ele>-14.76</ele>
  <time>2026-09-02T22:12:50Z</time>
  <course>180.3</course>
  <speed>0.49</speed>
  <fix>3d</fix>
</trkpt>
<trkpt lat="33.8100919" lon="-118.3938675">
  <ele>-15.117</ele>
  <time>2026-09-02T22:12:50Z</time>
  <course>186.67</course>
  <speed>0.47010637094172636</speed>
  <fix>3d</fix>
</trkpt>
<trkpt lat="33.8100926" lon="-118.3938675">
  <ele>-14.76</ele>
  <time>2026-09-02T22:12:50Z</time>
  <course>180.3</course>
  <speed>0.49</speed>
  <fix>3d</fix>
</trkpt>
<trkpt lat="33.8100914" lon="-118.3938675">
  <ele>-15.119</ele>
  <time>2026-09-02T22:12:50Z</time>
  <course>186.67</course>
  <speed>0.47010637094172636</speed>
  <fix>3d</fix>
</trkpt>
<trkpt lat="33.8100917" lon="-118.3938675">
  <ele>-14.76</ele>
  <time>2026-09-02T22:12:50Z</time>
  <course>180.15</course>
  <speed>0.49</speed>
  <fix>3d</fix>
</trkpt>
<trkpt lat="33.810091" lon="-118.3938675">
  <ele>-15.12</ele>
  <time>2026-09-02T22:12:50Z</time>
  <course>186.67</course>
  <speed>0.47010637094172636</speed>
  <fix>3d</fix>
</trkpt>
<trkpt lat="33.8100917" lon="-118.3938675">
  <ele>-14.76</ele>
  <time>2026-09-02T22:12:50Z</time>
  <course>180.15</course>
  <speed>0.49</speed>
  <fix>3d</fix>
</trkpt>
<trkpt lat="33.8100905" lon="-118.3938675">
  <ele>-15.121</ele>
  <time>2026-09-02T22:12:50Z</time>
  <course>186.67</course>
  <speed>0.47010637094172636</speed>
  <fix>3d</fix>
</trkpt>
<trkpt lat="33.8100909" lon="-118.3938675">
  <ele>-14.76</ele>
  <time>2026-09-02T22:12:50Z</time>
  <course>179.94</course>
  <speed>0.49</speed>
  <fix>3d</fix>
</trkpt>
<trkpt lat="33.8100901" lon="-118.3938675">
  <ele>-15.121</ele>
  <time>2026-09-02T22:12:50Z</time>
  <course>186.67</course>
  <speed>0.47010637094172636</speed>
  <fix>3d</fix>
</trkpt>
<trkpt lat="33.8100909" lon="-118.3938675">
  <ele>-14.76</ele>
  <time>2026-09-02T22:12:50Z</time>
  <course>179.94</course>
  <speed>0.49</speed>
  <fix>3d</fix>
</trkpt>
<trkpt lat="33.8100896" lon="-118.3938675">
  <ele>-15.121</ele>
  <time>2026-09-02T22:12:50Z</time>
  <course>186.67</course>
  <speed>0.47010637094172636</speed>
  <fix>3d</fix>
</trkpt>
<trkpt lat="33.81009" lon="-118.3938675">
  <ele>-14.77</ele>
  <time>2026-09-02T22:12:50Z</time>
  <course>179.76</course>
  <speed>0.49</speed>
  <fix>3d</fix>
</trkpt>
<trkpt lat="33.8100892" lon="-118.3938675">
  <ele>-15.122</ele>
  <time>2026-09-02T22:12:50Z</time>
  <course>186.67</course>
  <speed>0.47010637094172636</speed>
  <fix>3d</fix>
</trkpt>
<trkpt lat="33.81009" lon="-118.3938675">
  <ele>-14.77</ele>
  <time>2026-09-02T22:12:50Z</time>
  <course>179.76</course>
  <speed>0.49</speed>
  <fix>3d</fix>
</trkpt>
<trkpt lat="33.8100888" lon="-118.3938675">
  <ele>-15.122</ele>
  <time>2026-09-02T22:12:50Z</time>
  <course>186.67</course>
  <speed>0.47</speed>
  <fix>3d</fix>
</trkpt>
<trkpt lat="33.8100891" lon="-118.3938675">
  <ele>-14.77</ele>
  <time>2026-09-02T22:12:50Z</time>
  <course>179.6</course>
  <speed>0.49</speed>
  <fix>3d</fix>
</trkpt>
<trkpt lat="33.8100883" lon="-118.3938675">
  <ele>-15.122</ele>
  <time>2026-09-02T22:12:50Z</time>
  <course>186.67</course>
  <speed>0.47</speed>
  <fix>3d</fix>
</trkpt>
<trkpt lat="33.8100891" lon="-118.3938675">
  <ele>-14.77</ele>
  <time>2026-09-02T22:12:50Z</time>
  <course>179.6</course>
  <speed>0.49</speed>
  <fix>3d</fix>
</trkpt>
<trkpt lat="33.8100879" lon="-118.3938675">
  <ele>-15.122</ele>
  <time>2026-09-02T22:12:50Z</time>
  <course>186.67</course>
  <speed>0.47</speed>
  <fix>3d</fix>
</trkpt>
<trkpt lat="33.8100882" lon="-118.3938675">
  <ele>-14.76</ele>
  <time>2026-09-02T22:12:50Z</time>
  <course>179.5</course>
  <speed>0.49</speed>
  <fix>3d</fix>
</trkpt>
<trkpt lat="33.8100874" lon="-118.3938675">
  <ele>-15.121</ele>
  <time>2026-09-02T22:12:50Z</time>
  <course>186.67</course>
  <speed>0.47</speed>
  <fix>3d</fix>
</trkpt>
<trkpt lat="33.8100882" lon="-118.3938675">
  <ele>-14.76</ele>
  <time>2026-09-02T22:12:50Z</time>
  <course>179.5</course>
  <speed>0.49</speed>
  <fix>3d</fix>
</trkpt>
<trkpt lat="33.810087" lon="-118.3938675">
  <ele>-15.12</ele>
  <time>2026-09-02T22:12:50Z</time>
  <course>186.67</course>
  <speed>0.47</speed>
  <fix>3d</fix>
</trkpt>
<trkpt lat="33.8100873" lon="-118.3938675">
  <ele>-14.76</ele>
  <time>2026-09-02T22:12:50Z</time>
  <course>179.44</course>
  <speed>0.49</speed>
  <fix>3d</fix>
</trkpt>
<trkpt lat="33.8100865" lon="-118.3938675">
  <ele>-15.119</ele>
  <time>2026-09-02T22:12:50Z</time>
  <course>186.66</course>
  <speed>0.47010637094172636</speed>
  <fix>3d</fix>
</trkpt>
<trkpt lat="33.8100873" lon="-118.3938675">
  <ele>-14.76</ele>
  <time>2026-09-02T22:12:50Z</time>
  <course>179.44</course>
  <speed>0.49</speed>
  <fix>3d</fix>
</trkpt>
<trkpt lat="33.8100861" lon="-118.3938675">
  <ele>-15.116</ele>
  <time>2026-09-02T22:12:50Z</time>
  <course>186.66</course>
  <speed>0.47</speed>
  <fix>3d</fix>
</trkpt>
<trkpt lat="33.8100864" lon="-118.3938675">
  <ele>-14.75</ele>
  <time>2026-09-02T22:12:50Z</time>
  <course>179.4</course>
  <speed>0.49</speed>
  <fix>3d</fix>
</trkpt>
<trkpt lat="33.8100856" lon="-118.3938675">
  <ele>-15.113</ele>
  <time>2026-09-02T22:12:50Z</time>
  <course>186.67</course>
  <speed>0.47010637094172636</speed>
  <fix>3d</fix>
</trkpt>
<trkpt lat="33.8100864" lon="-118.3938675">
  <ele>-14.75</ele>
  <time>2026-09-02T22:12:50Z</time>
  <course>179.4</course>
  <speed>0.49</speed>
  <fix>3d</fix>
</trkpt>
<trkpt lat="33.8100852" lon="-118.3938675">
  <ele>-15.111</ele>
  <time>2026-09-02T22:12:50Z</time>
  <course>186.67</course>
  <speed>0.47</speed>
  <fix>3d</fix>
</trkpt>
<trkpt lat="33.8100855" lon="-118.3938675">
  <ele>-14.75</ele>
  <time>2026-09-02T22:12:50Z</time>
  <course>179.35</course>
  <speed>0.49</speed>
  <fix>3d</fix>
</trkpt>
<trkpt lat="33.8100847" lon="-118.3938675">
  <ele>-15.109</ele>
  <time>2026-09-02T22:12:50Z</time>
  <course>186.66</course>
  <speed>0.47010637094172636</speed>
  <fix>3d</fix>
</trkpt>
<trkpt lat="33.8100855" lon="-118.3938675">
  <ele>-14.75</ele>
  <time>2026-09-02T22:12:50Z</time>
  <course>179.35</course>
  <speed>0.49</speed>
  <fix>3d</fix>
</trkpt>
<trkpt lat="33.8100843" lon="-118.3938675">
  <ele>-15.11</ele>
  <time>2026-09-02T22:12:50Z</time>
  <course>186.66</course>
  <speed>0.47010637094172636</speed>
  <fix>3d</fix>
</trkpt>
<trkpt lat="33.8100846" lon="-118.3938675">
  <ele>-14.75</ele>
  <time>2026-09-02T22:12:50Z</time>
  <course>179.31</course>
  <speed>0.5</speed>
  <fix>3d</fix>
</trkpt>
<trkpt lat="33.8100838" lon="-118.3938675">
  <ele>-15.11</ele>
  <time>2026-09-02T22:12:50Z</time>
  <course>186.67</course>
  <speed>0.47010637094172636</speed>
  <fix>3d</fix>
</trkpt>
<trkpt lat="33.8100846" lon="-118.3938675">
  <ele>-14.75</ele>
  <time>2026-09-02T22:12:50Z</time>
  <course>179.31</course>
  <speed>0.5</speed>
  <fix>3d</fix>
</trkpt>
<trkpt lat="33.8100834" lon="-118.3938675">
  <ele>-15.11</ele>
  <time>2026-09-02T22:12:50Z</time>
  <course>186.67</course>
  <speed>0.47010637094172636</speed>
  <fix>3d</fix>
</trkpt>
<trkpt lat="33.8100837" lon="-118.3938675">
  <ele>-14.75</ele>
  <time>2026-09-02T22:12:50Z</time>
  <course>179.27</course>
  <speed>0.49</speed>
  <fix>3d</fix>
</trkpt>
<trkpt lat="33.8100829" lon="-118.3938675">
  <ele>-15.109</ele>
  <time>2026-09-02T22:12:50Z</time>
  <course>186.66</course>
  <speed>0.47010637094172636</speed>
  <fix>3d</fix>
</trkpt>
<trkpt lat="33.8100837" lon="-118.3938675">
  <ele>-14.75</ele>
  <time>2026-09-02T22:12:50Z</time>
  <course>179.27</course>
  <speed>0.49</speed>
  <fix>3d</fix>
</trkpt>
<trkpt lat="33.8100825" lon="-118.3938675">
  <ele>-15.108</ele>
  <time>2026-09-02T22:12:50Z</time>
  <course>186.66</course>
  <speed>0.47010637094172636</speed>
  <fix>3d</fix>
</trkpt>
<trkpt lat="33.8100828" lon="-118.3938675">
  <ele>-14.75</ele>
  <time>2026-09-02T22:12:50Z</time>
  <course>179.21</course>
  <speed>0.49</speed>
  <fix>3d</fix>
</trkpt>
<trkpt lat="33.810082" lon="-118.3938675">
  <ele>-15.108</ele>
  <time>2026-09-02T22:12:50Z</time>
  <course>186.67</course>
  <speed>0.47010637094172636</speed>
  <fix>3d</fix>
</trkpt>
<trkpt lat="33.8100828" lon="-118.3938675">
  <ele>-14.75</ele>
  <time>2026-09-02T22:12:50Z</time>
  <course>179.21</course>
  <speed>0.49</speed>
  <fix>3d</fix>
</trkpt>
<trkpt lat="33.8100816" lon="-118.3938675">
  <ele>-15.108</ele>
  <time>2026-09-02T22:12:50Z</time>
  <course>186.67</course>
  <speed>0.47010637094172636</speed>
  <fix>3d</fix>
</trkpt>
<trkpt lat="33.8100819" lon="-118.3938675">
  <ele>-14.75</ele>
  <time>2026-09-02T22:12:50Z</time>
  <course>179.16</course>
  <speed>0.49</speed>
  <fix>3d</fix>
</trkpt>
<trkpt lat="33.8100811" lon="-118.3938675">
  <ele>-15.107</ele>
  <time>2026-09-02T22:12:50Z</time>
  <course>186.67</course>
  <speed>0.47010637094172636</speed>
  <fix>3d</fix>
</trkpt>
<trkpt lat="33.8100819" lon="-118.3938675">
  <ele>-14.75</ele>
  <time>2026-09-02T22:12:50Z</time>
  <course>179.16</course>
  <speed>0.49</speed>
  <fix>3d</fix>
</trkpt>
<trkpt lat="33.8100807" lon="-118.3938675">
  <ele>-15.106</ele>
  <time>2026-09-02T22:12:50Z</time>
  <course>186.67</course>
  <speed>0.47010637094172636</speed>
  <fix>3d</fix>
</trkpt>
<trkpt lat="33.810081" lon="-118.3938674">
  <ele>-14.74</ele>
  <time>2026-09-02T22:12:50Z</time>
  <course>179.12</course>
  <speed>0.49</speed>
  <fix>3d</fix>
</trkpt>
<trkpt lat="33.8100802" lon="-118.3938675">
  <ele>-15.105</ele>
  <time>2026-09-02T22:12:51Z</time>
  <course>186.67</course>
  <speed>0.47010637094172636</speed>
  <fix>3d</fix>
</trkpt>
<trkpt lat="33.810081" lon="-118.3938674">
  <ele>-14.74</ele>
  <time>2026-09-02T22:12:51Z</time>
  <course>179.12</course>
  <speed>0.49</speed>
  <fix>3d</fix>
</trkpt>
<trkpt lat="33.8100798" lon="-118.3938675">
  <ele>-15.103</ele>
  <time>2026-09-02T22:12:51Z</time>
  <course>186.66</course>
  <speed>0.47010637094172636</speed>
  <fix>3d</fix>
</trkpt>
<trkpt lat="33.8100801" lon="-118.3938674">
  <ele>-14.74</ele>
  <time>2026-09-02T22:12:51Z</time>
  <course>179.16</course>
  <speed>0.49</speed>
  <fix>3d</fix>
</trkpt>
<trkpt lat="33.8100793" lon="-118.3938675">
  <ele>-15.102</ele>
  <time>2026-09-02T22:12:51Z</time>
  <course>186.66</course>
  <speed>0.47010637094172636</speed>
  <fix>3d</fix>
</trkpt>
<trkpt lat="33.8100801" lon="-118.3938674">
  <ele>-14.74</ele>
  <time>2026-09-02T22:12:51Z</time>
  <course>179.16</course>
  <speed>0.49</speed>
  <fix>3d</fix>
</trkpt>
<trkpt lat="33.8100789" lon="-118.3938675">
  <ele>-15.102</ele>
  <time>2026-09-02T22:12:51Z</time>
  <course>186.66</course>
  <speed>0.47010637094172636</speed>
  <fix>3d</fix>
</trkpt>
<trkpt lat="33.8100792" lon="-118.3938674">
  <ele>-14.74</ele>
  <time>2026-09-02T22:12:51Z</time>
  <course>179.3</course>
  <speed>0.49</speed>
  <fix>3d</fix>
</trkpt>
<trkpt lat="33.8100784" lon="-118.3938675">
  <ele>-15.1</ele>
  <time>2026-09-02T22:12:51Z</time>
  <course>186.66</course>
  <speed>0.47010637094172636</speed>
  <fix>3d</fix>
</trkpt>
<trkpt lat="33.8100792" lon="-118.3938674">
  <ele>-14.74</ele>
  <time>2026-09-02T22:12:51Z</time>
  <course>179.3</course>
  <speed>0.49</speed>
  <fix>3d</fix>
</trkpt>
<trkpt lat="33.810078" lon="-118.3938675">
  <ele>-15.098</ele>
  <time>2026-09-02T22:12:51Z</time>
  <course>186.66</course>
  <speed>0.47010637094172636</speed>
  <fix>3d</fix>
</trkpt>
<trkpt lat="33.8100783" lon="-118.3938674">
  <ele>-14.74</ele>
  <time>2026-09-02T22:12:51Z</time>
  <course>179.47</course>
  <speed>0.49</speed>
  <fix>3d</fix>
</trkpt>
<trkpt lat="33.8100775" lon="-118.3938675">
  <ele>-15.096</ele>
  <time>2026-09-02T22:12:51Z</time>
  <course>186.66</course>
  <speed>0.47010637094172636</speed>
  <fix>3d</fix>
</trkpt>
<trkpt lat="33.8100783" lon="-118.3938674">
  <ele>-14.74</ele>
  <time>2026-09-02T22:12:51Z</time>
  <course>179.47</course>
  <speed>0.49</speed>
  <fix>3d</fix>
</trkpt>
<trkpt lat="33.8100771" lon="-118.3938675">
  <ele>-15.094</ele>
  <time>2026-09-02T22:12:51Z</time>
  <course>186.66</course>
  <speed>0.47010637094172636</speed>
  <fix>3d</fix>
</trkpt>
<trkpt lat="33.8100774" lon="-118.3938674">
  <ele>-14.74</ele>
  <time>2026-09-02T22:12:51Z</time>
  <course>179.58</course>
  <speed>0.49</speed>
  <fix>3d</fix>
</trkpt>
<trkpt lat="33.8100766" lon="-118.3938675">
  <ele>-15.093</ele>
  <time>2026-09-02T22:12:51Z</time>
  <course>186.66</course>
  <speed>0.47010637094172636</speed>
  <fix>3d</fix>
</trkpt>
<trkpt lat="33.8100774" lon="-118.3938674">
  <ele>-14.74</ele>
  <time>2026-09-02T22:12:51Z</time>
  <course>179.58</course>
  <speed>0.49</speed>
  <fix>3d</fix>
</trkpt>
<trkpt lat="33.8100762" lon="-118.3938675">
  <ele>-15.093</ele>
  <time>2026-09-02T22:12:51Z</time>
  <course>186.67</course>
  <speed>0.47010637094172636</speed>
  <fix>3d</fix>
</trkpt>
<trkpt lat="33.8100765" lon="-118.3938674">
  <ele>-14.74</ele>
  <time>2026-09-02T22:12:51Z</time>
  <course>179.64</course>
  <speed>0.49</speed>
  <fix>3d</fix>
</trkpt>
<trkpt lat="33.8100757" lon="-118.3938675">
  <ele>-15.093</ele>
  <time>2026-09-02T22:12:51Z</time>
  <course>186.67</course>
  <speed>0.47010637094172636</speed>
  <fix>3d</fix>
</trkpt>
<trkpt lat="33.8100765" lon="-118.3938674">
  <ele>-14.74</ele>
  <time>2026-09-02T22:12:51Z</time>
  <course>179.64</course>
  <speed>0.49</speed>
  <fix>3d</fix>
</trkpt>
<trkpt lat="33.8100753" lon="-118.3938675">
  <ele>-15.095</ele>
  <time>2026-09-02T22:12:51Z</time>
  <course>186.67</course>
  <speed>0.47010637094172636</speed>
  <fix>3d</fix>
</trkpt>
<trkpt lat="33.8100756" lon="-118.3938674">
  <ele>-14.74</ele>
  <time>2026-09-02T22:12:51Z</time>
  <course>179.66</course>
  <speed>0.49</speed>
  <fix>3d</fix>
</trkpt>
<trkpt lat="33.8100748" lon="-118.3938675">
  <ele>-15.097</ele>
  <time>2026-09-02T22:12:51Z</time>
  <course>186.67</course>
  <speed>0.47010637094172636</speed>
  <fix>3d</fix>
</trkpt>
<trkpt lat="33.8100756" lon="-118.3938674">
  <ele>-14.74</ele>
  <time>2026-09-02T22:12:51Z</time>
  <course>179.66</course>
  <speed>0.49</speed>
  <fix>3d</fix>
</trkpt>
<trkpt lat="33.8100744" lon="-118.3938675">
  <ele>-15.098</ele>
  <time>2026-09-02T22:12:51Z</time>
  <course>186.66</course>
  <speed>0.47010637094172636</speed>
  <fix>3d</fix>
</trkpt>
<trkpt lat="33.8100747" lon="-118.3938674">
  <ele>-14.75</ele>
  <time>2026-09-02T22:12:51Z</time>
  <course>179.67</course>
  <speed>0.49</speed>
  <fix>3d</fix>
</trkpt>
<trkpt lat="33.8100739" lon="-118.3938675">
  <ele>-15.098</ele>
  <time>2026-09-02T22:12:51Z</time>
  <course>186.66</course>
  <speed>0.47010637094172636</speed>
  <fix>3d</fix>
</trkpt>
<trkpt lat="33.8100747" lon="-118.3938674">
  <ele>-14.75</ele>
  <time>2026-09-02T22:12:51Z</time>
  <course>179.67</course>
  <speed>0.49</speed>
  <fix>3d</fix>
</trkpt>
<trkpt lat="33.8100735" lon="-118.3938675">
  <ele>-15.097</ele>
  <time>2026-09-02T22:12:51Z</time>
  <course>186.66</course>
  <speed>0.47010637094172636</speed>
  <fix>3d</fix>
</trkpt>
<trkpt lat="33.8100738" lon="-118.3938674">
  <ele>-14.75</ele>
  <time>2026-09-02T22:12:51Z</time>
  <course>179.67</course>
  <speed>0.49</speed>
  <fix>3d</fix>
</trkpt>
<trkpt lat="33.810073" lon="-118.3938675">
  <ele>-15.097</ele>
  <time>2026-09-02T22:12:51Z</time>
  <course>186.66</course>
  <speed>0.47010637094172636</speed>
  <fix>3d</fix>
</trkpt>
<trkpt lat="33.8100738" lon="-118.3938674">
  <ele>-14.75</ele>
  <time>2026-09-02T22:12:51Z</time>
  <course>179.67</course>
  <speed>0.49</speed>
  <fix>3d</fix>
</trkpt>
<trkpt lat="33.8100726" lon="-118.3938675">
  <ele>-15.097</ele>
  <time>2026-09-02T22:12:51Z</time>
  <course>186.66</course>
  <speed>0.47010637094172636</speed>
  <fix>3d</fix>
</trkpt>
<trkpt lat="33.810073" lon="-118.3938674">
  <ele>-14.75</ele>
  <time>2026-09-02T22:12:51Z</time>
  <course>179.66</course>
  <speed>0.49</speed>
  <fix>3d</fix>
</trkpt>
<trkpt lat="33.8100721" lon="-118.3938675">
  <ele>-15.097</ele>
  <time>2026-09-02T22:12:51Z</time>
  <course>186.66</course>
  <speed>0.47010637094172636</speed>
  <fix>3d</fix>
</trkpt>
<trkpt lat="33.810073" lon="-118.3938674">
  <ele>-14.75</ele>
  <time>2026-09-02T22:12:51Z</time>
  <course>179.66</course>
  <speed>0.49</speed>
  <fix>3d</fix>
</trkpt>
<trkpt lat="33.8100717" lon="-118.3938675">
  <ele>-15.098</ele>
  <time>2026-09-02T22:12:51Z</time>
  <course>186.66</course>
  <speed>0.47010637094172636</speed>
  <fix>3d</fix>
</trkpt>
<trkpt lat="33.8100721" lon="-118.3938674">
  <ele>-14.75</ele>
  <time>2026-09-02T22:12:51Z</time>
  <course>179.66</course>
  <speed>0.49</speed>
  <fix>3d</fix>
</trkpt>
<trkpt lat="33.8100712" lon="-118.3938675">
  <ele>-15.098</ele>
  <time>2026-09-02T22:12:51Z</time>
  <course>186.66</course>
  <speed>0.47010637094172636</speed>
  <fix>3d</fix>
</trkpt>
<trkpt lat="33.8100721" lon="-118.3938674">
  <ele>-14.75</ele>
  <time>2026-09-02T22:12:51Z</time>
  <course>179.66</course>
  <speed>0.49</speed>
  <fix>3d</fix>
</trkpt>
<trkpt lat="33.8100708" lon="-118.3938675">
  <ele>-15.098</ele>
  <time>2026-09-02T22:12:51Z</time>
  <course>186.66</course>
  <speed>0.47010637094172636</speed>
  <fix>3d</fix>
</trkpt>
<trkpt lat="33.8100712" lon="-118.3938673">
  <ele>-14.75</ele>
  <time>2026-09-02T22:12:51Z</time>
  <course>179.67</course>
  <speed>0.49</speed>
  <fix>3d</fix>
</trkpt>
<trkpt lat="33.8100704" lon="-118.3938675">
  <ele>-15.097</ele>
  <time>2026-09-02T22:12:51Z</time>
  <course>186.66</course>
  <speed>0.47010637094172636</speed>
  <fix>3d</fix>
</trkpt>
<trkpt lat="33.8100712" lon="-118.3938673">
  <ele>-14.75</ele>
  <time>2026-09-02T22:12:51Z</time>
  <course>179.67</course>
  <speed>0.49</speed>
  <fix>3d</fix>
</trkpt>
<trkpt lat="33.8100699" lon="-118.3938675">
  <ele>-15.095</ele>
  <time>2026-09-02T22:12:51Z</time>
  <course>186.66</course>
  <speed>0.47010637094172636</speed>
  <fix>3d</fix>
</trkpt>
<trkpt lat="33.8100703" lon="-118.3938673">
  <ele>-14.74</ele>
  <time>2026-09-02T22:12:51Z</time>
  <course>179.72</course>
  <speed>0.5</speed>
  <fix>3d</fix>
</trkpt>
<trkpt lat="33.8100695" lon="-118.3938675">
  <ele>-15.092</ele>
  <time>2026-09-02T22:12:51Z</time>
  <course>186.66</course>
  <speed>0.47010637094172636</speed>
  <fix>3d</fix>
</trkpt>
<trkpt lat="33.8100703" lon="-118.3938673">
  <ele>-14.74</ele>
  <time>2026-09-02T22:12:51Z</time>
  <course>179.72</course>
  <speed>0.5</speed>
  <fix>3d</fix>
</trkpt>
<trkpt lat="33.810069" lon="-118.3938675">
  <ele>-15.089</ele>
  <time>2026-09-02T22:12:51Z</time>
  <course>186.66</course>
  <speed>0.47010637094172636</speed>
  <fix>3d</fix>
</trkpt>
<trkpt lat="33.8100694" lon="-118.3938673">
  <ele>-14.74</ele>
  <time>2026-09-02T22:12:51Z</time>
  <course>179.87</course>
  <speed>0.5</speed>
  <fix>3d</fix>
</trkpt>
<trkpt lat="33.8100686" lon="-118.3938675">
  <ele>-15.088</ele>
  <time>2026-09-02T22:12:51Z</time>
  <course>186.67</course>
  <speed>0.47010637094172636</speed>
  <fix>3d</fix>
</trkpt>
<trkpt lat="33.8100694" lon="-118.3938673">
  <ele>-14.74</ele>
  <time>2026-09-02T22:12:51Z</time>
  <course>179.87</course>
  <speed>0.5</speed>
  <fix>3d</fix>
</trkpt>
<trkpt lat="33.8100681" lon="-118.3938675">
  <ele>-15.087</ele>
  <time>2026-09-02T22:12:51Z</time>
  <course>186.66</course>
  <speed>0.47010637094172636</speed>
  <fix>3d</fix>
</trkpt>
<trkpt lat="33.8100685" lon="-118.3938673">
  <ele>-14.73</ele>
  <time>2026-09-02T22:12:51Z</time>
  <course>180.07</course>
  <speed>0.5</speed>
  <fix>3d</fix>
</trkpt>
<trkpt lat="33.8100677" lon="-118.3938675">
  <ele>-15.086</ele>
  <time>2026-09-02T22:12:51Z</time>
  <course>186.66</course>
  <speed>0.470425339453563</speed>
  <fix>3d</fix>
</trkpt>
<trkpt lat="33.8100685" lon="-118.3938673">
  <ele>-14.73</ele>
  <time>2026-09-02T22:12:51Z</time>
  <course>180.07</course>
  <speed>0.5</speed>
  <fix>3d</fix>
</trkpt>
<trkpt lat="33.8100672" lon="-118.3938675">
  <ele>-15.086</ele>
  <time>2026-09-02T22:12:51Z</time>
  <course>186.66</course>
  <speed>0.470425339453563</speed>
  <fix>3d</fix>
</trkpt>
<trkpt lat="33.8100676" lon="-118.3938673">
  <ele>-14.73</ele>
  <time>2026-09-02T22:12:51Z</time>
  <course>180.24</course>
  <speed>0.5</speed>
  <fix>3d</fix>
</trkpt>
<trkpt lat="33.8100668" lon="-118.3938675">
  <ele>-15.085</ele>
  <time>2026-09-02T22:12:51Z</time>
  <course>186.66</course>
  <speed>0.470425339453563</speed>
  <fix>3d</fix>
</trkpt>
<trkpt lat="33.8100676" lon="-118.3938673">
  <ele>-14.73</ele>
  <time>2026-09-02T22:12:51Z</time>
  <course>180.24</course>
  <speed>0.5</speed>
  <fix>3d</fix>
</trkpt>
<trkpt lat="33.8100663" lon="-118.3938675">
  <ele>-15.086</ele>
  <time>2026-09-02T22:12:51Z</time>
  <course>186.66</course>
  <speed>0.470425339453563</speed>
  <fix>3d</fix>
</trkpt>
<trkpt lat="33.8100667" lon="-118.3938673">
  <ele>-14.73</ele>
  <time>2026-09-02T22:12:51Z</time>
  <course>180.36</course>
  <speed>0.5</speed>
  <fix>3d</fix>
</trkpt>
<trkpt lat="33.8100659" lon="-118.3938675">
  <ele>-15.086</ele>
  <time>2026-09-02T22:12:51Z</time>
  <course>186.66</course>
  <speed>0.470425339453563</speed>
  <fix>3d</fix>
</trkpt>
<trkpt lat="33.8100667" lon="-118.3938673">
  <ele>-14.73</ele>
  <time>2026-09-02T22:12:51Z</time>
  <course>180.36</course>
  <speed>0.5</speed>
  <fix>3d</fix>
</trkpt>
<trkpt lat="33.8100654" lon="-118.3938675">
  <ele>-15.086</ele>
  <time>2026-09-02T22:12:51Z</time>
  <course>186.66</course>
  <speed>0.470425339453563</speed>
  <fix>3d</fix>
</trkpt>
<trkpt lat="33.8100657" lon="-118.3938673">
  <ele>-14.73</ele>
  <time>2026-09-02T22:12:51Z</time>
  <course>180.44</course>
  <speed>0.5</speed>
  <fix>3d</fix>
</trkpt>
<trkpt lat="33.810065" lon="-118.3938675">
  <ele>-15.086</ele>
  <time>2026-09-02T22:12:51Z</time>
  <course>186.66</course>
  <speed>0.470425339453563</speed>
  <fix>3d</fix>
</trkpt>
<trkpt lat="33.8100657" lon="-118.3938673">
  <ele>-14.73</ele>
  <time>2026-09-02T22:12:51Z</time>
  <course>180.44</course>
  <speed>0.5</speed>
  <fix>3d</fix>
</trkpt>
<trkpt lat="33.8100645" lon="-118.3938675">
  <ele>-15.085</ele>
  <time>2026-09-02T22:12:51Z</time>
  <course>186.66</course>
  <speed>0.470425339453563</speed>
  <fix>3d</fix>
</trkpt>
<trkpt lat="33.8100648" lon="-118.3938673">
  <ele>-14.72</ele>
  <time>2026-09-02T22:12:51Z</time>
  <course>180.48</course>
  <speed>0.5</speed>
  <fix>3d</fix>
</trkpt>
<trkpt lat="33.8100641" lon="-118.3938675">
  <ele>-15.083</ele>
  <time>2026-09-02T22:12:51Z</time>
  <course>186.66</course>
  <speed>0.470425339453563</speed>
  <fix>3d</fix>
</trkpt>
<trkpt lat="33.8100648" lon="-118.3938673">
  <ele>-14.72</ele>
  <time>2026-09-02T22:12:51Z</time>
  <course>180.48</course>
  <speed>0.5</speed>
  <fix>3d</fix>
</trkpt>
<trkpt lat="33.8100636" lon="-118.3938675">
  <ele>-15.081</ele>
  <time>2026-09-02T22:12:51Z</time>
  <course>186.66</course>
  <speed>0.470425339453563</speed>
  <fix>3d</fix>
</trkpt>
<trkpt lat="33.8100639" lon="-118.3938673">
  <ele>-14.72</ele>
  <time>2026-09-02T22:12:51Z</time>
  <course>180.52</course>
  <speed>0.5</speed>
  <fix>3d</fix>
</trkpt>
<trkpt lat="33.8100632" lon="-118.3938675">
  <ele>-15.079</ele>
  <time>2026-09-02T22:12:51Z</time>
  <course>186.66</course>
  <speed>0.470425339453563</speed>
  <fix>3d</fix>
</trkpt>
<trkpt lat="33.8100639" lon="-118.3938673">
  <ele>-14.72</ele>
  <time>2026-09-02T22:12:51Z</time>
  <course>180.52</course>
  <speed>0.5</speed>
  <fix>3d</fix>
</trkpt>
<trkpt lat="33.8100627" lon="-118.3938675">
  <ele>-15.077</ele>
  <time>2026-09-02T22:12:51Z</time>
  <course>186.66</course>
  <speed>0.470425339453563</speed>
  <fix>3d</fix>
</trkpt>
<trkpt lat="33.810063" lon="-118.3938673">
  <ele>-14.71</ele>
  <time>2026-09-02T22:12:51Z</time>
  <course>180.58</course>
  <speed>0.49</speed>
  <fix>3d</fix>
</trkpt>
<trkpt lat="33.8100622" lon="-118.3938675">
  <ele>-15.075</ele>
  <time>2026-09-02T22:12:51Z</time>
  <course>186.66</course>
  <speed>0.470425339453563</speed>
  <fix>3d</fix>
</trkpt>
<trkpt lat="33.810063" lon="-118.3938673">
  <ele>-14.71</ele>
  <time>2026-09-02T22:12:51Z</time>
  <course>180.58</course>
  <speed>0.49</speed>
  <fix>3d</fix>
</trkpt>
<trkpt lat="33.8100618" lon="-118.3938675">
  <ele>-15.073</ele>
  <time>2026-09-02T22:12:51Z</time>
  <course>186.66</course>
  <speed>0.470425339453563</speed>
  <fix>3d</fix>
</trkpt>
<trkpt lat="33.8100622" lon="-118.3938673">
  <ele>-14.71</ele>
  <time>2026-09-02T22:12:51Z</time>
  <course>180.63</course>
  <speed>0.49</speed>
  <fix>3d</fix>
</trkpt>
<trkpt lat="33.8100614" lon="-118.3938675">
  <ele>-15.071</ele>
  <time>2026-09-02T22:12:51Z</time>
  <course>186.66</course>
  <speed>0.470425339453563</speed>
  <fix>3d</fix>
</trkpt>
<trkpt lat="33.8100622" lon="-118.3938673">
  <ele>-14.71</ele>
  <time>2026-09-02T22:12:51Z</time>
  <course>180.63</course>
  <speed>0.49</speed>
  <fix>3d</fix>
</trkpt>
<trkpt lat="33.8100609" lon="-118.3938675">
  <ele>-15.07</ele>
  <time>2026-09-02T22:12:51Z</time>
  <course>186.66</course>
  <speed>0.47010637094172636</speed>
  <fix>3d</fix>
</trkpt>
<trkpt lat="33.8100613" lon="-118.3938673">
  <ele>-14.71</ele>
  <time>2026-09-02T22:12:51Z</time>
  <course>180.66</course>
  <speed>0.49</speed>
  <fix>3d</fix>
</trkpt>
<trkpt lat="33.8100605" lon="-118.3938675">
  <ele>-15.07</ele>
  <time>2026-09-02T22:12:51Z</time>
  <course>186.66</course>
  <speed>0.470425339453563</speed>
  <fix>3d</fix>
</trkpt>
<trkpt lat="33.8100613" lon="-118.3938673">
  <ele>-14.71</ele>
  <time>2026-09-02T22:12:51Z</time>
  <course>180.66</course>
  <speed>0.49</speed>
  <fix>3d</fix>
</trkpt>
<trkpt lat="33.81006" lon="-118.3938675">
  <ele>-15.069</ele>
  <time>2026-09-02T22:12:51Z</time>
  <course>186.66</course>
  <speed>0.47010637094172636</speed>
  <fix>3d</fix>
</trkpt>
<trkpt lat="33.8100604" lon="-118.3938673">
  <ele>-14.71</ele>
  <time>2026-09-02T22:12:51Z</time>
  <course>180.69</course>
  <speed>0.49</speed>
  <fix>3d</fix>
</trkpt>
<trkpt lat="33.8100596" lon="-118.3938675">
  <ele>-15.07</ele>
  <time>2026-09-02T22:12:51Z</time>
  <course>186.66</course>
  <speed>0.47010637094172636</speed>
  <fix>3d</fix>
</trkpt>
<trkpt lat="33.8100604" lon="-118.3938673">
  <ele>-14.71</ele>
  <time>2026-09-02T22:12:51Z</time>
  <course>180.69</course>
  <speed>0.49</speed>
  <fix>3d</fix>
</trkpt>
<trkpt lat="33.8100591" lon="-118.3938675">
  <ele>-15.071</ele>
  <time>2026-09-02T22:12:51Z</time>
  <course>186.66</course>
  <speed>0.47010637094172636</speed>
  <fix>3d</fix>
</trkpt>
<trkpt lat="33.8100595" lon="-118.3938673">
  <ele>-14.71</ele>
  <time>2026-09-02T22:12:51Z</time>
  <course>180.7</course>
  <speed>0.49</speed>
  <fix>3d</fix>
</trkpt>
<trkpt lat="33.8100587" lon="-118.3938675">
  <ele>-15.072</ele>
  <time>2026-09-02T22:12:51Z</time>
  <course>186.66</course>
  <speed>0.47010637094172636</speed>
  <fix>3d</fix>
</trkpt>
<trkpt lat="33.8100595" lon="-118.3938673">
  <ele>-14.71</ele>
  <time>2026-09-02T22:12:51Z</time>
  <course>180.7</course>
  <speed>0.49</speed>
  <fix>3d</fix>
</trkpt>
<trkpt lat="33.8100582" lon="-118.3938675">
  <ele>-15.073</ele>
  <time>2026-09-02T22:12:51Z</time>
  <course>186.66</course>
  <speed>0.47010637094172636</speed>
  <fix>3d</fix>
</trkpt>
<trkpt lat="33.8100586" lon="-118.3938673">
  <ele>-14.71</ele>
  <time>2026-09-02T22:12:51Z</time>
  <course>180.72</course>
  <speed>0.5</speed>
  <fix>3d</fix>
</trkpt>
<trkpt lat="33.8100578" lon="-118.3938675">
  <ele>-15.073</ele>
  <time>2026-09-02T22:12:51Z</time>
  <course>186.66</course>
  <speed>0.47010637094172636</speed>
  <fix>3d</fix>
</trkpt>
<trkpt lat="33.8100586" lon="-118.3938673">
  <ele>-14.71</ele>
  <time>2026-09-02T22:12:51Z</time>
  <course>180.72</course>
  <speed>0.5</speed>
  <fix>3d</fix>
</trkpt>
<trkpt lat="33.8100573" lon="-118.3938675">
  <ele>-15.073</ele>
  <time>2026-09-02T22:12:51Z</time>
  <course>186.66</course>
  <speed>0.47010637094172636</speed>
  <fix>3d</fix>
</trkpt>
<trkpt lat="33.8100577" lon="-118.3938674">
  <ele>-14.71</ele>
  <time>2026-09-02T22:12:51Z</time>
  <course>180.75</course>
  <speed>0.5</speed>
  <fix>3d</fix>
</trkpt>
<trkpt lat="33.8100569" lon="-118.3938675">
  <ele>-15.073</ele>
  <time>2026-09-02T22:12:51Z</time>
  <course>186.66</course>
  <speed>0.47010637094172636</speed>
  <fix>3d</fix>
</trkpt>
<trkpt lat="33.8100577" lon="-118.3938674">
  <ele>-14.71</ele>
  <time>2026-09-02T22:12:51Z</time>
  <course>180.75</course>
  <speed>0.5</speed>
  <fix>3d</fix>
</trkpt>
<trkpt lat="33.8100564" lon="-118.3938675">
  <ele>-15.072</ele>
  <time>2026-09-02T22:12:51Z</time>
  <course>186.66</course>
  <speed>0.47010637094172636</speed>
  <fix>3d</fix>
</trkpt>
<trkpt lat="33.8100568" lon="-118.3938674">
  <ele>-14.71</ele>
  <time>2026-09-02T22:12:51Z</time>
  <course>180.7</course>
  <speed>0.5</speed>
  <fix>3d</fix>
</trkpt>
<trkpt lat="33.810056" lon="-118.3938675">
  <ele>-15.071</ele>
  <time>2026-09-02T22:12:51Z</time>
  <course>186.66</course>
  <speed>0.47010637094172636</speed>
  <fix>3d</fix>
</trkpt>
<trkpt lat="33.8100568" lon="-118.3938674">
  <ele>-14.71</ele>
  <time>2026-09-02T22:12:51Z</time>
  <course>180.7</course>
  <speed>0.5</speed>
  <fix>3d</fix>
</trkpt>
<trkpt lat="33.8100555" lon="-118.3938675">
  <ele>-15.069</ele>
  <time>2026-09-02T22:12:51Z</time>
  <course>186.66</course>
  <speed>0.47010637094172636</speed>
  <fix>3d</fix>
</trkpt>
<trkpt lat="33.8100559" lon="-118.3938674">
  <ele>-14.71</ele>
  <time>2026-09-02T22:12:51Z</time>
  <course>180.54</course>
  <speed>0.5</speed>
  <fix>3d</fix>
</trkpt>
<trkpt lat="33.8100551" lon="-118.3938675">
  <ele>-15.068</ele>
  <time>2026-09-02T22:12:51Z</time>
  <course>186.66</course>
  <speed>0.47010637094172636</speed>
  <fix>3d</fix>
</trkpt>
<trkpt lat="33.8100559" lon="-118.3938674">
  <ele>-14.71</ele>
  <time>2026-09-02T22:12:51Z</time>
  <course>180.54</course>
  <speed>0.5</speed>
  <fix>3d</fix>
</trkpt>
<trkpt lat="33.8100546" lon="-118.3938675">
  <ele>-15.066</ele>
  <time>2026-09-02T22:12:51Z</time>
  <course>186.66</course>
  <speed>0.47010637094172636</speed>
  <fix>3d</fix>
</trkpt>
<trkpt lat="33.810055" lon="-118.3938674">
  <ele>-14.71</ele>
  <time>2026-09-02T22:12:51Z</time>
  <course>180.37</course>
  <speed>0.5</speed>
  <fix>3d</fix>
</trkpt>
<trkpt lat="33.8100542" lon="-118.3938675">
  <ele>-15.064</ele>
  <time>2026-09-02T22:12:51Z</time>
  <course>186.66</course>
  <speed>0.47010637094172636</speed>
  <fix>3d</fix>
</trkpt>
<trkpt lat="33.810055" lon="-118.3938674">
  <ele>-14.71</ele>
  <time>2026-09-02T22:12:51Z</time>
  <course>180.37</course>
  <speed>0.5</speed>
  <fix>3d</fix>
</trkpt>
<trkpt lat="33.8100537" lon="-118.3938675">
  <ele>-15.063</ele>
  <time>2026-09-02T22:12:51Z</time>
  <course>186.66</course>
  <speed>0.47010637094172636</speed>
  <fix>3d</fix>
</trkpt>
<trkpt lat="33.8100541" lon="-118.3938674">
  <ele>-14.7</ele>
  <time>2026-09-02T22:12:51Z</time>
  <course>180.26</course>
  <speed>0.5</speed>
  <fix>3d</fix>
</trkpt>
<trkpt lat="33.8100533" lon="-118.3938675">
  <ele>-15.063</ele>
  <time>2026-09-02T22:12:51Z</time>
  <course>186.66</course>
  <speed>0.47010637094172636</speed>
  <fix>3d</fix>
</trkpt>
<trkpt lat="33.8100541" lon="-118.3938674">
  <ele>-14.7</ele>
  <time>2026-09-02T22:12:51Z</time>
  <course>180.26</course>
  <speed>0.5</speed>
  <fix>3d</fix>
</trkpt>
<trkpt lat="33.8100528" lon="-118.3938675">
  <ele>-15.063</ele>
  <time>2026-09-02T22:12:51Z</time>
  <course>186.66</course>
  <speed>0.4801041553663121</speed>
  <fix>3d</fix>
</trkpt>
<trkpt lat="33.8100532" lon="-118.3938674">
  <ele>-14.7</ele>
  <time>2026-09-02T22:12:51Z</time>
  <course>180.19</course>
  <speed>0.5</speed>
  <fix>3d</fix>
</trkpt>
<trkpt lat="33.8100524" lon="-118.3938675">
  <ele>-15.062</ele>
  <time>2026-09-02T22:12:51Z</time>
  <course>186.66</course>
  <speed>0.47010637094172636</speed>
  <fix>3d</fix>
</trkpt>
<trkpt lat="33.8100532" lon="-118.3938674">
  <ele>-14.7</ele>
  <time>2026-09-02T22:12:51Z</time>
  <course>180.19</course>
  <speed>0.5</speed>
  <fix>3d</fix>
</trkpt>
<trkpt lat="33.8100519" lon="-118.3938675">
  <ele>-15.06</ele>
  <time>2026-09-02T22:12:51Z</time>
  <course>186.66</course>
  <speed>0.47010637094172636</speed>
  <fix>3d</fix>
</trkpt>
<trkpt lat="33.8100522" lon="-118.3938674">
  <ele>-14.7</ele>
  <time>2026-09-02T22:12:51Z</time>
  <course>180.13</course>
  <speed>0.5</speed>
  <fix>3d</fix>
</trkpt>
<trkpt lat="33.8100515" lon="-118.3938675">
  <ele>-15.058</ele>
  <time>2026-09-02T22:12:51Z</time>
  <course>186.66</course>
  <speed>0.47010637094172636</speed>
  <fix>3d</fix>
</trkpt>
<trkpt lat="33.8100522" lon="-118.3938674">
  <ele>-14.7</ele>
  <time>2026-09-02T22:12:51Z</time>
  <course>180.13</course>
  <speed>0.5</speed>
  <fix>3d</fix>
</trkpt>
<trkpt lat="33.810051" lon="-118.3938675">
  <ele>-15.057</ele>
  <time>2026-09-02T22:12:51Z</time>
  <course>186.66</course>
  <speed>0.47010637094172636</speed>
  <fix>3d</fix>
</trkpt>
<trkpt lat="33.8100513" lon="-118.3938674">
  <ele>-14.7</ele>
  <time>2026-09-02T22:12:51Z</time>
  <course>180.11</course>
  <speed>0.5</speed>
  <fix>3d</fix>
</trkpt>
<trkpt lat="33.8100506" lon="-118.3938675">
  <ele>-15.057</ele>
  <time>2026-09-02T22:12:51Z</time>
  <course>186.66</course>
  <speed>0.47010637094172636</speed>
  <fix>3d</fix>
</trkpt>
<trkpt lat="33.8100513" lon="-118.3938674">
  <ele>-14.7</ele>
  <time>2026-09-02T22:12:51Z</time>
  <course>180.11</course>
  <speed>0.5</speed>
  <fix>3d</fix>
</trkpt>
<trkpt lat="33.8100501" lon="-118.3938675">
  <ele>-15.057</ele>
  <time>2026-09-02T22:12:51Z</time>
  <course>186.66</course>
  <speed>0.47010637094172636</speed>
  <fix>3d</fix>
</trkpt>
<trkpt lat="33.8100504" lon="-118.3938674">
  <ele>-14.7</ele>
  <time>2026-09-02T22:12:51Z</time>
  <course>180.1</course>
  <speed>0.5</speed>
  <fix>3d</fix>
</trkpt>
<trkpt lat="33.8100497" lon="-118.3938675">
  <ele>-15.057</ele>
  <time>2026-09-02T22:12:51Z</time>
  <course>186.66</course>
  <speed>0.47010637094172636</speed>
  <fix>3d</fix>
</trkpt>
<trkpt lat="33.8100504" lon="-118.3938674">
  <ele>-14.7</ele>
  <time>2026-09-02T22:12:51Z</time>
  <course>180.1</course>
  <speed>0.5</speed>
  <fix>3d</fix>
</trkpt>
<trkpt lat="33.8100492" lon="-118.3938675">
  <ele>-15.056</ele>
  <time>2026-09-02T22:12:51Z</time>
  <course>186.67</course>
  <speed>0.47010637094172636</speed>
  <fix>3d</fix>
</trkpt>
<trkpt lat="33.8100495" lon="-118.3938674">
  <ele>-14.7</ele>
  <time>2026-09-02T22:12:51Z</time>
  <course>180.1</course>
  <speed>0.5</speed>
  <fix>3d</fix>
</trkpt>
<trkpt lat="33.8100488" lon="-118.3938675">
  <ele>-15.056</ele>
  <time>2026-09-02T22:12:51Z</time>
  <course>186.67</course>
  <speed>0.47010637094172636</speed>
  <fix>3d</fix>
</trkpt>
<trkpt lat="33.8100495" lon="-118.3938674">
  <ele>-14.7</ele>
  <time>2026-09-02T22:12:51Z</time>
  <course>180.1</course>
  <speed>0.5</speed>
  <fix>3d</fix>
</trkpt>
<trkpt lat="33.8100483" lon="-118.3938675">
  <ele>-15.057</ele>
  <time>2026-09-02T22:12:51Z</time>
  <course>186.67</course>
  <speed>0.47010637094172636</speed>
  <fix>3d</fix>
</trkpt>
<trkpt lat="33.8100486" lon="-118.3938674">
  <ele>-14.7</ele>
  <time>2026-09-02T22:12:51Z</time>
  <course>180.12</course>
  <speed>0.5</speed>
  <fix>3d</fix>
</trkpt>
<trkpt lat="33.8100479" lon="-118.3938675">
  <ele>-15.057</ele>
  <time>2026-09-02T22:12:51Z</time>
  <course>186.66</course>
  <speed>0.47010637094172636</speed>
  <fix>3d</fix>
</trkpt>
<trkpt lat="33.8100486" lon="-118.3938674">
  <ele>-14.7</ele>
  <time>2026-09-02T22:12:51Z</time>
  <course>180.12</course>
  <speed>0.5</speed>
  <fix>3d</fix>
</trkpt>
<trkpt lat="33.8100474" lon="-118.3938675">
  <ele>-15.056</ele>
  <time>2026-09-02T22:12:51Z</time>
  <course>186.66</course>
  <speed>0.47010637094172636</speed>
  <fix>3d</fix>
</trkpt>
<trkpt lat="33.8100477" lon="-118.3938674">
  <ele>-14.7</ele>
  <time>2026-09-02T22:12:51Z</time>
  <course>180.12</course>
  <speed>0.49</speed>
  <fix>3d</fix>
</trkpt>
<trkpt lat="33.810047" lon="-118.3938675">
  <ele>-15.054</ele>
  <time>2026-09-02T22:12:51Z</time>
  <course>186.66</course>
  <speed>0.47010637094172636</speed>
  <fix>3d</fix>
</trkpt>
<trkpt lat="33.8100477" lon="-118.3938674">
  <ele>-14.7</ele>
  <time>2026-09-02T22:12:51Z</time>
  <course>180.12</course>
  <speed>0.49</speed>
  <fix>3d</fix>
</trkpt>
<trkpt lat="33.8100465" lon="-118.3938675">
  <ele>-15.053</ele>
  <time>2026-09-02T22:12:51Z</time>
  <course>186.66</course>
  <speed>0.4201190307520001</speed>
  <fix>3d</fix>
</trkpt>
<trkpt lat="33.8100468" lon="-118.3938674">
  <ele>-14.7</ele>
  <time>2026-09-02T22:12:51Z</time>
  <course>180.11</course>
  <speed>0.49</speed>
  <fix>3d</fix>
</trkpt>
<trkpt lat="33.8100462" lon="-118.3938675">
  <ele>-15.051</ele>
  <time>2026-09-02T22:12:51Z</time>
  <course>186.66</course>
  <speed>0.35014282800023194</speed>
  <fix>3d</fix>
</trkpt>
<trkpt lat="33.8100468" lon="-118.3938674">
  <ele>-14.7</ele>
  <time>2026-09-02T22:12:51Z</time>
  <course>180.11</course>
  <speed>0.49</speed>
  <fix>3d</fix>
</trkpt>
<trkpt lat="33.8100458" lon="-118.3938675">
  <ele>-15.038</ele>
  <time>2026-09-02T22:12:51Z</time>
  <course>186.68</course>
  <speed>0.3</speed>
  <fix>3d</fix>
</trkpt>
<trkpt lat="33.810046" lon="-118.3938674">
  <ele>-14.69</ele>
  <time>2026-09-02T22:12:51Z</time>
  <course>180.05</course>
  <speed>0.42</speed>
  <fix>3d</fix>
</trkpt>
<trkpt lat="33.8100456" lon="-118.3938675">
  <ele>-15.02</ele>
  <time>2026-09-02T22:12:51Z</time>
  <course>186.68</course>
  <speed>0.2501999200639361</speed>
  <fix>3d</fix>
</trkpt>
<trkpt lat="33.810046" lon="-118.3938674">
  <ele>-14.69</ele>
  <time>2026-09-02T22:12:51Z</time>
  <course>180.05</course>
  <speed>0.42</speed>
  <fix>3d</fix>
</trkpt>
<trkpt lat="33.8100453" lon="-118.3938675">
  <ele>-14.997</ele>
  <time>2026-09-02T22:12:51Z</time>
  <course>186.67</course>
  <speed>0.191049731745428</speed>
  <fix>3d</fix>
</trkpt>
<trkpt lat="33.8100453" lon="-118.3938674">
  <ele>-14.67</ele>
  <time>2026-09-02T22:12:51Z</time>
  <course>180.32</course>
  <speed>0.31</speed>
  <fix>3d</fix>
</trkpt>
<trkpt lat="33.8100452" lon="-118.3938675">
  <ele>-14.969</ele>
  <time>2026-09-02T22:12:51Z</time>
  <course>186.67</course>
  <speed>0.12165525060596438</speed>
  <fix>3d</fix>
</trkpt>
<trkpt lat="33.8100453" lon="-118.3938674">
  <ele>-14.67</ele>
  <time>2026-09-02T22:12:51Z</time>
  <course>180.32</course>
  <speed>0.31</speed>
  <fix>3d</fix>
</trkpt>
<trkpt lat="33.8100451" lon="-118.3938675">
  <ele>-14.936</ele>
  <time>2026-09-02T22:12:51Z</time>
  <course>186.66</course>
  <speed>0.05</speed>
  <fix>3d</fix>
</trkpt>
<trkpt lat="33.8100449" lon="-118.3938674">
  <ele>-14.63</ele>
  <time>2026-09-02T22:12:51Z</time>
  <course>183.07</course>
  <speed>0.18</speed>
  <fix>3d</fix>
</trkpt>
<trkpt lat="33.810045" lon="-118.3938675">
  <ele>-14.9</ele>
  <time>2026-09-02T22:12:51Z</time>
  <course>186.67</course>
  <speed>0.04242640687119285</speed>
  <fix>3d</fix>
</trkpt>
<trkpt lat="33.8100449" lon="-118.3938674">
  <ele>-14.63</ele>
  <time>2026-09-02T22:12:51Z</time>
  <course>183.07</course>
  <speed>0.18</speed>
  <fix>3d</fix>
</trkpt>
<trkpt lat="33.810045" lon="-118.3938676">
  <ele>-14.864</ele>
  <time>2026-09-02T22:12:51Z</time>
  <course>186.68</course>
  <speed>0.11401754250991379</speed>
  <fix>3d</fix>
</trkpt>
<trkpt lat="33.8100447" lon="-118.3938674">
  <ele>-14.57</ele>
  <time>2026-09-02T22:12:51Z</time>
  <course>204.91</course>
  <speed>0.04</speed>
  <fix>3d</fix>
</trkpt>
<trkpt lat="33.8100451" lon="-118.3938676">
  <ele>-14.83</ele>
  <time>2026-09-02T22:12:51Z</time>
  <course>186.69</course>
  <speed>0.17262676501632068</speed>
  <fix>3d</fix>
</trkpt>
<trkpt lat="33.8100447" lon="-118.3938674">
  <ele>-14.57</ele>
  <time>2026-09-02T22:12:51Z</time>
  <course>204.91</course>
  <speed>0.04</speed>
  <fix>3d</fix>
</trkpt>
<trkpt lat="33.8100452" lon="-118.3938676">
  <ele>-14.794</ele>
  <time>2026-09-02T22:12:51Z</time>
  <course>186.69</course>
  <speed>0.2308679276123039</speed>
  <fix>3d</fix>
</trkpt>
<trkpt lat="33.8100448" lon="-118.3938675">
  <ele>-14.51</ele>
  <time>2026-09-02T22:12:51Z</time>
  <course>349.85</course>
  <speed>0.11</speed>
  <fix>3d</fix>
</trkpt>
<trkpt lat="33.8100454" lon="-118.3938676">
  <ele>-14.758</ele>
  <time>2026-09-02T22:12:51Z</time>
  <course>186.69</course>
  <speed>0.2707397274136177</speed>
  <fix>3d</fix>
</trkpt>
<trkpt lat="33.8100448" lon="-118.3938675">
  <ele>-14.51</ele>
  <time>2026-09-02T22:12:51Z</time>
  <course>349.85</course>
  <speed>0.11</speed>
  <fix>3d</fix>
</trkpt>
<trkpt lat="33.8100456" lon="-118.3938676">
  <ele>-14.726</ele>
  <time>2026-09-02T22:12:51Z</time>
  <course>186.69</course>
  <speed>0.2906888370749727</speed>
  <fix>3d</fix>
</trkpt>
<trkpt lat="33.810045" lon="-118.3938675">
  <ele>-14.44</ele>
  <time>2026-09-02T22:12:51Z</time>
  <course>355.6</course>
  <speed>0.22</speed>
  <fix>3d</fix>
</trkpt>
<trkpt lat="33.8100459" lon="-118.3938676">
  <ele>-14.696</ele>
  <time>2026-09-02T22:12:51Z</time>
  <course>186.69</course>
  <speed>0.31064449134018135</speed>
  <fix>3d</fix>
</trkpt>
<trkpt lat="33.810045" lon="-118.3938675">
  <ele>-14.44</ele>
  <time>2026-09-02T22:12:51Z</time>
  <course>355.6</course>
  <speed>0.22</speed>
  <fix>3d</fix>
</trkpt>
<trkpt lat="33.8100461" lon="-118.3938676">
  <ele>-14.671</ele>
  <time>2026-09-02T22:12:51Z</time>
  <course>186.69</course>
  <speed>0.3306055050963308</speed>
  <fix>3d</fix>
</trkpt>
<trkpt lat="33.8100454" lon="-118.3938676">
  <ele>-14.38</ele>
  <time>2026-09-02T22:12:51Z</time>
  <course>357.24</course>
  <speed>0.28</speed>
  <fix>3d</fix>
</trkpt>
<trkpt lat="33.8100464" lon="-118.3938676">
  <ele>-14.657</ele>
  <time>2026-09-02T22:12:51Z</time>
  <course>186.69</course>
  <speed>0.34058772731852804</speed>
  <fix>3d</fix>
</trkpt>
<trkpt lat="33.8100454" lon="-118.3938676">
  <ele>-14.38</ele>
  <time>2026-09-02T22:12:51Z</time>
  <course>357.24</course>
  <speed>0.28</speed>
  <fix>3d</fix>
</trkpt>
<trkpt lat="33.8100466" lon="-118.3938677">
  <ele>-14.654</ele>
  <time>2026-09-02T22:12:51Z</time>
  <course>186.69</course>
  <speed>0.340147027033899</speed>
  <fix>3d</fix>
</trkpt>
<trkpt lat="33.810046" lon="-118.3938676">
  <ele>-14.34</ele>
  <time>2026-09-02T22:12:51Z</time>
  <course>358.08</course>
  <speed>0.32</speed>
  <fix>3d</fix>
</trkpt>
<trkpt lat="33.8100469" lon="-118.3938677">
  <ele>-14.664</ele>
  <time>2026-09-02T22:12:51Z</time>
  <course>186.69</course>
  <speed>0.340147027033899</speed>
  <fix>3d</fix>
</trkpt>
<trkpt lat="33.810046" lon="-118.3938676">
  <ele>-14.34</ele>
  <time>2026-09-02T22:12:51Z</time>
  <course>358.08</course>
  <speed>0.32</speed>
  <fix>3d</fix>
</trkpt>
<trkpt lat="33.8100472" lon="-118.3938677">
  <ele>-14.684</ele>
  <time>2026-09-02T22:12:51Z</time>
  <course>186.69</course>
  <speed>0.340147027033899</speed>
  <fix>3d</fix>
</trkpt>
<trkpt lat="33.8100465" lon="-118.3938676">
  <ele>-14.34</ele>
  <time>2026-09-02T22:12:51Z</time>
  <course>358.68</course>
  <speed>0.33</speed>
  <fix>3d</fix>
</trkpt>
<trkpt lat="33.8100475" lon="-118.3938677">
  <ele>-14.711</ele>
  <time>2026-09-02T22:12:51Z</time>
  <course>186.69</course>
  <speed>0.3301514803843835</speed>
  <fix>3d</fix>
</trkpt>
<trkpt lat="33.8100465" lon="-118.3938676">
  <ele>-14.34</ele>
  <time>2026-09-02T22:12:51Z</time>
  <course>358.68</course>
  <speed>0.33</speed>
  <fix>3d</fix>
</trkpt>
<trkpt lat="33.8100478" lon="-118.3938677">
  <ele>-14.745</ele>
  <time>2026-09-02T22:12:51Z</time>
  <course>186.69</course>
  <speed>0.3301514803843835</speed>
  <fix>3d</fix>
</trkpt>
<trkpt lat="33.8100472" lon="-118.3938676">
  <ele>-14.37</ele>
  <time>2026-09-02T22:12:51Z</time>
  <course>359.16</course>
  <speed>0.33</speed>
  <fix>3d</fix>
</trkpt>
<trkpt lat="33.810048" lon="-118.3938677">
  <ele>-14.781</ele>
  <time>2026-09-02T22:12:51Z</time>
  <course>186.69</course>
  <speed>0.32015621187164245</speed>
  <fix>3d</fix>
</trkpt>
<trkpt lat="33.8100472" lon="-118.3938676">
  <ele>-14.37</ele>
  <time>2026-09-02T22:12:51Z</time>
  <course>359.16</course>
  <speed>0.33</speed>
  <fix>3d</fix>
</trkpt>
<trkpt lat="33.8100483" lon="-118.3938677">
  <ele>-14.821</ele>
  <time>2026-09-02T22:12:51Z</time>
  <course>186.68</course>
  <speed>0.32015621187164245</speed>
  <fix>3d</fix>
</trkpt>
<trkpt lat="33.8100477" lon="-118.3938676">
  <ele>-14.43</ele>
  <time>2026-09-02T22:12:51Z</time>
  <course>359.56</course>
  <speed>0.32</speed>
  <fix>3d</fix>
</trkpt>
<trkpt lat="33.8100486" lon="-118.3938677">
  <ele>-14.862</ele>
  <time>2026-09-02T22:12:51Z</time>
  <course>186.68</course>
  <speed>0.3101612483854165</speed>
  <fix>3d</fix>
</trkpt>
<trkpt lat="33.8100477" lon="-118.3938676">
  <ele>-14.43</ele>
  <time>2026-09-02T22:12:51Z</time>
  <course>359.56</course>
  <speed>0.32</speed>
  <fix>3d</fix>
</trkpt>
<trkpt lat="33.8100488" lon="-118.3938677">
  <ele>-14.902</ele>
  <time>2026-09-02T22:12:51Z</time>
  <course>186.68</course>
  <speed>0.3101612483854165</speed>
  <fix>3d</fix>
</trkpt>
<trkpt lat="33.8100483" lon="-118.3938676">
  <ele>-14.49</ele>
  <time>2026-09-02T22:12:51Z</time>
  <course>359.89</course>
  <speed>0.31</speed>
  <fix>3d</fix>
</trkpt>
<trkpt lat="33.8100491" lon="-118.3938677">
  <ele>-14.938</ele>
  <time>2026-09-02T22:12:51Z</time>
  <course>186.68</course>
  <speed>0.3101612483854165</speed>
  <fix>3d</fix>
</trkpt>
<trkpt lat="33.8100483" lon="-118.3938676">
  <ele>-14.49</ele>
  <time>2026-09-02T22:12:51Z</time>
  <course>359.89</course>
  <speed>0.31</speed>
  <fix>3d</fix>
</trkpt>
<trkpt lat="33.8100493" lon="-118.3938677">
  <ele>-14.972</ele>
  <time>2026-09-02T22:12:51Z</time>
  <course>186.67</course>
  <speed>0.30016662039607267</speed>
  <fix>3d</fix>
</trkpt>
<trkpt lat="33.8100489" lon="-118.3938676">
  <ele>-14.56</ele>
  <time>2026-09-02T22:12:51Z</time>
  <course>0.14</course>
  <speed>0.3</speed>
  <fix>3d</fix>
</trkpt>
<trkpt lat="33.8100496" lon="-118.3938677">
  <ele>-15.004</ele>
  <time>2026-09-02T22:12:51Z</time>
  <course>186.68</course>
  <speed>0.30016662039607267</speed>
  <fix>3d</fix>
</trkpt>
<trkpt lat="33.8100489" lon="-118.3938676">
  <ele>-14.56</ele>
  <time>2026-09-02T22:12:51Z</time>
  <course>0.14</course>
  <speed>0.3</speed>
  <fix>3d</fix>
</trkpt>
<trkpt lat="33.8100499" lon="-118.3938677">
  <ele>-15.033</ele>
  <time>2026-09-02T22:12:51Z</time>
  <course>186.68</course>
  <speed>0.3</speed>
  <fix>3d</fix>
</trkpt>
<trkpt lat="33.8100494" lon="-118.3938676">
  <ele>-14.63</ele>
  <time>2026-09-02T22:12:51Z</time>
  <course>0.33</course>
  <speed>0.3</speed>
  <fix>3d</fix>
</trkpt>
<trkpt lat="33.8100501" lon="-118.3938677">
  <ele>-15.061</ele>
  <time>2026-09-02T22:12:51Z</time>
  <course>186.68</course>
  <speed>0.30016662039607267</speed>
  <fix>3d</fix>
</trkpt>
<trkpt lat="33.8100494" lon="-118.3938676">
  <ele>-14.63</ele>
  <time>2026-09-02T22:12:51Z</time>
  <course>0.33</course>
  <speed>0.3</speed>
  <fix>3d</fix>
</trkpt>
<trkpt lat="33.8100504" lon="-118.3938677">
  <ele>-15.089</ele>
  <time>2026-09-02T22:12:51Z</time>
  <course>186.67</course>
  <speed>0.29</speed>
  <fix>3d</fix>
</trkpt>
<trkpt lat="33.81005" lon="-118.3938676">
  <ele>-14.68</ele>
  <time>2026-09-02T22:12:51Z</time>
  <course>0.5</course>
  <speed>0.29</speed>
  <fix>3d</fix>
</trkpt>
<trkpt lat="33.8100506" lon="-118.3938677">
  <ele>-15.117</ele>
  <time>2026-09-02T22:12:51Z</time>
  <course>186.67</course>
  <speed>0.29017236257093815</speed>
  <fix>3d</fix>
</trkpt>
<trkpt lat="33.81005" lon="-118.3938676">
  <ele>-14.68</ele>
  <time>2026-09-02T22:12:51Z</time>
  <course>0.5</course>
  <speed>0.29</speed>
  <fix>3d</fix>
</trkpt>
<trkpt lat="33.8100509" lon="-118.3938677">
  <ele>-15.142</ele>
  <time>2026-09-02T22:12:51Z</time>
  <course>186.67</course>
  <speed>0.29</speed>
  <fix>3d</fix>
</trkpt>
<trkpt lat="33.8100505" lon="-118.3938676">
  <ele>-14.73</ele>
  <time>2026-09-02T22:12:51Z</time>
  <course>0.68</course>
  <speed>0.28</speed>
  <fix>3d</fix>
</trkpt>
<trkpt lat="33.8100511" lon="-118.3938677">
  <ele>-15.163</ele>
  <time>2026-09-02T22:12:51Z</time>
  <course>186.67</course>
  <speed>0.29017236257093815</speed>
  <fix>3d</fix>
</trkpt>
<trkpt lat="33.8100505" lon="-118.3938676">
  <ele>-14.73</ele>
  <time>2026-09-02T22:12:51Z</time>
  <course>0.68</course>
  <speed>0.28</speed>
  <fix>3d</fix>
</trkpt>
<trkpt lat="33.8100514" lon="-118.3938677">
  <ele>-15.181</ele>
  <time>2026-09-02T22:12:51Z</time>
  <course>186.66</course>
  <speed>0.28</speed>
  <fix>3d</fix>
</trkpt>
<trkpt lat="33.810051" lon="-118.3938676">
  <ele>-14.78</ele>
  <time>2026-09-02T22:12:51Z</time>
  <course>0.86</course>
  <speed>0.28</speed>
  <fix>3d</fix>
</trkpt>
<trkpt lat="33.8100516" lon="-118.3938677">
  <ele>-15.193</ele>
  <time>2026-09-02T22:12:51Z</time>
  <course>186.67</course>
  <speed>0.28</speed>
  <fix>3d</fix>
</trkpt>
<trkpt lat="33.810051" lon="-118.3938676">
  <ele>-14.78</ele>
  <time>2026-09-02T22:12:51Z</time>
  <course>0.86</course>
  <speed>0.28</speed>
  <fix>3d</fix>
</trkpt>
<trkpt lat="33.8100519" lon="-118.3938677">
  <ele>-15.199</ele>
  <time>2026-09-02T22:12:51Z</time>
  <course>186.67</course>
  <speed>0.28</speed>
  <fix>3d</fix>
</trkpt>
<trkpt lat="33.8100515" lon="-118.3938676">
  <ele>-14.8</ele>
  <time>2026-09-02T22:12:51Z</time>
  <course>1.04</course>
  <speed>0.27</speed>
  <fix>3d</fix>
</trkpt>
<trkpt lat="33.8100521" lon="-118.3938677">
  <ele>-15.196</ele>
  <time>2026-09-02T22:12:51Z</time>
  <course>186.67</course>
  <speed>0.28</speed>
  <fix>3d</fix>
</trkpt>
<trkpt lat="33.8100515" lon="-118.3938676">
  <ele>-14.8</ele>
  <time>2026-09-02T22:12:51Z</time>
  <course>1.04</course>
  <speed>0.27</speed>
  <fix>3d</fix>
</trkpt>
<trkpt lat="33.8100524" lon="-118.3938677">
  <ele>-15.187</ele>
  <time>2026-09-02T22:12:51Z</time>
  <course>186.67</course>
  <speed>0.28</speed>
  <fix>3d</fix>
</trkpt>
<trkpt lat="33.810052" lon="-118.3938676">
  <ele>-14.82</ele>
  <time>2026-09-02T22:12:51Z</time>
  <course>1.25</course>
  <speed>0.27</speed>
  <fix>3d</fix>
</trkpt>
<trkpt lat="33.8100526" lon="-118.3938677">
  <ele>-15.178</ele>
  <time>2026-09-02T22:12:51Z</time>
  <course>186.66</course>
  <speed>0.28</speed>
  <fix>3d</fix>
</trkpt>
<trkpt lat="33.810052" lon="-118.3938676">
  <ele>-14.82</ele>
  <time>2026-09-02T22:12:51Z</time>
  <course>1.25</course>
  <speed>0.27</speed>
  <fix>3d</fix>
</trkpt>
<trkpt lat="33.8100529" lon="-118.3938677">
  <ele>-15.167</ele>
  <time>2026-09-02T22:12:51Z</time>
  <course>186.66</course>
  <speed>0.28</speed>
  <fix>3d</fix>
</trkpt>
<trkpt lat="33.8100525" lon="-118.3938676">
  <ele>-14.8</ele>
  <time>2026-09-02T22:12:51Z</time>
  <course>1.44</course>
  <speed>0.26</speed>
  <fix>3d</fix>
</trkpt>
<trkpt lat="33.8100531" lon="-118.3938677">
  <ele>-15.155</ele>
  <time>2026-09-02T22:12:51Z</time>
  <course>186.66</course>
  <speed>0.28</speed>
  <fix>3d</fix>
</trkpt>
<trkpt lat="33.8100525" lon="-118.3938676">
  <ele>-14.8</ele>
  <time>2026-09-02T22:12:51Z</time>
  <course>1.44</course>
  <speed>0.26</speed>
  <fix>3d</fix>
</trkpt>
<trkpt lat="33.8100533" lon="-118.3938677">
  <ele>-15.143</ele>
  <time>2026-09-02T22:12:51Z</time>
  <course>186.65</course>
  <speed>0.27</speed>
  <fix>3d</fix>
</trkpt>
<trkpt lat="33.8100529" lon="-118.3938676">
  <ele>-14.79</ele>
  <time>2026-09-02T22:12:51Z</time>
  <course>1.59</course>
  <speed>0.26</speed>
  <fix>3d</fix>
</trkpt>
<trkpt lat="33.8100536" lon="-118.3938677">
  <ele>-15.131</ele>
  <time>2026-09-02T22:12:51Z</time>
  <course>186.65</course>
  <speed>0.27</speed>
  <fix>3d</fix>
</trkpt>
<trkpt lat="33.8100529" lon="-118.3938676">
  <ele>-14.79</ele>
  <time>2026-09-02T22:12:51Z</time>
  <course>1.59</course>
  <speed>0.26</speed>
  <fix>3d</fix>
</trkpt>
<trkpt lat="33.8100538" lon="-118.3938677">
  <ele>-15.122</ele>
  <time>2026-09-02T22:12:51Z</time>
  <course>186.65</course>
  <speed>0.27</speed>
  <fix>3d</fix>
</trkpt>
<trkpt lat="33.8100534" lon="-118.3938676">
  <ele>-14.77</ele>
  <time>2026-09-02T22:12:51Z</time>
  <course>1.73</course>
  <speed>0.26</speed>
  <fix>3d</fix>
</trkpt>
<trkpt lat="33.810054" lon="-118.3938677">
  <ele>-15.115</ele>
  <time>2026-09-02T22:12:51Z</time>
  <course>186.65</course>
  <speed>0.28</speed>
  <fix>3d</fix>
</trkpt>
<trkpt lat="33.8100534" lon="-118.3938676">
  <ele>-14.77</ele>
  <time>2026-09-02T22:12:51Z</time>
  <course>1.73</course>
  <speed>0.26</speed>
  <fix>3d</fix>
</trkpt>
<trkpt lat="33.8100543" lon="-118.3938677">
  <ele>-15.11</ele>
  <time>2026-09-02T22:12:51Z</time>
  <course>186.65</course>
  <speed>0.28</speed>
  <fix>3d</fix>
</trkpt>
<trkpt lat="33.8100539" lon="-118.3938676">
  <ele>-14.75</ele>
  <time>2026-09-02T22:12:51Z</time>
  <course>1.85</course>
  <speed>0.26</speed>
  <fix>3d</fix>
</trkpt>
<trkpt lat="33.8100545" lon="-118.3938677">
  <ele>-15.109</ele>
  <time>2026-09-02T22:12:51Z</time>
  <course>186.65</course>
  <speed>0.28</speed>
  <fix>3d</fix>
</trkpt>
<trkpt lat="33.8100539" lon="-118.3938676">
  <ele>-14.75</ele>
  <time>2026-09-02T22:12:51Z</time>
  <course>1.85</course>
  <speed>0.26</speed>
  <fix>3d</fix>
</trkpt>
<trkpt lat="33.8100548" lon="-118.3938677">
  <ele>-15.115</ele>
  <time>2026-09-02T22:12:51Z</time>
  <course>186.65</course>
  <speed>0.28</speed>
  <fix>3d</fix>
</trkpt>
<trkpt lat="33.8100544" lon="-118.3938676">
  <ele>-14.74</ele>
  <time>2026-09-02T22:12:51Z</time>
  <course>1.93</course>
  <speed>0.26</speed>
  <fix>3d</fix>
</trkpt>
<trkpt lat="33.810055" lon="-118.3938677">
  <ele>-15.128</ele>
  <time>2026-09-02T22:12:51Z</time>
  <course>186.65</course>
  <speed>0.280178514522438</speed>
  <fix>3d</fix>
</trkpt>
<trkpt lat="33.8100544" lon="-118.3938676">
  <ele>-14.74</ele>
  <time>2026-09-02T22:12:51Z</time>
  <course>1.93</course>
  <speed>0.26</speed>
  <fix>3d</fix>
</trkpt>
<trkpt lat="33.8100552" lon="-118.3938677">
  <ele>-15.147</ele>
  <time>2026-09-02T22:12:51Z</time>
  <course>186.65</course>
  <speed>0.28</speed>
  <fix>3d</fix>
</trkpt>
<trkpt lat="33.8100549" lon="-118.3938676">
  <ele>-14.75</ele>
  <time>2026-09-02T22:12:51Z</time>
  <course>1.97</course>
  <speed>0.26</speed>
  <fix>3d</fix>
</trkpt>
<trkpt lat="33.8100555" lon="-118.3938677">
  <ele>-15.172</ele>
  <time>2026-09-02T22:12:51Z</time>
  <course>186.64</course>
  <speed>0.280178514522438</speed>
  <fix>3d</fix>
</trkpt>
<trkpt lat="33.8100549" lon="-118.3938676">
  <ele>-14.75</ele>
  <time>2026-09-02T22:12:51Z</time>
  <course>1.97</course>
  <speed>0.26</speed>
  <fix>3d</fix>
</trkpt>
<trkpt lat="33.8100557" lon="-118.3938677">
  <ele>-15.199</ele>
  <time>2026-09-02T22:12:51Z</time>
  <course>186.64</course>
  <speed>0.280178514522438</speed>
  <fix>3d</fix>
</trkpt>
<trkpt lat="33.8100553" lon="-118.3938676">
  <ele>-14.79</ele>
  <time>2026-09-02T22:12:51Z</time>
  <course>2.0</course>
  <speed>0.26</speed>
  <fix>3d</fix>
</trkpt>
<trkpt lat="33.810056" lon="-118.3938677">
  <ele>-15.227</ele>
  <time>2026-09-02T22:12:51Z</time>
  <course>186.64</course>
  <speed>0.280178514522438</speed>
  <fix>3d</fix>
</trkpt>
<trkpt lat="33.8100553" lon="-118.3938676">
  <ele>-14.79</ele>
  <time>2026-09-02T22:12:51Z</time>
  <course>2.0</course>
  <speed>0.26</speed>
  <fix>3d</fix>
</trkpt>
<trkpt lat="33.8100562" lon="-118.3938677">
  <ele>-15.257</ele>
  <time>2026-09-02T22:12:51Z</time>
  <course>186.64</course>
  <speed>0.280178514522438</speed>
  <fix>3d</fix>
</trkpt>
<trkpt lat="33.8100558" lon="-118.3938675">
  <ele>-14.84</ele>
  <time>2026-09-02T22:12:51Z</time>
  <course>2.06</course>
  <speed>0.26</speed>
  <fix>3d</fix>
</trkpt>
<trkpt lat="33.8100564" lon="-118.3938677">
  <ele>-15.29</ele>
  <time>2026-09-02T22:12:51Z</time>
  <course>186.64</course>
  <speed>0.280178514522438</speed>
  <fix>3d</fix>
</trkpt>
<trkpt lat="33.8100558" lon="-118.3938675">
  <ele>-14.84</ele>
  <time>2026-09-02T22:12:51Z</time>
  <course>2.06</course>
  <speed>0.26</speed>
  <fix>3d</fix>
</trkpt>
<trkpt lat="33.8100567" lon="-118.3938677">
  <ele>-15.323</ele>
  <time>2026-09-02T22:12:51Z</time>
  <course>186.64</course>
  <speed>0.280178514522438</speed>
  <fix>3d</fix>
</trkpt>
<trkpt lat="33.8100563" lon="-118.3938675">
  <ele>-14.9</ele>
  <time>2026-09-02T22:12:51Z</time>
  <course>2.0</course>
  <speed>0.26</speed>
  <fix>3d</fix>
</trkpt>
<trkpt lat="33.8100569" lon="-118.3938677">
  <ele>-15.354</ele>
  <time>2026-09-02T22:12:51Z</time>
  <course>186.64</course>
  <speed>0.280178514522438</speed>
  <fix>3d</fix>
</trkpt>
<trkpt lat="33.8100563" lon="-118.3938675">
  <ele>-14.9</ele>
  <time>2026-09-02T22:12:51Z</time>
  <course>2.0</course>
  <speed>0.26</speed>
  <fix>3d</fix>
</trkpt>
<trkpt lat="33.8100572" lon="-118.3938677">
  <ele>-15.384</ele>
  <time>2026-09-02T22:12:51Z</time>
  <course>186.64</course>
  <speed>0.280178514522438</speed>
  <fix>3d</fix>
</trkpt>
<trkpt lat="33.8100568" lon="-118.3938675">
  <ele>-14.96</ele>
  <time>2026-09-02T22:12:51Z</time>
  <course>1.78</course>
  <speed>0.26</speed>
  <fix>3d</fix>
</trkpt>
<trkpt lat="33.8100574" lon="-118.3938677">
  <ele>-15.41</ele>
  <time>2026-09-02T22:12:51Z</time>
  <course>186.64</course>
  <speed>0.29017236257093815</speed>
  <fix>3d</fix>
</trkpt>
<trkpt lat="33.8100568" lon="-118.3938675">
  <ele>-14.96</ele>
  <time>2026-09-02T22:12:51Z</time>
  <course>1.78</course>
  <speed>0.26</speed>
  <fix>3d</fix>
</trkpt>
<trkpt lat="33.8100577" lon="-118.3938677">
  <ele>-15.433</ele>
  <time>2026-09-02T22:12:51Z</time>
  <course>186.64</course>
  <speed>0.29017236257093815</speed>
  <fix>3d</fix>
</trkpt>
<trkpt lat="33.8100572" lon="-118.3938675">
  <ele>-15.02</ele>
  <time>2026-09-02T22:12:51Z</time>
  <course>1.54</course>
  <speed>0.26</speed>
  <fix>3d</fix>
</trkpt>
<trkpt lat="33.8100579" lon="-118.3938677">
  <ele>-15.453</ele>
  <time>2026-09-02T22:12:51Z</time>
  <course>186.64</course>
  <speed>0.29017236257093815</speed>
  <fix>3d</fix>
</trkpt>
<trkpt lat="33.8100572" lon="-118.3938675">
  <ele>-15.02</ele>
  <time>2026-09-02T22:12:51Z</time>
  <course>1.54</course>
  <speed>0.26</speed>
  <fix>3d</fix>
</trkpt>
<trkpt lat="33.8100582" lon="-118.3938677">
  <ele>-15.469</ele>
  <time>2026-09-02T22:12:51Z</time>
  <course>186.64</course>
  <speed>0.29017236257093815</speed>
  <fix>3d</fix>
</trkpt>
<trkpt lat="33.8100577" lon="-118.3938675">
  <ele>-15.07</ele>
  <time>2026-09-02T22:12:51Z</time>
  <course>1.31</course>
  <speed>0.27</speed>
  <fix>3d</fix>
</trkpt>
<trkpt lat="33.8100584" lon="-118.3938677">
  <ele>-15.479</ele>
  <time>2026-09-02T22:12:51Z</time>
  <course>186.63</course>
  <speed>0.29017236257093815</speed>
  <fix>3d</fix>
</trkpt>
<trkpt lat="33.8100577" lon="-118.3938675">
  <ele>-15.07</ele>
  <time>2026-09-02T22:12:51Z</time>
  <course>1.31</course>
  <speed>0.27</speed>
  <fix>3d</fix>
</trkpt>
<trkpt lat="33.8100587" lon="-118.3938677">
  <ele>-15.484</ele>
  <time>2026-09-02T22:12:51Z</time>
  <course>186.63</course>
  <speed>0.29017236257093815</speed>
  <fix>3d</fix>
</trkpt>
<trkpt lat="33.8100582" lon="-118.3938675">
  <ele>-15.1</ele>
  <time>2026-09-02T22:12:51Z</time>
  <course>1.17</course>
  <speed>0.27</speed>
  <fix>3d</fix>
</trkpt>
<trkpt lat="33.8100589" lon="-118.3938677">
  <ele>-15.484</ele>
  <time>2026-09-02T22:12:51Z</time>
  <course>186.63</course>
  <speed>0.30016662039607267</speed>
  <fix>3d</fix>
</trkpt>
<trkpt lat="33.8100582" lon="-118.3938675">
  <ele>-15.1</ele>
  <time>2026-09-02T22:12:51Z</time>
  <course>1.17</course>
  <speed>0.27</speed>
  <fix>3d</fix>
</trkpt>
<trkpt lat="33.8100592" lon="-118.3938677">
  <ele>-15.483</ele>
  <time>2026-09-02T22:12:51Z</time>
  <course>186.64</course>
  <speed>0.30016662039607267</speed>
  <fix>3d</fix>
</trkpt>
<trkpt lat="33.8100587" lon="-118.3938674">
  <ele>-15.11</ele>
  <time>2026-09-02T22:12:51Z</time>
  <course>1.11</course>
  <speed>0.27</speed>
  <fix>3d</fix>
</trkpt>
<trkpt lat="33.8100594" lon="-118.3938677">
  <ele>-15.485</ele>
  <time>2026-09-02T22:12:51Z</time>
  <course>186.64</course>
  <speed>0.30016662039607267</speed>
  <fix>3d</fix>
</trkpt>
<trkpt lat="33.8100587" lon="-118.3938674">
  <ele>-15.11</ele>
  <time>2026-09-02T22:12:51Z</time>
  <course>1.11</course>
  <speed>0.27</speed>
  <fix>3d</fix>
</trkpt>
<trkpt lat="33.8100597" lon="-118.3938676">
  <ele>-15.488</ele>
  <time>2026-09-02T22:12:51Z</time>
  <course>186.64</course>
  <speed>0.30016662039607267</speed>
  <fix>3d</fix>
</trkpt>
<trkpt lat="33.8100592" lon="-118.3938674">
  <ele>-15.11</ele>
  <time>2026-09-02T22:12:51Z</time>
  <course>0.95</course>
  <speed>0.27</speed>
  <fix>3d</fix>
</trkpt>
<trkpt lat="33.8100599" lon="-118.3938676">
  <ele>-15.489</ele>
  <time>2026-09-02T22:12:51Z</time>
  <course>186.64</course>
  <speed>0.30016662039607267</speed>
  <fix>3d</fix>
</trkpt>
<trkpt lat="33.8100592" lon="-118.3938674">
  <ele>-15.11</ele>
  <time>2026-09-02T22:12:51Z</time>
  <course>0.95</course>
  <speed>0.27</speed>
  <fix>3d</fix>
</trkpt>
<trkpt lat="33.8100602" lon="-118.3938676">
  <ele>-15.487</ele>
  <time>2026-09-02T22:12:51Z</time>
  <course>186.64</course>
  <speed>0.30016662039607267</speed>
  <fix>3d</fix>
</trkpt>
<trkpt lat="33.8100597" lon="-118.3938674">
  <ele>-15.11</ele>
  <time>2026-09-02T22:12:51Z</time>
  <course>0.64</course>
  <speed>0.28</speed>
  <fix>3d</fix>
</trkpt>
<trkpt lat="33.8100604" lon="-118.3938676">
  <ele>-15.485</ele>
  <time>2026-09-02T22:12:51Z</time>
  <course>186.64</course>
  <speed>0.3101612483854165</speed>
  <fix>3d</fix>
</trkpt>
<trkpt lat="33.8100597" lon="-118.3938674">
  <ele>-15.11</ele>
  <time>2026-09-02T22:12:51Z</time>
  <course>0.64</course>
  <speed>0.28</speed>
  <fix>3d</fix>
</trkpt>
<trkpt lat="33.8100607" lon="-118.3938676">
  <ele>-15.483</ele>
  <time>2026-09-02T22:12:51Z</time>
  <course>186.64</course>
  <speed>0.30016662039607267</speed>
  <fix>3d</fix>
</trkpt>
<trkpt lat="33.8100602" lon="-118.3938674">
  <ele>-15.12</ele>
  <time>2026-09-02T22:12:51Z</time>
  <course>0.29</course>
  <speed>0.28</speed>
  <fix>3d</fix>
</trkpt>
<trkpt lat="33.8100609" lon="-118.3938676">
  <ele>-15.481</ele>
  <time>2026-09-02T22:12:51Z</time>
  <course>186.64</course>
  <speed>0.29017236257093815</speed>
  <fix>3d</fix>
</trkpt>
<trkpt lat="33.8100602" lon="-118.3938674">
  <ele>-15.12</ele>
  <time>2026-09-02T22:12:51Z</time>
  <course>0.29</course>
  <speed>0.28</speed>
  <fix>3d</fix>
</trkpt>
<trkpt lat="33.8100612" lon="-118.3938676">
  <ele>-15.481</ele>
  <time>2026-09-02T22:12:51Z</time>
  <course>186.64</course>
  <speed>0.29017236257093815</speed>
  <fix>3d</fix>
</trkpt>
<trkpt lat="33.8100607" lon="-118.3938674">
  <ele>-15.11</ele>
  <time>2026-09-02T22:12:51Z</time>
  <course>0.02</course>
  <speed>0.27</speed>
  <fix>3d</fix>
</trkpt>
<trkpt lat="33.8100614" lon="-118.3938676">
  <ele>-15.481</ele>
  <time>2026-09-02T22:12:51Z</time>
  <course>186.64</course>
  <speed>0.30016662039607267</speed>
  <fix>3d</fix>
</trkpt>
<trkpt lat="33.8100607" lon="-118.3938674">
  <ele>-15.11</ele>
  <time>2026-09-02T22:12:51Z</time>
  <course>0.02</course>
  <speed>0.27</speed>
  <fix>3d</fix>
</trkpt>
<trkpt lat="33.8100617" lon="-118.3938676">
  <ele>-15.486</ele>
  <time>2026-09-02T22:12:51Z</time>
  <course>186.64</course>
  <speed>0.30016662039607267</speed>
  <fix>3d</fix>
</trkpt>
<trkpt lat="33.8100612" lon="-118.3938674">
  <ele>-15.11</ele>
  <time>2026-09-02T22:12:51Z</time>
  <course>359.83</course>
  <speed>0.27</speed>
  <fix>3d</fix>
</trkpt>
<trkpt lat="33.8100619" lon="-118.3938676">
  <ele>-15.498</ele>
  <time>2026-09-02T22:12:51Z</time>
  <course>186.64</course>
  <speed>0.30066592756745814</speed>
  <fix>3d</fix>
</trkpt>
<trkpt lat="33.8100612" lon="-118.3938674">
  <ele>-15.11</ele>
  <time>2026-09-02T22:12:51Z</time>
  <course>359.83</course>
  <speed>0.27</speed>
  <fix>3d</fix>
</trkpt>
<trkpt lat="33.8100622" lon="-118.3938676">
  <ele>-15.512</ele>
  <time>2026-09-02T22:12:51Z</time>
  <course>186.64</course>
  <speed>0.3101612483854165</speed>
  <fix>3d</fix>
</trkpt>
<trkpt lat="33.8100617" lon="-118.3938674">
  <ele>-15.13</ele>
  <time>2026-09-02T22:12:51Z</time>
  <course>359.65</course>
  <speed>0.28</speed>
  <fix>3d</fix>
</trkpt>
<trkpt lat="33.8100625" lon="-118.3938676">
  <ele>-15.527</ele>
  <time>2026-09-02T22:12:51Z</time>
  <course>186.64</course>
  <speed>0.31064449134018135</speed>
  <fix>3d</fix>
</trkpt>
<trkpt lat="33.8100617" lon="-118.3938674">
  <ele>-15.13</ele>
  <time>2026-09-02T22:12:51Z</time>
  <course>359.65</course>
  <speed>0.28</speed>
  <fix>3d</fix>
</trkpt>
<trkpt lat="33.8100627" lon="-118.3938676">
  <ele>-15.542</ele>
  <time>2026-09-02T22:12:51Z</time>
  <course>186.64</course>
  <speed>0.3101612483854165</speed>
  <fix>3d</fix>
</trkpt>
<trkpt lat="33.8100622" lon="-118.3938674">
  <ele>-15.15</ele>
  <time>2026-09-02T22:12:51Z</time>
  <course>359.5</course>
  <speed>0.28</speed>
  <fix>3d</fix>
</trkpt>
<trkpt lat="33.810063" lon="-118.3938676">
  <ele>-15.556</ele>
  <time>2026-09-02T22:12:51Z</time>
  <course>186.64</course>
  <speed>0.32015621187164245</speed>
  <fix>3d</fix>
</trkpt>
<trkpt lat="33.8100622" lon="-118.3938674">
  <ele>-15.15</ele>
  <time>2026-09-02T22:12:51Z</time>
  <course>359.5</course>
  <speed>0.28</speed>
  <fix>3d</fix>
</trkpt>
<trkpt lat="33.8100632" lon="-118.3938676">
  <ele>-15.572</ele>
  <time>2026-09-02T22:12:51Z</time>
  <course>186.64</course>
  <speed>0.32015621187164245</speed>
  <fix>3d</fix>
</trkpt>
<trkpt lat="33.8100628" lon="-118.3938674">
  <ele>-15.18</ele>
  <time>2026-09-02T22:12:51Z</time>
  <course>359.41</course>
  <speed>0.29</speed>
  <fix>3d</fix>
</trkpt>
<trkpt lat="33.8100635" lon="-118.3938676">
  <ele>-15.589</ele>
  <time>2026-09-02T22:12:51Z</time>
  <course>186.64</course>
  <speed>0.32015621187164245</speed>
  <fix>3d</fix>
</trkpt>
<trkpt lat="33.8100628" lon="-118.3938674">
  <ele>-15.18</ele>
  <time>2026-09-02T22:12:51Z</time>
  <course>359.41</course>
  <speed>0.29</speed>
  <fix>3d</fix>
</trkpt>
<trkpt lat="33.8100638" lon="-118.3938676">
  <ele>-15.605</ele>
  <time>2026-09-02T22:12:51Z</time>
  <course>186.64</course>
  <speed>0.32015621187164245</speed>
  <fix>3d</fix>
</trkpt>
<trkpt lat="33.8100633" lon="-118.3938674">
  <ele>-15.21</ele>
  <time>2026-09-02T22:12:51Z</time>
  <course>359.36</course>
  <speed>0.29</speed>
  <fix>3d</fix>
</trkpt>
<trkpt lat="33.8100641" lon="-118.3938676">
  <ele>-15.625</ele>
  <time>2026-09-02T22:12:51Z</time>
  <course>186.64</course>
  <speed>0.32015621187164245</speed>
  <fix>3d</fix>
</trkpt>
<trkpt lat="33.8100633" lon="-118.3938674">
  <ele>-15.21</ele>
  <time>2026-09-02T22:12:51Z</time>
  <course>359.36</course>
  <speed>0.29</speed>
  <fix>3d</fix>
</trkpt>
<trkpt lat="33.8100643" lon="-118.3938676">
  <ele>-15.647</ele>
  <time>2026-09-02T22:12:51Z</time>
  <course>186.65</course>
  <speed>0.30016662039607267</speed>
  <fix>3d</fix>
</trkpt>
<trkpt lat="33.8100638" lon="-118.3938674">
  <ele>-15.24</ele>
  <time>2026-09-02T22:12:51Z</time>
  <course>359.32</course>
  <speed>0.29</speed>
  <fix>3d</fix>
</trkpt>
<trkpt lat="33.8100646" lon="-118.3938676">
  <ele>-15.669</ele>
  <time>2026-09-02T22:12:51Z</time>
  <course>186.65</course>
  <speed>0.3101612483854165</speed>
  <fix>3d</fix>
</trkpt>
<trkpt lat="33.8100638" lon="-118.3938674">
  <ele>-15.24</ele>
  <time>2026-09-02T22:12:51Z</time>
  <course>359.32</course>
  <speed>0.29</speed>
  <fix>3d</fix>
</trkpt>
<trkpt lat="33.8100648" lon="-118.3938676">
  <ele>-15.688</ele>
  <time>2026-09-02T22:12:51Z</time>
  <course>186.65</course>
  <speed>0.3101612483854165</speed>
  <fix>3d</fix>
</trkpt>
<trkpt lat="33.8100644" lon="-118.3938674">
  <ele>-15.28</ele>
  <time>2026-09-02T22:12:51Z</time>
  <course>359.32</course>
  <speed>0.29</speed>
  <fix>3d</fix>
</trkpt>
<trkpt lat="33.8100651" lon="-118.3938676">
  <ele>-15.706</ele>
  <time>2026-09-02T22:12:51Z</time>
  <course>186.65</course>
  <speed>0.32015621187164245</speed>
  <fix>3d</fix>
</trkpt>
<trkpt lat="33.8100644" lon="-118.3938674">
  <ele>-15.28</ele>
  <time>2026-09-02T22:12:51Z</time>
  <course>359.32</course>
  <speed>0.29</speed>
  <fix>3d</fix>
</trkpt>
<trkpt lat="33.8100654" lon="-118.3938676">
  <ele>-15.723</ele>
  <time>2026-09-02T22:12:51Z</time>
  <course>186.65</course>
  <speed>0.32015621187164245</speed>
  <fix>3d</fix>
</trkpt>
<trkpt lat="33.8100649" lon="-118.3938674">
  <ele>-15.31</ele>
  <time>2026-09-02T22:12:51Z</time>
  <course>359.37</course>
  <speed>0.29</speed>
  <fix>3d</fix>
</trkpt>
<trkpt lat="33.8100657" lon="-118.3938676">
  <ele>-15.741</ele>
  <time>2026-09-02T22:12:51Z</time>
  <course>186.64</course>
  <speed>0.32015621187164245</speed>
  <fix>3d</fix>
</trkpt>
<trkpt lat="33.8100649" lon="-118.3938674">
  <ele>-15.31</ele>
  <time>2026-09-02T22:12:51Z</time>
  <course>359.37</course>
  <speed>0.29</speed>
  <fix>3d</fix>
</trkpt>
<trkpt lat="33.8100659" lon="-118.3938676">
  <ele>-15.757</ele>
  <time>2026-09-02T22:12:51Z</time>
  <course>186.64</course>
  <speed>0.3301514803843835</speed>
  <fix>3d</fix>
</trkpt>
<trkpt lat="33.8100654" lon="-118.3938674">
  <ele>-15.35</ele>
  <time>2026-09-02T22:12:51Z</time>
  <course>359.36</course>
  <speed>0.29</speed>
  <fix>3d</fix>
</trkpt>
<trkpt lat="33.8100662" lon="-118.3938676">
  <ele>-15.77</ele>
  <time>2026-09-02T22:12:51Z</time>
  <course>186.64</course>
  <speed>0.3101612483854165</speed>
  <fix>3d</fix>
</trkpt>
<trkpt lat="33.8100654" lon="-118.3938674">
  <ele>-15.35</ele>
  <time>2026-09-02T22:12:51Z</time>
  <course>359.36</course>
  <speed>0.29</speed>
  <fix>3d</fix>
</trkpt>
<trkpt lat="33.8100665" lon="-118.3938676">
  <ele>-15.783</ele>
  <time>2026-09-02T22:12:51Z</time>
  <course>186.64</course>
  <speed>0.3101612483854165</speed>
  <fix>3d</fix>
</trkpt>
<trkpt lat="33.8100659" lon="-118.3938674">
  <ele>-15.38</ele>
  <time>2026-09-02T22:12:51Z</time>
  <course>359.31</course>
  <speed>0.29</speed>
  <fix>3d</fix>
</trkpt>
<trkpt lat="33.8100667" lon="-118.3938676">
  <ele>-15.796</ele>
  <time>2026-09-02T22:12:51Z</time>
  <course>186.65</course>
  <speed>0.32015621187164245</speed>
  <fix>3d</fix>
</trkpt>
<trkpt lat="33.8100659" lon="-118.3938674">
  <ele>-15.38</ele>
  <time>2026-09-02T22:12:51Z</time>
  <course>359.31</course>
  <speed>0.29</speed>
  <fix>3d</fix>
</trkpt>
<trkpt lat="33.810067" lon="-118.3938676">
  <ele>-15.807</ele>
  <time>2026-09-02T22:12:51Z</time>
  <course>186.65</course>
  <speed>0.30016662039607267</speed>
  <fix>3d</fix>
</trkpt>
<trkpt lat="33.8100665" lon="-118.3938674">
  <ele>-15.4</ele>
  <time>2026-09-02T22:12:51Z</time>
  <course>359.28</course>
  <speed>0.29</speed>
  <fix>3d</fix>
</trkpt>
<trkpt lat="33.8100672" lon="-118.3938676">
  <ele>-15.818</ele>
  <time>2026-09-02T22:12:51Z</time>
  <course>186.65</course>
  <speed>0.30016662039607267</speed>
  <fix>3d</fix>
</trkpt>
<trkpt lat="33.8100665" lon="-118.3938674">
  <ele>-15.4</ele>
  <time>2026-09-02T22:12:51Z</time>
  <course>359.28</course>
  <speed>0.29</speed>
  <fix>3d</fix>
</trkpt>
<trkpt lat="33.8100675" lon="-118.3938676">
  <ele>-15.827</ele>
  <time>2026-09-02T22:12:51Z</time>
  <course>186.65</course>
  <speed>0.3101612483854165</speed>
  <fix>3d</fix>
</trkpt>
<trkpt lat="33.810067" lon="-118.3938674">
  <ele>-15.43</ele>
  <time>2026-09-02T22:12:51Z</time>
  <course>359.28</course>
  <speed>0.29</speed>
  <fix>3d</fix>
</trkpt>
<trkpt lat="33.8100678" lon="-118.3938676">
  <ele>-15.837</ele>
  <time>2026-09-02T22:12:51Z</time>
  <course>186.65</course>
  <speed>0.32015621187164245</speed>
  <fix>3d</fix>
</trkpt>
<trkpt lat="33.810067" lon="-118.3938674">
  <ele>-15.43</ele>
  <time>2026-09-02T22:12:51Z</time>
  <course>359.28</course>
  <speed>0.29</speed>
  <fix>3d</fix>
</trkpt>
<trkpt lat="33.810068" lon="-118.3938676">
  <ele>-15.846</ele>
  <time>2026-09-02T22:12:51Z</time>
  <course>186.65</course>
  <speed>0.32015621187164245</speed>
  <fix>3d</fix>
</trkpt>
<trkpt lat="33.8100675" lon="-118.3938674">
  <ele>-15.44</ele>
  <time>2026-09-02T22:12:51Z</time>
  <course>359.25</course>
  <speed>0.29</speed>
  <fix>3d</fix>
</trkpt>
<trkpt lat="33.8100683" lon="-118.3938676">
  <ele>-15.852</ele>
  <time>2026-09-02T22:12:51Z</time>
  <course>186.65</course>
  <speed>0.3301514803843835</speed>
  <fix>3d</fix>
</trkpt>
<trkpt lat="33.8100675" lon="-118.3938674">
  <ele>-15.44</ele>
  <time>2026-09-02T22:12:51Z</time>
  <course>359.25</course>
  <speed>0.29</speed>
  <fix>3d</fix>
</trkpt>
<trkpt lat="33.8100686" lon="-118.3938676">
  <ele>-15.853</ele>
  <time>2026-09-02T22:12:51Z</time>
  <course>186.65</course>
  <speed>0.3301514803843835</speed>
  <fix>3d</fix>
</trkpt>
<trkpt lat="33.810068" lon="-118.3938674">
  <ele>-15.46</ele>
  <time>2026-09-02T22:12:51Z</time>
  <course>359.21</course>
  <speed>0.3</speed>
  <fix>3d</fix>
</trkpt>
<trkpt lat="33.8100689" lon="-118.3938676">
  <ele>-15.851</ele>
  <time>2026-09-02T22:12:51Z</time>
  <course>186.65</course>
  <speed>0.340147027033899</speed>
  <fix>3d</fix>
</trkpt>
<trkpt lat="33.810068" lon="-118.3938674">
  <ele>-15.46</ele>
  <time>2026-09-02T22:12:51Z</time>
  <course>359.21</course>
  <speed>0.3</speed>
  <fix>3d</fix>
</trkpt>
<trkpt lat="33.8100692" lon="-118.3938676">
  <ele>-15.847</ele>
  <time>2026-09-02T22:12:51Z</time>
  <course>186.65</course>
  <speed>0.340147027033899</speed>
  <fix>3d</fix>
</trkpt>
<trkpt lat="33.8100686" lon="-118.3938674">
  <ele>-15.47</ele>
  <time>2026-09-02T22:12:51Z</time>
  <course>359.16</course>
  <speed>0.31</speed>
  <fix>3d</fix>
</trkpt>
<trkpt lat="33.8100694" lon="-118.3938676">
  <ele>-15.844</ele>
  <time>2026-09-02T22:12:51Z</time>
  <course>186.65</course>
  <speed>0.35014282800023194</speed>
  <fix>3d</fix>
</trkpt>
<trkpt lat="33.8100686" lon="-118.3938674">
  <ele>-15.47</ele>
  <time>2026-09-02T22:12:51Z</time>
  <course>359.16</course>
  <speed>0.31</speed>
  <fix>3d</fix>
</trkpt>
<trkpt lat="33.8100697" lon="-118.3938676">
  <ele>-15.845</ele>
  <time>2026-09-02T22:12:51Z</time>
  <course>186.65</course>
  <speed>0.35014282800023194</speed>
  <fix>3d</fix>
</trkpt>
<trkpt lat="33.8100692" lon="-118.3938674">
  <ele>-15.47</ele>
  <time>2026-09-02T22:12:51Z</time>
  <course>359.12</course>
  <speed>0.32</speed>
  <fix>3d</fix>
</trkpt>
<trkpt lat="33.81007" lon="-118.3938676">
  <ele>-15.85</ele>
  <time>2026-09-02T22:12:51Z</time>
  <course>186.65</course>
  <speed>0.35014282800023194</speed>
  <fix>3d</fix>
</trkpt>
<trkpt lat="33.8100692" lon="-118.3938674">
  <ele>-15.47</ele>
  <time>2026-09-02T22:12:51Z</time>
  <course>359.12</course>
  <speed>0.32</speed>
  <fix>3d</fix>
</trkpt>
<trkpt lat="33.8100703" lon="-118.3938676">
  <ele>-15.856</ele>
  <time>2026-09-02T22:12:51Z</time>
  <course>186.65</course>
  <speed>0.35014282800023194</speed>
  <fix>3d</fix>
</trkpt>
<trkpt lat="33.8100697" lon="-118.3938674">
  <ele>-15.47</ele>
  <time>2026-09-02T22:12:51Z</time>
  <course>359.11</course>
  <speed>0.32</speed>
  <fix>3d</fix>
</trkpt>
<trkpt lat="33.8100706" lon="-118.3938676">
  <ele>-15.866</ele>
  <time>2026-09-02T22:12:51Z</time>
  <course>186.65</course>
  <speed>0.36013886210738216</speed>
  <fix>3d</fix>
</trkpt>
<trkpt lat="33.8100697" lon="-118.3938674">
  <ele>-15.47</ele>
  <time>2026-09-02T22:12:51Z</time>
  <course>359.11</course>
  <speed>0.32</speed>
  <fix>3d</fix>
</trkpt>
<trkpt lat="33.8100709" lon="-118.3938676">
  <ele>-15.882</ele>
  <time>2026-09-02T22:12:51Z</time>
  <course>186.65</course>
  <speed>0.36013886210738216</speed>
  <fix>3d</fix>
</trkpt>
<trkpt lat="33.8100704" lon="-118.3938674">
  <ele>-15.48</ele>
  <time>2026-09-02T22:12:51Z</time>
  <course>359.07</course>
  <speed>0.33</speed>
  <fix>3d</fix>
</trkpt>
<trkpt lat="33.8100712" lon="-118.3938676">
  <ele>-15.903</ele>
  <time>2026-09-02T22:12:51Z</time>
  <course>186.65</course>
  <speed>0.36013886210738216</speed>
  <fix>3d</fix>
</trkpt>
<trkpt lat="33.8100704" lon="-118.3938674">
  <ele>-15.48</ele>
  <time>2026-09-02T22:12:51Z</time>
  <course>359.07</course>
  <speed>0.33</speed>
  <fix>3d</fix>
</trkpt>
<trkpt lat="33.8100715" lon="-118.3938676">
  <ele>-15.929</ele>
  <time>2026-09-02T22:12:51Z</time>
  <course>186.66</course>
  <speed>0.36013886210738216</speed>
  <fix>3d</fix>
</trkpt>
<trkpt lat="33.8100709" lon="-118.3938675">
  <ele>-15.51</ele>
  <time>2026-09-02T22:12:51Z</time>
  <course>359.03</course>
  <speed>0.34</speed>
  <fix>3d</fix>
</trkpt>
<trkpt lat="33.8100718" lon="-118.3938676">
  <ele>-15.958</ele>
  <time>2026-09-02T22:12:51Z</time>
  <course>186.66</course>
  <speed>0.37013511046643494</speed>
  <fix>3d</fix>
</trkpt>
<trkpt lat="33.8100709" lon="-118.3938675">
  <ele>-15.51</ele>
  <time>2026-09-02T22:12:51Z</time>
  <course>359.03</course>
  <speed>0.34</speed>
  <fix>3d</fix>
</trkpt>
<trkpt lat="33.8100721" lon="-118.3938676">
  <ele>-15.988</ele>
  <time>2026-09-02T22:12:51Z</time>
  <course>186.66</course>
  <speed>0.37013511046643494</speed>
  <fix>3d</fix>
</trkpt>
<trkpt lat="33.8100716" lon="-118.3938675">
  <ele>-15.55</ele>
  <time>2026-09-02T22:12:51Z</time>
  <course>359.13</course>
  <speed>0.34</speed>
  <fix>3d</fix>
</trkpt>
<trkpt lat="33.8100725" lon="-118.3938676">
  <ele>-16.016</ele>
  <time>2026-09-02T22:12:51Z</time>
  <course>186.66</course>
  <speed>0.37013511046643494</speed>
  <fix>3d</fix>
</trkpt>
<trkpt lat="33.8100716" lon="-118.3938675">
  <ele>-15.55</ele>
  <time>2026-09-02T22:12:51Z</time>
  <course>359.13</course>
  <speed>0.34</speed>
  <fix>3d</fix>
</trkpt>
<trkpt lat="33.8100728" lon="-118.3938676">
  <ele>-16.042</ele>
  <time>2026-09-02T22:12:51Z</time>
  <course>186.66</course>
  <speed>0.37013511046643494</speed>
  <fix>3d</fix>
</trkpt>
<trkpt lat="33.8100722" lon="-118.3938675">
  <ele>-15.6</ele>
  <time>2026-09-02T22:12:51Z</time>
  <course>359.38</course>
  <speed>0.34</speed>
  <fix>3d</fix>
</trkpt>
<trkpt lat="33.8100731" lon="-118.3938676">
  <ele>-16.066</ele>
  <time>2026-09-02T22:12:51Z</time>
  <course>186.66</course>
  <speed>0.37013511046643494</speed>
  <fix>3d</fix>
</trkpt>
<trkpt lat="33.8100722" lon="-118.3938675">
  <ele>-15.6</ele>
  <time>2026-09-02T22:12:51Z</time>
  <course>359.38</course>
  <speed>0.34</speed>
  <fix>3d</fix>
</trkpt>
<trkpt lat="33.8100734" lon="-118.3938676">
  <ele>-16.089</ele>
  <time>2026-09-02T22:12:51Z</time>
  <course>186.66</course>
  <speed>0.37013511046643494</speed>
  <fix>3d</fix>
</trkpt>
<trkpt lat="33.8100728" lon="-118.3938675">
  <ele>-15.65</ele>
  <time>2026-09-02T22:12:51Z</time>
  <course>359.64</course>
  <speed>0.35</speed>
  <fix>3d</fix>
</trkpt>
<trkpt lat="33.8100737" lon="-118.3938676">
  <ele>-16.108</ele>
  <time>2026-09-02T22:12:51Z</time>
  <course>186.66</course>
  <speed>0.37013511046643494</speed>
  <fix>3d</fix>
</trkpt>
<trkpt lat="33.8100728" lon="-118.3938675">
  <ele>-15.65</ele>
  <time>2026-09-02T22:12:51Z</time>
  <course>359.64</course>
  <speed>0.35</speed>
  <fix>3d</fix>
</trkpt>
<trkpt lat="33.810074" lon="-118.3938676">
  <ele>-16.123</ele>
  <time>2026-09-02T22:12:51Z</time>
  <course>186.66</course>
  <speed>0.37013511046643494</speed>
  <fix>3d</fix>
</trkpt>
<trkpt lat="33.8100735" lon="-118.3938675">
  <ele>-15.69</ele>
  <time>2026-09-02T22:12:51Z</time>
  <course>359.9</course>
  <speed>0.35</speed>
  <fix>3d</fix>
</trkpt>
<trkpt lat="33.8100743" lon="-118.3938676">
  <ele>-16.134</ele>
  <time>2026-09-02T22:12:51Z</time>
  <course>186.66</course>
  <speed>0.37013511046643494</speed>
  <fix>3d</fix>
</trkpt>
<trkpt lat="33.8100735" lon="-118.3938675">
  <ele>-15.69</ele>
  <time>2026-09-02T22:12:51Z</time>
  <course>359.9</course>
  <speed>0.35</speed>
  <fix>3d</fix>
</trkpt>
<trkpt lat="33.8100747" lon="-118.3938676">
  <ele>-16.14</ele>
  <time>2026-09-02T22:12:51Z</time>
  <course>186.66</course>
  <speed>0.37013511046643494</speed>
  <fix>3d</fix>
</trkpt>
<trkpt lat="33.8100741" lon="-118.3938675">
  <ele>-15.72</ele>
  <time>2026-09-02T22:12:51Z</time>
  <course>0.09</course>
  <speed>0.35</speed>
  <fix>3d</fix>
</trkpt>
<trkpt lat="33.810075" lon="-118.3938676">
  <ele>-16.144</ele>
  <time>2026-09-02T22:12:51Z</time>
  <course>186.66</course>
  <speed>0.37013511046643494</speed>
  <fix>3d</fix>
</trkpt>
<trkpt lat="33.8100741" lon="-118.3938675">
  <ele>-15.72</ele>
  <time>2026-09-02T22:12:51Z</time>
  <course>0.09</course>
  <speed>0.35</speed>
  <fix>3d</fix>
</trkpt>
<trkpt lat="33.8100753" lon="-118.3938676">
  <ele>-16.146</ele>
  <time>2026-09-02T22:12:51Z</time>
  <course>186.66</course>
  <speed>0.38013155617496425</speed>
  <fix>3d</fix>
</trkpt>
<trkpt lat="33.8100747" lon="-118.3938675">
  <ele>-15.74</ele>
  <time>2026-09-02T22:12:51Z</time>
  <course>0.22</course>
  <speed>0.35</speed>
  <fix>3d</fix>
</trkpt>
<trkpt lat="33.8100756" lon="-118.3938676">
  <ele>-16.149</ele>
  <time>2026-09-02T22:12:52Z</time>
  <course>186.66</course>
  <speed>0.38013155617496425</speed>
  <fix>3d</fix>
</trkpt>
<trkpt lat="33.8100747" lon="-118.3938675">
  <ele>-15.74</ele>
  <time>2026-09-02T22:12:52Z</time>
  <course>0.22</course>
  <speed>0.35</speed>
  <fix>3d</fix>
</trkpt>
<trkpt lat="33.8100759" lon="-118.3938676">
  <ele>-16.152</ele>
  <time>2026-09-02T22:12:52Z</time>
  <course>186.66</course>
  <speed>0.38013155617496425</speed>
  <fix>3d</fix>
</trkpt>
<trkpt lat="33.8100754" lon="-118.3938675">
  <ele>-15.74</ele>
  <time>2026-09-02T22:12:52Z</time>
  <course>0.28</course>
  <speed>0.35</speed>
  <fix>3d</fix>
</trkpt>
<trkpt lat="33.8100763" lon="-118.3938676">
  <ele>-16.156</ele>
  <time>2026-09-02T22:12:52Z</time>
  <course>186.66</course>
  <speed>0.38013155617496425</speed>
  <fix>3d</fix>
</trkpt>
<trkpt lat="33.8100754" lon="-118.3938675">
  <ele>-15.74</ele>
  <time>2026-09-02T22:12:52Z</time>
  <course>0.28</course>
  <speed>0.35</speed>
  <fix>3d</fix>
</trkpt>
<trkpt lat="33.8100766" lon="-118.3938676">
  <ele>-16.16</ele>
  <time>2026-09-02T22:12:52Z</time>
  <course>186.66</course>
  <speed>0.38013155617496425</speed>
  <fix>3d</fix>
</trkpt>
<trkpt lat="33.810076" lon="-118.3938675">
  <ele>-15.75</ele>
  <time>2026-09-02T22:12:52Z</time>
  <course>0.31</course>
  <speed>0.35</speed>
  <fix>3d</fix>
</trkpt>
<trkpt lat="33.8100769" lon="-118.3938676">
  <ele>-16.169</ele>
  <time>2026-09-02T22:12:52Z</time>
  <course>186.66</course>
  <speed>0.38013155617496425</speed>
  <fix>3d</fix>
</trkpt>
<trkpt lat="33.810076" lon="-118.3938675">
  <ele>-15.75</ele>
  <time>2026-09-02T22:12:52Z</time>
  <course>0.31</course>
  <speed>0.35</speed>
  <fix>3d</fix>
</trkpt>
<trkpt lat="33.8100772" lon="-118.3938676">
  <ele>-16.184</ele>
  <time>2026-09-02T22:12:52Z</time>
  <course>186.66</course>
  <speed>0.38013155617496425</speed>
  <fix>3d</fix>
</trkpt>
<trkpt lat="33.8100766" lon="-118.3938675">
  <ele>-15.77</ele>
  <time>2026-09-02T22:12:52Z</time>
  <course>0.33</course>
  <speed>0.36</speed>
  <fix>3d</fix>
</trkpt>
<trkpt lat="33.8100775" lon="-118.3938676">
  <ele>-16.204</ele>
  <time>2026-09-02T22:12:52Z</time>
  <course>186.66</course>
  <speed>0.38013155617496425</speed>
  <fix>3d</fix>
</trkpt>
<trkpt lat="33.8100766" lon="-118.3938675">
  <ele>-15.77</ele>
  <time>2026-09-02T22:12:52Z</time>
  <course>0.33</course>
  <speed>0.36</speed>
  <fix>3d</fix>
</trkpt>
<trkpt lat="33.8100779" lon="-118.3938676">
  <ele>-16.225</ele>
  <time>2026-09-02T22:12:52Z</time>
  <course>186.66</course>
  <speed>0.38013155617496425</speed>
  <fix>3d</fix>
</trkpt>
<trkpt lat="33.8100773" lon="-118.3938675">
  <ele>-15.79</ele>
  <time>2026-09-02T22:12:52Z</time>
  <course>0.35</course>
  <speed>0.36</speed>
  <fix>3d</fix>
</trkpt>
<trkpt lat="33.8100782" lon="-118.3938676">
  <ele>-16.248</ele>
  <time>2026-09-02T22:12:52Z</time>
  <course>186.66</course>
  <speed>0.38013155617496425</speed>
  <fix>3d</fix>
</trkpt>
<trkpt lat="33.8100773" lon="-118.3938675">
  <ele>-15.79</ele>
  <time>2026-09-02T22:12:52Z</time>
  <course>0.35</course>
  <speed>0.36</speed>
  <fix>3d</fix>
</trkpt>
<trkpt lat="33.8100785" lon="-118.3938676">
  <ele>-16.273</ele>
  <time>2026-09-02T22:12:52Z</time>
  <course>186.66</course>
  <speed>0.38013155617496425</speed>
  <fix>3d</fix>
</trkpt>
<trkpt lat="33.810078" lon="-118.3938675">
  <ele>-15.84</ele>
  <time>2026-09-02T22:12:52Z</time>
  <course>0.38</course>
  <speed>0.36</speed>
  <fix>3d</fix>
</trkpt>
<trkpt lat="33.8100788" lon="-118.3938676">
  <ele>-16.298</ele>
  <time>2026-09-02T22:12:52Z</time>
  <course>186.66</course>
  <speed>0.3901281840626232</speed>
  <fix>3d</fix>
</trkpt>
<trkpt lat="33.810078" lon="-118.3938675">
  <ele>-15.84</ele>
  <time>2026-09-02T22:12:52Z</time>
  <course>0.38</course>
  <speed>0.36</speed>
  <fix>3d</fix>
</trkpt>
<trkpt lat="33.8100792" lon="-118.3938676">
  <ele>-16.323</ele>
  <time>2026-09-02T22:12:52Z</time>
  <course>186.66</course>
  <speed>0.3901281840626232</speed>
  <fix>3d</fix>
</trkpt>
<trkpt lat="33.8100786" lon="-118.3938675">
  <ele>-15.88</ele>
  <time>2026-09-02T22:12:52Z</time>
  <course>0.4</course>
  <speed>0.36</speed>
  <fix>3d</fix>
</trkpt>
<trkpt lat="33.8100795" lon="-118.3938676">
  <ele>-16.349</ele>
  <time>2026-09-02T22:12:52Z</time>
  <course>186.66</course>
  <speed>0.3901281840626232</speed>
  <fix>3d</fix>
</trkpt>
<trkpt lat="33.8100786" lon="-118.3938675">
  <ele>-15.88</ele>
  <time>2026-09-02T22:12:52Z</time>
  <course>0.4</course>
  <speed>0.36</speed>
  <fix>3d</fix>
</trkpt>
<trkpt lat="33.8100798" lon="-118.3938676">
  <ele>-16.373</ele>
  <time>2026-09-02T22:12:52Z</time>
  <course>186.66</course>
  <speed>0.3901281840626232</speed>
  <fix>3d</fix>
</trkpt>
<trkpt lat="33.8100793" lon="-118.3938675">
  <ele>-15.93</ele>
  <time>2026-09-02T22:12:52Z</time>
  <course>0.47</course>
  <speed>0.36</speed>
  <fix>3d</fix>
</trkpt>
<trkpt lat="33.8100802" lon="-118.3938676">
  <ele>-16.398</ele>
  <time>2026-09-02T22:12:52Z</time>
  <course>186.66</course>
  <speed>0.3901281840626232</speed>
  <fix>3d</fix>
</trkpt>
<trkpt lat="33.8100793" lon="-118.3938675">
  <ele>-15.93</ele>
  <time>2026-09-02T22:12:52Z</time>
  <course>0.47</course>
  <speed>0.36</speed>
  <fix>3d</fix>
</trkpt>
<trkpt lat="33.8100805" lon="-118.3938676">
  <ele>-16.42</ele>
  <time>2026-09-02T22:12:52Z</time>
  <course>186.66</course>
  <speed>0.3901281840626232</speed>
  <fix>3d</fix>
</trkpt>
<trkpt lat="33.81008" lon="-118.3938675">
  <ele>-15.98</ele>
  <time>2026-09-02T22:12:52Z</time>
  <course>0.56</course>
  <speed>0.37</speed>
  <fix>3d</fix>
</trkpt>
<trkpt lat="33.8100808" lon="-118.3938676">
  <ele>-16.441</ele>
  <time>2026-09-02T22:12:52Z</time>
  <course>186.66</course>
  <speed>0.3901281840626232</speed>
  <fix>3d</fix>
</trkpt>
<trkpt lat="33.81008" lon="-118.3938675">
  <ele>-15.98</ele>
  <time>2026-09-02T22:12:52Z</time>
  <course>0.56</course>
  <speed>0.37</speed>
  <fix>3d</fix>
</trkpt>
<trkpt lat="33.8100812" lon="-118.3938676">
  <ele>-16.462</ele>
  <time>2026-09-02T22:12:52Z</time>
  <course>186.66</course>
  <speed>0.3901281840626232</speed>
  <fix>3d</fix>
</trkpt>
<trkpt lat="33.8100806" lon="-118.3938675">
  <ele>-16.02</ele>
  <time>2026-09-02T22:12:52Z</time>
  <course>0.63</course>
  <speed>0.37</speed>
  <fix>3d</fix>
</trkpt>
<trkpt lat="33.8100815" lon="-118.3938676">
  <ele>-16.481</ele>
  <time>2026-09-02T22:12:52Z</time>
  <course>186.66</course>
  <speed>0.3901281840626232</speed>
  <fix>3d</fix>
</trkpt>
<trkpt lat="33.8100806" lon="-118.3938675">
  <ele>-16.02</ele>
  <time>2026-09-02T22:12:52Z</time>
  <course>0.63</course>
  <speed>0.37</speed>
  <fix>3d</fix>
</trkpt>
<trkpt lat="33.8100819" lon="-118.3938676">
  <ele>-16.499</ele>
  <time>2026-09-02T22:12:52Z</time>
  <course>186.66</course>
  <speed>0.3901281840626232</speed>
  <fix>3d</fix>
</trkpt>
<trkpt lat="33.8100813" lon="-118.3938675">
  <ele>-16.07</ele>
  <time>2026-09-02T22:12:52Z</time>
  <course>0.68</course>
  <speed>0.37</speed>
  <fix>3d</fix>
</trkpt>
<trkpt lat="33.8100822" lon="-118.3938676">
  <ele>-16.515</ele>
  <time>2026-09-02T22:12:52Z</time>
  <course>186.66</course>
  <speed>0.37013511046643494</speed>
  <fix>3d</fix>
</trkpt>
<trkpt lat="33.8100813" lon="-118.3938675">
  <ele>-16.07</ele>
  <time>2026-09-02T22:12:52Z</time>
  <course>0.68</course>
  <speed>0.37</speed>
  <fix>3d</fix>
</trkpt>
<trkpt lat="33.8100825" lon="-118.3938676">
  <ele>-16.529</ele>
  <time>2026-09-02T22:12:52Z</time>
  <course>186.66</course>
  <speed>0.37013511046643494</speed>
  <fix>3d</fix>
</trkpt>
<trkpt lat="33.8100819" lon="-118.3938675">
  <ele>-16.1</ele>
  <time>2026-09-02T22:12:52Z</time>
  <course>0.75</course>
  <speed>0.36</speed>
  <fix>3d</fix>
</trkpt>
<trkpt lat="33.8100828" lon="-118.3938676">
  <ele>-16.539</ele>
  <time>2026-09-02T22:12:52Z</time>
  <course>186.66</course>
  <speed>0.37013511046643494</speed>
  <fix>3d</fix>
</trkpt>
<trkpt lat="33.8100819" lon="-118.3938675">
  <ele>-16.1</ele>
  <time>2026-09-02T22:12:52Z</time>
  <course>0.75</course>
  <speed>0.36</speed>
  <fix>3d</fix>
</trkpt>
<trkpt lat="33.8100831" lon="-118.3938676">
  <ele>-16.544</ele>
  <time>2026-09-02T22:12:52Z</time>
  <course>186.66</course>
  <speed>0.38013155617496425</speed>
  <fix>3d</fix>
</trkpt>
<trkpt lat="33.8100826" lon="-118.3938675">
  <ele>-16.11</ele>
  <time>2026-09-02T22:12:52Z</time>
  <course>0.88</course>
  <speed>0.35</speed>
  <fix>3d</fix>
</trkpt>
<trkpt lat="33.8100835" lon="-118.3938676">
  <ele>-16.547</ele>
  <time>2026-09-02T22:12:52Z</time>
  <course>186.66</course>
  <speed>0.38013155617496425</speed>
  <fix>3d</fix>
</trkpt>
<trkpt lat="33.8100826" lon="-118.3938675">
  <ele>-16.11</ele>
  <time>2026-09-02T22:12:52Z</time>
  <course>0.88</course>
  <speed>0.35</speed>
  <fix>3d</fix>
</trkpt>
<trkpt lat="33.8100838" lon="-118.3938676">
  <ele>-16.552</ele>
  <time>2026-09-02T22:12:52Z</time>
  <course>186.66</course>
  <speed>0.38013155617496425</speed>
  <fix>3d</fix>
</trkpt>
<trkpt lat="33.8100833" lon="-118.3938675">
  <ele>-16.13</ele>
  <time>2026-09-02T22:12:52Z</time>
  <course>0.97</course>
  <speed>0.35</speed>
  <fix>3d</fix>
</trkpt>
<trkpt lat="33.8100841" lon="-118.3938676">
  <ele>-16.564</ele>
  <time>2026-09-02T22:12:52Z</time>
  <course>186.66</course>
  <speed>0.3901281840626232</speed>
  <fix>3d</fix>
</trkpt>
<trkpt lat="33.8100833" lon="-118.3938675">
  <ele>-16.13</ele>
  <time>2026-09-02T22:12:52Z</time>
  <course>0.97</course>
  <speed>0.35</speed>
  <fix>3d</fix>
</trkpt>
<trkpt lat="33.8100844" lon="-118.3938676">
  <ele>-16.577</ele>
  <time>2026-09-02T22:12:52Z</time>
  <course>186.66</course>
  <speed>0.3901281840626232</speed>
  <fix>3d</fix>
</trkpt>
<trkpt lat="33.8100839" lon="-118.3938675">
  <ele>-16.15</ele>
  <time>2026-09-02T22:12:52Z</time>
  <course>0.95</course>
  <speed>0.36</speed>
  <fix>3d</fix>
</trkpt>
<trkpt lat="33.8100848" lon="-118.3938676">
  <ele>-16.588</ele>
  <time>2026-09-02T22:12:52Z</time>
  <course>186.66</course>
  <speed>0.3901281840626232</speed>
  <fix>3d</fix>
</trkpt>
<trkpt lat="33.8100839" lon="-118.3938675">
  <ele>-16.15</ele>
  <time>2026-09-02T22:12:52Z</time>
  <course>0.95</course>
  <speed>0.36</speed>
  <fix>3d</fix>
</trkpt>
<trkpt lat="33.8100851" lon="-118.3938676">
  <ele>-16.6</ele>
  <time>2026-09-02T22:12:52Z</time>
  <course>186.66</course>
  <speed>0.3901281840626232</speed>
  <fix>3d</fix>
</trkpt>
<trkpt lat="33.8100845" lon="-118.3938675">
  <ele>-16.17</ele>
  <time>2026-09-02T22:12:52Z</time>
  <course>0.91</course>
  <speed>0.37</speed>
  <fix>3d</fix>
</trkpt>
<trkpt lat="33.8100855" lon="-118.3938676">
  <ele>-16.616</ele>
  <time>2026-09-02T22:12:52Z</time>
  <course>186.66</course>
  <speed>0.4001249804748511</speed>
  <fix>3d</fix>
</trkpt>
<trkpt lat="33.8100845" lon="-118.3938675">
  <ele>-16.17</ele>
  <time>2026-09-02T22:12:52Z</time>
  <course>0.91</course>
  <speed>0.37</speed>
  <fix>3d</fix>
</trkpt>
<trkpt lat="33.8100858" lon="-118.3938676">
  <ele>-16.636</ele>
  <time>2026-09-02T22:12:52Z</time>
  <course>186.66</course>
  <speed>0.3901281840626232</speed>
  <fix>3d</fix>
</trkpt>
<trkpt lat="33.8100852" lon="-118.3938674">
  <ele>-16.2</ele>
  <time>2026-09-02T22:12:52Z</time>
  <course>0.91</course>
  <speed>0.37</speed>
  <fix>3d</fix>
</trkpt>
<trkpt lat="33.8100861" lon="-118.3938676">
  <ele>-16.661</ele>
  <time>2026-09-02T22:12:52Z</time>
  <course>186.66</course>
  <speed>0.37013511046643494</speed>
  <fix>3d</fix>
</trkpt>
<trkpt lat="33.8100852" lon="-118.3938674">
  <ele>-16.2</ele>
  <time>2026-09-02T22:12:52Z</time>
  <course>0.91</course>
  <speed>0.37</speed>
  <fix>3d</fix>
</trkpt>
<trkpt lat="33.8100864" lon="-118.3938676">
  <ele>-16.686</ele>
  <time>2026-09-02T22:12:52Z</time>
  <course>186.66</course>
  <speed>0.38013155617496425</speed>
  <fix>3d</fix>
</trkpt>
<trkpt lat="33.8100859" lon="-118.3938674">
  <ele>-16.24</ele>
  <time>2026-09-02T22:12:52Z</time>
  <course>0.91</course>
  <speed>0.36</speed>
  <fix>3d</fix>
</trkpt>
<trkpt lat="33.8100868" lon="-118.3938676">
  <ele>-16.71</ele>
  <time>2026-09-02T22:12:52Z</time>
  <course>186.66</course>
  <speed>0.38013155617496425</speed>
  <fix>3d</fix>
</trkpt>
<trkpt lat="33.8100859" lon="-118.3938674">
  <ele>-16.24</ele>
  <time>2026-09-02T22:12:52Z</time>
  <course>0.91</course>
  <speed>0.36</speed>
  <fix>3d</fix>
</trkpt>
<trkpt lat="33.8100871" lon="-118.3938676">
  <ele>-16.732</ele>
  <time>2026-09-02T22:12:52Z</time>
  <course>186.66</course>
  <speed>0.3901281840626232</speed>
  <fix>3d</fix>
</trkpt>
<trkpt lat="33.8100866" lon="-118.3938674">
  <ele>-16.28</ele>
  <time>2026-09-02T22:12:52Z</time>
  <course>0.81</course>
  <speed>0.36</speed>
  <fix>3d</fix>
</trkpt>
<trkpt lat="33.8100874" lon="-118.3938676">
  <ele>-16.75</ele>
  <time>2026-09-02T22:12:52Z</time>
  <course>186.66</course>
  <speed>0.3901281840626232</speed>
  <fix>3d</fix>
</trkpt>
<trkpt lat="33.8100866" lon="-118.3938674">
  <ele>-16.28</ele>
  <time>2026-09-02T22:12:52Z</time>
  <course>0.81</course>
  <speed>0.36</speed>
  <fix>3d</fix>
</trkpt>
<trkpt lat="33.8100878" lon="-118.3938676">
  <ele>-16.762</ele>
  <time>2026-09-02T22:12:52Z</time>
  <course>186.66</course>
  <speed>0.3901281840626232</speed>
  <fix>3d</fix>
</trkpt>
<trkpt lat="33.8100872" lon="-118.3938674">
  <ele>-16.33</ele>
  <time>2026-09-02T22:12:52Z</time>
  <course>0.6</course>
  <speed>0.37</speed>
  <fix>3d</fix>
</trkpt>
<trkpt lat="33.8100881" lon="-118.3938676">
  <ele>-16.771</ele>
  <time>2026-09-02T22:12:52Z</time>
  <course>186.66</course>
  <speed>0.4001249804748511</speed>
  <fix>3d</fix>
</trkpt>
<trkpt lat="33.8100872" lon="-118.3938674">
  <ele>-16.33</ele>
  <time>2026-09-02T22:12:52Z</time>
  <course>0.6</course>
  <speed>0.37</speed>
  <fix>3d</fix>
</trkpt>
<trkpt lat="33.8100885" lon="-118.3938676">
  <ele>-16.781</ele>
  <time>2026-09-02T22:12:52Z</time>
  <course>186.66</course>
  <speed>0.4001249804748511</speed>
  <fix>3d</fix>
</trkpt>
<trkpt lat="33.8100879" lon="-118.3938674">
  <ele>-16.35</ele>
  <time>2026-09-02T22:12:52Z</time>
  <course>0.4</course>
  <speed>0.37</speed>
  <fix>3d</fix>
</trkpt>
<trkpt lat="33.8100888" lon="-118.3938676">
  <ele>-16.791</ele>
  <time>2026-09-02T22:12:52Z</time>
  <course>186.66</course>
  <speed>0.4001249804748511</speed>
  <fix>3d</fix>
</trkpt>
<trkpt lat="33.8100879" lon="-118.3938674">
  <ele>-16.35</ele>
  <time>2026-09-02T22:12:52Z</time>
  <course>0.4</course>
  <speed>0.37</speed>
  <fix>3d</fix>
</trkpt>
<trkpt lat="33.8100892" lon="-118.3938676">
  <ele>-16.801</ele>
  <time>2026-09-02T22:12:52Z</time>
  <course>186.66</course>
  <speed>0.41012193308819755</speed>
  <fix>3d</fix>
</trkpt>
<trkpt lat="33.8100886" lon="-118.3938674">
  <ele>-16.37</ele>
  <time>2026-09-02T22:12:52Z</time>
  <course>0.26</course>
  <speed>0.38</speed>
  <fix>3d</fix>
</trkpt>
<trkpt lat="33.8100895" lon="-118.3938676">
  <ele>-16.811</ele>
  <time>2026-09-02T22:12:52Z</time>
  <course>186.66</course>
  <speed>0.41012193308819755</speed>
  <fix>3d</fix>
</trkpt>
<trkpt lat="33.8100886" lon="-118.3938674">
  <ele>-16.37</ele>
  <time>2026-09-02T22:12:52Z</time>
  <course>0.26</course>
  <speed>0.38</speed>
  <fix>3d</fix>
</trkpt>
<trkpt lat="33.8100899" lon="-118.3938676">
  <ele>-16.823</ele>
  <time>2026-09-02T22:12:52Z</time>
  <course>186.66</course>
  <speed>0.41012193308819755</speed>
  <fix>3d</fix>
</trkpt>
<trkpt lat="33.8100892" lon="-118.3938674">
  <ele>-16.4</ele>
  <time>2026-09-02T22:12:52Z</time>
  <course>0.16</course>
  <speed>0.38</speed>
  <fix>3d</fix>
</trkpt>
<trkpt lat="33.8100902" lon="-118.3938676">
  <ele>-16.834</ele>
  <time>2026-09-02T22:12:52Z</time>
  <course>186.66</course>
  <speed>0.41012193308819755</speed>
  <fix>3d</fix>
</trkpt>
<trkpt lat="33.8100892" lon="-118.3938674">
  <ele>-16.4</ele>
  <time>2026-09-02T22:12:52Z</time>
  <course>0.16</course>
  <speed>0.38</speed>
  <fix>3d</fix>
</trkpt>
<trkpt lat="33.8100906" lon="-118.3938676">
  <ele>-16.845</ele>
  <time>2026-09-02T22:12:52Z</time>
  <course>186.66</course>
  <speed>0.41012193308819755</speed>
  <fix>3d</fix>
</trkpt>
<trkpt lat="33.8100899" lon="-118.3938674">
  <ele>-16.42</ele>
  <time>2026-09-02T22:12:52Z</time>
  <course>0.1</course>
  <speed>0.39</speed>
  <fix>3d</fix>
</trkpt>
<trkpt lat="33.8100909" lon="-118.3938676">
  <ele>-16.854</ele>
  <time>2026-09-02T22:12:52Z</time>
  <course>186.66</course>
  <speed>0.4201190307520001</speed>
  <fix>3d</fix>
</trkpt>
<trkpt lat="33.8100899" lon="-118.3938674">
  <ele>-16.42</ele>
  <time>2026-09-02T22:12:52Z</time>
  <course>0.1</course>
  <speed>0.39</speed>
  <fix>3d</fix>
</trkpt>
<trkpt lat="33.8100913" lon="-118.3938676">
  <ele>-16.863</ele>
  <time>2026-09-02T22:12:52Z</time>
  <course>186.66</course>
  <speed>0.4201190307520001</speed>
  <fix>3d</fix>
</trkpt>
<trkpt lat="33.8100906" lon="-118.3938674">
  <ele>-16.44</ele>
  <time>2026-09-02T22:12:52Z</time>
  <course>0.08</course>
  <speed>0.39</speed>
  <fix>3d</fix>
</trkpt>
<trkpt lat="33.8100916" lon="-118.3938676">
  <ele>-16.871</ele>
  <time>2026-09-02T22:12:52Z</time>
  <course>186.66</course>
  <speed>0.4201190307520001</speed>
  <fix>3d</fix>
</trkpt>
<trkpt lat="33.8100906" lon="-118.3938674">
  <ele>-16.44</ele>
  <time>2026-09-02T22:12:52Z</time>
  <course>0.08</course>
  <speed>0.39</speed>
  <fix>3d</fix>
</trkpt>
<trkpt lat="33.810092" lon="-118.3938676">
  <ele>-16.878</ele>
  <time>2026-09-02T22:12:52Z</time>
  <course>186.66</course>
  <speed>0.4201190307520001</speed>
  <fix>3d</fix>
</trkpt>
<trkpt lat="33.8100914" lon="-118.3938674">
  <ele>-16.46</ele>
  <time>2026-09-02T22:12:52Z</time>
  <course>0.1</course>
  <speed>0.39</speed>
  <fix>3d</fix>
</trkpt>
<trkpt lat="33.8100923" lon="-118.3938676">
  <ele>-16.886</ele>
  <time>2026-09-02T22:12:52Z</time>
  <course>186.66</course>
  <speed>0.4201190307520001</speed>
  <fix>3d</fix>
</trkpt>
<trkpt lat="33.8100914" lon="-118.3938674">
  <ele>-16.46</ele>
  <time>2026-09-02T22:12:52Z</time>
  <course>0.1</course>
  <speed>0.39</speed>
  <fix>3d</fix>
</trkpt>
<trkpt lat="33.8100927" lon="-118.3938676">
  <ele>-16.895</ele>
  <time>2026-09-02T22:12:52Z</time>
  <course>186.66</course>
  <speed>0.4201190307520001</speed>
  <fix>3d</fix>
</trkpt>
<trkpt lat="33.8100921" lon="-118.3938674">
  <ele>-16.47</ele>
  <time>2026-09-02T22:12:52Z</time>
  <course>0.14</course>
  <speed>0.4</speed>
  <fix>3d</fix>
</trkpt>
<trkpt lat="33.8100931" lon="-118.3938676">
  <ele>-16.907</ele>
  <time>2026-09-02T22:12:52Z</time>
  <course>186.66</course>
  <speed>0.4201190307520001</speed>
  <fix>3d</fix>
</trkpt>
<trkpt lat="33.8100921" lon="-118.3938674">
  <ele>-16.47</ele>
  <time>2026-09-02T22:12:52Z</time>
  <course>0.14</course>
  <speed>0.4</speed>
  <fix>3d</fix>
</trkpt>
<trkpt lat="33.8100934" lon="-118.3938676">
  <ele>-16.923</ele>
  <time>2026-09-02T22:12:52Z</time>
  <course>186.66</course>
  <speed>0.4201190307520001</speed>
  <fix>3d</fix>
</trkpt>
<trkpt lat="33.8100928" lon="-118.3938674">
  <ele>-16.49</ele>
  <time>2026-09-02T22:12:52Z</time>
  <course>0.14</course>
  <speed>0.4</speed>
  <fix>3d</fix>
</trkpt>
<trkpt lat="33.8100938" lon="-118.3938676">
  <ele>-16.943</ele>
  <time>2026-09-02T22:12:52Z</time>
  <course>186.66</course>
  <speed>0.4201190307520001</speed>
  <fix>3d</fix>
</trkpt>
<trkpt lat="33.8100928" lon="-118.3938674">
  <ele>-16.49</ele>
  <time>2026-09-02T22:12:52Z</time>
  <course>0.14</course>
  <speed>0.4</speed>
  <fix>3d</fix>
</trkpt>
<trkpt lat="33.8100942" lon="-118.3938676">
  <ele>-16.962</ele>
  <time>2026-09-02T22:12:52Z</time>
  <course>186.66</course>
  <speed>0.4201190307520001</speed>
  <fix>3d</fix>
</trkpt>
<trkpt lat="33.8100935" lon="-118.3938674">
  <ele>-16.52</ele>
  <time>2026-09-02T22:12:52Z</time>
  <course>0.11</course>
  <speed>0.4</speed>
  <fix>3d</fix>
</trkpt>
<trkpt lat="33.8100945" lon="-118.3938676">
  <ele>-16.981</ele>
  <time>2026-09-02T22:12:52Z</time>
  <course>186.66</course>
  <speed>0.4301162633521314</speed>
  <fix>3d</fix>
</trkpt>
<trkpt lat="33.8100935" lon="-118.3938674">
  <ele>-16.52</ele>
  <time>2026-09-02T22:12:52Z</time>
  <course>0.11</course>
  <speed>0.4</speed>
  <fix>3d</fix>
</trkpt>
<trkpt lat="33.8100949" lon="-118.3938676">
  <ele>-17.001</ele>
  <time>2026-09-02T22:12:52Z</time>
  <course>186.66</course>
  <speed>0.4301162633521314</speed>
  <fix>3d</fix>
</trkpt>
<trkpt lat="33.8100943" lon="-118.3938674">
  <ele>-16.56</ele>
  <time>2026-09-02T22:12:52Z</time>
  <course>0.1</course>
  <speed>0.4</speed>
  <fix>3d</fix>
</trkpt>
<trkpt lat="33.8100953" lon="-118.3938676">
  <ele>-17.021</ele>
  <time>2026-09-02T22:12:52Z</time>
  <course>186.66</course>
  <speed>0.4301162633521314</speed>
  <fix>3d</fix>
</trkpt>
<trkpt lat="33.8100943" lon="-118.3938674">
  <ele>-16.56</ele>
  <time>2026-09-02T22:12:52Z</time>
  <course>0.1</course>
  <speed>0.4</speed>
  <fix>3d</fix>
</trkpt>
<trkpt lat="33.8100956" lon="-118.3938676">
  <ele>-17.046</ele>
  <time>2026-09-02T22:12:52Z</time>
  <course>186.66</course>
  <speed>0.4301162633521314</speed>
  <fix>3d</fix>
</trkpt>
<trkpt lat="33.810095" lon="-118.3938674">
  <ele>-16.6</ele>
  <time>2026-09-02T22:12:52Z</time>
  <course>0.11</course>
  <speed>0.4</speed>
  <fix>3d</fix>
</trkpt>
<trkpt lat="33.810096" lon="-118.3938676">
  <ele>-17.074</ele>
  <time>2026-09-02T22:12:52Z</time>
  <course>186.66</course>
  <speed>0.4301162633521314</speed>
  <fix>3d</fix>
</trkpt>
<trkpt lat="33.810095" lon="-118.3938674">
  <ele>-16.6</ele>
  <time>2026-09-02T22:12:52Z</time>
  <course>0.11</course>
  <speed>0.4</speed>
  <fix>3d</fix>
</trkpt>
<trkpt lat="33.8100964" lon="-118.3938676">
  <ele>-17.103</ele>
  <time>2026-09-02T22:12:52Z</time>
  <course>186.66</course>
  <speed>0.4301162633521314</speed>
  <fix>3d</fix>
</trkpt>
<trkpt lat="33.8100958" lon="-118.3938674">
  <ele>-16.64</ele>
  <time>2026-09-02T22:12:52Z</time>
  <course>0.1</course>
  <speed>0.41</speed>
  <fix>3d</fix>
</trkpt>
<trkpt lat="33.8100967" lon="-118.3938676">
  <ele>-17.129</ele>
  <time>2026-09-02T22:12:52Z</time>
  <course>186.66</course>
  <speed>0.4301162633521314</speed>
  <fix>3d</fix>
</trkpt>
<trkpt lat="33.8100958" lon="-118.3938674">
  <ele>-16.64</ele>
  <time>2026-09-02T22:12:52Z</time>
  <course>0.1</course>
  <speed>0.41</speed>
  <fix>3d</fix>
</trkpt>
<trkpt lat="33.8100971" lon="-118.3938676">
  <ele>-17.152</ele>
  <time>2026-09-02T22:12:52Z</time>
  <course>186.66</course>
  <speed>0.4301162633521314</speed>
  <fix>3d</fix>
</trkpt>
<trkpt lat="33.8100965" lon="-118.3938674">
  <ele>-16.7</ele>
  <time>2026-09-02T22:12:52Z</time>
  <course>0.1</course>
  <speed>0.41</speed>
  <fix>3d</fix>
</trkpt>
<trkpt lat="33.8100975" lon="-118.3938676">
  <ele>-17.174</ele>
  <time>2026-09-02T22:12:52Z</time>
  <course>186.66</course>
  <speed>0.4301162633521314</speed>
  <fix>3d</fix>
</trkpt>
<trkpt lat="33.8100965" lon="-118.3938674">
  <ele>-16.7</ele>
  <time>2026-09-02T22:12:52Z</time>
  <course>0.1</course>
  <speed>0.41</speed>
  <fix>3d</fix>
</trkpt>
<trkpt lat="33.8100979" lon="-118.3938676">
  <ele>-17.195</ele>
  <time>2026-09-02T22:12:52Z</time>
  <course>186.66</course>
  <speed>0.4301162633521314</speed>
  <fix>3d</fix>
</trkpt>
<trkpt lat="33.8100972" lon="-118.3938674">
  <ele>-16.75</ele>
  <time>2026-09-02T22:12:52Z</time>
  <course>0.11</course>
  <speed>0.41</speed>
  <fix>3d</fix>
</trkpt>
<trkpt lat="33.8100982" lon="-118.3938676">
  <ele>-17.215</ele>
  <time>2026-09-02T22:12:52Z</time>
  <course>186.66</course>
  <speed>0.4301162633521314</speed>
  <fix>3d</fix>
</trkpt>
<trkpt lat="33.8100972" lon="-118.3938674">
  <ele>-16.75</ele>
  <time>2026-09-02T22:12:52Z</time>
  <course>0.11</course>
  <speed>0.41</speed>
  <fix>3d</fix>
</trkpt>
<trkpt lat="33.8100986" lon="-118.3938676">
  <ele>-17.237</ele>
  <time>2026-09-02T22:12:52Z</time>
  <course>186.66</course>
  <speed>0.4301162633521314</speed>
  <fix>3d</fix>
</trkpt>
<trkpt lat="33.8100979" lon="-118.3938674">
  <ele>-16.79</ele>
  <time>2026-09-02T22:12:52Z</time>
  <course>0.11</course>
  <speed>0.41</speed>
  <fix>3d</fix>
</trkpt>
<trkpt lat="33.810099" lon="-118.3938676">
  <ele>-17.26</ele>
  <time>2026-09-02T22:12:52Z</time>
  <course>186.66</course>
  <speed>0.4301162633521314</speed>
  <fix>3d</fix>
</trkpt>
<trkpt lat="33.8100979" lon="-118.3938674">
  <ele>-16.79</ele>
  <time>2026-09-02T22:12:52Z</time>
  <course>0.11</course>
  <speed>0.41</speed>
  <fix>3d</fix>
</trkpt>
<trkpt lat="33.8100993" lon="-118.3938676">
  <ele>-17.284</ele>
  <time>2026-09-02T22:12:52Z</time>
  <course>186.66</course>
  <speed>0.4301162633521314</speed>
  <fix>3d</fix>
</trkpt>
<trkpt lat="33.8100987" lon="-118.3938674">
  <ele>-16.83</ele>
  <time>2026-09-02T22:12:52Z</time>
  <course>0.1</course>
  <speed>0.41</speed>
  <fix>3d</fix>
</trkpt>
<trkpt lat="33.8100997" lon="-118.3938676">
  <ele>-17.306</ele>
  <time>2026-09-02T22:12:52Z</time>
  <course>186.66</course>
  <speed>0.44011362169330775</speed>
  <fix>3d</fix>
</trkpt>
<trkpt lat="33.8100987" lon="-118.3938674">
  <ele>-16.83</ele>
  <time>2026-09-02T22:12:52Z</time>
  <course>0.1</course>
  <speed>0.41</speed>
  <fix>3d</fix>
</trkpt>
<trkpt lat="33.8101001" lon="-118.3938676">
  <ele>-17.324</ele>
  <time>2026-09-02T22:12:52Z</time>
  <course>186.66</course>
  <speed>0.44011362169330775</speed>
  <fix>3d</fix>
</trkpt>
<trkpt lat="33.8100994" lon="-118.3938674">
  <ele>-16.86</ele>
  <time>2026-09-02T22:12:52Z</time>
  <course>0.1</course>
  <speed>0.41</speed>
  <fix>3d</fix>
</trkpt>
<trkpt lat="33.8101005" lon="-118.3938676">
  <ele>-17.34</ele>
  <time>2026-09-02T22:12:52Z</time>
  <course>186.66</course>
  <speed>0.44011362169330775</speed>
  <fix>3d</fix>
</trkpt>
<trkpt lat="33.8100994" lon="-118.3938674">
  <ele>-16.86</ele>
  <time>2026-09-02T22:12:52Z</time>
  <course>0.1</course>
  <speed>0.41</speed>
  <fix>3d</fix>
</trkpt>
<trkpt lat="33.8101008" lon="-118.3938676">
  <ele>-17.353</ele>
  <time>2026-09-02T22:12:52Z</time>
  <course>186.66</course>
  <speed>0.44011362169330775</speed>
  <fix>3d</fix>
</trkpt>
<trkpt lat="33.8101002" lon="-118.3938674">
  <ele>-16.91</ele>
  <time>2026-09-02T22:12:52Z</time>
  <course>0.13</course>
  <speed>0.41</speed>
  <fix>3d</fix>
</trkpt>
<trkpt lat="33.8101012" lon="-118.3938676">
  <ele>-17.362</ele>
  <time>2026-09-02T22:12:52Z</time>
  <course>186.66</course>
  <speed>0.44011362169330775</speed>
  <fix>3d</fix>
</trkpt>
<trkpt lat="33.8101002" lon="-118.3938674">
  <ele>-16.91</ele>
  <time>2026-09-02T22:12:52Z</time>
  <course>0.13</course>
  <speed>0.41</speed>
  <fix>3d</fix>
</trkpt>
<trkpt lat="33.8101016" lon="-118.3938676">
  <ele>-17.369</ele>
  <time>2026-09-02T22:12:52Z</time>
  <course>186.66</course>
  <speed>0.41012193308819755</speed>
  <fix>3d</fix>
</trkpt>
<trkpt lat="33.810101" lon="-118.3938674">
  <ele>-16.94</ele>
  <time>2026-09-02T22:12:52Z</time>
  <course>0.15</course>
  <speed>0.41</speed>
  <fix>3d</fix>
</trkpt>
<trkpt lat="33.8101019" lon="-118.3938676">
  <ele>-17.375</ele>
  <time>2026-09-02T22:12:52Z</time>
  <course>186.66</course>
  <speed>0.41012193308819755</speed>
  <fix>3d</fix>
</trkpt>
<trkpt lat="33.810101" lon="-118.3938674">
  <ele>-16.94</ele>
  <time>2026-09-02T22:12:52Z</time>
  <course>0.15</course>
  <speed>0.41</speed>
  <fix>3d</fix>
</trkpt>
<trkpt lat="33.8101023" lon="-118.3938676">
  <ele>-17.376</ele>
  <time>2026-09-02T22:12:52Z</time>
  <course>186.66</course>
  <speed>0.41012193308819755</speed>
  <fix>3d</fix>
</trkpt>
<trkpt lat="33.8101017" lon="-118.3938674">
  <ele>-16.95</ele>
  <time>2026-09-02T22:12:52Z</time>
  <course>0.19</course>
  <speed>0.4</speed>
  <fix>3d</fix>
</trkpt>
<trkpt lat="33.8101026" lon="-118.3938676">
  <ele>-17.377</ele>
  <time>2026-09-02T22:12:52Z</time>
  <course>186.66</course>
  <speed>0.4201190307520001</speed>
  <fix>3d</fix>
</trkpt>
<trkpt lat="33.8101017" lon="-118.3938674">
  <ele>-16.95</ele>
  <time>2026-09-02T22:12:52Z</time>
  <course>0.19</course>
  <speed>0.4</speed>
  <fix>3d</fix>
</trkpt>
<trkpt lat="33.810103" lon="-118.3938676">
  <ele>-17.379</ele>
  <time>2026-09-02T22:12:52Z</time>
  <course>186.65</course>
  <speed>0.4201190307520001</speed>
  <fix>3d</fix>
</trkpt>
<trkpt lat="33.8101024" lon="-118.3938674">
  <ele>-16.96</ele>
  <time>2026-09-02T22:12:52Z</time>
  <course>0.24</course>
  <speed>0.39</speed>
  <fix>3d</fix>
</trkpt>
<trkpt lat="33.8101034" lon="-118.3938676">
  <ele>-17.382</ele>
  <time>2026-09-02T22:12:52Z</time>
  <course>186.65</course>
  <speed>0.4201190307520001</speed>
  <fix>3d</fix>
</trkpt>
<trkpt lat="33.8101024" lon="-118.3938674">
  <ele>-16.96</ele>
  <time>2026-09-02T22:12:52Z</time>
  <course>0.24</course>
  <speed>0.39</speed>
  <fix>3d</fix>
</trkpt>
<trkpt lat="33.8101037" lon="-118.3938676">
  <ele>-17.39</ele>
  <time>2026-09-02T22:12:52Z</time>
  <course>186.65</course>
  <speed>0.4301162633521314</speed>
  <fix>3d</fix>
</trkpt>
<trkpt lat="33.8101031" lon="-118.3938674">
  <ele>-16.96</ele>
  <time>2026-09-02T22:12:52Z</time>
  <course>0.21</course>
  <speed>0.4</speed>
  <fix>3d</fix>
</trkpt>
<trkpt lat="33.8101041" lon="-118.3938676">
  <ele>-17.404</ele>
  <time>2026-09-02T22:12:52Z</time>
  <course>186.65</course>
  <speed>0.4301162633521314</speed>
  <fix>3d</fix>
</trkpt>
<trkpt lat="33.8101031" lon="-118.3938674">
  <ele>-16.96</ele>
  <time>2026-09-02T22:12:52Z</time>
  <course>0.21</course>
  <speed>0.4</speed>
  <fix>3d</fix>
</trkpt>
<trkpt lat="33.8101045" lon="-118.3938676">
  <ele>-17.418</ele>
  <time>2026-09-02T22:12:52Z</time>
  <course>186.66</course>
  <speed>0.4301162633521314</speed>
  <fix>3d</fix>
</trkpt>
<trkpt lat="33.8101038" lon="-118.3938674">
  <ele>-16.98</ele>
  <time>2026-09-02T22:12:52Z</time>
  <course>0.13</course>
  <speed>0.4</speed>
  <fix>3d</fix>
</trkpt>
<trkpt lat="33.8101049" lon="-118.3938676">
  <ele>-17.431</ele>
  <time>2026-09-02T22:12:52Z</time>
  <course>186.66</course>
  <speed>0.44011362169330775</speed>
  <fix>3d</fix>
</trkpt>
<trkpt lat="33.8101038" lon="-118.3938674">
  <ele>-16.98</ele>
  <time>2026-09-02T22:12:52Z</time>
  <course>0.13</course>
  <speed>0.4</speed>
  <fix>3d</fix>
</trkpt>
<trkpt lat="33.8101052" lon="-118.3938676">
  <ele>-17.446</ele>
  <time>2026-09-02T22:12:52Z</time>
  <course>186.66</course>
  <speed>0.44011362169330775</speed>
  <fix>3d</fix>
</trkpt>
<trkpt lat="33.8101046" lon="-118.3938674">
  <ele>-17.0</ele>
  <time>2026-09-02T22:12:52Z</time>
  <course>0.08</course>
  <speed>0.41</speed>
  <fix>3d</fix>
</trkpt>
<trkpt lat="33.8101056" lon="-118.3938676">
  <ele>-17.461</ele>
  <time>2026-09-02T22:12:52Z</time>
  <course>186.66</course>
  <speed>0.44011362169330775</speed>
  <fix>3d</fix>
</trkpt>
<trkpt lat="33.8101046" lon="-118.3938674">
  <ele>-17.0</ele>
  <time>2026-09-02T22:12:52Z</time>
  <course>0.08</course>
  <speed>0.41</speed>
  <fix>3d</fix>
</trkpt>
<trkpt lat="33.810106" lon="-118.3938676">
  <ele>-17.481</ele>
  <time>2026-09-02T22:12:52Z</time>
  <course>186.66</course>
  <speed>0.44011362169330775</speed>
  <fix>3d</fix>
</trkpt>
<trkpt lat="33.8101053" lon="-118.3938674">
  <ele>-17.03</ele>
  <time>2026-09-02T22:12:52Z</time>
  <course>0.08</course>
  <speed>0.42</speed>
  <fix>3d</fix>
</trkpt>
<trkpt lat="33.8101064" lon="-118.3938676">
  <ele>-17.503</ele>
  <time>2026-09-02T22:12:52Z</time>
  <course>186.66</course>
  <speed>0.450111097397076</speed>
  <fix>3d</fix>
</trkpt>
<trkpt lat="33.8101053" lon="-118.3938674">
  <ele>-17.03</ele>
  <time>2026-09-02T22:12:52Z</time>
  <course>0.08</course>
  <speed>0.42</speed>
  <fix>3d</fix>
</trkpt>
<trkpt lat="33.8101068" lon="-118.3938676">
  <ele>-17.529</ele>
  <time>2026-09-02T22:12:52Z</time>
  <course>186.66</course>
  <speed>0.450111097397076</speed>
  <fix>3d</fix>
</trkpt>
<trkpt lat="33.8101061" lon="-118.3938674">
  <ele>-17.06</ele>
  <time>2026-09-02T22:12:52Z</time>
  <course>0.07</course>
  <speed>0.42</speed>
  <fix>3d</fix>
</trkpt>
<trkpt lat="33.8101071" lon="-118.3938676">
  <ele>-17.559</ele>
  <time>2026-09-02T22:12:52Z</time>
  <course>186.66</course>
  <speed>0.450111097397076</speed>
  <fix>3d</fix>
</trkpt>
<trkpt lat="33.8101061" lon="-118.3938674">
  <ele>-17.06</ele>
  <time>2026-09-02T22:12:52Z</time>
  <course>0.07</course>
  <speed>0.42</speed>
  <fix>3d</fix>
</trkpt>
<trkpt lat="33.8101075" lon="-118.3938676">
  <ele>-17.589</ele>
  <time>2026-09-02T22:12:52Z</time>
  <course>186.66</course>
  <speed>0.450111097397076</speed>
  <fix>3d</fix>
</trkpt>
<trkpt lat="33.8101068" lon="-118.3938674">
  <ele>-17.11</ele>
  <time>2026-09-02T22:12:52Z</time>
  <course>0.05</course>
  <speed>0.42</speed>
  <fix>3d</fix>
</trkpt>
<trkpt lat="33.8101079" lon="-118.3938676">
  <ele>-17.618</ele>
  <time>2026-09-02T22:12:52Z</time>
  <course>186.66</course>
  <speed>0.450111097397076</speed>
  <fix>3d</fix>
</trkpt>
<trkpt lat="33.8101068" lon="-118.3938674">
  <ele>-17.11</ele>
  <time>2026-09-02T22:12:52Z</time>
  <course>0.05</course>
  <speed>0.42</speed>
  <fix>3d</fix>
</trkpt>
<trkpt lat="33.8101083" lon="-118.3938676">
  <ele>-17.644</ele>
  <time>2026-09-02T22:12:52Z</time>
  <course>186.66</course>
  <speed>0.450111097397076</speed>
  <fix>3d</fix>
</trkpt>
<trkpt lat="33.8101076" lon="-118.3938674">
  <ele>-17.16</ele>
  <time>2026-09-02T22:12:52Z</time>
  <course>0.05</course>
  <speed>0.43</speed>
  <fix>3d</fix>
</trkpt>
<trkpt lat="33.8101087" lon="-118.3938676">
  <ele>-17.667</ele>
  <time>2026-09-02T22:12:52Z</time>
  <course>186.66</course>
  <speed>0.450111097397076</speed>
  <fix>3d</fix>
</trkpt>
<trkpt lat="33.8101076" lon="-118.3938674">
  <ele>-17.16</ele>
  <time>2026-09-02T22:12:52Z</time>
  <course>0.05</course>
  <speed>0.43</speed>
  <fix>3d</fix>
</trkpt>
<trkpt lat="33.8101091" lon="-118.3938676">
  <ele>-17.689</ele>
  <time>2026-09-02T22:12:52Z</time>
  <course>186.66</course>
  <speed>0.450111097397076</speed>
  <fix>3d</fix>
</trkpt>
<trkpt lat="33.8101084" lon="-118.3938674">
  <ele>-17.21</ele>
  <time>2026-09-02T22:12:52Z</time>
  <course>0.07</course>
  <speed>0.43</speed>
  <fix>3d</fix>
</trkpt>
<trkpt lat="33.8101095" lon="-118.3938676">
  <ele>-17.707</ele>
  <time>2026-09-02T22:12:52Z</time>
  <course>186.66</course>
  <speed>0.450111097397076</speed>
  <fix>3d</fix>
</trkpt>
<trkpt lat="33.8101084" lon="-118.3938674">
  <ele>-17.21</ele>
  <time>2026-09-02T22:12:52Z</time>
  <course>0.07</course>
  <speed>0.43</speed>
  <fix>3d</fix>
</trkpt>
<trkpt lat="33.8101098" lon="-118.3938676">
  <ele>-17.727</ele>
  <time>2026-09-02T22:12:52Z</time>
  <course>186.66</course>
  <speed>0.450111097397076</speed>
  <fix>3d</fix>
</trkpt>
<trkpt lat="33.8101092" lon="-118.3938673">
  <ele>-17.26</ele>
  <time>2026-09-02T22:12:52Z</time>
  <course>0.09</course>
  <speed>0.43</speed>
  <fix>3d</fix>
</trkpt>
<trkpt lat="33.8101102" lon="-118.3938676">
  <ele>-17.747</ele>
  <time>2026-09-02T22:12:52Z</time>
  <course>186.66</course>
  <speed>0.450111097397076</speed>
  <fix>3d</fix>
</trkpt>
<trkpt lat="33.8101092" lon="-118.3938673">
  <ele>-17.26</ele>
  <time>2026-09-02T22:12:52Z</time>
  <course>0.09</course>
  <speed>0.43</speed>
  <fix>3d</fix>
</trkpt>
<trkpt lat="33.8101106" lon="-118.3938676">
  <ele>-17.767</ele>
  <time>2026-09-02T22:12:52Z</time>
  <course>186.66</course>
  <speed>0.450111097397076</speed>
  <fix>3d</fix>
</trkpt>
<trkpt lat="33.8101099" lon="-118.3938673">
  <ele>-17.3</ele>
  <time>2026-09-02T22:12:52Z</time>
  <course>0.01</course>
  <speed>0.43</speed>
  <fix>3d</fix>
</trkpt>
<trkpt lat="33.810111" lon="-118.3938676">
  <ele>-17.786</ele>
  <time>2026-09-02T22:12:52Z</time>
  <course>186.66</course>
  <speed>0.46010868281309364</speed>
  <fix>3d</fix>
</trkpt>
<trkpt lat="33.8101099" lon="-118.3938673">
  <ele>-17.3</ele>
  <time>2026-09-02T22:12:52Z</time>
  <course>0.01</course>
  <speed>0.43</speed>
  <fix>3d</fix>
</trkpt>
<trkpt lat="33.8101114" lon="-118.3938676">
  <ele>-17.806</ele>
  <time>2026-09-02T22:12:52Z</time>
  <course>186.66</course>
  <speed>0.46010868281309364</speed>
  <fix>3d</fix>
</trkpt>
<trkpt lat="33.8101108" lon="-118.3938673">
  <ele>-17.34</ele>
  <time>2026-09-02T22:12:52Z</time>
  <course>359.8</course>
  <speed>0.43</speed>
  <fix>3d</fix>
</trkpt>
<trkpt lat="33.8101118" lon="-118.3938676">
  <ele>-17.822</ele>
  <time>2026-09-02T22:12:52Z</time>
  <course>186.66</course>
  <speed>0.46010868281309364</speed>
  <fix>3d</fix>
</trkpt>
<trkpt lat="33.8101108" lon="-118.3938673">
  <ele>-17.34</ele>
  <time>2026-09-02T22:12:52Z</time>
  <course>359.8</course>
  <speed>0.43</speed>
  <fix>3d</fix>
</trkpt>
<trkpt lat="33.8101122" lon="-118.3938675">
  <ele>-17.836</ele>
  <time>2026-09-02T22:12:52Z</time>
  <course>186.66</course>
  <speed>0.46010868281309364</speed>
  <fix>3d</fix>
</trkpt>
<trkpt lat="33.8101116" lon="-118.3938673">
  <ele>-17.37</ele>
  <time>2026-09-02T22:12:52Z</time>
  <course>359.57</course>
  <speed>0.43</speed>
  <fix>3d</fix>
</trkpt>
<trkpt lat="33.8101126" lon="-118.3938675">
  <ele>-17.849</ele>
  <time>2026-09-02T22:12:52Z</time>
  <course>186.66</course>
  <speed>0.46010868281309364</speed>
  <fix>3d</fix>
</trkpt>
<trkpt lat="33.8101116" lon="-118.3938673">
  <ele>-17.37</ele>
  <time>2026-09-02T22:12:52Z</time>
  <course>359.57</course>
  <speed>0.43</speed>
  <fix>3d</fix>
</trkpt>
<trkpt lat="33.810113" lon="-118.3938675">
  <ele>-17.862</ele>
  <time>2026-09-02T22:12:52Z</time>
  <course>186.66</course>
  <speed>0.46010868281309364</speed>
  <fix>3d</fix>
</trkpt>
<trkpt lat="33.8101123" lon="-118.3938673">
  <ele>-17.4</ele>
  <time>2026-09-02T22:12:52Z</time>
  <course>359.38</course>
  <speed>0.43</speed>
  <fix>3d</fix>
</trkpt>
<trkpt lat="33.8101134" lon="-118.3938675">
  <ele>-17.872</ele>
  <time>2026-09-02T22:12:52Z</time>
  <course>186.66</course>
  <speed>0.4604345773288535</speed>
  <fix>3d</fix>
</trkpt>
<trkpt lat="33.8101123" lon="-118.3938673">
  <ele>-17.4</ele>
  <time>2026-09-02T22:12:52Z</time>
  <course>359.38</course>
  <speed>0.43</speed>
  <fix>3d</fix>
</trkpt>
<trkpt lat="33.8101138" lon="-118.3938675">
  <ele>-17.881</ele>
  <time>2026-09-02T22:12:52Z</time>
  <course>186.66</course>
  <speed>0.46010868281309364</speed>
  <fix>3d</fix>
</trkpt>
<trkpt lat="33.810113" lon="-118.3938673">
  <ele>-17.43</ele>
  <time>2026-09-02T22:12:52Z</time>
  <course>359.26</course>
  <speed>0.43</speed>
  <fix>3d</fix>
</trkpt>
<trkpt lat="33.8101142" lon="-118.3938675">
  <ele>-17.888</ele>
  <time>2026-09-02T22:12:52Z</time>
  <course>186.66</course>
  <speed>0.4604345773288535</speed>
  <fix>3d</fix>
</trkpt>
<trkpt lat="33.810113" lon="-118.3938673">
  <ele>-17.43</ele>
  <time>2026-09-02T22:12:52Z</time>
  <course>359.26</course>
  <speed>0.43</speed>
  <fix>3d</fix>
</trkpt>
<trkpt lat="33.8101146" lon="-118.3938675">
  <ele>-17.894</ele>
  <time>2026-09-02T22:12:52Z</time>
  <course>186.66</course>
  <speed>0.46010868281309364</speed>
  <fix>3d</fix>
</trkpt>
<trkpt lat="33.8101139" lon="-118.3938673">
  <ele>-17.45</ele>
  <time>2026-09-02T22:12:52Z</time>
  <course>359.18</course>
  <speed>0.43</speed>
  <fix>3d</fix>
</trkpt>
<trkpt lat="33.810115" lon="-118.3938675">
  <ele>-17.899</ele>
  <time>2026-09-02T22:12:52Z</time>
  <course>186.66</course>
  <speed>0.4604345773288535</speed>
  <fix>3d</fix>
</trkpt>
<trkpt lat="33.8101139" lon="-118.3938673">
  <ele>-17.45</ele>
  <time>2026-09-02T22:12:52Z</time>
  <course>359.18</course>
  <speed>0.43</speed>
  <fix>3d</fix>
</trkpt>
<trkpt lat="33.8101154" lon="-118.3938675">
  <ele>-17.905</ele>
  <time>2026-09-02T22:12:52Z</time>
  <course>186.66</course>
  <speed>0.46010868281309364</speed>
  <fix>3d</fix>
</trkpt>
<trkpt lat="33.8101147" lon="-118.3938673">
  <ele>-17.46</ele>
  <time>2026-09-02T22:12:52Z</time>
  <course>359.12</course>
  <speed>0.44</speed>
  <fix>3d</fix>
</trkpt>
<trkpt lat="33.8101158" lon="-118.3938675">
  <ele>-17.917</ele>
  <time>2026-09-02T22:12:52Z</time>
  <course>186.66</course>
  <speed>0.46010868281309364</speed>
  <fix>3d</fix>
</trkpt>
<trkpt lat="33.8101147" lon="-118.3938673">
  <ele>-17.46</ele>
  <time>2026-09-02T22:12:52Z</time>
  <course>359.12</course>
  <speed>0.44</speed>
  <fix>3d</fix>
</trkpt>
<trkpt lat="33.8101162" lon="-118.3938675">
  <ele>-17.937</ele>
  <time>2026-09-02T22:12:52Z</time>
  <course>186.66</course>
  <speed>0.46010868281309364</speed>
  <fix>3d</fix>
</trkpt>
<trkpt lat="33.8101154" lon="-118.3938673">
  <ele>-17.48</ele>
  <time>2026-09-02T22:12:52Z</time>
  <course>359.07</course>
  <speed>0.44</speed>
  <fix>3d</fix>
</trkpt>
<trkpt lat="33.8101165" lon="-118.3938675">
  <ele>-17.961</ele>
  <time>2026-09-02T22:12:52Z</time>
  <course>186.66</course>
  <speed>0.46010868281309364</speed>
  <fix>3d</fix>
</trkpt>
<trkpt lat="33.8101154" lon="-118.3938673">
  <ele>-17.48</ele>
  <time>2026-09-02T22:12:52Z</time>
  <course>359.07</course>
  <speed>0.44</speed>
  <fix>3d</fix>
</trkpt>
<trkpt lat="33.8101169" lon="-118.3938675">
  <ele>-17.985</ele>
  <time>2026-09-02T22:12:52Z</time>
  <course>186.66</course>
  <speed>0.46010868281309364</speed>
  <fix>3d</fix>
</trkpt>
<trkpt lat="33.8101163" lon="-118.3938673">
  <ele>-17.51</ele>
  <time>2026-09-02T22:12:52Z</time>
  <course>359.02</course>
  <speed>0.44</speed>
  <fix>3d</fix>
</trkpt>
<trkpt lat="33.8101173" lon="-118.3938675">
  <ele>-18.007</ele>
  <time>2026-09-02T22:12:52Z</time>
  <course>186.66</course>
  <speed>0.46010868281309364</speed>
  <fix>3d</fix>
</trkpt>
<trkpt lat="33.8101163" lon="-118.3938673">
  <ele>-17.51</ele>
  <time>2026-09-02T22:12:52Z</time>
  <course>359.02</course>
  <speed>0.44</speed>
  <fix>3d</fix>
</trkpt>
<trkpt lat="33.8101177" lon="-118.3938675">
  <ele>-18.031</ele>
  <time>2026-09-02T22:12:52Z</time>
  <course>186.66</course>
  <speed>0.46010868281309364</speed>
  <fix>3d</fix>
</trkpt>
<trkpt lat="33.8101171" lon="-118.3938673">
  <ele>-17.55</ele>
  <time>2026-09-02T22:12:52Z</time>
  <course>359.01</course>
  <speed>0.44</speed>
  <fix>3d</fix>
</trkpt>
<trkpt lat="33.8101181" lon="-118.3938675">
  <ele>-18.053</ele>
  <time>2026-09-02T22:12:52Z</time>
  <course>186.66</course>
  <speed>0.46010868281309364</speed>
  <fix>3d</fix>
</trkpt>
<trkpt lat="33.8101171" lon="-118.3938673">
  <ele>-17.55</ele>
  <time>2026-09-02T22:12:52Z</time>
  <course>359.01</course>
  <speed>0.44</speed>
  <fix>3d</fix>
</trkpt>
<trkpt lat="33.8101185" lon="-118.3938675">
  <ele>-18.073</ele>
  <time>2026-09-02T22:12:52Z</time>
  <course>186.66</course>
  <speed>0.46010868281309364</speed>
  <fix>3d</fix>
</trkpt>
<trkpt lat="33.8101178" lon="-118.3938674">
  <ele>-17.6</ele>
  <time>2026-09-02T22:12:52Z</time>
  <course>359.0</course>
  <speed>0.44</speed>
  <fix>3d</fix>
</trkpt>
<trkpt lat="33.8101189" lon="-118.3938675">
  <ele>-18.094</ele>
  <time>2026-09-02T22:12:52Z</time>
  <course>186.66</course>
  <speed>0.46010868281309364</speed>
  <fix>3d</fix>
</trkpt>
<trkpt lat="33.8101178" lon="-118.3938674">
  <ele>-17.6</ele>
  <time>2026-09-02T22:12:52Z</time>
  <course>359.0</course>
  <speed>0.44</speed>
  <fix>3d</fix>
</trkpt>
<trkpt lat="33.8101193" lon="-118.3938675">
  <ele>-18.12</ele>
  <time>2026-09-02T22:12:52Z</time>
  <course>186.66</course>
  <speed>0.46010868281309364</speed>
  <fix>3d</fix>
</trkpt>
<trkpt lat="33.8101187" lon="-118.3938674">
  <ele>-17.64</ele>
  <time>2026-09-02T22:12:52Z</time>
  <course>359.04</course>
  <speed>0.44</speed>
  <fix>3d</fix>
</trkpt>
<trkpt lat="33.8101197" lon="-118.3938675">
  <ele>-18.148</ele>
  <time>2026-09-02T22:12:52Z</time>
  <course>186.66</course>
  <speed>0.47010637094172636</speed>
  <fix>3d</fix>
</trkpt>
<trkpt lat="33.8101187" lon="-118.3938674">
  <ele>-17.64</ele>
  <time>2026-09-02T22:12:52Z</time>
  <course>359.04</course>
  <speed>0.44</speed>
  <fix>3d</fix>
</trkpt>
<trkpt lat="33.8101201" lon="-118.3938675">
  <ele>-18.175</ele>
  <time>2026-09-02T22:12:52Z</time>
  <course>186.66</course>
  <speed>0.47010637094172636</speed>
  <fix>3d</fix>
</trkpt>
<trkpt lat="33.8101195" lon="-118.3938674">
  <ele>-17.68</ele>
  <time>2026-09-02T22:12:52Z</time>
  <course>359.19</course>
  <speed>0.44</speed>
  <fix>3d</fix>
</trkpt>
<trkpt lat="33.8101206" lon="-118.3938675">
  <ele>-18.201</ele>
  <time>2026-09-02T22:12:52Z</time>
  <course>186.66</course>
  <speed>0.47010637094172636</speed>
  <fix>3d</fix>
</trkpt>
<trkpt lat="33.8101195" lon="-118.3938674">
  <ele>-17.68</ele>
  <time>2026-09-02T22:12:52Z</time>
  <course>359.19</course>
  <speed>0.44</speed>
  <fix>3d</fix>
</trkpt>
<trkpt lat="33.810121" lon="-118.3938675">
  <ele>-18.224</ele>
  <time>2026-09-02T22:12:52Z</time>
  <course>186.66</course>
  <speed>0.47010637094172636</speed>
  <fix>3d</fix>
</trkpt>
<trkpt lat="33.8101202" lon="-118.3938674">
  <ele>-17.73</ele>
  <time>2026-09-02T22:12:52Z</time>
  <course>359.37</course>
  <speed>0.44</speed>
  <fix>3d</fix>
</trkpt>
<trkpt lat="33.8101214" lon="-118.3938675">
  <ele>-18.244</ele>
  <time>2026-09-02T22:12:52Z</time>
  <course>186.66</course>
  <speed>0.47010637094172636</speed>
  <fix>3d</fix>
</trkpt>
<trkpt lat="33.8101202" lon="-118.3938674">
  <ele>-17.73</ele>
  <time>2026-09-02T22:12:52Z</time>
  <course>359.37</course>
  <speed>0.44</speed>
  <fix>3d</fix>
</trkpt>
<trkpt lat="33.8101218" lon="-118.3938675">
  <ele>-18.263</ele>
  <time>2026-09-02T22:12:52Z</time>
  <course>186.66</course>
  <speed>0.47010637094172636</speed>
  <fix>3d</fix>
</trkpt>
<trkpt lat="33.8101211" lon="-118.3938674">
  <ele>-17.77</ele>
  <time>2026-09-02T22:12:52Z</time>
  <course>359.52</course>
  <speed>0.44</speed>
  <fix>3d</fix>
</trkpt>
<trkpt lat="33.8101222" lon="-118.3938675">
  <ele>-18.283</ele>
  <time>2026-09-02T22:12:52Z</time>
  <course>186.66</course>
  <speed>0.46010868281309364</speed>
  <fix>3d</fix>
</trkpt>
<trkpt lat="33.8101211" lon="-118.3938674">
  <ele>-17.77</ele>
  <time>2026-09-02T22:12:52Z</time>
  <course>359.52</course>
  <speed>0.44</speed>
  <fix>3d</fix>
</trkpt>
<trkpt lat="33.8101225" lon="-118.3938675">
  <ele>-18.3</ele>
  <time>2026-09-02T22:12:52Z</time>
  <course>186.66</course>
  <speed>0.44011362169330775</speed>
  <fix>3d</fix>
</trkpt>
<trkpt lat="33.8101219" lon="-118.3938674">
  <ele>-17.82</ele>
  <time>2026-09-02T22:12:52Z</time>
  <course>359.59</course>
  <speed>0.43</speed>
  <fix>3d</fix>
</trkpt>
<trkpt lat="33.8101229" lon="-118.3938675">
  <ele>-18.316</ele>
  <time>2026-09-02T22:12:52Z</time>
  <course>186.66</course>
  <speed>0.44011362169330775</speed>
  <fix>3d</fix>
</trkpt>
<trkpt lat="33.8101219" lon="-118.3938674">
  <ele>-17.82</ele>
  <time>2026-09-02T22:12:52Z</time>
  <course>359.59</course>
  <speed>0.43</speed>
  <fix>3d</fix>
</trkpt>
<trkpt lat="33.8101233" lon="-118.3938675">
  <ele>-18.332</ele>
  <time>2026-09-02T22:12:52Z</time>
  <course>186.66</course>
  <speed>0.450111097397076</speed>
  <fix>3d</fix>
</trkpt>
<trkpt lat="33.8101226" lon="-118.3938674">
  <ele>-17.85</ele>
  <time>2026-09-02T22:12:52Z</time>
  <course>359.68</course>
  <speed>0.42</speed>
  <fix>3d</fix>
</trkpt>
<trkpt lat="33.8101237" lon="-118.3938675">
  <ele>-18.349</ele>
  <time>2026-09-02T22:12:52Z</time>
  <course>186.66</course>
  <speed>0.450111097397076</speed>
  <fix>3d</fix>
</trkpt>
<trkpt lat="33.8101226" lon="-118.3938674">
  <ele>-17.85</ele>
  <time>2026-09-02T22:12:52Z</time>
  <course>359.68</course>
  <speed>0.42</speed>
  <fix>3d</fix>
</trkpt>
<trkpt lat="33.8101241" lon="-118.3938675">
  <ele>-18.363</ele>
  <time>2026-09-02T22:12:52Z</time>
  <course>186.66</course>
  <speed>0.46010868281309364</speed>
  <fix>3d</fix>
</trkpt>
<trkpt lat="33.8101234" lon="-118.3938674">
  <ele>-17.88</ele>
  <time>2026-09-02T22:12:52Z</time>
  <course>359.76</course>
  <speed>0.43</speed>
  <fix>3d</fix>
</trkpt>
<trkpt lat="33.8101245" lon="-118.3938675">
  <ele>-18.377</ele>
  <time>2026-09-02T22:12:52Z</time>
  <course>186.66</course>
  <speed>0.46010868281309364</speed>
  <fix>3d</fix>
</trkpt>
<trkpt lat="33.8101234" lon="-118.3938674">
  <ele>-17.88</ele>
  <time>2026-09-02T22:12:52Z</time>
  <course>359.76</course>
  <speed>0.43</speed>
  <fix>3d</fix>
</trkpt>
<trkpt lat="33.8101248" lon="-118.3938675">
  <ele>-18.393</ele>
  <time>2026-09-02T22:12:52Z</time>
  <course>186.66</course>
  <speed>0.46010868281309364</speed>
  <fix>3d</fix>
</trkpt>
<trkpt lat="33.8101242" lon="-118.3938674">
  <ele>-17.91</ele>
  <time>2026-09-02T22:12:52Z</time>
  <course>359.75</course>
  <speed>0.43</speed>
  <fix>3d</fix>
</trkpt>
<trkpt lat="33.8101252" lon="-118.3938675">
  <ele>-18.408</ele>
  <time>2026-09-02T22:12:52Z</time>
  <course>186.66</course>
  <speed>0.46010868281309364</speed>
  <fix>3d</fix>
</trkpt>
<trkpt lat="33.8101242" lon="-118.3938674">
  <ele>-17.91</ele>
  <time>2026-09-02T22:12:52Z</time>
  <course>359.75</course>
  <speed>0.43</speed>
  <fix>3d</fix>
</trkpt>
<trkpt lat="33.8101256" lon="-118.3938675">
  <ele>-18.425</ele>
  <time>2026-09-02T22:12:52Z</time>
  <course>186.66</course>
  <speed>0.47010637094172636</speed>
  <fix>3d</fix>
</trkpt>
<trkpt lat="33.810125" lon="-118.3938674">
  <ele>-17.94</ele>
  <time>2026-09-02T22:12:52Z</time>
  <course>359.74</course>
  <speed>0.44</speed>
  <fix>3d</fix>
</trkpt>
<trkpt lat="33.810126" lon="-118.3938675">
  <ele>-18.441</ele>
  <time>2026-09-02T22:12:52Z</time>
  <course>186.66</course>
  <speed>0.47010637094172636</speed>
  <fix>3d</fix>
</trkpt>
<trkpt lat="33.810125" lon="-118.3938674">
  <ele>-17.94</ele>
  <time>2026-09-02T22:12:52Z</time>
  <course>359.74</course>
  <speed>0.44</speed>
  <fix>3d</fix>
</trkpt>
<trkpt lat="33.8101264" lon="-118.3938675">
  <ele>-18.457</ele>
  <time>2026-09-02T22:12:52Z</time>
  <course>186.66</course>
  <speed>0.47010637094172636</speed>
  <fix>3d</fix>
</trkpt>
<trkpt lat="33.8101257" lon="-118.3938674">
  <ele>-17.97</ele>
  <time>2026-09-02T22:12:52Z</time>
  <course>359.72</course>
  <speed>0.45</speed>
  <fix>3d</fix>
</trkpt>
<trkpt lat="33.8101269" lon="-118.3938675">
  <ele>-18.477</ele>
  <time>2026-09-02T22:12:52Z</time>
  <course>186.66</course>
  <speed>0.47010637094172636</speed>
  <fix>3d</fix>
</trkpt>
<trkpt lat="33.8101257" lon="-118.3938674">
  <ele>-17.97</ele>
  <time>2026-09-02T22:12:52Z</time>
  <course>359.72</course>
  <speed>0.45</speed>
  <fix>3d</fix>
</trkpt>
<trkpt lat="33.8101273" lon="-118.3938675">
  <ele>-18.498</ele>
  <time>2026-09-02T22:12:52Z</time>
  <course>186.66</course>
  <speed>0.47010637094172636</speed>
  <fix>3d</fix>
</trkpt>
<trkpt lat="33.8101266" lon="-118.3938674">
  <ele>-18.01</ele>
  <time>2026-09-02T22:12:52Z</time>
  <course>359.69</course>
  <speed>0.45</speed>
  <fix>3d</fix>
</trkpt>
<trkpt lat="33.8101277" lon="-118.3938675">
  <ele>-18.521</ele>
  <time>2026-09-02T22:12:52Z</time>
  <course>186.66</course>
  <speed>0.4801041553663121</speed>
  <fix>3d</fix>
</trkpt>
<trkpt lat="33.8101266" lon="-118.3938674">
  <ele>-18.01</ele>
  <time>2026-09-02T22:12:52Z</time>
  <course>359.69</course>
  <speed>0.45</speed>
  <fix>3d</fix>
</trkpt>
<trkpt lat="33.8101281" lon="-118.3938675">
  <ele>-18.549</ele>
  <time>2026-09-02T22:12:52Z</time>
  <course>186.66</course>
  <speed>0.4801041553663121</speed>
  <fix>3d</fix>
</trkpt>
<trkpt lat="33.8101274" lon="-118.3938675">
  <ele>-18.05</ele>
  <time>2026-09-02T22:12:52Z</time>
  <course>359.69</course>
  <speed>0.45</speed>
  <fix>3d</fix>
</trkpt>
<trkpt lat="33.8101285" lon="-118.3938675">
  <ele>-18.578</ele>
  <time>2026-09-02T22:12:52Z</time>
  <course>186.66</course>
  <speed>0.4801041553663121</speed>
  <fix>3d</fix>
</trkpt>
<trkpt lat="33.8101274" lon="-118.3938675">
  <ele>-18.05</ele>
  <time>2026-09-02T22:12:52Z</time>
  <course>359.69</course>
  <speed>0.45</speed>
  <fix>3d</fix>
</trkpt>
<trkpt lat="33.8101289" lon="-118.3938675">
  <ele>-18.609</ele>
  <time>2026-09-02T22:12:52Z</time>
  <course>186.66</course>
  <speed>0.4801041553663121</speed>
  <fix>3d</fix>
</trkpt>
<trkpt lat="33.8101283" lon="-118.3938675">
  <ele>-18.1</ele>
  <time>2026-09-02T22:12:52Z</time>
  <course>359.79</course>
  <speed>0.45</speed>
  <fix>3d</fix>
</trkpt>
<trkpt lat="33.8101293" lon="-118.3938675">
  <ele>-18.642</ele>
  <time>2026-09-02T22:12:52Z</time>
  <course>186.66</course>
  <speed>0.4801041553663121</speed>
  <fix>3d</fix>
</trkpt>
<trkpt lat="33.8101283" lon="-118.3938675">
  <ele>-18.1</ele>
  <time>2026-09-02T22:12:52Z</time>
  <course>359.79</course>
  <speed>0.45</speed>
  <fix>3d</fix>
</trkpt>
<trkpt lat="33.8101297" lon="-118.3938675">
  <ele>-18.674</ele>
  <time>2026-09-02T22:12:52Z</time>
  <course>186.66</course>
  <speed>0.4801041553663121</speed>
  <fix>3d</fix>
</trkpt>
<trkpt lat="33.8101291" lon="-118.3938675">
  <ele>-18.16</ele>
  <time>2026-09-02T22:12:52Z</time>
  <course>0.01</course>
  <speed>0.46</speed>
  <fix>3d</fix>
</trkpt>
<trkpt lat="33.8101301" lon="-118.3938675">
  <ele>-18.705</ele>
  <time>2026-09-02T22:12:52Z</time>
  <course>186.66</course>
  <speed>0.4801041553663121</speed>
  <fix>3d</fix>
</trkpt>
<trkpt lat="33.8101291" lon="-118.3938675">
  <ele>-18.16</ele>
  <time>2026-09-02T22:12:52Z</time>
  <course>0.01</course>
  <speed>0.46</speed>
  <fix>3d</fix>
</trkpt>
<trkpt lat="33.8101306" lon="-118.3938675">
  <ele>-18.732</ele>
  <time>2026-09-02T22:12:52Z</time>
  <course>186.66</course>
  <speed>0.48</speed>
  <fix>3d</fix>
</trkpt>
<trkpt lat="33.8101299" lon="-118.3938675">
  <ele>-18.22</ele>
  <time>2026-09-02T22:12:52Z</time>
  <course>0.28</course>
  <speed>0.46</speed>
  <fix>3d</fix>
</trkpt>
<trkpt lat="33.810131" lon="-118.3938675">
  <ele>-18.752</ele>
  <time>2026-09-02T22:12:52Z</time>
  <course>186.65</course>
  <speed>0.48</speed>
  <fix>3d</fix>
</trkpt>
<trkpt lat="33.8101299" lon="-118.3938675">
  <ele>-18.22</ele>
  <time>2026-09-02T22:12:52Z</time>
  <course>0.28</course>
  <speed>0.46</speed>
  <fix>3d</fix>
</trkpt>
<trkpt lat="33.8101314" lon="-118.3938675">
  <ele>-18.765</ele>
  <time>2026-09-02T22:12:52Z</time>
  <course>186.65</course>
  <speed>0.48</speed>
  <fix>3d</fix>
</trkpt>
<trkpt lat="33.8101307" lon="-118.3938675">
  <ele>-18.27</ele>
  <time>2026-09-02T22:12:52Z</time>
  <course>0.52</course>
  <speed>0.46</speed>
  <fix>3d</fix>
</trkpt>
<trkpt lat="33.8101318" lon="-118.3938675">
  <ele>-18.776</ele>
  <time>2026-09-02T22:12:52Z</time>
  <course>186.66</course>
  <speed>0.48</speed>
  <fix>3d</fix>
</trkpt>
<trkpt lat="33.8101307" lon="-118.3938675">
  <ele>-18.27</ele>
  <time>2026-09-02T22:12:52Z</time>
  <course>0.52</course>
  <speed>0.46</speed>
  <fix>3d</fix>
</trkpt>
<trkpt lat="33.8101322" lon="-118.3938675">
  <ele>-18.785</ele>
  <time>2026-09-02T22:12:52Z</time>
  <course>186.66</course>
  <speed>0.48</speed>
  <fix>3d</fix>
</trkpt>
<trkpt lat="33.8101316" lon="-118.3938675">
  <ele>-18.3</ele>
  <time>2026-09-02T22:12:52Z</time>
  <course>0.68</course>
  <speed>0.46</speed>
  <fix>3d</fix>
</trkpt>
<trkpt lat="33.8101326" lon="-118.3938675">
  <ele>-18.793</ele>
  <time>2026-09-02T22:12:52Z</time>
  <course>186.66</course>
  <speed>0.48</speed>
  <fix>3d</fix>
</trkpt>
<trkpt lat="33.8101316" lon="-118.3938675">
  <ele>-18.3</ele>
  <time>2026-09-02T22:12:52Z</time>
  <course>0.68</course>
  <speed>0.46</speed>
  <fix>3d</fix>
</trkpt>
<trkpt lat="33.810133" lon="-118.3938675">
  <ele>-18.797</ele>
  <time>2026-09-02T22:12:52Z</time>
  <course>186.66</course>
  <speed>0.48</speed>
  <fix>3d</fix>
</trkpt>
<trkpt lat="33.8101324" lon="-118.3938675">
  <ele>-18.32</ele>
  <time>2026-09-02T22:12:52Z</time>
  <course>0.78</course>
  <speed>0.46</speed>
  <fix>3d</fix>
</trkpt>
<trkpt lat="33.8101335" lon="-118.3938675">
  <ele>-18.799</ele>
  <time>2026-09-02T22:12:52Z</time>
  <course>186.66</course>
  <speed>0.48</speed>
  <fix>3d</fix>
</trkpt>
<trkpt lat="33.8101324" lon="-118.3938675">
  <ele>-18.32</ele>
  <time>2026-09-02T22:12:52Z</time>
  <course>0.78</course>
  <speed>0.46</speed>
  <fix>3d</fix>
</trkpt>
<trkpt lat="33.8101339" lon="-118.3938675">
  <ele>-18.799</ele>
  <time>2026-09-02T22:12:52Z</time>
  <course>186.66</course>
  <speed>0.48</speed>
  <fix>3d</fix>
</trkpt>
<trkpt lat="33.8101332" lon="-118.3938675">
  <ele>-18.33</ele>
  <time>2026-09-02T22:12:52Z</time>
  <course>0.86</course>
  <speed>0.46</speed>
  <fix>3d</fix>
</trkpt>
<trkpt lat="33.8101343" lon="-118.3938675">
  <ele>-18.798</ele>
  <time>2026-09-02T22:12:52Z</time>
  <course>186.66</course>
  <speed>0.48</speed>
  <fix>3d</fix>
</trkpt>
<trkpt lat="33.8101332" lon="-118.3938675">
  <ele>-18.33</ele>
  <time>2026-09-02T22:12:52Z</time>
  <course>0.86</course>
  <speed>0.46</speed>
  <fix>3d</fix>
</trkpt>
<trkpt lat="33.8101347" lon="-118.3938675">
  <ele>-18.8</ele>
  <time>2026-09-02T22:12:52Z</time>
  <course>186.66</course>
  <speed>0.48</speed>
  <fix>3d</fix>
</trkpt>
<trkpt lat="33.8101341" lon="-118.3938675">
  <ele>-18.34</ele>
  <time>2026-09-02T22:12:52Z</time>
  <course>0.92</course>
  <speed>0.46</speed>
  <fix>3d</fix>
</trkpt>
<trkpt lat="33.8101351" lon="-118.3938675">
  <ele>-18.809</ele>
  <time>2026-09-02T22:12:52Z</time>
  <course>186.66</course>
  <speed>0.48</speed>
  <fix>3d</fix>
</trkpt>
<trkpt lat="33.8101341" lon="-118.3938675">
  <ele>-18.34</ele>
  <time>2026-09-02T22:12:52Z</time>
  <course>0.92</course>
  <speed>0.46</speed>
  <fix>3d</fix>
</trkpt>
<trkpt lat="33.8101355" lon="-118.3938675">
  <ele>-18.82</ele>
  <time>2026-09-02T22:12:52Z</time>
  <course>186.66</course>
  <speed>0.48</speed>
  <fix>3d</fix>
</trkpt>
<trkpt lat="33.8101348" lon="-118.3938675">
  <ele>-18.35</ele>
  <time>2026-09-02T22:12:52Z</time>
  <course>0.94</course>
  <speed>0.46</speed>
  <fix>3d</fix>
</trkpt>
<trkpt lat="33.810136" lon="-118.3938675">
  <ele>-18.834</ele>
  <time>2026-09-02T22:12:52Z</time>
  <course>186.66</course>
  <speed>0.48</speed>
  <fix>3d</fix>
</trkpt>
<trkpt lat="33.8101348" lon="-118.3938675">
  <ele>-18.35</ele>
  <time>2026-09-02T22:12:52Z</time>
  <course>0.94</course>
  <speed>0.46</speed>
  <fix>3d</fix>
</trkpt>
<trkpt lat="33.8101364" lon="-118.3938675">
  <ele>-18.856</ele>
  <time>2026-09-02T22:12:52Z</time>
  <course>186.66</course>
  <speed>0.48</speed>
  <fix>3d</fix>
</trkpt>
<trkpt lat="33.8101357" lon="-118.3938675">
  <ele>-18.38</ele>
  <time>2026-09-02T22:12:52Z</time>
  <course>0.99</course>
  <speed>0.46</speed>
  <fix>3d</fix>
</trkpt>
<trkpt lat="33.8101368" lon="-118.3938675">
  <ele>-18.881</ele>
  <time>2026-09-02T22:12:52Z</time>
  <course>186.66</course>
  <speed>0.48</speed>
  <fix>3d</fix>
</trkpt>
<trkpt lat="33.8101357" lon="-118.3938675">
  <ele>-18.38</ele>
  <time>2026-09-02T22:12:52Z</time>
  <course>0.99</course>
  <speed>0.46</speed>
  <fix>3d</fix>
</trkpt>
<trkpt lat="33.8101372" lon="-118.3938675">
  <ele>-18.908</ele>
  <time>2026-09-02T22:12:52Z</time>
  <course>186.66</course>
  <speed>0.48</speed>
  <fix>3d</fix>
</trkpt>
<trkpt lat="33.8101365" lon="-118.3938674">
  <ele>-18.42</ele>
  <time>2026-09-02T22:12:52Z</time>
  <course>1.04</course>
  <speed>0.46</speed>
  <fix>3d</fix>
</trkpt>
<trkpt lat="33.8101376" lon="-118.3938675">
  <ele>-18.935</ele>
  <time>2026-09-02T22:12:52Z</time>
  <course>186.66</course>
  <speed>0.450111097397076</speed>
  <fix>3d</fix>
</trkpt>
<trkpt lat="33.8101365" lon="-118.3938674">
  <ele>-18.42</ele>
  <time>2026-09-02T22:12:52Z</time>
  <course>1.04</course>
  <speed>0.46</speed>
  <fix>3d</fix>
</trkpt>
<trkpt lat="33.810138" lon="-118.3938675">
  <ele>-18.962</ele>
  <time>2026-09-02T22:12:53Z</time>
  <course>186.66</course>
  <speed>0.45</speed>
  <fix>3d</fix>
</trkpt>
<trkpt lat="33.8101374" lon="-118.3938674">
  <ele>-18.46</ele>
  <time>2026-09-02T22:12:53Z</time>
  <course>1.07</course>
  <speed>0.44</speed>
  <fix>3d</fix>
</trkpt>
<trkpt lat="33.8101384" lon="-118.3938675">
  <ele>-18.986</ele>
  <time>2026-09-02T22:12:53Z</time>
  <course>186.66</course>
  <speed>0.46010868281309364</speed>
  <fix>3d</fix>
</trkpt>
<trkpt lat="33.8101374" lon="-118.3938674">
  <ele>-18.46</ele>
  <time>2026-09-02T22:12:53Z</time>
  <course>1.07</course>
  <speed>0.44</speed>
  <fix>3d</fix>
</trkpt>
<trkpt lat="33.8101388" lon="-118.3938675">
  <ele>-19.008</ele>
  <time>2026-09-02T22:12:53Z</time>
  <course>186.66</course>
  <speed>0.4301162633521314</speed>
  <fix>3d</fix>
</trkpt>
<trkpt lat="33.8101382" lon="-118.3938674">
  <ele>-18.51</ele>
  <time>2026-09-02T22:12:53Z</time>
  <course>1.01</course>
  <speed>0.43</speed>
  <fix>3d</fix>
</trkpt>
<trkpt lat="33.8101392" lon="-118.3938675">
  <ele>-19.028</ele>
  <time>2026-09-02T22:12:53Z</time>
  <course>186.66</course>
  <speed>0.44011362169330775</speed>
  <fix>3d</fix>
</trkpt>
<trkpt lat="33.8101382" lon="-118.3938674">
  <ele>-18.51</ele>
  <time>2026-09-02T22:12:53Z</time>
  <course>1.01</course>
  <speed>0.43</speed>
  <fix>3d</fix>
</trkpt>
<trkpt lat="33.8101395" lon="-118.3938675">
  <ele>-19.05</ele>
  <time>2026-09-02T22:12:53Z</time>
  <course>186.66</course>
  <speed>0.44011362169330775</speed>
  <fix>3d</fix>
</trkpt>
<trkpt lat="33.8101389" lon="-118.3938674">
  <ele>-18.56</ele>
  <time>2026-09-02T22:12:53Z</time>
  <course>0.91</course>
  <speed>0.42</speed>
  <fix>3d</fix>
</trkpt>
<trkpt lat="33.8101399" lon="-118.3938675">
  <ele>-19.075</ele>
  <time>2026-09-02T22:12:53Z</time>
  <course>186.66</course>
  <speed>0.450111097397076</speed>
  <fix>3d</fix>
</trkpt>
<trkpt lat="33.8101389" lon="-118.3938674">
  <ele>-18.56</ele>
  <time>2026-09-02T22:12:53Z</time>
  <course>0.91</course>
  <speed>0.42</speed>
  <fix>3d</fix>
</trkpt>
<trkpt lat="33.8101403" lon="-118.3938675">
  <ele>-19.103</ele>
  <time>2026-09-02T22:12:53Z</time>
  <course>186.65</course>
  <speed>0.450111097397076</speed>
  <fix>3d</fix>
</trkpt>
<trkpt lat="33.8101396" lon="-118.3938674">
  <ele>-18.6</ele>
  <time>2026-09-02T22:12:53Z</time>
  <course>0.8</course>
  <speed>0.42</speed>
  <fix>3d</fix>
</trkpt>
<trkpt lat="33.8101407" lon="-118.3938675">
  <ele>-19.132</ele>
  <time>2026-09-02T22:12:53Z</time>
  <course>186.65</course>
  <speed>0.46010868281309364</speed>
  <fix>3d</fix>
</trkpt>
<trkpt lat="33.8101396" lon="-118.3938674">
  <ele>-18.6</ele>
  <time>2026-09-02T22:12:53Z</time>
  <course>0.8</course>
  <speed>0.42</speed>
  <fix>3d</fix>
</trkpt>
<trkpt lat="33.8101411" lon="-118.3938675">
  <ele>-19.16</ele>
  <time>2026-09-02T22:12:53Z</time>
  <course>186.65</course>
  <speed>0.47010637094172636</speed>
  <fix>3d</fix>
</trkpt>
<trkpt lat="33.8101405" lon="-118.3938674">
  <ele>-18.65</ele>
  <time>2026-09-02T22:12:53Z</time>
  <course>0.67</course>
  <speed>0.43</speed>
  <fix>3d</fix>
</trkpt>
<trkpt lat="33.8101415" lon="-118.3938675">
  <ele>-19.185</ele>
  <time>2026-09-02T22:12:53Z</time>
  <course>186.66</course>
  <speed>0.47010637094172636</speed>
  <fix>3d</fix>
</trkpt>
<trkpt lat="33.8101405" lon="-118.3938674">
  <ele>-18.65</ele>
  <time>2026-09-02T22:12:53Z</time>
  <course>0.67</course>
  <speed>0.43</speed>
  <fix>3d</fix>
</trkpt>
<trkpt lat="33.8101419" lon="-118.3938675">
  <ele>-19.207</ele>
  <time>2026-09-02T22:12:53Z</time>
  <course>186.66</course>
  <speed>0.47010637094172636</speed>
  <fix>3d</fix>
</trkpt>
<trkpt lat="33.8101413" lon="-118.3938673">
  <ele>-18.7</ele>
  <time>2026-09-02T22:12:53Z</time>
  <course>0.59</course>
  <speed>0.44</speed>
  <fix>3d</fix>
</trkpt>
<trkpt lat="33.8101423" lon="-118.3938675">
  <ele>-19.226</ele>
  <time>2026-09-02T22:12:53Z</time>
  <course>186.66</course>
  <speed>0.4801041553663121</speed>
  <fix>3d</fix>
</trkpt>
<trkpt lat="33.8101413" lon="-118.3938673">
  <ele>-18.7</ele>
  <time>2026-09-02T22:12:53Z</time>
  <course>0.59</course>
  <speed>0.44</speed>
  <fix>3d</fix>
</trkpt>
<trkpt lat="33.8101427" lon="-118.3938675">
  <ele>-19.244</ele>
  <time>2026-09-02T22:12:53Z</time>
  <course>186.66</course>
  <speed>0.4801041553663121</speed>
  <fix>3d</fix>
</trkpt>
<trkpt lat="33.810142" lon="-118.3938673">
  <ele>-18.75</ele>
  <time>2026-09-02T22:12:53Z</time>
  <course>0.48</course>
  <speed>0.45</speed>
  <fix>3d</fix>
</trkpt>
<trkpt lat="33.8101432" lon="-118.3938675">
  <ele>-19.261</ele>
  <time>2026-09-02T22:12:53Z</time>
  <course>186.66</course>
  <speed>0.4801041553663121</speed>
  <fix>3d</fix>
</trkpt>
<trkpt lat="33.810142" lon="-118.3938673">
  <ele>-18.75</ele>
  <time>2026-09-02T22:12:53Z</time>
  <course>0.48</course>
  <speed>0.45</speed>
  <fix>3d</fix>
</trkpt>
<trkpt lat="33.8101436" lon="-118.3938675">
  <ele>-19.276</ele>
  <time>2026-09-02T22:12:53Z</time>
  <course>186.66</course>
  <speed>0.4801041553663121</speed>
  <fix>3d</fix>
</trkpt>
<trkpt lat="33.8101429" lon="-118.3938673">
  <ele>-18.78</ele>
  <time>2026-09-02T22:12:53Z</time>
  <course>0.3</course>
  <speed>0.46</speed>
  <fix>3d</fix>
</trkpt>
<trkpt lat="33.810144" lon="-118.3938675">
  <ele>-19.292</ele>
  <time>2026-09-02T22:12:53Z</time>
  <course>186.66</course>
  <speed>0.4901020301937138</speed>
  <fix>3d</fix>
</trkpt>
<trkpt lat="33.8101429" lon="-118.3938673">
  <ele>-18.78</ele>
  <time>2026-09-02T22:12:53Z</time>
  <course>0.3</course>
  <speed>0.46</speed>
  <fix>3d</fix>
</trkpt>
<trkpt lat="33.8101444" lon="-118.3938675">
  <ele>-19.307</ele>
  <time>2026-09-02T22:12:53Z</time>
  <course>186.66</course>
  <speed>0.4901020301937138</speed>
  <fix>3d</fix>
</trkpt>
<trkpt lat="33.8101438" lon="-118.3938673">
  <ele>-18.81</ele>
  <time>2026-09-02T22:12:53Z</time>
  <course>0.11</course>
  <speed>0.46</speed>
  <fix>3d</fix>
</trkpt>
<trkpt lat="33.8101448" lon="-118.3938675">
  <ele>-19.32</ele>
  <time>2026-09-02T22:12:53Z</time>
  <course>186.66</course>
  <speed>0.46010868281309364</speed>
  <fix>3d</fix>
</trkpt>
<trkpt lat="33.8101438" lon="-118.3938673">
  <ele>-18.81</ele>
  <time>2026-09-02T22:12:53Z</time>
  <course>0.11</course>
  <speed>0.46</speed>
  <fix>3d</fix>
</trkpt>
<trkpt lat="33.8101452" lon="-118.3938675">
  <ele>-19.332</ele>
  <time>2026-09-02T22:12:53Z</time>
  <course>186.66</course>
  <speed>0.46010868281309364</speed>
  <fix>3d</fix>
</trkpt>
<trkpt lat="33.8101446" lon="-118.3938673">
  <ele>-18.84</ele>
  <time>2026-09-02T22:12:53Z</time>
  <course>359.98</course>
  <speed>0.45</speed>
  <fix>3d</fix>
</trkpt>
<trkpt lat="33.8101456" lon="-118.3938675">
  <ele>-19.343</ele>
  <time>2026-09-02T22:12:53Z</time>
  <course>186.66</course>
  <speed>0.46010868281309364</speed>
  <fix>3d</fix>
</trkpt>
<trkpt lat="33.8101446" lon="-118.3938673">
  <ele>-18.84</ele>
  <time>2026-09-02T22:12:53Z</time>
  <course>359.98</course>
  <speed>0.45</speed>
  <fix>3d</fix>
</trkpt>
<trkpt lat="33.810146" lon="-118.3938675">
  <ele>-19.357</ele>
  <time>2026-09-02T22:12:53Z</time>
  <course>186.66</course>
  <speed>0.47010637094172636</speed>
  <fix>3d</fix>
</trkpt>
<trkpt lat="33.8101453" lon="-118.3938673">
  <ele>-18.86</ele>
  <time>2026-09-02T22:12:53Z</time>
  <course>359.91</course>
  <speed>0.44</speed>
  <fix>3d</fix>
</trkpt>
<trkpt lat="33.8101464" lon="-118.3938675">
  <ele>-19.371</ele>
  <time>2026-09-02T22:12:53Z</time>
  <course>186.66</course>
  <speed>0.47010637094172636</speed>
  <fix>3d</fix>
</trkpt>
<trkpt lat="33.8101453" lon="-118.3938673">
  <ele>-18.86</ele>
  <time>2026-09-02T22:12:53Z</time>
  <course>359.91</course>
  <speed>0.44</speed>
  <fix>3d</fix>
</trkpt>
<trkpt lat="33.8101468" lon="-118.3938675">
  <ele>-19.385</ele>
  <time>2026-09-02T22:12:53Z</time>
  <course>186.66</course>
  <speed>0.4801041553663121</speed>
  <fix>3d</fix>
</trkpt>
<trkpt lat="33.8101462" lon="-118.3938673">
  <ele>-18.89</ele>
  <time>2026-09-02T22:12:53Z</time>
  <course>359.85</course>
  <speed>0.45</speed>
  <fix>3d</fix>
</trkpt>
<trkpt lat="33.8101473" lon="-118.3938675">
  <ele>-19.402</ele>
  <time>2026-09-02T22:12:53Z</time>
  <course>186.66</course>
  <speed>0.4801041553663121</speed>
  <fix>3d</fix>
</trkpt>
<trkpt lat="33.8101462" lon="-118.3938673">
  <ele>-18.89</ele>
  <time>2026-09-02T22:12:53Z</time>
  <course>359.85</course>
  <speed>0.45</speed>
  <fix>3d</fix>
</trkpt>
<trkpt lat="33.8101477" lon="-118.3938675">
  <ele>-19.421</ele>
  <time>2026-09-02T22:12:53Z</time>
  <course>186.66</course>
  <speed>0.4801041553663121</speed>
  <fix>3d</fix>
</trkpt>
<trkpt lat="33.810147" lon="-118.3938673">
  <ele>-18.92</ele>
  <time>2026-09-02T22:12:53Z</time>
  <course>359.78</course>
  <speed>0.46</speed>
  <fix>3d</fix>
</trkpt>
<trkpt lat="33.8101481" lon="-118.3938675">
  <ele>-19.437</ele>
  <time>2026-09-02T22:12:53Z</time>
  <course>186.66</course>
  <speed>0.4901020301937138</speed>
  <fix>3d</fix>
</trkpt>
<trkpt lat="33.810147" lon="-118.3938673">
  <ele>-18.92</ele>
  <time>2026-09-02T22:12:53Z</time>
  <course>359.78</course>
  <speed>0.46</speed>
  <fix>3d</fix>
</trkpt>
<trkpt lat="33.8101485" lon="-118.3938675">
  <ele>-19.454</ele>
  <time>2026-09-02T22:12:53Z</time>
  <course>186.66</course>
  <speed>0.4901020301937138</speed>
  <fix>3d</fix>
</trkpt>
<trkpt lat="33.8101478" lon="-118.3938673">
  <ele>-18.95</ele>
  <time>2026-09-02T22:12:53Z</time>
  <course>359.71</course>
  <speed>0.46</speed>
  <fix>3d</fix>
</trkpt>
<trkpt lat="33.8101489" lon="-118.3938675">
  <ele>-19.471</ele>
  <time>2026-09-02T22:12:53Z</time>
  <course>186.66</course>
  <speed>0.4901020301937138</speed>
  <fix>3d</fix>
</trkpt>
<trkpt lat="33.8101478" lon="-118.3938673">
  <ele>-18.95</ele>
  <time>2026-09-02T22:12:53Z</time>
  <course>359.71</course>
  <speed>0.46</speed>
  <fix>3d</fix>
</trkpt>
<trkpt lat="33.8101494" lon="-118.3938675">
  <ele>-19.486</ele>
  <time>2026-09-02T22:12:53Z</time>
  <course>186.66</course>
  <speed>0.4901020301937138</speed>
  <fix>3d</fix>
</trkpt>
<trkpt lat="33.8101487" lon="-118.3938673">
  <ele>-18.98</ele>
  <time>2026-09-02T22:12:53Z</time>
  <course>359.65</course>
  <speed>0.47</speed>
  <fix>3d</fix>
</trkpt>
<trkpt lat="33.8101498" lon="-118.3938675">
  <ele>-19.5</ele>
  <time>2026-09-02T22:12:53Z</time>
  <course>186.66</course>
  <speed>0.4901020301937138</speed>
  <fix>3d</fix>
</trkpt>
<trkpt lat="33.8101487" lon="-118.3938673">
  <ele>-18.98</ele>
  <time>2026-09-02T22:12:53Z</time>
  <course>359.65</course>
  <speed>0.47</speed>
  <fix>3d</fix>
</trkpt>
<trkpt lat="33.8101502" lon="-118.3938675">
  <ele>-19.519</ele>
  <time>2026-09-02T22:12:53Z</time>
  <course>186.66</course>
  <speed>0.4901020301937138</speed>
  <fix>3d</fix>
</trkpt>
<trkpt lat="33.8101495" lon="-118.3938673">
  <ele>-19.01</ele>
  <time>2026-09-02T22:12:53Z</time>
  <course>359.61</course>
  <speed>0.47</speed>
  <fix>3d</fix>
</trkpt>
<trkpt lat="33.8101506" lon="-118.3938675">
  <ele>-19.541</ele>
  <time>2026-09-02T22:12:53Z</time>
  <course>186.66</course>
  <speed>0.5000999900019995</speed>
  <fix>3d</fix>
</trkpt>
<trkpt lat="33.8101495" lon="-118.3938673">
  <ele>-19.01</ele>
  <time>2026-09-02T22:12:53Z</time>
  <course>359.61</course>
  <speed>0.47</speed>
  <fix>3d</fix>
</trkpt>
<trkpt lat="33.8101511" lon="-118.3938675">
  <ele>-19.564</ele>
  <time>2026-09-02T22:12:53Z</time>
  <course>186.66</course>
  <speed>0.5000999900019995</speed>
  <fix>3d</fix>
</trkpt>
<trkpt lat="33.8101504" lon="-118.3938673">
  <ele>-19.05</ele>
  <time>2026-09-02T22:12:53Z</time>
  <course>359.6</course>
  <speed>0.47</speed>
  <fix>3d</fix>
</trkpt>
<trkpt lat="33.8101515" lon="-118.3938675">
  <ele>-19.587</ele>
  <time>2026-09-02T22:12:53Z</time>
  <course>186.66</course>
  <speed>0.5000999900019995</speed>
  <fix>3d</fix>
</trkpt>
<trkpt lat="33.8101504" lon="-118.3938673">
  <ele>-19.05</ele>
  <time>2026-09-02T22:12:53Z</time>
  <course>359.6</course>
  <speed>0.47</speed>
  <fix>3d</fix>
</trkpt>
<trkpt lat="33.8101519" lon="-118.3938675">
  <ele>-19.61</ele>
  <time>2026-09-02T22:12:53Z</time>
  <course>186.66</course>
  <speed>0.5000999900019995</speed>
  <fix>3d</fix>
</trkpt>
<trkpt lat="33.8101512" lon="-118.3938673">
  <ele>-19.1</ele>
  <time>2026-09-02T22:12:53Z</time>
  <course>359.61</course>
  <speed>0.47</speed>
  <fix>3d</fix>
</trkpt>
<trkpt lat="33.8101524" lon="-118.3938675">
  <ele>-19.634</ele>
  <time>2026-09-02T22:12:53Z</time>
  <course>186.66</course>
  <speed>0.5000999900019995</speed>
  <fix>3d</fix>
</trkpt>
<trkpt lat="33.8101512" lon="-118.3938673">
  <ele>-19.1</ele>
  <time>2026-09-02T22:12:53Z</time>
  <course>359.61</course>
  <speed>0.47</speed>
  <fix>3d</fix>
</trkpt>
<trkpt lat="33.8101528" lon="-118.3938675">
  <ele>-19.659</ele>
  <time>2026-09-02T22:12:53Z</time>
  <course>186.66</course>
  <speed>0.46010868281309364</speed>
  <fix>3d</fix>
</trkpt>
<trkpt lat="33.8101521" lon="-118.3938673">
  <ele>-19.14</ele>
  <time>2026-09-02T22:12:53Z</time>
  <course>359.6</course>
  <speed>0.47</speed>
  <fix>3d</fix>
</trkpt>
<trkpt lat="33.8101532" lon="-118.3938675">
  <ele>-19.683</ele>
  <time>2026-09-02T22:12:53Z</time>
  <course>186.66</course>
  <speed>0.47010637094172636</speed>
  <fix>3d</fix>
</trkpt>
<trkpt lat="33.8101521" lon="-118.3938673">
  <ele>-19.14</ele>
  <time>2026-09-02T22:12:53Z</time>
  <course>359.6</course>
  <speed>0.47</speed>
  <fix>3d</fix>
</trkpt>
<trkpt lat="33.8101536" lon="-118.3938675">
  <ele>-19.707</ele>
  <time>2026-09-02T22:12:53Z</time>
  <course>186.66</course>
  <speed>0.47010637094172636</speed>
  <fix>3d</fix>
</trkpt>
<trkpt lat="33.810153" lon="-118.3938673">
  <ele>-19.18</ele>
  <time>2026-09-02T22:12:53Z</time>
  <course>359.59</course>
  <speed>0.46</speed>
  <fix>3d</fix>
</trkpt>
<trkpt lat="33.810154" lon="-118.3938675">
  <ele>-19.731</ele>
  <time>2026-09-02T22:12:53Z</time>
  <course>186.66</course>
  <speed>0.47010637094172636</speed>
  <fix>3d</fix>
</trkpt>
<trkpt lat="33.810153" lon="-118.3938673">
  <ele>-19.18</ele>
  <time>2026-09-02T22:12:53Z</time>
  <course>359.59</course>
  <speed>0.46</speed>
  <fix>3d</fix>
</trkpt>
<trkpt lat="33.8101544" lon="-118.3938675">
  <ele>-19.753</ele>
  <time>2026-09-02T22:12:53Z</time>
  <course>186.66</course>
  <speed>0.4801041553663121</speed>
  <fix>3d</fix>
</trkpt>
<trkpt lat="33.8101537" lon="-118.3938673">
  <ele>-19.23</ele>
  <time>2026-09-02T22:12:53Z</time>
  <course>359.6</course>
  <speed>0.45</speed>
  <fix>3d</fix>
</trkpt>
<trkpt lat="33.8101548" lon="-118.3938675">
  <ele>-19.772</ele>
  <time>2026-09-02T22:12:53Z</time>
  <course>186.66</course>
  <speed>0.4801041553663121</speed>
  <fix>3d</fix>
</trkpt>
<trkpt lat="33.8101537" lon="-118.3938673">
  <ele>-19.23</ele>
  <time>2026-09-02T22:12:53Z</time>
  <course>359.6</course>
  <speed>0.45</speed>
  <fix>3d</fix>
</trkpt>
<trkpt lat="33.8101553" lon="-118.3938675">
  <ele>-19.788</ele>
  <time>2026-09-02T22:12:53Z</time>
  <course>186.66</course>
  <speed>0.4801041553663121</speed>
  <fix>3d</fix>
</trkpt>
<trkpt lat="33.8101546" lon="-118.3938673">
  <ele>-19.27</ele>
  <time>2026-09-02T22:12:53Z</time>
  <course>359.58</course>
  <speed>0.46</speed>
  <fix>3d</fix>
</trkpt>
<trkpt lat="33.8101557" lon="-118.3938675">
  <ele>-19.801</ele>
  <time>2026-09-02T22:12:53Z</time>
  <course>186.66</course>
  <speed>0.4901020301937138</speed>
  <fix>3d</fix>
</trkpt>
<trkpt lat="33.8101546" lon="-118.3938673">
  <ele>-19.27</ele>
  <time>2026-09-02T22:12:53Z</time>
  <course>359.58</course>
  <speed>0.46</speed>
  <fix>3d</fix>
</trkpt>
<trkpt lat="33.8101561" lon="-118.3938675">
  <ele>-19.813</ele>
  <time>2026-09-02T22:12:53Z</time>
  <course>186.66</course>
  <speed>0.4901020301937138</speed>
  <fix>3d</fix>
</trkpt>
<trkpt lat="33.8101554" lon="-118.3938673">
  <ele>-19.3</ele>
  <time>2026-09-02T22:12:53Z</time>
  <course>359.54</course>
  <speed>0.46</speed>
  <fix>3d</fix>
</trkpt>
<trkpt lat="33.8101565" lon="-118.3938675">
  <ele>-19.823</ele>
  <time>2026-09-02T22:12:53Z</time>
  <course>186.66</course>
  <speed>0.4901020301937138</speed>
  <fix>3d</fix>
</trkpt>
<trkpt lat="33.8101554" lon="-118.3938673">
  <ele>-19.3</ele>
  <time>2026-09-02T22:12:53Z</time>
  <course>359.54</course>
  <speed>0.46</speed>
  <fix>3d</fix>
</trkpt>
<trkpt lat="33.810157" lon="-118.3938675">
  <ele>-19.833</ele>
  <time>2026-09-02T22:12:53Z</time>
  <course>186.66</course>
  <speed>0.4901020301937138</speed>
  <fix>3d</fix>
</trkpt>
<trkpt lat="33.8101562" lon="-118.3938673">
  <ele>-19.33</ele>
  <time>2026-09-02T22:12:53Z</time>
  <course>359.48</course>
  <speed>0.47</speed>
  <fix>3d</fix>
</trkpt>
<trkpt lat="33.8101574" lon="-118.3938675">
  <ele>-19.843</ele>
  <time>2026-09-02T22:12:53Z</time>
  <course>186.65</course>
  <speed>0.5000999900019995</speed>
  <fix>3d</fix>
</trkpt>
<trkpt lat="33.8101562" lon="-118.3938673">
  <ele>-19.33</ele>
  <time>2026-09-02T22:12:53Z</time>
  <course>359.48</course>
  <speed>0.47</speed>
  <fix>3d</fix>
</trkpt>
<trkpt lat="33.8101578" lon="-118.3938675">
  <ele>-19.854</ele>
  <time>2026-09-02T22:12:53Z</time>
  <course>186.66</course>
  <speed>0.5000999900019995</speed>
  <fix>3d</fix>
</trkpt>
<trkpt lat="33.8101571" lon="-118.3938673">
  <ele>-19.36</ele>
  <time>2026-09-02T22:12:53Z</time>
  <course>359.44</course>
  <speed>0.47</speed>
  <fix>3d</fix>
</trkpt>
<trkpt lat="33.8101582" lon="-118.3938675">
  <ele>-19.868</ele>
  <time>2026-09-02T22:12:53Z</time>
  <course>186.66</course>
  <speed>0.5000999900019995</speed>
  <fix>3d</fix>
</trkpt>
<trkpt lat="33.8101571" lon="-118.3938673">
  <ele>-19.36</ele>
  <time>2026-09-02T22:12:53Z</time>
  <course>359.44</course>
  <speed>0.47</speed>
  <fix>3d</fix>
</trkpt>
<trkpt lat="33.8101587" lon="-118.3938675">
  <ele>-19.886</ele>
  <time>2026-09-02T22:12:53Z</time>
  <course>186.66</course>
  <speed>0.5000999900019995</speed>
  <fix>3d</fix>
</trkpt>
<trkpt lat="33.8101579" lon="-118.3938673">
  <ele>-19.38</ele>
  <time>2026-09-02T22:12:53Z</time>
  <course>359.39</course>
  <speed>0.47</speed>
  <fix>3d</fix>
</trkpt>
<trkpt lat="33.8101591" lon="-118.3938675">
  <ele>-19.905</ele>
  <time>2026-09-02T22:12:53Z</time>
  <course>186.66</course>
  <speed>0.5000999900019995</speed>
  <fix>3d</fix>
</trkpt>
<trkpt lat="33.8101579" lon="-118.3938673">
  <ele>-19.38</ele>
  <time>2026-09-02T22:12:53Z</time>
  <course>359.39</course>
  <speed>0.47</speed>
  <fix>3d</fix>
</trkpt>
<trkpt lat="33.8101595" lon="-118.3938675">
  <ele>-19.924</ele>
  <time>2026-09-02T22:12:53Z</time>
  <course>186.66</course>
  <speed>0.5000999900019995</speed>
  <fix>3d</fix>
</trkpt>
<trkpt lat="33.8101588" lon="-118.3938673">
  <ele>-19.41</ele>
  <time>2026-09-02T22:12:53Z</time>
  <course>359.36</course>
  <speed>0.48</speed>
  <fix>3d</fix>
</trkpt>
<trkpt lat="33.81016" lon="-118.3938675">
  <ele>-19.945</ele>
  <time>2026-09-02T22:12:53Z</time>
  <course>186.66</course>
  <speed>0.5000999900019995</speed>
  <fix>3d</fix>
</trkpt>
<trkpt lat="33.8101588" lon="-118.3938673">
  <ele>-19.41</ele>
  <time>2026-09-02T22:12:53Z</time>
  <course>359.36</course>
  <speed>0.48</speed>
  <fix>3d</fix>
</trkpt>
<trkpt lat="33.8101604" lon="-118.3938675">
  <ele>-19.969</ele>
  <time>2026-09-02T22:12:53Z</time>
  <course>186.66</course>
  <speed>0.5000999900019995</speed>
  <fix>3d</fix>
</trkpt>
<trkpt lat="33.8101597" lon="-118.3938673">
  <ele>-19.45</ele>
  <time>2026-09-02T22:12:53Z</time>
  <course>359.36</course>
  <speed>0.48</speed>
  <fix>3d</fix>
</trkpt>
<trkpt lat="33.8101608" lon="-118.3938675">
  <ele>-19.994</ele>
  <time>2026-09-02T22:12:53Z</time>
  <course>186.66</course>
  <speed>0.5000999900019995</speed>
  <fix>3d</fix>
</trkpt>
<trkpt lat="33.8101597" lon="-118.3938673">
  <ele>-19.45</ele>
  <time>2026-09-02T22:12:53Z</time>
  <course>359.36</course>
  <speed>0.48</speed>
  <fix>3d</fix>
</trkpt>
<trkpt lat="33.8101613" lon="-118.3938675">
  <ele>-20.018</ele>
  <time>2026-09-02T22:12:53Z</time>
  <course>186.66</course>
  <speed>0.5000999900019995</speed>
  <fix>3d</fix>
</trkpt>
<trkpt lat="33.8101605" lon="-118.3938674">
  <ele>-19.49</ele>
  <time>2026-09-02T22:12:53Z</time>
  <course>359.35</course>
  <speed>0.48</speed>
  <fix>3d</fix>
</trkpt>
<trkpt lat="33.8101617" lon="-118.3938675">
  <ele>-20.042</ele>
  <time>2026-09-02T22:12:53Z</time>
  <course>186.66</course>
  <speed>0.5000999900019995</speed>
  <fix>3d</fix>
</trkpt>
<trkpt lat="33.8101605" lon="-118.3938674">
  <ele>-19.49</ele>
  <time>2026-09-02T22:12:53Z</time>
  <course>359.35</course>
  <speed>0.48</speed>
  <fix>3d</fix>
</trkpt>
<trkpt lat="33.8101621" lon="-118.3938675">
  <ele>-20.067</ele>
  <time>2026-09-02T22:12:53Z</time>
  <course>186.66</course>
  <speed>0.5000999900019995</speed>
  <fix>3d</fix>
</trkpt>
<trkpt lat="33.8101614" lon="-118.3938674">
  <ele>-19.54</ele>
  <time>2026-09-02T22:12:53Z</time>
  <course>359.39</course>
  <speed>0.48</speed>
  <fix>3d</fix>
</trkpt>
<trkpt lat="33.8101626" lon="-118.3938675">
  <ele>-20.091</ele>
  <time>2026-09-02T22:12:53Z</time>
  <course>186.66</course>
  <speed>0.510098029794274</speed>
  <fix>3d</fix>
</trkpt>
<trkpt lat="33.8101614" lon="-118.3938674">
  <ele>-19.54</ele>
  <time>2026-09-02T22:12:53Z</time>
  <course>359.39</course>
  <speed>0.48</speed>
  <fix>3d</fix>
</trkpt>
<trkpt lat="33.810163" lon="-118.3938675">
  <ele>-20.116</ele>
  <time>2026-09-02T22:12:53Z</time>
  <course>186.66</course>
  <speed>0.5000999900019995</speed>
  <fix>3d</fix>
</trkpt>
<trkpt lat="33.8101623" lon="-118.3938674">
  <ele>-19.58</ele>
  <time>2026-09-02T22:12:53Z</time>
  <course>359.54</course>
  <speed>0.48</speed>
  <fix>3d</fix>
</trkpt>
<trkpt lat="33.8101634" lon="-118.3938675">
  <ele>-20.143</ele>
  <time>2026-09-02T22:12:53Z</time>
  <course>186.66</course>
  <speed>0.510098029794274</speed>
  <fix>3d</fix>
</trkpt>
<trkpt lat="33.8101623" lon="-118.3938674">
  <ele>-19.58</ele>
  <time>2026-09-02T22:12:53Z</time>
  <course>359.54</course>
  <speed>0.48</speed>
  <fix>3d</fix>
</trkpt>
<trkpt lat="33.8101639" lon="-118.3938675">
  <ele>-20.17</ele>
  <time>2026-09-02T22:12:53Z</time>
  <course>186.66</course>
  <speed>0.510098029794274</speed>
  <fix>3d</fix>
</trkpt>
<trkpt lat="33.8101632" lon="-118.3938674">
  <ele>-19.63</ele>
  <time>2026-09-02T22:12:53Z</time>
  <course>359.73</course>
  <speed>0.48</speed>
  <fix>3d</fix>
</trkpt>
<trkpt lat="33.8101643" lon="-118.3938675">
  <ele>-20.194</ele>
  <time>2026-09-02T22:12:53Z</time>
  <course>186.66</course>
  <speed>0.510098029794274</speed>
  <fix>3d</fix>
</trkpt>
<trkpt lat="33.8101632" lon="-118.3938674">
  <ele>-19.63</ele>
  <time>2026-09-02T22:12:53Z</time>
  <course>359.73</course>
  <speed>0.48</speed>
  <fix>3d</fix>
</trkpt>
<trkpt lat="33.8101648" lon="-118.3938675">
  <ele>-20.218</ele>
  <time>2026-09-02T22:12:53Z</time>
  <course>186.66</course>
  <speed>0.5000999900019995</speed>
  <fix>3d</fix>
</trkpt>
<trkpt lat="33.810164" lon="-118.3938674">
  <ele>-19.68</ele>
  <time>2026-09-02T22:12:53Z</time>
  <course>359.87</course>
  <speed>0.48</speed>
  <fix>3d</fix>
</trkpt>
<trkpt lat="33.8101652" lon="-118.3938675">
  <ele>-20.242</ele>
  <time>2026-09-02T22:12:53Z</time>
  <course>186.66</course>
  <speed>0.510098029794274</speed>
  <fix>3d</fix>
</trkpt>
<trkpt lat="33.810164" lon="-118.3938674">
  <ele>-19.68</ele>
  <time>2026-09-02T22:12:53Z</time>
  <course>359.87</course>
  <speed>0.48</speed>
  <fix>3d</fix>
</trkpt>
<trkpt lat="33.8101656" lon="-118.3938675">
  <ele>-20.266</ele>
  <time>2026-09-02T22:12:53Z</time>
  <course>186.66</course>
  <speed>0.5000999900019995</speed>
  <fix>3d</fix>
</trkpt>
<trkpt lat="33.8101649" lon="-118.3938674">
  <ele>-19.73</ele>
  <time>2026-09-02T22:12:53Z</time>
  <course>359.97</course>
  <speed>0.48</speed>
  <fix>3d</fix>
</trkpt>
<trkpt lat="33.8101661" lon="-118.3938675">
  <ele>-20.291</ele>
  <time>2026-09-02T22:12:53Z</time>
  <course>186.66</course>
  <speed>0.510098029794274</speed>
  <fix>3d</fix>
</trkpt>
<trkpt lat="33.8101649" lon="-118.3938674">
  <ele>-19.73</ele>
  <time>2026-09-02T22:12:53Z</time>
  <course>359.97</course>
  <speed>0.48</speed>
  <fix>3d</fix>
</trkpt>
<trkpt lat="33.8101665" lon="-118.3938675">
  <ele>-20.314</ele>
  <time>2026-09-02T22:12:53Z</time>
  <course>186.66</course>
  <speed>0.510098029794274</speed>
  <fix>3d</fix>
</trkpt>
<trkpt lat="33.8101658" lon="-118.3938674">
  <ele>-19.77</ele>
  <time>2026-09-02T22:12:53Z</time>
  <course>0.03</course>
  <speed>0.48</speed>
  <fix>3d</fix>
</trkpt>
<trkpt lat="33.810167" lon="-118.3938675">
  <ele>-20.335</ele>
  <time>2026-09-02T22:12:53Z</time>
  <course>186.66</course>
  <speed>0.510098029794274</speed>
  <fix>3d</fix>
</trkpt>
<trkpt lat="33.8101658" lon="-118.3938674">
  <ele>-19.77</ele>
  <time>2026-09-02T22:12:53Z</time>
  <course>0.03</course>
  <speed>0.48</speed>
  <fix>3d</fix>
</trkpt>
<trkpt lat="33.8101674" lon="-118.3938675">
  <ele>-20.355</ele>
  <time>2026-09-02T22:12:53Z</time>
  <course>186.66</course>
  <speed>0.510098029794274</speed>
  <fix>3d</fix>
</trkpt>
<trkpt lat="33.8101666" lon="-118.3938674">
  <ele>-19.82</ele>
  <time>2026-09-02T22:12:53Z</time>
  <course>0.08</course>
  <speed>0.48</speed>
  <fix>3d</fix>
</trkpt>
<trkpt lat="33.8101678" lon="-118.3938675">
  <ele>-20.374</ele>
  <time>2026-09-02T22:12:53Z</time>
  <course>186.66</course>
  <speed>0.510098029794274</speed>
  <fix>3d</fix>
</trkpt>
<trkpt lat="33.8101666" lon="-118.3938674">
  <ele>-19.82</ele>
  <time>2026-09-02T22:12:53Z</time>
  <course>0.08</course>
  <speed>0.48</speed>
  <fix>3d</fix>
</trkpt>
<trkpt lat="33.8101683" lon="-118.3938675">
  <ele>-20.391</ele>
  <time>2026-09-02T22:12:53Z</time>
  <course>186.66</course>
  <speed>0.510098029794274</speed>
  <fix>3d</fix>
</trkpt>
<trkpt lat="33.8101675" lon="-118.3938674">
  <ele>-19.85</ele>
  <time>2026-09-02T22:12:53Z</time>
  <course>0.11</course>
  <speed>0.48</speed>
  <fix>3d</fix>
</trkpt>
<trkpt lat="33.8101687" lon="-118.3938675">
  <ele>-20.407</ele>
  <time>2026-09-02T22:12:53Z</time>
  <course>186.66</course>
  <speed>0.510098029794274</speed>
  <fix>3d</fix>
</trkpt>
<trkpt lat="33.8101675" lon="-118.3938674">
  <ele>-19.85</ele>
  <time>2026-09-02T22:12:53Z</time>
  <course>0.11</course>
  <speed>0.48</speed>
  <fix>3d</fix>
</trkpt>
<trkpt lat="33.8101691" lon="-118.3938675">
  <ele>-20.425</ele>
  <time>2026-09-02T22:12:53Z</time>
  <course>186.66</course>
  <speed>0.510098029794274</speed>
  <fix>3d</fix>
</trkpt>
<trkpt lat="33.8101684" lon="-118.3938674">
  <ele>-19.89</ele>
  <time>2026-09-02T22:12:53Z</time>
  <course>0.13</course>
  <speed>0.48</speed>
  <fix>3d</fix>
</trkpt>
<trkpt lat="33.8101696" lon="-118.3938675">
  <ele>-20.445</ele>
  <time>2026-09-02T22:12:53Z</time>
  <course>186.66</course>
  <speed>0.510098029794274</speed>
  <fix>3d</fix>
</trkpt>
<trkpt lat="33.8101684" lon="-118.3938674">
  <ele>-19.89</ele>
  <time>2026-09-02T22:12:53Z</time>
  <course>0.13</course>
  <speed>0.48</speed>
  <fix>3d</fix>
</trkpt>
<trkpt lat="33.81017" lon="-118.3938675">
  <ele>-20.464</ele>
  <time>2026-09-02T22:12:53Z</time>
  <course>186.66</course>
  <speed>0.510098029794274</speed>
  <fix>3d</fix>
</trkpt>
<trkpt lat="33.8101693" lon="-118.3938674">
  <ele>-19.93</ele>
  <time>2026-09-02T22:12:53Z</time>
  <course>0.12</course>
  <speed>0.48</speed>
  <fix>3d</fix>
</trkpt>
<trkpt lat="33.8101705" lon="-118.3938675">
  <ele>-20.481</ele>
  <time>2026-09-02T22:12:53Z</time>
  <course>186.66</course>
  <speed>0.510098029794274</speed>
  <fix>3d</fix>
</trkpt>
<trkpt lat="33.8101693" lon="-118.3938674">
  <ele>-19.93</ele>
  <time>2026-09-02T22:12:53Z</time>
  <course>0.12</course>
  <speed>0.48</speed>
  <fix>3d</fix>
</trkpt>
<trkpt lat="33.8101709" lon="-118.3938675">
  <ele>-20.492</ele>
  <time>2026-09-02T22:12:53Z</time>
  <course>186.66</course>
  <speed>0.510098029794274</speed>
  <fix>3d</fix>
</trkpt>
<trkpt lat="33.8101702" lon="-118.3938674">
  <ele>-19.97</ele>
  <time>2026-09-02T22:12:53Z</time>
  <course>0.12</course>
  <speed>0.48</speed>
  <fix>3d</fix>
</trkpt>
<trkpt lat="33.8101713" lon="-118.3938675">
  <ele>-20.501</ele>
  <time>2026-09-02T22:12:53Z</time>
  <course>186.66</course>
  <speed>0.510098029794274</speed>
  <fix>3d</fix>
</trkpt>
<trkpt lat="33.8101702" lon="-118.3938674">
  <ele>-19.97</ele>
  <time>2026-09-02T22:12:53Z</time>
  <course>0.12</course>
  <speed>0.48</speed>
  <fix>3d</fix>
</trkpt>
<trkpt lat="33.8101718" lon="-118.3938675">
  <ele>-20.512</ele>
  <time>2026-09-02T22:12:53Z</time>
  <course>186.66</course>
  <speed>0.510098029794274</speed>
  <fix>3d</fix>
</trkpt>
<trkpt lat="33.8101711" lon="-118.3938674">
  <ele>-20.0</ele>
  <time>2026-09-02T22:12:53Z</time>
  <course>0.16</course>
  <speed>0.48</speed>
  <fix>3d</fix>
</trkpt>
<trkpt lat="33.8101722" lon="-118.3938675">
  <ele>-20.524</ele>
  <time>2026-09-02T22:12:53Z</time>
  <course>186.66</course>
  <speed>0.510098029794274</speed>
  <fix>3d</fix>
</trkpt>
<trkpt lat="33.8101711" lon="-118.3938674">
  <ele>-20.0</ele>
  <time>2026-09-02T22:12:53Z</time>
  <course>0.16</course>
  <speed>0.48</speed>
  <fix>3d</fix>
</trkpt>
<trkpt lat="33.8101727" lon="-118.3938675">
  <ele>-20.541</ele>
  <time>2026-09-02T22:12:53Z</time>
  <course>186.66</course>
  <speed>0.510098029794274</speed>
  <fix>3d</fix>
</trkpt>
<trkpt lat="33.8101719" lon="-118.3938674">
  <ele>-20.02</ele>
  <time>2026-09-02T22:12:53Z</time>
  <course>0.21</course>
  <speed>0.48</speed>
  <fix>3d</fix>
</trkpt>
<trkpt lat="33.8101731" lon="-118.3938675">
  <ele>-20.563</ele>
  <time>2026-09-02T22:12:53Z</time>
  <course>186.66</course>
  <speed>0.510098029794274</speed>
  <fix>3d</fix>
</trkpt>
<trkpt lat="33.8101719" lon="-118.3938674">
  <ele>-20.02</ele>
  <time>2026-09-02T22:12:53Z</time>
  <course>0.21</course>
  <speed>0.48</speed>
  <fix>3d</fix>
</trkpt>
<trkpt lat="33.8101735" lon="-118.3938675">
  <ele>-20.586</ele>
  <time>2026-09-02T22:12:53Z</time>
  <course>186.66</course>
  <speed>0.47010637094172636</speed>
  <fix>3d</fix>
</trkpt>
<trkpt lat="33.8101728" lon="-118.3938674">
  <ele>-20.06</ele>
  <time>2026-09-02T22:12:53Z</time>
  <course>0.23</course>
  <speed>0.48</speed>
  <fix>3d</fix>
</trkpt>
<trkpt lat="33.8101739" lon="-118.3938675">
  <ele>-20.61</ele>
  <time>2026-09-02T22:12:53Z</time>
  <course>186.66</course>
  <speed>0.4801041553663121</speed>
  <fix>3d</fix>
</trkpt>
<trkpt lat="33.8101728" lon="-118.3938674">
  <ele>-20.06</ele>
  <time>2026-09-02T22:12:53Z</time>
  <course>0.23</course>
  <speed>0.48</speed>
  <fix>3d</fix>
</trkpt>
<trkpt lat="33.8101744" lon="-118.3938675">
  <ele>-20.636</ele>
  <time>2026-09-02T22:12:53Z</time>
  <course>186.66</course>
  <speed>0.4801041553663121</speed>
  <fix>3d</fix>
</trkpt>
<trkpt lat="33.8101736" lon="-118.3938674">
  <ele>-20.1</ele>
  <time>2026-09-02T22:12:53Z</time>
  <course>0.29</course>
  <speed>0.47</speed>
  <fix>3d</fix>
</trkpt>
<trkpt lat="33.8101748" lon="-118.3938675">
  <ele>-20.665</ele>
  <time>2026-09-02T22:12:53Z</time>
  <course>186.66</course>
  <speed>0.4801041553663121</speed>
  <fix>3d</fix>
</trkpt>
<trkpt lat="33.8101736" lon="-118.3938674">
  <ele>-20.1</ele>
  <time>2026-09-02T22:12:53Z</time>
  <course>0.29</course>
  <speed>0.47</speed>
  <fix>3d</fix>
</trkpt>
<trkpt lat="33.8101752" lon="-118.3938675">
  <ele>-20.696</ele>
  <time>2026-09-02T22:12:53Z</time>
  <course>186.66</course>
  <speed>0.4901020301937138</speed>
  <fix>3d</fix>
</trkpt>
<trkpt lat="33.8101745" lon="-118.3938674">
  <ele>-20.15</ele>
  <time>2026-09-02T22:12:53Z</time>
  <course>0.36</course>
  <speed>0.46</speed>
  <fix>3d</fix>
</trkpt>
<trkpt lat="33.8101756" lon="-118.3938675">
  <ele>-20.726</ele>
  <time>2026-09-02T22:12:53Z</time>
  <course>186.66</course>
  <speed>0.4901020301937138</speed>
  <fix>3d</fix>
</trkpt>
<trkpt lat="33.8101745" lon="-118.3938674">
  <ele>-20.15</ele>
  <time>2026-09-02T22:12:53Z</time>
  <course>0.36</course>
  <speed>0.46</speed>
  <fix>3d</fix>
</trkpt>
<trkpt lat="33.810176" lon="-118.3938675">
  <ele>-20.754</ele>
  <time>2026-09-02T22:12:53Z</time>
  <course>186.66</course>
  <speed>0.4901020301937138</speed>
  <fix>3d</fix>
</trkpt>
<trkpt lat="33.8101753" lon="-118.3938674">
  <ele>-20.2</ele>
  <time>2026-09-02T22:12:53Z</time>
  <course>0.38</course>
  <speed>0.46</speed>
  <fix>3d</fix>
</trkpt>
<trkpt lat="33.8101765" lon="-118.3938675">
  <ele>-20.781</ele>
  <time>2026-09-02T22:12:53Z</time>
  <course>186.66</course>
  <speed>0.5000999900019995</speed>
  <fix>3d</fix>
</trkpt>
<trkpt lat="33.8101753" lon="-118.3938674">
  <ele>-20.2</ele>
  <time>2026-09-02T22:12:53Z</time>
  <course>0.38</course>
  <speed>0.46</speed>
  <fix>3d</fix>
</trkpt>
<trkpt lat="33.8101769" lon="-118.3938675">
  <ele>-20.809</ele>
  <time>2026-09-02T22:12:53Z</time>
  <course>186.66</course>
  <speed>0.5000999900019995</speed>
  <fix>3d</fix>
</trkpt>
<trkpt lat="33.8101762" lon="-118.3938674">
  <ele>-20.25</ele>
  <time>2026-09-02T22:12:53Z</time>
  <course>0.37</course>
  <speed>0.47</speed>
  <fix>3d</fix>
</trkpt>
<trkpt lat="33.8101773" lon="-118.3938675">
  <ele>-20.834</ele>
  <time>2026-09-02T22:12:53Z</time>
  <course>186.66</course>
  <speed>0.5000999900019995</speed>
  <fix>3d</fix>
</trkpt>
<trkpt lat="33.8101762" lon="-118.3938674">
  <ele>-20.25</ele>
  <time>2026-09-02T22:12:53Z</time>
  <course>0.37</course>
  <speed>0.47</speed>
  <fix>3d</fix>
</trkpt>
<trkpt lat="33.8101778" lon="-118.3938675">
  <ele>-20.859</ele>
  <time>2026-09-02T22:12:53Z</time>
  <course>186.66</course>
  <speed>0.5000999900019995</speed>
  <fix>3d</fix>
</trkpt>
<trkpt lat="33.810177" lon="-118.3938674">
  <ele>-20.31</ele>
  <time>2026-09-02T22:12:53Z</time>
  <course>0.36</course>
  <speed>0.48</speed>
  <fix>3d</fix>
</trkpt>
<trkpt lat="33.8101782" lon="-118.3938675">
  <ele>-20.883</ele>
  <time>2026-09-02T22:12:53Z</time>
  <course>186.66</course>
  <speed>0.5000999900019995</speed>
  <fix>3d</fix>
</trkpt>
<trkpt lat="33.810177" lon="-118.3938674">
  <ele>-20.31</ele>
  <time>2026-09-02T22:12:53Z</time>
  <course>0.36</course>
  <speed>0.48</speed>
  <fix>3d</fix>
</trkpt>
<trkpt lat="33.8101786" lon="-118.3938675">
  <ele>-20.906</ele>
  <time>2026-09-02T22:12:53Z</time>
  <course>186.66</course>
  <speed>0.510098029794274</speed>
  <fix>3d</fix>
</trkpt>
<trkpt lat="33.8101779" lon="-118.3938674">
  <ele>-20.36</ele>
  <time>2026-09-02T22:12:53Z</time>
  <course>0.36</course>
  <speed>0.48</speed>
  <fix>3d</fix>
</trkpt>
<trkpt lat="33.8101791" lon="-118.3938675">
  <ele>-20.926</ele>
  <time>2026-09-02T22:12:53Z</time>
  <course>186.66</course>
  <speed>0.5000999900019995</speed>
  <fix>3d</fix>
</trkpt>
<trkpt lat="33.8101779" lon="-118.3938674">
  <ele>-20.36</ele>
  <time>2026-09-02T22:12:53Z</time>
  <course>0.36</course>
  <speed>0.48</speed>
  <fix>3d</fix>
</trkpt>
<trkpt lat="33.8101795" lon="-118.3938675">
  <ele>-20.943</ele>
  <time>2026-09-02T22:12:53Z</time>
  <course>186.66</course>
  <speed>0.47010637094172636</speed>
  <fix>3d</fix>
</trkpt>
<trkpt lat="33.8101788" lon="-118.3938674">
  <ele>-20.4</ele>
  <time>2026-09-02T22:12:53Z</time>
  <course>0.39</course>
  <speed>0.47</speed>
  <fix>3d</fix>
</trkpt>
<trkpt lat="33.8101799" lon="-118.3938675">
  <ele>-20.96</ele>
  <time>2026-09-02T22:12:53Z</time>
  <course>186.66</course>
  <speed>0.4801041553663121</speed>
  <fix>3d</fix>
</trkpt>
<trkpt lat="33.8101788" lon="-118.3938674">
  <ele>-20.4</ele>
  <time>2026-09-02T22:12:53Z</time>
  <course>0.39</course>
  <speed>0.47</speed>
  <fix>3d</fix>
</trkpt>
<trkpt lat="33.8101803" lon="-118.3938675">
  <ele>-20.977</ele>
  <time>2026-09-02T22:12:53Z</time>
  <course>186.66</course>
  <speed>0.4801041553663121</speed>
  <fix>3d</fix>
</trkpt>
<trkpt lat="33.8101797" lon="-118.3938674">
  <ele>-20.43</ele>
  <time>2026-09-02T22:12:53Z</time>
  <course>0.46</course>
  <speed>0.46</speed>
  <fix>3d</fix>
</trkpt>
<trkpt lat="33.8101807" lon="-118.3938675">
  <ele>-20.992</ele>
  <time>2026-09-02T22:12:53Z</time>
  <course>186.66</course>
  <speed>0.4901020301937138</speed>
  <fix>3d</fix>
</trkpt>
<trkpt lat="33.8101797" lon="-118.3938674">
  <ele>-20.43</ele>
  <time>2026-09-02T22:12:53Z</time>
  <course>0.46</course>
  <speed>0.46</speed>
  <fix>3d</fix>
</trkpt>
<trkpt lat="33.8101812" lon="-118.3938675">
  <ele>-21.001</ele>
  <time>2026-09-02T22:12:53Z</time>
  <course>186.66</course>
  <speed>0.4901020301937138</speed>
  <fix>3d</fix>
</trkpt>
<trkpt lat="33.8101805" lon="-118.3938674">
  <ele>-20.47</ele>
  <time>2026-09-02T22:12:53Z</time>
  <course>0.56</course>
  <speed>0.46</speed>
  <fix>3d</fix>
</trkpt>
<trkpt lat="33.8101816" lon="-118.3938675">
  <ele>-21.009</ele>
  <time>2026-09-02T22:12:53Z</time>
  <course>186.66</course>
  <speed>0.4901020301937138</speed>
  <fix>3d</fix>
</trkpt>
<trkpt lat="33.8101805" lon="-118.3938674">
  <ele>-20.47</ele>
  <time>2026-09-02T22:12:53Z</time>
  <course>0.56</course>
  <speed>0.46</speed>
  <fix>3d</fix>
</trkpt>
<trkpt lat="33.810182" lon="-118.3938675">
  <ele>-21.015</ele>
  <time>2026-09-02T22:12:53Z</time>
  <course>186.66</course>
  <speed>0.5000999900019995</speed>
  <fix>3d</fix>
</trkpt>
<trkpt lat="33.8101813" lon="-118.3938674">
  <ele>-20.49</ele>
  <time>2026-09-02T22:12:53Z</time>
  <course>0.58</course>
  <speed>0.47</speed>
  <fix>3d</fix>
</trkpt>
<trkpt lat="33.8101825" lon="-118.3938675">
  <ele>-21.021</ele>
  <time>2026-09-02T22:12:53Z</time>
  <course>186.66</course>
  <speed>0.5000999900019995</speed>
  <fix>3d</fix>
</trkpt>
<trkpt lat="33.8101813" lon="-118.3938674">
  <ele>-20.49</ele>
  <time>2026-09-02T22:12:53Z</time>
  <course>0.58</course>
  <speed>0.47</speed>
  <fix>3d</fix>
</trkpt>
<trkpt lat="33.8101829" lon="-118.3938675">
  <ele>-21.027</ele>
  <time>2026-09-02T22:12:53Z</time>
  <course>186.66</course>
  <speed>0.5000999900019995</speed>
  <fix>3d</fix>
</trkpt>
<trkpt lat="33.8101822" lon="-118.3938674">
  <ele>-20.5</ele>
  <time>2026-09-02T22:12:53Z</time>
  <course>0.58</course>
  <speed>0.47</speed>
  <fix>3d</fix>
</trkpt>
<trkpt lat="33.8101833" lon="-118.3938675">
  <ele>-21.032</ele>
  <time>2026-09-02T22:12:53Z</time>
  <course>186.66</course>
  <speed>0.5000999900019995</speed>
  <fix>3d</fix>
</trkpt>
<trkpt lat="33.8101822" lon="-118.3938674">
  <ele>-20.5</ele>
  <time>2026-09-02T22:12:53Z</time>
  <course>0.58</course>
  <speed>0.47</speed>
  <fix>3d</fix>
</trkpt>
<trkpt lat="33.8101838" lon="-118.3938675">
  <ele>-21.038</ele>
  <time>2026-09-02T22:12:53Z</time>
  <course>186.66</course>
  <speed>0.5000999900019995</speed>
  <fix>3d</fix>
</trkpt>
<trkpt lat="33.810183" lon="-118.3938674">
  <ele>-20.51</ele>
  <time>2026-09-02T22:12:53Z</time>
  <course>0.59</course>
  <speed>0.48</speed>
  <fix>3d</fix>
</trkpt>
<trkpt lat="33.8101842" lon="-118.3938675">
  <ele>-21.049</ele>
  <time>2026-09-02T22:12:53Z</time>
  <course>186.66</course>
  <speed>0.47010637094172636</speed>
  <fix>3d</fix>
</trkpt>
<trkpt lat="33.810183" lon="-118.3938674">
  <ele>-20.51</ele>
  <time>2026-09-02T22:12:53Z</time>
  <course>0.59</course>
  <speed>0.48</speed>
  <fix>3d</fix>
</trkpt>
<trkpt lat="33.8101846" lon="-118.3938675">
  <ele>-21.064</ele>
  <time>2026-09-02T22:12:53Z</time>
  <course>186.66</course>
  <speed>0.4801041553663121</speed>
  <fix>3d</fix>
</trkpt>
<trkpt lat="33.8101839" lon="-118.3938674">
  <ele>-20.53</ele>
  <time>2026-09-02T22:12:53Z</time>
  <course>0.65</course>
  <speed>0.47</speed>
  <fix>3d</fix>
</trkpt>
<trkpt lat="33.810185" lon="-118.3938675">
  <ele>-21.083</ele>
  <time>2026-09-02T22:12:53Z</time>
  <course>186.66</course>
  <speed>0.4801041553663121</speed>
  <fix>3d</fix>
</trkpt>
<trkpt lat="33.8101839" lon="-118.3938674">
  <ele>-20.53</ele>
  <time>2026-09-02T22:12:53Z</time>
  <course>0.65</course>
  <speed>0.47</speed>
  <fix>3d</fix>
</trkpt>
<trkpt lat="33.8101854" lon="-118.3938675">
  <ele>-21.101</ele>
  <time>2026-09-02T22:12:53Z</time>
  <course>186.66</course>
  <speed>0.4901020301937138</speed>
  <fix>3d</fix>
</trkpt>
<trkpt lat="33.8101846" lon="-118.3938674">
  <ele>-20.56</ele>
  <time>2026-09-02T22:12:53Z</time>
  <course>0.68</course>
  <speed>0.46</speed>
  <fix>3d</fix>
</trkpt>
<trkpt lat="33.8101858" lon="-118.3938675">
  <ele>-21.12</ele>
  <time>2026-09-02T22:12:53Z</time>
  <course>186.66</course>
  <speed>0.4901020301937138</speed>
  <fix>3d</fix>
</trkpt>
<trkpt lat="33.8101846" lon="-118.3938674">
  <ele>-20.56</ele>
  <time>2026-09-02T22:12:53Z</time>
  <course>0.68</course>
  <speed>0.46</speed>
  <fix>3d</fix>
</trkpt>
<trkpt lat="33.8101863" lon="-118.3938675">
  <ele>-21.141</ele>
  <time>2026-09-02T22:12:53Z</time>
  <course>186.66</course>
  <speed>0.5000999900019995</speed>
  <fix>3d</fix>
</trkpt>
<trkpt lat="33.8101855" lon="-118.3938673">
  <ele>-20.59</ele>
  <time>2026-09-02T22:12:53Z</time>
  <course>0.65</course>
  <speed>0.47</speed>
  <fix>3d</fix>
</trkpt>
<trkpt lat="33.8101867" lon="-118.3938675">
  <ele>-21.164</ele>
  <time>2026-09-02T22:12:53Z</time>
  <course>186.66</course>
  <speed>0.5000999900019995</speed>
  <fix>3d</fix>
</trkpt>
<trkpt lat="33.8101855" lon="-118.3938673">
  <ele>-20.59</ele>
  <time>2026-09-02T22:12:53Z</time>
  <course>0.65</course>
  <speed>0.47</speed>
  <fix>3d</fix>
</trkpt>
<trkpt lat="33.8101871" lon="-118.3938675">
  <ele>-21.187</ele>
  <time>2026-09-02T22:12:53Z</time>
  <course>186.66</course>
  <speed>0.5000999900019995</speed>
  <fix>3d</fix>
</trkpt>
<trkpt lat="33.8101864" lon="-118.3938673">
  <ele>-20.63</ele>
  <time>2026-09-02T22:12:53Z</time>
  <course>0.56</course>
  <speed>0.48</speed>
  <fix>3d</fix>
</trkpt>
<trkpt lat="33.8101875" lon="-118.3938675">
  <ele>-21.21</ele>
  <time>2026-09-02T22:12:53Z</time>
  <course>186.66</course>
  <speed>0.5000999900019995</speed>
  <fix>3d</fix>
</trkpt>
<trkpt lat="33.8101864" lon="-118.3938673">
  <ele>-20.63</ele>
  <time>2026-09-02T22:12:53Z</time>
  <course>0.56</course>
  <speed>0.48</speed>
  <fix>3d</fix>
</trkpt>
<trkpt lat="33.8101879" lon="-118.3938675">
  <ele>-21.23</ele>
  <time>2026-09-02T22:12:53Z</time>
  <course>186.66</course>
  <speed>0.47010637094172636</speed>
  <fix>3d</fix>
</trkpt>
<trkpt lat="33.8101872" lon="-118.3938673">
  <ele>-20.68</ele>
  <time>2026-09-02T22:12:53Z</time>
  <course>0.4</course>
  <speed>0.47</speed>
  <fix>3d</fix>
</trkpt>
<trkpt lat="33.8101884" lon="-118.3938675">
  <ele>-21.251</ele>
  <time>2026-09-02T22:12:53Z</time>
  <course>186.66</course>
  <speed>0.4801041553663121</speed>
  <fix>3d</fix>
</trkpt>
<trkpt lat="33.8101872" lon="-118.3938673">
  <ele>-20.68</ele>
  <time>2026-09-02T22:12:53Z</time>
  <course>0.4</course>
  <speed>0.47</speed>
  <fix>3d</fix>
</trkpt>
<trkpt lat="33.8101888" lon="-118.3938675">
  <ele>-21.277</ele>
  <time>2026-09-02T22:12:53Z</time>
  <course>186.66</course>
  <speed>0.4901020301937138</speed>
  <fix>3d</fix>
</trkpt>
<trkpt lat="33.8101881" lon="-118.3938673">
  <ele>-20.72</ele>
  <time>2026-09-02T22:12:53Z</time>
  <course>0.27</course>
  <speed>0.46</speed>
  <fix>3d</fix>
</trkpt>
<trkpt lat="33.8101892" lon="-118.3938675">
  <ele>-21.307</ele>
  <time>2026-09-02T22:12:53Z</time>
  <course>186.66</course>
  <speed>0.4901020301937138</speed>
  <fix>3d</fix>
</trkpt>
<trkpt lat="33.8101881" lon="-118.3938673">
  <ele>-20.72</ele>
  <time>2026-09-02T22:12:53Z</time>
  <course>0.27</course>
  <speed>0.46</speed>
  <fix>3d</fix>
</trkpt>
<trkpt lat="33.8101896" lon="-118.3938675">
  <ele>-21.337</ele>
  <time>2026-09-02T22:12:53Z</time>
  <course>186.66</course>
  <speed>0.5000999900019995</speed>
  <fix>3d</fix>
</trkpt>
<trkpt lat="33.8101889" lon="-118.3938673">
  <ele>-20.76</ele>
  <time>2026-09-02T22:12:53Z</time>
  <course>0.16</course>
  <speed>0.47</speed>
  <fix>3d</fix>
</trkpt>
<trkpt lat="33.81019" lon="-118.3938675">
  <ele>-21.367</ele>
  <time>2026-09-02T22:12:53Z</time>
  <course>186.66</course>
  <speed>0.5000999900019995</speed>
  <fix>3d</fix>
</trkpt>
<trkpt lat="33.8101889" lon="-118.3938673">
  <ele>-20.76</ele>
  <time>2026-09-02T22:12:53Z</time>
  <course>0.16</course>
  <speed>0.47</speed>
  <fix>3d</fix>
</trkpt>
<trkpt lat="33.8101905" lon="-118.3938675">
  <ele>-21.394</ele>
  <time>2026-09-02T22:12:53Z</time>
  <course>186.66</course>
  <speed>0.5000999900019995</speed>
  <fix>3d</fix>
</trkpt>
<trkpt lat="33.8101898" lon="-118.3938673">
  <ele>-20.81</ele>
  <time>2026-09-02T22:12:53Z</time>
  <course>0.04</course>
  <speed>0.48</speed>
  <fix>3d</fix>
</trkpt>
<trkpt lat="33.8101909" lon="-118.3938675">
  <ele>-21.419</ele>
  <time>2026-09-02T22:12:53Z</time>
  <course>186.66</course>
  <speed>0.510098029794274</speed>
  <fix>3d</fix>
</trkpt>
<trkpt lat="33.8101898" lon="-118.3938673">
  <ele>-20.81</ele>
  <time>2026-09-02T22:12:53Z</time>
  <course>0.04</course>
  <speed>0.48</speed>
  <fix>3d</fix>
</trkpt>
<trkpt lat="33.8101913" lon="-118.3938675">
  <ele>-21.442</ele>
  <time>2026-09-02T22:12:53Z</time>
  <course>186.66</course>
  <speed>0.47010637094172636</speed>
  <fix>3d</fix>
</trkpt>
<trkpt lat="33.8101906" lon="-118.3938673">
  <ele>-20.86</ele>
  <time>2026-09-02T22:12:53Z</time>
  <course>359.97</course>
  <speed>0.48</speed>
  <fix>3d</fix>
</trkpt>
<trkpt lat="33.8101917" lon="-118.3938675">
  <ele>-21.462</ele>
  <time>2026-09-02T22:12:53Z</time>
  <course>186.66</course>
  <speed>0.4801041553663121</speed>
  <fix>3d</fix>
</trkpt>
<trkpt lat="33.8101906" lon="-118.3938673">
  <ele>-20.86</ele>
  <time>2026-09-02T22:12:53Z</time>
  <course>359.97</course>
  <speed>0.48</speed>
  <fix>3d</fix>
</trkpt>
<trkpt lat="33.8101922" lon="-118.3938675">
  <ele>-21.482</ele>
  <time>2026-09-02T22:12:53Z</time>
  <course>186.66</course>
  <speed>0.4801041553663121</speed>
  <fix>3d</fix>
</trkpt>
<trkpt lat="33.8101915" lon="-118.3938673">
  <ele>-20.91</ele>
  <time>2026-09-02T22:12:53Z</time>
  <course>359.97</course>
  <speed>0.47</speed>
  <fix>3d</fix>
</trkpt>
<trkpt lat="33.8101926" lon="-118.3938675">
  <ele>-21.501</ele>
  <time>2026-09-02T22:12:53Z</time>
  <course>186.66</course>
  <speed>0.4901020301937138</speed>
  <fix>3d</fix>
</trkpt>
<trkpt lat="33.8101915" lon="-118.3938673">
  <ele>-20.91</ele>
  <time>2026-09-02T22:12:53Z</time>
  <course>359.97</course>
  <speed>0.47</speed>
  <fix>3d</fix>
</trkpt>
<trkpt lat="33.810193" lon="-118.3938675">
  <ele>-21.518</ele>
  <time>2026-09-02T22:12:53Z</time>
  <course>186.66</course>
  <speed>0.4901020301937138</speed>
  <fix>3d</fix>
</trkpt>
<trkpt lat="33.8101924" lon="-118.3938673">
  <ele>-20.96</ele>
  <time>2026-09-02T22:12:53Z</time>
  <course>0.0</course>
  <speed>0.46</speed>
  <fix>3d</fix>
</trkpt>
<trkpt lat="33.8101934" lon="-118.3938675">
  <ele>-21.531</ele>
  <time>2026-09-02T22:12:53Z</time>
  <course>186.66</course>
  <speed>0.4901020301937138</speed>
  <fix>3d</fix>
</trkpt>
<trkpt lat="33.8101924" lon="-118.3938673">
  <ele>-20.96</ele>
  <time>2026-09-02T22:12:53Z</time>
  <course>0.0</course>
  <speed>0.46</speed>
  <fix>3d</fix>
</trkpt>
<trkpt lat="33.8101939" lon="-118.3938675">
  <ele>-21.539</ele>
  <time>2026-09-02T22:12:53Z</time>
  <course>186.66</course>
  <speed>0.5000999900019995</speed>
  <fix>3d</fix>
</trkpt>
<trkpt lat="33.8101932" lon="-118.3938673">
  <ele>-20.99</ele>
  <time>2026-09-02T22:12:53Z</time>
  <course>359.99</course>
  <speed>0.47</speed>
  <fix>3d</fix>
</trkpt>
<trkpt lat="33.8101943" lon="-118.3938675">
  <ele>-21.547</ele>
  <time>2026-09-02T22:12:53Z</time>
  <course>186.66</course>
  <speed>0.5000999900019995</speed>
  <fix>3d</fix>
</trkpt>
<trkpt lat="33.8101932" lon="-118.3938673">
  <ele>-20.99</ele>
  <time>2026-09-02T22:12:53Z</time>
  <course>359.99</course>
  <speed>0.47</speed>
  <fix>3d</fix>
</trkpt>
<trkpt lat="33.8101947" lon="-118.3938675">
  <ele>-21.559</ele>
  <time>2026-09-02T22:12:53Z</time>
  <course>186.66</course>
  <speed>0.5000999900019995</speed>
  <fix>3d</fix>
</trkpt>
<trkpt lat="33.8101941" lon="-118.3938673">
  <ele>-21.01</ele>
  <time>2026-09-02T22:12:53Z</time>
  <course>359.95</course>
  <speed>0.48</speed>
  <fix>3d</fix>
</trkpt>
<trkpt lat="33.8101952" lon="-118.3938675">
  <ele>-21.574</ele>
  <time>2026-09-02T22:12:53Z</time>
  <course>186.66</course>
  <speed>0.5000999900019995</speed>
  <fix>3d</fix>
</trkpt>
<trkpt lat="33.8101941" lon="-118.3938673">
  <ele>-21.01</ele>
  <time>2026-09-02T22:12:53Z</time>
  <course>359.95</course>
  <speed>0.48</speed>
  <fix>3d</fix>
</trkpt>
<trkpt lat="33.8101956" lon="-118.3938675">
  <ele>-21.59</ele>
  <time>2026-09-02T22:12:53Z</time>
  <course>186.66</course>
  <speed>0.5000999900019995</speed>
  <fix>3d</fix>
</trkpt>
<trkpt lat="33.8101949" lon="-118.3938673">
  <ele>-21.03</ele>
  <time>2026-09-02T22:12:53Z</time>
  <course>359.91</course>
  <speed>0.48</speed>
  <fix>3d</fix>
</trkpt>
<trkpt lat="33.8101961" lon="-118.3938675">
  <ele>-21.607</ele>
  <time>2026-09-02T22:12:53Z</time>
  <course>186.66</course>
  <speed>0.510098029794274</speed>
  <fix>3d</fix>
</trkpt>
<trkpt lat="33.8101949" lon="-118.3938673">
  <ele>-21.03</ele>
  <time>2026-09-02T22:12:53Z</time>
  <course>359.91</course>
  <speed>0.48</speed>
  <fix>3d</fix>
</trkpt>
<trkpt lat="33.8101965" lon="-118.3938675">
  <ele>-21.627</ele>
  <time>2026-09-02T22:12:53Z</time>
  <course>186.66</course>
  <speed>0.510098029794274</speed>
  <fix>3d</fix>
</trkpt>
<trkpt lat="33.8101958" lon="-118.3938673">
  <ele>-21.07</ele>
  <time>2026-09-02T22:12:53Z</time>
  <course>359.87</course>
  <speed>0.48</speed>
  <fix>3d</fix>
</trkpt>
<trkpt lat="33.8101969" lon="-118.3938675">
  <ele>-21.647</ele>
  <time>2026-09-02T22:12:53Z</time>
  <course>186.66</course>
  <speed>0.510098029794274</speed>
  <fix>3d</fix>
</trkpt>
<trkpt lat="33.8101958" lon="-118.3938673">
  <ele>-21.07</ele>
  <time>2026-09-02T22:12:53Z</time>
  <course>359.87</course>
  <speed>0.48</speed>
  <fix>3d</fix>
</trkpt>
<trkpt lat="33.8101974" lon="-118.3938675">
  <ele>-21.669</ele>
  <time>2026-09-02T22:12:53Z</time>
  <course>186.66</course>
  <speed>0.510098029794274</speed>
  <fix>3d</fix>
</trkpt>
<trkpt lat="33.8101967" lon="-118.3938673">
  <ele>-21.11</ele>
  <time>2026-09-02T22:12:53Z</time>
  <course>359.86</course>
  <speed>0.49</speed>
  <fix>3d</fix>
</trkpt>
<trkpt lat="33.8101978" lon="-118.3938675">
  <ele>-21.689</ele>
  <time>2026-09-02T22:12:53Z</time>
  <course>186.66</course>
  <speed>0.510098029794274</speed>
  <fix>3d</fix>
</trkpt>
<trkpt lat="33.8101967" lon="-118.3938673">
  <ele>-21.11</ele>
  <time>2026-09-02T22:12:53Z</time>
  <course>359.86</course>
  <speed>0.49</speed>
  <fix>3d</fix>
</trkpt>
<trkpt lat="33.8101983" lon="-118.3938675">
  <ele>-21.708</ele>
  <time>2026-09-02T22:12:53Z</time>
  <course>186.66</course>
  <speed>0.510098029794274</speed>
  <fix>3d</fix>
</trkpt>
<trkpt lat="33.8101975" lon="-118.3938673">
  <ele>-21.15</ele>
  <time>2026-09-02T22:12:53Z</time>
  <course>359.87</course>
  <speed>0.49</speed>
  <fix>3d</fix>
</trkpt>
<trkpt lat="33.8101987" lon="-118.3938675">
  <ele>-21.727</ele>
  <time>2026-09-02T22:12:53Z</time>
  <course>186.66</course>
  <speed>0.510098029794274</speed>
  <fix>3d</fix>
</trkpt>
<trkpt lat="33.8101975" lon="-118.3938673">
  <ele>-21.15</ele>
  <time>2026-09-02T22:12:53Z</time>
  <course>359.87</course>
  <speed>0.49</speed>
  <fix>3d</fix>
</trkpt>
<trkpt lat="33.8101991" lon="-118.3938675">
  <ele>-21.752</ele>
  <time>2026-09-02T22:12:53Z</time>
  <course>186.66</course>
  <speed>0.4801041553663121</speed>
  <fix>3d</fix>
</trkpt>
<trkpt lat="33.8101984" lon="-118.3938673">
  <ele>-21.18</ele>
  <time>2026-09-02T22:12:53Z</time>
  <course>359.83</course>
  <speed>0.48</speed>
  <fix>3d</fix>
</trkpt>
<trkpt lat="33.8101995" lon="-118.3938675">
  <ele>-21.777</ele>
  <time>2026-09-02T22:12:53Z</time>
  <course>186.66</course>
  <speed>0.4901020301937138</speed>
  <fix>3d</fix>
</trkpt>
<trkpt lat="33.8101984" lon="-118.3938673">
  <ele>-21.18</ele>
  <time>2026-09-02T22:12:53Z</time>
  <course>359.83</course>
  <speed>0.48</speed>
  <fix>3d</fix>
</trkpt>
<trkpt lat="33.8102" lon="-118.3938675">
  <ele>-21.801</ele>
  <time>2026-09-02T22:12:53Z</time>
  <course>186.66</course>
  <speed>0.4901020301937138</speed>
  <fix>3d</fix>
</trkpt>
<trkpt lat="33.8101993" lon="-118.3938673">
  <ele>-21.23</ele>
  <time>2026-09-02T22:12:53Z</time>
  <course>359.84</course>
  <speed>0.46</speed>
  <fix>3d</fix>
</trkpt>
<trkpt lat="33.8102004" lon="-118.3938675">
  <ele>-21.824</ele>
  <time>2026-09-02T22:12:53Z</time>
  <course>186.66</course>
  <speed>0.5000999900019995</speed>
  <fix>3d</fix>
</trkpt>
<trkpt lat="33.8101993" lon="-118.3938673">
  <ele>-21.23</ele>
  <time>2026-09-02T22:12:53Z</time>
  <course>359.84</course>
  <speed>0.46</speed>
  <fix>3d</fix>
</trkpt>
<trkpt lat="33.8102008" lon="-118.3938675">
  <ele>-21.846</ele>
  <time>2026-09-02T22:12:53Z</time>
  <course>186.66</course>
  <speed>0.5000999900019995</speed>
  <fix>3d</fix>
</trkpt>
<trkpt lat="33.8102002" lon="-118.3938673">
  <ele>-21.27</ele>
  <time>2026-09-02T22:12:53Z</time>
  <course>359.88</course>
  <speed>0.47</speed>
  <fix>3d</fix>
</trkpt>
<trkpt lat="33.8102013" lon="-118.3938675">
  <ele>-21.867</ele>
  <time>2026-09-02T22:12:53Z</time>
  <course>186.66</course>
  <speed>0.5000999900019995</speed>
  <fix>3d</fix>
</trkpt>
<trkpt lat="33.8102002" lon="-118.3938673">
  <ele>-21.27</ele>
  <time>2026-09-02T22:12:53Z</time>
  <course>359.88</course>
  <speed>0.47</speed>
  <fix>3d</fix>
</trkpt>
<trkpt lat="33.8102017" lon="-118.3938675">
  <ele>-21.887</ele>
  <time>2026-09-02T22:12:53Z</time>
  <course>186.65</course>
  <speed>0.5000999900019995</speed>
  <fix>3d</fix>
</trkpt>
<trkpt lat="33.810201" lon="-118.3938673">
  <ele>-21.32</ele>
  <time>2026-09-02T22:12:53Z</time>
  <course>359.84</course>
  <speed>0.48</speed>
  <fix>3d</fix>
</trkpt>
<trkpt lat="33.8102021" lon="-118.3938675">
  <ele>-21.907</ele>
  <time>2026-09-02T22:12:53Z</time>
  <course>186.66</course>
  <speed>0.510098029794274</speed>
  <fix>3d</fix>
</trkpt>
<trkpt lat="33.810201" lon="-118.3938673">
  <ele>-21.32</ele>
  <time>2026-09-02T22:12:53Z</time>
  <course>359.84</course>
  <speed>0.48</speed>
  <fix>3d</fix>
</trkpt>
<trkpt lat="33.8102026" lon="-118.3938675">
  <ele>-21.926</ele>
  <time>2026-09-02T22:12:53Z</time>
  <course>186.66</course>
  <speed>0.510098029794274</speed>
  <fix>3d</fix>
</trkpt>
<trkpt lat="33.8102019" lon="-118.3938673">
  <ele>-21.36</ele>
  <time>2026-09-02T22:12:53Z</time>
  <course>359.8</course>
  <speed>0.48</speed>
  <fix>3d</fix>
</trkpt>
<trkpt lat="33.810203" lon="-118.3938675">
  <ele>-21.944</ele>
  <time>2026-09-02T22:12:53Z</time>
  <course>186.66</course>
  <speed>0.510098029794274</speed>
  <fix>3d</fix>
</trkpt>
<trkpt lat="33.8102019" lon="-118.3938673">
  <ele>-21.36</ele>
  <time>2026-09-02T22:12:53Z</time>
  <course>359.8</course>
  <speed>0.48</speed>
  <fix>3d</fix>
</trkpt>
<trkpt lat="33.8102035" lon="-118.3938675">
  <ele>-21.966</ele>
  <time>2026-09-02T22:12:53Z</time>
  <course>186.66</course>
  <speed>0.510098029794274</speed>
  <fix>3d</fix>
</trkpt>
<trkpt lat="33.8102028" lon="-118.3938673">
  <ele>-21.4</ele>
  <time>2026-09-02T22:12:53Z</time>
  <course>359.77</course>
  <speed>0.48</speed>
  <fix>3d</fix>
</trkpt>
<trkpt lat="33.8102039" lon="-118.3938675">
  <ele>-21.991</ele>
  <time>2026-09-02T22:12:53Z</time>
  <course>186.66</course>
  <speed>0.510098029794274</speed>
  <fix>3d</fix>
</trkpt>
<trkpt lat="33.8102028" lon="-118.3938673">
  <ele>-21.4</ele>
  <time>2026-09-02T22:12:53Z</time>
  <course>359.77</course>
  <speed>0.48</speed>
  <fix>3d</fix>
</trkpt>
<trkpt lat="33.8102043" lon="-118.3938675">
  <ele>-22.019</ele>
  <time>2026-09-02T22:12:53Z</time>
  <course>186.66</course>
  <speed>0.510098029794274</speed>
  <fix>3d</fix>
</trkpt>
<trkpt lat="33.8102036" lon="-118.3938673">
  <ele>-21.44</ele>
  <time>2026-09-02T22:12:53Z</time>
  <course>359.73</course>
  <speed>0.49</speed>
  <fix>3d</fix>
</trkpt>
<trkpt lat="33.8102048" lon="-118.3938675">
  <ele>-22.045</ele>
  <time>2026-09-02T22:12:53Z</time>
  <course>186.66</course>
  <speed>0.510098029794274</speed>
  <fix>3d</fix>
</trkpt>
<trkpt lat="33.8102036" lon="-118.3938673">
  <ele>-21.44</ele>
  <time>2026-09-02T22:12:53Z</time>
  <course>359.73</course>
  <speed>0.49</speed>
  <fix>3d</fix>
</trkpt>
<trkpt lat="33.8102052" lon="-118.3938675">
  <ele>-22.069</ele>
  <time>2026-09-02T22:12:53Z</time>
  <course>186.66</course>
  <speed>0.510098029794274</speed>
  <fix>3d</fix>
</trkpt>
<trkpt lat="33.8102045" lon="-118.3938673">
  <ele>-21.49</ele>
  <time>2026-09-02T22:12:53Z</time>
  <course>359.72</course>
  <speed>0.49</speed>
  <fix>3d</fix>
</trkpt>
<trkpt lat="33.8102057" lon="-118.3938675">
  <ele>-22.092</ele>
  <time>2026-09-02T22:12:53Z</time>
  <course>186.66</course>
  <speed>0.510098029794274</speed>
  <fix>3d</fix>
</trkpt>
<trkpt lat="33.8102045" lon="-118.3938673">
  <ele>-21.49</ele>
  <time>2026-09-02T22:12:53Z</time>
  <course>359.72</course>
  <speed>0.49</speed>
  <fix>3d</fix>
</trkpt>
<trkpt lat="33.8102061" lon="-118.3938675">
  <ele>-22.112</ele>
  <time>2026-09-02T22:12:53Z</time>
  <course>186.66</course>
  <speed>0.510098029794274</speed>
  <fix>3d</fix>
</trkpt>
<trkpt lat="33.8102054" lon="-118.3938673">
  <ele>-21.54</ele>
  <time>2026-09-02T22:12:53Z</time>
  <course>359.71</course>
  <speed>0.49</speed>
  <fix>3d</fix>
</trkpt>
<trkpt lat="33.8102066" lon="-118.3938675">
  <ele>-22.13</ele>
  <time>2026-09-02T22:12:53Z</time>
  <course>186.66</course>
  <speed>0.5200961449578337</speed>
  <fix>3d</fix>
</trkpt>
<trkpt lat="33.8102054" lon="-118.3938673">
  <ele>-21.54</ele>
  <time>2026-09-02T22:12:53Z</time>
  <course>359.71</course>
  <speed>0.49</speed>
  <fix>3d</fix>
</trkpt>
<trkpt lat="33.810207" lon="-118.3938675">
  <ele>-22.145</ele>
  <time>2026-09-02T22:12:53Z</time>
  <course>186.66</course>
  <speed>0.5200961449578337</speed>
  <fix>3d</fix>
</trkpt>
<trkpt lat="33.8102063" lon="-118.3938673">
  <ele>-21.58</ele>
  <time>2026-09-02T22:12:53Z</time>
  <course>359.7</course>
  <speed>0.49</speed>
  <fix>3d</fix>
</trkpt>
<trkpt lat="33.8102075" lon="-118.3938675">
  <ele>-22.158</ele>
  <time>2026-09-02T22:12:53Z</time>
  <course>186.66</course>
  <speed>0.5200961449578337</speed>
  <fix>3d</fix>
</trkpt>
<trkpt lat="33.8102063" lon="-118.3938673">
  <ele>-21.58</ele>
  <time>2026-09-02T22:12:53Z</time>
  <course>359.7</course>
  <speed>0.49</speed>
  <fix>3d</fix>
</trkpt>
<trkpt lat="33.8102079" lon="-118.3938675">
  <ele>-22.172</ele>
  <time>2026-09-02T22:12:53Z</time>
  <course>186.66</course>
  <speed>0.5200961449578337</speed>
  <fix>3d</fix>
</trkpt>
<trkpt lat="33.8102072" lon="-118.3938673">
  <ele>-21.61</ele>
  <time>2026-09-02T22:12:53Z</time>
  <course>359.7</course>
  <speed>0.49</speed>
  <fix>3d</fix>
</trkpt>
<trkpt lat="33.8102084" lon="-118.3938675">
  <ele>-22.185</ele>
  <time>2026-09-02T22:12:53Z</time>
  <course>186.66</course>
  <speed>0.5200961449578337</speed>
  <fix>3d</fix>
</trkpt>
<trkpt lat="33.8102072" lon="-118.3938673">
  <ele>-21.61</ele>
  <time>2026-09-02T22:12:53Z</time>
  <course>359.7</course>
  <speed>0.49</speed>
  <fix>3d</fix>
</trkpt>
<trkpt lat="33.8102088" lon="-118.3938675">
  <ele>-22.198</ele>
  <time>2026-09-02T22:12:53Z</time>
  <course>186.66</course>
  <speed>0.5200961449578337</speed>
  <fix>3d</fix>
</trkpt>
<trkpt lat="33.8102081" lon="-118.3938673">
  <ele>-21.64</ele>
  <time>2026-09-02T22:12:53Z</time>
  <course>359.69</course>
  <speed>0.49</speed>
  <fix>3d</fix>
</trkpt>
<trkpt lat="33.8102093" lon="-118.3938675">
  <ele>-22.209</ele>
  <time>2026-09-02T22:12:53Z</time>
  <course>186.66</course>
  <speed>0.5200961449578337</speed>
  <fix>3d</fix>
</trkpt>
<trkpt lat="33.8102081" lon="-118.3938673">
  <ele>-21.64</ele>
  <time>2026-09-02T22:12:53Z</time>
  <course>359.69</course>
  <speed>0.49</speed>
  <fix>3d</fix>
</trkpt>
<trkpt lat="33.8102097" lon="-118.3938675">
  <ele>-22.219</ele>
  <time>2026-09-02T22:12:53Z</time>
  <course>186.66</course>
  <speed>0.5200961449578337</speed>
  <fix>3d</fix>
</trkpt>
<trkpt lat="33.810209" lon="-118.3938673">
  <ele>-21.67</ele>
  <time>2026-09-02T22:12:53Z</time>
  <course>359.67</course>
  <speed>0.49</speed>
  <fix>3d</fix>
</trkpt>
<trkpt lat="33.8102102" lon="-118.3938675">
  <ele>-22.23</ele>
  <time>2026-09-02T22:12:53Z</time>
  <course>186.66</course>
  <speed>0.5200961449578337</speed>
  <fix>3d</fix>
</trkpt>
<trkpt lat="33.810209" lon="-118.3938673">
  <ele>-21.67</ele>
  <time>2026-09-02T22:12:53Z</time>
  <course>359.67</course>
  <speed>0.49</speed>
  <fix>3d</fix>
</trkpt>
<trkpt lat="33.8102106" lon="-118.3938675">
  <ele>-22.244</ele>
  <time>2026-09-02T22:12:53Z</time>
  <course>186.66</course>
  <speed>0.5200961449578337</speed>
  <fix>3d</fix>
</trkpt>
<trkpt lat="33.8102099" lon="-118.3938673">
  <ele>-21.69</ele>
  <time>2026-09-02T22:12:53Z</time>
  <course>359.64</course>
  <speed>0.49</speed>
  <fix>3d</fix>
</trkpt>
<trkpt lat="33.8102111" lon="-118.3938675">
  <ele>-22.262</ele>
  <time>2026-09-02T22:12:53Z</time>
  <course>186.66</course>
  <speed>0.5200961449578337</speed>
  <fix>3d</fix>
</trkpt>
<trkpt lat="33.8102099" lon="-118.3938673">
  <ele>-21.69</ele>
  <time>2026-09-02T22:12:53Z</time>
  <course>359.64</course>
  <speed>0.49</speed>
  <fix>3d</fix>
</trkpt>
<trkpt lat="33.8102115" lon="-118.3938675">
  <ele>-22.283</ele>
  <time>2026-09-02T22:12:53Z</time>
  <course>186.66</course>
  <speed>0.5200961449578337</speed>
  <fix>3d</fix>
</trkpt>
<trkpt lat="33.8102108" lon="-118.3938673">
  <ele>-21.71</ele>
  <time>2026-09-02T22:12:53Z</time>
  <course>359.62</course>
  <speed>0.49</speed>
  <fix>3d</fix>
</trkpt>
<trkpt lat="33.810212" lon="-118.3938675">
  <ele>-22.305</ele>
  <time>2026-09-02T22:12:53Z</time>
  <course>186.66</course>
  <speed>0.510098029794274</speed>
  <fix>3d</fix>
</trkpt>
<trkpt lat="33.8102108" lon="-118.3938673">
  <ele>-21.71</ele>
  <time>2026-09-02T22:12:53Z</time>
  <course>359.62</course>
  <speed>0.49</speed>
  <fix>3d</fix>
</trkpt>
<trkpt lat="33.8102124" lon="-118.3938675">
  <ele>-22.326</ele>
  <time>2026-09-02T22:12:53Z</time>
  <course>186.66</course>
  <speed>0.4801041553663121</speed>
  <fix>3d</fix>
</trkpt>
<trkpt lat="33.8102116" lon="-118.3938673">
  <ele>-21.75</ele>
  <time>2026-09-02T22:12:53Z</time>
  <course>359.58</course>
  <speed>0.48</speed>
  <fix>3d</fix>
</trkpt>
<trkpt lat="33.8102128" lon="-118.3938675">
  <ele>-22.346</ele>
  <time>2026-09-02T22:12:53Z</time>
  <course>186.66</course>
  <speed>0.4901020301937138</speed>
  <fix>3d</fix>
</trkpt>
<trkpt lat="33.8102116" lon="-118.3938673">
  <ele>-21.75</ele>
  <time>2026-09-02T22:12:53Z</time>
  <course>359.58</course>
  <speed>0.48</speed>
  <fix>3d</fix>
</trkpt>
<trkpt lat="33.8102132" lon="-118.3938675">
  <ele>-22.368</ele>
  <time>2026-09-02T22:12:53Z</time>
  <course>186.66</course>
  <speed>0.4901020301937138</speed>
  <fix>3d</fix>
</trkpt>
<trkpt lat="33.8102125" lon="-118.3938673">
  <ele>-21.79</ele>
  <time>2026-09-02T22:12:53Z</time>
  <course>359.6</course>
  <speed>0.47</speed>
  <fix>3d</fix>
</trkpt>
<trkpt lat="33.8102136" lon="-118.3938675">
  <ele>-22.39</ele>
  <time>2026-09-02T22:12:53Z</time>
  <course>186.66</course>
  <speed>0.5000999900019995</speed>
  <fix>3d</fix>
</trkpt>
<trkpt lat="33.8102125" lon="-118.3938673">
  <ele>-21.79</ele>
  <time>2026-09-02T22:12:53Z</time>
  <course>359.6</course>
  <speed>0.47</speed>
  <fix>3d</fix>
</trkpt>
<trkpt lat="33.8102141" lon="-118.3938675">
  <ele>-22.41</ele>
  <time>2026-09-02T22:12:53Z</time>
  <course>186.66</course>
  <speed>0.5000999900019995</speed>
  <fix>3d</fix>
</trkpt>
<trkpt lat="33.8102133" lon="-118.3938673">
  <ele>-21.83</ele>
  <time>2026-09-02T22:12:53Z</time>
  <course>359.64</course>
  <speed>0.47</speed>
  <fix>3d</fix>
</trkpt>
<trkpt lat="33.8102145" lon="-118.3938675">
  <ele>-22.43</ele>
  <time>2026-09-02T22:12:53Z</time>
  <course>186.66</course>
  <speed>0.5000999900019995</speed>
  <fix>3d</fix>
</trkpt>
<trkpt lat="33.8102133" lon="-118.3938673">
  <ele>-21.83</ele>
  <time>2026-09-02T22:12:53Z</time>
  <course>359.64</course>
  <speed>0.47</speed>
  <fix>3d</fix>
</trkpt>
<trkpt lat="33.8102149" lon="-118.3938675">
  <ele>-22.451</ele>
  <time>2026-09-02T22:12:53Z</time>
  <course>186.66</course>
  <speed>0.510098029794274</speed>
  <fix>3d</fix>
</trkpt>
<trkpt lat="33.8102142" lon="-118.3938673">
  <ele>-21.87</ele>
  <time>2026-09-02T22:12:53Z</time>
  <course>359.61</course>
  <speed>0.48</speed>
  <fix>3d</fix>
</trkpt>
<trkpt lat="33.8102154" lon="-118.3938675">
  <ele>-22.474</ele>
  <time>2026-09-02T22:12:53Z</time>
  <course>186.66</course>
  <speed>0.510098029794274</speed>
  <fix>3d</fix>
</trkpt>
<trkpt lat="33.8102142" lon="-118.3938673">
  <ele>-21.87</ele>
  <time>2026-09-02T22:12:53Z</time>
  <course>359.61</course>
  <speed>0.48</speed>
  <fix>3d</fix>
</trkpt>
<trkpt lat="33.8102158" lon="-118.3938675">
  <ele>-22.497</ele>
  <time>2026-09-02T22:12:53Z</time>
  <course>186.66</course>
  <speed>0.510098029794274</speed>
  <fix>3d</fix>
</trkpt>
<trkpt lat="33.8102151" lon="-118.3938673">
  <ele>-21.91</ele>
  <time>2026-09-02T22:12:53Z</time>
  <course>359.58</course>
  <speed>0.48</speed>
  <fix>3d</fix>
</trkpt>
<trkpt lat="33.8102162" lon="-118.3938675">
  <ele>-22.522</ele>
  <time>2026-09-02T22:12:53Z</time>
  <course>186.66</course>
  <speed>0.510098029794274</speed>
  <fix>3d</fix>
</trkpt>
<trkpt lat="33.8102151" lon="-118.3938673">
  <ele>-21.91</ele>
  <time>2026-09-02T22:12:53Z</time>
  <course>359.58</course>
  <speed>0.48</speed>
  <fix>3d</fix>
</trkpt>
<trkpt lat="33.8102167" lon="-118.3938675">
  <ele>-22.546</ele>
  <time>2026-09-02T22:12:53Z</time>
  <course>186.66</course>
  <speed>0.510098029794274</speed>
  <fix>3d</fix>
</trkpt>
<trkpt lat="33.810216" lon="-118.3938673">
  <ele>-21.96</ele>
  <time>2026-09-02T22:12:53Z</time>
  <course>359.54</course>
  <speed>0.49</speed>
  <fix>3d</fix>
</trkpt>
<trkpt lat="33.8102171" lon="-118.3938675">
  <ele>-22.572</ele>
  <time>2026-09-02T22:12:53Z</time>
  <course>186.66</course>
  <speed>0.510098029794274</speed>
  <fix>3d</fix>
</trkpt>
<trkpt lat="33.810216" lon="-118.3938673">
  <ele>-21.96</ele>
  <time>2026-09-02T22:12:53Z</time>
  <course>359.54</course>
  <speed>0.49</speed>
  <fix>3d</fix>
</trkpt>
<trkpt lat="33.8102176" lon="-118.3938675">
  <ele>-22.598</ele>
  <time>2026-09-02T22:12:54Z</time>
  <course>186.66</course>
  <speed>0.510098029794274</speed>
  <fix>3d</fix>
</trkpt>
<trkpt lat="33.8102169" lon="-118.3938673">
  <ele>-22.0</ele>
  <time>2026-09-02T22:12:54Z</time>
  <course>359.5</course>
  <speed>0.49</speed>
  <fix>3d</fix>
</trkpt>
<trkpt lat="33.810218" lon="-118.3938675">
  <ele>-22.627</ele>
  <time>2026-09-02T22:12:54Z</time>
  <course>186.66</course>
  <speed>0.5200961449578337</speed>
  <fix>3d</fix>
</trkpt>
<trkpt lat="33.8102169" lon="-118.3938673">
  <ele>-22.0</ele>
  <time>2026-09-02T22:12:54Z</time>
  <course>359.5</course>
  <speed>0.49</speed>
  <fix>3d</fix>
</trkpt>
<trkpt lat="33.8102185" lon="-118.3938675">
  <ele>-22.656</ele>
  <time>2026-09-02T22:12:54Z</time>
  <course>186.66</course>
  <speed>0.510098029794274</speed>
  <fix>3d</fix>
</trkpt>
<trkpt lat="33.8102178" lon="-118.3938673">
  <ele>-22.05</ele>
  <time>2026-09-02T22:12:54Z</time>
  <course>359.49</course>
  <speed>0.49</speed>
  <fix>3d</fix>
</trkpt>
<trkpt lat="33.8102189" lon="-118.3938675">
  <ele>-22.686</ele>
  <time>2026-09-02T22:12:54Z</time>
  <course>186.66</course>
  <speed>0.5200961449578337</speed>
  <fix>3d</fix>
</trkpt>
<trkpt lat="33.8102178" lon="-118.3938673">
  <ele>-22.05</ele>
  <time>2026-09-02T22:12:54Z</time>
  <course>359.49</course>
  <speed>0.49</speed>
  <fix>3d</fix>
</trkpt>
<trkpt lat="33.8102194" lon="-118.3938675">
  <ele>-22.715</ele>
  <time>2026-09-02T22:12:54Z</time>
  <course>186.66</course>
  <speed>0.510098029794274</speed>
  <fix>3d</fix>
</trkpt>
<trkpt lat="33.8102186" lon="-118.3938673">
  <ele>-22.11</ele>
  <time>2026-09-02T22:12:54Z</time>
  <course>359.49</course>
  <speed>0.49</speed>
  <fix>3d</fix>
</trkpt>
<trkpt lat="33.8102198" lon="-118.3938675">
  <ele>-22.741</ele>
  <time>2026-09-02T22:12:54Z</time>
  <course>186.66</course>
  <speed>0.5200961449578337</speed>
  <fix>3d</fix>
</trkpt>
<trkpt lat="33.8102186" lon="-118.3938673">
  <ele>-22.11</ele>
  <time>2026-09-02T22:12:54Z</time>
  <course>359.49</course>
  <speed>0.49</speed>
  <fix>3d</fix>
</trkpt>
<trkpt lat="33.8102203" lon="-118.3938675">
  <ele>-22.766</ele>
  <time>2026-09-02T22:12:54Z</time>
  <course>186.66</course>
  <speed>0.5200961449578337</speed>
  <fix>3d</fix>
</trkpt>
<trkpt lat="33.8102195" lon="-118.3938674">
  <ele>-22.16</ele>
  <time>2026-09-02T22:12:54Z</time>
  <course>359.52</course>
  <speed>0.49</speed>
  <fix>3d</fix>
</trkpt>
<trkpt lat="33.8102207" lon="-118.3938675">
  <ele>-22.79</ele>
  <time>2026-09-02T22:12:54Z</time>
  <course>186.66</course>
  <speed>0.5200961449578337</speed>
  <fix>3d</fix>
</trkpt>
<trkpt lat="33.8102195" lon="-118.3938674">
  <ele>-22.16</ele>
  <time>2026-09-02T22:12:54Z</time>
  <course>359.52</course>
  <speed>0.49</speed>
  <fix>3d</fix>
</trkpt>
<trkpt lat="33.8102212" lon="-118.3938675">
  <ele>-22.813</ele>
  <time>2026-09-02T22:12:54Z</time>
  <course>186.66</course>
  <speed>0.5200961449578337</speed>
  <fix>3d</fix>
</trkpt>
<trkpt lat="33.8102204" lon="-118.3938674">
  <ele>-22.21</ele>
  <time>2026-09-02T22:12:54Z</time>
  <course>359.61</course>
  <speed>0.49</speed>
  <fix>3d</fix>
</trkpt>
<trkpt lat="33.8102216" lon="-118.3938675">
  <ele>-22.834</ele>
  <time>2026-09-02T22:12:54Z</time>
  <course>186.66</course>
  <speed>0.5200961449578337</speed>
  <fix>3d</fix>
</trkpt>
<trkpt lat="33.8102204" lon="-118.3938674">
  <ele>-22.21</ele>
  <time>2026-09-02T22:12:54Z</time>
  <course>359.61</course>
  <speed>0.49</speed>
  <fix>3d</fix>
</trkpt>
<trkpt lat="33.8102221" lon="-118.3938675">
  <ele>-22.851</ele>
  <time>2026-09-02T22:12:54Z</time>
  <course>186.66</course>
  <speed>0.5200961449578337</speed>
  <fix>3d</fix>
</trkpt>
<trkpt lat="33.8102213" lon="-118.3938674">
  <ele>-22.26</ele>
  <time>2026-09-02T22:12:54Z</time>
  <course>359.79</course>
  <speed>0.5</speed>
  <fix>3d</fix>
</trkpt>
<trkpt lat="33.8102225" lon="-118.3938675">
  <ele>-22.866</ele>
  <time>2026-09-02T22:12:54Z</time>
  <course>186.66</course>
  <speed>0.5200961449578337</speed>
  <fix>3d</fix>
</trkpt>
<trkpt lat="33.8102213" lon="-118.3938674">
  <ele>-22.26</ele>
  <time>2026-09-02T22:12:54Z</time>
  <course>359.79</course>
  <speed>0.5</speed>
  <fix>3d</fix>
</trkpt>
<trkpt lat="33.810223" lon="-118.3938675">
  <ele>-22.879</ele>
  <time>2026-09-02T22:12:54Z</time>
  <course>186.66</course>
  <speed>0.5200961449578337</speed>
  <fix>3d</fix>
</trkpt>
<trkpt lat="33.8102222" lon="-118.3938674">
  <ele>-22.29</ele>
  <time>2026-09-02T22:12:54Z</time>
  <course>359.98</course>
  <speed>0.5</speed>
  <fix>3d</fix>
</trkpt>
<trkpt lat="33.8102234" lon="-118.3938675">
  <ele>-22.89</ele>
  <time>2026-09-02T22:12:54Z</time>
  <course>186.66</course>
  <speed>0.5200961449578337</speed>
  <fix>3d</fix>
</trkpt>
<trkpt lat="33.8102222" lon="-118.3938674">
  <ele>-22.29</ele>
  <time>2026-09-02T22:12:54Z</time>
  <course>359.98</course>
  <speed>0.5</speed>
  <fix>3d</fix>
</trkpt>
<trkpt lat="33.8102239" lon="-118.3938675">
  <ele>-22.901</ele>
  <time>2026-09-02T22:12:54Z</time>
  <course>186.66</course>
  <speed>0.5200961449578337</speed>
  <fix>3d</fix>
</trkpt>
<trkpt lat="33.8102231" lon="-118.3938674">
  <ele>-22.32</ele>
  <time>2026-09-02T22:12:54Z</time>
  <course>0.14</course>
  <speed>0.5</speed>
  <fix>3d</fix>
</trkpt>
<trkpt lat="33.8102243" lon="-118.3938675">
  <ele>-22.91</ele>
  <time>2026-09-02T22:12:54Z</time>
  <course>186.66</course>
  <speed>0.5200961449578337</speed>
  <fix>3d</fix>
</trkpt>
<trkpt lat="33.8102231" lon="-118.3938674">
  <ele>-22.32</ele>
  <time>2026-09-02T22:12:54Z</time>
  <course>0.14</course>
  <speed>0.5</speed>
  <fix>3d</fix>
</trkpt>
<trkpt lat="33.8102248" lon="-118.3938675">
  <ele>-22.918</ele>
  <time>2026-09-02T22:12:54Z</time>
  <course>186.66</course>
  <speed>0.5200961449578337</speed>
  <fix>3d</fix>
</trkpt>
<trkpt lat="33.810224" lon="-118.3938674">
  <ele>-22.35</ele>
  <time>2026-09-02T22:12:54Z</time>
  <course>0.26</course>
  <speed>0.5</speed>
  <fix>3d</fix>
</trkpt>
<trkpt lat="33.8102252" lon="-118.3938675">
  <ele>-22.93</ele>
  <time>2026-09-02T22:12:54Z</time>
  <course>186.66</course>
  <speed>0.5200961449578337</speed>
  <fix>3d</fix>
</trkpt>
<trkpt lat="33.810224" lon="-118.3938674">
  <ele>-22.35</ele>
  <time>2026-09-02T22:12:54Z</time>
  <course>0.26</course>
  <speed>0.5</speed>
  <fix>3d</fix>
</trkpt>
<trkpt lat="33.8102257" lon="-118.3938675">
  <ele>-22.946</ele>
  <time>2026-09-02T22:12:54Z</time>
  <course>186.66</course>
  <speed>0.5200961449578337</speed>
  <fix>3d</fix>
</trkpt>
<trkpt lat="33.8102249" lon="-118.3938674">
  <ele>-22.37</ele>
  <time>2026-09-02T22:12:54Z</time>
  <course>0.33</course>
  <speed>0.5</speed>
  <fix>3d</fix>
</trkpt>
<trkpt lat="33.8102261" lon="-118.3938675">
  <ele>-22.962</ele>
  <time>2026-09-02T22:12:54Z</time>
  <course>186.66</course>
  <speed>0.5200961449578337</speed>
  <fix>3d</fix>
</trkpt>
<trkpt lat="33.8102249" lon="-118.3938674">
  <ele>-22.37</ele>
  <time>2026-09-02T22:12:54Z</time>
  <course>0.33</course>
  <speed>0.5</speed>
  <fix>3d</fix>
</trkpt>
<trkpt lat="33.8102266" lon="-118.3938675">
  <ele>-22.979</ele>
  <time>2026-09-02T22:12:54Z</time>
  <course>186.66</course>
  <speed>0.5200961449578337</speed>
  <fix>3d</fix>
</trkpt>
<trkpt lat="33.8102258" lon="-118.3938674">
  <ele>-22.4</ele>
  <time>2026-09-02T22:12:54Z</time>
  <course>0.36</course>
  <speed>0.5</speed>
  <fix>3d</fix>
</trkpt>
<trkpt lat="33.810227" lon="-118.3938675">
  <ele>-22.997</ele>
  <time>2026-09-02T22:12:54Z</time>
  <course>186.66</course>
  <speed>0.5200961449578337</speed>
  <fix>3d</fix>
</trkpt>
<trkpt lat="33.8102258" lon="-118.3938674">
  <ele>-22.4</ele>
  <time>2026-09-02T22:12:54Z</time>
  <course>0.36</course>
  <speed>0.5</speed>
  <fix>3d</fix>
</trkpt>
<trkpt lat="33.8102274" lon="-118.3938675">
  <ele>-23.014</ele>
  <time>2026-09-02T22:12:54Z</time>
  <course>186.66</course>
  <speed>0.4801041553663121</speed>
  <fix>3d</fix>
</trkpt>
<trkpt lat="33.8102267" lon="-118.3938674">
  <ele>-22.43</ele>
  <time>2026-09-02T22:12:54Z</time>
  <course>0.39</course>
  <speed>0.5</speed>
  <fix>3d</fix>
</trkpt>
<trkpt lat="33.8102279" lon="-118.3938675">
  <ele>-23.032</ele>
  <time>2026-09-02T22:12:54Z</time>
  <course>186.66</course>
  <speed>0.4901020301937138</speed>
  <fix>3d</fix>
</trkpt>
<trkpt lat="33.8102267" lon="-118.3938674">
  <ele>-22.43</ele>
  <time>2026-09-02T22:12:54Z</time>
  <course>0.39</course>
  <speed>0.5</speed>
  <fix>3d</fix>
</trkpt>
<trkpt lat="33.8102283" lon="-118.3938675">
  <ele>-23.051</ele>
  <time>2026-09-02T22:12:54Z</time>
  <course>186.66</course>
  <speed>0.4901020301937138</speed>
  <fix>3d</fix>
</trkpt>
<trkpt lat="33.8102276" lon="-118.3938674">
  <ele>-22.47</ele>
  <time>2026-09-02T22:12:54Z</time>
  <course>0.48</course>
  <speed>0.48</speed>
  <fix>3d</fix>
</trkpt>
<trkpt lat="33.8102287" lon="-118.3938675">
  <ele>-23.072</ele>
  <time>2026-09-02T22:12:54Z</time>
  <course>186.66</course>
  <speed>0.4901020301937138</speed>
  <fix>3d</fix>
</trkpt>
<trkpt lat="33.8102276" lon="-118.3938674">
  <ele>-22.47</ele>
  <time>2026-09-02T22:12:54Z</time>
  <course>0.48</course>
  <speed>0.48</speed>
  <fix>3d</fix>
</trkpt>
<trkpt lat="33.8102291" lon="-118.3938675">
  <ele>-23.092</ele>
  <time>2026-09-02T22:12:54Z</time>
  <course>186.66</course>
  <speed>0.5000999900019995</speed>
  <fix>3d</fix>
</trkpt>
<trkpt lat="33.8102284" lon="-118.3938674">
  <ele>-22.51</ele>
  <time>2026-09-02T22:12:54Z</time>
  <course>0.58</course>
  <speed>0.47</speed>
  <fix>3d</fix>
</trkpt>
<trkpt lat="33.8102296" lon="-118.3938675">
  <ele>-23.113</ele>
  <time>2026-09-02T22:12:54Z</time>
  <course>186.66</course>
  <speed>0.5000999900019995</speed>
  <fix>3d</fix>
</trkpt>
<trkpt lat="33.8102284" lon="-118.3938674">
  <ele>-22.51</ele>
  <time>2026-09-02T22:12:54Z</time>
  <course>0.58</course>
  <speed>0.47</speed>
  <fix>3d</fix>
</trkpt>
<trkpt lat="33.81023" lon="-118.3938675">
  <ele>-23.138</ele>
  <time>2026-09-02T22:12:54Z</time>
  <course>186.65</course>
  <speed>0.5000999900019995</speed>
  <fix>3d</fix>
</trkpt>
<trkpt lat="33.8102293" lon="-118.3938674">
  <ele>-22.56</ele>
  <time>2026-09-02T22:12:54Z</time>
  <course>0.61</course>
  <speed>0.48</speed>
  <fix>3d</fix>
</trkpt>
<trkpt lat="33.8102304" lon="-118.3938675">
  <ele>-23.166</ele>
  <time>2026-09-02T22:12:54Z</time>
  <course>186.66</course>
  <speed>0.510098029794274</speed>
  <fix>3d</fix>
</trkpt>
<trkpt lat="33.8102293" lon="-118.3938674">
  <ele>-22.56</ele>
  <time>2026-09-02T22:12:54Z</time>
  <course>0.61</course>
  <speed>0.48</speed>
  <fix>3d</fix>
</trkpt>
<trkpt lat="33.8102309" lon="-118.3938675">
  <ele>-23.195</ele>
  <time>2026-09-02T22:12:54Z</time>
  <course>186.66</course>
  <speed>0.510098029794274</speed>
  <fix>3d</fix>
</trkpt>
<trkpt lat="33.8102302" lon="-118.3938674">
  <ele>-22.6</ele>
  <time>2026-09-02T22:12:54Z</time>
  <course>0.6</course>
  <speed>0.48</speed>
  <fix>3d</fix>
</trkpt>
<trkpt lat="33.8102313" lon="-118.3938675">
  <ele>-23.224</ele>
  <time>2026-09-02T22:12:54Z</time>
  <course>186.66</course>
  <speed>0.510098029794274</speed>
  <fix>3d</fix>
</trkpt>
<trkpt lat="33.8102302" lon="-118.3938674">
  <ele>-22.6</ele>
  <time>2026-09-02T22:12:54Z</time>
  <course>0.6</course>
  <speed>0.48</speed>
  <fix>3d</fix>
</trkpt>
<trkpt lat="33.8102318" lon="-118.3938675">
  <ele>-23.25</ele>
  <time>2026-09-02T22:12:54Z</time>
  <course>186.66</course>
  <speed>0.510098029794274</speed>
  <fix>3d</fix>
</trkpt>
<trkpt lat="33.8102311" lon="-118.3938674">
  <ele>-22.65</ele>
  <time>2026-09-02T22:12:54Z</time>
  <course>0.59</course>
  <speed>0.48</speed>
  <fix>3d</fix>
</trkpt>
<trkpt lat="33.8102322" lon="-118.3938675">
  <ele>-23.274</ele>
  <time>2026-09-02T22:12:54Z</time>
  <course>186.66</course>
  <speed>0.510098029794274</speed>
  <fix>3d</fix>
</trkpt>
<trkpt lat="33.8102311" lon="-118.3938674">
  <ele>-22.65</ele>
  <time>2026-09-02T22:12:54Z</time>
  <course>0.59</course>
  <speed>0.48</speed>
  <fix>3d</fix>
</trkpt>
<trkpt lat="33.8102327" lon="-118.3938675">
  <ele>-23.299</ele>
  <time>2026-09-02T22:12:54Z</time>
  <course>186.66</course>
  <speed>0.510098029794274</speed>
  <fix>3d</fix>
</trkpt>
<trkpt lat="33.810232" lon="-118.3938674">
  <ele>-22.7</ele>
  <time>2026-09-02T22:12:54Z</time>
  <course>0.62</course>
  <speed>0.49</speed>
  <fix>3d</fix>
</trkpt>
<trkpt lat="33.8102331" lon="-118.3938675">
  <ele>-23.327</ele>
  <time>2026-09-02T22:12:54Z</time>
  <course>186.66</course>
  <speed>0.510098029794274</speed>
  <fix>3d</fix>
</trkpt>
<trkpt lat="33.810232" lon="-118.3938674">
  <ele>-22.7</ele>
  <time>2026-09-02T22:12:54Z</time>
  <course>0.62</course>
  <speed>0.49</speed>
  <fix>3d</fix>
</trkpt>
<trkpt lat="33.8102336" lon="-118.3938675">
  <ele>-23.356</ele>
  <time>2026-09-02T22:12:54Z</time>
  <course>186.66</course>
  <speed>0.510098029794274</speed>
  <fix>3d</fix>
</trkpt>
<trkpt lat="33.8102328" lon="-118.3938674">
  <ele>-22.75</ele>
  <time>2026-09-02T22:12:54Z</time>
  <course>0.65</course>
  <speed>0.49</speed>
  <fix>3d</fix>
</trkpt>
<trkpt lat="33.810234" lon="-118.3938675">
  <ele>-23.386</ele>
  <time>2026-09-02T22:12:54Z</time>
  <course>186.65</course>
  <speed>0.510098029794274</speed>
  <fix>3d</fix>
</trkpt>
<trkpt lat="33.8102328" lon="-118.3938674">
  <ele>-22.75</ele>
  <time>2026-09-02T22:12:54Z</time>
  <course>0.65</course>
  <speed>0.49</speed>
  <fix>3d</fix>
</trkpt>
<trkpt lat="33.8102345" lon="-118.3938675">
  <ele>-23.414</ele>
  <time>2026-09-02T22:12:54Z</time>
  <course>186.66</course>
  <speed>0.510098029794274</speed>
  <fix>3d</fix>
</trkpt>
<trkpt lat="33.8102337" lon="-118.3938674">
  <ele>-22.8</ele>
  <time>2026-09-02T22:12:54Z</time>
  <course>0.68</course>
  <speed>0.49</speed>
  <fix>3d</fix>
</trkpt>
<trkpt lat="33.8102349" lon="-118.3938675">
  <ele>-23.439</ele>
  <time>2026-09-02T22:12:54Z</time>
  <course>186.66</course>
  <speed>0.510098029794274</speed>
  <fix>3d</fix>
</trkpt>
<trkpt lat="33.8102337" lon="-118.3938674">
  <ele>-22.8</ele>
  <time>2026-09-02T22:12:54Z</time>
  <course>0.68</course>
  <speed>0.49</speed>
  <fix>3d</fix>
</trkpt>
<trkpt lat="33.8102353" lon="-118.3938675">
  <ele>-23.459</ele>
  <time>2026-09-02T22:12:54Z</time>
  <course>186.66</course>
  <speed>0.510098029794274</speed>
  <fix>3d</fix>
</trkpt>
<trkpt lat="33.8102346" lon="-118.3938673">
  <ele>-22.85</ele>
  <time>2026-09-02T22:12:54Z</time>
  <course>0.73</course>
  <speed>0.49</speed>
  <fix>3d</fix>
</trkpt>
<trkpt lat="33.8102358" lon="-118.3938675">
  <ele>-23.473</ele>
  <time>2026-09-02T22:12:54Z</time>
  <course>186.65</course>
  <speed>0.5200961449578337</speed>
  <fix>3d</fix>
</trkpt>
<trkpt lat="33.8102346" lon="-118.3938673">
  <ele>-22.85</ele>
  <time>2026-09-02T22:12:54Z</time>
  <course>0.73</course>
  <speed>0.49</speed>
  <fix>3d</fix>
</trkpt>
<trkpt lat="33.8102362" lon="-118.3938675">
  <ele>-23.483</ele>
  <time>2026-09-02T22:12:54Z</time>
  <course>186.66</course>
  <speed>0.5200961449578337</speed>
  <fix>3d</fix>
</trkpt>
<trkpt lat="33.8102355" lon="-118.3938673">
  <ele>-22.89</ele>
  <time>2026-09-02T22:12:54Z</time>
  <course>0.71</course>
  <speed>0.49</speed>
  <fix>3d</fix>
</trkpt>
<trkpt lat="33.8102367" lon="-118.3938675">
  <ele>-23.493</ele>
  <time>2026-09-02T22:12:54Z</time>
  <course>186.66</course>
  <speed>0.5200961449578337</speed>
  <fix>3d</fix>
</trkpt>
<trkpt lat="33.8102355" lon="-118.3938673">
  <ele>-22.89</ele>
  <time>2026-09-02T22:12:54Z</time>
  <course>0.71</course>
  <speed>0.49</speed>
  <fix>3d</fix>
</trkpt>
<trkpt lat="33.8102371" lon="-118.3938675">
  <ele>-23.502</ele>
  <time>2026-09-02T22:12:54Z</time>
  <course>186.66</course>
  <speed>0.5200961449578337</speed>
  <fix>3d</fix>
</trkpt>
<trkpt lat="33.8102364" lon="-118.3938673">
  <ele>-22.92</ele>
  <time>2026-09-02T22:12:54Z</time>
  <course>0.59</course>
  <speed>0.49</speed>
  <fix>3d</fix>
</trkpt>
<trkpt lat="33.8102376" lon="-118.3938675">
  <ele>-23.517</ele>
  <time>2026-09-02T22:12:54Z</time>
  <course>186.66</course>
  <speed>0.5200961449578337</speed>
  <fix>3d</fix>
</trkpt>
<trkpt lat="33.8102364" lon="-118.3938673">
  <ele>-22.92</ele>
  <time>2026-09-02T22:12:54Z</time>
  <course>0.59</course>
  <speed>0.49</speed>
  <fix>3d</fix>
</trkpt>
<trkpt lat="33.810238" lon="-118.3938675">
  <ele>-23.535</ele>
  <time>2026-09-02T22:12:54Z</time>
  <course>186.66</course>
  <speed>0.5200961449578337</speed>
  <fix>3d</fix>
</trkpt>
<trkpt lat="33.8102373" lon="-118.3938673">
  <ele>-22.94</ele>
  <time>2026-09-02T22:12:54Z</time>
  <course>0.44</course>
  <speed>0.49</speed>
  <fix>3d</fix>
</trkpt>
<trkpt lat="33.8102385" lon="-118.3938675">
  <ele>-23.554</ele>
  <time>2026-09-02T22:12:54Z</time>
  <course>186.66</course>
  <speed>0.5200961449578337</speed>
  <fix>3d</fix>
</trkpt>
<trkpt lat="33.8102373" lon="-118.3938673">
  <ele>-22.94</ele>
  <time>2026-09-02T22:12:54Z</time>
  <course>0.44</course>
  <speed>0.49</speed>
  <fix>3d</fix>
</trkpt>
<trkpt lat="33.8102389" lon="-118.3938675">
  <ele>-23.572</ele>
  <time>2026-09-02T22:12:54Z</time>
  <course>186.66</course>
  <speed>0.5200961449578337</speed>
  <fix>3d</fix>
</trkpt>
<trkpt lat="33.8102382" lon="-118.3938673">
  <ele>-22.97</ele>
  <time>2026-09-02T22:12:54Z</time>
  <course>0.3</course>
  <speed>0.49</speed>
  <fix>3d</fix>
</trkpt>
<trkpt lat="33.8102394" lon="-118.3938675">
  <ele>-23.589</ele>
  <time>2026-09-02T22:12:54Z</time>
  <course>186.66</course>
  <speed>0.5200961449578337</speed>
  <fix>3d</fix>
</trkpt>
<trkpt lat="33.8102382" lon="-118.3938673">
  <ele>-22.97</ele>
  <time>2026-09-02T22:12:54Z</time>
  <course>0.3</course>
  <speed>0.49</speed>
  <fix>3d</fix>
</trkpt>
<trkpt lat="33.8102398" lon="-118.3938675">
  <ele>-23.607</ele>
  <time>2026-09-02T22:12:54Z</time>
  <course>186.66</course>
  <speed>0.5200961449578337</speed>
  <fix>3d</fix>
</trkpt>
<trkpt lat="33.8102391" lon="-118.3938673">
  <ele>-23.0</ele>
  <time>2026-09-02T22:12:54Z</time>
  <course>0.2</course>
  <speed>0.5</speed>
  <fix>3d</fix>
</trkpt>
<trkpt lat="33.8102403" lon="-118.3938675">
  <ele>-23.628</ele>
  <time>2026-09-02T22:12:54Z</time>
  <course>186.66</course>
  <speed>0.5200961449578337</speed>
  <fix>3d</fix>
</trkpt>
<trkpt lat="33.8102391" lon="-118.3938673">
  <ele>-23.0</ele>
  <time>2026-09-02T22:12:54Z</time>
  <course>0.2</course>
  <speed>0.5</speed>
  <fix>3d</fix>
</trkpt>
<trkpt lat="33.8102407" lon="-118.3938675">
  <ele>-23.649</ele>
  <time>2026-09-02T22:12:54Z</time>
  <course>186.66</course>
  <speed>0.5200961449578337</speed>
  <fix>3d</fix>
</trkpt>
<trkpt lat="33.81024" lon="-118.3938673">
  <ele>-23.03</ele>
  <time>2026-09-02T22:12:54Z</time>
  <course>0.13</course>
  <speed>0.5</speed>
  <fix>3d</fix>
</trkpt>
<trkpt lat="33.8102412" lon="-118.3938675">
  <ele>-23.671</ele>
  <time>2026-09-02T22:12:54Z</time>
  <course>186.66</course>
  <speed>0.5200961449578337</speed>
  <fix>3d</fix>
</trkpt>
<trkpt lat="33.81024" lon="-118.3938673">
  <ele>-23.03</ele>
  <time>2026-09-02T22:12:54Z</time>
  <course>0.13</course>
  <speed>0.5</speed>
  <fix>3d</fix>
</trkpt>
<trkpt lat="33.8102416" lon="-118.3938675">
  <ele>-23.694</ele>
  <time>2026-09-02T22:12:54Z</time>
  <course>186.66</course>
  <speed>0.5200961449578337</speed>
  <fix>3d</fix>
</trkpt>
<trkpt lat="33.8102409" lon="-118.3938673">
  <ele>-23.07</ele>
  <time>2026-09-02T22:12:54Z</time>
  <course>0.11</course>
  <speed>0.5</speed>
  <fix>3d</fix>
</trkpt>
<trkpt lat="33.8102421" lon="-118.3938675">
  <ele>-23.715</ele>
  <time>2026-09-02T22:12:54Z</time>
  <course>186.66</course>
  <speed>0.5200961449578337</speed>
  <fix>3d</fix>
</trkpt>
<trkpt lat="33.8102409" lon="-118.3938673">
  <ele>-23.07</ele>
  <time>2026-09-02T22:12:54Z</time>
  <course>0.11</course>
  <speed>0.5</speed>
  <fix>3d</fix>
</trkpt>
<trkpt lat="33.8102425" lon="-118.3938675">
  <ele>-23.736</ele>
  <time>2026-09-02T22:12:54Z</time>
  <course>186.66</course>
  <speed>0.5200961449578337</speed>
  <fix>3d</fix>
</trkpt>
<trkpt lat="33.8102418" lon="-118.3938673">
  <ele>-23.11</ele>
  <time>2026-09-02T22:12:54Z</time>
  <course>0.12</course>
  <speed>0.5</speed>
  <fix>3d</fix>
</trkpt>
<trkpt lat="33.810243" lon="-118.3938675">
  <ele>-23.756</ele>
  <time>2026-09-02T22:12:54Z</time>
  <course>186.66</course>
  <speed>0.5200961449578337</speed>
  <fix>3d</fix>
</trkpt>
<trkpt lat="33.8102418" lon="-118.3938673">
  <ele>-23.11</ele>
  <time>2026-09-02T22:12:54Z</time>
  <course>0.12</course>
  <speed>0.5</speed>
  <fix>3d</fix>
</trkpt>
<trkpt lat="33.8102434" lon="-118.3938675">
  <ele>-23.776</ele>
  <time>2026-09-02T22:12:54Z</time>
  <course>186.66</course>
  <speed>0.5200961449578337</speed>
  <fix>3d</fix>
</trkpt>
<trkpt lat="33.8102427" lon="-118.3938673">
  <ele>-23.15</ele>
  <time>2026-09-02T22:12:54Z</time>
  <course>0.13</course>
  <speed>0.5</speed>
  <fix>3d</fix>
</trkpt>
<trkpt lat="33.8102439" lon="-118.3938675">
  <ele>-23.797</ele>
  <time>2026-09-02T22:12:54Z</time>
  <course>186.66</course>
  <speed>0.5200961449578337</speed>
  <fix>3d</fix>
</trkpt>
<trkpt lat="33.8102427" lon="-118.3938673">
  <ele>-23.15</ele>
  <time>2026-09-02T22:12:54Z</time>
  <course>0.13</course>
  <speed>0.5</speed>
  <fix>3d</fix>
</trkpt>
<trkpt lat="33.8102443" lon="-118.3938675">
  <ele>-23.818</ele>
  <time>2026-09-02T22:12:54Z</time>
  <course>186.66</course>
  <speed>0.5200961449578337</speed>
  <fix>3d</fix>
</trkpt>
<trkpt lat="33.8102436" lon="-118.3938673">
  <ele>-23.18</ele>
  <time>2026-09-02T22:12:54Z</time>
  <course>0.13</course>
  <speed>0.5</speed>
  <fix>3d</fix>
</trkpt>
<trkpt lat="33.8102448" lon="-118.3938675">
  <ele>-23.84</ele>
  <time>2026-09-02T22:12:54Z</time>
  <course>186.66</course>
  <speed>0.5200961449578337</speed>
  <fix>3d</fix>
</trkpt>
<trkpt lat="33.8102436" lon="-118.3938673">
  <ele>-23.18</ele>
  <time>2026-09-02T22:12:54Z</time>
  <course>0.13</course>
  <speed>0.5</speed>
  <fix>3d</fix>
</trkpt>
<trkpt lat="33.8102452" lon="-118.3938675">
  <ele>-23.861</ele>
  <time>2026-09-02T22:12:54Z</time>
  <course>186.66</course>
  <speed>0.5200961449578337</speed>
  <fix>3d</fix>
</trkpt>
<trkpt lat="33.8102445" lon="-118.3938673">
  <ele>-23.23</ele>
  <time>2026-09-02T22:12:54Z</time>
  <course>0.12</course>
  <speed>0.5</speed>
  <fix>3d</fix>
</trkpt>
<trkpt lat="33.8102457" lon="-118.3938675">
  <ele>-23.88</ele>
  <time>2026-09-02T22:12:54Z</time>
  <course>186.66</course>
  <speed>0.5200961449578337</speed>
  <fix>3d</fix>
</trkpt>
<trkpt lat="33.8102445" lon="-118.3938673">
  <ele>-23.23</ele>
  <time>2026-09-02T22:12:54Z</time>
  <course>0.12</course>
  <speed>0.5</speed>
  <fix>3d</fix>
</trkpt>
<trkpt lat="33.8102461" lon="-118.3938675">
  <ele>-23.899</ele>
  <time>2026-09-02T22:12:54Z</time>
  <course>186.66</course>
  <speed>0.5200961449578337</speed>
  <fix>3d</fix>
</trkpt>
<trkpt lat="33.8102454" lon="-118.3938673">
  <ele>-23.27</ele>
  <time>2026-09-02T22:12:54Z</time>
  <course>0.11</course>
  <speed>0.5</speed>
  <fix>3d</fix>
</trkpt>
<trkpt lat="33.8102466" lon="-118.3938675">
  <ele>-23.919</ele>
  <time>2026-09-02T22:12:54Z</time>
  <course>186.66</course>
  <speed>0.5200961449578337</speed>
  <fix>3d</fix>
</trkpt>
<trkpt lat="33.8102454" lon="-118.3938673">
  <ele>-23.27</ele>
  <time>2026-09-02T22:12:54Z</time>
  <course>0.11</course>
  <speed>0.5</speed>
  <fix>3d</fix>
</trkpt>
<trkpt lat="33.810247" lon="-118.3938675">
  <ele>-23.938</ele>
  <time>2026-09-02T22:12:54Z</time>
  <course>186.66</course>
  <speed>0.5200961449578337</speed>
  <fix>3d</fix>
</trkpt>
<trkpt lat="33.8102463" lon="-118.3938673">
  <ele>-23.32</ele>
  <time>2026-09-02T22:12:54Z</time>
  <course>0.11</course>
  <speed>0.5</speed>
  <fix>3d</fix>
</trkpt>
<trkpt lat="33.8102475" lon="-118.3938675">
  <ele>-23.961</ele>
  <time>2026-09-02T22:12:54Z</time>
  <course>186.66</course>
  <speed>0.5200961449578337</speed>
  <fix>3d</fix>
</trkpt>
<trkpt lat="33.8102463" lon="-118.3938673">
  <ele>-23.32</ele>
  <time>2026-09-02T22:12:54Z</time>
  <course>0.11</course>
  <speed>0.5</speed>
  <fix>3d</fix>
</trkpt>
<trkpt lat="33.8102479" lon="-118.3938675">
  <ele>-23.985</ele>
  <time>2026-09-02T22:12:54Z</time>
  <course>186.66</course>
  <speed>0.5200961449578337</speed>
  <fix>3d</fix>
</trkpt>
<trkpt lat="33.8102472" lon="-118.3938673">
  <ele>-23.36</ele>
  <time>2026-09-02T22:12:54Z</time>
  <course>0.1</course>
  <speed>0.5</speed>
  <fix>3d</fix>
</trkpt>
<trkpt lat="33.8102484" lon="-118.3938675">
  <ele>-24.01</ele>
  <time>2026-09-02T22:12:54Z</time>
  <course>186.66</course>
  <speed>0.5200961449578337</speed>
  <fix>3d</fix>
</trkpt>
<trkpt lat="33.8102472" lon="-118.3938673">
  <ele>-23.36</ele>
  <time>2026-09-02T22:12:54Z</time>
  <course>0.1</course>
  <speed>0.5</speed>
  <fix>3d</fix>
</trkpt>
<trkpt lat="33.8102488" lon="-118.3938675">
  <ele>-24.035</ele>
  <time>2026-09-02T22:12:54Z</time>
  <course>186.66</course>
  <speed>0.5200961449578337</speed>
  <fix>3d</fix>
</trkpt>
<trkpt lat="33.8102481" lon="-118.3938673">
  <ele>-23.41</ele>
  <time>2026-09-02T22:12:54Z</time>
  <course>0.09</course>
  <speed>0.5</speed>
  <fix>3d</fix>
</trkpt>
<trkpt lat="33.8102493" lon="-118.3938675">
  <ele>-24.059</ele>
  <time>2026-09-02T22:12:54Z</time>
  <course>186.66</course>
  <speed>0.5200961449578337</speed>
  <fix>3d</fix>
</trkpt>
<trkpt lat="33.8102481" lon="-118.3938673">
  <ele>-23.41</ele>
  <time>2026-09-02T22:12:54Z</time>
  <course>0.09</course>
  <speed>0.5</speed>
  <fix>3d</fix>
</trkpt>
<trkpt lat="33.8102497" lon="-118.3938675">
  <ele>-24.083</ele>
  <time>2026-09-02T22:12:54Z</time>
  <course>186.66</course>
  <speed>0.5200961449578337</speed>
  <fix>3d</fix>
</trkpt>
<trkpt lat="33.810249" lon="-118.3938673">
  <ele>-23.46</ele>
  <time>2026-09-02T22:12:54Z</time>
  <course>0.09</course>
  <speed>0.5</speed>
  <fix>3d</fix>
</trkpt>
<trkpt lat="33.8102502" lon="-118.3938675">
  <ele>-24.105</ele>
  <time>2026-09-02T22:12:54Z</time>
  <course>186.66</course>
  <speed>0.5200961449578337</speed>
  <fix>3d</fix>
</trkpt>
<trkpt lat="33.810249" lon="-118.3938673">
  <ele>-23.46</ele>
  <time>2026-09-02T22:12:54Z</time>
  <course>0.09</course>
  <speed>0.5</speed>
  <fix>3d</fix>
</trkpt>
<trkpt lat="33.8102506" lon="-118.3938675">
  <ele>-24.124</ele>
  <time>2026-09-02T22:12:54Z</time>
  <course>186.66</course>
  <speed>0.5200961449578337</speed>
  <fix>3d</fix>
</trkpt>
<trkpt lat="33.8102499" lon="-118.3938673">
  <ele>-23.5</ele>
  <time>2026-09-02T22:12:54Z</time>
  <course>0.1</course>
  <speed>0.5</speed>
  <fix>3d</fix>
</trkpt>
<trkpt lat="33.8102511" lon="-118.3938675">
  <ele>-24.141</ele>
  <time>2026-09-02T22:12:54Z</time>
  <course>186.66</course>
  <speed>0.5200961449578337</speed>
  <fix>3d</fix>
</trkpt>
<trkpt lat="33.8102499" lon="-118.3938673">
  <ele>-23.5</ele>
  <time>2026-09-02T22:12:54Z</time>
  <course>0.1</course>
  <speed>0.5</speed>
  <fix>3d</fix>
</trkpt>
<trkpt lat="33.8102515" lon="-118.3938675">
  <ele>-24.157</ele>
  <time>2026-09-02T22:12:54Z</time>
  <course>186.66</course>
  <speed>0.5200961449578337</speed>
  <fix>3d</fix>
</trkpt>
<trkpt lat="33.8102508" lon="-118.3938673">
  <ele>-23.54</ele>
  <time>2026-09-02T22:12:54Z</time>
  <course>0.12</course>
  <speed>0.5</speed>
  <fix>3d</fix>
</trkpt>
<trkpt lat="33.810252" lon="-118.3938675">
  <ele>-24.174</ele>
  <time>2026-09-02T22:12:54Z</time>
  <course>186.66</course>
  <speed>0.5200961449578337</speed>
  <fix>3d</fix>
</trkpt>
<trkpt lat="33.8102508" lon="-118.3938673">
  <ele>-23.54</ele>
  <time>2026-09-02T22:12:54Z</time>
  <course>0.12</course>
  <speed>0.5</speed>
  <fix>3d</fix>
</trkpt>
<trkpt lat="33.8102524" lon="-118.3938675">
  <ele>-24.192</ele>
  <time>2026-09-02T22:12:54Z</time>
  <course>186.66</course>
  <speed>0.5200961449578337</speed>
  <fix>3d</fix>
</trkpt>
<trkpt lat="33.8102517" lon="-118.3938673">
  <ele>-23.57</ele>
  <time>2026-09-02T22:12:54Z</time>
  <course>0.12</course>
  <speed>0.5</speed>
  <fix>3d</fix>
</trkpt>
<trkpt lat="33.8102529" lon="-118.3938675">
  <ele>-24.209</ele>
  <time>2026-09-02T22:12:54Z</time>
  <course>186.66</course>
  <speed>0.5200961449578337</speed>
  <fix>3d</fix>
</trkpt>
<trkpt lat="33.8102517" lon="-118.3938673">
  <ele>-23.57</ele>
  <time>2026-09-02T22:12:54Z</time>
  <course>0.12</course>
  <speed>0.5</speed>
  <fix>3d</fix>
</trkpt>
<trkpt lat="33.8102533" lon="-118.3938675">
  <ele>-24.225</ele>
  <time>2026-09-02T22:12:54Z</time>
  <course>186.66</course>
  <speed>0.5200961449578337</speed>
  <fix>3d</fix>
</trkpt>
<trkpt lat="33.8102526" lon="-118.3938673">
  <ele>-23.61</ele>
  <time>2026-09-02T22:12:54Z</time>
  <course>0.11</course>
  <speed>0.5</speed>
  <fix>3d</fix>
</trkpt>
<trkpt lat="33.8102537" lon="-118.3938675">
  <ele>-24.244</ele>
  <time>2026-09-02T22:12:54Z</time>
  <course>186.65</course>
  <speed>0.5200961449578337</speed>
  <fix>3d</fix>
</trkpt>
<trkpt lat="33.8102526" lon="-118.3938673">
  <ele>-23.61</ele>
  <time>2026-09-02T22:12:54Z</time>
  <course>0.11</course>
  <speed>0.5</speed>
  <fix>3d</fix>
</trkpt>
<trkpt lat="33.8102542" lon="-118.3938675">
  <ele>-24.263</ele>
  <time>2026-09-02T22:12:54Z</time>
  <course>186.65</course>
  <speed>0.5200961449578337</speed>
  <fix>3d</fix>
</trkpt>
<trkpt lat="33.8102535" lon="-118.3938673">
  <ele>-23.64</ele>
  <time>2026-09-02T22:12:54Z</time>
  <course>0.09</course>
  <speed>0.5</speed>
  <fix>3d</fix>
</trkpt>
<trkpt lat="33.8102547" lon="-118.3938675">
  <ele>-24.283</ele>
  <time>2026-09-02T22:12:54Z</time>
  <course>186.66</course>
  <speed>0.5200961449578337</speed>
  <fix>3d</fix>
</trkpt>
<trkpt lat="33.8102535" lon="-118.3938673">
  <ele>-23.64</ele>
  <time>2026-09-02T22:12:54Z</time>
  <course>0.09</course>
  <speed>0.5</speed>
  <fix>3d</fix>
</trkpt>
<trkpt lat="33.8102551" lon="-118.3938675">
  <ele>-24.301</ele>
  <time>2026-09-02T22:12:54Z</time>
  <course>186.66</course>
  <speed>0.5200961449578337</speed>
  <fix>3d</fix>
</trkpt>
<trkpt lat="33.8102544" lon="-118.3938673">
  <ele>-23.68</ele>
  <time>2026-09-02T22:12:54Z</time>
  <course>0.07</course>
  <speed>0.5</speed>
  <fix>3d</fix>
</trkpt>
<trkpt lat="33.8102556" lon="-118.3938675">
  <ele>-24.316</ele>
  <time>2026-09-02T22:12:54Z</time>
  <course>186.66</course>
  <speed>0.5200961449578337</speed>
  <fix>3d</fix>
</trkpt>
<trkpt lat="33.8102544" lon="-118.3938673">
  <ele>-23.68</ele>
  <time>2026-09-02T22:12:54Z</time>
  <course>0.07</course>
  <speed>0.5</speed>
  <fix>3d</fix>
</trkpt>
<trkpt lat="33.810256" lon="-118.3938675">
  <ele>-24.33</ele>
  <time>2026-09-02T22:12:54Z</time>
  <course>186.66</course>
  <speed>0.5200961449578337</speed>
  <fix>3d</fix>
</trkpt>
<trkpt lat="33.8102553" lon="-118.3938673">
  <ele>-23.72</ele>
  <time>2026-09-02T22:12:54Z</time>
  <course>0.09</course>
  <speed>0.5</speed>
  <fix>3d</fix>
</trkpt>
<trkpt lat="33.8102565" lon="-118.3938675">
  <ele>-24.346</ele>
  <time>2026-09-02T22:12:54Z</time>
  <course>186.66</course>
  <speed>0.5200961449578337</speed>
  <fix>3d</fix>
</trkpt>
<trkpt lat="33.8102553" lon="-118.3938673">
  <ele>-23.72</ele>
  <time>2026-09-02T22:12:54Z</time>
  <course>0.09</course>
  <speed>0.5</speed>
  <fix>3d</fix>
</trkpt>
<trkpt lat="33.8102569" lon="-118.3938675">
  <ele>-24.363</ele>
  <time>2026-09-02T22:12:54Z</time>
  <course>186.65</course>
  <speed>0.5200961449578337</speed>
  <fix>3d</fix>
</trkpt>
<trkpt lat="33.8102562" lon="-118.3938673">
  <ele>-23.75</ele>
  <time>2026-09-02T22:12:54Z</time>
  <course>0.11</course>
  <speed>0.49</speed>
  <fix>3d</fix>
</trkpt>
<trkpt lat="33.8102574" lon="-118.3938675">
  <ele>-24.379</ele>
  <time>2026-09-02T22:12:54Z</time>
  <course>186.66</course>
  <speed>0.5200961449578337</speed>
  <fix>3d</fix>
</trkpt>
<trkpt lat="33.8102562" lon="-118.3938673">
  <ele>-23.75</ele>
  <time>2026-09-02T22:12:54Z</time>
  <course>0.11</course>
  <speed>0.49</speed>
  <fix>3d</fix>
</trkpt>
<trkpt lat="33.8102578" lon="-118.3938675">
  <ele>-24.394</ele>
  <time>2026-09-02T22:12:54Z</time>
  <course>186.66</course>
  <speed>0.5200961449578337</speed>
  <fix>3d</fix>
</trkpt>
<trkpt lat="33.8102571" lon="-118.3938673">
  <ele>-23.78</ele>
  <time>2026-09-02T22:12:54Z</time>
  <course>0.12</course>
  <speed>0.49</speed>
  <fix>3d</fix>
</trkpt>
<trkpt lat="33.8102583" lon="-118.3938675">
  <ele>-24.407</ele>
  <time>2026-09-02T22:12:54Z</time>
  <course>186.66</course>
  <speed>0.5200961449578337</speed>
  <fix>3d</fix>
</trkpt>
<trkpt lat="33.8102571" lon="-118.3938673">
  <ele>-23.78</ele>
  <time>2026-09-02T22:12:54Z</time>
  <course>0.12</course>
  <speed>0.49</speed>
  <fix>3d</fix>
</trkpt>
<trkpt lat="33.8102587" lon="-118.3938675">
  <ele>-24.424</ele>
  <time>2026-09-02T22:12:54Z</time>
  <course>186.66</course>
  <speed>0.5200961449578337</speed>
  <fix>3d</fix>
</trkpt>
<trkpt lat="33.810258" lon="-118.3938673">
  <ele>-23.81</ele>
  <time>2026-09-02T22:12:54Z</time>
  <course>0.09</course>
  <speed>0.49</speed>
  <fix>3d</fix>
</trkpt>
<trkpt lat="33.8102592" lon="-118.3938675">
  <ele>-24.443</ele>
  <time>2026-09-02T22:12:54Z</time>
  <course>186.66</course>
  <speed>0.5200961449578337</speed>
  <fix>3d</fix>
</trkpt>
<trkpt lat="33.810258" lon="-118.3938673">
  <ele>-23.81</ele>
  <time>2026-09-02T22:12:54Z</time>
  <course>0.09</course>
  <speed>0.49</speed>
  <fix>3d</fix>
</trkpt>
<trkpt lat="33.8102596" lon="-118.3938675">
  <ele>-24.462</ele>
  <time>2026-09-02T22:12:54Z</time>
  <course>186.66</course>
  <speed>0.5200961449578337</speed>
  <fix>3d</fix>
</trkpt>
<trkpt lat="33.8102589" lon="-118.3938672">
  <ele>-23.84</ele>
  <time>2026-09-02T22:12:54Z</time>
  <course>0.07</course>
  <speed>0.49</speed>
  <fix>3d</fix>
</trkpt>
<trkpt lat="33.8102601" lon="-118.3938675">
  <ele>-24.48</ele>
  <time>2026-09-02T22:12:54Z</time>
  <course>186.66</course>
  <speed>0.5200961449578337</speed>
  <fix>3d</fix>
</trkpt>
<trkpt lat="33.8102589" lon="-118.3938672">
  <ele>-23.84</ele>
  <time>2026-09-02T22:12:54Z</time>
  <course>0.07</course>
  <speed>0.49</speed>
  <fix>3d</fix>
</trkpt>
<trkpt lat="33.8102605" lon="-118.3938675">
  <ele>-24.499</ele>
  <time>2026-09-02T22:12:54Z</time>
  <course>186.66</course>
  <speed>0.5200961449578337</speed>
  <fix>3d</fix>
</trkpt>
<trkpt lat="33.8102598" lon="-118.3938672">
  <ele>-23.88</ele>
  <time>2026-09-02T22:12:54Z</time>
  <course>359.99</course>
  <speed>0.49</speed>
  <fix>3d</fix>
</trkpt>
<trkpt lat="33.8102609" lon="-118.3938675">
  <ele>-24.519</ele>
  <time>2026-09-02T22:12:54Z</time>
  <course>186.66</course>
  <speed>0.5200961449578337</speed>
  <fix>3d</fix>
</trkpt>
<trkpt lat="33.8102598" lon="-118.3938672">
  <ele>-23.88</ele>
  <time>2026-09-02T22:12:54Z</time>
  <course>359.99</course>
  <speed>0.49</speed>
  <fix>3d</fix>
</trkpt>
<trkpt lat="33.8102614" lon="-118.3938675">
  <ele>-24.539</ele>
  <time>2026-09-02T22:12:54Z</time>
  <course>186.66</course>
  <speed>0.5200961449578337</speed>
  <fix>3d</fix>
</trkpt>
<trkpt lat="33.8102607" lon="-118.3938672">
  <ele>-23.92</ele>
  <time>2026-09-02T22:12:54Z</time>
  <course>359.81</course>
  <speed>0.49</speed>
  <fix>3d</fix>
</trkpt>
<trkpt lat="33.8102618" lon="-118.3938675">
  <ele>-24.557</ele>
  <time>2026-09-02T22:12:54Z</time>
  <course>186.66</course>
  <speed>0.5200961449578337</speed>
  <fix>3d</fix>
</trkpt>
<trkpt lat="33.8102607" lon="-118.3938672">
  <ele>-23.92</ele>
  <time>2026-09-02T22:12:54Z</time>
  <course>359.81</course>
  <speed>0.49</speed>
  <fix>3d</fix>
</trkpt>
<trkpt lat="33.8102623" lon="-118.3938675">
  <ele>-24.576</ele>
  <time>2026-09-02T22:12:54Z</time>
  <course>186.66</course>
  <speed>0.5200961449578337</speed>
  <fix>3d</fix>
</trkpt>
<trkpt lat="33.8102616" lon="-118.3938672">
  <ele>-23.95</ele>
  <time>2026-09-02T22:12:54Z</time>
  <course>359.6</course>
  <speed>0.49</speed>
  <fix>3d</fix>
</trkpt>
<trkpt lat="33.8102627" lon="-118.3938675">
  <ele>-24.598</ele>
  <time>2026-09-02T22:12:54Z</time>
  <course>186.66</course>
  <speed>0.5103920062069939</speed>
  <fix>3d</fix>
</trkpt>
<trkpt lat="33.8102616" lon="-118.3938672">
  <ele>-23.95</ele>
  <time>2026-09-02T22:12:54Z</time>
  <course>359.6</course>
  <speed>0.49</speed>
  <fix>3d</fix>
</trkpt>
<trkpt lat="33.8102632" lon="-118.3938675">
  <ele>-24.623</ele>
  <time>2026-09-02T22:12:54Z</time>
  <course>186.66</course>
  <speed>0.4801041553663121</speed>
  <fix>3d</fix>
</trkpt>
<trkpt lat="33.8102624" lon="-118.3938672">
  <ele>-23.99</ele>
  <time>2026-09-02T22:12:54Z</time>
  <course>359.41</course>
  <speed>0.48</speed>
  <fix>3d</fix>
</trkpt>
<trkpt lat="33.8102636" lon="-118.3938675">
  <ele>-24.649</ele>
  <time>2026-09-02T22:12:54Z</time>
  <course>186.66</course>
  <speed>0.49040799340956914</speed>
  <fix>3d</fix>
</trkpt>
<trkpt lat="33.8102624" lon="-118.3938672">
  <ele>-23.99</ele>
  <time>2026-09-02T22:12:54Z</time>
  <course>359.41</course>
  <speed>0.48</speed>
  <fix>3d</fix>
</trkpt>
<trkpt lat="33.810264" lon="-118.3938675">
  <ele>-24.676</ele>
  <time>2026-09-02T22:12:54Z</time>
  <course>186.66</course>
  <speed>0.4901020301937138</speed>
  <fix>3d</fix>
</trkpt>
<trkpt lat="33.8102633" lon="-118.3938672">
  <ele>-24.03</ele>
  <time>2026-09-02T22:12:54Z</time>
  <course>359.3</course>
  <speed>0.47</speed>
  <fix>3d</fix>
</trkpt>
<trkpt lat="33.8102644" lon="-118.3938675">
  <ele>-24.702</ele>
  <time>2026-09-02T22:12:54Z</time>
  <course>186.66</course>
  <speed>0.5003998401278722</speed>
  <fix>3d</fix>
</trkpt>
<trkpt lat="33.8102633" lon="-118.3938672">
  <ele>-24.03</ele>
  <time>2026-09-02T22:12:54Z</time>
  <course>359.3</course>
  <speed>0.47</speed>
  <fix>3d</fix>
</trkpt>
<trkpt lat="33.8102649" lon="-118.3938675">
  <ele>-24.728</ele>
  <time>2026-09-02T22:12:54Z</time>
  <course>186.65</course>
  <speed>0.5003998401278722</speed>
  <fix>3d</fix>
</trkpt>
<trkpt lat="33.8102642" lon="-118.3938672">
  <ele>-24.08</ele>
  <time>2026-09-02T22:12:54Z</time>
  <course>359.26</course>
  <speed>0.47</speed>
  <fix>3d</fix>
</trkpt>
<trkpt lat="33.8102653" lon="-118.3938675">
  <ele>-24.754</ele>
  <time>2026-09-02T22:12:54Z</time>
  <course>186.65</course>
  <speed>0.5003998401278722</speed>
  <fix>3d</fix>
</trkpt>
<trkpt lat="33.8102642" lon="-118.3938672">
  <ele>-24.08</ele>
  <time>2026-09-02T22:12:54Z</time>
  <course>359.26</course>
  <speed>0.47</speed>
  <fix>3d</fix>
</trkpt>
<trkpt lat="33.8102657" lon="-118.3938675">
  <ele>-24.781</ele>
  <time>2026-09-02T22:12:54Z</time>
  <course>186.65</course>
  <speed>0.5000999900019995</speed>
  <fix>3d</fix>
</trkpt>
<trkpt lat="33.810265" lon="-118.3938672">
  <ele>-24.13</ele>
  <time>2026-09-02T22:12:54Z</time>
  <course>359.19</course>
  <speed>0.48</speed>
  <fix>3d</fix>
</trkpt>
<trkpt lat="33.8102662" lon="-118.3938675">
  <ele>-24.808</ele>
  <time>2026-09-02T22:12:54Z</time>
  <course>186.65</course>
  <speed>0.5103920062069939</speed>
  <fix>3d</fix>
</trkpt>
<trkpt lat="33.810265" lon="-118.3938672">
  <ele>-24.13</ele>
  <time>2026-09-02T22:12:54Z</time>
  <course>359.19</course>
  <speed>0.48</speed>
  <fix>3d</fix>
</trkpt>
<trkpt lat="33.8102666" lon="-118.3938675">
  <ele>-24.835</ele>
  <time>2026-09-02T22:12:54Z</time>
  <course>186.66</course>
  <speed>0.5103920062069939</speed>
  <fix>3d</fix>
</trkpt>
<trkpt lat="33.8102659" lon="-118.3938672">
  <ele>-24.18</ele>
  <time>2026-09-02T22:12:54Z</time>
  <course>359.11</course>
  <speed>0.48</speed>
  <fix>3d</fix>
</trkpt>
<trkpt lat="33.810267" lon="-118.3938675">
  <ele>-24.86</ele>
  <time>2026-09-02T22:12:54Z</time>
  <course>186.66</course>
  <speed>0.5103920062069939</speed>
  <fix>3d</fix>
</trkpt>
<trkpt lat="33.8102659" lon="-118.3938672">
  <ele>-24.18</ele>
  <time>2026-09-02T22:12:54Z</time>
  <course>359.11</course>
  <speed>0.48</speed>
  <fix>3d</fix>
</trkpt>
<trkpt lat="33.8102675" lon="-118.3938675">
  <ele>-24.883</ele>
  <time>2026-09-02T22:12:54Z</time>
  <course>186.66</course>
  <speed>0.510098029794274</speed>
  <fix>3d</fix>
</trkpt>
<trkpt lat="33.8102668" lon="-118.3938672">
  <ele>-24.23</ele>
  <time>2026-09-02T22:12:54Z</time>
  <course>359.06</course>
  <speed>0.49</speed>
  <fix>3d</fix>
</trkpt>
<trkpt lat="33.8102679" lon="-118.3938675">
  <ele>-24.904</ele>
  <time>2026-09-02T22:12:54Z</time>
  <course>186.66</course>
  <speed>0.5103920062069939</speed>
  <fix>3d</fix>
</trkpt>
<trkpt lat="33.8102668" lon="-118.3938672">
  <ele>-24.23</ele>
  <time>2026-09-02T22:12:54Z</time>
  <course>359.06</course>
  <speed>0.49</speed>
  <fix>3d</fix>
</trkpt>
<trkpt lat="33.8102684" lon="-118.3938675">
  <ele>-24.927</ele>
  <time>2026-09-02T22:12:54Z</time>
  <course>186.66</course>
  <speed>0.510098029794274</speed>
  <fix>3d</fix>
</trkpt>
<trkpt lat="33.8102677" lon="-118.3938672">
  <ele>-24.27</ele>
  <time>2026-09-02T22:12:54Z</time>
  <course>359.02</course>
  <speed>0.49</speed>
  <fix>3d</fix>
</trkpt>
<trkpt lat="33.8102688" lon="-118.3938675">
  <ele>-24.951</ele>
  <time>2026-09-02T22:12:54Z</time>
  <course>186.66</course>
  <speed>0.5103920062069939</speed>
  <fix>3d</fix>
</trkpt>
<trkpt lat="33.8102677" lon="-118.3938672">
  <ele>-24.27</ele>
  <time>2026-09-02T22:12:54Z</time>
  <course>359.02</course>
  <speed>0.49</speed>
  <fix>3d</fix>
</trkpt>
<trkpt lat="33.8102693" lon="-118.3938675">
  <ele>-24.974</ele>
  <time>2026-09-02T22:12:54Z</time>
  <course>186.66</course>
  <speed>0.510098029794274</speed>
  <fix>3d</fix>
</trkpt>
<trkpt lat="33.8102685" lon="-118.3938673">
  <ele>-24.32</ele>
  <time>2026-09-02T22:12:54Z</time>
  <course>358.99</course>
  <speed>0.49</speed>
  <fix>3d</fix>
</trkpt>
<trkpt lat="33.8102697" lon="-118.3938675">
  <ele>-24.995</ele>
  <time>2026-09-02T22:12:54Z</time>
  <course>186.66</course>
  <speed>0.510098029794274</speed>
  <fix>3d</fix>
</trkpt>
<trkpt lat="33.8102685" lon="-118.3938673">
  <ele>-24.32</ele>
  <time>2026-09-02T22:12:54Z</time>
  <course>358.99</course>
  <speed>0.49</speed>
  <fix>3d</fix>
</trkpt>
<trkpt lat="33.8102702" lon="-118.3938675">
  <ele>-25.016</ele>
  <time>2026-09-02T22:12:54Z</time>
  <course>186.66</course>
  <speed>0.510098029794274</speed>
  <fix>3d</fix>
</trkpt>
<trkpt lat="33.8102694" lon="-118.3938673">
  <ele>-24.37</ele>
  <time>2026-09-02T22:12:54Z</time>
  <course>359.03</course>
  <speed>0.49</speed>
  <fix>3d</fix>
</trkpt>
<trkpt lat="33.8102706" lon="-118.3938675">
  <ele>-25.037</ele>
  <time>2026-09-02T22:12:54Z</time>
  <course>186.66</course>
  <speed>0.5200961449578337</speed>
  <fix>3d</fix>
</trkpt>
<trkpt lat="33.8102694" lon="-118.3938673">
  <ele>-24.37</ele>
  <time>2026-09-02T22:12:54Z</time>
  <course>359.03</course>
  <speed>0.49</speed>
  <fix>3d</fix>
</trkpt>
<trkpt lat="33.8102711" lon="-118.3938675">
  <ele>-25.055</ele>
  <time>2026-09-02T22:12:54Z</time>
  <course>186.66</course>
  <speed>0.5200961449578337</speed>
  <fix>3d</fix>
</trkpt>
<trkpt lat="33.8102703" lon="-118.3938673">
  <ele>-24.42</ele>
  <time>2026-09-02T22:12:54Z</time>
  <course>359.16</course>
  <speed>0.49</speed>
  <fix>3d</fix>
</trkpt>
<trkpt lat="33.8102715" lon="-118.3938675">
  <ele>-25.067</ele>
  <time>2026-09-02T22:12:54Z</time>
  <course>186.66</course>
  <speed>0.5200961449578337</speed>
  <fix>3d</fix>
</trkpt>
<trkpt lat="33.8102703" lon="-118.3938673">
  <ele>-24.42</ele>
  <time>2026-09-02T22:12:54Z</time>
  <course>359.16</course>
  <speed>0.49</speed>
  <fix>3d</fix>
</trkpt>
<trkpt lat="33.8102719" lon="-118.3938675">
  <ele>-25.073</ele>
  <time>2026-09-02T22:12:54Z</time>
  <course>186.66</course>
  <speed>0.5200961449578337</speed>
  <fix>3d</fix>
</trkpt>
<trkpt lat="33.8102712" lon="-118.3938673">
  <ele>-24.45</ele>
  <time>2026-09-02T22:12:54Z</time>
  <course>359.32</course>
  <speed>0.49</speed>
  <fix>3d</fix>
</trkpt>
<trkpt lat="33.8102724" lon="-118.3938675">
  <ele>-25.072</ele>
  <time>2026-09-02T22:12:54Z</time>
  <course>186.66</course>
  <speed>0.5200961449578337</speed>
  <fix>3d</fix>
</trkpt>
<trkpt lat="33.8102712" lon="-118.3938673">
  <ele>-24.45</ele>
  <time>2026-09-02T22:12:54Z</time>
  <course>359.32</course>
  <speed>0.49</speed>
  <fix>3d</fix>
</trkpt>
<trkpt lat="33.8102728" lon="-118.3938675">
  <ele>-25.066</ele>
  <time>2026-09-02T22:12:54Z</time>
  <course>186.66</course>
  <speed>0.5200961449578337</speed>
  <fix>3d</fix>
</trkpt>
<trkpt lat="33.8102721" lon="-118.3938673">
  <ele>-24.47</ele>
  <time>2026-09-02T22:12:54Z</time>
  <course>359.45</course>
  <speed>0.5</speed>
  <fix>3d</fix>
</trkpt>
<trkpt lat="33.8102733" lon="-118.3938675">
  <ele>-25.053</ele>
  <time>2026-09-02T22:12:54Z</time>
  <course>186.66</course>
  <speed>0.5200961449578337</speed>
  <fix>3d</fix>
</trkpt>
<trkpt lat="33.8102721" lon="-118.3938673">
  <ele>-24.47</ele>
  <time>2026-09-02T22:12:54Z</time>
  <course>359.45</course>
  <speed>0.5</speed>
  <fix>3d</fix>
</trkpt>
<trkpt lat="33.8102737" lon="-118.3938675">
  <ele>-25.036</ele>
  <time>2026-09-02T22:12:54Z</time>
  <course>186.66</course>
  <speed>0.5200961449578337</speed>
  <fix>3d</fix>
</trkpt>
<trkpt lat="33.810273" lon="-118.3938673">
  <ele>-24.46</ele>
  <time>2026-09-02T22:12:54Z</time>
  <course>359.55</course>
  <speed>0.5</speed>
  <fix>3d</fix>
</trkpt>
<trkpt lat="33.8102742" lon="-118.3938675">
  <ele>-25.017</ele>
  <time>2026-09-02T22:12:54Z</time>
  <course>186.66</course>
  <speed>0.5200961449578337</speed>
  <fix>3d</fix>
</trkpt>
<trkpt lat="33.810273" lon="-118.3938673">
  <ele>-24.46</ele>
  <time>2026-09-02T22:12:54Z</time>
  <course>359.55</course>
  <speed>0.5</speed>
  <fix>3d</fix>
</trkpt>
<trkpt lat="33.8102746" lon="-118.3938675">
  <ele>-24.996</ele>
  <time>2026-09-02T22:12:54Z</time>
  <course>186.66</course>
  <speed>0.5200961449578337</speed>
  <fix>3d</fix>
</trkpt>
<trkpt lat="33.8102739" lon="-118.3938673">
  <ele>-24.43</ele>
  <time>2026-09-02T22:12:54Z</time>
  <course>359.59</course>
  <speed>0.5</speed>
  <fix>3d</fix>
</trkpt>
<trkpt lat="33.8102751" lon="-118.3938675">
  <ele>-24.978</ele>
  <time>2026-09-02T22:12:54Z</time>
  <course>186.66</course>
  <speed>0.5200961449578337</speed>
  <fix>3d</fix>
</trkpt>
<trkpt lat="33.8102739" lon="-118.3938673">
  <ele>-24.43</ele>
  <time>2026-09-02T22:12:54Z</time>
  <course>359.59</course>
  <speed>0.5</speed>
  <fix>3d</fix>
</trkpt>
<trkpt lat="33.8102755" lon="-118.3938675">
  <ele>-24.96</ele>
  <time>2026-09-02T22:12:54Z</time>
  <course>186.66</course>
  <speed>0.5200961449578337</speed>
  <fix>3d</fix>
</trkpt>
<trkpt lat="33.8102748" lon="-118.3938674">
  <ele>-24.39</ele>
  <time>2026-09-02T22:12:54Z</time>
  <course>359.6</course>
  <speed>0.5</speed>
  <fix>3d</fix>
</trkpt>
<trkpt lat="33.810276" lon="-118.3938675">
  <ele>-24.943</ele>
  <time>2026-09-02T22:12:54Z</time>
  <course>186.66</course>
  <speed>0.5200961449578337</speed>
  <fix>3d</fix>
</trkpt>
<trkpt lat="33.8102748" lon="-118.3938674">
  <ele>-24.39</ele>
  <time>2026-09-02T22:12:54Z</time>
  <course>359.6</course>
  <speed>0.5</speed>
  <fix>3d</fix>
</trkpt>
<trkpt lat="33.8102764" lon="-118.3938675">
  <ele>-24.929</ele>
  <time>2026-09-02T22:12:54Z</time>
  <course>186.66</course>
  <speed>0.5200961449578337</speed>
  <fix>3d</fix>
</trkpt>
<trkpt lat="33.8102757" lon="-118.3938674">
  <ele>-24.36</ele>
  <time>2026-09-02T22:12:54Z</time>
  <course>359.68</course>
  <speed>0.5</speed>
  <fix>3d</fix>
</trkpt>
<trkpt lat="33.8102769" lon="-118.3938675">
  <ele>-24.916</ele>
  <time>2026-09-02T22:12:54Z</time>
  <course>186.66</course>
  <speed>0.5200961449578337</speed>
  <fix>3d</fix>
</trkpt>
<trkpt lat="33.8102757" lon="-118.3938674">
  <ele>-24.36</ele>
  <time>2026-09-02T22:12:54Z</time>
  <course>359.68</course>
  <speed>0.5</speed>
  <fix>3d</fix>
</trkpt>
<trkpt lat="33.8102773" lon="-118.3938675">
  <ele>-24.903</ele>
  <time>2026-09-02T22:12:54Z</time>
  <course>186.66</course>
  <speed>0.5200961449578337</speed>
  <fix>3d</fix>
</trkpt>
<trkpt lat="33.8102766" lon="-118.3938674">
  <ele>-24.34</ele>
  <time>2026-09-02T22:12:54Z</time>
  <course>359.85</course>
  <speed>0.5</speed>
  <fix>3d</fix>
</trkpt>
<trkpt lat="33.8102778" lon="-118.3938675">
  <ele>-24.891</ele>
  <time>2026-09-02T22:12:54Z</time>
  <course>186.66</course>
  <speed>0.5200961449578337</speed>
  <fix>3d</fix>
</trkpt>
<trkpt lat="33.8102766" lon="-118.3938674">
  <ele>-24.34</ele>
  <time>2026-09-02T22:12:54Z</time>
  <course>359.85</course>
  <speed>0.5</speed>
  <fix>3d</fix>
</trkpt>
<trkpt lat="33.8102782" lon="-118.3938675">
  <ele>-24.88</ele>
  <time>2026-09-02T22:12:54Z</time>
  <course>186.66</course>
  <speed>0.5200961449578337</speed>
  <fix>3d</fix>
</trkpt>
<trkpt lat="33.8102775" lon="-118.3938674">
  <ele>-24.31</ele>
  <time>2026-09-02T22:12:54Z</time>
  <course>0.05</course>
  <speed>0.5</speed>
  <fix>3d</fix>
</trkpt>
<trkpt lat="33.8102787" lon="-118.3938675">
  <ele>-24.876</ele>
  <time>2026-09-02T22:12:54Z</time>
  <course>186.66</course>
  <speed>0.5200961449578337</speed>
  <fix>3d</fix>
</trkpt>
<trkpt lat="33.8102775" lon="-118.3938674">
  <ele>-24.31</ele>
  <time>2026-09-02T22:12:54Z</time>
  <course>0.05</course>
  <speed>0.5</speed>
  <fix>3d</fix>
</trkpt>
<trkpt lat="33.8102791" lon="-118.3938675">
  <ele>-24.878</ele>
  <time>2026-09-02T22:12:54Z</time>
  <course>186.66</course>
  <speed>0.52</speed>
  <fix>3d</fix>
</trkpt>
<trkpt lat="33.8102784" lon="-118.3938674">
  <ele>-24.29</ele>
  <time>2026-09-02T22:12:54Z</time>
  <course>0.22</course>
  <speed>0.5</speed>
  <fix>3d</fix>
</trkpt>
<trkpt lat="33.8102796" lon="-118.3938675">
  <ele>-24.883</ele>
  <time>2026-09-02T22:12:54Z</time>
  <course>186.66</course>
  <speed>0.5200961449578337</speed>
  <fix>3d</fix>
</trkpt>
<trkpt lat="33.8102784" lon="-118.3938674">
  <ele>-24.29</ele>
  <time>2026-09-02T22:12:54Z</time>
  <course>0.22</course>
  <speed>0.5</speed>
  <fix>3d</fix>
</trkpt>
<trkpt lat="33.81028" lon="-118.3938675">
  <ele>-24.893</ele>
  <time>2026-09-02T22:12:54Z</time>
  <course>186.66</course>
  <speed>0.52</speed>
  <fix>3d</fix>
</trkpt>
<trkpt lat="33.8102793" lon="-118.3938674">
  <ele>-24.29</ele>
  <time>2026-09-02T22:12:54Z</time>
  <course>0.33</course>
  <speed>0.5</speed>
  <fix>3d</fix>
</trkpt>
<trkpt lat="33.8102805" lon="-118.3938675">
  <ele>-24.905</ele>
  <time>2026-09-02T22:12:54Z</time>
  <course>186.66</course>
  <speed>0.52</speed>
  <fix>3d</fix>
</trkpt>
<trkpt lat="33.8102793" lon="-118.3938674">
  <ele>-24.29</ele>
  <time>2026-09-02T22:12:54Z</time>
  <course>0.33</course>
  <speed>0.5</speed>
  <fix>3d</fix>
</trkpt>
<trkpt lat="33.8102809" lon="-118.3938675">
  <ele>-24.919</ele>
  <time>2026-09-02T22:12:54Z</time>
  <course>186.66</course>
  <speed>0.52</speed>
  <fix>3d</fix>
</trkpt>
<trkpt lat="33.8102802" lon="-118.3938674">
  <ele>-24.31</ele>
  <time>2026-09-02T22:12:54Z</time>
  <course>0.41</course>
  <speed>0.5</speed>
  <fix>3d</fix>
</trkpt>
<trkpt lat="33.8102814" lon="-118.3938675">
  <ele>-24.934</ele>
  <time>2026-09-02T22:12:54Z</time>
  <course>186.66</course>
  <speed>0.52</speed>
  <fix>3d</fix>
</trkpt>
<trkpt lat="33.8102802" lon="-118.3938674">
  <ele>-24.31</ele>
  <time>2026-09-02T22:12:54Z</time>
  <course>0.41</course>
  <speed>0.5</speed>
  <fix>3d</fix>
</trkpt>
<trkpt lat="33.8102818" lon="-118.3938675">
  <ele>-24.95</ele>
  <time>2026-09-02T22:12:54Z</time>
  <course>186.66</course>
  <speed>0.52</speed>
  <fix>3d</fix>
</trkpt>
<trkpt lat="33.8102811" lon="-118.3938674">
  <ele>-24.33</ele>
  <time>2026-09-02T22:12:54Z</time>
  <course>0.47</course>
  <speed>0.5</speed>
  <fix>3d</fix>
</trkpt>
<trkpt lat="33.8102823" lon="-118.3938675">
  <ele>-24.968</ele>
  <time>2026-09-02T22:12:54Z</time>
  <course>186.66</course>
  <speed>0.52</speed>
  <fix>3d</fix>
</trkpt>
<trkpt lat="33.8102811" lon="-118.3938674">
  <ele>-24.33</ele>
  <time>2026-09-02T22:12:54Z</time>
  <course>0.47</course>
  <speed>0.5</speed>
  <fix>3d</fix>
</trkpt>
<trkpt lat="33.8102827" lon="-118.3938675">
  <ele>-24.983</ele>
  <time>2026-09-02T22:12:54Z</time>
  <course>186.66</course>
  <speed>0.52</speed>
  <fix>3d</fix>
</trkpt>
<trkpt lat="33.810282" lon="-118.3938674">
  <ele>-24.36</ele>
  <time>2026-09-02T22:12:54Z</time>
  <course>0.52</course>
  <speed>0.5</speed>
  <fix>3d</fix>
</trkpt>
<trkpt lat="33.8102832" lon="-118.3938675">
  <ele>-24.997</ele>
  <time>2026-09-02T22:12:54Z</time>
  <course>186.66</course>
  <speed>0.52</speed>
  <fix>3d</fix>
</trkpt>
<trkpt lat="33.810282" lon="-118.3938674">
  <ele>-24.36</ele>
  <time>2026-09-02T22:12:54Z</time>
  <course>0.52</course>
  <speed>0.5</speed>
  <fix>3d</fix>
</trkpt>
<trkpt lat="33.8102836" lon="-118.3938675">
  <ele>-25.009</ele>
  <time>2026-09-02T22:12:54Z</time>
  <course>186.66</course>
  <speed>0.52</speed>
  <fix>3d</fix>
</trkpt>
<trkpt lat="33.8102829" lon="-118.3938674">
  <ele>-24.39</ele>
  <time>2026-09-02T22:12:54Z</time>
  <course>0.57</course>
  <speed>0.5</speed>
  <fix>3d</fix>
</trkpt>
<trkpt lat="33.8102841" lon="-118.3938675">
  <ele>-25.019</ele>
  <time>2026-09-02T22:12:54Z</time>
  <course>186.66</course>
  <speed>0.5200961449578337</speed>
  <fix>3d</fix>
</trkpt>
<trkpt lat="33.8102829" lon="-118.3938674">
  <ele>-24.39</ele>
  <time>2026-09-02T22:12:54Z</time>
  <course>0.57</course>
  <speed>0.5</speed>
  <fix>3d</fix>
</trkpt>
<trkpt lat="33.8102845" lon="-118.3938675">
  <ele>-25.026</ele>
  <time>2026-09-02T22:12:54Z</time>
  <course>186.66</course>
  <speed>0.52</speed>
  <fix>3d</fix>
</trkpt>
<trkpt lat="33.8102838" lon="-118.3938674">
  <ele>-24.42</ele>
  <time>2026-09-02T22:12:54Z</time>
  <course>0.63</course>
  <speed>0.5</speed>
  <fix>3d</fix>
</trkpt>
<trkpt lat="33.810285" lon="-118.3938675">
  <ele>-25.034</ele>
  <time>2026-09-02T22:12:54Z</time>
  <course>186.66</course>
  <speed>0.5200961449578337</speed>
  <fix>3d</fix>
</trkpt>
<trkpt lat="33.8102838" lon="-118.3938674">
  <ele>-24.42</ele>
  <time>2026-09-02T22:12:54Z</time>
  <course>0.63</course>
  <speed>0.5</speed>
  <fix>3d</fix>
</trkpt>
<trkpt lat="33.8102854" lon="-118.3938675">
  <ele>-25.04</ele>
  <time>2026-09-02T22:12:54Z</time>
  <course>186.66</course>
  <speed>0.52</speed>
  <fix>3d</fix>
</trkpt>
<trkpt lat="33.8102847" lon="-118.3938674">
  <ele>-24.43</ele>
  <time>2026-09-02T22:12:54Z</time>
  <course>0.68</course>
  <speed>0.5</speed>
  <fix>3d</fix>
</trkpt>
<trkpt lat="33.8102859" lon="-118.3938675">
  <ele>-25.045</ele>
  <time>2026-09-02T22:12:54Z</time>
  <course>186.66</course>
  <speed>0.5200961449578337</speed>
  <fix>3d</fix>
</trkpt>
<trkpt lat="33.8102847" lon="-118.3938674">
  <ele>-24.43</ele>
  <time>2026-09-02T22:12:54Z</time>
  <course>0.68</course>
  <speed>0.5</speed>
  <fix>3d</fix>
</trkpt>
<trkpt lat="33.8102863" lon="-118.3938675">
  <ele>-25.048</ele>
  <time>2026-09-02T22:12:54Z</time>
  <course>186.66</course>
  <speed>0.4801041553663121</speed>
  <fix>3d</fix>
</trkpt>
<trkpt lat="33.8102856" lon="-118.3938674">
  <ele>-24.44</ele>
  <time>2026-09-02T22:12:54Z</time>
  <course>0.73</course>
  <speed>0.49</speed>
  <fix>3d</fix>
</trkpt>
<trkpt lat="33.8102867" lon="-118.3938675">
  <ele>-25.051</ele>
  <time>2026-09-02T22:12:54Z</time>
  <course>186.66</course>
  <speed>0.49</speed>
  <fix>3d</fix>
</trkpt>
<trkpt lat="33.8102856" lon="-118.3938674">
  <ele>-24.44</ele>
  <time>2026-09-02T22:12:54Z</time>
  <course>0.73</course>
  <speed>0.49</speed>
  <fix>3d</fix>
</trkpt>
<trkpt lat="33.8102872" lon="-118.3938675">
  <ele>-25.053</ele>
  <time>2026-09-02T22:12:54Z</time>
  <course>186.66</course>
  <speed>0.49</speed>
  <fix>3d</fix>
</trkpt>
<trkpt lat="33.8102865" lon="-118.3938674">
  <ele>-24.45</ele>
  <time>2026-09-02T22:12:54Z</time>
  <course>0.85</course>
  <speed>0.48</speed>
  <fix>3d</fix>
</trkpt>
<trkpt lat="33.8102876" lon="-118.3938675">
  <ele>-25.046</ele>
  <time>2026-09-02T22:12:54Z</time>
  <course>186.66</course>
  <speed>0.49</speed>
  <fix>3d</fix>
</trkpt>
<trkpt lat="33.8102865" lon="-118.3938674">
  <ele>-24.45</ele>
  <time>2026-09-02T22:12:54Z</time>
  <course>0.85</course>
  <speed>0.48</speed>
  <fix>3d</fix>
</trkpt>
<trkpt lat="33.810288" lon="-118.3938675">
  <ele>-25.031</ele>
  <time>2026-09-02T22:12:54Z</time>
  <course>186.66</course>
  <speed>0.49</speed>
  <fix>3d</fix>
</trkpt>
<trkpt lat="33.8102873" lon="-118.3938673">
  <ele>-24.44</ele>
  <time>2026-09-02T22:12:54Z</time>
  <course>0.98</course>
  <speed>0.47</speed>
  <fix>3d</fix>
</trkpt>
<trkpt lat="33.8102885" lon="-118.3938675">
  <ele>-25.016</ele>
  <time>2026-09-02T22:12:54Z</time>
  <course>186.66</course>
  <speed>0.5000999900019995</speed>
  <fix>3d</fix>
</trkpt>
<trkpt lat="33.8102873" lon="-118.3938673">
  <ele>-24.44</ele>
  <time>2026-09-02T22:12:54Z</time>
  <course>0.98</course>
  <speed>0.47</speed>
  <fix>3d</fix>
</trkpt>
<trkpt lat="33.8102889" lon="-118.3938675">
  <ele>-25.003</ele>
  <time>2026-09-02T22:12:54Z</time>
  <course>186.66</course>
  <speed>0.5000999900019995</speed>
  <fix>3d</fix>
</trkpt>
<trkpt lat="33.8102882" lon="-118.3938673">
  <ele>-24.42</ele>
  <time>2026-09-02T22:12:54Z</time>
  <course>0.93</course>
  <speed>0.47</speed>
  <fix>3d</fix>
</trkpt>
<trkpt lat="33.8102893" lon="-118.3938675">
  <ele>-24.99</ele>
  <time>2026-09-02T22:12:54Z</time>
  <course>186.66</course>
  <speed>0.5000999900019995</speed>
  <fix>3d</fix>
</trkpt>
<trkpt lat="33.8102882" lon="-118.3938673">
  <ele>-24.42</ele>
  <time>2026-09-02T22:12:54Z</time>
  <course>0.93</course>
  <speed>0.47</speed>
  <fix>3d</fix>
</trkpt>
<trkpt lat="33.8102898" lon="-118.3938675">
  <ele>-24.979</ele>
  <time>2026-09-02T22:12:54Z</time>
  <course>186.66</course>
  <speed>0.5000999900019995</speed>
  <fix>3d</fix>
</trkpt>
<trkpt lat="33.8102891" lon="-118.3938673">
  <ele>-24.4</ele>
  <time>2026-09-02T22:12:54Z</time>
  <course>0.75</course>
  <speed>0.48</speed>
  <fix>3d</fix>
</trkpt>
<trkpt lat="33.8102902" lon="-118.3938675">
  <ele>-24.976</ele>
  <time>2026-09-02T22:12:54Z</time>
  <course>186.66</course>
  <speed>0.510098029794274</speed>
  <fix>3d</fix>
</trkpt>
<trkpt lat="33.8102891" lon="-118.3938673">
  <ele>-24.4</ele>
  <time>2026-09-02T22:12:54Z</time>
  <course>0.75</course>
  <speed>0.48</speed>
  <fix>3d</fix>
</trkpt>
<trkpt lat="33.8102906" lon="-118.3938675">
  <ele>-24.98</ele>
  <time>2026-09-02T22:12:54Z</time>
  <course>186.66</course>
  <speed>0.510098029794274</speed>
  <fix>3d</fix>
</trkpt>
<trkpt lat="33.8102899" lon="-118.3938673">
  <ele>-24.39</ele>
  <time>2026-09-02T22:12:54Z</time>
  <course>0.54</course>
  <speed>0.48</speed>
  <fix>3d</fix>
</trkpt>
<trkpt lat="33.8102911" lon="-118.3938675">
  <ele>-24.986</ele>
  <time>2026-09-02T22:12:54Z</time>
  <course>186.66</course>
  <speed>0.510098029794274</speed>
  <fix>3d</fix>
</trkpt>
<trkpt lat="33.8102899" lon="-118.3938673">
  <ele>-24.39</ele>
  <time>2026-09-02T22:12:54Z</time>
  <course>0.54</course>
  <speed>0.48</speed>
  <fix>3d</fix>
</trkpt>
<trkpt lat="33.8102915" lon="-118.3938675">
  <ele>-24.987</ele>
  <time>2026-09-02T22:12:54Z</time>
  <course>186.66</course>
  <speed>0.510098029794274</speed>
  <fix>3d</fix>
</trkpt>
<trkpt lat="33.8102908" lon="-118.3938673">
  <ele>-24.39</ele>
  <time>2026-09-02T22:12:54Z</time>
  <course>0.38</course>
  <speed>0.48</speed>
  <fix>3d</fix>
</trkpt>
<trkpt lat="33.810292" lon="-118.3938675">
  <ele>-24.986</ele>
  <time>2026-09-02T22:12:54Z</time>
  <course>186.66</course>
  <speed>0.510098029794274</speed>
  <fix>3d</fix>
</trkpt>
<trkpt lat="33.8102908" lon="-118.3938673">
  <ele>-24.39</ele>
  <time>2026-09-02T22:12:54Z</time>
  <course>0.38</course>
  <speed>0.48</speed>
  <fix>3d</fix>
</trkpt>
<trkpt lat="33.8102924" lon="-118.3938675">
  <ele>-24.984</ele>
  <time>2026-09-02T22:12:54Z</time>
  <course>186.66</course>
  <speed>0.510098029794274</speed>
  <fix>3d</fix>
</trkpt>
<trkpt lat="33.8102917" lon="-118.3938673">
  <ele>-24.39</ele>
  <time>2026-09-02T22:12:54Z</time>
  <course>0.31</course>
  <speed>0.49</speed>
  <fix>3d</fix>
</trkpt>
<trkpt lat="33.8102929" lon="-118.3938675">
  <ele>-24.983</ele>
  <time>2026-09-02T22:12:54Z</time>
  <course>186.66</course>
  <speed>0.510098029794274</speed>
  <fix>3d</fix>
</trkpt>
<trkpt lat="33.8102917" lon="-118.3938673">
  <ele>-24.39</ele>
  <time>2026-09-02T22:12:54Z</time>
  <course>0.31</course>
  <speed>0.49</speed>
  <fix>3d</fix>
</trkpt>
<trkpt lat="33.8102933" lon="-118.3938675">
  <ele>-24.981</ele>
  <time>2026-09-02T22:12:54Z</time>
  <course>186.66</course>
  <speed>0.510098029794274</speed>
  <fix>3d</fix>
</trkpt>
<trkpt lat="33.8102926" lon="-118.3938673">
  <ele>-24.39</ele>
  <time>2026-09-02T22:12:54Z</time>
  <course>0.26</course>
  <speed>0.49</speed>
  <fix>3d</fix>
</trkpt>
<trkpt lat="33.8102938" lon="-118.3938675">
  <ele>-24.978</ele>
  <time>2026-09-02T22:12:54Z</time>
  <course>186.66</course>
  <speed>0.510098029794274</speed>
  <fix>3d</fix>
</trkpt>
<trkpt lat="33.8102926" lon="-118.3938673">
  <ele>-24.39</ele>
  <time>2026-09-02T22:12:54Z</time>
  <course>0.26</course>
  <speed>0.49</speed>
  <fix>3d</fix>
</trkpt>
<trkpt lat="33.8102942" lon="-118.3938675">
  <ele>-24.975</ele>
  <time>2026-09-02T22:12:54Z</time>
  <course>186.66</course>
  <speed>0.510098029794274</speed>
  <fix>3d</fix>
</trkpt>
<trkpt lat="33.8102935" lon="-118.3938673">
  <ele>-24.38</ele>
  <time>2026-09-02T22:12:54Z</time>
  <course>0.24</course>
  <speed>0.49</speed>
  <fix>3d</fix>
</trkpt>
<trkpt lat="33.8102947" lon="-118.3938675">
  <ele>-24.972</ele>
  <time>2026-09-02T22:12:54Z</time>
  <course>186.66</course>
  <speed>0.5200961449578337</speed>
  <fix>3d</fix>
</trkpt>
<trkpt lat="33.8102935" lon="-118.3938673">
  <ele>-24.38</ele>
  <time>2026-09-02T22:12:54Z</time>
  <course>0.24</course>
  <speed>0.49</speed>
  <fix>3d</fix>
</trkpt>
<trkpt lat="33.8102951" lon="-118.3938675">
  <ele>-24.968</ele>
  <time>2026-09-02T22:12:54Z</time>
  <course>186.66</course>
  <speed>0.5200961449578337</speed>
  <fix>3d</fix>
</trkpt>
<trkpt lat="33.8102944" lon="-118.3938673">
  <ele>-24.38</ele>
  <time>2026-09-02T22:12:54Z</time>
  <course>0.26</course>
  <speed>0.49</speed>
  <fix>3d</fix>
</trkpt>
<trkpt lat="33.8102956" lon="-118.3938675">
  <ele>-24.965</ele>
  <time>2026-09-02T22:12:54Z</time>
  <course>186.66</course>
  <speed>0.5200961449578337</speed>
  <fix>3d</fix>
</trkpt>
<trkpt lat="33.8102944" lon="-118.3938673">
  <ele>-24.38</ele>
  <time>2026-09-02T22:12:55Z</time>
  <course>0.26</course>
  <speed>0.49</speed>
  <fix>3d</fix>
</trkpt>
<trkpt lat="33.810296" lon="-118.3938675">
  <ele>-24.962</ele>
  <time>2026-09-02T22:12:55Z</time>
  <course>186.66</course>
  <speed>0.5200961449578337</speed>
  <fix>3d</fix>
</trkpt>
<trkpt lat="33.8102952" lon="-118.3938673">
  <ele>-24.37</ele>
  <time>2026-09-02T22:12:55Z</time>
  <course>0.29</course>
  <speed>0.49</speed>
  <fix>3d</fix>
</trkpt>
<trkpt lat="33.8102964" lon="-118.3938675">
  <ele>-24.958</ele>
  <time>2026-09-02T22:12:55Z</time>
  <course>186.66</course>
  <speed>0.5200961449578337</speed>
  <fix>3d</fix>
</trkpt>
<trkpt lat="33.8102952" lon="-118.3938673">
  <ele>-24.37</ele>
  <time>2026-09-02T22:12:55Z</time>
  <course>0.29</course>
  <speed>0.49</speed>
  <fix>3d</fix>
</trkpt>
<trkpt lat="33.8102969" lon="-118.3938675">
  <ele>-24.957</ele>
  <time>2026-09-02T22:12:55Z</time>
  <course>186.66</course>
  <speed>0.5200961449578337</speed>
  <fix>3d</fix>
</trkpt>
<trkpt lat="33.8102961" lon="-118.3938673">
  <ele>-24.37</ele>
  <time>2026-09-02T22:12:55Z</time>
  <course>0.32</course>
  <speed>0.49</speed>
  <fix>3d</fix>
</trkpt>
<trkpt lat="33.8102973" lon="-118.3938675">
  <ele>-24.957</ele>
  <time>2026-09-02T22:12:55Z</time>
  <course>186.66</course>
  <speed>0.5200961449578337</speed>
  <fix>3d</fix>
</trkpt>
<trkpt lat="33.8102961" lon="-118.3938673">
  <ele>-24.37</ele>
  <time>2026-09-02T22:12:55Z</time>
  <course>0.32</course>
  <speed>0.49</speed>
  <fix>3d</fix>
</trkpt>
<trkpt lat="33.8102978" lon="-118.3938675">
  <ele>-24.957</ele>
  <time>2026-09-02T22:12:55Z</time>
  <course>186.65</course>
  <speed>0.5200961449578337</speed>
  <fix>3d</fix>
</trkpt>
<trkpt lat="33.810297" lon="-118.3938673">
  <ele>-24.37</ele>
  <time>2026-09-02T22:12:55Z</time>
  <course>0.34</course>
  <speed>0.49</speed>
  <fix>3d</fix>
</trkpt>
<trkpt lat="33.8102982" lon="-118.3938675">
  <ele>-24.956</ele>
  <time>2026-09-02T22:12:55Z</time>
  <course>186.66</course>
  <speed>0.5200961449578337</speed>
  <fix>3d</fix>
</trkpt>
<trkpt lat="33.810297" lon="-118.3938673">
  <ele>-24.37</ele>
  <time>2026-09-02T22:12:55Z</time>
  <course>0.34</course>
  <speed>0.49</speed>
  <fix>3d</fix>
</trkpt>
<trkpt lat="33.8102987" lon="-118.3938674">
  <ele>-24.957</ele>
  <time>2026-09-02T22:12:55Z</time>
  <course>186.66</course>
  <speed>0.5200961449578337</speed>
  <fix>3d</fix>
</trkpt>
<trkpt lat="33.8102979" lon="-118.3938672">
  <ele>-24.36</ele>
  <time>2026-09-02T22:12:55Z</time>
  <course>0.34</course>
  <speed>0.49</speed>
  <fix>3d</fix>
</trkpt>
<trkpt lat="33.8102991" lon="-118.3938674">
  <ele>-24.962</ele>
  <time>2026-09-02T22:12:55Z</time>
  <course>186.65</course>
  <speed>0.5200961449578337</speed>
  <fix>3d</fix>
</trkpt>
<trkpt lat="33.8102979" lon="-118.3938672">
  <ele>-24.36</ele>
  <time>2026-09-02T22:12:55Z</time>
  <course>0.34</course>
  <speed>0.49</speed>
  <fix>3d</fix>
</trkpt>
<trkpt lat="33.8102996" lon="-118.3938674">
  <ele>-24.973</ele>
  <time>2026-09-02T22:12:55Z</time>
  <course>186.66</course>
  <speed>0.5200961449578337</speed>
  <fix>3d</fix>
</trkpt>
<trkpt lat="33.8102988" lon="-118.3938672">
  <ele>-24.36</ele>
  <time>2026-09-02T22:12:55Z</time>
  <course>0.25</course>
  <speed>0.5</speed>
  <fix>3d</fix>
</trkpt>
<trkpt lat="33.8103" lon="-118.3938674">
  <ele>-24.988</ele>
  <time>2026-09-02T22:12:55Z</time>
  <course>186.66</course>
  <speed>0.5200961449578337</speed>
  <fix>3d</fix>
</trkpt>
<trkpt lat="33.8102988" lon="-118.3938672">
  <ele>-24.36</ele>
  <time>2026-09-02T22:12:55Z</time>
  <course>0.25</course>
  <speed>0.5</speed>
  <fix>3d</fix>
</trkpt>
<trkpt lat="33.8103005" lon="-118.3938674">
  <ele>-25.002</ele>
  <time>2026-09-02T22:12:55Z</time>
  <course>186.65</course>
  <speed>0.5200961449578337</speed>
  <fix>3d</fix>
</trkpt>
<trkpt lat="33.8102997" lon="-118.3938672">
  <ele>-24.38</ele>
  <time>2026-09-02T22:12:55Z</time>
  <course>0.07</course>
  <speed>0.5</speed>
  <fix>3d</fix>
</trkpt>
<trkpt lat="33.8103009" lon="-118.3938674">
  <ele>-25.01</ele>
  <time>2026-09-02T22:12:55Z</time>
  <course>186.65</course>
  <speed>0.5200961449578337</speed>
  <fix>3d</fix>
</trkpt>
<trkpt lat="33.8102997" lon="-118.3938672">
  <ele>-24.38</ele>
  <time>2026-09-02T22:12:55Z</time>
  <course>0.07</course>
  <speed>0.5</speed>
  <fix>3d</fix>
</trkpt>
<trkpt lat="33.8103014" lon="-118.3938674">
  <ele>-25.013</ele>
  <time>2026-09-02T22:12:55Z</time>
  <course>186.65</course>
  <speed>0.5200961449578337</speed>
  <fix>3d</fix>
</trkpt>
<trkpt lat="33.8103006" lon="-118.3938672">
  <ele>-24.4</ele>
  <time>2026-09-02T22:12:55Z</time>
  <course>359.91</course>
  <speed>0.5</speed>
  <fix>3d</fix>
</trkpt>
<trkpt lat="33.8103018" lon="-118.3938674">
  <ele>-25.013</ele>
  <time>2026-09-02T22:12:55Z</time>
  <course>186.65</course>
  <speed>0.5200961449578337</speed>
  <fix>3d</fix>
</trkpt>
<trkpt lat="33.8103006" lon="-118.3938672">
  <ele>-24.4</ele>
  <time>2026-09-02T22:12:55Z</time>
  <course>359.91</course>
  <speed>0.5</speed>
  <fix>3d</fix>
</trkpt>
<trkpt lat="33.8103023" lon="-118.3938674">
  <ele>-25.009</ele>
  <time>2026-09-02T22:12:55Z</time>
  <course>186.65</course>
  <speed>0.5200961449578337</speed>
  <fix>3d</fix>
</trkpt>
<trkpt lat="33.8103015" lon="-118.3938672">
  <ele>-24.41</ele>
  <time>2026-09-02T22:12:55Z</time>
  <course>359.77</course>
  <speed>0.5</speed>
  <fix>3d</fix>
</trkpt>
<trkpt lat="33.8103027" lon="-118.3938674">
  <ele>-25.006</ele>
  <time>2026-09-02T22:12:55Z</time>
  <course>186.66</course>
  <speed>0.5203844732503076</speed>
  <fix>3d</fix>
</trkpt>
<trkpt lat="33.8103015" lon="-118.3938672">
  <ele>-24.41</ele>
  <time>2026-09-02T22:12:55Z</time>
  <course>359.77</course>
  <speed>0.5</speed>
  <fix>3d</fix>
</trkpt>
<trkpt lat="33.8103032" lon="-118.3938674">
  <ele>-25.004</ele>
  <time>2026-09-02T22:12:55Z</time>
  <course>186.66</course>
  <speed>0.5203844732503076</speed>
  <fix>3d</fix>
</trkpt>
<trkpt lat="33.8103024" lon="-118.3938672">
  <ele>-24.41</ele>
  <time>2026-09-02T22:12:55Z</time>
  <course>359.64</course>
  <speed>0.5</speed>
  <fix>3d</fix>
</trkpt>
<trkpt lat="33.8103036" lon="-118.3938674">
  <ele>-25.002</ele>
  <time>2026-09-02T22:12:55Z</time>
  <course>186.66</course>
  <speed>0.5203844732503076</speed>
  <fix>3d</fix>
</trkpt>
<trkpt lat="33.8103024" lon="-118.3938672">
  <ele>-24.41</ele>
  <time>2026-09-02T22:12:55Z</time>
  <course>359.64</course>
  <speed>0.5</speed>
  <fix>3d</fix>
</trkpt>
<trkpt lat="33.8103041" lon="-118.3938674">
  <ele>-24.996</ele>
  <time>2026-09-02T22:12:55Z</time>
  <course>186.66</course>
  <speed>0.5203844732503076</speed>
  <fix>3d</fix>
</trkpt>
<trkpt lat="33.8103033" lon="-118.3938672">
  <ele>-24.4</ele>
  <time>2026-09-02T22:12:55Z</time>
  <course>359.53</course>
  <speed>0.5</speed>
  <fix>3d</fix>
</trkpt>
<trkpt lat="33.8103045" lon="-118.3938674">
  <ele>-24.984</ele>
  <time>2026-09-02T22:12:55Z</time>
  <course>186.66</course>
  <speed>0.5203844732503076</speed>
  <fix>3d</fix>
</trkpt>
<trkpt lat="33.8103033" lon="-118.3938672">
  <ele>-24.4</ele>
  <time>2026-09-02T22:12:55Z</time>
  <course>359.53</course>
  <speed>0.5</speed>
  <fix>3d</fix>
</trkpt>
<trkpt lat="33.8103049" lon="-118.3938674">
  <ele>-24.971</ele>
  <time>2026-09-02T22:12:55Z</time>
  <course>186.66</course>
  <speed>0.5203844732503076</speed>
  <fix>3d</fix>
</trkpt>
<trkpt lat="33.8103042" lon="-118.3938672">
  <ele>-24.39</ele>
  <time>2026-09-02T22:12:55Z</time>
  <course>359.48</course>
  <speed>0.5</speed>
  <fix>3d</fix>
</trkpt>
<trkpt lat="33.8103054" lon="-118.3938674">
  <ele>-24.958</ele>
  <time>2026-09-02T22:12:55Z</time>
  <course>186.66</course>
  <speed>0.5203844732503076</speed>
  <fix>3d</fix>
</trkpt>
<trkpt lat="33.8103042" lon="-118.3938672">
  <ele>-24.39</ele>
  <time>2026-09-02T22:12:55Z</time>
  <course>359.48</course>
  <speed>0.5</speed>
  <fix>3d</fix>
</trkpt>
<trkpt lat="33.8103058" lon="-118.3938674">
  <ele>-24.944</ele>
  <time>2026-09-02T22:12:55Z</time>
  <course>186.66</course>
  <speed>0.5200961449578337</speed>
  <fix>3d</fix>
</trkpt>
<trkpt lat="33.8103051" lon="-118.3938672">
  <ele>-24.36</ele>
  <time>2026-09-02T22:12:55Z</time>
  <course>359.46</course>
  <speed>0.5</speed>
  <fix>3d</fix>
</trkpt>
<trkpt lat="33.8103063" lon="-118.3938674">
  <ele>-24.932</ele>
  <time>2026-09-02T22:12:55Z</time>
  <course>186.66</course>
  <speed>0.5203844732503076</speed>
  <fix>3d</fix>
</trkpt>
<trkpt lat="33.8103051" lon="-118.3938672">
  <ele>-24.36</ele>
  <time>2026-09-02T22:12:55Z</time>
  <course>359.46</course>
  <speed>0.5</speed>
  <fix>3d</fix>
</trkpt>
<trkpt lat="33.8103067" lon="-118.3938674">
  <ele>-24.926</ele>
  <time>2026-09-02T22:12:55Z</time>
  <course>186.66</course>
  <speed>0.5200961449578337</speed>
  <fix>3d</fix>
</trkpt>
<trkpt lat="33.8103061" lon="-118.3938672">
  <ele>-24.35</ele>
  <time>2026-09-02T22:12:55Z</time>
  <course>359.42</course>
  <speed>0.5</speed>
  <fix>3d</fix>
</trkpt>
<trkpt lat="33.8103072" lon="-118.3938674">
  <ele>-24.923</ele>
  <time>2026-09-02T22:12:55Z</time>
  <course>186.66</course>
  <speed>0.5203844732503076</speed>
  <fix>3d</fix>
</trkpt>
<trkpt lat="33.8103061" lon="-118.3938672">
  <ele>-24.35</ele>
  <time>2026-09-02T22:12:55Z</time>
  <course>359.42</course>
  <speed>0.5</speed>
  <fix>3d</fix>
</trkpt>
<trkpt lat="33.8103077" lon="-118.3938674">
  <ele>-24.92</ele>
  <time>2026-09-02T22:12:55Z</time>
  <course>186.66</course>
  <speed>0.5200961449578337</speed>
  <fix>3d</fix>
</trkpt>
<trkpt lat="33.810307" lon="-118.3938672">
  <ele>-24.33</ele>
  <time>2026-09-02T22:12:55Z</time>
  <course>359.37</course>
  <speed>0.5</speed>
  <fix>3d</fix>
</trkpt>
<trkpt lat="33.8103081" lon="-118.3938674">
  <ele>-24.922</ele>
  <time>2026-09-02T22:12:55Z</time>
  <course>186.66</course>
  <speed>0.5203844732503076</speed>
  <fix>3d</fix>
</trkpt>
<trkpt lat="33.810307" lon="-118.3938672">
  <ele>-24.33</ele>
  <time>2026-09-02T22:12:55Z</time>
  <course>359.37</course>
  <speed>0.5</speed>
  <fix>3d</fix>
</trkpt>
<trkpt lat="33.8103086" lon="-118.3938674">
  <ele>-24.929</ele>
  <time>2026-09-02T22:12:55Z</time>
  <course>186.66</course>
  <speed>0.5200961449578337</speed>
  <fix>3d</fix>
</trkpt>
<trkpt lat="33.8103079" lon="-118.3938672">
  <ele>-24.33</ele>
  <time>2026-09-02T22:12:55Z</time>
  <course>359.33</course>
  <speed>0.5</speed>
  <fix>3d</fix>
</trkpt>
<trkpt lat="33.810309" lon="-118.3938674">
  <ele>-24.939</ele>
  <time>2026-09-02T22:12:55Z</time>
  <course>186.66</course>
  <speed>0.5200961449578337</speed>
  <fix>3d</fix>
</trkpt>
<trkpt lat="33.8103079" lon="-118.3938672">
  <ele>-24.33</ele>
  <time>2026-09-02T22:12:55Z</time>
  <course>359.33</course>
  <speed>0.5</speed>
  <fix>3d</fix>
</trkpt>
<trkpt lat="33.8103095" lon="-118.3938674">
  <ele>-24.95</ele>
  <time>2026-09-02T22:12:55Z</time>
  <course>186.66</course>
  <speed>0.5200961449578337</speed>
  <fix>3d</fix>
</trkpt>
<trkpt lat="33.8103088" lon="-118.3938672">
  <ele>-24.34</ele>
  <time>2026-09-02T22:12:55Z</time>
  <course>359.3</course>
  <speed>0.5</speed>
  <fix>3d</fix>
</trkpt>
<trkpt lat="33.8103099" lon="-118.3938674">
  <ele>-24.963</ele>
  <time>2026-09-02T22:12:55Z</time>
  <course>186.66</course>
  <speed>0.510098029794274</speed>
  <fix>3d</fix>
</trkpt>
<trkpt lat="33.8103088" lon="-118.3938672">
  <ele>-24.34</ele>
  <time>2026-09-02T22:12:55Z</time>
  <course>359.3</course>
  <speed>0.5</speed>
  <fix>3d</fix>
</trkpt>
<trkpt lat="33.8103103" lon="-118.3938674">
  <ele>-24.974</ele>
  <time>2026-09-02T22:12:55Z</time>
  <course>186.66</course>
  <speed>0.4801041553663121</speed>
  <fix>3d</fix>
</trkpt>
<trkpt lat="33.8103097" lon="-118.3938672">
  <ele>-24.36</ele>
  <time>2026-09-02T22:12:55Z</time>
  <course>359.24</course>
  <speed>0.48</speed>
  <fix>3d</fix>
</trkpt>
<trkpt lat="33.8103108" lon="-118.3938674">
  <ele>-24.984</ele>
  <time>2026-09-02T22:12:55Z</time>
  <course>186.66</course>
  <speed>0.4901020301937138</speed>
  <fix>3d</fix>
</trkpt>
<trkpt lat="33.8103097" lon="-118.3938672">
  <ele>-24.36</ele>
  <time>2026-09-02T22:12:55Z</time>
  <course>359.24</course>
  <speed>0.48</speed>
  <fix>3d</fix>
</trkpt>
<trkpt lat="33.8103112" lon="-118.3938674">
  <ele>-24.989</ele>
  <time>2026-09-02T22:12:55Z</time>
  <course>186.66</course>
  <speed>0.4901020301937138</speed>
  <fix>3d</fix>
</trkpt>
<trkpt lat="33.8103105" lon="-118.3938672">
  <ele>-24.38</ele>
  <time>2026-09-02T22:12:55Z</time>
  <course>359.24</course>
  <speed>0.47</speed>
  <fix>3d</fix>
</trkpt>
<trkpt lat="33.8103116" lon="-118.3938674">
  <ele>-24.989</ele>
  <time>2026-09-02T22:12:55Z</time>
  <course>186.65</course>
  <speed>0.4901020301937138</speed>
  <fix>3d</fix>
</trkpt>
<trkpt lat="33.8103105" lon="-118.3938672">
  <ele>-24.38</ele>
  <time>2026-09-02T22:12:55Z</time>
  <course>359.24</course>
  <speed>0.47</speed>
  <fix>3d</fix>
</trkpt>
<trkpt lat="33.810312" lon="-118.3938674">
  <ele>-24.99</ele>
  <time>2026-09-02T22:12:55Z</time>
  <course>186.66</course>
  <speed>0.5000999900019995</speed>
  <fix>3d</fix>
</trkpt>
<trkpt lat="33.8103114" lon="-118.3938673">
  <ele>-24.39</ele>
  <time>2026-09-02T22:12:55Z</time>
  <course>359.28</course>
  <speed>0.47</speed>
  <fix>3d</fix>
</trkpt>
<trkpt lat="33.8103125" lon="-118.3938674">
  <ele>-24.989</ele>
  <time>2026-09-02T22:12:55Z</time>
  <course>186.66</course>
  <speed>0.5000999900019995</speed>
  <fix>3d</fix>
</trkpt>
<trkpt lat="33.8103114" lon="-118.3938673">
  <ele>-24.39</ele>
  <time>2026-09-02T22:12:55Z</time>
  <course>359.28</course>
  <speed>0.47</speed>
  <fix>3d</fix>
</trkpt>
<trkpt lat="33.8103129" lon="-118.3938674">
  <ele>-24.986</ele>
  <time>2026-09-02T22:12:55Z</time>
  <course>186.66</course>
  <speed>0.5000999900019995</speed>
  <fix>3d</fix>
</trkpt>
<trkpt lat="33.8103122" lon="-118.3938673">
  <ele>-24.39</ele>
  <time>2026-09-02T22:12:55Z</time>
  <course>359.31</course>
  <speed>0.48</speed>
  <fix>3d</fix>
</trkpt>
<trkpt lat="33.8103133" lon="-118.3938674">
  <ele>-24.981</ele>
  <time>2026-09-02T22:12:55Z</time>
  <course>186.66</course>
  <speed>0.4204759208325728</speed>
  <fix>3d</fix>
</trkpt>
<trkpt lat="33.8103122" lon="-118.3938673">
  <ele>-24.39</ele>
  <time>2026-09-02T22:12:55Z</time>
  <course>359.31</course>
  <speed>0.48</speed>
  <fix>3d</fix>
</trkpt>
<trkpt lat="33.8103136" lon="-118.3938674">
  <ele>-24.976</ele>
  <time>2026-09-02T22:12:55Z</time>
  <course>186.65</course>
  <speed>0.36124783736376886</speed>
  <fix>3d</fix>
</trkpt>
<trkpt lat="33.8103131" lon="-118.3938673">
  <ele>-24.38</ele>
  <time>2026-09-02T22:12:55Z</time>
  <course>358.71</course>
  <speed>0.43</speed>
  <fix>3d</fix>
</trkpt>
<trkpt lat="33.8103139" lon="-118.3938674">
  <ele>-24.969</ele>
  <time>2026-09-02T22:12:55Z</time>
  <course>186.64</course>
  <speed>0.31144823004794875</speed>
  <fix>3d</fix>
</trkpt>
<trkpt lat="33.8103131" lon="-118.3938673">
  <ele>-24.38</ele>
  <time>2026-09-02T22:12:55Z</time>
  <course>358.71</course>
  <speed>0.43</speed>
  <fix>3d</fix>
</trkpt>
<trkpt lat="33.8103142" lon="-118.3938674">
  <ele>-24.963</ele>
  <time>2026-09-02T22:12:55Z</time>
  <course>186.63</course>
  <speed>0.2816025568065745</speed>
  <fix>3d</fix>
</trkpt>
<trkpt lat="33.8103138" lon="-118.3938673">
  <ele>-24.37</ele>
  <time>2026-09-02T22:12:55Z</time>
  <course>356.96</course>
  <speed>0.33</speed>
  <fix>3d</fix>
</trkpt>
<trkpt lat="33.8103144" lon="-118.3938675">
  <ele>-24.956</ele>
  <time>2026-09-02T22:12:55Z</time>
  <course>186.63</course>
  <speed>0.25179356624028343</speed>
  <fix>3d</fix>
</trkpt>
<trkpt lat="33.8103138" lon="-118.3938673">
  <ele>-24.37</ele>
  <time>2026-09-02T22:12:55Z</time>
  <course>356.96</course>
  <speed>0.33</speed>
  <fix>3d</fix>
</trkpt>
<trkpt lat="33.8103146" lon="-118.3938675">
  <ele>-24.949</ele>
  <time>2026-09-02T22:12:55Z</time>
  <course>186.62</course>
  <speed>0.23194827009486402</speed>
  <fix>3d</fix>
</trkpt>
<trkpt lat="33.8103143" lon="-118.3938673">
  <ele>-24.36</ele>
  <time>2026-09-02T22:12:55Z</time>
  <course>354.85</course>
  <speed>0.25</speed>
  <fix>3d</fix>
</trkpt>
<trkpt lat="33.8103148" lon="-118.3938675">
  <ele>-24.941</ele>
  <time>2026-09-02T22:12:55Z</time>
  <course>186.61</course>
  <speed>0.21213203435596426</speed>
  <fix>3d</fix>
</trkpt>
<trkpt lat="33.8103143" lon="-118.3938673">
  <ele>-24.36</ele>
  <time>2026-09-02T22:12:55Z</time>
  <course>354.85</course>
  <speed>0.25</speed>
  <fix>3d</fix>
</trkpt>
<trkpt lat="33.810315" lon="-118.3938675">
  <ele>-24.932</ele>
  <time>2026-09-02T22:12:55Z</time>
  <course>186.6</course>
  <speed>0.20223748416156684</speed>
  <fix>3d</fix>
</trkpt>
<trkpt lat="33.8103147" lon="-118.3938674">
  <ele>-24.35</ele>
  <time>2026-09-02T22:12:55Z</time>
  <course>353.03</course>
  <speed>0.2</speed>
  <fix>3d</fix>
</trkpt>
<trkpt lat="33.8103152" lon="-118.3938676">
  <ele>-24.924</ele>
  <time>2026-09-02T22:12:55Z</time>
  <course>186.59</course>
  <speed>0.194164878389476</speed>
  <fix>3d</fix>
</trkpt>
<trkpt lat="33.8103147" lon="-118.3938674">
  <ele>-24.35</ele>
  <time>2026-09-02T22:12:55Z</time>
  <course>353.03</course>
  <speed>0.2</speed>
  <fix>3d</fix>
</trkpt>
<trkpt lat="33.8103153" lon="-118.3938676">
  <ele>-24.916</ele>
  <time>2026-09-02T22:12:55Z</time>
  <course>186.59</course>
  <speed>0.18439088914585774</speed>
  <fix>3d</fix>
</trkpt>
<trkpt lat="33.810315" lon="-118.3938674">
  <ele>-24.33</ele>
  <time>2026-09-02T22:12:55Z</time>
  <course>351.44</course>
  <speed>0.17</speed>
  <fix>3d</fix>
</trkpt>
<trkpt lat="33.8103155" lon="-118.3938676">
  <ele>-24.907</ele>
  <time>2026-09-02T22:12:55Z</time>
  <course>186.58</course>
  <speed>0.17464249196572978</speed>
  <fix>3d</fix>
</trkpt>
<trkpt lat="33.810315" lon="-118.3938674">
  <ele>-24.33</ele>
  <time>2026-09-02T22:12:55Z</time>
  <course>351.44</course>
  <speed>0.17</speed>
  <fix>3d</fix>
</trkpt>
<trkpt lat="33.8103156" lon="-118.3938676">
  <ele>-24.899</ele>
  <time>2026-09-02T22:12:55Z</time>
  <course>186.57</course>
  <speed>0.16278820596099705</speed>
  <fix>3d</fix>
</trkpt>
<trkpt lat="33.8103153" lon="-118.3938675">
  <ele>-24.32</ele>
  <time>2026-09-02T22:12:55Z</time>
  <course>350.03</course>
  <speed>0.15</speed>
  <fix>3d</fix>
</trkpt>
<trkpt lat="33.8103157" lon="-118.3938677">
  <ele>-24.89</ele>
  <time>2026-09-02T22:12:55Z</time>
  <course>186.57</course>
  <speed>0.15297058540778355</speed>
  <fix>3d</fix>
</trkpt>
<trkpt lat="33.8103153" lon="-118.3938675">
  <ele>-24.32</ele>
  <time>2026-09-02T22:12:55Z</time>
  <course>350.03</course>
  <speed>0.15</speed>
  <fix>3d</fix>
</trkpt>
<trkpt lat="33.8103158" lon="-118.3938677">
  <ele>-24.881</ele>
  <time>2026-09-02T22:12:55Z</time>
  <course>186.56</course>
  <speed>0.14317821063276354</speed>
  <fix>3d</fix>
</trkpt>
<trkpt lat="33.8103156" lon="-118.3938676">
  <ele>-24.3</ele>
  <time>2026-09-02T22:12:55Z</time>
  <course>348.79</course>
  <speed>0.13</speed>
  <fix>3d</fix>
</trkpt>
<trkpt lat="33.810316" lon="-118.3938677">
  <ele>-24.872</ele>
  <time>2026-09-02T22:12:55Z</time>
  <course>186.56</course>
  <speed>0.14317821063276354</speed>
  <fix>3d</fix>
</trkpt>
<trkpt lat="33.8103156" lon="-118.3938676">
  <ele>-24.3</ele>
  <time>2026-09-02T22:12:55Z</time>
  <course>348.79</course>
  <speed>0.13</speed>
  <fix>3d</fix>
</trkpt>
<trkpt lat="33.8103161" lon="-118.3938677">
  <ele>-24.863</ele>
  <time>2026-09-02T22:12:55Z</time>
  <course>186.55</course>
  <speed>0.13341664064126335</speed>
  <fix>3d</fix>
</trkpt>
<trkpt lat="33.8103159" lon="-118.3938676">
  <ele>-24.29</ele>
  <time>2026-09-02T22:12:55Z</time>
  <course>347.68</course>
  <speed>0.12</speed>
  <fix>3d</fix>
</trkpt>
<trkpt lat="33.8103162" lon="-118.3938678">
  <ele>-24.853</ele>
  <time>2026-09-02T22:12:55Z</time>
  <course>186.55</course>
  <speed>0.13341664064126335</speed>
  <fix>3d</fix>
</trkpt>
<trkpt lat="33.8103159" lon="-118.3938676">
  <ele>-24.29</ele>
  <time>2026-09-02T22:12:55Z</time>
  <course>347.68</course>
  <speed>0.12</speed>
  <fix>3d</fix>
</trkpt>
<trkpt lat="33.8103163" lon="-118.3938678">
  <ele>-24.842</ele>
  <time>2026-09-02T22:12:55Z</time>
  <course>186.55</course>
  <speed>0.12369316876852982</speed>
  <fix>3d</fix>
</trkpt>
<trkpt lat="33.810316" lon="-118.3938677">
  <ele>-24.27</ele>
  <time>2026-09-02T22:12:55Z</time>
  <course>346.67</course>
  <speed>0.11</speed>
  <fix>3d</fix>
</trkpt>
<trkpt lat="33.8103164" lon="-118.3938678">
  <ele>-24.831</ele>
  <time>2026-09-02T22:12:55Z</time>
  <course>186.54</course>
  <speed>0.12369316876852982</speed>
  <fix>3d</fix>
</trkpt>
<trkpt lat="33.810316" lon="-118.3938677">
  <ele>-24.27</ele>
  <time>2026-09-02T22:12:55Z</time>
  <course>346.67</course>
  <speed>0.11</speed>
  <fix>3d</fix>
</trkpt>
<trkpt lat="33.8103165" lon="-118.3938679">
  <ele>-24.82</ele>
  <time>2026-09-02T22:12:55Z</time>
  <course>186.54</course>
  <speed>0.12369316876852982</speed>
  <fix>3d</fix>
</trkpt>
<trkpt lat="33.8103162" lon="-118.3938677">
  <ele>-24.25</ele>
  <time>2026-09-02T22:12:55Z</time>
  <course>345.76</course>
  <speed>0.1</speed>
  <fix>3d</fix>
</trkpt>
<trkpt lat="33.8103166" lon="-118.3938679">
  <ele>-24.809</ele>
  <time>2026-09-02T22:12:55Z</time>
  <course>186.54</course>
  <speed>0.11401754250991379</speed>
  <fix>3d</fix>
</trkpt>
<trkpt lat="33.8103162" lon="-118.3938677">
  <ele>-24.25</ele>
  <time>2026-09-02T22:12:55Z</time>
  <course>345.76</course>
  <speed>0.1</speed>
  <fix>3d</fix>
</trkpt>
<trkpt lat="33.8103166" lon="-118.3938679">
  <ele>-24.798</ele>
  <time>2026-09-02T22:12:55Z</time>
  <course>186.54</course>
  <speed>0.11401754250991379</speed>
  <fix>3d</fix>
</trkpt>
<trkpt lat="33.8103164" lon="-118.3938678">
  <ele>-24.23</ele>
  <time>2026-09-02T22:12:55Z</time>
  <course>344.94</course>
  <speed>0.09</speed>
  <fix>3d</fix>
</trkpt>
<trkpt lat="33.8103167" lon="-118.3938679">
  <ele>-24.789</ele>
  <time>2026-09-02T22:12:55Z</time>
  <course>186.54</course>
  <speed>0.1044030650891055</speed>
  <fix>3d</fix>
</trkpt>
<trkpt lat="33.8103164" lon="-118.3938678">
  <ele>-24.23</ele>
  <time>2026-09-02T22:12:55Z</time>
  <course>344.94</course>
  <speed>0.09</speed>
  <fix>3d</fix>
</trkpt>
<trkpt lat="33.8103166" lon="-118.3938678">
  <ele>-24.22</ele>
  <time>2026-09-02T22:12:55Z</time>
  <course>344.2</course>
  <speed>0.08</speed>
  <fix>3d</fix>
</trkpt>
<trkpt lat="33.8103168" lon="-118.393868">
  <ele>-24.776</ele>
  <time>2026-09-02T22:12:55Z</time>
  <course>186.54</course>
  <speed>0.1044030650891055</speed>
  <fix>3d</fix>
</trkpt>
<trkpt lat="33.8103166" lon="-118.3938678">
  <ele>-24.22</ele>
  <time>2026-09-02T22:12:55Z</time>
  <course>344.2</course>
  <speed>0.08</speed>
  <fix>3d</fix>
</trkpt>
<trkpt lat="33.8103169" lon="-118.393868">
  <ele>-24.767</ele>
  <time>2026-09-02T22:12:55Z</time>
  <course>186.54</course>
  <speed>0.1044030650891055</speed>
  <fix>3d</fix>
</trkpt>
<trkpt lat="33.8103167" lon="-118.3938679">
  <ele>-24.2</ele>
  <time>2026-09-02T22:12:55Z</time>
  <course>343.53</course>
  <speed>0.08</speed>
  <fix>3d</fix>
</trkpt>
<trkpt lat="33.810317" lon="-118.393868">
  <ele>-24.758</ele>
  <time>2026-09-02T22:12:55Z</time>
  <course>186.54</course>
  <speed>0.1044030650891055</speed>
  <fix>3d</fix>
</trkpt>
<trkpt lat="33.8103167" lon="-118.3938679">
  <ele>-24.2</ele>
  <time>2026-09-02T22:12:55Z</time>
  <course>343.53</course>
  <speed>0.08</speed>
  <fix>3d</fix>
</trkpt>
<trkpt lat="33.810317" lon="-118.393868">
  <ele>-24.75</ele>
  <time>2026-09-02T22:12:55Z</time>
  <course>186.54</course>
  <speed>0.09486832980505139</speed>
  <fix>3d</fix>
</trkpt>
<trkpt lat="33.8103168" lon="-118.3938679">
  <ele>-24.18</ele>
  <time>2026-09-02T22:12:55Z</time>
  <course>342.9</course>
  <speed>0.07</speed>
  <fix>3d</fix>
</trkpt>
<trkpt lat="33.8103171" lon="-118.393868">
  <ele>-24.74</ele>
  <time>2026-09-02T22:12:55Z</time>
  <course>186.54</course>
  <speed>0.09486832980505139</speed>
  <fix>3d</fix>
</trkpt>
<trkpt lat="33.8103168" lon="-118.3938679">
  <ele>-24.18</ele>
  <time>2026-09-02T22:12:55Z</time>
  <course>342.9</course>
  <speed>0.07</speed>
  <fix>3d</fix>
</trkpt>
<trkpt lat="33.8103171" lon="-118.3938681">
  <ele>-24.731</ele>
  <time>2026-09-02T22:12:55Z</time>
  <course>186.54</course>
  <speed>0.09486832980505139</speed>
  <fix>3d</fix>
</trkpt>
<trkpt lat="33.810317" lon="-118.393868">
  <ele>-24.16</ele>
  <time>2026-09-02T22:12:55Z</time>
  <course>342.32</course>
  <speed>0.07</speed>
  <fix>3d</fix>
</trkpt>
<trkpt lat="33.8103172" lon="-118.3938681">
  <ele>-24.723</ele>
  <time>2026-09-02T22:12:55Z</time>
  <course>186.54</course>
  <speed>0.09486832980505139</speed>
  <fix>3d</fix>
</trkpt>
<trkpt lat="33.810317" lon="-118.393868">
  <ele>-24.16</ele>
  <time>2026-09-02T22:12:55Z</time>
  <course>342.32</course>
  <speed>0.07</speed>
  <fix>3d</fix>
</trkpt>
<trkpt lat="33.8103173" lon="-118.3938681">
  <ele>-24.715</ele>
  <time>2026-09-02T22:12:55Z</time>
  <course>186.54</course>
  <speed>0.0854400374531753</speed>
  <fix>3d</fix>
</trkpt>
<trkpt lat="33.8103171" lon="-118.393868">
  <ele>-24.14</ele>
  <time>2026-09-02T22:12:55Z</time>
  <course>341.78</course>
  <speed>0.06</speed>
  <fix>3d</fix>
</trkpt>
<trkpt lat="33.8103173" lon="-118.3938681">
  <ele>-24.706</ele>
  <time>2026-09-02T22:12:55Z</time>
  <course>186.54</course>
  <speed>0.0854400374531753</speed>
  <fix>3d</fix>
</trkpt>
<trkpt lat="33.8103171" lon="-118.393868">
  <ele>-24.14</ele>
  <time>2026-09-02T22:12:55Z</time>
  <course>341.78</course>
  <speed>0.06</speed>
  <fix>3d</fix>
</trkpt>
<trkpt lat="33.8103174" lon="-118.3938681">
  <ele>-24.697</ele>
  <time>2026-09-02T22:12:55Z</time>
  <course>186.55</course>
  <speed>0.0854400374531753</speed>
  <fix>3d</fix>
</trkpt>
<trkpt lat="33.4368002" lon="-117.0859339">
  <ele>-0.11</ele>
  <time>2026-09-02T22:12:55Z</time>
  <course>0.0</course>
  <speed>0.0</speed>
  <fix>3d</fix>
</trkpt>
<trkpt lat="33.4368002" lon="-117.0859339">
  <ele>-0.11</ele>
  <time>2026-09-02T22:12:55Z</time>
  <course>0.0</course>
  <speed>0.0</speed>
  <fix>3d</fix>
</trkpt>
<trkpt lat="33.810313" lon="-118.393867">
  <ele>0.0</ele>
  <time>2026-09-02T22:12:55Z</time>
  <course>173.5</course>
  <speed>0.0</speed>
  <fix>3d</fix>
</trkpt>
<trkpt lat="33.810313" lon="-118.393867">
  <ele>-0.11</ele>
  <time>2026-09-02T22:12:55Z</time>
  <course>0.0</course>
  <speed>0.0</speed>
  <fix>3d</fix>
</trkpt>
<trkpt lat="33.810313" lon="-118.393867">
  <ele>0.0</ele>
  <time>2026-09-02T22:12:55Z</time>
  <course>173.64</course>
  <speed>0.0</speed>
  <fix>3d</fix>
</trkpt>
<trkpt lat="33.810313" lon="-118.393867">
  <ele>-0.11</ele>
  <time>2026-09-02T22:12:55Z</time>
  <course>0.0</course>
  <speed>0.0</speed>
  <fix>3d</fix>
</trkpt>
<trkpt lat="33.810313" lon="-118.393867">
  <ele>0.0</ele>
  <time>2026-09-02T22:12:55Z</time>
  <course>174.03</course>
  <speed>0.0</speed>
  <fix>3d</fix>
</trkpt>
<trkpt lat="33.810313" lon="-118.393867">
  <ele>-0.11</ele>
  <time>2026-09-02T22:12:55Z</time>
  <course>0.0</course>
  <speed>0.0</speed>
  <fix>3d</fix>
</trkpt>
<trkpt lat="33.810313" lon="-118.393867">
  <ele>0.0</ele>
  <time>2026-09-02T22:12:55Z</time>
  <course>174.57</course>
  <speed>0.0</speed>
  <fix>3d</fix>
</trkpt>
<trkpt lat="33.810313" lon="-118.393867">
  <ele>-0.11</ele>
  <time>2026-09-02T22:12:55Z</time>
  <course>0.0</course>
  <speed>0.0</speed>
  <fix>3d</fix>
</trkpt>
<trkpt lat="33.810313" lon="-118.393867">
  <ele>0.0</ele>
  <time>2026-09-02T22:12:55Z</time>
  <course>175.13</course>
  <speed>0.0</speed>
  <fix>3d</fix>
</trkpt>
<trkpt lat="33.810313" lon="-118.393867">
  <ele>-0.12</ele>
  <time>2026-09-02T22:12:55Z</time>
  <course>0.0</course>
  <speed>0.0</speed>
  <fix>3d</fix>
</trkpt>
<trkpt lat="33.810313" lon="-118.393867">
  <ele>0.0</ele>
  <time>2026-09-02T22:12:55Z</time>
  <course>175.67</course>
  <speed>0.0</speed>
  <fix>3d</fix>
</trkpt>
<trkpt lat="33.810313" lon="-118.393867">
  <ele>-0.12</ele>
  <time>2026-09-02T22:12:55Z</time>
  <course>0.0</course>
  <speed>0.0</speed>
  <fix>3d</fix>
</trkpt>
<trkpt lat="33.810313" lon="-118.393867">
  <ele>0.0</ele>
  <time>2026-09-02T22:12:55Z</time>
  <course>176.17</course>
  <speed>0.0</speed>
  <fix>3d</fix>
</trkpt>
<trkpt lat="33.810313" lon="-118.393867">
  <ele>-0.13</ele>
  <time>2026-09-02T22:12:55Z</time>
  <course>0.0</course>
  <speed>0.0</speed>
  <fix>3d</fix>
</trkpt>
<trkpt lat="33.810313" lon="-118.393867">
  <ele>0.0</ele>
  <time>2026-09-02T22:12:55Z</time>
  <course>176.65</course>
  <speed>0.0</speed>
  <fix>3d</fix>
</trkpt>
<trkpt lat="33.810313" lon="-118.393867">
  <ele>-0.13</ele>
  <time>2026-09-02T22:12:55Z</time>
  <course>0.0</course>
  <speed>0.0</speed>
  <fix>3d</fix>
</trkpt>
<trkpt lat="33.810313" lon="-118.393867">
  <ele>0.0</ele>
  <time>2026-09-02T22:12:55Z</time>
  <course>177.12</course>
  <speed>0.0</speed>
  <fix>3d</fix>
</trkpt>
<trkpt lat="33.810313" lon="-118.393867">
  <ele>-0.13</ele>
  <time>2026-09-02T22:12:55Z</time>
  <course>0.0</course>
  <speed>0.0</speed>
  <fix>3d</fix>
</trkpt>
<trkpt lat="33.810313" lon="-118.393867">
  <ele>0.0</ele>
  <time>2026-09-02T22:12:55Z</time>
  <course>177.57</course>
  <speed>0.0</speed>
  <fix>3d</fix>
</trkpt>
<trkpt lat="33.810313" lon="-118.393867">
  <ele>-0.13</ele>
  <time>2026-09-02T22:12:55Z</time>
  <course>0.0</course>
  <speed>0.0</speed>
  <fix>3d</fix>
</trkpt>
<trkpt lat="33.810313" lon="-118.393867">
  <ele>0.0</ele>
  <time>2026-09-02T22:12:55Z</time>
  <course>178.02</course>
  <speed>0.0</speed>
  <fix>3d</fix>
</trkpt>
<trkpt lat="33.810313" lon="-118.393867">
  <ele>-0.14</ele>
  <time>2026-09-02T22:12:55Z</time>
  <course>0.0</course>
  <speed>0.0</speed>
  <fix>3d</fix>
</trkpt>
<trkpt lat="33.810313" lon="-118.393867">
  <ele>0.0</ele>
  <time>2026-09-02T22:12:55Z</time>
  <course>178.45</course>
  <speed>0.0</speed>
  <fix>3d</fix>
</trkpt>
<trkpt lat="33.810313" lon="-118.393867">
  <ele>-0.14</ele>
  <time>2026-09-02T22:12:55Z</time>
  <course>0.0</course>
  <speed>0.0</speed>
  <fix>3d</fix>
</trkpt>
<trkpt lat="33.810313" lon="-118.393867">
  <ele>0.0</ele>
  <time>2026-09-02T22:12:55Z</time>
  <course>178.87</course>
  <speed>0.0</speed>
  <fix>3d</fix>
</trkpt>
<trkpt lat="33.810313" lon="-118.393867">
  <ele>-0.14</ele>
  <time>2026-09-02T22:12:55Z</time>
  <course>0.0</course>
  <speed>0.0</speed>
  <fix>3d</fix>
</trkpt>
<trkpt lat="33.810313" lon="-118.393867">
  <ele>0.0</ele>
  <time>2026-09-02T22:12:55Z</time>
  <course>179.27</course>
  <speed>0.0</speed>
  <fix>3d</fix>
</trkpt>
<trkpt lat="33.810313" lon="-118.393867">
  <ele>-0.14</ele>
  <time>2026-09-02T22:12:55Z</time>
  <course>0.0</course>
  <speed>0.0</speed>
  <fix>3d</fix>
</trkpt>
<trkpt lat="33.810313" lon="-118.393867">
  <ele>0.0</ele>
  <time>2026-09-02T22:12:55Z</time>
  <course>179.66</course>
  <speed>0.0</speed>
  <fix>3d</fix>
</trkpt>
<trkpt lat="33.810313" lon="-118.393867">
  <ele>-0.14</ele>
  <time>2026-09-02T22:12:55Z</time>
  <course>0.0</course>
  <speed>0.0</speed>
  <fix>3d</fix>
</trkpt>
<trkpt lat="33.810313" lon="-118.393867">
  <ele>0.0</ele>
  <time>2026-09-02T22:12:55Z</time>
  <course>180.05</course>
  <speed>0.0</speed>
  <fix>3d</fix>
</trkpt>
<trkpt lat="33.810313" lon="-118.393867">
  <ele>-0.14</ele>
  <time>2026-09-02T22:12:55Z</time>
  <course>0.0</course>
  <speed>0.0</speed>
  <fix>3d</fix>
</trkpt>
<trkpt lat="33.810313" lon="-118.393867">
  <ele>0.0</ele>
  <time>2026-09-02T22:12:55Z</time>
  <course>180.41</course>
  <speed>0.0</speed>
  <fix>3d</fix>
</trkpt>
<trkpt lat="33.810313" lon="-118.393867">
  <ele>-0.14</ele>
  <time>2026-09-02T22:12:55Z</time>
  <course>0.0</course>
  <speed>0.0</speed>
  <fix>3d</fix>
</trkpt>
<trkpt lat="33.810313" lon="-118.393867">
  <ele>0.0</ele>
  <time>2026-09-02T22:12:55Z</time>
  <course>180.76</course>
  <speed>0.0</speed>
  <fix>3d</fix>
</trkpt>
<trkpt lat="33.810313" lon="-118.393867">
  <ele>-0.14</ele>
  <time>2026-09-02T22:12:55Z</time>
  <course>0.0</course>
  <speed>0.0</speed>
  <fix>3d</fix>
</trkpt>
<trkpt lat="33.810313" lon="-118.393867">
  <ele>0.0</ele>
  <time>2026-09-02T22:12:55Z</time>
  <course>181.1</course>
  <speed>0.0</speed>
  <fix>3d</fix>
</trkpt>
<trkpt lat="33.810313" lon="-118.393867">
  <ele>-0.13</ele>
  <time>2026-09-02T22:12:55Z</time>
  <course>0.0</course>
  <speed>0.0</speed>
  <fix>3d</fix>
</trkpt>
<trkpt lat="33.810313" lon="-118.393867">
  <ele>0.0</ele>
  <time>2026-09-02T22:12:55Z</time>
  <course>181.43</course>
  <speed>0.0</speed>
  <fix>3d</fix>
</trkpt>
<trkpt lat="33.810313" lon="-118.393867">
  <ele>-0.13</ele>
  <time>2026-09-02T22:12:55Z</time>
  <course>0.0</course>
  <speed>0.0</speed>
  <fix>3d</fix>
</trkpt>
<trkpt lat="33.810313" lon="-118.393867">
  <ele>0.0</ele>
  <time>2026-09-02T22:12:55Z</time>
  <course>181.75</course>
  <speed>0.0</speed>
  <fix>3d</fix>
</trkpt>
<trkpt lat="33.810313" lon="-118.393867">
  <ele>-0.12</ele>
  <time>2026-09-02T22:12:55Z</time>
  <course>0.0</course>
  <speed>0.0</speed>
  <fix>3d</fix>
</trkpt>
<trkpt lat="33.810313" lon="-118.393867">
  <ele>0.0</ele>
  <time>2026-09-02T22:12:55Z</time>
  <course>182.05</course>
  <speed>0.0</speed>
  <fix>3d</fix>
</trkpt>
<trkpt lat="33.810313" lon="-118.393867">
  <ele>-0.12</ele>
  <time>2026-09-02T22:12:55Z</time>
  <course>0.0</course>
  <speed>0.0</speed>
  <fix>3d</fix>
</trkpt>
<trkpt lat="33.810313" lon="-118.393867">
  <ele>0.0</ele>
  <time>2026-09-02T22:12:55Z</time>
  <course>182.35</course>
  <speed>0.0</speed>
  <fix>3d</fix>
</trkpt>
<trkpt lat="33.810313" lon="-118.393867">
  <ele>-0.12</ele>
  <time>2026-09-02T22:12:55Z</time>
  <course>0.0</course>
  <speed>0.0</speed>
  <fix>3d</fix>
</trkpt>
<trkpt lat="33.810313" lon="-118.393867">
  <ele>0.0</ele>
  <time>2026-09-02T22:12:55Z</time>
  <course>182.63</course>
  <speed>0.0</speed>
  <fix>3d</fix>
</trkpt>
<trkpt lat="33.810313" lon="-118.393867">
  <ele>-0.12</ele>
  <time>2026-09-02T22:12:55Z</time>
  <course>0.0</course>
  <speed>0.0</speed>
  <fix>3d</fix>
</trkpt>
<trkpt lat="33.810313" lon="-118.393867">
  <ele>0.0</ele>
  <time>2026-09-02T22:12:55Z</time>
  <course>182.9</course>
  <speed>0.0</speed>
  <fix>3d</fix>
</trkpt>
<trkpt lat="33.810313" lon="-118.393867">
  <ele>-0.11</ele>
  <time>2026-09-02T22:12:55Z</time>
  <course>0.0</course>
  <speed>0.0</speed>
  <fix>3d</fix>
</trkpt>
<trkpt lat="33.810313" lon="-118.393867">
  <ele>0.0</ele>
  <time>2026-09-02T22:12:55Z</time>
  <course>183.16</course>
  <speed>0.0</speed>
  <fix>3d</fix>
</trkpt>
<trkpt lat="33.810313" lon="-118.393867">
  <ele>-0.11</ele>
  <time>2026-09-02T22:12:55Z</time>
  <course>0.0</course>
  <speed>0.0</speed>
  <fix>3d</fix>
</trkpt>
<trkpt lat="33.810313" lon="-118.393867">
  <ele>0.0</ele>
  <time>2026-09-02T22:12:55Z</time>
  <course>183.41</course>
  <speed>0.0</speed>
  <fix>3d</fix>
</trkpt>
<trkpt lat="33.810313" lon="-118.393867">
  <ele>-0.11</ele>
  <time>2026-09-02T22:12:55Z</time>
  <course>0.0</course>
  <speed>0.0</speed>
  <fix>3d</fix>
</trkpt>
<trkpt lat="33.810313" lon="-118.393867">
  <ele>0.0</ele>
  <time>2026-09-02T22:12:55Z</time>
  <course>183.65</course>
  <speed>0.0</speed>
  <fix>3d</fix>
</trkpt>
<trkpt lat="33.810313" lon="-118.393867">
  <ele>-0.11</ele>
  <time>2026-09-02T22:12:55Z</time>
  <course>0.0</course>
  <speed>0.0</speed>
  <fix>3d</fix>
</trkpt>
<trkpt lat="33.810313" lon="-118.393867">
  <ele>0.0</ele>
  <time>2026-09-02T22:12:55Z</time>
  <course>183.88</course>
  <speed>0.0</speed>
  <fix>3d</fix>
</trkpt>
<trkpt lat="33.810313" lon="-118.393867">
  <ele>-0.12</ele>
  <time>2026-09-02T22:12:55Z</time>
  <course>0.0</course>
  <speed>0.0</speed>
  <fix>3d</fix>
</trkpt>
<trkpt lat="33.810313" lon="-118.393867">
  <ele>0.0</ele>
  <time>2026-09-02T22:12:55Z</time>
  <course>184.11</course>
  <speed>0.0</speed>
  <fix>3d</fix>
</trkpt>
<trkpt lat="33.810313" lon="-118.393867">
  <ele>-0.12</ele>
  <time>2026-09-02T22:12:55Z</time>
  <course>0.0</course>
  <speed>0.0</speed>
  <fix>3d</fix>
</trkpt>
<trkpt lat="33.810313" lon="-118.393867">
  <ele>0.0</ele>
  <time>2026-09-02T22:12:56Z</time>
  <course>184.32</course>
  <speed>0.0</speed>
  <fix>3d</fix>
</trkpt>
<trkpt lat="33.810313" lon="-118.393867">
  <ele>-0.13</ele>
  <time>2026-09-02T22:12:56Z</time>
  <course>0.0</course>
  <speed>0.0</speed>
  <fix>3d</fix>
</trkpt>
<trkpt lat="33.810313" lon="-118.393867">
  <ele>0.0</ele>
  <time>2026-09-02T22:12:56Z</time>
  <course>184.52</course>
  <speed>0.0</speed>
  <fix>3d</fix>
</trkpt>
<trkpt lat="33.810313" lon="-118.393867">
  <ele>-0.13</ele>
  <time>2026-09-02T22:12:56Z</time>
  <course>0.0</course>
  <speed>0.0</speed>
  <fix>3d</fix>
</trkpt>
<trkpt lat="33.810313" lon="-118.393867">
  <ele>0.0</ele>
  <time>2026-09-02T22:12:56Z</time>
  <course>184.72</course>
  <speed>0.0</speed>
  <fix>3d</fix>
</trkpt>
<trkpt lat="33.810313" lon="-118.393867">
  <ele>-0.13</ele>
  <time>2026-09-02T22:12:56Z</time>
  <course>0.0</course>
  <speed>0.0</speed>
  <fix>3d</fix>
</trkpt>
<trkpt lat="33.810313" lon="-118.393867">
  <ele>0.0</ele>
  <time>2026-09-02T22:12:56Z</time>
  <course>184.91</course>
  <speed>0.0</speed>
  <fix>3d</fix>
</trkpt>
<trkpt lat="33.810313" lon="-118.393867">
  <ele>-0.13</ele>
  <time>2026-09-02T22:12:56Z</time>
  <course>0.0</course>
  <speed>0.0</speed>
  <fix>3d</fix>
</trkpt>
<trkpt lat="33.810313" lon="-118.393867">
  <ele>0.0</ele>
  <time>2026-09-02T22:12:56Z</time>
  <course>185.09</course>
  <speed>0.0</speed>
  <fix>3d</fix>
</trkpt>
<trkpt lat="33.810313" lon="-118.393867">
  <ele>-0.14</ele>
  <time>2026-09-02T22:12:56Z</time>
  <course>0.0</course>
  <speed>0.0</speed>
  <fix>3d</fix>
</trkpt>
<trkpt lat="33.810313" lon="-118.393867">
  <ele>0.0</ele>
  <time>2026-09-02T22:12:56Z</time>
  <course>185.26</course>
  <speed>0.0</speed>
  <fix>3d</fix>
</trkpt>
<trkpt lat="33.810313" lon="-118.393867">
  <ele>-0.14</ele>
  <time>2026-09-02T22:12:56Z</time>
  <course>0.0</course>
  <speed>0.0</speed>
  <fix>3d</fix>
</trkpt>
<trkpt lat="33.810313" lon="-118.393867">
  <ele>0.0</ele>
  <time>2026-09-02T22:12:56Z</time>
  <course>185.42</course>
  <speed>0.0</speed>
  <fix>3d</fix>
</trkpt>
<trkpt lat="33.810313" lon="-118.393867">
  <ele>-0.13</ele>
  <time>2026-09-02T22:12:56Z</time>
  <course>0.0</course>
  <speed>0.0</speed>
  <fix>3d</fix>
</trkpt>
<trkpt lat="33.810313" lon="-118.393867">
  <ele>0.0</ele>
  <time>2026-09-02T22:12:56Z</time>
  <course>185.58</course>
  <speed>0.0</speed>
  <fix>3d</fix>
</trkpt>
<trkpt lat="33.810313" lon="-118.393867">
  <ele>-0.13</ele>
  <time>2026-09-02T22:12:56Z</time>
  <course>0.0</course>
  <speed>0.0</speed>
  <fix>3d</fix>
</trkpt>
<trkpt lat="33.810313" lon="-118.393867">
  <ele>0.0</ele>
  <time>2026-09-02T22:12:56Z</time>
  <course>185.73</course>
  <speed>0.0</speed>
  <fix>3d</fix>
</trkpt>
<trkpt lat="33.810313" lon="-118.393867">
  <ele>-0.13</ele>
  <time>2026-09-02T22:12:56Z</time>
  <course>0.0</course>
  <speed>0.0</speed>
  <fix>3d</fix>
</trkpt>
<trkpt lat="33.810313" lon="-118.393867">
  <ele>0.0</ele>
  <time>2026-09-02T22:12:56Z</time>
  <course>185.87</course>
  <speed>0.0</speed>
  <fix>3d</fix>
</trkpt>
<trkpt lat="33.810313" lon="-118.393867">
  <ele>-0.13</ele>
  <time>2026-09-02T22:12:56Z</time>
  <course>0.0</course>
  <speed>0.0</speed>
  <fix>3d</fix>
</trkpt>
<trkpt lat="33.810313" lon="-118.393867">
  <ele>0.0</ele>
  <time>2026-09-02T22:12:56Z</time>
  <course>186.01</course>
  <speed>0.0</speed>
  <fix>3d</fix>
</trkpt>
<trkpt lat="33.810313" lon="-118.393867">
  <ele>-0.12</ele>
  <time>2026-09-02T22:12:56Z</time>
  <course>0.0</course>
  <speed>0.0</speed>
  <fix>3d</fix>
</trkpt>
<trkpt lat="33.810313" lon="-118.393867">
  <ele>0.0</ele>
  <time>2026-09-02T22:12:56Z</time>
  <course>186.14</course>
  <speed>0.0</speed>
  <fix>3d</fix>
</trkpt>
<trkpt lat="33.810313" lon="-118.393867">
  <ele>-0.12</ele>
  <time>2026-09-02T22:12:56Z</time>
  <course>0.0</course>
  <speed>0.0</speed>
  <fix>3d</fix>
</trkpt>
<trkpt lat="33.810313" lon="-118.393867">
  <ele>0.0</ele>
  <time>2026-09-02T22:12:56Z</time>
  <course>186.27</course>
  <speed>0.0</speed>
  <fix>3d</fix>
</trkpt>
<trkpt lat="33.810313" lon="-118.393867">
  <ele>-0.12</ele>
  <time>2026-09-02T22:12:56Z</time>
  <course>0.0</course>
  <speed>0.0</speed>
  <fix>3d</fix>
</trkpt>
<trkpt lat="33.810313" lon="-118.393867">
  <ele>0.0</ele>
  <time>2026-09-02T22:12:56Z</time>
  <course>186.39</course>
  <speed>0.0</speed>
  <fix>3d</fix>
</trkpt>
<trkpt lat="33.810313" lon="-118.393867">
  <ele>-0.12</ele>
  <time>2026-09-02T22:12:56Z</time>
  <course>0.0</course>
  <speed>0.0</speed>
  <fix>3d</fix>
</trkpt>
<trkpt lat="33.810313" lon="-118.393867">
  <ele>0.0</ele>
  <time>2026-09-02T22:12:56Z</time>
  <course>186.5</course>
  <speed>0.0</speed>
  <fix>3d</fix>
</trkpt>
<trkpt lat="33.810313" lon="-118.393867">
  <ele>-0.12</ele>
  <time>2026-09-02T22:12:56Z</time>
  <course>0.0</course>
  <speed>0.0</speed>
  <fix>3d</fix>
</trkpt>
<trkpt lat="33.810313" lon="-118.393867">
  <ele>0.0</ele>
  <time>2026-09-02T22:12:56Z</time>
  <course>186.61</course>
  <speed>0.0</speed>
  <fix>3d</fix>
</trkpt>
<trkpt lat="33.810313" lon="-118.393867">
  <ele>-0.12</ele>
  <time>2026-09-02T22:12:56Z</time>
  <course>0.0</course>
  <speed>0.0</speed>
  <fix>3d</fix>
</trkpt>
<trkpt lat="33.810313" lon="-118.393867">
  <ele>0.0</ele>
  <time>2026-09-02T22:12:56Z</time>
  <course>186.72</course>
  <speed>0.0</speed>
  <fix>3d</fix>
</trkpt>
<trkpt lat="33.810313" lon="-118.393867">
  <ele>-0.12</ele>
  <time>2026-09-02T22:12:56Z</time>
  <course>0.0</course>
  <speed>0.0</speed>
  <fix>3d</fix>
</trkpt>
<trkpt lat="33.810313" lon="-118.393867">
  <ele>0.0</ele>
  <time>2026-09-02T22:12:56Z</time>
  <course>186.82</course>
  <speed>0.0</speed>
  <fix>3d</fix>
</trkpt>
<trkpt lat="33.810313" lon="-118.393867">
  <ele>-0.12</ele>
  <time>2026-09-02T22:12:56Z</time>
  <course>0.0</course>
  <speed>0.0</speed>
  <fix>3d</fix>
</trkpt>
<trkpt lat="33.810313" lon="-118.393867">
  <ele>0.0</ele>
  <time>2026-09-02T22:12:56Z</time>
  <course>186.91</course>
  <speed>0.0</speed>
  <fix>3d</fix>
</trkpt>
<trkpt lat="33.810313" lon="-118.393867">
  <ele>-0.12</ele>
  <time>2026-09-02T22:12:56Z</time>
  <course>0.0</course>
  <speed>0.0</speed>
  <fix>3d</fix>
</trkpt>
<trkpt lat="33.810313" lon="-118.393867">
  <ele>0.0</ele>
  <time>2026-09-02T22:12:56Z</time>
  <course>187.0</course>
  <speed>0.0</speed>
  <fix>3d</fix>
</trkpt>
<trkpt lat="33.810313" lon="-118.393867">
  <ele>-0.12</ele>
  <time>2026-09-02T22:12:56Z</time>
  <course>0.0</course>
  <speed>0.0</speed>
  <fix>3d</fix>
</trkpt>
<trkpt lat="33.810313" lon="-118.393867">
  <ele>0.0</ele>
  <time>2026-09-02T22:12:56Z</time>
  <course>187.09</course>
  <speed>0.0</speed>
  <fix>3d</fix>
</trkpt>
<trkpt lat="33.810313" lon="-118.393867">
  <ele>-0.13</ele>
  <time>2026-09-02T22:12:56Z</time>
  <course>0.0</course>
  <speed>0.0</speed>
  <fix>3d</fix>
</trkpt>
<trkpt lat="33.810313" lon="-118.393867">
  <ele>0.0</ele>
  <time>2026-09-02T22:12:56Z</time>
  <course>187.17</course>
  <speed>0.0</speed>
  <fix>3d</fix>
</trkpt>
<trkpt lat="33.810313" lon="-118.393867">
  <ele>-0.13</ele>
  <time>2026-09-02T22:12:56Z</time>
  <course>0.0</course>
  <speed>0.0</speed>
  <fix>3d</fix>
</trkpt>
<trkpt lat="33.810313" lon="-118.393867">
  <ele>0.0</ele>
  <time>2026-09-02T22:12:56Z</time>
  <course>187.25</course>
  <speed>0.0</speed>
  <fix>3d</fix>
</trkpt>
<trkpt lat="33.810313" lon="-118.393867">
  <ele>-0.13</ele>
  <time>2026-09-02T22:12:56Z</time>
  <course>0.0</course>
  <speed>0.0</speed>
  <fix>3d</fix>
</trkpt>
<trkpt lat="33.810313" lon="-118.393867">
  <ele>0.0</ele>
  <time>2026-09-02T22:12:56Z</time>
  <course>187.33</course>
  <speed>0.0</speed>
  <fix>3d</fix>
</trkpt>
<trkpt lat="33.810313" lon="-118.393867">
  <ele>-0.13</ele>
  <time>2026-09-02T22:12:56Z</time>
  <course>0.0</course>
  <speed>0.0</speed>
  <fix>3d</fix>
</trkpt>
<trkpt lat="33.810313" lon="-118.393867">
  <ele>0.0</ele>
  <time>2026-09-02T22:12:56Z</time>
  <course>187.4</course>
  <speed>0.0</speed>
  <fix>3d</fix>
</trkpt>
<trkpt lat="33.810313" lon="-118.393867">
  <ele>-0.13</ele>
  <time>2026-09-02T22:12:56Z</time>
  <course>0.0</course>
  <speed>0.0</speed>
  <fix>3d</fix>
</trkpt>
<trkpt lat="33.810313" lon="-118.393867">
  <ele>0.0</ele>
  <time>2026-09-02T22:12:56Z</time>
  <course>187.47</course>
  <speed>0.0</speed>
  <fix>3d</fix>
</trkpt>
<trkpt lat="33.810313" lon="-118.393867">
  <ele>-0.13</ele>
  <time>2026-09-02T22:12:56Z</time>
  <course>0.0</course>
  <speed>0.0</speed>
  <fix>3d</fix>
</trkpt>
<trkpt lat="33.810313" lon="-118.393867">
  <ele>0.0</ele>
  <time>2026-09-02T22:12:56Z</time>
  <course>187.53</course>
  <speed>0.0</speed>
  <fix>3d</fix>
</trkpt>
<trkpt lat="33.810313" lon="-118.393867">
  <ele>-0.13</ele>
  <time>2026-09-02T22:12:56Z</time>
  <course>0.0</course>
  <speed>0.0</speed>
  <fix>3d</fix>
</trkpt>
<trkpt lat="33.810313" lon="-118.393867">
  <ele>0.0</ele>
  <time>2026-09-02T22:12:56Z</time>
  <course>187.59</course>
  <speed>0.0</speed>
  <fix>3d</fix>
</trkpt>
<trkpt lat="33.810313" lon="-118.393867">
  <ele>-0.13</ele>
  <time>2026-09-02T22:12:56Z</time>
  <course>0.0</course>
  <speed>0.0</speed>
  <fix>3d</fix>
</trkpt>
<trkpt lat="33.810313" lon="-118.393867">
  <ele>0.0</ele>
  <time>2026-09-02T22:12:56Z</time>
  <course>187.65</course>
  <speed>0.0</speed>
  <fix>3d</fix>
</trkpt>
<trkpt lat="33.810313" lon="-118.393867">
  <ele>-0.12</ele>
  <time>2026-09-02T22:12:56Z</time>
  <course>0.0</course>
  <speed>0.0</speed>
  <fix>3d</fix>
</trkpt>
<trkpt lat="33.810313" lon="-118.393867">
  <ele>0.0</ele>
  <time>2026-09-02T22:12:56Z</time>
  <course>187.71</course>
  <speed>0.0</speed>
  <fix>3d</fix>
</trkpt>
<trkpt lat="33.810313" lon="-118.393867">
  <ele>-0.12</ele>
  <time>2026-09-02T22:12:56Z</time>
  <course>0.0</course>
  <speed>0.0</speed>
  <fix>3d</fix>
</trkpt>
<trkpt lat="33.810313" lon="-118.393867">
  <ele>0.0</ele>
  <time>2026-09-02T22:12:56Z</time>
  <course>187.76</course>
  <speed>0.0</speed>
  <fix>3d</fix>
</trkpt>
<trkpt lat="33.810313" lon="-118.393867">
  <ele>-0.12</ele>
  <time>2026-09-02T22:12:56Z</time>
  <course>0.0</course>
  <speed>0.0</speed>
  <fix>3d</fix>
</trkpt>
<trkpt lat="33.810313" lon="-118.393867">
  <ele>0.0</ele>
  <time>2026-09-02T22:12:56Z</time>
  <course>187.81</course>
  <speed>0.0</speed>
  <fix>3d</fix>
</trkpt>
<trkpt lat="33.810313" lon="-118.393867">
  <ele>-0.12</ele>
  <time>2026-09-02T22:12:56Z</time>
  <course>0.0</course>
  <speed>0.0</speed>
  <fix>3d</fix>
</trkpt>
<trkpt lat="33.810313" lon="-118.393867">
  <ele>0.0</ele>
  <time>2026-09-02T22:12:56Z</time>
  <course>187.86</course>
  <speed>0.0</speed>
  <fix>3d</fix>
</trkpt>
<trkpt lat="33.810313" lon="-118.393867">
  <ele>-0.12</ele>
  <time>2026-09-02T22:12:56Z</time>
  <course>0.0</course>
  <speed>0.0</speed>
  <fix>3d</fix>
</trkpt>
<trkpt lat="33.810313" lon="-118.393867">
  <ele>0.0</ele>
  <time>2026-09-02T22:12:56Z</time>
  <course>187.91</course>
  <speed>0.0</speed>
  <fix>3d</fix>
</trkpt>
<trkpt lat="33.810313" lon="-118.393867">
  <ele>-0.12</ele>
  <time>2026-09-02T22:12:56Z</time>
  <course>0.0</course>
  <speed>0.0</speed>
  <fix>3d</fix>
</trkpt>
<trkpt lat="33.810313" lon="-118.393867">
  <ele>0.0</ele>
  <time>2026-09-02T22:12:56Z</time>
  <course>187.95</course>
  <speed>0.0</speed>
  <fix>3d</fix>
</trkpt>
<trkpt lat="33.810313" lon="-118.393867">
  <ele>-0.12</ele>
  <time>2026-09-02T22:12:56Z</time>
  <course>0.0</course>
  <speed>0.0</speed>
  <fix>3d</fix>
</trkpt>
<trkpt lat="33.810313" lon="-118.393867">
  <ele>0.0</ele>
  <time>2026-09-02T22:12:56Z</time>
  <course>187.99</course>
  <speed>0.0</speed>
  <fix>3d</fix>
</trkpt>
<trkpt lat="33.810313" lon="-118.393867">
  <ele>-0.12</ele>
  <time>2026-09-02T22:12:56Z</time>
  <course>0.0</course>
  <speed>0.0</speed>
  <fix>3d</fix>
</trkpt>
<trkpt lat="33.810313" lon="-118.393867">
  <ele>0.0</ele>
  <time>2026-09-02T22:12:56Z</time>
  <course>188.03</course>
  <speed>0.0</speed>
  <fix>3d</fix>
</trkpt>
<trkpt lat="33.810313" lon="-118.393867">
  <ele>-0.12</ele>
  <time>2026-09-02T22:12:56Z</time>
  <course>0.0</course>
  <speed>0.0</speed>
  <fix>3d</fix>
</trkpt>
<trkpt lat="33.810313" lon="-118.393867">
  <ele>0.0</ele>
  <time>2026-09-02T22:12:56Z</time>
  <course>188.07</course>
  <speed>0.0</speed>
  <fix>3d</fix>
</trkpt>
<trkpt lat="33.810313" lon="-118.393867">
  <ele>-0.12</ele>
  <time>2026-09-02T22:12:56Z</time>
  <course>0.0</course>
  <speed>0.0</speed>
  <fix>3d</fix>
</trkpt>
<trkpt lat="33.810313" lon="-118.393867">
  <ele>0.0</ele>
  <time>2026-09-02T22:12:56Z</time>
  <course>188.1</course>
  <speed>0.0</speed>
  <fix>3d</fix>
</trkpt>
<trkpt lat="33.810313" lon="-118.393867">
  <ele>-0.13</ele>
  <time>2026-09-02T22:12:56Z</time>
  <course>0.0</course>
  <speed>0.0</speed>
  <fix>3d</fix>
</trkpt>
<trkpt lat="33.810313" lon="-118.393867">
  <ele>0.0</ele>
  <time>2026-09-02T22:12:56Z</time>
  <course>188.13</course>
  <speed>0.0</speed>
  <fix>3d</fix>
</trkpt>
<trkpt lat="33.810313" lon="-118.393867">
  <ele>-0.13</ele>
  <time>2026-09-02T22:12:56Z</time>
  <course>0.0</course>
  <speed>0.0</speed>
  <fix>3d</fix>
</trkpt>
<trkpt lat="33.810313" lon="-118.393867">
  <ele>0.0</ele>
  <time>2026-09-02T22:12:56Z</time>
  <course>188.17</course>
  <speed>0.0</speed>
  <fix>3d</fix>
</trkpt>
<trkpt lat="33.810313" lon="-118.393867">
  <ele>-0.13</ele>
  <time>2026-09-02T22:12:56Z</time>
  <course>0.0</course>
  <speed>0.0</speed>
  <fix>3d</fix>
</trkpt>
<trkpt lat="33.810313" lon="-118.393867">
  <ele>0.0</ele>
  <time>2026-09-02T22:12:56Z</time>
  <course>188.19</course>
  <speed>0.0</speed>
  <fix>3d</fix>
</trkpt>
<trkpt lat="33.810313" lon="-118.393867">
  <ele>-0.13</ele>
  <time>2026-09-02T22:12:56Z</time>
  <course>0.0</course>
  <speed>0.0</speed>
  <fix>3d</fix>
</trkpt>
<trkpt lat="33.810313" lon="-118.393867">
  <ele>0.0</ele>
  <time>2026-09-02T22:12:56Z</time>
  <course>188.22</course>
  <speed>0.0</speed>
  <fix>3d</fix>
</trkpt>
<trkpt lat="33.810313" lon="-118.393867">
  <ele>-0.13</ele>
  <time>2026-09-02T22:12:56Z</time>
  <course>0.0</course>
  <speed>0.0</speed>
  <fix>3d</fix>
</trkpt>
<trkpt lat="33.810313" lon="-118.393867">
  <ele>0.0</ele>
  <time>2026-09-02T22:12:56Z</time>
  <course>188.25</course>
  <speed>0.0</speed>
  <fix>3d</fix>
</trkpt>
<trkpt lat="33.810313" lon="-118.393867">
  <ele>-0.13</ele>
  <time>2026-09-02T22:12:56Z</time>
  <course>0.0</course>
  <speed>0.0</speed>
  <fix>3d</fix>
</trkpt>
<trkpt lat="33.810313" lon="-118.393867">
  <ele>0.0</ele>
  <time>2026-09-02T22:12:56Z</time>
  <course>188.27</course>
  <speed>0.0</speed>
  <fix>3d</fix>
</trkpt>
<trkpt lat="33.810313" lon="-118.393867">
  <ele>-0.12</ele>
  <time>2026-09-02T22:12:56Z</time>
  <course>0.0</course>
  <speed>0.0</speed>
  <fix>3d</fix>
</trkpt>
<trkpt lat="33.810313" lon="-118.393867">
  <ele>0.0</ele>
  <time>2026-09-02T22:12:56Z</time>
  <course>188.3</course>
  <speed>0.0</speed>
  <fix>3d</fix>
</trkpt>
<trkpt lat="33.810313" lon="-118.393867">
  <ele>-0.12</ele>
  <time>2026-09-02T22:12:56Z</time>
  <course>0.0</course>
  <speed>0.0</speed>
  <fix>3d</fix>
</trkpt>
<trkpt lat="33.810313" lon="-118.393867">
  <ele>0.0</ele>
  <time>2026-09-02T22:12:56Z</time>
  <course>188.32</course>
  <speed>0.0</speed>
  <fix>3d</fix>
</trkpt>
<trkpt lat="33.810313" lon="-118.393867">
  <ele>-0.12</ele>
  <time>2026-09-02T22:12:56Z</time>
  <course>0.0</course>
  <speed>0.0</speed>
  <fix>3d</fix>
</trkpt>
<trkpt lat="33.810313" lon="-118.393867">
  <ele>0.0</ele>
  <time>2026-09-02T22:12:56Z</time>
  <course>188.34</course>
  <speed>0.0</speed>
  <fix>3d</fix>
</trkpt>
<trkpt lat="33.810313" lon="-118.393867">
  <ele>-0.12</ele>
  <time>2026-09-02T22:12:56Z</time>
  <course>0.0</course>
  <speed>0.0</speed>
  <fix>3d</fix>
</trkpt>
<trkpt lat="33.810313" lon="-118.393867">
  <ele>0.0</ele>
  <time>2026-09-02T22:12:56Z</time>
  <course>188.36</course>
  <speed>0.0</speed>
  <fix>3d</fix>
</trkpt>
<trkpt lat="33.810313" lon="-118.393867">
  <ele>-0.12</ele>
  <time>2026-09-02T22:12:56Z</time>
  <course>0.0</course>
  <speed>0.0</speed>
  <fix>3d</fix>
</trkpt>
<trkpt lat="33.810313" lon="-118.393867">
  <ele>0.0</ele>
  <time>2026-09-02T22:12:56Z</time>
  <course>188.38</course>
  <speed>0.0</speed>
  <fix>3d</fix>
</trkpt>
<trkpt lat="33.810313" lon="-118.393867">
  <ele>-0.12</ele>
  <time>2026-09-02T22:12:56Z</time>
  <course>0.0</course>
  <speed>0.0</speed>
  <fix>3d</fix>
</trkpt>
<trkpt lat="33.810313" lon="-118.393867">
  <ele>0.0</ele>
  <time>2026-09-02T22:12:56Z</time>
  <course>188.39</course>
  <speed>0.0</speed>
  <fix>3d</fix>
</trkpt>
<trkpt lat="33.810313" lon="-118.393867">
  <ele>-0.12</ele>
  <time>2026-09-02T22:12:56Z</time>
  <course>0.0</course>
  <speed>0.0</speed>
  <fix>3d</fix>
</trkpt>
<trkpt lat="33.810313" lon="-118.393867">
  <ele>0.0</ele>
  <time>2026-09-02T22:12:56Z</time>
  <course>188.41</course>
  <speed>0.0</speed>
  <fix>3d</fix>
</trkpt>
<trkpt lat="33.810313" lon="-118.393867">
  <ele>-0.12</ele>
  <time>2026-09-02T22:12:56Z</time>
  <course>0.0</course>
  <speed>0.0</speed>
  <fix>3d</fix>
</trkpt>
<trkpt lat="33.810313" lon="-118.393867">
  <ele>0.0</ele>
  <time>2026-09-02T22:12:56Z</time>
  <course>188.43</course>
  <speed>0.0</speed>
  <fix>3d</fix>
</trkpt>
<trkpt lat="33.810313" lon="-118.393867">
  <ele>-0.12</ele>
  <time>2026-09-02T22:12:56Z</time>
  <course>0.0</course>
  <speed>0.0</speed>
  <fix>3d</fix>
</trkpt>
<trkpt lat="33.810313" lon="-118.393867">
  <ele>0.0</ele>
  <time>2026-09-02T22:12:56Z</time>
  <course>188.44</course>
  <speed>0.0</speed>
  <fix>3d</fix>
</trkpt>
<trkpt lat="33.810313" lon="-118.393867">
  <ele>-0.12</ele>
  <time>2026-09-02T22:12:56Z</time>
  <course>0.0</course>
  <speed>0.0</speed>
  <fix>3d</fix>
</trkpt>
<trkpt lat="33.810313" lon="-118.393867">
  <ele>0.0</ele>
  <time>2026-09-02T22:12:56Z</time>
  <course>188.45</course>
  <speed>0.0</speed>
  <fix>3d</fix>
</trkpt>
<trkpt lat="33.810313" lon="-118.393867">
  <ele>-0.13</ele>
  <time>2026-09-02T22:12:56Z</time>
  <course>0.0</course>
  <speed>0.0</speed>
  <fix>3d</fix>
</trkpt>
<trkpt lat="33.810313" lon="-118.393867">
  <ele>0.0</ele>
  <time>2026-09-02T22:12:56Z</time>
  <course>188.46</course>
  <speed>0.0</speed>
  <fix>3d</fix>
</trkpt>
<trkpt lat="33.810313" lon="-118.393867">
  <ele>-0.13</ele>
  <time>2026-09-02T22:12:56Z</time>
  <course>0.0</course>
  <speed>0.0</speed>
  <fix>3d</fix>
</trkpt>
<trkpt lat="33.810313" lon="-118.393867">
  <ele>0.0</ele>
  <time>2026-09-02T22:12:56Z</time>
  <course>188.48</course>
  <speed>0.0</speed>
  <fix>3d</fix>
</trkpt>
<trkpt lat="33.810313" lon="-118.393867">
  <ele>-0.13</ele>
  <time>2026-09-02T22:12:56Z</time>
  <course>0.0</course>
  <speed>0.0</speed>
  <fix>3d</fix>
</trkpt>
<trkpt lat="33.810313" lon="-118.393867">
  <ele>0.0</ele>
  <time>2026-09-02T22:12:56Z</time>
  <course>188.49</course>
  <speed>0.0</speed>
  <fix>3d</fix>
</trkpt>
<trkpt lat="33.810313" lon="-118.393867">
  <ele>-0.13</ele>
  <time>2026-09-02T22:12:56Z</time>
  <course>0.0</course>
  <speed>0.0</speed>
  <fix>3d</fix>
</trkpt>
<trkpt lat="33.810313" lon="-118.393867">
  <ele>0.0</ele>
  <time>2026-09-02T22:12:56Z</time>
  <course>188.49</course>
  <speed>0.0</speed>
  <fix>3d</fix>
</trkpt>
<trkpt lat="33.810313" lon="-118.393867">
  <ele>-0.13</ele>
  <time>2026-09-02T22:12:56Z</time>
  <course>0.0</course>
  <speed>0.0</speed>
  <fix>3d</fix>
</trkpt>
<trkpt lat="33.810313" lon="-118.393867">
  <ele>0.0</ele>
  <time>2026-09-02T22:12:56Z</time>
  <course>188.5</course>
  <speed>0.0</speed>
  <fix>3d</fix>
</trkpt>
<trkpt lat="33.810313" lon="-118.393867">
  <ele>-0.13</ele>
  <time>2026-09-02T22:12:56Z</time>
  <course>0.0</course>
  <speed>0.0</speed>
  <fix>3d</fix>
</trkpt>
<trkpt lat="33.810313" lon="-118.393867">
  <ele>0.0</ele>
  <time>2026-09-02T22:12:56Z</time>
  <course>188.51</course>
  <speed>0.0</speed>
  <fix>3d</fix>
</trkpt>
<trkpt lat="33.810313" lon="-118.393867">
  <ele>-0.12</ele>
  <time>2026-09-02T22:12:56Z</time>
  <course>0.0</course>
  <speed>0.0</speed>
  <fix>3d</fix>
</trkpt>
<trkpt lat="33.810313" lon="-118.393867">
  <ele>0.0</ele>
  <time>2026-09-02T22:12:56Z</time>
  <course>188.52</course>
  <speed>0.0</speed>
  <fix>3d</fix>
</trkpt>
<trkpt lat="33.810313" lon="-118.393867">
  <ele>-0.12</ele>
  <time>2026-09-02T22:12:56Z</time>
  <course>0.0</course>
  <speed>0.0</speed>
  <fix>3d</fix>
</trkpt>
<trkpt lat="33.810313" lon="-118.393867">
  <ele>0.0</ele>
  <time>2026-09-02T22:12:56Z</time>
  <course>188.53</course>
  <speed>0.0</speed>
  <fix>3d</fix>
</trkpt>
<trkpt lat="33.810313" lon="-118.393867">
  <ele>-0.12</ele>
  <time>2026-09-02T22:12:56Z</time>
  <course>0.0</course>
  <speed>0.0</speed>
  <fix>3d</fix>
</trkpt>
<trkpt lat="33.810313" lon="-118.393867">
  <ele>0.0</ele>
  <time>2026-09-02T22:12:56Z</time>
  <course>188.53</course>
  <speed>0.0</speed>
  <fix>3d</fix>
</trkpt>
<trkpt lat="33.810313" lon="-118.393867">
  <ele>-0.12</ele>
  <time>2026-09-02T22:12:56Z</time>
  <course>0.0</course>
  <speed>0.0</speed>
  <fix>3d</fix>
</trkpt>
<trkpt lat="33.810313" lon="-118.393867">
  <ele>0.0</ele>
  <time>2026-09-02T22:12:56Z</time>
  <course>188.54</course>
  <speed>0.0</speed>
  <fix>3d</fix>
</trkpt>
<trkpt lat="33.810313" lon="-118.393867">
  <ele>-0.12</ele>
  <time>2026-09-02T22:12:56Z</time>
  <course>0.0</course>
  <speed>0.0</speed>
  <fix>3d</fix>
</trkpt>
<trkpt lat="33.810313" lon="-118.393867">
  <ele>0.0</ele>
  <time>2026-09-02T22:12:56Z</time>
  <course>188.54</course>
  <speed>0.0</speed>
  <fix>3d</fix>
</trkpt>
<trkpt lat="33.810313" lon="-118.393867">
  <ele>-0.12</ele>
  <time>2026-09-02T22:12:56Z</time>
  <course>0.0</course>
  <speed>0.0</speed>
  <fix>3d</fix>
</trkpt>
<trkpt lat="33.810313" lon="-118.393867">
  <ele>0.0</ele>
  <time>2026-09-02T22:12:56Z</time>
  <course>188.54</course>
  <speed>0.0</speed>
  <fix>3d</fix>
</trkpt>
<trkpt lat="33.810313" lon="-118.393867">
  <ele>-0.12</ele>
  <time>2026-09-02T22:12:56Z</time>
  <course>0.0</course>
  <speed>0.0</speed>
  <fix>3d</fix>
</trkpt>
<trkpt lat="33.810313" lon="-118.393867">
  <ele>0.0</ele>
  <time>2026-09-02T22:12:56Z</time>
  <course>188.55</course>
  <speed>0.0</speed>
  <fix>3d</fix>
</trkpt>
<trkpt lat="33.810313" lon="-118.393867">
  <ele>-0.12</ele>
  <time>2026-09-02T22:12:56Z</time>
  <course>0.0</course>
  <speed>0.0</speed>
  <fix>3d</fix>
</trkpt>
<trkpt lat="33.810313" lon="-118.393867">
  <ele>0.0</ele>
  <time>2026-09-02T22:12:56Z</time>
  <course>188.55</course>
  <speed>0.0</speed>
  <fix>3d</fix>
</trkpt>
<trkpt lat="33.810313" lon="-118.393867">
  <ele>-0.12</ele>
  <time>2026-09-02T22:12:56Z</time>
  <course>0.0</course>
  <speed>0.0</speed>
  <fix>3d</fix>
</trkpt>
<trkpt lat="33.810313" lon="-118.393867">
  <ele>0.0</ele>
  <time>2026-09-02T22:12:56Z</time>
  <course>188.55</course>
  <speed>0.0</speed>
  <fix>3d</fix>
</trkpt>
<trkpt lat="33.810313" lon="-118.393867">
  <ele>-0.12</ele>
  <time>2026-09-02T22:12:56Z</time>
  <course>0.0</course>
  <speed>0.0</speed>
  <fix>3d</fix>
</trkpt>
<trkpt lat="33.810313" lon="-118.393867">
  <ele>-0.126</ele>
  <time>2026-09-02T22:12:56Z</time>
  <course>188.55</course>
  <speed>0.0</speed>
  <fix>3d</fix>
</trkpt>
<trkpt lat="33.810313" lon="-118.393867">
  <ele>-0.13</ele>
  <time>2026-09-02T22:12:56Z</time>
  <course>0.0</course>
  <speed>0.0</speed>
  <fix>3d</fix>
</trkpt>
<trkpt lat="33.810313" lon="-118.393867">
  <ele>-0.126</ele>
  <time>2026-09-02T22:12:56Z</time>
  <course>188.56</course>
  <speed>0.0</speed>
  <fix>3d</fix>
</trkpt>
<trkpt lat="33.810313" lon="-118.393867">
  <ele>-0.13</ele>
  <time>2026-09-02T22:12:56Z</time>
  <course>0.0</course>
  <speed>0.0</speed>
  <fix>3d</fix>
</trkpt>
<trkpt lat="33.810313" lon="-118.393867">
  <ele>-0.124</ele>
  <time>2026-09-02T22:12:56Z</time>
  <course>188.56</course>
  <speed>0.0</speed>
  <fix>3d</fix>
</trkpt>
<trkpt lat="33.810313" lon="-118.393867">
  <ele>-0.13</ele>
  <time>2026-09-02T22:12:56Z</time>
  <course>0.0</course>
  <speed>0.0</speed>
  <fix>3d</fix>
</trkpt>
<trkpt lat="33.810313" lon="-118.393867">
  <ele>-0.123</ele>
  <time>2026-09-02T22:12:56Z</time>
  <course>188.56</course>
  <speed>0.0</speed>
  <fix>3d</fix>
</trkpt>
<trkpt lat="33.810313" lon="-118.393867">
  <ele>-0.13</ele>
  <time>2026-09-02T22:12:56Z</time>
  <course>0.0</course>
  <speed>0.0</speed>
  <fix>3d</fix>
</trkpt>
<trkpt lat="33.810313" lon="-118.393867">
  <ele>-0.121</ele>
  <time>2026-09-02T22:12:56Z</time>
  <course>188.56</course>
  <speed>0.0</speed>
  <fix>3d</fix>
</trkpt>
<trkpt lat="33.810313" lon="-118.393867">
  <ele>-0.12</ele>
  <time>2026-09-02T22:12:56Z</time>
  <course>0.0</course>
  <speed>0.0</speed>
  <fix>3d</fix>
</trkpt>
<trkpt lat="33.810313" lon="-118.393867">
  <ele>-0.12</ele>
  <time>2026-09-02T22:12:56Z</time>
  <course>188.56</course>
  <speed>0.0</speed>
  <fix>3d</fix>
</trkpt>
<trkpt lat="33.810313" lon="-118.393867">
  <ele>-0.12</ele>
  <time>2026-09-02T22:12:56Z</time>
  <course>0.0</course>
  <speed>0.0</speed>
  <fix>3d</fix>
</trkpt>
<trkpt lat="33.810313" lon="-118.393867">
  <ele>-0.119</ele>
  <time>2026-09-02T22:12:56Z</time>
  <course>188.56</course>
  <speed>0.0</speed>
  <fix>3d</fix>
</trkpt>
<trkpt lat="33.810313" lon="-118.393867">
  <ele>-0.12</ele>
  <time>2026-09-02T22:12:56Z</time>
  <course>0.0</course>
  <speed>0.0</speed>
  <fix>3d</fix>
</trkpt>
<trkpt lat="33.810313" lon="-118.393867">
  <ele>-0.12</ele>
  <time>2026-09-02T22:12:56Z</time>
  <course>188.56</course>
  <speed>0.0</speed>
  <fix>3d</fix>
</trkpt>
<trkpt lat="33.810313" lon="-118.393867">
  <ele>-0.12</ele>
  <time>2026-09-02T22:12:56Z</time>
  <course>0.0</course>
  <speed>0.0</speed>
  <fix>3d</fix>
</trkpt>
<trkpt lat="33.810313" lon="-118.393867">
  <ele>-0.124</ele>
  <time>2026-09-02T22:12:56Z</time>
  <course>188.55</course>
  <speed>0.0</speed>
  <fix>3d</fix>
</trkpt>
<trkpt lat="33.810313" lon="-118.393867">
  <ele>-0.12</ele>
  <time>2026-09-02T22:12:56Z</time>
  <course>0.0</course>
  <speed>0.0</speed>
  <fix>3d</fix>
</trkpt>
<trkpt lat="33.810313" lon="-118.393867">
  <ele>-0.127</ele>
  <time>2026-09-02T22:12:56Z</time>
  <course>188.55</course>
  <speed>0.0</speed>
  <fix>3d</fix>
</trkpt>
<trkpt lat="33.810313" lon="-118.393867">
  <ele>-0.12</ele>
  <time>2026-09-02T22:12:56Z</time>
  <course>0.0</course>
  <speed>0.0</speed>
  <fix>3d</fix>
</trkpt>
<trkpt lat="33.810313" lon="-118.393867">
  <ele>-0.13</ele>
  <time>2026-09-02T22:12:56Z</time>
  <course>188.55</course>
  <speed>0.0</speed>
  <fix>3d</fix>
</trkpt>
<trkpt lat="33.810313" lon="-118.393867">
  <ele>-0.12</ele>
  <time>2026-09-02T22:12:56Z</time>
  <course>0.0</course>
  <speed>0.0</speed>
  <fix>3d</fix>
</trkpt>
<trkpt lat="33.810313" lon="-118.393867">
  <ele>-0.132</ele>
  <time>2026-09-02T22:12:56Z</time>
  <course>188.55</course>
  <speed>0.0</speed>
  <fix>3d</fix>
</trkpt>
<trkpt lat="33.810313" lon="-118.393867">
  <ele>-0.12</ele>
  <time>2026-09-02T22:12:56Z</time>
  <course>0.0</course>
  <speed>0.0</speed>
  <fix>3d</fix>
</trkpt>
<trkpt lat="33.810313" lon="-118.393867">
  <ele>-0.132</ele>
  <time>2026-09-02T22:12:56Z</time>
  <course>188.55</course>
  <speed>0.0</speed>
  <fix>3d</fix>
</trkpt>
<trkpt lat="33.810313" lon="-118.393867">
  <ele>-0.12</ele>
  <time>2026-09-02T22:12:56Z</time>
  <course>0.0</course>
  <speed>0.0</speed>
  <fix>3d</fix>
</trkpt>
<trkpt lat="33.810313" lon="-118.393867">
  <ele>-0.132</ele>
  <time>2026-09-02T22:12:56Z</time>
  <course>188.55</course>
  <speed>0.0</speed>
  <fix>3d</fix>
</trkpt>
<trkpt lat="33.810313" lon="-118.393867">
  <ele>-0.12</ele>
  <time>2026-09-02T22:12:56Z</time>
  <course>0.0</course>
  <speed>0.0</speed>
  <fix>3d</fix>
</trkpt>
<trkpt lat="33.810313" lon="-118.393867">
  <ele>-0.132</ele>
  <time>2026-09-02T22:12:56Z</time>
  <course>188.55</course>
  <speed>0.0</speed>
  <fix>3d</fix>
</trkpt>
<trkpt lat="33.810313" lon="-118.393867">
  <ele>-0.12</ele>
  <time>2026-09-02T22:12:56Z</time>
  <course>0.0</course>
  <speed>0.0</speed>
  <fix>3d</fix>
</trkpt>
<trkpt lat="33.810313" lon="-118.393867">
  <ele>-0.131</ele>
  <time>2026-09-02T22:12:56Z</time>
  <course>188.55</course>
  <speed>0.0</speed>
  <fix>3d</fix>
</trkpt>
<trkpt lat="33.810313" lon="-118.393867">
  <ele>-0.12</ele>
  <time>2026-09-02T22:12:56Z</time>
  <course>0.0</course>
  <speed>0.0</speed>
  <fix>3d</fix>
</trkpt>
<trkpt lat="33.810313" lon="-118.393867">
  <ele>-0.129</ele>
  <time>2026-09-02T22:12:56Z</time>
  <course>188.54</course>
  <speed>0.0</speed>
  <fix>3d</fix>
</trkpt>
<trkpt lat="33.810313" lon="-118.393867">
  <ele>-0.13</ele>
  <time>2026-09-02T22:12:56Z</time>
  <course>0.0</course>
  <speed>0.0</speed>
  <fix>3d</fix>
</trkpt>
<trkpt lat="33.810313" lon="-118.393867">
  <ele>-0.128</ele>
  <time>2026-09-02T22:12:56Z</time>
  <course>188.54</course>
  <speed>0.0</speed>
  <fix>3d</fix>
</trkpt>
<trkpt lat="33.810313" lon="-118.393867">
  <ele>-0.13</ele>
  <time>2026-09-02T22:12:56Z</time>
  <course>0.0</course>
  <speed>0.0</speed>
  <fix>3d</fix>
</trkpt>
<trkpt lat="33.810313" lon="-118.393867">
  <ele>-0.125</ele>
  <time>2026-09-02T22:12:56Z</time>
  <course>188.53</course>
  <speed>0.0</speed>
  <fix>3d</fix>
</trkpt>
<trkpt lat="33.810313" lon="-118.393867">
  <ele>-0.12</ele>
  <time>2026-09-02T22:12:56Z</time>
  <course>0.0</course>
  <speed>0.0</speed>
  <fix>3d</fix>
</trkpt>
<trkpt lat="33.810313" lon="-118.393867">
  <ele>-0.123</ele>
  <time>2026-09-02T22:12:56Z</time>
  <course>188.53</course>
  <speed>0.0</speed>
  <fix>3d</fix>
</trkpt>
<trkpt lat="33.810313" lon="-118.393867">
  <ele>-0.12</ele>
  <time>2026-09-02T22:12:56Z</time>
  <course>0.0</course>
  <speed>0.0</speed>
  <fix>3d</fix>
</trkpt>
<trkpt lat="33.810313" lon="-118.393867">
  <ele>-0.121</ele>
  <time>2026-09-02T22:12:56Z</time>
  <course>188.52</course>
  <speed>0.0</speed>
  <fix>3d</fix>
</trkpt>
<trkpt lat="33.810313" lon="-118.393867">
  <ele>-0.12</ele>
  <time>2026-09-02T22:12:56Z</time>
  <course>0.0</course>
  <speed>0.0</speed>
  <fix>3d</fix>
</trkpt>
<trkpt lat="33.810313" lon="-118.393867">
  <ele>-0.121</ele>
  <time>2026-09-02T22:12:56Z</time>
  <course>188.52</course>
  <speed>0.0</speed>
  <fix>3d</fix>
</trkpt>
<trkpt lat="33.810313" lon="-118.393867">
  <ele>-0.12</ele>
  <time>2026-09-02T22:12:56Z</time>
  <course>0.0</course>
  <speed>0.0</speed>
  <fix>3d</fix>
</trkpt>
<trkpt lat="33.810313" lon="-118.393867">
  <ele>-0.122</ele>
  <time>2026-09-02T22:12:56Z</time>
  <course>188.51</course>
  <speed>0.0</speed>
  <fix>3d</fix>
</trkpt>
<trkpt lat="33.810313" lon="-118.393867">
  <ele>-0.12</ele>
  <time>2026-09-02T22:12:56Z</time>
  <course>0.0</course>
  <speed>0.0</speed>
  <fix>3d</fix>
</trkpt>
<trkpt lat="33.810313" lon="-118.393867">
  <ele>-0.123</ele>
  <time>2026-09-02T22:12:56Z</time>
  <course>188.51</course>
  <speed>0.0</speed>
  <fix>3d</fix>
</trkpt>
<trkpt lat="33.810313" lon="-118.393867">
  <ele>-0.12</ele>
  <time>2026-09-02T22:12:56Z</time>
  <course>0.0</course>
  <speed>0.0</speed>
  <fix>3d</fix>
</trkpt>
<trkpt lat="33.810313" lon="-118.393867">
  <ele>-0.126</ele>
  <time>2026-09-02T22:12:56Z</time>
  <course>188.5</course>
  <speed>0.0</speed>
  <fix>3d</fix>
</trkpt>
<trkpt lat="33.810313" lon="-118.393867">
  <ele>-0.12</ele>
  <time>2026-09-02T22:12:56Z</time>
  <course>0.0</course>
  <speed>0.0</speed>
  <fix>3d</fix>
</trkpt>
<trkpt lat="33.810313" lon="-118.393867">
  <ele>-0.127</ele>
  <time>2026-09-02T22:12:56Z</time>
  <course>188.5</course>
  <speed>0.0</speed>
  <fix>3d</fix>
</trkpt>
<trkpt lat="33.810313" lon="-118.393867">
  <ele>-0.12</ele>
  <time>2026-09-02T22:12:56Z</time>
  <course>0.0</course>
  <speed>0.0</speed>
  <fix>3d</fix>
</trkpt>
<trkpt lat="33.810313" lon="-118.393867">
  <ele>-0.128</ele>
  <time>2026-09-02T22:12:56Z</time>
  <course>188.49</course>
  <speed>0.0</speed>
  <fix>3d</fix>
</trkpt>
<trkpt lat="33.810313" lon="-118.393867">
  <ele>-0.12</ele>
  <time>2026-09-02T22:12:56Z</time>
  <course>0.0</course>
  <speed>0.0</speed>
  <fix>3d</fix>
</trkpt>
<trkpt lat="33.810313" lon="-118.393867">
  <ele>-0.127</ele>
  <time>2026-09-02T22:12:56Z</time>
  <course>188.48</course>
  <speed>0.0</speed>
  <fix>3d</fix>
</trkpt>
<trkpt lat="33.810313" lon="-118.393867">
  <ele>-0.12</ele>
  <time>2026-09-02T22:12:56Z</time>
  <course>0.0</course>
  <speed>0.0</speed>
  <fix>3d</fix>
</trkpt>
<trkpt lat="33.810313" lon="-118.393867">
  <ele>-0.127</ele>
  <time>2026-09-02T22:12:56Z</time>
  <course>188.48</course>
  <speed>0.0</speed>
  <fix>3d</fix>
</trkpt>
<trkpt lat="33.810313" lon="-118.393867">
  <ele>-0.12</ele>
  <time>2026-09-02T22:12:56Z</time>
  <course>0.0</course>
  <speed>0.0</speed>
  <fix>3d</fix>
</trkpt>
<trkpt lat="33.810313" lon="-118.393867">
  <ele>-0.127</ele>
  <time>2026-09-02T22:12:56Z</time>
  <course>188.47</course>
  <speed>0.01</speed>
  <fix>3d</fix>
</trkpt>
<trkpt lat="33.810313" lon="-118.393867">
  <ele>-0.12</ele>
  <time>2026-09-02T22:12:56Z</time>
  <course>0.0</course>
  <speed>0.0</speed>
  <fix>3d</fix>
</trkpt>
<trkpt lat="33.810313" lon="-118.393867">
  <ele>-0.127</ele>
  <time>2026-09-02T22:12:56Z</time>
  <course>188.47</course>
  <speed>0.01</speed>
  <fix>3d</fix>
</trkpt>
<trkpt lat="33.810313" lon="-118.393867">
  <ele>-0.12</ele>
  <time>2026-09-02T22:12:56Z</time>
  <course>0.0</course>
  <speed>0.0</speed>
  <fix>3d</fix>
</trkpt>
<trkpt lat="33.810313" lon="-118.393867">
  <ele>-0.126</ele>
  <time>2026-09-02T22:12:56Z</time>
  <course>188.46</course>
  <speed>0.01</speed>
  <fix>3d</fix>
</trkpt>
<trkpt lat="33.810313" lon="-118.393867">
  <ele>-0.12</ele>
  <time>2026-09-02T22:12:56Z</time>
  <course>0.0</course>
  <speed>0.0</speed>
  <fix>3d</fix>
</trkpt>
<trkpt lat="33.810313" lon="-118.393867">
  <ele>-0.126</ele>
  <time>2026-09-02T22:12:56Z</time>
  <course>188.45</course>
  <speed>0.01</speed>
  <fix>3d</fix>
</trkpt>
<trkpt lat="33.810313" lon="-118.393867">
  <ele>-0.12</ele>
  <time>2026-09-02T22:12:56Z</time>
  <course>0.0</course>
  <speed>0.0</speed>
  <fix>3d</fix>
</trkpt>
<trkpt lat="33.810313" lon="-118.393867">
  <ele>-0.126</ele>
  <time>2026-09-02T22:12:56Z</time>
  <course>188.45</course>
  <speed>0.01</speed>
  <fix>3d</fix>
</trkpt>
<trkpt lat="33.810313" lon="-118.393867">
  <ele>-0.12</ele>
  <time>2026-09-02T22:12:56Z</time>
  <course>0.0</course>
  <speed>0.0</speed>
  <fix>3d</fix>
</trkpt>
<trkpt lat="33.810313" lon="-118.393867">
  <ele>-0.125</ele>
  <time>2026-09-02T22:12:56Z</time>
  <course>188.44</course>
  <speed>0.01</speed>
  <fix>3d</fix>
</trkpt>
<trkpt lat="33.810313" lon="-118.393867">
  <ele>-0.12</ele>
  <time>2026-09-02T22:12:56Z</time>
  <course>0.0</course>
  <speed>0.0</speed>
  <fix>3d</fix>
</trkpt>
<trkpt lat="33.810313" lon="-118.393867">
  <ele>-0.126</ele>
  <time>2026-09-02T22:12:56Z</time>
  <course>188.43</course>
  <speed>0.01</speed>
  <fix>3d</fix>
</trkpt>
<trkpt lat="33.810313" lon="-118.393867">
  <ele>-0.12</ele>
  <time>2026-09-02T22:12:56Z</time>
  <course>0.0</course>
  <speed>0.0</speed>
  <fix>3d</fix>
</trkpt>
<trkpt lat="33.810313" lon="-118.393867">
  <ele>-0.127</ele>
  <time>2026-09-02T22:12:56Z</time>
  <course>188.42</course>
  <speed>0.01</speed>
  <fix>3d</fix>
</trkpt>
<trkpt lat="33.810313" lon="-118.393867">
  <ele>-0.12</ele>
  <time>2026-09-02T22:12:56Z</time>
  <course>0.0</course>
  <speed>0.0</speed>
  <fix>3d</fix>
</trkpt>
<trkpt lat="33.810313" lon="-118.393867">
  <ele>-0.128</ele>
  <time>2026-09-02T22:12:56Z</time>
  <course>188.42</course>
  <speed>0.01</speed>
  <fix>3d</fix>
</trkpt>
<trkpt lat="33.810313" lon="-118.393867">
  <ele>-0.12</ele>
  <time>2026-09-02T22:12:56Z</time>
  <course>0.0</course>
  <speed>0.0</speed>
  <fix>3d</fix>
</trkpt>
<trkpt lat="33.810313" lon="-118.393867">
  <ele>-0.129</ele>
  <time>2026-09-02T22:12:56Z</time>
  <course>188.41</course>
  <speed>0.01</speed>
  <fix>3d</fix>
</trkpt>
<trkpt lat="33.810313" lon="-118.393867">
  <ele>-0.12</ele>
  <time>2026-09-02T22:12:56Z</time>
  <course>0.0</course>
  <speed>0.0</speed>
  <fix>3d</fix>
</trkpt>
<trkpt lat="33.810313" lon="-118.393867">
  <ele>-0.129</ele>
  <time>2026-09-02T22:12:56Z</time>
  <course>188.4</course>
  <speed>0.01</speed>
  <fix>3d</fix>
</trkpt>
<trkpt lat="33.810313" lon="-118.393867">
  <ele>-0.12</ele>
  <time>2026-09-02T22:12:56Z</time>
  <course>0.0</course>
  <speed>0.0</speed>
  <fix>3d</fix>
</trkpt>
<trkpt lat="33.810313" lon="-118.393867">
  <ele>-0.13</ele>
  <time>2026-09-02T22:12:56Z</time>
  <course>188.4</course>
  <speed>0.01414213562373095</speed>
  <fix>3d</fix>
</trkpt>
<trkpt lat="33.810313" lon="-118.393867">
  <ele>-0.12</ele>
  <time>2026-09-02T22:12:56Z</time>
  <course>0.0</course>
  <speed>0.0</speed>
  <fix>3d</fix>
</trkpt>
<trkpt lat="33.810313" lon="-118.393867">
  <ele>-0.13</ele>
  <time>2026-09-02T22:12:56Z</time>
  <course>188.39</course>
  <speed>0.01414213562373095</speed>
  <fix>3d</fix>
</trkpt>
<trkpt lat="33.810313" lon="-118.393867">
  <ele>-0.12</ele>
  <time>2026-09-02T22:12:56Z</time>
  <course>0.0</course>
  <speed>0.0</speed>
  <fix>3d</fix>
</trkpt>
<trkpt lat="33.810313" lon="-118.393867">
  <ele>-0.13</ele>
  <time>2026-09-02T22:12:56Z</time>
  <course>188.38</course>
  <speed>0.01414213562373095</speed>
  <fix>3d</fix>
</trkpt>
<trkpt lat="33.810313" lon="-118.393867">
  <ele>-0.12</ele>
  <time>2026-09-02T22:12:56Z</time>
  <course>0.0</course>
  <speed>0.0</speed>
  <fix>3d</fix>
</trkpt>
<trkpt lat="33.810313" lon="-118.393867">
  <ele>-0.129</ele>
  <time>2026-09-02T22:12:56Z</time>
  <course>188.37</course>
  <speed>0.01414213562373095</speed>
  <fix>3d</fix>
</trkpt>
<trkpt lat="33.810313" lon="-118.393867">
  <ele>-0.12</ele>
  <time>2026-09-02T22:12:56Z</time>
  <course>0.0</course>
  <speed>0.0</speed>
  <fix>3d</fix>
</trkpt>
<trkpt lat="33.810313" lon="-118.393867">
  <ele>-0.128</ele>
  <time>2026-09-02T22:12:56Z</time>
  <course>188.37</course>
  <speed>0.01414213562373095</speed>
  <fix>3d</fix>
</trkpt>
<trkpt lat="33.810313" lon="-118.393867">
  <ele>-0.12</ele>
  <time>2026-09-02T22:12:56Z</time>
  <course>0.0</course>
  <speed>0.0</speed>
  <fix>3d</fix>
</trkpt>
<trkpt lat="33.810313" lon="-118.393867">
  <ele>-0.126</ele>
  <time>2026-09-02T22:12:56Z</time>
  <course>188.36</course>
  <speed>0.01414213562373095</speed>
  <fix>3d</fix>
</trkpt>
<trkpt lat="33.810313" lon="-118.393867">
  <ele>-0.12</ele>
  <time>2026-09-02T22:12:56Z</time>
  <course>0.0</course>
  <speed>0.0</speed>
  <fix>3d</fix>
</trkpt>
<trkpt lat="33.810313" lon="-118.393867">
  <ele>-0.124</ele>
  <time>2026-09-02T22:12:56Z</time>
  <course>188.35</course>
  <speed>0.01414213562373095</speed>
  <fix>3d</fix>
</trkpt>
<trkpt lat="33.810313" lon="-118.393867">
  <ele>-0.12</ele>
  <time>2026-09-02T22:12:56Z</time>
  <course>0.0</course>
  <speed>0.0</speed>
  <fix>3d</fix>
</trkpt>
<trkpt lat="33.810313" lon="-118.393867">
  <ele>-0.122</ele>
  <time>2026-09-02T22:12:56Z</time>
  <course>188.34</course>
  <speed>0.01414213562373095</speed>
  <fix>3d</fix>
</trkpt>
<trkpt lat="33.810313" lon="-118.393867">
  <ele>-0.12</ele>
  <time>2026-09-02T22:12:56Z</time>
  <course>0.0</course>
  <speed>0.0</speed>
  <fix>3d</fix>
</trkpt>
<trkpt lat="33.810313" lon="-118.393867">
  <ele>-0.123</ele>
  <time>2026-09-02T22:12:56Z</time>
  <course>188.33</course>
  <speed>0.01414213562373095</speed>
  <fix>3d</fix>
</trkpt>
<trkpt lat="33.810313" lon="-118.393867">
  <ele>-0.12</ele>
  <time>2026-09-02T22:12:56Z</time>
  <course>0.0</course>
  <speed>0.0</speed>
  <fix>3d</fix>
</trkpt>
<trkpt lat="33.810313" lon="-118.393867">
  <ele>-0.125</ele>
  <time>2026-09-02T22:12:56Z</time>
  <course>188.33</course>
  <speed>0.01414213562373095</speed>
  <fix>3d</fix>
</trkpt>
<trkpt lat="33.810313" lon="-118.393867">
  <ele>-0.12</ele>
  <time>2026-09-02T22:12:56Z</time>
  <course>0.0</course>
  <speed>0.0</speed>
  <fix>3d</fix>
</trkpt>
<trkpt lat="33.810313" lon="-118.393867">
  <ele>-0.128</ele>
  <time>2026-09-02T22:12:56Z</time>
  <course>188.32</course>
  <speed>0.01414213562373095</speed>
  <fix>3d</fix>
</trkpt>
<trkpt lat="33.810313" lon="-118.393867">
  <ele>-0.12</ele>
  <time>2026-09-02T22:12:56Z</time>
  <course>0.0</course>
  <speed>0.0</speed>
  <fix>3d</fix>
</trkpt>
<trkpt lat="33.810313" lon="-118.393867">
  <ele>-0.132</ele>
  <time>2026-09-02T22:12:56Z</time>
  <course>188.31</course>
  <speed>0.01414213562373095</speed>
  <fix>3d</fix>
</trkpt>
<trkpt lat="33.810313" lon="-118.393867">
  <ele>-0.12</ele>
  <time>2026-09-02T22:12:56Z</time>
  <course>0.0</course>
  <speed>0.0</speed>
  <fix>3d</fix>
</trkpt>
<trkpt lat="33.810313" lon="-118.393867">
  <ele>-0.135</ele>
  <time>2026-09-02T22:12:56Z</time>
  <course>188.3</course>
  <speed>0.01414213562373095</speed>
  <fix>3d</fix>
</trkpt>
<trkpt lat="33.810313" lon="-118.393867">
  <ele>-0.12</ele>
  <time>2026-09-02T22:12:56Z</time>
  <course>0.0</course>
  <speed>0.0</speed>
  <fix>3d</fix>
</trkpt>
<trkpt lat="33.810313" lon="-118.393867">
  <ele>-0.135</ele>
  <time>2026-09-02T22:12:56Z</time>
  <course>188.3</course>
  <speed>0.01414213562373095</speed>
  <fix>3d</fix>
</trkpt>
<trkpt lat="33.810313" lon="-118.393867">
  <ele>-0.12</ele>
  <time>2026-09-02T22:12:56Z</time>
  <course>0.0</course>
  <speed>0.0</speed>
  <fix>3d</fix>
</trkpt>
<trkpt lat="33.810313" lon="-118.393867">
  <ele>-0.134</ele>
  <time>2026-09-02T22:12:56Z</time>
  <course>188.29</course>
  <speed>0.01414213562373095</speed>
  <fix>3d</fix>
</trkpt>
<trkpt lat="33.810313" lon="-118.393867">
  <ele>-0.12</ele>
  <time>2026-09-02T22:12:56Z</time>
  <course>0.0</course>
  <speed>0.0</speed>
  <fix>3d</fix>
</trkpt>
<trkpt lat="33.810313" lon="-118.393867">
  <ele>-0.132</ele>
  <time>2026-09-02T22:12:56Z</time>
  <course>188.28</course>
  <speed>0.01414213562373095</speed>
  <fix>3d</fix>
</trkpt>
<trkpt lat="33.810313" lon="-118.393867">
  <ele>-0.12</ele>
  <time>2026-09-02T22:12:56Z</time>
  <course>0.0</course>
  <speed>0.0</speed>
  <fix>3d</fix>
</trkpt>
<trkpt lat="33.810313" lon="-118.393867">
  <ele>-0.129</ele>
  <time>2026-09-02T22:12:56Z</time>
  <course>188.27</course>
  <speed>0.01414213562373095</speed>
  <fix>3d</fix>
</trkpt>
<trkpt lat="33.810313" lon="-118.393867">
  <ele>-0.12</ele>
  <time>2026-09-02T22:12:56Z</time>
  <course>0.0</course>
  <speed>0.0</speed>
  <fix>3d</fix>
</trkpt>
<trkpt lat="33.810313" lon="-118.393867">
  <ele>-0.127</ele>
  <time>2026-09-02T22:12:56Z</time>
  <course>188.26</course>
  <speed>0.01414213562373095</speed>
  <fix>3d</fix>
</trkpt>
<trkpt lat="33.810313" lon="-118.393867">
  <ele>-0.12</ele>
  <time>2026-09-02T22:12:56Z</time>
  <course>0.0</course>
  <speed>0.0</speed>
  <fix>3d</fix>
</trkpt>
<trkpt lat="33.810313" lon="-118.393867">
  <ele>-0.124</ele>
  <time>2026-09-02T22:12:56Z</time>
  <course>188.25</course>
  <speed>0.01414213562373095</speed>
  <fix>3d</fix>
</trkpt>
<trkpt lat="33.810313" lon="-118.393867">
  <ele>-0.12</ele>
  <time>2026-09-02T22:12:56Z</time>
  <course>0.0</course>
  <speed>0.0</speed>
  <fix>3d</fix>
</trkpt>
<trkpt lat="33.810313" lon="-118.393867">
  <ele>-0.123</ele>
  <time>2026-09-02T22:12:56Z</time>
  <course>188.25</course>
  <speed>0.01414213562373095</speed>
  <fix>3d</fix>
</trkpt>
<trkpt lat="33.810313" lon="-118.393867">
  <ele>-0.12</ele>
  <time>2026-09-02T22:12:56Z</time>
  <course>0.0</course>
  <speed>0.0</speed>
  <fix>3d</fix>
</trkpt>
<trkpt lat="33.810313" lon="-118.393867">
  <ele>-0.124</ele>
  <time>2026-09-02T22:12:56Z</time>
  <course>188.24</course>
  <speed>0.01414213562373095</speed>
  <fix>3d</fix>
</trkpt>
<trkpt lat="33.810313" lon="-118.393867">
  <ele>-0.12</ele>
  <time>2026-09-02T22:12:56Z</time>
  <course>0.0</course>
  <speed>0.0</speed>
  <fix>3d</fix>
</trkpt>
<trkpt lat="33.810313" lon="-118.393867">
  <ele>-0.126</ele>
  <time>2026-09-02T22:12:56Z</time>
  <course>188.23</course>
  <speed>0.01414213562373095</speed>
  <fix>3d</fix>
</trkpt>
<trkpt lat="33.810313" lon="-118.393867">
  <ele>-0.12</ele>
  <time>2026-09-02T22:12:56Z</time>
  <course>0.0</course>
  <speed>0.0</speed>
  <fix>3d</fix>
</trkpt>
<trkpt lat="33.810313" lon="-118.393867">
  <ele>-0.127</ele>
  <time>2026-09-02T22:12:56Z</time>
  <course>188.22</course>
  <speed>0.01414213562373095</speed>
  <fix>3d</fix>
</trkpt>
<trkpt lat="33.810313" lon="-118.393867">
  <ele>-0.12</ele>
  <time>2026-09-02T22:12:56Z</time>
  <course>0.0</course>
  <speed>0.0</speed>
  <fix>3d</fix>
</trkpt>
<trkpt lat="33.810313" lon="-118.393867">
  <ele>-0.129</ele>
  <time>2026-09-02T22:12:56Z</time>
  <course>188.21</course>
  <speed>0.01414213562373095</speed>
  <fix>3d</fix>
</trkpt>
<trkpt lat="33.810313" lon="-118.393867">
  <ele>-0.12</ele>
  <time>2026-09-02T22:12:56Z</time>
  <course>0.0</course>
  <speed>0.0</speed>
  <fix>3d</fix>
</trkpt>
<trkpt lat="33.810313" lon="-118.393867">
  <ele>-0.129</ele>
  <time>2026-09-02T22:12:56Z</time>
  <course>188.21</course>
  <speed>0.01414213562373095</speed>
  <fix>3d</fix>
</trkpt>
<trkpt lat="33.810313" lon="-118.393867">
  <ele>-0.12</ele>
  <time>2026-09-02T22:12:56Z</time>
  <course>0.0</course>
  <speed>0.0</speed>
  <fix>3d</fix>
</trkpt>
<trkpt lat="33.810313" lon="-118.393867">
  <ele>-0.129</ele>
  <time>2026-09-02T22:12:56Z</time>
  <course>188.2</course>
  <speed>0.01414213562373095</speed>
  <fix>3d</fix>
</trkpt>
<trkpt lat="33.810313" lon="-118.393867">
  <ele>-0.12</ele>
  <time>2026-09-02T22:12:56Z</time>
  <course>0.0</course>
  <speed>0.0</speed>
  <fix>3d</fix>
</trkpt>
<trkpt lat="33.810313" lon="-118.393867">
  <ele>-0.128</ele>
  <time>2026-09-02T22:12:56Z</time>
  <course>188.19</course>
  <speed>0.01414213562373095</speed>
  <fix>3d</fix>
</trkpt>
<trkpt lat="33.810313" lon="-118.393867">
  <ele>-0.12</ele>
  <time>2026-09-02T22:12:56Z</time>
  <course>0.0</course>
  <speed>0.0</speed>
  <fix>3d</fix>
</trkpt>
<trkpt lat="33.810313" lon="-118.393867">
  <ele>-0.128</ele>
  <time>2026-09-02T22:12:56Z</time>
  <course>188.18</course>
  <speed>0.01414213562373095</speed>
  <fix>3d</fix>
</trkpt>
<trkpt lat="33.810313" lon="-118.393867">
  <ele>-0.12</ele>
  <time>2026-09-02T22:12:56Z</time>
  <course>0.0</course>
  <speed>0.0</speed>
  <fix>3d</fix>
</trkpt>
<trkpt lat="33.810313" lon="-118.393867">
  <ele>-0.127</ele>
  <time>2026-09-02T22:12:56Z</time>
  <course>188.17</course>
  <speed>0.01414213562373095</speed>
  <fix>3d</fix>
</trkpt>
<trkpt lat="33.810313" lon="-118.393867">
  <ele>-0.12</ele>
  <time>2026-09-02T22:12:56Z</time>
  <course>0.0</course>
  <speed>0.0</speed>
  <fix>3d</fix>
</trkpt>
<trkpt lat="33.810313" lon="-118.393867">
  <ele>-0.127</ele>
  <time>2026-09-02T22:12:56Z</time>
  <course>188.16</course>
  <speed>0.01414213562373095</speed>
  <fix>3d</fix>
</trkpt>
<trkpt lat="33.810313" lon="-118.393867">
  <ele>-0.12</ele>
  <time>2026-09-02T22:12:56Z</time>
  <course>0.0</course>
  <speed>0.0</speed>
  <fix>3d</fix>
</trkpt>
<trkpt lat="33.810313" lon="-118.393867">
  <ele>-0.128</ele>
  <time>2026-09-02T22:12:56Z</time>
  <course>188.16</course>
  <speed>0.01414213562373095</speed>
  <fix>3d</fix>
</trkpt>
<trkpt lat="33.810313" lon="-118.393867">
  <ele>-0.12</ele>
  <time>2026-09-02T22:12:56Z</time>
  <course>0.0</course>
  <speed>0.0</speed>
  <fix>3d</fix>
</trkpt>
<trkpt lat="33.810313" lon="-118.393867">
  <ele>-0.129</ele>
  <time>2026-09-02T22:12:56Z</time>
  <course>188.15</course>
  <speed>0.01414213562373095</speed>
  <fix>3d</fix>
</trkpt>
<trkpt lat="33.810313" lon="-118.393867">
  <ele>-0.12</ele>
  <time>2026-09-02T22:12:56Z</time>
  <course>0.0</course>
  <speed>0.0</speed>
  <fix>3d</fix>
</trkpt>
<trkpt lat="33.810313" lon="-118.393867">
  <ele>-0.131</ele>
  <time>2026-09-02T22:12:56Z</time>
  <course>188.14</course>
  <speed>0.01414213562373095</speed>
  <fix>3d</fix>
</trkpt>
<trkpt lat="33.810313" lon="-118.393867">
  <ele>-0.12</ele>
  <time>2026-09-02T22:12:56Z</time>
  <course>0.0</course>
  <speed>0.0</speed>
  <fix>3d</fix>
</trkpt>
<trkpt lat="33.810313" lon="-118.393867">
  <ele>-0.133</ele>
  <time>2026-09-02T22:12:56Z</time>
  <course>188.13</course>
  <speed>0.01414213562373095</speed>
  <fix>3d</fix>
</trkpt>
<trkpt lat="33.810313" lon="-118.393867">
  <ele>-0.12</ele>
  <time>2026-09-02T22:12:56Z</time>
  <course>0.0</course>
  <speed>0.0</speed>
  <fix>3d</fix>
</trkpt>
<trkpt lat="33.810313" lon="-118.393867">
  <ele>-0.135</ele>
  <time>2026-09-02T22:12:56Z</time>
  <course>188.12</course>
  <speed>0.01414213562373095</speed>
  <fix>3d</fix>
</trkpt>
<trkpt lat="33.810313" lon="-118.393867">
  <ele>-0.12</ele>
  <time>2026-09-02T22:12:56Z</time>
  <course>0.0</course>
  <speed>0.0</speed>
  <fix>3d</fix>
</trkpt>
<trkpt lat="33.810313" lon="-118.393867">
  <ele>-0.136</ele>
  <time>2026-09-02T22:12:56Z</time>
  <course>188.12</course>
  <speed>0.01414213562373095</speed>
  <fix>3d</fix>
</trkpt>
<trkpt lat="33.810313" lon="-118.393867">
  <ele>-0.12</ele>
  <time>2026-09-02T22:12:56Z</time>
  <course>0.0</course>
  <speed>0.0</speed>
  <fix>3d</fix>
</trkpt>
<trkpt lat="33.810313" lon="-118.393867">
  <ele>-0.136</ele>
  <time>2026-09-02T22:12:56Z</time>
  <course>188.11</course>
  <speed>0.01414213562373095</speed>
  <fix>3d</fix>
</trkpt>
<trkpt lat="33.810313" lon="-118.393867">
  <ele>-0.12</ele>
  <time>2026-09-02T22:12:56Z</time>
  <course>0.0</course>
  <speed>0.0</speed>
  <fix>3d</fix>
</trkpt>
<trkpt lat="33.810313" lon="-118.393867">
  <ele>-0.136</ele>
  <time>2026-09-02T22:12:56Z</time>
  <course>188.1</course>
  <speed>0.01414213562373095</speed>
  <fix>3d</fix>
</trkpt>
<trkpt lat="33.810313" lon="-118.393867">
  <ele>-0.12</ele>
  <time>2026-09-02T22:12:56Z</time>
  <course>0.0</course>
  <speed>0.0</speed>
  <fix>3d</fix>
</trkpt>
<trkpt lat="33.810313" lon="-118.393867">
  <ele>-0.135</ele>
  <time>2026-09-02T22:12:56Z</time>
  <course>188.09</course>
  <speed>0.01414213562373095</speed>
  <fix>3d</fix>
</trkpt>
<trkpt lat="33.810313" lon="-118.393867">
  <ele>-0.12</ele>
  <time>2026-09-02T22:12:56Z</time>
  <course>0.0</course>
  <speed>0.0</speed>
  <fix>3d</fix>
</trkpt>
<trkpt lat="33.810313" lon="-118.393867">
  <ele>-0.134</ele>
  <time>2026-09-02T22:12:56Z</time>
  <course>188.08</course>
  <speed>0.01414213562373095</speed>
  <fix>3d</fix>
</trkpt>
<trkpt lat="33.810313" lon="-118.393867">
  <ele>-0.12</ele>
  <time>2026-09-02T22:12:56Z</time>
  <course>0.0</course>
  <speed>0.0</speed>
  <fix>3d</fix>
</trkpt>
<trkpt lat="33.810313" lon="-118.393867">
  <ele>-0.131</ele>
  <time>2026-09-02T22:12:56Z</time>
  <course>188.07</course>
  <speed>0.022360679774997897</speed>
  <fix>3d</fix>
</trkpt>
<trkpt lat="33.810313" lon="-118.393867">
  <ele>-0.12</ele>
  <time>2026-09-02T22:12:56Z</time>
  <course>0.0</course>
  <speed>0.0</speed>
  <fix>3d</fix>
</trkpt>
<trkpt lat="33.810313" lon="-118.393867">
  <ele>-0.128</ele>
  <time>2026-09-02T22:12:56Z</time>
  <course>188.07</course>
  <speed>0.022360679774997897</speed>
  <fix>3d</fix>
</trkpt>
<trkpt lat="33.810313" lon="-118.393867">
  <ele>-0.12</ele>
  <time>2026-09-02T22:12:56Z</time>
  <course>0.0</course>
  <speed>0.0</speed>
  <fix>3d</fix>
</trkpt>
<trkpt lat="33.810313" lon="-118.393867">
  <ele>-0.126</ele>
  <time>2026-09-02T22:12:56Z</time>
  <course>188.06</course>
  <speed>0.022360679774997897</speed>
  <fix>3d</fix>
</trkpt>
<trkpt lat="33.810313" lon="-118.393867">
  <ele>-0.12</ele>
  <time>2026-09-02T22:12:56Z</time>
  <course>0.0</course>
  <speed>0.0</speed>
  <fix>3d</fix>
</trkpt>
<trkpt lat="33.810313" lon="-118.393867">
  <ele>-0.126</ele>
  <time>2026-09-02T22:12:56Z</time>
  <course>188.05</course>
  <speed>0.022360679774997897</speed>
  <fix>3d</fix>
</trkpt>
<trkpt lat="33.810313" lon="-118.393867">
  <ele>-0.12</ele>
  <time>2026-09-02T22:12:56Z</time>
  <course>0.0</course>
  <speed>0.0</speed>
  <fix>3d</fix>
</trkpt>
<trkpt lat="33.810313" lon="-118.393867">
  <ele>-0.126</ele>
  <time>2026-09-02T22:12:56Z</time>
  <course>188.04</course>
  <speed>0.022360679774997897</speed>
  <fix>3d</fix>
</trkpt>
<trkpt lat="33.810313" lon="-118.393867">
  <ele>-0.12</ele>
  <time>2026-09-02T22:12:56Z</time>
  <course>0.0</course>
  <speed>0.0</speed>
  <fix>3d</fix>
</trkpt>
<trkpt lat="33.810313" lon="-118.393867">
  <ele>-0.127</ele>
  <time>2026-09-02T22:12:56Z</time>
  <course>188.03</course>
  <speed>0.022360679774997897</speed>
  <fix>3d</fix>
</trkpt>
<trkpt lat="33.810313" lon="-118.393867">
  <ele>-0.12</ele>
  <time>2026-09-02T22:12:56Z</time>
  <course>0.0</course>
  <speed>0.0</speed>
  <fix>3d</fix>
</trkpt>
<trkpt lat="33.810313" lon="-118.393867">
  <ele>-0.127</ele>
  <time>2026-09-02T22:12:56Z</time>
  <course>188.03</course>
  <speed>0.022360679774997897</speed>
  <fix>3d</fix>
</trkpt>
<trkpt lat="33.810313" lon="-118.393867">
  <ele>-0.12</ele>
  <time>2026-09-02T22:12:56Z</time>
  <course>0.0</course>
  <speed>0.0</speed>
  <fix>3d</fix>
</trkpt>
<trkpt lat="33.810313" lon="-118.393867">
  <ele>-0.127</ele>
  <time>2026-09-02T22:12:56Z</time>
  <course>188.02</course>
  <speed>0.022360679774997897</speed>
  <fix>3d</fix>
</trkpt>
<trkpt lat="33.810313" lon="-118.393867">
  <ele>-0.12</ele>
  <time>2026-09-02T22:12:56Z</time>
  <course>0.0</course>
  <speed>0.0</speed>
  <fix>3d</fix>
</trkpt>
<trkpt lat="33.810313" lon="-118.393867">
  <ele>-0.128</ele>
  <time>2026-09-02T22:12:56Z</time>
  <course>188.01</course>
  <speed>0.022360679774997897</speed>
  <fix>3d</fix>
</trkpt>
<trkpt lat="33.810313" lon="-118.393867">
  <ele>-0.12</ele>
  <time>2026-09-02T22:12:56Z</time>
  <course>0.0</course>
  <speed>0.0</speed>
  <fix>3d</fix>
</trkpt>
<trkpt lat="33.810313" lon="-118.393867">
  <ele>-0.128</ele>
  <time>2026-09-02T22:12:56Z</time>
  <course>188.0</course>
  <speed>0.022360679774997897</speed>
  <fix>3d</fix>
</trkpt>
<trkpt lat="33.810313" lon="-118.393867">
  <ele>-0.12</ele>
  <time>2026-09-02T22:12:56Z</time>
  <course>0.0</course>
  <speed>0.0</speed>
  <fix>3d</fix>
</trkpt>
<trkpt lat="33.810313" lon="-118.393867">
  <ele>-0.127</ele>
  <time>2026-09-02T22:12:56Z</time>
  <course>187.99</course>
  <speed>0.022360679774997897</speed>
  <fix>3d</fix>
</trkpt>
<trkpt lat="33.810313" lon="-118.393867">
  <ele>-0.12</ele>
  <time>2026-09-02T22:12:56Z</time>
  <course>0.0</course>
  <speed>0.0</speed>
  <fix>3d</fix>
</trkpt>
<trkpt lat="33.810313" lon="-118.393867">
  <ele>-0.126</ele>
  <time>2026-09-02T22:12:56Z</time>
  <course>187.98</course>
  <speed>0.022360679774997897</speed>
  <fix>3d</fix>
</trkpt>
<trkpt lat="33.810313" lon="-118.393867">
  <ele>-0.12</ele>
  <time>2026-09-02T22:12:56Z</time>
  <course>0.0</course>
  <speed>0.0</speed>
  <fix>3d</fix>
</trkpt>
<trkpt lat="33.810313" lon="-118.393867">
  <ele>-0.123</ele>
  <time>2026-09-02T22:12:56Z</time>
  <course>187.98</course>
  <speed>0.022360679774997897</speed>
  <fix>3d</fix>
</trkpt>
<trkpt lat="33.810313" lon="-118.393867">
  <ele>-0.12</ele>
  <time>2026-09-02T22:12:56Z</time>
  <course>0.0</course>
  <speed>0.0</speed>
  <fix>3d</fix>
</trkpt>
<trkpt lat="33.810313" lon="-118.393867">
  <ele>-0.121</ele>
  <time>2026-09-02T22:12:56Z</time>
  <course>187.97</course>
  <speed>0.022360679774997897</speed>
  <fix>3d</fix>
</trkpt>
<trkpt lat="33.810313" lon="-118.393867">
  <ele>-0.12</ele>
  <time>2026-09-02T22:12:56Z</time>
  <course>0.0</course>
  <speed>0.0</speed>
  <fix>3d</fix>
</trkpt>
<trkpt lat="33.810313" lon="-118.393867">
  <ele>-0.12</ele>
  <time>2026-09-02T22:12:56Z</time>
  <course>187.96</course>
  <speed>0.022360679774997897</speed>
  <fix>3d</fix>
</trkpt>
<trkpt lat="33.810313" lon="-118.393867">
  <ele>-0.12</ele>
  <time>2026-09-02T22:12:56Z</time>
  <course>0.0</course>
  <speed>0.0</speed>
  <fix>3d</fix>
</trkpt>
<trkpt lat="33.810313" lon="-118.393867">
  <ele>-0.12</ele>
  <time>2026-09-02T22:12:56Z</time>
  <course>187.95</course>
  <speed>0.022360679774997897</speed>
  <fix>3d</fix>
</trkpt>
<trkpt lat="33.810313" lon="-118.393867">
  <ele>-0.12</ele>
  <time>2026-09-02T22:12:56Z</time>
  <course>0.0</course>
  <speed>0.0</speed>
  <fix>3d</fix>
</trkpt>
<trkpt lat="33.810313" lon="-118.393867">
  <ele>-0.122</ele>
  <time>2026-09-02T22:12:56Z</time>
  <course>187.94</course>
  <speed>0.022360679774997897</speed>
  <fix>3d</fix>
</trkpt>
<trkpt lat="33.810313" lon="-118.393867">
  <ele>-0.12</ele>
  <time>2026-09-02T22:12:56Z</time>
  <course>0.0</course>
  <speed>0.0</speed>
  <fix>3d</fix>
</trkpt>
<trkpt lat="33.810313" lon="-118.393867">
  <ele>-0.125</ele>
  <time>2026-09-02T22:12:56Z</time>
  <course>187.94</course>
  <speed>0.022360679774997897</speed>
  <fix>3d</fix>
</trkpt>
<trkpt lat="33.810313" lon="-118.393867">
  <ele>-0.12</ele>
  <time>2026-09-02T22:12:56Z</time>
  <course>0.0</course>
  <speed>0.0</speed>
  <fix>3d</fix>
</trkpt>
<trkpt lat="33.810313" lon="-118.393867">
  <ele>-0.129</ele>
  <time>2026-09-02T22:12:56Z</time>
  <course>187.93</course>
  <speed>0.022360679774997897</speed>
  <fix>3d</fix>
</trkpt>
<trkpt lat="33.810313" lon="-118.393867">
  <ele>-0.12</ele>
  <time>2026-09-02T22:12:56Z</time>
  <course>0.0</course>
  <speed>0.0</speed>
  <fix>3d</fix>
</trkpt>
<trkpt lat="33.810313" lon="-118.393867">
  <ele>-0.131</ele>
  <time>2026-09-02T22:12:56Z</time>
  <course>187.92</course>
  <speed>0.022360679774997897</speed>
  <fix>3d</fix>
</trkpt>
<trkpt lat="33.810313" lon="-118.393867">
  <ele>-0.12</ele>
  <time>2026-09-02T22:12:56Z</time>
  <course>0.0</course>
  <speed>0.0</speed>
  <fix>3d</fix>
</trkpt>
<trkpt lat="33.810313" lon="-118.393867">
  <ele>-0.132</ele>
  <time>2026-09-02T22:12:56Z</time>
  <course>187.91</course>
  <speed>0.022360679774997897</speed>
  <fix>3d</fix>
</trkpt>
<trkpt lat="33.810313" lon="-118.393867">
  <ele>-0.12</ele>
  <time>2026-09-02T22:12:56Z</time>
  <course>0.0</course>
  <speed>0.0</speed>
  <fix>3d</fix>
</trkpt>
<trkpt lat="33.810313" lon="-118.393867">
  <ele>-0.132</ele>
  <time>2026-09-02T22:12:56Z</time>
  <course>187.9</course>
  <speed>0.022360679774997897</speed>
  <fix>3d</fix>
</trkpt>
<trkpt lat="33.810313" lon="-118.393867">
  <ele>-0.12</ele>
  <time>2026-09-02T22:12:56Z</time>
  <course>0.0</course>
  <speed>0.0</speed>
  <fix>3d</fix>
</trkpt>
<trkpt lat="33.810313" lon="-118.393867">
  <ele>-0.132</ele>
  <time>2026-09-02T22:12:56Z</time>
  <course>187.9</course>
  <speed>0.022360679774997897</speed>
  <fix>3d</fix>
</trkpt>
<trkpt lat="33.810313" lon="-118.393867">
  <ele>-0.12</ele>
  <time>2026-09-02T22:12:56Z</time>
  <course>0.0</course>
  <speed>0.0</speed>
  <fix>3d</fix>
</trkpt>
<trkpt lat="33.810313" lon="-118.393867">
  <ele>-0.13</ele>
  <time>2026-09-02T22:12:56Z</time>
  <course>187.89</course>
  <speed>0.022360679774997897</speed>
  <fix>3d</fix>
</trkpt>
<trkpt lat="33.810313" lon="-118.393867">
  <ele>-0.12</ele>
  <time>2026-09-02T22:12:56Z</time>
  <course>0.0</course>
  <speed>0.0</speed>
  <fix>3d</fix>
</trkpt>
<trkpt lat="33.810313" lon="-118.393867">
  <ele>-0.127</ele>
  <time>2026-09-02T22:12:56Z</time>
  <course>187.88</course>
  <speed>0.022360679774997897</speed>
  <fix>3d</fix>
</trkpt>
<trkpt lat="33.810313" lon="-118.393867">
  <ele>-0.12</ele>
  <time>2026-09-02T22:12:56Z</time>
  <course>0.0</course>
  <speed>0.0</speed>
  <fix>3d</fix>
</trkpt>
<trkpt lat="33.810313" lon="-118.393867">
  <ele>-0.123</ele>
  <time>2026-09-02T22:12:56Z</time>
  <course>187.87</course>
  <speed>0.022360679774997897</speed>
  <fix>3d</fix>
</trkpt>
<trkpt lat="33.810313" lon="-118.393867">
  <ele>-0.12</ele>
  <time>2026-09-02T22:12:56Z</time>
  <course>0.0</course>
  <speed>0.0</speed>
  <fix>3d</fix>
</trkpt>
<trkpt lat="33.810313" lon="-118.393867">
  <ele>-0.121</ele>
  <time>2026-09-02T22:12:56Z</time>
  <course>187.87</course>
  <speed>0.022360679774997897</speed>
  <fix>3d</fix>
</trkpt>
<trkpt lat="33.810313" lon="-118.393867">
  <ele>-0.12</ele>
  <time>2026-09-02T22:12:56Z</time>
  <course>0.0</course>
  <speed>0.0</speed>
  <fix>3d</fix>
</trkpt>
<trkpt lat="33.810313" lon="-118.393867">
  <ele>-0.121</ele>
  <time>2026-09-02T22:12:56Z</time>
  <course>187.86</course>
  <speed>0.022360679774997897</speed>
  <fix>3d</fix>
</trkpt>
<trkpt lat="33.810313" lon="-118.393867">
  <ele>-0.12</ele>
  <time>2026-09-02T22:12:56Z</time>
  <course>0.0</course>
  <speed>0.0</speed>
  <fix>3d</fix>
</trkpt>
<trkpt lat="33.810313" lon="-118.393867">
  <ele>-0.123</ele>
  <time>2026-09-02T22:12:56Z</time>
  <course>187.85</course>
  <speed>0.022360679774997897</speed>
  <fix>3d</fix>
</trkpt>
<trkpt lat="33.810313" lon="-118.393867">
  <ele>-0.12</ele>
  <time>2026-09-02T22:12:56Z</time>
  <course>0.0</course>
  <speed>0.0</speed>
  <fix>3d</fix>
</trkpt>
<trkpt lat="33.810313" lon="-118.393867">
  <ele>-0.124</ele>
  <time>2026-09-02T22:12:56Z</time>
  <course>187.84</course>
  <speed>0.022360679774997897</speed>
  <fix>3d</fix>
</trkpt>
<trkpt lat="33.810313" lon="-118.393867">
  <ele>-0.12</ele>
  <time>2026-09-02T22:12:56Z</time>
  <course>0.0</course>
  <speed>0.0</speed>
  <fix>3d</fix>
</trkpt>
<trkpt lat="33.810313" lon="-118.393867">
  <ele>-0.126</ele>
  <time>2026-09-02T22:12:56Z</time>
  <course>187.83</course>
  <speed>0.022360679774997897</speed>
  <fix>3d</fix>
</trkpt>
<trkpt lat="33.810313" lon="-118.393867">
  <ele>-0.12</ele>
  <time>2026-09-02T22:12:56Z</time>
  <course>0.0</course>
  <speed>0.0</speed>
  <fix>3d</fix>
</trkpt>
<trkpt lat="33.810313" lon="-118.393867">
  <ele>-0.127</ele>
  <time>2026-09-02T22:12:56Z</time>
  <course>187.83</course>
  <speed>0.022360679774997897</speed>
  <fix>3d</fix>
</trkpt>
<trkpt lat="33.810313" lon="-118.393867">
  <ele>-0.12</ele>
  <time>2026-09-02T22:12:56Z</time>
  <course>0.0</course>
  <speed>0.0</speed>
  <fix>3d</fix>
</trkpt>
<trkpt lat="33.810313" lon="-118.393867">
  <ele>-0.127</ele>
  <time>2026-09-02T22:12:56Z</time>
  <course>187.82</course>
  <speed>0.022360679774997897</speed>
  <fix>3d</fix>
</trkpt>
<trkpt lat="33.810313" lon="-118.393867">
  <ele>-0.12</ele>
  <time>2026-09-02T22:12:56Z</time>
  <course>0.0</course>
  <speed>0.0</speed>
  <fix>3d</fix>
</trkpt>
<trkpt lat="33.810313" lon="-118.393867">
  <ele>-0.127</ele>
  <time>2026-09-02T22:12:56Z</time>
  <course>187.81</course>
  <speed>0.022360679774997897</speed>
  <fix>3d</fix>
</trkpt>
<trkpt lat="33.810313" lon="-118.393867">
  <ele>-0.12</ele>
  <time>2026-09-02T22:12:56Z</time>
  <course>0.0</course>
  <speed>0.0</speed>
  <fix>3d</fix>
</trkpt>
<trkpt lat="33.810313" lon="-118.393867">
  <ele>-0.126</ele>
  <time>2026-09-02T22:12:56Z</time>
  <course>187.8</course>
  <speed>0.022360679774997897</speed>
  <fix>3d</fix>
</trkpt>
<trkpt lat="33.810313" lon="-118.393867">
  <ele>-0.12</ele>
  <time>2026-09-02T22:12:56Z</time>
  <course>0.0</course>
  <speed>0.0</speed>
  <fix>3d</fix>
</trkpt>
<trkpt lat="33.810313" lon="-118.393867">
  <ele>-0.124</ele>
  <time>2026-09-02T22:12:56Z</time>
  <course>187.8</course>
  <speed>0.022360679774997897</speed>
  <fix>3d</fix>
</trkpt>
<trkpt lat="33.810313" lon="-118.393867">
  <ele>-0.12</ele>
  <time>2026-09-02T22:12:56Z</time>
  <course>0.0</course>
  <speed>0.0</speed>
  <fix>3d</fix>
</trkpt>
<trkpt lat="33.810313" lon="-118.393867">
  <ele>-0.121</ele>
  <time>2026-09-02T22:12:56Z</time>
  <course>187.79</course>
  <speed>0.022360679774997897</speed>
  <fix>3d</fix>
</trkpt>
<trkpt lat="33.810313" lon="-118.393867">
  <ele>-0.12</ele>
  <time>2026-09-02T22:12:56Z</time>
  <course>0.0</course>
  <speed>0.0</speed>
  <fix>3d</fix>
</trkpt>
<trkpt lat="33.810313" lon="-118.393867">
  <ele>-0.119</ele>
  <time>2026-09-02T22:12:56Z</time>
  <course>187.78</course>
  <speed>0.022360679774997897</speed>
  <fix>3d</fix>
</trkpt>
<trkpt lat="33.810313" lon="-118.393867">
  <ele>-0.12</ele>
  <time>2026-09-02T22:12:56Z</time>
  <course>0.0</course>
  <speed>0.0</speed>
  <fix>3d</fix>
</trkpt>
<trkpt lat="33.810313" lon="-118.393867">
  <ele>-0.118</ele>
  <time>2026-09-02T22:12:56Z</time>
  <course>187.77</course>
  <speed>0.022360679774997897</speed>
  <fix>3d</fix>
</trkpt>
<trkpt lat="33.810313" lon="-118.393867">
  <ele>-0.12</ele>
  <time>2026-09-02T22:12:56Z</time>
  <course>0.0</course>
  <speed>0.0</speed>
  <fix>3d</fix>
</trkpt>
<trkpt lat="33.810313" lon="-118.393867">
  <ele>-0.118</ele>
  <time>2026-09-02T22:12:56Z</time>
  <course>187.76</course>
  <speed>0.022360679774997897</speed>
  <fix>3d</fix>
</trkpt>
<trkpt lat="33.810313" lon="-118.393867">
  <ele>-0.12</ele>
  <time>2026-09-02T22:12:56Z</time>
  <course>0.0</course>
  <speed>0.0</speed>
  <fix>3d</fix>
</trkpt>
<trkpt lat="33.810313" lon="-118.393867">
  <ele>-0.119</ele>
  <time>2026-09-02T22:12:56Z</time>
  <course>187.76</course>
  <speed>0.022360679774997897</speed>
  <fix>3d</fix>
</trkpt>
<trkpt lat="33.810313" lon="-118.393867">
  <ele>-0.12</ele>
  <time>2026-09-02T22:12:56Z</time>
  <course>0.0</course>
  <speed>0.0</speed>
  <fix>3d</fix>
</trkpt>
<trkpt lat="33.810313" lon="-118.393867">
  <ele>-0.12</ele>
  <time>2026-09-02T22:12:56Z</time>
  <course>187.75</course>
  <speed>0.022360679774997897</speed>
  <fix>3d</fix>
</trkpt>
<trkpt lat="33.810313" lon="-118.393867">
  <ele>-0.12</ele>
  <time>2026-09-02T22:12:56Z</time>
  <course>0.0</course>
  <speed>0.0</speed>
  <fix>3d</fix>
</trkpt>
<trkpt lat="33.810313" lon="-118.393867">
  <ele>-0.12</ele>
  <time>2026-09-02T22:12:56Z</time>
  <course>187.74</course>
  <speed>0.0282842712474619</speed>
  <fix>3d</fix>
</trkpt>
<trkpt lat="33.810313" lon="-118.393867">
  <ele>-0.12</ele>
  <time>2026-09-02T22:12:56Z</time>
  <course>0.0</course>
  <speed>0.0</speed>
  <fix>3d</fix>
</trkpt>
<trkpt lat="33.810313" lon="-118.393867">
  <ele>-0.12</ele>
  <time>2026-09-02T22:12:56Z</time>
  <course>187.74</course>
  <speed>0.0282842712474619</speed>
  <fix>3d</fix>
</trkpt>
<trkpt lat="33.810313" lon="-118.393867">
  <ele>-0.12</ele>
  <time>2026-09-02T22:12:56Z</time>
  <course>0.0</course>
  <speed>0.0</speed>
  <fix>3d</fix>
</trkpt>
<trkpt lat="33.810313" lon="-118.393867">
  <ele>-0.119</ele>
  <time>2026-09-02T22:12:56Z</time>
  <course>187.73</course>
  <speed>0.0282842712474619</speed>
  <fix>3d</fix>
</trkpt>
<trkpt lat="33.810313" lon="-118.393867">
  <ele>-0.12</ele>
  <time>2026-09-02T22:12:56Z</time>
  <course>0.0</course>
  <speed>0.0</speed>
  <fix>3d</fix>
</trkpt>
<trkpt lat="33.810313" lon="-118.393867">
  <ele>-0.118</ele>
  <time>2026-09-02T22:12:56Z</time>
  <course>187.72</course>
  <speed>0.0282842712474619</speed>
  <fix>3d</fix>
</trkpt>
<trkpt lat="33.810313" lon="-118.393867">
  <ele>-0.12</ele>
  <time>2026-09-02T22:12:56Z</time>
  <course>0.0</course>
  <speed>0.0</speed>
  <fix>3d</fix>
</trkpt>
<trkpt lat="33.810313" lon="-118.393867">
  <ele>-0.116</ele>
  <time>2026-09-02T22:12:56Z</time>
  <course>187.71</course>
  <speed>0.0282842712474619</speed>
  <fix>3d</fix>
</trkpt>
<trkpt lat="33.810313" lon="-118.393867">
  <ele>-0.12</ele>
  <time>2026-09-02T22:12:56Z</time>
  <course>0.0</course>
  <speed>0.0</speed>
  <fix>3d</fix>
</trkpt>
<trkpt lat="33.810313" lon="-118.393867">
  <ele>-0.113</ele>
  <time>2026-09-02T22:12:57Z</time>
  <course>187.71</course>
  <speed>0.0282842712474619</speed>
  <fix>3d</fix>
</trkpt>
<trkpt lat="33.810313" lon="-118.393867">
  <ele>-0.12</ele>
  <time>2026-09-02T22:12:57Z</time>
  <course>0.0</course>
  <speed>0.0</speed>
  <fix>3d</fix>
</trkpt>
<trkpt lat="33.810313" lon="-118.393867">
  <ele>-0.112</ele>
  <time>2026-09-02T22:12:57Z</time>
  <course>187.7</course>
  <speed>0.0282842712474619</speed>
  <fix>3d</fix>
</trkpt>
<trkpt lat="33.810313" lon="-118.393867">
  <ele>-0.12</ele>
  <time>2026-09-02T22:12:57Z</time>
  <course>0.0</course>
  <speed>0.0</speed>
  <fix>3d</fix>
</trkpt>
<trkpt lat="33.810313" lon="-118.393867">
  <ele>-0.113</ele>
  <time>2026-09-02T22:12:57Z</time>
  <course>187.69</course>
  <speed>0.0282842712474619</speed>
  <fix>3d</fix>
</trkpt>
<trkpt lat="33.810313" lon="-118.393867">
  <ele>-0.12</ele>
  <time>2026-09-02T22:12:57Z</time>
  <course>0.0</course>
  <speed>0.0</speed>
  <fix>3d</fix>
</trkpt>
<trkpt lat="33.810313" lon="-118.393867">
  <ele>-0.115</ele>
  <time>2026-09-02T22:12:57Z</time>
  <course>187.68</course>
  <speed>0.0282842712474619</speed>
  <fix>3d</fix>
</trkpt>
<trkpt lat="33.810313" lon="-118.393867">
  <ele>-0.12</ele>
  <time>2026-09-02T22:12:57Z</time>
  <course>0.0</course>
  <speed>0.0</speed>
  <fix>3d</fix>
</trkpt>
<trkpt lat="33.810313" lon="-118.393867">
  <ele>-0.119</ele>
  <time>2026-09-02T22:12:57Z</time>
  <course>187.68</course>
  <speed>0.0282842712474619</speed>
  <fix>3d</fix>
</trkpt>
<trkpt lat="33.810313" lon="-118.393867">
  <ele>-0.12</ele>
  <time>2026-09-02T22:12:57Z</time>
  <course>0.0</course>
  <speed>0.0</speed>
  <fix>3d</fix>
</trkpt>
<trkpt lat="33.810313" lon="-118.393867">
  <ele>-0.124</ele>
  <time>2026-09-02T22:12:57Z</time>
  <course>187.67</course>
  <speed>0.0282842712474619</speed>
  <fix>3d</fix>
</trkpt>
<trkpt lat="33.810313" lon="-118.393867">
  <ele>-0.12</ele>
  <time>2026-09-02T22:12:57Z</time>
  <course>0.0</course>
  <speed>0.0</speed>
  <fix>3d</fix>
</trkpt>
<trkpt lat="33.810313" lon="-118.393867">
  <ele>-0.129</ele>
  <time>2026-09-02T22:12:57Z</time>
  <course>187.66</course>
  <speed>0.0282842712474619</speed>
  <fix>3d</fix>
</trkpt>
<trkpt lat="33.810313" lon="-118.393867">
  <ele>-0.12</ele>
  <time>2026-09-02T22:12:57Z</time>
  <course>0.0</course>
  <speed>0.0</speed>
  <fix>3d</fix>
</trkpt>
<trkpt lat="33.810313" lon="-118.393867">
  <ele>-0.133</ele>
  <time>2026-09-02T22:12:57Z</time>
  <course>187.66</course>
  <speed>0.0282842712474619</speed>
  <fix>3d</fix>
</trkpt>
<trkpt lat="33.810313" lon="-118.393867">
  <ele>-0.12</ele>
  <time>2026-09-02T22:12:57Z</time>
  <course>0.0</course>
  <speed>0.0</speed>
  <fix>3d</fix>
</trkpt>
<trkpt lat="33.810313" lon="-118.393867">
  <ele>-0.135</ele>
  <time>2026-09-02T22:12:57Z</time>
  <course>187.65</course>
  <speed>0.0282842712474619</speed>
  <fix>3d</fix>
</trkpt>
<trkpt lat="33.810313" lon="-118.393867">
  <ele>-0.12</ele>
  <time>2026-09-02T22:12:57Z</time>
  <course>0.0</course>
  <speed>0.0</speed>
  <fix>3d</fix>
</trkpt>
<trkpt lat="33.810313" lon="-118.393867">
  <ele>-0.135</ele>
  <time>2026-09-02T22:12:57Z</time>
  <course>187.64</course>
  <speed>0.0282842712474619</speed>
  <fix>3d</fix>
</trkpt>
<trkpt lat="33.810313" lon="-118.393867">
  <ele>-0.12</ele>
  <time>2026-09-02T22:12:57Z</time>
  <course>0.0</course>
  <speed>0.0</speed>
  <fix>3d</fix>
</trkpt>
<trkpt lat="33.810313" lon="-118.393867">
  <ele>-0.135</ele>
  <time>2026-09-02T22:12:57Z</time>
  <course>187.64</course>
  <speed>0.0282842712474619</speed>
  <fix>3d</fix>
</trkpt>
<trkpt lat="33.810313" lon="-118.393867">
  <ele>-0.12</ele>
  <time>2026-09-02T22:12:57Z</time>
  <course>0.0</course>
  <speed>0.0</speed>
  <fix>3d</fix>
</trkpt>
<trkpt lat="33.810313" lon="-118.393867">
  <ele>-0.133</ele>
  <time>2026-09-02T22:12:57Z</time>
  <course>187.63</course>
  <speed>0.0282842712474619</speed>
  <fix>3d</fix>
</trkpt>
<trkpt lat="33.810313" lon="-118.393867">
  <ele>-0.12</ele>
  <time>2026-09-02T22:12:57Z</time>
  <course>0.0</course>
  <speed>0.0</speed>
  <fix>3d</fix>
</trkpt>
<trkpt lat="33.810313" lon="-118.393867">
  <ele>-0.132</ele>
  <time>2026-09-02T22:12:57Z</time>
  <course>187.63</course>
  <speed>0.03605551275463989</speed>
  <fix>3d</fix>
</trkpt>
<trkpt lat="33.810313" lon="-118.393867">
  <ele>-0.12</ele>
  <time>2026-09-02T22:12:57Z</time>
  <course>0.0</course>
  <speed>0.0</speed>
  <fix>3d</fix>
</trkpt>
<trkpt lat="33.810313" lon="-118.393867">
  <ele>-0.132</ele>
  <time>2026-09-02T22:12:57Z</time>
  <course>187.62</course>
  <speed>0.03605551275463989</speed>
  <fix>3d</fix>
</trkpt>
<trkpt lat="33.810313" lon="-118.393867">
  <ele>-0.12</ele>
  <time>2026-09-02T22:12:57Z</time>
  <course>0.0</course>
  <speed>0.0</speed>
  <fix>3d</fix>
</trkpt>
<trkpt lat="33.810313" lon="-118.393867">
  <ele>-0.133</ele>
  <time>2026-09-02T22:12:57Z</time>
  <course>187.61</course>
  <speed>0.03605551275463989</speed>
  <fix>3d</fix>
</trkpt>
<trkpt lat="33.810313" lon="-118.393867">
  <ele>-0.12</ele>
  <time>2026-09-02T22:12:57Z</time>
  <course>0.0</course>
  <speed>0.0</speed>
  <fix>3d</fix>
</trkpt>
<trkpt lat="33.810313" lon="-118.393867">
  <ele>-0.134</ele>
  <time>2026-09-02T22:12:57Z</time>
  <course>187.6</course>
  <speed>0.03605551275463989</speed>
  <fix>3d</fix>
</trkpt>
<trkpt lat="33.810313" lon="-118.393867">
  <ele>-0.12</ele>
  <time>2026-09-02T22:12:57Z</time>
  <course>0.0</course>
  <speed>0.0</speed>
  <fix>3d</fix>
</trkpt>
<trkpt lat="33.810313" lon="-118.393867">
  <ele>-0.134</ele>
  <time>2026-09-02T22:12:57Z</time>
  <course>187.6</course>
  <speed>0.03605551275463989</speed>
  <fix>3d</fix>
</trkpt>
<trkpt lat="33.810313" lon="-118.393867">
  <ele>-0.12</ele>
  <time>2026-09-02T22:12:57Z</time>
  <course>0.0</course>
  <speed>0.0</speed>
  <fix>3d</fix>
</trkpt>
<trkpt lat="33.810313" lon="-118.393867">
  <ele>-0.134</ele>
  <time>2026-09-02T22:12:57Z</time>
  <course>187.59</course>
  <speed>0.03605551275463989</speed>
  <fix>3d</fix>
</trkpt>
<trkpt lat="33.810313" lon="-118.393867">
  <ele>-0.12</ele>
  <time>2026-09-02T22:12:57Z</time>
  <course>0.0</course>
  <speed>0.0</speed>
  <fix>3d</fix>
</trkpt>
<trkpt lat="33.810313" lon="-118.393867">
  <ele>-0.132</ele>
  <time>2026-09-02T22:12:57Z</time>
  <course>187.58</course>
  <speed>0.03605551275463989</speed>
  <fix>3d</fix>
</trkpt>
<trkpt lat="33.810313" lon="-118.393867">
  <ele>-0.12</ele>
  <time>2026-09-02T22:12:57Z</time>
  <course>0.0</course>
  <speed>0.0</speed>
  <fix>3d</fix>
</trkpt>
<trkpt lat="33.810313" lon="-118.393867">
  <ele>-0.129</ele>
  <time>2026-09-02T22:12:57Z</time>
  <course>187.58</course>
  <speed>0.03605551275463989</speed>
  <fix>3d</fix>
</trkpt>
<trkpt lat="33.810313" lon="-118.393867">
  <ele>-0.12</ele>
  <time>2026-09-02T22:12:57Z</time>
  <course>0.0</course>
  <speed>0.0</speed>
  <fix>3d</fix>
</trkpt>
<trkpt lat="33.810313" lon="-118.393867">
  <ele>-0.127</ele>
  <time>2026-09-02T22:12:57Z</time>
  <course>187.57</course>
  <speed>0.03605551275463989</speed>
  <fix>3d</fix>
</trkpt>
<trkpt lat="33.810313" lon="-118.393867">
  <ele>-0.12</ele>
  <time>2026-09-02T22:12:57Z</time>
  <course>0.0</course>
  <speed>0.0</speed>
  <fix>3d</fix>
</trkpt>
<trkpt lat="33.810313" lon="-118.393867">
  <ele>-0.125</ele>
  <time>2026-09-02T22:12:57Z</time>
  <course>187.56</course>
  <speed>0.03605551275463989</speed>
  <fix>3d</fix>
</trkpt>
<trkpt lat="33.810313" lon="-118.393867">
  <ele>-0.12</ele>
  <time>2026-09-02T22:12:57Z</time>
  <course>0.0</course>
  <speed>0.0</speed>
  <fix>3d</fix>
</trkpt>
<trkpt lat="33.810313" lon="-118.393867">
  <ele>-0.122</ele>
  <time>2026-09-02T22:12:57Z</time>
  <course>187.56</course>
  <speed>0.03605551275463989</speed>
  <fix>3d</fix>
</trkpt>
<trkpt lat="33.810313" lon="-118.393867">
  <ele>-0.12</ele>
  <time>2026-09-02T22:12:57Z</time>
  <course>0.0</course>
  <speed>0.0</speed>
  <fix>3d</fix>
</trkpt>
<trkpt lat="33.810313" lon="-118.393867">
  <ele>-0.119</ele>
  <time>2026-09-02T22:12:57Z</time>
  <course>187.55</course>
  <speed>0.03605551275463989</speed>
  <fix>3d</fix>
</trkpt>
<trkpt lat="33.810313" lon="-118.393867">
  <ele>-0.12</ele>
  <time>2026-09-02T22:12:57Z</time>
  <course>0.0</course>
  <speed>0.0</speed>
  <fix>3d</fix>
</trkpt>
<trkpt lat="33.810313" lon="-118.393867">
  <ele>-0.117</ele>
  <time>2026-09-02T22:12:57Z</time>
  <course>187.54</course>
  <speed>0.03605551275463989</speed>
  <fix>3d</fix>
</trkpt>
<trkpt lat="33.810313" lon="-118.393867">
  <ele>-0.12</ele>
  <time>2026-09-02T22:12:57Z</time>
  <course>0.0</course>
  <speed>0.0</speed>
  <fix>3d</fix>
</trkpt>
<trkpt lat="33.810313" lon="-118.393867">
  <ele>-0.117</ele>
  <time>2026-09-02T22:12:57Z</time>
  <course>187.54</course>
  <speed>0.03605551275463989</speed>
  <fix>3d</fix>
</trkpt>
<trkpt lat="33.810313" lon="-118.393867">
  <ele>-0.12</ele>
  <time>2026-09-02T22:12:57Z</time>
  <course>0.0</course>
  <speed>0.0</speed>
  <fix>3d</fix>
</trkpt>
<trkpt lat="33.810313" lon="-118.393867">
  <ele>-0.118</ele>
  <time>2026-09-02T22:12:57Z</time>
  <course>187.53</course>
  <speed>0.03605551275463989</speed>
  <fix>3d</fix>
</trkpt>
<trkpt lat="33.810313" lon="-118.393867">
  <ele>-0.12</ele>
  <time>2026-09-02T22:12:57Z</time>
  <course>0.0</course>
  <speed>0.0</speed>
  <fix>3d</fix>
</trkpt>
<trkpt lat="33.810313" lon="-118.393867">
  <ele>-0.119</ele>
  <time>2026-09-02T22:12:57Z</time>
  <course>187.52</course>
  <speed>0.03605551275463989</speed>
  <fix>3d</fix>
</trkpt>
<trkpt lat="33.810313" lon="-118.393867">
  <ele>-0.12</ele>
  <time>2026-09-02T22:12:57Z</time>
  <course>0.0</course>
  <speed>0.0</speed>
  <fix>3d</fix>
</trkpt>
<trkpt lat="33.810313" lon="-118.393867">
  <ele>-0.12</ele>
  <time>2026-09-02T22:12:57Z</time>
  <course>187.52</course>
  <speed>0.03605551275463989</speed>
  <fix>3d</fix>
</trkpt>
<trkpt lat="33.810313" lon="-118.393867">
  <ele>-0.12</ele>
  <time>2026-09-02T22:12:57Z</time>
  <course>0.0</course>
  <speed>0.0</speed>
  <fix>3d</fix>
</trkpt>
<trkpt lat="33.810313" lon="-118.393867">
  <ele>-0.121</ele>
  <time>2026-09-02T22:12:57Z</time>
  <course>187.51</course>
  <speed>0.03605551275463989</speed>
  <fix>3d</fix>
</trkpt>
<trkpt lat="33.810313" lon="-118.393867">
  <ele>-0.12</ele>
  <time>2026-09-02T22:12:57Z</time>
  <course>0.0</course>
  <speed>0.0</speed>
  <fix>3d</fix>
</trkpt>
<trkpt lat="33.810313" lon="-118.393867">
  <ele>-0.121</ele>
  <time>2026-09-02T22:12:57Z</time>
  <course>187.51</course>
  <speed>0.03605551275463989</speed>
  <fix>3d</fix>
</trkpt>
<trkpt lat="33.810313" lon="-118.393867">
  <ele>-0.12</ele>
  <time>2026-09-02T22:12:57Z</time>
  <course>0.0</course>
  <speed>0.0</speed>
  <fix>3d</fix>
</trkpt>
<trkpt lat="33.810313" lon="-118.393867">
  <ele>-0.121</ele>
  <time>2026-09-02T22:12:57Z</time>
  <course>187.5</course>
  <speed>0.03605551275463989</speed>
  <fix>3d</fix>
</trkpt>
<trkpt lat="33.810313" lon="-118.393867">
  <ele>-0.12</ele>
  <time>2026-09-02T22:12:57Z</time>
  <course>0.0</course>
  <speed>0.0</speed>
  <fix>3d</fix>
</trkpt>
<trkpt lat="33.810313" lon="-118.393867">
  <ele>-0.121</ele>
  <time>2026-09-02T22:12:57Z</time>
  <course>187.49</course>
  <speed>0.03605551275463989</speed>
  <fix>3d</fix>
</trkpt>
<trkpt lat="33.810313" lon="-118.393867">
  <ele>-0.12</ele>
  <time>2026-09-02T22:12:57Z</time>
  <course>0.0</course>
  <speed>0.0</speed>
  <fix>3d</fix>
</trkpt>
<trkpt lat="33.810313" lon="-118.393867">
  <ele>-0.121</ele>
  <time>2026-09-02T22:12:57Z</time>
  <course>187.49</course>
  <speed>0.03605551275463989</speed>
  <fix>3d</fix>
</trkpt>
<trkpt lat="33.810313" lon="-118.393867">
  <ele>-0.12</ele>
  <time>2026-09-02T22:12:57Z</time>
  <course>0.0</course>
  <speed>0.0</speed>
  <fix>3d</fix>
</trkpt>
<trkpt lat="33.810313" lon="-118.393867">
  <ele>-0.121</ele>
  <time>2026-09-02T22:12:57Z</time>
  <course>187.48</course>
  <speed>0.03605551275463989</speed>
  <fix>3d</fix>
</trkpt>
<trkpt lat="33.810313" lon="-118.393867">
  <ele>-0.12</ele>
  <time>2026-09-02T22:12:57Z</time>
  <course>0.0</course>
  <speed>0.0</speed>
  <fix>3d</fix>
</trkpt>
<trkpt lat="33.810313" lon="-118.393867">
  <ele>-0.122</ele>
  <time>2026-09-02T22:12:57Z</time>
  <course>187.47</course>
  <speed>0.03605551275463989</speed>
  <fix>3d</fix>
</trkpt>
<trkpt lat="33.810313" lon="-118.393867">
  <ele>-0.12</ele>
  <time>2026-09-02T22:12:57Z</time>
  <course>0.0</course>
  <speed>0.0</speed>
  <fix>3d</fix>
</trkpt>
<trkpt lat="33.810313" lon="-118.393867">
  <ele>-0.124</ele>
  <time>2026-09-02T22:12:57Z</time>
  <course>187.47</course>
  <speed>0.03605551275463989</speed>
  <fix>3d</fix>
</trkpt>
<trkpt lat="33.810313" lon="-118.393867">
  <ele>-0.12</ele>
  <time>2026-09-02T22:12:57Z</time>
  <course>0.0</course>
  <speed>0.0</speed>
  <fix>3d</fix>
</trkpt>
<trkpt lat="33.810313" lon="-118.393867">
  <ele>-0.127</ele>
  <time>2026-09-02T22:12:57Z</time>
  <course>187.46</course>
  <speed>0.03605551275463989</speed>
  <fix>3d</fix>
</trkpt>
<trkpt lat="33.810313" lon="-118.393867">
  <ele>-0.12</ele>
  <time>2026-09-02T22:12:57Z</time>
  <course>0.0</course>
  <speed>0.0</speed>
  <fix>3d</fix>
</trkpt>
<trkpt lat="33.810313" lon="-118.393867">
  <ele>-0.129</ele>
  <time>2026-09-02T22:12:57Z</time>
  <course>187.45</course>
  <speed>0.03605551275463989</speed>
  <fix>3d</fix>
</trkpt>
<trkpt lat="33.810313" lon="-118.393867">
  <ele>-0.12</ele>
  <time>2026-09-02T22:12:57Z</time>
  <course>0.0</course>
  <speed>0.0</speed>
  <fix>3d</fix>
</trkpt>
<trkpt lat="33.810313" lon="-118.393867">
  <ele>-0.131</ele>
  <time>2026-09-02T22:12:57Z</time>
  <course>187.45</course>
  <speed>0.03605551275463989</speed>
  <fix>3d</fix>
</trkpt>
<trkpt lat="33.810313" lon="-118.393867">
  <ele>-0.12</ele>
  <time>2026-09-02T22:12:57Z</time>
  <course>0.0</course>
  <speed>0.0</speed>
  <fix>3d</fix>
</trkpt>
<trkpt lat="33.810313" lon="-118.393867">
  <ele>-0.132</ele>
  <time>2026-09-02T22:12:57Z</time>
  <course>187.44</course>
  <speed>0.03605551275463989</speed>
  <fix>3d</fix>
</trkpt>
<trkpt lat="33.810313" lon="-118.393867">
  <ele>-0.12</ele>
  <time>2026-09-02T22:12:57Z</time>
  <course>0.0</course>
  <speed>0.0</speed>
  <fix>3d</fix>
</trkpt>
<trkpt lat="33.810313" lon="-118.393867">
  <ele>-0.132</ele>
  <time>2026-09-02T22:12:57Z</time>
  <course>187.44</course>
  <speed>0.03605551275463989</speed>
  <fix>3d</fix>
</trkpt>
<trkpt lat="33.810313" lon="-118.393867">
  <ele>-0.12</ele>
  <time>2026-09-02T22:12:57Z</time>
  <course>0.0</course>
  <speed>0.0</speed>
  <fix>3d</fix>
</trkpt>
<trkpt lat="33.810313" lon="-118.393867">
  <ele>-0.132</ele>
  <time>2026-09-02T22:12:57Z</time>
  <course>187.43</course>
  <speed>0.03605551275463989</speed>
  <fix>3d</fix>
</trkpt>
<trkpt lat="33.810313" lon="-118.393867">
  <ele>-0.12</ele>
  <time>2026-09-02T22:12:57Z</time>
  <course>0.0</course>
  <speed>0.0</speed>
  <fix>3d</fix>
</trkpt>
<trkpt lat="33.810313" lon="-118.393867">
  <ele>-0.132</ele>
  <time>2026-09-02T22:12:57Z</time>
  <course>187.42</course>
  <speed>0.03605551275463989</speed>
  <fix>3d</fix>
</trkpt>
<trkpt lat="33.810313" lon="-118.393867">
  <ele>-0.12</ele>
  <time>2026-09-02T22:12:57Z</time>
  <course>0.0</course>
  <speed>0.0</speed>
  <fix>3d</fix>
</trkpt>
<trkpt lat="33.810313" lon="-118.393867">
  <ele>-0.131</ele>
  <time>2026-09-02T22:12:57Z</time>
  <course>187.42</course>
  <speed>0.03605551275463989</speed>
  <fix>3d</fix>
</trkpt>
<trkpt lat="33.810313" lon="-118.393867">
  <ele>-0.12</ele>
  <time>2026-09-02T22:12:57Z</time>
  <course>0.0</course>
  <speed>0.0</speed>
  <fix>3d</fix>
</trkpt>
<trkpt lat="33.810313" lon="-118.393867">
  <ele>-0.131</ele>
  <time>2026-09-02T22:12:57Z</time>
  <course>187.41</course>
  <speed>0.03605551275463989</speed>
  <fix>3d</fix>
</trkpt>
<trkpt lat="33.810313" lon="-118.393867">
  <ele>-0.12</ele>
  <time>2026-09-02T22:12:57Z</time>
  <course>0.0</course>
  <speed>0.0</speed>
  <fix>3d</fix>
</trkpt>
<trkpt lat="33.810313" lon="-118.393867">
  <ele>-0.132</ele>
  <time>2026-09-02T22:12:57Z</time>
  <course>187.41</course>
  <speed>0.03605551275463989</speed>
  <fix>3d</fix>
</trkpt>
<trkpt lat="33.810313" lon="-118.393867">
  <ele>-0.12</ele>
  <time>2026-09-02T22:12:57Z</time>
  <course>0.0</course>
  <speed>0.0</speed>
  <fix>3d</fix>
</trkpt>
<trkpt lat="33.810313" lon="-118.393867">
  <ele>-0.134</ele>
  <time>2026-09-02T22:12:57Z</time>
  <course>187.4</course>
  <speed>0.03605551275463989</speed>
  <fix>3d</fix>
</trkpt>
<trkpt lat="33.810313" lon="-118.393867">
  <ele>-0.12</ele>
  <time>2026-09-02T22:12:57Z</time>
  <course>0.0</course>
  <speed>0.0</speed>
  <fix>3d</fix>
</trkpt>
<trkpt lat="33.810313" lon="-118.393867">
  <ele>-0.137</ele>
  <time>2026-09-02T22:12:57Z</time>
  <course>187.39</course>
  <speed>0.03605551275463989</speed>
  <fix>3d</fix>
</trkpt>
<trkpt lat="33.810313" lon="-118.393867">
  <ele>-0.12</ele>
  <time>2026-09-02T22:12:57Z</time>
  <course>0.0</course>
  <speed>0.0</speed>
  <fix>3d</fix>
</trkpt>
<trkpt lat="33.810313" lon="-118.393867">
  <ele>-0.139</ele>
  <time>2026-09-02T22:12:57Z</time>
  <course>187.39</course>
  <speed>0.03605551275463989</speed>
  <fix>3d</fix>
</trkpt>
<trkpt lat="33.810313" lon="-118.393867">
  <ele>-0.12</ele>
  <time>2026-09-02T22:12:57Z</time>
  <course>0.0</course>
  <speed>0.0</speed>
  <fix>3d</fix>
</trkpt>
<trkpt lat="33.810313" lon="-118.393867">
  <ele>-0.141</ele>
  <time>2026-09-02T22:12:57Z</time>
  <course>187.38</course>
  <speed>0.03605551275463989</speed>
  <fix>3d</fix>
</trkpt>
<trkpt lat="33.810313" lon="-118.393867">
  <ele>-0.12</ele>
  <time>2026-09-02T22:12:57Z</time>
  <course>0.0</course>
  <speed>0.0</speed>
  <fix>3d</fix>
</trkpt>
<trkpt lat="33.810313" lon="-118.393867">
  <ele>-0.141</ele>
  <time>2026-09-02T22:12:57Z</time>
  <course>187.38</course>
  <speed>0.03605551275463989</speed>
  <fix>3d</fix>
</trkpt>
<trkpt lat="33.810313" lon="-118.393867">
  <ele>-0.12</ele>
  <time>2026-09-02T22:12:57Z</time>
  <course>0.0</course>
  <speed>0.0</speed>
  <fix>3d</fix>
</trkpt>
<trkpt lat="33.810313" lon="-118.393867">
  <ele>-0.139</ele>
  <time>2026-09-02T22:12:57Z</time>
  <course>187.37</course>
  <speed>0.03605551275463989</speed>
  <fix>3d</fix>
</trkpt>
<trkpt lat="33.810313" lon="-118.393867">
  <ele>-0.12</ele>
  <time>2026-09-02T22:12:57Z</time>
  <course>0.0</course>
  <speed>0.0</speed>
  <fix>3d</fix>
</trkpt>
<trkpt lat="33.810313" lon="-118.393867">
  <ele>-0.136</ele>
  <time>2026-09-02T22:12:57Z</time>
  <course>187.36</course>
  <speed>0.03605551275463989</speed>
  <fix>3d</fix>
</trkpt>
<trkpt lat="33.810313" lon="-118.393867">
  <ele>-0.12</ele>
  <time>2026-09-02T22:12:57Z</time>
  <course>0.0</course>
  <speed>0.0</speed>
  <fix>3d</fix>
</trkpt>
<trkpt lat="33.810313" lon="-118.393867">
  <ele>-0.132</ele>
  <time>2026-09-02T22:12:57Z</time>
  <course>187.36</course>
  <speed>0.03605551275463989</speed>
  <fix>3d</fix>
</trkpt>
<trkpt lat="33.810313" lon="-118.393867">
  <ele>-0.12</ele>
  <time>2026-09-02T22:12:57Z</time>
  <course>0.0</course>
  <speed>0.0</speed>
  <fix>3d</fix>
</trkpt>
<trkpt lat="33.810313" lon="-118.393867">
  <ele>-0.129</ele>
  <time>2026-09-02T22:12:57Z</time>
  <course>187.35</course>
  <speed>0.03605551275463989</speed>
  <fix>3d</fix>
</trkpt>
<trkpt lat="33.810313" lon="-118.393867">
  <ele>-0.12</ele>
  <time>2026-09-02T22:12:57Z</time>
  <course>0.0</course>
  <speed>0.0</speed>
  <fix>3d</fix>
</trkpt>
<trkpt lat="33.810313" lon="-118.393867">
  <ele>-0.127</ele>
  <time>2026-09-02T22:12:57Z</time>
  <course>187.35</course>
  <speed>0.03605551275463989</speed>
  <fix>3d</fix>
</trkpt>
<trkpt lat="33.810313" lon="-118.393867">
  <ele>-0.12</ele>
  <time>2026-09-02T22:12:57Z</time>
  <course>0.0</course>
  <speed>0.0</speed>
  <fix>3d</fix>
</trkpt>
<trkpt lat="33.810313" lon="-118.393867">
  <ele>-0.126</ele>
  <time>2026-09-02T22:12:57Z</time>
  <course>187.34</course>
  <speed>0.03605551275463989</speed>
  <fix>3d</fix>
</trkpt>
<trkpt lat="33.810313" lon="-118.393867">
  <ele>-0.12</ele>
  <time>2026-09-02T22:12:57Z</time>
  <course>0.0</course>
  <speed>0.0</speed>
  <fix>3d</fix>
</trkpt>
<trkpt lat="33.810313" lon="-118.393867">
  <ele>-0.126</ele>
  <time>2026-09-02T22:12:57Z</time>
  <course>187.33</course>
  <speed>0.03605551275463989</speed>
  <fix>3d</fix>
</trkpt>
<trkpt lat="33.810313" lon="-118.393867">
  <ele>-0.12</ele>
  <time>2026-09-02T22:12:57Z</time>
  <course>0.0</course>
  <speed>0.0</speed>
  <fix>3d</fix>
</trkpt>
<trkpt lat="33.810313" lon="-118.393867">
  <ele>-0.127</ele>
  <time>2026-09-02T22:12:57Z</time>
  <course>187.33</course>
  <speed>0.03605551275463989</speed>
  <fix>3d</fix>
</trkpt>
<trkpt lat="33.810313" lon="-118.393867">
  <ele>-0.12</ele>
  <time>2026-09-02T22:12:57Z</time>
  <course>0.0</course>
  <speed>0.0</speed>
  <fix>3d</fix>
</trkpt>
<trkpt lat="33.810313" lon="-118.393867">
  <ele>-0.126</ele>
  <time>2026-09-02T22:12:57Z</time>
  <course>187.32</course>
  <speed>0.03605551275463989</speed>
  <fix>3d</fix>
</trkpt>
<trkpt lat="33.810313" lon="-118.393867">
  <ele>-0.12</ele>
  <time>2026-09-02T22:12:57Z</time>
  <course>0.0</course>
  <speed>0.0</speed>
  <fix>3d</fix>
</trkpt>
<trkpt lat="33.810313" lon="-118.393867">
  <ele>-0.126</ele>
  <time>2026-09-02T22:12:57Z</time>
  <course>187.32</course>
  <speed>0.03605551275463989</speed>
  <fix>3d</fix>
</trkpt>
<trkpt lat="33.810313" lon="-118.393867">
  <ele>-0.12</ele>
  <time>2026-09-02T22:12:57Z</time>
  <course>0.0</course>
  <speed>0.0</speed>
  <fix>3d</fix>
</trkpt>
<trkpt lat="33.810313" lon="-118.393867">
  <ele>-0.125</ele>
  <time>2026-09-02T22:12:57Z</time>
  <course>187.31</course>
  <speed>0.03605551275463989</speed>
  <fix>3d</fix>
</trkpt>
<trkpt lat="33.810313" lon="-118.393867">
  <ele>-0.12</ele>
  <time>2026-09-02T22:12:57Z</time>
  <course>0.0</course>
  <speed>0.0</speed>
  <fix>3d</fix>
</trkpt>
<trkpt lat="33.810313" lon="-118.393867">
  <ele>-0.124</ele>
  <time>2026-09-02T22:12:57Z</time>
  <course>187.31</course>
  <speed>0.03605551275463989</speed>
  <fix>3d</fix>
</trkpt>
<trkpt lat="33.810313" lon="-118.393867">
  <ele>-0.12</ele>
  <time>2026-09-02T22:12:57Z</time>
  <course>0.0</course>
  <speed>0.0</speed>
  <fix>3d</fix>
</trkpt>
<trkpt lat="33.810313" lon="-118.393867">
  <ele>-0.122</ele>
  <time>2026-09-02T22:12:57Z</time>
  <course>187.3</course>
  <speed>0.03605551275463989</speed>
  <fix>3d</fix>
</trkpt>
<trkpt lat="33.810313" lon="-118.393867">
  <ele>-0.12</ele>
  <time>2026-09-02T22:12:57Z</time>
  <course>0.0</course>
  <speed>0.0</speed>
  <fix>3d</fix>
</trkpt>
<trkpt lat="33.810313" lon="-118.393867">
  <ele>-0.121</ele>
  <time>2026-09-02T22:12:57Z</time>
  <course>187.29</course>
  <speed>0.03605551275463989</speed>
  <fix>3d</fix>
</trkpt>
<trkpt lat="33.810313" lon="-118.393867">
  <ele>-0.12</ele>
  <time>2026-09-02T22:12:57Z</time>
  <course>0.0</course>
  <speed>0.0</speed>
  <fix>3d</fix>
</trkpt>
<trkpt lat="33.810313" lon="-118.393867">
  <ele>-0.122</ele>
  <time>2026-09-02T22:12:57Z</time>
  <course>187.29</course>
  <speed>0.03605551275463989</speed>
  <fix>3d</fix>
</trkpt>
<trkpt lat="33.810313" lon="-118.393867">
  <ele>-0.12</ele>
  <time>2026-09-02T22:12:57Z</time>
  <course>0.0</course>
  <speed>0.0</speed>
  <fix>3d</fix>
</trkpt>
<trkpt lat="33.810313" lon="-118.393867">
  <ele>-0.124</ele>
  <time>2026-09-02T22:12:57Z</time>
  <course>187.28</course>
  <speed>0.03605551275463989</speed>
  <fix>3d</fix>
</trkpt>
<trkpt lat="33.810313" lon="-118.393867">
  <ele>-0.12</ele>
  <time>2026-09-02T22:12:57Z</time>
  <course>0.0</course>
  <speed>0.0</speed>
  <fix>3d</fix>
</trkpt>
<trkpt lat="33.810313" lon="-118.393867">
  <ele>-0.128</ele>
  <time>2026-09-02T22:12:57Z</time>
  <course>187.28</course>
  <speed>0.03605551275463989</speed>
  <fix>3d</fix>
</trkpt>
<trkpt lat="33.810313" lon="-118.393867">
  <ele>-0.12</ele>
  <time>2026-09-02T22:12:57Z</time>
  <course>0.0</course>
  <speed>0.0</speed>
  <fix>3d</fix>
</trkpt>
<trkpt lat="33.810313" lon="-118.393867">
  <ele>-0.13</ele>
  <time>2026-09-02T22:12:57Z</time>
  <course>187.27</course>
  <speed>0.03605551275463989</speed>
  <fix>3d</fix>
</trkpt>
<trkpt lat="33.810313" lon="-118.393867">
  <ele>-0.12</ele>
  <time>2026-09-02T22:12:57Z</time>
  <course>0.0</course>
  <speed>0.0</speed>
  <fix>3d</fix>
</trkpt>
<trkpt lat="33.810313" lon="-118.393867">
  <ele>-0.133</ele>
  <time>2026-09-02T22:12:57Z</time>
  <course>187.27</course>
  <speed>0.03605551275463989</speed>
  <fix>3d</fix>
</trkpt>
<trkpt lat="33.810313" lon="-118.393867">
  <ele>-0.12</ele>
  <time>2026-09-02T22:12:57Z</time>
  <course>0.0</course>
  <speed>0.0</speed>
  <fix>3d</fix>
</trkpt>
<trkpt lat="33.810313" lon="-118.393867">
  <ele>-0.135</ele>
  <time>2026-09-02T22:12:57Z</time>
  <course>187.26</course>
  <speed>0.03605551275463989</speed>
  <fix>3d</fix>
</trkpt>
<trkpt lat="33.810313" lon="-118.393867">
  <ele>-0.12</ele>
  <time>2026-09-02T22:12:57Z</time>
  <course>0.0</course>
  <speed>0.0</speed>
  <fix>3d</fix>
</trkpt>
<trkpt lat="33.810313" lon="-118.393867">
  <ele>-0.136</ele>
  <time>2026-09-02T22:12:57Z</time>
  <course>187.26</course>
  <speed>0.03605551275463989</speed>
  <fix>3d</fix>
</trkpt>
<trkpt lat="33.810313" lon="-118.393867">
  <ele>-0.12</ele>
  <time>2026-09-02T22:12:57Z</time>
  <course>0.0</course>
  <speed>0.0</speed>
  <fix>3d</fix>
</trkpt>
<trkpt lat="33.810313" lon="-118.393867">
  <ele>-0.136</ele>
  <time>2026-09-02T22:12:57Z</time>
  <course>187.25</course>
  <speed>0.03605551275463989</speed>
  <fix>3d</fix>
</trkpt>
<trkpt lat="33.810313" lon="-118.393867">
  <ele>-0.12</ele>
  <time>2026-09-02T22:12:57Z</time>
  <course>0.0</course>
  <speed>0.0</speed>
  <fix>3d</fix>
</trkpt>
<trkpt lat="33.810313" lon="-118.393867">
  <ele>-0.135</ele>
  <time>2026-09-02T22:12:57Z</time>
  <course>187.25</course>
  <speed>0.03605551275463989</speed>
  <fix>3d</fix>
</trkpt>
<trkpt lat="33.810313" lon="-118.393867">
  <ele>-0.12</ele>
  <time>2026-09-02T22:12:57Z</time>
  <course>0.0</course>
  <speed>0.0</speed>
  <fix>3d</fix>
</trkpt>
<trkpt lat="33.810313" lon="-118.393867">
  <ele>-0.134</ele>
  <time>2026-09-02T22:12:57Z</time>
  <course>187.24</course>
  <speed>0.03605551275463989</speed>
  <fix>3d</fix>
</trkpt>
<trkpt lat="33.810313" lon="-118.393867">
  <ele>-0.12</ele>
  <time>2026-09-02T22:12:57Z</time>
  <course>0.0</course>
  <speed>0.0</speed>
  <fix>3d</fix>
</trkpt>
<trkpt lat="33.810313" lon="-118.393867">
  <ele>-0.132</ele>
  <time>2026-09-02T22:12:57Z</time>
  <course>187.24</course>
  <speed>0.03605551275463989</speed>
  <fix>3d</fix>
</trkpt>
<trkpt lat="33.810313" lon="-118.393867">
  <ele>-0.12</ele>
  <time>2026-09-02T22:12:57Z</time>
  <course>0.0</course>
  <speed>0.0</speed>
  <fix>3d</fix>
</trkpt>
<trkpt lat="33.810313" lon="-118.393867">
  <ele>-0.131</ele>
  <time>2026-09-02T22:12:57Z</time>
  <course>187.23</course>
  <speed>0.03605551275463989</speed>
  <fix>3d</fix>
</trkpt>
<trkpt lat="33.810313" lon="-118.393867">
  <ele>-0.12</ele>
  <time>2026-09-02T22:12:57Z</time>
  <course>0.0</course>
  <speed>0.0</speed>
  <fix>3d</fix>
</trkpt>
<trkpt lat="33.810313" lon="-118.393867">
  <ele>-0.131</ele>
  <time>2026-09-02T22:12:57Z</time>
  <course>187.22</course>
  <speed>0.03605551275463989</speed>
  <fix>3d</fix>
</trkpt>
<trkpt lat="33.810313" lon="-118.393867">
  <ele>-0.12</ele>
  <time>2026-09-02T22:12:57Z</time>
  <course>0.0</course>
  <speed>0.0</speed>
  <fix>3d</fix>
</trkpt>
<trkpt lat="33.810313" lon="-118.393867">
  <ele>-0.132</ele>
  <time>2026-09-02T22:12:57Z</time>
  <course>187.22</course>
  <speed>0.03605551275463989</speed>
  <fix>3d</fix>
</trkpt>
<trkpt lat="33.810313" lon="-118.393867">
  <ele>-0.12</ele>
  <time>2026-09-02T22:12:57Z</time>
  <course>0.0</course>
  <speed>0.0</speed>
  <fix>3d</fix>
</trkpt>
<trkpt lat="33.810313" lon="-118.393867">
  <ele>-0.132</ele>
  <time>2026-09-02T22:12:57Z</time>
  <course>187.21</course>
  <speed>0.03605551275463989</speed>
  <fix>3d</fix>
</trkpt>
<trkpt lat="33.810313" lon="-118.393867">
  <ele>-0.12</ele>
  <time>2026-09-02T22:12:57Z</time>
  <course>0.0</course>
  <speed>0.0</speed>
  <fix>3d</fix>
</trkpt>
<trkpt lat="33.810313" lon="-118.393867">
  <ele>-0.133</ele>
  <time>2026-09-02T22:12:57Z</time>
  <course>187.21</course>
  <speed>0.03605551275463989</speed>
  <fix>3d</fix>
</trkpt>
<trkpt lat="33.810313" lon="-118.393867">
  <ele>-0.12</ele>
  <time>2026-09-02T22:12:57Z</time>
  <course>0.0</course>
  <speed>0.0</speed>
  <fix>3d</fix>
</trkpt>
<trkpt lat="33.810313" lon="-118.393867">
  <ele>-0.132</ele>
  <time>2026-09-02T22:12:57Z</time>
  <course>187.2</course>
  <speed>0.03605551275463989</speed>
  <fix>3d</fix>
</trkpt>
<trkpt lat="33.810313" lon="-118.393867">
  <ele>-0.12</ele>
  <time>2026-09-02T22:12:57Z</time>
  <course>0.0</course>
  <speed>0.0</speed>
  <fix>3d</fix>
</trkpt>
<trkpt lat="33.810313" lon="-118.393867">
  <ele>-0.131</ele>
  <time>2026-09-02T22:12:57Z</time>
  <course>187.2</course>
  <speed>0.03605551275463989</speed>
  <fix>3d</fix>
</trkpt>
<trkpt lat="33.810313" lon="-118.393867">
  <ele>-0.12</ele>
  <time>2026-09-02T22:12:57Z</time>
  <course>0.0</course>
  <speed>0.0</speed>
  <fix>3d</fix>
</trkpt>
<trkpt lat="33.810313" lon="-118.393867">
  <ele>-0.129</ele>
  <time>2026-09-02T22:12:57Z</time>
  <course>187.19</course>
  <speed>0.03605551275463989</speed>
  <fix>3d</fix>
</trkpt>
<trkpt lat="33.810313" lon="-118.393867">
  <ele>-0.12</ele>
  <time>2026-09-02T22:12:57Z</time>
  <course>0.0</course>
  <speed>0.0</speed>
  <fix>3d</fix>
</trkpt>
<trkpt lat="33.810313" lon="-118.393867">
  <ele>-0.126</ele>
  <time>2026-09-02T22:12:57Z</time>
  <course>187.19</course>
  <speed>0.03605551275463989</speed>
  <fix>3d</fix>
</trkpt>
<trkpt lat="33.810313" lon="-118.393867">
  <ele>-0.12</ele>
  <time>2026-09-02T22:12:57Z</time>
  <course>0.0</course>
  <speed>0.0</speed>
  <fix>3d</fix>
</trkpt>
<trkpt lat="33.810313" lon="-118.393867">
  <ele>-0.124</ele>
  <time>2026-09-02T22:12:57Z</time>
  <course>187.18</course>
  <speed>0.03605551275463989</speed>
  <fix>3d</fix>
</trkpt>
<trkpt lat="33.810313" lon="-118.393867">
  <ele>-0.12</ele>
  <time>2026-09-02T22:12:57Z</time>
  <course>0.0</course>
  <speed>0.0</speed>
  <fix>3d</fix>
</trkpt>
<trkpt lat="33.810313" lon="-118.393867">
  <ele>-0.123</ele>
  <time>2026-09-02T22:12:57Z</time>
  <course>187.18</course>
  <speed>0.03605551275463989</speed>
  <fix>3d</fix>
</trkpt>
<trkpt lat="33.810313" lon="-118.393867">
  <ele>-0.12</ele>
  <time>2026-09-02T22:12:57Z</time>
  <course>0.0</course>
  <speed>0.0</speed>
  <fix>3d</fix>
</trkpt>
<trkpt lat="33.810313" lon="-118.393867">
  <ele>-0.123</ele>
  <time>2026-09-02T22:12:57Z</time>
  <course>187.17</course>
  <speed>0.03605551275463989</speed>
  <fix>3d</fix>
</trkpt>
<trkpt lat="33.810313" lon="-118.393867">
  <ele>-0.12</ele>
  <time>2026-09-02T22:12:57Z</time>
  <course>0.0</course>
  <speed>0.0</speed>
  <fix>3d</fix>
</trkpt>
<trkpt lat="33.810313" lon="-118.393867">
  <ele>-0.122</ele>
  <time>2026-09-02T22:12:57Z</time>
  <course>187.17</course>
  <speed>0.0</speed>
  <fix>3d</fix>
</trkpt>
<trkpt lat="33.810313" lon="-118.393867">
  <ele>-0.12</ele>
  <time>2026-09-02T22:12:57Z</time>
  <course>0.0</course>
  <speed>0.0</speed>
  <fix>3d</fix>
</trkpt>
<trkpt lat="33.810313" lon="-118.393867">
  <ele>-0.121</ele>
  <time>2026-09-02T22:12:57Z</time>
  <course>187.16</course>
  <speed>0.0</speed>
  <fix>3d</fix>
</trkpt>
<trkpt lat="33.810313" lon="-118.393867">
  <ele>-0.12</ele>
  <time>2026-09-02T22:12:57Z</time>
  <course>0.0</course>
  <speed>0.0</speed>
  <fix>3d</fix>
</trkpt>
<trkpt lat="33.810313" lon="-118.393867">
  <ele>-0.12</ele>
  <time>2026-09-02T22:12:57Z</time>
  <course>187.16</course>
  <speed>0.0</speed>
  <fix>3d</fix>
</trkpt>
<trkpt lat="33.810313" lon="-118.393867">
  <ele>-0.12</ele>
  <time>2026-09-02T22:12:57Z</time>
  <course>0.0</course>
  <speed>0.0</speed>
  <fix>3d</fix>
</trkpt>
<trkpt lat="33.810313" lon="-118.393867">
  <ele>-0.119</ele>
  <time>2026-09-02T22:12:57Z</time>
  <course>187.15</course>
  <speed>0.0</speed>
  <fix>3d</fix>
</trkpt>
<trkpt lat="33.810313" lon="-118.393867">
  <ele>-0.12</ele>
  <time>2026-09-02T22:12:57Z</time>
  <course>0.0</course>
  <speed>0.0</speed>
  <fix>3d</fix>
</trkpt>
<trkpt lat="33.810313" lon="-118.393867">
  <ele>-0.116</ele>
  <time>2026-09-02T22:12:57Z</time>
  <course>187.15</course>
  <speed>0.0</speed>
  <fix>3d</fix>
</trkpt>
<trkpt lat="33.810313" lon="-118.393867">
  <ele>-0.12</ele>
  <time>2026-09-02T22:12:57Z</time>
  <course>0.0</course>
  <speed>0.0</speed>
  <fix>3d</fix>
</trkpt>
<trkpt lat="33.810313" lon="-118.393867">
  <ele>-0.114</ele>
  <time>2026-09-02T22:12:57Z</time>
  <course>187.14</course>
  <speed>0.0</speed>
  <fix>3d</fix>
</trkpt>
<trkpt lat="33.810313" lon="-118.393867">
  <ele>-0.12</ele>
  <time>2026-09-02T22:12:57Z</time>
  <course>0.0</course>
  <speed>0.0</speed>
  <fix>3d</fix>
</trkpt>
<trkpt lat="33.810313" lon="-118.393867">
  <ele>-0.113</ele>
  <time>2026-09-02T22:12:57Z</time>
  <course>187.14</course>
  <speed>0.0</speed>
  <fix>3d</fix>
</trkpt>
<trkpt lat="33.810313" lon="-118.393867">
  <ele>-0.12</ele>
  <time>2026-09-02T22:12:57Z</time>
  <course>0.0</course>
  <speed>0.0</speed>
  <fix>3d</fix>
</trkpt>
<trkpt lat="33.810313" lon="-118.393867">
  <ele>-0.112</ele>
  <time>2026-09-02T22:12:57Z</time>
  <course>187.13</course>
  <speed>0.0</speed>
  <fix>3d</fix>
</trkpt>
<trkpt lat="33.810313" lon="-118.393867">
  <ele>-0.12</ele>
  <time>2026-09-02T22:12:57Z</time>
  <course>0.0</course>
  <speed>0.0</speed>
  <fix>3d</fix>
</trkpt>
<trkpt lat="33.810313" lon="-118.393867">
  <ele>-0.113</ele>
  <time>2026-09-02T22:12:57Z</time>
  <course>187.13</course>
  <speed>0.0</speed>
  <fix>3d</fix>
</trkpt>
<trkpt lat="33.810313" lon="-118.393867">
  <ele>-0.12</ele>
  <time>2026-09-02T22:12:57Z</time>
  <course>0.0</course>
  <speed>0.0</speed>
  <fix>3d</fix>
</trkpt>
<trkpt lat="33.810313" lon="-118.393867">
  <ele>-0.114</ele>
  <time>2026-09-02T22:12:57Z</time>
  <course>187.12</course>
  <speed>0.0</speed>
  <fix>3d</fix>
</trkpt>
<trkpt lat="33.810313" lon="-118.393867">
  <ele>-0.12</ele>
  <time>2026-09-02T22:12:57Z</time>
  <course>0.0</course>
  <speed>0.0</speed>
  <fix>3d</fix>
</trkpt>
<trkpt lat="33.810313" lon="-118.393867">
  <ele>-0.117</ele>
  <time>2026-09-02T22:12:57Z</time>
  <course>187.12</course>
  <speed>0.0</speed>
  <fix>3d</fix>
</trkpt>
<trkpt lat="33.810313" lon="-118.393867">
  <ele>-0.12</ele>
  <time>2026-09-02T22:12:57Z</time>
  <course>0.0</course>
  <speed>0.0</speed>
  <fix>3d</fix>
</trkpt>
<trkpt lat="33.810313" lon="-118.393867">
  <ele>-0.119</ele>
  <time>2026-09-02T22:12:57Z</time>
  <course>187.11</course>
  <speed>0.01</speed>
  <fix>3d</fix>
</trkpt>
<trkpt lat="33.810313" lon="-118.393867">
  <ele>-0.12</ele>
  <time>2026-09-02T22:12:57Z</time>
  <course>0.0</course>
  <speed>0.0</speed>
  <fix>3d</fix>
</trkpt>
<trkpt lat="33.810313" lon="-118.393867">
  <ele>-0.12</ele>
  <time>2026-09-02T22:12:57Z</time>
  <course>187.11</course>
  <speed>0.01</speed>
  <fix>3d</fix>
</trkpt>
<trkpt lat="33.810313" lon="-118.393867">
  <ele>-0.12</ele>
  <time>2026-09-02T22:12:57Z</time>
  <course>0.0</course>
  <speed>0.0</speed>
  <fix>3d</fix>
</trkpt>
<trkpt lat="33.810313" lon="-118.393867">
  <ele>-0.12</ele>
  <time>2026-09-02T22:12:57Z</time>
  <course>187.11</course>
  <speed>0.01</speed>
  <fix>3d</fix>
</trkpt>
<trkpt lat="33.810313" lon="-118.393867">
  <ele>-0.121</ele>
  <time>2026-09-02T22:12:57Z</time>
  <course>187.1</course>
  <speed>0.01</speed>
  <fix>3d</fix>
</trkpt>
<trkpt lat="33.810313" lon="-118.393867">
  <ele>-0.12</ele>
  <time>2026-09-02T22:12:57Z</time>
  <course>0.0</course>
  <speed>0.0</speed>
  <fix>3d</fix>
</trkpt>
<trkpt lat="33.810313" lon="-118.393867">
  <ele>-0.122</ele>
  <time>2026-09-02T22:12:57Z</time>
  <course>187.1</course>
  <speed>0.01414213562373095</speed>
  <fix>3d</fix>
</trkpt>
<trkpt lat="33.810313" lon="-118.393867">
  <ele>-0.12</ele>
  <time>2026-09-02T22:12:57Z</time>
  <course>0.0</course>
  <speed>0.0</speed>
  <fix>3d</fix>
</trkpt>
<trkpt lat="33.810313" lon="-118.393867">
  <ele>-0.146</ele>
  <time>2026-09-02T22:12:57Z</time>
  <course>187.09</course>
  <speed>0.01414213562373095</speed>
  <fix>3d</fix>
</trkpt>
<trkpt lat="33.810313" lon="-118.393867">
  <ele>-0.12</ele>
  <time>2026-09-02T22:12:57Z</time>
  <course>0.0</course>
  <speed>0.0</speed>
  <fix>3d</fix>
</trkpt>
<trkpt lat="33.810313" lon="-118.393867">
  <ele>-0.202</ele>
  <time>2026-09-02T22:12:57Z</time>
  <course>187.09</course>
  <speed>0.01414213562373095</speed>
  <fix>3d</fix>
</trkpt>
<trkpt lat="33.810313" lon="-118.393867">
  <ele>-0.13</ele>
  <time>2026-09-02T22:12:57Z</time>
  <course>275.0</course>
  <speed>0.0</speed>
  <fix>3d</fix>
</trkpt>
<trkpt lat="33.810313" lon="-118.393867">
  <ele>-0.203</ele>
  <time>2026-09-02T22:12:57Z</time>
  <course>187.09</course>
  <speed>0.01414213562373095</speed>
  <fix>3d</fix>
</trkpt>
<trkpt lat="33.810313" lon="-118.393867">
  <ele>-0.276</ele>
  <time>2026-09-02T22:12:57Z</time>
  <course>187.08</course>
  <speed>0.01414213562373095</speed>
  <fix>3d</fix>
</trkpt>
<trkpt lat="33.810313" lon="-118.393867">
  <ele>-0.13</ele>
  <time>2026-09-02T22:12:57Z</time>
  <course>275.0</course>
  <speed>0.0</speed>
  <fix>3d</fix>
</trkpt>
<trkpt lat="33.810313" lon="-118.393867">
  <ele>-0.278</ele>
  <time>2026-09-02T22:12:57Z</time>
  <course>187.08</course>
  <speed>0.01414213562373095</speed>
  <fix>3d</fix>
</trkpt>
<trkpt lat="33.810313" lon="-118.393867">
  <ele>-0.36</ele>
  <time>2026-09-02T22:12:57Z</time>
  <course>187.08</course>
  <speed>0.01414213562373095</speed>
  <fix>3d</fix>
</trkpt>
<trkpt lat="33.810313" lon="-118.393867">
  <ele>-0.22</ele>
  <time>2026-09-02T22:12:57Z</time>
  <course>275.0</course>
  <speed>0.0</speed>
  <fix>3d</fix>
</trkpt>
<trkpt lat="33.810313" lon="-118.393867">
  <ele>-0.394</ele>
  <time>2026-09-02T22:12:57Z</time>
  <course>187.08</course>
  <speed>0.01414213562373095</speed>
  <fix>3d</fix>
</trkpt>
<trkpt lat="33.810313" lon="-118.393867">
  <ele>-0.449</ele>
  <time>2026-09-02T22:12:57Z</time>
  <course>187.07</course>
  <speed>0.01414213562373095</speed>
  <fix>3d</fix>
</trkpt>
<trkpt lat="33.810313" lon="-118.393867">
  <ele>-0.22</ele>
  <time>2026-09-02T22:12:57Z</time>
  <course>275.0</course>
  <speed>0.0</speed>
  <fix>3d</fix>
</trkpt>
<trkpt lat="33.810313" lon="-118.393867">
  <ele>-0.485</ele>
  <time>2026-09-02T22:12:57Z</time>
  <course>187.07</course>
  <speed>0.01414213562373095</speed>
  <fix>3d</fix>
</trkpt>
<trkpt lat="33.810313" lon="-118.393867">
  <ele>-0.542</ele>
  <time>2026-09-02T22:12:57Z</time>
  <course>187.07</course>
  <speed>0.01414213562373095</speed>
  <fix>3d</fix>
</trkpt>
<trkpt lat="33.810313" lon="-118.393867">
  <ele>-0.37</ele>
  <time>2026-09-02T22:12:57Z</time>
  <course>275.0</course>
  <speed>0.0</speed>
  <fix>3d</fix>
</trkpt>
<trkpt lat="33.810313" lon="-118.393867">
  <ele>-0.575</ele>
  <time>2026-09-02T22:12:57Z</time>
  <course>187.07</course>
  <speed>0.01414213562373095</speed>
  <fix>3d</fix>
</trkpt>
<trkpt lat="33.810313" lon="-118.393867">
  <ele>-0.637</ele>
  <time>2026-09-02T22:12:57Z</time>
  <course>187.06</course>
  <speed>0.01414213562373095</speed>
  <fix>3d</fix>
</trkpt>
<trkpt lat="33.810313" lon="-118.393867">
  <ele>-0.37</ele>
  <time>2026-09-02T22:12:57Z</time>
  <course>275.0</course>
  <speed>0.0</speed>
  <fix>3d</fix>
</trkpt>
<trkpt lat="33.810313" lon="-118.393867">
  <ele>-0.675</ele>
  <time>2026-09-02T22:12:57Z</time>
  <course>187.06</course>
  <speed>0.01414213562373095</speed>
  <fix>3d</fix>
</trkpt>
<trkpt lat="33.810313" lon="-118.393867">
  <ele>-0.733</ele>
  <time>2026-09-02T22:12:57Z</time>
  <course>187.06</course>
  <speed>0.01414213562373095</speed>
  <fix>3d</fix>
</trkpt>
<trkpt lat="33.810313" lon="-118.393867">
  <ele>-0.53</ele>
  <time>2026-09-02T22:12:57Z</time>
  <course>275.0</course>
  <speed>0.0</speed>
  <fix>3d</fix>
</trkpt>
<trkpt lat="33.810313" lon="-118.393867">
  <ele>-0.767</ele>
  <time>2026-09-02T22:12:57Z</time>
  <course>187.06</course>
  <speed>0.01414213562373095</speed>
  <fix>3d</fix>
</trkpt>
<trkpt lat="33.810313" lon="-118.393867">
  <ele>-0.829</ele>
  <time>2026-09-02T22:12:57Z</time>
  <course>184.85</course>
  <speed>0.01414213562373095</speed>
  <fix>3d</fix>
</trkpt>
<trkpt lat="33.810313" lon="-118.393867">
  <ele>-0.53</ele>
  <time>2026-09-02T22:12:57Z</time>
  <course>275.0</course>
  <speed>0.0</speed>
  <fix>3d</fix>
</trkpt>
<trkpt lat="33.810313" lon="-118.393867">
  <ele>-0.832</ele>
  <time>2026-09-02T22:12:57Z</time>
  <course>184.85</course>
  <speed>0.01414213562373095</speed>
  <fix>3d</fix>
</trkpt>
<trkpt lat="33.810313" lon="-118.393867">
  <ele>-0.926</ele>
  <time>2026-09-02T22:12:57Z</time>
  <course>184.84</course>
  <speed>0.01414213562373095</speed>
  <fix>3d</fix>
</trkpt>
<trkpt lat="33.810313" lon="-118.393867">
  <ele>-0.7</ele>
  <time>2026-09-02T22:12:57Z</time>
  <course>275.0</course>
  <speed>0.0</speed>
  <fix>3d</fix>
</trkpt>
<trkpt lat="33.810313" lon="-118.393867">
  <ele>-0.933</ele>
  <time>2026-09-02T22:12:57Z</time>
  <course>184.84</course>
  <speed>0.01414213562373095</speed>
  <fix>3d</fix>
</trkpt>
<trkpt lat="33.810313" lon="-118.393867">
  <ele>-1.022</ele>
  <time>2026-09-02T22:12:57Z</time>
  <course>184.85</course>
  <speed>0.01414213562373095</speed>
  <fix>3d</fix>
</trkpt>
<trkpt lat="33.810313" lon="-118.393867">
  <ele>-0.7</ele>
  <time>2026-09-02T22:12:57Z</time>
  <course>275.0</course>
  <speed>0.0</speed>
  <fix>3d</fix>
</trkpt>
<trkpt lat="33.810313" lon="-118.393867">
  <ele>-1.058</ele>
  <time>2026-09-02T22:12:57Z</time>
  <course>184.86</course>
  <speed>0.01414213562373095</speed>
  <fix>3d</fix>
</trkpt>
<trkpt lat="33.810313" lon="-118.393867">
  <ele>-1.116</ele>
  <time>2026-09-02T22:12:57Z</time>
  <course>184.86</course>
  <speed>0.01414213562373095</speed>
  <fix>3d</fix>
</trkpt>
<trkpt lat="33.810313" lon="-118.393867">
  <ele>-0.88</ele>
  <time>2026-09-02T22:12:57Z</time>
  <course>275.0</course>
  <speed>0.0</speed>
  <fix>3d</fix>
</trkpt>
<trkpt lat="33.810313" lon="-118.393867">
  <ele>-1.149</ele>
  <time>2026-09-02T22:12:57Z</time>
  <course>184.87</course>
  <speed>0.01414213562373095</speed>
  <fix>3d</fix>
</trkpt>
<trkpt lat="33.810313" lon="-118.393867">
  <ele>-1.211</ele>
  <time>2026-09-02T22:12:57Z</time>
  <course>184.87</course>
  <speed>0.01414213562373095</speed>
  <fix>3d</fix>
</trkpt>
<trkpt lat="33.810313" lon="-118.393867">
  <ele>-0.88</ele>
  <time>2026-09-02T22:12:57Z</time>
  <course>275.0</course>
  <speed>0.0</speed>
  <fix>3d</fix>
</trkpt>
<trkpt lat="33.810313" lon="-118.393867">
  <ele>-1.215</ele>
  <time>2026-09-02T22:12:57Z</time>
  <course>184.88</course>
  <speed>0.01414213562373095</speed>
  <fix>3d</fix>
</trkpt>
<trkpt lat="33.810313" lon="-118.393867">
  <ele>-1.306</ele>
  <time>2026-09-02T22:12:57Z</time>
  <course>184.89</course>
  <speed>0.01414213562373095</speed>
  <fix>3d</fix>
</trkpt>
<trkpt lat="33.810313" lon="-118.393867">
  <ele>-1.06</ele>
  <time>2026-09-02T22:12:57Z</time>
  <course>275.0</course>
  <speed>0.0</speed>
  <fix>3d</fix>
</trkpt>
<trkpt lat="33.810313" lon="-118.393867">
  <ele>-1.334</ele>
  <time>2026-09-02T22:12:57Z</time>
  <course>184.89</course>
  <speed>0.01414213562373095</speed>
  <fix>3d</fix>
</trkpt>
<trkpt lat="33.810313" lon="-118.393867">
  <ele>-1.402</ele>
  <time>2026-09-02T22:12:57Z</time>
  <course>184.9</course>
  <speed>0.01414213562373095</speed>
  <fix>3d</fix>
</trkpt>
<trkpt lat="33.810313" lon="-118.393867">
  <ele>-1.06</ele>
  <time>2026-09-02T22:12:57Z</time>
  <course>275.0</course>
  <speed>0.0</speed>
  <fix>3d</fix>
</trkpt>
<trkpt lat="33.810313" lon="-118.393867">
  <ele>-1.436</ele>
  <time>2026-09-02T22:12:57Z</time>
  <course>184.9</course>
  <speed>0.01414213562373095</speed>
  <fix>3d</fix>
</trkpt>
<trkpt lat="33.810313" lon="-118.393867">
  <ele>-1.498</ele>
  <time>2026-09-02T22:12:57Z</time>
  <course>184.91</course>
  <speed>0.01414213562373095</speed>
  <fix>3d</fix>
</trkpt>
<trkpt lat="33.810313" lon="-118.393867">
  <ele>-1.24</ele>
  <time>2026-09-02T22:12:57Z</time>
  <course>275.0</course>
  <speed>0.0</speed>
  <fix>3d</fix>
</trkpt>
<trkpt lat="33.810313" lon="-118.393867">
  <ele>-1.531</ele>
  <time>2026-09-02T22:12:57Z</time>
  <course>184.91</course>
  <speed>0.01414213562373095</speed>
  <fix>3d</fix>
</trkpt>
<trkpt lat="33.810313" lon="-118.393867">
  <ele>-1.595</ele>
  <time>2026-09-02T22:12:57Z</time>
  <course>184.92</course>
  <speed>0.01414213562373095</speed>
  <fix>3d</fix>
</trkpt>
<trkpt lat="33.810313" lon="-118.393867">
  <ele>-1.24</ele>
  <time>2026-09-02T22:12:57Z</time>
  <course>275.0</course>
  <speed>0.0</speed>
  <fix>3d</fix>
</trkpt>
<trkpt lat="33.810313" lon="-118.393867">
  <ele>-1.629</ele>
  <time>2026-09-02T22:12:57Z</time>
  <course>184.92</course>
  <speed>0.01</speed>
  <fix>3d</fix>
</trkpt>
<trkpt lat="33.810313" lon="-118.393867">
  <ele>-1.694</ele>
  <time>2026-09-02T22:12:57Z</time>
  <course>184.93</course>
  <speed>0.01</speed>
  <fix>3d</fix>
</trkpt>
<trkpt lat="33.810313" lon="-118.393867">
  <ele>-1.42</ele>
  <time>2026-09-02T22:12:57Z</time>
  <course>275.0</course>
  <speed>0.0</speed>
  <fix>3d</fix>
</trkpt>
<trkpt lat="33.810313" lon="-118.393867">
  <ele>-1.724</ele>
  <time>2026-09-02T22:12:57Z</time>
  <course>184.94</course>
  <speed>0.01</speed>
  <fix>3d</fix>
</trkpt>
<trkpt lat="33.810313" lon="-118.393867">
  <ele>-1.793</ele>
  <time>2026-09-02T22:12:57Z</time>
  <course>184.94</course>
  <speed>0.01</speed>
  <fix>3d</fix>
</trkpt>
<trkpt lat="33.810313" lon="-118.393867">
  <ele>-1.42</ele>
  <time>2026-09-02T22:12:57Z</time>
  <course>275.0</course>
  <speed>0.0</speed>
  <fix>3d</fix>
</trkpt>
<trkpt lat="33.810313" lon="-118.393867">
  <ele>-1.823</ele>
  <time>2026-09-02T22:12:57Z</time>
  <course>184.95</course>
  <speed>0.01</speed>
  <fix>3d</fix>
</trkpt>
<trkpt lat="33.810313" lon="-118.393867">
  <ele>-1.892</ele>
  <time>2026-09-02T22:12:57Z</time>
  <course>184.95</course>
  <speed>0.01</speed>
  <fix>3d</fix>
</trkpt>
<trkpt lat="33.810313" lon="-118.393867">
  <ele>-1.61</ele>
  <time>2026-09-02T22:12:57Z</time>
  <course>275.0</course>
  <speed>0.0</speed>
  <fix>3d</fix>
</trkpt>
<trkpt lat="33.810313" lon="-118.393867">
  <ele>-1.923</ele>
  <time>2026-09-02T22:12:57Z</time>
  <course>184.96</course>
  <speed>0.01</speed>
  <fix>3d</fix>
</trkpt>
<trkpt lat="33.810313" lon="-118.393867">
  <ele>-1.99</ele>
  <time>2026-09-02T22:12:57Z</time>
  <course>184.96</course>
  <speed>0.01</speed>
  <fix>3d</fix>
</trkpt>
<trkpt lat="33.810313" lon="-118.393867">
  <ele>-1.61</ele>
  <time>2026-09-02T22:12:57Z</time>
  <course>275.0</course>
  <speed>0.0</speed>
  <fix>3d</fix>
</trkpt>
<trkpt lat="33.810313" lon="-118.393867">
  <ele>-2.025</ele>
  <time>2026-09-02T22:12:57Z</time>
  <course>184.97</course>
  <speed>0.0</speed>
  <fix>3d</fix>
</trkpt>
<trkpt lat="33.810313" lon="-118.393867">
  <ele>-2.089</ele>
  <time>2026-09-02T22:12:57Z</time>
  <course>184.98</course>
  <speed>0.0</speed>
  <fix>3d</fix>
</trkpt>
<trkpt lat="33.810313" lon="-118.393867">
  <ele>-1.8</ele>
  <time>2026-09-02T22:12:57Z</time>
  <course>275.0</course>
  <speed>0.0</speed>
  <fix>3d</fix>
</trkpt>
<trkpt lat="33.810313" lon="-118.393867">
  <ele>-2.118</ele>
  <time>2026-09-02T22:12:57Z</time>
  <course>184.98</course>
  <speed>0.0</speed>
  <fix>3d</fix>
</trkpt>
<trkpt lat="33.810313" lon="-118.393867">
  <ele>-2.186</ele>
  <time>2026-09-02T22:12:57Z</time>
  <course>184.99</course>
  <speed>0.0</speed>
  <fix>3d</fix>
</trkpt>
<trkpt lat="33.810313" lon="-118.393867">
  <ele>-1.8</ele>
  <time>2026-09-02T22:12:57Z</time>
  <course>275.0</course>
  <speed>0.0</speed>
  <fix>3d</fix>
</trkpt>
<trkpt lat="33.810313" lon="-118.393867">
  <ele>-2.228</ele>
  <time>2026-09-02T22:12:57Z</time>
  <course>184.99</course>
  <speed>0.0</speed>
  <fix>3d</fix>
</trkpt>
<trkpt lat="33.810313" lon="-118.393867">
  <ele>-2.284</ele>
  <time>2026-09-02T22:12:57Z</time>
  <course>185.0</course>
  <speed>0.0</speed>
  <fix>3d</fix>
</trkpt>
<trkpt lat="33.810313" lon="-118.393867">
  <ele>-2.0</ele>
  <time>2026-09-02T22:12:57Z</time>
  <course>275.0</course>
  <speed>0.0</speed>
  <fix>3d</fix>
</trkpt>
<trkpt lat="33.810313" lon="-118.393867">
  <ele>-2.286</ele>
  <time>2026-09-02T22:12:57Z</time>
  <course>185.0</course>
  <speed>0.0</speed>
  <fix>3d</fix>
</trkpt>
<trkpt lat="33.810313" lon="-118.393867">
  <ele>-2.382</ele>
  <time>2026-09-02T22:12:57Z</time>
  <course>185.01</course>
  <speed>0.0</speed>
  <fix>3d</fix>
</trkpt>
<trkpt lat="33.810313" lon="-118.393867">
  <ele>-2.0</ele>
  <time>2026-09-02T22:12:57Z</time>
  <course>275.0</course>
  <speed>0.0</speed>
  <fix>3d</fix>
</trkpt>
<trkpt lat="33.810313" lon="-118.393867">
  <ele>-2.416</ele>
  <time>2026-09-02T22:12:57Z</time>
  <course>185.01</course>
  <speed>0.0</speed>
  <fix>3d</fix>
</trkpt>
<trkpt lat="33.810313" lon="-118.393867">
  <ele>-2.48</ele>
  <time>2026-09-02T22:12:57Z</time>
  <course>185.02</course>
  <speed>0.0</speed>
  <fix>3d</fix>
</trkpt>
<trkpt lat="33.810313" lon="-118.393867">
  <ele>-2.19</ele>
  <time>2026-09-02T22:12:57Z</time>
  <course>275.0</course>
  <speed>0.0</speed>
  <fix>3d</fix>
</trkpt>
<trkpt lat="33.810313" lon="-118.393867">
  <ele>-2.485</ele>
  <time>2026-09-02T22:12:57Z</time>
  <course>185.02</course>
  <speed>0.0</speed>
  <fix>3d</fix>
</trkpt>
<trkpt lat="33.810313" lon="-118.393867">
  <ele>-2.579</ele>
  <time>2026-09-02T22:12:57Z</time>
  <course>185.03</course>
  <speed>0.0</speed>
  <fix>3d</fix>
</trkpt>
<trkpt lat="33.810313" lon="-118.393867">
  <ele>-2.19</ele>
  <time>2026-09-02T22:12:57Z</time>
  <course>275.0</course>
  <speed>0.0</speed>
  <fix>3d</fix>
</trkpt>
<trkpt lat="33.810313" lon="-118.393867">
  <ele>-2.614</ele>
  <time>2026-09-02T22:12:57Z</time>
  <course>185.03</course>
  <speed>0.0</speed>
  <fix>3d</fix>
</trkpt>
<trkpt lat="33.810313" lon="-118.393867">
  <ele>-2.678</ele>
  <time>2026-09-02T22:12:57Z</time>
  <course>185.04</course>
  <speed>0.0</speed>
  <fix>3d</fix>
</trkpt>
<trkpt lat="33.810313" lon="-118.393867">
  <ele>-2.38</ele>
  <time>2026-09-02T22:12:57Z</time>
  <course>275.0</course>
  <speed>0.0</speed>
  <fix>3d</fix>
</trkpt>
<trkpt lat="33.810313" lon="-118.393867">
  <ele>-2.708</ele>
  <time>2026-09-02T22:12:57Z</time>
  <course>185.04</course>
  <speed>0.0</speed>
  <fix>3d</fix>
</trkpt>
<trkpt lat="33.810313" lon="-118.393867">
  <ele>-2.776</ele>
  <time>2026-09-02T22:12:57Z</time>
  <course>185.05</course>
  <speed>0.0</speed>
  <fix>3d</fix>
</trkpt>
<trkpt lat="33.810313" lon="-118.393867">
  <ele>-2.38</ele>
  <time>2026-09-02T22:12:57Z</time>
  <course>275.0</course>
  <speed>0.0</speed>
  <fix>3d</fix>
</trkpt>
<trkpt lat="33.810313" lon="-118.393867">
  <ele>-2.81</ele>
  <time>2026-09-02T22:12:57Z</time>
  <course>185.06</course>
  <speed>0.0</speed>
  <fix>3d</fix>
</trkpt>
<trkpt lat="33.810313" lon="-118.393867">
  <ele>-2.872</ele>
  <time>2026-09-02T22:12:57Z</time>
  <course>185.06</course>
  <speed>0.0</speed>
  <fix>3d</fix>
</trkpt>
<trkpt lat="33.810313" lon="-118.393867">
  <ele>-2.57</ele>
  <time>2026-09-02T22:12:57Z</time>
  <course>275.0</course>
  <speed>0.0</speed>
  <fix>3d</fix>
</trkpt>
<trkpt lat="33.810313" lon="-118.393867">
  <ele>-2.901</ele>
  <time>2026-09-02T22:12:57Z</time>
  <course>185.07</course>
  <speed>0.0</speed>
  <fix>3d</fix>
</trkpt>
<trkpt lat="33.810313" lon="-118.393867">
  <ele>-2.969</ele>
  <time>2026-09-02T22:12:57Z</time>
  <course>185.07</course>
  <speed>0.0</speed>
  <fix>3d</fix>
</trkpt>
<trkpt lat="33.810313" lon="-118.393867">
  <ele>-2.57</ele>
  <time>2026-09-02T22:12:57Z</time>
  <course>275.0</course>
  <speed>0.0</speed>
  <fix>3d</fix>
</trkpt>
<trkpt lat="33.810313" lon="-118.393867">
  <ele>-2.999</ele>
  <time>2026-09-02T22:12:57Z</time>
  <course>185.08</course>
  <speed>0.0</speed>
  <fix>3d</fix>
</trkpt>
<trkpt lat="33.810313" lon="-118.393867">
  <ele>-3.068</ele>
  <time>2026-09-02T22:12:57Z</time>
  <course>185.08</course>
  <speed>0.0</speed>
  <fix>3d</fix>
</trkpt>
<trkpt lat="33.810313" lon="-118.393867">
  <ele>-2.76</ele>
  <time>2026-09-02T22:12:57Z</time>
  <course>275.0</course>
  <speed>0.0</speed>
  <fix>3d</fix>
</trkpt>
<trkpt lat="33.810313" lon="-118.393867">
  <ele>-3.097</ele>
  <time>2026-09-02T22:12:57Z</time>
  <course>185.09</course>
  <speed>0.0</speed>
  <fix>3d</fix>
</trkpt>
<trkpt lat="33.810313" lon="-118.393867">
  <ele>-3.166</ele>
  <time>2026-09-02T22:12:57Z</time>
  <course>185.1</course>
  <speed>0.0</speed>
  <fix>3d</fix>
</trkpt>
<trkpt lat="33.810313" lon="-118.393867">
  <ele>-2.76</ele>
  <time>2026-09-02T22:12:57Z</time>
  <course>275.0</course>
  <speed>0.0</speed>
  <fix>3d</fix>
</trkpt>
<trkpt lat="33.810313" lon="-118.393867">
  <ele>-3.195</ele>
  <time>2026-09-02T22:12:57Z</time>
  <course>185.1</course>
  <speed>0.0</speed>
  <fix>3d</fix>
</trkpt>
<trkpt lat="33.810313" lon="-118.393867">
  <ele>-3.263</ele>
  <time>2026-09-02T22:12:57Z</time>
  <course>185.11</course>
  <speed>0.0</speed>
  <fix>3d</fix>
</trkpt>
<trkpt lat="33.810313" lon="-118.393867">
  <ele>-2.95</ele>
  <time>2026-09-02T22:12:57Z</time>
  <course>275.0</course>
  <speed>0.0</speed>
  <fix>3d</fix>
</trkpt>
<trkpt lat="33.810313" lon="-118.393867">
  <ele>-3.266</ele>
  <time>2026-09-02T22:12:57Z</time>
  <course>185.11</course>
  <speed>0.0</speed>
  <fix>3d</fix>
</trkpt>
<trkpt lat="33.810313" lon="-118.393867">
  <ele>-3.36</ele>
  <time>2026-09-02T22:12:57Z</time>
  <course>185.12</course>
  <speed>0.0</speed>
  <fix>3d</fix>
</trkpt>
<trkpt lat="33.810313" lon="-118.393867">
  <ele>-2.95</ele>
  <time>2026-09-02T22:12:57Z</time>
  <course>275.0</course>
  <speed>0.0</speed>
  <fix>3d</fix>
</trkpt>
<trkpt lat="33.810313" lon="-118.393867">
  <ele>-3.399</ele>
  <time>2026-09-02T22:12:57Z</time>
  <course>185.12</course>
  <speed>0.0</speed>
  <fix>3d</fix>
</trkpt>
<trkpt lat="33.810313" lon="-118.393867">
  <ele>-3.458</ele>
  <time>2026-09-02T22:12:57Z</time>
  <course>185.13</course>
  <speed>0.0</speed>
  <fix>3d</fix>
</trkpt>
<trkpt lat="33.810313" lon="-118.393867">
  <ele>-3.15</ele>
  <time>2026-09-02T22:12:57Z</time>
  <course>275.0</course>
  <speed>0.0</speed>
  <fix>3d</fix>
</trkpt>
<trkpt lat="33.810313" lon="-118.393867">
  <ele>-3.492</ele>
  <time>2026-09-02T22:12:57Z</time>
  <course>185.13</course>
  <speed>0.0</speed>
  <fix>3d</fix>
</trkpt>
<trkpt lat="33.810313" lon="-118.393867">
  <ele>-3.556</ele>
  <time>2026-09-02T22:12:57Z</time>
  <course>185.14</course>
  <speed>0.0</speed>
  <fix>3d</fix>
</trkpt>
<trkpt lat="33.810313" lon="-118.393867">
  <ele>-3.15</ele>
  <time>2026-09-02T22:12:57Z</time>
  <course>275.0</course>
  <speed>0.0</speed>
  <fix>3d</fix>
</trkpt>
<trkpt lat="33.810313" lon="-118.393867">
  <ele>-3.59</ele>
  <time>2026-09-02T22:12:57Z</time>
  <course>185.14</course>
  <speed>0.0</speed>
  <fix>3d</fix>
</trkpt>
<trkpt lat="33.810313" lon="-118.393867">
  <ele>-3.654</ele>
  <time>2026-09-02T22:12:57Z</time>
  <course>185.15</course>
  <speed>0.0</speed>
  <fix>3d</fix>
</trkpt>
<trkpt lat="33.810313" lon="-118.393867">
  <ele>-3.34</ele>
  <time>2026-09-02T22:12:57Z</time>
  <course>275.0</course>
  <speed>0.0</speed>
  <fix>3d</fix>
</trkpt>
<trkpt lat="33.810313" lon="-118.393867">
  <ele>-3.659</ele>
  <time>2026-09-02T22:12:57Z</time>
  <course>185.15</course>
  <speed>0.0</speed>
  <fix>3d</fix>
</trkpt>
<trkpt lat="33.810313" lon="-118.393867">
  <ele>-3.752</ele>
  <time>2026-09-02T22:12:57Z</time>
  <course>185.16</course>
  <speed>0.0</speed>
  <fix>3d</fix>
</trkpt>
<trkpt lat="33.810313" lon="-118.393867">
  <ele>-3.34</ele>
  <time>2026-09-02T22:12:57Z</time>
  <course>275.0</course>
  <speed>0.0</speed>
  <fix>3d</fix>
</trkpt>
<trkpt lat="33.810313" lon="-118.393867">
  <ele>-3.784</ele>
  <time>2026-09-02T22:12:57Z</time>
  <course>185.16</course>
  <speed>0.0</speed>
  <fix>3d</fix>
</trkpt>
<trkpt lat="33.810313" lon="-118.393867">
  <ele>-3.851</ele>
  <time>2026-09-02T22:12:57Z</time>
  <course>185.17</course>
  <speed>0.0</speed>
  <fix>3d</fix>
</trkpt>
<trkpt lat="33.810313" lon="-118.393867">
  <ele>-3.53</ele>
  <time>2026-09-02T22:12:57Z</time>
  <course>275.0</course>
  <speed>0.0</speed>
  <fix>3d</fix>
</trkpt>
<trkpt lat="33.810313" lon="-118.393867">
  <ele>-3.88</ele>
  <time>2026-09-02T22:12:57Z</time>
  <course>185.17</course>
  <speed>0.0</speed>
  <fix>3d</fix>
</trkpt>
<trkpt lat="33.810313" lon="-118.393867">
  <ele>-3.949</ele>
  <time>2026-09-02T22:12:57Z</time>
  <course>185.18</course>
  <speed>0.0</speed>
  <fix>3d</fix>
</trkpt>
<trkpt lat="33.810313" lon="-118.393867">
  <ele>-3.53</ele>
  <time>2026-09-02T22:12:57Z</time>
  <course>275.0</course>
  <speed>0.0</speed>
  <fix>3d</fix>
</trkpt>
<trkpt lat="33.810313" lon="-118.393867">
  <ele>-3.981</ele>
  <time>2026-09-02T22:12:57Z</time>
  <course>185.19</course>
  <speed>0.0</speed>
  <fix>3d</fix>
</trkpt>
<trkpt lat="33.810313" lon="-118.393867">
  <ele>-4.048</ele>
  <time>2026-09-02T22:12:57Z</time>
  <course>185.19</course>
  <speed>0.0</speed>
  <fix>3d</fix>
</trkpt>
<trkpt lat="33.810313" lon="-118.393867">
  <ele>-3.73</ele>
  <time>2026-09-02T22:12:57Z</time>
  <course>275.0</course>
  <speed>0.0</speed>
  <fix>3d</fix>
</trkpt>
<trkpt lat="33.810313" lon="-118.393867">
  <ele>-4.087</ele>
  <time>2026-09-02T22:12:57Z</time>
  <course>185.2</course>
  <speed>0.0</speed>
  <fix>3d</fix>
</trkpt>
<trkpt lat="33.810313" lon="-118.393867">
  <ele>-4.146</ele>
  <time>2026-09-02T22:12:57Z</time>
  <course>185.2</course>
  <speed>0.0</speed>
  <fix>3d</fix>
</trkpt>
<trkpt lat="33.810313" lon="-118.393867">
  <ele>-3.73</ele>
  <time>2026-09-02T22:12:57Z</time>
  <course>275.0</course>
  <speed>0.0</speed>
  <fix>3d</fix>
</trkpt>
<trkpt lat="33.810313" lon="-118.393867">
  <ele>-4.18</ele>
  <time>2026-09-02T22:12:57Z</time>
  <course>185.21</course>
  <speed>0.0</speed>
  <fix>3d</fix>
</trkpt>
<trkpt lat="33.810313" lon="-118.393867">
  <ele>-4.243</ele>
  <time>2026-09-02T22:12:57Z</time>
  <course>185.21</course>
  <speed>0.0</speed>
  <fix>3d</fix>
</trkpt>
<trkpt lat="33.810313" lon="-118.393867">
  <ele>-3.92</ele>
  <time>2026-09-02T22:12:57Z</time>
  <course>275.0</course>
  <speed>0.0</speed>
  <fix>3d</fix>
</trkpt>
<trkpt lat="33.810313" lon="-118.393867">
  <ele>-4.28</ele>
  <time>2026-09-02T22:12:57Z</time>
  <course>185.22</course>
  <speed>0.0</speed>
  <fix>3d</fix>
</trkpt>
<trkpt lat="33.810313" lon="-118.393867">
  <ele>-4.341</ele>
  <time>2026-09-02T22:12:57Z</time>
  <course>185.23</course>
  <speed>0.0</speed>
  <fix>3d</fix>
</trkpt>
<trkpt lat="33.810313" lon="-118.393867">
  <ele>-3.92</ele>
  <time>2026-09-02T22:12:57Z</time>
  <course>275.0</course>
  <speed>0.0</speed>
  <fix>3d</fix>
</trkpt>
<trkpt lat="33.810313" lon="-118.393867">
  <ele>-4.343</ele>
  <time>2026-09-02T22:12:57Z</time>
  <course>185.23</course>
  <speed>0.0</speed>
  <fix>3d</fix>
</trkpt>
<trkpt lat="33.810313" lon="-118.393867">
  <ele>-4.438</ele>
  <time>2026-09-02T22:12:57Z</time>
  <course>185.24</course>
  <speed>0.0</speed>
  <fix>3d</fix>
</trkpt>
<trkpt lat="33.810313" lon="-118.393867">
  <ele>-4.11</ele>
  <time>2026-09-02T22:12:57Z</time>
  <course>275.0</course>
  <speed>0.0</speed>
  <fix>3d</fix>
</trkpt>
<trkpt lat="33.810313" lon="-118.393867">
  <ele>-4.469</ele>
  <time>2026-09-02T22:12:57Z</time>
  <course>185.24</course>
  <speed>0.01</speed>
  <fix>3d</fix>
</trkpt>
<trkpt lat="33.810313" lon="-118.393867">
  <ele>-4.535</ele>
  <time>2026-09-02T22:12:57Z</time>
  <course>185.25</course>
  <speed>0.01</speed>
  <fix>3d</fix>
</trkpt>
<trkpt lat="33.810313" lon="-118.393867">
  <ele>-4.11</ele>
  <time>2026-09-02T22:12:57Z</time>
  <course>275.0</course>
  <speed>0.0</speed>
  <fix>3d</fix>
</trkpt>
<trkpt lat="33.810313" lon="-118.393867">
  <ele>-4.572</ele>
  <time>2026-09-02T22:12:57Z</time>
  <course>185.25</course>
  <speed>0.01</speed>
  <fix>3d</fix>
</trkpt>
<trkpt lat="33.810313" lon="-118.393867">
  <ele>-4.634</ele>
  <time>2026-09-02T22:12:57Z</time>
  <course>185.26</course>
  <speed>0.01</speed>
  <fix>3d</fix>
</trkpt>
<trkpt lat="33.810313" lon="-118.393867">
  <ele>-4.31</ele>
  <time>2026-09-02T22:12:57Z</time>
  <course>275.0</course>
  <speed>0.0</speed>
  <fix>3d</fix>
</trkpt>
<trkpt lat="33.810313" lon="-118.393867">
  <ele>-4.663</ele>
  <time>2026-09-02T22:12:57Z</time>
  <course>185.26</course>
  <speed>0.01</speed>
  <fix>3d</fix>
</trkpt>
<trkpt lat="33.810313" lon="-118.393867">
  <ele>-4.732</ele>
  <time>2026-09-02T22:12:57Z</time>
  <course>185.27</course>
  <speed>0.01</speed>
  <fix>3d</fix>
</trkpt>
<trkpt lat="33.810313" lon="-118.393867">
  <ele>-4.31</ele>
  <time>2026-09-02T22:12:57Z</time>
  <course>275.0</course>
  <speed>0.0</speed>
  <fix>3d</fix>
</trkpt>
<trkpt lat="33.810313" lon="-118.393867">
  <ele>-4.767</ele>
  <time>2026-09-02T22:12:57Z</time>
  <course>185.27</course>
  <speed>0.01</speed>
  <fix>3d</fix>
</trkpt>
<trkpt lat="33.810313" lon="-118.393867">
  <ele>-4.831</ele>
  <time>2026-09-02T22:12:57Z</time>
  <course>185.28</course>
  <speed>0.01</speed>
  <fix>3d</fix>
</trkpt>
<trkpt lat="33.810313" lon="-118.393867">
  <ele>-4.5</ele>
  <time>2026-09-02T22:12:57Z</time>
  <course>275.0</course>
  <speed>0.0</speed>
  <fix>3d</fix>
</trkpt>
<trkpt lat="33.810313" lon="-118.393867">
  <ele>-4.861</ele>
  <time>2026-09-02T22:12:57Z</time>
  <course>185.28</course>
  <speed>0.01</speed>
  <fix>3d</fix>
</trkpt>
<trkpt lat="33.810313" lon="-118.393867">
  <ele>-4.931</ele>
  <time>2026-09-02T22:12:57Z</time>
  <course>185.29</course>
  <speed>0.01414213562373095</speed>
  <fix>3d</fix>
</trkpt>
<trkpt lat="33.810313" lon="-118.393867">
  <ele>-4.5</ele>
  <time>2026-09-02T22:12:57Z</time>
  <course>275.0</course>
  <speed>0.0</speed>
  <fix>3d</fix>
</trkpt>
<trkpt lat="33.810313" lon="-118.393867">
  <ele>-4.936</ele>
  <time>2026-09-02T22:12:57Z</time>
  <course>185.29</course>
  <speed>0.01414213562373095</speed>
  <fix>3d</fix>
</trkpt>
<trkpt lat="33.810313" lon="-118.393867">
  <ele>-5.03</ele>
  <time>2026-09-02T22:12:57Z</time>
  <course>185.3</course>
  <speed>0.01414213562373095</speed>
  <fix>3d</fix>
</trkpt>
<trkpt lat="33.810313" lon="-118.393867">
  <ele>-4.69</ele>
  <time>2026-09-02T22:12:57Z</time>
  <course>275.0</course>
  <speed>0.0</speed>
  <fix>3d</fix>
</trkpt>
<trkpt lat="33.810313" lon="-118.393867">
  <ele>-5.032</ele>
  <time>2026-09-02T22:12:57Z</time>
  <course>185.3</course>
  <speed>0.01414213562373095</speed>
  <fix>3d</fix>
</trkpt>
<trkpt lat="33.810313" lon="-118.393867">
  <ele>-5.129</ele>
  <time>2026-09-02T22:12:57Z</time>
  <course>185.31</course>
  <speed>0.01414213562373095</speed>
  <fix>3d</fix>
</trkpt>
<trkpt lat="33.810313" lon="-118.393867">
  <ele>-4.69</ele>
  <time>2026-09-02T22:12:57Z</time>
  <course>275.0</course>
  <speed>0.0</speed>
  <fix>3d</fix>
</trkpt>
<trkpt lat="33.810313" lon="-118.393867">
  <ele>-5.224</ele>
  <time>2026-09-02T22:12:57Z</time>
  <course>185.32</course>
  <speed>0.01414213562373095</speed>
  <fix>3d</fix>
</trkpt>
<trkpt lat="33.810313" lon="-118.393867">
  <ele>-4.88</ele>
  <time>2026-09-02T22:12:57Z</time>
  <course>275.0</course>
  <speed>0.0</speed>
  <fix>3d</fix>
</trkpt>
<trkpt lat="33.810313" lon="-118.393867">
  <ele>-5.307</ele>
  <time>2026-09-02T22:12:57Z</time>
  <course>185.33</course>
  <speed>0.01414213562373095</speed>
  <fix>3d</fix>
</trkpt>
<trkpt lat="33.810313" lon="-118.393867">
  <ele>-4.88</ele>
  <time>2026-09-02T22:12:57Z</time>
  <course>275.0</course>
  <speed>0.0</speed>
  <fix>3d</fix>
</trkpt>
<trkpt lat="33.810313" lon="-118.393867">
  <ele>-5.371</ele>
  <time>2026-09-02T22:12:57Z</time>
  <course>185.35</course>
  <speed>0.01414213562373095</speed>
  <fix>3d</fix>
</trkpt>
<trkpt lat="33.810313" lon="-118.393867">
  <ele>-5.06</ele>
  <time>2026-09-02T22:12:57Z</time>
  <course>275.0</course>
  <speed>0.0</speed>
  <fix>3d</fix>
</trkpt>
<trkpt lat="33.810313" lon="-118.393867">
  <ele>-5.42</ele>
  <time>2026-09-02T22:12:57Z</time>
  <course>185.36</course>
  <speed>0.01414213562373095</speed>
  <fix>3d</fix>
</trkpt>
<trkpt lat="33.810313" lon="-118.393867">
  <ele>-5.06</ele>
  <time>2026-09-02T22:12:57Z</time>
  <course>275.0</course>
  <speed>0.0</speed>
  <fix>3d</fix>
</trkpt>
<trkpt lat="33.810313" lon="-118.393867">
  <ele>-5.456</ele>
  <time>2026-09-02T22:12:57Z</time>
  <course>185.37</course>
  <speed>0.01414213562373095</speed>
  <fix>3d</fix>
</trkpt>
<trkpt lat="33.810313" lon="-118.393867">
  <ele>-5.18</ele>
  <time>2026-09-02T22:12:57Z</time>
  <course>274.99</course>
  <speed>0.0</speed>
  <fix>3d</fix>
</trkpt>
<trkpt lat="33.810313" lon="-118.393867">
  <ele>-5.481</ele>
  <time>2026-09-02T22:12:57Z</time>
  <course>185.38</course>
  <speed>0.01414213562373095</speed>
  <fix>3d</fix>
</trkpt>
<trkpt lat="33.810313" lon="-118.393867">
  <ele>-5.18</ele>
  <time>2026-09-02T22:12:57Z</time>
  <course>274.99</course>
  <speed>0.0</speed>
  <fix>3d</fix>
</trkpt>
<trkpt lat="33.810313" lon="-118.393867">
  <ele>-5.493</ele>
  <time>2026-09-02T22:12:57Z</time>
  <course>185.39</course>
  <speed>0.01414213562373095</speed>
  <fix>3d</fix>
</trkpt>
<trkpt lat="33.810313" lon="-118.393867">
  <ele>-5.26</ele>
  <time>2026-09-02T22:12:57Z</time>
  <course>95.0</course>
  <speed>0.0</speed>
  <fix>3d</fix>
</trkpt>
<trkpt lat="33.810313" lon="-118.393867">
  <ele>-5.497</ele>
  <time>2026-09-02T22:12:57Z</time>
  <course>185.4</course>
  <speed>0.01414213562373095</speed>
  <fix>3d</fix>
</trkpt>
<trkpt lat="33.810313" lon="-118.393867">
  <ele>-5.26</ele>
  <time>2026-09-02T22:12:57Z</time>
  <course>95.0</course>
  <speed>0.0</speed>
  <fix>3d</fix>
</trkpt>
<trkpt lat="33.810313" lon="-118.393867">
  <ele>-5.495</ele>
  <time>2026-09-02T22:12:57Z</time>
  <course>185.41</course>
  <speed>0.01414213562373095</speed>
  <fix>3d</fix>
</trkpt>
<trkpt lat="33.810313" lon="-118.393867">
  <ele>-5.3</ele>
  <time>2026-09-02T22:12:57Z</time>
  <course>95.0</course>
  <speed>0.0</speed>
  <fix>3d</fix>
</trkpt>
<trkpt lat="33.8103131" lon="-118.393867">
  <ele>-5.49</ele>
  <time>2026-09-02T22:12:57Z</time>
  <course>185.42</course>
  <speed>0.01414213562373095</speed>
  <fix>3d</fix>
</trkpt>
<trkpt lat="33.810313" lon="-118.393867">
  <ele>-5.3</ele>
  <time>2026-09-02T22:12:57Z</time>
  <course>95.0</course>
  <speed>0.0</speed>
  <fix>3d</fix>
</trkpt>
<trkpt lat="33.8103131" lon="-118.393867">
  <ele>-5.484</ele>
  <time>2026-09-02T22:12:57Z</time>
  <course>185.43</course>
  <speed>0.01414213562373095</speed>
  <fix>3d</fix>
</trkpt>
<trkpt lat="33.810313" lon="-118.393867">
  <ele>-5.31</ele>
  <time>2026-09-02T22:12:57Z</time>
  <course>95.0</course>
  <speed>0.0</speed>
  <fix>3d</fix>
</trkpt>
<trkpt lat="33.8103131" lon="-118.3938671">
  <ele>-5.477</ele>
  <time>2026-09-02T22:12:57Z</time>
  <course>185.44</course>
  <speed>0.01414213562373095</speed>
  <fix>3d</fix>
</trkpt>
<trkpt lat="33.810313" lon="-118.393867">
  <ele>-5.31</ele>
  <time>2026-09-02T22:12:57Z</time>
  <course>95.0</course>
  <speed>0.0</speed>
  <fix>3d</fix>
</trkpt>
<trkpt lat="33.8103131" lon="-118.3938671">
  <ele>-5.472</ele>
  <time>2026-09-02T22:12:57Z</time>
  <course>185.46</course>
  <speed>0.01414213562373095</speed>
  <fix>3d</fix>
</trkpt>
<trkpt lat="33.810313" lon="-118.393867">
  <ele>-5.31</ele>
  <time>2026-09-02T22:12:57Z</time>
  <course>95.0</course>
  <speed>0.0</speed>
  <fix>3d</fix>
</trkpt>
<trkpt lat="33.8103131" lon="-118.3938671">
  <ele>-5.468</ele>
  <time>2026-09-02T22:12:57Z</time>
  <course>185.47</course>
  <speed>0.022360679774997897</speed>
  <fix>3d</fix>
</trkpt>
<trkpt lat="33.810313" lon="-118.393867">
  <ele>-5.31</ele>
  <time>2026-09-02T22:12:57Z</time>
  <course>95.0</course>
  <speed>0.0</speed>
  <fix>3d</fix>
</trkpt>
<trkpt lat="33.8103131" lon="-118.3938671">
  <ele>-5.466</ele>
  <time>2026-09-02T22:12:57Z</time>
  <course>185.48</course>
  <speed>0.022360679774997897</speed>
  <fix>3d</fix>
</trkpt>
<trkpt lat="33.810313" lon="-118.393867">
  <ele>-5.31</ele>
  <time>2026-09-02T22:12:57Z</time>
  <course>95.0</course>
  <speed>0.0</speed>
  <fix>3d</fix>
</trkpt>
<trkpt lat="33.8103131" lon="-118.3938671">
  <ele>-5.466</ele>
  <time>2026-09-02T22:12:57Z</time>
  <course>185.49</course>
  <speed>0.022360679774997897</speed>
  <fix>3d</fix>
</trkpt>
<trkpt lat="33.810313" lon="-118.393867">
  <ele>-5.31</ele>
  <time>2026-09-02T22:12:57Z</time>
  <course>95.0</course>
  <speed>0.0</speed>
  <fix>3d</fix>
</trkpt>
<trkpt lat="33.8103131" lon="-118.3938671">
  <ele>-5.468</ele>
  <time>2026-09-02T22:12:57Z</time>
  <course>185.5</course>
  <speed>0.022360679774997897</speed>
  <fix>3d</fix>
</trkpt>
<trkpt lat="33.810313" lon="-118.393867">
  <ele>-5.31</ele>
  <time>2026-09-02T22:12:57Z</time>
  <course>95.0</course>
  <speed>0.0</speed>
  <fix>3d</fix>
</trkpt>
<trkpt lat="33.8103131" lon="-118.3938671">
  <ele>-5.471</ele>
  <time>2026-09-02T22:12:57Z</time>
  <course>185.51</course>
  <speed>0.022360679774997897</speed>
  <fix>3d</fix>
</trkpt>
<trkpt lat="33.810313" lon="-118.393867">
  <ele>-5.31</ele>
  <time>2026-09-02T22:12:57Z</time>
  <course>95.0</course>
  <speed>0.0</speed>
  <fix>3d</fix>
</trkpt>
<trkpt lat="33.8103131" lon="-118.3938671">
  <ele>-5.476</ele>
  <time>2026-09-02T22:12:57Z</time>
  <course>185.52</course>
  <speed>0.022360679774997897</speed>
  <fix>3d</fix>
</trkpt>
<trkpt lat="33.810313" lon="-118.393867">
  <ele>-5.33</ele>
  <time>2026-09-02T22:12:57Z</time>
  <course>95.0</course>
  <speed>0.0</speed>
  <fix>3d</fix>
</trkpt>
<trkpt lat="33.8103131" lon="-118.3938671">
  <ele>-5.48</ele>
  <time>2026-09-02T22:12:57Z</time>
  <course>185.63</course>
  <speed>0.022360679774997897</speed>
  <fix>3d</fix>
</trkpt>
<trkpt lat="33.810313" lon="-118.393867">
  <ele>-5.33</ele>
  <time>2026-09-02T22:12:57Z</time>
  <course>95.0</course>
  <speed>0.0</speed>
  <fix>3d</fix>
</trkpt>
<trkpt lat="33.8103131" lon="-118.3938671">
  <ele>-5.484</ele>
  <time>2026-09-02T22:12:57Z</time>
  <course>187.01</course>
  <speed>0.022360679774997897</speed>
  <fix>3d</fix>
</trkpt>
<trkpt lat="33.810313" lon="-118.393867">
  <ele>-5.34</ele>
  <time>2026-09-02T22:12:57Z</time>
  <course>87.68</course>
  <speed>0.0</speed>
  <fix>3d</fix>
</trkpt>
<trkpt lat="33.8103131" lon="-118.3938671">
  <ele>-5.486</ele>
  <time>2026-09-02T22:12:57Z</time>
  <course>189.78</course>
  <speed>0.0412310562561766</speed>
  <fix>3d</fix>
</trkpt>
<trkpt lat="33.810313" lon="-118.393867">
  <ele>-5.34</ele>
  <time>2026-09-02T22:12:57Z</time>
  <course>87.68</course>
  <speed>0.0</speed>
  <fix>3d</fix>
</trkpt>
<trkpt lat="33.8103131" lon="-118.3938671">
  <ele>-5.485</ele>
  <time>2026-09-02T22:12:57Z</time>
  <course>193.19</course>
  <speed>0.06082762530298219</speed>
  <fix>3d</fix>
</trkpt>
<trkpt lat="33.810313" lon="-118.393867">
  <ele>-5.35</ele>
  <time>2026-09-02T22:12:57Z</time>
  <course>6.78</course>
  <speed>0.01</speed>
  <fix>3d</fix>
</trkpt>
<trkpt lat="33.8103132" lon="-118.3938671">
  <ele>-5.483</ele>
  <time>2026-09-02T22:12:57Z</time>
  <course>196.95</course>
  <speed>0.1004987562112089</speed>
  <fix>3d</fix>
</trkpt>
<trkpt lat="33.810313" lon="-118.393867">
  <ele>-5.35</ele>
  <time>2026-09-02T22:12:57Z</time>
  <course>6.78</course>
  <speed>0.01</speed>
  <fix>3d</fix>
</trkpt>
<trkpt lat="33.8103133" lon="-118.3938671">
  <ele>-5.479</ele>
  <time>2026-09-02T22:12:57Z</time>
  <course>200.95</course>
  <speed>0.140356688476182</speed>
  <fix>3d</fix>
</trkpt>
<trkpt lat="33.810313" lon="-118.393867">
  <ele>-5.36</ele>
  <time>2026-09-02T22:12:57Z</time>
  <course>2.59</course>
  <speed>0.05</speed>
  <fix>3d</fix>
</trkpt>
<trkpt lat="33.8103134" lon="-118.3938671">
  <ele>-5.474</ele>
  <time>2026-09-02T22:12:57Z</time>
  <course>205.16</course>
  <speed>0.19026297590440447</speed>
  <fix>3d</fix>
</trkpt>
<trkpt lat="33.810313" lon="-118.393867">
  <ele>-5.36</ele>
  <time>2026-09-02T22:12:57Z</time>
  <course>2.59</course>
  <speed>0.05</speed>
  <fix>3d</fix>
</trkpt>
<trkpt lat="33.8103136" lon="-118.3938671">
  <ele>-5.47</ele>
  <time>2026-09-02T22:12:57Z</time>
  <course>209.54</course>
  <speed>0.2501999200639361</speed>
  <fix>3d</fix>
</trkpt>
<trkpt lat="33.8103131" lon="-118.393867">
  <ele>-5.35</ele>
  <time>2026-09-02T22:12:57Z</time>
  <course>1.25</course>
  <speed>0.14</speed>
  <fix>3d</fix>
</trkpt>
<trkpt lat="33.8103138" lon="-118.3938671">
  <ele>-5.469</ele>
  <time>2026-09-02T22:12:57Z</time>
  <course>214.09</course>
  <speed>0.32015621187164245</speed>
  <fix>3d</fix>
</trkpt>
<trkpt lat="33.8103131" lon="-118.393867">
  <ele>-5.35</ele>
  <time>2026-09-02T22:12:57Z</time>
  <course>1.25</course>
  <speed>0.14</speed>
  <fix>3d</fix>
</trkpt>
<trkpt lat="33.8103141" lon="-118.3938671">
  <ele>-5.474</ele>
  <time>2026-09-02T22:12:57Z</time>
  <course>218.79</course>
  <speed>0.3901281840626232</speed>
  <fix>3d</fix>
</trkpt>
<trkpt lat="33.8103135" lon="-118.393867">
  <ele>-5.35</ele>
  <time>2026-09-02T22:12:57Z</time>
  <course>0.72</course>
  <speed>0.25</speed>
  <fix>3d</fix>
</trkpt>
<trkpt lat="33.8103145" lon="-118.3938671">
  <ele>-5.489</ele>
  <time>2026-09-02T22:12:58Z</time>
  <course>223.68</course>
  <speed>0.47010637094172636</speed>
  <fix>3d</fix>
</trkpt>
<trkpt lat="33.8103135" lon="-118.393867">
  <ele>-5.35</ele>
  <time>2026-09-02T22:12:58Z</time>
  <course>0.72</course>
  <speed>0.25</speed>
  <fix>3d</fix>
</trkpt>
<trkpt lat="33.8103149" lon="-118.3938671">
  <ele>-5.513</ele>
  <time>2026-09-02T22:12:58Z</time>
  <course>228.72</course>
  <speed>0.540092584655631</speed>
  <fix>3d</fix>
</trkpt>
<trkpt lat="33.8103141" lon="-118.393867">
  <ele>-5.35</ele>
  <time>2026-09-02T22:12:58Z</time>
  <course>0.75</course>
  <speed>0.39</speed>
  <fix>3d</fix>
</trkpt>
<trkpt lat="33.8103154" lon="-118.3938671">
  <ele>-5.547</ele>
  <time>2026-09-02T22:12:58Z</time>
  <course>233.95</course>
  <speed>0.61</speed>
  <fix>3d</fix>
</trkpt>
<trkpt lat="33.8103141" lon="-118.393867">
  <ele>-5.35</ele>
  <time>2026-09-02T22:12:58Z</time>
  <course>0.75</course>
  <speed>0.39</speed>
  <fix>3d</fix>
</trkpt>
<trkpt lat="33.8103159" lon="-118.3938671">
  <ele>-5.593</ele>
  <time>2026-09-02T22:12:58Z</time>
  <course>239.34</course>
  <speed>0.67</speed>
  <fix>3d</fix>
</trkpt>
<trkpt lat="33.810315" lon="-118.393867">
  <ele>-5.39</ele>
  <time>2026-09-02T22:12:58Z</time>
  <course>1.33</course>
  <speed>0.54</speed>
  <fix>3d</fix>
</trkpt>
<trkpt lat="33.8103165" lon="-118.393867">
  <ele>-5.649</ele>
  <time>2026-09-02T22:12:58Z</time>
  <course>244.99</course>
  <speed>0.71</speed>
  <fix>3d</fix>
</trkpt>
<trkpt lat="33.810315" lon="-118.393867">
  <ele>-5.39</ele>
  <time>2026-09-02T22:12:58Z</time>
  <course>1.33</course>
  <speed>0.54</speed>
  <fix>3d</fix>
</trkpt>
<trkpt lat="33.8103172" lon="-118.393867">
  <ele>-5.713</ele>
  <time>2026-09-02T22:12:58Z</time>
  <course>250.9</course>
  <speed>0.75</speed>
  <fix>3d</fix>
</trkpt>
<trkpt lat="33.8103161" lon="-118.393867">
  <ele>-5.48</ele>
  <time>2026-09-02T22:12:58Z</time>
  <course>2.18</course>
  <speed>0.66</speed>
  <fix>3d</fix>
</trkpt>
<trkpt lat="33.8103178" lon="-118.393867">
  <ele>-5.783</ele>
  <time>2026-09-02T22:12:58Z</time>
  <course>257.13</course>
  <speed>0.77</speed>
  <fix>3d</fix>
</trkpt>
<trkpt lat="33.8103161" lon="-118.393867">
  <ele>-5.48</ele>
  <time>2026-09-02T22:12:58Z</time>
  <course>2.18</course>
  <speed>0.66</speed>
  <fix>3d</fix>
</trkpt>
<trkpt lat="33.8103185" lon="-118.393867">
  <ele>-5.858</ele>
  <time>2026-09-02T22:12:58Z</time>
  <course>263.68</course>
  <speed>0.8</speed>
  <fix>3d</fix>
</trkpt>
<trkpt lat="33.8103173" lon="-118.3938669">
  <ele>-5.59</ele>
  <time>2026-09-02T22:12:58Z</time>
  <course>2.73</course>
  <speed>0.74</speed>
  <fix>3d</fix>
</trkpt>
<trkpt lat="33.8103192" lon="-118.393867">
  <ele>-5.935</ele>
  <time>2026-09-02T22:12:58Z</time>
  <course>270.46</course>
  <speed>0.8200609733428362</speed>
  <fix>3d</fix>
</trkpt>
<trkpt lat="33.8103173" lon="-118.3938669">
  <ele>-5.59</ele>
  <time>2026-09-02T22:12:58Z</time>
  <course>2.73</course>
  <speed>0.74</speed>
  <fix>3d</fix>
</trkpt>
<trkpt lat="33.8103199" lon="-118.393867">
  <ele>-6.015</ele>
  <time>2026-09-02T22:12:58Z</time>
  <course>277.35</course>
  <speed>0.8409518416651456</speed>
  <fix>3d</fix>
</trkpt>
<trkpt lat="33.8103187" lon="-118.3938668">
  <ele>-5.72</ele>
  <time>2026-09-02T22:12:58Z</time>
  <course>1.99</course>
  <speed>0.79</speed>
  <fix>3d</fix>
</trkpt>
<trkpt lat="33.8103207" lon="-118.393867">
  <ele>-6.098</ele>
  <time>2026-09-02T22:12:58Z</time>
  <course>284.28</course>
  <speed>0.872066511224918</speed>
  <fix>3d</fix>
</trkpt>
<trkpt lat="33.8103187" lon="-118.3938668">
  <ele>-5.72</ele>
  <time>2026-09-02T22:12:58Z</time>
  <course>1.99</course>
  <speed>0.79</speed>
  <fix>3d</fix>
</trkpt>
<trkpt lat="33.8103214" lon="-118.3938671">
  <ele>-6.182</ele>
  <time>2026-09-02T22:12:58Z</time>
  <course>291.21</course>
  <speed>0.8927485648266257</speed>
  <fix>3d</fix>
</trkpt>
<trkpt lat="33.8103202" lon="-118.3938668">
  <ele>-5.86</ele>
  <time>2026-09-02T22:12:58Z</time>
  <course>359.79</course>
  <speed>0.84</speed>
  <fix>3d</fix>
</trkpt>
<trkpt lat="33.8103222" lon="-118.3938671">
  <ele>-6.265</ele>
  <time>2026-09-02T22:12:58Z</time>
  <course>297.97</course>
  <speed>0.9234717104492156</speed>
  <fix>3d</fix>
</trkpt>
<trkpt lat="33.8103202" lon="-118.3938668">
  <ele>-5.86</ele>
  <time>2026-09-02T22:12:58Z</time>
  <course>359.79</course>
  <speed>0.84</speed>
  <fix>3d</fix>
</trkpt>
<trkpt lat="33.8103231" lon="-118.3938672">
  <ele>-6.347</ele>
  <time>2026-09-02T22:12:58Z</time>
  <course>304.56</course>
  <speed>0.9426027795418386</speed>
  <fix>3d</fix>
</trkpt>
<trkpt lat="33.8103217" lon="-118.3938669">
  <ele>-6.02</ele>
  <time>2026-09-02T22:12:58Z</time>
  <course>358.15</course>
  <speed>0.89</speed>
  <fix>3d</fix>
</trkpt>
<trkpt lat="33.8103239" lon="-118.3938672">
  <ele>-6.426</ele>
  <time>2026-09-02T22:12:58Z</time>
  <course>310.93</course>
  <speed>0.9718538984847466</speed>
  <fix>3d</fix>
</trkpt>
<trkpt lat="33.8103217" lon="-118.3938669">
  <ele>-6.02</ele>
  <time>2026-09-02T22:12:58Z</time>
  <course>358.15</course>
  <speed>0.89</speed>
  <fix>3d</fix>
</trkpt>
<trkpt lat="33.8103247" lon="-118.3938672">
  <ele>-6.504</ele>
  <time>2026-09-02T22:12:58Z</time>
  <course>317.14</course>
  <speed>0.9808159868191383</speed>
  <fix>3d</fix>
</trkpt>
<trkpt lat="33.8103234" lon="-118.3938669">
  <ele>-6.17</ele>
  <time>2026-09-02T22:12:58Z</time>
  <course>358.71</course>
  <speed>0.93</speed>
  <fix>3d</fix>
</trkpt>
<trkpt lat="33.8103256" lon="-118.3938672">
  <ele>-6.579</ele>
  <time>2026-09-02T22:12:58Z</time>
  <course>323.26</course>
  <speed>0.9902019995940222</speed>
  <fix>3d</fix>
</trkpt>
<trkpt lat="33.8103234" lon="-118.3938669">
  <ele>-6.17</ele>
  <time>2026-09-02T22:12:58Z</time>
  <course>358.71</course>
  <speed>0.93</speed>
  <fix>3d</fix>
</trkpt>
<trkpt lat="33.8103265" lon="-118.3938672">
  <ele>-6.651</ele>
  <time>2026-09-02T22:12:58Z</time>
  <course>329.36</course>
  <speed>1.0000499987500624</speed>
  <fix>3d</fix>
</trkpt>
<trkpt lat="33.8103251" lon="-118.3938669">
  <ele>-6.31</ele>
  <time>2026-09-02T22:12:58Z</time>
  <course>0.76</course>
  <speed>0.97</speed>
  <fix>3d</fix>
</trkpt>
<trkpt lat="33.8103274" lon="-118.3938672">
  <ele>-6.717</ele>
  <time>2026-09-02T22:12:58Z</time>
  <course>335.51</course>
  <speed>0.99</speed>
  <fix>3d</fix>
</trkpt>
<trkpt lat="33.8103251" lon="-118.3938669">
  <ele>-6.31</ele>
  <time>2026-09-02T22:12:58Z</time>
  <course>0.76</course>
  <speed>0.97</speed>
  <fix>3d</fix>
</trkpt>
<trkpt lat="33.8103282" lon="-118.3938671">
  <ele>-6.777</ele>
  <time>2026-09-02T22:12:58Z</time>
  <course>341.45</course>
  <speed>0.970051545022222</speed>
  <fix>3d</fix>
</trkpt>
<trkpt lat="33.8103268" lon="-118.3938668">
  <ele>-6.45</ele>
  <time>2026-09-02T22:12:58Z</time>
  <course>2.9</course>
  <speed>0.98</speed>
  <fix>3d</fix>
</trkpt>
<trkpt lat="33.8103291" lon="-118.393867">
  <ele>-6.831</ele>
  <time>2026-09-02T22:12:58Z</time>
  <course>346.92</course>
  <speed>0.9500526301210896</speed>
  <fix>3d</fix>
</trkpt>
<trkpt lat="33.8103268" lon="-118.3938668">
  <ele>-6.45</ele>
  <time>2026-09-02T22:12:58Z</time>
  <course>2.9</course>
  <speed>0.98</speed>
  <fix>3d</fix>
</trkpt>
<trkpt lat="33.8103299" lon="-118.393867">
  <ele>-6.88</ele>
  <time>2026-09-02T22:12:58Z</time>
  <course>351.63</course>
  <speed>0.9400531899844816</speed>
  <fix>3d</fix>
</trkpt>
<trkpt lat="33.8103286" lon="-118.3938667">
  <ele>-6.56</ele>
  <time>2026-09-02T22:12:58Z</time>
  <course>4.41</course>
  <speed>0.95</speed>
  <fix>3d</fix>
</trkpt>
<trkpt lat="33.8103307" lon="-118.393867">
  <ele>-6.923</ele>
  <time>2026-09-02T22:12:58Z</time>
  <course>355.56</course>
  <speed>0.93</speed>
  <fix>3d</fix>
</trkpt>
<trkpt lat="33.8103286" lon="-118.3938667">
  <ele>-6.56</ele>
  <time>2026-09-02T22:12:58Z</time>
  <course>4.41</course>
  <speed>0.95</speed>
  <fix>3d</fix>
</trkpt>
<trkpt lat="33.8103315" lon="-118.393867">
  <ele>-6.962</ele>
  <time>2026-09-02T22:12:58Z</time>
  <course>358.42</course>
  <speed>0.9202173656261873</speed>
  <fix>3d</fix>
</trkpt>
<trkpt lat="33.8103303" lon="-118.3938666">
  <ele>-6.66</ele>
  <time>2026-09-02T22:12:58Z</time>
  <course>4.1</course>
  <speed>0.92</speed>
  <fix>3d</fix>
</trkpt>
<trkpt lat="33.8103323" lon="-118.3938668">
  <ele>-6.997</ele>
  <time>2026-09-02T22:12:58Z</time>
  <course>0.15</course>
  <speed>0.920869154657707</speed>
  <fix>3d</fix>
</trkpt>
<trkpt lat="33.8103303" lon="-118.3938666">
  <ele>-6.66</ele>
  <time>2026-09-02T22:12:58Z</time>
  <course>4.1</course>
  <speed>0.92</speed>
  <fix>3d</fix>
</trkpt>
<trkpt lat="33.8103331" lon="-118.3938668">
  <ele>-7.03</ele>
  <time>2026-09-02T22:12:58Z</time>
  <course>0.98</course>
  <speed>0.9213576938409967</speed>
  <fix>3d</fix>
</trkpt>
<trkpt lat="33.8103319" lon="-118.3938664">
  <ele>-6.74</ele>
  <time>2026-09-02T22:12:58Z</time>
  <course>2.08</course>
  <speed>0.9</speed>
  <fix>3d</fix>
</trkpt>
<trkpt lat="33.810334" lon="-118.3938668">
  <ele>-7.059</ele>
  <time>2026-09-02T22:12:58Z</time>
  <course>1.29</course>
  <speed>0.9219544457292888</speed>
  <fix>3d</fix>
</trkpt>
<trkpt lat="33.8103319" lon="-118.3938664">
  <ele>-6.74</ele>
  <time>2026-09-02T22:12:58Z</time>
  <course>2.08</course>
  <speed>0.9</speed>
  <fix>3d</fix>
</trkpt>
<trkpt lat="33.8103348" lon="-118.3938668">
  <ele>-7.086</ele>
  <time>2026-09-02T22:12:58Z</time>
  <course>1.34</course>
  <speed>0.9219544457292888</speed>
  <fix>3d</fix>
</trkpt>
<trkpt lat="33.8103335" lon="-118.3938664">
  <ele>-6.81</ele>
  <time>2026-09-02T22:12:58Z</time>
  <course>0.17</course>
  <speed>0.9</speed>
  <fix>3d</fix>
</trkpt>
<trkpt lat="33.8103356" lon="-118.3938668">
  <ele>-7.113</ele>
  <time>2026-09-02T22:12:58Z</time>
  <course>1.35</course>
  <speed>0.931933474020544</speed>
  <fix>3d</fix>
</trkpt>
<trkpt lat="33.8103335" lon="-118.3938664">
  <ele>-6.81</ele>
  <time>2026-09-02T22:12:58Z</time>
  <course>0.17</course>
  <speed>0.9</speed>
  <fix>3d</fix>
</trkpt>
<trkpt lat="33.8103364" lon="-118.3938668">
  <ele>-7.139</ele>
  <time>2026-09-02T22:12:58Z</time>
  <course>1.34</course>
  <speed>0.9219544457292888</speed>
  <fix>3d</fix>
</trkpt>
<trkpt lat="33.8103352" lon="-118.3938664">
  <ele>-6.87</ele>
  <time>2026-09-02T22:12:58Z</time>
  <course>359.02</course>
  <speed>0.9</speed>
  <fix>3d</fix>
</trkpt>
<trkpt lat="33.8103372" lon="-118.3938668">
  <ele>-7.167</ele>
  <time>2026-09-02T22:12:58Z</time>
  <course>1.34</course>
  <speed>0.9219544457292888</speed>
  <fix>3d</fix>
</trkpt>
<trkpt lat="33.8103352" lon="-118.3938664">
  <ele>-6.87</ele>
  <time>2026-09-02T22:12:58Z</time>
  <course>359.02</course>
  <speed>0.9</speed>
  <fix>3d</fix>
</trkpt>
<trkpt lat="33.810338" lon="-118.3938669">
  <ele>-7.195</ele>
  <time>2026-09-02T22:12:58Z</time>
  <course>1.36</course>
  <speed>0.9219544457292888</speed>
  <fix>3d</fix>
</trkpt>
<trkpt lat="33.8103368" lon="-118.3938665">
  <ele>-6.93</ele>
  <time>2026-09-02T22:12:58Z</time>
  <course>358.45</course>
  <speed>0.9</speed>
  <fix>3d</fix>
</trkpt>
<trkpt lat="33.8103388" lon="-118.3938669">
  <ele>-7.226</ele>
  <time>2026-09-02T22:12:58Z</time>
  <course>1.4</course>
  <speed>0.9119758768739444</speed>
  <fix>3d</fix>
</trkpt>
<trkpt lat="33.8103368" lon="-118.3938665">
  <ele>-6.93</ele>
  <time>2026-09-02T22:12:58Z</time>
  <course>358.45</course>
  <speed>0.9</speed>
  <fix>3d</fix>
</trkpt>
<trkpt lat="33.8103396" lon="-118.3938669">
  <ele>-7.26</ele>
  <time>2026-09-02T22:12:58Z</time>
  <course>1.44</course>
  <speed>0.9119758768739444</speed>
  <fix>3d</fix>
</trkpt>
<trkpt lat="33.8103384" lon="-118.3938665">
  <ele>-6.99</ele>
  <time>2026-09-02T22:12:58Z</time>
  <course>358.17</course>
  <speed>0.89</speed>
  <fix>3d</fix>
</trkpt>
<trkpt lat="33.8103404" lon="-118.3938669">
  <ele>-7.297</ele>
  <time>2026-09-02T22:12:58Z</time>
  <course>1.49</course>
  <speed>0.9119758768739444</speed>
  <fix>3d</fix>
</trkpt>
<trkpt lat="33.8103384" lon="-118.3938665">
  <ele>-6.99</ele>
  <time>2026-09-02T22:12:58Z</time>
  <course>358.17</course>
  <speed>0.89</speed>
  <fix>3d</fix>
</trkpt>
<trkpt lat="33.8103412" lon="-118.3938669">
  <ele>-7.335</ele>
  <time>2026-09-02T22:12:58Z</time>
  <course>1.54</course>
  <speed>0.9013878188659973</speed>
  <fix>3d</fix>
</trkpt>
<trkpt lat="33.8103399" lon="-118.3938665">
  <ele>-7.06</ele>
  <time>2026-09-02T22:12:58Z</time>
  <course>358.05</course>
  <speed>0.88</speed>
  <fix>3d</fix>
</trkpt>
<trkpt lat="33.810342" lon="-118.3938669">
  <ele>-7.373</ele>
  <time>2026-09-02T22:12:58Z</time>
  <course>1.6</course>
  <speed>0.9013878188659973</speed>
  <fix>3d</fix>
</trkpt>
<trkpt lat="33.8103399" lon="-118.3938665">
  <ele>-7.06</ele>
  <time>2026-09-02T22:12:58Z</time>
  <course>358.05</course>
  <speed>0.88</speed>
  <fix>3d</fix>
</trkpt>
<trkpt lat="33.8103428" lon="-118.3938669">
  <ele>-7.414</ele>
  <time>2026-09-02T22:12:58Z</time>
  <course>1.64</course>
  <speed>0.891403387922662</speed>
  <fix>3d</fix>
</trkpt>
<trkpt lat="33.8103416" lon="-118.3938666">
  <ele>-7.14</ele>
  <time>2026-09-02T22:12:58Z</time>
  <course>357.97</course>
  <speed>0.88</speed>
  <fix>3d</fix>
</trkpt>
<trkpt lat="33.8103436" lon="-118.3938669">
  <ele>-7.456</ele>
  <time>2026-09-02T22:12:58Z</time>
  <course>1.69</course>
  <speed>0.891403387922662</speed>
  <fix>3d</fix>
</trkpt>
<trkpt lat="33.8103416" lon="-118.3938666">
  <ele>-7.14</ele>
  <time>2026-09-02T22:12:58Z</time>
  <course>357.97</course>
  <speed>0.88</speed>
  <fix>3d</fix>
</trkpt>
<trkpt lat="33.8103443" lon="-118.3938669">
  <ele>-7.499</ele>
  <time>2026-09-02T22:12:58Z</time>
  <course>1.74</course>
  <speed>0.8814193099768123</speed>
  <fix>3d</fix>
</trkpt>
<trkpt lat="33.8103432" lon="-118.3938666">
  <ele>-7.22</ele>
  <time>2026-09-02T22:12:58Z</time>
  <course>357.9</course>
  <speed>0.87</speed>
  <fix>3d</fix>
</trkpt>
<trkpt lat="33.8103451" lon="-118.3938669">
  <ele>-7.545</ele>
  <time>2026-09-02T22:12:58Z</time>
  <course>1.8</course>
  <speed>0.8814193099768123</speed>
  <fix>3d</fix>
</trkpt>
<trkpt lat="33.8103432" lon="-118.3938666">
  <ele>-7.22</ele>
  <time>2026-09-02T22:12:58Z</time>
  <course>357.9</course>
  <speed>0.87</speed>
  <fix>3d</fix>
</trkpt>
<trkpt lat="33.8103459" lon="-118.393867">
  <ele>-7.591</ele>
  <time>2026-09-02T22:12:58Z</time>
  <course>1.85</course>
  <speed>0.8809086218218095</speed>
  <fix>3d</fix>
</trkpt>
<trkpt lat="33.8103447" lon="-118.3938667">
  <ele>-7.3</ele>
  <time>2026-09-02T22:12:58Z</time>
  <course>357.87</course>
  <speed>0.87</speed>
  <fix>3d</fix>
</trkpt>
<trkpt lat="33.8103467" lon="-118.393867">
  <ele>-7.637</ele>
  <time>2026-09-02T22:12:58Z</time>
  <course>1.9</course>
  <speed>0.8709190547921202</speed>
  <fix>3d</fix>
</trkpt>
<trkpt lat="33.8103447" lon="-118.3938667">
  <ele>-7.3</ele>
  <time>2026-09-02T22:12:58Z</time>
  <course>357.87</course>
  <speed>0.87</speed>
  <fix>3d</fix>
</trkpt>
<trkpt lat="33.8103474" lon="-118.393867">
  <ele>-7.683</ele>
  <time>2026-09-02T22:12:58Z</time>
  <course>1.97</course>
  <speed>0.8709190547921202</speed>
  <fix>3d</fix>
</trkpt>
<trkpt lat="33.8103463" lon="-118.3938668">
  <ele>-7.39</ele>
  <time>2026-09-02T22:12:58Z</time>
  <course>357.86</course>
  <speed>0.86</speed>
  <fix>3d</fix>
</trkpt>
<trkpt lat="33.8103482" lon="-118.393867">
  <ele>-7.729</ele>
  <time>2026-09-02T22:12:58Z</time>
  <course>2.05</course>
  <speed>0.8709190547921202</speed>
  <fix>3d</fix>
</trkpt>
<trkpt lat="33.8103463" lon="-118.3938668">
  <ele>-7.39</ele>
  <time>2026-09-02T22:12:58Z</time>
  <course>357.86</course>
  <speed>0.86</speed>
  <fix>3d</fix>
</trkpt>
<trkpt lat="33.810349" lon="-118.393867">
  <ele>-7.775</ele>
  <time>2026-09-02T22:12:58Z</time>
  <course>2.14</course>
  <speed>0.8605230967266364</speed>
  <fix>3d</fix>
</trkpt>
<trkpt lat="33.8103478" lon="-118.3938668">
  <ele>-7.48</ele>
  <time>2026-09-02T22:12:58Z</time>
  <course>357.92</course>
  <speed>0.86</speed>
  <fix>3d</fix>
</trkpt>
<trkpt lat="33.8103497" lon="-118.393867">
  <ele>-7.82</ele>
  <time>2026-09-02T22:12:58Z</time>
  <course>2.24</course>
  <speed>0.8605230967266364</speed>
  <fix>3d</fix>
</trkpt>
<trkpt lat="33.8103478" lon="-118.3938668">
  <ele>-7.48</ele>
  <time>2026-09-02T22:12:58Z</time>
  <course>357.92</course>
  <speed>0.86</speed>
  <fix>3d</fix>
</trkpt>
<trkpt lat="33.8103505" lon="-118.393867">
  <ele>-7.864</ele>
  <time>2026-09-02T22:12:58Z</time>
  <course>2.34</course>
  <speed>0.8605230967266364</speed>
  <fix>3d</fix>
</trkpt>
<trkpt lat="33.8103494" lon="-118.3938669">
  <ele>-7.57</ele>
  <time>2026-09-02T22:12:58Z</time>
  <course>358.03</course>
  <speed>0.85</speed>
  <fix>3d</fix>
</trkpt>
<trkpt lat="33.8103512" lon="-118.393867">
  <ele>-7.907</ele>
  <time>2026-09-02T22:12:58Z</time>
  <course>2.43</course>
  <speed>0.8605230967266364</speed>
  <fix>3d</fix>
</trkpt>
<trkpt lat="33.8103494" lon="-118.3938669">
  <ele>-7.57</ele>
  <time>2026-09-02T22:12:58Z</time>
  <course>358.03</course>
  <speed>0.85</speed>
  <fix>3d</fix>
</trkpt>
<trkpt lat="33.810352" lon="-118.3938671">
  <ele>-7.949</ele>
  <time>2026-09-02T22:12:58Z</time>
  <course>2.52</course>
  <speed>0.8502352615599991</speed>
  <fix>3d</fix>
</trkpt>
<trkpt lat="33.8103509" lon="-118.393867">
  <ele>-7.66</ele>
  <time>2026-09-02T22:12:58Z</time>
  <course>358.12</course>
  <speed>0.85</speed>
  <fix>3d</fix>
</trkpt>
<trkpt lat="33.8103528" lon="-118.3938671">
  <ele>-7.991</ele>
  <time>2026-09-02T22:12:58Z</time>
  <course>2.63</course>
  <speed>0.8502352615599991</speed>
  <fix>3d</fix>
</trkpt>
<trkpt lat="33.8103509" lon="-118.393867">
  <ele>-7.66</ele>
  <time>2026-09-02T22:12:58Z</time>
  <course>358.12</course>
  <speed>0.85</speed>
  <fix>3d</fix>
</trkpt>
<trkpt lat="33.8103535" lon="-118.3938671">
  <ele>-8.034</ele>
  <time>2026-09-02T22:12:58Z</time>
  <course>2.75</course>
  <speed>0.8502352615599991</speed>
  <fix>3d</fix>
</trkpt>
<trkpt lat="33.8103524" lon="-118.393867">
  <ele>-7.75</ele>
  <time>2026-09-02T22:12:58Z</time>
  <course>358.25</course>
  <speed>0.85</speed>
  <fix>3d</fix>
</trkpt>
<trkpt lat="33.8103543" lon="-118.3938671">
  <ele>-8.077</ele>
  <time>2026-09-02T22:12:58Z</time>
  <course>2.87</course>
  <speed>0.8502352615599991</speed>
  <fix>3d</fix>
</trkpt>
<trkpt lat="33.8103524" lon="-118.393867">
  <ele>-7.75</ele>
  <time>2026-09-02T22:12:58Z</time>
  <course>358.25</course>
  <speed>0.85</speed>
  <fix>3d</fix>
</trkpt>
<trkpt lat="33.810355" lon="-118.3938671">
  <ele>-8.12</ele>
  <time>2026-09-02T22:12:58Z</time>
  <course>2.98</course>
  <speed>0.8500588214941364</speed>
  <fix>3d</fix>
</trkpt>
<trkpt lat="33.810354" lon="-118.3938671">
  <ele>-7.84</ele>
  <time>2026-09-02T22:12:58Z</time>
  <course>358.41</course>
  <speed>0.85</speed>
  <fix>3d</fix>
</trkpt>
<trkpt lat="33.8103558" lon="-118.3938672">
  <ele>-8.162</ele>
  <time>2026-09-02T22:12:58Z</time>
  <course>3.09</course>
  <speed>0.8400595217006948</speed>
  <fix>3d</fix>
</trkpt>
<trkpt lat="33.810354" lon="-118.3938671">
  <ele>-7.84</ele>
  <time>2026-09-02T22:12:58Z</time>
  <course>358.41</course>
  <speed>0.85</speed>
  <fix>3d</fix>
</trkpt>
<trkpt lat="33.8103566" lon="-118.3938672">
  <ele>-8.203</ele>
  <time>2026-09-02T22:12:58Z</time>
  <course>3.19</course>
  <speed>0.8400595217006948</speed>
  <fix>3d</fix>
</trkpt>
<trkpt lat="33.8103555" lon="-118.3938671">
  <ele>-7.92</ele>
  <time>2026-09-02T22:12:58Z</time>
  <course>358.57</course>
  <speed>0.84</speed>
  <fix>3d</fix>
</trkpt>
<trkpt lat="33.8103573" lon="-118.3938672">
  <ele>-8.243</ele>
  <time>2026-09-02T22:12:58Z</time>
  <course>3.29</course>
  <speed>0.8400595217006948</speed>
  <fix>3d</fix>
</trkpt>
<trkpt lat="33.8103555" lon="-118.3938671">
  <ele>-7.92</ele>
  <time>2026-09-02T22:12:58Z</time>
  <course>358.57</course>
  <speed>0.84</speed>
  <fix>3d</fix>
</trkpt>
<trkpt lat="33.8103581" lon="-118.3938672">
  <ele>-8.283</ele>
  <time>2026-09-02T22:12:58Z</time>
  <course>3.39</course>
  <speed>0.8400595217006948</speed>
  <fix>3d</fix>
</trkpt>
<trkpt lat="33.810357" lon="-118.3938672">
  <ele>-8.0</ele>
  <time>2026-09-02T22:12:58Z</time>
  <course>358.7</course>
  <speed>0.84</speed>
  <fix>3d</fix>
</trkpt>
<trkpt lat="33.8103588" lon="-118.3938672">
  <ele>-8.322</ele>
  <time>2026-09-02T22:12:58Z</time>
  <course>3.48</course>
  <speed>0.84</speed>
  <fix>3d</fix>
</trkpt>
<trkpt lat="33.810357" lon="-118.3938672">
  <ele>-8.0</ele>
  <time>2026-09-02T22:12:58Z</time>
  <course>358.7</course>
  <speed>0.84</speed>
  <fix>3d</fix>
</trkpt>
<trkpt lat="33.8103596" lon="-118.3938672">
  <ele>-8.361</ele>
  <time>2026-09-02T22:12:58Z</time>
  <course>3.57</course>
  <speed>0.84</speed>
  <fix>3d</fix>
</trkpt>
<trkpt lat="33.8103586" lon="-118.3938672">
  <ele>-8.07</ele>
  <time>2026-09-02T22:12:58Z</time>
  <course>358.85</course>
  <speed>0.84</speed>
  <fix>3d</fix>
</trkpt>
<trkpt lat="33.8103603" lon="-118.3938672">
  <ele>-8.4</ele>
  <time>2026-09-02T22:12:58Z</time>
  <course>3.66</course>
  <speed>0.84</speed>
  <fix>3d</fix>
</trkpt>
<trkpt lat="33.8103586" lon="-118.3938672">
  <ele>-8.07</ele>
  <time>2026-09-02T22:12:58Z</time>
  <course>358.85</course>
  <speed>0.84</speed>
  <fix>3d</fix>
</trkpt>
<trkpt lat="33.8103611" lon="-118.3938672">
  <ele>-8.438</ele>
  <time>2026-09-02T22:12:58Z</time>
  <course>3.74</course>
  <speed>0.83</speed>
  <fix>3d</fix>
</trkpt>
<trkpt lat="33.8103601" lon="-118.3938673">
  <ele>-8.14</ele>
  <time>2026-09-02T22:12:58Z</time>
  <course>358.99</course>
  <speed>0.84</speed>
  <fix>3d</fix>
</trkpt>
<trkpt lat="33.8103618" lon="-118.3938672">
  <ele>-8.477</ele>
  <time>2026-09-02T22:12:58Z</time>
  <course>3.82</course>
  <speed>0.83</speed>
  <fix>3d</fix>
</trkpt>
<trkpt lat="33.8103601" lon="-118.3938673">
  <ele>-8.14</ele>
  <time>2026-09-02T22:12:58Z</time>
  <course>358.99</course>
  <speed>0.84</speed>
  <fix>3d</fix>
</trkpt>
<trkpt lat="33.8103626" lon="-118.3938672">
  <ele>-8.517</ele>
  <time>2026-09-02T22:12:58Z</time>
  <course>3.9</course>
  <speed>0.83</speed>
  <fix>3d</fix>
</trkpt>
<trkpt lat="33.8103616" lon="-118.3938673">
  <ele>-8.22</ele>
  <time>2026-09-02T22:12:58Z</time>
  <course>359.12</course>
  <speed>0.84</speed>
  <fix>3d</fix>
</trkpt>
<trkpt lat="33.8103634" lon="-118.3938673">
  <ele>-8.557</ele>
  <time>2026-09-02T22:12:58Z</time>
  <course>3.98</course>
  <speed>0.83</speed>
  <fix>3d</fix>
</trkpt>
<trkpt lat="33.8103616" lon="-118.3938673">
  <ele>-8.22</ele>
  <time>2026-09-02T22:12:58Z</time>
  <course>359.12</course>
  <speed>0.84</speed>
  <fix>3d</fix>
</trkpt>
<trkpt lat="33.8103641" lon="-118.3938673">
  <ele>-8.597</ele>
  <time>2026-09-02T22:12:58Z</time>
  <course>4.05</course>
  <speed>0.83</speed>
  <fix>3d</fix>
</trkpt>
<trkpt lat="33.8103631" lon="-118.3938673">
  <ele>-8.3</ele>
  <time>2026-09-02T22:12:58Z</time>
  <course>359.26</course>
  <speed>0.84</speed>
  <fix>3d</fix>
</trkpt>
<trkpt lat="33.8103649" lon="-118.3938673">
  <ele>-8.638</ele>
  <time>2026-09-02T22:12:58Z</time>
  <course>4.12</course>
  <speed>0.83</speed>
  <fix>3d</fix>
</trkpt>
<trkpt lat="33.8103631" lon="-118.3938673">
  <ele>-8.3</ele>
  <time>2026-09-02T22:12:58Z</time>
  <course>359.26</course>
  <speed>0.84</speed>
  <fix>3d</fix>
</trkpt>
<trkpt lat="33.8103656" lon="-118.3938673">
  <ele>-8.679</ele>
  <time>2026-09-02T22:12:58Z</time>
  <course>4.17</course>
  <speed>0.83</speed>
  <fix>3d</fix>
</trkpt>
<trkpt lat="33.8103646" lon="-118.3938673">
  <ele>-8.38</ele>
  <time>2026-09-02T22:12:58Z</time>
  <course>359.36</course>
  <speed>0.84</speed>
  <fix>3d</fix>
</trkpt>
<trkpt lat="33.8103664" lon="-118.3938673">
  <ele>-8.721</ele>
  <time>2026-09-02T22:12:58Z</time>
  <course>4.21</course>
  <speed>0.83</speed>
  <fix>3d</fix>
</trkpt>
<trkpt lat="33.8103646" lon="-118.3938673">
  <ele>-8.38</ele>
  <time>2026-09-02T22:12:58Z</time>
  <course>359.36</course>
  <speed>0.84</speed>
  <fix>3d</fix>
</trkpt>
<trkpt lat="33.8103671" lon="-118.3938673">
  <ele>-8.763</ele>
  <time>2026-09-02T22:12:58Z</time>
  <course>4.23</course>
  <speed>0.83</speed>
  <fix>3d</fix>
</trkpt>
<trkpt lat="33.8103661" lon="-118.3938674">
  <ele>-8.46</ele>
  <time>2026-09-02T22:12:58Z</time>
  <course>359.43</course>
  <speed>0.84</speed>
  <fix>3d</fix>
</trkpt>
<trkpt lat="33.8103679" lon="-118.3938673">
  <ele>-8.806</ele>
  <time>2026-09-02T22:12:58Z</time>
  <course>4.25</course>
  <speed>0.83</speed>
  <fix>3d</fix>
</trkpt>
<trkpt lat="33.8103661" lon="-118.3938674">
  <ele>-8.46</ele>
  <time>2026-09-02T22:12:58Z</time>
  <course>359.43</course>
  <speed>0.84</speed>
  <fix>3d</fix>
</trkpt>
<trkpt lat="33.8103686" lon="-118.3938673">
  <ele>-8.85</ele>
  <time>2026-09-02T22:12:58Z</time>
  <course>4.28</course>
  <speed>0.83</speed>
  <fix>3d</fix>
</trkpt>
<trkpt lat="33.8103677" lon="-118.3938674">
  <ele>-8.54</ele>
  <time>2026-09-02T22:12:58Z</time>
  <course>359.49</course>
  <speed>0.84</speed>
  <fix>3d</fix>
</trkpt>
<trkpt lat="33.8103694" lon="-118.3938673">
  <ele>-8.894</ele>
  <time>2026-09-02T22:12:58Z</time>
  <course>4.32</course>
  <speed>0.83</speed>
  <fix>3d</fix>
</trkpt>
<trkpt lat="33.8103677" lon="-118.3938674">
  <ele>-8.54</ele>
  <time>2026-09-02T22:12:58Z</time>
  <course>359.49</course>
  <speed>0.84</speed>
  <fix>3d</fix>
</trkpt>
<trkpt lat="33.8103701" lon="-118.3938673">
  <ele>-8.939</ele>
  <time>2026-09-02T22:12:58Z</time>
  <course>4.35</course>
  <speed>0.83</speed>
  <fix>3d</fix>
</trkpt>
<trkpt lat="33.8103692" lon="-118.3938674">
  <ele>-8.63</ele>
  <time>2026-09-02T22:12:58Z</time>
  <course>359.56</course>
  <speed>0.84</speed>
  <fix>3d</fix>
</trkpt>
<trkpt lat="33.8103709" lon="-118.3938673">
  <ele>-8.984</ele>
  <time>2026-09-02T22:12:58Z</time>
  <course>4.39</course>
  <speed>0.83</speed>
  <fix>3d</fix>
</trkpt>
<trkpt lat="33.8103692" lon="-118.3938674">
  <ele>-8.63</ele>
  <time>2026-09-02T22:12:58Z</time>
  <course>359.56</course>
  <speed>0.84</speed>
  <fix>3d</fix>
</trkpt>
<trkpt lat="33.8103717" lon="-118.3938673">
  <ele>-9.029</ele>
  <time>2026-09-02T22:12:58Z</time>
  <course>4.41</course>
  <speed>0.83</speed>
  <fix>3d</fix>
</trkpt>
<trkpt lat="33.8103707" lon="-118.3938674">
  <ele>-8.71</ele>
  <time>2026-09-02T22:12:58Z</time>
  <course>359.65</course>
  <speed>0.84</speed>
  <fix>3d</fix>
</trkpt>
<trkpt lat="33.8103724" lon="-118.3938673">
  <ele>-9.074</ele>
  <time>2026-09-02T22:12:58Z</time>
  <course>4.42</course>
  <speed>0.8300602387778854</speed>
  <fix>3d</fix>
</trkpt>
<trkpt lat="33.8103707" lon="-118.3938674">
  <ele>-8.71</ele>
  <time>2026-09-02T22:12:58Z</time>
  <course>359.65</course>
  <speed>0.84</speed>
  <fix>3d</fix>
</trkpt>
<trkpt lat="33.8103732" lon="-118.3938673">
  <ele>-9.12</ele>
  <time>2026-09-02T22:12:58Z</time>
  <course>4.43</course>
  <speed>0.8300602387778854</speed>
  <fix>3d</fix>
</trkpt>
<trkpt lat="33.8103722" lon="-118.3938674">
  <ele>-8.8</ele>
  <time>2026-09-02T22:12:58Z</time>
  <course>359.7</course>
  <speed>0.85</speed>
  <fix>3d</fix>
</trkpt>
<trkpt lat="33.8103739" lon="-118.3938673">
  <ele>-9.165</ele>
  <time>2026-09-02T22:12:58Z</time>
  <course>4.42</course>
  <speed>0.8300602387778854</speed>
  <fix>3d</fix>
</trkpt>
<trkpt lat="33.8103722" lon="-118.3938674">
  <ele>-8.8</ele>
  <time>2026-09-02T22:12:58Z</time>
  <course>359.7</course>
  <speed>0.85</speed>
  <fix>3d</fix>
</trkpt>
<trkpt lat="33.8103747" lon="-118.3938673">
  <ele>-9.21</ele>
  <time>2026-09-02T22:12:58Z</time>
  <course>4.41</course>
  <speed>0.8300602387778854</speed>
  <fix>3d</fix>
</trkpt>
<trkpt lat="33.8103737" lon="-118.3938674">
  <ele>-8.88</ele>
  <time>2026-09-02T22:12:58Z</time>
  <course>359.71</course>
  <speed>0.85</speed>
  <fix>3d</fix>
</trkpt>
<trkpt lat="33.8103755" lon="-118.3938673">
  <ele>-9.253</ele>
  <time>2026-09-02T22:12:58Z</time>
  <course>4.39</course>
  <speed>0.8300602387778854</speed>
  <fix>3d</fix>
</trkpt>
<trkpt lat="33.8103737" lon="-118.3938674">
  <ele>-8.88</ele>
  <time>2026-09-02T22:12:58Z</time>
  <course>359.71</course>
  <speed>0.85</speed>
  <fix>3d</fix>
</trkpt>
<trkpt lat="33.8103762" lon="-118.3938673">
  <ele>-9.296</ele>
  <time>2026-09-02T22:12:58Z</time>
  <course>4.37</course>
  <speed>0.8300602387778854</speed>
  <fix>3d</fix>
</trkpt>
<trkpt lat="33.8103753" lon="-118.3938674">
  <ele>-8.97</ele>
  <time>2026-09-02T22:12:58Z</time>
  <course>359.7</course>
  <speed>0.85</speed>
  <fix>3d</fix>
</trkpt>
<trkpt lat="33.810377" lon="-118.3938673">
  <ele>-9.339</ele>
  <time>2026-09-02T22:12:58Z</time>
  <course>4.35</course>
  <speed>0.8400595217006948</speed>
  <fix>3d</fix>
</trkpt>
<trkpt lat="33.8103753" lon="-118.3938674">
  <ele>-8.97</ele>
  <time>2026-09-02T22:12:58Z</time>
  <course>359.7</course>
  <speed>0.85</speed>
  <fix>3d</fix>
</trkpt>
<trkpt lat="33.8103778" lon="-118.3938673">
  <ele>-9.384</ele>
  <time>2026-09-02T22:12:58Z</time>
  <course>4.32</course>
  <speed>0.8400595217006948</speed>
  <fix>3d</fix>
</trkpt>
<trkpt lat="33.8103768" lon="-118.3938674">
  <ele>-9.05</ele>
  <time>2026-09-02T22:12:58Z</time>
  <course>359.68</course>
  <speed>0.85</speed>
  <fix>3d</fix>
</trkpt>
<trkpt lat="33.8103785" lon="-118.3938673">
  <ele>-9.428</ele>
  <time>2026-09-02T22:12:58Z</time>
  <course>4.29</course>
  <speed>0.8400595217006948</speed>
  <fix>3d</fix>
</trkpt>
<trkpt lat="33.8103768" lon="-118.3938674">
  <ele>-9.05</ele>
  <time>2026-09-02T22:12:58Z</time>
  <course>359.68</course>
  <speed>0.85</speed>
  <fix>3d</fix>
</trkpt>
<trkpt lat="33.8103793" lon="-118.3938673">
  <ele>-9.471</ele>
  <time>2026-09-02T22:12:58Z</time>
  <course>4.26</course>
  <speed>0.8400595217006948</speed>
  <fix>3d</fix>
</trkpt>
<trkpt lat="33.8103784" lon="-118.3938675">
  <ele>-9.14</ele>
  <time>2026-09-02T22:12:58Z</time>
  <course>359.65</course>
  <speed>0.86</speed>
  <fix>3d</fix>
</trkpt>
<trkpt lat="33.8103801" lon="-118.3938673">
  <ele>-9.514</ele>
  <time>2026-09-02T22:12:58Z</time>
  <course>4.23</course>
  <speed>0.8400595217006948</speed>
  <fix>3d</fix>
</trkpt>
<trkpt lat="33.8103784" lon="-118.3938675">
  <ele>-9.14</ele>
  <time>2026-09-02T22:12:58Z</time>
  <course>359.65</course>
  <speed>0.86</speed>
  <fix>3d</fix>
</trkpt>
<trkpt lat="33.8103809" lon="-118.3938673">
  <ele>-9.556</ele>
  <time>2026-09-02T22:12:58Z</time>
  <course>4.23</course>
  <speed>0.8400595217006948</speed>
  <fix>3d</fix>
</trkpt>
<trkpt lat="33.8103799" lon="-118.3938675">
  <ele>-9.22</ele>
  <time>2026-09-02T22:12:58Z</time>
  <course>359.66</course>
  <speed>0.86</speed>
  <fix>3d</fix>
</trkpt>
<trkpt lat="33.8103816" lon="-118.3938673">
  <ele>-9.598</ele>
  <time>2026-09-02T22:12:58Z</time>
  <course>4.24</course>
  <speed>0.8400595217006948</speed>
  <fix>3d</fix>
</trkpt>
<trkpt lat="33.8103799" lon="-118.3938675">
  <ele>-9.22</ele>
  <time>2026-09-02T22:12:58Z</time>
  <course>359.66</course>
  <speed>0.86</speed>
  <fix>3d</fix>
</trkpt>
<trkpt lat="33.8103824" lon="-118.3938673">
  <ele>-9.639</ele>
  <time>2026-09-02T22:12:58Z</time>
  <course>4.26</course>
  <speed>0.8400595217006948</speed>
  <fix>3d</fix>
</trkpt>
<trkpt lat="33.8103815" lon="-118.3938675">
  <ele>-9.31</ele>
  <time>2026-09-02T22:12:58Z</time>
  <course>359.73</course>
  <speed>0.86</speed>
  <fix>3d</fix>
</trkpt>
<trkpt lat="33.8103832" lon="-118.3938673">
  <ele>-9.681</ele>
  <time>2026-09-02T22:12:58Z</time>
  <course>4.27</course>
  <speed>0.8400595217006948</speed>
  <fix>3d</fix>
</trkpt>
<trkpt lat="33.8103815" lon="-118.3938675">
  <ele>-9.31</ele>
  <time>2026-09-02T22:12:58Z</time>
  <course>359.73</course>
  <speed>0.86</speed>
  <fix>3d</fix>
</trkpt>
<trkpt lat="33.8103839" lon="-118.3938673">
  <ele>-9.724</ele>
  <time>2026-09-02T22:12:58Z</time>
  <course>4.28</course>
  <speed>0.8400595217006948</speed>
  <fix>3d</fix>
</trkpt>
<trkpt lat="33.810383" lon="-118.3938675">
  <ele>-9.39</ele>
  <time>2026-09-02T22:12:58Z</time>
  <course>359.81</course>
  <speed>0.86</speed>
  <fix>3d</fix>
</trkpt>
<trkpt lat="33.8103847" lon="-118.3938673">
  <ele>-9.768</ele>
  <time>2026-09-02T22:12:58Z</time>
  <course>4.29</course>
  <speed>0.8100617260431454</speed>
  <fix>3d</fix>
</trkpt>
<trkpt lat="33.810383" lon="-118.3938675">
  <ele>-9.39</ele>
  <time>2026-09-02T22:12:58Z</time>
  <course>359.81</course>
  <speed>0.86</speed>
  <fix>3d</fix>
</trkpt>
<trkpt lat="33.8103854" lon="-118.3938673">
  <ele>-9.811</ele>
  <time>2026-09-02T22:12:58Z</time>
  <course>4.33</course>
  <speed>0.6700746227100381</speed>
  <fix>3d</fix>
</trkpt>
<trkpt lat="33.8103846" lon="-118.3938675">
  <ele>-9.47</ele>
  <time>2026-09-02T22:12:58Z</time>
  <course>359.93</course>
  <speed>0.83</speed>
  <fix>3d</fix>
</trkpt>
<trkpt lat="33.810386" lon="-118.3938673">
  <ele>-9.846</ele>
  <time>2026-09-02T22:12:58Z</time>
  <course>4.52</course>
  <speed>0.570350769263968</speed>
  <fix>3d</fix>
</trkpt>
<trkpt lat="33.8103846" lon="-118.3938675">
  <ele>-9.47</ele>
  <time>2026-09-02T22:12:58Z</time>
  <course>359.93</course>
  <speed>0.83</speed>
  <fix>3d</fix>
</trkpt>
<trkpt lat="33.8103865" lon="-118.3938673">
  <ele>-9.874</ele>
  <time>2026-09-02T22:12:58Z</time>
  <course>4.91</course>
  <speed>0.48041648597857256</speed>
  <fix>3d</fix>
</trkpt>
<trkpt lat="33.810386" lon="-118.3938675">
  <ele>-9.55</ele>
  <time>2026-09-02T22:12:58Z</time>
  <course>0.37</course>
  <speed>0.68</speed>
  <fix>3d</fix>
</trkpt>
<trkpt lat="33.8103869" lon="-118.3938673">
  <ele>-9.894</ele>
  <time>2026-09-02T22:12:58Z</time>
  <course>5.46</course>
  <speed>0.41048751503547587</speed>
  <fix>3d</fix>
</trkpt>
<trkpt lat="33.810386" lon="-118.3938675">
  <ele>-9.55</ele>
  <time>2026-09-02T22:12:58Z</time>
  <course>0.37</course>
  <speed>0.68</speed>
  <fix>3d</fix>
</trkpt>
<trkpt lat="33.8103873" lon="-118.3938673">
  <ele>-9.906</ele>
  <time>2026-09-02T22:12:58Z</time>
  <course>6.18</course>
  <speed>0.3505709628591621</speed>
  <fix>3d</fix>
</trkpt>
<trkpt lat="33.810387" lon="-118.3938675">
  <ele>-9.61</ele>
  <time>2026-09-02T22:12:58Z</time>
  <course>1.24</course>
  <speed>0.5</speed>
  <fix>3d</fix>
</trkpt>
<trkpt lat="33.8103876" lon="-118.3938673">
  <ele>-9.912</ele>
  <time>2026-09-02T22:12:58Z</time>
  <course>7.07</course>
  <speed>0.30016662039607267</speed>
  <fix>3d</fix>
</trkpt>
<trkpt lat="33.810387" lon="-118.3938675">
  <ele>-9.61</ele>
  <time>2026-09-02T22:12:58Z</time>
  <course>1.24</course>
  <speed>0.5</speed>
  <fix>3d</fix>
</trkpt>
<trkpt lat="33.8103879" lon="-118.3938673">
  <ele>-9.915</ele>
  <time>2026-09-02T22:12:58Z</time>
  <course>8.18</course>
  <speed>0.260768096208106</speed>
  <fix>3d</fix>
</trkpt>
<trkpt lat="33.8103878" lon="-118.3938675">
  <ele>-9.64</ele>
  <time>2026-09-02T22:12:58Z</time>
  <course>2.04</course>
  <speed>0.37</speed>
  <fix>3d</fix>
</trkpt>
<trkpt lat="33.8103881" lon="-118.3938673">
  <ele>-9.916</ele>
  <time>2026-09-02T22:12:58Z</time>
  <course>9.8</course>
  <speed>0.22090722034374521</speed>
  <fix>3d</fix>
</trkpt>
<trkpt lat="33.8103878" lon="-118.3938675">
  <ele>-9.64</ele>
  <time>2026-09-02T22:12:58Z</time>
  <course>2.04</course>
  <speed>0.37</speed>
  <fix>3d</fix>
</trkpt>
<trkpt lat="33.8103884" lon="-118.3938673">
  <ele>-9.916</ele>
  <time>2026-09-02T22:12:58Z</time>
  <course>10.82</course>
  <speed>0.2009975124224178</speed>
  <fix>3d</fix>
</trkpt>
<trkpt lat="33.8103884" lon="-118.3938675">
  <ele>-9.65</ele>
  <time>2026-09-02T22:12:58Z</time>
  <course>3.19</course>
  <speed>0.28</speed>
  <fix>3d</fix>
</trkpt>
<trkpt lat="33.8103886" lon="-118.3938673">
  <ele>-9.914</ele>
  <time>2026-09-02T22:12:58Z</time>
  <course>10.31</course>
  <speed>0.2009975124224178</speed>
  <fix>3d</fix>
</trkpt>
<trkpt lat="33.8103884" lon="-118.3938675">
  <ele>-9.65</ele>
  <time>2026-09-02T22:12:58Z</time>
  <course>3.19</course>
  <speed>0.28</speed>
  <fix>3d</fix>
</trkpt>
<trkpt lat="33.8103888" lon="-118.3938673">
  <ele>-9.911</ele>
  <time>2026-09-02T22:12:58Z</time>
  <course>8.84</course>
  <speed>0.191049731745428</speed>
  <fix>3d</fix>
</trkpt>
<trkpt lat="33.8103889" lon="-118.3938675">
  <ele>-9.66</ele>
  <time>2026-09-02T22:12:58Z</time>
  <course>4.33</course>
  <speed>0.23</speed>
  <fix>3d</fix>
</trkpt>
<trkpt lat="33.8103888" lon="-118.3938673">
  <ele>-9.908</ele>
  <time>2026-09-02T22:12:58Z</time>
  <course>6.9</course>
  <speed>0.5048762224545735</speed>
  <fix>3d</fix>
</trkpt>
<trkpt lat="33.8103889" lon="-118.3938675">
  <ele>-9.66</ele>
  <time>2026-09-02T22:12:58Z</time>
  <course>4.33</course>
  <speed>0.23</speed>
  <fix>3d</fix>
</trkpt>
<trkpt lat="33.810388" lon="-118.3938674">
  <ele>-9.912</ele>
  <time>2026-09-02T22:12:58Z</time>
  <course>5.4</course>
  <speed>1.393018305694509</speed>
  <fix>3d</fix>
</trkpt>
<trkpt lat="33.8103892" lon="-118.3938674">
  <ele>-9.66</ele>
  <time>2026-09-02T22:12:58Z</time>
  <course>187.72</course>
  <speed>0.27</speed>
  <fix>3d</fix>
</trkpt>
<trkpt lat="33.8103866" lon="-118.3938677">
  <ele>-9.928</ele>
  <time>2026-09-02T22:12:58Z</time>
  <course>4.48</course>
  <speed>1.6659531806146293</speed>
  <fix>3d</fix>
</trkpt>
<trkpt lat="33.8103892" lon="-118.3938674">
  <ele>-9.66</ele>
  <time>2026-09-02T22:12:58Z</time>
  <course>187.72</course>
  <speed>0.27</speed>
  <fix>3d</fix>
</trkpt>
<trkpt lat="33.8103851" lon="-118.3938679">
  <ele>-9.954</ele>
  <time>2026-09-02T22:12:58Z</time>
  <course>4.02</course>
  <speed>1.708391055935379</speed>
  <fix>3d</fix>
</trkpt>
<trkpt lat="33.810388" lon="-118.3938675">
  <ele>-9.67</ele>
  <time>2026-09-02T22:12:58Z</time>
  <course>186.79</course>
  <speed>1.21</speed>
  <fix>3d</fix>
</trkpt>
<trkpt lat="33.8103837" lon="-118.3938682">
  <ele>-9.99</ele>
  <time>2026-09-02T22:12:58Z</time>
  <course>3.82</course>
  <speed>1.6886088949191285</speed>
  <fix>3d</fix>
</trkpt>
<trkpt lat="33.810388" lon="-118.3938675">
  <ele>-9.67</ele>
  <time>2026-09-02T22:12:58Z</time>
  <course>186.79</course>
  <speed>1.21</speed>
  <fix>3d</fix>
</trkpt>
<trkpt lat="33.8103823" lon="-118.3938684">
  <ele>-10.038</ele>
  <time>2026-09-02T22:12:58Z</time>
  <course>3.75</course>
  <speed>1.6574679484080528</speed>
  <fix>3d</fix>
</trkpt>
<trkpt lat="33.8103852" lon="-118.3938679">
  <ele>-9.71</ele>
  <time>2026-09-02T22:12:58Z</time>
  <course>186.98</course>
  <speed>1.65</speed>
  <fix>3d</fix>
</trkpt>
<trkpt lat="33.8103809" lon="-118.3938687">
  <ele>-10.096</ele>
  <time>2026-09-02T22:12:58Z</time>
  <course>3.73</course>
  <speed>1.6164467204334327</speed>
  <fix>3d</fix>
</trkpt>
<trkpt lat="33.8103852" lon="-118.3938679">
  <ele>-9.71</ele>
  <time>2026-09-02T22:12:58Z</time>
  <course>186.98</course>
  <speed>1.65</speed>
  <fix>3d</fix>
</trkpt>
<trkpt lat="33.8103795" lon="-118.3938689">
  <ele>-10.164</ele>
  <time>2026-09-02T22:12:58Z</time>
  <course>3.74</course>
  <speed>1.5754364474646383</speed>
  <fix>3d</fix>
</trkpt>
<trkpt lat="33.8103823" lon="-118.3938684">
  <ele>-9.8</ele>
  <time>2026-09-02T22:12:58Z</time>
  <course>187.16</course>
  <speed>1.62</speed>
  <fix>3d</fix>
</trkpt>
<trkpt lat="33.8103782" lon="-118.3938691">
  <ele>-10.243</ele>
  <time>2026-09-02T22:12:58Z</time>
  <course>3.74</course>
  <speed>1.54434452114805</speed>
  <fix>3d</fix>
</trkpt>
<trkpt lat="33.8103823" lon="-118.3938684">
  <ele>-9.8</ele>
  <time>2026-09-02T22:12:58Z</time>
  <course>187.16</course>
  <speed>1.62</speed>
  <fix>3d</fix>
</trkpt>
<trkpt lat="33.8103769" lon="-118.3938693">
  <ele>-10.332</ele>
  <time>2026-09-02T22:12:58Z</time>
  <course>3.72</course>
  <speed>1.5119854496654392</speed>
  <fix>3d</fix>
</trkpt>
<trkpt lat="33.8103794" lon="-118.3938688">
  <ele>-9.93</ele>
  <time>2026-09-02T22:12:58Z</time>
  <course>187.03</course>
  <speed>1.55</speed>
  <fix>3d</fix>
</trkpt>
<trkpt lat="33.8103756" lon="-118.3938695">
  <ele>-10.431</ele>
  <time>2026-09-02T22:12:58Z</time>
  <course>3.72</course>
  <speed>1.4909057649630306</speed>
  <fix>3d</fix>
</trkpt>
<trkpt lat="33.8103794" lon="-118.3938688">
  <ele>-9.93</ele>
  <time>2026-09-02T22:12:58Z</time>
  <course>187.03</course>
  <speed>1.55</speed>
  <fix>3d</fix>
</trkpt>
<trkpt lat="33.8103743" lon="-118.3938696">
  <ele>-10.54</ele>
  <time>2026-09-02T22:12:58Z</time>
  <course>3.73</course>
  <speed>1.4797972834141846</speed>
  <fix>3d</fix>
</trkpt>
<trkpt lat="33.8103767" lon="-118.3938692">
  <ele>-10.1</ele>
  <time>2026-09-02T22:12:58Z</time>
  <course>186.71</course>
  <speed>1.5</speed>
  <fix>3d</fix>
</trkpt>
<trkpt lat="33.810373" lon="-118.3938698">
  <ele>-10.66</ele>
  <time>2026-09-02T22:12:58Z</time>
  <course>3.78</course>
  <speed>1.4687409574189727</speed>
  <fix>3d</fix>
</trkpt>
<trkpt lat="33.8103767" lon="-118.3938692">
  <ele>-10.1</ele>
  <time>2026-09-02T22:12:58Z</time>
  <course>186.71</course>
  <speed>1.5</speed>
  <fix>3d</fix>
</trkpt>
<trkpt lat="33.8103718" lon="-118.3938699">
  <ele>-10.788</ele>
  <time>2026-09-02T22:12:58Z</time>
  <course>3.83</course>
  <speed>1.4676852523616908</speed>
  <fix>3d</fix>
</trkpt>
<trkpt lat="33.8103741" lon="-118.3938695">
  <ele>-10.3</ele>
  <time>2026-09-02T22:12:58Z</time>
  <course>186.3</course>
  <speed>1.47</speed>
  <fix>3d</fix>
</trkpt>
<trkpt lat="33.8103705" lon="-118.3938701">
  <ele>-10.918</ele>
  <time>2026-09-02T22:12:58Z</time>
  <course>3.9</course>
  <speed>1.4676852523616908</speed>
  <fix>3d</fix>
</trkpt>
<trkpt lat="33.8103741" lon="-118.3938695">
  <ele>-10.3</ele>
  <time>2026-09-02T22:12:58Z</time>
  <course>186.3</course>
  <speed>1.47</speed>
  <fix>3d</fix>
</trkpt>
<trkpt lat="33.8103692" lon="-118.3938702">
  <ele>-11.05</ele>
  <time>2026-09-02T22:12:58Z</time>
  <course>3.98</course>
  <speed>1.4666969693839282</speed>
  <fix>3d</fix>
</trkpt>
<trkpt lat="33.8103715" lon="-118.3938699">
  <ele>-10.54</ele>
  <time>2026-09-02T22:12:58Z</time>
  <course>185.86</course>
  <speed>1.46</speed>
  <fix>3d</fix>
</trkpt>
<trkpt lat="33.8103679" lon="-118.3938704">
  <ele>-11.182</ele>
  <time>2026-09-02T22:12:58Z</time>
  <course>4.05</course>
  <speed>1.4657762448614045</speed>
  <fix>3d</fix>
</trkpt>
<trkpt lat="33.8103715" lon="-118.3938699">
  <ele>-10.54</ele>
  <time>2026-09-02T22:12:58Z</time>
  <course>185.86</course>
  <speed>1.46</speed>
  <fix>3d</fix>
</trkpt>
<trkpt lat="33.8103667" lon="-118.3938705">
  <ele>-11.313</ele>
  <time>2026-09-02T22:12:58Z</time>
  <course>4.12</course>
  <speed>1.4657762448614045</speed>
  <fix>3d</fix>
</trkpt>
<trkpt lat="33.8103689" lon="-118.3938702">
  <ele>-10.78</ele>
  <time>2026-09-02T22:12:58Z</time>
  <course>185.47</course>
  <speed>1.45</speed>
  <fix>3d</fix>
</trkpt>
<trkpt lat="33.8103654" lon="-118.3938706">
  <ele>-11.445</ele>
  <time>2026-09-02T22:12:58Z</time>
  <course>4.19</course>
  <speed>1.464923206178399</speed>
  <fix>3d</fix>
</trkpt>
<trkpt lat="33.8103689" lon="-118.3938702">
  <ele>-10.78</ele>
  <time>2026-09-02T22:12:58Z</time>
  <course>185.47</course>
  <speed>1.45</speed>
  <fix>3d</fix>
</trkpt>
<trkpt lat="33.8103641" lon="-118.3938707">
  <ele>-11.577</ele>
  <time>2026-09-02T22:12:58Z</time>
  <course>4.26</course>
  <speed>1.464137971640651</speed>
  <fix>3d</fix>
</trkpt>
<trkpt lat="33.8103663" lon="-118.3938705">
  <ele>-11.02</ele>
  <time>2026-09-02T22:12:58Z</time>
  <course>185.17</course>
  <speed>1.45</speed>
  <fix>3d</fix>
</trkpt>
<trkpt lat="33.8103628" lon="-118.3938708">
  <ele>-11.71</ele>
  <time>2026-09-02T22:12:58Z</time>
  <course>4.32</course>
  <speed>1.464137971640651</speed>
  <fix>3d</fix>
</trkpt>
<trkpt lat="33.8103663" lon="-118.3938705">
  <ele>-11.02</ele>
  <time>2026-09-02T22:12:58Z</time>
  <course>185.17</course>
  <speed>1.45</speed>
  <fix>3d</fix>
</trkpt>
<trkpt lat="33.8103615" lon="-118.3938709">
  <ele>-11.842</ele>
  <time>2026-09-02T22:12:58Z</time>
  <course>4.37</course>
  <speed>1.4634206503941374</speed>
  <fix>3d</fix>
</trkpt>
<trkpt lat="33.8103636" lon="-118.3938707">
  <ele>-11.27</ele>
  <time>2026-09-02T22:12:58Z</time>
  <course>184.94</course>
  <speed>1.45</speed>
  <fix>3d</fix>
</trkpt>
<trkpt lat="33.8103603" lon="-118.3938711">
  <ele>-11.973</ele>
  <time>2026-09-02T22:12:58Z</time>
  <course>4.44</course>
  <speed>1.4634206503941374</speed>
  <fix>3d</fix>
</trkpt>
<trkpt lat="33.8103636" lon="-118.3938707">
  <ele>-11.27</ele>
  <time>2026-09-02T22:12:58Z</time>
  <course>184.94</course>
  <speed>1.45</speed>
  <fix>3d</fix>
</trkpt>
<trkpt lat="33.810359" lon="-118.3938712">
  <ele>-12.103</ele>
  <time>2026-09-02T22:12:58Z</time>
  <course>4.51</course>
  <speed>1.4634206503941374</speed>
  <fix>3d</fix>
</trkpt>
<trkpt lat="33.810361" lon="-118.393871">
  <ele>-11.51</ele>
  <time>2026-09-02T22:12:58Z</time>
  <course>184.76</course>
  <speed>1.45</speed>
  <fix>3d</fix>
</trkpt>
<trkpt lat="33.8103577" lon="-118.3938713">
  <ele>-12.233</ele>
  <time>2026-09-02T22:12:58Z</time>
  <course>4.57</course>
  <speed>1.4627713423498563</speed>
  <fix>3d</fix>
</trkpt>
<trkpt lat="33.810361" lon="-118.393871">
  <ele>-11.51</ele>
  <time>2026-09-02T22:12:58Z</time>
  <course>184.76</course>
  <speed>1.45</speed>
  <fix>3d</fix>
</trkpt>
<trkpt lat="33.8103564" lon="-118.3938714">
  <ele>-12.361</ele>
  <time>2026-09-02T22:12:58Z</time>
  <course>4.63</course>
  <speed>1.4627713423498563</speed>
  <fix>3d</fix>
</trkpt>
<trkpt lat="33.8103585" lon="-118.3938713">
  <ele>-11.75</ele>
  <time>2026-09-02T22:12:58Z</time>
  <course>184.62</course>
  <speed>1.45</speed>
  <fix>3d</fix>
</trkpt>
<trkpt lat="33.8103551" lon="-118.3938715">
  <ele>-12.489</ele>
  <time>2026-09-02T22:12:58Z</time>
  <course>4.68</course>
  <speed>1.4727525250360294</speed>
  <fix>3d</fix>
</trkpt>
<trkpt lat="33.8103585" lon="-118.3938713">
  <ele>-11.75</ele>
  <time>2026-09-02T22:12:58Z</time>
  <course>184.62</course>
  <speed>1.45</speed>
  <fix>3d</fix>
</trkpt>
<trkpt lat="33.8103538" lon="-118.3938716">
  <ele>-12.617</ele>
  <time>2026-09-02T22:12:58Z</time>
  <course>4.73</course>
  <speed>1.4721752613055281</speed>
  <fix>3d</fix>
</trkpt>
<trkpt lat="33.8103559" lon="-118.3938715">
  <ele>-12.0</ele>
  <time>2026-09-02T22:12:58Z</time>
  <course>184.49</course>
  <speed>1.45</speed>
  <fix>3d</fix>
</trkpt>
<trkpt lat="33.8103525" lon="-118.3938717">
  <ele>-12.743</ele>
  <time>2026-09-02T22:12:58Z</time>
  <course>4.78</course>
  <speed>1.4721752613055281</speed>
  <fix>3d</fix>
</trkpt>
<trkpt lat="33.8103559" lon="-118.3938715">
  <ele>-12.0</ele>
  <time>2026-09-02T22:12:58Z</time>
  <course>184.49</course>
  <speed>1.45</speed>
  <fix>3d</fix>
</trkpt>
<trkpt lat="33.8103512" lon="-118.3938718">
  <ele>-12.869</ele>
  <time>2026-09-02T22:12:58Z</time>
  <course>4.79</course>
  <speed>1.4721752613055281</speed>
  <fix>3d</fix>
</trkpt>
<trkpt lat="33.8103532" lon="-118.3938718">
  <ele>-12.24</ele>
  <time>2026-09-02T22:12:58Z</time>
  <course>184.4</course>
  <speed>1.46</speed>
  <fix>3d</fix>
</trkpt>
<trkpt lat="33.8103499" lon="-118.3938719">
  <ele>-12.995</ele>
  <time>2026-09-02T22:12:58Z</time>
  <course>4.78</course>
  <speed>1.4621901381147393</speed>
  <fix>3d</fix>
</trkpt>
<trkpt lat="33.8103532" lon="-118.3938718">
  <ele>-12.24</ele>
  <time>2026-09-02T22:12:58Z</time>
  <course>184.4</course>
  <speed>1.46</speed>
  <fix>3d</fix>
</trkpt>
<trkpt lat="33.8103487" lon="-118.393872">
  <ele>-13.119</ele>
  <time>2026-09-02T22:12:58Z</time>
  <course>4.77</course>
  <speed>1.4621901381147393</speed>
  <fix>3d</fix>
</trkpt>
<trkpt lat="33.8103506" lon="-118.393872">
  <ele>-12.48</ele>
  <time>2026-09-02T22:12:58Z</time>
  <course>184.44</course>
  <speed>1.45</speed>
  <fix>3d</fix>
</trkpt>
<trkpt lat="33.8103474" lon="-118.3938721">
  <ele>-13.244</ele>
  <time>2026-09-02T22:12:58Z</time>
  <course>4.76</course>
  <speed>1.4621901381147393</speed>
  <fix>3d</fix>
</trkpt>
<trkpt lat="33.8103506" lon="-118.393872">
  <ele>-12.48</ele>
  <time>2026-09-02T22:12:58Z</time>
  <course>184.44</course>
  <speed>1.45</speed>
  <fix>3d</fix>
</trkpt>
<trkpt lat="33.8103461" lon="-118.3938722">
  <ele>-13.368</ele>
  <time>2026-09-02T22:12:58Z</time>
  <course>4.75</course>
  <speed>1.4621901381147393</speed>
  <fix>3d</fix>
</trkpt>
<trkpt lat="33.810348" lon="-118.3938723">
  <ele>-12.73</ele>
  <time>2026-09-02T22:12:58Z</time>
  <course>184.63</course>
  <speed>1.45</speed>
  <fix>3d</fix>
</trkpt>
<trkpt lat="33.8103448" lon="-118.3938723">
  <ele>-13.491</ele>
  <time>2026-09-02T22:12:58Z</time>
  <course>4.72</course>
  <speed>1.4621901381147393</speed>
  <fix>3d</fix>
</trkpt>
<trkpt lat="33.810348" lon="-118.3938723">
  <ele>-12.73</ele>
  <time>2026-09-02T22:12:58Z</time>
  <course>184.63</course>
  <speed>1.45</speed>
  <fix>3d</fix>
</trkpt>
<trkpt lat="33.8103435" lon="-118.3938724">
  <ele>-13.613</ele>
  <time>2026-09-02T22:12:58Z</time>
  <course>4.7</course>
  <speed>1.4627713423498563</speed>
  <fix>3d</fix>
</trkpt>
<trkpt lat="33.8103454" lon="-118.3938725">
  <ele>-12.97</ele>
  <time>2026-09-02T22:12:58Z</time>
  <course>184.84</course>
  <speed>1.45</speed>
  <fix>3d</fix>
</trkpt>
<trkpt lat="33.8103422" lon="-118.3938726">
  <ele>-13.735</ele>
  <time>2026-09-02T22:12:58Z</time>
  <course>4.67</course>
  <speed>1.4627713423498563</speed>
  <fix>3d</fix>
</trkpt>
<trkpt lat="33.8103454" lon="-118.3938725">
  <ele>-12.97</ele>
  <time>2026-09-02T22:12:58Z</time>
  <course>184.84</course>
  <speed>1.45</speed>
  <fix>3d</fix>
</trkpt>
<trkpt lat="33.8103409" lon="-118.3938727">
  <ele>-13.857</ele>
  <time>2026-09-02T22:12:58Z</time>
  <course>4.62</course>
  <speed>1.4627713423498563</speed>
  <fix>3d</fix>
</trkpt>
<trkpt lat="33.8103428" lon="-118.3938728">
  <ele>-13.21</ele>
  <time>2026-09-02T22:12:58Z</time>
  <course>185.04</course>
  <speed>1.45</speed>
  <fix>3d</fix>
</trkpt>
<trkpt lat="33.8103396" lon="-118.3938728">
  <ele>-13.98</ele>
  <time>2026-09-02T22:12:58Z</time>
  <course>4.58</course>
  <speed>1.4727525250360294</speed>
  <fix>3d</fix>
</trkpt>
<trkpt lat="33.8103428" lon="-118.3938728">
  <ele>-13.21</ele>
  <time>2026-09-02T22:12:58Z</time>
  <course>185.04</course>
  <speed>1.45</speed>
  <fix>3d</fix>
</trkpt>
<trkpt lat="33.8103383" lon="-118.3938729">
  <ele>-14.103</ele>
  <time>2026-09-02T22:12:58Z</time>
  <course>4.55</course>
  <speed>1.4727525250360294</speed>
  <fix>3d</fix>
</trkpt>
<trkpt lat="33.8103402" lon="-118.3938731">
  <ele>-13.46</ele>
  <time>2026-09-02T22:12:58Z</time>
  <course>185.23</course>
  <speed>1.45</speed>
  <fix>3d</fix>
</trkpt>
<trkpt lat="33.810337" lon="-118.3938731">
  <ele>-14.226</ele>
  <time>2026-09-02T22:12:58Z</time>
  <course>4.54</course>
  <speed>1.4727525250360294</speed>
  <fix>3d</fix>
</trkpt>
<trkpt lat="33.8103402" lon="-118.3938731">
  <ele>-13.46</ele>
  <time>2026-09-02T22:12:58Z</time>
  <course>185.23</course>
  <speed>1.45</speed>
  <fix>3d</fix>
</trkpt>
<trkpt lat="33.8103357" lon="-118.3938732">
  <ele>-14.35</ele>
  <time>2026-09-02T22:12:58Z</time>
  <course>4.5</course>
  <speed>1.4733974345029923</speed>
  <fix>3d</fix>
</trkpt>
<trkpt lat="33.8103375" lon="-118.3938734">
  <ele>-13.7</ele>
  <time>2026-09-02T22:12:58Z</time>
  <course>185.41</course>
  <speed>1.45</speed>
  <fix>3d</fix>
</trkpt>
<trkpt lat="33.8103344" lon="-118.3938734">
  <ele>-14.473</ele>
  <time>2026-09-02T22:12:58Z</time>
  <course>4.48</course>
  <speed>1.4733974345029923</speed>
  <fix>3d</fix>
</trkpt>
<trkpt lat="33.8103375" lon="-118.3938734">
  <ele>-13.7</ele>
  <time>2026-09-02T22:12:58Z</time>
  <course>185.41</course>
  <speed>1.45</speed>
  <fix>3d</fix>
</trkpt>
<trkpt lat="33.8103331" lon="-118.3938735">
  <ele>-14.596</ele>
  <time>2026-09-02T22:12:58Z</time>
  <course>4.45</course>
  <speed>1.4733974345029923</speed>
  <fix>3d</fix>
</trkpt>
<trkpt lat="33.8103349" lon="-118.3938737">
  <ele>-13.94</ele>
  <time>2026-09-02T22:12:58Z</time>
  <course>185.57</course>
  <speed>1.45</speed>
  <fix>3d</fix>
</trkpt>
<trkpt lat="33.8103317" lon="-118.3938737">
  <ele>-14.72</ele>
  <time>2026-09-02T22:12:58Z</time>
  <course>4.43</course>
  <speed>1.4733974345029923</speed>
  <fix>3d</fix>
</trkpt>
<trkpt lat="33.8103349" lon="-118.3938737">
  <ele>-13.94</ele>
  <time>2026-09-02T22:12:58Z</time>
  <course>185.57</course>
  <speed>1.45</speed>
  <fix>3d</fix>
</trkpt>
<trkpt lat="33.8103304" lon="-118.3938738">
  <ele>-14.844</ele>
  <time>2026-09-02T22:12:58Z</time>
  <course>4.4</course>
  <speed>1.4733974345029923</speed>
  <fix>3d</fix>
</trkpt>
<trkpt lat="33.8103324" lon="-118.393874">
  <ele>-14.19</ele>
  <time>2026-09-02T22:12:58Z</time>
  <course>185.71</course>
  <speed>1.45</speed>
  <fix>3d</fix>
</trkpt>
<trkpt lat="33.8103291" lon="-118.393874">
  <ele>-14.968</ele>
  <time>2026-09-02T22:12:58Z</time>
  <course>4.38</course>
  <speed>1.4733974345029923</speed>
  <fix>3d</fix>
</trkpt>
<trkpt lat="33.8103324" lon="-118.393874">
  <ele>-14.19</ele>
  <time>2026-09-02T22:12:58Z</time>
  <course>185.71</course>
  <speed>1.45</speed>
  <fix>3d</fix>
</trkpt>
<trkpt lat="33.8103278" lon="-118.3938741">
  <ele>-15.091</ele>
  <time>2026-09-02T22:12:58Z</time>
  <course>4.35</course>
  <speed>1.4733974345029923</speed>
  <fix>3d</fix>
</trkpt>
<trkpt lat="33.8103297" lon="-118.3938743">
  <ele>-14.43</ele>
  <time>2026-09-02T22:12:58Z</time>
  <course>185.83</course>
  <speed>1.45</speed>
  <fix>3d</fix>
</trkpt>
<trkpt lat="33.8103265" lon="-118.3938743">
  <ele>-15.214</ele>
  <time>2026-09-02T22:12:58Z</time>
  <course>4.32</course>
  <speed>1.4733974345029923</speed>
  <fix>3d</fix>
</trkpt>
<trkpt lat="33.8103297" lon="-118.3938743">
  <ele>-14.43</ele>
  <time>2026-09-02T22:12:58Z</time>
  <course>185.83</course>
  <speed>1.45</speed>
  <fix>3d</fix>
</trkpt>
<trkpt lat="33.8103252" lon="-118.3938744">
  <ele>-15.339</ele>
  <time>2026-09-02T22:12:58Z</time>
  <course>4.3</course>
  <speed>1.4741099009232657</speed>
  <fix>3d</fix>
</trkpt>
<trkpt lat="33.810327" lon="-118.3938746">
  <ele>-14.67</ele>
  <time>2026-09-02T22:12:58Z</time>
  <course>185.94</course>
  <speed>1.45</speed>
  <fix>3d</fix>
</trkpt>
<trkpt lat="33.8103239" lon="-118.3938746">
  <ele>-15.463</ele>
  <time>2026-09-02T22:12:58Z</time>
  <course>4.27</course>
  <speed>1.4741099009232657</speed>
  <fix>3d</fix>
</trkpt>
<trkpt lat="33.810327" lon="-118.3938746">
  <ele>-14.67</ele>
  <time>2026-09-02T22:12:58Z</time>
  <course>185.94</course>
  <speed>1.45</speed>
  <fix>3d</fix>
</trkpt>
<trkpt lat="33.8103226" lon="-118.3938748">
  <ele>-15.587</ele>
  <time>2026-09-02T22:12:58Z</time>
  <course>4.25</course>
  <speed>1.4741099009232657</speed>
  <fix>3d</fix>
</trkpt>
<trkpt lat="33.8103245" lon="-118.393875">
  <ele>-14.92</ele>
  <time>2026-09-02T22:12:58Z</time>
  <course>186.06</course>
  <speed>1.45</speed>
  <fix>3d</fix>
</trkpt>
<trkpt lat="33.8103213" lon="-118.3938749">
  <ele>-15.711</ele>
  <time>2026-09-02T22:12:58Z</time>
  <course>4.21</course>
  <speed>1.484082207965583</speed>
  <fix>3d</fix>
</trkpt>
<trkpt lat="33.8103245" lon="-118.393875">
  <ele>-14.92</ele>
  <time>2026-09-02T22:12:58Z</time>
  <course>186.06</course>
  <speed>1.45</speed>
  <fix>3d</fix>
</trkpt>
<trkpt lat="33.8103199" lon="-118.3938751">
  <ele>-15.828</ele>
  <time>2026-09-02T22:12:58Z</time>
  <course>3.97</course>
  <speed>1.4856984889270097</speed>
  <fix>3d</fix>
</trkpt>
<trkpt lat="33.8103219" lon="-118.3938753">
  <ele>-15.16</ele>
  <time>2026-09-02T22:12:58Z</time>
  <course>186.23</course>
  <speed>1.46</speed>
  <fix>3d</fix>
</trkpt>
<trkpt lat="33.8103186" lon="-118.3938753">
  <ele>-15.934</ele>
  <time>2026-09-02T22:12:58Z</time>
  <course>3.61</course>
  <speed>1.4975313018431367</speed>
  <fix>3d</fix>
</trkpt>
<trkpt lat="33.8103219" lon="-118.3938753">
  <ele>-15.16</ele>
  <time>2026-09-02T22:12:58Z</time>
  <course>186.23</course>
  <speed>1.46</speed>
  <fix>3d</fix>
</trkpt>
<trkpt lat="33.8103173" lon="-118.3938755">
  <ele>-16.03</ele>
  <time>2026-09-02T22:12:58Z</time>
  <course>3.28</course>
  <speed>1.5195394038984313</speed>
  <fix>3d</fix>
</trkpt>
<trkpt lat="33.8103192" lon="-118.3938757">
  <ele>-15.38</ele>
  <time>2026-09-02T22:12:58Z</time>
  <course>187.02</course>
  <speed>1.47</speed>
  <fix>3d</fix>
</trkpt>
<trkpt lat="33.8103159" lon="-118.3938758">
  <ele>-16.116</ele>
  <time>2026-09-02T22:12:58Z</time>
  <course>3.03</course>
  <speed>1.5516765126791086</speed>
  <fix>3d</fix>
</trkpt>
<trkpt lat="33.8103192" lon="-118.3938757">
  <ele>-15.38</ele>
  <time>2026-09-02T22:12:58Z</time>
  <course>187.02</course>
  <speed>1.47</speed>
  <fix>3d</fix>
</trkpt>
<trkpt lat="33.8103145" lon="-118.393876">
  <ele>-16.192</ele>
  <time>2026-09-02T22:12:58Z</time>
  <course>2.85</course>
  <speed>1.5926079241294764</speed>
  <fix>3d</fix>
</trkpt>
<trkpt lat="33.8103166" lon="-118.3938761">
  <ele>-15.58</ele>
  <time>2026-09-02T22:12:58Z</time>
  <course>188.26</course>
  <speed>1.51</speed>
  <fix>3d</fix>
</trkpt>
<trkpt lat="33.8103131" lon="-118.3938763">
  <ele>-16.259</ele>
  <time>2026-09-02T22:12:58Z</time>
  <course>2.72</course>
  <speed>1.6447796204963143</speed>
  <fix>3d</fix>
</trkpt>
<trkpt lat="33.8103166" lon="-118.3938761">
  <ele>-15.58</ele>
  <time>2026-09-02T22:12:58Z</time>
  <course>188.26</course>
  <speed>1.51</speed>
  <fix>3d</fix>
</trkpt>
<trkpt lat="33.8103116" lon="-118.3938766">
  <ele>-16.317</ele>
  <time>2026-09-02T22:12:58Z</time>
  <course>2.62</course>
  <speed>1.7055790805471318</speed>
  <fix>3d</fix>
</trkpt>
<trkpt lat="33.8103139" lon="-118.3938766">
  <ele>-15.74</ele>
  <time>2026-09-02T22:12:58Z</time>
  <course>189.01</course>
  <speed>1.59</speed>
  <fix>3d</fix>
</trkpt>
<trkpt lat="33.8103101" lon="-118.3938769">
  <ele>-16.366</ele>
  <time>2026-09-02T22:12:58Z</time>
  <course>2.53</course>
  <speed>1.7861970775925036</speed>
  <fix>3d</fix>
</trkpt>
<trkpt lat="33.8103139" lon="-118.3938766">
  <ele>-15.74</ele>
  <time>2026-09-02T22:12:58Z</time>
  <course>189.01</course>
  <speed>1.59</speed>
  <fix>3d</fix>
</trkpt>
<trkpt lat="33.8103085" lon="-118.3938772">
  <ele>-16.405</ele>
  <time>2026-09-02T22:12:58Z</time>
  <course>2.44</course>
  <speed>1.878084130170957</speed>
  <fix>3d</fix>
</trkpt>
<trkpt lat="33.8103109" lon="-118.3938772">
  <ele>-15.87</ele>
  <time>2026-09-02T22:12:58Z</time>
  <course>189.13</course>
  <speed>1.71</speed>
  <fix>3d</fix>
</trkpt>
<trkpt lat="33.8103068" lon="-118.3938775">
  <ele>-16.435</ele>
  <time>2026-09-02T22:12:58Z</time>
  <course>2.35</course>
  <speed>2.008233054204616</speed>
  <fix>3d</fix>
</trkpt>
<trkpt lat="33.8103109" lon="-118.3938772">
  <ele>-15.87</ele>
  <time>2026-09-02T22:12:58Z</time>
  <course>189.13</course>
  <speed>1.71</speed>
  <fix>3d</fix>
</trkpt>
<trkpt lat="33.8103051" lon="-118.3938779">
  <ele>-16.459</ele>
  <time>2026-09-02T22:12:58Z</time>
  <course>2.32</course>
  <speed>1.938891435846783</speed>
  <fix>3d</fix>
</trkpt>
<trkpt lat="33.8103077" lon="-118.3938777">
  <ele>-15.96</ele>
  <time>2026-09-02T22:12:58Z</time>
  <course>188.89</course>
  <speed>1.89</speed>
  <fix>3d</fix>
</trkpt>
<trkpt lat="33.8103034" lon="-118.3938782">
  <ele>-16.474</ele>
  <time>2026-09-02T22:12:58Z</time>
  <course>2.41</course>
  <speed>1.8582787734890587</speed>
  <fix>3d</fix>
</trkpt>
<trkpt lat="33.8103077" lon="-118.3938777">
  <ele>-15.96</ele>
  <time>2026-09-02T22:12:58Z</time>
  <course>188.89</course>
  <speed>1.89</speed>
  <fix>3d</fix>
</trkpt>
<trkpt lat="33.8103018" lon="-118.3938785">
  <ele>-16.48</ele>
  <time>2026-09-02T22:12:58Z</time>
  <course>2.43</course>
  <speed>1.878084130170957</speed>
  <fix>3d</fix>
</trkpt>
<trkpt lat="33.8103044" lon="-118.3938784">
  <ele>-16.02</ele>
  <time>2026-09-02T22:12:58Z</time>
  <course>188.92</course>
  <speed>1.92</speed>
  <fix>3d</fix>
</trkpt>
<trkpt lat="33.8103001" lon="-118.3938788">
  <ele>-16.481</ele>
  <time>2026-09-02T22:12:58Z</time>
  <course>2.4</course>
  <speed>1.917706964058899</speed>
  <fix>3d</fix>
</trkpt>
<trkpt lat="33.8103044" lon="-118.3938784">
  <ele>-16.02</ele>
  <time>2026-09-02T22:12:58Z</time>
  <course>188.92</course>
  <speed>1.92</speed>
  <fix>3d</fix>
</trkpt>
<trkpt lat="33.8102987" lon="-118.3938791">
  <ele>-16.48</ele>
  <time>2026-09-02T22:12:58Z</time>
  <course>2.02</course>
  <speed>1.4003570973148243</speed>
  <fix>3d</fix>
</trkpt>
<trkpt lat="33.810301" lon="-118.3938791">
  <ele>-16.04</ele>
  <time>2026-09-02T22:12:58Z</time>
  <course>189.29</course>
  <speed>1.79</speed>
  <fix>3d</fix>
</trkpt>
<trkpt lat="33.8102977" lon="-118.3938793">
  <ele>-16.477</ele>
  <time>2026-09-02T22:12:58Z</time>
  <course>359.57</course>
  <speed>1.0866462165764899</speed>
  <fix>3d</fix>
</trkpt>
<trkpt lat="33.810301" lon="-118.3938791">
  <ele>-16.04</ele>
  <time>2026-09-02T22:12:58Z</time>
  <course>189.29</course>
  <speed>1.79</speed>
  <fix>3d</fix>
</trkpt>
<trkpt lat="33.8102968" lon="-118.3938794">
  <ele>-16.469</ele>
  <time>2026-09-02T22:12:58Z</time>
  <course>355.98</course>
  <speed>0.8845903006477066</speed>
  <fix>3d</fix>
</trkpt>
<trkpt lat="33.8102982" lon="-118.3938796">
  <ele>-16.05</ele>
  <time>2026-09-02T22:12:58Z</time>
  <course>189.61</course>
  <speed>1.38</speed>
  <fix>3d</fix>
</trkpt>
<trkpt lat="33.8102961" lon="-118.3938796">
  <ele>-16.457</ele>
  <time>2026-09-02T22:12:58Z</time>
  <course>352.45</course>
  <speed>0.7324616030891995</speed>
  <fix>3d</fix>
</trkpt>
<trkpt lat="33.8102982" lon="-118.3938796">
  <ele>-16.05</ele>
  <time>2026-09-02T22:12:58Z</time>
  <course>189.61</course>
  <speed>1.38</speed>
  <fix>3d</fix>
</trkpt>
<trkpt lat="33.8102954" lon="-118.3938797">
  <ele>-16.447</ele>
  <time>2026-09-02T22:12:58Z</time>
  <course>350.58</course>
  <speed>0.611310068623117</speed>
  <fix>3d</fix>
</trkpt>
<trkpt lat="33.8102963" lon="-118.39388">
  <ele>-16.04</ele>
  <time>2026-09-02T22:12:58Z</time>
  <course>190.17</course>
  <speed>0.84</speed>
  <fix>3d</fix>
</trkpt>
<trkpt lat="33.8102949" lon="-118.3938798">
  <ele>-16.441</ele>
  <time>2026-09-02T22:12:58Z</time>
  <course>351.04</course>
  <speed>0.5300943312279428</speed>
  <fix>3d</fix>
</trkpt>
<trkpt lat="33.8102963" lon="-118.39388">
  <ele>-16.04</ele>
  <time>2026-09-02T22:12:58Z</time>
  <course>190.17</course>
  <speed>0.84</speed>
  <fix>3d</fix>
</trkpt>
<trkpt lat="33.8102945" lon="-118.3938798">
  <ele>-16.44</ele>
  <time>2026-09-02T22:12:58Z</time>
  <course>353.27</course>
  <speed>0.45</speed>
  <fix>3d</fix>
</trkpt>
<trkpt lat="33.8102951" lon="-118.3938803">
  <ele>-16.04</ele>
  <time>2026-09-02T22:12:58Z</time>
  <course>190.43</course>
  <speed>0.57</speed>
  <fix>3d</fix>
</trkpt>
<trkpt lat="33.8102941" lon="-118.3938799">
  <ele>-16.441</ele>
  <time>2026-09-02T22:12:58Z</time>
  <course>356.19</course>
  <speed>0.38013155617496425</speed>
  <fix>3d</fix>
</trkpt>
<trkpt lat="33.8102951" lon="-118.3938803">
  <ele>-16.04</ele>
  <time>2026-09-02T22:12:58Z</time>
  <course>190.43</course>
  <speed>0.57</speed>
  <fix>3d</fix>
</trkpt>
<trkpt lat="33.8102938" lon="-118.3938799">
  <ele>-16.443</ele>
  <time>2026-09-02T22:12:58Z</time>
  <course>358.82</course>
  <speed>0.31064449134018135</speed>
  <fix>3d</fix>
</trkpt>
<trkpt lat="33.8102942" lon="-118.3938805">
  <ele>-16.04</ele>
  <time>2026-09-02T22:12:58Z</time>
  <course>189.51</course>
  <speed>0.39</speed>
  <fix>3d</fix>
</trkpt>
<trkpt lat="33.8102935" lon="-118.39388">
  <ele>-16.445</ele>
  <time>2026-09-02T22:12:59Z</time>
  <course>0.99</course>
  <speed>0.261725046566048</speed>
  <fix>3d</fix>
</trkpt>
<trkpt lat="33.8102942" lon="-118.3938805">
  <ele>-16.04</ele>
  <time>2026-09-02T22:12:59Z</time>
  <course>189.51</course>
  <speed>0.39</speed>
  <fix>3d</fix>
</trkpt>
<trkpt lat="33.8102933" lon="-118.39388">
  <ele>-16.449</ele>
  <time>2026-09-02T22:12:59Z</time>
  <course>2.93</course>
  <speed>0.223606797749979</speed>
  <fix>3d</fix>
</trkpt>
<trkpt lat="33.8102937" lon="-118.3938806">
  <ele>-16.04</ele>
  <time>2026-09-02T22:12:59Z</time>
  <course>188.2</course>
  <speed>0.25</speed>
  <fix>3d</fix>
</trkpt>
<trkpt lat="33.8102931" lon="-118.39388">
  <ele>-16.453</ele>
  <time>2026-09-02T22:12:59Z</time>
  <course>4.7</course>
  <speed>0.18681541692269404</speed>
  <fix>3d</fix>
</trkpt>
<trkpt lat="33.8102937" lon="-118.3938806">
  <ele>-16.04</ele>
  <time>2026-09-02T22:12:59Z</time>
  <course>188.2</course>
  <speed>0.25</speed>
  <fix>3d</fix>
</trkpt>
<trkpt lat="33.810293" lon="-118.39388">
  <ele>-16.456</ele>
  <time>2026-09-02T22:12:59Z</time>
  <course>6.25</course>
  <speed>0.14866068747318506</speed>
  <fix>3d</fix>
</trkpt>
<trkpt lat="33.8102933" lon="-118.3938806">
  <ele>-16.06</ele>
  <time>2026-09-02T22:12:59Z</time>
  <course>186.18</course>
  <speed>0.15</speed>
  <fix>3d</fix>
</trkpt>
<trkpt lat="33.8102932" lon="-118.3938802">
  <ele>-16.46</ele>
  <time>2026-09-02T22:12:59Z</time>
  <course>7.64</course>
  <speed>0.6264982043070834</speed>
  <fix>3d</fix>
</trkpt>
<trkpt lat="33.8102933" lon="-118.3938806">
  <ele>-16.06</ele>
  <time>2026-09-02T22:12:59Z</time>
  <course>186.18</course>
  <speed>0.15</speed>
  <fix>3d</fix>
</trkpt>
<trkpt lat="33.8102939" lon="-118.3938808">
  <ele>-16.471</ele>
  <time>2026-09-02T22:12:59Z</time>
  <course>8.47</course>
  <speed>1.1650321883965267</speed>
  <fix>3d</fix>
</trkpt>
<trkpt lat="33.8102933" lon="-118.3938808">
  <ele>-16.07</ele>
  <time>2026-09-02T22:12:59Z</time>
  <course>322.19</course>
  <speed>0.39</speed>
  <fix>3d</fix>
</trkpt>
<trkpt lat="33.8102948" lon="-118.3938817">
  <ele>-16.493</ele>
  <time>2026-09-02T22:12:59Z</time>
  <course>8.87</course>
  <speed>1.283160161476345</speed>
  <fix>3d</fix>
</trkpt>
<trkpt lat="33.8102933" lon="-118.3938808">
  <ele>-16.07</ele>
  <time>2026-09-02T22:12:59Z</time>
  <course>322.19</course>
  <speed>0.39</speed>
  <fix>3d</fix>
</trkpt>
<trkpt lat="33.8102952" lon="-118.393883">
  <ele>-16.526</ele>
  <time>2026-09-02T22:12:59Z</time>
  <course>9.06</course>
  <speed>1.2826924806827238</speed>
  <fix>3d</fix>
</trkpt>
<trkpt lat="33.8102942" lon="-118.3938818">
  <ele>-16.1</ele>
  <time>2026-09-02T22:12:59Z</time>
  <course>313.24</course>
  <speed>1.09</speed>
  <fix>3d</fix>
</trkpt>
<trkpt lat="33.810295" lon="-118.3938845">
  <ele>-16.569</ele>
  <time>2026-09-02T22:12:59Z</time>
  <course>9.03</course>
  <speed>1.5220052562327109</speed>
  <fix>3d</fix>
</trkpt>
<trkpt lat="33.8102942" lon="-118.3938818">
  <ele>-16.1</ele>
  <time>2026-09-02T22:12:59Z</time>
  <course>313.24</course>
  <speed>1.09</speed>
  <fix>3d</fix>
</trkpt>
<trkpt lat="33.8102942" lon="-118.3938861">
  <ele>-16.622</ele>
  <time>2026-09-02T22:12:59Z</time>
  <course>8.28</course>
  <speed>1.784040358287895</speed>
  <fix>3d</fix>
</trkpt>
<trkpt lat="33.8102951" lon="-118.3938841">
  <ele>-16.15</ele>
  <time>2026-09-02T22:12:59Z</time>
  <course>270.79</course>
  <speed>1.28</speed>
  <fix>3d</fix>
</trkpt>
<trkpt lat="33.8102932" lon="-118.3938876">
  <ele>-16.685</ele>
  <time>2026-09-02T22:12:59Z</time>
  <course>7.54</course>
  <speed>1.8693849255838133</speed>
  <fix>3d</fix>
</trkpt>
<trkpt lat="33.8102951" lon="-118.3938841">
  <ele>-16.15</ele>
  <time>2026-09-02T22:12:59Z</time>
  <course>270.79</course>
  <speed>1.28</speed>
  <fix>3d</fix>
</trkpt>
<trkpt lat="33.8102922" lon="-118.3938891">
  <ele>-16.757</ele>
  <time>2026-09-02T22:12:59Z</time>
  <course>8.19</course>
  <speed>1.8902116283633428</speed>
  <fix>3d</fix>
</trkpt>
<trkpt lat="33.8102941" lon="-118.3938871">
  <ele>-16.25</ele>
  <time>2026-09-02T22:12:59Z</time>
  <course>235.31</course>
  <speed>1.72</speed>
  <fix>3d</fix>
</trkpt>
<trkpt lat="33.8102912" lon="-118.3938907">
  <ele>-16.838</ele>
  <time>2026-09-02T22:12:59Z</time>
  <course>8.34</course>
  <speed>1.9042058712229621</speed>
  <fix>3d</fix>
</trkpt>
<trkpt lat="33.8102941" lon="-118.3938871">
  <ele>-16.25</ele>
  <time>2026-09-02T22:12:59Z</time>
  <course>235.31</course>
  <speed>1.72</speed>
  <fix>3d</fix>
</trkpt>
<trkpt lat="33.8102903" lon="-118.3938924">
  <ele>-16.929</ele>
  <time>2026-09-02T22:12:59Z</time>
  <course>8.71</course>
  <speed>1.8944656238633626</speed>
  <fix>3d</fix>
</trkpt>
<trkpt lat="33.8102921" lon="-118.3938903">
  <ele>-16.38</ele>
  <time>2026-09-02T22:12:59Z</time>
  <course>232.19</course>
  <speed>1.89</speed>
  <fix>3d</fix>
</trkpt>
<trkpt lat="33.8102895" lon="-118.3938942">
  <ele>-17.031</ele>
  <time>2026-09-02T22:12:59Z</time>
  <course>8.64</course>
  <speed>1.8543192821086663</speed>
  <fix>3d</fix>
</trkpt>
<trkpt lat="33.8102921" lon="-118.3938903">
  <ele>-16.38</ele>
  <time>2026-09-02T22:12:59Z</time>
  <course>232.19</course>
  <speed>1.89</speed>
  <fix>3d</fix>
</trkpt>
<trkpt lat="33.8102887" lon="-118.3938959">
  <ele>-17.143</ele>
  <time>2026-09-02T22:12:59Z</time>
  <course>8.72</course>
  <speed>1.7978042162593788</speed>
  <fix>3d</fix>
</trkpt>
<trkpt lat="33.8102902" lon="-118.3938936">
  <ele>-16.55</ele>
  <time>2026-09-02T22:12:59Z</time>
  <course>238.59</course>
  <speed>1.89</speed>
  <fix>3d</fix>
</trkpt>
<trkpt lat="33.8102881" lon="-118.3938977">
  <ele>-17.266</ele>
  <time>2026-09-02T22:12:59Z</time>
  <course>8.79</course>
  <speed>1.7477127910500627</speed>
  <fix>3d</fix>
</trkpt>
<trkpt lat="33.8102902" lon="-118.3938936">
  <ele>-16.55</ele>
  <time>2026-09-02T22:12:59Z</time>
  <course>238.59</course>
  <speed>1.89</speed>
  <fix>3d</fix>
</trkpt>
<trkpt lat="33.8102876" lon="-118.3938994">
  <ele>-17.395</ele>
  <time>2026-09-02T22:12:59Z</time>
  <course>8.79</course>
  <speed>1.7216852209390658</speed>
  <fix>3d</fix>
</trkpt>
<trkpt lat="33.8102887" lon="-118.3938972">
  <ele>-16.76</ele>
  <time>2026-09-02T22:12:59Z</time>
  <course>245.01</course>
  <speed>1.81</speed>
  <fix>3d</fix>
</trkpt>
<trkpt lat="33.8102871" lon="-118.3939012">
  <ele>-17.525</ele>
  <time>2026-09-02T22:12:59Z</time>
  <course>8.77</course>
  <speed>1.7079227148791014</speed>
  <fix>3d</fix>
</trkpt>
<trkpt lat="33.8102887" lon="-118.3938972">
  <ele>-16.76</ele>
  <time>2026-09-02T22:12:59Z</time>
  <course>245.01</course>
  <speed>1.81</speed>
  <fix>3d</fix>
</trkpt>
<trkpt lat="33.8102866" lon="-118.393903">
  <ele>-17.656</ele>
  <time>2026-09-02T22:12:59Z</time>
  <course>8.74</course>
  <speed>1.7076299364909249</speed>
  <fix>3d</fix>
</trkpt>
<trkpt lat="33.8102874" lon="-118.3939007">
  <ele>-17.0</ele>
  <time>2026-09-02T22:12:59Z</time>
  <course>250.07</course>
  <speed>1.76</speed>
  <fix>3d</fix>
</trkpt>
<trkpt lat="33.8102861" lon="-118.3939048">
  <ele>-17.787</ele>
  <time>2026-09-02T22:12:59Z</time>
  <course>8.72</course>
  <speed>1.704494059831245</speed>
  <fix>3d</fix>
</trkpt>
<trkpt lat="33.8102874" lon="-118.3939007">
  <ele>-17.0</ele>
  <time>2026-09-02T22:12:59Z</time>
  <course>250.07</course>
  <speed>1.76</speed>
  <fix>3d</fix>
</trkpt>
<trkpt lat="33.8102856" lon="-118.3939066">
  <ele>-17.918</ele>
  <time>2026-09-02T22:12:59Z</time>
  <course>8.7</course>
  <speed>1.7109354166653983</speed>
  <fix>3d</fix>
</trkpt>
<trkpt lat="33.8102864" lon="-118.3939044">
  <ele>-17.24</ele>
  <time>2026-09-02T22:12:59Z</time>
  <course>252.26</course>
  <speed>1.74</speed>
  <fix>3d</fix>
</trkpt>
<trkpt lat="33.8102852" lon="-118.3939084">
  <ele>-18.049</ele>
  <time>2026-09-02T22:12:59Z</time>
  <course>8.7</course>
  <speed>1.7079227148791014</speed>
  <fix>3d</fix>
</trkpt>
<trkpt lat="33.8102864" lon="-118.3939044">
  <ele>-17.24</ele>
  <time>2026-09-02T22:12:59Z</time>
  <course>252.26</course>
  <speed>1.74</speed>
  <fix>3d</fix>
</trkpt>
<trkpt lat="33.8102847" lon="-118.3939102">
  <ele>-18.181</ele>
  <time>2026-09-02T22:12:59Z</time>
  <course>8.69</course>
  <speed>1.7079227148791014</speed>
  <fix>3d</fix>
</trkpt>
<trkpt lat="33.8102855" lon="-118.3939079">
  <ele>-17.48</ele>
  <time>2026-09-02T22:12:59Z</time>
  <course>253.23</course>
  <speed>1.74</speed>
  <fix>3d</fix>
</trkpt>
<trkpt lat="33.8102843" lon="-118.393912">
  <ele>-18.312</ele>
  <time>2026-09-02T22:12:59Z</time>
  <course>8.67</course>
  <speed>1.7049633427144408</speed>
  <fix>3d</fix>
</trkpt>
<trkpt lat="33.8102855" lon="-118.3939079">
  <ele>-17.48</ele>
  <time>2026-09-02T22:12:59Z</time>
  <course>253.23</course>
  <speed>1.74</speed>
  <fix>3d</fix>
</trkpt>
<trkpt lat="33.8102839" lon="-118.3939138">
  <ele>-18.443</ele>
  <time>2026-09-02T22:12:59Z</time>
  <course>8.69</course>
  <speed>1.7145261736118231</speed>
  <fix>3d</fix>
</trkpt>
<trkpt lat="33.8102846" lon="-118.3939116">
  <ele>-17.73</ele>
  <time>2026-09-02T22:12:59Z</time>
  <course>253.73</course>
  <speed>1.74</speed>
  <fix>3d</fix>
</trkpt>
<trkpt lat="33.8102834" lon="-118.3939156">
  <ele>-18.573</ele>
  <time>2026-09-02T22:12:59Z</time>
  <course>8.68</course>
  <speed>1.7145261736118231</speed>
  <fix>3d</fix>
</trkpt>
<trkpt lat="33.8102846" lon="-118.3939116">
  <ele>-17.73</ele>
  <time>2026-09-02T22:12:59Z</time>
  <course>253.73</course>
  <speed>1.74</speed>
  <fix>3d</fix>
</trkpt>
<trkpt lat="33.810283" lon="-118.3939174">
  <ele>-18.701</ele>
  <time>2026-09-02T22:12:59Z</time>
  <course>8.67</course>
  <speed>1.7145261736118231</speed>
  <fix>3d</fix>
</trkpt>
<trkpt lat="33.8102837" lon="-118.3939152">
  <ele>-17.97</ele>
  <time>2026-09-02T22:12:59Z</time>
  <course>254.02</course>
  <speed>1.74</speed>
  <fix>3d</fix>
</trkpt>
<trkpt lat="33.8102826" lon="-118.3939192">
  <ele>-18.829</ele>
  <time>2026-09-02T22:12:59Z</time>
  <course>8.66</course>
  <speed>1.7145261736118231</speed>
  <fix>3d</fix>
</trkpt>
<trkpt lat="33.8102837" lon="-118.3939152">
  <ele>-17.97</ele>
  <time>2026-09-02T22:12:59Z</time>
  <course>254.02</course>
  <speed>1.74</speed>
  <fix>3d</fix>
</trkpt>
<trkpt lat="33.8102821" lon="-118.393921">
  <ele>-18.956</ele>
  <time>2026-09-02T22:12:59Z</time>
  <course>8.66</course>
  <speed>1.7145261736118231</speed>
  <fix>3d</fix>
</trkpt>
<trkpt lat="33.8102829" lon="-118.3939189">
  <ele>-18.21</ele>
  <time>2026-09-02T22:12:59Z</time>
  <course>254.18</course>
  <speed>1.74</speed>
  <fix>3d</fix>
</trkpt>
<trkpt lat="33.8102817" lon="-118.3939228">
  <ele>-19.082</ele>
  <time>2026-09-02T22:12:59Z</time>
  <course>8.66</course>
  <speed>1.7145261736118231</speed>
  <fix>3d</fix>
</trkpt>
<trkpt lat="33.8102829" lon="-118.3939189">
  <ele>-18.21</ele>
  <time>2026-09-02T22:12:59Z</time>
  <course>254.18</course>
  <speed>1.74</speed>
  <fix>3d</fix>
</trkpt>
<trkpt lat="33.8102813" lon="-118.3939247">
  <ele>-19.208</ele>
  <time>2026-09-02T22:12:59Z</time>
  <course>8.66</course>
  <speed>1.7145261736118231</speed>
  <fix>3d</fix>
</trkpt>
<trkpt lat="33.810282" lon="-118.3939225">
  <ele>-18.46</ele>
  <time>2026-09-02T22:12:59Z</time>
  <course>254.24</course>
  <speed>1.74</speed>
  <fix>3d</fix>
</trkpt>
<trkpt lat="33.8102808" lon="-118.3939265">
  <ele>-19.334</ele>
  <time>2026-09-02T22:12:59Z</time>
  <course>8.66</course>
  <speed>1.7145261736118231</speed>
  <fix>3d</fix>
</trkpt>
<trkpt lat="33.810282" lon="-118.3939225">
  <ele>-18.46</ele>
  <time>2026-09-02T22:12:59Z</time>
  <course>254.24</course>
  <speed>1.74</speed>
  <fix>3d</fix>
</trkpt>
<trkpt lat="33.8102804" lon="-118.3939283">
  <ele>-19.461</ele>
  <time>2026-09-02T22:12:59Z</time>
  <course>8.67</course>
  <speed>1.7240939649566667</speed>
  <fix>3d</fix>
</trkpt>
<trkpt lat="33.8102812" lon="-118.3939261">
  <ele>-18.7</ele>
  <time>2026-09-02T22:12:59Z</time>
  <course>254.26</course>
  <speed>1.74</speed>
  <fix>3d</fix>
</trkpt>
<trkpt lat="33.81028" lon="-118.3939301">
  <ele>-19.587</ele>
  <time>2026-09-02T22:12:59Z</time>
  <course>8.67</course>
  <speed>1.7240939649566667</speed>
  <fix>3d</fix>
</trkpt>
<trkpt lat="33.8102812" lon="-118.3939261">
  <ele>-18.7</ele>
  <time>2026-09-02T22:12:59Z</time>
  <course>254.26</course>
  <speed>1.74</speed>
  <fix>3d</fix>
</trkpt>
<trkpt lat="33.8102795" lon="-118.3939319">
  <ele>-19.713</ele>
  <time>2026-09-02T22:12:59Z</time>
  <course>8.66</course>
  <speed>1.7240939649566667</speed>
  <fix>3d</fix>
</trkpt>
<trkpt lat="33.8102803" lon="-118.3939298">
  <ele>-18.95</ele>
  <time>2026-09-02T22:12:59Z</time>
  <course>254.26</course>
  <speed>1.74</speed>
  <fix>3d</fix>
</trkpt>
<trkpt lat="33.8102791" lon="-118.3939338">
  <ele>-19.837</ele>
  <time>2026-09-02T22:12:59Z</time>
  <course>8.67</course>
  <speed>1.7240939649566667</speed>
  <fix>3d</fix>
</trkpt>
<trkpt lat="33.8102803" lon="-118.3939298">
  <ele>-18.95</ele>
  <time>2026-09-02T22:12:59Z</time>
  <course>254.26</course>
  <speed>1.74</speed>
  <fix>3d</fix>
</trkpt>
<trkpt lat="33.8102787" lon="-118.3939356">
  <ele>-19.961</ele>
  <time>2026-09-02T22:12:59Z</time>
  <course>8.66</course>
  <speed>1.7240939649566667</speed>
  <fix>3d</fix>
</trkpt>
<trkpt lat="33.8102794" lon="-118.3939334">
  <ele>-19.18</ele>
  <time>2026-09-02T22:12:59Z</time>
  <course>254.27</course>
  <speed>1.74</speed>
  <fix>3d</fix>
</trkpt>
<trkpt lat="33.8102782" lon="-118.3939374">
  <ele>-20.086</ele>
  <time>2026-09-02T22:12:59Z</time>
  <course>8.67</course>
  <speed>1.7240939649566667</speed>
  <fix>3d</fix>
</trkpt>
<trkpt lat="33.8102794" lon="-118.3939334">
  <ele>-19.18</ele>
  <time>2026-09-02T22:12:59Z</time>
  <course>254.27</course>
  <speed>1.74</speed>
  <fix>3d</fix>
</trkpt>
<trkpt lat="33.8102778" lon="-118.3939392">
  <ele>-20.211</ele>
  <time>2026-09-02T22:12:59Z</time>
  <course>8.66</course>
  <speed>1.7240939649566667</speed>
  <fix>3d</fix>
</trkpt>
<trkpt lat="33.8102786" lon="-118.393937">
  <ele>-19.43</ele>
  <time>2026-09-02T22:12:59Z</time>
  <course>254.29</course>
  <speed>1.74</speed>
  <fix>3d</fix>
</trkpt>
<trkpt lat="33.8102774" lon="-118.3939411">
  <ele>-20.337</ele>
  <time>2026-09-02T22:12:59Z</time>
  <course>8.66</course>
  <speed>1.7240939649566667</speed>
  <fix>3d</fix>
</trkpt>
<trkpt lat="33.8102786" lon="-118.393937">
  <ele>-19.43</ele>
  <time>2026-09-02T22:12:59Z</time>
  <course>254.29</course>
  <speed>1.74</speed>
  <fix>3d</fix>
</trkpt>
<trkpt lat="33.8102769" lon="-118.3939429">
  <ele>-20.462</ele>
  <time>2026-09-02T22:12:59Z</time>
  <course>8.66</course>
  <speed>1.7270205557549105</speed>
  <fix>3d</fix>
</trkpt>
<trkpt lat="33.8102777" lon="-118.3939407">
  <ele>-19.68</ele>
  <time>2026-09-02T22:12:59Z</time>
  <course>254.31</course>
  <speed>1.74</speed>
  <fix>3d</fix>
</trkpt>
<trkpt lat="33.8102765" lon="-118.3939447">
  <ele>-20.586</ele>
  <time>2026-09-02T22:12:59Z</time>
  <course>8.44</course>
  <speed>1.7204650534085255</speed>
  <fix>3d</fix>
</trkpt>
<trkpt lat="33.8102777" lon="-118.3939407">
  <ele>-19.68</ele>
  <time>2026-09-02T22:12:59Z</time>
  <course>254.31</course>
  <speed>1.74</speed>
  <fix>3d</fix>
</trkpt>
<trkpt lat="33.810276" lon="-118.3939465">
  <ele>-20.71</ele>
  <time>2026-09-02T22:12:59Z</time>
  <course>8.16</course>
  <speed>1.710818517552344</speed>
  <fix>3d</fix>
</trkpt>
<trkpt lat="33.8102769" lon="-118.3939442">
  <ele>-19.92</ele>
  <time>2026-09-02T22:12:59Z</time>
  <course>253.85</course>
  <speed>1.74</speed>
  <fix>3d</fix>
</trkpt>
<trkpt lat="33.8102755" lon="-118.3939483">
  <ele>-20.834</ele>
  <time>2026-09-02T22:12:59Z</time>
  <course>7.84</course>
  <speed>1.711286066091815</speed>
  <fix>3d</fix>
</trkpt>
<trkpt lat="33.8102769" lon="-118.3939442">
  <ele>-19.92</ele>
  <time>2026-09-02T22:12:59Z</time>
  <course>253.85</course>
  <speed>1.74</speed>
  <fix>3d</fix>
</trkpt>
<trkpt lat="33.810275" lon="-118.3939501">
  <ele>-20.958</ele>
  <time>2026-09-02T22:12:59Z</time>
  <course>7.54</course>
  <speed>1.712337583538947</speed>
  <fix>3d</fix>
</trkpt>
<trkpt lat="33.810276" lon="-118.3939479">
  <ele>-20.17</ele>
  <time>2026-09-02T22:12:59Z</time>
  <course>252.41</course>
  <speed>1.72</speed>
  <fix>3d</fix>
</trkpt>
<trkpt lat="33.8102745" lon="-118.3939518">
  <ele>-21.083</ele>
  <time>2026-09-02T22:12:59Z</time>
  <course>7.28</course>
  <speed>1.7009703113223347</speed>
  <fix>3d</fix>
</trkpt>
<trkpt lat="33.810276" lon="-118.3939479">
  <ele>-20.17</ele>
  <time>2026-09-02T22:12:59Z</time>
  <course>252.41</course>
  <speed>1.72</speed>
  <fix>3d</fix>
</trkpt>
<trkpt lat="33.810274" lon="-118.3939535">
  <ele>-21.208</ele>
  <time>2026-09-02T22:12:59Z</time>
  <course>7.06</course>
  <speed>1.7030854353202602</speed>
  <fix>3d</fix>
</trkpt>
<trkpt lat="33.810275" lon="-118.3939514">
  <ele>-20.41</ele>
  <time>2026-09-02T22:12:59Z</time>
  <course>250.38</course>
  <speed>1.71</speed>
  <fix>3d</fix>
</trkpt>
<trkpt lat="33.8102734" lon="-118.3939553">
  <ele>-21.332</ele>
  <time>2026-09-02T22:12:59Z</time>
  <course>6.86</course>
  <speed>1.701763790894612</speed>
  <fix>3d</fix>
</trkpt>
<trkpt lat="33.810275" lon="-118.3939514">
  <ele>-20.41</ele>
  <time>2026-09-02T22:12:59Z</time>
  <course>250.38</course>
  <speed>1.71</speed>
  <fix>3d</fix>
</trkpt>
<trkpt lat="33.8102728" lon="-118.393957">
  <ele>-21.456</ele>
  <time>2026-09-02T22:12:59Z</time>
  <course>6.7</course>
  <speed>1.7048753620133055</speed>
  <fix>3d</fix>
</trkpt>
<trkpt lat="33.8102739" lon="-118.3939549">
  <ele>-20.65</ele>
  <time>2026-09-02T22:12:59Z</time>
  <course>248.41</course>
  <speed>1.7</speed>
  <fix>3d</fix>
</trkpt>
<trkpt lat="33.8102722" lon="-118.3939587">
  <ele>-21.581</ele>
  <time>2026-09-02T22:12:59Z</time>
  <course>6.56</course>
  <speed>1.7</speed>
  <fix>3d</fix>
</trkpt>
<trkpt lat="33.8102739" lon="-118.3939549">
  <ele>-20.65</ele>
  <time>2026-09-02T22:12:59Z</time>
  <course>248.41</course>
  <speed>1.7</speed>
  <fix>3d</fix>
</trkpt>
<trkpt lat="33.8102716" lon="-118.3939604">
  <ele>-21.705</ele>
  <time>2026-09-02T22:12:59Z</time>
  <course>6.45</course>
  <speed>1.6995587662684688</speed>
  <fix>3d</fix>
</trkpt>
<trkpt lat="33.8102728" lon="-118.3939583">
  <ele>-20.9</ele>
  <time>2026-09-02T22:12:59Z</time>
  <course>246.73</course>
  <speed>1.7</speed>
  <fix>3d</fix>
</trkpt>
<trkpt lat="33.8102709" lon="-118.3939621">
  <ele>-21.829</ele>
  <time>2026-09-02T22:12:59Z</time>
  <course>6.35</course>
  <speed>1.6994116628998401</speed>
  <fix>3d</fix>
</trkpt>
<trkpt lat="33.8102728" lon="-118.3939583">
  <ele>-20.9</ele>
  <time>2026-09-02T22:12:59Z</time>
  <course>246.73</course>
  <speed>1.7</speed>
  <fix>3d</fix>
</trkpt>
<trkpt lat="33.8102703" lon="-118.3939637">
  <ele>-21.952</ele>
  <time>2026-09-02T22:12:59Z</time>
  <course>6.28</course>
  <speed>1.6949926253526886</speed>
  <fix>3d</fix>
</trkpt>
<trkpt lat="33.8102715" lon="-118.3939616">
  <ele>-21.14</ele>
  <time>2026-09-02T22:12:59Z</time>
  <course>245.27</course>
  <speed>1.69</speed>
  <fix>3d</fix>
</trkpt>
<trkpt lat="33.8102696" lon="-118.3939654">
  <ele>-22.074</ele>
  <time>2026-09-02T22:12:59Z</time>
  <course>6.21</course>
  <speed>1.6953170794869024</speed>
  <fix>3d</fix>
</trkpt>
<trkpt lat="33.8102715" lon="-118.3939616">
  <ele>-21.14</ele>
  <time>2026-09-02T22:12:59Z</time>
  <course>245.27</course>
  <speed>1.69</speed>
  <fix>3d</fix>
</trkpt>
<trkpt lat="33.8102689" lon="-118.393967">
  <ele>-22.197</ele>
  <time>2026-09-02T22:12:59Z</time>
  <course>6.17</course>
  <speed>1.6911830178901395</speed>
  <fix>3d</fix>
</trkpt>
<trkpt lat="33.8102702" lon="-118.3939649">
  <ele>-21.38</ele>
  <time>2026-09-02T22:12:59Z</time>
  <course>243.97</course>
  <speed>1.69</speed>
  <fix>3d</fix>
</trkpt>
<trkpt lat="33.8102682" lon="-118.3939687">
  <ele>-22.319</ele>
  <time>2026-09-02T22:12:59Z</time>
  <course>6.14</course>
  <speed>1.6919810873647494</speed>
  <fix>3d</fix>
</trkpt>
<trkpt lat="33.8102702" lon="-118.3939649">
  <ele>-21.38</ele>
  <time>2026-09-02T22:12:59Z</time>
  <course>243.97</course>
  <speed>1.69</speed>
  <fix>3d</fix>
</trkpt>
<trkpt lat="33.8102675" lon="-118.3939703">
  <ele>-22.443</ele>
  <time>2026-09-02T22:12:59Z</time>
  <course>6.13</course>
  <speed>1.6881350656863925</speed>
  <fix>3d</fix>
</trkpt>
<trkpt lat="33.8102688" lon="-118.3939682">
  <ele>-21.63</ele>
  <time>2026-09-02T22:12:59Z</time>
  <course>242.79</course>
  <speed>1.68</speed>
  <fix>3d</fix>
</trkpt>
<trkpt lat="33.8102668" lon="-118.3939719">
  <ele>-22.567</ele>
  <time>2026-09-02T22:12:59Z</time>
  <course>6.13</course>
  <speed>1.6843990026119107</speed>
  <fix>3d</fix>
</trkpt>
<trkpt lat="33.8102688" lon="-118.3939682">
  <ele>-21.63</ele>
  <time>2026-09-02T22:12:59Z</time>
  <course>242.79</course>
  <speed>1.68</speed>
  <fix>3d</fix>
</trkpt>
<trkpt lat="33.8102661" lon="-118.3939735">
  <ele>-22.691</ele>
  <time>2026-09-02T22:12:59Z</time>
  <course>6.15</course>
  <speed>1.6843990026119107</speed>
  <fix>3d</fix>
</trkpt>
<trkpt lat="33.8102674" lon="-118.3939715">
  <ele>-21.87</ele>
  <time>2026-09-02T22:12:59Z</time>
  <course>241.72</course>
  <speed>1.68</speed>
  <fix>3d</fix>
</trkpt>
<trkpt lat="33.8102653" lon="-118.3939751">
  <ele>-22.816</ele>
  <time>2026-09-02T22:12:59Z</time>
  <course>6.16</course>
  <speed>1.6894081803992782</speed>
  <fix>3d</fix>
</trkpt>
<trkpt lat="33.8102674" lon="-118.3939715">
  <ele>-21.87</ele>
  <time>2026-09-02T22:12:59Z</time>
  <course>241.72</course>
  <speed>1.68</speed>
  <fix>3d</fix>
</trkpt>
<trkpt lat="33.8102646" lon="-118.3939767">
  <ele>-22.941</ele>
  <time>2026-09-02T22:12:59Z</time>
  <course>6.18</course>
  <speed>1.6930741271426952</speed>
  <fix>3d</fix>
</trkpt>
<trkpt lat="33.810266" lon="-118.3939747">
  <ele>-22.11</ele>
  <time>2026-09-02T22:12:59Z</time>
  <course>241.17</course>
  <speed>1.68</speed>
  <fix>3d</fix>
</trkpt>
<trkpt lat="33.8102639" lon="-118.3939783">
  <ele>-23.068</ele>
  <time>2026-09-02T22:12:59Z</time>
  <course>6.21</course>
  <speed>1.6930741271426952</speed>
  <fix>3d</fix>
</trkpt>
<trkpt lat="33.810266" lon="-118.3939747">
  <ele>-22.11</ele>
  <time>2026-09-02T22:12:59Z</time>
  <course>241.17</course>
  <speed>1.68</speed>
  <fix>3d</fix>
</trkpt>
<trkpt lat="33.8102632" lon="-118.3939799">
  <ele>-23.195</ele>
  <time>2026-09-02T22:12:59Z</time>
  <course>6.23</course>
  <speed>1.6881350656863925</speed>
  <fix>3d</fix>
</trkpt>
<trkpt lat="33.8102645" lon="-118.3939778">
  <ele>-22.36</ele>
  <time>2026-09-02T22:12:59Z</time>
  <course>241.27</course>
  <speed>1.68</speed>
  <fix>3d</fix>
</trkpt>
<trkpt lat="33.8102625" lon="-118.3939815">
  <ele>-23.323</ele>
  <time>2026-09-02T22:12:59Z</time>
  <course>6.26</course>
  <speed>1.6881350656863925</speed>
  <fix>3d</fix>
</trkpt>
<trkpt lat="33.8102645" lon="-118.3939778">
  <ele>-22.36</ele>
  <time>2026-09-02T22:12:59Z</time>
  <course>241.27</course>
  <speed>1.68</speed>
  <fix>3d</fix>
</trkpt>
<trkpt lat="33.8102618" lon="-118.3939831">
  <ele>-23.452</ele>
  <time>2026-09-02T22:12:59Z</time>
  <course>6.29</course>
  <speed>1.6881350656863925</speed>
  <fix>3d</fix>
</trkpt>
<trkpt lat="33.8102631" lon="-118.393981">
  <ele>-22.6</ele>
  <time>2026-09-02T22:12:59Z</time>
  <course>241.55</course>
  <speed>1.68</speed>
  <fix>3d</fix>
</trkpt>
<trkpt lat="33.8102611" lon="-118.3939847">
  <ele>-23.58</ele>
  <time>2026-09-02T22:12:59Z</time>
  <course>6.33</course>
  <speed>1.6919810873647494</speed>
  <fix>3d</fix>
</trkpt>
<trkpt lat="33.8102631" lon="-118.393981">
  <ele>-22.6</ele>
  <time>2026-09-02T22:12:59Z</time>
  <course>241.55</course>
  <speed>1.68</speed>
  <fix>3d</fix>
</trkpt>
<trkpt lat="33.8102604" lon="-118.3939863">
  <ele>-23.708</ele>
  <time>2026-09-02T22:12:59Z</time>
  <course>6.34</course>
  <speed>1.6919810873647494</speed>
  <fix>3d</fix>
</trkpt>
<trkpt lat="33.8102617" lon="-118.3939843">
  <ele>-22.84</ele>
  <time>2026-09-02T22:12:59Z</time>
  <course>241.82</course>
  <speed>1.68</speed>
  <fix>3d</fix>
</trkpt>
<trkpt lat="33.8102597" lon="-118.3939879">
  <ele>-23.835</ele>
  <time>2026-09-02T22:12:59Z</time>
  <course>6.36</course>
  <speed>1.6919810873647494</speed>
  <fix>3d</fix>
</trkpt>
<trkpt lat="33.8102617" lon="-118.3939843">
  <ele>-22.84</ele>
  <time>2026-09-02T22:12:59Z</time>
  <course>241.82</course>
  <speed>1.68</speed>
  <fix>3d</fix>
</trkpt>
<trkpt lat="33.810259" lon="-118.3939895">
  <ele>-23.963</ele>
  <time>2026-09-02T22:12:59Z</time>
  <course>6.38</course>
  <speed>1.6871573726241424</speed>
  <fix>3d</fix>
</trkpt>
<trkpt lat="33.8102602" lon="-118.3939875">
  <ele>-23.09</ele>
  <time>2026-09-02T22:12:59Z</time>
  <course>242.01</course>
  <speed>1.68</speed>
  <fix>3d</fix>
</trkpt>
<trkpt lat="33.8102583" lon="-118.3939911">
  <ele>-24.091</ele>
  <time>2026-09-02T22:12:59Z</time>
  <course>6.4</course>
  <speed>1.6871573726241424</speed>
  <fix>3d</fix>
</trkpt>
<trkpt lat="33.8102602" lon="-118.3939875">
  <ele>-23.09</ele>
  <time>2026-09-02T22:12:59Z</time>
  <course>242.01</course>
  <speed>1.68</speed>
  <fix>3d</fix>
</trkpt>
<trkpt lat="33.8102576" lon="-118.3939927">
  <ele>-24.219</ele>
  <time>2026-09-02T22:12:59Z</time>
  <course>6.42</course>
  <speed>1.6871573726241424</speed>
  <fix>3d</fix>
</trkpt>
<trkpt lat="33.8102588" lon="-118.3939907">
  <ele>-23.33</ele>
  <time>2026-09-02T22:12:59Z</time>
  <course>242.15</course>
  <speed>1.68</speed>
  <fix>3d</fix>
</trkpt>
<trkpt lat="33.8102569" lon="-118.3939944">
  <ele>-24.346</ele>
  <time>2026-09-02T22:12:59Z</time>
  <course>6.45</course>
  <speed>1.6871573726241424</speed>
  <fix>3d</fix>
</trkpt>
<trkpt lat="33.8102588" lon="-118.3939907">
  <ele>-23.33</ele>
  <time>2026-09-02T22:12:59Z</time>
  <course>242.15</course>
  <speed>1.68</speed>
  <fix>3d</fix>
</trkpt>
<trkpt lat="33.8102562" lon="-118.393996">
  <ele>-24.472</ele>
  <time>2026-09-02T22:12:59Z</time>
  <course>6.47</course>
  <speed>1.6871573726241424</speed>
  <fix>3d</fix>
</trkpt>
<trkpt lat="33.8102574" lon="-118.3939939">
  <ele>-23.58</ele>
  <time>2026-09-02T22:12:59Z</time>
  <course>242.27</course>
  <speed>1.68</speed>
  <fix>3d</fix>
</trkpt>
<trkpt lat="33.8102555" lon="-118.3939976">
  <ele>-24.597</ele>
  <time>2026-09-02T22:12:59Z</time>
  <course>6.49</course>
  <speed>1.6823792675850473</speed>
  <fix>3d</fix>
</trkpt>
<trkpt lat="33.8102574" lon="-118.3939939">
  <ele>-23.58</ele>
  <time>2026-09-02T22:12:59Z</time>
  <course>242.27</course>
  <speed>1.68</speed>
  <fix>3d</fix>
</trkpt>
<trkpt lat="33.8102548" lon="-118.3939992">
  <ele>-24.722</ele>
  <time>2026-09-02T22:12:59Z</time>
  <course>6.51</course>
  <speed>1.6823792675850473</speed>
  <fix>3d</fix>
</trkpt>
<trkpt lat="33.8102559" lon="-118.3939971">
  <ele>-23.82</ele>
  <time>2026-09-02T22:12:59Z</time>
  <course>242.38</course>
  <speed>1.68</speed>
  <fix>3d</fix>
</trkpt>
<trkpt lat="33.8102541" lon="-118.3940008">
  <ele>-24.846</ele>
  <time>2026-09-02T22:12:59Z</time>
  <course>6.54</course>
  <speed>1.6823792675850473</speed>
  <fix>3d</fix>
</trkpt>
<trkpt lat="33.8102559" lon="-118.3939971">
  <ele>-23.82</ele>
  <time>2026-09-02T22:12:59Z</time>
  <course>242.38</course>
  <speed>1.68</speed>
  <fix>3d</fix>
</trkpt>
<trkpt lat="33.8102534" lon="-118.3940024">
  <ele>-24.971</ele>
  <time>2026-09-02T22:12:59Z</time>
  <course>6.57</course>
  <speed>1.6823792675850473</speed>
  <fix>3d</fix>
</trkpt>
<trkpt lat="33.8102546" lon="-118.3940004">
  <ele>-24.06</ele>
  <time>2026-09-02T22:12:59Z</time>
  <course>242.52</course>
  <speed>1.68</speed>
  <fix>3d</fix>
</trkpt>
<trkpt lat="33.8102527" lon="-118.394004">
  <ele>-25.096</ele>
  <time>2026-09-02T22:12:59Z</time>
  <course>6.59</course>
  <speed>1.6823792675850473</speed>
  <fix>3d</fix>
</trkpt>
<trkpt lat="33.8102546" lon="-118.3940004">
  <ele>-24.06</ele>
  <time>2026-09-02T22:12:59Z</time>
  <course>242.52</course>
  <speed>1.68</speed>
  <fix>3d</fix>
</trkpt>
<trkpt lat="33.810252" lon="-118.3940056">
  <ele>-25.22</ele>
  <time>2026-09-02T22:12:59Z</time>
  <course>6.61</course>
  <speed>1.6776471619503308</speed>
  <fix>3d</fix>
</trkpt>
<trkpt lat="33.8102532" lon="-118.3940036">
  <ele>-24.31</ele>
  <time>2026-09-02T22:12:59Z</time>
  <course>242.65</course>
  <speed>1.68</speed>
  <fix>3d</fix>
</trkpt>
<trkpt lat="33.8102513" lon="-118.3940073">
  <ele>-25.344</ele>
  <time>2026-09-02T22:12:59Z</time>
  <course>6.63</course>
  <speed>1.6776471619503308</speed>
  <fix>3d</fix>
</trkpt>
<trkpt lat="33.8102532" lon="-118.3940036">
  <ele>-24.31</ele>
  <time>2026-09-02T22:12:59Z</time>
  <course>242.65</course>
  <speed>1.68</speed>
  <fix>3d</fix>
</trkpt>
<trkpt lat="33.8102506" lon="-118.3940089">
  <ele>-25.47</ele>
  <time>2026-09-02T22:12:59Z</time>
  <course>6.65</course>
  <speed>1.6776471619503308</speed>
  <fix>3d</fix>
</trkpt>
<trkpt lat="33.8102517" lon="-118.3940069">
  <ele>-24.55</ele>
  <time>2026-09-02T22:12:59Z</time>
  <course>242.76</course>
  <speed>1.68</speed>
  <fix>3d</fix>
</trkpt>
<trkpt lat="33.8102499" lon="-118.3940105">
  <ele>-25.594</ele>
  <time>2026-09-02T22:12:59Z</time>
  <course>6.66</course>
  <speed>1.6776471619503308</speed>
  <fix>3d</fix>
</trkpt>
<trkpt lat="33.8102517" lon="-118.3940069">
  <ele>-24.55</ele>
  <time>2026-09-02T22:12:59Z</time>
  <course>242.76</course>
  <speed>1.68</speed>
  <fix>3d</fix>
</trkpt>
<trkpt lat="33.8102493" lon="-118.3940121">
  <ele>-25.718</ele>
  <time>2026-09-02T22:12:59Z</time>
  <course>6.68</course>
  <speed>1.6776471619503308</speed>
  <fix>3d</fix>
</trkpt>
<trkpt lat="33.8102504" lon="-118.3940101">
  <ele>-24.8</ele>
  <time>2026-09-02T22:12:59Z</time>
  <course>242.85</course>
  <speed>1.68</speed>
  <fix>3d</fix>
</trkpt>
<trkpt lat="33.8102486" lon="-118.3940138">
  <ele>-25.842</ele>
  <time>2026-09-02T22:12:59Z</time>
  <course>6.69</course>
  <speed>1.6776471619503308</speed>
  <fix>3d</fix>
</trkpt>
<trkpt lat="33.8102504" lon="-118.3940101">
  <ele>-24.8</ele>
  <time>2026-09-02T22:12:59Z</time>
  <course>242.85</course>
  <speed>1.68</speed>
  <fix>3d</fix>
</trkpt>
<trkpt lat="33.8102479" lon="-118.3940154">
  <ele>-25.966</ele>
  <time>2026-09-02T22:12:59Z</time>
  <course>6.73</course>
  <speed>1.6776471619503308</speed>
  <fix>3d</fix>
</trkpt>
<trkpt lat="33.8102491" lon="-118.3940134">
  <ele>-25.04</ele>
  <time>2026-09-02T22:12:59Z</time>
  <course>242.94</course>
  <speed>1.69</speed>
  <fix>3d</fix>
</trkpt>
<trkpt lat="33.8102472" lon="-118.394017">
  <ele>-26.091</ele>
  <time>2026-09-02T22:12:59Z</time>
  <course>6.73</course>
  <speed>1.6776471619503308</speed>
  <fix>3d</fix>
</trkpt>
<trkpt lat="33.8102491" lon="-118.3940134">
  <ele>-25.04</ele>
  <time>2026-09-02T22:12:59Z</time>
  <course>242.94</course>
  <speed>1.69</speed>
  <fix>3d</fix>
</trkpt>
<trkpt lat="33.8102465" lon="-118.3940186">
  <ele>-26.215</ele>
  <time>2026-09-02T22:12:59Z</time>
  <course>6.76</course>
  <speed>1.6729614460590536</speed>
  <fix>3d</fix>
</trkpt>
<trkpt lat="33.8102477" lon="-118.3940166">
  <ele>-25.28</ele>
  <time>2026-09-02T22:12:59Z</time>
  <course>242.99</course>
  <speed>1.69</speed>
  <fix>3d</fix>
</trkpt>
<trkpt lat="33.8102458" lon="-118.3940202">
  <ele>-26.34</ele>
  <time>2026-09-02T22:12:59Z</time>
  <course>6.77</course>
  <speed>1.6729614460590536</speed>
  <fix>3d</fix>
</trkpt>
<trkpt lat="33.8102477" lon="-118.3940166">
  <ele>-25.28</ele>
  <time>2026-09-02T22:12:59Z</time>
  <course>242.99</course>
  <speed>1.69</speed>
  <fix>3d</fix>
</trkpt>
<trkpt lat="33.8102452" lon="-118.3940219">
  <ele>-26.464</ele>
  <time>2026-09-02T22:12:59Z</time>
  <course>6.8</course>
  <speed>1.6729614460590536</speed>
  <fix>3d</fix>
</trkpt>
<trkpt lat="33.8102463" lon="-118.3940199">
  <ele>-25.52</ele>
  <time>2026-09-02T22:12:59Z</time>
  <course>243.05</course>
  <speed>1.69</speed>
  <fix>3d</fix>
</trkpt>
<trkpt lat="33.8102445" lon="-118.3940235">
  <ele>-26.588</ele>
  <time>2026-09-02T22:12:59Z</time>
  <course>6.83</course>
  <speed>1.6729614460590536</speed>
  <fix>3d</fix>
</trkpt>
<trkpt lat="33.8102463" lon="-118.3940199">
  <ele>-25.52</ele>
  <time>2026-09-02T22:12:59Z</time>
  <course>243.05</course>
  <speed>1.69</speed>
  <fix>3d</fix>
</trkpt>
<trkpt lat="33.8102438" lon="-118.3940251">
  <ele>-26.712</ele>
  <time>2026-09-02T22:12:59Z</time>
  <course>6.85</course>
  <speed>1.6729614460590536</speed>
  <fix>3d</fix>
</trkpt>
<trkpt lat="33.8102449" lon="-118.3940231">
  <ele>-25.77</ele>
  <time>2026-09-02T22:12:59Z</time>
  <course>243.12</course>
  <speed>1.69</speed>
  <fix>3d</fix>
</trkpt>
<trkpt lat="33.8102431" lon="-118.3940267">
  <ele>-26.836</ele>
  <time>2026-09-02T22:12:59Z</time>
  <course>6.87</course>
  <speed>1.6729614460590536</speed>
  <fix>3d</fix>
</trkpt>
<trkpt lat="33.8102449" lon="-118.3940231">
  <ele>-25.77</ele>
  <time>2026-09-02T22:12:59Z</time>
  <course>243.12</course>
  <speed>1.69</speed>
  <fix>3d</fix>
</trkpt>
<trkpt lat="33.8102425" lon="-118.3940284">
  <ele>-26.96</ele>
  <time>2026-09-02T22:12:59Z</time>
  <course>6.88</course>
  <speed>1.6729614460590536</speed>
  <fix>3d</fix>
</trkpt>
<trkpt lat="33.8102436" lon="-118.3940264">
  <ele>-26.01</ele>
  <time>2026-09-02T22:12:59Z</time>
  <course>243.21</course>
  <speed>1.69</speed>
  <fix>3d</fix>
</trkpt>
<trkpt lat="33.8102418" lon="-118.39403">
  <ele>-27.085</ele>
  <time>2026-09-02T22:12:59Z</time>
  <course>6.9</course>
  <speed>1.6729614460590536</speed>
  <fix>3d</fix>
</trkpt>
<trkpt lat="33.8102436" lon="-118.3940264">
  <ele>-26.01</ele>
  <time>2026-09-02T22:12:59Z</time>
  <course>243.21</course>
  <speed>1.69</speed>
  <fix>3d</fix>
</trkpt>
<trkpt lat="33.8102411" lon="-118.3940316">
  <ele>-27.211</ele>
  <time>2026-09-02T22:12:59Z</time>
  <course>6.91</course>
  <speed>1.6683225107874078</speed>
  <fix>3d</fix>
</trkpt>
<trkpt lat="33.8102422" lon="-118.3940297">
  <ele>-26.25</ele>
  <time>2026-09-02T22:12:59Z</time>
  <course>243.29</course>
  <speed>1.69</speed>
  <fix>3d</fix>
</trkpt>
<trkpt lat="33.8102404" lon="-118.3940332">
  <ele>-27.336</ele>
  <time>2026-09-02T22:12:59Z</time>
  <course>6.93</course>
  <speed>1.6683225107874078</speed>
  <fix>3d</fix>
</trkpt>
<trkpt lat="33.8102422" lon="-118.3940297">
  <ele>-26.25</ele>
  <time>2026-09-02T22:12:59Z</time>
  <course>243.29</course>
  <speed>1.69</speed>
  <fix>3d</fix>
</trkpt>
<trkpt lat="33.8102398" lon="-118.3940349">
  <ele>-27.461</ele>
  <time>2026-09-02T22:12:59Z</time>
  <course>6.94</course>
  <speed>1.6683225107874078</speed>
  <fix>3d</fix>
</trkpt>
<trkpt lat="33.8102408" lon="-118.3940329">
  <ele>-26.5</ele>
  <time>2026-09-02T22:12:59Z</time>
  <course>243.33</course>
  <speed>1.69</speed>
  <fix>3d</fix>
</trkpt>
<trkpt lat="33.8102391" lon="-118.3940365">
  <ele>-27.586</ele>
  <time>2026-09-02T22:12:59Z</time>
  <course>6.95</course>
  <speed>1.6772000476985445</speed>
  <fix>3d</fix>
</trkpt>
<trkpt lat="33.8102408" lon="-118.3940329">
  <ele>-26.5</ele>
  <time>2026-09-02T22:12:59Z</time>
  <course>243.33</course>
  <speed>1.69</speed>
  <fix>3d</fix>
</trkpt>
<trkpt lat="33.8102384" lon="-118.3940381">
  <ele>-27.71</ele>
  <time>2026-09-02T22:12:59Z</time>
  <course>6.96</course>
  <speed>1.6772000476985445</speed>
  <fix>3d</fix>
</trkpt>
<trkpt lat="33.8102394" lon="-118.3940362">
  <ele>-26.74</ele>
  <time>2026-09-02T22:12:59Z</time>
  <course>243.38</course>
  <speed>1.69</speed>
  <fix>3d</fix>
</trkpt>
<trkpt lat="33.8102377" lon="-118.3940398">
  <ele>-27.834</ele>
  <time>2026-09-02T22:12:59Z</time>
  <course>6.97</course>
  <speed>1.6772000476985445</speed>
  <fix>3d</fix>
</trkpt>
<trkpt lat="33.8102394" lon="-118.3940362">
  <ele>-26.74</ele>
  <time>2026-09-02T22:12:59Z</time>
  <course>243.38</course>
  <speed>1.69</speed>
  <fix>3d</fix>
</trkpt>
<trkpt lat="33.810237" lon="-118.3940414">
  <ele>-27.957</ele>
  <time>2026-09-02T22:12:59Z</time>
  <course>6.99</course>
  <speed>1.6772000476985445</speed>
  <fix>3d</fix>
</trkpt>
<trkpt lat="33.8102381" lon="-118.3940395">
  <ele>-26.99</ele>
  <time>2026-09-02T22:12:59Z</time>
  <course>243.45</course>
  <speed>1.69</speed>
  <fix>3d</fix>
</trkpt>
<trkpt lat="33.8102364" lon="-118.3940431">
  <ele>-28.082</ele>
  <time>2026-09-02T22:12:59Z</time>
  <course>7.01</course>
  <speed>1.6772000476985445</speed>
  <fix>3d</fix>
</trkpt>
<trkpt lat="33.8102381" lon="-118.3940395">
  <ele>-26.99</ele>
  <time>2026-09-02T22:12:59Z</time>
  <course>243.45</course>
  <speed>1.69</speed>
  <fix>3d</fix>
</trkpt>
<trkpt lat="33.8102357" lon="-118.3940446">
  <ele>-28.203</ele>
  <time>2026-09-02T22:12:59Z</time>
  <course>7.03</course>
  <speed>1.4029255147726127</speed>
  <fix>3d</fix>
</trkpt>
<trkpt lat="33.8102367" lon="-118.3940427">
  <ele>-27.23</ele>
  <time>2026-09-02T22:12:59Z</time>
  <course>243.52</course>
  <speed>1.69</speed>
  <fix>3d</fix>
</trkpt>
<trkpt lat="33.8102351" lon="-118.3940457">
  <ele>-28.282</ele>
  <time>2026-09-02T22:12:59Z</time>
  <course>7.06</course>
  <speed>0.8981091247727082</speed>
  <fix>3d</fix>
</trkpt>
<trkpt lat="33.8102367" lon="-118.3940427">
  <ele>-27.23</ele>
  <time>2026-09-02T22:12:59Z</time>
  <course>243.52</course>
  <speed>1.69</speed>
  <fix>3d</fix>
</trkpt>
<trkpt lat="33.8102347" lon="-118.3940464">
  <ele>-28.333</ele>
  <time>2026-09-02T22:12:59Z</time>
  <course>7.09</course>
  <speed>0.6794115100585212</speed>
  <fix>3d</fix>
</trkpt>
<trkpt lat="33.8102355" lon="-118.3940456">
  <ele>-27.45</ele>
  <time>2026-09-02T22:12:59Z</time>
  <course>240.48</course>
  <speed>1.25</speed>
  <fix>3d</fix>
</trkpt>
<trkpt lat="33.8102343" lon="-118.3940469">
  <ele>-28.369</ele>
  <time>2026-09-02T22:12:59Z</time>
  <course>7.11</course>
  <speed>0.5445181356024793</speed>
  <fix>3d</fix>
</trkpt>
<trkpt lat="33.8102355" lon="-118.3940456">
  <ele>-27.45</ele>
  <time>2026-09-02T22:12:59Z</time>
  <course>240.48</course>
  <speed>1.25</speed>
  <fix>3d</fix>
</trkpt>
<trkpt lat="33.810234" lon="-118.3940473">
  <ele>-28.394</ele>
  <time>2026-09-02T22:12:59Z</time>
  <course>7.12</course>
  <speed>0.46010868281309364</speed>
  <fix>3d</fix>
</trkpt>
<trkpt lat="33.8102345" lon="-118.3940473">
  <ele>-27.58</ele>
  <time>2026-09-02T22:12:59Z</time>
  <course>232.69</course>
  <speed>0.67</speed>
  <fix>3d</fix>
</trkpt>
<trkpt lat="33.8102337" lon="-118.3940477">
  <ele>-28.412</ele>
  <time>2026-09-02T22:12:59Z</time>
  <course>7.14</course>
  <speed>0.4045985664828782</speed>
  <fix>3d</fix>
</trkpt>
<trkpt lat="33.8102345" lon="-118.3940473">
  <ele>-27.58</ele>
  <time>2026-09-02T22:12:59Z</time>
  <course>232.69</course>
  <speed>0.67</speed>
  <fix>3d</fix>
</trkpt>
<trkpt lat="33.8102335" lon="-118.3940481">
  <ele>-28.425</ele>
  <time>2026-09-02T22:12:59Z</time>
  <course>7.16</course>
  <speed>0.36235341863986875</speed>
  <fix>3d</fix>
</trkpt>
<trkpt lat="33.8102339" lon="-118.3940482">
  <ele>-27.64</ele>
  <time>2026-09-02T22:12:59Z</time>
  <course>229.38</course>
  <speed>0.44</speed>
  <fix>3d</fix>
</trkpt>
<trkpt lat="33.8102333" lon="-118.3940484">
  <ele>-28.435</ele>
  <time>2026-09-02T22:12:59Z</time>
  <course>7.18</course>
  <speed>0.3280243893371345</speed>
  <fix>3d</fix>
</trkpt>
<trkpt lat="33.8102339" lon="-118.3940482">
  <ele>-27.64</ele>
  <time>2026-09-02T22:12:59Z</time>
  <course>229.38</course>
  <speed>0.44</speed>
  <fix>3d</fix>
</trkpt>
<trkpt lat="33.810233" lon="-118.3940486">
  <ele>-28.442</ele>
  <time>2026-09-02T22:12:59Z</time>
  <course>7.2</course>
  <speed>0.3</speed>
  <fix>3d</fix>
</trkpt>
<trkpt lat="33.8102334" lon="-118.3940489">
  <ele>-27.68</ele>
  <time>2026-09-02T22:12:59Z</time>
  <course>227.89</course>
  <speed>0.33</speed>
  <fix>3d</fix>
</trkpt>
<trkpt lat="33.8102329" lon="-118.3940489">
  <ele>-28.448</ele>
  <time>2026-09-02T22:12:59Z</time>
  <course>7.21</course>
  <speed>0.2720294101747089</speed>
  <fix>3d</fix>
</trkpt>
<trkpt lat="33.8102334" lon="-118.3940489">
  <ele>-27.68</ele>
  <time>2026-09-02T22:12:59Z</time>
  <course>227.89</course>
  <speed>0.33</speed>
  <fix>3d</fix>
</trkpt>
<trkpt lat="33.8102327" lon="-118.3940491">
  <ele>-28.452</ele>
  <time>2026-09-02T22:12:59Z</time>
  <course>7.23</course>
  <speed>0.2580697580112788</speed>
  <fix>3d</fix>
</trkpt>
<trkpt lat="33.8102331" lon="-118.3940494">
  <ele>-27.71</ele>
  <time>2026-09-02T22:12:59Z</time>
  <course>227.04</course>
  <speed>0.26</speed>
  <fix>3d</fix>
</trkpt>
<trkpt lat="33.8102325" lon="-118.3940494">
  <ele>-28.456</ele>
  <time>2026-09-02T22:12:59Z</time>
  <course>7.25</course>
  <speed>0.24413111231467405</speed>
  <fix>3d</fix>
</trkpt>
<trkpt lat="33.8102331" lon="-118.3940494">
  <ele>-27.71</ele>
  <time>2026-09-02T22:12:59Z</time>
  <course>227.04</course>
  <speed>0.26</speed>
  <fix>3d</fix>
</trkpt>
<trkpt lat="33.810232" lon="-118.3940501">
  <ele>-28.466</ele>
  <time>2026-09-02T22:12:59Z</time>
  <course>7.31</course>
  <speed>0.194164878389476</speed>
  <fix>3d</fix>
</trkpt>
<trkpt lat="33.8102326" lon="-118.39405">
  <ele>-27.76</ele>
  <time>2026-09-02T22:12:59Z</time>
  <course>226.09</course>
  <speed>0.19</speed>
  <fix>3d</fix>
</trkpt>
<trkpt lat="33.8102317" lon="-118.3940505">
  <ele>-28.472</ele>
  <time>2026-09-02T22:12:59Z</time>
  <course>7.37</course>
  <speed>0.1664331697709324</speed>
  <fix>3d</fix>
</trkpt>
<trkpt lat="33.8102322" lon="-118.3940505">
  <ele>-27.78</ele>
  <time>2026-09-02T22:12:59Z</time>
  <course>225.59</course>
  <speed>0.14</speed>
  <fix>3d</fix>
</trkpt>
<trkpt lat="33.8102316" lon="-118.3940506">
  <ele>-28.473</ele>
  <time>2026-09-02T22:12:59Z</time>
  <course>7.39</course>
  <speed>0.1664331697709324</speed>
  <fix>3d</fix>
</trkpt>
<trkpt lat="33.8102322" lon="-118.3940505">
  <ele>-27.78</ele>
  <time>2026-09-02T22:12:59Z</time>
  <course>225.59</course>
  <speed>0.14</speed>
  <fix>3d</fix>
</trkpt>
<trkpt lat="33.8102315" lon="-118.3940507">
  <ele>-28.473</ele>
  <time>2026-09-02T22:12:59Z</time>
  <course>7.4</course>
  <speed>0.15811388300841897</speed>
  <fix>3d</fix>
</trkpt>
<trkpt lat="33.810232" lon="-118.3940508">
  <ele>-27.79</ele>
  <time>2026-09-02T22:12:59Z</time>
  <course>225.43</course>
  <speed>0.13</speed>
  <fix>3d</fix>
</trkpt>
<trkpt lat="33.8102315" lon="-118.3940508">
  <ele>-28.474</ele>
  <time>2026-09-02T22:12:59Z</time>
  <course>7.42</course>
  <speed>0.14422205101855956</speed>
  <fix>3d</fix>
</trkpt>
<trkpt lat="33.810232" lon="-118.3940508">
  <ele>-27.79</ele>
  <time>2026-09-02T22:12:59Z</time>
  <course>225.43</course>
  <speed>0.13</speed>
  <fix>3d</fix>
</trkpt>
<trkpt lat="33.8102314" lon="-118.394051">
  <ele>-28.475</ele>
  <time>2026-09-02T22:12:59Z</time>
  <course>7.44</course>
  <speed>0.14422205101855956</speed>
  <fix>3d</fix>
</trkpt>
<trkpt lat="33.8102318" lon="-118.394051">
  <ele>-27.8</ele>
  <time>2026-09-02T22:12:59Z</time>
  <course>225.3</course>
  <speed>0.12</speed>
  <fix>3d</fix>
</trkpt>
<trkpt lat="33.8102313" lon="-118.3940511">
  <ele>-28.476</ele>
  <time>2026-09-02T22:12:59Z</time>
  <course>7.46</course>
  <speed>0.13601470508735444</speed>
  <fix>3d</fix>
</trkpt>
<trkpt lat="33.8102318" lon="-118.394051">
  <ele>-27.8</ele>
  <time>2026-09-02T22:12:59Z</time>
  <course>225.3</course>
  <speed>0.12</speed>
  <fix>3d</fix>
</trkpt>
<trkpt lat="33.8102313" lon="-118.3940512">
  <ele>-28.476</ele>
  <time>2026-09-02T22:12:59Z</time>
  <course>7.48</course>
  <speed>0.130384048104053</speed>
  <fix>3d</fix>
</trkpt>
<trkpt lat="33.8102317" lon="-118.3940512">
  <ele>-27.8</ele>
  <time>2026-09-02T22:12:59Z</time>
  <course>225.2</course>
  <speed>0.11</speed>
  <fix>3d</fix>
</trkpt>
<trkpt lat="33.8102312" lon="-118.3940512">
  <ele>-28.475</ele>
  <time>2026-09-02T22:12:59Z</time>
  <course>7.5</course>
  <speed>0.130384048104053</speed>
  <fix>3d</fix>
</trkpt>
<trkpt lat="33.8102317" lon="-118.3940512">
  <ele>-27.8</ele>
  <time>2026-09-02T22:12:59Z</time>
  <course>225.2</course>
  <speed>0.11</speed>
  <fix>3d</fix>
</trkpt>
<trkpt lat="33.8102311" lon="-118.3940513">
  <ele>-28.472</ele>
  <time>2026-09-02T22:12:59Z</time>
  <course>7.52</course>
  <speed>0.12206555615733702</speed>
  <fix>3d</fix>
</trkpt>
<trkpt lat="33.8102315" lon="-118.3940513">
  <ele>-27.8</ele>
  <time>2026-09-02T22:12:59Z</time>
  <course>225.12</course>
  <speed>0.1</speed>
  <fix>3d</fix>
</trkpt>
<trkpt lat="33.8102311" lon="-118.3940514">
  <ele>-28.47</ele>
  <time>2026-09-02T22:12:59Z</time>
  <course>7.54</course>
  <speed>0.12206555615733702</speed>
  <fix>3d</fix>
</trkpt>
<trkpt lat="33.8102315" lon="-118.3940513">
  <ele>-27.8</ele>
  <time>2026-09-02T22:12:59Z</time>
  <course>225.12</course>
  <speed>0.1</speed>
  <fix>3d</fix>
</trkpt>
<trkpt lat="33.810231" lon="-118.3940515">
  <ele>-28.467</ele>
  <time>2026-09-02T22:12:59Z</time>
  <course>7.56</course>
  <speed>0.11661903789690602</speed>
  <fix>3d</fix>
</trkpt>
<trkpt lat="33.8102314" lon="-118.3940515">
  <ele>-27.8</ele>
  <time>2026-09-02T22:12:59Z</time>
  <course>225.05</course>
  <speed>0.09</speed>
  <fix>3d</fix>
</trkpt>
<trkpt lat="33.810231" lon="-118.3940516">
  <ele>-28.464</ele>
  <time>2026-09-02T22:12:59Z</time>
  <course>7.58</course>
  <speed>0.10816653826391968</speed>
  <fix>3d</fix>
</trkpt>
<trkpt lat="33.8102314" lon="-118.3940515">
  <ele>-27.8</ele>
  <time>2026-09-02T22:12:59Z</time>
  <course>225.05</course>
  <speed>0.09</speed>
  <fix>3d</fix>
</trkpt>
<trkpt lat="33.8102309" lon="-118.3940517">
  <ele>-28.461</ele>
  <time>2026-09-02T22:12:59Z</time>
  <course>7.6</course>
  <speed>0.10816653826391968</speed>
  <fix>3d</fix>
</trkpt>
<trkpt lat="33.8102313" lon="-118.3940516">
  <ele>-27.79</ele>
  <time>2026-09-02T22:12:59Z</time>
  <course>224.99</course>
  <speed>0.09</speed>
  <fix>3d</fix>
</trkpt>
<trkpt lat="33.8102309" lon="-118.3940517">
  <ele>-28.457</ele>
  <time>2026-09-02T22:12:59Z</time>
  <course>7.62</course>
  <speed>0.10816653826391968</speed>
  <fix>3d</fix>
</trkpt>
<trkpt lat="33.8102313" lon="-118.3940516">
  <ele>-27.79</ele>
  <time>2026-09-02T22:12:59Z</time>
  <course>224.99</course>
  <speed>0.09</speed>
  <fix>3d</fix>
</trkpt>
<trkpt lat="33.4361815" lon="-117.0837675">
  <ele>0.41</ele>
  <time>2026-09-02T22:13:00Z</time>
  <course>0.0</course>
  <speed>0.0</speed>
  <fix>3d</fix>
</trkpt>
<trkpt lat="33.4361815" lon="-117.0837675">
  <ele>0.41</ele>
  <time>2026-09-02T22:13:00Z</time>
  <course>0.0</course>
  <speed>0.0</speed>
  <fix>3d</fix>
</trkpt>
<trkpt lat="33.810313" lon="-118.393867">
  <ele>0.0</ele>
  <time>2026-09-02T22:13:00Z</time>
  <course>173.5</course>
  <speed>0.0</speed>
  <fix>3d</fix>
</trkpt>
<trkpt lat="33.810313" lon="-118.393867">
  <ele>0.43</ele>
  <time>2026-09-02T22:13:00Z</time>
  <course>0.0</course>
  <speed>0.0</speed>
  <fix>3d</fix>
</trkpt>
<trkpt lat="33.810313" lon="-118.393867">
  <ele>0.0</ele>
  <time>2026-09-02T22:13:00Z</time>
  <course>173.56</course>
  <speed>0.0</speed>
  <fix>3d</fix>
</trkpt>
<trkpt lat="33.810313" lon="-118.393867">
  <ele>0.43</ele>
  <time>2026-09-02T22:13:00Z</time>
  <course>0.0</course>
  <speed>0.0</speed>
  <fix>3d</fix>
</trkpt>
<trkpt lat="33.810313" lon="-118.393867">
  <ele>0.0</ele>
  <time>2026-09-02T22:13:00Z</time>
  <course>173.9</course>
  <speed>0.0</speed>
  <fix>3d</fix>
</trkpt>
<trkpt lat="33.810313" lon="-118.393867">
  <ele>0.44</ele>
  <time>2026-09-02T22:13:00Z</time>
  <course>0.0</course>
  <speed>0.0</speed>
  <fix>3d</fix>
</trkpt>
<trkpt lat="33.810313" lon="-118.393867">
  <ele>0.0</ele>
  <time>2026-09-02T22:13:00Z</time>
  <course>174.41</course>
  <speed>0.0</speed>
  <fix>3d</fix>
</trkpt>
<trkpt lat="33.810313" lon="-118.393867">
  <ele>0.44</ele>
  <time>2026-09-02T22:13:00Z</time>
  <course>0.0</course>
  <speed>0.0</speed>
  <fix>3d</fix>
</trkpt>
<trkpt lat="33.810313" lon="-118.393867">
  <ele>0.0</ele>
  <time>2026-09-02T22:13:00Z</time>
  <course>174.97</course>
  <speed>0.0</speed>
  <fix>3d</fix>
</trkpt>
<trkpt lat="33.810313" lon="-118.393867">
  <ele>0.45</ele>
  <time>2026-09-02T22:13:00Z</time>
  <course>0.0</course>
  <speed>0.0</speed>
  <fix>3d</fix>
</trkpt>
<trkpt lat="33.810313" lon="-118.393867">
  <ele>0.0</ele>
  <time>2026-09-02T22:13:00Z</time>
  <course>175.51</course>
  <speed>0.0</speed>
  <fix>3d</fix>
</trkpt>
<trkpt lat="33.810313" lon="-118.393867">
  <ele>0.45</ele>
  <time>2026-09-02T22:13:00Z</time>
  <course>0.0</course>
  <speed>0.0</speed>
  <fix>3d</fix>
</trkpt>
<trkpt lat="33.810313" lon="-118.393867">
  <ele>0.0</ele>
  <time>2026-09-02T22:13:00Z</time>
  <course>176.02</course>
  <speed>0.0</speed>
  <fix>3d</fix>
</trkpt>
<trkpt lat="33.810313" lon="-118.393867">
  <ele>0.45</ele>
  <time>2026-09-02T22:13:00Z</time>
  <course>0.0</course>
  <speed>0.0</speed>
  <fix>3d</fix>
</trkpt>
<trkpt lat="33.810313" lon="-118.393867">
  <ele>0.0</ele>
  <time>2026-09-02T22:13:00Z</time>
  <course>176.5</course>
  <speed>0.0</speed>
  <fix>3d</fix>
</trkpt>
<trkpt lat="33.810313" lon="-118.393867">
  <ele>0.45</ele>
  <time>2026-09-02T22:13:00Z</time>
  <course>0.0</course>
  <speed>0.0</speed>
  <fix>3d</fix>
</trkpt>
<trkpt lat="33.810313" lon="-118.393867">
  <ele>0.0</ele>
  <time>2026-09-02T22:13:00Z</time>
  <course>176.97</course>
  <speed>0.0</speed>
  <fix>3d</fix>
</trkpt>
<trkpt lat="33.810313" lon="-118.393867">
  <ele>0.45</ele>
  <time>2026-09-02T22:13:00Z</time>
  <course>0.0</course>
  <speed>0.0</speed>
  <fix>3d</fix>
</trkpt>
<trkpt lat="33.810313" lon="-118.393867">
  <ele>0.0</ele>
  <time>2026-09-02T22:13:00Z</time>
  <course>177.43</course>
  <speed>0.0</speed>
  <fix>3d</fix>
</trkpt>
<trkpt lat="33.810313" lon="-118.393867">
  <ele>0.45</ele>
  <time>2026-09-02T22:13:00Z</time>
  <course>0.0</course>
  <speed>0.0</speed>
  <fix>3d</fix>
</trkpt>
<trkpt lat="33.810313" lon="-118.393867">
  <ele>0.0</ele>
  <time>2026-09-02T22:13:00Z</time>
  <course>177.87</course>
  <speed>0.0</speed>
  <fix>3d</fix>
</trkpt>
<trkpt lat="33.810313" lon="-118.393867">
  <ele>0.46</ele>
  <time>2026-09-02T22:13:00Z</time>
  <course>0.0</course>
  <speed>0.0</speed>
  <fix>3d</fix>
</trkpt>
<trkpt lat="33.810313" lon="-118.393867">
  <ele>0.0</ele>
  <time>2026-09-02T22:13:00Z</time>
  <course>178.3</course>
  <speed>0.0</speed>
  <fix>3d</fix>
</trkpt>
<trkpt lat="33.810313" lon="-118.393867">
  <ele>0.46</ele>
  <time>2026-09-02T22:13:00Z</time>
  <course>0.0</course>
  <speed>0.0</speed>
  <fix>3d</fix>
</trkpt>
<trkpt lat="33.810313" lon="-118.393867">
  <ele>0.0</ele>
  <time>2026-09-02T22:13:00Z</time>
  <course>178.71</course>
  <speed>0.0</speed>
  <fix>3d</fix>
</trkpt>
<trkpt lat="33.810313" lon="-118.393867">
  <ele>0.47</ele>
  <time>2026-09-02T22:13:00Z</time>
  <course>0.0</course>
  <speed>0.0</speed>
  <fix>3d</fix>
</trkpt>
<trkpt lat="33.810313" lon="-118.393867">
  <ele>0.0</ele>
  <time>2026-09-02T22:13:00Z</time>
  <course>179.11</course>
  <speed>0.0</speed>
  <fix>3d</fix>
</trkpt>
<trkpt lat="33.810313" lon="-118.393867">
  <ele>0.47</ele>
  <time>2026-09-02T22:13:00Z</time>
  <course>0.0</course>
  <speed>0.0</speed>
  <fix>3d</fix>
</trkpt>
<trkpt lat="33.810313" lon="-118.393867">
  <ele>0.0</ele>
  <time>2026-09-02T22:13:00Z</time>
  <course>179.5</course>
  <speed>0.0</speed>
  <fix>3d</fix>
</trkpt>
<trkpt lat="33.810313" lon="-118.393867">
  <ele>0.48</ele>
  <time>2026-09-02T22:13:00Z</time>
  <course>0.0</course>
  <speed>0.0</speed>
  <fix>3d</fix>
</trkpt>
<trkpt lat="33.810313" lon="-118.393867">
  <ele>0.0</ele>
  <time>2026-09-02T22:13:00Z</time>
  <course>179.87</course>
  <speed>0.0</speed>
  <fix>3d</fix>
</trkpt>
<trkpt lat="33.810313" lon="-118.393867">
  <ele>0.48</ele>
  <time>2026-09-02T22:13:00Z</time>
  <course>0.0</course>
  <speed>0.0</speed>
  <fix>3d</fix>
</trkpt>
<trkpt lat="33.810313" lon="-118.393867">
  <ele>0.0</ele>
  <time>2026-09-02T22:13:00Z</time>
  <course>180.25</course>
  <speed>0.0</speed>
  <fix>3d</fix>
</trkpt>
<trkpt lat="33.810313" lon="-118.393867">
  <ele>0.49</ele>
  <time>2026-09-02T22:13:00Z</time>
  <course>0.0</course>
  <speed>0.0</speed>
  <fix>3d</fix>
</trkpt>
<trkpt lat="33.810313" lon="-118.393867">
  <ele>0.0</ele>
  <time>2026-09-02T22:13:00Z</time>
  <course>180.59</course>
  <speed>0.0</speed>
  <fix>3d</fix>
</trkpt>
<trkpt lat="33.810313" lon="-118.393867">
  <ele>0.49</ele>
  <time>2026-09-02T22:13:00Z</time>
  <course>0.0</course>
  <speed>0.0</speed>
  <fix>3d</fix>
</trkpt>
<trkpt lat="33.810313" lon="-118.393867">
  <ele>0.0</ele>
  <time>2026-09-02T22:13:00Z</time>
  <course>180.93</course>
  <speed>0.0</speed>
  <fix>3d</fix>
</trkpt>
<trkpt lat="33.810313" lon="-118.393867">
  <ele>0.51</ele>
  <time>2026-09-02T22:13:00Z</time>
  <course>0.0</course>
  <speed>0.0</speed>
  <fix>3d</fix>
</trkpt>
<trkpt lat="33.810313" lon="-118.393867">
  <ele>0.0</ele>
  <time>2026-09-02T22:13:00Z</time>
  <course>181.26</course>
  <speed>0.0</speed>
  <fix>3d</fix>
</trkpt>
<trkpt lat="33.810313" lon="-118.393867">
  <ele>0.51</ele>
  <time>2026-09-02T22:13:00Z</time>
  <course>0.0</course>
  <speed>0.0</speed>
  <fix>3d</fix>
</trkpt>
<trkpt lat="33.810313" lon="-118.393867">
  <ele>0.0</ele>
  <time>2026-09-02T22:13:00Z</time>
  <course>181.57</course>
  <speed>0.0</speed>
  <fix>3d</fix>
</trkpt>
<trkpt lat="33.810313" lon="-118.393867">
  <ele>0.53</ele>
  <time>2026-09-02T22:13:00Z</time>
  <course>0.0</course>
  <speed>0.0</speed>
  <fix>3d</fix>
</trkpt>
<trkpt lat="33.810313" lon="-118.393867">
  <ele>0.0</ele>
  <time>2026-09-02T22:13:00Z</time>
  <course>181.87</course>
  <speed>0.0</speed>
  <fix>3d</fix>
</trkpt>
<trkpt lat="33.810313" lon="-118.393867">
  <ele>0.53</ele>
  <time>2026-09-02T22:13:00Z</time>
  <course>0.0</course>
  <speed>0.0</speed>
  <fix>3d</fix>
</trkpt>
<trkpt lat="33.810313" lon="-118.393867">
  <ele>0.0</ele>
  <time>2026-09-02T22:13:00Z</time>
  <course>182.16</course>
  <speed>0.0</speed>
  <fix>3d</fix>
</trkpt>
<trkpt lat="33.810313" lon="-118.393867">
  <ele>0.54</ele>
  <time>2026-09-02T22:13:00Z</time>
  <course>0.0</course>
  <speed>0.0</speed>
  <fix>3d</fix>
</trkpt>
<trkpt lat="33.810313" lon="-118.393867">
  <ele>0.0</ele>
  <time>2026-09-02T22:13:00Z</time>
  <course>182.44</course>
  <speed>0.0</speed>
  <fix>3d</fix>
</trkpt>
<trkpt lat="33.810313" lon="-118.393867">
  <ele>0.54</ele>
  <time>2026-09-02T22:13:00Z</time>
  <course>0.0</course>
  <speed>0.0</speed>
  <fix>3d</fix>
</trkpt>
<trkpt lat="33.810313" lon="-118.393867">
  <ele>0.0</ele>
  <time>2026-09-02T22:13:00Z</time>
  <course>182.71</course>
  <speed>0.0</speed>
  <fix>3d</fix>
</trkpt>
<trkpt lat="33.810313" lon="-118.393867">
  <ele>0.57</ele>
  <time>2026-09-02T22:13:00Z</time>
  <course>0.0</course>
  <speed>0.0</speed>
  <fix>3d</fix>
</trkpt>
<trkpt lat="33.810313" lon="-118.393867">
  <ele>0.0</ele>
  <time>2026-09-02T22:13:00Z</time>
  <course>182.97</course>
  <speed>0.0</speed>
  <fix>3d</fix>
</trkpt>
<trkpt lat="33.810313" lon="-118.393867">
  <ele>0.57</ele>
  <time>2026-09-02T22:13:00Z</time>
  <course>0.0</course>
  <speed>0.0</speed>
  <fix>3d</fix>
</trkpt>
<trkpt lat="33.810313" lon="-118.393867">
  <ele>0.0</ele>
  <time>2026-09-02T22:13:00Z</time>
  <course>183.22</course>
  <speed>0.0</speed>
  <fix>3d</fix>
</trkpt>
<trkpt lat="33.810313" lon="-118.393867">
  <ele>0.58</ele>
  <time>2026-09-02T22:13:00Z</time>
  <course>0.0</course>
  <speed>0.0</speed>
  <fix>3d</fix>
</trkpt>
<trkpt lat="33.810313" lon="-118.393867">
  <ele>0.0</ele>
  <time>2026-09-02T22:13:00Z</time>
  <course>183.46</course>
  <speed>0.0</speed>
  <fix>3d</fix>
</trkpt>
<trkpt lat="33.810313" lon="-118.393867">
  <ele>0.58</ele>
  <time>2026-09-02T22:13:00Z</time>
  <course>0.0</course>
  <speed>0.0</speed>
  <fix>3d</fix>
</trkpt>
<trkpt lat="33.810313" lon="-118.393867">
  <ele>0.0</ele>
  <time>2026-09-02T22:13:00Z</time>
  <course>183.69</course>
  <speed>0.0</speed>
  <fix>3d</fix>
</trkpt>
<trkpt lat="33.810313" lon="-118.393867">
  <ele>0.58</ele>
  <time>2026-09-02T22:13:00Z</time>
  <course>0.0</course>
  <speed>0.0</speed>
  <fix>3d</fix>
</trkpt>
<trkpt lat="33.810313" lon="-118.393867">
  <ele>0.0</ele>
  <time>2026-09-02T22:13:00Z</time>
  <course>183.91</course>
  <speed>0.0</speed>
  <fix>3d</fix>
</trkpt>
<trkpt lat="33.810313" lon="-118.393867">
  <ele>0.58</ele>
  <time>2026-09-02T22:13:00Z</time>
  <course>0.0</course>
  <speed>0.0</speed>
  <fix>3d</fix>
</trkpt>
<trkpt lat="33.810313" lon="-118.393867">
  <ele>0.0</ele>
  <time>2026-09-02T22:13:00Z</time>
  <course>184.12</course>
  <speed>0.0</speed>
  <fix>3d</fix>
</trkpt>
<trkpt lat="33.810313" lon="-118.393867">
  <ele>0.59</ele>
  <time>2026-09-02T22:13:00Z</time>
  <course>0.0</course>
  <speed>0.0</speed>
  <fix>3d</fix>
</trkpt>
<trkpt lat="33.810313" lon="-118.393867">
  <ele>0.0</ele>
  <time>2026-09-02T22:13:00Z</time>
  <course>184.33</course>
  <speed>0.0</speed>
  <fix>3d</fix>
</trkpt>
<trkpt lat="33.810313" lon="-118.393867">
  <ele>0.59</ele>
  <time>2026-09-02T22:13:00Z</time>
  <course>0.0</course>
  <speed>0.0</speed>
  <fix>3d</fix>
</trkpt>
<trkpt lat="33.810313" lon="-118.393867">
  <ele>0.0</ele>
  <time>2026-09-02T22:13:00Z</time>
  <course>184.52</course>
  <speed>0.0</speed>
  <fix>3d</fix>
</trkpt>
<trkpt lat="33.810313" lon="-118.393867">
  <ele>0.59</ele>
  <time>2026-09-02T22:13:00Z</time>
  <course>0.0</course>
  <speed>0.0</speed>
  <fix>3d</fix>
</trkpt>
<trkpt lat="33.810313" lon="-118.393867">
  <ele>0.0</ele>
  <time>2026-09-02T22:13:00Z</time>
  <course>184.71</course>
  <speed>0.0</speed>
  <fix>3d</fix>
</trkpt>
<trkpt lat="33.810313" lon="-118.393867">
  <ele>0.59</ele>
  <time>2026-09-02T22:13:00Z</time>
  <course>0.0</course>
  <speed>0.0</speed>
  <fix>3d</fix>
</trkpt>
<trkpt lat="33.810313" lon="-118.393867">
  <ele>0.0</ele>
  <time>2026-09-02T22:13:00Z</time>
  <course>184.89</course>
  <speed>0.0</speed>
  <fix>3d</fix>
</trkpt>
<trkpt lat="33.810313" lon="-118.393867">
  <ele>0.6</ele>
  <time>2026-09-02T22:13:00Z</time>
  <course>0.0</course>
  <speed>0.0</speed>
  <fix>3d</fix>
</trkpt>
<trkpt lat="33.810313" lon="-118.393867">
  <ele>0.0</ele>
  <time>2026-09-02T22:13:00Z</time>
  <course>185.06</course>
  <speed>0.0</speed>
  <fix>3d</fix>
</trkpt>
<trkpt lat="33.810313" lon="-118.393867">
  <ele>0.6</ele>
  <time>2026-09-02T22:13:00Z</time>
  <course>0.0</course>
  <speed>0.0</speed>
  <fix>3d</fix>
</trkpt>
<trkpt lat="33.810313" lon="-118.393867">
  <ele>0.0</ele>
  <time>2026-09-02T22:13:00Z</time>
  <course>185.23</course>
  <speed>0.0</speed>
  <fix>3d</fix>
</trkpt>
<trkpt lat="33.810313" lon="-118.393867">
  <ele>0.62</ele>
  <time>2026-09-02T22:13:00Z</time>
  <course>0.0</course>
  <speed>0.0</speed>
  <fix>3d</fix>
</trkpt>
<trkpt lat="33.810313" lon="-118.393867">
  <ele>0.0</ele>
  <time>2026-09-02T22:13:00Z</time>
  <course>185.39</course>
  <speed>0.0</speed>
  <fix>3d</fix>
</trkpt>
<trkpt lat="33.810313" lon="-118.393867">
  <ele>0.62</ele>
  <time>2026-09-02T22:13:00Z</time>
  <course>0.0</course>
  <speed>0.0</speed>
  <fix>3d</fix>
</trkpt>
<trkpt lat="33.810313" lon="-118.393867">
  <ele>0.0</ele>
  <time>2026-09-02T22:13:00Z</time>
  <course>185.54</course>
  <speed>0.0</speed>
  <fix>3d</fix>
</trkpt>
<trkpt lat="33.810313" lon="-118.393867">
  <ele>0.63</ele>
  <time>2026-09-02T22:13:00Z</time>
  <course>0.0</course>
  <speed>0.0</speed>
  <fix>3d</fix>
</trkpt>
<trkpt lat="33.810313" lon="-118.393867">
  <ele>0.0</ele>
  <time>2026-09-02T22:13:00Z</time>
  <course>185.69</course>
  <speed>0.0</speed>
  <fix>3d</fix>
</trkpt>
<trkpt lat="33.810313" lon="-118.393867">
  <ele>0.63</ele>
  <time>2026-09-02T22:13:00Z</time>
  <course>0.0</course>
  <speed>0.0</speed>
  <fix>3d</fix>
</trkpt>
<trkpt lat="33.810313" lon="-118.393867">
  <ele>0.0</ele>
  <time>2026-09-02T22:13:00Z</time>
  <course>185.83</course>
  <speed>0.0</speed>
  <fix>3d</fix>
</trkpt>
<trkpt lat="33.810313" lon="-118.393867">
  <ele>0.65</ele>
  <time>2026-09-02T22:13:00Z</time>
  <course>0.0</course>
  <speed>0.0</speed>
  <fix>3d</fix>
</trkpt>
<trkpt lat="33.810313" lon="-118.393867">
  <ele>0.0</ele>
  <time>2026-09-02T22:13:00Z</time>
  <course>185.97</course>
  <speed>0.0</speed>
  <fix>3d</fix>
</trkpt>
<trkpt lat="33.810313" lon="-118.393867">
  <ele>0.65</ele>
  <time>2026-09-02T22:13:00Z</time>
  <course>0.0</course>
  <speed>0.0</speed>
  <fix>3d</fix>
</trkpt>
<trkpt lat="33.810313" lon="-118.393867">
  <ele>0.0</ele>
  <time>2026-09-02T22:13:00Z</time>
  <course>186.09</course>
  <speed>0.0</speed>
  <fix>3d</fix>
</trkpt>
<trkpt lat="33.810313" lon="-118.393867">
  <ele>0.67</ele>
  <time>2026-09-02T22:13:00Z</time>
  <course>0.0</course>
  <speed>0.0</speed>
  <fix>3d</fix>
</trkpt>
<trkpt lat="33.810313" lon="-118.393867">
  <ele>0.0</ele>
  <time>2026-09-02T22:13:00Z</time>
  <course>186.22</course>
  <speed>0.0</speed>
  <fix>3d</fix>
</trkpt>
<trkpt lat="33.810313" lon="-118.393867">
  <ele>0.67</ele>
  <time>2026-09-02T22:13:00Z</time>
  <course>0.0</course>
  <speed>0.0</speed>
  <fix>3d</fix>
</trkpt>
<trkpt lat="33.810313" lon="-118.393867">
  <ele>0.0</ele>
  <time>2026-09-02T22:13:00Z</time>
  <course>186.34</course>
  <speed>0.0</speed>
  <fix>3d</fix>
</trkpt>
<trkpt lat="33.810313" lon="-118.393867">
  <ele>0.68</ele>
  <time>2026-09-02T22:13:00Z</time>
  <course>0.0</course>
  <speed>0.0</speed>
  <fix>3d</fix>
</trkpt>
<trkpt lat="33.810313" lon="-118.393867">
  <ele>0.0</ele>
  <time>2026-09-02T22:13:00Z</time>
  <course>186.45</course>
  <speed>0.0</speed>
  <fix>3d</fix>
</trkpt>
<trkpt lat="33.810313" lon="-118.393867">
  <ele>0.68</ele>
  <time>2026-09-02T22:13:00Z</time>
  <course>0.0</course>
  <speed>0.0</speed>
  <fix>3d</fix>
</trkpt>
<trkpt lat="33.810313" lon="-118.393867">
  <ele>0.0</ele>
  <time>2026-09-02T22:13:00Z</time>
  <course>186.56</course>
  <speed>0.0</speed>
  <fix>3d</fix>
</trkpt>
<trkpt lat="33.810313" lon="-118.393867">
  <ele>0.69</ele>
  <time>2026-09-02T22:13:00Z</time>
  <course>0.0</course>
  <speed>0.0</speed>
  <fix>3d</fix>
</trkpt>
<trkpt lat="33.810313" lon="-118.393867">
  <ele>0.0</ele>
  <time>2026-09-02T22:13:00Z</time>
  <course>186.66</course>
  <speed>0.0</speed>
  <fix>3d</fix>
</trkpt>
<trkpt lat="33.810313" lon="-118.393867">
  <ele>0.69</ele>
  <time>2026-09-02T22:13:00Z</time>
  <course>0.0</course>
  <speed>0.0</speed>
  <fix>3d</fix>
</trkpt>
<trkpt lat="33.810313" lon="-118.393867">
  <ele>0.0</ele>
  <time>2026-09-02T22:13:00Z</time>
  <course>186.76</course>
  <speed>0.0</speed>
  <fix>3d</fix>
</trkpt>
<trkpt lat="33.810313" lon="-118.393867">
  <ele>0.7</ele>
  <time>2026-09-02T22:13:00Z</time>
  <course>0.0</course>
  <speed>0.0</speed>
  <fix>3d</fix>
</trkpt>
<trkpt lat="33.810313" lon="-118.393867">
  <ele>0.0</ele>
  <time>2026-09-02T22:13:00Z</time>
  <course>186.86</course>
  <speed>0.0</speed>
  <fix>3d</fix>
</trkpt>
<trkpt lat="33.810313" lon="-118.393867">
  <ele>0.7</ele>
  <time>2026-09-02T22:13:00Z</time>
  <course>0.0</course>
  <speed>0.0</speed>
  <fix>3d</fix>
</trkpt>
<trkpt lat="33.810313" lon="-118.393867">
  <ele>0.0</ele>
  <time>2026-09-02T22:13:00Z</time>
  <course>186.95</course>
  <speed>0.0</speed>
  <fix>3d</fix>
</trkpt>
<trkpt lat="33.810313" lon="-118.393867">
  <ele>0.7</ele>
  <time>2026-09-02T22:13:00Z</time>
  <course>0.0</course>
  <speed>0.0</speed>
  <fix>3d</fix>
</trkpt>
<trkpt lat="33.810313" lon="-118.393867">
  <ele>0.0</ele>
  <time>2026-09-02T22:13:00Z</time>
  <course>187.04</course>
  <speed>0.0</speed>
  <fix>3d</fix>
</trkpt>
<trkpt lat="33.810313" lon="-118.393867">
  <ele>0.7</ele>
  <time>2026-09-02T22:13:00Z</time>
  <course>0.0</course>
  <speed>0.0</speed>
  <fix>3d</fix>
</trkpt>
<trkpt lat="33.810313" lon="-118.393867">
  <ele>0.0</ele>
  <time>2026-09-02T22:13:00Z</time>
  <course>187.12</course>
  <speed>0.0</speed>
  <fix>3d</fix>
</trkpt>
<trkpt lat="33.810313" lon="-118.393867">
  <ele>0.71</ele>
  <time>2026-09-02T22:13:00Z</time>
  <course>0.0</course>
  <speed>0.0</speed>
  <fix>3d</fix>
</trkpt>
<trkpt lat="33.810313" lon="-118.393867">
  <ele>0.0</ele>
  <time>2026-09-02T22:13:00Z</time>
  <course>187.2</course>
  <speed>0.0</speed>
  <fix>3d</fix>
</trkpt>
<trkpt lat="33.810313" lon="-118.393867">
  <ele>0.71</ele>
  <time>2026-09-02T22:13:00Z</time>
  <course>0.0</course>
  <speed>0.0</speed>
  <fix>3d</fix>
</trkpt>
<trkpt lat="33.810313" lon="-118.393867">
  <ele>0.0</ele>
  <time>2026-09-02T22:13:00Z</time>
  <course>187.27</course>
  <speed>0.0</speed>
  <fix>3d</fix>
</trkpt>
<trkpt lat="33.810313" lon="-118.393867">
  <ele>0.72</ele>
  <time>2026-09-02T22:13:00Z</time>
  <course>0.0</course>
  <speed>0.0</speed>
  <fix>3d</fix>
</trkpt>
<trkpt lat="33.810313" lon="-118.393867">
  <ele>0.0</ele>
  <time>2026-09-02T22:13:00Z</time>
  <course>187.35</course>
  <speed>0.0</speed>
  <fix>3d</fix>
</trkpt>
<trkpt lat="33.810313" lon="-118.393867">
  <ele>0.72</ele>
  <time>2026-09-02T22:13:00Z</time>
  <course>0.0</course>
  <speed>0.0</speed>
  <fix>3d</fix>
</trkpt>
<trkpt lat="33.810313" lon="-118.393867">
  <ele>0.0</ele>
  <time>2026-09-02T22:13:00Z</time>
  <course>187.42</course>
  <speed>0.0</speed>
  <fix>3d</fix>
</trkpt>
<trkpt lat="33.810313" lon="-118.393867">
  <ele>0.74</ele>
  <time>2026-09-02T22:13:00Z</time>
  <course>0.0</course>
  <speed>0.0</speed>
  <fix>3d</fix>
</trkpt>
<trkpt lat="33.810313" lon="-118.393867">
  <ele>0.0</ele>
  <time>2026-09-02T22:13:00Z</time>
  <course>187.48</course>
  <speed>0.0</speed>
  <fix>3d</fix>
</trkpt>
<trkpt lat="33.810313" lon="-118.393867">
  <ele>0.74</ele>
  <time>2026-09-02T22:13:00Z</time>
  <course>0.0</course>
  <speed>0.0</speed>
  <fix>3d</fix>
</trkpt>
<trkpt lat="33.810313" lon="-118.393867">
  <ele>0.0</ele>
  <time>2026-09-02T22:13:00Z</time>
  <course>187.55</course>
  <speed>0.0</speed>
  <fix>3d</fix>
</trkpt>
<trkpt lat="33.810313" lon="-118.393867">
  <ele>0.75</ele>
  <time>2026-09-02T22:13:00Z</time>
  <course>0.0</course>
  <speed>0.0</speed>
  <fix>3d</fix>
</trkpt>
<trkpt lat="33.810313" lon="-118.393867">
  <ele>0.0</ele>
  <time>2026-09-02T22:13:00Z</time>
  <course>187.61</course>
  <speed>0.0</speed>
  <fix>3d</fix>
</trkpt>
<trkpt lat="33.810313" lon="-118.393867">
  <ele>0.75</ele>
  <time>2026-09-02T22:13:00Z</time>
  <course>0.0</course>
  <speed>0.0</speed>
  <fix>3d</fix>
</trkpt>
<trkpt lat="33.810313" lon="-118.393867">
  <ele>0.0</ele>
  <time>2026-09-02T22:13:00Z</time>
  <course>187.67</course>
  <speed>0.0</speed>
  <fix>3d</fix>
</trkpt>
<trkpt lat="33.810313" lon="-118.393867">
  <ele>0.77</ele>
  <time>2026-09-02T22:13:00Z</time>
  <course>0.0</course>
  <speed>0.0</speed>
  <fix>3d</fix>
</trkpt>
<trkpt lat="33.810313" lon="-118.393867">
  <ele>0.0</ele>
  <time>2026-09-02T22:13:00Z</time>
  <course>187.72</course>
  <speed>0.0</speed>
  <fix>3d</fix>
</trkpt>
<trkpt lat="33.810313" lon="-118.393867">
  <ele>0.77</ele>
  <time>2026-09-02T22:13:00Z</time>
  <course>0.0</course>
  <speed>0.0</speed>
  <fix>3d</fix>
</trkpt>
<trkpt lat="33.810313" lon="-118.393867">
  <ele>0.0</ele>
  <time>2026-09-02T22:13:00Z</time>
  <course>187.77</course>
  <speed>0.0</speed>
  <fix>3d</fix>
</trkpt>
<trkpt lat="33.810313" lon="-118.393867">
  <ele>0.78</ele>
  <time>2026-09-02T22:13:00Z</time>
  <course>0.0</course>
  <speed>0.0</speed>
  <fix>3d</fix>
</trkpt>
<trkpt lat="33.810313" lon="-118.393867">
  <ele>0.0</ele>
  <time>2026-09-02T22:13:00Z</time>
  <course>187.82</course>
  <speed>0.0</speed>
  <fix>3d</fix>
</trkpt>
<trkpt lat="33.810313" lon="-118.393867">
  <ele>0.78</ele>
  <time>2026-09-02T22:13:00Z</time>
  <course>0.0</course>
  <speed>0.0</speed>
  <fix>3d</fix>
</trkpt>
<trkpt lat="33.810313" lon="-118.393867">
  <ele>0.0</ele>
  <time>2026-09-02T22:13:00Z</time>
  <course>187.87</course>
  <speed>0.0</speed>
  <fix>3d</fix>
</trkpt>
<trkpt lat="33.810313" lon="-118.393867">
  <ele>0.79</ele>
  <time>2026-09-02T22:13:00Z</time>
  <course>0.0</course>
  <speed>0.0</speed>
  <fix>3d</fix>
</trkpt>
<trkpt lat="33.810313" lon="-118.393867">
  <ele>0.0</ele>
  <time>2026-09-02T22:13:00Z</time>
  <course>187.92</course>
  <speed>0.0</speed>
  <fix>3d</fix>
</trkpt>
<trkpt lat="33.810313" lon="-118.393867">
  <ele>0.79</ele>
  <time>2026-09-02T22:13:00Z</time>
  <course>0.0</course>
  <speed>0.0</speed>
  <fix>3d</fix>
</trkpt>
<trkpt lat="33.810313" lon="-118.393867">
  <ele>0.0</ele>
  <time>2026-09-02T22:13:00Z</time>
  <course>187.96</course>
  <speed>0.0</speed>
  <fix>3d</fix>
</trkpt>
<trkpt lat="33.810313" lon="-118.393867">
  <ele>0.8</ele>
  <time>2026-09-02T22:13:00Z</time>
  <course>0.0</course>
  <speed>0.0</speed>
  <fix>3d</fix>
</trkpt>
<trkpt lat="33.810313" lon="-118.393867">
  <ele>0.0</ele>
  <time>2026-09-02T22:13:00Z</time>
  <course>188.0</course>
  <speed>0.0</speed>
  <fix>3d</fix>
</trkpt>
<trkpt lat="33.810313" lon="-118.393867">
  <ele>0.8</ele>
  <time>2026-09-02T22:13:00Z</time>
  <course>0.0</course>
  <speed>0.0</speed>
  <fix>3d</fix>
</trkpt>
<trkpt lat="33.810313" lon="-118.393867">
  <ele>0.0</ele>
  <time>2026-09-02T22:13:00Z</time>
  <course>188.04</course>
  <speed>0.0</speed>
  <fix>3d</fix>
</trkpt>
<trkpt lat="33.810313" lon="-118.393867">
  <ele>0.81</ele>
  <time>2026-09-02T22:13:00Z</time>
  <course>0.0</course>
  <speed>0.0</speed>
  <fix>3d</fix>
</trkpt>
<trkpt lat="33.810313" lon="-118.393867">
  <ele>0.0</ele>
  <time>2026-09-02T22:13:00Z</time>
  <course>188.08</course>
  <speed>0.0</speed>
  <fix>3d</fix>
</trkpt>
<trkpt lat="33.810313" lon="-118.393867">
  <ele>0.81</ele>
  <time>2026-09-02T22:13:00Z</time>
  <course>0.0</course>
  <speed>0.0</speed>
  <fix>3d</fix>
</trkpt>
<trkpt lat="33.810313" lon="-118.393867">
  <ele>0.0</ele>
  <time>2026-09-02T22:13:00Z</time>
  <course>188.12</course>
  <speed>0.0</speed>
  <fix>3d</fix>
</trkpt>
<trkpt lat="33.810313" lon="-118.393867">
  <ele>0.82</ele>
  <time>2026-09-02T22:13:00Z</time>
  <course>0.0</course>
  <speed>0.0</speed>
  <fix>3d</fix>
</trkpt>
<trkpt lat="33.810313" lon="-118.393867">
  <ele>0.0</ele>
  <time>2026-09-02T22:13:00Z</time>
  <course>188.15</course>
  <speed>0.0</speed>
  <fix>3d</fix>
</trkpt>
<trkpt lat="33.810313" lon="-118.393867">
  <ele>0.82</ele>
  <time>2026-09-02T22:13:00Z</time>
  <course>0.0</course>
  <speed>0.0</speed>
  <fix>3d</fix>
</trkpt>
<trkpt lat="33.810313" lon="-118.393867">
  <ele>0.0</ele>
  <time>2026-09-02T22:13:00Z</time>
  <course>188.18</course>
  <speed>0.0</speed>
  <fix>3d</fix>
</trkpt>
<trkpt lat="33.810313" lon="-118.393867">
  <ele>0.83</ele>
  <time>2026-09-02T22:13:00Z</time>
  <course>0.0</course>
  <speed>0.0</speed>
  <fix>3d</fix>
</trkpt>
<trkpt lat="33.810313" lon="-118.393867">
  <ele>0.0</ele>
  <time>2026-09-02T22:13:00Z</time>
  <course>188.21</course>
  <speed>0.0</speed>
  <fix>3d</fix>
</trkpt>
<trkpt lat="33.810313" lon="-118.393867">
  <ele>0.83</ele>
  <time>2026-09-02T22:13:00Z</time>
  <course>0.0</course>
  <speed>0.0</speed>
  <fix>3d</fix>
</trkpt>
<trkpt lat="33.810313" lon="-118.393867">
  <ele>0.0</ele>
  <time>2026-09-02T22:13:00Z</time>
  <course>188.24</course>
  <speed>0.0</speed>
  <fix>3d</fix>
</trkpt>
<trkpt lat="33.810313" lon="-118.393867">
  <ele>0.84</ele>
  <time>2026-09-02T22:13:00Z</time>
  <course>0.0</course>
  <speed>0.0</speed>
  <fix>3d</fix>
</trkpt>
<trkpt lat="33.810313" lon="-118.393867">
  <ele>0.0</ele>
  <time>2026-09-02T22:13:01Z</time>
  <course>188.27</course>
  <speed>0.0</speed>
  <fix>3d</fix>
</trkpt>
<trkpt lat="33.810313" lon="-118.393867">
  <ele>0.84</ele>
  <time>2026-09-02T22:13:01Z</time>
  <course>0.0</course>
  <speed>0.0</speed>
  <fix>3d</fix>
</trkpt>
<trkpt lat="33.810313" lon="-118.393867">
  <ele>0.0</ele>
  <time>2026-09-02T22:13:01Z</time>
  <course>188.3</course>
  <speed>0.0</speed>
  <fix>3d</fix>
</trkpt>
<trkpt lat="33.810313" lon="-118.393867">
  <ele>0.86</ele>
  <time>2026-09-02T22:13:01Z</time>
  <course>0.0</course>
  <speed>0.0</speed>
  <fix>3d</fix>
</trkpt>
<trkpt lat="33.810313" lon="-118.393867">
  <ele>0.0</ele>
  <time>2026-09-02T22:13:01Z</time>
  <course>188.32</course>
  <speed>0.0</speed>
  <fix>3d</fix>
</trkpt>
<trkpt lat="33.810313" lon="-118.393867">
  <ele>0.86</ele>
  <time>2026-09-02T22:13:01Z</time>
  <course>0.0</course>
  <speed>0.0</speed>
  <fix>3d</fix>
</trkpt>
<trkpt lat="33.810313" lon="-118.393867">
  <ele>0.0</ele>
  <time>2026-09-02T22:13:01Z</time>
  <course>188.35</course>
  <speed>0.0</speed>
  <fix>3d</fix>
</trkpt>
<trkpt lat="33.810313" lon="-118.393867">
  <ele>0.87</ele>
  <time>2026-09-02T22:13:01Z</time>
  <course>0.0</course>
  <speed>0.0</speed>
  <fix>3d</fix>
</trkpt>
<trkpt lat="33.810313" lon="-118.393867">
  <ele>0.0</ele>
  <time>2026-09-02T22:13:01Z</time>
  <course>188.37</course>
  <speed>0.0</speed>
  <fix>3d</fix>
</trkpt>
<trkpt lat="33.810313" lon="-118.393867">
  <ele>0.87</ele>
  <time>2026-09-02T22:13:01Z</time>
  <course>0.0</course>
  <speed>0.0</speed>
  <fix>3d</fix>
</trkpt>
<trkpt lat="33.810313" lon="-118.393867">
  <ele>0.0</ele>
  <time>2026-09-02T22:13:01Z</time>
  <course>188.4</course>
  <speed>0.0</speed>
  <fix>3d</fix>
</trkpt>
<trkpt lat="33.810313" lon="-118.393867">
  <ele>0.88</ele>
  <time>2026-09-02T22:13:01Z</time>
  <course>0.0</course>
  <speed>0.0</speed>
  <fix>3d</fix>
</trkpt>
<trkpt lat="33.810313" lon="-118.393867">
  <ele>0.0</ele>
  <time>2026-09-02T22:13:01Z</time>
  <course>188.42</course>
  <speed>0.0</speed>
  <fix>3d</fix>
</trkpt>
<trkpt lat="33.810313" lon="-118.393867">
  <ele>0.88</ele>
  <time>2026-09-02T22:13:01Z</time>
  <course>0.0</course>
  <speed>0.0</speed>
  <fix>3d</fix>
</trkpt>
<trkpt lat="33.810313" lon="-118.393867">
  <ele>0.0</ele>
  <time>2026-09-02T22:13:01Z</time>
  <course>188.45</course>
  <speed>0.0</speed>
  <fix>3d</fix>
</trkpt>
<trkpt lat="33.810313" lon="-118.393867">
  <ele>0.89</ele>
  <time>2026-09-02T22:13:01Z</time>
  <course>0.0</course>
  <speed>0.0</speed>
  <fix>3d</fix>
</trkpt>
<trkpt lat="33.810313" lon="-118.393867">
  <ele>0.0</ele>
  <time>2026-09-02T22:13:01Z</time>
  <course>188.46</course>
  <speed>0.0</speed>
  <fix>3d</fix>
</trkpt>
<trkpt lat="33.810313" lon="-118.393867">
  <ele>0.89</ele>
  <time>2026-09-02T22:13:01Z</time>
  <course>0.0</course>
  <speed>0.0</speed>
  <fix>3d</fix>
</trkpt>
<trkpt lat="33.810313" lon="-118.393867">
  <ele>0.0</ele>
  <time>2026-09-02T22:13:01Z</time>
  <course>188.48</course>
  <speed>0.0</speed>
  <fix>3d</fix>
</trkpt>
<trkpt lat="33.810313" lon="-118.393867">
  <ele>0.9</ele>
  <time>2026-09-02T22:13:01Z</time>
  <course>0.0</course>
  <speed>0.0</speed>
  <fix>3d</fix>
</trkpt>
<trkpt lat="33.810313" lon="-118.393867">
  <ele>0.0</ele>
  <time>2026-09-02T22:13:01Z</time>
  <course>188.5</course>
  <speed>0.0</speed>
  <fix>3d</fix>
</trkpt>
<trkpt lat="33.810313" lon="-118.393867">
  <ele>0.9</ele>
  <time>2026-09-02T22:13:01Z</time>
  <course>0.0</course>
  <speed>0.0</speed>
  <fix>3d</fix>
</trkpt>
<trkpt lat="33.810313" lon="-118.393867">
  <ele>0.0</ele>
  <time>2026-09-02T22:13:01Z</time>
  <course>188.51</course>
  <speed>0.0</speed>
  <fix>3d</fix>
</trkpt>
<trkpt lat="33.810313" lon="-118.393867">
  <ele>0.91</ele>
  <time>2026-09-02T22:13:01Z</time>
  <course>0.0</course>
  <speed>0.0</speed>
  <fix>3d</fix>
</trkpt>
<trkpt lat="33.810313" lon="-118.393867">
  <ele>0.0</ele>
  <time>2026-09-02T22:13:01Z</time>
  <course>188.52</course>
  <speed>0.0</speed>
  <fix>3d</fix>
</trkpt>
<trkpt lat="33.810313" lon="-118.393867">
  <ele>0.91</ele>
  <time>2026-09-02T22:13:01Z</time>
  <course>0.0</course>
  <speed>0.0</speed>
  <fix>3d</fix>
</trkpt>
<trkpt lat="33.810313" lon="-118.393867">
  <ele>0.0</ele>
  <time>2026-09-02T22:13:01Z</time>
  <course>188.54</course>
  <speed>0.0</speed>
  <fix>3d</fix>
</trkpt>
<trkpt lat="33.810313" lon="-118.393867">
  <ele>0.92</ele>
  <time>2026-09-02T22:13:01Z</time>
  <course>0.0</course>
  <speed>0.0</speed>
  <fix>3d</fix>
</trkpt>
<trkpt lat="33.810313" lon="-118.393867">
  <ele>0.0</ele>
  <time>2026-09-02T22:13:01Z</time>
  <course>188.55</course>
  <speed>0.0</speed>
  <fix>3d</fix>
</trkpt>
<trkpt lat="33.810313" lon="-118.393867">
  <ele>0.92</ele>
  <time>2026-09-02T22:13:01Z</time>
  <course>0.0</course>
  <speed>0.0</speed>
  <fix>3d</fix>
</trkpt>
<trkpt lat="33.810313" lon="-118.393867">
  <ele>0.0</ele>
  <time>2026-09-02T22:13:01Z</time>
  <course>188.56</course>
  <speed>0.0</speed>
  <fix>3d</fix>
</trkpt>
<trkpt lat="33.810313" lon="-118.393867">
  <ele>0.93</ele>
  <time>2026-09-02T22:13:01Z</time>
  <course>0.0</course>
  <speed>0.0</speed>
  <fix>3d</fix>
</trkpt>
<trkpt lat="33.810313" lon="-118.393867">
  <ele>0.0</ele>
  <time>2026-09-02T22:13:01Z</time>
  <course>188.57</course>
  <speed>0.0</speed>
  <fix>3d</fix>
</trkpt>
<trkpt lat="33.810313" lon="-118.393867">
  <ele>0.93</ele>
  <time>2026-09-02T22:13:01Z</time>
  <course>0.0</course>
  <speed>0.0</speed>
  <fix>3d</fix>
</trkpt>
<trkpt lat="33.810313" lon="-118.393867">
  <ele>0.0</ele>
  <time>2026-09-02T22:13:01Z</time>
  <course>188.58</course>
  <speed>0.0</speed>
  <fix>3d</fix>
</trkpt>
<trkpt lat="33.810313" lon="-118.393867">
  <ele>0.95</ele>
  <time>2026-09-02T22:13:01Z</time>
  <course>0.0</course>
  <speed>0.0</speed>
  <fix>3d</fix>
</trkpt>
<trkpt lat="33.810313" lon="-118.393867">
  <ele>0.0</ele>
  <time>2026-09-02T22:13:01Z</time>
  <course>188.59</course>
  <speed>0.0</speed>
  <fix>3d</fix>
</trkpt>
<trkpt lat="33.810313" lon="-118.393867">
  <ele>0.95</ele>
  <time>2026-09-02T22:13:01Z</time>
  <course>0.0</course>
  <speed>0.0</speed>
  <fix>3d</fix>
</trkpt>
<trkpt lat="33.810313" lon="-118.393867">
  <ele>0.0</ele>
  <time>2026-09-02T22:13:01Z</time>
  <course>188.6</course>
  <speed>0.0</speed>
  <fix>3d</fix>
</trkpt>
<trkpt lat="33.810313" lon="-118.393867">
  <ele>0.96</ele>
  <time>2026-09-02T22:13:01Z</time>
  <course>0.0</course>
  <speed>0.0</speed>
  <fix>3d</fix>
</trkpt>
<trkpt lat="33.810313" lon="-118.393867">
  <ele>0.0</ele>
  <time>2026-09-02T22:13:01Z</time>
  <course>188.61</course>
  <speed>0.0</speed>
  <fix>3d</fix>
</trkpt>
<trkpt lat="33.810313" lon="-118.393867">
  <ele>0.96</ele>
  <time>2026-09-02T22:13:01Z</time>
  <course>0.0</course>
  <speed>0.0</speed>
  <fix>3d</fix>
</trkpt>
<trkpt lat="33.810313" lon="-118.393867">
  <ele>0.0</ele>
  <time>2026-09-02T22:13:01Z</time>
  <course>188.61</course>
  <speed>0.0</speed>
  <fix>3d</fix>
</trkpt>
<trkpt lat="33.810313" lon="-118.393867">
  <ele>0.97</ele>
  <time>2026-09-02T22:13:01Z</time>
  <course>0.0</course>
  <speed>0.0</speed>
  <fix>3d</fix>
</trkpt>
<trkpt lat="33.810313" lon="-118.393867">
  <ele>0.0</ele>
  <time>2026-09-02T22:13:01Z</time>
  <course>188.62</course>
  <speed>0.0</speed>
  <fix>3d</fix>
</trkpt>
<trkpt lat="33.810313" lon="-118.393867">
  <ele>0.97</ele>
  <time>2026-09-02T22:13:01Z</time>
  <course>0.0</course>
  <speed>0.0</speed>
  <fix>3d</fix>
</trkpt>
<trkpt lat="33.810313" lon="-118.393867">
  <ele>0.0</ele>
  <time>2026-09-02T22:13:01Z</time>
  <course>188.63</course>
  <speed>0.0</speed>
  <fix>3d</fix>
</trkpt>
<trkpt lat="33.810313" lon="-118.393867">
  <ele>0.98</ele>
  <time>2026-09-02T22:13:01Z</time>
  <course>0.0</course>
  <speed>0.0</speed>
  <fix>3d</fix>
</trkpt>
<trkpt lat="33.810313" lon="-118.393867">
  <ele>0.0</ele>
  <time>2026-09-02T22:13:01Z</time>
  <course>188.63</course>
  <speed>0.0</speed>
  <fix>3d</fix>
</trkpt>
<trkpt lat="33.810313" lon="-118.393867">
  <ele>0.98</ele>
  <time>2026-09-02T22:13:01Z</time>
  <course>0.0</course>
  <speed>0.0</speed>
  <fix>3d</fix>
</trkpt>
<trkpt lat="33.810313" lon="-118.393867">
  <ele>0.0</ele>
  <time>2026-09-02T22:13:01Z</time>
  <course>188.64</course>
  <speed>0.0</speed>
  <fix>3d</fix>
</trkpt>
<trkpt lat="33.810313" lon="-118.393867">
  <ele>0.99</ele>
  <time>2026-09-02T22:13:01Z</time>
  <course>0.0</course>
  <speed>0.0</speed>
  <fix>3d</fix>
</trkpt>
<trkpt lat="33.810313" lon="-118.393867">
  <ele>0.0</ele>
  <time>2026-09-02T22:13:01Z</time>
  <course>188.64</course>
  <speed>0.0</speed>
  <fix>3d</fix>
</trkpt>
<trkpt lat="33.810313" lon="-118.393867">
  <ele>0.99</ele>
  <time>2026-09-02T22:13:01Z</time>
  <course>0.0</course>
  <speed>0.0</speed>
  <fix>3d</fix>
</trkpt>
<trkpt lat="33.8103131" lon="-118.3938671">
  <ele>0.996</ele>
  <time>2026-09-02T22:13:01Z</time>
  <course>188.65</course>
  <speed>0.0</speed>
  <fix>3d</fix>
</trkpt>
<trkpt lat="33.810313" lon="-118.393867">
  <ele>1.0</ele>
  <time>2026-09-02T22:13:01Z</time>
  <course>0.0</course>
  <speed>0.0</speed>
  <fix>3d</fix>
</trkpt>
<trkpt lat="33.8103131" lon="-118.3938671">
  <ele>0.999</ele>
  <time>2026-09-02T22:13:01Z</time>
  <course>188.65</course>
  <speed>0.0</speed>
  <fix>3d</fix>
</trkpt>
<trkpt lat="33.810313" lon="-118.393867">
  <ele>1.0</ele>
  <time>2026-09-02T22:13:01Z</time>
  <course>0.0</course>
  <speed>0.0</speed>
  <fix>3d</fix>
</trkpt>
<trkpt lat="33.8103131" lon="-118.3938671">
  <ele>1.002</ele>
  <time>2026-09-02T22:13:01Z</time>
  <course>188.65</course>
  <speed>0.0</speed>
  <fix>3d</fix>
</trkpt>
<trkpt lat="33.810313" lon="-118.393867">
  <ele>1.01</ele>
  <time>2026-09-02T22:13:01Z</time>
  <course>0.0</course>
  <speed>0.0</speed>
  <fix>3d</fix>
</trkpt>
<trkpt lat="33.8103131" lon="-118.3938671">
  <ele>1.006</ele>
  <time>2026-09-02T22:13:01Z</time>
  <course>188.66</course>
  <speed>0.0</speed>
  <fix>3d</fix>
</trkpt>
<trkpt lat="33.810313" lon="-118.393867">
  <ele>1.01</ele>
  <time>2026-09-02T22:13:01Z</time>
  <course>0.0</course>
  <speed>0.0</speed>
  <fix>3d</fix>
</trkpt>
<trkpt lat="33.8103131" lon="-118.3938672">
  <ele>1.009</ele>
  <time>2026-09-02T22:13:01Z</time>
  <course>188.66</course>
  <speed>0.0</speed>
  <fix>3d</fix>
</trkpt>
<trkpt lat="33.810313" lon="-118.393867">
  <ele>1.03</ele>
  <time>2026-09-02T22:13:01Z</time>
  <course>0.0</course>
  <speed>0.0</speed>
  <fix>3d</fix>
</trkpt>
<trkpt lat="33.8103131" lon="-118.3938672">
  <ele>1.008</ele>
  <time>2026-09-02T22:13:01Z</time>
  <course>188.66</course>
  <speed>0.0</speed>
  <fix>3d</fix>
</trkpt>
<trkpt lat="33.810313" lon="-118.393867">
  <ele>1.03</ele>
  <time>2026-09-02T22:13:01Z</time>
  <course>0.0</course>
  <speed>0.0</speed>
  <fix>3d</fix>
</trkpt>
<trkpt lat="33.8103131" lon="-118.3938672">
  <ele>1.006</ele>
  <time>2026-09-02T22:13:01Z</time>
  <course>188.66</course>
  <speed>0.0</speed>
  <fix>3d</fix>
</trkpt>
<trkpt lat="33.810313" lon="-118.393867">
  <ele>1.04</ele>
  <time>2026-09-02T22:13:01Z</time>
  <course>0.0</course>
  <speed>0.0</speed>
  <fix>3d</fix>
</trkpt>
<trkpt lat="33.8103131" lon="-118.3938672">
  <ele>1.002</ele>
  <time>2026-09-02T22:13:01Z</time>
  <course>188.66</course>
  <speed>0.0</speed>
  <fix>3d</fix>
</trkpt>
<trkpt lat="33.810313" lon="-118.393867">
  <ele>1.04</ele>
  <time>2026-09-02T22:13:01Z</time>
  <course>0.0</course>
  <speed>0.0</speed>
  <fix>3d</fix>
</trkpt>
<trkpt lat="33.8103131" lon="-118.3938672">
  <ele>0.999</ele>
  <time>2026-09-02T22:13:01Z</time>
  <course>188.66</course>
  <speed>0.0</speed>
  <fix>3d</fix>
</trkpt>
<trkpt lat="33.810313" lon="-118.393867">
  <ele>1.05</ele>
  <time>2026-09-02T22:13:01Z</time>
  <course>0.0</course>
  <speed>0.0</speed>
  <fix>3d</fix>
</trkpt>
<trkpt lat="33.8103131" lon="-118.3938672">
  <ele>0.997</ele>
  <time>2026-09-02T22:13:01Z</time>
  <course>188.66</course>
  <speed>0.0</speed>
  <fix>3d</fix>
</trkpt>
<trkpt lat="33.810313" lon="-118.393867">
  <ele>1.05</ele>
  <time>2026-09-02T22:13:01Z</time>
  <course>0.0</course>
  <speed>0.0</speed>
  <fix>3d</fix>
</trkpt>
<trkpt lat="33.8103131" lon="-118.3938672">
  <ele>0.997</ele>
  <time>2026-09-02T22:13:01Z</time>
  <course>188.66</course>
  <speed>0.0</speed>
  <fix>3d</fix>
</trkpt>
<trkpt lat="33.810313" lon="-118.393867">
  <ele>1.06</ele>
  <time>2026-09-02T22:13:01Z</time>
  <course>0.0</course>
  <speed>0.0</speed>
  <fix>3d</fix>
</trkpt>
<trkpt lat="33.8103131" lon="-118.3938672">
  <ele>0.997</ele>
  <time>2026-09-02T22:13:01Z</time>
  <course>188.66</course>
  <speed>0.0</speed>
  <fix>3d</fix>
</trkpt>
<trkpt lat="33.810313" lon="-118.393867">
  <ele>1.06</ele>
  <time>2026-09-02T22:13:01Z</time>
  <course>0.0</course>
  <speed>0.0</speed>
  <fix>3d</fix>
</trkpt>
<trkpt lat="33.8103131" lon="-118.3938672">
  <ele>0.998</ele>
  <time>2026-09-02T22:13:01Z</time>
  <course>188.66</course>
  <speed>0.0</speed>
  <fix>3d</fix>
</trkpt>
<trkpt lat="33.810313" lon="-118.393867">
  <ele>1.07</ele>
  <time>2026-09-02T22:13:01Z</time>
  <course>0.0</course>
  <speed>0.0</speed>
  <fix>3d</fix>
</trkpt>
<trkpt lat="33.8103131" lon="-118.3938672">
  <ele>0.999</ele>
  <time>2026-09-02T22:13:01Z</time>
  <course>188.66</course>
  <speed>0.0</speed>
  <fix>3d</fix>
</trkpt>
<trkpt lat="33.810313" lon="-118.393867">
  <ele>1.07</ele>
  <time>2026-09-02T22:13:01Z</time>
  <course>0.0</course>
  <speed>0.0</speed>
  <fix>3d</fix>
</trkpt>
<trkpt lat="33.8103131" lon="-118.3938672">
  <ele>1.0</ele>
  <time>2026-09-02T22:13:01Z</time>
  <course>188.66</course>
  <speed>0.0</speed>
  <fix>3d</fix>
</trkpt>
<trkpt lat="33.810313" lon="-118.393867">
  <ele>1.07</ele>
  <time>2026-09-02T22:13:01Z</time>
  <course>0.0</course>
  <speed>0.0</speed>
  <fix>3d</fix>
</trkpt>
<trkpt lat="33.8103131" lon="-118.3938672">
  <ele>1.001</ele>
  <time>2026-09-02T22:13:01Z</time>
  <course>188.66</course>
  <speed>0.0</speed>
  <fix>3d</fix>
</trkpt>
<trkpt lat="33.810313" lon="-118.393867">
  <ele>1.07</ele>
  <time>2026-09-02T22:13:01Z</time>
  <course>0.0</course>
  <speed>0.0</speed>
  <fix>3d</fix>
</trkpt>
<trkpt lat="33.8103131" lon="-118.3938672">
  <ele>1.004</ele>
  <time>2026-09-02T22:13:01Z</time>
  <course>188.66</course>
  <speed>0.0</speed>
  <fix>3d</fix>
</trkpt>
<trkpt lat="33.810313" lon="-118.393867">
  <ele>1.09</ele>
  <time>2026-09-02T22:13:01Z</time>
  <course>0.0</course>
  <speed>0.0</speed>
  <fix>3d</fix>
</trkpt>
<trkpt lat="33.8103131" lon="-118.3938672">
  <ele>1.006</ele>
  <time>2026-09-02T22:13:01Z</time>
  <course>188.65</course>
  <speed>0.0</speed>
  <fix>3d</fix>
</trkpt>
<trkpt lat="33.810313" lon="-118.393867">
  <ele>1.09</ele>
  <time>2026-09-02T22:13:01Z</time>
  <course>0.0</course>
  <speed>0.0</speed>
  <fix>3d</fix>
</trkpt>
<trkpt lat="33.8103132" lon="-118.3938672">
  <ele>1.007</ele>
  <time>2026-09-02T22:13:01Z</time>
  <course>188.65</course>
  <speed>0.0</speed>
  <fix>3d</fix>
</trkpt>
<trkpt lat="33.810313" lon="-118.393867">
  <ele>1.11</ele>
  <time>2026-09-02T22:13:01Z</time>
  <course>0.0</course>
  <speed>0.0</speed>
  <fix>3d</fix>
</trkpt>
<trkpt lat="33.8103132" lon="-118.3938672">
  <ele>1.005</ele>
  <time>2026-09-02T22:13:01Z</time>
  <course>188.65</course>
  <speed>0.0</speed>
  <fix>3d</fix>
</trkpt>
<trkpt lat="33.810313" lon="-118.393867">
  <ele>1.11</ele>
  <time>2026-09-02T22:13:01Z</time>
  <course>0.0</course>
  <speed>0.0</speed>
  <fix>3d</fix>
</trkpt>
<trkpt lat="33.8103132" lon="-118.3938672">
  <ele>1.003</ele>
  <time>2026-09-02T22:13:01Z</time>
  <course>188.65</course>
  <speed>0.0</speed>
  <fix>3d</fix>
</trkpt>
<trkpt lat="33.810313" lon="-118.393867">
  <ele>1.12</ele>
  <time>2026-09-02T22:13:01Z</time>
  <course>0.0</course>
  <speed>0.0</speed>
  <fix>3d</fix>
</trkpt>
<trkpt lat="33.8103132" lon="-118.3938672">
  <ele>1.0</ele>
  <time>2026-09-02T22:13:01Z</time>
  <course>188.64</course>
  <speed>0.0</speed>
  <fix>3d</fix>
</trkpt>
<trkpt lat="33.810313" lon="-118.393867">
  <ele>1.12</ele>
  <time>2026-09-02T22:13:01Z</time>
  <course>0.0</course>
  <speed>0.0</speed>
  <fix>3d</fix>
</trkpt>
<trkpt lat="33.8103132" lon="-118.3938672">
  <ele>0.998</ele>
  <time>2026-09-02T22:13:01Z</time>
  <course>188.64</course>
  <speed>0.0</speed>
  <fix>3d</fix>
</trkpt>
<trkpt lat="33.810313" lon="-118.393867">
  <ele>1.13</ele>
  <time>2026-09-02T22:13:01Z</time>
  <course>0.0</course>
  <speed>0.0</speed>
  <fix>3d</fix>
</trkpt>
<trkpt lat="33.8103132" lon="-118.3938672">
  <ele>0.996</ele>
  <time>2026-09-02T22:13:01Z</time>
  <course>188.64</course>
  <speed>0.0</speed>
  <fix>3d</fix>
</trkpt>
<trkpt lat="33.810313" lon="-118.393867">
  <ele>1.13</ele>
  <time>2026-09-02T22:13:01Z</time>
  <course>0.0</course>
  <speed>0.0</speed>
  <fix>3d</fix>
</trkpt>
<trkpt lat="33.8103132" lon="-118.3938672">
  <ele>0.994</ele>
  <time>2026-09-02T22:13:01Z</time>
  <course>188.63</course>
  <speed>0.0</speed>
  <fix>3d</fix>
</trkpt>
<trkpt lat="33.810313" lon="-118.393867">
  <ele>1.14</ele>
  <time>2026-09-02T22:13:01Z</time>
  <course>0.0</course>
  <speed>0.0</speed>
  <fix>3d</fix>
</trkpt>
<trkpt lat="33.8103132" lon="-118.3938672">
  <ele>0.993</ele>
  <time>2026-09-02T22:13:01Z</time>
  <course>188.63</course>
  <speed>0.0</speed>
  <fix>3d</fix>
</trkpt>
<trkpt lat="33.810313" lon="-118.393867">
  <ele>1.14</ele>
  <time>2026-09-02T22:13:01Z</time>
  <course>0.0</course>
  <speed>0.0</speed>
  <fix>3d</fix>
</trkpt>
<trkpt lat="33.8103132" lon="-118.3938672">
  <ele>0.993</ele>
  <time>2026-09-02T22:13:01Z</time>
  <course>188.63</course>
  <speed>0.0</speed>
  <fix>3d</fix>
</trkpt>
<trkpt lat="33.810313" lon="-118.393867">
  <ele>1.14</ele>
  <time>2026-09-02T22:13:01Z</time>
  <course>0.0</course>
  <speed>0.0</speed>
  <fix>3d</fix>
</trkpt>
<trkpt lat="33.8103132" lon="-118.3938673">
  <ele>0.993</ele>
  <time>2026-09-02T22:13:01Z</time>
  <course>188.62</course>
  <speed>0.0</speed>
  <fix>3d</fix>
</trkpt>
<trkpt lat="33.810313" lon="-118.393867">
  <ele>1.14</ele>
  <time>2026-09-02T22:13:01Z</time>
  <course>0.0</course>
  <speed>0.0</speed>
  <fix>3d</fix>
</trkpt>
<trkpt lat="33.8103132" lon="-118.3938673">
  <ele>0.993</ele>
  <time>2026-09-02T22:13:01Z</time>
  <course>188.62</course>
  <speed>0.0</speed>
  <fix>3d</fix>
</trkpt>
<trkpt lat="33.810313" lon="-118.393867">
  <ele>1.16</ele>
  <time>2026-09-02T22:13:01Z</time>
  <course>0.0</course>
  <speed>0.0</speed>
  <fix>3d</fix>
</trkpt>
<trkpt lat="33.8103132" lon="-118.3938673">
  <ele>0.996</ele>
  <time>2026-09-02T22:13:01Z</time>
  <course>188.62</course>
  <speed>0.0</speed>
  <fix>3d</fix>
</trkpt>
<trkpt lat="33.810313" lon="-118.393867">
  <ele>1.16</ele>
  <time>2026-09-02T22:13:01Z</time>
  <course>0.0</course>
  <speed>0.0</speed>
  <fix>3d</fix>
</trkpt>
<trkpt lat="33.8103132" lon="-118.3938673">
  <ele>0.999</ele>
  <time>2026-09-02T22:13:01Z</time>
  <course>188.61</course>
  <speed>0.0</speed>
  <fix>3d</fix>
</trkpt>
<trkpt lat="33.810313" lon="-118.393867">
  <ele>1.17</ele>
  <time>2026-09-02T22:13:01Z</time>
  <course>0.0</course>
  <speed>0.0</speed>
  <fix>3d</fix>
</trkpt>
<trkpt lat="33.8103132" lon="-118.3938673">
  <ele>1.001</ele>
  <time>2026-09-02T22:13:01Z</time>
  <course>188.61</course>
  <speed>0.0</speed>
  <fix>3d</fix>
</trkpt>
<trkpt lat="33.810313" lon="-118.393867">
  <ele>1.17</ele>
  <time>2026-09-02T22:13:01Z</time>
  <course>0.0</course>
  <speed>0.0</speed>
  <fix>3d</fix>
</trkpt>
<trkpt lat="33.8103132" lon="-118.3938673">
  <ele>1.002</ele>
  <time>2026-09-02T22:13:01Z</time>
  <course>188.6</course>
  <speed>0.0</speed>
  <fix>3d</fix>
</trkpt>
<trkpt lat="33.810313" lon="-118.393867">
  <ele>1.18</ele>
  <time>2026-09-02T22:13:01Z</time>
  <course>0.0</course>
  <speed>0.0</speed>
  <fix>3d</fix>
</trkpt>
<trkpt lat="33.8103132" lon="-118.3938673">
  <ele>1.002</ele>
  <time>2026-09-02T22:13:01Z</time>
  <course>188.6</course>
  <speed>0.0</speed>
  <fix>3d</fix>
</trkpt>
<trkpt lat="33.810313" lon="-118.393867">
  <ele>1.18</ele>
  <time>2026-09-02T22:13:01Z</time>
  <course>0.0</course>
  <speed>0.0</speed>
  <fix>3d</fix>
</trkpt>
<trkpt lat="33.8103132" lon="-118.3938673">
  <ele>1.0</ele>
  <time>2026-09-02T22:13:01Z</time>
  <course>188.6</course>
  <speed>0.0</speed>
  <fix>3d</fix>
</trkpt>
<trkpt lat="33.810313" lon="-118.393867">
  <ele>1.19</ele>
  <time>2026-09-02T22:13:01Z</time>
  <course>0.0</course>
  <speed>0.0</speed>
  <fix>3d</fix>
</trkpt>
<trkpt lat="33.8103132" lon="-118.3938673">
  <ele>0.998</ele>
  <time>2026-09-02T22:13:01Z</time>
  <course>188.59</course>
  <speed>0.0</speed>
  <fix>3d</fix>
</trkpt>
<trkpt lat="33.810313" lon="-118.393867">
  <ele>1.19</ele>
  <time>2026-09-02T22:13:01Z</time>
  <course>0.0</course>
  <speed>0.0</speed>
  <fix>3d</fix>
</trkpt>
<trkpt lat="33.8103132" lon="-118.3938673">
  <ele>0.996</ele>
  <time>2026-09-02T22:13:01Z</time>
  <course>188.59</course>
  <speed>0.0</speed>
  <fix>3d</fix>
</trkpt>
<trkpt lat="33.810313" lon="-118.393867">
  <ele>1.2</ele>
  <time>2026-09-02T22:13:01Z</time>
  <course>0.0</course>
  <speed>0.0</speed>
  <fix>3d</fix>
</trkpt>
<trkpt lat="33.8103132" lon="-118.3938673">
  <ele>0.994</ele>
  <time>2026-09-02T22:13:01Z</time>
  <course>188.58</course>
  <speed>0.0</speed>
  <fix>3d</fix>
</trkpt>
<trkpt lat="33.810313" lon="-118.393867">
  <ele>1.2</ele>
  <time>2026-09-02T22:13:01Z</time>
  <course>0.0</course>
  <speed>0.0</speed>
  <fix>3d</fix>
</trkpt>
<trkpt lat="33.8103133" lon="-118.3938673">
  <ele>0.994</ele>
  <time>2026-09-02T22:13:01Z</time>
  <course>188.58</course>
  <speed>0.0</speed>
  <fix>3d</fix>
</trkpt>
<trkpt lat="33.810313" lon="-118.393867">
  <ele>1.21</ele>
  <time>2026-09-02T22:13:01Z</time>
  <course>0.0</course>
  <speed>0.0</speed>
  <fix>3d</fix>
</trkpt>
<trkpt lat="33.8103133" lon="-118.3938673">
  <ele>0.994</ele>
  <time>2026-09-02T22:13:01Z</time>
  <course>188.57</course>
  <speed>0.0</speed>
  <fix>3d</fix>
</trkpt>
<trkpt lat="33.810313" lon="-118.393867">
  <ele>1.21</ele>
  <time>2026-09-02T22:13:01Z</time>
  <course>0.0</course>
  <speed>0.0</speed>
  <fix>3d</fix>
</trkpt>
<trkpt lat="33.8103133" lon="-118.3938673">
  <ele>0.995</ele>
  <time>2026-09-02T22:13:01Z</time>
  <course>188.57</course>
  <speed>0.0</speed>
  <fix>3d</fix>
</trkpt>
<trkpt lat="33.810313" lon="-118.393867">
  <ele>1.22</ele>
  <time>2026-09-02T22:13:01Z</time>
  <course>0.0</course>
  <speed>0.0</speed>
  <fix>3d</fix>
</trkpt>
<trkpt lat="33.8103133" lon="-118.3938673">
  <ele>0.996</ele>
  <time>2026-09-02T22:13:01Z</time>
  <course>188.56</course>
  <speed>0.0</speed>
  <fix>3d</fix>
</trkpt>
<trkpt lat="33.810313" lon="-118.393867">
  <ele>1.22</ele>
  <time>2026-09-02T22:13:01Z</time>
  <course>0.0</course>
  <speed>0.0</speed>
  <fix>3d</fix>
</trkpt>
<trkpt lat="33.8103133" lon="-118.3938673">
  <ele>0.999</ele>
  <time>2026-09-02T22:13:01Z</time>
  <course>188.55</course>
  <speed>0.0</speed>
  <fix>3d</fix>
</trkpt>
<trkpt lat="33.810313" lon="-118.393867">
  <ele>1.24</ele>
  <time>2026-09-02T22:13:01Z</time>
  <course>0.0</course>
  <speed>0.0</speed>
  <fix>3d</fix>
</trkpt>
<trkpt lat="33.8103133" lon="-118.3938673">
  <ele>1.0</ele>
  <time>2026-09-02T22:13:01Z</time>
  <course>188.55</course>
  <speed>0.0</speed>
  <fix>3d</fix>
</trkpt>
<trkpt lat="33.810313" lon="-118.393867">
  <ele>1.24</ele>
  <time>2026-09-02T22:13:01Z</time>
  <course>0.0</course>
  <speed>0.0</speed>
  <fix>3d</fix>
</trkpt>
<trkpt lat="33.8103133" lon="-118.3938673">
  <ele>1.002</ele>
  <time>2026-09-02T22:13:01Z</time>
  <course>188.54</course>
  <speed>0.0</speed>
  <fix>3d</fix>
</trkpt>
<trkpt lat="33.810313" lon="-118.393867">
  <ele>1.25</ele>
  <time>2026-09-02T22:13:01Z</time>
  <course>0.0</course>
  <speed>0.0</speed>
  <fix>3d</fix>
</trkpt>
<trkpt lat="33.8103133" lon="-118.3938674">
  <ele>1.003</ele>
  <time>2026-09-02T22:13:01Z</time>
  <course>188.54</course>
  <speed>0.0</speed>
  <fix>3d</fix>
</trkpt>
<trkpt lat="33.810313" lon="-118.393867">
  <ele>1.25</ele>
  <time>2026-09-02T22:13:01Z</time>
  <course>0.0</course>
  <speed>0.0</speed>
  <fix>3d</fix>
</trkpt>
<trkpt lat="33.8103133" lon="-118.3938674">
  <ele>1.002</ele>
  <time>2026-09-02T22:13:01Z</time>
  <course>188.53</course>
  <speed>0.0</speed>
  <fix>3d</fix>
</trkpt>
<trkpt lat="33.810313" lon="-118.393867">
  <ele>1.26</ele>
  <time>2026-09-02T22:13:01Z</time>
  <course>0.0</course>
  <speed>0.0</speed>
  <fix>3d</fix>
</trkpt>
<trkpt lat="33.8103133" lon="-118.3938674">
  <ele>1.0</ele>
  <time>2026-09-02T22:13:01Z</time>
  <course>188.52</course>
  <speed>0.0</speed>
  <fix>3d</fix>
</trkpt>
<trkpt lat="33.810313" lon="-118.393867">
  <ele>1.26</ele>
  <time>2026-09-02T22:13:01Z</time>
  <course>0.0</course>
  <speed>0.0</speed>
  <fix>3d</fix>
</trkpt>
<trkpt lat="33.8103133" lon="-118.3938674">
  <ele>0.997</ele>
  <time>2026-09-02T22:13:01Z</time>
  <course>188.52</course>
  <speed>0.0</speed>
  <fix>3d</fix>
</trkpt>
<trkpt lat="33.810313" lon="-118.393867">
  <ele>1.27</ele>
  <time>2026-09-02T22:13:01Z</time>
  <course>0.0</course>
  <speed>0.0</speed>
  <fix>3d</fix>
</trkpt>
<trkpt lat="33.8103133" lon="-118.3938674">
  <ele>0.996</ele>
  <time>2026-09-02T22:13:01Z</time>
  <course>188.51</course>
  <speed>0.0</speed>
  <fix>3d</fix>
</trkpt>
<trkpt lat="33.810313" lon="-118.393867">
  <ele>1.27</ele>
  <time>2026-09-02T22:13:01Z</time>
  <course>0.0</course>
  <speed>0.0</speed>
  <fix>3d</fix>
</trkpt>
<trkpt lat="33.8103133" lon="-118.3938674">
  <ele>0.995</ele>
  <time>2026-09-02T22:13:01Z</time>
  <course>188.5</course>
  <speed>0.0</speed>
  <fix>3d</fix>
</trkpt>
<trkpt lat="33.810313" lon="-118.393867">
  <ele>1.28</ele>
  <time>2026-09-02T22:13:01Z</time>
  <course>0.0</course>
  <speed>0.0</speed>
  <fix>3d</fix>
</trkpt>
<trkpt lat="33.8103133" lon="-118.3938674">
  <ele>0.994</ele>
  <time>2026-09-02T22:13:01Z</time>
  <course>188.5</course>
  <speed>0.0</speed>
  <fix>3d</fix>
</trkpt>
<trkpt lat="33.810313" lon="-118.393867">
  <ele>1.28</ele>
  <time>2026-09-02T22:13:01Z</time>
  <course>0.0</course>
  <speed>0.0</speed>
  <fix>3d</fix>
</trkpt>
<trkpt lat="33.8103133" lon="-118.3938674">
  <ele>0.995</ele>
  <time>2026-09-02T22:13:01Z</time>
  <course>188.49</course>
  <speed>0.0</speed>
  <fix>3d</fix>
</trkpt>
<trkpt lat="33.810313" lon="-118.393867">
  <ele>1.29</ele>
  <time>2026-09-02T22:13:01Z</time>
  <course>0.0</course>
  <speed>0.0</speed>
  <fix>3d</fix>
</trkpt>
<trkpt lat="33.8103133" lon="-118.3938674">
  <ele>0.996</ele>
  <time>2026-09-02T22:13:01Z</time>
  <course>188.48</course>
  <speed>0.0</speed>
  <fix>3d</fix>
</trkpt>
<trkpt lat="33.810313" lon="-118.393867">
  <ele>1.29</ele>
  <time>2026-09-02T22:13:01Z</time>
  <course>0.0</course>
  <speed>0.0</speed>
  <fix>3d</fix>
</trkpt>
<trkpt lat="33.8103134" lon="-118.3938674">
  <ele>0.997</ele>
  <time>2026-09-02T22:13:01Z</time>
  <course>188.47</course>
  <speed>0.0</speed>
  <fix>3d</fix>
</trkpt>
<trkpt lat="33.810313" lon="-118.393867">
  <ele>1.3</ele>
  <time>2026-09-02T22:13:01Z</time>
  <course>0.0</course>
  <speed>0.0</speed>
  <fix>3d</fix>
</trkpt>
<trkpt lat="33.8103134" lon="-118.3938674">
  <ele>0.999</ele>
  <time>2026-09-02T22:13:01Z</time>
  <course>188.46</course>
  <speed>0.0</speed>
  <fix>3d</fix>
</trkpt>
<trkpt lat="33.810313" lon="-118.393867">
  <ele>1.3</ele>
  <time>2026-09-02T22:13:01Z</time>
  <course>0.0</course>
  <speed>0.0</speed>
  <fix>3d</fix>
</trkpt>
<trkpt lat="33.8103134" lon="-118.3938674">
  <ele>1.001</ele>
  <time>2026-09-02T22:13:01Z</time>
  <course>188.46</course>
  <speed>0.0</speed>
  <fix>3d</fix>
</trkpt>
<trkpt lat="33.810313" lon="-118.393867">
  <ele>1.31</ele>
  <time>2026-09-02T22:13:01Z</time>
  <course>0.0</course>
  <speed>0.0</speed>
  <fix>3d</fix>
</trkpt>
<trkpt lat="33.8103134" lon="-118.3938674">
  <ele>1.002</ele>
  <time>2026-09-02T22:13:01Z</time>
  <course>188.45</course>
  <speed>0.0</speed>
  <fix>3d</fix>
</trkpt>
<trkpt lat="33.810313" lon="-118.393867">
  <ele>1.31</ele>
  <time>2026-09-02T22:13:01Z</time>
  <course>0.0</course>
  <speed>0.0</speed>
  <fix>3d</fix>
</trkpt>
<trkpt lat="33.8103134" lon="-118.3938674">
  <ele>1.001</ele>
  <time>2026-09-02T22:13:01Z</time>
  <course>188.44</course>
  <speed>0.0</speed>
  <fix>3d</fix>
</trkpt>
<trkpt lat="33.810313" lon="-118.393867">
  <ele>1.32</ele>
  <time>2026-09-02T22:13:01Z</time>
  <course>0.0</course>
  <speed>0.0</speed>
  <fix>3d</fix>
</trkpt>
<trkpt lat="33.8103134" lon="-118.3938674">
  <ele>0.999</ele>
  <time>2026-09-02T22:13:01Z</time>
  <course>188.44</course>
  <speed>0.0</speed>
  <fix>3d</fix>
</trkpt>
<trkpt lat="33.810313" lon="-118.393867">
  <ele>1.32</ele>
  <time>2026-09-02T22:13:01Z</time>
  <course>0.0</course>
  <speed>0.0</speed>
  <fix>3d</fix>
</trkpt>
<trkpt lat="33.8103134" lon="-118.3938675">
  <ele>0.996</ele>
  <time>2026-09-02T22:13:01Z</time>
  <course>188.43</course>
  <speed>0.0</speed>
  <fix>3d</fix>
</trkpt>
<trkpt lat="33.810313" lon="-118.393867">
  <ele>1.33</ele>
  <time>2026-09-02T22:13:01Z</time>
  <course>0.0</course>
  <speed>0.0</speed>
  <fix>3d</fix>
</trkpt>
<trkpt lat="33.8103134" lon="-118.3938675">
  <ele>0.993</ele>
  <time>2026-09-02T22:13:01Z</time>
  <course>188.42</course>
  <speed>0.0</speed>
  <fix>3d</fix>
</trkpt>
<trkpt lat="33.810313" lon="-118.393867">
  <ele>1.33</ele>
  <time>2026-09-02T22:13:01Z</time>
  <course>0.0</course>
  <speed>0.0</speed>
  <fix>3d</fix>
</trkpt>
<trkpt lat="33.8103134" lon="-118.3938675">
  <ele>0.991</ele>
  <time>2026-09-02T22:13:01Z</time>
  <course>188.41</course>
  <speed>0.0</speed>
  <fix>3d</fix>
</trkpt>
<trkpt lat="33.810313" lon="-118.393867">
  <ele>1.34</ele>
  <time>2026-09-02T22:13:01Z</time>
  <course>0.0</course>
  <speed>0.0</speed>
  <fix>3d</fix>
</trkpt>
<trkpt lat="33.8103134" lon="-118.3938675">
  <ele>0.991</ele>
  <time>2026-09-02T22:13:01Z</time>
  <course>188.41</course>
  <speed>0.0</speed>
  <fix>3d</fix>
</trkpt>
<trkpt lat="33.810313" lon="-118.393867">
  <ele>1.34</ele>
  <time>2026-09-02T22:13:01Z</time>
  <course>0.0</course>
  <speed>0.0</speed>
  <fix>3d</fix>
</trkpt>
<trkpt lat="33.8103134" lon="-118.3938675">
  <ele>0.992</ele>
  <time>2026-09-02T22:13:01Z</time>
  <course>188.4</course>
  <speed>0.01</speed>
  <fix>3d</fix>
</trkpt>
<trkpt lat="33.810313" lon="-118.393867">
  <ele>1.35</ele>
  <time>2026-09-02T22:13:01Z</time>
  <course>0.0</course>
  <speed>0.0</speed>
  <fix>3d</fix>
</trkpt>
<trkpt lat="33.8103134" lon="-118.3938675">
  <ele>0.993</ele>
  <time>2026-09-02T22:13:01Z</time>
  <course>188.39</course>
  <speed>0.01</speed>
  <fix>3d</fix>
</trkpt>
<trkpt lat="33.810313" lon="-118.393867">
  <ele>1.35</ele>
  <time>2026-09-02T22:13:01Z</time>
  <course>0.0</course>
  <speed>0.0</speed>
  <fix>3d</fix>
</trkpt>
<trkpt lat="33.8103135" lon="-118.3938675">
  <ele>0.997</ele>
  <time>2026-09-02T22:13:01Z</time>
  <course>188.38</course>
  <speed>0.01</speed>
  <fix>3d</fix>
</trkpt>
<trkpt lat="33.810313" lon="-118.393867">
  <ele>1.36</ele>
  <time>2026-09-02T22:13:01Z</time>
  <course>0.0</course>
  <speed>0.0</speed>
  <fix>3d</fix>
</trkpt>
<trkpt lat="33.8103135" lon="-118.3938675">
  <ele>1.0</ele>
  <time>2026-09-02T22:13:01Z</time>
  <course>188.38</course>
  <speed>0.01</speed>
  <fix>3d</fix>
</trkpt>
<trkpt lat="33.810313" lon="-118.393867">
  <ele>1.36</ele>
  <time>2026-09-02T22:13:01Z</time>
  <course>0.0</course>
  <speed>0.0</speed>
  <fix>3d</fix>
</trkpt>
<trkpt lat="33.8103135" lon="-118.3938675">
  <ele>1.004</ele>
  <time>2026-09-02T22:13:01Z</time>
  <course>188.37</course>
  <speed>0.01</speed>
  <fix>3d</fix>
</trkpt>
<trkpt lat="33.810313" lon="-118.393867">
  <ele>1.37</ele>
  <time>2026-09-02T22:13:01Z</time>
  <course>0.0</course>
  <speed>0.0</speed>
  <fix>3d</fix>
</trkpt>
<trkpt lat="33.8103135" lon="-118.3938675">
  <ele>1.007</ele>
  <time>2026-09-02T22:13:01Z</time>
  <course>188.36</course>
  <speed>0.01</speed>
  <fix>3d</fix>
</trkpt>
<trkpt lat="33.810313" lon="-118.393867">
  <ele>1.37</ele>
  <time>2026-09-02T22:13:01Z</time>
  <course>0.0</course>
  <speed>0.0</speed>
  <fix>3d</fix>
</trkpt>
<trkpt lat="33.8103135" lon="-118.3938675">
  <ele>1.008</ele>
  <time>2026-09-02T22:13:01Z</time>
  <course>188.36</course>
  <speed>0.01</speed>
  <fix>3d</fix>
</trkpt>
<trkpt lat="33.810313" lon="-118.393867">
  <ele>1.38</ele>
  <time>2026-09-02T22:13:01Z</time>
  <course>0.0</course>
  <speed>0.0</speed>
  <fix>3d</fix>
</trkpt>
<trkpt lat="33.8103135" lon="-118.3938675">
  <ele>1.007</ele>
  <time>2026-09-02T22:13:01Z</time>
  <course>188.35</course>
  <speed>0.01</speed>
  <fix>3d</fix>
</trkpt>
<trkpt lat="33.810313" lon="-118.393867">
  <ele>1.38</ele>
  <time>2026-09-02T22:13:01Z</time>
  <course>0.0</course>
  <speed>0.0</speed>
  <fix>3d</fix>
</trkpt>
<trkpt lat="33.8103135" lon="-118.3938675">
  <ele>1.005</ele>
  <time>2026-09-02T22:13:01Z</time>
  <course>188.34</course>
  <speed>0.01</speed>
  <fix>3d</fix>
</trkpt>
<trkpt lat="33.810313" lon="-118.393867">
  <ele>1.39</ele>
  <time>2026-09-02T22:13:01Z</time>
  <course>0.0</course>
  <speed>0.0</speed>
  <fix>3d</fix>
</trkpt>
<trkpt lat="33.8103135" lon="-118.3938676">
  <ele>1.004</ele>
  <time>2026-09-02T22:13:01Z</time>
  <course>188.33</course>
  <speed>0.01</speed>
  <fix>3d</fix>
</trkpt>
<trkpt lat="33.810313" lon="-118.393867">
  <ele>1.39</ele>
  <time>2026-09-02T22:13:01Z</time>
  <course>0.0</course>
  <speed>0.0</speed>
  <fix>3d</fix>
</trkpt>
<trkpt lat="33.8103135" lon="-118.3938676">
  <ele>1.003</ele>
  <time>2026-09-02T22:13:01Z</time>
  <course>188.32</course>
  <speed>0.01</speed>
  <fix>3d</fix>
</trkpt>
<trkpt lat="33.810313" lon="-118.393867">
  <ele>1.4</ele>
  <time>2026-09-02T22:13:01Z</time>
  <course>0.0</course>
  <speed>0.0</speed>
  <fix>3d</fix>
</trkpt>
<trkpt lat="33.8103135" lon="-118.3938676">
  <ele>1.003</ele>
  <time>2026-09-02T22:13:01Z</time>
  <course>188.32</course>
  <speed>0.01</speed>
  <fix>3d</fix>
</trkpt>
<trkpt lat="33.810313" lon="-118.393867">
  <ele>1.4</ele>
  <time>2026-09-02T22:13:01Z</time>
  <course>0.0</course>
  <speed>0.0</speed>
  <fix>3d</fix>
</trkpt>
<trkpt lat="33.8103135" lon="-118.3938676">
  <ele>1.003</ele>
  <time>2026-09-02T22:13:01Z</time>
  <course>188.31</course>
  <speed>0.01</speed>
  <fix>3d</fix>
</trkpt>
<trkpt lat="33.810313" lon="-118.393867">
  <ele>1.41</ele>
  <time>2026-09-02T22:13:01Z</time>
  <course>0.0</course>
  <speed>0.0</speed>
  <fix>3d</fix>
</trkpt>
<trkpt lat="33.8103135" lon="-118.3938676">
  <ele>1.003</ele>
  <time>2026-09-02T22:13:01Z</time>
  <course>188.3</course>
  <speed>0.01</speed>
  <fix>3d</fix>
</trkpt>
<trkpt lat="33.810313" lon="-118.393867">
  <ele>1.41</ele>
  <time>2026-09-02T22:13:01Z</time>
  <course>0.0</course>
  <speed>0.0</speed>
  <fix>3d</fix>
</trkpt>
<trkpt lat="33.8103136" lon="-118.3938676">
  <ele>1.004</ele>
  <time>2026-09-02T22:13:01Z</time>
  <course>188.29</course>
  <speed>0.01</speed>
  <fix>3d</fix>
</trkpt>
<trkpt lat="33.810313" lon="-118.393867">
  <ele>1.42</ele>
  <time>2026-09-02T22:13:01Z</time>
  <course>0.0</course>
  <speed>0.0</speed>
  <fix>3d</fix>
</trkpt>
<trkpt lat="33.8103136" lon="-118.3938676">
  <ele>1.005</ele>
  <time>2026-09-02T22:13:01Z</time>
  <course>188.29</course>
  <speed>0.01</speed>
  <fix>3d</fix>
</trkpt>
<trkpt lat="33.810313" lon="-118.393867">
  <ele>1.42</ele>
  <time>2026-09-02T22:13:01Z</time>
  <course>0.0</course>
  <speed>0.0</speed>
  <fix>3d</fix>
</trkpt>
<trkpt lat="33.8103136" lon="-118.3938676">
  <ele>1.007</ele>
  <time>2026-09-02T22:13:01Z</time>
  <course>188.28</course>
  <speed>0.01</speed>
  <fix>3d</fix>
</trkpt>
<trkpt lat="33.810313" lon="-118.393867">
  <ele>1.43</ele>
  <time>2026-09-02T22:13:01Z</time>
  <course>0.0</course>
  <speed>0.0</speed>
  <fix>3d</fix>
</trkpt>
<trkpt lat="33.8103136" lon="-118.3938676">
  <ele>1.009</ele>
  <time>2026-09-02T22:13:01Z</time>
  <course>188.27</course>
  <speed>0.01</speed>
  <fix>3d</fix>
</trkpt>
<trkpt lat="33.810313" lon="-118.393867">
  <ele>1.43</ele>
  <time>2026-09-02T22:13:01Z</time>
  <course>0.0</course>
  <speed>0.0</speed>
  <fix>3d</fix>
</trkpt>
<trkpt lat="33.8103136" lon="-118.3938676">
  <ele>1.01</ele>
  <time>2026-09-02T22:13:01Z</time>
  <course>188.27</course>
  <speed>0.01</speed>
  <fix>3d</fix>
</trkpt>
<trkpt lat="33.810313" lon="-118.393867">
  <ele>1.44</ele>
  <time>2026-09-02T22:13:01Z</time>
  <course>0.0</course>
  <speed>0.0</speed>
  <fix>3d</fix>
</trkpt>
<trkpt lat="33.8103136" lon="-118.3938676">
  <ele>1.009</ele>
  <time>2026-09-02T22:13:01Z</time>
  <course>188.26</course>
  <speed>0.01</speed>
  <fix>3d</fix>
</trkpt>
<trkpt lat="33.810313" lon="-118.393867">
  <ele>1.44</ele>
  <time>2026-09-02T22:13:01Z</time>
  <course>0.0</course>
  <speed>0.0</speed>
  <fix>3d</fix>
</trkpt>
<trkpt lat="33.8103136" lon="-118.3938677">
  <ele>1.007</ele>
  <time>2026-09-02T22:13:01Z</time>
  <course>188.25</course>
  <speed>0.01</speed>
  <fix>3d</fix>
</trkpt>
<trkpt lat="33.810313" lon="-118.393867">
  <ele>1.46</ele>
  <time>2026-09-02T22:13:01Z</time>
  <course>0.0</course>
  <speed>0.0</speed>
  <fix>3d</fix>
</trkpt>
<trkpt lat="33.8103136" lon="-118.3938677">
  <ele>1.005</ele>
  <time>2026-09-02T22:13:01Z</time>
  <course>188.24</course>
  <speed>0.01</speed>
  <fix>3d</fix>
</trkpt>
<trkpt lat="33.810313" lon="-118.393867">
  <ele>1.46</ele>
  <time>2026-09-02T22:13:01Z</time>
  <course>0.0</course>
  <speed>0.0</speed>
  <fix>3d</fix>
</trkpt>
<trkpt lat="33.8103136" lon="-118.3938677">
  <ele>1.002</ele>
  <time>2026-09-02T22:13:01Z</time>
  <course>188.23</course>
  <speed>0.01</speed>
  <fix>3d</fix>
</trkpt>
<trkpt lat="33.810313" lon="-118.393867">
  <ele>1.47</ele>
  <time>2026-09-02T22:13:01Z</time>
  <course>0.0</course>
  <speed>0.0</speed>
  <fix>3d</fix>
</trkpt>
<trkpt lat="33.8103136" lon="-118.3938677">
  <ele>1.001</ele>
  <time>2026-09-02T22:13:01Z</time>
  <course>188.23</course>
  <speed>0.01</speed>
  <fix>3d</fix>
</trkpt>
<trkpt lat="33.810313" lon="-118.393867">
  <ele>1.47</ele>
  <time>2026-09-02T22:13:01Z</time>
  <course>0.0</course>
  <speed>0.0</speed>
  <fix>3d</fix>
</trkpt>
<trkpt lat="33.8103137" lon="-118.3938677">
  <ele>1.0</ele>
  <time>2026-09-02T22:13:01Z</time>
  <course>188.22</course>
  <speed>0.01</speed>
  <fix>3d</fix>
</trkpt>
<trkpt lat="33.810313" lon="-118.393867">
  <ele>1.48</ele>
  <time>2026-09-02T22:13:01Z</time>
  <course>0.0</course>
  <speed>0.0</speed>
  <fix>3d</fix>
</trkpt>
<trkpt lat="33.8103137" lon="-118.3938677">
  <ele>1.001</ele>
  <time>2026-09-02T22:13:01Z</time>
  <course>188.21</course>
  <speed>0.01414213562373095</speed>
  <fix>3d</fix>
</trkpt>
<trkpt lat="33.810313" lon="-118.393867">
  <ele>1.48</ele>
  <time>2026-09-02T22:13:01Z</time>
  <course>0.0</course>
  <speed>0.0</speed>
  <fix>3d</fix>
</trkpt>
<trkpt lat="33.8103137" lon="-118.3938677">
  <ele>1.003</ele>
  <time>2026-09-02T22:13:01Z</time>
  <course>188.2</course>
  <speed>0.01414213562373095</speed>
  <fix>3d</fix>
</trkpt>
<trkpt lat="33.810313" lon="-118.393867">
  <ele>1.49</ele>
  <time>2026-09-02T22:13:01Z</time>
  <course>0.0</course>
  <speed>0.0</speed>
  <fix>3d</fix>
</trkpt>
<trkpt lat="33.8103137" lon="-118.3938677">
  <ele>1.006</ele>
  <time>2026-09-02T22:13:01Z</time>
  <course>188.2</course>
  <speed>0.01414213562373095</speed>
  <fix>3d</fix>
</trkpt>
<trkpt lat="33.810313" lon="-118.393867">
  <ele>1.49</ele>
  <time>2026-09-02T22:13:01Z</time>
  <course>0.0</course>
  <speed>0.0</speed>
  <fix>3d</fix>
</trkpt>
<trkpt lat="33.8103137" lon="-118.3938677">
  <ele>1.009</ele>
  <time>2026-09-02T22:13:01Z</time>
  <course>188.19</course>
  <speed>0.01414213562373095</speed>
  <fix>3d</fix>
</trkpt>
<trkpt lat="33.810313" lon="-118.393867">
  <ele>1.5</ele>
  <time>2026-09-02T22:13:01Z</time>
  <course>0.0</course>
  <speed>0.0</speed>
  <fix>3d</fix>
</trkpt>
<trkpt lat="33.8103137" lon="-118.3938677">
  <ele>1.01</ele>
  <time>2026-09-02T22:13:01Z</time>
  <course>188.18</course>
  <speed>0.01414213562373095</speed>
  <fix>3d</fix>
</trkpt>
<trkpt lat="33.810313" lon="-118.393867">
  <ele>1.5</ele>
  <time>2026-09-02T22:13:01Z</time>
  <course>0.0</course>
  <speed>0.0</speed>
  <fix>3d</fix>
</trkpt>
<trkpt lat="33.8103137" lon="-118.3938678">
  <ele>1.009</ele>
  <time>2026-09-02T22:13:01Z</time>
  <course>188.18</course>
  <speed>0.01414213562373095</speed>
  <fix>3d</fix>
</trkpt>
<trkpt lat="33.810313" lon="-118.393867">
  <ele>1.51</ele>
  <time>2026-09-02T22:13:01Z</time>
  <course>0.0</course>
  <speed>0.0</speed>
  <fix>3d</fix>
</trkpt>
<trkpt lat="33.8103137" lon="-118.3938678">
  <ele>1.008</ele>
  <time>2026-09-02T22:13:01Z</time>
  <course>188.17</course>
  <speed>0.01414213562373095</speed>
  <fix>3d</fix>
</trkpt>
<trkpt lat="33.810313" lon="-118.393867">
  <ele>1.51</ele>
  <time>2026-09-02T22:13:01Z</time>
  <course>0.0</course>
  <speed>0.0</speed>
  <fix>3d</fix>
</trkpt>
<trkpt lat="33.8103137" lon="-118.3938678">
  <ele>1.006</ele>
  <time>2026-09-02T22:13:01Z</time>
  <course>188.16</course>
  <speed>0.01414213562373095</speed>
  <fix>3d</fix>
</trkpt>
<trkpt lat="33.810313" lon="-118.393867">
  <ele>1.52</ele>
  <time>2026-09-02T22:13:01Z</time>
  <course>0.0</course>
  <speed>0.0</speed>
  <fix>3d</fix>
</trkpt>
<trkpt lat="33.8103138" lon="-118.3938678">
  <ele>1.004</ele>
  <time>2026-09-02T22:13:01Z</time>
  <course>188.16</course>
  <speed>0.01414213562373095</speed>
  <fix>3d</fix>
</trkpt>
<trkpt lat="33.810313" lon="-118.393867">
  <ele>1.52</ele>
  <time>2026-09-02T22:13:01Z</time>
  <course>0.0</course>
  <speed>0.0</speed>
  <fix>3d</fix>
</trkpt>
<trkpt lat="33.8103138" lon="-118.3938678">
  <ele>1.003</ele>
  <time>2026-09-02T22:13:01Z</time>
  <course>188.15</course>
  <speed>0.01414213562373095</speed>
  <fix>3d</fix>
</trkpt>
<trkpt lat="33.810313" lon="-118.393867">
  <ele>1.53</ele>
  <time>2026-09-02T22:13:01Z</time>
  <course>0.0</course>
  <speed>0.0</speed>
  <fix>3d</fix>
</trkpt>
<trkpt lat="33.8103138" lon="-118.3938678">
  <ele>1.004</ele>
  <time>2026-09-02T22:13:01Z</time>
  <course>188.14</course>
  <speed>0.01414213562373095</speed>
  <fix>3d</fix>
</trkpt>
<trkpt lat="33.810313" lon="-118.393867">
  <ele>1.53</ele>
  <time>2026-09-02T22:13:01Z</time>
  <course>0.0</course>
  <speed>0.0</speed>
  <fix>3d</fix>
</trkpt>
<trkpt lat="33.8103138" lon="-118.3938678">
  <ele>1.005</ele>
  <time>2026-09-02T22:13:01Z</time>
  <course>188.13</course>
  <speed>0.01414213562373095</speed>
  <fix>3d</fix>
</trkpt>
<trkpt lat="33.810313" lon="-118.393867">
  <ele>1.54</ele>
  <time>2026-09-02T22:13:01Z</time>
  <course>0.0</course>
  <speed>0.0</speed>
  <fix>3d</fix>
</trkpt>
<trkpt lat="33.8103138" lon="-118.3938678">
  <ele>1.006</ele>
  <time>2026-09-02T22:13:01Z</time>
  <course>188.13</course>
  <speed>0.01414213562373095</speed>
  <fix>3d</fix>
</trkpt>
<trkpt lat="33.810313" lon="-118.393867">
  <ele>1.54</ele>
  <time>2026-09-02T22:13:01Z</time>
  <course>0.0</course>
  <speed>0.0</speed>
  <fix>3d</fix>
</trkpt>
<trkpt lat="33.8103138" lon="-118.3938678">
  <ele>1.007</ele>
  <time>2026-09-02T22:13:01Z</time>
  <course>188.12</course>
  <speed>0.01414213562373095</speed>
  <fix>3d</fix>
</trkpt>
<trkpt lat="33.810313" lon="-118.393867">
  <ele>1.55</ele>
  <time>2026-09-02T22:13:01Z</time>
  <course>0.0</course>
  <speed>0.0</speed>
  <fix>3d</fix>
</trkpt>
<trkpt lat="33.8103138" lon="-118.3938679">
  <ele>1.008</ele>
  <time>2026-09-02T22:13:01Z</time>
  <course>188.11</course>
  <speed>0.01414213562373095</speed>
  <fix>3d</fix>
</trkpt>
<trkpt lat="33.810313" lon="-118.393867">
  <ele>1.55</ele>
  <time>2026-09-02T22:13:01Z</time>
  <course>0.0</course>
  <speed>0.0</speed>
  <fix>3d</fix>
</trkpt>
<trkpt lat="33.8103138" lon="-118.3938679">
  <ele>1.008</ele>
  <time>2026-09-02T22:13:01Z</time>
  <course>188.1</course>
  <speed>0.01414213562373095</speed>
  <fix>3d</fix>
</trkpt>
<trkpt lat="33.810313" lon="-118.393867">
  <ele>1.56</ele>
  <time>2026-09-02T22:13:01Z</time>
  <course>0.0</course>
  <speed>0.0</speed>
  <fix>3d</fix>
</trkpt>
<trkpt lat="33.8103139" lon="-118.3938679">
  <ele>1.006</ele>
  <time>2026-09-02T22:13:01Z</time>
  <course>188.1</course>
  <speed>0.01414213562373095</speed>
  <fix>3d</fix>
</trkpt>
<trkpt lat="33.810313" lon="-118.393867">
  <ele>1.56</ele>
  <time>2026-09-02T22:13:01Z</time>
  <course>0.0</course>
  <speed>0.0</speed>
  <fix>3d</fix>
</trkpt>
<trkpt lat="33.8103139" lon="-118.3938679">
  <ele>1.003</ele>
  <time>2026-09-02T22:13:01Z</time>
  <course>188.09</course>
  <speed>0.01414213562373095</speed>
  <fix>3d</fix>
</trkpt>
<trkpt lat="33.810313" lon="-118.393867">
  <ele>1.57</ele>
  <time>2026-09-02T22:13:01Z</time>
  <course>0.0</course>
  <speed>0.0</speed>
  <fix>3d</fix>
</trkpt>
<trkpt lat="33.8103139" lon="-118.3938679">
  <ele>0.999</ele>
  <time>2026-09-02T22:13:01Z</time>
  <course>188.08</course>
  <speed>0.01414213562373095</speed>
  <fix>3d</fix>
</trkpt>
<trkpt lat="33.810313" lon="-118.393867">
  <ele>1.57</ele>
  <time>2026-09-02T22:13:01Z</time>
  <course>0.0</course>
  <speed>0.0</speed>
  <fix>3d</fix>
</trkpt>
<trkpt lat="33.8103139" lon="-118.3938679">
  <ele>0.995</ele>
  <time>2026-09-02T22:13:01Z</time>
  <course>188.07</course>
  <speed>0.01414213562373095</speed>
  <fix>3d</fix>
</trkpt>
<trkpt lat="33.810313" lon="-118.393867">
  <ele>1.58</ele>
  <time>2026-09-02T22:13:01Z</time>
  <course>0.0</course>
  <speed>0.0</speed>
  <fix>3d</fix>
</trkpt>
<trkpt lat="33.8103139" lon="-118.3938679">
  <ele>0.992</ele>
  <time>2026-09-02T22:13:01Z</time>
  <course>188.07</course>
  <speed>0.01414213562373095</speed>
  <fix>3d</fix>
</trkpt>
<trkpt lat="33.810313" lon="-118.393867">
  <ele>1.58</ele>
  <time>2026-09-02T22:13:01Z</time>
  <course>0.0</course>
  <speed>0.0</speed>
  <fix>3d</fix>
</trkpt>
<trkpt lat="33.8103139" lon="-118.3938679">
  <ele>0.992</ele>
  <time>2026-09-02T22:13:01Z</time>
  <course>188.06</course>
  <speed>0.01414213562373095</speed>
  <fix>3d</fix>
</trkpt>
<trkpt lat="33.810313" lon="-118.393867">
  <ele>1.59</ele>
  <time>2026-09-02T22:13:01Z</time>
  <course>0.0</course>
  <speed>0.0</speed>
  <fix>3d</fix>
</trkpt>
<trkpt lat="33.8103139" lon="-118.393868">
  <ele>0.992</ele>
  <time>2026-09-02T22:13:01Z</time>
  <course>188.05</course>
  <speed>0.01414213562373095</speed>
  <fix>3d</fix>
</trkpt>
<trkpt lat="33.810313" lon="-118.393867">
  <ele>1.59</ele>
  <time>2026-09-02T22:13:01Z</time>
  <course>0.0</course>
  <speed>0.0</speed>
  <fix>3d</fix>
</trkpt>
<trkpt lat="33.8103139" lon="-118.393868">
  <ele>0.993</ele>
  <time>2026-09-02T22:13:01Z</time>
  <course>188.04</course>
  <speed>0.01414213562373095</speed>
  <fix>3d</fix>
</trkpt>
<trkpt lat="33.810313" lon="-118.393867">
  <ele>1.6</ele>
  <time>2026-09-02T22:13:01Z</time>
  <course>0.0</course>
  <speed>0.0</speed>
  <fix>3d</fix>
</trkpt>
<trkpt lat="33.810314" lon="-118.393868">
  <ele>0.994</ele>
  <time>2026-09-02T22:13:01Z</time>
  <course>188.04</course>
  <speed>0.01414213562373095</speed>
  <fix>3d</fix>
</trkpt>
<trkpt lat="33.810313" lon="-118.393867">
  <ele>1.6</ele>
  <time>2026-09-02T22:13:01Z</time>
  <course>0.0</course>
  <speed>0.0</speed>
  <fix>3d</fix>
</trkpt>
<trkpt lat="33.810314" lon="-118.393868">
  <ele>0.997</ele>
  <time>2026-09-02T22:13:01Z</time>
  <course>188.03</course>
  <speed>0.01414213562373095</speed>
  <fix>3d</fix>
</trkpt>
<trkpt lat="33.810313" lon="-118.393867">
  <ele>1.61</ele>
  <time>2026-09-02T22:13:01Z</time>
  <course>0.0</course>
  <speed>0.0</speed>
  <fix>3d</fix>
</trkpt>
<trkpt lat="33.810314" lon="-118.393868">
  <ele>0.998</ele>
  <time>2026-09-02T22:13:01Z</time>
  <course>188.02</course>
  <speed>0.01414213562373095</speed>
  <fix>3d</fix>
</trkpt>
<trkpt lat="33.810313" lon="-118.393867">
  <ele>1.61</ele>
  <time>2026-09-02T22:13:01Z</time>
  <course>0.0</course>
  <speed>0.0</speed>
  <fix>3d</fix>
</trkpt>
<trkpt lat="33.810314" lon="-118.393868">
  <ele>0.999</ele>
  <time>2026-09-02T22:13:01Z</time>
  <course>188.01</course>
  <speed>0.01414213562373095</speed>
  <fix>3d</fix>
</trkpt>
<trkpt lat="33.810313" lon="-118.393867">
  <ele>1.62</ele>
  <time>2026-09-02T22:13:01Z</time>
  <course>0.0</course>
  <speed>0.0</speed>
  <fix>3d</fix>
</trkpt>
<trkpt lat="33.810314" lon="-118.393868">
  <ele>1.0</ele>
  <time>2026-09-02T22:13:01Z</time>
  <course>188.01</course>
  <speed>0.01414213562373095</speed>
  <fix>3d</fix>
</trkpt>
<trkpt lat="33.810313" lon="-118.393867">
  <ele>1.62</ele>
  <time>2026-09-02T22:13:01Z</time>
  <course>0.0</course>
  <speed>0.0</speed>
  <fix>3d</fix>
</trkpt>
<trkpt lat="33.810314" lon="-118.393868">
  <ele>0.999</ele>
  <time>2026-09-02T22:13:01Z</time>
  <course>188.0</course>
  <speed>0.01414213562373095</speed>
  <fix>3d</fix>
</trkpt>
<trkpt lat="33.810313" lon="-118.393867">
  <ele>1.62</ele>
  <time>2026-09-02T22:13:01Z</time>
  <course>0.0</course>
  <speed>0.0</speed>
  <fix>3d</fix>
</trkpt>
<trkpt lat="33.810314" lon="-118.393868">
  <ele>0.998</ele>
  <time>2026-09-02T22:13:01Z</time>
  <course>187.99</course>
  <speed>0.01414213562373095</speed>
  <fix>3d</fix>
</trkpt>
<trkpt lat="33.810313" lon="-118.393867">
  <ele>1.62</ele>
  <time>2026-09-02T22:13:01Z</time>
  <course>0.0</course>
  <speed>0.0</speed>
  <fix>3d</fix>
</trkpt>
<trkpt lat="33.810314" lon="-118.3938681">
  <ele>0.998</ele>
  <time>2026-09-02T22:13:01Z</time>
  <course>187.98</course>
  <speed>0.01414213562373095</speed>
  <fix>3d</fix>
</trkpt>
<trkpt lat="33.810313" lon="-118.393867">
  <ele>1.63</ele>
  <time>2026-09-02T22:13:01Z</time>
  <course>0.0</course>
  <speed>0.0</speed>
  <fix>3d</fix>
</trkpt>
<trkpt lat="33.8103141" lon="-118.3938681">
  <ele>0.997</ele>
  <time>2026-09-02T22:13:01Z</time>
  <course>187.98</course>
  <speed>0.01414213562373095</speed>
  <fix>3d</fix>
</trkpt>
<trkpt lat="33.810313" lon="-118.393867">
  <ele>1.63</ele>
  <time>2026-09-02T22:13:01Z</time>
  <course>0.0</course>
  <speed>0.0</speed>
  <fix>3d</fix>
</trkpt>
<trkpt lat="33.8103141" lon="-118.3938681">
  <ele>0.997</ele>
  <time>2026-09-02T22:13:01Z</time>
  <course>187.97</course>
  <speed>0.01414213562373095</speed>
  <fix>3d</fix>
</trkpt>
<trkpt lat="33.810313" lon="-118.393867">
  <ele>1.64</ele>
  <time>2026-09-02T22:13:01Z</time>
  <course>0.0</course>
  <speed>0.0</speed>
  <fix>3d</fix>
</trkpt>
<trkpt lat="33.8103141" lon="-118.3938681">
  <ele>0.997</ele>
  <time>2026-09-02T22:13:01Z</time>
  <course>187.96</course>
  <speed>0.01414213562373095</speed>
  <fix>3d</fix>
</trkpt>
<trkpt lat="33.810313" lon="-118.393867">
  <ele>1.64</ele>
  <time>2026-09-02T22:13:01Z</time>
  <course>0.0</course>
  <speed>0.0</speed>
  <fix>3d</fix>
</trkpt>
<trkpt lat="33.8103141" lon="-118.3938681">
  <ele>0.999</ele>
  <time>2026-09-02T22:13:01Z</time>
  <course>187.96</course>
  <speed>0.01414213562373095</speed>
  <fix>3d</fix>
</trkpt>
<trkpt lat="33.810313" lon="-118.393867">
  <ele>1.65</ele>
  <time>2026-09-02T22:13:01Z</time>
  <course>0.0</course>
  <speed>0.0</speed>
  <fix>3d</fix>
</trkpt>
<trkpt lat="33.8103141" lon="-118.3938681">
  <ele>1.001</ele>
  <time>2026-09-02T22:13:01Z</time>
  <course>187.95</course>
  <speed>0.01414213562373095</speed>
  <fix>3d</fix>
</trkpt>
<trkpt lat="33.810313" lon="-118.393867">
  <ele>1.65</ele>
  <time>2026-09-02T22:13:01Z</time>
  <course>0.0</course>
  <speed>0.0</speed>
  <fix>3d</fix>
</trkpt>
<trkpt lat="33.8103141" lon="-118.3938681">
  <ele>1.003</ele>
  <time>2026-09-02T22:13:01Z</time>
  <course>187.94</course>
  <speed>0.01414213562373095</speed>
  <fix>3d</fix>
</trkpt>
<trkpt lat="33.810313" lon="-118.393867">
  <ele>1.66</ele>
  <time>2026-09-02T22:13:01Z</time>
  <course>0.0</course>
  <speed>0.0</speed>
  <fix>3d</fix>
</trkpt>
<trkpt lat="33.8103141" lon="-118.3938682">
  <ele>1.004</ele>
  <time>2026-09-02T22:13:01Z</time>
  <course>187.94</course>
  <speed>0.01414213562373095</speed>
  <fix>3d</fix>
</trkpt>
<trkpt lat="33.810313" lon="-118.393867">
  <ele>1.66</ele>
  <time>2026-09-02T22:13:01Z</time>
  <course>0.0</course>
  <speed>0.0</speed>
  <fix>3d</fix>
</trkpt>
<trkpt lat="33.8103142" lon="-118.3938682">
  <ele>1.004</ele>
  <time>2026-09-02T22:13:01Z</time>
  <course>187.93</course>
  <speed>0.01414213562373095</speed>
  <fix>3d</fix>
</trkpt>
<trkpt lat="33.810313" lon="-118.393867">
  <ele>1.67</ele>
  <time>2026-09-02T22:13:01Z</time>
  <course>0.0</course>
  <speed>0.0</speed>
  <fix>3d</fix>
</trkpt>
<trkpt lat="33.8103142" lon="-118.3938682">
  <ele>1.002</ele>
  <time>2026-09-02T22:13:01Z</time>
  <course>187.92</course>
  <speed>0.01414213562373095</speed>
  <fix>3d</fix>
</trkpt>
<trkpt lat="33.810313" lon="-118.393867">
  <ele>1.67</ele>
  <time>2026-09-02T22:13:01Z</time>
  <course>0.0</course>
  <speed>0.0</speed>
  <fix>3d</fix>
</trkpt>
<trkpt lat="33.8103142" lon="-118.3938682">
  <ele>0.999</ele>
  <time>2026-09-02T22:13:01Z</time>
  <course>187.91</course>
  <speed>0.01414213562373095</speed>
  <fix>3d</fix>
</trkpt>
<trkpt lat="33.810313" lon="-118.393867">
  <ele>1.68</ele>
  <time>2026-09-02T22:13:01Z</time>
  <course>0.0</course>
  <speed>0.0</speed>
  <fix>3d</fix>
</trkpt>
<trkpt lat="33.8103142" lon="-118.3938682">
  <ele>0.997</ele>
  <time>2026-09-02T22:13:01Z</time>
  <course>187.91</course>
  <speed>0.01414213562373095</speed>
  <fix>3d</fix>
</trkpt>
<trkpt lat="33.810313" lon="-118.393867">
  <ele>1.68</ele>
  <time>2026-09-02T22:13:01Z</time>
  <course>0.0</course>
  <speed>0.0</speed>
  <fix>3d</fix>
</trkpt>
<trkpt lat="33.8103142" lon="-118.3938682">
  <ele>0.997</ele>
  <time>2026-09-02T22:13:01Z</time>
  <course>187.9</course>
  <speed>0.01414213562373095</speed>
  <fix>3d</fix>
</trkpt>
<trkpt lat="33.810313" lon="-118.393867">
  <ele>1.69</ele>
  <time>2026-09-02T22:13:01Z</time>
  <course>0.0</course>
  <speed>0.0</speed>
  <fix>3d</fix>
</trkpt>
<trkpt lat="33.8103142" lon="-118.3938682">
  <ele>0.998</ele>
  <time>2026-09-02T22:13:01Z</time>
  <course>187.89</course>
  <speed>0.01414213562373095</speed>
  <fix>3d</fix>
</trkpt>
<trkpt lat="33.810313" lon="-118.393867">
  <ele>1.69</ele>
  <time>2026-09-02T22:13:01Z</time>
  <course>0.0</course>
  <speed>0.0</speed>
  <fix>3d</fix>
</trkpt>
<trkpt lat="33.8103142" lon="-118.3938682">
  <ele>1.0</ele>
  <time>2026-09-02T22:13:01Z</time>
  <course>187.89</course>
  <speed>0.01414213562373095</speed>
  <fix>3d</fix>
</trkpt>
<trkpt lat="33.810313" lon="-118.393867">
  <ele>1.7</ele>
  <time>2026-09-02T22:13:01Z</time>
  <course>0.0</course>
  <speed>0.0</speed>
  <fix>3d</fix>
</trkpt>
<trkpt lat="33.8103143" lon="-118.3938683">
  <ele>1.001</ele>
  <time>2026-09-02T22:13:01Z</time>
  <course>187.88</course>
  <speed>0.01414213562373095</speed>
  <fix>3d</fix>
</trkpt>
<trkpt lat="33.810313" lon="-118.393867">
  <ele>1.7</ele>
  <time>2026-09-02T22:13:01Z</time>
  <course>0.0</course>
  <speed>0.0</speed>
  <fix>3d</fix>
</trkpt>
<trkpt lat="33.8103143" lon="-118.3938683">
  <ele>1.002</ele>
  <time>2026-09-02T22:13:01Z</time>
  <course>187.88</course>
  <speed>0.01414213562373095</speed>
  <fix>3d</fix>
</trkpt>
<trkpt lat="33.810313" lon="-118.393867">
  <ele>1.71</ele>
  <time>2026-09-02T22:13:01Z</time>
  <course>0.0</course>
  <speed>0.0</speed>
  <fix>3d</fix>
</trkpt>
<trkpt lat="33.8103143" lon="-118.3938683">
  <ele>1.002</ele>
  <time>2026-09-02T22:13:01Z</time>
  <course>187.87</course>
  <speed>0.01414213562373095</speed>
  <fix>3d</fix>
</trkpt>
<trkpt lat="33.810313" lon="-118.393867">
  <ele>1.71</ele>
  <time>2026-09-02T22:13:01Z</time>
  <course>0.0</course>
  <speed>0.0</speed>
  <fix>3d</fix>
</trkpt>
<trkpt lat="33.8103143" lon="-118.3938683">
  <ele>1.002</ele>
  <time>2026-09-02T22:13:01Z</time>
  <course>187.86</course>
  <speed>0.01414213562373095</speed>
  <fix>3d</fix>
</trkpt>
<trkpt lat="33.810313" lon="-118.393867">
  <ele>1.72</ele>
  <time>2026-09-02T22:13:01Z</time>
  <course>0.0</course>
  <speed>0.0</speed>
  <fix>3d</fix>
</trkpt>
<trkpt lat="33.8103143" lon="-118.3938683">
  <ele>1.001</ele>
  <time>2026-09-02T22:13:01Z</time>
  <course>187.86</course>
  <speed>0.01414213562373095</speed>
  <fix>3d</fix>
</trkpt>
<trkpt lat="33.810313" lon="-118.393867">
  <ele>1.72</ele>
  <time>2026-09-02T22:13:01Z</time>
  <course>0.0</course>
  <speed>0.0</speed>
  <fix>3d</fix>
</trkpt>
<trkpt lat="33.8103143" lon="-118.3938683">
  <ele>1.0</ele>
  <time>2026-09-02T22:13:01Z</time>
  <course>187.85</course>
  <speed>0.01414213562373095</speed>
  <fix>3d</fix>
</trkpt>
<trkpt lat="33.810313" lon="-118.393867">
  <ele>1.73</ele>
  <time>2026-09-02T22:13:01Z</time>
  <course>0.0</course>
  <speed>0.0</speed>
  <fix>3d</fix>
</trkpt>
<trkpt lat="33.8103143" lon="-118.3938683">
  <ele>0.999</ele>
  <time>2026-09-02T22:13:01Z</time>
  <course>187.84</course>
  <speed>0.01414213562373095</speed>
  <fix>3d</fix>
</trkpt>
<trkpt lat="33.810313" lon="-118.393867">
  <ele>1.73</ele>
  <time>2026-09-02T22:13:01Z</time>
  <course>0.0</course>
  <speed>0.0</speed>
  <fix>3d</fix>
</trkpt>
<trkpt lat="33.8103144" lon="-118.3938684">
  <ele>0.999</ele>
  <time>2026-09-02T22:13:01Z</time>
  <course>187.84</course>
  <speed>0.01414213562373095</speed>
  <fix>3d</fix>
</trkpt>
<trkpt lat="33.810313" lon="-118.393867">
  <ele>1.74</ele>
  <time>2026-09-02T22:13:01Z</time>
  <course>0.0</course>
  <speed>0.0</speed>
  <fix>3d</fix>
</trkpt>
<trkpt lat="33.8103144" lon="-118.3938684">
  <ele>0.998</ele>
  <time>2026-09-02T22:13:01Z</time>
  <course>187.83</course>
  <speed>0.01414213562373095</speed>
  <fix>3d</fix>
</trkpt>
<trkpt lat="33.810313" lon="-118.393867">
  <ele>1.74</ele>
  <time>2026-09-02T22:13:01Z</time>
  <course>0.0</course>
  <speed>0.0</speed>
  <fix>3d</fix>
</trkpt>
<trkpt lat="33.8103144" lon="-118.3938684">
  <ele>0.998</ele>
  <time>2026-09-02T22:13:01Z</time>
  <course>187.82</course>
  <speed>0.01414213562373095</speed>
  <fix>3d</fix>
</trkpt>
<trkpt lat="33.810313" lon="-118.393867">
  <ele>1.75</ele>
  <time>2026-09-02T22:13:01Z</time>
  <course>0.0</course>
  <speed>0.0</speed>
  <fix>3d</fix>
</trkpt>
<trkpt lat="33.8103144" lon="-118.3938684">
  <ele>0.999</ele>
  <time>2026-09-02T22:13:01Z</time>
  <course>187.82</course>
  <speed>0.01414213562373095</speed>
  <fix>3d</fix>
</trkpt>
<trkpt lat="33.810313" lon="-118.393867">
  <ele>1.75</ele>
  <time>2026-09-02T22:13:01Z</time>
  <course>0.0</course>
  <speed>0.0</speed>
  <fix>3d</fix>
</trkpt>
<trkpt lat="33.8103144" lon="-118.3938684">
  <ele>1.0</ele>
  <time>2026-09-02T22:13:01Z</time>
  <course>187.81</course>
  <speed>0.01414213562373095</speed>
  <fix>3d</fix>
</trkpt>
<trkpt lat="33.810313" lon="-118.393867">
  <ele>1.76</ele>
  <time>2026-09-02T22:13:01Z</time>
  <course>0.0</course>
  <speed>0.0</speed>
  <fix>3d</fix>
</trkpt>
<trkpt lat="33.8103144" lon="-118.3938684">
  <ele>1.002</ele>
  <time>2026-09-02T22:13:01Z</time>
  <course>187.8</course>
  <speed>0.01414213562373095</speed>
  <fix>3d</fix>
</trkpt>
<trkpt lat="33.810313" lon="-118.393867">
  <ele>1.76</ele>
  <time>2026-09-02T22:13:01Z</time>
  <course>0.0</course>
  <speed>0.0</speed>
  <fix>3d</fix>
</trkpt>
<trkpt lat="33.8103145" lon="-118.3938684">
  <ele>1.002</ele>
  <time>2026-09-02T22:13:01Z</time>
  <course>187.8</course>
  <speed>0.01414213562373095</speed>
  <fix>3d</fix>
</trkpt>
<trkpt lat="33.810313" lon="-118.393867">
  <ele>1.77</ele>
  <time>2026-09-02T22:13:01Z</time>
  <course>0.0</course>
  <speed>0.0</speed>
  <fix>3d</fix>
</trkpt>
<trkpt lat="33.8103145" lon="-118.3938685">
  <ele>1.003</ele>
  <time>2026-09-02T22:13:01Z</time>
  <course>187.79</course>
  <speed>0.01414213562373095</speed>
  <fix>3d</fix>
</trkpt>
<trkpt lat="33.810313" lon="-118.393867">
  <ele>1.77</ele>
  <time>2026-09-02T22:13:01Z</time>
  <course>0.0</course>
  <speed>0.0</speed>
  <fix>3d</fix>
</trkpt>
<trkpt lat="33.8103145" lon="-118.3938685">
  <ele>1.002</ele>
  <time>2026-09-02T22:13:01Z</time>
  <course>187.78</course>
  <speed>0.01414213562373095</speed>
  <fix>3d</fix>
</trkpt>
<trkpt lat="33.810313" lon="-118.393867">
  <ele>1.78</ele>
  <time>2026-09-02T22:13:01Z</time>
  <course>0.0</course>
  <speed>0.0</speed>
  <fix>3d</fix>
</trkpt>
<trkpt lat="33.8103145" lon="-118.3938685">
  <ele>1.0</ele>
  <time>2026-09-02T22:13:01Z</time>
  <course>187.78</course>
  <speed>0.01414213562373095</speed>
  <fix>3d</fix>
</trkpt>
<trkpt lat="33.810313" lon="-118.393867">
  <ele>1.78</ele>
  <time>2026-09-02T22:13:01Z</time>
  <course>0.0</course>
  <speed>0.0</speed>
  <fix>3d</fix>
</trkpt>
<trkpt lat="33.8103145" lon="-118.3938685">
  <ele>0.998</ele>
  <time>2026-09-02T22:13:01Z</time>
  <course>187.77</course>
  <speed>0.01414213562373095</speed>
  <fix>3d</fix>
</trkpt>
<trkpt lat="33.810313" lon="-118.393867">
  <ele>1.79</ele>
  <time>2026-09-02T22:13:01Z</time>
  <course>0.0</course>
  <speed>0.0</speed>
  <fix>3d</fix>
</trkpt>
<trkpt lat="33.8103145" lon="-118.3938685">
  <ele>0.997</ele>
  <time>2026-09-02T22:13:01Z</time>
  <course>187.76</course>
  <speed>0.01414213562373095</speed>
  <fix>3d</fix>
</trkpt>
<trkpt lat="33.810313" lon="-118.393867">
  <ele>1.79</ele>
  <time>2026-09-02T22:13:01Z</time>
  <course>0.0</course>
  <speed>0.0</speed>
  <fix>3d</fix>
</trkpt>
<trkpt lat="33.8103146" lon="-118.3938685">
  <ele>0.997</ele>
  <time>2026-09-02T22:13:01Z</time>
  <course>187.76</course>
  <speed>0.01414213562373095</speed>
  <fix>3d</fix>
</trkpt>
<trkpt lat="33.810313" lon="-118.393867">
  <ele>1.8</ele>
  <time>2026-09-02T22:13:01Z</time>
  <course>0.0</course>
  <speed>0.0</speed>
  <fix>3d</fix>
</trkpt>
<trkpt lat="33.8103146" lon="-118.3938685">
  <ele>0.998</ele>
  <time>2026-09-02T22:13:01Z</time>
  <course>187.75</course>
  <speed>0.01414213562373095</speed>
  <fix>3d</fix>
</trkpt>
<trkpt lat="33.810313" lon="-118.393867">
  <ele>1.8</ele>
  <time>2026-09-02T22:13:01Z</time>
  <course>0.0</course>
  <speed>0.0</speed>
  <fix>3d</fix>
</trkpt>
<trkpt lat="33.8103146" lon="-118.3938686">
  <ele>0.999</ele>
  <time>2026-09-02T22:13:01Z</time>
  <course>187.74</course>
  <speed>0.01414213562373095</speed>
  <fix>3d</fix>
</trkpt>
<trkpt lat="33.810313" lon="-118.393867">
  <ele>1.8</ele>
  <time>2026-09-02T22:13:01Z</time>
  <course>0.0</course>
  <speed>0.0</speed>
  <fix>3d</fix>
</trkpt>
<trkpt lat="33.8103146" lon="-118.3938686">
  <ele>1.001</ele>
  <time>2026-09-02T22:13:01Z</time>
  <course>187.74</course>
  <speed>0.01414213562373095</speed>
  <fix>3d</fix>
</trkpt>
<trkpt lat="33.810313" lon="-118.393867">
  <ele>1.8</ele>
  <time>2026-09-02T22:13:01Z</time>
  <course>0.0</course>
  <speed>0.0</speed>
  <fix>3d</fix>
</trkpt>
<trkpt lat="33.8103146" lon="-118.3938686">
  <ele>1.003</ele>
  <time>2026-09-02T22:13:01Z</time>
  <course>187.73</course>
  <speed>0.01414213562373095</speed>
  <fix>3d</fix>
</trkpt>
<trkpt lat="33.810313" lon="-118.393867">
  <ele>1.81</ele>
  <time>2026-09-02T22:13:01Z</time>
  <course>0.0</course>
  <speed>0.0</speed>
  <fix>3d</fix>
</trkpt>
<trkpt lat="33.8103146" lon="-118.3938686">
  <ele>1.004</ele>
  <time>2026-09-02T22:13:01Z</time>
  <course>187.73</course>
  <speed>0.01414213562373095</speed>
  <fix>3d</fix>
</trkpt>
<trkpt lat="33.810313" lon="-118.393867">
  <ele>1.81</ele>
  <time>2026-09-02T22:13:01Z</time>
  <course>0.0</course>
  <speed>0.0</speed>
  <fix>3d</fix>
</trkpt>
<trkpt lat="33.8103146" lon="-118.3938686">
  <ele>1.004</ele>
  <time>2026-09-02T22:13:01Z</time>
  <course>187.72</course>
  <speed>0.01414213562373095</speed>
  <fix>3d</fix>
</trkpt>
<trkpt lat="33.810313" lon="-118.393867">
  <ele>1.82</ele>
  <time>2026-09-02T22:13:01Z</time>
  <course>0.0</course>
  <speed>0.0</speed>
  <fix>3d</fix>
</trkpt>
<trkpt lat="33.8103147" lon="-118.3938686">
  <ele>1.002</ele>
  <time>2026-09-02T22:13:01Z</time>
  <course>187.71</course>
  <speed>0.01414213562373095</speed>
  <fix>3d</fix>
</trkpt>
<trkpt lat="33.810313" lon="-118.393867">
  <ele>1.82</ele>
  <time>2026-09-02T22:13:01Z</time>
  <course>0.0</course>
  <speed>0.0</speed>
  <fix>3d</fix>
</trkpt>
<trkpt lat="33.8103147" lon="-118.3938687">
  <ele>1.0</ele>
  <time>2026-09-02T22:13:01Z</time>
  <course>187.71</course>
  <speed>0.022360679774997897</speed>
  <fix>3d</fix>
</trkpt>
<trkpt lat="33.810313" lon="-118.393867">
  <ele>1.83</ele>
  <time>2026-09-02T22:13:01Z</time>
  <course>0.0</course>
  <speed>0.0</speed>
  <fix>3d</fix>
</trkpt>
<trkpt lat="33.8103147" lon="-118.3938687">
  <ele>0.998</ele>
  <time>2026-09-02T22:13:01Z</time>
  <course>187.7</course>
  <speed>0.022360679774997897</speed>
  <fix>3d</fix>
</trkpt>
<trkpt lat="33.810313" lon="-118.393867">
  <ele>1.83</ele>
  <time>2026-09-02T22:13:01Z</time>
  <course>0.0</course>
  <speed>0.0</speed>
  <fix>3d</fix>
</trkpt>
<trkpt lat="33.8103147" lon="-118.3938687">
  <ele>0.997</ele>
  <time>2026-09-02T22:13:01Z</time>
  <course>187.69</course>
  <speed>0.022360679774997897</speed>
  <fix>3d</fix>
</trkpt>
<trkpt lat="33.810313" lon="-118.393867">
  <ele>1.84</ele>
  <time>2026-09-02T22:13:01Z</time>
  <course>0.0</course>
  <speed>0.0</speed>
  <fix>3d</fix>
</trkpt>
<trkpt lat="33.8103147" lon="-118.3938687">
  <ele>0.997</ele>
  <time>2026-09-02T22:13:01Z</time>
  <course>187.69</course>
  <speed>0.022360679774997897</speed>
  <fix>3d</fix>
</trkpt>
<trkpt lat="33.810313" lon="-118.393867">
  <ele>1.84</ele>
  <time>2026-09-02T22:13:01Z</time>
  <course>0.0</course>
  <speed>0.0</speed>
  <fix>3d</fix>
</trkpt>
<trkpt lat="33.8103148" lon="-118.3938687">
  <ele>0.999</ele>
  <time>2026-09-02T22:13:01Z</time>
  <course>187.68</course>
  <speed>0.022360679774997897</speed>
  <fix>3d</fix>
</trkpt>
<trkpt lat="33.810313" lon="-118.393867">
  <ele>1.85</ele>
  <time>2026-09-02T22:13:01Z</time>
  <course>0.0</course>
  <speed>0.0</speed>
  <fix>3d</fix>
</trkpt>
<trkpt lat="33.8103148" lon="-118.3938687">
  <ele>1.0</ele>
  <time>2026-09-02T22:13:01Z</time>
  <course>187.68</course>
  <speed>0.022360679774997897</speed>
  <fix>3d</fix>
</trkpt>
<trkpt lat="33.810313" lon="-118.393867">
  <ele>1.85</ele>
  <time>2026-09-02T22:13:01Z</time>
  <course>0.0</course>
  <speed>0.0</speed>
  <fix>3d</fix>
</trkpt>
<trkpt lat="33.8103148" lon="-118.3938687">
  <ele>1.002</ele>
  <time>2026-09-02T22:13:01Z</time>
  <course>187.67</course>
  <speed>0.022360679774997897</speed>
  <fix>3d</fix>
</trkpt>
<trkpt lat="33.810313" lon="-118.393867">
  <ele>1.86</ele>
  <time>2026-09-02T22:13:01Z</time>
  <course>0.0</course>
  <speed>0.0</speed>
  <fix>3d</fix>
</trkpt>
<trkpt lat="33.8103148" lon="-118.3938688">
  <ele>1.003</ele>
  <time>2026-09-02T22:13:01Z</time>
  <course>187.66</course>
  <speed>0.022360679774997897</speed>
  <fix>3d</fix>
</trkpt>
<trkpt lat="33.810313" lon="-118.393867">
  <ele>1.86</ele>
  <time>2026-09-02T22:13:01Z</time>
  <course>0.0</course>
  <speed>0.0</speed>
  <fix>3d</fix>
</trkpt>
<trkpt lat="33.8103148" lon="-118.3938688">
  <ele>1.003</ele>
  <time>2026-09-02T22:13:01Z</time>
  <course>187.66</course>
  <speed>0.022360679774997897</speed>
  <fix>3d</fix>
</trkpt>
<trkpt lat="33.810313" lon="-118.393867">
  <ele>1.87</ele>
  <time>2026-09-02T22:13:01Z</time>
  <course>0.0</course>
  <speed>0.0</speed>
  <fix>3d</fix>
</trkpt>
<trkpt lat="33.8103148" lon="-118.3938688">
  <ele>1.001</ele>
  <time>2026-09-02T22:13:01Z</time>
  <course>187.65</course>
  <speed>0.022360679774997897</speed>
  <fix>3d</fix>
</trkpt>
<trkpt lat="33.810313" lon="-118.393867">
  <ele>1.87</ele>
  <time>2026-09-02T22:13:01Z</time>
  <course>0.0</course>
  <speed>0.0</speed>
  <fix>3d</fix>
</trkpt>
<trkpt lat="33.8103149" lon="-118.3938688">
  <ele>0.999</ele>
  <time>2026-09-02T22:13:01Z</time>
  <course>187.64</course>
  <speed>0.022360679774997897</speed>
  <fix>3d</fix>
</trkpt>
<trkpt lat="33.810313" lon="-118.393867">
  <ele>1.88</ele>
  <time>2026-09-02T22:13:01Z</time>
  <course>0.0</course>
  <speed>0.0</speed>
  <fix>3d</fix>
</trkpt>
<trkpt lat="33.8103149" lon="-118.3938688">
  <ele>0.995</ele>
  <time>2026-09-02T22:13:01Z</time>
  <course>187.64</course>
  <speed>0.022360679774997897</speed>
  <fix>3d</fix>
</trkpt>
<trkpt lat="33.810313" lon="-118.393867">
  <ele>1.88</ele>
  <time>2026-09-02T22:13:01Z</time>
  <course>0.0</course>
  <speed>0.0</speed>
  <fix>3d</fix>
</trkpt>
<trkpt lat="33.8103149" lon="-118.3938688">
  <ele>0.992</ele>
  <time>2026-09-02T22:13:01Z</time>
  <course>187.63</course>
  <speed>0.022360679774997897</speed>
  <fix>3d</fix>
</trkpt>
<trkpt lat="33.810313" lon="-118.393867">
  <ele>1.89</ele>
  <time>2026-09-02T22:13:01Z</time>
  <course>0.0</course>
  <speed>0.0</speed>
  <fix>3d</fix>
</trkpt>
<trkpt lat="33.8103149" lon="-118.3938689">
  <ele>0.991</ele>
  <time>2026-09-02T22:13:01Z</time>
  <course>187.63</course>
  <speed>0.022360679774997897</speed>
  <fix>3d</fix>
</trkpt>
<trkpt lat="33.810313" lon="-118.393867">
  <ele>1.89</ele>
  <time>2026-09-02T22:13:01Z</time>
  <course>0.0</course>
  <speed>0.0</speed>
  <fix>3d</fix>
</trkpt>
<trkpt lat="33.8103149" lon="-118.3938689">
  <ele>0.99</ele>
  <time>2026-09-02T22:13:01Z</time>
  <course>187.62</course>
  <speed>0.022360679774997897</speed>
  <fix>3d</fix>
</trkpt>
<trkpt lat="33.810313" lon="-118.393867">
  <ele>1.9</ele>
  <time>2026-09-02T22:13:01Z</time>
  <course>0.0</course>
  <speed>0.0</speed>
  <fix>3d</fix>
</trkpt>
<trkpt lat="33.810315" lon="-118.3938689">
  <ele>0.991</ele>
  <time>2026-09-02T22:13:01Z</time>
  <course>187.61</course>
  <speed>0.022360679774997897</speed>
  <fix>3d</fix>
</trkpt>
<trkpt lat="33.810313" lon="-118.393867">
  <ele>1.9</ele>
  <time>2026-09-02T22:13:01Z</time>
  <course>0.0</course>
  <speed>0.0</speed>
  <fix>3d</fix>
</trkpt>
<trkpt lat="33.810315" lon="-118.3938689">
  <ele>0.992</ele>
  <time>2026-09-02T22:13:01Z</time>
  <course>187.61</course>
  <speed>0.022360679774997897</speed>
  <fix>3d</fix>
</trkpt>
<trkpt lat="33.810313" lon="-118.393867">
  <ele>1.9</ele>
  <time>2026-09-02T22:13:01Z</time>
  <course>0.0</course>
  <speed>0.0</speed>
  <fix>3d</fix>
</trkpt>
<trkpt lat="33.810315" lon="-118.3938689">
  <ele>0.995</ele>
  <time>2026-09-02T22:13:01Z</time>
  <course>187.6</course>
  <speed>0.022360679774997897</speed>
  <fix>3d</fix>
</trkpt>
<trkpt lat="33.810313" lon="-118.393867">
  <ele>1.9</ele>
  <time>2026-09-02T22:13:01Z</time>
  <course>0.0</course>
  <speed>0.0</speed>
  <fix>3d</fix>
</trkpt>
<trkpt lat="33.810315" lon="-118.393869">
  <ele>0.997</ele>
  <time>2026-09-02T22:13:01Z</time>
  <course>187.6</course>
  <speed>0.022360679774997897</speed>
  <fix>3d</fix>
</trkpt>
<trkpt lat="33.810313" lon="-118.393867">
  <ele>1.91</ele>
  <time>2026-09-02T22:13:01Z</time>
  <course>0.0</course>
  <speed>0.0</speed>
  <fix>3d</fix>
</trkpt>
<trkpt lat="33.810315" lon="-118.393869">
  <ele>0.997</ele>
  <time>2026-09-02T22:13:01Z</time>
  <course>187.59</course>
  <speed>0.022360679774997897</speed>
  <fix>3d</fix>
</trkpt>
<trkpt lat="33.810313" lon="-118.393867">
  <ele>1.91</ele>
  <time>2026-09-02T22:13:01Z</time>
  <course>0.0</course>
  <speed>0.0</speed>
  <fix>3d</fix>
</trkpt>
<trkpt lat="33.810315" lon="-118.393869">
  <ele>0.997</ele>
  <time>2026-09-02T22:13:01Z</time>
  <course>187.58</course>
  <speed>0.022360679774997897</speed>
  <fix>3d</fix>
</trkpt>
<trkpt lat="33.810313" lon="-118.393867">
  <ele>1.92</ele>
  <time>2026-09-02T22:13:02Z</time>
  <course>0.0</course>
  <speed>0.0</speed>
  <fix>3d</fix>
</trkpt>
<trkpt lat="33.8103151" lon="-118.393869">
  <ele>0.997</ele>
  <time>2026-09-02T22:13:02Z</time>
  <course>187.58</course>
  <speed>0.022360679774997897</speed>
  <fix>3d</fix>
</trkpt>
<trkpt lat="33.810313" lon="-118.393867">
  <ele>1.92</ele>
  <time>2026-09-02T22:13:02Z</time>
  <course>0.0</course>
  <speed>0.0</speed>
  <fix>3d</fix>
</trkpt>
<trkpt lat="33.8103151" lon="-118.393869">
  <ele>0.997</ele>
  <time>2026-09-02T22:13:02Z</time>
  <course>187.57</course>
  <speed>0.022360679774997897</speed>
  <fix>3d</fix>
</trkpt>
<trkpt lat="33.810313" lon="-118.393867">
  <ele>1.93</ele>
  <time>2026-09-02T22:13:02Z</time>
  <course>0.0</course>
  <speed>0.0</speed>
  <fix>3d</fix>
</trkpt>
<trkpt lat="33.8103151" lon="-118.393869">
  <ele>0.997</ele>
  <time>2026-09-02T22:13:02Z</time>
  <course>187.57</course>
  <speed>0.022360679774997897</speed>
  <fix>3d</fix>
</trkpt>
<trkpt lat="33.810313" lon="-118.393867">
  <ele>1.93</ele>
  <time>2026-09-02T22:13:02Z</time>
  <course>0.0</course>
  <speed>0.0</speed>
  <fix>3d</fix>
</trkpt>
<trkpt lat="33.8103151" lon="-118.3938691">
  <ele>0.999</ele>
  <time>2026-09-02T22:13:02Z</time>
  <course>187.56</course>
  <speed>0.022360679774997897</speed>
  <fix>3d</fix>
</trkpt>
<trkpt lat="33.810313" lon="-118.393867">
  <ele>1.94</ele>
  <time>2026-09-02T22:13:02Z</time>
  <course>0.0</course>
  <speed>0.0</speed>
  <fix>3d</fix>
</trkpt>
<trkpt lat="33.8103151" lon="-118.3938691">
  <ele>1.001</ele>
  <time>2026-09-02T22:13:02Z</time>
  <course>187.56</course>
  <speed>0.022360679774997897</speed>
  <fix>3d</fix>
</trkpt>
<trkpt lat="33.810313" lon="-118.393867">
  <ele>1.94</ele>
  <time>2026-09-02T22:13:02Z</time>
  <course>0.0</course>
  <speed>0.0</speed>
  <fix>3d</fix>
</trkpt>
<trkpt lat="33.8103152" lon="-118.3938691">
  <ele>1.003</ele>
  <time>2026-09-02T22:13:02Z</time>
  <course>187.55</course>
  <speed>0.022360679774997897</speed>
  <fix>3d</fix>
</trkpt>
<trkpt lat="33.810313" lon="-118.393867">
  <ele>1.95</ele>
  <time>2026-09-02T22:13:02Z</time>
  <course>0.0</course>
  <speed>0.0</speed>
  <fix>3d</fix>
</trkpt>
<trkpt lat="33.8103152" lon="-118.3938691">
  <ele>1.005</ele>
  <time>2026-09-02T22:13:02Z</time>
  <course>187.55</course>
  <speed>0.022360679774997897</speed>
  <fix>3d</fix>
</trkpt>
<trkpt lat="33.810313" lon="-118.393867">
  <ele>1.95</ele>
  <time>2026-09-02T22:13:02Z</time>
  <course>0.0</course>
  <speed>0.0</speed>
  <fix>3d</fix>
</trkpt>
<trkpt lat="33.8103152" lon="-118.3938691">
  <ele>1.006</ele>
  <time>2026-09-02T22:13:02Z</time>
  <course>187.54</course>
  <speed>0.022360679774997897</speed>
  <fix>3d</fix>
</trkpt>
<trkpt lat="33.810313" lon="-118.393867">
  <ele>1.96</ele>
  <time>2026-09-02T22:13:02Z</time>
  <course>0.0</course>
  <speed>0.0</speed>
  <fix>3d</fix>
</trkpt>
<trkpt lat="33.8103152" lon="-118.3938691">
  <ele>1.006</ele>
  <time>2026-09-02T22:13:02Z</time>
  <course>187.54</course>
  <speed>0.022360679774997897</speed>
  <fix>3d</fix>
</trkpt>
<trkpt lat="33.810313" lon="-118.393867">
  <ele>1.96</ele>
  <time>2026-09-02T22:13:02Z</time>
  <course>0.0</course>
  <speed>0.0</speed>
  <fix>3d</fix>
</trkpt>
<trkpt lat="33.8103152" lon="-118.3938692">
  <ele>1.004</ele>
  <time>2026-09-02T22:13:02Z</time>
  <course>187.53</course>
  <speed>0.022360679774997897</speed>
  <fix>3d</fix>
</trkpt>
<trkpt lat="33.810313" lon="-118.393867">
  <ele>1.96</ele>
  <time>2026-09-02T22:13:02Z</time>
  <course>0.0</course>
  <speed>0.0</speed>
  <fix>3d</fix>
</trkpt>
<trkpt lat="33.8103153" lon="-118.3938692">
  <ele>1.002</ele>
  <time>2026-09-02T22:13:02Z</time>
  <course>187.53</course>
  <speed>0.022360679774997897</speed>
  <fix>3d</fix>
</trkpt>
<trkpt lat="33.810313" lon="-118.393867">
  <ele>1.96</ele>
  <time>2026-09-02T22:13:02Z</time>
  <course>0.0</course>
  <speed>0.0</speed>
  <fix>3d</fix>
</trkpt>
<trkpt lat="33.8103153" lon="-118.3938692">
  <ele>1.001</ele>
  <time>2026-09-02T22:13:02Z</time>
  <course>187.52</course>
  <speed>0.022360679774997897</speed>
  <fix>3d</fix>
</trkpt>
<trkpt lat="33.810313" lon="-118.393867">
  <ele>1.97</ele>
  <time>2026-09-02T22:13:02Z</time>
  <course>0.0</course>
  <speed>0.0</speed>
  <fix>3d</fix>
</trkpt>
<trkpt lat="33.8103153" lon="-118.3938692">
  <ele>1.0</ele>
  <time>2026-09-02T22:13:02Z</time>
  <course>187.51</course>
  <speed>0.022360679774997897</speed>
  <fix>3d</fix>
</trkpt>
<trkpt lat="33.810313" lon="-118.393867">
  <ele>1.97</ele>
  <time>2026-09-02T22:13:02Z</time>
  <course>0.0</course>
  <speed>0.0</speed>
  <fix>3d</fix>
</trkpt>
<trkpt lat="33.8103153" lon="-118.3938692">
  <ele>1.0</ele>
  <time>2026-09-02T22:13:02Z</time>
  <course>187.51</course>
  <speed>0.022360679774997897</speed>
  <fix>3d</fix>
</trkpt>
<trkpt lat="33.810313" lon="-118.393867">
  <ele>1.98</ele>
  <time>2026-09-02T22:13:02Z</time>
  <course>0.0</course>
  <speed>0.0</speed>
  <fix>3d</fix>
</trkpt>
<trkpt lat="33.8103153" lon="-118.3938693">
  <ele>1.0</ele>
  <time>2026-09-02T22:13:02Z</time>
  <course>187.5</course>
  <speed>0.022360679774997897</speed>
  <fix>3d</fix>
</trkpt>
<trkpt lat="33.810313" lon="-118.393867">
  <ele>1.98</ele>
  <time>2026-09-02T22:13:02Z</time>
  <course>0.0</course>
  <speed>0.0</speed>
  <fix>3d</fix>
</trkpt>
<trkpt lat="33.8103154" lon="-118.3938693">
  <ele>1.001</ele>
  <time>2026-09-02T22:13:02Z</time>
  <course>187.5</course>
  <speed>0.022360679774997897</speed>
  <fix>3d</fix>
</trkpt>
<trkpt lat="33.810313" lon="-118.393867">
  <ele>1.99</ele>
  <time>2026-09-02T22:13:02Z</time>
  <course>0.0</course>
  <speed>0.0</speed>
  <fix>3d</fix>
</trkpt>
<trkpt lat="33.8103154" lon="-118.3938693">
  <ele>1.001</ele>
  <time>2026-09-02T22:13:02Z</time>
  <course>187.49</course>
  <speed>0.022360679774997897</speed>
  <fix>3d</fix>
</trkpt>
<trkpt lat="33.810313" lon="-118.393867">
  <ele>1.99</ele>
  <time>2026-09-02T22:13:02Z</time>
  <course>0.0</course>
  <speed>0.0</speed>
  <fix>3d</fix>
</trkpt>
<trkpt lat="33.8103154" lon="-118.3938693">
  <ele>1.002</ele>
  <time>2026-09-02T22:13:02Z</time>
  <course>187.49</course>
  <speed>0.022360679774997897</speed>
  <fix>3d</fix>
</trkpt>
<trkpt lat="33.810313" lon="-118.393867">
  <ele>2.0</ele>
  <time>2026-09-02T22:13:02Z</time>
  <course>0.0</course>
  <speed>0.0</speed>
  <fix>3d</fix>
</trkpt>
<trkpt lat="33.8103154" lon="-118.3938693">
  <ele>1.002</ele>
  <time>2026-09-02T22:13:02Z</time>
  <course>187.48</course>
  <speed>0.022360679774997897</speed>
  <fix>3d</fix>
</trkpt>
<trkpt lat="33.810313" lon="-118.393867">
  <ele>2.0</ele>
  <time>2026-09-02T22:13:02Z</time>
  <course>0.0</course>
  <speed>0.0</speed>
  <fix>3d</fix>
</trkpt>
<trkpt lat="33.8103154" lon="-118.3938693">
  <ele>1.001</ele>
  <time>2026-09-02T22:13:02Z</time>
  <course>187.48</course>
  <speed>0.022360679774997897</speed>
  <fix>3d</fix>
</trkpt>
<trkpt lat="33.810313" lon="-118.393867">
  <ele>2.01</ele>
  <time>2026-09-02T22:13:02Z</time>
  <course>0.0</course>
  <speed>0.0</speed>
  <fix>3d</fix>
</trkpt>
<trkpt lat="33.8103155" lon="-118.3938694">
  <ele>0.999</ele>
  <time>2026-09-02T22:13:02Z</time>
  <course>187.47</course>
  <speed>0.022360679774997897</speed>
  <fix>3d</fix>
</trkpt>
<trkpt lat="33.810313" lon="-118.393867">
  <ele>2.01</ele>
  <time>2026-09-02T22:13:02Z</time>
  <course>0.0</course>
  <speed>0.0</speed>
  <fix>3d</fix>
</trkpt>
<trkpt lat="33.8103155" lon="-118.3938694">
  <ele>0.998</ele>
  <time>2026-09-02T22:13:02Z</time>
  <course>187.46</course>
  <speed>0.022360679774997897</speed>
  <fix>3d</fix>
</trkpt>
<trkpt lat="33.810313" lon="-118.393867">
  <ele>2.02</ele>
  <time>2026-09-02T22:13:02Z</time>
  <course>0.0</course>
  <speed>0.0</speed>
  <fix>3d</fix>
</trkpt>
<trkpt lat="33.8103155" lon="-118.3938694">
  <ele>0.996</ele>
  <time>2026-09-02T22:13:02Z</time>
  <course>187.46</course>
  <speed>0.022360679774997897</speed>
  <fix>3d</fix>
</trkpt>
<trkpt lat="33.810313" lon="-118.393867">
  <ele>2.02</ele>
  <time>2026-09-02T22:13:02Z</time>
  <course>0.0</course>
  <speed>0.0</speed>
  <fix>3d</fix>
</trkpt>
<trkpt lat="33.8103155" lon="-118.3938694">
  <ele>0.996</ele>
  <time>2026-09-02T22:13:02Z</time>
  <course>187.45</course>
  <speed>0.022360679774997897</speed>
  <fix>3d</fix>
</trkpt>
<trkpt lat="33.810313" lon="-118.393867">
  <ele>2.02</ele>
  <time>2026-09-02T22:13:02Z</time>
  <course>0.0</course>
  <speed>0.0</speed>
  <fix>3d</fix>
</trkpt>
<trkpt lat="33.8103155" lon="-118.3938694">
  <ele>0.998</ele>
  <time>2026-09-02T22:13:02Z</time>
  <course>187.45</course>
  <speed>0.022360679774997897</speed>
  <fix>3d</fix>
</trkpt>
<trkpt lat="33.810313" lon="-118.393867">
  <ele>2.02</ele>
  <time>2026-09-02T22:13:02Z</time>
  <course>0.0</course>
  <speed>0.0</speed>
  <fix>3d</fix>
</trkpt>
<trkpt lat="33.8103156" lon="-118.3938694">
  <ele>0.999</ele>
  <time>2026-09-02T22:13:02Z</time>
  <course>187.44</course>
  <speed>0.022360679774997897</speed>
  <fix>3d</fix>
</trkpt>
<trkpt lat="33.810313" lon="-118.393867">
  <ele>2.03</ele>
  <time>2026-09-02T22:13:02Z</time>
  <course>0.0</course>
  <speed>0.0</speed>
  <fix>3d</fix>
</trkpt>
<trkpt lat="33.8103156" lon="-118.3938695">
  <ele>1.001</ele>
  <time>2026-09-02T22:13:02Z</time>
  <course>187.44</course>
  <speed>0.022360679774997897</speed>
  <fix>3d</fix>
</trkpt>
<trkpt lat="33.810313" lon="-118.393867">
  <ele>2.03</ele>
  <time>2026-09-02T22:13:02Z</time>
  <course>0.0</course>
  <speed>0.0</speed>
  <fix>3d</fix>
</trkpt>
<trkpt lat="33.810313" lon="-118.393867">
  <ele>1.004</ele>
  <time>2026-09-02T22:13:02Z</time>
  <course>187.43</course>
  <speed>0.0</speed>
  <fix>3d</fix>
</trkpt>
<trkpt lat="33.810313" lon="-118.393867">
  <ele>2.04</ele>
  <time>2026-09-02T22:13:02Z</time>
  <course>0.0</course>
  <speed>0.0</speed>
  <fix>3d</fix>
</trkpt>
<trkpt lat="33.810313" lon="-118.393867">
  <ele>1.005</ele>
  <time>2026-09-02T22:13:02Z</time>
  <course>187.43</course>
  <speed>0.0</speed>
  <fix>3d</fix>
</trkpt>
<trkpt lat="33.810313" lon="-118.393867">
  <ele>2.04</ele>
  <time>2026-09-02T22:13:02Z</time>
  <course>0.0</course>
  <speed>0.0</speed>
  <fix>3d</fix>
</trkpt>
<trkpt lat="33.810313" lon="-118.393867">
  <ele>1.006</ele>
  <time>2026-09-02T22:13:02Z</time>
  <course>187.42</course>
  <speed>0.0</speed>
  <fix>3d</fix>
</trkpt>
<trkpt lat="33.810313" lon="-118.393867">
  <ele>2.05</ele>
  <time>2026-09-02T22:13:02Z</time>
  <course>0.0</course>
  <speed>0.0</speed>
  <fix>3d</fix>
</trkpt>
<trkpt lat="33.810313" lon="-118.393867">
  <ele>1.005</ele>
  <time>2026-09-02T22:13:02Z</time>
  <course>187.42</course>
  <speed>0.0</speed>
  <fix>3d</fix>
</trkpt>
<trkpt lat="33.810313" lon="-118.393867">
  <ele>2.05</ele>
  <time>2026-09-02T22:13:02Z</time>
  <course>0.0</course>
  <speed>0.0</speed>
  <fix>3d</fix>
</trkpt>
<trkpt lat="33.810313" lon="-118.393867">
  <ele>1.003</ele>
  <time>2026-09-02T22:13:02Z</time>
  <course>187.41</course>
  <speed>0.0</speed>
  <fix>3d</fix>
</trkpt>
<trkpt lat="33.810313" lon="-118.393867">
  <ele>2.06</ele>
  <time>2026-09-02T22:13:02Z</time>
  <course>0.0</course>
  <speed>0.0</speed>
  <fix>3d</fix>
</trkpt>
<trkpt lat="33.810313" lon="-118.393867">
  <ele>1.001</ele>
  <time>2026-09-02T22:13:02Z</time>
  <course>187.41</course>
  <speed>0.0</speed>
  <fix>3d</fix>
</trkpt>
<trkpt lat="33.810313" lon="-118.393867">
  <ele>2.06</ele>
  <time>2026-09-02T22:13:02Z</time>
  <course>0.0</course>
  <speed>0.0</speed>
  <fix>3d</fix>
</trkpt>
<trkpt lat="33.810313" lon="-118.393867">
  <ele>1.0</ele>
  <time>2026-09-02T22:13:02Z</time>
  <course>187.4</course>
  <speed>0.0</speed>
  <fix>3d</fix>
</trkpt>
<trkpt lat="33.810313" lon="-118.393867">
  <ele>2.07</ele>
  <time>2026-09-02T22:13:02Z</time>
  <course>0.0</course>
  <speed>0.0</speed>
  <fix>3d</fix>
</trkpt>
<trkpt lat="33.810313" lon="-118.393867">
  <ele>0.999</ele>
  <time>2026-09-02T22:13:02Z</time>
  <course>187.4</course>
  <speed>0.0</speed>
  <fix>3d</fix>
</trkpt>
<trkpt lat="33.810313" lon="-118.393867">
  <ele>2.07</ele>
  <time>2026-09-02T22:13:02Z</time>
  <course>0.0</course>
  <speed>0.0</speed>
  <fix>3d</fix>
</trkpt>
<trkpt lat="33.810313" lon="-118.393867">
  <ele>0.999</ele>
  <time>2026-09-02T22:13:02Z</time>
  <course>187.39</course>
  <speed>0.0</speed>
  <fix>3d</fix>
</trkpt>
<trkpt lat="33.810313" lon="-118.393867">
  <ele>2.07</ele>
  <time>2026-09-02T22:13:02Z</time>
  <course>0.0</course>
  <speed>0.0</speed>
  <fix>3d</fix>
</trkpt>
<trkpt lat="33.810313" lon="-118.393867">
  <ele>1.001</ele>
  <time>2026-09-02T22:13:02Z</time>
  <course>187.38</course>
  <speed>0.0</speed>
  <fix>3d</fix>
</trkpt>
<trkpt lat="33.810313" lon="-118.393867">
  <ele>2.07</ele>
  <time>2026-09-02T22:13:02Z</time>
  <course>0.0</course>
  <speed>0.0</speed>
  <fix>3d</fix>
</trkpt>
<trkpt lat="33.810313" lon="-118.393867">
  <ele>1.002</ele>
  <time>2026-09-02T22:13:02Z</time>
  <course>187.38</course>
  <speed>0.0</speed>
  <fix>3d</fix>
</trkpt>
<trkpt lat="33.810313" lon="-118.393867">
  <ele>2.08</ele>
  <time>2026-09-02T22:13:02Z</time>
  <course>0.0</course>
  <speed>0.0</speed>
  <fix>3d</fix>
</trkpt>
<trkpt lat="33.810313" lon="-118.393867">
  <ele>1.004</ele>
  <time>2026-09-02T22:13:02Z</time>
  <course>187.37</course>
  <speed>0.0</speed>
  <fix>3d</fix>
</trkpt>
<trkpt lat="33.810313" lon="-118.393867">
  <ele>2.08</ele>
  <time>2026-09-02T22:13:02Z</time>
  <course>0.0</course>
  <speed>0.0</speed>
  <fix>3d</fix>
</trkpt>
<trkpt lat="33.810313" lon="-118.393867">
  <ele>1.005</ele>
  <time>2026-09-02T22:13:02Z</time>
  <course>187.37</course>
  <speed>0.01</speed>
  <fix>3d</fix>
</trkpt>
<trkpt lat="33.810313" lon="-118.393867">
  <ele>2.09</ele>
  <time>2026-09-02T22:13:02Z</time>
  <course>0.0</course>
  <speed>0.0</speed>
  <fix>3d</fix>
</trkpt>
<trkpt lat="33.810313" lon="-118.393867">
  <ele>1.004</ele>
  <time>2026-09-02T22:13:02Z</time>
  <course>187.36</course>
  <speed>0.01</speed>
  <fix>3d</fix>
</trkpt>
<trkpt lat="33.810313" lon="-118.393867">
  <ele>2.09</ele>
  <time>2026-09-02T22:13:02Z</time>
  <course>0.0</course>
  <speed>0.0</speed>
  <fix>3d</fix>
</trkpt>
<trkpt lat="33.810313" lon="-118.393867">
  <ele>1.004</ele>
  <time>2026-09-02T22:13:02Z</time>
  <course>187.36</course>
  <speed>0.01</speed>
  <fix>3d</fix>
</trkpt>
<trkpt lat="33.810313" lon="-118.393867">
  <ele>2.1</ele>
  <time>2026-09-02T22:13:02Z</time>
  <course>0.0</course>
  <speed>0.0</speed>
  <fix>3d</fix>
</trkpt>
<trkpt lat="33.810313" lon="-118.393867">
  <ele>1.003</ele>
  <time>2026-09-02T22:13:02Z</time>
  <course>187.35</course>
  <speed>0.01</speed>
  <fix>3d</fix>
</trkpt>
<trkpt lat="33.810313" lon="-118.393867">
  <ele>2.1</ele>
  <time>2026-09-02T22:13:02Z</time>
  <course>0.0</course>
  <speed>0.0</speed>
  <fix>3d</fix>
</trkpt>
<trkpt lat="33.810313" lon="-118.393867">
  <ele>1.003</ele>
  <time>2026-09-02T22:13:02Z</time>
  <course>187.35</course>
  <speed>0.01</speed>
  <fix>3d</fix>
</trkpt>
<trkpt lat="33.810313" lon="-118.393867">
  <ele>2.11</ele>
  <time>2026-09-02T22:13:02Z</time>
  <course>0.0</course>
  <speed>0.0</speed>
  <fix>3d</fix>
</trkpt>
<trkpt lat="33.810313" lon="-118.393867">
  <ele>0.997</ele>
  <time>2026-09-02T22:13:02Z</time>
  <course>187.34</course>
  <speed>0.01414213562373095</speed>
  <fix>3d</fix>
</trkpt>
<trkpt lat="33.810313" lon="-118.393867">
  <ele>2.11</ele>
  <time>2026-09-02T22:13:02Z</time>
  <course>0.0</course>
  <speed>0.0</speed>
  <fix>3d</fix>
</trkpt>
<trkpt lat="33.810313" lon="-118.393867">
  <ele>0.976</ele>
  <time>2026-09-02T22:13:02Z</time>
  <course>187.34</course>
  <speed>0.01414213562373095</speed>
  <fix>3d</fix>
</trkpt>
<trkpt lat="33.810313" lon="-118.393867">
  <ele>2.11</ele>
  <time>2026-09-02T22:13:02Z</time>
  <course>275.0</course>
  <speed>0.0</speed>
  <fix>3d</fix>
</trkpt>
<trkpt lat="33.810313" lon="-118.393867">
  <ele>0.952</ele>
  <time>2026-09-02T22:13:02Z</time>
  <course>187.33</course>
  <speed>0.01414213562373095</speed>
  <fix>3d</fix>
</trkpt>
<trkpt lat="33.810313" lon="-118.393867">
  <ele>2.11</ele>
  <time>2026-09-02T22:13:02Z</time>
  <course>275.0</course>
  <speed>0.0</speed>
  <fix>3d</fix>
</trkpt>
<trkpt lat="33.810313" lon="-118.393867">
  <ele>0.93</ele>
  <time>2026-09-02T22:13:02Z</time>
  <course>187.33</course>
  <speed>0.01414213562373095</speed>
  <fix>3d</fix>
</trkpt>
<trkpt lat="33.810313" lon="-118.393867">
  <ele>2.09</ele>
  <time>2026-09-02T22:13:02Z</time>
  <course>275.0</course>
  <speed>0.0</speed>
  <fix>3d</fix>
</trkpt>
<trkpt lat="33.810313" lon="-118.393867">
  <ele>0.911</ele>
  <time>2026-09-02T22:13:02Z</time>
  <course>187.32</course>
  <speed>0.01414213562373095</speed>
  <fix>3d</fix>
</trkpt>
<trkpt lat="33.810313" lon="-118.393867">
  <ele>2.09</ele>
  <time>2026-09-02T22:13:02Z</time>
  <course>275.0</course>
  <speed>0.0</speed>
  <fix>3d</fix>
</trkpt>
<trkpt lat="33.810313" lon="-118.393867">
  <ele>0.898</ele>
  <time>2026-09-02T22:13:02Z</time>
  <course>187.32</course>
  <speed>0.01414213562373095</speed>
  <fix>3d</fix>
</trkpt>
<trkpt lat="33.810313" lon="-118.393867">
  <ele>2.05</ele>
  <time>2026-09-02T22:13:02Z</time>
  <course>95.0</course>
  <speed>0.0</speed>
  <fix>3d</fix>
</trkpt>
<trkpt lat="33.810313" lon="-118.393867">
  <ele>0.891</ele>
  <time>2026-09-02T22:13:02Z</time>
  <course>187.31</course>
  <speed>0.01414213562373095</speed>
  <fix>3d</fix>
</trkpt>
<trkpt lat="33.810313" lon="-118.393867">
  <ele>2.05</ele>
  <time>2026-09-02T22:13:02Z</time>
  <course>95.0</course>
  <speed>0.0</speed>
  <fix>3d</fix>
</trkpt>
<trkpt lat="33.810313" lon="-118.393867">
  <ele>0.888</ele>
  <time>2026-09-02T22:13:02Z</time>
  <course>187.31</course>
  <speed>0.01414213562373095</speed>
  <fix>3d</fix>
</trkpt>
<trkpt lat="33.810313" lon="-118.393867">
  <ele>2.03</ele>
  <time>2026-09-02T22:13:02Z</time>
  <course>95.0</course>
  <speed>0.0</speed>
  <fix>3d</fix>
</trkpt>
<trkpt lat="33.810313" lon="-118.393867">
  <ele>0.888</ele>
  <time>2026-09-02T22:13:02Z</time>
  <course>187.3</course>
  <speed>0.01414213562373095</speed>
  <fix>3d</fix>
</trkpt>
<trkpt lat="33.810313" lon="-118.393867">
  <ele>2.03</ele>
  <time>2026-09-02T22:13:02Z</time>
  <course>95.0</course>
  <speed>0.0</speed>
  <fix>3d</fix>
</trkpt>
<trkpt lat="33.810313" lon="-118.393867">
  <ele>0.89</ele>
  <time>2026-09-02T22:13:02Z</time>
  <course>187.3</course>
  <speed>0.01414213562373095</speed>
  <fix>3d</fix>
</trkpt>
<trkpt lat="33.810313" lon="-118.393867">
  <ele>2.04</ele>
  <time>2026-09-02T22:13:02Z</time>
  <course>95.0</course>
  <speed>0.0</speed>
  <fix>3d</fix>
</trkpt>
<trkpt lat="33.810313" lon="-118.393867">
  <ele>0.893</ele>
  <time>2026-09-02T22:13:02Z</time>
  <course>187.29</course>
  <speed>0.01414213562373095</speed>
  <fix>3d</fix>
</trkpt>
<trkpt lat="33.810313" lon="-118.393867">
  <ele>2.04</ele>
  <time>2026-09-02T22:13:02Z</time>
  <course>95.0</course>
  <speed>0.0</speed>
  <fix>3d</fix>
</trkpt>
<trkpt lat="33.810313" lon="-118.393867">
  <ele>0.896</ele>
  <time>2026-09-02T22:13:02Z</time>
  <course>187.29</course>
  <speed>0.01414213562373095</speed>
  <fix>3d</fix>
</trkpt>
<trkpt lat="33.810313" lon="-118.393867">
  <ele>2.05</ele>
  <time>2026-09-02T22:13:02Z</time>
  <course>95.0</course>
  <speed>0.0</speed>
  <fix>3d</fix>
</trkpt>
<trkpt lat="33.810313" lon="-118.393867">
  <ele>0.899</ele>
  <time>2026-09-02T22:13:02Z</time>
  <course>187.28</course>
  <speed>0.01414213562373095</speed>
  <fix>3d</fix>
</trkpt>
<trkpt lat="33.810313" lon="-118.393867">
  <ele>2.05</ele>
  <time>2026-09-02T22:13:02Z</time>
  <course>95.0</course>
  <speed>0.0</speed>
  <fix>3d</fix>
</trkpt>
<trkpt lat="33.810313" lon="-118.3938671">
  <ele>0.901</ele>
  <time>2026-09-02T22:13:02Z</time>
  <course>187.28</course>
  <speed>0.01414213562373095</speed>
  <fix>3d</fix>
</trkpt>
<trkpt lat="33.8103178" lon="-118.3938878">
  <ele>2.07</ele>
  <time>2026-09-02T22:13:02Z</time>
  <course>95.0</course>
  <speed>0.0</speed>
  <fix>3d</fix>
</trkpt>
<trkpt lat="33.8103131" lon="-118.3938671">
  <ele>0.903</ele>
  <time>2026-09-02T22:13:02Z</time>
  <course>187.27</course>
  <speed>0.01</speed>
  <fix>3d</fix>
</trkpt>
<trkpt lat="33.8103178" lon="-118.3938878">
  <ele>2.07</ele>
  <time>2026-09-02T22:13:02Z</time>
  <course>95.0</course>
  <speed>0.0</speed>
  <fix>3d</fix>
</trkpt>
<trkpt lat="33.8103131" lon="-118.3938672">
  <ele>0.904</ele>
  <time>2026-09-02T22:13:02Z</time>
  <course>187.26</course>
  <speed>0.0</speed>
  <fix>3d</fix>
</trkpt>
<trkpt lat="33.810316" lon="-118.3938883">
  <ele>2.08</ele>
  <time>2026-09-02T22:13:02Z</time>
  <course>128.42</course>
  <speed>0.0</speed>
  <fix>3d</fix>
</trkpt>
<trkpt lat="33.8103131" lon="-118.3938673">
  <ele>0.905</ele>
  <time>2026-09-02T22:13:02Z</time>
  <course>187.26</course>
  <speed>0.0</speed>
  <fix>3d</fix>
</trkpt>
<trkpt lat="33.810316" lon="-118.3938883">
  <ele>2.08</ele>
  <time>2026-09-02T22:13:02Z</time>
  <course>128.42</course>
  <speed>0.0</speed>
  <fix>3d</fix>
</trkpt>
<trkpt lat="33.8103131" lon="-118.3938675">
  <ele>0.905</ele>
  <time>2026-09-02T22:13:02Z</time>
  <course>187.27</course>
  <speed>0.01</speed>
  <fix>3d</fix>
</trkpt>
<trkpt lat="33.8103143" lon="-118.3938885">
  <ele>2.09</ele>
  <time>2026-09-02T22:13:02Z</time>
  <course>108.22</course>
  <speed>0.01</speed>
  <fix>3d</fix>
</trkpt>
<trkpt lat="33.8103131" lon="-118.3938675">
  <ele>0.904</ele>
  <time>2026-09-02T22:13:02Z</time>
  <course>187.29</course>
  <speed>0.03</speed>
  <fix>3d</fix>
</trkpt>
<trkpt lat="33.8103143" lon="-118.3938885">
  <ele>2.09</ele>
  <time>2026-09-02T22:13:02Z</time>
  <course>108.22</course>
  <speed>0.01</speed>
  <fix>3d</fix>
</trkpt>
<trkpt lat="33.8103131" lon="-118.3938677">
  <ele>0.903</ele>
  <time>2026-09-02T22:13:02Z</time>
  <course>187.3</course>
  <speed>0.04</speed>
  <fix>3d</fix>
</trkpt>
<trkpt lat="33.8103125" lon="-118.3938886">
  <ele>2.09</ele>
  <time>2026-09-02T22:13:02Z</time>
  <course>102.39</course>
  <speed>0.03</speed>
  <fix>3d</fix>
</trkpt>
<trkpt lat="33.8103131" lon="-118.3938678">
  <ele>0.901</ele>
  <time>2026-09-02T22:13:02Z</time>
  <course>187.32</course>
  <speed>0.06</speed>
  <fix>3d</fix>
</trkpt>
<trkpt lat="33.8103125" lon="-118.3938886">
  <ele>2.09</ele>
  <time>2026-09-02T22:13:02Z</time>
  <course>102.39</course>
  <speed>0.03</speed>
  <fix>3d</fix>
</trkpt>
<trkpt lat="33.8103131" lon="-118.3938679">
  <ele>0.9</ele>
  <time>2026-09-02T22:13:02Z</time>
  <course>187.32</course>
  <speed>0.07</speed>
  <fix>3d</fix>
</trkpt>
<trkpt lat="33.8103107" lon="-118.3938883">
  <ele>2.1</ele>
  <time>2026-09-02T22:13:02Z</time>
  <course>98.15</course>
  <speed>0.06</speed>
  <fix>3d</fix>
</trkpt>
<trkpt lat="33.8103131" lon="-118.3938679">
  <ele>0.9</ele>
  <time>2026-09-02T22:13:02Z</time>
  <course>187.32</course>
  <speed>0.08</speed>
  <fix>3d</fix>
</trkpt>
<trkpt lat="33.8103107" lon="-118.3938883">
  <ele>2.1</ele>
  <time>2026-09-02T22:13:02Z</time>
  <course>98.15</course>
  <speed>0.06</speed>
  <fix>3d</fix>
</trkpt>
<trkpt lat="33.8103131" lon="-118.3938679">
  <ele>0.901</ele>
  <time>2026-09-02T22:13:02Z</time>
  <course>187.32</course>
  <speed>0.09</speed>
  <fix>3d</fix>
</trkpt>
<trkpt lat="33.8103089" lon="-118.3938877">
  <ele>2.11</ele>
  <time>2026-09-02T22:13:02Z</time>
  <course>94.31</course>
  <speed>0.09</speed>
  <fix>3d</fix>
</trkpt>
<trkpt lat="33.8103131" lon="-118.393868">
  <ele>0.903</ele>
  <time>2026-09-02T22:13:02Z</time>
  <course>187.32</course>
  <speed>0.1</speed>
  <fix>3d</fix>
</trkpt>
<trkpt lat="33.8103089" lon="-118.3938877">
  <ele>2.11</ele>
  <time>2026-09-02T22:13:02Z</time>
  <course>94.31</course>
  <speed>0.09</speed>
  <fix>3d</fix>
</trkpt>
<trkpt lat="33.8103131" lon="-118.393868">
  <ele>0.905</ele>
  <time>2026-09-02T22:13:02Z</time>
  <course>187.31</course>
  <speed>0.1004987562112089</speed>
  <fix>3d</fix>
</trkpt>
<trkpt lat="33.8103072" lon="-118.3938869">
  <ele>2.12</ele>
  <time>2026-09-02T22:13:02Z</time>
  <course>90.1</course>
  <speed>0.11</speed>
  <fix>3d</fix>
</trkpt>
<trkpt lat="33.8103131" lon="-118.393868">
  <ele>0.905</ele>
  <time>2026-09-02T22:13:02Z</time>
  <course>187.28</course>
  <speed>0.1118033988749895</speed>
  <fix>3d</fix>
</trkpt>
<trkpt lat="33.8103072" lon="-118.3938869">
  <ele>2.12</ele>
  <time>2026-09-02T22:13:02Z</time>
  <course>90.1</course>
  <speed>0.11</speed>
  <fix>3d</fix>
</trkpt>
<trkpt lat="33.810313" lon="-118.393868">
  <ele>0.904</ele>
  <time>2026-09-02T22:13:02Z</time>
  <course>187.27</course>
  <speed>0.1118033988749895</speed>
  <fix>3d</fix>
</trkpt>
<trkpt lat="33.8103055" lon="-118.3938859">
  <ele>2.13</ele>
  <time>2026-09-02T22:13:02Z</time>
  <course>85.04</course>
  <speed>0.12</speed>
  <fix>3d</fix>
</trkpt>
<trkpt lat="33.810313" lon="-118.393868">
  <ele>0.902</ele>
  <time>2026-09-02T22:13:02Z</time>
  <course>187.27</course>
  <speed>0.11401754250991379</speed>
  <fix>3d</fix>
</trkpt>
<trkpt lat="33.8103055" lon="-118.3938859">
  <ele>2.13</ele>
  <time>2026-09-02T22:13:02Z</time>
  <course>85.04</course>
  <speed>0.12</speed>
  <fix>3d</fix>
</trkpt>
<trkpt lat="33.8103129" lon="-118.3938679">
  <ele>0.901</ele>
  <time>2026-09-02T22:13:02Z</time>
  <course>187.28</course>
  <speed>0.11704699910719625</speed>
  <fix>3d</fix>
</trkpt>
<trkpt lat="33.8103039" lon="-118.3938846">
  <ele>2.13</ele>
  <time>2026-09-02T22:13:02Z</time>
  <course>78.95</course>
  <speed>0.13</speed>
  <fix>3d</fix>
</trkpt>
<trkpt lat="33.8103129" lon="-118.3938679">
  <ele>0.9</ele>
  <time>2026-09-02T22:13:02Z</time>
  <course>187.31</course>
  <speed>0.11704699910719625</speed>
  <fix>3d</fix>
</trkpt>
<trkpt lat="33.8103039" lon="-118.3938846">
  <ele>2.13</ele>
  <time>2026-09-02T22:13:02Z</time>
  <course>78.95</course>
  <speed>0.13</speed>
  <fix>3d</fix>
</trkpt>
<trkpt lat="33.8103128" lon="-118.3938679">
  <ele>0.901</ele>
  <time>2026-09-02T22:13:02Z</time>
  <course>187.34</course>
  <speed>0.12083045973594572</speed>
  <fix>3d</fix>
</trkpt>
<trkpt lat="33.8103024" lon="-118.3938832">
  <ele>2.14</ele>
  <time>2026-09-02T22:13:02Z</time>
  <course>73.02</course>
  <speed>0.13</speed>
  <fix>3d</fix>
</trkpt>
<trkpt lat="33.8103128" lon="-118.3938678">
  <ele>0.901</ele>
  <time>2026-09-02T22:13:02Z</time>
  <course>187.37</course>
  <speed>0.12083045973594572</speed>
  <fix>3d</fix>
</trkpt>
<trkpt lat="33.8103024" lon="-118.3938832">
  <ele>2.14</ele>
  <time>2026-09-02T22:13:02Z</time>
  <course>73.02</course>
  <speed>0.13</speed>
  <fix>3d</fix>
</trkpt>
<trkpt lat="33.8103128" lon="-118.3938678">
  <ele>0.901</ele>
  <time>2026-09-02T22:13:02Z</time>
  <course>187.39</course>
  <speed>0.1118033988749895</speed>
  <fix>3d</fix>
</trkpt>
<trkpt lat="33.8103011" lon="-118.3938816">
  <ele>2.14</ele>
  <time>2026-09-02T22:13:02Z</time>
  <course>68.27</course>
  <speed>0.13</speed>
  <fix>3d</fix>
</trkpt>
<trkpt lat="33.8103128" lon="-118.3938677">
  <ele>0.899</ele>
  <time>2026-09-02T22:13:02Z</time>
  <course>187.41</course>
  <speed>0.11661903789690602</speed>
  <fix>3d</fix>
</trkpt>
<trkpt lat="33.8103011" lon="-118.3938816">
  <ele>2.14</ele>
  <time>2026-09-02T22:13:02Z</time>
  <course>68.27</course>
  <speed>0.13</speed>
  <fix>3d</fix>
</trkpt>
<trkpt lat="33.8103128" lon="-118.3938677">
  <ele>0.898</ele>
  <time>2026-09-02T22:13:02Z</time>
  <course>187.41</course>
  <speed>0.10295630140987001</speed>
  <fix>3d</fix>
</trkpt>
<trkpt lat="33.8102999" lon="-118.3938797">
  <ele>2.14</ele>
  <time>2026-09-02T22:13:02Z</time>
  <course>64.76</course>
  <speed>0.13</speed>
  <fix>3d</fix>
</trkpt>
<trkpt lat="33.8103128" lon="-118.3938676">
  <ele>0.898</ele>
  <time>2026-09-02T22:13:02Z</time>
  <course>187.41</course>
  <speed>0.10816653826391968</speed>
  <fix>3d</fix>
</trkpt>
<trkpt lat="33.8102999" lon="-118.3938797">
  <ele>2.14</ele>
  <time>2026-09-02T22:13:02Z</time>
  <course>64.76</course>
  <speed>0.13</speed>
  <fix>3d</fix>
</trkpt>
<trkpt lat="33.8103128" lon="-118.3938676">
  <ele>0.899</ele>
  <time>2026-09-02T22:13:02Z</time>
  <course>187.4</course>
  <speed>0.10816653826391968</speed>
  <fix>3d</fix>
</trkpt>
<trkpt lat="33.8102988" lon="-118.3938778">
  <ele>2.15</ele>
  <time>2026-09-02T22:13:02Z</time>
  <course>62.23</course>
  <speed>0.12</speed>
  <fix>3d</fix>
</trkpt>
<trkpt lat="33.8103127" lon="-118.3938675">
  <ele>0.899</ele>
  <time>2026-09-02T22:13:02Z</time>
  <course>187.37</course>
  <speed>0.1</speed>
  <fix>3d</fix>
</trkpt>
<trkpt lat="33.8102988" lon="-118.3938778">
  <ele>2.15</ele>
  <time>2026-09-02T22:13:02Z</time>
  <course>62.23</course>
  <speed>0.12</speed>
  <fix>3d</fix>
</trkpt>
<trkpt lat="33.8103126" lon="-118.3938675">
  <ele>0.899</ele>
  <time>2026-09-02T22:13:02Z</time>
  <course>187.3</course>
  <speed>0.1</speed>
  <fix>3d</fix>
</trkpt>
<trkpt lat="33.8102979" lon="-118.3938758">
  <ele>2.16</ele>
  <time>2026-09-02T22:13:02Z</time>
  <course>59.28</course>
  <speed>0.11</speed>
  <fix>3d</fix>
</trkpt>
<trkpt lat="33.8103126" lon="-118.3938674">
  <ele>0.898</ele>
  <time>2026-09-02T22:13:02Z</time>
  <course>187.28</course>
  <speed>0.09899494936611665</speed>
  <fix>3d</fix>
</trkpt>
<trkpt lat="33.8102979" lon="-118.3938758">
  <ele>2.16</ele>
  <time>2026-09-02T22:13:02Z</time>
  <course>59.28</course>
  <speed>0.11</speed>
  <fix>3d</fix>
</trkpt>
<trkpt lat="33.8103125" lon="-118.3938674">
  <ele>0.898</ele>
  <time>2026-09-02T22:13:02Z</time>
  <course>187.28</course>
  <speed>0.09219544457292887</speed>
  <fix>3d</fix>
</trkpt>
<trkpt lat="33.8102972" lon="-118.3938737">
  <ele>2.17</ele>
  <time>2026-09-02T22:13:02Z</time>
  <course>53.39</course>
  <speed>0.1</speed>
  <fix>3d</fix>
</trkpt>
<trkpt lat="33.8103125" lon="-118.3938673">
  <ele>0.898</ele>
  <time>2026-09-02T22:13:02Z</time>
  <course>187.28</course>
  <speed>0.09433981132056603</speed>
  <fix>3d</fix>
</trkpt>
<trkpt lat="33.8102972" lon="-118.3938737">
  <ele>2.17</ele>
  <time>2026-09-02T22:13:02Z</time>
  <course>53.39</course>
  <speed>0.1</speed>
  <fix>3d</fix>
</trkpt>
<trkpt lat="33.8103125" lon="-118.3938673">
  <ele>0.898</ele>
  <time>2026-09-02T22:13:02Z</time>
  <course>187.27</course>
  <speed>0.09433981132056603</speed>
  <fix>3d</fix>
</trkpt>
<trkpt lat="33.8102967" lon="-118.3938715">
  <ele>2.17</ele>
  <time>2026-09-02T22:13:02Z</time>
  <course>43.92</course>
  <speed>0.1</speed>
  <fix>3d</fix>
</trkpt>
<trkpt lat="33.8103125" lon="-118.3938672">
  <ele>0.899</ele>
  <time>2026-09-02T22:13:02Z</time>
  <course>187.26</course>
  <speed>0.09848857801796104</speed>
  <fix>3d</fix>
</trkpt>
<trkpt lat="33.8102967" lon="-118.3938715">
  <ele>2.17</ele>
  <time>2026-09-02T22:13:02Z</time>
  <course>43.92</course>
  <speed>0.1</speed>
  <fix>3d</fix>
</trkpt>
<trkpt lat="33.8103125" lon="-118.3938672">
  <ele>0.901</ele>
  <time>2026-09-02T22:13:02Z</time>
  <course>187.25</course>
  <speed>0.09486832980505139</speed>
  <fix>3d</fix>
</trkpt>
<trkpt lat="33.8102963" lon="-118.3938693">
  <ele>2.19</ele>
  <time>2026-09-02T22:13:02Z</time>
  <course>32.87</course>
  <speed>0.09</speed>
  <fix>3d</fix>
</trkpt>
<trkpt lat="33.8103125" lon="-118.3938672">
  <ele>0.902</ele>
  <time>2026-09-02T22:13:02Z</time>
  <course>187.24</course>
  <speed>0.1019803902718557</speed>
  <fix>3d</fix>
</trkpt>
<trkpt lat="33.8102963" lon="-118.3938693">
  <ele>2.19</ele>
  <time>2026-09-02T22:13:02Z</time>
  <course>32.87</course>
  <speed>0.09</speed>
  <fix>3d</fix>
</trkpt>
<trkpt lat="33.8103125" lon="-118.3938671">
  <ele>0.902</ele>
  <time>2026-09-02T22:13:02Z</time>
  <course>187.23</course>
  <speed>0.1019803902718557</speed>
  <fix>3d</fix>
</trkpt>
<trkpt lat="33.8102961" lon="-118.3938671">
  <ele>2.2</ele>
  <time>2026-09-02T22:13:02Z</time>
  <course>22.56</course>
  <speed>0.09</speed>
  <fix>3d</fix>
</trkpt>
<trkpt lat="33.8103125" lon="-118.3938671">
  <ele>0.902</ele>
  <time>2026-09-02T22:13:02Z</time>
  <course>187.23</course>
  <speed>0.1004987562112089</speed>
  <fix>3d</fix>
</trkpt>
<trkpt lat="33.8102961" lon="-118.3938671">
  <ele>2.2</ele>
  <time>2026-09-02T22:13:02Z</time>
  <course>22.56</course>
  <speed>0.09</speed>
  <fix>3d</fix>
</trkpt>
<trkpt lat="33.8103124" lon="-118.393867">
  <ele>0.902</ele>
  <time>2026-09-02T22:13:02Z</time>
  <course>187.23</course>
  <speed>0.11</speed>
  <fix>3d</fix>
</trkpt>
<trkpt lat="33.8102961" lon="-118.3938649">
  <ele>2.2</ele>
  <time>2026-09-02T22:13:02Z</time>
  <course>13.74</course>
  <speed>0.1</speed>
  <fix>3d</fix>
</trkpt>
<trkpt lat="33.8103125" lon="-118.3938669">
  <ele>0.902</ele>
  <time>2026-09-02T22:13:02Z</time>
  <course>187.24</course>
  <speed>0.11</speed>
  <fix>3d</fix>
</trkpt>
<trkpt lat="33.8102961" lon="-118.3938649">
  <ele>2.2</ele>
  <time>2026-09-02T22:13:02Z</time>
  <course>13.74</course>
  <speed>0.1</speed>
  <fix>3d</fix>
</trkpt>
<trkpt lat="33.8103125" lon="-118.3938669">
  <ele>0.901</ele>
  <time>2026-09-02T22:13:02Z</time>
  <course>187.24</course>
  <speed>0.11</speed>
  <fix>3d</fix>
</trkpt>
<trkpt lat="33.8102963" lon="-118.3938627">
  <ele>2.2</ele>
  <time>2026-09-02T22:13:02Z</time>
  <course>6.25</course>
  <speed>0.1</speed>
  <fix>3d</fix>
</trkpt>
<trkpt lat="33.8103125" lon="-118.3938669">
  <ele>0.9</ele>
  <time>2026-09-02T22:13:02Z</time>
  <course>187.24</course>
  <speed>0.11</speed>
  <fix>3d</fix>
</trkpt>
<trkpt lat="33.8102963" lon="-118.3938627">
  <ele>2.2</ele>
  <time>2026-09-02T22:13:02Z</time>
  <course>6.25</course>
  <speed>0.1</speed>
  <fix>3d</fix>
</trkpt>
<trkpt lat="33.8103125" lon="-118.3938669">
  <ele>0.899</ele>
  <time>2026-09-02T22:13:02Z</time>
  <course>187.25</course>
  <speed>0.11045361017187261</speed>
  <fix>3d</fix>
</trkpt>
<trkpt lat="33.8102967" lon="-118.3938605">
  <ele>2.21</ele>
  <time>2026-09-02T22:13:02Z</time>
  <course>359.92</course>
  <speed>0.1</speed>
  <fix>3d</fix>
</trkpt>
<trkpt lat="33.8103125" lon="-118.3938669">
  <ele>0.899</ele>
  <time>2026-09-02T22:13:02Z</time>
  <course>187.25</course>
  <speed>0.11045361017187261</speed>
  <fix>3d</fix>
</trkpt>
<trkpt lat="33.8102967" lon="-118.3938605">
  <ele>2.21</ele>
  <time>2026-09-02T22:13:02Z</time>
  <course>359.92</course>
  <speed>0.1</speed>
  <fix>3d</fix>
</trkpt>
<trkpt lat="33.8103125" lon="-118.3938669">
  <ele>0.9</ele>
  <time>2026-09-02T22:13:02Z</time>
  <course>187.26</course>
  <speed>0.1118033988749895</speed>
  <fix>3d</fix>
</trkpt>
<trkpt lat="33.8102972" lon="-118.3938584">
  <ele>2.22</ele>
  <time>2026-09-02T22:13:02Z</time>
  <course>354.6</course>
  <speed>0.1</speed>
  <fix>3d</fix>
</trkpt>
<trkpt lat="33.8103125" lon="-118.3938669">
  <ele>0.9</ele>
  <time>2026-09-02T22:13:02Z</time>
  <course>187.26</course>
  <speed>0.1118033988749895</speed>
  <fix>3d</fix>
</trkpt>
<trkpt lat="33.8102972" lon="-118.3938584">
  <ele>2.22</ele>
  <time>2026-09-02T22:13:02Z</time>
  <course>354.6</course>
  <speed>0.1</speed>
  <fix>3d</fix>
</trkpt>
<trkpt lat="33.8103125" lon="-118.3938668">
  <ele>0.9</ele>
  <time>2026-09-02T22:13:02Z</time>
  <course>187.26</course>
  <speed>0.1118033988749895</speed>
  <fix>3d</fix>
</trkpt>
<trkpt lat="33.8102979" lon="-118.3938564">
  <ele>2.22</ele>
  <time>2026-09-02T22:13:02Z</time>
  <course>350.15</course>
  <speed>0.1</speed>
  <fix>3d</fix>
</trkpt>
<trkpt lat="33.8103125" lon="-118.3938668">
  <ele>0.899</ele>
  <time>2026-09-02T22:13:02Z</time>
  <course>187.26</course>
  <speed>0.11401754250991379</speed>
  <fix>3d</fix>
</trkpt>
<trkpt lat="33.8102979" lon="-118.3938564">
  <ele>2.22</ele>
  <time>2026-09-02T22:13:02Z</time>
  <course>350.15</course>
  <speed>0.1</speed>
  <fix>3d</fix>
</trkpt>
<trkpt lat="33.8103126" lon="-118.3938667">
  <ele>0.898</ele>
  <time>2026-09-02T22:13:02Z</time>
  <course>187.26</course>
  <speed>0.11401754250991379</speed>
  <fix>3d</fix>
</trkpt>
<trkpt lat="33.8102988" lon="-118.3938544">
  <ele>2.23</ele>
  <time>2026-09-02T22:13:02Z</time>
  <course>346.31</course>
  <speed>0.1</speed>
  <fix>3d</fix>
</trkpt>
<trkpt lat="33.8103126" lon="-118.3938666">
  <ele>0.897</ele>
  <time>2026-09-02T22:13:02Z</time>
  <course>187.26</course>
  <speed>0.11401754250991379</speed>
  <fix>3d</fix>
</trkpt>
<trkpt lat="33.8102988" lon="-118.3938544">
  <ele>2.23</ele>
  <time>2026-09-02T22:13:02Z</time>
  <course>346.31</course>
  <speed>0.1</speed>
  <fix>3d</fix>
</trkpt>
<trkpt lat="33.8103126" lon="-118.3938666">
  <ele>0.896</ele>
  <time>2026-09-02T22:13:02Z</time>
  <course>187.26</course>
  <speed>0.11401754250991379</speed>
  <fix>3d</fix>
</trkpt>
<trkpt lat="33.8102999" lon="-118.3938525">
  <ele>2.24</ele>
  <time>2026-09-02T22:13:02Z</time>
  <course>343.27</course>
  <speed>0.1</speed>
  <fix>3d</fix>
</trkpt>
<trkpt lat="33.8103126" lon="-118.3938666">
  <ele>0.896</ele>
  <time>2026-09-02T22:13:02Z</time>
  <course>187.27</course>
  <speed>0.11704699910719625</speed>
  <fix>3d</fix>
</trkpt>
<trkpt lat="33.8102999" lon="-118.3938525">
  <ele>2.24</ele>
  <time>2026-09-02T22:13:02Z</time>
  <course>343.27</course>
  <speed>0.1</speed>
  <fix>3d</fix>
</trkpt>
<trkpt lat="33.8103127" lon="-118.3938665">
  <ele>0.895</ele>
  <time>2026-09-02T22:13:02Z</time>
  <course>187.33</course>
  <speed>0.10770329614269007</speed>
  <fix>3d</fix>
</trkpt>
<trkpt lat="33.8103011" lon="-118.3938508">
  <ele>2.24</ele>
  <time>2026-09-02T22:13:02Z</time>
  <course>340.23</course>
  <speed>0.1</speed>
  <fix>3d</fix>
</trkpt>
<trkpt lat="33.8103127" lon="-118.3938665">
  <ele>0.896</ele>
  <time>2026-09-02T22:13:02Z</time>
  <course>187.35</course>
  <speed>0.1118033988749895</speed>
  <fix>3d</fix>
</trkpt>
<trkpt lat="33.8103011" lon="-118.3938508">
  <ele>2.24</ele>
  <time>2026-09-02T22:13:02Z</time>
  <course>340.23</course>
  <speed>0.1</speed>
  <fix>3d</fix>
</trkpt>
<trkpt lat="33.8103127" lon="-118.3938665">
  <ele>0.896</ele>
  <time>2026-09-02T22:13:02Z</time>
  <course>187.35</course>
  <speed>0.1118033988749895</speed>
  <fix>3d</fix>
</trkpt>
<trkpt lat="33.8103024" lon="-118.3938493">
  <ele>2.25</ele>
  <time>2026-09-02T22:13:02Z</time>
  <course>334.53</course>
  <speed>0.1</speed>
  <fix>3d</fix>
</trkpt>
<trkpt lat="33.8103127" lon="-118.3938665">
  <ele>0.896</ele>
  <time>2026-09-02T22:13:02Z</time>
  <course>187.34</course>
  <speed>0.10816653826391968</speed>
  <fix>3d</fix>
</trkpt>
<trkpt lat="33.8103024" lon="-118.3938493">
  <ele>2.25</ele>
  <time>2026-09-02T22:13:02Z</time>
  <course>334.53</course>
  <speed>0.1</speed>
  <fix>3d</fix>
</trkpt>
<trkpt lat="33.8103128" lon="-118.3938665">
  <ele>0.897</ele>
  <time>2026-09-02T22:13:02Z</time>
  <course>187.32</course>
  <speed>0.11401754250991379</speed>
  <fix>3d</fix>
</trkpt>
<trkpt lat="33.8103039" lon="-118.3938479">
  <ele>2.26</ele>
  <time>2026-09-02T22:13:02Z</time>
  <course>326.09</course>
  <speed>0.09</speed>
  <fix>3d</fix>
</trkpt>
<trkpt lat="33.8103128" lon="-118.3938665">
  <ele>0.899</ele>
  <time>2026-09-02T22:13:02Z</time>
  <course>187.31</course>
  <speed>0.1063014581273465</speed>
  <fix>3d</fix>
</trkpt>
<trkpt lat="33.8103039" lon="-118.3938479">
  <ele>2.26</ele>
  <time>2026-09-02T22:13:02Z</time>
  <course>326.09</course>
  <speed>0.09</speed>
  <fix>3d</fix>
</trkpt>
<trkpt lat="33.8103128" lon="-118.3938664">
  <ele>0.898</ele>
  <time>2026-09-02T22:13:02Z</time>
  <course>187.3</course>
  <speed>0.1131370849898476</speed>
  <fix>3d</fix>
</trkpt>
<trkpt lat="33.8103054" lon="-118.3938467">
  <ele>2.26</ele>
  <time>2026-09-02T22:13:02Z</time>
  <course>316.82</course>
  <speed>0.09</speed>
  <fix>3d</fix>
</trkpt>
<trkpt lat="33.8103128" lon="-118.3938663">
  <ele>0.898</ele>
  <time>2026-09-02T22:13:02Z</time>
  <course>187.3</course>
  <speed>0.1063014581273465</speed>
  <fix>3d</fix>
</trkpt>
<trkpt lat="33.8103054" lon="-118.3938467">
  <ele>2.26</ele>
  <time>2026-09-02T22:13:02Z</time>
  <course>316.82</course>
  <speed>0.09</speed>
  <fix>3d</fix>
</trkpt>
<trkpt lat="33.8103128" lon="-118.3938663">
  <ele>0.897</ele>
  <time>2026-09-02T22:13:02Z</time>
  <course>187.3</course>
  <speed>0.11401754250991379</speed>
  <fix>3d</fix>
</trkpt>
<trkpt lat="33.8103071" lon="-118.3938457">
  <ele>2.27</ele>
  <time>2026-09-02T22:13:02Z</time>
  <course>307.61</course>
  <speed>0.09</speed>
  <fix>3d</fix>
</trkpt>
<trkpt lat="33.8103129" lon="-118.3938663">
  <ele>0.897</ele>
  <time>2026-09-02T22:13:02Z</time>
  <course>187.31</course>
  <speed>0.10816653826391968</speed>
  <fix>3d</fix>
</trkpt>
<trkpt lat="33.8103071" lon="-118.3938457">
  <ele>2.27</ele>
  <time>2026-09-02T22:13:02Z</time>
  <course>307.61</course>
  <speed>0.09</speed>
  <fix>3d</fix>
</trkpt>
<trkpt lat="33.8103129" lon="-118.3938663">
  <ele>0.897</ele>
  <time>2026-09-02T22:13:02Z</time>
  <course>187.31</course>
  <speed>0.10816653826391968</speed>
  <fix>3d</fix>
</trkpt>
<trkpt lat="33.8103088" lon="-118.3938449">
  <ele>2.28</ele>
  <time>2026-09-02T22:13:02Z</time>
  <course>298.97</course>
  <speed>0.09</speed>
  <fix>3d</fix>
</trkpt>
<trkpt lat="33.8103129" lon="-118.3938663">
  <ele>0.898</ele>
  <time>2026-09-02T22:13:02Z</time>
  <course>187.31</course>
  <speed>0.1118033988749895</speed>
  <fix>3d</fix>
</trkpt>
<trkpt lat="33.8103088" lon="-118.3938449">
  <ele>2.28</ele>
  <time>2026-09-02T22:13:02Z</time>
  <course>298.97</course>
  <speed>0.09</speed>
  <fix>3d</fix>
</trkpt>
<trkpt lat="33.8103129" lon="-118.3938663">
  <ele>0.899</ele>
  <time>2026-09-02T22:13:02Z</time>
  <course>187.3</course>
  <speed>0.1118033988749895</speed>
  <fix>3d</fix>
</trkpt>
<trkpt lat="33.8103105" lon="-118.3938443">
  <ele>2.29</ele>
  <time>2026-09-02T22:13:02Z</time>
  <course>290.97</course>
  <speed>0.09</speed>
  <fix>3d</fix>
</trkpt>
<trkpt lat="33.8103129" lon="-118.3938663">
  <ele>0.901</ele>
  <time>2026-09-02T22:13:02Z</time>
  <course>187.3</course>
  <speed>0.11704699910719625</speed>
  <fix>3d</fix>
</trkpt>
<trkpt lat="33.8103105" lon="-118.3938443">
  <ele>2.29</ele>
  <time>2026-09-02T22:13:02Z</time>
  <course>290.97</course>
  <speed>0.09</speed>
  <fix>3d</fix>
</trkpt>
<trkpt lat="33.8103129" lon="-118.3938663">
  <ele>0.902</ele>
  <time>2026-09-02T22:13:02Z</time>
  <course>187.3</course>
  <speed>0.11704699910719625</speed>
  <fix>3d</fix>
</trkpt>
<trkpt lat="33.8103123" lon="-118.3938439">
  <ele>2.3</ele>
  <time>2026-09-02T22:13:02Z</time>
  <course>283.81</course>
  <speed>0.09</speed>
  <fix>3d</fix>
</trkpt>
<trkpt lat="33.810313" lon="-118.3938663">
  <ele>0.904</ele>
  <time>2026-09-02T22:13:02Z</time>
  <course>187.3</course>
  <speed>0.11704699910719625</speed>
  <fix>3d</fix>
</trkpt>
<trkpt lat="33.8103123" lon="-118.3938439">
  <ele>2.3</ele>
  <time>2026-09-02T22:13:02Z</time>
  <course>283.81</course>
  <speed>0.09</speed>
  <fix>3d</fix>
</trkpt>
<trkpt lat="33.810313" lon="-118.3938663">
  <ele>0.905</ele>
  <time>2026-09-02T22:13:02Z</time>
  <course>187.31</course>
  <speed>0.11401754250991379</speed>
  <fix>3d</fix>
</trkpt>
<trkpt lat="33.8103141" lon="-118.3938438">
  <ele>2.31</ele>
  <time>2026-09-02T22:13:02Z</time>
  <course>277.68</course>
  <speed>0.1</speed>
  <fix>3d</fix>
</trkpt>
<trkpt lat="33.810313" lon="-118.3938663">
  <ele>0.905</ele>
  <time>2026-09-02T22:13:02Z</time>
  <course>187.3</course>
  <speed>0.11401754250991379</speed>
  <fix>3d</fix>
</trkpt>
<trkpt lat="33.8103141" lon="-118.3938438">
  <ele>2.31</ele>
  <time>2026-09-02T22:13:02Z</time>
  <course>277.68</course>
  <speed>0.1</speed>
  <fix>3d</fix>
</trkpt>
<trkpt lat="33.810313" lon="-118.3938663">
  <ele>0.904</ele>
  <time>2026-09-02T22:13:02Z</time>
  <course>187.3</course>
  <speed>0.1118033988749895</speed>
  <fix>3d</fix>
</trkpt>
<trkpt lat="33.8103159" lon="-118.3938438">
  <ele>2.31</ele>
  <time>2026-09-02T22:13:02Z</time>
  <course>272.07</course>
  <speed>0.1</speed>
  <fix>3d</fix>
</trkpt>
<trkpt lat="33.810313" lon="-118.3938663">
  <ele>0.902</ele>
  <time>2026-09-02T22:13:02Z</time>
  <course>187.29</course>
  <speed>0.1118033988749895</speed>
  <fix>3d</fix>
</trkpt>
<trkpt lat="33.8103159" lon="-118.3938438">
  <ele>2.31</ele>
  <time>2026-09-02T22:13:02Z</time>
  <course>272.07</course>
  <speed>0.1</speed>
  <fix>3d</fix>
</trkpt>
<trkpt lat="33.810313" lon="-118.3938663">
  <ele>0.9</ele>
  <time>2026-09-02T22:13:02Z</time>
  <course>187.31</course>
  <speed>0.1118033988749895</speed>
  <fix>3d</fix>
</trkpt>
<trkpt lat="33.8103177" lon="-118.3938442">
  <ele>2.32</ele>
  <time>2026-09-02T22:13:02Z</time>
  <course>266.98</course>
  <speed>0.1</speed>
  <fix>3d</fix>
</trkpt>
<trkpt lat="33.810313" lon="-118.3938663">
  <ele>0.899</ele>
  <time>2026-09-02T22:13:02Z</time>
  <course>187.31</course>
  <speed>0.11045361017187261</speed>
  <fix>3d</fix>
</trkpt>
<trkpt lat="33.8103177" lon="-118.3938442">
  <ele>2.32</ele>
  <time>2026-09-02T22:13:02Z</time>
  <course>266.98</course>
  <speed>0.1</speed>
  <fix>3d</fix>
</trkpt>
<trkpt lat="33.810313" lon="-118.3938663">
  <ele>0.899</ele>
  <time>2026-09-02T22:13:02Z</time>
  <course>187.33</course>
  <speed>0.11045361017187261</speed>
  <fix>3d</fix>
</trkpt>
<trkpt lat="33.8103195" lon="-118.3938447">
  <ele>2.32</ele>
  <time>2026-09-02T22:13:02Z</time>
  <course>262.29</course>
  <speed>0.1</speed>
  <fix>3d</fix>
</trkpt>
<trkpt lat="33.8103131" lon="-118.3938663">
  <ele>0.898</ele>
  <time>2026-09-02T22:13:02Z</time>
  <course>187.36</course>
  <speed>0.11</speed>
  <fix>3d</fix>
</trkpt>
<trkpt lat="33.8103195" lon="-118.3938447">
  <ele>2.32</ele>
  <time>2026-09-02T22:13:02Z</time>
  <course>262.29</course>
  <speed>0.1</speed>
  <fix>3d</fix>
</trkpt>
<trkpt lat="33.8103131" lon="-118.3938663">
  <ele>0.897</ele>
  <time>2026-09-02T22:13:02Z</time>
  <course>187.38</course>
  <speed>0.11</speed>
  <fix>3d</fix>
</trkpt>
<trkpt lat="33.8103212" lon="-118.3938454">
  <ele>2.32</ele>
  <time>2026-09-02T22:13:02Z</time>
  <course>257.92</course>
  <speed>0.1</speed>
  <fix>3d</fix>
</trkpt>
<trkpt lat="33.8103131" lon="-118.3938663">
  <ele>0.896</ele>
  <time>2026-09-02T22:13:02Z</time>
  <course>187.39</course>
  <speed>0.11</speed>
  <fix>3d</fix>
</trkpt>
<trkpt lat="33.8103212" lon="-118.3938454">
  <ele>2.32</ele>
  <time>2026-09-02T22:13:02Z</time>
  <course>257.92</course>
  <speed>0.1</speed>
  <fix>3d</fix>
</trkpt>
<trkpt lat="33.8103131" lon="-118.3938663">
  <ele>0.897</ele>
  <time>2026-09-02T22:13:02Z</time>
  <course>187.4</course>
  <speed>0.11</speed>
  <fix>3d</fix>
</trkpt>
<trkpt lat="33.8103229" lon="-118.3938463">
  <ele>2.33</ele>
  <time>2026-09-02T22:13:02Z</time>
  <course>253.95</course>
  <speed>0.1</speed>
  <fix>3d</fix>
</trkpt>
<trkpt lat="33.8103132" lon="-118.3938663">
  <ele>0.897</ele>
  <time>2026-09-02T22:13:02Z</time>
  <course>187.4</course>
  <speed>0.11</speed>
  <fix>3d</fix>
</trkpt>
<trkpt lat="33.8103229" lon="-118.3938463">
  <ele>2.33</ele>
  <time>2026-09-02T22:13:02Z</time>
  <course>253.95</course>
  <speed>0.1</speed>
  <fix>3d</fix>
</trkpt>
<trkpt lat="33.8103132" lon="-118.3938664">
  <ele>0.897</ele>
  <time>2026-09-02T22:13:02Z</time>
  <course>187.41</course>
  <speed>0.11</speed>
  <fix>3d</fix>
</trkpt>
<trkpt lat="33.8103245" lon="-118.3938474">
  <ele>2.34</ele>
  <time>2026-09-02T22:13:02Z</time>
  <course>250.29</course>
  <speed>0.1</speed>
  <fix>3d</fix>
</trkpt>
<trkpt lat="33.8103133" lon="-118.3938664">
  <ele>0.898</ele>
  <time>2026-09-02T22:13:02Z</time>
  <course>187.41</course>
  <speed>0.11</speed>
  <fix>3d</fix>
</trkpt>
<trkpt lat="33.8103245" lon="-118.3938474">
  <ele>2.34</ele>
  <time>2026-09-02T22:13:02Z</time>
  <course>250.29</course>
  <speed>0.1</speed>
  <fix>3d</fix>
</trkpt>
<trkpt lat="33.8103133" lon="-118.3938664">
  <ele>0.898</ele>
  <time>2026-09-02T22:13:02Z</time>
  <course>187.41</course>
  <speed>0.11</speed>
  <fix>3d</fix>
</trkpt>
<trkpt lat="33.810326" lon="-118.3938487">
  <ele>2.34</ele>
  <time>2026-09-02T22:13:02Z</time>
  <course>247.08</course>
  <speed>0.1</speed>
  <fix>3d</fix>
</trkpt>
<trkpt lat="33.8103133" lon="-118.3938664">
  <ele>0.898</ele>
  <time>2026-09-02T22:13:02Z</time>
  <course>187.4</course>
  <speed>0.11</speed>
  <fix>3d</fix>
</trkpt>
<trkpt lat="33.810326" lon="-118.3938487">
  <ele>2.34</ele>
  <time>2026-09-02T22:13:02Z</time>
  <course>247.08</course>
  <speed>0.1</speed>
  <fix>3d</fix>
</trkpt>
<trkpt lat="33.8103133" lon="-118.3938665">
  <ele>0.897</ele>
  <time>2026-09-02T22:13:02Z</time>
  <course>187.39</course>
  <speed>0.11</speed>
  <fix>3d</fix>
</trkpt>
<trkpt lat="33.8103274" lon="-118.3938502">
  <ele>2.35</ele>
  <time>2026-09-02T22:13:02Z</time>
  <course>244.31</course>
  <speed>0.1</speed>
  <fix>3d</fix>
</trkpt>
<trkpt lat="33.8103133" lon="-118.3938665">
  <ele>0.896</ele>
  <time>2026-09-02T22:13:02Z</time>
  <course>187.38</course>
  <speed>0.11045361017187261</speed>
  <fix>3d</fix>
</trkpt>
<trkpt lat="33.8103274" lon="-118.3938502">
  <ele>2.35</ele>
  <time>2026-09-02T22:13:02Z</time>
  <course>244.31</course>
  <speed>0.1</speed>
  <fix>3d</fix>
</trkpt>
<trkpt lat="33.8103133" lon="-118.3938665">
  <ele>0.895</ele>
  <time>2026-09-02T22:13:02Z</time>
  <course>187.37</course>
  <speed>0.11</speed>
  <fix>3d</fix>
</trkpt>
<trkpt lat="33.8103286" lon="-118.3938519">
  <ele>2.35</ele>
  <time>2026-09-02T22:13:02Z</time>
  <course>241.96</course>
  <speed>0.1</speed>
  <fix>3d</fix>
</trkpt>
<trkpt lat="33.8103133" lon="-118.3938666">
  <ele>0.896</ele>
  <time>2026-09-02T22:13:02Z</time>
  <course>187.37</course>
  <speed>0.11045361017187261</speed>
  <fix>3d</fix>
</trkpt>
<trkpt lat="33.8103286" lon="-118.3938519">
  <ele>2.35</ele>
  <time>2026-09-02T22:13:02Z</time>
  <course>241.96</course>
  <speed>0.1</speed>
  <fix>3d</fix>
</trkpt>
<trkpt lat="33.8103134" lon="-118.3938666">
  <ele>0.898</ele>
  <time>2026-09-02T22:13:02Z</time>
  <course>187.32</course>
  <speed>0.1004987562112089</speed>
  <fix>3d</fix>
</trkpt>
<trkpt lat="33.8103297" lon="-118.3938537">
  <ele>2.36</ele>
  <time>2026-09-02T22:13:02Z</time>
  <course>239.7</course>
  <speed>0.1</speed>
  <fix>3d</fix>
</trkpt>
<trkpt lat="33.8103135" lon="-118.3938666">
  <ele>0.899</ele>
  <time>2026-09-02T22:13:02Z</time>
  <course>187.3</course>
  <speed>0.1004987562112089</speed>
  <fix>3d</fix>
</trkpt>
<trkpt lat="33.8103297" lon="-118.3938537">
  <ele>2.36</ele>
  <time>2026-09-02T22:13:02Z</time>
  <course>239.7</course>
  <speed>0.1</speed>
  <fix>3d</fix>
</trkpt>
<trkpt lat="33.8103135" lon="-118.3938666">
  <ele>0.9</ele>
  <time>2026-09-02T22:13:02Z</time>
  <course>187.29</course>
  <speed>0.09219544457292887</speed>
  <fix>3d</fix>
</trkpt>
<trkpt lat="33.8103307" lon="-118.3938556">
  <ele>2.37</ele>
  <time>2026-09-02T22:13:02Z</time>
  <course>234.99</course>
  <speed>0.09</speed>
  <fix>3d</fix>
</trkpt>
<trkpt lat="33.8103135" lon="-118.3938667">
  <ele>0.901</ele>
  <time>2026-09-02T22:13:02Z</time>
  <course>187.31</course>
  <speed>0.09219544457292887</speed>
  <fix>3d</fix>
</trkpt>
<trkpt lat="33.8103307" lon="-118.3938556">
  <ele>2.37</ele>
  <time>2026-09-02T22:13:02Z</time>
  <course>234.99</course>
  <speed>0.09</speed>
  <fix>3d</fix>
</trkpt>
<trkpt lat="33.8103135" lon="-118.3938667">
  <ele>0.903</ele>
  <time>2026-09-02T22:13:02Z</time>
  <course>187.32</course>
  <speed>0.0854400374531753</speed>
  <fix>3d</fix>
</trkpt>
<trkpt lat="33.8103315" lon="-118.3938576">
  <ele>2.38</ele>
  <time>2026-09-02T22:13:02Z</time>
  <course>227.25</course>
  <speed>0.09</speed>
  <fix>3d</fix>
</trkpt>
<trkpt lat="33.8103135" lon="-118.3938667">
  <ele>0.905</ele>
  <time>2026-09-02T22:13:02Z</time>
  <course>187.34</course>
  <speed>0.0854400374531753</speed>
  <fix>3d</fix>
</trkpt>
<trkpt lat="33.8103315" lon="-118.3938576">
  <ele>2.38</ele>
  <time>2026-09-02T22:13:02Z</time>
  <course>227.25</course>
  <speed>0.09</speed>
  <fix>3d</fix>
</trkpt>
<trkpt lat="33.8103135" lon="-118.3938668">
  <ele>0.906</ele>
  <time>2026-09-02T22:13:02Z</time>
  <course>187.35</course>
  <speed>0.07615773105863909</speed>
  <fix>3d</fix>
</trkpt>
<trkpt lat="33.8103322" lon="-118.3938597">
  <ele>2.39</ele>
  <time>2026-09-02T22:13:02Z</time>
  <course>218.84</course>
  <speed>0.09</speed>
  <fix>3d</fix>
</trkpt>
<trkpt lat="33.8103135" lon="-118.3938668">
  <ele>0.906</ele>
  <time>2026-09-02T22:13:02Z</time>
  <course>187.35</course>
  <speed>0.08062257748298549</speed>
  <fix>3d</fix>
</trkpt>
<trkpt lat="33.8103322" lon="-118.3938597">
  <ele>2.39</ele>
  <time>2026-09-02T22:13:02Z</time>
  <course>218.84</course>
  <speed>0.09</speed>
  <fix>3d</fix>
</trkpt>
<trkpt lat="33.8103135" lon="-118.3938668">
  <ele>0.905</ele>
  <time>2026-09-02T22:13:02Z</time>
  <course>187.34</course>
  <speed>0.07211102550927978</speed>
  <fix>3d</fix>
</trkpt>
<trkpt lat="33.8103326" lon="-118.3938619">
  <ele>2.39</ele>
  <time>2026-09-02T22:13:02Z</time>
  <course>210.8</course>
  <speed>0.09</speed>
  <fix>3d</fix>
</trkpt>
<trkpt lat="33.8103135" lon="-118.3938668">
  <ele>0.903</ele>
  <time>2026-09-02T22:13:02Z</time>
  <course>187.32</course>
  <speed>0.07211102550927978</speed>
  <fix>3d</fix>
</trkpt>
<trkpt lat="33.8103326" lon="-118.3938619">
  <ele>2.39</ele>
  <time>2026-09-02T22:13:02Z</time>
  <course>210.8</course>
  <speed>0.09</speed>
  <fix>3d</fix>
</trkpt>
<trkpt lat="33.8103135" lon="-118.3938669">
  <ele>0.901</ele>
  <time>2026-09-02T22:13:02Z</time>
  <course>187.29</course>
  <speed>0.06403124237432849</speed>
  <fix>3d</fix>
</trkpt>
<trkpt lat="33.8103329" lon="-118.3938641">
  <ele>2.39</ele>
  <time>2026-09-02T22:13:02Z</time>
  <course>203.04</course>
  <speed>0.09</speed>
  <fix>3d</fix>
</trkpt>
<trkpt lat="33.8103136" lon="-118.3938669">
  <ele>0.9</ele>
  <time>2026-09-02T22:13:02Z</time>
  <course>187.27</course>
  <speed>0.06403124237432849</speed>
  <fix>3d</fix>
</trkpt>
<trkpt lat="33.8103329" lon="-118.3938641">
  <ele>2.39</ele>
  <time>2026-09-02T22:13:02Z</time>
  <course>203.04</course>
  <speed>0.09</speed>
  <fix>3d</fix>
</trkpt>
<trkpt lat="33.8103136" lon="-118.3938669">
  <ele>0.899</ele>
  <time>2026-09-02T22:13:02Z</time>
  <course>187.24</course>
  <speed>0.06403124237432849</speed>
  <fix>3d</fix>
</trkpt>
<trkpt lat="33.810333" lon="-118.3938663">
  <ele>2.4</ele>
  <time>2026-09-02T22:13:02Z</time>
  <course>195.72</course>
  <speed>0.09</speed>
  <fix>3d</fix>
</trkpt>
<trkpt lat="33.8103136" lon="-118.3938669">
  <ele>0.899</ele>
  <time>2026-09-02T22:13:02Z</time>
  <course>187.23</course>
  <speed>0.06403124237432849</speed>
  <fix>3d</fix>
</trkpt>
<trkpt lat="33.810333" lon="-118.3938663">
  <ele>2.4</ele>
  <time>2026-09-02T22:13:02Z</time>
  <course>195.72</course>
  <speed>0.09</speed>
  <fix>3d</fix>
</trkpt>
<trkpt lat="33.8103136" lon="-118.3938669">
  <ele>0.897</ele>
  <time>2026-09-02T22:13:02Z</time>
  <course>187.23</course>
  <speed>0.06403124237432849</speed>
  <fix>3d</fix>
</trkpt>
<trkpt lat="33.8103329" lon="-118.3938685">
  <ele>2.4</ele>
  <time>2026-09-02T22:13:02Z</time>
  <course>189.24</course>
  <speed>0.09</speed>
  <fix>3d</fix>
</trkpt>
<trkpt lat="33.8103136" lon="-118.3938669">
  <ele>0.892</ele>
  <time>2026-09-02T22:13:02Z</time>
  <course>187.24</course>
  <speed>0.05830951894845301</speed>
  <fix>3d</fix>
</trkpt>
<trkpt lat="33.8103329" lon="-118.3938685">
  <ele>2.4</ele>
  <time>2026-09-02T22:13:02Z</time>
  <course>189.24</course>
  <speed>0.09</speed>
  <fix>3d</fix>
</trkpt>
<trkpt lat="33.8103136" lon="-118.393867">
  <ele>0.875</ele>
  <time>2026-09-02T22:13:02Z</time>
  <course>187.25</course>
  <speed>0.05830951894845301</speed>
  <fix>3d</fix>
</trkpt>
<trkpt lat="33.8103326" lon="-118.3938706">
  <ele>2.4</ele>
  <time>2026-09-02T22:13:02Z</time>
  <course>184.21</course>
  <speed>0.09</speed>
  <fix>3d</fix>
</trkpt>
<trkpt lat="33.8103135" lon="-118.393867">
  <ele>0.838</ele>
  <time>2026-09-02T22:13:02Z</time>
  <course>187.26</course>
  <speed>0.05830951894845301</speed>
  <fix>3d</fix>
</trkpt>
<trkpt lat="33.8103326" lon="-118.3938706">
  <ele>2.4</ele>
  <time>2026-09-02T22:13:02Z</time>
  <course>184.21</course>
  <speed>0.09</speed>
  <fix>3d</fix>
</trkpt>
<trkpt lat="33.8103135" lon="-118.393867">
  <ele>0.837</ele>
  <time>2026-09-02T22:13:02Z</time>
  <course>187.26</course>
  <speed>0.05830951894845301</speed>
  <fix>3d</fix>
</trkpt>
<trkpt lat="33.8103135" lon="-118.393867">
  <ele>0.783</ele>
  <time>2026-09-02T22:13:02Z</time>
  <course>187.27</course>
  <speed>0.05830951894845301</speed>
  <fix>3d</fix>
</trkpt>
<trkpt lat="33.8103321" lon="-118.3938728">
  <ele>2.37</ele>
  <time>2026-09-02T22:13:02Z</time>
  <course>180.9</course>
  <speed>0.09</speed>
  <fix>3d</fix>
</trkpt>
<trkpt lat="33.8103135" lon="-118.393867">
  <ele>0.782</ele>
  <time>2026-09-02T22:13:02Z</time>
  <course>187.27</course>
  <speed>0.05830951894845301</speed>
  <fix>3d</fix>
</trkpt>
<trkpt lat="33.8103135" lon="-118.393867">
  <ele>0.715</ele>
  <time>2026-09-02T22:13:02Z</time>
  <course>187.27</course>
  <speed>0.053851648071345036</speed>
  <fix>3d</fix>
</trkpt>
<trkpt lat="33.8103321" lon="-118.3938728">
  <ele>2.37</ele>
  <time>2026-09-02T22:13:02Z</time>
  <course>180.9</course>
  <speed>0.09</speed>
  <fix>3d</fix>
</trkpt>
<trkpt lat="33.8103135" lon="-118.393867">
  <ele>0.714</ele>
  <time>2026-09-02T22:13:02Z</time>
  <course>187.27</course>
  <speed>0.053851648071345036</speed>
  <fix>3d</fix>
</trkpt>
<trkpt lat="33.8103135" lon="-118.393867">
  <ele>0.638</ele>
  <time>2026-09-02T22:13:02Z</time>
  <course>187.27</course>
  <speed>0.053851648071345036</speed>
  <fix>3d</fix>
</trkpt>
<trkpt lat="33.8103315" lon="-118.3938748">
  <ele>2.28</ele>
  <time>2026-09-02T22:13:02Z</time>
  <course>178.17</course>
  <speed>0.09</speed>
  <fix>3d</fix>
</trkpt>
<trkpt lat="33.8103135" lon="-118.393867">
  <ele>0.634</ele>
  <time>2026-09-02T22:13:02Z</time>
  <course>187.27</course>
  <speed>0.053851648071345036</speed>
  <fix>3d</fix>
</trkpt>
<trkpt lat="33.8103135" lon="-118.3938672">
  <ele>0.554</ele>
  <time>2026-09-02T22:13:02Z</time>
  <course>187.27</course>
  <speed>0.053851648071345036</speed>
  <fix>3d</fix>
</trkpt>
<trkpt lat="33.8103315" lon="-118.3938748">
  <ele>2.28</ele>
  <time>2026-09-02T22:13:02Z</time>
  <course>178.17</course>
  <speed>0.09</speed>
  <fix>3d</fix>
</trkpt>
<trkpt lat="33.8103135" lon="-118.3938672">
  <ele>0.552</ele>
  <time>2026-09-02T22:13:02Z</time>
  <course>187.27</course>
  <speed>0.053851648071345036</speed>
  <fix>3d</fix>
</trkpt>
<trkpt lat="33.8103135" lon="-118.3938672">
  <ele>0.467</ele>
  <time>2026-09-02T22:13:02Z</time>
  <course>187.27</course>
  <speed>0.053851648071345036</speed>
  <fix>3d</fix>
</trkpt>
<trkpt lat="33.8103307" lon="-118.3938769">
  <ele>2.15</ele>
  <time>2026-09-02T22:13:02Z</time>
  <course>175.39</course>
  <speed>0.08</speed>
  <fix>3d</fix>
</trkpt>
<trkpt lat="33.8103135" lon="-118.3938672">
  <ele>0.464</ele>
  <time>2026-09-02T22:13:02Z</time>
  <course>187.27</course>
  <speed>0.053851648071345036</speed>
  <fix>3d</fix>
</trkpt>
<trkpt lat="33.8103135" lon="-118.3938672">
  <ele>0.375</ele>
  <time>2026-09-02T22:13:02Z</time>
  <course>185.16</course>
  <speed>0.05099019513592785</speed>
  <fix>3d</fix>
</trkpt>
<trkpt lat="33.8103307" lon="-118.3938769">
  <ele>2.15</ele>
  <time>2026-09-02T22:13:02Z</time>
  <course>175.39</course>
  <speed>0.08</speed>
  <fix>3d</fix>
</trkpt>
<trkpt lat="33.8103135" lon="-118.3938672">
  <ele>0.372</ele>
  <time>2026-09-02T22:13:02Z</time>
  <course>185.16</course>
  <speed>0.05099019513592785</speed>
  <fix>3d</fix>
</trkpt>
<trkpt lat="33.8103135" lon="-118.3938672">
  <ele>0.282</ele>
  <time>2026-09-02T22:13:02Z</time>
  <course>185.22</course>
  <speed>0.05099019513592785</speed>
  <fix>3d</fix>
</trkpt>
<trkpt lat="33.8103297" lon="-118.3938788">
  <ele>2.0</ele>
  <time>2026-09-02T22:13:02Z</time>
  <course>172.46</course>
  <speed>0.08</speed>
  <fix>3d</fix>
</trkpt>
<trkpt lat="33.8103135" lon="-118.3938672">
  <ele>0.279</ele>
  <time>2026-09-02T22:13:02Z</time>
  <course>185.22</course>
  <speed>0.05099019513592785</speed>
  <fix>3d</fix>
</trkpt>
<trkpt lat="33.8103134" lon="-118.3938672">
  <ele>0.187</ele>
  <time>2026-09-02T22:13:02Z</time>
  <course>185.46</course>
  <speed>0.05099019513592785</speed>
  <fix>3d</fix>
</trkpt>
<trkpt lat="33.8103297" lon="-118.3938788">
  <ele>2.0</ele>
  <time>2026-09-02T22:13:02Z</time>
  <course>172.46</course>
  <speed>0.08</speed>
  <fix>3d</fix>
</trkpt>
<trkpt lat="33.8103134" lon="-118.3938672">
  <ele>0.184</ele>
  <time>2026-09-02T22:13:02Z</time>
  <course>185.47</course>
  <speed>0.05099019513592785</speed>
  <fix>3d</fix>
</trkpt>
<trkpt lat="33.8103134" lon="-118.3938672">
  <ele>0.091</ele>
  <time>2026-09-02T22:13:02Z</time>
  <course>185.86</course>
  <speed>0.05099019513592785</speed>
  <fix>3d</fix>
</trkpt>
<trkpt lat="33.8103286" lon="-118.3938806">
  <ele>1.83</ele>
  <time>2026-09-02T22:13:02Z</time>
  <course>169.13</course>
  <speed>0.09</speed>
  <fix>3d</fix>
</trkpt>
<trkpt lat="33.8103134" lon="-118.3938672">
  <ele>0.088</ele>
  <time>2026-09-02T22:13:02Z</time>
  <course>185.88</course>
  <speed>0.05099019513592785</speed>
  <fix>3d</fix>
</trkpt>
<trkpt lat="33.8103134" lon="-118.3938672">
  <ele>-0.005</ele>
  <time>2026-09-02T22:13:02Z</time>
  <course>186.35</course>
  <speed>0.05</speed>
  <fix>3d</fix>
</trkpt>
<trkpt lat="33.8103286" lon="-118.3938806">
  <ele>1.83</ele>
  <time>2026-09-02T22:13:02Z</time>
  <course>169.13</course>
  <speed>0.09</speed>
  <fix>3d</fix>
</trkpt>
<trkpt lat="33.8103134" lon="-118.3938672">
  <ele>-0.007</ele>
  <time>2026-09-02T22:13:02Z</time>
  <course>186.37</course>
  <speed>0.05</speed>
  <fix>3d</fix>
</trkpt>
<trkpt lat="33.8103134" lon="-118.3938673">
  <ele>-0.102</ele>
  <time>2026-09-02T22:13:02Z</time>
  <course>186.84</course>
  <speed>0.04</speed>
  <fix>3d</fix>
</trkpt>
<trkpt lat="33.8103273" lon="-118.3938823">
  <ele>1.65</ele>
  <time>2026-09-02T22:13:02Z</time>
  <course>166.16</course>
  <speed>0.09</speed>
  <fix>3d</fix>
</trkpt>
<trkpt lat="33.8103134" lon="-118.3938673">
  <ele>-0.105</ele>
  <time>2026-09-02T22:13:02Z</time>
  <course>186.86</course>
  <speed>0.04</speed>
  <fix>3d</fix>
</trkpt>
<trkpt lat="33.8103134" lon="-118.3938673">
  <ele>-0.2</ele>
  <time>2026-09-02T22:13:02Z</time>
  <course>187.23</course>
  <speed>0.04</speed>
  <fix>3d</fix>
</trkpt>
<trkpt lat="33.8103273" lon="-118.3938823">
  <ele>1.65</ele>
  <time>2026-09-02T22:13:02Z</time>
  <course>166.16</course>
  <speed>0.09</speed>
  <fix>3d</fix>
</trkpt>
<trkpt lat="33.8103134" lon="-118.3938673">
  <ele>-0.203</ele>
  <time>2026-09-02T22:13:02Z</time>
  <course>187.23</course>
  <speed>0.04</speed>
  <fix>3d</fix>
</trkpt>
<trkpt lat="33.8103133" lon="-118.3938673">
  <ele>-0.299</ele>
  <time>2026-09-02T22:13:02Z</time>
  <course>187.43</course>
  <speed>0.04</speed>
  <fix>3d</fix>
</trkpt>
<trkpt lat="33.8103259" lon="-118.3938839">
  <ele>1.48</ele>
  <time>2026-09-02T22:13:02Z</time>
  <course>163.68</course>
  <speed>0.09</speed>
  <fix>3d</fix>
</trkpt>
<trkpt lat="33.8103133" lon="-118.3938673">
  <ele>-0.302</ele>
  <time>2026-09-02T22:13:02Z</time>
  <course>187.43</course>
  <speed>0.04</speed>
  <fix>3d</fix>
</trkpt>
<trkpt lat="33.8103133" lon="-118.3938674">
  <ele>-0.399</ele>
  <time>2026-09-02T22:13:02Z</time>
  <course>187.49</course>
  <speed>0.04</speed>
  <fix>3d</fix>
</trkpt>
<trkpt lat="33.8103259" lon="-118.3938839">
  <ele>1.48</ele>
  <time>2026-09-02T22:13:02Z</time>
  <course>163.68</course>
  <speed>0.09</speed>
  <fix>3d</fix>
</trkpt>
<trkpt lat="33.8103133" lon="-118.3938674">
  <ele>-0.404</ele>
  <time>2026-09-02T22:13:02Z</time>
  <course>187.49</course>
  <speed>0.04</speed>
  <fix>3d</fix>
</trkpt>
<trkpt lat="33.8103133" lon="-118.3938675">
  <ele>-0.498</ele>
  <time>2026-09-02T22:13:02Z</time>
  <course>187.5</course>
  <speed>0.03</speed>
  <fix>3d</fix>
</trkpt>
<trkpt lat="33.8103244" lon="-118.3938852">
  <ele>1.3</ele>
  <time>2026-09-02T22:13:02Z</time>
  <course>158.73</course>
  <speed>0.08</speed>
  <fix>3d</fix>
</trkpt>
<trkpt lat="33.8103133" lon="-118.3938675">
  <ele>-0.501</ele>
  <time>2026-09-02T22:13:02Z</time>
  <course>187.5</course>
  <speed>0.03</speed>
  <fix>3d</fix>
</trkpt>
<trkpt lat="33.8103133" lon="-118.3938675">
  <ele>-0.597</ele>
  <time>2026-09-02T22:13:02Z</time>
  <course>187.45</course>
  <speed>0.0316227766016838</speed>
  <fix>3d</fix>
</trkpt>
<trkpt lat="33.8103244" lon="-118.3938852">
  <ele>1.3</ele>
  <time>2026-09-02T22:13:02Z</time>
  <course>158.73</course>
  <speed>0.08</speed>
  <fix>3d</fix>
</trkpt>
<trkpt lat="33.8103133" lon="-118.3938675">
  <ele>-0.6</ele>
  <time>2026-09-02T22:13:02Z</time>
  <course>187.45</course>
  <speed>0.0316227766016838</speed>
  <fix>3d</fix>
</trkpt>
<trkpt lat="33.8103132" lon="-118.3938675">
  <ele>-0.695</ele>
  <time>2026-09-02T22:13:02Z</time>
  <course>187.39</course>
  <speed>0.022360679774997897</speed>
  <fix>3d</fix>
</trkpt>
<trkpt lat="33.8103228" lon="-118.3938864">
  <ele>1.12</ele>
  <time>2026-09-02T22:13:02Z</time>
  <course>150.47</course>
  <speed>0.08</speed>
  <fix>3d</fix>
</trkpt>
<trkpt lat="33.8103132" lon="-118.3938675">
  <ele>-0.696</ele>
  <time>2026-09-02T22:13:02Z</time>
  <course>187.39</course>
  <speed>0.022360679774997897</speed>
  <fix>3d</fix>
</trkpt>
<trkpt lat="33.8103132" lon="-118.3938675">
  <ele>-0.791</ele>
  <time>2026-09-02T22:13:02Z</time>
  <course>187.35</course>
  <speed>0.022360679774997897</speed>
  <fix>3d</fix>
</trkpt>
<trkpt lat="33.8103228" lon="-118.3938864">
  <ele>1.12</ele>
  <time>2026-09-02T22:13:02Z</time>
  <course>150.47</course>
  <speed>0.08</speed>
  <fix>3d</fix>
</trkpt>
<trkpt lat="33.8103132" lon="-118.3938675">
  <ele>-0.793</ele>
  <time>2026-09-02T22:13:02Z</time>
  <course>187.35</course>
  <speed>0.022360679774997897</speed>
  <fix>3d</fix>
</trkpt>
<trkpt lat="33.8103132" lon="-118.3938675">
  <ele>-0.888</ele>
  <time>2026-09-02T22:13:02Z</time>
  <course>187.33</course>
  <speed>0.022360679774997897</speed>
  <fix>3d</fix>
</trkpt>
<trkpt lat="33.8103211" lon="-118.3938873">
  <ele>0.94</ele>
  <time>2026-09-02T22:13:02Z</time>
  <course>141.12</course>
  <speed>0.07</speed>
  <fix>3d</fix>
</trkpt>
<trkpt lat="33.8103132" lon="-118.3938675">
  <ele>-0.889</ele>
  <time>2026-09-02T22:13:02Z</time>
  <course>187.33</course>
  <speed>0.022360679774997897</speed>
  <fix>3d</fix>
</trkpt>
<trkpt lat="33.8103132" lon="-118.3938675">
  <ele>-0.984</ele>
  <time>2026-09-02T22:13:02Z</time>
  <course>187.34</course>
  <speed>0.022360679774997897</speed>
  <fix>3d</fix>
</trkpt>
<trkpt lat="33.8103211" lon="-118.3938873">
  <ele>0.94</ele>
  <time>2026-09-02T22:13:02Z</time>
  <course>141.12</course>
  <speed>0.07</speed>
  <fix>3d</fix>
</trkpt>
<trkpt lat="33.8103132" lon="-118.3938675">
  <ele>-0.985</ele>
  <time>2026-09-02T22:13:02Z</time>
  <course>187.34</course>
  <speed>0.022360679774997897</speed>
  <fix>3d</fix>
</trkpt>
<trkpt lat="33.8103132" lon="-118.3938675">
  <ele>-1.081</ele>
  <time>2026-09-02T22:13:02Z</time>
  <course>187.35</course>
  <speed>0.03</speed>
  <fix>3d</fix>
</trkpt>
<trkpt lat="33.8103194" lon="-118.3938881">
  <ele>0.76</ele>
  <time>2026-09-02T22:13:02Z</time>
  <course>131.8</course>
  <speed>0.07</speed>
  <fix>3d</fix>
</trkpt>
<trkpt lat="33.8103132" lon="-118.3938675">
  <ele>-1.083</ele>
  <time>2026-09-02T22:13:02Z</time>
  <course>187.35</course>
  <speed>0.03</speed>
  <fix>3d</fix>
</trkpt>
<trkpt lat="33.8103131" lon="-118.3938675">
  <ele>-1.177</ele>
  <time>2026-09-02T22:13:02Z</time>
  <course>187.38</course>
  <speed>0.03</speed>
  <fix>3d</fix>
</trkpt>
<trkpt lat="33.8103194" lon="-118.3938881">
  <ele>0.76</ele>
  <time>2026-09-02T22:13:02Z</time>
  <course>131.8</course>
  <speed>0.07</speed>
  <fix>3d</fix>
</trkpt>
<trkpt lat="33.8103131" lon="-118.3938675">
  <ele>-1.179</ele>
  <time>2026-09-02T22:13:02Z</time>
  <course>187.38</course>
  <speed>0.03</speed>
  <fix>3d</fix>
</trkpt>
<trkpt lat="33.8103131" lon="-118.3938675">
  <ele>-1.273</ele>
  <time>2026-09-02T22:13:02Z</time>
  <course>187.41</course>
  <speed>0.03</speed>
  <fix>3d</fix>
</trkpt>
<trkpt lat="33.8103175" lon="-118.3938886">
  <ele>0.58</ele>
  <time>2026-09-02T22:13:02Z</time>
  <course>123.06</course>
  <speed>0.07</speed>
  <fix>3d</fix>
</trkpt>
<trkpt lat="33.8103131" lon="-118.3938675">
  <ele>-1.275</ele>
  <time>2026-09-02T22:13:02Z</time>
  <course>187.41</course>
  <speed>0.03</speed>
  <fix>3d</fix>
</trkpt>
<trkpt lat="33.810313" lon="-118.3938676">
  <ele>-1.369</ele>
  <time>2026-09-02T22:13:03Z</time>
  <course>187.45</course>
  <speed>0.03</speed>
  <fix>3d</fix>
</trkpt>
<trkpt lat="33.8103175" lon="-118.3938886">
  <ele>0.58</ele>
  <time>2026-09-02T22:13:03Z</time>
  <course>123.06</course>
  <speed>0.07</speed>
  <fix>3d</fix>
</trkpt>
<trkpt lat="33.810313" lon="-118.3938676">
  <ele>-1.371</ele>
  <time>2026-09-02T22:13:03Z</time>
  <course>187.45</course>
  <speed>0.03</speed>
  <fix>3d</fix>
</trkpt>
<trkpt lat="33.810313" lon="-118.3938676">
  <ele>-1.463</ele>
  <time>2026-09-02T22:13:03Z</time>
  <course>187.47</course>
  <speed>0.04</speed>
  <fix>3d</fix>
</trkpt>
<trkpt lat="33.8103157" lon="-118.3938889">
  <ele>0.4</ele>
  <time>2026-09-02T22:13:03Z</time>
  <course>114.73</course>
  <speed>0.07</speed>
  <fix>3d</fix>
</trkpt>
<trkpt lat="33.810313" lon="-118.3938676">
  <ele>-1.466</ele>
  <time>2026-09-02T22:13:03Z</time>
  <course>187.47</course>
  <speed>0.04</speed>
  <fix>3d</fix>
</trkpt>
<trkpt lat="33.810313" lon="-118.3938676">
  <ele>-1.558</ele>
  <time>2026-09-02T22:13:03Z</time>
  <course>187.48</course>
  <speed>0.04</speed>
  <fix>3d</fix>
</trkpt>
<trkpt lat="33.8103157" lon="-118.3938889">
  <ele>0.4</ele>
  <time>2026-09-02T22:13:03Z</time>
  <course>114.73</course>
  <speed>0.07</speed>
  <fix>3d</fix>
</trkpt>
<trkpt lat="33.810313" lon="-118.3938676">
  <ele>-1.563</ele>
  <time>2026-09-02T22:13:03Z</time>
  <course>187.48</course>
  <speed>0.04</speed>
  <fix>3d</fix>
</trkpt>
<trkpt lat="33.810313" lon="-118.3938676">
  <ele>-1.654</ele>
  <time>2026-09-02T22:13:03Z</time>
  <course>187.47</course>
  <speed>0.0412310562561766</speed>
  <fix>3d</fix>
</trkpt>
<trkpt lat="33.8103139" lon="-118.3938889">
  <ele>0.22</ele>
  <time>2026-09-02T22:13:03Z</time>
  <course>107.23</course>
  <speed>0.07</speed>
  <fix>3d</fix>
</trkpt>
<trkpt lat="33.810313" lon="-118.3938676">
  <ele>-1.657</ele>
  <time>2026-09-02T22:13:03Z</time>
  <course>187.47</course>
  <speed>0.0412310562561766</speed>
  <fix>3d</fix>
</trkpt>
<trkpt lat="33.810313" lon="-118.3938676">
  <ele>-1.751</ele>
  <time>2026-09-02T22:13:03Z</time>
  <course>187.45</course>
  <speed>0.0412310562561766</speed>
  <fix>3d</fix>
</trkpt>
<trkpt lat="33.8103139" lon="-118.3938889">
  <ele>0.22</ele>
  <time>2026-09-02T22:13:03Z</time>
  <course>107.23</course>
  <speed>0.07</speed>
  <fix>3d</fix>
</trkpt>
<trkpt lat="33.810313" lon="-118.3938676">
  <ele>-1.754</ele>
  <time>2026-09-02T22:13:03Z</time>
  <course>187.45</course>
  <speed>0.0412310562561766</speed>
  <fix>3d</fix>
</trkpt>
<trkpt lat="33.810313" lon="-118.3938675">
  <ele>-1.847</ele>
  <time>2026-09-02T22:13:03Z</time>
  <course>187.44</course>
  <speed>0.0412310562561766</speed>
  <fix>3d</fix>
</trkpt>
<trkpt lat="33.8103121" lon="-118.3938888">
  <ele>0.03</ele>
  <time>2026-09-02T22:13:03Z</time>
  <course>100.56</course>
  <speed>0.07</speed>
  <fix>3d</fix>
</trkpt>
<trkpt lat="33.810313" lon="-118.3938676">
  <ele>-1.85</ele>
  <time>2026-09-02T22:13:03Z</time>
  <course>187.44</course>
  <speed>0.0412310562561766</speed>
  <fix>3d</fix>
</trkpt>
<trkpt lat="33.810313" lon="-118.3938675">
  <ele>-1.946</ele>
  <time>2026-09-02T22:13:03Z</time>
  <course>187.43</course>
  <speed>0.05099019513592785</speed>
  <fix>3d</fix>
</trkpt>
<trkpt lat="33.8103121" lon="-118.3938888">
  <ele>0.03</ele>
  <time>2026-09-02T22:13:03Z</time>
  <course>100.56</course>
  <speed>0.07</speed>
  <fix>3d</fix>
</trkpt>
<trkpt lat="33.810313" lon="-118.3938675">
  <ele>-1.948</ele>
  <time>2026-09-02T22:13:03Z</time>
  <course>187.43</course>
  <speed>0.05099019513592785</speed>
  <fix>3d</fix>
</trkpt>
<trkpt lat="33.810313" lon="-118.3938675">
  <ele>-2.045</ele>
  <time>2026-09-02T22:13:03Z</time>
  <course>187.43</course>
  <speed>0.05099019513592785</speed>
  <fix>3d</fix>
</trkpt>
<trkpt lat="33.8103103" lon="-118.3938884">
  <ele>-0.16</ele>
  <time>2026-09-02T22:13:03Z</time>
  <course>95.0</course>
  <speed>0.07</speed>
  <fix>3d</fix>
</trkpt>
<trkpt lat="33.810313" lon="-118.3938675">
  <ele>-2.047</ele>
  <time>2026-09-02T22:13:03Z</time>
  <course>187.43</course>
  <speed>0.05099019513592785</speed>
  <fix>3d</fix>
</trkpt>
<trkpt lat="33.8103129" lon="-118.3938675">
  <ele>-2.143</ele>
  <time>2026-09-02T22:13:03Z</time>
  <course>187.43</course>
  <speed>0.053851648071345036</speed>
  <fix>3d</fix>
</trkpt>
<trkpt lat="33.8103103" lon="-118.3938884">
  <ele>-0.16</ele>
  <time>2026-09-02T22:13:03Z</time>
  <course>95.0</course>
  <speed>0.07</speed>
  <fix>3d</fix>
</trkpt>
<trkpt lat="33.8103129" lon="-118.3938675">
  <ele>-2.146</ele>
  <time>2026-09-02T22:13:03Z</time>
  <course>187.43</course>
  <speed>0.053851648071345036</speed>
  <fix>3d</fix>
</trkpt>
<trkpt lat="33.8103129" lon="-118.3938675">
  <ele>-2.243</ele>
  <time>2026-09-02T22:13:03Z</time>
  <course>187.44</course>
  <speed>0.053851648071345036</speed>
  <fix>3d</fix>
</trkpt>
<trkpt lat="33.8103085" lon="-118.3938878">
  <ele>-0.35</ele>
  <time>2026-09-02T22:13:03Z</time>
  <course>90.21</course>
  <speed>0.07</speed>
  <fix>3d</fix>
</trkpt>
<trkpt lat="33.8103129" lon="-118.3938675">
  <ele>-2.245</ele>
  <time>2026-09-02T22:13:03Z</time>
  <course>187.44</course>
  <speed>0.053851648071345036</speed>
  <fix>3d</fix>
</trkpt>
<trkpt lat="33.8103128" lon="-118.3938675">
  <ele>-2.343</ele>
  <time>2026-09-02T22:13:03Z</time>
  <course>187.44</course>
  <speed>0.053851648071345036</speed>
  <fix>3d</fix>
</trkpt>
<trkpt lat="33.8103085" lon="-118.3938878">
  <ele>-0.35</ele>
  <time>2026-09-02T22:13:03Z</time>
  <course>90.21</course>
  <speed>0.07</speed>
  <fix>3d</fix>
</trkpt>
<trkpt lat="33.8103128" lon="-118.3938675">
  <ele>-2.345</ele>
  <time>2026-09-02T22:13:03Z</time>
  <course>187.44</course>
  <speed>0.053851648071345036</speed>
  <fix>3d</fix>
</trkpt>
<trkpt lat="33.8103128" lon="-118.3938675">
  <ele>-2.442</ele>
  <time>2026-09-02T22:13:03Z</time>
  <course>187.44</course>
  <speed>0.053851648071345036</speed>
  <fix>3d</fix>
</trkpt>
<trkpt lat="33.8103068" lon="-118.3938871">
  <ele>-0.54</ele>
  <time>2026-09-02T22:13:03Z</time>
  <course>85.8</course>
  <speed>0.07</speed>
  <fix>3d</fix>
</trkpt>
<trkpt lat="33.8103128" lon="-118.3938675">
  <ele>-2.444</ele>
  <time>2026-09-02T22:13:03Z</time>
  <course>187.44</course>
  <speed>0.053851648071345036</speed>
  <fix>3d</fix>
</trkpt>
<trkpt lat="33.8103128" lon="-118.3938675">
  <ele>-2.54</ele>
  <time>2026-09-02T22:13:03Z</time>
  <course>187.44</course>
  <speed>0.053851648071345036</speed>
  <fix>3d</fix>
</trkpt>
<trkpt lat="33.8103068" lon="-118.3938871">
  <ele>-0.54</ele>
  <time>2026-09-02T22:13:03Z</time>
  <course>85.8</course>
  <speed>0.07</speed>
  <fix>3d</fix>
</trkpt>
<trkpt lat="33.8103128" lon="-118.3938675">
  <ele>-2.543</ele>
  <time>2026-09-02T22:13:03Z</time>
  <course>187.44</course>
  <speed>0.053851648071345036</speed>
  <fix>3d</fix>
</trkpt>
<trkpt lat="33.8103128" lon="-118.3938674">
  <ele>-2.638</ele>
  <time>2026-09-02T22:13:03Z</time>
  <course>187.44</course>
  <speed>0.053851648071345036</speed>
  <fix>3d</fix>
</trkpt>
<trkpt lat="33.8103051" lon="-118.3938861">
  <ele>-0.73</ele>
  <time>2026-09-02T22:13:03Z</time>
  <course>81.79</course>
  <speed>0.07</speed>
  <fix>3d</fix>
</trkpt>
<trkpt lat="33.8103128" lon="-118.3938674">
  <ele>-2.643</ele>
  <time>2026-09-02T22:13:03Z</time>
  <course>187.44</course>
  <speed>0.053851648071345036</speed>
  <fix>3d</fix>
</trkpt>
<trkpt lat="33.8103128" lon="-118.3938674">
  <ele>-2.736</ele>
  <time>2026-09-02T22:13:03Z</time>
  <course>187.44</course>
  <speed>0.05830951894845301</speed>
  <fix>3d</fix>
</trkpt>
<trkpt lat="33.8103051" lon="-118.3938861">
  <ele>-0.73</ele>
  <time>2026-09-02T22:13:03Z</time>
  <course>81.79</course>
  <speed>0.07</speed>
  <fix>3d</fix>
</trkpt>
<trkpt lat="33.8103128" lon="-118.3938674">
  <ele>-2.738</ele>
  <time>2026-09-02T22:13:03Z</time>
  <course>187.44</course>
  <speed>0.05830951894845301</speed>
  <fix>3d</fix>
</trkpt>
<trkpt lat="33.8103128" lon="-118.3938674">
  <ele>-2.835</ele>
  <time>2026-09-02T22:13:03Z</time>
  <course>187.41</course>
  <speed>0.05830951894845301</speed>
  <fix>3d</fix>
</trkpt>
<trkpt lat="33.8103035" lon="-118.3938848">
  <ele>-0.93</ele>
  <time>2026-09-02T22:13:03Z</time>
  <course>78.18</course>
  <speed>0.07</speed>
  <fix>3d</fix>
</trkpt>
<trkpt lat="33.8103128" lon="-118.3938674">
  <ele>-2.837</ele>
  <time>2026-09-02T22:13:03Z</time>
  <course>187.41</course>
  <speed>0.05830951894845301</speed>
  <fix>3d</fix>
</trkpt>
<trkpt lat="33.8103128" lon="-118.3938674">
  <ele>-2.934</ele>
  <time>2026-09-02T22:13:03Z</time>
  <course>187.36</course>
  <speed>0.05830951894845301</speed>
  <fix>3d</fix>
</trkpt>
<trkpt lat="33.8103035" lon="-118.3938848">
  <ele>-0.93</ele>
  <time>2026-09-02T22:13:03Z</time>
  <course>78.18</course>
  <speed>0.07</speed>
  <fix>3d</fix>
</trkpt>
<trkpt lat="33.8103128" lon="-118.3938674">
  <ele>-2.935</ele>
  <time>2026-09-02T22:13:03Z</time>
  <course>187.36</course>
  <speed>0.05830951894845301</speed>
  <fix>3d</fix>
</trkpt>
<trkpt lat="33.8103128" lon="-118.3938674">
  <ele>-3.033</ele>
  <time>2026-09-02T22:13:03Z</time>
  <course>187.33</course>
  <speed>0.05</speed>
  <fix>3d</fix>
</trkpt>
<trkpt lat="33.8103021" lon="-118.3938835">
  <ele>-1.12</ele>
  <time>2026-09-02T22:13:03Z</time>
  <course>72.79</course>
  <speed>0.07</speed>
  <fix>3d</fix>
</trkpt>
<trkpt lat="33.8103128" lon="-118.3938674">
  <ele>-3.038</ele>
  <time>2026-09-02T22:13:03Z</time>
  <course>187.33</course>
  <speed>0.0565685424949238</speed>
  <fix>3d</fix>
</trkpt>
<trkpt lat="33.8103128" lon="-118.3938674">
  <ele>-3.133</ele>
  <time>2026-09-02T22:13:03Z</time>
  <course>187.33</course>
  <speed>0.0565685424949238</speed>
  <fix>3d</fix>
</trkpt>
<trkpt lat="33.8103021" lon="-118.3938835">
  <ele>-1.12</ele>
  <time>2026-09-02T22:13:03Z</time>
  <course>72.79</course>
  <speed>0.07</speed>
  <fix>3d</fix>
</trkpt>
<trkpt lat="33.8103128" lon="-118.3938674">
  <ele>-3.135</ele>
  <time>2026-09-02T22:13:03Z</time>
  <course>187.33</course>
  <speed>0.0565685424949238</speed>
  <fix>3d</fix>
</trkpt>
<trkpt lat="33.8103128" lon="-118.3938674">
  <ele>-3.233</ele>
  <time>2026-09-02T22:13:03Z</time>
  <course>187.33</course>
  <speed>0.0565685424949238</speed>
  <fix>3d</fix>
</trkpt>
<trkpt lat="33.8103007" lon="-118.393882">
  <ele>-1.31</ele>
  <time>2026-09-02T22:13:03Z</time>
  <course>64.85</course>
  <speed>0.07</speed>
  <fix>3d</fix>
</trkpt>
<trkpt lat="33.8103128" lon="-118.3938674">
  <ele>-3.235</ele>
  <time>2026-09-02T22:13:03Z</time>
  <course>187.33</course>
  <speed>0.0565685424949238</speed>
  <fix>3d</fix>
</trkpt>
<trkpt lat="33.8103126" lon="-118.3938673">
  <ele>-3.333</ele>
  <time>2026-09-02T22:13:03Z</time>
  <course>187.32</course>
  <speed>0.06403124237432849</speed>
  <fix>3d</fix>
</trkpt>
<trkpt lat="33.8103007" lon="-118.393882">
  <ele>-1.31</ele>
  <time>2026-09-02T22:13:03Z</time>
  <course>64.85</course>
  <speed>0.07</speed>
  <fix>3d</fix>
</trkpt>
<trkpt lat="33.8103126" lon="-118.3938673">
  <ele>-3.335</ele>
  <time>2026-09-02T22:13:03Z</time>
  <course>187.32</course>
  <speed>0.06403124237432849</speed>
  <fix>3d</fix>
</trkpt>
<trkpt lat="33.8103126" lon="-118.3938673">
  <ele>-3.433</ele>
  <time>2026-09-02T22:13:03Z</time>
  <course>187.31</course>
  <speed>0.06403124237432849</speed>
  <fix>3d</fix>
</trkpt>
<trkpt lat="33.8102995" lon="-118.3938803">
  <ele>-1.5</ele>
  <time>2026-09-02T22:13:03Z</time>
  <course>56.89</course>
  <speed>0.06</speed>
  <fix>3d</fix>
</trkpt>
<trkpt lat="33.8103126" lon="-118.3938673">
  <ele>-3.436</ele>
  <time>2026-09-02T22:13:03Z</time>
  <course>187.31</course>
  <speed>0.06403124237432849</speed>
  <fix>3d</fix>
</trkpt>
<trkpt lat="33.8103126" lon="-118.3938673">
  <ele>-3.532</ele>
  <time>2026-09-02T22:13:03Z</time>
  <course>187.34</course>
  <speed>0.05830951894845301</speed>
  <fix>3d</fix>
</trkpt>
<trkpt lat="33.8102995" lon="-118.3938803">
  <ele>-1.5</ele>
  <time>2026-09-02T22:13:03Z</time>
  <course>56.89</course>
  <speed>0.06</speed>
  <fix>3d</fix>
</trkpt>
<trkpt lat="33.8103126" lon="-118.3938673">
  <ele>-3.535</ele>
  <time>2026-09-02T22:13:03Z</time>
  <course>187.34</course>
  <speed>0.05830951894845301</speed>
  <fix>3d</fix>
</trkpt>
<trkpt lat="33.8103126" lon="-118.3938673">
  <ele>-3.63</ele>
  <time>2026-09-02T22:13:03Z</time>
  <course>187.33</course>
  <speed>0.0670820393249937</speed>
  <fix>3d</fix>
</trkpt>
<trkpt lat="33.8102984" lon="-118.3938785">
  <ele>-1.68</ele>
  <time>2026-09-02T22:13:03Z</time>
  <course>48.65</course>
  <speed>0.06</speed>
  <fix>3d</fix>
</trkpt>
<trkpt lat="33.8103126" lon="-118.3938673">
  <ele>-3.633</ele>
  <time>2026-09-02T22:13:03Z</time>
  <course>187.33</course>
  <speed>0.0670820393249937</speed>
  <fix>3d</fix>
</trkpt>
<trkpt lat="33.8103126" lon="-118.3938673">
  <ele>-3.727</ele>
  <time>2026-09-02T22:13:03Z</time>
  <course>187.36</course>
  <speed>0.0670820393249937</speed>
  <fix>3d</fix>
</trkpt>
<trkpt lat="33.8102984" lon="-118.3938785">
  <ele>-1.68</ele>
  <time>2026-09-02T22:13:03Z</time>
  <course>48.65</course>
  <speed>0.06</speed>
  <fix>3d</fix>
</trkpt>
<trkpt lat="33.8103126" lon="-118.3938673">
  <ele>-3.73</ele>
  <time>2026-09-02T22:13:03Z</time>
  <course>187.36</course>
  <speed>0.0670820393249937</speed>
  <fix>3d</fix>
</trkpt>
<trkpt lat="33.8103126" lon="-118.3938673">
  <ele>-3.824</ele>
  <time>2026-09-02T22:13:03Z</time>
  <course>187.36</course>
  <speed>0.0632455532033676</speed>
  <fix>3d</fix>
</trkpt>
<trkpt lat="33.8102976" lon="-118.3938766">
  <ele>-1.87</ele>
  <time>2026-09-02T22:13:03Z</time>
  <course>39.97</course>
  <speed>0.06</speed>
  <fix>3d</fix>
</trkpt>
<trkpt lat="33.8103126" lon="-118.3938673">
  <ele>-3.827</ele>
  <time>2026-09-02T22:13:03Z</time>
  <course>187.36</course>
  <speed>0.0632455532033676</speed>
  <fix>3d</fix>
</trkpt>
<trkpt lat="33.8103126" lon="-118.3938673">
  <ele>-3.921</ele>
  <time>2026-09-02T22:13:03Z</time>
  <course>187.36</course>
  <speed>0.0632455532033676</speed>
  <fix>3d</fix>
</trkpt>
<trkpt lat="33.8102976" lon="-118.3938766">
  <ele>-1.87</ele>
  <time>2026-09-02T22:13:03Z</time>
  <course>39.97</course>
  <speed>0.06</speed>
  <fix>3d</fix>
</trkpt>
<trkpt lat="33.8103126" lon="-118.3938673">
  <ele>-3.923</ele>
  <time>2026-09-02T22:13:03Z</time>
  <course>187.36</course>
  <speed>0.0632455532033676</speed>
  <fix>3d</fix>
</trkpt>
<trkpt lat="33.8103126" lon="-118.3938672">
  <ele>-4.018</ele>
  <time>2026-09-02T22:13:03Z</time>
  <course>187.34</course>
  <speed>0.07280109889280519</speed>
  <fix>3d</fix>
</trkpt>
<trkpt lat="33.8102968" lon="-118.3938745">
  <ele>-2.05</ele>
  <time>2026-09-02T22:13:03Z</time>
  <course>32.04</course>
  <speed>0.06</speed>
  <fix>3d</fix>
</trkpt>
<trkpt lat="33.8103126" lon="-118.3938672">
  <ele>-4.02</ele>
  <time>2026-09-02T22:13:03Z</time>
  <course>187.34</course>
  <speed>0.07280109889280519</speed>
  <fix>3d</fix>
</trkpt>
<trkpt lat="33.8103126" lon="-118.3938672">
  <ele>-4.116</ele>
  <time>2026-09-02T22:13:03Z</time>
  <course>187.33</course>
  <speed>0.07280109889280519</speed>
  <fix>3d</fix>
</trkpt>
<trkpt lat="33.8102968" lon="-118.3938745">
  <ele>-2.05</ele>
  <time>2026-09-02T22:13:03Z</time>
  <course>32.04</course>
  <speed>0.06</speed>
  <fix>3d</fix>
</trkpt>
<trkpt lat="33.8103126" lon="-118.3938672">
  <ele>-4.118</ele>
  <time>2026-09-02T22:13:03Z</time>
  <course>187.33</course>
  <speed>0.07280109889280519</speed>
  <fix>3d</fix>
</trkpt>
<trkpt lat="33.8103126" lon="-118.3938672">
  <ele>-4.215</ele>
  <time>2026-09-02T22:13:03Z</time>
  <course>187.31</course>
  <speed>0.07071067811865475</speed>
  <fix>3d</fix>
</trkpt>
<trkpt lat="33.8102963" lon="-118.3938725">
  <ele>-2.24</ele>
  <time>2026-09-02T22:13:03Z</time>
  <course>26.23</course>
  <speed>0.07</speed>
  <fix>3d</fix>
</trkpt>
<trkpt lat="33.8103126" lon="-118.3938672">
  <ele>-4.217</ele>
  <time>2026-09-02T22:13:03Z</time>
  <course>187.31</course>
  <speed>0.07071067811865475</speed>
  <fix>3d</fix>
</trkpt>
<trkpt lat="33.8103126" lon="-118.3938672">
  <ele>-4.314</ele>
  <time>2026-09-02T22:13:03Z</time>
  <course>187.3</course>
  <speed>0.07071067811865475</speed>
  <fix>3d</fix>
</trkpt>
<trkpt lat="33.8102963" lon="-118.3938725">
  <ele>-2.24</ele>
  <time>2026-09-02T22:13:03Z</time>
  <course>26.23</course>
  <speed>0.07</speed>
  <fix>3d</fix>
</trkpt>
<trkpt lat="33.8103126" lon="-118.3938672">
  <ele>-4.316</ele>
  <time>2026-09-02T22:13:03Z</time>
  <course>187.3</course>
  <speed>0.07071067811865475</speed>
  <fix>3d</fix>
</trkpt>
<trkpt lat="33.8103126" lon="-118.3938672">
  <ele>-4.412</ele>
  <time>2026-09-02T22:13:03Z</time>
  <course>187.3</course>
  <speed>0.07071067811865475</speed>
  <fix>3d</fix>
</trkpt>
<trkpt lat="33.8102959" lon="-118.3938704">
  <ele>-2.42</ele>
  <time>2026-09-02T22:13:03Z</time>
  <course>21.39</course>
  <speed>0.07</speed>
  <fix>3d</fix>
</trkpt>
<trkpt lat="33.8103126" lon="-118.3938672">
  <ele>-4.414</ele>
  <time>2026-09-02T22:13:03Z</time>
  <course>187.3</course>
  <speed>0.07071067811865475</speed>
  <fix>3d</fix>
</trkpt>
<trkpt lat="33.8103126" lon="-118.3938672">
  <ele>-4.511</ele>
  <time>2026-09-02T22:13:03Z</time>
  <course>187.3</course>
  <speed>0.07</speed>
  <fix>3d</fix>
</trkpt>
<trkpt lat="33.8102959" lon="-118.3938704">
  <ele>-2.42</ele>
  <time>2026-09-02T22:13:03Z</time>
  <course>21.39</course>
  <speed>0.07</speed>
  <fix>3d</fix>
</trkpt>
<trkpt lat="33.8103126" lon="-118.3938672">
  <ele>-4.513</ele>
  <time>2026-09-02T22:13:03Z</time>
  <course>187.3</course>
  <speed>0.07</speed>
  <fix>3d</fix>
</trkpt>
<trkpt lat="33.8103126" lon="-118.3938672">
  <ele>-4.61</ele>
  <time>2026-09-02T22:13:03Z</time>
  <course>187.3</course>
  <speed>0.07</speed>
  <fix>3d</fix>
</trkpt>
<trkpt lat="33.8102957" lon="-118.3938682">
  <ele>-2.61</ele>
  <time>2026-09-02T22:13:03Z</time>
  <course>15.9</course>
  <speed>0.07</speed>
  <fix>3d</fix>
</trkpt>
<trkpt lat="33.8103126" lon="-118.3938672">
  <ele>-4.612</ele>
  <time>2026-09-02T22:13:03Z</time>
  <course>187.3</course>
  <speed>0.07</speed>
  <fix>3d</fix>
</trkpt>
<trkpt lat="33.8103126" lon="-118.3938671">
  <ele>-4.708</ele>
  <time>2026-09-02T22:13:03Z</time>
  <course>187.3</course>
  <speed>0.08</speed>
  <fix>3d</fix>
</trkpt>
<trkpt lat="33.8102957" lon="-118.3938682">
  <ele>-2.61</ele>
  <time>2026-09-02T22:13:03Z</time>
  <course>15.9</course>
  <speed>0.07</speed>
  <fix>3d</fix>
</trkpt>
<trkpt lat="33.8103126" lon="-118.3938671">
  <ele>-4.71</ele>
  <time>2026-09-02T22:13:03Z</time>
  <course>187.3</course>
  <speed>0.08</speed>
  <fix>3d</fix>
</trkpt>
<trkpt lat="33.8103126" lon="-118.3938671">
  <ele>-4.804</ele>
  <time>2026-09-02T22:13:03Z</time>
  <course>187.3</course>
  <speed>0.08</speed>
  <fix>3d</fix>
</trkpt>
<trkpt lat="33.8102957" lon="-118.393866">
  <ele>-2.79</ele>
  <time>2026-09-02T22:13:03Z</time>
  <course>10.81</course>
  <speed>0.07</speed>
  <fix>3d</fix>
</trkpt>
<trkpt lat="33.8103126" lon="-118.3938671">
  <ele>-4.806</ele>
  <time>2026-09-02T22:13:03Z</time>
  <course>187.3</course>
  <speed>0.08</speed>
  <fix>3d</fix>
</trkpt>
<trkpt lat="33.8103126" lon="-118.3938671">
  <ele>-4.9</ele>
  <time>2026-09-02T22:13:03Z</time>
  <course>187.3</course>
  <speed>0.08</speed>
  <fix>3d</fix>
</trkpt>
<trkpt lat="33.8102957" lon="-118.393866">
  <ele>-2.79</ele>
  <time>2026-09-02T22:13:03Z</time>
  <course>10.81</course>
  <speed>0.07</speed>
  <fix>3d</fix>
</trkpt>
<trkpt lat="33.8103126" lon="-118.3938671">
  <ele>-4.905</ele>
  <time>2026-09-02T22:13:03Z</time>
  <course>187.3</course>
  <speed>0.08</speed>
  <fix>3d</fix>
</trkpt>
<trkpt lat="33.8103126" lon="-118.3938671">
  <ele>-4.995</ele>
  <time>2026-09-02T22:13:03Z</time>
  <course>187.3</course>
  <speed>0.08</speed>
  <fix>3d</fix>
</trkpt>
<trkpt lat="33.8102959" lon="-118.3938638">
  <ele>-2.97</ele>
  <time>2026-09-02T22:13:03Z</time>
  <course>6.6</course>
  <speed>0.07</speed>
  <fix>3d</fix>
</trkpt>
<trkpt lat="33.8103126" lon="-118.3938671">
  <ele>-4.997</ele>
  <time>2026-09-02T22:13:03Z</time>
  <course>187.3</course>
  <speed>0.08</speed>
  <fix>3d</fix>
</trkpt>
<trkpt lat="33.8103126" lon="-118.3938671">
  <ele>-5.091</ele>
  <time>2026-09-02T22:13:03Z</time>
  <course>187.3</course>
  <speed>0.08</speed>
  <fix>3d</fix>
</trkpt>
<trkpt lat="33.8102959" lon="-118.3938638">
  <ele>-2.97</ele>
  <time>2026-09-02T22:13:03Z</time>
  <course>6.6</course>
  <speed>0.07</speed>
  <fix>3d</fix>
</trkpt>
<trkpt lat="33.8103126" lon="-118.3938671">
  <ele>-5.092</ele>
  <time>2026-09-02T22:13:03Z</time>
  <course>187.3</course>
  <speed>0.08</speed>
  <fix>3d</fix>
</trkpt>
<trkpt lat="33.8103126" lon="-118.3938671">
  <ele>-5.187</ele>
  <time>2026-09-02T22:13:03Z</time>
  <course>187.3</course>
  <speed>0.08</speed>
  <fix>3d</fix>
</trkpt>
<trkpt lat="33.8102962" lon="-118.3938616">
  <ele>-3.15</ele>
  <time>2026-09-02T22:13:03Z</time>
  <course>2.86</course>
  <speed>0.07</speed>
  <fix>3d</fix>
</trkpt>
<trkpt lat="33.8103126" lon="-118.3938671">
  <ele>-5.189</ele>
  <time>2026-09-02T22:13:03Z</time>
  <course>187.3</course>
  <speed>0.08</speed>
  <fix>3d</fix>
</trkpt>
<trkpt lat="33.8103126" lon="-118.3938669">
  <ele>-5.282</ele>
  <time>2026-09-02T22:13:03Z</time>
  <course>187.3</course>
  <speed>0.08062257748298549</speed>
  <fix>3d</fix>
</trkpt>
<trkpt lat="33.8102962" lon="-118.3938616">
  <ele>-3.15</ele>
  <time>2026-09-02T22:13:03Z</time>
  <course>2.86</course>
  <speed>0.07</speed>
  <fix>3d</fix>
</trkpt>
<trkpt lat="33.8103126" lon="-118.3938669">
  <ele>-5.285</ele>
  <time>2026-09-02T22:13:03Z</time>
  <course>187.3</course>
  <speed>0.08062257748298549</speed>
  <fix>3d</fix>
</trkpt>
<trkpt lat="33.8103126" lon="-118.3938669">
  <ele>-5.379</ele>
  <time>2026-09-02T22:13:03Z</time>
  <course>187.3</course>
  <speed>0.08062257748298549</speed>
  <fix>3d</fix>
</trkpt>
<trkpt lat="33.8102967" lon="-118.3938595">
  <ele>-3.33</ele>
  <time>2026-09-02T22:13:03Z</time>
  <course>359.05</course>
  <speed>0.07</speed>
  <fix>3d</fix>
</trkpt>
<trkpt lat="33.8103126" lon="-118.3938669">
  <ele>-5.381</ele>
  <time>2026-09-02T22:13:03Z</time>
  <course>187.3</course>
  <speed>0.08062257748298549</speed>
  <fix>3d</fix>
</trkpt>
<trkpt lat="33.8103126" lon="-118.3938669">
  <ele>-5.477</ele>
  <time>2026-09-02T22:13:03Z</time>
  <course>187.3</course>
  <speed>0.08062257748298549</speed>
  <fix>3d</fix>
</trkpt>
<trkpt lat="33.8102967" lon="-118.3938595">
  <ele>-3.33</ele>
  <time>2026-09-02T22:13:03Z</time>
  <course>359.05</course>
  <speed>0.07</speed>
  <fix>3d</fix>
</trkpt>
<trkpt lat="33.8103126" lon="-118.3938669">
  <ele>-5.479</ele>
  <time>2026-09-02T22:13:03Z</time>
  <course>187.3</course>
  <speed>0.08062257748298549</speed>
  <fix>3d</fix>
</trkpt>
<trkpt lat="33.8103126" lon="-118.3938669">
  <ele>-5.574</ele>
  <time>2026-09-02T22:13:03Z</time>
  <course>187.3</course>
  <speed>0.08062257748298549</speed>
  <fix>3d</fix>
</trkpt>
<trkpt lat="33.8102974" lon="-118.3938575">
  <ele>-3.52</ele>
  <time>2026-09-02T22:13:03Z</time>
  <course>355.79</course>
  <speed>0.07</speed>
  <fix>3d</fix>
</trkpt>
<trkpt lat="33.8103126" lon="-118.3938669">
  <ele>-5.577</ele>
  <time>2026-09-02T22:13:03Z</time>
  <course>187.3</course>
  <speed>0.08062257748298549</speed>
  <fix>3d</fix>
</trkpt>
<trkpt lat="33.8103127" lon="-118.3938669">
  <ele>-5.672</ele>
  <time>2026-09-02T22:13:03Z</time>
  <course>187.3</course>
  <speed>0.08062257748298549</speed>
  <fix>3d</fix>
</trkpt>
<trkpt lat="33.8102974" lon="-118.3938575">
  <ele>-3.52</ele>
  <time>2026-09-02T22:13:03Z</time>
  <course>355.79</course>
  <speed>0.07</speed>
  <fix>3d</fix>
</trkpt>
<trkpt lat="33.8103127" lon="-118.3938669">
  <ele>-5.675</ele>
  <time>2026-09-02T22:13:03Z</time>
  <course>187.3</course>
  <speed>0.08062257748298549</speed>
  <fix>3d</fix>
</trkpt>
<trkpt lat="33.8103127" lon="-118.3938669">
  <ele>-5.769</ele>
  <time>2026-09-02T22:13:03Z</time>
  <course>187.29</course>
  <speed>0.08062257748298549</speed>
  <fix>3d</fix>
</trkpt>
<trkpt lat="33.8102983" lon="-118.3938555">
  <ele>-3.7</ele>
  <time>2026-09-02T22:13:03Z</time>
  <course>353.4</course>
  <speed>0.07</speed>
  <fix>3d</fix>
</trkpt>
<trkpt lat="33.8103127" lon="-118.3938669">
  <ele>-5.773</ele>
  <time>2026-09-02T22:13:03Z</time>
  <course>187.29</course>
  <speed>0.08062257748298549</speed>
  <fix>3d</fix>
</trkpt>
<trkpt lat="33.8103127" lon="-118.3938669">
  <ele>-5.867</ele>
  <time>2026-09-02T22:13:03Z</time>
  <course>187.29</course>
  <speed>0.08062257748298549</speed>
  <fix>3d</fix>
</trkpt>
<trkpt lat="33.8102983" lon="-118.3938555">
  <ele>-3.7</ele>
  <time>2026-09-02T22:13:03Z</time>
  <course>353.4</course>
  <speed>0.07</speed>
  <fix>3d</fix>
</trkpt>
<trkpt lat="33.8103127" lon="-118.3938669">
  <ele>-5.871</ele>
  <time>2026-09-02T22:13:03Z</time>
  <course>187.29</course>
  <speed>0.0824621125123532</speed>
  <fix>3d</fix>
</trkpt>
<trkpt lat="33.8103127" lon="-118.3938669">
  <ele>-5.966</ele>
  <time>2026-09-02T22:13:03Z</time>
  <course>187.29</course>
  <speed>0.0824621125123532</speed>
  <fix>3d</fix>
</trkpt>
<trkpt lat="33.8102993" lon="-118.3938536">
  <ele>-3.89</ele>
  <time>2026-09-02T22:13:03Z</time>
  <course>351.31</course>
  <speed>0.06</speed>
  <fix>3d</fix>
</trkpt>
<trkpt lat="33.8103127" lon="-118.3938669">
  <ele>-5.971</ele>
  <time>2026-09-02T22:13:03Z</time>
  <course>187.29</course>
  <speed>0.0824621125123532</speed>
  <fix>3d</fix>
</trkpt>
<trkpt lat="33.8103127" lon="-118.3938669">
  <ele>-6.064</ele>
  <time>2026-09-02T22:13:03Z</time>
  <course>187.3</course>
  <speed>0.0824621125123532</speed>
  <fix>3d</fix>
</trkpt>
<trkpt lat="33.8102993" lon="-118.3938536">
  <ele>-3.89</ele>
  <time>2026-09-02T22:13:03Z</time>
  <course>351.31</course>
  <speed>0.06</speed>
  <fix>3d</fix>
</trkpt>
<trkpt lat="33.8103127" lon="-118.3938669">
  <ele>-6.066</ele>
  <time>2026-09-02T22:13:03Z</time>
  <course>187.3</course>
  <speed>0.0824621125123532</speed>
  <fix>3d</fix>
</trkpt>
<trkpt lat="33.8103127" lon="-118.3938668">
  <ele>-6.161</ele>
  <time>2026-09-02T22:13:03Z</time>
  <course>187.31</course>
  <speed>0.0824621125123532</speed>
  <fix>3d</fix>
</trkpt>
<trkpt lat="33.8103005" lon="-118.3938519">
  <ele>-4.07</ele>
  <time>2026-09-02T22:13:03Z</time>
  <course>349.34</course>
  <speed>0.06</speed>
  <fix>3d</fix>
</trkpt>
<trkpt lat="33.8103127" lon="-118.3938668">
  <ele>-6.163</ele>
  <time>2026-09-02T22:13:03Z</time>
  <course>187.31</course>
  <speed>0.0824621125123532</speed>
  <fix>3d</fix>
</trkpt>
<trkpt lat="33.8103128" lon="-118.3938667">
  <ele>-6.258</ele>
  <time>2026-09-02T22:13:03Z</time>
  <course>187.31</course>
  <speed>0.0824621125123532</speed>
  <fix>3d</fix>
</trkpt>
<trkpt lat="33.8103005" lon="-118.3938519">
  <ele>-4.07</ele>
  <time>2026-09-02T22:13:03Z</time>
  <course>349.34</course>
  <speed>0.06</speed>
  <fix>3d</fix>
</trkpt>
<trkpt lat="33.8103128" lon="-118.3938667">
  <ele>-6.261</ele>
  <time>2026-09-02T22:13:03Z</time>
  <course>187.31</course>
  <speed>0.0824621125123532</speed>
  <fix>3d</fix>
</trkpt>
<trkpt lat="33.8103128" lon="-118.3938667">
  <ele>-6.356</ele>
  <time>2026-09-02T22:13:03Z</time>
  <course>187.35</course>
  <speed>0.07280109889280519</speed>
  <fix>3d</fix>
</trkpt>
<trkpt lat="33.8103018" lon="-118.3938502">
  <ele>-4.26</ele>
  <time>2026-09-02T22:13:03Z</time>
  <course>347.37</course>
  <speed>0.06</speed>
  <fix>3d</fix>
</trkpt>
<trkpt lat="33.8103128" lon="-118.3938667">
  <ele>-6.358</ele>
  <time>2026-09-02T22:13:03Z</time>
  <course>187.35</course>
  <speed>0.07280109889280519</speed>
  <fix>3d</fix>
</trkpt>
<trkpt lat="33.8103128" lon="-118.3938667">
  <ele>-6.454</ele>
  <time>2026-09-02T22:13:03Z</time>
  <course>187.37</course>
  <speed>0.07615773105863909</speed>
  <fix>3d</fix>
</trkpt>
<trkpt lat="33.8103018" lon="-118.3938502">
  <ele>-4.26</ele>
  <time>2026-09-02T22:13:03Z</time>
  <course>347.37</course>
  <speed>0.06</speed>
  <fix>3d</fix>
</trkpt>
<trkpt lat="33.8103128" lon="-118.3938667">
  <ele>-6.456</ele>
  <time>2026-09-02T22:13:03Z</time>
  <course>187.37</course>
  <speed>0.07615773105863909</speed>
  <fix>3d</fix>
</trkpt>
<trkpt lat="33.8103128" lon="-118.3938667">
  <ele>-6.552</ele>
  <time>2026-09-02T22:13:03Z</time>
  <course>187.4</course>
  <speed>0.07615773105863909</speed>
  <fix>3d</fix>
</trkpt>
<trkpt lat="33.8103033" lon="-118.3938488">
  <ele>-4.45</ele>
  <time>2026-09-02T22:13:03Z</time>
  <course>341.85</course>
  <speed>0.06</speed>
  <fix>3d</fix>
</trkpt>
<trkpt lat="33.8103128" lon="-118.3938667">
  <ele>-6.554</ele>
  <time>2026-09-02T22:13:03Z</time>
  <course>187.41</course>
  <speed>0.07615773105863909</speed>
  <fix>3d</fix>
</trkpt>
<trkpt lat="33.8103128" lon="-118.3938667">
  <ele>-6.651</ele>
  <time>2026-09-02T22:13:03Z</time>
  <course>187.42</course>
  <speed>0.07211102550927978</speed>
  <fix>3d</fix>
</trkpt>
<trkpt lat="33.8103033" lon="-118.3938488">
  <ele>-4.45</ele>
  <time>2026-09-02T22:13:03Z</time>
  <course>341.85</course>
  <speed>0.06</speed>
  <fix>3d</fix>
</trkpt>
<trkpt lat="33.8103128" lon="-118.3938667">
  <ele>-6.656</ele>
  <time>2026-09-02T22:13:03Z</time>
  <course>187.42</course>
  <speed>0.07211102550927978</speed>
  <fix>3d</fix>
</trkpt>
<trkpt lat="33.8103129" lon="-118.3938667">
  <ele>-6.75</ele>
  <time>2026-09-02T22:13:03Z</time>
  <course>187.43</course>
  <speed>0.07211102550927978</speed>
  <fix>3d</fix>
</trkpt>
<trkpt lat="33.8103048" lon="-118.3938476">
  <ele>-4.64</ele>
  <time>2026-09-02T22:13:03Z</time>
  <course>331.28</course>
  <speed>0.06</speed>
  <fix>3d</fix>
</trkpt>
<trkpt lat="33.8103129" lon="-118.3938667">
  <ele>-6.753</ele>
  <time>2026-09-02T22:13:03Z</time>
  <course>187.43</course>
  <speed>0.07211102550927978</speed>
  <fix>3d</fix>
</trkpt>
<trkpt lat="33.8103129" lon="-118.3938666">
  <ele>-6.849</ele>
  <time>2026-09-02T22:13:03Z</time>
  <course>187.44</course>
  <speed>0.07810249675906654</speed>
  <fix>3d</fix>
</trkpt>
<trkpt lat="33.8103048" lon="-118.3938476">
  <ele>-4.64</ele>
  <time>2026-09-02T22:13:03Z</time>
  <course>331.28</course>
  <speed>0.06</speed>
  <fix>3d</fix>
</trkpt>
<trkpt lat="33.8103129" lon="-118.3938666">
  <ele>-6.851</ele>
  <time>2026-09-02T22:13:03Z</time>
  <course>187.44</course>
  <speed>0.07810249675906654</speed>
  <fix>3d</fix>
</trkpt>
<trkpt lat="33.8103129" lon="-118.3938666">
  <ele>-6.947</ele>
  <time>2026-09-02T22:13:03Z</time>
  <course>187.44</course>
  <speed>0.07071067811865475</speed>
  <fix>3d</fix>
</trkpt>
<trkpt lat="33.8103064" lon="-118.3938465">
  <ele>-4.83</ele>
  <time>2026-09-02T22:13:03Z</time>
  <course>318.96</course>
  <speed>0.05</speed>
  <fix>3d</fix>
</trkpt>
<trkpt lat="33.8103129" lon="-118.3938666">
  <ele>-6.949</ele>
  <time>2026-09-02T22:13:03Z</time>
  <course>187.44</course>
  <speed>0.07071067811865475</speed>
  <fix>3d</fix>
</trkpt>
<trkpt lat="33.8103129" lon="-118.3938666">
  <ele>-7.044</ele>
  <time>2026-09-02T22:13:03Z</time>
  <course>187.45</course>
  <speed>0.07810249675906654</speed>
  <fix>3d</fix>
</trkpt>
<trkpt lat="33.8103064" lon="-118.3938465">
  <ele>-4.83</ele>
  <time>2026-09-02T22:13:03Z</time>
  <course>318.96</course>
  <speed>0.05</speed>
  <fix>3d</fix>
</trkpt>
<trkpt lat="33.8103129" lon="-118.3938666">
  <ele>-7.046</ele>
  <time>2026-09-02T22:13:03Z</time>
  <course>187.45</course>
  <speed>0.07810249675906654</speed>
  <fix>3d</fix>
</trkpt>
<trkpt lat="33.8103129" lon="-118.3938666">
  <ele>-7.14</ele>
  <time>2026-09-02T22:13:03Z</time>
  <course>187.45</course>
  <speed>0.07810249675906654</speed>
  <fix>3d</fix>
</trkpt>
<trkpt lat="33.8103081" lon="-118.3938457">
  <ele>-5.01</ele>
  <time>2026-09-02T22:13:03Z</time>
  <course>306.73</course>
  <speed>0.05</speed>
  <fix>3d</fix>
</trkpt>
<trkpt lat="33.8103129" lon="-118.3938666">
  <ele>-7.142</ele>
  <time>2026-09-02T22:13:03Z</time>
  <course>187.45</course>
  <speed>0.07810249675906654</speed>
  <fix>3d</fix>
</trkpt>
<trkpt lat="33.8103129" lon="-118.3938665">
  <ele>-7.238</ele>
  <time>2026-09-02T22:13:03Z</time>
  <course>187.44</course>
  <speed>0.07211102550927978</speed>
  <fix>3d</fix>
</trkpt>
<trkpt lat="33.8103081" lon="-118.3938457">
  <ele>-5.01</ele>
  <time>2026-09-02T22:13:03Z</time>
  <course>306.73</course>
  <speed>0.05</speed>
  <fix>3d</fix>
</trkpt>
<trkpt lat="33.8103129" lon="-118.3938665">
  <ele>-7.24</ele>
  <time>2026-09-02T22:13:03Z</time>
  <course>187.44</course>
  <speed>0.07211102550927978</speed>
  <fix>3d</fix>
</trkpt>
<trkpt lat="33.810313" lon="-118.3938665">
  <ele>-7.334</ele>
  <time>2026-09-02T22:13:03Z</time>
  <course>187.43</course>
  <speed>0.08062257748298549</speed>
  <fix>3d</fix>
</trkpt>
<trkpt lat="33.8103098" lon="-118.393845">
  <ele>-5.19</ele>
  <time>2026-09-02T22:13:03Z</time>
  <course>296.49</course>
  <speed>0.05</speed>
  <fix>3d</fix>
</trkpt>
<trkpt lat="33.810313" lon="-118.3938665">
  <ele>-7.337</ele>
  <time>2026-09-02T22:13:03Z</time>
  <course>187.43</course>
  <speed>0.08062257748298549</speed>
  <fix>3d</fix>
</trkpt>
<trkpt lat="33.810313" lon="-118.3938665">
  <ele>-7.43</ele>
  <time>2026-09-02T22:13:03Z</time>
  <course>187.43</course>
  <speed>0.08062257748298549</speed>
  <fix>3d</fix>
</trkpt>
<trkpt lat="33.8103098" lon="-118.393845">
  <ele>-5.19</ele>
  <time>2026-09-02T22:13:03Z</time>
  <course>296.49</course>
  <speed>0.05</speed>
  <fix>3d</fix>
</trkpt>
<trkpt lat="33.810313" lon="-118.3938665">
  <ele>-7.433</ele>
  <time>2026-09-02T22:13:03Z</time>
  <course>187.43</course>
  <speed>0.08062257748298549</speed>
  <fix>3d</fix>
</trkpt>
<trkpt lat="33.810313" lon="-118.3938665">
  <ele>-7.527</ele>
  <time>2026-09-02T22:13:03Z</time>
  <course>187.43</course>
  <speed>0.08062257748298549</speed>
  <fix>3d</fix>
</trkpt>
<trkpt lat="33.8103116" lon="-118.3938446">
  <ele>-5.38</ele>
  <time>2026-09-02T22:13:03Z</time>
  <course>288.79</course>
  <speed>0.06</speed>
  <fix>3d</fix>
</trkpt>
<trkpt lat="33.810313" lon="-118.3938665">
  <ele>-7.53</ele>
  <time>2026-09-02T22:13:03Z</time>
  <course>187.43</course>
  <speed>0.08062257748298549</speed>
  <fix>3d</fix>
</trkpt>
<trkpt lat="33.810313" lon="-118.3938665">
  <ele>-7.623</ele>
  <time>2026-09-02T22:13:03Z</time>
  <course>187.43</course>
  <speed>0.07615773105863909</speed>
  <fix>3d</fix>
</trkpt>
<trkpt lat="33.8103116" lon="-118.3938446">
  <ele>-5.38</ele>
  <time>2026-09-02T22:13:03Z</time>
  <course>288.79</course>
  <speed>0.06</speed>
  <fix>3d</fix>
</trkpt>
<trkpt lat="33.810313" lon="-118.3938665">
  <ele>-7.626</ele>
  <time>2026-09-02T22:13:03Z</time>
  <course>187.43</course>
  <speed>0.07615773105863909</speed>
  <fix>3d</fix>
</trkpt>
<trkpt lat="33.810313" lon="-118.3938665">
  <ele>-7.72</ele>
  <time>2026-09-02T22:13:03Z</time>
  <course>187.43</course>
  <speed>0.07615773105863909</speed>
  <fix>3d</fix>
</trkpt>
<trkpt lat="33.8103134" lon="-118.3938445">
  <ele>-5.57</ele>
  <time>2026-09-02T22:13:03Z</time>
  <course>282.52</course>
  <speed>0.06</speed>
  <fix>3d</fix>
</trkpt>
<trkpt lat="33.810313" lon="-118.3938665">
  <ele>-7.723</ele>
  <time>2026-09-02T22:13:03Z</time>
  <course>187.43</course>
  <speed>0.07615773105863909</speed>
  <fix>3d</fix>
</trkpt>
<trkpt lat="33.810313" lon="-118.3938665">
  <ele>-7.817</ele>
  <time>2026-09-02T22:13:03Z</time>
  <course>187.43</course>
  <speed>0.0854400374531753</speed>
  <fix>3d</fix>
</trkpt>
<trkpt lat="33.8103134" lon="-118.3938445">
  <ele>-5.57</ele>
  <time>2026-09-02T22:13:03Z</time>
  <course>282.52</course>
  <speed>0.06</speed>
  <fix>3d</fix>
</trkpt>
<trkpt lat="33.810313" lon="-118.3938665">
  <ele>-7.821</ele>
  <time>2026-09-02T22:13:03Z</time>
  <course>187.43</course>
  <speed>0.0854400374531753</speed>
  <fix>3d</fix>
</trkpt>
<trkpt lat="33.810313" lon="-118.3938665">
  <ele>-7.914</ele>
  <time>2026-09-02T22:13:03Z</time>
  <course>187.43</course>
  <speed>0.0854400374531753</speed>
  <fix>3d</fix>
</trkpt>
<trkpt lat="33.8103152" lon="-118.3938445">
  <ele>-5.76</ele>
  <time>2026-09-02T22:13:03Z</time>
  <course>277.02</course>
  <speed>0.06</speed>
  <fix>3d</fix>
</trkpt>
<trkpt lat="33.810313" lon="-118.3938665">
  <ele>-7.917</ele>
  <time>2026-09-02T22:13:03Z</time>
  <course>187.43</course>
  <speed>0.0854400374531753</speed>
  <fix>3d</fix>
</trkpt>
<trkpt lat="33.810313" lon="-118.3938665">
  <ele>-8.011</ele>
  <time>2026-09-02T22:13:03Z</time>
  <course>187.43</course>
  <speed>0.0854400374531753</speed>
  <fix>3d</fix>
</trkpt>
<trkpt lat="33.8103152" lon="-118.3938445">
  <ele>-5.76</ele>
  <time>2026-09-02T22:13:03Z</time>
  <course>277.02</course>
  <speed>0.06</speed>
  <fix>3d</fix>
</trkpt>
<trkpt lat="33.810313" lon="-118.3938665">
  <ele>-8.014</ele>
  <time>2026-09-02T22:13:03Z</time>
  <course>187.43</course>
  <speed>0.0854400374531753</speed>
  <fix>3d</fix>
</trkpt>
<trkpt lat="33.8103131" lon="-118.3938665">
  <ele>-8.108</ele>
  <time>2026-09-02T22:13:03Z</time>
  <course>187.43</course>
  <speed>0.0854400374531753</speed>
  <fix>3d</fix>
</trkpt>
<trkpt lat="33.810317" lon="-118.3938447">
  <ele>-5.94</ele>
  <time>2026-09-02T22:13:03Z</time>
  <course>272.14</course>
  <speed>0.06</speed>
  <fix>3d</fix>
</trkpt>
<trkpt lat="33.8103131" lon="-118.3938665">
  <ele>-8.11</ele>
  <time>2026-09-02T22:13:03Z</time>
  <course>187.43</course>
  <speed>0.0854400374531753</speed>
  <fix>3d</fix>
</trkpt>
<trkpt lat="33.8103131" lon="-118.3938665">
  <ele>-8.205</ele>
  <time>2026-09-02T22:13:03Z</time>
  <course>187.42</course>
  <speed>0.0824621125123532</speed>
  <fix>3d</fix>
</trkpt>
<trkpt lat="33.810317" lon="-118.3938447">
  <ele>-5.94</ele>
  <time>2026-09-02T22:13:03Z</time>
  <course>272.14</course>
  <speed>0.06</speed>
  <fix>3d</fix>
</trkpt>
<trkpt lat="33.8103131" lon="-118.3938665">
  <ele>-8.21</ele>
  <time>2026-09-02T22:13:03Z</time>
  <course>187.42</course>
  <speed>0.0824621125123532</speed>
  <fix>3d</fix>
</trkpt>
<trkpt lat="33.8103131" lon="-118.3938665">
  <ele>-8.304</ele>
  <time>2026-09-02T22:13:03Z</time>
  <course>187.42</course>
  <speed>0.0824621125123532</speed>
  <fix>3d</fix>
</trkpt>
<trkpt lat="33.8103188" lon="-118.3938452">
  <ele>-6.14</ele>
  <time>2026-09-02T22:13:03Z</time>
  <course>267.9</course>
  <speed>0.06</speed>
  <fix>3d</fix>
</trkpt>
<trkpt lat="33.8103131" lon="-118.3938665">
  <ele>-8.307</ele>
  <time>2026-09-02T22:13:03Z</time>
  <course>187.42</course>
  <speed>0.0824621125123532</speed>
  <fix>3d</fix>
</trkpt>
<trkpt lat="33.8103131" lon="-118.3938665">
  <ele>-8.404</ele>
  <time>2026-09-02T22:13:03Z</time>
  <course>187.42</course>
  <speed>0.0824621125123532</speed>
  <fix>3d</fix>
</trkpt>
<trkpt lat="33.8103188" lon="-118.3938452">
  <ele>-6.14</ele>
  <time>2026-09-02T22:13:03Z</time>
  <course>267.9</course>
  <speed>0.06</speed>
  <fix>3d</fix>
</trkpt>
<trkpt lat="33.8103131" lon="-118.3938665">
  <ele>-8.406</ele>
  <time>2026-09-02T22:13:03Z</time>
  <course>187.42</course>
  <speed>0.0824621125123532</speed>
  <fix>3d</fix>
</trkpt>
<trkpt lat="33.8103131" lon="-118.3938665">
  <ele>-8.503</ele>
  <time>2026-09-02T22:13:03Z</time>
  <course>187.42</course>
  <speed>0.0824621125123532</speed>
  <fix>3d</fix>
</trkpt>
<trkpt lat="33.8103205" lon="-118.3938459">
  <ele>-6.33</ele>
  <time>2026-09-02T22:13:03Z</time>
  <course>264.32</course>
  <speed>0.06</speed>
  <fix>3d</fix>
</trkpt>
<trkpt lat="33.8103131" lon="-118.3938665">
  <ele>-8.505</ele>
  <time>2026-09-02T22:13:03Z</time>
  <course>187.42</course>
  <speed>0.0824621125123532</speed>
  <fix>3d</fix>
</trkpt>
<trkpt lat="33.8103131" lon="-118.3938666">
  <ele>-8.602</ele>
  <time>2026-09-02T22:13:03Z</time>
  <course>187.42</course>
  <speed>0.0824621125123532</speed>
  <fix>3d</fix>
</trkpt>
<trkpt lat="33.8103205" lon="-118.3938459">
  <ele>-6.33</ele>
  <time>2026-09-02T22:13:03Z</time>
  <course>264.32</course>
  <speed>0.06</speed>
  <fix>3d</fix>
</trkpt>
<trkpt lat="33.8103131" lon="-118.3938666">
  <ele>-8.605</ele>
  <time>2026-09-02T22:13:03Z</time>
  <course>187.42</course>
  <speed>0.0824621125123532</speed>
  <fix>3d</fix>
</trkpt>
<trkpt lat="33.8103131" lon="-118.3938666">
  <ele>-8.703</ele>
  <time>2026-09-02T22:13:03Z</time>
  <course>187.41</course>
  <speed>0.0824621125123532</speed>
  <fix>3d</fix>
</trkpt>
<trkpt lat="33.8103222" lon="-118.3938468">
  <ele>-6.52</ele>
  <time>2026-09-02T22:13:03Z</time>
  <course>261.23</course>
  <speed>0.06</speed>
  <fix>3d</fix>
</trkpt>
<trkpt lat="33.8103131" lon="-118.3938666">
  <ele>-8.705</ele>
  <time>2026-09-02T22:13:03Z</time>
  <course>187.41</course>
  <speed>0.0824621125123532</speed>
  <fix>3d</fix>
</trkpt>
<trkpt lat="33.8103131" lon="-118.3938666">
  <ele>-8.803</ele>
  <time>2026-09-02T22:13:03Z</time>
  <course>187.41</course>
  <speed>0.0824621125123532</speed>
  <fix>3d</fix>
</trkpt>
<trkpt lat="33.8103222" lon="-118.3938468">
  <ele>-6.52</ele>
  <time>2026-09-02T22:13:03Z</time>
  <course>261.23</course>
  <speed>0.06</speed>
  <fix>3d</fix>
</trkpt>
<trkpt lat="33.8103131" lon="-118.3938666">
  <ele>-8.805</ele>
  <time>2026-09-02T22:13:03Z</time>
  <course>187.41</course>
  <speed>0.0824621125123532</speed>
  <fix>3d</fix>
</trkpt>
<trkpt lat="33.8103132" lon="-118.3938666">
  <ele>-8.904</ele>
  <time>2026-09-02T22:13:03Z</time>
  <course>187.42</course>
  <speed>0.0824621125123532</speed>
  <fix>3d</fix>
</trkpt>
<trkpt lat="33.8103238" lon="-118.3938479">
  <ele>-6.72</ele>
  <time>2026-09-02T22:13:03Z</time>
  <course>258.44</course>
  <speed>0.06</speed>
  <fix>3d</fix>
</trkpt>
<trkpt lat="33.8103132" lon="-118.3938666">
  <ele>-8.905</ele>
  <time>2026-09-02T22:13:03Z</time>
  <course>187.42</course>
  <speed>0.0824621125123532</speed>
  <fix>3d</fix>
</trkpt>
<trkpt lat="33.8103132" lon="-118.3938666">
  <ele>-9.003</ele>
  <time>2026-09-02T22:13:03Z</time>
  <course>187.42</course>
  <speed>0.08062257748298549</speed>
  <fix>3d</fix>
</trkpt>
<trkpt lat="33.8103238" lon="-118.3938479">
  <ele>-6.72</ele>
  <time>2026-09-02T22:13:03Z</time>
  <course>258.44</course>
  <speed>0.06</speed>
  <fix>3d</fix>
</trkpt>
<trkpt lat="33.8103132" lon="-118.3938666">
  <ele>-9.005</ele>
  <time>2026-09-02T22:13:03Z</time>
  <course>187.42</course>
  <speed>0.08062257748298549</speed>
  <fix>3d</fix>
</trkpt>
<trkpt lat="33.8103132" lon="-118.3938666">
  <ele>-9.1</ele>
  <time>2026-09-02T22:13:03Z</time>
  <course>187.42</course>
  <speed>0.08062257748298549</speed>
  <fix>3d</fix>
</trkpt>
<trkpt lat="33.8103253" lon="-118.3938492">
  <ele>-6.91</ele>
  <time>2026-09-02T22:13:03Z</time>
  <course>255.89</course>
  <speed>0.06</speed>
  <fix>3d</fix>
</trkpt>
<trkpt lat="33.8103132" lon="-118.3938666">
  <ele>-9.192</ele>
  <time>2026-09-02T22:13:03Z</time>
  <course>187.42</course>
  <speed>0.08062257748298549</speed>
  <fix>3d</fix>
</trkpt>
<trkpt lat="33.8103253" lon="-118.3938492">
  <ele>-6.91</ele>
  <time>2026-09-02T22:13:03Z</time>
  <course>255.89</course>
  <speed>0.06</speed>
  <fix>3d</fix>
</trkpt>
<trkpt lat="33.8103132" lon="-118.3938667">
  <ele>-9.274</ele>
  <time>2026-09-02T22:13:03Z</time>
  <course>187.41</course>
  <speed>0.08062257748298549</speed>
  <fix>3d</fix>
</trkpt>
<trkpt lat="33.8103268" lon="-118.3938506">
  <ele>-7.09</ele>
  <time>2026-09-02T22:13:03Z</time>
  <course>253.58</course>
  <speed>0.06</speed>
  <fix>3d</fix>
</trkpt>
<trkpt lat="33.8103132" lon="-118.3938667">
  <ele>-9.339</ele>
  <time>2026-09-02T22:13:03Z</time>
  <course>187.38</course>
  <speed>0.08062257748298549</speed>
  <fix>3d</fix>
</trkpt>
<trkpt lat="33.8103268" lon="-118.3938506">
  <ele>-7.09</ele>
  <time>2026-09-02T22:13:03Z</time>
  <course>253.58</course>
  <speed>0.06</speed>
  <fix>3d</fix>
</trkpt>
<trkpt lat="33.8103133" lon="-118.3938667">
  <ele>-9.388</ele>
  <time>2026-09-02T22:13:03Z</time>
  <course>187.32</course>
  <speed>0.08</speed>
  <fix>3d</fix>
</trkpt>
<trkpt lat="33.8103281" lon="-118.3938522">
  <ele>-7.24</ele>
  <time>2026-09-02T22:13:03Z</time>
  <course>249.13</course>
  <speed>0.06</speed>
  <fix>3d</fix>
</trkpt>
<trkpt lat="33.8103132" lon="-118.3938667">
  <ele>-9.425</ele>
  <time>2026-09-02T22:13:03Z</time>
  <course>187.31</course>
  <speed>0.08944271909999159</speed>
  <fix>3d</fix>
</trkpt>
<trkpt lat="33.8103281" lon="-118.3938522">
  <ele>-7.24</ele>
  <time>2026-09-02T22:13:03Z</time>
  <course>249.13</course>
  <speed>0.06</speed>
  <fix>3d</fix>
</trkpt>
<trkpt lat="33.8103132" lon="-118.3938667">
  <ele>-9.451</ele>
  <time>2026-09-02T22:13:03Z</time>
  <course>187.32</course>
  <speed>0.17492855684535902</speed>
  <fix>3d</fix>
</trkpt>
<trkpt lat="33.8103292" lon="-118.393854">
  <ele>-7.34</ele>
  <time>2026-09-02T22:13:03Z</time>
  <course>220.66</course>
  <speed>0.09</speed>
  <fix>3d</fix>
</trkpt>
<trkpt lat="33.810313" lon="-118.3938668">
  <ele>-9.466</ele>
  <time>2026-09-02T22:13:03Z</time>
  <course>187.34</course>
  <speed>0.3289376840679705</speed>
  <fix>3d</fix>
</trkpt>
<trkpt lat="33.8103292" lon="-118.393854">
  <ele>-7.34</ele>
  <time>2026-09-02T22:13:03Z</time>
  <course>220.66</course>
  <speed>0.09</speed>
  <fix>3d</fix>
</trkpt>
<trkpt lat="33.8103127" lon="-118.3938669">
  <ele>-9.473</ele>
  <time>2026-09-02T22:13:03Z</time>
  <course>187.35</course>
  <speed>0.5263078946776306</speed>
  <fix>3d</fix>
</trkpt>
<trkpt lat="33.8103299" lon="-118.3938559">
  <ele>-7.39</ele>
  <time>2026-09-02T22:13:03Z</time>
  <course>195.98</course>
  <speed>0.28</speed>
  <fix>3d</fix>
</trkpt>
<trkpt lat="33.8103122" lon="-118.393867">
  <ele>-9.474</ele>
  <time>2026-09-02T22:13:03Z</time>
  <course>187.35</course>
  <speed>0.7040596565632774</speed>
  <fix>3d</fix>
</trkpt>
<trkpt lat="33.8103299" lon="-118.3938559">
  <ele>-7.39</ele>
  <time>2026-09-02T22:13:03Z</time>
  <course>195.98</course>
  <speed>0.28</speed>
  <fix>3d</fix>
</trkpt>
<trkpt lat="33.8103115" lon="-118.3938671">
  <ele>-9.473</ele>
  <time>2026-09-02T22:13:03Z</time>
  <course>187.36</course>
  <speed>0.8747571091451616</speed>
  <fix>3d</fix>
</trkpt>
<trkpt lat="33.81033" lon="-118.393858">
  <ele>-7.41</ele>
  <time>2026-09-02T22:13:03Z</time>
  <course>189.83</course>
  <speed>0.62</speed>
  <fix>3d</fix>
</trkpt>
<trkpt lat="33.8103108" lon="-118.3938673">
  <ele>-9.469</ele>
  <time>2026-09-02T22:13:03Z</time>
  <course>187.37</course>
  <speed>1.0242070103255494</speed>
  <fix>3d</fix>
</trkpt>
<trkpt lat="33.81033" lon="-118.393858">
  <ele>-7.41</ele>
  <time>2026-09-02T22:13:03Z</time>
  <course>189.83</course>
  <speed>0.62</speed>
  <fix>3d</fix>
</trkpt>
<trkpt lat="33.81031" lon="-118.3938674">
  <ele>-9.463</ele>
  <time>2026-09-02T22:13:03Z</time>
  <course>187.37</course>
  <speed>1.1343720729989786</speed>
  <fix>3d</fix>
</trkpt>
<trkpt lat="33.8103293" lon="-118.3938602">
  <ele>-7.41</ele>
  <time>2026-09-02T22:13:03Z</time>
  <course>187.98</course>
  <speed>0.97</speed>
  <fix>3d</fix>
</trkpt>
<trkpt lat="33.8103091" lon="-118.3938676">
  <ele>-9.457</ele>
  <time>2026-09-02T22:13:03Z</time>
  <course>187.37</course>
  <speed>1.2248265183282079</speed>
  <fix>3d</fix>
</trkpt>
<trkpt lat="33.8103293" lon="-118.3938602">
  <ele>-7.41</ele>
  <time>2026-09-02T22:13:03Z</time>
  <course>187.98</course>
  <speed>0.97</speed>
  <fix>3d</fix>
</trkpt>
<trkpt lat="33.810308" lon="-118.3938677">
  <ele>-9.452</ele>
  <time>2026-09-02T22:13:03Z</time>
  <course>187.36</course>
  <speed>1.2955307792561317</speed>
  <fix>3d</fix>
</trkpt>
<trkpt lat="33.8103279" lon="-118.3938626">
  <ele>-7.41</ele>
  <time>2026-09-02T22:13:03Z</time>
  <course>187.25</course>
  <speed>1.23</speed>
  <fix>3d</fix>
</trkpt>
<trkpt lat="33.810307" lon="-118.3938679">
  <ele>-9.45</ele>
  <time>2026-09-02T22:13:03Z</time>
  <course>187.36</course>
  <speed>1.344953530795767</speed>
  <fix>3d</fix>
</trkpt>
<trkpt lat="33.8103279" lon="-118.3938626">
  <ele>-7.41</ele>
  <time>2026-09-02T22:13:03Z</time>
  <course>187.25</course>
  <speed>1.23</speed>
  <fix>3d</fix>
</trkpt>
<trkpt lat="33.8103058" lon="-118.3938681">
  <ele>-9.449</ele>
  <time>2026-09-02T22:13:03Z</time>
  <course>187.35</course>
  <speed>1.3944174410842687</speed>
  <fix>3d</fix>
</trkpt>
<trkpt lat="33.8103259" lon="-118.393865">
  <ele>-7.41</ele>
  <time>2026-09-02T22:13:03Z</time>
  <course>186.89</course>
  <speed>1.4</speed>
  <fix>3d</fix>
</trkpt>
<trkpt lat="33.8103045" lon="-118.3938683">
  <ele>-9.449</ele>
  <time>2026-09-02T22:13:03Z</time>
  <course>187.34</course>
  <speed>1.4354441821262156</speed>
  <fix>3d</fix>
</trkpt>
<trkpt lat="33.8103259" lon="-118.393865">
  <ele>-7.41</ele>
  <time>2026-09-02T22:13:03Z</time>
  <course>186.89</course>
  <speed>1.4</speed>
  <fix>3d</fix>
</trkpt>
<trkpt lat="33.8103032" lon="-118.3938685">
  <ele>-9.452</ele>
  <time>2026-09-02T22:13:03Z</time>
  <course>187.34</course>
  <speed>1.465127980757995</speed>
  <fix>3d</fix>
</trkpt>
<trkpt lat="33.8103235" lon="-118.3938676">
  <ele>-7.41</ele>
  <time>2026-09-02T22:13:03Z</time>
  <course>186.69</course>
  <speed>1.51</speed>
  <fix>3d</fix>
</trkpt>
<trkpt lat="33.8103019" lon="-118.3938687">
  <ele>-9.455</ele>
  <time>2026-09-02T22:13:03Z</time>
  <course>187.33</course>
  <speed>1.494824404403407</speed>
  <fix>3d</fix>
</trkpt>
<trkpt lat="33.8103235" lon="-118.3938676">
  <ele>-7.41</ele>
  <time>2026-09-02T22:13:03Z</time>
  <course>186.69</course>
  <speed>1.51</speed>
  <fix>3d</fix>
</trkpt>
<trkpt lat="33.8103005" lon="-118.3938689">
  <ele>-9.459</ele>
  <time>2026-09-02T22:13:03Z</time>
  <course>187.33</course>
  <speed>1.5259423318068084</speed>
  <fix>3d</fix>
</trkpt>
<trkpt lat="33.8103208" lon="-118.3938701">
  <ele>-7.41</ele>
  <time>2026-09-02T22:13:03Z</time>
  <course>186.62</course>
  <speed>1.59</speed>
  <fix>3d</fix>
</trkpt>
<trkpt lat="33.8102991" lon="-118.3938692">
  <ele>-9.462</ele>
  <time>2026-09-02T22:13:03Z</time>
  <course>187.33</course>
  <speed>1.545736070614903</speed>
  <fix>3d</fix>
</trkpt>
<trkpt lat="33.8103208" lon="-118.3938701">
  <ele>-7.41</ele>
  <time>2026-09-02T22:13:03Z</time>
  <course>186.62</course>
  <speed>1.59</speed>
  <fix>3d</fix>
</trkpt>
<trkpt lat="33.8102976" lon="-118.3938694">
  <ele>-9.465</ele>
  <time>2026-09-02T22:13:03Z</time>
  <course>187.33</course>
  <speed>1.5655350523063993</speed>
  <fix>3d</fix>
</trkpt>
<trkpt lat="33.8103178" lon="-118.3938727">
  <ele>-7.42</ele>
  <time>2026-09-02T22:13:03Z</time>
  <course>186.6</course>
  <speed>1.64</speed>
  <fix>3d</fix>
</trkpt>
<trkpt lat="33.8102962" lon="-118.3938696">
  <ele>-9.468</ele>
  <time>2026-09-02T22:13:03Z</time>
  <course>187.33</course>
  <speed>1.5754364474646383</speed>
  <fix>3d</fix>
</trkpt>
<trkpt lat="33.8103178" lon="-118.3938727">
  <ele>-7.42</ele>
  <time>2026-09-02T22:13:03Z</time>
  <course>186.6</course>
  <speed>1.64</speed>
  <fix>3d</fix>
</trkpt>
<trkpt lat="33.8102947" lon="-118.3938698">
  <ele>-9.471</ele>
  <time>2026-09-02T22:13:03Z</time>
  <course>187.33</course>
  <speed>1.5867577004697346</speed>
  <fix>3d</fix>
</trkpt>
<trkpt lat="33.8103144" lon="-118.3938752">
  <ele>-7.43</ele>
  <time>2026-09-02T22:13:03Z</time>
  <course>186.62</course>
  <speed>1.68</speed>
  <fix>3d</fix>
</trkpt>
<trkpt lat="33.8102932" lon="-118.3938701">
  <ele>-9.473</ele>
  <time>2026-09-02T22:13:03Z</time>
  <course>187.33</course>
  <speed>1.6065490966665164</speed>
  <fix>3d</fix>
</trkpt>
<trkpt lat="33.8103144" lon="-118.3938752">
  <ele>-7.43</ele>
  <time>2026-09-02T22:13:03Z</time>
  <course>186.62</course>
  <speed>1.68</speed>
  <fix>3d</fix>
</trkpt>
<trkpt lat="33.8102917" lon="-118.3938703">
  <ele>-9.473</ele>
  <time>2026-09-02T22:13:03Z</time>
  <course>187.33</course>
  <speed>1.6164467204334327</speed>
  <fix>3d</fix>
</trkpt>
<trkpt lat="33.8103109" lon="-118.3938777">
  <ele>-7.43</ele>
  <time>2026-09-02T22:13:03Z</time>
  <course>186.64</course>
  <speed>1.7</speed>
  <fix>3d</fix>
</trkpt>
<trkpt lat="33.8102902" lon="-118.3938705">
  <ele>-9.471</ele>
  <time>2026-09-02T22:13:03Z</time>
  <course>187.33</course>
  <speed>1.6263455967290594</speed>
  <fix>3d</fix>
</trkpt>
<trkpt lat="33.8103109" lon="-118.3938777">
  <ele>-7.43</ele>
  <time>2026-09-02T22:13:03Z</time>
  <course>186.64</course>
  <speed>1.7</speed>
  <fix>3d</fix>
</trkpt>
<trkpt lat="33.8102886" lon="-118.3938708">
  <ele>-9.468</ele>
  <time>2026-09-02T22:13:03Z</time>
  <course>187.33</course>
  <speed>1.6263455967290594</speed>
  <fix>3d</fix>
</trkpt>
<trkpt lat="33.8103072" lon="-118.3938801">
  <ele>-7.43</ele>
  <time>2026-09-02T22:13:03Z</time>
  <course>186.67</course>
  <speed>1.73</speed>
  <fix>3d</fix>
</trkpt>
<trkpt lat="33.8102871" lon="-118.393871">
  <ele>-9.464</ele>
  <time>2026-09-02T22:13:03Z</time>
  <course>187.33</course>
  <speed>1.6362457028209425</speed>
  <fix>3d</fix>
</trkpt>
<trkpt lat="33.8103072" lon="-118.3938801">
  <ele>-7.43</ele>
  <time>2026-09-02T22:13:03Z</time>
  <course>186.67</course>
  <speed>1.73</speed>
  <fix>3d</fix>
</trkpt>
<trkpt lat="33.8102855" lon="-118.3938712">
  <ele>-9.462</ele>
  <time>2026-09-02T22:13:03Z</time>
  <course>187.33</course>
  <speed>1.6376812876747417</speed>
  <fix>3d</fix>
</trkpt>
<trkpt lat="33.8103033" lon="-118.3938825">
  <ele>-7.42</ele>
  <time>2026-09-02T22:13:03Z</time>
  <course>186.71</course>
  <speed>1.74</speed>
  <fix>3d</fix>
</trkpt>
<trkpt lat="33.8102839" lon="-118.3938715">
  <ele>-9.461</ele>
  <time>2026-09-02T22:13:03Z</time>
  <course>187.33</course>
  <speed>1.647573974060042</speed>
  <fix>3d</fix>
</trkpt>
<trkpt lat="33.8103033" lon="-118.3938825">
  <ele>-7.42</ele>
  <time>2026-09-02T22:13:03Z</time>
  <course>186.71</course>
  <speed>1.74</speed>
  <fix>3d</fix>
</trkpt>
<trkpt lat="33.8102824" lon="-118.3938717">
  <ele>-9.461</ele>
  <time>2026-09-02T22:13:03Z</time>
  <course>187.34</course>
  <speed>1.647573974060042</speed>
  <fix>3d</fix>
</trkpt>
<trkpt lat="33.8102991" lon="-118.3938848">
  <ele>-7.41</ele>
  <time>2026-09-02T22:13:03Z</time>
  <course>186.79</course>
  <speed>1.75</speed>
  <fix>3d</fix>
</trkpt>
<trkpt lat="33.8102808" lon="-118.3938719">
  <ele>-9.461</ele>
  <time>2026-09-02T22:13:03Z</time>
  <course>187.33</course>
  <speed>1.6574679484080528</speed>
  <fix>3d</fix>
</trkpt>
<trkpt lat="33.8102991" lon="-118.3938848">
  <ele>-7.41</ele>
  <time>2026-09-02T22:13:03Z</time>
  <course>186.79</course>
  <speed>1.75</speed>
  <fix>3d</fix>
</trkpt>
<trkpt lat="33.8102793" lon="-118.3938722">
  <ele>-9.461</ele>
  <time>2026-09-02T22:13:03Z</time>
  <course>187.34</course>
  <speed>1.6574679484080528</speed>
  <fix>3d</fix>
</trkpt>
<trkpt lat="33.8102949" lon="-118.3938869">
  <ele>-7.41</ele>
  <time>2026-09-02T22:13:03Z</time>
  <course>186.87</course>
  <speed>1.75</speed>
  <fix>3d</fix>
</trkpt>
<trkpt lat="33.8102777" lon="-118.3938724">
  <ele>-9.462</ele>
  <time>2026-09-02T22:13:03Z</time>
  <course>187.34</course>
  <speed>1.6574679484080528</speed>
  <fix>3d</fix>
</trkpt>
<trkpt lat="33.8102949" lon="-118.3938869">
  <ele>-7.41</ele>
  <time>2026-09-02T22:13:03Z</time>
  <course>186.87</course>
  <speed>1.75</speed>
  <fix>3d</fix>
</trkpt>
<trkpt lat="33.8102761" lon="-118.3938727">
  <ele>-9.462</ele>
  <time>2026-09-02T22:13:03Z</time>
  <course>187.34</course>
  <speed>1.6574679484080528</speed>
  <fix>3d</fix>
</trkpt>
<trkpt lat="33.8102905" lon="-118.3938889">
  <ele>-7.41</ele>
  <time>2026-09-02T22:13:03Z</time>
  <course>186.93</course>
  <speed>1.75</speed>
  <fix>3d</fix>
</trkpt>
<trkpt lat="33.8102745" lon="-118.3938729">
  <ele>-9.463</ele>
  <time>2026-09-02T22:13:03Z</time>
  <course>187.34</course>
  <speed>1.6574679484080528</speed>
  <fix>3d</fix>
</trkpt>
<trkpt lat="33.8102905" lon="-118.3938889">
  <ele>-7.41</ele>
  <time>2026-09-02T22:13:03Z</time>
  <course>186.93</course>
  <speed>1.75</speed>
  <fix>3d</fix>
</trkpt>
<trkpt lat="33.8102729" lon="-118.3938731">
  <ele>-9.464</ele>
  <time>2026-09-02T22:13:03Z</time>
  <course>187.34</course>
  <speed>1.6688319268278635</speed>
  <fix>3d</fix>
</trkpt>
<trkpt lat="33.810286" lon="-118.3938907">
  <ele>-7.4</ele>
  <time>2026-09-02T22:13:03Z</time>
  <course>187.0</course>
  <speed>1.75</speed>
  <fix>3d</fix>
</trkpt>
<trkpt lat="33.8102714" lon="-118.3938734">
  <ele>-9.464</ele>
  <time>2026-09-02T22:13:03Z</time>
  <course>187.34</course>
  <speed>1.6688319268278635</speed>
  <fix>3d</fix>
</trkpt>
<trkpt lat="33.810286" lon="-118.3938907">
  <ele>-7.4</ele>
  <time>2026-09-02T22:13:03Z</time>
  <course>187.0</course>
  <speed>1.75</speed>
  <fix>3d</fix>
</trkpt>
<trkpt lat="33.8102698" lon="-118.3938736">
  <ele>-9.463</ele>
  <time>2026-09-02T22:13:03Z</time>
  <course>187.34</course>
  <speed>1.6688319268278635</speed>
  <fix>3d</fix>
</trkpt>
<trkpt lat="33.8102813" lon="-118.3938924">
  <ele>-7.4</ele>
  <time>2026-09-02T22:13:03Z</time>
  <course>187.06</course>
  <speed>1.75</speed>
  <fix>3d</fix>
</trkpt>
<trkpt lat="33.8102682" lon="-118.3938739">
  <ele>-9.461</ele>
  <time>2026-09-02T22:13:03Z</time>
  <course>187.33</course>
  <speed>1.6688319268278635</speed>
  <fix>3d</fix>
</trkpt>
<trkpt lat="33.8102813" lon="-118.3938924">
  <ele>-7.4</ele>
  <time>2026-09-02T22:13:03Z</time>
  <course>187.06</course>
  <speed>1.75</speed>
  <fix>3d</fix>
</trkpt>
<trkpt lat="33.8102666" lon="-118.3938741">
  <ele>-9.458</ele>
  <time>2026-09-02T22:13:03Z</time>
  <course>187.34</course>
  <speed>1.6688319268278635</speed>
  <fix>3d</fix>
</trkpt>
<trkpt lat="33.8102766" lon="-118.3938939">
  <ele>-7.39</ele>
  <time>2026-09-02T22:13:03Z</time>
  <course>187.14</course>
  <speed>1.75</speed>
  <fix>3d</fix>
</trkpt>
<trkpt lat="33.810265" lon="-118.3938744">
  <ele>-9.456</ele>
  <time>2026-09-02T22:13:03Z</time>
  <course>187.34</course>
  <speed>1.6688319268278635</speed>
  <fix>3d</fix>
</trkpt>
<trkpt lat="33.8102766" lon="-118.3938939">
  <ele>-7.39</ele>
  <time>2026-09-02T22:13:03Z</time>
  <course>187.14</course>
  <speed>1.75</speed>
  <fix>3d</fix>
</trkpt>
<trkpt lat="33.8102634" lon="-118.3938746">
  <ele>-9.455</ele>
  <time>2026-09-02T22:13:03Z</time>
  <course>187.34</course>
  <speed>1.6688319268278635</speed>
  <fix>3d</fix>
</trkpt>
<trkpt lat="33.8102718" lon="-118.3938952">
  <ele>-7.39</ele>
  <time>2026-09-02T22:13:03Z</time>
  <course>187.24</course>
  <speed>1.74</speed>
  <fix>3d</fix>
</trkpt>
<trkpt lat="33.8102618" lon="-118.3938748">
  <ele>-9.455</ele>
  <time>2026-09-02T22:13:03Z</time>
  <course>187.34</course>
  <speed>1.6688319268278635</speed>
  <fix>3d</fix>
</trkpt>
<trkpt lat="33.8102718" lon="-118.3938952">
  <ele>-7.39</ele>
  <time>2026-09-02T22:13:03Z</time>
  <course>187.24</course>
  <speed>1.74</speed>
  <fix>3d</fix>
</trkpt>
<trkpt lat="33.8102603" lon="-118.3938751">
  <ele>-9.455</ele>
  <time>2026-09-02T22:13:03Z</time>
  <course>187.34</course>
  <speed>1.6688319268278635</speed>
  <fix>3d</fix>
</trkpt>
<trkpt lat="33.810267" lon="-118.3938963">
  <ele>-7.38</ele>
  <time>2026-09-02T22:13:03Z</time>
  <course>187.26</course>
  <speed>1.74</speed>
  <fix>3d</fix>
</trkpt>
<trkpt lat="33.8102587" lon="-118.3938753">
  <ele>-9.457</ele>
  <time>2026-09-02T22:13:03Z</time>
  <course>187.34</course>
  <speed>1.6787197502859135</speed>
  <fix>3d</fix>
</trkpt>
<trkpt lat="33.810267" lon="-118.3938963">
  <ele>-7.38</ele>
  <time>2026-09-02T22:13:03Z</time>
  <course>187.26</course>
  <speed>1.74</speed>
  <fix>3d</fix>
</trkpt>
<trkpt lat="33.8102571" lon="-118.3938756">
  <ele>-9.459</ele>
  <time>2026-09-02T22:13:03Z</time>
  <course>187.34</course>
  <speed>1.6787197502859135</speed>
  <fix>3d</fix>
</trkpt>
<trkpt lat="33.8102621" lon="-118.3938971">
  <ele>-7.38</ele>
  <time>2026-09-02T22:13:03Z</time>
  <course>187.23</course>
  <speed>1.74</speed>
  <fix>3d</fix>
</trkpt>
<trkpt lat="33.8102556" lon="-118.3938758">
  <ele>-9.46</ele>
  <time>2026-09-02T22:13:03Z</time>
  <course>187.35</course>
  <speed>1.6886088949191285</speed>
  <fix>3d</fix>
</trkpt>
<trkpt lat="33.8102621" lon="-118.3938971">
  <ele>-7.38</ele>
  <time>2026-09-02T22:13:03Z</time>
  <course>187.23</course>
  <speed>1.74</speed>
  <fix>3d</fix>
</trkpt>
<trkpt lat="33.810254" lon="-118.3938761">
  <ele>-9.461</ele>
  <time>2026-09-02T22:13:03Z</time>
  <course>187.35</course>
  <speed>1.6886088949191285</speed>
  <fix>3d</fix>
</trkpt>
<trkpt lat="33.8102572" lon="-118.3938978">
  <ele>-7.38</ele>
  <time>2026-09-02T22:13:03Z</time>
  <course>187.14</course>
  <speed>1.75</speed>
  <fix>3d</fix>
</trkpt>
<trkpt lat="33.8102525" lon="-118.3938763">
  <ele>-9.46</ele>
  <time>2026-09-02T22:13:03Z</time>
  <course>187.35</course>
  <speed>1.697056274847714</speed>
  <fix>3d</fix>
</trkpt>
<trkpt lat="33.8102572" lon="-118.3938978">
  <ele>-7.38</ele>
  <time>2026-09-02T22:13:03Z</time>
  <course>187.14</course>
  <speed>1.75</speed>
  <fix>3d</fix>
</trkpt>
<trkpt lat="33.8102509" lon="-118.3938766">
  <ele>-9.459</ele>
  <time>2026-09-02T22:13:03Z</time>
  <course>187.35</course>
  <speed>1.697056274847714</speed>
  <fix>3d</fix>
</trkpt>
<trkpt lat="33.8102523" lon="-118.3938982">
  <ele>-7.38</ele>
  <time>2026-09-02T22:13:03Z</time>
  <course>187.0</course>
  <speed>1.75</speed>
  <fix>3d</fix>
</trkpt>
<trkpt lat="33.8102493" lon="-118.3938768">
  <ele>-9.458</ele>
  <time>2026-09-02T22:13:03Z</time>
  <course>187.34</course>
  <speed>1.697056274847714</speed>
  <fix>3d</fix>
</trkpt>
<trkpt lat="33.8102523" lon="-118.3938982">
  <ele>-7.38</ele>
  <time>2026-09-02T22:13:03Z</time>
  <course>187.0</course>
  <speed>1.75</speed>
  <fix>3d</fix>
</trkpt>
<trkpt lat="33.8102477" lon="-118.3938771">
  <ele>-9.457</ele>
  <time>2026-09-02T22:13:03Z</time>
  <course>187.34</course>
  <speed>1.697056274847714</speed>
  <fix>3d</fix>
</trkpt>
<trkpt lat="33.8102474" lon="-118.3938984">
  <ele>-7.38</ele>
  <time>2026-09-02T22:13:03Z</time>
  <course>186.91</course>
  <speed>1.76</speed>
  <fix>3d</fix>
</trkpt>
<trkpt lat="33.8102461" lon="-118.3938773">
  <ele>-9.458</ele>
  <time>2026-09-02T22:13:03Z</time>
  <course>187.34</course>
  <speed>1.697056274847714</speed>
  <fix>3d</fix>
</trkpt>
<trkpt lat="33.8102474" lon="-118.3938984">
  <ele>-7.38</ele>
  <time>2026-09-02T22:13:03Z</time>
  <course>186.91</course>
  <speed>1.76</speed>
  <fix>3d</fix>
</trkpt>
<trkpt lat="33.8102446" lon="-118.3938776">
  <ele>-9.459</ele>
  <time>2026-09-02T22:13:03Z</time>
  <course>187.35</course>
  <speed>1.697056274847714</speed>
  <fix>3d</fix>
</trkpt>
<trkpt lat="33.8102425" lon="-118.3938985">
  <ele>-7.37</ele>
  <time>2026-09-02T22:13:03Z</time>
  <course>186.92</course>
  <speed>1.76</speed>
  <fix>3d</fix>
</trkpt>
<trkpt lat="33.810243" lon="-118.3938778">
  <ele>-9.46</ele>
  <time>2026-09-02T22:13:03Z</time>
  <course>187.35</course>
  <speed>1.6984993376507393</speed>
  <fix>3d</fix>
</trkpt>
<trkpt lat="33.8102425" lon="-118.3938985">
  <ele>-7.37</ele>
  <time>2026-09-02T22:13:03Z</time>
  <course>186.92</course>
  <speed>1.76</speed>
  <fix>3d</fix>
</trkpt>
<trkpt lat="33.8102414" lon="-118.393878">
  <ele>-9.46</ele>
  <time>2026-09-02T22:13:03Z</time>
  <course>187.35</course>
  <speed>1.647573974060042</speed>
  <fix>3d</fix>
</trkpt>
<trkpt lat="33.8102376" lon="-118.3938983">
  <ele>-7.38</ele>
  <time>2026-09-02T22:13:03Z</time>
  <course>186.93</course>
  <speed>1.75</speed>
  <fix>3d</fix>
</trkpt>
<trkpt lat="33.81024" lon="-118.3938783">
  <ele>-9.461</ele>
  <time>2026-09-02T22:13:03Z</time>
  <course>187.34</course>
  <speed>1.54719100307622</speed>
  <fix>3d</fix>
</trkpt>
<trkpt lat="33.8102376" lon="-118.3938983">
  <ele>-7.38</ele>
  <time>2026-09-02T22:13:03Z</time>
  <course>186.93</course>
  <speed>1.75</speed>
  <fix>3d</fix>
</trkpt>
<trkpt lat="33.8102386" lon="-118.3938785">
  <ele>-9.459</ele>
  <time>2026-09-02T22:13:03Z</time>
  <course>187.35</course>
  <speed>1.3958868148958208</speed>
  <fix>3d</fix>
</trkpt>
<trkpt lat="33.8102329" lon="-118.3938979">
  <ele>-7.38</ele>
  <time>2026-09-02T22:13:03Z</time>
  <course>186.94</course>
  <speed>1.65</speed>
  <fix>3d</fix>
</trkpt>
<trkpt lat="33.8102373" lon="-118.3938787">
  <ele>-9.443</ele>
  <time>2026-09-02T22:13:03Z</time>
  <course>187.34</course>
  <speed>1.213424904969401</speed>
  <fix>3d</fix>
</trkpt>
<trkpt lat="33.8102329" lon="-118.3938979">
  <ele>-7.38</ele>
  <time>2026-09-02T22:13:03Z</time>
  <course>186.94</course>
  <speed>1.65</speed>
  <fix>3d</fix>
</trkpt>
<trkpt lat="33.8102362" lon="-118.3938789">
  <ele>-9.404</ele>
  <time>2026-09-02T22:13:03Z</time>
  <course>187.34</course>
  <speed>1.0522357150372725</speed>
  <fix>3d</fix>
</trkpt>
<trkpt lat="33.8102286" lon="-118.3938972">
  <ele>-7.36</ele>
  <time>2026-09-02T22:13:03Z</time>
  <course>186.96</course>
  <speed>1.38</speed>
  <fix>3d</fix>
</trkpt>
<trkpt lat="33.8102362" lon="-118.3938789">
  <ele>-9.403</ele>
  <time>2026-09-02T22:13:03Z</time>
  <course>187.34</course>
  <speed>1.0522357150372725</speed>
  <fix>3d</fix>
</trkpt>
<trkpt lat="33.8102351" lon="-118.393879">
  <ele>-9.346</ele>
  <time>2026-09-02T22:13:03Z</time>
  <course>187.34</course>
  <speed>0.8910667763978185</speed>
  <fix>3d</fix>
</trkpt>
<trkpt lat="33.8102286" lon="-118.3938972">
  <ele>-7.36</ele>
  <time>2026-09-02T22:13:03Z</time>
  <course>186.96</course>
  <speed>1.38</speed>
  <fix>3d</fix>
</trkpt>
<trkpt lat="33.8102351" lon="-118.393879">
  <ele>-9.342</ele>
  <time>2026-09-02T22:13:03Z</time>
  <course>187.34</course>
  <speed>0.8811923740024082</speed>
  <fix>3d</fix>
</trkpt>
<trkpt lat="33.8102342" lon="-118.3938792">
  <ele>-9.266</ele>
  <time>2026-09-02T22:13:03Z</time>
  <course>187.35</course>
  <speed>0.7299315036357864</speed>
  <fix>3d</fix>
</trkpt>
<trkpt lat="33.810225" lon="-118.3938963">
  <ele>-7.28</ele>
  <time>2026-09-02T22:13:03Z</time>
  <course>187.02</course>
  <speed>1.04</speed>
  <fix>3d</fix>
</trkpt>
<trkpt lat="33.8102342" lon="-118.3938792">
  <ele>-9.264</ele>
  <time>2026-09-02T22:13:03Z</time>
  <course>187.35</course>
  <speed>0.7299315036357864</speed>
  <fix>3d</fix>
</trkpt>
<trkpt lat="33.8102334" lon="-118.3938793">
  <ele>-9.166</ele>
  <time>2026-09-02T22:13:03Z</time>
  <course>187.36</course>
  <speed>0.61</speed>
  <fix>3d</fix>
</trkpt>
<trkpt lat="33.810225" lon="-118.3938963">
  <ele>-7.28</ele>
  <time>2026-09-02T22:13:03Z</time>
  <course>187.02</course>
  <speed>1.04</speed>
  <fix>3d</fix>
</trkpt>
<trkpt lat="33.8102334" lon="-118.3938793">
  <ele>-9.163</ele>
  <time>2026-09-02T22:13:03Z</time>
  <course>187.36</course>
  <speed>0.61</speed>
  <fix>3d</fix>
</trkpt>
<trkpt lat="33.8102327" lon="-118.3938794">
  <ele>-9.046</ele>
  <time>2026-09-02T22:13:03Z</time>
  <course>187.35</course>
  <speed>0.5295280917949491</speed>
  <fix>3d</fix>
</trkpt>
<trkpt lat="33.810222" lon="-118.3938951">
  <ele>-7.13</ele>
  <time>2026-09-02T22:13:03Z</time>
  <course>187.07</course>
  <speed>0.74</speed>
  <fix>3d</fix>
</trkpt>
<trkpt lat="33.8102327" lon="-118.3938794">
  <ele>-9.043</ele>
  <time>2026-09-02T22:13:03Z</time>
  <course>187.35</course>
  <speed>0.517880295048962</speed>
  <fix>3d</fix>
</trkpt>
<trkpt lat="33.8102321" lon="-118.3938795">
  <ele>-8.918</ele>
  <time>2026-09-02T22:13:03Z</time>
  <course>187.28</course>
  <speed>0.4589117562233506</speed>
  <fix>3d</fix>
</trkpt>
<trkpt lat="33.810222" lon="-118.3938951">
  <ele>-7.13</ele>
  <time>2026-09-02T22:13:03Z</time>
  <course>187.07</course>
  <speed>0.74</speed>
  <fix>3d</fix>
</trkpt>
<trkpt lat="33.8102321" lon="-118.3938795">
  <ele>-8.915</ele>
  <time>2026-09-02T22:13:03Z</time>
  <course>187.28</course>
  <speed>0.4589117562233506</speed>
  <fix>3d</fix>
</trkpt>
<trkpt lat="33.8102316" lon="-118.3938796">
  <ele>-8.788</ele>
  <time>2026-09-02T22:13:03Z</time>
  <course>187.16</course>
  <speed>0.4079215610874228</speed>
  <fix>3d</fix>
</trkpt>
<trkpt lat="33.8102197" lon="-118.3938937">
  <ele>-6.91</ele>
  <time>2026-09-02T22:13:03Z</time>
  <course>186.94</course>
  <speed>0.52</speed>
  <fix>3d</fix>
</trkpt>
<trkpt lat="33.8102316" lon="-118.3938796">
  <ele>-8.784</ele>
  <time>2026-09-02T22:13:03Z</time>
  <course>187.15</course>
  <speed>0.4079215610874228</speed>
  <fix>3d</fix>
</trkpt>
<trkpt lat="33.8102311" lon="-118.3938797">
  <ele>-8.655</ele>
  <time>2026-09-02T22:13:03Z</time>
  <course>186.98</course>
  <speed>0.366742416417845</speed>
  <fix>3d</fix>
</trkpt>
<trkpt lat="33.8102197" lon="-118.3938937">
  <ele>-6.91</ele>
  <time>2026-09-02T22:13:03Z</time>
  <course>186.94</course>
  <speed>0.52</speed>
  <fix>3d</fix>
</trkpt>
<trkpt lat="33.8102311" lon="-118.3938797">
  <ele>-8.651</ele>
  <time>2026-09-02T22:13:03Z</time>
  <course>186.97</course>
  <speed>0.356931365951495</speed>
  <fix>3d</fix>
</trkpt>
<trkpt lat="33.8102307" lon="-118.3938798">
  <ele>-8.522</ele>
  <time>2026-09-02T22:13:03Z</time>
  <course>186.77</course>
  <speed>0.327566787083184</speed>
  <fix>3d</fix>
</trkpt>
<trkpt lat="33.8102178" lon="-118.3938921">
  <ele>-6.67</ele>
  <time>2026-09-02T22:13:03Z</time>
  <course>186.71</course>
  <speed>0.4</speed>
  <fix>3d</fix>
</trkpt>
<trkpt lat="33.8102307" lon="-118.3938798">
  <ele>-8.517</ele>
  <time>2026-09-02T22:13:03Z</time>
  <course>186.76</course>
  <speed>0.327566787083184</speed>
  <fix>3d</fix>
</trkpt>
<trkpt lat="33.8102304" lon="-118.3938799">
  <ele>-8.389</ele>
  <time>2026-09-02T22:13:03Z</time>
  <course>186.53</course>
  <speed>0.2863564212655271</speed>
  <fix>3d</fix>
</trkpt>
<trkpt lat="33.8102178" lon="-118.3938921">
  <ele>-6.67</ele>
  <time>2026-09-02T22:13:03Z</time>
  <course>186.71</course>
  <speed>0.4</speed>
  <fix>3d</fix>
</trkpt>
<trkpt lat="33.8102304" lon="-118.3938799">
  <ele>-8.385</ele>
  <time>2026-09-02T22:13:03Z</time>
  <course>186.52</course>
  <speed>0.2863564212655271</speed>
  <fix>3d</fix>
</trkpt>
<trkpt lat="33.8102301" lon="-118.3938799">
  <ele>-8.256</ele>
  <time>2026-09-02T22:13:03Z</time>
  <course>186.3</course>
  <speed>0.2570992026436488</speed>
  <fix>3d</fix>
</trkpt>
<trkpt lat="33.8102162" lon="-118.3938904">
  <ele>-6.42</ele>
  <time>2026-09-02T22:13:03Z</time>
  <course>186.54</course>
  <speed>0.3</speed>
  <fix>3d</fix>
</trkpt>
<trkpt lat="33.8102301" lon="-118.3938799">
  <ele>-8.252</ele>
  <time>2026-09-02T22:13:03Z</time>
  <course>186.29</course>
  <speed>0.2570992026436488</speed>
  <fix>3d</fix>
</trkpt>
<trkpt lat="33.8102299" lon="-118.39388">
  <ele>-8.124</ele>
  <time>2026-09-02T22:13:03Z</time>
  <course>186.12</course>
  <speed>0.2353720459187964</speed>
  <fix>3d</fix>
</trkpt>
<trkpt lat="33.8102162" lon="-118.3938904">
  <ele>-6.42</ele>
  <time>2026-09-02T22:13:03Z</time>
  <course>186.54</course>
  <speed>0.3</speed>
  <fix>3d</fix>
</trkpt>
<trkpt lat="33.8102298" lon="-118.39388">
  <ele>-8.12</ele>
  <time>2026-09-02T22:13:03Z</time>
  <course>186.12</course>
  <speed>0.2353720459187964</speed>
  <fix>3d</fix>
</trkpt>
<trkpt lat="33.8102296" lon="-118.39388">
  <ele>-7.993</ele>
  <time>2026-09-02T22:13:03Z</time>
  <course>186.11</course>
  <speed>0.215870331449229</speed>
  <fix>3d</fix>
</trkpt>
<trkpt lat="33.8102149" lon="-118.3938885">
  <ele>-6.18</ele>
  <time>2026-09-02T22:13:03Z</time>
  <course>186.28</course>
  <speed>0.24</speed>
  <fix>3d</fix>
</trkpt>
<trkpt lat="33.8102296" lon="-118.39388">
  <ele>-7.989</ele>
  <time>2026-09-02T22:13:03Z</time>
  <course>186.12</course>
  <speed>0.215870331449229</speed>
  <fix>3d</fix>
</trkpt>
<trkpt lat="33.8102294" lon="-118.3938801">
  <ele>-7.864</ele>
  <time>2026-09-02T22:13:03Z</time>
  <course>186.36</course>
  <speed>0.194164878389476</speed>
  <fix>3d</fix>
</trkpt>
<trkpt lat="33.8102149" lon="-118.3938885">
  <ele>-6.18</ele>
  <time>2026-09-02T22:13:03Z</time>
  <course>186.28</course>
  <speed>0.24</speed>
  <fix>3d</fix>
</trkpt>
<trkpt lat="33.8102294" lon="-118.3938801">
  <ele>-7.861</ele>
  <time>2026-09-02T22:13:03Z</time>
  <course>186.37</course>
  <speed>0.194164878389476</speed>
  <fix>3d</fix>
</trkpt>
<trkpt lat="33.8102293" lon="-118.3938801">
  <ele>-7.737</ele>
  <time>2026-09-02T22:13:03Z</time>
  <course>186.85</course>
  <speed>0.17262676501632068</speed>
  <fix>3d</fix>
</trkpt>
<trkpt lat="33.8102139" lon="-118.3938865">
  <ele>-5.93</ele>
  <time>2026-09-02T22:13:03Z</time>
  <course>184.59</course>
  <speed>0.19</speed>
  <fix>3d</fix>
</trkpt>
<trkpt lat="33.8102292" lon="-118.3938801">
  <ele>-7.734</ele>
  <time>2026-09-02T22:13:03Z</time>
  <course>186.86</course>
  <speed>0.17262676501632068</speed>
  <fix>3d</fix>
</trkpt>
<trkpt lat="33.8102291" lon="-118.3938801">
  <ele>-7.611</ele>
  <time>2026-09-02T22:13:03Z</time>
  <course>187.42</course>
  <speed>0.15297058540778355</speed>
  <fix>3d</fix>
</trkpt>
<trkpt lat="33.8102139" lon="-118.3938865">
  <ele>-5.93</ele>
  <time>2026-09-02T22:13:03Z</time>
  <course>184.59</course>
  <speed>0.19</speed>
  <fix>3d</fix>
</trkpt>
<trkpt lat="33.8102291" lon="-118.3938801">
  <ele>-7.608</ele>
  <time>2026-09-02T22:13:03Z</time>
  <course>187.43</course>
  <speed>0.15297058540778355</speed>
  <fix>3d</fix>
</trkpt>
<trkpt lat="33.810229" lon="-118.3938801">
  <ele>-7.486</ele>
  <time>2026-09-02T22:13:03Z</time>
  <course>187.93</course>
  <speed>0.13341664064126335</speed>
  <fix>3d</fix>
</trkpt>
<trkpt lat="33.8102131" lon="-118.3938845">
  <ele>-5.68</ele>
  <time>2026-09-02T22:13:03Z</time>
  <course>181.22</course>
  <speed>0.15</speed>
  <fix>3d</fix>
</trkpt>
<trkpt lat="33.810229" lon="-118.3938801">
  <ele>-7.483</ele>
  <time>2026-09-02T22:13:03Z</time>
  <course>187.94</course>
  <speed>0.13341664064126335</speed>
  <fix>3d</fix>
</trkpt>
<trkpt lat="33.8102289" lon="-118.3938802">
  <ele>-7.362</ele>
  <time>2026-09-02T22:13:03Z</time>
  <course>188.32</course>
  <speed>0.11401754250991379</speed>
  <fix>3d</fix>
</trkpt>
<trkpt lat="33.8102131" lon="-118.3938845">
  <ele>-5.68</ele>
  <time>2026-09-02T22:13:03Z</time>
  <course>181.22</course>
  <speed>0.15</speed>
  <fix>3d</fix>
</trkpt>
<trkpt lat="33.8102288" lon="-118.3938802">
  <ele>-7.36</ele>
  <time>2026-09-02T22:13:03Z</time>
  <course>188.33</course>
  <speed>0.11401754250991379</speed>
  <fix>3d</fix>
</trkpt>
<trkpt lat="33.8102288" lon="-118.3938802">
  <ele>-7.238</ele>
  <time>2026-09-02T22:13:03Z</time>
  <course>188.59</course>
  <speed>0.09486832980505139</speed>
  <fix>3d</fix>
</trkpt>
<trkpt lat="33.8102126" lon="-118.3938823">
  <ele>-5.44</ele>
  <time>2026-09-02T22:13:03Z</time>
  <course>178.26</course>
  <speed>0.11</speed>
  <fix>3d</fix>
</trkpt>
<trkpt lat="33.8102288" lon="-118.3938802">
  <ele>-7.235</ele>
  <time>2026-09-02T22:13:03Z</time>
  <course>188.59</course>
  <speed>0.09486832980505139</speed>
  <fix>3d</fix>
</trkpt>
<trkpt lat="33.8102287" lon="-118.3938802">
  <ele>-7.114</ele>
  <time>2026-09-02T22:13:03Z</time>
  <course>188.74</course>
  <speed>0.07280109889280519</speed>
  <fix>3d</fix>
</trkpt>
<trkpt lat="33.8102126" lon="-118.3938823">
  <ele>-5.44</ele>
  <time>2026-09-02T22:13:03Z</time>
  <course>178.26</course>
  <speed>0.11</speed>
  <fix>3d</fix>
</trkpt>
<trkpt lat="33.8102287" lon="-118.3938802">
  <ele>-7.112</ele>
  <time>2026-09-02T22:13:03Z</time>
  <course>188.74</course>
  <speed>0.07280109889280519</speed>
  <fix>3d</fix>
</trkpt>
<trkpt lat="33.8102286" lon="-118.3938802">
  <ele>-6.99</ele>
  <time>2026-09-02T22:13:03Z</time>
  <course>188.76</course>
  <speed>0.053851648071345036</speed>
  <fix>3d</fix>
</trkpt>
<trkpt lat="33.8102123" lon="-118.3938802">
  <ele>-5.19</ele>
  <time>2026-09-02T22:13:03Z</time>
  <course>175.94</course>
  <speed>0.07</speed>
  <fix>3d</fix>
</trkpt>
<trkpt lat="33.8102286" lon="-118.3938802">
  <ele>-6.988</ele>
  <time>2026-09-02T22:13:03Z</time>
  <course>188.76</course>
  <speed>0.053851648071345036</speed>
  <fix>3d</fix>
</trkpt>
<trkpt lat="33.8102286" lon="-118.3938802">
  <ele>-6.865</ele>
  <time>2026-09-02T22:13:03Z</time>
  <course>188.69</course>
  <speed>0.044721359549995794</speed>
  <fix>3d</fix>
</trkpt>
<trkpt lat="33.8102123" lon="-118.3938802">
  <ele>-5.19</ele>
  <time>2026-09-02T22:13:03Z</time>
  <course>175.94</course>
  <speed>0.07</speed>
  <fix>3d</fix>
</trkpt>
<trkpt lat="33.8102286" lon="-118.3938802">
  <ele>-6.863</ele>
  <time>2026-09-02T22:13:03Z</time>
  <course>188.69</course>
  <speed>0.044721359549995794</speed>
  <fix>3d</fix>
</trkpt>
<trkpt lat="33.8102286" lon="-118.3938802">
  <ele>-6.741</ele>
  <time>2026-09-02T22:13:03Z</time>
  <course>188.55</course>
  <speed>0.0282842712474619</speed>
  <fix>3d</fix>
</trkpt>
<trkpt lat="33.8102123" lon="-118.393878">
  <ele>-4.94</ele>
  <time>2026-09-02T22:13:03Z</time>
  <course>171.78</course>
  <speed>0.04</speed>
  <fix>3d</fix>
</trkpt>
<trkpt lat="33.8102286" lon="-118.3938802">
  <ele>-6.739</ele>
  <time>2026-09-02T22:13:03Z</time>
  <course>188.55</course>
  <speed>0.0282842712474619</speed>
  <fix>3d</fix>
</trkpt>
<trkpt lat="33.8102285" lon="-118.3938801">
  <ele>-6.615</ele>
  <time>2026-09-02T22:13:03Z</time>
  <course>188.4</course>
  <speed>0.022360679774997897</speed>
  <fix>3d</fix>
</trkpt>
<trkpt lat="33.8102123" lon="-118.393878">
  <ele>-4.94</ele>
  <time>2026-09-02T22:13:03Z</time>
  <course>171.78</course>
  <speed>0.04</speed>
  <fix>3d</fix>
</trkpt>
<trkpt lat="33.8102285" lon="-118.3938801">
  <ele>-6.612</ele>
  <time>2026-09-02T22:13:03Z</time>
  <course>188.39</course>
  <speed>0.022360679774997897</speed>
  <fix>3d</fix>
</trkpt>
<trkpt lat="33.8102285" lon="-118.3938801">
  <ele>-6.49</ele>
  <time>2026-09-02T22:13:03Z</time>
  <course>188.25</course>
  <speed>0.02</speed>
  <fix>3d</fix>
</trkpt>
<trkpt lat="33.8102125" lon="-118.3938759">
  <ele>-4.7</ele>
  <time>2026-09-02T22:13:03Z</time>
  <course>154.11</course>
  <speed>0.01</speed>
  <fix>3d</fix>
</trkpt>
<trkpt lat="33.8102285" lon="-118.3938801">
  <ele>-6.487</ele>
  <time>2026-09-02T22:13:03Z</time>
  <course>188.24</course>
  <speed>0.02</speed>
  <fix>3d</fix>
</trkpt>
<trkpt lat="33.8102286" lon="-118.3938801">
  <ele>-6.365</ele>
  <time>2026-09-02T22:13:03Z</time>
  <course>188.11</course>
  <speed>0.02</speed>
  <fix>3d</fix>
</trkpt>
<trkpt lat="33.8102125" lon="-118.3938759">
  <ele>-4.7</ele>
  <time>2026-09-02T22:13:03Z</time>
  <course>154.11</course>
  <speed>0.01</speed>
  <fix>3d</fix>
</trkpt>
<trkpt lat="33.8102286" lon="-118.3938801">
  <ele>-6.362</ele>
  <time>2026-09-02T22:13:03Z</time>
  <course>188.11</course>
  <speed>0.02</speed>
  <fix>3d</fix>
</trkpt>
<trkpt lat="33.8102286" lon="-118.3938801">
  <ele>-6.24</ele>
  <time>2026-09-02T22:13:03Z</time>
  <course>188.0</course>
  <speed>0.02</speed>
  <fix>3d</fix>
</trkpt>
<trkpt lat="33.8102129" lon="-118.3938738">
  <ele>-4.45</ele>
  <time>2026-09-02T22:13:03Z</time>
  <course>66.64</course>
  <speed>0.01</speed>
  <fix>3d</fix>
</trkpt>
<trkpt lat="33.8102286" lon="-118.3938801">
  <ele>-6.236</ele>
  <time>2026-09-02T22:13:03Z</time>
  <course>188.0</course>
  <speed>0.02</speed>
  <fix>3d</fix>
</trkpt>
<trkpt lat="33.8102286" lon="-118.3938801">
  <ele>-6.114</ele>
  <time>2026-09-02T22:13:03Z</time>
  <course>187.92</course>
  <speed>0.01414213562373095</speed>
  <fix>3d</fix>
</trkpt>
<trkpt lat="33.8102129" lon="-118.3938738">
  <ele>-4.45</ele>
  <time>2026-09-02T22:13:03Z</time>
  <course>66.64</course>
  <speed>0.01</speed>
  <fix>3d</fix>
</trkpt>
<trkpt lat="33.8102286" lon="-118.3938801">
  <ele>-6.11</ele>
  <time>2026-09-02T22:13:03Z</time>
  <course>187.92</course>
  <speed>0.01414213562373095</speed>
  <fix>3d</fix>
</trkpt>
<trkpt lat="33.8102286" lon="-118.3938801">
  <ele>-5.988</ele>
  <time>2026-09-02T22:13:03Z</time>
  <course>187.84</course>
  <speed>0.022360679774997897</speed>
  <fix>3d</fix>
</trkpt>
<trkpt lat="33.8102135" lon="-118.3938717">
  <ele>-4.2</ele>
  <time>2026-09-02T22:13:03Z</time>
  <course>33.53</course>
  <speed>0.02</speed>
  <fix>3d</fix>
</trkpt>
<trkpt lat="33.8102286" lon="-118.3938801">
  <ele>-5.984</ele>
  <time>2026-09-02T22:13:03Z</time>
  <course>187.84</course>
  <speed>0.022360679774997897</speed>
  <fix>3d</fix>
</trkpt>
<trkpt lat="33.8102286" lon="-118.3938801">
  <ele>-5.863</ele>
  <time>2026-09-02T22:13:03Z</time>
  <course>187.73</course>
  <speed>0.022360679774997897</speed>
  <fix>3d</fix>
</trkpt>
<trkpt lat="33.8102135" lon="-118.3938717">
  <ele>-4.2</ele>
  <time>2026-09-02T22:13:03Z</time>
  <course>33.53</course>
  <speed>0.02</speed>
  <fix>3d</fix>
</trkpt>
<trkpt lat="33.8102286" lon="-118.3938801">
  <ele>-5.859</ele>
  <time>2026-09-02T22:13:03Z</time>
  <course>187.73</course>
  <speed>0.022360679774997897</speed>
  <fix>3d</fix>
</trkpt>
<trkpt lat="33.8102287" lon="-118.3938801">
  <ele>-5.739</ele>
  <time>2026-09-02T22:13:03Z</time>
  <course>187.63</course>
  <speed>0.022360679774997897</speed>
  <fix>3d</fix>
</trkpt>
<trkpt lat="33.8102143" lon="-118.3938698">
  <ele>-3.96</ele>
  <time>2026-09-02T22:13:03Z</time>
  <course>27.09</course>
  <speed>0.02</speed>
  <fix>3d</fix>
</trkpt>
<trkpt lat="33.8102287" lon="-118.3938801">
  <ele>-5.735</ele>
  <time>2026-09-02T22:13:03Z</time>
  <course>187.62</course>
  <speed>0.022360679774997897</speed>
  <fix>3d</fix>
</trkpt>
<trkpt lat="33.8102287" lon="-118.3938801">
  <ele>-5.613</ele>
  <time>2026-09-02T22:13:03Z</time>
  <course>187.53</course>
  <speed>0.022360679774997897</speed>
  <fix>3d</fix>
</trkpt>
<trkpt lat="33.8102143" lon="-118.3938698">
  <ele>-3.96</ele>
  <time>2026-09-02T22:13:03Z</time>
  <course>27.09</course>
  <speed>0.02</speed>
  <fix>3d</fix>
</trkpt>
<trkpt lat="33.8102287" lon="-118.3938801">
  <ele>-5.61</ele>
  <time>2026-09-02T22:13:03Z</time>
  <course>187.52</course>
  <speed>0.022360679774997897</speed>
  <fix>3d</fix>
</trkpt>
<trkpt lat="33.8102287" lon="-118.39388">
  <ele>-5.488</ele>
  <time>2026-09-02T22:13:03Z</time>
  <course>187.43</course>
  <speed>0.022360679774997897</speed>
  <fix>3d</fix>
</trkpt>
<trkpt lat="33.8102152" lon="-118.3938679">
  <ele>-3.71</ele>
  <time>2026-09-02T22:13:03Z</time>
  <course>25.83</course>
  <speed>0.02</speed>
  <fix>3d</fix>
</trkpt>
<trkpt lat="33.8102287" lon="-118.39388">
  <ele>-5.485</ele>
  <time>2026-09-02T22:13:03Z</time>
  <course>187.43</course>
  <speed>0.022360679774997897</speed>
  <fix>3d</fix>
</trkpt>
<trkpt lat="33.8102287" lon="-118.39388">
  <ele>-5.363</ele>
  <time>2026-09-02T22:13:03Z</time>
  <course>187.34</course>
  <speed>0.022360679774997897</speed>
  <fix>3d</fix>
</trkpt>
<trkpt lat="33.8102152" lon="-118.3938679">
  <ele>-3.71</ele>
  <time>2026-09-02T22:13:03Z</time>
  <course>25.83</course>
  <speed>0.02</speed>
  <fix>3d</fix>
</trkpt>
<trkpt lat="33.8102287" lon="-118.39388">
  <ele>-5.36</ele>
  <time>2026-09-02T22:13:03Z</time>
  <course>187.34</course>
  <speed>0.022360679774997897</speed>
  <fix>3d</fix>
</trkpt>
<trkpt lat="33.8102288" lon="-118.39388">
  <ele>-5.238</ele>
  <time>2026-09-02T22:13:03Z</time>
  <course>187.25</course>
  <speed>0.022360679774997897</speed>
  <fix>3d</fix>
</trkpt>
<trkpt lat="33.8102163" lon="-118.3938661">
  <ele>-3.47</ele>
  <time>2026-09-02T22:13:03Z</time>
  <course>26.12</course>
  <speed>0.02</speed>
  <fix>3d</fix>
</trkpt>
<trkpt lat="33.8102288" lon="-118.39388">
  <ele>-5.234</ele>
  <time>2026-09-02T22:13:03Z</time>
  <course>187.25</course>
  <speed>0.022360679774997897</speed>
  <fix>3d</fix>
</trkpt>
<trkpt lat="33.8102288" lon="-118.39388">
  <ele>-5.111</ele>
  <time>2026-09-02T22:13:03Z</time>
  <course>187.17</course>
  <speed>0.022360679774997897</speed>
  <fix>3d</fix>
</trkpt>
<trkpt lat="33.8102163" lon="-118.3938661">
  <ele>-3.47</ele>
  <time>2026-09-02T22:13:03Z</time>
  <course>26.12</course>
  <speed>0.02</speed>
  <fix>3d</fix>
</trkpt>
<trkpt lat="33.8102288" lon="-118.39388">
  <ele>-5.105</ele>
  <time>2026-09-02T22:13:03Z</time>
  <course>187.17</course>
  <speed>0.022360679774997897</speed>
  <fix>3d</fix>
</trkpt>
<trkpt lat="33.8102288" lon="-118.39388">
  <ele>-4.986</ele>
  <time>2026-09-02T22:13:03Z</time>
  <course>187.09</course>
  <speed>0.022360679774997897</speed>
  <fix>3d</fix>
</trkpt>
<trkpt lat="33.8102176" lon="-118.3938645">
  <ele>-3.22</ele>
  <time>2026-09-02T22:13:03Z</time>
  <course>26.42</course>
  <speed>0.02</speed>
  <fix>3d</fix>
</trkpt>
<trkpt lat="33.8102288" lon="-118.39388">
  <ele>-4.983</ele>
  <time>2026-09-02T22:13:03Z</time>
  <course>187.09</course>
  <speed>0.022360679774997897</speed>
  <fix>3d</fix>
</trkpt>
<trkpt lat="33.8102289" lon="-118.3938799">
  <ele>-4.86</ele>
  <time>2026-09-02T22:13:03Z</time>
  <course>187.01</course>
  <speed>0.022360679774997897</speed>
  <fix>3d</fix>
</trkpt>
<trkpt lat="33.8102176" lon="-118.3938645">
  <ele>-3.22</ele>
  <time>2026-09-02T22:13:03Z</time>
  <course>26.42</course>
  <speed>0.02</speed>
  <fix>3d</fix>
</trkpt>
<trkpt lat="33.8102289" lon="-118.3938799">
  <ele>-4.857</ele>
  <time>2026-09-02T22:13:03Z</time>
  <course>187.01</course>
  <speed>0.022360679774997897</speed>
  <fix>3d</fix>
</trkpt>
<trkpt lat="33.8102289" lon="-118.3938799">
  <ele>-4.736</ele>
  <time>2026-09-02T22:13:03Z</time>
  <course>186.94</course>
  <speed>0.022360679774997897</speed>
  <fix>3d</fix>
</trkpt>
<trkpt lat="33.8102189" lon="-118.393863">
  <ele>-2.97</ele>
  <time>2026-09-02T22:13:03Z</time>
  <course>26.71</course>
  <speed>0.02</speed>
  <fix>3d</fix>
</trkpt>
<trkpt lat="33.8102289" lon="-118.3938799">
  <ele>-4.732</ele>
  <time>2026-09-02T22:13:03Z</time>
  <course>186.93</course>
  <speed>0.022360679774997897</speed>
  <fix>3d</fix>
</trkpt>
<trkpt lat="33.8102289" lon="-118.3938799">
  <ele>-4.611</ele>
  <time>2026-09-02T22:13:03Z</time>
  <course>186.86</course>
  <speed>0.0316227766016838</speed>
  <fix>3d</fix>
</trkpt>
<trkpt lat="33.8102189" lon="-118.393863">
  <ele>-2.97</ele>
  <time>2026-09-02T22:13:03Z</time>
  <course>26.71</course>
  <speed>0.02</speed>
  <fix>3d</fix>
</trkpt>
<trkpt lat="33.8102289" lon="-118.3938799">
  <ele>-4.608</ele>
  <time>2026-09-02T22:13:03Z</time>
  <course>186.86</course>
  <speed>0.0316227766016838</speed>
  <fix>3d</fix>
</trkpt>
<trkpt lat="33.810229" lon="-118.3938799">
  <ele>-4.485</ele>
  <time>2026-09-02T22:13:03Z</time>
  <course>186.79</course>
  <speed>0.0316227766016838</speed>
  <fix>3d</fix>
</trkpt>
<trkpt lat="33.8102204" lon="-118.3938617">
  <ele>-2.73</ele>
  <time>2026-09-02T22:13:03Z</time>
  <course>27.0</course>
  <speed>0.02</speed>
  <fix>3d</fix>
</trkpt>
<trkpt lat="33.810229" lon="-118.3938799">
  <ele>-4.483</ele>
  <time>2026-09-02T22:13:03Z</time>
  <course>186.79</course>
  <speed>0.0316227766016838</speed>
  <fix>3d</fix>
</trkpt>
<trkpt lat="33.810229" lon="-118.3938799">
  <ele>-4.359</ele>
  <time>2026-09-02T22:13:03Z</time>
  <course>186.72</course>
  <speed>0.0316227766016838</speed>
  <fix>3d</fix>
</trkpt>
<trkpt lat="33.8102204" lon="-118.3938617">
  <ele>-2.73</ele>
  <time>2026-09-02T22:13:03Z</time>
  <course>27.0</course>
  <speed>0.02</speed>
  <fix>3d</fix>
</trkpt>
<trkpt lat="33.810229" lon="-118.3938799">
  <ele>-4.357</ele>
  <time>2026-09-02T22:13:03Z</time>
  <course>186.72</course>
  <speed>0.0316227766016838</speed>
  <fix>3d</fix>
</trkpt>
<trkpt lat="33.810229" lon="-118.3938798">
  <ele>-4.233</ele>
  <time>2026-09-02T22:13:03Z</time>
  <course>186.7</course>
  <speed>0.0316227766016838</speed>
  <fix>3d</fix>
</trkpt>
<trkpt lat="33.810222" lon="-118.3938606">
  <ele>-2.48</ele>
  <time>2026-09-02T22:13:03Z</time>
  <course>26.95</course>
  <speed>0.02</speed>
  <fix>3d</fix>
</trkpt>
<trkpt lat="33.810229" lon="-118.3938798">
  <ele>-4.231</ele>
  <time>2026-09-02T22:13:03Z</time>
  <course>186.7</course>
  <speed>0.0316227766016838</speed>
  <fix>3d</fix>
</trkpt>
<trkpt lat="33.810229" lon="-118.3938798">
  <ele>-4.107</ele>
  <time>2026-09-02T22:13:03Z</time>
  <course>186.8</course>
  <speed>0.0316227766016838</speed>
  <fix>3d</fix>
</trkpt>
<trkpt lat="33.810222" lon="-118.3938606">
  <ele>-2.48</ele>
  <time>2026-09-02T22:13:03Z</time>
  <course>26.95</course>
  <speed>0.02</speed>
  <fix>3d</fix>
</trkpt>
<trkpt lat="33.810229" lon="-118.3938798">
  <ele>-4.105</ele>
  <time>2026-09-02T22:13:03Z</time>
  <course>186.8</course>
  <speed>0.0316227766016838</speed>
  <fix>3d</fix>
</trkpt>
<trkpt lat="33.8102291" lon="-118.3938798">
  <ele>-3.981</ele>
  <time>2026-09-02T22:13:03Z</time>
  <course>186.98</course>
  <speed>0.03605551275463989</speed>
  <fix>3d</fix>
</trkpt>
<trkpt lat="33.8102237" lon="-118.3938597">
  <ele>-2.23</ele>
  <time>2026-09-02T22:13:03Z</time>
  <course>23.96</course>
  <speed>0.02</speed>
  <fix>3d</fix>
</trkpt>
<trkpt lat="33.8102291" lon="-118.3938798">
  <ele>-3.978</ele>
  <time>2026-09-02T22:13:03Z</time>
  <course>186.98</course>
  <speed>0.03605551275463989</speed>
  <fix>3d</fix>
</trkpt>
<trkpt lat="33.8102291" lon="-118.3938798">
  <ele>-3.854</ele>
  <time>2026-09-02T22:13:03Z</time>
  <course>187.21</course>
  <speed>0.03605551275463989</speed>
  <fix>3d</fix>
</trkpt>
<trkpt lat="33.8102237" lon="-118.3938597">
  <ele>-2.23</ele>
  <time>2026-09-02T22:13:03Z</time>
  <course>23.96</course>
  <speed>0.02</speed>
  <fix>3d</fix>
</trkpt>
<trkpt lat="33.8102291" lon="-118.3938798">
  <ele>-3.851</ele>
  <time>2026-09-02T22:13:03Z</time>
  <course>187.21</course>
  <speed>0.03605551275463989</speed>
  <fix>3d</fix>
</trkpt>
<trkpt lat="33.8102291" lon="-118.3938798">
  <ele>-3.726</ele>
  <time>2026-09-02T22:13:03Z</time>
  <course>187.46</course>
  <speed>0.03605551275463989</speed>
  <fix>3d</fix>
</trkpt>
<trkpt lat="33.8102254" lon="-118.393859">
  <ele>-1.99</ele>
  <time>2026-09-02T22:13:03Z</time>
  <course>17.83</course>
  <speed>0.01</speed>
  <fix>3d</fix>
</trkpt>
<trkpt lat="33.8102291" lon="-118.3938798">
  <ele>-3.723</ele>
  <time>2026-09-02T22:13:03Z</time>
  <course>187.46</course>
  <speed>0.03605551275463989</speed>
  <fix>3d</fix>
</trkpt>
<trkpt lat="33.8102291" lon="-118.3938798">
  <ele>-3.598</ele>
  <time>2026-09-02T22:13:03Z</time>
  <course>187.72</course>
  <speed>0.03605551275463989</speed>
  <fix>3d</fix>
</trkpt>
<trkpt lat="33.8102254" lon="-118.393859">
  <ele>-1.99</ele>
  <time>2026-09-02T22:13:03Z</time>
  <course>17.83</course>
  <speed>0.01</speed>
  <fix>3d</fix>
</trkpt>
<trkpt lat="33.8102291" lon="-118.3938798">
  <ele>-3.594</ele>
  <time>2026-09-02T22:13:03Z</time>
  <course>187.73</course>
  <speed>0.03605551275463989</speed>
  <fix>3d</fix>
</trkpt>
<trkpt lat="33.8102291" lon="-118.3938798">
  <ele>-3.47</ele>
  <time>2026-09-02T22:13:03Z</time>
  <course>187.99</course>
  <speed>0.03605551275463989</speed>
  <fix>3d</fix>
</trkpt>
<trkpt lat="33.8102272" lon="-118.3938585">
  <ele>-1.74</ele>
  <time>2026-09-02T22:13:03Z</time>
  <course>12.79</course>
  <speed>0.01</speed>
  <fix>3d</fix>
</trkpt>
<trkpt lat="33.8102291" lon="-118.3938798">
  <ele>-3.466</ele>
  <time>2026-09-02T22:13:03Z</time>
  <course>188.0</course>
  <speed>0.03605551275463989</speed>
  <fix>3d</fix>
</trkpt>
<trkpt lat="33.8102292" lon="-118.3938798">
  <ele>-3.341</ele>
  <time>2026-09-02T22:13:03Z</time>
  <course>188.22</course>
  <speed>0.03605551275463989</speed>
  <fix>3d</fix>
</trkpt>
<trkpt lat="33.8102272" lon="-118.3938585">
  <ele>-1.74</ele>
  <time>2026-09-02T22:13:03Z</time>
  <course>12.79</course>
  <speed>0.01</speed>
  <fix>3d</fix>
</trkpt>
<trkpt lat="33.8102292" lon="-118.3938798">
  <ele>-3.337</ele>
  <time>2026-09-02T22:13:03Z</time>
  <course>188.22</course>
  <speed>0.03605551275463989</speed>
  <fix>3d</fix>
</trkpt>
<trkpt lat="33.8102292" lon="-118.3938798">
  <ele>-3.212</ele>
  <time>2026-09-02T22:13:03Z</time>
  <course>188.39</course>
  <speed>0.03605551275463989</speed>
  <fix>3d</fix>
</trkpt>
<trkpt lat="33.810229" lon="-118.3938582">
  <ele>-1.5</ele>
  <time>2026-09-02T22:13:03Z</time>
  <course>3.9</course>
  <speed>0.01</speed>
  <fix>3d</fix>
</trkpt>
<trkpt lat="33.8102292" lon="-118.3938798">
  <ele>-3.208</ele>
  <time>2026-09-02T22:13:03Z</time>
  <course>188.4</course>
  <speed>0.03605551275463989</speed>
  <fix>3d</fix>
</trkpt>
<trkpt lat="33.8102292" lon="-118.3938798">
  <ele>-3.084</ele>
  <time>2026-09-02T22:13:03Z</time>
  <course>188.53</course>
  <speed>0.03605551275463989</speed>
  <fix>3d</fix>
</trkpt>
<trkpt lat="33.810229" lon="-118.3938582">
  <ele>-1.5</ele>
  <time>2026-09-02T22:13:03Z</time>
  <course>3.9</course>
  <speed>0.01</speed>
  <fix>3d</fix>
</trkpt>
<trkpt lat="33.8102292" lon="-118.3938798">
  <ele>-3.08</ele>
  <time>2026-09-02T22:13:03Z</time>
  <course>188.53</course>
  <speed>0.03605551275463989</speed>
  <fix>3d</fix>
</trkpt>
<trkpt lat="33.8102292" lon="-118.3938798">
  <ele>-2.955</ele>
  <time>2026-09-02T22:13:03Z</time>
  <course>188.64</course>
  <speed>0.04242640687119285</speed>
  <fix>3d</fix>
</trkpt>
<trkpt lat="33.8102308" lon="-118.3938581">
  <ele>-1.25</ele>
  <time>2026-09-02T22:13:04Z</time>
  <course>348.79</course>
  <speed>0.01</speed>
  <fix>3d</fix>
</trkpt>
<trkpt lat="33.8102292" lon="-118.3938797">
  <ele>-2.948</ele>
  <time>2026-09-02T22:13:04Z</time>
  <course>188.64</course>
  <speed>0.04242640687119285</speed>
  <fix>3d</fix>
</trkpt>
<trkpt lat="33.8102292" lon="-118.3938797">
  <ele>-2.826</ele>
  <time>2026-09-02T22:13:04Z</time>
  <course>188.73</course>
  <speed>0.04242640687119285</speed>
  <fix>3d</fix>
</trkpt>
<trkpt lat="33.8102308" lon="-118.3938581">
  <ele>-1.25</ele>
  <time>2026-09-02T22:13:04Z</time>
  <course>348.79</course>
  <speed>0.01</speed>
  <fix>3d</fix>
</trkpt>
<trkpt lat="33.8102292" lon="-118.3938797">
  <ele>-2.823</ele>
  <time>2026-09-02T22:13:04Z</time>
  <course>188.73</course>
  <speed>0.04242640687119285</speed>
  <fix>3d</fix>
</trkpt>
<trkpt lat="33.8102292" lon="-118.3938797">
  <ele>-2.697</ele>
  <time>2026-09-02T22:13:04Z</time>
  <course>188.8</course>
  <speed>0.04242640687119285</speed>
  <fix>3d</fix>
</trkpt>
<trkpt lat="33.8102327" lon="-118.3938583">
  <ele>-1.01</ele>
  <time>2026-09-02T22:13:04Z</time>
  <course>335.51</course>
  <speed>0.01</speed>
  <fix>3d</fix>
</trkpt>
<trkpt lat="33.8102292" lon="-118.3938797">
  <ele>-2.694</ele>
  <time>2026-09-02T22:13:04Z</time>
  <course>188.8</course>
  <speed>0.04242640687119285</speed>
  <fix>3d</fix>
</trkpt>
<trkpt lat="33.8102293" lon="-118.3938797">
  <ele>-2.568</ele>
  <time>2026-09-02T22:13:04Z</time>
  <course>188.84</course>
  <speed>0.04242640687119285</speed>
  <fix>3d</fix>
</trkpt>
<trkpt lat="33.8102327" lon="-118.3938583">
  <ele>-1.01</ele>
  <time>2026-09-02T22:13:04Z</time>
  <course>335.51</course>
  <speed>0.01</speed>
  <fix>3d</fix>
</trkpt>
<trkpt lat="33.8102293" lon="-118.3938797">
  <ele>-2.565</ele>
  <time>2026-09-02T22:13:04Z</time>
  <course>188.84</course>
  <speed>0.04242640687119285</speed>
  <fix>3d</fix>
</trkpt>
<trkpt lat="33.8102293" lon="-118.3938797">
  <ele>-2.44</ele>
  <time>2026-09-02T22:13:04Z</time>
  <course>188.84</course>
  <speed>0.04242640687119285</speed>
  <fix>3d</fix>
</trkpt>
<trkpt lat="33.8102345" lon="-118.3938586">
  <ele>-0.76</ele>
  <time>2026-09-02T22:13:04Z</time>
  <course>325.95</course>
  <speed>0.02</speed>
  <fix>3d</fix>
</trkpt>
<trkpt lat="33.8102293" lon="-118.3938797">
  <ele>-2.436</ele>
  <time>2026-09-02T22:13:04Z</time>
  <course>188.84</course>
  <speed>0.04242640687119285</speed>
  <fix>3d</fix>
</trkpt>
<trkpt lat="33.8102293" lon="-118.3938797">
  <ele>-2.312</ele>
  <time>2026-09-02T22:13:04Z</time>
  <course>188.84</course>
  <speed>0.04242640687119285</speed>
  <fix>3d</fix>
</trkpt>
<trkpt lat="33.8102345" lon="-118.3938586">
  <ele>-0.76</ele>
  <time>2026-09-02T22:13:04Z</time>
  <course>325.95</course>
  <speed>0.02</speed>
  <fix>3d</fix>
</trkpt>
<trkpt lat="33.8102293" lon="-118.3938797">
  <ele>-2.309</ele>
  <time>2026-09-02T22:13:04Z</time>
  <course>188.84</course>
  <speed>0.04242640687119285</speed>
  <fix>3d</fix>
</trkpt>
<trkpt lat="33.8102293" lon="-118.3938798">
  <ele>-2.185</ele>
  <time>2026-09-02T22:13:04Z</time>
  <course>188.81</course>
  <speed>0.04242640687119285</speed>
  <fix>3d</fix>
</trkpt>
<trkpt lat="33.8102362" lon="-118.3938592">
  <ele>-0.51</ele>
  <time>2026-09-02T22:13:04Z</time>
  <course>317.83</course>
  <speed>0.01</speed>
  <fix>3d</fix>
</trkpt>
<trkpt lat="33.8102293" lon="-118.3938798">
  <ele>-2.178</ele>
  <time>2026-09-02T22:13:04Z</time>
  <course>188.81</course>
  <speed>0.04242640687119285</speed>
  <fix>3d</fix>
</trkpt>
<trkpt lat="33.8102293" lon="-118.3938798">
  <ele>-2.058</ele>
  <time>2026-09-02T22:13:04Z</time>
  <course>188.73</course>
  <speed>0.04242640687119285</speed>
  <fix>3d</fix>
</trkpt>
<trkpt lat="33.8102362" lon="-118.3938592">
  <ele>-0.51</ele>
  <time>2026-09-02T22:13:04Z</time>
  <course>317.83</course>
  <speed>0.01</speed>
  <fix>3d</fix>
</trkpt>
<trkpt lat="33.8102293" lon="-118.3938798">
  <ele>-2.054</ele>
  <time>2026-09-02T22:13:04Z</time>
  <course>188.73</course>
  <speed>0.04242640687119285</speed>
  <fix>3d</fix>
</trkpt>
<trkpt lat="33.8102293" lon="-118.3938798">
  <ele>-1.932</ele>
  <time>2026-09-02T22:13:04Z</time>
  <course>188.63</course>
  <speed>0.04242640687119285</speed>
  <fix>3d</fix>
</trkpt>
<trkpt lat="33.8102379" lon="-118.39386">
  <ele>-0.27</ele>
  <time>2026-09-02T22:13:04Z</time>
  <course>309.23</course>
  <speed>0.01</speed>
  <fix>3d</fix>
</trkpt>
<trkpt lat="33.8102293" lon="-118.3938798">
  <ele>-1.923</ele>
  <time>2026-09-02T22:13:04Z</time>
  <course>188.62</course>
  <speed>0.04242640687119285</speed>
  <fix>3d</fix>
</trkpt>
<trkpt lat="33.8102293" lon="-118.3938798">
  <ele>-1.806</ele>
  <time>2026-09-02T22:13:04Z</time>
  <course>188.51</course>
  <speed>0.04242640687119285</speed>
  <fix>3d</fix>
</trkpt>
<trkpt lat="33.8102379" lon="-118.39386">
  <ele>-0.27</ele>
  <time>2026-09-02T22:13:04Z</time>
  <course>309.23</course>
  <speed>0.01</speed>
  <fix>3d</fix>
</trkpt>
<trkpt lat="33.8102293" lon="-118.3938798">
  <ele>-1.804</ele>
  <time>2026-09-02T22:13:04Z</time>
  <course>188.5</course>
  <speed>0.04242640687119285</speed>
  <fix>3d</fix>
</trkpt>
<trkpt lat="33.8102293" lon="-118.3938798">
  <ele>-1.68</ele>
  <time>2026-09-02T22:13:04Z</time>
  <course>188.4</course>
  <speed>0.04242640687119285</speed>
  <fix>3d</fix>
</trkpt>
<trkpt lat="33.8102396" lon="-118.393861">
  <ele>-0.02</ele>
  <time>2026-09-02T22:13:04Z</time>
  <course>298.23</course>
  <speed>0.01</speed>
  <fix>3d</fix>
</trkpt>
<trkpt lat="33.8102293" lon="-118.3938798">
  <ele>-1.678</ele>
  <time>2026-09-02T22:13:04Z</time>
  <course>188.4</course>
  <speed>0.04242640687119285</speed>
  <fix>3d</fix>
</trkpt>
<trkpt lat="33.8102294" lon="-118.3938798">
  <ele>-1.555</ele>
  <time>2026-09-02T22:13:04Z</time>
  <course>188.31</course>
  <speed>0.04242640687119285</speed>
  <fix>3d</fix>
</trkpt>
<trkpt lat="33.8102396" lon="-118.393861">
  <ele>-0.02</ele>
  <time>2026-09-02T22:13:04Z</time>
  <course>298.23</course>
  <speed>0.01</speed>
  <fix>3d</fix>
</trkpt>
<trkpt lat="33.8102294" lon="-118.3938798">
  <ele>-1.553</ele>
  <time>2026-09-02T22:13:04Z</time>
  <course>188.31</course>
  <speed>0.04242640687119285</speed>
  <fix>3d</fix>
</trkpt>
<trkpt lat="33.8102294" lon="-118.3938798">
  <ele>-1.43</ele>
  <time>2026-09-02T22:13:04Z</time>
  <course>188.22</course>
  <speed>0.04242640687119285</speed>
  <fix>3d</fix>
</trkpt>
<trkpt lat="33.8102411" lon="-118.3938621">
  <ele>0.21</ele>
  <time>2026-09-02T22:13:04Z</time>
  <course>290.26</course>
  <speed>0.01</speed>
  <fix>3d</fix>
</trkpt>
<trkpt lat="33.8102294" lon="-118.3938798">
  <ele>-1.428</ele>
  <time>2026-09-02T22:13:04Z</time>
  <course>188.22</course>
  <speed>0.04242640687119285</speed>
  <fix>3d</fix>
</trkpt>
<trkpt lat="33.8102294" lon="-118.3938798">
  <ele>-1.305</ele>
  <time>2026-09-02T22:13:04Z</time>
  <course>188.13</course>
  <speed>0.04242640687119285</speed>
  <fix>3d</fix>
</trkpt>
<trkpt lat="33.8102411" lon="-118.3938621">
  <ele>0.21</ele>
  <time>2026-09-02T22:13:04Z</time>
  <course>290.26</course>
  <speed>0.01</speed>
  <fix>3d</fix>
</trkpt>
<trkpt lat="33.8102294" lon="-118.3938798">
  <ele>-1.302</ele>
  <time>2026-09-02T22:13:04Z</time>
  <course>188.13</course>
  <speed>0.04242640687119285</speed>
  <fix>3d</fix>
</trkpt>
<trkpt lat="33.8102294" lon="-118.3938798">
  <ele>-1.18</ele>
  <time>2026-09-02T22:13:04Z</time>
  <course>188.01</course>
  <speed>0.04242640687119285</speed>
  <fix>3d</fix>
</trkpt>
<trkpt lat="33.8102425" lon="-118.3938635">
  <ele>0.46</ele>
  <time>2026-09-02T22:13:04Z</time>
  <course>286.48</course>
  <speed>0.01</speed>
  <fix>3d</fix>
</trkpt>
<trkpt lat="33.8102294" lon="-118.3938798">
  <ele>-1.177</ele>
  <time>2026-09-02T22:13:04Z</time>
  <course>188.01</course>
  <speed>0.04242640687119285</speed>
  <fix>3d</fix>
</trkpt>
<trkpt lat="33.8102294" lon="-118.3938798">
  <ele>-1.056</ele>
  <time>2026-09-02T22:13:04Z</time>
  <course>187.9</course>
  <speed>0.04242640687119285</speed>
  <fix>3d</fix>
</trkpt>
<trkpt lat="33.8102425" lon="-118.3938635">
  <ele>0.46</ele>
  <time>2026-09-02T22:13:04Z</time>
  <course>286.48</course>
  <speed>0.01</speed>
  <fix>3d</fix>
</trkpt>
<trkpt lat="33.8102294" lon="-118.3938798">
  <ele>-1.054</ele>
  <time>2026-09-02T22:13:04Z</time>
  <course>187.9</course>
  <speed>0.04242640687119285</speed>
  <fix>3d</fix>
</trkpt>
<trkpt lat="33.8102294" lon="-118.3938799">
  <ele>-0.934</ele>
  <time>2026-09-02T22:13:04Z</time>
  <course>187.78</course>
  <speed>0.04242640687119285</speed>
  <fix>3d</fix>
</trkpt>
<trkpt lat="33.8102438" lon="-118.3938651">
  <ele>0.7</ele>
  <time>2026-09-02T22:13:04Z</time>
  <course>281.15</course>
  <speed>0.01</speed>
  <fix>3d</fix>
</trkpt>
<trkpt lat="33.8102294" lon="-118.3938798">
  <ele>-0.932</ele>
  <time>2026-09-02T22:13:04Z</time>
  <course>187.78</course>
  <speed>0.04242640687119285</speed>
  <fix>3d</fix>
</trkpt>
<trkpt lat="33.8102294" lon="-118.3938799">
  <ele>-0.814</ele>
  <time>2026-09-02T22:13:04Z</time>
  <course>187.66</course>
  <speed>0.04242640687119285</speed>
  <fix>3d</fix>
</trkpt>
<trkpt lat="33.8102438" lon="-118.3938651">
  <ele>0.7</ele>
  <time>2026-09-02T22:13:04Z</time>
  <course>281.15</course>
  <speed>0.01</speed>
  <fix>3d</fix>
</trkpt>
<trkpt lat="33.8102294" lon="-118.3938799">
  <ele>-0.808</ele>
  <time>2026-09-02T22:13:04Z</time>
  <course>187.66</course>
  <speed>0.04242640687119285</speed>
  <fix>3d</fix>
</trkpt>
<trkpt lat="33.8102294" lon="-118.3938799">
  <ele>-0.693</ele>
  <time>2026-09-02T22:13:04Z</time>
  <course>187.56</course>
  <speed>0.04242640687119285</speed>
  <fix>3d</fix>
</trkpt>
<trkpt lat="33.8102449" lon="-118.3938667">
  <ele>0.95</ele>
  <time>2026-09-02T22:13:04Z</time>
  <course>275.27</course>
  <speed>0.01</speed>
  <fix>3d</fix>
</trkpt>
<trkpt lat="33.8102294" lon="-118.3938799">
  <ele>-0.688</ele>
  <time>2026-09-02T22:13:04Z</time>
  <course>187.55</course>
  <speed>0.04242640687119285</speed>
  <fix>3d</fix>
</trkpt>
<trkpt lat="33.8102294" lon="-118.3938799">
  <ele>-0.572</ele>
  <time>2026-09-02T22:13:04Z</time>
  <course>187.46</course>
  <speed>0.04242640687119285</speed>
  <fix>3d</fix>
</trkpt>
<trkpt lat="33.8102449" lon="-118.3938667">
  <ele>0.95</ele>
  <time>2026-09-02T22:13:04Z</time>
  <course>275.27</course>
  <speed>0.01</speed>
  <fix>3d</fix>
</trkpt>
<trkpt lat="33.8102294" lon="-118.3938799">
  <ele>-0.569</ele>
  <time>2026-09-02T22:13:04Z</time>
  <course>187.46</course>
  <speed>0.04242640687119285</speed>
  <fix>3d</fix>
</trkpt>
<trkpt lat="33.8102294" lon="-118.3938799">
  <ele>-0.45</ele>
  <time>2026-09-02T22:13:04Z</time>
  <course>187.36</course>
  <speed>0.04242640687119285</speed>
  <fix>3d</fix>
</trkpt>
<trkpt lat="33.810246" lon="-118.3938685">
  <ele>1.19</ele>
  <time>2026-09-02T22:13:04Z</time>
  <course>270.81</course>
  <speed>0.01</speed>
  <fix>3d</fix>
</trkpt>
<trkpt lat="33.8102294" lon="-118.3938799">
  <ele>-0.447</ele>
  <time>2026-09-02T22:13:04Z</time>
  <course>187.36</course>
  <speed>0.04242640687119285</speed>
  <fix>3d</fix>
</trkpt>
<trkpt lat="33.8102294" lon="-118.3938799">
  <ele>-0.328</ele>
  <time>2026-09-02T22:13:04Z</time>
  <course>187.27</course>
  <speed>0.04242640687119285</speed>
  <fix>3d</fix>
</trkpt>
<trkpt lat="33.810246" lon="-118.3938685">
  <ele>1.19</ele>
  <time>2026-09-02T22:13:04Z</time>
  <course>270.81</course>
  <speed>0.01</speed>
  <fix>3d</fix>
</trkpt>
<trkpt lat="33.8102294" lon="-118.3938799">
  <ele>-0.206</ele>
  <time>2026-09-02T22:13:04Z</time>
  <course>187.19</course>
  <speed>0.04242640687119285</speed>
  <fix>3d</fix>
</trkpt>
<trkpt lat="33.8102468" lon="-118.3938705">
  <ele>1.44</ele>
  <time>2026-09-02T22:13:04Z</time>
  <course>268.78</course>
  <speed>0.01</speed>
  <fix>3d</fix>
</trkpt>
<trkpt lat="33.8102294" lon="-118.3938799">
  <ele>-0.085</ele>
  <time>2026-09-02T22:13:04Z</time>
  <course>187.1</course>
  <speed>0.04242640687119285</speed>
  <fix>3d</fix>
</trkpt>
<trkpt lat="33.8102468" lon="-118.3938705">
  <ele>1.44</ele>
  <time>2026-09-02T22:13:04Z</time>
  <course>268.78</course>
  <speed>0.01</speed>
  <fix>3d</fix>
</trkpt>
<trkpt lat="33.8102294" lon="-118.3938799">
  <ele>0.032</ele>
  <time>2026-09-02T22:13:04Z</time>
  <course>187.02</course>
  <speed>0.04242640687119285</speed>
  <fix>3d</fix>
</trkpt>
<trkpt lat="33.8102475" lon="-118.3938725">
  <ele>1.68</ele>
  <time>2026-09-02T22:13:04Z</time>
  <course>268.69</course>
  <speed>0.01</speed>
  <fix>3d</fix>
</trkpt>
<trkpt lat="33.8102294" lon="-118.3938799">
  <ele>0.101</ele>
  <time>2026-09-02T22:13:04Z</time>
  <course>186.97</course>
  <speed>0.04242640687119285</speed>
  <fix>3d</fix>
</trkpt>
<trkpt lat="33.8102294" lon="-118.3938799">
  <ele>0.118</ele>
  <time>2026-09-02T22:13:04Z</time>
  <course>186.96</course>
  <speed>0.04242640687119285</speed>
  <fix>3d</fix>
</trkpt>
<trkpt lat="33.8102294" lon="-118.3938799">
  <ele>0.129</ele>
  <time>2026-09-02T22:13:04Z</time>
  <course>186.95</course>
  <speed>0.04242640687119285</speed>
  <fix>3d</fix>
</trkpt>
<trkpt lat="33.8102294" lon="-118.3938799">
  <ele>0.137</ele>
  <time>2026-09-02T22:13:04Z</time>
  <course>186.95</course>
  <speed>0.04242640687119285</speed>
  <fix>3d</fix>
</trkpt>
<trkpt lat="33.8102294" lon="-118.3938799">
  <ele>0.145</ele>
  <time>2026-09-02T22:13:04Z</time>
  <course>186.94</course>
  <speed>0.04242640687119285</speed>
  <fix>3d</fix>
</trkpt>
<trkpt lat="33.8102294" lon="-118.3938799">
  <ele>0.145</ele>
  <time>2026-09-02T22:13:04Z</time>
  <course>186.94</course>
  <speed>0.04242640687119285</speed>
  <fix>3d</fix>
</trkpt>
<trkpt lat="33.8102475" lon="-118.3938725">
  <ele>1.68</ele>
  <time>2026-09-02T22:13:04Z</time>
  <course>268.69</course>
  <speed>0.01</speed>
  <fix>3d</fix>
</trkpt>
<trkpt lat="33.8102294" lon="-118.3938799">
  <ele>0.167</ele>
  <time>2026-09-02T22:13:04Z</time>
  <course>186.93</course>
  <speed>0.04242640687119285</speed>
  <fix>3d</fix>
</trkpt>
<trkpt lat="33.8102294" lon="-118.3938799">
  <ele>0.175</ele>
  <time>2026-09-02T22:13:04Z</time>
  <course>186.92</course>
  <speed>0.04242640687119285</speed>
  <fix>3d</fix>
</trkpt>
<trkpt lat="33.8102294" lon="-118.3938799">
  <ele>0.182</ele>
  <time>2026-09-02T22:13:04Z</time>
  <course>186.92</course>
  <speed>0.04242640687119285</speed>
  <fix>3d</fix>
</trkpt>
<trkpt lat="33.8102294" lon="-118.3938799">
  <ele>0.19</ele>
  <time>2026-09-02T22:13:04Z</time>
  <course>186.91</course>
  <speed>0.03605551275463989</speed>
  <fix>3d</fix>
</trkpt>
<trkpt lat="33.8102294" lon="-118.3938799">
  <ele>0.198</ele>
  <time>2026-09-02T22:13:04Z</time>
  <course>186.91</course>
  <speed>0.04242640687119285</speed>
  <fix>3d</fix>
</trkpt>
<trkpt lat="33.8102294" lon="-118.3938799">
  <ele>0.203</ele>
  <time>2026-09-02T22:13:04Z</time>
  <course>186.9</course>
  <speed>0.04242640687119285</speed>
  <fix>3d</fix>
</trkpt>
<trkpt lat="33.8102294" lon="-118.3938799">
  <ele>0.21</ele>
  <time>2026-09-02T22:13:04Z</time>
  <course>186.9</course>
  <speed>0.04242640687119285</speed>
  <fix>3d</fix>
</trkpt>
<trkpt lat="33.8102481" lon="-118.3938745">
  <ele>0.218</ele>
  <time>2026-09-02T22:13:04Z</time>
  <course>186.89</course>
  <speed>0.04242640687119285</speed>
  <fix>3d</fix>
</trkpt>
<trkpt lat="33.8102481" lon="-118.3938745">
  <ele>0.225</ele>
  <time>2026-09-02T22:13:04Z</time>
  <course>186.89</course>
  <speed>0.04242640687119285</speed>
  <fix>3d</fix>
</trkpt>
<trkpt lat="33.8102482" lon="-118.3938746">
  <ele>0.233</ele>
  <time>2026-09-02T22:13:04Z</time>
  <course>186.88</course>
  <speed>0.03605551275463989</speed>
  <fix>3d</fix>
</trkpt>
<trkpt lat="33.8102482" lon="-118.3938745">
  <ele>0.24</ele>
  <time>2026-09-02T22:13:04Z</time>
  <course>186.88</course>
  <speed>0.03605551275463989</speed>
  <fix>3d</fix>
</trkpt>
<trkpt lat="33.8102482" lon="-118.3938746">
  <ele>0.247</ele>
  <time>2026-09-02T22:13:04Z</time>
  <course>186.88</course>
  <speed>0.03605551275463989</speed>
  <fix>3d</fix>
</trkpt>
<trkpt lat="33.8102482" lon="-118.3938746">
  <ele>0.247</ele>
  <time>2026-09-02T22:13:04Z</time>
  <course>186.88</course>
  <speed>0.03605551275463989</speed>
  <fix>3d</fix>
</trkpt>
<trkpt lat="33.8102481" lon="-118.3938746">
  <ele>1.92</ele>
  <time>2026-09-02T22:13:04Z</time>
  <course>268.43</course>
  <speed>0.01</speed>
  <fix>3d</fix>
</trkpt>
<trkpt lat="33.8102482" lon="-118.3938746">
  <ele>0.265</ele>
  <time>2026-09-02T22:13:04Z</time>
  <course>186.87</course>
  <speed>0.03605551275463989</speed>
  <fix>3d</fix>
</trkpt>
<trkpt lat="33.8102482" lon="-118.3938746">
  <ele>0.272</ele>
  <time>2026-09-02T22:13:04Z</time>
  <course>186.87</course>
  <speed>0.03605551275463989</speed>
  <fix>3d</fix>
</trkpt>
<trkpt lat="33.8102482" lon="-118.3938746">
  <ele>0.279</ele>
  <time>2026-09-02T22:13:04Z</time>
  <course>186.87</course>
  <speed>0.03605551275463989</speed>
  <fix>3d</fix>
</trkpt>
<trkpt lat="33.8102482" lon="-118.3938746">
  <ele>0.285</ele>
  <time>2026-09-02T22:13:04Z</time>
  <course>186.87</course>
  <speed>0.03605551275463989</speed>
  <fix>3d</fix>
</trkpt>
<trkpt lat="33.8102482" lon="-118.3938746">
  <ele>0.294</ele>
  <time>2026-09-02T22:13:04Z</time>
  <course>186.87</course>
  <speed>0.03605551275463989</speed>
  <fix>3d</fix>
</trkpt>
<trkpt lat="33.8102482" lon="-118.3938746">
  <ele>0.301</ele>
  <time>2026-09-02T22:13:04Z</time>
  <course>186.87</course>
  <speed>0.03605551275463989</speed>
  <fix>3d</fix>
</trkpt>
<trkpt lat="33.8102482" lon="-118.3938746">
  <ele>0.307</ele>
  <time>2026-09-02T22:13:04Z</time>
  <course>186.87</course>
  <speed>0.03605551275463989</speed>
  <fix>3d</fix>
</trkpt>
<trkpt lat="33.8102482" lon="-118.3938746">
  <ele>0.313</ele>
  <time>2026-09-02T22:13:04Z</time>
  <course>186.88</course>
  <speed>0.03605551275463989</speed>
  <fix>3d</fix>
</trkpt>
<trkpt lat="33.8102482" lon="-118.3938746">
  <ele>0.319</ele>
  <time>2026-09-02T22:13:04Z</time>
  <course>186.88</course>
  <speed>0.03605551275463989</speed>
  <fix>3d</fix>
</trkpt>
<trkpt lat="33.8102482" lon="-118.3938746">
  <ele>0.325</ele>
  <time>2026-09-02T22:13:04Z</time>
  <course>186.88</course>
  <speed>0.0282842712474619</speed>
  <fix>3d</fix>
</trkpt>
<trkpt lat="33.8102482" lon="-118.3938746">
  <ele>0.331</ele>
  <time>2026-09-02T22:13:04Z</time>
  <course>186.89</course>
  <speed>0.0282842712474619</speed>
  <fix>3d</fix>
</trkpt>
<trkpt lat="33.8102482" lon="-118.3938746">
  <ele>0.333</ele>
  <time>2026-09-02T22:13:04Z</time>
  <course>186.89</course>
  <speed>0.0282842712474619</speed>
  <fix>3d</fix>
</trkpt>
<trkpt lat="33.8102481" lon="-118.3938746">
  <ele>1.92</ele>
  <time>2026-09-02T22:13:04Z</time>
  <course>268.43</course>
  <speed>0.01</speed>
  <fix>3d</fix>
</trkpt>
<trkpt lat="33.8102482" lon="-118.3938746">
  <ele>0.335</ele>
  <time>2026-09-02T22:13:04Z</time>
  <course>186.89</course>
  <speed>0.0282842712474619</speed>
  <fix>3d</fix>
</trkpt>
<trkpt lat="33.8102482" lon="-118.3938746">
  <ele>0.349</ele>
  <time>2026-09-02T22:13:04Z</time>
  <course>186.9</course>
  <speed>0.0282842712474619</speed>
  <fix>3d</fix>
</trkpt>
<trkpt lat="33.8102482" lon="-118.3938746">
  <ele>0.355</ele>
  <time>2026-09-02T22:13:04Z</time>
  <course>186.9</course>
  <speed>0.0282842712474619</speed>
  <fix>3d</fix>
</trkpt>
<trkpt lat="33.8102482" lon="-118.3938746">
  <ele>0.36</ele>
  <time>2026-09-02T22:13:04Z</time>
  <course>186.91</course>
  <speed>0.0282842712474619</speed>
  <fix>3d</fix>
</trkpt>
<trkpt lat="33.8102482" lon="-118.3938746">
  <ele>0.366</ele>
  <time>2026-09-02T22:13:04Z</time>
  <course>186.91</course>
  <speed>0.0282842712474619</speed>
  <fix>3d</fix>
</trkpt>
<trkpt lat="33.8102482" lon="-118.3938746">
  <ele>0.373</ele>
  <time>2026-09-02T22:13:04Z</time>
  <course>186.91</course>
  <speed>0.0282842712474619</speed>
  <fix>3d</fix>
</trkpt>
<trkpt lat="33.8102482" lon="-118.3938746">
  <ele>0.382</ele>
  <time>2026-09-02T22:13:04Z</time>
  <course>186.92</course>
  <speed>0.0282842712474619</speed>
  <fix>3d</fix>
</trkpt>
<trkpt lat="33.8102482" lon="-118.3938746">
  <ele>0.387</ele>
  <time>2026-09-02T22:13:04Z</time>
  <course>186.92</course>
  <speed>0.0282842712474619</speed>
  <fix>3d</fix>
</trkpt>
<trkpt lat="33.8102482" lon="-118.3938746">
  <ele>0.392</ele>
  <time>2026-09-02T22:13:04Z</time>
  <course>186.93</course>
  <speed>0.0282842712474619</speed>
  <fix>3d</fix>
</trkpt>
<trkpt lat="33.8102482" lon="-118.3938746">
  <ele>0.397</ele>
  <time>2026-09-02T22:13:04Z</time>
  <course>186.93</course>
  <speed>0.0282842712474619</speed>
  <fix>3d</fix>
</trkpt>
<trkpt lat="33.8102482" lon="-118.3938746">
  <ele>0.402</ele>
  <time>2026-09-02T22:13:04Z</time>
  <course>186.94</course>
  <speed>0.0282842712474619</speed>
  <fix>3d</fix>
</trkpt>
<trkpt lat="33.8102482" lon="-118.3938746">
  <ele>0.405</ele>
  <time>2026-09-02T22:13:04Z</time>
  <course>186.94</course>
  <speed>0.0282842712474619</speed>
  <fix>3d</fix>
</trkpt>
<trkpt lat="33.8102484" lon="-118.3938767">
  <ele>2.12</ele>
  <time>2026-09-02T22:13:04Z</time>
  <course>253.19</course>
  <speed>0.0</speed>
  <fix>3d</fix>
</trkpt>
<trkpt lat="33.8102482" lon="-118.3938746">
  <ele>0.406</ele>
  <time>2026-09-02T22:13:04Z</time>
  <course>186.94</course>
  <speed>0.0282842712474619</speed>
  <fix>3d</fix>
</trkpt>
<trkpt lat="33.8102482" lon="-118.3938747">
  <ele>0.416</ele>
  <time>2026-09-02T22:13:04Z</time>
  <course>186.95</course>
  <speed>0.0282842712474619</speed>
  <fix>3d</fix>
</trkpt>
<trkpt lat="33.8102482" lon="-118.3938747">
  <ele>0.42</ele>
  <time>2026-09-02T22:13:04Z</time>
  <course>186.95</course>
  <speed>0.0282842712474619</speed>
  <fix>3d</fix>
</trkpt>
<trkpt lat="33.8102482" lon="-118.3938747">
  <ele>0.425</ele>
  <time>2026-09-02T22:13:04Z</time>
  <course>186.95</course>
  <speed>0.0282842712474619</speed>
  <fix>3d</fix>
</trkpt>
<trkpt lat="33.8102482" lon="-118.3938747">
  <ele>0.429</ele>
  <time>2026-09-02T22:13:04Z</time>
  <course>186.96</course>
  <speed>0.0282842712474619</speed>
  <fix>3d</fix>
</trkpt>
<trkpt lat="33.8102482" lon="-118.3938747">
  <ele>0.435</ele>
  <time>2026-09-02T22:13:04Z</time>
  <course>186.96</course>
  <speed>0.0282842712474619</speed>
  <fix>3d</fix>
</trkpt>
<trkpt lat="33.8102482" lon="-118.3938747">
  <ele>0.439</ele>
  <time>2026-09-02T22:13:04Z</time>
  <course>186.97</course>
  <speed>0.0282842712474619</speed>
  <fix>3d</fix>
</trkpt>
<trkpt lat="33.8102482" lon="-118.3938747">
  <ele>0.443</ele>
  <time>2026-09-02T22:13:04Z</time>
  <course>186.97</course>
  <speed>0.0282842712474619</speed>
  <fix>3d</fix>
</trkpt>
<trkpt lat="33.8102482" lon="-118.3938747">
  <ele>0.446</ele>
  <time>2026-09-02T22:13:04Z</time>
  <course>186.98</course>
  <speed>0.0282842712474619</speed>
  <fix>3d</fix>
</trkpt>
<trkpt lat="33.8102482" lon="-118.3938747">
  <ele>0.451</ele>
  <time>2026-09-02T22:13:04Z</time>
  <course>186.98</course>
  <speed>0.0282842712474619</speed>
  <fix>3d</fix>
</trkpt>
<trkpt lat="33.8102482" lon="-118.3938747">
  <ele>0.454</ele>
  <time>2026-09-02T22:13:04Z</time>
  <course>186.98</course>
  <speed>0.0282842712474619</speed>
  <fix>3d</fix>
</trkpt>
<trkpt lat="33.8102482" lon="-118.3938747">
  <ele>0.459</ele>
  <time>2026-09-02T22:13:04Z</time>
  <course>186.99</course>
  <speed>0.022360679774997897</speed>
  <fix>3d</fix>
</trkpt>
<trkpt lat="33.8102482" lon="-118.3938747">
  <ele>0.461</ele>
  <time>2026-09-02T22:13:04Z</time>
  <course>186.99</course>
  <speed>0.022360679774997897</speed>
  <fix>3d</fix>
</trkpt>
<trkpt lat="33.8102484" lon="-118.3938767">
  <ele>2.12</ele>
  <time>2026-09-02T22:13:04Z</time>
  <course>253.19</course>
  <speed>0.0</speed>
  <fix>3d</fix>
</trkpt>
<trkpt lat="33.8102482" lon="-118.3938747">
  <ele>0.461</ele>
  <time>2026-09-02T22:13:04Z</time>
  <course>186.99</course>
  <speed>0.01414213562373095</speed>
  <fix>3d</fix>
</trkpt>
<trkpt lat="33.8102482" lon="-118.3938747">
  <ele>0.47</ele>
  <time>2026-09-02T22:13:04Z</time>
  <course>187.0</course>
  <speed>0.01414213562373095</speed>
  <fix>3d</fix>
</trkpt>
<trkpt lat="33.8102482" lon="-118.3938747">
  <ele>0.473</ele>
  <time>2026-09-02T22:13:04Z</time>
  <course>187.0</course>
  <speed>0.01414213562373095</speed>
  <fix>3d</fix>
</trkpt>
<trkpt lat="33.8102482" lon="-118.3938747">
  <ele>0.477</ele>
  <time>2026-09-02T22:13:04Z</time>
  <course>187.01</course>
  <speed>0.01414213562373095</speed>
  <fix>3d</fix>
</trkpt>
<trkpt lat="33.8102482" lon="-118.3938747">
  <ele>0.48</ele>
  <time>2026-09-02T22:13:04Z</time>
  <course>187.01</course>
  <speed>0.01414213562373095</speed>
  <fix>3d</fix>
</trkpt>
<trkpt lat="33.8102482" lon="-118.3938747">
  <ele>0.483</ele>
  <time>2026-09-02T22:13:04Z</time>
  <course>187.01</course>
  <speed>0.01414213562373095</speed>
  <fix>3d</fix>
</trkpt>
<trkpt lat="33.8102482" lon="-118.3938747">
  <ele>0.486</ele>
  <time>2026-09-02T22:13:04Z</time>
  <course>187.02</course>
  <speed>0.01414213562373095</speed>
  <fix>3d</fix>
</trkpt>
<trkpt lat="33.8102482" lon="-118.3938747">
  <ele>0.489</ele>
  <time>2026-09-02T22:13:04Z</time>
  <course>187.02</course>
  <speed>0.01414213562373095</speed>
  <fix>3d</fix>
</trkpt>
<trkpt lat="33.8102482" lon="-118.3938747">
  <ele>0.492</ele>
  <time>2026-09-02T22:13:04Z</time>
  <course>187.02</course>
  <speed>0.01414213562373095</speed>
  <fix>3d</fix>
</trkpt>
<trkpt lat="33.8102482" lon="-118.3938747">
  <ele>0.495</ele>
  <time>2026-09-02T22:13:04Z</time>
  <course>187.03</course>
  <speed>0.01414213562373095</speed>
  <fix>3d</fix>
</trkpt>
<trkpt lat="33.8102482" lon="-118.3938747">
  <ele>0.499</ele>
  <time>2026-09-02T22:13:04Z</time>
  <course>187.03</course>
  <speed>0.01414213562373095</speed>
  <fix>3d</fix>
</trkpt>
<trkpt lat="33.8102482" lon="-118.3938747">
  <ele>0.502</ele>
  <time>2026-09-02T22:13:04Z</time>
  <course>187.03</course>
  <speed>0.01414213562373095</speed>
  <fix>3d</fix>
</trkpt>
<trkpt lat="33.8102482" lon="-118.3938747">
  <ele>0.503</ele>
  <time>2026-09-02T22:13:04Z</time>
  <course>187.04</course>
  <speed>0.01414213562373095</speed>
  <fix>3d</fix>
</trkpt>
<trkpt lat="33.8102486" lon="-118.3938788">
  <ele>2.26</ele>
  <time>2026-09-02T22:13:04Z</time>
  <course>203.16</course>
  <speed>0.01</speed>
  <fix>3d</fix>
</trkpt>
<trkpt lat="33.8102482" lon="-118.3938747">
  <ele>0.503</ele>
  <time>2026-09-02T22:13:04Z</time>
  <course>187.04</course>
  <speed>0.01414213562373095</speed>
  <fix>3d</fix>
</trkpt>
<trkpt lat="33.8102482" lon="-118.3938747">
  <ele>0.51</ele>
  <time>2026-09-02T22:13:04Z</time>
  <course>187.04</course>
  <speed>0.01414213562373095</speed>
  <fix>3d</fix>
</trkpt>
<trkpt lat="33.8102482" lon="-118.3938747">
  <ele>0.512</ele>
  <time>2026-09-02T22:13:04Z</time>
  <course>187.05</course>
  <speed>0.01414213562373095</speed>
  <fix>3d</fix>
</trkpt>
<trkpt lat="33.8102482" lon="-118.3938747">
  <ele>0.515</ele>
  <time>2026-09-02T22:13:04Z</time>
  <course>187.05</course>
  <speed>0.01414213562373095</speed>
  <fix>3d</fix>
</trkpt>
<trkpt lat="33.8102482" lon="-118.3938747">
  <ele>0.517</ele>
  <time>2026-09-02T22:13:04Z</time>
  <course>187.05</course>
  <speed>0.01414213562373095</speed>
  <fix>3d</fix>
</trkpt>
<trkpt lat="33.8102482" lon="-118.3938747">
  <ele>0.52</ele>
  <time>2026-09-02T22:13:04Z</time>
  <course>187.06</course>
  <speed>0.01414213562373095</speed>
  <fix>3d</fix>
</trkpt>
<trkpt lat="33.8102482" lon="-118.3938747">
  <ele>0.522</ele>
  <time>2026-09-02T22:13:04Z</time>
  <course>187.06</course>
  <speed>0.01414213562373095</speed>
  <fix>3d</fix>
</trkpt>
<trkpt lat="33.8102482" lon="-118.3938747">
  <ele>0.524</ele>
  <time>2026-09-02T22:13:04Z</time>
  <course>187.06</course>
  <speed>0.01414213562373095</speed>
  <fix>3d</fix>
</trkpt>
<trkpt lat="33.8102482" lon="-118.3938747">
  <ele>0.527</ele>
  <time>2026-09-02T22:13:04Z</time>
  <course>187.06</course>
  <speed>0.01414213562373095</speed>
  <fix>3d</fix>
</trkpt>
<trkpt lat="33.8102482" lon="-118.3938747">
  <ele>0.53</ele>
  <time>2026-09-02T22:13:04Z</time>
  <course>187.07</course>
  <speed>0.01414213562373095</speed>
  <fix>3d</fix>
</trkpt>
<trkpt lat="33.8102482" lon="-118.3938747">
  <ele>0.532</ele>
  <time>2026-09-02T22:13:04Z</time>
  <course>187.07</course>
  <speed>0.01414213562373095</speed>
  <fix>3d</fix>
</trkpt>
<trkpt lat="33.8102482" lon="-118.3938747">
  <ele>0.535</ele>
  <time>2026-09-02T22:13:04Z</time>
  <course>187.07</course>
  <speed>0.01</speed>
  <fix>3d</fix>
</trkpt>
<trkpt lat="33.8102486" lon="-118.3938788">
  <ele>2.26</ele>
  <time>2026-09-02T22:13:04Z</time>
  <course>203.16</course>
  <speed>0.01</speed>
  <fix>3d</fix>
</trkpt>
<trkpt lat="33.8102482" lon="-118.3938747">
  <ele>0.535</ele>
  <time>2026-09-02T22:13:04Z</time>
  <course>187.07</course>
  <speed>0.01</speed>
  <fix>3d</fix>
</trkpt>
<trkpt lat="33.8102482" lon="-118.3938747">
  <ele>0.539</ele>
  <time>2026-09-02T22:13:04Z</time>
  <course>187.08</course>
  <speed>0.01</speed>
  <fix>3d</fix>
</trkpt>
<trkpt lat="33.8102482" lon="-118.3938747">
  <ele>0.541</ele>
  <time>2026-09-02T22:13:04Z</time>
  <course>187.08</course>
  <speed>0.01</speed>
  <fix>3d</fix>
</trkpt>
<trkpt lat="33.8102482" lon="-118.3938747">
  <ele>0.543</ele>
  <time>2026-09-02T22:13:04Z</time>
  <course>187.08</course>
  <speed>0.01</speed>
  <fix>3d</fix>
</trkpt>
<trkpt lat="33.8102482" lon="-118.3938747">
  <ele>0.544</ele>
  <time>2026-09-02T22:13:04Z</time>
  <course>187.08</course>
  <speed>0.01</speed>
  <fix>3d</fix>
</trkpt>
<trkpt lat="33.8102482" lon="-118.3938747">
  <ele>0.547</ele>
  <time>2026-09-02T22:13:04Z</time>
  <course>187.08</course>
  <speed>0.01</speed>
  <fix>3d</fix>
</trkpt>
<trkpt lat="33.8102482" lon="-118.3938747">
  <ele>0.549</ele>
  <time>2026-09-02T22:13:04Z</time>
  <course>187.08</course>
  <speed>0.01</speed>
  <fix>3d</fix>
</trkpt>
<trkpt lat="33.8102482" lon="-118.3938747">
  <ele>0.551</ele>
  <time>2026-09-02T22:13:04Z</time>
  <course>187.08</course>
  <speed>0.01</speed>
  <fix>3d</fix>
</trkpt>
<trkpt lat="33.8102482" lon="-118.3938747">
  <ele>0.552</ele>
  <time>2026-09-02T22:13:04Z</time>
  <course>187.08</course>
  <speed>0.0</speed>
  <fix>3d</fix>
</trkpt>
<trkpt lat="33.8102482" lon="-118.3938747">
  <ele>0.554</ele>
  <time>2026-09-02T22:13:04Z</time>
  <course>187.08</course>
  <speed>0.0</speed>
  <fix>3d</fix>
</trkpt>
<trkpt lat="33.8102482" lon="-118.3938747">
  <ele>0.555</ele>
  <time>2026-09-02T22:13:04Z</time>
  <course>187.08</course>
  <speed>0.0</speed>
  <fix>3d</fix>
</trkpt>
<trkpt lat="33.8102482" lon="-118.3938747">
  <ele>0.557</ele>
  <time>2026-09-02T22:13:04Z</time>
  <course>187.08</course>
  <speed>0.0</speed>
  <fix>3d</fix>
</trkpt>
<trkpt lat="33.8102482" lon="-118.3938747">
  <ele>0.557</ele>
  <time>2026-09-02T22:13:04Z</time>
  <course>187.08</course>
  <speed>0.0</speed>
  <fix>3d</fix>
</trkpt>
<trkpt lat="33.8102486" lon="-118.393881">
  <ele>2.36</ele>
  <time>2026-09-02T22:13:04Z</time>
  <course>171.67</course>
  <speed>0.01</speed>
  <fix>3d</fix>
</trkpt>
<trkpt lat="33.8102482" lon="-118.3938747">
  <ele>0.559</ele>
  <time>2026-09-02T22:13:04Z</time>
  <course>187.08</course>
  <speed>0.0</speed>
  <fix>3d</fix>
</trkpt>
<trkpt lat="33.8102482" lon="-118.3938747">
  <ele>0.561</ele>
  <time>2026-09-02T22:13:04Z</time>
  <course>187.08</course>
  <speed>0.0</speed>
  <fix>3d</fix>
</trkpt>
<trkpt lat="33.8102482" lon="-118.3938747">
  <ele>0.562</ele>
  <time>2026-09-02T22:13:04Z</time>
  <course>187.08</course>
  <speed>0.0</speed>
  <fix>3d</fix>
</trkpt>
<trkpt lat="33.8102482" lon="-118.3938748">
  <ele>0.563</ele>
  <time>2026-09-02T22:13:04Z</time>
  <course>187.08</course>
  <speed>0.0</speed>
  <fix>3d</fix>
</trkpt>
<trkpt lat="33.8102482" lon="-118.3938748">
  <ele>0.564</ele>
  <time>2026-09-02T22:13:04Z</time>
  <course>187.08</course>
  <speed>0.0</speed>
  <fix>3d</fix>
</trkpt>
<trkpt lat="33.8102482" lon="-118.3938748">
  <ele>0.566</ele>
  <time>2026-09-02T22:13:04Z</time>
  <course>187.08</course>
  <speed>0.0</speed>
  <fix>3d</fix>
</trkpt>
<trkpt lat="33.8102482" lon="-118.3938748">
  <ele>0.566</ele>
  <time>2026-09-02T22:13:04Z</time>
  <course>187.08</course>
  <speed>0.0</speed>
  <fix>3d</fix>
</trkpt>
<trkpt lat="33.8102482" lon="-118.3938748">
  <ele>0.568</ele>
  <time>2026-09-02T22:13:04Z</time>
  <course>187.08</course>
  <speed>0.0</speed>
  <fix>3d</fix>
</trkpt>
<trkpt lat="33.8102482" lon="-118.3938748">
  <ele>0.568</ele>
  <time>2026-09-02T22:13:04Z</time>
  <course>187.08</course>
  <speed>0.0</speed>
  <fix>3d</fix>
</trkpt>
<trkpt lat="33.8102482" lon="-118.3938748">
  <ele>0.569</ele>
  <time>2026-09-02T22:13:04Z</time>
  <course>187.08</course>
  <speed>0.0</speed>
  <fix>3d</fix>
</trkpt>
<trkpt lat="33.8102482" lon="-118.3938748">
  <ele>0.569</ele>
  <time>2026-09-02T22:13:04Z</time>
  <course>187.08</course>
  <speed>0.0</speed>
  <fix>3d</fix>
</trkpt>
<trkpt lat="33.8102482" lon="-118.3938748">
  <ele>0.57</ele>
  <time>2026-09-02T22:13:04Z</time>
  <course>187.08</course>
  <speed>0.0</speed>
  <fix>3d</fix>
</trkpt>
<trkpt lat="33.8102486" lon="-118.393881">
  <ele>2.36</ele>
  <time>2026-09-02T22:13:04Z</time>
  <course>171.67</course>
  <speed>0.01</speed>
  <fix>3d</fix>
</trkpt>
<trkpt lat="33.8102482" lon="-118.3938748">
  <ele>0.57</ele>
  <time>2026-09-02T22:13:04Z</time>
  <course>187.08</course>
  <speed>0.0</speed>
  <fix>3d</fix>
</trkpt>
<trkpt lat="33.8102482" lon="-118.3938748">
  <ele>0.572</ele>
  <time>2026-09-02T22:13:04Z</time>
  <course>187.07</course>
  <speed>0.0</speed>
  <fix>3d</fix>
</trkpt>
<trkpt lat="33.8102482" lon="-118.3938748">
  <ele>0.572</ele>
  <time>2026-09-02T22:13:04Z</time>
  <course>187.07</course>
  <speed>0.0</speed>
  <fix>3d</fix>
</trkpt>
<trkpt lat="33.8102482" lon="-118.3938748">
  <ele>0.572</ele>
  <time>2026-09-02T22:13:04Z</time>
  <course>187.07</course>
  <speed>0.0</speed>
  <fix>3d</fix>
</trkpt>
<trkpt lat="33.8102482" lon="-118.3938748">
  <ele>0.573</ele>
  <time>2026-09-02T22:13:04Z</time>
  <course>187.07</course>
  <speed>0.0</speed>
  <fix>3d</fix>
</trkpt>
<trkpt lat="33.8102482" lon="-118.3938748">
  <ele>0.574</ele>
  <time>2026-09-02T22:13:04Z</time>
  <course>187.07</course>
  <speed>0.0</speed>
  <fix>3d</fix>
</trkpt>
<trkpt lat="33.8102482" lon="-118.3938748">
  <ele>0.574</ele>
  <time>2026-09-02T22:13:04Z</time>
  <course>187.07</course>
  <speed>0.0</speed>
  <fix>3d</fix>
</trkpt>
<trkpt lat="33.8102482" lon="-118.3938748">
  <ele>0.575</ele>
  <time>2026-09-02T22:13:04Z</time>
  <course>187.07</course>
  <speed>0.0</speed>
  <fix>3d</fix>
</trkpt>
<trkpt lat="33.8102482" lon="-118.3938748">
  <ele>0.575</ele>
  <time>2026-09-02T22:13:04Z</time>
  <course>187.07</course>
  <speed>0.0</speed>
  <fix>3d</fix>
</trkpt>
<trkpt lat="33.8102482" lon="-118.3938748">
  <ele>0.575</ele>
  <time>2026-09-02T22:13:04Z</time>
  <course>187.06</course>
  <speed>0.0</speed>
  <fix>3d</fix>
</trkpt>
<trkpt lat="33.8102482" lon="-118.3938748">
  <ele>0.575</ele>
  <time>2026-09-02T22:13:04Z</time>
  <course>187.06</course>
  <speed>0.0</speed>
  <fix>3d</fix>
</trkpt>
<trkpt lat="33.8102482" lon="-118.3938748">
  <ele>0.576</ele>
  <time>2026-09-02T22:13:04Z</time>
  <course>187.06</course>
  <speed>0.0</speed>
  <fix>3d</fix>
</trkpt>
<trkpt lat="33.8102482" lon="-118.3938748">
  <ele>0.576</ele>
  <time>2026-09-02T22:13:04Z</time>
  <course>187.06</course>
  <speed>0.0</speed>
  <fix>3d</fix>
</trkpt>
<trkpt lat="33.8102484" lon="-118.3938832">
  <ele>2.41</ele>
  <time>2026-09-02T22:13:04Z</time>
  <course>160.46</course>
  <speed>0.03</speed>
  <fix>3d</fix>
</trkpt>
<trkpt lat="33.8102482" lon="-118.3938748">
  <ele>0.576</ele>
  <time>2026-09-02T22:13:04Z</time>
  <course>187.06</course>
  <speed>0.0</speed>
  <fix>3d</fix>
</trkpt>
<trkpt lat="33.8102482" lon="-118.3938748">
  <ele>0.576</ele>
  <time>2026-09-02T22:13:04Z</time>
  <course>187.06</course>
  <speed>0.0</speed>
  <fix>3d</fix>
</trkpt>
<trkpt lat="33.8102482" lon="-118.3938748">
  <ele>0.576</ele>
  <time>2026-09-02T22:13:04Z</time>
  <course>187.06</course>
  <speed>0.0</speed>
  <fix>3d</fix>
</trkpt>
<trkpt lat="33.8102482" lon="-118.3938748">
  <ele>0.577</ele>
  <time>2026-09-02T22:13:04Z</time>
  <course>187.05</course>
  <speed>0.0</speed>
  <fix>3d</fix>
</trkpt>
<trkpt lat="33.8102482" lon="-118.3938748">
  <ele>0.577</ele>
  <time>2026-09-02T22:13:04Z</time>
  <course>187.05</course>
  <speed>0.0</speed>
  <fix>3d</fix>
</trkpt>
<trkpt lat="33.8102482" lon="-118.3938749">
  <ele>0.577</ele>
  <time>2026-09-02T22:13:04Z</time>
  <course>187.05</course>
  <speed>0.0</speed>
  <fix>3d</fix>
</trkpt>
<trkpt lat="33.8102482" lon="-118.3938749">
  <ele>0.577</ele>
  <time>2026-09-02T22:13:04Z</time>
  <course>187.05</course>
  <speed>0.0</speed>
  <fix>3d</fix>
</trkpt>
<trkpt lat="33.8102482" lon="-118.3938749">
  <ele>0.577</ele>
  <time>2026-09-02T22:13:04Z</time>
  <course>187.05</course>
  <speed>0.0</speed>
  <fix>3d</fix>
</trkpt>
<trkpt lat="33.8102482" lon="-118.3938749">
  <ele>0.577</ele>
  <time>2026-09-02T22:13:04Z</time>
  <course>187.05</course>
  <speed>0.0</speed>
  <fix>3d</fix>
</trkpt>
<trkpt lat="33.8102482" lon="-118.3938749">
  <ele>0.577</ele>
  <time>2026-09-02T22:13:04Z</time>
  <course>187.04</course>
  <speed>0.0</speed>
  <fix>3d</fix>
</trkpt>
<trkpt lat="33.8102482" lon="-118.3938749">
  <ele>0.577</ele>
  <time>2026-09-02T22:13:04Z</time>
  <course>187.04</course>
  <speed>0.0</speed>
  <fix>3d</fix>
</trkpt>
<trkpt lat="33.8102482" lon="-118.3938749">
  <ele>0.577</ele>
  <time>2026-09-02T22:13:04Z</time>
  <course>187.04</course>
  <speed>0.0</speed>
  <fix>3d</fix>
</trkpt>
<trkpt lat="33.8102482" lon="-118.3938749">
  <ele>0.577</ele>
  <time>2026-09-02T22:13:04Z</time>
  <course>187.04</course>
  <speed>0.0</speed>
  <fix>3d</fix>
</trkpt>
<trkpt lat="33.8102484" lon="-118.3938832">
  <ele>2.41</ele>
  <time>2026-09-02T22:13:04Z</time>
  <course>160.46</course>
  <speed>0.03</speed>
  <fix>3d</fix>
</trkpt>
<trkpt lat="33.8102482" lon="-118.3938749">
  <ele>0.577</ele>
  <time>2026-09-02T22:13:04Z</time>
  <course>187.04</course>
  <speed>0.0</speed>
  <fix>3d</fix>
</trkpt>
<trkpt lat="33.8102482" lon="-118.3938749">
  <ele>0.577</ele>
  <time>2026-09-02T22:13:04Z</time>
  <course>187.04</course>
  <speed>0.0</speed>
  <fix>3d</fix>
</trkpt>
<trkpt lat="33.8102482" lon="-118.3938749">
  <ele>0.576</ele>
  <time>2026-09-02T22:13:04Z</time>
  <course>187.04</course>
  <speed>0.0</speed>
  <fix>3d</fix>
</trkpt>
<trkpt lat="33.8102482" lon="-118.3938749">
  <ele>0.577</ele>
  <time>2026-09-02T22:13:04Z</time>
  <course>187.04</course>
  <speed>0.0</speed>
  <fix>3d</fix>
</trkpt>
<trkpt lat="33.8102482" lon="-118.3938749">
  <ele>0.576</ele>
  <time>2026-09-02T22:13:04Z</time>
  <course>187.04</course>
  <speed>0.0</speed>
  <fix>3d</fix>
</trkpt>
<trkpt lat="33.8102482" lon="-118.3938749">
  <ele>0.577</ele>
  <time>2026-09-02T22:13:04Z</time>
  <course>187.04</course>
  <speed>0.0</speed>
  <fix>3d</fix>
</trkpt>
<trkpt lat="33.8102482" lon="-118.3938749">
  <ele>0.576</ele>
  <time>2026-09-02T22:13:04Z</time>
  <course>187.04</course>
  <speed>0.0</speed>
  <fix>3d</fix>
</trkpt>
<trkpt lat="33.8102482" lon="-118.3938749">
  <ele>0.576</ele>
  <time>2026-09-02T22:13:04Z</time>
  <course>187.04</course>
  <speed>0.0</speed>
  <fix>3d</fix>
</trkpt>
<trkpt lat="33.8102482" lon="-118.3938749">
  <ele>0.576</ele>
  <time>2026-09-02T22:13:04Z</time>
  <course>187.04</course>
  <speed>0.0</speed>
  <fix>3d</fix>
</trkpt>
<trkpt lat="33.8102482" lon="-118.3938749">
  <ele>0.576</ele>
  <time>2026-09-02T22:13:04Z</time>
  <course>187.04</course>
  <speed>0.0</speed>
  <fix>3d</fix>
</trkpt>
<trkpt lat="33.8102482" lon="-118.3938749">
  <ele>0.576</ele>
  <time>2026-09-02T22:13:04Z</time>
  <course>187.04</course>
  <speed>0.0</speed>
  <fix>3d</fix>
</trkpt>
<trkpt lat="33.8102482" lon="-118.3938749">
  <ele>0.576</ele>
  <time>2026-09-02T22:13:04Z</time>
  <course>187.04</course>
  <speed>0.0</speed>
  <fix>3d</fix>
</trkpt>
<trkpt lat="33.810248" lon="-118.3938853">
  <ele>2.44</ele>
  <time>2026-09-02T22:13:04Z</time>
  <course>155.26</course>
  <speed>0.04</speed>
  <fix>3d</fix>
</trkpt>
<trkpt lat="33.8102482" lon="-118.3938749">
  <ele>0.576</ele>
  <time>2026-09-02T22:13:04Z</time>
  <course>187.04</course>
  <speed>0.0</speed>
  <fix>3d</fix>
</trkpt>
<trkpt lat="33.8102482" lon="-118.3938749">
  <ele>0.576</ele>
  <time>2026-09-02T22:13:04Z</time>
  <course>187.04</course>
  <speed>0.0</speed>
  <fix>3d</fix>
</trkpt>
<trkpt lat="33.8102482" lon="-118.3938749">
  <ele>0.576</ele>
  <time>2026-09-02T22:13:04Z</time>
  <course>187.04</course>
  <speed>0.0</speed>
  <fix>3d</fix>
</trkpt>
<trkpt lat="33.8102482" lon="-118.393875">
  <ele>0.576</ele>
  <time>2026-09-02T22:13:04Z</time>
  <course>187.05</course>
  <speed>0.0</speed>
  <fix>3d</fix>
</trkpt>
<trkpt lat="33.8102482" lon="-118.393875">
  <ele>0.576</ele>
  <time>2026-09-02T22:13:04Z</time>
  <course>187.05</course>
  <speed>0.0</speed>
  <fix>3d</fix>
</trkpt>
<trkpt lat="33.8102482" lon="-118.393875">
  <ele>0.576</ele>
  <time>2026-09-02T22:13:04Z</time>
  <course>187.05</course>
  <speed>0.0</speed>
  <fix>3d</fix>
</trkpt>
<trkpt lat="33.8102482" lon="-118.393875">
  <ele>0.575</ele>
  <time>2026-09-02T22:13:04Z</time>
  <course>187.05</course>
  <speed>0.0</speed>
  <fix>3d</fix>
</trkpt>
<trkpt lat="33.8102482" lon="-118.393875">
  <ele>0.575</ele>
  <time>2026-09-02T22:13:04Z</time>
  <course>187.06</course>
  <speed>0.0</speed>
  <fix>3d</fix>
</trkpt>
<trkpt lat="33.8102482" lon="-118.393875">
  <ele>0.575</ele>
  <time>2026-09-02T22:13:04Z</time>
  <course>187.06</course>
  <speed>0.01</speed>
  <fix>3d</fix>
</trkpt>
<trkpt lat="33.8102482" lon="-118.393875">
  <ele>0.575</ele>
  <time>2026-09-02T22:13:04Z</time>
  <course>187.06</course>
  <speed>0.01</speed>
  <fix>3d</fix>
</trkpt>
<trkpt lat="33.8102482" lon="-118.393875">
  <ele>0.575</ele>
  <time>2026-09-02T22:13:04Z</time>
  <course>187.06</course>
  <speed>0.01</speed>
  <fix>3d</fix>
</trkpt>
<trkpt lat="33.810248" lon="-118.3938853">
  <ele>2.44</ele>
  <time>2026-09-02T22:13:04Z</time>
  <course>155.26</course>
  <speed>0.04</speed>
  <fix>3d</fix>
</trkpt>
<trkpt lat="33.8102482" lon="-118.393875">
  <ele>0.575</ele>
  <time>2026-09-02T22:13:04Z</time>
  <course>187.07</course>
  <speed>0.01</speed>
  <fix>3d</fix>
</trkpt>
<trkpt lat="33.8102482" lon="-118.393875">
  <ele>0.575</ele>
  <time>2026-09-02T22:13:04Z</time>
  <course>187.07</course>
  <speed>0.01</speed>
  <fix>3d</fix>
</trkpt>
<trkpt lat="33.8102482" lon="-118.393875">
  <ele>0.575</ele>
  <time>2026-09-02T22:13:04Z</time>
  <course>187.07</course>
  <speed>0.01</speed>
  <fix>3d</fix>
</trkpt>
<trkpt lat="33.8102482" lon="-118.393875">
  <ele>0.575</ele>
  <time>2026-09-02T22:13:04Z</time>
  <course>187.07</course>
  <speed>0.01</speed>
  <fix>3d</fix>
</trkpt>
<trkpt lat="33.8102482" lon="-118.393875">
  <ele>0.575</ele>
  <time>2026-09-02T22:13:04Z</time>
  <course>187.08</course>
  <speed>0.01</speed>
  <fix>3d</fix>
</trkpt>
<trkpt lat="33.8102482" lon="-118.393875">
  <ele>0.575</ele>
  <time>2026-09-02T22:13:04Z</time>
  <course>187.08</course>
  <speed>0.01</speed>
  <fix>3d</fix>
</trkpt>
<trkpt lat="33.8102482" lon="-118.393875">
  <ele>0.575</ele>
  <time>2026-09-02T22:13:04Z</time>
  <course>187.08</course>
  <speed>0.01</speed>
  <fix>3d</fix>
</trkpt>
<trkpt lat="33.8102482" lon="-118.393875">
  <ele>0.575</ele>
  <time>2026-09-02T22:13:04Z</time>
  <course>187.08</course>
  <speed>0.01</speed>
  <fix>3d</fix>
</trkpt>
<trkpt lat="33.8102482" lon="-118.393875">
  <ele>0.574</ele>
  <time>2026-09-02T22:13:04Z</time>
  <course>187.08</course>
  <speed>0.01</speed>
  <fix>3d</fix>
</trkpt>
<trkpt lat="33.8102474" lon="-118.3938873">
  <ele>2.44</ele>
  <time>2026-09-02T22:13:04Z</time>
  <course>148.26</course>
  <speed>0.04</speed>
  <fix>3d</fix>
</trkpt>
<trkpt lat="33.8102482" lon="-118.393875">
  <ele>0.574</ele>
  <time>2026-09-02T22:13:04Z</time>
  <course>187.08</course>
  <speed>0.01</speed>
  <fix>3d</fix>
</trkpt>
<trkpt lat="33.8102482" lon="-118.3938752">
  <ele>0.574</ele>
  <time>2026-09-02T22:13:04Z</time>
  <course>187.09</course>
  <speed>0.02</speed>
  <fix>3d</fix>
</trkpt>
<trkpt lat="33.8102482" lon="-118.3938752">
  <ele>0.574</ele>
  <time>2026-09-02T22:13:04Z</time>
  <course>187.09</course>
  <speed>0.02</speed>
  <fix>3d</fix>
</trkpt>
<trkpt lat="33.8102482" lon="-118.3938752">
  <ele>0.573</ele>
  <time>2026-09-02T22:13:04Z</time>
  <course>187.09</course>
  <speed>0.02</speed>
  <fix>3d</fix>
</trkpt>
<trkpt lat="33.8102482" lon="-118.3938752">
  <ele>0.573</ele>
  <time>2026-09-02T22:13:04Z</time>
  <course>187.09</course>
  <speed>0.02</speed>
  <fix>3d</fix>
</trkpt>
<trkpt lat="33.8102482" lon="-118.3938752">
  <ele>0.573</ele>
  <time>2026-09-02T22:13:04Z</time>
  <course>187.09</course>
  <speed>0.02</speed>
  <fix>3d</fix>
</trkpt>
<trkpt lat="33.8102482" lon="-118.3938752">
  <ele>0.573</ele>
  <time>2026-09-02T22:13:04Z</time>
  <course>187.09</course>
  <speed>0.02</speed>
  <fix>3d</fix>
</trkpt>
<trkpt lat="33.8102482" lon="-118.3938752">
  <ele>0.573</ele>
  <time>2026-09-02T22:13:04Z</time>
  <course>187.09</course>
  <speed>0.02</speed>
  <fix>3d</fix>
</trkpt>
<trkpt lat="33.8102474" lon="-118.3938873">
  <ele>2.44</ele>
  <time>2026-09-02T22:13:04Z</time>
  <course>148.26</course>
  <speed>0.04</speed>
  <fix>3d</fix>
</trkpt>
<trkpt lat="33.8102481" lon="-118.3938752">
  <ele>0.573</ele>
  <time>2026-09-02T22:13:04Z</time>
  <course>187.09</course>
  <speed>0.02</speed>
  <fix>3d</fix>
</trkpt>
<trkpt lat="33.8102481" lon="-118.3938752">
  <ele>0.573</ele>
  <time>2026-09-02T22:13:04Z</time>
  <course>187.09</course>
  <speed>0.02</speed>
  <fix>3d</fix>
</trkpt>
<trkpt lat="33.8102481" lon="-118.3938752">
  <ele>0.572</ele>
  <time>2026-09-02T22:13:04Z</time>
  <course>187.09</course>
  <speed>0.02</speed>
  <fix>3d</fix>
</trkpt>
<trkpt lat="33.8102481" lon="-118.3938752">
  <ele>0.572</ele>
  <time>2026-09-02T22:13:04Z</time>
  <course>187.09</course>
  <speed>0.02</speed>
  <fix>3d</fix>
</trkpt>
<trkpt lat="33.8102481" lon="-118.3938752">
  <ele>0.572</ele>
  <time>2026-09-02T22:13:04Z</time>
  <course>187.09</course>
  <speed>0.02</speed>
  <fix>3d</fix>
</trkpt>
<trkpt lat="33.8102481" lon="-118.3938752">
  <ele>0.572</ele>
  <time>2026-09-02T22:13:04Z</time>
  <course>187.09</course>
  <speed>0.02</speed>
  <fix>3d</fix>
</trkpt>
<trkpt lat="33.8102481" lon="-118.3938752">
  <ele>0.572</ele>
  <time>2026-09-02T22:13:04Z</time>
  <course>187.08</course>
  <speed>0.02</speed>
  <fix>3d</fix>
</trkpt>
<trkpt lat="33.8102481" lon="-118.3938752">
  <ele>0.572</ele>
  <time>2026-09-02T22:13:04Z</time>
  <course>187.08</course>
  <speed>0.03</speed>
  <fix>3d</fix>
</trkpt>
<trkpt lat="33.8102481" lon="-118.3938752">
  <ele>0.572</ele>
  <time>2026-09-02T22:13:04Z</time>
  <course>187.08</course>
  <speed>0.03</speed>
  <fix>3d</fix>
</trkpt>
<trkpt lat="33.8102481" lon="-118.3938752">
  <ele>0.572</ele>
  <time>2026-09-02T22:13:04Z</time>
  <course>187.08</course>
  <speed>0.03</speed>
  <fix>3d</fix>
</trkpt>
<trkpt lat="33.8102481" lon="-118.3938752">
  <ele>0.572</ele>
  <time>2026-09-02T22:13:04Z</time>
  <course>187.08</course>
  <speed>0.03</speed>
  <fix>3d</fix>
</trkpt>
<trkpt lat="33.8102481" lon="-118.3938752">
  <ele>0.572</ele>
  <time>2026-09-02T22:13:04Z</time>
  <course>187.08</course>
  <speed>0.03</speed>
  <fix>3d</fix>
</trkpt>
<trkpt lat="33.8102466" lon="-118.3938893">
  <ele>2.45</ele>
  <time>2026-09-02T22:13:04Z</time>
  <course>134.94</course>
  <speed>0.05</speed>
  <fix>3d</fix>
</trkpt>
<trkpt lat="33.8102481" lon="-118.3938752">
  <ele>0.572</ele>
  <time>2026-09-02T22:13:04Z</time>
  <course>187.08</course>
  <speed>0.03</speed>
  <fix>3d</fix>
</trkpt>
<trkpt lat="33.8102481" lon="-118.3938753">
  <ele>0.572</ele>
  <time>2026-09-02T22:13:04Z</time>
  <course>187.08</course>
  <speed>0.03</speed>
  <fix>3d</fix>
</trkpt>
<trkpt lat="33.8102481" lon="-118.3938753">
  <ele>0.572</ele>
  <time>2026-09-02T22:13:04Z</time>
  <course>187.08</course>
  <speed>0.03</speed>
  <fix>3d</fix>
</trkpt>
<trkpt lat="33.8102481" lon="-118.3938753">
  <ele>0.572</ele>
  <time>2026-09-02T22:13:04Z</time>
  <course>187.08</course>
  <speed>0.03</speed>
  <fix>3d</fix>
</trkpt>
<trkpt lat="33.8102481" lon="-118.3938753">
  <ele>0.572</ele>
  <time>2026-09-02T22:13:04Z</time>
  <course>187.08</course>
  <speed>0.03</speed>
  <fix>3d</fix>
</trkpt>
<trkpt lat="33.8102481" lon="-118.3938753">
  <ele>0.572</ele>
  <time>2026-09-02T22:13:04Z</time>
  <course>187.08</course>
  <speed>0.03</speed>
  <fix>3d</fix>
</trkpt>
<trkpt lat="33.8102481" lon="-118.3938753">
  <ele>0.572</ele>
  <time>2026-09-02T22:13:04Z</time>
  <course>187.08</course>
  <speed>0.04</speed>
  <fix>3d</fix>
</trkpt>
<trkpt lat="33.8102481" lon="-118.3938753">
  <ele>0.572</ele>
  <time>2026-09-02T22:13:04Z</time>
  <course>187.08</course>
  <speed>0.04</speed>
  <fix>3d</fix>
</trkpt>
<trkpt lat="33.8102481" lon="-118.3938753">
  <ele>0.572</ele>
  <time>2026-09-02T22:13:04Z</time>
  <course>187.08</course>
  <speed>0.04</speed>
  <fix>3d</fix>
</trkpt>
<trkpt lat="33.8102481" lon="-118.3938753">
  <ele>0.572</ele>
  <time>2026-09-02T22:13:04Z</time>
  <course>187.08</course>
  <speed>0.04</speed>
  <fix>3d</fix>
</trkpt>
<trkpt lat="33.8102481" lon="-118.3938753">
  <ele>0.571</ele>
  <time>2026-09-02T22:13:04Z</time>
  <course>187.08</course>
  <speed>0.04</speed>
  <fix>3d</fix>
</trkpt>
<trkpt lat="33.8102481" lon="-118.3938753">
  <ele>0.571</ele>
  <time>2026-09-02T22:13:04Z</time>
  <course>187.08</course>
  <speed>0.04</speed>
  <fix>3d</fix>
</trkpt>
<trkpt lat="33.8102466" lon="-118.3938893">
  <ele>2.45</ele>
  <time>2026-09-02T22:13:04Z</time>
  <course>134.94</course>
  <speed>0.05</speed>
  <fix>3d</fix>
</trkpt>
<trkpt lat="33.8102481" lon="-118.3938753">
  <ele>0.571</ele>
  <time>2026-09-02T22:13:04Z</time>
  <course>187.08</course>
  <speed>0.04</speed>
  <fix>3d</fix>
</trkpt>
<trkpt lat="33.8102481" lon="-118.3938753">
  <ele>0.571</ele>
  <time>2026-09-02T22:13:04Z</time>
  <course>187.08</course>
  <speed>0.04</speed>
  <fix>3d</fix>
</trkpt>
<trkpt lat="33.8102481" lon="-118.3938753">
  <ele>0.571</ele>
  <time>2026-09-02T22:13:04Z</time>
  <course>187.09</course>
  <speed>0.04</speed>
  <fix>3d</fix>
</trkpt>
<trkpt lat="33.8102481" lon="-118.3938753">
  <ele>0.571</ele>
  <time>2026-09-02T22:13:04Z</time>
  <course>187.09</course>
  <speed>0.04</speed>
  <fix>3d</fix>
</trkpt>
<trkpt lat="33.8102481" lon="-118.3938753">
  <ele>0.571</ele>
  <time>2026-09-02T22:13:04Z</time>
  <course>187.09</course>
  <speed>0.0412310562561766</speed>
  <fix>3d</fix>
</trkpt>
<trkpt lat="33.8102481" lon="-118.3938753">
  <ele>0.571</ele>
  <time>2026-09-02T22:13:04Z</time>
  <course>187.09</course>
  <speed>0.0412310562561766</speed>
  <fix>3d</fix>
</trkpt>
<trkpt lat="33.8102481" lon="-118.3938753">
  <ele>0.571</ele>
  <time>2026-09-02T22:13:04Z</time>
  <course>187.09</course>
  <speed>0.0412310562561766</speed>
  <fix>3d</fix>
</trkpt>
<trkpt lat="33.8102481" lon="-118.3938753">
  <ele>0.571</ele>
  <time>2026-09-02T22:13:04Z</time>
  <course>187.09</course>
  <speed>0.0412310562561766</speed>
  <fix>3d</fix>
</trkpt>
<trkpt lat="33.8102481" lon="-118.3938753">
  <ele>0.571</ele>
  <time>2026-09-02T22:13:04Z</time>
  <course>187.09</course>
  <speed>0.0412310562561766</speed>
  <fix>3d</fix>
</trkpt>
<trkpt lat="33.8102481" lon="-118.3938753">
  <ele>0.571</ele>
  <time>2026-09-02T22:13:04Z</time>
  <course>187.09</course>
  <speed>0.0412310562561766</speed>
  <fix>3d</fix>
</trkpt>
<trkpt lat="33.8102481" lon="-118.3938753">
  <ele>0.571</ele>
  <time>2026-09-02T22:13:04Z</time>
  <course>187.09</course>
  <speed>0.0412310562561766</speed>
  <fix>3d</fix>
</trkpt>
<trkpt lat="33.8102481" lon="-118.3938753">
  <ele>0.571</ele>
  <time>2026-09-02T22:13:04Z</time>
  <course>187.09</course>
  <speed>0.0412310562561766</speed>
  <fix>3d</fix>
</trkpt>
<trkpt lat="33.8102481" lon="-118.3938753">
  <ele>0.571</ele>
  <time>2026-09-02T22:13:04Z</time>
  <course>187.09</course>
  <speed>0.0412310562561766</speed>
  <fix>3d</fix>
</trkpt>
<trkpt lat="33.8102457" lon="-118.3938911">
  <ele>2.45</ele>
  <time>2026-09-02T22:13:04Z</time>
  <course>118.48</course>
  <speed>0.06</speed>
  <fix>3d</fix>
</trkpt>
<trkpt lat="33.8102481" lon="-118.3938753">
  <ele>0.571</ele>
  <time>2026-09-02T22:13:04Z</time>
  <course>187.09</course>
  <speed>0.05099019513592785</speed>
  <fix>3d</fix>
</trkpt>
<trkpt lat="33.8102481" lon="-118.3938753">
  <ele>0.571</ele>
  <time>2026-09-02T22:13:04Z</time>
  <course>187.09</course>
  <speed>0.05099019513592785</speed>
  <fix>3d</fix>
</trkpt>
<trkpt lat="33.8102481" lon="-118.3938753">
  <ele>0.571</ele>
  <time>2026-09-02T22:13:04Z</time>
  <course>187.09</course>
  <speed>0.05099019513592785</speed>
  <fix>3d</fix>
</trkpt>
<trkpt lat="33.8102481" lon="-118.3938753">
  <ele>0.571</ele>
  <time>2026-09-02T22:13:04Z</time>
  <course>187.09</course>
  <speed>0.05099019513592785</speed>
  <fix>3d</fix>
</trkpt>
<trkpt lat="33.8102481" lon="-118.3938753">
  <ele>0.571</ele>
  <time>2026-09-02T22:13:04Z</time>
  <course>187.1</course>
  <speed>0.05099019513592785</speed>
  <fix>3d</fix>
</trkpt>
<trkpt lat="33.8102481" lon="-118.3938753">
  <ele>0.571</ele>
  <time>2026-09-02T22:13:04Z</time>
  <course>187.1</course>
  <speed>0.05099019513592785</speed>
  <fix>3d</fix>
</trkpt>
<trkpt lat="33.8102481" lon="-118.3938753">
  <ele>0.571</ele>
  <time>2026-09-02T22:13:04Z</time>
  <course>187.1</course>
  <speed>0.05099019513592785</speed>
  <fix>3d</fix>
</trkpt>
<trkpt lat="33.8102481" lon="-118.3938753">
  <ele>0.571</ele>
  <time>2026-09-02T22:13:04Z</time>
  <course>187.1</course>
  <speed>0.05099019513592785</speed>
  <fix>3d</fix>
</trkpt>
<trkpt lat="33.8102481" lon="-118.3938753">
  <ele>0.571</ele>
  <time>2026-09-02T22:13:04Z</time>
  <course>187.1</course>
  <speed>0.05099019513592785</speed>
  <fix>3d</fix>
</trkpt>
<trkpt lat="33.8102481" lon="-118.3938753">
  <ele>0.571</ele>
  <time>2026-09-02T22:13:04Z</time>
  <course>187.1</course>
  <speed>0.05099019513592785</speed>
  <fix>3d</fix>
</trkpt>
<trkpt lat="33.8102481" lon="-118.3938753">
  <ele>0.571</ele>
  <time>2026-09-02T22:13:04Z</time>
  <course>187.1</course>
  <speed>0.06082762530298219</speed>
  <fix>3d</fix>
</trkpt>
<trkpt lat="33.8102481" lon="-118.3938753">
  <ele>0.571</ele>
  <time>2026-09-02T22:13:04Z</time>
  <course>187.1</course>
  <speed>0.06082762530298219</speed>
  <fix>3d</fix>
</trkpt>
<trkpt lat="33.8102457" lon="-118.3938911">
  <ele>2.45</ele>
  <time>2026-09-02T22:13:04Z</time>
  <course>118.48</course>
  <speed>0.06</speed>
  <fix>3d</fix>
</trkpt>
<trkpt lat="33.8102481" lon="-118.3938753">
  <ele>0.571</ele>
  <time>2026-09-02T22:13:04Z</time>
  <course>187.1</course>
  <speed>0.06082762530298219</speed>
  <fix>3d</fix>
</trkpt>
<trkpt lat="33.8102481" lon="-118.3938753">
  <ele>0.571</ele>
  <time>2026-09-02T22:13:04Z</time>
  <course>187.1</course>
  <speed>0.06082762530298219</speed>
  <fix>3d</fix>
</trkpt>
<trkpt lat="33.8102481" lon="-118.3938753">
  <ele>0.571</ele>
  <time>2026-09-02T22:13:04Z</time>
  <course>187.09</course>
  <speed>0.0632455532033676</speed>
  <fix>3d</fix>
</trkpt>
<trkpt lat="33.8102481" lon="-118.3938753">
  <ele>0.571</ele>
  <time>2026-09-02T22:13:04Z</time>
  <course>187.09</course>
  <speed>0.0632455532033676</speed>
  <fix>3d</fix>
</trkpt>
<trkpt lat="33.8102481" lon="-118.3938753">
  <ele>0.571</ele>
  <time>2026-09-02T22:13:04Z</time>
  <course>187.09</course>
  <speed>0.0632455532033676</speed>
  <fix>3d</fix>
</trkpt>
<trkpt lat="33.8102481" lon="-118.3938753">
  <ele>0.572</ele>
  <time>2026-09-02T22:13:04Z</time>
  <course>187.09</course>
  <speed>0.0632455532033676</speed>
  <fix>3d</fix>
</trkpt>
<trkpt lat="33.8102481" lon="-118.3938753">
  <ele>0.572</ele>
  <time>2026-09-02T22:13:04Z</time>
  <course>187.09</course>
  <speed>0.0632455532033676</speed>
  <fix>3d</fix>
</trkpt>
<trkpt lat="33.810248" lon="-118.3938753">
  <ele>0.572</ele>
  <time>2026-09-02T22:13:04Z</time>
  <course>187.09</course>
  <speed>0.0632455532033676</speed>
  <fix>3d</fix>
</trkpt>
<trkpt lat="33.810248" lon="-118.3938753">
  <ele>0.572</ele>
  <time>2026-09-02T22:13:04Z</time>
  <course>187.09</course>
  <speed>0.0632455532033676</speed>
  <fix>3d</fix>
</trkpt>
<trkpt lat="33.810248" lon="-118.3938753">
  <ele>0.572</ele>
  <time>2026-09-02T22:13:04Z</time>
  <course>187.09</course>
  <speed>0.0632455532033676</speed>
  <fix>3d</fix>
</trkpt>
<trkpt lat="33.810248" lon="-118.3938753">
  <ele>0.572</ele>
  <time>2026-09-02T22:13:04Z</time>
  <course>187.09</course>
  <speed>0.0632455532033676</speed>
  <fix>3d</fix>
</trkpt>
<trkpt lat="33.810248" lon="-118.3938753">
  <ele>0.572</ele>
  <time>2026-09-02T22:13:04Z</time>
  <course>187.09</course>
  <speed>0.0632455532033676</speed>
  <fix>3d</fix>
</trkpt>
<trkpt lat="33.8102447" lon="-118.3938928">
  <ele>2.46</ele>
  <time>2026-09-02T22:13:04Z</time>
  <course>104.04</course>
  <speed>0.07</speed>
  <fix>3d</fix>
</trkpt>
<trkpt lat="33.810248" lon="-118.3938753">
  <ele>0.572</ele>
  <time>2026-09-02T22:13:04Z</time>
  <course>187.09</course>
  <speed>0.0632455532033676</speed>
  <fix>3d</fix>
</trkpt>
<trkpt lat="33.810248" lon="-118.3938753">
  <ele>0.572</ele>
  <time>2026-09-02T22:13:04Z</time>
  <course>187.09</course>
  <speed>0.0632455532033676</speed>
  <fix>3d</fix>
</trkpt>
<trkpt lat="33.810248" lon="-118.3938753">
  <ele>0.572</ele>
  <time>2026-09-02T22:13:04Z</time>
  <course>187.09</course>
  <speed>0.07280109889280519</speed>
  <fix>3d</fix>
</trkpt>
<trkpt lat="33.810248" lon="-118.3938753">
  <ele>0.572</ele>
  <time>2026-09-02T22:13:04Z</time>
  <course>187.09</course>
  <speed>0.07280109889280519</speed>
  <fix>3d</fix>
</trkpt>
<trkpt lat="33.810248" lon="-118.3938753">
  <ele>0.572</ele>
  <time>2026-09-02T22:13:04Z</time>
  <course>187.09</course>
  <speed>0.07280109889280519</speed>
  <fix>3d</fix>
</trkpt>
<trkpt lat="33.810248" lon="-118.3938753">
  <ele>0.572</ele>
  <time>2026-09-02T22:13:04Z</time>
  <course>187.09</course>
  <speed>0.07280109889280519</speed>
  <fix>3d</fix>
</trkpt>
<trkpt lat="33.810248" lon="-118.3938753">
  <ele>0.572</ele>
  <time>2026-09-02T22:13:04Z</time>
  <course>187.09</course>
  <speed>0.07280109889280519</speed>
  <fix>3d</fix>
</trkpt>
<trkpt lat="33.810248" lon="-118.3938753">
  <ele>0.573</ele>
  <time>2026-09-02T22:13:04Z</time>
  <course>187.1</course>
  <speed>0.07280109889280519</speed>
  <fix>3d</fix>
</trkpt>
<trkpt lat="33.810248" lon="-118.3938753">
  <ele>0.573</ele>
  <time>2026-09-02T22:13:04Z</time>
  <course>187.1</course>
  <speed>0.07280109889280519</speed>
  <fix>3d</fix>
</trkpt>
<trkpt lat="33.810248" lon="-118.3938754">
  <ele>0.573</ele>
  <time>2026-09-02T22:13:04Z</time>
  <course>187.1</course>
  <speed>0.07280109889280519</speed>
  <fix>3d</fix>
</trkpt>
<trkpt lat="33.810248" lon="-118.3938753">
  <ele>0.573</ele>
  <time>2026-09-02T22:13:04Z</time>
  <course>187.1</course>
  <speed>0.07280109889280519</speed>
  <fix>3d</fix>
</trkpt>
<trkpt lat="33.810248" lon="-118.3938753">
  <ele>0.573</ele>
  <time>2026-09-02T22:13:04Z</time>
  <course>187.1</course>
  <speed>0.07615773105863909</speed>
  <fix>3d</fix>
</trkpt>
<trkpt lat="33.810248" lon="-118.3938753">
  <ele>0.573</ele>
  <time>2026-09-02T22:13:04Z</time>
  <course>187.1</course>
  <speed>0.07615773105863909</speed>
  <fix>3d</fix>
</trkpt>
<trkpt lat="33.8102447" lon="-118.3938928">
  <ele>2.46</ele>
  <time>2026-09-02T22:13:04Z</time>
  <course>104.04</course>
  <speed>0.07</speed>
  <fix>3d</fix>
</trkpt>
<trkpt lat="33.810248" lon="-118.3938753">
  <ele>0.573</ele>
  <time>2026-09-02T22:13:04Z</time>
  <course>187.1</course>
  <speed>0.07615773105863909</speed>
  <fix>3d</fix>
</trkpt>
<trkpt lat="33.810248" lon="-118.3938753">
  <ele>0.573</ele>
  <time>2026-09-02T22:13:04Z</time>
  <course>187.1</course>
  <speed>0.07615773105863909</speed>
  <fix>3d</fix>
</trkpt>
<trkpt lat="33.810248" lon="-118.3938753">
  <ele>0.573</ele>
  <time>2026-09-02T22:13:04Z</time>
  <course>187.1</course>
  <speed>0.07615773105863909</speed>
  <fix>3d</fix>
</trkpt>
<trkpt lat="33.810248" lon="-118.3938753">
  <ele>0.573</ele>
  <time>2026-09-02T22:13:04Z</time>
  <course>187.1</course>
  <speed>0.07615773105863909</speed>
  <fix>3d</fix>
</trkpt>
<trkpt lat="33.810248" lon="-118.3938753">
  <ele>0.573</ele>
  <time>2026-09-02T22:13:04Z</time>
  <course>187.1</course>
  <speed>0.07615773105863909</speed>
  <fix>3d</fix>
</trkpt>
<trkpt lat="33.810248" lon="-118.3938753">
  <ele>0.573</ele>
  <time>2026-09-02T22:13:04Z</time>
  <course>187.09</course>
  <speed>0.07615773105863909</speed>
  <fix>3d</fix>
</trkpt>
<trkpt lat="33.810248" lon="-118.3938754">
  <ele>0.573</ele>
  <time>2026-09-02T22:13:04Z</time>
  <course>187.09</course>
  <speed>0.07615773105863909</speed>
  <fix>3d</fix>
</trkpt>
<trkpt lat="33.810248" lon="-118.3938754">
  <ele>0.573</ele>
  <time>2026-09-02T22:13:04Z</time>
  <course>187.09</course>
  <speed>0.07615773105863909</speed>
  <fix>3d</fix>
</trkpt>
<trkpt lat="33.810248" lon="-118.3938754">
  <ele>0.573</ele>
  <time>2026-09-02T22:13:04Z</time>
  <course>187.09</course>
  <speed>0.0854400374531753</speed>
  <fix>3d</fix>
</trkpt>
<trkpt lat="33.810248" lon="-118.3938754">
  <ele>0.573</ele>
  <time>2026-09-02T22:13:04Z</time>
  <course>187.09</course>
  <speed>0.0854400374531753</speed>
  <fix>3d</fix>
</trkpt>
<trkpt lat="33.810248" lon="-118.3938754">
  <ele>0.573</ele>
  <time>2026-09-02T22:13:04Z</time>
  <course>187.09</course>
  <speed>0.0854400374531753</speed>
  <fix>3d</fix>
</trkpt>
<trkpt lat="33.810248" lon="-118.3938754">
  <ele>0.573</ele>
  <time>2026-09-02T22:13:04Z</time>
  <course>187.09</course>
  <speed>0.0854400374531753</speed>
  <fix>3d</fix>
</trkpt>
<trkpt lat="33.810248" lon="-118.3938754">
  <ele>0.573</ele>
  <time>2026-09-02T22:13:04Z</time>
  <course>187.09</course>
  <speed>0.0854400374531753</speed>
  <fix>3d</fix>
</trkpt>
<trkpt lat="33.8102435" lon="-118.3938943">
  <ele>2.46</ele>
  <time>2026-09-02T22:13:04Z</time>
  <course>93.94</course>
  <speed>0.08</speed>
  <fix>3d</fix>
</trkpt>
<trkpt lat="33.810248" lon="-118.3938754">
  <ele>0.573</ele>
  <time>2026-09-02T22:13:04Z</time>
  <course>187.09</course>
  <speed>0.0854400374531753</speed>
  <fix>3d</fix>
</trkpt>
<trkpt lat="33.810248" lon="-118.3938754">
  <ele>0.573</ele>
  <time>2026-09-02T22:13:04Z</time>
  <course>187.09</course>
  <speed>0.0854400374531753</speed>
  <fix>3d</fix>
</trkpt>
<trkpt lat="33.810248" lon="-118.3938754">
  <ele>0.573</ele>
  <time>2026-09-02T22:13:04Z</time>
  <course>187.09</course>
  <speed>0.0854400374531753</speed>
  <fix>3d</fix>
</trkpt>
<trkpt lat="33.810248" lon="-118.3938754">
  <ele>0.573</ele>
  <time>2026-09-02T22:13:04Z</time>
  <course>187.1</course>
  <speed>0.0854400374531753</speed>
  <fix>3d</fix>
</trkpt>
<trkpt lat="33.810248" lon="-118.3938754">
  <ele>0.573</ele>
  <time>2026-09-02T22:13:04Z</time>
  <course>187.1</course>
  <speed>0.0854400374531753</speed>
  <fix>3d</fix>
</trkpt>
<trkpt lat="33.810248" lon="-118.3938754">
  <ele>0.574</ele>
  <time>2026-09-02T22:13:04Z</time>
  <course>187.1</course>
  <speed>0.0854400374531753</speed>
  <fix>3d</fix>
</trkpt>
<trkpt lat="33.810248" lon="-118.3938754">
  <ele>0.574</ele>
  <time>2026-09-02T22:13:04Z</time>
  <course>187.1</course>
  <speed>0.0854400374531753</speed>
  <fix>3d</fix>
</trkpt>
<trkpt lat="33.810248" lon="-118.3938754">
  <ele>0.574</ele>
  <time>2026-09-02T22:13:04Z</time>
  <course>187.1</course>
  <speed>0.0854400374531753</speed>
  <fix>3d</fix>
</trkpt>
<trkpt lat="33.810248" lon="-118.3938754">
  <ele>0.574</ele>
  <time>2026-09-02T22:13:04Z</time>
  <course>187.1</course>
  <speed>0.0854400374531753</speed>
  <fix>3d</fix>
</trkpt>
<trkpt lat="33.810248" lon="-118.3938754">
  <ele>0.574</ele>
  <time>2026-09-02T22:13:04Z</time>
  <course>187.1</course>
  <speed>0.09486832980505139</speed>
  <fix>3d</fix>
</trkpt>
<trkpt lat="33.810248" lon="-118.3938754">
  <ele>0.574</ele>
  <time>2026-09-02T22:13:04Z</time>
  <course>187.1</course>
  <speed>0.09848857801796104</speed>
  <fix>3d</fix>
</trkpt>
<trkpt lat="33.810248" lon="-118.3938754">
  <ele>0.574</ele>
  <time>2026-09-02T22:13:04Z</time>
  <course>187.1</course>
  <speed>0.09848857801796104</speed>
  <fix>3d</fix>
</trkpt>
<trkpt lat="33.810248" lon="-118.3938754">
  <ele>0.574</ele>
  <time>2026-09-02T22:13:04Z</time>
  <course>187.1</course>
  <speed>0.09848857801796104</speed>
  <fix>3d</fix>
</trkpt>
<trkpt lat="33.8102435" lon="-118.3938943">
  <ele>2.46</ele>
  <time>2026-09-02T22:13:04Z</time>
  <course>93.94</course>
  <speed>0.08</speed>
  <fix>3d</fix>
</trkpt>
<trkpt lat="33.810248" lon="-118.3938754">
  <ele>0.574</ele>
  <time>2026-09-02T22:13:04Z</time>
  <course>187.1</course>
  <speed>0.09848857801796104</speed>
  <fix>3d</fix>
</trkpt>
<trkpt lat="33.810248" lon="-118.3938754">
  <ele>0.574</ele>
  <time>2026-09-02T22:13:04Z</time>
  <course>187.1</course>
  <speed>0.09848857801796104</speed>
  <fix>3d</fix>
</trkpt>
<trkpt lat="33.810248" lon="-118.3938754">
  <ele>0.574</ele>
  <time>2026-09-02T22:13:04Z</time>
  <course>187.1</course>
  <speed>0.09848857801796104</speed>
  <fix>3d</fix>
</trkpt>
<trkpt lat="33.810248" lon="-118.3938754">
  <ele>0.574</ele>
  <time>2026-09-02T22:13:04Z</time>
  <course>187.1</course>
  <speed>0.09848857801796104</speed>
  <fix>3d</fix>
</trkpt>
<trkpt lat="33.810248" lon="-118.3938754">
  <ele>0.574</ele>
  <time>2026-09-02T22:13:04Z</time>
  <course>187.1</course>
  <speed>0.09848857801796104</speed>
  <fix>3d</fix>
</trkpt>
<trkpt lat="33.810248" lon="-118.3938754">
  <ele>0.574</ele>
  <time>2026-09-02T22:13:04Z</time>
  <course>187.1</course>
  <speed>0.09848857801796104</speed>
  <fix>3d</fix>
</trkpt>
<trkpt lat="33.810248" lon="-118.3938754">
  <ele>0.574</ele>
  <time>2026-09-02T22:13:04Z</time>
  <course>187.1</course>
  <speed>0.09848857801796104</speed>
  <fix>3d</fix>
</trkpt>
<trkpt lat="33.810248" lon="-118.3938754">
  <ele>0.574</ele>
  <time>2026-09-02T22:13:04Z</time>
  <course>187.1</course>
  <speed>0.09848857801796104</speed>
  <fix>3d</fix>
</trkpt>
<trkpt lat="33.810248" lon="-118.3938754">
  <ele>0.574</ele>
  <time>2026-09-02T22:13:04Z</time>
  <course>187.1</course>
  <speed>0.09848857801796104</speed>
  <fix>3d</fix>
</trkpt>
<trkpt lat="33.810248" lon="-118.3938754">
  <ele>0.574</ele>
  <time>2026-09-02T22:13:04Z</time>
  <course>187.1</course>
  <speed>0.09848857801796104</speed>
  <fix>3d</fix>
</trkpt>
<trkpt lat="33.810248" lon="-118.3938754">
  <ele>0.574</ele>
  <time>2026-09-02T22:13:04Z</time>
  <course>187.1</course>
  <speed>0.09848857801796104</speed>
  <fix>3d</fix>
</trkpt>
<trkpt lat="33.810248" lon="-118.3938754">
  <ele>0.574</ele>
  <time>2026-09-02T22:13:04Z</time>
  <course>187.1</course>
  <speed>0.09848857801796104</speed>
  <fix>3d</fix>
</trkpt>
<trkpt lat="33.8102422" lon="-118.3938955">
  <ele>2.47</ele>
  <time>2026-09-02T22:13:04Z</time>
  <course>87.25</course>
  <speed>0.1</speed>
  <fix>3d</fix>
</trkpt>
<trkpt lat="33.810248" lon="-118.3938754">
  <ele>0.574</ele>
  <time>2026-09-02T22:13:04Z</time>
  <course>187.1</course>
  <speed>0.09848857801796104</speed>
  <fix>3d</fix>
</trkpt>
<trkpt lat="33.810248" lon="-118.3938754">
  <ele>0.574</ele>
  <time>2026-09-02T22:13:04Z</time>
  <course>187.1</course>
  <speed>0.09848857801796104</speed>
  <fix>3d</fix>
</trkpt>
<trkpt lat="33.810248" lon="-118.3938754">
  <ele>0.574</ele>
  <time>2026-09-02T22:13:04Z</time>
  <course>187.1</course>
  <speed>0.09848857801796104</speed>
  <fix>3d</fix>
</trkpt>
<trkpt lat="33.810248" lon="-118.3938754">
  <ele>0.574</ele>
  <time>2026-09-02T22:13:04Z</time>
  <course>187.1</course>
  <speed>0.09848857801796104</speed>
  <fix>3d</fix>
</trkpt>
<trkpt lat="33.8102479" lon="-118.3938755">
  <ele>0.574</ele>
  <time>2026-09-02T22:13:04Z</time>
  <course>187.1</course>
  <speed>0.09848857801796104</speed>
  <fix>3d</fix>
</trkpt>
<trkpt lat="33.8102479" lon="-118.3938756">
  <ele>0.574</ele>
  <time>2026-09-02T22:13:04Z</time>
  <course>187.1</course>
  <speed>0.09848857801796104</speed>
  <fix>3d</fix>
</trkpt>
<trkpt lat="33.8102479" lon="-118.3938755">
  <ele>0.574</ele>
  <time>2026-09-02T22:13:04Z</time>
  <course>187.1</course>
  <speed>0.10770329614269007</speed>
  <fix>3d</fix>
</trkpt>
<trkpt lat="33.8102479" lon="-118.3938756">
  <ele>0.574</ele>
  <time>2026-09-02T22:13:04Z</time>
  <course>187.1</course>
  <speed>0.10770329614269007</speed>
  <fix>3d</fix>
</trkpt>
<trkpt lat="33.8102479" lon="-118.3938756">
  <ele>0.575</ele>
  <time>2026-09-02T22:13:04Z</time>
  <course>187.1</course>
  <speed>0.10770329614269007</speed>
  <fix>3d</fix>
</trkpt>
<trkpt lat="33.8102479" lon="-118.3938756">
  <ele>0.574</ele>
  <time>2026-09-02T22:13:04Z</time>
  <course>187.11</course>
  <speed>0.1118033988749895</speed>
  <fix>3d</fix>
</trkpt>
<trkpt lat="33.8102479" lon="-118.3938756">
  <ele>0.575</ele>
  <time>2026-09-02T22:13:04Z</time>
  <course>187.11</course>
  <speed>0.1118033988749895</speed>
  <fix>3d</fix>
</trkpt>
<trkpt lat="33.8102479" lon="-118.3938756">
  <ele>0.575</ele>
  <time>2026-09-02T22:13:04Z</time>
  <course>187.11</course>
  <speed>0.1118033988749895</speed>
  <fix>3d</fix>
</trkpt>
<trkpt lat="33.8102479" lon="-118.3938756">
  <ele>0.575</ele>
  <time>2026-09-02T22:13:04Z</time>
  <course>187.11</course>
  <speed>0.1118033988749895</speed>
  <fix>3d</fix>
</trkpt>
<trkpt lat="33.8102479" lon="-118.3938756">
  <ele>0.575</ele>
  <time>2026-09-02T22:13:04Z</time>
  <course>187.11</course>
  <speed>0.1118033988749895</speed>
  <fix>3d</fix>
</trkpt>
<trkpt lat="33.8102422" lon="-118.3938955">
  <ele>2.47</ele>
  <time>2026-09-02T22:13:04Z</time>
  <course>87.25</course>
  <speed>0.1</speed>
  <fix>3d</fix>
</trkpt>
<trkpt lat="33.8102479" lon="-118.3938756">
  <ele>0.575</ele>
  <time>2026-09-02T22:13:04Z</time>
  <course>187.11</course>
  <speed>0.1118033988749895</speed>
  <fix>3d</fix>
</trkpt>
<trkpt lat="33.8102479" lon="-118.3938755">
  <ele>0.575</ele>
  <time>2026-09-02T22:13:04Z</time>
  <course>187.11</course>
  <speed>0.1118033988749895</speed>
  <fix>3d</fix>
</trkpt>
<trkpt lat="33.8102479" lon="-118.3938755">
  <ele>0.575</ele>
  <time>2026-09-02T22:13:04Z</time>
  <course>187.11</course>
  <speed>0.1118033988749895</speed>
  <fix>3d</fix>
</trkpt>
<trkpt lat="33.8102479" lon="-118.3938756">
  <ele>0.575</ele>
  <time>2026-09-02T22:13:04Z</time>
  <course>187.11</course>
  <speed>0.1118033988749895</speed>
  <fix>3d</fix>
</trkpt>
<trkpt lat="33.8102479" lon="-118.3938755">
  <ele>0.575</ele>
  <time>2026-09-02T22:13:04Z</time>
  <course>187.12</course>
  <speed>0.1118033988749895</speed>
  <fix>3d</fix>
</trkpt>
<trkpt lat="33.8102479" lon="-118.3938755">
  <ele>0.575</ele>
  <time>2026-09-02T22:13:04Z</time>
  <course>187.12</course>
  <speed>0.1118033988749895</speed>
  <fix>3d</fix>
</trkpt>
<trkpt lat="33.8102479" lon="-118.3938756">
  <ele>0.575</ele>
  <time>2026-09-02T22:13:04Z</time>
  <course>187.12</course>
  <speed>0.1118033988749895</speed>
  <fix>3d</fix>
</trkpt>
<trkpt lat="33.8102479" lon="-118.3938755">
  <ele>0.575</ele>
  <time>2026-09-02T22:13:04Z</time>
  <course>187.12</course>
  <speed>0.1118033988749895</speed>
  <fix>3d</fix>
</trkpt>
<trkpt lat="33.8102479" lon="-118.3938756">
  <ele>0.576</ele>
  <time>2026-09-02T22:13:04Z</time>
  <course>187.12</course>
  <speed>0.1118033988749895</speed>
  <fix>3d</fix>
</trkpt>
<trkpt lat="33.8102479" lon="-118.3938756">
  <ele>0.576</ele>
  <time>2026-09-02T22:13:04Z</time>
  <course>187.12</course>
  <speed>0.1118033988749895</speed>
  <fix>3d</fix>
</trkpt>
<trkpt lat="33.8102479" lon="-118.3938756">
  <ele>0.576</ele>
  <time>2026-09-02T22:13:04Z</time>
  <course>187.12</course>
  <speed>0.1118033988749895</speed>
  <fix>3d</fix>
</trkpt>
<trkpt lat="33.8102479" lon="-118.3938756">
  <ele>0.576</ele>
  <time>2026-09-02T22:13:04Z</time>
  <course>187.12</course>
  <speed>0.1118033988749895</speed>
  <fix>3d</fix>
</trkpt>
<trkpt lat="33.8102479" lon="-118.3938756">
  <ele>0.576</ele>
  <time>2026-09-02T22:13:04Z</time>
  <course>187.12</course>
  <speed>0.1118033988749895</speed>
  <fix>3d</fix>
</trkpt>
<trkpt lat="33.8102408" lon="-118.3938966">
  <ele>2.47</ele>
  <time>2026-09-02T22:13:04Z</time>
  <course>82.69</course>
  <speed>0.11</speed>
  <fix>3d</fix>
</trkpt>
<trkpt lat="33.8102479" lon="-118.3938756">
  <ele>0.576</ele>
  <time>2026-09-02T22:13:04Z</time>
  <course>187.12</course>
  <speed>0.1118033988749895</speed>
  <fix>3d</fix>
</trkpt>
<trkpt lat="33.8102479" lon="-118.3938756">
  <ele>0.577</ele>
  <time>2026-09-02T22:13:04Z</time>
  <course>187.12</course>
  <speed>0.1118033988749895</speed>
  <fix>3d</fix>
</trkpt>
<trkpt lat="33.8102479" lon="-118.3938756">
  <ele>0.577</ele>
  <time>2026-09-02T22:13:04Z</time>
  <course>187.12</course>
  <speed>0.1118033988749895</speed>
  <fix>3d</fix>
</trkpt>
<trkpt lat="33.8102479" lon="-118.3938756">
  <ele>0.577</ele>
  <time>2026-09-02T22:13:04Z</time>
  <course>187.12</course>
  <speed>0.1118033988749895</speed>
  <fix>3d</fix>
</trkpt>
<trkpt lat="33.8102479" lon="-118.3938756">
  <ele>0.577</ele>
  <time>2026-09-02T22:13:04Z</time>
  <course>187.12</course>
  <speed>0.1118033988749895</speed>
  <fix>3d</fix>
</trkpt>
<trkpt lat="33.8102479" lon="-118.3938756">
  <ele>0.577</ele>
  <time>2026-09-02T22:13:04Z</time>
  <course>187.12</course>
  <speed>0.1118033988749895</speed>
  <fix>3d</fix>
</trkpt>
<trkpt lat="33.8102479" lon="-118.3938756">
  <ele>0.577</ele>
  <time>2026-09-02T22:13:04Z</time>
  <course>187.12</course>
  <speed>0.12083045973594572</speed>
  <fix>3d</fix>
</trkpt>
<trkpt lat="33.8102479" lon="-118.3938756">
  <ele>0.577</ele>
  <time>2026-09-02T22:13:04Z</time>
  <course>187.13</course>
  <speed>0.12083045973594572</speed>
  <fix>3d</fix>
</trkpt>
<trkpt lat="33.8102479" lon="-118.3938756">
  <ele>0.577</ele>
  <time>2026-09-02T22:13:04Z</time>
  <course>187.13</course>
  <speed>0.12529964086141668</speed>
  <fix>3d</fix>
</trkpt>
<trkpt lat="33.8102479" lon="-118.3938756">
  <ele>0.577</ele>
  <time>2026-09-02T22:13:04Z</time>
  <course>187.13</course>
  <speed>0.12529964086141668</speed>
  <fix>3d</fix>
</trkpt>
<trkpt lat="33.8102479" lon="-118.3938756">
  <ele>0.578</ele>
  <time>2026-09-02T22:13:04Z</time>
  <course>187.13</course>
  <speed>0.12529964086141668</speed>
  <fix>3d</fix>
</trkpt>
<trkpt lat="33.8102479" lon="-118.3938756">
  <ele>0.578</ele>
  <time>2026-09-02T22:13:04Z</time>
  <course>187.13</course>
  <speed>0.12529964086141668</speed>
  <fix>3d</fix>
</trkpt>
<trkpt lat="33.8102479" lon="-118.3938756">
  <ele>0.578</ele>
  <time>2026-09-02T22:13:04Z</time>
  <course>187.13</course>
  <speed>0.12529964086141668</speed>
  <fix>3d</fix>
</trkpt>
<trkpt lat="33.8102408" lon="-118.3938966">
  <ele>2.47</ele>
  <time>2026-09-02T22:13:04Z</time>
  <course>82.69</course>
  <speed>0.11</speed>
  <fix>3d</fix>
</trkpt>
<trkpt lat="33.8102479" lon="-118.3938756">
  <ele>0.578</ele>
  <time>2026-09-02T22:13:04Z</time>
  <course>187.12</course>
  <speed>0.12529964086141668</speed>
  <fix>3d</fix>
</trkpt>
<trkpt lat="33.8102479" lon="-118.3938756">
  <ele>0.578</ele>
  <time>2026-09-02T22:13:04Z</time>
  <course>187.12</course>
  <speed>0.12529964086141668</speed>
  <fix>3d</fix>
</trkpt>
<trkpt lat="33.8102479" lon="-118.3938756">
  <ele>0.578</ele>
  <time>2026-09-02T22:13:04Z</time>
  <course>187.12</course>
  <speed>0.12529964086141668</speed>
  <fix>3d</fix>
</trkpt>
<trkpt lat="33.8102479" lon="-118.3938756">
  <ele>0.579</ele>
  <time>2026-09-02T22:13:04Z</time>
  <course>187.12</course>
  <speed>0.12529964086141668</speed>
  <fix>3d</fix>
</trkpt>
<trkpt lat="33.8102479" lon="-118.3938756">
  <ele>0.579</ele>
  <time>2026-09-02T22:13:04Z</time>
  <course>187.12</course>
  <speed>0.12529964086141668</speed>
  <fix>3d</fix>
</trkpt>
<trkpt lat="33.8102479" lon="-118.3938756">
  <ele>0.579</ele>
  <time>2026-09-02T22:13:04Z</time>
  <course>187.12</course>
  <speed>0.12529964086141668</speed>
  <fix>3d</fix>
</trkpt>
<trkpt lat="33.8102479" lon="-118.3938756">
  <ele>0.579</ele>
  <time>2026-09-02T22:13:04Z</time>
  <course>187.12</course>
  <speed>0.12529964086141668</speed>
  <fix>3d</fix>
</trkpt>
<trkpt lat="33.8102479" lon="-118.3938756">
  <ele>0.579</ele>
  <time>2026-09-02T22:13:04Z</time>
  <course>187.12</course>
  <speed>0.12529964086141668</speed>
  <fix>3d</fix>
</trkpt>
<trkpt lat="33.8102479" lon="-118.3938756">
  <ele>0.579</ele>
  <time>2026-09-02T22:13:04Z</time>
  <course>187.11</course>
  <speed>0.12529964086141668</speed>
  <fix>3d</fix>
</trkpt>
<trkpt lat="33.8102479" lon="-118.3938756">
  <ele>0.579</ele>
  <time>2026-09-02T22:13:04Z</time>
  <course>187.11</course>
  <speed>0.12529964086141668</speed>
  <fix>3d</fix>
</trkpt>
<trkpt lat="33.8102479" lon="-118.3938756">
  <ele>0.579</ele>
  <time>2026-09-02T22:13:04Z</time>
  <course>187.11</course>
  <speed>0.12529964086141668</speed>
  <fix>3d</fix>
</trkpt>
<trkpt lat="33.8102479" lon="-118.3938756">
  <ele>0.58</ele>
  <time>2026-09-02T22:13:04Z</time>
  <course>187.11</course>
  <speed>0.12529964086141668</speed>
  <fix>3d</fix>
</trkpt>
<trkpt lat="33.8102479" lon="-118.3938756">
  <ele>0.58</ele>
  <time>2026-09-02T22:13:04Z</time>
  <course>187.11</course>
  <speed>0.12529964086141668</speed>
  <fix>3d</fix>
</trkpt>
<trkpt lat="33.8102393" lon="-118.3938975">
  <ele>2.47</ele>
  <time>2026-09-02T22:13:04Z</time>
  <course>78.43</course>
  <speed>0.13</speed>
  <fix>3d</fix>
</trkpt>
<trkpt lat="33.8102479" lon="-118.3938756">
  <ele>0.58</ele>
  <time>2026-09-02T22:13:04Z</time>
  <course>187.11</course>
  <speed>0.12529964086141668</speed>
  <fix>3d</fix>
</trkpt>
<trkpt lat="33.8102479" lon="-118.3938756">
  <ele>0.58</ele>
  <time>2026-09-02T22:13:04Z</time>
  <course>187.11</course>
  <speed>0.12529964086141668</speed>
  <fix>3d</fix>
</trkpt>
<trkpt lat="33.8102479" lon="-118.3938756">
  <ele>0.58</ele>
  <time>2026-09-02T22:13:04Z</time>
  <course>187.11</course>
  <speed>0.12529964086141668</speed>
  <fix>3d</fix>
</trkpt>
<trkpt lat="33.8102479" lon="-118.3938756">
  <ele>0.58</ele>
  <time>2026-09-02T22:13:04Z</time>
  <course>187.11</course>
  <speed>0.12529964086141668</speed>
  <fix>3d</fix>
</trkpt>
<trkpt lat="33.8102479" lon="-118.3938756">
  <ele>0.58</ele>
  <time>2026-09-02T22:13:04Z</time>
  <course>187.11</course>
  <speed>0.130384048104053</speed>
  <fix>3d</fix>
</trkpt>
<trkpt lat="33.8102479" lon="-118.3938756">
  <ele>0.58</ele>
  <time>2026-09-02T22:13:04Z</time>
  <course>187.1</course>
  <speed>0.130384048104053</speed>
  <fix>3d</fix>
</trkpt>
<trkpt lat="33.8102479" lon="-118.3938756">
  <ele>0.58</ele>
  <time>2026-09-02T22:13:04Z</time>
  <course>187.1</course>
  <speed>0.130384048104053</speed>
  <fix>3d</fix>
</trkpt>
<trkpt lat="33.8102479" lon="-118.3938756">
  <ele>0.58</ele>
  <time>2026-09-02T22:13:04Z</time>
  <course>187.1</course>
  <speed>0.130384048104053</speed>
  <fix>3d</fix>
</trkpt>
<trkpt lat="33.8102479" lon="-118.3938756">
  <ele>0.581</ele>
  <time>2026-09-02T22:13:04Z</time>
  <course>187.1</course>
  <speed>0.130384048104053</speed>
  <fix>3d</fix>
</trkpt>
<trkpt lat="33.8102479" lon="-118.3938756">
  <ele>0.58</ele>
  <time>2026-09-02T22:13:04Z</time>
  <course>187.1</course>
  <speed>0.130384048104053</speed>
  <fix>3d</fix>
</trkpt>
<trkpt lat="33.8102479" lon="-118.3938756">
  <ele>0.581</ele>
  <time>2026-09-02T22:13:04Z</time>
  <course>187.1</course>
  <speed>0.130384048104053</speed>
  <fix>3d</fix>
</trkpt>
<trkpt lat="33.8102479" lon="-118.3938756">
  <ele>0.581</ele>
  <time>2026-09-02T22:13:04Z</time>
  <course>187.1</course>
  <speed>0.130384048104053</speed>
  <fix>3d</fix>
</trkpt>
<trkpt lat="33.8102479" lon="-118.3938756">
  <ele>0.581</ele>
  <time>2026-09-02T22:13:04Z</time>
  <course>187.1</course>
  <speed>0.130384048104053</speed>
  <fix>3d</fix>
</trkpt>
<trkpt lat="33.8102393" lon="-118.3938975">
  <ele>2.47</ele>
  <time>2026-09-02T22:13:04Z</time>
  <course>78.43</course>
  <speed>0.13</speed>
  <fix>3d</fix>
</trkpt>
<trkpt lat="33.8102479" lon="-118.3938756">
  <ele>0.581</ele>
  <time>2026-09-02T22:13:04Z</time>
  <course>187.1</course>
  <speed>0.130384048104053</speed>
  <fix>3d</fix>
</trkpt>
<trkpt lat="33.8102479" lon="-118.3938756">
  <ele>0.581</ele>
  <time>2026-09-02T22:13:04Z</time>
  <course>187.1</course>
  <speed>0.130384048104053</speed>
  <fix>3d</fix>
</trkpt>
<trkpt lat="33.8102479" lon="-118.3938756">
  <ele>0.581</ele>
  <time>2026-09-02T22:13:04Z</time>
  <course>187.1</course>
  <speed>0.130384048104053</speed>
  <fix>3d</fix>
</trkpt>
<trkpt lat="33.8102479" lon="-118.3938756">
  <ele>0.581</ele>
  <time>2026-09-02T22:13:04Z</time>
  <course>187.1</course>
  <speed>0.130384048104053</speed>
  <fix>3d</fix>
</trkpt>
<trkpt lat="33.8102479" lon="-118.3938756">
  <ele>0.581</ele>
  <time>2026-09-02T22:13:04Z</time>
  <course>187.1</course>
  <speed>0.130384048104053</speed>
  <fix>3d</fix>
</trkpt>
<trkpt lat="33.8102479" lon="-118.3938756">
  <ele>0.581</ele>
  <time>2026-09-02T22:13:04Z</time>
  <course>187.1</course>
  <speed>0.130384048104053</speed>
  <fix>3d</fix>
</trkpt>
<trkpt lat="33.8102479" lon="-118.3938756">
  <ele>0.581</ele>
  <time>2026-09-02T22:13:04Z</time>
  <course>187.1</course>
  <speed>0.130384048104053</speed>
  <fix>3d</fix>
</trkpt>
<trkpt lat="33.8102479" lon="-118.3938756">
  <ele>0.581</ele>
  <time>2026-09-02T22:13:04Z</time>
  <course>187.1</course>
  <speed>0.130384048104053</speed>
  <fix>3d</fix>
</trkpt>
<trkpt lat="33.8102479" lon="-118.3938756">
  <ele>0.581</ele>
  <time>2026-09-02T22:13:04Z</time>
  <course>187.1</course>
  <speed>0.130384048104053</speed>
  <fix>3d</fix>
</trkpt>
<trkpt lat="33.8102479" lon="-118.3938756">
  <ele>0.581</ele>
  <time>2026-09-02T22:13:04Z</time>
  <course>187.1</course>
  <speed>0.130384048104053</speed>
  <fix>3d</fix>
</trkpt>
<trkpt lat="33.8102479" lon="-118.3938756">
  <ele>0.58</ele>
  <time>2026-09-02T22:13:04Z</time>
  <course>187.1</course>
  <speed>0.130384048104053</speed>
  <fix>3d</fix>
</trkpt>
<trkpt lat="33.8102479" lon="-118.3938756">
  <ele>0.58</ele>
  <time>2026-09-02T22:13:04Z</time>
  <course>187.11</course>
  <speed>0.130384048104053</speed>
  <fix>3d</fix>
</trkpt>
<trkpt lat="33.8102479" lon="-118.3938756">
  <ele>0.58</ele>
  <time>2026-09-02T22:13:04Z</time>
  <course>187.11</course>
  <speed>0.130384048104053</speed>
  <fix>3d</fix>
</trkpt>
<trkpt lat="33.8102377" lon="-118.3938982">
  <ele>2.47</ele>
  <time>2026-09-02T22:13:04Z</time>
  <course>74.03</course>
  <speed>0.14</speed>
  <fix>3d</fix>
</trkpt>
<trkpt lat="33.8102479" lon="-118.3938756">
  <ele>0.58</ele>
  <time>2026-09-02T22:13:04Z</time>
  <course>187.11</course>
  <speed>0.130384048104053</speed>
  <fix>3d</fix>
</trkpt>
<trkpt lat="33.8102479" lon="-118.3938756">
  <ele>0.58</ele>
  <time>2026-09-02T22:13:04Z</time>
  <course>187.11</course>
  <speed>0.14422205101855956</speed>
  <fix>3d</fix>
</trkpt>
<trkpt lat="33.8102479" lon="-118.3938756">
  <ele>0.58</ele>
  <time>2026-09-02T22:13:04Z</time>
  <course>187.11</course>
  <speed>0.14422205101855956</speed>
  <fix>3d</fix>
</trkpt>
<trkpt lat="33.8102479" lon="-118.3938756">
  <ele>0.579</ele>
  <time>2026-09-02T22:13:04Z</time>
  <course>187.11</course>
  <speed>0.14422205101855956</speed>
  <fix>3d</fix>
</trkpt>
<trkpt lat="33.8102479" lon="-118.3938756">
  <ele>0.579</ele>
  <time>2026-09-02T22:13:04Z</time>
  <course>187.11</course>
  <speed>0.14422205101855956</speed>
  <fix>3d</fix>
</trkpt>
<trkpt lat="33.8102479" lon="-118.3938756">
  <ele>0.579</ele>
  <time>2026-09-02T22:13:04Z</time>
  <course>187.11</course>
  <speed>0.14422205101855956</speed>
  <fix>3d</fix>
</trkpt>
<trkpt lat="33.8102479" lon="-118.3938756">
  <ele>0.579</ele>
  <time>2026-09-02T22:13:04Z</time>
  <course>187.11</course>
  <speed>0.14422205101855956</speed>
  <fix>3d</fix>
</trkpt>
<trkpt lat="33.8102479" lon="-118.3938756">
  <ele>0.579</ele>
  <time>2026-09-02T22:13:04Z</time>
  <course>187.11</course>
  <speed>0.14422205101855956</speed>
  <fix>3d</fix>
</trkpt>
<trkpt lat="33.8102479" lon="-118.3938756">
  <ele>0.578</ele>
  <time>2026-09-02T22:13:04Z</time>
  <course>187.11</course>
  <speed>0.14422205101855956</speed>
  <fix>3d</fix>
</trkpt>
<trkpt lat="33.8102479" lon="-118.3938756">
  <ele>0.578</ele>
  <time>2026-09-02T22:13:04Z</time>
  <course>187.11</course>
  <speed>0.14422205101855956</speed>
  <fix>3d</fix>
</trkpt>
<trkpt lat="33.8102479" lon="-118.3938756">
  <ele>0.578</ele>
  <time>2026-09-02T22:13:04Z</time>
  <course>187.11</course>
  <speed>0.14422205101855956</speed>
  <fix>3d</fix>
</trkpt>
<trkpt lat="33.8102479" lon="-118.3938756">
  <ele>0.578</ele>
  <time>2026-09-02T22:13:04Z</time>
  <course>187.11</course>
  <speed>0.14422205101855956</speed>
  <fix>3d</fix>
</trkpt>
<trkpt lat="33.8102479" lon="-118.3938756">
  <ele>0.578</ele>
  <time>2026-09-02T22:13:04Z</time>
  <course>187.11</course>
  <speed>0.14422205101855956</speed>
  <fix>3d</fix>
</trkpt>
<trkpt lat="33.8102377" lon="-118.3938982">
  <ele>2.47</ele>
  <time>2026-09-02T22:13:04Z</time>
  <course>74.03</course>
  <speed>0.14</speed>
  <fix>3d</fix>
</trkpt>
<trkpt lat="33.8102479" lon="-118.3938756">
  <ele>0.577</ele>
  <time>2026-09-02T22:13:04Z</time>
  <course>187.11</course>
  <speed>0.14422205101855956</speed>
  <fix>3d</fix>
</trkpt>
<trkpt lat="33.8102479" lon="-118.3938756">
  <ele>0.577</ele>
  <time>2026-09-02T22:13:04Z</time>
  <course>187.11</course>
  <speed>0.14422205101855956</speed>
  <fix>3d</fix>
</trkpt>
<trkpt lat="33.8102479" lon="-118.3938756">
  <ele>0.577</ele>
  <time>2026-09-02T22:13:04Z</time>
  <course>187.11</course>
  <speed>0.14422205101855956</speed>
  <fix>3d</fix>
</trkpt>
<trkpt lat="33.8102479" lon="-118.3938756">
  <ele>0.576</ele>
  <time>2026-09-02T22:13:04Z</time>
  <course>187.12</course>
  <speed>0.14422205101855956</speed>
  <fix>3d</fix>
</trkpt>
<trkpt lat="33.8102479" lon="-118.3938756">
  <ele>0.576</ele>
  <time>2026-09-02T22:13:04Z</time>
  <course>187.12</course>
  <speed>0.14422205101855956</speed>
  <fix>3d</fix>
</trkpt>
<trkpt lat="33.8102479" lon="-118.3938756">
  <ele>0.576</ele>
  <time>2026-09-02T22:13:04Z</time>
  <course>187.12</course>
  <speed>0.14422205101855956</speed>
  <fix>3d</fix>
</trkpt>
<trkpt lat="33.8102479" lon="-118.3938756">
  <ele>0.575</ele>
  <time>2026-09-02T22:13:04Z</time>
  <course>187.12</course>
  <speed>0.14422205101855956</speed>
  <fix>3d</fix>
</trkpt>
<trkpt lat="33.8102479" lon="-118.3938756">
  <ele>0.575</ele>
  <time>2026-09-02T22:13:04Z</time>
  <course>187.12</course>
  <speed>0.14422205101855956</speed>
  <fix>3d</fix>
</trkpt>
<trkpt lat="33.8102479" lon="-118.3938756">
  <ele>0.575</ele>
  <time>2026-09-02T22:13:04Z</time>
  <course>187.12</course>
  <speed>0.15</speed>
  <fix>3d</fix>
</trkpt>
<trkpt lat="33.8102479" lon="-118.3938756">
  <ele>0.575</ele>
  <time>2026-09-02T22:13:04Z</time>
  <course>187.12</course>
  <speed>0.15</speed>
  <fix>3d</fix>
</trkpt>
<trkpt lat="33.8102479" lon="-118.3938756">
  <ele>0.575</ele>
  <time>2026-09-02T22:13:04Z</time>
  <course>187.12</course>
  <speed>0.15</speed>
  <fix>3d</fix>
</trkpt>
<trkpt lat="33.8102479" lon="-118.3938756">
  <ele>0.574</ele>
  <time>2026-09-02T22:13:04Z</time>
  <course>187.12</course>
  <speed>0.15</speed>
  <fix>3d</fix>
</trkpt>
<trkpt lat="33.8102361" lon="-118.3938987">
  <ele>2.46</ele>
  <time>2026-09-02T22:13:04Z</time>
  <course>70.21</course>
  <speed>0.14</speed>
  <fix>3d</fix>
</trkpt>
<trkpt lat="33.8102479" lon="-118.3938756">
  <ele>0.574</ele>
  <time>2026-09-02T22:13:04Z</time>
  <course>187.12</course>
  <speed>0.15</speed>
  <fix>3d</fix>
</trkpt>
<trkpt lat="33.8102479" lon="-118.3938756">
  <ele>0.574</ele>
  <time>2026-09-02T22:13:04Z</time>
  <course>187.12</course>
  <speed>0.15</speed>
  <fix>3d</fix>
</trkpt>
<trkpt lat="33.8102479" lon="-118.3938756">
  <ele>0.574</ele>
  <time>2026-09-02T22:13:04Z</time>
  <course>187.12</course>
  <speed>0.15</speed>
  <fix>3d</fix>
</trkpt>
<trkpt lat="33.8102478" lon="-118.3938756">
  <ele>0.574</ele>
  <time>2026-09-02T22:13:04Z</time>
  <course>187.12</course>
  <speed>0.15</speed>
  <fix>3d</fix>
</trkpt>
<trkpt lat="33.8102478" lon="-118.3938756">
  <ele>0.574</ele>
  <time>2026-09-02T22:13:04Z</time>
  <course>187.12</course>
  <speed>0.15</speed>
  <fix>3d</fix>
</trkpt>
<trkpt lat="33.8102478" lon="-118.3938756">
  <ele>0.573</ele>
  <time>2026-09-02T22:13:04Z</time>
  <course>187.11</course>
  <speed>0.15</speed>
  <fix>3d</fix>
</trkpt>
<trkpt lat="33.8102478" lon="-118.3938756">
  <ele>0.573</ele>
  <time>2026-09-02T22:13:04Z</time>
  <course>187.11</course>
  <speed>0.15</speed>
  <fix>3d</fix>
</trkpt>
<trkpt lat="33.8102478" lon="-118.3938756">
  <ele>0.573</ele>
  <time>2026-09-02T22:13:04Z</time>
  <course>187.11</course>
  <speed>0.15</speed>
  <fix>3d</fix>
</trkpt>
<trkpt lat="33.8102478" lon="-118.3938756">
  <ele>0.573</ele>
  <time>2026-09-02T22:13:04Z</time>
  <course>187.11</course>
  <speed>0.15</speed>
  <fix>3d</fix>
</trkpt>
<trkpt lat="33.8102478" lon="-118.3938756">
  <ele>0.573</ele>
  <time>2026-09-02T22:13:04Z</time>
  <course>187.11</course>
  <speed>0.15</speed>
  <fix>3d</fix>
</trkpt>
<trkpt lat="33.8102478" lon="-118.3938756">
  <ele>0.573</ele>
  <time>2026-09-02T22:13:04Z</time>
  <course>187.11</course>
  <speed>0.15</speed>
  <fix>3d</fix>
</trkpt>
<trkpt lat="33.8102478" lon="-118.3938756">
  <ele>0.573</ele>
  <time>2026-09-02T22:13:04Z</time>
  <course>187.11</course>
  <speed>0.15</speed>
  <fix>3d</fix>
</trkpt>
<trkpt lat="33.8102478" lon="-118.3938756">
  <ele>0.573</ele>
  <time>2026-09-02T22:13:04Z</time>
  <course>187.11</course>
  <speed>0.15</speed>
  <fix>3d</fix>
</trkpt>
<trkpt lat="33.8102361" lon="-118.3938987">
  <ele>2.46</ele>
  <time>2026-09-02T22:13:04Z</time>
  <course>70.21</course>
  <speed>0.14</speed>
  <fix>3d</fix>
</trkpt>
<trkpt lat="33.8102478" lon="-118.3938756">
  <ele>0.573</ele>
  <time>2026-09-02T22:13:04Z</time>
  <course>187.11</course>
  <speed>0.15</speed>
  <fix>3d</fix>
</trkpt>
<trkpt lat="33.8102478" lon="-118.3938756">
  <ele>0.573</ele>
  <time>2026-09-02T22:13:04Z</time>
  <course>187.11</course>
  <speed>0.15620499351813308</speed>
  <fix>3d</fix>
</trkpt>
<trkpt lat="33.8102478" lon="-118.3938756">
  <ele>0.573</ele>
  <time>2026-09-02T22:13:04Z</time>
  <course>187.11</course>
  <speed>0.15620499351813308</speed>
  <fix>3d</fix>
</trkpt>
<trkpt lat="33.8102478" lon="-118.3938756">
  <ele>0.573</ele>
  <time>2026-09-02T22:13:04Z</time>
  <course>187.11</course>
  <speed>0.15620499351813308</speed>
  <fix>3d</fix>
</trkpt>
<trkpt lat="33.8102478" lon="-118.3938756">
  <ele>0.573</ele>
  <time>2026-09-02T22:13:04Z</time>
  <course>187.11</course>
  <speed>0.15620499351813308</speed>
  <fix>3d</fix>
</trkpt>
<trkpt lat="33.8102478" lon="-118.3938756">
  <ele>0.572</ele>
  <time>2026-09-02T22:13:04Z</time>
  <course>187.11</course>
  <speed>0.15620499351813308</speed>
  <fix>3d</fix>
</trkpt>
<trkpt lat="33.8102478" lon="-118.3938756">
  <ele>0.573</ele>
  <time>2026-09-02T22:13:04Z</time>
  <course>187.11</course>
  <speed>0.15620499351813308</speed>
  <fix>3d</fix>
</trkpt>
<trkpt lat="33.8102478" lon="-118.3938756">
  <ele>0.572</ele>
  <time>2026-09-02T22:13:04Z</time>
  <course>187.11</course>
  <speed>0.15620499351813308</speed>
  <fix>3d</fix>
</trkpt>
<trkpt lat="33.8102478" lon="-118.3938756">
  <ele>0.572</ele>
  <time>2026-09-02T22:13:04Z</time>
  <course>187.11</course>
  <speed>0.15620499351813308</speed>
  <fix>3d</fix>
</trkpt>
<trkpt lat="33.8102478" lon="-118.3938756">
  <ele>0.572</ele>
  <time>2026-09-02T22:13:04Z</time>
  <course>187.11</course>
  <speed>0.15620499351813308</speed>
  <fix>3d</fix>
</trkpt>
<trkpt lat="33.8102478" lon="-118.3938756">
  <ele>0.572</ele>
  <time>2026-09-02T22:13:04Z</time>
  <course>187.11</course>
  <speed>0.15620499351813308</speed>
  <fix>3d</fix>
</trkpt>
<trkpt lat="33.8102478" lon="-118.3938756">
  <ele>0.572</ele>
  <time>2026-09-02T22:13:04Z</time>
  <course>187.12</course>
  <speed>0.15620499351813308</speed>
  <fix>3d</fix>
</trkpt>
<trkpt lat="33.8102478" lon="-118.3938756">
  <ele>0.572</ele>
  <time>2026-09-02T22:13:04Z</time>
  <course>187.12</course>
  <speed>0.15620499351813308</speed>
  <fix>3d</fix>
</trkpt>
<trkpt lat="33.8102345" lon="-118.393899">
  <ele>2.46</ele>
  <time>2026-09-02T22:13:04Z</time>
  <course>66.49</course>
  <speed>0.15</speed>
  <fix>3d</fix>
</trkpt>
<trkpt lat="33.8102478" lon="-118.3938756">
  <ele>0.572</ele>
  <time>2026-09-02T22:13:04Z</time>
  <course>187.12</course>
  <speed>0.15620499351813308</speed>
  <fix>3d</fix>
</trkpt>
<trkpt lat="33.8102478" lon="-118.3938756">
  <ele>0.572</ele>
  <time>2026-09-02T22:13:04Z</time>
  <course>187.12</course>
  <speed>0.15620499351813308</speed>
  <fix>3d</fix>
</trkpt>
<trkpt lat="33.8102478" lon="-118.3938756">
  <ele>0.572</ele>
  <time>2026-09-02T22:13:04Z</time>
  <course>187.12</course>
  <speed>0.15620499351813308</speed>
  <fix>3d</fix>
</trkpt>
<trkpt lat="33.8102478" lon="-118.3938756">
  <ele>0.572</ele>
  <time>2026-09-02T22:13:04Z</time>
  <course>187.12</course>
  <speed>0.15620499351813308</speed>
  <fix>3d</fix>
</trkpt>
<trkpt lat="33.8102478" lon="-118.3938756">
  <ele>0.572</ele>
  <time>2026-09-02T22:13:04Z</time>
  <course>187.12</course>
  <speed>0.15620499351813308</speed>
  <fix>3d</fix>
</trkpt>
<trkpt lat="33.8102477" lon="-118.3938756">
  <ele>0.572</ele>
  <time>2026-09-02T22:13:04Z</time>
  <course>187.12</course>
  <speed>0.15620499351813308</speed>
  <fix>3d</fix>
</trkpt>
<trkpt lat="33.8102477" lon="-118.3938756">
  <ele>0.572</ele>
  <time>2026-09-02T22:13:04Z</time>
  <course>187.12</course>
  <speed>0.15620499351813308</speed>
  <fix>3d</fix>
</trkpt>
<trkpt lat="33.8102477" lon="-118.3938756">
  <ele>0.572</ele>
  <time>2026-09-02T22:13:04Z</time>
  <course>187.13</course>
  <speed>0.15620499351813308</speed>
  <fix>3d</fix>
</trkpt>
<trkpt lat="33.8102477" lon="-118.3938756">
  <ele>0.572</ele>
  <time>2026-09-02T22:13:04Z</time>
  <course>187.13</course>
  <speed>0.15620499351813308</speed>
  <fix>3d</fix>
</trkpt>
<trkpt lat="33.8102477" lon="-118.3938756">
  <ele>0.572</ele>
  <time>2026-09-02T22:13:04Z</time>
  <course>187.13</course>
  <speed>0.15620499351813308</speed>
  <fix>3d</fix>
</trkpt>
<trkpt lat="33.8102477" lon="-118.3938756">
  <ele>0.572</ele>
  <time>2026-09-02T22:13:04Z</time>
  <course>187.13</course>
  <speed>0.15620499351813308</speed>
  <fix>3d</fix>
</trkpt>
<trkpt lat="33.8102477" lon="-118.3938756">
  <ele>0.572</ele>
  <time>2026-09-02T22:13:04Z</time>
  <course>187.13</course>
  <speed>0.16278820596099705</speed>
  <fix>3d</fix>
</trkpt>
<trkpt lat="33.8102477" lon="-118.3938756">
  <ele>0.572</ele>
  <time>2026-09-02T22:13:04Z</time>
  <course>187.13</course>
  <speed>0.16278820596099705</speed>
  <fix>3d</fix>
</trkpt>
<trkpt lat="33.8102477" lon="-118.3938756">
  <ele>0.572</ele>
  <time>2026-09-02T22:13:04Z</time>
  <course>187.13</course>
  <speed>0.16278820596099705</speed>
  <fix>3d</fix>
</trkpt>
<trkpt lat="33.8102345" lon="-118.393899">
  <ele>2.46</ele>
  <time>2026-09-02T22:13:04Z</time>
  <course>66.49</course>
  <speed>0.15</speed>
  <fix>3d</fix>
</trkpt>
<trkpt lat="33.8102477" lon="-118.3938756">
  <ele>0.572</ele>
  <time>2026-09-02T22:13:04Z</time>
  <course>187.13</course>
  <speed>0.16278820596099705</speed>
  <fix>3d</fix>
</trkpt>
<trkpt lat="33.8102477" lon="-118.3938756">
  <ele>0.572</ele>
  <time>2026-09-02T22:13:04Z</time>
  <course>187.14</course>
  <speed>0.16278820596099705</speed>
  <fix>3d</fix>
</trkpt>
<trkpt lat="33.8102477" lon="-118.3938756">
  <ele>0.572</ele>
  <time>2026-09-02T22:13:04Z</time>
  <course>187.14</course>
  <speed>0.16278820596099705</speed>
  <fix>3d</fix>
</trkpt>
<trkpt lat="33.8102477" lon="-118.3938756">
  <ele>0.572</ele>
  <time>2026-09-02T22:13:04Z</time>
  <course>187.14</course>
  <speed>0.16278820596099705</speed>
  <fix>3d</fix>
</trkpt>
<trkpt lat="33.8102477" lon="-118.3938756">
  <ele>0.572</ele>
  <time>2026-09-02T22:13:04Z</time>
  <course>187.14</course>
  <speed>0.16278820596099705</speed>
  <fix>3d</fix>
</trkpt>
<trkpt lat="33.8102477" lon="-118.3938756">
  <ele>0.572</ele>
  <time>2026-09-02T22:13:04Z</time>
  <course>187.14</course>
  <speed>0.16278820596099705</speed>
  <fix>3d</fix>
</trkpt>
<trkpt lat="33.8102477" lon="-118.3938756">
  <ele>0.573</ele>
  <time>2026-09-02T22:13:04Z</time>
  <course>187.15</course>
  <speed>0.16278820596099705</speed>
  <fix>3d</fix>
</trkpt>
<trkpt lat="33.8102477" lon="-118.3938756">
  <ele>0.572</ele>
  <time>2026-09-02T22:13:04Z</time>
  <course>187.15</course>
  <speed>0.16278820596099705</speed>
  <fix>3d</fix>
</trkpt>
<trkpt lat="33.8102477" lon="-118.3938756">
  <ele>0.573</ele>
  <time>2026-09-02T22:13:04Z</time>
  <course>187.15</course>
  <speed>0.16278820596099705</speed>
  <fix>3d</fix>
</trkpt>
<trkpt lat="33.8102477" lon="-118.3938756">
  <ele>0.573</ele>
  <time>2026-09-02T22:13:04Z</time>
  <course>187.15</course>
  <speed>0.16278820596099705</speed>
  <fix>3d</fix>
</trkpt>
<trkpt lat="33.8102477" lon="-118.3938756">
  <ele>0.573</ele>
  <time>2026-09-02T22:13:04Z</time>
  <course>187.15</course>
  <speed>0.16278820596099705</speed>
  <fix>3d</fix>
</trkpt>
<trkpt lat="33.8102477" lon="-118.3938756">
  <ele>0.573</ele>
  <time>2026-09-02T22:13:04Z</time>
  <course>187.16</course>
  <speed>0.16278820596099705</speed>
  <fix>3d</fix>
</trkpt>
<trkpt lat="33.8102477" lon="-118.3938756">
  <ele>0.573</ele>
  <time>2026-09-02T22:13:04Z</time>
  <course>187.16</course>
  <speed>0.16278820596099705</speed>
  <fix>3d</fix>
</trkpt>
<trkpt lat="33.8102328" lon="-118.3938991">
  <ele>2.45</ele>
  <time>2026-09-02T22:13:04Z</time>
  <course>62.62</course>
  <speed>0.16</speed>
  <fix>3d</fix>
</trkpt>
<trkpt lat="33.8102477" lon="-118.3938756">
  <ele>0.573</ele>
  <time>2026-09-02T22:13:04Z</time>
  <course>187.16</course>
  <speed>0.16278820596099705</speed>
  <fix>3d</fix>
</trkpt>
<trkpt lat="33.8102477" lon="-118.3938756">
  <ele>0.573</ele>
  <time>2026-09-02T22:13:04Z</time>
  <course>187.16</course>
  <speed>0.16278820596099705</speed>
  <fix>3d</fix>
</trkpt>
<trkpt lat="33.8102477" lon="-118.3938756">
  <ele>0.573</ele>
  <time>2026-09-02T22:13:04Z</time>
  <course>187.17</course>
  <speed>0.16278820596099705</speed>
  <fix>3d</fix>
</trkpt>
<trkpt lat="33.8102477" lon="-118.3938756">
  <ele>0.573</ele>
  <time>2026-09-02T22:13:04Z</time>
  <course>187.17</course>
  <speed>0.16278820596099705</speed>
  <fix>3d</fix>
</trkpt>
<trkpt lat="33.8102477" lon="-118.3938756">
  <ele>0.573</ele>
  <time>2026-09-02T22:13:04Z</time>
  <course>187.17</course>
  <speed>0.16278820596099705</speed>
  <fix>3d</fix>
</trkpt>
<trkpt lat="33.8102477" lon="-118.3938756">
  <ele>0.573</ele>
  <time>2026-09-02T22:13:04Z</time>
  <course>187.17</course>
  <speed>0.16278820596099705</speed>
  <fix>3d</fix>
</trkpt>
<trkpt lat="33.8102477" lon="-118.3938756">
  <ele>0.573</ele>
  <time>2026-09-02T22:13:04Z</time>
  <course>187.18</course>
  <speed>0.16278820596099705</speed>
  <fix>3d</fix>
</trkpt>
<trkpt lat="33.8102477" lon="-118.3938756">
  <ele>0.573</ele>
  <time>2026-09-02T22:13:04Z</time>
  <course>187.18</course>
  <speed>0.16278820596099705</speed>
  <fix>3d</fix>
</trkpt>
<trkpt lat="33.8102477" lon="-118.3938756">
  <ele>0.573</ele>
  <time>2026-09-02T22:13:04Z</time>
  <course>187.18</course>
  <speed>0.1697056274847714</speed>
  <fix>3d</fix>
</trkpt>
<trkpt lat="33.8102477" lon="-118.3938756">
  <ele>0.573</ele>
  <time>2026-09-02T22:13:04Z</time>
  <course>187.18</course>
  <speed>0.1697056274847714</speed>
  <fix>3d</fix>
</trkpt>
<trkpt lat="33.8102477" lon="-118.3938756">
  <ele>0.573</ele>
  <time>2026-09-02T22:13:04Z</time>
  <course>187.19</course>
  <speed>0.1697056274847714</speed>
  <fix>3d</fix>
</trkpt>
<trkpt lat="33.8102477" lon="-118.3938756">
  <ele>0.573</ele>
  <time>2026-09-02T22:13:04Z</time>
  <course>187.19</course>
  <speed>0.1697056274847714</speed>
  <fix>3d</fix>
</trkpt>
<trkpt lat="33.8102477" lon="-118.3938756">
  <ele>0.573</ele>
  <time>2026-09-02T22:13:04Z</time>
  <course>187.19</course>
  <speed>0.1697056274847714</speed>
  <fix>3d</fix>
</trkpt>
<trkpt lat="33.8102328" lon="-118.3938991">
  <ele>2.45</ele>
  <time>2026-09-02T22:13:04Z</time>
  <course>62.62</course>
  <speed>0.16</speed>
  <fix>3d</fix>
</trkpt>
<trkpt lat="33.8102477" lon="-118.3938756">
  <ele>0.573</ele>
  <time>2026-09-02T22:13:04Z</time>
  <course>187.19</course>
  <speed>0.1697056274847714</speed>
  <fix>3d</fix>
</trkpt>
<trkpt lat="33.8102477" lon="-118.3938756">
  <ele>0.573</ele>
  <time>2026-09-02T22:13:04Z</time>
  <course>187.2</course>
  <speed>0.1697056274847714</speed>
  <fix>3d</fix>
</trkpt>
<trkpt lat="33.8102477" lon="-118.3938756">
  <ele>0.573</ele>
  <time>2026-09-02T22:13:04Z</time>
  <course>187.2</course>
  <speed>0.1697056274847714</speed>
  <fix>3d</fix>
</trkpt>
<trkpt lat="33.8102477" lon="-118.3938756">
  <ele>0.573</ele>
  <time>2026-09-02T22:13:04Z</time>
  <course>187.2</course>
  <speed>0.1697056274847714</speed>
  <fix>3d</fix>
</trkpt>
<trkpt lat="33.8102477" lon="-118.3938756">
  <ele>0.573</ele>
  <time>2026-09-02T22:13:04Z</time>
  <course>187.21</course>
  <speed>0.1697056274847714</speed>
  <fix>3d</fix>
</trkpt>
<trkpt lat="33.8102477" lon="-118.3938756">
  <ele>0.573</ele>
  <time>2026-09-02T22:13:04Z</time>
  <course>187.21</course>
  <speed>0.1697056274847714</speed>
  <fix>3d</fix>
</trkpt>
<trkpt lat="33.8102477" lon="-118.3938756">
  <ele>0.573</ele>
  <time>2026-09-02T22:13:04Z</time>
  <course>187.21</course>
  <speed>0.1697056274847714</speed>
  <fix>3d</fix>
</trkpt>
<trkpt lat="33.8102477" lon="-118.3938756">
  <ele>0.572</ele>
  <time>2026-09-02T22:13:04Z</time>
  <course>187.22</course>
  <speed>0.1697056274847714</speed>
  <fix>3d</fix>
</trkpt>
<trkpt lat="33.8102477" lon="-118.3938756">
  <ele>0.572</ele>
  <time>2026-09-02T22:13:04Z</time>
  <course>187.22</course>
  <speed>0.1697056274847714</speed>
  <fix>3d</fix>
</trkpt>
<trkpt lat="33.8102476" lon="-118.3938756">
  <ele>0.572</ele>
  <time>2026-09-02T22:13:04Z</time>
  <course>187.22</course>
  <speed>0.1697056274847714</speed>
  <fix>3d</fix>
</trkpt>
<trkpt lat="33.8102476" lon="-118.3938756">
  <ele>0.572</ele>
  <time>2026-09-02T22:13:04Z</time>
  <course>187.22</course>
  <speed>0.1697056274847714</speed>
  <fix>3d</fix>
</trkpt>
<trkpt lat="33.8102476" lon="-118.3938756">
  <ele>0.572</ele>
  <time>2026-09-02T22:13:04Z</time>
  <course>187.23</course>
  <speed>0.1697056274847714</speed>
  <fix>3d</fix>
</trkpt>
<trkpt lat="33.8102476" lon="-118.3938756">
  <ele>0.572</ele>
  <time>2026-09-02T22:13:04Z</time>
  <course>187.23</course>
  <speed>0.1697056274847714</speed>
  <fix>3d</fix>
</trkpt>
<trkpt lat="33.8102312" lon="-118.3938989">
  <ele>2.45</ele>
  <time>2026-09-02T22:13:04Z</time>
  <course>59.12</course>
  <speed>0.16</speed>
  <fix>3d</fix>
</trkpt>
<trkpt lat="33.8102476" lon="-118.3938756">
  <ele>0.572</ele>
  <time>2026-09-02T22:13:04Z</time>
  <course>187.23</course>
  <speed>0.1697056274847714</speed>
  <fix>3d</fix>
</trkpt>
<trkpt lat="33.8102476" lon="-118.3938756">
  <ele>0.571</ele>
  <time>2026-09-02T22:13:04Z</time>
  <course>187.23</course>
  <speed>0.1697056274847714</speed>
  <fix>3d</fix>
</trkpt>
<trkpt lat="33.8102476" lon="-118.3938756">
  <ele>0.571</ele>
  <time>2026-09-02T22:13:04Z</time>
  <course>187.24</course>
  <speed>0.1697056274847714</speed>
  <fix>3d</fix>
</trkpt>
<trkpt lat="33.8102476" lon="-118.3938756">
  <ele>0.571</ele>
  <time>2026-09-02T22:13:04Z</time>
  <course>187.24</course>
  <speed>0.1697056274847714</speed>
  <fix>3d</fix>
</trkpt>
<trkpt lat="33.8102476" lon="-118.3938756">
  <ele>0.571</ele>
  <time>2026-09-02T22:13:04Z</time>
  <course>187.24</course>
  <speed>0.1697056274847714</speed>
  <fix>3d</fix>
</trkpt>
<trkpt lat="33.8102476" lon="-118.3938756">
  <ele>0.571</ele>
  <time>2026-09-02T22:13:04Z</time>
  <course>187.25</course>
  <speed>0.1697056274847714</speed>
  <fix>3d</fix>
</trkpt>
<trkpt lat="33.8102476" lon="-118.3938756">
  <ele>0.571</ele>
  <time>2026-09-02T22:13:04Z</time>
  <course>187.25</course>
  <speed>0.1697056274847714</speed>
  <fix>3d</fix>
</trkpt>
<trkpt lat="33.8102476" lon="-118.3938756">
  <ele>0.57</ele>
  <time>2026-09-02T22:13:04Z</time>
  <course>187.25</course>
  <speed>0.1697056274847714</speed>
  <fix>3d</fix>
</trkpt>
<trkpt lat="33.8102476" lon="-118.3938756">
  <ele>0.57</ele>
  <time>2026-09-02T22:13:04Z</time>
  <course>187.25</course>
  <speed>0.1769180601295413</speed>
  <fix>3d</fix>
</trkpt>
<trkpt lat="33.8102476" lon="-118.3938756">
  <ele>0.57</ele>
  <time>2026-09-02T22:13:04Z</time>
  <course>187.25</course>
  <speed>0.1769180601295413</speed>
  <fix>3d</fix>
</trkpt>
<trkpt lat="33.8102476" lon="-118.3938756">
  <ele>0.57</ele>
  <time>2026-09-02T22:13:04Z</time>
  <course>187.25</course>
  <speed>0.1769180601295413</speed>
  <fix>3d</fix>
</trkpt>
<trkpt lat="33.8102312" lon="-118.3938989">
  <ele>2.45</ele>
  <time>2026-09-02T22:13:04Z</time>
  <course>59.12</course>
  <speed>0.16</speed>
  <fix>3d</fix>
</trkpt>
<trkpt lat="33.8102476" lon="-118.3938756">
  <ele>0.57</ele>
  <time>2026-09-02T22:13:04Z</time>
  <course>187.26</course>
  <speed>0.1769180601295413</speed>
  <fix>3d</fix>
</trkpt>
<trkpt lat="33.8102476" lon="-118.3938756">
  <ele>0.569</ele>
  <time>2026-09-02T22:13:04Z</time>
  <course>187.26</course>
  <speed>0.1769180601295413</speed>
  <fix>3d</fix>
</trkpt>
<trkpt lat="33.8102476" lon="-118.3938756">
  <ele>0.569</ele>
  <time>2026-09-02T22:13:04Z</time>
  <course>187.26</course>
  <speed>0.1769180601295413</speed>
  <fix>3d</fix>
</trkpt>
<trkpt lat="33.8102476" lon="-118.3938756">
  <ele>0.569</ele>
  <time>2026-09-02T22:13:04Z</time>
  <course>187.26</course>
  <speed>0.1769180601295413</speed>
  <fix>3d</fix>
</trkpt>
<trkpt lat="33.8102476" lon="-118.3938756">
  <ele>0.569</ele>
  <time>2026-09-02T22:13:04Z</time>
  <course>187.26</course>
  <speed>0.1769180601295413</speed>
  <fix>3d</fix>
</trkpt>
<trkpt lat="33.8102476" lon="-118.3938755">
  <ele>0.569</ele>
  <time>2026-09-02T22:13:04Z</time>
  <course>187.27</course>
  <speed>0.1769180601295413</speed>
  <fix>3d</fix>
</trkpt>
<trkpt lat="33.8102476" lon="-118.3938756">
  <ele>0.568</ele>
  <time>2026-09-02T22:13:04Z</time>
  <course>187.27</course>
  <speed>0.1769180601295413</speed>
  <fix>3d</fix>
</trkpt>
<trkpt lat="33.8102476" lon="-118.3938755">
  <ele>0.568</ele>
  <time>2026-09-02T22:13:04Z</time>
  <course>187.27</course>
  <speed>0.1769180601295413</speed>
  <fix>3d</fix>
</trkpt>
<trkpt lat="33.8102476" lon="-118.3938756">
  <ele>0.568</ele>
  <time>2026-09-02T22:13:04Z</time>
  <course>187.27</course>
  <speed>0.1769180601295413</speed>
  <fix>3d</fix>
</trkpt>
<trkpt lat="33.8102476" lon="-118.3938756">
  <ele>0.568</ele>
  <time>2026-09-02T22:13:04Z</time>
  <course>187.27</course>
  <speed>0.1769180601295413</speed>
  <fix>3d</fix>
</trkpt>
<trkpt lat="33.8102476" lon="-118.3938756">
  <ele>0.568</ele>
  <time>2026-09-02T22:13:04Z</time>
  <course>187.27</course>
  <speed>0.1769180601295413</speed>
  <fix>3d</fix>
</trkpt>
<trkpt lat="33.8102476" lon="-118.3938756">
  <ele>0.567</ele>
  <time>2026-09-02T22:13:04Z</time>
  <course>187.27</course>
  <speed>0.1769180601295413</speed>
  <fix>3d</fix>
</trkpt>
<trkpt lat="33.8102476" lon="-118.3938756">
  <ele>0.567</ele>
  <time>2026-09-02T22:13:04Z</time>
  <course>187.27</course>
  <speed>0.1769180601295413</speed>
  <fix>3d</fix>
</trkpt>
<trkpt lat="33.8102296" lon="-118.3938986">
  <ele>2.45</ele>
  <time>2026-09-02T22:13:04Z</time>
  <course>56.35</course>
  <speed>0.17</speed>
  <fix>3d</fix>
</trkpt>
<trkpt lat="33.8102476" lon="-118.3938756">
  <ele>0.567</ele>
  <time>2026-09-02T22:13:04Z</time>
  <course>187.27</course>
  <speed>0.1769180601295413</speed>
  <fix>3d</fix>
</trkpt>
<trkpt lat="33.8102476" lon="-118.3938756">
  <ele>0.567</ele>
  <time>2026-09-02T22:13:04Z</time>
  <course>187.28</course>
  <speed>0.1769180601295413</speed>
  <fix>3d</fix>
</trkpt>
<trkpt lat="33.8102476" lon="-118.3938756">
  <ele>0.567</ele>
  <time>2026-09-02T22:13:04Z</time>
  <course>187.28</course>
  <speed>0.1769180601295413</speed>
  <fix>3d</fix>
</trkpt>
<trkpt lat="33.8102476" lon="-118.3938756">
  <ele>0.567</ele>
  <time>2026-09-02T22:13:04Z</time>
  <course>187.28</course>
  <speed>0.1769180601295413</speed>
  <fix>3d</fix>
</trkpt>
<trkpt lat="33.8102476" lon="-118.3938756">
  <ele>0.566</ele>
  <time>2026-09-02T22:13:04Z</time>
  <course>187.28</course>
  <speed>0.1769180601295413</speed>
  <fix>3d</fix>
</trkpt>
<trkpt lat="33.8102476" lon="-118.3938756">
  <ele>0.566</ele>
  <time>2026-09-02T22:13:04Z</time>
  <course>187.28</course>
  <speed>0.1769180601295413</speed>
  <fix>3d</fix>
</trkpt>
<trkpt lat="33.8102476" lon="-118.3938756">
  <ele>0.566</ele>
  <time>2026-09-02T22:13:04Z</time>
  <course>187.28</course>
  <speed>0.1769180601295413</speed>
  <fix>3d</fix>
</trkpt>
<trkpt lat="33.8102476" lon="-118.3938756">
  <ele>0.566</ele>
  <time>2026-09-02T22:13:04Z</time>
  <course>187.28</course>
  <speed>0.1769180601295413</speed>
  <fix>3d</fix>
</trkpt>
<trkpt lat="33.8102476" lon="-118.3938756">
  <ele>0.566</ele>
  <time>2026-09-02T22:13:04Z</time>
  <course>187.28</course>
  <speed>0.1769180601295413</speed>
  <fix>3d</fix>
</trkpt>
<trkpt lat="33.8102476" lon="-118.3938756">
  <ele>0.566</ele>
  <time>2026-09-02T22:13:04Z</time>
  <course>187.28</course>
  <speed>0.1769180601295413</speed>
  <fix>3d</fix>
</trkpt>
<trkpt lat="33.8102476" lon="-118.3938756">
  <ele>0.565</ele>
  <time>2026-09-02T22:13:04Z</time>
  <course>187.28</course>
  <speed>0.1769180601295413</speed>
  <fix>3d</fix>
</trkpt>
<trkpt lat="33.8102476" lon="-118.3938755">
  <ele>0.565</ele>
  <time>2026-09-02T22:13:04Z</time>
  <course>187.28</course>
  <speed>0.1769180601295413</speed>
  <fix>3d</fix>
</trkpt>
<trkpt lat="33.8102296" lon="-118.3938986">
  <ele>2.45</ele>
  <time>2026-09-02T22:13:04Z</time>
  <course>56.35</course>
  <speed>0.17</speed>
  <fix>3d</fix>
</trkpt>
<trkpt lat="33.8102476" lon="-118.3938755">
  <ele>0.565</ele>
  <time>2026-09-02T22:13:04Z</time>
  <course>187.28</course>
  <speed>0.1769180601295413</speed>
  <fix>3d</fix>
</trkpt>
<trkpt lat="33.8102476" lon="-118.3938755">
  <ele>0.565</ele>
  <time>2026-09-02T22:13:04Z</time>
  <course>187.28</course>
  <speed>0.1769180601295413</speed>
  <fix>3d</fix>
</trkpt>
<trkpt lat="33.8102476" lon="-118.3938755">
  <ele>0.565</ele>
  <time>2026-09-02T22:13:04Z</time>
  <course>187.28</course>
  <speed>0.1769180601295413</speed>
  <fix>3d</fix>
</trkpt>
<trkpt lat="33.8102476" lon="-118.3938755">
  <ele>0.565</ele>
  <time>2026-09-02T22:13:04Z</time>
  <course>187.28</course>
  <speed>0.1769180601295413</speed>
  <fix>3d</fix>
</trkpt>
<trkpt lat="33.8102476" lon="-118.3938755">
  <ele>0.565</ele>
  <time>2026-09-02T22:13:04Z</time>
  <course>187.28</course>
  <speed>0.1769180601295413</speed>
  <fix>3d</fix>
</trkpt>
<trkpt lat="33.8102476" lon="-118.3938755">
  <ele>0.565</ele>
  <time>2026-09-02T22:13:04Z</time>
  <course>187.28</course>
  <speed>0.1769180601295413</speed>
  <fix>3d</fix>
</trkpt>
<trkpt lat="33.8102476" lon="-118.3938755">
  <ele>0.564</ele>
  <time>2026-09-02T22:13:04Z</time>
  <course>187.28</course>
  <speed>0.1769180601295413</speed>
  <fix>3d</fix>
</trkpt>
<trkpt lat="33.8102476" lon="-118.3938755">
  <ele>0.564</ele>
  <time>2026-09-02T22:13:04Z</time>
  <course>187.28</course>
  <speed>0.1769180601295413</speed>
  <fix>3d</fix>
</trkpt>
<trkpt lat="33.8102476" lon="-118.3938755">
  <ele>0.564</ele>
  <time>2026-09-02T22:13:04Z</time>
  <course>187.28</course>
  <speed>0.1769180601295413</speed>
  <fix>3d</fix>
</trkpt>
<trkpt lat="33.8102476" lon="-118.3938755">
  <ele>0.564</ele>
  <time>2026-09-02T22:13:04Z</time>
  <course>187.28</course>
  <speed>0.1769180601295413</speed>
  <fix>3d</fix>
</trkpt>
<trkpt lat="33.8102476" lon="-118.3938755">
  <ele>0.564</ele>
  <time>2026-09-02T22:13:04Z</time>
  <course>187.28</course>
  <speed>0.1769180601295413</speed>
  <fix>3d</fix>
</trkpt>
<trkpt lat="33.8102476" lon="-118.3938755">
  <ele>0.564</ele>
  <time>2026-09-02T22:13:04Z</time>
  <course>187.28</course>
  <speed>0.1769180601295413</speed>
  <fix>3d</fix>
</trkpt>
<trkpt lat="33.810228" lon="-118.393898">
  <ele>2.45</ele>
  <time>2026-09-02T22:13:04Z</time>
  <course>54.26</course>
  <speed>0.18</speed>
  <fix>3d</fix>
</trkpt>
<trkpt lat="33.8102476" lon="-118.3938755">
  <ele>0.564</ele>
  <time>2026-09-02T22:13:04Z</time>
  <course>187.28</course>
  <speed>0.1769180601295413</speed>
  <fix>3d</fix>
</trkpt>
<trkpt lat="33.8102476" lon="-118.3938755">
  <ele>0.564</ele>
  <time>2026-09-02T22:13:04Z</time>
  <course>187.28</course>
  <speed>0.1769180601295413</speed>
  <fix>3d</fix>
</trkpt>
<trkpt lat="33.8102476" lon="-118.3938755">
  <ele>0.564</ele>
  <time>2026-09-02T22:13:04Z</time>
  <course>187.28</course>
  <speed>0.18439088914585774</speed>
  <fix>3d</fix>
</trkpt>
<trkpt lat="33.8102476" lon="-118.3938755">
  <ele>0.564</ele>
  <time>2026-09-02T22:13:04Z</time>
  <course>187.28</course>
  <speed>0.18439088914585774</speed>
  <fix>3d</fix>
</trkpt>
<trkpt lat="33.8102476" lon="-118.3938755">
  <ele>0.564</ele>
  <time>2026-09-02T22:13:04Z</time>
  <course>187.28</course>
  <speed>0.18439088914585774</speed>
  <fix>3d</fix>
</trkpt>
<trkpt lat="33.8102476" lon="-118.3938755">
  <ele>0.564</ele>
  <time>2026-09-02T22:13:04Z</time>
  <course>187.28</course>
  <speed>0.18439088914585774</speed>
  <fix>3d</fix>
</trkpt>
<trkpt lat="33.8102476" lon="-118.3938755">
  <ele>0.564</ele>
  <time>2026-09-02T22:13:04Z</time>
  <course>187.28</course>
  <speed>0.191049731745428</speed>
  <fix>3d</fix>
</trkpt>
<trkpt lat="33.8102476" lon="-118.3938755">
  <ele>0.564</ele>
  <time>2026-09-02T22:13:04Z</time>
  <course>187.28</course>
  <speed>0.191049731745428</speed>
  <fix>3d</fix>
</trkpt>
<trkpt lat="33.8102476" lon="-118.3938755">
  <ele>0.564</ele>
  <time>2026-09-02T22:13:04Z</time>
  <course>187.28</course>
  <speed>0.191049731745428</speed>
  <fix>3d</fix>
</trkpt>
<trkpt lat="33.8102476" lon="-118.3938755">
  <ele>0.564</ele>
  <time>2026-09-02T22:13:04Z</time>
  <course>187.28</course>
  <speed>0.191049731745428</speed>
  <fix>3d</fix>
</trkpt>
<trkpt lat="33.8102476" lon="-118.3938755">
  <ele>0.564</ele>
  <time>2026-09-02T22:13:04Z</time>
  <course>187.28</course>
  <speed>0.191049731745428</speed>
  <fix>3d</fix>
</trkpt>
<trkpt lat="33.8102476" lon="-118.3938755">
  <ele>0.565</ele>
  <time>2026-09-02T22:13:04Z</time>
  <course>187.28</course>
  <speed>0.191049731745428</speed>
  <fix>3d</fix>
</trkpt>
<trkpt lat="33.8102476" lon="-118.3938755">
  <ele>0.565</ele>
  <time>2026-09-02T22:13:04Z</time>
  <course>187.28</course>
  <speed>0.191049731745428</speed>
  <fix>3d</fix>
</trkpt>
<trkpt lat="33.810228" lon="-118.393898">
  <ele>2.45</ele>
  <time>2026-09-02T22:13:04Z</time>
  <course>54.26</course>
  <speed>0.18</speed>
  <fix>3d</fix>
</trkpt>
<trkpt lat="33.8102476" lon="-118.3938755">
  <ele>0.565</ele>
  <time>2026-09-02T22:13:04Z</time>
  <course>187.28</course>
  <speed>0.191049731745428</speed>
  <fix>3d</fix>
</trkpt>
<trkpt lat="33.8102476" lon="-118.3938755">
  <ele>0.565</ele>
  <time>2026-09-02T22:13:04Z</time>
  <course>187.27</course>
  <speed>0.191049731745428</speed>
  <fix>3d</fix>
</trkpt>
<trkpt lat="33.8102476" lon="-118.3938755">
  <ele>0.565</ele>
  <time>2026-09-02T22:13:04Z</time>
  <course>187.27</course>
  <speed>0.191049731745428</speed>
  <fix>3d</fix>
</trkpt>
<trkpt lat="33.8102476" lon="-118.3938755">
  <ele>0.565</ele>
  <time>2026-09-02T22:13:04Z</time>
  <course>187.27</course>
  <speed>0.18439088914585774</speed>
  <fix>3d</fix>
</trkpt>
<trkpt lat="33.8102476" lon="-118.3938755">
  <ele>0.565</ele>
  <time>2026-09-02T22:13:04Z</time>
  <course>187.27</course>
  <speed>0.18439088914585774</speed>
  <fix>3d</fix>
</trkpt>
<trkpt lat="33.8102476" lon="-118.3938755">
  <ele>0.565</ele>
  <time>2026-09-02T22:13:04Z</time>
  <course>187.27</course>
  <speed>0.18439088914585774</speed>
  <fix>3d</fix>
</trkpt>
<trkpt lat="33.8102476" lon="-118.3938755">
  <ele>0.566</ele>
  <time>2026-09-02T22:13:04Z</time>
  <course>187.27</course>
  <speed>0.18439088914585774</speed>
  <fix>3d</fix>
</trkpt>
<trkpt lat="33.8102476" lon="-118.3938755">
  <ele>0.566</ele>
  <time>2026-09-02T22:13:04Z</time>
  <course>187.27</course>
  <speed>0.18439088914585774</speed>
  <fix>3d</fix>
</trkpt>
<trkpt lat="33.8102476" lon="-118.3938755">
  <ele>0.566</ele>
  <time>2026-09-02T22:13:04Z</time>
  <course>187.27</course>
  <speed>0.18439088914585774</speed>
  <fix>3d</fix>
</trkpt>
<trkpt lat="33.8102476" lon="-118.3938755">
  <ele>0.566</ele>
  <time>2026-09-02T22:13:04Z</time>
  <course>187.27</course>
  <speed>0.18439088914585774</speed>
  <fix>3d</fix>
</trkpt>
<trkpt lat="33.8102476" lon="-118.3938755">
  <ele>0.566</ele>
  <time>2026-09-02T22:13:04Z</time>
  <course>187.27</course>
  <speed>0.18439088914585774</speed>
  <fix>3d</fix>
</trkpt>
<trkpt lat="33.8102476" lon="-118.3938755">
  <ele>0.566</ele>
  <time>2026-09-02T22:13:04Z</time>
  <course>187.27</course>
  <speed>0.18439088914585774</speed>
  <fix>3d</fix>
</trkpt>
<trkpt lat="33.8102476" lon="-118.3938755">
  <ele>0.566</ele>
  <time>2026-09-02T22:13:04Z</time>
  <course>187.27</course>
  <speed>0.18439088914585774</speed>
  <fix>3d</fix>
</trkpt>
<trkpt lat="33.8102476" lon="-118.3938755">
  <ele>0.566</ele>
  <time>2026-09-02T22:13:04Z</time>
  <course>187.27</course>
  <speed>0.18439088914585774</speed>
  <fix>3d</fix>
</trkpt>
<trkpt lat="33.8102264" lon="-118.3938971">
  <ele>2.45</ele>
  <time>2026-09-02T22:13:04Z</time>
  <course>52.69</course>
  <speed>0.18</speed>
  <fix>3d</fix>
</trkpt>
<trkpt lat="33.8102476" lon="-118.3938755">
  <ele>0.566</ele>
  <time>2026-09-02T22:13:04Z</time>
  <course>187.26</course>
  <speed>0.18439088914585774</speed>
  <fix>3d</fix>
</trkpt>
<trkpt lat="33.8102476" lon="-118.3938755">
  <ele>0.567</ele>
  <time>2026-09-02T22:13:04Z</time>
  <course>187.26</course>
  <speed>0.18439088914585774</speed>
  <fix>3d</fix>
</trkpt>
<trkpt lat="33.8102476" lon="-118.3938755">
  <ele>0.567</ele>
  <time>2026-09-02T22:13:04Z</time>
  <course>187.26</course>
  <speed>0.18439088914585774</speed>
  <fix>3d</fix>
</trkpt>
<trkpt lat="33.8102475" lon="-118.3938755">
  <ele>0.567</ele>
  <time>2026-09-02T22:13:04Z</time>
  <course>187.26</course>
  <speed>0.18439088914585774</speed>
  <fix>3d</fix>
</trkpt>
<trkpt lat="33.8102475" lon="-118.3938755">
  <ele>0.567</ele>
  <time>2026-09-02T22:13:04Z</time>
  <course>187.26</course>
  <speed>0.191049731745428</speed>
  <fix>3d</fix>
</trkpt>
<trkpt lat="33.8102475" lon="-118.3938755">
  <ele>0.567</ele>
  <time>2026-09-02T22:13:04Z</time>
  <course>187.26</course>
  <speed>0.191049731745428</speed>
  <fix>3d</fix>
</trkpt>
<trkpt lat="33.8102475" lon="-118.3938755">
  <ele>0.567</ele>
  <time>2026-09-02T22:13:04Z</time>
  <course>187.26</course>
  <speed>0.191049731745428</speed>
  <fix>3d</fix>
</trkpt>
<trkpt lat="33.8102475" lon="-118.3938755">
  <ele>0.567</ele>
  <time>2026-09-02T22:13:04Z</time>
  <course>187.26</course>
  <speed>0.191049731745428</speed>
  <fix>3d</fix>
</trkpt>
<trkpt lat="33.8102475" lon="-118.3938755">
  <ele>0.568</ele>
  <time>2026-09-02T22:13:04Z</time>
  <course>187.26</course>
  <speed>0.191049731745428</speed>
  <fix>3d</fix>
</trkpt>
<trkpt lat="33.8102475" lon="-118.3938755">
  <ele>0.568</ele>
  <time>2026-09-02T22:13:04Z</time>
  <course>187.26</course>
  <speed>0.191049731745428</speed>
  <fix>3d</fix>
</trkpt>
<trkpt lat="33.8102475" lon="-118.3938755">
  <ele>0.568</ele>
  <time>2026-09-02T22:13:04Z</time>
  <course>187.26</course>
  <speed>0.191049731745428</speed>
  <fix>3d</fix>
</trkpt>
<trkpt lat="33.8102475" lon="-118.3938755">
  <ele>0.568</ele>
  <time>2026-09-02T22:13:04Z</time>
  <course>187.26</course>
  <speed>0.191049731745428</speed>
  <fix>3d</fix>
</trkpt>
<trkpt lat="33.8102264" lon="-118.3938971">
  <ele>2.45</ele>
  <time>2026-09-02T22:13:04Z</time>
  <course>52.69</course>
  <speed>0.18</speed>
  <fix>3d</fix>
</trkpt>
<trkpt lat="33.8102475" lon="-118.3938754">
  <ele>0.568</ele>
  <time>2026-09-02T22:13:04Z</time>
  <course>187.25</course>
  <speed>0.191049731745428</speed>
  <fix>3d</fix>
</trkpt>
<trkpt lat="33.8102475" lon="-118.3938754">
  <ele>0.569</ele>
  <time>2026-09-02T22:13:04Z</time>
  <course>187.25</course>
  <speed>0.191049731745428</speed>
  <fix>3d</fix>
</trkpt>
<trkpt lat="33.8102475" lon="-118.3938754">
  <ele>0.569</ele>
  <time>2026-09-02T22:13:04Z</time>
  <course>187.25</course>
  <speed>0.191049731745428</speed>
  <fix>3d</fix>
</trkpt>
<trkpt lat="33.8102475" lon="-118.3938754">
  <ele>0.569</ele>
  <time>2026-09-02T22:13:04Z</time>
  <course>187.25</course>
  <speed>0.191049731745428</speed>
  <fix>3d</fix>
</trkpt>
<trkpt lat="33.8102475" lon="-118.3938754">
  <ele>0.569</ele>
  <time>2026-09-02T22:13:04Z</time>
  <course>187.25</course>
  <speed>0.191049731745428</speed>
  <fix>3d</fix>
</trkpt>
<trkpt lat="33.8102475" lon="-118.3938754">
  <ele>0.569</ele>
  <time>2026-09-02T22:13:04Z</time>
  <course>187.25</course>
  <speed>0.18439088914585774</speed>
  <fix>3d</fix>
</trkpt>
<trkpt lat="33.8102475" lon="-118.3938754">
  <ele>0.57</ele>
  <time>2026-09-02T22:13:04Z</time>
  <course>187.25</course>
  <speed>0.18439088914585774</speed>
  <fix>3d</fix>
</trkpt>
<trkpt lat="33.8102475" lon="-118.3938754">
  <ele>0.57</ele>
  <time>2026-09-02T22:13:04Z</time>
  <course>187.25</course>
  <speed>0.18439088914585774</speed>
  <fix>3d</fix>
</trkpt>
<trkpt lat="33.8102475" lon="-118.3938754">
  <ele>0.57</ele>
  <time>2026-09-02T22:13:04Z</time>
  <course>187.25</course>
  <speed>0.18439088914585774</speed>
  <fix>3d</fix>
</trkpt>
<trkpt lat="33.8102475" lon="-118.3938754">
  <ele>0.57</ele>
  <time>2026-09-02T22:13:04Z</time>
  <course>187.25</course>
  <speed>0.18439088914585774</speed>
  <fix>3d</fix>
</trkpt>
<trkpt lat="33.8102475" lon="-118.3938754">
  <ele>0.57</ele>
  <time>2026-09-02T22:13:04Z</time>
  <course>187.25</course>
  <speed>0.18439088914585774</speed>
  <fix>3d</fix>
</trkpt>
<trkpt lat="33.8102475" lon="-118.3938754">
  <ele>0.57</ele>
  <time>2026-09-02T22:13:04Z</time>
  <course>187.25</course>
  <speed>0.18439088914585774</speed>
  <fix>3d</fix>
</trkpt>
<trkpt lat="33.8102475" lon="-118.3938754">
  <ele>0.57</ele>
  <time>2026-09-02T22:13:04Z</time>
  <course>187.25</course>
  <speed>0.18439088914585774</speed>
  <fix>3d</fix>
</trkpt>
<trkpt lat="33.8102249" lon="-118.3938961">
  <ele>2.45</ele>
  <time>2026-09-02T22:13:04Z</time>
  <course>51.49</course>
  <speed>0.18</speed>
  <fix>3d</fix>
</trkpt>
<trkpt lat="33.8102475" lon="-118.3938754">
  <ele>0.57</ele>
  <time>2026-09-02T22:13:04Z</time>
  <course>187.24</course>
  <speed>0.18439088914585774</speed>
  <fix>3d</fix>
</trkpt>
<trkpt lat="33.8102475" lon="-118.3938754">
  <ele>0.57</ele>
  <time>2026-09-02T22:13:04Z</time>
  <course>187.24</course>
  <speed>0.18439088914585774</speed>
  <fix>3d</fix>
</trkpt>
<trkpt lat="33.8102474" lon="-118.3938754">
  <ele>0.57</ele>
  <time>2026-09-02T22:13:04Z</time>
  <course>187.24</course>
  <speed>0.18439088914585774</speed>
  <fix>3d</fix>
</trkpt>
<trkpt lat="33.8102474" lon="-118.3938754">
  <ele>0.57</ele>
  <time>2026-09-02T22:13:04Z</time>
  <course>187.24</course>
  <speed>0.18439088914585774</speed>
  <fix>3d</fix>
</trkpt>
<trkpt lat="33.8102475" lon="-118.3938754">
  <ele>0.57</ele>
  <time>2026-09-02T22:13:04Z</time>
  <course>187.24</course>
  <speed>0.18439088914585774</speed>
  <fix>3d</fix>
</trkpt>
<trkpt lat="33.8102474" lon="-118.3938754">
  <ele>0.57</ele>
  <time>2026-09-02T22:13:04Z</time>
  <course>187.24</course>
  <speed>0.18439088914585774</speed>
  <fix>3d</fix>
</trkpt>
<trkpt lat="33.8102474" lon="-118.3938754">
  <ele>0.57</ele>
  <time>2026-09-02T22:13:04Z</time>
  <course>187.24</course>
  <speed>0.191049731745428</speed>
  <fix>3d</fix>
</trkpt>
<trkpt lat="33.8102474" lon="-118.3938754">
  <ele>0.57</ele>
  <time>2026-09-02T22:13:04Z</time>
  <course>187.24</course>
  <speed>0.19849433241279207</speed>
  <fix>3d</fix>
</trkpt>
<trkpt lat="33.8102474" lon="-118.3938754">
  <ele>0.57</ele>
  <time>2026-09-02T22:13:04Z</time>
  <course>187.24</course>
  <speed>0.19849433241279207</speed>
  <fix>3d</fix>
</trkpt>
<trkpt lat="33.8102474" lon="-118.3938754">
  <ele>0.571</ele>
  <time>2026-09-02T22:13:04Z</time>
  <course>187.24</course>
  <speed>0.19849433241279207</speed>
  <fix>3d</fix>
</trkpt>
<trkpt lat="33.8102474" lon="-118.3938754">
  <ele>0.571</ele>
  <time>2026-09-02T22:13:04Z</time>
  <course>187.24</course>
  <speed>0.19849433241279207</speed>
  <fix>3d</fix>
</trkpt>
<trkpt lat="33.8102474" lon="-118.3938754">
  <ele>0.571</ele>
  <time>2026-09-02T22:13:04Z</time>
  <course>187.24</course>
  <speed>0.19849433241279207</speed>
  <fix>3d</fix>
</trkpt>
<trkpt lat="33.8102474" lon="-118.3938754">
  <ele>0.571</ele>
  <time>2026-09-02T22:13:04Z</time>
  <course>187.24</course>
  <speed>0.19849433241279207</speed>
  <fix>3d</fix>
</trkpt>
<trkpt lat="33.8102249" lon="-118.3938961">
  <ele>2.45</ele>
  <time>2026-09-02T22:13:04Z</time>
  <course>51.49</course>
  <speed>0.18</speed>
  <fix>3d</fix>
</trkpt>
<trkpt lat="33.8102474" lon="-118.3938754">
  <ele>0.571</ele>
  <time>2026-09-02T22:13:04Z</time>
  <course>187.24</course>
  <speed>0.19849433241279207</speed>
  <fix>3d</fix>
</trkpt>
<trkpt lat="33.8102474" lon="-118.3938754">
  <ele>0.571</ele>
  <time>2026-09-02T22:13:04Z</time>
  <course>187.24</course>
  <speed>0.19849433241279207</speed>
  <fix>3d</fix>
</trkpt>
<trkpt lat="33.8102474" lon="-118.3938754">
  <ele>0.571</ele>
  <time>2026-09-02T22:13:04Z</time>
  <course>187.24</course>
  <speed>0.19849433241279207</speed>
  <fix>3d</fix>
</trkpt>
<trkpt lat="33.8102474" lon="-118.3938754">
  <ele>0.571</ele>
  <time>2026-09-02T22:13:04Z</time>
  <course>187.24</course>
  <speed>0.19209372712298545</speed>
  <fix>3d</fix>
</trkpt>
<trkpt lat="33.8102474" lon="-118.3938754">
  <ele>0.571</ele>
  <time>2026-09-02T22:13:04Z</time>
  <course>187.24</course>
  <speed>0.19209372712298545</speed>
  <fix>3d</fix>
</trkpt>
<trkpt lat="33.8102474" lon="-118.3938754">
  <ele>0.571</ele>
  <time>2026-09-02T22:13:04Z</time>
  <course>187.24</course>
  <speed>0.19209372712298545</speed>
  <fix>3d</fix>
</trkpt>
<trkpt lat="33.8102474" lon="-118.3938754">
  <ele>0.571</ele>
  <time>2026-09-02T22:13:04Z</time>
  <course>187.24</course>
  <speed>0.19209372712298545</speed>
  <fix>3d</fix>
</trkpt>
<trkpt lat="33.8102474" lon="-118.3938754">
  <ele>0.571</ele>
  <time>2026-09-02T22:13:04Z</time>
  <course>187.23</course>
  <speed>0.19209372712298545</speed>
  <fix>3d</fix>
</trkpt>
<trkpt lat="33.8102474" lon="-118.3938754">
  <ele>0.571</ele>
  <time>2026-09-02T22:13:04Z</time>
  <course>187.23</course>
  <speed>0.19209372712298545</speed>
  <fix>3d</fix>
</trkpt>
<trkpt lat="33.8102474" lon="-118.3938754">
  <ele>0.571</ele>
  <time>2026-09-02T22:13:04Z</time>
  <course>187.23</course>
  <speed>0.19209372712298545</speed>
  <fix>3d</fix>
</trkpt>
<trkpt lat="33.8102474" lon="-118.3938754">
  <ele>0.571</ele>
  <time>2026-09-02T22:13:04Z</time>
  <course>187.23</course>
  <speed>0.19209372712298545</speed>
  <fix>3d</fix>
</trkpt>
<trkpt lat="33.8102474" lon="-118.3938754">
  <ele>0.571</ele>
  <time>2026-09-02T22:13:04Z</time>
  <course>187.23</course>
  <speed>0.19209372712298545</speed>
  <fix>3d</fix>
</trkpt>
<trkpt lat="33.8102474" lon="-118.3938754">
  <ele>0.571</ele>
  <time>2026-09-02T22:13:04Z</time>
  <course>187.23</course>
  <speed>0.19209372712298545</speed>
  <fix>3d</fix>
</trkpt>
<trkpt lat="33.8102235" lon="-118.3938949">
  <ele>2.45</ele>
  <time>2026-09-02T22:13:04Z</time>
  <course>50.59</course>
  <speed>0.18</speed>
  <fix>3d</fix>
</trkpt>
<trkpt lat="33.8102474" lon="-118.3938754">
  <ele>0.571</ele>
  <time>2026-09-02T22:13:04Z</time>
  <course>187.23</course>
  <speed>0.19209372712298545</speed>
  <fix>3d</fix>
</trkpt>
<trkpt lat="33.8102474" lon="-118.3938754">
  <ele>0.571</ele>
  <time>2026-09-02T22:13:04Z</time>
  <course>187.23</course>
  <speed>0.19209372712298545</speed>
  <fix>3d</fix>
</trkpt>
<trkpt lat="33.8102474" lon="-118.3938754">
  <ele>0.571</ele>
  <time>2026-09-02T22:13:04Z</time>
  <course>187.23</course>
  <speed>0.19209372712298545</speed>
  <fix>3d</fix>
</trkpt>
<trkpt lat="33.8102474" lon="-118.3938753">
  <ele>0.571</ele>
  <time>2026-09-02T22:13:04Z</time>
  <course>187.23</course>
  <speed>0.19209372712298545</speed>
  <fix>3d</fix>
</trkpt>
<trkpt lat="33.8102474" lon="-118.3938754">
  <ele>0.571</ele>
  <time>2026-09-02T22:13:04Z</time>
  <course>187.22</course>
  <speed>0.19209372712298545</speed>
  <fix>3d</fix>
</trkpt>
<trkpt lat="33.8102474" lon="-118.3938753">
  <ele>0.572</ele>
  <time>2026-09-02T22:13:04Z</time>
  <course>187.22</course>
  <speed>0.19209372712298545</speed>
  <fix>3d</fix>
</trkpt>
<trkpt lat="33.8102474" lon="-118.3938753">
  <ele>0.571</ele>
  <time>2026-09-02T22:13:04Z</time>
  <course>187.22</course>
  <speed>0.19209372712298545</speed>
  <fix>3d</fix>
</trkpt>
<trkpt lat="33.8102474" lon="-118.3938753">
  <ele>0.572</ele>
  <time>2026-09-02T22:13:04Z</time>
  <course>187.22</course>
  <speed>0.19209372712298545</speed>
  <fix>3d</fix>
</trkpt>
<trkpt lat="33.8102474" lon="-118.3938753">
  <ele>0.572</ele>
  <time>2026-09-02T22:13:04Z</time>
  <course>187.22</course>
  <speed>0.19209372712298545</speed>
  <fix>3d</fix>
</trkpt>
<trkpt lat="33.8102474" lon="-118.3938753">
  <ele>0.572</ele>
  <time>2026-09-02T22:13:04Z</time>
  <course>187.22</course>
  <speed>0.19209372712298545</speed>
  <fix>3d</fix>
</trkpt>
<trkpt lat="33.8102474" lon="-118.3938753">
  <ele>0.572</ele>
  <time>2026-09-02T22:13:04Z</time>
  <course>187.22</course>
  <speed>0.19209372712298545</speed>
  <fix>3d</fix>
</trkpt>
<trkpt lat="33.8102474" lon="-118.3938753">
  <ele>0.572</ele>
  <time>2026-09-02T22:13:04Z</time>
  <course>187.21</course>
  <speed>0.19209372712298545</speed>
  <fix>3d</fix>
</trkpt>
<trkpt lat="33.8102474" lon="-118.3938753">
  <ele>0.572</ele>
  <time>2026-09-02T22:13:04Z</time>
  <course>187.21</course>
  <speed>0.19209372712298545</speed>
  <fix>3d</fix>
</trkpt>
<trkpt lat="33.8102235" lon="-118.3938949">
  <ele>2.45</ele>
  <time>2026-09-02T22:13:04Z</time>
  <course>50.59</course>
  <speed>0.18</speed>
  <fix>3d</fix>
</trkpt>
<trkpt lat="33.8102474" lon="-118.3938753">
  <ele>0.572</ele>
  <time>2026-09-02T22:13:04Z</time>
  <course>187.21</course>
  <speed>0.19209372712298545</speed>
  <fix>3d</fix>
</trkpt>
<trkpt lat="33.8102474" lon="-118.3938753">
  <ele>0.572</ele>
  <time>2026-09-02T22:13:04Z</time>
  <course>187.21</course>
  <speed>0.2</speed>
  <fix>3d</fix>
</trkpt>
<trkpt lat="33.8102474" lon="-118.3938753">
  <ele>0.572</ele>
  <time>2026-09-02T22:13:04Z</time>
  <course>187.21</course>
  <speed>0.2</speed>
  <fix>3d</fix>
</trkpt>
<trkpt lat="33.8102474" lon="-118.3938753">
  <ele>0.572</ele>
  <time>2026-09-02T22:13:04Z</time>
  <course>187.21</course>
  <speed>0.2</speed>
  <fix>3d</fix>
</trkpt>
<trkpt lat="33.8102474" lon="-118.3938753">
  <ele>0.573</ele>
  <time>2026-09-02T22:13:04Z</time>
  <course>187.21</course>
  <speed>0.2</speed>
  <fix>3d</fix>
</trkpt>
<trkpt lat="33.8102474" lon="-118.3938753">
  <ele>0.573</ele>
  <time>2026-09-02T22:13:04Z</time>
  <course>187.2</course>
  <speed>0.2</speed>
  <fix>3d</fix>
</trkpt>
<trkpt lat="33.8102474" lon="-118.3938753">
  <ele>0.573</ele>
  <time>2026-09-02T22:13:04Z</time>
  <course>187.2</course>
  <speed>0.2</speed>
  <fix>3d</fix>
</trkpt>
<trkpt lat="33.8102474" lon="-118.3938753">
  <ele>0.573</ele>
  <time>2026-09-02T22:13:04Z</time>
  <course>187.2</course>
  <speed>0.2</speed>
  <fix>3d</fix>
</trkpt>
<trkpt lat="33.8102474" lon="-118.3938753">
  <ele>0.573</ele>
  <time>2026-09-02T22:13:04Z</time>
  <course>187.2</course>
  <speed>0.2</speed>
  <fix>3d</fix>
</trkpt>
<trkpt lat="33.8102473" lon="-118.3938753">
  <ele>0.573</ele>
  <time>2026-09-02T22:13:04Z</time>
  <course>187.2</course>
  <speed>0.194164878389476</speed>
  <fix>3d</fix>
</trkpt>
<trkpt lat="33.8102473" lon="-118.3938753">
  <ele>0.573</ele>
  <time>2026-09-02T22:13:04Z</time>
  <course>187.2</course>
  <speed>0.194164878389476</speed>
  <fix>3d</fix>
</trkpt>
<trkpt lat="33.8102473" lon="-118.3938753">
  <ele>0.573</ele>
  <time>2026-09-02T22:13:04Z</time>
  <course>187.2</course>
  <speed>0.194164878389476</speed>
  <fix>3d</fix>
</trkpt>
<trkpt lat="33.8102473" lon="-118.3938753">
  <ele>0.573</ele>
  <time>2026-09-02T22:13:04Z</time>
  <course>187.2</course>
  <speed>0.194164878389476</speed>
  <fix>3d</fix>
</trkpt>
<trkpt lat="33.8102221" lon="-118.3938935">
  <ele>2.45</ele>
  <time>2026-09-02T22:13:04Z</time>
  <course>48.49</course>
  <speed>0.19</speed>
  <fix>3d</fix>
</trkpt>
<trkpt lat="33.8102473" lon="-118.3938753">
  <ele>0.574</ele>
  <time>2026-09-02T22:13:04Z</time>
  <course>187.19</course>
  <speed>0.194164878389476</speed>
  <fix>3d</fix>
</trkpt>
<trkpt lat="33.8102473" lon="-118.3938753">
  <ele>0.574</ele>
  <time>2026-09-02T22:13:04Z</time>
  <course>187.19</course>
  <speed>0.194164878389476</speed>
  <fix>3d</fix>
</trkpt>
<trkpt lat="33.8102473" lon="-118.3938753">
  <ele>0.574</ele>
  <time>2026-09-02T22:13:04Z</time>
  <course>187.19</course>
  <speed>0.194164878389476</speed>
  <fix>3d</fix>
</trkpt>
<trkpt lat="33.8102473" lon="-118.3938753">
  <ele>0.574</ele>
  <time>2026-09-02T22:13:04Z</time>
  <course>187.19</course>
  <speed>0.194164878389476</speed>
  <fix>3d</fix>
</trkpt>
<trkpt lat="33.8102473" lon="-118.3938753">
  <ele>0.574</ele>
  <time>2026-09-02T22:13:04Z</time>
  <course>187.19</course>
  <speed>0.194164878389476</speed>
  <fix>3d</fix>
</trkpt>
<trkpt lat="33.8102473" lon="-118.3938753">
  <ele>0.574</ele>
  <time>2026-09-02T22:13:04Z</time>
  <course>187.19</course>
  <speed>0.194164878389476</speed>
  <fix>3d</fix>
</trkpt>
<trkpt lat="33.8102473" lon="-118.3938753">
  <ele>0.575</ele>
  <time>2026-09-02T22:13:04Z</time>
  <course>187.19</course>
  <speed>0.194164878389476</speed>
  <fix>3d</fix>
</trkpt>
<trkpt lat="33.8102473" lon="-118.3938752">
  <ele>0.574</ele>
  <time>2026-09-02T22:13:04Z</time>
  <course>187.19</course>
  <speed>0.20248456731316586</speed>
  <fix>3d</fix>
</trkpt>
<trkpt lat="33.8102473" lon="-118.3938752">
  <ele>0.575</ele>
  <time>2026-09-02T22:13:04Z</time>
  <course>187.19</course>
  <speed>0.20248456731316586</speed>
  <fix>3d</fix>
</trkpt>
<trkpt lat="33.8102473" lon="-118.3938752">
  <ele>0.575</ele>
  <time>2026-09-02T22:13:04Z</time>
  <course>187.19</course>
  <speed>0.20248456731316586</speed>
  <fix>3d</fix>
</trkpt>
<trkpt lat="33.8102221" lon="-118.3938935">
  <ele>2.45</ele>
  <time>2026-09-02T22:13:04Z</time>
  <course>48.49</course>
  <speed>0.19</speed>
  <fix>3d</fix>
</trkpt>
<trkpt lat="33.8102473" lon="-118.3938752">
  <ele>0.575</ele>
  <time>2026-09-02T22:13:04Z</time>
  <course>187.19</course>
  <speed>0.20248456731316586</speed>
  <fix>3d</fix>
</trkpt>
<trkpt lat="33.8102473" lon="-118.3938752">
  <ele>0.575</ele>
  <time>2026-09-02T22:13:04Z</time>
  <course>187.18</course>
  <speed>0.20248456731316586</speed>
  <fix>3d</fix>
</trkpt>
<trkpt lat="33.8102473" lon="-118.3938752">
  <ele>0.574</ele>
  <time>2026-09-02T22:13:04Z</time>
  <course>187.18</course>
  <speed>0.20248456731316586</speed>
  <fix>3d</fix>
</trkpt>
<trkpt lat="33.8102473" lon="-118.3938752">
  <ele>0.574</ele>
  <time>2026-09-02T22:13:04Z</time>
  <course>187.18</course>
  <speed>0.18867962264113206</speed>
  <fix>3d</fix>
</trkpt>
<trkpt lat="33.8102209" lon="-118.3938919">
  <ele>2.45</ele>
  <time>2026-09-02T22:13:04Z</time>
  <course>44.48</course>
  <speed>0.19</speed>
  <fix>3d</fix>
</trkpt>
<trkpt lat="33.8102473" lon="-118.3938752">
  <ele>0.573</ele>
  <time>2026-09-02T22:13:04Z</time>
  <course>187.18</course>
  <speed>0.18027756377319945</speed>
  <fix>3d</fix>
</trkpt>
<trkpt lat="33.8102209" lon="-118.3938919">
  <ele>2.45</ele>
  <time>2026-09-02T22:13:04Z</time>
  <course>44.48</course>
  <speed>0.19</speed>
  <fix>3d</fix>
</trkpt>
<trkpt lat="33.8102473" lon="-118.3938751">
  <ele>0.571</ele>
  <time>2026-09-02T22:13:04Z</time>
  <course>187.18</course>
  <speed>0.1063014581273465</speed>
  <fix>3d</fix>
</trkpt>
<trkpt lat="33.8102198" lon="-118.3938902">
  <ele>2.44</ele>
  <time>2026-09-02T22:13:04Z</time>
  <course>43.38</course>
  <speed>0.17</speed>
  <fix>3d</fix>
</trkpt>
<trkpt lat="33.810247" lon="-118.3938751">
  <ele>0.569</ele>
  <time>2026-09-02T22:13:04Z</time>
  <course>187.19</course>
  <speed>0.07810249675906654</speed>
  <fix>3d</fix>
</trkpt>
<trkpt lat="33.8102198" lon="-118.3938902">
  <ele>2.44</ele>
  <time>2026-09-02T22:13:04Z</time>
  <course>43.38</course>
  <speed>0.17</speed>
  <fix>3d</fix>
</trkpt>
<trkpt lat="33.8102468" lon="-118.3938751">
  <ele>0.567</ele>
  <time>2026-09-02T22:13:04Z</time>
  <course>187.2</course>
  <speed>0.27018512172212594</speed>
  <fix>3d</fix>
</trkpt>
<trkpt lat="33.8102187" lon="-118.3938884">
  <ele>2.44</ele>
  <time>2026-09-02T22:13:04Z</time>
  <course>107.55</course>
  <speed>0.09</speed>
  <fix>3d</fix>
</trkpt>
<trkpt lat="33.8102464" lon="-118.3938751">
  <ele>0.566</ele>
  <time>2026-09-02T22:13:04Z</time>
  <course>187.2</course>
  <speed>0.46010868281309364</speed>
  <fix>3d</fix>
</trkpt>
<trkpt lat="33.8102187" lon="-118.3938884">
  <ele>2.44</ele>
  <time>2026-09-02T22:13:04Z</time>
  <course>107.55</course>
  <speed>0.09</speed>
  <fix>3d</fix>
</trkpt>
<trkpt lat="33.8102458" lon="-118.3938751">
  <ele>0.566</ele>
  <time>2026-09-02T22:13:04Z</time>
  <course>187.21</course>
  <speed>0.6512296062065974</speed>
  <fix>3d</fix>
</trkpt>
<trkpt lat="33.8102174" lon="-118.3938866">
  <ele>2.44</ele>
  <time>2026-09-02T22:13:04Z</time>
  <course>175.27</course>
  <speed>0.37</speed>
  <fix>3d</fix>
</trkpt>
<trkpt lat="33.810245" lon="-118.3938752">
  <ele>0.568</ele>
  <time>2026-09-02T22:13:04Z</time>
  <course>187.21</course>
  <speed>0.8130190649671138</speed>
  <fix>3d</fix>
</trkpt>
<trkpt lat="33.8102174" lon="-118.3938866">
  <ele>2.44</ele>
  <time>2026-09-02T22:13:04Z</time>
  <course>175.27</course>
  <speed>0.37</speed>
  <fix>3d</fix>
</trkpt>
<trkpt lat="33.8102442" lon="-118.3938753">
  <ele>0.57</ele>
  <time>2026-09-02T22:13:04Z</time>
  <course>187.22</course>
  <speed>0.9343446901438461</speed>
  <fix>3d</fix>
</trkpt>
<trkpt lat="33.8102155" lon="-118.3938847">
  <ele>2.44</ele>
  <time>2026-09-02T22:13:04Z</time>
  <course>182.08</course>
  <speed>0.74</speed>
  <fix>3d</fix>
</trkpt>
<trkpt lat="33.8102433" lon="-118.3938754">
  <ele>0.571</ele>
  <time>2026-09-02T22:13:04Z</time>
  <course>187.23</course>
  <speed>1.0259142264341596</speed>
  <fix>3d</fix>
</trkpt>
<trkpt lat="33.8102155" lon="-118.3938847">
  <ele>2.44</ele>
  <time>2026-09-02T22:13:04Z</time>
  <course>182.08</course>
  <speed>0.74</speed>
  <fix>3d</fix>
</trkpt>
<trkpt lat="33.8102423" lon="-118.3938755">
  <ele>0.571</ele>
  <time>2026-09-02T22:13:04Z</time>
  <course>187.23</course>
  <speed>1.1065260954898444</speed>
  <fix>3d</fix>
</trkpt>
<trkpt lat="33.8102131" lon="-118.3938829">
  <ele>2.44</ele>
  <time>2026-09-02T22:13:04Z</time>
  <course>184.08</course>
  <speed>1.01</speed>
  <fix>3d</fix>
</trkpt>
<trkpt lat="33.8102412" lon="-118.3938756">
  <ele>0.571</ele>
  <time>2026-09-02T22:13:04Z</time>
  <course>187.22</course>
  <speed>1.1584903970253704</speed>
  <fix>3d</fix>
</trkpt>
<trkpt lat="33.8102131" lon="-118.3938829">
  <ele>2.44</ele>
  <time>2026-09-02T22:13:04Z</time>
  <course>184.08</course>
  <speed>1.01</speed>
  <fix>3d</fix>
</trkpt>
<trkpt lat="33.81024" lon="-118.3938758">
  <ele>0.569</ele>
  <time>2026-09-02T22:13:04Z</time>
  <course>187.21</course>
  <speed>1.2093386622447826</speed>
  <fix>3d</fix>
</trkpt>
<trkpt lat="33.8102105" lon="-118.3938809">
  <ele>2.44</ele>
  <time>2026-09-02T22:13:04Z</time>
  <course>185.1</course>
  <speed>1.19</speed>
  <fix>3d</fix>
</trkpt>
<trkpt lat="33.8102388" lon="-118.393876">
  <ele>0.567</ele>
  <time>2026-09-02T22:13:04Z</time>
  <course>187.2</course>
  <speed>1.2502799686470227</speed>
  <fix>3d</fix>
</trkpt>
<trkpt lat="33.8102105" lon="-118.3938809">
  <ele>2.44</ele>
  <time>2026-09-02T22:13:04Z</time>
  <course>185.1</course>
  <speed>1.19</speed>
  <fix>3d</fix>
</trkpt>
<trkpt lat="33.8102375" lon="-118.3938761">
  <ele>0.566</ele>
  <time>2026-09-02T22:13:04Z</time>
  <course>187.2</course>
  <speed>1.281327436684316</speed>
  <fix>3d</fix>
</trkpt>
<trkpt lat="33.8102079" lon="-118.393879">
  <ele>2.43</ele>
  <time>2026-09-02T22:13:04Z</time>
  <course>185.76</course>
  <speed>1.3</speed>
  <fix>3d</fix>
</trkpt>
<trkpt lat="33.8102362" lon="-118.3938763">
  <ele>0.565</ele>
  <time>2026-09-02T22:13:04Z</time>
  <course>187.19</course>
  <speed>1.3110682667199294</speed>
  <fix>3d</fix>
</trkpt>
<trkpt lat="33.8102079" lon="-118.393879">
  <ele>2.43</ele>
  <time>2026-09-02T22:13:04Z</time>
  <course>185.76</course>
  <speed>1.3</speed>
  <fix>3d</fix>
</trkpt>
<trkpt lat="33.8102348" lon="-118.3938765">
  <ele>0.565</ele>
  <time>2026-09-02T22:13:04Z</time>
  <course>187.19</course>
  <speed>1.3421251804507657</speed>
  <fix>3d</fix>
</trkpt>
<trkpt lat="33.8102052" lon="-118.3938773">
  <ele>2.42</ele>
  <time>2026-09-02T22:13:04Z</time>
  <course>186.24</course>
  <speed>1.38</speed>
  <fix>3d</fix>
</trkpt>
<trkpt lat="33.8102334" lon="-118.3938767">
  <ele>0.565</ele>
  <time>2026-09-02T22:13:04Z</time>
  <course>187.2</course>
  <speed>1.3534031180694095</speed>
  <fix>3d</fix>
</trkpt>
<trkpt lat="33.8102052" lon="-118.3938773">
  <ele>2.42</ele>
  <time>2026-09-02T22:13:04Z</time>
  <course>186.24</course>
  <speed>1.38</speed>
  <fix>3d</fix>
</trkpt>
<trkpt lat="33.8102319" lon="-118.3938769">
  <ele>0.564</ele>
  <time>2026-09-02T22:13:04Z</time>
  <course>187.2</course>
  <speed>1.3746272221951665</speed>
  <fix>3d</fix>
</trkpt>
<trkpt lat="33.8102026" lon="-118.3938754">
  <ele>2.43</ele>
  <time>2026-09-02T22:13:04Z</time>
  <course>186.65</course>
  <speed>1.43</speed>
  <fix>3d</fix>
</trkpt>
<trkpt lat="33.8102305" lon="-118.3938771">
  <ele>0.563</ele>
  <time>2026-09-02T22:13:04Z</time>
  <course>187.2</course>
  <speed>1.3944174410842687</speed>
  <fix>3d</fix>
</trkpt>
<trkpt lat="33.8102026" lon="-118.3938754">
  <ele>2.43</ele>
  <time>2026-09-02T22:13:04Z</time>
  <course>186.65</course>
  <speed>1.43</speed>
  <fix>3d</fix>
</trkpt>
<trkpt lat="33.810229" lon="-118.3938773">
  <ele>0.563</ele>
  <time>2026-09-02T22:13:04Z</time>
  <course>187.2</course>
  <speed>1.4057738082636198</speed>
  <fix>3d</fix>
</trkpt>
<trkpt lat="33.8102001" lon="-118.3938736">
  <ele>2.43</ele>
  <time>2026-09-02T22:13:04Z</time>
  <course>187.05</course>
  <speed>1.47</speed>
  <fix>3d</fix>
</trkpt>
<trkpt lat="33.8102275" lon="-118.3938775">
  <ele>0.565</ele>
  <time>2026-09-02T22:13:04Z</time>
  <course>187.2</course>
  <speed>1.41718029904455</speed>
  <fix>3d</fix>
</trkpt>
<trkpt lat="33.8102001" lon="-118.3938736">
  <ele>2.43</ele>
  <time>2026-09-02T22:13:04Z</time>
  <course>187.05</course>
  <speed>1.47</speed>
  <fix>3d</fix>
</trkpt>
<trkpt lat="33.810226" lon="-118.3938777">
  <ele>0.567</ele>
  <time>2026-09-02T22:13:04Z</time>
  <course>187.2</course>
  <speed>1.427059914649697</speed>
  <fix>3d</fix>
</trkpt>
<trkpt lat="33.8101977" lon="-118.3938719">
  <ele>2.43</ele>
  <time>2026-09-02T22:13:04Z</time>
  <course>187.47</course>
  <speed>1.5</speed>
  <fix>3d</fix>
</trkpt>
<trkpt lat="33.8102245" lon="-118.3938779">
  <ele>0.569</ele>
  <time>2026-09-02T22:13:04Z</time>
  <course>187.2</course>
  <speed>1.4385061696079027</speed>
  <fix>3d</fix>
</trkpt>
<trkpt lat="33.8101977" lon="-118.3938719">
  <ele>2.43</ele>
  <time>2026-09-02T22:13:04Z</time>
  <course>187.47</course>
  <speed>1.5</speed>
  <fix>3d</fix>
</trkpt>
<trkpt lat="33.8102229" lon="-118.3938781">
  <ele>0.57</ele>
  <time>2026-09-02T22:13:04Z</time>
  <course>187.2</course>
  <speed>1.45</speed>
  <fix>3d</fix>
</trkpt>
<trkpt lat="33.8101955" lon="-118.3938703">
  <ele>2.43</ele>
  <time>2026-09-02T22:13:04Z</time>
  <course>187.89</course>
  <speed>1.52</speed>
  <fix>3d</fix>
</trkpt>
<trkpt lat="33.8102214" lon="-118.3938784">
  <ele>0.57</ele>
  <time>2026-09-02T22:13:04Z</time>
  <course>187.21</course>
  <speed>1.4598630072715728</speed>
  <fix>3d</fix>
</trkpt>
<trkpt lat="33.8101955" lon="-118.3938703">
  <ele>2.43</ele>
  <time>2026-09-02T22:13:04Z</time>
  <course>187.89</course>
  <speed>1.52</speed>
  <fix>3d</fix>
</trkpt>
<trkpt lat="33.8102199" lon="-118.3938786">
  <ele>0.568</ele>
  <time>2026-09-02T22:13:04Z</time>
  <course>187.21</course>
  <speed>1.4713938969562161</speed>
  <fix>3d</fix>
</trkpt>
<trkpt lat="33.8101934" lon="-118.3938687">
  <ele>2.43</ele>
  <time>2026-09-02T22:13:04Z</time>
  <course>188.28</course>
  <speed>1.54</speed>
  <fix>3d</fix>
</trkpt>
<trkpt lat="33.8102184" lon="-118.3938788">
  <ele>0.567</ele>
  <time>2026-09-02T22:13:04Z</time>
  <course>187.21</course>
  <speed>1.4812494725737457</speed>
  <fix>3d</fix>
</trkpt>
<trkpt lat="33.8101934" lon="-118.3938687">
  <ele>2.43</ele>
  <time>2026-09-02T22:13:04Z</time>
  <course>188.28</course>
  <speed>1.54</speed>
  <fix>3d</fix>
</trkpt>
<trkpt lat="33.8102168" lon="-118.393879">
  <ele>0.565</ele>
  <time>2026-09-02T22:13:04Z</time>
  <course>187.22</course>
  <speed>1.4829699929533302</speed>
  <fix>3d</fix>
</trkpt>
<trkpt lat="33.8101914" lon="-118.3938673">
  <ele>2.42</ele>
  <time>2026-09-02T22:13:04Z</time>
  <course>188.6</course>
  <speed>1.55</speed>
  <fix>3d</fix>
</trkpt>
<trkpt lat="33.8102153" lon="-118.3938792">
  <ele>0.566</ele>
  <time>2026-09-02T22:13:04Z</time>
  <course>187.21</course>
  <speed>1.4928161306738348</speed>
  <fix>3d</fix>
</trkpt>
<trkpt lat="33.8101914" lon="-118.3938673">
  <ele>2.42</ele>
  <time>2026-09-02T22:13:04Z</time>
  <course>188.6</course>
  <speed>1.55</speed>
  <fix>3d</fix>
</trkpt>
<trkpt lat="33.8102137" lon="-118.3938794">
  <ele>0.568</ele>
  <time>2026-09-02T22:13:04Z</time>
  <course>187.21</course>
  <speed>1.5044268011438775</speed>
  <fix>3d</fix>
</trkpt>
<trkpt lat="33.8101896" lon="-118.393866">
  <ele>2.43</ele>
  <time>2026-09-02T22:13:04Z</time>
  <course>188.91</course>
  <speed>1.57</speed>
  <fix>3d</fix>
</trkpt>
<trkpt lat="33.8102122" lon="-118.3938797">
  <ele>0.571</ele>
  <time>2026-09-02T22:13:04Z</time>
  <course>187.21</course>
  <speed>1.5044268011438775</speed>
  <fix>3d</fix>
</trkpt>
<trkpt lat="33.8101896" lon="-118.393866">
  <ele>2.43</ele>
  <time>2026-09-02T22:13:04Z</time>
  <course>188.91</course>
  <speed>1.57</speed>
  <fix>3d</fix>
</trkpt>
<trkpt lat="33.8102106" lon="-118.3938799">
  <ele>0.574</ele>
  <time>2026-09-02T22:13:04Z</time>
  <course>187.22</course>
  <speed>1.5160804727981954</speed>
  <fix>3d</fix>
</trkpt>
<trkpt lat="33.8101879" lon="-118.3938648">
  <ele>2.43</ele>
  <time>2026-09-02T22:13:04Z</time>
  <course>189.21</course>
  <speed>1.58</speed>
  <fix>3d</fix>
</trkpt>
<trkpt lat="33.8102091" lon="-118.3938801">
  <ele>0.576</ele>
  <time>2026-09-02T22:13:04Z</time>
  <course>187.22</course>
  <speed>1.525909564816998</speed>
  <fix>3d</fix>
</trkpt>
<trkpt lat="33.8101879" lon="-118.3938648">
  <ele>2.43</ele>
  <time>2026-09-02T22:13:04Z</time>
  <course>189.21</course>
  <speed>1.58</speed>
  <fix>3d</fix>
</trkpt>
<trkpt lat="33.8102076" lon="-118.3938803">
  <ele>0.576</ele>
  <time>2026-09-02T22:13:04Z</time>
  <course>187.22</course>
  <speed>1.527776161615307</speed>
  <fix>3d</fix>
</trkpt>
<trkpt lat="33.8101863" lon="-118.3938637">
  <ele>2.43</ele>
  <time>2026-09-02T22:13:04Z</time>
  <course>189.55</course>
  <speed>1.59</speed>
  <fix>3d</fix>
</trkpt>
<trkpt lat="33.810206" lon="-118.3938805">
  <ele>0.577</ele>
  <time>2026-09-02T22:13:04Z</time>
  <course>187.22</course>
  <speed>1.537595525487766</speed>
  <fix>3d</fix>
</trkpt>
<trkpt lat="33.8101863" lon="-118.3938637">
  <ele>2.43</ele>
  <time>2026-09-02T22:13:04Z</time>
  <course>189.55</course>
  <speed>1.59</speed>
  <fix>3d</fix>
</trkpt>
<trkpt lat="33.8102045" lon="-118.3938808">
  <ele>0.576</ele>
  <time>2026-09-02T22:13:04Z</time>
  <course>187.23</course>
  <speed>1.549322432549145</speed>
  <fix>3d</fix>
</trkpt>
<trkpt lat="33.8101848" lon="-118.3938629">
  <ele>2.42</ele>
  <time>2026-09-02T22:13:04Z</time>
  <course>189.83</course>
  <speed>1.6</speed>
  <fix>3d</fix>
</trkpt>
<trkpt lat="33.8102029" lon="-118.393881">
  <ele>0.574</ele>
  <time>2026-09-02T22:13:04Z</time>
  <course>187.23</course>
  <speed>1.549322432549145</speed>
  <fix>3d</fix>
</trkpt>
<trkpt lat="33.8101848" lon="-118.3938629">
  <ele>2.42</ele>
  <time>2026-09-02T22:13:04Z</time>
  <course>189.83</course>
  <speed>1.6</speed>
  <fix>3d</fix>
</trkpt>
<trkpt lat="33.8102014" lon="-118.3938812">
  <ele>0.571</ele>
  <time>2026-09-02T22:13:04Z</time>
  <course>187.23</course>
  <speed>1.5591343752223539</speed>
  <fix>3d</fix>
</trkpt>
<trkpt lat="33.8101834" lon="-118.3938623">
  <ele>2.41</ele>
  <time>2026-09-02T22:13:04Z</time>
  <course>190.03</course>
  <speed>1.62</speed>
  <fix>3d</fix>
</trkpt>
<trkpt lat="33.8101998" lon="-118.3938814">
  <ele>0.567</ele>
  <time>2026-09-02T22:13:04Z</time>
  <course>187.23</course>
  <speed>1.570891466651977</speed>
  <fix>3d</fix>
</trkpt>
<trkpt lat="33.8101834" lon="-118.3938623">
  <ele>2.41</ele>
  <time>2026-09-02T22:13:04Z</time>
  <course>190.03</course>
  <speed>1.62</speed>
  <fix>3d</fix>
</trkpt>
<trkpt lat="33.8101983" lon="-118.3938817">
  <ele>0.564</ele>
  <time>2026-09-02T22:13:04Z</time>
  <course>187.23</course>
  <speed>1.570891466651977</speed>
  <fix>3d</fix>
</trkpt>
<trkpt lat="33.8101821" lon="-118.3938619">
  <ele>2.41</ele>
  <time>2026-09-02T22:13:04Z</time>
  <course>190.17</course>
  <speed>1.63</speed>
  <fix>3d</fix>
</trkpt>
<trkpt lat="33.8101967" lon="-118.3938819">
  <ele>0.561</ele>
  <time>2026-09-02T22:13:04Z</time>
  <course>187.23</course>
  <speed>1.5806960492137634</speed>
  <fix>3d</fix>
</trkpt>
<trkpt lat="33.8101821" lon="-118.3938619">
  <ele>2.41</ele>
  <time>2026-09-02T22:13:04Z</time>
  <course>190.17</course>
  <speed>1.63</speed>
  <fix>3d</fix>
</trkpt>
<trkpt lat="33.8101952" lon="-118.3938821">
  <ele>0.558</ele>
  <time>2026-09-02T22:13:04Z</time>
  <course>187.24</course>
  <speed>1.5905030650709227</speed>
  <fix>3d</fix>
</trkpt>
<trkpt lat="33.8101808" lon="-118.3938616">
  <ele>2.4</ele>
  <time>2026-09-02T22:13:04Z</time>
  <course>190.25</course>
  <speed>1.64</speed>
  <fix>3d</fix>
</trkpt>
<trkpt lat="33.8101937" lon="-118.3938824">
  <ele>0.557</ele>
  <time>2026-09-02T22:13:04Z</time>
  <course>187.24</course>
  <speed>1.5905030650709227</speed>
  <fix>3d</fix>
</trkpt>
<trkpt lat="33.8101808" lon="-118.3938616">
  <ele>2.4</ele>
  <time>2026-09-02T22:13:04Z</time>
  <course>190.25</course>
  <speed>1.64</speed>
  <fix>3d</fix>
</trkpt>
<trkpt lat="33.8101921" lon="-118.3938826">
  <ele>0.557</ele>
  <time>2026-09-02T22:13:04Z</time>
  <course>187.24</course>
  <speed>1.6003124694883808</speed>
  <fix>3d</fix>
</trkpt>
<trkpt lat="33.8101796" lon="-118.3938616">
  <ele>2.4</ele>
  <time>2026-09-02T22:13:04Z</time>
  <course>190.3</course>
  <speed>1.65</speed>
  <fix>3d</fix>
</trkpt>
<trkpt lat="33.8101906" lon="-118.3938828">
  <ele>0.557</ele>
  <time>2026-09-02T22:13:04Z</time>
  <course>187.24</course>
  <speed>1.6120794025109308</speed>
  <fix>3d</fix>
</trkpt>
<trkpt lat="33.8101796" lon="-118.3938616">
  <ele>2.4</ele>
  <time>2026-09-02T22:13:04Z</time>
  <course>190.3</course>
  <speed>1.65</speed>
  <fix>3d</fix>
</trkpt>
<trkpt lat="33.810189" lon="-118.3938831">
  <ele>0.557</ele>
  <time>2026-09-02T22:13:04Z</time>
  <course>187.24</course>
  <speed>1.6218816233005415</speed>
  <fix>3d</fix>
</trkpt>
<trkpt lat="33.8101785" lon="-118.3938618">
  <ele>2.4</ele>
  <time>2026-09-02T22:13:04Z</time>
  <course>190.32</course>
  <speed>1.66</speed>
  <fix>3d</fix>
</trkpt>
<trkpt lat="33.8101875" lon="-118.3938833">
  <ele>0.56</ele>
  <time>2026-09-02T22:13:04Z</time>
  <course>187.24</course>
  <speed>1.6218816233005415</speed>
  <fix>3d</fix>
</trkpt>
<trkpt lat="33.8101785" lon="-118.3938618">
  <ele>2.4</ele>
  <time>2026-09-02T22:13:04Z</time>
  <course>190.32</course>
  <speed>1.66</speed>
  <fix>3d</fix>
</trkpt>
<trkpt lat="33.8101859" lon="-118.3938835">
  <ele>0.563</ele>
  <time>2026-09-02T22:13:04Z</time>
  <course>187.24</course>
  <speed>1.6316862443496911</speed>
  <fix>3d</fix>
</trkpt>
<trkpt lat="33.8101773" lon="-118.3938622">
  <ele>2.4</ele>
  <time>2026-09-02T22:13:04Z</time>
  <course>190.33</course>
  <speed>1.67</speed>
  <fix>3d</fix>
</trkpt>
<trkpt lat="33.8101844" lon="-118.3938838">
  <ele>0.566</ele>
  <time>2026-09-02T22:13:04Z</time>
  <course>187.24</course>
  <speed>1.6316862443496911</speed>
  <fix>3d</fix>
</trkpt>
<trkpt lat="33.8101773" lon="-118.3938622">
  <ele>2.4</ele>
  <time>2026-09-02T22:13:04Z</time>
  <course>190.33</course>
  <speed>1.67</speed>
  <fix>3d</fix>
</trkpt>
<trkpt lat="33.8101828" lon="-118.393884">
  <ele>0.568</ele>
  <time>2026-09-02T22:13:04Z</time>
  <course>187.25</course>
  <speed>1.6414932226482082</speed>
  <fix>3d</fix>
</trkpt>
<trkpt lat="33.8101761" lon="-118.3938628">
  <ele>2.41</ele>
  <time>2026-09-02T22:13:04Z</time>
  <course>190.31</course>
  <speed>1.68</speed>
  <fix>3d</fix>
</trkpt>
<trkpt lat="33.8101813" lon="-118.3938842">
  <ele>0.57</ele>
  <time>2026-09-02T22:13:04Z</time>
  <course>187.25</course>
  <speed>1.651302516197441</speed>
  <fix>3d</fix>
</trkpt>
<trkpt lat="33.8101761" lon="-118.3938628">
  <ele>2.41</ele>
  <time>2026-09-02T22:13:04Z</time>
  <course>190.31</course>
  <speed>1.68</speed>
  <fix>3d</fix>
</trkpt>
<trkpt lat="33.8101798" lon="-118.3938845">
  <ele>0.572</ele>
  <time>2026-09-02T22:13:04Z</time>
  <course>187.25</course>
  <speed>1.651302516197441</speed>
  <fix>3d</fix>
</trkpt>
<trkpt lat="33.8101749" lon="-118.3938636">
  <ele>2.41</ele>
  <time>2026-09-02T22:13:04Z</time>
  <course>190.26</course>
  <speed>1.7</speed>
  <fix>3d</fix>
</trkpt>
<trkpt lat="33.8101782" lon="-118.3938847">
  <ele>0.573</ele>
  <time>2026-09-02T22:13:04Z</time>
  <course>187.25</course>
  <speed>1.6611140839809888</speed>
  <fix>3d</fix>
</trkpt>
<trkpt lat="33.8101749" lon="-118.3938636">
  <ele>2.41</ele>
  <time>2026-09-02T22:13:04Z</time>
  <course>190.26</course>
  <speed>1.7</speed>
  <fix>3d</fix>
</trkpt>
<trkpt lat="33.8101767" lon="-118.393885">
  <ele>0.572</ele>
  <time>2026-09-02T22:13:04Z</time>
  <course>187.25</course>
  <speed>1.6709278859364338</speed>
  <fix>3d</fix>
</trkpt>
<trkpt lat="33.8101737" lon="-118.3938647">
  <ele>2.41</ele>
  <time>2026-09-02T22:13:04Z</time>
  <course>190.19</course>
  <speed>1.71</speed>
  <fix>3d</fix>
</trkpt>
<trkpt lat="33.8101751" lon="-118.3938852">
  <ele>0.573</ele>
  <time>2026-09-02T22:13:04Z</time>
  <course>187.25</course>
  <speed>1.6709278859364338</speed>
  <fix>3d</fix>
</trkpt>
<trkpt lat="33.8101737" lon="-118.3938647">
  <ele>2.41</ele>
  <time>2026-09-02T22:13:04Z</time>
  <course>190.19</course>
  <speed>1.71</speed>
  <fix>3d</fix>
</trkpt>
<trkpt lat="33.8101736" lon="-118.3938855">
  <ele>0.573</ele>
  <time>2026-09-02T22:13:04Z</time>
  <course>187.25</course>
  <speed>1.6807438829280326</speed>
  <fix>3d</fix>
</trkpt>
<trkpt lat="33.8101723" lon="-118.393866">
  <ele>2.41</ele>
  <time>2026-09-02T22:13:04Z</time>
  <course>190.09</course>
  <speed>1.72</speed>
  <fix>3d</fix>
</trkpt>
<trkpt lat="33.810172" lon="-118.3938857">
  <ele>0.573</ele>
  <time>2026-09-02T22:13:04Z</time>
  <course>187.25</course>
  <speed>1.6807438829280326</speed>
  <fix>3d</fix>
</trkpt>
<trkpt lat="33.8101723" lon="-118.393866">
  <ele>2.41</ele>
  <time>2026-09-02T22:13:04Z</time>
  <course>190.09</course>
  <speed>1.72</speed>
  <fix>3d</fix>
</trkpt>
<trkpt lat="33.8101705" lon="-118.393886">
  <ele>0.573</ele>
  <time>2026-09-02T22:13:04Z</time>
  <course>187.26</course>
  <speed>1.6807438829280326</speed>
  <fix>3d</fix>
</trkpt>
<trkpt lat="33.8101709" lon="-118.3938675">
  <ele>2.4</ele>
  <time>2026-09-02T22:13:04Z</time>
  <course>189.96</course>
  <speed>1.73</speed>
  <fix>3d</fix>
</trkpt>
<trkpt lat="33.810169" lon="-118.3938862">
  <ele>0.572</ele>
  <time>2026-09-02T22:13:04Z</time>
  <course>187.25</course>
  <speed>1.6297545827516484</speed>
  <fix>3d</fix>
</trkpt>
<trkpt lat="33.8101709" lon="-118.3938675">
  <ele>2.4</ele>
  <time>2026-09-02T22:13:04Z</time>
  <course>189.96</course>
  <speed>1.73</speed>
  <fix>3d</fix>
</trkpt>
<trkpt lat="33.8101675" lon="-118.3938864">
  <ele>0.573</ele>
  <time>2026-09-02T22:13:04Z</time>
  <course>187.26</course>
  <speed>1.527776161615307</speed>
  <fix>3d</fix>
</trkpt>
<trkpt lat="33.8101695" lon="-118.3938691">
  <ele>2.4</ele>
  <time>2026-09-02T22:13:04Z</time>
  <course>189.9</course>
  <speed>1.69</speed>
  <fix>3d</fix>
</trkpt>
<trkpt lat="33.8101662" lon="-118.3938867">
  <ele>0.573</ele>
  <time>2026-09-02T22:13:04Z</time>
  <course>187.26</course>
  <speed>1.3865424623862048</speed>
  <fix>3d</fix>
</trkpt>
<trkpt lat="33.8101695" lon="-118.3938691">
  <ele>2.4</ele>
  <time>2026-09-02T22:13:04Z</time>
  <course>189.9</course>
  <speed>1.69</speed>
  <fix>3d</fix>
</trkpt>
<trkpt lat="33.8101649" lon="-118.3938869">
  <ele>0.572</ele>
  <time>2026-09-02T22:13:04Z</time>
  <course>187.27</course>
  <speed>1.2159769734661918</speed>
  <fix>3d</fix>
</trkpt>
<trkpt lat="33.8101681" lon="-118.3938709">
  <ele>2.4</ele>
  <time>2026-09-02T22:13:04Z</time>
  <course>190.08</course>
  <speed>1.51</speed>
  <fix>3d</fix>
</trkpt>
<trkpt lat="33.8101638" lon="-118.3938871">
  <ele>0.569</ele>
  <time>2026-09-02T22:13:04Z</time>
  <course>187.27</course>
  <speed>1.0630145812734648</speed>
  <fix>3d</fix>
</trkpt>
<trkpt lat="33.8101681" lon="-118.3938709">
  <ele>2.4</ele>
  <time>2026-09-02T22:13:04Z</time>
  <course>190.08</course>
  <speed>1.51</speed>
  <fix>3d</fix>
</trkpt>
<trkpt lat="33.8101628" lon="-118.3938873">
  <ele>0.554</ele>
  <time>2026-09-02T22:13:04Z</time>
  <course>187.29</course>
  <speed>0.9002777349240623</speed>
  <fix>3d</fix>
</trkpt>
<trkpt lat="33.8101671" lon="-118.3938728">
  <ele>2.39</ele>
  <time>2026-09-02T22:13:04Z</time>
  <course>190.54</course>
  <speed>1.21</speed>
  <fix>3d</fix>
</trkpt>
<trkpt lat="33.8101619" lon="-118.3938875">
  <ele>0.52</ele>
  <time>2026-09-02T22:13:04Z</time>
  <course>187.3</course>
  <speed>0.757099729229908</speed>
  <fix>3d</fix>
</trkpt>
<trkpt lat="33.8101671" lon="-118.3938728">
  <ele>2.39</ele>
  <time>2026-09-02T22:13:04Z</time>
  <course>190.54</course>
  <speed>1.21</speed>
  <fix>3d</fix>
</trkpt>
<trkpt lat="33.8101619" lon="-118.3938875">
  <ele>0.518</ele>
  <time>2026-09-02T22:13:04Z</time>
  <course>187.3</course>
  <speed>0.757099729229908</speed>
  <fix>3d</fix>
</trkpt>
<trkpt lat="33.8101612" lon="-118.3938876">
  <ele>0.467</ele>
  <time>2026-09-02T22:13:04Z</time>
  <course>187.3</course>
  <speed>0.655133574166368</speed>
  <fix>3d</fix>
</trkpt>
<trkpt lat="33.8101665" lon="-118.3938748">
  <ele>2.35</ele>
  <time>2026-09-02T22:13:04Z</time>
  <course>190.87</course>
  <speed>0.9</speed>
  <fix>3d</fix>
</trkpt>
<trkpt lat="33.8101612" lon="-118.3938876">
  <ele>0.465</ele>
  <time>2026-09-02T22:13:04Z</time>
  <course>187.3</course>
  <speed>0.655133574166368</speed>
  <fix>3d</fix>
</trkpt>
<trkpt lat="33.8101605" lon="-118.3938878">
  <ele>0.4</ele>
  <time>2026-09-02T22:13:04Z</time>
  <course>187.3</course>
  <speed>0.5727128425310541</speed>
  <fix>3d</fix>
</trkpt>
<trkpt lat="33.8101665" lon="-118.3938748">
  <ele>2.35</ele>
  <time>2026-09-02T22:13:04Z</time>
  <course>190.87</course>
  <speed>0.9</speed>
  <fix>3d</fix>
</trkpt>
<trkpt lat="33.8101605" lon="-118.3938878">
  <ele>0.398</ele>
  <time>2026-09-02T22:13:04Z</time>
  <course>187.3</course>
  <speed>0.5629387178015027</speed>
  <fix>3d</fix>
</trkpt>
<trkpt lat="33.8101599" lon="-118.393888">
  <ele>0.323</ele>
  <time>2026-09-02T22:13:04Z</time>
  <course>187.31</course>
  <speed>0.5000999900019995</speed>
  <fix>3d</fix>
</trkpt>
<trkpt lat="33.8101663" lon="-118.3938767">
  <ele>2.26</ele>
  <time>2026-09-02T22:13:04Z</time>
  <course>190.34</course>
  <speed>0.65</speed>
  <fix>3d</fix>
</trkpt>
<trkpt lat="33.8101599" lon="-118.393888">
  <ele>0.32</ele>
  <time>2026-09-02T22:13:04Z</time>
  <course>187.31</course>
  <speed>0.498196748283246</speed>
  <fix>3d</fix>
</trkpt>
<trkpt lat="33.8101594" lon="-118.3938881">
  <ele>0.238</ele>
  <time>2026-09-02T22:13:04Z</time>
  <course>187.3</course>
  <speed>0.4373785545725808</speed>
  <fix>3d</fix>
</trkpt>
<trkpt lat="33.8101663" lon="-118.3938767">
  <ele>2.26</ele>
  <time>2026-09-02T22:13:04Z</time>
  <course>190.34</course>
  <speed>0.65</speed>
  <fix>3d</fix>
</trkpt>
<trkpt lat="33.8101594" lon="-118.3938881">
  <ele>0.235</ele>
  <time>2026-09-02T22:13:04Z</time>
  <course>187.3</course>
  <speed>0.4373785545725808</speed>
  <fix>3d</fix>
</trkpt>
<trkpt lat="33.8101589" lon="-118.3938882">
  <ele>0.148</ele>
  <time>2026-09-02T22:13:04Z</time>
  <course>187.3</course>
  <speed>0.38470768123342686</speed>
  <fix>3d</fix>
</trkpt>
<trkpt lat="33.8101663" lon="-118.3938787">
  <ele>2.11</ele>
  <time>2026-09-02T22:13:04Z</time>
  <course>188.83</course>
  <speed>0.49</speed>
  <fix>3d</fix>
</trkpt>
<trkpt lat="33.8101589" lon="-118.3938882">
  <ele>0.145</ele>
  <time>2026-09-02T22:13:04Z</time>
  <course>187.3</course>
  <speed>0.37483329627982626</speed>
  <fix>3d</fix>
</trkpt>
<trkpt lat="33.8101585" lon="-118.3938883">
  <ele>0.055</ele>
  <time>2026-09-02T22:13:04Z</time>
  <course>187.3</course>
  <speed>0.33376638536557274</speed>
  <fix>3d</fix>
</trkpt>
<trkpt lat="33.8101663" lon="-118.3938787">
  <ele>2.11</ele>
  <time>2026-09-02T22:13:04Z</time>
  <course>188.83</course>
  <speed>0.49</speed>
  <fix>3d</fix>
</trkpt>
<trkpt lat="33.8101585" lon="-118.3938883">
  <ele>0.052</ele>
  <time>2026-09-02T22:13:04Z</time>
  <course>187.3</course>
  <speed>0.33376638536557274</speed>
  <fix>3d</fix>
</trkpt>
<trkpt lat="33.8101582" lon="-118.3938884">
  <ele>-0.039</ele>
  <time>2026-09-02T22:13:04Z</time>
  <course>187.29</course>
  <speed>0.29274562336608895</speed>
  <fix>3d</fix>
</trkpt>
<trkpt lat="33.8101663" lon="-118.3938808">
  <ele>1.94</ele>
  <time>2026-09-02T22:13:04Z</time>
  <course>186.75</course>
  <speed>0.37</speed>
  <fix>3d</fix>
</trkpt>
<trkpt lat="33.8101582" lon="-118.3938884">
  <ele>-0.041</ele>
  <time>2026-09-02T22:13:04Z</time>
  <course>187.29</course>
  <speed>0.29274562336608895</speed>
  <fix>3d</fix>
</trkpt>
<trkpt lat="33.8101578" lon="-118.3938885">
  <ele>-0.135</ele>
  <time>2026-09-02T22:13:04Z</time>
  <course>187.28</course>
  <speed>0.26305892875931813</speed>
  <fix>3d</fix>
</trkpt>
<trkpt lat="33.8101663" lon="-118.3938808">
  <ele>1.94</ele>
  <time>2026-09-02T22:13:04Z</time>
  <course>186.75</course>
  <speed>0.37</speed>
  <fix>3d</fix>
</trkpt>
<trkpt lat="33.8101578" lon="-118.3938885">
  <ele>-0.137</ele>
  <time>2026-09-02T22:13:04Z</time>
  <course>187.28</course>
  <speed>0.25317977802344327</speed>
  <fix>3d</fix>
</trkpt>
<trkpt lat="33.8101576" lon="-118.3938886">
  <ele>-0.23</ele>
  <time>2026-09-02T22:13:04Z</time>
  <course>187.28</course>
  <speed>0.2220360331117452</speed>
  <fix>3d</fix>
</trkpt>
<trkpt lat="33.8101665" lon="-118.3938828">
  <ele>1.76</ele>
  <time>2026-09-02T22:13:04Z</time>
  <course>184.9</course>
  <speed>0.28</speed>
  <fix>3d</fix>
</trkpt>
<trkpt lat="33.8101576" lon="-118.3938886">
  <ele>-0.233</ele>
  <time>2026-09-02T22:13:04Z</time>
  <course>187.28</course>
  <speed>0.2220360331117452</speed>
  <fix>3d</fix>
</trkpt>
<trkpt lat="33.8101573" lon="-118.3938886">
  <ele>-0.327</ele>
  <time>2026-09-02T22:13:04Z</time>
  <course>187.3</course>
  <speed>0.2002498439450079</speed>
  <fix>3d</fix>
</trkpt>
<trkpt lat="33.8101665" lon="-118.3938828">
  <ele>1.76</ele>
  <time>2026-09-02T22:13:04Z</time>
  <course>184.9</course>
  <speed>0.28</speed>
  <fix>3d</fix>
</trkpt>
<trkpt lat="33.8101573" lon="-118.3938886">
  <ele>-0.329</ele>
  <time>2026-09-02T22:13:04Z</time>
  <course>187.3</course>
  <speed>0.2002498439450079</speed>
  <fix>3d</fix>
</trkpt>
<trkpt lat="33.8101571" lon="-118.3938886">
  <ele>-0.424</ele>
  <time>2026-09-02T22:13:04Z</time>
  <course>187.31</course>
  <speed>0.17029386365926402</speed>
  <fix>3d</fix>
</trkpt>
<trkpt lat="33.8101665" lon="-118.3938849">
  <ele>1.57</ele>
  <time>2026-09-02T22:13:04Z</time>
  <course>181.45</course>
  <speed>0.21</speed>
  <fix>3d</fix>
</trkpt>
<trkpt lat="33.8101571" lon="-118.3938886">
  <ele>-0.427</ele>
  <time>2026-09-02T22:13:04Z</time>
  <course>187.31</course>
  <speed>0.17029386365926402</speed>
  <fix>3d</fix>
</trkpt>
<trkpt lat="33.8101569" lon="-118.3938886">
  <ele>-0.523</ele>
  <time>2026-09-02T22:13:04Z</time>
  <course>187.3</course>
  <speed>0.14</speed>
  <fix>3d</fix>
</trkpt>
<trkpt lat="33.8101665" lon="-118.3938849">
  <ele>1.57</ele>
  <time>2026-09-02T22:13:04Z</time>
  <course>181.45</course>
  <speed>0.21</speed>
  <fix>3d</fix>
</trkpt>
<trkpt lat="33.8101569" lon="-118.3938886">
  <ele>-0.525</ele>
  <time>2026-09-02T22:13:04Z</time>
  <course>187.3</course>
  <speed>0.14</speed>
  <fix>3d</fix>
</trkpt>
<trkpt lat="33.8101568" lon="-118.3938886">
  <ele>-0.622</ele>
  <time>2026-09-02T22:13:04Z</time>
  <course>187.3</course>
  <speed>0.11</speed>
  <fix>3d</fix>
</trkpt>
<trkpt lat="33.8101665" lon="-118.393887">
  <ele>1.38</ele>
  <time>2026-09-02T22:13:04Z</time>
  <course>174.62</course>
  <speed>0.15</speed>
  <fix>3d</fix>
</trkpt>
<trkpt lat="33.8101568" lon="-118.3938886">
  <ele>-0.624</ele>
  <time>2026-09-02T22:13:04Z</time>
  <course>187.3</course>
  <speed>0.11</speed>
  <fix>3d</fix>
</trkpt>
<trkpt lat="33.8101567" lon="-118.3938886">
  <ele>-0.721</ele>
  <time>2026-09-02T22:13:04Z</time>
  <course>187.29</course>
  <speed>0.09</speed>
  <fix>3d</fix>
</trkpt>
<trkpt lat="33.8101665" lon="-118.393887">
  <ele>1.38</ele>
  <time>2026-09-02T22:13:04Z</time>
  <course>174.62</course>
  <speed>0.15</speed>
  <fix>3d</fix>
</trkpt>
<trkpt lat="33.8101567" lon="-118.3938886">
  <ele>-0.726</ele>
  <time>2026-09-02T22:13:04Z</time>
  <course>187.29</course>
  <speed>0.08</speed>
  <fix>3d</fix>
</trkpt>
<trkpt lat="33.8101566" lon="-118.3938886">
  <ele>-0.821</ele>
  <time>2026-09-02T22:13:04Z</time>
  <course>187.29</course>
  <speed>0.06</speed>
  <fix>3d</fix>
</trkpt>
<trkpt lat="33.8101664" lon="-118.3938892">
  <ele>1.19</ele>
  <time>2026-09-02T22:13:04Z</time>
  <course>165.58</course>
  <speed>0.09</speed>
  <fix>3d</fix>
</trkpt>
<trkpt lat="33.8101566" lon="-118.3938886">
  <ele>-0.822</ele>
  <time>2026-09-02T22:13:04Z</time>
  <course>187.29</course>
  <speed>0.06</speed>
  <fix>3d</fix>
</trkpt>
<trkpt lat="33.8101565" lon="-118.3938886">
  <ele>-0.919</ele>
  <time>2026-09-02T22:13:04Z</time>
  <course>187.29</course>
  <speed>0.04</speed>
  <fix>3d</fix>
</trkpt>
<trkpt lat="33.8101664" lon="-118.3938892">
  <ele>1.19</ele>
  <time>2026-09-02T22:13:04Z</time>
  <course>165.58</course>
  <speed>0.09</speed>
  <fix>3d</fix>
</trkpt>
<trkpt lat="33.8101565" lon="-118.3938886">
  <ele>-0.921</ele>
  <time>2026-09-02T22:13:04Z</time>
  <course>187.29</course>
  <speed>0.04</speed>
  <fix>3d</fix>
</trkpt>
<trkpt lat="33.8101565" lon="-118.3938886">
  <ele>-1.017</ele>
  <time>2026-09-02T22:13:04Z</time>
  <course>187.29</course>
  <speed>0.02</speed>
  <fix>3d</fix>
</trkpt>
<trkpt lat="33.8101663" lon="-118.3938914">
  <ele>1.01</ele>
  <time>2026-09-02T22:13:04Z</time>
  <course>149.86</course>
  <speed>0.05</speed>
  <fix>3d</fix>
</trkpt>
<trkpt lat="33.8101565" lon="-118.3938886">
  <ele>-1.02</ele>
  <time>2026-09-02T22:13:04Z</time>
  <course>187.29</course>
  <speed>0.02</speed>
  <fix>3d</fix>
</trkpt>
<trkpt lat="33.8101564" lon="-118.3938886">
  <ele>-1.115</ele>
  <time>2026-09-02T22:13:04Z</time>
  <course>187.28</course>
  <speed>0.01</speed>
  <fix>3d</fix>
</trkpt>
<trkpt lat="33.8101663" lon="-118.3938914">
  <ele>1.01</ele>
  <time>2026-09-02T22:13:04Z</time>
  <course>149.86</course>
  <speed>0.05</speed>
  <fix>3d</fix>
</trkpt>
<trkpt lat="33.8101564" lon="-118.3938886">
  <ele>-1.117</ele>
  <time>2026-09-02T22:13:04Z</time>
  <course>187.28</course>
  <speed>0.01</speed>
  <fix>3d</fix>
</trkpt>
<trkpt lat="33.8101564" lon="-118.3938886">
  <ele>-1.213</ele>
  <time>2026-09-02T22:13:04Z</time>
  <course>187.29</course>
  <speed>0.0</speed>
  <fix>3d</fix>
</trkpt>
<trkpt lat="33.810166" lon="-118.3938935">
  <ele>0.81</ele>
  <time>2026-09-02T22:13:04Z</time>
  <course>108.64</course>
  <speed>0.02</speed>
  <fix>3d</fix>
</trkpt>
<trkpt lat="33.8101564" lon="-118.3938886">
  <ele>-1.215</ele>
  <time>2026-09-02T22:13:04Z</time>
  <course>187.29</course>
  <speed>0.0</speed>
  <fix>3d</fix>
</trkpt>
<trkpt lat="33.8101564" lon="-118.3938886">
  <ele>-1.311</ele>
  <time>2026-09-02T22:13:04Z</time>
  <course>187.32</course>
  <speed>0.0</speed>
  <fix>3d</fix>
</trkpt>
<trkpt lat="33.810166" lon="-118.3938935">
  <ele>0.81</ele>
  <time>2026-09-02T22:13:04Z</time>
  <course>108.64</course>
  <speed>0.02</speed>
  <fix>3d</fix>
</trkpt>
<trkpt lat="33.8101564" lon="-118.3938886">
  <ele>-1.313</ele>
  <time>2026-09-02T22:13:04Z</time>
  <course>187.32</course>
  <speed>0.0</speed>
  <fix>3d</fix>
</trkpt>
<trkpt lat="33.8101565" lon="-118.3938886">
  <ele>-1.409</ele>
  <time>2026-09-02T22:13:04Z</time>
  <course>187.33</course>
  <speed>0.01414213562373095</speed>
  <fix>3d</fix>
</trkpt>
<trkpt lat="33.8101656" lon="-118.3938955">
  <ele>0.62</ele>
  <time>2026-09-02T22:13:04Z</time>
  <course>45.65</course>
  <speed>0.02</speed>
  <fix>3d</fix>
</trkpt>
<trkpt lat="33.8101565" lon="-118.3938886">
  <ele>-1.413</ele>
  <time>2026-09-02T22:13:04Z</time>
  <course>187.33</course>
  <speed>0.01414213562373095</speed>
  <fix>3d</fix>
</trkpt>
<trkpt lat="33.8101565" lon="-118.3938886">
  <ele>-1.509</ele>
  <time>2026-09-02T22:13:04Z</time>
  <course>187.29</course>
  <speed>0.01414213562373095</speed>
  <fix>3d</fix>
</trkpt>
<trkpt lat="33.8101656" lon="-118.3938955">
  <ele>0.62</ele>
  <time>2026-09-02T22:13:04Z</time>
  <course>45.65</course>
  <speed>0.02</speed>
  <fix>3d</fix>
</trkpt>
<trkpt lat="33.8101565" lon="-118.3938886">
  <ele>-1.512</ele>
  <time>2026-09-02T22:13:04Z</time>
  <course>187.29</course>
  <speed>0.01414213562373095</speed>
  <fix>3d</fix>
</trkpt>
<trkpt lat="33.8101565" lon="-118.3938886">
  <ele>-1.607</ele>
  <time>2026-09-02T22:13:04Z</time>
  <course>187.24</course>
  <speed>0.01414213562373095</speed>
  <fix>3d</fix>
</trkpt>
<trkpt lat="33.8101651" lon="-118.3938976">
  <ele>0.43</ele>
  <time>2026-09-02T22:13:04Z</time>
  <course>16.77</course>
  <speed>0.02</speed>
  <fix>3d</fix>
</trkpt>
<trkpt lat="33.8101565" lon="-118.3938886">
  <ele>-1.61</ele>
  <time>2026-09-02T22:13:04Z</time>
  <course>187.24</course>
  <speed>0.01414213562373095</speed>
  <fix>3d</fix>
</trkpt>
<trkpt lat="33.8101565" lon="-118.3938886">
  <ele>-1.705</ele>
  <time>2026-09-02T22:13:04Z</time>
  <course>187.21</course>
  <speed>0.022360679774997897</speed>
  <fix>3d</fix>
</trkpt>
<trkpt lat="33.8101651" lon="-118.3938976">
  <ele>0.43</ele>
  <time>2026-09-02T22:13:04Z</time>
  <course>16.77</course>
  <speed>0.02</speed>
  <fix>3d</fix>
</trkpt>
<trkpt lat="33.8101565" lon="-118.3938886">
  <ele>-1.708</ele>
  <time>2026-09-02T22:13:04Z</time>
  <course>187.21</course>
  <speed>0.022360679774997897</speed>
  <fix>3d</fix>
</trkpt>
<trkpt lat="33.8101566" lon="-118.3938885">
  <ele>-1.803</ele>
  <time>2026-09-02T22:13:04Z</time>
  <course>187.19</course>
  <speed>0.022360679774997897</speed>
  <fix>3d</fix>
</trkpt>
<trkpt lat="33.8101645" lon="-118.3938996">
  <ele>0.24</ele>
  <time>2026-09-02T22:13:04Z</time>
  <course>9.2</course>
  <speed>0.03</speed>
  <fix>3d</fix>
</trkpt>
<trkpt lat="33.8101566" lon="-118.3938885">
  <ele>-1.808</ele>
  <time>2026-09-02T22:13:04Z</time>
  <course>187.19</course>
  <speed>0.022360679774997897</speed>
  <fix>3d</fix>
</trkpt>
<trkpt lat="33.8101566" lon="-118.3938885">
  <ele>-1.901</ele>
  <time>2026-09-02T22:13:04Z</time>
  <course>187.17</course>
  <speed>0.022360679774997897</speed>
  <fix>3d</fix>
</trkpt>
<trkpt lat="33.8101645" lon="-118.3938996">
  <ele>0.24</ele>
  <time>2026-09-02T22:13:04Z</time>
  <course>9.2</course>
  <speed>0.03</speed>
  <fix>3d</fix>
</trkpt>
<trkpt lat="33.8101566" lon="-118.3938885">
  <ele>-1.903</ele>
  <time>2026-09-02T22:13:04Z</time>
  <course>187.17</course>
  <speed>0.022360679774997897</speed>
  <fix>3d</fix>
</trkpt>
<trkpt lat="33.8101566" lon="-118.3938885">
  <ele>-1.998</ele>
  <time>2026-09-02T22:13:04Z</time>
  <course>187.14</course>
  <speed>0.022360679774997897</speed>
  <fix>3d</fix>
</trkpt>
<trkpt lat="33.8101636" lon="-118.3939014">
  <ele>0.05</ele>
  <time>2026-09-02T22:13:04Z</time>
  <course>8.49</course>
  <speed>0.03</speed>
  <fix>3d</fix>
</trkpt>
<trkpt lat="33.8101566" lon="-118.3938885">
  <ele>-2.0</ele>
  <time>2026-09-02T22:13:04Z</time>
  <course>187.14</course>
  <speed>0.022360679774997897</speed>
  <fix>3d</fix>
</trkpt>
<trkpt lat="33.8101567" lon="-118.3938885">
  <ele>-2.094</ele>
  <time>2026-09-02T22:13:04Z</time>
  <course>187.12</course>
  <speed>0.022360679774997897</speed>
  <fix>3d</fix>
</trkpt>
<trkpt lat="33.8101636" lon="-118.3939014">
  <ele>0.05</ele>
  <time>2026-09-02T22:13:04Z</time>
  <course>8.49</course>
  <speed>0.03</speed>
  <fix>3d</fix>
</trkpt>
<trkpt lat="33.8101567" lon="-118.3938885">
  <ele>-2.097</ele>
  <time>2026-09-02T22:13:04Z</time>
  <course>187.12</course>
  <speed>0.022360679774997897</speed>
  <fix>3d</fix>
</trkpt>
<trkpt lat="33.8101567" lon="-118.3938884">
  <ele>-2.189</ele>
  <time>2026-09-02T22:13:04Z</time>
  <course>187.1</course>
  <speed>0.022360679774997897</speed>
  <fix>3d</fix>
</trkpt>
<trkpt lat="33.8101626" lon="-118.3939032">
  <ele>-0.12</ele>
  <time>2026-09-02T22:13:04Z</time>
  <course>8.47</course>
  <speed>0.02</speed>
  <fix>3d</fix>
</trkpt>
<trkpt lat="33.8101567" lon="-118.3938884">
  <ele>-2.192</ele>
  <time>2026-09-02T22:13:04Z</time>
  <course>187.1</course>
  <speed>0.022360679774997897</speed>
  <fix>3d</fix>
</trkpt>
<trkpt lat="33.8101567" lon="-118.3938884">
  <ele>-2.284</ele>
  <time>2026-09-02T22:13:04Z</time>
  <course>187.07</course>
  <speed>0.022360679774997897</speed>
  <fix>3d</fix>
</trkpt>
<trkpt lat="33.8101626" lon="-118.3939032">
  <ele>-0.12</ele>
  <time>2026-09-02T22:13:04Z</time>
  <course>8.47</course>
  <speed>0.02</speed>
  <fix>3d</fix>
</trkpt>
<trkpt lat="33.8101567" lon="-118.3938884">
  <ele>-2.286</ele>
  <time>2026-09-02T22:13:04Z</time>
  <course>187.07</course>
  <speed>0.022360679774997897</speed>
  <fix>3d</fix>
</trkpt>
<trkpt lat="33.8101567" lon="-118.3938884">
  <ele>-2.379</ele>
  <time>2026-09-02T22:13:04Z</time>
  <course>187.05</course>
  <speed>0.022360679774997897</speed>
  <fix>3d</fix>
</trkpt>
<trkpt lat="33.8101614" lon="-118.3939048">
  <ele>-0.32</ele>
  <time>2026-09-02T22:13:04Z</time>
  <course>8.4</course>
  <speed>0.02</speed>
  <fix>3d</fix>
</trkpt>
<trkpt lat="33.8101567" lon="-118.3938884">
  <ele>-2.381</ele>
  <time>2026-09-02T22:13:04Z</time>
  <course>187.05</course>
  <speed>0.022360679774997897</speed>
  <fix>3d</fix>
</trkpt>
<trkpt lat="33.8101567" lon="-118.3938884">
  <ele>-2.474</ele>
  <time>2026-09-02T22:13:04Z</time>
  <course>187.03</course>
  <speed>0.022360679774997897</speed>
  <fix>3d</fix>
</trkpt>
<trkpt lat="33.8101614" lon="-118.3939048">
  <ele>-0.32</ele>
  <time>2026-09-02T22:13:04Z</time>
  <course>8.4</course>
  <speed>0.02</speed>
  <fix>3d</fix>
</trkpt>
<trkpt lat="33.8101567" lon="-118.3938884">
  <ele>-2.476</ele>
  <time>2026-09-02T22:13:04Z</time>
  <course>187.03</course>
  <speed>0.022360679774997897</speed>
  <fix>3d</fix>
</trkpt>
<trkpt lat="33.8101567" lon="-118.3938884">
  <ele>-2.57</ele>
  <time>2026-09-02T22:13:04Z</time>
  <course>187.02</course>
  <speed>0.022360679774997897</speed>
  <fix>3d</fix>
</trkpt>
<trkpt lat="33.8101601" lon="-118.3939063">
  <ele>-0.51</ele>
  <time>2026-09-02T22:13:04Z</time>
  <course>8.29</course>
  <speed>0.02</speed>
  <fix>3d</fix>
</trkpt>
<trkpt lat="33.8101567" lon="-118.3938884">
  <ele>-2.573</ele>
  <time>2026-09-02T22:13:04Z</time>
  <course>187.02</course>
  <speed>0.022360679774997897</speed>
  <fix>3d</fix>
</trkpt>
<trkpt lat="33.8101568" lon="-118.3938883">
  <ele>-2.668</ele>
  <time>2026-09-02T22:13:04Z</time>
  <course>187.09</course>
  <speed>0.022360679774997897</speed>
  <fix>3d</fix>
</trkpt>
<trkpt lat="33.8101601" lon="-118.3939063">
  <ele>-0.51</ele>
  <time>2026-09-02T22:13:04Z</time>
  <course>8.29</course>
  <speed>0.02</speed>
  <fix>3d</fix>
</trkpt>
<trkpt lat="33.8101568" lon="-118.3938883">
  <ele>-2.669</ele>
  <time>2026-09-02T22:13:04Z</time>
  <course>187.09</course>
  <speed>0.022360679774997897</speed>
  <fix>3d</fix>
</trkpt>
<trkpt lat="33.8101568" lon="-118.3938883">
  <ele>-2.765</ele>
  <time>2026-09-02T22:13:04Z</time>
  <course>187.22</course>
  <speed>0.022360679774997897</speed>
  <fix>3d</fix>
</trkpt>
<trkpt lat="33.8101588" lon="-118.3939075">
  <ele>-0.7</ele>
  <time>2026-09-02T22:13:04Z</time>
  <course>5.2</course>
  <speed>0.02</speed>
  <fix>3d</fix>
</trkpt>
<trkpt lat="33.8101568" lon="-118.3938883">
  <ele>-2.766</ele>
  <time>2026-09-02T22:13:04Z</time>
  <course>187.22</course>
  <speed>0.022360679774997897</speed>
  <fix>3d</fix>
</trkpt>
<trkpt lat="33.8101568" lon="-118.3938883">
  <ele>-2.862</ele>
  <time>2026-09-02T22:13:04Z</time>
  <course>187.3</course>
  <speed>0.0282842712474619</speed>
  <fix>3d</fix>
</trkpt>
<trkpt lat="33.8101588" lon="-118.3939075">
  <ele>-0.7</ele>
  <time>2026-09-02T22:13:04Z</time>
  <course>5.2</course>
  <speed>0.02</speed>
  <fix>3d</fix>
</trkpt>
<trkpt lat="33.8101568" lon="-118.3938883">
  <ele>-2.863</ele>
  <time>2026-09-02T22:13:04Z</time>
  <course>187.31</course>
  <speed>0.0282842712474619</speed>
  <fix>3d</fix>
</trkpt>
<trkpt lat="33.8101568" lon="-118.3938883">
  <ele>-2.959</ele>
  <time>2026-09-02T22:13:04Z</time>
  <course>187.34</course>
  <speed>0.0282842712474619</speed>
  <fix>3d</fix>
</trkpt>
<trkpt lat="33.8101573" lon="-118.3939087">
  <ele>-0.9</ele>
  <time>2026-09-02T22:13:04Z</time>
  <course>355.8</course>
  <speed>0.02</speed>
  <fix>3d</fix>
</trkpt>
<trkpt lat="33.8101568" lon="-118.3938883">
  <ele>-2.96</ele>
  <time>2026-09-02T22:13:04Z</time>
  <course>187.34</course>
  <speed>0.0282842712474619</speed>
  <fix>3d</fix>
</trkpt>
<trkpt lat="33.8101569" lon="-118.3938883">
  <ele>-3.058</ele>
  <time>2026-09-02T22:13:04Z</time>
  <course>187.36</course>
  <speed>0.0282842712474619</speed>
  <fix>3d</fix>
</trkpt>
<trkpt lat="33.8101573" lon="-118.3939087">
  <ele>-0.9</ele>
  <time>2026-09-02T22:13:04Z</time>
  <course>355.8</course>
  <speed>0.02</speed>
  <fix>3d</fix>
</trkpt>
<trkpt lat="33.8101569" lon="-118.3938883">
  <ele>-3.06</ele>
  <time>2026-09-02T22:13:04Z</time>
  <course>187.36</course>
  <speed>0.0282842712474619</speed>
  <fix>3d</fix>
</trkpt>
<trkpt lat="33.8101569" lon="-118.3938883">
  <ele>-3.157</ele>
  <time>2026-09-02T22:13:04Z</time>
  <course>187.37</course>
  <speed>0.0282842712474619</speed>
  <fix>3d</fix>
</trkpt>
<trkpt lat="33.8101557" lon="-118.3939096">
  <ele>-1.1</ele>
  <time>2026-09-02T22:13:04Z</time>
  <course>339.51</course>
  <speed>0.01</speed>
  <fix>3d</fix>
</trkpt>
<trkpt lat="33.8101569" lon="-118.3938883">
  <ele>-3.159</ele>
  <time>2026-09-02T22:13:04Z</time>
  <course>187.37</course>
  <speed>0.0282842712474619</speed>
  <fix>3d</fix>
</trkpt>
<trkpt lat="33.8101569" lon="-118.3938883">
  <ele>-3.256</ele>
  <time>2026-09-02T22:13:04Z</time>
  <course>187.37</course>
  <speed>0.03605551275463989</speed>
  <fix>3d</fix>
</trkpt>
<trkpt lat="33.8101557" lon="-118.3939096">
  <ele>-1.1</ele>
  <time>2026-09-02T22:13:04Z</time>
  <course>339.51</course>
  <speed>0.01</speed>
  <fix>3d</fix>
</trkpt>
<trkpt lat="33.8101569" lon="-118.3938883">
  <ele>-3.258</ele>
  <time>2026-09-02T22:13:04Z</time>
  <course>187.37</course>
  <speed>0.03605551275463989</speed>
  <fix>3d</fix>
</trkpt>
<trkpt lat="33.8101569" lon="-118.3938883">
  <ele>-3.355</ele>
  <time>2026-09-02T22:13:04Z</time>
  <course>187.37</course>
  <speed>0.0316227766016838</speed>
  <fix>3d</fix>
</trkpt>
<trkpt lat="33.8101541" lon="-118.3939104">
  <ele>-1.3</ele>
  <time>2026-09-02T22:13:04Z</time>
  <course>320.01</course>
  <speed>0.01</speed>
  <fix>3d</fix>
</trkpt>
<trkpt lat="33.8101569" lon="-118.3938883">
  <ele>-3.357</ele>
  <time>2026-09-02T22:13:04Z</time>
  <course>187.37</course>
  <speed>0.0316227766016838</speed>
  <fix>3d</fix>
</trkpt>
<trkpt lat="33.8101569" lon="-118.3938883">
  <ele>-3.454</ele>
  <time>2026-09-02T22:13:04Z</time>
  <course>187.37</course>
  <speed>0.0316227766016838</speed>
  <fix>3d</fix>
</trkpt>
<trkpt lat="33.8101541" lon="-118.3939104">
  <ele>-1.3</ele>
  <time>2026-09-02T22:13:04Z</time>
  <course>320.01</course>
  <speed>0.01</speed>
  <fix>3d</fix>
</trkpt>
<trkpt lat="33.8101569" lon="-118.3938883">
  <ele>-3.457</ele>
  <time>2026-09-02T22:13:04Z</time>
  <course>187.37</course>
  <speed>0.0316227766016838</speed>
  <fix>3d</fix>
</trkpt>
<trkpt lat="33.8101569" lon="-118.3938883">
  <ele>-3.553</ele>
  <time>2026-09-02T22:13:04Z</time>
  <course>187.37</course>
  <speed>0.03605551275463989</speed>
  <fix>3d</fix>
</trkpt>
<trkpt lat="33.8101523" lon="-118.3939109">
  <ele>-1.5</ele>
  <time>2026-09-02T22:13:04Z</time>
  <course>307.83</course>
  <speed>0.01</speed>
  <fix>3d</fix>
</trkpt>
<trkpt lat="33.8101569" lon="-118.3938883">
  <ele>-3.557</ele>
  <time>2026-09-02T22:13:04Z</time>
  <course>187.37</course>
  <speed>0.03605551275463989</speed>
  <fix>3d</fix>
</trkpt>
<trkpt lat="33.8101569" lon="-118.3938883">
  <ele>-3.653</ele>
  <time>2026-09-02T22:13:04Z</time>
  <course>187.37</course>
  <speed>0.03605551275463989</speed>
  <fix>3d</fix>
</trkpt>
<trkpt lat="33.8101523" lon="-118.3939109">
  <ele>-1.5</ele>
  <time>2026-09-02T22:13:04Z</time>
  <course>307.83</course>
  <speed>0.01</speed>
  <fix>3d</fix>
</trkpt>
<trkpt lat="33.810157" lon="-118.3938883">
  <ele>-3.657</ele>
  <time>2026-09-02T22:13:04Z</time>
  <course>187.37</course>
  <speed>0.03605551275463989</speed>
  <fix>3d</fix>
</trkpt>
<trkpt lat="33.810157" lon="-118.3938883">
  <ele>-3.753</ele>
  <time>2026-09-02T22:13:04Z</time>
  <course>187.37</course>
  <speed>0.03605551275463989</speed>
  <fix>3d</fix>
</trkpt>
<trkpt lat="33.8101506" lon="-118.3939113">
  <ele>-1.7</ele>
  <time>2026-09-02T22:13:04Z</time>
  <course>303.37</course>
  <speed>0.01</speed>
  <fix>3d</fix>
</trkpt>
<trkpt lat="33.810157" lon="-118.3938883">
  <ele>-3.756</ele>
  <time>2026-09-02T22:13:05Z</time>
  <course>187.37</course>
  <speed>0.03605551275463989</speed>
  <fix>3d</fix>
</trkpt>
<trkpt lat="33.810157" lon="-118.3938883">
  <ele>-3.852</ele>
  <time>2026-09-02T22:13:05Z</time>
  <course>187.38</course>
  <speed>0.03605551275463989</speed>
  <fix>3d</fix>
</trkpt>
<trkpt lat="33.8101506" lon="-118.3939113">
  <ele>-1.7</ele>
  <time>2026-09-02T22:13:05Z</time>
  <course>303.37</course>
  <speed>0.01</speed>
  <fix>3d</fix>
</trkpt>
<trkpt lat="33.810157" lon="-118.3938883">
  <ele>-3.854</ele>
  <time>2026-09-02T22:13:05Z</time>
  <course>187.38</course>
  <speed>0.03605551275463989</speed>
  <fix>3d</fix>
</trkpt>
<trkpt lat="33.810157" lon="-118.3938883">
  <ele>-3.951</ele>
  <time>2026-09-02T22:13:05Z</time>
  <course>187.38</course>
  <speed>0.03605551275463989</speed>
  <fix>3d</fix>
</trkpt>
<trkpt lat="33.8101488" lon="-118.3939114">
  <ele>-1.89</ele>
  <time>2026-09-02T22:13:05Z</time>
  <course>302.04</course>
  <speed>0.01</speed>
  <fix>3d</fix>
</trkpt>
<trkpt lat="33.810157" lon="-118.3938883">
  <ele>-3.953</ele>
  <time>2026-09-02T22:13:05Z</time>
  <course>187.38</course>
  <speed>0.03605551275463989</speed>
  <fix>3d</fix>
</trkpt>
<trkpt lat="33.810157" lon="-118.3938883">
  <ele>-4.049</ele>
  <time>2026-09-02T22:13:05Z</time>
  <course>187.38</course>
  <speed>0.03605551275463989</speed>
  <fix>3d</fix>
</trkpt>
<trkpt lat="33.8101488" lon="-118.3939114">
  <ele>-1.89</ele>
  <time>2026-09-02T22:13:05Z</time>
  <course>302.04</course>
  <speed>0.01</speed>
  <fix>3d</fix>
</trkpt>
<trkpt lat="33.810157" lon="-118.3938883">
  <ele>-4.054</ele>
  <time>2026-09-02T22:13:05Z</time>
  <course>187.38</course>
  <speed>0.03605551275463989</speed>
  <fix>3d</fix>
</trkpt>
<trkpt lat="33.810157" lon="-118.3938883">
  <ele>-4.146</ele>
  <time>2026-09-02T22:13:05Z</time>
  <course>187.38</course>
  <speed>0.03605551275463989</speed>
  <fix>3d</fix>
</trkpt>
<trkpt lat="33.8101471" lon="-118.3939114">
  <ele>-2.09</ele>
  <time>2026-09-02T22:13:05Z</time>
  <course>302.2</course>
  <speed>0.01</speed>
  <fix>3d</fix>
</trkpt>
<trkpt lat="33.810157" lon="-118.3938883">
  <ele>-4.148</ele>
  <time>2026-09-02T22:13:05Z</time>
  <course>187.38</course>
  <speed>0.03605551275463989</speed>
  <fix>3d</fix>
</trkpt>
<trkpt lat="33.810157" lon="-118.3938883">
  <ele>-4.242</ele>
  <time>2026-09-02T22:13:05Z</time>
  <course>187.38</course>
  <speed>0.03605551275463989</speed>
  <fix>3d</fix>
</trkpt>
<trkpt lat="33.8101471" lon="-118.3939114">
  <ele>-2.09</ele>
  <time>2026-09-02T22:13:05Z</time>
  <course>302.2</course>
  <speed>0.01</speed>
  <fix>3d</fix>
</trkpt>
<trkpt lat="33.810157" lon="-118.3938883">
  <ele>-4.245</ele>
  <time>2026-09-02T22:13:05Z</time>
  <course>187.38</course>
  <speed>0.03605551275463989</speed>
  <fix>3d</fix>
</trkpt>
<trkpt lat="33.810157" lon="-118.3938884">
  <ele>-4.34</ele>
  <time>2026-09-02T22:13:05Z</time>
  <course>187.38</course>
  <speed>0.03605551275463989</speed>
  <fix>3d</fix>
</trkpt>
<trkpt lat="33.8101453" lon="-118.3939111">
  <ele>-2.28</ele>
  <time>2026-09-02T22:13:05Z</time>
  <course>302.32</course>
  <speed>0.01</speed>
  <fix>3d</fix>
</trkpt>
<trkpt lat="33.810157" lon="-118.3938884">
  <ele>-4.342</ele>
  <time>2026-09-02T22:13:05Z</time>
  <course>187.38</course>
  <speed>0.03605551275463989</speed>
  <fix>3d</fix>
</trkpt>
<trkpt lat="33.810157" lon="-118.3938884">
  <ele>-4.438</ele>
  <time>2026-09-02T22:13:05Z</time>
  <course>187.38</course>
  <speed>0.03605551275463989</speed>
  <fix>3d</fix>
</trkpt>
<trkpt lat="33.8101453" lon="-118.3939111">
  <ele>-2.28</ele>
  <time>2026-09-02T22:13:05Z</time>
  <course>302.32</course>
  <speed>0.01</speed>
  <fix>3d</fix>
</trkpt>
<trkpt lat="33.810157" lon="-118.3938884">
  <ele>-4.441</ele>
  <time>2026-09-02T22:13:05Z</time>
  <course>187.38</course>
  <speed>0.03605551275463989</speed>
  <fix>3d</fix>
</trkpt>
<trkpt lat="33.8101571" lon="-118.3938884">
  <ele>-4.537</ele>
  <time>2026-09-02T22:13:05Z</time>
  <course>187.38</course>
  <speed>0.03605551275463989</speed>
  <fix>3d</fix>
</trkpt>
<trkpt lat="33.8101435" lon="-118.3939106">
  <ele>-2.48</ele>
  <time>2026-09-02T22:13:05Z</time>
  <course>302.42</course>
  <speed>0.01</speed>
  <fix>3d</fix>
</trkpt>
<trkpt lat="33.8101571" lon="-118.3938884">
  <ele>-4.54</ele>
  <time>2026-09-02T22:13:05Z</time>
  <course>187.38</course>
  <speed>0.03605551275463989</speed>
  <fix>3d</fix>
</trkpt>
<trkpt lat="33.8101571" lon="-118.3938884">
  <ele>-4.637</ele>
  <time>2026-09-02T22:13:05Z</time>
  <course>187.39</course>
  <speed>0.03605551275463989</speed>
  <fix>3d</fix>
</trkpt>
<trkpt lat="33.8101435" lon="-118.3939106">
  <ele>-2.48</ele>
  <time>2026-09-02T22:13:05Z</time>
  <course>302.42</course>
  <speed>0.01</speed>
  <fix>3d</fix>
</trkpt>
<trkpt lat="33.8101571" lon="-118.3938884">
  <ele>-4.639</ele>
  <time>2026-09-02T22:13:05Z</time>
  <course>187.39</course>
  <speed>0.03605551275463989</speed>
  <fix>3d</fix>
</trkpt>
<trkpt lat="33.8101571" lon="-118.3938884">
  <ele>-4.735</ele>
  <time>2026-09-02T22:13:05Z</time>
  <course>187.39</course>
  <speed>0.03605551275463989</speed>
  <fix>3d</fix>
</trkpt>
<trkpt lat="33.8101419" lon="-118.3939099">
  <ele>-2.68</ele>
  <time>2026-09-02T22:13:05Z</time>
  <course>302.55</course>
  <speed>0.01</speed>
  <fix>3d</fix>
</trkpt>
<trkpt lat="33.8101571" lon="-118.3938884">
  <ele>-4.737</ele>
  <time>2026-09-02T22:13:05Z</time>
  <course>187.39</course>
  <speed>0.03605551275463989</speed>
  <fix>3d</fix>
</trkpt>
<trkpt lat="33.8101571" lon="-118.3938884">
  <ele>-4.834</ele>
  <time>2026-09-02T22:13:05Z</time>
  <course>187.39</course>
  <speed>0.03605551275463989</speed>
  <fix>3d</fix>
</trkpt>
<trkpt lat="33.8101419" lon="-118.3939099">
  <ele>-2.68</ele>
  <time>2026-09-02T22:13:05Z</time>
  <course>302.55</course>
  <speed>0.01</speed>
  <fix>3d</fix>
</trkpt>
<trkpt lat="33.8101571" lon="-118.3938884">
  <ele>-4.835</ele>
  <time>2026-09-02T22:13:05Z</time>
  <course>187.39</course>
  <speed>0.03605551275463989</speed>
  <fix>3d</fix>
</trkpt>
<trkpt lat="33.8101571" lon="-118.3938884">
  <ele>-4.931</ele>
  <time>2026-09-02T22:13:05Z</time>
  <course>187.39</course>
  <speed>0.03605551275463989</speed>
  <fix>3d</fix>
</trkpt>
<trkpt lat="33.8101403" lon="-118.393909">
  <ele>-2.87</ele>
  <time>2026-09-02T22:13:05Z</time>
  <course>302.7</course>
  <speed>0.01</speed>
  <fix>3d</fix>
</trkpt>
<trkpt lat="33.8101571" lon="-118.3938884">
  <ele>-4.932</ele>
  <time>2026-09-02T22:13:05Z</time>
  <course>187.39</course>
  <speed>0.03605551275463989</speed>
  <fix>3d</fix>
</trkpt>
<trkpt lat="33.8101571" lon="-118.3938884">
  <ele>-5.027</ele>
  <time>2026-09-02T22:13:05Z</time>
  <course>187.39</course>
  <speed>0.04242640687119285</speed>
  <fix>3d</fix>
</trkpt>
<trkpt lat="33.8101403" lon="-118.393909">
  <ele>-2.87</ele>
  <time>2026-09-02T22:13:05Z</time>
  <course>302.7</course>
  <speed>0.01</speed>
  <fix>3d</fix>
</trkpt>
<trkpt lat="33.8101571" lon="-118.3938884">
  <ele>-5.029</ele>
  <time>2026-09-02T22:13:05Z</time>
  <course>187.39</course>
  <speed>0.04242640687119285</speed>
  <fix>3d</fix>
</trkpt>
<trkpt lat="33.8101571" lon="-118.3938884">
  <ele>-5.125</ele>
  <time>2026-09-02T22:13:05Z</time>
  <course>187.39</course>
  <speed>0.04242640687119285</speed>
  <fix>3d</fix>
</trkpt>
<trkpt lat="33.8101388" lon="-118.3939079">
  <ele>-3.06</ele>
  <time>2026-09-02T22:13:05Z</time>
  <course>302.85</course>
  <speed>0.01</speed>
  <fix>3d</fix>
</trkpt>
<trkpt lat="33.8101571" lon="-118.3938884">
  <ele>-5.13</ele>
  <time>2026-09-02T22:13:05Z</time>
  <course>187.39</course>
  <speed>0.04242640687119285</speed>
  <fix>3d</fix>
</trkpt>
<trkpt lat="33.8101571" lon="-118.3938884">
  <ele>-5.222</ele>
  <time>2026-09-02T22:13:05Z</time>
  <course>187.39</course>
  <speed>0.04242640687119285</speed>
  <fix>3d</fix>
</trkpt>
<trkpt lat="33.8101388" lon="-118.3939079">
  <ele>-3.06</ele>
  <time>2026-09-02T22:13:05Z</time>
  <course>302.85</course>
  <speed>0.01</speed>
  <fix>3d</fix>
</trkpt>
<trkpt lat="33.8101571" lon="-118.3938884">
  <ele>-5.224</ele>
  <time>2026-09-02T22:13:05Z</time>
  <course>187.39</course>
  <speed>0.04242640687119285</speed>
  <fix>3d</fix>
</trkpt>
<trkpt lat="33.8101571" lon="-118.3938884">
  <ele>-5.318</ele>
  <time>2026-09-02T22:13:05Z</time>
  <course>187.4</course>
  <speed>0.04242640687119285</speed>
  <fix>3d</fix>
</trkpt>
<trkpt lat="33.8101373" lon="-118.3939067">
  <ele>-3.25</ele>
  <time>2026-09-02T22:13:05Z</time>
  <course>302.97</course>
  <speed>0.01</speed>
  <fix>3d</fix>
</trkpt>
<trkpt lat="33.8101571" lon="-118.3938884">
  <ele>-5.321</ele>
  <time>2026-09-02T22:13:05Z</time>
  <course>187.4</course>
  <speed>0.04242640687119285</speed>
  <fix>3d</fix>
</trkpt>
<trkpt lat="33.8101571" lon="-118.3938884">
  <ele>-5.416</ele>
  <time>2026-09-02T22:13:05Z</time>
  <course>187.4</course>
  <speed>0.04242640687119285</speed>
  <fix>3d</fix>
</trkpt>
<trkpt lat="33.8101373" lon="-118.3939067">
  <ele>-3.25</ele>
  <time>2026-09-02T22:13:05Z</time>
  <course>302.97</course>
  <speed>0.01</speed>
  <fix>3d</fix>
</trkpt>
<trkpt lat="33.8101571" lon="-118.3938884">
  <ele>-5.418</ele>
  <time>2026-09-02T22:13:05Z</time>
  <course>187.4</course>
  <speed>0.04242640687119285</speed>
  <fix>3d</fix>
</trkpt>
<trkpt lat="33.8101571" lon="-118.3938884">
  <ele>-5.513</ele>
  <time>2026-09-02T22:13:05Z</time>
  <course>187.4</course>
  <speed>0.04242640687119285</speed>
  <fix>3d</fix>
</trkpt>
<trkpt lat="33.810136" lon="-118.3939052">
  <ele>-3.45</ele>
  <time>2026-09-02T22:13:05Z</time>
  <course>303.06</course>
  <speed>0.01</speed>
  <fix>3d</fix>
</trkpt>
<trkpt lat="33.8101571" lon="-118.3938884">
  <ele>-5.516</ele>
  <time>2026-09-02T22:13:05Z</time>
  <course>187.4</course>
  <speed>0.04242640687119285</speed>
  <fix>3d</fix>
</trkpt>
<trkpt lat="33.8101571" lon="-118.3938884">
  <ele>-5.612</ele>
  <time>2026-09-02T22:13:05Z</time>
  <course>187.4</course>
  <speed>0.04242640687119285</speed>
  <fix>3d</fix>
</trkpt>
<trkpt lat="33.810136" lon="-118.3939052">
  <ele>-3.45</ele>
  <time>2026-09-02T22:13:05Z</time>
  <course>303.06</course>
  <speed>0.01</speed>
  <fix>3d</fix>
</trkpt>
<trkpt lat="33.8101571" lon="-118.3938884">
  <ele>-5.616</ele>
  <time>2026-09-02T22:13:05Z</time>
  <course>187.4</course>
  <speed>0.04242640687119285</speed>
  <fix>3d</fix>
</trkpt>
<trkpt lat="33.8101571" lon="-118.3938884">
  <ele>-5.711</ele>
  <time>2026-09-02T22:13:05Z</time>
  <course>187.41</course>
  <speed>0.04242640687119285</speed>
  <fix>3d</fix>
</trkpt>
<trkpt lat="33.8101348" lon="-118.3939036">
  <ele>-3.64</ele>
  <time>2026-09-02T22:13:05Z</time>
  <course>303.15</course>
  <speed>0.01</speed>
  <fix>3d</fix>
</trkpt>
<trkpt lat="33.8101571" lon="-118.3938884">
  <ele>-5.715</ele>
  <time>2026-09-02T22:13:05Z</time>
  <course>187.41</course>
  <speed>0.04242640687119285</speed>
  <fix>3d</fix>
</trkpt>
<trkpt lat="33.8101571" lon="-118.3938884">
  <ele>-5.81</ele>
  <time>2026-09-02T22:13:05Z</time>
  <course>187.41</course>
  <speed>0.04242640687119285</speed>
  <fix>3d</fix>
</trkpt>
<trkpt lat="33.8101348" lon="-118.3939036">
  <ele>-3.64</ele>
  <time>2026-09-02T22:13:05Z</time>
  <course>303.15</course>
  <speed>0.01</speed>
  <fix>3d</fix>
</trkpt>
<trkpt lat="33.8101571" lon="-118.3938884">
  <ele>-5.813</ele>
  <time>2026-09-02T22:13:05Z</time>
  <course>187.41</course>
  <speed>0.04242640687119285</speed>
  <fix>3d</fix>
</trkpt>
<trkpt lat="33.8101571" lon="-118.3938884">
  <ele>-5.909</ele>
  <time>2026-09-02T22:13:05Z</time>
  <course>187.41</course>
  <speed>0.04242640687119285</speed>
  <fix>3d</fix>
</trkpt>
<trkpt lat="33.8101338" lon="-118.3939019">
  <ele>-3.83</ele>
  <time>2026-09-02T22:13:05Z</time>
  <course>303.26</course>
  <speed>0.01</speed>
  <fix>3d</fix>
</trkpt>
<trkpt lat="33.8101571" lon="-118.3938884">
  <ele>-5.912</ele>
  <time>2026-09-02T22:13:05Z</time>
  <course>187.41</course>
  <speed>0.04242640687119285</speed>
  <fix>3d</fix>
</trkpt>
<trkpt lat="33.8101572" lon="-118.3938884">
  <ele>-6.008</ele>
  <time>2026-09-02T22:13:05Z</time>
  <course>187.41</course>
  <speed>0.04242640687119285</speed>
  <fix>3d</fix>
</trkpt>
<trkpt lat="33.8101338" lon="-118.3939019">
  <ele>-3.83</ele>
  <time>2026-09-02T22:13:05Z</time>
  <course>303.26</course>
  <speed>0.01</speed>
  <fix>3d</fix>
</trkpt>
<trkpt lat="33.8101572" lon="-118.3938884">
  <ele>-6.011</ele>
  <time>2026-09-02T22:13:05Z</time>
  <course>187.41</course>
  <speed>0.04242640687119285</speed>
  <fix>3d</fix>
</trkpt>
<trkpt lat="33.8101572" lon="-118.3938884">
  <ele>-6.106</ele>
  <time>2026-09-02T22:13:05Z</time>
  <course>187.42</course>
  <speed>0.04242640687119285</speed>
  <fix>3d</fix>
</trkpt>
<trkpt lat="33.8101329" lon="-118.3939001">
  <ele>-4.02</ele>
  <time>2026-09-02T22:13:05Z</time>
  <course>303.4</course>
  <speed>0.01</speed>
  <fix>3d</fix>
</trkpt>
<trkpt lat="33.8101572" lon="-118.3938884">
  <ele>-6.108</ele>
  <time>2026-09-02T22:13:05Z</time>
  <course>187.42</course>
  <speed>0.04242640687119285</speed>
  <fix>3d</fix>
</trkpt>
<trkpt lat="33.8101572" lon="-118.3938884">
  <ele>-6.203</ele>
  <time>2026-09-02T22:13:05Z</time>
  <course>187.42</course>
  <speed>0.04242640687119285</speed>
  <fix>3d</fix>
</trkpt>
<trkpt lat="33.8101329" lon="-118.3939001">
  <ele>-4.02</ele>
  <time>2026-09-02T22:13:05Z</time>
  <course>303.4</course>
  <speed>0.01</speed>
  <fix>3d</fix>
</trkpt>
<trkpt lat="33.8101572" lon="-118.3938884">
  <ele>-6.205</ele>
  <time>2026-09-02T22:13:05Z</time>
  <course>187.42</course>
  <speed>0.04242640687119285</speed>
  <fix>3d</fix>
</trkpt>
<trkpt lat="33.8101572" lon="-118.3938884">
  <ele>-6.3</ele>
  <time>2026-09-02T22:13:05Z</time>
  <course>187.42</course>
  <speed>0.04242640687119285</speed>
  <fix>3d</fix>
</trkpt>
<trkpt lat="33.8101322" lon="-118.3938981">
  <ele>-4.21</ele>
  <time>2026-09-02T22:13:05Z</time>
  <course>303.53</course>
  <speed>0.01</speed>
  <fix>3d</fix>
</trkpt>
<trkpt lat="33.8101572" lon="-118.3938884">
  <ele>-6.302</ele>
  <time>2026-09-02T22:13:05Z</time>
  <course>187.42</course>
  <speed>0.04242640687119285</speed>
  <fix>3d</fix>
</trkpt>
<trkpt lat="33.8101572" lon="-118.3938884">
  <ele>-6.396</ele>
  <time>2026-09-02T22:13:05Z</time>
  <course>187.42</course>
  <speed>0.04242640687119285</speed>
  <fix>3d</fix>
</trkpt>
<trkpt lat="33.8101322" lon="-118.3938981">
  <ele>-4.21</ele>
  <time>2026-09-02T22:13:05Z</time>
  <course>303.53</course>
  <speed>0.01</speed>
  <fix>3d</fix>
</trkpt>
<trkpt lat="33.8101572" lon="-118.3938884">
  <ele>-6.398</ele>
  <time>2026-09-02T22:13:05Z</time>
  <course>187.42</course>
  <speed>0.04242640687119285</speed>
  <fix>3d</fix>
</trkpt>
<trkpt lat="33.8101572" lon="-118.3938884">
  <ele>-6.491</ele>
  <time>2026-09-02T22:13:05Z</time>
  <course>187.42</course>
  <speed>0.04242640687119285</speed>
  <fix>3d</fix>
</trkpt>
<trkpt lat="33.8101317" lon="-118.3938961">
  <ele>-4.4</ele>
  <time>2026-09-02T22:13:05Z</time>
  <course>303.65</course>
  <speed>0.01</speed>
  <fix>3d</fix>
</trkpt>
<trkpt lat="33.8101572" lon="-118.3938884">
  <ele>-6.494</ele>
  <time>2026-09-02T22:13:05Z</time>
  <course>187.42</course>
  <speed>0.04242640687119285</speed>
  <fix>3d</fix>
</trkpt>
<trkpt lat="33.8101572" lon="-118.3938884">
  <ele>-6.587</ele>
  <time>2026-09-02T22:13:05Z</time>
  <course>187.42</course>
  <speed>0.04242640687119285</speed>
  <fix>3d</fix>
</trkpt>
<trkpt lat="33.8101317" lon="-118.3938961">
  <ele>-4.4</ele>
  <time>2026-09-02T22:13:05Z</time>
  <course>303.65</course>
  <speed>0.01</speed>
  <fix>3d</fix>
</trkpt>
<trkpt lat="33.8101572" lon="-118.3938884">
  <ele>-6.589</ele>
  <time>2026-09-02T22:13:05Z</time>
  <course>187.42</course>
  <speed>0.04242640687119285</speed>
  <fix>3d</fix>
</trkpt>
<trkpt lat="33.8101572" lon="-118.3938884">
  <ele>-6.682</ele>
  <time>2026-09-02T22:13:05Z</time>
  <course>187.42</course>
  <speed>0.03605551275463989</speed>
  <fix>3d</fix>
</trkpt>
<trkpt lat="33.8101313" lon="-118.393894">
  <ele>-4.59</ele>
  <time>2026-09-02T22:13:05Z</time>
  <course>303.74</course>
  <speed>0.01</speed>
  <fix>3d</fix>
</trkpt>
<trkpt lat="33.8101572" lon="-118.3938884">
  <ele>-6.684</ele>
  <time>2026-09-02T22:13:05Z</time>
  <course>187.41</course>
  <speed>0.03605551275463989</speed>
  <fix>3d</fix>
</trkpt>
<trkpt lat="33.8101572" lon="-118.3938885">
  <ele>-6.778</ele>
  <time>2026-09-02T22:13:05Z</time>
  <course>187.36</course>
  <speed>0.03605551275463989</speed>
  <fix>3d</fix>
</trkpt>
<trkpt lat="33.8101313" lon="-118.393894">
  <ele>-4.59</ele>
  <time>2026-09-02T22:13:05Z</time>
  <course>303.74</course>
  <speed>0.01</speed>
  <fix>3d</fix>
</trkpt>
<trkpt lat="33.8101572" lon="-118.3938885">
  <ele>-6.78</ele>
  <time>2026-09-02T22:13:05Z</time>
  <course>187.36</course>
  <speed>0.03605551275463989</speed>
  <fix>3d</fix>
</trkpt>
<trkpt lat="33.8101572" lon="-118.3938885">
  <ele>-6.875</ele>
  <time>2026-09-02T22:13:05Z</time>
  <course>187.29</course>
  <speed>0.03605551275463989</speed>
  <fix>3d</fix>
</trkpt>
<trkpt lat="33.810131" lon="-118.3938919">
  <ele>-4.79</ele>
  <time>2026-09-02T22:13:05Z</time>
  <course>302.51</course>
  <speed>0.01</speed>
  <fix>3d</fix>
</trkpt>
<trkpt lat="33.8101572" lon="-118.3938885">
  <ele>-6.876</ele>
  <time>2026-09-02T22:13:05Z</time>
  <course>187.29</course>
  <speed>0.03605551275463989</speed>
  <fix>3d</fix>
</trkpt>
<trkpt lat="33.8101572" lon="-118.3938885">
  <ele>-6.971</ele>
  <time>2026-09-02T22:13:05Z</time>
  <course>187.23</course>
  <speed>0.03605551275463989</speed>
  <fix>3d</fix>
</trkpt>
<trkpt lat="33.810131" lon="-118.3938919">
  <ele>-4.79</ele>
  <time>2026-09-02T22:13:05Z</time>
  <course>302.51</course>
  <speed>0.01</speed>
  <fix>3d</fix>
</trkpt>
<trkpt lat="33.8101572" lon="-118.3938885">
  <ele>-6.973</ele>
  <time>2026-09-02T22:13:05Z</time>
  <course>187.23</course>
  <speed>0.03605551275463989</speed>
  <fix>3d</fix>
</trkpt>
<trkpt lat="33.8101572" lon="-118.3938885">
  <ele>-7.068</ele>
  <time>2026-09-02T22:13:05Z</time>
  <course>187.18</course>
  <speed>0.03605551275463989</speed>
  <fix>3d</fix>
</trkpt>
<trkpt lat="33.810131" lon="-118.3938898">
  <ele>-4.98</ele>
  <time>2026-09-02T22:13:05Z</time>
  <course>300.66</course>
  <speed>0.01</speed>
  <fix>3d</fix>
</trkpt>
<trkpt lat="33.8101572" lon="-118.3938885">
  <ele>-7.069</ele>
  <time>2026-09-02T22:13:05Z</time>
  <course>187.17</course>
  <speed>0.03605551275463989</speed>
  <fix>3d</fix>
</trkpt>
<trkpt lat="33.8101572" lon="-118.3938885">
  <ele>-7.165</ele>
  <time>2026-09-02T22:13:05Z</time>
  <course>187.14</course>
  <speed>0.03605551275463989</speed>
  <fix>3d</fix>
</trkpt>
<trkpt lat="33.810131" lon="-118.3938898">
  <ele>-4.98</ele>
  <time>2026-09-02T22:13:05Z</time>
  <course>300.66</course>
  <speed>0.01</speed>
  <fix>3d</fix>
</trkpt>
<trkpt lat="33.8101572" lon="-118.3938885">
  <ele>-7.167</ele>
  <time>2026-09-02T22:13:05Z</time>
  <course>187.14</course>
  <speed>0.03605551275463989</speed>
  <fix>3d</fix>
</trkpt>
<trkpt lat="33.8101572" lon="-118.3938885">
  <ele>-7.262</ele>
  <time>2026-09-02T22:13:05Z</time>
  <course>187.11</course>
  <speed>0.03605551275463989</speed>
  <fix>3d</fix>
</trkpt>
<trkpt lat="33.8101312" lon="-118.3938877">
  <ele>-5.17</ele>
  <time>2026-09-02T22:13:05Z</time>
  <course>299.83</course>
  <speed>0.01</speed>
  <fix>3d</fix>
</trkpt>
<trkpt lat="33.8101572" lon="-118.3938885">
  <ele>-7.264</ele>
  <time>2026-09-02T22:13:05Z</time>
  <course>187.11</course>
  <speed>0.03605551275463989</speed>
  <fix>3d</fix>
</trkpt>
<trkpt lat="33.8101573" lon="-118.3938885">
  <ele>-7.359</ele>
  <time>2026-09-02T22:13:05Z</time>
  <course>187.12</course>
  <speed>0.03605551275463989</speed>
  <fix>3d</fix>
</trkpt>
<trkpt lat="33.8101312" lon="-118.3938877">
  <ele>-5.17</ele>
  <time>2026-09-02T22:13:05Z</time>
  <course>299.83</course>
  <speed>0.01</speed>
  <fix>3d</fix>
</trkpt>
<trkpt lat="33.8101573" lon="-118.3938885">
  <ele>-7.363</ele>
  <time>2026-09-02T22:13:05Z</time>
  <course>187.12</course>
  <speed>0.03605551275463989</speed>
  <fix>3d</fix>
</trkpt>
<trkpt lat="33.8101573" lon="-118.3938885">
  <ele>-7.455</ele>
  <time>2026-09-02T22:13:05Z</time>
  <course>187.16</course>
  <speed>0.03605551275463989</speed>
  <fix>3d</fix>
</trkpt>
<trkpt lat="33.8101315" lon="-118.3938856">
  <ele>-5.37</ele>
  <time>2026-09-02T22:13:05Z</time>
  <course>297.42</course>
  <speed>0.01</speed>
  <fix>3d</fix>
</trkpt>
<trkpt lat="33.8101573" lon="-118.3938885">
  <ele>-7.457</ele>
  <time>2026-09-02T22:13:05Z</time>
  <course>187.16</course>
  <speed>0.03605551275463989</speed>
  <fix>3d</fix>
</trkpt>
<trkpt lat="33.8101573" lon="-118.3938885">
  <ele>-7.551</ele>
  <time>2026-09-02T22:13:05Z</time>
  <course>187.2</course>
  <speed>0.03605551275463989</speed>
  <fix>3d</fix>
</trkpt>
<trkpt lat="33.8101315" lon="-118.3938856">
  <ele>-5.37</ele>
  <time>2026-09-02T22:13:05Z</time>
  <course>297.42</course>
  <speed>0.01</speed>
  <fix>3d</fix>
</trkpt>
<trkpt lat="33.8101573" lon="-118.3938885">
  <ele>-7.553</ele>
  <time>2026-09-02T22:13:05Z</time>
  <course>187.2</course>
  <speed>0.03605551275463989</speed>
  <fix>3d</fix>
</trkpt>
<trkpt lat="33.8101573" lon="-118.3938885">
  <ele>-7.647</ele>
  <time>2026-09-02T22:13:05Z</time>
  <course>187.21</course>
  <speed>0.03605551275463989</speed>
  <fix>3d</fix>
</trkpt>
<trkpt lat="33.810132" lon="-118.3938835">
  <ele>-5.57</ele>
  <time>2026-09-02T22:13:05Z</time>
  <course>293.77</course>
  <speed>0.0</speed>
  <fix>3d</fix>
</trkpt>
<trkpt lat="33.8101573" lon="-118.3938885">
  <ele>-7.65</ele>
  <time>2026-09-02T22:13:05Z</time>
  <course>187.21</course>
  <speed>0.03605551275463989</speed>
  <fix>3d</fix>
</trkpt>
<trkpt lat="33.8101573" lon="-118.3938885">
  <ele>-7.745</ele>
  <time>2026-09-02T22:13:05Z</time>
  <course>187.23</course>
  <speed>0.03605551275463989</speed>
  <fix>3d</fix>
</trkpt>
<trkpt lat="33.810132" lon="-118.3938835">
  <ele>-5.57</ele>
  <time>2026-09-02T22:13:05Z</time>
  <course>293.77</course>
  <speed>0.0</speed>
  <fix>3d</fix>
</trkpt>
<trkpt lat="33.8101573" lon="-118.3938885">
  <ele>-7.748</ele>
  <time>2026-09-02T22:13:05Z</time>
  <course>187.23</course>
  <speed>0.03605551275463989</speed>
  <fix>3d</fix>
</trkpt>
<trkpt lat="33.8101573" lon="-118.3938885">
  <ele>-7.843</ele>
  <time>2026-09-02T22:13:05Z</time>
  <course>187.23</course>
  <speed>0.03605551275463989</speed>
  <fix>3d</fix>
</trkpt>
<trkpt lat="33.8101327" lon="-118.3938815">
  <ele>-5.77</ele>
  <time>2026-09-02T22:13:05Z</time>
  <course>291.95</course>
  <speed>0.0</speed>
  <fix>3d</fix>
</trkpt>
<trkpt lat="33.8101573" lon="-118.3938885">
  <ele>-7.846</ele>
  <time>2026-09-02T22:13:05Z</time>
  <course>187.23</course>
  <speed>0.03605551275463989</speed>
  <fix>3d</fix>
</trkpt>
<trkpt lat="33.8101573" lon="-118.3938885">
  <ele>-7.943</ele>
  <time>2026-09-02T22:13:05Z</time>
  <course>187.24</course>
  <speed>0.03605551275463989</speed>
  <fix>3d</fix>
</trkpt>
<trkpt lat="33.8101327" lon="-118.3938815">
  <ele>-5.77</ele>
  <time>2026-09-02T22:13:05Z</time>
  <course>291.95</course>
  <speed>0.0</speed>
  <fix>3d</fix>
</trkpt>
<trkpt lat="33.8101573" lon="-118.3938885">
  <ele>-7.945</ele>
  <time>2026-09-02T22:13:05Z</time>
  <course>187.24</course>
  <speed>0.03605551275463989</speed>
  <fix>3d</fix>
</trkpt>
<trkpt lat="33.8101573" lon="-118.3938885">
  <ele>-8.042</ele>
  <time>2026-09-02T22:13:05Z</time>
  <course>187.24</course>
  <speed>0.03605551275463989</speed>
  <fix>3d</fix>
</trkpt>
<trkpt lat="33.8101335" lon="-118.3938796">
  <ele>-5.97</ele>
  <time>2026-09-02T22:13:05Z</time>
  <course>291.51</course>
  <speed>0.0</speed>
  <fix>3d</fix>
</trkpt>
<trkpt lat="33.8101573" lon="-118.3938885">
  <ele>-8.044</ele>
  <time>2026-09-02T22:13:05Z</time>
  <course>187.24</course>
  <speed>0.03605551275463989</speed>
  <fix>3d</fix>
</trkpt>
<trkpt lat="33.8101573" lon="-118.3938885">
  <ele>-8.14</ele>
  <time>2026-09-02T22:13:05Z</time>
  <course>187.25</course>
  <speed>0.03605551275463989</speed>
  <fix>3d</fix>
</trkpt>
<trkpt lat="33.8101335" lon="-118.3938796">
  <ele>-5.97</ele>
  <time>2026-09-02T22:13:05Z</time>
  <course>291.51</course>
  <speed>0.0</speed>
  <fix>3d</fix>
</trkpt>
<trkpt lat="33.8101573" lon="-118.3938885">
  <ele>-8.143</ele>
  <time>2026-09-02T22:13:05Z</time>
  <course>187.25</course>
  <speed>0.03605551275463989</speed>
  <fix>3d</fix>
</trkpt>
<trkpt lat="33.8101573" lon="-118.3938885">
  <ele>-8.239</ele>
  <time>2026-09-02T22:13:05Z</time>
  <course>187.25</course>
  <speed>0.03605551275463989</speed>
  <fix>3d</fix>
</trkpt>
<trkpt lat="33.8101345" lon="-118.3938778">
  <ele>-6.17</ele>
  <time>2026-09-02T22:13:05Z</time>
  <course>291.52</course>
  <speed>0.0</speed>
  <fix>3d</fix>
</trkpt>
<trkpt lat="33.8101573" lon="-118.3938885">
  <ele>-8.242</ele>
  <time>2026-09-02T22:13:05Z</time>
  <course>187.25</course>
  <speed>0.03605551275463989</speed>
  <fix>3d</fix>
</trkpt>
<trkpt lat="33.8101573" lon="-118.3938885">
  <ele>-8.338</ele>
  <time>2026-09-02T22:13:05Z</time>
  <course>187.26</course>
  <speed>0.03605551275463989</speed>
  <fix>3d</fix>
</trkpt>
<trkpt lat="33.8101345" lon="-118.3938778">
  <ele>-6.17</ele>
  <time>2026-09-02T22:13:05Z</time>
  <course>291.52</course>
  <speed>0.0</speed>
  <fix>3d</fix>
</trkpt>
<trkpt lat="33.8101573" lon="-118.3938885">
  <ele>-8.34</ele>
  <time>2026-09-02T22:13:05Z</time>
  <course>187.26</course>
  <speed>0.03605551275463989</speed>
  <fix>3d</fix>
</trkpt>
<trkpt lat="33.8101573" lon="-118.3938885">
  <ele>-8.437</ele>
  <time>2026-09-02T22:13:05Z</time>
  <course>187.26</course>
  <speed>0.03605551275463989</speed>
  <fix>3d</fix>
</trkpt>
<trkpt lat="33.8101356" lon="-118.3938761">
  <ele>-6.38</ele>
  <time>2026-09-02T22:13:05Z</time>
  <course>291.53</course>
  <speed>0.0</speed>
  <fix>3d</fix>
</trkpt>
<trkpt lat="33.8101573" lon="-118.3938885">
  <ele>-8.442</ele>
  <time>2026-09-02T22:13:05Z</time>
  <course>187.26</course>
  <speed>0.03605551275463989</speed>
  <fix>3d</fix>
</trkpt>
<trkpt lat="33.8101573" lon="-118.3938885">
  <ele>-8.536</ele>
  <time>2026-09-02T22:13:05Z</time>
  <course>187.27</course>
  <speed>0.03605551275463989</speed>
  <fix>3d</fix>
</trkpt>
<trkpt lat="33.8101356" lon="-118.3938761">
  <ele>-6.38</ele>
  <time>2026-09-02T22:13:05Z</time>
  <course>291.53</course>
  <speed>0.0</speed>
  <fix>3d</fix>
</trkpt>
<trkpt lat="33.8101573" lon="-118.3938885">
  <ele>-8.538</ele>
  <time>2026-09-02T22:13:05Z</time>
  <course>187.27</course>
  <speed>0.03605551275463989</speed>
  <fix>3d</fix>
</trkpt>
<trkpt lat="33.8101573" lon="-118.3938885">
  <ele>-8.636</ele>
  <time>2026-09-02T22:13:05Z</time>
  <course>187.27</course>
  <speed>0.03605551275463989</speed>
  <fix>3d</fix>
</trkpt>
<trkpt lat="33.8101368" lon="-118.3938746">
  <ele>-6.58</ele>
  <time>2026-09-02T22:13:05Z</time>
  <course>291.56</course>
  <speed>0.0</speed>
  <fix>3d</fix>
</trkpt>
<trkpt lat="33.8101573" lon="-118.3938885">
  <ele>-8.638</ele>
  <time>2026-09-02T22:13:05Z</time>
  <course>187.27</course>
  <speed>0.03605551275463989</speed>
  <fix>3d</fix>
</trkpt>
<trkpt lat="33.8101573" lon="-118.3938885">
  <ele>-8.735</ele>
  <time>2026-09-02T22:13:05Z</time>
  <course>187.28</course>
  <speed>0.03605551275463989</speed>
  <fix>3d</fix>
</trkpt>
<trkpt lat="33.8101368" lon="-118.3938746">
  <ele>-6.58</ele>
  <time>2026-09-02T22:13:05Z</time>
  <course>291.56</course>
  <speed>0.0</speed>
  <fix>3d</fix>
</trkpt>
<trkpt lat="33.8101573" lon="-118.3938885">
  <ele>-8.736</ele>
  <time>2026-09-02T22:13:05Z</time>
  <course>187.28</course>
  <speed>0.03605551275463989</speed>
  <fix>3d</fix>
</trkpt>
<trkpt lat="33.8101573" lon="-118.3938885">
  <ele>-8.833</ele>
  <time>2026-09-02T22:13:05Z</time>
  <course>187.28</course>
  <speed>0.03605551275463989</speed>
  <fix>3d</fix>
</trkpt>
<trkpt lat="33.8101382" lon="-118.3938732">
  <ele>-6.78</ele>
  <time>2026-09-02T22:13:05Z</time>
  <course>291.61</course>
  <speed>0.0</speed>
  <fix>3d</fix>
</trkpt>
<trkpt lat="33.8101573" lon="-118.3938885">
  <ele>-8.835</ele>
  <time>2026-09-02T22:13:05Z</time>
  <course>187.28</course>
  <speed>0.03605551275463989</speed>
  <fix>3d</fix>
</trkpt>
<trkpt lat="33.8101573" lon="-118.3938885">
  <ele>-8.932</ele>
  <time>2026-09-02T22:13:05Z</time>
  <course>187.29</course>
  <speed>0.03605551275463989</speed>
  <fix>3d</fix>
</trkpt>
<trkpt lat="33.8101382" lon="-118.3938732">
  <ele>-6.78</ele>
  <time>2026-09-02T22:13:05Z</time>
  <course>291.61</course>
  <speed>0.0</speed>
  <fix>3d</fix>
</trkpt>
<trkpt lat="33.8101573" lon="-118.3938885">
  <ele>-8.934</ele>
  <time>2026-09-02T22:13:05Z</time>
  <course>187.29</course>
  <speed>0.03605551275463989</speed>
  <fix>3d</fix>
</trkpt>
<trkpt lat="33.8101573" lon="-118.3938885">
  <ele>-9.032</ele>
  <time>2026-09-02T22:13:05Z</time>
  <course>187.29</course>
  <speed>0.03605551275463989</speed>
  <fix>3d</fix>
</trkpt>
<trkpt lat="33.8101397" lon="-118.393872">
  <ele>-6.98</ele>
  <time>2026-09-02T22:13:05Z</time>
  <course>291.67</course>
  <speed>0.0</speed>
  <fix>3d</fix>
</trkpt>
<trkpt lat="33.8101573" lon="-118.3938885">
  <ele>-9.033</ele>
  <time>2026-09-02T22:13:05Z</time>
  <course>187.29</course>
  <speed>0.03605551275463989</speed>
  <fix>3d</fix>
</trkpt>
<trkpt lat="33.8101573" lon="-118.3938885">
  <ele>-9.13</ele>
  <time>2026-09-02T22:13:05Z</time>
  <course>187.3</course>
  <speed>0.03605551275463989</speed>
  <fix>3d</fix>
</trkpt>
<trkpt lat="33.8101397" lon="-118.393872">
  <ele>-6.98</ele>
  <time>2026-09-02T22:13:05Z</time>
  <course>291.67</course>
  <speed>0.0</speed>
  <fix>3d</fix>
</trkpt>
<trkpt lat="33.8101572" lon="-118.3938885">
  <ele>-9.223</ele>
  <time>2026-09-02T22:13:05Z</time>
  <course>187.31</course>
  <speed>0.03605551275463989</speed>
  <fix>3d</fix>
</trkpt>
<trkpt lat="33.8101413" lon="-118.3938711">
  <ele>-7.17</ele>
  <time>2026-09-02T22:13:05Z</time>
  <course>291.81</course>
  <speed>0.0</speed>
  <fix>3d</fix>
</trkpt>
<trkpt lat="33.8101572" lon="-118.3938885">
  <ele>-9.302</ele>
  <time>2026-09-02T22:13:05Z</time>
  <course>187.31</course>
  <speed>0.0282842712474619</speed>
  <fix>3d</fix>
</trkpt>
<trkpt lat="33.8101413" lon="-118.3938711">
  <ele>-7.17</ele>
  <time>2026-09-02T22:13:05Z</time>
  <course>291.81</course>
  <speed>0.0</speed>
  <fix>3d</fix>
</trkpt>
<trkpt lat="33.8101572" lon="-118.3938885">
  <ele>-9.365</ele>
  <time>2026-09-02T22:13:05Z</time>
  <course>187.3</course>
  <speed>0.0316227766016838</speed>
  <fix>3d</fix>
</trkpt>
<trkpt lat="33.8101429" lon="-118.3938702">
  <ele>-7.35</ele>
  <time>2026-09-02T22:13:05Z</time>
  <course>217.75</course>
  <speed>0.0</speed>
  <fix>3d</fix>
</trkpt>
<trkpt lat="33.8101571" lon="-118.3938885">
  <ele>-9.413</ele>
  <time>2026-09-02T22:13:05Z</time>
  <course>187.3</course>
  <speed>0.16278820596099705</speed>
  <fix>3d</fix>
</trkpt>
<trkpt lat="33.8101429" lon="-118.3938702">
  <ele>-7.35</ele>
  <time>2026-09-02T22:13:05Z</time>
  <course>217.75</course>
  <speed>0.0</speed>
  <fix>3d</fix>
</trkpt>
<trkpt lat="33.8101569" lon="-118.3938885">
  <ele>-9.449</ele>
  <time>2026-09-02T22:13:05Z</time>
  <course>187.3</course>
  <speed>0.34365680554879163</speed>
  <fix>3d</fix>
</trkpt>
<trkpt lat="33.8101446" lon="-118.3938696">
  <ele>-7.49</ele>
  <time>2026-09-02T22:13:05Z</time>
  <course>183.76</course>
  <speed>0.13</speed>
  <fix>3d</fix>
</trkpt>
<trkpt lat="33.8101566" lon="-118.3938886">
  <ele>-9.474</ele>
  <time>2026-09-02T22:13:05Z</time>
  <course>187.3</course>
  <speed>0.5346026561849464</speed>
  <fix>3d</fix>
</trkpt>
<trkpt lat="33.8101446" lon="-118.3938696">
  <ele>-7.49</ele>
  <time>2026-09-02T22:13:05Z</time>
  <course>183.76</course>
  <speed>0.13</speed>
  <fix>3d</fix>
</trkpt>
<trkpt lat="33.8101561" lon="-118.3938886">
  <ele>-9.488</ele>
  <time>2026-09-02T22:13:05Z</time>
  <course>187.31</course>
  <speed>0.7269112738154498</speed>
  <fix>3d</fix>
</trkpt>
<trkpt lat="33.8101459" lon="-118.3938692">
  <ele>-7.57</ele>
  <time>2026-09-02T22:13:05Z</time>
  <course>184.97</course>
  <speed>0.44</speed>
  <fix>3d</fix>
</trkpt>
<trkpt lat="33.8101555" lon="-118.3938887">
  <ele>-9.494</ele>
  <time>2026-09-02T22:13:05Z</time>
  <course>187.33</course>
  <speed>0.9079647570252933</speed>
  <fix>3d</fix>
</trkpt>
<trkpt lat="33.8101459" lon="-118.3938692">
  <ele>-7.57</ele>
  <time>2026-09-02T22:13:05Z</time>
  <course>184.97</course>
  <speed>0.44</speed>
  <fix>3d</fix>
</trkpt>
<trkpt lat="33.8101547" lon="-118.3938888">
  <ele>-9.495</ele>
  <time>2026-09-02T22:13:05Z</time>
  <course>187.33</course>
  <speed>1.039471019317037</speed>
  <fix>3d</fix>
</trkpt>
<trkpt lat="33.8101466" lon="-118.3938692">
  <ele>-7.61</ele>
  <time>2026-09-02T22:13:05Z</time>
  <course>185.69</course>
  <speed>0.82</speed>
  <fix>3d</fix>
</trkpt>
<trkpt lat="33.8101538" lon="-118.393889">
  <ele>-9.492</ele>
  <time>2026-09-02T22:13:05Z</time>
  <course>187.33</course>
  <speed>1.1399122773266372</speed>
  <fix>3d</fix>
</trkpt>
<trkpt lat="33.8101466" lon="-118.3938692">
  <ele>-7.61</ele>
  <time>2026-09-02T22:13:05Z</time>
  <course>185.69</course>
  <speed>0.82</speed>
  <fix>3d</fix>
</trkpt>
<trkpt lat="33.8101528" lon="-118.3938891">
  <ele>-9.488</ele>
  <time>2026-09-02T22:13:05Z</time>
  <course>187.33</course>
  <speed>1.2106196760337244</speed>
  <fix>3d</fix>
</trkpt>
<trkpt lat="33.8101466" lon="-118.3938694">
  <ele>-7.62</ele>
  <time>2026-09-02T22:13:05Z</time>
  <course>185.89</course>
  <speed>1.11</speed>
  <fix>3d</fix>
</trkpt>
<trkpt lat="33.8101518" lon="-118.3938893">
  <ele>-9.483</ele>
  <time>2026-09-02T22:13:05Z</time>
  <course>187.33</course>
  <speed>1.271416532848303</speed>
  <fix>3d</fix>
</trkpt>
<trkpt lat="33.8101466" lon="-118.3938694">
  <ele>-7.62</ele>
  <time>2026-09-02T22:13:05Z</time>
  <course>185.89</course>
  <speed>1.11</speed>
  <fix>3d</fix>
</trkpt>
<trkpt lat="33.8101507" lon="-118.3938894">
  <ele>-9.478</ele>
  <time>2026-09-02T22:13:05Z</time>
  <course>187.31</course>
  <speed>1.332216198670471</speed>
  <fix>3d</fix>
</trkpt>
<trkpt lat="33.8101462" lon="-118.3938698">
  <ele>-7.63</ele>
  <time>2026-09-02T22:13:05Z</time>
  <course>186.0</course>
  <speed>1.29</speed>
  <fix>3d</fix>
</trkpt>
<trkpt lat="33.8101495" lon="-118.3938896">
  <ele>-9.474</ele>
  <time>2026-09-02T22:13:05Z</time>
  <course>187.3</course>
  <speed>1.3732079230764729</speed>
  <fix>3d</fix>
</trkpt>
<trkpt lat="33.8101462" lon="-118.3938698">
  <ele>-7.63</ele>
  <time>2026-09-02T22:13:05Z</time>
  <course>186.0</course>
  <speed>1.29</speed>
  <fix>3d</fix>
</trkpt>
<trkpt lat="33.8101482" lon="-118.3938898">
  <ele>-9.472</ele>
  <time>2026-09-02T22:13:05Z</time>
  <course>187.3</course>
  <speed>1.4142135623730951</speed>
  <fix>3d</fix>
</trkpt>
<trkpt lat="33.8101455" lon="-118.3938706">
  <ele>-7.63</ele>
  <time>2026-09-02T22:13:05Z</time>
  <course>186.26</course>
  <speed>1.42</speed>
  <fix>3d</fix>
</trkpt>
<trkpt lat="33.8101469" lon="-118.39389">
  <ele>-9.472</ele>
  <time>2026-09-02T22:13:05Z</time>
  <course>187.3</course>
  <speed>1.4538225476308997</speed>
  <fix>3d</fix>
</trkpt>
<trkpt lat="33.8101455" lon="-118.3938706">
  <ele>-7.63</ele>
  <time>2026-09-02T22:13:05Z</time>
  <course>186.26</course>
  <speed>1.42</speed>
  <fix>3d</fix>
</trkpt>
<trkpt lat="33.8101456" lon="-118.3938902">
  <ele>-9.475</ele>
  <time>2026-09-02T22:13:05Z</time>
  <course>187.3</course>
  <speed>1.4849242404917498</speed>
  <fix>3d</fix>
</trkpt>
<trkpt lat="33.8101446" lon="-118.3938716">
  <ele>-7.64</ele>
  <time>2026-09-02T22:13:05Z</time>
  <course>186.59</course>
  <speed>1.51</speed>
  <fix>3d</fix>
</trkpt>
<trkpt lat="33.8101442" lon="-118.3938903">
  <ele>-9.479</ele>
  <time>2026-09-02T22:13:05Z</time>
  <course>187.3</course>
  <speed>1.516047492659778</speed>
  <fix>3d</fix>
</trkpt>
<trkpt lat="33.8101446" lon="-118.3938716">
  <ele>-7.64</ele>
  <time>2026-09-02T22:13:05Z</time>
  <course>186.59</course>
  <speed>1.51</speed>
  <fix>3d</fix>
</trkpt>
<trkpt lat="33.8101429" lon="-118.3938905">
  <ele>-9.481</ele>
  <time>2026-09-02T22:13:05Z</time>
  <course>187.29</course>
  <speed>1.5373028328862208</speed>
  <fix>3d</fix>
</trkpt>
<trkpt lat="33.8101435" lon="-118.3938728">
  <ele>-7.65</ele>
  <time>2026-09-02T22:13:05Z</time>
  <course>186.94</course>
  <speed>1.58</speed>
  <fix>3d</fix>
</trkpt>
<trkpt lat="33.8101414" lon="-118.3938907">
  <ele>-9.482</ele>
  <time>2026-09-02T22:13:05Z</time>
  <course>187.29</course>
  <speed>1.557080601638849</speed>
  <fix>3d</fix>
</trkpt>
<trkpt lat="33.8101435" lon="-118.3938728">
  <ele>-7.65</ele>
  <time>2026-09-02T22:13:05Z</time>
  <course>186.94</course>
  <speed>1.58</speed>
  <fix>3d</fix>
</trkpt>
<trkpt lat="33.81014" lon="-118.393891">
  <ele>-9.483</ele>
  <time>2026-09-02T22:13:05Z</time>
  <course>187.29</course>
  <speed>1.5783535725559088</speed>
  <fix>3d</fix>
</trkpt>
<trkpt lat="33.8101422" lon="-118.3938743">
  <ele>-7.66</ele>
  <time>2026-09-02T22:13:05Z</time>
  <course>187.3</course>
  <speed>1.63</speed>
  <fix>3d</fix>
</trkpt>
<trkpt lat="33.8101385" lon="-118.3938912">
  <ele>-9.483</ele>
  <time>2026-09-02T22:13:05Z</time>
  <course>187.3</course>
  <speed>1.5897798589741914</speed>
  <fix>3d</fix>
</trkpt>
<trkpt lat="33.8101422" lon="-118.3938743">
  <ele>-7.66</ele>
  <time>2026-09-02T22:13:05Z</time>
  <course>187.3</course>
  <speed>1.63</speed>
  <fix>3d</fix>
</trkpt>
<trkpt lat="33.810137" lon="-118.3938914">
  <ele>-9.483</ele>
  <time>2026-09-02T22:13:05Z</time>
  <course>187.3</course>
  <speed>1.609534094078159</speed>
  <fix>3d</fix>
</trkpt>
<trkpt lat="33.8101408" lon="-118.393876">
  <ele>-7.66</ele>
  <time>2026-09-02T22:13:05Z</time>
  <course>187.57</course>
  <speed>1.66</speed>
  <fix>3d</fix>
</trkpt>
<trkpt lat="33.8101355" lon="-118.3938916">
  <ele>-9.482</ele>
  <time>2026-09-02T22:13:05Z</time>
  <course>187.29</course>
  <speed>1.619413474070165</speed>
  <fix>3d</fix>
</trkpt>
<trkpt lat="33.8101408" lon="-118.393876">
  <ele>-7.66</ele>
  <time>2026-09-02T22:13:05Z</time>
  <course>187.57</course>
  <speed>1.66</speed>
  <fix>3d</fix>
</trkpt>
<trkpt lat="33.810134" lon="-118.3938918">
  <ele>-9.481</ele>
  <time>2026-09-02T22:13:05Z</time>
  <course>187.29</course>
  <speed>1.6308586695357754</speed>
  <fix>3d</fix>
</trkpt>
<trkpt lat="33.8101391" lon="-118.3938779">
  <ele>-7.67</ele>
  <time>2026-09-02T22:13:05Z</time>
  <course>187.75</course>
  <speed>1.69</speed>
  <fix>3d</fix>
</trkpt>
<trkpt lat="33.8101325" lon="-118.3938921">
  <ele>-9.48</ele>
  <time>2026-09-02T22:13:05Z</time>
  <course>187.29</course>
  <speed>1.6407315441594945</speed>
  <fix>3d</fix>
</trkpt>
<trkpt lat="33.8101391" lon="-118.3938779">
  <ele>-7.67</ele>
  <time>2026-09-02T22:13:05Z</time>
  <course>187.75</course>
  <speed>1.69</speed>
  <fix>3d</fix>
</trkpt>
<trkpt lat="33.810131" lon="-118.3938923">
  <ele>-9.479</ele>
  <time>2026-09-02T22:13:05Z</time>
  <course>187.29</course>
  <speed>1.650605949341029</speed>
  <fix>3d</fix>
</trkpt>
<trkpt lat="33.8101373" lon="-118.39388">
  <ele>-7.67</ele>
  <time>2026-09-02T22:13:05Z</time>
  <course>187.9</course>
  <speed>1.71</speed>
  <fix>3d</fix>
</trkpt>
<trkpt lat="33.8101294" lon="-118.3938925">
  <ele>-9.478</ele>
  <time>2026-09-02T22:13:05Z</time>
  <course>187.3</course>
  <speed>1.650605949341029</speed>
  <fix>3d</fix>
</trkpt>
<trkpt lat="33.8101373" lon="-118.39388">
  <ele>-7.67</ele>
  <time>2026-09-02T22:13:05Z</time>
  <course>187.9</course>
  <speed>1.71</speed>
  <fix>3d</fix>
</trkpt>
<trkpt lat="33.8101279" lon="-118.3938928">
  <ele>-9.478</ele>
  <time>2026-09-02T22:13:05Z</time>
  <course>187.3</course>
  <speed>1.6604818577750253</speed>
  <fix>3d</fix>
</trkpt>
<trkpt lat="33.8101354" lon="-118.3938822">
  <ele>-7.67</ele>
  <time>2026-09-02T22:13:05Z</time>
  <course>187.95</course>
  <speed>1.73</speed>
  <fix>3d</fix>
</trkpt>
<trkpt lat="33.8101263" lon="-118.393893">
  <ele>-9.478</ele>
  <time>2026-09-02T22:13:05Z</time>
  <course>187.29</course>
  <speed>1.6604818577750253</speed>
  <fix>3d</fix>
</trkpt>
<trkpt lat="33.8101354" lon="-118.3938822">
  <ele>-7.67</ele>
  <time>2026-09-02T22:13:05Z</time>
  <course>187.95</course>
  <speed>1.73</speed>
  <fix>3d</fix>
</trkpt>
<trkpt lat="33.8101247" lon="-118.3938933">
  <ele>-9.478</ele>
  <time>2026-09-02T22:13:05Z</time>
  <course>187.3</course>
  <speed>1.670359242797788</speed>
  <fix>3d</fix>
</trkpt>
<trkpt lat="33.8101333" lon="-118.3938845">
  <ele>-7.67</ele>
  <time>2026-09-02T22:13:05Z</time>
  <course>187.97</course>
  <speed>1.74</speed>
  <fix>3d</fix>
</trkpt>
<trkpt lat="33.8101232" lon="-118.3938935">
  <ele>-9.478</ele>
  <time>2026-09-02T22:13:05Z</time>
  <course>187.3</course>
  <speed>1.670359242797788</speed>
  <fix>3d</fix>
</trkpt>
<trkpt lat="33.8101333" lon="-118.3938845">
  <ele>-7.67</ele>
  <time>2026-09-02T22:13:05Z</time>
  <course>187.97</course>
  <speed>1.74</speed>
  <fix>3d</fix>
</trkpt>
<trkpt lat="33.8101216" lon="-118.3938938">
  <ele>-9.478</ele>
  <time>2026-09-02T22:13:05Z</time>
  <course>187.3</course>
  <speed>1.680238078368658</speed>
  <fix>3d</fix>
</trkpt>
<trkpt lat="33.810131" lon="-118.3938869">
  <ele>-7.68</ele>
  <time>2026-09-02T22:13:05Z</time>
  <course>187.95</course>
  <speed>1.74</speed>
  <fix>3d</fix>
</trkpt>
<trkpt lat="33.8101201" lon="-118.393894">
  <ele>-9.477</ele>
  <time>2026-09-02T22:13:05Z</time>
  <course>187.31</course>
  <speed>1.680238078368658</speed>
  <fix>3d</fix>
</trkpt>
<trkpt lat="33.810131" lon="-118.3938869">
  <ele>-7.68</ele>
  <time>2026-09-02T22:13:05Z</time>
  <course>187.95</course>
  <speed>1.74</speed>
  <fix>3d</fix>
</trkpt>
<trkpt lat="33.8101185" lon="-118.3938943">
  <ele>-9.476</ele>
  <time>2026-09-02T22:13:05Z</time>
  <course>187.31</course>
  <speed>1.6886088949191285</speed>
  <fix>3d</fix>
</trkpt>
<trkpt lat="33.8101285" lon="-118.3938894">
  <ele>-7.69</ele>
  <time>2026-09-02T22:13:05Z</time>
  <course>187.83</course>
  <speed>1.75</speed>
  <fix>3d</fix>
</trkpt>
<trkpt lat="33.810117" lon="-118.3938945">
  <ele>-9.474</ele>
  <time>2026-09-02T22:13:05Z</time>
  <course>187.31</course>
  <speed>1.6886088949191285</speed>
  <fix>3d</fix>
</trkpt>
<trkpt lat="33.8101285" lon="-118.3938894">
  <ele>-7.69</ele>
  <time>2026-09-02T22:13:05Z</time>
  <course>187.83</course>
  <speed>1.75</speed>
  <fix>3d</fix>
</trkpt>
<trkpt lat="33.8101154" lon="-118.3938948">
  <ele>-9.472</ele>
  <time>2026-09-02T22:13:05Z</time>
  <course>187.31</course>
  <speed>1.6886088949191285</speed>
  <fix>3d</fix>
</trkpt>
<trkpt lat="33.8101258" lon="-118.3938921">
  <ele>-7.69</ele>
  <time>2026-09-02T22:13:05Z</time>
  <course>187.67</course>
  <speed>1.76</speed>
  <fix>3d</fix>
</trkpt>
<trkpt lat="33.8101138" lon="-118.393895">
  <ele>-9.471</ele>
  <time>2026-09-02T22:13:05Z</time>
  <course>187.31</course>
  <speed>1.6984993376507393</speed>
  <fix>3d</fix>
</trkpt>
<trkpt lat="33.8101258" lon="-118.3938921">
  <ele>-7.69</ele>
  <time>2026-09-02T22:13:05Z</time>
  <course>187.67</course>
  <speed>1.76</speed>
  <fix>3d</fix>
</trkpt>
<trkpt lat="33.8101123" lon="-118.3938953">
  <ele>-9.471</ele>
  <time>2026-09-02T22:13:05Z</time>
  <course>187.31</course>
  <speed>1.6984993376507393</speed>
  <fix>3d</fix>
</trkpt>
<trkpt lat="33.810123" lon="-118.3938948">
  <ele>-7.7</ele>
  <time>2026-09-02T22:13:05Z</time>
  <course>187.56</course>
  <speed>1.76</speed>
  <fix>3d</fix>
</trkpt>
<trkpt lat="33.8101107" lon="-118.3938955">
  <ele>-9.471</ele>
  <time>2026-09-02T22:13:05Z</time>
  <course>187.31</course>
  <speed>1.6984993376507393</speed>
  <fix>3d</fix>
</trkpt>
<trkpt lat="33.810123" lon="-118.3938948">
  <ele>-7.7</ele>
  <time>2026-09-02T22:13:05Z</time>
  <course>187.56</course>
  <speed>1.76</speed>
  <fix>3d</fix>
</trkpt>
<trkpt lat="33.8101091" lon="-118.3938957">
  <ele>-9.471</ele>
  <time>2026-09-02T22:13:05Z</time>
  <course>187.32</course>
  <speed>1.6984993376507393</speed>
  <fix>3d</fix>
</trkpt>
<trkpt lat="33.81012" lon="-118.3938974">
  <ele>-7.71</ele>
  <time>2026-09-02T22:13:05Z</time>
  <course>187.54</course>
  <speed>1.76</speed>
  <fix>3d</fix>
</trkpt>
<trkpt lat="33.8101075" lon="-118.393896">
  <ele>-9.473</ele>
  <time>2026-09-02T22:13:05Z</time>
  <course>187.32</course>
  <speed>1.6984993376507393</speed>
  <fix>3d</fix>
</trkpt>
<trkpt lat="33.81012" lon="-118.3938974">
  <ele>-7.71</ele>
  <time>2026-09-02T22:13:05Z</time>
  <course>187.54</course>
  <speed>1.76</speed>
  <fix>3d</fix>
</trkpt>
<trkpt lat="33.8101059" lon="-118.3938962">
  <ele>-9.476</ele>
  <time>2026-09-02T22:13:05Z</time>
  <course>187.32</course>
  <speed>1.6984993376507393</speed>
  <fix>3d</fix>
</trkpt>
<trkpt lat="33.8101168" lon="-118.3939001">
  <ele>-7.72</ele>
  <time>2026-09-02T22:13:05Z</time>
  <course>187.53</course>
  <speed>1.76</speed>
  <fix>3d</fix>
</trkpt>
<trkpt lat="33.8101043" lon="-118.3938965">
  <ele>-9.479</ele>
  <time>2026-09-02T22:13:05Z</time>
  <course>187.32</course>
  <speed>1.6984993376507393</speed>
  <fix>3d</fix>
</trkpt>
<trkpt lat="33.8101168" lon="-118.3939001">
  <ele>-7.72</ele>
  <time>2026-09-02T22:13:05Z</time>
  <course>187.53</course>
  <speed>1.76</speed>
  <fix>3d</fix>
</trkpt>
<trkpt lat="33.8101028" lon="-118.3938967">
  <ele>-9.481</ele>
  <time>2026-09-02T22:13:05Z</time>
  <course>187.32</course>
  <speed>1.6984993376507393</speed>
  <fix>3d</fix>
</trkpt>
<trkpt lat="33.8101134" lon="-118.3939027">
  <ele>-7.72</ele>
  <time>2026-09-02T22:13:05Z</time>
  <course>187.48</course>
  <speed>1.76</speed>
  <fix>3d</fix>
</trkpt>
<trkpt lat="33.8101012" lon="-118.393897">
  <ele>-9.483</ele>
  <time>2026-09-02T22:13:05Z</time>
  <course>187.32</course>
  <speed>1.6984993376507393</speed>
  <fix>3d</fix>
</trkpt>
<trkpt lat="33.8101134" lon="-118.3939027">
  <ele>-7.72</ele>
  <time>2026-09-02T22:13:05Z</time>
  <course>187.48</course>
  <speed>1.76</speed>
  <fix>3d</fix>
</trkpt>
<trkpt lat="33.8100996" lon="-118.3938972">
  <ele>-9.483</ele>
  <time>2026-09-02T22:13:05Z</time>
  <course>187.32</course>
  <speed>1.708391055935379</speed>
  <fix>3d</fix>
</trkpt>
<trkpt lat="33.8101099" lon="-118.3939053">
  <ele>-7.73</ele>
  <time>2026-09-02T22:13:05Z</time>
  <course>187.42</course>
  <speed>1.76</speed>
  <fix>3d</fix>
</trkpt>
<trkpt lat="33.8100981" lon="-118.3938975">
  <ele>-9.483</ele>
  <time>2026-09-02T22:13:05Z</time>
  <course>187.32</course>
  <speed>1.7069563556224865</speed>
  <fix>3d</fix>
</trkpt>
<trkpt lat="33.8101099" lon="-118.3939053">
  <ele>-7.73</ele>
  <time>2026-09-02T22:13:05Z</time>
  <course>187.42</course>
  <speed>1.76</speed>
  <fix>3d</fix>
</trkpt>
<trkpt lat="33.8100965" lon="-118.3938977">
  <ele>-9.482</ele>
  <time>2026-09-02T22:13:05Z</time>
  <course>187.32</course>
  <speed>1.7069563556224865</speed>
  <fix>3d</fix>
</trkpt>
<trkpt lat="33.8101062" lon="-118.3939078">
  <ele>-7.74</ele>
  <time>2026-09-02T22:13:05Z</time>
  <course>187.35</course>
  <speed>1.76</speed>
  <fix>3d</fix>
</trkpt>
<trkpt lat="33.8100949" lon="-118.393898">
  <ele>-9.48</ele>
  <time>2026-09-02T22:13:05Z</time>
  <course>187.32</course>
  <speed>1.7069563556224865</speed>
  <fix>3d</fix>
</trkpt>
<trkpt lat="33.8101062" lon="-118.3939078">
  <ele>-7.74</ele>
  <time>2026-09-02T22:13:05Z</time>
  <course>187.35</course>
  <speed>1.76</speed>
  <fix>3d</fix>
</trkpt>
<trkpt lat="33.8100933" lon="-118.3938982">
  <ele>-9.48</ele>
  <time>2026-09-02T22:13:05Z</time>
  <course>187.32</course>
  <speed>1.7069563556224865</speed>
  <fix>3d</fix>
</trkpt>
<trkpt lat="33.8101023" lon="-118.3939102">
  <ele>-7.74</ele>
  <time>2026-09-02T22:13:05Z</time>
  <course>187.27</course>
  <speed>1.76</speed>
  <fix>3d</fix>
</trkpt>
<trkpt lat="33.8100918" lon="-118.3938985">
  <ele>-9.479</ele>
  <time>2026-09-02T22:13:05Z</time>
  <course>187.33</course>
  <speed>1.7168575945604807</speed>
  <fix>3d</fix>
</trkpt>
<trkpt lat="33.8101023" lon="-118.3939102">
  <ele>-7.74</ele>
  <time>2026-09-02T22:13:05Z</time>
  <course>187.27</course>
  <speed>1.76</speed>
  <fix>3d</fix>
</trkpt>
<trkpt lat="33.8100902" lon="-118.3938987">
  <ele>-9.478</ele>
  <time>2026-09-02T22:13:05Z</time>
  <course>187.33</course>
  <speed>1.7168575945604807</speed>
  <fix>3d</fix>
</trkpt>
<trkpt lat="33.8100982" lon="-118.3939126">
  <ele>-7.75</ele>
  <time>2026-09-02T22:13:05Z</time>
  <course>187.18</course>
  <speed>1.76</speed>
  <fix>3d</fix>
</trkpt>
<trkpt lat="33.8100886" lon="-118.393899">
  <ele>-9.476</ele>
  <time>2026-09-02T22:13:05Z</time>
  <course>187.33</course>
  <speed>1.7168575945604807</speed>
  <fix>3d</fix>
</trkpt>
<trkpt lat="33.8100982" lon="-118.3939126">
  <ele>-7.75</ele>
  <time>2026-09-02T22:13:05Z</time>
  <course>187.18</course>
  <speed>1.76</speed>
  <fix>3d</fix>
</trkpt>
<trkpt lat="33.8100871" lon="-118.3938992">
  <ele>-9.474</ele>
  <time>2026-09-02T22:13:05Z</time>
  <course>187.33</course>
  <speed>1.7168575945604807</speed>
  <fix>3d</fix>
</trkpt>
<trkpt lat="33.810094" lon="-118.3939148">
  <ele>-7.75</ele>
  <time>2026-09-02T22:13:05Z</time>
  <course>187.09</course>
  <speed>1.76</speed>
  <fix>3d</fix>
</trkpt>
<trkpt lat="33.8100855" lon="-118.3938995">
  <ele>-9.473</ele>
  <time>2026-09-02T22:13:05Z</time>
  <course>187.33</course>
  <speed>1.7168575945604807</speed>
  <fix>3d</fix>
</trkpt>
<trkpt lat="33.810094" lon="-118.3939148">
  <ele>-7.75</ele>
  <time>2026-09-02T22:13:05Z</time>
  <course>187.09</course>
  <speed>1.76</speed>
  <fix>3d</fix>
</trkpt>
<trkpt lat="33.8100839" lon="-118.3938997">
  <ele>-9.473</ele>
  <time>2026-09-02T22:13:05Z</time>
  <course>187.33</course>
  <speed>1.7168575945604807</speed>
  <fix>3d</fix>
</trkpt>
<trkpt lat="33.8100896" lon="-118.3939169">
  <ele>-7.75</ele>
  <time>2026-09-02T22:13:05Z</time>
  <course>187.03</course>
  <speed>1.76</speed>
  <fix>3d</fix>
</trkpt>
<trkpt lat="33.8100823" lon="-118.3939">
  <ele>-9.473</ele>
  <time>2026-09-02T22:13:05Z</time>
  <course>187.33</course>
  <speed>1.7168575945604807</speed>
  <fix>3d</fix>
</trkpt>
<trkpt lat="33.8100896" lon="-118.3939169">
  <ele>-7.75</ele>
  <time>2026-09-02T22:13:05Z</time>
  <course>187.03</course>
  <speed>1.76</speed>
  <fix>3d</fix>
</trkpt>
<trkpt lat="33.8100808" lon="-118.3939002">
  <ele>-9.475</ele>
  <time>2026-09-02T22:13:05Z</time>
  <course>187.33</course>
  <speed>1.7253985046939155</speed>
  <fix>3d</fix>
</trkpt>
<trkpt lat="33.8100852" lon="-118.3939188">
  <ele>-7.76</ele>
  <time>2026-09-02T22:13:05Z</time>
  <course>186.97</course>
  <speed>1.76</speed>
  <fix>3d</fix>
</trkpt>
<trkpt lat="33.8100792" lon="-118.3939005">
  <ele>-9.476</ele>
  <time>2026-09-02T22:13:05Z</time>
  <course>187.33</course>
  <speed>1.7253985046939155</speed>
  <fix>3d</fix>
</trkpt>
<trkpt lat="33.8100852" lon="-118.3939188">
  <ele>-7.76</ele>
  <time>2026-09-02T22:13:05Z</time>
  <course>186.97</course>
  <speed>1.76</speed>
  <fix>3d</fix>
</trkpt>
<trkpt lat="33.8100777" lon="-118.3939007">
  <ele>-9.477</ele>
  <time>2026-09-02T22:13:05Z</time>
  <course>187.32</course>
  <speed>1.7353097706173386</speed>
  <fix>3d</fix>
</trkpt>
<trkpt lat="33.8100805" lon="-118.3939206">
  <ele>-7.77</ele>
  <time>2026-09-02T22:13:05Z</time>
  <course>186.85</course>
  <speed>1.77</speed>
  <fix>3d</fix>
</trkpt>
<trkpt lat="33.8100761" lon="-118.393901">
  <ele>-9.478</ele>
  <time>2026-09-02T22:13:05Z</time>
  <course>187.32</course>
  <speed>1.7353097706173386</speed>
  <fix>3d</fix>
</trkpt>
<trkpt lat="33.8100805" lon="-118.3939206">
  <ele>-7.77</ele>
  <time>2026-09-02T22:13:05Z</time>
  <course>186.85</course>
  <speed>1.77</speed>
  <fix>3d</fix>
</trkpt>
<trkpt lat="33.8100746" lon="-118.3939012">
  <ele>-9.478</ele>
  <time>2026-09-02T22:13:05Z</time>
  <course>187.32</course>
  <speed>1.7353097706173386</speed>
  <fix>3d</fix>
</trkpt>
<trkpt lat="33.8100758" lon="-118.3939221">
  <ele>-7.78</ele>
  <time>2026-09-02T22:13:05Z</time>
  <course>186.7</course>
  <speed>1.78</speed>
  <fix>3d</fix>
</trkpt>
<trkpt lat="33.810073" lon="-118.3939014">
  <ele>-9.479</ele>
  <time>2026-09-02T22:13:05Z</time>
  <course>187.32</course>
  <speed>1.7452220489095365</speed>
  <fix>3d</fix>
</trkpt>
<trkpt lat="33.8100758" lon="-118.3939221">
  <ele>-7.78</ele>
  <time>2026-09-02T22:13:05Z</time>
  <course>186.7</course>
  <speed>1.78</speed>
  <fix>3d</fix>
</trkpt>
<trkpt lat="33.8100715" lon="-118.3939017">
  <ele>-9.479</ele>
  <time>2026-09-02T22:13:05Z</time>
  <course>187.32</course>
  <speed>1.7452220489095365</speed>
  <fix>3d</fix>
</trkpt>
<trkpt lat="33.810071" lon="-118.3939235">
  <ele>-7.78</ele>
  <time>2026-09-02T22:13:05Z</time>
  <course>186.54</course>
  <speed>1.79</speed>
  <fix>3d</fix>
</trkpt>
<trkpt lat="33.8100699" lon="-118.3939019">
  <ele>-9.479</ele>
  <time>2026-09-02T22:13:05Z</time>
  <course>187.33</course>
  <speed>1.7452220489095365</speed>
  <fix>3d</fix>
</trkpt>
<trkpt lat="33.810071" lon="-118.3939235">
  <ele>-7.78</ele>
  <time>2026-09-02T22:13:05Z</time>
  <course>186.54</course>
  <speed>1.79</speed>
  <fix>3d</fix>
</trkpt>
<trkpt lat="33.8100684" lon="-118.3939022">
  <ele>-9.478</ele>
  <time>2026-09-02T22:13:05Z</time>
  <course>187.33</course>
  <speed>1.755135322418189</speed>
  <fix>3d</fix>
</trkpt>
<trkpt lat="33.8100661" lon="-118.3939246">
  <ele>-7.79</ele>
  <time>2026-09-02T22:13:05Z</time>
  <course>186.39</course>
  <speed>1.8</speed>
  <fix>3d</fix>
</trkpt>
<trkpt lat="33.8100668" lon="-118.3939024">
  <ele>-9.477</ele>
  <time>2026-09-02T22:13:05Z</time>
  <course>187.33</course>
  <speed>1.755135322418189</speed>
  <fix>3d</fix>
</trkpt>
<trkpt lat="33.8100661" lon="-118.3939246">
  <ele>-7.79</ele>
  <time>2026-09-02T22:13:05Z</time>
  <course>186.39</course>
  <speed>1.8</speed>
  <fix>3d</fix>
</trkpt>
<trkpt lat="33.8100652" lon="-118.3939027">
  <ele>-9.476</ele>
  <time>2026-09-02T22:13:05Z</time>
  <course>187.33</course>
  <speed>1.755135322418189</speed>
  <fix>3d</fix>
</trkpt>
<trkpt lat="33.8100611" lon="-118.3939256">
  <ele>-7.79</ele>
  <time>2026-09-02T22:13:05Z</time>
  <course>186.28</course>
  <speed>1.81</speed>
  <fix>3d</fix>
</trkpt>
<trkpt lat="33.8100637" lon="-118.3939029">
  <ele>-9.476</ele>
  <time>2026-09-02T22:13:05Z</time>
  <course>187.32</course>
  <speed>1.755135322418189</speed>
  <fix>3d</fix>
</trkpt>
<trkpt lat="33.8100611" lon="-118.3939256">
  <ele>-7.79</ele>
  <time>2026-09-02T22:13:05Z</time>
  <course>186.28</course>
  <speed>1.81</speed>
  <fix>3d</fix>
</trkpt>
<trkpt lat="33.8100621" lon="-118.3939031">
  <ele>-9.475</ele>
  <time>2026-09-02T22:13:05Z</time>
  <course>187.32</course>
  <speed>1.755135322418189</speed>
  <fix>3d</fix>
</trkpt>
<trkpt lat="33.8100561" lon="-118.3939263">
  <ele>-7.79</ele>
  <time>2026-09-02T22:13:05Z</time>
  <course>186.19</course>
  <speed>1.82</speed>
  <fix>3d</fix>
</trkpt>
<trkpt lat="33.8100605" lon="-118.3939034">
  <ele>-9.476</ele>
  <time>2026-09-02T22:13:05Z</time>
  <course>187.32</course>
  <speed>1.755135322418189</speed>
  <fix>3d</fix>
</trkpt>
<trkpt lat="33.8100561" lon="-118.3939263">
  <ele>-7.79</ele>
  <time>2026-09-02T22:13:05Z</time>
  <course>186.19</course>
  <speed>1.82</speed>
  <fix>3d</fix>
</trkpt>
<trkpt lat="33.810059" lon="-118.3939036">
  <ele>-9.476</ele>
  <time>2026-09-02T22:13:05Z</time>
  <course>187.33</course>
  <speed>1.755135322418189</speed>
  <fix>3d</fix>
</trkpt>
<trkpt lat="33.810051" lon="-118.3939268">
  <ele>-7.8</ele>
  <time>2026-09-02T22:13:05Z</time>
  <course>186.12</course>
  <speed>1.82</speed>
  <fix>3d</fix>
</trkpt>
<trkpt lat="33.8100574" lon="-118.3939039">
  <ele>-9.476</ele>
  <time>2026-09-02T22:13:05Z</time>
  <course>187.32</course>
  <speed>1.7650495743746122</speed>
  <fix>3d</fix>
</trkpt>
<trkpt lat="33.810051" lon="-118.3939268">
  <ele>-7.8</ele>
  <time>2026-09-02T22:13:05Z</time>
  <course>186.12</course>
  <speed>1.82</speed>
  <fix>3d</fix>
</trkpt>
<trkpt lat="33.8100558" lon="-118.3939041">
  <ele>-9.476</ele>
  <time>2026-09-02T22:13:05Z</time>
  <course>187.32</course>
  <speed>1.7650495743746122</speed>
  <fix>3d</fix>
</trkpt>
<trkpt lat="33.810046" lon="-118.3939271">
  <ele>-7.81</ele>
  <time>2026-09-02T22:13:05Z</time>
  <course>186.07</course>
  <speed>1.83</speed>
  <fix>3d</fix>
</trkpt>
<trkpt lat="33.8100543" lon="-118.3939044">
  <ele>-9.474</ele>
  <time>2026-09-02T22:13:05Z</time>
  <course>187.32</course>
  <speed>1.7650495743746122</speed>
  <fix>3d</fix>
</trkpt>
<trkpt lat="33.810046" lon="-118.3939271">
  <ele>-7.81</ele>
  <time>2026-09-02T22:13:05Z</time>
  <course>186.07</course>
  <speed>1.83</speed>
  <fix>3d</fix>
</trkpt>
<trkpt lat="33.8100527" lon="-118.3939046">
  <ele>-9.473</ele>
  <time>2026-09-02T22:13:05Z</time>
  <course>187.32</course>
  <speed>1.7650495743746122</speed>
  <fix>3d</fix>
</trkpt>
<trkpt lat="33.8100409" lon="-118.3939272">
  <ele>-7.81</ele>
  <time>2026-09-02T22:13:05Z</time>
  <course>186.01</course>
  <speed>1.83</speed>
  <fix>3d</fix>
</trkpt>
<trkpt lat="33.8100511" lon="-118.3939048">
  <ele>-9.471</ele>
  <time>2026-09-02T22:13:05Z</time>
  <course>187.33</course>
  <speed>1.7650495743746122</speed>
  <fix>3d</fix>
</trkpt>
<trkpt lat="33.8100409" lon="-118.3939272">
  <ele>-7.81</ele>
  <time>2026-09-02T22:13:05Z</time>
  <course>186.01</course>
  <speed>1.83</speed>
  <fix>3d</fix>
</trkpt>
<trkpt lat="33.8100495" lon="-118.3939051">
  <ele>-9.471</ele>
  <time>2026-09-02T22:13:05Z</time>
  <course>187.33</course>
  <speed>1.755135322418189</speed>
  <fix>3d</fix>
</trkpt>
<trkpt lat="33.8100359" lon="-118.393927">
  <ele>-7.82</ele>
  <time>2026-09-02T22:13:05Z</time>
  <course>185.94</course>
  <speed>1.83</speed>
  <fix>3d</fix>
</trkpt>
<trkpt lat="33.810048" lon="-118.3939053">
  <ele>-9.471</ele>
  <time>2026-09-02T22:13:05Z</time>
  <course>187.33</course>
  <speed>1.7650495743746122</speed>
  <fix>3d</fix>
</trkpt>
<trkpt lat="33.8100359" lon="-118.393927">
  <ele>-7.82</ele>
  <time>2026-09-02T22:13:05Z</time>
  <course>185.94</course>
  <speed>1.83</speed>
  <fix>3d</fix>
</trkpt>
<trkpt lat="33.8100464" lon="-118.3939056">
  <ele>-9.473</ele>
  <time>2026-09-02T22:13:05Z</time>
  <course>187.33</course>
  <speed>1.7650495743746122</speed>
  <fix>3d</fix>
</trkpt>
<trkpt lat="33.8100309" lon="-118.3939267">
  <ele>-7.83</ele>
  <time>2026-09-02T22:13:05Z</time>
  <course>185.9</course>
  <speed>1.84</speed>
  <fix>3d</fix>
</trkpt>
<trkpt lat="33.8100448" lon="-118.3939058">
  <ele>-9.476</ele>
  <time>2026-09-02T22:13:05Z</time>
  <course>187.33</course>
  <speed>1.7650495743746122</speed>
  <fix>3d</fix>
</trkpt>
<trkpt lat="33.8100309" lon="-118.3939267">
  <ele>-7.83</ele>
  <time>2026-09-02T22:13:05Z</time>
  <course>185.9</course>
  <speed>1.84</speed>
  <fix>3d</fix>
</trkpt>
<trkpt lat="33.8100433" lon="-118.393906">
  <ele>-9.479</ele>
  <time>2026-09-02T22:13:05Z</time>
  <course>187.33</course>
  <speed>1.7650495743746122</speed>
  <fix>3d</fix>
</trkpt>
<trkpt lat="33.810026" lon="-118.3939261">
  <ele>-7.84</ele>
  <time>2026-09-02T22:13:05Z</time>
  <course>185.86</course>
  <speed>1.84</speed>
  <fix>3d</fix>
</trkpt>
<trkpt lat="33.8100417" lon="-118.3939063">
  <ele>-9.482</ele>
  <time>2026-09-02T22:13:05Z</time>
  <course>187.33</course>
  <speed>1.755135322418189</speed>
  <fix>3d</fix>
</trkpt>
<trkpt lat="33.810026" lon="-118.3939261">
  <ele>-7.84</ele>
  <time>2026-09-02T22:13:05Z</time>
  <course>185.86</course>
  <speed>1.84</speed>
  <fix>3d</fix>
</trkpt>
<trkpt lat="33.8100401" lon="-118.3939065">
  <ele>-9.484</ele>
  <time>2026-09-02T22:13:05Z</time>
  <course>187.33</course>
  <speed>1.755135322418189</speed>
  <fix>3d</fix>
</trkpt>
<trkpt lat="33.8100212" lon="-118.3939254">
  <ele>-7.85</ele>
  <time>2026-09-02T22:13:05Z</time>
  <course>185.81</course>
  <speed>1.84</speed>
  <fix>3d</fix>
</trkpt>
<trkpt lat="33.8100385" lon="-118.3939068">
  <ele>-9.485</ele>
  <time>2026-09-02T22:13:05Z</time>
  <course>187.33</course>
  <speed>1.755135322418189</speed>
  <fix>3d</fix>
</trkpt>
<trkpt lat="33.8100212" lon="-118.3939254">
  <ele>-7.85</ele>
  <time>2026-09-02T22:13:05Z</time>
  <course>185.81</course>
  <speed>1.84</speed>
  <fix>3d</fix>
</trkpt>
<trkpt lat="33.8100369" lon="-118.393907">
  <ele>-9.484</ele>
  <time>2026-09-02T22:13:05Z</time>
  <course>187.33</course>
  <speed>1.7564737401965338</speed>
  <fix>3d</fix>
</trkpt>
<trkpt lat="33.8100165" lon="-118.3939244">
  <ele>-7.86</ele>
  <time>2026-09-02T22:13:05Z</time>
  <course>185.77</course>
  <speed>1.85</speed>
  <fix>3d</fix>
</trkpt>
<trkpt lat="33.8100354" lon="-118.3939072">
  <ele>-9.484</ele>
  <time>2026-09-02T22:13:05Z</time>
  <course>187.33</course>
  <speed>1.7564737401965338</speed>
  <fix>3d</fix>
</trkpt>
<trkpt lat="33.8100165" lon="-118.3939244">
  <ele>-7.86</ele>
  <time>2026-09-02T22:13:05Z</time>
  <course>185.77</course>
  <speed>1.85</speed>
  <fix>3d</fix>
</trkpt>
<trkpt lat="33.8100338" lon="-118.3939075">
  <ele>-9.483</ele>
  <time>2026-09-02T22:13:05Z</time>
  <course>187.33</course>
  <speed>1.7564737401965338</speed>
  <fix>3d</fix>
</trkpt>
<trkpt lat="33.8100119" lon="-118.3939233">
  <ele>-7.86</ele>
  <time>2026-09-02T22:13:05Z</time>
  <course>185.72</course>
  <speed>1.85</speed>
  <fix>3d</fix>
</trkpt>
<trkpt lat="33.8100322" lon="-118.3939077">
  <ele>-9.48</ele>
  <time>2026-09-02T22:13:05Z</time>
  <course>187.33</course>
  <speed>1.7564737401965338</speed>
  <fix>3d</fix>
</trkpt>
<trkpt lat="33.8100119" lon="-118.3939233">
  <ele>-7.86</ele>
  <time>2026-09-02T22:13:05Z</time>
  <course>185.72</course>
  <speed>1.85</speed>
  <fix>3d</fix>
</trkpt>
<trkpt lat="33.8100307" lon="-118.393908">
  <ele>-9.477</ele>
  <time>2026-09-02T22:13:05Z</time>
  <course>187.33</course>
  <speed>1.7564737401965338</speed>
  <fix>3d</fix>
</trkpt>
<trkpt lat="33.8100074" lon="-118.3939221">
  <ele>-7.86</ele>
  <time>2026-09-02T22:13:05Z</time>
  <course>185.67</course>
  <speed>1.85</speed>
  <fix>3d</fix>
</trkpt>
<trkpt lat="33.8100291" lon="-118.3939082">
  <ele>-9.475</ele>
  <time>2026-09-02T22:13:05Z</time>
  <course>187.33</course>
  <speed>1.746568063374571</speed>
  <fix>3d</fix>
</trkpt>
<trkpt lat="33.8100074" lon="-118.3939221">
  <ele>-7.86</ele>
  <time>2026-09-02T22:13:05Z</time>
  <course>185.67</course>
  <speed>1.85</speed>
  <fix>3d</fix>
</trkpt>
<trkpt lat="33.8100275" lon="-118.3939084">
  <ele>-9.473</ele>
  <time>2026-09-02T22:13:05Z</time>
  <course>187.33</course>
  <speed>1.746568063374571</speed>
  <fix>3d</fix>
</trkpt>
<trkpt lat="33.8100031" lon="-118.3939207">
  <ele>-7.86</ele>
  <time>2026-09-02T22:13:05Z</time>
  <course>185.62</course>
  <speed>1.85</speed>
  <fix>3d</fix>
</trkpt>
<trkpt lat="33.810026" lon="-118.3939087">
  <ele>-9.471</ele>
  <time>2026-09-02T22:13:05Z</time>
  <course>187.32</course>
  <speed>1.746568063374571</speed>
  <fix>3d</fix>
</trkpt>
<trkpt lat="33.8100031" lon="-118.3939207">
  <ele>-7.86</ele>
  <time>2026-09-02T22:13:05Z</time>
  <course>185.62</course>
  <speed>1.85</speed>
  <fix>3d</fix>
</trkpt>
<trkpt lat="33.8100244" lon="-118.3939089">
  <ele>-9.471</ele>
  <time>2026-09-02T22:13:05Z</time>
  <course>187.32</course>
  <speed>1.746568063374571</speed>
  <fix>3d</fix>
</trkpt>
<trkpt lat="33.8099988" lon="-118.3939192">
  <ele>-7.86</ele>
  <time>2026-09-02T22:13:05Z</time>
  <course>185.57</course>
  <speed>1.85</speed>
  <fix>3d</fix>
</trkpt>
<trkpt lat="33.8100228" lon="-118.3939092">
  <ele>-9.471</ele>
  <time>2026-09-02T22:13:05Z</time>
  <course>187.32</course>
  <speed>1.746568063374571</speed>
  <fix>3d</fix>
</trkpt>
<trkpt lat="33.8099988" lon="-118.3939192">
  <ele>-7.86</ele>
  <time>2026-09-02T22:13:05Z</time>
  <course>185.57</course>
  <speed>1.85</speed>
  <fix>3d</fix>
</trkpt>
<trkpt lat="33.8100213" lon="-118.3939094">
  <ele>-9.47</ele>
  <time>2026-09-02T22:13:05Z</time>
  <course>187.33</course>
  <speed>1.7564737401965338</speed>
  <fix>3d</fix>
</trkpt>
<trkpt lat="33.8099948" lon="-118.3939177">
  <ele>-7.87</ele>
  <time>2026-09-02T22:13:05Z</time>
  <course>185.53</course>
  <speed>1.86</speed>
  <fix>3d</fix>
</trkpt>
<trkpt lat="33.8100197" lon="-118.3939097">
  <ele>-9.469</ele>
  <time>2026-09-02T22:13:05Z</time>
  <course>187.33</course>
  <speed>1.7564737401965338</speed>
  <fix>3d</fix>
</trkpt>
<trkpt lat="33.8099948" lon="-118.3939177">
  <ele>-7.87</ele>
  <time>2026-09-02T22:13:05Z</time>
  <course>185.53</course>
  <speed>1.86</speed>
  <fix>3d</fix>
</trkpt>
<trkpt lat="33.8100181" lon="-118.3939099">
  <ele>-9.468</ele>
  <time>2026-09-02T22:13:05Z</time>
  <course>187.33</course>
  <speed>1.746568063374571</speed>
  <fix>3d</fix>
</trkpt>
<trkpt lat="33.8099909" lon="-118.393916">
  <ele>-7.88</ele>
  <time>2026-09-02T22:13:05Z</time>
  <course>185.48</course>
  <speed>1.87</speed>
  <fix>3d</fix>
</trkpt>
<trkpt lat="33.8100165" lon="-118.3939101">
  <ele>-9.468</ele>
  <time>2026-09-02T22:13:05Z</time>
  <course>187.33</course>
  <speed>1.746568063374571</speed>
  <fix>3d</fix>
</trkpt>
<trkpt lat="33.8099909" lon="-118.393916">
  <ele>-7.88</ele>
  <time>2026-09-02T22:13:05Z</time>
  <course>185.48</course>
  <speed>1.87</speed>
  <fix>3d</fix>
</trkpt>
<trkpt lat="33.810015" lon="-118.3939104">
  <ele>-9.469</ele>
  <time>2026-09-02T22:13:05Z</time>
  <course>187.33</course>
  <speed>1.746568063374571</speed>
  <fix>3d</fix>
</trkpt>
<trkpt lat="33.8099872" lon="-118.3939143">
  <ele>-7.89</ele>
  <time>2026-09-02T22:13:05Z</time>
  <course>185.42</course>
  <speed>1.87</speed>
  <fix>3d</fix>
</trkpt>
<trkpt lat="33.8100134" lon="-118.3939106">
  <ele>-9.471</ele>
  <time>2026-09-02T22:13:05Z</time>
  <course>187.33</course>
  <speed>1.7564737401965338</speed>
  <fix>3d</fix>
</trkpt>
<trkpt lat="33.8099872" lon="-118.3939143">
  <ele>-7.89</ele>
  <time>2026-09-02T22:13:05Z</time>
  <course>185.42</course>
  <speed>1.87</speed>
  <fix>3d</fix>
</trkpt>
<trkpt lat="33.8100118" lon="-118.3939109">
  <ele>-9.473</ele>
  <time>2026-09-02T22:13:05Z</time>
  <course>187.33</course>
  <speed>1.7564737401965338</speed>
  <fix>3d</fix>
</trkpt>
<trkpt lat="33.8099837" lon="-118.3939125">
  <ele>-7.9</ele>
  <time>2026-09-02T22:13:05Z</time>
  <course>185.37</course>
  <speed>1.87</speed>
  <fix>3d</fix>
</trkpt>
<trkpt lat="33.8100102" lon="-118.3939111">
  <ele>-9.476</ele>
  <time>2026-09-02T22:13:05Z</time>
  <course>187.33</course>
  <speed>1.7564737401965338</speed>
  <fix>3d</fix>
</trkpt>
<trkpt lat="33.8099837" lon="-118.3939125">
  <ele>-7.9</ele>
  <time>2026-09-02T22:13:05Z</time>
  <course>185.37</course>
  <speed>1.87</speed>
  <fix>3d</fix>
</trkpt>
<trkpt lat="33.8100087" lon="-118.3939113">
  <ele>-9.478</ele>
  <time>2026-09-02T22:13:05Z</time>
  <course>187.33</course>
  <speed>1.746568063374571</speed>
  <fix>3d</fix>
</trkpt>
<trkpt lat="33.8099803" lon="-118.3939107">
  <ele>-7.91</ele>
  <time>2026-09-02T22:13:05Z</time>
  <course>185.33</course>
  <speed>1.88</speed>
  <fix>3d</fix>
</trkpt>
<trkpt lat="33.8100071" lon="-118.3939116">
  <ele>-9.481</ele>
  <time>2026-09-02T22:13:05Z</time>
  <course>187.33</course>
  <speed>1.746568063374571</speed>
  <fix>3d</fix>
</trkpt>
<trkpt lat="33.8099803" lon="-118.3939107">
  <ele>-7.91</ele>
  <time>2026-09-02T22:13:05Z</time>
  <course>185.33</course>
  <speed>1.88</speed>
  <fix>3d</fix>
</trkpt>
<trkpt lat="33.8100055" lon="-118.3939118">
  <ele>-9.483</ele>
  <time>2026-09-02T22:13:05Z</time>
  <course>187.33</course>
  <speed>1.746568063374571</speed>
  <fix>3d</fix>
</trkpt>
<trkpt lat="33.8099771" lon="-118.3939089">
  <ele>-7.92</ele>
  <time>2026-09-02T22:13:05Z</time>
  <course>185.3</course>
  <speed>1.88</speed>
  <fix>3d</fix>
</trkpt>
<trkpt lat="33.810004" lon="-118.3939121">
  <ele>-9.483</ele>
  <time>2026-09-02T22:13:05Z</time>
  <course>187.33</course>
  <speed>1.6871573726241424</speed>
  <fix>3d</fix>
</trkpt>
<trkpt lat="33.8099771" lon="-118.3939089">
  <ele>-7.92</ele>
  <time>2026-09-02T22:13:05Z</time>
  <course>185.3</course>
  <speed>1.88</speed>
  <fix>3d</fix>
</trkpt>
<trkpt lat="33.8100026" lon="-118.3939123">
  <ele>-9.483</ele>
  <time>2026-09-02T22:13:05Z</time>
  <course>187.33</course>
  <speed>1.0932977636490435</speed>
  <fix>3d</fix>
</trkpt>
<trkpt lat="33.8099741" lon="-118.3939072">
  <ele>-7.93</ele>
  <time>2026-09-02T22:13:05Z</time>
  <course>185.27</course>
  <speed>1.85</speed>
  <fix>3d</fix>
</trkpt>
<trkpt lat="33.8100019" lon="-118.3939124">
  <ele>-9.483</ele>
  <time>2026-09-02T22:13:05Z</time>
  <course>187.33</course>
  <speed>0.6395310782127792</speed>
  <fix>3d</fix>
</trkpt>
<trkpt lat="33.8099741" lon="-118.3939072">
  <ele>-7.93</ele>
  <time>2026-09-02T22:13:05Z</time>
  <course>185.27</course>
  <speed>1.85</speed>
  <fix>3d</fix>
</trkpt>
<trkpt lat="33.8100014" lon="-118.3939125">
  <ele>-9.483</ele>
  <time>2026-09-02T22:13:05Z</time>
  <course>187.33</course>
  <speed>0.4295346318982906</speed>
  <fix>3d</fix>
</trkpt>
<trkpt lat="33.8099719" lon="-118.3939054">
  <ele>-7.93</ele>
  <time>2026-09-02T22:13:05Z</time>
  <course>184.54</course>
  <speed>1.25</speed>
  <fix>3d</fix>
</trkpt>
<trkpt lat="33.8100011" lon="-118.3939125">
  <ele>-9.482</ele>
  <time>2026-09-02T22:13:05Z</time>
  <course>187.33</course>
  <speed>0.31048349392520047</speed>
  <fix>3d</fix>
</trkpt>
<trkpt lat="33.8099719" lon="-118.3939054">
  <ele>-7.93</ele>
  <time>2026-09-02T22:13:05Z</time>
  <course>184.54</course>
  <speed>1.25</speed>
  <fix>3d</fix>
</trkpt>
<trkpt lat="33.8100008" lon="-118.3939126">
  <ele>-9.479</ele>
  <time>2026-09-02T22:13:05Z</time>
  <course>187.33</course>
  <speed>0.2308679276123039</speed>
  <fix>3d</fix>
</trkpt>
<trkpt lat="33.8099711" lon="-118.3939035">
  <ele>-7.94</ele>
  <time>2026-09-02T22:13:05Z</time>
  <course>181.8</course>
  <speed>0.56</speed>
  <fix>3d</fix>
</trkpt>
<trkpt lat="33.8100006" lon="-118.3939126">
  <ele>-9.475</ele>
  <time>2026-09-02T22:13:05Z</time>
  <course>187.33</course>
  <speed>0.17464249196572978</speed>
  <fix>3d</fix>
</trkpt>
<trkpt lat="33.8099711" lon="-118.3939035">
  <ele>-7.94</ele>
  <time>2026-09-02T22:13:05Z</time>
  <course>181.8</course>
  <speed>0.56</speed>
  <fix>3d</fix>
</trkpt>
<trkpt lat="33.8100004" lon="-118.3939127">
  <ele>-9.471</ele>
  <time>2026-09-02T22:13:05Z</time>
  <course>187.33</course>
  <speed>0.1341640786499874</speed>
  <fix>3d</fix>
</trkpt>
<trkpt lat="33.8099711" lon="-118.3939016">
  <ele>-7.94</ele>
  <time>2026-09-02T22:13:05Z</time>
  <course>179.46</course>
  <speed>0.36</speed>
  <fix>3d</fix>
</trkpt>
<trkpt lat="33.8100003" lon="-118.3939127">
  <ele>-9.468</ele>
  <time>2026-09-02T22:13:05Z</time>
  <course>187.33</course>
  <speed>0.1</speed>
  <fix>3d</fix>
</trkpt>
<trkpt lat="33.8099711" lon="-118.3939016">
  <ele>-7.94</ele>
  <time>2026-09-02T22:13:05Z</time>
  <course>179.46</course>
  <speed>0.36</speed>
  <fix>3d</fix>
</trkpt>
<trkpt lat="33.8100002" lon="-118.3939128">
  <ele>-9.467</ele>
  <time>2026-09-02T22:13:05Z</time>
  <course>187.33</course>
  <speed>0.0848528137423857</speed>
  <fix>3d</fix>
</trkpt>
<trkpt lat="33.8099716" lon="-118.3938998">
  <ele>-7.94</ele>
  <time>2026-09-02T22:13:05Z</time>
  <course>177.46</course>
  <speed>0.27</speed>
  <fix>3d</fix>
</trkpt>
<trkpt lat="33.8100001" lon="-118.3939128">
  <ele>-9.467</ele>
  <time>2026-09-02T22:13:05Z</time>
  <course>187.33</course>
  <speed>0.07211102550927978</speed>
  <fix>3d</fix>
</trkpt>
<trkpt lat="33.8099716" lon="-118.3938998">
  <ele>-7.94</ele>
  <time>2026-09-02T22:13:05Z</time>
  <course>177.46</course>
  <speed>0.27</speed>
  <fix>3d</fix>
</trkpt>
<trkpt lat="33.81" lon="-118.3939129">
  <ele>-9.467</ele>
  <time>2026-09-02T22:13:05Z</time>
  <course>187.33</course>
  <speed>0.0632455532033676</speed>
  <fix>3d</fix>
</trkpt>
<trkpt lat="33.8099723" lon="-118.3938982">
  <ele>-7.95</ele>
  <time>2026-09-02T22:13:05Z</time>
  <course>175.74</course>
  <speed>0.22</speed>
  <fix>3d</fix>
</trkpt>
<trkpt lat="33.8099999" lon="-118.3939129">
  <ele>-9.469</ele>
  <time>2026-09-02T22:13:05Z</time>
  <course>187.33</course>
  <speed>0.06</speed>
  <fix>3d</fix>
</trkpt>
<trkpt lat="33.8099723" lon="-118.3938982">
  <ele>-7.95</ele>
  <time>2026-09-02T22:13:05Z</time>
  <course>175.74</course>
  <speed>0.22</speed>
  <fix>3d</fix>
</trkpt>
<trkpt lat="33.8099999" lon="-118.393913">
  <ele>-9.471</ele>
  <time>2026-09-02T22:13:05Z</time>
  <course>187.32</course>
  <speed>0.06082762530298219</speed>
  <fix>3d</fix>
</trkpt>
<trkpt lat="33.8099732" lon="-118.3938966">
  <ele>-7.95</ele>
  <time>2026-09-02T22:13:05Z</time>
  <course>174.22</course>
  <speed>0.18</speed>
  <fix>3d</fix>
</trkpt>
<trkpt lat="33.8099999" lon="-118.393913">
  <ele>-9.474</ele>
  <time>2026-09-02T22:13:05Z</time>
  <course>187.32</course>
  <speed>0.0632455532033676</speed>
  <fix>3d</fix>
</trkpt>
<trkpt lat="33.8099732" lon="-118.3938966">
  <ele>-7.95</ele>
  <time>2026-09-02T22:13:05Z</time>
  <course>174.22</course>
  <speed>0.18</speed>
  <fix>3d</fix>
</trkpt>
<trkpt lat="33.81" lon="-118.393913">
  <ele>-9.476</ele>
  <time>2026-09-02T22:13:05Z</time>
  <course>187.31</course>
  <speed>0.0670820393249937</speed>
  <fix>3d</fix>
</trkpt>
<trkpt lat="33.8099743" lon="-118.3938952">
  <ele>-7.97</ele>
  <time>2026-09-02T22:13:05Z</time>
  <course>172.85</course>
  <speed>0.15</speed>
  <fix>3d</fix>
</trkpt>
<trkpt lat="33.81" lon="-118.3939131">
  <ele>-9.477</ele>
  <time>2026-09-02T22:13:05Z</time>
  <course>187.31</course>
  <speed>0.07211102550927978</speed>
  <fix>3d</fix>
</trkpt>
<trkpt lat="33.8099743" lon="-118.3938952">
  <ele>-7.97</ele>
  <time>2026-09-02T22:13:05Z</time>
  <course>172.85</course>
  <speed>0.15</speed>
  <fix>3d</fix>
</trkpt>
<trkpt lat="33.81" lon="-118.3939131">
  <ele>-9.476</ele>
  <time>2026-09-02T22:13:05Z</time>
  <course>187.31</course>
  <speed>0.08602325267042626</speed>
  <fix>3d</fix>
</trkpt>
<trkpt lat="33.8099755" lon="-118.393894">
  <ele>-7.98</ele>
  <time>2026-09-02T22:13:05Z</time>
  <course>171.61</course>
  <speed>0.14</speed>
  <fix>3d</fix>
</trkpt>
<trkpt lat="33.81" lon="-118.3939132">
  <ele>-9.475</ele>
  <time>2026-09-02T22:13:05Z</time>
  <course>187.32</course>
  <speed>0.09219544457292887</speed>
  <fix>3d</fix>
</trkpt>
<trkpt lat="33.8099755" lon="-118.393894">
  <ele>-7.98</ele>
  <time>2026-09-02T22:13:05Z</time>
  <course>171.61</course>
  <speed>0.14</speed>
  <fix>3d</fix>
</trkpt>
<trkpt lat="33.81" lon="-118.3939132">
  <ele>-9.473</ele>
  <time>2026-09-02T22:13:05Z</time>
  <course>187.32</course>
  <speed>0.09899494936611665</speed>
  <fix>3d</fix>
</trkpt>
<trkpt lat="33.8099769" lon="-118.3938929">
  <ele>-7.99</ele>
  <time>2026-09-02T22:13:05Z</time>
  <course>170.49</course>
  <speed>0.12</speed>
  <fix>3d</fix>
</trkpt>
<trkpt lat="33.8099999" lon="-118.3939131">
  <ele>-9.474</ele>
  <time>2026-09-02T22:13:05Z</time>
  <course>187.31</course>
  <speed>0.0</speed>
  <fix>3d</fix>
</trkpt>
<trkpt lat="33.8099769" lon="-118.3938929">
  <ele>-7.99</ele>
  <time>2026-09-02T22:13:05Z</time>
  <course>170.49</course>
  <speed>0.12</speed>
  <fix>3d</fix>
</trkpt>
<trkpt lat="33.8099999" lon="-118.3939131">
  <ele>-9.474</ele>
  <time>2026-09-02T22:13:05Z</time>
  <course>187.31</course>
  <speed>0.01</speed>
  <fix>3d</fix>
</trkpt>
<trkpt lat="33.8099783" lon="-118.3938921">
  <ele>-7.99</ele>
  <time>2026-09-02T22:13:05Z</time>
  <course>169.46</course>
  <speed>0.11</speed>
  <fix>3d</fix>
</trkpt>
<trkpt lat="33.8099999" lon="-118.3939131">
  <ele>-9.474</ele>
  <time>2026-09-02T22:13:05Z</time>
  <course>187.31</course>
  <speed>0.02</speed>
  <fix>3d</fix>
</trkpt>
<trkpt lat="33.8099783" lon="-118.3938921">
  <ele>-7.99</ele>
  <time>2026-09-02T22:13:05Z</time>
  <course>169.46</course>
  <speed>0.11</speed>
  <fix>3d</fix>
</trkpt>
<trkpt lat="33.8099999" lon="-118.3939131">
  <ele>-9.473</ele>
  <time>2026-09-02T22:13:05Z</time>
  <course>187.32</course>
  <speed>0.03</speed>
  <fix>3d</fix>
</trkpt>
<trkpt lat="33.8099799" lon="-118.3938914">
  <ele>-8.0</ele>
  <time>2026-09-02T22:13:05Z</time>
  <course>168.54</course>
  <speed>0.1</speed>
  <fix>3d</fix>
</trkpt>
<trkpt lat="33.8099999" lon="-118.3939131">
  <ele>-9.473</ele>
  <time>2026-09-02T22:13:05Z</time>
  <course>187.31</course>
  <speed>0.0316227766016838</speed>
  <fix>3d</fix>
</trkpt>
<trkpt lat="33.8099799" lon="-118.3938914">
  <ele>-8.0</ele>
  <time>2026-09-02T22:13:05Z</time>
  <course>168.54</course>
  <speed>0.1</speed>
  <fix>3d</fix>
</trkpt>
<trkpt lat="33.8099999" lon="-118.3939131">
  <ele>-9.472</ele>
  <time>2026-09-02T22:13:05Z</time>
  <course>187.31</course>
  <speed>0.0412310562561766</speed>
  <fix>3d</fix>
</trkpt>
<trkpt lat="33.8099815" lon="-118.393891">
  <ele>-8.01</ele>
  <time>2026-09-02T22:13:05Z</time>
  <course>167.73</course>
  <speed>0.09</speed>
  <fix>3d</fix>
</trkpt>
<trkpt lat="33.8099999" lon="-118.3939131">
  <ele>-9.471</ele>
  <time>2026-09-02T22:13:05Z</time>
  <course>187.31</course>
  <speed>0.05099019513592785</speed>
  <fix>3d</fix>
</trkpt>
<trkpt lat="33.8099815" lon="-118.393891">
  <ele>-8.01</ele>
  <time>2026-09-02T22:13:05Z</time>
  <course>167.73</course>
  <speed>0.09</speed>
  <fix>3d</fix>
</trkpt>
<trkpt lat="33.8099999" lon="-118.3939131">
  <ele>-9.472</ele>
  <time>2026-09-02T22:13:05Z</time>
  <course>187.31</course>
  <speed>0.06082762530298219</speed>
  <fix>3d</fix>
</trkpt>
<trkpt lat="33.8099831" lon="-118.3938908">
  <ele>-8.02</ele>
  <time>2026-09-02T22:13:05Z</time>
  <course>167.0</course>
  <speed>0.08</speed>
  <fix>3d</fix>
</trkpt>
<trkpt lat="33.8099999" lon="-118.3939131">
  <ele>-9.472</ele>
  <time>2026-09-02T22:13:05Z</time>
  <course>187.31</course>
  <speed>0.06082762530298219</speed>
  <fix>3d</fix>
</trkpt>
<trkpt lat="33.8099831" lon="-118.3938908">
  <ele>-8.02</ele>
  <time>2026-09-02T22:13:05Z</time>
  <course>167.0</course>
  <speed>0.08</speed>
  <fix>3d</fix>
</trkpt>
<trkpt lat="33.8099999" lon="-118.3939131">
  <ele>-9.473</ele>
  <time>2026-09-02T22:13:06Z</time>
  <course>187.31</course>
  <speed>0.07280109889280519</speed>
  <fix>3d</fix>
</trkpt>
<trkpt lat="33.8099848" lon="-118.3938908">
  <ele>-8.03</ele>
  <time>2026-09-02T22:13:06Z</time>
  <course>166.32</course>
  <speed>0.08</speed>
  <fix>3d</fix>
</trkpt>
<trkpt lat="33.8099999" lon="-118.3939131">
  <ele>-9.474</ele>
  <time>2026-09-02T22:13:06Z</time>
  <course>187.31</course>
  <speed>0.07280109889280519</speed>
  <fix>3d</fix>
</trkpt>
<trkpt lat="33.8099848" lon="-118.3938908">
  <ele>-8.03</ele>
  <time>2026-09-02T22:13:06Z</time>
  <course>166.32</course>
  <speed>0.08</speed>
  <fix>3d</fix>
</trkpt>
<trkpt lat="33.8099999" lon="-118.3939131">
  <ele>-9.475</ele>
  <time>2026-09-02T22:13:06Z</time>
  <course>187.31</course>
  <speed>0.0824621125123532</speed>
  <fix>3d</fix>
</trkpt>
<trkpt lat="33.8099864" lon="-118.393891">
  <ele>-8.04</ele>
  <time>2026-09-02T22:13:06Z</time>
  <course>165.69</course>
  <speed>0.07</speed>
  <fix>3d</fix>
</trkpt>
<trkpt lat="33.8099999" lon="-118.3939131">
  <ele>-9.476</ele>
  <time>2026-09-02T22:13:06Z</time>
  <course>187.3</course>
  <speed>0.09219544457292887</speed>
  <fix>3d</fix>
</trkpt>
<trkpt lat="33.8099864" lon="-118.393891">
  <ele>-8.04</ele>
  <time>2026-09-02T22:13:06Z</time>
  <course>165.69</course>
  <speed>0.07</speed>
  <fix>3d</fix>
</trkpt>
<trkpt lat="33.8099999" lon="-118.3939131">
  <ele>-9.478</ele>
  <time>2026-09-02T22:13:06Z</time>
  <course>187.3</course>
  <speed>0.09486832980505139</speed>
  <fix>3d</fix>
</trkpt>
<trkpt lat="33.809988" lon="-118.3938915">
  <ele>-8.05</ele>
  <time>2026-09-02T22:13:06Z</time>
  <course>165.08</course>
  <speed>0.07</speed>
  <fix>3d</fix>
</trkpt>
<trkpt lat="33.8099999" lon="-118.3939131">
  <ele>-9.479</ele>
  <time>2026-09-02T22:13:06Z</time>
  <course>187.3</course>
  <speed>0.1044030650891055</speed>
  <fix>3d</fix>
</trkpt>
<trkpt lat="33.809988" lon="-118.3938915">
  <ele>-8.05</ele>
  <time>2026-09-02T22:13:06Z</time>
  <course>165.08</course>
  <speed>0.07</speed>
  <fix>3d</fix>
</trkpt>
<trkpt lat="33.8099999" lon="-118.3939131">
  <ele>-9.48</ele>
  <time>2026-09-02T22:13:06Z</time>
  <course>187.3</course>
  <speed>0.1044030650891055</speed>
  <fix>3d</fix>
</trkpt>
<trkpt lat="33.8099896" lon="-118.3938921">
  <ele>-8.06</ele>
  <time>2026-09-02T22:13:06Z</time>
  <course>164.5</course>
  <speed>0.06</speed>
  <fix>3d</fix>
</trkpt>
<trkpt lat="33.8099999" lon="-118.3939131">
  <ele>-9.48</ele>
  <time>2026-09-02T22:13:06Z</time>
  <course>187.29</course>
  <speed>0.11401754250991379</speed>
  <fix>3d</fix>
</trkpt>
<trkpt lat="33.8099896" lon="-118.3938921">
  <ele>-8.06</ele>
  <time>2026-09-02T22:13:06Z</time>
  <course>164.5</course>
  <speed>0.06</speed>
  <fix>3d</fix>
</trkpt>
<trkpt lat="33.8099999" lon="-118.3939131">
  <ele>-9.479</ele>
  <time>2026-09-02T22:13:06Z</time>
  <course>187.29</course>
  <speed>0.11704699910719625</speed>
  <fix>3d</fix>
</trkpt>
<trkpt lat="33.8099911" lon="-118.393893">
  <ele>-8.07</ele>
  <time>2026-09-02T22:13:06Z</time>
  <course>163.98</course>
  <speed>0.06</speed>
  <fix>3d</fix>
</trkpt>
<trkpt lat="33.8099999" lon="-118.3939131">
  <ele>-9.477</ele>
  <time>2026-09-02T22:13:06Z</time>
  <course>187.29</course>
  <speed>0.1264911064067352</speed>
  <fix>3d</fix>
</trkpt>
<trkpt lat="33.8099911" lon="-118.393893">
  <ele>-8.07</ele>
  <time>2026-09-02T22:13:06Z</time>
  <course>163.98</course>
  <speed>0.06</speed>
  <fix>3d</fix>
</trkpt>
<trkpt lat="33.8099999" lon="-118.3939131">
  <ele>-9.476</ele>
  <time>2026-09-02T22:13:06Z</time>
  <course>187.29</course>
  <speed>0.1264911064067352</speed>
  <fix>3d</fix>
</trkpt>
<trkpt lat="33.8099926" lon="-118.393894">
  <ele>-8.07</ele>
  <time>2026-09-02T22:13:06Z</time>
  <course>163.52</course>
  <speed>0.06</speed>
  <fix>3d</fix>
</trkpt>
<trkpt lat="33.8099999" lon="-118.3939131">
  <ele>-9.477</ele>
  <time>2026-09-02T22:13:06Z</time>
  <course>187.29</course>
  <speed>0.13601470508735444</speed>
  <fix>3d</fix>
</trkpt>
<trkpt lat="33.8099926" lon="-118.393894">
  <ele>-8.07</ele>
  <time>2026-09-02T22:13:06Z</time>
  <course>163.52</course>
  <speed>0.06</speed>
  <fix>3d</fix>
</trkpt>
<trkpt lat="33.8099999" lon="-118.3939131">
  <ele>-9.478</ele>
  <time>2026-09-02T22:13:06Z</time>
  <course>187.29</course>
  <speed>0.13601470508735444</speed>
  <fix>3d</fix>
</trkpt>
<trkpt lat="33.8099939" lon="-118.3938952">
  <ele>-8.08</ele>
  <time>2026-09-02T22:13:06Z</time>
  <course>163.11</course>
  <speed>0.05</speed>
  <fix>3d</fix>
</trkpt>
<trkpt lat="33.8099999" lon="-118.3939131">
  <ele>-9.478</ele>
  <time>2026-09-02T22:13:06Z</time>
  <course>187.29</course>
  <speed>0.14866068747318506</speed>
  <fix>3d</fix>
</trkpt>
<trkpt lat="33.8099939" lon="-118.3938952">
  <ele>-8.08</ele>
  <time>2026-09-02T22:13:06Z</time>
  <course>163.11</course>
  <speed>0.05</speed>
  <fix>3d</fix>
</trkpt>
<trkpt lat="33.8099999" lon="-118.3939131">
  <ele>-9.478</ele>
  <time>2026-09-02T22:13:06Z</time>
  <course>187.28</course>
  <speed>0.14866068747318506</speed>
  <fix>3d</fix>
</trkpt>
<trkpt lat="33.8099952" lon="-118.3938966">
  <ele>-8.09</ele>
  <time>2026-09-02T22:13:06Z</time>
  <course>162.7</course>
  <speed>0.05</speed>
  <fix>3d</fix>
</trkpt>
<trkpt lat="33.8099999" lon="-118.3939131">
  <ele>-9.477</ele>
  <time>2026-09-02T22:13:06Z</time>
  <course>187.28</course>
  <speed>0.14866068747318506</speed>
  <fix>3d</fix>
</trkpt>
<trkpt lat="33.8099952" lon="-118.3938966">
  <ele>-8.09</ele>
  <time>2026-09-02T22:13:06Z</time>
  <course>162.7</course>
  <speed>0.05</speed>
  <fix>3d</fix>
</trkpt>
<trkpt lat="33.8099999" lon="-118.3939131">
  <ele>-9.476</ele>
  <time>2026-09-02T22:13:06Z</time>
  <course>187.28</course>
  <speed>0.15811388300841897</speed>
  <fix>3d</fix>
</trkpt>
<trkpt lat="33.8099963" lon="-118.3938981">
  <ele>-8.1</ele>
  <time>2026-09-02T22:13:06Z</time>
  <course>162.31</course>
  <speed>0.05</speed>
  <fix>3d</fix>
</trkpt>
<trkpt lat="33.8099999" lon="-118.3939131">
  <ele>-9.476</ele>
  <time>2026-09-02T22:13:06Z</time>
  <course>187.28</course>
  <speed>0.15811388300841897</speed>
  <fix>3d</fix>
</trkpt>
<trkpt lat="33.8099963" lon="-118.3938981">
  <ele>-8.1</ele>
  <time>2026-09-02T22:13:06Z</time>
  <course>162.31</course>
  <speed>0.05</speed>
  <fix>3d</fix>
</trkpt>
<trkpt lat="33.8099999" lon="-118.3939131">
  <ele>-9.478</ele>
  <time>2026-09-02T22:13:06Z</time>
  <course>187.28</course>
  <speed>0.1708800749063506</speed>
  <fix>3d</fix>
</trkpt>
<trkpt lat="33.8099973" lon="-118.3938998">
  <ele>-8.11</ele>
  <time>2026-09-02T22:13:06Z</time>
  <course>161.96</course>
  <speed>0.05</speed>
  <fix>3d</fix>
</trkpt>
<trkpt lat="33.8099999" lon="-118.3939131">
  <ele>-9.479</ele>
  <time>2026-09-02T22:13:06Z</time>
  <course>187.28</course>
  <speed>0.1708800749063506</speed>
  <fix>3d</fix>
</trkpt>
<trkpt lat="33.8099973" lon="-118.3938998">
  <ele>-8.11</ele>
  <time>2026-09-02T22:13:06Z</time>
  <course>161.96</course>
  <speed>0.05</speed>
  <fix>3d</fix>
</trkpt>
<trkpt lat="33.8099999" lon="-118.3939131">
  <ele>-9.479</ele>
  <time>2026-09-02T22:13:06Z</time>
  <course>187.28</course>
  <speed>0.1708800749063506</speed>
  <fix>3d</fix>
</trkpt>
<trkpt lat="33.8099982" lon="-118.3939016">
  <ele>-8.11</ele>
  <time>2026-09-02T22:13:06Z</time>
  <course>161.65</course>
  <speed>0.05</speed>
  <fix>3d</fix>
</trkpt>
<trkpt lat="33.8099999" lon="-118.3939131">
  <ele>-9.478</ele>
  <time>2026-09-02T22:13:06Z</time>
  <course>187.28</course>
  <speed>0.18027756377319945</speed>
  <fix>3d</fix>
</trkpt>
<trkpt lat="33.8099982" lon="-118.3939016">
  <ele>-8.11</ele>
  <time>2026-09-02T22:13:06Z</time>
  <course>161.65</course>
  <speed>0.05</speed>
  <fix>3d</fix>
</trkpt>
<trkpt lat="33.8099999" lon="-118.3939131">
  <ele>-9.477</ele>
  <time>2026-09-02T22:13:06Z</time>
  <course>187.27</course>
  <speed>0.18027756377319945</speed>
  <fix>3d</fix>
</trkpt>
<trkpt lat="33.8099988" lon="-118.3939035">
  <ele>-8.12</ele>
  <time>2026-09-02T22:13:06Z</time>
  <course>161.33</course>
  <speed>0.04</speed>
  <fix>3d</fix>
</trkpt>
<trkpt lat="33.8099999" lon="-118.3939131">
  <ele>-9.476</ele>
  <time>2026-09-02T22:13:06Z</time>
  <course>187.27</course>
  <speed>0.19313207915827968</speed>
  <fix>3d</fix>
</trkpt>
<trkpt lat="33.8099988" lon="-118.3939035">
  <ele>-8.12</ele>
  <time>2026-09-02T22:13:06Z</time>
  <course>161.33</course>
  <speed>0.04</speed>
  <fix>3d</fix>
</trkpt>
<trkpt lat="33.8099999" lon="-118.3939131">
  <ele>-9.476</ele>
  <time>2026-09-02T22:13:06Z</time>
  <course>187.27</course>
  <speed>0.19313207915827968</speed>
  <fix>3d</fix>
</trkpt>
<trkpt lat="33.8099994" lon="-118.3939055">
  <ele>-8.13</ele>
  <time>2026-09-02T22:13:06Z</time>
  <course>161.05</course>
  <speed>0.04</speed>
  <fix>3d</fix>
</trkpt>
<trkpt lat="33.8099999" lon="-118.3939131">
  <ele>-9.475</ele>
  <time>2026-09-02T22:13:06Z</time>
  <course>187.27</course>
  <speed>0.19313207915827968</speed>
  <fix>3d</fix>
</trkpt>
<trkpt lat="33.8099994" lon="-118.3939055">
  <ele>-8.13</ele>
  <time>2026-09-02T22:13:06Z</time>
  <course>161.05</course>
  <speed>0.04</speed>
  <fix>3d</fix>
</trkpt>
<trkpt lat="33.8099999" lon="-118.3939131">
  <ele>-9.475</ele>
  <time>2026-09-02T22:13:06Z</time>
  <course>187.27</course>
  <speed>0.20248456731316586</speed>
  <fix>3d</fix>
</trkpt>
<trkpt lat="33.8099997" lon="-118.3939076">
  <ele>-8.14</ele>
  <time>2026-09-02T22:13:06Z</time>
  <course>160.83</course>
  <speed>0.04</speed>
  <fix>3d</fix>
</trkpt>
<trkpt lat="33.8099999" lon="-118.3939131">
  <ele>-9.476</ele>
  <time>2026-09-02T22:13:06Z</time>
  <course>187.27</course>
  <speed>0.20248456731316586</speed>
  <fix>3d</fix>
</trkpt>
<trkpt lat="33.8099997" lon="-118.3939076">
  <ele>-8.14</ele>
  <time>2026-09-02T22:13:06Z</time>
  <course>160.83</course>
  <speed>0.04</speed>
  <fix>3d</fix>
</trkpt>
<trkpt lat="33.8099999" lon="-118.3939131">
  <ele>-9.476</ele>
  <time>2026-09-02T22:13:06Z</time>
  <course>187.27</course>
  <speed>0.20248456731316586</speed>
  <fix>3d</fix>
</trkpt>
<trkpt lat="33.8099999" lon="-118.3939097">
  <ele>-8.15</ele>
  <time>2026-09-02T22:13:06Z</time>
  <course>160.61</course>
  <speed>0.04</speed>
  <fix>3d</fix>
</trkpt>
<trkpt lat="33.8099999" lon="-118.3939131">
  <ele>-9.477</ele>
  <time>2026-09-02T22:13:06Z</time>
  <course>187.27</course>
  <speed>0.20615528128088303</speed>
  <fix>3d</fix>
</trkpt>
<trkpt lat="33.8099999" lon="-118.3939097">
  <ele>-8.15</ele>
  <time>2026-09-02T22:13:06Z</time>
  <course>160.61</course>
  <speed>0.04</speed>
  <fix>3d</fix>
</trkpt>
<trkpt lat="33.8099999" lon="-118.3939131">
  <ele>-9.477</ele>
  <time>2026-09-02T22:13:06Z</time>
  <course>187.27</course>
  <speed>0.21540659228538014</speed>
  <fix>3d</fix>
</trkpt>
<trkpt lat="33.81" lon="-118.3939118">
  <ele>-8.15</ele>
  <time>2026-09-02T22:13:06Z</time>
  <course>160.36</course>
  <speed>0.04</speed>
  <fix>3d</fix>
</trkpt>
<trkpt lat="33.8099999" lon="-118.3939131">
  <ele>-9.476</ele>
  <time>2026-09-02T22:13:06Z</time>
  <course>187.26</course>
  <speed>0.21540659228538014</speed>
  <fix>3d</fix>
</trkpt>
<trkpt lat="33.81" lon="-118.3939118">
  <ele>-8.15</ele>
  <time>2026-09-02T22:13:06Z</time>
  <course>160.36</course>
  <speed>0.04</speed>
  <fix>3d</fix>
</trkpt>
<trkpt lat="33.8099999" lon="-118.3939131">
  <ele>-9.476</ele>
  <time>2026-09-02T22:13:06Z</time>
  <course>187.26</course>
  <speed>0.21540659228538014</speed>
  <fix>3d</fix>
</trkpt>
<trkpt lat="33.8099998" lon="-118.3939139">
  <ele>-8.16</ele>
  <time>2026-09-02T22:13:06Z</time>
  <course>160.12</course>
  <speed>0.04</speed>
  <fix>3d</fix>
</trkpt>
<trkpt lat="33.8099999" lon="-118.3939131">
  <ele>-9.475</ele>
  <time>2026-09-02T22:13:06Z</time>
  <course>187.26</course>
  <speed>0.21540659228538014</speed>
  <fix>3d</fix>
</trkpt>
<trkpt lat="33.8099998" lon="-118.3939139">
  <ele>-8.16</ele>
  <time>2026-09-02T22:13:06Z</time>
  <course>160.12</course>
  <speed>0.04</speed>
  <fix>3d</fix>
</trkpt>
<trkpt lat="33.8099999" lon="-118.3939131">
  <ele>-9.474</ele>
  <time>2026-09-02T22:13:06Z</time>
  <course>187.26</course>
  <speed>0.22472205054244232</speed>
  <fix>3d</fix>
</trkpt>
<trkpt lat="33.8099995" lon="-118.393916">
  <ele>-8.17</ele>
  <time>2026-09-02T22:13:06Z</time>
  <course>159.92</course>
  <speed>0.03</speed>
  <fix>3d</fix>
</trkpt>
<trkpt lat="33.8099999" lon="-118.3939131">
  <ele>-9.473</ele>
  <time>2026-09-02T22:13:06Z</time>
  <course>187.26</course>
  <speed>0.22472205054244232</speed>
  <fix>3d</fix>
</trkpt>
<trkpt lat="33.8099995" lon="-118.393916">
  <ele>-8.17</ele>
  <time>2026-09-02T22:13:06Z</time>
  <course>159.92</course>
  <speed>0.03</speed>
  <fix>3d</fix>
</trkpt>
<trkpt lat="33.8099999" lon="-118.3939131">
  <ele>-9.473</ele>
  <time>2026-09-02T22:13:06Z</time>
  <course>187.26</course>
  <speed>0.22847319317591727</speed>
  <fix>3d</fix>
</trkpt>
<trkpt lat="33.809999" lon="-118.3939181">
  <ele>-8.18</ele>
  <time>2026-09-02T22:13:06Z</time>
  <course>159.75</course>
  <speed>0.03</speed>
  <fix>3d</fix>
</trkpt>
<trkpt lat="33.8099999" lon="-118.3939131">
  <ele>-9.473</ele>
  <time>2026-09-02T22:13:06Z</time>
  <course>187.26</course>
  <speed>0.22847319317591727</speed>
  <fix>3d</fix>
</trkpt>
<trkpt lat="33.809999" lon="-118.3939181">
  <ele>-8.18</ele>
  <time>2026-09-02T22:13:06Z</time>
  <course>159.75</course>
  <speed>0.03</speed>
  <fix>3d</fix>
</trkpt>
<trkpt lat="33.8099999" lon="-118.3939131">
  <ele>-9.473</ele>
  <time>2026-09-02T22:13:06Z</time>
  <course>187.26</course>
  <speed>0.23769728648009425</speed>
  <fix>3d</fix>
</trkpt>
<trkpt lat="33.8099983" lon="-118.3939202">
  <ele>-8.19</ele>
  <time>2026-09-02T22:13:06Z</time>
  <course>159.59</course>
  <speed>0.03</speed>
  <fix>3d</fix>
</trkpt>
<trkpt lat="33.8099999" lon="-118.3939131">
  <ele>-9.474</ele>
  <time>2026-09-02T22:13:06Z</time>
  <course>187.26</course>
  <speed>0.23769728648009425</speed>
  <fix>3d</fix>
</trkpt>
<trkpt lat="33.8099983" lon="-118.3939202">
  <ele>-8.19</ele>
  <time>2026-09-02T22:13:06Z</time>
  <course>159.59</course>
  <speed>0.03</speed>
  <fix>3d</fix>
</trkpt>
<trkpt lat="33.8099999" lon="-118.3939131">
  <ele>-9.477</ele>
  <time>2026-09-02T22:13:06Z</time>
  <course>187.26</course>
  <speed>0.23769728648009425</speed>
  <fix>3d</fix>
</trkpt>
<trkpt lat="33.8099974" lon="-118.393922">
  <ele>-8.2</ele>
  <time>2026-09-02T22:13:06Z</time>
  <course>159.42</course>
  <speed>0.03</speed>
  <fix>3d</fix>
</trkpt>
<trkpt lat="33.8099999" lon="-118.3939131">
  <ele>-9.48</ele>
  <time>2026-09-02T22:13:06Z</time>
  <course>187.26</course>
  <speed>0.23769728648009425</speed>
  <fix>3d</fix>
</trkpt>
<trkpt lat="33.8099974" lon="-118.393922">
  <ele>-8.2</ele>
  <time>2026-09-02T22:13:06Z</time>
  <course>159.42</course>
  <speed>0.03</speed>
  <fix>3d</fix>
</trkpt>
<trkpt lat="33.8099999" lon="-118.3939131">
  <ele>-9.483</ele>
  <time>2026-09-02T22:13:06Z</time>
  <course>187.26</course>
  <speed>0.23769728648009425</speed>
  <fix>3d</fix>
</trkpt>
<trkpt lat="33.8099964" lon="-118.3939238">
  <ele>-8.21</ele>
  <time>2026-09-02T22:13:06Z</time>
  <course>159.24</course>
  <speed>0.03</speed>
  <fix>3d</fix>
</trkpt>
<trkpt lat="33.8099999" lon="-118.3939131">
  <ele>-9.485</ele>
  <time>2026-09-02T22:13:06Z</time>
  <course>187.26</course>
  <speed>0.23769728648009425</speed>
  <fix>3d</fix>
</trkpt>
<trkpt lat="33.8099964" lon="-118.3939238">
  <ele>-8.21</ele>
  <time>2026-09-02T22:13:06Z</time>
  <course>159.24</course>
  <speed>0.03</speed>
  <fix>3d</fix>
</trkpt>
<trkpt lat="33.8099999" lon="-118.3939131">
  <ele>-9.485</ele>
  <time>2026-09-02T22:13:06Z</time>
  <course>187.26</course>
  <speed>0.23769728648009425</speed>
  <fix>3d</fix>
</trkpt>
<trkpt lat="33.8099953" lon="-118.3939256">
  <ele>-8.22</ele>
  <time>2026-09-02T22:13:06Z</time>
  <course>159.05</course>
  <speed>0.03</speed>
  <fix>3d</fix>
</trkpt>
<trkpt lat="33.8099999" lon="-118.3939131">
  <ele>-9.485</ele>
  <time>2026-09-02T22:13:06Z</time>
  <course>187.26</course>
  <speed>0.24166091947189144</speed>
  <fix>3d</fix>
</trkpt>
<trkpt lat="33.8099953" lon="-118.3939256">
  <ele>-8.22</ele>
  <time>2026-09-02T22:13:06Z</time>
  <course>159.05</course>
  <speed>0.03</speed>
  <fix>3d</fix>
</trkpt>
<trkpt lat="33.8099999" lon="-118.3939131">
  <ele>-9.483</ele>
  <time>2026-09-02T22:13:06Z</time>
  <course>187.26</course>
  <speed>0.24166091947189144</speed>
  <fix>3d</fix>
</trkpt>
<trkpt lat="33.809994" lon="-118.3939271">
  <ele>-8.23</ele>
  <time>2026-09-02T22:13:06Z</time>
  <course>158.88</course>
  <speed>0.03</speed>
  <fix>3d</fix>
</trkpt>
<trkpt lat="33.8099999" lon="-118.3939131">
  <ele>-9.48</ele>
  <time>2026-09-02T22:13:06Z</time>
  <course>187.26</course>
  <speed>0.25079872407968906</speed>
  <fix>3d</fix>
</trkpt>
<trkpt lat="33.809994" lon="-118.3939271">
  <ele>-8.23</ele>
  <time>2026-09-02T22:13:06Z</time>
  <course>158.88</course>
  <speed>0.03</speed>
  <fix>3d</fix>
</trkpt>
<trkpt lat="33.8099999" lon="-118.3939131">
  <ele>-9.476</ele>
  <time>2026-09-02T22:13:06Z</time>
  <course>187.26</course>
  <speed>0.25079872407968906</speed>
  <fix>3d</fix>
</trkpt>
<trkpt lat="33.8099926" lon="-118.3939285">
  <ele>-8.23</ele>
  <time>2026-09-02T22:13:06Z</time>
  <course>158.71</course>
  <speed>0.03</speed>
  <fix>3d</fix>
</trkpt>
<trkpt lat="33.8099999" lon="-118.3939131">
  <ele>-9.473</ele>
  <time>2026-09-02T22:13:06Z</time>
  <course>187.26</course>
  <speed>0.25079872407968906</speed>
  <fix>3d</fix>
</trkpt>
<trkpt lat="33.8099926" lon="-118.3939285">
  <ele>-8.23</ele>
  <time>2026-09-02T22:13:06Z</time>
  <course>158.71</course>
  <speed>0.03</speed>
  <fix>3d</fix>
</trkpt>
<trkpt lat="33.8099999" lon="-118.3939131">
  <ele>-9.471</ele>
  <time>2026-09-02T22:13:06Z</time>
  <course>187.26</course>
  <speed>0.25079872407968906</speed>
  <fix>3d</fix>
</trkpt>
<trkpt lat="33.8099911" lon="-118.3939297">
  <ele>-8.23</ele>
  <time>2026-09-02T22:13:06Z</time>
  <course>158.48</course>
  <speed>0.03</speed>
  <fix>3d</fix>
</trkpt>
<trkpt lat="33.8099999" lon="-118.3939131">
  <ele>-9.469</ele>
  <time>2026-09-02T22:13:06Z</time>
  <course>187.26</course>
  <speed>0.25079872407968906</speed>
  <fix>3d</fix>
</trkpt>
<trkpt lat="33.8099911" lon="-118.3939297">
  <ele>-8.23</ele>
  <time>2026-09-02T22:13:06Z</time>
  <course>158.48</course>
  <speed>0.03</speed>
  <fix>3d</fix>
</trkpt>
<trkpt lat="33.8099999" lon="-118.3939131">
  <ele>-9.469</ele>
  <time>2026-09-02T22:13:06Z</time>
  <course>187.26</course>
  <speed>0.25079872407968906</speed>
  <fix>3d</fix>
</trkpt>
<trkpt lat="33.8099895" lon="-118.3939308">
  <ele>-8.24</ele>
  <time>2026-09-02T22:13:06Z</time>
  <course>158.35</course>
  <speed>0.03</speed>
  <fix>3d</fix>
</trkpt>
<trkpt lat="33.8099999" lon="-118.3939131">
  <ele>-9.468</ele>
  <time>2026-09-02T22:13:06Z</time>
  <course>187.26</course>
  <speed>0.25079872407968906</speed>
  <fix>3d</fix>
</trkpt>
<trkpt lat="33.8099895" lon="-118.3939308">
  <ele>-8.24</ele>
  <time>2026-09-02T22:13:06Z</time>
  <course>158.35</course>
  <speed>0.03</speed>
  <fix>3d</fix>
</trkpt>
<trkpt lat="33.8099999" lon="-118.3939131">
  <ele>-9.47</ele>
  <time>2026-09-02T22:13:06Z</time>
  <course>187.26</course>
  <speed>0.25079872407968906</speed>
  <fix>3d</fix>
</trkpt>
<trkpt lat="33.8099878" lon="-118.3939317">
  <ele>-8.25</ele>
  <time>2026-09-02T22:13:06Z</time>
  <course>158.44</course>
  <speed>0.03</speed>
  <fix>3d</fix>
</trkpt>
<trkpt lat="33.8099999" lon="-118.3939131">
  <ele>-9.473</ele>
  <time>2026-09-02T22:13:06Z</time>
  <course>187.27</course>
  <speed>0.25079872407968906</speed>
  <fix>3d</fix>
</trkpt>
<trkpt lat="33.8099878" lon="-118.3939317">
  <ele>-8.25</ele>
  <time>2026-09-02T22:13:06Z</time>
  <course>158.44</course>
  <speed>0.03</speed>
  <fix>3d</fix>
</trkpt>
<trkpt lat="33.8099999" lon="-118.3939131">
  <ele>-9.476</ele>
  <time>2026-09-02T22:13:06Z</time>
  <course>187.27</course>
  <speed>0.25079872407968906</speed>
  <fix>3d</fix>
</trkpt>
<trkpt lat="33.8099861" lon="-118.3939323">
  <ele>-8.26</ele>
  <time>2026-09-02T22:13:06Z</time>
  <course>158.54</course>
  <speed>0.02</speed>
  <fix>3d</fix>
</trkpt>
<trkpt lat="33.8099999" lon="-118.3939131">
  <ele>-9.479</ele>
  <time>2026-09-02T22:13:06Z</time>
  <course>187.27</course>
  <speed>0.25079872407968906</speed>
  <fix>3d</fix>
</trkpt>
<trkpt lat="33.8099861" lon="-118.3939323">
  <ele>-8.26</ele>
  <time>2026-09-02T22:13:06Z</time>
  <course>158.54</course>
  <speed>0.02</speed>
  <fix>3d</fix>
</trkpt>
<trkpt lat="33.8099999" lon="-118.3939131">
  <ele>-9.48</ele>
  <time>2026-09-02T22:13:06Z</time>
  <course>187.27</course>
  <speed>0.25079872407968906</speed>
  <fix>3d</fix>
</trkpt>
<trkpt lat="33.8099843" lon="-118.3939328">
  <ele>-8.27</ele>
  <time>2026-09-02T22:13:06Z</time>
  <course>158.49</course>
  <speed>0.02</speed>
  <fix>3d</fix>
</trkpt>
<trkpt lat="33.8099999" lon="-118.3939131">
  <ele>-9.482</ele>
  <time>2026-09-02T22:13:06Z</time>
  <course>187.27</course>
  <speed>0.25079872407968906</speed>
  <fix>3d</fix>
</trkpt>
<trkpt lat="33.8099843" lon="-118.3939328">
  <ele>-8.27</ele>
  <time>2026-09-02T22:13:06Z</time>
  <course>158.49</course>
  <speed>0.02</speed>
  <fix>3d</fix>
</trkpt>
<trkpt lat="33.8099999" lon="-118.3939131">
  <ele>-9.484</ele>
  <time>2026-09-02T22:13:06Z</time>
  <course>187.27</course>
  <speed>0.24166091947189144</speed>
  <fix>3d</fix>
</trkpt>
<trkpt lat="33.8099824" lon="-118.393933">
  <ele>-8.28</ele>
  <time>2026-09-02T22:13:06Z</time>
  <course>158.38</course>
  <speed>0.02</speed>
  <fix>3d</fix>
</trkpt>
<trkpt lat="33.8099999" lon="-118.3939131">
  <ele>-9.485</ele>
  <time>2026-09-02T22:13:06Z</time>
  <course>187.27</course>
  <speed>0.24166091947189144</speed>
  <fix>3d</fix>
</trkpt>
<trkpt lat="33.8099824" lon="-118.393933">
  <ele>-8.28</ele>
  <time>2026-09-02T22:13:06Z</time>
  <course>158.38</course>
  <speed>0.02</speed>
  <fix>3d</fix>
</trkpt>
<trkpt lat="33.8099999" lon="-118.3939131">
  <ele>-9.485</ele>
  <time>2026-09-02T22:13:06Z</time>
  <course>187.27</course>
  <speed>0.24166091947189144</speed>
  <fix>3d</fix>
</trkpt>
<trkpt lat="33.8099806" lon="-118.3939331">
  <ele>-8.29</ele>
  <time>2026-09-02T22:13:06Z</time>
  <course>158.25</course>
  <speed>0.02</speed>
  <fix>3d</fix>
</trkpt>
<trkpt lat="33.8099999" lon="-118.3939131">
  <ele>-9.484</ele>
  <time>2026-09-02T22:13:06Z</time>
  <course>187.27</course>
  <speed>0.24166091947189144</speed>
  <fix>3d</fix>
</trkpt>
<trkpt lat="33.8099806" lon="-118.3939331">
  <ele>-8.29</ele>
  <time>2026-09-02T22:13:06Z</time>
  <course>158.25</course>
  <speed>0.02</speed>
  <fix>3d</fix>
</trkpt>
<trkpt lat="33.8099999" lon="-118.3939131">
  <ele>-9.483</ele>
  <time>2026-09-02T22:13:06Z</time>
  <course>187.28</course>
  <speed>0.24166091947189144</speed>
  <fix>3d</fix>
</trkpt>
<trkpt lat="33.8099788" lon="-118.3939328">
  <ele>-8.3</ele>
  <time>2026-09-02T22:13:06Z</time>
  <course>158.1</course>
  <speed>0.02</speed>
  <fix>3d</fix>
</trkpt>
<trkpt lat="33.8099999" lon="-118.3939131">
  <ele>-9.481</ele>
  <time>2026-09-02T22:13:06Z</time>
  <course>187.28</course>
  <speed>0.24166091947189144</speed>
  <fix>3d</fix>
</trkpt>
<trkpt lat="33.8099788" lon="-118.3939328">
  <ele>-8.3</ele>
  <time>2026-09-02T22:13:06Z</time>
  <course>158.1</course>
  <speed>0.02</speed>
  <fix>3d</fix>
</trkpt>
<trkpt lat="33.8099999" lon="-118.3939131">
  <ele>-9.478</ele>
  <time>2026-09-02T22:13:06Z</time>
  <course>187.28</course>
  <speed>0.24166091947189144</speed>
  <fix>3d</fix>
</trkpt>
<trkpt lat="33.8099769" lon="-118.3939324">
  <ele>-8.3</ele>
  <time>2026-09-02T22:13:06Z</time>
  <course>157.91</course>
  <speed>0.02</speed>
  <fix>3d</fix>
</trkpt>
<trkpt lat="33.8099999" lon="-118.3939131">
  <ele>-9.476</ele>
  <time>2026-09-02T22:13:06Z</time>
  <course>187.28</course>
  <speed>0.24166091947189144</speed>
  <fix>3d</fix>
</trkpt>
<trkpt lat="33.8099769" lon="-118.3939324">
  <ele>-8.3</ele>
  <time>2026-09-02T22:13:06Z</time>
  <course>157.91</course>
  <speed>0.02</speed>
  <fix>3d</fix>
</trkpt>
<trkpt lat="33.8099999" lon="-118.3939131">
  <ele>-9.474</ele>
  <time>2026-09-02T22:13:06Z</time>
  <course>187.28</course>
  <speed>0.24166091947189144</speed>
  <fix>3d</fix>
</trkpt>
<trkpt lat="33.8099752" lon="-118.3939318">
  <ele>-8.31</ele>
  <time>2026-09-02T22:13:06Z</time>
  <course>157.78</course>
  <speed>0.02</speed>
  <fix>3d</fix>
</trkpt>
<trkpt lat="33.8099999" lon="-118.3939131">
  <ele>-9.472</ele>
  <time>2026-09-02T22:13:06Z</time>
  <course>187.28</course>
  <speed>0.24166091947189144</speed>
  <fix>3d</fix>
</trkpt>
<trkpt lat="33.8099752" lon="-118.3939318">
  <ele>-8.31</ele>
  <time>2026-09-02T22:13:06Z</time>
  <course>157.78</course>
  <speed>0.02</speed>
  <fix>3d</fix>
</trkpt>
<trkpt lat="33.8099999" lon="-118.3939131">
  <ele>-9.471</ele>
  <time>2026-09-02T22:13:06Z</time>
  <course>187.28</course>
  <speed>0.23259406699226015</speed>
  <fix>3d</fix>
</trkpt>
<trkpt lat="33.8099734" lon="-118.393931">
  <ele>-8.31</ele>
  <time>2026-09-02T22:13:06Z</time>
  <course>157.87</course>
  <speed>0.02</speed>
  <fix>3d</fix>
</trkpt>
<trkpt lat="33.8099999" lon="-118.3939131">
  <ele>-9.47</ele>
  <time>2026-09-02T22:13:06Z</time>
  <course>187.29</course>
  <speed>0.23259406699226015</speed>
  <fix>3d</fix>
</trkpt>
<trkpt lat="33.8099734" lon="-118.393931">
  <ele>-8.31</ele>
  <time>2026-09-02T22:13:06Z</time>
  <course>157.87</course>
  <speed>0.02</speed>
  <fix>3d</fix>
</trkpt>
<trkpt lat="33.8099999" lon="-118.3939131">
  <ele>-9.47</ele>
  <time>2026-09-02T22:13:06Z</time>
  <course>187.29</course>
  <speed>0.22847319317591727</speed>
  <fix>3d</fix>
</trkpt>
<trkpt lat="33.8099718" lon="-118.39393">
  <ele>-8.31</ele>
  <time>2026-09-02T22:13:06Z</time>
  <course>158.12</course>
  <speed>0.02</speed>
  <fix>3d</fix>
</trkpt>
<trkpt lat="33.8099999" lon="-118.3939131">
  <ele>-9.47</ele>
  <time>2026-09-02T22:13:06Z</time>
  <course>187.29</course>
  <speed>0.22847319317591727</speed>
  <fix>3d</fix>
</trkpt>
<trkpt lat="33.8099718" lon="-118.39393">
  <ele>-8.31</ele>
  <time>2026-09-02T22:13:06Z</time>
  <course>158.12</course>
  <speed>0.02</speed>
  <fix>3d</fix>
</trkpt>
<trkpt lat="33.8099999" lon="-118.3939131">
  <ele>-9.47</ele>
  <time>2026-09-02T22:13:06Z</time>
  <course>187.29</course>
  <speed>0.22847319317591727</speed>
  <fix>3d</fix>
</trkpt>
<trkpt lat="33.8099703" lon="-118.3939288">
  <ele>-8.32</ele>
  <time>2026-09-02T22:13:06Z</time>
  <course>158.3</course>
  <speed>0.02</speed>
  <fix>3d</fix>
</trkpt>
<trkpt lat="33.8099999" lon="-118.3939131">
  <ele>-9.47</ele>
  <time>2026-09-02T22:13:06Z</time>
  <course>187.33</course>
  <speed>0.800812087820857</speed>
  <fix>3d</fix>
</trkpt>
<trkpt lat="33.8099703" lon="-118.3939288">
  <ele>-8.32</ele>
  <time>2026-09-02T22:13:06Z</time>
  <course>158.3</course>
  <speed>0.02</speed>
  <fix>3d</fix>
</trkpt>
<trkpt lat="33.8099999" lon="-118.3939131">
  <ele>-9.47</ele>
  <time>2026-09-02T22:13:06Z</time>
  <course>187.37</course>
  <speed>1.4122322755127783</speed>
  <fix>3d</fix>
</trkpt>
<trkpt lat="33.8099685" lon="-118.3939274">
  <ele>-8.34</ele>
  <time>2026-09-02T22:13:06Z</time>
  <course>186.0</course>
  <speed>0.66</speed>
  <fix>3d</fix>
</trkpt>
<trkpt lat="33.8099999" lon="-118.3939131">
  <ele>-9.47</ele>
  <time>2026-09-02T22:13:06Z</time>
  <course>187.39</course>
  <speed>1.5512897859523216</speed>
  <fix>3d</fix>
</trkpt>
<trkpt lat="33.8099685" lon="-118.3939274">
  <ele>-8.34</ele>
  <time>2026-09-02T22:13:06Z</time>
  <course>186.0</course>
  <speed>0.66</speed>
  <fix>3d</fix>
</trkpt>
<trkpt lat="33.8099999" lon="-118.3939131">
  <ele>-9.471</ele>
  <time>2026-09-02T22:13:06Z</time>
  <course>187.39</course>
  <speed>1.5826875876179733</speed>
  <fix>3d</fix>
</trkpt>
<trkpt lat="33.8099654" lon="-118.3939261">
  <ele>-8.35</ele>
  <time>2026-09-02T22:13:06Z</time>
  <course>186.58</course>
  <speed>1.54</speed>
  <fix>3d</fix>
</trkpt>
<trkpt lat="33.8099999" lon="-118.3939131">
  <ele>-9.472</ele>
  <time>2026-09-02T22:13:06Z</time>
  <course>187.39</course>
  <speed>1.5924823389915506</speed>
  <fix>3d</fix>
</trkpt>
<trkpt lat="33.8099654" lon="-118.3939261">
  <ele>-8.35</ele>
  <time>2026-09-02T22:13:06Z</time>
  <course>186.58</course>
  <speed>1.54</speed>
  <fix>3d</fix>
</trkpt>
<trkpt lat="33.8099999" lon="-118.3939131">
  <ele>-9.474</ele>
  <time>2026-09-02T22:13:06Z</time>
  <course>187.39</course>
  <speed>1.5924823389915506</speed>
  <fix>3d</fix>
</trkpt>
<trkpt lat="33.8099612" lon="-118.3939249">
  <ele>-8.36</ele>
  <time>2026-09-02T22:13:06Z</time>
  <course>186.65</course>
  <speed>1.79</speed>
  <fix>3d</fix>
</trkpt>
<trkpt lat="33.8099999" lon="-118.3939131">
  <ele>-9.474</ele>
  <time>2026-09-02T22:13:06Z</time>
  <course>187.39</course>
  <speed>1.5905030650709227</speed>
  <fix>3d</fix>
</trkpt>
<trkpt lat="33.8099612" lon="-118.3939249">
  <ele>-8.36</ele>
  <time>2026-09-02T22:13:06Z</time>
  <course>186.65</course>
  <speed>1.79</speed>
  <fix>3d</fix>
</trkpt>
<trkpt lat="33.8099999" lon="-118.3939131">
  <ele>-9.475</ele>
  <time>2026-09-02T22:13:06Z</time>
  <course>187.39</course>
  <speed>1.5806960492137634</speed>
  <fix>3d</fix>
</trkpt>
<trkpt lat="33.8099569" lon="-118.3939235">
  <ele>-8.37</ele>
  <time>2026-09-02T22:13:06Z</time>
  <course>186.66</course>
  <speed>1.8</speed>
  <fix>3d</fix>
</trkpt>
<trkpt lat="33.8099999" lon="-118.3939131">
  <ele>-9.476</ele>
  <time>2026-09-02T22:13:06Z</time>
  <course>187.39</course>
  <speed>1.5806960492137634</speed>
  <fix>3d</fix>
</trkpt>
<trkpt lat="33.8099569" lon="-118.3939235">
  <ele>-8.37</ele>
  <time>2026-09-02T22:13:06Z</time>
  <course>186.66</course>
  <speed>1.8</speed>
  <fix>3d</fix>
</trkpt>
<trkpt lat="33.8099999" lon="-118.3939131">
  <ele>-9.477</ele>
  <time>2026-09-02T22:13:06Z</time>
  <course>187.39</course>
  <speed>1.570891466651977</speed>
  <fix>3d</fix>
</trkpt>
<trkpt lat="33.8099528" lon="-118.3939221">
  <ele>-8.39</ele>
  <time>2026-09-02T22:13:06Z</time>
  <course>186.67</course>
  <speed>1.8</speed>
  <fix>3d</fix>
</trkpt>
<trkpt lat="33.8099999" lon="-118.3939131">
  <ele>-9.478</ele>
  <time>2026-09-02T22:13:06Z</time>
  <course>187.39</course>
  <speed>1.570891466651977</speed>
  <fix>3d</fix>
</trkpt>
<trkpt lat="33.8099528" lon="-118.3939221">
  <ele>-8.39</ele>
  <time>2026-09-02T22:13:06Z</time>
  <course>186.67</course>
  <speed>1.8</speed>
  <fix>3d</fix>
</trkpt>
<trkpt lat="33.8099999" lon="-118.3939131">
  <ele>-9.478</ele>
  <time>2026-09-02T22:13:06Z</time>
  <course>187.39</course>
  <speed>1.5610893632332519</speed>
  <fix>3d</fix>
</trkpt>
<trkpt lat="33.8099489" lon="-118.3939205">
  <ele>-8.4</ele>
  <time>2026-09-02T22:13:06Z</time>
  <course>186.68</course>
  <speed>1.8</speed>
  <fix>3d</fix>
</trkpt>
<trkpt lat="33.8099999" lon="-118.3939131">
  <ele>-9.478</ele>
  <time>2026-09-02T22:13:06Z</time>
  <course>187.39</course>
  <speed>1.549322432549145</speed>
  <fix>3d</fix>
</trkpt>
<trkpt lat="33.8099489" lon="-118.3939205">
  <ele>-8.4</ele>
  <time>2026-09-02T22:13:06Z</time>
  <course>186.68</course>
  <speed>1.8</speed>
  <fix>3d</fix>
</trkpt>
<trkpt lat="33.8099999" lon="-118.3939131">
  <ele>-9.477</ele>
  <time>2026-09-02T22:13:06Z</time>
  <course>187.38</course>
  <speed>1.5395129099815954</speed>
  <fix>3d</fix>
</trkpt>
<trkpt lat="33.8099452" lon="-118.3939189">
  <ele>-8.41</ele>
  <time>2026-09-02T22:13:06Z</time>
  <course>186.68</course>
  <speed>1.8</speed>
  <fix>3d</fix>
</trkpt>
<trkpt lat="33.8099999" lon="-118.3939131">
  <ele>-9.478</ele>
  <time>2026-09-02T22:13:06Z</time>
  <course>187.39</course>
  <speed>1.5297058540778354</speed>
  <fix>3d</fix>
</trkpt>
<trkpt lat="33.8099452" lon="-118.3939189">
  <ele>-8.41</ele>
  <time>2026-09-02T22:13:06Z</time>
  <course>186.68</course>
  <speed>1.8</speed>
  <fix>3d</fix>
</trkpt>
<trkpt lat="33.8099999" lon="-118.3939131">
  <ele>-9.479</ele>
  <time>2026-09-02T22:13:06Z</time>
  <course>187.39</course>
  <speed>1.5100993344810134</speed>
  <fix>3d</fix>
</trkpt>
<trkpt lat="33.8099416" lon="-118.3939173">
  <ele>-8.41</ele>
  <time>2026-09-02T22:13:06Z</time>
  <course>186.69</course>
  <speed>1.8</speed>
  <fix>3d</fix>
</trkpt>
<trkpt lat="33.8099999" lon="-118.3939131">
  <ele>-9.479</ele>
  <time>2026-09-02T22:13:06Z</time>
  <course>187.39</course>
  <speed>1.5002999700059985</speed>
  <fix>3d</fix>
</trkpt>
<trkpt lat="33.8099416" lon="-118.3939173">
  <ele>-8.41</ele>
  <time>2026-09-02T22:13:06Z</time>
  <course>186.69</course>
  <speed>1.8</speed>
  <fix>3d</fix>
</trkpt>
<trkpt lat="33.8099999" lon="-118.3939131">
  <ele>-9.479</ele>
  <time>2026-09-02T22:13:06Z</time>
  <course>187.38</course>
  <speed>1.4787156589419075</speed>
  <fix>3d</fix>
</trkpt>
<trkpt lat="33.8099382" lon="-118.3939156">
  <ele>-8.42</ele>
  <time>2026-09-02T22:13:06Z</time>
  <course>186.7</course>
  <speed>1.8</speed>
  <fix>3d</fix>
</trkpt>
<trkpt lat="33.8099999" lon="-118.3939131">
  <ele>-9.479</ele>
  <time>2026-09-02T22:13:06Z</time>
  <course>187.38</course>
  <speed>1.468911161370898</speed>
  <fix>3d</fix>
</trkpt>
<trkpt lat="33.8099382" lon="-118.3939156">
  <ele>-8.42</ele>
  <time>2026-09-02T22:13:06Z</time>
  <course>186.7</course>
  <speed>1.8</speed>
  <fix>3d</fix>
</trkpt>
<trkpt lat="33.8099999" lon="-118.3939131">
  <ele>-9.478</ele>
  <time>2026-09-02T22:13:06Z</time>
  <course>187.38</course>
  <speed>1.449310180741169</speed>
  <fix>3d</fix>
</trkpt>
<trkpt lat="33.809935" lon="-118.3939139">
  <ele>-8.43</ele>
  <time>2026-09-02T22:13:06Z</time>
  <course>186.7</course>
  <speed>1.8</speed>
  <fix>3d</fix>
</trkpt>
<trkpt lat="33.8099999" lon="-118.3939131">
  <ele>-9.477</ele>
  <time>2026-09-02T22:13:06Z</time>
  <course>187.38</course>
  <speed>1.42772546380598</speed>
  <fix>3d</fix>
</trkpt>
<trkpt lat="33.809935" lon="-118.3939139">
  <ele>-8.43</ele>
  <time>2026-09-02T22:13:06Z</time>
  <course>186.7</course>
  <speed>1.8</speed>
  <fix>3d</fix>
</trkpt>
<trkpt lat="33.8099999" lon="-118.3939131">
  <ele>-9.476</ele>
  <time>2026-09-02T22:13:06Z</time>
  <course>187.38</course>
  <speed>1.4081193131265548</speed>
  <fix>3d</fix>
</trkpt>
<trkpt lat="33.809932" lon="-118.3939122">
  <ele>-8.44</ele>
  <time>2026-09-02T22:13:06Z</time>
  <course>186.71</course>
  <speed>1.8</speed>
  <fix>3d</fix>
</trkpt>
<trkpt lat="33.8099999" lon="-118.3939131">
  <ele>-9.476</ele>
  <time>2026-09-02T22:13:06Z</time>
  <course>187.38</course>
  <speed>1.3885243966167826</speed>
  <fix>3d</fix>
</trkpt>
<trkpt lat="33.809932" lon="-118.3939122">
  <ele>-8.44</ele>
  <time>2026-09-02T22:13:06Z</time>
  <course>186.71</course>
  <speed>1.8</speed>
  <fix>3d</fix>
</trkpt>
<trkpt lat="33.8099999" lon="-118.3939131">
  <ele>-9.478</ele>
  <time>2026-09-02T22:13:06Z</time>
  <course>187.38</course>
  <speed>1.3669308687713508</speed>
  <fix>3d</fix>
</trkpt>
<trkpt lat="33.8099291" lon="-118.3939105">
  <ele>-8.45</ele>
  <time>2026-09-02T22:13:06Z</time>
  <course>186.71</course>
  <speed>1.8</speed>
  <fix>3d</fix>
</trkpt>
<trkpt lat="33.8099999" lon="-118.3939131">
  <ele>-9.48</ele>
  <time>2026-09-02T22:13:06Z</time>
  <course>187.38</course>
  <speed>1.3473306943731373</speed>
  <fix>3d</fix>
</trkpt>
<trkpt lat="33.8099291" lon="-118.3939105">
  <ele>-8.45</ele>
  <time>2026-09-02T22:13:06Z</time>
  <course>186.71</course>
  <speed>1.8</speed>
  <fix>3d</fix>
</trkpt>
<trkpt lat="33.8099999" lon="-118.3939131">
  <ele>-9.482</ele>
  <time>2026-09-02T22:13:06Z</time>
  <course>187.38</course>
  <speed>1.327742444904131</speed>
  <fix>3d</fix>
</trkpt>
<trkpt lat="33.8099264" lon="-118.3939089">
  <ele>-8.46</ele>
  <time>2026-09-02T22:13:06Z</time>
  <course>186.72</course>
  <speed>1.8</speed>
  <fix>3d</fix>
</trkpt>
<trkpt lat="33.8099999" lon="-118.3939131">
  <ele>-9.483</ele>
  <time>2026-09-02T22:13:06Z</time>
  <course>187.38</course>
  <speed>1.3061393493804556</speed>
  <fix>3d</fix>
</trkpt>
<trkpt lat="33.8099264" lon="-118.3939089">
  <ele>-8.46</ele>
  <time>2026-09-02T22:13:06Z</time>
  <course>186.72</course>
  <speed>1.8</speed>
  <fix>3d</fix>
</trkpt>
<trkpt lat="33.8099999" lon="-118.3939131">
  <ele>-9.482</ele>
  <time>2026-09-02T22:13:06Z</time>
  <course>187.38</course>
  <speed>1.2767536959022285</speed>
  <fix>3d</fix>
</trkpt>
<trkpt lat="33.8099239" lon="-118.3939073">
  <ele>-8.47</ele>
  <time>2026-09-02T22:13:06Z</time>
  <course>186.73</course>
  <speed>1.8</speed>
  <fix>3d</fix>
</trkpt>
<trkpt lat="33.8099999" lon="-118.3939131">
  <ele>-9.48</ele>
  <time>2026-09-02T22:13:06Z</time>
  <course>187.38</course>
  <speed>1.257179382586272</speed>
  <fix>3d</fix>
</trkpt>
<trkpt lat="33.8099239" lon="-118.3939073">
  <ele>-8.47</ele>
  <time>2026-09-02T22:13:06Z</time>
  <course>186.73</course>
  <speed>1.8</speed>
  <fix>3d</fix>
</trkpt>
<trkpt lat="33.8099999" lon="-118.3939131">
  <ele>-9.476</ele>
  <time>2026-09-02T22:13:06Z</time>
  <course>187.38</course>
  <speed>1.2257650672131262</speed>
  <fix>3d</fix>
</trkpt>
<trkpt lat="33.8099216" lon="-118.393906">
  <ele>-8.48</ele>
  <time>2026-09-02T22:13:06Z</time>
  <course>186.73</course>
  <speed>1.8</speed>
  <fix>3d</fix>
</trkpt>
<trkpt lat="33.8099999" lon="-118.3939131">
  <ele>-9.473</ele>
  <time>2026-09-02T22:13:06Z</time>
  <course>187.38</course>
  <speed>1.2061923561356207</speed>
  <fix>3d</fix>
</trkpt>
<trkpt lat="33.8099216" lon="-118.393906">
  <ele>-8.48</ele>
  <time>2026-09-02T22:13:06Z</time>
  <course>186.73</course>
  <speed>1.8</speed>
  <fix>3d</fix>
</trkpt>
<trkpt lat="33.8099999" lon="-118.3939131">
  <ele>-9.47</ele>
  <time>2026-09-02T22:13:06Z</time>
  <course>187.37</course>
  <speed>1.1649892703368558</speed>
  <fix>3d</fix>
</trkpt>
<trkpt lat="33.8099194" lon="-118.3939046">
  <ele>-8.48</ele>
  <time>2026-09-02T22:13:06Z</time>
  <course>186.73</course>
  <speed>1.8</speed>
  <fix>3d</fix>
</trkpt>
<trkpt lat="33.8099999" lon="-118.3939131">
  <ele>-9.469</ele>
  <time>2026-09-02T22:13:06Z</time>
  <course>187.37</course>
  <speed>1.1454256850621083</speed>
  <fix>3d</fix>
</trkpt>
<trkpt lat="33.8099194" lon="-118.3939046">
  <ele>-8.48</ele>
  <time>2026-09-02T22:13:06Z</time>
  <course>186.73</course>
  <speed>1.8</speed>
  <fix>3d</fix>
</trkpt>
<trkpt lat="33.8099999" lon="-118.3939131">
  <ele>-9.471</ele>
  <time>2026-09-02T22:13:06Z</time>
  <course>187.38</course>
  <speed>1.1258774356030055</speed>
  <fix>3d</fix>
</trkpt>
<trkpt lat="33.8099173" lon="-118.3939034">
  <ele>-8.49</ele>
  <time>2026-09-02T22:13:06Z</time>
  <course>186.74</course>
  <speed>1.8</speed>
  <fix>3d</fix>
</trkpt>
<trkpt lat="33.8099999" lon="-118.3939131">
  <ele>-9.473</ele>
  <time>2026-09-02T22:13:06Z</time>
  <course>187.38</course>
  <speed>1.094440496326776</speed>
  <fix>3d</fix>
</trkpt>
<trkpt lat="33.8099173" lon="-118.3939034">
  <ele>-8.49</ele>
  <time>2026-09-02T22:13:06Z</time>
  <course>186.74</course>
  <speed>1.8</speed>
  <fix>3d</fix>
</trkpt>
<trkpt lat="33.8099999" lon="-118.3939131">
  <ele>-9.475</ele>
  <time>2026-09-02T22:13:06Z</time>
  <course>187.38</course>
  <speed>1.0651291001564083</speed>
  <fix>3d</fix>
</trkpt>
<trkpt lat="33.8099154" lon="-118.3939024">
  <ele>-8.5</ele>
  <time>2026-09-02T22:13:06Z</time>
  <course>186.76</course>
  <speed>1.8</speed>
  <fix>3d</fix>
</trkpt>
<trkpt lat="33.8099999" lon="-118.3939131">
  <ele>-9.477</ele>
  <time>2026-09-02T22:13:06Z</time>
  <course>187.38</course>
  <speed>1.045609869884557</speed>
  <fix>3d</fix>
</trkpt>
<trkpt lat="33.8099154" lon="-118.3939024">
  <ele>-8.5</ele>
  <time>2026-09-02T22:13:06Z</time>
  <course>186.76</course>
  <speed>1.8</speed>
  <fix>3d</fix>
</trkpt>
<trkpt lat="33.8099999" lon="-118.3939131">
  <ele>-9.477</ele>
  <time>2026-09-02T22:13:06Z</time>
  <course>187.38</course>
  <speed>1.0141498903022177</speed>
  <fix>3d</fix>
</trkpt>
<trkpt lat="33.8099136" lon="-118.3939015">
  <ele>-8.51</ele>
  <time>2026-09-02T22:13:06Z</time>
  <course>186.76</course>
  <speed>1.8</speed>
  <fix>3d</fix>
</trkpt>
<trkpt lat="33.8099999" lon="-118.3939131">
  <ele>-9.476</ele>
  <time>2026-09-02T22:13:06Z</time>
  <course>187.38</course>
  <speed>0.9848857801796105</speed>
  <fix>3d</fix>
</trkpt>
<trkpt lat="33.8099136" lon="-118.3939015">
  <ele>-8.51</ele>
  <time>2026-09-02T22:13:06Z</time>
  <course>186.76</course>
  <speed>1.8</speed>
  <fix>3d</fix>
</trkpt>
<trkpt lat="33.8099999" lon="-118.3939131">
  <ele>-9.475</ele>
  <time>2026-09-02T22:13:06Z</time>
  <course>187.38</course>
  <speed>0.9534149149242422</speed>
  <fix>3d</fix>
</trkpt>
<trkpt lat="33.8099119" lon="-118.3939009">
  <ele>-8.53</ele>
  <time>2026-09-02T22:13:06Z</time>
  <course>186.77</course>
  <speed>1.8</speed>
  <fix>3d</fix>
</trkpt>
<trkpt lat="33.8099999" lon="-118.3939131">
  <ele>-9.474</ele>
  <time>2026-09-02T22:13:06Z</time>
  <course>187.38</course>
  <speed>0.9241753080449618</speed>
  <fix>3d</fix>
</trkpt>
<trkpt lat="33.8099119" lon="-118.3939009">
  <ele>-8.53</ele>
  <time>2026-09-02T22:13:06Z</time>
  <course>186.77</course>
  <speed>1.8</speed>
  <fix>3d</fix>
</trkpt>
<trkpt lat="33.8099999" lon="-118.3939131">
  <ele>-9.474</ele>
  <time>2026-09-02T22:13:06Z</time>
  <course>187.38</course>
  <speed>0.9047098982546836</speed>
  <fix>3d</fix>
</trkpt>
<trkpt lat="33.8099103" lon="-118.3939003">
  <ele>-8.54</ele>
  <time>2026-09-02T22:13:06Z</time>
  <course>186.77</course>
  <speed>1.8</speed>
  <fix>3d</fix>
</trkpt>
<trkpt lat="33.8099999" lon="-118.3939131">
  <ele>-9.475</ele>
  <time>2026-09-02T22:13:06Z</time>
  <course>187.38</course>
  <speed>0.873212459828649</speed>
  <fix>3d</fix>
</trkpt>
<trkpt lat="33.8099103" lon="-118.3939003">
  <ele>-8.54</ele>
  <time>2026-09-02T22:13:06Z</time>
  <course>186.77</course>
  <speed>1.8</speed>
  <fix>3d</fix>
</trkpt>
<trkpt lat="33.8099999" lon="-118.3939131">
  <ele>-9.476</ele>
  <time>2026-09-02T22:13:06Z</time>
  <course>187.37</course>
  <speed>0.8440379138403676</speed>
  <fix>3d</fix>
</trkpt>
<trkpt lat="33.8099087" lon="-118.3939">
  <ele>-8.55</ele>
  <time>2026-09-02T22:13:06Z</time>
  <course>186.78</course>
  <speed>1.8</speed>
  <fix>3d</fix>
</trkpt>
<trkpt lat="33.8099999" lon="-118.3939131">
  <ele>-9.478</ele>
  <time>2026-09-02T22:13:06Z</time>
  <course>187.37</course>
  <speed>0.8149233092751734</speed>
  <fix>3d</fix>
</trkpt>
<trkpt lat="33.8099087" lon="-118.3939">
  <ele>-8.55</ele>
  <time>2026-09-02T22:13:06Z</time>
  <course>186.78</course>
  <speed>1.8</speed>
  <fix>3d</fix>
</trkpt>
<trkpt lat="33.8099999" lon="-118.3939131">
  <ele>-9.478</ele>
  <time>2026-09-02T22:13:06Z</time>
  <course>187.37</course>
  <speed>0.7833900688673555</speed>
  <fix>3d</fix>
</trkpt>
<trkpt lat="33.8099072" lon="-118.3938999">
  <ele>-8.56</ele>
  <time>2026-09-02T22:13:06Z</time>
  <course>186.78</course>
  <speed>1.8</speed>
  <fix>3d</fix>
</trkpt>
<trkpt lat="33.8099999" lon="-118.3939131">
  <ele>-9.478</ele>
  <time>2026-09-02T22:13:06Z</time>
  <course>187.38</course>
  <speed>0.7543208866258443</speed>
  <fix>3d</fix>
</trkpt>
<trkpt lat="33.8099072" lon="-118.3938999">
  <ele>-8.56</ele>
  <time>2026-09-02T22:13:06Z</time>
  <course>186.78</course>
  <speed>1.8</speed>
  <fix>3d</fix>
</trkpt>
<trkpt lat="33.8099999" lon="-118.3939131">
  <ele>-9.477</ele>
  <time>2026-09-02T22:13:06Z</time>
  <course>187.38</course>
  <speed>0.7227724399837061</speed>
  <fix>3d</fix>
</trkpt>
<trkpt lat="33.8099058" lon="-118.3939">
  <ele>-8.57</ele>
  <time>2026-09-02T22:13:06Z</time>
  <course>186.78</course>
  <speed>1.8</speed>
  <fix>3d</fix>
</trkpt>
<trkpt lat="33.8099999" lon="-118.3939131">
  <ele>-9.476</ele>
  <time>2026-09-02T22:13:06Z</time>
  <course>187.38</course>
  <speed>0.7034202158027589</speed>
  <fix>3d</fix>
</trkpt>
<trkpt lat="33.8099058" lon="-118.3939">
  <ele>-8.57</ele>
  <time>2026-09-02T22:13:06Z</time>
  <course>186.78</course>
  <speed>1.8</speed>
  <fix>3d</fix>
</trkpt>
<trkpt lat="33.8099999" lon="-118.3939131">
  <ele>-9.474</ele>
  <time>2026-09-02T22:13:06Z</time>
  <course>187.37</course>
  <speed>0.6744627491566899</speed>
  <fix>3d</fix>
</trkpt>
<trkpt lat="33.8099044" lon="-118.3939004">
  <ele>-8.57</ele>
  <time>2026-09-02T22:13:06Z</time>
  <course>186.79</course>
  <speed>1.8</speed>
  <fix>3d</fix>
</trkpt>
<trkpt lat="33.8099999" lon="-118.3939131">
  <ele>-9.472</ele>
  <time>2026-09-02T22:13:06Z</time>
  <course>187.38</course>
  <speed>0.6428841264178172</speed>
  <fix>3d</fix>
</trkpt>
<trkpt lat="33.8099044" lon="-118.3939004">
  <ele>-8.57</ele>
  <time>2026-09-02T22:13:06Z</time>
  <course>186.79</course>
  <speed>1.8</speed>
  <fix>3d</fix>
</trkpt>
<trkpt lat="33.8099999" lon="-118.3939131">
  <ele>-9.47</ele>
  <time>2026-09-02T22:13:06Z</time>
  <course>187.38</course>
  <speed>0.6140032573203501</speed>
  <fix>3d</fix>
</trkpt>
<trkpt lat="33.8099029" lon="-118.3939009">
  <ele>-8.58</ele>
  <time>2026-09-02T22:13:06Z</time>
  <course>186.79</course>
  <speed>1.8</speed>
  <fix>3d</fix>
</trkpt>
<trkpt lat="33.8099999" lon="-118.3939131">
  <ele>-9.471</ele>
  <time>2026-09-02T22:13:06Z</time>
  <course>187.38</course>
  <speed>0.5824087911424415</speed>
  <fix>3d</fix>
</trkpt>
<trkpt lat="33.8099029" lon="-118.3939009">
  <ele>-8.58</ele>
  <time>2026-09-02T22:13:06Z</time>
  <course>186.79</course>
  <speed>1.8</speed>
  <fix>3d</fix>
</trkpt>
<trkpt lat="33.8099999" lon="-118.3939131">
  <ele>-9.472</ele>
  <time>2026-09-02T22:13:06Z</time>
  <course>187.37</course>
  <speed>0.5536244214266564</speed>
  <fix>3d</fix>
</trkpt>
<trkpt lat="33.8099015" lon="-118.3939017">
  <ele>-8.59</ele>
  <time>2026-09-02T22:13:06Z</time>
  <course>186.8</course>
  <speed>1.8</speed>
  <fix>3d</fix>
</trkpt>
<trkpt lat="33.8099999" lon="-118.3939131">
  <ele>-9.474</ele>
  <time>2026-09-02T22:13:06Z</time>
  <course>187.38</course>
  <speed>0.5249761899362675</speed>
  <fix>3d</fix>
</trkpt>
<trkpt lat="33.8099015" lon="-118.3939017">
  <ele>-8.59</ele>
  <time>2026-09-02T22:13:06Z</time>
  <course>186.8</course>
  <speed>1.8</speed>
  <fix>3d</fix>
</trkpt>
<trkpt lat="33.8099999" lon="-118.3939131">
  <ele>-9.477</ele>
  <time>2026-09-02T22:13:06Z</time>
  <course>187.38</course>
  <speed>0.4933558553417604</speed>
  <fix>3d</fix>
</trkpt>
<trkpt lat="33.8099" lon="-118.3939027">
  <ele>-8.6</ele>
  <time>2026-09-02T22:13:06Z</time>
  <course>186.8</course>
  <speed>1.8</speed>
  <fix>3d</fix>
</trkpt>
<trkpt lat="33.81" lon="-118.393913">
  <ele>-9.48</ele>
  <time>2026-09-02T22:13:06Z</time>
  <course>187.37</course>
  <speed>0.18110770276274835</speed>
  <fix>3d</fix>
</trkpt>
<trkpt lat="33.8099" lon="-118.3939027">
  <ele>-8.6</ele>
  <time>2026-09-02T22:13:06Z</time>
  <course>186.8</course>
  <speed>1.8</speed>
  <fix>3d</fix>
</trkpt>
<trkpt lat="33.8100006" lon="-118.3939129">
  <ele>-9.482</ele>
  <time>2026-09-02T22:13:06Z</time>
  <course>187.37</course>
  <speed>0.03</speed>
  <fix>3d</fix>
</trkpt>
<trkpt lat="33.8098985" lon="-118.3939038">
  <ele>-8.61</ele>
  <time>2026-09-02T22:13:06Z</time>
  <course>186.88</course>
  <speed>1.65</speed>
  <fix>3d</fix>
</trkpt>
<trkpt lat="33.8100004" lon="-118.3939129">
  <ele>-9.482</ele>
  <time>2026-09-02T22:13:06Z</time>
  <course>187.41</course>
  <speed>0.0854400374531753</speed>
  <fix>3d</fix>
</trkpt>
<trkpt lat="33.8098985" lon="-118.3939038">
  <ele>-8.61</ele>
  <time>2026-09-02T22:13:06Z</time>
  <course>186.88</course>
  <speed>1.65</speed>
  <fix>3d</fix>
</trkpt>
<trkpt lat="33.8099996" lon="-118.393913">
  <ele>-9.482</ele>
  <time>2026-09-02T22:13:06Z</time>
  <course>187.52</course>
  <speed>0.1772004514666935</speed>
  <fix>3d</fix>
</trkpt>
<trkpt lat="33.8098974" lon="-118.3939051">
  <ele>-8.62</ele>
  <time>2026-09-02T22:13:06Z</time>
  <course>187.61</course>
  <speed>1.22</speed>
  <fix>3d</fix>
</trkpt>
<trkpt lat="33.8099987" lon="-118.3939131">
  <ele>-9.482</ele>
  <time>2026-09-02T22:13:06Z</time>
  <course>187.5</course>
  <speed>0.2668332812825267</speed>
  <fix>3d</fix>
</trkpt>
<trkpt lat="33.8098974" lon="-118.3939051">
  <ele>-8.62</ele>
  <time>2026-09-02T22:13:06Z</time>
  <course>187.61</course>
  <speed>1.22</speed>
  <fix>3d</fix>
</trkpt>
<trkpt lat="33.8099977" lon="-118.3939133">
  <ele>-9.481</ele>
  <time>2026-09-02T22:13:06Z</time>
  <course>187.39</course>
  <speed>0.356931365951495</speed>
  <fix>3d</fix>
</trkpt>
<trkpt lat="33.8098971" lon="-118.3939065">
  <ele>-8.63</ele>
  <time>2026-09-02T22:13:06Z</time>
  <course>189.35</course>
  <speed>0.79</speed>
  <fix>3d</fix>
</trkpt>
<trkpt lat="33.8099967" lon="-118.3939135">
  <ele>-9.479</ele>
  <time>2026-09-02T22:13:06Z</time>
  <course>187.33</course>
  <speed>0.4570557952810576</speed>
  <fix>3d</fix>
</trkpt>
<trkpt lat="33.8098971" lon="-118.3939065">
  <ele>-8.63</ele>
  <time>2026-09-02T22:13:06Z</time>
  <course>189.35</course>
  <speed>0.79</speed>
  <fix>3d</fix>
</trkpt>
<trkpt lat="33.8099957" lon="-118.3939137">
  <ele>-9.477</ele>
  <time>2026-09-02T22:13:06Z</time>
  <course>187.34</course>
  <speed>0.5770615218501404</speed>
  <fix>3d</fix>
</trkpt>
<trkpt lat="33.8098974" lon="-118.3939081">
  <ele>-8.64</ele>
  <time>2026-09-02T22:13:06Z</time>
  <course>190.27</course>
  <speed>0.6</speed>
  <fix>3d</fix>
</trkpt>
<trkpt lat="33.8099947" lon="-118.3939138">
  <ele>-9.474</ele>
  <time>2026-09-02T22:13:06Z</time>
  <course>187.36</course>
  <speed>0.6675327707311455</speed>
  <fix>3d</fix>
</trkpt>
<trkpt lat="33.8098974" lon="-118.3939081">
  <ele>-8.64</ele>
  <time>2026-09-02T22:13:06Z</time>
  <course>190.27</course>
  <speed>0.6</speed>
  <fix>3d</fix>
</trkpt>
<trkpt lat="33.8099938" lon="-118.393914">
  <ele>-9.471</ele>
  <time>2026-09-02T22:13:06Z</time>
  <course>187.38</course>
  <speed>0.758023746329889</speed>
  <fix>3d</fix>
</trkpt>
<trkpt lat="33.8098977" lon="-118.3939098">
  <ele>-8.64</ele>
  <time>2026-09-02T22:13:06Z</time>
  <course>189.25</course>
  <speed>0.63</speed>
  <fix>3d</fix>
</trkpt>
<trkpt lat="33.8099928" lon="-118.3939142">
  <ele>-9.468</ele>
  <time>2026-09-02T22:13:06Z</time>
  <course>187.39</course>
  <speed>0.8471717653463199</speed>
  <fix>3d</fix>
</trkpt>
<trkpt lat="33.8098977" lon="-118.3939098">
  <ele>-8.64</ele>
  <time>2026-09-02T22:13:06Z</time>
  <course>189.25</course>
  <speed>0.63</speed>
  <fix>3d</fix>
</trkpt>
<trkpt lat="33.8099919" lon="-118.3939143">
  <ele>-9.466</ele>
  <time>2026-09-02T22:13:06Z</time>
  <course>187.38</course>
  <speed>0.937709976485267</speed>
  <fix>3d</fix>
</trkpt>
<trkpt lat="33.8098976" lon="-118.3939116">
  <ele>-8.64</ele>
  <time>2026-09-02T22:13:06Z</time>
  <course>187.92</course>
  <speed>0.76</speed>
  <fix>3d</fix>
</trkpt>
<trkpt lat="33.8099909" lon="-118.3939145">
  <ele>-9.465</ele>
  <time>2026-09-02T22:13:06Z</time>
  <course>187.34</course>
  <speed>1.0282509421342632</speed>
  <fix>3d</fix>
</trkpt>
<trkpt lat="33.8098976" lon="-118.3939116">
  <ele>-8.64</ele>
  <time>2026-09-02T22:13:06Z</time>
  <course>187.92</course>
  <speed>0.76</speed>
  <fix>3d</fix>
</trkpt>
<trkpt lat="33.8099899" lon="-118.3939147">
  <ele>-9.465</ele>
  <time>2026-09-02T22:13:06Z</time>
  <course>187.3</course>
  <speed>1.1187939935484101</speed>
  <fix>3d</fix>
</trkpt>
<trkpt lat="33.8098972" lon="-118.3939136">
  <ele>-8.65</ele>
  <time>2026-09-02T22:13:06Z</time>
  <course>187.11</course>
  <speed>0.92</speed>
  <fix>3d</fix>
</trkpt>
<trkpt lat="33.8099888" lon="-118.3939148">
  <ele>-9.465</ele>
  <time>2026-09-02T22:13:06Z</time>
  <course>187.27</course>
  <speed>1.1982069938036581</speed>
  <fix>3d</fix>
</trkpt>
<trkpt lat="33.8098972" lon="-118.3939136">
  <ele>-8.65</ele>
  <time>2026-09-02T22:13:06Z</time>
  <course>187.11</course>
  <speed>0.92</speed>
  <fix>3d</fix>
</trkpt>
<trkpt lat="33.8099877" lon="-118.393915">
  <ele>-9.466</ele>
  <time>2026-09-02T22:13:06Z</time>
  <course>187.26</course>
  <speed>1.2688971589533962</speed>
  <fix>3d</fix>
</trkpt>
<trkpt lat="33.8098963" lon="-118.3939157">
  <ele>-8.67</ele>
  <time>2026-09-02T22:13:06Z</time>
  <course>186.78</course>
  <speed>1.09</speed>
  <fix>3d</fix>
</trkpt>
<trkpt lat="33.8099866" lon="-118.3939152">
  <ele>-9.467</ele>
  <time>2026-09-02T22:13:06Z</time>
  <course>187.24</course>
  <speed>1.339589489358587</speed>
  <fix>3d</fix>
</trkpt>
<trkpt lat="33.8098963" lon="-118.3939157">
  <ele>-8.67</ele>
  <time>2026-09-02T22:13:06Z</time>
  <course>186.78</course>
  <speed>1.09</speed>
  <fix>3d</fix>
</trkpt>
<trkpt lat="33.8099854" lon="-118.3939154">
  <ele>-9.47</ele>
  <time>2026-09-02T22:13:06Z</time>
  <course>187.25</course>
  <speed>1.4003570973148243</speed>
  <fix>3d</fix>
</trkpt>
<trkpt lat="33.809895" lon="-118.393918">
  <ele>-8.68</ele>
  <time>2026-09-02T22:13:06Z</time>
  <course>186.77</course>
  <speed>1.24</speed>
  <fix>3d</fix>
</trkpt>
<trkpt lat="33.8099841" lon="-118.3939156">
  <ele>-9.472</ele>
  <time>2026-09-02T22:13:06Z</time>
  <course>187.27</course>
  <speed>1.459931505242626</speed>
  <fix>3d</fix>
</trkpt>
<trkpt lat="33.809895" lon="-118.393918">
  <ele>-8.68</ele>
  <time>2026-09-02T22:13:06Z</time>
  <course>186.77</course>
  <speed>1.24</speed>
  <fix>3d</fix>
</trkpt>
<trkpt lat="33.8099829" lon="-118.3939158">
  <ele>-9.474</ele>
  <time>2026-09-02T22:13:06Z</time>
  <course>187.3</course>
  <speed>1.5008331019803633</speed>
  <fix>3d</fix>
</trkpt>
<trkpt lat="33.8098932" lon="-118.3939203">
  <ele>-8.7</ele>
  <time>2026-09-02T22:13:06Z</time>
  <course>186.88</course>
  <speed>1.36</speed>
  <fix>3d</fix>
</trkpt>
<trkpt lat="33.8099815" lon="-118.393916">
  <ele>-9.477</ele>
  <time>2026-09-02T22:13:06Z</time>
  <course>187.31</course>
  <speed>1.5516765126791086</speed>
  <fix>3d</fix>
</trkpt>
<trkpt lat="33.8098932" lon="-118.3939203">
  <ele>-8.7</ele>
  <time>2026-09-02T22:13:06Z</time>
  <course>186.88</course>
  <speed>1.36</speed>
  <fix>3d</fix>
</trkpt>
<trkpt lat="33.8099802" lon="-118.3939162">
  <ele>-9.479</ele>
  <time>2026-09-02T22:13:06Z</time>
  <course>187.32</course>
  <speed>1.5814550262337528</speed>
  <fix>3d</fix>
</trkpt>
<trkpt lat="33.8098911" lon="-118.3939228">
  <ele>-8.71</ele>
  <time>2026-09-02T22:13:06Z</time>
  <course>186.99</course>
  <speed>1.46</speed>
  <fix>3d</fix>
</trkpt>
<trkpt lat="33.8099788" lon="-118.3939164">
  <ele>-9.481</ele>
  <time>2026-09-02T22:13:06Z</time>
  <course>187.33</course>
  <speed>1.622374802565671</speed>
  <fix>3d</fix>
</trkpt>
<trkpt lat="33.8098911" lon="-118.3939228">
  <ele>-8.71</ele>
  <time>2026-09-02T22:13:06Z</time>
  <course>186.99</course>
  <speed>1.46</speed>
  <fix>3d</fix>
</trkpt>
<trkpt lat="33.8099774" lon="-118.3939166">
  <ele>-9.482</ele>
  <time>2026-09-02T22:13:06Z</time>
  <course>187.33</course>
  <speed>1.6422241016377759</speed>
  <fix>3d</fix>
</trkpt>
<trkpt lat="33.8098887" lon="-118.3939253">
  <ele>-8.72</ele>
  <time>2026-09-02T22:13:06Z</time>
  <course>187.06</course>
  <speed>1.54</speed>
  <fix>3d</fix>
</trkpt>
<trkpt lat="33.809976" lon="-118.3939168">
  <ele>-9.481</ele>
  <time>2026-09-02T22:13:06Z</time>
  <course>187.33</course>
  <speed>1.6720047846821493</speed>
  <fix>3d</fix>
</trkpt>
<trkpt lat="33.8098887" lon="-118.3939253">
  <ele>-8.72</ele>
  <time>2026-09-02T22:13:06Z</time>
  <course>187.06</course>
  <speed>1.54</speed>
  <fix>3d</fix>
</trkpt>
<trkpt lat="33.8099745" lon="-118.393917">
  <ele>-9.48</ele>
  <time>2026-09-02T22:13:06Z</time>
  <course>187.34</course>
  <speed>1.691862878604528</speed>
  <fix>3d</fix>
</trkpt>
<trkpt lat="33.8098859" lon="-118.3939279">
  <ele>-8.73</ele>
  <time>2026-09-02T22:13:06Z</time>
  <course>187.09</course>
  <speed>1.6</speed>
  <fix>3d</fix>
</trkpt>
<trkpt lat="33.809973" lon="-118.3939173">
  <ele>-9.479</ele>
  <time>2026-09-02T22:13:06Z</time>
  <course>187.35</course>
  <speed>1.7129214809792073</speed>
  <fix>3d</fix>
</trkpt>
<trkpt lat="33.8098859" lon="-118.3939279">
  <ele>-8.73</ele>
  <time>2026-09-02T22:13:06Z</time>
  <course>187.09</course>
  <speed>1.6</speed>
  <fix>3d</fix>
</trkpt>
<trkpt lat="33.8099716" lon="-118.3939175">
  <ele>-9.477</ele>
  <time>2026-09-02T22:13:06Z</time>
  <course>187.35</course>
  <speed>1.7228464818433473</speed>
  <fix>3d</fix>
</trkpt>
<trkpt lat="33.8098829" lon="-118.3939305">
  <ele>-8.74</ele>
  <time>2026-09-02T22:13:06Z</time>
  <course>187.1</course>
  <speed>1.65</speed>
  <fix>3d</fix>
</trkpt>
<trkpt lat="33.8099701" lon="-118.3939177">
  <ele>-9.475</ele>
  <time>2026-09-02T22:13:06Z</time>
  <course>187.35</course>
  <speed>1.7426990560621762</speed>
  <fix>3d</fix>
</trkpt>
<trkpt lat="33.8098829" lon="-118.3939305">
  <ele>-8.74</ele>
  <time>2026-09-02T22:13:06Z</time>
  <course>187.1</course>
  <speed>1.65</speed>
  <fix>3d</fix>
</trkpt>
<trkpt lat="33.8099686" lon="-118.393918">
  <ele>-9.475</ele>
  <time>2026-09-02T22:13:06Z</time>
  <course>187.36</course>
  <speed>1.7526266002774236</speed>
  <fix>3d</fix>
</trkpt>
<trkpt lat="33.8098796" lon="-118.3939331">
  <ele>-8.75</ele>
  <time>2026-09-02T22:13:06Z</time>
  <course>187.1</course>
  <speed>1.69</speed>
  <fix>3d</fix>
</trkpt>
<trkpt lat="33.809967" lon="-118.3939182">
  <ele>-9.475</ele>
  <time>2026-09-02T22:13:06Z</time>
  <course>187.36</course>
  <speed>1.7625549636819842</speed>
  <fix>3d</fix>
</trkpt>
<trkpt lat="33.8098796" lon="-118.3939331">
  <ele>-8.75</ele>
  <time>2026-09-02T22:13:06Z</time>
  <course>187.1</course>
  <speed>1.69</speed>
  <fix>3d</fix>
</trkpt>
<trkpt lat="33.8099655" lon="-118.3939184">
  <ele>-9.476</ele>
  <time>2026-09-02T22:13:06Z</time>
  <course>187.36</course>
  <speed>1.7625549636819842</speed>
  <fix>3d</fix>
</trkpt>
<trkpt lat="33.8098761" lon="-118.3939356">
  <ele>-8.76</ele>
  <time>2026-09-02T22:13:06Z</time>
  <course>187.1</course>
  <speed>1.71</speed>
  <fix>3d</fix>
</trkpt>
<trkpt lat="33.8099639" lon="-118.3939187">
  <ele>-9.479</ele>
  <time>2026-09-02T22:13:06Z</time>
  <course>187.37</course>
  <speed>1.7736967046256809</speed>
  <fix>3d</fix>
</trkpt>
<trkpt lat="33.8098761" lon="-118.3939356">
  <ele>-8.76</ele>
  <time>2026-09-02T22:13:06Z</time>
  <course>187.1</course>
  <speed>1.71</speed>
  <fix>3d</fix>
</trkpt>
<trkpt lat="33.8099624" lon="-118.3939189">
  <ele>-9.48</ele>
  <time>2026-09-02T22:13:06Z</time>
  <course>187.37</course>
  <speed>1.7836199146679206</speed>
  <fix>3d</fix>
</trkpt>
<trkpt lat="33.8098723" lon="-118.3939381">
  <ele>-8.77</ele>
  <time>2026-09-02T22:13:06Z</time>
  <course>187.11</course>
  <speed>1.73</speed>
  <fix>3d</fix>
</trkpt>
<trkpt lat="33.8099608" lon="-118.3939192">
  <ele>-9.48</ele>
  <time>2026-09-02T22:13:06Z</time>
  <course>187.37</course>
  <speed>1.7836199146679206</speed>
  <fix>3d</fix>
</trkpt>
<trkpt lat="33.8098723" lon="-118.3939381">
  <ele>-8.77</ele>
  <time>2026-09-02T22:13:06Z</time>
  <course>187.11</course>
  <speed>1.73</speed>
  <fix>3d</fix>
</trkpt>
<trkpt lat="33.8099593" lon="-118.3939194">
  <ele>-9.478</ele>
  <time>2026-09-02T22:13:06Z</time>
  <course>187.37</course>
  <speed>1.7836199146679206</speed>
  <fix>3d</fix>
</trkpt>
<trkpt lat="33.8098684" lon="-118.3939405">
  <ele>-8.78</ele>
  <time>2026-09-02T22:13:06Z</time>
  <course>187.11</course>
  <speed>1.74</speed>
  <fix>3d</fix>
</trkpt>
<trkpt lat="33.8099577" lon="-118.3939196">
  <ele>-9.476</ele>
  <time>2026-09-02T22:13:06Z</time>
  <course>187.37</course>
  <speed>1.7935439777156288</speed>
  <fix>3d</fix>
</trkpt>
<trkpt lat="33.8098684" lon="-118.3939405">
  <ele>-8.78</ele>
  <time>2026-09-02T22:13:06Z</time>
  <course>187.11</course>
  <speed>1.74</speed>
  <fix>3d</fix>
</trkpt>
<trkpt lat="33.8099561" lon="-118.3939199">
  <ele>-9.473</ele>
  <time>2026-09-02T22:13:06Z</time>
  <course>187.37</course>
  <speed>1.7935439777156288</speed>
  <fix>3d</fix>
</trkpt>
<trkpt lat="33.8098644" lon="-118.3939428">
  <ele>-8.79</ele>
  <time>2026-09-02T22:13:06Z</time>
  <course>187.11</course>
  <speed>1.75</speed>
  <fix>3d</fix>
</trkpt>
<trkpt lat="33.8099546" lon="-118.3939201">
  <ele>-9.473</ele>
  <time>2026-09-02T22:13:06Z</time>
  <course>187.37</course>
  <speed>1.7935439777156288</speed>
  <fix>3d</fix>
</trkpt>
<trkpt lat="33.8098644" lon="-118.3939428">
  <ele>-8.79</ele>
  <time>2026-09-02T22:13:06Z</time>
  <course>187.11</course>
  <speed>1.75</speed>
  <fix>3d</fix>
</trkpt>
<trkpt lat="33.809953" lon="-118.3939204">
  <ele>-9.473</ele>
  <time>2026-09-02T22:13:06Z</time>
  <course>187.37</course>
  <speed>1.7935439777156288</speed>
  <fix>3d</fix>
</trkpt>
<trkpt lat="33.8098602" lon="-118.393945">
  <ele>-8.8</ele>
  <time>2026-09-02T22:13:06Z</time>
  <course>187.13</course>
  <speed>1.76</speed>
  <fix>3d</fix>
</trkpt>
<trkpt lat="33.8099514" lon="-118.3939206">
  <ele>-9.473</ele>
  <time>2026-09-02T22:13:06Z</time>
  <course>187.37</course>
  <speed>1.7935439777156288</speed>
  <fix>3d</fix>
</trkpt>
<trkpt lat="33.8098602" lon="-118.393945">
  <ele>-8.8</ele>
  <time>2026-09-02T22:13:06Z</time>
  <course>187.13</course>
  <speed>1.76</speed>
  <fix>3d</fix>
</trkpt>
<trkpt lat="33.8099498" lon="-118.3939209">
  <ele>-9.474</ele>
  <time>2026-09-02T22:13:06Z</time>
  <course>187.37</course>
  <speed>1.8034688796871432</speed>
  <fix>3d</fix>
</trkpt>
<trkpt lat="33.8098558" lon="-118.393947">
  <ele>-8.81</ele>
  <time>2026-09-02T22:13:06Z</time>
  <course>187.14</course>
  <speed>1.77</speed>
  <fix>3d</fix>
</trkpt>
<trkpt lat="33.8099483" lon="-118.3939211">
  <ele>-9.474</ele>
  <time>2026-09-02T22:13:06Z</time>
  <course>187.37</course>
  <speed>1.8034688796871432</speed>
  <fix>3d</fix>
</trkpt>
<trkpt lat="33.8098558" lon="-118.393947">
  <ele>-8.81</ele>
  <time>2026-09-02T22:13:06Z</time>
  <course>187.14</course>
  <speed>1.77</speed>
  <fix>3d</fix>
</trkpt>
<trkpt lat="33.8099467" lon="-118.3939214">
  <ele>-9.475</ele>
  <time>2026-09-02T22:13:06Z</time>
  <course>187.37</course>
  <speed>1.8034688796871432</speed>
  <fix>3d</fix>
</trkpt>
<trkpt lat="33.8098512" lon="-118.3939489">
  <ele>-8.82</ele>
  <time>2026-09-02T22:13:06Z</time>
  <course>187.15</course>
  <speed>1.77</speed>
  <fix>3d</fix>
</trkpt>
<trkpt lat="33.8099451" lon="-118.3939216">
  <ele>-9.475</ele>
  <time>2026-09-02T22:13:06Z</time>
  <course>187.37</course>
  <speed>1.8034688796871432</speed>
  <fix>3d</fix>
</trkpt>
<trkpt lat="33.8098512" lon="-118.3939489">
  <ele>-8.82</ele>
  <time>2026-09-02T22:13:06Z</time>
  <course>187.15</course>
  <speed>1.77</speed>
  <fix>3d</fix>
</trkpt>
<trkpt lat="33.8099435" lon="-118.3939218">
  <ele>-9.476</ele>
  <time>2026-09-02T22:13:06Z</time>
  <course>187.38</course>
  <speed>1.8034688796871432</speed>
  <fix>3d</fix>
</trkpt>
<trkpt lat="33.8098466" lon="-118.3939506">
  <ele>-8.83</ele>
  <time>2026-09-02T22:13:06Z</time>
  <course>187.16</course>
  <speed>1.77</speed>
  <fix>3d</fix>
</trkpt>
<trkpt lat="33.8099419" lon="-118.3939221">
  <ele>-9.475</ele>
  <time>2026-09-02T22:13:06Z</time>
  <course>187.37</course>
  <speed>1.8034688796871432</speed>
  <fix>3d</fix>
</trkpt>
<trkpt lat="33.8098466" lon="-118.3939506">
  <ele>-8.83</ele>
  <time>2026-09-02T22:13:06Z</time>
  <course>187.16</course>
  <speed>1.77</speed>
  <fix>3d</fix>
</trkpt>
<trkpt lat="33.8099403" lon="-118.3939223">
  <ele>-9.475</ele>
  <time>2026-09-02T22:13:06Z</time>
  <course>187.37</course>
  <speed>1.7935439777156288</speed>
  <fix>3d</fix>
</trkpt>
<trkpt lat="33.8098418" lon="-118.3939521">
  <ele>-8.85</ele>
  <time>2026-09-02T22:13:06Z</time>
  <course>187.17</course>
  <speed>1.77</speed>
  <fix>3d</fix>
</trkpt>
<trkpt lat="33.8099388" lon="-118.3939226">
  <ele>-9.476</ele>
  <time>2026-09-02T22:13:06Z</time>
  <course>187.37</course>
  <speed>1.7935439777156288</speed>
  <fix>3d</fix>
</trkpt>
<trkpt lat="33.8098418" lon="-118.3939521">
  <ele>-8.85</ele>
  <time>2026-09-02T22:13:06Z</time>
  <course>187.17</course>
  <speed>1.77</speed>
  <fix>3d</fix>
</trkpt>
<trkpt lat="33.8099372" lon="-118.3939228">
  <ele>-9.477</ele>
  <time>2026-09-02T22:13:06Z</time>
  <course>187.37</course>
  <speed>1.8034688796871432</speed>
  <fix>3d</fix>
</trkpt>
<trkpt lat="33.809837" lon="-118.3939535">
  <ele>-8.86</ele>
  <time>2026-09-02T22:13:06Z</time>
  <course>187.18</course>
  <speed>1.77</speed>
  <fix>3d</fix>
</trkpt>
<trkpt lat="33.8099356" lon="-118.3939231">
  <ele>-9.479</ele>
  <time>2026-09-02T22:13:06Z</time>
  <course>187.37</course>
  <speed>1.7935439777156288</speed>
  <fix>3d</fix>
</trkpt>
<trkpt lat="33.809837" lon="-118.3939535">
  <ele>-8.86</ele>
  <time>2026-09-02T22:13:06Z</time>
  <course>187.18</course>
  <speed>1.77</speed>
  <fix>3d</fix>
</trkpt>
<trkpt lat="33.809934" lon="-118.3939233">
  <ele>-9.479</ele>
  <time>2026-09-02T22:13:06Z</time>
  <course>187.37</course>
  <speed>1.7935439777156288</speed>
  <fix>3d</fix>
</trkpt>
<trkpt lat="33.8098321" lon="-118.3939546">
  <ele>-8.87</ele>
  <time>2026-09-02T22:13:06Z</time>
  <course>187.19</course>
  <speed>1.78</speed>
  <fix>3d</fix>
</trkpt>
<trkpt lat="33.8099324" lon="-118.3939236">
  <ele>-9.48</ele>
  <time>2026-09-02T22:13:06Z</time>
  <course>187.37</course>
  <speed>1.7935439777156288</speed>
  <fix>3d</fix>
</trkpt>
<trkpt lat="33.8098321" lon="-118.3939546">
  <ele>-8.87</ele>
  <time>2026-09-02T22:13:06Z</time>
  <course>187.19</course>
  <speed>1.78</speed>
  <fix>3d</fix>
</trkpt>
<trkpt lat="33.8099308" lon="-118.3939238">
  <ele>-9.48</ele>
  <time>2026-09-02T22:13:06Z</time>
  <course>187.37</course>
  <speed>1.7935439777156288</speed>
  <fix>3d</fix>
</trkpt>
<trkpt lat="33.8098272" lon="-118.3939555">
  <ele>-8.88</ele>
  <time>2026-09-02T22:13:06Z</time>
  <course>187.19</course>
  <speed>1.78</speed>
  <fix>3d</fix>
</trkpt>
<trkpt lat="33.8099292" lon="-118.3939241">
  <ele>-9.48</ele>
  <time>2026-09-02T22:13:06Z</time>
  <course>187.37</course>
  <speed>1.7935439777156288</speed>
  <fix>3d</fix>
</trkpt>
<trkpt lat="33.8098272" lon="-118.3939555">
  <ele>-8.88</ele>
  <time>2026-09-02T22:13:06Z</time>
  <course>187.19</course>
  <speed>1.78</speed>
  <fix>3d</fix>
</trkpt>
<trkpt lat="33.8099277" lon="-118.3939243">
  <ele>-9.479</ele>
  <time>2026-09-02T22:13:06Z</time>
  <course>187.37</course>
  <speed>1.7935439777156288</speed>
  <fix>3d</fix>
</trkpt>
<trkpt lat="33.8098222" lon="-118.3939562">
  <ele>-8.88</ele>
  <time>2026-09-02T22:13:06Z</time>
  <course>187.19</course>
  <speed>1.77</speed>
  <fix>3d</fix>
</trkpt>
<trkpt lat="33.8099261" lon="-118.3939245">
  <ele>-9.479</ele>
  <time>2026-09-02T22:13:06Z</time>
  <course>187.37</course>
  <speed>1.7935439777156288</speed>
  <fix>3d</fix>
</trkpt>
<trkpt lat="33.8098222" lon="-118.3939562">
  <ele>-8.88</ele>
  <time>2026-09-02T22:13:06Z</time>
  <course>187.19</course>
  <speed>1.77</speed>
  <fix>3d</fix>
</trkpt>
<trkpt lat="33.8099245" lon="-118.3939248">
  <ele>-9.478</ele>
  <time>2026-09-02T22:13:06Z</time>
  <course>187.36</course>
  <speed>1.7935439777156288</speed>
  <fix>3d</fix>
</trkpt>
<trkpt lat="33.8098172" lon="-118.3939567">
  <ele>-8.89</ele>
  <time>2026-09-02T22:13:06Z</time>
  <course>187.19</course>
  <speed>1.77</speed>
  <fix>3d</fix>
</trkpt>
<trkpt lat="33.8099229" lon="-118.393925">
  <ele>-9.478</ele>
  <time>2026-09-02T22:13:06Z</time>
  <course>187.37</course>
  <speed>1.7935439777156288</speed>
  <fix>3d</fix>
</trkpt>
<trkpt lat="33.8098172" lon="-118.3939567">
  <ele>-8.89</ele>
  <time>2026-09-02T22:13:06Z</time>
  <course>187.19</course>
  <speed>1.77</speed>
  <fix>3d</fix>
</trkpt>
<trkpt lat="33.8099213" lon="-118.3939253">
  <ele>-9.478</ele>
  <time>2026-09-02T22:13:06Z</time>
  <course>187.37</course>
  <speed>1.7935439777156288</speed>
  <fix>3d</fix>
</trkpt>
<trkpt lat="33.8098123" lon="-118.393957">
  <ele>-8.9</ele>
  <time>2026-09-02T22:13:06Z</time>
  <course>187.2</course>
  <speed>1.77</speed>
  <fix>3d</fix>
</trkpt>
<trkpt lat="33.8099197" lon="-118.3939255">
  <ele>-9.478</ele>
  <time>2026-09-02T22:13:06Z</time>
  <course>187.37</course>
  <speed>1.7836199146679206</speed>
  <fix>3d</fix>
</trkpt>
<trkpt lat="33.8098123" lon="-118.393957">
  <ele>-8.9</ele>
  <time>2026-09-02T22:13:06Z</time>
  <course>187.2</course>
  <speed>1.77</speed>
  <fix>3d</fix>
</trkpt>
<trkpt lat="33.8099182" lon="-118.3939258">
  <ele>-9.479</ele>
  <time>2026-09-02T22:13:06Z</time>
  <course>187.37</course>
  <speed>1.7836199146679206</speed>
  <fix>3d</fix>
</trkpt>
<trkpt lat="33.8098074" lon="-118.3939571">
  <ele>-8.91</ele>
  <time>2026-09-02T22:13:06Z</time>
  <course>187.21</course>
  <speed>1.78</speed>
  <fix>3d</fix>
</trkpt>
<trkpt lat="33.8099166" lon="-118.393926">
  <ele>-9.478</ele>
  <time>2026-09-02T22:13:06Z</time>
  <course>187.37</course>
  <speed>1.7836199146679206</speed>
  <fix>3d</fix>
</trkpt>
<trkpt lat="33.8098074" lon="-118.3939571">
  <ele>-8.91</ele>
  <time>2026-09-02T22:13:06Z</time>
  <course>187.21</course>
  <speed>1.78</speed>
  <fix>3d</fix>
</trkpt>
<trkpt lat="33.809915" lon="-118.3939263">
  <ele>-9.476</ele>
  <time>2026-09-02T22:13:06Z</time>
  <course>187.36</course>
  <speed>1.7836199146679206</speed>
  <fix>3d</fix>
</trkpt>
<trkpt lat="33.8098025" lon="-118.3939569">
  <ele>-8.91</ele>
  <time>2026-09-02T22:13:06Z</time>
  <course>187.22</course>
  <speed>1.78</speed>
  <fix>3d</fix>
</trkpt>
<trkpt lat="33.8099134" lon="-118.3939265">
  <ele>-9.473</ele>
  <time>2026-09-02T22:13:06Z</time>
  <course>187.36</course>
  <speed>1.7836199146679206</speed>
  <fix>3d</fix>
</trkpt>
<trkpt lat="33.8098025" lon="-118.3939569">
  <ele>-8.91</ele>
  <time>2026-09-02T22:13:06Z</time>
  <course>187.22</course>
  <speed>1.78</speed>
  <fix>3d</fix>
</trkpt>
<trkpt lat="33.8099118" lon="-118.3939268">
  <ele>-9.471</ele>
  <time>2026-09-02T22:13:06Z</time>
  <course>187.36</course>
  <speed>1.7836199146679206</speed>
  <fix>3d</fix>
</trkpt>
<trkpt lat="33.8097976" lon="-118.3939566">
  <ele>-8.92</ele>
  <time>2026-09-02T22:13:06Z</time>
  <course>187.22</course>
  <speed>1.77</speed>
  <fix>3d</fix>
</trkpt>
<trkpt lat="33.8099102" lon="-118.393927">
  <ele>-9.47</ele>
  <time>2026-09-02T22:13:06Z</time>
  <course>187.36</course>
  <speed>1.7836199146679206</speed>
  <fix>3d</fix>
</trkpt>
<trkpt lat="33.8097976" lon="-118.3939566">
  <ele>-8.92</ele>
  <time>2026-09-02T22:13:06Z</time>
  <course>187.22</course>
  <speed>1.77</speed>
  <fix>3d</fix>
</trkpt>
<trkpt lat="33.8099086" lon="-118.3939273">
  <ele>-9.47</ele>
  <time>2026-09-02T22:13:06Z</time>
  <course>187.36</course>
  <speed>1.7836199146679206</speed>
  <fix>3d</fix>
</trkpt>
<trkpt lat="33.8097929" lon="-118.393956">
  <ele>-8.93</ele>
  <time>2026-09-02T22:13:06Z</time>
  <course>187.22</course>
  <speed>1.77</speed>
  <fix>3d</fix>
</trkpt>
<trkpt lat="33.8099071" lon="-118.3939275">
  <ele>-9.47</ele>
  <time>2026-09-02T22:13:06Z</time>
  <course>187.36</course>
  <speed>1.7836199146679206</speed>
  <fix>3d</fix>
</trkpt>
<trkpt lat="33.8097929" lon="-118.393956">
  <ele>-8.93</ele>
  <time>2026-09-02T22:13:06Z</time>
  <course>187.22</course>
  <speed>1.77</speed>
  <fix>3d</fix>
</trkpt>
<trkpt lat="33.8099055" lon="-118.3939277">
  <ele>-9.47</ele>
  <time>2026-09-02T22:13:06Z</time>
  <course>187.36</course>
  <speed>1.7836199146679206</speed>
  <fix>3d</fix>
</trkpt>
<trkpt lat="33.8097882" lon="-118.3939553">
  <ele>-8.94</ele>
  <time>2026-09-02T22:13:06Z</time>
  <course>187.23</course>
  <speed>1.77</speed>
  <fix>3d</fix>
</trkpt>
<trkpt lat="33.8099039" lon="-118.393928">
  <ele>-9.471</ele>
  <time>2026-09-02T22:13:06Z</time>
  <course>187.36</course>
  <speed>1.7836199146679206</speed>
  <fix>3d</fix>
</trkpt>
<trkpt lat="33.8097882" lon="-118.3939553">
  <ele>-8.94</ele>
  <time>2026-09-02T22:13:06Z</time>
  <course>187.23</course>
  <speed>1.77</speed>
  <fix>3d</fix>
</trkpt>
<trkpt lat="33.8099023" lon="-118.3939282">
  <ele>-9.473</ele>
  <time>2026-09-02T22:13:06Z</time>
  <course>187.36</course>
  <speed>1.7836199146679206</speed>
  <fix>3d</fix>
</trkpt>
<trkpt lat="33.8097837" lon="-118.3939544">
  <ele>-8.95</ele>
  <time>2026-09-02T22:13:06Z</time>
  <course>187.23</course>
  <speed>1.77</speed>
  <fix>3d</fix>
</trkpt>
<trkpt lat="33.8099007" lon="-118.3939285">
  <ele>-9.474</ele>
  <time>2026-09-02T22:13:06Z</time>
  <course>187.36</course>
  <speed>1.7836199146679206</speed>
  <fix>3d</fix>
</trkpt>
<trkpt lat="33.8097837" lon="-118.3939544">
  <ele>-8.95</ele>
  <time>2026-09-02T22:13:06Z</time>
  <course>187.23</course>
  <speed>1.77</speed>
  <fix>3d</fix>
</trkpt>
<trkpt lat="33.8098992" lon="-118.3939287">
  <ele>-9.476</ele>
  <time>2026-09-02T22:13:06Z</time>
  <course>187.36</course>
  <speed>1.7736967046256809</speed>
  <fix>3d</fix>
</trkpt>
<trkpt lat="33.8097793" lon="-118.3939534">
  <ele>-8.97</ele>
  <time>2026-09-02T22:13:06Z</time>
  <course>187.23</course>
  <speed>1.77</speed>
  <fix>3d</fix>
</trkpt>
<trkpt lat="33.8098976" lon="-118.393929">
  <ele>-9.478</ele>
  <time>2026-09-02T22:13:06Z</time>
  <course>187.36</course>
  <speed>1.7736967046256809</speed>
  <fix>3d</fix>
</trkpt>
<trkpt lat="33.8097793" lon="-118.3939534">
  <ele>-8.97</ele>
  <time>2026-09-02T22:13:06Z</time>
  <course>187.23</course>
  <speed>1.77</speed>
  <fix>3d</fix>
</trkpt>
<trkpt lat="33.809896" lon="-118.3939292">
  <ele>-9.478</ele>
  <time>2026-09-02T22:13:06Z</time>
  <course>187.36</course>
  <speed>1.7736967046256809</speed>
  <fix>3d</fix>
</trkpt>
<trkpt lat="33.809775" lon="-118.3939522">
  <ele>-8.98</ele>
  <time>2026-09-02T22:13:06Z</time>
  <course>187.23</course>
  <speed>1.77</speed>
  <fix>3d</fix>
</trkpt>
<trkpt lat="33.8098944" lon="-118.3939295">
  <ele>-9.477</ele>
  <time>2026-09-02T22:13:06Z</time>
  <course>187.35</course>
  <speed>1.7736967046256809</speed>
  <fix>3d</fix>
</trkpt>
<trkpt lat="33.809775" lon="-118.3939522">
  <ele>-8.98</ele>
  <time>2026-09-02T22:13:06Z</time>
  <course>187.23</course>
  <speed>1.77</speed>
  <fix>3d</fix>
</trkpt>
<trkpt lat="33.8098928" lon="-118.3939297">
  <ele>-9.475</ele>
  <time>2026-09-02T22:13:06Z</time>
  <course>187.35</course>
  <speed>1.7736967046256809</speed>
  <fix>3d</fix>
</trkpt>
<trkpt lat="33.8097708" lon="-118.3939508">
  <ele>-9.0</ele>
  <time>2026-09-02T22:13:06Z</time>
  <course>187.23</course>
  <speed>1.77</speed>
  <fix>3d</fix>
</trkpt>
<trkpt lat="33.8098912" lon="-118.39393">
  <ele>-9.472</ele>
  <time>2026-09-02T22:13:06Z</time>
  <course>187.36</course>
  <speed>1.7736967046256809</speed>
  <fix>3d</fix>
</trkpt>
<trkpt lat="33.8097708" lon="-118.3939508">
  <ele>-9.0</ele>
  <time>2026-09-02T22:13:06Z</time>
  <course>187.23</course>
  <speed>1.77</speed>
  <fix>3d</fix>
</trkpt>
<trkpt lat="33.8098897" lon="-118.3939302">
  <ele>-9.47</ele>
  <time>2026-09-02T22:13:06Z</time>
  <course>187.36</course>
  <speed>1.7736967046256809</speed>
  <fix>3d</fix>
</trkpt>
<trkpt lat="33.8097668" lon="-118.3939493">
  <ele>-9.01</ele>
  <time>2026-09-02T22:13:06Z</time>
  <course>187.24</course>
  <speed>1.77</speed>
  <fix>3d</fix>
</trkpt>
<trkpt lat="33.8098881" lon="-118.3939304">
  <ele>-9.469</ele>
  <time>2026-09-02T22:13:06Z</time>
  <course>187.36</course>
  <speed>1.7736967046256809</speed>
  <fix>3d</fix>
</trkpt>
<trkpt lat="33.8097668" lon="-118.3939493">
  <ele>-9.01</ele>
  <time>2026-09-02T22:13:06Z</time>
  <course>187.24</course>
  <speed>1.77</speed>
  <fix>3d</fix>
</trkpt>
<trkpt lat="33.8098865" lon="-118.3939307">
  <ele>-9.47</ele>
  <time>2026-09-02T22:13:06Z</time>
  <course>187.36</course>
  <speed>1.7736967046256809</speed>
  <fix>3d</fix>
</trkpt>
<trkpt lat="33.809763" lon="-118.3939478">
  <ele>-9.02</ele>
  <time>2026-09-02T22:13:06Z</time>
  <course>187.24</course>
  <speed>1.77</speed>
  <fix>3d</fix>
</trkpt>
<trkpt lat="33.8098849" lon="-118.3939309">
  <ele>-9.47</ele>
  <time>2026-09-02T22:13:06Z</time>
  <course>187.36</course>
  <speed>1.7736967046256809</speed>
  <fix>3d</fix>
</trkpt>
<trkpt lat="33.809763" lon="-118.3939478">
  <ele>-9.02</ele>
  <time>2026-09-02T22:13:06Z</time>
  <course>187.24</course>
  <speed>1.77</speed>
  <fix>3d</fix>
</trkpt>
<trkpt lat="33.8098833" lon="-118.3939312">
  <ele>-9.471</ele>
  <time>2026-09-02T22:13:06Z</time>
  <course>187.36</course>
  <speed>1.7736967046256809</speed>
  <fix>3d</fix>
</trkpt>
<trkpt lat="33.8097593" lon="-118.3939462">
  <ele>-9.03</ele>
  <time>2026-09-02T22:13:06Z</time>
  <course>187.24</course>
  <speed>1.77</speed>
  <fix>3d</fix>
</trkpt>
<trkpt lat="33.8098818" lon="-118.3939314">
  <ele>-9.473</ele>
  <time>2026-09-02T22:13:07Z</time>
  <course>187.36</course>
  <speed>1.7736967046256809</speed>
  <fix>3d</fix>
</trkpt>
<trkpt lat="33.8097593" lon="-118.3939462">
  <ele>-9.03</ele>
  <time>2026-09-02T22:13:07Z</time>
  <course>187.24</course>
  <speed>1.77</speed>
  <fix>3d</fix>
</trkpt>
<trkpt lat="33.8098802" lon="-118.3939317">
  <ele>-9.476</ele>
  <time>2026-09-02T22:13:07Z</time>
  <course>187.36</course>
  <speed>1.7736967046256809</speed>
  <fix>3d</fix>
</trkpt>
<trkpt lat="33.8097559" lon="-118.3939446">
  <ele>-9.04</ele>
  <time>2026-09-02T22:13:07Z</time>
  <course>187.24</course>
  <speed>1.77</speed>
  <fix>3d</fix>
</trkpt>
<trkpt lat="33.8098786" lon="-118.3939319">
  <ele>-9.479</ele>
  <time>2026-09-02T22:13:07Z</time>
  <course>187.36</course>
  <speed>1.7736967046256809</speed>
  <fix>3d</fix>
</trkpt>
<trkpt lat="33.8097559" lon="-118.3939446">
  <ele>-9.04</ele>
  <time>2026-09-02T22:13:07Z</time>
  <course>187.24</course>
  <speed>1.77</speed>
  <fix>3d</fix>
</trkpt>
<trkpt lat="33.809877" lon="-118.3939322">
  <ele>-9.481</ele>
  <time>2026-09-02T22:13:07Z</time>
  <course>187.35</course>
  <speed>1.7637743619862492</speed>
  <fix>3d</fix>
</trkpt>
<trkpt lat="33.8097526" lon="-118.393943">
  <ele>-9.06</ele>
  <time>2026-09-02T22:13:07Z</time>
  <course>187.24</course>
  <speed>1.77</speed>
  <fix>3d</fix>
</trkpt>
<trkpt lat="33.8098754" lon="-118.3939324">
  <ele>-9.482</ele>
  <time>2026-09-02T22:13:07Z</time>
  <course>187.35</course>
  <speed>1.7637743619862492</speed>
  <fix>3d</fix>
</trkpt>
<trkpt lat="33.8097526" lon="-118.393943">
  <ele>-9.06</ele>
  <time>2026-09-02T22:13:07Z</time>
  <course>187.24</course>
  <speed>1.77</speed>
  <fix>3d</fix>
</trkpt>
<trkpt lat="33.8098739" lon="-118.3939327">
  <ele>-9.481</ele>
  <time>2026-09-02T22:13:07Z</time>
  <course>187.35</course>
  <speed>1.7637743619862492</speed>
  <fix>3d</fix>
</trkpt>
<trkpt lat="33.8097495" lon="-118.3939413">
  <ele>-9.07</ele>
  <time>2026-09-02T22:13:07Z</time>
  <course>187.24</course>
  <speed>1.77</speed>
  <fix>3d</fix>
</trkpt>
<trkpt lat="33.8098723" lon="-118.3939329">
  <ele>-9.479</ele>
  <time>2026-09-02T22:13:07Z</time>
  <course>187.36</course>
  <speed>1.7637743619862492</speed>
  <fix>3d</fix>
</trkpt>
<trkpt lat="33.8097495" lon="-118.3939413">
  <ele>-9.07</ele>
  <time>2026-09-02T22:13:07Z</time>
  <course>187.24</course>
  <speed>1.77</speed>
  <fix>3d</fix>
</trkpt>
<trkpt lat="33.8098707" lon="-118.3939331">
  <ele>-9.478</ele>
  <time>2026-09-02T22:13:07Z</time>
  <course>187.36</course>
  <speed>1.7637743619862492</speed>
  <fix>3d</fix>
</trkpt>
<trkpt lat="33.8097466" lon="-118.3939396">
  <ele>-9.08</ele>
  <time>2026-09-02T22:13:07Z</time>
  <course>187.24</course>
  <speed>1.77</speed>
  <fix>3d</fix>
</trkpt>
<trkpt lat="33.8098691" lon="-118.3939334">
  <ele>-9.477</ele>
  <time>2026-09-02T22:13:07Z</time>
  <course>187.36</course>
  <speed>1.7637743619862492</speed>
  <fix>3d</fix>
</trkpt>
<trkpt lat="33.8097466" lon="-118.3939396">
  <ele>-9.08</ele>
  <time>2026-09-02T22:13:07Z</time>
  <course>187.24</course>
  <speed>1.77</speed>
  <fix>3d</fix>
</trkpt>
<trkpt lat="33.8098676" lon="-118.3939336">
  <ele>-9.476</ele>
  <time>2026-09-02T22:13:07Z</time>
  <course>187.36</course>
  <speed>1.7637743619862492</speed>
  <fix>3d</fix>
</trkpt>
<trkpt lat="33.8097438" lon="-118.3939379">
  <ele>-9.09</ele>
  <time>2026-09-02T22:13:07Z</time>
  <course>187.24</course>
  <speed>1.77</speed>
  <fix>3d</fix>
</trkpt>
<trkpt lat="33.809866" lon="-118.3939339">
  <ele>-9.476</ele>
  <time>2026-09-02T22:13:07Z</time>
  <course>187.36</course>
  <speed>1.7637743619862492</speed>
  <fix>3d</fix>
</trkpt>
<trkpt lat="33.8097438" lon="-118.3939379">
  <ele>-9.09</ele>
  <time>2026-09-02T22:13:07Z</time>
  <course>187.24</course>
  <speed>1.77</speed>
  <fix>3d</fix>
</trkpt>
<trkpt lat="33.8098644" lon="-118.3939341">
  <ele>-9.477</ele>
  <time>2026-09-02T22:13:07Z</time>
  <course>187.36</course>
  <speed>1.7637743619862492</speed>
  <fix>3d</fix>
</trkpt>
<trkpt lat="33.8097412" lon="-118.3939364">
  <ele>-9.1</ele>
  <time>2026-09-02T22:13:07Z</time>
  <course>187.25</course>
  <speed>1.77</speed>
  <fix>3d</fix>
</trkpt>
<trkpt lat="33.8098628" lon="-118.3939344">
  <ele>-9.478</ele>
  <time>2026-09-02T22:13:07Z</time>
  <course>187.36</course>
  <speed>1.7637743619862492</speed>
  <fix>3d</fix>
</trkpt>
<trkpt lat="33.8097412" lon="-118.3939364">
  <ele>-9.1</ele>
  <time>2026-09-02T22:13:07Z</time>
  <course>187.25</course>
  <speed>1.77</speed>
  <fix>3d</fix>
</trkpt>
<trkpt lat="33.8098613" lon="-118.3939346">
  <ele>-9.479</ele>
  <time>2026-09-02T22:13:07Z</time>
  <course>187.37</course>
  <speed>1.7637743619862492</speed>
  <fix>3d</fix>
</trkpt>
<trkpt lat="33.8097388" lon="-118.3939349">
  <ele>-9.11</ele>
  <time>2026-09-02T22:13:07Z</time>
  <course>187.25</course>
  <speed>1.76</speed>
  <fix>3d</fix>
</trkpt>
<trkpt lat="33.8098597" lon="-118.3939349">
  <ele>-9.479</ele>
  <time>2026-09-02T22:13:07Z</time>
  <course>187.37</course>
  <speed>1.7637743619862492</speed>
  <fix>3d</fix>
</trkpt>
<trkpt lat="33.8097388" lon="-118.3939349">
  <ele>-9.11</ele>
  <time>2026-09-02T22:13:07Z</time>
  <course>187.25</course>
  <speed>1.76</speed>
  <fix>3d</fix>
</trkpt>
<trkpt lat="33.8098581" lon="-118.3939351">
  <ele>-9.479</ele>
  <time>2026-09-02T22:13:07Z</time>
  <course>187.36</course>
  <speed>1.7637743619862492</speed>
  <fix>3d</fix>
</trkpt>
<trkpt lat="33.8097365" lon="-118.3939336">
  <ele>-9.12</ele>
  <time>2026-09-02T22:13:07Z</time>
  <course>187.25</course>
  <speed>1.76</speed>
  <fix>3d</fix>
</trkpt>
<trkpt lat="33.8098565" lon="-118.3939353">
  <ele>-9.478</ele>
  <time>2026-09-02T22:13:07Z</time>
  <course>187.36</course>
  <speed>1.7637743619862492</speed>
  <fix>3d</fix>
</trkpt>
<trkpt lat="33.8097365" lon="-118.3939336">
  <ele>-9.12</ele>
  <time>2026-09-02T22:13:07Z</time>
  <course>187.25</course>
  <speed>1.76</speed>
  <fix>3d</fix>
</trkpt>
<trkpt lat="33.809855" lon="-118.3939356">
  <ele>-9.477</ele>
  <time>2026-09-02T22:13:07Z</time>
  <course>187.36</course>
  <speed>1.7340126873814967</speed>
  <fix>3d</fix>
</trkpt>
<trkpt lat="33.8097344" lon="-118.3939323">
  <ele>-9.14</ele>
  <time>2026-09-02T22:13:07Z</time>
  <course>187.24</course>
  <speed>1.76</speed>
  <fix>3d</fix>
</trkpt>
<trkpt lat="33.8098535" lon="-118.3939358">
  <ele>-9.478</ele>
  <time>2026-09-02T22:13:07Z</time>
  <course>187.36</course>
  <speed>1.6533904560024533</speed>
  <fix>3d</fix>
</trkpt>
<trkpt lat="33.8097344" lon="-118.3939323">
  <ele>-9.14</ele>
  <time>2026-09-02T22:13:07Z</time>
  <course>187.24</course>
  <speed>1.76</speed>
  <fix>3d</fix>
</trkpt>
<trkpt lat="33.809852" lon="-118.393936">
  <ele>-9.479</ele>
  <time>2026-09-02T22:13:07Z</time>
  <course>187.35</course>
  <speed>1.5318289721767244</speed>
  <fix>3d</fix>
</trkpt>
<trkpt lat="33.8097325" lon="-118.3939311">
  <ele>-9.15</ele>
  <time>2026-09-02T22:13:07Z</time>
  <course>187.25</course>
  <speed>1.69</speed>
  <fix>3d</fix>
</trkpt>
<trkpt lat="33.8098507" lon="-118.3939362">
  <ele>-9.477</ele>
  <time>2026-09-02T22:13:07Z</time>
  <course>187.36</course>
  <speed>1.3705838172107534</speed>
  <fix>3d</fix>
</trkpt>
<trkpt lat="33.8097325" lon="-118.3939311">
  <ele>-9.15</ele>
  <time>2026-09-02T22:13:07Z</time>
  <course>187.25</course>
  <speed>1.69</speed>
  <fix>3d</fix>
</trkpt>
<trkpt lat="33.8098496" lon="-118.3939364">
  <ele>-9.461</ele>
  <time>2026-09-02T22:13:07Z</time>
  <course>187.36</course>
  <speed>1.1894956914591999</speed>
  <fix>3d</fix>
</trkpt>
<trkpt lat="33.809731" lon="-118.3939301">
  <ele>-9.15</ele>
  <time>2026-09-02T22:13:07Z</time>
  <course>187.27</course>
  <speed>1.46</speed>
  <fix>3d</fix>
</trkpt>
<trkpt lat="33.8098486" lon="-118.3939366">
  <ele>-9.423</ele>
  <time>2026-09-02T22:13:07Z</time>
  <course>187.37</course>
  <speed>1.0480935072788113</speed>
  <fix>3d</fix>
</trkpt>
<trkpt lat="33.809731" lon="-118.3939301">
  <ele>-9.15</ele>
  <time>2026-09-02T22:13:07Z</time>
  <course>187.27</course>
  <speed>1.46</speed>
  <fix>3d</fix>
</trkpt>
<trkpt lat="33.8098485" lon="-118.3939366">
  <ele>-9.42</ele>
  <time>2026-09-02T22:13:07Z</time>
  <course>187.37</course>
  <speed>1.0381714694596456</speed>
  <fix>3d</fix>
</trkpt>
<trkpt lat="33.8098477" lon="-118.3939367">
  <ele>-9.363</ele>
  <time>2026-09-02T22:13:07Z</time>
  <course>187.37</course>
  <speed>0.8868483523128404</speed>
  <fix>3d</fix>
</trkpt>
<trkpt lat="33.8097301" lon="-118.3939291">
  <ele>-9.12</ele>
  <time>2026-09-02T22:13:07Z</time>
  <course>187.27</course>
  <speed>1.15</speed>
  <fix>3d</fix>
</trkpt>
<trkpt lat="33.8098477" lon="-118.3939367">
  <ele>-9.359</ele>
  <time>2026-09-02T22:13:07Z</time>
  <course>187.37</course>
  <speed>0.8868483523128404</speed>
  <fix>3d</fix>
</trkpt>
<trkpt lat="33.809847" lon="-118.3939368">
  <ele>-9.282</ele>
  <time>2026-09-02T22:13:07Z</time>
  <course>187.37</course>
  <speed>0.7653103945458993</speed>
  <fix>3d</fix>
</trkpt>
<trkpt lat="33.8097301" lon="-118.3939291">
  <ele>-9.12</ele>
  <time>2026-09-02T22:13:07Z</time>
  <course>187.27</course>
  <speed>1.15</speed>
  <fix>3d</fix>
</trkpt>
<trkpt lat="33.809847" lon="-118.3939368">
  <ele>-9.28</ele>
  <time>2026-09-02T22:13:07Z</time>
  <course>187.37</course>
  <speed>0.7553806987208503</speed>
  <fix>3d</fix>
</trkpt>
<trkpt lat="33.8098463" lon="-118.3939369">
  <ele>-9.182</ele>
  <time>2026-09-02T22:13:07Z</time>
  <course>187.38</course>
  <speed>0.6648308055437865</speed>
  <fix>3d</fix>
</trkpt>
<trkpt lat="33.8097298" lon="-118.3939283">
  <ele>-9.02</ele>
  <time>2026-09-02T22:13:07Z</time>
  <course>187.24</course>
  <speed>0.86</speed>
  <fix>3d</fix>
</trkpt>
<trkpt lat="33.8098463" lon="-118.3939369">
  <ele>-9.179</ele>
  <time>2026-09-02T22:13:07Z</time>
  <course>187.38</course>
  <speed>0.6648308055437865</speed>
  <fix>3d</fix>
</trkpt>
<trkpt lat="33.8098458" lon="-118.393937">
  <ele>-9.062</ele>
  <time>2026-09-02T22:13:07Z</time>
  <course>187.38</course>
  <speed>0.594138031100518</speed>
  <fix>3d</fix>
</trkpt>
<trkpt lat="33.8097298" lon="-118.3939283">
  <ele>-9.02</ele>
  <time>2026-09-02T22:13:07Z</time>
  <course>187.24</course>
  <speed>0.86</speed>
  <fix>3d</fix>
</trkpt>
<trkpt lat="33.8098458" lon="-118.393937">
  <ele>-9.059</ele>
  <time>2026-09-02T22:13:07Z</time>
  <course>187.38</course>
  <speed>0.594138031100518</speed>
  <fix>3d</fix>
</trkpt>
<trkpt lat="33.8098453" lon="-118.3939371">
  <ele>-8.933</ele>
  <time>2026-09-02T22:13:07Z</time>
  <course>187.38</course>
  <speed>0.5333854141237835</speed>
  <fix>3d</fix>
</trkpt>
<trkpt lat="33.8097301" lon="-118.3939276">
  <ele>-8.85</ele>
  <time>2026-09-02T22:13:07Z</time>
  <course>187.19</course>
  <speed>0.65</speed>
  <fix>3d</fix>
</trkpt>
<trkpt lat="33.8098453" lon="-118.3939371">
  <ele>-8.93</ele>
  <time>2026-09-02T22:13:07Z</time>
  <course>187.38</course>
  <speed>0.5333854141237835</speed>
  <fix>3d</fix>
</trkpt>
<trkpt lat="33.8098448" lon="-118.3939372">
  <ele>-8.803</ele>
  <time>2026-09-02T22:13:07Z</time>
  <course>187.38</course>
  <speed>0.48373546489791297</speed>
  <fix>3d</fix>
</trkpt>
<trkpt lat="33.8097301" lon="-118.3939276">
  <ele>-8.85</ele>
  <time>2026-09-02T22:13:07Z</time>
  <course>187.19</course>
  <speed>0.65</speed>
  <fix>3d</fix>
</trkpt>
<trkpt lat="33.8098448" lon="-118.3939372">
  <ele>-8.799</ele>
  <time>2026-09-02T22:13:07Z</time>
  <course>187.38</course>
  <speed>0.48373546489791297</speed>
  <fix>3d</fix>
</trkpt>
<trkpt lat="33.8098444" lon="-118.3939372">
  <ele>-8.671</ele>
  <time>2026-09-02T22:13:07Z</time>
  <course>187.37</course>
  <speed>0.43289721643826723</speed>
  <fix>3d</fix>
</trkpt>
<trkpt lat="33.8097308" lon="-118.393927">
  <ele>-8.63</ele>
  <time>2026-09-02T22:13:07Z</time>
  <course>187.15</course>
  <speed>0.52</speed>
  <fix>3d</fix>
</trkpt>
<trkpt lat="33.8098444" lon="-118.3939372">
  <ele>-8.667</ele>
  <time>2026-09-02T22:13:07Z</time>
  <course>187.37</course>
  <speed>0.43289721643826723</speed>
  <fix>3d</fix>
</trkpt>
<trkpt lat="33.809844" lon="-118.3939373">
  <ele>-8.538</ele>
  <time>2026-09-02T22:13:07Z</time>
  <course>187.37</course>
  <speed>0.39319206502675</speed>
  <fix>3d</fix>
</trkpt>
<trkpt lat="33.8097308" lon="-118.393927">
  <ele>-8.63</ele>
  <time>2026-09-02T22:13:07Z</time>
  <course>187.15</course>
  <speed>0.52</speed>
  <fix>3d</fix>
</trkpt>
<trkpt lat="33.809844" lon="-118.3939373">
  <ele>-8.534</ele>
  <time>2026-09-02T22:13:07Z</time>
  <course>187.36</course>
  <speed>0.39319206502675</speed>
  <fix>3d</fix>
</trkpt>
<trkpt lat="33.8098437" lon="-118.3939373">
  <ele>-8.406</ele>
  <time>2026-09-02T22:13:07Z</time>
  <course>187.35</course>
  <speed>0.3522782990761707</speed>
  <fix>3d</fix>
</trkpt>
<trkpt lat="33.8097316" lon="-118.3939266">
  <ele>-8.4</ele>
  <time>2026-09-02T22:13:07Z</time>
  <course>187.14</course>
  <speed>0.42</speed>
  <fix>3d</fix>
</trkpt>
<trkpt lat="33.8098437" lon="-118.3939373">
  <ele>-8.401</ele>
  <time>2026-09-02T22:13:07Z</time>
  <course>187.35</course>
  <speed>0.3522782990761707</speed>
  <fix>3d</fix>
</trkpt>
<trkpt lat="33.8098434" lon="-118.3939374">
  <ele>-8.273</ele>
  <time>2026-09-02T22:13:07Z</time>
  <course>187.33</course>
  <speed>0.3125699921617557</speed>
  <fix>3d</fix>
</trkpt>
<trkpt lat="33.8097316" lon="-118.3939266">
  <ele>-8.4</ele>
  <time>2026-09-02T22:13:07Z</time>
  <course>187.14</course>
  <speed>0.42</speed>
  <fix>3d</fix>
</trkpt>
<trkpt lat="33.8098434" lon="-118.3939374">
  <ele>-8.27</ele>
  <time>2026-09-02T22:13:07Z</time>
  <course>187.33</course>
  <speed>0.3125699921617557</speed>
  <fix>3d</fix>
</trkpt>
<trkpt lat="33.8098431" lon="-118.3939374">
  <ele>-8.141</ele>
  <time>2026-09-02T22:13:07Z</time>
  <course>187.31</course>
  <speed>0.2816025568065745</speed>
  <fix>3d</fix>
</trkpt>
<trkpt lat="33.8097327" lon="-118.3939264">
  <ele>-8.16</ele>
  <time>2026-09-02T22:13:07Z</time>
  <course>187.14</course>
  <speed>0.34</speed>
  <fix>3d</fix>
</trkpt>
<trkpt lat="33.8098431" lon="-118.3939374">
  <ele>-8.138</ele>
  <time>2026-09-02T22:13:07Z</time>
  <course>187.3</course>
  <speed>0.2816025568065745</speed>
  <fix>3d</fix>
</trkpt>
<trkpt lat="33.8098429" lon="-118.3939375">
  <ele>-8.009</ele>
  <time>2026-09-02T22:13:07Z</time>
  <course>187.27</course>
  <speed>0.25179356624028343</speed>
  <fix>3d</fix>
</trkpt>
<trkpt lat="33.8097327" lon="-118.3939264">
  <ele>-8.16</ele>
  <time>2026-09-02T22:13:07Z</time>
  <course>187.14</course>
  <speed>0.34</speed>
  <fix>3d</fix>
</trkpt>
<trkpt lat="33.8098429" lon="-118.3939375">
  <ele>-8.006</ele>
  <time>2026-09-02T22:13:07Z</time>
  <course>187.27</course>
  <speed>0.25179356624028343</speed>
  <fix>3d</fix>
</trkpt>
<trkpt lat="33.8098427" lon="-118.3939375">
  <ele>-7.878</ele>
  <time>2026-09-02T22:13:07Z</time>
  <course>187.24</course>
  <speed>0.2220360331117452</speed>
  <fix>3d</fix>
</trkpt>
<trkpt lat="33.809734" lon="-118.3939264">
  <ele>-7.93</ele>
  <time>2026-09-02T22:13:07Z</time>
  <course>187.13</course>
  <speed>0.27</speed>
  <fix>3d</fix>
</trkpt>
<trkpt lat="33.8098426" lon="-118.3939375">
  <ele>-7.875</ele>
  <time>2026-09-02T22:13:07Z</time>
  <course>187.24</course>
  <speed>0.2220360331117452</speed>
  <fix>3d</fix>
</trkpt>
<trkpt lat="33.8098425" lon="-118.3939375">
  <ele>-7.747</ele>
  <time>2026-09-02T22:13:07Z</time>
  <course>187.2</course>
  <speed>0.2009975124224178</speed>
  <fix>3d</fix>
</trkpt>
<trkpt lat="33.809734" lon="-118.3939264">
  <ele>-7.93</ele>
  <time>2026-09-02T22:13:07Z</time>
  <course>187.13</course>
  <speed>0.27</speed>
  <fix>3d</fix>
</trkpt>
<trkpt lat="33.8098425" lon="-118.3939375">
  <ele>-7.744</ele>
  <time>2026-09-02T22:13:07Z</time>
  <course>187.2</course>
  <speed>0.2009975124224178</speed>
  <fix>3d</fix>
</trkpt>
<trkpt lat="33.8098423" lon="-118.3939376">
  <ele>-7.617</ele>
  <time>2026-09-02T22:13:07Z</time>
  <course>187.17</course>
  <speed>0.18110770276274835</speed>
  <fix>3d</fix>
</trkpt>
<trkpt lat="33.8097353" lon="-118.3939265">
  <ele>-7.7</ele>
  <time>2026-09-02T22:13:07Z</time>
  <course>187.15</course>
  <speed>0.22</speed>
  <fix>3d</fix>
</trkpt>
<trkpt lat="33.8098423" lon="-118.3939376">
  <ele>-7.613</ele>
  <time>2026-09-02T22:13:07Z</time>
  <course>187.17</course>
  <speed>0.18110770276274835</speed>
  <fix>3d</fix>
</trkpt>
<trkpt lat="33.8098421" lon="-118.3939376">
  <ele>-7.486</ele>
  <time>2026-09-02T22:13:07Z</time>
  <course>187.14</course>
  <speed>0.1711724276862369</speed>
  <fix>3d</fix>
</trkpt>
<trkpt lat="33.8097353" lon="-118.3939265">
  <ele>-7.7</ele>
  <time>2026-09-02T22:13:07Z</time>
  <course>187.15</course>
  <speed>0.22</speed>
  <fix>3d</fix>
</trkpt>
<trkpt lat="33.8098421" lon="-118.3939376">
  <ele>-7.483</ele>
  <time>2026-09-02T22:13:07Z</time>
  <course>187.14</course>
  <speed>0.1711724276862369</speed>
  <fix>3d</fix>
</trkpt>
<trkpt lat="33.809842" lon="-118.3939376">
  <ele>-7.357</ele>
  <time>2026-09-02T22:13:07Z</time>
  <course>187.2</course>
  <speed>0.15132745950421556</speed>
  <fix>3d</fix>
</trkpt>
<trkpt lat="33.8097367" lon="-118.3939269">
  <ele>-7.46</ele>
  <time>2026-09-02T22:13:07Z</time>
  <course>186.94</course>
  <speed>0.18</speed>
  <fix>3d</fix>
</trkpt>
<trkpt lat="33.809842" lon="-118.3939376">
  <ele>-7.354</ele>
  <time>2026-09-02T22:13:07Z</time>
  <course>187.2</course>
  <speed>0.15132745950421556</speed>
  <fix>3d</fix>
</trkpt>
<trkpt lat="33.8098418" lon="-118.3939376">
  <ele>-7.229</ele>
  <time>2026-09-02T22:13:07Z</time>
  <course>187.3</course>
  <speed>0.130384048104053</speed>
  <fix>3d</fix>
</trkpt>
<trkpt lat="33.8097367" lon="-118.3939269">
  <ele>-7.46</ele>
  <time>2026-09-02T22:13:07Z</time>
  <course>186.94</course>
  <speed>0.18</speed>
  <fix>3d</fix>
</trkpt>
<trkpt lat="33.8098418" lon="-118.3939376">
  <ele>-7.227</ele>
  <time>2026-09-02T22:13:07Z</time>
  <course>187.3</course>
  <speed>0.130384048104053</speed>
  <fix>3d</fix>
</trkpt>
<trkpt lat="33.8098417" lon="-118.3939377">
  <ele>-7.101</ele>
  <time>2026-09-02T22:13:07Z</time>
  <course>187.41</course>
  <speed>0.11045361017187261</speed>
  <fix>3d</fix>
</trkpt>
<trkpt lat="33.8097382" lon="-118.3939275">
  <ele>-7.22</ele>
  <time>2026-09-02T22:13:07Z</time>
  <course>186.42</course>
  <speed>0.15</speed>
  <fix>3d</fix>
</trkpt>
<trkpt lat="33.8098417" lon="-118.3939377">
  <ele>-7.099</ele>
  <time>2026-09-02T22:13:07Z</time>
  <course>187.41</course>
  <speed>0.11045361017187261</speed>
  <fix>3d</fix>
</trkpt>
<trkpt lat="33.8098416" lon="-118.3939377">
  <ele>-6.973</ele>
  <time>2026-09-02T22:13:07Z</time>
  <course>187.52</course>
  <speed>0.1004987562112089</speed>
  <fix>3d</fix>
</trkpt>
<trkpt lat="33.8097382" lon="-118.3939275">
  <ele>-7.22</ele>
  <time>2026-09-02T22:13:07Z</time>
  <course>186.42</course>
  <speed>0.15</speed>
  <fix>3d</fix>
</trkpt>
<trkpt lat="33.8098416" lon="-118.3939377">
  <ele>-6.971</ele>
  <time>2026-09-02T22:13:07Z</time>
  <course>187.52</course>
  <speed>0.1004987562112089</speed>
  <fix>3d</fix>
</trkpt>
<trkpt lat="33.8098415" lon="-118.3939377">
  <ele>-6.845</ele>
  <time>2026-09-02T22:13:07Z</time>
  <course>187.61</course>
  <speed>0.08062257748298549</speed>
  <fix>3d</fix>
</trkpt>
<trkpt lat="33.8097396" lon="-118.3939283">
  <ele>-6.99</ele>
  <time>2026-09-02T22:13:07Z</time>
  <course>185.97</course>
  <speed>0.11</speed>
  <fix>3d</fix>
</trkpt>
<trkpt lat="33.8098415" lon="-118.3939377">
  <ele>-6.843</ele>
  <time>2026-09-02T22:13:07Z</time>
  <course>187.61</course>
  <speed>0.08062257748298549</speed>
  <fix>3d</fix>
</trkpt>
<trkpt lat="33.8098415" lon="-118.3939377">
  <ele>-6.717</ele>
  <time>2026-09-02T22:13:07Z</time>
  <course>187.68</course>
  <speed>0.06082762530298219</speed>
  <fix>3d</fix>
</trkpt>
<trkpt lat="33.8097396" lon="-118.3939283">
  <ele>-6.99</ele>
  <time>2026-09-02T22:13:07Z</time>
  <course>185.97</course>
  <speed>0.11</speed>
  <fix>3d</fix>
</trkpt>
<trkpt lat="33.8098415" lon="-118.3939377">
  <ele>-6.714</ele>
  <time>2026-09-02T22:13:07Z</time>
  <course>187.69</course>
  <speed>0.06082762530298219</speed>
  <fix>3d</fix>
</trkpt>
<trkpt lat="33.8098414" lon="-118.3939377">
  <ele>-6.59</ele>
  <time>2026-09-02T22:13:07Z</time>
  <course>187.73</course>
  <speed>0.04</speed>
  <fix>3d</fix>
</trkpt>
<trkpt lat="33.8097411" lon="-118.3939293">
  <ele>-6.76</ele>
  <time>2026-09-02T22:13:07Z</time>
  <course>185.69</course>
  <speed>0.07</speed>
  <fix>3d</fix>
</trkpt>
<trkpt lat="33.8098414" lon="-118.3939377">
  <ele>-6.549</ele>
  <time>2026-09-02T22:13:07Z</time>
  <course>187.74</course>
  <speed>0.04</speed>
  <fix>3d</fix>
</trkpt>
<trkpt lat="33.8098414" lon="-118.3939377">
  <ele>-6.463</ele>
  <time>2026-09-02T22:13:07Z</time>
  <course>187.77</course>
  <speed>0.03</speed>
  <fix>3d</fix>
</trkpt>
<trkpt lat="33.8097411" lon="-118.3939293">
  <ele>-6.76</ele>
  <time>2026-09-02T22:13:07Z</time>
  <course>185.69</course>
  <speed>0.07</speed>
  <fix>3d</fix>
</trkpt>
<trkpt lat="33.8098414" lon="-118.3939377">
  <ele>-6.46</ele>
  <time>2026-09-02T22:13:07Z</time>
  <course>187.77</course>
  <speed>0.03</speed>
  <fix>3d</fix>
</trkpt>
<trkpt lat="33.8098414" lon="-118.3939377">
  <ele>-6.337</ele>
  <time>2026-09-02T22:13:07Z</time>
  <course>187.79</course>
  <speed>0.01</speed>
  <fix>3d</fix>
</trkpt>
<trkpt lat="33.8097425" lon="-118.3939304">
  <ele>-6.52</ele>
  <time>2026-09-02T22:13:07Z</time>
  <course>185.16</course>
  <speed>0.04</speed>
  <fix>3d</fix>
</trkpt>
<trkpt lat="33.8098414" lon="-118.3939377">
  <ele>-6.335</ele>
  <time>2026-09-02T22:13:07Z</time>
  <course>187.79</course>
  <speed>0.01</speed>
  <fix>3d</fix>
</trkpt>
<trkpt lat="33.8098414" lon="-118.3939377">
  <ele>-6.215</ele>
  <time>2026-09-02T22:13:07Z</time>
  <course>187.81</course>
  <speed>0.0</speed>
  <fix>3d</fix>
</trkpt>
<trkpt lat="33.8097425" lon="-118.3939304">
  <ele>-6.52</ele>
  <time>2026-09-02T22:13:07Z</time>
  <course>185.16</course>
  <speed>0.04</speed>
  <fix>3d</fix>
</trkpt>
<trkpt lat="33.8098414" lon="-118.3939377">
  <ele>-6.211</ele>
  <time>2026-09-02T22:13:07Z</time>
  <course>187.81</course>
  <speed>0.0</speed>
  <fix>3d</fix>
</trkpt>
<trkpt lat="33.8098414" lon="-118.3939377">
  <ele>-6.092</ele>
  <time>2026-09-02T22:13:07Z</time>
  <course>187.83</course>
  <speed>0.0</speed>
  <fix>3d</fix>
</trkpt>
<trkpt lat="33.8097439" lon="-118.3939318">
  <ele>-6.29</ele>
  <time>2026-09-02T22:13:07Z</time>
  <course>181.97</course>
  <speed>0.01</speed>
  <fix>3d</fix>
</trkpt>
<trkpt lat="33.8098414" lon="-118.3939377">
  <ele>-6.088</ele>
  <time>2026-09-02T22:13:07Z</time>
  <course>187.83</course>
  <speed>0.0</speed>
  <fix>3d</fix>
</trkpt>
<trkpt lat="33.8098414" lon="-118.3939377">
  <ele>-5.969</ele>
  <time>2026-09-02T22:13:07Z</time>
  <course>187.84</course>
  <speed>0.01</speed>
  <fix>3d</fix>
</trkpt>
<trkpt lat="33.8097439" lon="-118.3939318">
  <ele>-6.29</ele>
  <time>2026-09-02T22:13:07Z</time>
  <course>181.97</course>
  <speed>0.01</speed>
  <fix>3d</fix>
</trkpt>
<trkpt lat="33.8098414" lon="-118.3939377">
  <ele>-5.966</ele>
  <time>2026-09-02T22:13:07Z</time>
  <course>187.85</course>
  <speed>0.01</speed>
  <fix>3d</fix>
</trkpt>
<trkpt lat="33.8098414" lon="-118.3939377">
  <ele>-5.847</ele>
  <time>2026-09-02T22:13:07Z</time>
  <course>187.86</course>
  <speed>0.02</speed>
  <fix>3d</fix>
</trkpt>
<trkpt lat="33.8097452" lon="-118.3939332">
  <ele>-6.06</ele>
  <time>2026-09-02T22:13:07Z</time>
  <course>18.69</course>
  <speed>0.0</speed>
  <fix>3d</fix>
</trkpt>
<trkpt lat="33.8098414" lon="-118.3939377">
  <ele>-5.844</ele>
  <time>2026-09-02T22:13:07Z</time>
  <course>187.87</course>
  <speed>0.02</speed>
  <fix>3d</fix>
</trkpt>
<trkpt lat="33.8098414" lon="-118.3939377">
  <ele>-5.726</ele>
  <time>2026-09-02T22:13:07Z</time>
  <course>187.88</course>
  <speed>0.02</speed>
  <fix>3d</fix>
</trkpt>
<trkpt lat="33.8097452" lon="-118.3939332">
  <ele>-6.06</ele>
  <time>2026-09-02T22:13:07Z</time>
  <course>18.69</course>
  <speed>0.0</speed>
  <fix>3d</fix>
</trkpt>
<trkpt lat="33.8098414" lon="-118.3939377">
  <ele>-5.722</ele>
  <time>2026-09-02T22:13:07Z</time>
  <course>187.89</course>
  <speed>0.02</speed>
  <fix>3d</fix>
</trkpt>
<trkpt lat="33.8098414" lon="-118.3939377">
  <ele>-5.603</ele>
  <time>2026-09-02T22:13:07Z</time>
  <course>187.91</course>
  <speed>0.03</speed>
  <fix>3d</fix>
</trkpt>
<trkpt lat="33.8097464" lon="-118.3939349">
  <ele>-5.82</ele>
  <time>2026-09-02T22:13:07Z</time>
  <course>11.05</course>
  <speed>0.02</speed>
  <fix>3d</fix>
</trkpt>
<trkpt lat="33.8098414" lon="-118.3939377">
  <ele>-5.601</ele>
  <time>2026-09-02T22:13:07Z</time>
  <course>187.91</course>
  <speed>0.03</speed>
  <fix>3d</fix>
</trkpt>
<trkpt lat="33.8098415" lon="-118.3939377">
  <ele>-5.481</ele>
  <time>2026-09-02T22:13:07Z</time>
  <course>187.93</course>
  <speed>0.03</speed>
  <fix>3d</fix>
</trkpt>
<trkpt lat="33.8097464" lon="-118.3939349">
  <ele>-5.82</ele>
  <time>2026-09-02T22:13:07Z</time>
  <course>11.05</course>
  <speed>0.02</speed>
  <fix>3d</fix>
</trkpt>
<trkpt lat="33.8098415" lon="-118.3939377">
  <ele>-5.472</ele>
  <time>2026-09-02T22:13:07Z</time>
  <course>187.93</course>
  <speed>0.03</speed>
  <fix>3d</fix>
</trkpt>
<trkpt lat="33.8098415" lon="-118.3939377">
  <ele>-5.358</ele>
  <time>2026-09-02T22:13:07Z</time>
  <course>187.95</course>
  <speed>0.03</speed>
  <fix>3d</fix>
</trkpt>
<trkpt lat="33.8097474" lon="-118.3939366">
  <ele>-5.59</ele>
  <time>2026-09-02T22:13:07Z</time>
  <course>9.99</course>
  <speed>0.03</speed>
  <fix>3d</fix>
</trkpt>
<trkpt lat="33.8098415" lon="-118.3939377">
  <ele>-5.356</ele>
  <time>2026-09-02T22:13:07Z</time>
  <course>187.95</course>
  <speed>0.03</speed>
  <fix>3d</fix>
</trkpt>
<trkpt lat="33.8098415" lon="-118.3939377">
  <ele>-5.236</ele>
  <time>2026-09-02T22:13:07Z</time>
  <course>187.97</course>
  <speed>0.03</speed>
  <fix>3d</fix>
</trkpt>
<trkpt lat="33.8097474" lon="-118.3939366">
  <ele>-5.59</ele>
  <time>2026-09-02T22:13:07Z</time>
  <course>9.99</course>
  <speed>0.03</speed>
  <fix>3d</fix>
</trkpt>
<trkpt lat="33.8098415" lon="-118.3939377">
  <ele>-5.233</ele>
  <time>2026-09-02T22:13:07Z</time>
  <course>187.97</course>
  <speed>0.03</speed>
  <fix>3d</fix>
</trkpt>
<trkpt lat="33.8098416" lon="-118.3939377">
  <ele>-5.114</ele>
  <time>2026-09-02T22:13:07Z</time>
  <course>187.99</course>
  <speed>0.03</speed>
  <fix>3d</fix>
</trkpt>
<trkpt lat="33.8097483" lon="-118.3939385">
  <ele>-5.35</ele>
  <time>2026-09-02T22:13:07Z</time>
  <course>9.77</course>
  <speed>0.03</speed>
  <fix>3d</fix>
</trkpt>
<trkpt lat="33.8098416" lon="-118.3939377">
  <ele>-5.108</ele>
  <time>2026-09-02T22:13:07Z</time>
  <course>187.99</course>
  <speed>0.03</speed>
  <fix>3d</fix>
</trkpt>
<trkpt lat="33.8098416" lon="-118.3939377">
  <ele>-4.991</ele>
  <time>2026-09-02T22:13:07Z</time>
  <course>188.01</course>
  <speed>0.03</speed>
  <fix>3d</fix>
</trkpt>
<trkpt lat="33.8097483" lon="-118.3939385">
  <ele>-5.35</ele>
  <time>2026-09-02T22:13:07Z</time>
  <course>9.77</course>
  <speed>0.03</speed>
  <fix>3d</fix>
</trkpt>
<trkpt lat="33.8098416" lon="-118.3939377">
  <ele>-4.988</ele>
  <time>2026-09-02T22:13:07Z</time>
  <course>188.01</course>
  <speed>0.03</speed>
  <fix>3d</fix>
</trkpt>
<trkpt lat="33.8098416" lon="-118.3939377">
  <ele>-4.867</ele>
  <time>2026-09-02T22:13:07Z</time>
  <course>188.03</course>
  <speed>0.03</speed>
  <fix>3d</fix>
</trkpt>
<trkpt lat="33.8097491" lon="-118.3939405">
  <ele>-5.12</ele>
  <time>2026-09-02T22:13:07Z</time>
  <course>9.82</course>
  <speed>0.03</speed>
  <fix>3d</fix>
</trkpt>
<trkpt lat="33.8098416" lon="-118.3939377">
  <ele>-4.864</ele>
  <time>2026-09-02T22:13:07Z</time>
  <course>188.03</course>
  <speed>0.03</speed>
  <fix>3d</fix>
</trkpt>
<trkpt lat="33.8098417" lon="-118.3939377">
  <ele>-4.742</ele>
  <time>2026-09-02T22:13:07Z</time>
  <course>188.05</course>
  <speed>0.03</speed>
  <fix>3d</fix>
</trkpt>
<trkpt lat="33.8097491" lon="-118.3939405">
  <ele>-5.12</ele>
  <time>2026-09-02T22:13:07Z</time>
  <course>9.82</course>
  <speed>0.03</speed>
  <fix>3d</fix>
</trkpt>
<trkpt lat="33.8098417" lon="-118.3939377">
  <ele>-4.739</ele>
  <time>2026-09-02T22:13:07Z</time>
  <course>188.05</course>
  <speed>0.03</speed>
  <fix>3d</fix>
</trkpt>
<trkpt lat="33.8098417" lon="-118.3939377">
  <ele>-4.618</ele>
  <time>2026-09-02T22:13:07Z</time>
  <course>188.07</course>
  <speed>0.03</speed>
  <fix>3d</fix>
</trkpt>
<trkpt lat="33.8097497" lon="-118.3939425">
  <ele>-4.89</ele>
  <time>2026-09-02T22:13:07Z</time>
  <course>9.86</course>
  <speed>0.03</speed>
  <fix>3d</fix>
</trkpt>
<trkpt lat="33.8098417" lon="-118.3939377">
  <ele>-4.616</ele>
  <time>2026-09-02T22:13:07Z</time>
  <course>188.07</course>
  <speed>0.03</speed>
  <fix>3d</fix>
</trkpt>
<trkpt lat="33.8098417" lon="-118.3939377">
  <ele>-4.493</ele>
  <time>2026-09-02T22:13:07Z</time>
  <course>188.09</course>
  <speed>0.03</speed>
  <fix>3d</fix>
</trkpt>
<trkpt lat="33.8097497" lon="-118.3939425">
  <ele>-4.89</ele>
  <time>2026-09-02T22:13:07Z</time>
  <course>9.86</course>
  <speed>0.03</speed>
  <fix>3d</fix>
</trkpt>
<trkpt lat="33.8098417" lon="-118.3939377">
  <ele>-4.491</ele>
  <time>2026-09-02T22:13:07Z</time>
  <course>188.09</course>
  <speed>0.03</speed>
  <fix>3d</fix>
</trkpt>
<trkpt lat="33.8098418" lon="-118.3939377">
  <ele>-4.369</ele>
  <time>2026-09-02T22:13:07Z</time>
  <course>188.11</course>
  <speed>0.03</speed>
  <fix>3d</fix>
</trkpt>
<trkpt lat="33.8097502" lon="-118.3939446">
  <ele>-4.65</ele>
  <time>2026-09-02T22:13:07Z</time>
  <course>9.9</course>
  <speed>0.03</speed>
  <fix>3d</fix>
</trkpt>
<trkpt lat="33.8098418" lon="-118.3939377">
  <ele>-4.367</ele>
  <time>2026-09-02T22:13:07Z</time>
  <course>188.11</course>
  <speed>0.03</speed>
  <fix>3d</fix>
</trkpt>
<trkpt lat="33.8098418" lon="-118.3939377">
  <ele>-4.244</ele>
  <time>2026-09-02T22:13:07Z</time>
  <course>188.13</course>
  <speed>0.03</speed>
  <fix>3d</fix>
</trkpt>
<trkpt lat="33.8097502" lon="-118.3939446">
  <ele>-4.65</ele>
  <time>2026-09-02T22:13:07Z</time>
  <course>9.9</course>
  <speed>0.03</speed>
  <fix>3d</fix>
</trkpt>
<trkpt lat="33.8098418" lon="-118.3939377">
  <ele>-4.242</ele>
  <time>2026-09-02T22:13:07Z</time>
  <course>188.13</course>
  <speed>0.03</speed>
  <fix>3d</fix>
</trkpt>
<trkpt lat="33.8098418" lon="-118.3939377">
  <ele>-4.119</ele>
  <time>2026-09-02T22:13:07Z</time>
  <course>188.15</course>
  <speed>0.03</speed>
  <fix>3d</fix>
</trkpt>
<trkpt lat="33.8097504" lon="-118.3939468">
  <ele>-4.42</ele>
  <time>2026-09-02T22:13:07Z</time>
  <course>9.94</course>
  <speed>0.03</speed>
  <fix>3d</fix>
</trkpt>
<trkpt lat="33.8098418" lon="-118.3939377">
  <ele>-4.116</ele>
  <time>2026-09-02T22:13:07Z</time>
  <course>188.15</course>
  <speed>0.03</speed>
  <fix>3d</fix>
</trkpt>
<trkpt lat="33.8098419" lon="-118.3939377">
  <ele>-3.994</ele>
  <time>2026-09-02T22:13:07Z</time>
  <course>188.16</course>
  <speed>0.03</speed>
  <fix>3d</fix>
</trkpt>
<trkpt lat="33.8097504" lon="-118.3939468">
  <ele>-4.42</ele>
  <time>2026-09-02T22:13:07Z</time>
  <course>9.94</course>
  <speed>0.03</speed>
  <fix>3d</fix>
</trkpt>
<trkpt lat="33.8098419" lon="-118.3939377">
  <ele>-3.991</ele>
  <time>2026-09-02T22:13:07Z</time>
  <course>188.16</course>
  <speed>0.03</speed>
  <fix>3d</fix>
</trkpt>
<trkpt lat="33.8098419" lon="-118.3939377">
  <ele>-3.869</ele>
  <time>2026-09-02T22:13:07Z</time>
  <course>188.18</course>
  <speed>0.03</speed>
  <fix>3d</fix>
</trkpt>
<trkpt lat="33.8097506" lon="-118.393949">
  <ele>-4.19</ele>
  <time>2026-09-02T22:13:07Z</time>
  <course>9.98</course>
  <speed>0.03</speed>
  <fix>3d</fix>
</trkpt>
<trkpt lat="33.8098419" lon="-118.3939377">
  <ele>-3.866</ele>
  <time>2026-09-02T22:13:07Z</time>
  <course>188.18</course>
  <speed>0.03</speed>
  <fix>3d</fix>
</trkpt>
<trkpt lat="33.8098419" lon="-118.3939377">
  <ele>-3.744</ele>
  <time>2026-09-02T22:13:07Z</time>
  <course>188.2</course>
  <speed>0.03</speed>
  <fix>3d</fix>
</trkpt>
<trkpt lat="33.8097506" lon="-118.393949">
  <ele>-4.19</ele>
  <time>2026-09-02T22:13:07Z</time>
  <course>9.98</course>
  <speed>0.03</speed>
  <fix>3d</fix>
</trkpt>
<trkpt lat="33.8098419" lon="-118.3939377">
  <ele>-3.737</ele>
  <time>2026-09-02T22:13:07Z</time>
  <course>188.2</course>
  <speed>0.03</speed>
  <fix>3d</fix>
</trkpt>
<trkpt lat="33.809842" lon="-118.3939377">
  <ele>-3.62</ele>
  <time>2026-09-02T22:13:07Z</time>
  <course>188.22</course>
  <speed>0.03</speed>
  <fix>3d</fix>
</trkpt>
<trkpt lat="33.8097505" lon="-118.3939511">
  <ele>-3.95</ele>
  <time>2026-09-02T22:13:07Z</time>
  <course>10.01</course>
  <speed>0.03</speed>
  <fix>3d</fix>
</trkpt>
<trkpt lat="33.809842" lon="-118.3939377">
  <ele>-3.603</ele>
  <time>2026-09-02T22:13:07Z</time>
  <course>188.22</course>
  <speed>0.03</speed>
  <fix>3d</fix>
</trkpt>
<trkpt lat="33.809842" lon="-118.3939377">
  <ele>-3.496</ele>
  <time>2026-09-02T22:13:07Z</time>
  <course>188.24</course>
  <speed>0.03</speed>
  <fix>3d</fix>
</trkpt>
<trkpt lat="33.8097505" lon="-118.3939511">
  <ele>-3.95</ele>
  <time>2026-09-02T22:13:07Z</time>
  <course>10.01</course>
  <speed>0.03</speed>
  <fix>3d</fix>
</trkpt>
<trkpt lat="33.809842" lon="-118.3939377">
  <ele>-3.492</ele>
  <time>2026-09-02T22:13:07Z</time>
  <course>188.24</course>
  <speed>0.03</speed>
  <fix>3d</fix>
</trkpt>
<trkpt lat="33.809842" lon="-118.3939377">
  <ele>-3.372</ele>
  <time>2026-09-02T22:13:07Z</time>
  <course>188.25</course>
  <speed>0.03</speed>
  <fix>3d</fix>
</trkpt>
<trkpt lat="33.8097502" lon="-118.3939531">
  <ele>-3.72</ele>
  <time>2026-09-02T22:13:07Z</time>
  <course>10.04</course>
  <speed>0.03</speed>
  <fix>3d</fix>
</trkpt>
<trkpt lat="33.809842" lon="-118.3939377">
  <ele>-3.368</ele>
  <time>2026-09-02T22:13:07Z</time>
  <course>188.26</course>
  <speed>0.03</speed>
  <fix>3d</fix>
</trkpt>
<trkpt lat="33.809842" lon="-118.3939377">
  <ele>-3.248</ele>
  <time>2026-09-02T22:13:07Z</time>
  <course>188.27</course>
  <speed>0.03</speed>
  <fix>3d</fix>
</trkpt>
<trkpt lat="33.8097502" lon="-118.3939531">
  <ele>-3.72</ele>
  <time>2026-09-02T22:13:07Z</time>
  <course>10.04</course>
  <speed>0.03</speed>
  <fix>3d</fix>
</trkpt>
<trkpt lat="33.809842" lon="-118.3939377">
  <ele>-3.244</ele>
  <time>2026-09-02T22:13:07Z</time>
  <course>188.27</course>
  <speed>0.03</speed>
  <fix>3d</fix>
</trkpt>
<trkpt lat="33.8098421" lon="-118.3939377">
  <ele>-3.121</ele>
  <time>2026-09-02T22:13:07Z</time>
  <course>188.29</course>
  <speed>0.03</speed>
  <fix>3d</fix>
</trkpt>
<trkpt lat="33.8097497" lon="-118.3939552">
  <ele>-3.49</ele>
  <time>2026-09-02T22:13:07Z</time>
  <course>10.07</course>
  <speed>0.02</speed>
  <fix>3d</fix>
</trkpt>
<trkpt lat="33.8098421" lon="-118.3939377">
  <ele>-3.118</ele>
  <time>2026-09-02T22:13:07Z</time>
  <course>188.29</course>
  <speed>0.03</speed>
  <fix>3d</fix>
</trkpt>
<trkpt lat="33.8098421" lon="-118.3939377">
  <ele>-2.995</ele>
  <time>2026-09-02T22:13:07Z</time>
  <course>188.31</course>
  <speed>0.03</speed>
  <fix>3d</fix>
</trkpt>
<trkpt lat="33.8097497" lon="-118.3939552">
  <ele>-3.49</ele>
  <time>2026-09-02T22:13:07Z</time>
  <course>10.07</course>
  <speed>0.02</speed>
  <fix>3d</fix>
</trkpt>
<trkpt lat="33.8098421" lon="-118.3939377">
  <ele>-2.988</ele>
  <time>2026-09-02T22:13:07Z</time>
  <course>188.31</course>
  <speed>0.03</speed>
  <fix>3d</fix>
</trkpt>
<trkpt lat="33.8098421" lon="-118.3939377">
  <ele>-2.867</ele>
  <time>2026-09-02T22:13:07Z</time>
  <course>188.33</course>
  <speed>0.03</speed>
  <fix>3d</fix>
</trkpt>
<trkpt lat="33.8097491" lon="-118.3939572">
  <ele>-3.25</ele>
  <time>2026-09-02T22:13:07Z</time>
  <course>10.09</course>
  <speed>0.02</speed>
  <fix>3d</fix>
</trkpt>
<trkpt lat="33.8098421" lon="-118.3939377">
  <ele>-2.863</ele>
  <time>2026-09-02T22:13:07Z</time>
  <course>188.33</course>
  <speed>0.03</speed>
  <fix>3d</fix>
</trkpt>
<trkpt lat="33.8098422" lon="-118.3939377">
  <ele>-2.737</ele>
  <time>2026-09-02T22:13:07Z</time>
  <course>188.35</course>
  <speed>0.03</speed>
  <fix>3d</fix>
</trkpt>
<trkpt lat="33.8097491" lon="-118.3939572">
  <ele>-3.25</ele>
  <time>2026-09-02T22:13:07Z</time>
  <course>10.09</course>
  <speed>0.02</speed>
  <fix>3d</fix>
</trkpt>
<trkpt lat="33.8098422" lon="-118.3939377">
  <ele>-2.734</ele>
  <time>2026-09-02T22:13:07Z</time>
  <course>188.35</course>
  <speed>0.03</speed>
  <fix>3d</fix>
</trkpt>
<trkpt lat="33.8098422" lon="-118.3939377">
  <ele>-2.608</ele>
  <time>2026-09-02T22:13:07Z</time>
  <course>188.35</course>
  <speed>0.02</speed>
  <fix>3d</fix>
</trkpt>
<trkpt lat="33.8097483" lon="-118.3939591">
  <ele>-3.02</ele>
  <time>2026-09-02T22:13:07Z</time>
  <course>10.11</course>
  <speed>0.02</speed>
  <fix>3d</fix>
</trkpt>
<trkpt lat="33.8098422" lon="-118.3939377">
  <ele>-2.604</ele>
  <time>2026-09-02T22:13:07Z</time>
  <course>188.35</course>
  <speed>0.02</speed>
  <fix>3d</fix>
</trkpt>
<trkpt lat="33.8098422" lon="-118.3939376">
  <ele>-2.478</ele>
  <time>2026-09-02T22:13:07Z</time>
  <course>188.32</course>
  <speed>0.02</speed>
  <fix>3d</fix>
</trkpt>
<trkpt lat="33.8097483" lon="-118.3939591">
  <ele>-3.02</ele>
  <time>2026-09-02T22:13:07Z</time>
  <course>10.11</course>
  <speed>0.02</speed>
  <fix>3d</fix>
</trkpt>
<trkpt lat="33.8098422" lon="-118.3939376">
  <ele>-2.475</ele>
  <time>2026-09-02T22:13:07Z</time>
  <course>188.32</course>
  <speed>0.02</speed>
  <fix>3d</fix>
</trkpt>
<trkpt lat="33.8098422" lon="-118.3939376">
  <ele>-2.349</ele>
  <time>2026-09-02T22:13:07Z</time>
  <course>188.25</course>
  <speed>0.02</speed>
  <fix>3d</fix>
</trkpt>
<trkpt lat="33.8097474" lon="-118.3939609">
  <ele>-2.78</ele>
  <time>2026-09-02T22:13:07Z</time>
  <course>11.74</course>
  <speed>0.02</speed>
  <fix>3d</fix>
</trkpt>
<trkpt lat="33.8098422" lon="-118.3939376">
  <ele>-2.346</ele>
  <time>2026-09-02T22:13:07Z</time>
  <course>188.24</course>
  <speed>0.02</speed>
  <fix>3d</fix>
</trkpt>
<trkpt lat="33.8098423" lon="-118.3939376">
  <ele>-2.22</ele>
  <time>2026-09-02T22:13:07Z</time>
  <course>188.15</course>
  <speed>0.02</speed>
  <fix>3d</fix>
</trkpt>
<trkpt lat="33.8097474" lon="-118.3939609">
  <ele>-2.78</ele>
  <time>2026-09-02T22:13:07Z</time>
  <course>11.74</course>
  <speed>0.02</speed>
  <fix>3d</fix>
</trkpt>
<trkpt lat="33.8098423" lon="-118.3939376">
  <ele>-2.214</ele>
  <time>2026-09-02T22:13:07Z</time>
  <course>188.14</course>
  <speed>0.02</speed>
  <fix>3d</fix>
</trkpt>
<trkpt lat="33.8098423" lon="-118.3939376">
  <ele>-2.092</ele>
  <time>2026-09-02T22:13:07Z</time>
  <course>188.03</course>
  <speed>0.02</speed>
  <fix>3d</fix>
</trkpt>
<trkpt lat="33.8097463" lon="-118.3939626">
  <ele>-2.55</ele>
  <time>2026-09-02T22:13:07Z</time>
  <course>15.08</course>
  <speed>0.02</speed>
  <fix>3d</fix>
</trkpt>
<trkpt lat="33.8098423" lon="-118.3939376">
  <ele>-2.089</ele>
  <time>2026-09-02T22:13:07Z</time>
  <course>188.03</course>
  <speed>0.02</speed>
  <fix>3d</fix>
</trkpt>
<trkpt lat="33.8098423" lon="-118.3939376">
  <ele>-1.964</ele>
  <time>2026-09-02T22:13:07Z</time>
  <course>187.91</course>
  <speed>0.02</speed>
  <fix>3d</fix>
</trkpt>
<trkpt lat="33.8097463" lon="-118.3939626">
  <ele>-2.55</ele>
  <time>2026-09-02T22:13:07Z</time>
  <course>15.08</course>
  <speed>0.02</speed>
  <fix>3d</fix>
</trkpt>
<trkpt lat="33.8098423" lon="-118.3939376">
  <ele>-1.962</ele>
  <time>2026-09-02T22:13:07Z</time>
  <course>187.91</course>
  <speed>0.02</speed>
  <fix>3d</fix>
</trkpt>
<trkpt lat="33.8098423" lon="-118.3939376">
  <ele>-1.835</ele>
  <time>2026-09-02T22:13:07Z</time>
  <course>187.78</course>
  <speed>0.02</speed>
  <fix>3d</fix>
</trkpt>
<trkpt lat="33.8097451" lon="-118.3939641">
  <ele>-2.32</ele>
  <time>2026-09-02T22:13:07Z</time>
  <course>17.29</course>
  <speed>0.02</speed>
  <fix>3d</fix>
</trkpt>
<trkpt lat="33.8098423" lon="-118.3939376">
  <ele>-1.833</ele>
  <time>2026-09-02T22:13:07Z</time>
  <course>187.78</course>
  <speed>0.02</speed>
  <fix>3d</fix>
</trkpt>
<trkpt lat="33.8098423" lon="-118.3939376">
  <ele>-1.707</ele>
  <time>2026-09-02T22:13:07Z</time>
  <course>187.65</course>
  <speed>0.02</speed>
  <fix>3d</fix>
</trkpt>
<trkpt lat="33.8097451" lon="-118.3939641">
  <ele>-2.32</ele>
  <time>2026-09-02T22:13:07Z</time>
  <course>17.29</course>
  <speed>0.02</speed>
  <fix>3d</fix>
</trkpt>
<trkpt lat="33.8098423" lon="-118.3939376">
  <ele>-1.705</ele>
  <time>2026-09-02T22:13:07Z</time>
  <course>187.65</course>
  <speed>0.02</speed>
  <fix>3d</fix>
</trkpt>
<trkpt lat="33.8098424" lon="-118.3939376">
  <ele>-1.579</ele>
  <time>2026-09-02T22:13:07Z</time>
  <course>187.52</course>
  <speed>0.02</speed>
  <fix>3d</fix>
</trkpt>
<trkpt lat="33.8097438" lon="-118.3939655">
  <ele>-2.08</ele>
  <time>2026-09-02T22:13:07Z</time>
  <course>18.34</course>
  <speed>0.02</speed>
  <fix>3d</fix>
</trkpt>
<trkpt lat="33.8098424" lon="-118.3939376">
  <ele>-1.577</ele>
  <time>2026-09-02T22:13:07Z</time>
  <course>187.52</course>
  <speed>0.02</speed>
  <fix>3d</fix>
</trkpt>
<trkpt lat="33.8098424" lon="-118.3939376">
  <ele>-1.451</ele>
  <time>2026-09-02T22:13:07Z</time>
  <course>187.4</course>
  <speed>0.02</speed>
  <fix>3d</fix>
</trkpt>
<trkpt lat="33.8097438" lon="-118.3939655">
  <ele>-2.08</ele>
  <time>2026-09-02T22:13:07Z</time>
  <course>18.34</course>
  <speed>0.02</speed>
  <fix>3d</fix>
</trkpt>
<trkpt lat="33.8098424" lon="-118.3939376">
  <ele>-1.448</ele>
  <time>2026-09-02T22:13:07Z</time>
  <course>187.39</course>
  <speed>0.02</speed>
  <fix>3d</fix>
</trkpt>
<trkpt lat="33.8098424" lon="-118.3939376">
  <ele>-1.324</ele>
  <time>2026-09-02T22:13:07Z</time>
  <course>187.28</course>
  <speed>0.02</speed>
  <fix>3d</fix>
</trkpt>
<trkpt lat="33.8097423" lon="-118.3939666">
  <ele>-1.85</ele>
  <time>2026-09-02T22:13:07Z</time>
  <course>19.27</course>
  <speed>0.02</speed>
  <fix>3d</fix>
</trkpt>
<trkpt lat="33.8098424" lon="-118.3939376">
  <ele>-1.321</ele>
  <time>2026-09-02T22:13:07Z</time>
  <course>187.27</course>
  <speed>0.02</speed>
  <fix>3d</fix>
</trkpt>
<trkpt lat="33.8098424" lon="-118.3939376">
  <ele>-1.198</ele>
  <time>2026-09-02T22:13:07Z</time>
  <course>187.16</course>
  <speed>0.02</speed>
  <fix>3d</fix>
</trkpt>
<trkpt lat="33.8097423" lon="-118.3939666">
  <ele>-1.85</ele>
  <time>2026-09-02T22:13:07Z</time>
  <course>19.27</course>
  <speed>0.02</speed>
  <fix>3d</fix>
</trkpt>
<trkpt lat="33.8098424" lon="-118.3939376">
  <ele>-1.195</ele>
  <time>2026-09-02T22:13:07Z</time>
  <course>187.15</course>
  <speed>0.02</speed>
  <fix>3d</fix>
</trkpt>
<trkpt lat="33.8098424" lon="-118.3939376">
  <ele>-1.072</ele>
  <time>2026-09-02T22:13:07Z</time>
  <course>187.04</course>
  <speed>0.02</speed>
  <fix>3d</fix>
</trkpt>
<trkpt lat="33.8097407" lon="-118.3939676">
  <ele>-1.62</ele>
  <time>2026-09-02T22:13:07Z</time>
  <course>20.0</course>
  <speed>0.02</speed>
  <fix>3d</fix>
</trkpt>
<trkpt lat="33.8098424" lon="-118.3939376">
  <ele>-1.069</ele>
  <time>2026-09-02T22:13:07Z</time>
  <course>187.03</course>
  <speed>0.02</speed>
  <fix>3d</fix>
</trkpt>
<trkpt lat="33.8098425" lon="-118.3939376">
  <ele>-0.947</ele>
  <time>2026-09-02T22:13:07Z</time>
  <course>186.92</course>
  <speed>0.02</speed>
  <fix>3d</fix>
</trkpt>
<trkpt lat="33.8097407" lon="-118.3939676">
  <ele>-1.62</ele>
  <time>2026-09-02T22:13:07Z</time>
  <course>20.0</course>
  <speed>0.02</speed>
  <fix>3d</fix>
</trkpt>
<trkpt lat="33.8098425" lon="-118.3939376">
  <ele>-0.943</ele>
  <time>2026-09-02T22:13:07Z</time>
  <course>186.91</course>
  <speed>0.02</speed>
  <fix>3d</fix>
</trkpt>
<trkpt lat="33.8098425" lon="-118.3939376">
  <ele>-0.82</ele>
  <time>2026-09-02T22:13:07Z</time>
  <course>186.8</course>
  <speed>0.02</speed>
  <fix>3d</fix>
</trkpt>
<trkpt lat="33.8097391" lon="-118.3939684">
  <ele>-1.38</ele>
  <time>2026-09-02T22:13:07Z</time>
  <course>20.76</course>
  <speed>0.02</speed>
  <fix>3d</fix>
</trkpt>
<trkpt lat="33.8098425" lon="-118.3939376">
  <ele>-0.814</ele>
  <time>2026-09-02T22:13:07Z</time>
  <course>186.79</course>
  <speed>0.02</speed>
  <fix>3d</fix>
</trkpt>
<trkpt lat="33.8098425" lon="-118.3939376">
  <ele>-0.694</ele>
  <time>2026-09-02T22:13:07Z</time>
  <course>186.69</course>
  <speed>0.02</speed>
  <fix>3d</fix>
</trkpt>
<trkpt lat="33.8097391" lon="-118.3939684">
  <ele>-1.38</ele>
  <time>2026-09-02T22:13:07Z</time>
  <course>20.76</course>
  <speed>0.02</speed>
  <fix>3d</fix>
</trkpt>
<trkpt lat="33.8098425" lon="-118.3939376">
  <ele>-0.689</ele>
  <time>2026-09-02T22:13:07Z</time>
  <course>186.68</course>
  <speed>0.02</speed>
  <fix>3d</fix>
</trkpt>
<trkpt lat="33.8098425" lon="-118.3939376">
  <ele>-0.568</ele>
  <time>2026-09-02T22:13:07Z</time>
  <course>186.58</course>
  <speed>0.02</speed>
  <fix>3d</fix>
</trkpt>
<trkpt lat="33.8097374" lon="-118.3939691">
  <ele>-1.15</ele>
  <time>2026-09-02T22:13:07Z</time>
  <course>21.28</course>
  <speed>0.02</speed>
  <fix>3d</fix>
</trkpt>
<trkpt lat="33.8098425" lon="-118.3939376">
  <ele>-0.563</ele>
  <time>2026-09-02T22:13:07Z</time>
  <course>186.58</course>
  <speed>0.02</speed>
  <fix>3d</fix>
</trkpt>
<trkpt lat="33.8098425" lon="-118.3939376">
  <ele>-0.441</ele>
  <time>2026-09-02T22:13:07Z</time>
  <course>186.48</course>
  <speed>0.02</speed>
  <fix>3d</fix>
</trkpt>
<trkpt lat="33.8097374" lon="-118.3939691">
  <ele>-1.15</ele>
  <time>2026-09-02T22:13:07Z</time>
  <course>21.28</course>
  <speed>0.02</speed>
  <fix>3d</fix>
</trkpt>
<trkpt lat="33.8098425" lon="-118.3939376">
  <ele>-0.438</ele>
  <time>2026-09-02T22:13:07Z</time>
  <course>186.48</course>
  <speed>0.02</speed>
  <fix>3d</fix>
</trkpt>
<trkpt lat="33.8098426" lon="-118.3939376">
  <ele>-0.316</ele>
  <time>2026-09-02T22:13:07Z</time>
  <course>186.39</course>
  <speed>0.02</speed>
  <fix>3d</fix>
</trkpt>
<trkpt lat="33.8097357" lon="-118.3939695">
  <ele>-0.92</ele>
  <time>2026-09-02T22:13:07Z</time>
  <course>21.45</course>
  <speed>0.02</speed>
  <fix>3d</fix>
</trkpt>
<trkpt lat="33.8098426" lon="-118.3939376">
  <ele>-0.192</ele>
  <time>2026-09-02T22:13:07Z</time>
  <course>186.32</course>
  <speed>0.02</speed>
  <fix>3d</fix>
</trkpt>
<trkpt lat="33.8097357" lon="-118.3939695">
  <ele>-0.92</ele>
  <time>2026-09-02T22:13:07Z</time>
  <course>21.45</course>
  <speed>0.02</speed>
  <fix>3d</fix>
</trkpt>
<trkpt lat="33.8098426" lon="-118.3939376">
  <ele>-0.069</ele>
  <time>2026-09-02T22:13:07Z</time>
  <course>186.28</course>
  <speed>0.01</speed>
  <fix>3d</fix>
</trkpt>
<trkpt lat="33.8097339" lon="-118.3939696">
  <ele>-0.68</ele>
  <time>2026-09-02T22:13:07Z</time>
  <course>21.21</course>
  <speed>0.01</speed>
  <fix>3d</fix>
</trkpt>
<trkpt lat="33.8098426" lon="-118.3939376">
  <ele>0.053</ele>
  <time>2026-09-02T22:13:07Z</time>
  <course>186.3</course>
  <speed>0.01</speed>
  <fix>3d</fix>
</trkpt>
<trkpt lat="33.8097339" lon="-118.3939696">
  <ele>-0.68</ele>
  <time>2026-09-02T22:13:07Z</time>
  <course>21.21</course>
  <speed>0.01</speed>
  <fix>3d</fix>
</trkpt>
<trkpt lat="33.8098426" lon="-118.3939376">
  <ele>0.101</ele>
  <time>2026-09-02T22:13:07Z</time>
  <course>186.35</course>
  <speed>0.01</speed>
  <fix>3d</fix>
</trkpt>
<trkpt lat="33.8098426" lon="-118.3939375">
  <ele>0.17</ele>
  <time>2026-09-02T22:13:07Z</time>
  <course>186.48</course>
  <speed>0.01</speed>
  <fix>3d</fix>
</trkpt>
<trkpt lat="33.8097321" lon="-118.3939695">
  <ele>-0.45</ele>
  <time>2026-09-02T22:13:07Z</time>
  <course>27.55</course>
  <speed>0.01</speed>
  <fix>3d</fix>
</trkpt>
<trkpt lat="33.8098426" lon="-118.3939375">
  <ele>0.198</ele>
  <time>2026-09-02T22:13:07Z</time>
  <course>186.54</course>
  <speed>0.01</speed>
  <fix>3d</fix>
</trkpt>
<trkpt lat="33.8098426" lon="-118.3939375">
  <ele>0.209</ele>
  <time>2026-09-02T22:13:07Z</time>
  <course>186.57</course>
  <speed>0.01</speed>
  <fix>3d</fix>
</trkpt>
<trkpt lat="33.8098426" lon="-118.3939375">
  <ele>0.217</ele>
  <time>2026-09-02T22:13:07Z</time>
  <course>186.59</course>
  <speed>0.01</speed>
  <fix>3d</fix>
</trkpt>
<trkpt lat="33.8098426" lon="-118.3939375">
  <ele>0.227</ele>
  <time>2026-09-02T22:13:07Z</time>
  <course>186.62</course>
  <speed>0.01</speed>
  <fix>3d</fix>
</trkpt>
<trkpt lat="33.8098426" lon="-118.3939375">
  <ele>0.235</ele>
  <time>2026-09-02T22:13:07Z</time>
  <course>186.64</course>
  <speed>0.01</speed>
  <fix>3d</fix>
</trkpt>
<trkpt lat="33.8098426" lon="-118.3939375">
  <ele>0.243</ele>
  <time>2026-09-02T22:13:07Z</time>
  <course>186.67</course>
  <speed>0.01</speed>
  <fix>3d</fix>
</trkpt>
<trkpt lat="33.8098426" lon="-118.3939375">
  <ele>0.251</ele>
  <time>2026-09-02T22:13:07Z</time>
  <course>186.69</course>
  <speed>0.01</speed>
  <fix>3d</fix>
</trkpt>
<trkpt lat="33.8098426" lon="-118.3939375">
  <ele>0.258</ele>
  <time>2026-09-02T22:13:07Z</time>
  <course>186.71</course>
  <speed>0.01</speed>
  <fix>3d</fix>
</trkpt>
<trkpt lat="33.8098426" lon="-118.3939375">
  <ele>0.266</ele>
  <time>2026-09-02T22:13:07Z</time>
  <course>186.73</course>
  <speed>0.01</speed>
  <fix>3d</fix>
</trkpt>
<trkpt lat="33.8098426" lon="-118.3939375">
  <ele>0.273</ele>
  <time>2026-09-02T22:13:07Z</time>
  <course>186.75</course>
  <speed>0.01</speed>
  <fix>3d</fix>
</trkpt>
<trkpt lat="33.8098426" lon="-118.3939375">
  <ele>0.275</ele>
  <time>2026-09-02T22:13:07Z</time>
  <course>186.76</course>
  <speed>0.01</speed>
  <fix>3d</fix>
</trkpt>
<trkpt lat="33.8097321" lon="-118.3939695">
  <ele>-0.45</ele>
  <time>2026-09-02T22:13:07Z</time>
  <course>27.55</course>
  <speed>0.01</speed>
  <fix>3d</fix>
</trkpt>
<trkpt lat="33.8098426" lon="-118.3939375">
  <ele>0.278</ele>
  <time>2026-09-02T22:13:07Z</time>
  <course>186.76</course>
  <speed>0.01</speed>
  <fix>3d</fix>
</trkpt>
<trkpt lat="33.8098426" lon="-118.3939375">
  <ele>0.29</ele>
  <time>2026-09-02T22:13:07Z</time>
  <course>186.8</course>
  <speed>0.01</speed>
  <fix>3d</fix>
</trkpt>
<trkpt lat="33.8098426" lon="-118.3939375">
  <ele>0.297</ele>
  <time>2026-09-02T22:13:07Z</time>
  <course>186.81</course>
  <speed>0.01</speed>
  <fix>3d</fix>
</trkpt>
<trkpt lat="33.8098426" lon="-118.3939375">
  <ele>0.309</ele>
  <time>2026-09-02T22:13:07Z</time>
  <course>186.84</course>
  <speed>0.01</speed>
  <fix>3d</fix>
</trkpt>
<trkpt lat="33.8098426" lon="-118.3939375">
  <ele>0.316</ele>
  <time>2026-09-02T22:13:07Z</time>
  <course>186.86</course>
  <speed>0.01</speed>
  <fix>3d</fix>
</trkpt>
<trkpt lat="33.8098426" lon="-118.3939375">
  <ele>0.325</ele>
  <time>2026-09-02T22:13:07Z</time>
  <course>186.88</course>
  <speed>0.01</speed>
  <fix>3d</fix>
</trkpt>
<trkpt lat="33.8097305" lon="-118.3939692">
  <ele>0.332</ele>
  <time>2026-09-02T22:13:07Z</time>
  <course>186.9</course>
  <speed>0.0</speed>
  <fix>3d</fix>
</trkpt>
<trkpt lat="33.8097305" lon="-118.3939692">
  <ele>0.366</ele>
  <time>2026-09-02T22:13:07Z</time>
  <course>186.98</course>
  <speed>0.0</speed>
  <fix>3d</fix>
</trkpt>
<trkpt lat="33.8097304" lon="-118.3939693">
  <ele>-0.24</ele>
  <time>2026-09-02T22:13:07Z</time>
  <course>45.2</course>
  <speed>0.01</speed>
  <fix>3d</fix>
</trkpt>
<trkpt lat="33.8097305" lon="-118.3939692">
  <ele>0.433</ele>
  <time>2026-09-02T22:13:07Z</time>
  <course>187.17</course>
  <speed>0.0</speed>
  <fix>3d</fix>
</trkpt>
<trkpt lat="33.8097304" lon="-118.3939693">
  <ele>-0.24</ele>
  <time>2026-09-02T22:13:07Z</time>
  <course>45.2</course>
  <speed>0.01</speed>
  <fix>3d</fix>
</trkpt>
<trkpt lat="33.8097287" lon="-118.3939687">
  <ele>0.478</ele>
  <time>2026-09-02T22:13:07Z</time>
  <course>187.34</course>
  <speed>0.0</speed>
  <fix>3d</fix>
</trkpt>
<trkpt lat="33.8097286" lon="-118.3939688">
  <ele>-0.07</ele>
  <time>2026-09-02T22:13:07Z</time>
  <course>54.27</course>
  <speed>0.01</speed>
  <fix>3d</fix>
</trkpt>
<trkpt lat="33.8097287" lon="-118.3939687">
  <ele>0.512</ele>
  <time>2026-09-02T22:13:07Z</time>
  <course>187.5</course>
  <speed>0.0</speed>
  <fix>3d</fix>
</trkpt>
<trkpt lat="33.8097286" lon="-118.3939688">
  <ele>-0.07</ele>
  <time>2026-09-02T22:13:07Z</time>
  <course>54.27</course>
  <speed>0.01</speed>
  <fix>3d</fix>
</trkpt>
<trkpt lat="33.8097287" lon="-118.3939687">
  <ele>0.538</ele>
  <time>2026-09-02T22:13:07Z</time>
  <course>187.65</course>
  <speed>0.0</speed>
  <fix>3d</fix>
</trkpt>
<trkpt lat="33.809727" lon="-118.3939682">
  <ele>0.01</ele>
  <time>2026-09-02T22:13:07Z</time>
  <course>52.96</course>
  <speed>0.01</speed>
  <fix>3d</fix>
</trkpt>
<trkpt lat="33.8097287" lon="-118.3939687">
  <ele>0.559</ele>
  <time>2026-09-02T22:13:07Z</time>
  <course>187.79</course>
  <speed>0.0</speed>
  <fix>3d</fix>
</trkpt>
<trkpt lat="33.809727" lon="-118.3939682">
  <ele>0.01</ele>
  <time>2026-09-02T22:13:07Z</time>
  <course>52.96</course>
  <speed>0.01</speed>
  <fix>3d</fix>
</trkpt>
<trkpt lat="33.8097287" lon="-118.3939687">
  <ele>0.576</ele>
  <time>2026-09-02T22:13:07Z</time>
  <course>187.92</course>
  <speed>0.0</speed>
  <fix>3d</fix>
</trkpt>
<trkpt lat="33.8097253" lon="-118.3939673">
  <ele>0.06</ele>
  <time>2026-09-02T22:13:07Z</time>
  <course>52.65</course>
  <speed>0.01</speed>
  <fix>3d</fix>
</trkpt>
<trkpt lat="33.8097287" lon="-118.3939687">
  <ele>0.59</ele>
  <time>2026-09-02T22:13:07Z</time>
  <course>188.04</course>
  <speed>0.0</speed>
  <fix>3d</fix>
</trkpt>
<trkpt lat="33.8097253" lon="-118.3939673">
  <ele>0.06</ele>
  <time>2026-09-02T22:13:07Z</time>
  <course>52.65</course>
  <speed>0.01</speed>
  <fix>3d</fix>
</trkpt>
<trkpt lat="33.8097286" lon="-118.3939687">
  <ele>0.603</ele>
  <time>2026-09-02T22:13:07Z</time>
  <course>188.16</course>
  <speed>0.0</speed>
  <fix>3d</fix>
</trkpt>
<trkpt lat="33.8097238" lon="-118.3939662">
  <ele>0.09</ele>
  <time>2026-09-02T22:13:07Z</time>
  <course>53.01</course>
  <speed>0.01</speed>
  <fix>3d</fix>
</trkpt>
<trkpt lat="33.8097286" lon="-118.3939686">
  <ele>0.614</ele>
  <time>2026-09-02T22:13:07Z</time>
  <course>188.27</course>
  <speed>0.0</speed>
  <fix>3d</fix>
</trkpt>
<trkpt lat="33.8097238" lon="-118.3939662">
  <ele>0.09</ele>
  <time>2026-09-02T22:13:07Z</time>
  <course>53.01</course>
  <speed>0.01</speed>
  <fix>3d</fix>
</trkpt>
<trkpt lat="33.8097286" lon="-118.3939686">
  <ele>0.625</ele>
  <time>2026-09-02T22:13:07Z</time>
  <course>188.37</course>
  <speed>0.0</speed>
  <fix>3d</fix>
</trkpt>
<trkpt lat="33.8097223" lon="-118.3939649">
  <ele>0.12</ele>
  <time>2026-09-02T22:13:07Z</time>
  <course>53.31</course>
  <speed>0.01</speed>
  <fix>3d</fix>
</trkpt>
<trkpt lat="33.8097285" lon="-118.3939686">
  <ele>0.635</ele>
  <time>2026-09-02T22:13:07Z</time>
  <course>188.48</course>
  <speed>0.0</speed>
  <fix>3d</fix>
</trkpt>
<trkpt lat="33.8097223" lon="-118.3939649">
  <ele>0.12</ele>
  <time>2026-09-02T22:13:07Z</time>
  <course>53.31</course>
  <speed>0.01</speed>
  <fix>3d</fix>
</trkpt>
<trkpt lat="33.8097285" lon="-118.3939686">
  <ele>0.645</ele>
  <time>2026-09-02T22:13:07Z</time>
  <course>188.57</course>
  <speed>0.0</speed>
  <fix>3d</fix>
</trkpt>
<trkpt lat="33.8097209" lon="-118.3939635">
  <ele>0.14</ele>
  <time>2026-09-02T22:13:07Z</time>
  <course>53.38</course>
  <speed>0.01</speed>
  <fix>3d</fix>
</trkpt>
<trkpt lat="33.8097285" lon="-118.3939686">
  <ele>0.653</ele>
  <time>2026-09-02T22:13:07Z</time>
  <course>188.66</course>
  <speed>0.0</speed>
  <fix>3d</fix>
</trkpt>
<trkpt lat="33.8097209" lon="-118.3939635">
  <ele>0.14</ele>
  <time>2026-09-02T22:13:07Z</time>
  <course>53.38</course>
  <speed>0.01</speed>
  <fix>3d</fix>
</trkpt>
<trkpt lat="33.8097284" lon="-118.3939685">
  <ele>0.663</ele>
  <time>2026-09-02T22:13:07Z</time>
  <course>188.75</course>
  <speed>0.0</speed>
  <fix>3d</fix>
</trkpt>
<trkpt lat="33.8097197" lon="-118.3939619">
  <ele>0.16</ele>
  <time>2026-09-02T22:13:07Z</time>
  <course>53.24</course>
  <speed>0.01</speed>
  <fix>3d</fix>
</trkpt>
<trkpt lat="33.8097284" lon="-118.3939685">
  <ele>0.672</ele>
  <time>2026-09-02T22:13:07Z</time>
  <course>188.84</course>
  <speed>0.0</speed>
  <fix>3d</fix>
</trkpt>
<trkpt lat="33.8097197" lon="-118.3939619">
  <ele>0.16</ele>
  <time>2026-09-02T22:13:07Z</time>
  <course>53.24</course>
  <speed>0.01</speed>
  <fix>3d</fix>
</trkpt>
<trkpt lat="33.8097283" lon="-118.3939684">
  <ele>0.68</ele>
  <time>2026-09-02T22:13:07Z</time>
  <course>188.92</course>
  <speed>0.0</speed>
  <fix>3d</fix>
</trkpt>
<trkpt lat="33.8097186" lon="-118.3939602">
  <ele>-0.13</ele>
  <time>2026-09-02T22:13:07Z</time>
  <course>53.03</course>
  <speed>0.01</speed>
  <fix>3d</fix>
</trkpt>
<trkpt lat="33.8097282" lon="-118.3939684">
  <ele>0.689</ele>
  <time>2026-09-02T22:13:07Z</time>
  <course>189.0</course>
  <speed>0.0</speed>
  <fix>3d</fix>
</trkpt>
<trkpt lat="33.8097186" lon="-118.3939602">
  <ele>-0.13</ele>
  <time>2026-09-02T22:13:07Z</time>
  <course>53.03</course>
  <speed>0.01</speed>
  <fix>3d</fix>
</trkpt>
<trkpt lat="33.8097282" lon="-118.3939683">
  <ele>0.698</ele>
  <time>2026-09-02T22:13:07Z</time>
  <course>189.08</course>
  <speed>0.0</speed>
  <fix>3d</fix>
</trkpt>
<trkpt lat="33.8097334" lon="-118.3939478">
  <ele>-0.44</ele>
  <time>2026-09-02T22:13:07Z</time>
  <course>52.86</course>
  <speed>0.01</speed>
  <fix>3d</fix>
</trkpt>
<trkpt lat="33.8097282" lon="-118.3939681">
  <ele>0.706</ele>
  <time>2026-09-02T22:13:07Z</time>
  <course>189.15</course>
  <speed>0.01</speed>
  <fix>3d</fix>
</trkpt>
<trkpt lat="33.8097334" lon="-118.3939478">
  <ele>-0.44</ele>
  <time>2026-09-02T22:13:07Z</time>
  <course>52.86</course>
  <speed>0.01</speed>
  <fix>3d</fix>
</trkpt>
<trkpt lat="33.8097282" lon="-118.393968">
  <ele>0.715</ele>
  <time>2026-09-02T22:13:07Z</time>
  <course>189.23</course>
  <speed>0.01</speed>
  <fix>3d</fix>
</trkpt>
<trkpt lat="33.8097335" lon="-118.3939478">
  <ele>-0.41</ele>
  <time>2026-09-02T22:13:07Z</time>
  <course>52.8</course>
  <speed>0.01</speed>
  <fix>3d</fix>
</trkpt>
<trkpt lat="33.8097282" lon="-118.3939678">
  <ele>0.723</ele>
  <time>2026-09-02T22:13:07Z</time>
  <course>189.3</course>
  <speed>0.01</speed>
  <fix>3d</fix>
</trkpt>
<trkpt lat="33.8097335" lon="-118.3939478">
  <ele>-0.41</ele>
  <time>2026-09-02T22:13:07Z</time>
  <course>52.8</course>
  <speed>0.01</speed>
  <fix>3d</fix>
</trkpt>
<trkpt lat="33.8097282" lon="-118.3939676">
  <ele>0.733</ele>
  <time>2026-09-02T22:13:07Z</time>
  <course>189.37</course>
  <speed>0.01</speed>
  <fix>3d</fix>
</trkpt>
<trkpt lat="33.8097335" lon="-118.3939478">
  <ele>-0.39</ele>
  <time>2026-09-02T22:13:07Z</time>
  <course>52.85</course>
  <speed>0.01</speed>
  <fix>3d</fix>
</trkpt>
<trkpt lat="33.8097283" lon="-118.3939675">
  <ele>0.744</ele>
  <time>2026-09-02T22:13:07Z</time>
  <course>189.43</course>
  <speed>0.01</speed>
  <fix>3d</fix>
</trkpt>
<trkpt lat="33.8097335" lon="-118.3939478">
  <ele>-0.39</ele>
  <time>2026-09-02T22:13:07Z</time>
  <course>52.85</course>
  <speed>0.01</speed>
  <fix>3d</fix>
</trkpt>
<trkpt lat="33.4368002" lon="-117.0859339">
  <ele>-0.11</ele>
  <time>2026-09-02T22:13:08Z</time>
  <course>0.0</course>
  <speed>0.0</speed>
  <fix>3d</fix>
</trkpt>
<trkpt lat="33.4368002" lon="-117.0859339">
  <ele>-0.11</ele>
  <time>2026-09-02T22:13:08Z</time>
  <course>0.0</course>
  <speed>0.0</speed>
  <fix>3d</fix>
</trkpt>
<trkpt lat="33.810313" lon="-118.393867">
  <ele>0.0</ele>
  <time>2026-09-02T22:13:08Z</time>
  <course>173.5</course>
  <speed>0.0</speed>
  <fix>3d</fix>
</trkpt>
<trkpt lat="33.810313" lon="-118.393867">
  <ele>-0.11</ele>
  <time>2026-09-02T22:13:08Z</time>
  <course>0.0</course>
  <speed>0.0</speed>
  <fix>3d</fix>
</trkpt>
<trkpt lat="33.810313" lon="-118.393867">
  <ele>0.0</ele>
  <time>2026-09-02T22:13:08Z</time>
  <course>173.64</course>
  <speed>0.0</speed>
  <fix>3d</fix>
</trkpt>
<trkpt lat="33.810313" lon="-118.393867">
  <ele>-0.11</ele>
  <time>2026-09-02T22:13:08Z</time>
  <course>0.0</course>
  <speed>0.0</speed>
  <fix>3d</fix>
</trkpt>
<trkpt lat="33.810313" lon="-118.393867">
  <ele>0.0</ele>
  <time>2026-09-02T22:13:08Z</time>
  <course>174.05</course>
  <speed>0.0</speed>
  <fix>3d</fix>
</trkpt>
<trkpt lat="33.810313" lon="-118.393867">
  <ele>-0.11</ele>
  <time>2026-09-02T22:13:08Z</time>
  <course>0.0</course>
  <speed>0.0</speed>
  <fix>3d</fix>
</trkpt>
<trkpt lat="33.810313" lon="-118.393867">
  <ele>0.0</ele>
  <time>2026-09-02T22:13:08Z</time>
  <course>174.58</course>
  <speed>0.0</speed>
  <fix>3d</fix>
</trkpt>
<trkpt lat="33.810313" lon="-118.393867">
  <ele>-0.11</ele>
  <time>2026-09-02T22:13:08Z</time>
  <course>0.0</course>
  <speed>0.0</speed>
  <fix>3d</fix>
</trkpt>
<trkpt lat="33.810313" lon="-118.393867">
  <ele>0.0</ele>
  <time>2026-09-02T22:13:08Z</time>
  <course>175.14</course>
  <speed>0.0</speed>
  <fix>3d</fix>
</trkpt>
<trkpt lat="33.810313" lon="-118.393867">
  <ele>-0.12</ele>
  <time>2026-09-02T22:13:08Z</time>
  <course>0.0</course>
  <speed>0.0</speed>
  <fix>3d</fix>
</trkpt>
<trkpt lat="33.810313" lon="-118.393867">
  <ele>0.0</ele>
  <time>2026-09-02T22:13:08Z</time>
  <course>175.68</course>
  <speed>0.0</speed>
  <fix>3d</fix>
</trkpt>
<trkpt lat="33.810313" lon="-118.393867">
  <ele>-0.12</ele>
  <time>2026-09-02T22:13:08Z</time>
  <course>0.0</course>
  <speed>0.0</speed>
  <fix>3d</fix>
</trkpt>
<trkpt lat="33.810313" lon="-118.393867">
  <ele>0.0</ele>
  <time>2026-09-02T22:13:08Z</time>
  <course>176.18</course>
  <speed>0.0</speed>
  <fix>3d</fix>
</trkpt>
<trkpt lat="33.810313" lon="-118.393867">
  <ele>-0.13</ele>
  <time>2026-09-02T22:13:08Z</time>
  <course>0.0</course>
  <speed>0.0</speed>
  <fix>3d</fix>
</trkpt>
<trkpt lat="33.810313" lon="-118.393867">
  <ele>0.0</ele>
  <time>2026-09-02T22:13:08Z</time>
  <course>176.66</course>
  <speed>0.0</speed>
  <fix>3d</fix>
</trkpt>
<trkpt lat="33.810313" lon="-118.393867">
  <ele>-0.13</ele>
  <time>2026-09-02T22:13:08Z</time>
  <course>0.0</course>
  <speed>0.0</speed>
  <fix>3d</fix>
</trkpt>
<trkpt lat="33.810313" lon="-118.393867">
  <ele>0.0</ele>
  <time>2026-09-02T22:13:08Z</time>
  <course>177.12</course>
  <speed>0.0</speed>
  <fix>3d</fix>
</trkpt>
<trkpt lat="33.810313" lon="-118.393867">
  <ele>-0.13</ele>
  <time>2026-09-02T22:13:08Z</time>
  <course>0.0</course>
  <speed>0.0</speed>
  <fix>3d</fix>
</trkpt>
<trkpt lat="33.810313" lon="-118.393867">
  <ele>0.0</ele>
  <time>2026-09-02T22:13:08Z</time>
  <course>177.57</course>
  <speed>0.0</speed>
  <fix>3d</fix>
</trkpt>
<trkpt lat="33.810313" lon="-118.393867">
  <ele>-0.13</ele>
  <time>2026-09-02T22:13:08Z</time>
  <course>0.0</course>
  <speed>0.0</speed>
  <fix>3d</fix>
</trkpt>
<trkpt lat="33.810313" lon="-118.393867">
  <ele>0.0</ele>
  <time>2026-09-02T22:13:08Z</time>
  <course>178.02</course>
  <speed>0.0</speed>
  <fix>3d</fix>
</trkpt>
<trkpt lat="33.810313" lon="-118.393867">
  <ele>-0.14</ele>
  <time>2026-09-02T22:13:08Z</time>
  <course>0.0</course>
  <speed>0.0</speed>
  <fix>3d</fix>
</trkpt>
<trkpt lat="33.810313" lon="-118.393867">
  <ele>0.0</ele>
  <time>2026-09-02T22:13:08Z</time>
  <course>178.46</course>
  <speed>0.0</speed>
  <fix>3d</fix>
</trkpt>
<trkpt lat="33.810313" lon="-118.393867">
  <ele>-0.14</ele>
  <time>2026-09-02T22:13:08Z</time>
  <course>0.0</course>
  <speed>0.0</speed>
  <fix>3d</fix>
</trkpt>
<trkpt lat="33.810313" lon="-118.393867">
  <ele>0.0</ele>
  <time>2026-09-02T22:13:08Z</time>
  <course>178.88</course>
  <speed>0.0</speed>
  <fix>3d</fix>
</trkpt>
<trkpt lat="33.810313" lon="-118.393867">
  <ele>-0.14</ele>
  <time>2026-09-02T22:13:08Z</time>
  <course>0.0</course>
  <speed>0.0</speed>
  <fix>3d</fix>
</trkpt>
<trkpt lat="33.810313" lon="-118.393867">
  <ele>0.0</ele>
  <time>2026-09-02T22:13:08Z</time>
  <course>179.28</course>
  <speed>0.0</speed>
  <fix>3d</fix>
</trkpt>
<trkpt lat="33.810313" lon="-118.393867">
  <ele>-0.14</ele>
  <time>2026-09-02T22:13:08Z</time>
  <course>0.0</course>
  <speed>0.0</speed>
  <fix>3d</fix>
</trkpt>
<trkpt lat="33.810313" lon="-118.393867">
  <ele>0.0</ele>
  <time>2026-09-02T22:13:08Z</time>
  <course>179.67</course>
  <speed>0.0</speed>
  <fix>3d</fix>
</trkpt>
<trkpt lat="33.810313" lon="-118.393867">
  <ele>-0.14</ele>
  <time>2026-09-02T22:13:08Z</time>
  <course>0.0</course>
  <speed>0.0</speed>
  <fix>3d</fix>
</trkpt>
<trkpt lat="33.810313" lon="-118.393867">
  <ele>0.0</ele>
  <time>2026-09-02T22:13:08Z</time>
  <course>180.06</course>
  <speed>0.0</speed>
  <fix>3d</fix>
</trkpt>
<trkpt lat="33.810313" lon="-118.393867">
  <ele>-0.14</ele>
  <time>2026-09-02T22:13:08Z</time>
  <course>0.0</course>
  <speed>0.0</speed>
  <fix>3d</fix>
</trkpt>
<trkpt lat="33.810313" lon="-118.393867">
  <ele>0.0</ele>
  <time>2026-09-02T22:13:08Z</time>
  <course>180.42</course>
  <speed>0.0</speed>
  <fix>3d</fix>
</trkpt>
<trkpt lat="33.810313" lon="-118.393867">
  <ele>-0.14</ele>
  <time>2026-09-02T22:13:08Z</time>
  <course>0.0</course>
  <speed>0.0</speed>
  <fix>3d</fix>
</trkpt>
<trkpt lat="33.810313" lon="-118.393867">
  <ele>0.0</ele>
  <time>2026-09-02T22:13:08Z</time>
  <course>180.77</course>
  <speed>0.0</speed>
  <fix>3d</fix>
</trkpt>
<trkpt lat="33.810313" lon="-118.393867">
  <ele>-0.14</ele>
  <time>2026-09-02T22:13:08Z</time>
  <course>0.0</course>
  <speed>0.0</speed>
  <fix>3d</fix>
</trkpt>
<trkpt lat="33.810313" lon="-118.393867">
  <ele>0.0</ele>
  <time>2026-09-02T22:13:08Z</time>
  <course>181.11</course>
  <speed>0.0</speed>
  <fix>3d</fix>
</trkpt>
<trkpt lat="33.810313" lon="-118.393867">
  <ele>-0.13</ele>
  <time>2026-09-02T22:13:08Z</time>
  <course>0.0</course>
  <speed>0.0</speed>
  <fix>3d</fix>
</trkpt>
<trkpt lat="33.810313" lon="-118.393867">
  <ele>0.0</ele>
  <time>2026-09-02T22:13:08Z</time>
  <course>181.44</course>
  <speed>0.0</speed>
  <fix>3d</fix>
</trkpt>
<trkpt lat="33.810313" lon="-118.393867">
  <ele>-0.13</ele>
  <time>2026-09-02T22:13:08Z</time>
  <course>0.0</course>
  <speed>0.0</speed>
  <fix>3d</fix>
</trkpt>
<trkpt lat="33.810313" lon="-118.393867">
  <ele>0.0</ele>
  <time>2026-09-02T22:13:08Z</time>
  <course>181.76</course>
  <speed>0.0</speed>
  <fix>3d</fix>
</trkpt>
<trkpt lat="33.810313" lon="-118.393867">
  <ele>-0.12</ele>
  <time>2026-09-02T22:13:08Z</time>
  <course>0.0</course>
  <speed>0.0</speed>
  <fix>3d</fix>
</trkpt>
<trkpt lat="33.810313" lon="-118.393867">
  <ele>0.0</ele>
  <time>2026-09-02T22:13:08Z</time>
  <course>182.06</course>
  <speed>0.0</speed>
  <fix>3d</fix>
</trkpt>
<trkpt lat="33.810313" lon="-118.393867">
  <ele>-0.12</ele>
  <time>2026-09-02T22:13:08Z</time>
  <course>0.0</course>
  <speed>0.0</speed>
  <fix>3d</fix>
</trkpt>
<trkpt lat="33.810313" lon="-118.393867">
  <ele>0.0</ele>
  <time>2026-09-02T22:13:08Z</time>
  <course>182.35</course>
  <speed>0.0</speed>
  <fix>3d</fix>
</trkpt>
<trkpt lat="33.810313" lon="-118.393867">
  <ele>-0.12</ele>
  <time>2026-09-02T22:13:08Z</time>
  <course>0.0</course>
  <speed>0.0</speed>
  <fix>3d</fix>
</trkpt>
<trkpt lat="33.810313" lon="-118.393867">
  <ele>0.0</ele>
  <time>2026-09-02T22:13:08Z</time>
  <course>182.64</course>
  <speed>0.0</speed>
  <fix>3d</fix>
</trkpt>
<trkpt lat="33.810313" lon="-118.393867">
  <ele>-0.12</ele>
  <time>2026-09-02T22:13:08Z</time>
  <course>0.0</course>
  <speed>0.0</speed>
  <fix>3d</fix>
</trkpt>
<trkpt lat="33.810313" lon="-118.393867">
  <ele>0.0</ele>
  <time>2026-09-02T22:13:08Z</time>
  <course>182.91</course>
  <speed>0.0</speed>
  <fix>3d</fix>
</trkpt>
<trkpt lat="33.810313" lon="-118.393867">
  <ele>-0.11</ele>
  <time>2026-09-02T22:13:08Z</time>
  <course>0.0</course>
  <speed>0.0</speed>
  <fix>3d</fix>
</trkpt>
<trkpt lat="33.810313" lon="-118.393867">
  <ele>0.0</ele>
  <time>2026-09-02T22:13:08Z</time>
  <course>183.17</course>
  <speed>0.0</speed>
  <fix>3d</fix>
</trkpt>
<trkpt lat="33.810313" lon="-118.393867">
  <ele>-0.11</ele>
  <time>2026-09-02T22:13:08Z</time>
  <course>0.0</course>
  <speed>0.0</speed>
  <fix>3d</fix>
</trkpt>
<trkpt lat="33.810313" lon="-118.393867">
  <ele>0.0</ele>
  <time>2026-09-02T22:13:08Z</time>
  <course>183.42</course>
  <speed>0.0</speed>
  <fix>3d</fix>
</trkpt>
<trkpt lat="33.810313" lon="-118.393867">
  <ele>-0.11</ele>
  <time>2026-09-02T22:13:08Z</time>
  <course>0.0</course>
  <speed>0.0</speed>
  <fix>3d</fix>
</trkpt>
<trkpt lat="33.810313" lon="-118.393867">
  <ele>0.0</ele>
  <time>2026-09-02T22:13:08Z</time>
  <course>183.66</course>
  <speed>0.0</speed>
  <fix>3d</fix>
</trkpt>
<trkpt lat="33.810313" lon="-118.393867">
  <ele>-0.11</ele>
  <time>2026-09-02T22:13:08Z</time>
  <course>0.0</course>
  <speed>0.0</speed>
  <fix>3d</fix>
</trkpt>
<trkpt lat="33.810313" lon="-118.393867">
  <ele>0.0</ele>
  <time>2026-09-02T22:13:08Z</time>
  <course>183.89</course>
  <speed>0.0</speed>
  <fix>3d</fix>
</trkpt>
<trkpt lat="33.810313" lon="-118.393867">
  <ele>-0.12</ele>
  <time>2026-09-02T22:13:08Z</time>
  <course>0.0</course>
  <speed>0.0</speed>
  <fix>3d</fix>
</trkpt>
<trkpt lat="33.810313" lon="-118.393867">
  <ele>0.0</ele>
  <time>2026-09-02T22:13:08Z</time>
  <course>184.11</course>
  <speed>0.0</speed>
  <fix>3d</fix>
</trkpt>
<trkpt lat="33.810313" lon="-118.393867">
  <ele>-0.12</ele>
  <time>2026-09-02T22:13:08Z</time>
  <course>0.0</course>
  <speed>0.0</speed>
  <fix>3d</fix>
</trkpt>
<trkpt lat="33.810313" lon="-118.393867">
  <ele>0.0</ele>
  <time>2026-09-02T22:13:08Z</time>
  <course>184.32</course>
  <speed>0.0</speed>
  <fix>3d</fix>
</trkpt>
<trkpt lat="33.810313" lon="-118.393867">
  <ele>-0.13</ele>
  <time>2026-09-02T22:13:08Z</time>
  <course>0.0</course>
  <speed>0.0</speed>
  <fix>3d</fix>
</trkpt>
<trkpt lat="33.810313" lon="-118.393867">
  <ele>0.0</ele>
  <time>2026-09-02T22:13:08Z</time>
  <course>184.52</course>
  <speed>0.0</speed>
  <fix>3d</fix>
</trkpt>
<trkpt lat="33.810313" lon="-118.393867">
  <ele>-0.13</ele>
  <time>2026-09-02T22:13:08Z</time>
  <course>0.0</course>
  <speed>0.0</speed>
  <fix>3d</fix>
</trkpt>
<trkpt lat="33.810313" lon="-118.393867">
  <ele>0.0</ele>
  <time>2026-09-02T22:13:08Z</time>
  <course>184.72</course>
  <speed>0.0</speed>
  <fix>3d</fix>
</trkpt>
<trkpt lat="33.810313" lon="-118.393867">
  <ele>-0.13</ele>
  <time>2026-09-02T22:13:08Z</time>
  <course>0.0</course>
  <speed>0.0</speed>
  <fix>3d</fix>
</trkpt>
<trkpt lat="33.810313" lon="-118.393867">
  <ele>0.0</ele>
  <time>2026-09-02T22:13:08Z</time>
  <course>184.91</course>
  <speed>0.0</speed>
  <fix>3d</fix>
</trkpt>
<trkpt lat="33.810313" lon="-118.393867">
  <ele>-0.13</ele>
  <time>2026-09-02T22:13:08Z</time>
  <course>0.0</course>
  <speed>0.0</speed>
  <fix>3d</fix>
</trkpt>
<trkpt lat="33.810313" lon="-118.393867">
  <ele>0.0</ele>
  <time>2026-09-02T22:13:08Z</time>
  <course>185.09</course>
  <speed>0.0</speed>
  <fix>3d</fix>
</trkpt>
<trkpt lat="33.810313" lon="-118.393867">
  <ele>-0.14</ele>
  <time>2026-09-02T22:13:08Z</time>
  <course>0.0</course>
  <speed>0.0</speed>
  <fix>3d</fix>
</trkpt>
<trkpt lat="33.810313" lon="-118.393867">
  <ele>0.0</ele>
  <time>2026-09-02T22:13:08Z</time>
  <course>185.26</course>
  <speed>0.0</speed>
  <fix>3d</fix>
</trkpt>
<trkpt lat="33.810313" lon="-118.393867">
  <ele>-0.14</ele>
  <time>2026-09-02T22:13:08Z</time>
  <course>0.0</course>
  <speed>0.0</speed>
  <fix>3d</fix>
</trkpt>
<trkpt lat="33.810313" lon="-118.393867">
  <ele>0.0</ele>
  <time>2026-09-02T22:13:08Z</time>
  <course>185.43</course>
  <speed>0.0</speed>
  <fix>3d</fix>
</trkpt>
<trkpt lat="33.810313" lon="-118.393867">
  <ele>-0.13</ele>
  <time>2026-09-02T22:13:08Z</time>
  <course>0.0</course>
  <speed>0.0</speed>
  <fix>3d</fix>
</trkpt>
<trkpt lat="33.810313" lon="-118.393867">
  <ele>0.0</ele>
  <time>2026-09-02T22:13:08Z</time>
  <course>185.58</course>
  <speed>0.0</speed>
  <fix>3d</fix>
</trkpt>
<trkpt lat="33.810313" lon="-118.393867">
  <ele>-0.13</ele>
  <time>2026-09-02T22:13:08Z</time>
  <course>0.0</course>
  <speed>0.0</speed>
  <fix>3d</fix>
</trkpt>
<trkpt lat="33.810313" lon="-118.393867">
  <ele>0.0</ele>
  <time>2026-09-02T22:13:08Z</time>
  <course>185.73</course>
  <speed>0.0</speed>
  <fix>3d</fix>
</trkpt>
<trkpt lat="33.810313" lon="-118.393867">
  <ele>-0.13</ele>
  <time>2026-09-02T22:13:08Z</time>
  <course>0.0</course>
  <speed>0.0</speed>
  <fix>3d</fix>
</trkpt>
<trkpt lat="33.810313" lon="-118.393867">
  <ele>0.0</ele>
  <time>2026-09-02T22:13:08Z</time>
  <course>185.88</course>
  <speed>0.0</speed>
  <fix>3d</fix>
</trkpt>
<trkpt lat="33.810313" lon="-118.393867">
  <ele>-0.13</ele>
  <time>2026-09-02T22:13:08Z</time>
  <course>0.0</course>
  <speed>0.0</speed>
  <fix>3d</fix>
</trkpt>
<trkpt lat="33.810313" lon="-118.393867">
  <ele>0.0</ele>
  <time>2026-09-02T22:13:08Z</time>
  <course>186.01</course>
  <speed>0.0</speed>
  <fix>3d</fix>
</trkpt>
<trkpt lat="33.810313" lon="-118.393867">
  <ele>-0.12</ele>
  <time>2026-09-02T22:13:08Z</time>
  <course>0.0</course>
  <speed>0.0</speed>
  <fix>3d</fix>
</trkpt>
<trkpt lat="33.810313" lon="-118.393867">
  <ele>0.0</ele>
  <time>2026-09-02T22:13:08Z</time>
  <course>186.15</course>
  <speed>0.0</speed>
  <fix>3d</fix>
</trkpt>
<trkpt lat="33.810313" lon="-118.393867">
  <ele>-0.12</ele>
  <time>2026-09-02T22:13:08Z</time>
  <course>0.0</course>
  <speed>0.0</speed>
  <fix>3d</fix>
</trkpt>
<trkpt lat="33.810313" lon="-118.393867">
  <ele>0.0</ele>
  <time>2026-09-02T22:13:08Z</time>
  <course>186.27</course>
  <speed>0.0</speed>
  <fix>3d</fix>
</trkpt>
<trkpt lat="33.810313" lon="-118.393867">
  <ele>-0.12</ele>
  <time>2026-09-02T22:13:08Z</time>
  <course>0.0</course>
  <speed>0.0</speed>
  <fix>3d</fix>
</trkpt>
<trkpt lat="33.810313" lon="-118.393867">
  <ele>0.0</ele>
  <time>2026-09-02T22:13:08Z</time>
  <course>186.39</course>
  <speed>0.0</speed>
  <fix>3d</fix>
</trkpt>
<trkpt lat="33.810313" lon="-118.393867">
  <ele>-0.12</ele>
  <time>2026-09-02T22:13:08Z</time>
  <course>0.0</course>
  <speed>0.0</speed>
  <fix>3d</fix>
</trkpt>
<trkpt lat="33.810313" lon="-118.393867">
  <ele>0.0</ele>
  <time>2026-09-02T22:13:08Z</time>
  <course>186.51</course>
  <speed>0.0</speed>
  <fix>3d</fix>
</trkpt>
<trkpt lat="33.810313" lon="-118.393867">
  <ele>-0.12</ele>
  <time>2026-09-02T22:13:08Z</time>
  <course>0.0</course>
  <speed>0.0</speed>
  <fix>3d</fix>
</trkpt>
<trkpt lat="33.810313" lon="-118.393867">
  <ele>0.0</ele>
  <time>2026-09-02T22:13:08Z</time>
  <course>186.62</course>
  <speed>0.0</speed>
  <fix>3d</fix>
</trkpt>
<trkpt lat="33.810313" lon="-118.393867">
  <ele>-0.12</ele>
  <time>2026-09-02T22:13:08Z</time>
  <course>0.0</course>
  <speed>0.0</speed>
  <fix>3d</fix>
</trkpt>
<trkpt lat="33.810313" lon="-118.393867">
  <ele>0.0</ele>
  <time>2026-09-02T22:13:08Z</time>
  <course>186.72</course>
  <speed>0.0</speed>
  <fix>3d</fix>
</trkpt>
<trkpt lat="33.810313" lon="-118.393867">
  <ele>-0.12</ele>
  <time>2026-09-02T22:13:08Z</time>
  <course>0.0</course>
  <speed>0.0</speed>
  <fix>3d</fix>
</trkpt>
<trkpt lat="33.810313" lon="-118.393867">
  <ele>0.0</ele>
  <time>2026-09-02T22:13:08Z</time>
  <course>186.82</course>
  <speed>0.0</speed>
  <fix>3d</fix>
</trkpt>
<trkpt lat="33.810313" lon="-118.393867">
  <ele>-0.12</ele>
  <time>2026-09-02T22:13:08Z</time>
  <course>0.0</course>
  <speed>0.0</speed>
  <fix>3d</fix>
</trkpt>
<trkpt lat="33.810313" lon="-118.393867">
  <ele>0.0</ele>
  <time>2026-09-02T22:13:08Z</time>
  <course>186.92</course>
  <speed>0.0</speed>
  <fix>3d</fix>
</trkpt>
<trkpt lat="33.810313" lon="-118.393867">
  <ele>-0.12</ele>
  <time>2026-09-02T22:13:08Z</time>
  <course>0.0</course>
  <speed>0.0</speed>
  <fix>3d</fix>
</trkpt>
<trkpt lat="33.810313" lon="-118.393867">
  <ele>0.0</ele>
  <time>2026-09-02T22:13:08Z</time>
  <course>187.01</course>
  <speed>0.0</speed>
  <fix>3d</fix>
</trkpt>
<trkpt lat="33.810313" lon="-118.393867">
  <ele>-0.12</ele>
  <time>2026-09-02T22:13:08Z</time>
  <course>0.0</course>
  <speed>0.0</speed>
  <fix>3d</fix>
</trkpt>
<trkpt lat="33.810313" lon="-118.393867">
  <ele>0.0</ele>
  <time>2026-09-02T22:13:08Z</time>
  <course>187.09</course>
  <speed>0.0</speed>
  <fix>3d</fix>
</trkpt>
<trkpt lat="33.810313" lon="-118.393867">
  <ele>-0.13</ele>
  <time>2026-09-02T22:13:08Z</time>
  <course>0.0</course>
  <speed>0.0</speed>
  <fix>3d</fix>
</trkpt>
<trkpt lat="33.810313" lon="-118.393867">
  <ele>0.0</ele>
  <time>2026-09-02T22:13:08Z</time>
  <course>187.17</course>
  <speed>0.0</speed>
  <fix>3d</fix>
</trkpt>
<trkpt lat="33.810313" lon="-118.393867">
  <ele>-0.13</ele>
  <time>2026-09-02T22:13:08Z</time>
  <course>0.0</course>
  <speed>0.0</speed>
  <fix>3d</fix>
</trkpt>
<trkpt lat="33.810313" lon="-118.393867">
  <ele>0.0</ele>
  <time>2026-09-02T22:13:08Z</time>
  <course>187.25</course>
  <speed>0.0</speed>
  <fix>3d</fix>
</trkpt>
<trkpt lat="33.810313" lon="-118.393867">
  <ele>-0.13</ele>
  <time>2026-09-02T22:13:08Z</time>
  <course>0.0</course>
  <speed>0.0</speed>
  <fix>3d</fix>
</trkpt>
<trkpt lat="33.810313" lon="-118.393867">
  <ele>0.0</ele>
  <time>2026-09-02T22:13:08Z</time>
  <course>187.33</course>
  <speed>0.0</speed>
  <fix>3d</fix>
</trkpt>
<trkpt lat="33.810313" lon="-118.393867">
  <ele>-0.13</ele>
  <time>2026-09-02T22:13:08Z</time>
  <course>0.0</course>
  <speed>0.0</speed>
  <fix>3d</fix>
</trkpt>
<trkpt lat="33.810313" lon="-118.393867">
  <ele>0.0</ele>
  <time>2026-09-02T22:13:08Z</time>
  <course>187.4</course>
  <speed>0.0</speed>
  <fix>3d</fix>
</trkpt>
<trkpt lat="33.810313" lon="-118.393867">
  <ele>-0.13</ele>
  <time>2026-09-02T22:13:08Z</time>
  <course>0.0</course>
  <speed>0.0</speed>
  <fix>3d</fix>
</trkpt>
<trkpt lat="33.810313" lon="-118.393867">
  <ele>0.0</ele>
  <time>2026-09-02T22:13:08Z</time>
  <course>187.47</course>
  <speed>0.0</speed>
  <fix>3d</fix>
</trkpt>
<trkpt lat="33.810313" lon="-118.393867">
  <ele>-0.13</ele>
  <time>2026-09-02T22:13:08Z</time>
  <course>0.0</course>
  <speed>0.0</speed>
  <fix>3d</fix>
</trkpt>
<trkpt lat="33.810313" lon="-118.393867">
  <ele>0.0</ele>
  <time>2026-09-02T22:13:08Z</time>
  <course>187.53</course>
  <speed>0.0</speed>
  <fix>3d</fix>
</trkpt>
<trkpt lat="33.810313" lon="-118.393867">
  <ele>-0.13</ele>
  <time>2026-09-02T22:13:08Z</time>
  <course>0.0</course>
  <speed>0.0</speed>
  <fix>3d</fix>
</trkpt>
<trkpt lat="33.810313" lon="-118.393867">
  <ele>0.0</ele>
  <time>2026-09-02T22:13:08Z</time>
  <course>187.6</course>
  <speed>0.0</speed>
  <fix>3d</fix>
</trkpt>
<trkpt lat="33.810313" lon="-118.393867">
  <ele>-0.13</ele>
  <time>2026-09-02T22:13:08Z</time>
  <course>0.0</course>
  <speed>0.0</speed>
  <fix>3d</fix>
</trkpt>
<trkpt lat="33.810313" lon="-118.393867">
  <ele>0.0</ele>
  <time>2026-09-02T22:13:08Z</time>
  <course>187.65</course>
  <speed>0.0</speed>
  <fix>3d</fix>
</trkpt>
<trkpt lat="33.810313" lon="-118.393867">
  <ele>-0.12</ele>
  <time>2026-09-02T22:13:08Z</time>
  <course>0.0</course>
  <speed>0.0</speed>
  <fix>3d</fix>
</trkpt>
<trkpt lat="33.810313" lon="-118.393867">
  <ele>0.0</ele>
  <time>2026-09-02T22:13:08Z</time>
  <course>187.71</course>
  <speed>0.0</speed>
  <fix>3d</fix>
</trkpt>
<trkpt lat="33.810313" lon="-118.393867">
  <ele>-0.12</ele>
  <time>2026-09-02T22:13:08Z</time>
  <course>0.0</course>
  <speed>0.0</speed>
  <fix>3d</fix>
</trkpt>
<trkpt lat="33.810313" lon="-118.393867">
  <ele>0.0</ele>
  <time>2026-09-02T22:13:08Z</time>
  <course>187.76</course>
  <speed>0.0</speed>
  <fix>3d</fix>
</trkpt>
<trkpt lat="33.810313" lon="-118.393867">
  <ele>-0.12</ele>
  <time>2026-09-02T22:13:08Z</time>
  <course>0.0</course>
  <speed>0.0</speed>
  <fix>3d</fix>
</trkpt>
<trkpt lat="33.810313" lon="-118.393867">
  <ele>0.0</ele>
  <time>2026-09-02T22:13:08Z</time>
  <course>187.81</course>
  <speed>0.0</speed>
  <fix>3d</fix>
</trkpt>
<trkpt lat="33.810313" lon="-118.393867">
  <ele>-0.12</ele>
  <time>2026-09-02T22:13:08Z</time>
  <course>0.0</course>
  <speed>0.0</speed>
  <fix>3d</fix>
</trkpt>
<trkpt lat="33.810313" lon="-118.393867">
  <ele>0.0</ele>
  <time>2026-09-02T22:13:08Z</time>
  <course>187.86</course>
  <speed>0.0</speed>
  <fix>3d</fix>
</trkpt>
<trkpt lat="33.810313" lon="-118.393867">
  <ele>-0.12</ele>
  <time>2026-09-02T22:13:08Z</time>
  <course>0.0</course>
  <speed>0.0</speed>
  <fix>3d</fix>
</trkpt>
<trkpt lat="33.810313" lon="-118.393867">
  <ele>0.0</ele>
  <time>2026-09-02T22:13:08Z</time>
  <course>187.91</course>
  <speed>0.0</speed>
  <fix>3d</fix>
</trkpt>
<trkpt lat="33.810313" lon="-118.393867">
  <ele>-0.12</ele>
  <time>2026-09-02T22:13:08Z</time>
  <course>0.0</course>
  <speed>0.0</speed>
  <fix>3d</fix>
</trkpt>
<trkpt lat="33.810313" lon="-118.393867">
  <ele>0.0</ele>
  <time>2026-09-02T22:13:08Z</time>
  <course>187.95</course>
  <speed>0.0</speed>
  <fix>3d</fix>
</trkpt>
<trkpt lat="33.810313" lon="-118.393867">
  <ele>-0.12</ele>
  <time>2026-09-02T22:13:08Z</time>
  <course>0.0</course>
  <speed>0.0</speed>
  <fix>3d</fix>
</trkpt>
<trkpt lat="33.810313" lon="-118.393867">
  <ele>0.0</ele>
  <time>2026-09-02T22:13:08Z</time>
  <course>187.99</course>
  <speed>0.0</speed>
  <fix>3d</fix>
</trkpt>
<trkpt lat="33.810313" lon="-118.393867">
  <ele>-0.12</ele>
  <time>2026-09-02T22:13:08Z</time>
  <course>0.0</course>
  <speed>0.0</speed>
  <fix>3d</fix>
</trkpt>
<trkpt lat="33.810313" lon="-118.393867">
  <ele>0.0</ele>
  <time>2026-09-02T22:13:08Z</time>
  <course>188.03</course>
  <speed>0.0</speed>
  <fix>3d</fix>
</trkpt>
<trkpt lat="33.810313" lon="-118.393867">
  <ele>-0.12</ele>
  <time>2026-09-02T22:13:08Z</time>
  <course>0.0</course>
  <speed>0.0</speed>
  <fix>3d</fix>
</trkpt>
<trkpt lat="33.810313" lon="-118.393867">
  <ele>0.0</ele>
  <time>2026-09-02T22:13:08Z</time>
  <course>188.07</course>
  <speed>0.0</speed>
  <fix>3d</fix>
</trkpt>
<trkpt lat="33.810313" lon="-118.393867">
  <ele>-0.12</ele>
  <time>2026-09-02T22:13:08Z</time>
  <course>0.0</course>
  <speed>0.0</speed>
  <fix>3d</fix>
</trkpt>
<trkpt lat="33.810313" lon="-118.393867">
  <ele>0.0</ele>
  <time>2026-09-02T22:13:08Z</time>
  <course>188.1</course>
  <speed>0.0</speed>
  <fix>3d</fix>
</trkpt>
<trkpt lat="33.810313" lon="-118.393867">
  <ele>-0.13</ele>
  <time>2026-09-02T22:13:08Z</time>
  <course>0.0</course>
  <speed>0.0</speed>
  <fix>3d</fix>
</trkpt>
<trkpt lat="33.810313" lon="-118.393867">
  <ele>0.0</ele>
  <time>2026-09-02T22:13:08Z</time>
  <course>188.13</course>
  <speed>0.0</speed>
  <fix>3d</fix>
</trkpt>
<trkpt lat="33.810313" lon="-118.393867">
  <ele>-0.13</ele>
  <time>2026-09-02T22:13:08Z</time>
  <course>0.0</course>
  <speed>0.0</speed>
  <fix>3d</fix>
</trkpt>
<trkpt lat="33.810313" lon="-118.393867">
  <ele>0.0</ele>
  <time>2026-09-02T22:13:08Z</time>
  <course>188.17</course>
  <speed>0.0</speed>
  <fix>3d</fix>
</trkpt>
<trkpt lat="33.810313" lon="-118.393867">
  <ele>-0.13</ele>
  <time>2026-09-02T22:13:08Z</time>
  <course>0.0</course>
  <speed>0.0</speed>
  <fix>3d</fix>
</trkpt>
<trkpt lat="33.810313" lon="-118.393867">
  <ele>0.0</ele>
  <time>2026-09-02T22:13:08Z</time>
  <course>188.19</course>
  <speed>0.0</speed>
  <fix>3d</fix>
</trkpt>
<trkpt lat="33.810313" lon="-118.393867">
  <ele>-0.13</ele>
  <time>2026-09-02T22:13:08Z</time>
  <course>0.0</course>
  <speed>0.0</speed>
  <fix>3d</fix>
</trkpt>
<trkpt lat="33.810313" lon="-118.393867">
  <ele>0.0</ele>
  <time>2026-09-02T22:13:08Z</time>
  <course>188.22</course>
  <speed>0.0</speed>
  <fix>3d</fix>
</trkpt>
<trkpt lat="33.810313" lon="-118.393867">
  <ele>-0.13</ele>
  <time>2026-09-02T22:13:08Z</time>
  <course>0.0</course>
  <speed>0.0</speed>
  <fix>3d</fix>
</trkpt>
<trkpt lat="33.810313" lon="-118.393867">
  <ele>0.0</ele>
  <time>2026-09-02T22:13:08Z</time>
  <course>188.25</course>
  <speed>0.0</speed>
  <fix>3d</fix>
</trkpt>
<trkpt lat="33.810313" lon="-118.393867">
  <ele>-0.13</ele>
  <time>2026-09-02T22:13:08Z</time>
  <course>0.0</course>
  <speed>0.0</speed>
  <fix>3d</fix>
</trkpt>
<trkpt lat="33.810313" lon="-118.393867">
  <ele>0.0</ele>
  <time>2026-09-02T22:13:08Z</time>
  <course>188.27</course>
  <speed>0.0</speed>
  <fix>3d</fix>
</trkpt>
<trkpt lat="33.810313" lon="-118.393867">
  <ele>-0.12</ele>
  <time>2026-09-02T22:13:08Z</time>
  <course>0.0</course>
  <speed>0.0</speed>
  <fix>3d</fix>
</trkpt>
<trkpt lat="33.810313" lon="-118.393867">
  <ele>0.0</ele>
  <time>2026-09-02T22:13:09Z</time>
  <course>188.3</course>
  <speed>0.0</speed>
  <fix>3d</fix>
</trkpt>
<trkpt lat="33.810313" lon="-118.393867">
  <ele>-0.12</ele>
  <time>2026-09-02T22:13:09Z</time>
  <course>0.0</course>
  <speed>0.0</speed>
  <fix>3d</fix>
</trkpt>
<trkpt lat="33.810313" lon="-118.393867">
  <ele>0.0</ele>
  <time>2026-09-02T22:13:09Z</time>
  <course>188.32</course>
  <speed>0.0</speed>
  <fix>3d</fix>
</trkpt>
<trkpt lat="33.810313" lon="-118.393867">
  <ele>-0.12</ele>
  <time>2026-09-02T22:13:09Z</time>
  <course>0.0</course>
  <speed>0.0</speed>
  <fix>3d</fix>
</trkpt>
<trkpt lat="33.810313" lon="-118.393867">
  <ele>0.0</ele>
  <time>2026-09-02T22:13:09Z</time>
  <course>188.34</course>
  <speed>0.0</speed>
  <fix>3d</fix>
</trkpt>
<trkpt lat="33.810313" lon="-118.393867">
  <ele>-0.12</ele>
  <time>2026-09-02T22:13:09Z</time>
  <course>0.0</course>
  <speed>0.0</speed>
  <fix>3d</fix>
</trkpt>
<trkpt lat="33.810313" lon="-118.393867">
  <ele>0.0</ele>
  <time>2026-09-02T22:13:09Z</time>
  <course>188.36</course>
  <speed>0.0</speed>
  <fix>3d</fix>
</trkpt>
<trkpt lat="33.810313" lon="-118.393867">
  <ele>-0.12</ele>
  <time>2026-09-02T22:13:09Z</time>
  <course>0.0</course>
  <speed>0.0</speed>
  <fix>3d</fix>
</trkpt>
<trkpt lat="33.810313" lon="-118.393867">
  <ele>0.0</ele>
  <time>2026-09-02T22:13:09Z</time>
  <course>188.38</course>
  <speed>0.0</speed>
  <fix>3d</fix>
</trkpt>
<trkpt lat="33.810313" lon="-118.393867">
  <ele>-0.12</ele>
  <time>2026-09-02T22:13:09Z</time>
  <course>0.0</course>
  <speed>0.0</speed>
  <fix>3d</fix>
</trkpt>
<trkpt lat="33.810313" lon="-118.393867">
  <ele>0.0</ele>
  <time>2026-09-02T22:13:09Z</time>
  <course>188.39</course>
  <speed>0.0</speed>
  <fix>3d</fix>
</trkpt>
<trkpt lat="33.810313" lon="-118.393867">
  <ele>-0.12</ele>
  <time>2026-09-02T22:13:09Z</time>
  <course>0.0</course>
  <speed>0.0</speed>
  <fix>3d</fix>
</trkpt>
<trkpt lat="33.810313" lon="-118.393867">
  <ele>0.0</ele>
  <time>2026-09-02T22:13:09Z</time>
  <course>188.41</course>
  <speed>0.0</speed>
  <fix>3d</fix>
</trkpt>
<trkpt lat="33.810313" lon="-118.393867">
  <ele>-0.12</ele>
  <time>2026-09-02T22:13:09Z</time>
  <course>0.0</course>
  <speed>0.0</speed>
  <fix>3d</fix>
</trkpt>
<trkpt lat="33.810313" lon="-118.393867">
  <ele>0.0</ele>
  <time>2026-09-02T22:13:09Z</time>
  <course>188.43</course>
  <speed>0.0</speed>
  <fix>3d</fix>
</trkpt>
<trkpt lat="33.810313" lon="-118.393867">
  <ele>-0.12</ele>
  <time>2026-09-02T22:13:09Z</time>
  <course>0.0</course>
  <speed>0.0</speed>
  <fix>3d</fix>
</trkpt>
<trkpt lat="33.810313" lon="-118.393867">
  <ele>0.0</ele>
  <time>2026-09-02T22:13:09Z</time>
  <course>188.44</course>
  <speed>0.0</speed>
  <fix>3d</fix>
</trkpt>
<trkpt lat="33.810313" lon="-118.393867">
  <ele>-0.12</ele>
  <time>2026-09-02T22:13:09Z</time>
  <course>0.0</course>
  <speed>0.0</speed>
  <fix>3d</fix>
</trkpt>
<trkpt lat="33.810313" lon="-118.393867">
  <ele>0.0</ele>
  <time>2026-09-02T22:13:09Z</time>
  <course>188.45</course>
  <speed>0.0</speed>
  <fix>3d</fix>
</trkpt>
<trkpt lat="33.810313" lon="-118.393867">
  <ele>-0.13</ele>
  <time>2026-09-02T22:13:09Z</time>
  <course>0.0</course>
  <speed>0.0</speed>
  <fix>3d</fix>
</trkpt>
<trkpt lat="33.810313" lon="-118.393867">
  <ele>0.0</ele>
  <time>2026-09-02T22:13:09Z</time>
  <course>188.46</course>
  <speed>0.0</speed>
  <fix>3d</fix>
</trkpt>
<trkpt lat="33.810313" lon="-118.393867">
  <ele>-0.13</ele>
  <time>2026-09-02T22:13:09Z</time>
  <course>0.0</course>
  <speed>0.0</speed>
  <fix>3d</fix>
</trkpt>
<trkpt lat="33.810313" lon="-118.393867">
  <ele>0.0</ele>
  <time>2026-09-02T22:13:09Z</time>
  <course>188.48</course>
  <speed>0.0</speed>
  <fix>3d</fix>
</trkpt>
<trkpt lat="33.810313" lon="-118.393867">
  <ele>-0.13</ele>
  <time>2026-09-02T22:13:09Z</time>
  <course>0.0</course>
  <speed>0.0</speed>
  <fix>3d</fix>
</trkpt>
<trkpt lat="33.810313" lon="-118.393867">
  <ele>0.0</ele>
  <time>2026-09-02T22:13:09Z</time>
  <course>188.49</course>
  <speed>0.0</speed>
  <fix>3d</fix>
</trkpt>
<trkpt lat="33.810313" lon="-118.393867">
  <ele>-0.13</ele>
  <time>2026-09-02T22:13:09Z</time>
  <course>0.0</course>
  <speed>0.0</speed>
  <fix>3d</fix>
</trkpt>
<trkpt lat="33.810313" lon="-118.393867">
  <ele>0.0</ele>
  <time>2026-09-02T22:13:09Z</time>
  <course>188.49</course>
  <speed>0.0</speed>
  <fix>3d</fix>
</trkpt>
<trkpt lat="33.810313" lon="-118.393867">
  <ele>-0.13</ele>
  <time>2026-09-02T22:13:09Z</time>
  <course>0.0</course>
  <speed>0.0</speed>
  <fix>3d</fix>
</trkpt>
<trkpt lat="33.810313" lon="-118.393867">
  <ele>0.0</ele>
  <time>2026-09-02T22:13:09Z</time>
  <course>188.5</course>
  <speed>0.0</speed>
  <fix>3d</fix>
</trkpt>
<trkpt lat="33.810313" lon="-118.393867">
  <ele>-0.13</ele>
  <time>2026-09-02T22:13:09Z</time>
  <course>0.0</course>
  <speed>0.0</speed>
  <fix>3d</fix>
</trkpt>
<trkpt lat="33.810313" lon="-118.393867">
  <ele>0.0</ele>
  <time>2026-09-02T22:13:09Z</time>
  <course>188.51</course>
  <speed>0.0</speed>
  <fix>3d</fix>
</trkpt>
<trkpt lat="33.810313" lon="-118.393867">
  <ele>-0.12</ele>
  <time>2026-09-02T22:13:09Z</time>
  <course>0.0</course>
  <speed>0.0</speed>
  <fix>3d</fix>
</trkpt>
<trkpt lat="33.810313" lon="-118.393867">
  <ele>0.0</ele>
  <time>2026-09-02T22:13:09Z</time>
  <course>188.52</course>
  <speed>0.0</speed>
  <fix>3d</fix>
</trkpt>
<trkpt lat="33.810313" lon="-118.393867">
  <ele>-0.12</ele>
  <time>2026-09-02T22:13:09Z</time>
  <course>0.0</course>
  <speed>0.0</speed>
  <fix>3d</fix>
</trkpt>
<trkpt lat="33.810313" lon="-118.393867">
  <ele>0.0</ele>
  <time>2026-09-02T22:13:09Z</time>
  <course>188.53</course>
  <speed>0.0</speed>
  <fix>3d</fix>
</trkpt>
<trkpt lat="33.810313" lon="-118.393867">
  <ele>-0.12</ele>
  <time>2026-09-02T22:13:09Z</time>
  <course>0.0</course>
  <speed>0.0</speed>
  <fix>3d</fix>
</trkpt>
<trkpt lat="33.810313" lon="-118.393867">
  <ele>0.0</ele>
  <time>2026-09-02T22:13:09Z</time>
  <course>188.53</course>
  <speed>0.0</speed>
  <fix>3d</fix>
</trkpt>
<trkpt lat="33.810313" lon="-118.393867">
  <ele>-0.12</ele>
  <time>2026-09-02T22:13:09Z</time>
  <course>0.0</course>
  <speed>0.0</speed>
  <fix>3d</fix>
</trkpt>
<trkpt lat="33.810313" lon="-118.393867">
  <ele>0.0</ele>
  <time>2026-09-02T22:13:09Z</time>
  <course>188.54</course>
  <speed>0.0</speed>
  <fix>3d</fix>
</trkpt>
<trkpt lat="33.810313" lon="-118.393867">
  <ele>-0.12</ele>
  <time>2026-09-02T22:13:09Z</time>
  <course>0.0</course>
  <speed>0.0</speed>
  <fix>3d</fix>
</trkpt>
<trkpt lat="33.810313" lon="-118.393867">
  <ele>0.0</ele>
  <time>2026-09-02T22:13:09Z</time>
  <course>188.54</course>
  <speed>0.0</speed>
  <fix>3d</fix>
</trkpt>
<trkpt lat="33.810313" lon="-118.393867">
  <ele>-0.12</ele>
  <time>2026-09-02T22:13:09Z</time>
  <course>0.0</course>
  <speed>0.0</speed>
  <fix>3d</fix>
</trkpt>
<trkpt lat="33.810313" lon="-118.393867">
  <ele>0.0</ele>
  <time>2026-09-02T22:13:09Z</time>
  <course>188.54</course>
  <speed>0.0</speed>
  <fix>3d</fix>
</trkpt>
<trkpt lat="33.810313" lon="-118.393867">
  <ele>-0.12</ele>
  <time>2026-09-02T22:13:09Z</time>
  <course>0.0</course>
  <speed>0.0</speed>
  <fix>3d</fix>
</trkpt>
<trkpt lat="33.810313" lon="-118.393867">
  <ele>0.0</ele>
  <time>2026-09-02T22:13:09Z</time>
  <course>188.55</course>
  <speed>0.0</speed>
  <fix>3d</fix>
</trkpt>
<trkpt lat="33.810313" lon="-118.393867">
  <ele>-0.12</ele>
  <time>2026-09-02T22:13:09Z</time>
  <course>0.0</course>
  <speed>0.0</speed>
  <fix>3d</fix>
</trkpt>
<trkpt lat="33.810313" lon="-118.393867">
  <ele>0.0</ele>
  <time>2026-09-02T22:13:09Z</time>
  <course>188.55</course>
  <speed>0.0</speed>
  <fix>3d</fix>
</trkpt>
<trkpt lat="33.810313" lon="-118.393867">
  <ele>-0.12</ele>
  <time>2026-09-02T22:13:09Z</time>
  <course>0.0</course>
  <speed>0.0</speed>
  <fix>3d</fix>
</trkpt>
<trkpt lat="33.810313" lon="-118.393867">
  <ele>0.0</ele>
  <time>2026-09-02T22:13:09Z</time>
  <course>188.55</course>
  <speed>0.0</speed>
  <fix>3d</fix>
</trkpt>
<trkpt lat="33.810313" lon="-118.393867">
  <ele>-0.12</ele>
  <time>2026-09-02T22:13:09Z</time>
  <course>0.0</course>
  <speed>0.0</speed>
  <fix>3d</fix>
</trkpt>
<trkpt lat="33.810313" lon="-118.393867">
  <ele>-0.126</ele>
  <time>2026-09-02T22:13:09Z</time>
  <course>188.55</course>
  <speed>0.0</speed>
  <fix>3d</fix>
</trkpt>
<trkpt lat="33.810313" lon="-118.393867">
  <ele>-0.13</ele>
  <time>2026-09-02T22:13:09Z</time>
  <course>0.0</course>
  <speed>0.0</speed>
  <fix>3d</fix>
</trkpt>
<trkpt lat="33.810313" lon="-118.393867">
  <ele>-0.126</ele>
  <time>2026-09-02T22:13:09Z</time>
  <course>188.55</course>
  <speed>0.0</speed>
  <fix>3d</fix>
</trkpt>
<trkpt lat="33.810313" lon="-118.393867">
  <ele>-0.13</ele>
  <time>2026-09-02T22:13:09Z</time>
  <course>0.0</course>
  <speed>0.0</speed>
  <fix>3d</fix>
</trkpt>
<trkpt lat="33.810313" lon="-118.393867">
  <ele>-0.124</ele>
  <time>2026-09-02T22:13:09Z</time>
  <course>188.56</course>
  <speed>0.0</speed>
  <fix>3d</fix>
</trkpt>
<trkpt lat="33.810313" lon="-118.393867">
  <ele>-0.13</ele>
  <time>2026-09-02T22:13:09Z</time>
  <course>0.0</course>
  <speed>0.0</speed>
  <fix>3d</fix>
</trkpt>
<trkpt lat="33.810313" lon="-118.393867">
  <ele>-0.123</ele>
  <time>2026-09-02T22:13:09Z</time>
  <course>188.56</course>
  <speed>0.0</speed>
  <fix>3d</fix>
</trkpt>
<trkpt lat="33.810313" lon="-118.393867">
  <ele>-0.13</ele>
  <time>2026-09-02T22:13:09Z</time>
  <course>0.0</course>
  <speed>0.0</speed>
  <fix>3d</fix>
</trkpt>
<trkpt lat="33.810313" lon="-118.393867">
  <ele>-0.121</ele>
  <time>2026-09-02T22:13:09Z</time>
  <course>188.56</course>
  <speed>0.0</speed>
  <fix>3d</fix>
</trkpt>
<trkpt lat="33.810313" lon="-118.393867">
  <ele>-0.12</ele>
  <time>2026-09-02T22:13:09Z</time>
  <course>0.0</course>
  <speed>0.0</speed>
  <fix>3d</fix>
</trkpt>
<trkpt lat="33.810313" lon="-118.393867">
  <ele>-0.12</ele>
  <time>2026-09-02T22:13:09Z</time>
  <course>188.56</course>
  <speed>0.0</speed>
  <fix>3d</fix>
</trkpt>
<trkpt lat="33.810313" lon="-118.393867">
  <ele>-0.12</ele>
  <time>2026-09-02T22:13:09Z</time>
  <course>0.0</course>
  <speed>0.0</speed>
  <fix>3d</fix>
</trkpt>
<trkpt lat="33.810313" lon="-118.393867">
  <ele>-0.119</ele>
  <time>2026-09-02T22:13:09Z</time>
  <course>188.56</course>
  <speed>0.0</speed>
  <fix>3d</fix>
</trkpt>
<trkpt lat="33.810313" lon="-118.393867">
  <ele>-0.12</ele>
  <time>2026-09-02T22:13:09Z</time>
  <course>0.0</course>
  <speed>0.0</speed>
  <fix>3d</fix>
</trkpt>
<trkpt lat="33.810313" lon="-118.393867">
  <ele>-0.12</ele>
  <time>2026-09-02T22:13:09Z</time>
  <course>188.56</course>
  <speed>0.0</speed>
  <fix>3d</fix>
</trkpt>
<trkpt lat="33.810313" lon="-118.393867">
  <ele>-0.12</ele>
  <time>2026-09-02T22:13:09Z</time>
  <course>0.0</course>
  <speed>0.0</speed>
  <fix>3d</fix>
</trkpt>
<trkpt lat="33.810313" lon="-118.393867">
  <ele>-0.124</ele>
  <time>2026-09-02T22:13:09Z</time>
  <course>188.55</course>
  <speed>0.0</speed>
  <fix>3d</fix>
</trkpt>
<trkpt lat="33.810313" lon="-118.393867">
  <ele>-0.12</ele>
  <time>2026-09-02T22:13:09Z</time>
  <course>0.0</course>
  <speed>0.0</speed>
  <fix>3d</fix>
</trkpt>
<trkpt lat="33.810313" lon="-118.393867">
  <ele>-0.127</ele>
  <time>2026-09-02T22:13:09Z</time>
  <course>188.55</course>
  <speed>0.0</speed>
  <fix>3d</fix>
</trkpt>
<trkpt lat="33.810313" lon="-118.393867">
  <ele>-0.12</ele>
  <time>2026-09-02T22:13:09Z</time>
  <course>0.0</course>
  <speed>0.0</speed>
  <fix>3d</fix>
</trkpt>
<trkpt lat="33.810313" lon="-118.393867">
  <ele>-0.13</ele>
  <time>2026-09-02T22:13:09Z</time>
  <course>188.55</course>
  <speed>0.0</speed>
  <fix>3d</fix>
</trkpt>
<trkpt lat="33.810313" lon="-118.393867">
  <ele>-0.12</ele>
  <time>2026-09-02T22:13:09Z</time>
  <course>0.0</course>
  <speed>0.0</speed>
  <fix>3d</fix>
</trkpt>
<trkpt lat="33.810313" lon="-118.393867">
  <ele>-0.132</ele>
  <time>2026-09-02T22:13:09Z</time>
  <course>188.55</course>
  <speed>0.0</speed>
  <fix>3d</fix>
</trkpt>
<trkpt lat="33.810313" lon="-118.393867">
  <ele>-0.12</ele>
  <time>2026-09-02T22:13:09Z</time>
  <course>0.0</course>
  <speed>0.0</speed>
  <fix>3d</fix>
</trkpt>
<trkpt lat="33.810313" lon="-118.393867">
  <ele>-0.132</ele>
  <time>2026-09-02T22:13:09Z</time>
  <course>188.55</course>
  <speed>0.0</speed>
  <fix>3d</fix>
</trkpt>
<trkpt lat="33.810313" lon="-118.393867">
  <ele>-0.12</ele>
  <time>2026-09-02T22:13:09Z</time>
  <course>0.0</course>
  <speed>0.0</speed>
  <fix>3d</fix>
</trkpt>
<trkpt lat="33.810313" lon="-118.393867">
  <ele>-0.132</ele>
  <time>2026-09-02T22:13:09Z</time>
  <course>188.55</course>
  <speed>0.0</speed>
  <fix>3d</fix>
</trkpt>
<trkpt lat="33.810313" lon="-118.393867">
  <ele>-0.12</ele>
  <time>2026-09-02T22:13:09Z</time>
  <course>0.0</course>
  <speed>0.0</speed>
  <fix>3d</fix>
</trkpt>
<trkpt lat="33.810313" lon="-118.393867">
  <ele>-0.132</ele>
  <time>2026-09-02T22:13:09Z</time>
  <course>188.55</course>
  <speed>0.0</speed>
  <fix>3d</fix>
</trkpt>
<trkpt lat="33.810313" lon="-118.393867">
  <ele>-0.12</ele>
  <time>2026-09-02T22:13:09Z</time>
  <course>0.0</course>
  <speed>0.0</speed>
  <fix>3d</fix>
</trkpt>
<trkpt lat="33.810313" lon="-118.393867">
  <ele>-0.131</ele>
  <time>2026-09-02T22:13:09Z</time>
  <course>188.55</course>
  <speed>0.0</speed>
  <fix>3d</fix>
</trkpt>
<trkpt lat="33.810313" lon="-118.393867">
  <ele>-0.12</ele>
  <time>2026-09-02T22:13:09Z</time>
  <course>0.0</course>
  <speed>0.0</speed>
  <fix>3d</fix>
</trkpt>
<trkpt lat="33.810313" lon="-118.393867">
  <ele>-0.129</ele>
  <time>2026-09-02T22:13:09Z</time>
  <course>188.54</course>
  <speed>0.0</speed>
  <fix>3d</fix>
</trkpt>
<trkpt lat="33.810313" lon="-118.393867">
  <ele>-0.13</ele>
  <time>2026-09-02T22:13:09Z</time>
  <course>0.0</course>
  <speed>0.0</speed>
  <fix>3d</fix>
</trkpt>
<trkpt lat="33.810313" lon="-118.393867">
  <ele>-0.128</ele>
  <time>2026-09-02T22:13:09Z</time>
  <course>188.54</course>
  <speed>0.0</speed>
  <fix>3d</fix>
</trkpt>
<trkpt lat="33.810313" lon="-118.393867">
  <ele>-0.13</ele>
  <time>2026-09-02T22:13:09Z</time>
  <course>0.0</course>
  <speed>0.0</speed>
  <fix>3d</fix>
</trkpt>
<trkpt lat="33.810313" lon="-118.393867">
  <ele>-0.125</ele>
  <time>2026-09-02T22:13:09Z</time>
  <course>188.53</course>
  <speed>0.0</speed>
  <fix>3d</fix>
</trkpt>
<trkpt lat="33.810313" lon="-118.393867">
  <ele>-0.12</ele>
  <time>2026-09-02T22:13:09Z</time>
  <course>0.0</course>
  <speed>0.0</speed>
  <fix>3d</fix>
</trkpt>
<trkpt lat="33.810313" lon="-118.393867">
  <ele>-0.123</ele>
  <time>2026-09-02T22:13:09Z</time>
  <course>188.53</course>
  <speed>0.0</speed>
  <fix>3d</fix>
</trkpt>
<trkpt lat="33.810313" lon="-118.393867">
  <ele>-0.12</ele>
  <time>2026-09-02T22:13:09Z</time>
  <course>0.0</course>
  <speed>0.0</speed>
  <fix>3d</fix>
</trkpt>
<trkpt lat="33.810313" lon="-118.393867">
  <ele>-0.121</ele>
  <time>2026-09-02T22:13:09Z</time>
  <course>188.52</course>
  <speed>0.0</speed>
  <fix>3d</fix>
</trkpt>
<trkpt lat="33.810313" lon="-118.393867">
  <ele>-0.12</ele>
  <time>2026-09-02T22:13:09Z</time>
  <course>0.0</course>
  <speed>0.0</speed>
  <fix>3d</fix>
</trkpt>
<trkpt lat="33.810313" lon="-118.393867">
  <ele>-0.121</ele>
  <time>2026-09-02T22:13:09Z</time>
  <course>188.52</course>
  <speed>0.0</speed>
  <fix>3d</fix>
</trkpt>
<trkpt lat="33.810313" lon="-118.393867">
  <ele>-0.12</ele>
  <time>2026-09-02T22:13:09Z</time>
  <course>0.0</course>
  <speed>0.0</speed>
  <fix>3d</fix>
</trkpt>
<trkpt lat="33.810313" lon="-118.393867">
  <ele>-0.122</ele>
  <time>2026-09-02T22:13:09Z</time>
  <course>188.51</course>
  <speed>0.0</speed>
  <fix>3d</fix>
</trkpt>
<trkpt lat="33.810313" lon="-118.393867">
  <ele>-0.12</ele>
  <time>2026-09-02T22:13:09Z</time>
  <course>0.0</course>
  <speed>0.0</speed>
  <fix>3d</fix>
</trkpt>
<trkpt lat="33.810313" lon="-118.393867">
  <ele>-0.123</ele>
  <time>2026-09-02T22:13:09Z</time>
  <course>188.51</course>
  <speed>0.0</speed>
  <fix>3d</fix>
</trkpt>
<trkpt lat="33.810313" lon="-118.393867">
  <ele>-0.12</ele>
  <time>2026-09-02T22:13:09Z</time>
  <course>0.0</course>
  <speed>0.0</speed>
  <fix>3d</fix>
</trkpt>
<trkpt lat="33.810313" lon="-118.393867">
  <ele>-0.126</ele>
  <time>2026-09-02T22:13:09Z</time>
  <course>188.5</course>
  <speed>0.0</speed>
  <fix>3d</fix>
</trkpt>
<trkpt lat="33.810313" lon="-118.393867">
  <ele>-0.12</ele>
  <time>2026-09-02T22:13:09Z</time>
  <course>0.0</course>
  <speed>0.0</speed>
  <fix>3d</fix>
</trkpt>
<trkpt lat="33.810313" lon="-118.393867">
  <ele>-0.127</ele>
  <time>2026-09-02T22:13:09Z</time>
  <course>188.5</course>
  <speed>0.0</speed>
  <fix>3d</fix>
</trkpt>
<trkpt lat="33.810313" lon="-118.393867">
  <ele>-0.12</ele>
  <time>2026-09-02T22:13:09Z</time>
  <course>0.0</course>
  <speed>0.0</speed>
  <fix>3d</fix>
</trkpt>
<trkpt lat="33.810313" lon="-118.393867">
  <ele>-0.128</ele>
  <time>2026-09-02T22:13:09Z</time>
  <course>188.49</course>
  <speed>0.0</speed>
  <fix>3d</fix>
</trkpt>
<trkpt lat="33.810313" lon="-118.393867">
  <ele>-0.12</ele>
  <time>2026-09-02T22:13:09Z</time>
  <course>0.0</course>
  <speed>0.0</speed>
  <fix>3d</fix>
</trkpt>
<trkpt lat="33.810313" lon="-118.393867">
  <ele>-0.127</ele>
  <time>2026-09-02T22:13:09Z</time>
  <course>188.48</course>
  <speed>0.0</speed>
  <fix>3d</fix>
</trkpt>
<trkpt lat="33.810313" lon="-118.393867">
  <ele>-0.12</ele>
  <time>2026-09-02T22:13:09Z</time>
  <course>0.0</course>
  <speed>0.0</speed>
  <fix>3d</fix>
</trkpt>
<trkpt lat="33.810313" lon="-118.393867">
  <ele>-0.127</ele>
  <time>2026-09-02T22:13:09Z</time>
  <course>188.48</course>
  <speed>0.0</speed>
  <fix>3d</fix>
</trkpt>
<trkpt lat="33.810313" lon="-118.393867">
  <ele>-0.12</ele>
  <time>2026-09-02T22:13:09Z</time>
  <course>0.0</course>
  <speed>0.0</speed>
  <fix>3d</fix>
</trkpt>
<trkpt lat="33.810313" lon="-118.393867">
  <ele>-0.127</ele>
  <time>2026-09-02T22:13:09Z</time>
  <course>188.47</course>
  <speed>0.01</speed>
  <fix>3d</fix>
</trkpt>
<trkpt lat="33.810313" lon="-118.393867">
  <ele>-0.12</ele>
  <time>2026-09-02T22:13:09Z</time>
  <course>0.0</course>
  <speed>0.0</speed>
  <fix>3d</fix>
</trkpt>
<trkpt lat="33.810313" lon="-118.393867">
  <ele>-0.127</ele>
  <time>2026-09-02T22:13:09Z</time>
  <course>188.47</course>
  <speed>0.01</speed>
  <fix>3d</fix>
</trkpt>
<trkpt lat="33.810313" lon="-118.393867">
  <ele>-0.12</ele>
  <time>2026-09-02T22:13:09Z</time>
  <course>0.0</course>
  <speed>0.0</speed>
  <fix>3d</fix>
</trkpt>
<trkpt lat="33.810313" lon="-118.393867">
  <ele>-0.126</ele>
  <time>2026-09-02T22:13:09Z</time>
  <course>188.46</course>
  <speed>0.01</speed>
  <fix>3d</fix>
</trkpt>
<trkpt lat="33.810313" lon="-118.393867">
  <ele>-0.12</ele>
  <time>2026-09-02T22:13:09Z</time>
  <course>0.0</course>
  <speed>0.0</speed>
  <fix>3d</fix>
</trkpt>
<trkpt lat="33.810313" lon="-118.393867">
  <ele>-0.126</ele>
  <time>2026-09-02T22:13:09Z</time>
  <course>188.45</course>
  <speed>0.01</speed>
  <fix>3d</fix>
</trkpt>
<trkpt lat="33.810313" lon="-118.393867">
  <ele>-0.12</ele>
  <time>2026-09-02T22:13:09Z</time>
  <course>0.0</course>
  <speed>0.0</speed>
  <fix>3d</fix>
</trkpt>
<trkpt lat="33.810313" lon="-118.393867">
  <ele>-0.126</ele>
  <time>2026-09-02T22:13:09Z</time>
  <course>188.45</course>
  <speed>0.01</speed>
  <fix>3d</fix>
</trkpt>
<trkpt lat="33.810313" lon="-118.393867">
  <ele>-0.12</ele>
  <time>2026-09-02T22:13:09Z</time>
  <course>0.0</course>
  <speed>0.0</speed>
  <fix>3d</fix>
</trkpt>
<trkpt lat="33.810313" lon="-118.393867">
  <ele>-0.125</ele>
  <time>2026-09-02T22:13:09Z</time>
  <course>188.44</course>
  <speed>0.01</speed>
  <fix>3d</fix>
</trkpt>
<trkpt lat="33.810313" lon="-118.393867">
  <ele>-0.12</ele>
  <time>2026-09-02T22:13:09Z</time>
  <course>0.0</course>
  <speed>0.0</speed>
  <fix>3d</fix>
</trkpt>
<trkpt lat="33.810313" lon="-118.393867">
  <ele>-0.126</ele>
  <time>2026-09-02T22:13:09Z</time>
  <course>188.43</course>
  <speed>0.01</speed>
  <fix>3d</fix>
</trkpt>
<trkpt lat="33.810313" lon="-118.393867">
  <ele>-0.12</ele>
  <time>2026-09-02T22:13:09Z</time>
  <course>0.0</course>
  <speed>0.0</speed>
  <fix>3d</fix>
</trkpt>
<trkpt lat="33.810313" lon="-118.393867">
  <ele>-0.127</ele>
  <time>2026-09-02T22:13:09Z</time>
  <course>188.42</course>
  <speed>0.01</speed>
  <fix>3d</fix>
</trkpt>
<trkpt lat="33.810313" lon="-118.393867">
  <ele>-0.12</ele>
  <time>2026-09-02T22:13:09Z</time>
  <course>0.0</course>
  <speed>0.0</speed>
  <fix>3d</fix>
</trkpt>
<trkpt lat="33.810313" lon="-118.393867">
  <ele>-0.128</ele>
  <time>2026-09-02T22:13:09Z</time>
  <course>188.42</course>
  <speed>0.01</speed>
  <fix>3d</fix>
</trkpt>
<trkpt lat="33.810313" lon="-118.393867">
  <ele>-0.12</ele>
  <time>2026-09-02T22:13:09Z</time>
  <course>0.0</course>
  <speed>0.0</speed>
  <fix>3d</fix>
</trkpt>
<trkpt lat="33.810313" lon="-118.393867">
  <ele>-0.129</ele>
  <time>2026-09-02T22:13:09Z</time>
  <course>188.41</course>
  <speed>0.01</speed>
  <fix>3d</fix>
</trkpt>
<trkpt lat="33.810313" lon="-118.393867">
  <ele>-0.12</ele>
  <time>2026-09-02T22:13:09Z</time>
  <course>0.0</course>
  <speed>0.0</speed>
  <fix>3d</fix>
</trkpt>
<trkpt lat="33.810313" lon="-118.393867">
  <ele>-0.129</ele>
  <time>2026-09-02T22:13:09Z</time>
  <course>188.4</course>
  <speed>0.01</speed>
  <fix>3d</fix>
</trkpt>
<trkpt lat="33.810313" lon="-118.393867">
  <ele>-0.12</ele>
  <time>2026-09-02T22:13:09Z</time>
  <course>0.0</course>
  <speed>0.0</speed>
  <fix>3d</fix>
</trkpt>
<trkpt lat="33.810313" lon="-118.393867">
  <ele>-0.13</ele>
  <time>2026-09-02T22:13:09Z</time>
  <course>188.4</course>
  <speed>0.01414213562373095</speed>
  <fix>3d</fix>
</trkpt>
<trkpt lat="33.810313" lon="-118.393867">
  <ele>-0.12</ele>
  <time>2026-09-02T22:13:09Z</time>
  <course>0.0</course>
  <speed>0.0</speed>
  <fix>3d</fix>
</trkpt>
<trkpt lat="33.810313" lon="-118.393867">
  <ele>-0.13</ele>
  <time>2026-09-02T22:13:09Z</time>
  <course>188.39</course>
  <speed>0.01414213562373095</speed>
  <fix>3d</fix>
</trkpt>
<trkpt lat="33.810313" lon="-118.393867">
  <ele>-0.12</ele>
  <time>2026-09-02T22:13:09Z</time>
  <course>0.0</course>
  <speed>0.0</speed>
  <fix>3d</fix>
</trkpt>
<trkpt lat="33.810313" lon="-118.393867">
  <ele>-0.13</ele>
  <time>2026-09-02T22:13:09Z</time>
  <course>188.38</course>
  <speed>0.01414213562373095</speed>
  <fix>3d</fix>
</trkpt>
<trkpt lat="33.810313" lon="-118.393867">
  <ele>-0.12</ele>
  <time>2026-09-02T22:13:09Z</time>
  <course>0.0</course>
  <speed>0.0</speed>
  <fix>3d</fix>
</trkpt>
<trkpt lat="33.810313" lon="-118.393867">
  <ele>-0.129</ele>
  <time>2026-09-02T22:13:09Z</time>
  <course>188.37</course>
  <speed>0.01414213562373095</speed>
  <fix>3d</fix>
</trkpt>
<trkpt lat="33.810313" lon="-118.393867">
  <ele>-0.12</ele>
  <time>2026-09-02T22:13:09Z</time>
  <course>0.0</course>
  <speed>0.0</speed>
  <fix>3d</fix>
</trkpt>
<trkpt lat="33.810313" lon="-118.393867">
  <ele>-0.128</ele>
  <time>2026-09-02T22:13:09Z</time>
  <course>188.36</course>
  <speed>0.01414213562373095</speed>
  <fix>3d</fix>
</trkpt>
<trkpt lat="33.810313" lon="-118.393867">
  <ele>-0.12</ele>
  <time>2026-09-02T22:13:09Z</time>
  <course>0.0</course>
  <speed>0.0</speed>
  <fix>3d</fix>
</trkpt>
<trkpt lat="33.810313" lon="-118.393867">
  <ele>-0.126</ele>
  <time>2026-09-02T22:13:09Z</time>
  <course>188.36</course>
  <speed>0.01414213562373095</speed>
  <fix>3d</fix>
</trkpt>
<trkpt lat="33.810313" lon="-118.393867">
  <ele>-0.12</ele>
  <time>2026-09-02T22:13:09Z</time>
  <course>0.0</course>
  <speed>0.0</speed>
  <fix>3d</fix>
</trkpt>
<trkpt lat="33.810313" lon="-118.393867">
  <ele>-0.123</ele>
  <time>2026-09-02T22:13:09Z</time>
  <course>188.35</course>
  <speed>0.01414213562373095</speed>
  <fix>3d</fix>
</trkpt>
<trkpt lat="33.810313" lon="-118.393867">
  <ele>-0.12</ele>
  <time>2026-09-02T22:13:09Z</time>
  <course>0.0</course>
  <speed>0.0</speed>
  <fix>3d</fix>
</trkpt>
<trkpt lat="33.810313" lon="-118.393867">
  <ele>-0.122</ele>
  <time>2026-09-02T22:13:09Z</time>
  <course>188.34</course>
  <speed>0.01414213562373095</speed>
  <fix>3d</fix>
</trkpt>
<trkpt lat="33.810313" lon="-118.393867">
  <ele>-0.12</ele>
  <time>2026-09-02T22:13:09Z</time>
  <course>0.0</course>
  <speed>0.0</speed>
  <fix>3d</fix>
</trkpt>
<trkpt lat="33.810313" lon="-118.393867">
  <ele>-0.123</ele>
  <time>2026-09-02T22:13:09Z</time>
  <course>188.33</course>
  <speed>0.01414213562373095</speed>
  <fix>3d</fix>
</trkpt>
<trkpt lat="33.810313" lon="-118.393867">
  <ele>-0.12</ele>
  <time>2026-09-02T22:13:09Z</time>
  <course>0.0</course>
  <speed>0.0</speed>
  <fix>3d</fix>
</trkpt>
<trkpt lat="33.810313" lon="-118.393867">
  <ele>-0.125</ele>
  <time>2026-09-02T22:13:09Z</time>
  <course>188.33</course>
  <speed>0.01414213562373095</speed>
  <fix>3d</fix>
</trkpt>
<trkpt lat="33.810313" lon="-118.393867">
  <ele>-0.12</ele>
  <time>2026-09-02T22:13:09Z</time>
  <course>0.0</course>
  <speed>0.0</speed>
  <fix>3d</fix>
</trkpt>
<trkpt lat="33.810313" lon="-118.393867">
  <ele>-0.128</ele>
  <time>2026-09-02T22:13:09Z</time>
  <course>188.32</course>
  <speed>0.01414213562373095</speed>
  <fix>3d</fix>
</trkpt>
<trkpt lat="33.810313" lon="-118.393867">
  <ele>-0.12</ele>
  <time>2026-09-02T22:13:09Z</time>
  <course>0.0</course>
  <speed>0.0</speed>
  <fix>3d</fix>
</trkpt>
<trkpt lat="33.810313" lon="-118.393867">
  <ele>-0.132</ele>
  <time>2026-09-02T22:13:09Z</time>
  <course>188.31</course>
  <speed>0.01414213562373095</speed>
  <fix>3d</fix>
</trkpt>
<trkpt lat="33.810313" lon="-118.393867">
  <ele>-0.12</ele>
  <time>2026-09-02T22:13:09Z</time>
  <course>0.0</course>
  <speed>0.0</speed>
  <fix>3d</fix>
</trkpt>
<trkpt lat="33.810313" lon="-118.393867">
  <ele>-0.135</ele>
  <time>2026-09-02T22:13:09Z</time>
  <course>188.3</course>
  <speed>0.01414213562373095</speed>
  <fix>3d</fix>
</trkpt>
<trkpt lat="33.810313" lon="-118.393867">
  <ele>-0.12</ele>
  <time>2026-09-02T22:13:09Z</time>
  <course>0.0</course>
  <speed>0.0</speed>
  <fix>3d</fix>
</trkpt>
<trkpt lat="33.810313" lon="-118.393867">
  <ele>-0.135</ele>
  <time>2026-09-02T22:13:09Z</time>
  <course>188.3</course>
  <speed>0.01414213562373095</speed>
  <fix>3d</fix>
</trkpt>
<trkpt lat="33.810313" lon="-118.393867">
  <ele>-0.12</ele>
  <time>2026-09-02T22:13:09Z</time>
  <course>0.0</course>
  <speed>0.0</speed>
  <fix>3d</fix>
</trkpt>
<trkpt lat="33.810313" lon="-118.393867">
  <ele>-0.134</ele>
  <time>2026-09-02T22:13:09Z</time>
  <course>188.29</course>
  <speed>0.01414213562373095</speed>
  <fix>3d</fix>
</trkpt>
<trkpt lat="33.810313" lon="-118.393867">
  <ele>-0.12</ele>
  <time>2026-09-02T22:13:09Z</time>
  <course>0.0</course>
  <speed>0.0</speed>
  <fix>3d</fix>
</trkpt>
<trkpt lat="33.810313" lon="-118.393867">
  <ele>-0.132</ele>
  <time>2026-09-02T22:13:09Z</time>
  <course>188.28</course>
  <speed>0.01414213562373095</speed>
  <fix>3d</fix>
</trkpt>
<trkpt lat="33.810313" lon="-118.393867">
  <ele>-0.12</ele>
  <time>2026-09-02T22:13:09Z</time>
  <course>0.0</course>
  <speed>0.0</speed>
  <fix>3d</fix>
</trkpt>
<trkpt lat="33.810313" lon="-118.393867">
  <ele>-0.129</ele>
  <time>2026-09-02T22:13:09Z</time>
  <course>188.27</course>
  <speed>0.01414213562373095</speed>
  <fix>3d</fix>
</trkpt>
<trkpt lat="33.810313" lon="-118.393867">
  <ele>-0.12</ele>
  <time>2026-09-02T22:13:09Z</time>
  <course>0.0</course>
  <speed>0.0</speed>
  <fix>3d</fix>
</trkpt>
<trkpt lat="33.810313" lon="-118.393867">
  <ele>-0.127</ele>
  <time>2026-09-02T22:13:09Z</time>
  <course>188.26</course>
  <speed>0.01414213562373095</speed>
  <fix>3d</fix>
</trkpt>
<trkpt lat="33.810313" lon="-118.393867">
  <ele>-0.12</ele>
  <time>2026-09-02T22:13:09Z</time>
  <course>0.0</course>
  <speed>0.0</speed>
  <fix>3d</fix>
</trkpt>
<trkpt lat="33.810313" lon="-118.393867">
  <ele>-0.124</ele>
  <time>2026-09-02T22:13:09Z</time>
  <course>188.25</course>
  <speed>0.01414213562373095</speed>
  <fix>3d</fix>
</trkpt>
<trkpt lat="33.810313" lon="-118.393867">
  <ele>-0.12</ele>
  <time>2026-09-02T22:13:09Z</time>
  <course>0.0</course>
  <speed>0.0</speed>
  <fix>3d</fix>
</trkpt>
<trkpt lat="33.810313" lon="-118.393867">
  <ele>-0.123</ele>
  <time>2026-09-02T22:13:09Z</time>
  <course>188.25</course>
  <speed>0.01414213562373095</speed>
  <fix>3d</fix>
</trkpt>
<trkpt lat="33.810313" lon="-118.393867">
  <ele>-0.12</ele>
  <time>2026-09-02T22:13:09Z</time>
  <course>0.0</course>
  <speed>0.0</speed>
  <fix>3d</fix>
</trkpt>
<trkpt lat="33.810313" lon="-118.393867">
  <ele>-0.124</ele>
  <time>2026-09-02T22:13:09Z</time>
  <course>188.24</course>
  <speed>0.01414213562373095</speed>
  <fix>3d</fix>
</trkpt>
<trkpt lat="33.810313" lon="-118.393867">
  <ele>-0.12</ele>
  <time>2026-09-02T22:13:09Z</time>
  <course>0.0</course>
  <speed>0.0</speed>
  <fix>3d</fix>
</trkpt>
<trkpt lat="33.810313" lon="-118.393867">
  <ele>-0.126</ele>
  <time>2026-09-02T22:13:09Z</time>
  <course>188.23</course>
  <speed>0.01414213562373095</speed>
  <fix>3d</fix>
</trkpt>
<trkpt lat="33.810313" lon="-118.393867">
  <ele>-0.12</ele>
  <time>2026-09-02T22:13:09Z</time>
  <course>0.0</course>
  <speed>0.0</speed>
  <fix>3d</fix>
</trkpt>
<trkpt lat="33.810313" lon="-118.393867">
  <ele>-0.127</ele>
  <time>2026-09-02T22:13:09Z</time>
  <course>188.22</course>
  <speed>0.01414213562373095</speed>
  <fix>3d</fix>
</trkpt>
<trkpt lat="33.810313" lon="-118.393867">
  <ele>-0.12</ele>
  <time>2026-09-02T22:13:09Z</time>
  <course>0.0</course>
  <speed>0.0</speed>
  <fix>3d</fix>
</trkpt>
<trkpt lat="33.810313" lon="-118.393867">
  <ele>-0.129</ele>
  <time>2026-09-02T22:13:09Z</time>
  <course>188.21</course>
  <speed>0.01414213562373095</speed>
  <fix>3d</fix>
</trkpt>
<trkpt lat="33.810313" lon="-118.393867">
  <ele>-0.12</ele>
  <time>2026-09-02T22:13:09Z</time>
  <course>0.0</course>
  <speed>0.0</speed>
  <fix>3d</fix>
</trkpt>
<trkpt lat="33.810313" lon="-118.393867">
  <ele>-0.129</ele>
  <time>2026-09-02T22:13:09Z</time>
  <course>188.2</course>
  <speed>0.01414213562373095</speed>
  <fix>3d</fix>
</trkpt>
<trkpt lat="33.810313" lon="-118.393867">
  <ele>-0.12</ele>
  <time>2026-09-02T22:13:09Z</time>
  <course>0.0</course>
  <speed>0.0</speed>
  <fix>3d</fix>
</trkpt>
<trkpt lat="33.810313" lon="-118.393867">
  <ele>-0.129</ele>
  <time>2026-09-02T22:13:09Z</time>
  <course>188.2</course>
  <speed>0.01414213562373095</speed>
  <fix>3d</fix>
</trkpt>
<trkpt lat="33.810313" lon="-118.393867">
  <ele>-0.12</ele>
  <time>2026-09-02T22:13:09Z</time>
  <course>0.0</course>
  <speed>0.0</speed>
  <fix>3d</fix>
</trkpt>
<trkpt lat="33.810313" lon="-118.393867">
  <ele>-0.128</ele>
  <time>2026-09-02T22:13:09Z</time>
  <course>188.19</course>
  <speed>0.01414213562373095</speed>
  <fix>3d</fix>
</trkpt>
<trkpt lat="33.810313" lon="-118.393867">
  <ele>-0.12</ele>
  <time>2026-09-02T22:13:09Z</time>
  <course>0.0</course>
  <speed>0.0</speed>
  <fix>3d</fix>
</trkpt>
<trkpt lat="33.810313" lon="-118.393867">
  <ele>-0.128</ele>
  <time>2026-09-02T22:13:09Z</time>
  <course>188.18</course>
  <speed>0.01414213562373095</speed>
  <fix>3d</fix>
</trkpt>
<trkpt lat="33.810313" lon="-118.393867">
  <ele>-0.12</ele>
  <time>2026-09-02T22:13:09Z</time>
  <course>0.0</course>
  <speed>0.0</speed>
  <fix>3d</fix>
</trkpt>
<trkpt lat="33.810313" lon="-118.393867">
  <ele>-0.127</ele>
  <time>2026-09-02T22:13:09Z</time>
  <course>188.17</course>
  <speed>0.01414213562373095</speed>
  <fix>3d</fix>
</trkpt>
<trkpt lat="33.810313" lon="-118.393867">
  <ele>-0.12</ele>
  <time>2026-09-02T22:13:09Z</time>
  <course>0.0</course>
  <speed>0.0</speed>
  <fix>3d</fix>
</trkpt>
<trkpt lat="33.810313" lon="-118.393867">
  <ele>-0.127</ele>
  <time>2026-09-02T22:13:09Z</time>
  <course>188.16</course>
  <speed>0.01414213562373095</speed>
  <fix>3d</fix>
</trkpt>
<trkpt lat="33.810313" lon="-118.393867">
  <ele>-0.12</ele>
  <time>2026-09-02T22:13:09Z</time>
  <course>0.0</course>
  <speed>0.0</speed>
  <fix>3d</fix>
</trkpt>
<trkpt lat="33.810313" lon="-118.393867">
  <ele>-0.128</ele>
  <time>2026-09-02T22:13:09Z</time>
  <course>188.16</course>
  <speed>0.01414213562373095</speed>
  <fix>3d</fix>
</trkpt>
<trkpt lat="33.810313" lon="-118.393867">
  <ele>-0.12</ele>
  <time>2026-09-02T22:13:09Z</time>
  <course>0.0</course>
  <speed>0.0</speed>
  <fix>3d</fix>
</trkpt>
<trkpt lat="33.810313" lon="-118.393867">
  <ele>-0.129</ele>
  <time>2026-09-02T22:13:09Z</time>
  <course>188.15</course>
  <speed>0.01414213562373095</speed>
  <fix>3d</fix>
</trkpt>
<trkpt lat="33.810313" lon="-118.393867">
  <ele>-0.12</ele>
  <time>2026-09-02T22:13:09Z</time>
  <course>0.0</course>
  <speed>0.0</speed>
  <fix>3d</fix>
</trkpt>
<trkpt lat="33.810313" lon="-118.393867">
  <ele>-0.131</ele>
  <time>2026-09-02T22:13:09Z</time>
  <course>188.14</course>
  <speed>0.01414213562373095</speed>
  <fix>3d</fix>
</trkpt>
<trkpt lat="33.810313" lon="-118.393867">
  <ele>-0.12</ele>
  <time>2026-09-02T22:13:09Z</time>
  <course>0.0</course>
  <speed>0.0</speed>
  <fix>3d</fix>
</trkpt>
<trkpt lat="33.810313" lon="-118.393867">
  <ele>-0.133</ele>
  <time>2026-09-02T22:13:09Z</time>
  <course>188.13</course>
  <speed>0.01414213562373095</speed>
  <fix>3d</fix>
</trkpt>
<trkpt lat="33.810313" lon="-118.393867">
  <ele>-0.12</ele>
  <time>2026-09-02T22:13:09Z</time>
  <course>0.0</course>
  <speed>0.0</speed>
  <fix>3d</fix>
</trkpt>
<trkpt lat="33.810313" lon="-118.393867">
  <ele>-0.135</ele>
  <time>2026-09-02T22:13:09Z</time>
  <course>188.12</course>
  <speed>0.01414213562373095</speed>
  <fix>3d</fix>
</trkpt>
<trkpt lat="33.810313" lon="-118.393867">
  <ele>-0.12</ele>
  <time>2026-09-02T22:13:09Z</time>
  <course>0.0</course>
  <speed>0.0</speed>
  <fix>3d</fix>
</trkpt>
<trkpt lat="33.810313" lon="-118.393867">
  <ele>-0.136</ele>
  <time>2026-09-02T22:13:09Z</time>
  <course>188.12</course>
  <speed>0.01414213562373095</speed>
  <fix>3d</fix>
</trkpt>
<trkpt lat="33.810313" lon="-118.393867">
  <ele>-0.12</ele>
  <time>2026-09-02T22:13:09Z</time>
  <course>0.0</course>
  <speed>0.0</speed>
  <fix>3d</fix>
</trkpt>
<trkpt lat="33.810313" lon="-118.393867">
  <ele>-0.136</ele>
  <time>2026-09-02T22:13:09Z</time>
  <course>188.11</course>
  <speed>0.01414213562373095</speed>
  <fix>3d</fix>
</trkpt>
<trkpt lat="33.810313" lon="-118.393867">
  <ele>-0.12</ele>
  <time>2026-09-02T22:13:09Z</time>
  <course>0.0</course>
  <speed>0.0</speed>
  <fix>3d</fix>
</trkpt>
<trkpt lat="33.810313" lon="-118.393867">
  <ele>-0.136</ele>
  <time>2026-09-02T22:13:09Z</time>
  <course>188.1</course>
  <speed>0.01414213562373095</speed>
  <fix>3d</fix>
</trkpt>
<trkpt lat="33.810313" lon="-118.393867">
  <ele>-0.12</ele>
  <time>2026-09-02T22:13:09Z</time>
  <course>0.0</course>
  <speed>0.0</speed>
  <fix>3d</fix>
</trkpt>
<trkpt lat="33.810313" lon="-118.393867">
  <ele>-0.135</ele>
  <time>2026-09-02T22:13:09Z</time>
  <course>188.09</course>
  <speed>0.01414213562373095</speed>
  <fix>3d</fix>
</trkpt>
<trkpt lat="33.810313" lon="-118.393867">
  <ele>-0.12</ele>
  <time>2026-09-02T22:13:09Z</time>
  <course>0.0</course>
  <speed>0.0</speed>
  <fix>3d</fix>
</trkpt>
<trkpt lat="33.810313" lon="-118.393867">
  <ele>-0.133</ele>
  <time>2026-09-02T22:13:09Z</time>
  <course>188.08</course>
  <speed>0.01414213562373095</speed>
  <fix>3d</fix>
</trkpt>
<trkpt lat="33.810313" lon="-118.393867">
  <ele>-0.12</ele>
  <time>2026-09-02T22:13:09Z</time>
  <course>0.0</course>
  <speed>0.0</speed>
  <fix>3d</fix>
</trkpt>
<trkpt lat="33.810313" lon="-118.393867">
  <ele>-0.131</ele>
  <time>2026-09-02T22:13:09Z</time>
  <course>188.07</course>
  <speed>0.022360679774997897</speed>
  <fix>3d</fix>
</trkpt>
<trkpt lat="33.810313" lon="-118.393867">
  <ele>-0.12</ele>
  <time>2026-09-02T22:13:09Z</time>
  <course>0.0</course>
  <speed>0.0</speed>
  <fix>3d</fix>
</trkpt>
<trkpt lat="33.810313" lon="-118.393867">
  <ele>-0.128</ele>
  <time>2026-09-02T22:13:09Z</time>
  <course>188.07</course>
  <speed>0.022360679774997897</speed>
  <fix>3d</fix>
</trkpt>
<trkpt lat="33.810313" lon="-118.393867">
  <ele>-0.12</ele>
  <time>2026-09-02T22:13:09Z</time>
  <course>0.0</course>
  <speed>0.0</speed>
  <fix>3d</fix>
</trkpt>
<trkpt lat="33.810313" lon="-118.393867">
  <ele>-0.126</ele>
  <time>2026-09-02T22:13:09Z</time>
  <course>188.06</course>
  <speed>0.022360679774997897</speed>
  <fix>3d</fix>
</trkpt>
<trkpt lat="33.810313" lon="-118.393867">
  <ele>-0.12</ele>
  <time>2026-09-02T22:13:09Z</time>
  <course>0.0</course>
  <speed>0.0</speed>
  <fix>3d</fix>
</trkpt>
<trkpt lat="33.810313" lon="-118.393867">
  <ele>-0.126</ele>
  <time>2026-09-02T22:13:09Z</time>
  <course>188.05</course>
  <speed>0.022360679774997897</speed>
  <fix>3d</fix>
</trkpt>
<trkpt lat="33.810313" lon="-118.393867">
  <ele>-0.12</ele>
  <time>2026-09-02T22:13:09Z</time>
  <course>0.0</course>
  <speed>0.0</speed>
  <fix>3d</fix>
</trkpt>
<trkpt lat="33.810313" lon="-118.393867">
  <ele>-0.126</ele>
  <time>2026-09-02T22:13:09Z</time>
  <course>188.04</course>
  <speed>0.022360679774997897</speed>
  <fix>3d</fix>
</trkpt>
<trkpt lat="33.810313" lon="-118.393867">
  <ele>-0.12</ele>
  <time>2026-09-02T22:13:09Z</time>
  <course>0.0</course>
  <speed>0.0</speed>
  <fix>3d</fix>
</trkpt>
<trkpt lat="33.810313" lon="-118.393867">
  <ele>-0.127</ele>
  <time>2026-09-02T22:13:09Z</time>
  <course>188.03</course>
  <speed>0.022360679774997897</speed>
  <fix>3d</fix>
</trkpt>
<trkpt lat="33.810313" lon="-118.393867">
  <ele>-0.12</ele>
  <time>2026-09-02T22:13:09Z</time>
  <course>0.0</course>
  <speed>0.0</speed>
  <fix>3d</fix>
</trkpt>
<trkpt lat="33.810313" lon="-118.393867">
  <ele>-0.127</ele>
  <time>2026-09-02T22:13:09Z</time>
  <course>188.02</course>
  <speed>0.022360679774997897</speed>
  <fix>3d</fix>
</trkpt>
<trkpt lat="33.810313" lon="-118.393867">
  <ele>-0.12</ele>
  <time>2026-09-02T22:13:09Z</time>
  <course>0.0</course>
  <speed>0.0</speed>
  <fix>3d</fix>
</trkpt>
<trkpt lat="33.810313" lon="-118.393867">
  <ele>-0.127</ele>
  <time>2026-09-02T22:13:09Z</time>
  <course>188.02</course>
  <speed>0.022360679774997897</speed>
  <fix>3d</fix>
</trkpt>
<trkpt lat="33.810313" lon="-118.393867">
  <ele>-0.12</ele>
  <time>2026-09-02T22:13:09Z</time>
  <course>0.0</course>
  <speed>0.0</speed>
  <fix>3d</fix>
</trkpt>
<trkpt lat="33.810313" lon="-118.393867">
  <ele>-0.128</ele>
  <time>2026-09-02T22:13:09Z</time>
  <course>188.01</course>
  <speed>0.022360679774997897</speed>
  <fix>3d</fix>
</trkpt>
<trkpt lat="33.810313" lon="-118.393867">
  <ele>-0.12</ele>
  <time>2026-09-02T22:13:09Z</time>
  <course>0.0</course>
  <speed>0.0</speed>
  <fix>3d</fix>
</trkpt>
<trkpt lat="33.810313" lon="-118.393867">
  <ele>-0.128</ele>
  <time>2026-09-02T22:13:09Z</time>
  <course>188.0</course>
  <speed>0.022360679774997897</speed>
  <fix>3d</fix>
</trkpt>
<trkpt lat="33.810313" lon="-118.393867">
  <ele>-0.12</ele>
  <time>2026-09-02T22:13:09Z</time>
  <course>0.0</course>
  <speed>0.0</speed>
  <fix>3d</fix>
</trkpt>
<trkpt lat="33.810313" lon="-118.393867">
  <ele>-0.127</ele>
  <time>2026-09-02T22:13:09Z</time>
  <course>187.99</course>
  <speed>0.022360679774997897</speed>
  <fix>3d</fix>
</trkpt>
<trkpt lat="33.810313" lon="-118.393867">
  <ele>-0.12</ele>
  <time>2026-09-02T22:13:09Z</time>
  <course>0.0</course>
  <speed>0.0</speed>
  <fix>3d</fix>
</trkpt>
<trkpt lat="33.810313" lon="-118.393867">
  <ele>-0.126</ele>
  <time>2026-09-02T22:13:09Z</time>
  <course>187.98</course>
  <speed>0.022360679774997897</speed>
  <fix>3d</fix>
</trkpt>
<trkpt lat="33.810313" lon="-118.393867">
  <ele>-0.12</ele>
  <time>2026-09-02T22:13:09Z</time>
  <course>0.0</course>
  <speed>0.0</speed>
  <fix>3d</fix>
</trkpt>
<trkpt lat="33.810313" lon="-118.393867">
  <ele>-0.123</ele>
  <time>2026-09-02T22:13:09Z</time>
  <course>187.98</course>
  <speed>0.022360679774997897</speed>
  <fix>3d</fix>
</trkpt>
<trkpt lat="33.810313" lon="-118.393867">
  <ele>-0.12</ele>
  <time>2026-09-02T22:13:09Z</time>
  <course>0.0</course>
  <speed>0.0</speed>
  <fix>3d</fix>
</trkpt>
<trkpt lat="33.810313" lon="-118.393867">
  <ele>-0.121</ele>
  <time>2026-09-02T22:13:09Z</time>
  <course>187.97</course>
  <speed>0.022360679774997897</speed>
  <fix>3d</fix>
</trkpt>
<trkpt lat="33.810313" lon="-118.393867">
  <ele>-0.12</ele>
  <time>2026-09-02T22:13:09Z</time>
  <course>0.0</course>
  <speed>0.0</speed>
  <fix>3d</fix>
</trkpt>
<trkpt lat="33.810313" lon="-118.393867">
  <ele>-0.12</ele>
  <time>2026-09-02T22:13:09Z</time>
  <course>187.96</course>
  <speed>0.022360679774997897</speed>
  <fix>3d</fix>
</trkpt>
<trkpt lat="33.810313" lon="-118.393867">
  <ele>-0.12</ele>
  <time>2026-09-02T22:13:09Z</time>
  <course>0.0</course>
  <speed>0.0</speed>
  <fix>3d</fix>
</trkpt>
<trkpt lat="33.810313" lon="-118.393867">
  <ele>-0.12</ele>
  <time>2026-09-02T22:13:09Z</time>
  <course>187.95</course>
  <speed>0.022360679774997897</speed>
  <fix>3d</fix>
</trkpt>
<trkpt lat="33.810313" lon="-118.393867">
  <ele>-0.12</ele>
  <time>2026-09-02T22:13:09Z</time>
  <course>0.0</course>
  <speed>0.0</speed>
  <fix>3d</fix>
</trkpt>
<trkpt lat="33.810313" lon="-118.393867">
  <ele>-0.122</ele>
  <time>2026-09-02T22:13:09Z</time>
  <course>187.94</course>
  <speed>0.022360679774997897</speed>
  <fix>3d</fix>
</trkpt>
<trkpt lat="33.810313" lon="-118.393867">
  <ele>-0.12</ele>
  <time>2026-09-02T22:13:09Z</time>
  <course>0.0</course>
  <speed>0.0</speed>
  <fix>3d</fix>
</trkpt>
<trkpt lat="33.810313" lon="-118.393867">
  <ele>-0.125</ele>
  <time>2026-09-02T22:13:09Z</time>
  <course>187.94</course>
  <speed>0.022360679774997897</speed>
  <fix>3d</fix>
</trkpt>
<trkpt lat="33.810313" lon="-118.393867">
  <ele>-0.12</ele>
  <time>2026-09-02T22:13:09Z</time>
  <course>0.0</course>
  <speed>0.0</speed>
  <fix>3d</fix>
</trkpt>
<trkpt lat="33.810313" lon="-118.393867">
  <ele>-0.129</ele>
  <time>2026-09-02T22:13:09Z</time>
  <course>187.93</course>
  <speed>0.022360679774997897</speed>
  <fix>3d</fix>
</trkpt>
<trkpt lat="33.810313" lon="-118.393867">
  <ele>-0.12</ele>
  <time>2026-09-02T22:13:09Z</time>
  <course>0.0</course>
  <speed>0.0</speed>
  <fix>3d</fix>
</trkpt>
<trkpt lat="33.810313" lon="-118.393867">
  <ele>-0.131</ele>
  <time>2026-09-02T22:13:09Z</time>
  <course>187.92</course>
  <speed>0.022360679774997897</speed>
  <fix>3d</fix>
</trkpt>
<trkpt lat="33.810313" lon="-118.393867">
  <ele>-0.12</ele>
  <time>2026-09-02T22:13:09Z</time>
  <course>0.0</course>
  <speed>0.0</speed>
  <fix>3d</fix>
</trkpt>
<trkpt lat="33.810313" lon="-118.393867">
  <ele>-0.132</ele>
  <time>2026-09-02T22:13:09Z</time>
  <course>187.91</course>
  <speed>0.022360679774997897</speed>
  <fix>3d</fix>
</trkpt>
<trkpt lat="33.810313" lon="-118.393867">
  <ele>-0.12</ele>
  <time>2026-09-02T22:13:09Z</time>
  <course>0.0</course>
  <speed>0.0</speed>
  <fix>3d</fix>
</trkpt>
<trkpt lat="33.810313" lon="-118.393867">
  <ele>-0.132</ele>
  <time>2026-09-02T22:13:09Z</time>
  <course>187.9</course>
  <speed>0.022360679774997897</speed>
  <fix>3d</fix>
</trkpt>
<trkpt lat="33.810313" lon="-118.393867">
  <ele>-0.12</ele>
  <time>2026-09-02T22:13:09Z</time>
  <course>0.0</course>
  <speed>0.0</speed>
  <fix>3d</fix>
</trkpt>
<trkpt lat="33.810313" lon="-118.393867">
  <ele>-0.132</ele>
  <time>2026-09-02T22:13:09Z</time>
  <course>187.9</course>
  <speed>0.022360679774997897</speed>
  <fix>3d</fix>
</trkpt>
<trkpt lat="33.810313" lon="-118.393867">
  <ele>-0.12</ele>
  <time>2026-09-02T22:13:09Z</time>
  <course>0.0</course>
  <speed>0.0</speed>
  <fix>3d</fix>
</trkpt>
<trkpt lat="33.810313" lon="-118.393867">
  <ele>-0.13</ele>
  <time>2026-09-02T22:13:09Z</time>
  <course>187.89</course>
  <speed>0.022360679774997897</speed>
  <fix>3d</fix>
</trkpt>
<trkpt lat="33.810313" lon="-118.393867">
  <ele>-0.12</ele>
  <time>2026-09-02T22:13:09Z</time>
  <course>0.0</course>
  <speed>0.0</speed>
  <fix>3d</fix>
</trkpt>
<trkpt lat="33.810313" lon="-118.393867">
  <ele>-0.127</ele>
  <time>2026-09-02T22:13:09Z</time>
  <course>187.88</course>
  <speed>0.022360679774997897</speed>
  <fix>3d</fix>
</trkpt>
<trkpt lat="33.810313" lon="-118.393867">
  <ele>-0.12</ele>
  <time>2026-09-02T22:13:09Z</time>
  <course>0.0</course>
  <speed>0.0</speed>
  <fix>3d</fix>
</trkpt>
<trkpt lat="33.810313" lon="-118.393867">
  <ele>-0.123</ele>
  <time>2026-09-02T22:13:09Z</time>
  <course>187.87</course>
  <speed>0.022360679774997897</speed>
  <fix>3d</fix>
</trkpt>
<trkpt lat="33.810313" lon="-118.393867">
  <ele>-0.12</ele>
  <time>2026-09-02T22:13:09Z</time>
  <course>0.0</course>
  <speed>0.0</speed>
  <fix>3d</fix>
</trkpt>
<trkpt lat="33.810313" lon="-118.393867">
  <ele>-0.121</ele>
  <time>2026-09-02T22:13:09Z</time>
  <course>187.86</course>
  <speed>0.022360679774997897</speed>
  <fix>3d</fix>
</trkpt>
<trkpt lat="33.810313" lon="-118.393867">
  <ele>-0.12</ele>
  <time>2026-09-02T22:13:09Z</time>
  <course>0.0</course>
  <speed>0.0</speed>
  <fix>3d</fix>
</trkpt>
<trkpt lat="33.810313" lon="-118.393867">
  <ele>-0.121</ele>
  <time>2026-09-02T22:13:09Z</time>
  <course>187.86</course>
  <speed>0.022360679774997897</speed>
  <fix>3d</fix>
</trkpt>
<trkpt lat="33.810313" lon="-118.393867">
  <ele>-0.12</ele>
  <time>2026-09-02T22:13:09Z</time>
  <course>0.0</course>
  <speed>0.0</speed>
  <fix>3d</fix>
</trkpt>
<trkpt lat="33.810313" lon="-118.393867">
  <ele>-0.123</ele>
  <time>2026-09-02T22:13:09Z</time>
  <course>187.85</course>
  <speed>0.022360679774997897</speed>
  <fix>3d</fix>
</trkpt>
<trkpt lat="33.810313" lon="-118.393867">
  <ele>-0.12</ele>
  <time>2026-09-02T22:13:09Z</time>
  <course>0.0</course>
  <speed>0.0</speed>
  <fix>3d</fix>
</trkpt>
<trkpt lat="33.810313" lon="-118.393867">
  <ele>-0.124</ele>
  <time>2026-09-02T22:13:09Z</time>
  <course>187.84</course>
  <speed>0.022360679774997897</speed>
  <fix>3d</fix>
</trkpt>
<trkpt lat="33.810313" lon="-118.393867">
  <ele>-0.12</ele>
  <time>2026-09-02T22:13:09Z</time>
  <course>0.0</course>
  <speed>0.0</speed>
  <fix>3d</fix>
</trkpt>
<trkpt lat="33.810313" lon="-118.393867">
  <ele>-0.126</ele>
  <time>2026-09-02T22:13:09Z</time>
  <course>187.83</course>
  <speed>0.022360679774997897</speed>
  <fix>3d</fix>
</trkpt>
<trkpt lat="33.810313" lon="-118.393867">
  <ele>-0.12</ele>
  <time>2026-09-02T22:13:09Z</time>
  <course>0.0</course>
  <speed>0.0</speed>
  <fix>3d</fix>
</trkpt>
<trkpt lat="33.810313" lon="-118.393867">
  <ele>-0.127</ele>
  <time>2026-09-02T22:13:09Z</time>
  <course>187.83</course>
  <speed>0.022360679774997897</speed>
  <fix>3d</fix>
</trkpt>
<trkpt lat="33.810313" lon="-118.393867">
  <ele>-0.12</ele>
  <time>2026-09-02T22:13:09Z</time>
  <course>0.0</course>
  <speed>0.0</speed>
  <fix>3d</fix>
</trkpt>
<trkpt lat="33.810313" lon="-118.393867">
  <ele>-0.127</ele>
  <time>2026-09-02T22:13:09Z</time>
  <course>187.82</course>
  <speed>0.022360679774997897</speed>
  <fix>3d</fix>
</trkpt>
<trkpt lat="33.810313" lon="-118.393867">
  <ele>-0.12</ele>
  <time>2026-09-02T22:13:09Z</time>
  <course>0.0</course>
  <speed>0.0</speed>
  <fix>3d</fix>
</trkpt>
<trkpt lat="33.810313" lon="-118.393867">
  <ele>-0.127</ele>
  <time>2026-09-02T22:13:09Z</time>
  <course>187.81</course>
  <speed>0.022360679774997897</speed>
  <fix>3d</fix>
</trkpt>
<trkpt lat="33.810313" lon="-118.393867">
  <ele>-0.12</ele>
  <time>2026-09-02T22:13:09Z</time>
  <course>0.0</course>
  <speed>0.0</speed>
  <fix>3d</fix>
</trkpt>
<trkpt lat="33.810313" lon="-118.393867">
  <ele>-0.126</ele>
  <time>2026-09-02T22:13:09Z</time>
  <course>187.8</course>
  <speed>0.022360679774997897</speed>
  <fix>3d</fix>
</trkpt>
<trkpt lat="33.810313" lon="-118.393867">
  <ele>-0.12</ele>
  <time>2026-09-02T22:13:09Z</time>
  <course>0.0</course>
  <speed>0.0</speed>
  <fix>3d</fix>
</trkpt>
<trkpt lat="33.810313" lon="-118.393867">
  <ele>-0.124</ele>
  <time>2026-09-02T22:13:09Z</time>
  <course>187.8</course>
  <speed>0.022360679774997897</speed>
  <fix>3d</fix>
</trkpt>
<trkpt lat="33.810313" lon="-118.393867">
  <ele>-0.12</ele>
  <time>2026-09-02T22:13:09Z</time>
  <course>0.0</course>
  <speed>0.0</speed>
  <fix>3d</fix>
</trkpt>
<trkpt lat="33.810313" lon="-118.393867">
  <ele>-0.121</ele>
  <time>2026-09-02T22:13:09Z</time>
  <course>187.79</course>
  <speed>0.022360679774997897</speed>
  <fix>3d</fix>
</trkpt>
<trkpt lat="33.810313" lon="-118.393867">
  <ele>-0.12</ele>
  <time>2026-09-02T22:13:09Z</time>
  <course>0.0</course>
  <speed>0.0</speed>
  <fix>3d</fix>
</trkpt>
<trkpt lat="33.810313" lon="-118.393867">
  <ele>-0.119</ele>
  <time>2026-09-02T22:13:09Z</time>
  <course>187.78</course>
  <speed>0.022360679774997897</speed>
  <fix>3d</fix>
</trkpt>
<trkpt lat="33.810313" lon="-118.393867">
  <ele>-0.12</ele>
  <time>2026-09-02T22:13:09Z</time>
  <course>0.0</course>
  <speed>0.0</speed>
  <fix>3d</fix>
</trkpt>
<trkpt lat="33.810313" lon="-118.393867">
  <ele>-0.118</ele>
  <time>2026-09-02T22:13:09Z</time>
  <course>187.77</course>
  <speed>0.022360679774997897</speed>
  <fix>3d</fix>
</trkpt>
<trkpt lat="33.810313" lon="-118.393867">
  <ele>-0.12</ele>
  <time>2026-09-02T22:13:09Z</time>
  <course>0.0</course>
  <speed>0.0</speed>
  <fix>3d</fix>
</trkpt>
<trkpt lat="33.810313" lon="-118.393867">
  <ele>-0.118</ele>
  <time>2026-09-02T22:13:09Z</time>
  <course>187.76</course>
  <speed>0.022360679774997897</speed>
  <fix>3d</fix>
</trkpt>
<trkpt lat="33.810313" lon="-118.393867">
  <ele>-0.12</ele>
  <time>2026-09-02T22:13:09Z</time>
  <course>0.0</course>
  <speed>0.0</speed>
  <fix>3d</fix>
</trkpt>
<trkpt lat="33.810313" lon="-118.393867">
  <ele>-0.119</ele>
  <time>2026-09-02T22:13:09Z</time>
  <course>187.76</course>
  <speed>0.022360679774997897</speed>
  <fix>3d</fix>
</trkpt>
<trkpt lat="33.810313" lon="-118.393867">
  <ele>-0.12</ele>
  <time>2026-09-02T22:13:09Z</time>
  <course>0.0</course>
  <speed>0.0</speed>
  <fix>3d</fix>
</trkpt>
<trkpt lat="33.810313" lon="-118.393867">
  <ele>-0.12</ele>
  <time>2026-09-02T22:13:09Z</time>
  <course>187.75</course>
  <speed>0.022360679774997897</speed>
  <fix>3d</fix>
</trkpt>
<trkpt lat="33.810313" lon="-118.393867">
  <ele>-0.12</ele>
  <time>2026-09-02T22:13:09Z</time>
  <course>0.0</course>
  <speed>0.0</speed>
  <fix>3d</fix>
</trkpt>
<trkpt lat="33.810313" lon="-118.393867">
  <ele>-0.12</ele>
  <time>2026-09-02T22:13:09Z</time>
  <course>187.74</course>
  <speed>0.0282842712474619</speed>
  <fix>3d</fix>
</trkpt>
<trkpt lat="33.810313" lon="-118.393867">
  <ele>-0.12</ele>
  <time>2026-09-02T22:13:09Z</time>
  <course>0.0</course>
  <speed>0.0</speed>
  <fix>3d</fix>
</trkpt>
<trkpt lat="33.810313" lon="-118.393867">
  <ele>-0.12</ele>
  <time>2026-09-02T22:13:09Z</time>
  <course>187.74</course>
  <speed>0.0282842712474619</speed>
  <fix>3d</fix>
</trkpt>
<trkpt lat="33.810313" lon="-118.393867">
  <ele>-0.12</ele>
  <time>2026-09-02T22:13:09Z</time>
  <course>0.0</course>
  <speed>0.0</speed>
  <fix>3d</fix>
</trkpt>
<trkpt lat="33.810313" lon="-118.393867">
  <ele>-0.119</ele>
  <time>2026-09-02T22:13:09Z</time>
  <course>187.73</course>
  <speed>0.0282842712474619</speed>
  <fix>3d</fix>
</trkpt>
<trkpt lat="33.810313" lon="-118.393867">
  <ele>-0.12</ele>
  <time>2026-09-02T22:13:09Z</time>
  <course>0.0</course>
  <speed>0.0</speed>
  <fix>3d</fix>
</trkpt>
<trkpt lat="33.810313" lon="-118.393867">
  <ele>-0.118</ele>
  <time>2026-09-02T22:13:09Z</time>
  <course>187.72</course>
  <speed>0.0282842712474619</speed>
  <fix>3d</fix>
</trkpt>
<trkpt lat="33.810313" lon="-118.393867">
  <ele>-0.12</ele>
  <time>2026-09-02T22:13:09Z</time>
  <course>0.0</course>
  <speed>0.0</speed>
  <fix>3d</fix>
</trkpt>
<trkpt lat="33.810313" lon="-118.393867">
  <ele>-0.116</ele>
  <time>2026-09-02T22:13:09Z</time>
  <course>187.71</course>
  <speed>0.0282842712474619</speed>
  <fix>3d</fix>
</trkpt>
<trkpt lat="33.810313" lon="-118.393867">
  <ele>-0.12</ele>
  <time>2026-09-02T22:13:09Z</time>
  <course>0.0</course>
  <speed>0.0</speed>
  <fix>3d</fix>
</trkpt>
<trkpt lat="33.810313" lon="-118.393867">
  <ele>-0.113</ele>
  <time>2026-09-02T22:13:09Z</time>
  <course>187.71</course>
  <speed>0.0282842712474619</speed>
  <fix>3d</fix>
</trkpt>
<trkpt lat="33.810313" lon="-118.393867">
  <ele>-0.12</ele>
  <time>2026-09-02T22:13:09Z</time>
  <course>0.0</course>
  <speed>0.0</speed>
  <fix>3d</fix>
</trkpt>
<trkpt lat="33.810313" lon="-118.393867">
  <ele>-0.112</ele>
  <time>2026-09-02T22:13:09Z</time>
  <course>187.7</course>
  <speed>0.0282842712474619</speed>
  <fix>3d</fix>
</trkpt>
<trkpt lat="33.810313" lon="-118.393867">
  <ele>-0.12</ele>
  <time>2026-09-02T22:13:09Z</time>
  <course>0.0</course>
  <speed>0.0</speed>
  <fix>3d</fix>
</trkpt>
<trkpt lat="33.810313" lon="-118.393867">
  <ele>-0.113</ele>
  <time>2026-09-02T22:13:09Z</time>
  <course>187.69</course>
  <speed>0.0282842712474619</speed>
  <fix>3d</fix>
</trkpt>
<trkpt lat="33.810313" lon="-118.393867">
  <ele>-0.12</ele>
  <time>2026-09-02T22:13:09Z</time>
  <course>0.0</course>
  <speed>0.0</speed>
  <fix>3d</fix>
</trkpt>
<trkpt lat="33.810313" lon="-118.393867">
  <ele>-0.115</ele>
  <time>2026-09-02T22:13:09Z</time>
  <course>187.68</course>
  <speed>0.0282842712474619</speed>
  <fix>3d</fix>
</trkpt>
<trkpt lat="33.810313" lon="-118.393867">
  <ele>-0.12</ele>
  <time>2026-09-02T22:13:09Z</time>
  <course>0.0</course>
  <speed>0.0</speed>
  <fix>3d</fix>
</trkpt>
<trkpt lat="33.810313" lon="-118.393867">
  <ele>-0.119</ele>
  <time>2026-09-02T22:13:09Z</time>
  <course>187.68</course>
  <speed>0.0282842712474619</speed>
  <fix>3d</fix>
</trkpt>
<trkpt lat="33.810313" lon="-118.393867">
  <ele>-0.12</ele>
  <time>2026-09-02T22:13:09Z</time>
  <course>0.0</course>
  <speed>0.0</speed>
  <fix>3d</fix>
</trkpt>
<trkpt lat="33.810313" lon="-118.393867">
  <ele>-0.124</ele>
  <time>2026-09-02T22:13:09Z</time>
  <course>187.67</course>
  <speed>0.0282842712474619</speed>
  <fix>3d</fix>
</trkpt>
<trkpt lat="33.810313" lon="-118.393867">
  <ele>-0.12</ele>
  <time>2026-09-02T22:13:09Z</time>
  <course>0.0</course>
  <speed>0.0</speed>
  <fix>3d</fix>
</trkpt>
<trkpt lat="33.810313" lon="-118.393867">
  <ele>-0.129</ele>
  <time>2026-09-02T22:13:09Z</time>
  <course>187.66</course>
  <speed>0.0282842712474619</speed>
  <fix>3d</fix>
</trkpt>
<trkpt lat="33.810313" lon="-118.393867">
  <ele>-0.12</ele>
  <time>2026-09-02T22:13:09Z</time>
  <course>0.0</course>
  <speed>0.0</speed>
  <fix>3d</fix>
</trkpt>
<trkpt lat="33.810313" lon="-118.393867">
  <ele>-0.133</ele>
  <time>2026-09-02T22:13:09Z</time>
  <course>187.66</course>
  <speed>0.0282842712474619</speed>
  <fix>3d</fix>
</trkpt>
<trkpt lat="33.810313" lon="-118.393867">
  <ele>-0.12</ele>
  <time>2026-09-02T22:13:09Z</time>
  <course>0.0</course>
  <speed>0.0</speed>
  <fix>3d</fix>
</trkpt>
<trkpt lat="33.810313" lon="-118.393867">
  <ele>-0.135</ele>
  <time>2026-09-02T22:13:09Z</time>
  <course>187.65</course>
  <speed>0.0282842712474619</speed>
  <fix>3d</fix>
</trkpt>
<trkpt lat="33.810313" lon="-118.393867">
  <ele>-0.12</ele>
  <time>2026-09-02T22:13:09Z</time>
  <course>0.0</course>
  <speed>0.0</speed>
  <fix>3d</fix>
</trkpt>
<trkpt lat="33.810313" lon="-118.393867">
  <ele>-0.135</ele>
  <time>2026-09-02T22:13:09Z</time>
  <course>187.64</course>
  <speed>0.0282842712474619</speed>
  <fix>3d</fix>
</trkpt>
<trkpt lat="33.810313" lon="-118.393867">
  <ele>-0.12</ele>
  <time>2026-09-02T22:13:09Z</time>
  <course>0.0</course>
  <speed>0.0</speed>
  <fix>3d</fix>
</trkpt>
<trkpt lat="33.810313" lon="-118.393867">
  <ele>-0.135</ele>
  <time>2026-09-02T22:13:09Z</time>
  <course>187.64</course>
  <speed>0.0282842712474619</speed>
  <fix>3d</fix>
</trkpt>
<trkpt lat="33.810313" lon="-118.393867">
  <ele>-0.12</ele>
  <time>2026-09-02T22:13:09Z</time>
  <course>0.0</course>
  <speed>0.0</speed>
  <fix>3d</fix>
</trkpt>
<trkpt lat="33.810313" lon="-118.393867">
  <ele>-0.133</ele>
  <time>2026-09-02T22:13:09Z</time>
  <course>187.63</course>
  <speed>0.0282842712474619</speed>
  <fix>3d</fix>
</trkpt>
<trkpt lat="33.810313" lon="-118.393867">
  <ele>-0.12</ele>
  <time>2026-09-02T22:13:09Z</time>
  <course>0.0</course>
  <speed>0.0</speed>
  <fix>3d</fix>
</trkpt>
<trkpt lat="33.810313" lon="-118.393867">
  <ele>-0.132</ele>
  <time>2026-09-02T22:13:09Z</time>
  <course>187.63</course>
  <speed>0.03605551275463989</speed>
  <fix>3d</fix>
</trkpt>
<trkpt lat="33.810313" lon="-118.393867">
  <ele>-0.12</ele>
  <time>2026-09-02T22:13:09Z</time>
  <course>0.0</course>
  <speed>0.0</speed>
  <fix>3d</fix>
</trkpt>
<trkpt lat="33.810313" lon="-118.393867">
  <ele>-0.132</ele>
  <time>2026-09-02T22:13:09Z</time>
  <course>187.62</course>
  <speed>0.03605551275463989</speed>
  <fix>3d</fix>
</trkpt>
<trkpt lat="33.810313" lon="-118.393867">
  <ele>-0.12</ele>
  <time>2026-09-02T22:13:09Z</time>
  <course>0.0</course>
  <speed>0.0</speed>
  <fix>3d</fix>
</trkpt>
<trkpt lat="33.810313" lon="-118.393867">
  <ele>-0.133</ele>
  <time>2026-09-02T22:13:09Z</time>
  <course>187.61</course>
  <speed>0.03605551275463989</speed>
  <fix>3d</fix>
</trkpt>
<trkpt lat="33.810313" lon="-118.393867">
  <ele>-0.12</ele>
  <time>2026-09-02T22:13:09Z</time>
  <course>0.0</course>
  <speed>0.0</speed>
  <fix>3d</fix>
</trkpt>
<trkpt lat="33.810313" lon="-118.393867">
  <ele>-0.133</ele>
  <time>2026-09-02T22:13:09Z</time>
  <course>187.6</course>
  <speed>0.03605551275463989</speed>
  <fix>3d</fix>
</trkpt>
<trkpt lat="33.810313" lon="-118.393867">
  <ele>-0.12</ele>
  <time>2026-09-02T22:13:09Z</time>
  <course>0.0</course>
  <speed>0.0</speed>
  <fix>3d</fix>
</trkpt>
<trkpt lat="33.810313" lon="-118.393867">
  <ele>-0.134</ele>
  <time>2026-09-02T22:13:09Z</time>
  <course>187.6</course>
  <speed>0.03605551275463989</speed>
  <fix>3d</fix>
</trkpt>
<trkpt lat="33.810313" lon="-118.393867">
  <ele>-0.12</ele>
  <time>2026-09-02T22:13:09Z</time>
  <course>0.0</course>
  <speed>0.0</speed>
  <fix>3d</fix>
</trkpt>
<trkpt lat="33.810313" lon="-118.393867">
  <ele>-0.133</ele>
  <time>2026-09-02T22:13:09Z</time>
  <course>187.59</course>
  <speed>0.03605551275463989</speed>
  <fix>3d</fix>
</trkpt>
<trkpt lat="33.810313" lon="-118.393867">
  <ele>-0.12</ele>
  <time>2026-09-02T22:13:09Z</time>
  <course>0.0</course>
  <speed>0.0</speed>
  <fix>3d</fix>
</trkpt>
<trkpt lat="33.810313" lon="-118.393867">
  <ele>-0.132</ele>
  <time>2026-09-02T22:13:09Z</time>
  <course>187.58</course>
  <speed>0.03605551275463989</speed>
  <fix>3d</fix>
</trkpt>
<trkpt lat="33.810313" lon="-118.393867">
  <ele>-0.12</ele>
  <time>2026-09-02T22:13:09Z</time>
  <course>0.0</course>
  <speed>0.0</speed>
  <fix>3d</fix>
</trkpt>
<trkpt lat="33.810313" lon="-118.393867">
  <ele>-0.129</ele>
  <time>2026-09-02T22:13:09Z</time>
  <course>187.58</course>
  <speed>0.03605551275463989</speed>
  <fix>3d</fix>
</trkpt>
<trkpt lat="33.810313" lon="-118.393867">
  <ele>-0.12</ele>
  <time>2026-09-02T22:13:09Z</time>
  <course>0.0</course>
  <speed>0.0</speed>
  <fix>3d</fix>
</trkpt>
<trkpt lat="33.810313" lon="-118.393867">
  <ele>-0.127</ele>
  <time>2026-09-02T22:13:09Z</time>
  <course>187.57</course>
  <speed>0.03605551275463989</speed>
  <fix>3d</fix>
</trkpt>
<trkpt lat="33.810313" lon="-118.393867">
  <ele>-0.12</ele>
  <time>2026-09-02T22:13:09Z</time>
  <course>0.0</course>
  <speed>0.0</speed>
  <fix>3d</fix>
</trkpt>
<trkpt lat="33.810313" lon="-118.393867">
  <ele>-0.125</ele>
  <time>2026-09-02T22:13:09Z</time>
  <course>187.56</course>
  <speed>0.03605551275463989</speed>
  <fix>3d</fix>
</trkpt>
<trkpt lat="33.810313" lon="-118.393867">
  <ele>-0.12</ele>
  <time>2026-09-02T22:13:09Z</time>
  <course>0.0</course>
  <speed>0.0</speed>
  <fix>3d</fix>
</trkpt>
<trkpt lat="33.810313" lon="-118.393867">
  <ele>-0.121</ele>
  <time>2026-09-02T22:13:09Z</time>
  <course>187.56</course>
  <speed>0.03605551275463989</speed>
  <fix>3d</fix>
</trkpt>
<trkpt lat="33.810313" lon="-118.393867">
  <ele>-0.12</ele>
  <time>2026-09-02T22:13:09Z</time>
  <course>0.0</course>
  <speed>0.0</speed>
  <fix>3d</fix>
</trkpt>
<trkpt lat="33.810313" lon="-118.393867">
  <ele>-0.119</ele>
  <time>2026-09-02T22:13:09Z</time>
  <course>187.55</course>
  <speed>0.03605551275463989</speed>
  <fix>3d</fix>
</trkpt>
<trkpt lat="33.810313" lon="-118.393867">
  <ele>-0.12</ele>
  <time>2026-09-02T22:13:09Z</time>
  <course>0.0</course>
  <speed>0.0</speed>
  <fix>3d</fix>
</trkpt>
<trkpt lat="33.810313" lon="-118.393867">
  <ele>-0.117</ele>
  <time>2026-09-02T22:13:09Z</time>
  <course>187.54</course>
  <speed>0.03605551275463989</speed>
  <fix>3d</fix>
</trkpt>
<trkpt lat="33.810313" lon="-118.393867">
  <ele>-0.12</ele>
  <time>2026-09-02T22:13:09Z</time>
  <course>0.0</course>
  <speed>0.0</speed>
  <fix>3d</fix>
</trkpt>
<trkpt lat="33.810313" lon="-118.393867">
  <ele>-0.117</ele>
  <time>2026-09-02T22:13:09Z</time>
  <course>187.54</course>
  <speed>0.03605551275463989</speed>
  <fix>3d</fix>
</trkpt>
<trkpt lat="33.810313" lon="-118.393867">
  <ele>-0.12</ele>
  <time>2026-09-02T22:13:09Z</time>
  <course>0.0</course>
  <speed>0.0</speed>
  <fix>3d</fix>
</trkpt>
<trkpt lat="33.810313" lon="-118.393867">
  <ele>-0.118</ele>
  <time>2026-09-02T22:13:09Z</time>
  <course>187.53</course>
  <speed>0.03605551275463989</speed>
  <fix>3d</fix>
</trkpt>
<trkpt lat="33.810313" lon="-118.393867">
  <ele>-0.12</ele>
  <time>2026-09-02T22:13:09Z</time>
  <course>0.0</course>
  <speed>0.0</speed>
  <fix>3d</fix>
</trkpt>
<trkpt lat="33.810313" lon="-118.393867">
  <ele>-0.119</ele>
  <time>2026-09-02T22:13:09Z</time>
  <course>187.52</course>
  <speed>0.03605551275463989</speed>
  <fix>3d</fix>
</trkpt>
<trkpt lat="33.810313" lon="-118.393867">
  <ele>-0.12</ele>
  <time>2026-09-02T22:13:09Z</time>
  <course>0.0</course>
  <speed>0.0</speed>
  <fix>3d</fix>
</trkpt>
<trkpt lat="33.810313" lon="-118.393867">
  <ele>-0.12</ele>
  <time>2026-09-02T22:13:09Z</time>
  <course>187.52</course>
  <speed>0.03605551275463989</speed>
  <fix>3d</fix>
</trkpt>
<trkpt lat="33.810313" lon="-118.393867">
  <ele>-0.12</ele>
  <time>2026-09-02T22:13:09Z</time>
  <course>0.0</course>
  <speed>0.0</speed>
  <fix>3d</fix>
</trkpt>
<trkpt lat="33.810313" lon="-118.393867">
  <ele>-0.121</ele>
  <time>2026-09-02T22:13:09Z</time>
  <course>187.51</course>
  <speed>0.03605551275463989</speed>
  <fix>3d</fix>
</trkpt>
<trkpt lat="33.810313" lon="-118.393867">
  <ele>-0.12</ele>
  <time>2026-09-02T22:13:09Z</time>
  <course>0.0</course>
  <speed>0.0</speed>
  <fix>3d</fix>
</trkpt>
<trkpt lat="33.810313" lon="-118.393867">
  <ele>-0.122</ele>
  <time>2026-09-02T22:13:09Z</time>
  <course>187.5</course>
  <speed>0.03605551275463989</speed>
  <fix>3d</fix>
</trkpt>
<trkpt lat="33.810313" lon="-118.393867">
  <ele>-0.12</ele>
  <time>2026-09-02T22:13:09Z</time>
  <course>0.0</course>
  <speed>0.0</speed>
  <fix>3d</fix>
</trkpt>
<trkpt lat="33.810313" lon="-118.393867">
  <ele>-0.121</ele>
  <time>2026-09-02T22:13:09Z</time>
  <course>187.5</course>
  <speed>0.03605551275463989</speed>
  <fix>3d</fix>
</trkpt>
<trkpt lat="33.810313" lon="-118.393867">
  <ele>-0.12</ele>
  <time>2026-09-02T22:13:09Z</time>
  <course>0.0</course>
  <speed>0.0</speed>
  <fix>3d</fix>
</trkpt>
<trkpt lat="33.810313" lon="-118.393867">
  <ele>-0.121</ele>
  <time>2026-09-02T22:13:09Z</time>
  <course>187.49</course>
  <speed>0.03605551275463989</speed>
  <fix>3d</fix>
</trkpt>
<trkpt lat="33.810313" lon="-118.393867">
  <ele>-0.12</ele>
  <time>2026-09-02T22:13:09Z</time>
  <course>0.0</course>
  <speed>0.0</speed>
  <fix>3d</fix>
</trkpt>
<trkpt lat="33.810313" lon="-118.393867">
  <ele>-0.121</ele>
  <time>2026-09-02T22:13:09Z</time>
  <course>187.49</course>
  <speed>0.03605551275463989</speed>
  <fix>3d</fix>
</trkpt>
<trkpt lat="33.810313" lon="-118.393867">
  <ele>-0.12</ele>
  <time>2026-09-02T22:13:09Z</time>
  <course>0.0</course>
  <speed>0.0</speed>
  <fix>3d</fix>
</trkpt>
<trkpt lat="33.810313" lon="-118.393867">
  <ele>-0.121</ele>
  <time>2026-09-02T22:13:09Z</time>
  <course>187.48</course>
  <speed>0.03605551275463989</speed>
  <fix>3d</fix>
</trkpt>
<trkpt lat="33.810313" lon="-118.393867">
  <ele>-0.12</ele>
  <time>2026-09-02T22:13:09Z</time>
  <course>0.0</course>
  <speed>0.0</speed>
  <fix>3d</fix>
</trkpt>
<trkpt lat="33.810313" lon="-118.393867">
  <ele>-0.122</ele>
  <time>2026-09-02T22:13:09Z</time>
  <course>187.47</course>
  <speed>0.03605551275463989</speed>
  <fix>3d</fix>
</trkpt>
<trkpt lat="33.810313" lon="-118.393867">
  <ele>-0.12</ele>
  <time>2026-09-02T22:13:09Z</time>
  <course>0.0</course>
  <speed>0.0</speed>
  <fix>3d</fix>
</trkpt>
<trkpt lat="33.810313" lon="-118.393867">
  <ele>-0.125</ele>
  <time>2026-09-02T22:13:09Z</time>
  <course>187.47</course>
  <speed>0.03605551275463989</speed>
  <fix>3d</fix>
</trkpt>
<trkpt lat="33.810313" lon="-118.393867">
  <ele>-0.12</ele>
  <time>2026-09-02T22:13:09Z</time>
  <course>0.0</course>
  <speed>0.0</speed>
  <fix>3d</fix>
</trkpt>
<trkpt lat="33.810313" lon="-118.393867">
  <ele>-0.127</ele>
  <time>2026-09-02T22:13:09Z</time>
  <course>187.46</course>
  <speed>0.03605551275463989</speed>
  <fix>3d</fix>
</trkpt>
<trkpt lat="33.810313" lon="-118.393867">
  <ele>-0.12</ele>
  <time>2026-09-02T22:13:09Z</time>
  <course>0.0</course>
  <speed>0.0</speed>
  <fix>3d</fix>
</trkpt>
<trkpt lat="33.810313" lon="-118.393867">
  <ele>-0.13</ele>
  <time>2026-09-02T22:13:09Z</time>
  <course>187.45</course>
  <speed>0.03605551275463989</speed>
  <fix>3d</fix>
</trkpt>
<trkpt lat="33.810313" lon="-118.393867">
  <ele>-0.12</ele>
  <time>2026-09-02T22:13:09Z</time>
  <course>0.0</course>
  <speed>0.0</speed>
  <fix>3d</fix>
</trkpt>
<trkpt lat="33.810313" lon="-118.393867">
  <ele>-0.131</ele>
  <time>2026-09-02T22:13:09Z</time>
  <course>187.45</course>
  <speed>0.03605551275463989</speed>
  <fix>3d</fix>
</trkpt>
<trkpt lat="33.810313" lon="-118.393867">
  <ele>-0.12</ele>
  <time>2026-09-02T22:13:09Z</time>
  <course>0.0</course>
  <speed>0.0</speed>
  <fix>3d</fix>
</trkpt>
<trkpt lat="33.810313" lon="-118.393867">
  <ele>-0.132</ele>
  <time>2026-09-02T22:13:09Z</time>
  <course>187.44</course>
  <speed>0.03605551275463989</speed>
  <fix>3d</fix>
</trkpt>
<trkpt lat="33.810313" lon="-118.393867">
  <ele>-0.12</ele>
  <time>2026-09-02T22:13:09Z</time>
  <course>0.0</course>
  <speed>0.0</speed>
  <fix>3d</fix>
</trkpt>
<trkpt lat="33.810313" lon="-118.393867">
  <ele>-0.132</ele>
  <time>2026-09-02T22:13:09Z</time>
  <course>187.44</course>
  <speed>0.03605551275463989</speed>
  <fix>3d</fix>
</trkpt>
<trkpt lat="33.810313" lon="-118.393867">
  <ele>-0.12</ele>
  <time>2026-09-02T22:13:09Z</time>
  <course>0.0</course>
  <speed>0.0</speed>
  <fix>3d</fix>
</trkpt>
<trkpt lat="33.810313" lon="-118.393867">
  <ele>-0.132</ele>
  <time>2026-09-02T22:13:09Z</time>
  <course>187.43</course>
  <speed>0.03605551275463989</speed>
  <fix>3d</fix>
</trkpt>
<trkpt lat="33.810313" lon="-118.393867">
  <ele>-0.12</ele>
  <time>2026-09-02T22:13:09Z</time>
  <course>0.0</course>
  <speed>0.0</speed>
  <fix>3d</fix>
</trkpt>
<trkpt lat="33.810313" lon="-118.393867">
  <ele>-0.132</ele>
  <time>2026-09-02T22:13:09Z</time>
  <course>187.42</course>
  <speed>0.03605551275463989</speed>
  <fix>3d</fix>
</trkpt>
<trkpt lat="33.810313" lon="-118.393867">
  <ele>-0.12</ele>
  <time>2026-09-02T22:13:09Z</time>
  <course>0.0</course>
  <speed>0.0</speed>
  <fix>3d</fix>
</trkpt>
<trkpt lat="33.810313" lon="-118.393867">
  <ele>-0.131</ele>
  <time>2026-09-02T22:13:09Z</time>
  <course>187.42</course>
  <speed>0.03605551275463989</speed>
  <fix>3d</fix>
</trkpt>
<trkpt lat="33.810313" lon="-118.393867">
  <ele>-0.12</ele>
  <time>2026-09-02T22:13:09Z</time>
  <course>0.0</course>
  <speed>0.0</speed>
  <fix>3d</fix>
</trkpt>
<trkpt lat="33.810313" lon="-118.393867">
  <ele>-0.131</ele>
  <time>2026-09-02T22:13:09Z</time>
  <course>187.41</course>
  <speed>0.03605551275463989</speed>
  <fix>3d</fix>
</trkpt>
<trkpt lat="33.810313" lon="-118.393867">
  <ele>-0.12</ele>
  <time>2026-09-02T22:13:09Z</time>
  <course>0.0</course>
  <speed>0.0</speed>
  <fix>3d</fix>
</trkpt>
<trkpt lat="33.810313" lon="-118.393867">
  <ele>-0.132</ele>
  <time>2026-09-02T22:13:09Z</time>
  <course>187.41</course>
  <speed>0.03605551275463989</speed>
  <fix>3d</fix>
</trkpt>
<trkpt lat="33.810313" lon="-118.393867">
  <ele>-0.12</ele>
  <time>2026-09-02T22:13:09Z</time>
  <course>0.0</course>
  <speed>0.0</speed>
  <fix>3d</fix>
</trkpt>
<trkpt lat="33.810313" lon="-118.393867">
  <ele>-0.134</ele>
  <time>2026-09-02T22:13:09Z</time>
  <course>187.4</course>
  <speed>0.03605551275463989</speed>
  <fix>3d</fix>
</trkpt>
<trkpt lat="33.810313" lon="-118.393867">
  <ele>-0.12</ele>
  <time>2026-09-02T22:13:09Z</time>
  <course>0.0</course>
  <speed>0.0</speed>
  <fix>3d</fix>
</trkpt>
<trkpt lat="33.810313" lon="-118.393867">
  <ele>-0.137</ele>
  <time>2026-09-02T22:13:09Z</time>
  <course>187.39</course>
  <speed>0.03605551275463989</speed>
  <fix>3d</fix>
</trkpt>
<trkpt lat="33.810313" lon="-118.393867">
  <ele>-0.12</ele>
  <time>2026-09-02T22:13:09Z</time>
  <course>0.0</course>
  <speed>0.0</speed>
  <fix>3d</fix>
</trkpt>
<trkpt lat="33.810313" lon="-118.393867">
  <ele>-0.14</ele>
  <time>2026-09-02T22:13:09Z</time>
  <course>187.39</course>
  <speed>0.03605551275463989</speed>
  <fix>3d</fix>
</trkpt>
<trkpt lat="33.810313" lon="-118.393867">
  <ele>-0.12</ele>
  <time>2026-09-02T22:13:09Z</time>
  <course>0.0</course>
  <speed>0.0</speed>
  <fix>3d</fix>
</trkpt>
<trkpt lat="33.810313" lon="-118.393867">
  <ele>-0.141</ele>
  <time>2026-09-02T22:13:09Z</time>
  <course>187.38</course>
  <speed>0.03605551275463989</speed>
  <fix>3d</fix>
</trkpt>
<trkpt lat="33.810313" lon="-118.393867">
  <ele>-0.12</ele>
  <time>2026-09-02T22:13:09Z</time>
  <course>0.0</course>
  <speed>0.0</speed>
  <fix>3d</fix>
</trkpt>
<trkpt lat="33.810313" lon="-118.393867">
  <ele>-0.141</ele>
  <time>2026-09-02T22:13:09Z</time>
  <course>187.38</course>
  <speed>0.03605551275463989</speed>
  <fix>3d</fix>
</trkpt>
<trkpt lat="33.810313" lon="-118.393867">
  <ele>-0.12</ele>
  <time>2026-09-02T22:13:09Z</time>
  <course>0.0</course>
  <speed>0.0</speed>
  <fix>3d</fix>
</trkpt>
<trkpt lat="33.810313" lon="-118.393867">
  <ele>-0.139</ele>
  <time>2026-09-02T22:13:09Z</time>
  <course>187.37</course>
  <speed>0.03605551275463989</speed>
  <fix>3d</fix>
</trkpt>
<trkpt lat="33.810313" lon="-118.393867">
  <ele>-0.12</ele>
  <time>2026-09-02T22:13:09Z</time>
  <course>0.0</course>
  <speed>0.0</speed>
  <fix>3d</fix>
</trkpt>
<trkpt lat="33.810313" lon="-118.393867">
  <ele>-0.136</ele>
  <time>2026-09-02T22:13:09Z</time>
  <course>187.36</course>
  <speed>0.03605551275463989</speed>
  <fix>3d</fix>
</trkpt>
<trkpt lat="33.810313" lon="-118.393867">
  <ele>-0.12</ele>
  <time>2026-09-02T22:13:09Z</time>
  <course>0.0</course>
  <speed>0.0</speed>
  <fix>3d</fix>
</trkpt>
<trkpt lat="33.810313" lon="-118.393867">
  <ele>-0.132</ele>
  <time>2026-09-02T22:13:09Z</time>
  <course>187.36</course>
  <speed>0.03605551275463989</speed>
  <fix>3d</fix>
</trkpt>
<trkpt lat="33.810313" lon="-118.393867">
  <ele>-0.12</ele>
  <time>2026-09-02T22:13:09Z</time>
  <course>0.0</course>
  <speed>0.0</speed>
  <fix>3d</fix>
</trkpt>
<trkpt lat="33.810313" lon="-118.393867">
  <ele>-0.129</ele>
  <time>2026-09-02T22:13:09Z</time>
  <course>187.35</course>
  <speed>0.03605551275463989</speed>
  <fix>3d</fix>
</trkpt>
<trkpt lat="33.810313" lon="-118.393867">
  <ele>-0.12</ele>
  <time>2026-09-02T22:13:09Z</time>
  <course>0.0</course>
  <speed>0.0</speed>
  <fix>3d</fix>
</trkpt>
<trkpt lat="33.810313" lon="-118.393867">
  <ele>-0.127</ele>
  <time>2026-09-02T22:13:09Z</time>
  <course>187.35</course>
  <speed>0.03605551275463989</speed>
  <fix>3d</fix>
</trkpt>
<trkpt lat="33.810313" lon="-118.393867">
  <ele>-0.12</ele>
  <time>2026-09-02T22:13:09Z</time>
  <course>0.0</course>
  <speed>0.0</speed>
  <fix>3d</fix>
</trkpt>
<trkpt lat="33.810313" lon="-118.393867">
  <ele>-0.126</ele>
  <time>2026-09-02T22:13:09Z</time>
  <course>187.34</course>
  <speed>0.03605551275463989</speed>
  <fix>3d</fix>
</trkpt>
<trkpt lat="33.810313" lon="-118.393867">
  <ele>-0.12</ele>
  <time>2026-09-02T22:13:09Z</time>
  <course>0.0</course>
  <speed>0.0</speed>
  <fix>3d</fix>
</trkpt>
<trkpt lat="33.810313" lon="-118.393867">
  <ele>-0.126</ele>
  <time>2026-09-02T22:13:09Z</time>
  <course>187.33</course>
  <speed>0.03605551275463989</speed>
  <fix>3d</fix>
</trkpt>
<trkpt lat="33.810313" lon="-118.393867">
  <ele>-0.12</ele>
  <time>2026-09-02T22:13:09Z</time>
  <course>0.0</course>
  <speed>0.0</speed>
  <fix>3d</fix>
</trkpt>
<trkpt lat="33.810313" lon="-118.393867">
  <ele>-0.127</ele>
  <time>2026-09-02T22:13:09Z</time>
  <course>187.33</course>
  <speed>0.03605551275463989</speed>
  <fix>3d</fix>
</trkpt>
<trkpt lat="33.810313" lon="-118.393867">
  <ele>-0.12</ele>
  <time>2026-09-02T22:13:09Z</time>
  <course>0.0</course>
  <speed>0.0</speed>
  <fix>3d</fix>
</trkpt>
<trkpt lat="33.810313" lon="-118.393867">
  <ele>-0.126</ele>
  <time>2026-09-02T22:13:09Z</time>
  <course>187.32</course>
  <speed>0.03605551275463989</speed>
  <fix>3d</fix>
</trkpt>
<trkpt lat="33.810313" lon="-118.393867">
  <ele>-0.12</ele>
  <time>2026-09-02T22:13:09Z</time>
  <course>0.0</course>
  <speed>0.0</speed>
  <fix>3d</fix>
</trkpt>
<trkpt lat="33.810313" lon="-118.393867">
  <ele>-0.126</ele>
  <time>2026-09-02T22:13:09Z</time>
  <course>187.32</course>
  <speed>0.03605551275463989</speed>
  <fix>3d</fix>
</trkpt>
<trkpt lat="33.810313" lon="-118.393867">
  <ele>-0.12</ele>
  <time>2026-09-02T22:13:09Z</time>
  <course>0.0</course>
  <speed>0.0</speed>
  <fix>3d</fix>
</trkpt>
<trkpt lat="33.810313" lon="-118.393867">
  <ele>-0.125</ele>
  <time>2026-09-02T22:13:09Z</time>
  <course>187.31</course>
  <speed>0.03605551275463989</speed>
  <fix>3d</fix>
</trkpt>
<trkpt lat="33.810313" lon="-118.393867">
  <ele>-0.12</ele>
  <time>2026-09-02T22:13:09Z</time>
  <course>0.0</course>
  <speed>0.0</speed>
  <fix>3d</fix>
</trkpt>
<trkpt lat="33.810313" lon="-118.393867">
  <ele>-0.124</ele>
  <time>2026-09-02T22:13:09Z</time>
  <course>187.31</course>
  <speed>0.03605551275463989</speed>
  <fix>3d</fix>
</trkpt>
<trkpt lat="33.810313" lon="-118.393867">
  <ele>-0.12</ele>
  <time>2026-09-02T22:13:09Z</time>
  <course>0.0</course>
  <speed>0.0</speed>
  <fix>3d</fix>
</trkpt>
<trkpt lat="33.810313" lon="-118.393867">
  <ele>-0.121</ele>
  <time>2026-09-02T22:13:09Z</time>
  <course>187.3</course>
  <speed>0.03605551275463989</speed>
  <fix>3d</fix>
</trkpt>
<trkpt lat="33.810313" lon="-118.393867">
  <ele>-0.12</ele>
  <time>2026-09-02T22:13:09Z</time>
  <course>0.0</course>
  <speed>0.0</speed>
  <fix>3d</fix>
</trkpt>
<trkpt lat="33.810313" lon="-118.393867">
  <ele>-0.121</ele>
  <time>2026-09-02T22:13:09Z</time>
  <course>187.29</course>
  <speed>0.03605551275463989</speed>
  <fix>3d</fix>
</trkpt>
<trkpt lat="33.810313" lon="-118.393867">
  <ele>-0.12</ele>
  <time>2026-09-02T22:13:09Z</time>
  <course>0.0</course>
  <speed>0.0</speed>
  <fix>3d</fix>
</trkpt>
<trkpt lat="33.810313" lon="-118.393867">
  <ele>-0.122</ele>
  <time>2026-09-02T22:13:09Z</time>
  <course>187.29</course>
  <speed>0.03605551275463989</speed>
  <fix>3d</fix>
</trkpt>
<trkpt lat="33.810313" lon="-118.393867">
  <ele>-0.12</ele>
  <time>2026-09-02T22:13:09Z</time>
  <course>0.0</course>
  <speed>0.0</speed>
  <fix>3d</fix>
</trkpt>
<trkpt lat="33.810313" lon="-118.393867">
  <ele>-0.124</ele>
  <time>2026-09-02T22:13:09Z</time>
  <course>187.28</course>
  <speed>0.03605551275463989</speed>
  <fix>3d</fix>
</trkpt>
<trkpt lat="33.810313" lon="-118.393867">
  <ele>-0.12</ele>
  <time>2026-09-02T22:13:09Z</time>
  <course>0.0</course>
  <speed>0.0</speed>
  <fix>3d</fix>
</trkpt>
<trkpt lat="33.810313" lon="-118.393867">
  <ele>-0.128</ele>
  <time>2026-09-02T22:13:09Z</time>
  <course>187.28</course>
  <speed>0.03605551275463989</speed>
  <fix>3d</fix>
</trkpt>
<trkpt lat="33.810313" lon="-118.393867">
  <ele>-0.12</ele>
  <time>2026-09-02T22:13:09Z</time>
  <course>0.0</course>
  <speed>0.0</speed>
  <fix>3d</fix>
</trkpt>
<trkpt lat="33.810313" lon="-118.393867">
  <ele>-0.13</ele>
  <time>2026-09-02T22:13:09Z</time>
  <course>187.27</course>
  <speed>0.03605551275463989</speed>
  <fix>3d</fix>
</trkpt>
<trkpt lat="33.810313" lon="-118.393867">
  <ele>-0.12</ele>
  <time>2026-09-02T22:13:10Z</time>
  <course>0.0</course>
  <speed>0.0</speed>
  <fix>3d</fix>
</trkpt>
<trkpt lat="33.810313" lon="-118.393867">
  <ele>-0.133</ele>
  <time>2026-09-02T22:13:10Z</time>
  <course>187.27</course>
  <speed>0.03605551275463989</speed>
  <fix>3d</fix>
</trkpt>
<trkpt lat="33.810313" lon="-118.393867">
  <ele>-0.12</ele>
  <time>2026-09-02T22:13:10Z</time>
  <course>0.0</course>
  <speed>0.0</speed>
  <fix>3d</fix>
</trkpt>
<trkpt lat="33.810313" lon="-118.393867">
  <ele>-0.135</ele>
  <time>2026-09-02T22:13:10Z</time>
  <course>187.26</course>
  <speed>0.03605551275463989</speed>
  <fix>3d</fix>
</trkpt>
<trkpt lat="33.810313" lon="-118.393867">
  <ele>-0.12</ele>
  <time>2026-09-02T22:13:10Z</time>
  <course>0.0</course>
  <speed>0.0</speed>
  <fix>3d</fix>
</trkpt>
<trkpt lat="33.810313" lon="-118.393867">
  <ele>-0.136</ele>
  <time>2026-09-02T22:13:10Z</time>
  <course>187.26</course>
  <speed>0.03605551275463989</speed>
  <fix>3d</fix>
</trkpt>
<trkpt lat="33.810313" lon="-118.393867">
  <ele>-0.12</ele>
  <time>2026-09-02T22:13:10Z</time>
  <course>0.0</course>
  <speed>0.0</speed>
  <fix>3d</fix>
</trkpt>
<trkpt lat="33.810313" lon="-118.393867">
  <ele>-0.136</ele>
  <time>2026-09-02T22:13:10Z</time>
  <course>187.25</course>
  <speed>0.03605551275463989</speed>
  <fix>3d</fix>
</trkpt>
<trkpt lat="33.810313" lon="-118.393867">
  <ele>-0.12</ele>
  <time>2026-09-02T22:13:10Z</time>
  <course>0.0</course>
  <speed>0.0</speed>
  <fix>3d</fix>
</trkpt>
<trkpt lat="33.810313" lon="-118.393867">
  <ele>-0.135</ele>
  <time>2026-09-02T22:13:10Z</time>
  <course>187.25</course>
  <speed>0.03605551275463989</speed>
  <fix>3d</fix>
</trkpt>
<trkpt lat="33.810313" lon="-118.393867">
  <ele>-0.12</ele>
  <time>2026-09-02T22:13:10Z</time>
  <course>0.0</course>
  <speed>0.0</speed>
  <fix>3d</fix>
</trkpt>
<trkpt lat="33.810313" lon="-118.393867">
  <ele>-0.134</ele>
  <time>2026-09-02T22:13:10Z</time>
  <course>187.24</course>
  <speed>0.03605551275463989</speed>
  <fix>3d</fix>
</trkpt>
<trkpt lat="33.810313" lon="-118.393867">
  <ele>-0.12</ele>
  <time>2026-09-02T22:13:10Z</time>
  <course>0.0</course>
  <speed>0.0</speed>
  <fix>3d</fix>
</trkpt>
<trkpt lat="33.810313" lon="-118.393867">
  <ele>-0.132</ele>
  <time>2026-09-02T22:13:10Z</time>
  <course>187.24</course>
  <speed>0.03605551275463989</speed>
  <fix>3d</fix>
</trkpt>
<trkpt lat="33.810313" lon="-118.393867">
  <ele>-0.12</ele>
  <time>2026-09-02T22:13:10Z</time>
  <course>0.0</course>
  <speed>0.0</speed>
  <fix>3d</fix>
</trkpt>
<trkpt lat="33.810313" lon="-118.393867">
  <ele>-0.131</ele>
  <time>2026-09-02T22:13:10Z</time>
  <course>187.23</course>
  <speed>0.03605551275463989</speed>
  <fix>3d</fix>
</trkpt>
<trkpt lat="33.810313" lon="-118.393867">
  <ele>-0.12</ele>
  <time>2026-09-02T22:13:10Z</time>
  <course>0.0</course>
  <speed>0.0</speed>
  <fix>3d</fix>
</trkpt>
<trkpt lat="33.810313" lon="-118.393867">
  <ele>-0.131</ele>
  <time>2026-09-02T22:13:10Z</time>
  <course>187.22</course>
  <speed>0.03605551275463989</speed>
  <fix>3d</fix>
</trkpt>
<trkpt lat="33.810313" lon="-118.393867">
  <ele>-0.12</ele>
  <time>2026-09-02T22:13:10Z</time>
  <course>0.0</course>
  <speed>0.0</speed>
  <fix>3d</fix>
</trkpt>
<trkpt lat="33.810313" lon="-118.393867">
  <ele>-0.132</ele>
  <time>2026-09-02T22:13:10Z</time>
  <course>187.22</course>
  <speed>0.03605551275463989</speed>
  <fix>3d</fix>
</trkpt>
<trkpt lat="33.810313" lon="-118.393867">
  <ele>-0.12</ele>
  <time>2026-09-02T22:13:10Z</time>
  <course>0.0</course>
  <speed>0.0</speed>
  <fix>3d</fix>
</trkpt>
<trkpt lat="33.810313" lon="-118.393867">
  <ele>-0.132</ele>
  <time>2026-09-02T22:13:10Z</time>
  <course>187.21</course>
  <speed>0.03605551275463989</speed>
  <fix>3d</fix>
</trkpt>
<trkpt lat="33.810313" lon="-118.393867">
  <ele>-0.12</ele>
  <time>2026-09-02T22:13:10Z</time>
  <course>0.0</course>
  <speed>0.0</speed>
  <fix>3d</fix>
</trkpt>
<trkpt lat="33.810313" lon="-118.393867">
  <ele>-0.133</ele>
  <time>2026-09-02T22:13:10Z</time>
  <course>187.21</course>
  <speed>0.03605551275463989</speed>
  <fix>3d</fix>
</trkpt>
<trkpt lat="33.810313" lon="-118.393867">
  <ele>-0.12</ele>
  <time>2026-09-02T22:13:10Z</time>
  <course>0.0</course>
  <speed>0.0</speed>
  <fix>3d</fix>
</trkpt>
<trkpt lat="33.810313" lon="-118.393867">
  <ele>-0.132</ele>
  <time>2026-09-02T22:13:10Z</time>
  <course>187.2</course>
  <speed>0.03605551275463989</speed>
  <fix>3d</fix>
</trkpt>
<trkpt lat="33.810313" lon="-118.393867">
  <ele>-0.12</ele>
  <time>2026-09-02T22:13:10Z</time>
  <course>0.0</course>
  <speed>0.0</speed>
  <fix>3d</fix>
</trkpt>
<trkpt lat="33.810313" lon="-118.393867">
  <ele>-0.131</ele>
  <time>2026-09-02T22:13:10Z</time>
  <course>187.2</course>
  <speed>0.03605551275463989</speed>
  <fix>3d</fix>
</trkpt>
<trkpt lat="33.810313" lon="-118.393867">
  <ele>-0.12</ele>
  <time>2026-09-02T22:13:10Z</time>
  <course>0.0</course>
  <speed>0.0</speed>
  <fix>3d</fix>
</trkpt>
<trkpt lat="33.810313" lon="-118.393867">
  <ele>-0.129</ele>
  <time>2026-09-02T22:13:10Z</time>
  <course>187.19</course>
  <speed>0.03605551275463989</speed>
  <fix>3d</fix>
</trkpt>
<trkpt lat="33.810313" lon="-118.393867">
  <ele>-0.12</ele>
  <time>2026-09-02T22:13:10Z</time>
  <course>0.0</course>
  <speed>0.0</speed>
  <fix>3d</fix>
</trkpt>
<trkpt lat="33.810313" lon="-118.393867">
  <ele>-0.126</ele>
  <time>2026-09-02T22:13:10Z</time>
  <course>187.19</course>
  <speed>0.03605551275463989</speed>
  <fix>3d</fix>
</trkpt>
<trkpt lat="33.810313" lon="-118.393867">
  <ele>-0.12</ele>
  <time>2026-09-02T22:13:10Z</time>
  <course>0.0</course>
  <speed>0.0</speed>
  <fix>3d</fix>
</trkpt>
<trkpt lat="33.810313" lon="-118.393867">
  <ele>-0.124</ele>
  <time>2026-09-02T22:13:10Z</time>
  <course>187.18</course>
  <speed>0.03605551275463989</speed>
  <fix>3d</fix>
</trkpt>
<trkpt lat="33.810313" lon="-118.393867">
  <ele>-0.12</ele>
  <time>2026-09-02T22:13:10Z</time>
  <course>0.0</course>
  <speed>0.0</speed>
  <fix>3d</fix>
</trkpt>
<trkpt lat="33.810313" lon="-118.393867">
  <ele>-0.123</ele>
  <time>2026-09-02T22:13:10Z</time>
  <course>187.18</course>
  <speed>0.03605551275463989</speed>
  <fix>3d</fix>
</trkpt>
<trkpt lat="33.810313" lon="-118.393867">
  <ele>-0.12</ele>
  <time>2026-09-02T22:13:10Z</time>
  <course>0.0</course>
  <speed>0.0</speed>
  <fix>3d</fix>
</trkpt>
<trkpt lat="33.810313" lon="-118.393867">
  <ele>-0.123</ele>
  <time>2026-09-02T22:13:10Z</time>
  <course>187.17</course>
  <speed>0.03605551275463989</speed>
  <fix>3d</fix>
</trkpt>
<trkpt lat="33.810313" lon="-118.393867">
  <ele>-0.12</ele>
  <time>2026-09-02T22:13:10Z</time>
  <course>0.0</course>
  <speed>0.0</speed>
  <fix>3d</fix>
</trkpt>
<trkpt lat="33.810313" lon="-118.393867">
  <ele>-0.122</ele>
  <time>2026-09-02T22:13:10Z</time>
  <course>187.17</course>
  <speed>0.0</speed>
  <fix>3d</fix>
</trkpt>
<trkpt lat="33.810313" lon="-118.393867">
  <ele>-0.12</ele>
  <time>2026-09-02T22:13:10Z</time>
  <course>0.0</course>
  <speed>0.0</speed>
  <fix>3d</fix>
</trkpt>
<trkpt lat="33.810313" lon="-118.393867">
  <ele>-0.121</ele>
  <time>2026-09-02T22:13:10Z</time>
  <course>187.16</course>
  <speed>0.0</speed>
  <fix>3d</fix>
</trkpt>
<trkpt lat="33.810313" lon="-118.393867">
  <ele>-0.12</ele>
  <time>2026-09-02T22:13:10Z</time>
  <course>0.0</course>
  <speed>0.0</speed>
  <fix>3d</fix>
</trkpt>
<trkpt lat="33.810313" lon="-118.393867">
  <ele>-0.12</ele>
  <time>2026-09-02T22:13:10Z</time>
  <course>187.16</course>
  <speed>0.0</speed>
  <fix>3d</fix>
</trkpt>
<trkpt lat="33.810313" lon="-118.393867">
  <ele>-0.12</ele>
  <time>2026-09-02T22:13:10Z</time>
  <course>0.0</course>
  <speed>0.0</speed>
  <fix>3d</fix>
</trkpt>
<trkpt lat="33.810313" lon="-118.393867">
  <ele>-0.119</ele>
  <time>2026-09-02T22:13:10Z</time>
  <course>187.15</course>
  <speed>0.0</speed>
  <fix>3d</fix>
</trkpt>
<trkpt lat="33.810313" lon="-118.393867">
  <ele>-0.12</ele>
  <time>2026-09-02T22:13:10Z</time>
  <course>0.0</course>
  <speed>0.0</speed>
  <fix>3d</fix>
</trkpt>
<trkpt lat="33.810313" lon="-118.393867">
  <ele>-0.116</ele>
  <time>2026-09-02T22:13:10Z</time>
  <course>187.15</course>
  <speed>0.0</speed>
  <fix>3d</fix>
</trkpt>
<trkpt lat="33.810313" lon="-118.393867">
  <ele>-0.12</ele>
  <time>2026-09-02T22:13:10Z</time>
  <course>0.0</course>
  <speed>0.0</speed>
  <fix>3d</fix>
</trkpt>
<trkpt lat="33.810313" lon="-118.393867">
  <ele>-0.114</ele>
  <time>2026-09-02T22:13:10Z</time>
  <course>187.14</course>
  <speed>0.0</speed>
  <fix>3d</fix>
</trkpt>
<trkpt lat="33.810313" lon="-118.393867">
  <ele>-0.12</ele>
  <time>2026-09-02T22:13:10Z</time>
  <course>0.0</course>
  <speed>0.0</speed>
  <fix>3d</fix>
</trkpt>
<trkpt lat="33.810313" lon="-118.393867">
  <ele>-0.113</ele>
  <time>2026-09-02T22:13:10Z</time>
  <course>187.14</course>
  <speed>0.0</speed>
  <fix>3d</fix>
</trkpt>
<trkpt lat="33.810313" lon="-118.393867">
  <ele>-0.12</ele>
  <time>2026-09-02T22:13:10Z</time>
  <course>0.0</course>
  <speed>0.0</speed>
  <fix>3d</fix>
</trkpt>
<trkpt lat="33.810313" lon="-118.393867">
  <ele>-0.112</ele>
  <time>2026-09-02T22:13:10Z</time>
  <course>187.13</course>
  <speed>0.0</speed>
  <fix>3d</fix>
</trkpt>
<trkpt lat="33.810313" lon="-118.393867">
  <ele>-0.12</ele>
  <time>2026-09-02T22:13:10Z</time>
  <course>0.0</course>
  <speed>0.0</speed>
  <fix>3d</fix>
</trkpt>
<trkpt lat="33.810313" lon="-118.393867">
  <ele>-0.113</ele>
  <time>2026-09-02T22:13:10Z</time>
  <course>187.13</course>
  <speed>0.0</speed>
  <fix>3d</fix>
</trkpt>
<trkpt lat="33.810313" lon="-118.393867">
  <ele>-0.12</ele>
  <time>2026-09-02T22:13:10Z</time>
  <course>0.0</course>
  <speed>0.0</speed>
  <fix>3d</fix>
</trkpt>
<trkpt lat="33.810313" lon="-118.393867">
  <ele>-0.114</ele>
  <time>2026-09-02T22:13:10Z</time>
  <course>187.12</course>
  <speed>0.0</speed>
  <fix>3d</fix>
</trkpt>
<trkpt lat="33.810313" lon="-118.393867">
  <ele>-0.12</ele>
  <time>2026-09-02T22:13:10Z</time>
  <course>0.0</course>
  <speed>0.0</speed>
  <fix>3d</fix>
</trkpt>
<trkpt lat="33.810313" lon="-118.393867">
  <ele>-0.117</ele>
  <time>2026-09-02T22:13:10Z</time>
  <course>187.12</course>
  <speed>0.0</speed>
  <fix>3d</fix>
</trkpt>
<trkpt lat="33.810313" lon="-118.393867">
  <ele>-0.12</ele>
  <time>2026-09-02T22:13:10Z</time>
  <course>0.0</course>
  <speed>0.0</speed>
  <fix>3d</fix>
</trkpt>
<trkpt lat="33.810313" lon="-118.393867">
  <ele>-0.119</ele>
  <time>2026-09-02T22:13:10Z</time>
  <course>187.11</course>
  <speed>0.01</speed>
  <fix>3d</fix>
</trkpt>
<trkpt lat="33.810313" lon="-118.393867">
  <ele>-0.12</ele>
  <time>2026-09-02T22:13:10Z</time>
  <course>0.0</course>
  <speed>0.0</speed>
  <fix>3d</fix>
</trkpt>
<trkpt lat="33.810313" lon="-118.393867">
  <ele>-0.12</ele>
  <time>2026-09-02T22:13:10Z</time>
  <course>187.11</course>
  <speed>0.01</speed>
  <fix>3d</fix>
</trkpt>
<trkpt lat="33.810313" lon="-118.393867">
  <ele>-0.12</ele>
  <time>2026-09-02T22:13:10Z</time>
  <course>0.0</course>
  <speed>0.0</speed>
  <fix>3d</fix>
</trkpt>
<trkpt lat="33.810313" lon="-118.393867">
  <ele>-0.12</ele>
  <time>2026-09-02T22:13:10Z</time>
  <course>187.11</course>
  <speed>0.01</speed>
  <fix>3d</fix>
</trkpt>
<trkpt lat="33.810313" lon="-118.393867">
  <ele>-0.121</ele>
  <time>2026-09-02T22:13:10Z</time>
  <course>187.1</course>
  <speed>0.01</speed>
  <fix>3d</fix>
</trkpt>
<trkpt lat="33.810313" lon="-118.393867">
  <ele>-0.12</ele>
  <time>2026-09-02T22:13:10Z</time>
  <course>0.0</course>
  <speed>0.0</speed>
  <fix>3d</fix>
</trkpt>
<trkpt lat="33.810313" lon="-118.393867">
  <ele>-0.122</ele>
  <time>2026-09-02T22:13:10Z</time>
  <course>187.1</course>
  <speed>0.01414213562373095</speed>
  <fix>3d</fix>
</trkpt>
<trkpt lat="33.810313" lon="-118.393867">
  <ele>-0.12</ele>
  <time>2026-09-02T22:13:10Z</time>
  <course>0.0</course>
  <speed>0.0</speed>
  <fix>3d</fix>
</trkpt>
<trkpt lat="33.810313" lon="-118.393867">
  <ele>-0.122</ele>
  <time>2026-09-02T22:13:10Z</time>
  <course>187.09</course>
  <speed>0.01414213562373095</speed>
  <fix>3d</fix>
</trkpt>
<trkpt lat="33.810313" lon="-118.393867">
  <ele>-0.12</ele>
  <time>2026-09-02T22:13:10Z</time>
  <course>0.0</course>
  <speed>0.0</speed>
  <fix>3d</fix>
</trkpt>
<trkpt lat="33.810313" lon="-118.393867">
  <ele>-0.129</ele>
  <time>2026-09-02T22:13:10Z</time>
  <course>187.09</course>
  <speed>0.01414213562373095</speed>
  <fix>3d</fix>
</trkpt>
<trkpt lat="33.810313" lon="-118.393867">
  <ele>-0.12</ele>
  <time>2026-09-02T22:13:10Z</time>
  <course>0.0</course>
  <speed>0.0</speed>
  <fix>3d</fix>
</trkpt>
<trkpt lat="33.810313" lon="-118.393867">
  <ele>-0.129</ele>
  <time>2026-09-02T22:13:10Z</time>
  <course>187.09</course>
  <speed>0.01414213562373095</speed>
  <fix>3d</fix>
</trkpt>
<trkpt lat="33.810313" lon="-118.393867">
  <ele>-0.157</ele>
  <time>2026-09-02T22:13:10Z</time>
  <course>187.08</course>
  <speed>0.01414213562373095</speed>
  <fix>3d</fix>
</trkpt>
<trkpt lat="33.810313" lon="-118.393867">
  <ele>-0.12</ele>
  <time>2026-09-02T22:13:10Z</time>
  <course>0.0</course>
  <speed>0.0</speed>
  <fix>3d</fix>
</trkpt>
<trkpt lat="33.810313" lon="-118.393867">
  <ele>-0.158</ele>
  <time>2026-09-02T22:13:10Z</time>
  <course>187.08</course>
  <speed>0.01414213562373095</speed>
  <fix>3d</fix>
</trkpt>
<trkpt lat="33.810313" lon="-118.393867">
  <ele>-0.201</ele>
  <time>2026-09-02T22:13:10Z</time>
  <course>187.08</course>
  <speed>0.01414213562373095</speed>
  <fix>3d</fix>
</trkpt>
<trkpt lat="33.810313" lon="-118.393867">
  <ele>-0.14</ele>
  <time>2026-09-02T22:13:10Z</time>
  <course>0.0</course>
  <speed>0.0</speed>
  <fix>3d</fix>
</trkpt>
<trkpt lat="33.810313" lon="-118.393867">
  <ele>-0.219</ele>
  <time>2026-09-02T22:13:10Z</time>
  <course>187.08</course>
  <speed>0.01414213562373095</speed>
  <fix>3d</fix>
</trkpt>
<trkpt lat="33.810313" lon="-118.393867">
  <ele>-0.255</ele>
  <time>2026-09-02T22:13:10Z</time>
  <course>187.07</course>
  <speed>0.01414213562373095</speed>
  <fix>3d</fix>
</trkpt>
<trkpt lat="33.810313" lon="-118.393867">
  <ele>-0.14</ele>
  <time>2026-09-02T22:13:10Z</time>
  <course>0.0</course>
  <speed>0.0</speed>
  <fix>3d</fix>
</trkpt>
<trkpt lat="33.810313" lon="-118.393867">
  <ele>-0.274</ele>
  <time>2026-09-02T22:13:10Z</time>
  <course>187.07</course>
  <speed>0.01414213562373095</speed>
  <fix>3d</fix>
</trkpt>
<trkpt lat="33.810313" lon="-118.393867">
  <ele>-0.316</ele>
  <time>2026-09-02T22:13:10Z</time>
  <course>187.07</course>
  <speed>0.01414213562373095</speed>
  <fix>3d</fix>
</trkpt>
<trkpt lat="33.810313" lon="-118.393867">
  <ele>-0.2</ele>
  <time>2026-09-02T22:13:10Z</time>
  <course>0.0</course>
  <speed>0.0</speed>
  <fix>3d</fix>
</trkpt>
<trkpt lat="33.810313" lon="-118.393867">
  <ele>-0.338</ele>
  <time>2026-09-02T22:13:10Z</time>
  <course>187.07</course>
  <speed>0.01414213562373095</speed>
  <fix>3d</fix>
</trkpt>
<trkpt lat="33.810313" lon="-118.393867">
  <ele>-0.38</ele>
  <time>2026-09-02T22:13:10Z</time>
  <course>187.06</course>
  <speed>0.01414213562373095</speed>
  <fix>3d</fix>
</trkpt>
<trkpt lat="33.810313" lon="-118.393867">
  <ele>-0.2</ele>
  <time>2026-09-02T22:13:10Z</time>
  <course>0.0</course>
  <speed>0.0</speed>
  <fix>3d</fix>
</trkpt>
<trkpt lat="33.810313" lon="-118.393867">
  <ele>-0.382</ele>
  <time>2026-09-02T22:13:10Z</time>
  <course>187.06</course>
  <speed>0.01414213562373095</speed>
  <fix>3d</fix>
</trkpt>
<trkpt lat="33.810313" lon="-118.393867">
  <ele>-0.446</ele>
  <time>2026-09-02T22:13:10Z</time>
  <course>187.06</course>
  <speed>0.01414213562373095</speed>
  <fix>3d</fix>
</trkpt>
<trkpt lat="33.810313" lon="-118.393867">
  <ele>-0.31</ele>
  <time>2026-09-02T22:13:10Z</time>
  <course>0.0</course>
  <speed>0.0</speed>
  <fix>3d</fix>
</trkpt>
<trkpt lat="33.810313" lon="-118.393867">
  <ele>-0.469</ele>
  <time>2026-09-02T22:13:10Z</time>
  <course>187.06</course>
  <speed>0.01414213562373095</speed>
  <fix>3d</fix>
</trkpt>
<trkpt lat="33.810313" lon="-118.393867">
  <ele>-0.513</ele>
  <time>2026-09-02T22:13:10Z</time>
  <course>187.05</course>
  <speed>0.01414213562373095</speed>
  <fix>3d</fix>
</trkpt>
<trkpt lat="33.810313" lon="-118.393867">
  <ele>-0.31</ele>
  <time>2026-09-02T22:13:10Z</time>
  <course>0.0</course>
  <speed>0.0</speed>
  <fix>3d</fix>
</trkpt>
<trkpt lat="33.810313" lon="-118.393867">
  <ele>-0.534</ele>
  <time>2026-09-02T22:13:10Z</time>
  <course>187.05</course>
  <speed>0.01414213562373095</speed>
  <fix>3d</fix>
</trkpt>
<trkpt lat="33.810313" lon="-118.393867">
  <ele>-0.579</ele>
  <time>2026-09-02T22:13:10Z</time>
  <course>187.05</course>
  <speed>0.01414213562373095</speed>
  <fix>3d</fix>
</trkpt>
<trkpt lat="33.810313" lon="-118.393867">
  <ele>-0.43</ele>
  <time>2026-09-02T22:13:10Z</time>
  <course>0.0</course>
  <speed>0.0</speed>
  <fix>3d</fix>
</trkpt>
<trkpt lat="33.810313" lon="-118.393867">
  <ele>-0.602</ele>
  <time>2026-09-02T22:13:10Z</time>
  <course>187.05</course>
  <speed>0.01414213562373095</speed>
  <fix>3d</fix>
</trkpt>
<trkpt lat="33.810313" lon="-118.393867">
  <ele>-0.644</ele>
  <time>2026-09-02T22:13:10Z</time>
  <course>187.05</course>
  <speed>0.01414213562373095</speed>
  <fix>3d</fix>
</trkpt>
<trkpt lat="33.810313" lon="-118.393867">
  <ele>-0.43</ele>
  <time>2026-09-02T22:13:10Z</time>
  <course>0.0</course>
  <speed>0.0</speed>
  <fix>3d</fix>
</trkpt>
<trkpt lat="33.810313" lon="-118.393867">
  <ele>-0.666</ele>
  <time>2026-09-02T22:13:10Z</time>
  <course>187.04</course>
  <speed>0.01414213562373095</speed>
  <fix>3d</fix>
</trkpt>
<trkpt lat="33.810313" lon="-118.393867">
  <ele>-0.709</ele>
  <time>2026-09-02T22:13:10Z</time>
  <course>187.04</course>
  <speed>0.01414213562373095</speed>
  <fix>3d</fix>
</trkpt>
<trkpt lat="33.810313" lon="-118.393867">
  <ele>-0.55</ele>
  <time>2026-09-02T22:13:10Z</time>
  <course>0.0</course>
  <speed>0.0</speed>
  <fix>3d</fix>
</trkpt>
<trkpt lat="33.810313" lon="-118.393867">
  <ele>-0.711</ele>
  <time>2026-09-02T22:13:10Z</time>
  <course>187.04</course>
  <speed>0.01414213562373095</speed>
  <fix>3d</fix>
</trkpt>
<trkpt lat="33.810313" lon="-118.393867">
  <ele>-0.774</ele>
  <time>2026-09-02T22:13:10Z</time>
  <course>184.84</course>
  <speed>0.01414213562373095</speed>
  <fix>3d</fix>
</trkpt>
<trkpt lat="33.810313" lon="-118.393867">
  <ele>-0.55</ele>
  <time>2026-09-02T22:13:10Z</time>
  <course>0.0</course>
  <speed>0.0</speed>
  <fix>3d</fix>
</trkpt>
<trkpt lat="33.810313" lon="-118.393867">
  <ele>-0.795</ele>
  <time>2026-09-02T22:13:10Z</time>
  <course>184.84</course>
  <speed>0.01414213562373095</speed>
  <fix>3d</fix>
</trkpt>
<trkpt lat="33.810313" lon="-118.393867">
  <ele>-0.838</ele>
  <time>2026-09-02T22:13:10Z</time>
  <course>184.83</course>
  <speed>0.01414213562373095</speed>
  <fix>3d</fix>
</trkpt>
<trkpt lat="33.810313" lon="-118.393867">
  <ele>-0.67</ele>
  <time>2026-09-02T22:13:10Z</time>
  <course>0.0</course>
  <speed>0.0</speed>
  <fix>3d</fix>
</trkpt>
<trkpt lat="33.810313" lon="-118.393867">
  <ele>-0.84</ele>
  <time>2026-09-02T22:13:10Z</time>
  <course>184.83</course>
  <speed>0.01414213562373095</speed>
  <fix>3d</fix>
</trkpt>
<trkpt lat="33.810313" lon="-118.393867">
  <ele>-0.904</ele>
  <time>2026-09-02T22:13:10Z</time>
  <course>184.83</course>
  <speed>0.01414213562373095</speed>
  <fix>3d</fix>
</trkpt>
<trkpt lat="33.810313" lon="-118.393867">
  <ele>-0.67</ele>
  <time>2026-09-02T22:13:10Z</time>
  <course>0.0</course>
  <speed>0.0</speed>
  <fix>3d</fix>
</trkpt>
<trkpt lat="33.810313" lon="-118.393867">
  <ele>-0.906</ele>
  <time>2026-09-02T22:13:10Z</time>
  <course>184.83</course>
  <speed>0.01414213562373095</speed>
  <fix>3d</fix>
</trkpt>
<trkpt lat="33.810313" lon="-118.393867">
  <ele>-0.967</ele>
  <time>2026-09-02T22:13:10Z</time>
  <course>184.83</course>
  <speed>0.01</speed>
  <fix>3d</fix>
</trkpt>
<trkpt lat="33.810313" lon="-118.393867">
  <ele>-0.79</ele>
  <time>2026-09-02T22:13:10Z</time>
  <course>0.0</course>
  <speed>0.0</speed>
  <fix>3d</fix>
</trkpt>
<trkpt lat="33.810313" lon="-118.393867">
  <ele>-0.969</ele>
  <time>2026-09-02T22:13:10Z</time>
  <course>184.83</course>
  <speed>0.01</speed>
  <fix>3d</fix>
</trkpt>
<trkpt lat="33.810313" lon="-118.393867">
  <ele>-1.031</ele>
  <time>2026-09-02T22:13:10Z</time>
  <course>184.83</course>
  <speed>0.01</speed>
  <fix>3d</fix>
</trkpt>
<trkpt lat="33.810313" lon="-118.393867">
  <ele>-0.79</ele>
  <time>2026-09-02T22:13:10Z</time>
  <course>0.0</course>
  <speed>0.0</speed>
  <fix>3d</fix>
</trkpt>
<trkpt lat="33.810313" lon="-118.393867">
  <ele>-1.033</ele>
  <time>2026-09-02T22:13:10Z</time>
  <course>184.83</course>
  <speed>0.01</speed>
  <fix>3d</fix>
</trkpt>
<trkpt lat="33.810313" lon="-118.393867">
  <ele>-1.096</ele>
  <time>2026-09-02T22:13:10Z</time>
  <course>184.82</course>
  <speed>0.01</speed>
  <fix>3d</fix>
</trkpt>
<trkpt lat="33.810313" lon="-118.393867">
  <ele>-0.91</ele>
  <time>2026-09-02T22:13:10Z</time>
  <course>0.0</course>
  <speed>0.0</speed>
  <fix>3d</fix>
</trkpt>
<trkpt lat="33.810313" lon="-118.393867">
  <ele>-1.097</ele>
  <time>2026-09-02T22:13:10Z</time>
  <course>184.82</course>
  <speed>0.01</speed>
  <fix>3d</fix>
</trkpt>
<trkpt lat="33.810313" lon="-118.393867">
  <ele>-1.159</ele>
  <time>2026-09-02T22:13:10Z</time>
  <course>184.82</course>
  <speed>0.01</speed>
  <fix>3d</fix>
</trkpt>
<trkpt lat="33.810313" lon="-118.393867">
  <ele>-0.91</ele>
  <time>2026-09-02T22:13:10Z</time>
  <course>0.0</course>
  <speed>0.0</speed>
  <fix>3d</fix>
</trkpt>
<trkpt lat="33.810313" lon="-118.393867">
  <ele>-1.161</ele>
  <time>2026-09-02T22:13:10Z</time>
  <course>184.82</course>
  <speed>0.01</speed>
  <fix>3d</fix>
</trkpt>
<trkpt lat="33.810313" lon="-118.393867">
  <ele>-1.222</ele>
  <time>2026-09-02T22:13:10Z</time>
  <course>184.82</course>
  <speed>0.01</speed>
  <fix>3d</fix>
</trkpt>
<trkpt lat="33.810313" lon="-118.393867">
  <ele>-1.03</ele>
  <time>2026-09-02T22:13:10Z</time>
  <course>0.0</course>
  <speed>0.0</speed>
  <fix>3d</fix>
</trkpt>
<trkpt lat="33.810313" lon="-118.393867">
  <ele>-1.224</ele>
  <time>2026-09-02T22:13:10Z</time>
  <course>184.82</course>
  <speed>0.01</speed>
  <fix>3d</fix>
</trkpt>
<trkpt lat="33.810313" lon="-118.393867">
  <ele>-1.286</ele>
  <time>2026-09-02T22:13:10Z</time>
  <course>184.81</course>
  <speed>0.0</speed>
  <fix>3d</fix>
</trkpt>
<trkpt lat="33.810313" lon="-118.393867">
  <ele>-1.03</ele>
  <time>2026-09-02T22:13:10Z</time>
  <course>0.0</course>
  <speed>0.0</speed>
  <fix>3d</fix>
</trkpt>
<trkpt lat="33.810313" lon="-118.393867">
  <ele>-1.288</ele>
  <time>2026-09-02T22:13:10Z</time>
  <course>184.82</course>
  <speed>0.01</speed>
  <fix>3d</fix>
</trkpt>
<trkpt lat="33.810313" lon="-118.393867">
  <ele>-1.348</ele>
  <time>2026-09-02T22:13:10Z</time>
  <course>184.81</course>
  <speed>0.0</speed>
  <fix>3d</fix>
</trkpt>
<trkpt lat="33.810313" lon="-118.393867">
  <ele>-1.15</ele>
  <time>2026-09-02T22:13:10Z</time>
  <course>0.0</course>
  <speed>0.0</speed>
  <fix>3d</fix>
</trkpt>
<trkpt lat="33.810313" lon="-118.393867">
  <ele>-1.35</ele>
  <time>2026-09-02T22:13:10Z</time>
  <course>184.81</course>
  <speed>0.0</speed>
  <fix>3d</fix>
</trkpt>
<trkpt lat="33.810313" lon="-118.393867">
  <ele>-1.41</ele>
  <time>2026-09-02T22:13:10Z</time>
  <course>184.81</course>
  <speed>0.0</speed>
  <fix>3d</fix>
</trkpt>
<trkpt lat="33.810313" lon="-118.393867">
  <ele>-1.15</ele>
  <time>2026-09-02T22:13:10Z</time>
  <course>0.0</course>
  <speed>0.0</speed>
  <fix>3d</fix>
</trkpt>
<trkpt lat="33.810313" lon="-118.393867">
  <ele>-1.412</ele>
  <time>2026-09-02T22:13:10Z</time>
  <course>184.81</course>
  <speed>0.0</speed>
  <fix>3d</fix>
</trkpt>
<trkpt lat="33.810313" lon="-118.393867">
  <ele>-1.472</ele>
  <time>2026-09-02T22:13:10Z</time>
  <course>184.81</course>
  <speed>0.0</speed>
  <fix>3d</fix>
</trkpt>
<trkpt lat="33.810313" lon="-118.393867">
  <ele>-1.27</ele>
  <time>2026-09-02T22:13:10Z</time>
  <course>0.0</course>
  <speed>0.0</speed>
  <fix>3d</fix>
</trkpt>
<trkpt lat="33.810313" lon="-118.393867">
  <ele>-1.474</ele>
  <time>2026-09-02T22:13:10Z</time>
  <course>184.81</course>
  <speed>0.0</speed>
  <fix>3d</fix>
</trkpt>
<trkpt lat="33.810313" lon="-118.393867">
  <ele>-1.534</ele>
  <time>2026-09-02T22:13:10Z</time>
  <course>184.8</course>
  <speed>0.0</speed>
  <fix>3d</fix>
</trkpt>
<trkpt lat="33.810313" lon="-118.393867">
  <ele>-1.27</ele>
  <time>2026-09-02T22:13:10Z</time>
  <course>0.0</course>
  <speed>0.0</speed>
  <fix>3d</fix>
</trkpt>
<trkpt lat="33.810313" lon="-118.393867">
  <ele>-1.537</ele>
  <time>2026-09-02T22:13:10Z</time>
  <course>184.8</course>
  <speed>0.0</speed>
  <fix>3d</fix>
</trkpt>
<trkpt lat="33.810313" lon="-118.393867">
  <ele>-1.595</ele>
  <time>2026-09-02T22:13:10Z</time>
  <course>184.8</course>
  <speed>0.0</speed>
  <fix>3d</fix>
</trkpt>
<trkpt lat="33.810313" lon="-118.393867">
  <ele>-1.39</ele>
  <time>2026-09-02T22:13:10Z</time>
  <course>0.0</course>
  <speed>0.0</speed>
  <fix>3d</fix>
</trkpt>
<trkpt lat="33.810313" lon="-118.393867">
  <ele>-1.597</ele>
  <time>2026-09-02T22:13:10Z</time>
  <course>184.8</course>
  <speed>0.0</speed>
  <fix>3d</fix>
</trkpt>
<trkpt lat="33.810313" lon="-118.393867">
  <ele>-1.658</ele>
  <time>2026-09-02T22:13:10Z</time>
  <course>184.8</course>
  <speed>0.0</speed>
  <fix>3d</fix>
</trkpt>
<trkpt lat="33.810313" lon="-118.393867">
  <ele>-1.39</ele>
  <time>2026-09-02T22:13:10Z</time>
  <course>0.0</course>
  <speed>0.0</speed>
  <fix>3d</fix>
</trkpt>
<trkpt lat="33.810313" lon="-118.393867">
  <ele>-1.659</ele>
  <time>2026-09-02T22:13:10Z</time>
  <course>184.8</course>
  <speed>0.0</speed>
  <fix>3d</fix>
</trkpt>
<trkpt lat="33.810313" lon="-118.393867">
  <ele>-1.72</ele>
  <time>2026-09-02T22:13:10Z</time>
  <course>184.79</course>
  <speed>0.0</speed>
  <fix>3d</fix>
</trkpt>
<trkpt lat="33.810313" lon="-118.393867">
  <ele>-1.51</ele>
  <time>2026-09-02T22:13:10Z</time>
  <course>0.0</course>
  <speed>0.0</speed>
  <fix>3d</fix>
</trkpt>
<trkpt lat="33.810313" lon="-118.393867">
  <ele>-1.721</ele>
  <time>2026-09-02T22:13:10Z</time>
  <course>184.79</course>
  <speed>0.0</speed>
  <fix>3d</fix>
</trkpt>
<trkpt lat="33.810313" lon="-118.393867">
  <ele>-1.78</ele>
  <time>2026-09-02T22:13:10Z</time>
  <course>184.79</course>
  <speed>0.0</speed>
  <fix>3d</fix>
</trkpt>
<trkpt lat="33.810313" lon="-118.393867">
  <ele>-1.51</ele>
  <time>2026-09-02T22:13:10Z</time>
  <course>0.0</course>
  <speed>0.0</speed>
  <fix>3d</fix>
</trkpt>
<trkpt lat="33.810313" lon="-118.393867">
  <ele>-1.782</ele>
  <time>2026-09-02T22:13:10Z</time>
  <course>184.79</course>
  <speed>0.0</speed>
  <fix>3d</fix>
</trkpt>
<trkpt lat="33.810313" lon="-118.393867">
  <ele>-1.84</ele>
  <time>2026-09-02T22:13:10Z</time>
  <course>184.8</course>
  <speed>0.0</speed>
  <fix>3d</fix>
</trkpt>
<trkpt lat="33.810313" lon="-118.393867">
  <ele>-1.64</ele>
  <time>2026-09-02T22:13:10Z</time>
  <course>0.0</course>
  <speed>0.0</speed>
  <fix>3d</fix>
</trkpt>
<trkpt lat="33.810313" lon="-118.393867">
  <ele>-1.86</ele>
  <time>2026-09-02T22:13:10Z</time>
  <course>184.81</course>
  <speed>0.0</speed>
  <fix>3d</fix>
</trkpt>
<trkpt lat="33.810313" lon="-118.393867">
  <ele>-1.9</ele>
  <time>2026-09-02T22:13:10Z</time>
  <course>184.81</course>
  <speed>0.0</speed>
  <fix>3d</fix>
</trkpt>
<trkpt lat="33.810313" lon="-118.393867">
  <ele>-1.64</ele>
  <time>2026-09-02T22:13:10Z</time>
  <course>0.0</course>
  <speed>0.0</speed>
  <fix>3d</fix>
</trkpt>
<trkpt lat="33.810313" lon="-118.393867">
  <ele>-1.919</ele>
  <time>2026-09-02T22:13:10Z</time>
  <course>184.82</course>
  <speed>0.0</speed>
  <fix>3d</fix>
</trkpt>
<trkpt lat="33.810313" lon="-118.393867">
  <ele>-1.959</ele>
  <time>2026-09-02T22:13:10Z</time>
  <course>184.82</course>
  <speed>0.0</speed>
  <fix>3d</fix>
</trkpt>
<trkpt lat="33.810313" lon="-118.393867">
  <ele>-1.76</ele>
  <time>2026-09-02T22:13:10Z</time>
  <course>0.0</course>
  <speed>0.0</speed>
  <fix>3d</fix>
</trkpt>
<trkpt lat="33.810313" lon="-118.393867">
  <ele>-1.978</ele>
  <time>2026-09-02T22:13:10Z</time>
  <course>184.83</course>
  <speed>0.0</speed>
  <fix>3d</fix>
</trkpt>
<trkpt lat="33.810313" lon="-118.393867">
  <ele>-2.019</ele>
  <time>2026-09-02T22:13:10Z</time>
  <course>184.83</course>
  <speed>0.0</speed>
  <fix>3d</fix>
</trkpt>
<trkpt lat="33.810313" lon="-118.393867">
  <ele>-1.76</ele>
  <time>2026-09-02T22:13:10Z</time>
  <course>0.0</course>
  <speed>0.0</speed>
  <fix>3d</fix>
</trkpt>
<trkpt lat="33.810313" lon="-118.393867">
  <ele>-2.036</ele>
  <time>2026-09-02T22:13:10Z</time>
  <course>184.84</course>
  <speed>0.0</speed>
  <fix>3d</fix>
</trkpt>
<trkpt lat="33.810313" lon="-118.393867">
  <ele>-2.078</ele>
  <time>2026-09-02T22:13:10Z</time>
  <course>184.85</course>
  <speed>0.0</speed>
  <fix>3d</fix>
</trkpt>
<trkpt lat="33.810313" lon="-118.393867">
  <ele>-1.88</ele>
  <time>2026-09-02T22:13:10Z</time>
  <course>0.0</course>
  <speed>0.0</speed>
  <fix>3d</fix>
</trkpt>
<trkpt lat="33.810313" lon="-118.393867">
  <ele>-2.097</ele>
  <time>2026-09-02T22:13:10Z</time>
  <course>184.85</course>
  <speed>0.0</speed>
  <fix>3d</fix>
</trkpt>
<trkpt lat="33.810313" lon="-118.393867">
  <ele>-2.138</ele>
  <time>2026-09-02T22:13:10Z</time>
  <course>184.86</course>
  <speed>0.0</speed>
  <fix>3d</fix>
</trkpt>
<trkpt lat="33.810313" lon="-118.393867">
  <ele>-1.88</ele>
  <time>2026-09-02T22:13:10Z</time>
  <course>0.0</course>
  <speed>0.0</speed>
  <fix>3d</fix>
</trkpt>
<trkpt lat="33.810313" lon="-118.393867">
  <ele>-2.139</ele>
  <time>2026-09-02T22:13:10Z</time>
  <course>184.86</course>
  <speed>0.0</speed>
  <fix>3d</fix>
</trkpt>
<trkpt lat="33.810313" lon="-118.393867">
  <ele>-2.196</ele>
  <time>2026-09-02T22:13:10Z</time>
  <course>184.87</course>
  <speed>0.0</speed>
  <fix>3d</fix>
</trkpt>
<trkpt lat="33.810313" lon="-118.393867">
  <ele>-2.0</ele>
  <time>2026-09-02T22:13:10Z</time>
  <course>0.0</course>
  <speed>0.0</speed>
  <fix>3d</fix>
</trkpt>
<trkpt lat="33.810313" lon="-118.393867">
  <ele>-2.217</ele>
  <time>2026-09-02T22:13:10Z</time>
  <course>184.87</course>
  <speed>0.0</speed>
  <fix>3d</fix>
</trkpt>
<trkpt lat="33.810313" lon="-118.393867">
  <ele>-2.256</ele>
  <time>2026-09-02T22:13:10Z</time>
  <course>184.88</course>
  <speed>0.0</speed>
  <fix>3d</fix>
</trkpt>
<trkpt lat="33.810313" lon="-118.393867">
  <ele>-2.0</ele>
  <time>2026-09-02T22:13:10Z</time>
  <course>0.0</course>
  <speed>0.0</speed>
  <fix>3d</fix>
</trkpt>
<trkpt lat="33.810313" lon="-118.393867">
  <ele>-2.258</ele>
  <time>2026-09-02T22:13:10Z</time>
  <course>184.88</course>
  <speed>0.0</speed>
  <fix>3d</fix>
</trkpt>
<trkpt lat="33.810313" lon="-118.393867">
  <ele>-2.315</ele>
  <time>2026-09-02T22:13:10Z</time>
  <course>184.89</course>
  <speed>0.0</speed>
  <fix>3d</fix>
</trkpt>
<trkpt lat="33.810313" lon="-118.393867">
  <ele>-2.12</ele>
  <time>2026-09-02T22:13:10Z</time>
  <course>0.0</course>
  <speed>0.0</speed>
  <fix>3d</fix>
</trkpt>
<trkpt lat="33.810313" lon="-118.393867">
  <ele>-2.316</ele>
  <time>2026-09-02T22:13:10Z</time>
  <course>184.89</course>
  <speed>0.0</speed>
  <fix>3d</fix>
</trkpt>
<trkpt lat="33.810313" lon="-118.393867">
  <ele>-2.375</ele>
  <time>2026-09-02T22:13:10Z</time>
  <course>184.9</course>
  <speed>0.0</speed>
  <fix>3d</fix>
</trkpt>
<trkpt lat="33.810313" lon="-118.393867">
  <ele>-2.12</ele>
  <time>2026-09-02T22:13:10Z</time>
  <course>0.0</course>
  <speed>0.0</speed>
  <fix>3d</fix>
</trkpt>
<trkpt lat="33.810313" lon="-118.393867">
  <ele>-2.395</ele>
  <time>2026-09-02T22:13:10Z</time>
  <course>184.91</course>
  <speed>0.0</speed>
  <fix>3d</fix>
</trkpt>
<trkpt lat="33.810313" lon="-118.393867">
  <ele>-2.435</ele>
  <time>2026-09-02T22:13:10Z</time>
  <course>184.91</course>
  <speed>0.0</speed>
  <fix>3d</fix>
</trkpt>
<trkpt lat="33.810313" lon="-118.393867">
  <ele>-2.24</ele>
  <time>2026-09-02T22:13:10Z</time>
  <course>0.0</course>
  <speed>0.0</speed>
  <fix>3d</fix>
</trkpt>
<trkpt lat="33.810313" lon="-118.393867">
  <ele>-2.456</ele>
  <time>2026-09-02T22:13:10Z</time>
  <course>184.92</course>
  <speed>0.0</speed>
  <fix>3d</fix>
</trkpt>
<trkpt lat="33.810313" lon="-118.393867">
  <ele>-2.497</ele>
  <time>2026-09-02T22:13:10Z</time>
  <course>184.93</course>
  <speed>0.0</speed>
  <fix>3d</fix>
</trkpt>
<trkpt lat="33.810313" lon="-118.393867">
  <ele>-2.24</ele>
  <time>2026-09-02T22:13:10Z</time>
  <course>0.0</course>
  <speed>0.0</speed>
  <fix>3d</fix>
</trkpt>
<trkpt lat="33.810313" lon="-118.393867">
  <ele>-2.518</ele>
  <time>2026-09-02T22:13:10Z</time>
  <course>184.93</course>
  <speed>0.0</speed>
  <fix>3d</fix>
</trkpt>
<trkpt lat="33.810313" lon="-118.393867">
  <ele>-2.558</ele>
  <time>2026-09-02T22:13:10Z</time>
  <course>184.94</course>
  <speed>0.0</speed>
  <fix>3d</fix>
</trkpt>
<trkpt lat="33.810313" lon="-118.393867">
  <ele>-2.36</ele>
  <time>2026-09-02T22:13:10Z</time>
  <course>0.0</course>
  <speed>0.0</speed>
  <fix>3d</fix>
</trkpt>
<trkpt lat="33.810313" lon="-118.393867">
  <ele>-2.579</ele>
  <time>2026-09-02T22:13:10Z</time>
  <course>184.94</course>
  <speed>0.0</speed>
  <fix>3d</fix>
</trkpt>
<trkpt lat="33.810313" lon="-118.393867">
  <ele>-2.62</ele>
  <time>2026-09-02T22:13:10Z</time>
  <course>184.95</course>
  <speed>0.0</speed>
  <fix>3d</fix>
</trkpt>
<trkpt lat="33.810313" lon="-118.393867">
  <ele>-2.36</ele>
  <time>2026-09-02T22:13:10Z</time>
  <course>0.0</course>
  <speed>0.0</speed>
  <fix>3d</fix>
</trkpt>
<trkpt lat="33.810313" lon="-118.393867">
  <ele>-2.64</ele>
  <time>2026-09-02T22:13:10Z</time>
  <course>184.95</course>
  <speed>0.0</speed>
  <fix>3d</fix>
</trkpt>
<trkpt lat="33.810313" lon="-118.393867">
  <ele>-2.681</ele>
  <time>2026-09-02T22:13:10Z</time>
  <course>184.96</course>
  <speed>0.0</speed>
  <fix>3d</fix>
</trkpt>
<trkpt lat="33.810313" lon="-118.393867">
  <ele>-2.48</ele>
  <time>2026-09-02T22:13:10Z</time>
  <course>0.0</course>
  <speed>0.0</speed>
  <fix>3d</fix>
</trkpt>
<trkpt lat="33.810313" lon="-118.393867">
  <ele>-2.701</ele>
  <time>2026-09-02T22:13:10Z</time>
  <course>184.96</course>
  <speed>0.0</speed>
  <fix>3d</fix>
</trkpt>
<trkpt lat="33.810313" lon="-118.393867">
  <ele>-2.742</ele>
  <time>2026-09-02T22:13:10Z</time>
  <course>184.97</course>
  <speed>0.0</speed>
  <fix>3d</fix>
</trkpt>
<trkpt lat="33.810313" lon="-118.393867">
  <ele>-2.48</ele>
  <time>2026-09-02T22:13:10Z</time>
  <course>0.0</course>
  <speed>0.0</speed>
  <fix>3d</fix>
</trkpt>
<trkpt lat="33.810313" lon="-118.393867">
  <ele>-2.743</ele>
  <time>2026-09-02T22:13:10Z</time>
  <course>184.97</course>
  <speed>0.0</speed>
  <fix>3d</fix>
</trkpt>
<trkpt lat="33.810313" lon="-118.393867">
  <ele>-2.803</ele>
  <time>2026-09-02T22:13:10Z</time>
  <course>184.98</course>
  <speed>0.0</speed>
  <fix>3d</fix>
</trkpt>
<trkpt lat="33.810313" lon="-118.393867">
  <ele>-2.6</ele>
  <time>2026-09-02T22:13:10Z</time>
  <course>0.0</course>
  <speed>0.0</speed>
  <fix>3d</fix>
</trkpt>
<trkpt lat="33.810313" lon="-118.393867">
  <ele>-2.822</ele>
  <time>2026-09-02T22:13:10Z</time>
  <course>184.99</course>
  <speed>0.0</speed>
  <fix>3d</fix>
</trkpt>
<trkpt lat="33.810313" lon="-118.393867">
  <ele>-2.863</ele>
  <time>2026-09-02T22:13:10Z</time>
  <course>184.99</course>
  <speed>0.0</speed>
  <fix>3d</fix>
</trkpt>
<trkpt lat="33.810313" lon="-118.393867">
  <ele>-2.6</ele>
  <time>2026-09-02T22:13:10Z</time>
  <course>0.0</course>
  <speed>0.0</speed>
  <fix>3d</fix>
</trkpt>
<trkpt lat="33.810313" lon="-118.393867">
  <ele>-2.865</ele>
  <time>2026-09-02T22:13:10Z</time>
  <course>184.99</course>
  <speed>0.0</speed>
  <fix>3d</fix>
</trkpt>
<trkpt lat="33.810313" lon="-118.393867">
  <ele>-2.924</ele>
  <time>2026-09-02T22:13:10Z</time>
  <course>185.01</course>
  <speed>0.0</speed>
  <fix>3d</fix>
</trkpt>
<trkpt lat="33.810313" lon="-118.393867">
  <ele>-2.72</ele>
  <time>2026-09-02T22:13:10Z</time>
  <course>0.0</course>
  <speed>0.0</speed>
  <fix>3d</fix>
</trkpt>
<trkpt lat="33.810313" lon="-118.393867">
  <ele>-2.945</ele>
  <time>2026-09-02T22:13:10Z</time>
  <course>185.01</course>
  <speed>0.0</speed>
  <fix>3d</fix>
</trkpt>
<trkpt lat="33.810313" lon="-118.393867">
  <ele>-2.986</ele>
  <time>2026-09-02T22:13:10Z</time>
  <course>185.02</course>
  <speed>0.0</speed>
  <fix>3d</fix>
</trkpt>
<trkpt lat="33.810313" lon="-118.393867">
  <ele>-2.72</ele>
  <time>2026-09-02T22:13:10Z</time>
  <course>0.0</course>
  <speed>0.0</speed>
  <fix>3d</fix>
</trkpt>
<trkpt lat="33.810313" lon="-118.393867">
  <ele>-2.988</ele>
  <time>2026-09-02T22:13:10Z</time>
  <course>185.02</course>
  <speed>0.0</speed>
  <fix>3d</fix>
</trkpt>
<trkpt lat="33.810313" lon="-118.393867">
  <ele>-3.048</ele>
  <time>2026-09-02T22:13:10Z</time>
  <course>185.03</course>
  <speed>0.0</speed>
  <fix>3d</fix>
</trkpt>
<trkpt lat="33.810313" lon="-118.393867">
  <ele>-2.84</ele>
  <time>2026-09-02T22:13:10Z</time>
  <course>0.0</course>
  <speed>0.0</speed>
  <fix>3d</fix>
</trkpt>
<trkpt lat="33.810313" lon="-118.393867">
  <ele>-3.05</ele>
  <time>2026-09-02T22:13:10Z</time>
  <course>185.03</course>
  <speed>0.0</speed>
  <fix>3d</fix>
</trkpt>
<trkpt lat="33.810313" lon="-118.393867">
  <ele>-3.11</ele>
  <time>2026-09-02T22:13:10Z</time>
  <course>185.04</course>
  <speed>0.01</speed>
  <fix>3d</fix>
</trkpt>
<trkpt lat="33.810313" lon="-118.393867">
  <ele>-2.84</ele>
  <time>2026-09-02T22:13:10Z</time>
  <course>0.0</course>
  <speed>0.0</speed>
  <fix>3d</fix>
</trkpt>
<trkpt lat="33.810313" lon="-118.393867">
  <ele>-3.131</ele>
  <time>2026-09-02T22:13:10Z</time>
  <course>185.05</course>
  <speed>0.01</speed>
  <fix>3d</fix>
</trkpt>
<trkpt lat="33.810313" lon="-118.393867">
  <ele>-3.173</ele>
  <time>2026-09-02T22:13:10Z</time>
  <course>185.05</course>
  <speed>0.01</speed>
  <fix>3d</fix>
</trkpt>
<trkpt lat="33.810313" lon="-118.393867">
  <ele>-2.96</ele>
  <time>2026-09-02T22:13:10Z</time>
  <course>0.0</course>
  <speed>0.0</speed>
  <fix>3d</fix>
</trkpt>
<trkpt lat="33.810313" lon="-118.393867">
  <ele>-3.194</ele>
  <time>2026-09-02T22:13:10Z</time>
  <course>185.06</course>
  <speed>0.01</speed>
  <fix>3d</fix>
</trkpt>
<trkpt lat="33.810313" lon="-118.393867">
  <ele>-3.235</ele>
  <time>2026-09-02T22:13:10Z</time>
  <course>185.06</course>
  <speed>0.01</speed>
  <fix>3d</fix>
</trkpt>
<trkpt lat="33.810313" lon="-118.393867">
  <ele>-2.96</ele>
  <time>2026-09-02T22:13:10Z</time>
  <course>0.0</course>
  <speed>0.0</speed>
  <fix>3d</fix>
</trkpt>
<trkpt lat="33.810313" lon="-118.393867">
  <ele>-3.257</ele>
  <time>2026-09-02T22:13:10Z</time>
  <course>185.07</course>
  <speed>0.01</speed>
  <fix>3d</fix>
</trkpt>
<trkpt lat="33.810313" lon="-118.393867">
  <ele>-3.299</ele>
  <time>2026-09-02T22:13:10Z</time>
  <course>185.08</course>
  <speed>0.01</speed>
  <fix>3d</fix>
</trkpt>
<trkpt lat="33.810313" lon="-118.393867">
  <ele>-3.08</ele>
  <time>2026-09-02T22:13:10Z</time>
  <course>0.0</course>
  <speed>0.0</speed>
  <fix>3d</fix>
</trkpt>
<trkpt lat="33.810313" lon="-118.393867">
  <ele>-3.319</ele>
  <time>2026-09-02T22:13:10Z</time>
  <course>185.08</course>
  <speed>0.01</speed>
  <fix>3d</fix>
</trkpt>
<trkpt lat="33.810313" lon="-118.393867">
  <ele>-3.364</ele>
  <time>2026-09-02T22:13:10Z</time>
  <course>185.09</course>
  <speed>0.01</speed>
  <fix>3d</fix>
</trkpt>
<trkpt lat="33.810313" lon="-118.393867">
  <ele>-3.08</ele>
  <time>2026-09-02T22:13:10Z</time>
  <course>0.0</course>
  <speed>0.0</speed>
  <fix>3d</fix>
</trkpt>
<trkpt lat="33.810313" lon="-118.393867">
  <ele>-3.385</ele>
  <time>2026-09-02T22:13:10Z</time>
  <course>185.09</course>
  <speed>0.01</speed>
  <fix>3d</fix>
</trkpt>
<trkpt lat="33.810313" lon="-118.393867">
  <ele>-3.429</ele>
  <time>2026-09-02T22:13:10Z</time>
  <course>185.1</course>
  <speed>0.01</speed>
  <fix>3d</fix>
</trkpt>
<trkpt lat="33.810313" lon="-118.393867">
  <ele>-3.2</ele>
  <time>2026-09-02T22:13:10Z</time>
  <course>0.0</course>
  <speed>0.0</speed>
  <fix>3d</fix>
</trkpt>
<trkpt lat="33.810313" lon="-118.393867">
  <ele>-3.431</ele>
  <time>2026-09-02T22:13:10Z</time>
  <course>185.1</course>
  <speed>0.01</speed>
  <fix>3d</fix>
</trkpt>
<trkpt lat="33.810313" lon="-118.393867">
  <ele>-3.493</ele>
  <time>2026-09-02T22:13:10Z</time>
  <course>185.11</course>
  <speed>0.01</speed>
  <fix>3d</fix>
</trkpt>
<trkpt lat="33.810313" lon="-118.393867">
  <ele>-3.2</ele>
  <time>2026-09-02T22:13:10Z</time>
  <course>0.0</course>
  <speed>0.0</speed>
  <fix>3d</fix>
</trkpt>
<trkpt lat="33.810313" lon="-118.393867">
  <ele>-3.495</ele>
  <time>2026-09-02T22:13:10Z</time>
  <course>185.11</course>
  <speed>0.01</speed>
  <fix>3d</fix>
</trkpt>
<trkpt lat="33.810313" lon="-118.393867">
  <ele>-3.557</ele>
  <time>2026-09-02T22:13:10Z</time>
  <course>185.12</course>
  <speed>0.01</speed>
  <fix>3d</fix>
</trkpt>
<trkpt lat="33.810313" lon="-118.393867">
  <ele>-3.32</ele>
  <time>2026-09-02T22:13:10Z</time>
  <course>0.0</course>
  <speed>0.0</speed>
  <fix>3d</fix>
</trkpt>
<trkpt lat="33.810313" lon="-118.393867">
  <ele>-3.58</ele>
  <time>2026-09-02T22:13:10Z</time>
  <course>185.13</course>
  <speed>0.01</speed>
  <fix>3d</fix>
</trkpt>
<trkpt lat="33.810313" lon="-118.393867">
  <ele>-3.622</ele>
  <time>2026-09-02T22:13:10Z</time>
  <course>185.14</course>
  <speed>0.01</speed>
  <fix>3d</fix>
</trkpt>
<trkpt lat="33.810313" lon="-118.393867">
  <ele>-3.32</ele>
  <time>2026-09-02T22:13:10Z</time>
  <course>0.0</course>
  <speed>0.0</speed>
  <fix>3d</fix>
</trkpt>
<trkpt lat="33.810313" lon="-118.393867">
  <ele>-3.642</ele>
  <time>2026-09-02T22:13:10Z</time>
  <course>185.14</course>
  <speed>0.01414213562373095</speed>
  <fix>3d</fix>
</trkpt>
<trkpt lat="33.810313" lon="-118.393867">
  <ele>-3.685</ele>
  <time>2026-09-02T22:13:10Z</time>
  <course>185.15</course>
  <speed>0.01414213562373095</speed>
  <fix>3d</fix>
</trkpt>
<trkpt lat="33.810313" lon="-118.393867">
  <ele>-3.45</ele>
  <time>2026-09-02T22:13:10Z</time>
  <course>0.0</course>
  <speed>0.0</speed>
  <fix>3d</fix>
</trkpt>
<trkpt lat="33.810313" lon="-118.393867">
  <ele>-3.707</ele>
  <time>2026-09-02T22:13:10Z</time>
  <course>185.15</course>
  <speed>0.01414213562373095</speed>
  <fix>3d</fix>
</trkpt>
<trkpt lat="33.810313" lon="-118.393867">
  <ele>-3.746</ele>
  <time>2026-09-02T22:13:10Z</time>
  <course>185.16</course>
  <speed>0.01414213562373095</speed>
  <fix>3d</fix>
</trkpt>
<trkpt lat="33.810313" lon="-118.393867">
  <ele>-3.45</ele>
  <time>2026-09-02T22:13:10Z</time>
  <course>0.0</course>
  <speed>0.0</speed>
  <fix>3d</fix>
</trkpt>
<trkpt lat="33.810313" lon="-118.393867">
  <ele>-3.767</ele>
  <time>2026-09-02T22:13:10Z</time>
  <course>185.16</course>
  <speed>0.01414213562373095</speed>
  <fix>3d</fix>
</trkpt>
<trkpt lat="33.810313" lon="-118.393867">
  <ele>-3.808</ele>
  <time>2026-09-02T22:13:10Z</time>
  <course>185.17</course>
  <speed>0.01414213562373095</speed>
  <fix>3d</fix>
</trkpt>
<trkpt lat="33.810313" lon="-118.393867">
  <ele>-3.57</ele>
  <time>2026-09-02T22:13:10Z</time>
  <course>0.0</course>
  <speed>0.0</speed>
  <fix>3d</fix>
</trkpt>
<trkpt lat="33.810313" lon="-118.393867">
  <ele>-3.829</ele>
  <time>2026-09-02T22:13:10Z</time>
  <course>185.18</course>
  <speed>0.01414213562373095</speed>
  <fix>3d</fix>
</trkpt>
<trkpt lat="33.810313" lon="-118.393867">
  <ele>-3.87</ele>
  <time>2026-09-02T22:13:10Z</time>
  <course>185.18</course>
  <speed>0.01414213562373095</speed>
  <fix>3d</fix>
</trkpt>
<trkpt lat="33.810313" lon="-118.393867">
  <ele>-3.57</ele>
  <time>2026-09-02T22:13:10Z</time>
  <course>0.0</course>
  <speed>0.0</speed>
  <fix>3d</fix>
</trkpt>
<trkpt lat="33.810313" lon="-118.393867">
  <ele>-3.872</ele>
  <time>2026-09-02T22:13:10Z</time>
  <course>185.18</course>
  <speed>0.01414213562373095</speed>
  <fix>3d</fix>
</trkpt>
<trkpt lat="33.810313" lon="-118.393867">
  <ele>-3.932</ele>
  <time>2026-09-02T22:13:10Z</time>
  <course>185.2</course>
  <speed>0.01414213562373095</speed>
  <fix>3d</fix>
</trkpt>
<trkpt lat="33.810313" lon="-118.393867">
  <ele>-3.69</ele>
  <time>2026-09-02T22:13:10Z</time>
  <course>0.0</course>
  <speed>0.0</speed>
  <fix>3d</fix>
</trkpt>
<trkpt lat="33.810313" lon="-118.393867">
  <ele>-3.952</ele>
  <time>2026-09-02T22:13:10Z</time>
  <course>185.2</course>
  <speed>0.01414213562373095</speed>
  <fix>3d</fix>
</trkpt>
<trkpt lat="33.810313" lon="-118.393867">
  <ele>-3.993</ele>
  <time>2026-09-02T22:13:10Z</time>
  <course>185.21</course>
  <speed>0.01414213562373095</speed>
  <fix>3d</fix>
</trkpt>
<trkpt lat="33.810313" lon="-118.393867">
  <ele>-3.69</ele>
  <time>2026-09-02T22:13:10Z</time>
  <course>0.0</course>
  <speed>0.0</speed>
  <fix>3d</fix>
</trkpt>
<trkpt lat="33.810313" lon="-118.393867">
  <ele>-4.013</ele>
  <time>2026-09-02T22:13:10Z</time>
  <course>185.21</course>
  <speed>0.01414213562373095</speed>
  <fix>3d</fix>
</trkpt>
<trkpt lat="33.810313" lon="-118.393867">
  <ele>-4.055</ele>
  <time>2026-09-02T22:13:10Z</time>
  <course>185.22</course>
  <speed>0.01414213562373095</speed>
  <fix>3d</fix>
</trkpt>
<trkpt lat="33.810313" lon="-118.393867">
  <ele>-3.81</ele>
  <time>2026-09-02T22:13:10Z</time>
  <course>0.0</course>
  <speed>0.0</speed>
  <fix>3d</fix>
</trkpt>
<trkpt lat="33.810313" lon="-118.393867">
  <ele>-4.056</ele>
  <time>2026-09-02T22:13:10Z</time>
  <course>185.22</course>
  <speed>0.01414213562373095</speed>
  <fix>3d</fix>
</trkpt>
<trkpt lat="33.810313" lon="-118.393867">
  <ele>-4.115</ele>
  <time>2026-09-02T22:13:10Z</time>
  <course>185.23</course>
  <speed>0.01414213562373095</speed>
  <fix>3d</fix>
</trkpt>
<trkpt lat="33.810313" lon="-118.393867">
  <ele>-3.81</ele>
  <time>2026-09-02T22:13:10Z</time>
  <course>0.0</course>
  <speed>0.0</speed>
  <fix>3d</fix>
</trkpt>
<trkpt lat="33.810313" lon="-118.393867">
  <ele>-4.117</ele>
  <time>2026-09-02T22:13:10Z</time>
  <course>185.23</course>
  <speed>0.01414213562373095</speed>
  <fix>3d</fix>
</trkpt>
<trkpt lat="33.810313" lon="-118.393867">
  <ele>-4.176</ele>
  <time>2026-09-02T22:13:10Z</time>
  <course>185.24</course>
  <speed>0.01414213562373095</speed>
  <fix>3d</fix>
</trkpt>
<trkpt lat="33.810313" lon="-118.393867">
  <ele>-3.92</ele>
  <time>2026-09-02T22:13:10Z</time>
  <course>0.0</course>
  <speed>0.0</speed>
  <fix>3d</fix>
</trkpt>
<trkpt lat="33.810313" lon="-118.393867">
  <ele>-4.196</ele>
  <time>2026-09-02T22:13:10Z</time>
  <course>185.25</course>
  <speed>0.01414213562373095</speed>
  <fix>3d</fix>
</trkpt>
<trkpt lat="33.810313" lon="-118.393867">
  <ele>-4.237</ele>
  <time>2026-09-02T22:13:10Z</time>
  <course>185.26</course>
  <speed>0.01414213562373095</speed>
  <fix>3d</fix>
</trkpt>
<trkpt lat="33.810313" lon="-118.393867">
  <ele>-3.92</ele>
  <time>2026-09-02T22:13:10Z</time>
  <course>0.0</course>
  <speed>0.0</speed>
  <fix>3d</fix>
</trkpt>
<trkpt lat="33.810313" lon="-118.393867">
  <ele>-4.257</ele>
  <time>2026-09-02T22:13:10Z</time>
  <course>185.26</course>
  <speed>0.01414213562373095</speed>
  <fix>3d</fix>
</trkpt>
<trkpt lat="33.810313" lon="-118.393867">
  <ele>-4.299</ele>
  <time>2026-09-02T22:13:10Z</time>
  <course>185.27</course>
  <speed>0.01414213562373095</speed>
  <fix>3d</fix>
</trkpt>
<trkpt lat="33.810313" lon="-118.393867">
  <ele>-4.05</ele>
  <time>2026-09-02T22:13:10Z</time>
  <course>0.0</course>
  <speed>0.0</speed>
  <fix>3d</fix>
</trkpt>
<trkpt lat="33.810313" lon="-118.393867">
  <ele>-4.32</ele>
  <time>2026-09-02T22:13:10Z</time>
  <course>185.27</course>
  <speed>0.01414213562373095</speed>
  <fix>3d</fix>
</trkpt>
<trkpt lat="33.810313" lon="-118.393867">
  <ele>-4.361</ele>
  <time>2026-09-02T22:13:10Z</time>
  <course>185.28</course>
  <speed>0.01414213562373095</speed>
  <fix>3d</fix>
</trkpt>
<trkpt lat="33.810313" lon="-118.393867">
  <ele>-4.05</ele>
  <time>2026-09-02T22:13:10Z</time>
  <course>0.0</course>
  <speed>0.0</speed>
  <fix>3d</fix>
</trkpt>
<trkpt lat="33.810313" lon="-118.393867">
  <ele>-4.382</ele>
  <time>2026-09-02T22:13:10Z</time>
  <course>185.28</course>
  <speed>0.01414213562373095</speed>
  <fix>3d</fix>
</trkpt>
<trkpt lat="33.810313" lon="-118.393867">
  <ele>-4.424</ele>
  <time>2026-09-02T22:13:10Z</time>
  <course>185.29</course>
  <speed>0.01414213562373095</speed>
  <fix>3d</fix>
</trkpt>
<trkpt lat="33.810313" lon="-118.393867">
  <ele>-4.17</ele>
  <time>2026-09-02T22:13:10Z</time>
  <course>0.0</course>
  <speed>0.0</speed>
  <fix>3d</fix>
</trkpt>
<trkpt lat="33.810313" lon="-118.393867">
  <ele>-4.446</ele>
  <time>2026-09-02T22:13:10Z</time>
  <course>185.3</course>
  <speed>0.01414213562373095</speed>
  <fix>3d</fix>
</trkpt>
<trkpt lat="33.810313" lon="-118.393867">
  <ele>-4.487</ele>
  <time>2026-09-02T22:13:10Z</time>
  <course>185.3</course>
  <speed>0.01414213562373095</speed>
  <fix>3d</fix>
</trkpt>
<trkpt lat="33.810313" lon="-118.393867">
  <ele>-4.17</ele>
  <time>2026-09-02T22:13:10Z</time>
  <course>0.0</course>
  <speed>0.0</speed>
  <fix>3d</fix>
</trkpt>
<trkpt lat="33.810313" lon="-118.393867">
  <ele>-4.508</ele>
  <time>2026-09-02T22:13:10Z</time>
  <course>185.31</course>
  <speed>0.01414213562373095</speed>
  <fix>3d</fix>
</trkpt>
<trkpt lat="33.810313" lon="-118.393867">
  <ele>-4.549</ele>
  <time>2026-09-02T22:13:10Z</time>
  <course>185.32</course>
  <speed>0.01414213562373095</speed>
  <fix>3d</fix>
</trkpt>
<trkpt lat="33.810313" lon="-118.393867">
  <ele>-4.29</ele>
  <time>2026-09-02T22:13:10Z</time>
  <course>0.0</course>
  <speed>0.0</speed>
  <fix>3d</fix>
</trkpt>
<trkpt lat="33.810313" lon="-118.393867">
  <ele>-4.569</ele>
  <time>2026-09-02T22:13:10Z</time>
  <course>185.32</course>
  <speed>0.01414213562373095</speed>
  <fix>3d</fix>
</trkpt>
<trkpt lat="33.810313" lon="-118.393867">
  <ele>-4.611</ele>
  <time>2026-09-02T22:13:10Z</time>
  <course>185.33</course>
  <speed>0.01414213562373095</speed>
  <fix>3d</fix>
</trkpt>
<trkpt lat="33.810313" lon="-118.393867">
  <ele>-4.29</ele>
  <time>2026-09-02T22:13:10Z</time>
  <course>0.0</course>
  <speed>0.0</speed>
  <fix>3d</fix>
</trkpt>
<trkpt lat="33.810313" lon="-118.393867">
  <ele>-4.612</ele>
  <time>2026-09-02T22:13:10Z</time>
  <course>185.33</course>
  <speed>0.01414213562373095</speed>
  <fix>3d</fix>
</trkpt>
<trkpt lat="33.810313" lon="-118.393867">
  <ele>-4.672</ele>
  <time>2026-09-02T22:13:10Z</time>
  <course>185.34</course>
  <speed>0.01414213562373095</speed>
  <fix>3d</fix>
</trkpt>
<trkpt lat="33.810313" lon="-118.393867">
  <ele>-4.41</ele>
  <time>2026-09-02T22:13:10Z</time>
  <course>0.0</course>
  <speed>0.0</speed>
  <fix>3d</fix>
</trkpt>
<trkpt lat="33.810313" lon="-118.393867">
  <ele>-4.692</ele>
  <time>2026-09-02T22:13:10Z</time>
  <course>185.34</course>
  <speed>0.01414213562373095</speed>
  <fix>3d</fix>
</trkpt>
<trkpt lat="33.810313" lon="-118.393867">
  <ele>-4.736</ele>
  <time>2026-09-02T22:13:10Z</time>
  <course>185.35</course>
  <speed>0.01414213562373095</speed>
  <fix>3d</fix>
</trkpt>
<trkpt lat="33.810313" lon="-118.393867">
  <ele>-4.41</ele>
  <time>2026-09-02T22:13:10Z</time>
  <course>0.0</course>
  <speed>0.0</speed>
  <fix>3d</fix>
</trkpt>
<trkpt lat="33.810313" lon="-118.393867">
  <ele>-4.737</ele>
  <time>2026-09-02T22:13:10Z</time>
  <course>185.35</course>
  <speed>0.01414213562373095</speed>
  <fix>3d</fix>
</trkpt>
<trkpt lat="33.8103131" lon="-118.3938671">
  <ele>-4.797</ele>
  <time>2026-09-02T22:13:10Z</time>
  <course>185.36</course>
  <speed>0.01414213562373095</speed>
  <fix>3d</fix>
</trkpt>
<trkpt lat="33.810313" lon="-118.393867">
  <ele>-4.52</ele>
  <time>2026-09-02T22:13:10Z</time>
  <course>0.0</course>
  <speed>0.0</speed>
  <fix>3d</fix>
</trkpt>
<trkpt lat="33.8103131" lon="-118.3938671">
  <ele>-4.819</ele>
  <time>2026-09-02T22:13:10Z</time>
  <course>185.37</course>
  <speed>0.01414213562373095</speed>
  <fix>3d</fix>
</trkpt>
<trkpt lat="33.8103131" lon="-118.3938671">
  <ele>-4.859</ele>
  <time>2026-09-02T22:13:10Z</time>
  <course>185.38</course>
  <speed>0.01414213562373095</speed>
  <fix>3d</fix>
</trkpt>
<trkpt lat="33.810313" lon="-118.393867">
  <ele>-4.52</ele>
  <time>2026-09-02T22:13:10Z</time>
  <course>0.0</course>
  <speed>0.0</speed>
  <fix>3d</fix>
</trkpt>
<trkpt lat="33.8103131" lon="-118.3938671">
  <ele>-4.881</ele>
  <time>2026-09-02T22:13:10Z</time>
  <course>185.38</course>
  <speed>0.01414213562373095</speed>
  <fix>3d</fix>
</trkpt>
<trkpt lat="33.8103131" lon="-118.3938671">
  <ele>-4.921</ele>
  <time>2026-09-02T22:13:10Z</time>
  <course>185.39</course>
  <speed>0.01414213562373095</speed>
  <fix>3d</fix>
</trkpt>
<trkpt lat="33.810313" lon="-118.393867">
  <ele>-4.65</ele>
  <time>2026-09-02T22:13:10Z</time>
  <course>0.0</course>
  <speed>0.0</speed>
  <fix>3d</fix>
</trkpt>
<trkpt lat="33.8103131" lon="-118.3938671">
  <ele>-4.943</ele>
  <time>2026-09-02T22:13:10Z</time>
  <course>185.39</course>
  <speed>0.01414213562373095</speed>
  <fix>3d</fix>
</trkpt>
<trkpt lat="33.8103131" lon="-118.3938671">
  <ele>-4.983</ele>
  <time>2026-09-02T22:13:10Z</time>
  <course>185.4</course>
  <speed>0.01414213562373095</speed>
  <fix>3d</fix>
</trkpt>
<trkpt lat="33.810313" lon="-118.393867">
  <ele>-4.65</ele>
  <time>2026-09-02T22:13:10Z</time>
  <course>0.0</course>
  <speed>0.0</speed>
  <fix>3d</fix>
</trkpt>
<trkpt lat="33.8103131" lon="-118.3938671">
  <ele>-5.004</ele>
  <time>2026-09-02T22:13:10Z</time>
  <course>185.4</course>
  <speed>0.01414213562373095</speed>
  <fix>3d</fix>
</trkpt>
<trkpt lat="33.8103131" lon="-118.3938671">
  <ele>-5.044</ele>
  <time>2026-09-02T22:13:10Z</time>
  <course>185.41</course>
  <speed>0.01414213562373095</speed>
  <fix>3d</fix>
</trkpt>
<trkpt lat="33.810313" lon="-118.393867">
  <ele>-4.77</ele>
  <time>2026-09-02T22:13:10Z</time>
  <course>0.0</course>
  <speed>0.0</speed>
  <fix>3d</fix>
</trkpt>
<trkpt lat="33.8103131" lon="-118.3938671">
  <ele>-5.066</ele>
  <time>2026-09-02T22:13:10Z</time>
  <course>185.42</course>
  <speed>0.01414213562373095</speed>
  <fix>3d</fix>
</trkpt>
<trkpt lat="33.8103131" lon="-118.3938671">
  <ele>-5.106</ele>
  <time>2026-09-02T22:13:10Z</time>
  <course>185.42</course>
  <speed>0.01414213562373095</speed>
  <fix>3d</fix>
</trkpt>
<trkpt lat="33.810313" lon="-118.393867">
  <ele>-4.77</ele>
  <time>2026-09-02T22:13:10Z</time>
  <course>0.0</course>
  <speed>0.0</speed>
  <fix>3d</fix>
</trkpt>
<trkpt lat="33.8103131" lon="-118.3938671">
  <ele>-5.127</ele>
  <time>2026-09-02T22:13:10Z</time>
  <course>185.43</course>
  <speed>0.01414213562373095</speed>
  <fix>3d</fix>
</trkpt>
<trkpt lat="33.8103131" lon="-118.3938671">
  <ele>-5.168</ele>
  <time>2026-09-02T22:13:10Z</time>
  <course>185.44</course>
  <speed>0.01414213562373095</speed>
  <fix>3d</fix>
</trkpt>
<trkpt lat="33.810313" lon="-118.393867">
  <ele>-4.89</ele>
  <time>2026-09-02T22:13:10Z</time>
  <course>0.0</course>
  <speed>0.0</speed>
  <fix>3d</fix>
</trkpt>
<trkpt lat="33.8103131" lon="-118.3938671">
  <ele>-5.191</ele>
  <time>2026-09-02T22:13:10Z</time>
  <course>185.44</course>
  <speed>0.01414213562373095</speed>
  <fix>3d</fix>
</trkpt>
<trkpt lat="33.8103131" lon="-118.3938671">
  <ele>-5.229</ele>
  <time>2026-09-02T22:13:10Z</time>
  <course>185.45</course>
  <speed>0.022360679774997897</speed>
  <fix>3d</fix>
</trkpt>
<trkpt lat="33.810313" lon="-118.393867">
  <ele>-4.89</ele>
  <time>2026-09-02T22:13:10Z</time>
  <course>0.0</course>
  <speed>0.0</speed>
  <fix>3d</fix>
</trkpt>
<trkpt lat="33.8103131" lon="-118.3938671">
  <ele>-5.251</ele>
  <time>2026-09-02T22:13:10Z</time>
  <course>185.45</course>
  <speed>0.022360679774997897</speed>
  <fix>3d</fix>
</trkpt>
<trkpt lat="33.8103131" lon="-118.3938671">
  <ele>-5.293</ele>
  <time>2026-09-02T22:13:10Z</time>
  <course>185.46</course>
  <speed>0.022360679774997897</speed>
  <fix>3d</fix>
</trkpt>
<trkpt lat="33.810313" lon="-118.393867">
  <ele>-5.01</ele>
  <time>2026-09-02T22:13:10Z</time>
  <course>0.0</course>
  <speed>0.0</speed>
  <fix>3d</fix>
</trkpt>
<trkpt lat="33.8103131" lon="-118.3938671">
  <ele>-5.315</ele>
  <time>2026-09-02T22:13:10Z</time>
  <course>185.47</course>
  <speed>0.022360679774997897</speed>
  <fix>3d</fix>
</trkpt>
<trkpt lat="33.8103131" lon="-118.3938671">
  <ele>-5.356</ele>
  <time>2026-09-02T22:13:10Z</time>
  <course>185.47</course>
  <speed>0.022360679774997897</speed>
  <fix>3d</fix>
</trkpt>
<trkpt lat="33.810313" lon="-118.393867">
  <ele>-5.01</ele>
  <time>2026-09-02T22:13:10Z</time>
  <course>0.0</course>
  <speed>0.0</speed>
  <fix>3d</fix>
</trkpt>
<trkpt lat="33.8103131" lon="-118.3938671">
  <ele>-5.379</ele>
  <time>2026-09-02T22:13:10Z</time>
  <course>185.48</course>
  <speed>0.022360679774997897</speed>
  <fix>3d</fix>
</trkpt>
<trkpt lat="33.8103131" lon="-118.3938671">
  <ele>-5.419</ele>
  <time>2026-09-02T22:13:10Z</time>
  <course>185.48</course>
  <speed>0.022360679774997897</speed>
  <fix>3d</fix>
</trkpt>
<trkpt lat="33.810313" lon="-118.393867">
  <ele>-5.13</ele>
  <time>2026-09-02T22:13:10Z</time>
  <course>0.0</course>
  <speed>0.0</speed>
  <fix>3d</fix>
</trkpt>
<trkpt lat="33.8103131" lon="-118.3938671">
  <ele>-5.421</ele>
  <time>2026-09-02T22:13:10Z</time>
  <course>185.49</course>
  <speed>0.022360679774997897</speed>
  <fix>3d</fix>
</trkpt>
<trkpt lat="33.8103131" lon="-118.3938671">
  <ele>-5.482</ele>
  <time>2026-09-02T22:13:10Z</time>
  <course>185.5</course>
  <speed>0.022360679774997897</speed>
  <fix>3d</fix>
</trkpt>
<trkpt lat="33.810313" lon="-118.393867">
  <ele>-5.13</ele>
  <time>2026-09-02T22:13:10Z</time>
  <course>0.0</course>
  <speed>0.0</speed>
  <fix>3d</fix>
</trkpt>
<trkpt lat="33.8103131" lon="-118.3938671">
  <ele>-5.503</ele>
  <time>2026-09-02T22:13:10Z</time>
  <course>185.5</course>
  <speed>0.022360679774997897</speed>
  <fix>3d</fix>
</trkpt>
<trkpt lat="33.8103131" lon="-118.3938671">
  <ele>-5.543</ele>
  <time>2026-09-02T22:13:10Z</time>
  <course>185.51</course>
  <speed>0.022360679774997897</speed>
  <fix>3d</fix>
</trkpt>
<trkpt lat="33.810313" lon="-118.393867">
  <ele>-5.26</ele>
  <time>2026-09-02T22:13:10Z</time>
  <course>0.0</course>
  <speed>0.0</speed>
  <fix>3d</fix>
</trkpt>
<trkpt lat="33.8103131" lon="-118.3938671">
  <ele>-5.565</ele>
  <time>2026-09-02T22:13:10Z</time>
  <course>185.51</course>
  <speed>0.022360679774997897</speed>
  <fix>3d</fix>
</trkpt>
<trkpt lat="33.8103131" lon="-118.3938671">
  <ele>-5.604</ele>
  <time>2026-09-02T22:13:10Z</time>
  <course>185.52</course>
  <speed>0.022360679774997897</speed>
  <fix>3d</fix>
</trkpt>
<trkpt lat="33.810313" lon="-118.393867">
  <ele>-5.26</ele>
  <time>2026-09-02T22:13:10Z</time>
  <course>0.0</course>
  <speed>0.0</speed>
  <fix>3d</fix>
</trkpt>
<trkpt lat="33.8103131" lon="-118.3938671">
  <ele>-5.623</ele>
  <time>2026-09-02T22:13:10Z</time>
  <course>185.53</course>
  <speed>0.022360679774997897</speed>
  <fix>3d</fix>
</trkpt>
<trkpt lat="33.8103131" lon="-118.3938671">
  <ele>-5.664</ele>
  <time>2026-09-02T22:13:10Z</time>
  <course>185.53</course>
  <speed>0.022360679774997897</speed>
  <fix>3d</fix>
</trkpt>
<trkpt lat="33.810313" lon="-118.393867">
  <ele>-5.38</ele>
  <time>2026-09-02T22:13:10Z</time>
  <course>0.0</course>
  <speed>0.0</speed>
  <fix>3d</fix>
</trkpt>
<trkpt lat="33.8103131" lon="-118.3938671">
  <ele>-5.685</ele>
  <time>2026-09-02T22:13:10Z</time>
  <course>185.54</course>
  <speed>0.022360679774997897</speed>
  <fix>3d</fix>
</trkpt>
<trkpt lat="33.8103131" lon="-118.3938671">
  <ele>-5.724</ele>
  <time>2026-09-02T22:13:10Z</time>
  <course>185.55</course>
  <speed>0.022360679774997897</speed>
  <fix>3d</fix>
</trkpt>
<trkpt lat="33.810313" lon="-118.393867">
  <ele>-5.38</ele>
  <time>2026-09-02T22:13:10Z</time>
  <course>0.0</course>
  <speed>0.0</speed>
  <fix>3d</fix>
</trkpt>
<trkpt lat="33.8103131" lon="-118.3938671">
  <ele>-5.744</ele>
  <time>2026-09-02T22:13:10Z</time>
  <course>185.55</course>
  <speed>0.022360679774997897</speed>
  <fix>3d</fix>
</trkpt>
<trkpt lat="33.8103131" lon="-118.3938671">
  <ele>-5.784</ele>
  <time>2026-09-02T22:13:10Z</time>
  <course>185.56</course>
  <speed>0.022360679774997897</speed>
  <fix>3d</fix>
</trkpt>
<trkpt lat="33.810313" lon="-118.393867">
  <ele>-5.5</ele>
  <time>2026-09-02T22:13:10Z</time>
  <course>0.0</course>
  <speed>0.0</speed>
  <fix>3d</fix>
</trkpt>
<trkpt lat="33.8103131" lon="-118.3938671">
  <ele>-5.804</ele>
  <time>2026-09-02T22:13:10Z</time>
  <course>185.56</course>
  <speed>0.022360679774997897</speed>
  <fix>3d</fix>
</trkpt>
<trkpt lat="33.8103131" lon="-118.3938671">
  <ele>-5.844</ele>
  <time>2026-09-02T22:13:10Z</time>
  <course>185.57</course>
  <speed>0.022360679774997897</speed>
  <fix>3d</fix>
</trkpt>
<trkpt lat="33.810313" lon="-118.393867">
  <ele>-5.5</ele>
  <time>2026-09-02T22:13:10Z</time>
  <course>0.0</course>
  <speed>0.0</speed>
  <fix>3d</fix>
</trkpt>
<trkpt lat="33.8103131" lon="-118.3938671">
  <ele>-5.864</ele>
  <time>2026-09-02T22:13:10Z</time>
  <course>185.57</course>
  <speed>0.022360679774997897</speed>
  <fix>3d</fix>
</trkpt>
<trkpt lat="33.8103131" lon="-118.3938671">
  <ele>-5.904</ele>
  <time>2026-09-02T22:13:10Z</time>
  <course>185.58</course>
  <speed>0.022360679774997897</speed>
  <fix>3d</fix>
</trkpt>
<trkpt lat="33.810313" lon="-118.393867">
  <ele>-5.62</ele>
  <time>2026-09-02T22:13:10Z</time>
  <course>0.0</course>
  <speed>0.0</speed>
  <fix>3d</fix>
</trkpt>
<trkpt lat="33.8103131" lon="-118.3938671">
  <ele>-5.924</ele>
  <time>2026-09-02T22:13:10Z</time>
  <course>185.59</course>
  <speed>0.022360679774997897</speed>
  <fix>3d</fix>
</trkpt>
<trkpt lat="33.8103131" lon="-118.3938671">
  <ele>-5.964</ele>
  <time>2026-09-02T22:13:10Z</time>
  <course>185.59</course>
  <speed>0.022360679774997897</speed>
  <fix>3d</fix>
</trkpt>
<trkpt lat="33.810313" lon="-118.393867">
  <ele>-5.62</ele>
  <time>2026-09-02T22:13:10Z</time>
  <course>0.0</course>
  <speed>0.0</speed>
  <fix>3d</fix>
</trkpt>
<trkpt lat="33.8103131" lon="-118.3938671">
  <ele>-5.986</ele>
  <time>2026-09-02T22:13:10Z</time>
  <course>185.6</course>
  <speed>0.022360679774997897</speed>
  <fix>3d</fix>
</trkpt>
<trkpt lat="33.8103131" lon="-118.3938671">
  <ele>-6.025</ele>
  <time>2026-09-02T22:13:10Z</time>
  <course>185.61</course>
  <speed>0.022360679774997897</speed>
  <fix>3d</fix>
</trkpt>
<trkpt lat="33.810313" lon="-118.393867">
  <ele>-5.74</ele>
  <time>2026-09-02T22:13:10Z</time>
  <course>0.0</course>
  <speed>0.0</speed>
  <fix>3d</fix>
</trkpt>
<trkpt lat="33.8103131" lon="-118.3938671">
  <ele>-6.027</ele>
  <time>2026-09-02T22:13:10Z</time>
  <course>185.61</course>
  <speed>0.0282842712474619</speed>
  <fix>3d</fix>
</trkpt>
<trkpt lat="33.8103131" lon="-118.3938671">
  <ele>-6.087</ele>
  <time>2026-09-02T22:13:10Z</time>
  <course>185.62</course>
  <speed>0.0282842712474619</speed>
  <fix>3d</fix>
</trkpt>
<trkpt lat="33.810313" lon="-118.393867">
  <ele>-5.74</ele>
  <time>2026-09-02T22:13:10Z</time>
  <course>0.0</course>
  <speed>0.0</speed>
  <fix>3d</fix>
</trkpt>
<trkpt lat="33.8103131" lon="-118.3938671">
  <ele>-6.108</ele>
  <time>2026-09-02T22:13:10Z</time>
  <course>185.62</course>
  <speed>0.0282842712474619</speed>
  <fix>3d</fix>
</trkpt>
<trkpt lat="33.8103131" lon="-118.3938671">
  <ele>-6.149</ele>
  <time>2026-09-02T22:13:10Z</time>
  <course>185.63</course>
  <speed>0.0282842712474619</speed>
  <fix>3d</fix>
</trkpt>
<trkpt lat="33.810313" lon="-118.393867">
  <ele>-5.86</ele>
  <time>2026-09-02T22:13:10Z</time>
  <course>0.0</course>
  <speed>0.0</speed>
  <fix>3d</fix>
</trkpt>
<trkpt lat="33.8103131" lon="-118.3938671">
  <ele>-6.172</ele>
  <time>2026-09-02T22:13:10Z</time>
  <course>185.63</course>
  <speed>0.0282842712474619</speed>
  <fix>3d</fix>
</trkpt>
<trkpt lat="33.8103131" lon="-118.3938671">
  <ele>-6.21</ele>
  <time>2026-09-02T22:13:10Z</time>
  <course>185.64</course>
  <speed>0.0282842712474619</speed>
  <fix>3d</fix>
</trkpt>
<trkpt lat="33.810313" lon="-118.393867">
  <ele>-5.86</ele>
  <time>2026-09-02T22:13:10Z</time>
  <course>0.0</course>
  <speed>0.0</speed>
  <fix>3d</fix>
</trkpt>
<trkpt lat="33.8103131" lon="-118.3938671">
  <ele>-6.232</ele>
  <time>2026-09-02T22:13:10Z</time>
  <course>185.65</course>
  <speed>0.0282842712474619</speed>
  <fix>3d</fix>
</trkpt>
<trkpt lat="33.8103131" lon="-118.3938671">
  <ele>-6.273</ele>
  <time>2026-09-02T22:13:10Z</time>
  <course>185.65</course>
  <speed>0.0282842712474619</speed>
  <fix>3d</fix>
</trkpt>
<trkpt lat="33.810313" lon="-118.393867">
  <ele>-5.98</ele>
  <time>2026-09-02T22:13:10Z</time>
  <course>0.0</course>
  <speed>0.0</speed>
  <fix>3d</fix>
</trkpt>
<trkpt lat="33.8103131" lon="-118.3938671">
  <ele>-6.294</ele>
  <time>2026-09-02T22:13:10Z</time>
  <course>185.66</course>
  <speed>0.0282842712474619</speed>
  <fix>3d</fix>
</trkpt>
<trkpt lat="33.8103131" lon="-118.3938671">
  <ele>-6.335</ele>
  <time>2026-09-02T22:13:10Z</time>
  <course>185.67</course>
  <speed>0.0282842712474619</speed>
  <fix>3d</fix>
</trkpt>
<trkpt lat="33.810313" lon="-118.393867">
  <ele>-5.98</ele>
  <time>2026-09-02T22:13:10Z</time>
  <course>0.0</course>
  <speed>0.0</speed>
  <fix>3d</fix>
</trkpt>
<trkpt lat="33.8103131" lon="-118.3938671">
  <ele>-6.357</ele>
  <time>2026-09-02T22:13:10Z</time>
  <course>185.67</course>
  <speed>0.0282842712474619</speed>
  <fix>3d</fix>
</trkpt>
<trkpt lat="33.8103131" lon="-118.3938671">
  <ele>-6.398</ele>
  <time>2026-09-02T22:13:10Z</time>
  <course>185.68</course>
  <speed>0.0282842712474619</speed>
  <fix>3d</fix>
</trkpt>
<trkpt lat="33.810313" lon="-118.393867">
  <ele>-6.1</ele>
  <time>2026-09-02T22:13:10Z</time>
  <course>0.0</course>
  <speed>0.0</speed>
  <fix>3d</fix>
</trkpt>
<trkpt lat="33.8103131" lon="-118.3938671">
  <ele>-6.421</ele>
  <time>2026-09-02T22:13:10Z</time>
  <course>185.68</course>
  <speed>0.0282842712474619</speed>
  <fix>3d</fix>
</trkpt>
<trkpt lat="33.8103131" lon="-118.3938671">
  <ele>-6.462</ele>
  <time>2026-09-02T22:13:10Z</time>
  <course>185.69</course>
  <speed>0.0282842712474619</speed>
  <fix>3d</fix>
</trkpt>
<trkpt lat="33.810313" lon="-118.393867">
  <ele>-6.1</ele>
  <time>2026-09-02T22:13:10Z</time>
  <course>0.0</course>
  <speed>0.0</speed>
  <fix>3d</fix>
</trkpt>
<trkpt lat="33.8103131" lon="-118.3938671">
  <ele>-6.484</ele>
  <time>2026-09-02T22:13:10Z</time>
  <course>185.69</course>
  <speed>0.0282842712474619</speed>
  <fix>3d</fix>
</trkpt>
<trkpt lat="33.8103131" lon="-118.3938671">
  <ele>-6.525</ele>
  <time>2026-09-02T22:13:10Z</time>
  <course>185.7</course>
  <speed>0.0282842712474619</speed>
  <fix>3d</fix>
</trkpt>
<trkpt lat="33.810313" lon="-118.393867">
  <ele>-6.22</ele>
  <time>2026-09-02T22:13:10Z</time>
  <course>0.0</course>
  <speed>0.0</speed>
  <fix>3d</fix>
</trkpt>
<trkpt lat="33.8103131" lon="-118.3938671">
  <ele>-6.551</ele>
  <time>2026-09-02T22:13:10Z</time>
  <course>185.71</course>
  <speed>0.0282842712474619</speed>
  <fix>3d</fix>
</trkpt>
<trkpt lat="33.8103131" lon="-118.3938671">
  <ele>-6.589</ele>
  <time>2026-09-02T22:13:10Z</time>
  <course>185.71</course>
  <speed>0.0282842712474619</speed>
  <fix>3d</fix>
</trkpt>
<trkpt lat="33.810313" lon="-118.393867">
  <ele>-6.22</ele>
  <time>2026-09-02T22:13:10Z</time>
  <course>0.0</course>
  <speed>0.0</speed>
  <fix>3d</fix>
</trkpt>
<trkpt lat="33.8103131" lon="-118.3938671">
  <ele>-6.591</ele>
  <time>2026-09-02T22:13:10Z</time>
  <course>185.71</course>
  <speed>0.0282842712474619</speed>
  <fix>3d</fix>
</trkpt>
<trkpt lat="33.8103131" lon="-118.3938671">
  <ele>-6.653</ele>
  <time>2026-09-02T22:13:10Z</time>
  <course>185.73</course>
  <speed>0.0282842712474619</speed>
  <fix>3d</fix>
</trkpt>
<trkpt lat="33.810313" lon="-118.393867">
  <ele>-6.34</ele>
  <time>2026-09-02T22:13:10Z</time>
  <course>0.0</course>
  <speed>0.0</speed>
  <fix>3d</fix>
</trkpt>
<trkpt lat="33.8103132" lon="-118.3938671">
  <ele>-6.654</ele>
  <time>2026-09-02T22:13:10Z</time>
  <course>185.73</course>
  <speed>0.0282842712474619</speed>
  <fix>3d</fix>
</trkpt>
<trkpt lat="33.8103132" lon="-118.3938671">
  <ele>-6.715</ele>
  <time>2026-09-02T22:13:10Z</time>
  <course>185.74</course>
  <speed>0.0282842712474619</speed>
  <fix>3d</fix>
</trkpt>
<trkpt lat="33.810313" lon="-118.393867">
  <ele>-6.34</ele>
  <time>2026-09-02T22:13:10Z</time>
  <course>0.0</course>
  <speed>0.0</speed>
  <fix>3d</fix>
</trkpt>
<trkpt lat="33.8103132" lon="-118.3938671">
  <ele>-6.74</ele>
  <time>2026-09-02T22:13:10Z</time>
  <course>185.74</course>
  <speed>0.0282842712474619</speed>
  <fix>3d</fix>
</trkpt>
<trkpt lat="33.8103132" lon="-118.3938671">
  <ele>-6.777</ele>
  <time>2026-09-02T22:13:10Z</time>
  <course>185.75</course>
  <speed>0.0282842712474619</speed>
  <fix>3d</fix>
</trkpt>
<trkpt lat="33.810313" lon="-118.393867">
  <ele>-6.46</ele>
  <time>2026-09-02T22:13:10Z</time>
  <course>0.0</course>
  <speed>0.0</speed>
  <fix>3d</fix>
</trkpt>
<trkpt lat="33.8103132" lon="-118.3938671">
  <ele>-6.801</ele>
  <time>2026-09-02T22:13:10Z</time>
  <course>185.75</course>
  <speed>0.0282842712474619</speed>
  <fix>3d</fix>
</trkpt>
<trkpt lat="33.8103132" lon="-118.3938671">
  <ele>-6.839</ele>
  <time>2026-09-02T22:13:10Z</time>
  <course>185.76</course>
  <speed>0.0282842712474619</speed>
  <fix>3d</fix>
</trkpt>
<trkpt lat="33.810313" lon="-118.393867">
  <ele>-6.46</ele>
  <time>2026-09-02T22:13:10Z</time>
  <course>0.0</course>
  <speed>0.0</speed>
  <fix>3d</fix>
</trkpt>
<trkpt lat="33.8103132" lon="-118.3938671">
  <ele>-6.863</ele>
  <time>2026-09-02T22:13:10Z</time>
  <course>185.76</course>
  <speed>0.0282842712474619</speed>
  <fix>3d</fix>
</trkpt>
<trkpt lat="33.8103132" lon="-118.3938671">
  <ele>-6.901</ele>
  <time>2026-09-02T22:13:10Z</time>
  <course>185.77</course>
  <speed>0.0282842712474619</speed>
  <fix>3d</fix>
</trkpt>
<trkpt lat="33.810313" lon="-118.393867">
  <ele>-6.58</ele>
  <time>2026-09-02T22:13:10Z</time>
  <course>0.0</course>
  <speed>0.0</speed>
  <fix>3d</fix>
</trkpt>
<trkpt lat="33.8103132" lon="-118.3938671">
  <ele>-6.922</ele>
  <time>2026-09-02T22:13:10Z</time>
  <course>185.78</course>
  <speed>0.0282842712474619</speed>
  <fix>3d</fix>
</trkpt>
<trkpt lat="33.8103132" lon="-118.3938671">
  <ele>-6.963</ele>
  <time>2026-09-02T22:13:10Z</time>
  <course>185.78</course>
  <speed>0.0282842712474619</speed>
  <fix>3d</fix>
</trkpt>
<trkpt lat="33.810313" lon="-118.393867">
  <ele>-6.58</ele>
  <time>2026-09-02T22:13:10Z</time>
  <course>0.0</course>
  <speed>0.0</speed>
  <fix>3d</fix>
</trkpt>
<trkpt lat="33.8103132" lon="-118.3938671">
  <ele>-6.984</ele>
  <time>2026-09-02T22:13:10Z</time>
  <course>185.79</course>
  <speed>0.0282842712474619</speed>
  <fix>3d</fix>
</trkpt>
<trkpt lat="33.8103132" lon="-118.3938671">
  <ele>-7.025</ele>
  <time>2026-09-02T22:13:10Z</time>
  <course>185.79</course>
  <speed>0.0282842712474619</speed>
  <fix>3d</fix>
</trkpt>
<trkpt lat="33.810313" lon="-118.393867">
  <ele>-6.7</ele>
  <time>2026-09-02T22:13:10Z</time>
  <course>0.0</course>
  <speed>0.0</speed>
  <fix>3d</fix>
</trkpt>
<trkpt lat="33.8103132" lon="-118.3938671">
  <ele>-7.047</ele>
  <time>2026-09-02T22:13:10Z</time>
  <course>185.8</course>
  <speed>0.0282842712474619</speed>
  <fix>3d</fix>
</trkpt>
<trkpt lat="33.8103132" lon="-118.3938672">
  <ele>-7.086</ele>
  <time>2026-09-02T22:13:10Z</time>
  <course>185.81</course>
  <speed>0.0282842712474619</speed>
  <fix>3d</fix>
</trkpt>
<trkpt lat="33.810313" lon="-118.393867">
  <ele>-6.7</ele>
  <time>2026-09-02T22:13:10Z</time>
  <course>0.0</course>
  <speed>0.0</speed>
  <fix>3d</fix>
</trkpt>
<trkpt lat="33.8103132" lon="-118.3938672">
  <ele>-7.109</ele>
  <time>2026-09-02T22:13:10Z</time>
  <course>185.81</course>
  <speed>0.0282842712474619</speed>
  <fix>3d</fix>
</trkpt>
<trkpt lat="33.8103132" lon="-118.3938672">
  <ele>-7.15</ele>
  <time>2026-09-02T22:13:10Z</time>
  <course>185.82</course>
  <speed>0.0282842712474619</speed>
  <fix>3d</fix>
</trkpt>
<trkpt lat="33.810313" lon="-118.393867">
  <ele>-6.82</ele>
  <time>2026-09-02T22:13:10Z</time>
  <course>0.0</course>
  <speed>0.0</speed>
  <fix>3d</fix>
</trkpt>
<trkpt lat="33.8103132" lon="-118.3938672">
  <ele>-7.17</ele>
  <time>2026-09-02T22:13:10Z</time>
  <course>185.82</course>
  <speed>0.0282842712474619</speed>
  <fix>3d</fix>
</trkpt>
<trkpt lat="33.8103132" lon="-118.3938672">
  <ele>-7.212</ele>
  <time>2026-09-02T22:13:10Z</time>
  <course>185.83</course>
  <speed>0.0282842712474619</speed>
  <fix>3d</fix>
</trkpt>
<trkpt lat="33.810313" lon="-118.393867">
  <ele>-6.82</ele>
  <time>2026-09-02T22:13:10Z</time>
  <course>0.0</course>
  <speed>0.0</speed>
  <fix>3d</fix>
</trkpt>
<trkpt lat="33.8103132" lon="-118.3938672">
  <ele>-7.236</ele>
  <time>2026-09-02T22:13:10Z</time>
  <course>185.83</course>
  <speed>0.0282842712474619</speed>
  <fix>3d</fix>
</trkpt>
<trkpt lat="33.8103132" lon="-118.3938672">
  <ele>-7.274</ele>
  <time>2026-09-02T22:13:10Z</time>
  <course>185.84</course>
  <speed>0.0282842712474619</speed>
  <fix>3d</fix>
</trkpt>
<trkpt lat="33.810313" lon="-118.393867">
  <ele>-6.95</ele>
  <time>2026-09-02T22:13:10Z</time>
  <course>0.0</course>
  <speed>0.0</speed>
  <fix>3d</fix>
</trkpt>
<trkpt lat="33.8103132" lon="-118.3938672">
  <ele>-7.295</ele>
  <time>2026-09-02T22:13:10Z</time>
  <course>185.84</course>
  <speed>0.0282842712474619</speed>
  <fix>3d</fix>
</trkpt>
<trkpt lat="33.8103132" lon="-118.3938672">
  <ele>-7.335</ele>
  <time>2026-09-02T22:13:10Z</time>
  <course>185.85</course>
  <speed>0.0282842712474619</speed>
  <fix>3d</fix>
</trkpt>
<trkpt lat="33.810313" lon="-118.393867">
  <ele>-6.95</ele>
  <time>2026-09-02T22:13:10Z</time>
  <course>0.0</course>
  <speed>0.0</speed>
  <fix>3d</fix>
</trkpt>
<trkpt lat="33.8103132" lon="-118.3938672">
  <ele>-7.336</ele>
  <time>2026-09-02T22:13:10Z</time>
  <course>185.85</course>
  <speed>0.0282842712474619</speed>
  <fix>3d</fix>
</trkpt>
<trkpt lat="33.8103132" lon="-118.3938672">
  <ele>-7.394</ele>
  <time>2026-09-02T22:13:10Z</time>
  <course>185.86</course>
  <speed>0.0282842712474619</speed>
  <fix>3d</fix>
</trkpt>
<trkpt lat="33.810313" lon="-118.393867">
  <ele>-7.07</ele>
  <time>2026-09-02T22:13:10Z</time>
  <course>0.0</course>
  <speed>0.0</speed>
  <fix>3d</fix>
</trkpt>
<trkpt lat="33.8103132" lon="-118.3938672">
  <ele>-7.414</ele>
  <time>2026-09-02T22:13:10Z</time>
  <course>185.87</course>
  <speed>0.0282842712474619</speed>
  <fix>3d</fix>
</trkpt>
<trkpt lat="33.8103132" lon="-118.3938672">
  <ele>-7.453</ele>
  <time>2026-09-02T22:13:10Z</time>
  <course>185.87</course>
  <speed>0.0282842712474619</speed>
  <fix>3d</fix>
</trkpt>
<trkpt lat="33.810313" lon="-118.393867">
  <ele>-7.07</ele>
  <time>2026-09-02T22:13:10Z</time>
  <course>0.0</course>
  <speed>0.0</speed>
  <fix>3d</fix>
</trkpt>
<trkpt lat="33.8103132" lon="-118.3938672">
  <ele>-7.475</ele>
  <time>2026-09-02T22:13:10Z</time>
  <course>185.88</course>
  <speed>0.0282842712474619</speed>
  <fix>3d</fix>
</trkpt>
<trkpt lat="33.8103132" lon="-118.3938672">
  <ele>-7.512</ele>
  <time>2026-09-02T22:13:10Z</time>
  <course>185.88</course>
  <speed>0.0282842712474619</speed>
  <fix>3d</fix>
</trkpt>
<trkpt lat="33.810313" lon="-118.393867">
  <ele>-7.19</ele>
  <time>2026-09-02T22:13:10Z</time>
  <course>0.0</course>
  <speed>0.0</speed>
  <fix>3d</fix>
</trkpt>
<trkpt lat="33.8103132" lon="-118.3938672">
  <ele>-7.535</ele>
  <time>2026-09-02T22:13:10Z</time>
  <course>185.89</course>
  <speed>0.0282842712474619</speed>
  <fix>3d</fix>
</trkpt>
<trkpt lat="33.8103132" lon="-118.3938672">
  <ele>-7.572</ele>
  <time>2026-09-02T22:13:10Z</time>
  <course>185.9</course>
  <speed>0.0282842712474619</speed>
  <fix>3d</fix>
</trkpt>
<trkpt lat="33.810313" lon="-118.393867">
  <ele>-7.19</ele>
  <time>2026-09-02T22:13:10Z</time>
  <course>0.0</course>
  <speed>0.0</speed>
  <fix>3d</fix>
</trkpt>
<trkpt lat="33.8103132" lon="-118.3938672">
  <ele>-7.593</ele>
  <time>2026-09-02T22:13:10Z</time>
  <course>185.9</course>
  <speed>0.0282842712474619</speed>
  <fix>3d</fix>
</trkpt>
<trkpt lat="33.8103132" lon="-118.3938672">
  <ele>-7.631</ele>
  <time>2026-09-02T22:13:10Z</time>
  <course>185.91</course>
  <speed>0.0282842712474619</speed>
  <fix>3d</fix>
</trkpt>
<trkpt lat="33.810313" lon="-118.393867">
  <ele>-7.31</ele>
  <time>2026-09-02T22:13:10Z</time>
  <course>0.0</course>
  <speed>0.0</speed>
  <fix>3d</fix>
</trkpt>
<trkpt lat="33.8103132" lon="-118.3938672">
  <ele>-7.652</ele>
  <time>2026-09-02T22:13:10Z</time>
  <course>185.91</course>
  <speed>0.0282842712474619</speed>
  <fix>3d</fix>
</trkpt>
<trkpt lat="33.8103132" lon="-118.3938672">
  <ele>-7.691</ele>
  <time>2026-09-02T22:13:10Z</time>
  <course>185.92</course>
  <speed>0.0282842712474619</speed>
  <fix>3d</fix>
</trkpt>
<trkpt lat="33.810313" lon="-118.393867">
  <ele>-7.31</ele>
  <time>2026-09-02T22:13:10Z</time>
  <course>0.0</course>
  <speed>0.0</speed>
  <fix>3d</fix>
</trkpt>
<trkpt lat="33.8103132" lon="-118.3938672">
  <ele>-7.712</ele>
  <time>2026-09-02T22:13:10Z</time>
  <course>185.92</course>
  <speed>0.0282842712474619</speed>
  <fix>3d</fix>
</trkpt>
<trkpt lat="33.8103132" lon="-118.3938672">
  <ele>-7.75</ele>
  <time>2026-09-02T22:13:10Z</time>
  <course>185.93</course>
  <speed>0.0282842712474619</speed>
  <fix>3d</fix>
</trkpt>
<trkpt lat="33.810313" lon="-118.393867">
  <ele>-7.43</ele>
  <time>2026-09-02T22:13:10Z</time>
  <course>0.0</course>
  <speed>0.0</speed>
  <fix>3d</fix>
</trkpt>
<trkpt lat="33.8103132" lon="-118.3938672">
  <ele>-7.771</ele>
  <time>2026-09-02T22:13:10Z</time>
  <course>185.93</course>
  <speed>0.0282842712474619</speed>
  <fix>3d</fix>
</trkpt>
<trkpt lat="33.8103132" lon="-118.3938672">
  <ele>-7.81</ele>
  <time>2026-09-02T22:13:10Z</time>
  <course>185.94</course>
  <speed>0.0282842712474619</speed>
  <fix>3d</fix>
</trkpt>
<trkpt lat="33.810313" lon="-118.393867">
  <ele>-7.43</ele>
  <time>2026-09-02T22:13:10Z</time>
  <course>0.0</course>
  <speed>0.0</speed>
  <fix>3d</fix>
</trkpt>
<trkpt lat="33.8103132" lon="-118.3938672">
  <ele>-7.812</ele>
  <time>2026-09-02T22:13:10Z</time>
  <course>185.94</course>
  <speed>0.0282842712474619</speed>
  <fix>3d</fix>
</trkpt>
<trkpt lat="33.8103132" lon="-118.3938672">
  <ele>-7.871</ele>
  <time>2026-09-02T22:13:10Z</time>
  <course>185.95</course>
  <speed>0.0282842712474619</speed>
  <fix>3d</fix>
</trkpt>
<trkpt lat="33.810313" lon="-118.393867">
  <ele>-7.55</ele>
  <time>2026-09-02T22:13:10Z</time>
  <course>0.0</course>
  <speed>0.0</speed>
  <fix>3d</fix>
</trkpt>
<trkpt lat="33.8103132" lon="-118.3938672">
  <ele>-7.892</ele>
  <time>2026-09-02T22:13:10Z</time>
  <course>185.95</course>
  <speed>0.0282842712474619</speed>
  <fix>3d</fix>
</trkpt>
<trkpt lat="33.8103132" lon="-118.3938672">
  <ele>-7.932</ele>
  <time>2026-09-02T22:13:10Z</time>
  <course>185.96</course>
  <speed>0.0282842712474619</speed>
  <fix>3d</fix>
</trkpt>
<trkpt lat="33.810313" lon="-118.393867">
  <ele>-7.55</ele>
  <time>2026-09-02T22:13:10Z</time>
  <course>0.0</course>
  <speed>0.0</speed>
  <fix>3d</fix>
</trkpt>
<trkpt lat="33.8103132" lon="-118.3938672">
  <ele>-7.933</ele>
  <time>2026-09-02T22:13:10Z</time>
  <course>185.96</course>
  <speed>0.0282842712474619</speed>
  <fix>3d</fix>
</trkpt>
<trkpt lat="33.8103132" lon="-118.3938672">
  <ele>-7.992</ele>
  <time>2026-09-02T22:13:10Z</time>
  <course>185.97</course>
  <speed>0.0282842712474619</speed>
  <fix>3d</fix>
</trkpt>
<trkpt lat="33.810313" lon="-118.393867">
  <ele>-7.67</ele>
  <time>2026-09-02T22:13:10Z</time>
  <course>0.0</course>
  <speed>0.0</speed>
  <fix>3d</fix>
</trkpt>
<trkpt lat="33.8103132" lon="-118.3938672">
  <ele>-8.015</ele>
  <time>2026-09-02T22:13:10Z</time>
  <course>185.97</course>
  <speed>0.0282842712474619</speed>
  <fix>3d</fix>
</trkpt>
<trkpt lat="33.8103132" lon="-118.3938672">
  <ele>-8.053</ele>
  <time>2026-09-02T22:13:10Z</time>
  <course>185.98</course>
  <speed>0.0282842712474619</speed>
  <fix>3d</fix>
</trkpt>
<trkpt lat="33.810313" lon="-118.393867">
  <ele>-7.67</ele>
  <time>2026-09-02T22:13:10Z</time>
  <course>0.0</course>
  <speed>0.0</speed>
  <fix>3d</fix>
</trkpt>
<trkpt lat="33.8103132" lon="-118.3938672">
  <ele>-8.073</ele>
  <time>2026-09-02T22:13:10Z</time>
  <course>185.98</course>
  <speed>0.0282842712474619</speed>
  <fix>3d</fix>
</trkpt>
<trkpt lat="33.8103132" lon="-118.3938672">
  <ele>-8.114</ele>
  <time>2026-09-02T22:13:10Z</time>
  <course>185.99</course>
  <speed>0.0282842712474619</speed>
  <fix>3d</fix>
</trkpt>
<trkpt lat="33.810313" lon="-118.393867">
  <ele>-7.79</ele>
  <time>2026-09-02T22:13:10Z</time>
  <course>0.0</course>
  <speed>0.0</speed>
  <fix>3d</fix>
</trkpt>
<trkpt lat="33.8103132" lon="-118.3938672">
  <ele>-8.135</ele>
  <time>2026-09-02T22:13:10Z</time>
  <course>185.99</course>
  <speed>0.0282842712474619</speed>
  <fix>3d</fix>
</trkpt>
<trkpt lat="33.8103132" lon="-118.3938672">
  <ele>-8.175</ele>
  <time>2026-09-02T22:13:10Z</time>
  <course>186.0</course>
  <speed>0.0282842712474619</speed>
  <fix>3d</fix>
</trkpt>
<trkpt lat="33.810313" lon="-118.393867">
  <ele>-7.79</ele>
  <time>2026-09-02T22:13:10Z</time>
  <course>0.0</course>
  <speed>0.0</speed>
  <fix>3d</fix>
</trkpt>
<trkpt lat="33.8103132" lon="-118.3938672">
  <ele>-8.197</ele>
  <time>2026-09-02T22:13:10Z</time>
  <course>186.0</course>
  <speed>0.0282842712474619</speed>
  <fix>3d</fix>
</trkpt>
<trkpt lat="33.8103132" lon="-118.3938672">
  <ele>-8.238</ele>
  <time>2026-09-02T22:13:10Z</time>
  <course>186.01</course>
  <speed>0.0282842712474619</speed>
  <fix>3d</fix>
</trkpt>
<trkpt lat="33.810313" lon="-118.393867">
  <ele>-7.91</ele>
  <time>2026-09-02T22:13:10Z</time>
  <course>0.0</course>
  <speed>0.0</speed>
  <fix>3d</fix>
</trkpt>
<trkpt lat="33.8103132" lon="-118.3938672">
  <ele>-8.26</ele>
  <time>2026-09-02T22:13:10Z</time>
  <course>186.01</course>
  <speed>0.0282842712474619</speed>
  <fix>3d</fix>
</trkpt>
<trkpt lat="33.8103132" lon="-118.3938672">
  <ele>-8.301</ele>
  <time>2026-09-02T22:13:10Z</time>
  <course>186.02</course>
  <speed>0.0282842712474619</speed>
  <fix>3d</fix>
</trkpt>
<trkpt lat="33.810313" lon="-118.393867">
  <ele>-7.91</ele>
  <time>2026-09-02T22:13:10Z</time>
  <course>0.0</course>
  <speed>0.0</speed>
  <fix>3d</fix>
</trkpt>
<trkpt lat="33.8103132" lon="-118.3938672">
  <ele>-8.324</ele>
  <time>2026-09-02T22:13:10Z</time>
  <course>186.02</course>
  <speed>0.0282842712474619</speed>
  <fix>3d</fix>
</trkpt>
<trkpt lat="33.8103132" lon="-118.3938671">
  <ele>-8.364</ele>
  <time>2026-09-02T22:13:10Z</time>
  <course>186.03</course>
  <speed>0.0282842712474619</speed>
  <fix>3d</fix>
</trkpt>
<trkpt lat="33.810313" lon="-118.393867">
  <ele>-8.02</ele>
  <time>2026-09-02T22:13:10Z</time>
  <course>0.0</course>
  <speed>0.0</speed>
  <fix>3d</fix>
</trkpt>
<trkpt lat="33.8103132" lon="-118.3938671">
  <ele>-8.385</ele>
  <time>2026-09-02T22:13:10Z</time>
  <course>186.03</course>
  <speed>0.0282842712474619</speed>
  <fix>3d</fix>
</trkpt>
<trkpt lat="33.8103132" lon="-118.3938671">
  <ele>-8.427</ele>
  <time>2026-09-02T22:13:10Z</time>
  <course>186.04</course>
  <speed>0.0282842712474619</speed>
  <fix>3d</fix>
</trkpt>
<trkpt lat="33.810313" lon="-118.393867">
  <ele>-8.02</ele>
  <time>2026-09-02T22:13:10Z</time>
  <course>0.0</course>
  <speed>0.0</speed>
  <fix>3d</fix>
</trkpt>
<trkpt lat="33.8103132" lon="-118.3938672">
  <ele>-8.45</ele>
  <time>2026-09-02T22:13:10Z</time>
  <course>186.04</course>
  <speed>0.0282842712474619</speed>
  <fix>3d</fix>
</trkpt>
<trkpt lat="33.8103132" lon="-118.3938671">
  <ele>-8.491</ele>
  <time>2026-09-02T22:13:10Z</time>
  <course>186.05</course>
  <speed>0.0282842712474619</speed>
  <fix>3d</fix>
</trkpt>
<trkpt lat="33.810313" lon="-118.393867">
  <ele>-8.14</ele>
  <time>2026-09-02T22:13:10Z</time>
  <course>0.0</course>
  <speed>0.0</speed>
  <fix>3d</fix>
</trkpt>
<trkpt lat="33.8103132" lon="-118.3938671">
  <ele>-8.511</ele>
  <time>2026-09-02T22:13:10Z</time>
  <course>186.05</course>
  <speed>0.0282842712474619</speed>
  <fix>3d</fix>
</trkpt>
<trkpt lat="33.8103132" lon="-118.3938671">
  <ele>-8.554</ele>
  <time>2026-09-02T22:13:10Z</time>
  <course>186.06</course>
  <speed>0.0282842712474619</speed>
  <fix>3d</fix>
</trkpt>
<trkpt lat="33.810313" lon="-118.393867">
  <ele>-8.14</ele>
  <time>2026-09-02T22:13:10Z</time>
  <course>0.0</course>
  <speed>0.0</speed>
  <fix>3d</fix>
</trkpt>
<trkpt lat="33.8103132" lon="-118.3938671">
  <ele>-8.576</ele>
  <time>2026-09-02T22:13:10Z</time>
  <course>186.06</course>
  <speed>0.0282842712474619</speed>
  <fix>3d</fix>
</trkpt>
<trkpt lat="33.8103132" lon="-118.3938671">
  <ele>-8.617</ele>
  <time>2026-09-02T22:13:10Z</time>
  <course>186.07</course>
  <speed>0.0282842712474619</speed>
  <fix>3d</fix>
</trkpt>
<trkpt lat="33.810313" lon="-118.393867">
  <ele>-8.27</ele>
  <time>2026-09-02T22:13:10Z</time>
  <course>0.0</course>
  <speed>0.0</speed>
  <fix>3d</fix>
</trkpt>
<trkpt lat="33.8103132" lon="-118.3938671">
  <ele>-8.619</ele>
  <time>2026-09-02T22:13:10Z</time>
  <course>186.07</course>
  <speed>0.0282842712474619</speed>
  <fix>3d</fix>
</trkpt>
<trkpt lat="33.8103132" lon="-118.3938671">
  <ele>-8.68</ele>
  <time>2026-09-02T22:13:10Z</time>
  <course>186.08</course>
  <speed>0.022360679774997897</speed>
  <fix>3d</fix>
</trkpt>
<trkpt lat="33.810313" lon="-118.393867">
  <ele>-8.27</ele>
  <time>2026-09-02T22:13:10Z</time>
  <course>0.0</course>
  <speed>0.0</speed>
  <fix>3d</fix>
</trkpt>
<trkpt lat="33.8103132" lon="-118.3938671">
  <ele>-8.701</ele>
  <time>2026-09-02T22:13:10Z</time>
  <course>186.08</course>
  <speed>0.022360679774997897</speed>
  <fix>3d</fix>
</trkpt>
<trkpt lat="33.8103132" lon="-118.3938671">
  <ele>-8.742</ele>
  <time>2026-09-02T22:13:10Z</time>
  <course>186.08</course>
  <speed>0.022360679774997897</speed>
  <fix>3d</fix>
</trkpt>
<trkpt lat="33.810313" lon="-118.393867">
  <ele>-8.38</ele>
  <time>2026-09-02T22:13:10Z</time>
  <course>0.0</course>
  <speed>0.0</speed>
  <fix>3d</fix>
</trkpt>
<trkpt lat="33.8103132" lon="-118.3938671">
  <ele>-8.763</ele>
  <time>2026-09-02T22:13:10Z</time>
  <course>186.09</course>
  <speed>0.022360679774997897</speed>
  <fix>3d</fix>
</trkpt>
<trkpt lat="33.8103132" lon="-118.3938671">
  <ele>-8.803</ele>
  <time>2026-09-02T22:13:10Z</time>
  <course>186.09</course>
  <speed>0.022360679774997897</speed>
  <fix>3d</fix>
</trkpt>
<trkpt lat="33.810313" lon="-118.393867">
  <ele>-8.38</ele>
  <time>2026-09-02T22:13:10Z</time>
  <course>0.0</course>
  <speed>0.0</speed>
  <fix>3d</fix>
</trkpt>
<trkpt lat="33.8103132" lon="-118.3938671">
  <ele>-8.823</ele>
  <time>2026-09-02T22:13:10Z</time>
  <course>186.1</course>
  <speed>0.022360679774997897</speed>
  <fix>3d</fix>
</trkpt>
<trkpt lat="33.8103132" lon="-118.3938671">
  <ele>-8.864</ele>
  <time>2026-09-02T22:13:10Z</time>
  <course>186.1</course>
  <speed>0.022360679774997897</speed>
  <fix>3d</fix>
</trkpt>
<trkpt lat="33.810313" lon="-118.393867">
  <ele>-8.51</ele>
  <time>2026-09-02T22:13:10Z</time>
  <course>0.0</course>
  <speed>0.0</speed>
  <fix>3d</fix>
</trkpt>
<trkpt lat="33.8103132" lon="-118.3938671">
  <ele>-8.885</ele>
  <time>2026-09-02T22:13:10Z</time>
  <course>186.11</course>
  <speed>0.022360679774997897</speed>
  <fix>3d</fix>
</trkpt>
<trkpt lat="33.8103132" lon="-118.3938671">
  <ele>-8.926</ele>
  <time>2026-09-02T22:13:10Z</time>
  <course>186.11</course>
  <speed>0.022360679774997897</speed>
  <fix>3d</fix>
</trkpt>
<trkpt lat="33.810313" lon="-118.393867">
  <ele>-8.51</ele>
  <time>2026-09-02T22:13:10Z</time>
  <course>0.0</course>
  <speed>0.0</speed>
  <fix>3d</fix>
</trkpt>
<trkpt lat="33.8103132" lon="-118.3938671">
  <ele>-8.948</ele>
  <time>2026-09-02T22:13:10Z</time>
  <course>186.11</course>
  <speed>0.022360679774997897</speed>
  <fix>3d</fix>
</trkpt>
<trkpt lat="33.8103132" lon="-118.3938671">
  <ele>-8.988</ele>
  <time>2026-09-02T22:13:10Z</time>
  <course>186.12</course>
  <speed>0.022360679774997897</speed>
  <fix>3d</fix>
</trkpt>
<trkpt lat="33.810313" lon="-118.393867">
  <ele>-8.63</ele>
  <time>2026-09-02T22:13:10Z</time>
  <course>0.0</course>
  <speed>0.0</speed>
  <fix>3d</fix>
</trkpt>
<trkpt lat="33.8103132" lon="-118.3938671">
  <ele>-9.01</ele>
  <time>2026-09-02T22:13:10Z</time>
  <course>186.12</course>
  <speed>0.022360679774997897</speed>
  <fix>3d</fix>
</trkpt>
<trkpt lat="33.8103132" lon="-118.3938671">
  <ele>-9.05</ele>
  <time>2026-09-02T22:13:10Z</time>
  <course>186.13</course>
  <speed>0.022360679774997897</speed>
  <fix>3d</fix>
</trkpt>
<trkpt lat="33.810313" lon="-118.393867">
  <ele>-8.63</ele>
  <time>2026-09-02T22:13:10Z</time>
  <course>0.0</course>
  <speed>0.0</speed>
  <fix>3d</fix>
</trkpt>
<trkpt lat="33.8103132" lon="-118.3938671">
  <ele>-9.052</ele>
  <time>2026-09-02T22:13:10Z</time>
  <course>186.13</course>
  <speed>0.022360679774997897</speed>
  <fix>3d</fix>
</trkpt>
<trkpt lat="33.8103132" lon="-118.3938671">
  <ele>-9.112</ele>
  <time>2026-09-02T22:13:10Z</time>
  <course>186.14</course>
  <speed>0.022360679774997897</speed>
  <fix>3d</fix>
</trkpt>
<trkpt lat="33.810313" lon="-118.393867">
  <ele>-8.76</ele>
  <time>2026-09-02T22:13:10Z</time>
  <course>0.0</course>
  <speed>0.0</speed>
  <fix>3d</fix>
</trkpt>
<trkpt lat="33.8103132" lon="-118.3938671">
  <ele>-9.133</ele>
  <time>2026-09-02T22:13:10Z</time>
  <course>186.14</course>
  <speed>0.022360679774997897</speed>
  <fix>3d</fix>
</trkpt>
<trkpt lat="33.8103132" lon="-118.3938671">
  <ele>-9.173</ele>
  <time>2026-09-02T22:13:10Z</time>
  <course>186.15</course>
  <speed>0.022360679774997897</speed>
  <fix>3d</fix>
</trkpt>
<trkpt lat="33.810313" lon="-118.393867">
  <ele>-8.76</ele>
  <time>2026-09-02T22:13:10Z</time>
  <course>0.0</course>
  <speed>0.0</speed>
  <fix>3d</fix>
</trkpt>
<trkpt lat="33.8103132" lon="-118.3938671">
  <ele>-9.193</ele>
  <time>2026-09-02T22:13:10Z</time>
  <course>186.15</course>
  <speed>0.022360679774997897</speed>
  <fix>3d</fix>
</trkpt>
<trkpt lat="33.8103132" lon="-118.3938671">
  <ele>-9.234</ele>
  <time>2026-09-02T22:13:10Z</time>
  <course>186.15</course>
  <speed>0.022360679774997897</speed>
  <fix>3d</fix>
</trkpt>
<trkpt lat="33.810313" lon="-118.393867">
  <ele>-8.87</ele>
  <time>2026-09-02T22:13:10Z</time>
  <course>0.0</course>
  <speed>0.0</speed>
  <fix>3d</fix>
</trkpt>
<trkpt lat="33.8103132" lon="-118.3938671">
  <ele>-9.237</ele>
  <time>2026-09-02T22:13:10Z</time>
  <course>186.15</course>
  <speed>0.022360679774997897</speed>
  <fix>3d</fix>
</trkpt>
<trkpt lat="33.8103132" lon="-118.3938671">
  <ele>-9.296</ele>
  <time>2026-09-02T22:13:10Z</time>
  <course>186.16</course>
  <speed>0.022360679774997897</speed>
  <fix>3d</fix>
</trkpt>
<trkpt lat="33.810313" lon="-118.393867">
  <ele>-8.87</ele>
  <time>2026-09-02T22:13:10Z</time>
  <course>0.0</course>
  <speed>0.0</speed>
  <fix>3d</fix>
</trkpt>
<trkpt lat="33.8103132" lon="-118.3938671">
  <ele>-9.297</ele>
  <time>2026-09-02T22:13:10Z</time>
  <course>186.16</course>
  <speed>0.022360679774997897</speed>
  <fix>3d</fix>
</trkpt>
<trkpt lat="33.8103132" lon="-118.3938671">
  <ele>-9.357</ele>
  <time>2026-09-02T22:13:10Z</time>
  <course>186.17</course>
  <speed>0.022360679774997897</speed>
  <fix>3d</fix>
</trkpt>
<trkpt lat="33.810313" lon="-118.393867">
  <ele>-9.0</ele>
  <time>2026-09-02T22:13:10Z</time>
  <course>0.0</course>
  <speed>0.0</speed>
  <fix>3d</fix>
</trkpt>
<trkpt lat="33.8103132" lon="-118.3938671">
  <ele>-9.379</ele>
  <time>2026-09-02T22:13:10Z</time>
  <course>186.17</course>
  <speed>0.022360679774997897</speed>
  <fix>3d</fix>
</trkpt>
<trkpt lat="33.8103132" lon="-118.3938671">
  <ele>-9.419</ele>
  <time>2026-09-02T22:13:10Z</time>
  <course>186.18</course>
  <speed>0.022360679774997897</speed>
  <fix>3d</fix>
</trkpt>
<trkpt lat="33.810313" lon="-118.393867">
  <ele>-9.0</ele>
  <time>2026-09-02T22:13:10Z</time>
  <course>0.0</course>
  <speed>0.0</speed>
  <fix>3d</fix>
</trkpt>
<trkpt lat="33.8103132" lon="-118.3938671">
  <ele>-9.442</ele>
  <time>2026-09-02T22:13:10Z</time>
  <course>186.18</course>
  <speed>0.022360679774997897</speed>
  <fix>3d</fix>
</trkpt>
<trkpt lat="33.8103132" lon="-118.3938671">
  <ele>-9.481</ele>
  <time>2026-09-02T22:13:10Z</time>
  <course>186.19</course>
  <speed>0.022360679774997897</speed>
  <fix>3d</fix>
</trkpt>
<trkpt lat="33.810313" lon="-118.393867">
  <ele>-9.12</ele>
  <time>2026-09-02T22:13:10Z</time>
  <course>0.0</course>
  <speed>0.0</speed>
  <fix>3d</fix>
</trkpt>
<trkpt lat="33.8103132" lon="-118.3938671">
  <ele>-9.501</ele>
  <time>2026-09-02T22:13:10Z</time>
  <course>186.19</course>
  <speed>0.022360679774997897</speed>
  <fix>3d</fix>
</trkpt>
<trkpt lat="33.8103132" lon="-118.3938671">
  <ele>-9.542</ele>
  <time>2026-09-02T22:13:10Z</time>
  <course>186.19</course>
  <speed>0.022360679774997897</speed>
  <fix>3d</fix>
</trkpt>
<trkpt lat="33.810313" lon="-118.393867">
  <ele>-9.12</ele>
  <time>2026-09-02T22:13:10Z</time>
  <course>0.0</course>
  <speed>0.0</speed>
  <fix>3d</fix>
</trkpt>
<trkpt lat="33.8103132" lon="-118.3938671">
  <ele>-9.564</ele>
  <time>2026-09-02T22:13:10Z</time>
  <course>186.2</course>
  <speed>0.022360679774997897</speed>
  <fix>3d</fix>
</trkpt>
<trkpt lat="33.8103132" lon="-118.3938671">
  <ele>-9.604</ele>
  <time>2026-09-02T22:13:10Z</time>
  <course>186.2</course>
  <speed>0.022360679774997897</speed>
  <fix>3d</fix>
</trkpt>
<trkpt lat="33.810313" lon="-118.393867">
  <ele>-9.24</ele>
  <time>2026-09-02T22:13:10Z</time>
  <course>0.0</course>
  <speed>0.0</speed>
  <fix>3d</fix>
</trkpt>
<trkpt lat="33.8103132" lon="-118.3938671">
  <ele>-9.626</ele>
  <time>2026-09-02T22:13:10Z</time>
  <course>186.2</course>
  <speed>0.022360679774997897</speed>
  <fix>3d</fix>
</trkpt>
<trkpt lat="33.8103132" lon="-118.3938671">
  <ele>-9.665</ele>
  <time>2026-09-02T22:13:10Z</time>
  <course>186.21</course>
  <speed>0.022360679774997897</speed>
  <fix>3d</fix>
</trkpt>
<trkpt lat="33.810313" lon="-118.393867">
  <ele>-9.24</ele>
  <time>2026-09-02T22:13:10Z</time>
  <course>0.0</course>
  <speed>0.0</speed>
  <fix>3d</fix>
</trkpt>
<trkpt lat="33.8103132" lon="-118.3938671">
  <ele>-9.687</ele>
  <time>2026-09-02T22:13:10Z</time>
  <course>186.21</course>
  <speed>0.022360679774997897</speed>
  <fix>3d</fix>
</trkpt>
<trkpt lat="33.8103132" lon="-118.3938671">
  <ele>-9.728</ele>
  <time>2026-09-02T22:13:10Z</time>
  <course>186.22</course>
  <speed>0.022360679774997897</speed>
  <fix>3d</fix>
</trkpt>
<trkpt lat="33.810313" lon="-118.393867">
  <ele>-9.36</ele>
  <time>2026-09-02T22:13:10Z</time>
  <course>0.0</course>
  <speed>0.0</speed>
  <fix>3d</fix>
</trkpt>
<trkpt lat="33.8103132" lon="-118.3938671">
  <ele>-9.748</ele>
  <time>2026-09-02T22:13:10Z</time>
  <course>186.22</course>
  <speed>0.022360679774997897</speed>
  <fix>3d</fix>
</trkpt>
<trkpt lat="33.8103132" lon="-118.3938671">
  <ele>-9.792</ele>
  <time>2026-09-02T22:13:10Z</time>
  <course>186.22</course>
  <speed>0.022360679774997897</speed>
  <fix>3d</fix>
</trkpt>
<trkpt lat="33.810313" lon="-118.393867">
  <ele>-9.36</ele>
  <time>2026-09-02T22:13:10Z</time>
  <course>0.0</course>
  <speed>0.0</speed>
  <fix>3d</fix>
</trkpt>
<trkpt lat="33.8103132" lon="-118.3938671">
  <ele>-9.814</ele>
  <time>2026-09-02T22:13:10Z</time>
  <course>186.23</course>
  <speed>0.022360679774997897</speed>
  <fix>3d</fix>
</trkpt>
<trkpt lat="33.8103132" lon="-118.3938671">
  <ele>-9.857</ele>
  <time>2026-09-02T22:13:10Z</time>
  <course>186.23</course>
  <speed>0.022360679774997897</speed>
  <fix>3d</fix>
</trkpt>
<trkpt lat="33.810313" lon="-118.393867">
  <ele>-9.48</ele>
  <time>2026-09-02T22:13:10Z</time>
  <course>0.0</course>
  <speed>0.0</speed>
  <fix>3d</fix>
</trkpt>
<trkpt lat="33.8103132" lon="-118.3938671">
  <ele>-9.88</ele>
  <time>2026-09-02T22:13:10Z</time>
  <course>186.23</course>
  <speed>0.022360679774997897</speed>
  <fix>3d</fix>
</trkpt>
<trkpt lat="33.8103132" lon="-118.3938671">
  <ele>-9.921</ele>
  <time>2026-09-02T22:13:10Z</time>
  <course>186.24</course>
  <speed>0.022360679774997897</speed>
  <fix>3d</fix>
</trkpt>
<trkpt lat="33.810313" lon="-118.393867">
  <ele>-9.48</ele>
  <time>2026-09-02T22:13:10Z</time>
  <course>0.0</course>
  <speed>0.0</speed>
  <fix>3d</fix>
</trkpt>
<trkpt lat="33.8103132" lon="-118.3938671">
  <ele>-9.942</ele>
  <time>2026-09-02T22:13:10Z</time>
  <course>186.24</course>
  <speed>0.022360679774997897</speed>
  <fix>3d</fix>
</trkpt>
<trkpt lat="33.8103132" lon="-118.3938671">
  <ele>-9.984</ele>
  <time>2026-09-02T22:13:10Z</time>
  <course>186.25</course>
  <speed>0.022360679774997897</speed>
  <fix>3d</fix>
</trkpt>
<trkpt lat="33.810313" lon="-118.393867">
  <ele>-9.6</ele>
  <time>2026-09-02T22:13:10Z</time>
  <course>0.0</course>
  <speed>0.0</speed>
  <fix>3d</fix>
</trkpt>
<trkpt lat="33.8103132" lon="-118.3938671">
  <ele>-9.985</ele>
  <time>2026-09-02T22:13:10Z</time>
  <course>186.25</course>
  <speed>0.022360679774997897</speed>
  <fix>3d</fix>
</trkpt>
<trkpt lat="33.8103132" lon="-118.3938671">
  <ele>-10.046</ele>
  <time>2026-09-02T22:13:10Z</time>
  <course>186.25</course>
  <speed>0.022360679774997897</speed>
  <fix>3d</fix>
</trkpt>
<trkpt lat="33.810313" lon="-118.393867">
  <ele>-9.6</ele>
  <time>2026-09-02T22:13:10Z</time>
  <course>0.0</course>
  <speed>0.0</speed>
  <fix>3d</fix>
</trkpt>
<trkpt lat="33.8103132" lon="-118.3938671">
  <ele>-10.047</ele>
  <time>2026-09-02T22:13:10Z</time>
  <course>186.25</course>
  <speed>0.022360679774997897</speed>
  <fix>3d</fix>
</trkpt>
<trkpt lat="33.8103132" lon="-118.3938671">
  <ele>-10.108</ele>
  <time>2026-09-02T22:13:10Z</time>
  <course>186.26</course>
  <speed>0.022360679774997897</speed>
  <fix>3d</fix>
</trkpt>
<trkpt lat="33.810313" lon="-118.393867">
  <ele>-9.71</ele>
  <time>2026-09-02T22:13:10Z</time>
  <course>0.0</course>
  <speed>0.0</speed>
  <fix>3d</fix>
</trkpt>
<trkpt lat="33.8103132" lon="-118.3938671">
  <ele>-10.13</ele>
  <time>2026-09-02T22:13:10Z</time>
  <course>186.26</course>
  <speed>0.022360679774997897</speed>
  <fix>3d</fix>
</trkpt>
<trkpt lat="33.8103132" lon="-118.3938671">
  <ele>-10.171</ele>
  <time>2026-09-02T22:13:10Z</time>
  <course>186.27</course>
  <speed>0.022360679774997897</speed>
  <fix>3d</fix>
</trkpt>
<trkpt lat="33.810313" lon="-118.393867">
  <ele>-9.71</ele>
  <time>2026-09-02T22:13:10Z</time>
  <course>0.0</course>
  <speed>0.0</speed>
  <fix>3d</fix>
</trkpt>
<trkpt lat="33.8103132" lon="-118.3938671">
  <ele>-10.195</ele>
  <time>2026-09-02T22:13:10Z</time>
  <course>186.27</course>
  <speed>0.022360679774997897</speed>
  <fix>3d</fix>
</trkpt>
<trkpt lat="33.8103132" lon="-118.3938671">
  <ele>-10.234</ele>
  <time>2026-09-02T22:13:10Z</time>
  <course>186.27</course>
  <speed>0.022360679774997897</speed>
  <fix>3d</fix>
</trkpt>
<trkpt lat="33.810313" lon="-118.393867">
  <ele>-9.84</ele>
  <time>2026-09-02T22:13:10Z</time>
  <course>0.0</course>
  <speed>0.0</speed>
  <fix>3d</fix>
</trkpt>
<trkpt lat="33.8103132" lon="-118.3938671">
  <ele>-10.255</ele>
  <time>2026-09-02T22:13:10Z</time>
  <course>186.28</course>
  <speed>0.022360679774997897</speed>
  <fix>3d</fix>
</trkpt>
<trkpt lat="33.8103132" lon="-118.3938671">
  <ele>-10.298</ele>
  <time>2026-09-02T22:13:10Z</time>
  <course>186.28</course>
  <speed>0.022360679774997897</speed>
  <fix>3d</fix>
</trkpt>
<trkpt lat="33.810313" lon="-118.393867">
  <ele>-9.84</ele>
  <time>2026-09-02T22:13:10Z</time>
  <course>0.0</course>
  <speed>0.0</speed>
  <fix>3d</fix>
</trkpt>
<trkpt lat="33.8103132" lon="-118.3938671">
  <ele>-10.3</ele>
  <time>2026-09-02T22:13:10Z</time>
  <course>186.28</course>
  <speed>0.022360679774997897</speed>
  <fix>3d</fix>
</trkpt>
<trkpt lat="33.8103132" lon="-118.3938671">
  <ele>-10.36</ele>
  <time>2026-09-02T22:13:10Z</time>
  <course>186.29</course>
  <speed>0.022360679774997897</speed>
  <fix>3d</fix>
</trkpt>
<trkpt lat="33.810313" lon="-118.393867">
  <ele>-9.96</ele>
  <time>2026-09-02T22:13:10Z</time>
  <course>0.0</course>
  <speed>0.0</speed>
  <fix>3d</fix>
</trkpt>
<trkpt lat="33.8103132" lon="-118.3938671">
  <ele>-10.381</ele>
  <time>2026-09-02T22:13:10Z</time>
  <course>186.29</course>
  <speed>0.022360679774997897</speed>
  <fix>3d</fix>
</trkpt>
<trkpt lat="33.8103132" lon="-118.3938671">
  <ele>-10.422</ele>
  <time>2026-09-02T22:13:10Z</time>
  <course>186.29</course>
  <speed>0.022360679774997897</speed>
  <fix>3d</fix>
</trkpt>
<trkpt lat="33.810313" lon="-118.393867">
  <ele>-9.96</ele>
  <time>2026-09-02T22:13:10Z</time>
  <course>0.0</course>
  <speed>0.0</speed>
  <fix>3d</fix>
</trkpt>
<trkpt lat="33.8103132" lon="-118.3938671">
  <ele>-10.441</ele>
  <time>2026-09-02T22:13:10Z</time>
  <course>186.29</course>
  <speed>0.022360679774997897</speed>
  <fix>3d</fix>
</trkpt>
<trkpt lat="33.8103132" lon="-118.3938671">
  <ele>-10.483</ele>
  <time>2026-09-02T22:13:10Z</time>
  <course>186.3</course>
  <speed>0.022360679774997897</speed>
  <fix>3d</fix>
</trkpt>
<trkpt lat="33.810313" lon="-118.393867">
  <ele>-10.08</ele>
  <time>2026-09-02T22:13:10Z</time>
  <course>0.0</course>
  <speed>0.0</speed>
  <fix>3d</fix>
</trkpt>
<trkpt lat="33.8103132" lon="-118.3938671">
  <ele>-10.504</ele>
  <time>2026-09-02T22:13:10Z</time>
  <course>186.3</course>
  <speed>0.022360679774997897</speed>
  <fix>3d</fix>
</trkpt>
<trkpt lat="33.8103132" lon="-118.3938671">
  <ele>-10.543</ele>
  <time>2026-09-02T22:13:10Z</time>
  <course>186.3</course>
  <speed>0.022360679774997897</speed>
  <fix>3d</fix>
</trkpt>
<trkpt lat="33.810313" lon="-118.393867">
  <ele>-10.08</ele>
  <time>2026-09-02T22:13:10Z</time>
  <course>0.0</course>
  <speed>0.0</speed>
  <fix>3d</fix>
</trkpt>
<trkpt lat="33.8103132" lon="-118.3938671">
  <ele>-10.563</ele>
  <time>2026-09-02T22:13:10Z</time>
  <course>186.31</course>
  <speed>0.022360679774997897</speed>
  <fix>3d</fix>
</trkpt>
<trkpt lat="33.8103132" lon="-118.3938671">
  <ele>-10.603</ele>
  <time>2026-09-02T22:13:10Z</time>
  <course>186.31</course>
  <speed>0.022360679774997897</speed>
  <fix>3d</fix>
</trkpt>
<trkpt lat="33.810313" lon="-118.393867">
  <ele>-10.2</ele>
  <time>2026-09-02T22:13:10Z</time>
  <course>0.0</course>
  <speed>0.0</speed>
  <fix>3d</fix>
</trkpt>
<trkpt lat="33.8103132" lon="-118.3938671">
  <ele>-10.624</ele>
  <time>2026-09-02T22:13:10Z</time>
  <course>186.31</course>
  <speed>0.022360679774997897</speed>
  <fix>3d</fix>
</trkpt>
<trkpt lat="33.8103132" lon="-118.3938671">
  <ele>-10.663</ele>
  <time>2026-09-02T22:13:10Z</time>
  <course>186.32</course>
  <speed>0.022360679774997897</speed>
  <fix>3d</fix>
</trkpt>
<trkpt lat="33.810313" lon="-118.393867">
  <ele>-10.2</ele>
  <time>2026-09-02T22:13:10Z</time>
  <course>0.0</course>
  <speed>0.0</speed>
  <fix>3d</fix>
</trkpt>
<trkpt lat="33.8103132" lon="-118.3938671">
  <ele>-10.665</ele>
  <time>2026-09-02T22:13:10Z</time>
  <course>186.32</course>
  <speed>0.022360679774997897</speed>
  <fix>3d</fix>
</trkpt>
<trkpt lat="33.8103132" lon="-118.3938671">
  <ele>-10.725</ele>
  <time>2026-09-02T22:13:10Z</time>
  <course>186.32</course>
  <speed>0.022360679774997897</speed>
  <fix>3d</fix>
</trkpt>
<trkpt lat="33.810313" lon="-118.393867">
  <ele>-10.32</ele>
  <time>2026-09-02T22:13:10Z</time>
  <course>0.0</course>
  <speed>0.0</speed>
  <fix>3d</fix>
</trkpt>
<trkpt lat="33.8103132" lon="-118.3938671">
  <ele>-10.746</ele>
  <time>2026-09-02T22:13:10Z</time>
  <course>186.32</course>
  <speed>0.022360679774997897</speed>
  <fix>3d</fix>
</trkpt>
<trkpt lat="33.8103132" lon="-118.3938671">
  <ele>-10.787</ele>
  <time>2026-09-02T22:13:10Z</time>
  <course>186.33</course>
  <speed>0.022360679774997897</speed>
  <fix>3d</fix>
</trkpt>
<trkpt lat="33.810313" lon="-118.393867">
  <ele>-10.32</ele>
  <time>2026-09-02T22:13:10Z</time>
  <course>0.0</course>
  <speed>0.0</speed>
  <fix>3d</fix>
</trkpt>
<trkpt lat="33.8103132" lon="-118.3938671">
  <ele>-10.809</ele>
  <time>2026-09-02T22:13:10Z</time>
  <course>186.33</course>
  <speed>0.022360679774997897</speed>
  <fix>3d</fix>
</trkpt>
<trkpt lat="33.8103132" lon="-118.3938671">
  <ele>-10.849</ele>
  <time>2026-09-02T22:13:10Z</time>
  <course>186.33</course>
  <speed>0.022360679774997897</speed>
  <fix>3d</fix>
</trkpt>
<trkpt lat="33.810313" lon="-118.393867">
  <ele>-10.44</ele>
  <time>2026-09-02T22:13:10Z</time>
  <course>0.0</course>
  <speed>0.0</speed>
  <fix>3d</fix>
</trkpt>
<trkpt lat="33.8103132" lon="-118.3938671">
  <ele>-10.85</ele>
  <time>2026-09-02T22:13:10Z</time>
  <course>186.33</course>
  <speed>0.022360679774997897</speed>
  <fix>3d</fix>
</trkpt>
<trkpt lat="33.8103132" lon="-118.3938671">
  <ele>-10.91</ele>
  <time>2026-09-02T22:13:10Z</time>
  <course>186.34</course>
  <speed>0.022360679774997897</speed>
  <fix>3d</fix>
</trkpt>
<trkpt lat="33.810313" lon="-118.393867">
  <ele>-10.44</ele>
  <time>2026-09-02T22:13:10Z</time>
  <course>0.0</course>
  <speed>0.0</speed>
  <fix>3d</fix>
</trkpt>
<trkpt lat="33.8103132" lon="-118.3938671">
  <ele>-10.912</ele>
  <time>2026-09-02T22:13:10Z</time>
  <course>186.34</course>
  <speed>0.022360679774997897</speed>
  <fix>3d</fix>
</trkpt>
<trkpt lat="33.8103132" lon="-118.3938671">
  <ele>-10.97</ele>
  <time>2026-09-02T22:13:10Z</time>
  <course>186.34</course>
  <speed>0.022360679774997897</speed>
  <fix>3d</fix>
</trkpt>
<trkpt lat="33.810313" lon="-118.393867">
  <ele>-10.57</ele>
  <time>2026-09-02T22:13:10Z</time>
  <course>0.0</course>
  <speed>0.0</speed>
  <fix>3d</fix>
</trkpt>
<trkpt lat="33.8103132" lon="-118.3938671">
  <ele>-10.99</ele>
  <time>2026-09-02T22:13:10Z</time>
  <course>186.35</course>
  <speed>0.022360679774997897</speed>
  <fix>3d</fix>
</trkpt>
<trkpt lat="33.8103132" lon="-118.3938671">
  <ele>-11.031</ele>
  <time>2026-09-02T22:13:10Z</time>
  <course>186.35</course>
  <speed>0.022360679774997897</speed>
  <fix>3d</fix>
</trkpt>
<trkpt lat="33.810313" lon="-118.393867">
  <ele>-10.57</ele>
  <time>2026-09-02T22:13:10Z</time>
  <course>0.0</course>
  <speed>0.0</speed>
  <fix>3d</fix>
</trkpt>
<trkpt lat="33.8103132" lon="-118.3938671">
  <ele>-11.05</ele>
  <time>2026-09-02T22:13:10Z</time>
  <course>186.35</course>
  <speed>0.022360679774997897</speed>
  <fix>3d</fix>
</trkpt>
<trkpt lat="33.8103132" lon="-118.3938671">
  <ele>-11.091</ele>
  <time>2026-09-02T22:13:10Z</time>
  <course>186.35</course>
  <speed>0.022360679774997897</speed>
  <fix>3d</fix>
</trkpt>
<trkpt lat="33.810313" lon="-118.393867">
  <ele>-10.69</ele>
  <time>2026-09-02T22:13:10Z</time>
  <course>0.0</course>
  <speed>0.0</speed>
  <fix>3d</fix>
</trkpt>
<trkpt lat="33.8103132" lon="-118.3938671">
  <ele>-11.111</ele>
  <time>2026-09-02T22:13:10Z</time>
  <course>186.36</course>
  <speed>0.022360679774997897</speed>
  <fix>3d</fix>
</trkpt>
<trkpt lat="33.8103132" lon="-118.3938671">
  <ele>-11.153</ele>
  <time>2026-09-02T22:13:10Z</time>
  <course>186.36</course>
  <speed>0.022360679774997897</speed>
  <fix>3d</fix>
</trkpt>
<trkpt lat="33.810313" lon="-118.393867">
  <ele>-10.69</ele>
  <time>2026-09-02T22:13:10Z</time>
  <course>0.0</course>
  <speed>0.0</speed>
  <fix>3d</fix>
</trkpt>
<trkpt lat="33.8103132" lon="-118.3938671">
  <ele>-11.174</ele>
  <time>2026-09-02T22:13:10Z</time>
  <course>186.36</course>
  <speed>0.022360679774997897</speed>
  <fix>3d</fix>
</trkpt>
<trkpt lat="33.8103132" lon="-118.3938671">
  <ele>-11.214</ele>
  <time>2026-09-02T22:13:10Z</time>
  <course>186.36</course>
  <speed>0.022360679774997897</speed>
  <fix>3d</fix>
</trkpt>
<trkpt lat="33.810313" lon="-118.393867">
  <ele>-10.8</ele>
  <time>2026-09-02T22:13:10Z</time>
  <course>0.0</course>
  <speed>0.0</speed>
  <fix>3d</fix>
</trkpt>
<trkpt lat="33.8103132" lon="-118.3938671">
  <ele>-11.234</ele>
  <time>2026-09-02T22:13:10Z</time>
  <course>186.37</course>
  <speed>0.022360679774997897</speed>
  <fix>3d</fix>
</trkpt>
<trkpt lat="33.8103132" lon="-118.3938671">
  <ele>-11.276</ele>
  <time>2026-09-02T22:13:10Z</time>
  <course>186.37</course>
  <speed>0.022360679774997897</speed>
  <fix>3d</fix>
</trkpt>
<trkpt lat="33.810313" lon="-118.393867">
  <ele>-10.8</ele>
  <time>2026-09-02T22:13:10Z</time>
  <course>0.0</course>
  <speed>0.0</speed>
  <fix>3d</fix>
</trkpt>
<trkpt lat="33.8103132" lon="-118.3938671">
  <ele>-11.298</ele>
  <time>2026-09-02T22:13:10Z</time>
  <course>186.37</course>
  <speed>0.022360679774997897</speed>
  <fix>3d</fix>
</trkpt>
<trkpt lat="33.8103132" lon="-118.3938671">
  <ele>-11.338</ele>
  <time>2026-09-02T22:13:10Z</time>
  <course>186.37</course>
  <speed>0.022360679774997897</speed>
  <fix>3d</fix>
</trkpt>
<trkpt lat="33.810313" lon="-118.393867">
  <ele>-10.93</ele>
  <time>2026-09-02T22:13:10Z</time>
  <course>0.0</course>
  <speed>0.0</speed>
  <fix>3d</fix>
</trkpt>
<trkpt lat="33.8103132" lon="-118.3938671">
  <ele>-11.339</ele>
  <time>2026-09-02T22:13:10Z</time>
  <course>186.37</course>
  <speed>0.022360679774997897</speed>
  <fix>3d</fix>
</trkpt>
<trkpt lat="33.8103132" lon="-118.3938671">
  <ele>-11.399</ele>
  <time>2026-09-02T22:13:10Z</time>
  <course>186.38</course>
  <speed>0.022360679774997897</speed>
  <fix>3d</fix>
</trkpt>
<trkpt lat="33.810313" lon="-118.393867">
  <ele>-10.93</ele>
  <time>2026-09-02T22:13:10Z</time>
  <course>0.0</course>
  <speed>0.0</speed>
  <fix>3d</fix>
</trkpt>
<trkpt lat="33.8103132" lon="-118.3938671">
  <ele>-11.401</ele>
  <time>2026-09-02T22:13:10Z</time>
  <course>186.38</course>
  <speed>0.022360679774997897</speed>
  <fix>3d</fix>
</trkpt>
<trkpt lat="33.8103132" lon="-118.3938671">
  <ele>-11.46</ele>
  <time>2026-09-02T22:13:10Z</time>
  <course>186.38</course>
  <speed>0.022360679774997897</speed>
  <fix>3d</fix>
</trkpt>
<trkpt lat="33.810313" lon="-118.393867">
  <ele>-11.04</ele>
  <time>2026-09-02T22:13:10Z</time>
  <course>0.0</course>
  <speed>0.0</speed>
  <fix>3d</fix>
</trkpt>
<trkpt lat="33.8103132" lon="-118.3938671">
  <ele>-11.462</ele>
  <time>2026-09-02T22:13:10Z</time>
  <course>186.38</course>
  <speed>0.022360679774997897</speed>
  <fix>3d</fix>
</trkpt>
<trkpt lat="33.8103132" lon="-118.3938671">
  <ele>-11.521</ele>
  <time>2026-09-02T22:13:10Z</time>
  <course>186.39</course>
  <speed>0.022360679774997897</speed>
  <fix>3d</fix>
</trkpt>
<trkpt lat="33.810313" lon="-118.393867">
  <ele>-11.04</ele>
  <time>2026-09-02T22:13:10Z</time>
  <course>0.0</course>
  <speed>0.0</speed>
  <fix>3d</fix>
</trkpt>
<trkpt lat="33.8103132" lon="-118.3938671">
  <ele>-11.524</ele>
  <time>2026-09-02T22:13:10Z</time>
  <course>186.39</course>
  <speed>0.022360679774997897</speed>
  <fix>3d</fix>
</trkpt>
<trkpt lat="33.8103132" lon="-118.3938671">
  <ele>-11.584</ele>
  <time>2026-09-02T22:13:10Z</time>
  <course>186.39</course>
  <speed>0.022360679774997897</speed>
  <fix>3d</fix>
</trkpt>
<trkpt lat="33.810313" lon="-118.393867">
  <ele>-11.17</ele>
  <time>2026-09-02T22:13:10Z</time>
  <course>0.0</course>
  <speed>0.0</speed>
  <fix>3d</fix>
</trkpt>
<trkpt lat="33.8103132" lon="-118.3938671">
  <ele>-11.586</ele>
  <time>2026-09-02T22:13:10Z</time>
  <course>186.39</course>
  <speed>0.022360679774997897</speed>
  <fix>3d</fix>
</trkpt>
<trkpt lat="33.8103132" lon="-118.3938671">
  <ele>-11.646</ele>
  <time>2026-09-02T22:13:10Z</time>
  <course>186.4</course>
  <speed>0.022360679774997897</speed>
  <fix>3d</fix>
</trkpt>
<trkpt lat="33.810313" lon="-118.393867">
  <ele>-11.17</ele>
  <time>2026-09-02T22:13:10Z</time>
  <course>0.0</course>
  <speed>0.0</speed>
  <fix>3d</fix>
</trkpt>
<trkpt lat="33.8103132" lon="-118.3938671">
  <ele>-11.648</ele>
  <time>2026-09-02T22:13:10Z</time>
  <course>186.4</course>
  <speed>0.022360679774997897</speed>
  <fix>3d</fix>
</trkpt>
<trkpt lat="33.8103132" lon="-118.3938671">
  <ele>-11.709</ele>
  <time>2026-09-02T22:13:10Z</time>
  <course>186.4</course>
  <speed>0.022360679774997897</speed>
  <fix>3d</fix>
</trkpt>
<trkpt lat="33.810313" lon="-118.393867">
  <ele>-11.29</ele>
  <time>2026-09-02T22:13:10Z</time>
  <course>0.0</course>
  <speed>0.0</speed>
  <fix>3d</fix>
</trkpt>
<trkpt lat="33.8103132" lon="-118.3938671">
  <ele>-11.71</ele>
  <time>2026-09-02T22:13:10Z</time>
  <course>186.4</course>
  <speed>0.022360679774997897</speed>
  <fix>3d</fix>
</trkpt>
<trkpt lat="33.8103132" lon="-118.3938671">
  <ele>-11.77</ele>
  <time>2026-09-02T22:13:10Z</time>
  <course>186.41</course>
  <speed>0.022360679774997897</speed>
  <fix>3d</fix>
</trkpt>
<trkpt lat="33.810313" lon="-118.393867">
  <ele>-11.29</ele>
  <time>2026-09-02T22:13:10Z</time>
  <course>0.0</course>
  <speed>0.0</speed>
  <fix>3d</fix>
</trkpt>
<trkpt lat="33.8103132" lon="-118.3938671">
  <ele>-11.772</ele>
  <time>2026-09-02T22:13:10Z</time>
  <course>186.41</course>
  <speed>0.022360679774997897</speed>
  <fix>3d</fix>
</trkpt>
<trkpt lat="33.8103132" lon="-118.3938671">
  <ele>-11.832</ele>
  <time>2026-09-02T22:13:10Z</time>
  <course>186.41</course>
  <speed>0.022360679774997897</speed>
  <fix>3d</fix>
</trkpt>
<trkpt lat="33.810313" lon="-118.393867">
  <ele>-11.41</ele>
  <time>2026-09-02T22:13:10Z</time>
  <course>0.0</course>
  <speed>0.0</speed>
  <fix>3d</fix>
</trkpt>
<trkpt lat="33.8103132" lon="-118.3938671">
  <ele>-11.834</ele>
  <time>2026-09-02T22:13:10Z</time>
  <course>186.41</course>
  <speed>0.022360679774997897</speed>
  <fix>3d</fix>
</trkpt>
<trkpt lat="33.8103132" lon="-118.3938671">
  <ele>-11.894</ele>
  <time>2026-09-02T22:13:10Z</time>
  <course>186.41</course>
  <speed>0.022360679774997897</speed>
  <fix>3d</fix>
</trkpt>
<trkpt lat="33.810313" lon="-118.393867">
  <ele>-11.41</ele>
  <time>2026-09-02T22:13:10Z</time>
  <course>0.0</course>
  <speed>0.0</speed>
  <fix>3d</fix>
</trkpt>
<trkpt lat="33.8103132" lon="-118.3938671">
  <ele>-11.896</ele>
  <time>2026-09-02T22:13:10Z</time>
  <course>186.41</course>
  <speed>0.022360679774997897</speed>
  <fix>3d</fix>
</trkpt>
<trkpt lat="33.8103132" lon="-118.3938671">
  <ele>-11.956</ele>
  <time>2026-09-02T22:13:10Z</time>
  <course>186.42</course>
  <speed>0.022360679774997897</speed>
  <fix>3d</fix>
</trkpt>
<trkpt lat="33.810313" lon="-118.393867">
  <ele>-11.53</ele>
  <time>2026-09-02T22:13:10Z</time>
  <course>0.0</course>
  <speed>0.0</speed>
  <fix>3d</fix>
</trkpt>
<trkpt lat="33.8103132" lon="-118.3938671">
  <ele>-11.958</ele>
  <time>2026-09-02T22:13:10Z</time>
  <course>186.42</course>
  <speed>0.022360679774997897</speed>
  <fix>3d</fix>
</trkpt>
<trkpt lat="33.8103132" lon="-118.3938671">
  <ele>-12.018</ele>
  <time>2026-09-02T22:13:10Z</time>
  <course>186.42</course>
  <speed>0.022360679774997897</speed>
  <fix>3d</fix>
</trkpt>
<trkpt lat="33.810313" lon="-118.393867">
  <ele>-11.53</ele>
  <time>2026-09-02T22:13:10Z</time>
  <course>0.0</course>
  <speed>0.0</speed>
  <fix>3d</fix>
</trkpt>
<trkpt lat="33.8103132" lon="-118.3938671">
  <ele>-12.019</ele>
  <time>2026-09-02T22:13:10Z</time>
  <course>186.42</course>
  <speed>0.022360679774997897</speed>
  <fix>3d</fix>
</trkpt>
<trkpt lat="33.8103132" lon="-118.3938671">
  <ele>-12.079</ele>
  <time>2026-09-02T22:13:10Z</time>
  <course>186.42</course>
  <speed>0.022360679774997897</speed>
  <fix>3d</fix>
</trkpt>
<trkpt lat="33.810313" lon="-118.393867">
  <ele>-11.65</ele>
  <time>2026-09-02T22:13:10Z</time>
  <course>0.0</course>
  <speed>0.0</speed>
  <fix>3d</fix>
</trkpt>
<trkpt lat="33.8103132" lon="-118.3938671">
  <ele>-12.081</ele>
  <time>2026-09-02T22:13:10Z</time>
  <course>186.42</course>
  <speed>0.022360679774997897</speed>
  <fix>3d</fix>
</trkpt>
<trkpt lat="33.8103132" lon="-118.3938671">
  <ele>-12.141</ele>
  <time>2026-09-02T22:13:10Z</time>
  <course>186.43</course>
  <speed>0.022360679774997897</speed>
  <fix>3d</fix>
</trkpt>
<trkpt lat="33.810313" lon="-118.393867">
  <ele>-11.65</ele>
  <time>2026-09-02T22:13:10Z</time>
  <course>0.0</course>
  <speed>0.0</speed>
  <fix>3d</fix>
</trkpt>
<trkpt lat="33.8103132" lon="-118.3938671">
  <ele>-12.143</ele>
  <time>2026-09-02T22:13:10Z</time>
  <course>186.43</course>
  <speed>0.022360679774997897</speed>
  <fix>3d</fix>
</trkpt>
<trkpt lat="33.8103132" lon="-118.3938671">
  <ele>-12.202</ele>
  <time>2026-09-02T22:13:10Z</time>
  <course>186.43</course>
  <speed>0.022360679774997897</speed>
  <fix>3d</fix>
</trkpt>
<trkpt lat="33.810313" lon="-118.393867">
  <ele>-11.77</ele>
  <time>2026-09-02T22:13:10Z</time>
  <course>0.0</course>
  <speed>0.0</speed>
  <fix>3d</fix>
</trkpt>
<trkpt lat="33.8103132" lon="-118.3938671">
  <ele>-12.203</ele>
  <time>2026-09-02T22:13:10Z</time>
  <course>186.43</course>
  <speed>0.022360679774997897</speed>
  <fix>3d</fix>
</trkpt>
<trkpt lat="33.8103132" lon="-118.3938671">
  <ele>-12.264</ele>
  <time>2026-09-02T22:13:10Z</time>
  <course>186.44</course>
  <speed>0.022360679774997897</speed>
  <fix>3d</fix>
</trkpt>
<trkpt lat="33.810313" lon="-118.393867">
  <ele>-11.77</ele>
  <time>2026-09-02T22:13:10Z</time>
  <course>0.0</course>
  <speed>0.0</speed>
  <fix>3d</fix>
</trkpt>
<trkpt lat="33.8103132" lon="-118.3938671">
  <ele>-12.265</ele>
  <time>2026-09-02T22:13:10Z</time>
  <course>186.44</course>
  <speed>0.022360679774997897</speed>
  <fix>3d</fix>
</trkpt>
<trkpt lat="33.8103132" lon="-118.3938671">
  <ele>-12.327</ele>
  <time>2026-09-02T22:13:10Z</time>
  <course>186.44</course>
  <speed>0.022360679774997897</speed>
  <fix>3d</fix>
</trkpt>
<trkpt lat="33.810313" lon="-118.393867">
  <ele>-11.88</ele>
  <time>2026-09-02T22:13:10Z</time>
  <course>0.0</course>
  <speed>0.0</speed>
  <fix>3d</fix>
</trkpt>
<trkpt lat="33.8103132" lon="-118.3938671">
  <ele>-12.33</ele>
  <time>2026-09-02T22:13:10Z</time>
  <course>186.44</course>
  <speed>0.022360679774997897</speed>
  <fix>3d</fix>
</trkpt>
<trkpt lat="33.8103132" lon="-118.3938671">
  <ele>-12.39</ele>
  <time>2026-09-02T22:13:10Z</time>
  <course>186.44</course>
  <speed>0.022360679774997897</speed>
  <fix>3d</fix>
</trkpt>
<trkpt lat="33.810313" lon="-118.393867">
  <ele>-11.88</ele>
  <time>2026-09-02T22:13:10Z</time>
  <course>0.0</course>
  <speed>0.0</speed>
  <fix>3d</fix>
</trkpt>
<trkpt lat="33.8103132" lon="-118.3938671">
  <ele>-12.391</ele>
  <time>2026-09-02T22:13:10Z</time>
  <course>186.44</course>
  <speed>0.022360679774997897</speed>
  <fix>3d</fix>
</trkpt>
<trkpt lat="33.8103132" lon="-118.3938671">
  <ele>-12.455</ele>
  <time>2026-09-02T22:13:10Z</time>
  <course>186.45</course>
  <speed>0.022360679774997897</speed>
  <fix>3d</fix>
</trkpt>
<trkpt lat="33.810313" lon="-118.393867">
  <ele>-12.01</ele>
  <time>2026-09-02T22:13:10Z</time>
  <course>0.0</course>
  <speed>0.0</speed>
  <fix>3d</fix>
</trkpt>
<trkpt lat="33.8103132" lon="-118.3938671">
  <ele>-12.456</ele>
  <time>2026-09-02T22:13:10Z</time>
  <course>186.45</course>
  <speed>0.022360679774997897</speed>
  <fix>3d</fix>
</trkpt>
<trkpt lat="33.8103132" lon="-118.3938671">
  <ele>-12.518</ele>
  <time>2026-09-02T22:13:10Z</time>
  <course>186.45</course>
  <speed>0.022360679774997897</speed>
  <fix>3d</fix>
</trkpt>
<trkpt lat="33.810313" lon="-118.393867">
  <ele>-12.01</ele>
  <time>2026-09-02T22:13:10Z</time>
  <course>0.0</course>
  <speed>0.0</speed>
  <fix>3d</fix>
</trkpt>
<trkpt lat="33.8103132" lon="-118.3938671">
  <ele>-12.519</ele>
  <time>2026-09-02T22:13:10Z</time>
  <course>186.45</course>
  <speed>0.022360679774997897</speed>
  <fix>3d</fix>
</trkpt>
<trkpt lat="33.8103132" lon="-118.3938671">
  <ele>-12.58</ele>
  <time>2026-09-02T22:13:10Z</time>
  <course>186.45</course>
  <speed>0.022360679774997897</speed>
  <fix>3d</fix>
</trkpt>
<trkpt lat="33.810313" lon="-118.393867">
  <ele>-12.12</ele>
  <time>2026-09-02T22:13:10Z</time>
  <course>0.0</course>
  <speed>0.0</speed>
  <fix>3d</fix>
</trkpt>
<trkpt lat="33.8103132" lon="-118.3938671">
  <ele>-12.582</ele>
  <time>2026-09-02T22:13:10Z</time>
  <course>186.45</course>
  <speed>0.022360679774997897</speed>
  <fix>3d</fix>
</trkpt>
<trkpt lat="33.8103132" lon="-118.3938671">
  <ele>-12.643</ele>
  <time>2026-09-02T22:13:10Z</time>
  <course>186.45</course>
  <speed>0.022360679774997897</speed>
  <fix>3d</fix>
</trkpt>
<trkpt lat="33.810313" lon="-118.393867">
  <ele>-12.12</ele>
  <time>2026-09-02T22:13:10Z</time>
  <course>0.0</course>
  <speed>0.0</speed>
  <fix>3d</fix>
</trkpt>
<trkpt lat="33.8103132" lon="-118.3938671">
  <ele>-12.645</ele>
  <time>2026-09-02T22:13:10Z</time>
  <course>186.45</course>
  <speed>0.022360679774997897</speed>
  <fix>3d</fix>
</trkpt>
<trkpt lat="33.8103132" lon="-118.3938671">
  <ele>-12.706</ele>
  <time>2026-09-02T22:13:10Z</time>
  <course>186.46</course>
  <speed>0.022360679774997897</speed>
  <fix>3d</fix>
</trkpt>
<trkpt lat="33.810313" lon="-118.393867">
  <ele>-12.25</ele>
  <time>2026-09-02T22:13:10Z</time>
  <course>0.0</course>
  <speed>0.0</speed>
  <fix>3d</fix>
</trkpt>
<trkpt lat="33.8103132" lon="-118.3938671">
  <ele>-12.708</ele>
  <time>2026-09-02T22:13:10Z</time>
  <course>186.46</course>
  <speed>0.022360679774997897</speed>
  <fix>3d</fix>
</trkpt>
<trkpt lat="33.8103132" lon="-118.3938671">
  <ele>-12.77</ele>
  <time>2026-09-02T22:13:10Z</time>
  <course>186.46</course>
  <speed>0.022360679774997897</speed>
  <fix>3d</fix>
</trkpt>
<trkpt lat="33.810313" lon="-118.393867">
  <ele>-12.25</ele>
  <time>2026-09-02T22:13:10Z</time>
  <course>0.0</course>
  <speed>0.0</speed>
  <fix>3d</fix>
</trkpt>
<trkpt lat="33.8103132" lon="-118.3938671">
  <ele>-12.772</ele>
  <time>2026-09-02T22:13:10Z</time>
  <course>186.46</course>
  <speed>0.022360679774997897</speed>
  <fix>3d</fix>
</trkpt>
<trkpt lat="33.8103132" lon="-118.3938671">
  <ele>-12.834</ele>
  <time>2026-09-02T22:13:10Z</time>
  <course>186.46</course>
  <speed>0.022360679774997897</speed>
  <fix>3d</fix>
</trkpt>
<trkpt lat="33.810313" lon="-118.393867">
  <ele>-12.37</ele>
  <time>2026-09-02T22:13:10Z</time>
  <course>0.0</course>
  <speed>0.0</speed>
  <fix>3d</fix>
</trkpt>
<trkpt lat="33.8103132" lon="-118.3938671">
  <ele>-12.836</ele>
  <time>2026-09-02T22:13:10Z</time>
  <course>186.46</course>
  <speed>0.022360679774997897</speed>
  <fix>3d</fix>
</trkpt>
<trkpt lat="33.8103132" lon="-118.3938671">
  <ele>-12.898</ele>
  <time>2026-09-02T22:13:10Z</time>
  <course>186.46</course>
  <speed>0.022360679774997897</speed>
  <fix>3d</fix>
</trkpt>
<trkpt lat="33.810313" lon="-118.393867">
  <ele>-12.37</ele>
  <time>2026-09-02T22:13:10Z</time>
  <course>0.0</course>
  <speed>0.0</speed>
  <fix>3d</fix>
</trkpt>
<trkpt lat="33.8103132" lon="-118.3938671">
  <ele>-12.9</ele>
  <time>2026-09-02T22:13:10Z</time>
  <course>186.46</course>
  <speed>0.022360679774997897</speed>
  <fix>3d</fix>
</trkpt>
<trkpt lat="33.8103132" lon="-118.3938671">
  <ele>-12.961</ele>
  <time>2026-09-02T22:13:10Z</time>
  <course>186.47</course>
  <speed>0.022360679774997897</speed>
  <fix>3d</fix>
</trkpt>
<trkpt lat="33.810313" lon="-118.393867">
  <ele>-12.5</ele>
  <time>2026-09-02T22:13:10Z</time>
  <course>0.0</course>
  <speed>0.0</speed>
  <fix>3d</fix>
</trkpt>
<trkpt lat="33.8103132" lon="-118.3938671">
  <ele>-12.963</ele>
  <time>2026-09-02T22:13:10Z</time>
  <course>186.47</course>
  <speed>0.022360679774997897</speed>
  <fix>3d</fix>
</trkpt>
<trkpt lat="33.8103132" lon="-118.3938671">
  <ele>-13.025</ele>
  <time>2026-09-02T22:13:10Z</time>
  <course>186.47</course>
  <speed>0.022360679774997897</speed>
  <fix>3d</fix>
</trkpt>
<trkpt lat="33.810313" lon="-118.393867">
  <ele>-12.5</ele>
  <time>2026-09-02T22:13:10Z</time>
  <course>0.0</course>
  <speed>0.0</speed>
  <fix>3d</fix>
</trkpt>
<trkpt lat="33.8103132" lon="-118.3938671">
  <ele>-13.026</ele>
  <time>2026-09-02T22:13:10Z</time>
  <course>186.47</course>
  <speed>0.022360679774997897</speed>
  <fix>3d</fix>
</trkpt>
<trkpt lat="33.8103132" lon="-118.3938671">
  <ele>-13.087</ele>
  <time>2026-09-02T22:13:10Z</time>
  <course>186.47</course>
  <speed>0.022360679774997897</speed>
  <fix>3d</fix>
</trkpt>
<trkpt lat="33.810313" lon="-118.393867">
  <ele>-12.62</ele>
  <time>2026-09-02T22:13:10Z</time>
  <course>0.0</course>
  <speed>0.0</speed>
  <fix>3d</fix>
</trkpt>
<trkpt lat="33.8103132" lon="-118.3938671">
  <ele>-13.088</ele>
  <time>2026-09-02T22:13:10Z</time>
  <course>186.47</course>
  <speed>0.022360679774997897</speed>
  <fix>3d</fix>
</trkpt>
<trkpt lat="33.8103132" lon="-118.3938671">
  <ele>-13.149</ele>
  <time>2026-09-02T22:13:10Z</time>
  <course>186.47</course>
  <speed>0.022360679774997897</speed>
  <fix>3d</fix>
</trkpt>
<trkpt lat="33.810313" lon="-118.393867">
  <ele>-12.62</ele>
  <time>2026-09-02T22:13:10Z</time>
  <course>0.0</course>
  <speed>0.0</speed>
  <fix>3d</fix>
</trkpt>
<trkpt lat="33.8103132" lon="-118.3938671">
  <ele>-13.151</ele>
  <time>2026-09-02T22:13:10Z</time>
  <course>186.47</course>
  <speed>0.022360679774997897</speed>
  <fix>3d</fix>
</trkpt>
<trkpt lat="33.8103132" lon="-118.3938671">
  <ele>-13.211</ele>
  <time>2026-09-02T22:13:10Z</time>
  <course>186.48</course>
  <speed>0.022360679774997897</speed>
  <fix>3d</fix>
</trkpt>
<trkpt lat="33.810313" lon="-118.393867">
  <ele>-12.74</ele>
  <time>2026-09-02T22:13:10Z</time>
  <course>0.0</course>
  <speed>0.0</speed>
  <fix>3d</fix>
</trkpt>
<trkpt lat="33.8103132" lon="-118.3938671">
  <ele>-13.213</ele>
  <time>2026-09-02T22:13:10Z</time>
  <course>186.48</course>
  <speed>0.022360679774997897</speed>
  <fix>3d</fix>
</trkpt>
<trkpt lat="33.8103132" lon="-118.3938671">
  <ele>-13.273</ele>
  <time>2026-09-02T22:13:10Z</time>
  <course>186.48</course>
  <speed>0.022360679774997897</speed>
  <fix>3d</fix>
</trkpt>
<trkpt lat="33.810313" lon="-118.393867">
  <ele>-12.74</ele>
  <time>2026-09-02T22:13:10Z</time>
  <course>0.0</course>
  <speed>0.0</speed>
  <fix>3d</fix>
</trkpt>
<trkpt lat="33.8103132" lon="-118.3938671">
  <ele>-13.275</ele>
  <time>2026-09-02T22:13:10Z</time>
  <course>186.48</course>
  <speed>0.022360679774997897</speed>
  <fix>3d</fix>
</trkpt>
<trkpt lat="33.8103132" lon="-118.3938671">
  <ele>-13.335</ele>
  <time>2026-09-02T22:13:10Z</time>
  <course>186.48</course>
  <speed>0.022360679774997897</speed>
  <fix>3d</fix>
</trkpt>
<trkpt lat="33.810313" lon="-118.393867">
  <ele>-12.86</ele>
  <time>2026-09-02T22:13:10Z</time>
  <course>0.0</course>
  <speed>0.0</speed>
  <fix>3d</fix>
</trkpt>
<trkpt lat="33.8103132" lon="-118.3938671">
  <ele>-13.337</ele>
  <time>2026-09-02T22:13:10Z</time>
  <course>186.48</course>
  <speed>0.022360679774997897</speed>
  <fix>3d</fix>
</trkpt>
<trkpt lat="33.8103132" lon="-118.3938671">
  <ele>-13.398</ele>
  <time>2026-09-02T22:13:10Z</time>
  <course>186.48</course>
  <speed>0.022360679774997897</speed>
  <fix>3d</fix>
</trkpt>
<trkpt lat="33.810313" lon="-118.393867">
  <ele>-12.86</ele>
  <time>2026-09-02T22:13:10Z</time>
  <course>0.0</course>
  <speed>0.0</speed>
  <fix>3d</fix>
</trkpt>
<trkpt lat="33.8103132" lon="-118.3938671">
  <ele>-13.399</ele>
  <time>2026-09-02T22:13:10Z</time>
  <course>186.48</course>
  <speed>0.022360679774997897</speed>
  <fix>3d</fix>
</trkpt>
<trkpt lat="33.8103132" lon="-118.3938671">
  <ele>-13.459</ele>
  <time>2026-09-02T22:13:10Z</time>
  <course>186.48</course>
  <speed>0.022360679774997897</speed>
  <fix>3d</fix>
</trkpt>
<trkpt lat="33.810313" lon="-118.393867">
  <ele>-12.98</ele>
  <time>2026-09-02T22:13:10Z</time>
  <course>0.0</course>
  <speed>0.0</speed>
  <fix>3d</fix>
</trkpt>
<trkpt lat="33.8103132" lon="-118.3938671">
  <ele>-13.461</ele>
  <time>2026-09-02T22:13:10Z</time>
  <course>186.48</course>
  <speed>0.022360679774997897</speed>
  <fix>3d</fix>
</trkpt>
<trkpt lat="33.8103132" lon="-118.3938671">
  <ele>-13.52</ele>
  <time>2026-09-02T22:13:10Z</time>
  <course>186.48</course>
  <speed>0.022360679774997897</speed>
  <fix>3d</fix>
</trkpt>
<trkpt lat="33.810313" lon="-118.393867">
  <ele>-12.98</ele>
  <time>2026-09-02T22:13:10Z</time>
  <course>0.0</course>
  <speed>0.0</speed>
  <fix>3d</fix>
</trkpt>
<trkpt lat="33.8103132" lon="-118.3938671">
  <ele>-13.521</ele>
  <time>2026-09-02T22:13:10Z</time>
  <course>186.48</course>
  <speed>0.022360679774997897</speed>
  <fix>3d</fix>
</trkpt>
<trkpt lat="33.8103132" lon="-118.3938671">
  <ele>-13.582</ele>
  <time>2026-09-02T22:13:10Z</time>
  <course>186.48</course>
  <speed>0.022360679774997897</speed>
  <fix>3d</fix>
</trkpt>
<trkpt lat="33.810313" lon="-118.393867">
  <ele>-13.1</ele>
  <time>2026-09-02T22:13:10Z</time>
  <course>0.0</course>
  <speed>0.0</speed>
  <fix>3d</fix>
</trkpt>
<trkpt lat="33.8103132" lon="-118.3938671">
  <ele>-13.583</ele>
  <time>2026-09-02T22:13:10Z</time>
  <course>186.49</course>
  <speed>0.022360679774997897</speed>
  <fix>3d</fix>
</trkpt>
<trkpt lat="33.8103132" lon="-118.3938671">
  <ele>-13.643</ele>
  <time>2026-09-02T22:13:10Z</time>
  <course>186.49</course>
  <speed>0.022360679774997897</speed>
  <fix>3d</fix>
</trkpt>
<trkpt lat="33.810313" lon="-118.393867">
  <ele>-13.1</ele>
  <time>2026-09-02T22:13:10Z</time>
  <course>0.0</course>
  <speed>0.0</speed>
  <fix>3d</fix>
</trkpt>
<trkpt lat="33.8103132" lon="-118.3938671">
  <ele>-13.644</ele>
  <time>2026-09-02T22:13:10Z</time>
  <course>186.49</course>
  <speed>0.022360679774997897</speed>
  <fix>3d</fix>
</trkpt>
<trkpt lat="33.8103132" lon="-118.3938671">
  <ele>-13.703</ele>
  <time>2026-09-02T22:13:11Z</time>
  <course>186.49</course>
  <speed>0.022360679774997897</speed>
  <fix>3d</fix>
</trkpt>
<trkpt lat="33.810313" lon="-118.393867">
  <ele>-13.21</ele>
  <time>2026-09-02T22:13:11Z</time>
  <course>0.0</course>
  <speed>0.0</speed>
  <fix>3d</fix>
</trkpt>
<trkpt lat="33.8103132" lon="-118.3938671">
  <ele>-13.705</ele>
  <time>2026-09-02T22:13:11Z</time>
  <course>186.49</course>
  <speed>0.022360679774997897</speed>
  <fix>3d</fix>
</trkpt>
<trkpt lat="33.8103132" lon="-118.3938671">
  <ele>-13.765</ele>
  <time>2026-09-02T22:13:11Z</time>
  <course>186.49</course>
  <speed>0.022360679774997897</speed>
  <fix>3d</fix>
</trkpt>
<trkpt lat="33.810313" lon="-118.393867">
  <ele>-13.21</ele>
  <time>2026-09-02T22:13:11Z</time>
  <course>0.0</course>
  <speed>0.0</speed>
  <fix>3d</fix>
</trkpt>
<trkpt lat="33.8103132" lon="-118.3938671">
  <ele>-13.766</ele>
  <time>2026-09-02T22:13:11Z</time>
  <course>186.49</course>
  <speed>0.022360679774997897</speed>
  <fix>3d</fix>
</trkpt>
<trkpt lat="33.8103132" lon="-118.3938671">
  <ele>-13.825</ele>
  <time>2026-09-02T22:13:11Z</time>
  <course>186.49</course>
  <speed>0.022360679774997897</speed>
  <fix>3d</fix>
</trkpt>
<trkpt lat="33.810313" lon="-118.393867">
  <ele>-13.34</ele>
  <time>2026-09-02T22:13:11Z</time>
  <course>0.0</course>
  <speed>0.0</speed>
  <fix>3d</fix>
</trkpt>
<trkpt lat="33.8103132" lon="-118.3938671">
  <ele>-13.826</ele>
  <time>2026-09-02T22:13:11Z</time>
  <course>186.49</course>
  <speed>0.022360679774997897</speed>
  <fix>3d</fix>
</trkpt>
<trkpt lat="33.8103132" lon="-118.3938671">
  <ele>-13.886</ele>
  <time>2026-09-02T22:13:11Z</time>
  <course>186.49</course>
  <speed>0.022360679774997897</speed>
  <fix>3d</fix>
</trkpt>
<trkpt lat="33.810313" lon="-118.393867">
  <ele>-13.34</ele>
  <time>2026-09-02T22:13:11Z</time>
  <course>0.0</course>
  <speed>0.0</speed>
  <fix>3d</fix>
</trkpt>
<trkpt lat="33.8103132" lon="-118.3938671">
  <ele>-13.887</ele>
  <time>2026-09-02T22:13:11Z</time>
  <course>186.49</course>
  <speed>0.022360679774997897</speed>
  <fix>3d</fix>
</trkpt>
<trkpt lat="33.8103132" lon="-118.3938671">
  <ele>-13.947</ele>
  <time>2026-09-02T22:13:11Z</time>
  <course>186.49</course>
  <speed>0.022360679774997897</speed>
  <fix>3d</fix>
</trkpt>
<trkpt lat="33.810313" lon="-118.393867">
  <ele>-13.46</ele>
  <time>2026-09-02T22:13:11Z</time>
  <course>0.0</course>
  <speed>0.0</speed>
  <fix>3d</fix>
</trkpt>
<trkpt lat="33.8103132" lon="-118.3938671">
  <ele>-13.949</ele>
  <time>2026-09-02T22:13:11Z</time>
  <course>186.49</course>
  <speed>0.022360679774997897</speed>
  <fix>3d</fix>
</trkpt>
<trkpt lat="33.8103132" lon="-118.3938671">
  <ele>-14.008</ele>
  <time>2026-09-02T22:13:11Z</time>
  <course>186.49</course>
  <speed>0.022360679774997897</speed>
  <fix>3d</fix>
</trkpt>
<trkpt lat="33.810313" lon="-118.393867">
  <ele>-13.46</ele>
  <time>2026-09-02T22:13:11Z</time>
  <course>0.0</course>
  <speed>0.0</speed>
  <fix>3d</fix>
</trkpt>
<trkpt lat="33.8103132" lon="-118.3938671">
  <ele>-14.01</ele>
  <time>2026-09-02T22:13:11Z</time>
  <course>186.49</course>
  <speed>0.022360679774997897</speed>
  <fix>3d</fix>
</trkpt>
<trkpt lat="33.8103132" lon="-118.3938671">
  <ele>-14.069</ele>
  <time>2026-09-02T22:13:11Z</time>
  <course>186.49</course>
  <speed>0.022360679774997897</speed>
  <fix>3d</fix>
</trkpt>
<trkpt lat="33.810313" lon="-118.393867">
  <ele>-13.58</ele>
  <time>2026-09-02T22:13:11Z</time>
  <course>0.0</course>
  <speed>0.0</speed>
  <fix>3d</fix>
</trkpt>
<trkpt lat="33.8103132" lon="-118.3938671">
  <ele>-14.072</ele>
  <time>2026-09-02T22:13:11Z</time>
  <course>186.49</course>
  <speed>0.022360679774997897</speed>
  <fix>3d</fix>
</trkpt>
<trkpt lat="33.8103132" lon="-118.3938671">
  <ele>-14.131</ele>
  <time>2026-09-02T22:13:11Z</time>
  <course>186.49</course>
  <speed>0.022360679774997897</speed>
  <fix>3d</fix>
</trkpt>
<trkpt lat="33.810313" lon="-118.393867">
  <ele>-13.58</ele>
  <time>2026-09-02T22:13:11Z</time>
  <course>0.0</course>
  <speed>0.0</speed>
  <fix>3d</fix>
</trkpt>
<trkpt lat="33.8103132" lon="-118.3938671">
  <ele>-14.133</ele>
  <time>2026-09-02T22:13:11Z</time>
  <course>186.49</course>
  <speed>0.022360679774997897</speed>
  <fix>3d</fix>
</trkpt>
<trkpt lat="33.8103132" lon="-118.3938671">
  <ele>-14.191</ele>
  <time>2026-09-02T22:13:11Z</time>
  <course>186.49</course>
  <speed>0.022360679774997897</speed>
  <fix>3d</fix>
</trkpt>
<trkpt lat="33.810313" lon="-118.393867">
  <ele>-13.7</ele>
  <time>2026-09-02T22:13:11Z</time>
  <course>0.0</course>
  <speed>0.0</speed>
  <fix>3d</fix>
</trkpt>
<trkpt lat="33.8103132" lon="-118.3938671">
  <ele>-14.193</ele>
  <time>2026-09-02T22:13:11Z</time>
  <course>186.49</course>
  <speed>0.022360679774997897</speed>
  <fix>3d</fix>
</trkpt>
<trkpt lat="33.8103132" lon="-118.3938671">
  <ele>-14.253</ele>
  <time>2026-09-02T22:13:11Z</time>
  <course>186.49</course>
  <speed>0.022360679774997897</speed>
  <fix>3d</fix>
</trkpt>
<trkpt lat="33.810313" lon="-118.393867">
  <ele>-13.7</ele>
  <time>2026-09-02T22:13:11Z</time>
  <course>0.0</course>
  <speed>0.0</speed>
  <fix>3d</fix>
</trkpt>
<trkpt lat="33.8103132" lon="-118.3938671">
  <ele>-14.255</ele>
  <time>2026-09-02T22:13:11Z</time>
  <course>186.5</course>
  <speed>0.022360679774997897</speed>
  <fix>3d</fix>
</trkpt>
<trkpt lat="33.8103132" lon="-118.3938671">
  <ele>-14.315</ele>
  <time>2026-09-02T22:13:11Z</time>
  <course>186.5</course>
  <speed>0.022360679774997897</speed>
  <fix>3d</fix>
</trkpt>
<trkpt lat="33.810313" lon="-118.393867">
  <ele>-13.82</ele>
  <time>2026-09-02T22:13:11Z</time>
  <course>0.0</course>
  <speed>0.0</speed>
  <fix>3d</fix>
</trkpt>
<trkpt lat="33.8103132" lon="-118.3938671">
  <ele>-14.316</ele>
  <time>2026-09-02T22:13:11Z</time>
  <course>186.5</course>
  <speed>0.022360679774997897</speed>
  <fix>3d</fix>
</trkpt>
<trkpt lat="33.8103132" lon="-118.3938671">
  <ele>-14.377</ele>
  <time>2026-09-02T22:13:11Z</time>
  <course>186.5</course>
  <speed>0.022360679774997897</speed>
  <fix>3d</fix>
</trkpt>
<trkpt lat="33.810313" lon="-118.393867">
  <ele>-13.82</ele>
  <time>2026-09-02T22:13:11Z</time>
  <course>0.0</course>
  <speed>0.0</speed>
  <fix>3d</fix>
</trkpt>
<trkpt lat="33.8103132" lon="-118.3938671">
  <ele>-14.378</ele>
  <time>2026-09-02T22:13:11Z</time>
  <course>186.5</course>
  <speed>0.022360679774997897</speed>
  <fix>3d</fix>
</trkpt>
<trkpt lat="33.8103132" lon="-118.3938671">
  <ele>-14.437</ele>
  <time>2026-09-02T22:13:11Z</time>
  <course>186.5</course>
  <speed>0.022360679774997897</speed>
  <fix>3d</fix>
</trkpt>
<trkpt lat="33.810313" lon="-118.393867">
  <ele>-13.94</ele>
  <time>2026-09-02T22:13:11Z</time>
  <course>0.0</course>
  <speed>0.0</speed>
  <fix>3d</fix>
</trkpt>
<trkpt lat="33.8103132" lon="-118.3938671">
  <ele>-14.439</ele>
  <time>2026-09-02T22:13:11Z</time>
  <course>186.5</course>
  <speed>0.022360679774997897</speed>
  <fix>3d</fix>
</trkpt>
<trkpt lat="33.8103132" lon="-118.3938671">
  <ele>-14.498</ele>
  <time>2026-09-02T22:13:11Z</time>
  <course>186.5</course>
  <speed>0.022360679774997897</speed>
  <fix>3d</fix>
</trkpt>
<trkpt lat="33.810313" lon="-118.393867">
  <ele>-13.94</ele>
  <time>2026-09-02T22:13:11Z</time>
  <course>0.0</course>
  <speed>0.0</speed>
  <fix>3d</fix>
</trkpt>
<trkpt lat="33.8103132" lon="-118.3938671">
  <ele>-14.499</ele>
  <time>2026-09-02T22:13:11Z</time>
  <course>186.5</course>
  <speed>0.022360679774997897</speed>
  <fix>3d</fix>
</trkpt>
<trkpt lat="33.8103132" lon="-118.3938671">
  <ele>-14.559</ele>
  <time>2026-09-02T22:13:11Z</time>
  <course>186.5</course>
  <speed>0.022360679774997897</speed>
  <fix>3d</fix>
</trkpt>
<trkpt lat="33.810313" lon="-118.393867">
  <ele>-14.06</ele>
  <time>2026-09-02T22:13:11Z</time>
  <course>0.0</course>
  <speed>0.0</speed>
  <fix>3d</fix>
</trkpt>
<trkpt lat="33.8103132" lon="-118.3938671">
  <ele>-14.561</ele>
  <time>2026-09-02T22:13:11Z</time>
  <course>186.5</course>
  <speed>0.022360679774997897</speed>
  <fix>3d</fix>
</trkpt>
<trkpt lat="33.8103132" lon="-118.3938671">
  <ele>-14.621</ele>
  <time>2026-09-02T22:13:11Z</time>
  <course>186.5</course>
  <speed>0.022360679774997897</speed>
  <fix>3d</fix>
</trkpt>
<trkpt lat="33.810313" lon="-118.393867">
  <ele>-14.06</ele>
  <time>2026-09-02T22:13:11Z</time>
  <course>0.0</course>
  <speed>0.0</speed>
  <fix>3d</fix>
</trkpt>
<trkpt lat="33.8103132" lon="-118.3938671">
  <ele>-14.623</ele>
  <time>2026-09-02T22:13:11Z</time>
  <course>186.5</course>
  <speed>0.022360679774997897</speed>
  <fix>3d</fix>
</trkpt>
<trkpt lat="33.8103132" lon="-118.3938671">
  <ele>-14.682</ele>
  <time>2026-09-02T22:13:11Z</time>
  <course>186.5</course>
  <speed>0.022360679774997897</speed>
  <fix>3d</fix>
</trkpt>
<trkpt lat="33.810313" lon="-118.393867">
  <ele>-14.19</ele>
  <time>2026-09-02T22:13:11Z</time>
  <course>0.0</course>
  <speed>0.0</speed>
  <fix>3d</fix>
</trkpt>
<trkpt lat="33.8103132" lon="-118.3938671">
  <ele>-14.684</ele>
  <time>2026-09-02T22:13:11Z</time>
  <course>186.5</course>
  <speed>0.022360679774997897</speed>
  <fix>3d</fix>
</trkpt>
<trkpt lat="33.8103132" lon="-118.3938671">
  <ele>-14.745</ele>
  <time>2026-09-02T22:13:11Z</time>
  <course>186.5</course>
  <speed>0.022360679774997897</speed>
  <fix>3d</fix>
</trkpt>
<trkpt lat="33.810313" lon="-118.393867">
  <ele>-14.19</ele>
  <time>2026-09-02T22:13:11Z</time>
  <course>0.0</course>
  <speed>0.0</speed>
  <fix>3d</fix>
</trkpt>
<trkpt lat="33.8103132" lon="-118.3938671">
  <ele>-14.746</ele>
  <time>2026-09-02T22:13:11Z</time>
  <course>186.5</course>
  <speed>0.022360679774997897</speed>
  <fix>3d</fix>
</trkpt>
<trkpt lat="33.8103132" lon="-118.3938671">
  <ele>-14.806</ele>
  <time>2026-09-02T22:13:11Z</time>
  <course>186.5</course>
  <speed>0.022360679774997897</speed>
  <fix>3d</fix>
</trkpt>
<trkpt lat="33.810313" lon="-118.393867">
  <ele>-14.3</ele>
  <time>2026-09-02T22:13:11Z</time>
  <course>0.0</course>
  <speed>0.0</speed>
  <fix>3d</fix>
</trkpt>
<trkpt lat="33.8103132" lon="-118.3938671">
  <ele>-14.807</ele>
  <time>2026-09-02T22:13:11Z</time>
  <course>186.5</course>
  <speed>0.022360679774997897</speed>
  <fix>3d</fix>
</trkpt>
<trkpt lat="33.8103132" lon="-118.3938671">
  <ele>-14.867</ele>
  <time>2026-09-02T22:13:11Z</time>
  <course>186.49</course>
  <speed>0.022360679774997897</speed>
  <fix>3d</fix>
</trkpt>
<trkpt lat="33.810313" lon="-118.393867">
  <ele>-14.3</ele>
  <time>2026-09-02T22:13:11Z</time>
  <course>0.0</course>
  <speed>0.0</speed>
  <fix>3d</fix>
</trkpt>
<trkpt lat="33.8103132" lon="-118.3938671">
  <ele>-14.868</ele>
  <time>2026-09-02T22:13:11Z</time>
  <course>186.49</course>
  <speed>0.022360679774997897</speed>
  <fix>3d</fix>
</trkpt>
<trkpt lat="33.8103132" lon="-118.3938671">
  <ele>-14.927</ele>
  <time>2026-09-02T22:13:11Z</time>
  <course>186.49</course>
  <speed>0.022360679774997897</speed>
  <fix>3d</fix>
</trkpt>
<trkpt lat="33.810313" lon="-118.393867">
  <ele>-14.43</ele>
  <time>2026-09-02T22:13:11Z</time>
  <course>0.0</course>
  <speed>0.0</speed>
  <fix>3d</fix>
</trkpt>
<trkpt lat="33.8103132" lon="-118.3938671">
  <ele>-14.929</ele>
  <time>2026-09-02T22:13:11Z</time>
  <course>186.49</course>
  <speed>0.022360679774997897</speed>
  <fix>3d</fix>
</trkpt>
<trkpt lat="33.8103132" lon="-118.3938671">
  <ele>-14.987</ele>
  <time>2026-09-02T22:13:11Z</time>
  <course>186.49</course>
  <speed>0.022360679774997897</speed>
  <fix>3d</fix>
</trkpt>
<trkpt lat="33.810313" lon="-118.393867">
  <ele>-14.43</ele>
  <time>2026-09-02T22:13:11Z</time>
  <course>0.0</course>
  <speed>0.0</speed>
  <fix>3d</fix>
</trkpt>
<trkpt lat="33.8103132" lon="-118.3938671">
  <ele>-14.988</ele>
  <time>2026-09-02T22:13:11Z</time>
  <course>186.49</course>
  <speed>0.022360679774997897</speed>
  <fix>3d</fix>
</trkpt>
<trkpt lat="33.8103132" lon="-118.3938671">
  <ele>-15.048</ele>
  <time>2026-09-02T22:13:11Z</time>
  <course>186.49</course>
  <speed>0.022360679774997897</speed>
  <fix>3d</fix>
</trkpt>
<trkpt lat="33.810313" lon="-118.393867">
  <ele>-14.54</ele>
  <time>2026-09-02T22:13:11Z</time>
  <course>0.0</course>
  <speed>0.0</speed>
  <fix>3d</fix>
</trkpt>
<trkpt lat="33.8103132" lon="-118.3938671">
  <ele>-15.049</ele>
  <time>2026-09-02T22:13:11Z</time>
  <course>186.49</course>
  <speed>0.022360679774997897</speed>
  <fix>3d</fix>
</trkpt>
<trkpt lat="33.8103132" lon="-118.3938671">
  <ele>-15.104</ele>
  <time>2026-09-02T22:13:11Z</time>
  <course>186.49</course>
  <speed>0.022360679774997897</speed>
  <fix>3d</fix>
</trkpt>
<trkpt lat="33.810313" lon="-118.393867">
  <ele>-14.54</ele>
  <time>2026-09-02T22:13:11Z</time>
  <course>0.0</course>
  <speed>0.0</speed>
  <fix>3d</fix>
</trkpt>
<trkpt lat="33.8103132" lon="-118.3938671">
  <ele>-15.147</ele>
  <time>2026-09-02T22:13:11Z</time>
  <course>186.49</course>
  <speed>0.022360679774997897</speed>
  <fix>3d</fix>
</trkpt>
<trkpt lat="33.810313" lon="-118.393867">
  <ele>-14.66</ele>
  <time>2026-09-02T22:13:11Z</time>
  <course>0.0</course>
  <speed>0.0</speed>
  <fix>3d</fix>
</trkpt>
<trkpt lat="33.8103132" lon="-118.3938671">
  <ele>-15.179</ele>
  <time>2026-09-02T22:13:11Z</time>
  <course>186.49</course>
  <speed>0.022360679774997897</speed>
  <fix>3d</fix>
</trkpt>
<trkpt lat="33.810313" lon="-118.393867">
  <ele>-14.66</ele>
  <time>2026-09-02T22:13:11Z</time>
  <course>0.0</course>
  <speed>0.0</speed>
  <fix>3d</fix>
</trkpt>
<trkpt lat="33.8103132" lon="-118.3938671">
  <ele>-15.205</ele>
  <time>2026-09-02T22:13:11Z</time>
  <course>186.49</course>
  <speed>0.022360679774997897</speed>
  <fix>3d</fix>
</trkpt>
<trkpt lat="33.810313" lon="-118.393867">
  <ele>-14.75</ele>
  <time>2026-09-02T22:13:11Z</time>
  <course>0.0</course>
  <speed>0.0</speed>
  <fix>3d</fix>
</trkpt>
<trkpt lat="33.8103132" lon="-118.3938671">
  <ele>-15.226</ele>
  <time>2026-09-02T22:13:11Z</time>
  <course>186.49</course>
  <speed>0.022360679774997897</speed>
  <fix>3d</fix>
</trkpt>
<trkpt lat="33.810313" lon="-118.393867">
  <ele>-14.75</ele>
  <time>2026-09-02T22:13:11Z</time>
  <course>0.0</course>
  <speed>0.0</speed>
  <fix>3d</fix>
</trkpt>
<trkpt lat="33.8103132" lon="-118.3938671">
  <ele>-15.244</ele>
  <time>2026-09-02T22:13:11Z</time>
  <course>186.49</course>
  <speed>0.022360679774997897</speed>
  <fix>3d</fix>
</trkpt>
<trkpt lat="33.810313" lon="-118.393867">
  <ele>-14.81</ele>
  <time>2026-09-02T22:13:11Z</time>
  <course>0.0</course>
  <speed>0.0</speed>
  <fix>3d</fix>
</trkpt>
<trkpt lat="33.8103132" lon="-118.3938671">
  <ele>-15.259</ele>
  <time>2026-09-02T22:13:11Z</time>
  <course>186.49</course>
  <speed>0.022360679774997897</speed>
  <fix>3d</fix>
</trkpt>
<trkpt lat="33.810313" lon="-118.393867">
  <ele>-14.81</ele>
  <time>2026-09-02T22:13:11Z</time>
  <course>0.0</course>
  <speed>0.0</speed>
  <fix>3d</fix>
</trkpt>
<trkpt lat="33.8103132" lon="-118.3938671">
  <ele>-15.272</ele>
  <time>2026-09-02T22:13:11Z</time>
  <course>186.49</course>
  <speed>0.022360679774997897</speed>
  <fix>3d</fix>
</trkpt>
<trkpt lat="33.810313" lon="-118.393867">
  <ele>-14.85</ele>
  <time>2026-09-02T22:13:11Z</time>
  <course>0.0</course>
  <speed>0.0</speed>
  <fix>3d</fix>
</trkpt>
<trkpt lat="33.8103132" lon="-118.3938671">
  <ele>-15.284</ele>
  <time>2026-09-02T22:13:11Z</time>
  <course>186.48</course>
  <speed>0.022360679774997897</speed>
  <fix>3d</fix>
</trkpt>
<trkpt lat="33.810313" lon="-118.393867">
  <ele>-14.85</ele>
  <time>2026-09-02T22:13:11Z</time>
  <course>0.0</course>
  <speed>0.0</speed>
  <fix>3d</fix>
</trkpt>
<trkpt lat="33.8103132" lon="-118.3938671">
  <ele>-15.294</ele>
  <time>2026-09-02T22:13:11Z</time>
  <course>186.48</course>
  <speed>0.022360679774997897</speed>
  <fix>3d</fix>
</trkpt>
<trkpt lat="33.810313" lon="-118.393867">
  <ele>-14.88</ele>
  <time>2026-09-02T22:13:11Z</time>
  <course>0.0</course>
  <speed>0.0</speed>
  <fix>3d</fix>
</trkpt>
<trkpt lat="33.8103132" lon="-118.3938671">
  <ele>-15.303</ele>
  <time>2026-09-02T22:13:11Z</time>
  <course>186.48</course>
  <speed>0.022360679774997897</speed>
  <fix>3d</fix>
</trkpt>
<trkpt lat="33.810313" lon="-118.393867">
  <ele>-14.88</ele>
  <time>2026-09-02T22:13:11Z</time>
  <course>0.0</course>
  <speed>0.0</speed>
  <fix>3d</fix>
</trkpt>
<trkpt lat="33.8103132" lon="-118.3938671">
  <ele>-15.311</ele>
  <time>2026-09-02T22:13:11Z</time>
  <course>186.48</course>
  <speed>0.022360679774997897</speed>
  <fix>3d</fix>
</trkpt>
<trkpt lat="33.810313" lon="-118.393867">
  <ele>-14.91</ele>
  <time>2026-09-02T22:13:11Z</time>
  <course>0.0</course>
  <speed>0.0</speed>
  <fix>3d</fix>
</trkpt>
<trkpt lat="33.8103132" lon="-118.3938671">
  <ele>-15.319</ele>
  <time>2026-09-02T22:13:11Z</time>
  <course>186.48</course>
  <speed>0.022360679774997897</speed>
  <fix>3d</fix>
</trkpt>
<trkpt lat="33.810313" lon="-118.393867">
  <ele>-14.91</ele>
  <time>2026-09-02T22:13:11Z</time>
  <course>0.0</course>
  <speed>0.0</speed>
  <fix>3d</fix>
</trkpt>
<trkpt lat="33.8103132" lon="-118.3938671">
  <ele>-15.325</ele>
  <time>2026-09-02T22:13:11Z</time>
  <course>186.48</course>
  <speed>0.022360679774997897</speed>
  <fix>3d</fix>
</trkpt>
<trkpt lat="33.810313" lon="-118.393867">
  <ele>-14.92</ele>
  <time>2026-09-02T22:13:11Z</time>
  <course>0.0</course>
  <speed>0.0</speed>
  <fix>3d</fix>
</trkpt>
<trkpt lat="33.8103132" lon="-118.3938671">
  <ele>-15.329</ele>
  <time>2026-09-02T22:13:11Z</time>
  <course>186.48</course>
  <speed>0.022360679774997897</speed>
  <fix>3d</fix>
</trkpt>
<trkpt lat="33.810313" lon="-118.393867">
  <ele>-14.92</ele>
  <time>2026-09-02T22:13:11Z</time>
  <course>0.0</course>
  <speed>0.0</speed>
  <fix>3d</fix>
</trkpt>
<trkpt lat="33.8103132" lon="-118.3938671">
  <ele>-15.333</ele>
  <time>2026-09-02T22:13:11Z</time>
  <course>186.47</course>
  <speed>0.022360679774997897</speed>
  <fix>3d</fix>
</trkpt>
<trkpt lat="33.810313" lon="-118.393867">
  <ele>-14.94</ele>
  <time>2026-09-02T22:13:11Z</time>
  <course>0.0</course>
  <speed>0.0</speed>
  <fix>3d</fix>
</trkpt>
<trkpt lat="33.8103132" lon="-118.3938671">
  <ele>-15.336</ele>
  <time>2026-09-02T22:13:11Z</time>
  <course>186.42</course>
  <speed>0.01414213562373095</speed>
  <fix>3d</fix>
</trkpt>
<trkpt lat="33.810313" lon="-118.393867">
  <ele>-14.94</ele>
  <time>2026-09-02T22:13:11Z</time>
  <course>0.0</course>
  <speed>0.0</speed>
  <fix>3d</fix>
</trkpt>
<trkpt lat="33.8103132" lon="-118.3938671">
  <ele>-15.335</ele>
  <time>2026-09-02T22:13:11Z</time>
  <course>185.92</course>
  <speed>0.0316227766016838</speed>
  <fix>3d</fix>
</trkpt>
<trkpt lat="33.810313" lon="-118.393867">
  <ele>-14.95</ele>
  <time>2026-09-02T22:13:11Z</time>
  <course>179.72</course>
  <speed>0.0</speed>
  <fix>3d</fix>
</trkpt>
<trkpt lat="33.8103131" lon="-118.3938671">
  <ele>-15.322</ele>
  <time>2026-09-02T22:13:11Z</time>
  <course>185.31</course>
  <speed>0.1004987562112089</speed>
  <fix>3d</fix>
</trkpt>
<trkpt lat="33.810313" lon="-118.393867">
  <ele>-14.95</ele>
  <time>2026-09-02T22:13:11Z</time>
  <course>179.72</course>
  <speed>0.0</speed>
  <fix>3d</fix>
</trkpt>
<trkpt lat="33.810313" lon="-118.3938671">
  <ele>-15.299</ele>
  <time>2026-09-02T22:13:11Z</time>
  <course>184.89</course>
  <speed>0.16031219541881397</speed>
  <fix>3d</fix>
</trkpt>
<trkpt lat="33.8103129" lon="-118.393867">
  <ele>-14.95</ele>
  <time>2026-09-02T22:13:11Z</time>
  <course>177.89</course>
  <speed>0.07</speed>
  <fix>3d</fix>
</trkpt>
<trkpt lat="33.8103128" lon="-118.3938671">
  <ele>-15.265</ele>
  <time>2026-09-02T22:13:11Z</time>
  <course>184.68</course>
  <speed>0.2002498439450079</speed>
  <fix>3d</fix>
</trkpt>
<trkpt lat="33.8103129" lon="-118.393867">
  <ele>-14.95</ele>
  <time>2026-09-02T22:13:11Z</time>
  <course>177.89</course>
  <speed>0.07</speed>
  <fix>3d</fix>
</trkpt>
<trkpt lat="33.8103126" lon="-118.3938671">
  <ele>-15.226</ele>
  <time>2026-09-02T22:13:11Z</time>
  <course>184.63</course>
  <speed>0.24020824298928628</speed>
  <fix>3d</fix>
</trkpt>
<trkpt lat="33.8103127" lon="-118.393867">
  <ele>-14.91</ele>
  <time>2026-09-02T22:13:11Z</time>
  <course>177.98</course>
  <speed>0.18</speed>
  <fix>3d</fix>
</trkpt>
<trkpt lat="33.8103123" lon="-118.3938671">
  <ele>-15.187</ele>
  <time>2026-09-02T22:13:11Z</time>
  <course>184.64</course>
  <speed>0.27018512172212594</speed>
  <fix>3d</fix>
</trkpt>
<trkpt lat="33.8103127" lon="-118.393867">
  <ele>-14.91</ele>
  <time>2026-09-02T22:13:11Z</time>
  <course>177.98</course>
  <speed>0.18</speed>
  <fix>3d</fix>
</trkpt>
<trkpt lat="33.8103121" lon="-118.3938671">
  <ele>-15.155</ele>
  <time>2026-09-02T22:13:11Z</time>
  <course>184.67</course>
  <speed>0.29017236257093815</speed>
  <fix>3d</fix>
</trkpt>
<trkpt lat="33.8103123" lon="-118.393867">
  <ele>-14.84</ele>
  <time>2026-09-02T22:13:11Z</time>
  <course>178.28</course>
  <speed>0.26</speed>
  <fix>3d</fix>
</trkpt>
<trkpt lat="33.8103118" lon="-118.3938671">
  <ele>-15.13</ele>
  <time>2026-09-02T22:13:11Z</time>
  <course>184.69</course>
  <speed>0.32015621187164245</speed>
  <fix>3d</fix>
</trkpt>
<trkpt lat="33.8103123" lon="-118.393867">
  <ele>-14.84</ele>
  <time>2026-09-02T22:13:11Z</time>
  <course>178.28</course>
  <speed>0.26</speed>
  <fix>3d</fix>
</trkpt>
<trkpt lat="33.8103115" lon="-118.3938671">
  <ele>-15.118</ele>
  <time>2026-09-02T22:13:11Z</time>
  <course>184.7</course>
  <speed>0.340147027033899</speed>
  <fix>3d</fix>
</trkpt>
<trkpt lat="33.8103117" lon="-118.393867">
  <ele>-14.79</ele>
  <time>2026-09-02T22:13:11Z</time>
  <course>178.55</course>
  <speed>0.32</speed>
  <fix>3d</fix>
</trkpt>
<trkpt lat="33.8103111" lon="-118.3938671">
  <ele>-15.114</ele>
  <time>2026-09-02T22:13:11Z</time>
  <course>184.7</course>
  <speed>0.35014282800023194</speed>
  <fix>3d</fix>
</trkpt>
<trkpt lat="33.8103117" lon="-118.393867">
  <ele>-14.79</ele>
  <time>2026-09-02T22:13:11Z</time>
  <course>178.55</course>
  <speed>0.32</speed>
  <fix>3d</fix>
</trkpt>
<trkpt lat="33.8103108" lon="-118.3938671">
  <ele>-15.116</ele>
  <time>2026-09-02T22:13:11Z</time>
  <course>184.7</course>
  <speed>0.37013511046643494</speed>
  <fix>3d</fix>
</trkpt>
<trkpt lat="33.8103111" lon="-118.393867">
  <ele>-14.76</ele>
  <time>2026-09-02T22:13:11Z</time>
  <course>178.78</course>
  <speed>0.36</speed>
  <fix>3d</fix>
</trkpt>
<trkpt lat="33.8103104" lon="-118.3938671">
  <ele>-15.119</ele>
  <time>2026-09-02T22:13:11Z</time>
  <course>184.69</course>
  <speed>0.38013155617496425</speed>
  <fix>3d</fix>
</trkpt>
<trkpt lat="33.8103111" lon="-118.393867">
  <ele>-14.76</ele>
  <time>2026-09-02T22:13:11Z</time>
  <course>178.78</course>
  <speed>0.36</speed>
  <fix>3d</fix>
</trkpt>
<trkpt lat="33.8103101" lon="-118.3938671">
  <ele>-15.122</ele>
  <time>2026-09-02T22:13:11Z</time>
  <course>184.7</course>
  <speed>0.4001249804748511</speed>
  <fix>3d</fix>
</trkpt>
<trkpt lat="33.8103104" lon="-118.393867">
  <ele>-14.76</ele>
  <time>2026-09-02T22:13:11Z</time>
  <course>178.95</course>
  <speed>0.4</speed>
  <fix>3d</fix>
</trkpt>
<trkpt lat="33.8103097" lon="-118.3938671">
  <ele>-15.126</ele>
  <time>2026-09-02T22:13:11Z</time>
  <course>184.69</course>
  <speed>0.41012193308819755</speed>
  <fix>3d</fix>
</trkpt>
<trkpt lat="33.8103104" lon="-118.393867">
  <ele>-14.76</ele>
  <time>2026-09-02T22:13:11Z</time>
  <course>178.95</course>
  <speed>0.4</speed>
  <fix>3d</fix>
</trkpt>
<trkpt lat="33.8103093" lon="-118.3938671">
  <ele>-15.128</ele>
  <time>2026-09-02T22:13:11Z</time>
  <course>184.69</course>
  <speed>0.4201190307520001</speed>
  <fix>3d</fix>
</trkpt>
<trkpt lat="33.8103097" lon="-118.3938669">
  <ele>-14.76</ele>
  <time>2026-09-02T22:13:11Z</time>
  <course>179.08</course>
  <speed>0.42</speed>
  <fix>3d</fix>
</trkpt>
<trkpt lat="33.8103089" lon="-118.3938671">
  <ele>-15.129</ele>
  <time>2026-09-02T22:13:11Z</time>
  <course>184.69</course>
  <speed>0.4201190307520001</speed>
  <fix>3d</fix>
</trkpt>
<trkpt lat="33.8103097" lon="-118.3938669">
  <ele>-14.76</ele>
  <time>2026-09-02T22:13:11Z</time>
  <course>179.08</course>
  <speed>0.42</speed>
  <fix>3d</fix>
</trkpt>
<trkpt lat="33.8103085" lon="-118.3938671">
  <ele>-15.131</ele>
  <time>2026-09-02T22:13:11Z</time>
  <course>184.69</course>
  <speed>0.4301162633521314</speed>
  <fix>3d</fix>
</trkpt>
<trkpt lat="33.8103088" lon="-118.3938669">
  <ele>-14.77</ele>
  <time>2026-09-02T22:13:11Z</time>
  <course>179.26</course>
  <speed>0.45</speed>
  <fix>3d</fix>
</trkpt>
<trkpt lat="33.8103081" lon="-118.3938671">
  <ele>-15.134</ele>
  <time>2026-09-02T22:13:11Z</time>
  <course>184.69</course>
  <speed>0.44011362169330775</speed>
  <fix>3d</fix>
</trkpt>
<trkpt lat="33.8103088" lon="-118.3938669">
  <ele>-14.77</ele>
  <time>2026-09-02T22:13:11Z</time>
  <course>179.26</course>
  <speed>0.45</speed>
  <fix>3d</fix>
</trkpt>
<trkpt lat="33.8103077" lon="-118.3938671">
  <ele>-15.136</ele>
  <time>2026-09-02T22:13:11Z</time>
  <course>184.7</course>
  <speed>0.44011362169330775</speed>
  <fix>3d</fix>
</trkpt>
<trkpt lat="33.8103081" lon="-118.3938669">
  <ele>-14.78</ele>
  <time>2026-09-02T22:13:11Z</time>
  <course>179.54</course>
  <speed>0.46</speed>
  <fix>3d</fix>
</trkpt>
<trkpt lat="33.8103072" lon="-118.3938671">
  <ele>-15.137</ele>
  <time>2026-09-02T22:13:11Z</time>
  <course>184.7</course>
  <speed>0.450111097397076</speed>
  <fix>3d</fix>
</trkpt>
<trkpt lat="33.8103081" lon="-118.3938669">
  <ele>-14.78</ele>
  <time>2026-09-02T22:13:11Z</time>
  <course>179.54</course>
  <speed>0.46</speed>
  <fix>3d</fix>
</trkpt>
<trkpt lat="33.8103068" lon="-118.3938671">
  <ele>-15.137</ele>
  <time>2026-09-02T22:13:11Z</time>
  <course>184.7</course>
  <speed>0.450111097397076</speed>
  <fix>3d</fix>
</trkpt>
<trkpt lat="33.8103072" lon="-118.3938669">
  <ele>-14.78</ele>
  <time>2026-09-02T22:13:11Z</time>
  <course>179.82</course>
  <speed>0.47</speed>
  <fix>3d</fix>
</trkpt>
<trkpt lat="33.8103064" lon="-118.3938671">
  <ele>-15.138</ele>
  <time>2026-09-02T22:13:11Z</time>
  <course>184.7</course>
  <speed>0.46010868281309364</speed>
  <fix>3d</fix>
</trkpt>
<trkpt lat="33.8103072" lon="-118.3938669">
  <ele>-14.78</ele>
  <time>2026-09-02T22:13:11Z</time>
  <course>179.82</course>
  <speed>0.47</speed>
  <fix>3d</fix>
</trkpt>
<trkpt lat="33.8103059" lon="-118.3938671">
  <ele>-15.138</ele>
  <time>2026-09-02T22:13:11Z</time>
  <course>184.7</course>
  <speed>0.46010868281309364</speed>
  <fix>3d</fix>
</trkpt>
<trkpt lat="33.8103063" lon="-118.3938669">
  <ele>-14.78</ele>
  <time>2026-09-02T22:13:11Z</time>
  <course>180.05</course>
  <speed>0.48</speed>
  <fix>3d</fix>
</trkpt>
<trkpt lat="33.8103055" lon="-118.3938671">
  <ele>-15.138</ele>
  <time>2026-09-02T22:13:11Z</time>
  <course>184.7</course>
  <speed>0.46010868281309364</speed>
  <fix>3d</fix>
</trkpt>
<trkpt lat="33.8103063" lon="-118.3938669">
  <ele>-14.78</ele>
  <time>2026-09-02T22:13:11Z</time>
  <course>180.05</course>
  <speed>0.48</speed>
  <fix>3d</fix>
</trkpt>
<trkpt lat="33.810305" lon="-118.3938671">
  <ele>-15.138</ele>
  <time>2026-09-02T22:13:11Z</time>
  <course>184.7</course>
  <speed>0.47010637094172636</speed>
  <fix>3d</fix>
</trkpt>
<trkpt lat="33.8103054" lon="-118.3938669">
  <ele>-14.77</ele>
  <time>2026-09-02T22:13:11Z</time>
  <course>180.22</course>
  <speed>0.49</speed>
  <fix>3d</fix>
</trkpt>
<trkpt lat="33.8103046" lon="-118.3938671">
  <ele>-15.137</ele>
  <time>2026-09-02T22:13:11Z</time>
  <course>184.7</course>
  <speed>0.47010637094172636</speed>
  <fix>3d</fix>
</trkpt>
<trkpt lat="33.8103054" lon="-118.3938669">
  <ele>-14.77</ele>
  <time>2026-09-02T22:13:11Z</time>
  <course>180.22</course>
  <speed>0.49</speed>
  <fix>3d</fix>
</trkpt>
<trkpt lat="33.8103042" lon="-118.3938671">
  <ele>-15.136</ele>
  <time>2026-09-02T22:13:11Z</time>
  <course>184.71</course>
  <speed>0.47010637094172636</speed>
  <fix>3d</fix>
</trkpt>
<trkpt lat="33.8103045" lon="-118.3938669">
  <ele>-14.77</ele>
  <time>2026-09-02T22:13:11Z</time>
  <course>180.34</course>
  <speed>0.49</speed>
  <fix>3d</fix>
</trkpt>
<trkpt lat="33.8103037" lon="-118.3938671">
  <ele>-15.135</ele>
  <time>2026-09-02T22:13:11Z</time>
  <course>184.71</course>
  <speed>0.47010637094172636</speed>
  <fix>3d</fix>
</trkpt>
<trkpt lat="33.8103045" lon="-118.3938669">
  <ele>-14.77</ele>
  <time>2026-09-02T22:13:11Z</time>
  <course>180.34</course>
  <speed>0.49</speed>
  <fix>3d</fix>
</trkpt>
<trkpt lat="33.8103033" lon="-118.3938671">
  <ele>-15.133</ele>
  <time>2026-09-02T22:13:11Z</time>
  <course>184.72</course>
  <speed>0.47010637094172636</speed>
  <fix>3d</fix>
</trkpt>
<trkpt lat="33.8103036" lon="-118.3938669">
  <ele>-14.76</ele>
  <time>2026-09-02T22:13:11Z</time>
  <course>180.44</course>
  <speed>0.5</speed>
  <fix>3d</fix>
</trkpt>
<trkpt lat="33.8103028" lon="-118.3938671">
  <ele>-15.13</ele>
  <time>2026-09-02T22:13:11Z</time>
  <course>184.72</course>
  <speed>0.47010637094172636</speed>
  <fix>3d</fix>
</trkpt>
<trkpt lat="33.8103036" lon="-118.3938669">
  <ele>-14.76</ele>
  <time>2026-09-02T22:13:11Z</time>
  <course>180.44</course>
  <speed>0.5</speed>
  <fix>3d</fix>
</trkpt>
<trkpt lat="33.8103023" lon="-118.3938671">
  <ele>-15.128</ele>
  <time>2026-09-02T22:13:11Z</time>
  <course>184.72</course>
  <speed>0.47010637094172636</speed>
  <fix>3d</fix>
</trkpt>
<trkpt lat="33.8103027" lon="-118.3938669">
  <ele>-14.76</ele>
  <time>2026-09-02T22:13:11Z</time>
  <course>180.5</course>
  <speed>0.5</speed>
  <fix>3d</fix>
</trkpt>
<trkpt lat="33.8103019" lon="-118.3938671">
  <ele>-15.126</ele>
  <time>2026-09-02T22:13:11Z</time>
  <course>184.72</course>
  <speed>0.47010637094172636</speed>
  <fix>3d</fix>
</trkpt>
<trkpt lat="33.8103027" lon="-118.3938669">
  <ele>-14.76</ele>
  <time>2026-09-02T22:13:11Z</time>
  <course>180.5</course>
  <speed>0.5</speed>
  <fix>3d</fix>
</trkpt>
<trkpt lat="33.8103014" lon="-118.3938671">
  <ele>-15.126</ele>
  <time>2026-09-02T22:13:11Z</time>
  <course>184.72</course>
  <speed>0.47010637094172636</speed>
  <fix>3d</fix>
</trkpt>
<trkpt lat="33.8103018" lon="-118.3938669">
  <ele>-14.75</ele>
  <time>2026-09-02T22:13:11Z</time>
  <course>180.55</course>
  <speed>0.5</speed>
  <fix>3d</fix>
</trkpt>
<trkpt lat="33.810301" lon="-118.3938671">
  <ele>-15.126</ele>
  <time>2026-09-02T22:13:11Z</time>
  <course>184.72</course>
  <speed>0.47010637094172636</speed>
  <fix>3d</fix>
</trkpt>
<trkpt lat="33.8103018" lon="-118.3938669">
  <ele>-14.75</ele>
  <time>2026-09-02T22:13:11Z</time>
  <course>180.55</course>
  <speed>0.5</speed>
  <fix>3d</fix>
</trkpt>
<trkpt lat="33.8103005" lon="-118.3938671">
  <ele>-15.126</ele>
  <time>2026-09-02T22:13:11Z</time>
  <course>184.72</course>
  <speed>0.47010637094172636</speed>
  <fix>3d</fix>
</trkpt>
<trkpt lat="33.8103009" lon="-118.3938669">
  <ele>-14.75</ele>
  <time>2026-09-02T22:13:11Z</time>
  <course>180.58</course>
  <speed>0.5</speed>
  <fix>3d</fix>
</trkpt>
<trkpt lat="33.8103001" lon="-118.3938671">
  <ele>-15.128</ele>
  <time>2026-09-02T22:13:11Z</time>
  <course>184.72</course>
  <speed>0.47010637094172636</speed>
  <fix>3d</fix>
</trkpt>
<trkpt lat="33.8103009" lon="-118.3938669">
  <ele>-14.75</ele>
  <time>2026-09-02T22:13:11Z</time>
  <course>180.58</course>
  <speed>0.5</speed>
  <fix>3d</fix>
</trkpt>
<trkpt lat="33.8102996" lon="-118.3938671">
  <ele>-15.129</ele>
  <time>2026-09-02T22:13:11Z</time>
  <course>184.73</course>
  <speed>0.47010637094172636</speed>
  <fix>3d</fix>
</trkpt>
<trkpt lat="33.8103" lon="-118.3938669">
  <ele>-14.75</ele>
  <time>2026-09-02T22:13:11Z</time>
  <course>180.61</course>
  <speed>0.5</speed>
  <fix>3d</fix>
</trkpt>
<trkpt lat="33.8102992" lon="-118.3938671">
  <ele>-15.129</ele>
  <time>2026-09-02T22:13:11Z</time>
  <course>184.73</course>
  <speed>0.47010637094172636</speed>
  <fix>3d</fix>
</trkpt>
<trkpt lat="33.8103" lon="-118.3938669">
  <ele>-14.75</ele>
  <time>2026-09-02T22:13:11Z</time>
  <course>180.61</course>
  <speed>0.5</speed>
  <fix>3d</fix>
</trkpt>
<trkpt lat="33.8102987" lon="-118.3938671">
  <ele>-15.129</ele>
  <time>2026-09-02T22:13:11Z</time>
  <course>184.74</course>
  <speed>0.47010637094172636</speed>
  <fix>3d</fix>
</trkpt>
<trkpt lat="33.8102991" lon="-118.3938669">
  <ele>-14.76</ele>
  <time>2026-09-02T22:13:11Z</time>
  <course>180.64</course>
  <speed>0.5</speed>
  <fix>3d</fix>
</trkpt>
<trkpt lat="33.8102983" lon="-118.3938671">
  <ele>-15.129</ele>
  <time>2026-09-02T22:13:11Z</time>
  <course>184.74</course>
  <speed>0.47010637094172636</speed>
  <fix>3d</fix>
</trkpt>
<trkpt lat="33.8102991" lon="-118.3938669">
  <ele>-14.76</ele>
  <time>2026-09-02T22:13:11Z</time>
  <course>180.64</course>
  <speed>0.5</speed>
  <fix>3d</fix>
</trkpt>
<trkpt lat="33.8102978" lon="-118.3938671">
  <ele>-15.13</ele>
  <time>2026-09-02T22:13:11Z</time>
  <course>184.74</course>
  <speed>0.4801041553663121</speed>
  <fix>3d</fix>
</trkpt>
<trkpt lat="33.8102982" lon="-118.3938669">
  <ele>-14.76</ele>
  <time>2026-09-02T22:13:11Z</time>
  <course>180.65</course>
  <speed>0.5</speed>
  <fix>3d</fix>
</trkpt>
<trkpt lat="33.8102974" lon="-118.3938671">
  <ele>-15.131</ele>
  <time>2026-09-02T22:13:11Z</time>
  <course>184.74</course>
  <speed>0.47010637094172636</speed>
  <fix>3d</fix>
</trkpt>
<trkpt lat="33.8102982" lon="-118.3938669">
  <ele>-14.76</ele>
  <time>2026-09-02T22:13:11Z</time>
  <course>180.65</course>
  <speed>0.5</speed>
  <fix>3d</fix>
</trkpt>
<trkpt lat="33.8102969" lon="-118.3938671">
  <ele>-15.131</ele>
  <time>2026-09-02T22:13:11Z</time>
  <course>184.74</course>
  <speed>0.4801041553663121</speed>
  <fix>3d</fix>
</trkpt>
<trkpt lat="33.8102973" lon="-118.3938669">
  <ele>-14.76</ele>
  <time>2026-09-02T22:13:11Z</time>
  <course>180.67</course>
  <speed>0.5</speed>
  <fix>3d</fix>
</trkpt>
<trkpt lat="33.8102964" lon="-118.3938671">
  <ele>-15.131</ele>
  <time>2026-09-02T22:13:11Z</time>
  <course>184.74</course>
  <speed>0.4801041553663121</speed>
  <fix>3d</fix>
</trkpt>
<trkpt lat="33.8102973" lon="-118.3938669">
  <ele>-14.76</ele>
  <time>2026-09-02T22:13:11Z</time>
  <course>180.67</course>
  <speed>0.5</speed>
  <fix>3d</fix>
</trkpt>
<trkpt lat="33.810296" lon="-118.3938671">
  <ele>-15.13</ele>
  <time>2026-09-02T22:13:11Z</time>
  <course>184.74</course>
  <speed>0.4801041553663121</speed>
  <fix>3d</fix>
</trkpt>
<trkpt lat="33.8102964" lon="-118.3938669">
  <ele>-14.76</ele>
  <time>2026-09-02T22:13:11Z</time>
  <course>180.7</course>
  <speed>0.5</speed>
  <fix>3d</fix>
</trkpt>
<trkpt lat="33.8102955" lon="-118.3938671">
  <ele>-15.129</ele>
  <time>2026-09-02T22:13:11Z</time>
  <course>184.74</course>
  <speed>0.4801041553663121</speed>
  <fix>3d</fix>
</trkpt>
<trkpt lat="33.8102964" lon="-118.3938669">
  <ele>-14.76</ele>
  <time>2026-09-02T22:13:11Z</time>
  <course>180.7</course>
  <speed>0.5</speed>
  <fix>3d</fix>
</trkpt>
<trkpt lat="33.8102951" lon="-118.3938671">
  <ele>-15.129</ele>
  <time>2026-09-02T22:13:11Z</time>
  <course>184.74</course>
  <speed>0.4801041553663121</speed>
  <fix>3d</fix>
</trkpt>
<trkpt lat="33.8102955" lon="-118.3938669">
  <ele>-14.76</ele>
  <time>2026-09-02T22:13:11Z</time>
  <course>180.73</course>
  <speed>0.5</speed>
  <fix>3d</fix>
</trkpt>
<trkpt lat="33.8102946" lon="-118.3938671">
  <ele>-15.129</ele>
  <time>2026-09-02T22:13:11Z</time>
  <course>184.75</course>
  <speed>0.4801041553663121</speed>
  <fix>3d</fix>
</trkpt>
<trkpt lat="33.8102955" lon="-118.3938669">
  <ele>-14.76</ele>
  <time>2026-09-02T22:13:11Z</time>
  <course>180.73</course>
  <speed>0.5</speed>
  <fix>3d</fix>
</trkpt>
<trkpt lat="33.8102942" lon="-118.3938671">
  <ele>-15.13</ele>
  <time>2026-09-02T22:13:11Z</time>
  <course>184.75</course>
  <speed>0.4801041553663121</speed>
  <fix>3d</fix>
</trkpt>
<trkpt lat="33.8102946" lon="-118.3938669">
  <ele>-14.76</ele>
  <time>2026-09-02T22:13:11Z</time>
  <course>180.76</course>
  <speed>0.5</speed>
  <fix>3d</fix>
</trkpt>
<trkpt lat="33.8102937" lon="-118.3938671">
  <ele>-15.129</ele>
  <time>2026-09-02T22:13:11Z</time>
  <course>184.75</course>
  <speed>0.4801041553663121</speed>
  <fix>3d</fix>
</trkpt>
<trkpt lat="33.8102946" lon="-118.3938669">
  <ele>-14.76</ele>
  <time>2026-09-02T22:13:11Z</time>
  <course>180.76</course>
  <speed>0.5</speed>
  <fix>3d</fix>
</trkpt>
<trkpt lat="33.8102933" lon="-118.3938671">
  <ele>-15.129</ele>
  <time>2026-09-02T22:13:11Z</time>
  <course>184.75</course>
  <speed>0.4801041553663121</speed>
  <fix>3d</fix>
</trkpt>
<trkpt lat="33.8102937" lon="-118.393867">
  <ele>-14.76</ele>
  <time>2026-09-02T22:13:11Z</time>
  <course>180.8</course>
  <speed>0.5</speed>
  <fix>3d</fix>
</trkpt>
<trkpt lat="33.8102928" lon="-118.3938671">
  <ele>-15.13</ele>
  <time>2026-09-02T22:13:11Z</time>
  <course>184.75</course>
  <speed>0.4801041553663121</speed>
  <fix>3d</fix>
</trkpt>
<trkpt lat="33.8102937" lon="-118.393867">
  <ele>-14.76</ele>
  <time>2026-09-02T22:13:11Z</time>
  <course>180.8</course>
  <speed>0.5</speed>
  <fix>3d</fix>
</trkpt>
<trkpt lat="33.8102924" lon="-118.3938671">
  <ele>-15.13</ele>
  <time>2026-09-02T22:13:11Z</time>
  <course>184.75</course>
  <speed>0.4801041553663121</speed>
  <fix>3d</fix>
</trkpt>
<trkpt lat="33.8102928" lon="-118.393867">
  <ele>-14.76</ele>
  <time>2026-09-02T22:13:11Z</time>
  <course>180.75</course>
  <speed>0.5</speed>
  <fix>3d</fix>
</trkpt>
<trkpt lat="33.8102919" lon="-118.3938671">
  <ele>-15.129</ele>
  <time>2026-09-02T22:13:11Z</time>
  <course>184.75</course>
  <speed>0.4801041553663121</speed>
  <fix>3d</fix>
</trkpt>
<trkpt lat="33.8102928" lon="-118.393867">
  <ele>-14.76</ele>
  <time>2026-09-02T22:13:11Z</time>
  <course>180.75</course>
  <speed>0.5</speed>
  <fix>3d</fix>
</trkpt>
<trkpt lat="33.8102914" lon="-118.3938671">
  <ele>-15.128</ele>
  <time>2026-09-02T22:13:11Z</time>
  <course>184.75</course>
  <speed>0.4801041553663121</speed>
  <fix>3d</fix>
</trkpt>
<trkpt lat="33.8102918" lon="-118.393867">
  <ele>-14.76</ele>
  <time>2026-09-02T22:13:11Z</time>
  <course>180.6</course>
  <speed>0.5</speed>
  <fix>3d</fix>
</trkpt>
<trkpt lat="33.810291" lon="-118.3938671">
  <ele>-15.126</ele>
  <time>2026-09-02T22:13:11Z</time>
  <course>184.76</course>
  <speed>0.4801041553663121</speed>
  <fix>3d</fix>
</trkpt>
<trkpt lat="33.8102918" lon="-118.393867">
  <ele>-14.76</ele>
  <time>2026-09-02T22:13:11Z</time>
  <course>180.6</course>
  <speed>0.5</speed>
  <fix>3d</fix>
</trkpt>
<trkpt lat="33.8102905" lon="-118.3938671">
  <ele>-15.125</ele>
  <time>2026-09-02T22:13:11Z</time>
  <course>184.76</course>
  <speed>0.4801041553663121</speed>
  <fix>3d</fix>
</trkpt>
<trkpt lat="33.8102909" lon="-118.393867">
  <ele>-14.76</ele>
  <time>2026-09-02T22:13:11Z</time>
  <course>180.45</course>
  <speed>0.5</speed>
  <fix>3d</fix>
</trkpt>
<trkpt lat="33.8102901" lon="-118.3938671">
  <ele>-15.124</ele>
  <time>2026-09-02T22:13:11Z</time>
  <course>184.76</course>
  <speed>0.4801041553663121</speed>
  <fix>3d</fix>
</trkpt>
<trkpt lat="33.8102909" lon="-118.393867">
  <ele>-14.76</ele>
  <time>2026-09-02T22:13:11Z</time>
  <course>180.45</course>
  <speed>0.5</speed>
  <fix>3d</fix>
</trkpt>
<trkpt lat="33.8102896" lon="-118.3938671">
  <ele>-15.125</ele>
  <time>2026-09-02T22:13:11Z</time>
  <course>184.76</course>
  <speed>0.4801041553663121</speed>
  <fix>3d</fix>
</trkpt>
<trkpt lat="33.81029" lon="-118.393867">
  <ele>-14.76</ele>
  <time>2026-09-02T22:13:11Z</time>
  <course>180.34</course>
  <speed>0.5</speed>
  <fix>3d</fix>
</trkpt>
<trkpt lat="33.8102892" lon="-118.3938671">
  <ele>-15.126</ele>
  <time>2026-09-02T22:13:11Z</time>
  <course>184.76</course>
  <speed>0.4801041553663121</speed>
  <fix>3d</fix>
</trkpt>
<trkpt lat="33.81029" lon="-118.393867">
  <ele>-14.76</ele>
  <time>2026-09-02T22:13:11Z</time>
  <course>180.34</course>
  <speed>0.5</speed>
  <fix>3d</fix>
</trkpt>
<trkpt lat="33.8102887" lon="-118.3938671">
  <ele>-15.128</ele>
  <time>2026-09-02T22:13:11Z</time>
  <course>184.76</course>
  <speed>0.4801041553663121</speed>
  <fix>3d</fix>
</trkpt>
<trkpt lat="33.8102891" lon="-118.393867">
  <ele>-14.76</ele>
  <time>2026-09-02T22:13:11Z</time>
  <course>180.25</course>
  <speed>0.5</speed>
  <fix>3d</fix>
</trkpt>
<trkpt lat="33.8102882" lon="-118.3938671">
  <ele>-15.128</ele>
  <time>2026-09-02T22:13:11Z</time>
  <course>184.76</course>
  <speed>0.4801041553663121</speed>
  <fix>3d</fix>
</trkpt>
<trkpt lat="33.8102891" lon="-118.393867">
  <ele>-14.76</ele>
  <time>2026-09-02T22:13:11Z</time>
  <course>180.25</course>
  <speed>0.5</speed>
  <fix>3d</fix>
</trkpt>
<trkpt lat="33.8102878" lon="-118.3938671">
  <ele>-15.129</ele>
  <time>2026-09-02T22:13:11Z</time>
  <course>184.76</course>
  <speed>0.4801041553663121</speed>
  <fix>3d</fix>
</trkpt>
<trkpt lat="33.8102882" lon="-118.393867">
  <ele>-14.76</ele>
  <time>2026-09-02T22:13:11Z</time>
  <course>180.19</course>
  <speed>0.5</speed>
  <fix>3d</fix>
</trkpt>
<trkpt lat="33.8102873" lon="-118.3938671">
  <ele>-15.13</ele>
  <time>2026-09-02T22:13:11Z</time>
  <course>184.76</course>
  <speed>0.4801041553663121</speed>
  <fix>3d</fix>
</trkpt>
<trkpt lat="33.8102882" lon="-118.393867">
  <ele>-14.76</ele>
  <time>2026-09-02T22:13:11Z</time>
  <course>180.19</course>
  <speed>0.5</speed>
  <fix>3d</fix>
</trkpt>
<trkpt lat="33.8102869" lon="-118.3938671">
  <ele>-15.131</ele>
  <time>2026-09-02T22:13:11Z</time>
  <course>184.76</course>
  <speed>0.4801041553663121</speed>
  <fix>3d</fix>
</trkpt>
<trkpt lat="33.8102873" lon="-118.393867">
  <ele>-14.76</ele>
  <time>2026-09-02T22:13:11Z</time>
  <course>180.16</course>
  <speed>0.5</speed>
  <fix>3d</fix>
</trkpt>
<trkpt lat="33.8102864" lon="-118.3938671">
  <ele>-15.132</ele>
  <time>2026-09-02T22:13:11Z</time>
  <course>184.76</course>
  <speed>0.4801041553663121</speed>
  <fix>3d</fix>
</trkpt>
<trkpt lat="33.8102873" lon="-118.393867">
  <ele>-14.76</ele>
  <time>2026-09-02T22:13:11Z</time>
  <course>180.16</course>
  <speed>0.5</speed>
  <fix>3d</fix>
</trkpt>
<trkpt lat="33.810286" lon="-118.3938671">
  <ele>-15.133</ele>
  <time>2026-09-02T22:13:11Z</time>
  <course>184.76</course>
  <speed>0.4801041553663121</speed>
  <fix>3d</fix>
</trkpt>
<trkpt lat="33.8102864" lon="-118.393867">
  <ele>-14.77</ele>
  <time>2026-09-02T22:13:11Z</time>
  <course>180.13</course>
  <speed>0.5</speed>
  <fix>3d</fix>
</trkpt>
<trkpt lat="33.8102855" lon="-118.3938671">
  <ele>-15.133</ele>
  <time>2026-09-02T22:13:11Z</time>
  <course>184.76</course>
  <speed>0.4801041553663121</speed>
  <fix>3d</fix>
</trkpt>
<trkpt lat="33.8102864" lon="-118.393867">
  <ele>-14.77</ele>
  <time>2026-09-02T22:13:11Z</time>
  <course>180.13</course>
  <speed>0.5</speed>
  <fix>3d</fix>
</trkpt>
<trkpt lat="33.8102851" lon="-118.3938671">
  <ele>-15.134</ele>
  <time>2026-09-02T22:13:11Z</time>
  <course>184.76</course>
  <speed>0.4801041553663121</speed>
  <fix>3d</fix>
</trkpt>
<trkpt lat="33.8102855" lon="-118.393867">
  <ele>-14.77</ele>
  <time>2026-09-02T22:13:11Z</time>
  <course>180.12</course>
  <speed>0.5</speed>
  <fix>3d</fix>
</trkpt>
<trkpt lat="33.8102846" lon="-118.3938671">
  <ele>-15.133</ele>
  <time>2026-09-02T22:13:11Z</time>
  <course>184.76</course>
  <speed>0.4801041553663121</speed>
  <fix>3d</fix>
</trkpt>
<trkpt lat="33.8102855" lon="-118.393867">
  <ele>-14.77</ele>
  <time>2026-09-02T22:13:11Z</time>
  <course>180.12</course>
  <speed>0.5</speed>
  <fix>3d</fix>
</trkpt>
<trkpt lat="33.8102842" lon="-118.3938671">
  <ele>-15.133</ele>
  <time>2026-09-02T22:13:11Z</time>
  <course>184.76</course>
  <speed>0.4801041553663121</speed>
  <fix>3d</fix>
</trkpt>
<trkpt lat="33.8102846" lon="-118.393867">
  <ele>-14.76</ele>
  <time>2026-09-02T22:13:11Z</time>
  <course>180.11</course>
  <speed>0.5</speed>
  <fix>3d</fix>
</trkpt>
<trkpt lat="33.8102837" lon="-118.3938671">
  <ele>-15.132</ele>
  <time>2026-09-02T22:13:11Z</time>
  <course>184.76</course>
  <speed>0.4801041553663121</speed>
  <fix>3d</fix>
</trkpt>
<trkpt lat="33.8102846" lon="-118.393867">
  <ele>-14.76</ele>
  <time>2026-09-02T22:13:11Z</time>
  <course>180.11</course>
  <speed>0.5</speed>
  <fix>3d</fix>
</trkpt>
<trkpt lat="33.8102833" lon="-118.3938671">
  <ele>-15.132</ele>
  <time>2026-09-02T22:13:11Z</time>
  <course>184.76</course>
  <speed>0.4801041553663121</speed>
  <fix>3d</fix>
</trkpt>
<trkpt lat="33.8102837" lon="-118.393867">
  <ele>-14.76</ele>
  <time>2026-09-02T22:13:11Z</time>
  <course>180.11</course>
  <speed>0.5</speed>
  <fix>3d</fix>
</trkpt>
<trkpt lat="33.8102828" lon="-118.3938671">
  <ele>-15.132</ele>
  <time>2026-09-02T22:13:11Z</time>
  <course>184.76</course>
  <speed>0.4801041553663121</speed>
  <fix>3d</fix>
</trkpt>
<trkpt lat="33.8102837" lon="-118.393867">
  <ele>-14.76</ele>
  <time>2026-09-02T22:13:11Z</time>
  <course>180.11</course>
  <speed>0.5</speed>
  <fix>3d</fix>
</trkpt>
<trkpt lat="33.8102824" lon="-118.3938671">
  <ele>-15.13</ele>
  <time>2026-09-02T22:13:11Z</time>
  <course>184.76</course>
  <speed>0.4801041553663121</speed>
  <fix>3d</fix>
</trkpt>
<trkpt lat="33.8102827" lon="-118.393867">
  <ele>-14.76</ele>
  <time>2026-09-02T22:13:11Z</time>
  <course>180.11</course>
  <speed>0.5</speed>
  <fix>3d</fix>
</trkpt>
<trkpt lat="33.8102819" lon="-118.3938671">
  <ele>-15.129</ele>
  <time>2026-09-02T22:13:11Z</time>
  <course>184.76</course>
  <speed>0.4801041553663121</speed>
  <fix>3d</fix>
</trkpt>
<trkpt lat="33.8102827" lon="-118.393867">
  <ele>-14.76</ele>
  <time>2026-09-02T22:13:11Z</time>
  <course>180.11</course>
  <speed>0.5</speed>
  <fix>3d</fix>
</trkpt>
<trkpt lat="33.8102814" lon="-118.3938671">
  <ele>-15.128</ele>
  <time>2026-09-02T22:13:11Z</time>
  <course>184.76</course>
  <speed>0.4801041553663121</speed>
  <fix>3d</fix>
</trkpt>
<trkpt lat="33.8102818" lon="-118.393867">
  <ele>-14.76</ele>
  <time>2026-09-02T22:13:11Z</time>
  <course>180.11</course>
  <speed>0.5</speed>
  <fix>3d</fix>
</trkpt>
<trkpt lat="33.810281" lon="-118.3938671">
  <ele>-15.127</ele>
  <time>2026-09-02T22:13:11Z</time>
  <course>184.77</course>
  <speed>0.4801041553663121</speed>
  <fix>3d</fix>
</trkpt>
<trkpt lat="33.8102818" lon="-118.393867">
  <ele>-14.76</ele>
  <time>2026-09-02T22:13:11Z</time>
  <course>180.11</course>
  <speed>0.5</speed>
  <fix>3d</fix>
</trkpt>
<trkpt lat="33.8102805" lon="-118.3938671">
  <ele>-15.127</ele>
  <time>2026-09-02T22:13:11Z</time>
  <course>184.76</course>
  <speed>0.4801041553663121</speed>
  <fix>3d</fix>
</trkpt>
<trkpt lat="33.8102809" lon="-118.393867">
  <ele>-14.76</ele>
  <time>2026-09-02T22:13:11Z</time>
  <course>180.09</course>
  <speed>0.5</speed>
  <fix>3d</fix>
</trkpt>
<trkpt lat="33.8102801" lon="-118.3938671">
  <ele>-15.128</ele>
  <time>2026-09-02T22:13:11Z</time>
  <course>184.77</course>
  <speed>0.4801041553663121</speed>
  <fix>3d</fix>
</trkpt>
<trkpt lat="33.8102809" lon="-118.393867">
  <ele>-14.76</ele>
  <time>2026-09-02T22:13:11Z</time>
  <course>180.09</course>
  <speed>0.5</speed>
  <fix>3d</fix>
</trkpt>
<trkpt lat="33.8102796" lon="-118.3938671">
  <ele>-15.128</ele>
  <time>2026-09-02T22:13:11Z</time>
  <course>184.76</course>
  <speed>0.4801041553663121</speed>
  <fix>3d</fix>
</trkpt>
<trkpt lat="33.81028" lon="-118.393867">
  <ele>-14.76</ele>
  <time>2026-09-02T22:13:11Z</time>
  <course>180.09</course>
  <speed>0.5</speed>
  <fix>3d</fix>
</trkpt>
<trkpt lat="33.8102792" lon="-118.3938671">
  <ele>-15.129</ele>
  <time>2026-09-02T22:13:11Z</time>
  <course>184.76</course>
  <speed>0.4801041553663121</speed>
  <fix>3d</fix>
</trkpt>
<trkpt lat="33.81028" lon="-118.393867">
  <ele>-14.76</ele>
  <time>2026-09-02T22:13:11Z</time>
  <course>180.09</course>
  <speed>0.5</speed>
  <fix>3d</fix>
</trkpt>
<trkpt lat="33.8102787" lon="-118.3938671">
  <ele>-15.13</ele>
  <time>2026-09-02T22:13:11Z</time>
  <course>184.76</course>
  <speed>0.4801041553663121</speed>
  <fix>3d</fix>
</trkpt>
<trkpt lat="33.8102791" lon="-118.393867">
  <ele>-14.76</ele>
  <time>2026-09-02T22:13:11Z</time>
  <course>180.1</course>
  <speed>0.5</speed>
  <fix>3d</fix>
</trkpt>
<trkpt lat="33.8102783" lon="-118.3938671">
  <ele>-15.13</ele>
  <time>2026-09-02T22:13:11Z</time>
  <course>184.76</course>
  <speed>0.4801041553663121</speed>
  <fix>3d</fix>
</trkpt>
<trkpt lat="33.8102791" lon="-118.393867">
  <ele>-14.76</ele>
  <time>2026-09-02T22:13:11Z</time>
  <course>180.1</course>
  <speed>0.5</speed>
  <fix>3d</fix>
</trkpt>
<trkpt lat="33.8102778" lon="-118.3938671">
  <ele>-15.13</ele>
  <time>2026-09-02T22:13:11Z</time>
  <course>184.76</course>
  <speed>0.4801041553663121</speed>
  <fix>3d</fix>
</trkpt>
<trkpt lat="33.8102782" lon="-118.393867">
  <ele>-14.76</ele>
  <time>2026-09-02T22:13:11Z</time>
  <course>180.09</course>
  <speed>0.5</speed>
  <fix>3d</fix>
</trkpt>
<trkpt lat="33.8102774" lon="-118.3938671">
  <ele>-15.129</ele>
  <time>2026-09-02T22:13:11Z</time>
  <course>184.76</course>
  <speed>0.4801041553663121</speed>
  <fix>3d</fix>
</trkpt>
<trkpt lat="33.8102782" lon="-118.393867">
  <ele>-14.76</ele>
  <time>2026-09-02T22:13:11Z</time>
  <course>180.09</course>
  <speed>0.5</speed>
  <fix>3d</fix>
</trkpt>
<trkpt lat="33.8102769" lon="-118.3938671">
  <ele>-15.13</ele>
  <time>2026-09-02T22:13:11Z</time>
  <course>184.76</course>
  <speed>0.4801041553663121</speed>
  <fix>3d</fix>
</trkpt>
<trkpt lat="33.8102773" lon="-118.393867">
  <ele>-14.76</ele>
  <time>2026-09-02T22:13:11Z</time>
  <course>180.06</course>
  <speed>0.5</speed>
  <fix>3d</fix>
</trkpt>
<trkpt lat="33.8102764" lon="-118.3938671">
  <ele>-15.13</ele>
  <time>2026-09-02T22:13:11Z</time>
  <course>184.77</course>
  <speed>0.4801041553663121</speed>
  <fix>3d</fix>
</trkpt>
<trkpt lat="33.8102773" lon="-118.393867">
  <ele>-14.76</ele>
  <time>2026-09-02T22:13:11Z</time>
  <course>180.06</course>
  <speed>0.5</speed>
  <fix>3d</fix>
</trkpt>
<trkpt lat="33.810276" lon="-118.3938671">
  <ele>-15.13</ele>
  <time>2026-09-02T22:13:11Z</time>
  <course>184.76</course>
  <speed>0.4801041553663121</speed>
  <fix>3d</fix>
</trkpt>
<trkpt lat="33.8102764" lon="-118.393867">
  <ele>-14.76</ele>
  <time>2026-09-02T22:13:11Z</time>
  <course>180.04</course>
  <speed>0.5</speed>
  <fix>3d</fix>
</trkpt>
<trkpt lat="33.8102755" lon="-118.3938671">
  <ele>-15.13</ele>
  <time>2026-09-02T22:13:11Z</time>
  <course>184.76</course>
  <speed>0.4801041553663121</speed>
  <fix>3d</fix>
</trkpt>
<trkpt lat="33.8102764" lon="-118.393867">
  <ele>-14.76</ele>
  <time>2026-09-02T22:13:11Z</time>
  <course>180.04</course>
  <speed>0.5</speed>
  <fix>3d</fix>
</trkpt>
<trkpt lat="33.8102751" lon="-118.3938671">
  <ele>-15.13</ele>
  <time>2026-09-02T22:13:11Z</time>
  <course>184.76</course>
  <speed>0.4801041553663121</speed>
  <fix>3d</fix>
</trkpt>
<trkpt lat="33.8102755" lon="-118.393867">
  <ele>-14.76</ele>
  <time>2026-09-02T22:13:11Z</time>
  <course>180.0</course>
  <speed>0.5</speed>
  <fix>3d</fix>
</trkpt>
<trkpt lat="33.8102746" lon="-118.3938671">
  <ele>-15.129</ele>
  <time>2026-09-02T22:13:11Z</time>
  <course>184.76</course>
  <speed>0.4801041553663121</speed>
  <fix>3d</fix>
</trkpt>
<trkpt lat="33.8102755" lon="-118.393867">
  <ele>-14.76</ele>
  <time>2026-09-02T22:13:11Z</time>
  <course>180.0</course>
  <speed>0.5</speed>
  <fix>3d</fix>
</trkpt>
<trkpt lat="33.8102742" lon="-118.3938671">
  <ele>-15.128</ele>
  <time>2026-09-02T22:13:11Z</time>
  <course>184.76</course>
  <speed>0.4801041553663121</speed>
  <fix>3d</fix>
</trkpt>
<trkpt lat="33.8102745" lon="-118.393867">
  <ele>-14.76</ele>
  <time>2026-09-02T22:13:11Z</time>
  <course>179.95</course>
  <speed>0.5</speed>
  <fix>3d</fix>
</trkpt>
<trkpt lat="33.8102737" lon="-118.3938671">
  <ele>-15.128</ele>
  <time>2026-09-02T22:13:11Z</time>
  <course>184.76</course>
  <speed>0.4801041553663121</speed>
  <fix>3d</fix>
</trkpt>
<trkpt lat="33.8102745" lon="-118.393867">
  <ele>-14.76</ele>
  <time>2026-09-02T22:13:11Z</time>
  <course>179.95</course>
  <speed>0.5</speed>
  <fix>3d</fix>
</trkpt>
<trkpt lat="33.8102733" lon="-118.3938671">
  <ele>-15.128</ele>
  <time>2026-09-02T22:13:11Z</time>
  <course>184.76</course>
  <speed>0.4801041553663121</speed>
  <fix>3d</fix>
</trkpt>
<trkpt lat="33.8102736" lon="-118.393867">
  <ele>-14.76</ele>
  <time>2026-09-02T22:13:11Z</time>
  <course>179.91</course>
  <speed>0.5</speed>
  <fix>3d</fix>
</trkpt>
<trkpt lat="33.8102728" lon="-118.3938671">
  <ele>-15.129</ele>
  <time>2026-09-02T22:13:11Z</time>
  <course>184.76</course>
  <speed>0.4801041553663121</speed>
  <fix>3d</fix>
</trkpt>
<trkpt lat="33.8102736" lon="-118.393867">
  <ele>-14.76</ele>
  <time>2026-09-02T22:13:11Z</time>
  <course>179.91</course>
  <speed>0.5</speed>
  <fix>3d</fix>
</trkpt>
<trkpt lat="33.8102724" lon="-118.3938671">
  <ele>-15.13</ele>
  <time>2026-09-02T22:13:11Z</time>
  <course>184.76</course>
  <speed>0.4801041553663121</speed>
  <fix>3d</fix>
</trkpt>
<trkpt lat="33.8102727" lon="-118.393867">
  <ele>-14.76</ele>
  <time>2026-09-02T22:13:11Z</time>
  <course>179.9</course>
  <speed>0.5</speed>
  <fix>3d</fix>
</trkpt>
<trkpt lat="33.8102719" lon="-118.3938671">
  <ele>-15.131</ele>
  <time>2026-09-02T22:13:11Z</time>
  <course>184.76</course>
  <speed>0.4801041553663121</speed>
  <fix>3d</fix>
</trkpt>
<trkpt lat="33.8102727" lon="-118.393867">
  <ele>-14.76</ele>
  <time>2026-09-02T22:13:11Z</time>
  <course>179.9</course>
  <speed>0.5</speed>
  <fix>3d</fix>
</trkpt>
<trkpt lat="33.8102714" lon="-118.3938671">
  <ele>-15.131</ele>
  <time>2026-09-02T22:13:11Z</time>
  <course>184.76</course>
  <speed>0.4801041553663121</speed>
  <fix>3d</fix>
</trkpt>
<trkpt lat="33.8102718" lon="-118.393867">
  <ele>-14.76</ele>
  <time>2026-09-02T22:13:11Z</time>
  <course>179.87</course>
  <speed>0.5</speed>
  <fix>3d</fix>
</trkpt>
<trkpt lat="33.810271" lon="-118.3938671">
  <ele>-15.131</ele>
  <time>2026-09-02T22:13:11Z</time>
  <course>184.76</course>
  <speed>0.4801041553663121</speed>
  <fix>3d</fix>
</trkpt>
<trkpt lat="33.8102718" lon="-118.393867">
  <ele>-14.76</ele>
  <time>2026-09-02T22:13:11Z</time>
  <course>179.87</course>
  <speed>0.5</speed>
  <fix>3d</fix>
</trkpt>
<trkpt lat="33.8102705" lon="-118.3938671">
  <ele>-15.13</ele>
  <time>2026-09-02T22:13:11Z</time>
  <course>184.76</course>
  <speed>0.4801041553663121</speed>
  <fix>3d</fix>
</trkpt>
<trkpt lat="33.8102709" lon="-118.393867">
  <ele>-14.76</ele>
  <time>2026-09-02T22:13:11Z</time>
  <course>179.84</course>
  <speed>0.5</speed>
  <fix>3d</fix>
</trkpt>
<trkpt lat="33.8102701" lon="-118.3938671">
  <ele>-15.128</ele>
  <time>2026-09-02T22:13:11Z</time>
  <course>184.77</course>
  <speed>0.4801041553663121</speed>
  <fix>3d</fix>
</trkpt>
<trkpt lat="33.8102709" lon="-118.393867">
  <ele>-14.76</ele>
  <time>2026-09-02T22:13:11Z</time>
  <course>179.84</course>
  <speed>0.5</speed>
  <fix>3d</fix>
</trkpt>
<trkpt lat="33.8102696" lon="-118.3938671">
  <ele>-15.127</ele>
  <time>2026-09-02T22:13:11Z</time>
  <course>184.77</course>
  <speed>0.4801041553663121</speed>
  <fix>3d</fix>
</trkpt>
<trkpt lat="33.81027" lon="-118.393867">
  <ele>-14.76</ele>
  <time>2026-09-02T22:13:11Z</time>
  <course>179.82</course>
  <speed>0.5</speed>
  <fix>3d</fix>
</trkpt>
<trkpt lat="33.8102692" lon="-118.3938671">
  <ele>-15.126</ele>
  <time>2026-09-02T22:13:11Z</time>
  <course>184.76</course>
  <speed>0.4801041553663121</speed>
  <fix>3d</fix>
</trkpt>
<trkpt lat="33.81027" lon="-118.393867">
  <ele>-14.76</ele>
  <time>2026-09-02T22:13:11Z</time>
  <course>179.82</course>
  <speed>0.5</speed>
  <fix>3d</fix>
</trkpt>
<trkpt lat="33.8102687" lon="-118.3938671">
  <ele>-15.126</ele>
  <time>2026-09-02T22:13:11Z</time>
  <course>184.76</course>
  <speed>0.4801041553663121</speed>
  <fix>3d</fix>
</trkpt>
<trkpt lat="33.8102691" lon="-118.393867">
  <ele>-14.76</ele>
  <time>2026-09-02T22:13:11Z</time>
  <course>179.8</course>
  <speed>0.5</speed>
  <fix>3d</fix>
</trkpt>
<trkpt lat="33.8102683" lon="-118.3938671">
  <ele>-15.127</ele>
  <time>2026-09-02T22:13:11Z</time>
  <course>184.76</course>
  <speed>0.4801041553663121</speed>
  <fix>3d</fix>
</trkpt>
<trkpt lat="33.8102691" lon="-118.393867">
  <ele>-14.76</ele>
  <time>2026-09-02T22:13:11Z</time>
  <course>179.8</course>
  <speed>0.5</speed>
  <fix>3d</fix>
</trkpt>
<trkpt lat="33.8102678" lon="-118.3938671">
  <ele>-15.127</ele>
  <time>2026-09-02T22:13:11Z</time>
  <course>184.76</course>
  <speed>0.4801041553663121</speed>
  <fix>3d</fix>
</trkpt>
<trkpt lat="33.8102682" lon="-118.393867">
  <ele>-14.76</ele>
  <time>2026-09-02T22:13:11Z</time>
  <course>179.79</course>
  <speed>0.5</speed>
  <fix>3d</fix>
</trkpt>
<trkpt lat="33.8102674" lon="-118.3938671">
  <ele>-15.127</ele>
  <time>2026-09-02T22:13:11Z</time>
  <course>184.76</course>
  <speed>0.4801041553663121</speed>
  <fix>3d</fix>
</trkpt>
<trkpt lat="33.8102682" lon="-118.393867">
  <ele>-14.76</ele>
  <time>2026-09-02T22:13:11Z</time>
  <course>179.79</course>
  <speed>0.5</speed>
  <fix>3d</fix>
</trkpt>
<trkpt lat="33.8102669" lon="-118.3938671">
  <ele>-15.127</ele>
  <time>2026-09-02T22:13:11Z</time>
  <course>184.76</course>
  <speed>0.4801041553663121</speed>
  <fix>3d</fix>
</trkpt>
<trkpt lat="33.8102673" lon="-118.393867">
  <ele>-14.76</ele>
  <time>2026-09-02T22:13:11Z</time>
  <course>179.75</course>
  <speed>0.5</speed>
  <fix>3d</fix>
</trkpt>
<trkpt lat="33.8102665" lon="-118.3938671">
  <ele>-15.127</ele>
  <time>2026-09-02T22:13:11Z</time>
  <course>184.76</course>
  <speed>0.4801041553663121</speed>
  <fix>3d</fix>
</trkpt>
<trkpt lat="33.8102673" lon="-118.393867">
  <ele>-14.76</ele>
  <time>2026-09-02T22:13:11Z</time>
  <course>179.75</course>
  <speed>0.5</speed>
  <fix>3d</fix>
</trkpt>
<trkpt lat="33.810266" lon="-118.3938671">
  <ele>-15.127</ele>
  <time>2026-09-02T22:13:11Z</time>
  <course>184.76</course>
  <speed>0.4801041553663121</speed>
  <fix>3d</fix>
</trkpt>
<trkpt lat="33.8102664" lon="-118.393867">
  <ele>-14.77</ele>
  <time>2026-09-02T22:13:11Z</time>
  <course>179.71</course>
  <speed>0.5</speed>
  <fix>3d</fix>
</trkpt>
<trkpt lat="33.8102656" lon="-118.3938671">
  <ele>-15.127</ele>
  <time>2026-09-02T22:13:11Z</time>
  <course>184.76</course>
  <speed>0.4801041553663121</speed>
  <fix>3d</fix>
</trkpt>
<trkpt lat="33.8102664" lon="-118.393867">
  <ele>-14.77</ele>
  <time>2026-09-02T22:13:11Z</time>
  <course>179.71</course>
  <speed>0.5</speed>
  <fix>3d</fix>
</trkpt>
<trkpt lat="33.8102651" lon="-118.3938671">
  <ele>-15.128</ele>
  <time>2026-09-02T22:13:11Z</time>
  <course>184.76</course>
  <speed>0.4801041553663121</speed>
  <fix>3d</fix>
</trkpt>
<trkpt lat="33.8102655" lon="-118.393867">
  <ele>-14.77</ele>
  <time>2026-09-02T22:13:11Z</time>
  <course>179.66</course>
  <speed>0.5</speed>
  <fix>3d</fix>
</trkpt>
<trkpt lat="33.8102647" lon="-118.3938671">
  <ele>-15.129</ele>
  <time>2026-09-02T22:13:11Z</time>
  <course>184.76</course>
  <speed>0.4801041553663121</speed>
  <fix>3d</fix>
</trkpt>
<trkpt lat="33.8102655" lon="-118.393867">
  <ele>-14.77</ele>
  <time>2026-09-02T22:13:11Z</time>
  <course>179.66</course>
  <speed>0.5</speed>
  <fix>3d</fix>
</trkpt>
<trkpt lat="33.8102642" lon="-118.3938671">
  <ele>-15.129</ele>
  <time>2026-09-02T22:13:11Z</time>
  <course>184.76</course>
  <speed>0.4801041553663121</speed>
  <fix>3d</fix>
</trkpt>
<trkpt lat="33.8102646" lon="-118.393867">
  <ele>-14.77</ele>
  <time>2026-09-02T22:13:11Z</time>
  <course>179.63</course>
  <speed>0.5</speed>
  <fix>3d</fix>
</trkpt>
<trkpt lat="33.8102638" lon="-118.3938671">
  <ele>-15.129</ele>
  <time>2026-09-02T22:13:11Z</time>
  <course>184.76</course>
  <speed>0.4801041553663121</speed>
  <fix>3d</fix>
</trkpt>
<trkpt lat="33.8102646" lon="-118.393867">
  <ele>-14.77</ele>
  <time>2026-09-02T22:13:11Z</time>
  <course>179.63</course>
  <speed>0.5</speed>
  <fix>3d</fix>
</trkpt>
<trkpt lat="33.8102633" lon="-118.3938671">
  <ele>-15.13</ele>
  <time>2026-09-02T22:13:11Z</time>
  <course>184.76</course>
  <speed>0.4801041553663121</speed>
  <fix>3d</fix>
</trkpt>
<trkpt lat="33.8102637" lon="-118.393867">
  <ele>-14.77</ele>
  <time>2026-09-02T22:13:11Z</time>
  <course>179.61</course>
  <speed>0.5</speed>
  <fix>3d</fix>
</trkpt>
<trkpt lat="33.8102628" lon="-118.3938671">
  <ele>-15.131</ele>
  <time>2026-09-02T22:13:11Z</time>
  <course>184.76</course>
  <speed>0.4801041553663121</speed>
  <fix>3d</fix>
</trkpt>
<trkpt lat="33.8102637" lon="-118.393867">
  <ele>-14.77</ele>
  <time>2026-09-02T22:13:11Z</time>
  <course>179.61</course>
  <speed>0.5</speed>
  <fix>3d</fix>
</trkpt>
<trkpt lat="33.8102624" lon="-118.3938671">
  <ele>-15.133</ele>
  <time>2026-09-02T22:13:11Z</time>
  <course>184.76</course>
  <speed>0.4801041553663121</speed>
  <fix>3d</fix>
</trkpt>
<trkpt lat="33.8102628" lon="-118.393867">
  <ele>-14.78</ele>
  <time>2026-09-02T22:13:11Z</time>
  <course>179.59</course>
  <speed>0.5</speed>
  <fix>3d</fix>
</trkpt>
<trkpt lat="33.8102619" lon="-118.3938671">
  <ele>-15.135</ele>
  <time>2026-09-02T22:13:11Z</time>
  <course>184.76</course>
  <speed>0.4801041553663121</speed>
  <fix>3d</fix>
</trkpt>
<trkpt lat="33.8102628" lon="-118.393867">
  <ele>-14.78</ele>
  <time>2026-09-02T22:13:11Z</time>
  <course>179.59</course>
  <speed>0.5</speed>
  <fix>3d</fix>
</trkpt>
<trkpt lat="33.8102615" lon="-118.3938671">
  <ele>-15.137</ele>
  <time>2026-09-02T22:13:11Z</time>
  <course>184.76</course>
  <speed>0.4801041553663121</speed>
  <fix>3d</fix>
</trkpt>
<trkpt lat="33.8102619" lon="-118.393867">
  <ele>-14.78</ele>
  <time>2026-09-02T22:13:11Z</time>
  <course>179.56</course>
  <speed>0.5</speed>
  <fix>3d</fix>
</trkpt>
<trkpt lat="33.810261" lon="-118.3938671">
  <ele>-15.137</ele>
  <time>2026-09-02T22:13:11Z</time>
  <course>184.76</course>
  <speed>0.4801041553663121</speed>
  <fix>3d</fix>
</trkpt>
<trkpt lat="33.8102619" lon="-118.393867">
  <ele>-14.78</ele>
  <time>2026-09-02T22:13:11Z</time>
  <course>179.56</course>
  <speed>0.5</speed>
  <fix>3d</fix>
</trkpt>
<trkpt lat="33.8102606" lon="-118.3938671">
  <ele>-15.136</ele>
  <time>2026-09-02T22:13:11Z</time>
  <course>184.76</course>
  <speed>0.4801041553663121</speed>
  <fix>3d</fix>
</trkpt>
<trkpt lat="33.810261" lon="-118.393867">
  <ele>-14.78</ele>
  <time>2026-09-02T22:13:11Z</time>
  <course>179.51</course>
  <speed>0.5</speed>
  <fix>3d</fix>
</trkpt>
<trkpt lat="33.8102601" lon="-118.3938671">
  <ele>-15.134</ele>
  <time>2026-09-02T22:13:11Z</time>
  <course>184.76</course>
  <speed>0.4801041553663121</speed>
  <fix>3d</fix>
</trkpt>
<trkpt lat="33.810261" lon="-118.393867">
  <ele>-14.78</ele>
  <time>2026-09-02T22:13:11Z</time>
  <course>179.51</course>
  <speed>0.5</speed>
  <fix>3d</fix>
</trkpt>
<trkpt lat="33.8102597" lon="-118.3938671">
  <ele>-15.132</ele>
  <time>2026-09-02T22:13:11Z</time>
  <course>184.76</course>
  <speed>0.4801041553663121</speed>
  <fix>3d</fix>
</trkpt>
<trkpt lat="33.8102601" lon="-118.393867">
  <ele>-14.77</ele>
  <time>2026-09-02T22:13:11Z</time>
  <course>179.47</course>
  <speed>0.5</speed>
  <fix>3d</fix>
</trkpt>
<trkpt lat="33.8102592" lon="-118.3938671">
  <ele>-15.131</ele>
  <time>2026-09-02T22:13:11Z</time>
  <course>184.76</course>
  <speed>0.4801041553663121</speed>
  <fix>3d</fix>
</trkpt>
<trkpt lat="33.8102601" lon="-118.393867">
  <ele>-14.77</ele>
  <time>2026-09-02T22:13:11Z</time>
  <course>179.47</course>
  <speed>0.5</speed>
  <fix>3d</fix>
</trkpt>
<trkpt lat="33.8102588" lon="-118.3938671">
  <ele>-15.131</ele>
  <time>2026-09-02T22:13:11Z</time>
  <course>184.76</course>
  <speed>0.4801041553663121</speed>
  <fix>3d</fix>
</trkpt>
<trkpt lat="33.8102592" lon="-118.393867">
  <ele>-14.77</ele>
  <time>2026-09-02T22:13:11Z</time>
  <course>179.45</course>
  <speed>0.5</speed>
  <fix>3d</fix>
</trkpt>
<trkpt lat="33.8102583" lon="-118.3938671">
  <ele>-15.131</ele>
  <time>2026-09-02T22:13:11Z</time>
  <course>184.76</course>
  <speed>0.4801041553663121</speed>
  <fix>3d</fix>
</trkpt>
<trkpt lat="33.8102592" lon="-118.393867">
  <ele>-14.77</ele>
  <time>2026-09-02T22:13:11Z</time>
  <course>179.45</course>
  <speed>0.5</speed>
  <fix>3d</fix>
</trkpt>
<trkpt lat="33.8102579" lon="-118.3938671">
  <ele>-15.132</ele>
  <time>2026-09-02T22:13:11Z</time>
  <course>184.76</course>
  <speed>0.4801041553663121</speed>
  <fix>3d</fix>
</trkpt>
<trkpt lat="33.8102583" lon="-118.393867">
  <ele>-14.77</ele>
  <time>2026-09-02T22:13:11Z</time>
  <course>179.44</course>
  <speed>0.5</speed>
  <fix>3d</fix>
</trkpt>
<trkpt lat="33.8102574" lon="-118.3938671">
  <ele>-15.132</ele>
  <time>2026-09-02T22:13:11Z</time>
  <course>184.76</course>
  <speed>0.4801041553663121</speed>
  <fix>3d</fix>
</trkpt>
<trkpt lat="33.8102583" lon="-118.393867">
  <ele>-14.77</ele>
  <time>2026-09-02T22:13:11Z</time>
  <course>179.44</course>
  <speed>0.5</speed>
  <fix>3d</fix>
</trkpt>
<trkpt lat="33.810257" lon="-118.3938671">
  <ele>-15.131</ele>
  <time>2026-09-02T22:13:11Z</time>
  <course>184.76</course>
  <speed>0.4801041553663121</speed>
  <fix>3d</fix>
</trkpt>
<trkpt lat="33.8102574" lon="-118.393867">
  <ele>-14.76</ele>
  <time>2026-09-02T22:13:11Z</time>
  <course>179.41</course>
  <speed>0.5</speed>
  <fix>3d</fix>
</trkpt>
<trkpt lat="33.8102565" lon="-118.3938671">
  <ele>-15.13</ele>
  <time>2026-09-02T22:13:11Z</time>
  <course>184.76</course>
  <speed>0.4801041553663121</speed>
  <fix>3d</fix>
</trkpt>
<trkpt lat="33.8102574" lon="-118.393867">
  <ele>-14.76</ele>
  <time>2026-09-02T22:13:11Z</time>
  <course>179.41</course>
  <speed>0.5</speed>
  <fix>3d</fix>
</trkpt>
<trkpt lat="33.8102561" lon="-118.3938671">
  <ele>-15.129</ele>
  <time>2026-09-02T22:13:11Z</time>
  <course>184.76</course>
  <speed>0.4801041553663121</speed>
  <fix>3d</fix>
</trkpt>
<trkpt lat="33.8102565" lon="-118.393867">
  <ele>-14.76</ele>
  <time>2026-09-02T22:13:11Z</time>
  <course>179.38</course>
  <speed>0.5</speed>
  <fix>3d</fix>
</trkpt>
<trkpt lat="33.8102556" lon="-118.3938671">
  <ele>-15.127</ele>
  <time>2026-09-02T22:13:11Z</time>
  <course>184.75</course>
  <speed>0.4801041553663121</speed>
  <fix>3d</fix>
</trkpt>
<trkpt lat="33.8102565" lon="-118.393867">
  <ele>-14.76</ele>
  <time>2026-09-02T22:13:11Z</time>
  <course>179.38</course>
  <speed>0.5</speed>
  <fix>3d</fix>
</trkpt>
<trkpt lat="33.8102552" lon="-118.3938671">
  <ele>-15.126</ele>
  <time>2026-09-02T22:13:11Z</time>
  <course>184.75</course>
  <speed>0.4801041553663121</speed>
  <fix>3d</fix>
</trkpt>
<trkpt lat="33.8102556" lon="-118.393867">
  <ele>-14.76</ele>
  <time>2026-09-02T22:13:11Z</time>
  <course>179.37</course>
  <speed>0.5</speed>
  <fix>3d</fix>
</trkpt>
<trkpt lat="33.8102547" lon="-118.3938671">
  <ele>-15.126</ele>
  <time>2026-09-02T22:13:11Z</time>
  <course>184.75</course>
  <speed>0.4801041553663121</speed>
  <fix>3d</fix>
</trkpt>
<trkpt lat="33.8102556" lon="-118.393867">
  <ele>-14.76</ele>
  <time>2026-09-02T22:13:11Z</time>
  <course>179.37</course>
  <speed>0.5</speed>
  <fix>3d</fix>
</trkpt>
<trkpt lat="33.8102543" lon="-118.3938671">
  <ele>-15.126</ele>
  <time>2026-09-02T22:13:11Z</time>
  <course>184.76</course>
  <speed>0.4801041553663121</speed>
  <fix>3d</fix>
</trkpt>
<trkpt lat="33.8102547" lon="-118.393867">
  <ele>-14.76</ele>
  <time>2026-09-02T22:13:11Z</time>
  <course>179.39</course>
  <speed>0.5</speed>
  <fix>3d</fix>
</trkpt>
<trkpt lat="33.8102538" lon="-118.3938671">
  <ele>-15.127</ele>
  <time>2026-09-02T22:13:11Z</time>
  <course>184.76</course>
  <speed>0.4801041553663121</speed>
  <fix>3d</fix>
</trkpt>
<trkpt lat="33.8102547" lon="-118.393867">
  <ele>-14.76</ele>
  <time>2026-09-02T22:13:11Z</time>
  <course>179.39</course>
  <speed>0.5</speed>
  <fix>3d</fix>
</trkpt>
<trkpt lat="33.8102534" lon="-118.3938671">
  <ele>-15.128</ele>
  <time>2026-09-02T22:13:11Z</time>
  <course>184.76</course>
  <speed>0.4801041553663121</speed>
  <fix>3d</fix>
</trkpt>
<trkpt lat="33.8102538" lon="-118.393867">
  <ele>-14.76</ele>
  <time>2026-09-02T22:13:11Z</time>
  <course>179.38</course>
  <speed>0.5</speed>
  <fix>3d</fix>
</trkpt>
<trkpt lat="33.8102529" lon="-118.3938671">
  <ele>-15.129</ele>
  <time>2026-09-02T22:13:11Z</time>
  <course>184.76</course>
  <speed>0.4801041553663121</speed>
  <fix>3d</fix>
</trkpt>
<trkpt lat="33.8102538" lon="-118.393867">
  <ele>-14.76</ele>
  <time>2026-09-02T22:13:11Z</time>
  <course>179.38</course>
  <speed>0.5</speed>
  <fix>3d</fix>
</trkpt>
<trkpt lat="33.8102525" lon="-118.3938671">
  <ele>-15.129</ele>
  <time>2026-09-02T22:13:11Z</time>
  <course>184.76</course>
  <speed>0.4801041553663121</speed>
  <fix>3d</fix>
</trkpt>
<trkpt lat="33.8102529" lon="-118.393867">
  <ele>-14.76</ele>
  <time>2026-09-02T22:13:11Z</time>
  <course>179.36</course>
  <speed>0.5</speed>
  <fix>3d</fix>
</trkpt>
<trkpt lat="33.810252" lon="-118.3938671">
  <ele>-15.13</ele>
  <time>2026-09-02T22:13:11Z</time>
  <course>184.76</course>
  <speed>0.4801041553663121</speed>
  <fix>3d</fix>
</trkpt>
<trkpt lat="33.8102529" lon="-118.393867">
  <ele>-14.76</ele>
  <time>2026-09-02T22:13:11Z</time>
  <course>179.36</course>
  <speed>0.5</speed>
  <fix>3d</fix>
</trkpt>
<trkpt lat="33.8102516" lon="-118.3938671">
  <ele>-15.131</ele>
  <time>2026-09-02T22:13:11Z</time>
  <course>184.76</course>
  <speed>0.4801041553663121</speed>
  <fix>3d</fix>
</trkpt>
<trkpt lat="33.810252" lon="-118.393867">
  <ele>-14.77</ele>
  <time>2026-09-02T22:13:11Z</time>
  <course>179.34</course>
  <speed>0.5</speed>
  <fix>3d</fix>
</trkpt>
<trkpt lat="33.8102511" lon="-118.3938671">
  <ele>-15.132</ele>
  <time>2026-09-02T22:13:11Z</time>
  <course>184.76</course>
  <speed>0.4801041553663121</speed>
  <fix>3d</fix>
</trkpt>
<trkpt lat="33.810252" lon="-118.393867">
  <ele>-14.77</ele>
  <time>2026-09-02T22:13:11Z</time>
  <course>179.34</course>
  <speed>0.5</speed>
  <fix>3d</fix>
</trkpt>
<trkpt lat="33.8102507" lon="-118.3938671">
  <ele>-15.133</ele>
  <time>2026-09-02T22:13:11Z</time>
  <course>184.76</course>
  <speed>0.4801041553663121</speed>
  <fix>3d</fix>
</trkpt>
<trkpt lat="33.810251" lon="-118.3938669">
  <ele>-14.77</ele>
  <time>2026-09-02T22:13:11Z</time>
  <course>179.32</course>
  <speed>0.5</speed>
  <fix>3d</fix>
</trkpt>
<trkpt lat="33.8102502" lon="-118.3938671">
  <ele>-15.134</ele>
  <time>2026-09-02T22:13:11Z</time>
  <course>184.76</course>
  <speed>0.4801041553663121</speed>
  <fix>3d</fix>
</trkpt>
<trkpt lat="33.810251" lon="-118.3938669">
  <ele>-14.77</ele>
  <time>2026-09-02T22:13:11Z</time>
  <course>179.32</course>
  <speed>0.5</speed>
  <fix>3d</fix>
</trkpt>
<trkpt lat="33.8102498" lon="-118.3938671">
  <ele>-15.134</ele>
  <time>2026-09-02T22:13:11Z</time>
  <course>184.76</course>
  <speed>0.4801041553663121</speed>
  <fix>3d</fix>
</trkpt>
<trkpt lat="33.8102501" lon="-118.3938669">
  <ele>-14.77</ele>
  <time>2026-09-02T22:13:11Z</time>
  <course>179.36</course>
  <speed>0.5</speed>
  <fix>3d</fix>
</trkpt>
<trkpt lat="33.8102493" lon="-118.3938671">
  <ele>-15.134</ele>
  <time>2026-09-02T22:13:11Z</time>
  <course>184.76</course>
  <speed>0.4801041553663121</speed>
  <fix>3d</fix>
</trkpt>
<trkpt lat="33.8102501" lon="-118.3938669">
  <ele>-14.77</ele>
  <time>2026-09-02T22:13:11Z</time>
  <course>179.36</course>
  <speed>0.5</speed>
  <fix>3d</fix>
</trkpt>
<trkpt lat="33.8102488" lon="-118.3938671">
  <ele>-15.132</ele>
  <time>2026-09-02T22:13:11Z</time>
  <course>184.76</course>
  <speed>0.4801041553663121</speed>
  <fix>3d</fix>
</trkpt>
<trkpt lat="33.8102492" lon="-118.3938669">
  <ele>-14.76</ele>
  <time>2026-09-02T22:13:11Z</time>
  <course>179.5</course>
  <speed>0.5</speed>
  <fix>3d</fix>
</trkpt>
<trkpt lat="33.8102484" lon="-118.3938671">
  <ele>-15.131</ele>
  <time>2026-09-02T22:13:11Z</time>
  <course>184.76</course>
  <speed>0.47010637094172636</speed>
  <fix>3d</fix>
</trkpt>
<trkpt lat="33.8102492" lon="-118.3938669">
  <ele>-14.76</ele>
  <time>2026-09-02T22:13:11Z</time>
  <course>179.5</course>
  <speed>0.5</speed>
  <fix>3d</fix>
</trkpt>
<trkpt lat="33.8102479" lon="-118.3938671">
  <ele>-15.129</ele>
  <time>2026-09-02T22:13:11Z</time>
  <course>184.76</course>
  <speed>0.47010637094172636</speed>
  <fix>3d</fix>
</trkpt>
<trkpt lat="33.8102483" lon="-118.3938669">
  <ele>-14.76</ele>
  <time>2026-09-02T22:13:11Z</time>
  <course>179.66</course>
  <speed>0.5</speed>
  <fix>3d</fix>
</trkpt>
<trkpt lat="33.8102475" lon="-118.3938671">
  <ele>-15.128</ele>
  <time>2026-09-02T22:13:11Z</time>
  <course>184.76</course>
  <speed>0.47010637094172636</speed>
  <fix>3d</fix>
</trkpt>
<trkpt lat="33.8102483" lon="-118.3938669">
  <ele>-14.76</ele>
  <time>2026-09-02T22:13:11Z</time>
  <course>179.66</course>
  <speed>0.5</speed>
  <fix>3d</fix>
</trkpt>
<trkpt lat="33.810247" lon="-118.3938671">
  <ele>-15.127</ele>
  <time>2026-09-02T22:13:11Z</time>
  <course>184.76</course>
  <speed>0.47010637094172636</speed>
  <fix>3d</fix>
</trkpt>
<trkpt lat="33.8102474" lon="-118.3938669">
  <ele>-14.76</ele>
  <time>2026-09-02T22:13:11Z</time>
  <course>179.82</course>
  <speed>0.5</speed>
  <fix>3d</fix>
</trkpt>
<trkpt lat="33.8102466" lon="-118.3938671">
  <ele>-15.128</ele>
  <time>2026-09-02T22:13:11Z</time>
  <course>184.76</course>
  <speed>0.47010637094172636</speed>
  <fix>3d</fix>
</trkpt>
<trkpt lat="33.8102474" lon="-118.3938669">
  <ele>-14.76</ele>
  <time>2026-09-02T22:13:11Z</time>
  <course>179.82</course>
  <speed>0.5</speed>
  <fix>3d</fix>
</trkpt>
<trkpt lat="33.8102461" lon="-118.3938671">
  <ele>-15.128</ele>
  <time>2026-09-02T22:13:11Z</time>
  <course>184.76</course>
  <speed>0.47010637094172636</speed>
  <fix>3d</fix>
</trkpt>
<trkpt lat="33.8102465" lon="-118.3938669">
  <ele>-14.76</ele>
  <time>2026-09-02T22:13:11Z</time>
  <course>179.95</course>
  <speed>0.5</speed>
  <fix>3d</fix>
</trkpt>
<trkpt lat="33.8102457" lon="-118.3938671">
  <ele>-15.129</ele>
  <time>2026-09-02T22:13:11Z</time>
  <course>184.76</course>
  <speed>0.47010637094172636</speed>
  <fix>3d</fix>
</trkpt>
<trkpt lat="33.8102465" lon="-118.3938669">
  <ele>-14.76</ele>
  <time>2026-09-02T22:13:11Z</time>
  <course>179.95</course>
  <speed>0.5</speed>
  <fix>3d</fix>
</trkpt>
<trkpt lat="33.8102452" lon="-118.3938671">
  <ele>-15.128</ele>
  <time>2026-09-02T22:13:11Z</time>
  <course>184.76</course>
  <speed>0.47010637094172636</speed>
  <fix>3d</fix>
</trkpt>
<trkpt lat="33.8102456" lon="-118.3938669">
  <ele>-14.76</ele>
  <time>2026-09-02T22:13:11Z</time>
  <course>180.01</course>
  <speed>0.49</speed>
  <fix>3d</fix>
</trkpt>
<trkpt lat="33.8102448" lon="-118.3938671">
  <ele>-15.128</ele>
  <time>2026-09-02T22:13:11Z</time>
  <course>184.76</course>
  <speed>0.47010637094172636</speed>
  <fix>3d</fix>
</trkpt>
<trkpt lat="33.8102456" lon="-118.3938669">
  <ele>-14.76</ele>
  <time>2026-09-02T22:13:11Z</time>
  <course>180.01</course>
  <speed>0.49</speed>
  <fix>3d</fix>
</trkpt>
<trkpt lat="33.8102443" lon="-118.3938671">
  <ele>-15.128</ele>
  <time>2026-09-02T22:13:11Z</time>
  <course>184.76</course>
  <speed>0.47010637094172636</speed>
  <fix>3d</fix>
</trkpt>
<trkpt lat="33.8102447" lon="-118.3938669">
  <ele>-14.76</ele>
  <time>2026-09-02T22:13:11Z</time>
  <course>180.04</course>
  <speed>0.49</speed>
  <fix>3d</fix>
</trkpt>
<trkpt lat="33.8102439" lon="-118.3938671">
  <ele>-15.128</ele>
  <time>2026-09-02T22:13:11Z</time>
  <course>184.76</course>
  <speed>0.47010637094172636</speed>
  <fix>3d</fix>
</trkpt>
<trkpt lat="33.8102447" lon="-118.3938669">
  <ele>-14.76</ele>
  <time>2026-09-02T22:13:11Z</time>
  <course>180.04</course>
  <speed>0.49</speed>
  <fix>3d</fix>
</trkpt>
<trkpt lat="33.8102434" lon="-118.3938671">
  <ele>-15.128</ele>
  <time>2026-09-02T22:13:11Z</time>
  <course>184.76</course>
  <speed>0.47010637094172636</speed>
  <fix>3d</fix>
</trkpt>
<trkpt lat="33.8102438" lon="-118.3938669">
  <ele>-14.76</ele>
  <time>2026-09-02T22:13:11Z</time>
  <course>180.07</course>
  <speed>0.49</speed>
  <fix>3d</fix>
</trkpt>
<trkpt lat="33.810243" lon="-118.3938671">
  <ele>-15.127</ele>
  <time>2026-09-02T22:13:11Z</time>
  <course>184.76</course>
  <speed>0.47010637094172636</speed>
  <fix>3d</fix>
</trkpt>
<trkpt lat="33.8102438" lon="-118.3938669">
  <ele>-14.76</ele>
  <time>2026-09-02T22:13:11Z</time>
  <course>180.07</course>
  <speed>0.49</speed>
  <fix>3d</fix>
</trkpt>
<trkpt lat="33.8102425" lon="-118.3938671">
  <ele>-15.127</ele>
  <time>2026-09-02T22:13:11Z</time>
  <course>184.76</course>
  <speed>0.47010637094172636</speed>
  <fix>3d</fix>
</trkpt>
<trkpt lat="33.8102429" lon="-118.3938669">
  <ele>-14.76</ele>
  <time>2026-09-02T22:13:11Z</time>
  <course>180.09</course>
  <speed>0.49</speed>
  <fix>3d</fix>
</trkpt>
<trkpt lat="33.8102421" lon="-118.3938671">
  <ele>-15.127</ele>
  <time>2026-09-02T22:13:11Z</time>
  <course>184.76</course>
  <speed>0.47010637094172636</speed>
  <fix>3d</fix>
</trkpt>
<trkpt lat="33.8102429" lon="-118.3938669">
  <ele>-14.76</ele>
  <time>2026-09-02T22:13:11Z</time>
  <course>180.09</course>
  <speed>0.49</speed>
  <fix>3d</fix>
</trkpt>
<trkpt lat="33.8102416" lon="-118.3938671">
  <ele>-15.127</ele>
  <time>2026-09-02T22:13:11Z</time>
  <course>184.76</course>
  <speed>0.47010637094172636</speed>
  <fix>3d</fix>
</trkpt>
<trkpt lat="33.810242" lon="-118.3938669">
  <ele>-14.76</ele>
  <time>2026-09-02T22:13:11Z</time>
  <course>180.12</course>
  <speed>0.49</speed>
  <fix>3d</fix>
</trkpt>
<trkpt lat="33.8102412" lon="-118.3938671">
  <ele>-15.127</ele>
  <time>2026-09-02T22:13:11Z</time>
  <course>184.76</course>
  <speed>0.47010637094172636</speed>
  <fix>3d</fix>
</trkpt>
<trkpt lat="33.810242" lon="-118.3938669">
  <ele>-14.76</ele>
  <time>2026-09-02T22:13:11Z</time>
  <course>180.12</course>
  <speed>0.49</speed>
  <fix>3d</fix>
</trkpt>
<trkpt lat="33.8102407" lon="-118.3938671">
  <ele>-15.128</ele>
  <time>2026-09-02T22:13:11Z</time>
  <course>184.76</course>
  <speed>0.47010637094172636</speed>
  <fix>3d</fix>
</trkpt>
<trkpt lat="33.8102411" lon="-118.3938669">
  <ele>-14.76</ele>
  <time>2026-09-02T22:13:11Z</time>
  <course>180.15</course>
  <speed>0.49</speed>
  <fix>3d</fix>
</trkpt>
<trkpt lat="33.8102403" lon="-118.3938671">
  <ele>-15.128</ele>
  <time>2026-09-02T22:13:11Z</time>
  <course>184.76</course>
  <speed>0.47010637094172636</speed>
  <fix>3d</fix>
</trkpt>
<trkpt lat="33.8102411" lon="-118.3938669">
  <ele>-14.76</ele>
  <time>2026-09-02T22:13:11Z</time>
  <course>180.15</course>
  <speed>0.49</speed>
  <fix>3d</fix>
</trkpt>
<trkpt lat="33.8102398" lon="-118.3938671">
  <ele>-15.129</ele>
  <time>2026-09-02T22:13:11Z</time>
  <course>184.76</course>
  <speed>0.47010637094172636</speed>
  <fix>3d</fix>
</trkpt>
<trkpt lat="33.8102403" lon="-118.3938669">
  <ele>-14.76</ele>
  <time>2026-09-02T22:13:11Z</time>
  <course>180.17</course>
  <speed>0.49</speed>
  <fix>3d</fix>
</trkpt>
<trkpt lat="33.8102394" lon="-118.3938671">
  <ele>-15.131</ele>
  <time>2026-09-02T22:13:11Z</time>
  <course>184.76</course>
  <speed>0.47010637094172636</speed>
  <fix>3d</fix>
</trkpt>
<trkpt lat="33.8102403" lon="-118.3938669">
  <ele>-14.76</ele>
  <time>2026-09-02T22:13:11Z</time>
  <course>180.17</course>
  <speed>0.49</speed>
  <fix>3d</fix>
</trkpt>
<trkpt lat="33.8102389" lon="-118.3938671">
  <ele>-15.132</ele>
  <time>2026-09-02T22:13:11Z</time>
  <course>184.76</course>
  <speed>0.4801041553663121</speed>
  <fix>3d</fix>
</trkpt>
<trkpt lat="33.8102394" lon="-118.3938669">
  <ele>-14.76</ele>
  <time>2026-09-02T22:13:11Z</time>
  <course>180.18</course>
  <speed>0.49</speed>
  <fix>3d</fix>
</trkpt>
<trkpt lat="33.8102385" lon="-118.3938671">
  <ele>-15.134</ele>
  <time>2026-09-02T22:13:11Z</time>
  <course>184.76</course>
  <speed>0.4801041553663121</speed>
  <fix>3d</fix>
</trkpt>
<trkpt lat="33.8102394" lon="-118.3938669">
  <ele>-14.76</ele>
  <time>2026-09-02T22:13:11Z</time>
  <course>180.18</course>
  <speed>0.49</speed>
  <fix>3d</fix>
</trkpt>
<trkpt lat="33.810238" lon="-118.3938671">
  <ele>-15.135</ele>
  <time>2026-09-02T22:13:11Z</time>
  <course>184.76</course>
  <speed>0.4801041553663121</speed>
  <fix>3d</fix>
</trkpt>
<trkpt lat="33.8102385" lon="-118.3938669">
  <ele>-14.77</ele>
  <time>2026-09-02T22:13:11Z</time>
  <course>180.19</course>
  <speed>0.5</speed>
  <fix>3d</fix>
</trkpt>
<trkpt lat="33.8102376" lon="-118.3938671">
  <ele>-15.136</ele>
  <time>2026-09-02T22:13:11Z</time>
  <course>184.76</course>
  <speed>0.4801041553663121</speed>
  <fix>3d</fix>
</trkpt>
<trkpt lat="33.8102385" lon="-118.3938669">
  <ele>-14.77</ele>
  <time>2026-09-02T22:13:11Z</time>
  <course>180.19</course>
  <speed>0.5</speed>
  <fix>3d</fix>
</trkpt>
<trkpt lat="33.8102371" lon="-118.3938671">
  <ele>-15.136</ele>
  <time>2026-09-02T22:13:11Z</time>
  <course>184.76</course>
  <speed>0.4801041553663121</speed>
  <fix>3d</fix>
</trkpt>
<trkpt lat="33.8102376" lon="-118.3938669">
  <ele>-14.76</ele>
  <time>2026-09-02T22:13:11Z</time>
  <course>180.23</course>
  <speed>0.5</speed>
  <fix>3d</fix>
</trkpt>
<trkpt lat="33.8102367" lon="-118.3938671">
  <ele>-15.135</ele>
  <time>2026-09-02T22:13:11Z</time>
  <course>184.76</course>
  <speed>0.4801041553663121</speed>
  <fix>3d</fix>
</trkpt>
<trkpt lat="33.8102376" lon="-118.3938669">
  <ele>-14.76</ele>
  <time>2026-09-02T22:13:12Z</time>
  <course>180.23</course>
  <speed>0.5</speed>
  <fix>3d</fix>
</trkpt>
<trkpt lat="33.8102362" lon="-118.3938671">
  <ele>-15.134</ele>
  <time>2026-09-02T22:13:12Z</time>
  <course>184.76</course>
  <speed>0.4801041553663121</speed>
  <fix>3d</fix>
</trkpt>
<trkpt lat="33.8102367" lon="-118.3938669">
  <ele>-14.76</ele>
  <time>2026-09-02T22:13:12Z</time>
  <course>180.24</course>
  <speed>0.5</speed>
  <fix>3d</fix>
</trkpt>
<trkpt lat="33.8102358" lon="-118.3938671">
  <ele>-15.132</ele>
  <time>2026-09-02T22:13:12Z</time>
  <course>184.76</course>
  <speed>0.4801041553663121</speed>
  <fix>3d</fix>
</trkpt>
<trkpt lat="33.8102367" lon="-118.3938669">
  <ele>-14.76</ele>
  <time>2026-09-02T22:13:12Z</time>
  <course>180.24</course>
  <speed>0.5</speed>
  <fix>3d</fix>
</trkpt>
<trkpt lat="33.8102353" lon="-118.3938671">
  <ele>-15.13</ele>
  <time>2026-09-02T22:13:12Z</time>
  <course>184.76</course>
  <speed>0.4801041553663121</speed>
  <fix>3d</fix>
</trkpt>
<trkpt lat="33.8102357" lon="-118.3938669">
  <ele>-14.76</ele>
  <time>2026-09-02T22:13:12Z</time>
  <course>180.23</course>
  <speed>0.5</speed>
  <fix>3d</fix>
</trkpt>
<trkpt lat="33.8102349" lon="-118.3938671">
  <ele>-15.129</ele>
  <time>2026-09-02T22:13:12Z</time>
  <course>184.76</course>
  <speed>0.4801041553663121</speed>
  <fix>3d</fix>
</trkpt>
<trkpt lat="33.8102357" lon="-118.3938669">
  <ele>-14.76</ele>
  <time>2026-09-02T22:13:12Z</time>
  <course>180.23</course>
  <speed>0.5</speed>
  <fix>3d</fix>
</trkpt>
<trkpt lat="33.8102344" lon="-118.3938671">
  <ele>-15.128</ele>
  <time>2026-09-02T22:13:12Z</time>
  <course>184.76</course>
  <speed>0.4801041553663121</speed>
  <fix>3d</fix>
</trkpt>
<trkpt lat="33.8102348" lon="-118.3938669">
  <ele>-14.75</ele>
  <time>2026-09-02T22:13:12Z</time>
  <course>180.27</course>
  <speed>0.5</speed>
  <fix>3d</fix>
</trkpt>
<trkpt lat="33.810234" lon="-118.3938671">
  <ele>-15.127</ele>
  <time>2026-09-02T22:13:12Z</time>
  <course>184.76</course>
  <speed>0.4801041553663121</speed>
  <fix>3d</fix>
</trkpt>
<trkpt lat="33.8102348" lon="-118.3938669">
  <ele>-14.75</ele>
  <time>2026-09-02T22:13:12Z</time>
  <course>180.27</course>
  <speed>0.5</speed>
  <fix>3d</fix>
</trkpt>
<trkpt lat="33.8102335" lon="-118.3938671">
  <ele>-15.128</ele>
  <time>2026-09-02T22:13:12Z</time>
  <course>184.76</course>
  <speed>0.4801041553663121</speed>
  <fix>3d</fix>
</trkpt>
<trkpt lat="33.8102339" lon="-118.3938669">
  <ele>-14.75</ele>
  <time>2026-09-02T22:13:12Z</time>
  <course>180.32</course>
  <speed>0.5</speed>
  <fix>3d</fix>
</trkpt>
<trkpt lat="33.8102331" lon="-118.3938671">
  <ele>-15.127</ele>
  <time>2026-09-02T22:13:12Z</time>
  <course>184.76</course>
  <speed>0.4801041553663121</speed>
  <fix>3d</fix>
</trkpt>
<trkpt lat="33.8102339" lon="-118.3938669">
  <ele>-14.75</ele>
  <time>2026-09-02T22:13:12Z</time>
  <course>180.32</course>
  <speed>0.5</speed>
  <fix>3d</fix>
</trkpt>
<trkpt lat="33.8102326" lon="-118.3938671">
  <ele>-15.127</ele>
  <time>2026-09-02T22:13:12Z</time>
  <course>184.76</course>
  <speed>0.4801041553663121</speed>
  <fix>3d</fix>
</trkpt>
<trkpt lat="33.810233" lon="-118.3938669">
  <ele>-14.75</ele>
  <time>2026-09-02T22:13:12Z</time>
  <course>180.34</course>
  <speed>0.5</speed>
  <fix>3d</fix>
</trkpt>
<trkpt lat="33.8102321" lon="-118.3938671">
  <ele>-15.126</ele>
  <time>2026-09-02T22:13:12Z</time>
  <course>184.76</course>
  <speed>0.47010637094172636</speed>
  <fix>3d</fix>
</trkpt>
<trkpt lat="33.810233" lon="-118.3938669">
  <ele>-14.75</ele>
  <time>2026-09-02T22:13:12Z</time>
  <course>180.34</course>
  <speed>0.5</speed>
  <fix>3d</fix>
</trkpt>
<trkpt lat="33.8102317" lon="-118.3938671">
  <ele>-15.125</ele>
  <time>2026-09-02T22:13:12Z</time>
  <course>184.76</course>
  <speed>0.47010637094172636</speed>
  <fix>3d</fix>
</trkpt>
<trkpt lat="33.8102321" lon="-118.3938669">
  <ele>-14.75</ele>
  <time>2026-09-02T22:13:12Z</time>
  <course>180.35</course>
  <speed>0.5</speed>
  <fix>3d</fix>
</trkpt>
<trkpt lat="33.8102313" lon="-118.3938671">
  <ele>-15.125</ele>
  <time>2026-09-02T22:13:12Z</time>
  <course>184.76</course>
  <speed>0.47010637094172636</speed>
  <fix>3d</fix>
</trkpt>
<trkpt lat="33.8102321" lon="-118.3938669">
  <ele>-14.75</ele>
  <time>2026-09-02T22:13:12Z</time>
  <course>180.35</course>
  <speed>0.5</speed>
  <fix>3d</fix>
</trkpt>
<trkpt lat="33.8102308" lon="-118.3938671">
  <ele>-15.126</ele>
  <time>2026-09-02T22:13:12Z</time>
  <course>184.76</course>
  <speed>0.47010637094172636</speed>
  <fix>3d</fix>
</trkpt>
<trkpt lat="33.8102312" lon="-118.3938669">
  <ele>-14.75</ele>
  <time>2026-09-02T22:13:12Z</time>
  <course>180.37</course>
  <speed>0.5</speed>
  <fix>3d</fix>
</trkpt>
<trkpt lat="33.8102304" lon="-118.3938671">
  <ele>-15.127</ele>
  <time>2026-09-02T22:13:12Z</time>
  <course>184.76</course>
  <speed>0.47010637094172636</speed>
  <fix>3d</fix>
</trkpt>
<trkpt lat="33.8102312" lon="-118.3938669">
  <ele>-14.75</ele>
  <time>2026-09-02T22:13:12Z</time>
  <course>180.37</course>
  <speed>0.5</speed>
  <fix>3d</fix>
</trkpt>
<trkpt lat="33.8102299" lon="-118.3938671">
  <ele>-15.129</ele>
  <time>2026-09-02T22:13:12Z</time>
  <course>184.77</course>
  <speed>0.47010637094172636</speed>
  <fix>3d</fix>
</trkpt>
<trkpt lat="33.8102303" lon="-118.3938669">
  <ele>-14.75</ele>
  <time>2026-09-02T22:13:12Z</time>
  <course>180.39</course>
  <speed>0.5</speed>
  <fix>3d</fix>
</trkpt>
<trkpt lat="33.8102294" lon="-118.3938671">
  <ele>-15.13</ele>
  <time>2026-09-02T22:13:12Z</time>
  <course>184.76</course>
  <speed>0.47010637094172636</speed>
  <fix>3d</fix>
</trkpt>
<trkpt lat="33.8102303" lon="-118.3938669">
  <ele>-14.75</ele>
  <time>2026-09-02T22:13:12Z</time>
  <course>180.39</course>
  <speed>0.5</speed>
  <fix>3d</fix>
</trkpt>
<trkpt lat="33.810229" lon="-118.3938671">
  <ele>-15.13</ele>
  <time>2026-09-02T22:13:12Z</time>
  <course>184.76</course>
  <speed>0.47010637094172636</speed>
  <fix>3d</fix>
</trkpt>
<trkpt lat="33.8102294" lon="-118.3938669">
  <ele>-14.76</ele>
  <time>2026-09-02T22:13:12Z</time>
  <course>180.4</course>
  <speed>0.5</speed>
  <fix>3d</fix>
</trkpt>
<trkpt lat="33.8102285" lon="-118.3938671">
  <ele>-15.13</ele>
  <time>2026-09-02T22:13:12Z</time>
  <course>184.76</course>
  <speed>0.47010637094172636</speed>
  <fix>3d</fix>
</trkpt>
<trkpt lat="33.8102294" lon="-118.3938669">
  <ele>-14.76</ele>
  <time>2026-09-02T22:13:12Z</time>
  <course>180.4</course>
  <speed>0.5</speed>
  <fix>3d</fix>
</trkpt>
<trkpt lat="33.8102281" lon="-118.3938671">
  <ele>-15.131</ele>
  <time>2026-09-02T22:13:12Z</time>
  <course>184.76</course>
  <speed>0.47010637094172636</speed>
  <fix>3d</fix>
</trkpt>
<trkpt lat="33.8102285" lon="-118.3938669">
  <ele>-14.76</ele>
  <time>2026-09-02T22:13:12Z</time>
  <course>180.41</course>
  <speed>0.5</speed>
  <fix>3d</fix>
</trkpt>
<trkpt lat="33.8102276" lon="-118.3938671">
  <ele>-15.132</ele>
  <time>2026-09-02T22:13:12Z</time>
  <course>184.77</course>
  <speed>0.47010637094172636</speed>
  <fix>3d</fix>
</trkpt>
<trkpt lat="33.8102285" lon="-118.3938669">
  <ele>-14.76</ele>
  <time>2026-09-02T22:13:12Z</time>
  <course>180.41</course>
  <speed>0.5</speed>
  <fix>3d</fix>
</trkpt>
<trkpt lat="33.8102272" lon="-118.3938671">
  <ele>-15.131</ele>
  <time>2026-09-02T22:13:12Z</time>
  <course>184.77</course>
  <speed>0.47010637094172636</speed>
  <fix>3d</fix>
</trkpt>
<trkpt lat="33.8102276" lon="-118.3938669">
  <ele>-14.76</ele>
  <time>2026-09-02T22:13:12Z</time>
  <course>180.43</course>
  <speed>0.5</speed>
  <fix>3d</fix>
</trkpt>
<trkpt lat="33.8102267" lon="-118.3938671">
  <ele>-15.13</ele>
  <time>2026-09-02T22:13:12Z</time>
  <course>184.77</course>
  <speed>0.47010637094172636</speed>
  <fix>3d</fix>
</trkpt>
<trkpt lat="33.8102276" lon="-118.3938669">
  <ele>-14.76</ele>
  <time>2026-09-02T22:13:12Z</time>
  <course>180.43</course>
  <speed>0.5</speed>
  <fix>3d</fix>
</trkpt>
<trkpt lat="33.8102263" lon="-118.3938671">
  <ele>-15.129</ele>
  <time>2026-09-02T22:13:12Z</time>
  <course>184.76</course>
  <speed>0.47010637094172636</speed>
  <fix>3d</fix>
</trkpt>
<trkpt lat="33.8102267" lon="-118.3938669">
  <ele>-14.76</ele>
  <time>2026-09-02T22:13:12Z</time>
  <course>180.46</course>
  <speed>0.5</speed>
  <fix>3d</fix>
</trkpt>
<trkpt lat="33.8102258" lon="-118.3938671">
  <ele>-15.128</ele>
  <time>2026-09-02T22:13:12Z</time>
  <course>184.76</course>
  <speed>0.47010637094172636</speed>
  <fix>3d</fix>
</trkpt>
<trkpt lat="33.8102267" lon="-118.3938669">
  <ele>-14.76</ele>
  <time>2026-09-02T22:13:12Z</time>
  <course>180.46</course>
  <speed>0.5</speed>
  <fix>3d</fix>
</trkpt>
<trkpt lat="33.8102254" lon="-118.3938671">
  <ele>-15.128</ele>
  <time>2026-09-02T22:13:12Z</time>
  <course>184.76</course>
  <speed>0.47010637094172636</speed>
  <fix>3d</fix>
</trkpt>
<trkpt lat="33.8102258" lon="-118.3938669">
  <ele>-14.76</ele>
  <time>2026-09-02T22:13:12Z</time>
  <course>180.49</course>
  <speed>0.5</speed>
  <fix>3d</fix>
</trkpt>
<trkpt lat="33.8102249" lon="-118.3938671">
  <ele>-15.126</ele>
  <time>2026-09-02T22:13:12Z</time>
  <course>184.77</course>
  <speed>0.47010637094172636</speed>
  <fix>3d</fix>
</trkpt>
<trkpt lat="33.8102258" lon="-118.3938669">
  <ele>-14.76</ele>
  <time>2026-09-02T22:13:12Z</time>
  <course>180.49</course>
  <speed>0.5</speed>
  <fix>3d</fix>
</trkpt>
<trkpt lat="33.8102245" lon="-118.3938671">
  <ele>-15.125</ele>
  <time>2026-09-02T22:13:12Z</time>
  <course>184.77</course>
  <speed>0.47010637094172636</speed>
  <fix>3d</fix>
</trkpt>
<trkpt lat="33.8102249" lon="-118.3938669">
  <ele>-14.76</ele>
  <time>2026-09-02T22:13:12Z</time>
  <course>180.51</course>
  <speed>0.5</speed>
  <fix>3d</fix>
</trkpt>
<trkpt lat="33.810224" lon="-118.3938671">
  <ele>-15.125</ele>
  <time>2026-09-02T22:13:12Z</time>
  <course>184.77</course>
  <speed>0.47010637094172636</speed>
  <fix>3d</fix>
</trkpt>
<trkpt lat="33.8102249" lon="-118.3938669">
  <ele>-14.76</ele>
  <time>2026-09-02T22:13:12Z</time>
  <course>180.51</course>
  <speed>0.5</speed>
  <fix>3d</fix>
</trkpt>
<trkpt lat="33.8102236" lon="-118.3938671">
  <ele>-15.124</ele>
  <time>2026-09-02T22:13:12Z</time>
  <course>184.77</course>
  <speed>0.47010637094172636</speed>
  <fix>3d</fix>
</trkpt>
<trkpt lat="33.810224" lon="-118.3938669">
  <ele>-14.76</ele>
  <time>2026-09-02T22:13:12Z</time>
  <course>180.52</course>
  <speed>0.5</speed>
  <fix>3d</fix>
</trkpt>
<trkpt lat="33.8102231" lon="-118.3938671">
  <ele>-15.124</ele>
  <time>2026-09-02T22:13:12Z</time>
  <course>184.76</course>
  <speed>0.47010637094172636</speed>
  <fix>3d</fix>
</trkpt>
<trkpt lat="33.810224" lon="-118.3938669">
  <ele>-14.76</ele>
  <time>2026-09-02T22:13:12Z</time>
  <course>180.52</course>
  <speed>0.5</speed>
  <fix>3d</fix>
</trkpt>
<trkpt lat="33.8102227" lon="-118.3938671">
  <ele>-15.125</ele>
  <time>2026-09-02T22:13:12Z</time>
  <course>184.76</course>
  <speed>0.47010637094172636</speed>
  <fix>3d</fix>
</trkpt>
<trkpt lat="33.8102231" lon="-118.3938669">
  <ele>-14.76</ele>
  <time>2026-09-02T22:13:12Z</time>
  <course>180.53</course>
  <speed>0.5</speed>
  <fix>3d</fix>
</trkpt>
<trkpt lat="33.8102222" lon="-118.3938671">
  <ele>-15.128</ele>
  <time>2026-09-02T22:13:12Z</time>
  <course>184.77</course>
  <speed>0.47010637094172636</speed>
  <fix>3d</fix>
</trkpt>
<trkpt lat="33.8102231" lon="-118.3938669">
  <ele>-14.76</ele>
  <time>2026-09-02T22:13:12Z</time>
  <course>180.53</course>
  <speed>0.5</speed>
  <fix>3d</fix>
</trkpt>
<trkpt lat="33.8102218" lon="-118.3938671">
  <ele>-15.131</ele>
  <time>2026-09-02T22:13:12Z</time>
  <course>184.77</course>
  <speed>0.47010637094172636</speed>
  <fix>3d</fix>
</trkpt>
<trkpt lat="33.8102222" lon="-118.3938669">
  <ele>-14.76</ele>
  <time>2026-09-02T22:13:12Z</time>
  <course>180.55</course>
  <speed>0.5</speed>
  <fix>3d</fix>
</trkpt>
<trkpt lat="33.8102213" lon="-118.3938671">
  <ele>-15.134</ele>
  <time>2026-09-02T22:13:12Z</time>
  <course>184.77</course>
  <speed>0.47010637094172636</speed>
  <fix>3d</fix>
</trkpt>
<trkpt lat="33.8102222" lon="-118.3938669">
  <ele>-14.76</ele>
  <time>2026-09-02T22:13:12Z</time>
  <course>180.55</course>
  <speed>0.5</speed>
  <fix>3d</fix>
</trkpt>
<trkpt lat="33.8102209" lon="-118.3938671">
  <ele>-15.135</ele>
  <time>2026-09-02T22:13:12Z</time>
  <course>184.77</course>
  <speed>0.4801041553663121</speed>
  <fix>3d</fix>
</trkpt>
<trkpt lat="33.8102213" lon="-118.393867">
  <ele>-14.77</ele>
  <time>2026-09-02T22:13:12Z</time>
  <course>180.57</course>
  <speed>0.5</speed>
  <fix>3d</fix>
</trkpt>
<trkpt lat="33.8102204" lon="-118.3938671">
  <ele>-15.136</ele>
  <time>2026-09-02T22:13:12Z</time>
  <course>184.77</course>
  <speed>0.47010637094172636</speed>
  <fix>3d</fix>
</trkpt>
<trkpt lat="33.8102213" lon="-118.393867">
  <ele>-14.77</ele>
  <time>2026-09-02T22:13:12Z</time>
  <course>180.57</course>
  <speed>0.5</speed>
  <fix>3d</fix>
</trkpt>
<trkpt lat="33.81022" lon="-118.3938671">
  <ele>-15.136</ele>
  <time>2026-09-02T22:13:12Z</time>
  <course>184.77</course>
  <speed>0.4801041553663121</speed>
  <fix>3d</fix>
</trkpt>
<trkpt lat="33.8102204" lon="-118.393867">
  <ele>-14.77</ele>
  <time>2026-09-02T22:13:12Z</time>
  <course>180.5</course>
  <speed>0.5</speed>
  <fix>3d</fix>
</trkpt>
<trkpt lat="33.8102195" lon="-118.3938671">
  <ele>-15.135</ele>
  <time>2026-09-02T22:13:12Z</time>
  <course>184.77</course>
  <speed>0.4801041553663121</speed>
  <fix>3d</fix>
</trkpt>
<trkpt lat="33.8102204" lon="-118.393867">
  <ele>-14.77</ele>
  <time>2026-09-02T22:13:12Z</time>
  <course>180.5</course>
  <speed>0.5</speed>
  <fix>3d</fix>
</trkpt>
<trkpt lat="33.8102191" lon="-118.3938671">
  <ele>-15.134</ele>
  <time>2026-09-02T22:13:12Z</time>
  <course>184.77</course>
  <speed>0.4801041553663121</speed>
  <fix>3d</fix>
</trkpt>
<trkpt lat="33.8102195" lon="-118.393867">
  <ele>-14.77</ele>
  <time>2026-09-02T22:13:12Z</time>
  <course>180.33</course>
  <speed>0.5</speed>
  <fix>3d</fix>
</trkpt>
<trkpt lat="33.8102186" lon="-118.3938671">
  <ele>-15.131</ele>
  <time>2026-09-02T22:13:12Z</time>
  <course>184.77</course>
  <speed>0.4801041553663121</speed>
  <fix>3d</fix>
</trkpt>
<trkpt lat="33.8102195" lon="-118.393867">
  <ele>-14.77</ele>
  <time>2026-09-02T22:13:12Z</time>
  <course>180.33</course>
  <speed>0.5</speed>
  <fix>3d</fix>
</trkpt>
<trkpt lat="33.8102182" lon="-118.3938671">
  <ele>-15.129</ele>
  <time>2026-09-02T22:13:12Z</time>
  <course>184.77</course>
  <speed>0.4801041553663121</speed>
  <fix>3d</fix>
</trkpt>
<trkpt lat="33.8102186" lon="-118.393867">
  <ele>-14.77</ele>
  <time>2026-09-02T22:13:12Z</time>
  <course>180.15</course>
  <speed>0.5</speed>
  <fix>3d</fix>
</trkpt>
<trkpt lat="33.8102177" lon="-118.3938671">
  <ele>-15.127</ele>
  <time>2026-09-02T22:13:12Z</time>
  <course>184.77</course>
  <speed>0.4801041553663121</speed>
  <fix>3d</fix>
</trkpt>
<trkpt lat="33.8102186" lon="-118.393867">
  <ele>-14.77</ele>
  <time>2026-09-02T22:13:12Z</time>
  <course>180.15</course>
  <speed>0.5</speed>
  <fix>3d</fix>
</trkpt>
<trkpt lat="33.8102173" lon="-118.3938671">
  <ele>-15.126</ele>
  <time>2026-09-02T22:13:12Z</time>
  <course>184.77</course>
  <speed>0.4801041553663121</speed>
  <fix>3d</fix>
</trkpt>
<trkpt lat="33.8102177" lon="-118.393867">
  <ele>-14.76</ele>
  <time>2026-09-02T22:13:12Z</time>
  <course>180.03</course>
  <speed>0.5</speed>
  <fix>3d</fix>
</trkpt>
<trkpt lat="33.8102168" lon="-118.3938671">
  <ele>-15.127</ele>
  <time>2026-09-02T22:13:12Z</time>
  <course>184.76</course>
  <speed>0.4801041553663121</speed>
  <fix>3d</fix>
</trkpt>
<trkpt lat="33.8102177" lon="-118.393867">
  <ele>-14.76</ele>
  <time>2026-09-02T22:13:12Z</time>
  <course>180.03</course>
  <speed>0.5</speed>
  <fix>3d</fix>
</trkpt>
<trkpt lat="33.8102164" lon="-118.3938671">
  <ele>-15.127</ele>
  <time>2026-09-02T22:13:12Z</time>
  <course>184.76</course>
  <speed>0.4801041553663121</speed>
  <fix>3d</fix>
</trkpt>
<trkpt lat="33.8102168" lon="-118.393867">
  <ele>-14.76</ele>
  <time>2026-09-02T22:13:12Z</time>
  <course>179.96</course>
  <speed>0.5</speed>
  <fix>3d</fix>
</trkpt>
<trkpt lat="33.8102159" lon="-118.3938671">
  <ele>-15.127</ele>
  <time>2026-09-02T22:13:12Z</time>
  <course>184.77</course>
  <speed>0.4801041553663121</speed>
  <fix>3d</fix>
</trkpt>
<trkpt lat="33.8102168" lon="-118.393867">
  <ele>-14.76</ele>
  <time>2026-09-02T22:13:12Z</time>
  <course>179.96</course>
  <speed>0.5</speed>
  <fix>3d</fix>
</trkpt>
<trkpt lat="33.8102155" lon="-118.3938671">
  <ele>-15.129</ele>
  <time>2026-09-02T22:13:12Z</time>
  <course>184.77</course>
  <speed>0.4801041553663121</speed>
  <fix>3d</fix>
</trkpt>
<trkpt lat="33.8102159" lon="-118.393867">
  <ele>-14.76</ele>
  <time>2026-09-02T22:13:12Z</time>
  <course>179.89</course>
  <speed>0.5</speed>
  <fix>3d</fix>
</trkpt>
<trkpt lat="33.810215" lon="-118.3938671">
  <ele>-15.13</ele>
  <time>2026-09-02T22:13:12Z</time>
  <course>184.77</course>
  <speed>0.4801041553663121</speed>
  <fix>3d</fix>
</trkpt>
<trkpt lat="33.8102159" lon="-118.393867">
  <ele>-14.76</ele>
  <time>2026-09-02T22:13:12Z</time>
  <course>179.89</course>
  <speed>0.5</speed>
  <fix>3d</fix>
</trkpt>
<trkpt lat="33.8102146" lon="-118.3938671">
  <ele>-15.13</ele>
  <time>2026-09-02T22:13:12Z</time>
  <course>184.77</course>
  <speed>0.4801041553663121</speed>
  <fix>3d</fix>
</trkpt>
<trkpt lat="33.810215" lon="-118.393867">
  <ele>-14.77</ele>
  <time>2026-09-02T22:13:12Z</time>
  <course>179.83</course>
  <speed>0.5</speed>
  <fix>3d</fix>
</trkpt>
<trkpt lat="33.8102141" lon="-118.3938671">
  <ele>-15.131</ele>
  <time>2026-09-02T22:13:12Z</time>
  <course>184.77</course>
  <speed>0.4801041553663121</speed>
  <fix>3d</fix>
</trkpt>
<trkpt lat="33.810215" lon="-118.393867">
  <ele>-14.77</ele>
  <time>2026-09-02T22:13:12Z</time>
  <course>179.83</course>
  <speed>0.5</speed>
  <fix>3d</fix>
</trkpt>
<trkpt lat="33.8102137" lon="-118.3938671">
  <ele>-15.131</ele>
  <time>2026-09-02T22:13:12Z</time>
  <course>184.77</course>
  <speed>0.4801041553663121</speed>
  <fix>3d</fix>
</trkpt>
<trkpt lat="33.810214" lon="-118.393867">
  <ele>-14.77</ele>
  <time>2026-09-02T22:13:12Z</time>
  <course>179.79</course>
  <speed>0.5</speed>
  <fix>3d</fix>
</trkpt>
<trkpt lat="33.8102132" lon="-118.3938671">
  <ele>-15.131</ele>
  <time>2026-09-02T22:13:12Z</time>
  <course>184.77</course>
  <speed>0.47010637094172636</speed>
  <fix>3d</fix>
</trkpt>
<trkpt lat="33.810214" lon="-118.393867">
  <ele>-14.77</ele>
  <time>2026-09-02T22:13:12Z</time>
  <course>179.79</course>
  <speed>0.5</speed>
  <fix>3d</fix>
</trkpt>
<trkpt lat="33.8102128" lon="-118.3938671">
  <ele>-15.13</ele>
  <time>2026-09-02T22:13:12Z</time>
  <course>184.77</course>
  <speed>0.47010637094172636</speed>
  <fix>3d</fix>
</trkpt>
<trkpt lat="33.8102131" lon="-118.393867">
  <ele>-14.77</ele>
  <time>2026-09-02T22:13:12Z</time>
  <course>179.73</course>
  <speed>0.5</speed>
  <fix>3d</fix>
</trkpt>
<trkpt lat="33.8102123" lon="-118.3938671">
  <ele>-15.129</ele>
  <time>2026-09-02T22:13:12Z</time>
  <course>184.77</course>
  <speed>0.47010637094172636</speed>
  <fix>3d</fix>
</trkpt>
<trkpt lat="33.8102131" lon="-118.393867">
  <ele>-14.77</ele>
  <time>2026-09-02T22:13:12Z</time>
  <course>179.73</course>
  <speed>0.5</speed>
  <fix>3d</fix>
</trkpt>
<trkpt lat="33.8102119" lon="-118.3938671">
  <ele>-15.13</ele>
  <time>2026-09-02T22:13:12Z</time>
  <course>184.77</course>
  <speed>0.47010637094172636</speed>
  <fix>3d</fix>
</trkpt>
<trkpt lat="33.8102122" lon="-118.393867">
  <ele>-14.77</ele>
  <time>2026-09-02T22:13:12Z</time>
  <course>179.7</course>
  <speed>0.5</speed>
  <fix>3d</fix>
</trkpt>
<trkpt lat="33.8102114" lon="-118.3938671">
  <ele>-15.132</ele>
  <time>2026-09-02T22:13:12Z</time>
  <course>184.77</course>
  <speed>0.47010637094172636</speed>
  <fix>3d</fix>
</trkpt>
<trkpt lat="33.8102122" lon="-118.393867">
  <ele>-14.77</ele>
  <time>2026-09-02T22:13:12Z</time>
  <course>179.7</course>
  <speed>0.5</speed>
  <fix>3d</fix>
</trkpt>
<trkpt lat="33.810211" lon="-118.3938671">
  <ele>-15.135</ele>
  <time>2026-09-02T22:13:12Z</time>
  <course>184.77</course>
  <speed>0.47010637094172636</speed>
  <fix>3d</fix>
</trkpt>
<trkpt lat="33.8102113" lon="-118.393867">
  <ele>-14.77</ele>
  <time>2026-09-02T22:13:12Z</time>
  <course>179.67</course>
  <speed>0.5</speed>
  <fix>3d</fix>
</trkpt>
<trkpt lat="33.8102105" lon="-118.3938671">
  <ele>-15.136</ele>
  <time>2026-09-02T22:13:12Z</time>
  <course>184.77</course>
  <speed>0.47010637094172636</speed>
  <fix>3d</fix>
</trkpt>
<trkpt lat="33.8102113" lon="-118.393867">
  <ele>-14.77</ele>
  <time>2026-09-02T22:13:12Z</time>
  <course>179.67</course>
  <speed>0.5</speed>
  <fix>3d</fix>
</trkpt>
<trkpt lat="33.8102101" lon="-118.3938671">
  <ele>-15.136</ele>
  <time>2026-09-02T22:13:12Z</time>
  <course>184.77</course>
  <speed>0.47010637094172636</speed>
  <fix>3d</fix>
</trkpt>
<trkpt lat="33.8102104" lon="-118.393867">
  <ele>-14.77</ele>
  <time>2026-09-02T22:13:12Z</time>
  <course>179.62</course>
  <speed>0.5</speed>
  <fix>3d</fix>
</trkpt>
<trkpt lat="33.8102096" lon="-118.3938671">
  <ele>-15.134</ele>
  <time>2026-09-02T22:13:12Z</time>
  <course>184.77</course>
  <speed>0.47010637094172636</speed>
  <fix>3d</fix>
</trkpt>
<trkpt lat="33.8102104" lon="-118.393867">
  <ele>-14.77</ele>
  <time>2026-09-02T22:13:12Z</time>
  <course>179.62</course>
  <speed>0.5</speed>
  <fix>3d</fix>
</trkpt>
<trkpt lat="33.8102092" lon="-118.3938671">
  <ele>-15.132</ele>
  <time>2026-09-02T22:13:12Z</time>
  <course>184.77</course>
  <speed>0.47010637094172636</speed>
  <fix>3d</fix>
</trkpt>
<trkpt lat="33.8102095" lon="-118.393867">
  <ele>-14.76</ele>
  <time>2026-09-02T22:13:12Z</time>
  <course>179.58</course>
  <speed>0.49</speed>
  <fix>3d</fix>
</trkpt>
<trkpt lat="33.8102087" lon="-118.3938671">
  <ele>-15.129</ele>
  <time>2026-09-02T22:13:12Z</time>
  <course>184.77</course>
  <speed>0.47010637094172636</speed>
  <fix>3d</fix>
</trkpt>
<trkpt lat="33.8102095" lon="-118.393867">
  <ele>-14.76</ele>
  <time>2026-09-02T22:13:12Z</time>
  <course>179.58</course>
  <speed>0.49</speed>
  <fix>3d</fix>
</trkpt>
<trkpt lat="33.8102083" lon="-118.3938671">
  <ele>-15.128</ele>
  <time>2026-09-02T22:13:12Z</time>
  <course>184.77</course>
  <speed>0.47010637094172636</speed>
  <fix>3d</fix>
</trkpt>
<trkpt lat="33.8102086" lon="-118.393867">
  <ele>-14.76</ele>
  <time>2026-09-02T22:13:12Z</time>
  <course>179.55</course>
  <speed>0.49</speed>
  <fix>3d</fix>
</trkpt>
<trkpt lat="33.8102078" lon="-118.3938671">
  <ele>-15.127</ele>
  <time>2026-09-02T22:13:12Z</time>
  <course>184.77</course>
  <speed>0.47010637094172636</speed>
  <fix>3d</fix>
</trkpt>
<trkpt lat="33.8102086" lon="-118.393867">
  <ele>-14.76</ele>
  <time>2026-09-02T22:13:12Z</time>
  <course>179.55</course>
  <speed>0.49</speed>
  <fix>3d</fix>
</trkpt>
<trkpt lat="33.8102074" lon="-118.3938671">
  <ele>-15.126</ele>
  <time>2026-09-02T22:13:12Z</time>
  <course>184.77</course>
  <speed>0.47010637094172636</speed>
  <fix>3d</fix>
</trkpt>
<trkpt lat="33.8102077" lon="-118.393867">
  <ele>-14.76</ele>
  <time>2026-09-02T22:13:12Z</time>
  <course>179.52</course>
  <speed>0.49</speed>
  <fix>3d</fix>
</trkpt>
<trkpt lat="33.8102069" lon="-118.3938671">
  <ele>-15.127</ele>
  <time>2026-09-02T22:13:12Z</time>
  <course>184.77</course>
  <speed>0.47010637094172636</speed>
  <fix>3d</fix>
</trkpt>
<trkpt lat="33.8102077" lon="-118.393867">
  <ele>-14.76</ele>
  <time>2026-09-02T22:13:12Z</time>
  <course>179.52</course>
  <speed>0.49</speed>
  <fix>3d</fix>
</trkpt>
<trkpt lat="33.8102065" lon="-118.3938671">
  <ele>-15.129</ele>
  <time>2026-09-02T22:13:12Z</time>
  <course>184.77</course>
  <speed>0.47010637094172636</speed>
  <fix>3d</fix>
</trkpt>
<trkpt lat="33.8102069" lon="-118.393867">
  <ele>-14.76</ele>
  <time>2026-09-02T22:13:12Z</time>
  <course>179.5</course>
  <speed>0.49</speed>
  <fix>3d</fix>
</trkpt>
<trkpt lat="33.810206" lon="-118.3938671">
  <ele>-15.131</ele>
  <time>2026-09-02T22:13:12Z</time>
  <course>184.77</course>
  <speed>0.47010637094172636</speed>
  <fix>3d</fix>
</trkpt>
<trkpt lat="33.8102069" lon="-118.393867">
  <ele>-14.76</ele>
  <time>2026-09-02T22:13:12Z</time>
  <course>179.5</course>
  <speed>0.49</speed>
  <fix>3d</fix>
</trkpt>
<trkpt lat="33.8102056" lon="-118.3938671">
  <ele>-15.131</ele>
  <time>2026-09-02T22:13:12Z</time>
  <course>184.77</course>
  <speed>0.47010637094172636</speed>
  <fix>3d</fix>
</trkpt>
<trkpt lat="33.810206" lon="-118.393867">
  <ele>-14.76</ele>
  <time>2026-09-02T22:13:12Z</time>
  <course>179.47</course>
  <speed>0.49</speed>
  <fix>3d</fix>
</trkpt>
<trkpt lat="33.8102051" lon="-118.3938671">
  <ele>-15.131</ele>
  <time>2026-09-02T22:13:12Z</time>
  <course>184.77</course>
  <speed>0.47010637094172636</speed>
  <fix>3d</fix>
</trkpt>
<trkpt lat="33.810206" lon="-118.393867">
  <ele>-14.76</ele>
  <time>2026-09-02T22:13:12Z</time>
  <course>179.47</course>
  <speed>0.49</speed>
  <fix>3d</fix>
</trkpt>
<trkpt lat="33.8102047" lon="-118.3938671">
  <ele>-15.131</ele>
  <time>2026-09-02T22:13:12Z</time>
  <course>184.77</course>
  <speed>0.47010637094172636</speed>
  <fix>3d</fix>
</trkpt>
<trkpt lat="33.8102051" lon="-118.393867">
  <ele>-14.76</ele>
  <time>2026-09-02T22:13:12Z</time>
  <course>179.44</course>
  <speed>0.49</speed>
  <fix>3d</fix>
</trkpt>
<trkpt lat="33.8102042" lon="-118.3938671">
  <ele>-15.132</ele>
  <time>2026-09-02T22:13:12Z</time>
  <course>184.77</course>
  <speed>0.47010637094172636</speed>
  <fix>3d</fix>
</trkpt>
<trkpt lat="33.8102051" lon="-118.393867">
  <ele>-14.76</ele>
  <time>2026-09-02T22:13:12Z</time>
  <course>179.44</course>
  <speed>0.49</speed>
  <fix>3d</fix>
</trkpt>
<trkpt lat="33.8102038" lon="-118.3938671">
  <ele>-15.132</ele>
  <time>2026-09-02T22:13:12Z</time>
  <course>184.77</course>
  <speed>0.47010637094172636</speed>
  <fix>3d</fix>
</trkpt>
<trkpt lat="33.8102042" lon="-118.393867">
  <ele>-14.76</ele>
  <time>2026-09-02T22:13:12Z</time>
  <course>179.42</course>
  <speed>0.5</speed>
  <fix>3d</fix>
</trkpt>
<trkpt lat="33.8102033" lon="-118.3938671">
  <ele>-15.131</ele>
  <time>2026-09-02T22:13:12Z</time>
  <course>184.77</course>
  <speed>0.47010637094172636</speed>
  <fix>3d</fix>
</trkpt>
<trkpt lat="33.8102042" lon="-118.393867">
  <ele>-14.76</ele>
  <time>2026-09-02T22:13:12Z</time>
  <course>179.42</course>
  <speed>0.5</speed>
  <fix>3d</fix>
</trkpt>
<trkpt lat="33.8102029" lon="-118.3938671">
  <ele>-15.129</ele>
  <time>2026-09-02T22:13:12Z</time>
  <course>184.77</course>
  <speed>0.47010637094172636</speed>
  <fix>3d</fix>
</trkpt>
<trkpt lat="33.8102033" lon="-118.393867">
  <ele>-14.76</ele>
  <time>2026-09-02T22:13:12Z</time>
  <course>179.36</course>
  <speed>0.5</speed>
  <fix>3d</fix>
</trkpt>
<trkpt lat="33.8102024" lon="-118.3938671">
  <ele>-15.128</ele>
  <time>2026-09-02T22:13:12Z</time>
  <course>184.77</course>
  <speed>0.47010637094172636</speed>
  <fix>3d</fix>
</trkpt>
<trkpt lat="33.8102033" lon="-118.393867">
  <ele>-14.76</ele>
  <time>2026-09-02T22:13:12Z</time>
  <course>179.36</course>
  <speed>0.5</speed>
  <fix>3d</fix>
</trkpt>
<trkpt lat="33.810202" lon="-118.3938671">
  <ele>-15.126</ele>
  <time>2026-09-02T22:13:12Z</time>
  <course>184.77</course>
  <speed>0.4801041553663121</speed>
  <fix>3d</fix>
</trkpt>
<trkpt lat="33.8102024" lon="-118.393867">
  <ele>-14.75</ele>
  <time>2026-09-02T22:13:12Z</time>
  <course>179.3</course>
  <speed>0.5</speed>
  <fix>3d</fix>
</trkpt>
<trkpt lat="33.8102015" lon="-118.3938671">
  <ele>-15.126</ele>
  <time>2026-09-02T22:13:12Z</time>
  <course>184.77</course>
  <speed>0.47010637094172636</speed>
  <fix>3d</fix>
</trkpt>
<trkpt lat="33.8102024" lon="-118.393867">
  <ele>-14.75</ele>
  <time>2026-09-02T22:13:12Z</time>
  <course>179.3</course>
  <speed>0.5</speed>
  <fix>3d</fix>
</trkpt>
<trkpt lat="33.8102011" lon="-118.3938671">
  <ele>-15.125</ele>
  <time>2026-09-02T22:13:12Z</time>
  <course>184.77</course>
  <speed>0.4801041553663121</speed>
  <fix>3d</fix>
</trkpt>
<trkpt lat="33.8102015" lon="-118.3938669">
  <ele>-14.75</ele>
  <time>2026-09-02T22:13:12Z</time>
  <course>179.28</course>
  <speed>0.5</speed>
  <fix>3d</fix>
</trkpt>
<trkpt lat="33.8102006" lon="-118.3938671">
  <ele>-15.124</ele>
  <time>2026-09-02T22:13:12Z</time>
  <course>184.77</course>
  <speed>0.4801041553663121</speed>
  <fix>3d</fix>
</trkpt>
<trkpt lat="33.8102015" lon="-118.3938669">
  <ele>-14.75</ele>
  <time>2026-09-02T22:13:12Z</time>
  <course>179.28</course>
  <speed>0.5</speed>
  <fix>3d</fix>
</trkpt>
<trkpt lat="33.8102002" lon="-118.3938671">
  <ele>-15.125</ele>
  <time>2026-09-02T22:13:12Z</time>
  <course>184.77</course>
  <speed>0.4801041553663121</speed>
  <fix>3d</fix>
</trkpt>
<trkpt lat="33.8102005" lon="-118.3938669">
  <ele>-14.75</ele>
  <time>2026-09-02T22:13:12Z</time>
  <course>179.35</course>
  <speed>0.5</speed>
  <fix>3d</fix>
</trkpt>
<trkpt lat="33.8101997" lon="-118.3938671">
  <ele>-15.128</ele>
  <time>2026-09-02T22:13:12Z</time>
  <course>184.77</course>
  <speed>0.47010637094172636</speed>
  <fix>3d</fix>
</trkpt>
<trkpt lat="33.8102005" lon="-118.3938669">
  <ele>-14.75</ele>
  <time>2026-09-02T22:13:12Z</time>
  <course>179.35</course>
  <speed>0.5</speed>
  <fix>3d</fix>
</trkpt>
<trkpt lat="33.8101993" lon="-118.3938671">
  <ele>-15.131</ele>
  <time>2026-09-02T22:13:12Z</time>
  <course>184.77</course>
  <speed>0.47010637094172636</speed>
  <fix>3d</fix>
</trkpt>
<trkpt lat="33.8101996" lon="-118.3938669">
  <ele>-14.76</ele>
  <time>2026-09-02T22:13:12Z</time>
  <course>179.51</course>
  <speed>0.5</speed>
  <fix>3d</fix>
</trkpt>
<trkpt lat="33.8101988" lon="-118.3938671">
  <ele>-15.132</ele>
  <time>2026-09-02T22:13:12Z</time>
  <course>184.77</course>
  <speed>0.47010637094172636</speed>
  <fix>3d</fix>
</trkpt>
<trkpt lat="33.8101996" lon="-118.3938669">
  <ele>-14.76</ele>
  <time>2026-09-02T22:13:12Z</time>
  <course>179.51</course>
  <speed>0.5</speed>
  <fix>3d</fix>
</trkpt>
<trkpt lat="33.8101984" lon="-118.3938671">
  <ele>-15.132</ele>
  <time>2026-09-02T22:13:12Z</time>
  <course>184.77</course>
  <speed>0.47010637094172636</speed>
  <fix>3d</fix>
</trkpt>
<trkpt lat="33.8101987" lon="-118.3938669">
  <ele>-14.76</ele>
  <time>2026-09-02T22:13:12Z</time>
  <course>179.67</course>
  <speed>0.5</speed>
  <fix>3d</fix>
</trkpt>
<trkpt lat="33.8101979" lon="-118.3938671">
  <ele>-15.133</ele>
  <time>2026-09-02T22:13:12Z</time>
  <course>184.77</course>
  <speed>0.47010637094172636</speed>
  <fix>3d</fix>
</trkpt>
<trkpt lat="33.8101987" lon="-118.3938669">
  <ele>-14.76</ele>
  <time>2026-09-02T22:13:12Z</time>
  <course>179.67</course>
  <speed>0.5</speed>
  <fix>3d</fix>
</trkpt>
<trkpt lat="33.8101975" lon="-118.3938671">
  <ele>-15.132</ele>
  <time>2026-09-02T22:13:12Z</time>
  <course>184.77</course>
  <speed>0.47010637094172636</speed>
  <fix>3d</fix>
</trkpt>
<trkpt lat="33.8101978" lon="-118.3938669">
  <ele>-14.76</ele>
  <time>2026-09-02T22:13:12Z</time>
  <course>179.79</course>
  <speed>0.5</speed>
  <fix>3d</fix>
</trkpt>
<trkpt lat="33.810197" lon="-118.3938671">
  <ele>-15.13</ele>
  <time>2026-09-02T22:13:12Z</time>
  <course>184.77</course>
  <speed>0.47010637094172636</speed>
  <fix>3d</fix>
</trkpt>
<trkpt lat="33.8101978" lon="-118.3938669">
  <ele>-14.76</ele>
  <time>2026-09-02T22:13:12Z</time>
  <course>179.79</course>
  <speed>0.5</speed>
  <fix>3d</fix>
</trkpt>
<trkpt lat="33.8101966" lon="-118.3938671">
  <ele>-15.128</ele>
  <time>2026-09-02T22:13:12Z</time>
  <course>184.77</course>
  <speed>0.47010637094172636</speed>
  <fix>3d</fix>
</trkpt>
<trkpt lat="33.8101969" lon="-118.3938669">
  <ele>-14.76</ele>
  <time>2026-09-02T22:13:12Z</time>
  <course>179.88</course>
  <speed>0.49</speed>
  <fix>3d</fix>
</trkpt>
<trkpt lat="33.8101961" lon="-118.3938671">
  <ele>-15.127</ele>
  <time>2026-09-02T22:13:12Z</time>
  <course>184.77</course>
  <speed>0.47010637094172636</speed>
  <fix>3d</fix>
</trkpt>
<trkpt lat="33.8101969" lon="-118.3938669">
  <ele>-14.76</ele>
  <time>2026-09-02T22:13:12Z</time>
  <course>179.88</course>
  <speed>0.49</speed>
  <fix>3d</fix>
</trkpt>
<trkpt lat="33.8101957" lon="-118.3938671">
  <ele>-15.126</ele>
  <time>2026-09-02T22:13:12Z</time>
  <course>184.77</course>
  <speed>0.47010637094172636</speed>
  <fix>3d</fix>
</trkpt>
<trkpt lat="33.810196" lon="-118.3938669">
  <ele>-14.76</ele>
  <time>2026-09-02T22:13:12Z</time>
  <course>179.92</course>
  <speed>0.49</speed>
  <fix>3d</fix>
</trkpt>
<trkpt lat="33.8101952" lon="-118.3938671">
  <ele>-15.126</ele>
  <time>2026-09-02T22:13:12Z</time>
  <course>184.77</course>
  <speed>0.47010637094172636</speed>
  <fix>3d</fix>
</trkpt>
<trkpt lat="33.810196" lon="-118.3938669">
  <ele>-14.76</ele>
  <time>2026-09-02T22:13:12Z</time>
  <course>179.92</course>
  <speed>0.49</speed>
  <fix>3d</fix>
</trkpt>
<trkpt lat="33.8101948" lon="-118.3938671">
  <ele>-15.127</ele>
  <time>2026-09-02T22:13:12Z</time>
  <course>184.77</course>
  <speed>0.47010637094172636</speed>
  <fix>3d</fix>
</trkpt>
<trkpt lat="33.8101951" lon="-118.3938669">
  <ele>-14.76</ele>
  <time>2026-09-02T22:13:12Z</time>
  <course>179.95</course>
  <speed>0.49</speed>
  <fix>3d</fix>
</trkpt>
<trkpt lat="33.8101943" lon="-118.3938671">
  <ele>-15.129</ele>
  <time>2026-09-02T22:13:12Z</time>
  <course>184.77</course>
  <speed>0.47010637094172636</speed>
  <fix>3d</fix>
</trkpt>
<trkpt lat="33.8101951" lon="-118.3938669">
  <ele>-14.76</ele>
  <time>2026-09-02T22:13:12Z</time>
  <course>179.95</course>
  <speed>0.49</speed>
  <fix>3d</fix>
</trkpt>
<trkpt lat="33.8101939" lon="-118.3938671">
  <ele>-15.131</ele>
  <time>2026-09-02T22:13:12Z</time>
  <course>184.77</course>
  <speed>0.47010637094172636</speed>
  <fix>3d</fix>
</trkpt>
<trkpt lat="33.8101942" lon="-118.3938669">
  <ele>-14.76</ele>
  <time>2026-09-02T22:13:12Z</time>
  <course>179.96</course>
  <speed>0.49</speed>
  <fix>3d</fix>
</trkpt>
<trkpt lat="33.8101934" lon="-118.3938671">
  <ele>-15.133</ele>
  <time>2026-09-02T22:13:12Z</time>
  <course>184.77</course>
  <speed>0.47010637094172636</speed>
  <fix>3d</fix>
</trkpt>
<trkpt lat="33.8101942" lon="-118.3938669">
  <ele>-14.76</ele>
  <time>2026-09-02T22:13:12Z</time>
  <course>179.96</course>
  <speed>0.49</speed>
  <fix>3d</fix>
</trkpt>
<trkpt lat="33.810193" lon="-118.3938671">
  <ele>-15.134</ele>
  <time>2026-09-02T22:13:12Z</time>
  <course>184.77</course>
  <speed>0.47010637094172636</speed>
  <fix>3d</fix>
</trkpt>
<trkpt lat="33.8101934" lon="-118.3938669">
  <ele>-14.76</ele>
  <time>2026-09-02T22:13:12Z</time>
  <course>179.96</course>
  <speed>0.49</speed>
  <fix>3d</fix>
</trkpt>
<trkpt lat="33.8101925" lon="-118.3938671">
  <ele>-15.133</ele>
  <time>2026-09-02T22:13:12Z</time>
  <course>184.77</course>
  <speed>0.47010637094172636</speed>
  <fix>3d</fix>
</trkpt>
<trkpt lat="33.8101934" lon="-118.3938669">
  <ele>-14.76</ele>
  <time>2026-09-02T22:13:12Z</time>
  <course>179.96</course>
  <speed>0.49</speed>
  <fix>3d</fix>
</trkpt>
<trkpt lat="33.8101921" lon="-118.3938671">
  <ele>-15.132</ele>
  <time>2026-09-02T22:13:12Z</time>
  <course>184.77</course>
  <speed>0.47010637094172636</speed>
  <fix>3d</fix>
</trkpt>
<trkpt lat="33.8101925" lon="-118.3938669">
  <ele>-14.76</ele>
  <time>2026-09-02T22:13:12Z</time>
  <course>179.96</course>
  <speed>0.49</speed>
  <fix>3d</fix>
</trkpt>
<trkpt lat="33.8101916" lon="-118.3938671">
  <ele>-15.131</ele>
  <time>2026-09-02T22:13:12Z</time>
  <course>184.77</course>
  <speed>0.47010637094172636</speed>
  <fix>3d</fix>
</trkpt>
<trkpt lat="33.8101925" lon="-118.3938669">
  <ele>-14.76</ele>
  <time>2026-09-02T22:13:12Z</time>
  <course>179.96</course>
  <speed>0.49</speed>
  <fix>3d</fix>
</trkpt>
<trkpt lat="33.8101912" lon="-118.3938671">
  <ele>-15.129</ele>
  <time>2026-09-02T22:13:12Z</time>
  <course>184.77</course>
  <speed>0.47010637094172636</speed>
  <fix>3d</fix>
</trkpt>
<trkpt lat="33.8101916" lon="-118.3938669">
  <ele>-14.76</ele>
  <time>2026-09-02T22:13:12Z</time>
  <course>179.98</course>
  <speed>0.49</speed>
  <fix>3d</fix>
</trkpt>
<trkpt lat="33.8101907" lon="-118.3938671">
  <ele>-15.127</ele>
  <time>2026-09-02T22:13:12Z</time>
  <course>184.77</course>
  <speed>0.47010637094172636</speed>
  <fix>3d</fix>
</trkpt>
<trkpt lat="33.8101916" lon="-118.3938669">
  <ele>-14.76</ele>
  <time>2026-09-02T22:13:12Z</time>
  <course>179.98</course>
  <speed>0.49</speed>
  <fix>3d</fix>
</trkpt>
<trkpt lat="33.8101903" lon="-118.3938671">
  <ele>-15.125</ele>
  <time>2026-09-02T22:13:12Z</time>
  <course>184.77</course>
  <speed>0.47010637094172636</speed>
  <fix>3d</fix>
</trkpt>
<trkpt lat="33.8101907" lon="-118.3938669">
  <ele>-14.75</ele>
  <time>2026-09-02T22:13:12Z</time>
  <course>180.02</course>
  <speed>0.5</speed>
  <fix>3d</fix>
</trkpt>
<trkpt lat="33.8101898" lon="-118.3938671">
  <ele>-15.125</ele>
  <time>2026-09-02T22:13:12Z</time>
  <course>184.77</course>
  <speed>0.47010637094172636</speed>
  <fix>3d</fix>
</trkpt>
<trkpt lat="33.8101907" lon="-118.3938669">
  <ele>-14.75</ele>
  <time>2026-09-02T22:13:12Z</time>
  <course>180.02</course>
  <speed>0.5</speed>
  <fix>3d</fix>
</trkpt>
<trkpt lat="33.8101894" lon="-118.3938671">
  <ele>-15.124</ele>
  <time>2026-09-02T22:13:12Z</time>
  <course>184.77</course>
  <speed>0.47010637094172636</speed>
  <fix>3d</fix>
</trkpt>
<trkpt lat="33.8101898" lon="-118.3938669">
  <ele>-14.75</ele>
  <time>2026-09-02T22:13:12Z</time>
  <course>180.02</course>
  <speed>0.5</speed>
  <fix>3d</fix>
</trkpt>
<trkpt lat="33.8101889" lon="-118.3938671">
  <ele>-15.125</ele>
  <time>2026-09-02T22:13:12Z</time>
  <course>184.77</course>
  <speed>0.47010637094172636</speed>
  <fix>3d</fix>
</trkpt>
<trkpt lat="33.8101898" lon="-118.3938669">
  <ele>-14.75</ele>
  <time>2026-09-02T22:13:12Z</time>
  <course>180.02</course>
  <speed>0.5</speed>
  <fix>3d</fix>
</trkpt>
<trkpt lat="33.8101885" lon="-118.3938671">
  <ele>-15.126</ele>
  <time>2026-09-02T22:13:12Z</time>
  <course>184.77</course>
  <speed>0.47010637094172636</speed>
  <fix>3d</fix>
</trkpt>
<trkpt lat="33.8101889" lon="-118.3938669">
  <ele>-14.75</ele>
  <time>2026-09-02T22:13:12Z</time>
  <course>180.01</course>
  <speed>0.5</speed>
  <fix>3d</fix>
</trkpt>
<trkpt lat="33.810188" lon="-118.3938671">
  <ele>-15.127</ele>
  <time>2026-09-02T22:13:12Z</time>
  <course>184.77</course>
  <speed>0.47010637094172636</speed>
  <fix>3d</fix>
</trkpt>
<trkpt lat="33.8101889" lon="-118.3938669">
  <ele>-14.75</ele>
  <time>2026-09-02T22:13:12Z</time>
  <course>180.01</course>
  <speed>0.5</speed>
  <fix>3d</fix>
</trkpt>
<trkpt lat="33.8101876" lon="-118.3938671">
  <ele>-15.13</ele>
  <time>2026-09-02T22:13:12Z</time>
  <course>184.77</course>
  <speed>0.47010637094172636</speed>
  <fix>3d</fix>
</trkpt>
<trkpt lat="33.810188" lon="-118.3938669">
  <ele>-14.76</ele>
  <time>2026-09-02T22:13:12Z</time>
  <course>180.02</course>
  <speed>0.5</speed>
  <fix>3d</fix>
</trkpt>
<trkpt lat="33.8101871" lon="-118.3938671">
  <ele>-15.132</ele>
  <time>2026-09-02T22:13:12Z</time>
  <course>184.77</course>
  <speed>0.47010637094172636</speed>
  <fix>3d</fix>
</trkpt>
<trkpt lat="33.810188" lon="-118.3938669">
  <ele>-14.76</ele>
  <time>2026-09-02T22:13:12Z</time>
  <course>180.02</course>
  <speed>0.5</speed>
  <fix>3d</fix>
</trkpt>
<trkpt lat="33.8101867" lon="-118.3938671">
  <ele>-15.133</ele>
  <time>2026-09-02T22:13:12Z</time>
  <course>184.77</course>
  <speed>0.47010637094172636</speed>
  <fix>3d</fix>
</trkpt>
<trkpt lat="33.8101871" lon="-118.3938669">
  <ele>-14.76</ele>
  <time>2026-09-02T22:13:12Z</time>
  <course>180.04</course>
  <speed>0.5</speed>
  <fix>3d</fix>
</trkpt>
<trkpt lat="33.8101862" lon="-118.3938671">
  <ele>-15.133</ele>
  <time>2026-09-02T22:13:12Z</time>
  <course>184.77</course>
  <speed>0.47010637094172636</speed>
  <fix>3d</fix>
</trkpt>
<trkpt lat="33.8101871" lon="-118.3938669">
  <ele>-14.76</ele>
  <time>2026-09-02T22:13:12Z</time>
  <course>180.04</course>
  <speed>0.5</speed>
  <fix>3d</fix>
</trkpt>
<trkpt lat="33.8101858" lon="-118.3938671">
  <ele>-15.133</ele>
  <time>2026-09-02T22:13:12Z</time>
  <course>184.77</course>
  <speed>0.47010637094172636</speed>
  <fix>3d</fix>
</trkpt>
<trkpt lat="33.8101862" lon="-118.3938669">
  <ele>-14.76</ele>
  <time>2026-09-02T22:13:12Z</time>
  <course>180.07</course>
  <speed>0.5</speed>
  <fix>3d</fix>
</trkpt>
<trkpt lat="33.8101853" lon="-118.3938671">
  <ele>-15.131</ele>
  <time>2026-09-02T22:13:12Z</time>
  <course>184.77</course>
  <speed>0.47010637094172636</speed>
  <fix>3d</fix>
</trkpt>
<trkpt lat="33.8101862" lon="-118.3938669">
  <ele>-14.76</ele>
  <time>2026-09-02T22:13:12Z</time>
  <course>180.07</course>
  <speed>0.5</speed>
  <fix>3d</fix>
</trkpt>
<trkpt lat="33.8101849" lon="-118.3938671">
  <ele>-15.131</ele>
  <time>2026-09-02T22:13:12Z</time>
  <course>184.77</course>
  <speed>0.47010637094172636</speed>
  <fix>3d</fix>
</trkpt>
<trkpt lat="33.8101853" lon="-118.3938669">
  <ele>-14.76</ele>
  <time>2026-09-02T22:13:12Z</time>
  <course>180.09</course>
  <speed>0.5</speed>
  <fix>3d</fix>
</trkpt>
<trkpt lat="33.8101844" lon="-118.3938671">
  <ele>-15.13</ele>
  <time>2026-09-02T22:13:12Z</time>
  <course>184.77</course>
  <speed>0.47010637094172636</speed>
  <fix>3d</fix>
</trkpt>
<trkpt lat="33.8101853" lon="-118.3938669">
  <ele>-14.76</ele>
  <time>2026-09-02T22:13:12Z</time>
  <course>180.09</course>
  <speed>0.5</speed>
  <fix>3d</fix>
</trkpt>
<trkpt lat="33.810184" lon="-118.3938671">
  <ele>-15.129</ele>
  <time>2026-09-02T22:13:12Z</time>
  <course>184.77</course>
  <speed>0.47010637094172636</speed>
  <fix>3d</fix>
</trkpt>
<trkpt lat="33.8101843" lon="-118.3938669">
  <ele>-14.76</ele>
  <time>2026-09-02T22:13:12Z</time>
  <course>180.11</course>
  <speed>0.5</speed>
  <fix>3d</fix>
</trkpt>
<trkpt lat="33.8101835" lon="-118.3938671">
  <ele>-15.129</ele>
  <time>2026-09-02T22:13:12Z</time>
  <course>184.77</course>
  <speed>0.47010637094172636</speed>
  <fix>3d</fix>
</trkpt>
<trkpt lat="33.8101843" lon="-118.3938669">
  <ele>-14.76</ele>
  <time>2026-09-02T22:13:12Z</time>
  <course>180.11</course>
  <speed>0.5</speed>
  <fix>3d</fix>
</trkpt>
<trkpt lat="33.8101831" lon="-118.3938671">
  <ele>-15.128</ele>
  <time>2026-09-02T22:13:12Z</time>
  <course>184.77</course>
  <speed>0.47010637094172636</speed>
  <fix>3d</fix>
</trkpt>
<trkpt lat="33.8101834" lon="-118.3938669">
  <ele>-14.76</ele>
  <time>2026-09-02T22:13:12Z</time>
  <course>180.14</course>
  <speed>0.5</speed>
  <fix>3d</fix>
</trkpt>
<trkpt lat="33.8101826" lon="-118.3938671">
  <ele>-15.128</ele>
  <time>2026-09-02T22:13:12Z</time>
  <course>184.77</course>
  <speed>0.47010637094172636</speed>
  <fix>3d</fix>
</trkpt>
<trkpt lat="33.8101834" lon="-118.3938669">
  <ele>-14.76</ele>
  <time>2026-09-02T22:13:12Z</time>
  <course>180.14</course>
  <speed>0.5</speed>
  <fix>3d</fix>
</trkpt>
<trkpt lat="33.8101822" lon="-118.3938671">
  <ele>-15.129</ele>
  <time>2026-09-02T22:13:12Z</time>
  <course>184.77</course>
  <speed>0.47010637094172636</speed>
  <fix>3d</fix>
</trkpt>
<trkpt lat="33.8101825" lon="-118.3938669">
  <ele>-14.76</ele>
  <time>2026-09-02T22:13:12Z</time>
  <course>180.16</course>
  <speed>0.5</speed>
  <fix>3d</fix>
</trkpt>
<trkpt lat="33.8101817" lon="-118.3938671">
  <ele>-15.13</ele>
  <time>2026-09-02T22:13:12Z</time>
  <course>184.77</course>
  <speed>0.47010637094172636</speed>
  <fix>3d</fix>
</trkpt>
<trkpt lat="33.8101825" lon="-118.3938669">
  <ele>-14.76</ele>
  <time>2026-09-02T22:13:12Z</time>
  <course>180.16</course>
  <speed>0.5</speed>
  <fix>3d</fix>
</trkpt>
<trkpt lat="33.8101813" lon="-118.3938671">
  <ele>-15.131</ele>
  <time>2026-09-02T22:13:12Z</time>
  <course>184.77</course>
  <speed>0.47010637094172636</speed>
  <fix>3d</fix>
</trkpt>
<trkpt lat="33.8101816" lon="-118.3938669">
  <ele>-14.76</ele>
  <time>2026-09-02T22:13:12Z</time>
  <course>180.16</course>
  <speed>0.49</speed>
  <fix>3d</fix>
</trkpt>
<trkpt lat="33.8101808" lon="-118.3938671">
  <ele>-15.13</ele>
  <time>2026-09-02T22:13:12Z</time>
  <course>184.77</course>
  <speed>0.47010637094172636</speed>
  <fix>3d</fix>
</trkpt>
<trkpt lat="33.8101816" lon="-118.3938669">
  <ele>-14.76</ele>
  <time>2026-09-02T22:13:12Z</time>
  <course>180.16</course>
  <speed>0.49</speed>
  <fix>3d</fix>
</trkpt>
<trkpt lat="33.8101804" lon="-118.3938671">
  <ele>-15.129</ele>
  <time>2026-09-02T22:13:12Z</time>
  <course>184.77</course>
  <speed>0.47010637094172636</speed>
  <fix>3d</fix>
</trkpt>
<trkpt lat="33.8101808" lon="-118.3938669">
  <ele>-14.76</ele>
  <time>2026-09-02T22:13:12Z</time>
  <course>180.17</course>
  <speed>0.49</speed>
  <fix>3d</fix>
</trkpt>
<trkpt lat="33.8101799" lon="-118.3938671">
  <ele>-15.128</ele>
  <time>2026-09-02T22:13:12Z</time>
  <course>184.77</course>
  <speed>0.47010637094172636</speed>
  <fix>3d</fix>
</trkpt>
<trkpt lat="33.8101808" lon="-118.3938669">
  <ele>-14.76</ele>
  <time>2026-09-02T22:13:12Z</time>
  <course>180.17</course>
  <speed>0.49</speed>
  <fix>3d</fix>
</trkpt>
<trkpt lat="33.8101795" lon="-118.3938671">
  <ele>-15.127</ele>
  <time>2026-09-02T22:13:12Z</time>
  <course>184.77</course>
  <speed>0.47010637094172636</speed>
  <fix>3d</fix>
</trkpt>
<trkpt lat="33.8101799" lon="-118.3938669">
  <ele>-14.76</ele>
  <time>2026-09-02T22:13:12Z</time>
  <course>180.19</course>
  <speed>0.49</speed>
  <fix>3d</fix>
</trkpt>
<trkpt lat="33.810179" lon="-118.3938671">
  <ele>-15.127</ele>
  <time>2026-09-02T22:13:12Z</time>
  <course>184.77</course>
  <speed>0.47010637094172636</speed>
  <fix>3d</fix>
</trkpt>
<trkpt lat="33.8101799" lon="-118.3938669">
  <ele>-14.76</ele>
  <time>2026-09-02T22:13:12Z</time>
  <course>180.19</course>
  <speed>0.49</speed>
  <fix>3d</fix>
</trkpt>
<trkpt lat="33.8101786" lon="-118.3938671">
  <ele>-15.128</ele>
  <time>2026-09-02T22:13:12Z</time>
  <course>184.77</course>
  <speed>0.47010637094172636</speed>
  <fix>3d</fix>
</trkpt>
<trkpt lat="33.810179" lon="-118.3938669">
  <ele>-14.76</ele>
  <time>2026-09-02T22:13:12Z</time>
  <course>180.21</course>
  <speed>0.49</speed>
  <fix>3d</fix>
</trkpt>
<trkpt lat="33.8101781" lon="-118.3938671">
  <ele>-15.128</ele>
  <time>2026-09-02T22:13:12Z</time>
  <course>184.77</course>
  <speed>0.47010637094172636</speed>
  <fix>3d</fix>
</trkpt>
<trkpt lat="33.810179" lon="-118.3938669">
  <ele>-14.76</ele>
  <time>2026-09-02T22:13:12Z</time>
  <course>180.21</course>
  <speed>0.49</speed>
  <fix>3d</fix>
</trkpt>
<trkpt lat="33.8101777" lon="-118.3938671">
  <ele>-15.127</ele>
  <time>2026-09-02T22:13:12Z</time>
  <course>184.77</course>
  <speed>0.47010637094172636</speed>
  <fix>3d</fix>
</trkpt>
<trkpt lat="33.8101781" lon="-118.3938669">
  <ele>-14.76</ele>
  <time>2026-09-02T22:13:12Z</time>
  <course>180.24</course>
  <speed>0.49</speed>
  <fix>3d</fix>
</trkpt>
<trkpt lat="33.8101772" lon="-118.3938671">
  <ele>-15.126</ele>
  <time>2026-09-02T22:13:12Z</time>
  <course>184.78</course>
  <speed>0.47010637094172636</speed>
  <fix>3d</fix>
</trkpt>
<trkpt lat="33.8101781" lon="-118.3938669">
  <ele>-14.76</ele>
  <time>2026-09-02T22:13:12Z</time>
  <course>180.24</course>
  <speed>0.49</speed>
  <fix>3d</fix>
</trkpt>
<trkpt lat="33.8101768" lon="-118.3938671">
  <ele>-15.126</ele>
  <time>2026-09-02T22:13:12Z</time>
  <course>184.77</course>
  <speed>0.47010637094172636</speed>
  <fix>3d</fix>
</trkpt>
<trkpt lat="33.8101772" lon="-118.3938669">
  <ele>-14.76</ele>
  <time>2026-09-02T22:13:12Z</time>
  <course>180.25</course>
  <speed>0.49</speed>
  <fix>3d</fix>
</trkpt>
<trkpt lat="33.8101763" lon="-118.3938671">
  <ele>-15.127</ele>
  <time>2026-09-02T22:13:12Z</time>
  <course>184.77</course>
  <speed>0.47010637094172636</speed>
  <fix>3d</fix>
</trkpt>
<trkpt lat="33.8101772" lon="-118.3938669">
  <ele>-14.76</ele>
  <time>2026-09-02T22:13:12Z</time>
  <course>180.25</course>
  <speed>0.49</speed>
  <fix>3d</fix>
</trkpt>
<trkpt lat="33.8101759" lon="-118.3938671">
  <ele>-15.128</ele>
  <time>2026-09-02T22:13:12Z</time>
  <course>184.77</course>
  <speed>0.47010637094172636</speed>
  <fix>3d</fix>
</trkpt>
<trkpt lat="33.8101763" lon="-118.3938669">
  <ele>-14.76</ele>
  <time>2026-09-02T22:13:12Z</time>
  <course>180.25</course>
  <speed>0.5</speed>
  <fix>3d</fix>
</trkpt>
<trkpt lat="33.8101754" lon="-118.3938671">
  <ele>-15.129</ele>
  <time>2026-09-02T22:13:12Z</time>
  <course>184.77</course>
  <speed>0.47010637094172636</speed>
  <fix>3d</fix>
</trkpt>
<trkpt lat="33.8101763" lon="-118.3938669">
  <ele>-14.76</ele>
  <time>2026-09-02T22:13:12Z</time>
  <course>180.25</course>
  <speed>0.5</speed>
  <fix>3d</fix>
</trkpt>
<trkpt lat="33.810175" lon="-118.3938671">
  <ele>-15.131</ele>
  <time>2026-09-02T22:13:12Z</time>
  <course>184.77</course>
  <speed>0.47010637094172636</speed>
  <fix>3d</fix>
</trkpt>
<trkpt lat="33.8101754" lon="-118.3938669">
  <ele>-14.76</ele>
  <time>2026-09-02T22:13:12Z</time>
  <course>180.25</course>
  <speed>0.5</speed>
  <fix>3d</fix>
</trkpt>
<trkpt lat="33.8101745" lon="-118.3938671">
  <ele>-15.132</ele>
  <time>2026-09-02T22:13:12Z</time>
  <course>184.77</course>
  <speed>0.47010637094172636</speed>
  <fix>3d</fix>
</trkpt>
<trkpt lat="33.8101754" lon="-118.3938669">
  <ele>-14.76</ele>
  <time>2026-09-02T22:13:12Z</time>
  <course>180.25</course>
  <speed>0.5</speed>
  <fix>3d</fix>
</trkpt>
<trkpt lat="33.8101741" lon="-118.3938671">
  <ele>-15.133</ele>
  <time>2026-09-02T22:13:12Z</time>
  <course>184.77</course>
  <speed>0.47010637094172636</speed>
  <fix>3d</fix>
</trkpt>
<trkpt lat="33.8101745" lon="-118.3938669">
  <ele>-14.77</ele>
  <time>2026-09-02T22:13:12Z</time>
  <course>180.25</course>
  <speed>0.5</speed>
  <fix>3d</fix>
</trkpt>
<trkpt lat="33.8101736" lon="-118.3938671">
  <ele>-15.133</ele>
  <time>2026-09-02T22:13:12Z</time>
  <course>184.77</course>
  <speed>0.47010637094172636</speed>
  <fix>3d</fix>
</trkpt>
<trkpt lat="33.8101745" lon="-118.3938669">
  <ele>-14.77</ele>
  <time>2026-09-02T22:13:12Z</time>
  <course>180.25</course>
  <speed>0.5</speed>
  <fix>3d</fix>
</trkpt>
<trkpt lat="33.8101732" lon="-118.3938671">
  <ele>-15.133</ele>
  <time>2026-09-02T22:13:12Z</time>
  <course>184.77</course>
  <speed>0.47010637094172636</speed>
  <fix>3d</fix>
</trkpt>
<trkpt lat="33.8101736" lon="-118.3938669">
  <ele>-14.77</ele>
  <time>2026-09-02T22:13:12Z</time>
  <course>180.25</course>
  <speed>0.5</speed>
  <fix>3d</fix>
</trkpt>
<trkpt lat="33.8101727" lon="-118.3938671">
  <ele>-15.133</ele>
  <time>2026-09-02T22:13:12Z</time>
  <course>184.77</course>
  <speed>0.47010637094172636</speed>
  <fix>3d</fix>
</trkpt>
<trkpt lat="33.8101736" lon="-118.3938669">
  <ele>-14.77</ele>
  <time>2026-09-02T22:13:12Z</time>
  <course>180.25</course>
  <speed>0.5</speed>
  <fix>3d</fix>
</trkpt>
<trkpt lat="33.8101723" lon="-118.3938671">
  <ele>-15.133</ele>
  <time>2026-09-02T22:13:12Z</time>
  <course>184.77</course>
  <speed>0.47010637094172636</speed>
  <fix>3d</fix>
</trkpt>
<trkpt lat="33.8101727" lon="-118.3938669">
  <ele>-14.77</ele>
  <time>2026-09-02T22:13:12Z</time>
  <course>180.25</course>
  <speed>0.5</speed>
  <fix>3d</fix>
</trkpt>
<trkpt lat="33.8101718" lon="-118.3938671">
  <ele>-15.132</ele>
  <time>2026-09-02T22:13:12Z</time>
  <course>184.78</course>
  <speed>0.47010637094172636</speed>
  <fix>3d</fix>
</trkpt>
<trkpt lat="33.8101727" lon="-118.3938669">
  <ele>-14.77</ele>
  <time>2026-09-02T22:13:12Z</time>
  <course>180.25</course>
  <speed>0.5</speed>
  <fix>3d</fix>
</trkpt>
<trkpt lat="33.8101714" lon="-118.3938671">
  <ele>-15.131</ele>
  <time>2026-09-02T22:13:12Z</time>
  <course>184.77</course>
  <speed>0.47010637094172636</speed>
  <fix>3d</fix>
</trkpt>
<trkpt lat="33.8101718" lon="-118.3938669">
  <ele>-14.77</ele>
  <time>2026-09-02T22:13:12Z</time>
  <course>180.26</course>
  <speed>0.5</speed>
  <fix>3d</fix>
</trkpt>
<trkpt lat="33.8101709" lon="-118.3938671">
  <ele>-15.129</ele>
  <time>2026-09-02T22:13:12Z</time>
  <course>184.78</course>
  <speed>0.47010637094172636</speed>
  <fix>3d</fix>
</trkpt>
<trkpt lat="33.8101718" lon="-118.3938669">
  <ele>-14.77</ele>
  <time>2026-09-02T22:13:12Z</time>
  <course>180.26</course>
  <speed>0.5</speed>
  <fix>3d</fix>
</trkpt>
<trkpt lat="33.8101705" lon="-118.3938671">
  <ele>-15.127</ele>
  <time>2026-09-02T22:13:12Z</time>
  <course>184.77</course>
  <speed>0.47010637094172636</speed>
  <fix>3d</fix>
</trkpt>
<trkpt lat="33.8101709" lon="-118.3938669">
  <ele>-14.76</ele>
  <time>2026-09-02T22:13:12Z</time>
  <course>180.27</course>
  <speed>0.5</speed>
  <fix>3d</fix>
</trkpt>
<trkpt lat="33.81017" lon="-118.3938671">
  <ele>-15.126</ele>
  <time>2026-09-02T22:13:12Z</time>
  <course>184.77</course>
  <speed>0.47010637094172636</speed>
  <fix>3d</fix>
</trkpt>
<trkpt lat="33.8101709" lon="-118.3938669">
  <ele>-14.76</ele>
  <time>2026-09-02T22:13:12Z</time>
  <course>180.27</course>
  <speed>0.5</speed>
  <fix>3d</fix>
</trkpt>
<trkpt lat="33.8101696" lon="-118.3938671">
  <ele>-15.125</ele>
  <time>2026-09-02T22:13:12Z</time>
  <course>184.77</course>
  <speed>0.47010637094172636</speed>
  <fix>3d</fix>
</trkpt>
<trkpt lat="33.81017" lon="-118.3938669">
  <ele>-14.76</ele>
  <time>2026-09-02T22:13:12Z</time>
  <course>180.28</course>
  <speed>0.5</speed>
  <fix>3d</fix>
</trkpt>
<trkpt lat="33.8101691" lon="-118.3938671">
  <ele>-15.126</ele>
  <time>2026-09-02T22:13:12Z</time>
  <course>184.77</course>
  <speed>0.47010637094172636</speed>
  <fix>3d</fix>
</trkpt>
<trkpt lat="33.81017" lon="-118.3938669">
  <ele>-14.76</ele>
  <time>2026-09-02T22:13:12Z</time>
  <course>180.28</course>
  <speed>0.5</speed>
  <fix>3d</fix>
</trkpt>
<trkpt lat="33.8101687" lon="-118.3938671">
  <ele>-15.126</ele>
  <time>2026-09-02T22:13:12Z</time>
  <course>184.77</course>
  <speed>0.47010637094172636</speed>
  <fix>3d</fix>
</trkpt>
<trkpt lat="33.8101691" lon="-118.3938669">
  <ele>-14.76</ele>
  <time>2026-09-02T22:13:12Z</time>
  <course>180.29</course>
  <speed>0.5</speed>
  <fix>3d</fix>
</trkpt>
<trkpt lat="33.8101682" lon="-118.3938671">
  <ele>-15.128</ele>
  <time>2026-09-02T22:13:12Z</time>
  <course>184.77</course>
  <speed>0.47010637094172636</speed>
  <fix>3d</fix>
</trkpt>
<trkpt lat="33.8101691" lon="-118.3938669">
  <ele>-14.76</ele>
  <time>2026-09-02T22:13:12Z</time>
  <course>180.29</course>
  <speed>0.5</speed>
  <fix>3d</fix>
</trkpt>
<trkpt lat="33.8101678" lon="-118.3938671">
  <ele>-15.13</ele>
  <time>2026-09-02T22:13:12Z</time>
  <course>184.77</course>
  <speed>0.47010637094172636</speed>
  <fix>3d</fix>
</trkpt>
<trkpt lat="33.8101682" lon="-118.3938669">
  <ele>-14.77</ele>
  <time>2026-09-02T22:13:12Z</time>
  <course>180.3</course>
  <speed>0.5</speed>
  <fix>3d</fix>
</trkpt>
<trkpt lat="33.8101673" lon="-118.3938671">
  <ele>-15.132</ele>
  <time>2026-09-02T22:13:12Z</time>
  <course>184.77</course>
  <speed>0.47010637094172636</speed>
  <fix>3d</fix>
</trkpt>
<trkpt lat="33.8101682" lon="-118.3938669">
  <ele>-14.77</ele>
  <time>2026-09-02T22:13:12Z</time>
  <course>180.3</course>
  <speed>0.5</speed>
  <fix>3d</fix>
</trkpt>
<trkpt lat="33.8101669" lon="-118.3938671">
  <ele>-15.133</ele>
  <time>2026-09-02T22:13:12Z</time>
  <course>184.77</course>
  <speed>0.47010637094172636</speed>
  <fix>3d</fix>
</trkpt>
<trkpt lat="33.8101673" lon="-118.3938669">
  <ele>-14.77</ele>
  <time>2026-09-02T22:13:12Z</time>
  <course>180.3</course>
  <speed>0.49</speed>
  <fix>3d</fix>
</trkpt>
<trkpt lat="33.8101664" lon="-118.3938671">
  <ele>-15.133</ele>
  <time>2026-09-02T22:13:12Z</time>
  <course>184.77</course>
  <speed>0.47010637094172636</speed>
  <fix>3d</fix>
</trkpt>
<trkpt lat="33.8101673" lon="-118.3938669">
  <ele>-14.77</ele>
  <time>2026-09-02T22:13:12Z</time>
  <course>180.3</course>
  <speed>0.49</speed>
  <fix>3d</fix>
</trkpt>
<trkpt lat="33.810166" lon="-118.3938671">
  <ele>-15.134</ele>
  <time>2026-09-02T22:13:12Z</time>
  <course>184.78</course>
  <speed>0.47010637094172636</speed>
  <fix>3d</fix>
</trkpt>
<trkpt lat="33.8101664" lon="-118.3938669">
  <ele>-14.77</ele>
  <time>2026-09-02T22:13:12Z</time>
  <course>180.31</course>
  <speed>0.49</speed>
  <fix>3d</fix>
</trkpt>
<trkpt lat="33.8101656" lon="-118.3938671">
  <ele>-15.135</ele>
  <time>2026-09-02T22:13:12Z</time>
  <course>184.78</course>
  <speed>0.47010637094172636</speed>
  <fix>3d</fix>
</trkpt>
<trkpt lat="33.8101664" lon="-118.3938669">
  <ele>-14.77</ele>
  <time>2026-09-02T22:13:12Z</time>
  <course>180.31</course>
  <speed>0.49</speed>
  <fix>3d</fix>
</trkpt>
<trkpt lat="33.8101651" lon="-118.3938671">
  <ele>-15.135</ele>
  <time>2026-09-02T22:13:12Z</time>
  <course>184.77</course>
  <speed>0.47010637094172636</speed>
  <fix>3d</fix>
</trkpt>
<trkpt lat="33.8101655" lon="-118.3938669">
  <ele>-14.77</ele>
  <time>2026-09-02T22:13:12Z</time>
  <course>180.31</course>
  <speed>0.49</speed>
  <fix>3d</fix>
</trkpt>
<trkpt lat="33.8101647" lon="-118.3938671">
  <ele>-15.136</ele>
  <time>2026-09-02T22:13:12Z</time>
  <course>184.77</course>
  <speed>0.47010637094172636</speed>
  <fix>3d</fix>
</trkpt>
<trkpt lat="33.8101655" lon="-118.3938669">
  <ele>-14.77</ele>
  <time>2026-09-02T22:13:12Z</time>
  <course>180.31</course>
  <speed>0.49</speed>
  <fix>3d</fix>
</trkpt>
<trkpt lat="33.8101642" lon="-118.3938671">
  <ele>-15.136</ele>
  <time>2026-09-02T22:13:12Z</time>
  <course>184.77</course>
  <speed>0.47010637094172636</speed>
  <fix>3d</fix>
</trkpt>
<trkpt lat="33.8101646" lon="-118.3938669">
  <ele>-14.77</ele>
  <time>2026-09-02T22:13:12Z</time>
  <course>180.31</course>
  <speed>0.49</speed>
  <fix>3d</fix>
</trkpt>
<trkpt lat="33.8101637" lon="-118.3938671">
  <ele>-15.134</ele>
  <time>2026-09-02T22:13:12Z</time>
  <course>184.77</course>
  <speed>0.47010637094172636</speed>
  <fix>3d</fix>
</trkpt>
<trkpt lat="33.8101646" lon="-118.3938669">
  <ele>-14.77</ele>
  <time>2026-09-02T22:13:12Z</time>
  <course>180.31</course>
  <speed>0.49</speed>
  <fix>3d</fix>
</trkpt>
<trkpt lat="33.8101633" lon="-118.3938671">
  <ele>-15.132</ele>
  <time>2026-09-02T22:13:12Z</time>
  <course>184.77</course>
  <speed>0.47010637094172636</speed>
  <fix>3d</fix>
</trkpt>
<trkpt lat="33.8101637" lon="-118.3938669">
  <ele>-14.76</ele>
  <time>2026-09-02T22:13:12Z</time>
  <course>180.33</course>
  <speed>0.49</speed>
  <fix>3d</fix>
</trkpt>
<trkpt lat="33.8101628" lon="-118.3938671">
  <ele>-15.129</ele>
  <time>2026-09-02T22:13:12Z</time>
  <course>184.77</course>
  <speed>0.47010637094172636</speed>
  <fix>3d</fix>
</trkpt>
<trkpt lat="33.8101637" lon="-118.3938669">
  <ele>-14.76</ele>
  <time>2026-09-02T22:13:12Z</time>
  <course>180.33</course>
  <speed>0.49</speed>
  <fix>3d</fix>
</trkpt>
<trkpt lat="33.8101624" lon="-118.3938671">
  <ele>-15.126</ele>
  <time>2026-09-02T22:13:12Z</time>
  <course>184.78</course>
  <speed>0.47010637094172636</speed>
  <fix>3d</fix>
</trkpt>
<trkpt lat="33.8101628" lon="-118.3938669">
  <ele>-14.76</ele>
  <time>2026-09-02T22:13:12Z</time>
  <course>180.34</course>
  <speed>0.49</speed>
  <fix>3d</fix>
</trkpt>
<trkpt lat="33.8101619" lon="-118.3938671">
  <ele>-15.123</ele>
  <time>2026-09-02T22:13:12Z</time>
  <course>184.77</course>
  <speed>0.47010637094172636</speed>
  <fix>3d</fix>
</trkpt>
<trkpt lat="33.8101628" lon="-118.3938669">
  <ele>-14.76</ele>
  <time>2026-09-02T22:13:12Z</time>
  <course>180.34</course>
  <speed>0.49</speed>
  <fix>3d</fix>
</trkpt>
<trkpt lat="33.8101615" lon="-118.3938671">
  <ele>-15.122</ele>
  <time>2026-09-02T22:13:12Z</time>
  <course>184.77</course>
  <speed>0.47010637094172636</speed>
  <fix>3d</fix>
</trkpt>
<trkpt lat="33.8101619" lon="-118.3938669">
  <ele>-14.76</ele>
  <time>2026-09-02T22:13:12Z</time>
  <course>180.35</course>
  <speed>0.49</speed>
  <fix>3d</fix>
</trkpt>
<trkpt lat="33.810161" lon="-118.3938671">
  <ele>-15.124</ele>
  <time>2026-09-02T22:13:12Z</time>
  <course>184.77</course>
  <speed>0.47010637094172636</speed>
  <fix>3d</fix>
</trkpt>
<trkpt lat="33.8101619" lon="-118.3938669">
  <ele>-14.76</ele>
  <time>2026-09-02T22:13:12Z</time>
  <course>180.35</course>
  <speed>0.49</speed>
  <fix>3d</fix>
</trkpt>
<trkpt lat="33.8101606" lon="-118.3938671">
  <ele>-15.125</ele>
  <time>2026-09-02T22:13:12Z</time>
  <course>184.77</course>
  <speed>0.47010637094172636</speed>
  <fix>3d</fix>
</trkpt>
<trkpt lat="33.810161" lon="-118.3938669">
  <ele>-14.76</ele>
  <time>2026-09-02T22:13:12Z</time>
  <course>180.37</course>
  <speed>0.49</speed>
  <fix>3d</fix>
</trkpt>
<trkpt lat="33.8101601" lon="-118.3938671">
  <ele>-15.127</ele>
  <time>2026-09-02T22:13:12Z</time>
  <course>184.77</course>
  <speed>0.47010637094172636</speed>
  <fix>3d</fix>
</trkpt>
<trkpt lat="33.810161" lon="-118.3938669">
  <ele>-14.76</ele>
  <time>2026-09-02T22:13:12Z</time>
  <course>180.37</course>
  <speed>0.49</speed>
  <fix>3d</fix>
</trkpt>
<trkpt lat="33.8101597" lon="-118.3938671">
  <ele>-15.127</ele>
  <time>2026-09-02T22:13:12Z</time>
  <course>184.77</course>
  <speed>0.47010637094172636</speed>
  <fix>3d</fix>
</trkpt>
<trkpt lat="33.8101601" lon="-118.3938669">
  <ele>-14.76</ele>
  <time>2026-09-02T22:13:12Z</time>
  <course>180.37</course>
  <speed>0.49</speed>
  <fix>3d</fix>
</trkpt>
<trkpt lat="33.8101592" lon="-118.3938671">
  <ele>-15.127</ele>
  <time>2026-09-02T22:13:12Z</time>
  <course>184.77</course>
  <speed>0.47010637094172636</speed>
  <fix>3d</fix>
</trkpt>
<trkpt lat="33.8101601" lon="-118.3938669">
  <ele>-14.76</ele>
  <time>2026-09-02T22:13:12Z</time>
  <course>180.37</course>
  <speed>0.49</speed>
  <fix>3d</fix>
</trkpt>
<trkpt lat="33.8101588" lon="-118.3938671">
  <ele>-15.127</ele>
  <time>2026-09-02T22:13:12Z</time>
  <course>184.77</course>
  <speed>0.47010637094172636</speed>
  <fix>3d</fix>
</trkpt>
<trkpt lat="33.8101592" lon="-118.3938669">
  <ele>-14.76</ele>
  <time>2026-09-02T22:13:12Z</time>
  <course>180.36</course>
  <speed>0.49</speed>
  <fix>3d</fix>
</trkpt>
<trkpt lat="33.8101583" lon="-118.3938671">
  <ele>-15.128</ele>
  <time>2026-09-02T22:13:12Z</time>
  <course>184.77</course>
  <speed>0.47010637094172636</speed>
  <fix>3d</fix>
</trkpt>
<trkpt lat="33.8101592" lon="-118.3938669">
  <ele>-14.76</ele>
  <time>2026-09-02T22:13:12Z</time>
  <course>180.36</course>
  <speed>0.49</speed>
  <fix>3d</fix>
</trkpt>
<trkpt lat="33.8101579" lon="-118.3938671">
  <ele>-15.128</ele>
  <time>2026-09-02T22:13:12Z</time>
  <course>184.77</course>
  <speed>0.47010637094172636</speed>
  <fix>3d</fix>
</trkpt>
<trkpt lat="33.8101583" lon="-118.3938669">
  <ele>-14.77</ele>
  <time>2026-09-02T22:13:12Z</time>
  <course>180.36</course>
  <speed>0.49</speed>
  <fix>3d</fix>
</trkpt>
<trkpt lat="33.8101574" lon="-118.3938671">
  <ele>-15.129</ele>
  <time>2026-09-02T22:13:12Z</time>
  <course>184.78</course>
  <speed>0.47010637094172636</speed>
  <fix>3d</fix>
</trkpt>
<trkpt lat="33.8101583" lon="-118.3938669">
  <ele>-14.77</ele>
  <time>2026-09-02T22:13:12Z</time>
  <course>180.36</course>
  <speed>0.49</speed>
  <fix>3d</fix>
</trkpt>
<trkpt lat="33.810157" lon="-118.3938671">
  <ele>-15.129</ele>
  <time>2026-09-02T22:13:12Z</time>
  <course>184.77</course>
  <speed>0.47010637094172636</speed>
  <fix>3d</fix>
</trkpt>
<trkpt lat="33.8101574" lon="-118.393867">
  <ele>-14.77</ele>
  <time>2026-09-02T22:13:12Z</time>
  <course>180.35</course>
  <speed>0.49</speed>
  <fix>3d</fix>
</trkpt>
<trkpt lat="33.8101566" lon="-118.3938671">
  <ele>-15.13</ele>
  <time>2026-09-02T22:13:12Z</time>
  <course>184.78</course>
  <speed>0.47010637094172636</speed>
  <fix>3d</fix>
</trkpt>
<trkpt lat="33.8101574" lon="-118.393867">
  <ele>-14.77</ele>
  <time>2026-09-02T22:13:12Z</time>
  <course>180.35</course>
  <speed>0.49</speed>
  <fix>3d</fix>
</trkpt>
<trkpt lat="33.8101561" lon="-118.3938671">
  <ele>-15.131</ele>
  <time>2026-09-02T22:13:12Z</time>
  <course>184.78</course>
  <speed>0.47010637094172636</speed>
  <fix>3d</fix>
</trkpt>
<trkpt lat="33.8101565" lon="-118.393867">
  <ele>-14.77</ele>
  <time>2026-09-02T22:13:12Z</time>
  <course>180.27</course>
  <speed>0.49</speed>
  <fix>3d</fix>
</trkpt>
<trkpt lat="33.8101557" lon="-118.3938671">
  <ele>-15.131</ele>
  <time>2026-09-02T22:13:12Z</time>
  <course>184.77</course>
  <speed>0.47010637094172636</speed>
  <fix>3d</fix>
</trkpt>
<trkpt lat="33.8101565" lon="-118.393867">
  <ele>-14.77</ele>
  <time>2026-09-02T22:13:12Z</time>
  <course>180.27</course>
  <speed>0.49</speed>
  <fix>3d</fix>
</trkpt>
<trkpt lat="33.8101552" lon="-118.3938671">
  <ele>-15.132</ele>
  <time>2026-09-02T22:13:12Z</time>
  <course>184.77</course>
  <speed>0.47010637094172636</speed>
  <fix>3d</fix>
</trkpt>
<trkpt lat="33.8101556" lon="-118.393867">
  <ele>-14.77</ele>
  <time>2026-09-02T22:13:12Z</time>
  <course>180.09</course>
  <speed>0.49</speed>
  <fix>3d</fix>
</trkpt>
<trkpt lat="33.8101548" lon="-118.3938671">
  <ele>-15.133</ele>
  <time>2026-09-02T22:13:12Z</time>
  <course>184.77</course>
  <speed>0.47010637094172636</speed>
  <fix>3d</fix>
</trkpt>
<trkpt lat="33.8101556" lon="-118.393867">
  <ele>-14.77</ele>
  <time>2026-09-02T22:13:12Z</time>
  <course>180.09</course>
  <speed>0.49</speed>
  <fix>3d</fix>
</trkpt>
<trkpt lat="33.8101543" lon="-118.3938671">
  <ele>-15.133</ele>
  <time>2026-09-02T22:13:12Z</time>
  <course>184.77</course>
  <speed>0.47010637094172636</speed>
  <fix>3d</fix>
</trkpt>
<trkpt lat="33.8101547" lon="-118.393867">
  <ele>-14.77</ele>
  <time>2026-09-02T22:13:12Z</time>
  <course>179.89</course>
  <speed>0.49</speed>
  <fix>3d</fix>
</trkpt>
<trkpt lat="33.8101539" lon="-118.3938671">
  <ele>-15.132</ele>
  <time>2026-09-02T22:13:12Z</time>
  <course>184.77</course>
  <speed>0.47010637094172636</speed>
  <fix>3d</fix>
</trkpt>
<trkpt lat="33.8101547" lon="-118.393867">
  <ele>-14.77</ele>
  <time>2026-09-02T22:13:12Z</time>
  <course>179.89</course>
  <speed>0.49</speed>
  <fix>3d</fix>
</trkpt>
<trkpt lat="33.8101534" lon="-118.3938671">
  <ele>-15.132</ele>
  <time>2026-09-02T22:13:12Z</time>
  <course>184.77</course>
  <speed>0.47010637094172636</speed>
  <fix>3d</fix>
</trkpt>
<trkpt lat="33.8101538" lon="-118.393867">
  <ele>-14.77</ele>
  <time>2026-09-02T22:13:12Z</time>
  <course>179.74</course>
  <speed>0.5</speed>
  <fix>3d</fix>
</trkpt>
<trkpt lat="33.810153" lon="-118.3938671">
  <ele>-15.131</ele>
  <time>2026-09-02T22:13:12Z</time>
  <course>184.77</course>
  <speed>0.47010637094172636</speed>
  <fix>3d</fix>
</trkpt>
<trkpt lat="33.8101538" lon="-118.393867">
  <ele>-14.77</ele>
  <time>2026-09-02T22:13:12Z</time>
  <course>179.74</course>
  <speed>0.5</speed>
  <fix>3d</fix>
</trkpt>
<trkpt lat="33.8101525" lon="-118.3938671">
  <ele>-15.131</ele>
  <time>2026-09-02T22:13:12Z</time>
  <course>184.78</course>
  <speed>0.47010637094172636</speed>
  <fix>3d</fix>
</trkpt>
<trkpt lat="33.8101529" lon="-118.393867">
  <ele>-14.77</ele>
  <time>2026-09-02T22:13:12Z</time>
  <course>179.62</course>
  <speed>0.5</speed>
  <fix>3d</fix>
</trkpt>
<trkpt lat="33.8101521" lon="-118.3938671">
  <ele>-15.133</ele>
  <time>2026-09-02T22:13:12Z</time>
  <course>184.78</course>
  <speed>0.47010637094172636</speed>
  <fix>3d</fix>
</trkpt>
<trkpt lat="33.8101529" lon="-118.393867">
  <ele>-14.77</ele>
  <time>2026-09-02T22:13:12Z</time>
  <course>179.62</course>
  <speed>0.5</speed>
  <fix>3d</fix>
</trkpt>
<trkpt lat="33.8101516" lon="-118.3938671">
  <ele>-15.134</ele>
  <time>2026-09-02T22:13:12Z</time>
  <course>184.77</course>
  <speed>0.47010637094172636</speed>
  <fix>3d</fix>
</trkpt>
<trkpt lat="33.810152" lon="-118.393867">
  <ele>-14.77</ele>
  <time>2026-09-02T22:13:12Z</time>
  <course>179.53</course>
  <speed>0.5</speed>
  <fix>3d</fix>
</trkpt>
<trkpt lat="33.8101512" lon="-118.3938671">
  <ele>-15.135</ele>
  <time>2026-09-02T22:13:12Z</time>
  <course>184.77</course>
  <speed>0.47010637094172636</speed>
  <fix>3d</fix>
</trkpt>
<trkpt lat="33.810152" lon="-118.393867">
  <ele>-14.77</ele>
  <time>2026-09-02T22:13:12Z</time>
  <course>179.53</course>
  <speed>0.5</speed>
  <fix>3d</fix>
</trkpt>
<trkpt lat="33.8101507" lon="-118.3938671">
  <ele>-15.136</ele>
  <time>2026-09-02T22:13:12Z</time>
  <course>184.78</course>
  <speed>0.47010637094172636</speed>
  <fix>3d</fix>
</trkpt>
<trkpt lat="33.8101511" lon="-118.393867">
  <ele>-14.77</ele>
  <time>2026-09-02T22:13:12Z</time>
  <course>179.48</course>
  <speed>0.5</speed>
  <fix>3d</fix>
</trkpt>
<trkpt lat="33.8101503" lon="-118.3938671">
  <ele>-15.136</ele>
  <time>2026-09-02T22:13:12Z</time>
  <course>184.78</course>
  <speed>0.47010637094172636</speed>
  <fix>3d</fix>
</trkpt>
<trkpt lat="33.8101511" lon="-118.393867">
  <ele>-14.77</ele>
  <time>2026-09-02T22:13:12Z</time>
  <course>179.48</course>
  <speed>0.5</speed>
  <fix>3d</fix>
</trkpt>
<trkpt lat="33.8101498" lon="-118.3938671">
  <ele>-15.136</ele>
  <time>2026-09-02T22:13:12Z</time>
  <course>184.78</course>
  <speed>0.47010637094172636</speed>
  <fix>3d</fix>
</trkpt>
<trkpt lat="33.8101502" lon="-118.393867">
  <ele>-14.76</ele>
  <time>2026-09-02T22:13:12Z</time>
  <course>179.43</course>
  <speed>0.5</speed>
  <fix>3d</fix>
</trkpt>
<trkpt lat="33.8101494" lon="-118.3938671">
  <ele>-15.135</ele>
  <time>2026-09-02T22:13:12Z</time>
  <course>184.78</course>
  <speed>0.47010637094172636</speed>
  <fix>3d</fix>
</trkpt>
<trkpt lat="33.8101502" lon="-118.393867">
  <ele>-14.76</ele>
  <time>2026-09-02T22:13:12Z</time>
  <course>179.43</course>
  <speed>0.5</speed>
  <fix>3d</fix>
</trkpt>
<trkpt lat="33.8101489" lon="-118.3938671">
  <ele>-15.134</ele>
  <time>2026-09-02T22:13:12Z</time>
  <course>184.78</course>
  <speed>0.47010637094172636</speed>
  <fix>3d</fix>
</trkpt>
<trkpt lat="33.8101493" lon="-118.393867">
  <ele>-14.76</ele>
  <time>2026-09-02T22:13:12Z</time>
  <course>179.4</course>
  <speed>0.5</speed>
  <fix>3d</fix>
</trkpt>
<trkpt lat="33.8101485" lon="-118.3938671">
  <ele>-15.132</ele>
  <time>2026-09-02T22:13:12Z</time>
  <course>184.78</course>
  <speed>0.47010637094172636</speed>
  <fix>3d</fix>
</trkpt>
<trkpt lat="33.8101493" lon="-118.393867">
  <ele>-14.76</ele>
  <time>2026-09-02T22:13:12Z</time>
  <course>179.4</course>
  <speed>0.5</speed>
  <fix>3d</fix>
</trkpt>
<trkpt lat="33.810148" lon="-118.3938671">
  <ele>-15.129</ele>
  <time>2026-09-02T22:13:12Z</time>
  <course>184.78</course>
  <speed>0.47010637094172636</speed>
  <fix>3d</fix>
</trkpt>
<trkpt lat="33.8101484" lon="-118.393867">
  <ele>-14.75</ele>
  <time>2026-09-02T22:13:12Z</time>
  <course>179.35</course>
  <speed>0.5</speed>
  <fix>3d</fix>
</trkpt>
<trkpt lat="33.8101476" lon="-118.3938671">
  <ele>-15.127</ele>
  <time>2026-09-02T22:13:12Z</time>
  <course>184.78</course>
  <speed>0.47010637094172636</speed>
  <fix>3d</fix>
</trkpt>
<trkpt lat="33.8101484" lon="-118.393867">
  <ele>-14.75</ele>
  <time>2026-09-02T22:13:12Z</time>
  <course>179.35</course>
  <speed>0.5</speed>
  <fix>3d</fix>
</trkpt>
<trkpt lat="33.8101471" lon="-118.3938671">
  <ele>-15.126</ele>
  <time>2026-09-02T22:13:12Z</time>
  <course>184.78</course>
  <speed>0.47010637094172636</speed>
  <fix>3d</fix>
</trkpt>
<trkpt lat="33.8101475" lon="-118.393867">
  <ele>-14.75</ele>
  <time>2026-09-02T22:13:12Z</time>
  <course>179.32</course>
  <speed>0.5</speed>
  <fix>3d</fix>
</trkpt>
<trkpt lat="33.8101467" lon="-118.3938671">
  <ele>-15.125</ele>
  <time>2026-09-02T22:13:12Z</time>
  <course>184.78</course>
  <speed>0.47010637094172636</speed>
  <fix>3d</fix>
</trkpt>
<trkpt lat="33.8101475" lon="-118.393867">
  <ele>-14.75</ele>
  <time>2026-09-02T22:13:12Z</time>
  <course>179.32</course>
  <speed>0.5</speed>
  <fix>3d</fix>
</trkpt>
<trkpt lat="33.8101462" lon="-118.3938671">
  <ele>-15.125</ele>
  <time>2026-09-02T22:13:12Z</time>
  <course>184.77</course>
  <speed>0.47010637094172636</speed>
  <fix>3d</fix>
</trkpt>
<trkpt lat="33.8101466" lon="-118.393867">
  <ele>-14.75</ele>
  <time>2026-09-02T22:13:12Z</time>
  <course>179.28</course>
  <speed>0.5</speed>
  <fix>3d</fix>
</trkpt>
<trkpt lat="33.8101458" lon="-118.3938671">
  <ele>-15.125</ele>
  <time>2026-09-02T22:13:12Z</time>
  <course>184.77</course>
  <speed>0.47010637094172636</speed>
  <fix>3d</fix>
</trkpt>
<trkpt lat="33.8101466" lon="-118.393867">
  <ele>-14.75</ele>
  <time>2026-09-02T22:13:12Z</time>
  <course>179.28</course>
  <speed>0.5</speed>
  <fix>3d</fix>
</trkpt>
<trkpt lat="33.8101453" lon="-118.3938671">
  <ele>-15.126</ele>
  <time>2026-09-02T22:13:12Z</time>
  <course>184.77</course>
  <speed>0.47010637094172636</speed>
  <fix>3d</fix>
</trkpt>
<trkpt lat="33.8101457" lon="-118.393867">
  <ele>-14.75</ele>
  <time>2026-09-02T22:13:12Z</time>
  <course>179.24</course>
  <speed>0.5</speed>
  <fix>3d</fix>
</trkpt>
<trkpt lat="33.8101449" lon="-118.3938671">
  <ele>-15.127</ele>
  <time>2026-09-02T22:13:12Z</time>
  <course>184.78</course>
  <speed>0.47010637094172636</speed>
  <fix>3d</fix>
</trkpt>
<trkpt lat="33.8101457" lon="-118.393867">
  <ele>-14.75</ele>
  <time>2026-09-02T22:13:12Z</time>
  <course>179.24</course>
  <speed>0.5</speed>
  <fix>3d</fix>
</trkpt>
<trkpt lat="33.8101444" lon="-118.3938671">
  <ele>-15.129</ele>
  <time>2026-09-02T22:13:13Z</time>
  <course>184.78</course>
  <speed>0.47010637094172636</speed>
  <fix>3d</fix>
</trkpt>
<trkpt lat="33.8101448" lon="-118.3938669">
  <ele>-14.75</ele>
  <time>2026-09-02T22:13:13Z</time>
  <course>179.21</course>
  <speed>0.5</speed>
  <fix>3d</fix>
</trkpt>
<trkpt lat="33.810144" lon="-118.3938671">
  <ele>-15.129</ele>
  <time>2026-09-02T22:13:13Z</time>
  <course>184.77</course>
  <speed>0.47010637094172636</speed>
  <fix>3d</fix>
</trkpt>
<trkpt lat="33.8101448" lon="-118.3938669">
  <ele>-14.75</ele>
  <time>2026-09-02T22:13:13Z</time>
  <course>179.21</course>
  <speed>0.5</speed>
  <fix>3d</fix>
</trkpt>
<trkpt lat="33.8101435" lon="-118.3938671">
  <ele>-15.13</ele>
  <time>2026-09-02T22:13:13Z</time>
  <course>184.77</course>
  <speed>0.47010637094172636</speed>
  <fix>3d</fix>
</trkpt>
<trkpt lat="33.8101439" lon="-118.3938669">
  <ele>-14.75</ele>
  <time>2026-09-02T22:13:13Z</time>
  <course>179.23</course>
  <speed>0.5</speed>
  <fix>3d</fix>
</trkpt>
<trkpt lat="33.8101431" lon="-118.3938671">
  <ele>-15.129</ele>
  <time>2026-09-02T22:13:13Z</time>
  <course>184.78</course>
  <speed>0.47010637094172636</speed>
  <fix>3d</fix>
</trkpt>
<trkpt lat="33.8101439" lon="-118.3938669">
  <ele>-14.75</ele>
  <time>2026-09-02T22:13:13Z</time>
  <course>179.23</course>
  <speed>0.5</speed>
  <fix>3d</fix>
</trkpt>
<trkpt lat="33.8101426" lon="-118.3938671">
  <ele>-15.127</ele>
  <time>2026-09-02T22:13:13Z</time>
  <course>184.78</course>
  <speed>0.47010637094172636</speed>
  <fix>3d</fix>
</trkpt>
<trkpt lat="33.810143" lon="-118.3938669">
  <ele>-14.75</ele>
  <time>2026-09-02T22:13:13Z</time>
  <course>179.34</course>
  <speed>0.5</speed>
  <fix>3d</fix>
</trkpt>
<trkpt lat="33.8101422" lon="-118.3938671">
  <ele>-15.125</ele>
  <time>2026-09-02T22:13:13Z</time>
  <course>184.78</course>
  <speed>0.47010637094172636</speed>
  <fix>3d</fix>
</trkpt>
<trkpt lat="33.810143" lon="-118.3938669">
  <ele>-14.75</ele>
  <time>2026-09-02T22:13:13Z</time>
  <course>179.34</course>
  <speed>0.5</speed>
  <fix>3d</fix>
</trkpt>
<trkpt lat="33.8101417" lon="-118.3938671">
  <ele>-15.124</ele>
  <time>2026-09-02T22:13:13Z</time>
  <course>184.78</course>
  <speed>0.47010637094172636</speed>
  <fix>3d</fix>
</trkpt>
<trkpt lat="33.8101421" lon="-118.3938669">
  <ele>-14.75</ele>
  <time>2026-09-02T22:13:13Z</time>
  <course>179.48</course>
  <speed>0.5</speed>
  <fix>3d</fix>
</trkpt>
<trkpt lat="33.8101413" lon="-118.3938671">
  <ele>-15.124</ele>
  <time>2026-09-02T22:13:13Z</time>
  <course>184.78</course>
  <speed>0.47010637094172636</speed>
  <fix>3d</fix>
</trkpt>
<trkpt lat="33.8101421" lon="-118.3938669">
  <ele>-14.75</ele>
  <time>2026-09-02T22:13:13Z</time>
  <course>179.48</course>
  <speed>0.5</speed>
  <fix>3d</fix>
</trkpt>
<trkpt lat="33.8101408" lon="-118.3938671">
  <ele>-15.123</ele>
  <time>2026-09-02T22:13:13Z</time>
  <course>184.78</course>
  <speed>0.47010637094172636</speed>
  <fix>3d</fix>
</trkpt>
<trkpt lat="33.8101412" lon="-118.3938669">
  <ele>-14.75</ele>
  <time>2026-09-02T22:13:13Z</time>
  <course>179.61</course>
  <speed>0.5</speed>
  <fix>3d</fix>
</trkpt>
<trkpt lat="33.8101404" lon="-118.3938671">
  <ele>-15.124</ele>
  <time>2026-09-02T22:13:13Z</time>
  <course>184.78</course>
  <speed>0.47010637094172636</speed>
  <fix>3d</fix>
</trkpt>
<trkpt lat="33.8101412" lon="-118.3938669">
  <ele>-14.75</ele>
  <time>2026-09-02T22:13:13Z</time>
  <course>179.61</course>
  <speed>0.5</speed>
  <fix>3d</fix>
</trkpt>
<trkpt lat="33.8101399" lon="-118.3938671">
  <ele>-15.125</ele>
  <time>2026-09-02T22:13:13Z</time>
  <course>184.78</course>
  <speed>0.47010637094172636</speed>
  <fix>3d</fix>
</trkpt>
<trkpt lat="33.8101403" lon="-118.3938669">
  <ele>-14.75</ele>
  <time>2026-09-02T22:13:13Z</time>
  <course>179.7</course>
  <speed>0.5</speed>
  <fix>3d</fix>
</trkpt>
<trkpt lat="33.8101395" lon="-118.3938671">
  <ele>-15.126</ele>
  <time>2026-09-02T22:13:13Z</time>
  <course>184.78</course>
  <speed>0.47010637094172636</speed>
  <fix>3d</fix>
</trkpt>
<trkpt lat="33.8101403" lon="-118.3938669">
  <ele>-14.75</ele>
  <time>2026-09-02T22:13:13Z</time>
  <course>179.7</course>
  <speed>0.5</speed>
  <fix>3d</fix>
</trkpt>
<trkpt lat="33.810139" lon="-118.3938671">
  <ele>-15.128</ele>
  <time>2026-09-02T22:13:13Z</time>
  <course>184.77</course>
  <speed>0.47010637094172636</speed>
  <fix>3d</fix>
</trkpt>
<trkpt lat="33.8101394" lon="-118.3938669">
  <ele>-14.75</ele>
  <time>2026-09-02T22:13:13Z</time>
  <course>179.74</course>
  <speed>0.5</speed>
  <fix>3d</fix>
</trkpt>
<trkpt lat="33.8101386" lon="-118.3938671">
  <ele>-15.13</ele>
  <time>2026-09-02T22:13:13Z</time>
  <course>184.77</course>
  <speed>0.47010637094172636</speed>
  <fix>3d</fix>
</trkpt>
<trkpt lat="33.8101394" lon="-118.3938669">
  <ele>-14.75</ele>
  <time>2026-09-02T22:13:13Z</time>
  <course>179.74</course>
  <speed>0.5</speed>
  <fix>3d</fix>
</trkpt>
<trkpt lat="33.8101381" lon="-118.3938671">
  <ele>-15.13</ele>
  <time>2026-09-02T22:13:13Z</time>
  <course>184.77</course>
  <speed>0.47010637094172636</speed>
  <fix>3d</fix>
</trkpt>
<trkpt lat="33.8101385" lon="-118.3938669">
  <ele>-14.76</ele>
  <time>2026-09-02T22:13:13Z</time>
  <course>179.75</course>
  <speed>0.5</speed>
  <fix>3d</fix>
</trkpt>
<trkpt lat="33.8101377" lon="-118.3938671">
  <ele>-15.131</ele>
  <time>2026-09-02T22:13:13Z</time>
  <course>184.77</course>
  <speed>0.47010637094172636</speed>
  <fix>3d</fix>
</trkpt>
<trkpt lat="33.8101385" lon="-118.3938669">
  <ele>-14.76</ele>
  <time>2026-09-02T22:13:13Z</time>
  <course>179.75</course>
  <speed>0.5</speed>
  <fix>3d</fix>
</trkpt>
<trkpt lat="33.8101372" lon="-118.3938671">
  <ele>-15.131</ele>
  <time>2026-09-02T22:13:13Z</time>
  <course>184.77</course>
  <speed>0.47010637094172636</speed>
  <fix>3d</fix>
</trkpt>
<trkpt lat="33.8101376" lon="-118.3938669">
  <ele>-14.76</ele>
  <time>2026-09-02T22:13:13Z</time>
  <course>179.75</course>
  <speed>0.5</speed>
  <fix>3d</fix>
</trkpt>
<trkpt lat="33.8101368" lon="-118.3938671">
  <ele>-15.13</ele>
  <time>2026-09-02T22:13:13Z</time>
  <course>184.77</course>
  <speed>0.47010637094172636</speed>
  <fix>3d</fix>
</trkpt>
<trkpt lat="33.8101376" lon="-118.3938669">
  <ele>-14.76</ele>
  <time>2026-09-02T22:13:13Z</time>
  <course>179.75</course>
  <speed>0.5</speed>
  <fix>3d</fix>
</trkpt>
<trkpt lat="33.8101363" lon="-118.3938671">
  <ele>-15.129</ele>
  <time>2026-09-02T22:13:13Z</time>
  <course>184.77</course>
  <speed>0.47010637094172636</speed>
  <fix>3d</fix>
</trkpt>
<trkpt lat="33.8101367" lon="-118.3938669">
  <ele>-14.76</ele>
  <time>2026-09-02T22:13:13Z</time>
  <course>179.74</course>
  <speed>0.5</speed>
  <fix>3d</fix>
</trkpt>
<trkpt lat="33.8101359" lon="-118.3938671">
  <ele>-15.128</ele>
  <time>2026-09-02T22:13:13Z</time>
  <course>184.78</course>
  <speed>0.47010637094172636</speed>
  <fix>3d</fix>
</trkpt>
<trkpt lat="33.8101367" lon="-118.3938669">
  <ele>-14.76</ele>
  <time>2026-09-02T22:13:13Z</time>
  <course>179.74</course>
  <speed>0.5</speed>
  <fix>3d</fix>
</trkpt>
<trkpt lat="33.8101354" lon="-118.3938671">
  <ele>-15.128</ele>
  <time>2026-09-02T22:13:13Z</time>
  <course>184.77</course>
  <speed>0.47010637094172636</speed>
  <fix>3d</fix>
</trkpt>
<trkpt lat="33.8101358" lon="-118.3938669">
  <ele>-14.76</ele>
  <time>2026-09-02T22:13:13Z</time>
  <course>179.72</course>
  <speed>0.5</speed>
  <fix>3d</fix>
</trkpt>
<trkpt lat="33.810135" lon="-118.3938671">
  <ele>-15.13</ele>
  <time>2026-09-02T22:13:13Z</time>
  <course>184.77</course>
  <speed>0.47010637094172636</speed>
  <fix>3d</fix>
</trkpt>
<trkpt lat="33.8101358" lon="-118.3938669">
  <ele>-14.76</ele>
  <time>2026-09-02T22:13:13Z</time>
  <course>179.72</course>
  <speed>0.5</speed>
  <fix>3d</fix>
</trkpt>
<trkpt lat="33.8101345" lon="-118.3938671">
  <ele>-15.131</ele>
  <time>2026-09-02T22:13:13Z</time>
  <course>184.77</course>
  <speed>0.47010637094172636</speed>
  <fix>3d</fix>
</trkpt>
<trkpt lat="33.8101349" lon="-118.3938669">
  <ele>-14.76</ele>
  <time>2026-09-02T22:13:13Z</time>
  <course>179.72</course>
  <speed>0.49</speed>
  <fix>3d</fix>
</trkpt>
<trkpt lat="33.8101341" lon="-118.3938671">
  <ele>-15.131</ele>
  <time>2026-09-02T22:13:13Z</time>
  <course>184.77</course>
  <speed>0.47010637094172636</speed>
  <fix>3d</fix>
</trkpt>
<trkpt lat="33.8101349" lon="-118.3938669">
  <ele>-14.76</ele>
  <time>2026-09-02T22:13:13Z</time>
  <course>179.72</course>
  <speed>0.49</speed>
  <fix>3d</fix>
</trkpt>
<trkpt lat="33.8101336" lon="-118.3938671">
  <ele>-15.13</ele>
  <time>2026-09-02T22:13:13Z</time>
  <course>184.78</course>
  <speed>0.47010637094172636</speed>
  <fix>3d</fix>
</trkpt>
<trkpt lat="33.810134" lon="-118.3938669">
  <ele>-14.76</ele>
  <time>2026-09-02T22:13:13Z</time>
  <course>179.73</course>
  <speed>0.49</speed>
  <fix>3d</fix>
</trkpt>
<trkpt lat="33.8101332" lon="-118.3938671">
  <ele>-15.128</ele>
  <time>2026-09-02T22:13:13Z</time>
  <course>184.78</course>
  <speed>0.47010637094172636</speed>
  <fix>3d</fix>
</trkpt>
<trkpt lat="33.810134" lon="-118.3938669">
  <ele>-14.76</ele>
  <time>2026-09-02T22:13:13Z</time>
  <course>179.73</course>
  <speed>0.49</speed>
  <fix>3d</fix>
</trkpt>
<trkpt lat="33.8101327" lon="-118.3938671">
  <ele>-15.126</ele>
  <time>2026-09-02T22:13:13Z</time>
  <course>184.78</course>
  <speed>0.47010637094172636</speed>
  <fix>3d</fix>
</trkpt>
<trkpt lat="33.8101331" lon="-118.3938668">
  <ele>-14.76</ele>
  <time>2026-09-02T22:13:13Z</time>
  <course>179.73</course>
  <speed>0.49</speed>
  <fix>3d</fix>
</trkpt>
<trkpt lat="33.8101323" lon="-118.3938671">
  <ele>-15.125</ele>
  <time>2026-09-02T22:13:13Z</time>
  <course>184.78</course>
  <speed>0.47010637094172636</speed>
  <fix>3d</fix>
</trkpt>
<trkpt lat="33.8101331" lon="-118.3938668">
  <ele>-14.76</ele>
  <time>2026-09-02T22:13:13Z</time>
  <course>179.73</course>
  <speed>0.49</speed>
  <fix>3d</fix>
</trkpt>
<trkpt lat="33.8101318" lon="-118.3938671">
  <ele>-15.125</ele>
  <time>2026-09-02T22:13:13Z</time>
  <course>184.77</course>
  <speed>0.47010637094172636</speed>
  <fix>3d</fix>
</trkpt>
<trkpt lat="33.8101322" lon="-118.3938668">
  <ele>-14.76</ele>
  <time>2026-09-02T22:13:13Z</time>
  <course>179.82</course>
  <speed>0.49</speed>
  <fix>3d</fix>
</trkpt>
<trkpt lat="33.8101314" lon="-118.3938671">
  <ele>-15.126</ele>
  <time>2026-09-02T22:13:13Z</time>
  <course>184.77</course>
  <speed>0.470425339453563</speed>
  <fix>3d</fix>
</trkpt>
<trkpt lat="33.8101322" lon="-118.3938668">
  <ele>-14.76</ele>
  <time>2026-09-02T22:13:13Z</time>
  <course>179.82</course>
  <speed>0.49</speed>
  <fix>3d</fix>
</trkpt>
<trkpt lat="33.8101309" lon="-118.3938671">
  <ele>-15.129</ele>
  <time>2026-09-02T22:13:13Z</time>
  <course>184.78</course>
  <speed>0.470425339453563</speed>
  <fix>3d</fix>
</trkpt>
<trkpt lat="33.8101313" lon="-118.3938668">
  <ele>-14.77</ele>
  <time>2026-09-02T22:13:13Z</time>
  <course>180.02</course>
  <speed>0.49</speed>
  <fix>3d</fix>
</trkpt>
<trkpt lat="33.8101305" lon="-118.3938671">
  <ele>-15.132</ele>
  <time>2026-09-02T22:13:13Z</time>
  <course>184.77</course>
  <speed>0.470425339453563</speed>
  <fix>3d</fix>
</trkpt>
<trkpt lat="33.8101313" lon="-118.3938668">
  <ele>-14.77</ele>
  <time>2026-09-02T22:13:13Z</time>
  <course>180.02</course>
  <speed>0.49</speed>
  <fix>3d</fix>
</trkpt>
<trkpt lat="33.81013" lon="-118.3938671">
  <ele>-15.135</ele>
  <time>2026-09-02T22:13:13Z</time>
  <course>184.77</course>
  <speed>0.470425339453563</speed>
  <fix>3d</fix>
</trkpt>
<trkpt lat="33.8101304" lon="-118.3938668">
  <ele>-14.77</ele>
  <time>2026-09-02T22:13:13Z</time>
  <course>180.22</course>
  <speed>0.49</speed>
  <fix>3d</fix>
</trkpt>
<trkpt lat="33.8101296" lon="-118.3938671">
  <ele>-15.137</ele>
  <time>2026-09-02T22:13:13Z</time>
  <course>184.77</course>
  <speed>0.470425339453563</speed>
  <fix>3d</fix>
</trkpt>
<trkpt lat="33.8101304" lon="-118.3938668">
  <ele>-14.77</ele>
  <time>2026-09-02T22:13:13Z</time>
  <course>180.22</course>
  <speed>0.49</speed>
  <fix>3d</fix>
</trkpt>
<trkpt lat="33.8101291" lon="-118.3938671">
  <ele>-15.138</ele>
  <time>2026-09-02T22:13:13Z</time>
  <course>184.77</course>
  <speed>0.470425339453563</speed>
  <fix>3d</fix>
</trkpt>
<trkpt lat="33.8101295" lon="-118.3938668">
  <ele>-14.77</ele>
  <time>2026-09-02T22:13:13Z</time>
  <course>180.39</course>
  <speed>0.49</speed>
  <fix>3d</fix>
</trkpt>
<trkpt lat="33.8101287" lon="-118.3938671">
  <ele>-15.139</ele>
  <time>2026-09-02T22:13:13Z</time>
  <course>184.77</course>
  <speed>0.470425339453563</speed>
  <fix>3d</fix>
</trkpt>
<trkpt lat="33.8101295" lon="-118.3938668">
  <ele>-14.77</ele>
  <time>2026-09-02T22:13:13Z</time>
  <course>180.39</course>
  <speed>0.49</speed>
  <fix>3d</fix>
</trkpt>
<trkpt lat="33.8101282" lon="-118.3938671">
  <ele>-15.139</ele>
  <time>2026-09-02T22:13:13Z</time>
  <course>184.78</course>
  <speed>0.470425339453563</speed>
  <fix>3d</fix>
</trkpt>
<trkpt lat="33.8101286" lon="-118.3938668">
  <ele>-14.77</ele>
  <time>2026-09-02T22:13:13Z</time>
  <course>180.5</course>
  <speed>0.49</speed>
  <fix>3d</fix>
</trkpt>
<trkpt lat="33.8101278" lon="-118.3938671">
  <ele>-15.138</ele>
  <time>2026-09-02T22:13:13Z</time>
  <course>184.78</course>
  <speed>0.470425339453563</speed>
  <fix>3d</fix>
</trkpt>
<trkpt lat="33.8101286" lon="-118.3938668">
  <ele>-14.77</ele>
  <time>2026-09-02T22:13:13Z</time>
  <course>180.5</course>
  <speed>0.49</speed>
  <fix>3d</fix>
</trkpt>
<trkpt lat="33.8101273" lon="-118.3938671">
  <ele>-15.136</ele>
  <time>2026-09-02T22:13:13Z</time>
  <course>184.78</course>
  <speed>0.470425339453563</speed>
  <fix>3d</fix>
</trkpt>
<trkpt lat="33.8101277" lon="-118.3938668">
  <ele>-14.77</ele>
  <time>2026-09-02T22:13:13Z</time>
  <course>180.58</course>
  <speed>0.49</speed>
  <fix>3d</fix>
</trkpt>
<trkpt lat="33.8101269" lon="-118.3938671">
  <ele>-15.136</ele>
  <time>2026-09-02T22:13:13Z</time>
  <course>184.77</course>
  <speed>0.470425339453563</speed>
  <fix>3d</fix>
</trkpt>
<trkpt lat="33.8101277" lon="-118.3938668">
  <ele>-14.77</ele>
  <time>2026-09-02T22:13:13Z</time>
  <course>180.58</course>
  <speed>0.49</speed>
  <fix>3d</fix>
</trkpt>
<trkpt lat="33.8101264" lon="-118.3938671">
  <ele>-15.134</ele>
  <time>2026-09-02T22:13:13Z</time>
  <course>184.78</course>
  <speed>0.470425339453563</speed>
  <fix>3d</fix>
</trkpt>
<trkpt lat="33.8101268" lon="-118.3938668">
  <ele>-14.76</ele>
  <time>2026-09-02T22:13:13Z</time>
  <course>180.62</course>
  <speed>0.49</speed>
  <fix>3d</fix>
</trkpt>
<trkpt lat="33.810126" lon="-118.3938671">
  <ele>-15.132</ele>
  <time>2026-09-02T22:13:13Z</time>
  <course>184.77</course>
  <speed>0.470425339453563</speed>
  <fix>3d</fix>
</trkpt>
<trkpt lat="33.8101268" lon="-118.3938668">
  <ele>-14.76</ele>
  <time>2026-09-02T22:13:13Z</time>
  <course>180.62</course>
  <speed>0.49</speed>
  <fix>3d</fix>
</trkpt>
<trkpt lat="33.8101255" lon="-118.3938671">
  <ele>-15.13</ele>
  <time>2026-09-02T22:13:13Z</time>
  <course>184.77</course>
  <speed>0.470425339453563</speed>
  <fix>3d</fix>
</trkpt>
<trkpt lat="33.8101259" lon="-118.3938668">
  <ele>-14.76</ele>
  <time>2026-09-02T22:13:13Z</time>
  <course>180.66</course>
  <speed>0.49</speed>
  <fix>3d</fix>
</trkpt>
<trkpt lat="33.8101251" lon="-118.3938671">
  <ele>-15.128</ele>
  <time>2026-09-02T22:13:13Z</time>
  <course>184.77</course>
  <speed>0.470425339453563</speed>
  <fix>3d</fix>
</trkpt>
<trkpt lat="33.8101259" lon="-118.3938668">
  <ele>-14.76</ele>
  <time>2026-09-02T22:13:13Z</time>
  <course>180.66</course>
  <speed>0.49</speed>
  <fix>3d</fix>
</trkpt>
<trkpt lat="33.8101246" lon="-118.3938671">
  <ele>-15.127</ele>
  <time>2026-09-02T22:13:13Z</time>
  <course>184.77</course>
  <speed>0.470425339453563</speed>
  <fix>3d</fix>
</trkpt>
<trkpt lat="33.810125" lon="-118.3938668">
  <ele>-14.75</ele>
  <time>2026-09-02T22:13:13Z</time>
  <course>180.7</course>
  <speed>0.49</speed>
  <fix>3d</fix>
</trkpt>
<trkpt lat="33.8101242" lon="-118.3938671">
  <ele>-15.126</ele>
  <time>2026-09-02T22:13:13Z</time>
  <course>184.78</course>
  <speed>0.470425339453563</speed>
  <fix>3d</fix>
</trkpt>
<trkpt lat="33.810125" lon="-118.3938668">
  <ele>-14.75</ele>
  <time>2026-09-02T22:13:13Z</time>
  <course>180.7</course>
  <speed>0.49</speed>
  <fix>3d</fix>
</trkpt>
<trkpt lat="33.8101237" lon="-118.3938671">
  <ele>-15.125</ele>
  <time>2026-09-02T22:13:13Z</time>
  <course>184.78</course>
  <speed>0.470425339453563</speed>
  <fix>3d</fix>
</trkpt>
<trkpt lat="33.8101242" lon="-118.3938668">
  <ele>-14.75</ele>
  <time>2026-09-02T22:13:13Z</time>
  <course>180.75</course>
  <speed>0.49</speed>
  <fix>3d</fix>
</trkpt>
<trkpt lat="33.8101233" lon="-118.3938671">
  <ele>-15.125</ele>
  <time>2026-09-02T22:13:13Z</time>
  <course>184.78</course>
  <speed>0.470425339453563</speed>
  <fix>3d</fix>
</trkpt>
<trkpt lat="33.8101242" lon="-118.3938668">
  <ele>-14.75</ele>
  <time>2026-09-02T22:13:13Z</time>
  <course>180.75</course>
  <speed>0.49</speed>
  <fix>3d</fix>
</trkpt>
<trkpt lat="33.8101228" lon="-118.3938671">
  <ele>-15.124</ele>
  <time>2026-09-02T22:13:13Z</time>
  <course>184.78</course>
  <speed>0.470425339453563</speed>
  <fix>3d</fix>
</trkpt>
<trkpt lat="33.8101233" lon="-118.3938668">
  <ele>-14.75</ele>
  <time>2026-09-02T22:13:13Z</time>
  <course>180.8</course>
  <speed>0.49</speed>
  <fix>3d</fix>
</trkpt>
<trkpt lat="33.8101224" lon="-118.3938671">
  <ele>-15.124</ele>
  <time>2026-09-02T22:13:13Z</time>
  <course>184.78</course>
  <speed>0.470425339453563</speed>
  <fix>3d</fix>
</trkpt>
<trkpt lat="33.8101233" lon="-118.3938668">
  <ele>-14.75</ele>
  <time>2026-09-02T22:13:13Z</time>
  <course>180.8</course>
  <speed>0.49</speed>
  <fix>3d</fix>
</trkpt>
<trkpt lat="33.810122" lon="-118.3938671">
  <ele>-15.124</ele>
  <time>2026-09-02T22:13:13Z</time>
  <course>184.78</course>
  <speed>0.470425339453563</speed>
  <fix>3d</fix>
</trkpt>
<trkpt lat="33.8101224" lon="-118.3938668">
  <ele>-14.75</ele>
  <time>2026-09-02T22:13:13Z</time>
  <course>180.84</course>
  <speed>0.49</speed>
  <fix>3d</fix>
</trkpt>
<trkpt lat="33.8101215" lon="-118.3938671">
  <ele>-15.125</ele>
  <time>2026-09-02T22:13:13Z</time>
  <course>184.77</course>
  <speed>0.470425339453563</speed>
  <fix>3d</fix>
</trkpt>
<trkpt lat="33.8101224" lon="-118.3938668">
  <ele>-14.75</ele>
  <time>2026-09-02T22:13:13Z</time>
  <course>180.84</course>
  <speed>0.49</speed>
  <fix>3d</fix>
</trkpt>
<trkpt lat="33.8101211" lon="-118.3938671">
  <ele>-15.127</ele>
  <time>2026-09-02T22:13:13Z</time>
  <course>184.78</course>
  <speed>0.470425339453563</speed>
  <fix>3d</fix>
</trkpt>
<trkpt lat="33.8101215" lon="-118.3938669">
  <ele>-14.75</ele>
  <time>2026-09-02T22:13:13Z</time>
  <course>180.86</course>
  <speed>0.49</speed>
  <fix>3d</fix>
</trkpt>
<trkpt lat="33.8101206" lon="-118.3938671">
  <ele>-15.128</ele>
  <time>2026-09-02T22:13:13Z</time>
  <course>184.77</course>
  <speed>0.470425339453563</speed>
  <fix>3d</fix>
</trkpt>
<trkpt lat="33.8101215" lon="-118.3938669">
  <ele>-14.75</ele>
  <time>2026-09-02T22:13:13Z</time>
  <course>180.86</course>
  <speed>0.49</speed>
  <fix>3d</fix>
</trkpt>
<trkpt lat="33.8101202" lon="-118.3938671">
  <ele>-15.129</ele>
  <time>2026-09-02T22:13:13Z</time>
  <course>184.78</course>
  <speed>0.47010637094172636</speed>
  <fix>3d</fix>
</trkpt>
<trkpt lat="33.8101206" lon="-118.3938669">
  <ele>-14.76</ele>
  <time>2026-09-02T22:13:13Z</time>
  <course>180.81</course>
  <speed>0.5</speed>
  <fix>3d</fix>
</trkpt>
<trkpt lat="33.8101197" lon="-118.3938671">
  <ele>-15.13</ele>
  <time>2026-09-02T22:13:13Z</time>
  <course>184.78</course>
  <speed>0.47010637094172636</speed>
  <fix>3d</fix>
</trkpt>
<trkpt lat="33.8101206" lon="-118.3938669">
  <ele>-14.76</ele>
  <time>2026-09-02T22:13:13Z</time>
  <course>180.81</course>
  <speed>0.5</speed>
  <fix>3d</fix>
</trkpt>
<trkpt lat="33.8101193" lon="-118.3938671">
  <ele>-15.13</ele>
  <time>2026-09-02T22:13:13Z</time>
  <course>184.78</course>
  <speed>0.4801041553663121</speed>
  <fix>3d</fix>
</trkpt>
<trkpt lat="33.8101197" lon="-118.3938669">
  <ele>-14.76</ele>
  <time>2026-09-02T22:13:13Z</time>
  <course>180.66</course>
  <speed>0.5</speed>
  <fix>3d</fix>
</trkpt>
<trkpt lat="33.8101188" lon="-118.3938671">
  <ele>-15.129</ele>
  <time>2026-09-02T22:13:13Z</time>
  <course>184.77</course>
  <speed>0.47010637094172636</speed>
  <fix>3d</fix>
</trkpt>
<trkpt lat="33.8101197" lon="-118.3938669">
  <ele>-14.76</ele>
  <time>2026-09-02T22:13:13Z</time>
  <course>180.66</course>
  <speed>0.5</speed>
  <fix>3d</fix>
</trkpt>
<trkpt lat="33.8101184" lon="-118.3938671">
  <ele>-15.129</ele>
  <time>2026-09-02T22:13:13Z</time>
  <course>184.77</course>
  <speed>0.4801041553663121</speed>
  <fix>3d</fix>
</trkpt>
<trkpt lat="33.8101188" lon="-118.3938669">
  <ele>-14.76</ele>
  <time>2026-09-02T22:13:13Z</time>
  <course>180.5</course>
  <speed>0.5</speed>
  <fix>3d</fix>
</trkpt>
<trkpt lat="33.8101179" lon="-118.3938671">
  <ele>-15.128</ele>
  <time>2026-09-02T22:13:13Z</time>
  <course>184.77</course>
  <speed>0.47010637094172636</speed>
  <fix>3d</fix>
</trkpt>
<trkpt lat="33.8101188" lon="-118.3938669">
  <ele>-14.76</ele>
  <time>2026-09-02T22:13:13Z</time>
  <course>180.5</course>
  <speed>0.5</speed>
  <fix>3d</fix>
</trkpt>
<trkpt lat="33.8101175" lon="-118.3938671">
  <ele>-15.128</ele>
  <time>2026-09-02T22:13:13Z</time>
  <course>184.78</course>
  <speed>0.47010637094172636</speed>
  <fix>3d</fix>
</trkpt>
<trkpt lat="33.8101179" lon="-118.3938669">
  <ele>-14.76</ele>
  <time>2026-09-02T22:13:13Z</time>
  <course>180.38</course>
  <speed>0.5</speed>
  <fix>3d</fix>
</trkpt>
<trkpt lat="33.810117" lon="-118.3938671">
  <ele>-15.129</ele>
  <time>2026-09-02T22:13:13Z</time>
  <course>184.78</course>
  <speed>0.47010637094172636</speed>
  <fix>3d</fix>
</trkpt>
<trkpt lat="33.8101179" lon="-118.3938669">
  <ele>-14.76</ele>
  <time>2026-09-02T22:13:13Z</time>
  <course>180.38</course>
  <speed>0.5</speed>
  <fix>3d</fix>
</trkpt>
<trkpt lat="33.8101166" lon="-118.3938671">
  <ele>-15.13</ele>
  <time>2026-09-02T22:13:13Z</time>
  <course>184.78</course>
  <speed>0.47010637094172636</speed>
  <fix>3d</fix>
</trkpt>
<trkpt lat="33.810117" lon="-118.3938669">
  <ele>-14.76</ele>
  <time>2026-09-02T22:13:13Z</time>
  <course>180.3</course>
  <speed>0.5</speed>
  <fix>3d</fix>
</trkpt>
<trkpt lat="33.8101161" lon="-118.3938671">
  <ele>-15.131</ele>
  <time>2026-09-02T22:13:13Z</time>
  <course>184.78</course>
  <speed>0.47010637094172636</speed>
  <fix>3d</fix>
</trkpt>
<trkpt lat="33.810117" lon="-118.3938669">
  <ele>-14.76</ele>
  <time>2026-09-02T22:13:13Z</time>
  <course>180.3</course>
  <speed>0.5</speed>
  <fix>3d</fix>
</trkpt>
<trkpt lat="33.8101157" lon="-118.3938671">
  <ele>-15.131</ele>
  <time>2026-09-02T22:13:13Z</time>
  <course>184.78</course>
  <speed>0.47010637094172636</speed>
  <fix>3d</fix>
</trkpt>
<trkpt lat="33.8101161" lon="-118.3938669">
  <ele>-14.76</ele>
  <time>2026-09-02T22:13:13Z</time>
  <course>180.27</course>
  <speed>0.5</speed>
  <fix>3d</fix>
</trkpt>
<trkpt lat="33.8101152" lon="-118.3938671">
  <ele>-15.13</ele>
  <time>2026-09-02T22:13:13Z</time>
  <course>184.78</course>
  <speed>0.47010637094172636</speed>
  <fix>3d</fix>
</trkpt>
<trkpt lat="33.8101161" lon="-118.3938669">
  <ele>-14.76</ele>
  <time>2026-09-02T22:13:13Z</time>
  <course>180.27</course>
  <speed>0.5</speed>
  <fix>3d</fix>
</trkpt>
<trkpt lat="33.8101148" lon="-118.3938671">
  <ele>-15.128</ele>
  <time>2026-09-02T22:13:13Z</time>
  <course>184.78</course>
  <speed>0.47010637094172636</speed>
  <fix>3d</fix>
</trkpt>
<trkpt lat="33.8101151" lon="-118.3938669">
  <ele>-14.76</ele>
  <time>2026-09-02T22:13:13Z</time>
  <course>180.26</course>
  <speed>0.5</speed>
  <fix>3d</fix>
</trkpt>
<trkpt lat="33.8101143" lon="-118.3938671">
  <ele>-15.127</ele>
  <time>2026-09-02T22:13:13Z</time>
  <course>184.78</course>
  <speed>0.47010637094172636</speed>
  <fix>3d</fix>
</trkpt>
<trkpt lat="33.8101151" lon="-118.3938669">
  <ele>-14.76</ele>
  <time>2026-09-02T22:13:13Z</time>
  <course>180.26</course>
  <speed>0.5</speed>
  <fix>3d</fix>
</trkpt>
<trkpt lat="33.8101139" lon="-118.3938671">
  <ele>-15.127</ele>
  <time>2026-09-02T22:13:13Z</time>
  <course>184.78</course>
  <speed>0.47010637094172636</speed>
  <fix>3d</fix>
</trkpt>
<trkpt lat="33.8101142" lon="-118.3938669">
  <ele>-14.76</ele>
  <time>2026-09-02T22:13:13Z</time>
  <course>180.28</course>
  <speed>0.5</speed>
  <fix>3d</fix>
</trkpt>
<trkpt lat="33.8101134" lon="-118.3938671">
  <ele>-15.127</ele>
  <time>2026-09-02T22:13:13Z</time>
  <course>184.78</course>
  <speed>0.47010637094172636</speed>
  <fix>3d</fix>
</trkpt>
<trkpt lat="33.8101142" lon="-118.3938669">
  <ele>-14.76</ele>
  <time>2026-09-02T22:13:13Z</time>
  <course>180.28</course>
  <speed>0.5</speed>
  <fix>3d</fix>
</trkpt>
<trkpt lat="33.810113" lon="-118.3938671">
  <ele>-15.127</ele>
  <time>2026-09-02T22:13:13Z</time>
  <course>184.78</course>
  <speed>0.47010637094172636</speed>
  <fix>3d</fix>
</trkpt>
<trkpt lat="33.8101133" lon="-118.3938669">
  <ele>-14.76</ele>
  <time>2026-09-02T22:13:13Z</time>
  <course>180.29</course>
  <speed>0.5</speed>
  <fix>3d</fix>
</trkpt>
<trkpt lat="33.8101125" lon="-118.3938671">
  <ele>-15.127</ele>
  <time>2026-09-02T22:13:13Z</time>
  <course>184.77</course>
  <speed>0.47010637094172636</speed>
  <fix>3d</fix>
</trkpt>
<trkpt lat="33.8101133" lon="-118.3938669">
  <ele>-14.76</ele>
  <time>2026-09-02T22:13:13Z</time>
  <course>180.29</course>
  <speed>0.5</speed>
  <fix>3d</fix>
</trkpt>
<trkpt lat="33.8101121" lon="-118.3938671">
  <ele>-15.128</ele>
  <time>2026-09-02T22:13:13Z</time>
  <course>184.77</course>
  <speed>0.47010637094172636</speed>
  <fix>3d</fix>
</trkpt>
<trkpt lat="33.8101124" lon="-118.3938669">
  <ele>-14.76</ele>
  <time>2026-09-02T22:13:13Z</time>
  <course>180.29</course>
  <speed>0.49</speed>
  <fix>3d</fix>
</trkpt>
<trkpt lat="33.8101116" lon="-118.3938671">
  <ele>-15.13</ele>
  <time>2026-09-02T22:13:13Z</time>
  <course>184.78</course>
  <speed>0.47010637094172636</speed>
  <fix>3d</fix>
</trkpt>
<trkpt lat="33.8101124" lon="-118.3938669">
  <ele>-14.76</ele>
  <time>2026-09-02T22:13:13Z</time>
  <course>180.29</course>
  <speed>0.49</speed>
  <fix>3d</fix>
</trkpt>
<trkpt lat="33.8101112" lon="-118.3938671">
  <ele>-15.132</ele>
  <time>2026-09-02T22:13:13Z</time>
  <course>184.78</course>
  <speed>0.47010637094172636</speed>
  <fix>3d</fix>
</trkpt>
<trkpt lat="33.8101116" lon="-118.3938669">
  <ele>-14.77</ele>
  <time>2026-09-02T22:13:13Z</time>
  <course>180.31</course>
  <speed>0.49</speed>
  <fix>3d</fix>
</trkpt>
<trkpt lat="33.8101107" lon="-118.3938671">
  <ele>-15.133</ele>
  <time>2026-09-02T22:13:13Z</time>
  <course>184.78</course>
  <speed>0.47010637094172636</speed>
  <fix>3d</fix>
</trkpt>
<trkpt lat="33.8101116" lon="-118.3938669">
  <ele>-14.77</ele>
  <time>2026-09-02T22:13:13Z</time>
  <course>180.31</course>
  <speed>0.49</speed>
  <fix>3d</fix>
</trkpt>
<trkpt lat="33.8101103" lon="-118.3938671">
  <ele>-15.135</ele>
  <time>2026-09-02T22:13:13Z</time>
  <course>184.78</course>
  <speed>0.47010637094172636</speed>
  <fix>3d</fix>
</trkpt>
<trkpt lat="33.8101107" lon="-118.393867">
  <ele>-14.77</ele>
  <time>2026-09-02T22:13:13Z</time>
  <course>180.31</course>
  <speed>0.49</speed>
  <fix>3d</fix>
</trkpt>
<trkpt lat="33.8101098" lon="-118.3938671">
  <ele>-15.136</ele>
  <time>2026-09-02T22:13:13Z</time>
  <course>184.78</course>
  <speed>0.47010637094172636</speed>
  <fix>3d</fix>
</trkpt>
<trkpt lat="33.8101107" lon="-118.393867">
  <ele>-14.77</ele>
  <time>2026-09-02T22:13:13Z</time>
  <course>180.31</course>
  <speed>0.49</speed>
  <fix>3d</fix>
</trkpt>
<trkpt lat="33.8101094" lon="-118.3938671">
  <ele>-15.136</ele>
  <time>2026-09-02T22:13:13Z</time>
  <course>184.78</course>
  <speed>0.47010637094172636</speed>
  <fix>3d</fix>
</trkpt>
<trkpt lat="33.8101098" lon="-118.393867">
  <ele>-14.77</ele>
  <time>2026-09-02T22:13:13Z</time>
  <course>180.21</course>
  <speed>0.49</speed>
  <fix>3d</fix>
</trkpt>
<trkpt lat="33.8101089" lon="-118.3938671">
  <ele>-15.135</ele>
  <time>2026-09-02T22:13:13Z</time>
  <course>184.78</course>
  <speed>0.47010637094172636</speed>
  <fix>3d</fix>
</trkpt>
<trkpt lat="33.8101098" lon="-118.393867">
  <ele>-14.77</ele>
  <time>2026-09-02T22:13:13Z</time>
  <course>180.21</course>
  <speed>0.49</speed>
  <fix>3d</fix>
</trkpt>
<trkpt lat="33.8101085" lon="-118.3938671">
  <ele>-15.132</ele>
  <time>2026-09-02T22:13:13Z</time>
  <course>184.77</course>
  <speed>0.47010637094172636</speed>
  <fix>3d</fix>
</trkpt>
<trkpt lat="33.8101089" lon="-118.393867">
  <ele>-14.76</ele>
  <time>2026-09-02T22:13:13Z</time>
  <course>180.02</course>
  <speed>0.49</speed>
  <fix>3d</fix>
</trkpt>
<trkpt lat="33.810108" lon="-118.3938671">
  <ele>-15.129</ele>
  <time>2026-09-02T22:13:13Z</time>
  <course>184.78</course>
  <speed>0.47010637094172636</speed>
  <fix>3d</fix>
</trkpt>
<trkpt lat="33.8101089" lon="-118.393867">
  <ele>-14.76</ele>
  <time>2026-09-02T22:13:13Z</time>
  <course>180.02</course>
  <speed>0.49</speed>
  <fix>3d</fix>
</trkpt>
<trkpt lat="33.8101076" lon="-118.3938671">
  <ele>-15.126</ele>
  <time>2026-09-02T22:13:13Z</time>
  <course>184.78</course>
  <speed>0.47010637094172636</speed>
  <fix>3d</fix>
</trkpt>
<trkpt lat="33.810108" lon="-118.393867">
  <ele>-14.76</ele>
  <time>2026-09-02T22:13:13Z</time>
  <course>179.82</course>
  <speed>0.49</speed>
  <fix>3d</fix>
</trkpt>
<trkpt lat="33.8101071" lon="-118.3938671">
  <ele>-15.124</ele>
  <time>2026-09-02T22:13:13Z</time>
  <course>184.78</course>
  <speed>0.47010637094172636</speed>
  <fix>3d</fix>
</trkpt>
<trkpt lat="33.810108" lon="-118.393867">
  <ele>-14.76</ele>
  <time>2026-09-02T22:13:13Z</time>
  <course>179.82</course>
  <speed>0.49</speed>
  <fix>3d</fix>
</trkpt>
<trkpt lat="33.8101067" lon="-118.3938671">
  <ele>-15.123</ele>
  <time>2026-09-02T22:13:13Z</time>
  <course>184.78</course>
  <speed>0.47010637094172636</speed>
  <fix>3d</fix>
</trkpt>
<trkpt lat="33.8101071" lon="-118.393867">
  <ele>-14.76</ele>
  <time>2026-09-02T22:13:13Z</time>
  <course>179.65</course>
  <speed>0.49</speed>
  <fix>3d</fix>
</trkpt>
<trkpt lat="33.8101062" lon="-118.3938671">
  <ele>-15.124</ele>
  <time>2026-09-02T22:13:13Z</time>
  <course>184.78</course>
  <speed>0.47010637094172636</speed>
  <fix>3d</fix>
</trkpt>
<trkpt lat="33.8101071" lon="-118.393867">
  <ele>-14.76</ele>
  <time>2026-09-02T22:13:13Z</time>
  <course>179.65</course>
  <speed>0.49</speed>
  <fix>3d</fix>
</trkpt>
<trkpt lat="33.8101058" lon="-118.3938671">
  <ele>-15.126</ele>
  <time>2026-09-02T22:13:13Z</time>
  <course>184.78</course>
  <speed>0.47010637094172636</speed>
  <fix>3d</fix>
</trkpt>
<trkpt lat="33.8101062" lon="-118.393867">
  <ele>-14.76</ele>
  <time>2026-09-02T22:13:13Z</time>
  <course>179.53</course>
  <speed>0.5</speed>
  <fix>3d</fix>
</trkpt>
<trkpt lat="33.8101053" lon="-118.3938671">
  <ele>-15.127</ele>
  <time>2026-09-02T22:13:13Z</time>
  <course>184.78</course>
  <speed>0.47010637094172636</speed>
  <fix>3d</fix>
</trkpt>
<trkpt lat="33.8101062" lon="-118.393867">
  <ele>-14.76</ele>
  <time>2026-09-02T22:13:13Z</time>
  <course>179.53</course>
  <speed>0.5</speed>
  <fix>3d</fix>
</trkpt>
<trkpt lat="33.8101049" lon="-118.3938671">
  <ele>-15.129</ele>
  <time>2026-09-02T22:13:13Z</time>
  <course>184.78</course>
  <speed>0.47010637094172636</speed>
  <fix>3d</fix>
</trkpt>
<trkpt lat="33.8101053" lon="-118.393867">
  <ele>-14.76</ele>
  <time>2026-09-02T22:13:13Z</time>
  <course>179.45</course>
  <speed>0.5</speed>
  <fix>3d</fix>
</trkpt>
<trkpt lat="33.8101044" lon="-118.3938671">
  <ele>-15.13</ele>
  <time>2026-09-02T22:13:13Z</time>
  <course>184.78</course>
  <speed>0.47010637094172636</speed>
  <fix>3d</fix>
</trkpt>
<trkpt lat="33.8101053" lon="-118.393867">
  <ele>-14.76</ele>
  <time>2026-09-02T22:13:13Z</time>
  <course>179.45</course>
  <speed>0.5</speed>
  <fix>3d</fix>
</trkpt>
<trkpt lat="33.810104" lon="-118.3938671">
  <ele>-15.131</ele>
  <time>2026-09-02T22:13:13Z</time>
  <course>184.78</course>
  <speed>0.47010637094172636</speed>
  <fix>3d</fix>
</trkpt>
<trkpt lat="33.8101044" lon="-118.393867">
  <ele>-14.76</ele>
  <time>2026-09-02T22:13:13Z</time>
  <course>179.38</course>
  <speed>0.5</speed>
  <fix>3d</fix>
</trkpt>
<trkpt lat="33.8101035" lon="-118.3938671">
  <ele>-15.132</ele>
  <time>2026-09-02T22:13:13Z</time>
  <course>184.78</course>
  <speed>0.47010637094172636</speed>
  <fix>3d</fix>
</trkpt>
<trkpt lat="33.8101044" lon="-118.393867">
  <ele>-14.76</ele>
  <time>2026-09-02T22:13:13Z</time>
  <course>179.38</course>
  <speed>0.5</speed>
  <fix>3d</fix>
</trkpt>
<trkpt lat="33.8101031" lon="-118.3938671">
  <ele>-15.132</ele>
  <time>2026-09-02T22:13:13Z</time>
  <course>184.78</course>
  <speed>0.47010637094172636</speed>
  <fix>3d</fix>
</trkpt>
<trkpt lat="33.8101035" lon="-118.393867">
  <ele>-14.77</ele>
  <time>2026-09-02T22:13:13Z</time>
  <course>179.32</course>
  <speed>0.5</speed>
  <fix>3d</fix>
</trkpt>
<trkpt lat="33.8101026" lon="-118.3938671">
  <ele>-15.133</ele>
  <time>2026-09-02T22:13:13Z</time>
  <course>184.78</course>
  <speed>0.47010637094172636</speed>
  <fix>3d</fix>
</trkpt>
<trkpt lat="33.8101035" lon="-118.393867">
  <ele>-14.77</ele>
  <time>2026-09-02T22:13:13Z</time>
  <course>179.32</course>
  <speed>0.5</speed>
  <fix>3d</fix>
</trkpt>
<trkpt lat="33.8101022" lon="-118.3938671">
  <ele>-15.133</ele>
  <time>2026-09-02T22:13:13Z</time>
  <course>184.78</course>
  <speed>0.47010637094172636</speed>
  <fix>3d</fix>
</trkpt>
<trkpt lat="33.8101026" lon="-118.393867">
  <ele>-14.77</ele>
  <time>2026-09-02T22:13:13Z</time>
  <course>179.27</course>
  <speed>0.49</speed>
  <fix>3d</fix>
</trkpt>
<trkpt lat="33.8101017" lon="-118.3938671">
  <ele>-15.133</ele>
  <time>2026-09-02T22:13:13Z</time>
  <course>184.78</course>
  <speed>0.47010637094172636</speed>
  <fix>3d</fix>
</trkpt>
<trkpt lat="33.8101026" lon="-118.393867">
  <ele>-14.77</ele>
  <time>2026-09-02T22:13:13Z</time>
  <course>179.27</course>
  <speed>0.49</speed>
  <fix>3d</fix>
</trkpt>
<trkpt lat="33.8101013" lon="-118.3938671">
  <ele>-15.133</ele>
  <time>2026-09-02T22:13:13Z</time>
  <course>184.78</course>
  <speed>0.47010637094172636</speed>
  <fix>3d</fix>
</trkpt>
<trkpt lat="33.8101017" lon="-118.393867">
  <ele>-14.77</ele>
  <time>2026-09-02T22:13:13Z</time>
  <course>179.23</course>
  <speed>0.49</speed>
  <fix>3d</fix>
</trkpt>
<trkpt lat="33.8101008" lon="-118.3938671">
  <ele>-15.132</ele>
  <time>2026-09-02T22:13:13Z</time>
  <course>184.78</course>
  <speed>0.47010637094172636</speed>
  <fix>3d</fix>
</trkpt>
<trkpt lat="33.8101017" lon="-118.393867">
  <ele>-14.77</ele>
  <time>2026-09-02T22:13:13Z</time>
  <course>179.23</course>
  <speed>0.49</speed>
  <fix>3d</fix>
</trkpt>
<trkpt lat="33.8101004" lon="-118.3938671">
  <ele>-15.131</ele>
  <time>2026-09-02T22:13:13Z</time>
  <course>184.78</course>
  <speed>0.47010637094172636</speed>
  <fix>3d</fix>
</trkpt>
<trkpt lat="33.8101008" lon="-118.393867">
  <ele>-14.76</ele>
  <time>2026-09-02T22:13:13Z</time>
  <course>179.18</course>
  <speed>0.49</speed>
  <fix>3d</fix>
</trkpt>
<trkpt lat="33.8100999" lon="-118.3938671">
  <ele>-15.129</ele>
  <time>2026-09-02T22:13:13Z</time>
  <course>184.78</course>
  <speed>0.47010637094172636</speed>
  <fix>3d</fix>
</trkpt>
<trkpt lat="33.8101008" lon="-118.393867">
  <ele>-14.76</ele>
  <time>2026-09-02T22:13:13Z</time>
  <course>179.18</course>
  <speed>0.49</speed>
  <fix>3d</fix>
</trkpt>
<trkpt lat="33.8100995" lon="-118.3938671">
  <ele>-15.128</ele>
  <time>2026-09-02T22:13:13Z</time>
  <course>184.78</course>
  <speed>0.47010637094172636</speed>
  <fix>3d</fix>
</trkpt>
<trkpt lat="33.8100999" lon="-118.3938669">
  <ele>-14.76</ele>
  <time>2026-09-02T22:13:13Z</time>
  <course>179.15</course>
  <speed>0.49</speed>
  <fix>3d</fix>
</trkpt>
<trkpt lat="33.810099" lon="-118.3938671">
  <ele>-15.127</ele>
  <time>2026-09-02T22:13:13Z</time>
  <course>184.77</course>
  <speed>0.47010637094172636</speed>
  <fix>3d</fix>
</trkpt>
<trkpt lat="33.8100999" lon="-118.3938669">
  <ele>-14.76</ele>
  <time>2026-09-02T22:13:13Z</time>
  <course>179.15</course>
  <speed>0.49</speed>
  <fix>3d</fix>
</trkpt>
<trkpt lat="33.8100986" lon="-118.3938671">
  <ele>-15.127</ele>
  <time>2026-09-02T22:13:13Z</time>
  <course>184.78</course>
  <speed>0.47010637094172636</speed>
  <fix>3d</fix>
</trkpt>
<trkpt lat="33.810099" lon="-118.3938669">
  <ele>-14.76</ele>
  <time>2026-09-02T22:13:13Z</time>
  <course>179.19</course>
  <speed>0.5</speed>
  <fix>3d</fix>
</trkpt>
<trkpt lat="33.8100981" lon="-118.3938671">
  <ele>-15.128</ele>
  <time>2026-09-02T22:13:13Z</time>
  <course>184.78</course>
  <speed>0.47010637094172636</speed>
  <fix>3d</fix>
</trkpt>
<trkpt lat="33.810099" lon="-118.3938669">
  <ele>-14.76</ele>
  <time>2026-09-02T22:13:13Z</time>
  <course>179.19</course>
  <speed>0.5</speed>
  <fix>3d</fix>
</trkpt>
<trkpt lat="33.8100977" lon="-118.3938671">
  <ele>-15.129</ele>
  <time>2026-09-02T22:13:13Z</time>
  <course>184.78</course>
  <speed>0.47010637094172636</speed>
  <fix>3d</fix>
</trkpt>
<trkpt lat="33.8100981" lon="-118.3938669">
  <ele>-14.76</ele>
  <time>2026-09-02T22:13:13Z</time>
  <course>179.32</course>
  <speed>0.5</speed>
  <fix>3d</fix>
</trkpt>
<trkpt lat="33.8100973" lon="-118.3938671">
  <ele>-15.131</ele>
  <time>2026-09-02T22:13:13Z</time>
  <course>184.77</course>
  <speed>0.47010637094172636</speed>
  <fix>3d</fix>
</trkpt>
<trkpt lat="33.8100981" lon="-118.3938669">
  <ele>-14.76</ele>
  <time>2026-09-02T22:13:13Z</time>
  <course>179.32</course>
  <speed>0.5</speed>
  <fix>3d</fix>
</trkpt>
<trkpt lat="33.8100968" lon="-118.3938671">
  <ele>-15.132</ele>
  <time>2026-09-02T22:13:13Z</time>
  <course>184.77</course>
  <speed>0.47010637094172636</speed>
  <fix>3d</fix>
</trkpt>
<trkpt lat="33.8100972" lon="-118.3938669">
  <ele>-14.76</ele>
  <time>2026-09-02T22:13:13Z</time>
  <course>179.46</course>
  <speed>0.5</speed>
  <fix>3d</fix>
</trkpt>
<trkpt lat="33.8100964" lon="-118.3938671">
  <ele>-15.133</ele>
  <time>2026-09-02T22:13:13Z</time>
  <course>184.77</course>
  <speed>0.47010637094172636</speed>
  <fix>3d</fix>
</trkpt>
<trkpt lat="33.8100972" lon="-118.3938669">
  <ele>-14.76</ele>
  <time>2026-09-02T22:13:13Z</time>
  <course>179.46</course>
  <speed>0.5</speed>
  <fix>3d</fix>
</trkpt>
<trkpt lat="33.8100959" lon="-118.3938671">
  <ele>-15.134</ele>
  <time>2026-09-02T22:13:13Z</time>
  <course>184.77</course>
  <speed>0.47010637094172636</speed>
  <fix>3d</fix>
</trkpt>
<trkpt lat="33.8100963" lon="-118.3938669">
  <ele>-14.76</ele>
  <time>2026-09-02T22:13:13Z</time>
  <course>179.58</course>
  <speed>0.5</speed>
  <fix>3d</fix>
</trkpt>
<trkpt lat="33.8100955" lon="-118.3938671">
  <ele>-15.133</ele>
  <time>2026-09-02T22:13:13Z</time>
  <course>184.77</course>
  <speed>0.47010637094172636</speed>
  <fix>3d</fix>
</trkpt>
<trkpt lat="33.8100963" lon="-118.3938669">
  <ele>-14.76</ele>
  <time>2026-09-02T22:13:13Z</time>
  <course>179.58</course>
  <speed>0.5</speed>
  <fix>3d</fix>
</trkpt>
<trkpt lat="33.810095" lon="-118.3938671">
  <ele>-15.132</ele>
  <time>2026-09-02T22:13:13Z</time>
  <course>184.77</course>
  <speed>0.47010637094172636</speed>
  <fix>3d</fix>
</trkpt>
<trkpt lat="33.8100954" lon="-118.3938669">
  <ele>-14.76</ele>
  <time>2026-09-02T22:13:13Z</time>
  <course>179.66</course>
  <speed>0.5</speed>
  <fix>3d</fix>
</trkpt>
<trkpt lat="33.8100946" lon="-118.3938671">
  <ele>-15.131</ele>
  <time>2026-09-02T22:13:13Z</time>
  <course>184.77</course>
  <speed>0.47010637094172636</speed>
  <fix>3d</fix>
</trkpt>
<trkpt lat="33.8100954" lon="-118.3938669">
  <ele>-14.76</ele>
  <time>2026-09-02T22:13:13Z</time>
  <course>179.66</course>
  <speed>0.5</speed>
  <fix>3d</fix>
</trkpt>
<trkpt lat="33.8100941" lon="-118.3938671">
  <ele>-15.13</ele>
  <time>2026-09-02T22:13:13Z</time>
  <course>184.77</course>
  <speed>0.47010637094172636</speed>
  <fix>3d</fix>
</trkpt>
<trkpt lat="33.8100945" lon="-118.3938669">
  <ele>-14.76</ele>
  <time>2026-09-02T22:13:13Z</time>
  <course>179.7</course>
  <speed>0.5</speed>
  <fix>3d</fix>
</trkpt>
<trkpt lat="33.8100937" lon="-118.3938671">
  <ele>-15.128</ele>
  <time>2026-09-02T22:13:13Z</time>
  <course>184.78</course>
  <speed>0.47010637094172636</speed>
  <fix>3d</fix>
</trkpt>
<trkpt lat="33.8100945" lon="-118.3938669">
  <ele>-14.76</ele>
  <time>2026-09-02T22:13:13Z</time>
  <course>179.7</course>
  <speed>0.5</speed>
  <fix>3d</fix>
</trkpt>
<trkpt lat="33.8100932" lon="-118.3938671">
  <ele>-15.126</ele>
  <time>2026-09-02T22:13:13Z</time>
  <course>184.78</course>
  <speed>0.47010637094172636</speed>
  <fix>3d</fix>
</trkpt>
<trkpt lat="33.8100936" lon="-118.3938669">
  <ele>-14.75</ele>
  <time>2026-09-02T22:13:13Z</time>
  <course>179.7</course>
  <speed>0.5</speed>
  <fix>3d</fix>
</trkpt>
<trkpt lat="33.8100928" lon="-118.3938671">
  <ele>-15.126</ele>
  <time>2026-09-02T22:13:13Z</time>
  <course>184.77</course>
  <speed>0.47010637094172636</speed>
  <fix>3d</fix>
</trkpt>
<trkpt lat="33.8100936" lon="-118.3938669">
  <ele>-14.75</ele>
  <time>2026-09-02T22:13:13Z</time>
  <course>179.7</course>
  <speed>0.5</speed>
  <fix>3d</fix>
</trkpt>
<trkpt lat="33.8100923" lon="-118.3938671">
  <ele>-15.127</ele>
  <time>2026-09-02T22:13:13Z</time>
  <course>184.77</course>
  <speed>0.47010637094172636</speed>
  <fix>3d</fix>
</trkpt>
<trkpt lat="33.8100927" lon="-118.3938669">
  <ele>-14.75</ele>
  <time>2026-09-02T22:13:13Z</time>
  <course>179.69</course>
  <speed>0.5</speed>
  <fix>3d</fix>
</trkpt>
<trkpt lat="33.8100919" lon="-118.3938671">
  <ele>-15.127</ele>
  <time>2026-09-02T22:13:13Z</time>
  <course>184.77</course>
  <speed>0.47010637094172636</speed>
  <fix>3d</fix>
</trkpt>
<trkpt lat="33.8100927" lon="-118.3938669">
  <ele>-14.75</ele>
  <time>2026-09-02T22:13:13Z</time>
  <course>179.69</course>
  <speed>0.5</speed>
  <fix>3d</fix>
</trkpt>
<trkpt lat="33.8100914" lon="-118.3938671">
  <ele>-15.128</ele>
  <time>2026-09-02T22:13:13Z</time>
  <course>184.78</course>
  <speed>0.47010637094172636</speed>
  <fix>3d</fix>
</trkpt>
<trkpt lat="33.8100918" lon="-118.3938669">
  <ele>-14.75</ele>
  <time>2026-09-02T22:13:13Z</time>
  <course>179.69</course>
  <speed>0.5</speed>
  <fix>3d</fix>
</trkpt>
<trkpt lat="33.810091" lon="-118.3938671">
  <ele>-15.128</ele>
  <time>2026-09-02T22:13:13Z</time>
  <course>184.78</course>
  <speed>0.47010637094172636</speed>
  <fix>3d</fix>
</trkpt>
<trkpt lat="33.8100918" lon="-118.3938669">
  <ele>-14.75</ele>
  <time>2026-09-02T22:13:13Z</time>
  <course>179.69</course>
  <speed>0.5</speed>
  <fix>3d</fix>
</trkpt>
<trkpt lat="33.8100905" lon="-118.3938671">
  <ele>-15.129</ele>
  <time>2026-09-02T22:13:13Z</time>
  <course>184.78</course>
  <speed>0.47010637094172636</speed>
  <fix>3d</fix>
</trkpt>
<trkpt lat="33.8100909" lon="-118.3938669">
  <ele>-14.76</ele>
  <time>2026-09-02T22:13:13Z</time>
  <course>179.68</course>
  <speed>0.5</speed>
  <fix>3d</fix>
</trkpt>
<trkpt lat="33.8100901" lon="-118.3938671">
  <ele>-15.129</ele>
  <time>2026-09-02T22:13:13Z</time>
  <course>184.78</course>
  <speed>0.47010637094172636</speed>
  <fix>3d</fix>
</trkpt>
<trkpt lat="33.8100909" lon="-118.3938669">
  <ele>-14.76</ele>
  <time>2026-09-02T22:13:13Z</time>
  <course>179.68</course>
  <speed>0.5</speed>
  <fix>3d</fix>
</trkpt>
<trkpt lat="33.8100896" lon="-118.3938671">
  <ele>-15.13</ele>
  <time>2026-09-02T22:13:13Z</time>
  <course>184.78</course>
  <speed>0.47010637094172636</speed>
  <fix>3d</fix>
</trkpt>
<trkpt lat="33.81009" lon="-118.3938669">
  <ele>-14.76</ele>
  <time>2026-09-02T22:13:13Z</time>
  <course>179.68</course>
  <speed>0.5</speed>
  <fix>3d</fix>
</trkpt>
<trkpt lat="33.8100892" lon="-118.3938671">
  <ele>-15.132</ele>
  <time>2026-09-02T22:13:13Z</time>
  <course>184.78</course>
  <speed>0.47010637094172636</speed>
  <fix>3d</fix>
</trkpt>
<trkpt lat="33.81009" lon="-118.3938669">
  <ele>-14.76</ele>
  <time>2026-09-02T22:13:13Z</time>
  <course>179.68</course>
  <speed>0.5</speed>
  <fix>3d</fix>
</trkpt>
<trkpt lat="33.8100887" lon="-118.3938671">
  <ele>-15.131</ele>
  <time>2026-09-02T22:13:13Z</time>
  <course>184.78</course>
  <speed>0.47010637094172636</speed>
  <fix>3d</fix>
</trkpt>
<trkpt lat="33.8100891" lon="-118.3938668">
  <ele>-14.76</ele>
  <time>2026-09-02T22:13:13Z</time>
  <course>179.67</course>
  <speed>0.5</speed>
  <fix>3d</fix>
</trkpt>
<trkpt lat="33.8100883" lon="-118.3938671">
  <ele>-15.13</ele>
  <time>2026-09-02T22:13:13Z</time>
  <course>184.78</course>
  <speed>0.47010637094172636</speed>
  <fix>3d</fix>
</trkpt>
<trkpt lat="33.8100891" lon="-118.3938668">
  <ele>-14.76</ele>
  <time>2026-09-02T22:13:13Z</time>
  <course>179.67</course>
  <speed>0.5</speed>
  <fix>3d</fix>
</trkpt>
<trkpt lat="33.8100878" lon="-118.3938671">
  <ele>-15.129</ele>
  <time>2026-09-02T22:13:13Z</time>
  <course>184.78</course>
  <speed>0.47010637094172636</speed>
  <fix>3d</fix>
</trkpt>
<trkpt lat="33.8100882" lon="-118.3938668">
  <ele>-14.76</ele>
  <time>2026-09-02T22:13:13Z</time>
  <course>179.73</course>
  <speed>0.5</speed>
  <fix>3d</fix>
</trkpt>
<trkpt lat="33.8100874" lon="-118.3938671">
  <ele>-15.129</ele>
  <time>2026-09-02T22:13:13Z</time>
  <course>184.78</course>
  <speed>0.47010637094172636</speed>
  <fix>3d</fix>
</trkpt>
<trkpt lat="33.8100882" lon="-118.3938668">
  <ele>-14.76</ele>
  <time>2026-09-02T22:13:13Z</time>
  <course>179.73</course>
  <speed>0.5</speed>
  <fix>3d</fix>
</trkpt>
<trkpt lat="33.8100869" lon="-118.3938671">
  <ele>-15.129</ele>
  <time>2026-09-02T22:13:13Z</time>
  <course>184.78</course>
  <speed>0.47010637094172636</speed>
  <fix>3d</fix>
</trkpt>
<trkpt lat="33.8100873" lon="-118.3938668">
  <ele>-14.76</ele>
  <time>2026-09-02T22:13:13Z</time>
  <course>179.9</course>
  <speed>0.5</speed>
  <fix>3d</fix>
</trkpt>
<trkpt lat="33.8100865" lon="-118.3938671">
  <ele>-15.129</ele>
  <time>2026-09-02T22:13:13Z</time>
  <course>184.78</course>
  <speed>0.470425339453563</speed>
  <fix>3d</fix>
</trkpt>
<trkpt lat="33.8100873" lon="-118.3938668">
  <ele>-14.76</ele>
  <time>2026-09-02T22:13:13Z</time>
  <course>179.9</course>
  <speed>0.5</speed>
  <fix>3d</fix>
</trkpt>
<trkpt lat="33.810086" lon="-118.3938671">
  <ele>-15.129</ele>
  <time>2026-09-02T22:13:13Z</time>
  <course>184.78</course>
  <speed>0.470425339453563</speed>
  <fix>3d</fix>
</trkpt>
<trkpt lat="33.8100864" lon="-118.3938668">
  <ele>-14.76</ele>
  <time>2026-09-02T22:13:13Z</time>
  <course>180.1</course>
  <speed>0.5</speed>
  <fix>3d</fix>
</trkpt>
<trkpt lat="33.8100856" lon="-118.3938671">
  <ele>-15.129</ele>
  <time>2026-09-02T22:13:13Z</time>
  <course>184.78</course>
  <speed>0.470425339453563</speed>
  <fix>3d</fix>
</trkpt>
<trkpt lat="33.8100864" lon="-118.3938668">
  <ele>-14.76</ele>
  <time>2026-09-02T22:13:13Z</time>
  <course>180.1</course>
  <speed>0.5</speed>
  <fix>3d</fix>
</trkpt>
<trkpt lat="33.8100851" lon="-118.3938671">
  <ele>-15.13</ele>
  <time>2026-09-02T22:13:13Z</time>
  <course>184.78</course>
  <speed>0.470425339453563</speed>
  <fix>3d</fix>
</trkpt>
<trkpt lat="33.8100855" lon="-118.3938668">
  <ele>-14.76</ele>
  <time>2026-09-02T22:13:13Z</time>
  <course>180.26</course>
  <speed>0.5</speed>
  <fix>3d</fix>
</trkpt>
<trkpt lat="33.8100847" lon="-118.3938671">
  <ele>-15.131</ele>
  <time>2026-09-02T22:13:13Z</time>
  <course>184.78</course>
  <speed>0.470425339453563</speed>
  <fix>3d</fix>
</trkpt>
<trkpt lat="33.8100855" lon="-118.3938668">
  <ele>-14.76</ele>
  <time>2026-09-02T22:13:13Z</time>
  <course>180.26</course>
  <speed>0.5</speed>
  <fix>3d</fix>
</trkpt>
<trkpt lat="33.8100842" lon="-118.3938671">
  <ele>-15.132</ele>
  <time>2026-09-02T22:13:13Z</time>
  <course>184.78</course>
  <speed>0.470425339453563</speed>
  <fix>3d</fix>
</trkpt>
<trkpt lat="33.8100846" lon="-118.3938668">
  <ele>-14.76</ele>
  <time>2026-09-02T22:13:13Z</time>
  <course>180.4</course>
  <speed>0.5</speed>
  <fix>3d</fix>
</trkpt>
<trkpt lat="33.8100838" lon="-118.3938671">
  <ele>-15.132</ele>
  <time>2026-09-02T22:13:13Z</time>
  <course>184.78</course>
  <speed>0.470425339453563</speed>
  <fix>3d</fix>
</trkpt>
<trkpt lat="33.8100846" lon="-118.3938668">
  <ele>-14.76</ele>
  <time>2026-09-02T22:13:13Z</time>
  <course>180.4</course>
  <speed>0.5</speed>
  <fix>3d</fix>
</trkpt>
<trkpt lat="33.8100833" lon="-118.3938671">
  <ele>-15.133</ele>
  <time>2026-09-02T22:13:13Z</time>
  <course>184.78</course>
  <speed>0.470425339453563</speed>
  <fix>3d</fix>
</trkpt>
<trkpt lat="33.8100837" lon="-118.3938668">
  <ele>-14.76</ele>
  <time>2026-09-02T22:13:13Z</time>
  <course>180.5</course>
  <speed>0.5</speed>
  <fix>3d</fix>
</trkpt>
<trkpt lat="33.8100829" lon="-118.3938671">
  <ele>-15.133</ele>
  <time>2026-09-02T22:13:13Z</time>
  <course>184.77</course>
  <speed>0.470425339453563</speed>
  <fix>3d</fix>
</trkpt>
<trkpt lat="33.8100837" lon="-118.3938668">
  <ele>-14.76</ele>
  <time>2026-09-02T22:13:13Z</time>
  <course>180.5</course>
  <speed>0.5</speed>
  <fix>3d</fix>
</trkpt>
<trkpt lat="33.8100824" lon="-118.3938671">
  <ele>-15.132</ele>
  <time>2026-09-02T22:13:13Z</time>
  <course>184.77</course>
  <speed>0.470425339453563</speed>
  <fix>3d</fix>
</trkpt>
<trkpt lat="33.8100827" lon="-118.3938668">
  <ele>-14.75</ele>
  <time>2026-09-02T22:13:13Z</time>
  <course>180.55</course>
  <speed>0.5</speed>
  <fix>3d</fix>
</trkpt>
<trkpt lat="33.810082" lon="-118.3938671">
  <ele>-15.131</ele>
  <time>2026-09-02T22:13:13Z</time>
  <course>184.78</course>
  <speed>0.470425339453563</speed>
  <fix>3d</fix>
</trkpt>
<trkpt lat="33.8100827" lon="-118.3938668">
  <ele>-14.75</ele>
  <time>2026-09-02T22:13:13Z</time>
  <course>180.55</course>
  <speed>0.5</speed>
  <fix>3d</fix>
</trkpt>
<trkpt lat="33.8100815" lon="-118.3938671">
  <ele>-15.13</ele>
  <time>2026-09-02T22:13:13Z</time>
  <course>184.78</course>
  <speed>0.470425339453563</speed>
  <fix>3d</fix>
</trkpt>
<trkpt lat="33.8100818" lon="-118.3938668">
  <ele>-14.75</ele>
  <time>2026-09-02T22:13:13Z</time>
  <course>180.61</course>
  <speed>0.5</speed>
  <fix>3d</fix>
</trkpt>
<trkpt lat="33.8100811" lon="-118.3938671">
  <ele>-15.128</ele>
  <time>2026-09-02T22:13:13Z</time>
  <course>184.78</course>
  <speed>0.470425339453563</speed>
  <fix>3d</fix>
</trkpt>
<trkpt lat="33.8100818" lon="-118.3938668">
  <ele>-14.75</ele>
  <time>2026-09-02T22:13:13Z</time>
  <course>180.61</course>
  <speed>0.5</speed>
  <fix>3d</fix>
</trkpt>
<trkpt lat="33.8100806" lon="-118.3938671">
  <ele>-15.127</ele>
  <time>2026-09-02T22:13:13Z</time>
  <course>184.78</course>
  <speed>0.470425339453563</speed>
  <fix>3d</fix>
</trkpt>
<trkpt lat="33.8100809" lon="-118.3938668">
  <ele>-14.75</ele>
  <time>2026-09-02T22:13:13Z</time>
  <course>180.67</course>
  <speed>0.49</speed>
  <fix>3d</fix>
</trkpt>
<trkpt lat="33.8100802" lon="-118.3938671">
  <ele>-15.125</ele>
  <time>2026-09-02T22:13:13Z</time>
  <course>184.78</course>
  <speed>0.470425339453563</speed>
  <fix>3d</fix>
</trkpt>
<trkpt lat="33.8100809" lon="-118.3938668">
  <ele>-14.75</ele>
  <time>2026-09-02T22:13:13Z</time>
  <course>180.67</course>
  <speed>0.49</speed>
  <fix>3d</fix>
</trkpt>
<trkpt lat="33.8100797" lon="-118.3938671">
  <ele>-15.123</ele>
  <time>2026-09-02T22:13:13Z</time>
  <course>184.78</course>
  <speed>0.470425339453563</speed>
  <fix>3d</fix>
</trkpt>
<trkpt lat="33.81008" lon="-118.3938668">
  <ele>-14.75</ele>
  <time>2026-09-02T22:13:13Z</time>
  <course>180.69</course>
  <speed>0.49</speed>
  <fix>3d</fix>
</trkpt>
<trkpt lat="33.8100792" lon="-118.3938671">
  <ele>-15.123</ele>
  <time>2026-09-02T22:13:13Z</time>
  <course>184.78</course>
  <speed>0.470425339453563</speed>
  <fix>3d</fix>
</trkpt>
<trkpt lat="33.81008" lon="-118.3938668">
  <ele>-14.75</ele>
  <time>2026-09-02T22:13:13Z</time>
  <course>180.69</course>
  <speed>0.49</speed>
  <fix>3d</fix>
</trkpt>
<trkpt lat="33.8100788" lon="-118.3938671">
  <ele>-15.124</ele>
  <time>2026-09-02T22:13:13Z</time>
  <course>184.78</course>
  <speed>0.470425339453563</speed>
  <fix>3d</fix>
</trkpt>
<trkpt lat="33.8100792" lon="-118.3938668">
  <ele>-14.75</ele>
  <time>2026-09-02T22:13:13Z</time>
  <course>180.73</course>
  <speed>0.49</speed>
  <fix>3d</fix>
</trkpt>
<trkpt lat="33.8100784" lon="-118.3938671">
  <ele>-15.126</ele>
  <time>2026-09-02T22:13:13Z</time>
  <course>184.78</course>
  <speed>0.470425339453563</speed>
  <fix>3d</fix>
</trkpt>
<trkpt lat="33.8100792" lon="-118.3938668">
  <ele>-14.75</ele>
  <time>2026-09-02T22:13:13Z</time>
  <course>180.73</course>
  <speed>0.49</speed>
  <fix>3d</fix>
</trkpt>
<trkpt lat="33.8100779" lon="-118.3938671">
  <ele>-15.128</ele>
  <time>2026-09-02T22:13:13Z</time>
  <course>184.78</course>
  <speed>0.470425339453563</speed>
  <fix>3d</fix>
</trkpt>
<trkpt lat="33.8100783" lon="-118.3938668">
  <ele>-14.75</ele>
  <time>2026-09-02T22:13:13Z</time>
  <course>180.77</course>
  <speed>0.49</speed>
  <fix>3d</fix>
</trkpt>
<trkpt lat="33.8100775" lon="-118.3938671">
  <ele>-15.129</ele>
  <time>2026-09-02T22:13:13Z</time>
  <course>184.78</course>
  <speed>0.470425339453563</speed>
  <fix>3d</fix>
</trkpt>
<trkpt lat="33.8100783" lon="-118.3938668">
  <ele>-14.75</ele>
  <time>2026-09-02T22:13:13Z</time>
  <course>180.77</course>
  <speed>0.49</speed>
  <fix>3d</fix>
</trkpt>
<trkpt lat="33.810077" lon="-118.3938671">
  <ele>-15.13</ele>
  <time>2026-09-02T22:13:13Z</time>
  <course>184.78</course>
  <speed>0.470425339453563</speed>
  <fix>3d</fix>
</trkpt>
<trkpt lat="33.8100774" lon="-118.3938668">
  <ele>-14.75</ele>
  <time>2026-09-02T22:13:13Z</time>
  <course>180.79</course>
  <speed>0.49</speed>
  <fix>3d</fix>
</trkpt>
<trkpt lat="33.8100766" lon="-118.3938671">
  <ele>-15.131</ele>
  <time>2026-09-02T22:13:13Z</time>
  <course>184.78</course>
  <speed>0.470425339453563</speed>
  <fix>3d</fix>
</trkpt>
<trkpt lat="33.8100774" lon="-118.3938668">
  <ele>-14.75</ele>
  <time>2026-09-02T22:13:13Z</time>
  <course>180.79</course>
  <speed>0.49</speed>
  <fix>3d</fix>
</trkpt>
<trkpt lat="33.8100761" lon="-118.3938671">
  <ele>-15.131</ele>
  <time>2026-09-02T22:13:13Z</time>
  <course>184.78</course>
  <speed>0.470425339453563</speed>
  <fix>3d</fix>
</trkpt>
<trkpt lat="33.8100765" lon="-118.3938669">
  <ele>-14.76</ele>
  <time>2026-09-02T22:13:13Z</time>
  <course>180.81</course>
  <speed>0.49</speed>
  <fix>3d</fix>
</trkpt>
<trkpt lat="33.8100757" lon="-118.3938671">
  <ele>-15.13</ele>
  <time>2026-09-02T22:13:13Z</time>
  <course>184.78</course>
  <speed>0.47010637094172636</speed>
  <fix>3d</fix>
</trkpt>
<trkpt lat="33.8100765" lon="-118.3938669">
  <ele>-14.76</ele>
  <time>2026-09-02T22:13:13Z</time>
  <course>180.81</course>
  <speed>0.49</speed>
  <fix>3d</fix>
</trkpt>
<trkpt lat="33.8100752" lon="-118.3938671">
  <ele>-15.129</ele>
  <time>2026-09-02T22:13:13Z</time>
  <course>184.78</course>
  <speed>0.47010637094172636</speed>
  <fix>3d</fix>
</trkpt>
<trkpt lat="33.8100756" lon="-118.3938669">
  <ele>-14.76</ele>
  <time>2026-09-02T22:13:13Z</time>
  <course>180.76</course>
  <speed>0.49</speed>
  <fix>3d</fix>
</trkpt>
<trkpt lat="33.8100748" lon="-118.3938671">
  <ele>-15.128</ele>
  <time>2026-09-02T22:13:13Z</time>
  <course>184.78</course>
  <speed>0.47010637094172636</speed>
  <fix>3d</fix>
</trkpt>
<trkpt lat="33.8100756" lon="-118.3938669">
  <ele>-14.76</ele>
  <time>2026-09-02T22:13:13Z</time>
  <course>180.76</course>
  <speed>0.49</speed>
  <fix>3d</fix>
</trkpt>
<trkpt lat="33.8100743" lon="-118.3938671">
  <ele>-15.127</ele>
  <time>2026-09-02T22:13:13Z</time>
  <course>184.78</course>
  <speed>0.47010637094172636</speed>
  <fix>3d</fix>
</trkpt>
<trkpt lat="33.8100747" lon="-118.3938669">
  <ele>-14.76</ele>
  <time>2026-09-02T22:13:13Z</time>
  <course>180.6</course>
  <speed>0.49</speed>
  <fix>3d</fix>
</trkpt>
<trkpt lat="33.8100739" lon="-118.3938671">
  <ele>-15.128</ele>
  <time>2026-09-02T22:13:13Z</time>
  <course>184.78</course>
  <speed>0.47010637094172636</speed>
  <fix>3d</fix>
</trkpt>
<trkpt lat="33.8100747" lon="-118.3938669">
  <ele>-14.76</ele>
  <time>2026-09-02T22:13:13Z</time>
  <course>180.6</course>
  <speed>0.49</speed>
  <fix>3d</fix>
</trkpt>
<trkpt lat="33.8100734" lon="-118.3938671">
  <ele>-15.129</ele>
  <time>2026-09-02T22:13:13Z</time>
  <course>184.78</course>
  <speed>0.47010637094172636</speed>
  <fix>3d</fix>
</trkpt>
<trkpt lat="33.8100738" lon="-118.3938669">
  <ele>-14.76</ele>
  <time>2026-09-02T22:13:13Z</time>
  <course>180.43</course>
  <speed>0.49</speed>
  <fix>3d</fix>
</trkpt>
<trkpt lat="33.810073" lon="-118.3938671">
  <ele>-15.131</ele>
  <time>2026-09-02T22:13:13Z</time>
  <course>184.77</course>
  <speed>0.47010637094172636</speed>
  <fix>3d</fix>
</trkpt>
<trkpt lat="33.8100738" lon="-118.3938669">
  <ele>-14.76</ele>
  <time>2026-09-02T22:13:13Z</time>
  <course>180.43</course>
  <speed>0.49</speed>
  <fix>3d</fix>
</trkpt>
<trkpt lat="33.8100725" lon="-118.3938671">
  <ele>-15.13</ele>
  <time>2026-09-02T22:13:13Z</time>
  <course>184.78</course>
  <speed>0.47010637094172636</speed>
  <fix>3d</fix>
</trkpt>
<trkpt lat="33.8100729" lon="-118.3938669">
  <ele>-14.76</ele>
  <time>2026-09-02T22:13:13Z</time>
  <course>180.3</course>
  <speed>0.49</speed>
  <fix>3d</fix>
</trkpt>
<trkpt lat="33.8100721" lon="-118.3938671">
  <ele>-15.13</ele>
  <time>2026-09-02T22:13:13Z</time>
  <course>184.78</course>
  <speed>0.47010637094172636</speed>
  <fix>3d</fix>
</trkpt>
<trkpt lat="33.8100729" lon="-118.3938669">
  <ele>-14.76</ele>
  <time>2026-09-02T22:13:13Z</time>
  <course>180.3</course>
  <speed>0.49</speed>
  <fix>3d</fix>
</trkpt>
<trkpt lat="33.8100716" lon="-118.3938671">
  <ele>-15.13</ele>
  <time>2026-09-02T22:13:13Z</time>
  <course>184.78</course>
  <speed>0.47010637094172636</speed>
  <fix>3d</fix>
</trkpt>
<trkpt lat="33.810072" lon="-118.3938669">
  <ele>-14.76</ele>
  <time>2026-09-02T22:13:13Z</time>
  <course>180.23</course>
  <speed>0.49</speed>
  <fix>3d</fix>
</trkpt>
<trkpt lat="33.8100712" lon="-118.3938671">
  <ele>-15.129</ele>
  <time>2026-09-02T22:13:13Z</time>
  <course>184.78</course>
  <speed>0.47010637094172636</speed>
  <fix>3d</fix>
</trkpt>
<trkpt lat="33.810072" lon="-118.3938669">
  <ele>-14.76</ele>
  <time>2026-09-02T22:13:13Z</time>
  <course>180.23</course>
  <speed>0.49</speed>
  <fix>3d</fix>
</trkpt>
<trkpt lat="33.8100707" lon="-118.3938671">
  <ele>-15.129</ele>
  <time>2026-09-02T22:13:13Z</time>
  <course>184.78</course>
  <speed>0.47010637094172636</speed>
  <fix>3d</fix>
</trkpt>
<trkpt lat="33.8100711" lon="-118.3938669">
  <ele>-14.76</ele>
  <time>2026-09-02T22:13:13Z</time>
  <course>180.19</course>
  <speed>0.49</speed>
  <fix>3d</fix>
</trkpt>
<trkpt lat="33.8100703" lon="-118.3938671">
  <ele>-15.128</ele>
  <time>2026-09-02T22:13:13Z</time>
  <course>184.78</course>
  <speed>0.47010637094172636</speed>
  <fix>3d</fix>
</trkpt>
<trkpt lat="33.8100711" lon="-118.3938669">
  <ele>-14.76</ele>
  <time>2026-09-02T22:13:13Z</time>
  <course>180.19</course>
  <speed>0.49</speed>
  <fix>3d</fix>
</trkpt>
<trkpt lat="33.8100698" lon="-118.3938671">
  <ele>-15.127</ele>
  <time>2026-09-02T22:13:13Z</time>
  <course>184.78</course>
  <speed>0.47010637094172636</speed>
  <fix>3d</fix>
</trkpt>
<trkpt lat="33.8100702" lon="-118.3938669">
  <ele>-14.76</ele>
  <time>2026-09-02T22:13:13Z</time>
  <course>180.17</course>
  <speed>0.49</speed>
  <fix>3d</fix>
</trkpt>
<trkpt lat="33.8100694" lon="-118.3938671">
  <ele>-15.128</ele>
  <time>2026-09-02T22:13:13Z</time>
  <course>184.78</course>
  <speed>0.47010637094172636</speed>
  <fix>3d</fix>
</trkpt>
<trkpt lat="33.8100702" lon="-118.3938669">
  <ele>-14.76</ele>
  <time>2026-09-02T22:13:13Z</time>
  <course>180.17</course>
  <speed>0.49</speed>
  <fix>3d</fix>
</trkpt>
<trkpt lat="33.8100689" lon="-118.3938671">
  <ele>-15.128</ele>
  <time>2026-09-02T22:13:13Z</time>
  <course>184.78</course>
  <speed>0.47010637094172636</speed>
  <fix>3d</fix>
</trkpt>
<trkpt lat="33.8100693" lon="-118.3938669">
  <ele>-14.76</ele>
  <time>2026-09-02T22:13:13Z</time>
  <course>180.16</course>
  <speed>0.49</speed>
  <fix>3d</fix>
</trkpt>
<trkpt lat="33.8100685" lon="-118.3938671">
  <ele>-15.129</ele>
  <time>2026-09-02T22:13:13Z</time>
  <course>184.78</course>
  <speed>0.47010637094172636</speed>
  <fix>3d</fix>
</trkpt>
<trkpt lat="33.8100693" lon="-118.3938669">
  <ele>-14.76</ele>
  <time>2026-09-02T22:13:13Z</time>
  <course>180.16</course>
  <speed>0.49</speed>
  <fix>3d</fix>
</trkpt>
<trkpt lat="33.810068" lon="-118.3938671">
  <ele>-15.129</ele>
  <time>2026-09-02T22:13:13Z</time>
  <course>184.78</course>
  <speed>0.47010637094172636</speed>
  <fix>3d</fix>
</trkpt>
<trkpt lat="33.8100684" lon="-118.3938669">
  <ele>-14.76</ele>
  <time>2026-09-02T22:13:13Z</time>
  <course>180.16</course>
  <speed>0.49</speed>
  <fix>3d</fix>
</trkpt>
<trkpt lat="33.8100676" lon="-118.3938671">
  <ele>-15.129</ele>
  <time>2026-09-02T22:13:13Z</time>
  <course>184.78</course>
  <speed>0.47010637094172636</speed>
  <fix>3d</fix>
</trkpt>
<trkpt lat="33.8100684" lon="-118.3938669">
  <ele>-14.76</ele>
  <time>2026-09-02T22:13:13Z</time>
  <course>180.16</course>
  <speed>0.49</speed>
  <fix>3d</fix>
</trkpt>
<trkpt lat="33.8100671" lon="-118.3938671">
  <ele>-15.13</ele>
  <time>2026-09-02T22:13:13Z</time>
  <course>184.78</course>
  <speed>0.47010637094172636</speed>
  <fix>3d</fix>
</trkpt>
<trkpt lat="33.8100675" lon="-118.3938669">
  <ele>-14.76</ele>
  <time>2026-09-02T22:13:13Z</time>
  <course>180.16</course>
  <speed>0.49</speed>
  <fix>3d</fix>
</trkpt>
<trkpt lat="33.8100667" lon="-118.3938671">
  <ele>-15.13</ele>
  <time>2026-09-02T22:13:13Z</time>
  <course>184.78</course>
  <speed>0.47010637094172636</speed>
  <fix>3d</fix>
</trkpt>
<trkpt lat="33.8100675" lon="-118.3938669">
  <ele>-14.76</ele>
  <time>2026-09-02T22:13:13Z</time>
  <course>180.16</course>
  <speed>0.49</speed>
  <fix>3d</fix>
</trkpt>
<trkpt lat="33.8100662" lon="-118.3938671">
  <ele>-15.13</ele>
  <time>2026-09-02T22:13:13Z</time>
  <course>184.78</course>
  <speed>0.47010637094172636</speed>
  <fix>3d</fix>
</trkpt>
<trkpt lat="33.8100666" lon="-118.3938669">
  <ele>-14.77</ele>
  <time>2026-09-02T22:13:13Z</time>
  <course>180.17</course>
  <speed>0.49</speed>
  <fix>3d</fix>
</trkpt>
<trkpt lat="33.8100658" lon="-118.3938671">
  <ele>-15.131</ele>
  <time>2026-09-02T22:13:13Z</time>
  <course>184.78</course>
  <speed>0.47010637094172636</speed>
  <fix>3d</fix>
</trkpt>
<trkpt lat="33.8100666" lon="-118.3938669">
  <ele>-14.77</ele>
  <time>2026-09-02T22:13:13Z</time>
  <course>180.17</course>
  <speed>0.49</speed>
  <fix>3d</fix>
</trkpt>
<trkpt lat="33.8100653" lon="-118.3938671">
  <ele>-15.132</ele>
  <time>2026-09-02T22:13:13Z</time>
  <course>184.77</course>
  <speed>0.47010637094172636</speed>
  <fix>3d</fix>
</trkpt>
<trkpt lat="33.8100658" lon="-118.3938669">
  <ele>-14.77</ele>
  <time>2026-09-02T22:13:13Z</time>
  <course>180.18</course>
  <speed>0.49</speed>
  <fix>3d</fix>
</trkpt>
<trkpt lat="33.8100649" lon="-118.3938671">
  <ele>-15.133</ele>
  <time>2026-09-02T22:13:13Z</time>
  <course>184.77</course>
  <speed>0.47010637094172636</speed>
  <fix>3d</fix>
</trkpt>
<trkpt lat="33.8100658" lon="-118.3938669">
  <ele>-14.77</ele>
  <time>2026-09-02T22:13:13Z</time>
  <course>180.18</course>
  <speed>0.49</speed>
  <fix>3d</fix>
</trkpt>
<trkpt lat="33.8100645" lon="-118.3938671">
  <ele>-15.135</ele>
  <time>2026-09-02T22:13:13Z</time>
  <course>184.78</course>
  <speed>0.47010637094172636</speed>
  <fix>3d</fix>
</trkpt>
<trkpt lat="33.8100649" lon="-118.3938669">
  <ele>-14.77</ele>
  <time>2026-09-02T22:13:13Z</time>
  <course>180.16</course>
  <speed>0.49</speed>
  <fix>3d</fix>
</trkpt>
<trkpt lat="33.810064" lon="-118.3938671">
  <ele>-15.136</ele>
  <time>2026-09-02T22:13:13Z</time>
  <course>184.78</course>
  <speed>0.47010637094172636</speed>
  <fix>3d</fix>
</trkpt>
<trkpt lat="33.8100649" lon="-118.3938669">
  <ele>-14.77</ele>
  <time>2026-09-02T22:13:13Z</time>
  <course>180.16</course>
  <speed>0.49</speed>
  <fix>3d</fix>
</trkpt>
<trkpt lat="33.8100636" lon="-118.3938671">
  <ele>-15.136</ele>
  <time>2026-09-02T22:13:13Z</time>
  <course>184.78</course>
  <speed>0.47010637094172636</speed>
  <fix>3d</fix>
</trkpt>
<trkpt lat="33.810064" lon="-118.3938669">
  <ele>-14.77</ele>
  <time>2026-09-02T22:13:13Z</time>
  <course>180.12</course>
  <speed>0.49</speed>
  <fix>3d</fix>
</trkpt>
<trkpt lat="33.8100631" lon="-118.3938671">
  <ele>-15.136</ele>
  <time>2026-09-02T22:13:13Z</time>
  <course>184.78</course>
  <speed>0.47010637094172636</speed>
  <fix>3d</fix>
</trkpt>
<trkpt lat="33.810064" lon="-118.3938669">
  <ele>-14.77</ele>
  <time>2026-09-02T22:13:13Z</time>
  <course>180.12</course>
  <speed>0.49</speed>
  <fix>3d</fix>
</trkpt>
<trkpt lat="33.8100627" lon="-118.3938671">
  <ele>-15.134</ele>
  <time>2026-09-02T22:13:13Z</time>
  <course>184.78</course>
  <speed>0.47010637094172636</speed>
  <fix>3d</fix>
</trkpt>
<trkpt lat="33.8100631" lon="-118.3938669">
  <ele>-14.76</ele>
  <time>2026-09-02T22:13:13Z</time>
  <course>180.11</course>
  <speed>0.49</speed>
  <fix>3d</fix>
</trkpt>
<trkpt lat="33.8100622" lon="-118.3938671">
  <ele>-15.131</ele>
  <time>2026-09-02T22:13:13Z</time>
  <course>184.77</course>
  <speed>0.47010637094172636</speed>
  <fix>3d</fix>
</trkpt>
<trkpt lat="33.8100631" lon="-118.3938669">
  <ele>-14.76</ele>
  <time>2026-09-02T22:13:13Z</time>
  <course>180.11</course>
  <speed>0.49</speed>
  <fix>3d</fix>
</trkpt>
<trkpt lat="33.8100618" lon="-118.3938671">
  <ele>-15.129</ele>
  <time>2026-09-02T22:13:13Z</time>
  <course>184.78</course>
  <speed>0.47010637094172636</speed>
  <fix>3d</fix>
</trkpt>
<trkpt lat="33.8100622" lon="-118.3938669">
  <ele>-14.76</ele>
  <time>2026-09-02T22:13:13Z</time>
  <course>180.11</course>
  <speed>0.5</speed>
  <fix>3d</fix>
</trkpt>
<trkpt lat="33.8100613" lon="-118.3938671">
  <ele>-15.128</ele>
  <time>2026-09-02T22:13:13Z</time>
  <course>184.78</course>
  <speed>0.47010637094172636</speed>
  <fix>3d</fix>
</trkpt>
<trkpt lat="33.8100622" lon="-118.3938669">
  <ele>-14.76</ele>
  <time>2026-09-02T22:13:13Z</time>
  <course>180.11</course>
  <speed>0.5</speed>
  <fix>3d</fix>
</trkpt>
<trkpt lat="33.8100609" lon="-118.3938671">
  <ele>-15.128</ele>
  <time>2026-09-02T22:13:13Z</time>
  <course>184.78</course>
  <speed>0.47010637094172636</speed>
  <fix>3d</fix>
</trkpt>
<trkpt lat="33.8100613" lon="-118.3938669">
  <ele>-14.75</ele>
  <time>2026-09-02T22:13:13Z</time>
  <course>180.09</course>
  <speed>0.5</speed>
  <fix>3d</fix>
</trkpt>
<trkpt lat="33.8100604" lon="-118.3938671">
  <ele>-15.128</ele>
  <time>2026-09-02T22:13:13Z</time>
  <course>184.77</course>
  <speed>0.47010637094172636</speed>
  <fix>3d</fix>
</trkpt>
<trkpt lat="33.8100613" lon="-118.3938669">
  <ele>-14.75</ele>
  <time>2026-09-02T22:13:13Z</time>
  <course>180.09</course>
  <speed>0.5</speed>
  <fix>3d</fix>
</trkpt>
<trkpt lat="33.81006" lon="-118.3938671">
  <ele>-15.129</ele>
  <time>2026-09-02T22:13:13Z</time>
  <course>184.77</course>
  <speed>0.47010637094172636</speed>
  <fix>3d</fix>
</trkpt>
<trkpt lat="33.8100604" lon="-118.3938669">
  <ele>-14.75</ele>
  <time>2026-09-02T22:13:13Z</time>
  <course>180.07</course>
  <speed>0.5</speed>
  <fix>3d</fix>
</trkpt>
<trkpt lat="33.8100595" lon="-118.3938671">
  <ele>-15.129</ele>
  <time>2026-09-02T22:13:13Z</time>
  <course>184.77</course>
  <speed>0.47010637094172636</speed>
  <fix>3d</fix>
</trkpt>
<trkpt lat="33.8100604" lon="-118.3938669">
  <ele>-14.75</ele>
  <time>2026-09-02T22:13:13Z</time>
  <course>180.07</course>
  <speed>0.5</speed>
  <fix>3d</fix>
</trkpt>
<trkpt lat="33.8100591" lon="-118.3938671">
  <ele>-15.128</ele>
  <time>2026-09-02T22:13:13Z</time>
  <course>184.78</course>
  <speed>0.47010637094172636</speed>
  <fix>3d</fix>
</trkpt>
<trkpt lat="33.8100595" lon="-118.3938669">
  <ele>-14.75</ele>
  <time>2026-09-02T22:13:13Z</time>
  <course>180.05</course>
  <speed>0.5</speed>
  <fix>3d</fix>
</trkpt>
<trkpt lat="33.8100586" lon="-118.3938671">
  <ele>-15.126</ele>
  <time>2026-09-02T22:13:13Z</time>
  <course>184.78</course>
  <speed>0.47010637094172636</speed>
  <fix>3d</fix>
</trkpt>
<trkpt lat="33.8100595" lon="-118.3938669">
  <ele>-14.75</ele>
  <time>2026-09-02T22:13:13Z</time>
  <course>180.05</course>
  <speed>0.5</speed>
  <fix>3d</fix>
</trkpt>
<trkpt lat="33.8100582" lon="-118.3938671">
  <ele>-15.124</ele>
  <time>2026-09-02T22:13:13Z</time>
  <course>184.78</course>
  <speed>0.47010637094172636</speed>
  <fix>3d</fix>
</trkpt>
<trkpt lat="33.8100586" lon="-118.3938669">
  <ele>-14.75</ele>
  <time>2026-09-02T22:13:13Z</time>
  <course>180.05</course>
  <speed>0.5</speed>
  <fix>3d</fix>
</trkpt>
<trkpt lat="33.8100577" lon="-118.3938671">
  <ele>-15.122</ele>
  <time>2026-09-02T22:13:13Z</time>
  <course>184.78</course>
  <speed>0.47010637094172636</speed>
  <fix>3d</fix>
</trkpt>
<trkpt lat="33.8100586" lon="-118.3938669">
  <ele>-14.75</ele>
  <time>2026-09-02T22:13:13Z</time>
  <course>180.05</course>
  <speed>0.5</speed>
  <fix>3d</fix>
</trkpt>
<trkpt lat="33.8100573" lon="-118.3938671">
  <ele>-15.122</ele>
  <time>2026-09-02T22:13:13Z</time>
  <course>184.78</course>
  <speed>0.47010637094172636</speed>
  <fix>3d</fix>
</trkpt>
<trkpt lat="33.8100577" lon="-118.3938669">
  <ele>-14.75</ele>
  <time>2026-09-02T22:13:13Z</time>
  <course>180.05</course>
  <speed>0.5</speed>
  <fix>3d</fix>
</trkpt>
<trkpt lat="33.8100568" lon="-118.3938671">
  <ele>-15.124</ele>
  <time>2026-09-02T22:13:13Z</time>
  <course>184.78</course>
  <speed>0.47010637094172636</speed>
  <fix>3d</fix>
</trkpt>
<trkpt lat="33.8100577" lon="-118.3938669">
  <ele>-14.75</ele>
  <time>2026-09-02T22:13:13Z</time>
  <course>180.05</course>
  <speed>0.5</speed>
  <fix>3d</fix>
</trkpt>
<trkpt lat="33.8100564" lon="-118.3938671">
  <ele>-15.127</ele>
  <time>2026-09-02T22:13:13Z</time>
  <course>184.78</course>
  <speed>0.47010637094172636</speed>
  <fix>3d</fix>
</trkpt>
<trkpt lat="33.8100568" lon="-118.3938669">
  <ele>-14.76</ele>
  <time>2026-09-02T22:13:13Z</time>
  <course>180.05</course>
  <speed>0.5</speed>
  <fix>3d</fix>
</trkpt>
<trkpt lat="33.8100559" lon="-118.3938671">
  <ele>-15.129</ele>
  <time>2026-09-02T22:13:13Z</time>
  <course>184.77</course>
  <speed>0.47010637094172636</speed>
  <fix>3d</fix>
</trkpt>
<trkpt lat="33.8100568" lon="-118.3938669">
  <ele>-14.76</ele>
  <time>2026-09-02T22:13:13Z</time>
  <course>180.05</course>
  <speed>0.5</speed>
  <fix>3d</fix>
</trkpt>
<trkpt lat="33.8100555" lon="-118.3938671">
  <ele>-15.131</ele>
  <time>2026-09-02T22:13:14Z</time>
  <course>184.78</course>
  <speed>0.47010637094172636</speed>
  <fix>3d</fix>
</trkpt>
<trkpt lat="33.8100559" lon="-118.3938669">
  <ele>-14.76</ele>
  <time>2026-09-02T22:13:14Z</time>
  <course>180.05</course>
  <speed>0.5</speed>
  <fix>3d</fix>
</trkpt>
<trkpt lat="33.810055" lon="-118.3938671">
  <ele>-15.132</ele>
  <time>2026-09-02T22:13:14Z</time>
  <course>184.78</course>
  <speed>0.47010637094172636</speed>
  <fix>3d</fix>
</trkpt>
<trkpt lat="33.8100559" lon="-118.3938669">
  <ele>-14.76</ele>
  <time>2026-09-02T22:13:14Z</time>
  <course>180.05</course>
  <speed>0.5</speed>
  <fix>3d</fix>
</trkpt>
<trkpt lat="33.8100546" lon="-118.3938671">
  <ele>-15.132</ele>
  <time>2026-09-02T22:13:14Z</time>
  <course>184.78</course>
  <speed>0.47010637094172636</speed>
  <fix>3d</fix>
</trkpt>
<trkpt lat="33.810055" lon="-118.3938669">
  <ele>-14.77</ele>
  <time>2026-09-02T22:13:14Z</time>
  <course>180.04</course>
  <speed>0.5</speed>
  <fix>3d</fix>
</trkpt>
<trkpt lat="33.8100541" lon="-118.3938671">
  <ele>-15.132</ele>
  <time>2026-09-02T22:13:14Z</time>
  <course>184.78</course>
  <speed>0.47010637094172636</speed>
  <fix>3d</fix>
</trkpt>
<trkpt lat="33.810055" lon="-118.3938669">
  <ele>-14.77</ele>
  <time>2026-09-02T22:13:14Z</time>
  <course>180.04</course>
  <speed>0.5</speed>
  <fix>3d</fix>
</trkpt>
<trkpt lat="33.8100537" lon="-118.3938671">
  <ele>-15.132</ele>
  <time>2026-09-02T22:13:14Z</time>
  <course>184.78</course>
  <speed>0.47010637094172636</speed>
  <fix>3d</fix>
</trkpt>
<trkpt lat="33.8100541" lon="-118.3938669">
  <ele>-14.77</ele>
  <time>2026-09-02T22:13:14Z</time>
  <course>180.02</course>
  <speed>0.5</speed>
  <fix>3d</fix>
</trkpt>
<trkpt lat="33.8100532" lon="-118.3938671">
  <ele>-15.134</ele>
  <time>2026-09-02T22:13:14Z</time>
  <course>184.77</course>
  <speed>0.47010637094172636</speed>
  <fix>3d</fix>
</trkpt>
<trkpt lat="33.8100541" lon="-118.3938669">
  <ele>-14.77</ele>
  <time>2026-09-02T22:13:14Z</time>
  <course>180.02</course>
  <speed>0.5</speed>
  <fix>3d</fix>
</trkpt>
<trkpt lat="33.8100528" lon="-118.3938671">
  <ele>-15.135</ele>
  <time>2026-09-02T22:13:14Z</time>
  <course>184.77</course>
  <speed>0.47010637094172636</speed>
  <fix>3d</fix>
</trkpt>
<trkpt lat="33.8100532" lon="-118.3938669">
  <ele>-14.77</ele>
  <time>2026-09-02T22:13:14Z</time>
  <course>180.0</course>
  <speed>0.5</speed>
  <fix>3d</fix>
</trkpt>
<trkpt lat="33.8100523" lon="-118.3938671">
  <ele>-15.136</ele>
  <time>2026-09-02T22:13:14Z</time>
  <course>184.77</course>
  <speed>0.47010637094172636</speed>
  <fix>3d</fix>
</trkpt>
<trkpt lat="33.8100532" lon="-118.3938669">
  <ele>-14.77</ele>
  <time>2026-09-02T22:13:14Z</time>
  <course>180.0</course>
  <speed>0.5</speed>
  <fix>3d</fix>
</trkpt>
<trkpt lat="33.8100519" lon="-118.3938671">
  <ele>-15.137</ele>
  <time>2026-09-02T22:13:14Z</time>
  <course>184.77</course>
  <speed>0.47010637094172636</speed>
  <fix>3d</fix>
</trkpt>
<trkpt lat="33.8100522" lon="-118.3938669">
  <ele>-14.76</ele>
  <time>2026-09-02T22:13:14Z</time>
  <course>179.97</course>
  <speed>0.5</speed>
  <fix>3d</fix>
</trkpt>
<trkpt lat="33.8100514" lon="-118.3938671">
  <ele>-15.136</ele>
  <time>2026-09-02T22:13:14Z</time>
  <course>184.78</course>
  <speed>0.47010637094172636</speed>
  <fix>3d</fix>
</trkpt>
<trkpt lat="33.8100522" lon="-118.3938669">
  <ele>-14.76</ele>
  <time>2026-09-02T22:13:14Z</time>
  <course>179.97</course>
  <speed>0.5</speed>
  <fix>3d</fix>
</trkpt>
<trkpt lat="33.810051" lon="-118.3938671">
  <ele>-15.135</ele>
  <time>2026-09-02T22:13:14Z</time>
  <course>184.78</course>
  <speed>0.47010637094172636</speed>
  <fix>3d</fix>
</trkpt>
<trkpt lat="33.8100513" lon="-118.3938669">
  <ele>-14.76</ele>
  <time>2026-09-02T22:13:14Z</time>
  <course>179.94</course>
  <speed>0.5</speed>
  <fix>3d</fix>
</trkpt>
<trkpt lat="33.8100505" lon="-118.3938671">
  <ele>-15.133</ele>
  <time>2026-09-02T22:13:14Z</time>
  <course>184.78</course>
  <speed>0.47010637094172636</speed>
  <fix>3d</fix>
</trkpt>
<trkpt lat="33.8100513" lon="-118.3938669">
  <ele>-14.76</ele>
  <time>2026-09-02T22:13:14Z</time>
  <course>179.94</course>
  <speed>0.5</speed>
  <fix>3d</fix>
</trkpt>
<trkpt lat="33.8100501" lon="-118.3938671">
  <ele>-15.13</ele>
  <time>2026-09-02T22:13:14Z</time>
  <course>184.78</course>
  <speed>0.47010637094172636</speed>
  <fix>3d</fix>
</trkpt>
<trkpt lat="33.8100505" lon="-118.3938669">
  <ele>-14.75</ele>
  <time>2026-09-02T22:13:14Z</time>
  <course>179.91</course>
  <speed>0.49</speed>
  <fix>3d</fix>
</trkpt>
<trkpt lat="33.8100496" lon="-118.3938671">
  <ele>-15.127</ele>
  <time>2026-09-02T22:13:14Z</time>
  <course>184.78</course>
  <speed>0.47010637094172636</speed>
  <fix>3d</fix>
</trkpt>
<trkpt lat="33.8100505" lon="-118.3938669">
  <ele>-14.75</ele>
  <time>2026-09-02T22:13:14Z</time>
  <course>179.91</course>
  <speed>0.49</speed>
  <fix>3d</fix>
</trkpt>
<trkpt lat="33.8100492" lon="-118.3938671">
  <ele>-15.123</ele>
  <time>2026-09-02T22:13:14Z</time>
  <course>184.78</course>
  <speed>0.47010637094172636</speed>
  <fix>3d</fix>
</trkpt>
<trkpt lat="33.8100496" lon="-118.3938669">
  <ele>-14.75</ele>
  <time>2026-09-02T22:13:14Z</time>
  <course>179.88</course>
  <speed>0.49</speed>
  <fix>3d</fix>
</trkpt>
<trkpt lat="33.8100487" lon="-118.3938671">
  <ele>-15.12</ele>
  <time>2026-09-02T22:13:14Z</time>
  <course>184.78</course>
  <speed>0.47010637094172636</speed>
  <fix>3d</fix>
</trkpt>
<trkpt lat="33.8100496" lon="-118.3938669">
  <ele>-14.75</ele>
  <time>2026-09-02T22:13:14Z</time>
  <course>179.88</course>
  <speed>0.49</speed>
  <fix>3d</fix>
</trkpt>
<trkpt lat="33.8100483" lon="-118.3938671">
  <ele>-15.12</ele>
  <time>2026-09-02T22:13:14Z</time>
  <course>184.78</course>
  <speed>0.47010637094172636</speed>
  <fix>3d</fix>
</trkpt>
<trkpt lat="33.8100487" lon="-118.3938669">
  <ele>-14.75</ele>
  <time>2026-09-02T22:13:14Z</time>
  <course>179.87</course>
  <speed>0.49</speed>
  <fix>3d</fix>
</trkpt>
<trkpt lat="33.8100478" lon="-118.3938671">
  <ele>-15.121</ele>
  <time>2026-09-02T22:13:14Z</time>
  <course>184.78</course>
  <speed>0.46010868281309364</speed>
  <fix>3d</fix>
</trkpt>
<trkpt lat="33.8100487" lon="-118.3938669">
  <ele>-14.75</ele>
  <time>2026-09-02T22:13:14Z</time>
  <course>179.87</course>
  <speed>0.49</speed>
  <fix>3d</fix>
</trkpt>
<trkpt lat="33.8100474" lon="-118.3938671">
  <ele>-15.123</ele>
  <time>2026-09-02T22:13:14Z</time>
  <course>184.78</course>
  <speed>0.44011362169330775</speed>
  <fix>3d</fix>
</trkpt>
<trkpt lat="33.8100478" lon="-118.3938669">
  <ele>-14.75</ele>
  <time>2026-09-02T22:13:14Z</time>
  <course>179.88</course>
  <speed>0.49</speed>
  <fix>3d</fix>
</trkpt>
<trkpt lat="33.810047" lon="-118.3938671">
  <ele>-15.126</ele>
  <time>2026-09-02T22:13:14Z</time>
  <course>184.78</course>
  <speed>0.3901281840626232</speed>
  <fix>3d</fix>
</trkpt>
<trkpt lat="33.8100478" lon="-118.3938669">
  <ele>-14.75</ele>
  <time>2026-09-02T22:13:14Z</time>
  <course>179.88</course>
  <speed>0.49</speed>
  <fix>3d</fix>
</trkpt>
<trkpt lat="33.8100467" lon="-118.3938671">
  <ele>-15.129</ele>
  <time>2026-09-02T22:13:14Z</time>
  <course>184.78</course>
  <speed>0.3301514803843835</speed>
  <fix>3d</fix>
</trkpt>
<trkpt lat="33.810047" lon="-118.3938669">
  <ele>-14.75</ele>
  <time>2026-09-02T22:13:14Z</time>
  <course>179.9</course>
  <speed>0.44</speed>
  <fix>3d</fix>
</trkpt>
<trkpt lat="33.8100464" lon="-118.3938671">
  <ele>-15.131</ele>
  <time>2026-09-02T22:13:14Z</time>
  <course>184.78</course>
  <speed>0.2308679276123039</speed>
  <fix>3d</fix>
</trkpt>
<trkpt lat="33.810047" lon="-118.3938669">
  <ele>-14.75</ele>
  <time>2026-09-02T22:13:14Z</time>
  <course>179.9</course>
  <speed>0.44</speed>
  <fix>3d</fix>
</trkpt>
<trkpt lat="33.8100462" lon="-118.3938671">
  <ele>-15.133</ele>
  <time>2026-09-02T22:13:14Z</time>
  <course>184.78</course>
  <speed>0.1414213562373095</speed>
  <fix>3d</fix>
</trkpt>
<trkpt lat="33.8100462" lon="-118.3938669">
  <ele>-14.76</ele>
  <time>2026-09-02T22:13:14Z</time>
  <course>180.6</course>
  <speed>0.32</speed>
  <fix>3d</fix>
</trkpt>
<trkpt lat="33.8100461" lon="-118.3938671">
  <ele>-15.134</ele>
  <time>2026-09-02T22:13:14Z</time>
  <course>184.78</course>
  <speed>0.0632455532033676</speed>
  <fix>3d</fix>
</trkpt>
<trkpt lat="33.8100462" lon="-118.3938669">
  <ele>-14.76</ele>
  <time>2026-09-02T22:13:14Z</time>
  <course>180.6</course>
  <speed>0.32</speed>
  <fix>3d</fix>
</trkpt>
<trkpt lat="33.810046" lon="-118.3938671">
  <ele>-15.135</ele>
  <time>2026-09-02T22:13:14Z</time>
  <course>184.79</course>
  <speed>0.022360679774997897</speed>
  <fix>3d</fix>
</trkpt>
<trkpt lat="33.8100458" lon="-118.3938669">
  <ele>-14.77</ele>
  <time>2026-09-02T22:13:14Z</time>
  <course>183.75</course>
  <speed>0.15</speed>
  <fix>3d</fix>
</trkpt>
<trkpt lat="33.810046" lon="-118.3938671">
  <ele>-15.136</ele>
  <time>2026-09-02T22:13:14Z</time>
  <course>184.8</course>
  <speed>0.0824621125123532</speed>
  <fix>3d</fix>
</trkpt>
<trkpt lat="33.8100458" lon="-118.3938669">
  <ele>-14.77</ele>
  <time>2026-09-02T22:13:14Z</time>
  <course>183.75</course>
  <speed>0.15</speed>
  <fix>3d</fix>
</trkpt>
<trkpt lat="33.8100461" lon="-118.3938671">
  <ele>-15.136</ele>
  <time>2026-09-02T22:13:14Z</time>
  <course>184.81</course>
  <speed>0.15132745950421556</speed>
  <fix>3d</fix>
</trkpt>
<trkpt lat="33.8100456" lon="-118.393867">
  <ele>-14.77</ele>
  <time>2026-09-02T22:13:14Z</time>
  <course>289.26</course>
  <speed>0.01</speed>
  <fix>3d</fix>
</trkpt>
<trkpt lat="33.8100462" lon="-118.3938671">
  <ele>-15.135</ele>
  <time>2026-09-02T22:13:14Z</time>
  <course>184.81</course>
  <speed>0.2009975124224178</speed>
  <fix>3d</fix>
</trkpt>
<trkpt lat="33.8100456" lon="-118.393867">
  <ele>-14.77</ele>
  <time>2026-09-02T22:13:14Z</time>
  <course>289.26</course>
  <speed>0.01</speed>
  <fix>3d</fix>
</trkpt>
<trkpt lat="33.8100464" lon="-118.3938671">
  <ele>-15.134</ele>
  <time>2026-09-02T22:13:14Z</time>
  <course>184.81</course>
  <speed>0.25079872407968906</speed>
  <fix>3d</fix>
</trkpt>
<trkpt lat="33.8100458" lon="-118.393867">
  <ele>-14.76</ele>
  <time>2026-09-02T22:13:14Z</time>
  <course>355.07</course>
  <speed>0.14</speed>
  <fix>3d</fix>
</trkpt>
<trkpt lat="33.8100466" lon="-118.3938671">
  <ele>-15.133</ele>
  <time>2026-09-02T22:13:14Z</time>
  <course>184.82</course>
  <speed>0.30066592756745814</speed>
  <fix>3d</fix>
</trkpt>
<trkpt lat="33.8100458" lon="-118.393867">
  <ele>-14.76</ele>
  <time>2026-09-02T22:13:14Z</time>
  <course>355.07</course>
  <speed>0.14</speed>
  <fix>3d</fix>
</trkpt>
<trkpt lat="33.8100468" lon="-118.3938671">
  <ele>-15.132</ele>
  <time>2026-09-02T22:13:14Z</time>
  <course>184.82</course>
  <speed>0.3306055050963308</speed>
  <fix>3d</fix>
</trkpt>
<trkpt lat="33.810046" lon="-118.393867">
  <ele>-14.76</ele>
  <time>2026-09-02T22:13:14Z</time>
  <course>357.74</course>
  <speed>0.24</speed>
  <fix>3d</fix>
</trkpt>
<trkpt lat="33.810047" lon="-118.3938671">
  <ele>-15.13</ele>
  <time>2026-09-02T22:13:14Z</time>
  <course>184.82</course>
  <speed>0.3605551275463989</speed>
  <fix>3d</fix>
</trkpt>
<trkpt lat="33.810046" lon="-118.393867">
  <ele>-14.76</ele>
  <time>2026-09-02T22:13:14Z</time>
  <course>357.74</course>
  <speed>0.24</speed>
  <fix>3d</fix>
</trkpt>
<trkpt lat="33.8100473" lon="-118.3938671">
  <ele>-15.129</ele>
  <time>2026-09-02T22:13:14Z</time>
  <course>184.82</course>
  <speed>0.3901281840626232</speed>
  <fix>3d</fix>
</trkpt>
<trkpt lat="33.8100465" lon="-118.393867">
  <ele>-14.75</ele>
  <time>2026-09-02T22:13:14Z</time>
  <course>358.63</course>
  <speed>0.32</speed>
  <fix>3d</fix>
</trkpt>
<trkpt lat="33.8100477" lon="-118.3938671">
  <ele>-15.128</ele>
  <time>2026-09-02T22:13:14Z</time>
  <course>184.82</course>
  <speed>0.41012193308819755</speed>
  <fix>3d</fix>
</trkpt>
<trkpt lat="33.8100465" lon="-118.393867">
  <ele>-14.75</ele>
  <time>2026-09-02T22:13:14Z</time>
  <course>358.63</course>
  <speed>0.32</speed>
  <fix>3d</fix>
</trkpt>
<trkpt lat="33.810048" lon="-118.3938671">
  <ele>-15.127</ele>
  <time>2026-09-02T22:13:14Z</time>
  <course>184.82</course>
  <speed>0.4301162633521314</speed>
  <fix>3d</fix>
</trkpt>
<trkpt lat="33.8100472" lon="-118.3938671">
  <ele>-14.75</ele>
  <time>2026-09-02T22:13:14Z</time>
  <course>358.97</course>
  <speed>0.38</speed>
  <fix>3d</fix>
</trkpt>
<trkpt lat="33.8100484" lon="-118.3938671">
  <ele>-15.126</ele>
  <time>2026-09-02T22:13:14Z</time>
  <course>184.82</course>
  <speed>0.450111097397076</speed>
  <fix>3d</fix>
</trkpt>
<trkpt lat="33.8100472" lon="-118.3938671">
  <ele>-14.75</ele>
  <time>2026-09-02T22:13:14Z</time>
  <course>358.97</course>
  <speed>0.38</speed>
  <fix>3d</fix>
</trkpt>
<trkpt lat="33.8100487" lon="-118.3938671">
  <ele>-15.125</ele>
  <time>2026-09-02T22:13:14Z</time>
  <course>184.81</course>
  <speed>0.46010868281309364</speed>
  <fix>3d</fix>
</trkpt>
<trkpt lat="33.8100479" lon="-118.3938671">
  <ele>-14.75</ele>
  <time>2026-09-02T22:13:14Z</time>
  <course>359.17</course>
  <speed>0.42</speed>
  <fix>3d</fix>
</trkpt>
<trkpt lat="33.8100491" lon="-118.3938671">
  <ele>-15.126</ele>
  <time>2026-09-02T22:13:14Z</time>
  <course>184.81</course>
  <speed>0.47010637094172636</speed>
  <fix>3d</fix>
</trkpt>
<trkpt lat="33.8100479" lon="-118.3938671">
  <ele>-14.75</ele>
  <time>2026-09-02T22:13:14Z</time>
  <course>359.17</course>
  <speed>0.42</speed>
  <fix>3d</fix>
</trkpt>
<trkpt lat="33.8100495" lon="-118.3938671">
  <ele>-15.127</ele>
  <time>2026-09-02T22:13:14Z</time>
  <course>184.81</course>
  <speed>0.4801041553663121</speed>
  <fix>3d</fix>
</trkpt>
<trkpt lat="33.8100486" lon="-118.3938671">
  <ele>-14.75</ele>
  <time>2026-09-02T22:13:14Z</time>
  <course>359.42</course>
  <speed>0.45</speed>
  <fix>3d</fix>
</trkpt>
<trkpt lat="33.8100499" lon="-118.3938671">
  <ele>-15.128</ele>
  <time>2026-09-02T22:13:14Z</time>
  <course>184.81</course>
  <speed>0.4901020301937138</speed>
  <fix>3d</fix>
</trkpt>
<trkpt lat="33.8100486" lon="-118.3938671">
  <ele>-14.75</ele>
  <time>2026-09-02T22:13:14Z</time>
  <course>359.42</course>
  <speed>0.45</speed>
  <fix>3d</fix>
</trkpt>
<trkpt lat="33.8100504" lon="-118.3938672">
  <ele>-15.129</ele>
  <time>2026-09-02T22:13:14Z</time>
  <course>184.81</course>
  <speed>0.5000999900019995</speed>
  <fix>3d</fix>
</trkpt>
<trkpt lat="33.8100495" lon="-118.3938671">
  <ele>-14.75</ele>
  <time>2026-09-02T22:13:14Z</time>
  <course>359.67</course>
  <speed>0.47</speed>
  <fix>3d</fix>
</trkpt>
<trkpt lat="33.8100508" lon="-118.3938672">
  <ele>-15.128</ele>
  <time>2026-09-02T22:13:14Z</time>
  <course>184.81</course>
  <speed>0.5000999900019995</speed>
  <fix>3d</fix>
</trkpt>
<trkpt lat="33.8100495" lon="-118.3938671">
  <ele>-14.75</ele>
  <time>2026-09-02T22:13:14Z</time>
  <course>359.67</course>
  <speed>0.47</speed>
  <fix>3d</fix>
</trkpt>
<trkpt lat="33.8100512" lon="-118.3938672">
  <ele>-15.128</ele>
  <time>2026-09-02T22:13:14Z</time>
  <course>184.81</course>
  <speed>0.510098029794274</speed>
  <fix>3d</fix>
</trkpt>
<trkpt lat="33.8100504" lon="-118.3938671">
  <ele>-14.75</ele>
  <time>2026-09-02T22:13:14Z</time>
  <course>359.85</course>
  <speed>0.49</speed>
  <fix>3d</fix>
</trkpt>
<trkpt lat="33.8100517" lon="-118.3938672">
  <ele>-15.127</ele>
  <time>2026-09-02T22:13:14Z</time>
  <course>184.81</course>
  <speed>0.510098029794274</speed>
  <fix>3d</fix>
</trkpt>
<trkpt lat="33.8100504" lon="-118.3938671">
  <ele>-14.75</ele>
  <time>2026-09-02T22:13:14Z</time>
  <course>359.85</course>
  <speed>0.49</speed>
  <fix>3d</fix>
</trkpt>
<trkpt lat="33.8100521" lon="-118.3938672">
  <ele>-15.127</ele>
  <time>2026-09-02T22:13:14Z</time>
  <course>184.8</course>
  <speed>0.510098029794274</speed>
  <fix>3d</fix>
</trkpt>
<trkpt lat="33.8100513" lon="-118.3938671">
  <ele>-14.75</ele>
  <time>2026-09-02T22:13:14Z</time>
  <course>359.97</course>
  <speed>0.5</speed>
  <fix>3d</fix>
</trkpt>
<trkpt lat="33.8100525" lon="-118.3938672">
  <ele>-15.128</ele>
  <time>2026-09-02T22:13:14Z</time>
  <course>184.8</course>
  <speed>0.5200961449578337</speed>
  <fix>3d</fix>
</trkpt>
<trkpt lat="33.8100513" lon="-118.3938671">
  <ele>-14.75</ele>
  <time>2026-09-02T22:13:14Z</time>
  <course>359.97</course>
  <speed>0.5</speed>
  <fix>3d</fix>
</trkpt>
<trkpt lat="33.810053" lon="-118.3938672">
  <ele>-15.129</ele>
  <time>2026-09-02T22:13:14Z</time>
  <course>184.79</course>
  <speed>0.5200961449578337</speed>
  <fix>3d</fix>
</trkpt>
<trkpt lat="33.8100522" lon="-118.3938671">
  <ele>-14.76</ele>
  <time>2026-09-02T22:13:14Z</time>
  <course>0.09</course>
  <speed>0.51</speed>
  <fix>3d</fix>
</trkpt>
<trkpt lat="33.8100534" lon="-118.3938672">
  <ele>-15.13</ele>
  <time>2026-09-02T22:13:14Z</time>
  <course>184.79</course>
  <speed>0.5200961449578337</speed>
  <fix>3d</fix>
</trkpt>
<trkpt lat="33.8100522" lon="-118.3938671">
  <ele>-14.76</ele>
  <time>2026-09-02T22:13:14Z</time>
  <course>0.09</course>
  <speed>0.51</speed>
  <fix>3d</fix>
</trkpt>
<trkpt lat="33.8100539" lon="-118.3938672">
  <ele>-15.131</ele>
  <time>2026-09-02T22:13:14Z</time>
  <course>184.79</course>
  <speed>0.5200961449578337</speed>
  <fix>3d</fix>
</trkpt>
<trkpt lat="33.8100532" lon="-118.3938671">
  <ele>-14.76</ele>
  <time>2026-09-02T22:13:14Z</time>
  <course>0.2</course>
  <speed>0.51</speed>
  <fix>3d</fix>
</trkpt>
<trkpt lat="33.8100544" lon="-118.3938672">
  <ele>-15.13</ele>
  <time>2026-09-02T22:13:14Z</time>
  <course>184.8</course>
  <speed>0.5200961449578337</speed>
  <fix>3d</fix>
</trkpt>
<trkpt lat="33.8100532" lon="-118.3938671">
  <ele>-14.76</ele>
  <time>2026-09-02T22:13:14Z</time>
  <course>0.2</course>
  <speed>0.51</speed>
  <fix>3d</fix>
</trkpt>
<trkpt lat="33.8100548" lon="-118.3938672">
  <ele>-15.13</ele>
  <time>2026-09-02T22:13:14Z</time>
  <course>184.8</course>
  <speed>0.5200961449578337</speed>
  <fix>3d</fix>
</trkpt>
<trkpt lat="33.8100541" lon="-118.3938671">
  <ele>-14.76</ele>
  <time>2026-09-02T22:13:14Z</time>
  <course>0.33</course>
  <speed>0.52</speed>
  <fix>3d</fix>
</trkpt>
<trkpt lat="33.8100553" lon="-118.3938672">
  <ele>-15.129</ele>
  <time>2026-09-02T22:13:14Z</time>
  <course>184.8</course>
  <speed>0.5200961449578337</speed>
  <fix>3d</fix>
</trkpt>
<trkpt lat="33.8100541" lon="-118.3938671">
  <ele>-14.76</ele>
  <time>2026-09-02T22:13:14Z</time>
  <course>0.33</course>
  <speed>0.52</speed>
  <fix>3d</fix>
</trkpt>
<trkpt lat="33.8100558" lon="-118.3938671">
  <ele>-15.129</ele>
  <time>2026-09-02T22:13:14Z</time>
  <course>184.79</course>
  <speed>0.5200961449578337</speed>
  <fix>3d</fix>
</trkpt>
<trkpt lat="33.810055" lon="-118.3938671">
  <ele>-14.76</ele>
  <time>2026-09-02T22:13:14Z</time>
  <course>0.45</course>
  <speed>0.52</speed>
  <fix>3d</fix>
</trkpt>
<trkpt lat="33.8100562" lon="-118.3938671">
  <ele>-15.129</ele>
  <time>2026-09-02T22:13:14Z</time>
  <course>184.79</course>
  <speed>0.5200961449578337</speed>
  <fix>3d</fix>
</trkpt>
<trkpt lat="33.810055" lon="-118.3938671">
  <ele>-14.76</ele>
  <time>2026-09-02T22:13:14Z</time>
  <course>0.45</course>
  <speed>0.52</speed>
  <fix>3d</fix>
</trkpt>
<trkpt lat="33.8100567" lon="-118.3938671">
  <ele>-15.13</ele>
  <time>2026-09-02T22:13:14Z</time>
  <course>184.78</course>
  <speed>0.5200961449578337</speed>
  <fix>3d</fix>
</trkpt>
<trkpt lat="33.810056" lon="-118.3938671">
  <ele>-14.76</ele>
  <time>2026-09-02T22:13:14Z</time>
  <course>0.55</course>
  <speed>0.52</speed>
  <fix>3d</fix>
</trkpt>
<trkpt lat="33.8100571" lon="-118.3938671">
  <ele>-15.131</ele>
  <time>2026-09-02T22:13:14Z</time>
  <course>184.78</course>
  <speed>0.5200961449578337</speed>
  <fix>3d</fix>
</trkpt>
<trkpt lat="33.810056" lon="-118.3938671">
  <ele>-14.76</ele>
  <time>2026-09-02T22:13:14Z</time>
  <course>0.55</course>
  <speed>0.52</speed>
  <fix>3d</fix>
</trkpt>
<trkpt lat="33.8100576" lon="-118.3938671">
  <ele>-15.131</ele>
  <time>2026-09-02T22:13:14Z</time>
  <course>184.78</course>
  <speed>0.5200961449578337</speed>
  <fix>3d</fix>
</trkpt>
<trkpt lat="33.8100569" lon="-118.3938671">
  <ele>-14.76</ele>
  <time>2026-09-02T22:13:14Z</time>
  <course>0.65</course>
  <speed>0.52</speed>
  <fix>3d</fix>
</trkpt>
<trkpt lat="33.8100581" lon="-118.3938671">
  <ele>-15.131</ele>
  <time>2026-09-02T22:13:14Z</time>
  <course>184.78</course>
  <speed>0.5200961449578337</speed>
  <fix>3d</fix>
</trkpt>
<trkpt lat="33.8100569" lon="-118.3938671">
  <ele>-14.76</ele>
  <time>2026-09-02T22:13:14Z</time>
  <course>0.65</course>
  <speed>0.52</speed>
  <fix>3d</fix>
</trkpt>
<trkpt lat="33.8100585" lon="-118.3938671">
  <ele>-15.13</ele>
  <time>2026-09-02T22:13:14Z</time>
  <course>184.78</course>
  <speed>0.5200961449578337</speed>
  <fix>3d</fix>
</trkpt>
<trkpt lat="33.8100578" lon="-118.3938671">
  <ele>-14.75</ele>
  <time>2026-09-02T22:13:14Z</time>
  <course>0.75</course>
  <speed>0.52</speed>
  <fix>3d</fix>
</trkpt>
<trkpt lat="33.810059" lon="-118.3938671">
  <ele>-15.128</ele>
  <time>2026-09-02T22:13:14Z</time>
  <course>184.78</course>
  <speed>0.5200961449578337</speed>
  <fix>3d</fix>
</trkpt>
<trkpt lat="33.8100578" lon="-118.3938671">
  <ele>-14.75</ele>
  <time>2026-09-02T22:13:14Z</time>
  <course>0.75</course>
  <speed>0.52</speed>
  <fix>3d</fix>
</trkpt>
<trkpt lat="33.8100595" lon="-118.3938671">
  <ele>-15.126</ele>
  <time>2026-09-02T22:13:14Z</time>
  <course>184.78</course>
  <speed>0.5200961449578337</speed>
  <fix>3d</fix>
</trkpt>
<trkpt lat="33.8100588" lon="-118.3938671">
  <ele>-14.75</ele>
  <time>2026-09-02T22:13:14Z</time>
  <course>0.86</course>
  <speed>0.52</speed>
  <fix>3d</fix>
</trkpt>
<trkpt lat="33.8100599" lon="-118.3938671">
  <ele>-15.126</ele>
  <time>2026-09-02T22:13:14Z</time>
  <course>184.78</course>
  <speed>0.5200961449578337</speed>
  <fix>3d</fix>
</trkpt>
<trkpt lat="33.8100588" lon="-118.3938671">
  <ele>-14.75</ele>
  <time>2026-09-02T22:13:14Z</time>
  <course>0.86</course>
  <speed>0.52</speed>
  <fix>3d</fix>
</trkpt>
<trkpt lat="33.8100604" lon="-118.3938671">
  <ele>-15.125</ele>
  <time>2026-09-02T22:13:14Z</time>
  <course>184.78</course>
  <speed>0.5200961449578337</speed>
  <fix>3d</fix>
</trkpt>
<trkpt lat="33.8100597" lon="-118.3938671">
  <ele>-14.75</ele>
  <time>2026-09-02T22:13:14Z</time>
  <course>0.99</course>
  <speed>0.51</speed>
  <fix>3d</fix>
</trkpt>
<trkpt lat="33.8100609" lon="-118.3938671">
  <ele>-15.126</ele>
  <time>2026-09-02T22:13:14Z</time>
  <course>184.77</course>
  <speed>0.5200961449578337</speed>
  <fix>3d</fix>
</trkpt>
<trkpt lat="33.8100597" lon="-118.3938671">
  <ele>-14.75</ele>
  <time>2026-09-02T22:13:14Z</time>
  <course>0.99</course>
  <speed>0.51</speed>
  <fix>3d</fix>
</trkpt>
<trkpt lat="33.8100613" lon="-118.3938671">
  <ele>-15.127</ele>
  <time>2026-09-02T22:13:14Z</time>
  <course>184.77</course>
  <speed>0.5200961449578337</speed>
  <fix>3d</fix>
</trkpt>
<trkpt lat="33.8100606" lon="-118.3938671">
  <ele>-14.75</ele>
  <time>2026-09-02T22:13:14Z</time>
  <course>1.11</course>
  <speed>0.51</speed>
  <fix>3d</fix>
</trkpt>
<trkpt lat="33.8100618" lon="-118.3938671">
  <ele>-15.127</ele>
  <time>2026-09-02T22:13:14Z</time>
  <course>184.77</course>
  <speed>0.5200961449578337</speed>
  <fix>3d</fix>
</trkpt>
<trkpt lat="33.8100606" lon="-118.3938671">
  <ele>-14.75</ele>
  <time>2026-09-02T22:13:14Z</time>
  <course>1.11</course>
  <speed>0.51</speed>
  <fix>3d</fix>
</trkpt>
<trkpt lat="33.8100622" lon="-118.3938671">
  <ele>-15.127</ele>
  <time>2026-09-02T22:13:14Z</time>
  <course>184.77</course>
  <speed>0.5200961449578337</speed>
  <fix>3d</fix>
</trkpt>
<trkpt lat="33.8100616" lon="-118.3938671">
  <ele>-14.75</ele>
  <time>2026-09-02T22:13:14Z</time>
  <course>1.19</course>
  <speed>0.51</speed>
  <fix>3d</fix>
</trkpt>
<trkpt lat="33.8100627" lon="-118.3938671">
  <ele>-15.128</ele>
  <time>2026-09-02T22:13:14Z</time>
  <course>184.77</course>
  <speed>0.5200961449578337</speed>
  <fix>3d</fix>
</trkpt>
<trkpt lat="33.8100616" lon="-118.3938671">
  <ele>-14.75</ele>
  <time>2026-09-02T22:13:14Z</time>
  <course>1.19</course>
  <speed>0.51</speed>
  <fix>3d</fix>
</trkpt>
<trkpt lat="33.8100632" lon="-118.3938671">
  <ele>-15.13</ele>
  <time>2026-09-02T22:13:14Z</time>
  <course>184.77</course>
  <speed>0.5200961449578337</speed>
  <fix>3d</fix>
</trkpt>
<trkpt lat="33.8100625" lon="-118.393867">
  <ele>-14.76</ele>
  <time>2026-09-02T22:13:14Z</time>
  <course>1.27</course>
  <speed>0.51</speed>
  <fix>3d</fix>
</trkpt>
<trkpt lat="33.8100636" lon="-118.3938671">
  <ele>-15.132</ele>
  <time>2026-09-02T22:13:14Z</time>
  <course>184.76</course>
  <speed>0.5200961449578337</speed>
  <fix>3d</fix>
</trkpt>
<trkpt lat="33.8100625" lon="-118.393867">
  <ele>-14.76</ele>
  <time>2026-09-02T22:13:14Z</time>
  <course>1.27</course>
  <speed>0.51</speed>
  <fix>3d</fix>
</trkpt>
<trkpt lat="33.8100641" lon="-118.3938671">
  <ele>-15.132</ele>
  <time>2026-09-02T22:13:14Z</time>
  <course>184.76</course>
  <speed>0.5200961449578337</speed>
  <fix>3d</fix>
</trkpt>
<trkpt lat="33.8100634" lon="-118.393867">
  <ele>-14.76</ele>
  <time>2026-09-02T22:13:14Z</time>
  <course>1.27</course>
  <speed>0.51</speed>
  <fix>3d</fix>
</trkpt>
<trkpt lat="33.8100646" lon="-118.3938671">
  <ele>-15.131</ele>
  <time>2026-09-02T22:13:14Z</time>
  <course>184.76</course>
  <speed>0.5200961449578337</speed>
  <fix>3d</fix>
</trkpt>
<trkpt lat="33.8100634" lon="-118.393867">
  <ele>-14.76</ele>
  <time>2026-09-02T22:13:14Z</time>
  <course>1.27</course>
  <speed>0.51</speed>
  <fix>3d</fix>
</trkpt>
<trkpt lat="33.810065" lon="-118.3938671">
  <ele>-15.13</ele>
  <time>2026-09-02T22:13:14Z</time>
  <course>184.76</course>
  <speed>0.5200961449578337</speed>
  <fix>3d</fix>
</trkpt>
<trkpt lat="33.8100643" lon="-118.393867">
  <ele>-14.76</ele>
  <time>2026-09-02T22:13:14Z</time>
  <course>1.18</course>
  <speed>0.51</speed>
  <fix>3d</fix>
</trkpt>
<trkpt lat="33.8100655" lon="-118.3938671">
  <ele>-15.128</ele>
  <time>2026-09-02T22:13:14Z</time>
  <course>184.75</course>
  <speed>0.5200961449578337</speed>
  <fix>3d</fix>
</trkpt>
<trkpt lat="33.8100643" lon="-118.393867">
  <ele>-14.76</ele>
  <time>2026-09-02T22:13:14Z</time>
  <course>1.18</course>
  <speed>0.51</speed>
  <fix>3d</fix>
</trkpt>
<trkpt lat="33.8100659" lon="-118.3938671">
  <ele>-15.127</ele>
  <time>2026-09-02T22:13:14Z</time>
  <course>184.75</course>
  <speed>0.5200961449578337</speed>
  <fix>3d</fix>
</trkpt>
<trkpt lat="33.8100653" lon="-118.393867">
  <ele>-14.76</ele>
  <time>2026-09-02T22:13:14Z</time>
  <course>1.06</course>
  <speed>0.51</speed>
  <fix>3d</fix>
</trkpt>
<trkpt lat="33.8100664" lon="-118.3938671">
  <ele>-15.128</ele>
  <time>2026-09-02T22:13:14Z</time>
  <course>184.75</course>
  <speed>0.5200961449578337</speed>
  <fix>3d</fix>
</trkpt>
<trkpt lat="33.8100653" lon="-118.393867">
  <ele>-14.76</ele>
  <time>2026-09-02T22:13:14Z</time>
  <course>1.06</course>
  <speed>0.51</speed>
  <fix>3d</fix>
</trkpt>
<trkpt lat="33.8100669" lon="-118.3938671">
  <ele>-15.128</ele>
  <time>2026-09-02T22:13:14Z</time>
  <course>184.75</course>
  <speed>0.5200961449578337</speed>
  <fix>3d</fix>
</trkpt>
<trkpt lat="33.8100662" lon="-118.3938669">
  <ele>-14.76</ele>
  <time>2026-09-02T22:13:14Z</time>
  <course>0.95</course>
  <speed>0.51</speed>
  <fix>3d</fix>
</trkpt>
<trkpt lat="33.8100673" lon="-118.3938671">
  <ele>-15.13</ele>
  <time>2026-09-02T22:13:14Z</time>
  <course>184.75</course>
  <speed>0.5200961449578337</speed>
  <fix>3d</fix>
</trkpt>
<trkpt lat="33.8100662" lon="-118.3938669">
  <ele>-14.76</ele>
  <time>2026-09-02T22:13:14Z</time>
  <course>0.95</course>
  <speed>0.51</speed>
  <fix>3d</fix>
</trkpt>
<trkpt lat="33.8100678" lon="-118.3938671">
  <ele>-15.131</ele>
  <time>2026-09-02T22:13:14Z</time>
  <course>184.75</course>
  <speed>0.5200961449578337</speed>
  <fix>3d</fix>
</trkpt>
<trkpt lat="33.8100671" lon="-118.3938669">
  <ele>-14.76</ele>
  <time>2026-09-02T22:13:14Z</time>
  <course>0.8</course>
  <speed>0.5</speed>
  <fix>3d</fix>
</trkpt>
<trkpt lat="33.8100683" lon="-118.3938671">
  <ele>-15.131</ele>
  <time>2026-09-02T22:13:14Z</time>
  <course>184.75</course>
  <speed>0.5200961449578337</speed>
  <fix>3d</fix>
</trkpt>
<trkpt lat="33.8100671" lon="-118.3938669">
  <ele>-14.76</ele>
  <time>2026-09-02T22:13:14Z</time>
  <course>0.8</course>
  <speed>0.5</speed>
  <fix>3d</fix>
</trkpt>
<trkpt lat="33.8100687" lon="-118.3938671">
  <ele>-15.13</ele>
  <time>2026-09-02T22:13:14Z</time>
  <course>184.75</course>
  <speed>0.5200961449578337</speed>
  <fix>3d</fix>
</trkpt>
<trkpt lat="33.810068" lon="-118.3938669">
  <ele>-14.76</ele>
  <time>2026-09-02T22:13:14Z</time>
  <course>0.61</course>
  <speed>0.5</speed>
  <fix>3d</fix>
</trkpt>
<trkpt lat="33.8100692" lon="-118.3938671">
  <ele>-15.13</ele>
  <time>2026-09-02T22:13:14Z</time>
  <course>184.74</course>
  <speed>0.5203844732503076</speed>
  <fix>3d</fix>
</trkpt>
<trkpt lat="33.810068" lon="-118.3938669">
  <ele>-14.76</ele>
  <time>2026-09-02T22:13:14Z</time>
  <course>0.61</course>
  <speed>0.5</speed>
  <fix>3d</fix>
</trkpt>
<trkpt lat="33.8100696" lon="-118.3938671">
  <ele>-15.131</ele>
  <time>2026-09-02T22:13:14Z</time>
  <course>184.75</course>
  <speed>0.5203844732503076</speed>
  <fix>3d</fix>
</trkpt>
<trkpt lat="33.8100689" lon="-118.3938669">
  <ele>-14.76</ele>
  <time>2026-09-02T22:13:14Z</time>
  <course>0.41</course>
  <speed>0.5</speed>
  <fix>3d</fix>
</trkpt>
<trkpt lat="33.8100701" lon="-118.3938671">
  <ele>-15.13</ele>
  <time>2026-09-02T22:13:14Z</time>
  <course>184.75</course>
  <speed>0.5203844732503076</speed>
  <fix>3d</fix>
</trkpt>
<trkpt lat="33.8100689" lon="-118.3938669">
  <ele>-14.76</ele>
  <time>2026-09-02T22:13:14Z</time>
  <course>0.41</course>
  <speed>0.5</speed>
  <fix>3d</fix>
</trkpt>
<trkpt lat="33.8100705" lon="-118.3938671">
  <ele>-15.129</ele>
  <time>2026-09-02T22:13:14Z</time>
  <course>184.75</course>
  <speed>0.5203844732503076</speed>
  <fix>3d</fix>
</trkpt>
<trkpt lat="33.8100698" lon="-118.3938669">
  <ele>-14.76</ele>
  <time>2026-09-02T22:13:14Z</time>
  <course>0.25</course>
  <speed>0.5</speed>
  <fix>3d</fix>
</trkpt>
<trkpt lat="33.810071" lon="-118.3938671">
  <ele>-15.127</ele>
  <time>2026-09-02T22:13:14Z</time>
  <course>184.75</course>
  <speed>0.5203844732503076</speed>
  <fix>3d</fix>
</trkpt>
<trkpt lat="33.8100698" lon="-118.3938669">
  <ele>-14.76</ele>
  <time>2026-09-02T22:13:14Z</time>
  <course>0.25</course>
  <speed>0.5</speed>
  <fix>3d</fix>
</trkpt>
<trkpt lat="33.8100715" lon="-118.3938671">
  <ele>-15.126</ele>
  <time>2026-09-02T22:13:14Z</time>
  <course>184.74</course>
  <speed>0.5203844732503076</speed>
  <fix>3d</fix>
</trkpt>
<trkpt lat="33.8100707" lon="-118.3938669">
  <ele>-14.76</ele>
  <time>2026-09-02T22:13:14Z</time>
  <course>0.13</course>
  <speed>0.5</speed>
  <fix>3d</fix>
</trkpt>
<trkpt lat="33.8100719" lon="-118.3938671">
  <ele>-15.125</ele>
  <time>2026-09-02T22:13:14Z</time>
  <course>184.74</course>
  <speed>0.5203844732503076</speed>
  <fix>3d</fix>
</trkpt>
<trkpt lat="33.8100707" lon="-118.3938669">
  <ele>-14.76</ele>
  <time>2026-09-02T22:13:14Z</time>
  <course>0.13</course>
  <speed>0.5</speed>
  <fix>3d</fix>
</trkpt>
<trkpt lat="33.8100724" lon="-118.3938671">
  <ele>-15.124</ele>
  <time>2026-09-02T22:13:14Z</time>
  <course>184.74</course>
  <speed>0.5203844732503076</speed>
  <fix>3d</fix>
</trkpt>
<trkpt lat="33.8100716" lon="-118.3938669">
  <ele>-14.76</ele>
  <time>2026-09-02T22:13:14Z</time>
  <course>0.02</course>
  <speed>0.5</speed>
  <fix>3d</fix>
</trkpt>
<trkpt lat="33.8100728" lon="-118.3938671">
  <ele>-15.126</ele>
  <time>2026-09-02T22:13:14Z</time>
  <course>184.75</course>
  <speed>0.5203844732503076</speed>
  <fix>3d</fix>
</trkpt>
<trkpt lat="33.8100716" lon="-118.3938669">
  <ele>-14.76</ele>
  <time>2026-09-02T22:13:14Z</time>
  <course>0.02</course>
  <speed>0.5</speed>
  <fix>3d</fix>
</trkpt>
<trkpt lat="33.8100733" lon="-118.3938671">
  <ele>-15.128</ele>
  <time>2026-09-02T22:13:14Z</time>
  <course>184.75</course>
  <speed>0.5203844732503076</speed>
  <fix>3d</fix>
</trkpt>
<trkpt lat="33.8100726" lon="-118.3938669">
  <ele>-14.76</ele>
  <time>2026-09-02T22:13:14Z</time>
  <course>359.95</course>
  <speed>0.5</speed>
  <fix>3d</fix>
</trkpt>
<trkpt lat="33.8100738" lon="-118.3938671">
  <ele>-15.13</ele>
  <time>2026-09-02T22:13:14Z</time>
  <course>184.75</course>
  <speed>0.5303772242470448</speed>
  <fix>3d</fix>
</trkpt>
<trkpt lat="33.8100726" lon="-118.3938669">
  <ele>-14.76</ele>
  <time>2026-09-02T22:13:14Z</time>
  <course>359.95</course>
  <speed>0.5</speed>
  <fix>3d</fix>
</trkpt>
<trkpt lat="33.8100742" lon="-118.3938671">
  <ele>-15.132</ele>
  <time>2026-09-02T22:13:14Z</time>
  <course>184.75</course>
  <speed>0.5203844732503076</speed>
  <fix>3d</fix>
</trkpt>
<trkpt lat="33.8100735" lon="-118.3938669">
  <ele>-14.77</ele>
  <time>2026-09-02T22:13:14Z</time>
  <course>359.91</course>
  <speed>0.5</speed>
  <fix>3d</fix>
</trkpt>
<trkpt lat="33.8100747" lon="-118.3938671">
  <ele>-15.135</ele>
  <time>2026-09-02T22:13:14Z</time>
  <course>184.75</course>
  <speed>0.5303772242470448</speed>
  <fix>3d</fix>
</trkpt>
<trkpt lat="33.8100735" lon="-118.3938669">
  <ele>-14.77</ele>
  <time>2026-09-02T22:13:14Z</time>
  <course>359.91</course>
  <speed>0.5</speed>
  <fix>3d</fix>
</trkpt>
<trkpt lat="33.8100751" lon="-118.3938671">
  <ele>-15.137</ele>
  <time>2026-09-02T22:13:14Z</time>
  <course>184.75</course>
  <speed>0.5203844732503076</speed>
  <fix>3d</fix>
</trkpt>
<trkpt lat="33.8100744" lon="-118.3938669">
  <ele>-14.77</ele>
  <time>2026-09-02T22:13:14Z</time>
  <course>359.9</course>
  <speed>0.5</speed>
  <fix>3d</fix>
</trkpt>
<trkpt lat="33.8100756" lon="-118.3938671">
  <ele>-15.138</ele>
  <time>2026-09-02T22:13:14Z</time>
  <course>184.75</course>
  <speed>0.5203844732503076</speed>
  <fix>3d</fix>
</trkpt>
<trkpt lat="33.8100744" lon="-118.3938669">
  <ele>-14.77</ele>
  <time>2026-09-02T22:13:14Z</time>
  <course>359.9</course>
  <speed>0.5</speed>
  <fix>3d</fix>
</trkpt>
<trkpt lat="33.810076" lon="-118.3938671">
  <ele>-15.138</ele>
  <time>2026-09-02T22:13:14Z</time>
  <course>184.75</course>
  <speed>0.5203844732503076</speed>
  <fix>3d</fix>
</trkpt>
<trkpt lat="33.8100753" lon="-118.3938669">
  <ele>-14.77</ele>
  <time>2026-09-02T22:13:14Z</time>
  <course>359.88</course>
  <speed>0.5</speed>
  <fix>3d</fix>
</trkpt>
<trkpt lat="33.8100765" lon="-118.3938671">
  <ele>-15.138</ele>
  <time>2026-09-02T22:13:14Z</time>
  <course>184.75</course>
  <speed>0.5303772242470448</speed>
  <fix>3d</fix>
</trkpt>
<trkpt lat="33.8100753" lon="-118.3938669">
  <ele>-14.77</ele>
  <time>2026-09-02T22:13:14Z</time>
  <course>359.88</course>
  <speed>0.5</speed>
  <fix>3d</fix>
</trkpt>
<trkpt lat="33.810077" lon="-118.3938671">
  <ele>-15.138</ele>
  <time>2026-09-02T22:13:14Z</time>
  <course>184.75</course>
  <speed>0.5203844732503076</speed>
  <fix>3d</fix>
</trkpt>
<trkpt lat="33.8100762" lon="-118.3938669">
  <ele>-14.77</ele>
  <time>2026-09-02T22:13:14Z</time>
  <course>359.85</course>
  <speed>0.5</speed>
  <fix>3d</fix>
</trkpt>
<trkpt lat="33.8100774" lon="-118.3938671">
  <ele>-15.136</ele>
  <time>2026-09-02T22:13:14Z</time>
  <course>184.75</course>
  <speed>0.5303772242470448</speed>
  <fix>3d</fix>
</trkpt>
<trkpt lat="33.8100762" lon="-118.3938669">
  <ele>-14.77</ele>
  <time>2026-09-02T22:13:14Z</time>
  <course>359.85</course>
  <speed>0.5</speed>
  <fix>3d</fix>
</trkpt>
<trkpt lat="33.8100779" lon="-118.3938671">
  <ele>-15.134</ele>
  <time>2026-09-02T22:13:14Z</time>
  <course>184.75</course>
  <speed>0.5200961449578337</speed>
  <fix>3d</fix>
</trkpt>
<trkpt lat="33.8100771" lon="-118.3938669">
  <ele>-14.76</ele>
  <time>2026-09-02T22:13:14Z</time>
  <course>359.82</course>
  <speed>0.5</speed>
  <fix>3d</fix>
</trkpt>
<trkpt lat="33.8100783" lon="-118.3938671">
  <ele>-15.131</ele>
  <time>2026-09-02T22:13:14Z</time>
  <course>184.75</course>
  <speed>0.5303772242470448</speed>
  <fix>3d</fix>
</trkpt>
<trkpt lat="33.8100771" lon="-118.3938669">
  <ele>-14.76</ele>
  <time>2026-09-02T22:13:14Z</time>
  <course>359.82</course>
  <speed>0.5</speed>
  <fix>3d</fix>
</trkpt>
<trkpt lat="33.8100788" lon="-118.3938671">
  <ele>-15.128</ele>
  <time>2026-09-02T22:13:14Z</time>
  <course>184.75</course>
  <speed>0.5300943312279428</speed>
  <fix>3d</fix>
</trkpt>
<trkpt lat="33.810078" lon="-118.3938669">
  <ele>-14.76</ele>
  <time>2026-09-02T22:13:14Z</time>
  <course>359.79</course>
  <speed>0.5</speed>
  <fix>3d</fix>
</trkpt>
<trkpt lat="33.8100792" lon="-118.3938671">
  <ele>-15.126</ele>
  <time>2026-09-02T22:13:14Z</time>
  <course>184.75</course>
  <speed>0.5303772242470448</speed>
  <fix>3d</fix>
</trkpt>
<trkpt lat="33.810078" lon="-118.3938669">
  <ele>-14.76</ele>
  <time>2026-09-02T22:13:14Z</time>
  <course>359.79</course>
  <speed>0.5</speed>
  <fix>3d</fix>
</trkpt>
<trkpt lat="33.8100797" lon="-118.3938671">
  <ele>-15.124</ele>
  <time>2026-09-02T22:13:14Z</time>
  <course>184.75</course>
  <speed>0.5300943312279428</speed>
  <fix>3d</fix>
</trkpt>
<trkpt lat="33.8100789" lon="-118.3938669">
  <ele>-14.75</ele>
  <time>2026-09-02T22:13:14Z</time>
  <course>359.75</course>
  <speed>0.5</speed>
  <fix>3d</fix>
</trkpt>
<trkpt lat="33.8100802" lon="-118.3938671">
  <ele>-15.122</ele>
  <time>2026-09-02T22:13:14Z</time>
  <course>184.75</course>
  <speed>0.5300943312279428</speed>
  <fix>3d</fix>
</trkpt>
<trkpt lat="33.8100789" lon="-118.3938669">
  <ele>-14.75</ele>
  <time>2026-09-02T22:13:14Z</time>
  <course>359.75</course>
  <speed>0.5</speed>
  <fix>3d</fix>
</trkpt>
<trkpt lat="33.8100806" lon="-118.3938671">
  <ele>-15.12</ele>
  <time>2026-09-02T22:13:14Z</time>
  <course>184.76</course>
  <speed>0.5300943312279428</speed>
  <fix>3d</fix>
</trkpt>
<trkpt lat="33.8100798" lon="-118.3938669">
  <ele>-14.75</ele>
  <time>2026-09-02T22:13:14Z</time>
  <course>359.71</course>
  <speed>0.5</speed>
  <fix>3d</fix>
</trkpt>
<trkpt lat="33.8100811" lon="-118.3938671">
  <ele>-15.12</ele>
  <time>2026-09-02T22:13:14Z</time>
  <course>184.76</course>
  <speed>0.5303772242470448</speed>
  <fix>3d</fix>
</trkpt>
<trkpt lat="33.8100798" lon="-118.3938669">
  <ele>-14.75</ele>
  <time>2026-09-02T22:13:14Z</time>
  <course>359.71</course>
  <speed>0.5</speed>
  <fix>3d</fix>
</trkpt>
<trkpt lat="33.8100815" lon="-118.3938671">
  <ele>-15.122</ele>
  <time>2026-09-02T22:13:14Z</time>
  <course>184.76</course>
  <speed>0.5300943312279428</speed>
  <fix>3d</fix>
</trkpt>
<trkpt lat="33.8100807" lon="-118.3938669">
  <ele>-14.75</ele>
  <time>2026-09-02T22:13:14Z</time>
  <course>359.65</course>
  <speed>0.5</speed>
  <fix>3d</fix>
</trkpt>
<trkpt lat="33.810082" lon="-118.3938671">
  <ele>-15.125</ele>
  <time>2026-09-02T22:13:14Z</time>
  <course>184.76</course>
  <speed>0.5300943312279428</speed>
  <fix>3d</fix>
</trkpt>
<trkpt lat="33.8100807" lon="-118.3938669">
  <ele>-14.75</ele>
  <time>2026-09-02T22:13:14Z</time>
  <course>359.65</course>
  <speed>0.5</speed>
  <fix>3d</fix>
</trkpt>
<trkpt lat="33.8100824" lon="-118.3938671">
  <ele>-15.129</ele>
  <time>2026-09-02T22:13:14Z</time>
  <course>184.76</course>
  <speed>0.5300943312279428</speed>
  <fix>3d</fix>
</trkpt>
<trkpt lat="33.8100817" lon="-118.3938669">
  <ele>-14.76</ele>
  <time>2026-09-02T22:13:14Z</time>
  <course>359.6</course>
  <speed>0.5</speed>
  <fix>3d</fix>
</trkpt>
<trkpt lat="33.8100829" lon="-118.3938671">
  <ele>-15.131</ele>
  <time>2026-09-02T22:13:14Z</time>
  <course>184.76</course>
  <speed>0.5300943312279428</speed>
  <fix>3d</fix>
</trkpt>
<trkpt lat="33.8100817" lon="-118.3938669">
  <ele>-14.76</ele>
  <time>2026-09-02T22:13:14Z</time>
  <course>359.6</course>
  <speed>0.5</speed>
  <fix>3d</fix>
</trkpt>
<trkpt lat="33.8100834" lon="-118.3938671">
  <ele>-15.131</ele>
  <time>2026-09-02T22:13:14Z</time>
  <course>184.76</course>
  <speed>0.5300943312279428</speed>
  <fix>3d</fix>
</trkpt>
<trkpt lat="33.8100826" lon="-118.3938669">
  <ele>-14.76</ele>
  <time>2026-09-02T22:13:14Z</time>
  <course>359.59</course>
  <speed>0.5</speed>
  <fix>3d</fix>
</trkpt>
<trkpt lat="33.8100838" lon="-118.3938671">
  <ele>-15.132</ele>
  <time>2026-09-02T22:13:14Z</time>
  <course>184.76</course>
  <speed>0.5300943312279428</speed>
  <fix>3d</fix>
</trkpt>
<trkpt lat="33.8100826" lon="-118.3938669">
  <ele>-14.76</ele>
  <time>2026-09-02T22:13:14Z</time>
  <course>359.59</course>
  <speed>0.5</speed>
  <fix>3d</fix>
</trkpt>
<trkpt lat="33.8100843" lon="-118.3938671">
  <ele>-15.133</ele>
  <time>2026-09-02T22:13:14Z</time>
  <course>184.76</course>
  <speed>0.5300943312279428</speed>
  <fix>3d</fix>
</trkpt>
<trkpt lat="33.8100835" lon="-118.3938669">
  <ele>-14.77</ele>
  <time>2026-09-02T22:13:14Z</time>
  <course>359.6</course>
  <speed>0.5</speed>
  <fix>3d</fix>
</trkpt>
<trkpt lat="33.8100847" lon="-118.3938671">
  <ele>-15.133</ele>
  <time>2026-09-02T22:13:14Z</time>
  <course>184.76</course>
  <speed>0.5300943312279428</speed>
  <fix>3d</fix>
</trkpt>
<trkpt lat="33.8100835" lon="-118.3938669">
  <ele>-14.77</ele>
  <time>2026-09-02T22:13:14Z</time>
  <course>359.6</course>
  <speed>0.5</speed>
  <fix>3d</fix>
</trkpt>
<trkpt lat="33.8100852" lon="-118.3938671">
  <ele>-15.132</ele>
  <time>2026-09-02T22:13:14Z</time>
  <course>184.76</course>
  <speed>0.5300943312279428</speed>
  <fix>3d</fix>
</trkpt>
<trkpt lat="33.8100844" lon="-118.3938669">
  <ele>-14.77</ele>
  <time>2026-09-02T22:13:14Z</time>
  <course>359.59</course>
  <speed>0.5</speed>
  <fix>3d</fix>
</trkpt>
<trkpt lat="33.8100856" lon="-118.3938671">
  <ele>-15.133</ele>
  <time>2026-09-02T22:13:14Z</time>
  <course>184.76</course>
  <speed>0.5300943312279428</speed>
  <fix>3d</fix>
</trkpt>
<trkpt lat="33.8100844" lon="-118.3938669">
  <ele>-14.77</ele>
  <time>2026-09-02T22:13:14Z</time>
  <course>359.59</course>
  <speed>0.5</speed>
  <fix>3d</fix>
</trkpt>
<trkpt lat="33.8100861" lon="-118.3938671">
  <ele>-15.132</ele>
  <time>2026-09-02T22:13:14Z</time>
  <course>184.76</course>
  <speed>0.5300943312279428</speed>
  <fix>3d</fix>
</trkpt>
<trkpt lat="33.8100853" lon="-118.3938669">
  <ele>-14.77</ele>
  <time>2026-09-02T22:13:14Z</time>
  <course>359.57</course>
  <speed>0.5</speed>
  <fix>3d</fix>
</trkpt>
<trkpt lat="33.8100866" lon="-118.3938671">
  <ele>-15.131</ele>
  <time>2026-09-02T22:13:14Z</time>
  <course>184.76</course>
  <speed>0.5300943312279428</speed>
  <fix>3d</fix>
</trkpt>
<trkpt lat="33.8100853" lon="-118.3938669">
  <ele>-14.77</ele>
  <time>2026-09-02T22:13:14Z</time>
  <course>359.57</course>
  <speed>0.5</speed>
  <fix>3d</fix>
</trkpt>
<trkpt lat="33.810087" lon="-118.3938671">
  <ele>-15.129</ele>
  <time>2026-09-02T22:13:14Z</time>
  <course>184.76</course>
  <speed>0.5300943312279428</speed>
  <fix>3d</fix>
</trkpt>
<trkpt lat="33.8100862" lon="-118.3938669">
  <ele>-14.76</ele>
  <time>2026-09-02T22:13:14Z</time>
  <course>359.57</course>
  <speed>0.5</speed>
  <fix>3d</fix>
</trkpt>
<trkpt lat="33.8100875" lon="-118.3938671">
  <ele>-15.126</ele>
  <time>2026-09-02T22:13:14Z</time>
  <course>184.76</course>
  <speed>0.5300943312279428</speed>
  <fix>3d</fix>
</trkpt>
<trkpt lat="33.8100862" lon="-118.3938669">
  <ele>-14.76</ele>
  <time>2026-09-02T22:13:14Z</time>
  <course>359.57</course>
  <speed>0.5</speed>
  <fix>3d</fix>
</trkpt>
<trkpt lat="33.8100879" lon="-118.3938671">
  <ele>-15.124</ele>
  <time>2026-09-02T22:13:14Z</time>
  <course>184.77</course>
  <speed>0.5300943312279428</speed>
  <fix>3d</fix>
</trkpt>
<trkpt lat="33.8100871" lon="-118.3938669">
  <ele>-14.76</ele>
  <time>2026-09-02T22:13:14Z</time>
  <course>359.57</course>
  <speed>0.5</speed>
  <fix>3d</fix>
</trkpt>
<trkpt lat="33.8100884" lon="-118.3938671">
  <ele>-15.122</ele>
  <time>2026-09-02T22:13:14Z</time>
  <course>184.77</course>
  <speed>0.5300943312279428</speed>
  <fix>3d</fix>
</trkpt>
<trkpt lat="33.8100871" lon="-118.3938669">
  <ele>-14.76</ele>
  <time>2026-09-02T22:13:14Z</time>
  <course>359.57</course>
  <speed>0.5</speed>
  <fix>3d</fix>
</trkpt>
<trkpt lat="33.8100888" lon="-118.3938671">
  <ele>-15.122</ele>
  <time>2026-09-02T22:13:14Z</time>
  <course>184.77</course>
  <speed>0.5300943312279428</speed>
  <fix>3d</fix>
</trkpt>
<trkpt lat="33.810088" lon="-118.3938669">
  <ele>-14.76</ele>
  <time>2026-09-02T22:13:14Z</time>
  <course>359.56</course>
  <speed>0.5</speed>
  <fix>3d</fix>
</trkpt>
<trkpt lat="33.8100893" lon="-118.3938671">
  <ele>-15.123</ele>
  <time>2026-09-02T22:13:14Z</time>
  <course>184.77</course>
  <speed>0.5300943312279428</speed>
  <fix>3d</fix>
</trkpt>
<trkpt lat="33.810088" lon="-118.3938669">
  <ele>-14.76</ele>
  <time>2026-09-02T22:13:14Z</time>
  <course>359.56</course>
  <speed>0.5</speed>
  <fix>3d</fix>
</trkpt>
<trkpt lat="33.8100897" lon="-118.3938671">
  <ele>-15.125</ele>
  <time>2026-09-02T22:13:14Z</time>
  <course>184.77</course>
  <speed>0.5300943312279428</speed>
  <fix>3d</fix>
</trkpt>
<trkpt lat="33.8100889" lon="-118.3938669">
  <ele>-14.76</ele>
  <time>2026-09-02T22:13:14Z</time>
  <course>359.54</course>
  <speed>0.5</speed>
  <fix>3d</fix>
</trkpt>
<trkpt lat="33.8100902" lon="-118.3938671">
  <ele>-15.128</ele>
  <time>2026-09-02T22:13:14Z</time>
  <course>184.77</course>
  <speed>0.5300943312279428</speed>
  <fix>3d</fix>
</trkpt>
<trkpt lat="33.8100889" lon="-118.3938669">
  <ele>-14.76</ele>
  <time>2026-09-02T22:13:14Z</time>
  <course>359.54</course>
  <speed>0.5</speed>
  <fix>3d</fix>
</trkpt>
<trkpt lat="33.8100907" lon="-118.3938671">
  <ele>-15.131</ele>
  <time>2026-09-02T22:13:14Z</time>
  <course>184.77</course>
  <speed>0.5300943312279428</speed>
  <fix>3d</fix>
</trkpt>
<trkpt lat="33.8100898" lon="-118.3938669">
  <ele>-14.77</ele>
  <time>2026-09-02T22:13:14Z</time>
  <course>359.52</course>
  <speed>0.5</speed>
  <fix>3d</fix>
</trkpt>
<trkpt lat="33.8100911" lon="-118.3938671">
  <ele>-15.133</ele>
  <time>2026-09-02T22:13:14Z</time>
  <course>184.77</course>
  <speed>0.5300943312279428</speed>
  <fix>3d</fix>
</trkpt>
<trkpt lat="33.8100898" lon="-118.3938669">
  <ele>-14.77</ele>
  <time>2026-09-02T22:13:14Z</time>
  <course>359.52</course>
  <speed>0.5</speed>
  <fix>3d</fix>
</trkpt>
<trkpt lat="33.8100916" lon="-118.3938671">
  <ele>-15.134</ele>
  <time>2026-09-02T22:13:14Z</time>
  <course>184.77</course>
  <speed>0.5300943312279428</speed>
  <fix>3d</fix>
</trkpt>
<trkpt lat="33.8100908" lon="-118.3938669">
  <ele>-14.77</ele>
  <time>2026-09-02T22:13:14Z</time>
  <course>359.48</course>
  <speed>0.5</speed>
  <fix>3d</fix>
</trkpt>
<trkpt lat="33.810092" lon="-118.3938671">
  <ele>-15.136</ele>
  <time>2026-09-02T22:13:14Z</time>
  <course>184.77</course>
  <speed>0.5300943312279428</speed>
  <fix>3d</fix>
</trkpt>
<trkpt lat="33.8100908" lon="-118.3938669">
  <ele>-14.77</ele>
  <time>2026-09-02T22:13:14Z</time>
  <course>359.48</course>
  <speed>0.5</speed>
  <fix>3d</fix>
</trkpt>
<trkpt lat="33.8100925" lon="-118.3938671">
  <ele>-15.137</ele>
  <time>2026-09-02T22:13:14Z</time>
  <course>184.77</course>
  <speed>0.5300943312279428</speed>
  <fix>3d</fix>
</trkpt>
<trkpt lat="33.8100917" lon="-118.3938669">
  <ele>-14.78</ele>
  <time>2026-09-02T22:13:14Z</time>
  <course>359.47</course>
  <speed>0.5</speed>
  <fix>3d</fix>
</trkpt>
<trkpt lat="33.8100929" lon="-118.3938671">
  <ele>-15.139</ele>
  <time>2026-09-02T22:13:14Z</time>
  <course>184.77</course>
  <speed>0.5300943312279428</speed>
  <fix>3d</fix>
</trkpt>
<trkpt lat="33.8100917" lon="-118.3938669">
  <ele>-14.78</ele>
  <time>2026-09-02T22:13:14Z</time>
  <course>359.47</course>
  <speed>0.5</speed>
  <fix>3d</fix>
</trkpt>
<trkpt lat="33.8100934" lon="-118.3938671">
  <ele>-15.139</ele>
  <time>2026-09-02T22:13:14Z</time>
  <course>184.77</course>
  <speed>0.5300943312279428</speed>
  <fix>3d</fix>
</trkpt>
<trkpt lat="33.8100926" lon="-118.3938669">
  <ele>-14.78</ele>
  <time>2026-09-02T22:13:14Z</time>
  <course>359.49</course>
  <speed>0.5</speed>
  <fix>3d</fix>
</trkpt>
<trkpt lat="33.8100939" lon="-118.3938671">
  <ele>-15.138</ele>
  <time>2026-09-02T22:13:14Z</time>
  <course>184.77</course>
  <speed>0.5300943312279428</speed>
  <fix>3d</fix>
</trkpt>
<trkpt lat="33.8100926" lon="-118.3938669">
  <ele>-14.78</ele>
  <time>2026-09-02T22:13:14Z</time>
  <course>359.49</course>
  <speed>0.5</speed>
  <fix>3d</fix>
</trkpt>
<trkpt lat="33.8100943" lon="-118.3938671">
  <ele>-15.136</ele>
  <time>2026-09-02T22:13:14Z</time>
  <course>184.77</course>
  <speed>0.5300943312279428</speed>
  <fix>3d</fix>
</trkpt>
<trkpt lat="33.8100935" lon="-118.3938669">
  <ele>-14.77</ele>
  <time>2026-09-02T22:13:14Z</time>
  <course>359.49</course>
  <speed>0.5</speed>
  <fix>3d</fix>
</trkpt>
<trkpt lat="33.8100948" lon="-118.3938671">
  <ele>-15.133</ele>
  <time>2026-09-02T22:13:14Z</time>
  <course>184.77</course>
  <speed>0.5300943312279428</speed>
  <fix>3d</fix>
</trkpt>
<trkpt lat="33.8100935" lon="-118.3938669">
  <ele>-14.77</ele>
  <time>2026-09-02T22:13:14Z</time>
  <course>359.49</course>
  <speed>0.5</speed>
  <fix>3d</fix>
</trkpt>
<trkpt lat="33.8100952" lon="-118.3938671">
  <ele>-15.131</ele>
  <time>2026-09-02T22:13:14Z</time>
  <course>184.77</course>
  <speed>0.5300943312279428</speed>
  <fix>3d</fix>
</trkpt>
<trkpt lat="33.8100944" lon="-118.3938669">
  <ele>-14.77</ele>
  <time>2026-09-02T22:13:14Z</time>
  <course>359.5</course>
  <speed>0.5</speed>
  <fix>3d</fix>
</trkpt>
<trkpt lat="33.8100957" lon="-118.3938671">
  <ele>-15.129</ele>
  <time>2026-09-02T22:13:14Z</time>
  <course>184.78</course>
  <speed>0.5300943312279428</speed>
  <fix>3d</fix>
</trkpt>
<trkpt lat="33.8100944" lon="-118.3938669">
  <ele>-14.77</ele>
  <time>2026-09-02T22:13:14Z</time>
  <course>359.5</course>
  <speed>0.5</speed>
  <fix>3d</fix>
</trkpt>
<trkpt lat="33.8100961" lon="-118.3938671">
  <ele>-15.128</ele>
  <time>2026-09-02T22:13:14Z</time>
  <course>184.78</course>
  <speed>0.5300943312279428</speed>
  <fix>3d</fix>
</trkpt>
<trkpt lat="33.8100953" lon="-118.393867">
  <ele>-14.76</ele>
  <time>2026-09-02T22:13:14Z</time>
  <course>359.49</course>
  <speed>0.5</speed>
  <fix>3d</fix>
</trkpt>
<trkpt lat="33.8100966" lon="-118.3938671">
  <ele>-15.126</ele>
  <time>2026-09-02T22:13:14Z</time>
  <course>184.78</course>
  <speed>0.5300943312279428</speed>
  <fix>3d</fix>
</trkpt>
<trkpt lat="33.8100953" lon="-118.393867">
  <ele>-14.76</ele>
  <time>2026-09-02T22:13:14Z</time>
  <course>359.49</course>
  <speed>0.5</speed>
  <fix>3d</fix>
</trkpt>
<trkpt lat="33.810097" lon="-118.3938671">
  <ele>-15.126</ele>
  <time>2026-09-02T22:13:14Z</time>
  <course>184.77</course>
  <speed>0.5300943312279428</speed>
  <fix>3d</fix>
</trkpt>
<trkpt lat="33.8100962" lon="-118.393867">
  <ele>-14.76</ele>
  <time>2026-09-02T22:13:14Z</time>
  <course>359.54</course>
  <speed>0.5</speed>
  <fix>3d</fix>
</trkpt>
<trkpt lat="33.8100975" lon="-118.3938671">
  <ele>-15.125</ele>
  <time>2026-09-02T22:13:14Z</time>
  <course>184.77</course>
  <speed>0.5300943312279428</speed>
  <fix>3d</fix>
</trkpt>
<trkpt lat="33.8100962" lon="-118.393867">
  <ele>-14.76</ele>
  <time>2026-09-02T22:13:14Z</time>
  <course>359.54</course>
  <speed>0.5</speed>
  <fix>3d</fix>
</trkpt>
<trkpt lat="33.8100979" lon="-118.3938671">
  <ele>-15.126</ele>
  <time>2026-09-02T22:13:14Z</time>
  <course>184.78</course>
  <speed>0.5300943312279428</speed>
  <fix>3d</fix>
</trkpt>
<trkpt lat="33.8100971" lon="-118.393867">
  <ele>-14.76</ele>
  <time>2026-09-02T22:13:14Z</time>
  <course>359.7</course>
  <speed>0.5</speed>
  <fix>3d</fix>
</trkpt>
<trkpt lat="33.8100984" lon="-118.3938671">
  <ele>-15.128</ele>
  <time>2026-09-02T22:13:14Z</time>
  <course>184.77</course>
  <speed>0.5300943312279428</speed>
  <fix>3d</fix>
</trkpt>
<trkpt lat="33.8100971" lon="-118.393867">
  <ele>-14.76</ele>
  <time>2026-09-02T22:13:14Z</time>
  <course>359.7</course>
  <speed>0.5</speed>
  <fix>3d</fix>
</trkpt>
<trkpt lat="33.8100989" lon="-118.3938671">
  <ele>-15.13</ele>
  <time>2026-09-02T22:13:14Z</time>
  <course>184.77</course>
  <speed>0.5300943312279428</speed>
  <fix>3d</fix>
</trkpt>
<trkpt lat="33.8100981" lon="-118.393867">
  <ele>-14.76</ele>
  <time>2026-09-02T22:13:14Z</time>
  <course>359.89</course>
  <speed>0.5</speed>
  <fix>3d</fix>
</trkpt>
<trkpt lat="33.8100993" lon="-118.3938671">
  <ele>-15.132</ele>
  <time>2026-09-02T22:13:14Z</time>
  <course>184.78</course>
  <speed>0.5300943312279428</speed>
  <fix>3d</fix>
</trkpt>
<trkpt lat="33.8100981" lon="-118.393867">
  <ele>-14.76</ele>
  <time>2026-09-02T22:13:14Z</time>
  <course>359.89</course>
  <speed>0.5</speed>
  <fix>3d</fix>
</trkpt>
<trkpt lat="33.8100998" lon="-118.3938671">
  <ele>-15.133</ele>
  <time>2026-09-02T22:13:14Z</time>
  <course>184.78</course>
  <speed>0.5300943312279428</speed>
  <fix>3d</fix>
</trkpt>
<trkpt lat="33.810099" lon="-118.393867">
  <ele>-14.76</ele>
  <time>2026-09-02T22:13:14Z</time>
  <course>0.06</course>
  <speed>0.5</speed>
  <fix>3d</fix>
</trkpt>
<trkpt lat="33.8101002" lon="-118.3938671">
  <ele>-15.133</ele>
  <time>2026-09-02T22:13:14Z</time>
  <course>184.78</course>
  <speed>0.5300943312279428</speed>
  <fix>3d</fix>
</trkpt>
<trkpt lat="33.810099" lon="-118.393867">
  <ele>-14.76</ele>
  <time>2026-09-02T22:13:14Z</time>
  <course>0.06</course>
  <speed>0.5</speed>
  <fix>3d</fix>
</trkpt>
<trkpt lat="33.8101007" lon="-118.3938671">
  <ele>-15.133</ele>
  <time>2026-09-02T22:13:14Z</time>
  <course>184.78</course>
  <speed>0.5200961449578337</speed>
  <fix>3d</fix>
</trkpt>
<trkpt lat="33.8100999" lon="-118.393867">
  <ele>-14.76</ele>
  <time>2026-09-02T22:13:14Z</time>
  <course>0.2</course>
  <speed>0.5</speed>
  <fix>3d</fix>
</trkpt>
<trkpt lat="33.8101011" lon="-118.3938671">
  <ele>-15.133</ele>
  <time>2026-09-02T22:13:14Z</time>
  <course>184.78</course>
  <speed>0.5200961449578337</speed>
  <fix>3d</fix>
</trkpt>
<trkpt lat="33.8100999" lon="-118.393867">
  <ele>-14.76</ele>
  <time>2026-09-02T22:13:14Z</time>
  <course>0.2</course>
  <speed>0.5</speed>
  <fix>3d</fix>
</trkpt>
<trkpt lat="33.8101016" lon="-118.3938671">
  <ele>-15.132</ele>
  <time>2026-09-02T22:13:14Z</time>
  <course>184.78</course>
  <speed>0.5200961449578337</speed>
  <fix>3d</fix>
</trkpt>
<trkpt lat="33.8101008" lon="-118.393867">
  <ele>-14.76</ele>
  <time>2026-09-02T22:13:14Z</time>
  <course>0.3</course>
  <speed>0.5</speed>
  <fix>3d</fix>
</trkpt>
<trkpt lat="33.8101021" lon="-118.3938671">
  <ele>-15.13</ele>
  <time>2026-09-02T22:13:14Z</time>
  <course>184.78</course>
  <speed>0.5200961449578337</speed>
  <fix>3d</fix>
</trkpt>
<trkpt lat="33.8101008" lon="-118.393867">
  <ele>-14.76</ele>
  <time>2026-09-02T22:13:14Z</time>
  <course>0.3</course>
  <speed>0.5</speed>
  <fix>3d</fix>
</trkpt>
<trkpt lat="33.8101025" lon="-118.3938671">
  <ele>-15.13</ele>
  <time>2026-09-02T22:13:14Z</time>
  <course>184.77</course>
  <speed>0.5200961449578337</speed>
  <fix>3d</fix>
</trkpt>
<trkpt lat="33.8101017" lon="-118.393867">
  <ele>-14.76</ele>
  <time>2026-09-02T22:13:14Z</time>
  <course>0.36</course>
  <speed>0.5</speed>
  <fix>3d</fix>
</trkpt>
<trkpt lat="33.810103" lon="-118.3938671">
  <ele>-15.13</ele>
  <time>2026-09-02T22:13:14Z</time>
  <course>184.78</course>
  <speed>0.5200961449578337</speed>
  <fix>3d</fix>
</trkpt>
<trkpt lat="33.8101017" lon="-118.393867">
  <ele>-14.76</ele>
  <time>2026-09-02T22:13:14Z</time>
  <course>0.36</course>
  <speed>0.5</speed>
  <fix>3d</fix>
</trkpt>
<trkpt lat="33.8101034" lon="-118.3938671">
  <ele>-15.13</ele>
  <time>2026-09-02T22:13:14Z</time>
  <course>184.78</course>
  <speed>0.5200961449578337</speed>
  <fix>3d</fix>
</trkpt>
<trkpt lat="33.8101026" lon="-118.393867">
  <ele>-14.75</ele>
  <time>2026-09-02T22:13:14Z</time>
  <course>0.41</course>
  <speed>0.5</speed>
  <fix>3d</fix>
</trkpt>
<trkpt lat="33.8101039" lon="-118.3938671">
  <ele>-15.13</ele>
  <time>2026-09-02T22:13:14Z</time>
  <course>184.78</course>
  <speed>0.5200961449578337</speed>
  <fix>3d</fix>
</trkpt>
<trkpt lat="33.8101026" lon="-118.393867">
  <ele>-14.75</ele>
  <time>2026-09-02T22:13:14Z</time>
  <course>0.41</course>
  <speed>0.5</speed>
  <fix>3d</fix>
</trkpt>
<trkpt lat="33.8101043" lon="-118.3938671">
  <ele>-15.13</ele>
  <time>2026-09-02T22:13:14Z</time>
  <course>184.78</course>
  <speed>0.5200961449578337</speed>
  <fix>3d</fix>
</trkpt>
<trkpt lat="33.8101035" lon="-118.393867">
  <ele>-14.75</ele>
  <time>2026-09-02T22:13:14Z</time>
  <course>0.45</course>
  <speed>0.5</speed>
  <fix>3d</fix>
</trkpt>
<trkpt lat="33.8101048" lon="-118.3938671">
  <ele>-15.131</ele>
  <time>2026-09-02T22:13:14Z</time>
  <course>184.78</course>
  <speed>0.5200961449578337</speed>
  <fix>3d</fix>
</trkpt>
<trkpt lat="33.8101035" lon="-118.393867">
  <ele>-14.75</ele>
  <time>2026-09-02T22:13:14Z</time>
  <course>0.45</course>
  <speed>0.5</speed>
  <fix>3d</fix>
</trkpt>
<trkpt lat="33.8101052" lon="-118.3938671">
  <ele>-15.13</ele>
  <time>2026-09-02T22:13:14Z</time>
  <course>184.78</course>
  <speed>0.5200961449578337</speed>
  <fix>3d</fix>
</trkpt>
<trkpt lat="33.8101044" lon="-118.393867">
  <ele>-14.75</ele>
  <time>2026-09-02T22:13:14Z</time>
  <course>0.49</course>
  <speed>0.5</speed>
  <fix>3d</fix>
</trkpt>
<trkpt lat="33.8101057" lon="-118.3938671">
  <ele>-15.129</ele>
  <time>2026-09-02T22:13:14Z</time>
  <course>184.78</course>
  <speed>0.5200961449578337</speed>
  <fix>3d</fix>
</trkpt>
<trkpt lat="33.8101044" lon="-118.393867">
  <ele>-14.75</ele>
  <time>2026-09-02T22:13:14Z</time>
  <course>0.49</course>
  <speed>0.5</speed>
  <fix>3d</fix>
</trkpt>
<trkpt lat="33.8101061" lon="-118.3938671">
  <ele>-15.128</ele>
  <time>2026-09-02T22:13:14Z</time>
  <course>184.78</course>
  <speed>0.5200961449578337</speed>
  <fix>3d</fix>
</trkpt>
<trkpt lat="33.8101053" lon="-118.393867">
  <ele>-14.75</ele>
  <time>2026-09-02T22:13:14Z</time>
  <course>0.55</course>
  <speed>0.5</speed>
  <fix>3d</fix>
</trkpt>
<trkpt lat="33.8101066" lon="-118.3938671">
  <ele>-15.127</ele>
  <time>2026-09-02T22:13:14Z</time>
  <course>184.78</course>
  <speed>0.5200961449578337</speed>
  <fix>3d</fix>
</trkpt>
<trkpt lat="33.8101053" lon="-118.393867">
  <ele>-14.75</ele>
  <time>2026-09-02T22:13:14Z</time>
  <course>0.55</course>
  <speed>0.5</speed>
  <fix>3d</fix>
</trkpt>
<trkpt lat="33.810107" lon="-118.3938671">
  <ele>-15.126</ele>
  <time>2026-09-02T22:13:14Z</time>
  <course>184.78</course>
  <speed>0.5200961449578337</speed>
  <fix>3d</fix>
</trkpt>
<trkpt lat="33.8101062" lon="-118.393867">
  <ele>-14.75</ele>
  <time>2026-09-02T22:13:14Z</time>
  <course>0.6</course>
  <speed>0.5</speed>
  <fix>3d</fix>
</trkpt>
<trkpt lat="33.8101075" lon="-118.3938671">
  <ele>-15.126</ele>
  <time>2026-09-02T22:13:14Z</time>
  <course>184.78</course>
  <speed>0.5200961449578337</speed>
  <fix>3d</fix>
</trkpt>
<trkpt lat="33.8101062" lon="-118.393867">
  <ele>-14.75</ele>
  <time>2026-09-02T22:13:14Z</time>
  <course>0.6</course>
  <speed>0.5</speed>
  <fix>3d</fix>
</trkpt>
<trkpt lat="33.8101079" lon="-118.3938671">
  <ele>-15.125</ele>
  <time>2026-09-02T22:13:14Z</time>
  <course>184.78</course>
  <speed>0.5200961449578337</speed>
  <fix>3d</fix>
</trkpt>
<trkpt lat="33.8101071" lon="-118.393867">
  <ele>-14.75</ele>
  <time>2026-09-02T22:13:14Z</time>
  <course>0.65</course>
  <speed>0.5</speed>
  <fix>3d</fix>
</trkpt>
<trkpt lat="33.8101084" lon="-118.3938671">
  <ele>-15.123</ele>
  <time>2026-09-02T22:13:14Z</time>
  <course>184.78</course>
  <speed>0.5300943312279428</speed>
  <fix>3d</fix>
</trkpt>
<trkpt lat="33.8101071" lon="-118.393867">
  <ele>-14.75</ele>
  <time>2026-09-02T22:13:14Z</time>
  <course>0.65</course>
  <speed>0.5</speed>
  <fix>3d</fix>
</trkpt>
<trkpt lat="33.8101089" lon="-118.3938671">
  <ele>-15.123</ele>
  <time>2026-09-02T22:13:14Z</time>
  <course>184.78</course>
  <speed>0.5200961449578337</speed>
  <fix>3d</fix>
</trkpt>
<trkpt lat="33.810108" lon="-118.393867">
  <ele>-14.75</ele>
  <time>2026-09-02T22:13:14Z</time>
  <course>0.68</course>
  <speed>0.5</speed>
  <fix>3d</fix>
</trkpt>
<trkpt lat="33.8101093" lon="-118.3938671">
  <ele>-15.123</ele>
  <time>2026-09-02T22:13:14Z</time>
  <course>184.78</course>
  <speed>0.5300943312279428</speed>
  <fix>3d</fix>
</trkpt>
<trkpt lat="33.810108" lon="-118.393867">
  <ele>-14.75</ele>
  <time>2026-09-02T22:13:14Z</time>
  <course>0.68</course>
  <speed>0.5</speed>
  <fix>3d</fix>
</trkpt>
<trkpt lat="33.8101098" lon="-118.3938671">
  <ele>-15.124</ele>
  <time>2026-09-02T22:13:14Z</time>
  <course>184.78</course>
  <speed>0.5200961449578337</speed>
  <fix>3d</fix>
</trkpt>
<trkpt lat="33.8101089" lon="-118.393867">
  <ele>-14.75</ele>
  <time>2026-09-02T22:13:14Z</time>
  <course>0.7</course>
  <speed>0.5</speed>
  <fix>3d</fix>
</trkpt>
<trkpt lat="33.8101102" lon="-118.3938671">
  <ele>-15.125</ele>
  <time>2026-09-02T22:13:14Z</time>
  <course>184.78</course>
  <speed>0.5300943312279428</speed>
  <fix>3d</fix>
</trkpt>
<trkpt lat="33.8101089" lon="-118.393867">
  <ele>-14.75</ele>
  <time>2026-09-02T22:13:14Z</time>
  <course>0.7</course>
  <speed>0.5</speed>
  <fix>3d</fix>
</trkpt>
<trkpt lat="33.8101107" lon="-118.3938671">
  <ele>-15.127</ele>
  <time>2026-09-02T22:13:14Z</time>
  <course>184.78</course>
  <speed>0.5300943312279428</speed>
  <fix>3d</fix>
</trkpt>
<trkpt lat="33.8101098" lon="-118.393867">
  <ele>-14.75</ele>
  <time>2026-09-02T22:13:14Z</time>
  <course>0.73</course>
  <speed>0.5</speed>
  <fix>3d</fix>
</trkpt>
<trkpt lat="33.8101111" lon="-118.3938671">
  <ele>-15.129</ele>
  <time>2026-09-02T22:13:14Z</time>
  <course>184.78</course>
  <speed>0.5300943312279428</speed>
  <fix>3d</fix>
</trkpt>
<trkpt lat="33.8101098" lon="-118.393867">
  <ele>-14.75</ele>
  <time>2026-09-02T22:13:14Z</time>
  <course>0.73</course>
  <speed>0.5</speed>
  <fix>3d</fix>
</trkpt>
<trkpt lat="33.8101116" lon="-118.3938671">
  <ele>-15.131</ele>
  <time>2026-09-02T22:13:14Z</time>
  <course>184.78</course>
  <speed>0.5300943312279428</speed>
  <fix>3d</fix>
</trkpt>
<trkpt lat="33.8101107" lon="-118.3938669">
  <ele>-14.76</ele>
  <time>2026-09-02T22:13:14Z</time>
  <course>0.77</course>
  <speed>0.5</speed>
  <fix>3d</fix>
</trkpt>
<trkpt lat="33.810112" lon="-118.3938671">
  <ele>-15.132</ele>
  <time>2026-09-02T22:13:14Z</time>
  <course>184.78</course>
  <speed>0.5300943312279428</speed>
  <fix>3d</fix>
</trkpt>
<trkpt lat="33.8101107" lon="-118.3938669">
  <ele>-14.76</ele>
  <time>2026-09-02T22:13:14Z</time>
  <course>0.77</course>
  <speed>0.5</speed>
  <fix>3d</fix>
</trkpt>
<trkpt lat="33.8101125" lon="-118.3938671">
  <ele>-15.134</ele>
  <time>2026-09-02T22:13:14Z</time>
  <course>184.78</course>
  <speed>0.5300943312279428</speed>
  <fix>3d</fix>
</trkpt>
<trkpt lat="33.8101117" lon="-118.3938669">
  <ele>-14.76</ele>
  <time>2026-09-02T22:13:14Z</time>
  <course>0.75</course>
  <speed>0.5</speed>
  <fix>3d</fix>
</trkpt>
<trkpt lat="33.8101129" lon="-118.3938671">
  <ele>-15.134</ele>
  <time>2026-09-02T22:13:14Z</time>
  <course>184.78</course>
  <speed>0.5300943312279428</speed>
  <fix>3d</fix>
</trkpt>
<trkpt lat="33.8101117" lon="-118.3938669">
  <ele>-14.76</ele>
  <time>2026-09-02T22:13:14Z</time>
  <course>0.75</course>
  <speed>0.5</speed>
  <fix>3d</fix>
</trkpt>
<trkpt lat="33.8101134" lon="-118.3938671">
  <ele>-15.133</ele>
  <time>2026-09-02T22:13:14Z</time>
  <course>184.78</course>
  <speed>0.5200961449578337</speed>
  <fix>3d</fix>
</trkpt>
<trkpt lat="33.8101126" lon="-118.3938669">
  <ele>-14.76</ele>
  <time>2026-09-02T22:13:14Z</time>
  <course>0.65</course>
  <speed>0.5</speed>
  <fix>3d</fix>
</trkpt>
<trkpt lat="33.8101138" lon="-118.3938671">
  <ele>-15.131</ele>
  <time>2026-09-02T22:13:14Z</time>
  <course>184.78</course>
  <speed>0.5300943312279428</speed>
  <fix>3d</fix>
</trkpt>
<trkpt lat="33.8101126" lon="-118.3938669">
  <ele>-14.76</ele>
  <time>2026-09-02T22:13:14Z</time>
  <course>0.65</course>
  <speed>0.5</speed>
  <fix>3d</fix>
</trkpt>
<trkpt lat="33.8101143" lon="-118.3938671">
  <ele>-15.131</ele>
  <time>2026-09-02T22:13:14Z</time>
  <course>184.78</course>
  <speed>0.5200961449578337</speed>
  <fix>3d</fix>
</trkpt>
<trkpt lat="33.8101135" lon="-118.3938669">
  <ele>-14.76</ele>
  <time>2026-09-02T22:13:14Z</time>
  <course>0.53</course>
  <speed>0.5</speed>
  <fix>3d</fix>
</trkpt>
<trkpt lat="33.8101147" lon="-118.3938671">
  <ele>-15.131</ele>
  <time>2026-09-02T22:13:14Z</time>
  <course>184.78</course>
  <speed>0.5200961449578337</speed>
  <fix>3d</fix>
</trkpt>
<trkpt lat="33.8101135" lon="-118.3938669">
  <ele>-14.76</ele>
  <time>2026-09-02T22:13:14Z</time>
  <course>0.53</course>
  <speed>0.5</speed>
  <fix>3d</fix>
</trkpt>
<trkpt lat="33.8101152" lon="-118.3938671">
  <ele>-15.131</ele>
  <time>2026-09-02T22:13:14Z</time>
  <course>184.78</course>
  <speed>0.5200961449578337</speed>
  <fix>3d</fix>
</trkpt>
<trkpt lat="33.8101144" lon="-118.3938669">
  <ele>-14.76</ele>
  <time>2026-09-02T22:13:14Z</time>
  <course>0.41</course>
  <speed>0.5</speed>
  <fix>3d</fix>
</trkpt>
<trkpt lat="33.8101157" lon="-118.3938671">
  <ele>-15.131</ele>
  <time>2026-09-02T22:13:14Z</time>
  <course>184.78</course>
  <speed>0.5200961449578337</speed>
  <fix>3d</fix>
</trkpt>
<trkpt lat="33.8101144" lon="-118.3938669">
  <ele>-14.76</ele>
  <time>2026-09-02T22:13:14Z</time>
  <course>0.41</course>
  <speed>0.5</speed>
  <fix>3d</fix>
</trkpt>
<trkpt lat="33.8101161" lon="-118.3938671">
  <ele>-15.13</ele>
  <time>2026-09-02T22:13:14Z</time>
  <course>184.78</course>
  <speed>0.5200961449578337</speed>
  <fix>3d</fix>
</trkpt>
<trkpt lat="33.8101153" lon="-118.3938669">
  <ele>-14.75</ele>
  <time>2026-09-02T22:13:14Z</time>
  <course>0.36</course>
  <speed>0.5</speed>
  <fix>3d</fix>
</trkpt>
<trkpt lat="33.8101166" lon="-118.3938671">
  <ele>-15.128</ele>
  <time>2026-09-02T22:13:14Z</time>
  <course>184.78</course>
  <speed>0.5200961449578337</speed>
  <fix>3d</fix>
</trkpt>
<trkpt lat="33.8101153" lon="-118.3938669">
  <ele>-14.75</ele>
  <time>2026-09-02T22:13:14Z</time>
  <course>0.36</course>
  <speed>0.5</speed>
  <fix>3d</fix>
</trkpt>
<trkpt lat="33.810117" lon="-118.3938671">
  <ele>-15.126</ele>
  <time>2026-09-02T22:13:14Z</time>
  <course>184.78</course>
  <speed>0.5200961449578337</speed>
  <fix>3d</fix>
</trkpt>
<trkpt lat="33.8101162" lon="-118.3938669">
  <ele>-14.75</ele>
  <time>2026-09-02T22:13:14Z</time>
  <course>0.33</course>
  <speed>0.5</speed>
  <fix>3d</fix>
</trkpt>
<trkpt lat="33.8101175" lon="-118.3938671">
  <ele>-15.124</ele>
  <time>2026-09-02T22:13:14Z</time>
  <course>184.78</course>
  <speed>0.5200961449578337</speed>
  <fix>3d</fix>
</trkpt>
<trkpt lat="33.8101162" lon="-118.3938669">
  <ele>-14.75</ele>
  <time>2026-09-02T22:13:14Z</time>
  <course>0.33</course>
  <speed>0.5</speed>
  <fix>3d</fix>
</trkpt>
<trkpt lat="33.8101179" lon="-118.3938671">
  <ele>-15.123</ele>
  <time>2026-09-02T22:13:14Z</time>
  <course>184.78</course>
  <speed>0.5200961449578337</speed>
  <fix>3d</fix>
</trkpt>
<trkpt lat="33.8101171" lon="-118.3938669">
  <ele>-14.75</ele>
  <time>2026-09-02T22:13:14Z</time>
  <course>0.31</course>
  <speed>0.5</speed>
  <fix>3d</fix>
</trkpt>
<trkpt lat="33.8101184" lon="-118.3938671">
  <ele>-15.123</ele>
  <time>2026-09-02T22:13:14Z</time>
  <course>184.78</course>
  <speed>0.5200961449578337</speed>
  <fix>3d</fix>
</trkpt>
<trkpt lat="33.8101171" lon="-118.3938669">
  <ele>-14.75</ele>
  <time>2026-09-02T22:13:14Z</time>
  <course>0.31</course>
  <speed>0.5</speed>
  <fix>3d</fix>
</trkpt>
<trkpt lat="33.8101188" lon="-118.3938671">
  <ele>-15.125</ele>
  <time>2026-09-02T22:13:14Z</time>
  <course>184.78</course>
  <speed>0.5200961449578337</speed>
  <fix>3d</fix>
</trkpt>
<trkpt lat="33.810118" lon="-118.3938669">
  <ele>-14.75</ele>
  <time>2026-09-02T22:13:14Z</time>
  <course>0.31</course>
  <speed>0.5</speed>
  <fix>3d</fix>
</trkpt>
<trkpt lat="33.8101193" lon="-118.3938671">
  <ele>-15.127</ele>
  <time>2026-09-02T22:13:14Z</time>
  <course>184.78</course>
  <speed>0.5200961449578337</speed>
  <fix>3d</fix>
</trkpt>
<trkpt lat="33.810118" lon="-118.3938669">
  <ele>-14.75</ele>
  <time>2026-09-02T22:13:14Z</time>
  <course>0.31</course>
  <speed>0.5</speed>
  <fix>3d</fix>
</trkpt>
<trkpt lat="33.8101197" lon="-118.3938671">
  <ele>-15.127</ele>
  <time>2026-09-02T22:13:14Z</time>
  <course>184.78</course>
  <speed>0.5200961449578337</speed>
  <fix>3d</fix>
</trkpt>
<trkpt lat="33.8101189" lon="-118.3938669">
  <ele>-14.76</ele>
  <time>2026-09-02T22:13:14Z</time>
  <course>0.32</course>
  <speed>0.5</speed>
  <fix>3d</fix>
</trkpt>
<trkpt lat="33.8101202" lon="-118.3938671">
  <ele>-15.128</ele>
  <time>2026-09-02T22:13:14Z</time>
  <course>184.78</course>
  <speed>0.5200961449578337</speed>
  <fix>3d</fix>
</trkpt>
<trkpt lat="33.8101189" lon="-118.3938669">
  <ele>-14.76</ele>
  <time>2026-09-02T22:13:14Z</time>
  <course>0.32</course>
  <speed>0.5</speed>
  <fix>3d</fix>
</trkpt>
<trkpt lat="33.8101206" lon="-118.3938671">
  <ele>-15.128</ele>
  <time>2026-09-02T22:13:14Z</time>
  <course>184.78</course>
  <speed>0.5200961449578337</speed>
  <fix>3d</fix>
</trkpt>
<trkpt lat="33.8101198" lon="-118.3938669">
  <ele>-14.76</ele>
  <time>2026-09-02T22:13:14Z</time>
  <course>0.35</course>
  <speed>0.5</speed>
  <fix>3d</fix>
</trkpt>
<trkpt lat="33.8101211" lon="-118.3938671">
  <ele>-15.129</ele>
  <time>2026-09-02T22:13:14Z</time>
  <course>184.78</course>
  <speed>0.5200961449578337</speed>
  <fix>3d</fix>
</trkpt>
<trkpt lat="33.8101198" lon="-118.3938669">
  <ele>-14.76</ele>
  <time>2026-09-02T22:13:14Z</time>
  <course>0.35</course>
  <speed>0.5</speed>
  <fix>3d</fix>
</trkpt>
<trkpt lat="33.8101215" lon="-118.3938671">
  <ele>-15.13</ele>
  <time>2026-09-02T22:13:14Z</time>
  <course>184.78</course>
  <speed>0.5200961449578337</speed>
  <fix>3d</fix>
</trkpt>
<trkpt lat="33.8101207" lon="-118.3938669">
  <ele>-14.76</ele>
  <time>2026-09-02T22:13:14Z</time>
  <course>0.35</course>
  <speed>0.5</speed>
  <fix>3d</fix>
</trkpt>
<trkpt lat="33.810122" lon="-118.3938671">
  <ele>-15.133</ele>
  <time>2026-09-02T22:13:14Z</time>
  <course>184.78</course>
  <speed>0.5200961449578337</speed>
  <fix>3d</fix>
</trkpt>
<trkpt lat="33.8101207" lon="-118.3938669">
  <ele>-14.76</ele>
  <time>2026-09-02T22:13:14Z</time>
  <course>0.35</course>
  <speed>0.5</speed>
  <fix>3d</fix>
</trkpt>
<trkpt lat="33.8101224" lon="-118.3938671">
  <ele>-15.135</ele>
  <time>2026-09-02T22:13:14Z</time>
  <course>184.78</course>
  <speed>0.5200961449578337</speed>
  <fix>3d</fix>
</trkpt>
<trkpt lat="33.8101216" lon="-118.3938668">
  <ele>-14.77</ele>
  <time>2026-09-02T22:13:14Z</time>
  <course>0.33</course>
  <speed>0.5</speed>
  <fix>3d</fix>
</trkpt>
<trkpt lat="33.8101229" lon="-118.3938671">
  <ele>-15.137</ele>
  <time>2026-09-02T22:13:14Z</time>
  <course>184.78</course>
  <speed>0.5300943312279428</speed>
  <fix>3d</fix>
</trkpt>
<trkpt lat="33.8101216" lon="-118.3938668">
  <ele>-14.77</ele>
  <time>2026-09-02T22:13:14Z</time>
  <course>0.33</course>
  <speed>0.5</speed>
  <fix>3d</fix>
</trkpt>
<trkpt lat="33.8101233" lon="-118.3938671">
  <ele>-15.138</ele>
  <time>2026-09-02T22:13:14Z</time>
  <course>184.78</course>
  <speed>0.5300943312279428</speed>
  <fix>3d</fix>
</trkpt>
<trkpt lat="33.8101225" lon="-118.3938668">
  <ele>-14.77</ele>
  <time>2026-09-02T22:13:14Z</time>
  <course>0.26</course>
  <speed>0.5</speed>
  <fix>3d</fix>
</trkpt>
<trkpt lat="33.8101238" lon="-118.3938671">
  <ele>-15.138</ele>
  <time>2026-09-02T22:13:14Z</time>
  <course>184.78</course>
  <speed>0.5300943312279428</speed>
  <fix>3d</fix>
</trkpt>
<trkpt lat="33.8101225" lon="-118.3938668">
  <ele>-14.77</ele>
  <time>2026-09-02T22:13:14Z</time>
  <course>0.26</course>
  <speed>0.5</speed>
  <fix>3d</fix>
</trkpt>
<trkpt lat="33.8101242" lon="-118.3938671">
  <ele>-15.136</ele>
  <time>2026-09-02T22:13:14Z</time>
  <course>184.78</course>
  <speed>0.5300943312279428</speed>
  <fix>3d</fix>
</trkpt>
<trkpt lat="33.8101235" lon="-118.3938668">
  <ele>-14.76</ele>
  <time>2026-09-02T22:13:14Z</time>
  <course>0.09</course>
  <speed>0.5</speed>
  <fix>3d</fix>
</trkpt>
<trkpt lat="33.8101247" lon="-118.3938671">
  <ele>-15.133</ele>
  <time>2026-09-02T22:13:14Z</time>
  <course>184.78</course>
  <speed>0.5303772242470448</speed>
  <fix>3d</fix>
</trkpt>
<trkpt lat="33.8101235" lon="-118.3938668">
  <ele>-14.76</ele>
  <time>2026-09-02T22:13:14Z</time>
  <course>0.09</course>
  <speed>0.5</speed>
  <fix>3d</fix>
</trkpt>
<trkpt lat="33.8101251" lon="-118.3938671">
  <ele>-15.129</ele>
  <time>2026-09-02T22:13:14Z</time>
  <course>184.78</course>
  <speed>0.5200961449578337</speed>
  <fix>3d</fix>
</trkpt>
<trkpt lat="33.8101244" lon="-118.3938668">
  <ele>-14.76</ele>
  <time>2026-09-02T22:13:14Z</time>
  <course>359.91</course>
  <speed>0.5</speed>
  <fix>3d</fix>
</trkpt>
<trkpt lat="33.8101256" lon="-118.3938671">
  <ele>-15.126</ele>
  <time>2026-09-02T22:13:14Z</time>
  <course>184.78</course>
  <speed>0.5203844732503076</speed>
  <fix>3d</fix>
</trkpt>
<trkpt lat="33.8101244" lon="-118.3938668">
  <ele>-14.76</ele>
  <time>2026-09-02T22:13:14Z</time>
  <course>359.91</course>
  <speed>0.5</speed>
  <fix>3d</fix>
</trkpt>
<trkpt lat="33.8101261" lon="-118.3938671">
  <ele>-15.122</ele>
  <time>2026-09-02T22:13:14Z</time>
  <course>184.78</course>
  <speed>0.5203844732503076</speed>
  <fix>3d</fix>
</trkpt>
<trkpt lat="33.8101253" lon="-118.3938668">
  <ele>-14.75</ele>
  <time>2026-09-02T22:13:14Z</time>
  <course>359.75</course>
  <speed>0.5</speed>
  <fix>3d</fix>
</trkpt>
<trkpt lat="33.8101265" lon="-118.3938671">
  <ele>-15.12</ele>
  <time>2026-09-02T22:13:14Z</time>
  <course>184.78</course>
  <speed>0.5203844732503076</speed>
  <fix>3d</fix>
</trkpt>
<trkpt lat="33.8101253" lon="-118.3938668">
  <ele>-14.75</ele>
  <time>2026-09-02T22:13:14Z</time>
  <course>359.75</course>
  <speed>0.5</speed>
  <fix>3d</fix>
</trkpt>
<trkpt lat="33.810127" lon="-118.3938671">
  <ele>-15.119</ele>
  <time>2026-09-02T22:13:14Z</time>
  <course>184.78</course>
  <speed>0.5203844732503076</speed>
  <fix>3d</fix>
</trkpt>
<trkpt lat="33.8101262" lon="-118.3938668">
  <ele>-14.75</ele>
  <time>2026-09-02T22:13:14Z</time>
  <course>359.63</course>
  <speed>0.5</speed>
  <fix>3d</fix>
</trkpt>
<trkpt lat="33.8101274" lon="-118.3938671">
  <ele>-15.12</ele>
  <time>2026-09-02T22:13:14Z</time>
  <course>184.78</course>
  <speed>0.5203844732503076</speed>
  <fix>3d</fix>
</trkpt>
<trkpt lat="33.8101262" lon="-118.3938668">
  <ele>-14.75</ele>
  <time>2026-09-02T22:13:14Z</time>
  <course>359.63</course>
  <speed>0.5</speed>
  <fix>3d</fix>
</trkpt>
<trkpt lat="33.8101279" lon="-118.3938671">
  <ele>-15.122</ele>
  <time>2026-09-02T22:13:14Z</time>
  <course>184.78</course>
  <speed>0.5203844732503076</speed>
  <fix>3d</fix>
</trkpt>
<trkpt lat="33.8101271" lon="-118.3938668">
  <ele>-14.76</ele>
  <time>2026-09-02T22:13:14Z</time>
  <course>359.54</course>
  <speed>0.5</speed>
  <fix>3d</fix>
</trkpt>
<trkpt lat="33.8101283" lon="-118.393867">
  <ele>-15.125</ele>
  <time>2026-09-02T22:13:14Z</time>
  <course>184.78</course>
  <speed>0.5203844732503076</speed>
  <fix>3d</fix>
</trkpt>
<trkpt lat="33.8101271" lon="-118.3938668">
  <ele>-14.76</ele>
  <time>2026-09-02T22:13:14Z</time>
  <course>359.54</course>
  <speed>0.5</speed>
  <fix>3d</fix>
</trkpt>
<trkpt lat="33.8101288" lon="-118.393867">
  <ele>-15.128</ele>
  <time>2026-09-02T22:13:15Z</time>
  <course>184.78</course>
  <speed>0.5203844732503076</speed>
  <fix>3d</fix>
</trkpt>
<trkpt lat="33.810128" lon="-118.3938668">
  <ele>-14.76</ele>
  <time>2026-09-02T22:13:15Z</time>
  <course>359.48</course>
  <speed>0.5</speed>
  <fix>3d</fix>
</trkpt>
<trkpt lat="33.8101292" lon="-118.393867">
  <ele>-15.13</ele>
  <time>2026-09-02T22:13:15Z</time>
  <course>184.78</course>
  <speed>0.5203844732503076</speed>
  <fix>3d</fix>
</trkpt>
<trkpt lat="33.810128" lon="-118.3938668">
  <ele>-14.76</ele>
  <time>2026-09-02T22:13:15Z</time>
  <course>359.48</course>
  <speed>0.5</speed>
  <fix>3d</fix>
</trkpt>
<trkpt lat="33.8101297" lon="-118.393867">
  <ele>-15.132</ele>
  <time>2026-09-02T22:13:15Z</time>
  <course>184.78</course>
  <speed>0.5203844732503076</speed>
  <fix>3d</fix>
</trkpt>
<trkpt lat="33.8101289" lon="-118.3938668">
  <ele>-14.77</ele>
  <time>2026-09-02T22:13:15Z</time>
  <course>359.45</course>
  <speed>0.5</speed>
  <fix>3d</fix>
</trkpt>
<trkpt lat="33.8101301" lon="-118.393867">
  <ele>-15.133</ele>
  <time>2026-09-02T22:13:15Z</time>
  <course>184.78</course>
  <speed>0.5203844732503076</speed>
  <fix>3d</fix>
</trkpt>
<trkpt lat="33.8101289" lon="-118.3938668">
  <ele>-14.77</ele>
  <time>2026-09-02T22:13:15Z</time>
  <course>359.45</course>
  <speed>0.5</speed>
  <fix>3d</fix>
</trkpt>
<trkpt lat="33.8101306" lon="-118.393867">
  <ele>-15.133</ele>
  <time>2026-09-02T22:13:15Z</time>
  <course>184.78</course>
  <speed>0.5203844732503076</speed>
  <fix>3d</fix>
</trkpt>
<trkpt lat="33.8101298" lon="-118.3938668">
  <ele>-14.77</ele>
  <time>2026-09-02T22:13:15Z</time>
  <course>359.43</course>
  <speed>0.5</speed>
  <fix>3d</fix>
</trkpt>
<trkpt lat="33.810131" lon="-118.393867">
  <ele>-15.135</ele>
  <time>2026-09-02T22:13:15Z</time>
  <course>184.78</course>
  <speed>0.5203844732503076</speed>
  <fix>3d</fix>
</trkpt>
<trkpt lat="33.8101298" lon="-118.3938668">
  <ele>-14.77</ele>
  <time>2026-09-02T22:13:15Z</time>
  <course>359.43</course>
  <speed>0.5</speed>
  <fix>3d</fix>
</trkpt>
<trkpt lat="33.8101315" lon="-118.393867">
  <ele>-15.136</ele>
  <time>2026-09-02T22:13:15Z</time>
  <course>184.78</course>
  <speed>0.5203844732503076</speed>
  <fix>3d</fix>
</trkpt>
<trkpt lat="33.8101307" lon="-118.3938668">
  <ele>-14.78</ele>
  <time>2026-09-02T22:13:15Z</time>
  <course>359.4</course>
  <speed>0.5</speed>
  <fix>3d</fix>
</trkpt>
<trkpt lat="33.8101319" lon="-118.393867">
  <ele>-15.137</ele>
  <time>2026-09-02T22:13:15Z</time>
  <course>184.78</course>
  <speed>0.5203844732503076</speed>
  <fix>3d</fix>
</trkpt>
<trkpt lat="33.8101307" lon="-118.3938668">
  <ele>-14.78</ele>
  <time>2026-09-02T22:13:15Z</time>
  <course>359.4</course>
  <speed>0.5</speed>
  <fix>3d</fix>
</trkpt>
<trkpt lat="33.8101324" lon="-118.393867">
  <ele>-15.136</ele>
  <time>2026-09-02T22:13:15Z</time>
  <course>184.78</course>
  <speed>0.5203844732503076</speed>
  <fix>3d</fix>
</trkpt>
<trkpt lat="33.8101317" lon="-118.3938668">
  <ele>-14.77</ele>
  <time>2026-09-02T22:13:15Z</time>
  <course>359.37</course>
  <speed>0.5</speed>
  <fix>3d</fix>
</trkpt>
<trkpt lat="33.8101329" lon="-118.393867">
  <ele>-15.134</ele>
  <time>2026-09-02T22:13:15Z</time>
  <course>184.78</course>
  <speed>0.5203844732503076</speed>
  <fix>3d</fix>
</trkpt>
<trkpt lat="33.8101317" lon="-118.3938668">
  <ele>-14.77</ele>
  <time>2026-09-02T22:13:15Z</time>
  <course>359.37</course>
  <speed>0.5</speed>
  <fix>3d</fix>
</trkpt>
<trkpt lat="33.8101333" lon="-118.393867">
  <ele>-15.133</ele>
  <time>2026-09-02T22:13:15Z</time>
  <course>184.78</course>
  <speed>0.5203844732503076</speed>
  <fix>3d</fix>
</trkpt>
<trkpt lat="33.8101326" lon="-118.3938668">
  <ele>-14.77</ele>
  <time>2026-09-02T22:13:15Z</time>
  <course>359.32</course>
  <speed>0.5</speed>
  <fix>3d</fix>
</trkpt>
<trkpt lat="33.8101338" lon="-118.393867">
  <ele>-15.132</ele>
  <time>2026-09-02T22:13:15Z</time>
  <course>184.78</course>
  <speed>0.5203844732503076</speed>
  <fix>3d</fix>
</trkpt>
<trkpt lat="33.8101326" lon="-118.3938668">
  <ele>-14.77</ele>
  <time>2026-09-02T22:13:15Z</time>
  <course>359.32</course>
  <speed>0.5</speed>
  <fix>3d</fix>
</trkpt>
<trkpt lat="33.8101342" lon="-118.393867">
  <ele>-15.133</ele>
  <time>2026-09-02T22:13:15Z</time>
  <course>184.78</course>
  <speed>0.5200961449578337</speed>
  <fix>3d</fix>
</trkpt>
<trkpt lat="33.8101335" lon="-118.3938668">
  <ele>-14.77</ele>
  <time>2026-09-02T22:13:15Z</time>
  <course>359.29</course>
  <speed>0.5</speed>
  <fix>3d</fix>
</trkpt>
<trkpt lat="33.8101347" lon="-118.393867">
  <ele>-15.134</ele>
  <time>2026-09-02T22:13:15Z</time>
  <course>184.78</course>
  <speed>0.5203844732503076</speed>
  <fix>3d</fix>
</trkpt>
<trkpt lat="33.8101335" lon="-118.3938668">
  <ele>-14.77</ele>
  <time>2026-09-02T22:13:15Z</time>
  <course>359.29</course>
  <speed>0.5</speed>
  <fix>3d</fix>
</trkpt>
<trkpt lat="33.8101351" lon="-118.393867">
  <ele>-15.134</ele>
  <time>2026-09-02T22:13:15Z</time>
  <course>184.78</course>
  <speed>0.5200961449578337</speed>
  <fix>3d</fix>
</trkpt>
<trkpt lat="33.8101344" lon="-118.3938668">
  <ele>-14.76</ele>
  <time>2026-09-02T22:13:15Z</time>
  <course>359.28</course>
  <speed>0.5</speed>
  <fix>3d</fix>
</trkpt>
<trkpt lat="33.8101356" lon="-118.393867">
  <ele>-15.135</ele>
  <time>2026-09-02T22:13:15Z</time>
  <course>184.78</course>
  <speed>0.5203844732503076</speed>
  <fix>3d</fix>
</trkpt>
<trkpt lat="33.8101344" lon="-118.3938668">
  <ele>-14.76</ele>
  <time>2026-09-02T22:13:15Z</time>
  <course>359.28</course>
  <speed>0.5</speed>
  <fix>3d</fix>
</trkpt>
<trkpt lat="33.810136" lon="-118.393867">
  <ele>-15.134</ele>
  <time>2026-09-02T22:13:15Z</time>
  <course>184.78</course>
  <speed>0.5200961449578337</speed>
  <fix>3d</fix>
</trkpt>
<trkpt lat="33.8101353" lon="-118.3938669">
  <ele>-14.76</ele>
  <time>2026-09-02T22:13:15Z</time>
  <course>359.24</course>
  <speed>0.5</speed>
  <fix>3d</fix>
</trkpt>
<trkpt lat="33.8101365" lon="-118.393867">
  <ele>-15.134</ele>
  <time>2026-09-02T22:13:15Z</time>
  <course>184.78</course>
  <speed>0.5200961449578337</speed>
  <fix>3d</fix>
</trkpt>
<trkpt lat="33.8101353" lon="-118.3938669">
  <ele>-14.76</ele>
  <time>2026-09-02T22:13:15Z</time>
  <course>359.24</course>
  <speed>0.5</speed>
  <fix>3d</fix>
</trkpt>
<trkpt lat="33.8101369" lon="-118.393867">
  <ele>-15.132</ele>
  <time>2026-09-02T22:13:15Z</time>
  <course>184.78</course>
  <speed>0.5200961449578337</speed>
  <fix>3d</fix>
</trkpt>
<trkpt lat="33.8101362" lon="-118.3938669">
  <ele>-14.76</ele>
  <time>2026-09-02T22:13:15Z</time>
  <course>359.28</course>
  <speed>0.5</speed>
  <fix>3d</fix>
</trkpt>
<trkpt lat="33.8101374" lon="-118.393867">
  <ele>-15.13</ele>
  <time>2026-09-02T22:13:15Z</time>
  <course>184.78</course>
  <speed>0.5200961449578337</speed>
  <fix>3d</fix>
</trkpt>
<trkpt lat="33.8101362" lon="-118.3938669">
  <ele>-14.76</ele>
  <time>2026-09-02T22:13:15Z</time>
  <course>359.28</course>
  <speed>0.5</speed>
  <fix>3d</fix>
</trkpt>
<trkpt lat="33.8101378" lon="-118.393867">
  <ele>-15.128</ele>
  <time>2026-09-02T22:13:15Z</time>
  <course>184.78</course>
  <speed>0.5200961449578337</speed>
  <fix>3d</fix>
</trkpt>
<trkpt lat="33.8101371" lon="-118.3938669">
  <ele>-14.75</ele>
  <time>2026-09-02T22:13:15Z</time>
  <course>359.43</course>
  <speed>0.49</speed>
  <fix>3d</fix>
</trkpt>
<trkpt lat="33.8101383" lon="-118.393867">
  <ele>-15.125</ele>
  <time>2026-09-02T22:13:15Z</time>
  <course>184.78</course>
  <speed>0.5200961449578337</speed>
  <fix>3d</fix>
</trkpt>
<trkpt lat="33.8101371" lon="-118.3938669">
  <ele>-14.75</ele>
  <time>2026-09-02T22:13:15Z</time>
  <course>359.43</course>
  <speed>0.49</speed>
  <fix>3d</fix>
</trkpt>
<trkpt lat="33.8101387" lon="-118.393867">
  <ele>-15.123</ele>
  <time>2026-09-02T22:13:15Z</time>
  <course>184.78</course>
  <speed>0.5200961449578337</speed>
  <fix>3d</fix>
</trkpt>
<trkpt lat="33.810138" lon="-118.3938669">
  <ele>-14.75</ele>
  <time>2026-09-02T22:13:15Z</time>
  <course>359.59</course>
  <speed>0.49</speed>
  <fix>3d</fix>
</trkpt>
<trkpt lat="33.8101392" lon="-118.393867">
  <ele>-15.123</ele>
  <time>2026-09-02T22:13:15Z</time>
  <course>184.78</course>
  <speed>0.5200961449578337</speed>
  <fix>3d</fix>
</trkpt>
<trkpt lat="33.810138" lon="-118.3938669">
  <ele>-14.75</ele>
  <time>2026-09-02T22:13:15Z</time>
  <course>359.59</course>
  <speed>0.49</speed>
  <fix>3d</fix>
</trkpt>
<trkpt lat="33.8101396" lon="-118.393867">
  <ele>-15.123</ele>
  <time>2026-09-02T22:13:15Z</time>
  <course>184.78</course>
  <speed>0.5200961449578337</speed>
  <fix>3d</fix>
</trkpt>
<trkpt lat="33.8101389" lon="-118.3938669">
  <ele>-14.75</ele>
  <time>2026-09-02T22:13:15Z</time>
  <course>359.72</course>
  <speed>0.49</speed>
  <fix>3d</fix>
</trkpt>
<trkpt lat="33.8101401" lon="-118.393867">
  <ele>-15.123</ele>
  <time>2026-09-02T22:13:15Z</time>
  <course>184.78</course>
  <speed>0.5200961449578337</speed>
  <fix>3d</fix>
</trkpt>
<trkpt lat="33.8101389" lon="-118.3938669">
  <ele>-14.75</ele>
  <time>2026-09-02T22:13:15Z</time>
  <course>359.72</course>
  <speed>0.49</speed>
  <fix>3d</fix>
</trkpt>
<trkpt lat="33.8101406" lon="-118.393867">
  <ele>-15.123</ele>
  <time>2026-09-02T22:13:15Z</time>
  <course>184.78</course>
  <speed>0.5200961449578337</speed>
  <fix>3d</fix>
</trkpt>
<trkpt lat="33.8101398" lon="-118.3938669">
  <ele>-14.75</ele>
  <time>2026-09-02T22:13:15Z</time>
  <course>359.79</course>
  <speed>0.49</speed>
  <fix>3d</fix>
</trkpt>
<trkpt lat="33.810141" lon="-118.393867">
  <ele>-15.125</ele>
  <time>2026-09-02T22:13:15Z</time>
  <course>184.78</course>
  <speed>0.5200961449578337</speed>
  <fix>3d</fix>
</trkpt>
<trkpt lat="33.8101398" lon="-118.3938669">
  <ele>-14.75</ele>
  <time>2026-09-02T22:13:15Z</time>
  <course>359.79</course>
  <speed>0.49</speed>
  <fix>3d</fix>
</trkpt>
<trkpt lat="33.8101415" lon="-118.393867">
  <ele>-15.127</ele>
  <time>2026-09-02T22:13:15Z</time>
  <course>184.78</course>
  <speed>0.5200961449578337</speed>
  <fix>3d</fix>
</trkpt>
<trkpt lat="33.8101407" lon="-118.3938669">
  <ele>-14.75</ele>
  <time>2026-09-02T22:13:15Z</time>
  <course>359.83</course>
  <speed>0.49</speed>
  <fix>3d</fix>
</trkpt>
<trkpt lat="33.8101419" lon="-118.393867">
  <ele>-15.128</ele>
  <time>2026-09-02T22:13:15Z</time>
  <course>184.78</course>
  <speed>0.5200961449578337</speed>
  <fix>3d</fix>
</trkpt>
<trkpt lat="33.8101407" lon="-118.3938669">
  <ele>-14.75</ele>
  <time>2026-09-02T22:13:15Z</time>
  <course>359.83</course>
  <speed>0.49</speed>
  <fix>3d</fix>
</trkpt>
<trkpt lat="33.8101424" lon="-118.393867">
  <ele>-15.129</ele>
  <time>2026-09-02T22:13:15Z</time>
  <course>184.78</course>
  <speed>0.5200961449578337</speed>
  <fix>3d</fix>
</trkpt>
<trkpt lat="33.8101416" lon="-118.3938669">
  <ele>-14.76</ele>
  <time>2026-09-02T22:13:15Z</time>
  <course>359.86</course>
  <speed>0.49</speed>
  <fix>3d</fix>
</trkpt>
<trkpt lat="33.8101428" lon="-118.393867">
  <ele>-15.13</ele>
  <time>2026-09-02T22:13:15Z</time>
  <course>184.78</course>
  <speed>0.5200961449578337</speed>
  <fix>3d</fix>
</trkpt>
<trkpt lat="33.8101416" lon="-118.3938669">
  <ele>-14.76</ele>
  <time>2026-09-02T22:13:15Z</time>
  <course>359.86</course>
  <speed>0.49</speed>
  <fix>3d</fix>
</trkpt>
<trkpt lat="33.8101433" lon="-118.393867">
  <ele>-15.13</ele>
  <time>2026-09-02T22:13:15Z</time>
  <course>184.78</course>
  <speed>0.5200961449578337</speed>
  <fix>3d</fix>
</trkpt>
<trkpt lat="33.8101425" lon="-118.3938669">
  <ele>-14.76</ele>
  <time>2026-09-02T22:13:15Z</time>
  <course>359.88</course>
  <speed>0.49</speed>
  <fix>3d</fix>
</trkpt>
<trkpt lat="33.8101437" lon="-118.393867">
  <ele>-15.131</ele>
  <time>2026-09-02T22:13:15Z</time>
  <course>184.78</course>
  <speed>0.5200961449578337</speed>
  <fix>3d</fix>
</trkpt>
<trkpt lat="33.8101425" lon="-118.3938669">
  <ele>-14.76</ele>
  <time>2026-09-02T22:13:15Z</time>
  <course>359.88</course>
  <speed>0.49</speed>
  <fix>3d</fix>
</trkpt>
<trkpt lat="33.8101442" lon="-118.393867">
  <ele>-15.132</ele>
  <time>2026-09-02T22:13:15Z</time>
  <course>184.78</course>
  <speed>0.5200961449578337</speed>
  <fix>3d</fix>
</trkpt>
<trkpt lat="33.8101434" lon="-118.3938669">
  <ele>-14.76</ele>
  <time>2026-09-02T22:13:15Z</time>
  <course>359.9</course>
  <speed>0.49</speed>
  <fix>3d</fix>
</trkpt>
<trkpt lat="33.8101446" lon="-118.393867">
  <ele>-15.131</ele>
  <time>2026-09-02T22:13:15Z</time>
  <course>184.78</course>
  <speed>0.5200961449578337</speed>
  <fix>3d</fix>
</trkpt>
<trkpt lat="33.8101434" lon="-118.3938669">
  <ele>-14.76</ele>
  <time>2026-09-02T22:13:15Z</time>
  <course>359.9</course>
  <speed>0.49</speed>
  <fix>3d</fix>
</trkpt>
<trkpt lat="33.8101451" lon="-118.393867">
  <ele>-15.13</ele>
  <time>2026-09-02T22:13:15Z</time>
  <course>184.78</course>
  <speed>0.5200961449578337</speed>
  <fix>3d</fix>
</trkpt>
<trkpt lat="33.8101442" lon="-118.3938669">
  <ele>-14.76</ele>
  <time>2026-09-02T22:13:15Z</time>
  <course>359.92</course>
  <speed>0.49</speed>
  <fix>3d</fix>
</trkpt>
<trkpt lat="33.8101455" lon="-118.393867">
  <ele>-15.129</ele>
  <time>2026-09-02T22:13:15Z</time>
  <course>184.78</course>
  <speed>0.5200961449578337</speed>
  <fix>3d</fix>
</trkpt>
<trkpt lat="33.8101442" lon="-118.3938669">
  <ele>-14.76</ele>
  <time>2026-09-02T22:13:15Z</time>
  <course>359.92</course>
  <speed>0.49</speed>
  <fix>3d</fix>
</trkpt>
<trkpt lat="33.8101459" lon="-118.393867">
  <ele>-15.128</ele>
  <time>2026-09-02T22:13:15Z</time>
  <course>184.78</course>
  <speed>0.5200961449578337</speed>
  <fix>3d</fix>
</trkpt>
<trkpt lat="33.8101451" lon="-118.3938669">
  <ele>-14.76</ele>
  <time>2026-09-02T22:13:15Z</time>
  <course>359.95</course>
  <speed>0.49</speed>
  <fix>3d</fix>
</trkpt>
<trkpt lat="33.8101464" lon="-118.393867">
  <ele>-15.128</ele>
  <time>2026-09-02T22:13:15Z</time>
  <course>184.78</course>
  <speed>0.5200961449578337</speed>
  <fix>3d</fix>
</trkpt>
<trkpt lat="33.8101451" lon="-118.3938669">
  <ele>-14.76</ele>
  <time>2026-09-02T22:13:15Z</time>
  <course>359.95</course>
  <speed>0.49</speed>
  <fix>3d</fix>
</trkpt>
<trkpt lat="33.8101468" lon="-118.393867">
  <ele>-15.129</ele>
  <time>2026-09-02T22:13:15Z</time>
  <course>184.78</course>
  <speed>0.5200961449578337</speed>
  <fix>3d</fix>
</trkpt>
<trkpt lat="33.810146" lon="-118.3938669">
  <ele>-14.76</ele>
  <time>2026-09-02T22:13:15Z</time>
  <course>359.95</course>
  <speed>0.5</speed>
  <fix>3d</fix>
</trkpt>
<trkpt lat="33.8101473" lon="-118.393867">
  <ele>-15.13</ele>
  <time>2026-09-02T22:13:15Z</time>
  <course>184.78</course>
  <speed>0.5200961449578337</speed>
  <fix>3d</fix>
</trkpt>
<trkpt lat="33.810146" lon="-118.3938669">
  <ele>-14.76</ele>
  <time>2026-09-02T22:13:15Z</time>
  <course>359.95</course>
  <speed>0.5</speed>
  <fix>3d</fix>
</trkpt>
<trkpt lat="33.8101477" lon="-118.393867">
  <ele>-15.13</ele>
  <time>2026-09-02T22:13:15Z</time>
  <course>184.78</course>
  <speed>0.5200961449578337</speed>
  <fix>3d</fix>
</trkpt>
<trkpt lat="33.8101469" lon="-118.3938669">
  <ele>-14.76</ele>
  <time>2026-09-02T22:13:15Z</time>
  <course>359.94</course>
  <speed>0.5</speed>
  <fix>3d</fix>
</trkpt>
<trkpt lat="33.8101482" lon="-118.393867">
  <ele>-15.129</ele>
  <time>2026-09-02T22:13:15Z</time>
  <course>184.77</course>
  <speed>0.5200961449578337</speed>
  <fix>3d</fix>
</trkpt>
<trkpt lat="33.8101469" lon="-118.3938669">
  <ele>-14.76</ele>
  <time>2026-09-02T22:13:15Z</time>
  <course>359.94</course>
  <speed>0.5</speed>
  <fix>3d</fix>
</trkpt>
<trkpt lat="33.8101486" lon="-118.393867">
  <ele>-15.128</ele>
  <time>2026-09-02T22:13:15Z</time>
  <course>184.77</course>
  <speed>0.5200961449578337</speed>
  <fix>3d</fix>
</trkpt>
<trkpt lat="33.8101478" lon="-118.3938669">
  <ele>-14.76</ele>
  <time>2026-09-02T22:13:15Z</time>
  <course>359.96</course>
  <speed>0.5</speed>
  <fix>3d</fix>
</trkpt>
<trkpt lat="33.8101491" lon="-118.393867">
  <ele>-15.127</ele>
  <time>2026-09-02T22:13:15Z</time>
  <course>184.78</course>
  <speed>0.5200961449578337</speed>
  <fix>3d</fix>
</trkpt>
<trkpt lat="33.8101478" lon="-118.3938669">
  <ele>-14.76</ele>
  <time>2026-09-02T22:13:15Z</time>
  <course>359.96</course>
  <speed>0.5</speed>
  <fix>3d</fix>
</trkpt>
<trkpt lat="33.8101495" lon="-118.393867">
  <ele>-15.127</ele>
  <time>2026-09-02T22:13:15Z</time>
  <course>184.78</course>
  <speed>0.5200961449578337</speed>
  <fix>3d</fix>
</trkpt>
<trkpt lat="33.8101488" lon="-118.3938669">
  <ele>-14.76</ele>
  <time>2026-09-02T22:13:15Z</time>
  <course>359.98</course>
  <speed>0.5</speed>
  <fix>3d</fix>
</trkpt>
<trkpt lat="33.81015" lon="-118.393867">
  <ele>-15.127</ele>
  <time>2026-09-02T22:13:15Z</time>
  <course>184.78</course>
  <speed>0.5200961449578337</speed>
  <fix>3d</fix>
</trkpt>
<trkpt lat="33.8101488" lon="-118.3938669">
  <ele>-14.76</ele>
  <time>2026-09-02T22:13:15Z</time>
  <course>359.98</course>
  <speed>0.5</speed>
  <fix>3d</fix>
</trkpt>
<trkpt lat="33.8101504" lon="-118.393867">
  <ele>-15.129</ele>
  <time>2026-09-02T22:13:15Z</time>
  <course>184.78</course>
  <speed>0.5200961449578337</speed>
  <fix>3d</fix>
</trkpt>
<trkpt lat="33.8101497" lon="-118.3938669">
  <ele>-14.76</ele>
  <time>2026-09-02T22:13:15Z</time>
  <course>359.98</course>
  <speed>0.5</speed>
  <fix>3d</fix>
</trkpt>
<trkpt lat="33.8101509" lon="-118.393867">
  <ele>-15.132</ele>
  <time>2026-09-02T22:13:15Z</time>
  <course>184.78</course>
  <speed>0.5200961449578337</speed>
  <fix>3d</fix>
</trkpt>
<trkpt lat="33.8101497" lon="-118.3938669">
  <ele>-14.76</ele>
  <time>2026-09-02T22:13:15Z</time>
  <course>359.98</course>
  <speed>0.5</speed>
  <fix>3d</fix>
</trkpt>
<trkpt lat="33.8101514" lon="-118.393867">
  <ele>-15.134</ele>
  <time>2026-09-02T22:13:15Z</time>
  <course>184.78</course>
  <speed>0.5200961449578337</speed>
  <fix>3d</fix>
</trkpt>
<trkpt lat="33.8101506" lon="-118.3938669">
  <ele>-14.77</ele>
  <time>2026-09-02T22:13:15Z</time>
  <course>359.98</course>
  <speed>0.5</speed>
  <fix>3d</fix>
</trkpt>
<trkpt lat="33.8101518" lon="-118.393867">
  <ele>-15.136</ele>
  <time>2026-09-02T22:13:15Z</time>
  <course>184.78</course>
  <speed>0.5200961449578337</speed>
  <fix>3d</fix>
</trkpt>
<trkpt lat="33.8101506" lon="-118.3938669">
  <ele>-14.77</ele>
  <time>2026-09-02T22:13:15Z</time>
  <course>359.98</course>
  <speed>0.5</speed>
  <fix>3d</fix>
</trkpt>
<trkpt lat="33.8101523" lon="-118.393867">
  <ele>-15.137</ele>
  <time>2026-09-02T22:13:15Z</time>
  <course>184.78</course>
  <speed>0.5200961449578337</speed>
  <fix>3d</fix>
</trkpt>
<trkpt lat="33.8101515" lon="-118.3938669">
  <ele>-14.77</ele>
  <time>2026-09-02T22:13:15Z</time>
  <course>0.0</course>
  <speed>0.5</speed>
  <fix>3d</fix>
</trkpt>
<trkpt lat="33.8101527" lon="-118.393867">
  <ele>-15.137</ele>
  <time>2026-09-02T22:13:15Z</time>
  <course>184.78</course>
  <speed>0.5200961449578337</speed>
  <fix>3d</fix>
</trkpt>
<trkpt lat="33.8101515" lon="-118.3938669">
  <ele>-14.77</ele>
  <time>2026-09-02T22:13:15Z</time>
  <course>0.0</course>
  <speed>0.5</speed>
  <fix>3d</fix>
</trkpt>
<trkpt lat="33.8101532" lon="-118.393867">
  <ele>-15.137</ele>
  <time>2026-09-02T22:13:15Z</time>
  <course>184.78</course>
  <speed>0.5200961449578337</speed>
  <fix>3d</fix>
</trkpt>
<trkpt lat="33.8101524" lon="-118.3938669">
  <ele>-14.76</ele>
  <time>2026-09-02T22:13:15Z</time>
  <course>0.06</course>
  <speed>0.5</speed>
  <fix>3d</fix>
</trkpt>
<trkpt lat="33.8101536" lon="-118.393867">
  <ele>-15.136</ele>
  <time>2026-09-02T22:13:15Z</time>
  <course>184.78</course>
  <speed>0.5200961449578337</speed>
  <fix>3d</fix>
</trkpt>
<trkpt lat="33.8101524" lon="-118.3938669">
  <ele>-14.76</ele>
  <time>2026-09-02T22:13:15Z</time>
  <course>0.06</course>
  <speed>0.5</speed>
  <fix>3d</fix>
</trkpt>
<trkpt lat="33.8101541" lon="-118.393867">
  <ele>-15.135</ele>
  <time>2026-09-02T22:13:15Z</time>
  <course>184.78</course>
  <speed>0.5200961449578337</speed>
  <fix>3d</fix>
</trkpt>
<trkpt lat="33.8101533" lon="-118.3938669">
  <ele>-14.76</ele>
  <time>2026-09-02T22:13:15Z</time>
  <course>0.11</course>
  <speed>0.5</speed>
  <fix>3d</fix>
</trkpt>
<trkpt lat="33.8101545" lon="-118.393867">
  <ele>-15.133</ele>
  <time>2026-09-02T22:13:15Z</time>
  <course>184.78</course>
  <speed>0.5200961449578337</speed>
  <fix>3d</fix>
</trkpt>
<trkpt lat="33.8101533" lon="-118.3938669">
  <ele>-14.76</ele>
  <time>2026-09-02T22:13:15Z</time>
  <course>0.11</course>
  <speed>0.5</speed>
  <fix>3d</fix>
</trkpt>
<trkpt lat="33.810155" lon="-118.393867">
  <ele>-15.13</ele>
  <time>2026-09-02T22:13:15Z</time>
  <course>184.78</course>
  <speed>0.5200961449578337</speed>
  <fix>3d</fix>
</trkpt>
<trkpt lat="33.8101542" lon="-118.3938669">
  <ele>-14.75</ele>
  <time>2026-09-02T22:13:15Z</time>
  <course>0.13</course>
  <speed>0.5</speed>
  <fix>3d</fix>
</trkpt>
<trkpt lat="33.8101554" lon="-118.393867">
  <ele>-15.127</ele>
  <time>2026-09-02T22:13:15Z</time>
  <course>184.78</course>
  <speed>0.5200961449578337</speed>
  <fix>3d</fix>
</trkpt>
<trkpt lat="33.8101542" lon="-118.3938669">
  <ele>-14.75</ele>
  <time>2026-09-02T22:13:15Z</time>
  <course>0.13</course>
  <speed>0.5</speed>
  <fix>3d</fix>
</trkpt>
<trkpt lat="33.8101559" lon="-118.393867">
  <ele>-15.127</ele>
  <time>2026-09-02T22:13:15Z</time>
  <course>184.78</course>
  <speed>0.5200961449578337</speed>
  <fix>3d</fix>
</trkpt>
<trkpt lat="33.8101551" lon="-118.3938669">
  <ele>-14.75</ele>
  <time>2026-09-02T22:13:15Z</time>
  <course>0.14</course>
  <speed>0.5</speed>
  <fix>3d</fix>
</trkpt>
<trkpt lat="33.8101563" lon="-118.393867">
  <ele>-15.127</ele>
  <time>2026-09-02T22:13:15Z</time>
  <course>184.78</course>
  <speed>0.5200961449578337</speed>
  <fix>3d</fix>
</trkpt>
<trkpt lat="33.8101551" lon="-118.3938669">
  <ele>-14.75</ele>
  <time>2026-09-02T22:13:15Z</time>
  <course>0.14</course>
  <speed>0.5</speed>
  <fix>3d</fix>
</trkpt>
<trkpt lat="33.8101568" lon="-118.393867">
  <ele>-15.127</ele>
  <time>2026-09-02T22:13:15Z</time>
  <course>184.78</course>
  <speed>0.5200961449578337</speed>
  <fix>3d</fix>
</trkpt>
<trkpt lat="33.810156" lon="-118.3938669">
  <ele>-14.75</ele>
  <time>2026-09-02T22:13:15Z</time>
  <course>0.16</course>
  <speed>0.5</speed>
  <fix>3d</fix>
</trkpt>
<trkpt lat="33.8101572" lon="-118.393867">
  <ele>-15.126</ele>
  <time>2026-09-02T22:13:15Z</time>
  <course>184.78</course>
  <speed>0.5200961449578337</speed>
  <fix>3d</fix>
</trkpt>
<trkpt lat="33.810156" lon="-118.3938669">
  <ele>-14.75</ele>
  <time>2026-09-02T22:13:15Z</time>
  <course>0.16</course>
  <speed>0.5</speed>
  <fix>3d</fix>
</trkpt>
<trkpt lat="33.8101577" lon="-118.393867">
  <ele>-15.127</ele>
  <time>2026-09-02T22:13:15Z</time>
  <course>184.78</course>
  <speed>0.5200961449578337</speed>
  <fix>3d</fix>
</trkpt>
<trkpt lat="33.8101569" lon="-118.3938669">
  <ele>-14.75</ele>
  <time>2026-09-02T22:13:15Z</time>
  <course>0.17</course>
  <speed>0.5</speed>
  <fix>3d</fix>
</trkpt>
<trkpt lat="33.8101581" lon="-118.393867">
  <ele>-15.127</ele>
  <time>2026-09-02T22:13:15Z</time>
  <course>184.78</course>
  <speed>0.5200961449578337</speed>
  <fix>3d</fix>
</trkpt>
<trkpt lat="33.8101569" lon="-118.3938669">
  <ele>-14.75</ele>
  <time>2026-09-02T22:13:15Z</time>
  <course>0.17</course>
  <speed>0.5</speed>
  <fix>3d</fix>
</trkpt>
<trkpt lat="33.8101586" lon="-118.393867">
  <ele>-15.127</ele>
  <time>2026-09-02T22:13:15Z</time>
  <course>184.78</course>
  <speed>0.5200961449578337</speed>
  <fix>3d</fix>
</trkpt>
<trkpt lat="33.8101578" lon="-118.3938669">
  <ele>-14.75</ele>
  <time>2026-09-02T22:13:15Z</time>
  <course>0.19</course>
  <speed>0.49</speed>
  <fix>3d</fix>
</trkpt>
<trkpt lat="33.810159" lon="-118.393867">
  <ele>-15.127</ele>
  <time>2026-09-02T22:13:15Z</time>
  <course>184.78</course>
  <speed>0.5200961449578337</speed>
  <fix>3d</fix>
</trkpt>
<trkpt lat="33.8101578" lon="-118.3938669">
  <ele>-14.75</ele>
  <time>2026-09-02T22:13:15Z</time>
  <course>0.19</course>
  <speed>0.49</speed>
  <fix>3d</fix>
</trkpt>
<trkpt lat="33.8101595" lon="-118.393867">
  <ele>-15.127</ele>
  <time>2026-09-02T22:13:15Z</time>
  <course>184.78</course>
  <speed>0.5200961449578337</speed>
  <fix>3d</fix>
</trkpt>
<trkpt lat="33.8101587" lon="-118.3938669">
  <ele>-14.75</ele>
  <time>2026-09-02T22:13:15Z</time>
  <course>0.22</course>
  <speed>0.49</speed>
  <fix>3d</fix>
</trkpt>
<trkpt lat="33.8101599" lon="-118.393867">
  <ele>-15.126</ele>
  <time>2026-09-02T22:13:15Z</time>
  <course>184.78</course>
  <speed>0.5200961449578337</speed>
  <fix>3d</fix>
</trkpt>
<trkpt lat="33.8101587" lon="-118.3938669">
  <ele>-14.75</ele>
  <time>2026-09-02T22:13:15Z</time>
  <course>0.22</course>
  <speed>0.49</speed>
  <fix>3d</fix>
</trkpt>
<trkpt lat="33.8101604" lon="-118.393867">
  <ele>-15.125</ele>
  <time>2026-09-02T22:13:15Z</time>
  <course>184.78</course>
  <speed>0.5200961449578337</speed>
  <fix>3d</fix>
</trkpt>
<trkpt lat="33.8101596" lon="-118.3938669">
  <ele>-14.75</ele>
  <time>2026-09-02T22:13:15Z</time>
  <course>0.25</course>
  <speed>0.49</speed>
  <fix>3d</fix>
</trkpt>
<trkpt lat="33.8101608" lon="-118.393867">
  <ele>-15.124</ele>
  <time>2026-09-02T22:13:15Z</time>
  <course>184.78</course>
  <speed>0.5200961449578337</speed>
  <fix>3d</fix>
</trkpt>
<trkpt lat="33.8101596" lon="-118.3938669">
  <ele>-14.75</ele>
  <time>2026-09-02T22:13:15Z</time>
  <course>0.25</course>
  <speed>0.49</speed>
  <fix>3d</fix>
</trkpt>
<trkpt lat="33.8101613" lon="-118.393867">
  <ele>-15.122</ele>
  <time>2026-09-02T22:13:15Z</time>
  <course>184.78</course>
  <speed>0.5200961449578337</speed>
  <fix>3d</fix>
</trkpt>
<trkpt lat="33.8101605" lon="-118.3938669">
  <ele>-14.75</ele>
  <time>2026-09-02T22:13:15Z</time>
  <course>0.27</course>
  <speed>0.49</speed>
  <fix>3d</fix>
</trkpt>
<trkpt lat="33.8101617" lon="-118.393867">
  <ele>-15.121</ele>
  <time>2026-09-02T22:13:15Z</time>
  <course>184.78</course>
  <speed>0.5200961449578337</speed>
  <fix>3d</fix>
</trkpt>
<trkpt lat="33.8101605" lon="-118.3938669">
  <ele>-14.75</ele>
  <time>2026-09-02T22:13:15Z</time>
  <course>0.27</course>
  <speed>0.49</speed>
  <fix>3d</fix>
</trkpt>
<trkpt lat="33.8101622" lon="-118.393867">
  <ele>-15.122</ele>
  <time>2026-09-02T22:13:15Z</time>
  <course>184.78</course>
  <speed>0.5200961449578337</speed>
  <fix>3d</fix>
</trkpt>
<trkpt lat="33.8101614" lon="-118.3938669">
  <ele>-14.75</ele>
  <time>2026-09-02T22:13:15Z</time>
  <course>0.29</course>
  <speed>0.49</speed>
  <fix>3d</fix>
</trkpt>
<trkpt lat="33.8101626" lon="-118.393867">
  <ele>-15.124</ele>
  <time>2026-09-02T22:13:15Z</time>
  <course>184.78</course>
  <speed>0.5200961449578337</speed>
  <fix>3d</fix>
</trkpt>
<trkpt lat="33.8101614" lon="-118.3938669">
  <ele>-14.75</ele>
  <time>2026-09-02T22:13:15Z</time>
  <course>0.29</course>
  <speed>0.49</speed>
  <fix>3d</fix>
</trkpt>
<trkpt lat="33.8101631" lon="-118.393867">
  <ele>-15.127</ele>
  <time>2026-09-02T22:13:15Z</time>
  <course>184.78</course>
  <speed>0.5200961449578337</speed>
  <fix>3d</fix>
</trkpt>
<trkpt lat="33.8101623" lon="-118.3938669">
  <ele>-14.76</ele>
  <time>2026-09-02T22:13:15Z</time>
  <course>0.31</course>
  <speed>0.49</speed>
  <fix>3d</fix>
</trkpt>
<trkpt lat="33.8101635" lon="-118.393867">
  <ele>-15.13</ele>
  <time>2026-09-02T22:13:15Z</time>
  <course>184.78</course>
  <speed>0.5200961449578337</speed>
  <fix>3d</fix>
</trkpt>
<trkpt lat="33.8101623" lon="-118.3938669">
  <ele>-14.76</ele>
  <time>2026-09-02T22:13:15Z</time>
  <course>0.31</course>
  <speed>0.49</speed>
  <fix>3d</fix>
</trkpt>
<trkpt lat="33.810164" lon="-118.393867">
  <ele>-15.133</ele>
  <time>2026-09-02T22:13:15Z</time>
  <course>184.78</course>
  <speed>0.5200961449578337</speed>
  <fix>3d</fix>
</trkpt>
<trkpt lat="33.8101631" lon="-118.3938669">
  <ele>-14.76</ele>
  <time>2026-09-02T22:13:15Z</time>
  <course>0.33</course>
  <speed>0.49</speed>
  <fix>3d</fix>
</trkpt>
<trkpt lat="33.8101644" lon="-118.393867">
  <ele>-15.135</ele>
  <time>2026-09-02T22:13:15Z</time>
  <course>184.78</course>
  <speed>0.5200961449578337</speed>
  <fix>3d</fix>
</trkpt>
<trkpt lat="33.8101631" lon="-118.3938669">
  <ele>-14.76</ele>
  <time>2026-09-02T22:13:15Z</time>
  <course>0.33</course>
  <speed>0.49</speed>
  <fix>3d</fix>
</trkpt>
<trkpt lat="33.8101649" lon="-118.393867">
  <ele>-15.137</ele>
  <time>2026-09-02T22:13:15Z</time>
  <course>184.78</course>
  <speed>0.5200961449578337</speed>
  <fix>3d</fix>
</trkpt>
<trkpt lat="33.810164" lon="-118.3938669">
  <ele>-14.77</ele>
  <time>2026-09-02T22:13:15Z</time>
  <course>0.36</course>
  <speed>0.49</speed>
  <fix>3d</fix>
</trkpt>
<trkpt lat="33.8101653" lon="-118.393867">
  <ele>-15.139</ele>
  <time>2026-09-02T22:13:15Z</time>
  <course>184.78</course>
  <speed>0.5200961449578337</speed>
  <fix>3d</fix>
</trkpt>
<trkpt lat="33.810164" lon="-118.3938669">
  <ele>-14.77</ele>
  <time>2026-09-02T22:13:15Z</time>
  <course>0.36</course>
  <speed>0.49</speed>
  <fix>3d</fix>
</trkpt>
<trkpt lat="33.8101658" lon="-118.393867">
  <ele>-15.139</ele>
  <time>2026-09-02T22:13:15Z</time>
  <course>184.78</course>
  <speed>0.5200961449578337</speed>
  <fix>3d</fix>
</trkpt>
<trkpt lat="33.8101649" lon="-118.3938669">
  <ele>-14.77</ele>
  <time>2026-09-02T22:13:15Z</time>
  <course>0.38</course>
  <speed>0.5</speed>
  <fix>3d</fix>
</trkpt>
<trkpt lat="33.8101662" lon="-118.393867">
  <ele>-15.138</ele>
  <time>2026-09-02T22:13:15Z</time>
  <course>184.78</course>
  <speed>0.5200961449578337</speed>
  <fix>3d</fix>
</trkpt>
<trkpt lat="33.8101649" lon="-118.3938669">
  <ele>-14.77</ele>
  <time>2026-09-02T22:13:15Z</time>
  <course>0.38</course>
  <speed>0.5</speed>
  <fix>3d</fix>
</trkpt>
<trkpt lat="33.8101667" lon="-118.393867">
  <ele>-15.136</ele>
  <time>2026-09-02T22:13:15Z</time>
  <course>184.78</course>
  <speed>0.5200961449578337</speed>
  <fix>3d</fix>
</trkpt>
<trkpt lat="33.8101658" lon="-118.3938669">
  <ele>-14.77</ele>
  <time>2026-09-02T22:13:15Z</time>
  <course>0.41</course>
  <speed>0.5</speed>
  <fix>3d</fix>
</trkpt>
<trkpt lat="33.8101671" lon="-118.393867">
  <ele>-15.134</ele>
  <time>2026-09-02T22:13:15Z</time>
  <course>184.78</course>
  <speed>0.5200961449578337</speed>
  <fix>3d</fix>
</trkpt>
<trkpt lat="33.8101658" lon="-118.3938669">
  <ele>-14.77</ele>
  <time>2026-09-02T22:13:15Z</time>
  <course>0.41</course>
  <speed>0.5</speed>
  <fix>3d</fix>
</trkpt>
<trkpt lat="33.8101676" lon="-118.393867">
  <ele>-15.13</ele>
  <time>2026-09-02T22:13:15Z</time>
  <course>184.78</course>
  <speed>0.5200961449578337</speed>
  <fix>3d</fix>
</trkpt>
<trkpt lat="33.8101668" lon="-118.3938669">
  <ele>-14.76</ele>
  <time>2026-09-02T22:13:15Z</time>
  <course>0.43</course>
  <speed>0.5</speed>
  <fix>3d</fix>
</trkpt>
<trkpt lat="33.810168" lon="-118.393867">
  <ele>-15.126</ele>
  <time>2026-09-02T22:13:15Z</time>
  <course>184.78</course>
  <speed>0.5200961449578337</speed>
  <fix>3d</fix>
</trkpt>
<trkpt lat="33.8101668" lon="-118.3938669">
  <ele>-14.76</ele>
  <time>2026-09-02T22:13:15Z</time>
  <course>0.43</course>
  <speed>0.5</speed>
  <fix>3d</fix>
</trkpt>
<trkpt lat="33.8101685" lon="-118.393867">
  <ele>-15.123</ele>
  <time>2026-09-02T22:13:15Z</time>
  <course>184.78</course>
  <speed>0.5200961449578337</speed>
  <fix>3d</fix>
</trkpt>
<trkpt lat="33.8101677" lon="-118.3938669">
  <ele>-14.76</ele>
  <time>2026-09-02T22:13:15Z</time>
  <course>0.44</course>
  <speed>0.5</speed>
  <fix>3d</fix>
</trkpt>
<trkpt lat="33.8101689" lon="-118.393867">
  <ele>-15.123</ele>
  <time>2026-09-02T22:13:15Z</time>
  <course>184.78</course>
  <speed>0.5200961449578337</speed>
  <fix>3d</fix>
</trkpt>
<trkpt lat="33.8101677" lon="-118.3938669">
  <ele>-14.76</ele>
  <time>2026-09-02T22:13:15Z</time>
  <course>0.44</course>
  <speed>0.5</speed>
  <fix>3d</fix>
</trkpt>
<trkpt lat="33.8101694" lon="-118.393867">
  <ele>-15.123</ele>
  <time>2026-09-02T22:13:15Z</time>
  <course>184.77</course>
  <speed>0.5200961449578337</speed>
  <fix>3d</fix>
</trkpt>
<trkpt lat="33.8101686" lon="-118.3938669">
  <ele>-14.76</ele>
  <time>2026-09-02T22:13:15Z</time>
  <course>0.44</course>
  <speed>0.5</speed>
  <fix>3d</fix>
</trkpt>
<trkpt lat="33.8101698" lon="-118.393867">
  <ele>-15.123</ele>
  <time>2026-09-02T22:13:15Z</time>
  <course>184.78</course>
  <speed>0.5200961449578337</speed>
  <fix>3d</fix>
</trkpt>
<trkpt lat="33.8101686" lon="-118.3938669">
  <ele>-14.76</ele>
  <time>2026-09-02T22:13:15Z</time>
  <course>0.44</course>
  <speed>0.5</speed>
  <fix>3d</fix>
</trkpt>
<trkpt lat="33.8101703" lon="-118.393867">
  <ele>-15.124</ele>
  <time>2026-09-02T22:13:15Z</time>
  <course>184.78</course>
  <speed>0.5200961449578337</speed>
  <fix>3d</fix>
</trkpt>
<trkpt lat="33.8101695" lon="-118.3938669">
  <ele>-14.76</ele>
  <time>2026-09-02T22:13:15Z</time>
  <course>0.45</course>
  <speed>0.5</speed>
  <fix>3d</fix>
</trkpt>
<trkpt lat="33.8101707" lon="-118.393867">
  <ele>-15.124</ele>
  <time>2026-09-02T22:13:15Z</time>
  <course>184.78</course>
  <speed>0.5200961449578337</speed>
  <fix>3d</fix>
</trkpt>
<trkpt lat="33.8101695" lon="-118.3938669">
  <ele>-14.76</ele>
  <time>2026-09-02T22:13:15Z</time>
  <course>0.45</course>
  <speed>0.5</speed>
  <fix>3d</fix>
</trkpt>
<trkpt lat="33.8101712" lon="-118.393867">
  <ele>-15.125</ele>
  <time>2026-09-02T22:13:15Z</time>
  <course>184.78</course>
  <speed>0.5200961449578337</speed>
  <fix>3d</fix>
</trkpt>
<trkpt lat="33.8101704" lon="-118.3938669">
  <ele>-14.76</ele>
  <time>2026-09-02T22:13:15Z</time>
  <course>0.48</course>
  <speed>0.5</speed>
  <fix>3d</fix>
</trkpt>
<trkpt lat="33.8101716" lon="-118.393867">
  <ele>-15.128</ele>
  <time>2026-09-02T22:13:15Z</time>
  <course>184.78</course>
  <speed>0.5200961449578337</speed>
  <fix>3d</fix>
</trkpt>
<trkpt lat="33.8101704" lon="-118.3938669">
  <ele>-14.76</ele>
  <time>2026-09-02T22:13:15Z</time>
  <course>0.48</course>
  <speed>0.5</speed>
  <fix>3d</fix>
</trkpt>
<trkpt lat="33.8101721" lon="-118.393867">
  <ele>-15.13</ele>
  <time>2026-09-02T22:13:15Z</time>
  <course>184.78</course>
  <speed>0.5200961449578337</speed>
  <fix>3d</fix>
</trkpt>
<trkpt lat="33.8101713" lon="-118.3938669">
  <ele>-14.77</ele>
  <time>2026-09-02T22:13:15Z</time>
  <course>0.52</course>
  <speed>0.5</speed>
  <fix>3d</fix>
</trkpt>
<trkpt lat="33.8101725" lon="-118.393867">
  <ele>-15.131</ele>
  <time>2026-09-02T22:13:15Z</time>
  <course>184.78</course>
  <speed>0.5200961449578337</speed>
  <fix>3d</fix>
</trkpt>
<trkpt lat="33.8101713" lon="-118.3938669">
  <ele>-14.77</ele>
  <time>2026-09-02T22:13:15Z</time>
  <course>0.52</course>
  <speed>0.5</speed>
  <fix>3d</fix>
</trkpt>
<trkpt lat="33.810173" lon="-118.393867">
  <ele>-15.132</ele>
  <time>2026-09-02T22:13:15Z</time>
  <course>184.78</course>
  <speed>0.5200961449578337</speed>
  <fix>3d</fix>
</trkpt>
<trkpt lat="33.8101722" lon="-118.3938669">
  <ele>-14.77</ele>
  <time>2026-09-02T22:13:15Z</time>
  <course>0.56</course>
  <speed>0.5</speed>
  <fix>3d</fix>
</trkpt>
<trkpt lat="33.8101734" lon="-118.393867">
  <ele>-15.133</ele>
  <time>2026-09-02T22:13:15Z</time>
  <course>184.78</course>
  <speed>0.5200961449578337</speed>
  <fix>3d</fix>
</trkpt>
<trkpt lat="33.8101722" lon="-118.3938669">
  <ele>-14.77</ele>
  <time>2026-09-02T22:13:15Z</time>
  <course>0.56</course>
  <speed>0.5</speed>
  <fix>3d</fix>
</trkpt>
<trkpt lat="33.8101739" lon="-118.393867">
  <ele>-15.133</ele>
  <time>2026-09-02T22:13:15Z</time>
  <course>184.78</course>
  <speed>0.5200961449578337</speed>
  <fix>3d</fix>
</trkpt>
<trkpt lat="33.8101731" lon="-118.3938669">
  <ele>-14.77</ele>
  <time>2026-09-02T22:13:15Z</time>
  <course>0.59</course>
  <speed>0.49</speed>
  <fix>3d</fix>
</trkpt>
<trkpt lat="33.8101743" lon="-118.393867">
  <ele>-15.133</ele>
  <time>2026-09-02T22:13:15Z</time>
  <course>184.77</course>
  <speed>0.5200961449578337</speed>
  <fix>3d</fix>
</trkpt>
<trkpt lat="33.8101731" lon="-118.3938669">
  <ele>-14.77</ele>
  <time>2026-09-02T22:13:15Z</time>
  <course>0.59</course>
  <speed>0.49</speed>
  <fix>3d</fix>
</trkpt>
<trkpt lat="33.8101748" lon="-118.393867">
  <ele>-15.134</ele>
  <time>2026-09-02T22:13:15Z</time>
  <course>184.77</course>
  <speed>0.5200961449578337</speed>
  <fix>3d</fix>
</trkpt>
<trkpt lat="33.810174" lon="-118.3938669">
  <ele>-14.77</ele>
  <time>2026-09-02T22:13:15Z</time>
  <course>0.59</course>
  <speed>0.49</speed>
  <fix>3d</fix>
</trkpt>
<trkpt lat="33.8101752" lon="-118.393867">
  <ele>-15.135</ele>
  <time>2026-09-02T22:13:15Z</time>
  <course>184.77</course>
  <speed>0.5200961449578337</speed>
  <fix>3d</fix>
</trkpt>
<trkpt lat="33.810174" lon="-118.3938669">
  <ele>-14.77</ele>
  <time>2026-09-02T22:13:15Z</time>
  <course>0.59</course>
  <speed>0.49</speed>
  <fix>3d</fix>
</trkpt>
<trkpt lat="33.8101757" lon="-118.393867">
  <ele>-15.135</ele>
  <time>2026-09-02T22:13:15Z</time>
  <course>184.78</course>
  <speed>0.5200961449578337</speed>
  <fix>3d</fix>
</trkpt>
<trkpt lat="33.8101749" lon="-118.3938668">
  <ele>-14.77</ele>
  <time>2026-09-02T22:13:15Z</time>
  <course>0.59</course>
  <speed>0.49</speed>
  <fix>3d</fix>
</trkpt>
<trkpt lat="33.8101761" lon="-118.393867">
  <ele>-15.135</ele>
  <time>2026-09-02T22:13:15Z</time>
  <course>184.78</course>
  <speed>0.5200961449578337</speed>
  <fix>3d</fix>
</trkpt>
<trkpt lat="33.8101749" lon="-118.3938668">
  <ele>-14.77</ele>
  <time>2026-09-02T22:13:15Z</time>
  <course>0.59</course>
  <speed>0.49</speed>
  <fix>3d</fix>
</trkpt>
<trkpt lat="33.8101766" lon="-118.393867">
  <ele>-15.135</ele>
  <time>2026-09-02T22:13:15Z</time>
  <course>184.78</course>
  <speed>0.5200961449578337</speed>
  <fix>3d</fix>
</trkpt>
<trkpt lat="33.8101758" lon="-118.3938668">
  <ele>-14.77</ele>
  <time>2026-09-02T22:13:15Z</time>
  <course>0.51</course>
  <speed>0.49</speed>
  <fix>3d</fix>
</trkpt>
<trkpt lat="33.810177" lon="-118.393867">
  <ele>-15.134</ele>
  <time>2026-09-02T22:13:15Z</time>
  <course>184.78</course>
  <speed>0.5200961449578337</speed>
  <fix>3d</fix>
</trkpt>
<trkpt lat="33.8101758" lon="-118.3938668">
  <ele>-14.77</ele>
  <time>2026-09-02T22:13:15Z</time>
  <course>0.51</course>
  <speed>0.49</speed>
  <fix>3d</fix>
</trkpt>
<trkpt lat="33.8101775" lon="-118.393867">
  <ele>-15.133</ele>
  <time>2026-09-02T22:13:15Z</time>
  <course>184.78</course>
  <speed>0.5200961449578337</speed>
  <fix>3d</fix>
</trkpt>
<trkpt lat="33.8101767" lon="-118.3938668">
  <ele>-14.76</ele>
  <time>2026-09-02T22:13:15Z</time>
  <course>0.34</course>
  <speed>0.49</speed>
  <fix>3d</fix>
</trkpt>
<trkpt lat="33.8101779" lon="-118.393867">
  <ele>-15.131</ele>
  <time>2026-09-02T22:13:15Z</time>
  <course>184.78</course>
  <speed>0.5200961449578337</speed>
  <fix>3d</fix>
</trkpt>
<trkpt lat="33.8101767" lon="-118.3938668">
  <ele>-14.76</ele>
  <time>2026-09-02T22:13:15Z</time>
  <course>0.34</course>
  <speed>0.49</speed>
  <fix>3d</fix>
</trkpt>
<trkpt lat="33.8101784" lon="-118.393867">
  <ele>-15.129</ele>
  <time>2026-09-02T22:13:15Z</time>
  <course>184.78</course>
  <speed>0.5200961449578337</speed>
  <fix>3d</fix>
</trkpt>
<trkpt lat="33.8101776" lon="-118.3938668">
  <ele>-14.76</ele>
  <time>2026-09-02T22:13:15Z</time>
  <course>0.17</course>
  <speed>0.5</speed>
  <fix>3d</fix>
</trkpt>
<trkpt lat="33.8101788" lon="-118.393867">
  <ele>-15.127</ele>
  <time>2026-09-02T22:13:15Z</time>
  <course>184.78</course>
  <speed>0.5200961449578337</speed>
  <fix>3d</fix>
</trkpt>
<trkpt lat="33.8101776" lon="-118.3938668">
  <ele>-14.76</ele>
  <time>2026-09-02T22:13:15Z</time>
  <course>0.17</course>
  <speed>0.5</speed>
  <fix>3d</fix>
</trkpt>
<trkpt lat="33.8101793" lon="-118.393867">
  <ele>-15.126</ele>
  <time>2026-09-02T22:13:15Z</time>
  <course>184.78</course>
  <speed>0.5200961449578337</speed>
  <fix>3d</fix>
</trkpt>
<trkpt lat="33.8101785" lon="-118.3938668">
  <ele>-14.76</ele>
  <time>2026-09-02T22:13:15Z</time>
  <course>0.02</course>
  <speed>0.5</speed>
  <fix>3d</fix>
</trkpt>
<trkpt lat="33.8101797" lon="-118.393867">
  <ele>-15.124</ele>
  <time>2026-09-02T22:13:15Z</time>
  <course>184.78</course>
  <speed>0.5203844732503076</speed>
  <fix>3d</fix>
</trkpt>
<trkpt lat="33.8101785" lon="-118.3938668">
  <ele>-14.76</ele>
  <time>2026-09-02T22:13:15Z</time>
  <course>0.02</course>
  <speed>0.5</speed>
  <fix>3d</fix>
</trkpt>
<trkpt lat="33.8101802" lon="-118.393867">
  <ele>-15.124</ele>
  <time>2026-09-02T22:13:15Z</time>
  <course>184.77</course>
  <speed>0.5200961449578337</speed>
  <fix>3d</fix>
</trkpt>
<trkpt lat="33.8101794" lon="-118.3938668">
  <ele>-14.76</ele>
  <time>2026-09-02T22:13:15Z</time>
  <course>359.88</course>
  <speed>0.5</speed>
  <fix>3d</fix>
</trkpt>
<trkpt lat="33.8101806" lon="-118.393867">
  <ele>-15.125</ele>
  <time>2026-09-02T22:13:15Z</time>
  <course>184.77</course>
  <speed>0.5203844732503076</speed>
  <fix>3d</fix>
</trkpt>
<trkpt lat="33.8101794" lon="-118.3938668">
  <ele>-14.76</ele>
  <time>2026-09-02T22:13:15Z</time>
  <course>359.88</course>
  <speed>0.5</speed>
  <fix>3d</fix>
</trkpt>
<trkpt lat="33.8101811" lon="-118.393867">
  <ele>-15.127</ele>
  <time>2026-09-02T22:13:15Z</time>
  <course>184.78</course>
  <speed>0.5203844732503076</speed>
  <fix>3d</fix>
</trkpt>
<trkpt lat="33.8101803" lon="-118.3938668">
  <ele>-14.76</ele>
  <time>2026-09-02T22:13:15Z</time>
  <course>359.78</course>
  <speed>0.5</speed>
  <fix>3d</fix>
</trkpt>
<trkpt lat="33.8101815" lon="-118.393867">
  <ele>-15.129</ele>
  <time>2026-09-02T22:13:15Z</time>
  <course>184.78</course>
  <speed>0.5203844732503076</speed>
  <fix>3d</fix>
</trkpt>
<trkpt lat="33.8101803" lon="-118.3938668">
  <ele>-14.76</ele>
  <time>2026-09-02T22:13:15Z</time>
  <course>359.78</course>
  <speed>0.5</speed>
  <fix>3d</fix>
</trkpt>
<trkpt lat="33.810182" lon="-118.393867">
  <ele>-15.13</ele>
  <time>2026-09-02T22:13:15Z</time>
  <course>184.78</course>
  <speed>0.5200961449578337</speed>
  <fix>3d</fix>
</trkpt>
<trkpt lat="33.8101812" lon="-118.3938668">
  <ele>-14.76</ele>
  <time>2026-09-02T22:13:15Z</time>
  <course>359.73</course>
  <speed>0.5</speed>
  <fix>3d</fix>
</trkpt>
<trkpt lat="33.8101824" lon="-118.393867">
  <ele>-15.131</ele>
  <time>2026-09-02T22:13:15Z</time>
  <course>184.78</course>
  <speed>0.5203844732503076</speed>
  <fix>3d</fix>
</trkpt>
<trkpt lat="33.8101812" lon="-118.3938668">
  <ele>-14.76</ele>
  <time>2026-09-02T22:13:15Z</time>
  <course>359.73</course>
  <speed>0.5</speed>
  <fix>3d</fix>
</trkpt>
<trkpt lat="33.8101829" lon="-118.393867">
  <ele>-15.131</ele>
  <time>2026-09-02T22:13:15Z</time>
  <course>184.78</course>
  <speed>0.5200961449578337</speed>
  <fix>3d</fix>
</trkpt>
<trkpt lat="33.8101821" lon="-118.3938668">
  <ele>-14.76</ele>
  <time>2026-09-02T22:13:15Z</time>
  <course>359.7</course>
  <speed>0.5</speed>
  <fix>3d</fix>
</trkpt>
<trkpt lat="33.8101833" lon="-118.393867">
  <ele>-15.13</ele>
  <time>2026-09-02T22:13:15Z</time>
  <course>184.78</course>
  <speed>0.5203844732503076</speed>
  <fix>3d</fix>
</trkpt>
<trkpt lat="33.8101821" lon="-118.3938668">
  <ele>-14.76</ele>
  <time>2026-09-02T22:13:15Z</time>
  <course>359.7</course>
  <speed>0.5</speed>
  <fix>3d</fix>
</trkpt>
<trkpt lat="33.8101838" lon="-118.393867">
  <ele>-15.13</ele>
  <time>2026-09-02T22:13:15Z</time>
  <course>184.78</course>
  <speed>0.5200961449578337</speed>
  <fix>3d</fix>
</trkpt>
<trkpt lat="33.810183" lon="-118.3938668">
  <ele>-14.76</ele>
  <time>2026-09-02T22:13:15Z</time>
  <course>359.67</course>
  <speed>0.5</speed>
  <fix>3d</fix>
</trkpt>
<trkpt lat="33.8101842" lon="-118.393867">
  <ele>-15.128</ele>
  <time>2026-09-02T22:13:15Z</time>
  <course>184.78</course>
  <speed>0.5203844732503076</speed>
  <fix>3d</fix>
</trkpt>
<trkpt lat="33.810183" lon="-118.3938668">
  <ele>-14.76</ele>
  <time>2026-09-02T22:13:15Z</time>
  <course>359.67</course>
  <speed>0.5</speed>
  <fix>3d</fix>
</trkpt>
<trkpt lat="33.8101847" lon="-118.393867">
  <ele>-15.128</ele>
  <time>2026-09-02T22:13:15Z</time>
  <course>184.78</course>
  <speed>0.5200961449578337</speed>
  <fix>3d</fix>
</trkpt>
<trkpt lat="33.8101839" lon="-118.3938668">
  <ele>-14.76</ele>
  <time>2026-09-02T22:13:15Z</time>
  <course>359.65</course>
  <speed>0.5</speed>
  <fix>3d</fix>
</trkpt>
<trkpt lat="33.8101851" lon="-118.393867">
  <ele>-15.127</ele>
  <time>2026-09-02T22:13:15Z</time>
  <course>184.77</course>
  <speed>0.5200961449578337</speed>
  <fix>3d</fix>
</trkpt>
<trkpt lat="33.8101839" lon="-118.3938668">
  <ele>-14.76</ele>
  <time>2026-09-02T22:13:15Z</time>
  <course>359.65</course>
  <speed>0.5</speed>
  <fix>3d</fix>
</trkpt>
<trkpt lat="33.8101856" lon="-118.393867">
  <ele>-15.127</ele>
  <time>2026-09-02T22:13:15Z</time>
  <course>184.78</course>
  <speed>0.5200961449578337</speed>
  <fix>3d</fix>
</trkpt>
<trkpt lat="33.8101848" lon="-118.3938668">
  <ele>-14.76</ele>
  <time>2026-09-02T22:13:15Z</time>
  <course>359.63</course>
  <speed>0.5</speed>
  <fix>3d</fix>
</trkpt>
<trkpt lat="33.810186" lon="-118.393867">
  <ele>-15.128</ele>
  <time>2026-09-02T22:13:15Z</time>
  <course>184.78</course>
  <speed>0.5200961449578337</speed>
  <fix>3d</fix>
</trkpt>
<trkpt lat="33.8101848" lon="-118.3938668">
  <ele>-14.76</ele>
  <time>2026-09-02T22:13:15Z</time>
  <course>359.63</course>
  <speed>0.5</speed>
  <fix>3d</fix>
</trkpt>
<trkpt lat="33.8101865" lon="-118.393867">
  <ele>-15.13</ele>
  <time>2026-09-02T22:13:15Z</time>
  <course>184.77</course>
  <speed>0.5200961449578337</speed>
  <fix>3d</fix>
</trkpt>
<trkpt lat="33.8101857" lon="-118.3938668">
  <ele>-14.76</ele>
  <time>2026-09-02T22:13:15Z</time>
  <course>359.61</course>
  <speed>0.5</speed>
  <fix>3d</fix>
</trkpt>
<trkpt lat="33.8101869" lon="-118.393867">
  <ele>-15.132</ele>
  <time>2026-09-02T22:13:15Z</time>
  <course>184.77</course>
  <speed>0.5200961449578337</speed>
  <fix>3d</fix>
</trkpt>
<trkpt lat="33.8101857" lon="-118.3938668">
  <ele>-14.76</ele>
  <time>2026-09-02T22:13:15Z</time>
  <course>359.61</course>
  <speed>0.5</speed>
  <fix>3d</fix>
</trkpt>
<trkpt lat="33.8101874" lon="-118.393867">
  <ele>-15.132</ele>
  <time>2026-09-02T22:13:15Z</time>
  <course>184.77</course>
  <speed>0.5200961449578337</speed>
  <fix>3d</fix>
</trkpt>
<trkpt lat="33.8101866" lon="-118.3938668">
  <ele>-14.76</ele>
  <time>2026-09-02T22:13:15Z</time>
  <course>359.6</course>
  <speed>0.5</speed>
  <fix>3d</fix>
</trkpt>
<trkpt lat="33.8101878" lon="-118.393867">
  <ele>-15.132</ele>
  <time>2026-09-02T22:13:15Z</time>
  <course>184.77</course>
  <speed>0.5200961449578337</speed>
  <fix>3d</fix>
</trkpt>
<trkpt lat="33.8101866" lon="-118.3938668">
  <ele>-14.76</ele>
  <time>2026-09-02T22:13:15Z</time>
  <course>359.6</course>
  <speed>0.5</speed>
  <fix>3d</fix>
</trkpt>
<trkpt lat="33.8101883" lon="-118.393867">
  <ele>-15.13</ele>
  <time>2026-09-02T22:13:15Z</time>
  <course>184.78</course>
  <speed>0.5200961449578337</speed>
  <fix>3d</fix>
</trkpt>
<trkpt lat="33.8101875" lon="-118.3938668">
  <ele>-14.76</ele>
  <time>2026-09-02T22:13:15Z</time>
  <course>359.58</course>
  <speed>0.5</speed>
  <fix>3d</fix>
</trkpt>
<trkpt lat="33.8101887" lon="-118.393867">
  <ele>-15.128</ele>
  <time>2026-09-02T22:13:15Z</time>
  <course>184.78</course>
  <speed>0.5200961449578337</speed>
  <fix>3d</fix>
</trkpt>
<trkpt lat="33.8101875" lon="-118.3938668">
  <ele>-14.76</ele>
  <time>2026-09-02T22:13:15Z</time>
  <course>359.58</course>
  <speed>0.5</speed>
  <fix>3d</fix>
</trkpt>
<trkpt lat="33.8101892" lon="-118.393867">
  <ele>-15.127</ele>
  <time>2026-09-02T22:13:15Z</time>
  <course>184.78</course>
  <speed>0.5200961449578337</speed>
  <fix>3d</fix>
</trkpt>
<trkpt lat="33.8101884" lon="-118.3938668">
  <ele>-14.76</ele>
  <time>2026-09-02T22:13:15Z</time>
  <course>359.56</course>
  <speed>0.5</speed>
  <fix>3d</fix>
</trkpt>
<trkpt lat="33.8101896" lon="-118.393867">
  <ele>-15.127</ele>
  <time>2026-09-02T22:13:15Z</time>
  <course>184.78</course>
  <speed>0.5200961449578337</speed>
  <fix>3d</fix>
</trkpt>
<trkpt lat="33.8101884" lon="-118.3938668">
  <ele>-14.76</ele>
  <time>2026-09-02T22:13:15Z</time>
  <course>359.56</course>
  <speed>0.5</speed>
  <fix>3d</fix>
</trkpt>
<trkpt lat="33.8101901" lon="-118.393867">
  <ele>-15.127</ele>
  <time>2026-09-02T22:13:15Z</time>
  <course>184.78</course>
  <speed>0.5200961449578337</speed>
  <fix>3d</fix>
</trkpt>
<trkpt lat="33.8101893" lon="-118.3938668">
  <ele>-14.76</ele>
  <time>2026-09-02T22:13:15Z</time>
  <course>359.54</course>
  <speed>0.5</speed>
  <fix>3d</fix>
</trkpt>
<trkpt lat="33.8101905" lon="-118.393867">
  <ele>-15.128</ele>
  <time>2026-09-02T22:13:15Z</time>
  <course>184.78</course>
  <speed>0.5200961449578337</speed>
  <fix>3d</fix>
</trkpt>
<trkpt lat="33.8101893" lon="-118.3938668">
  <ele>-14.76</ele>
  <time>2026-09-02T22:13:15Z</time>
  <course>359.54</course>
  <speed>0.5</speed>
  <fix>3d</fix>
</trkpt>
<trkpt lat="33.810191" lon="-118.393867">
  <ele>-15.129</ele>
  <time>2026-09-02T22:13:15Z</time>
  <course>184.78</course>
  <speed>0.5200961449578337</speed>
  <fix>3d</fix>
</trkpt>
<trkpt lat="33.8101902" lon="-118.3938668">
  <ele>-14.76</ele>
  <time>2026-09-02T22:13:15Z</time>
  <course>359.52</course>
  <speed>0.5</speed>
  <fix>3d</fix>
</trkpt>
<trkpt lat="33.8101914" lon="-118.393867">
  <ele>-15.13</ele>
  <time>2026-09-02T22:13:15Z</time>
  <course>184.78</course>
  <speed>0.5200961449578337</speed>
  <fix>3d</fix>
</trkpt>
<trkpt lat="33.8101902" lon="-118.3938668">
  <ele>-14.76</ele>
  <time>2026-09-02T22:13:15Z</time>
  <course>359.52</course>
  <speed>0.5</speed>
  <fix>3d</fix>
</trkpt>
<trkpt lat="33.8101919" lon="-118.393867">
  <ele>-15.131</ele>
  <time>2026-09-02T22:13:15Z</time>
  <course>184.78</course>
  <speed>0.5200961449578337</speed>
  <fix>3d</fix>
</trkpt>
<trkpt lat="33.8101911" lon="-118.3938668">
  <ele>-14.76</ele>
  <time>2026-09-02T22:13:15Z</time>
  <course>359.49</course>
  <speed>0.5</speed>
  <fix>3d</fix>
</trkpt>
<trkpt lat="33.8101923" lon="-118.393867">
  <ele>-15.132</ele>
  <time>2026-09-02T22:13:15Z</time>
  <course>184.78</course>
  <speed>0.5200961449578337</speed>
  <fix>3d</fix>
</trkpt>
<trkpt lat="33.8101911" lon="-118.3938668">
  <ele>-14.76</ele>
  <time>2026-09-02T22:13:15Z</time>
  <course>359.49</course>
  <speed>0.5</speed>
  <fix>3d</fix>
</trkpt>
<trkpt lat="33.8101928" lon="-118.393867">
  <ele>-15.132</ele>
  <time>2026-09-02T22:13:15Z</time>
  <course>184.78</course>
  <speed>0.5200961449578337</speed>
  <fix>3d</fix>
</trkpt>
<trkpt lat="33.810192" lon="-118.3938668">
  <ele>-14.76</ele>
  <time>2026-09-02T22:13:15Z</time>
  <course>359.47</course>
  <speed>0.5</speed>
  <fix>3d</fix>
</trkpt>
<trkpt lat="33.8101932" lon="-118.393867">
  <ele>-15.132</ele>
  <time>2026-09-02T22:13:15Z</time>
  <course>184.77</course>
  <speed>0.5200961449578337</speed>
  <fix>3d</fix>
</trkpt>
<trkpt lat="33.810192" lon="-118.3938668">
  <ele>-14.76</ele>
  <time>2026-09-02T22:13:15Z</time>
  <course>359.47</course>
  <speed>0.5</speed>
  <fix>3d</fix>
</trkpt>
<trkpt lat="33.8101937" lon="-118.393867">
  <ele>-15.131</ele>
  <time>2026-09-02T22:13:15Z</time>
  <course>184.78</course>
  <speed>0.5200961449578337</speed>
  <fix>3d</fix>
</trkpt>
<trkpt lat="33.8101929" lon="-118.3938668">
  <ele>-14.76</ele>
  <time>2026-09-02T22:13:15Z</time>
  <course>359.46</course>
  <speed>0.5</speed>
  <fix>3d</fix>
</trkpt>
<trkpt lat="33.8101941" lon="-118.393867">
  <ele>-15.13</ele>
  <time>2026-09-02T22:13:15Z</time>
  <course>184.78</course>
  <speed>0.5200961449578337</speed>
  <fix>3d</fix>
</trkpt>
<trkpt lat="33.8101929" lon="-118.3938668">
  <ele>-14.76</ele>
  <time>2026-09-02T22:13:15Z</time>
  <course>359.46</course>
  <speed>0.5</speed>
  <fix>3d</fix>
</trkpt>
<trkpt lat="33.8101946" lon="-118.393867">
  <ele>-15.129</ele>
  <time>2026-09-02T22:13:15Z</time>
  <course>184.78</course>
  <speed>0.5200961449578337</speed>
  <fix>3d</fix>
</trkpt>
<trkpt lat="33.8101938" lon="-118.3938668">
  <ele>-14.76</ele>
  <time>2026-09-02T22:13:15Z</time>
  <course>359.44</course>
  <speed>0.5</speed>
  <fix>3d</fix>
</trkpt>
<trkpt lat="33.810195" lon="-118.393867">
  <ele>-15.128</ele>
  <time>2026-09-02T22:13:15Z</time>
  <course>184.78</course>
  <speed>0.5200961449578337</speed>
  <fix>3d</fix>
</trkpt>
<trkpt lat="33.8101938" lon="-118.3938668">
  <ele>-14.76</ele>
  <time>2026-09-02T22:13:15Z</time>
  <course>359.44</course>
  <speed>0.5</speed>
  <fix>3d</fix>
</trkpt>
<trkpt lat="33.8101955" lon="-118.393867">
  <ele>-15.127</ele>
  <time>2026-09-02T22:13:15Z</time>
  <course>184.78</course>
  <speed>0.5200961449578337</speed>
  <fix>3d</fix>
</trkpt>
<trkpt lat="33.8101947" lon="-118.3938668">
  <ele>-14.76</ele>
  <time>2026-09-02T22:13:15Z</time>
  <course>359.41</course>
  <speed>0.5</speed>
  <fix>3d</fix>
</trkpt>
<trkpt lat="33.8101959" lon="-118.393867">
  <ele>-15.129</ele>
  <time>2026-09-02T22:13:15Z</time>
  <course>184.78</course>
  <speed>0.5200961449578337</speed>
  <fix>3d</fix>
</trkpt>
<trkpt lat="33.8101947" lon="-118.3938668">
  <ele>-14.76</ele>
  <time>2026-09-02T22:13:15Z</time>
  <course>359.41</course>
  <speed>0.5</speed>
  <fix>3d</fix>
</trkpt>
<trkpt lat="33.8101964" lon="-118.393867">
  <ele>-15.131</ele>
  <time>2026-09-02T22:13:15Z</time>
  <course>184.77</course>
  <speed>0.5200961449578337</speed>
  <fix>3d</fix>
</trkpt>
<trkpt lat="33.8101956" lon="-118.3938669">
  <ele>-14.76</ele>
  <time>2026-09-02T22:13:15Z</time>
  <course>359.38</course>
  <speed>0.5</speed>
  <fix>3d</fix>
</trkpt>
<trkpt lat="33.8101968" lon="-118.393867">
  <ele>-15.132</ele>
  <time>2026-09-02T22:13:15Z</time>
  <course>184.77</course>
  <speed>0.5200961449578337</speed>
  <fix>3d</fix>
</trkpt>
<trkpt lat="33.8101956" lon="-118.3938669">
  <ele>-14.76</ele>
  <time>2026-09-02T22:13:15Z</time>
  <course>359.38</course>
  <speed>0.5</speed>
  <fix>3d</fix>
</trkpt>
<trkpt lat="33.8101973" lon="-118.393867">
  <ele>-15.131</ele>
  <time>2026-09-02T22:13:15Z</time>
  <course>184.78</course>
  <speed>0.5200961449578337</speed>
  <fix>3d</fix>
</trkpt>
<trkpt lat="33.8101966" lon="-118.3938669">
  <ele>-14.76</ele>
  <time>2026-09-02T22:13:15Z</time>
  <course>359.44</course>
  <speed>0.5</speed>
  <fix>3d</fix>
</trkpt>
<trkpt lat="33.8101977" lon="-118.393867">
  <ele>-15.131</ele>
  <time>2026-09-02T22:13:15Z</time>
  <course>184.78</course>
  <speed>0.5200961449578337</speed>
  <fix>3d</fix>
</trkpt>
<trkpt lat="33.8101966" lon="-118.3938669">
  <ele>-14.76</ele>
  <time>2026-09-02T22:13:15Z</time>
  <course>359.44</course>
  <speed>0.5</speed>
  <fix>3d</fix>
</trkpt>
<trkpt lat="33.8101982" lon="-118.393867">
  <ele>-15.131</ele>
  <time>2026-09-02T22:13:15Z</time>
  <course>184.78</course>
  <speed>0.5200961449578337</speed>
  <fix>3d</fix>
</trkpt>
<trkpt lat="33.8101975" lon="-118.3938669">
  <ele>-14.76</ele>
  <time>2026-09-02T22:13:15Z</time>
  <course>359.6</course>
  <speed>0.5</speed>
  <fix>3d</fix>
</trkpt>
<trkpt lat="33.8101986" lon="-118.393867">
  <ele>-15.13</ele>
  <time>2026-09-02T22:13:15Z</time>
  <course>184.78</course>
  <speed>0.5200961449578337</speed>
  <fix>3d</fix>
</trkpt>
<trkpt lat="33.8101975" lon="-118.3938669">
  <ele>-14.76</ele>
  <time>2026-09-02T22:13:15Z</time>
  <course>359.6</course>
  <speed>0.5</speed>
  <fix>3d</fix>
</trkpt>
<trkpt lat="33.8101991" lon="-118.393867">
  <ele>-15.13</ele>
  <time>2026-09-02T22:13:15Z</time>
  <course>184.78</course>
  <speed>0.5200961449578337</speed>
  <fix>3d</fix>
</trkpt>
<trkpt lat="33.8101984" lon="-118.3938669">
  <ele>-14.76</ele>
  <time>2026-09-02T22:13:15Z</time>
  <course>359.78</course>
  <speed>0.5</speed>
  <fix>3d</fix>
</trkpt>
<trkpt lat="33.8101995" lon="-118.393867">
  <ele>-15.131</ele>
  <time>2026-09-02T22:13:15Z</time>
  <course>184.78</course>
  <speed>0.5200961449578337</speed>
  <fix>3d</fix>
</trkpt>
<trkpt lat="33.8101984" lon="-118.3938669">
  <ele>-14.76</ele>
  <time>2026-09-02T22:13:15Z</time>
  <course>359.78</course>
  <speed>0.5</speed>
  <fix>3d</fix>
</trkpt>
<trkpt lat="33.8102" lon="-118.393867">
  <ele>-15.13</ele>
  <time>2026-09-02T22:13:15Z</time>
  <course>184.78</course>
  <speed>0.510098029794274</speed>
  <fix>3d</fix>
</trkpt>
<trkpt lat="33.8101993" lon="-118.3938669">
  <ele>-14.75</ele>
  <time>2026-09-02T22:13:15Z</time>
  <course>359.94</course>
  <speed>0.5</speed>
  <fix>3d</fix>
</trkpt>
<trkpt lat="33.8102005" lon="-118.393867">
  <ele>-15.129</ele>
  <time>2026-09-02T22:13:15Z</time>
  <course>184.78</course>
  <speed>0.510098029794274</speed>
  <fix>3d</fix>
</trkpt>
<trkpt lat="33.8101993" lon="-118.3938669">
  <ele>-14.75</ele>
  <time>2026-09-02T22:13:15Z</time>
  <course>359.94</course>
  <speed>0.5</speed>
  <fix>3d</fix>
</trkpt>
<trkpt lat="33.8102009" lon="-118.393867">
  <ele>-15.128</ele>
  <time>2026-09-02T22:13:15Z</time>
  <course>184.78</course>
  <speed>0.510098029794274</speed>
  <fix>3d</fix>
</trkpt>
<trkpt lat="33.8102002" lon="-118.3938669">
  <ele>-14.75</ele>
  <time>2026-09-02T22:13:15Z</time>
  <course>0.05</course>
  <speed>0.49</speed>
  <fix>3d</fix>
</trkpt>
<trkpt lat="33.8102014" lon="-118.393867">
  <ele>-15.127</ele>
  <time>2026-09-02T22:13:15Z</time>
  <course>184.78</course>
  <speed>0.510098029794274</speed>
  <fix>3d</fix>
</trkpt>
<trkpt lat="33.8102002" lon="-118.3938669">
  <ele>-14.75</ele>
  <time>2026-09-02T22:13:15Z</time>
  <course>0.05</course>
  <speed>0.49</speed>
  <fix>3d</fix>
</trkpt>
<trkpt lat="33.8102018" lon="-118.393867">
  <ele>-15.127</ele>
  <time>2026-09-02T22:13:15Z</time>
  <course>184.78</course>
  <speed>0.510098029794274</speed>
  <fix>3d</fix>
</trkpt>
<trkpt lat="33.8102011" lon="-118.3938669">
  <ele>-14.75</ele>
  <time>2026-09-02T22:13:15Z</time>
  <course>0.12</course>
  <speed>0.49</speed>
  <fix>3d</fix>
</trkpt>
<trkpt lat="33.8102023" lon="-118.393867">
  <ele>-15.127</ele>
  <time>2026-09-02T22:13:15Z</time>
  <course>184.78</course>
  <speed>0.510098029794274</speed>
  <fix>3d</fix>
</trkpt>
<trkpt lat="33.8102011" lon="-118.3938669">
  <ele>-14.75</ele>
  <time>2026-09-02T22:13:15Z</time>
  <course>0.12</course>
  <speed>0.49</speed>
  <fix>3d</fix>
</trkpt>
<trkpt lat="33.8102027" lon="-118.393867">
  <ele>-15.128</ele>
  <time>2026-09-02T22:13:15Z</time>
  <course>184.78</course>
  <speed>0.510098029794274</speed>
  <fix>3d</fix>
</trkpt>
<trkpt lat="33.8102019" lon="-118.3938669">
  <ele>-14.75</ele>
  <time>2026-09-02T22:13:15Z</time>
  <course>0.17</course>
  <speed>0.49</speed>
  <fix>3d</fix>
</trkpt>
<trkpt lat="33.8102032" lon="-118.393867">
  <ele>-15.128</ele>
  <time>2026-09-02T22:13:15Z</time>
  <course>184.78</course>
  <speed>0.510098029794274</speed>
  <fix>3d</fix>
</trkpt>
<trkpt lat="33.8102019" lon="-118.3938669">
  <ele>-14.75</ele>
  <time>2026-09-02T22:13:15Z</time>
  <course>0.17</course>
  <speed>0.49</speed>
  <fix>3d</fix>
</trkpt>
<trkpt lat="33.8102036" lon="-118.393867">
  <ele>-15.128</ele>
  <time>2026-09-02T22:13:15Z</time>
  <course>184.78</course>
  <speed>0.510098029794274</speed>
  <fix>3d</fix>
</trkpt>
<trkpt lat="33.8102028" lon="-118.3938669">
  <ele>-14.75</ele>
  <time>2026-09-02T22:13:15Z</time>
  <course>0.21</course>
  <speed>0.49</speed>
  <fix>3d</fix>
</trkpt>
<trkpt lat="33.810204" lon="-118.393867">
  <ele>-15.128</ele>
  <time>2026-09-02T22:13:15Z</time>
  <course>184.78</course>
  <speed>0.5200961449578337</speed>
  <fix>3d</fix>
</trkpt>
<trkpt lat="33.8102028" lon="-118.3938669">
  <ele>-14.75</ele>
  <time>2026-09-02T22:13:15Z</time>
  <course>0.21</course>
  <speed>0.49</speed>
  <fix>3d</fix>
</trkpt>
<trkpt lat="33.8102045" lon="-118.393867">
  <ele>-15.129</ele>
  <time>2026-09-02T22:13:15Z</time>
  <course>184.78</course>
  <speed>0.5200961449578337</speed>
  <fix>3d</fix>
</trkpt>
<trkpt lat="33.8102037" lon="-118.3938669">
  <ele>-14.76</ele>
  <time>2026-09-02T22:13:15Z</time>
  <course>0.25</course>
  <speed>0.49</speed>
  <fix>3d</fix>
</trkpt>
<trkpt lat="33.8102049" lon="-118.393867">
  <ele>-15.128</ele>
  <time>2026-09-02T22:13:15Z</time>
  <course>184.78</course>
  <speed>0.5200961449578337</speed>
  <fix>3d</fix>
</trkpt>
<trkpt lat="33.8102037" lon="-118.3938669">
  <ele>-14.76</ele>
  <time>2026-09-02T22:13:15Z</time>
  <course>0.25</course>
  <speed>0.49</speed>
  <fix>3d</fix>
</trkpt>
<trkpt lat="33.8102054" lon="-118.393867">
  <ele>-15.128</ele>
  <time>2026-09-02T22:13:15Z</time>
  <course>184.78</course>
  <speed>0.5200961449578337</speed>
  <fix>3d</fix>
</trkpt>
<trkpt lat="33.8102046" lon="-118.3938669">
  <ele>-14.76</ele>
  <time>2026-09-02T22:13:15Z</time>
  <course>0.29</course>
  <speed>0.49</speed>
  <fix>3d</fix>
</trkpt>
<trkpt lat="33.8102058" lon="-118.393867">
  <ele>-15.129</ele>
  <time>2026-09-02T22:13:15Z</time>
  <course>184.78</course>
  <speed>0.5200961449578337</speed>
  <fix>3d</fix>
</trkpt>
<trkpt lat="33.8102046" lon="-118.3938669">
  <ele>-14.76</ele>
  <time>2026-09-02T22:13:15Z</time>
  <course>0.29</course>
  <speed>0.49</speed>
  <fix>3d</fix>
</trkpt>
<trkpt lat="33.8102063" lon="-118.393867">
  <ele>-15.13</ele>
  <time>2026-09-02T22:13:15Z</time>
  <course>184.78</course>
  <speed>0.5200961449578337</speed>
  <fix>3d</fix>
</trkpt>
<trkpt lat="33.8102055" lon="-118.3938669">
  <ele>-14.76</ele>
  <time>2026-09-02T22:13:15Z</time>
  <course>0.31</course>
  <speed>0.49</speed>
  <fix>3d</fix>
</trkpt>
<trkpt lat="33.8102067" lon="-118.393867">
  <ele>-15.13</ele>
  <time>2026-09-02T22:13:15Z</time>
  <course>184.78</course>
  <speed>0.5200961449578337</speed>
  <fix>3d</fix>
</trkpt>
<trkpt lat="33.8102055" lon="-118.3938669">
  <ele>-14.76</ele>
  <time>2026-09-02T22:13:15Z</time>
  <course>0.31</course>
  <speed>0.49</speed>
  <fix>3d</fix>
</trkpt>
<trkpt lat="33.8102072" lon="-118.393867">
  <ele>-15.13</ele>
  <time>2026-09-02T22:13:15Z</time>
  <course>184.78</course>
  <speed>0.5200961449578337</speed>
  <fix>3d</fix>
</trkpt>
<trkpt lat="33.8102064" lon="-118.3938669">
  <ele>-14.76</ele>
  <time>2026-09-02T22:13:15Z</time>
  <course>0.33</course>
  <speed>0.5</speed>
  <fix>3d</fix>
</trkpt>
<trkpt lat="33.8102076" lon="-118.393867">
  <ele>-15.131</ele>
  <time>2026-09-02T22:13:15Z</time>
  <course>184.77</course>
  <speed>0.5200961449578337</speed>
  <fix>3d</fix>
</trkpt>
<trkpt lat="33.8102064" lon="-118.3938669">
  <ele>-14.76</ele>
  <time>2026-09-02T22:13:15Z</time>
  <course>0.33</course>
  <speed>0.5</speed>
  <fix>3d</fix>
</trkpt>
<trkpt lat="33.8102081" lon="-118.393867">
  <ele>-15.131</ele>
  <time>2026-09-02T22:13:15Z</time>
  <course>184.77</course>
  <speed>0.5200961449578337</speed>
  <fix>3d</fix>
</trkpt>
<trkpt lat="33.8102073" lon="-118.3938669">
  <ele>-14.76</ele>
  <time>2026-09-02T22:13:15Z</time>
  <course>0.33</course>
  <speed>0.5</speed>
  <fix>3d</fix>
</trkpt>
<trkpt lat="33.8102085" lon="-118.393867">
  <ele>-15.131</ele>
  <time>2026-09-02T22:13:15Z</time>
  <course>184.77</course>
  <speed>0.5200961449578337</speed>
  <fix>3d</fix>
</trkpt>
<trkpt lat="33.8102073" lon="-118.3938669">
  <ele>-14.76</ele>
  <time>2026-09-02T22:13:15Z</time>
  <course>0.33</course>
  <speed>0.5</speed>
  <fix>3d</fix>
</trkpt>
<trkpt lat="33.810209" lon="-118.393867">
  <ele>-15.131</ele>
  <time>2026-09-02T22:13:15Z</time>
  <course>184.78</course>
  <speed>0.5200961449578337</speed>
  <fix>3d</fix>
</trkpt>
<trkpt lat="33.8102082" lon="-118.3938669">
  <ele>-14.76</ele>
  <time>2026-09-02T22:13:15Z</time>
  <course>0.34</course>
  <speed>0.5</speed>
  <fix>3d</fix>
</trkpt>
<trkpt lat="33.8102094" lon="-118.393867">
  <ele>-15.13</ele>
  <time>2026-09-02T22:13:15Z</time>
  <course>184.78</course>
  <speed>0.5200961449578337</speed>
  <fix>3d</fix>
</trkpt>
<trkpt lat="33.8102082" lon="-118.3938669">
  <ele>-14.76</ele>
  <time>2026-09-02T22:13:15Z</time>
  <course>0.34</course>
  <speed>0.5</speed>
  <fix>3d</fix>
</trkpt>
<trkpt lat="33.8102099" lon="-118.393867">
  <ele>-15.128</ele>
  <time>2026-09-02T22:13:15Z</time>
  <course>184.78</course>
  <speed>0.5200961449578337</speed>
  <fix>3d</fix>
</trkpt>
<trkpt lat="33.8102091" lon="-118.3938669">
  <ele>-14.76</ele>
  <time>2026-09-02T22:13:15Z</time>
  <course>0.38</course>
  <speed>0.5</speed>
  <fix>3d</fix>
</trkpt>
<trkpt lat="33.8102103" lon="-118.393867">
  <ele>-15.127</ele>
  <time>2026-09-02T22:13:15Z</time>
  <course>184.78</course>
  <speed>0.5200961449578337</speed>
  <fix>3d</fix>
</trkpt>
<trkpt lat="33.8102091" lon="-118.3938669">
  <ele>-14.76</ele>
  <time>2026-09-02T22:13:15Z</time>
  <course>0.38</course>
  <speed>0.5</speed>
  <fix>3d</fix>
</trkpt>
<trkpt lat="33.8102108" lon="-118.393867">
  <ele>-15.126</ele>
  <time>2026-09-02T22:13:15Z</time>
  <course>184.78</course>
  <speed>0.5200961449578337</speed>
  <fix>3d</fix>
</trkpt>
<trkpt lat="33.81021" lon="-118.3938669">
  <ele>-14.76</ele>
  <time>2026-09-02T22:13:15Z</time>
  <course>0.43</course>
  <speed>0.5</speed>
  <fix>3d</fix>
</trkpt>
<trkpt lat="33.8102112" lon="-118.393867">
  <ele>-15.126</ele>
  <time>2026-09-02T22:13:15Z</time>
  <course>184.78</course>
  <speed>0.5200961449578337</speed>
  <fix>3d</fix>
</trkpt>
<trkpt lat="33.81021" lon="-118.3938669">
  <ele>-14.76</ele>
  <time>2026-09-02T22:13:15Z</time>
  <course>0.43</course>
  <speed>0.5</speed>
  <fix>3d</fix>
</trkpt>
<trkpt lat="33.8102117" lon="-118.393867">
  <ele>-15.127</ele>
  <time>2026-09-02T22:13:15Z</time>
  <course>184.78</course>
  <speed>0.5200961449578337</speed>
  <fix>3d</fix>
</trkpt>
<trkpt lat="33.8102109" lon="-118.3938669">
  <ele>-14.76</ele>
  <time>2026-09-02T22:13:15Z</time>
  <course>0.47</course>
  <speed>0.5</speed>
  <fix>3d</fix>
</trkpt>
<trkpt lat="33.8102121" lon="-118.393867">
  <ele>-15.127</ele>
  <time>2026-09-02T22:13:15Z</time>
  <course>184.78</course>
  <speed>0.5200961449578337</speed>
  <fix>3d</fix>
</trkpt>
<trkpt lat="33.8102109" lon="-118.3938669">
  <ele>-14.76</ele>
  <time>2026-09-02T22:13:15Z</time>
  <course>0.47</course>
  <speed>0.5</speed>
  <fix>3d</fix>
</trkpt>
<trkpt lat="33.8102126" lon="-118.393867">
  <ele>-15.128</ele>
  <time>2026-09-02T22:13:15Z</time>
  <course>184.78</course>
  <speed>0.5200961449578337</speed>
  <fix>3d</fix>
</trkpt>
<trkpt lat="33.8102118" lon="-118.3938669">
  <ele>-14.76</ele>
  <time>2026-09-02T22:13:15Z</time>
  <course>0.49</course>
  <speed>0.5</speed>
  <fix>3d</fix>
</trkpt>
<trkpt lat="33.810213" lon="-118.393867">
  <ele>-15.129</ele>
  <time>2026-09-02T22:13:15Z</time>
  <course>184.78</course>
  <speed>0.5200961449578337</speed>
  <fix>3d</fix>
</trkpt>
<trkpt lat="33.8102118" lon="-118.3938669">
  <ele>-14.76</ele>
  <time>2026-09-02T22:13:15Z</time>
  <course>0.49</course>
  <speed>0.5</speed>
  <fix>3d</fix>
</trkpt>
<trkpt lat="33.8102135" lon="-118.393867">
  <ele>-15.128</ele>
  <time>2026-09-02T22:13:15Z</time>
  <course>184.78</course>
  <speed>0.5200961449578337</speed>
  <fix>3d</fix>
</trkpt>
<trkpt lat="33.8102127" lon="-118.3938669">
  <ele>-14.76</ele>
  <time>2026-09-02T22:13:15Z</time>
  <course>0.52</course>
  <speed>0.5</speed>
  <fix>3d</fix>
</trkpt>
<trkpt lat="33.8102139" lon="-118.393867">
  <ele>-15.127</ele>
  <time>2026-09-02T22:13:15Z</time>
  <course>184.78</course>
  <speed>0.5200961449578337</speed>
  <fix>3d</fix>
</trkpt>
<trkpt lat="33.8102127" lon="-118.3938669">
  <ele>-14.76</ele>
  <time>2026-09-02T22:13:15Z</time>
  <course>0.52</course>
  <speed>0.5</speed>
  <fix>3d</fix>
</trkpt>
<trkpt lat="33.8102144" lon="-118.393867">
  <ele>-15.125</ele>
  <time>2026-09-02T22:13:15Z</time>
  <course>184.78</course>
  <speed>0.5200961449578337</speed>
  <fix>3d</fix>
</trkpt>
<trkpt lat="33.8102136" lon="-118.3938669">
  <ele>-14.76</ele>
  <time>2026-09-02T22:13:15Z</time>
  <course>0.56</course>
  <speed>0.5</speed>
  <fix>3d</fix>
</trkpt>
<trkpt lat="33.8102148" lon="-118.393867">
  <ele>-15.125</ele>
  <time>2026-09-02T22:13:15Z</time>
  <course>184.77</course>
  <speed>0.5200961449578337</speed>
  <fix>3d</fix>
</trkpt>
<trkpt lat="33.8102136" lon="-118.3938669">
  <ele>-14.76</ele>
  <time>2026-09-02T22:13:15Z</time>
  <course>0.56</course>
  <speed>0.5</speed>
  <fix>3d</fix>
</trkpt>
<trkpt lat="33.8102153" lon="-118.393867">
  <ele>-15.126</ele>
  <time>2026-09-02T22:13:15Z</time>
  <course>184.78</course>
  <speed>0.5200961449578337</speed>
  <fix>3d</fix>
</trkpt>
<trkpt lat="33.8102145" lon="-118.3938669">
  <ele>-14.76</ele>
  <time>2026-09-02T22:13:15Z</time>
  <course>0.58</course>
  <speed>0.5</speed>
  <fix>3d</fix>
</trkpt>
<trkpt lat="33.8102157" lon="-118.393867">
  <ele>-15.129</ele>
  <time>2026-09-02T22:13:15Z</time>
  <course>184.78</course>
  <speed>0.5200961449578337</speed>
  <fix>3d</fix>
</trkpt>
<trkpt lat="33.8102145" lon="-118.3938669">
  <ele>-14.76</ele>
  <time>2026-09-02T22:13:15Z</time>
  <course>0.58</course>
  <speed>0.5</speed>
  <fix>3d</fix>
</trkpt>
<trkpt lat="33.8102162" lon="-118.393867">
  <ele>-15.131</ele>
  <time>2026-09-02T22:13:15Z</time>
  <course>184.78</course>
  <speed>0.5200961449578337</speed>
  <fix>3d</fix>
</trkpt>
<trkpt lat="33.8102154" lon="-118.3938669">
  <ele>-14.76</ele>
  <time>2026-09-02T22:13:15Z</time>
  <course>0.61</course>
  <speed>0.5</speed>
  <fix>3d</fix>
</trkpt>
<trkpt lat="33.8102166" lon="-118.393867">
  <ele>-15.134</ele>
  <time>2026-09-02T22:13:15Z</time>
  <course>184.78</course>
  <speed>0.5200961449578337</speed>
  <fix>3d</fix>
</trkpt>
<trkpt lat="33.8102154" lon="-118.3938669">
  <ele>-14.76</ele>
  <time>2026-09-02T22:13:15Z</time>
  <course>0.61</course>
  <speed>0.5</speed>
  <fix>3d</fix>
</trkpt>
<trkpt lat="33.8102171" lon="-118.393867">
  <ele>-15.136</ele>
  <time>2026-09-02T22:13:15Z</time>
  <course>184.78</course>
  <speed>0.5200961449578337</speed>
  <fix>3d</fix>
</trkpt>
<trkpt lat="33.8102163" lon="-118.3938668">
  <ele>-14.77</ele>
  <time>2026-09-02T22:13:15Z</time>
  <course>0.63</course>
  <speed>0.49</speed>
  <fix>3d</fix>
</trkpt>
<trkpt lat="33.8102175" lon="-118.393867">
  <ele>-15.138</ele>
  <time>2026-09-02T22:13:15Z</time>
  <course>184.78</course>
  <speed>0.5200961449578337</speed>
  <fix>3d</fix>
</trkpt>
<trkpt lat="33.8102163" lon="-118.3938668">
  <ele>-14.77</ele>
  <time>2026-09-02T22:13:15Z</time>
  <course>0.63</course>
  <speed>0.49</speed>
  <fix>3d</fix>
</trkpt>
<trkpt lat="33.810218" lon="-118.393867">
  <ele>-15.138</ele>
  <time>2026-09-02T22:13:15Z</time>
  <course>184.78</course>
  <speed>0.5200961449578337</speed>
  <fix>3d</fix>
</trkpt>
<trkpt lat="33.8102172" lon="-118.3938668">
  <ele>-14.77</ele>
  <time>2026-09-02T22:13:15Z</time>
  <course>0.58</course>
  <speed>0.49</speed>
  <fix>3d</fix>
</trkpt>
<trkpt lat="33.8102184" lon="-118.393867">
  <ele>-15.137</ele>
  <time>2026-09-02T22:13:15Z</time>
  <course>184.78</course>
  <speed>0.5200961449578337</speed>
  <fix>3d</fix>
</trkpt>
<trkpt lat="33.8102172" lon="-118.3938668">
  <ele>-14.77</ele>
  <time>2026-09-02T22:13:15Z</time>
  <course>0.58</course>
  <speed>0.49</speed>
  <fix>3d</fix>
</trkpt>
<trkpt lat="33.8102189" lon="-118.393867">
  <ele>-15.136</ele>
  <time>2026-09-02T22:13:15Z</time>
  <course>184.78</course>
  <speed>0.5200961449578337</speed>
  <fix>3d</fix>
</trkpt>
<trkpt lat="33.8102181" lon="-118.3938668">
  <ele>-14.77</ele>
  <time>2026-09-02T22:13:15Z</time>
  <course>0.42</course>
  <speed>0.49</speed>
  <fix>3d</fix>
</trkpt>
<trkpt lat="33.8102193" lon="-118.393867">
  <ele>-15.135</ele>
  <time>2026-09-02T22:13:15Z</time>
  <course>184.77</course>
  <speed>0.5200961449578337</speed>
  <fix>3d</fix>
</trkpt>
<trkpt lat="33.8102181" lon="-118.3938668">
  <ele>-14.77</ele>
  <time>2026-09-02T22:13:15Z</time>
  <course>0.42</course>
  <speed>0.49</speed>
  <fix>3d</fix>
</trkpt>
<trkpt lat="33.8102198" lon="-118.393867">
  <ele>-15.133</ele>
  <time>2026-09-02T22:13:15Z</time>
  <course>184.78</course>
  <speed>0.5200961449578337</speed>
  <fix>3d</fix>
</trkpt>
<trkpt lat="33.810219" lon="-118.3938668">
  <ele>-14.76</ele>
  <time>2026-09-02T22:13:15Z</time>
  <course>0.25</course>
  <speed>0.49</speed>
  <fix>3d</fix>
</trkpt>
<trkpt lat="33.8102202" lon="-118.393867">
  <ele>-15.13</ele>
  <time>2026-09-02T22:13:15Z</time>
  <course>184.78</course>
  <speed>0.5200961449578337</speed>
  <fix>3d</fix>
</trkpt>
<trkpt lat="33.810219" lon="-118.3938668">
  <ele>-14.76</ele>
  <time>2026-09-02T22:13:15Z</time>
  <course>0.25</course>
  <speed>0.49</speed>
  <fix>3d</fix>
</trkpt>
<trkpt lat="33.8102207" lon="-118.393867">
  <ele>-15.129</ele>
  <time>2026-09-02T22:13:15Z</time>
  <course>184.78</course>
  <speed>0.5200961449578337</speed>
  <fix>3d</fix>
</trkpt>
<trkpt lat="33.8102199" lon="-118.3938668">
  <ele>-14.76</ele>
  <time>2026-09-02T22:13:15Z</time>
  <course>0.11</course>
  <speed>0.49</speed>
  <fix>3d</fix>
</trkpt>
<trkpt lat="33.8102211" lon="-118.393867">
  <ele>-15.127</ele>
  <time>2026-09-02T22:13:15Z</time>
  <course>184.78</course>
  <speed>0.5200961449578337</speed>
  <fix>3d</fix>
</trkpt>
<trkpt lat="33.8102199" lon="-118.3938668">
  <ele>-14.76</ele>
  <time>2026-09-02T22:13:15Z</time>
  <course>0.11</course>
  <speed>0.49</speed>
  <fix>3d</fix>
</trkpt>
<trkpt lat="33.8102216" lon="-118.393867">
  <ele>-15.126</ele>
  <time>2026-09-02T22:13:15Z</time>
  <course>184.78</course>
  <speed>0.5200961449578337</speed>
  <fix>3d</fix>
</trkpt>
<trkpt lat="33.8102208" lon="-118.3938668">
  <ele>-14.76</ele>
  <time>2026-09-02T22:13:15Z</time>
  <course>0.0</course>
  <speed>0.49</speed>
  <fix>3d</fix>
</trkpt>
<trkpt lat="33.810222" lon="-118.393867">
  <ele>-15.126</ele>
  <time>2026-09-02T22:13:15Z</time>
  <course>184.78</course>
  <speed>0.5200961449578337</speed>
  <fix>3d</fix>
</trkpt>
<trkpt lat="33.8102208" lon="-118.3938668">
  <ele>-14.76</ele>
  <time>2026-09-02T22:13:15Z</time>
  <course>0.0</course>
  <speed>0.49</speed>
  <fix>3d</fix>
</trkpt>
<trkpt lat="33.8102225" lon="-118.393867">
  <ele>-15.128</ele>
  <time>2026-09-02T22:13:15Z</time>
  <course>184.78</course>
  <speed>0.5200961449578337</speed>
  <fix>3d</fix>
</trkpt>
<trkpt lat="33.8102217" lon="-118.3938668">
  <ele>-14.76</ele>
  <time>2026-09-02T22:13:15Z</time>
  <course>359.94</course>
  <speed>0.49</speed>
  <fix>3d</fix>
</trkpt>
<trkpt lat="33.8102229" lon="-118.393867">
  <ele>-15.129</ele>
  <time>2026-09-02T22:13:15Z</time>
  <course>184.78</course>
  <speed>0.5200961449578337</speed>
  <fix>3d</fix>
</trkpt>
<trkpt lat="33.8102217" lon="-118.3938668">
  <ele>-14.76</ele>
  <time>2026-09-02T22:13:15Z</time>
  <course>359.94</course>
  <speed>0.49</speed>
  <fix>3d</fix>
</trkpt>
<trkpt lat="33.8102234" lon="-118.393867">
  <ele>-15.131</ele>
  <time>2026-09-02T22:13:15Z</time>
  <course>184.78</course>
  <speed>0.5200961449578337</speed>
  <fix>3d</fix>
</trkpt>
<trkpt lat="33.8102226" lon="-118.3938668">
  <ele>-14.76</ele>
  <time>2026-09-02T22:13:15Z</time>
  <course>359.91</course>
  <speed>0.49</speed>
  <fix>3d</fix>
</trkpt>
<trkpt lat="33.8102238" lon="-118.393867">
  <ele>-15.131</ele>
  <time>2026-09-02T22:13:15Z</time>
  <course>184.78</course>
  <speed>0.5200961449578337</speed>
  <fix>3d</fix>
</trkpt>
<trkpt lat="33.8102226" lon="-118.3938668">
  <ele>-14.76</ele>
  <time>2026-09-02T22:13:15Z</time>
  <course>359.91</course>
  <speed>0.49</speed>
  <fix>3d</fix>
</trkpt>
<trkpt lat="33.8102243" lon="-118.393867">
  <ele>-15.131</ele>
  <time>2026-09-02T22:13:15Z</time>
  <course>184.78</course>
  <speed>0.5200961449578337</speed>
  <fix>3d</fix>
</trkpt>
<trkpt lat="33.8102235" lon="-118.3938668">
  <ele>-14.76</ele>
  <time>2026-09-02T22:13:15Z</time>
  <course>359.89</course>
  <speed>0.49</speed>
  <fix>3d</fix>
</trkpt>
<trkpt lat="33.8102247" lon="-118.393867">
  <ele>-15.131</ele>
  <time>2026-09-02T22:13:16Z</time>
  <course>184.78</course>
  <speed>0.5200961449578337</speed>
  <fix>3d</fix>
</trkpt>
<trkpt lat="33.8102235" lon="-118.3938668">
  <ele>-14.76</ele>
  <time>2026-09-02T22:13:16Z</time>
  <course>359.89</course>
  <speed>0.49</speed>
  <fix>3d</fix>
</trkpt>
<trkpt lat="33.8102252" lon="-118.393867">
  <ele>-15.13</ele>
  <time>2026-09-02T22:13:16Z</time>
  <course>184.78</course>
  <speed>0.5200961449578337</speed>
  <fix>3d</fix>
</trkpt>
<trkpt lat="33.8102244" lon="-118.3938668">
  <ele>-14.76</ele>
  <time>2026-09-02T22:13:16Z</time>
  <course>359.86</course>
  <speed>0.49</speed>
  <fix>3d</fix>
</trkpt>
<trkpt lat="33.8102256" lon="-118.393867">
  <ele>-15.13</ele>
  <time>2026-09-02T22:13:16Z</time>
  <course>184.78</course>
  <speed>0.5200961449578337</speed>
  <fix>3d</fix>
</trkpt>
<trkpt lat="33.8102244" lon="-118.3938668">
  <ele>-14.76</ele>
  <time>2026-09-02T22:13:16Z</time>
  <course>359.86</course>
  <speed>0.49</speed>
  <fix>3d</fix>
</trkpt>
<trkpt lat="33.8102261" lon="-118.393867">
  <ele>-15.131</ele>
  <time>2026-09-02T22:13:16Z</time>
  <course>184.78</course>
  <speed>0.5200961449578337</speed>
  <fix>3d</fix>
</trkpt>
<trkpt lat="33.8102253" lon="-118.3938668">
  <ele>-14.75</ele>
  <time>2026-09-02T22:13:16Z</time>
  <course>359.84</course>
  <speed>0.49</speed>
  <fix>3d</fix>
</trkpt>
<trkpt lat="33.8102265" lon="-118.393867">
  <ele>-15.131</ele>
  <time>2026-09-02T22:13:16Z</time>
  <course>184.77</course>
  <speed>0.5200961449578337</speed>
  <fix>3d</fix>
</trkpt>
<trkpt lat="33.8102253" lon="-118.3938668">
  <ele>-14.75</ele>
  <time>2026-09-02T22:13:16Z</time>
  <course>359.84</course>
  <speed>0.49</speed>
  <fix>3d</fix>
</trkpt>
<trkpt lat="33.810227" lon="-118.393867">
  <ele>-15.129</ele>
  <time>2026-09-02T22:13:16Z</time>
  <course>184.78</course>
  <speed>0.5200961449578337</speed>
  <fix>3d</fix>
</trkpt>
<trkpt lat="33.8102262" lon="-118.3938668">
  <ele>-14.75</ele>
  <time>2026-09-02T22:13:16Z</time>
  <course>359.82</course>
  <speed>0.49</speed>
  <fix>3d</fix>
</trkpt>
<trkpt lat="33.8102274" lon="-118.393867">
  <ele>-15.127</ele>
  <time>2026-09-02T22:13:16Z</time>
  <course>184.78</course>
  <speed>0.5200961449578337</speed>
  <fix>3d</fix>
</trkpt>
<trkpt lat="33.8102262" lon="-118.3938668">
  <ele>-14.75</ele>
  <time>2026-09-02T22:13:16Z</time>
  <course>359.82</course>
  <speed>0.49</speed>
  <fix>3d</fix>
</trkpt>
<trkpt lat="33.8102279" lon="-118.393867">
  <ele>-15.126</ele>
  <time>2026-09-02T22:13:16Z</time>
  <course>184.78</course>
  <speed>0.5200961449578337</speed>
  <fix>3d</fix>
</trkpt>
<trkpt lat="33.8102271" lon="-118.3938668">
  <ele>-14.75</ele>
  <time>2026-09-02T22:13:16Z</time>
  <course>359.8</course>
  <speed>0.49</speed>
  <fix>3d</fix>
</trkpt>
<trkpt lat="33.8102283" lon="-118.393867">
  <ele>-15.125</ele>
  <time>2026-09-02T22:13:16Z</time>
  <course>184.78</course>
  <speed>0.5200961449578337</speed>
  <fix>3d</fix>
</trkpt>
<trkpt lat="33.8102271" lon="-118.3938668">
  <ele>-14.75</ele>
  <time>2026-09-02T22:13:16Z</time>
  <course>359.8</course>
  <speed>0.49</speed>
  <fix>3d</fix>
</trkpt>
<trkpt lat="33.8102288" lon="-118.393867">
  <ele>-15.124</ele>
  <time>2026-09-02T22:13:16Z</time>
  <course>184.78</course>
  <speed>0.5200961449578337</speed>
  <fix>3d</fix>
</trkpt>
<trkpt lat="33.8102279" lon="-118.3938668">
  <ele>-14.75</ele>
  <time>2026-09-02T22:13:16Z</time>
  <course>359.79</course>
  <speed>0.49</speed>
  <fix>3d</fix>
</trkpt>
<trkpt lat="33.8102292" lon="-118.393867">
  <ele>-15.125</ele>
  <time>2026-09-02T22:13:16Z</time>
  <course>184.78</course>
  <speed>0.5200961449578337</speed>
  <fix>3d</fix>
</trkpt>
<trkpt lat="33.8102279" lon="-118.3938668">
  <ele>-14.75</ele>
  <time>2026-09-02T22:13:16Z</time>
  <course>359.79</course>
  <speed>0.49</speed>
  <fix>3d</fix>
</trkpt>
<trkpt lat="33.8102297" lon="-118.393867">
  <ele>-15.125</ele>
  <time>2026-09-02T22:13:16Z</time>
  <course>184.78</course>
  <speed>0.5200961449578337</speed>
  <fix>3d</fix>
</trkpt>
<trkpt lat="33.8102288" lon="-118.3938668">
  <ele>-14.75</ele>
  <time>2026-09-02T22:13:16Z</time>
  <course>359.77</course>
  <speed>0.49</speed>
  <fix>3d</fix>
</trkpt>
<trkpt lat="33.8102301" lon="-118.393867">
  <ele>-15.125</ele>
  <time>2026-09-02T22:13:16Z</time>
  <course>184.78</course>
  <speed>0.5200961449578337</speed>
  <fix>3d</fix>
</trkpt>
<trkpt lat="33.8102288" lon="-118.3938668">
  <ele>-14.75</ele>
  <time>2026-09-02T22:13:16Z</time>
  <course>359.77</course>
  <speed>0.49</speed>
  <fix>3d</fix>
</trkpt>
<trkpt lat="33.8102305" lon="-118.393867">
  <ele>-15.126</ele>
  <time>2026-09-02T22:13:16Z</time>
  <course>184.78</course>
  <speed>0.5200961449578337</speed>
  <fix>3d</fix>
</trkpt>
<trkpt lat="33.8102297" lon="-118.3938668">
  <ele>-14.75</ele>
  <time>2026-09-02T22:13:16Z</time>
  <course>359.75</course>
  <speed>0.49</speed>
  <fix>3d</fix>
</trkpt>
<trkpt lat="33.810231" lon="-118.393867">
  <ele>-15.128</ele>
  <time>2026-09-02T22:13:16Z</time>
  <course>184.78</course>
  <speed>0.5200961449578337</speed>
  <fix>3d</fix>
</trkpt>
<trkpt lat="33.8102297" lon="-118.3938668">
  <ele>-14.75</ele>
  <time>2026-09-02T22:13:16Z</time>
  <course>359.75</course>
  <speed>0.49</speed>
  <fix>3d</fix>
</trkpt>
<trkpt lat="33.8102314" lon="-118.393867">
  <ele>-15.131</ele>
  <time>2026-09-02T22:13:16Z</time>
  <course>184.78</course>
  <speed>0.5200961449578337</speed>
  <fix>3d</fix>
</trkpt>
<trkpt lat="33.8102306" lon="-118.3938668">
  <ele>-14.76</ele>
  <time>2026-09-02T22:13:16Z</time>
  <course>359.72</course>
  <speed>0.5</speed>
  <fix>3d</fix>
</trkpt>
<trkpt lat="33.8102319" lon="-118.393867">
  <ele>-15.132</ele>
  <time>2026-09-02T22:13:16Z</time>
  <course>184.78</course>
  <speed>0.5200961449578337</speed>
  <fix>3d</fix>
</trkpt>
<trkpt lat="33.8102306" lon="-118.3938668">
  <ele>-14.76</ele>
  <time>2026-09-02T22:13:16Z</time>
  <course>359.72</course>
  <speed>0.5</speed>
  <fix>3d</fix>
</trkpt>
<trkpt lat="33.8102323" lon="-118.393867">
  <ele>-15.131</ele>
  <time>2026-09-02T22:13:16Z</time>
  <course>184.78</course>
  <speed>0.5200961449578337</speed>
  <fix>3d</fix>
</trkpt>
<trkpt lat="33.8102315" lon="-118.3938668">
  <ele>-14.76</ele>
  <time>2026-09-02T22:13:16Z</time>
  <course>359.67</course>
  <speed>0.5</speed>
  <fix>3d</fix>
</trkpt>
<trkpt lat="33.8102328" lon="-118.393867">
  <ele>-15.13</ele>
  <time>2026-09-02T22:13:16Z</time>
  <course>184.78</course>
  <speed>0.5200961449578337</speed>
  <fix>3d</fix>
</trkpt>
<trkpt lat="33.8102315" lon="-118.3938668">
  <ele>-14.76</ele>
  <time>2026-09-02T22:13:16Z</time>
  <course>359.67</course>
  <speed>0.5</speed>
  <fix>3d</fix>
</trkpt>
<trkpt lat="33.8102332" lon="-118.393867">
  <ele>-15.129</ele>
  <time>2026-09-02T22:13:16Z</time>
  <course>184.78</course>
  <speed>0.5200961449578337</speed>
  <fix>3d</fix>
</trkpt>
<trkpt lat="33.8102324" lon="-118.3938668">
  <ele>-14.76</ele>
  <time>2026-09-02T22:13:16Z</time>
  <course>359.63</course>
  <speed>0.5</speed>
  <fix>3d</fix>
</trkpt>
<trkpt lat="33.8102337" lon="-118.393867">
  <ele>-15.128</ele>
  <time>2026-09-02T22:13:16Z</time>
  <course>184.78</course>
  <speed>0.5200961449578337</speed>
  <fix>3d</fix>
</trkpt>
<trkpt lat="33.8102324" lon="-118.3938668">
  <ele>-14.76</ele>
  <time>2026-09-02T22:13:16Z</time>
  <course>359.63</course>
  <speed>0.5</speed>
  <fix>3d</fix>
</trkpt>
<trkpt lat="33.8102341" lon="-118.393867">
  <ele>-15.128</ele>
  <time>2026-09-02T22:13:16Z</time>
  <course>184.78</course>
  <speed>0.5200961449578337</speed>
  <fix>3d</fix>
</trkpt>
<trkpt lat="33.8102334" lon="-118.3938668">
  <ele>-14.76</ele>
  <time>2026-09-02T22:13:16Z</time>
  <course>359.61</course>
  <speed>0.5</speed>
  <fix>3d</fix>
</trkpt>
<trkpt lat="33.8102346" lon="-118.393867">
  <ele>-15.127</ele>
  <time>2026-09-02T22:13:16Z</time>
  <course>184.78</course>
  <speed>0.5200961449578337</speed>
  <fix>3d</fix>
</trkpt>
<trkpt lat="33.8102334" lon="-118.3938668">
  <ele>-14.76</ele>
  <time>2026-09-02T22:13:16Z</time>
  <course>359.61</course>
  <speed>0.5</speed>
  <fix>3d</fix>
</trkpt>
<trkpt lat="33.810235" lon="-118.393867">
  <ele>-15.127</ele>
  <time>2026-09-02T22:13:16Z</time>
  <course>184.78</course>
  <speed>0.5200961449578337</speed>
  <fix>3d</fix>
</trkpt>
<trkpt lat="33.8102343" lon="-118.3938668">
  <ele>-14.76</ele>
  <time>2026-09-02T22:13:16Z</time>
  <course>359.62</course>
  <speed>0.5</speed>
  <fix>3d</fix>
</trkpt>
<trkpt lat="33.8102355" lon="-118.393867">
  <ele>-15.128</ele>
  <time>2026-09-02T22:13:16Z</time>
  <course>184.78</course>
  <speed>0.5200961449578337</speed>
  <fix>3d</fix>
</trkpt>
<trkpt lat="33.8102343" lon="-118.3938668">
  <ele>-14.76</ele>
  <time>2026-09-02T22:13:16Z</time>
  <course>359.62</course>
  <speed>0.5</speed>
  <fix>3d</fix>
</trkpt>
<trkpt lat="33.8102359" lon="-118.393867">
  <ele>-15.129</ele>
  <time>2026-09-02T22:13:16Z</time>
  <course>184.78</course>
  <speed>0.5200961449578337</speed>
  <fix>3d</fix>
</trkpt>
<trkpt lat="33.8102352" lon="-118.3938668">
  <ele>-14.76</ele>
  <time>2026-09-02T22:13:16Z</time>
  <course>359.61</course>
  <speed>0.5</speed>
  <fix>3d</fix>
</trkpt>
<trkpt lat="33.8102364" lon="-118.393867">
  <ele>-15.13</ele>
  <time>2026-09-02T22:13:16Z</time>
  <course>184.78</course>
  <speed>0.5200961449578337</speed>
  <fix>3d</fix>
</trkpt>
<trkpt lat="33.8102352" lon="-118.3938668">
  <ele>-14.76</ele>
  <time>2026-09-02T22:13:16Z</time>
  <course>359.61</course>
  <speed>0.5</speed>
  <fix>3d</fix>
</trkpt>
<trkpt lat="33.8102369" lon="-118.393867">
  <ele>-15.131</ele>
  <time>2026-09-02T22:13:16Z</time>
  <course>184.78</course>
  <speed>0.5200961449578337</speed>
  <fix>3d</fix>
</trkpt>
<trkpt lat="33.8102361" lon="-118.3938668">
  <ele>-14.77</ele>
  <time>2026-09-02T22:13:16Z</time>
  <course>359.58</course>
  <speed>0.5</speed>
  <fix>3d</fix>
</trkpt>
<trkpt lat="33.8102373" lon="-118.393867">
  <ele>-15.131</ele>
  <time>2026-09-02T22:13:16Z</time>
  <course>184.78</course>
  <speed>0.5200961449578337</speed>
  <fix>3d</fix>
</trkpt>
<trkpt lat="33.8102361" lon="-118.3938668">
  <ele>-14.77</ele>
  <time>2026-09-02T22:13:16Z</time>
  <course>359.58</course>
  <speed>0.5</speed>
  <fix>3d</fix>
</trkpt>
<trkpt lat="33.8102378" lon="-118.393867">
  <ele>-15.13</ele>
  <time>2026-09-02T22:13:16Z</time>
  <course>184.77</course>
  <speed>0.5200961449578337</speed>
  <fix>3d</fix>
</trkpt>
<trkpt lat="33.810237" lon="-118.3938668">
  <ele>-14.77</ele>
  <time>2026-09-02T22:13:16Z</time>
  <course>359.56</course>
  <speed>0.49</speed>
  <fix>3d</fix>
</trkpt>
<trkpt lat="33.8102382" lon="-118.393867">
  <ele>-15.13</ele>
  <time>2026-09-02T22:13:16Z</time>
  <course>184.77</course>
  <speed>0.5200961449578337</speed>
  <fix>3d</fix>
</trkpt>
<trkpt lat="33.810237" lon="-118.3938668">
  <ele>-14.77</ele>
  <time>2026-09-02T22:13:16Z</time>
  <course>359.56</course>
  <speed>0.49</speed>
  <fix>3d</fix>
</trkpt>
<trkpt lat="33.8102387" lon="-118.393867">
  <ele>-15.13</ele>
  <time>2026-09-02T22:13:16Z</time>
  <course>184.78</course>
  <speed>0.5200961449578337</speed>
  <fix>3d</fix>
</trkpt>
<trkpt lat="33.8102379" lon="-118.3938668">
  <ele>-14.77</ele>
  <time>2026-09-02T22:13:16Z</time>
  <course>359.56</course>
  <speed>0.49</speed>
  <fix>3d</fix>
</trkpt>
<trkpt lat="33.8102391" lon="-118.393867">
  <ele>-15.131</ele>
  <time>2026-09-02T22:13:16Z</time>
  <course>184.78</course>
  <speed>0.5200961449578337</speed>
  <fix>3d</fix>
</trkpt>
<trkpt lat="33.8102379" lon="-118.3938668">
  <ele>-14.77</ele>
  <time>2026-09-02T22:13:16Z</time>
  <course>359.56</course>
  <speed>0.49</speed>
  <fix>3d</fix>
</trkpt>
<trkpt lat="33.8102396" lon="-118.393867">
  <ele>-15.133</ele>
  <time>2026-09-02T22:13:16Z</time>
  <course>184.78</course>
  <speed>0.5200961449578337</speed>
  <fix>3d</fix>
</trkpt>
<trkpt lat="33.8102387" lon="-118.3938668">
  <ele>-14.77</ele>
  <time>2026-09-02T22:13:16Z</time>
  <course>359.56</course>
  <speed>0.49</speed>
  <fix>3d</fix>
</trkpt>
<trkpt lat="33.81024" lon="-118.393867">
  <ele>-15.134</ele>
  <time>2026-09-02T22:13:16Z</time>
  <course>184.78</course>
  <speed>0.5200961449578337</speed>
  <fix>3d</fix>
</trkpt>
<trkpt lat="33.8102387" lon="-118.3938668">
  <ele>-14.77</ele>
  <time>2026-09-02T22:13:16Z</time>
  <course>359.56</course>
  <speed>0.49</speed>
  <fix>3d</fix>
</trkpt>
<trkpt lat="33.8102404" lon="-118.393867">
  <ele>-15.134</ele>
  <time>2026-09-02T22:13:16Z</time>
  <course>184.78</course>
  <speed>0.5200961449578337</speed>
  <fix>3d</fix>
</trkpt>
<trkpt lat="33.8102396" lon="-118.3938668">
  <ele>-14.77</ele>
  <time>2026-09-02T22:13:16Z</time>
  <course>359.51</course>
  <speed>0.49</speed>
  <fix>3d</fix>
</trkpt>
<trkpt lat="33.8102409" lon="-118.393867">
  <ele>-15.133</ele>
  <time>2026-09-02T22:13:16Z</time>
  <course>184.78</course>
  <speed>0.5200961449578337</speed>
  <fix>3d</fix>
</trkpt>
<trkpt lat="33.8102396" lon="-118.3938668">
  <ele>-14.77</ele>
  <time>2026-09-02T22:13:16Z</time>
  <course>359.51</course>
  <speed>0.49</speed>
  <fix>3d</fix>
</trkpt>
<trkpt lat="33.8102413" lon="-118.393867">
  <ele>-15.133</ele>
  <time>2026-09-02T22:13:16Z</time>
  <course>184.78</course>
  <speed>0.5200961449578337</speed>
  <fix>3d</fix>
</trkpt>
<trkpt lat="33.8102405" lon="-118.3938668">
  <ele>-14.77</ele>
  <time>2026-09-02T22:13:16Z</time>
  <course>359.47</course>
  <speed>0.49</speed>
  <fix>3d</fix>
</trkpt>
<trkpt lat="33.8102418" lon="-118.393867">
  <ele>-15.133</ele>
  <time>2026-09-02T22:13:16Z</time>
  <course>184.78</course>
  <speed>0.5200961449578337</speed>
  <fix>3d</fix>
</trkpt>
<trkpt lat="33.8102405" lon="-118.3938668">
  <ele>-14.77</ele>
  <time>2026-09-02T22:13:16Z</time>
  <course>359.47</course>
  <speed>0.49</speed>
  <fix>3d</fix>
</trkpt>
<trkpt lat="33.8102422" lon="-118.393867">
  <ele>-15.133</ele>
  <time>2026-09-02T22:13:16Z</time>
  <course>184.78</course>
  <speed>0.5200961449578337</speed>
  <fix>3d</fix>
</trkpt>
<trkpt lat="33.8102414" lon="-118.3938668">
  <ele>-14.76</ele>
  <time>2026-09-02T22:13:16Z</time>
  <course>359.46</course>
  <speed>0.49</speed>
  <fix>3d</fix>
</trkpt>
<trkpt lat="33.8102427" lon="-118.393867">
  <ele>-15.132</ele>
  <time>2026-09-02T22:13:16Z</time>
  <course>184.78</course>
  <speed>0.5200961449578337</speed>
  <fix>3d</fix>
</trkpt>
<trkpt lat="33.8102414" lon="-118.3938668">
  <ele>-14.76</ele>
  <time>2026-09-02T22:13:16Z</time>
  <course>359.46</course>
  <speed>0.49</speed>
  <fix>3d</fix>
</trkpt>
<trkpt lat="33.8102431" lon="-118.393867">
  <ele>-15.13</ele>
  <time>2026-09-02T22:13:16Z</time>
  <course>184.78</course>
  <speed>0.5200961449578337</speed>
  <fix>3d</fix>
</trkpt>
<trkpt lat="33.8102423" lon="-118.3938668">
  <ele>-14.76</ele>
  <time>2026-09-02T22:13:16Z</time>
  <course>359.45</course>
  <speed>0.5</speed>
  <fix>3d</fix>
</trkpt>
<trkpt lat="33.8102436" lon="-118.393867">
  <ele>-15.128</ele>
  <time>2026-09-02T22:13:16Z</time>
  <course>184.78</course>
  <speed>0.5200961449578337</speed>
  <fix>3d</fix>
</trkpt>
<trkpt lat="33.8102423" lon="-118.3938668">
  <ele>-14.76</ele>
  <time>2026-09-02T22:13:16Z</time>
  <course>359.45</course>
  <speed>0.5</speed>
  <fix>3d</fix>
</trkpt>
<trkpt lat="33.810244" lon="-118.393867">
  <ele>-15.126</ele>
  <time>2026-09-02T22:13:16Z</time>
  <course>184.78</course>
  <speed>0.5200961449578337</speed>
  <fix>3d</fix>
</trkpt>
<trkpt lat="33.8102432" lon="-118.3938669">
  <ele>-14.76</ele>
  <time>2026-09-02T22:13:16Z</time>
  <course>359.43</course>
  <speed>0.5</speed>
  <fix>3d</fix>
</trkpt>
<trkpt lat="33.8102445" lon="-118.393867">
  <ele>-15.125</ele>
  <time>2026-09-02T22:13:16Z</time>
  <course>184.78</course>
  <speed>0.5200961449578337</speed>
  <fix>3d</fix>
</trkpt>
<trkpt lat="33.8102432" lon="-118.3938669">
  <ele>-14.76</ele>
  <time>2026-09-02T22:13:16Z</time>
  <course>359.43</course>
  <speed>0.5</speed>
  <fix>3d</fix>
</trkpt>
<trkpt lat="33.8102449" lon="-118.393867">
  <ele>-15.126</ele>
  <time>2026-09-02T22:13:16Z</time>
  <course>184.78</course>
  <speed>0.5200961449578337</speed>
  <fix>3d</fix>
</trkpt>
<trkpt lat="33.8102441" lon="-118.3938669">
  <ele>-14.76</ele>
  <time>2026-09-02T22:13:16Z</time>
  <course>359.47</course>
  <speed>0.5</speed>
  <fix>3d</fix>
</trkpt>
<trkpt lat="33.8102454" lon="-118.393867">
  <ele>-15.128</ele>
  <time>2026-09-02T22:13:16Z</time>
  <course>184.78</course>
  <speed>0.5200961449578337</speed>
  <fix>3d</fix>
</trkpt>
<trkpt lat="33.8102441" lon="-118.3938669">
  <ele>-14.76</ele>
  <time>2026-09-02T22:13:16Z</time>
  <course>359.47</course>
  <speed>0.5</speed>
  <fix>3d</fix>
</trkpt>
<trkpt lat="33.8102458" lon="-118.393867">
  <ele>-15.13</ele>
  <time>2026-09-02T22:13:16Z</time>
  <course>184.78</course>
  <speed>0.5200961449578337</speed>
  <fix>3d</fix>
</trkpt>
<trkpt lat="33.810245" lon="-118.3938669">
  <ele>-14.76</ele>
  <time>2026-09-02T22:13:16Z</time>
  <course>359.6</course>
  <speed>0.5</speed>
  <fix>3d</fix>
</trkpt>
<trkpt lat="33.8102463" lon="-118.393867">
  <ele>-15.132</ele>
  <time>2026-09-02T22:13:16Z</time>
  <course>184.78</course>
  <speed>0.5200961449578337</speed>
  <fix>3d</fix>
</trkpt>
<trkpt lat="33.810245" lon="-118.3938669">
  <ele>-14.76</ele>
  <time>2026-09-02T22:13:16Z</time>
  <course>359.6</course>
  <speed>0.5</speed>
  <fix>3d</fix>
</trkpt>
<trkpt lat="33.8102467" lon="-118.393867">
  <ele>-15.132</ele>
  <time>2026-09-02T22:13:16Z</time>
  <course>184.78</course>
  <speed>0.5200961449578337</speed>
  <fix>3d</fix>
</trkpt>
<trkpt lat="33.8102459" lon="-118.3938669">
  <ele>-14.76</ele>
  <time>2026-09-02T22:13:16Z</time>
  <course>359.76</course>
  <speed>0.5</speed>
  <fix>3d</fix>
</trkpt>
<trkpt lat="33.8102472" lon="-118.393867">
  <ele>-15.132</ele>
  <time>2026-09-02T22:13:16Z</time>
  <course>184.78</course>
  <speed>0.5200961449578337</speed>
  <fix>3d</fix>
</trkpt>
<trkpt lat="33.8102459" lon="-118.3938669">
  <ele>-14.76</ele>
  <time>2026-09-02T22:13:16Z</time>
  <course>359.76</course>
  <speed>0.5</speed>
  <fix>3d</fix>
</trkpt>
<trkpt lat="33.8102476" lon="-118.393867">
  <ele>-15.132</ele>
  <time>2026-09-02T22:13:16Z</time>
  <course>184.77</course>
  <speed>0.5200961449578337</speed>
  <fix>3d</fix>
</trkpt>
<trkpt lat="33.8102468" lon="-118.3938669">
  <ele>-14.76</ele>
  <time>2026-09-02T22:13:16Z</time>
  <course>359.91</course>
  <speed>0.5</speed>
  <fix>3d</fix>
</trkpt>
<trkpt lat="33.8102481" lon="-118.393867">
  <ele>-15.13</ele>
  <time>2026-09-02T22:13:16Z</time>
  <course>184.78</course>
  <speed>0.5200961449578337</speed>
  <fix>3d</fix>
</trkpt>
<trkpt lat="33.8102468" lon="-118.3938669">
  <ele>-14.76</ele>
  <time>2026-09-02T22:13:16Z</time>
  <course>359.91</course>
  <speed>0.5</speed>
  <fix>3d</fix>
</trkpt>
<trkpt lat="33.8102485" lon="-118.393867">
  <ele>-15.129</ele>
  <time>2026-09-02T22:13:16Z</time>
  <course>184.78</course>
  <speed>0.5200961449578337</speed>
  <fix>3d</fix>
</trkpt>
<trkpt lat="33.8102478" lon="-118.3938669">
  <ele>-14.76</ele>
  <time>2026-09-02T22:13:16Z</time>
  <course>0.03</course>
  <speed>0.5</speed>
  <fix>3d</fix>
</trkpt>
<trkpt lat="33.810249" lon="-118.393867">
  <ele>-15.128</ele>
  <time>2026-09-02T22:13:16Z</time>
  <course>184.78</course>
  <speed>0.5200961449578337</speed>
  <fix>3d</fix>
</trkpt>
<trkpt lat="33.8102478" lon="-118.3938669">
  <ele>-14.76</ele>
  <time>2026-09-02T22:13:16Z</time>
  <course>0.03</course>
  <speed>0.5</speed>
  <fix>3d</fix>
</trkpt>
<trkpt lat="33.8102494" lon="-118.393867">
  <ele>-15.128</ele>
  <time>2026-09-02T22:13:16Z</time>
  <course>184.78</course>
  <speed>0.5200961449578337</speed>
  <fix>3d</fix>
</trkpt>
<trkpt lat="33.8102487" lon="-118.3938669">
  <ele>-14.76</ele>
  <time>2026-09-02T22:13:16Z</time>
  <course>0.11</course>
  <speed>0.5</speed>
  <fix>3d</fix>
</trkpt>
<trkpt lat="33.8102499" lon="-118.393867">
  <ele>-15.128</ele>
  <time>2026-09-02T22:13:16Z</time>
  <course>184.78</course>
  <speed>0.5200961449578337</speed>
  <fix>3d</fix>
</trkpt>
<trkpt lat="33.8102487" lon="-118.3938669">
  <ele>-14.76</ele>
  <time>2026-09-02T22:13:16Z</time>
  <course>0.11</course>
  <speed>0.5</speed>
  <fix>3d</fix>
</trkpt>
<trkpt lat="33.8102503" lon="-118.393867">
  <ele>-15.129</ele>
  <time>2026-09-02T22:13:16Z</time>
  <course>184.78</course>
  <speed>0.5200961449578337</speed>
  <fix>3d</fix>
</trkpt>
<trkpt lat="33.8102496" lon="-118.3938669">
  <ele>-14.76</ele>
  <time>2026-09-02T22:13:16Z</time>
  <course>0.16</course>
  <speed>0.5</speed>
  <fix>3d</fix>
</trkpt>
<trkpt lat="33.8102508" lon="-118.393867">
  <ele>-15.13</ele>
  <time>2026-09-02T22:13:16Z</time>
  <course>184.78</course>
  <speed>0.5200961449578337</speed>
  <fix>3d</fix>
</trkpt>
<trkpt lat="33.8102496" lon="-118.3938669">
  <ele>-14.76</ele>
  <time>2026-09-02T22:13:16Z</time>
  <course>0.16</course>
  <speed>0.5</speed>
  <fix>3d</fix>
</trkpt>
<trkpt lat="33.8102512" lon="-118.393867">
  <ele>-15.131</ele>
  <time>2026-09-02T22:13:16Z</time>
  <course>184.78</course>
  <speed>0.5200961449578337</speed>
  <fix>3d</fix>
</trkpt>
<trkpt lat="33.8102505" lon="-118.3938669">
  <ele>-14.76</ele>
  <time>2026-09-02T22:13:16Z</time>
  <course>0.19</course>
  <speed>0.5</speed>
  <fix>3d</fix>
</trkpt>
<trkpt lat="33.8102517" lon="-118.393867">
  <ele>-15.13</ele>
  <time>2026-09-02T22:13:16Z</time>
  <course>184.78</course>
  <speed>0.5200961449578337</speed>
  <fix>3d</fix>
</trkpt>
<trkpt lat="33.8102505" lon="-118.3938669">
  <ele>-14.76</ele>
  <time>2026-09-02T22:13:16Z</time>
  <course>0.19</course>
  <speed>0.5</speed>
  <fix>3d</fix>
</trkpt>
<trkpt lat="33.8102521" lon="-118.393867">
  <ele>-15.129</ele>
  <time>2026-09-02T22:13:16Z</time>
  <course>184.78</course>
  <speed>0.5200961449578337</speed>
  <fix>3d</fix>
</trkpt>
<trkpt lat="33.8102514" lon="-118.3938669">
  <ele>-14.76</ele>
  <time>2026-09-02T22:13:16Z</time>
  <course>0.24</course>
  <speed>0.5</speed>
  <fix>3d</fix>
</trkpt>
<trkpt lat="33.8102526" lon="-118.393867">
  <ele>-15.129</ele>
  <time>2026-09-02T22:13:16Z</time>
  <course>184.78</course>
  <speed>0.5200961449578337</speed>
  <fix>3d</fix>
</trkpt>
<trkpt lat="33.8102514" lon="-118.3938669">
  <ele>-14.76</ele>
  <time>2026-09-02T22:13:16Z</time>
  <course>0.24</course>
  <speed>0.5</speed>
  <fix>3d</fix>
</trkpt>
<trkpt lat="33.810253" lon="-118.393867">
  <ele>-15.129</ele>
  <time>2026-09-02T22:13:16Z</time>
  <course>184.78</course>
  <speed>0.5200961449578337</speed>
  <fix>3d</fix>
</trkpt>
<trkpt lat="33.8102523" lon="-118.3938669">
  <ele>-14.76</ele>
  <time>2026-09-02T22:13:16Z</time>
  <course>0.28</course>
  <speed>0.5</speed>
  <fix>3d</fix>
</trkpt>
<trkpt lat="33.8102535" lon="-118.393867">
  <ele>-15.129</ele>
  <time>2026-09-02T22:13:16Z</time>
  <course>184.78</course>
  <speed>0.5200961449578337</speed>
  <fix>3d</fix>
</trkpt>
<trkpt lat="33.8102523" lon="-118.3938669">
  <ele>-14.76</ele>
  <time>2026-09-02T22:13:16Z</time>
  <course>0.28</course>
  <speed>0.5</speed>
  <fix>3d</fix>
</trkpt>
<trkpt lat="33.8102539" lon="-118.393867">
  <ele>-15.129</ele>
  <time>2026-09-02T22:13:16Z</time>
  <course>184.77</course>
  <speed>0.510098029794274</speed>
  <fix>3d</fix>
</trkpt>
<trkpt lat="33.8102532" lon="-118.3938669">
  <ele>-14.76</ele>
  <time>2026-09-02T22:13:16Z</time>
  <course>0.3</course>
  <speed>0.49</speed>
  <fix>3d</fix>
</trkpt>
<trkpt lat="33.8102544" lon="-118.393867">
  <ele>-15.13</ele>
  <time>2026-09-02T22:13:16Z</time>
  <course>184.78</course>
  <speed>0.5200961449578337</speed>
  <fix>3d</fix>
</trkpt>
<trkpt lat="33.8102532" lon="-118.3938669">
  <ele>-14.76</ele>
  <time>2026-09-02T22:13:16Z</time>
  <course>0.3</course>
  <speed>0.49</speed>
  <fix>3d</fix>
</trkpt>
<trkpt lat="33.8102548" lon="-118.393867">
  <ele>-15.13</ele>
  <time>2026-09-02T22:13:16Z</time>
  <course>184.78</course>
  <speed>0.510098029794274</speed>
  <fix>3d</fix>
</trkpt>
<trkpt lat="33.8102541" lon="-118.3938669">
  <ele>-14.76</ele>
  <time>2026-09-02T22:13:16Z</time>
  <course>0.32</course>
  <speed>0.49</speed>
  <fix>3d</fix>
</trkpt>
<trkpt lat="33.8102553" lon="-118.393867">
  <ele>-15.131</ele>
  <time>2026-09-02T22:13:16Z</time>
  <course>184.78</course>
  <speed>0.5200961449578337</speed>
  <fix>3d</fix>
</trkpt>
<trkpt lat="33.8102541" lon="-118.3938669">
  <ele>-14.76</ele>
  <time>2026-09-02T22:13:16Z</time>
  <course>0.32</course>
  <speed>0.49</speed>
  <fix>3d</fix>
</trkpt>
<trkpt lat="33.8102557" lon="-118.393867">
  <ele>-15.131</ele>
  <time>2026-09-02T22:13:16Z</time>
  <course>184.78</course>
  <speed>0.510098029794274</speed>
  <fix>3d</fix>
</trkpt>
<trkpt lat="33.810255" lon="-118.3938669">
  <ele>-14.76</ele>
  <time>2026-09-02T22:13:16Z</time>
  <course>0.35</course>
  <speed>0.49</speed>
  <fix>3d</fix>
</trkpt>
<trkpt lat="33.8102562" lon="-118.393867">
  <ele>-15.131</ele>
  <time>2026-09-02T22:13:16Z</time>
  <course>184.78</course>
  <speed>0.5200961449578337</speed>
  <fix>3d</fix>
</trkpt>
<trkpt lat="33.810255" lon="-118.3938669">
  <ele>-14.76</ele>
  <time>2026-09-02T22:13:16Z</time>
  <course>0.35</course>
  <speed>0.49</speed>
  <fix>3d</fix>
</trkpt>
<trkpt lat="33.8102566" lon="-118.393867">
  <ele>-15.131</ele>
  <time>2026-09-02T22:13:16Z</time>
  <course>184.78</course>
  <speed>0.510098029794274</speed>
  <fix>3d</fix>
</trkpt>
<trkpt lat="33.8102559" lon="-118.3938669">
  <ele>-14.76</ele>
  <time>2026-09-02T22:13:16Z</time>
  <course>0.37</course>
  <speed>0.49</speed>
  <fix>3d</fix>
</trkpt>
<trkpt lat="33.8102571" lon="-118.393867">
  <ele>-15.132</ele>
  <time>2026-09-02T22:13:16Z</time>
  <course>184.78</course>
  <speed>0.510098029794274</speed>
  <fix>3d</fix>
</trkpt>
<trkpt lat="33.8102559" lon="-118.3938669">
  <ele>-14.76</ele>
  <time>2026-09-02T22:13:16Z</time>
  <course>0.37</course>
  <speed>0.49</speed>
  <fix>3d</fix>
</trkpt>
<trkpt lat="33.8102575" lon="-118.393867">
  <ele>-15.132</ele>
  <time>2026-09-02T22:13:16Z</time>
  <course>184.78</course>
  <speed>0.510098029794274</speed>
  <fix>3d</fix>
</trkpt>
<trkpt lat="33.8102568" lon="-118.3938669">
  <ele>-14.75</ele>
  <time>2026-09-02T22:13:16Z</time>
  <course>0.39</course>
  <speed>0.49</speed>
  <fix>3d</fix>
</trkpt>
<trkpt lat="33.810258" lon="-118.393867">
  <ele>-15.131</ele>
  <time>2026-09-02T22:13:16Z</time>
  <course>184.78</course>
  <speed>0.510098029794274</speed>
  <fix>3d</fix>
</trkpt>
<trkpt lat="33.8102568" lon="-118.3938669">
  <ele>-14.75</ele>
  <time>2026-09-02T22:13:16Z</time>
  <course>0.39</course>
  <speed>0.49</speed>
  <fix>3d</fix>
</trkpt>
<trkpt lat="33.8102584" lon="-118.393867">
  <ele>-15.129</ele>
  <time>2026-09-02T22:13:16Z</time>
  <course>184.78</course>
  <speed>0.510098029794274</speed>
  <fix>3d</fix>
</trkpt>
<trkpt lat="33.8102577" lon="-118.3938669">
  <ele>-14.75</ele>
  <time>2026-09-02T22:13:16Z</time>
  <course>0.42</course>
  <speed>0.49</speed>
  <fix>3d</fix>
</trkpt>
<trkpt lat="33.8102589" lon="-118.393867">
  <ele>-15.127</ele>
  <time>2026-09-02T22:13:16Z</time>
  <course>184.78</course>
  <speed>0.510098029794274</speed>
  <fix>3d</fix>
</trkpt>
<trkpt lat="33.8102577" lon="-118.3938669">
  <ele>-14.75</ele>
  <time>2026-09-02T22:13:16Z</time>
  <course>0.42</course>
  <speed>0.49</speed>
  <fix>3d</fix>
</trkpt>
<trkpt lat="33.8102593" lon="-118.393867">
  <ele>-15.126</ele>
  <time>2026-09-02T22:13:16Z</time>
  <course>184.78</course>
  <speed>0.510098029794274</speed>
  <fix>3d</fix>
</trkpt>
<trkpt lat="33.8102586" lon="-118.3938669">
  <ele>-14.75</ele>
  <time>2026-09-02T22:13:16Z</time>
  <course>0.45</course>
  <speed>0.49</speed>
  <fix>3d</fix>
</trkpt>
<trkpt lat="33.8102598" lon="-118.393867">
  <ele>-15.126</ele>
  <time>2026-09-02T22:13:16Z</time>
  <course>184.78</course>
  <speed>0.510098029794274</speed>
  <fix>3d</fix>
</trkpt>
<trkpt lat="33.8102586" lon="-118.3938669">
  <ele>-14.75</ele>
  <time>2026-09-02T22:13:16Z</time>
  <course>0.45</course>
  <speed>0.49</speed>
  <fix>3d</fix>
</trkpt>
<trkpt lat="33.8102602" lon="-118.393867">
  <ele>-15.127</ele>
  <time>2026-09-02T22:13:16Z</time>
  <course>184.78</course>
  <speed>0.510098029794274</speed>
  <fix>3d</fix>
</trkpt>
<trkpt lat="33.8102595" lon="-118.3938669">
  <ele>-14.75</ele>
  <time>2026-09-02T22:13:16Z</time>
  <course>0.48</course>
  <speed>0.49</speed>
  <fix>3d</fix>
</trkpt>
<trkpt lat="33.8102607" lon="-118.393867">
  <ele>-15.129</ele>
  <time>2026-09-02T22:13:16Z</time>
  <course>184.78</course>
  <speed>0.510098029794274</speed>
  <fix>3d</fix>
</trkpt>
<trkpt lat="33.8102595" lon="-118.3938669">
  <ele>-14.75</ele>
  <time>2026-09-02T22:13:16Z</time>
  <course>0.48</course>
  <speed>0.49</speed>
  <fix>3d</fix>
</trkpt>
<trkpt lat="33.8102611" lon="-118.393867">
  <ele>-15.13</ele>
  <time>2026-09-02T22:13:16Z</time>
  <course>184.78</course>
  <speed>0.510098029794274</speed>
  <fix>3d</fix>
</trkpt>
<trkpt lat="33.8102603" lon="-118.3938669">
  <ele>-14.75</ele>
  <time>2026-09-02T22:13:16Z</time>
  <course>0.51</course>
  <speed>0.49</speed>
  <fix>3d</fix>
</trkpt>
<trkpt lat="33.8102616" lon="-118.393867">
  <ele>-15.13</ele>
  <time>2026-09-02T22:13:16Z</time>
  <course>184.78</course>
  <speed>0.5200961449578337</speed>
  <fix>3d</fix>
</trkpt>
<trkpt lat="33.8102603" lon="-118.3938669">
  <ele>-14.75</ele>
  <time>2026-09-02T22:13:16Z</time>
  <course>0.51</course>
  <speed>0.49</speed>
  <fix>3d</fix>
</trkpt>
<trkpt lat="33.810262" lon="-118.393867">
  <ele>-15.129</ele>
  <time>2026-09-02T22:13:16Z</time>
  <course>184.77</course>
  <speed>0.5200961449578337</speed>
  <fix>3d</fix>
</trkpt>
<trkpt lat="33.8102612" lon="-118.3938669">
  <ele>-14.75</ele>
  <time>2026-09-02T22:13:16Z</time>
  <course>0.55</course>
  <speed>0.49</speed>
  <fix>3d</fix>
</trkpt>
<trkpt lat="33.8102625" lon="-118.393867">
  <ele>-15.129</ele>
  <time>2026-09-02T22:13:16Z</time>
  <course>184.78</course>
  <speed>0.5200961449578337</speed>
  <fix>3d</fix>
</trkpt>
<trkpt lat="33.8102612" lon="-118.3938669">
  <ele>-14.75</ele>
  <time>2026-09-02T22:13:16Z</time>
  <course>0.55</course>
  <speed>0.49</speed>
  <fix>3d</fix>
</trkpt>
<trkpt lat="33.8102629" lon="-118.393867">
  <ele>-15.127</ele>
  <time>2026-09-02T22:13:16Z</time>
  <course>184.77</course>
  <speed>0.5200961449578337</speed>
  <fix>3d</fix>
</trkpt>
<trkpt lat="33.8102621" lon="-118.3938669">
  <ele>-14.75</ele>
  <time>2026-09-02T22:13:16Z</time>
  <course>0.59</course>
  <speed>0.49</speed>
  <fix>3d</fix>
</trkpt>
<trkpt lat="33.8102634" lon="-118.393867">
  <ele>-15.125</ele>
  <time>2026-09-02T22:13:16Z</time>
  <course>184.77</course>
  <speed>0.5200961449578337</speed>
  <fix>3d</fix>
</trkpt>
<trkpt lat="33.8102621" lon="-118.3938669">
  <ele>-14.75</ele>
  <time>2026-09-02T22:13:16Z</time>
  <course>0.59</course>
  <speed>0.49</speed>
  <fix>3d</fix>
</trkpt>
<trkpt lat="33.8102638" lon="-118.393867">
  <ele>-15.123</ele>
  <time>2026-09-02T22:13:16Z</time>
  <course>184.77</course>
  <speed>0.5200961449578337</speed>
  <fix>3d</fix>
</trkpt>
<trkpt lat="33.810263" lon="-118.3938669">
  <ele>-14.75</ele>
  <time>2026-09-02T22:13:16Z</time>
  <course>0.6</course>
  <speed>0.49</speed>
  <fix>3d</fix>
</trkpt>
<trkpt lat="33.8102642" lon="-118.393867">
  <ele>-15.122</ele>
  <time>2026-09-02T22:13:16Z</time>
  <course>184.77</course>
  <speed>0.5200961449578337</speed>
  <fix>3d</fix>
</trkpt>
<trkpt lat="33.810263" lon="-118.3938669">
  <ele>-14.75</ele>
  <time>2026-09-02T22:13:16Z</time>
  <course>0.6</course>
  <speed>0.49</speed>
  <fix>3d</fix>
</trkpt>
<trkpt lat="33.8102647" lon="-118.393867">
  <ele>-15.123</ele>
  <time>2026-09-02T22:13:16Z</time>
  <course>184.78</course>
  <speed>0.5200961449578337</speed>
  <fix>3d</fix>
</trkpt>
<trkpt lat="33.8102639" lon="-118.3938669">
  <ele>-14.75</ele>
  <time>2026-09-02T22:13:16Z</time>
  <course>0.6</course>
  <speed>0.5</speed>
  <fix>3d</fix>
</trkpt>
<trkpt lat="33.8102651" lon="-118.393867">
  <ele>-15.125</ele>
  <time>2026-09-02T22:13:16Z</time>
  <course>184.78</course>
  <speed>0.5200961449578337</speed>
  <fix>3d</fix>
</trkpt>
<trkpt lat="33.8102639" lon="-118.3938669">
  <ele>-14.75</ele>
  <time>2026-09-02T22:13:16Z</time>
  <course>0.6</course>
  <speed>0.5</speed>
  <fix>3d</fix>
</trkpt>
<trkpt lat="33.8102656" lon="-118.393867">
  <ele>-15.128</ele>
  <time>2026-09-02T22:13:16Z</time>
  <course>184.78</course>
  <speed>0.5200961449578337</speed>
  <fix>3d</fix>
</trkpt>
<trkpt lat="33.8102648" lon="-118.3938668">
  <ele>-14.75</ele>
  <time>2026-09-02T22:13:16Z</time>
  <course>0.63</course>
  <speed>0.5</speed>
  <fix>3d</fix>
</trkpt>
<trkpt lat="33.810266" lon="-118.393867">
  <ele>-15.131</ele>
  <time>2026-09-02T22:13:16Z</time>
  <course>184.78</course>
  <speed>0.5200961449578337</speed>
  <fix>3d</fix>
</trkpt>
<trkpt lat="33.8102648" lon="-118.3938668">
  <ele>-14.75</ele>
  <time>2026-09-02T22:13:16Z</time>
  <course>0.63</course>
  <speed>0.5</speed>
  <fix>3d</fix>
</trkpt>
<trkpt lat="33.8102665" lon="-118.393867">
  <ele>-15.133</ele>
  <time>2026-09-02T22:13:16Z</time>
  <course>184.78</course>
  <speed>0.5200961449578337</speed>
  <fix>3d</fix>
</trkpt>
<trkpt lat="33.8102657" lon="-118.3938668">
  <ele>-14.76</ele>
  <time>2026-09-02T22:13:16Z</time>
  <course>0.59</course>
  <speed>0.5</speed>
  <fix>3d</fix>
</trkpt>
<trkpt lat="33.8102669" lon="-118.393867">
  <ele>-15.133</ele>
  <time>2026-09-02T22:13:16Z</time>
  <course>184.77</course>
  <speed>0.5200961449578337</speed>
  <fix>3d</fix>
</trkpt>
<trkpt lat="33.8102657" lon="-118.3938668">
  <ele>-14.76</ele>
  <time>2026-09-02T22:13:16Z</time>
  <course>0.59</course>
  <speed>0.5</speed>
  <fix>3d</fix>
</trkpt>
<trkpt lat="33.8102674" lon="-118.393867">
  <ele>-15.133</ele>
  <time>2026-09-02T22:13:16Z</time>
  <course>184.77</course>
  <speed>0.5200961449578337</speed>
  <fix>3d</fix>
</trkpt>
<trkpt lat="33.8102666" lon="-118.3938668">
  <ele>-14.76</ele>
  <time>2026-09-02T22:13:16Z</time>
  <course>0.46</course>
  <speed>0.5</speed>
  <fix>3d</fix>
</trkpt>
<trkpt lat="33.8102678" lon="-118.393867">
  <ele>-15.132</ele>
  <time>2026-09-02T22:13:16Z</time>
  <course>184.77</course>
  <speed>0.5200961449578337</speed>
  <fix>3d</fix>
</trkpt>
<trkpt lat="33.8102666" lon="-118.3938668">
  <ele>-14.76</ele>
  <time>2026-09-02T22:13:16Z</time>
  <course>0.46</course>
  <speed>0.5</speed>
  <fix>3d</fix>
</trkpt>
<trkpt lat="33.8102683" lon="-118.393867">
  <ele>-15.13</ele>
  <time>2026-09-02T22:13:16Z</time>
  <course>184.78</course>
  <speed>0.5200961449578337</speed>
  <fix>3d</fix>
</trkpt>
<trkpt lat="33.8102675" lon="-118.3938668">
  <ele>-14.76</ele>
  <time>2026-09-02T22:13:16Z</time>
  <course>0.3</course>
  <speed>0.5</speed>
  <fix>3d</fix>
</trkpt>
<trkpt lat="33.8102687" lon="-118.393867">
  <ele>-15.129</ele>
  <time>2026-09-02T22:13:16Z</time>
  <course>184.78</course>
  <speed>0.5200961449578337</speed>
  <fix>3d</fix>
</trkpt>
<trkpt lat="33.8102675" lon="-118.3938668">
  <ele>-14.76</ele>
  <time>2026-09-02T22:13:16Z</time>
  <course>0.3</course>
  <speed>0.5</speed>
  <fix>3d</fix>
</trkpt>
<trkpt lat="33.8102692" lon="-118.393867">
  <ele>-15.129</ele>
  <time>2026-09-02T22:13:16Z</time>
  <course>184.78</course>
  <speed>0.5200961449578337</speed>
  <fix>3d</fix>
</trkpt>
<trkpt lat="33.8102684" lon="-118.3938668">
  <ele>-14.76</ele>
  <time>2026-09-02T22:13:16Z</time>
  <course>0.17</course>
  <speed>0.5</speed>
  <fix>3d</fix>
</trkpt>
<trkpt lat="33.8102696" lon="-118.393867">
  <ele>-15.128</ele>
  <time>2026-09-02T22:13:16Z</time>
  <course>184.78</course>
  <speed>0.5200961449578337</speed>
  <fix>3d</fix>
</trkpt>
<trkpt lat="33.8102684" lon="-118.3938668">
  <ele>-14.76</ele>
  <time>2026-09-02T22:13:16Z</time>
  <course>0.17</course>
  <speed>0.5</speed>
  <fix>3d</fix>
</trkpt>
<trkpt lat="33.8102701" lon="-118.393867">
  <ele>-15.128</ele>
  <time>2026-09-02T22:13:16Z</time>
  <course>184.78</course>
  <speed>0.5200961449578337</speed>
  <fix>3d</fix>
</trkpt>
<trkpt lat="33.8102693" lon="-118.3938668">
  <ele>-14.76</ele>
  <time>2026-09-02T22:13:16Z</time>
  <course>0.07</course>
  <speed>0.5</speed>
  <fix>3d</fix>
</trkpt>
<trkpt lat="33.8102705" lon="-118.393867">
  <ele>-15.128</ele>
  <time>2026-09-02T22:13:16Z</time>
  <course>184.78</course>
  <speed>0.5200961449578337</speed>
  <fix>3d</fix>
</trkpt>
<trkpt lat="33.8102693" lon="-118.3938668">
  <ele>-14.76</ele>
  <time>2026-09-02T22:13:16Z</time>
  <course>0.07</course>
  <speed>0.5</speed>
  <fix>3d</fix>
</trkpt>
<trkpt lat="33.810271" lon="-118.393867">
  <ele>-15.127</ele>
  <time>2026-09-02T22:13:16Z</time>
  <course>184.77</course>
  <speed>0.5200961449578337</speed>
  <fix>3d</fix>
</trkpt>
<trkpt lat="33.8102702" lon="-118.3938668">
  <ele>-14.76</ele>
  <time>2026-09-02T22:13:16Z</time>
  <course>0.0</course>
  <speed>0.5</speed>
  <fix>3d</fix>
</trkpt>
<trkpt lat="33.8102714" lon="-118.393867">
  <ele>-15.128</ele>
  <time>2026-09-02T22:13:16Z</time>
  <course>184.77</course>
  <speed>0.5200961449578337</speed>
  <fix>3d</fix>
</trkpt>
<trkpt lat="33.8102702" lon="-118.3938668">
  <ele>-14.76</ele>
  <time>2026-09-02T22:13:16Z</time>
  <course>0.0</course>
  <speed>0.5</speed>
  <fix>3d</fix>
</trkpt>
<trkpt lat="33.8102719" lon="-118.393867">
  <ele>-15.129</ele>
  <time>2026-09-02T22:13:16Z</time>
  <course>184.77</course>
  <speed>0.5200961449578337</speed>
  <fix>3d</fix>
</trkpt>
<trkpt lat="33.8102711" lon="-118.3938668">
  <ele>-14.76</ele>
  <time>2026-09-02T22:13:16Z</time>
  <course>359.97</course>
  <speed>0.5</speed>
  <fix>3d</fix>
</trkpt>
<trkpt lat="33.8102723" lon="-118.393867">
  <ele>-15.131</ele>
  <time>2026-09-02T22:13:16Z</time>
  <course>184.77</course>
  <speed>0.5200961449578337</speed>
  <fix>3d</fix>
</trkpt>
<trkpt lat="33.8102711" lon="-118.3938668">
  <ele>-14.76</ele>
  <time>2026-09-02T22:13:16Z</time>
  <course>359.97</course>
  <speed>0.5</speed>
  <fix>3d</fix>
</trkpt>
<trkpt lat="33.8102728" lon="-118.393867">
  <ele>-15.131</ele>
  <time>2026-09-02T22:13:16Z</time>
  <course>184.77</course>
  <speed>0.5200961449578337</speed>
  <fix>3d</fix>
</trkpt>
<trkpt lat="33.810272" lon="-118.3938668">
  <ele>-14.76</ele>
  <time>2026-09-02T22:13:16Z</time>
  <course>359.95</course>
  <speed>0.5</speed>
  <fix>3d</fix>
</trkpt>
<trkpt lat="33.8102732" lon="-118.393867">
  <ele>-15.131</ele>
  <time>2026-09-02T22:13:16Z</time>
  <course>184.77</course>
  <speed>0.5200961449578337</speed>
  <fix>3d</fix>
</trkpt>
<trkpt lat="33.810272" lon="-118.3938668">
  <ele>-14.76</ele>
  <time>2026-09-02T22:13:16Z</time>
  <course>359.95</course>
  <speed>0.5</speed>
  <fix>3d</fix>
</trkpt>
<trkpt lat="33.8102737" lon="-118.393867">
  <ele>-15.13</ele>
  <time>2026-09-02T22:13:16Z</time>
  <course>184.78</course>
  <speed>0.5200961449578337</speed>
  <fix>3d</fix>
</trkpt>
<trkpt lat="33.8102729" lon="-118.3938668">
  <ele>-14.77</ele>
  <time>2026-09-02T22:13:16Z</time>
  <course>359.94</course>
  <speed>0.5</speed>
  <fix>3d</fix>
</trkpt>
<trkpt lat="33.8102741" lon="-118.393867">
  <ele>-15.129</ele>
  <time>2026-09-02T22:13:16Z</time>
  <course>184.78</course>
  <speed>0.5200961449578337</speed>
  <fix>3d</fix>
</trkpt>
<trkpt lat="33.8102729" lon="-118.3938668">
  <ele>-14.77</ele>
  <time>2026-09-02T22:13:16Z</time>
  <course>359.94</course>
  <speed>0.5</speed>
  <fix>3d</fix>
</trkpt>
<trkpt lat="33.8102746" lon="-118.393867">
  <ele>-15.129</ele>
  <time>2026-09-02T22:13:16Z</time>
  <course>184.78</course>
  <speed>0.5200961449578337</speed>
  <fix>3d</fix>
</trkpt>
<trkpt lat="33.8102738" lon="-118.3938668">
  <ele>-14.77</ele>
  <time>2026-09-02T22:13:16Z</time>
  <course>359.93</course>
  <speed>0.5</speed>
  <fix>3d</fix>
</trkpt>
<trkpt lat="33.810275" lon="-118.393867">
  <ele>-15.13</ele>
  <time>2026-09-02T22:13:16Z</time>
  <course>184.78</course>
  <speed>0.5200961449578337</speed>
  <fix>3d</fix>
</trkpt>
<trkpt lat="33.8102738" lon="-118.3938668">
  <ele>-14.77</ele>
  <time>2026-09-02T22:13:16Z</time>
  <course>359.93</course>
  <speed>0.5</speed>
  <fix>3d</fix>
</trkpt>
<trkpt lat="33.8102755" lon="-118.393867">
  <ele>-15.132</ele>
  <time>2026-09-02T22:13:16Z</time>
  <course>184.78</course>
  <speed>0.5200961449578337</speed>
  <fix>3d</fix>
</trkpt>
<trkpt lat="33.8102747" lon="-118.3938668">
  <ele>-14.77</ele>
  <time>2026-09-02T22:13:16Z</time>
  <course>359.92</course>
  <speed>0.5</speed>
  <fix>3d</fix>
</trkpt>
<trkpt lat="33.8102759" lon="-118.393867">
  <ele>-15.133</ele>
  <time>2026-09-02T22:13:16Z</time>
  <course>184.78</course>
  <speed>0.5200961449578337</speed>
  <fix>3d</fix>
</trkpt>
<trkpt lat="33.8102747" lon="-118.3938668">
  <ele>-14.77</ele>
  <time>2026-09-02T22:13:16Z</time>
  <course>359.92</course>
  <speed>0.5</speed>
  <fix>3d</fix>
</trkpt>
<trkpt lat="33.8102764" lon="-118.393867">
  <ele>-15.134</ele>
  <time>2026-09-02T22:13:16Z</time>
  <course>184.78</course>
  <speed>0.5200961449578337</speed>
  <fix>3d</fix>
</trkpt>
<trkpt lat="33.8102756" lon="-118.3938668">
  <ele>-14.77</ele>
  <time>2026-09-02T22:13:16Z</time>
  <course>359.91</course>
  <speed>0.5</speed>
  <fix>3d</fix>
</trkpt>
<trkpt lat="33.8102768" lon="-118.393867">
  <ele>-15.134</ele>
  <time>2026-09-02T22:13:16Z</time>
  <course>184.77</course>
  <speed>0.5200961449578337</speed>
  <fix>3d</fix>
</trkpt>
<trkpt lat="33.8102756" lon="-118.3938668">
  <ele>-14.77</ele>
  <time>2026-09-02T22:13:16Z</time>
  <course>359.91</course>
  <speed>0.5</speed>
  <fix>3d</fix>
</trkpt>
<trkpt lat="33.8102773" lon="-118.393867">
  <ele>-15.134</ele>
  <time>2026-09-02T22:13:16Z</time>
  <course>184.77</course>
  <speed>0.5200961449578337</speed>
  <fix>3d</fix>
</trkpt>
<trkpt lat="33.8102765" lon="-118.3938668">
  <ele>-14.77</ele>
  <time>2026-09-02T22:13:16Z</time>
  <course>359.89</course>
  <speed>0.5</speed>
  <fix>3d</fix>
</trkpt>
<trkpt lat="33.8102777" lon="-118.393867">
  <ele>-15.134</ele>
  <time>2026-09-02T22:13:16Z</time>
  <course>184.77</course>
  <speed>0.5200961449578337</speed>
  <fix>3d</fix>
</trkpt>
<trkpt lat="33.8102765" lon="-118.3938668">
  <ele>-14.77</ele>
  <time>2026-09-02T22:13:16Z</time>
  <course>359.89</course>
  <speed>0.5</speed>
  <fix>3d</fix>
</trkpt>
<trkpt lat="33.8102782" lon="-118.393867">
  <ele>-15.134</ele>
  <time>2026-09-02T22:13:16Z</time>
  <course>184.78</course>
  <speed>0.5200961449578337</speed>
  <fix>3d</fix>
</trkpt>
<trkpt lat="33.8102774" lon="-118.3938668">
  <ele>-14.76</ele>
  <time>2026-09-02T22:13:16Z</time>
  <course>359.85</course>
  <speed>0.5</speed>
  <fix>3d</fix>
</trkpt>
<trkpt lat="33.8102786" lon="-118.393867">
  <ele>-15.133</ele>
  <time>2026-09-02T22:13:16Z</time>
  <course>184.78</course>
  <speed>0.5200961449578337</speed>
  <fix>3d</fix>
</trkpt>
<trkpt lat="33.8102774" lon="-118.3938668">
  <ele>-14.76</ele>
  <time>2026-09-02T22:13:16Z</time>
  <course>359.85</course>
  <speed>0.5</speed>
  <fix>3d</fix>
</trkpt>
<trkpt lat="33.8102791" lon="-118.393867">
  <ele>-15.132</ele>
  <time>2026-09-02T22:13:16Z</time>
  <course>184.78</course>
  <speed>0.5200961449578337</speed>
  <fix>3d</fix>
</trkpt>
<trkpt lat="33.8102783" lon="-118.3938668">
  <ele>-14.76</ele>
  <time>2026-09-02T22:13:16Z</time>
  <course>359.82</course>
  <speed>0.5</speed>
  <fix>3d</fix>
</trkpt>
<trkpt lat="33.8102795" lon="-118.393867">
  <ele>-15.131</ele>
  <time>2026-09-02T22:13:16Z</time>
  <course>184.78</course>
  <speed>0.5200961449578337</speed>
  <fix>3d</fix>
</trkpt>
<trkpt lat="33.8102783" lon="-118.3938668">
  <ele>-14.76</ele>
  <time>2026-09-02T22:13:16Z</time>
  <course>359.82</course>
  <speed>0.5</speed>
  <fix>3d</fix>
</trkpt>
<trkpt lat="33.81028" lon="-118.393867">
  <ele>-15.13</ele>
  <time>2026-09-02T22:13:16Z</time>
  <course>184.78</course>
  <speed>0.5200961449578337</speed>
  <fix>3d</fix>
</trkpt>
<trkpt lat="33.8102792" lon="-118.3938668">
  <ele>-14.76</ele>
  <time>2026-09-02T22:13:16Z</time>
  <course>359.79</course>
  <speed>0.5</speed>
  <fix>3d</fix>
</trkpt>
<trkpt lat="33.8102804" lon="-118.393867">
  <ele>-15.129</ele>
  <time>2026-09-02T22:13:16Z</time>
  <course>184.78</course>
  <speed>0.5200961449578337</speed>
  <fix>3d</fix>
</trkpt>
<trkpt lat="33.8102792" lon="-118.3938668">
  <ele>-14.76</ele>
  <time>2026-09-02T22:13:16Z</time>
  <course>359.79</course>
  <speed>0.5</speed>
  <fix>3d</fix>
</trkpt>
<trkpt lat="33.8102809" lon="-118.393867">
  <ele>-15.128</ele>
  <time>2026-09-02T22:13:16Z</time>
  <course>184.78</course>
  <speed>0.5200961449578337</speed>
  <fix>3d</fix>
</trkpt>
<trkpt lat="33.8102801" lon="-118.3938668">
  <ele>-14.75</ele>
  <time>2026-09-02T22:13:16Z</time>
  <course>359.76</course>
  <speed>0.5</speed>
  <fix>3d</fix>
</trkpt>
<trkpt lat="33.8102813" lon="-118.393867">
  <ele>-15.127</ele>
  <time>2026-09-02T22:13:16Z</time>
  <course>184.78</course>
  <speed>0.5200961449578337</speed>
  <fix>3d</fix>
</trkpt>
<trkpt lat="33.8102801" lon="-118.3938668">
  <ele>-14.75</ele>
  <time>2026-09-02T22:13:16Z</time>
  <course>359.76</course>
  <speed>0.5</speed>
  <fix>3d</fix>
</trkpt>
<trkpt lat="33.8102818" lon="-118.393867">
  <ele>-15.127</ele>
  <time>2026-09-02T22:13:16Z</time>
  <course>184.78</course>
  <speed>0.5200961449578337</speed>
  <fix>3d</fix>
</trkpt>
<trkpt lat="33.810281" lon="-118.3938668">
  <ele>-14.75</ele>
  <time>2026-09-02T22:13:16Z</time>
  <course>359.73</course>
  <speed>0.5</speed>
  <fix>3d</fix>
</trkpt>
<trkpt lat="33.8102822" lon="-118.393867">
  <ele>-15.128</ele>
  <time>2026-09-02T22:13:16Z</time>
  <course>184.78</course>
  <speed>0.5200961449578337</speed>
  <fix>3d</fix>
</trkpt>
<trkpt lat="33.810281" lon="-118.3938668">
  <ele>-14.75</ele>
  <time>2026-09-02T22:13:16Z</time>
  <course>359.73</course>
  <speed>0.5</speed>
  <fix>3d</fix>
</trkpt>
<trkpt lat="33.8102827" lon="-118.393867">
  <ele>-15.129</ele>
  <time>2026-09-02T22:13:16Z</time>
  <course>184.78</course>
  <speed>0.5200961449578337</speed>
  <fix>3d</fix>
</trkpt>
<trkpt lat="33.8102819" lon="-118.3938668">
  <ele>-14.75</ele>
  <time>2026-09-02T22:13:16Z</time>
  <course>359.71</course>
  <speed>0.49</speed>
  <fix>3d</fix>
</trkpt>
<trkpt lat="33.8102831" lon="-118.393867">
  <ele>-15.129</ele>
  <time>2026-09-02T22:13:16Z</time>
  <course>184.77</course>
  <speed>0.5200961449578337</speed>
  <fix>3d</fix>
</trkpt>
<trkpt lat="33.8102819" lon="-118.3938668">
  <ele>-14.75</ele>
  <time>2026-09-02T22:13:16Z</time>
  <course>359.71</course>
  <speed>0.49</speed>
  <fix>3d</fix>
</trkpt>
<trkpt lat="33.8102836" lon="-118.393867">
  <ele>-15.13</ele>
  <time>2026-09-02T22:13:16Z</time>
  <course>184.78</course>
  <speed>0.5200961449578337</speed>
  <fix>3d</fix>
</trkpt>
<trkpt lat="33.8102828" lon="-118.3938668">
  <ele>-14.75</ele>
  <time>2026-09-02T22:13:16Z</time>
  <course>359.7</course>
  <speed>0.49</speed>
  <fix>3d</fix>
</trkpt>
<trkpt lat="33.810284" lon="-118.393867">
  <ele>-15.13</ele>
  <time>2026-09-02T22:13:16Z</time>
  <course>184.78</course>
  <speed>0.5200961449578337</speed>
  <fix>3d</fix>
</trkpt>
<trkpt lat="33.8102828" lon="-118.3938668">
  <ele>-14.75</ele>
  <time>2026-09-02T22:13:16Z</time>
  <course>359.7</course>
  <speed>0.49</speed>
  <fix>3d</fix>
</trkpt>
<trkpt lat="33.8102845" lon="-118.393867">
  <ele>-15.129</ele>
  <time>2026-09-02T22:13:16Z</time>
  <course>184.78</course>
  <speed>0.5200961449578337</speed>
  <fix>3d</fix>
</trkpt>
<trkpt lat="33.8102837" lon="-118.3938668">
  <ele>-14.76</ele>
  <time>2026-09-02T22:13:16Z</time>
  <course>359.7</course>
  <speed>0.49</speed>
  <fix>3d</fix>
</trkpt>
<trkpt lat="33.8102849" lon="-118.393867">
  <ele>-15.129</ele>
  <time>2026-09-02T22:13:16Z</time>
  <course>184.78</course>
  <speed>0.5200961449578337</speed>
  <fix>3d</fix>
</trkpt>
<trkpt lat="33.8102837" lon="-118.3938668">
  <ele>-14.76</ele>
  <time>2026-09-02T22:13:16Z</time>
  <course>359.7</course>
  <speed>0.49</speed>
  <fix>3d</fix>
</trkpt>
<trkpt lat="33.8102854" lon="-118.393867">
  <ele>-15.13</ele>
  <time>2026-09-02T22:13:16Z</time>
  <course>184.78</course>
  <speed>0.5200961449578337</speed>
  <fix>3d</fix>
</trkpt>
<trkpt lat="33.8102846" lon="-118.3938668">
  <ele>-14.76</ele>
  <time>2026-09-02T22:13:16Z</time>
  <course>359.69</course>
  <speed>0.49</speed>
  <fix>3d</fix>
</trkpt>
<trkpt lat="33.8102858" lon="-118.393867">
  <ele>-15.131</ele>
  <time>2026-09-02T22:13:16Z</time>
  <course>184.78</course>
  <speed>0.5200961449578337</speed>
  <fix>3d</fix>
</trkpt>
<trkpt lat="33.8102846" lon="-118.3938668">
  <ele>-14.76</ele>
  <time>2026-09-02T22:13:16Z</time>
  <course>359.69</course>
  <speed>0.49</speed>
  <fix>3d</fix>
</trkpt>
<trkpt lat="33.8102863" lon="-118.393867">
  <ele>-15.132</ele>
  <time>2026-09-02T22:13:16Z</time>
  <course>184.77</course>
  <speed>0.5200961449578337</speed>
  <fix>3d</fix>
</trkpt>
<trkpt lat="33.8102855" lon="-118.3938668">
  <ele>-14.76</ele>
  <time>2026-09-02T22:13:16Z</time>
  <course>359.67</course>
  <speed>0.49</speed>
  <fix>3d</fix>
</trkpt>
<trkpt lat="33.8102867" lon="-118.393867">
  <ele>-15.133</ele>
  <time>2026-09-02T22:13:16Z</time>
  <course>184.77</course>
  <speed>0.5200961449578337</speed>
  <fix>3d</fix>
</trkpt>
<trkpt lat="33.8102855" lon="-118.3938668">
  <ele>-14.76</ele>
  <time>2026-09-02T22:13:16Z</time>
  <course>359.67</course>
  <speed>0.49</speed>
  <fix>3d</fix>
</trkpt>
<trkpt lat="33.8102872" lon="-118.393867">
  <ele>-15.132</ele>
  <time>2026-09-02T22:13:16Z</time>
  <course>184.78</course>
  <speed>0.5200961449578337</speed>
  <fix>3d</fix>
</trkpt>
<trkpt lat="33.8102864" lon="-118.3938668">
  <ele>-14.75</ele>
  <time>2026-09-02T22:13:16Z</time>
  <course>359.65</course>
  <speed>0.49</speed>
  <fix>3d</fix>
</trkpt>
<trkpt lat="33.8102876" lon="-118.393867">
  <ele>-15.13</ele>
  <time>2026-09-02T22:13:16Z</time>
  <course>184.78</course>
  <speed>0.5200961449578337</speed>
  <fix>3d</fix>
</trkpt>
<trkpt lat="33.8102864" lon="-118.3938668">
  <ele>-14.75</ele>
  <time>2026-09-02T22:13:16Z</time>
  <course>359.65</course>
  <speed>0.49</speed>
  <fix>3d</fix>
</trkpt>
<trkpt lat="33.8102881" lon="-118.393867">
  <ele>-15.128</ele>
  <time>2026-09-02T22:13:16Z</time>
  <course>184.78</course>
  <speed>0.5200961449578337</speed>
  <fix>3d</fix>
</trkpt>
<trkpt lat="33.8102873" lon="-118.3938668">
  <ele>-14.75</ele>
  <time>2026-09-02T22:13:16Z</time>
  <course>359.63</course>
  <speed>0.49</speed>
  <fix>3d</fix>
</trkpt>
<trkpt lat="33.8102885" lon="-118.393867">
  <ele>-15.125</ele>
  <time>2026-09-02T22:13:16Z</time>
  <course>184.78</course>
  <speed>0.5200961449578337</speed>
  <fix>3d</fix>
</trkpt>
<trkpt lat="33.8102873" lon="-118.3938668">
  <ele>-14.75</ele>
  <time>2026-09-02T22:13:16Z</time>
  <course>359.63</course>
  <speed>0.49</speed>
  <fix>3d</fix>
</trkpt>
<trkpt lat="33.810289" lon="-118.393867">
  <ele>-15.123</ele>
  <time>2026-09-02T22:13:16Z</time>
  <course>184.78</course>
  <speed>0.5200961449578337</speed>
  <fix>3d</fix>
</trkpt>
<trkpt lat="33.8102882" lon="-118.3938668">
  <ele>-14.75</ele>
  <time>2026-09-02T22:13:16Z</time>
  <course>359.62</course>
  <speed>0.49</speed>
  <fix>3d</fix>
</trkpt>
<trkpt lat="33.8102894" lon="-118.393867">
  <ele>-15.121</ele>
  <time>2026-09-02T22:13:16Z</time>
  <course>184.78</course>
  <speed>0.5200961449578337</speed>
  <fix>3d</fix>
</trkpt>
<trkpt lat="33.8102882" lon="-118.3938668">
  <ele>-14.75</ele>
  <time>2026-09-02T22:13:16Z</time>
  <course>359.62</course>
  <speed>0.49</speed>
  <fix>3d</fix>
</trkpt>
<trkpt lat="33.8102899" lon="-118.393867">
  <ele>-15.121</ele>
  <time>2026-09-02T22:13:16Z</time>
  <course>184.78</course>
  <speed>0.5200961449578337</speed>
  <fix>3d</fix>
</trkpt>
<trkpt lat="33.8102891" lon="-118.3938668">
  <ele>-14.75</ele>
  <time>2026-09-02T22:13:16Z</time>
  <course>359.59</course>
  <speed>0.49</speed>
  <fix>3d</fix>
</trkpt>
<trkpt lat="33.8102903" lon="-118.393867">
  <ele>-15.122</ele>
  <time>2026-09-02T22:13:16Z</time>
  <course>184.77</course>
  <speed>0.5200961449578337</speed>
  <fix>3d</fix>
</trkpt>
<trkpt lat="33.8102891" lon="-118.3938668">
  <ele>-14.75</ele>
  <time>2026-09-02T22:13:16Z</time>
  <course>359.59</course>
  <speed>0.49</speed>
  <fix>3d</fix>
</trkpt>
<trkpt lat="33.8102908" lon="-118.393867">
  <ele>-15.125</ele>
  <time>2026-09-02T22:13:16Z</time>
  <course>184.77</course>
  <speed>0.5200961449578337</speed>
  <fix>3d</fix>
</trkpt>
<trkpt lat="33.81029" lon="-118.3938668">
  <ele>-14.75</ele>
  <time>2026-09-02T22:13:16Z</time>
  <course>359.57</course>
  <speed>0.49</speed>
  <fix>3d</fix>
</trkpt>
<trkpt lat="33.8102912" lon="-118.393867">
  <ele>-15.127</ele>
  <time>2026-09-02T22:13:16Z</time>
  <course>184.77</course>
  <speed>0.5200961449578337</speed>
  <fix>3d</fix>
</trkpt>
<trkpt lat="33.81029" lon="-118.3938668">
  <ele>-14.75</ele>
  <time>2026-09-02T22:13:16Z</time>
  <course>359.57</course>
  <speed>0.49</speed>
  <fix>3d</fix>
</trkpt>
<trkpt lat="33.8102917" lon="-118.393867">
  <ele>-15.13</ele>
  <time>2026-09-02T22:13:16Z</time>
  <course>184.77</course>
  <speed>0.5200961449578337</speed>
  <fix>3d</fix>
</trkpt>
<trkpt lat="33.8102909" lon="-118.3938668">
  <ele>-14.76</ele>
  <time>2026-09-02T22:13:16Z</time>
  <course>359.56</course>
  <speed>0.49</speed>
  <fix>3d</fix>
</trkpt>
<trkpt lat="33.8102921" lon="-118.393867">
  <ele>-15.131</ele>
  <time>2026-09-02T22:13:16Z</time>
  <course>184.77</course>
  <speed>0.5200961449578337</speed>
  <fix>3d</fix>
</trkpt>
<trkpt lat="33.8102909" lon="-118.3938668">
  <ele>-14.76</ele>
  <time>2026-09-02T22:13:16Z</time>
  <course>359.56</course>
  <speed>0.49</speed>
  <fix>3d</fix>
</trkpt>
<trkpt lat="33.8102926" lon="-118.393867">
  <ele>-15.133</ele>
  <time>2026-09-02T22:13:16Z</time>
  <course>184.77</course>
  <speed>0.5200961449578337</speed>
  <fix>3d</fix>
</trkpt>
<trkpt lat="33.8102918" lon="-118.3938668">
  <ele>-14.76</ele>
  <time>2026-09-02T22:13:16Z</time>
  <course>359.55</course>
  <speed>0.49</speed>
  <fix>3d</fix>
</trkpt>
<trkpt lat="33.810293" lon="-118.393867">
  <ele>-15.133</ele>
  <time>2026-09-02T22:13:16Z</time>
  <course>184.78</course>
  <speed>0.5200961449578337</speed>
  <fix>3d</fix>
</trkpt>
<trkpt lat="33.8102918" lon="-118.3938668">
  <ele>-14.76</ele>
  <time>2026-09-02T22:13:16Z</time>
  <course>359.55</course>
  <speed>0.49</speed>
  <fix>3d</fix>
</trkpt>
<trkpt lat="33.8102935" lon="-118.393867">
  <ele>-15.131</ele>
  <time>2026-09-02T22:13:16Z</time>
  <course>184.78</course>
  <speed>0.5200961449578337</speed>
  <fix>3d</fix>
</trkpt>
<trkpt lat="33.8102927" lon="-118.3938668">
  <ele>-14.76</ele>
  <time>2026-09-02T22:13:16Z</time>
  <course>359.56</course>
  <speed>0.49</speed>
  <fix>3d</fix>
</trkpt>
<trkpt lat="33.8102939" lon="-118.393867">
  <ele>-15.13</ele>
  <time>2026-09-02T22:13:16Z</time>
  <course>184.78</course>
  <speed>0.5200961449578337</speed>
  <fix>3d</fix>
</trkpt>
<trkpt lat="33.8102927" lon="-118.3938668">
  <ele>-14.76</ele>
  <time>2026-09-02T22:13:16Z</time>
  <course>359.56</course>
  <speed>0.49</speed>
  <fix>3d</fix>
</trkpt>
<trkpt lat="33.8102944" lon="-118.393867">
  <ele>-15.128</ele>
  <time>2026-09-02T22:13:16Z</time>
  <course>184.77</course>
  <speed>0.5200961449578337</speed>
  <fix>3d</fix>
</trkpt>
<trkpt lat="33.8102936" lon="-118.3938668">
  <ele>-14.76</ele>
  <time>2026-09-02T22:13:16Z</time>
  <course>359.56</course>
  <speed>0.49</speed>
  <fix>3d</fix>
</trkpt>
<trkpt lat="33.8102948" lon="-118.393867">
  <ele>-15.125</ele>
  <time>2026-09-02T22:13:16Z</time>
  <course>184.77</course>
  <speed>0.5200961449578337</speed>
  <fix>3d</fix>
</trkpt>
<trkpt lat="33.8102936" lon="-118.3938668">
  <ele>-14.76</ele>
  <time>2026-09-02T22:13:16Z</time>
  <course>359.56</course>
  <speed>0.49</speed>
  <fix>3d</fix>
</trkpt>
<trkpt lat="33.8102953" lon="-118.393867">
  <ele>-15.124</ele>
  <time>2026-09-02T22:13:16Z</time>
  <course>184.77</course>
  <speed>0.5200961449578337</speed>
  <fix>3d</fix>
</trkpt>
<trkpt lat="33.8102945" lon="-118.3938668">
  <ele>-14.76</ele>
  <time>2026-09-02T22:13:16Z</time>
  <course>359.54</course>
  <speed>0.49</speed>
  <fix>3d</fix>
</trkpt>
<trkpt lat="33.8102957" lon="-118.393867">
  <ele>-15.124</ele>
  <time>2026-09-02T22:13:16Z</time>
  <course>184.77</course>
  <speed>0.5200961449578337</speed>
  <fix>3d</fix>
</trkpt>
<trkpt lat="33.8102945" lon="-118.3938668">
  <ele>-14.76</ele>
  <time>2026-09-02T22:13:16Z</time>
  <course>359.54</course>
  <speed>0.49</speed>
  <fix>3d</fix>
</trkpt>
<trkpt lat="33.8102962" lon="-118.393867">
  <ele>-15.125</ele>
  <time>2026-09-02T22:13:16Z</time>
  <course>184.77</course>
  <speed>0.5200961449578337</speed>
  <fix>3d</fix>
</trkpt>
<trkpt lat="33.8102954" lon="-118.3938668">
  <ele>-14.76</ele>
  <time>2026-09-02T22:13:16Z</time>
  <course>359.51</course>
  <speed>0.49</speed>
  <fix>3d</fix>
</trkpt>
<trkpt lat="33.8102966" lon="-118.393867">
  <ele>-15.128</ele>
  <time>2026-09-02T22:13:16Z</time>
  <course>184.77</course>
  <speed>0.5200961449578337</speed>
  <fix>3d</fix>
</trkpt>
<trkpt lat="33.8102954" lon="-118.3938668">
  <ele>-14.76</ele>
  <time>2026-09-02T22:13:16Z</time>
  <course>359.51</course>
  <speed>0.49</speed>
  <fix>3d</fix>
</trkpt>
<trkpt lat="33.8102971" lon="-118.393867">
  <ele>-15.131</ele>
  <time>2026-09-02T22:13:16Z</time>
  <course>184.78</course>
  <speed>0.5200961449578337</speed>
  <fix>3d</fix>
</trkpt>
<trkpt lat="33.8102963" lon="-118.3938669">
  <ele>-14.77</ele>
  <time>2026-09-02T22:13:16Z</time>
  <course>359.49</course>
  <speed>0.49</speed>
  <fix>3d</fix>
</trkpt>
<trkpt lat="33.8102975" lon="-118.393867">
  <ele>-15.134</ele>
  <time>2026-09-02T22:13:16Z</time>
  <course>184.78</course>
  <speed>0.5200961449578337</speed>
  <fix>3d</fix>
</trkpt>
<trkpt lat="33.8102963" lon="-118.3938669">
  <ele>-14.77</ele>
  <time>2026-09-02T22:13:16Z</time>
  <course>359.49</course>
  <speed>0.49</speed>
  <fix>3d</fix>
</trkpt>
<trkpt lat="33.810298" lon="-118.393867">
  <ele>-15.137</ele>
  <time>2026-09-02T22:13:16Z</time>
  <course>184.78</course>
  <speed>0.5200961449578337</speed>
  <fix>3d</fix>
</trkpt>
<trkpt lat="33.8102971" lon="-118.3938669">
  <ele>-14.77</ele>
  <time>2026-09-02T22:13:16Z</time>
  <course>359.55</course>
  <speed>0.49</speed>
  <fix>3d</fix>
</trkpt>
<trkpt lat="33.8102984" lon="-118.393867">
  <ele>-15.139</ele>
  <time>2026-09-02T22:13:16Z</time>
  <course>184.78</course>
  <speed>0.5200961449578337</speed>
  <fix>3d</fix>
</trkpt>
<trkpt lat="33.8102971" lon="-118.3938669">
  <ele>-14.77</ele>
  <time>2026-09-02T22:13:16Z</time>
  <course>359.55</course>
  <speed>0.49</speed>
  <fix>3d</fix>
</trkpt>
<trkpt lat="33.8102988" lon="-118.393867">
  <ele>-15.139</ele>
  <time>2026-09-02T22:13:16Z</time>
  <course>184.78</course>
  <speed>0.5200961449578337</speed>
  <fix>3d</fix>
</trkpt>
<trkpt lat="33.810298" lon="-118.3938669">
  <ele>-14.77</ele>
  <time>2026-09-02T22:13:16Z</time>
  <course>359.73</course>
  <speed>0.49</speed>
  <fix>3d</fix>
</trkpt>
<trkpt lat="33.8102993" lon="-118.393867">
  <ele>-15.137</ele>
  <time>2026-09-02T22:13:16Z</time>
  <course>184.77</course>
  <speed>0.5200961449578337</speed>
  <fix>3d</fix>
</trkpt>
<trkpt lat="33.810298" lon="-118.3938669">
  <ele>-14.77</ele>
  <time>2026-09-02T22:13:16Z</time>
  <course>359.73</course>
  <speed>0.49</speed>
  <fix>3d</fix>
</trkpt>
<trkpt lat="33.8102997" lon="-118.393867">
  <ele>-15.135</ele>
  <time>2026-09-02T22:13:16Z</time>
  <course>184.77</course>
  <speed>0.5200961449578337</speed>
  <fix>3d</fix>
</trkpt>
<trkpt lat="33.8102989" lon="-118.3938669">
  <ele>-14.77</ele>
  <time>2026-09-02T22:13:16Z</time>
  <course>359.94</course>
  <speed>0.49</speed>
  <fix>3d</fix>
</trkpt>
<trkpt lat="33.8103002" lon="-118.393867">
  <ele>-15.132</ele>
  <time>2026-09-02T22:13:16Z</time>
  <course>184.77</course>
  <speed>0.5200961449578337</speed>
  <fix>3d</fix>
</trkpt>
<trkpt lat="33.8102989" lon="-118.3938669">
  <ele>-14.77</ele>
  <time>2026-09-02T22:13:16Z</time>
  <course>359.94</course>
  <speed>0.49</speed>
  <fix>3d</fix>
</trkpt>
<trkpt lat="33.8103006" lon="-118.393867">
  <ele>-15.128</ele>
  <time>2026-09-02T22:13:16Z</time>
  <course>184.78</course>
  <speed>0.5200961449578337</speed>
  <fix>3d</fix>
</trkpt>
<trkpt lat="33.8102998" lon="-118.3938669">
  <ele>-14.77</ele>
  <time>2026-09-02T22:13:16Z</time>
  <course>0.1</course>
  <speed>0.49</speed>
  <fix>3d</fix>
</trkpt>
<trkpt lat="33.8103011" lon="-118.393867">
  <ele>-15.126</ele>
  <time>2026-09-02T22:13:16Z</time>
  <course>184.78</course>
  <speed>0.5200961449578337</speed>
  <fix>3d</fix>
</trkpt>
<trkpt lat="33.8102998" lon="-118.3938669">
  <ele>-14.77</ele>
  <time>2026-09-02T22:13:16Z</time>
  <course>0.1</course>
  <speed>0.49</speed>
  <fix>3d</fix>
</trkpt>
<trkpt lat="33.8103015" lon="-118.393867">
  <ele>-15.126</ele>
  <time>2026-09-02T22:13:16Z</time>
  <course>184.78</course>
  <speed>0.5200961449578337</speed>
  <fix>3d</fix>
</trkpt>
<trkpt lat="33.8103007" lon="-118.3938669">
  <ele>-14.76</ele>
  <time>2026-09-02T22:13:16Z</time>
  <course>0.22</course>
  <speed>0.49</speed>
  <fix>3d</fix>
</trkpt>
<trkpt lat="33.810302" lon="-118.393867">
  <ele>-15.128</ele>
  <time>2026-09-02T22:13:16Z</time>
  <course>184.78</course>
  <speed>0.5200961449578337</speed>
  <fix>3d</fix>
</trkpt>
<trkpt lat="33.8103007" lon="-118.3938669">
  <ele>-14.76</ele>
  <time>2026-09-02T22:13:16Z</time>
  <course>0.22</course>
  <speed>0.49</speed>
  <fix>3d</fix>
</trkpt>
<trkpt lat="33.8103024" lon="-118.393867">
  <ele>-15.128</ele>
  <time>2026-09-02T22:13:16Z</time>
  <course>184.78</course>
  <speed>0.5200961449578337</speed>
  <fix>3d</fix>
</trkpt>
<trkpt lat="33.8103016" lon="-118.3938669">
  <ele>-14.76</ele>
  <time>2026-09-02T22:13:16Z</time>
  <course>0.3</course>
  <speed>0.5</speed>
  <fix>3d</fix>
</trkpt>
<trkpt lat="33.8103029" lon="-118.393867">
  <ele>-15.129</ele>
  <time>2026-09-02T22:13:16Z</time>
  <course>184.78</course>
  <speed>0.5200961449578337</speed>
  <fix>3d</fix>
</trkpt>
<trkpt lat="33.8103016" lon="-118.3938669">
  <ele>-14.76</ele>
  <time>2026-09-02T22:13:16Z</time>
  <course>0.3</course>
  <speed>0.5</speed>
  <fix>3d</fix>
</trkpt>
<trkpt lat="33.8103033" lon="-118.393867">
  <ele>-15.131</ele>
  <time>2026-09-02T22:13:16Z</time>
  <course>184.78</course>
  <speed>0.5200961449578337</speed>
  <fix>3d</fix>
</trkpt>
<trkpt lat="33.8103025" lon="-118.3938669">
  <ele>-14.76</ele>
  <time>2026-09-02T22:13:16Z</time>
  <course>0.35</course>
  <speed>0.5</speed>
  <fix>3d</fix>
</trkpt>
<trkpt lat="33.8103038" lon="-118.393867">
  <ele>-15.133</ele>
  <time>2026-09-02T22:13:16Z</time>
  <course>184.78</course>
  <speed>0.5200961449578337</speed>
  <fix>3d</fix>
</trkpt>
<trkpt lat="33.8103025" lon="-118.3938669">
  <ele>-14.76</ele>
  <time>2026-09-02T22:13:16Z</time>
  <course>0.35</course>
  <speed>0.5</speed>
  <fix>3d</fix>
</trkpt>
<trkpt lat="33.8103042" lon="-118.393867">
  <ele>-15.134</ele>
  <time>2026-09-02T22:13:16Z</time>
  <course>184.78</course>
  <speed>0.5200961449578337</speed>
  <fix>3d</fix>
</trkpt>
<trkpt lat="33.8103034" lon="-118.3938669">
  <ele>-14.77</ele>
  <time>2026-09-02T22:13:16Z</time>
  <course>0.39</course>
  <speed>0.5</speed>
  <fix>3d</fix>
</trkpt>
<trkpt lat="33.8103047" lon="-118.393867">
  <ele>-15.135</ele>
  <time>2026-09-02T22:13:16Z</time>
  <course>184.78</course>
  <speed>0.5200961449578337</speed>
  <fix>3d</fix>
</trkpt>
<trkpt lat="33.8103034" lon="-118.3938669">
  <ele>-14.77</ele>
  <time>2026-09-02T22:13:16Z</time>
  <course>0.39</course>
  <speed>0.5</speed>
  <fix>3d</fix>
</trkpt>
<trkpt lat="33.8103051" lon="-118.393867">
  <ele>-15.134</ele>
  <time>2026-09-02T22:13:16Z</time>
  <course>184.78</course>
  <speed>0.5200961449578337</speed>
  <fix>3d</fix>
</trkpt>
<trkpt lat="33.8103043" lon="-118.3938669">
  <ele>-14.76</ele>
  <time>2026-09-02T22:13:16Z</time>
  <course>0.43</course>
  <speed>0.5</speed>
  <fix>3d</fix>
</trkpt>
<trkpt lat="33.8103056" lon="-118.393867">
  <ele>-15.133</ele>
  <time>2026-09-02T22:13:16Z</time>
  <course>184.78</course>
  <speed>0.5200961449578337</speed>
  <fix>3d</fix>
</trkpt>
<trkpt lat="33.8103043" lon="-118.3938669">
  <ele>-14.76</ele>
  <time>2026-09-02T22:13:16Z</time>
  <course>0.43</course>
  <speed>0.5</speed>
  <fix>3d</fix>
</trkpt>
<trkpt lat="33.810306" lon="-118.393867">
  <ele>-15.131</ele>
  <time>2026-09-02T22:13:16Z</time>
  <course>184.77</course>
  <speed>0.5200961449578337</speed>
  <fix>3d</fix>
</trkpt>
<trkpt lat="33.8103052" lon="-118.3938669">
  <ele>-14.76</ele>
  <time>2026-09-02T22:13:16Z</time>
  <course>0.47</course>
  <speed>0.5</speed>
  <fix>3d</fix>
</trkpt>
<trkpt lat="33.8103065" lon="-118.393867">
  <ele>-15.128</ele>
  <time>2026-09-02T22:13:16Z</time>
  <course>184.78</course>
  <speed>0.5200961449578337</speed>
  <fix>3d</fix>
</trkpt>
<trkpt lat="33.8103052" lon="-118.3938669">
  <ele>-14.76</ele>
  <time>2026-09-02T22:13:16Z</time>
  <course>0.47</course>
  <speed>0.5</speed>
  <fix>3d</fix>
</trkpt>
<trkpt lat="33.8103069" lon="-118.393867">
  <ele>-15.127</ele>
  <time>2026-09-02T22:13:16Z</time>
  <course>184.78</course>
  <speed>0.5200961449578337</speed>
  <fix>3d</fix>
</trkpt>
<trkpt lat="33.8103061" lon="-118.3938669">
  <ele>-14.76</ele>
  <time>2026-09-02T22:13:16Z</time>
  <course>0.5</course>
  <speed>0.5</speed>
  <fix>3d</fix>
</trkpt>
<trkpt lat="33.8103074" lon="-118.393867">
  <ele>-15.127</ele>
  <time>2026-09-02T22:13:16Z</time>
  <course>184.78</course>
  <speed>0.5200961449578337</speed>
  <fix>3d</fix>
</trkpt>
<trkpt lat="33.8103061" lon="-118.3938669">
  <ele>-14.76</ele>
  <time>2026-09-02T22:13:16Z</time>
  <course>0.5</course>
  <speed>0.5</speed>
  <fix>3d</fix>
</trkpt>
<trkpt lat="33.8103078" lon="-118.393867">
  <ele>-15.127</ele>
  <time>2026-09-02T22:13:16Z</time>
  <course>184.78</course>
  <speed>0.5200961449578337</speed>
  <fix>3d</fix>
</trkpt>
<trkpt lat="33.810307" lon="-118.3938669">
  <ele>-14.75</ele>
  <time>2026-09-02T22:13:16Z</time>
  <course>0.52</course>
  <speed>0.5</speed>
  <fix>3d</fix>
</trkpt>
<trkpt lat="33.8103083" lon="-118.393867">
  <ele>-15.127</ele>
  <time>2026-09-02T22:13:16Z</time>
  <course>184.77</course>
  <speed>0.5200961449578337</speed>
  <fix>3d</fix>
</trkpt>
<trkpt lat="33.810307" lon="-118.3938669">
  <ele>-14.75</ele>
  <time>2026-09-02T22:13:16Z</time>
  <course>0.52</course>
  <speed>0.5</speed>
  <fix>3d</fix>
</trkpt>
<trkpt lat="33.8103087" lon="-118.393867">
  <ele>-15.128</ele>
  <time>2026-09-02T22:13:16Z</time>
  <course>184.77</course>
  <speed>0.5200961449578337</speed>
  <fix>3d</fix>
</trkpt>
<trkpt lat="33.8103079" lon="-118.3938669">
  <ele>-14.75</ele>
  <time>2026-09-02T22:13:16Z</time>
  <course>0.56</course>
  <speed>0.5</speed>
  <fix>3d</fix>
</trkpt>
<trkpt lat="33.8103092" lon="-118.393867">
  <ele>-15.127</ele>
  <time>2026-09-02T22:13:16Z</time>
  <course>184.77</course>
  <speed>0.5200961449578337</speed>
  <fix>3d</fix>
</trkpt>
<trkpt lat="33.8103079" lon="-118.3938669">
  <ele>-14.75</ele>
  <time>2026-09-02T22:13:16Z</time>
  <course>0.56</course>
  <speed>0.5</speed>
  <fix>3d</fix>
</trkpt>
<trkpt lat="33.8103096" lon="-118.393867">
  <ele>-15.126</ele>
  <time>2026-09-02T22:13:16Z</time>
  <course>184.77</course>
  <speed>0.5200961449578337</speed>
  <fix>3d</fix>
</trkpt>
<trkpt lat="33.8103088" lon="-118.3938669">
  <ele>-14.75</ele>
  <time>2026-09-02T22:13:16Z</time>
  <course>0.6</course>
  <speed>0.5</speed>
  <fix>3d</fix>
</trkpt>
<trkpt lat="33.8103101" lon="-118.393867">
  <ele>-15.125</ele>
  <time>2026-09-02T22:13:16Z</time>
  <course>184.77</course>
  <speed>0.5200961449578337</speed>
  <fix>3d</fix>
</trkpt>
<trkpt lat="33.8103088" lon="-118.3938669">
  <ele>-14.75</ele>
  <time>2026-09-02T22:13:16Z</time>
  <course>0.6</course>
  <speed>0.5</speed>
  <fix>3d</fix>
</trkpt>
<trkpt lat="33.8103105" lon="-118.393867">
  <ele>-15.125</ele>
  <time>2026-09-02T22:13:16Z</time>
  <course>184.77</course>
  <speed>0.5200961449578337</speed>
  <fix>3d</fix>
</trkpt>
<trkpt lat="33.8103097" lon="-118.3938669">
  <ele>-14.76</ele>
  <time>2026-09-02T22:13:16Z</time>
  <course>0.64</course>
  <speed>0.5</speed>
  <fix>3d</fix>
</trkpt>
<trkpt lat="33.8103109" lon="-118.393867">
  <ele>-15.127</ele>
  <time>2026-09-02T22:13:16Z</time>
  <course>184.78</course>
  <speed>0.5200961449578337</speed>
  <fix>3d</fix>
</trkpt>
<trkpt lat="33.8103097" lon="-118.3938669">
  <ele>-14.76</ele>
  <time>2026-09-02T22:13:16Z</time>
  <course>0.64</course>
  <speed>0.5</speed>
  <fix>3d</fix>
</trkpt>
<trkpt lat="33.8103114" lon="-118.393867">
  <ele>-15.129</ele>
  <time>2026-09-02T22:13:16Z</time>
  <course>184.78</course>
  <speed>0.5200961449578337</speed>
  <fix>3d</fix>
</trkpt>
<trkpt lat="33.8103106" lon="-118.3938669">
  <ele>-14.76</ele>
  <time>2026-09-02T22:13:16Z</time>
  <course>0.67</course>
  <speed>0.5</speed>
  <fix>3d</fix>
</trkpt>
<trkpt lat="33.8103118" lon="-118.393867">
  <ele>-15.131</ele>
  <time>2026-09-02T22:13:16Z</time>
  <course>184.78</course>
  <speed>0.5200961449578337</speed>
  <fix>3d</fix>
</trkpt>
<trkpt lat="33.8103106" lon="-118.3938669">
  <ele>-14.76</ele>
  <time>2026-09-02T22:13:16Z</time>
  <course>0.67</course>
  <speed>0.5</speed>
  <fix>3d</fix>
</trkpt>
<trkpt lat="33.8103123" lon="-118.393867">
  <ele>-15.133</ele>
  <time>2026-09-02T22:13:16Z</time>
  <course>184.78</course>
  <speed>0.5200961449578337</speed>
  <fix>3d</fix>
</trkpt>
<trkpt lat="33.8103115" lon="-118.3938668">
  <ele>-14.76</ele>
  <time>2026-09-02T22:13:16Z</time>
  <course>0.7</course>
  <speed>0.5</speed>
  <fix>3d</fix>
</trkpt>
<trkpt lat="33.8103127" lon="-118.393867">
  <ele>-15.132</ele>
  <time>2026-09-02T22:13:16Z</time>
  <course>184.78</course>
  <speed>0.510098029794274</speed>
  <fix>3d</fix>
</trkpt>
<trkpt lat="33.8103115" lon="-118.3938668">
  <ele>-14.76</ele>
  <time>2026-09-02T22:13:16Z</time>
  <course>0.7</course>
  <speed>0.5</speed>
  <fix>3d</fix>
</trkpt>
<trkpt lat="33.8103132" lon="-118.393867">
  <ele>-15.131</ele>
  <time>2026-09-02T22:13:16Z</time>
  <course>184.78</course>
  <speed>0.4801041553663121</speed>
  <fix>3d</fix>
</trkpt>
<trkpt lat="33.8103124" lon="-118.3938668">
  <ele>-14.76</ele>
  <time>2026-09-02T22:13:16Z</time>
  <course>0.7</course>
  <speed>0.49</speed>
  <fix>3d</fix>
</trkpt>
<trkpt lat="33.8103135" lon="-118.393867">
  <ele>-15.13</ele>
  <time>2026-09-02T22:13:16Z</time>
  <course>184.77</course>
  <speed>0.4001249804748511</speed>
  <fix>3d</fix>
</trkpt>
<trkpt lat="33.8103124" lon="-118.3938668">
  <ele>-14.76</ele>
  <time>2026-09-02T22:13:16Z</time>
  <course>0.7</course>
  <speed>0.49</speed>
  <fix>3d</fix>
</trkpt>
<trkpt lat="33.8103139" lon="-118.393867">
  <ele>-15.127</ele>
  <time>2026-09-02T22:13:16Z</time>
  <course>184.75</course>
  <speed>0.3505709628591621</speed>
  <fix>3d</fix>
</trkpt>
<trkpt lat="33.8103133" lon="-118.3938668">
  <ele>-14.76</ele>
  <time>2026-09-02T22:13:16Z</time>
  <course>0.37</course>
  <speed>0.42</speed>
  <fix>3d</fix>
</trkpt>
<trkpt lat="33.8103141" lon="-118.393867">
  <ele>-15.124</ele>
  <time>2026-09-02T22:13:16Z</time>
  <course>184.73</course>
  <speed>0.30066592756745814</speed>
  <fix>3d</fix>
</trkpt>
<trkpt lat="33.8103133" lon="-118.3938668">
  <ele>-14.76</ele>
  <time>2026-09-02T22:13:16Z</time>
  <course>0.37</course>
  <speed>0.42</speed>
  <fix>3d</fix>
</trkpt>
<trkpt lat="33.8103144" lon="-118.393867">
  <ele>-15.122</ele>
  <time>2026-09-02T22:13:16Z</time>
  <course>184.7</course>
  <speed>0.2707397274136177</speed>
  <fix>3d</fix>
</trkpt>
<trkpt lat="33.810314" lon="-118.3938668">
  <ele>-14.75</ele>
  <time>2026-09-02T22:13:16Z</time>
  <course>359.42</course>
  <speed>0.32</speed>
  <fix>3d</fix>
</trkpt>
<trkpt lat="33.8103146" lon="-118.393867">
  <ele>-15.118</ele>
  <time>2026-09-02T22:13:16Z</time>
  <course>184.68</course>
  <speed>0.24186773244895649</speed>
  <fix>3d</fix>
</trkpt>
<trkpt lat="33.810314" lon="-118.3938668">
  <ele>-14.75</ele>
  <time>2026-09-02T22:13:16Z</time>
  <course>359.42</course>
  <speed>0.32</speed>
  <fix>3d</fix>
</trkpt>
<trkpt lat="33.8103148" lon="-118.393867">
  <ele>-15.115</ele>
  <time>2026-09-02T22:13:16Z</time>
  <course>184.66</course>
  <speed>0.2220360331117452</speed>
  <fix>3d</fix>
</trkpt>
<trkpt lat="33.8103145" lon="-118.3938668">
  <ele>-14.75</ele>
  <time>2026-09-02T22:13:16Z</time>
  <course>358.15</course>
  <speed>0.25</speed>
  <fix>3d</fix>
</trkpt>
<trkpt lat="33.810315" lon="-118.393867">
  <ele>-15.111</ele>
  <time>2026-09-02T22:13:16Z</time>
  <course>184.64</course>
  <speed>0.21213203435596426</speed>
  <fix>3d</fix>
</trkpt>
<trkpt lat="33.8103145" lon="-118.3938668">
  <ele>-14.75</ele>
  <time>2026-09-02T22:13:16Z</time>
  <course>358.15</course>
  <speed>0.25</speed>
  <fix>3d</fix>
</trkpt>
<trkpt lat="33.8103152" lon="-118.393867">
  <ele>-15.107</ele>
  <time>2026-09-02T22:13:16Z</time>
  <course>184.62</course>
  <speed>0.19235384061671343</speed>
  <fix>3d</fix>
</trkpt>
<trkpt lat="33.8103148" lon="-118.3938668">
  <ele>-14.74</ele>
  <time>2026-09-02T22:13:16Z</time>
  <course>356.97</course>
  <speed>0.2</speed>
  <fix>3d</fix>
</trkpt>
<trkpt lat="33.8103153" lon="-118.393867">
  <ele>-15.102</ele>
  <time>2026-09-02T22:13:16Z</time>
  <course>184.59</course>
  <speed>0.1824828759089466</speed>
  <fix>3d</fix>
</trkpt>
<trkpt lat="33.8103148" lon="-118.3938668">
  <ele>-14.74</ele>
  <time>2026-09-02T22:13:16Z</time>
  <course>356.97</course>
  <speed>0.2</speed>
  <fix>3d</fix>
</trkpt>
<trkpt lat="33.8103155" lon="-118.393867">
  <ele>-15.097</ele>
  <time>2026-09-02T22:13:16Z</time>
  <course>184.58</course>
  <speed>0.17262676501632068</speed>
  <fix>3d</fix>
</trkpt>
<trkpt lat="33.8103152" lon="-118.3938668">
  <ele>-14.73</ele>
  <time>2026-09-02T22:13:16Z</time>
  <course>355.88</course>
  <speed>0.17</speed>
  <fix>3d</fix>
</trkpt>
<trkpt lat="33.8103156" lon="-118.393867">
  <ele>-15.091</ele>
  <time>2026-09-02T22:13:16Z</time>
  <course>184.56</course>
  <speed>0.16278820596099705</speed>
  <fix>3d</fix>
</trkpt>
<trkpt lat="33.8103152" lon="-118.3938668">
  <ele>-14.73</ele>
  <time>2026-09-02T22:13:16Z</time>
  <course>355.88</course>
  <speed>0.17</speed>
  <fix>3d</fix>
</trkpt>
<trkpt lat="33.8103158" lon="-118.3938671">
  <ele>-15.083</ele>
  <time>2026-09-02T22:13:17Z</time>
  <course>184.54</course>
  <speed>0.15297058540778355</speed>
  <fix>3d</fix>
</trkpt>
<trkpt lat="33.8103155" lon="-118.3938668">
  <ele>-14.72</ele>
  <time>2026-09-02T22:13:17Z</time>
  <course>354.85</course>
  <speed>0.14</speed>
  <fix>3d</fix>
</trkpt>
<trkpt lat="33.8103159" lon="-118.3938671">
  <ele>-15.074</ele>
  <time>2026-09-02T22:13:17Z</time>
  <course>184.52</course>
  <speed>0.15297058540778355</speed>
  <fix>3d</fix>
</trkpt>
<trkpt lat="33.8103155" lon="-118.3938668">
  <ele>-14.72</ele>
  <time>2026-09-02T22:13:17Z</time>
  <course>354.85</course>
  <speed>0.14</speed>
  <fix>3d</fix>
</trkpt>
<trkpt lat="33.810316" lon="-118.3938671">
  <ele>-15.066</ele>
  <time>2026-09-02T22:13:17Z</time>
  <course>184.51</course>
  <speed>0.14317821063276354</speed>
  <fix>3d</fix>
</trkpt>
<trkpt lat="33.8103158" lon="-118.3938668">
  <ele>-14.71</ele>
  <time>2026-09-02T22:13:17Z</time>
  <course>353.9</course>
  <speed>0.13</speed>
  <fix>3d</fix>
</trkpt>
<trkpt lat="33.8103161" lon="-118.3938671">
  <ele>-15.057</ele>
  <time>2026-09-02T22:13:17Z</time>
  <course>184.49</course>
  <speed>0.13341664064126335</speed>
  <fix>3d</fix>
</trkpt>
<trkpt lat="33.8103158" lon="-118.3938668">
  <ele>-14.71</ele>
  <time>2026-09-02T22:13:17Z</time>
  <course>353.9</course>
  <speed>0.13</speed>
  <fix>3d</fix>
</trkpt>
<trkpt lat="33.8103162" lon="-118.3938671">
  <ele>-15.049</ele>
  <time>2026-09-02T22:13:17Z</time>
  <course>184.48</course>
  <speed>0.13341664064126335</speed>
  <fix>3d</fix>
</trkpt>
<trkpt lat="33.810316" lon="-118.3938669">
  <ele>-14.69</ele>
  <time>2026-09-02T22:13:17Z</time>
  <course>352.99</course>
  <speed>0.11</speed>
  <fix>3d</fix>
</trkpt>
<trkpt lat="33.8103163" lon="-118.3938671">
  <ele>-15.041</ele>
  <time>2026-09-02T22:13:17Z</time>
  <course>184.47</course>
  <speed>0.12369316876852982</speed>
  <fix>3d</fix>
</trkpt>
<trkpt lat="33.810316" lon="-118.3938669">
  <ele>-14.69</ele>
  <time>2026-09-02T22:13:17Z</time>
  <course>352.99</course>
  <speed>0.11</speed>
  <fix>3d</fix>
</trkpt>
<trkpt lat="33.8103164" lon="-118.3938671">
  <ele>-15.033</ele>
  <time>2026-09-02T22:13:17Z</time>
  <course>184.46</course>
  <speed>0.12369316876852982</speed>
  <fix>3d</fix>
</trkpt>
<trkpt lat="33.8103162" lon="-118.3938669">
  <ele>-14.68</ele>
  <time>2026-09-02T22:13:17Z</time>
  <course>352.14</course>
  <speed>0.1</speed>
  <fix>3d</fix>
</trkpt>
<trkpt lat="33.8103165" lon="-118.3938671">
  <ele>-15.024</ele>
  <time>2026-09-02T22:13:17Z</time>
  <course>184.45</course>
  <speed>0.12369316876852982</speed>
  <fix>3d</fix>
</trkpt>
<trkpt lat="33.8103162" lon="-118.3938669">
  <ele>-14.68</ele>
  <time>2026-09-02T22:13:17Z</time>
  <course>352.14</course>
  <speed>0.1</speed>
  <fix>3d</fix>
</trkpt>
<trkpt lat="33.8103166" lon="-118.3938671">
  <ele>-15.015</ele>
  <time>2026-09-02T22:13:17Z</time>
  <course>184.44</course>
  <speed>0.11401754250991379</speed>
  <fix>3d</fix>
</trkpt>
<trkpt lat="33.8103164" lon="-118.3938669">
  <ele>-14.66</ele>
  <time>2026-09-02T22:13:17Z</time>
  <course>351.34</course>
  <speed>0.09</speed>
  <fix>3d</fix>
</trkpt>
<trkpt lat="33.8103167" lon="-118.3938671">
  <ele>-15.005</ele>
  <time>2026-09-02T22:13:17Z</time>
  <course>184.43</course>
  <speed>0.11401754250991379</speed>
  <fix>3d</fix>
</trkpt>
<trkpt lat="33.8103164" lon="-118.3938669">
  <ele>-14.66</ele>
  <time>2026-09-02T22:13:17Z</time>
  <course>351.34</course>
  <speed>0.09</speed>
  <fix>3d</fix>
</trkpt>
<trkpt lat="33.8103168" lon="-118.3938671">
  <ele>-14.994</ele>
  <time>2026-09-02T22:13:17Z</time>
  <course>184.42</course>
  <speed>0.1019803902718557</speed>
  <fix>3d</fix>
</trkpt>
<trkpt lat="33.8103165" lon="-118.393867">
  <ele>-14.65</ele>
  <time>2026-09-02T22:13:17Z</time>
  <course>350.59</course>
  <speed>0.09</speed>
  <fix>3d</fix>
</trkpt>
<trkpt lat="33.8103169" lon="-118.3938671">
  <ele>-14.983</ele>
  <time>2026-09-02T22:13:17Z</time>
  <course>184.42</course>
  <speed>0.1019803902718557</speed>
  <fix>3d</fix>
</trkpt>
<trkpt lat="33.8103165" lon="-118.393867">
  <ele>-14.65</ele>
  <time>2026-09-02T22:13:17Z</time>
  <course>350.59</course>
  <speed>0.09</speed>
  <fix>3d</fix>
</trkpt>
<trkpt lat="33.8103169" lon="-118.3938672">
  <ele>-14.972</ele>
  <time>2026-09-02T22:13:17Z</time>
  <course>184.41</course>
  <speed>0.1019803902718557</speed>
  <fix>3d</fix>
</trkpt>
<trkpt lat="33.8103167" lon="-118.393867">
  <ele>-14.63</ele>
  <time>2026-09-02T22:13:17Z</time>
  <course>349.89</course>
  <speed>0.08</speed>
  <fix>3d</fix>
</trkpt>
<trkpt lat="33.810317" lon="-118.3938672">
  <ele>-14.962</ele>
  <time>2026-09-02T22:13:17Z</time>
  <course>184.4</course>
  <speed>0.1019803902718557</speed>
  <fix>3d</fix>
</trkpt>
<trkpt lat="33.8103167" lon="-118.393867">
  <ele>-14.63</ele>
  <time>2026-09-02T22:13:17Z</time>
  <course>349.89</course>
  <speed>0.08</speed>
  <fix>3d</fix>
</trkpt>
<trkpt lat="33.8103173" lon="-118.3938672">
  <ele>-14.924</ele>
  <time>2026-09-02T22:13:17Z</time>
  <course>184.38</course>
  <speed>0.09219544457292887</speed>
  <fix>3d</fix>
</trkpt>
<trkpt lat="33.810317" lon="-118.393867">
  <ele>-14.6</ele>
  <time>2026-09-02T22:13:17Z</time>
  <course>348.57</course>
  <speed>0.07</speed>
  <fix>3d</fix>
</trkpt>
<trkpt lat="33.8103174" lon="-118.3938672">
  <ele>-14.894</ele>
  <time>2026-09-02T22:13:17Z</time>
  <course>184.37</course>
  <speed>0.0824621125123532</speed>
  <fix>3d</fix>
</trkpt>
<trkpt lat="33.8103172" lon="-118.3938671">
  <ele>-14.55</ele>
  <time>2026-09-02T22:13:17Z</time>
  <course>347.38</course>
  <speed>0.06</speed>
  <fix>3d</fix>
</trkpt>
<trkpt lat="33.8103175" lon="-118.3938672">
  <ele>-14.883</ele>
  <time>2026-09-02T22:13:17Z</time>
  <course>184.37</course>
  <speed>0.0824621125123532</speed>
  <fix>3d</fix>
</trkpt>
<trkpt lat="33.8103172" lon="-118.3938671">
  <ele>-14.55</ele>
  <time>2026-09-02T22:13:17Z</time>
  <course>347.38</course>
  <speed>0.06</speed>
  <fix>3d</fix>
</trkpt>
<trkpt lat="33.8103175" lon="-118.3938672">
  <ele>-14.872</ele>
  <time>2026-09-02T22:13:17Z</time>
  <course>184.37</course>
  <speed>0.07280109889280519</speed>
  <fix>3d</fix>
</trkpt>
<trkpt lat="33.8103173" lon="-118.3938671">
  <ele>-14.54</ele>
  <time>2026-09-02T22:13:17Z</time>
  <course>346.84</course>
  <speed>0.06</speed>
  <fix>3d</fix>
</trkpt>
<trkpt lat="33.8103176" lon="-118.3938673">
  <ele>-14.862</ele>
  <time>2026-09-02T22:13:17Z</time>
  <course>184.37</course>
  <speed>0.07280109889280519</speed>
  <fix>3d</fix>
</trkpt>
<trkpt lat="33.8103173" lon="-118.3938671">
  <ele>-14.54</ele>
  <time>2026-09-02T22:13:17Z</time>
  <course>346.84</course>
  <speed>0.06</speed>
  <fix>3d</fix>
</trkpt>
<trkpt lat="33.8103176" lon="-118.3938673">
  <ele>-14.853</ele>
  <time>2026-09-02T22:13:17Z</time>
  <course>184.36</course>
  <speed>0.07280109889280519</speed>
  <fix>3d</fix>
</trkpt>
<trkpt lat="33.8103174" lon="-118.3938672">
  <ele>-14.52</ele>
  <time>2026-09-02T22:13:17Z</time>
  <course>346.33</course>
  <speed>0.05</speed>
  <fix>3d</fix>
</trkpt>
<trkpt lat="33.8103177" lon="-118.3938673">
  <ele>-14.845</ele>
  <time>2026-09-02T22:13:17Z</time>
  <course>184.36</course>
  <speed>0.07280109889280519</speed>
  <fix>3d</fix>
</trkpt>
<trkpt lat="33.8103174" lon="-118.3938672">
  <ele>-14.52</ele>
  <time>2026-09-02T22:13:17Z</time>
  <course>346.33</course>
  <speed>0.05</speed>
  <fix>3d</fix>
</trkpt>
<trkpt lat="33.8103177" lon="-118.3938673">
  <ele>-14.836</ele>
  <time>2026-09-02T22:13:17Z</time>
  <course>184.36</course>
  <speed>0.07280109889280519</speed>
  <fix>3d</fix>
</trkpt>
<trkpt lat="33.8103175" lon="-118.3938672">
  <ele>-14.5</ele>
  <time>2026-09-02T22:13:17Z</time>
  <course>345.85</course>
  <speed>0.05</speed>
  <fix>3d</fix>
</trkpt>
<trkpt lat="33.8103178" lon="-118.3938673">
  <ele>-14.828</ele>
  <time>2026-09-02T22:13:17Z</time>
  <course>184.36</course>
  <speed>0.07280109889280519</speed>
  <fix>3d</fix>
</trkpt>
<trkpt lat="33.8103175" lon="-118.3938672">
  <ele>-14.5</ele>
  <time>2026-09-02T22:13:17Z</time>
  <course>345.85</course>
  <speed>0.05</speed>
  <fix>3d</fix>
</trkpt>
<trkpt lat="33.8103178" lon="-118.3938673">
  <ele>-14.819</ele>
  <time>2026-09-02T22:13:17Z</time>
  <course>184.36</course>
  <speed>0.0632455532033676</speed>
  <fix>3d</fix>
</trkpt>
<trkpt lat="33.8103176" lon="-118.3938672">
  <ele>-14.49</ele>
  <time>2026-09-02T22:13:17Z</time>
  <course>345.38</course>
  <speed>0.05</speed>
  <fix>3d</fix>
</trkpt>
<trkpt lat="33.8103178" lon="-118.3938673">
  <ele>-14.81</ele>
  <time>2026-09-02T22:13:17Z</time>
  <course>184.36</course>
  <speed>0.0632455532033676</speed>
  <fix>3d</fix>
</trkpt>
<trkpt lat="33.8103176" lon="-118.3938672">
  <ele>-14.49</ele>
  <time>2026-09-02T22:13:17Z</time>
  <course>345.38</course>
  <speed>0.05</speed>
  <fix>3d</fix>
</trkpt>
<trkpt lat="33.8103179" lon="-118.3938673">
  <ele>-14.801</ele>
  <time>2026-09-02T22:13:17Z</time>
  <course>184.36</course>
  <speed>0.0632455532033676</speed>
  <fix>3d</fix>
</trkpt>
<trkpt lat="33.8103177" lon="-118.3938673">
  <ele>-14.46</ele>
  <time>2026-09-02T22:13:17Z</time>
  <course>344.92</course>
  <speed>0.05</speed>
  <fix>3d</fix>
</trkpt>
<trkpt lat="33.8103179" lon="-118.3938674">
  <ele>-14.791</ele>
  <time>2026-09-02T22:13:17Z</time>
  <course>184.36</course>
  <speed>0.0632455532033676</speed>
  <fix>3d</fix>
</trkpt>
<trkpt lat="33.8103177" lon="-118.3938673">
  <ele>-14.46</ele>
  <time>2026-09-02T22:13:17Z</time>
  <course>344.92</course>
  <speed>0.05</speed>
  <fix>3d</fix>
</trkpt>
<trkpt lat="33.810318" lon="-118.3938674">
  <ele>-14.782</ele>
  <time>2026-09-02T22:13:17Z</time>
  <course>184.36</course>
  <speed>0.0632455532033676</speed>
  <fix>3d</fix>
</trkpt>
<trkpt lat="33.8103178" lon="-118.3938673">
  <ele>-14.45</ele>
  <time>2026-09-02T22:13:17Z</time>
  <course>344.48</course>
  <speed>0.04</speed>
  <fix>3d</fix>
</trkpt>
<trkpt lat="33.810318" lon="-118.3938674">
  <ele>-14.773</ele>
  <time>2026-09-02T22:13:17Z</time>
  <course>184.36</course>
  <speed>0.0632455532033676</speed>
  <fix>3d</fix>
</trkpt>
<trkpt lat="33.8103178" lon="-118.3938673">
  <ele>-14.45</ele>
  <time>2026-09-02T22:13:17Z</time>
  <course>344.48</course>
  <speed>0.04</speed>
  <fix>3d</fix>
</trkpt>
<trkpt lat="33.810318" lon="-118.3938674">
  <ele>-14.764</ele>
  <time>2026-09-02T22:13:17Z</time>
  <course>184.36</course>
  <speed>0.0632455532033676</speed>
  <fix>3d</fix>
</trkpt>
<trkpt lat="33.8103179" lon="-118.3938673">
  <ele>-14.43</ele>
  <time>2026-09-02T22:13:17Z</time>
  <course>344.07</course>
  <speed>0.04</speed>
  <fix>3d</fix>
</trkpt>
<trkpt lat="33.8103181" lon="-118.3938674">
  <ele>-14.755</ele>
  <time>2026-09-02T22:13:17Z</time>
  <course>184.36</course>
  <speed>0.0632455532033676</speed>
  <fix>3d</fix>
</trkpt>
<trkpt lat="33.8103179" lon="-118.3938673">
  <ele>-14.43</ele>
  <time>2026-09-02T22:13:17Z</time>
  <course>344.07</course>
  <speed>0.04</speed>
  <fix>3d</fix>
</trkpt>
<trkpt lat="33.8103181" lon="-118.3938674">
  <ele>-14.745</ele>
  <time>2026-09-02T22:13:17Z</time>
  <course>184.36</course>
  <speed>0.0632455532033676</speed>
  <fix>3d</fix>
</trkpt>
<trkpt lat="33.8103179" lon="-118.3938673">
  <ele>-14.41</ele>
  <time>2026-09-02T22:13:17Z</time>
  <course>343.68</course>
  <speed>0.04</speed>
  <fix>3d</fix>
</trkpt>
<trkpt lat="33.8103181" lon="-118.3938674">
  <ele>-14.735</ele>
  <time>2026-09-02T22:13:17Z</time>
  <course>184.36</course>
  <speed>0.053851648071345036</speed>
  <fix>3d</fix>
</trkpt>
<trkpt lat="33.8103179" lon="-118.3938673">
  <ele>-14.41</ele>
  <time>2026-09-02T22:13:17Z</time>
  <course>343.68</course>
  <speed>0.04</speed>
  <fix>3d</fix>
</trkpt>
<trkpt lat="33.8103182" lon="-118.3938674">
  <ele>-14.725</ele>
  <time>2026-09-02T22:13:17Z</time>
  <course>184.36</course>
  <speed>0.053851648071345036</speed>
  <fix>3d</fix>
</trkpt>
<trkpt lat="33.810318" lon="-118.3938674">
  <ele>-14.38</ele>
  <time>2026-09-02T22:13:17Z</time>
  <course>343.32</course>
  <speed>0.04</speed>
  <fix>3d</fix>
</trkpt>
<trkpt lat="33.8103182" lon="-118.3938675">
  <ele>-14.717</ele>
  <time>2026-09-02T22:13:17Z</time>
  <course>184.36</course>
  <speed>0.053851648071345036</speed>
  <fix>3d</fix>
</trkpt>
<trkpt lat="33.810318" lon="-118.3938674">
  <ele>-14.38</ele>
  <time>2026-09-02T22:13:17Z</time>
  <course>343.32</course>
  <speed>0.04</speed>
  <fix>3d</fix>
</trkpt>
<trkpt lat="33.8103182" lon="-118.3938675">
  <ele>-14.709</ele>
  <time>2026-09-02T22:13:17Z</time>
  <course>184.36</course>
  <speed>0.053851648071345036</speed>
  <fix>3d</fix>
</trkpt>
<trkpt lat="33.8103181" lon="-118.3938674">
  <ele>-14.37</ele>
  <time>2026-09-02T22:13:17Z</time>
  <course>342.97</course>
  <speed>0.04</speed>
  <fix>3d</fix>
</trkpt>
<trkpt lat="33.8103183" lon="-118.3938675">
  <ele>-14.7</ele>
  <time>2026-09-02T22:13:17Z</time>
  <course>184.36</course>
  <speed>0.053851648071345036</speed>
  <fix>3d</fix>
</trkpt>
<trkpt lat="33.8103181" lon="-118.3938674">
  <ele>-14.37</ele>
  <time>2026-09-02T22:13:17Z</time>
  <course>342.97</course>
  <speed>0.04</speed>
  <fix>3d</fix>
</trkpt>
<trkpt lat="33.8103183" lon="-118.3938675">
  <ele>-14.691</ele>
  <time>2026-09-02T22:13:17Z</time>
  <course>184.36</course>
  <speed>0.053851648071345036</speed>
  <fix>3d</fix>
</trkpt>
<trkpt lat="33.8103182" lon="-118.3938674">
  <ele>-14.35</ele>
  <time>2026-09-02T22:13:17Z</time>
  <course>342.61</course>
  <speed>0.04</speed>
  <fix>3d</fix>
</trkpt>
<trkpt lat="33.8103183" lon="-118.3938675">
  <ele>-14.682</ele>
  <time>2026-09-02T22:13:17Z</time>
  <course>184.36</course>
  <speed>0.053851648071345036</speed>
  <fix>3d</fix>
</trkpt>
<trkpt lat="33.8103182" lon="-118.3938674">
  <ele>-14.35</ele>
  <time>2026-09-02T22:13:17Z</time>
  <course>342.61</course>
  <speed>0.04</speed>
  <fix>3d</fix>
</trkpt>
<trkpt lat="33.8103184" lon="-118.3938675">
  <ele>-14.673</ele>
  <time>2026-09-02T22:13:17Z</time>
  <course>184.36</course>
  <speed>0.053851648071345036</speed>
  <fix>3d</fix>
</trkpt>
<trkpt lat="33.8103182" lon="-118.3938675">
  <ele>-14.33</ele>
  <time>2026-09-02T22:13:17Z</time>
  <course>342.27</course>
  <speed>0.03</speed>
  <fix>3d</fix>
</trkpt>
<trkpt lat="33.8103184" lon="-118.3938676">
  <ele>-14.664</ele>
  <time>2026-09-02T22:13:17Z</time>
  <course>184.36</course>
  <speed>0.053851648071345036</speed>
  <fix>3d</fix>
</trkpt>
<trkpt lat="33.8103182" lon="-118.3938675">
  <ele>-14.33</ele>
  <time>2026-09-02T22:13:17Z</time>
  <course>342.27</course>
  <speed>0.03</speed>
  <fix>3d</fix>
</trkpt>
<trkpt lat="33.8103184" lon="-118.3938676">
  <ele>-14.655</ele>
  <time>2026-09-02T22:13:17Z</time>
  <course>184.36</course>
  <speed>0.053851648071345036</speed>
  <fix>3d</fix>
</trkpt>
<trkpt lat="33.8103183" lon="-118.3938675">
  <ele>-14.32</ele>
  <time>2026-09-02T22:13:17Z</time>
  <course>341.94</course>
  <speed>0.03</speed>
  <fix>3d</fix>
</trkpt>
<trkpt lat="33.4368002" lon="-117.0859339">
  <ele>-0.11</ele>
  <time>2026-09-02T22:13:17Z</time>
  <course>0.0</course>
  <speed>0.0</speed>
  <fix>3d</fix>
</trkpt>
<trkpt lat="33.4368002" lon="-117.0859339">
  <ele>-0.11</ele>
  <time>2026-09-02T22:13:17Z</time>
  <course>0.0</course>
  <speed>0.0</speed>
  <fix>3d</fix>
</trkpt>
<trkpt lat="33.810313" lon="-118.393867">
  <ele>0.0</ele>
  <time>2026-09-02T22:13:17Z</time>
  <course>173.5</course>
  <speed>0.0</speed>
  <fix>3d</fix>
</trkpt>
<trkpt lat="33.810313" lon="-118.393867">
  <ele>-0.11</ele>
  <time>2026-09-02T22:13:17Z</time>
  <course>0.0</course>
  <speed>0.0</speed>
  <fix>3d</fix>
</trkpt>
<trkpt lat="33.810313" lon="-118.393867">
  <ele>0.0</ele>
  <time>2026-09-02T22:13:17Z</time>
  <course>173.61</course>
  <speed>0.0</speed>
  <fix>3d</fix>
</trkpt>
<trkpt lat="33.810313" lon="-118.393867">
  <ele>-0.11</ele>
  <time>2026-09-02T22:13:17Z</time>
  <course>0.0</course>
  <speed>0.0</speed>
  <fix>3d</fix>
</trkpt>
<trkpt lat="33.810313" lon="-118.393867">
  <ele>0.0</ele>
  <time>2026-09-02T22:13:17Z</time>
  <course>173.98</course>
  <speed>0.0</speed>
  <fix>3d</fix>
</trkpt>
<trkpt lat="33.810313" lon="-118.393867">
  <ele>-0.11</ele>
  <time>2026-09-02T22:13:17Z</time>
  <course>0.0</course>
  <speed>0.0</speed>
  <fix>3d</fix>
</trkpt>
<trkpt lat="33.810313" lon="-118.393867">
  <ele>0.0</ele>
  <time>2026-09-02T22:13:17Z</time>
  <course>174.51</course>
  <speed>0.0</speed>
  <fix>3d</fix>
</trkpt>
<trkpt lat="33.810313" lon="-118.393867">
  <ele>-0.11</ele>
  <time>2026-09-02T22:13:17Z</time>
  <course>0.0</course>
  <speed>0.0</speed>
  <fix>3d</fix>
</trkpt>
<trkpt lat="33.810313" lon="-118.393867">
  <ele>0.0</ele>
  <time>2026-09-02T22:13:17Z</time>
  <course>175.07</course>
  <speed>0.0</speed>
  <fix>3d</fix>
</trkpt>
<trkpt lat="33.810313" lon="-118.393867">
  <ele>-0.12</ele>
  <time>2026-09-02T22:13:17Z</time>
  <course>0.0</course>
  <speed>0.0</speed>
  <fix>3d</fix>
</trkpt>
<trkpt lat="33.810313" lon="-118.393867">
  <ele>0.0</ele>
  <time>2026-09-02T22:13:17Z</time>
  <course>175.61</course>
  <speed>0.0</speed>
  <fix>3d</fix>
</trkpt>
<trkpt lat="33.810313" lon="-118.393867">
  <ele>-0.12</ele>
  <time>2026-09-02T22:13:17Z</time>
  <course>0.0</course>
  <speed>0.0</speed>
  <fix>3d</fix>
</trkpt>
<trkpt lat="33.810313" lon="-118.393867">
  <ele>0.0</ele>
  <time>2026-09-02T22:13:17Z</time>
  <course>176.12</course>
  <speed>0.0</speed>
  <fix>3d</fix>
</trkpt>
<trkpt lat="33.810313" lon="-118.393867">
  <ele>-0.13</ele>
  <time>2026-09-02T22:13:17Z</time>
  <course>0.0</course>
  <speed>0.0</speed>
  <fix>3d</fix>
</trkpt>
<trkpt lat="33.810313" lon="-118.393867">
  <ele>0.0</ele>
  <time>2026-09-02T22:13:17Z</time>
  <course>176.6</course>
  <speed>0.0</speed>
  <fix>3d</fix>
</trkpt>
<trkpt lat="33.810313" lon="-118.393867">
  <ele>-0.13</ele>
  <time>2026-09-02T22:13:17Z</time>
  <course>0.0</course>
  <speed>0.0</speed>
  <fix>3d</fix>
</trkpt>
<trkpt lat="33.810313" lon="-118.393867">
  <ele>0.0</ele>
  <time>2026-09-02T22:13:17Z</time>
  <course>177.07</course>
  <speed>0.0</speed>
  <fix>3d</fix>
</trkpt>
<trkpt lat="33.810313" lon="-118.393867">
  <ele>-0.13</ele>
  <time>2026-09-02T22:13:17Z</time>
  <course>0.0</course>
  <speed>0.0</speed>
  <fix>3d</fix>
</trkpt>
<trkpt lat="33.810313" lon="-118.393867">
  <ele>0.0</ele>
  <time>2026-09-02T22:13:17Z</time>
  <course>177.53</course>
  <speed>0.0</speed>
  <fix>3d</fix>
</trkpt>
<trkpt lat="33.810313" lon="-118.393867">
  <ele>-0.13</ele>
  <time>2026-09-02T22:13:17Z</time>
  <course>0.0</course>
  <speed>0.0</speed>
  <fix>3d</fix>
</trkpt>
<trkpt lat="33.810313" lon="-118.393867">
  <ele>0.0</ele>
  <time>2026-09-02T22:13:17Z</time>
  <course>177.97</course>
  <speed>0.0</speed>
  <fix>3d</fix>
</trkpt>
<trkpt lat="33.810313" lon="-118.393867">
  <ele>-0.14</ele>
  <time>2026-09-02T22:13:17Z</time>
  <course>0.0</course>
  <speed>0.0</speed>
  <fix>3d</fix>
</trkpt>
<trkpt lat="33.810313" lon="-118.393867">
  <ele>0.0</ele>
  <time>2026-09-02T22:13:17Z</time>
  <course>178.4</course>
  <speed>0.0</speed>
  <fix>3d</fix>
</trkpt>
<trkpt lat="33.810313" lon="-118.393867">
  <ele>-0.14</ele>
  <time>2026-09-02T22:13:17Z</time>
  <course>0.0</course>
  <speed>0.0</speed>
  <fix>3d</fix>
</trkpt>
<trkpt lat="33.810313" lon="-118.393867">
  <ele>0.0</ele>
  <time>2026-09-02T22:13:17Z</time>
  <course>178.82</course>
  <speed>0.0</speed>
  <fix>3d</fix>
</trkpt>
<trkpt lat="33.810313" lon="-118.393867">
  <ele>-0.14</ele>
  <time>2026-09-02T22:13:17Z</time>
  <course>0.0</course>
  <speed>0.0</speed>
  <fix>3d</fix>
</trkpt>
<trkpt lat="33.810313" lon="-118.393867">
  <ele>0.0</ele>
  <time>2026-09-02T22:13:17Z</time>
  <course>179.23</course>
  <speed>0.0</speed>
  <fix>3d</fix>
</trkpt>
<trkpt lat="33.810313" lon="-118.393867">
  <ele>-0.14</ele>
  <time>2026-09-02T22:13:17Z</time>
  <course>0.0</course>
  <speed>0.0</speed>
  <fix>3d</fix>
</trkpt>
<trkpt lat="33.810313" lon="-118.393867">
  <ele>0.0</ele>
  <time>2026-09-02T22:13:17Z</time>
  <course>179.62</course>
  <speed>0.0</speed>
  <fix>3d</fix>
</trkpt>
<trkpt lat="33.810313" lon="-118.393867">
  <ele>-0.14</ele>
  <time>2026-09-02T22:13:17Z</time>
  <course>0.0</course>
  <speed>0.0</speed>
  <fix>3d</fix>
</trkpt>
<trkpt lat="33.810313" lon="-118.393867">
  <ele>0.0</ele>
  <time>2026-09-02T22:13:17Z</time>
  <course>180.01</course>
  <speed>0.0</speed>
  <fix>3d</fix>
</trkpt>
<trkpt lat="33.810313" lon="-118.393867">
  <ele>-0.14</ele>
  <time>2026-09-02T22:13:17Z</time>
  <course>0.0</course>
  <speed>0.0</speed>
  <fix>3d</fix>
</trkpt>
<trkpt lat="33.810313" lon="-118.393867">
  <ele>0.0</ele>
  <time>2026-09-02T22:13:17Z</time>
  <course>180.37</course>
  <speed>0.0</speed>
  <fix>3d</fix>
</trkpt>
<trkpt lat="33.810313" lon="-118.393867">
  <ele>-0.14</ele>
  <time>2026-09-02T22:13:17Z</time>
  <course>0.0</course>
  <speed>0.0</speed>
  <fix>3d</fix>
</trkpt>
<trkpt lat="33.810313" lon="-118.393867">
  <ele>0.0</ele>
  <time>2026-09-02T22:13:17Z</time>
  <course>180.73</course>
  <speed>0.0</speed>
  <fix>3d</fix>
</trkpt>
<trkpt lat="33.810313" lon="-118.393867">
  <ele>-0.14</ele>
  <time>2026-09-02T22:13:17Z</time>
  <course>0.0</course>
  <speed>0.0</speed>
  <fix>3d</fix>
</trkpt>
<trkpt lat="33.810313" lon="-118.393867">
  <ele>0.0</ele>
  <time>2026-09-02T22:13:17Z</time>
  <course>181.07</course>
  <speed>0.0</speed>
  <fix>3d</fix>
</trkpt>
<trkpt lat="33.810313" lon="-118.393867">
  <ele>-0.13</ele>
  <time>2026-09-02T22:13:17Z</time>
  <course>0.0</course>
  <speed>0.0</speed>
  <fix>3d</fix>
</trkpt>
<trkpt lat="33.810313" lon="-118.393867">
  <ele>0.0</ele>
  <time>2026-09-02T22:13:17Z</time>
  <course>181.4</course>
  <speed>0.0</speed>
  <fix>3d</fix>
</trkpt>
<trkpt lat="33.810313" lon="-118.393867">
  <ele>-0.13</ele>
  <time>2026-09-02T22:13:17Z</time>
  <course>0.0</course>
  <speed>0.0</speed>
  <fix>3d</fix>
</trkpt>
<trkpt lat="33.810313" lon="-118.393867">
  <ele>0.0</ele>
  <time>2026-09-02T22:13:17Z</time>
  <course>181.72</course>
  <speed>0.0</speed>
  <fix>3d</fix>
</trkpt>
<trkpt lat="33.810313" lon="-118.393867">
  <ele>-0.12</ele>
  <time>2026-09-02T22:13:17Z</time>
  <course>0.0</course>
  <speed>0.0</speed>
  <fix>3d</fix>
</trkpt>
<trkpt lat="33.810313" lon="-118.393867">
  <ele>0.0</ele>
  <time>2026-09-02T22:13:17Z</time>
  <course>182.02</course>
  <speed>0.0</speed>
  <fix>3d</fix>
</trkpt>
<trkpt lat="33.810313" lon="-118.393867">
  <ele>-0.12</ele>
  <time>2026-09-02T22:13:17Z</time>
  <course>0.0</course>
  <speed>0.0</speed>
  <fix>3d</fix>
</trkpt>
<trkpt lat="33.810313" lon="-118.393867">
  <ele>0.0</ele>
  <time>2026-09-02T22:13:17Z</time>
  <course>182.32</course>
  <speed>0.0</speed>
  <fix>3d</fix>
</trkpt>
<trkpt lat="33.810313" lon="-118.393867">
  <ele>-0.12</ele>
  <time>2026-09-02T22:13:17Z</time>
  <course>0.0</course>
  <speed>0.0</speed>
  <fix>3d</fix>
</trkpt>
<trkpt lat="33.810313" lon="-118.393867">
  <ele>0.0</ele>
  <time>2026-09-02T22:13:17Z</time>
  <course>182.6</course>
  <speed>0.0</speed>
  <fix>3d</fix>
</trkpt>
<trkpt lat="33.810313" lon="-118.393867">
  <ele>-0.12</ele>
  <time>2026-09-02T22:13:17Z</time>
  <course>0.0</course>
  <speed>0.0</speed>
  <fix>3d</fix>
</trkpt>
<trkpt lat="33.810313" lon="-118.393867">
  <ele>0.0</ele>
  <time>2026-09-02T22:13:17Z</time>
  <course>182.87</course>
  <speed>0.0</speed>
  <fix>3d</fix>
</trkpt>
<trkpt lat="33.810313" lon="-118.393867">
  <ele>-0.11</ele>
  <time>2026-09-02T22:13:17Z</time>
  <course>0.0</course>
  <speed>0.0</speed>
  <fix>3d</fix>
</trkpt>
<trkpt lat="33.810313" lon="-118.393867">
  <ele>0.0</ele>
  <time>2026-09-02T22:13:17Z</time>
  <course>183.13</course>
  <speed>0.0</speed>
  <fix>3d</fix>
</trkpt>
<trkpt lat="33.810313" lon="-118.393867">
  <ele>-0.11</ele>
  <time>2026-09-02T22:13:17Z</time>
  <course>0.0</course>
  <speed>0.0</speed>
  <fix>3d</fix>
</trkpt>
<trkpt lat="33.810313" lon="-118.393867">
  <ele>0.0</ele>
  <time>2026-09-02T22:13:17Z</time>
  <course>183.39</course>
  <speed>0.0</speed>
  <fix>3d</fix>
</trkpt>
<trkpt lat="33.810313" lon="-118.393867">
  <ele>-0.11</ele>
  <time>2026-09-02T22:13:17Z</time>
  <course>0.0</course>
  <speed>0.0</speed>
  <fix>3d</fix>
</trkpt>
<trkpt lat="33.810313" lon="-118.393867">
  <ele>0.0</ele>
  <time>2026-09-02T22:13:17Z</time>
  <course>183.63</course>
  <speed>0.0</speed>
  <fix>3d</fix>
</trkpt>
<trkpt lat="33.810313" lon="-118.393867">
  <ele>-0.11</ele>
  <time>2026-09-02T22:13:17Z</time>
  <course>0.0</course>
  <speed>0.0</speed>
  <fix>3d</fix>
</trkpt>
<trkpt lat="33.810313" lon="-118.393867">
  <ele>0.0</ele>
  <time>2026-09-02T22:13:17Z</time>
  <course>183.86</course>
  <speed>0.0</speed>
  <fix>3d</fix>
</trkpt>
<trkpt lat="33.810313" lon="-118.393867">
  <ele>-0.12</ele>
  <time>2026-09-02T22:13:17Z</time>
  <course>0.0</course>
  <speed>0.0</speed>
  <fix>3d</fix>
</trkpt>
<trkpt lat="33.810313" lon="-118.393867">
  <ele>0.0</ele>
  <time>2026-09-02T22:13:17Z</time>
  <course>184.08</course>
  <speed>0.0</speed>
  <fix>3d</fix>
</trkpt>
<trkpt lat="33.810313" lon="-118.393867">
  <ele>-0.12</ele>
  <time>2026-09-02T22:13:17Z</time>
  <course>0.0</course>
  <speed>0.0</speed>
  <fix>3d</fix>
</trkpt>
<trkpt lat="33.810313" lon="-118.393867">
  <ele>0.0</ele>
  <time>2026-09-02T22:13:17Z</time>
  <course>184.3</course>
  <speed>0.0</speed>
  <fix>3d</fix>
</trkpt>
<trkpt lat="33.810313" lon="-118.393867">
  <ele>-0.13</ele>
  <time>2026-09-02T22:13:17Z</time>
  <course>0.0</course>
  <speed>0.0</speed>
  <fix>3d</fix>
</trkpt>
<trkpt lat="33.810313" lon="-118.393867">
  <ele>0.0</ele>
  <time>2026-09-02T22:13:17Z</time>
  <course>184.5</course>
  <speed>0.0</speed>
  <fix>3d</fix>
</trkpt>
<trkpt lat="33.810313" lon="-118.393867">
  <ele>-0.13</ele>
  <time>2026-09-02T22:13:17Z</time>
  <course>0.0</course>
  <speed>0.0</speed>
  <fix>3d</fix>
</trkpt>
<trkpt lat="33.810313" lon="-118.393867">
  <ele>0.0</ele>
  <time>2026-09-02T22:13:17Z</time>
  <course>184.7</course>
  <speed>0.0</speed>
  <fix>3d</fix>
</trkpt>
<trkpt lat="33.810313" lon="-118.393867">
  <ele>-0.13</ele>
  <time>2026-09-02T22:13:17Z</time>
  <course>0.0</course>
  <speed>0.0</speed>
  <fix>3d</fix>
</trkpt>
<trkpt lat="33.810313" lon="-118.393867">
  <ele>0.0</ele>
  <time>2026-09-02T22:13:17Z</time>
  <course>184.89</course>
  <speed>0.0</speed>
  <fix>3d</fix>
</trkpt>
<trkpt lat="33.810313" lon="-118.393867">
  <ele>-0.13</ele>
  <time>2026-09-02T22:13:17Z</time>
  <course>0.0</course>
  <speed>0.0</speed>
  <fix>3d</fix>
</trkpt>
<trkpt lat="33.810313" lon="-118.393867">
  <ele>0.0</ele>
  <time>2026-09-02T22:13:17Z</time>
  <course>185.07</course>
  <speed>0.0</speed>
  <fix>3d</fix>
</trkpt>
<trkpt lat="33.810313" lon="-118.393867">
  <ele>-0.14</ele>
  <time>2026-09-02T22:13:17Z</time>
  <course>0.0</course>
  <speed>0.0</speed>
  <fix>3d</fix>
</trkpt>
<trkpt lat="33.810313" lon="-118.393867">
  <ele>0.0</ele>
  <time>2026-09-02T22:13:17Z</time>
  <course>185.24</course>
  <speed>0.0</speed>
  <fix>3d</fix>
</trkpt>
<trkpt lat="33.810313" lon="-118.393867">
  <ele>-0.14</ele>
  <time>2026-09-02T22:13:17Z</time>
  <course>0.0</course>
  <speed>0.0</speed>
  <fix>3d</fix>
</trkpt>
<trkpt lat="33.810313" lon="-118.393867">
  <ele>0.0</ele>
  <time>2026-09-02T22:13:17Z</time>
  <course>185.41</course>
  <speed>0.0</speed>
  <fix>3d</fix>
</trkpt>
<trkpt lat="33.810313" lon="-118.393867">
  <ele>-0.13</ele>
  <time>2026-09-02T22:13:17Z</time>
  <course>0.0</course>
  <speed>0.0</speed>
  <fix>3d</fix>
</trkpt>
<trkpt lat="33.810313" lon="-118.393867">
  <ele>0.0</ele>
  <time>2026-09-02T22:13:17Z</time>
  <course>185.57</course>
  <speed>0.0</speed>
  <fix>3d</fix>
</trkpt>
<trkpt lat="33.810313" lon="-118.393867">
  <ele>-0.13</ele>
  <time>2026-09-02T22:13:17Z</time>
  <course>0.0</course>
  <speed>0.0</speed>
  <fix>3d</fix>
</trkpt>
<trkpt lat="33.810313" lon="-118.393867">
  <ele>0.0</ele>
  <time>2026-09-02T22:13:17Z</time>
  <course>185.72</course>
  <speed>0.0</speed>
  <fix>3d</fix>
</trkpt>
<trkpt lat="33.810313" lon="-118.393867">
  <ele>-0.13</ele>
  <time>2026-09-02T22:13:18Z</time>
  <course>0.0</course>
  <speed>0.0</speed>
  <fix>3d</fix>
</trkpt>
<trkpt lat="33.810313" lon="-118.393867">
  <ele>0.0</ele>
  <time>2026-09-02T22:13:18Z</time>
  <course>185.86</course>
  <speed>0.0</speed>
  <fix>3d</fix>
</trkpt>
<trkpt lat="33.810313" lon="-118.393867">
  <ele>-0.13</ele>
  <time>2026-09-02T22:13:18Z</time>
  <course>0.0</course>
  <speed>0.0</speed>
  <fix>3d</fix>
</trkpt>
<trkpt lat="33.810313" lon="-118.393867">
  <ele>0.0</ele>
  <time>2026-09-02T22:13:18Z</time>
  <course>186.0</course>
  <speed>0.0</speed>
  <fix>3d</fix>
</trkpt>
<trkpt lat="33.810313" lon="-118.393867">
  <ele>-0.12</ele>
  <time>2026-09-02T22:13:18Z</time>
  <course>0.0</course>
  <speed>0.0</speed>
  <fix>3d</fix>
</trkpt>
<trkpt lat="33.810313" lon="-118.393867">
  <ele>0.0</ele>
  <time>2026-09-02T22:13:18Z</time>
  <course>186.13</course>
  <speed>0.0</speed>
  <fix>3d</fix>
</trkpt>
<trkpt lat="33.810313" lon="-118.393867">
  <ele>-0.12</ele>
  <time>2026-09-02T22:13:18Z</time>
  <course>0.0</course>
  <speed>0.0</speed>
  <fix>3d</fix>
</trkpt>
<trkpt lat="33.810313" lon="-118.393867">
  <ele>0.0</ele>
  <time>2026-09-02T22:13:18Z</time>
  <course>186.26</course>
  <speed>0.0</speed>
  <fix>3d</fix>
</trkpt>
<trkpt lat="33.810313" lon="-118.393867">
  <ele>-0.12</ele>
  <time>2026-09-02T22:13:18Z</time>
  <course>0.0</course>
  <speed>0.0</speed>
  <fix>3d</fix>
</trkpt>
<trkpt lat="33.810313" lon="-118.393867">
  <ele>0.0</ele>
  <time>2026-09-02T22:13:18Z</time>
  <course>186.38</course>
  <speed>0.0</speed>
  <fix>3d</fix>
</trkpt>
<trkpt lat="33.810313" lon="-118.393867">
  <ele>-0.12</ele>
  <time>2026-09-02T22:13:18Z</time>
  <course>0.0</course>
  <speed>0.0</speed>
  <fix>3d</fix>
</trkpt>
<trkpt lat="33.810313" lon="-118.393867">
  <ele>0.0</ele>
  <time>2026-09-02T22:13:18Z</time>
  <course>186.49</course>
  <speed>0.0</speed>
  <fix>3d</fix>
</trkpt>
<trkpt lat="33.810313" lon="-118.393867">
  <ele>-0.12</ele>
  <time>2026-09-02T22:13:18Z</time>
  <course>0.0</course>
  <speed>0.0</speed>
  <fix>3d</fix>
</trkpt>
<trkpt lat="33.810313" lon="-118.393867">
  <ele>0.0</ele>
  <time>2026-09-02T22:13:18Z</time>
  <course>186.6</course>
  <speed>0.0</speed>
  <fix>3d</fix>
</trkpt>
<trkpt lat="33.810313" lon="-118.393867">
  <ele>-0.12</ele>
  <time>2026-09-02T22:13:18Z</time>
  <course>0.0</course>
  <speed>0.0</speed>
  <fix>3d</fix>
</trkpt>
<trkpt lat="33.810313" lon="-118.393867">
  <ele>0.0</ele>
  <time>2026-09-02T22:13:18Z</time>
  <course>186.71</course>
  <speed>0.0</speed>
  <fix>3d</fix>
</trkpt>
<trkpt lat="33.810313" lon="-118.393867">
  <ele>-0.12</ele>
  <time>2026-09-02T22:13:18Z</time>
  <course>0.0</course>
  <speed>0.0</speed>
  <fix>3d</fix>
</trkpt>
<trkpt lat="33.810313" lon="-118.393867">
  <ele>0.0</ele>
  <time>2026-09-02T22:13:18Z</time>
  <course>186.81</course>
  <speed>0.0</speed>
  <fix>3d</fix>
</trkpt>
<trkpt lat="33.810313" lon="-118.393867">
  <ele>-0.12</ele>
  <time>2026-09-02T22:13:18Z</time>
  <course>0.0</course>
  <speed>0.0</speed>
  <fix>3d</fix>
</trkpt>
<trkpt lat="33.810313" lon="-118.393867">
  <ele>0.0</ele>
  <time>2026-09-02T22:13:18Z</time>
  <course>186.9</course>
  <speed>0.0</speed>
  <fix>3d</fix>
</trkpt>
<trkpt lat="33.810313" lon="-118.393867">
  <ele>-0.12</ele>
  <time>2026-09-02T22:13:18Z</time>
  <course>0.0</course>
  <speed>0.0</speed>
  <fix>3d</fix>
</trkpt>
<trkpt lat="33.810313" lon="-118.393867">
  <ele>0.0</ele>
  <time>2026-09-02T22:13:18Z</time>
  <course>187.0</course>
  <speed>0.0</speed>
  <fix>3d</fix>
</trkpt>
<trkpt lat="33.810313" lon="-118.393867">
  <ele>-0.12</ele>
  <time>2026-09-02T22:13:18Z</time>
  <course>0.0</course>
  <speed>0.0</speed>
  <fix>3d</fix>
</trkpt>
<trkpt lat="33.810313" lon="-118.393867">
  <ele>0.0</ele>
  <time>2026-09-02T22:13:18Z</time>
  <course>187.08</course>
  <speed>0.0</speed>
  <fix>3d</fix>
</trkpt>
<trkpt lat="33.810313" lon="-118.393867">
  <ele>-0.13</ele>
  <time>2026-09-02T22:13:18Z</time>
  <course>0.0</course>
  <speed>0.0</speed>
  <fix>3d</fix>
</trkpt>
<trkpt lat="33.810313" lon="-118.393867">
  <ele>0.0</ele>
  <time>2026-09-02T22:13:18Z</time>
  <course>187.17</course>
  <speed>0.0</speed>
  <fix>3d</fix>
</trkpt>
<trkpt lat="33.810313" lon="-118.393867">
  <ele>-0.13</ele>
  <time>2026-09-02T22:13:18Z</time>
  <course>0.0</course>
  <speed>0.0</speed>
  <fix>3d</fix>
</trkpt>
<trkpt lat="33.810313" lon="-118.393867">
  <ele>0.0</ele>
  <time>2026-09-02T22:13:18Z</time>
  <course>187.25</course>
  <speed>0.0</speed>
  <fix>3d</fix>
</trkpt>
<trkpt lat="33.810313" lon="-118.393867">
  <ele>-0.13</ele>
  <time>2026-09-02T22:13:18Z</time>
  <course>0.0</course>
  <speed>0.0</speed>
  <fix>3d</fix>
</trkpt>
<trkpt lat="33.810313" lon="-118.393867">
  <ele>0.0</ele>
  <time>2026-09-02T22:13:18Z</time>
  <course>187.32</course>
  <speed>0.0</speed>
  <fix>3d</fix>
</trkpt>
<trkpt lat="33.810313" lon="-118.393867">
  <ele>-0.13</ele>
  <time>2026-09-02T22:13:18Z</time>
  <course>0.0</course>
  <speed>0.0</speed>
  <fix>3d</fix>
</trkpt>
<trkpt lat="33.810313" lon="-118.393867">
  <ele>0.0</ele>
  <time>2026-09-02T22:13:18Z</time>
  <course>187.39</course>
  <speed>0.0</speed>
  <fix>3d</fix>
</trkpt>
<trkpt lat="33.810313" lon="-118.393867">
  <ele>-0.13</ele>
  <time>2026-09-02T22:13:18Z</time>
  <course>0.0</course>
  <speed>0.0</speed>
  <fix>3d</fix>
</trkpt>
<trkpt lat="33.810313" lon="-118.393867">
  <ele>0.0</ele>
  <time>2026-09-02T22:13:18Z</time>
  <course>187.46</course>
  <speed>0.0</speed>
  <fix>3d</fix>
</trkpt>
<trkpt lat="33.810313" lon="-118.393867">
  <ele>-0.13</ele>
  <time>2026-09-02T22:13:18Z</time>
  <course>0.0</course>
  <speed>0.0</speed>
  <fix>3d</fix>
</trkpt>
<trkpt lat="33.810313" lon="-118.393867">
  <ele>0.0</ele>
  <time>2026-09-02T22:13:18Z</time>
  <course>187.53</course>
  <speed>0.0</speed>
  <fix>3d</fix>
</trkpt>
<trkpt lat="33.810313" lon="-118.393867">
  <ele>-0.13</ele>
  <time>2026-09-02T22:13:18Z</time>
  <course>0.0</course>
  <speed>0.0</speed>
  <fix>3d</fix>
</trkpt>
<trkpt lat="33.810313" lon="-118.393867">
  <ele>0.0</ele>
  <time>2026-09-02T22:13:18Z</time>
  <course>187.59</course>
  <speed>0.0</speed>
  <fix>3d</fix>
</trkpt>
<trkpt lat="33.810313" lon="-118.393867">
  <ele>-0.13</ele>
  <time>2026-09-02T22:13:18Z</time>
  <course>0.0</course>
  <speed>0.0</speed>
  <fix>3d</fix>
</trkpt>
<trkpt lat="33.810313" lon="-118.393867">
  <ele>0.0</ele>
  <time>2026-09-02T22:13:18Z</time>
  <course>187.65</course>
  <speed>0.0</speed>
  <fix>3d</fix>
</trkpt>
<trkpt lat="33.810313" lon="-118.393867">
  <ele>-0.12</ele>
  <time>2026-09-02T22:13:18Z</time>
  <course>0.0</course>
  <speed>0.0</speed>
  <fix>3d</fix>
</trkpt>
<trkpt lat="33.810313" lon="-118.393867">
  <ele>0.0</ele>
  <time>2026-09-02T22:13:18Z</time>
  <course>187.7</course>
  <speed>0.0</speed>
  <fix>3d</fix>
</trkpt>
<trkpt lat="33.810313" lon="-118.393867">
  <ele>-0.12</ele>
  <time>2026-09-02T22:13:18Z</time>
  <course>0.0</course>
  <speed>0.0</speed>
  <fix>3d</fix>
</trkpt>
<trkpt lat="33.810313" lon="-118.393867">
  <ele>0.0</ele>
  <time>2026-09-02T22:13:18Z</time>
  <course>187.76</course>
  <speed>0.0</speed>
  <fix>3d</fix>
</trkpt>
<trkpt lat="33.810313" lon="-118.393867">
  <ele>-0.12</ele>
  <time>2026-09-02T22:13:18Z</time>
  <course>0.0</course>
  <speed>0.0</speed>
  <fix>3d</fix>
</trkpt>
<trkpt lat="33.810313" lon="-118.393867">
  <ele>0.0</ele>
  <time>2026-09-02T22:13:18Z</time>
  <course>187.81</course>
  <speed>0.0</speed>
  <fix>3d</fix>
</trkpt>
<trkpt lat="33.810313" lon="-118.393867">
  <ele>-0.12</ele>
  <time>2026-09-02T22:13:18Z</time>
  <course>0.0</course>
  <speed>0.0</speed>
  <fix>3d</fix>
</trkpt>
<trkpt lat="33.810313" lon="-118.393867">
  <ele>0.0</ele>
  <time>2026-09-02T22:13:18Z</time>
  <course>187.86</course>
  <speed>0.0</speed>
  <fix>3d</fix>
</trkpt>
<trkpt lat="33.810313" lon="-118.393867">
  <ele>-0.12</ele>
  <time>2026-09-02T22:13:18Z</time>
  <course>0.0</course>
  <speed>0.0</speed>
  <fix>3d</fix>
</trkpt>
<trkpt lat="33.810313" lon="-118.393867">
  <ele>0.0</ele>
  <time>2026-09-02T22:13:18Z</time>
  <course>187.9</course>
  <speed>0.0</speed>
  <fix>3d</fix>
</trkpt>
<trkpt lat="33.810313" lon="-118.393867">
  <ele>-0.12</ele>
  <time>2026-09-02T22:13:18Z</time>
  <course>0.0</course>
  <speed>0.0</speed>
  <fix>3d</fix>
</trkpt>
<trkpt lat="33.810313" lon="-118.393867">
  <ele>0.0</ele>
  <time>2026-09-02T22:13:18Z</time>
  <course>187.95</course>
  <speed>0.0</speed>
  <fix>3d</fix>
</trkpt>
<trkpt lat="33.810313" lon="-118.393867">
  <ele>-0.12</ele>
  <time>2026-09-02T22:13:18Z</time>
  <course>0.0</course>
  <speed>0.0</speed>
  <fix>3d</fix>
</trkpt>
<trkpt lat="33.810313" lon="-118.393867">
  <ele>0.0</ele>
  <time>2026-09-02T22:13:18Z</time>
  <course>187.99</course>
  <speed>0.0</speed>
  <fix>3d</fix>
</trkpt>
<trkpt lat="33.810313" lon="-118.393867">
  <ele>-0.12</ele>
  <time>2026-09-02T22:13:18Z</time>
  <course>0.0</course>
  <speed>0.0</speed>
  <fix>3d</fix>
</trkpt>
<trkpt lat="33.810313" lon="-118.393867">
  <ele>0.0</ele>
  <time>2026-09-02T22:13:18Z</time>
  <course>188.02</course>
  <speed>0.0</speed>
  <fix>3d</fix>
</trkpt>
<trkpt lat="33.810313" lon="-118.393867">
  <ele>-0.12</ele>
  <time>2026-09-02T22:13:18Z</time>
  <course>0.0</course>
  <speed>0.0</speed>
  <fix>3d</fix>
</trkpt>
<trkpt lat="33.810313" lon="-118.393867">
  <ele>0.0</ele>
  <time>2026-09-02T22:13:18Z</time>
  <course>188.06</course>
  <speed>0.0</speed>
  <fix>3d</fix>
</trkpt>
<trkpt lat="33.810313" lon="-118.393867">
  <ele>-0.12</ele>
  <time>2026-09-02T22:13:18Z</time>
  <course>0.0</course>
  <speed>0.0</speed>
  <fix>3d</fix>
</trkpt>
<trkpt lat="33.810313" lon="-118.393867">
  <ele>0.0</ele>
  <time>2026-09-02T22:13:18Z</time>
  <course>188.1</course>
  <speed>0.0</speed>
  <fix>3d</fix>
</trkpt>
<trkpt lat="33.810313" lon="-118.393867">
  <ele>-0.13</ele>
  <time>2026-09-02T22:13:18Z</time>
  <course>0.0</course>
  <speed>0.0</speed>
  <fix>3d</fix>
</trkpt>
<trkpt lat="33.810313" lon="-118.393867">
  <ele>0.0</ele>
  <time>2026-09-02T22:13:18Z</time>
  <course>188.13</course>
  <speed>0.0</speed>
  <fix>3d</fix>
</trkpt>
<trkpt lat="33.810313" lon="-118.393867">
  <ele>-0.13</ele>
  <time>2026-09-02T22:13:18Z</time>
  <course>0.0</course>
  <speed>0.0</speed>
  <fix>3d</fix>
</trkpt>
<trkpt lat="33.810313" lon="-118.393867">
  <ele>0.0</ele>
  <time>2026-09-02T22:13:18Z</time>
  <course>188.16</course>
  <speed>0.0</speed>
  <fix>3d</fix>
</trkpt>
<trkpt lat="33.810313" lon="-118.393867">
  <ele>-0.13</ele>
  <time>2026-09-02T22:13:18Z</time>
  <course>0.0</course>
  <speed>0.0</speed>
  <fix>3d</fix>
</trkpt>
<trkpt lat="33.810313" lon="-118.393867">
  <ele>0.0</ele>
  <time>2026-09-02T22:13:18Z</time>
  <course>188.19</course>
  <speed>0.0</speed>
  <fix>3d</fix>
</trkpt>
<trkpt lat="33.810313" lon="-118.393867">
  <ele>-0.13</ele>
  <time>2026-09-02T22:13:18Z</time>
  <course>0.0</course>
  <speed>0.0</speed>
  <fix>3d</fix>
</trkpt>
<trkpt lat="33.810313" lon="-118.393867">
  <ele>0.0</ele>
  <time>2026-09-02T22:13:18Z</time>
  <course>188.22</course>
  <speed>0.0</speed>
  <fix>3d</fix>
</trkpt>
<trkpt lat="33.810313" lon="-118.393867">
  <ele>-0.13</ele>
  <time>2026-09-02T22:13:18Z</time>
  <course>0.0</course>
  <speed>0.0</speed>
  <fix>3d</fix>
</trkpt>
<trkpt lat="33.810313" lon="-118.393867">
  <ele>0.0</ele>
  <time>2026-09-02T22:13:18Z</time>
  <course>188.24</course>
  <speed>0.0</speed>
  <fix>3d</fix>
</trkpt>
<trkpt lat="33.810313" lon="-118.393867">
  <ele>-0.13</ele>
  <time>2026-09-02T22:13:18Z</time>
  <course>0.0</course>
  <speed>0.0</speed>
  <fix>3d</fix>
</trkpt>
<trkpt lat="33.810313" lon="-118.393867">
  <ele>0.0</ele>
  <time>2026-09-02T22:13:18Z</time>
  <course>188.27</course>
  <speed>0.0</speed>
  <fix>3d</fix>
</trkpt>
<trkpt lat="33.810313" lon="-118.393867">
  <ele>-0.12</ele>
  <time>2026-09-02T22:13:18Z</time>
  <course>0.0</course>
  <speed>0.0</speed>
  <fix>3d</fix>
</trkpt>
<trkpt lat="33.810313" lon="-118.393867">
  <ele>0.0</ele>
  <time>2026-09-02T22:13:18Z</time>
  <course>188.29</course>
  <speed>0.0</speed>
  <fix>3d</fix>
</trkpt>
<trkpt lat="33.810313" lon="-118.393867">
  <ele>-0.12</ele>
  <time>2026-09-02T22:13:18Z</time>
  <course>0.0</course>
  <speed>0.0</speed>
  <fix>3d</fix>
</trkpt>
<trkpt lat="33.810313" lon="-118.393867">
  <ele>0.0</ele>
  <time>2026-09-02T22:13:18Z</time>
  <course>188.32</course>
  <speed>0.0</speed>
  <fix>3d</fix>
</trkpt>
<trkpt lat="33.810313" lon="-118.393867">
  <ele>-0.12</ele>
  <time>2026-09-02T22:13:18Z</time>
  <course>0.0</course>
  <speed>0.0</speed>
  <fix>3d</fix>
</trkpt>
<trkpt lat="33.810313" lon="-118.393867">
  <ele>0.0</ele>
  <time>2026-09-02T22:13:18Z</time>
  <course>188.34</course>
  <speed>0.0</speed>
  <fix>3d</fix>
</trkpt>
<trkpt lat="33.810313" lon="-118.393867">
  <ele>-0.12</ele>
  <time>2026-09-02T22:13:18Z</time>
  <course>0.0</course>
  <speed>0.0</speed>
  <fix>3d</fix>
</trkpt>
<trkpt lat="33.810313" lon="-118.393867">
  <ele>0.0</ele>
  <time>2026-09-02T22:13:18Z</time>
  <course>188.36</course>
  <speed>0.0</speed>
  <fix>3d</fix>
</trkpt>
<trkpt lat="33.810313" lon="-118.393867">
  <ele>-0.12</ele>
  <time>2026-09-02T22:13:18Z</time>
  <course>0.0</course>
  <speed>0.0</speed>
  <fix>3d</fix>
</trkpt>
<trkpt lat="33.810313" lon="-118.393867">
  <ele>0.0</ele>
  <time>2026-09-02T22:13:18Z</time>
  <course>188.37</course>
  <speed>0.0</speed>
  <fix>3d</fix>
</trkpt>
<trkpt lat="33.810313" lon="-118.393867">
  <ele>-0.12</ele>
  <time>2026-09-02T22:13:18Z</time>
  <course>0.0</course>
  <speed>0.0</speed>
  <fix>3d</fix>
</trkpt>
<trkpt lat="33.810313" lon="-118.393867">
  <ele>0.0</ele>
  <time>2026-09-02T22:13:18Z</time>
  <course>188.39</course>
  <speed>0.0</speed>
  <fix>3d</fix>
</trkpt>
<trkpt lat="33.810313" lon="-118.393867">
  <ele>-0.12</ele>
  <time>2026-09-02T22:13:18Z</time>
  <course>0.0</course>
  <speed>0.0</speed>
  <fix>3d</fix>
</trkpt>
<trkpt lat="33.810313" lon="-118.393867">
  <ele>0.0</ele>
  <time>2026-09-02T22:13:18Z</time>
  <course>188.41</course>
  <speed>0.0</speed>
  <fix>3d</fix>
</trkpt>
<trkpt lat="33.810313" lon="-118.393867">
  <ele>-0.12</ele>
  <time>2026-09-02T22:13:18Z</time>
  <course>0.0</course>
  <speed>0.0</speed>
  <fix>3d</fix>
</trkpt>
<trkpt lat="33.810313" lon="-118.393867">
  <ele>0.0</ele>
  <time>2026-09-02T22:13:18Z</time>
  <course>188.42</course>
  <speed>0.0</speed>
  <fix>3d</fix>
</trkpt>
<trkpt lat="33.810313" lon="-118.393867">
  <ele>-0.12</ele>
  <time>2026-09-02T22:13:18Z</time>
  <course>0.0</course>
  <speed>0.0</speed>
  <fix>3d</fix>
</trkpt>
<trkpt lat="33.810313" lon="-118.393867">
  <ele>0.0</ele>
  <time>2026-09-02T22:13:18Z</time>
  <course>188.44</course>
  <speed>0.0</speed>
  <fix>3d</fix>
</trkpt>
<trkpt lat="33.810313" lon="-118.393867">
  <ele>-0.12</ele>
  <time>2026-09-02T22:13:18Z</time>
  <course>0.0</course>
  <speed>0.0</speed>
  <fix>3d</fix>
</trkpt>
<trkpt lat="33.810313" lon="-118.393867">
  <ele>0.0</ele>
  <time>2026-09-02T22:13:18Z</time>
  <course>188.45</course>
  <speed>0.0</speed>
  <fix>3d</fix>
</trkpt>
<trkpt lat="33.810313" lon="-118.393867">
  <ele>-0.13</ele>
  <time>2026-09-02T22:13:18Z</time>
  <course>0.0</course>
  <speed>0.0</speed>
  <fix>3d</fix>
</trkpt>
<trkpt lat="33.810313" lon="-118.393867">
  <ele>0.0</ele>
  <time>2026-09-02T22:13:18Z</time>
  <course>188.46</course>
  <speed>0.0</speed>
  <fix>3d</fix>
</trkpt>
<trkpt lat="33.810313" lon="-118.393867">
  <ele>-0.13</ele>
  <time>2026-09-02T22:13:18Z</time>
  <course>0.0</course>
  <speed>0.0</speed>
  <fix>3d</fix>
</trkpt>
<trkpt lat="33.810313" lon="-118.393867">
  <ele>0.0</ele>
  <time>2026-09-02T22:13:18Z</time>
  <course>188.47</course>
  <speed>0.0</speed>
  <fix>3d</fix>
</trkpt>
<trkpt lat="33.810313" lon="-118.393867">
  <ele>-0.13</ele>
  <time>2026-09-02T22:13:18Z</time>
  <course>0.0</course>
  <speed>0.0</speed>
  <fix>3d</fix>
</trkpt>
<trkpt lat="33.810313" lon="-118.393867">
  <ele>0.0</ele>
  <time>2026-09-02T22:13:18Z</time>
  <course>188.48</course>
  <speed>0.0</speed>
  <fix>3d</fix>
</trkpt>
<trkpt lat="33.810313" lon="-118.393867">
  <ele>-0.13</ele>
  <time>2026-09-02T22:13:18Z</time>
  <course>0.0</course>
  <speed>0.0</speed>
  <fix>3d</fix>
</trkpt>
<trkpt lat="33.810313" lon="-118.393867">
  <ele>0.0</ele>
  <time>2026-09-02T22:13:18Z</time>
  <course>188.49</course>
  <speed>0.0</speed>
  <fix>3d</fix>
</trkpt>
<trkpt lat="33.810313" lon="-118.393867">
  <ele>-0.13</ele>
  <time>2026-09-02T22:13:18Z</time>
  <course>0.0</course>
  <speed>0.0</speed>
  <fix>3d</fix>
</trkpt>
<trkpt lat="33.810313" lon="-118.393867">
  <ele>0.0</ele>
  <time>2026-09-02T22:13:18Z</time>
  <course>188.5</course>
  <speed>0.0</speed>
  <fix>3d</fix>
</trkpt>
<trkpt lat="33.810313" lon="-118.393867">
  <ele>-0.13</ele>
  <time>2026-09-02T22:13:18Z</time>
  <course>0.0</course>
  <speed>0.0</speed>
  <fix>3d</fix>
</trkpt>
<trkpt lat="33.810313" lon="-118.393867">
  <ele>0.0</ele>
  <time>2026-09-02T22:13:18Z</time>
  <course>188.51</course>
  <speed>0.0</speed>
  <fix>3d</fix>
</trkpt>
<trkpt lat="33.810313" lon="-118.393867">
  <ele>-0.12</ele>
  <time>2026-09-02T22:13:18Z</time>
  <course>0.0</course>
  <speed>0.0</speed>
  <fix>3d</fix>
</trkpt>
<trkpt lat="33.810313" lon="-118.393867">
  <ele>0.0</ele>
  <time>2026-09-02T22:13:18Z</time>
  <course>188.52</course>
  <speed>0.0</speed>
  <fix>3d</fix>
</trkpt>
<trkpt lat="33.810313" lon="-118.393867">
  <ele>-0.12</ele>
  <time>2026-09-02T22:13:18Z</time>
  <course>0.0</course>
  <speed>0.0</speed>
  <fix>3d</fix>
</trkpt>
<trkpt lat="33.810313" lon="-118.393867">
  <ele>0.0</ele>
  <time>2026-09-02T22:13:18Z</time>
  <course>188.52</course>
  <speed>0.0</speed>
  <fix>3d</fix>
</trkpt>
<trkpt lat="33.810313" lon="-118.393867">
  <ele>-0.12</ele>
  <time>2026-09-02T22:13:18Z</time>
  <course>0.0</course>
  <speed>0.0</speed>
  <fix>3d</fix>
</trkpt>
<trkpt lat="33.810313" lon="-118.393867">
  <ele>0.0</ele>
  <time>2026-09-02T22:13:18Z</time>
  <course>188.53</course>
  <speed>0.0</speed>
  <fix>3d</fix>
</trkpt>
<trkpt lat="33.810313" lon="-118.393867">
  <ele>-0.12</ele>
  <time>2026-09-02T22:13:18Z</time>
  <course>0.0</course>
  <speed>0.0</speed>
  <fix>3d</fix>
</trkpt>
<trkpt lat="33.810313" lon="-118.393867">
  <ele>0.0</ele>
  <time>2026-09-02T22:13:18Z</time>
  <course>188.53</course>
  <speed>0.0</speed>
  <fix>3d</fix>
</trkpt>
<trkpt lat="33.810313" lon="-118.393867">
  <ele>-0.12</ele>
  <time>2026-09-02T22:13:18Z</time>
  <course>0.0</course>
  <speed>0.0</speed>
  <fix>3d</fix>
</trkpt>
<trkpt lat="33.810313" lon="-118.393867">
  <ele>0.0</ele>
  <time>2026-09-02T22:13:18Z</time>
  <course>188.54</course>
  <speed>0.0</speed>
  <fix>3d</fix>
</trkpt>
<trkpt lat="33.810313" lon="-118.393867">
  <ele>-0.12</ele>
  <time>2026-09-02T22:13:18Z</time>
  <course>0.0</course>
  <speed>0.0</speed>
  <fix>3d</fix>
</trkpt>
<trkpt lat="33.810313" lon="-118.393867">
  <ele>0.0</ele>
  <time>2026-09-02T22:13:18Z</time>
  <course>188.54</course>
  <speed>0.0</speed>
  <fix>3d</fix>
</trkpt>
<trkpt lat="33.810313" lon="-118.393867">
  <ele>-0.12</ele>
  <time>2026-09-02T22:13:18Z</time>
  <course>0.0</course>
  <speed>0.0</speed>
  <fix>3d</fix>
</trkpt>
<trkpt lat="33.810313" lon="-118.393867">
  <ele>0.0</ele>
  <time>2026-09-02T22:13:18Z</time>
  <course>188.55</course>
  <speed>0.0</speed>
  <fix>3d</fix>
</trkpt>
<trkpt lat="33.810313" lon="-118.393867">
  <ele>-0.12</ele>
  <time>2026-09-02T22:13:18Z</time>
  <course>0.0</course>
  <speed>0.0</speed>
  <fix>3d</fix>
</trkpt>
<trkpt lat="33.810313" lon="-118.393867">
  <ele>0.0</ele>
  <time>2026-09-02T22:13:18Z</time>
  <course>188.55</course>
  <speed>0.0</speed>
  <fix>3d</fix>
</trkpt>
<trkpt lat="33.810313" lon="-118.393867">
  <ele>-0.12</ele>
  <time>2026-09-02T22:13:18Z</time>
  <course>0.0</course>
  <speed>0.0</speed>
  <fix>3d</fix>
</trkpt>
<trkpt lat="33.810313" lon="-118.393867">
  <ele>0.0</ele>
  <time>2026-09-02T22:13:18Z</time>
  <course>188.55</course>
  <speed>0.0</speed>
  <fix>3d</fix>
</trkpt>
<trkpt lat="33.810313" lon="-118.393867">
  <ele>-0.12</ele>
  <time>2026-09-02T22:13:18Z</time>
  <course>0.0</course>
  <speed>0.0</speed>
  <fix>3d</fix>
</trkpt>
<trkpt lat="33.810313" lon="-118.393867">
  <ele>-0.126</ele>
  <time>2026-09-02T22:13:18Z</time>
  <course>188.55</course>
  <speed>0.0</speed>
  <fix>3d</fix>
</trkpt>
<trkpt lat="33.810313" lon="-118.393867">
  <ele>-0.13</ele>
  <time>2026-09-02T22:13:18Z</time>
  <course>0.0</course>
  <speed>0.0</speed>
  <fix>3d</fix>
</trkpt>
<trkpt lat="33.810313" lon="-118.393867">
  <ele>-0.126</ele>
  <time>2026-09-02T22:13:18Z</time>
  <course>188.55</course>
  <speed>0.0</speed>
  <fix>3d</fix>
</trkpt>
<trkpt lat="33.810313" lon="-118.393867">
  <ele>-0.13</ele>
  <time>2026-09-02T22:13:18Z</time>
  <course>0.0</course>
  <speed>0.0</speed>
  <fix>3d</fix>
</trkpt>
<trkpt lat="33.810313" lon="-118.393867">
  <ele>-0.126</ele>
  <time>2026-09-02T22:13:18Z</time>
  <course>188.55</course>
  <speed>0.0</speed>
  <fix>3d</fix>
</trkpt>
<trkpt lat="33.810313" lon="-118.393867">
  <ele>-0.13</ele>
  <time>2026-09-02T22:13:18Z</time>
  <course>0.0</course>
  <speed>0.0</speed>
  <fix>3d</fix>
</trkpt>
<trkpt lat="33.810313" lon="-118.393867">
  <ele>-0.126</ele>
  <time>2026-09-02T22:13:18Z</time>
  <course>188.56</course>
  <speed>0.0</speed>
  <fix>3d</fix>
</trkpt>
<trkpt lat="33.810313" lon="-118.393867">
  <ele>-0.13</ele>
  <time>2026-09-02T22:13:18Z</time>
  <course>0.0</course>
  <speed>0.0</speed>
  <fix>3d</fix>
</trkpt>
<trkpt lat="33.810313" lon="-118.393867">
  <ele>-0.124</ele>
  <time>2026-09-02T22:13:18Z</time>
  <course>188.56</course>
  <speed>0.0</speed>
  <fix>3d</fix>
</trkpt>
<trkpt lat="33.810313" lon="-118.393867">
  <ele>-0.12</ele>
  <time>2026-09-02T22:13:18Z</time>
  <course>0.0</course>
  <speed>0.0</speed>
  <fix>3d</fix>
</trkpt>
<trkpt lat="33.810313" lon="-118.393867">
  <ele>-0.123</ele>
  <time>2026-09-02T22:13:18Z</time>
  <course>188.56</course>
  <speed>0.0</speed>
  <fix>3d</fix>
</trkpt>
<trkpt lat="33.810313" lon="-118.393867">
  <ele>-0.12</ele>
  <time>2026-09-02T22:13:18Z</time>
  <course>0.0</course>
  <speed>0.0</speed>
  <fix>3d</fix>
</trkpt>
<trkpt lat="33.810313" lon="-118.393867">
  <ele>-0.122</ele>
  <time>2026-09-02T22:13:18Z</time>
  <course>188.55</course>
  <speed>0.0</speed>
  <fix>3d</fix>
</trkpt>
<trkpt lat="33.810313" lon="-118.393867">
  <ele>-0.12</ele>
  <time>2026-09-02T22:13:18Z</time>
  <course>0.0</course>
  <speed>0.0</speed>
  <fix>3d</fix>
</trkpt>
<trkpt lat="33.810313" lon="-118.393867">
  <ele>-0.122</ele>
  <time>2026-09-02T22:13:18Z</time>
  <course>188.55</course>
  <speed>0.0</speed>
  <fix>3d</fix>
</trkpt>
<trkpt lat="33.810313" lon="-118.393867">
  <ele>-0.12</ele>
  <time>2026-09-02T22:13:18Z</time>
  <course>0.0</course>
  <speed>0.0</speed>
  <fix>3d</fix>
</trkpt>
<trkpt lat="33.810313" lon="-118.393867">
  <ele>-0.123</ele>
  <time>2026-09-02T22:13:18Z</time>
  <course>188.55</course>
  <speed>0.0</speed>
  <fix>3d</fix>
</trkpt>
<trkpt lat="33.810313" lon="-118.393867">
  <ele>-0.12</ele>
  <time>2026-09-02T22:13:18Z</time>
  <course>0.0</course>
  <speed>0.0</speed>
  <fix>3d</fix>
</trkpt>
<trkpt lat="33.810313" lon="-118.393867">
  <ele>-0.125</ele>
  <time>2026-09-02T22:13:18Z</time>
  <course>188.55</course>
  <speed>0.0</speed>
  <fix>3d</fix>
</trkpt>
<trkpt lat="33.810313" lon="-118.393867">
  <ele>-0.12</ele>
  <time>2026-09-02T22:13:18Z</time>
  <course>0.0</course>
  <speed>0.0</speed>
  <fix>3d</fix>
</trkpt>
<trkpt lat="33.810313" lon="-118.393867">
  <ele>-0.127</ele>
  <time>2026-09-02T22:13:18Z</time>
  <course>188.55</course>
  <speed>0.0</speed>
  <fix>3d</fix>
</trkpt>
<trkpt lat="33.810313" lon="-118.393867">
  <ele>-0.12</ele>
  <time>2026-09-02T22:13:18Z</time>
  <course>0.0</course>
  <speed>0.0</speed>
  <fix>3d</fix>
</trkpt>
<trkpt lat="33.810313" lon="-118.393867">
  <ele>-0.129</ele>
  <time>2026-09-02T22:13:18Z</time>
  <course>188.55</course>
  <speed>0.0</speed>
  <fix>3d</fix>
</trkpt>
<trkpt lat="33.810313" lon="-118.393867">
  <ele>-0.12</ele>
  <time>2026-09-02T22:13:18Z</time>
  <course>0.0</course>
  <speed>0.0</speed>
  <fix>3d</fix>
</trkpt>
<trkpt lat="33.810313" lon="-118.393867">
  <ele>-0.13</ele>
  <time>2026-09-02T22:13:18Z</time>
  <course>188.54</course>
  <speed>0.0</speed>
  <fix>3d</fix>
</trkpt>
<trkpt lat="33.810313" lon="-118.393867">
  <ele>-0.12</ele>
  <time>2026-09-02T22:13:18Z</time>
  <course>0.0</course>
  <speed>0.0</speed>
  <fix>3d</fix>
</trkpt>
<trkpt lat="33.810313" lon="-118.393867">
  <ele>-0.13</ele>
  <time>2026-09-02T22:13:18Z</time>
  <course>188.55</course>
  <speed>0.0</speed>
  <fix>3d</fix>
</trkpt>
<trkpt lat="33.810313" lon="-118.393867">
  <ele>-0.12</ele>
  <time>2026-09-02T22:13:18Z</time>
  <course>0.0</course>
  <speed>0.0</speed>
  <fix>3d</fix>
</trkpt>
<trkpt lat="33.810313" lon="-118.393867">
  <ele>-0.131</ele>
  <time>2026-09-02T22:13:18Z</time>
  <course>188.55</course>
  <speed>0.0</speed>
  <fix>3d</fix>
</trkpt>
<trkpt lat="33.810313" lon="-118.393867">
  <ele>-0.12</ele>
  <time>2026-09-02T22:13:18Z</time>
  <course>0.0</course>
  <speed>0.0</speed>
  <fix>3d</fix>
</trkpt>
<trkpt lat="33.810313" lon="-118.393867">
  <ele>-0.13</ele>
  <time>2026-09-02T22:13:18Z</time>
  <course>188.54</course>
  <speed>0.0</speed>
  <fix>3d</fix>
</trkpt>
<trkpt lat="33.810313" lon="-118.393867">
  <ele>-0.12</ele>
  <time>2026-09-02T22:13:18Z</time>
  <course>0.0</course>
  <speed>0.0</speed>
  <fix>3d</fix>
</trkpt>
<trkpt lat="33.810313" lon="-118.393867">
  <ele>-0.129</ele>
  <time>2026-09-02T22:13:18Z</time>
  <course>188.54</course>
  <speed>0.0</speed>
  <fix>3d</fix>
</trkpt>
<trkpt lat="33.810313" lon="-118.393867">
  <ele>-0.13</ele>
  <time>2026-09-02T22:13:18Z</time>
  <course>0.0</course>
  <speed>0.0</speed>
  <fix>3d</fix>
</trkpt>
<trkpt lat="33.810313" lon="-118.393867">
  <ele>-0.128</ele>
  <time>2026-09-02T22:13:18Z</time>
  <course>188.54</course>
  <speed>0.0</speed>
  <fix>3d</fix>
</trkpt>
<trkpt lat="33.810313" lon="-118.393867">
  <ele>-0.13</ele>
  <time>2026-09-02T22:13:18Z</time>
  <course>0.0</course>
  <speed>0.0</speed>
  <fix>3d</fix>
</trkpt>
<trkpt lat="33.810313" lon="-118.393867">
  <ele>-0.125</ele>
  <time>2026-09-02T22:13:18Z</time>
  <course>188.53</course>
  <speed>0.0</speed>
  <fix>3d</fix>
</trkpt>
<trkpt lat="33.810313" lon="-118.393867">
  <ele>-0.12</ele>
  <time>2026-09-02T22:13:18Z</time>
  <course>0.0</course>
  <speed>0.0</speed>
  <fix>3d</fix>
</trkpt>
<trkpt lat="33.810313" lon="-118.393867">
  <ele>-0.122</ele>
  <time>2026-09-02T22:13:18Z</time>
  <course>188.53</course>
  <speed>0.0</speed>
  <fix>3d</fix>
</trkpt>
<trkpt lat="33.810313" lon="-118.393867">
  <ele>-0.12</ele>
  <time>2026-09-02T22:13:18Z</time>
  <course>0.0</course>
  <speed>0.0</speed>
  <fix>3d</fix>
</trkpt>
<trkpt lat="33.810313" lon="-118.393867">
  <ele>-0.12</ele>
  <time>2026-09-02T22:13:18Z</time>
  <course>188.52</course>
  <speed>0.0</speed>
  <fix>3d</fix>
</trkpt>
<trkpt lat="33.810313" lon="-118.393867">
  <ele>-0.12</ele>
  <time>2026-09-02T22:13:18Z</time>
  <course>0.0</course>
  <speed>0.0</speed>
  <fix>3d</fix>
</trkpt>
<trkpt lat="33.810313" lon="-118.393867">
  <ele>-0.12</ele>
  <time>2026-09-02T22:13:18Z</time>
  <course>188.52</course>
  <speed>0.0</speed>
  <fix>3d</fix>
</trkpt>
<trkpt lat="33.810313" lon="-118.393867">
  <ele>-0.12</ele>
  <time>2026-09-02T22:13:18Z</time>
  <course>0.0</course>
  <speed>0.0</speed>
  <fix>3d</fix>
</trkpt>
<trkpt lat="33.810313" lon="-118.393867">
  <ele>-0.121</ele>
  <time>2026-09-02T22:13:18Z</time>
  <course>188.51</course>
  <speed>0.0</speed>
  <fix>3d</fix>
</trkpt>
<trkpt lat="33.810313" lon="-118.393867">
  <ele>-0.12</ele>
  <time>2026-09-02T22:13:18Z</time>
  <course>0.0</course>
  <speed>0.0</speed>
  <fix>3d</fix>
</trkpt>
<trkpt lat="33.810313" lon="-118.393867">
  <ele>-0.122</ele>
  <time>2026-09-02T22:13:18Z</time>
  <course>188.51</course>
  <speed>0.0</speed>
  <fix>3d</fix>
</trkpt>
<trkpt lat="33.810313" lon="-118.393867">
  <ele>-0.12</ele>
  <time>2026-09-02T22:13:18Z</time>
  <course>0.0</course>
  <speed>0.0</speed>
  <fix>3d</fix>
</trkpt>
<trkpt lat="33.810313" lon="-118.393867">
  <ele>-0.123</ele>
  <time>2026-09-02T22:13:18Z</time>
  <course>188.5</course>
  <speed>0.0</speed>
  <fix>3d</fix>
</trkpt>
<trkpt lat="33.810313" lon="-118.393867">
  <ele>-0.12</ele>
  <time>2026-09-02T22:13:18Z</time>
  <course>0.0</course>
  <speed>0.0</speed>
  <fix>3d</fix>
</trkpt>
<trkpt lat="33.810313" lon="-118.393867">
  <ele>-0.124</ele>
  <time>2026-09-02T22:13:18Z</time>
  <course>188.5</course>
  <speed>0.0</speed>
  <fix>3d</fix>
</trkpt>
<trkpt lat="33.810313" lon="-118.393867">
  <ele>-0.12</ele>
  <time>2026-09-02T22:13:18Z</time>
  <course>0.0</course>
  <speed>0.0</speed>
  <fix>3d</fix>
</trkpt>
<trkpt lat="33.810313" lon="-118.393867">
  <ele>-0.125</ele>
  <time>2026-09-02T22:13:18Z</time>
  <course>188.49</course>
  <speed>0.0</speed>
  <fix>3d</fix>
</trkpt>
<trkpt lat="33.810313" lon="-118.393867">
  <ele>-0.12</ele>
  <time>2026-09-02T22:13:18Z</time>
  <course>0.0</course>
  <speed>0.0</speed>
  <fix>3d</fix>
</trkpt>
<trkpt lat="33.810313" lon="-118.393867">
  <ele>-0.125</ele>
  <time>2026-09-02T22:13:18Z</time>
  <course>188.48</course>
  <speed>0.0</speed>
  <fix>3d</fix>
</trkpt>
<trkpt lat="33.810313" lon="-118.393867">
  <ele>-0.12</ele>
  <time>2026-09-02T22:13:18Z</time>
  <course>0.0</course>
  <speed>0.0</speed>
  <fix>3d</fix>
</trkpt>
<trkpt lat="33.810313" lon="-118.393867">
  <ele>-0.124</ele>
  <time>2026-09-02T22:13:18Z</time>
  <course>188.48</course>
  <speed>0.0</speed>
  <fix>3d</fix>
</trkpt>
<trkpt lat="33.810313" lon="-118.393867">
  <ele>-0.12</ele>
  <time>2026-09-02T22:13:18Z</time>
  <course>0.0</course>
  <speed>0.0</speed>
  <fix>3d</fix>
</trkpt>
<trkpt lat="33.810313" lon="-118.393867">
  <ele>-0.122</ele>
  <time>2026-09-02T22:13:18Z</time>
  <course>188.47</course>
  <speed>0.01</speed>
  <fix>3d</fix>
</trkpt>
<trkpt lat="33.810313" lon="-118.393867">
  <ele>-0.12</ele>
  <time>2026-09-02T22:13:18Z</time>
  <course>0.0</course>
  <speed>0.0</speed>
  <fix>3d</fix>
</trkpt>
<trkpt lat="33.810313" lon="-118.393867">
  <ele>-0.119</ele>
  <time>2026-09-02T22:13:18Z</time>
  <course>188.47</course>
  <speed>0.01</speed>
  <fix>3d</fix>
</trkpt>
<trkpt lat="33.810313" lon="-118.393867">
  <ele>-0.12</ele>
  <time>2026-09-02T22:13:18Z</time>
  <course>0.0</course>
  <speed>0.0</speed>
  <fix>3d</fix>
</trkpt>
<trkpt lat="33.810313" lon="-118.393867">
  <ele>-0.116</ele>
  <time>2026-09-02T22:13:18Z</time>
  <course>188.46</course>
  <speed>0.01</speed>
  <fix>3d</fix>
</trkpt>
<trkpt lat="33.810313" lon="-118.393867">
  <ele>-0.12</ele>
  <time>2026-09-02T22:13:18Z</time>
  <course>0.0</course>
  <speed>0.0</speed>
  <fix>3d</fix>
</trkpt>
<trkpt lat="33.810313" lon="-118.393867">
  <ele>-0.113</ele>
  <time>2026-09-02T22:13:18Z</time>
  <course>188.45</course>
  <speed>0.01</speed>
  <fix>3d</fix>
</trkpt>
<trkpt lat="33.810313" lon="-118.393867">
  <ele>-0.12</ele>
  <time>2026-09-02T22:13:18Z</time>
  <course>0.0</course>
  <speed>0.0</speed>
  <fix>3d</fix>
</trkpt>
<trkpt lat="33.810313" lon="-118.393867">
  <ele>-0.111</ele>
  <time>2026-09-02T22:13:18Z</time>
  <course>188.45</course>
  <speed>0.01</speed>
  <fix>3d</fix>
</trkpt>
<trkpt lat="33.810313" lon="-118.393867">
  <ele>-0.12</ele>
  <time>2026-09-02T22:13:18Z</time>
  <course>0.0</course>
  <speed>0.0</speed>
  <fix>3d</fix>
</trkpt>
<trkpt lat="33.810313" lon="-118.393867">
  <ele>-0.11</ele>
  <time>2026-09-02T22:13:18Z</time>
  <course>188.44</course>
  <speed>0.01</speed>
  <fix>3d</fix>
</trkpt>
<trkpt lat="33.810313" lon="-118.393867">
  <ele>-0.12</ele>
  <time>2026-09-02T22:13:18Z</time>
  <course>0.0</course>
  <speed>0.0</speed>
  <fix>3d</fix>
</trkpt>
<trkpt lat="33.810313" lon="-118.393867">
  <ele>-0.111</ele>
  <time>2026-09-02T22:13:18Z</time>
  <course>188.43</course>
  <speed>0.01</speed>
  <fix>3d</fix>
</trkpt>
<trkpt lat="33.810313" lon="-118.393867">
  <ele>-0.12</ele>
  <time>2026-09-02T22:13:18Z</time>
  <course>0.0</course>
  <speed>0.0</speed>
  <fix>3d</fix>
</trkpt>
<trkpt lat="33.810313" lon="-118.393867">
  <ele>-0.113</ele>
  <time>2026-09-02T22:13:18Z</time>
  <course>188.42</course>
  <speed>0.01414213562373095</speed>
  <fix>3d</fix>
</trkpt>
<trkpt lat="33.810313" lon="-118.393867">
  <ele>-0.12</ele>
  <time>2026-09-02T22:13:18Z</time>
  <course>0.0</course>
  <speed>0.0</speed>
  <fix>3d</fix>
</trkpt>
<trkpt lat="33.810313" lon="-118.393867">
  <ele>-0.114</ele>
  <time>2026-09-02T22:13:18Z</time>
  <course>188.42</course>
  <speed>0.01414213562373095</speed>
  <fix>3d</fix>
</trkpt>
<trkpt lat="33.810313" lon="-118.393867">
  <ele>-0.12</ele>
  <time>2026-09-02T22:13:18Z</time>
  <course>0.0</course>
  <speed>0.0</speed>
  <fix>3d</fix>
</trkpt>
<trkpt lat="33.810313" lon="-118.393867">
  <ele>-0.116</ele>
  <time>2026-09-02T22:13:18Z</time>
  <course>188.41</course>
  <speed>0.01414213562373095</speed>
  <fix>3d</fix>
</trkpt>
<trkpt lat="33.810313" lon="-118.393867">
  <ele>-0.12</ele>
  <time>2026-09-02T22:13:18Z</time>
  <course>0.0</course>
  <speed>0.0</speed>
  <fix>3d</fix>
</trkpt>
<trkpt lat="33.810313" lon="-118.393867">
  <ele>-0.115</ele>
  <time>2026-09-02T22:13:18Z</time>
  <course>188.4</course>
  <speed>0.01414213562373095</speed>
  <fix>3d</fix>
</trkpt>
<trkpt lat="33.810313" lon="-118.393867">
  <ele>-0.12</ele>
  <time>2026-09-02T22:13:18Z</time>
  <course>0.0</course>
  <speed>0.0</speed>
  <fix>3d</fix>
</trkpt>
<trkpt lat="33.810313" lon="-118.393867">
  <ele>-0.115</ele>
  <time>2026-09-02T22:13:18Z</time>
  <course>188.4</course>
  <speed>0.01414213562373095</speed>
  <fix>3d</fix>
</trkpt>
<trkpt lat="33.810313" lon="-118.393867">
  <ele>-0.12</ele>
  <time>2026-09-02T22:13:18Z</time>
  <course>0.0</course>
  <speed>0.0</speed>
  <fix>3d</fix>
</trkpt>
<trkpt lat="33.810313" lon="-118.393867">
  <ele>-0.115</ele>
  <time>2026-09-02T22:13:18Z</time>
  <course>188.39</course>
  <speed>0.01414213562373095</speed>
  <fix>3d</fix>
</trkpt>
<trkpt lat="33.810313" lon="-118.393867">
  <ele>-0.12</ele>
  <time>2026-09-02T22:13:18Z</time>
  <course>0.0</course>
  <speed>0.0</speed>
  <fix>3d</fix>
</trkpt>
<trkpt lat="33.810313" lon="-118.393867">
  <ele>-0.114</ele>
  <time>2026-09-02T22:13:18Z</time>
  <course>188.38</course>
  <speed>0.01414213562373095</speed>
  <fix>3d</fix>
</trkpt>
<trkpt lat="33.810313" lon="-118.393867">
  <ele>-0.12</ele>
  <time>2026-09-02T22:13:18Z</time>
  <course>0.0</course>
  <speed>0.0</speed>
  <fix>3d</fix>
</trkpt>
<trkpt lat="33.810313" lon="-118.393867">
  <ele>-0.113</ele>
  <time>2026-09-02T22:13:18Z</time>
  <course>188.37</course>
  <speed>0.01414213562373095</speed>
  <fix>3d</fix>
</trkpt>
<trkpt lat="33.810313" lon="-118.393867">
  <ele>-0.12</ele>
  <time>2026-09-02T22:13:18Z</time>
  <course>0.0</course>
  <speed>0.0</speed>
  <fix>3d</fix>
</trkpt>
<trkpt lat="33.810313" lon="-118.393867">
  <ele>-0.112</ele>
  <time>2026-09-02T22:13:18Z</time>
  <course>188.37</course>
  <speed>0.01414213562373095</speed>
  <fix>3d</fix>
</trkpt>
<trkpt lat="33.810313" lon="-118.393867">
  <ele>-0.12</ele>
  <time>2026-09-02T22:13:18Z</time>
  <course>0.0</course>
  <speed>0.0</speed>
  <fix>3d</fix>
</trkpt>
<trkpt lat="33.810313" lon="-118.393867">
  <ele>-0.109</ele>
  <time>2026-09-02T22:13:18Z</time>
  <course>188.36</course>
  <speed>0.01414213562373095</speed>
  <fix>3d</fix>
</trkpt>
<trkpt lat="33.810313" lon="-118.393867">
  <ele>-0.12</ele>
  <time>2026-09-02T22:13:18Z</time>
  <course>0.0</course>
  <speed>0.0</speed>
  <fix>3d</fix>
</trkpt>
<trkpt lat="33.810313" lon="-118.393867">
  <ele>-0.108</ele>
  <time>2026-09-02T22:13:18Z</time>
  <course>188.35</course>
  <speed>0.01414213562373095</speed>
  <fix>3d</fix>
</trkpt>
<trkpt lat="33.810313" lon="-118.393867">
  <ele>-0.12</ele>
  <time>2026-09-02T22:13:18Z</time>
  <course>0.0</course>
  <speed>0.0</speed>
  <fix>3d</fix>
</trkpt>
<trkpt lat="33.810313" lon="-118.393867">
  <ele>-0.109</ele>
  <time>2026-09-02T22:13:18Z</time>
  <course>188.34</course>
  <speed>0.01414213562373095</speed>
  <fix>3d</fix>
</trkpt>
<trkpt lat="33.810313" lon="-118.393867">
  <ele>-0.12</ele>
  <time>2026-09-02T22:13:18Z</time>
  <course>0.0</course>
  <speed>0.0</speed>
  <fix>3d</fix>
</trkpt>
<trkpt lat="33.810313" lon="-118.393867">
  <ele>-0.11</ele>
  <time>2026-09-02T22:13:18Z</time>
  <course>188.33</course>
  <speed>0.01414213562373095</speed>
  <fix>3d</fix>
</trkpt>
<trkpt lat="33.810313" lon="-118.393867">
  <ele>-0.12</ele>
  <time>2026-09-02T22:13:18Z</time>
  <course>0.0</course>
  <speed>0.0</speed>
  <fix>3d</fix>
</trkpt>
<trkpt lat="33.810313" lon="-118.393867">
  <ele>-0.111</ele>
  <time>2026-09-02T22:13:18Z</time>
  <course>188.33</course>
  <speed>0.01414213562373095</speed>
  <fix>3d</fix>
</trkpt>
<trkpt lat="33.810313" lon="-118.393867">
  <ele>-0.12</ele>
  <time>2026-09-02T22:13:18Z</time>
  <course>0.0</course>
  <speed>0.0</speed>
  <fix>3d</fix>
</trkpt>
<trkpt lat="33.810313" lon="-118.393867">
  <ele>-0.113</ele>
  <time>2026-09-02T22:13:18Z</time>
  <course>188.32</course>
  <speed>0.01414213562373095</speed>
  <fix>3d</fix>
</trkpt>
<trkpt lat="33.810313" lon="-118.393867">
  <ele>-0.12</ele>
  <time>2026-09-02T22:13:18Z</time>
  <course>0.0</course>
  <speed>0.0</speed>
  <fix>3d</fix>
</trkpt>
<trkpt lat="33.810313" lon="-118.393867">
  <ele>-0.116</ele>
  <time>2026-09-02T22:13:18Z</time>
  <course>188.31</course>
  <speed>0.01414213562373095</speed>
  <fix>3d</fix>
</trkpt>
<trkpt lat="33.810313" lon="-118.393867">
  <ele>-0.12</ele>
  <time>2026-09-02T22:13:18Z</time>
  <course>0.0</course>
  <speed>0.0</speed>
  <fix>3d</fix>
</trkpt>
<trkpt lat="33.810313" lon="-118.393867">
  <ele>-0.118</ele>
  <time>2026-09-02T22:13:18Z</time>
  <course>188.3</course>
  <speed>0.01414213562373095</speed>
  <fix>3d</fix>
</trkpt>
<trkpt lat="33.810313" lon="-118.393867">
  <ele>-0.12</ele>
  <time>2026-09-02T22:13:18Z</time>
  <course>0.0</course>
  <speed>0.0</speed>
  <fix>3d</fix>
</trkpt>
<trkpt lat="33.810313" lon="-118.393867">
  <ele>-0.12</ele>
  <time>2026-09-02T22:13:18Z</time>
  <course>188.29</course>
  <speed>0.01414213562373095</speed>
  <fix>3d</fix>
</trkpt>
<trkpt lat="33.810313" lon="-118.393867">
  <ele>-0.12</ele>
  <time>2026-09-02T22:13:18Z</time>
  <course>0.0</course>
  <speed>0.0</speed>
  <fix>3d</fix>
</trkpt>
<trkpt lat="33.810313" lon="-118.393867">
  <ele>-0.119</ele>
  <time>2026-09-02T22:13:18Z</time>
  <course>188.29</course>
  <speed>0.01414213562373095</speed>
  <fix>3d</fix>
</trkpt>
<trkpt lat="33.810313" lon="-118.393867">
  <ele>-0.12</ele>
  <time>2026-09-02T22:13:18Z</time>
  <course>0.0</course>
  <speed>0.0</speed>
  <fix>3d</fix>
</trkpt>
<trkpt lat="33.810313" lon="-118.393867">
  <ele>-0.117</ele>
  <time>2026-09-02T22:13:18Z</time>
  <course>188.28</course>
  <speed>0.01414213562373095</speed>
  <fix>3d</fix>
</trkpt>
<trkpt lat="33.810313" lon="-118.393867">
  <ele>-0.12</ele>
  <time>2026-09-02T22:13:18Z</time>
  <course>0.0</course>
  <speed>0.0</speed>
  <fix>3d</fix>
</trkpt>
<trkpt lat="33.810313" lon="-118.393867">
  <ele>-0.114</ele>
  <time>2026-09-02T22:13:18Z</time>
  <course>188.27</course>
  <speed>0.01414213562373095</speed>
  <fix>3d</fix>
</trkpt>
<trkpt lat="33.810313" lon="-118.393867">
  <ele>-0.12</ele>
  <time>2026-09-02T22:13:18Z</time>
  <course>0.0</course>
  <speed>0.0</speed>
  <fix>3d</fix>
</trkpt>
<trkpt lat="33.810313" lon="-118.393867">
  <ele>-0.112</ele>
  <time>2026-09-02T22:13:18Z</time>
  <course>188.26</course>
  <speed>0.01414213562373095</speed>
  <fix>3d</fix>
</trkpt>
<trkpt lat="33.810313" lon="-118.393867">
  <ele>-0.12</ele>
  <time>2026-09-02T22:13:18Z</time>
  <course>0.0</course>
  <speed>0.0</speed>
  <fix>3d</fix>
</trkpt>
<trkpt lat="33.810313" lon="-118.393867">
  <ele>-0.11</ele>
  <time>2026-09-02T22:13:18Z</time>
  <course>188.25</course>
  <speed>0.01414213562373095</speed>
  <fix>3d</fix>
</trkpt>
<trkpt lat="33.810313" lon="-118.393867">
  <ele>-0.12</ele>
  <time>2026-09-02T22:13:18Z</time>
  <course>0.0</course>
  <speed>0.0</speed>
  <fix>3d</fix>
</trkpt>
<trkpt lat="33.810313" lon="-118.393867">
  <ele>-0.11</ele>
  <time>2026-09-02T22:13:18Z</time>
  <course>188.25</course>
  <speed>0.01414213562373095</speed>
  <fix>3d</fix>
</trkpt>
<trkpt lat="33.810313" lon="-118.393867">
  <ele>-0.12</ele>
  <time>2026-09-02T22:13:18Z</time>
  <course>0.0</course>
  <speed>0.0</speed>
  <fix>3d</fix>
</trkpt>
<trkpt lat="33.810313" lon="-118.393867">
  <ele>-0.113</ele>
  <time>2026-09-02T22:13:18Z</time>
  <course>188.24</course>
  <speed>0.01414213562373095</speed>
  <fix>3d</fix>
</trkpt>
<trkpt lat="33.810313" lon="-118.393867">
  <ele>-0.12</ele>
  <time>2026-09-02T22:13:18Z</time>
  <course>0.0</course>
  <speed>0.0</speed>
  <fix>3d</fix>
</trkpt>
<trkpt lat="33.810313" lon="-118.393867">
  <ele>-0.116</ele>
  <time>2026-09-02T22:13:18Z</time>
  <course>188.23</course>
  <speed>0.01414213562373095</speed>
  <fix>3d</fix>
</trkpt>
<trkpt lat="33.810313" lon="-118.393867">
  <ele>-0.12</ele>
  <time>2026-09-02T22:13:18Z</time>
  <course>0.0</course>
  <speed>0.0</speed>
  <fix>3d</fix>
</trkpt>
<trkpt lat="33.810313" lon="-118.393867">
  <ele>-0.118</ele>
  <time>2026-09-02T22:13:18Z</time>
  <course>188.22</course>
  <speed>0.01414213562373095</speed>
  <fix>3d</fix>
</trkpt>
<trkpt lat="33.810313" lon="-118.393867">
  <ele>-0.12</ele>
  <time>2026-09-02T22:13:18Z</time>
  <course>0.0</course>
  <speed>0.0</speed>
  <fix>3d</fix>
</trkpt>
<trkpt lat="33.810313" lon="-118.393867">
  <ele>-0.12</ele>
  <time>2026-09-02T22:13:18Z</time>
  <course>188.21</course>
  <speed>0.01414213562373095</speed>
  <fix>3d</fix>
</trkpt>
<trkpt lat="33.810313" lon="-118.393867">
  <ele>-0.12</ele>
  <time>2026-09-02T22:13:18Z</time>
  <course>0.0</course>
  <speed>0.0</speed>
  <fix>3d</fix>
</trkpt>
<trkpt lat="33.810313" lon="-118.393867">
  <ele>-0.12</ele>
  <time>2026-09-02T22:13:18Z</time>
  <course>188.21</course>
  <speed>0.01414213562373095</speed>
  <fix>3d</fix>
</trkpt>
<trkpt lat="33.810313" lon="-118.393867">
  <ele>-0.12</ele>
  <time>2026-09-02T22:13:18Z</time>
  <course>0.0</course>
  <speed>0.0</speed>
  <fix>3d</fix>
</trkpt>
<trkpt lat="33.810313" lon="-118.393867">
  <ele>-0.121</ele>
  <time>2026-09-02T22:13:18Z</time>
  <course>188.2</course>
  <speed>0.01414213562373095</speed>
  <fix>3d</fix>
</trkpt>
<trkpt lat="33.810313" lon="-118.393867">
  <ele>-0.12</ele>
  <time>2026-09-02T22:13:18Z</time>
  <course>0.0</course>
  <speed>0.0</speed>
  <fix>3d</fix>
</trkpt>
<trkpt lat="33.810313" lon="-118.393867">
  <ele>-0.12</ele>
  <time>2026-09-02T22:13:18Z</time>
  <course>188.19</course>
  <speed>0.01414213562373095</speed>
  <fix>3d</fix>
</trkpt>
<trkpt lat="33.810313" lon="-118.393867">
  <ele>-0.12</ele>
  <time>2026-09-02T22:13:18Z</time>
  <course>0.0</course>
  <speed>0.0</speed>
  <fix>3d</fix>
</trkpt>
<trkpt lat="33.810313" lon="-118.393867">
  <ele>-0.119</ele>
  <time>2026-09-02T22:13:18Z</time>
  <course>188.18</course>
  <speed>0.01414213562373095</speed>
  <fix>3d</fix>
</trkpt>
<trkpt lat="33.810313" lon="-118.393867">
  <ele>-0.12</ele>
  <time>2026-09-02T22:13:18Z</time>
  <course>0.0</course>
  <speed>0.0</speed>
  <fix>3d</fix>
</trkpt>
<trkpt lat="33.810313" lon="-118.393867">
  <ele>-0.117</ele>
  <time>2026-09-02T22:13:18Z</time>
  <course>188.17</course>
  <speed>0.01414213562373095</speed>
  <fix>3d</fix>
</trkpt>
<trkpt lat="33.810313" lon="-118.393867">
  <ele>-0.12</ele>
  <time>2026-09-02T22:13:18Z</time>
  <course>0.0</course>
  <speed>0.0</speed>
  <fix>3d</fix>
</trkpt>
<trkpt lat="33.810313" lon="-118.393867">
  <ele>-0.114</ele>
  <time>2026-09-02T22:13:18Z</time>
  <course>188.16</course>
  <speed>0.01414213562373095</speed>
  <fix>3d</fix>
</trkpt>
<trkpt lat="33.810313" lon="-118.393867">
  <ele>-0.12</ele>
  <time>2026-09-02T22:13:18Z</time>
  <course>0.0</course>
  <speed>0.0</speed>
  <fix>3d</fix>
</trkpt>
<trkpt lat="33.810313" lon="-118.393867">
  <ele>-0.111</ele>
  <time>2026-09-02T22:13:18Z</time>
  <course>188.16</course>
  <speed>0.01414213562373095</speed>
  <fix>3d</fix>
</trkpt>
<trkpt lat="33.810313" lon="-118.393867">
  <ele>-0.12</ele>
  <time>2026-09-02T22:13:18Z</time>
  <course>0.0</course>
  <speed>0.0</speed>
  <fix>3d</fix>
</trkpt>
<trkpt lat="33.810313" lon="-118.393867">
  <ele>-0.109</ele>
  <time>2026-09-02T22:13:18Z</time>
  <course>188.15</course>
  <speed>0.01414213562373095</speed>
  <fix>3d</fix>
</trkpt>
<trkpt lat="33.810313" lon="-118.393867">
  <ele>-0.12</ele>
  <time>2026-09-02T22:13:18Z</time>
  <course>0.0</course>
  <speed>0.0</speed>
  <fix>3d</fix>
</trkpt>
<trkpt lat="33.810313" lon="-118.393867">
  <ele>-0.108</ele>
  <time>2026-09-02T22:13:18Z</time>
  <course>188.14</course>
  <speed>0.01414213562373095</speed>
  <fix>3d</fix>
</trkpt>
<trkpt lat="33.810313" lon="-118.393867">
  <ele>-0.12</ele>
  <time>2026-09-02T22:13:18Z</time>
  <course>0.0</course>
  <speed>0.0</speed>
  <fix>3d</fix>
</trkpt>
<trkpt lat="33.810313" lon="-118.393867">
  <ele>-0.109</ele>
  <time>2026-09-02T22:13:18Z</time>
  <course>188.13</course>
  <speed>0.01414213562373095</speed>
  <fix>3d</fix>
</trkpt>
<trkpt lat="33.810313" lon="-118.393867">
  <ele>-0.12</ele>
  <time>2026-09-02T22:13:18Z</time>
  <course>0.0</course>
  <speed>0.0</speed>
  <fix>3d</fix>
</trkpt>
<trkpt lat="33.810313" lon="-118.393867">
  <ele>-0.112</ele>
  <time>2026-09-02T22:13:18Z</time>
  <course>188.12</course>
  <speed>0.01414213562373095</speed>
  <fix>3d</fix>
</trkpt>
<trkpt lat="33.810313" lon="-118.393867">
  <ele>-0.12</ele>
  <time>2026-09-02T22:13:18Z</time>
  <course>0.0</course>
  <speed>0.0</speed>
  <fix>3d</fix>
</trkpt>
<trkpt lat="33.810313" lon="-118.393867">
  <ele>-0.115</ele>
  <time>2026-09-02T22:13:18Z</time>
  <course>188.12</course>
  <speed>0.01414213562373095</speed>
  <fix>3d</fix>
</trkpt>
<trkpt lat="33.810313" lon="-118.393867">
  <ele>-0.12</ele>
  <time>2026-09-02T22:13:18Z</time>
  <course>0.0</course>
  <speed>0.0</speed>
  <fix>3d</fix>
</trkpt>
<trkpt lat="33.810313" lon="-118.393867">
  <ele>-0.118</ele>
  <time>2026-09-02T22:13:18Z</time>
  <course>188.11</course>
  <speed>0.01414213562373095</speed>
  <fix>3d</fix>
</trkpt>
<trkpt lat="33.810313" lon="-118.393867">
  <ele>-0.12</ele>
  <time>2026-09-02T22:13:18Z</time>
  <course>0.0</course>
  <speed>0.0</speed>
  <fix>3d</fix>
</trkpt>
<trkpt lat="33.810313" lon="-118.393867">
  <ele>-0.119</ele>
  <time>2026-09-02T22:13:18Z</time>
  <course>188.1</course>
  <speed>0.01414213562373095</speed>
  <fix>3d</fix>
</trkpt>
<trkpt lat="33.810313" lon="-118.393867">
  <ele>-0.12</ele>
  <time>2026-09-02T22:13:18Z</time>
  <course>0.0</course>
  <speed>0.0</speed>
  <fix>3d</fix>
</trkpt>
<trkpt lat="33.810313" lon="-118.393867">
  <ele>-0.12</ele>
  <time>2026-09-02T22:13:18Z</time>
  <course>188.09</course>
  <speed>0.01414213562373095</speed>
  <fix>3d</fix>
</trkpt>
<trkpt lat="33.810313" lon="-118.393867">
  <ele>-0.12</ele>
  <time>2026-09-02T22:13:18Z</time>
  <course>0.0</course>
  <speed>0.0</speed>
  <fix>3d</fix>
</trkpt>
<trkpt lat="33.810313" lon="-118.393867">
  <ele>-0.12</ele>
  <time>2026-09-02T22:13:18Z</time>
  <course>188.08</course>
  <speed>0.01414213562373095</speed>
  <fix>3d</fix>
</trkpt>
<trkpt lat="33.810313" lon="-118.393867">
  <ele>-0.12</ele>
  <time>2026-09-02T22:13:18Z</time>
  <course>0.0</course>
  <speed>0.0</speed>
  <fix>3d</fix>
</trkpt>
<trkpt lat="33.810313" lon="-118.393867">
  <ele>-0.118</ele>
  <time>2026-09-02T22:13:18Z</time>
  <course>188.07</course>
  <speed>0.01414213562373095</speed>
  <fix>3d</fix>
</trkpt>
<trkpt lat="33.810313" lon="-118.393867">
  <ele>-0.12</ele>
  <time>2026-09-02T22:13:18Z</time>
  <course>0.0</course>
  <speed>0.0</speed>
  <fix>3d</fix>
</trkpt>
<trkpt lat="33.810313" lon="-118.393867">
  <ele>-0.115</ele>
  <time>2026-09-02T22:13:18Z</time>
  <course>188.07</course>
  <speed>0.01414213562373095</speed>
  <fix>3d</fix>
</trkpt>
<trkpt lat="33.810313" lon="-118.393867">
  <ele>-0.12</ele>
  <time>2026-09-02T22:13:18Z</time>
  <course>0.0</course>
  <speed>0.0</speed>
  <fix>3d</fix>
</trkpt>
<trkpt lat="33.810313" lon="-118.393867">
  <ele>-0.113</ele>
  <time>2026-09-02T22:13:18Z</time>
  <course>188.06</course>
  <speed>0.022360679774997897</speed>
  <fix>3d</fix>
</trkpt>
<trkpt lat="33.810313" lon="-118.393867">
  <ele>-0.12</ele>
  <time>2026-09-02T22:13:18Z</time>
  <course>0.0</course>
  <speed>0.0</speed>
  <fix>3d</fix>
</trkpt>
<trkpt lat="33.810313" lon="-118.393867">
  <ele>-0.111</ele>
  <time>2026-09-02T22:13:18Z</time>
  <course>188.05</course>
  <speed>0.022360679774997897</speed>
  <fix>3d</fix>
</trkpt>
<trkpt lat="33.810313" lon="-118.393867">
  <ele>-0.12</ele>
  <time>2026-09-02T22:13:18Z</time>
  <course>0.0</course>
  <speed>0.0</speed>
  <fix>3d</fix>
</trkpt>
<trkpt lat="33.810313" lon="-118.393867">
  <ele>-0.111</ele>
  <time>2026-09-02T22:13:18Z</time>
  <course>188.04</course>
  <speed>0.022360679774997897</speed>
  <fix>3d</fix>
</trkpt>
<trkpt lat="33.810313" lon="-118.393867">
  <ele>-0.12</ele>
  <time>2026-09-02T22:13:18Z</time>
  <course>0.0</course>
  <speed>0.0</speed>
  <fix>3d</fix>
</trkpt>
<trkpt lat="33.810313" lon="-118.393867">
  <ele>-0.112</ele>
  <time>2026-09-02T22:13:18Z</time>
  <course>188.03</course>
  <speed>0.022360679774997897</speed>
  <fix>3d</fix>
</trkpt>
<trkpt lat="33.810313" lon="-118.393867">
  <ele>-0.12</ele>
  <time>2026-09-02T22:13:18Z</time>
  <course>0.0</course>
  <speed>0.0</speed>
  <fix>3d</fix>
</trkpt>
<trkpt lat="33.810313" lon="-118.393867">
  <ele>-0.114</ele>
  <time>2026-09-02T22:13:18Z</time>
  <course>188.03</course>
  <speed>0.022360679774997897</speed>
  <fix>3d</fix>
</trkpt>
<trkpt lat="33.810313" lon="-118.393867">
  <ele>-0.12</ele>
  <time>2026-09-02T22:13:18Z</time>
  <course>0.0</course>
  <speed>0.0</speed>
  <fix>3d</fix>
</trkpt>
<trkpt lat="33.810313" lon="-118.393867">
  <ele>-0.116</ele>
  <time>2026-09-02T22:13:18Z</time>
  <course>188.02</course>
  <speed>0.022360679774997897</speed>
  <fix>3d</fix>
</trkpt>
<trkpt lat="33.810313" lon="-118.393867">
  <ele>-0.12</ele>
  <time>2026-09-02T22:13:18Z</time>
  <course>0.0</course>
  <speed>0.0</speed>
  <fix>3d</fix>
</trkpt>
<trkpt lat="33.810313" lon="-118.393867">
  <ele>-0.118</ele>
  <time>2026-09-02T22:13:18Z</time>
  <course>188.01</course>
  <speed>0.022360679774997897</speed>
  <fix>3d</fix>
</trkpt>
<trkpt lat="33.810313" lon="-118.393867">
  <ele>-0.12</ele>
  <time>2026-09-02T22:13:18Z</time>
  <course>0.0</course>
  <speed>0.0</speed>
  <fix>3d</fix>
</trkpt>
<trkpt lat="33.810313" lon="-118.393867">
  <ele>-0.119</ele>
  <time>2026-09-02T22:13:18Z</time>
  <course>188.0</course>
  <speed>0.022360679774997897</speed>
  <fix>3d</fix>
</trkpt>
<trkpt lat="33.810313" lon="-118.393867">
  <ele>-0.12</ele>
  <time>2026-09-02T22:13:18Z</time>
  <course>0.0</course>
  <speed>0.0</speed>
  <fix>3d</fix>
</trkpt>
<trkpt lat="33.810313" lon="-118.393867">
  <ele>-0.119</ele>
  <time>2026-09-02T22:13:18Z</time>
  <course>187.99</course>
  <speed>0.022360679774997897</speed>
  <fix>3d</fix>
</trkpt>
<trkpt lat="33.810313" lon="-118.393867">
  <ele>-0.12</ele>
  <time>2026-09-02T22:13:18Z</time>
  <course>0.0</course>
  <speed>0.0</speed>
  <fix>3d</fix>
</trkpt>
<trkpt lat="33.810313" lon="-118.393867">
  <ele>-0.118</ele>
  <time>2026-09-02T22:13:18Z</time>
  <course>187.98</course>
  <speed>0.022360679774997897</speed>
  <fix>3d</fix>
</trkpt>
<trkpt lat="33.810313" lon="-118.393867">
  <ele>-0.12</ele>
  <time>2026-09-02T22:13:18Z</time>
  <course>0.0</course>
  <speed>0.0</speed>
  <fix>3d</fix>
</trkpt>
<trkpt lat="33.810313" lon="-118.393867">
  <ele>-0.117</ele>
  <time>2026-09-02T22:13:18Z</time>
  <course>187.98</course>
  <speed>0.022360679774997897</speed>
  <fix>3d</fix>
</trkpt>
<trkpt lat="33.810313" lon="-118.393867">
  <ele>-0.12</ele>
  <time>2026-09-02T22:13:18Z</time>
  <course>0.0</course>
  <speed>0.0</speed>
  <fix>3d</fix>
</trkpt>
<trkpt lat="33.810313" lon="-118.393867">
  <ele>-0.116</ele>
  <time>2026-09-02T22:13:18Z</time>
  <course>187.97</course>
  <speed>0.022360679774997897</speed>
  <fix>3d</fix>
</trkpt>
<trkpt lat="33.810313" lon="-118.393867">
  <ele>-0.12</ele>
  <time>2026-09-02T22:13:18Z</time>
  <course>0.0</course>
  <speed>0.0</speed>
  <fix>3d</fix>
</trkpt>
<trkpt lat="33.810313" lon="-118.393867">
  <ele>-0.116</ele>
  <time>2026-09-02T22:13:18Z</time>
  <course>187.96</course>
  <speed>0.022360679774997897</speed>
  <fix>3d</fix>
</trkpt>
<trkpt lat="33.810313" lon="-118.393867">
  <ele>-0.12</ele>
  <time>2026-09-02T22:13:18Z</time>
  <course>0.0</course>
  <speed>0.0</speed>
  <fix>3d</fix>
</trkpt>
<trkpt lat="33.810313" lon="-118.393867">
  <ele>-0.116</ele>
  <time>2026-09-02T22:13:18Z</time>
  <course>187.95</course>
  <speed>0.022360679774997897</speed>
  <fix>3d</fix>
</trkpt>
<trkpt lat="33.810313" lon="-118.393867">
  <ele>-0.12</ele>
  <time>2026-09-02T22:13:18Z</time>
  <course>0.0</course>
  <speed>0.0</speed>
  <fix>3d</fix>
</trkpt>
<trkpt lat="33.810313" lon="-118.393867">
  <ele>-0.117</ele>
  <time>2026-09-02T22:13:18Z</time>
  <course>187.94</course>
  <speed>0.022360679774997897</speed>
  <fix>3d</fix>
</trkpt>
<trkpt lat="33.810313" lon="-118.393867">
  <ele>-0.12</ele>
  <time>2026-09-02T22:13:18Z</time>
  <course>0.0</course>
  <speed>0.0</speed>
  <fix>3d</fix>
</trkpt>
<trkpt lat="33.810313" lon="-118.393867">
  <ele>-0.119</ele>
  <time>2026-09-02T22:13:18Z</time>
  <course>187.94</course>
  <speed>0.022360679774997897</speed>
  <fix>3d</fix>
</trkpt>
<trkpt lat="33.810313" lon="-118.393867">
  <ele>-0.12</ele>
  <time>2026-09-02T22:13:18Z</time>
  <course>0.0</course>
  <speed>0.0</speed>
  <fix>3d</fix>
</trkpt>
<trkpt lat="33.810313" lon="-118.393867">
  <ele>-0.121</ele>
  <time>2026-09-02T22:13:18Z</time>
  <course>187.93</course>
  <speed>0.022360679774997897</speed>
  <fix>3d</fix>
</trkpt>
<trkpt lat="33.810313" lon="-118.393867">
  <ele>-0.12</ele>
  <time>2026-09-02T22:13:18Z</time>
  <course>0.0</course>
  <speed>0.0</speed>
  <fix>3d</fix>
</trkpt>
<trkpt lat="33.810313" lon="-118.393867">
  <ele>-0.123</ele>
  <time>2026-09-02T22:13:18Z</time>
  <course>187.92</course>
  <speed>0.022360679774997897</speed>
  <fix>3d</fix>
</trkpt>
<trkpt lat="33.810313" lon="-118.393867">
  <ele>-0.12</ele>
  <time>2026-09-02T22:13:18Z</time>
  <course>0.0</course>
  <speed>0.0</speed>
  <fix>3d</fix>
</trkpt>
<trkpt lat="33.810313" lon="-118.393867">
  <ele>-0.123</ele>
  <time>2026-09-02T22:13:18Z</time>
  <course>187.91</course>
  <speed>0.022360679774997897</speed>
  <fix>3d</fix>
</trkpt>
<trkpt lat="33.810313" lon="-118.393867">
  <ele>-0.12</ele>
  <time>2026-09-02T22:13:18Z</time>
  <course>0.0</course>
  <speed>0.0</speed>
  <fix>3d</fix>
</trkpt>
<trkpt lat="33.810313" lon="-118.393867">
  <ele>-0.123</ele>
  <time>2026-09-02T22:13:18Z</time>
  <course>187.9</course>
  <speed>0.022360679774997897</speed>
  <fix>3d</fix>
</trkpt>
<trkpt lat="33.810313" lon="-118.393867">
  <ele>-0.12</ele>
  <time>2026-09-02T22:13:18Z</time>
  <course>0.0</course>
  <speed>0.0</speed>
  <fix>3d</fix>
</trkpt>
<trkpt lat="33.810313" lon="-118.393867">
  <ele>-0.123</ele>
  <time>2026-09-02T22:13:18Z</time>
  <course>187.9</course>
  <speed>0.022360679774997897</speed>
  <fix>3d</fix>
</trkpt>
<trkpt lat="33.810313" lon="-118.393867">
  <ele>-0.12</ele>
  <time>2026-09-02T22:13:18Z</time>
  <course>0.0</course>
  <speed>0.0</speed>
  <fix>3d</fix>
</trkpt>
<trkpt lat="33.810313" lon="-118.393867">
  <ele>-0.121</ele>
  <time>2026-09-02T22:13:18Z</time>
  <course>187.89</course>
  <speed>0.022360679774997897</speed>
  <fix>3d</fix>
</trkpt>
<trkpt lat="33.810313" lon="-118.393867">
  <ele>-0.12</ele>
  <time>2026-09-02T22:13:18Z</time>
  <course>0.0</course>
  <speed>0.0</speed>
  <fix>3d</fix>
</trkpt>
<trkpt lat="33.810313" lon="-118.393867">
  <ele>-0.118</ele>
  <time>2026-09-02T22:13:18Z</time>
  <course>187.88</course>
  <speed>0.022360679774997897</speed>
  <fix>3d</fix>
</trkpt>
<trkpt lat="33.810313" lon="-118.393867">
  <ele>-0.12</ele>
  <time>2026-09-02T22:13:18Z</time>
  <course>0.0</course>
  <speed>0.0</speed>
  <fix>3d</fix>
</trkpt>
<trkpt lat="33.810313" lon="-118.393867">
  <ele>-0.116</ele>
  <time>2026-09-02T22:13:18Z</time>
  <course>187.87</course>
  <speed>0.022360679774997897</speed>
  <fix>3d</fix>
</trkpt>
<trkpt lat="33.810313" lon="-118.393867">
  <ele>-0.12</ele>
  <time>2026-09-02T22:13:18Z</time>
  <course>0.0</course>
  <speed>0.0</speed>
  <fix>3d</fix>
</trkpt>
<trkpt lat="33.810313" lon="-118.393867">
  <ele>-0.115</ele>
  <time>2026-09-02T22:13:18Z</time>
  <course>187.87</course>
  <speed>0.022360679774997897</speed>
  <fix>3d</fix>
</trkpt>
<trkpt lat="33.810313" lon="-118.393867">
  <ele>-0.12</ele>
  <time>2026-09-02T22:13:18Z</time>
  <course>0.0</course>
  <speed>0.0</speed>
  <fix>3d</fix>
</trkpt>
<trkpt lat="33.810313" lon="-118.393867">
  <ele>-0.114</ele>
  <time>2026-09-02T22:13:18Z</time>
  <course>187.86</course>
  <speed>0.022360679774997897</speed>
  <fix>3d</fix>
</trkpt>
<trkpt lat="33.810313" lon="-118.393867">
  <ele>-0.12</ele>
  <time>2026-09-02T22:13:18Z</time>
  <course>0.0</course>
  <speed>0.0</speed>
  <fix>3d</fix>
</trkpt>
<trkpt lat="33.810313" lon="-118.393867">
  <ele>-0.115</ele>
  <time>2026-09-02T22:13:18Z</time>
  <course>187.85</course>
  <speed>0.022360679774997897</speed>
  <fix>3d</fix>
</trkpt>
<trkpt lat="33.810313" lon="-118.393867">
  <ele>-0.12</ele>
  <time>2026-09-02T22:13:18Z</time>
  <course>0.0</course>
  <speed>0.0</speed>
  <fix>3d</fix>
</trkpt>
<trkpt lat="33.810313" lon="-118.393867">
  <ele>-0.117</ele>
  <time>2026-09-02T22:13:18Z</time>
  <course>187.84</course>
  <speed>0.022360679774997897</speed>
  <fix>3d</fix>
</trkpt>
<trkpt lat="33.810313" lon="-118.393867">
  <ele>-0.12</ele>
  <time>2026-09-02T22:13:18Z</time>
  <course>0.0</course>
  <speed>0.0</speed>
  <fix>3d</fix>
</trkpt>
<trkpt lat="33.810313" lon="-118.393867">
  <ele>-0.12</ele>
  <time>2026-09-02T22:13:18Z</time>
  <course>187.83</course>
  <speed>0.022360679774997897</speed>
  <fix>3d</fix>
</trkpt>
<trkpt lat="33.810313" lon="-118.393867">
  <ele>-0.12</ele>
  <time>2026-09-02T22:13:18Z</time>
  <course>0.0</course>
  <speed>0.0</speed>
  <fix>3d</fix>
</trkpt>
<trkpt lat="33.810313" lon="-118.393867">
  <ele>-0.122</ele>
  <time>2026-09-02T22:13:18Z</time>
  <course>187.83</course>
  <speed>0.022360679774997897</speed>
  <fix>3d</fix>
</trkpt>
<trkpt lat="33.810313" lon="-118.393867">
  <ele>-0.12</ele>
  <time>2026-09-02T22:13:18Z</time>
  <course>0.0</course>
  <speed>0.0</speed>
  <fix>3d</fix>
</trkpt>
<trkpt lat="33.810313" lon="-118.393867">
  <ele>-0.122</ele>
  <time>2026-09-02T22:13:18Z</time>
  <course>187.82</course>
  <speed>0.022360679774997897</speed>
  <fix>3d</fix>
</trkpt>
<trkpt lat="33.810313" lon="-118.393867">
  <ele>-0.12</ele>
  <time>2026-09-02T22:13:18Z</time>
  <course>0.0</course>
  <speed>0.0</speed>
  <fix>3d</fix>
</trkpt>
<trkpt lat="33.810313" lon="-118.393867">
  <ele>-0.121</ele>
  <time>2026-09-02T22:13:18Z</time>
  <course>187.81</course>
  <speed>0.022360679774997897</speed>
  <fix>3d</fix>
</trkpt>
<trkpt lat="33.810313" lon="-118.393867">
  <ele>-0.12</ele>
  <time>2026-09-02T22:13:18Z</time>
  <course>0.0</course>
  <speed>0.0</speed>
  <fix>3d</fix>
</trkpt>
<trkpt lat="33.810313" lon="-118.393867">
  <ele>-0.121</ele>
  <time>2026-09-02T22:13:18Z</time>
  <course>187.8</course>
  <speed>0.022360679774997897</speed>
  <fix>3d</fix>
</trkpt>
<trkpt lat="33.810313" lon="-118.393867">
  <ele>-0.12</ele>
  <time>2026-09-02T22:13:18Z</time>
  <course>0.0</course>
  <speed>0.0</speed>
  <fix>3d</fix>
</trkpt>
<trkpt lat="33.810313" lon="-118.393867">
  <ele>-0.12</ele>
  <time>2026-09-02T22:13:18Z</time>
  <course>187.8</course>
  <speed>0.022360679774997897</speed>
  <fix>3d</fix>
</trkpt>
<trkpt lat="33.810313" lon="-118.393867">
  <ele>-0.12</ele>
  <time>2026-09-02T22:13:18Z</time>
  <course>0.0</course>
  <speed>0.0</speed>
  <fix>3d</fix>
</trkpt>
<trkpt lat="33.810313" lon="-118.393867">
  <ele>-0.118</ele>
  <time>2026-09-02T22:13:18Z</time>
  <course>187.79</course>
  <speed>0.022360679774997897</speed>
  <fix>3d</fix>
</trkpt>
<trkpt lat="33.810313" lon="-118.393867">
  <ele>-0.12</ele>
  <time>2026-09-02T22:13:18Z</time>
  <course>0.0</course>
  <speed>0.0</speed>
  <fix>3d</fix>
</trkpt>
<trkpt lat="33.810313" lon="-118.393867">
  <ele>-0.117</ele>
  <time>2026-09-02T22:13:18Z</time>
  <course>187.78</course>
  <speed>0.022360679774997897</speed>
  <fix>3d</fix>
</trkpt>
<trkpt lat="33.810313" lon="-118.393867">
  <ele>-0.12</ele>
  <time>2026-09-02T22:13:18Z</time>
  <course>0.0</course>
  <speed>0.0</speed>
  <fix>3d</fix>
</trkpt>
<trkpt lat="33.810313" lon="-118.393867">
  <ele>-0.116</ele>
  <time>2026-09-02T22:13:18Z</time>
  <course>187.77</course>
  <speed>0.022360679774997897</speed>
  <fix>3d</fix>
</trkpt>
<trkpt lat="33.810313" lon="-118.393867">
  <ele>-0.12</ele>
  <time>2026-09-02T22:13:18Z</time>
  <course>0.0</course>
  <speed>0.0</speed>
  <fix>3d</fix>
</trkpt>
<trkpt lat="33.810313" lon="-118.393867">
  <ele>-0.115</ele>
  <time>2026-09-02T22:13:18Z</time>
  <course>187.77</course>
  <speed>0.022360679774997897</speed>
  <fix>3d</fix>
</trkpt>
<trkpt lat="33.810313" lon="-118.393867">
  <ele>-0.12</ele>
  <time>2026-09-02T22:13:18Z</time>
  <course>0.0</course>
  <speed>0.0</speed>
  <fix>3d</fix>
</trkpt>
<trkpt lat="33.810313" lon="-118.393867">
  <ele>-0.116</ele>
  <time>2026-09-02T22:13:18Z</time>
  <course>187.76</course>
  <speed>0.022360679774997897</speed>
  <fix>3d</fix>
</trkpt>
<trkpt lat="33.810313" lon="-118.393867">
  <ele>-0.12</ele>
  <time>2026-09-02T22:13:18Z</time>
  <course>0.0</course>
  <speed>0.0</speed>
  <fix>3d</fix>
</trkpt>
<trkpt lat="33.810313" lon="-118.393867">
  <ele>-0.118</ele>
  <time>2026-09-02T22:13:18Z</time>
  <course>187.75</course>
  <speed>0.022360679774997897</speed>
  <fix>3d</fix>
</trkpt>
<trkpt lat="33.810313" lon="-118.393867">
  <ele>-0.12</ele>
  <time>2026-09-02T22:13:18Z</time>
  <course>0.0</course>
  <speed>0.0</speed>
  <fix>3d</fix>
</trkpt>
<trkpt lat="33.810313" lon="-118.393867">
  <ele>-0.118</ele>
  <time>2026-09-02T22:13:18Z</time>
  <course>187.74</course>
  <speed>0.022360679774997897</speed>
  <fix>3d</fix>
</trkpt>
<trkpt lat="33.810313" lon="-118.393867">
  <ele>-0.12</ele>
  <time>2026-09-02T22:13:18Z</time>
  <course>0.0</course>
  <speed>0.0</speed>
  <fix>3d</fix>
</trkpt>
<trkpt lat="33.810313" lon="-118.393867">
  <ele>-0.117</ele>
  <time>2026-09-02T22:13:18Z</time>
  <course>187.74</course>
  <speed>0.022360679774997897</speed>
  <fix>3d</fix>
</trkpt>
<trkpt lat="33.810313" lon="-118.393867">
  <ele>-0.12</ele>
  <time>2026-09-02T22:13:18Z</time>
  <course>0.0</course>
  <speed>0.0</speed>
  <fix>3d</fix>
</trkpt>
<trkpt lat="33.810313" lon="-118.393867">
  <ele>-0.115</ele>
  <time>2026-09-02T22:13:18Z</time>
  <course>187.73</course>
  <speed>0.0282842712474619</speed>
  <fix>3d</fix>
</trkpt>
<trkpt lat="33.810313" lon="-118.393867">
  <ele>-0.12</ele>
  <time>2026-09-02T22:13:18Z</time>
  <course>0.0</course>
  <speed>0.0</speed>
  <fix>3d</fix>
</trkpt>
<trkpt lat="33.810313" lon="-118.393867">
  <ele>-0.113</ele>
  <time>2026-09-02T22:13:18Z</time>
  <course>187.72</course>
  <speed>0.0282842712474619</speed>
  <fix>3d</fix>
</trkpt>
<trkpt lat="33.810313" lon="-118.393867">
  <ele>-0.12</ele>
  <time>2026-09-02T22:13:18Z</time>
  <course>0.0</course>
  <speed>0.0</speed>
  <fix>3d</fix>
</trkpt>
<trkpt lat="33.810313" lon="-118.393867">
  <ele>-0.112</ele>
  <time>2026-09-02T22:13:18Z</time>
  <course>187.71</course>
  <speed>0.0282842712474619</speed>
  <fix>3d</fix>
</trkpt>
<trkpt lat="33.810313" lon="-118.393867">
  <ele>-0.12</ele>
  <time>2026-09-02T22:13:18Z</time>
  <course>0.0</course>
  <speed>0.0</speed>
  <fix>3d</fix>
</trkpt>
<trkpt lat="33.810313" lon="-118.393867">
  <ele>-0.11</ele>
  <time>2026-09-02T22:13:18Z</time>
  <course>187.71</course>
  <speed>0.0282842712474619</speed>
  <fix>3d</fix>
</trkpt>
<trkpt lat="33.810313" lon="-118.393867">
  <ele>-0.12</ele>
  <time>2026-09-02T22:13:18Z</time>
  <course>0.0</course>
  <speed>0.0</speed>
  <fix>3d</fix>
</trkpt>
<trkpt lat="33.810313" lon="-118.393867">
  <ele>-0.108</ele>
  <time>2026-09-02T22:13:18Z</time>
  <course>187.7</course>
  <speed>0.0282842712474619</speed>
  <fix>3d</fix>
</trkpt>
<trkpt lat="33.810313" lon="-118.393867">
  <ele>-0.12</ele>
  <time>2026-09-02T22:13:18Z</time>
  <course>0.0</course>
  <speed>0.0</speed>
  <fix>3d</fix>
</trkpt>
<trkpt lat="33.810313" lon="-118.393867">
  <ele>-0.108</ele>
  <time>2026-09-02T22:13:18Z</time>
  <course>187.69</course>
  <speed>0.0282842712474619</speed>
  <fix>3d</fix>
</trkpt>
<trkpt lat="33.810313" lon="-118.393867">
  <ele>-0.12</ele>
  <time>2026-09-02T22:13:18Z</time>
  <course>0.0</course>
  <speed>0.0</speed>
  <fix>3d</fix>
</trkpt>
<trkpt lat="33.810313" lon="-118.393867">
  <ele>-0.109</ele>
  <time>2026-09-02T22:13:18Z</time>
  <course>187.69</course>
  <speed>0.0282842712474619</speed>
  <fix>3d</fix>
</trkpt>
<trkpt lat="33.810313" lon="-118.393867">
  <ele>-0.12</ele>
  <time>2026-09-02T22:13:18Z</time>
  <course>0.0</course>
  <speed>0.0</speed>
  <fix>3d</fix>
</trkpt>
<trkpt lat="33.810313" lon="-118.393867">
  <ele>-0.111</ele>
  <time>2026-09-02T22:13:18Z</time>
  <course>187.68</course>
  <speed>0.0282842712474619</speed>
  <fix>3d</fix>
</trkpt>
<trkpt lat="33.810313" lon="-118.393867">
  <ele>-0.12</ele>
  <time>2026-09-02T22:13:18Z</time>
  <course>0.0</course>
  <speed>0.0</speed>
  <fix>3d</fix>
</trkpt>
<trkpt lat="33.810313" lon="-118.393867">
  <ele>-0.114</ele>
  <time>2026-09-02T22:13:18Z</time>
  <course>187.67</course>
  <speed>0.0282842712474619</speed>
  <fix>3d</fix>
</trkpt>
<trkpt lat="33.810313" lon="-118.393867">
  <ele>-0.12</ele>
  <time>2026-09-02T22:13:18Z</time>
  <course>0.0</course>
  <speed>0.0</speed>
  <fix>3d</fix>
</trkpt>
<trkpt lat="33.810313" lon="-118.393867">
  <ele>-0.117</ele>
  <time>2026-09-02T22:13:18Z</time>
  <course>187.66</course>
  <speed>0.0282842712474619</speed>
  <fix>3d</fix>
</trkpt>
<trkpt lat="33.810313" lon="-118.393867">
  <ele>-0.12</ele>
  <time>2026-09-02T22:13:18Z</time>
  <course>0.0</course>
  <speed>0.0</speed>
  <fix>3d</fix>
</trkpt>
<trkpt lat="33.810313" lon="-118.393867">
  <ele>-0.12</ele>
  <time>2026-09-02T22:13:18Z</time>
  <course>187.66</course>
  <speed>0.0282842712474619</speed>
  <fix>3d</fix>
</trkpt>
<trkpt lat="33.810313" lon="-118.393867">
  <ele>-0.12</ele>
  <time>2026-09-02T22:13:18Z</time>
  <course>0.0</course>
  <speed>0.0</speed>
  <fix>3d</fix>
</trkpt>
<trkpt lat="33.810313" lon="-118.393867">
  <ele>-0.121</ele>
  <time>2026-09-02T22:13:18Z</time>
  <course>187.65</course>
  <speed>0.0282842712474619</speed>
  <fix>3d</fix>
</trkpt>
<trkpt lat="33.810313" lon="-118.393867">
  <ele>-0.12</ele>
  <time>2026-09-02T22:13:18Z</time>
  <course>0.0</course>
  <speed>0.0</speed>
  <fix>3d</fix>
</trkpt>
<trkpt lat="33.810313" lon="-118.393867">
  <ele>-0.121</ele>
  <time>2026-09-02T22:13:18Z</time>
  <course>187.64</course>
  <speed>0.0282842712474619</speed>
  <fix>3d</fix>
</trkpt>
<trkpt lat="33.810313" lon="-118.393867">
  <ele>-0.12</ele>
  <time>2026-09-02T22:13:18Z</time>
  <course>0.0</course>
  <speed>0.0</speed>
  <fix>3d</fix>
</trkpt>
<trkpt lat="33.810313" lon="-118.393867">
  <ele>-0.12</ele>
  <time>2026-09-02T22:13:18Z</time>
  <course>187.64</course>
  <speed>0.0282842712474619</speed>
  <fix>3d</fix>
</trkpt>
<trkpt lat="33.810313" lon="-118.393867">
  <ele>-0.12</ele>
  <time>2026-09-02T22:13:18Z</time>
  <course>0.0</course>
  <speed>0.0</speed>
  <fix>3d</fix>
</trkpt>
<trkpt lat="33.810313" lon="-118.393867">
  <ele>-0.117</ele>
  <time>2026-09-02T22:13:18Z</time>
  <course>187.63</course>
  <speed>0.0282842712474619</speed>
  <fix>3d</fix>
</trkpt>
<trkpt lat="33.810313" lon="-118.393867">
  <ele>-0.12</ele>
  <time>2026-09-02T22:13:18Z</time>
  <course>0.0</course>
  <speed>0.0</speed>
  <fix>3d</fix>
</trkpt>
<trkpt lat="33.810313" lon="-118.393867">
  <ele>-0.116</ele>
  <time>2026-09-02T22:13:18Z</time>
  <course>187.63</course>
  <speed>0.0282842712474619</speed>
  <fix>3d</fix>
</trkpt>
<trkpt lat="33.810313" lon="-118.393867">
  <ele>-0.12</ele>
  <time>2026-09-02T22:13:18Z</time>
  <course>0.0</course>
  <speed>0.0</speed>
  <fix>3d</fix>
</trkpt>
<trkpt lat="33.810313" lon="-118.393867">
  <ele>-0.116</ele>
  <time>2026-09-02T22:13:18Z</time>
  <course>187.62</course>
  <speed>0.0282842712474619</speed>
  <fix>3d</fix>
</trkpt>
<trkpt lat="33.810313" lon="-118.393867">
  <ele>-0.12</ele>
  <time>2026-09-02T22:13:18Z</time>
  <course>0.0</course>
  <speed>0.0</speed>
  <fix>3d</fix>
</trkpt>
<trkpt lat="33.810313" lon="-118.393867">
  <ele>-0.117</ele>
  <time>2026-09-02T22:13:18Z</time>
  <course>187.61</course>
  <speed>0.0282842712474619</speed>
  <fix>3d</fix>
</trkpt>
<trkpt lat="33.810313" lon="-118.393867">
  <ele>-0.12</ele>
  <time>2026-09-02T22:13:18Z</time>
  <course>0.0</course>
  <speed>0.0</speed>
  <fix>3d</fix>
</trkpt>
<trkpt lat="33.810313" lon="-118.393867">
  <ele>-0.118</ele>
  <time>2026-09-02T22:13:18Z</time>
  <course>187.61</course>
  <speed>0.0282842712474619</speed>
  <fix>3d</fix>
</trkpt>
<trkpt lat="33.810313" lon="-118.393867">
  <ele>-0.12</ele>
  <time>2026-09-02T22:13:18Z</time>
  <course>0.0</course>
  <speed>0.0</speed>
  <fix>3d</fix>
</trkpt>
<trkpt lat="33.810313" lon="-118.393867">
  <ele>-0.119</ele>
  <time>2026-09-02T22:13:18Z</time>
  <course>187.6</course>
  <speed>0.0282842712474619</speed>
  <fix>3d</fix>
</trkpt>
<trkpt lat="33.810313" lon="-118.393867">
  <ele>-0.12</ele>
  <time>2026-09-02T22:13:18Z</time>
  <course>0.0</course>
  <speed>0.0</speed>
  <fix>3d</fix>
</trkpt>
<trkpt lat="33.810313" lon="-118.393867">
  <ele>-0.12</ele>
  <time>2026-09-02T22:13:18Z</time>
  <course>187.59</course>
  <speed>0.0282842712474619</speed>
  <fix>3d</fix>
</trkpt>
<trkpt lat="33.810313" lon="-118.393867">
  <ele>-0.12</ele>
  <time>2026-09-02T22:13:18Z</time>
  <course>0.0</course>
  <speed>0.0</speed>
  <fix>3d</fix>
</trkpt>
<trkpt lat="33.810313" lon="-118.393867">
  <ele>-0.121</ele>
  <time>2026-09-02T22:13:18Z</time>
  <course>187.59</course>
  <speed>0.03605551275463989</speed>
  <fix>3d</fix>
</trkpt>
<trkpt lat="33.810313" lon="-118.393867">
  <ele>-0.12</ele>
  <time>2026-09-02T22:13:18Z</time>
  <course>0.0</course>
  <speed>0.0</speed>
  <fix>3d</fix>
</trkpt>
<trkpt lat="33.810313" lon="-118.393867">
  <ele>-0.121</ele>
  <time>2026-09-02T22:13:18Z</time>
  <course>187.58</course>
  <speed>0.03605551275463989</speed>
  <fix>3d</fix>
</trkpt>
<trkpt lat="33.810313" lon="-118.393867">
  <ele>-0.12</ele>
  <time>2026-09-02T22:13:18Z</time>
  <course>0.0</course>
  <speed>0.0</speed>
  <fix>3d</fix>
</trkpt>
<trkpt lat="33.810313" lon="-118.393867">
  <ele>-0.119</ele>
  <time>2026-09-02T22:13:18Z</time>
  <course>187.57</course>
  <speed>0.03605551275463989</speed>
  <fix>3d</fix>
</trkpt>
<trkpt lat="33.810313" lon="-118.393867">
  <ele>-0.12</ele>
  <time>2026-09-02T22:13:18Z</time>
  <course>0.0</course>
  <speed>0.0</speed>
  <fix>3d</fix>
</trkpt>
<trkpt lat="33.810313" lon="-118.393867">
  <ele>-0.118</ele>
  <time>2026-09-02T22:13:18Z</time>
  <course>187.57</course>
  <speed>0.03605551275463989</speed>
  <fix>3d</fix>
</trkpt>
<trkpt lat="33.810313" lon="-118.393867">
  <ele>-0.12</ele>
  <time>2026-09-02T22:13:18Z</time>
  <course>0.0</course>
  <speed>0.0</speed>
  <fix>3d</fix>
</trkpt>
<trkpt lat="33.810313" lon="-118.393867">
  <ele>-0.116</ele>
  <time>2026-09-02T22:13:18Z</time>
  <course>187.56</course>
  <speed>0.03605551275463989</speed>
  <fix>3d</fix>
</trkpt>
<trkpt lat="33.810313" lon="-118.393867">
  <ele>-0.12</ele>
  <time>2026-09-02T22:13:18Z</time>
  <course>0.0</course>
  <speed>0.0</speed>
  <fix>3d</fix>
</trkpt>
<trkpt lat="33.810313" lon="-118.393867">
  <ele>-0.115</ele>
  <time>2026-09-02T22:13:18Z</time>
  <course>187.55</course>
  <speed>0.03605551275463989</speed>
  <fix>3d</fix>
</trkpt>
<trkpt lat="33.810313" lon="-118.393867">
  <ele>-0.12</ele>
  <time>2026-09-02T22:13:18Z</time>
  <course>0.0</course>
  <speed>0.0</speed>
  <fix>3d</fix>
</trkpt>
<trkpt lat="33.810313" lon="-118.393867">
  <ele>-0.115</ele>
  <time>2026-09-02T22:13:18Z</time>
  <course>187.55</course>
  <speed>0.03605551275463989</speed>
  <fix>3d</fix>
</trkpt>
<trkpt lat="33.810313" lon="-118.393867">
  <ele>-0.12</ele>
  <time>2026-09-02T22:13:18Z</time>
  <course>0.0</course>
  <speed>0.0</speed>
  <fix>3d</fix>
</trkpt>
<trkpt lat="33.810313" lon="-118.393867">
  <ele>-0.116</ele>
  <time>2026-09-02T22:13:18Z</time>
  <course>187.54</course>
  <speed>0.03605551275463989</speed>
  <fix>3d</fix>
</trkpt>
<trkpt lat="33.810313" lon="-118.393867">
  <ele>-0.12</ele>
  <time>2026-09-02T22:13:18Z</time>
  <course>0.0</course>
  <speed>0.0</speed>
  <fix>3d</fix>
</trkpt>
<trkpt lat="33.810313" lon="-118.393867">
  <ele>-0.117</ele>
  <time>2026-09-02T22:13:18Z</time>
  <course>187.53</course>
  <speed>0.03605551275463989</speed>
  <fix>3d</fix>
</trkpt>
<trkpt lat="33.810313" lon="-118.393867">
  <ele>-0.12</ele>
  <time>2026-09-02T22:13:18Z</time>
  <course>0.0</course>
  <speed>0.0</speed>
  <fix>3d</fix>
</trkpt>
<trkpt lat="33.810313" lon="-118.393867">
  <ele>-0.118</ele>
  <time>2026-09-02T22:13:18Z</time>
  <course>187.53</course>
  <speed>0.03605551275463989</speed>
  <fix>3d</fix>
</trkpt>
<trkpt lat="33.810313" lon="-118.393867">
  <ele>-0.12</ele>
  <time>2026-09-02T22:13:18Z</time>
  <course>0.0</course>
  <speed>0.0</speed>
  <fix>3d</fix>
</trkpt>
<trkpt lat="33.810313" lon="-118.393867">
  <ele>-0.119</ele>
  <time>2026-09-02T22:13:18Z</time>
  <course>187.52</course>
  <speed>0.03605551275463989</speed>
  <fix>3d</fix>
</trkpt>
<trkpt lat="33.810313" lon="-118.393867">
  <ele>-0.12</ele>
  <time>2026-09-02T22:13:18Z</time>
  <course>0.0</course>
  <speed>0.0</speed>
  <fix>3d</fix>
</trkpt>
<trkpt lat="33.810313" lon="-118.393867">
  <ele>-0.12</ele>
  <time>2026-09-02T22:13:18Z</time>
  <course>187.51</course>
  <speed>0.03605551275463989</speed>
  <fix>3d</fix>
</trkpt>
<trkpt lat="33.810313" lon="-118.393867">
  <ele>-0.12</ele>
  <time>2026-09-02T22:13:18Z</time>
  <course>0.0</course>
  <speed>0.0</speed>
  <fix>3d</fix>
</trkpt>
<trkpt lat="33.810313" lon="-118.393867">
  <ele>-0.12</ele>
  <time>2026-09-02T22:13:18Z</time>
  <course>187.51</course>
  <speed>0.03605551275463989</speed>
  <fix>3d</fix>
</trkpt>
<trkpt lat="33.810313" lon="-118.393867">
  <ele>-0.12</ele>
  <time>2026-09-02T22:13:18Z</time>
  <course>0.0</course>
  <speed>0.0</speed>
  <fix>3d</fix>
</trkpt>
<trkpt lat="33.810313" lon="-118.393867">
  <ele>-0.119</ele>
  <time>2026-09-02T22:13:18Z</time>
  <course>187.5</course>
  <speed>0.03605551275463989</speed>
  <fix>3d</fix>
</trkpt>
<trkpt lat="33.810313" lon="-118.393867">
  <ele>-0.12</ele>
  <time>2026-09-02T22:13:18Z</time>
  <course>0.0</course>
  <speed>0.0</speed>
  <fix>3d</fix>
</trkpt>
<trkpt lat="33.810313" lon="-118.393867">
  <ele>-0.118</ele>
  <time>2026-09-02T22:13:18Z</time>
  <course>187.49</course>
  <speed>0.03605551275463989</speed>
  <fix>3d</fix>
</trkpt>
<trkpt lat="33.810313" lon="-118.393867">
  <ele>-0.12</ele>
  <time>2026-09-02T22:13:18Z</time>
  <course>0.0</course>
  <speed>0.0</speed>
  <fix>3d</fix>
</trkpt>
<trkpt lat="33.810313" lon="-118.393867">
  <ele>-0.116</ele>
  <time>2026-09-02T22:13:18Z</time>
  <course>187.49</course>
  <speed>0.03605551275463989</speed>
  <fix>3d</fix>
</trkpt>
<trkpt lat="33.810313" lon="-118.393867">
  <ele>-0.12</ele>
  <time>2026-09-02T22:13:18Z</time>
  <course>0.0</course>
  <speed>0.0</speed>
  <fix>3d</fix>
</trkpt>
<trkpt lat="33.810313" lon="-118.393867">
  <ele>-0.113</ele>
  <time>2026-09-02T22:13:18Z</time>
  <course>187.48</course>
  <speed>0.03605551275463989</speed>
  <fix>3d</fix>
</trkpt>
<trkpt lat="33.810313" lon="-118.393867">
  <ele>-0.12</ele>
  <time>2026-09-02T22:13:18Z</time>
  <course>0.0</course>
  <speed>0.0</speed>
  <fix>3d</fix>
</trkpt>
<trkpt lat="33.810313" lon="-118.393867">
  <ele>-0.112</ele>
  <time>2026-09-02T22:13:18Z</time>
  <course>187.47</course>
  <speed>0.03605551275463989</speed>
  <fix>3d</fix>
</trkpt>
<trkpt lat="33.810313" lon="-118.393867">
  <ele>-0.12</ele>
  <time>2026-09-02T22:13:18Z</time>
  <course>0.0</course>
  <speed>0.0</speed>
  <fix>3d</fix>
</trkpt>
<trkpt lat="33.810313" lon="-118.393867">
  <ele>-0.112</ele>
  <time>2026-09-02T22:13:18Z</time>
  <course>187.47</course>
  <speed>0.03605551275463989</speed>
  <fix>3d</fix>
</trkpt>
<trkpt lat="33.810313" lon="-118.393867">
  <ele>-0.12</ele>
  <time>2026-09-02T22:13:18Z</time>
  <course>0.0</course>
  <speed>0.0</speed>
  <fix>3d</fix>
</trkpt>
<trkpt lat="33.810313" lon="-118.393867">
  <ele>-0.114</ele>
  <time>2026-09-02T22:13:18Z</time>
  <course>187.46</course>
  <speed>0.03605551275463989</speed>
  <fix>3d</fix>
</trkpt>
<trkpt lat="33.810313" lon="-118.393867">
  <ele>-0.12</ele>
  <time>2026-09-02T22:13:18Z</time>
  <course>0.0</course>
  <speed>0.0</speed>
  <fix>3d</fix>
</trkpt>
<trkpt lat="33.810313" lon="-118.393867">
  <ele>-0.114</ele>
  <time>2026-09-02T22:13:18Z</time>
  <course>187.46</course>
  <speed>0.03605551275463989</speed>
  <fix>3d</fix>
</trkpt>
<trkpt lat="33.810313" lon="-118.393867">
  <ele>-0.12</ele>
  <time>2026-09-02T22:13:18Z</time>
  <course>0.0</course>
  <speed>0.0</speed>
  <fix>3d</fix>
</trkpt>
<trkpt lat="33.810313" lon="-118.393867">
  <ele>-0.115</ele>
  <time>2026-09-02T22:13:19Z</time>
  <course>187.45</course>
  <speed>0.03605551275463989</speed>
  <fix>3d</fix>
</trkpt>
<trkpt lat="33.810313" lon="-118.393867">
  <ele>-0.12</ele>
  <time>2026-09-02T22:13:19Z</time>
  <course>0.0</course>
  <speed>0.0</speed>
  <fix>3d</fix>
</trkpt>
<trkpt lat="33.810313" lon="-118.393867">
  <ele>-0.114</ele>
  <time>2026-09-02T22:13:19Z</time>
  <course>187.44</course>
  <speed>0.03605551275463989</speed>
  <fix>3d</fix>
</trkpt>
<trkpt lat="33.810313" lon="-118.393867">
  <ele>-0.12</ele>
  <time>2026-09-02T22:13:19Z</time>
  <course>0.0</course>
  <speed>0.0</speed>
  <fix>3d</fix>
</trkpt>
<trkpt lat="33.810313" lon="-118.393867">
  <ele>-0.113</ele>
  <time>2026-09-02T22:13:19Z</time>
  <course>187.44</course>
  <speed>0.03605551275463989</speed>
  <fix>3d</fix>
</trkpt>
<trkpt lat="33.810313" lon="-118.393867">
  <ele>-0.12</ele>
  <time>2026-09-02T22:13:19Z</time>
  <course>0.0</course>
  <speed>0.0</speed>
  <fix>3d</fix>
</trkpt>
<trkpt lat="33.810313" lon="-118.393867">
  <ele>-0.111</ele>
  <time>2026-09-02T22:13:19Z</time>
  <course>187.43</course>
  <speed>0.03605551275463989</speed>
  <fix>3d</fix>
</trkpt>
<trkpt lat="33.810313" lon="-118.393867">
  <ele>-0.12</ele>
  <time>2026-09-02T22:13:19Z</time>
  <course>0.0</course>
  <speed>0.0</speed>
  <fix>3d</fix>
</trkpt>
<trkpt lat="33.810313" lon="-118.393867">
  <ele>-0.109</ele>
  <time>2026-09-02T22:13:19Z</time>
  <course>187.42</course>
  <speed>0.03605551275463989</speed>
  <fix>3d</fix>
</trkpt>
<trkpt lat="33.810313" lon="-118.393867">
  <ele>-0.12</ele>
  <time>2026-09-02T22:13:19Z</time>
  <course>0.0</course>
  <speed>0.0</speed>
  <fix>3d</fix>
</trkpt>
<trkpt lat="33.810313" lon="-118.393867">
  <ele>-0.107</ele>
  <time>2026-09-02T22:13:19Z</time>
  <course>187.42</course>
  <speed>0.03605551275463989</speed>
  <fix>3d</fix>
</trkpt>
<trkpt lat="33.810313" lon="-118.393867">
  <ele>-0.12</ele>
  <time>2026-09-02T22:13:19Z</time>
  <course>0.0</course>
  <speed>0.0</speed>
  <fix>3d</fix>
</trkpt>
<trkpt lat="33.810313" lon="-118.393867">
  <ele>-0.105</ele>
  <time>2026-09-02T22:13:19Z</time>
  <course>187.41</course>
  <speed>0.03605551275463989</speed>
  <fix>3d</fix>
</trkpt>
<trkpt lat="33.810313" lon="-118.393867">
  <ele>-0.12</ele>
  <time>2026-09-02T22:13:19Z</time>
  <course>0.0</course>
  <speed>0.0</speed>
  <fix>3d</fix>
</trkpt>
<trkpt lat="33.810313" lon="-118.393867">
  <ele>-0.104</ele>
  <time>2026-09-02T22:13:19Z</time>
  <course>187.41</course>
  <speed>0.03605551275463989</speed>
  <fix>3d</fix>
</trkpt>
<trkpt lat="33.810313" lon="-118.393867">
  <ele>-0.12</ele>
  <time>2026-09-02T22:13:19Z</time>
  <course>0.0</course>
  <speed>0.0</speed>
  <fix>3d</fix>
</trkpt>
<trkpt lat="33.810313" lon="-118.393867">
  <ele>-0.105</ele>
  <time>2026-09-02T22:13:19Z</time>
  <course>187.4</course>
  <speed>0.03605551275463989</speed>
  <fix>3d</fix>
</trkpt>
<trkpt lat="33.810313" lon="-118.393867">
  <ele>-0.12</ele>
  <time>2026-09-02T22:13:19Z</time>
  <course>0.0</course>
  <speed>0.0</speed>
  <fix>3d</fix>
</trkpt>
<trkpt lat="33.810313" lon="-118.393867">
  <ele>-0.107</ele>
  <time>2026-09-02T22:13:19Z</time>
  <course>187.39</course>
  <speed>0.03605551275463989</speed>
  <fix>3d</fix>
</trkpt>
<trkpt lat="33.810313" lon="-118.393867">
  <ele>-0.12</ele>
  <time>2026-09-02T22:13:19Z</time>
  <course>0.0</course>
  <speed>0.0</speed>
  <fix>3d</fix>
</trkpt>
<trkpt lat="33.810313" lon="-118.393867">
  <ele>-0.109</ele>
  <time>2026-09-02T22:13:19Z</time>
  <course>187.39</course>
  <speed>0.03605551275463989</speed>
  <fix>3d</fix>
</trkpt>
<trkpt lat="33.810313" lon="-118.393867">
  <ele>-0.12</ele>
  <time>2026-09-02T22:13:19Z</time>
  <course>0.0</course>
  <speed>0.0</speed>
  <fix>3d</fix>
</trkpt>
<trkpt lat="33.810313" lon="-118.393867">
  <ele>-0.111</ele>
  <time>2026-09-02T22:13:19Z</time>
  <course>187.38</course>
  <speed>0.03605551275463989</speed>
  <fix>3d</fix>
</trkpt>
<trkpt lat="33.810313" lon="-118.393867">
  <ele>-0.12</ele>
  <time>2026-09-02T22:13:19Z</time>
  <course>0.0</course>
  <speed>0.0</speed>
  <fix>3d</fix>
</trkpt>
<trkpt lat="33.810313" lon="-118.393867">
  <ele>-0.111</ele>
  <time>2026-09-02T22:13:19Z</time>
  <course>187.38</course>
  <speed>0.03605551275463989</speed>
  <fix>3d</fix>
</trkpt>
<trkpt lat="33.810313" lon="-118.393867">
  <ele>-0.12</ele>
  <time>2026-09-02T22:13:19Z</time>
  <course>0.0</course>
  <speed>0.0</speed>
  <fix>3d</fix>
</trkpt>
<trkpt lat="33.810313" lon="-118.393867">
  <ele>-0.112</ele>
  <time>2026-09-02T22:13:19Z</time>
  <course>187.37</course>
  <speed>0.03605551275463989</speed>
  <fix>3d</fix>
</trkpt>
<trkpt lat="33.810313" lon="-118.393867">
  <ele>-0.12</ele>
  <time>2026-09-02T22:13:19Z</time>
  <course>0.0</course>
  <speed>0.0</speed>
  <fix>3d</fix>
</trkpt>
<trkpt lat="33.810313" lon="-118.393867">
  <ele>-0.112</ele>
  <time>2026-09-02T22:13:19Z</time>
  <course>187.36</course>
  <speed>0.03605551275463989</speed>
  <fix>3d</fix>
</trkpt>
<trkpt lat="33.810313" lon="-118.393867">
  <ele>-0.12</ele>
  <time>2026-09-02T22:13:19Z</time>
  <course>0.0</course>
  <speed>0.0</speed>
  <fix>3d</fix>
</trkpt>
<trkpt lat="33.810313" lon="-118.393867">
  <ele>-0.113</ele>
  <time>2026-09-02T22:13:19Z</time>
  <course>187.36</course>
  <speed>0.03605551275463989</speed>
  <fix>3d</fix>
</trkpt>
<trkpt lat="33.810313" lon="-118.393867">
  <ele>-0.12</ele>
  <time>2026-09-02T22:13:19Z</time>
  <course>0.0</course>
  <speed>0.0</speed>
  <fix>3d</fix>
</trkpt>
<trkpt lat="33.810313" lon="-118.393867">
  <ele>-0.113</ele>
  <time>2026-09-02T22:13:19Z</time>
  <course>187.35</course>
  <speed>0.03605551275463989</speed>
  <fix>3d</fix>
</trkpt>
<trkpt lat="33.810313" lon="-118.393867">
  <ele>-0.12</ele>
  <time>2026-09-02T22:13:19Z</time>
  <course>0.0</course>
  <speed>0.0</speed>
  <fix>3d</fix>
</trkpt>
<trkpt lat="33.810313" lon="-118.393867">
  <ele>-0.114</ele>
  <time>2026-09-02T22:13:19Z</time>
  <course>187.35</course>
  <speed>0.03605551275463989</speed>
  <fix>3d</fix>
</trkpt>
<trkpt lat="33.810313" lon="-118.393867">
  <ele>-0.12</ele>
  <time>2026-09-02T22:13:19Z</time>
  <course>0.0</course>
  <speed>0.0</speed>
  <fix>3d</fix>
</trkpt>
<trkpt lat="33.810313" lon="-118.393867">
  <ele>-0.116</ele>
  <time>2026-09-02T22:13:19Z</time>
  <course>187.34</course>
  <speed>0.03605551275463989</speed>
  <fix>3d</fix>
</trkpt>
<trkpt lat="33.810313" lon="-118.393867">
  <ele>-0.12</ele>
  <time>2026-09-02T22:13:19Z</time>
  <course>0.0</course>
  <speed>0.0</speed>
  <fix>3d</fix>
</trkpt>
<trkpt lat="33.810313" lon="-118.393867">
  <ele>-0.118</ele>
  <time>2026-09-02T22:13:19Z</time>
  <course>187.34</course>
  <speed>0.03605551275463989</speed>
  <fix>3d</fix>
</trkpt>
<trkpt lat="33.810313" lon="-118.393867">
  <ele>-0.12</ele>
  <time>2026-09-02T22:13:19Z</time>
  <course>0.0</course>
  <speed>0.0</speed>
  <fix>3d</fix>
</trkpt>
<trkpt lat="33.810313" lon="-118.393867">
  <ele>-0.12</ele>
  <time>2026-09-02T22:13:19Z</time>
  <course>187.33</course>
  <speed>0.03605551275463989</speed>
  <fix>3d</fix>
</trkpt>
<trkpt lat="33.810313" lon="-118.393867">
  <ele>-0.12</ele>
  <time>2026-09-02T22:13:19Z</time>
  <course>0.0</course>
  <speed>0.0</speed>
  <fix>3d</fix>
</trkpt>
<trkpt lat="33.810313" lon="-118.393867">
  <ele>-0.121</ele>
  <time>2026-09-02T22:13:19Z</time>
  <course>187.32</course>
  <speed>0.03605551275463989</speed>
  <fix>3d</fix>
</trkpt>
<trkpt lat="33.810313" lon="-118.393867">
  <ele>-0.12</ele>
  <time>2026-09-02T22:13:19Z</time>
  <course>0.0</course>
  <speed>0.0</speed>
  <fix>3d</fix>
</trkpt>
<trkpt lat="33.810313" lon="-118.393867">
  <ele>-0.121</ele>
  <time>2026-09-02T22:13:19Z</time>
  <course>187.32</course>
  <speed>0.03605551275463989</speed>
  <fix>3d</fix>
</trkpt>
<trkpt lat="33.810313" lon="-118.393867">
  <ele>-0.12</ele>
  <time>2026-09-02T22:13:19Z</time>
  <course>0.0</course>
  <speed>0.0</speed>
  <fix>3d</fix>
</trkpt>
<trkpt lat="33.810313" lon="-118.393867">
  <ele>-0.121</ele>
  <time>2026-09-02T22:13:19Z</time>
  <course>187.31</course>
  <speed>0.03605551275463989</speed>
  <fix>3d</fix>
</trkpt>
<trkpt lat="33.810313" lon="-118.393867">
  <ele>-0.12</ele>
  <time>2026-09-02T22:13:19Z</time>
  <course>0.0</course>
  <speed>0.0</speed>
  <fix>3d</fix>
</trkpt>
<trkpt lat="33.810313" lon="-118.393867">
  <ele>-0.12</ele>
  <time>2026-09-02T22:13:19Z</time>
  <course>187.31</course>
  <speed>0.03605551275463989</speed>
  <fix>3d</fix>
</trkpt>
<trkpt lat="33.810313" lon="-118.393867">
  <ele>-0.12</ele>
  <time>2026-09-02T22:13:19Z</time>
  <course>0.0</course>
  <speed>0.0</speed>
  <fix>3d</fix>
</trkpt>
<trkpt lat="33.810313" lon="-118.393867">
  <ele>-0.119</ele>
  <time>2026-09-02T22:13:19Z</time>
  <course>187.3</course>
  <speed>0.03605551275463989</speed>
  <fix>3d</fix>
</trkpt>
<trkpt lat="33.810313" lon="-118.393867">
  <ele>-0.12</ele>
  <time>2026-09-02T22:13:19Z</time>
  <course>0.0</course>
  <speed>0.0</speed>
  <fix>3d</fix>
</trkpt>
<trkpt lat="33.810313" lon="-118.393867">
  <ele>-0.117</ele>
  <time>2026-09-02T22:13:19Z</time>
  <course>187.3</course>
  <speed>0.03605551275463989</speed>
  <fix>3d</fix>
</trkpt>
<trkpt lat="33.810313" lon="-118.393867">
  <ele>-0.12</ele>
  <time>2026-09-02T22:13:19Z</time>
  <course>0.0</course>
  <speed>0.0</speed>
  <fix>3d</fix>
</trkpt>
<trkpt lat="33.810313" lon="-118.393867">
  <ele>-0.116</ele>
  <time>2026-09-02T22:13:19Z</time>
  <course>187.29</course>
  <speed>0.03605551275463989</speed>
  <fix>3d</fix>
</trkpt>
<trkpt lat="33.810313" lon="-118.393867">
  <ele>-0.12</ele>
  <time>2026-09-02T22:13:19Z</time>
  <course>0.0</course>
  <speed>0.0</speed>
  <fix>3d</fix>
</trkpt>
<trkpt lat="33.810313" lon="-118.393867">
  <ele>-0.116</ele>
  <time>2026-09-02T22:13:19Z</time>
  <course>187.28</course>
  <speed>0.03605551275463989</speed>
  <fix>3d</fix>
</trkpt>
<trkpt lat="33.810313" lon="-118.393867">
  <ele>-0.12</ele>
  <time>2026-09-02T22:13:19Z</time>
  <course>0.0</course>
  <speed>0.0</speed>
  <fix>3d</fix>
</trkpt>
<trkpt lat="33.810313" lon="-118.393867">
  <ele>-0.117</ele>
  <time>2026-09-02T22:13:19Z</time>
  <course>187.28</course>
  <speed>0.03605551275463989</speed>
  <fix>3d</fix>
</trkpt>
<trkpt lat="33.810313" lon="-118.393867">
  <ele>-0.12</ele>
  <time>2026-09-02T22:13:19Z</time>
  <course>0.0</course>
  <speed>0.0</speed>
  <fix>3d</fix>
</trkpt>
<trkpt lat="33.810313" lon="-118.393867">
  <ele>-0.117</ele>
  <time>2026-09-02T22:13:19Z</time>
  <course>187.27</course>
  <speed>0.03605551275463989</speed>
  <fix>3d</fix>
</trkpt>
<trkpt lat="33.810313" lon="-118.393867">
  <ele>-0.12</ele>
  <time>2026-09-02T22:13:19Z</time>
  <course>0.0</course>
  <speed>0.0</speed>
  <fix>3d</fix>
</trkpt>
<trkpt lat="33.810313" lon="-118.393867">
  <ele>-0.117</ele>
  <time>2026-09-02T22:13:19Z</time>
  <course>187.27</course>
  <speed>0.03605551275463989</speed>
  <fix>3d</fix>
</trkpt>
<trkpt lat="33.810313" lon="-118.393867">
  <ele>-0.12</ele>
  <time>2026-09-02T22:13:19Z</time>
  <course>0.0</course>
  <speed>0.0</speed>
  <fix>3d</fix>
</trkpt>
<trkpt lat="33.810313" lon="-118.393867">
  <ele>-0.117</ele>
  <time>2026-09-02T22:13:19Z</time>
  <course>187.26</course>
  <speed>0.03605551275463989</speed>
  <fix>3d</fix>
</trkpt>
<trkpt lat="33.810313" lon="-118.393867">
  <ele>-0.12</ele>
  <time>2026-09-02T22:13:19Z</time>
  <course>0.0</course>
  <speed>0.0</speed>
  <fix>3d</fix>
</trkpt>
<trkpt lat="33.810313" lon="-118.393867">
  <ele>-0.118</ele>
  <time>2026-09-02T22:13:19Z</time>
  <course>187.26</course>
  <speed>0.03605551275463989</speed>
  <fix>3d</fix>
</trkpt>
<trkpt lat="33.810313" lon="-118.393867">
  <ele>-0.12</ele>
  <time>2026-09-02T22:13:19Z</time>
  <course>0.0</course>
  <speed>0.0</speed>
  <fix>3d</fix>
</trkpt>
<trkpt lat="33.810313" lon="-118.393867">
  <ele>-0.118</ele>
  <time>2026-09-02T22:13:19Z</time>
  <course>187.25</course>
  <speed>0.03605551275463989</speed>
  <fix>3d</fix>
</trkpt>
<trkpt lat="33.810313" lon="-118.393867">
  <ele>-0.12</ele>
  <time>2026-09-02T22:13:19Z</time>
  <course>0.0</course>
  <speed>0.0</speed>
  <fix>3d</fix>
</trkpt>
<trkpt lat="33.810313" lon="-118.393867">
  <ele>-0.118</ele>
  <time>2026-09-02T22:13:19Z</time>
  <course>187.25</course>
  <speed>0.03605551275463989</speed>
  <fix>3d</fix>
</trkpt>
<trkpt lat="33.810313" lon="-118.393867">
  <ele>-0.12</ele>
  <time>2026-09-02T22:13:19Z</time>
  <course>0.0</course>
  <speed>0.0</speed>
  <fix>3d</fix>
</trkpt>
<trkpt lat="33.810313" lon="-118.393867">
  <ele>-0.118</ele>
  <time>2026-09-02T22:13:19Z</time>
  <course>187.24</course>
  <speed>0.03605551275463989</speed>
  <fix>3d</fix>
</trkpt>
<trkpt lat="33.810313" lon="-118.393867">
  <ele>-0.12</ele>
  <time>2026-09-02T22:13:19Z</time>
  <course>0.0</course>
  <speed>0.0</speed>
  <fix>3d</fix>
</trkpt>
<trkpt lat="33.810313" lon="-118.393867">
  <ele>-0.117</ele>
  <time>2026-09-02T22:13:19Z</time>
  <course>187.24</course>
  <speed>0.03605551275463989</speed>
  <fix>3d</fix>
</trkpt>
<trkpt lat="33.810313" lon="-118.393867">
  <ele>-0.12</ele>
  <time>2026-09-02T22:13:19Z</time>
  <course>0.0</course>
  <speed>0.0</speed>
  <fix>3d</fix>
</trkpt>
<trkpt lat="33.810313" lon="-118.393867">
  <ele>-0.116</ele>
  <time>2026-09-02T22:13:19Z</time>
  <course>187.23</course>
  <speed>0.03605551275463989</speed>
  <fix>3d</fix>
</trkpt>
<trkpt lat="33.810313" lon="-118.393867">
  <ele>-0.12</ele>
  <time>2026-09-02T22:13:19Z</time>
  <course>0.0</course>
  <speed>0.0</speed>
  <fix>3d</fix>
</trkpt>
<trkpt lat="33.810313" lon="-118.393867">
  <ele>-0.116</ele>
  <time>2026-09-02T22:13:19Z</time>
  <course>187.22</course>
  <speed>0.03605551275463989</speed>
  <fix>3d</fix>
</trkpt>
<trkpt lat="33.810313" lon="-118.393867">
  <ele>-0.12</ele>
  <time>2026-09-02T22:13:19Z</time>
  <course>0.0</course>
  <speed>0.0</speed>
  <fix>3d</fix>
</trkpt>
<trkpt lat="33.810313" lon="-118.393867">
  <ele>-0.116</ele>
  <time>2026-09-02T22:13:19Z</time>
  <course>187.22</course>
  <speed>0.03605551275463989</speed>
  <fix>3d</fix>
</trkpt>
<trkpt lat="33.810313" lon="-118.393867">
  <ele>-0.12</ele>
  <time>2026-09-02T22:13:19Z</time>
  <course>0.0</course>
  <speed>0.0</speed>
  <fix>3d</fix>
</trkpt>
<trkpt lat="33.810313" lon="-118.393867">
  <ele>-0.116</ele>
  <time>2026-09-02T22:13:19Z</time>
  <course>187.21</course>
  <speed>0.03605551275463989</speed>
  <fix>3d</fix>
</trkpt>
<trkpt lat="33.810313" lon="-118.393867">
  <ele>-0.12</ele>
  <time>2026-09-02T22:13:19Z</time>
  <course>0.0</course>
  <speed>0.0</speed>
  <fix>3d</fix>
</trkpt>
<trkpt lat="33.810313" lon="-118.393867">
  <ele>-0.114</ele>
  <time>2026-09-02T22:13:19Z</time>
  <course>187.21</course>
  <speed>0.03605551275463989</speed>
  <fix>3d</fix>
</trkpt>
<trkpt lat="33.810313" lon="-118.393867">
  <ele>-0.12</ele>
  <time>2026-09-02T22:13:19Z</time>
  <course>0.0</course>
  <speed>0.0</speed>
  <fix>3d</fix>
</trkpt>
<trkpt lat="33.810313" lon="-118.393867">
  <ele>-0.112</ele>
  <time>2026-09-02T22:13:19Z</time>
  <course>187.2</course>
  <speed>0.03605551275463989</speed>
  <fix>3d</fix>
</trkpt>
<trkpt lat="33.810313" lon="-118.393867">
  <ele>-0.12</ele>
  <time>2026-09-02T22:13:19Z</time>
  <course>0.0</course>
  <speed>0.0</speed>
  <fix>3d</fix>
</trkpt>
<trkpt lat="33.810313" lon="-118.393867">
  <ele>-0.109</ele>
  <time>2026-09-02T22:13:19Z</time>
  <course>187.2</course>
  <speed>0.03605551275463989</speed>
  <fix>3d</fix>
</trkpt>
<trkpt lat="33.810313" lon="-118.393867">
  <ele>-0.12</ele>
  <time>2026-09-02T22:13:19Z</time>
  <course>0.0</course>
  <speed>0.0</speed>
  <fix>3d</fix>
</trkpt>
<trkpt lat="33.810313" lon="-118.393867">
  <ele>-0.107</ele>
  <time>2026-09-02T22:13:19Z</time>
  <course>187.19</course>
  <speed>0.03605551275463989</speed>
  <fix>3d</fix>
</trkpt>
<trkpt lat="33.810313" lon="-118.393867">
  <ele>-0.12</ele>
  <time>2026-09-02T22:13:19Z</time>
  <course>0.0</course>
  <speed>0.0</speed>
  <fix>3d</fix>
</trkpt>
<trkpt lat="33.810313" lon="-118.393867">
  <ele>-0.106</ele>
  <time>2026-09-02T22:13:19Z</time>
  <course>187.19</course>
  <speed>0.03605551275463989</speed>
  <fix>3d</fix>
</trkpt>
<trkpt lat="33.810313" lon="-118.393867">
  <ele>-0.12</ele>
  <time>2026-09-02T22:13:19Z</time>
  <course>0.0</course>
  <speed>0.0</speed>
  <fix>3d</fix>
</trkpt>
<trkpt lat="33.810313" lon="-118.393867">
  <ele>-0.106</ele>
  <time>2026-09-02T22:13:19Z</time>
  <course>187.18</course>
  <speed>0.03605551275463989</speed>
  <fix>3d</fix>
</trkpt>
<trkpt lat="33.810313" lon="-118.393867">
  <ele>-0.12</ele>
  <time>2026-09-02T22:13:19Z</time>
  <course>0.0</course>
  <speed>0.0</speed>
  <fix>3d</fix>
</trkpt>
<trkpt lat="33.810313" lon="-118.393867">
  <ele>-0.106</ele>
  <time>2026-09-02T22:13:19Z</time>
  <course>187.18</course>
  <speed>0.03605551275463989</speed>
  <fix>3d</fix>
</trkpt>
<trkpt lat="33.810313" lon="-118.393867">
  <ele>-0.12</ele>
  <time>2026-09-02T22:13:19Z</time>
  <course>0.0</course>
  <speed>0.0</speed>
  <fix>3d</fix>
</trkpt>
<trkpt lat="33.810313" lon="-118.393867">
  <ele>-0.107</ele>
  <time>2026-09-02T22:13:19Z</time>
  <course>187.17</course>
  <speed>0.03605551275463989</speed>
  <fix>3d</fix>
</trkpt>
<trkpt lat="33.810313" lon="-118.393867">
  <ele>-0.12</ele>
  <time>2026-09-02T22:13:19Z</time>
  <course>0.0</course>
  <speed>0.0</speed>
  <fix>3d</fix>
</trkpt>
<trkpt lat="33.810313" lon="-118.393867">
  <ele>-0.108</ele>
  <time>2026-09-02T22:13:19Z</time>
  <course>187.17</course>
  <speed>0.0</speed>
  <fix>3d</fix>
</trkpt>
<trkpt lat="33.810313" lon="-118.393867">
  <ele>-0.12</ele>
  <time>2026-09-02T22:13:19Z</time>
  <course>0.0</course>
  <speed>0.0</speed>
  <fix>3d</fix>
</trkpt>
<trkpt lat="33.810313" lon="-118.393867">
  <ele>-0.109</ele>
  <time>2026-09-02T22:13:19Z</time>
  <course>187.16</course>
  <speed>0.0</speed>
  <fix>3d</fix>
</trkpt>
<trkpt lat="33.810313" lon="-118.393867">
  <ele>-0.12</ele>
  <time>2026-09-02T22:13:19Z</time>
  <course>0.0</course>
  <speed>0.0</speed>
  <fix>3d</fix>
</trkpt>
<trkpt lat="33.810313" lon="-118.393867">
  <ele>-0.111</ele>
  <time>2026-09-02T22:13:19Z</time>
  <course>187.16</course>
  <speed>0.0</speed>
  <fix>3d</fix>
</trkpt>
<trkpt lat="33.810313" lon="-118.393867">
  <ele>-0.12</ele>
  <time>2026-09-02T22:13:19Z</time>
  <course>0.0</course>
  <speed>0.0</speed>
  <fix>3d</fix>
</trkpt>
<trkpt lat="33.810313" lon="-118.393867">
  <ele>-0.113</ele>
  <time>2026-09-02T22:13:19Z</time>
  <course>187.15</course>
  <speed>0.0</speed>
  <fix>3d</fix>
</trkpt>
<trkpt lat="33.810313" lon="-118.393867">
  <ele>-0.12</ele>
  <time>2026-09-02T22:13:19Z</time>
  <course>0.0</course>
  <speed>0.0</speed>
  <fix>3d</fix>
</trkpt>
<trkpt lat="33.810313" lon="-118.393867">
  <ele>-0.114</ele>
  <time>2026-09-02T22:13:19Z</time>
  <course>187.15</course>
  <speed>0.0</speed>
  <fix>3d</fix>
</trkpt>
<trkpt lat="33.810313" lon="-118.393867">
  <ele>-0.12</ele>
  <time>2026-09-02T22:13:19Z</time>
  <course>0.0</course>
  <speed>0.0</speed>
  <fix>3d</fix>
</trkpt>
<trkpt lat="33.810313" lon="-118.393867">
  <ele>-0.114</ele>
  <time>2026-09-02T22:13:19Z</time>
  <course>187.14</course>
  <speed>0.0</speed>
  <fix>3d</fix>
</trkpt>
<trkpt lat="33.810313" lon="-118.393867">
  <ele>-0.12</ele>
  <time>2026-09-02T22:13:19Z</time>
  <course>0.0</course>
  <speed>0.0</speed>
  <fix>3d</fix>
</trkpt>
<trkpt lat="33.810313" lon="-118.393867">
  <ele>-0.114</ele>
  <time>2026-09-02T22:13:19Z</time>
  <course>187.14</course>
  <speed>0.0</speed>
  <fix>3d</fix>
</trkpt>
<trkpt lat="33.810313" lon="-118.393867">
  <ele>-0.12</ele>
  <time>2026-09-02T22:13:19Z</time>
  <course>0.0</course>
  <speed>0.0</speed>
  <fix>3d</fix>
</trkpt>
<trkpt lat="33.810313" lon="-118.393867">
  <ele>-0.115</ele>
  <time>2026-09-02T22:13:19Z</time>
  <course>187.13</course>
  <speed>0.0</speed>
  <fix>3d</fix>
</trkpt>
<trkpt lat="33.810313" lon="-118.393867">
  <ele>-0.12</ele>
  <time>2026-09-02T22:13:19Z</time>
  <course>0.0</course>
  <speed>0.0</speed>
  <fix>3d</fix>
</trkpt>
<trkpt lat="33.810313" lon="-118.393867">
  <ele>-0.117</ele>
  <time>2026-09-02T22:13:19Z</time>
  <course>187.13</course>
  <speed>0.0</speed>
  <fix>3d</fix>
</trkpt>
<trkpt lat="33.810313" lon="-118.393867">
  <ele>-0.12</ele>
  <time>2026-09-02T22:13:19Z</time>
  <course>0.0</course>
  <speed>0.0</speed>
  <fix>3d</fix>
</trkpt>
<trkpt lat="33.810313" lon="-118.393867">
  <ele>-0.12</ele>
  <time>2026-09-02T22:13:19Z</time>
  <course>187.12</course>
  <speed>0.0</speed>
  <fix>3d</fix>
</trkpt>
<trkpt lat="33.810313" lon="-118.393867">
  <ele>-0.12</ele>
  <time>2026-09-02T22:13:19Z</time>
  <course>0.0</course>
  <speed>0.0</speed>
  <fix>3d</fix>
</trkpt>
<trkpt lat="33.810313" lon="-118.393867">
  <ele>-0.123</ele>
  <time>2026-09-02T22:13:19Z</time>
  <course>187.12</course>
  <speed>0.01</speed>
  <fix>3d</fix>
</trkpt>
<trkpt lat="33.810313" lon="-118.393867">
  <ele>-0.12</ele>
  <time>2026-09-02T22:13:19Z</time>
  <course>0.0</course>
  <speed>0.0</speed>
  <fix>3d</fix>
</trkpt>
<trkpt lat="33.810313" lon="-118.393867">
  <ele>-0.126</ele>
  <time>2026-09-02T22:13:19Z</time>
  <course>187.11</course>
  <speed>0.01</speed>
  <fix>3d</fix>
</trkpt>
<trkpt lat="33.810313" lon="-118.393867">
  <ele>-0.12</ele>
  <time>2026-09-02T22:13:19Z</time>
  <course>0.0</course>
  <speed>0.0</speed>
  <fix>3d</fix>
</trkpt>
<trkpt lat="33.810313" lon="-118.393867">
  <ele>-0.127</ele>
  <time>2026-09-02T22:13:19Z</time>
  <course>187.11</course>
  <speed>0.01</speed>
  <fix>3d</fix>
</trkpt>
<trkpt lat="33.810313" lon="-118.393867">
  <ele>-0.12</ele>
  <time>2026-09-02T22:13:19Z</time>
  <course>0.0</course>
  <speed>0.0</speed>
  <fix>3d</fix>
</trkpt>
<trkpt lat="33.810313" lon="-118.393867">
  <ele>-0.127</ele>
  <time>2026-09-02T22:13:19Z</time>
  <course>187.1</course>
  <speed>0.01</speed>
  <fix>3d</fix>
</trkpt>
<trkpt lat="33.810313" lon="-118.393867">
  <ele>-0.12</ele>
  <time>2026-09-02T22:13:19Z</time>
  <course>0.0</course>
  <speed>0.0</speed>
  <fix>3d</fix>
</trkpt>
<trkpt lat="33.810313" lon="-118.393867">
  <ele>-0.127</ele>
  <time>2026-09-02T22:13:19Z</time>
  <course>187.1</course>
  <speed>0.01414213562373095</speed>
  <fix>3d</fix>
</trkpt>
<trkpt lat="33.810313" lon="-118.393867">
  <ele>-0.12</ele>
  <time>2026-09-02T22:13:19Z</time>
  <course>0.0</course>
  <speed>0.0</speed>
  <fix>3d</fix>
</trkpt>
<trkpt lat="33.810313" lon="-118.393867">
  <ele>-0.126</ele>
  <time>2026-09-02T22:13:19Z</time>
  <course>187.09</course>
  <speed>0.01414213562373095</speed>
  <fix>3d</fix>
</trkpt>
<trkpt lat="33.810313" lon="-118.393867">
  <ele>-0.12</ele>
  <time>2026-09-02T22:13:19Z</time>
  <course>0.0</course>
  <speed>0.0</speed>
  <fix>3d</fix>
</trkpt>
<trkpt lat="33.810313" lon="-118.393867">
  <ele>-0.125</ele>
  <time>2026-09-02T22:13:19Z</time>
  <course>187.09</course>
  <speed>0.01414213562373095</speed>
  <fix>3d</fix>
</trkpt>
<trkpt lat="33.810313" lon="-118.393867">
  <ele>-0.12</ele>
  <time>2026-09-02T22:13:19Z</time>
  <course>0.0</course>
  <speed>0.0</speed>
  <fix>3d</fix>
</trkpt>
<trkpt lat="33.810313" lon="-118.393867">
  <ele>-0.122</ele>
  <time>2026-09-02T22:13:19Z</time>
  <course>187.08</course>
  <speed>0.01414213562373095</speed>
  <fix>3d</fix>
</trkpt>
<trkpt lat="33.810313" lon="-118.393867">
  <ele>-0.12</ele>
  <time>2026-09-02T22:13:19Z</time>
  <course>0.0</course>
  <speed>0.0</speed>
  <fix>3d</fix>
</trkpt>
<trkpt lat="33.810313" lon="-118.393867">
  <ele>-0.12</ele>
  <time>2026-09-02T22:13:19Z</time>
  <course>187.08</course>
  <speed>0.01414213562373095</speed>
  <fix>3d</fix>
</trkpt>
<trkpt lat="33.810313" lon="-118.393867">
  <ele>-0.12</ele>
  <time>2026-09-02T22:13:19Z</time>
  <course>0.0</course>
  <speed>0.0</speed>
  <fix>3d</fix>
</trkpt>
<trkpt lat="33.810313" lon="-118.393867">
  <ele>-0.118</ele>
  <time>2026-09-02T22:13:19Z</time>
  <course>187.07</course>
  <speed>0.01414213562373095</speed>
  <fix>3d</fix>
</trkpt>
<trkpt lat="33.810313" lon="-118.393867">
  <ele>-0.12</ele>
  <time>2026-09-02T22:13:19Z</time>
  <course>0.0</course>
  <speed>0.0</speed>
  <fix>3d</fix>
</trkpt>
<trkpt lat="33.810313" lon="-118.393867">
  <ele>-0.117</ele>
  <time>2026-09-02T22:13:19Z</time>
  <course>187.07</course>
  <speed>0.022360679774997897</speed>
  <fix>3d</fix>
</trkpt>
<trkpt lat="33.810313" lon="-118.393867">
  <ele>-0.12</ele>
  <time>2026-09-02T22:13:19Z</time>
  <course>0.0</course>
  <speed>0.0</speed>
  <fix>3d</fix>
</trkpt>
<trkpt lat="33.810313" lon="-118.393867">
  <ele>-0.118</ele>
  <time>2026-09-02T22:13:19Z</time>
  <course>187.06</course>
  <speed>0.022360679774997897</speed>
  <fix>3d</fix>
</trkpt>
<trkpt lat="33.810313" lon="-118.393867">
  <ele>-0.12</ele>
  <time>2026-09-02T22:13:19Z</time>
  <course>0.0</course>
  <speed>0.0</speed>
  <fix>3d</fix>
</trkpt>
<trkpt lat="33.810313" lon="-118.393867">
  <ele>-0.118</ele>
  <time>2026-09-02T22:13:19Z</time>
  <course>187.06</course>
  <speed>0.022360679774997897</speed>
  <fix>3d</fix>
</trkpt>
<trkpt lat="33.810313" lon="-118.393867">
  <ele>-0.12</ele>
  <time>2026-09-02T22:13:19Z</time>
  <course>0.0</course>
  <speed>0.0</speed>
  <fix>3d</fix>
</trkpt>
<trkpt lat="33.810313" lon="-118.393867">
  <ele>-0.119</ele>
  <time>2026-09-02T22:13:19Z</time>
  <course>187.06</course>
  <speed>0.022360679774997897</speed>
  <fix>3d</fix>
</trkpt>
<trkpt lat="33.810313" lon="-118.393867">
  <ele>-0.12</ele>
  <time>2026-09-02T22:13:19Z</time>
  <course>0.0</course>
  <speed>0.0</speed>
  <fix>3d</fix>
</trkpt>
<trkpt lat="33.810313" lon="-118.393867">
  <ele>-0.118</ele>
  <time>2026-09-02T22:13:19Z</time>
  <course>187.05</course>
  <speed>0.022360679774997897</speed>
  <fix>3d</fix>
</trkpt>
<trkpt lat="33.810313" lon="-118.393867">
  <ele>-0.12</ele>
  <time>2026-09-02T22:13:19Z</time>
  <course>0.0</course>
  <speed>0.0</speed>
  <fix>3d</fix>
</trkpt>
<trkpt lat="33.810313" lon="-118.393867">
  <ele>-0.116</ele>
  <time>2026-09-02T22:13:19Z</time>
  <course>187.05</course>
  <speed>0.022360679774997897</speed>
  <fix>3d</fix>
</trkpt>
<trkpt lat="33.810313" lon="-118.393867">
  <ele>-0.12</ele>
  <time>2026-09-02T22:13:19Z</time>
  <course>0.0</course>
  <speed>0.0</speed>
  <fix>3d</fix>
</trkpt>
<trkpt lat="33.8103131" lon="-118.393867">
  <ele>-0.115</ele>
  <time>2026-09-02T22:13:19Z</time>
  <course>187.04</course>
  <speed>0.022360679774997897</speed>
  <fix>3d</fix>
</trkpt>
<trkpt lat="33.810313" lon="-118.393867">
  <ele>-0.12</ele>
  <time>2026-09-02T22:13:19Z</time>
  <course>0.0</course>
  <speed>0.0</speed>
  <fix>3d</fix>
</trkpt>
<trkpt lat="33.8103131" lon="-118.393867">
  <ele>-0.113</ele>
  <time>2026-09-02T22:13:19Z</time>
  <course>187.04</course>
  <speed>0.022360679774997897</speed>
  <fix>3d</fix>
</trkpt>
<trkpt lat="33.810313" lon="-118.393867">
  <ele>-0.12</ele>
  <time>2026-09-02T22:13:19Z</time>
  <course>0.0</course>
  <speed>0.0</speed>
  <fix>3d</fix>
</trkpt>
<trkpt lat="33.8103131" lon="-118.3938671">
  <ele>-0.113</ele>
  <time>2026-09-02T22:13:19Z</time>
  <course>187.03</course>
  <speed>0.022360679774997897</speed>
  <fix>3d</fix>
</trkpt>
<trkpt lat="33.810313" lon="-118.393867">
  <ele>-0.12</ele>
  <time>2026-09-02T22:13:19Z</time>
  <course>0.0</course>
  <speed>0.0</speed>
  <fix>3d</fix>
</trkpt>
<trkpt lat="33.8103131" lon="-118.3938671">
  <ele>-0.114</ele>
  <time>2026-09-02T22:13:19Z</time>
  <course>187.03</course>
  <speed>0.0282842712474619</speed>
  <fix>3d</fix>
</trkpt>
<trkpt lat="33.810313" lon="-118.393867">
  <ele>-0.12</ele>
  <time>2026-09-02T22:13:19Z</time>
  <course>0.0</course>
  <speed>0.0</speed>
  <fix>3d</fix>
</trkpt>
<trkpt lat="33.8103131" lon="-118.3938671">
  <ele>-0.116</ele>
  <time>2026-09-02T22:13:19Z</time>
  <course>187.02</course>
  <speed>0.0282842712474619</speed>
  <fix>3d</fix>
</trkpt>
<trkpt lat="33.810313" lon="-118.393867">
  <ele>-0.12</ele>
  <time>2026-09-02T22:13:19Z</time>
  <course>0.0</course>
  <speed>0.0</speed>
  <fix>3d</fix>
</trkpt>
<trkpt lat="33.8103131" lon="-118.3938671">
  <ele>-0.118</ele>
  <time>2026-09-02T22:13:19Z</time>
  <course>187.02</course>
  <speed>0.0282842712474619</speed>
  <fix>3d</fix>
</trkpt>
<trkpt lat="33.810313" lon="-118.393867">
  <ele>-0.12</ele>
  <time>2026-09-02T22:13:19Z</time>
  <course>0.0</course>
  <speed>0.0</speed>
  <fix>3d</fix>
</trkpt>
<trkpt lat="33.8103131" lon="-118.3938671">
  <ele>-0.12</ele>
  <time>2026-09-02T22:13:19Z</time>
  <course>187.01</course>
  <speed>0.0282842712474619</speed>
  <fix>3d</fix>
</trkpt>
<trkpt lat="33.810313" lon="-118.393867">
  <ele>-0.12</ele>
  <time>2026-09-02T22:13:19Z</time>
  <course>0.0</course>
  <speed>0.0</speed>
  <fix>3d</fix>
</trkpt>
<trkpt lat="33.8103131" lon="-118.3938671">
  <ele>-0.12</ele>
  <time>2026-09-02T22:13:19Z</time>
  <course>187.01</course>
  <speed>0.0282842712474619</speed>
  <fix>3d</fix>
</trkpt>
<trkpt lat="33.810313" lon="-118.393867">
  <ele>-0.12</ele>
  <time>2026-09-02T22:13:19Z</time>
  <course>0.0</course>
  <speed>0.0</speed>
  <fix>3d</fix>
</trkpt>
<trkpt lat="33.8103131" lon="-118.3938671">
  <ele>-0.119</ele>
  <time>2026-09-02T22:13:19Z</time>
  <course>187.0</course>
  <speed>0.03605551275463989</speed>
  <fix>3d</fix>
</trkpt>
<trkpt lat="33.810313" lon="-118.393867">
  <ele>-0.12</ele>
  <time>2026-09-02T22:13:19Z</time>
  <course>0.0</course>
  <speed>0.0</speed>
  <fix>3d</fix>
</trkpt>
<trkpt lat="33.8103131" lon="-118.3938671">
  <ele>-0.118</ele>
  <time>2026-09-02T22:13:19Z</time>
  <course>187.0</course>
  <speed>0.03605551275463989</speed>
  <fix>3d</fix>
</trkpt>
<trkpt lat="33.810313" lon="-118.393867">
  <ele>-0.12</ele>
  <time>2026-09-02T22:13:19Z</time>
  <course>0.0</course>
  <speed>0.0</speed>
  <fix>3d</fix>
</trkpt>
<trkpt lat="33.8103131" lon="-118.3938671">
  <ele>-0.116</ele>
  <time>2026-09-02T22:13:19Z</time>
  <course>186.99</course>
  <speed>0.03605551275463989</speed>
  <fix>3d</fix>
</trkpt>
<trkpt lat="33.810313" lon="-118.393867">
  <ele>-0.12</ele>
  <time>2026-09-02T22:13:19Z</time>
  <course>0.0</course>
  <speed>0.0</speed>
  <fix>3d</fix>
</trkpt>
<trkpt lat="33.8103131" lon="-118.3938671">
  <ele>-0.114</ele>
  <time>2026-09-02T22:13:19Z</time>
  <course>186.99</course>
  <speed>0.03605551275463989</speed>
  <fix>3d</fix>
</trkpt>
<trkpt lat="33.810313" lon="-118.393867">
  <ele>-0.12</ele>
  <time>2026-09-02T22:13:19Z</time>
  <course>0.0</course>
  <speed>0.0</speed>
  <fix>3d</fix>
</trkpt>
<trkpt lat="33.8103131" lon="-118.3938671">
  <ele>-0.115</ele>
  <time>2026-09-02T22:13:19Z</time>
  <course>186.98</course>
  <speed>0.03605551275463989</speed>
  <fix>3d</fix>
</trkpt>
<trkpt lat="33.810313" lon="-118.393867">
  <ele>-0.12</ele>
  <time>2026-09-02T22:13:19Z</time>
  <course>0.0</course>
  <speed>0.0</speed>
  <fix>3d</fix>
</trkpt>
<trkpt lat="33.8103131" lon="-118.3938671">
  <ele>-0.116</ele>
  <time>2026-09-02T22:13:19Z</time>
  <course>186.98</course>
  <speed>0.03605551275463989</speed>
  <fix>3d</fix>
</trkpt>
<trkpt lat="33.810313" lon="-118.393867">
  <ele>-0.12</ele>
  <time>2026-09-02T22:13:19Z</time>
  <course>0.0</course>
  <speed>0.0</speed>
  <fix>3d</fix>
</trkpt>
<trkpt lat="33.8103132" lon="-118.3938671">
  <ele>-0.118</ele>
  <time>2026-09-02T22:13:19Z</time>
  <course>186.98</course>
  <speed>0.03605551275463989</speed>
  <fix>3d</fix>
</trkpt>
<trkpt lat="33.810313" lon="-118.393867">
  <ele>-0.12</ele>
  <time>2026-09-02T22:13:19Z</time>
  <course>0.0</course>
  <speed>0.0</speed>
  <fix>3d</fix>
</trkpt>
<trkpt lat="33.8103132" lon="-118.3938671">
  <ele>-0.119</ele>
  <time>2026-09-02T22:13:19Z</time>
  <course>186.97</course>
  <speed>0.03605551275463989</speed>
  <fix>3d</fix>
</trkpt>
<trkpt lat="33.810313" lon="-118.393867">
  <ele>-0.12</ele>
  <time>2026-09-02T22:13:19Z</time>
  <course>0.0</course>
  <speed>0.0</speed>
  <fix>3d</fix>
</trkpt>
<trkpt lat="33.8103132" lon="-118.3938671">
  <ele>-0.121</ele>
  <time>2026-09-02T22:13:19Z</time>
  <course>186.97</course>
  <speed>0.03605551275463989</speed>
  <fix>3d</fix>
</trkpt>
<trkpt lat="33.810313" lon="-118.393867">
  <ele>-0.12</ele>
  <time>2026-09-02T22:13:19Z</time>
  <course>0.0</course>
  <speed>0.0</speed>
  <fix>3d</fix>
</trkpt>
<trkpt lat="33.8103132" lon="-118.3938671">
  <ele>-0.122</ele>
  <time>2026-09-02T22:13:19Z</time>
  <course>186.96</course>
  <speed>0.03605551275463989</speed>
  <fix>3d</fix>
</trkpt>
<trkpt lat="33.810313" lon="-118.393867">
  <ele>-0.12</ele>
  <time>2026-09-02T22:13:19Z</time>
  <course>0.0</course>
  <speed>0.0</speed>
  <fix>3d</fix>
</trkpt>
<trkpt lat="33.8103132" lon="-118.3938671">
  <ele>-0.123</ele>
  <time>2026-09-02T22:13:19Z</time>
  <course>186.96</course>
  <speed>0.03605551275463989</speed>
  <fix>3d</fix>
</trkpt>
<trkpt lat="33.810313" lon="-118.393867">
  <ele>-0.12</ele>
  <time>2026-09-02T22:13:19Z</time>
  <course>0.0</course>
  <speed>0.0</speed>
  <fix>3d</fix>
</trkpt>
<trkpt lat="33.8103132" lon="-118.3938671">
  <ele>-0.122</ele>
  <time>2026-09-02T22:13:19Z</time>
  <course>186.95</course>
  <speed>0.03605551275463989</speed>
  <fix>3d</fix>
</trkpt>
<trkpt lat="33.810313" lon="-118.393867">
  <ele>-0.12</ele>
  <time>2026-09-02T22:13:19Z</time>
  <course>0.0</course>
  <speed>0.0</speed>
  <fix>3d</fix>
</trkpt>
<trkpt lat="33.8103132" lon="-118.3938671">
  <ele>-0.12</ele>
  <time>2026-09-02T22:13:19Z</time>
  <course>186.95</course>
  <speed>0.03605551275463989</speed>
  <fix>3d</fix>
</trkpt>
<trkpt lat="33.810313" lon="-118.393867">
  <ele>-0.12</ele>
  <time>2026-09-02T22:13:19Z</time>
  <course>0.0</course>
  <speed>0.0</speed>
  <fix>3d</fix>
</trkpt>
<trkpt lat="33.8103132" lon="-118.3938671">
  <ele>-0.119</ele>
  <time>2026-09-02T22:13:19Z</time>
  <course>186.95</course>
  <speed>0.03605551275463989</speed>
  <fix>3d</fix>
</trkpt>
<trkpt lat="33.810313" lon="-118.393867">
  <ele>-0.12</ele>
  <time>2026-09-02T22:13:19Z</time>
  <course>0.0</course>
  <speed>0.0</speed>
  <fix>3d</fix>
</trkpt>
<trkpt lat="33.8103132" lon="-118.3938671">
  <ele>-0.119</ele>
  <time>2026-09-02T22:13:19Z</time>
  <course>186.94</course>
  <speed>0.03605551275463989</speed>
  <fix>3d</fix>
</trkpt>
<trkpt lat="33.810313" lon="-118.393867">
  <ele>-0.12</ele>
  <time>2026-09-02T22:13:19Z</time>
  <course>0.0</course>
  <speed>0.0</speed>
  <fix>3d</fix>
</trkpt>
<trkpt lat="33.8103132" lon="-118.3938671">
  <ele>-0.119</ele>
  <time>2026-09-02T22:13:19Z</time>
  <course>186.94</course>
  <speed>0.0282842712474619</speed>
  <fix>3d</fix>
</trkpt>
<trkpt lat="33.810313" lon="-118.393867">
  <ele>-0.12</ele>
  <time>2026-09-02T22:13:19Z</time>
  <course>0.0</course>
  <speed>0.0</speed>
  <fix>3d</fix>
</trkpt>
<trkpt lat="33.8103132" lon="-118.3938671">
  <ele>-0.14</ele>
  <time>2026-09-02T22:13:19Z</time>
  <course>186.93</course>
  <speed>0.0282842712474619</speed>
  <fix>3d</fix>
</trkpt>
<trkpt lat="33.810313" lon="-118.393867">
  <ele>-0.12</ele>
  <time>2026-09-02T22:13:19Z</time>
  <course>275.0</course>
  <speed>0.0</speed>
  <fix>3d</fix>
</trkpt>
<trkpt lat="33.8103132" lon="-118.3938671">
  <ele>-0.165</ele>
  <time>2026-09-02T22:13:19Z</time>
  <course>186.93</course>
  <speed>0.0282842712474619</speed>
  <fix>3d</fix>
</trkpt>
<trkpt lat="33.810313" lon="-118.393867">
  <ele>-0.12</ele>
  <time>2026-09-02T22:13:19Z</time>
  <course>275.0</course>
  <speed>0.0</speed>
  <fix>3d</fix>
</trkpt>
<trkpt lat="33.8103132" lon="-118.3938671">
  <ele>-0.186</ele>
  <time>2026-09-02T22:13:19Z</time>
  <course>186.93</course>
  <speed>0.022360679774997897</speed>
  <fix>3d</fix>
</trkpt>
<trkpt lat="33.810313" lon="-118.393867">
  <ele>-0.14</ele>
  <time>2026-09-02T22:13:19Z</time>
  <course>95.0</course>
  <speed>0.0</speed>
  <fix>3d</fix>
</trkpt>
<trkpt lat="33.8103132" lon="-118.3938671">
  <ele>-0.187</ele>
  <time>2026-09-02T22:13:19Z</time>
  <course>186.93</course>
  <speed>0.022360679774997897</speed>
  <fix>3d</fix>
</trkpt>
<trkpt lat="33.8103132" lon="-118.3938671">
  <ele>-0.205</ele>
  <time>2026-09-02T22:13:19Z</time>
  <course>186.92</course>
  <speed>0.022360679774997897</speed>
  <fix>3d</fix>
</trkpt>
<trkpt lat="33.810313" lon="-118.393867">
  <ele>-0.14</ele>
  <time>2026-09-02T22:13:19Z</time>
  <course>95.0</course>
  <speed>0.0</speed>
  <fix>3d</fix>
</trkpt>
<trkpt lat="33.8103132" lon="-118.3938671">
  <ele>-0.22</ele>
  <time>2026-09-02T22:13:19Z</time>
  <course>186.92</course>
  <speed>0.022360679774997897</speed>
  <fix>3d</fix>
</trkpt>
<trkpt lat="33.810313" lon="-118.393867">
  <ele>-0.19</ele>
  <time>2026-09-02T22:13:19Z</time>
  <course>95.0</course>
  <speed>0.0</speed>
  <fix>3d</fix>
</trkpt>
<trkpt lat="33.8103131" lon="-118.3938671">
  <ele>-0.233</ele>
  <time>2026-09-02T22:13:19Z</time>
  <course>186.92</course>
  <speed>0.022360679774997897</speed>
  <fix>3d</fix>
</trkpt>
<trkpt lat="33.810313" lon="-118.393867">
  <ele>-0.19</ele>
  <time>2026-09-02T22:13:19Z</time>
  <course>95.0</course>
  <speed>0.0</speed>
  <fix>3d</fix>
</trkpt>
<trkpt lat="33.8103131" lon="-118.3938671">
  <ele>-0.251</ele>
  <time>2026-09-02T22:13:19Z</time>
  <course>186.91</course>
  <speed>0.01414213562373095</speed>
  <fix>3d</fix>
</trkpt>
<trkpt lat="33.810313" lon="-118.393867">
  <ele>-0.22</ele>
  <time>2026-09-02T22:13:19Z</time>
  <course>95.0</course>
  <speed>0.0</speed>
  <fix>3d</fix>
</trkpt>
<trkpt lat="33.8103131" lon="-118.3938671">
  <ele>-0.251</ele>
  <time>2026-09-02T22:13:19Z</time>
  <course>186.91</course>
  <speed>0.01414213562373095</speed>
  <fix>3d</fix>
</trkpt>
<trkpt lat="33.8103131" lon="-118.3938671">
  <ele>-0.281</ele>
  <time>2026-09-02T22:13:19Z</time>
  <course>186.91</course>
  <speed>0.01414213562373095</speed>
  <fix>3d</fix>
</trkpt>
<trkpt lat="33.810313" lon="-118.393867">
  <ele>-0.22</ele>
  <time>2026-09-02T22:13:19Z</time>
  <course>95.0</course>
  <speed>0.0</speed>
  <fix>3d</fix>
</trkpt>
<trkpt lat="33.8103131" lon="-118.3938671">
  <ele>-0.283</ele>
  <time>2026-09-02T22:13:19Z</time>
  <course>186.91</course>
  <speed>0.01414213562373095</speed>
  <fix>3d</fix>
</trkpt>
<trkpt lat="33.8103131" lon="-118.3938671">
  <ele>-0.323</ele>
  <time>2026-09-02T22:13:19Z</time>
  <course>186.9</course>
  <speed>0.01414213562373095</speed>
  <fix>3d</fix>
</trkpt>
<trkpt lat="33.810313" lon="-118.393867">
  <ele>-0.25</ele>
  <time>2026-09-02T22:13:19Z</time>
  <course>275.0</course>
  <speed>0.0</speed>
  <fix>3d</fix>
</trkpt>
<trkpt lat="33.8103131" lon="-118.3938671">
  <ele>-0.324</ele>
  <time>2026-09-02T22:13:19Z</time>
  <course>186.9</course>
  <speed>0.01414213562373095</speed>
  <fix>3d</fix>
</trkpt>
<trkpt lat="33.8103131" lon="-118.3938671">
  <ele>-0.375</ele>
  <time>2026-09-02T22:13:19Z</time>
  <course>186.9</course>
  <speed>0.01</speed>
  <fix>3d</fix>
</trkpt>
<trkpt lat="33.810313" lon="-118.393867">
  <ele>-0.25</ele>
  <time>2026-09-02T22:13:19Z</time>
  <course>275.0</course>
  <speed>0.0</speed>
  <fix>3d</fix>
</trkpt>
<trkpt lat="33.8103131" lon="-118.3938671">
  <ele>-0.393</ele>
  <time>2026-09-02T22:13:19Z</time>
  <course>186.9</course>
  <speed>0.01</speed>
  <fix>3d</fix>
</trkpt>
<trkpt lat="33.8103131" lon="-118.3938671">
  <ele>-0.437</ele>
  <time>2026-09-02T22:13:19Z</time>
  <course>186.9</course>
  <speed>0.0</speed>
  <fix>3d</fix>
</trkpt>
<trkpt lat="33.810313" lon="-118.393867">
  <ele>-0.32</ele>
  <time>2026-09-02T22:13:19Z</time>
  <course>275.0</course>
  <speed>0.0</speed>
  <fix>3d</fix>
</trkpt>
<trkpt lat="33.8103131" lon="-118.3938671">
  <ele>-0.457</ele>
  <time>2026-09-02T22:13:19Z</time>
  <course>186.9</course>
  <speed>0.0</speed>
  <fix>3d</fix>
</trkpt>
<trkpt lat="33.8103131" lon="-118.3938671">
  <ele>-0.506</ele>
  <time>2026-09-02T22:13:19Z</time>
  <course>186.89</course>
  <speed>0.0</speed>
  <fix>3d</fix>
</trkpt>
<trkpt lat="33.810313" lon="-118.393867">
  <ele>-0.32</ele>
  <time>2026-09-02T22:13:19Z</time>
  <course>275.0</course>
  <speed>0.0</speed>
  <fix>3d</fix>
</trkpt>
<trkpt lat="33.8103131" lon="-118.3938671">
  <ele>-0.528</ele>
  <time>2026-09-02T22:13:19Z</time>
  <course>186.89</course>
  <speed>0.0</speed>
  <fix>3d</fix>
</trkpt>
<trkpt lat="33.8103131" lon="-118.3938671">
  <ele>-0.58</ele>
  <time>2026-09-02T22:13:19Z</time>
  <course>186.89</course>
  <speed>0.0</speed>
  <fix>3d</fix>
</trkpt>
<trkpt lat="33.810313" lon="-118.393867">
  <ele>-0.44</ele>
  <time>2026-09-02T22:13:19Z</time>
  <course>275.0</course>
  <speed>0.0</speed>
  <fix>3d</fix>
</trkpt>
<trkpt lat="33.8103131" lon="-118.3938671">
  <ele>-0.604</ele>
  <time>2026-09-02T22:13:19Z</time>
  <course>186.89</course>
  <speed>0.0</speed>
  <fix>3d</fix>
</trkpt>
<trkpt lat="33.8103131" lon="-118.3938671">
  <ele>-0.659</ele>
  <time>2026-09-02T22:13:19Z</time>
  <course>186.89</course>
  <speed>0.0</speed>
  <fix>3d</fix>
</trkpt>
<trkpt lat="33.810313" lon="-118.393867">
  <ele>-0.44</ele>
  <time>2026-09-02T22:13:19Z</time>
  <course>275.0</course>
  <speed>0.0</speed>
  <fix>3d</fix>
</trkpt>
<trkpt lat="33.8103131" lon="-118.3938671">
  <ele>-0.662</ele>
  <time>2026-09-02T22:13:19Z</time>
  <course>186.89</course>
  <speed>0.0</speed>
  <fix>3d</fix>
</trkpt>
<trkpt lat="33.8103131" lon="-118.3938671">
  <ele>-0.742</ele>
  <time>2026-09-02T22:13:19Z</time>
  <course>184.87</course>
  <speed>0.0</speed>
  <fix>3d</fix>
</trkpt>
<trkpt lat="33.810313" lon="-118.393867">
  <ele>-0.58</ele>
  <time>2026-09-02T22:13:19Z</time>
  <course>275.0</course>
  <speed>0.0</speed>
  <fix>3d</fix>
</trkpt>
<trkpt lat="33.8103131" lon="-118.3938671">
  <ele>-0.744</ele>
  <time>2026-09-02T22:13:19Z</time>
  <course>184.87</course>
  <speed>0.0</speed>
  <fix>3d</fix>
</trkpt>
<trkpt lat="33.8103131" lon="-118.3938671">
  <ele>-0.826</ele>
  <time>2026-09-02T22:13:19Z</time>
  <course>184.86</course>
  <speed>0.0</speed>
  <fix>3d</fix>
</trkpt>
<trkpt lat="33.810313" lon="-118.393867">
  <ele>-0.58</ele>
  <time>2026-09-02T22:13:19Z</time>
  <course>275.0</course>
  <speed>0.0</speed>
  <fix>3d</fix>
</trkpt>
<trkpt lat="33.8103131" lon="-118.3938671">
  <ele>-0.828</ele>
  <time>2026-09-02T22:13:19Z</time>
  <course>184.86</course>
  <speed>0.0</speed>
  <fix>3d</fix>
</trkpt>
<trkpt lat="33.8103131" lon="-118.3938671">
  <ele>-0.913</ele>
  <time>2026-09-02T22:13:19Z</time>
  <course>184.86</course>
  <speed>0.0</speed>
  <fix>3d</fix>
</trkpt>
<trkpt lat="33.810313" lon="-118.393867">
  <ele>-0.73</ele>
  <time>2026-09-02T22:13:19Z</time>
  <course>275.0</course>
  <speed>0.0</speed>
  <fix>3d</fix>
</trkpt>
<trkpt lat="33.8103131" lon="-118.3938671">
  <ele>-0.915</ele>
  <time>2026-09-02T22:13:19Z</time>
  <course>184.86</course>
  <speed>0.0</speed>
  <fix>3d</fix>
</trkpt>
<trkpt lat="33.8103131" lon="-118.3938671">
  <ele>-1.004</ele>
  <time>2026-09-02T22:13:19Z</time>
  <course>184.86</course>
  <speed>0.0</speed>
  <fix>3d</fix>
</trkpt>
<trkpt lat="33.810313" lon="-118.393867">
  <ele>-0.73</ele>
  <time>2026-09-02T22:13:19Z</time>
  <course>275.0</course>
  <speed>0.0</speed>
  <fix>3d</fix>
</trkpt>
<trkpt lat="33.8103131" lon="-118.3938671">
  <ele>-1.006</ele>
  <time>2026-09-02T22:13:19Z</time>
  <course>184.86</course>
  <speed>0.0</speed>
  <fix>3d</fix>
</trkpt>
<trkpt lat="33.8103131" lon="-118.3938671">
  <ele>-1.096</ele>
  <time>2026-09-02T22:13:19Z</time>
  <course>184.87</course>
  <speed>0.0</speed>
  <fix>3d</fix>
</trkpt>
<trkpt lat="33.810313" lon="-118.393867">
  <ele>-0.89</ele>
  <time>2026-09-02T22:13:19Z</time>
  <course>275.0</course>
  <speed>0.0</speed>
  <fix>3d</fix>
</trkpt>
<trkpt lat="33.8103131" lon="-118.3938671">
  <ele>-1.1</ele>
  <time>2026-09-02T22:13:19Z</time>
  <course>184.87</course>
  <speed>0.0</speed>
  <fix>3d</fix>
</trkpt>
<trkpt lat="33.8103131" lon="-118.3938671">
  <ele>-1.188</ele>
  <time>2026-09-02T22:13:19Z</time>
  <course>184.88</course>
  <speed>0.0</speed>
  <fix>3d</fix>
</trkpt>
<trkpt lat="33.810313" lon="-118.393867">
  <ele>-0.89</ele>
  <time>2026-09-02T22:13:19Z</time>
  <course>275.0</course>
  <speed>0.0</speed>
  <fix>3d</fix>
</trkpt>
<trkpt lat="33.8103131" lon="-118.3938671">
  <ele>-1.19</ele>
  <time>2026-09-02T22:13:19Z</time>
  <course>184.88</course>
  <speed>0.0</speed>
  <fix>3d</fix>
</trkpt>
<trkpt lat="33.8103131" lon="-118.3938671">
  <ele>-1.28</ele>
  <time>2026-09-02T22:13:19Z</time>
  <course>184.88</course>
  <speed>0.0</speed>
  <fix>3d</fix>
</trkpt>
<trkpt lat="33.810313" lon="-118.393867">
  <ele>-1.06</ele>
  <time>2026-09-02T22:13:19Z</time>
  <course>275.0</course>
  <speed>0.0</speed>
  <fix>3d</fix>
</trkpt>
<trkpt lat="33.8103131" lon="-118.3938671">
  <ele>-1.309</ele>
  <time>2026-09-02T22:13:19Z</time>
  <course>184.89</course>
  <speed>0.0</speed>
  <fix>3d</fix>
</trkpt>
<trkpt lat="33.8103131" lon="-118.3938671">
  <ele>-1.375</ele>
  <time>2026-09-02T22:13:19Z</time>
  <course>184.89</course>
  <speed>0.0</speed>
  <fix>3d</fix>
</trkpt>
<trkpt lat="33.810313" lon="-118.393867">
  <ele>-1.06</ele>
  <time>2026-09-02T22:13:19Z</time>
  <course>275.0</course>
  <speed>0.0</speed>
  <fix>3d</fix>
</trkpt>
<trkpt lat="33.8103131" lon="-118.3938671">
  <ele>-1.406</ele>
  <time>2026-09-02T22:13:19Z</time>
  <course>184.9</course>
  <speed>0.0</speed>
  <fix>3d</fix>
</trkpt>
<trkpt lat="33.8103131" lon="-118.3938671">
  <ele>-1.47</ele>
  <time>2026-09-02T22:13:19Z</time>
  <course>184.9</course>
  <speed>0.0</speed>
  <fix>3d</fix>
</trkpt>
<trkpt lat="33.810313" lon="-118.393867">
  <ele>-1.23</ele>
  <time>2026-09-02T22:13:19Z</time>
  <course>275.0</course>
  <speed>0.0</speed>
  <fix>3d</fix>
</trkpt>
<trkpt lat="33.8103131" lon="-118.3938671">
  <ele>-1.501</ele>
  <time>2026-09-02T22:13:19Z</time>
  <course>184.91</course>
  <speed>0.0</speed>
  <fix>3d</fix>
</trkpt>
<trkpt lat="33.8103131" lon="-118.3938671">
  <ele>-1.564</ele>
  <time>2026-09-02T22:13:19Z</time>
  <course>184.91</course>
  <speed>0.0</speed>
  <fix>3d</fix>
</trkpt>
<trkpt lat="33.810313" lon="-118.393867">
  <ele>-1.23</ele>
  <time>2026-09-02T22:13:19Z</time>
  <course>275.0</course>
  <speed>0.0</speed>
  <fix>3d</fix>
</trkpt>
<trkpt lat="33.8103131" lon="-118.3938671">
  <ele>-1.567</ele>
  <time>2026-09-02T22:13:19Z</time>
  <course>184.91</course>
  <speed>0.0</speed>
  <fix>3d</fix>
</trkpt>
<trkpt lat="33.810313" lon="-118.3938671">
  <ele>-1.658</ele>
  <time>2026-09-02T22:13:19Z</time>
  <course>184.92</course>
  <speed>0.0</speed>
  <fix>3d</fix>
</trkpt>
<trkpt lat="33.810313" lon="-118.393867">
  <ele>-1.41</ele>
  <time>2026-09-02T22:13:19Z</time>
  <course>275.0</course>
  <speed>0.0</speed>
  <fix>3d</fix>
</trkpt>
<trkpt lat="33.810313" lon="-118.3938671">
  <ele>-1.686</ele>
  <time>2026-09-02T22:13:19Z</time>
  <course>184.93</course>
  <speed>0.0</speed>
  <fix>3d</fix>
</trkpt>
<trkpt lat="33.810313" lon="-118.3938671">
  <ele>-1.753</ele>
  <time>2026-09-02T22:13:19Z</time>
  <course>184.93</course>
  <speed>0.0</speed>
  <fix>3d</fix>
</trkpt>
<trkpt lat="33.810313" lon="-118.393867">
  <ele>-1.41</ele>
  <time>2026-09-02T22:13:19Z</time>
  <course>275.0</course>
  <speed>0.0</speed>
  <fix>3d</fix>
</trkpt>
<trkpt lat="33.810313" lon="-118.3938671">
  <ele>-1.781</ele>
  <time>2026-09-02T22:13:19Z</time>
  <course>184.93</course>
  <speed>0.0</speed>
  <fix>3d</fix>
</trkpt>
<trkpt lat="33.810313" lon="-118.393867">
  <ele>-1.849</ele>
  <time>2026-09-02T22:13:19Z</time>
  <course>184.94</course>
  <speed>0.0</speed>
  <fix>3d</fix>
</trkpt>
<trkpt lat="33.810313" lon="-118.393867">
  <ele>-1.59</ele>
  <time>2026-09-02T22:13:19Z</time>
  <course>275.0</course>
  <speed>0.0</speed>
  <fix>3d</fix>
</trkpt>
<trkpt lat="33.810313" lon="-118.393867">
  <ele>-1.878</ele>
  <time>2026-09-02T22:13:19Z</time>
  <course>184.94</course>
  <speed>0.0</speed>
  <fix>3d</fix>
</trkpt>
<trkpt lat="33.810313" lon="-118.393867">
  <ele>-1.947</ele>
  <time>2026-09-02T22:13:19Z</time>
  <course>184.95</course>
  <speed>0.0</speed>
  <fix>3d</fix>
</trkpt>
<trkpt lat="33.810313" lon="-118.393867">
  <ele>-1.59</ele>
  <time>2026-09-02T22:13:19Z</time>
  <course>275.0</course>
  <speed>0.0</speed>
  <fix>3d</fix>
</trkpt>
<trkpt lat="33.810313" lon="-118.393867">
  <ele>-1.978</ele>
  <time>2026-09-02T22:13:19Z</time>
  <course>184.95</course>
  <speed>0.0</speed>
  <fix>3d</fix>
</trkpt>
<trkpt lat="33.810313" lon="-118.393867">
  <ele>-2.044</ele>
  <time>2026-09-02T22:13:19Z</time>
  <course>184.96</course>
  <speed>0.0</speed>
  <fix>3d</fix>
</trkpt>
<trkpt lat="33.810313" lon="-118.393867">
  <ele>-1.78</ele>
  <time>2026-09-02T22:13:19Z</time>
  <course>275.0</course>
  <speed>0.0</speed>
  <fix>3d</fix>
</trkpt>
<trkpt lat="33.810313" lon="-118.393867">
  <ele>-2.046</ele>
  <time>2026-09-02T22:13:19Z</time>
  <course>184.96</course>
  <speed>0.0</speed>
  <fix>3d</fix>
</trkpt>
<trkpt lat="33.810313" lon="-118.393867">
  <ele>-2.141</ele>
  <time>2026-09-02T22:13:19Z</time>
  <course>184.97</course>
  <speed>0.0</speed>
  <fix>3d</fix>
</trkpt>
<trkpt lat="33.810313" lon="-118.393867">
  <ele>-1.78</ele>
  <time>2026-09-02T22:13:19Z</time>
  <course>275.0</course>
  <speed>0.0</speed>
  <fix>3d</fix>
</trkpt>
<trkpt lat="33.810313" lon="-118.393867">
  <ele>-2.143</ele>
  <time>2026-09-02T22:13:19Z</time>
  <course>184.97</course>
  <speed>0.0</speed>
  <fix>3d</fix>
</trkpt>
<trkpt lat="33.810313" lon="-118.393867">
  <ele>-2.238</ele>
  <time>2026-09-02T22:13:19Z</time>
  <course>184.98</course>
  <speed>0.0</speed>
  <fix>3d</fix>
</trkpt>
<trkpt lat="33.810313" lon="-118.393867">
  <ele>-1.96</ele>
  <time>2026-09-02T22:13:19Z</time>
  <course>275.0</course>
  <speed>0.0</speed>
  <fix>3d</fix>
</trkpt>
<trkpt lat="33.810313" lon="-118.393867">
  <ele>-2.267</ele>
  <time>2026-09-02T22:13:19Z</time>
  <course>184.98</course>
  <speed>0.0</speed>
  <fix>3d</fix>
</trkpt>
<trkpt lat="33.810313" lon="-118.393867">
  <ele>-2.336</ele>
  <time>2026-09-02T22:13:19Z</time>
  <course>184.99</course>
  <speed>0.0</speed>
  <fix>3d</fix>
</trkpt>
<trkpt lat="33.810313" lon="-118.393867">
  <ele>-1.96</ele>
  <time>2026-09-02T22:13:19Z</time>
  <course>275.0</course>
  <speed>0.0</speed>
  <fix>3d</fix>
</trkpt>
<trkpt lat="33.810313" lon="-118.393867">
  <ele>-2.365</ele>
  <time>2026-09-02T22:13:19Z</time>
  <course>184.99</course>
  <speed>0.0</speed>
  <fix>3d</fix>
</trkpt>
<trkpt lat="33.810313" lon="-118.393867">
  <ele>-2.433</ele>
  <time>2026-09-02T22:13:19Z</time>
  <course>184.99</course>
  <speed>0.0</speed>
  <fix>3d</fix>
</trkpt>
<trkpt lat="33.810313" lon="-118.393867">
  <ele>-2.15</ele>
  <time>2026-09-02T22:13:19Z</time>
  <course>275.0</course>
  <speed>0.0</speed>
  <fix>3d</fix>
</trkpt>
<trkpt lat="33.810313" lon="-118.393867">
  <ele>-2.436</ele>
  <time>2026-09-02T22:13:19Z</time>
  <course>184.99</course>
  <speed>0.0</speed>
  <fix>3d</fix>
</trkpt>
<trkpt lat="33.810313" lon="-118.393867">
  <ele>-2.531</ele>
  <time>2026-09-02T22:13:19Z</time>
  <course>185.0</course>
  <speed>0.0</speed>
  <fix>3d</fix>
</trkpt>
<trkpt lat="33.810313" lon="-118.393867">
  <ele>-2.15</ele>
  <time>2026-09-02T22:13:19Z</time>
  <course>275.0</course>
  <speed>0.0</speed>
  <fix>3d</fix>
</trkpt>
<trkpt lat="33.810313" lon="-118.393867">
  <ele>-2.561</ele>
  <time>2026-09-02T22:13:19Z</time>
  <course>185.01</course>
  <speed>0.0</speed>
  <fix>3d</fix>
</trkpt>
<trkpt lat="33.810313" lon="-118.393867">
  <ele>-2.629</ele>
  <time>2026-09-02T22:13:19Z</time>
  <course>185.01</course>
  <speed>0.0</speed>
  <fix>3d</fix>
</trkpt>
<trkpt lat="33.810313" lon="-118.393867">
  <ele>-2.34</ele>
  <time>2026-09-02T22:13:19Z</time>
  <course>275.0</course>
  <speed>0.0</speed>
  <fix>3d</fix>
</trkpt>
<trkpt lat="33.810313" lon="-118.393867">
  <ele>-2.658</ele>
  <time>2026-09-02T22:13:19Z</time>
  <course>185.02</course>
  <speed>0.0</speed>
  <fix>3d</fix>
</trkpt>
<trkpt lat="33.810313" lon="-118.393867">
  <ele>-2.726</ele>
  <time>2026-09-02T22:13:19Z</time>
  <course>185.02</course>
  <speed>0.0</speed>
  <fix>3d</fix>
</trkpt>
<trkpt lat="33.810313" lon="-118.393867">
  <ele>-2.34</ele>
  <time>2026-09-02T22:13:19Z</time>
  <course>275.0</course>
  <speed>0.0</speed>
  <fix>3d</fix>
</trkpt>
<trkpt lat="33.810313" lon="-118.393867">
  <ele>-2.755</ele>
  <time>2026-09-02T22:13:19Z</time>
  <course>185.02</course>
  <speed>0.0</speed>
  <fix>3d</fix>
</trkpt>
<trkpt lat="33.810313" lon="-118.393867">
  <ele>-2.822</ele>
  <time>2026-09-02T22:13:19Z</time>
  <course>185.03</course>
  <speed>0.0</speed>
  <fix>3d</fix>
</trkpt>
<trkpt lat="33.810313" lon="-118.393867">
  <ele>-2.52</ele>
  <time>2026-09-02T22:13:19Z</time>
  <course>275.0</course>
  <speed>0.0</speed>
  <fix>3d</fix>
</trkpt>
<trkpt lat="33.810313" lon="-118.393867">
  <ele>-2.851</ele>
  <time>2026-09-02T22:13:19Z</time>
  <course>185.03</course>
  <speed>0.0</speed>
  <fix>3d</fix>
</trkpt>
<trkpt lat="33.810313" lon="-118.393867">
  <ele>-2.918</ele>
  <time>2026-09-02T22:13:19Z</time>
  <course>185.04</course>
  <speed>0.0</speed>
  <fix>3d</fix>
</trkpt>
<trkpt lat="33.810313" lon="-118.393867">
  <ele>-2.52</ele>
  <time>2026-09-02T22:13:19Z</time>
  <course>275.0</course>
  <speed>0.0</speed>
  <fix>3d</fix>
</trkpt>
<trkpt lat="33.810313" lon="-118.393867">
  <ele>-2.948</ele>
  <time>2026-09-02T22:13:19Z</time>
  <course>185.04</course>
  <speed>0.0</speed>
  <fix>3d</fix>
</trkpt>
<trkpt lat="33.810313" lon="-118.3938671">
  <ele>-3.016</ele>
  <time>2026-09-02T22:13:19Z</time>
  <course>185.05</course>
  <speed>0.0</speed>
  <fix>3d</fix>
</trkpt>
<trkpt lat="33.810313" lon="-118.393867">
  <ele>-2.71</ele>
  <time>2026-09-02T22:13:19Z</time>
  <course>275.0</course>
  <speed>0.0</speed>
  <fix>3d</fix>
</trkpt>
<trkpt lat="33.810313" lon="-118.3938671">
  <ele>-3.045</ele>
  <time>2026-09-02T22:13:19Z</time>
  <course>185.05</course>
  <speed>0.0</speed>
  <fix>3d</fix>
</trkpt>
<trkpt lat="33.810313" lon="-118.3938671">
  <ele>-3.113</ele>
  <time>2026-09-02T22:13:19Z</time>
  <course>185.06</course>
  <speed>0.0</speed>
  <fix>3d</fix>
</trkpt>
<trkpt lat="33.810313" lon="-118.393867">
  <ele>-2.71</ele>
  <time>2026-09-02T22:13:19Z</time>
  <course>275.0</course>
  <speed>0.0</speed>
  <fix>3d</fix>
</trkpt>
<trkpt lat="33.810313" lon="-118.3938671">
  <ele>-3.116</ele>
  <time>2026-09-02T22:13:19Z</time>
  <course>185.06</course>
  <speed>0.0</speed>
  <fix>3d</fix>
</trkpt>
<trkpt lat="33.810313" lon="-118.3938671">
  <ele>-3.211</ele>
  <time>2026-09-02T22:13:19Z</time>
  <course>185.07</course>
  <speed>0.0</speed>
  <fix>3d</fix>
</trkpt>
<trkpt lat="33.810313" lon="-118.393867">
  <ele>-2.9</ele>
  <time>2026-09-02T22:13:19Z</time>
  <course>275.0</course>
  <speed>0.0</speed>
  <fix>3d</fix>
</trkpt>
<trkpt lat="33.810313" lon="-118.3938671">
  <ele>-3.24</ele>
  <time>2026-09-02T22:13:19Z</time>
  <course>185.07</course>
  <speed>0.0</speed>
  <fix>3d</fix>
</trkpt>
<trkpt lat="33.810313" lon="-118.3938671">
  <ele>-3.309</ele>
  <time>2026-09-02T22:13:19Z</time>
  <course>185.08</course>
  <speed>0.0</speed>
  <fix>3d</fix>
</trkpt>
<trkpt lat="33.810313" lon="-118.393867">
  <ele>-2.9</ele>
  <time>2026-09-02T22:13:19Z</time>
  <course>275.0</course>
  <speed>0.0</speed>
  <fix>3d</fix>
</trkpt>
<trkpt lat="33.810313" lon="-118.3938671">
  <ele>-3.311</ele>
  <time>2026-09-02T22:13:19Z</time>
  <course>185.08</course>
  <speed>0.0</speed>
  <fix>3d</fix>
</trkpt>
<trkpt lat="33.810313" lon="-118.3938671">
  <ele>-3.407</ele>
  <time>2026-09-02T22:13:19Z</time>
  <course>185.08</course>
  <speed>0.0</speed>
  <fix>3d</fix>
</trkpt>
<trkpt lat="33.810313" lon="-118.393867">
  <ele>-3.09</ele>
  <time>2026-09-02T22:13:19Z</time>
  <course>275.0</course>
  <speed>0.0</speed>
  <fix>3d</fix>
</trkpt>
<trkpt lat="33.810313" lon="-118.3938671">
  <ele>-3.409</ele>
  <time>2026-09-02T22:13:19Z</time>
  <course>185.08</course>
  <speed>0.0</speed>
  <fix>3d</fix>
</trkpt>
<trkpt lat="33.810313" lon="-118.3938671">
  <ele>-3.505</ele>
  <time>2026-09-02T22:13:19Z</time>
  <course>185.09</course>
  <speed>0.0</speed>
  <fix>3d</fix>
</trkpt>
<trkpt lat="33.810313" lon="-118.393867">
  <ele>-3.09</ele>
  <time>2026-09-02T22:13:19Z</time>
  <course>275.0</course>
  <speed>0.0</speed>
  <fix>3d</fix>
</trkpt>
<trkpt lat="33.810313" lon="-118.3938671">
  <ele>-3.537</ele>
  <time>2026-09-02T22:13:19Z</time>
  <course>185.1</course>
  <speed>0.0</speed>
  <fix>3d</fix>
</trkpt>
<trkpt lat="33.810313" lon="-118.3938671">
  <ele>-3.603</ele>
  <time>2026-09-02T22:13:19Z</time>
  <course>185.1</course>
  <speed>0.0</speed>
  <fix>3d</fix>
</trkpt>
<trkpt lat="33.810313" lon="-118.393867">
  <ele>-3.28</ele>
  <time>2026-09-02T22:13:19Z</time>
  <course>275.0</course>
  <speed>0.0</speed>
  <fix>3d</fix>
</trkpt>
<trkpt lat="33.810313" lon="-118.3938671">
  <ele>-3.606</ele>
  <time>2026-09-02T22:13:19Z</time>
  <course>185.1</course>
  <speed>0.0</speed>
  <fix>3d</fix>
</trkpt>
<trkpt lat="33.8103131" lon="-118.3938671">
  <ele>-3.702</ele>
  <time>2026-09-02T22:13:19Z</time>
  <course>185.11</course>
  <speed>0.0</speed>
  <fix>3d</fix>
</trkpt>
<trkpt lat="33.810313" lon="-118.393867">
  <ele>-3.28</ele>
  <time>2026-09-02T22:13:19Z</time>
  <course>275.0</course>
  <speed>0.0</speed>
  <fix>3d</fix>
</trkpt>
<trkpt lat="33.8103131" lon="-118.3938671">
  <ele>-3.732</ele>
  <time>2026-09-02T22:13:19Z</time>
  <course>185.11</course>
  <speed>0.0</speed>
  <fix>3d</fix>
</trkpt>
<trkpt lat="33.8103131" lon="-118.3938671">
  <ele>-3.8</ele>
  <time>2026-09-02T22:13:19Z</time>
  <course>185.12</course>
  <speed>0.0</speed>
  <fix>3d</fix>
</trkpt>
<trkpt lat="33.810313" lon="-118.393867">
  <ele>-3.47</ele>
  <time>2026-09-02T22:13:19Z</time>
  <course>275.0</course>
  <speed>0.0</speed>
  <fix>3d</fix>
</trkpt>
<trkpt lat="33.8103131" lon="-118.3938671">
  <ele>-3.831</ele>
  <time>2026-09-02T22:13:19Z</time>
  <course>185.12</course>
  <speed>0.0</speed>
  <fix>3d</fix>
</trkpt>
<trkpt lat="33.8103131" lon="-118.3938671">
  <ele>-3.897</ele>
  <time>2026-09-02T22:13:19Z</time>
  <course>185.13</course>
  <speed>0.0</speed>
  <fix>3d</fix>
</trkpt>
<trkpt lat="33.810313" lon="-118.393867">
  <ele>-3.47</ele>
  <time>2026-09-02T22:13:19Z</time>
  <course>275.0</course>
  <speed>0.0</speed>
  <fix>3d</fix>
</trkpt>
<trkpt lat="33.8103131" lon="-118.3938671">
  <ele>-3.927</ele>
  <time>2026-09-02T22:13:19Z</time>
  <course>185.13</course>
  <speed>0.0</speed>
  <fix>3d</fix>
</trkpt>
<trkpt lat="33.8103131" lon="-118.3938671">
  <ele>-3.994</ele>
  <time>2026-09-02T22:13:19Z</time>
  <course>185.14</course>
  <speed>0.0</speed>
  <fix>3d</fix>
</trkpt>
<trkpt lat="33.810313" lon="-118.393867">
  <ele>-3.67</ele>
  <time>2026-09-02T22:13:19Z</time>
  <course>275.0</course>
  <speed>0.0</speed>
  <fix>3d</fix>
</trkpt>
<trkpt lat="33.8103131" lon="-118.3938671">
  <ele>-4.023</ele>
  <time>2026-09-02T22:13:19Z</time>
  <course>185.14</course>
  <speed>0.0</speed>
  <fix>3d</fix>
</trkpt>
<trkpt lat="33.8103131" lon="-118.3938671">
  <ele>-4.091</ele>
  <time>2026-09-02T22:13:19Z</time>
  <course>185.15</course>
  <speed>0.0</speed>
  <fix>3d</fix>
</trkpt>
<trkpt lat="33.810313" lon="-118.393867">
  <ele>-3.67</ele>
  <time>2026-09-02T22:13:19Z</time>
  <course>275.0</course>
  <speed>0.0</speed>
  <fix>3d</fix>
</trkpt>
<trkpt lat="33.8103131" lon="-118.3938671">
  <ele>-4.093</ele>
  <time>2026-09-02T22:13:19Z</time>
  <course>185.15</course>
  <speed>0.0</speed>
  <fix>3d</fix>
</trkpt>
<trkpt lat="33.8103131" lon="-118.3938671">
  <ele>-4.189</ele>
  <time>2026-09-02T22:13:19Z</time>
  <course>185.16</course>
  <speed>0.0</speed>
  <fix>3d</fix>
</trkpt>
<trkpt lat="33.810313" lon="-118.393867">
  <ele>-3.86</ele>
  <time>2026-09-02T22:13:19Z</time>
  <course>275.0</course>
  <speed>0.0</speed>
  <fix>3d</fix>
</trkpt>
<trkpt lat="33.8103131" lon="-118.3938671">
  <ele>-4.191</ele>
  <time>2026-09-02T22:13:19Z</time>
  <course>185.16</course>
  <speed>0.0</speed>
  <fix>3d</fix>
</trkpt>
<trkpt lat="33.8103131" lon="-118.3938671">
  <ele>-4.286</ele>
  <time>2026-09-02T22:13:19Z</time>
  <course>185.17</course>
  <speed>0.0</speed>
  <fix>3d</fix>
</trkpt>
<trkpt lat="33.810313" lon="-118.393867">
  <ele>-3.86</ele>
  <time>2026-09-02T22:13:19Z</time>
  <course>275.0</course>
  <speed>0.0</speed>
  <fix>3d</fix>
</trkpt>
<trkpt lat="33.8103131" lon="-118.3938671">
  <ele>-4.318</ele>
  <time>2026-09-02T22:13:19Z</time>
  <course>185.17</course>
  <speed>0.0</speed>
  <fix>3d</fix>
</trkpt>
<trkpt lat="33.8103131" lon="-118.3938671">
  <ele>-4.384</ele>
  <time>2026-09-02T22:13:19Z</time>
  <course>185.17</course>
  <speed>0.0</speed>
  <fix>3d</fix>
</trkpt>
<trkpt lat="33.810313" lon="-118.393867">
  <ele>-4.05</ele>
  <time>2026-09-02T22:13:19Z</time>
  <course>275.0</course>
  <speed>0.0</speed>
  <fix>3d</fix>
</trkpt>
<trkpt lat="33.8103131" lon="-118.3938671">
  <ele>-4.414</ele>
  <time>2026-09-02T22:13:19Z</time>
  <course>185.18</course>
  <speed>0.0</speed>
  <fix>3d</fix>
</trkpt>
<trkpt lat="33.8103131" lon="-118.3938671">
  <ele>-4.483</ele>
  <time>2026-09-02T22:13:19Z</time>
  <course>185.18</course>
  <speed>0.0</speed>
  <fix>3d</fix>
</trkpt>
<trkpt lat="33.810313" lon="-118.393867">
  <ele>-4.05</ele>
  <time>2026-09-02T22:13:19Z</time>
  <course>275.0</course>
  <speed>0.0</speed>
  <fix>3d</fix>
</trkpt>
<trkpt lat="33.8103131" lon="-118.3938671">
  <ele>-4.513</ele>
  <time>2026-09-02T22:13:19Z</time>
  <course>185.19</course>
  <speed>0.0</speed>
  <fix>3d</fix>
</trkpt>
<trkpt lat="33.8103131" lon="-118.3938671">
  <ele>-4.582</ele>
  <time>2026-09-02T22:13:19Z</time>
  <course>185.19</course>
  <speed>0.0</speed>
  <fix>3d</fix>
</trkpt>
<trkpt lat="33.810313" lon="-118.393867">
  <ele>-4.24</ele>
  <time>2026-09-02T22:13:19Z</time>
  <course>275.0</course>
  <speed>0.0</speed>
  <fix>3d</fix>
</trkpt>
<trkpt lat="33.8103131" lon="-118.3938671">
  <ele>-4.584</ele>
  <time>2026-09-02T22:13:19Z</time>
  <course>185.19</course>
  <speed>0.0</speed>
  <fix>3d</fix>
</trkpt>
<trkpt lat="33.8103131" lon="-118.3938671">
  <ele>-4.68</ele>
  <time>2026-09-02T22:13:19Z</time>
  <course>185.2</course>
  <speed>0.0</speed>
  <fix>3d</fix>
</trkpt>
<trkpt lat="33.810313" lon="-118.393867">
  <ele>-4.24</ele>
  <time>2026-09-02T22:13:19Z</time>
  <course>275.0</course>
  <speed>0.0</speed>
  <fix>3d</fix>
</trkpt>
<trkpt lat="33.8103131" lon="-118.3938671">
  <ele>-4.71</ele>
  <time>2026-09-02T22:13:19Z</time>
  <course>185.2</course>
  <speed>0.0</speed>
  <fix>3d</fix>
</trkpt>
<trkpt lat="33.8103131" lon="-118.3938671">
  <ele>-4.778</ele>
  <time>2026-09-02T22:13:19Z</time>
  <course>185.21</course>
  <speed>0.0</speed>
  <fix>3d</fix>
</trkpt>
<trkpt lat="33.810313" lon="-118.393867">
  <ele>-4.44</ele>
  <time>2026-09-02T22:13:19Z</time>
  <course>275.0</course>
  <speed>0.0</speed>
  <fix>3d</fix>
</trkpt>
<trkpt lat="33.8103131" lon="-118.3938671">
  <ele>-4.807</ele>
  <time>2026-09-02T22:13:19Z</time>
  <course>185.21</course>
  <speed>0.0</speed>
  <fix>3d</fix>
</trkpt>
<trkpt lat="33.8103131" lon="-118.3938671">
  <ele>-4.874</ele>
  <time>2026-09-02T22:13:19Z</time>
  <course>185.22</course>
  <speed>0.01</speed>
  <fix>3d</fix>
</trkpt>
<trkpt lat="33.810313" lon="-118.393867">
  <ele>-4.44</ele>
  <time>2026-09-02T22:13:19Z</time>
  <course>275.0</course>
  <speed>0.0</speed>
  <fix>3d</fix>
</trkpt>
<trkpt lat="33.8103131" lon="-118.3938671">
  <ele>-4.906</ele>
  <time>2026-09-02T22:13:19Z</time>
  <course>185.22</course>
  <speed>0.01</speed>
  <fix>3d</fix>
</trkpt>
<trkpt lat="33.8103131" lon="-118.3938671">
  <ele>-4.973</ele>
  <time>2026-09-02T22:13:19Z</time>
  <course>185.23</course>
  <speed>0.01</speed>
  <fix>3d</fix>
</trkpt>
<trkpt lat="33.810313" lon="-118.393867">
  <ele>-4.63</ele>
  <time>2026-09-02T22:13:19Z</time>
  <course>275.0</course>
  <speed>0.0</speed>
  <fix>3d</fix>
</trkpt>
<trkpt lat="33.8103131" lon="-118.3938671">
  <ele>-5.002</ele>
  <time>2026-09-02T22:13:19Z</time>
  <course>185.23</course>
  <speed>0.01</speed>
  <fix>3d</fix>
</trkpt>
<trkpt lat="33.8103131" lon="-118.3938671">
  <ele>-5.07</ele>
  <time>2026-09-02T22:13:19Z</time>
  <course>185.24</course>
  <speed>0.01</speed>
  <fix>3d</fix>
</trkpt>
<trkpt lat="33.810313" lon="-118.393867">
  <ele>-4.63</ele>
  <time>2026-09-02T22:13:19Z</time>
  <course>275.0</course>
  <speed>0.0</speed>
  <fix>3d</fix>
</trkpt>
<trkpt lat="33.8103131" lon="-118.3938671">
  <ele>-5.073</ele>
  <time>2026-09-02T22:13:19Z</time>
  <course>185.24</course>
  <speed>0.01</speed>
  <fix>3d</fix>
</trkpt>
<trkpt lat="33.8103131" lon="-118.3938671">
  <ele>-5.168</ele>
  <time>2026-09-02T22:13:19Z</time>
  <course>185.25</course>
  <speed>0.01414213562373095</speed>
  <fix>3d</fix>
</trkpt>
<trkpt lat="33.810313" lon="-118.393867">
  <ele>-4.82</ele>
  <time>2026-09-02T22:13:19Z</time>
  <course>275.0</course>
  <speed>0.0</speed>
  <fix>3d</fix>
</trkpt>
<trkpt lat="33.8103131" lon="-118.3938671">
  <ele>-5.171</ele>
  <time>2026-09-02T22:13:19Z</time>
  <course>185.25</course>
  <speed>0.01414213562373095</speed>
  <fix>3d</fix>
</trkpt>
<trkpt lat="33.8103131" lon="-118.3938671">
  <ele>-5.267</ele>
  <time>2026-09-02T22:13:19Z</time>
  <course>185.26</course>
  <speed>0.01414213562373095</speed>
  <fix>3d</fix>
</trkpt>
<trkpt lat="33.810313" lon="-118.393867">
  <ele>-4.82</ele>
  <time>2026-09-02T22:13:19Z</time>
  <course>275.0</course>
  <speed>0.0</speed>
  <fix>3d</fix>
</trkpt>
<trkpt lat="33.8103131" lon="-118.3938671">
  <ele>-5.297</ele>
  <time>2026-09-02T22:13:19Z</time>
  <course>185.26</course>
  <speed>0.01414213562373095</speed>
  <fix>3d</fix>
</trkpt>
<trkpt lat="33.8103131" lon="-118.3938671">
  <ele>-5.366</ele>
  <time>2026-09-02T22:13:19Z</time>
  <course>185.26</course>
  <speed>0.01414213562373095</speed>
  <fix>3d</fix>
</trkpt>
<trkpt lat="33.810313" lon="-118.393867">
  <ele>-5.01</ele>
  <time>2026-09-02T22:13:19Z</time>
  <course>275.0</course>
  <speed>0.0</speed>
  <fix>3d</fix>
</trkpt>
<trkpt lat="33.8103131" lon="-118.3938671">
  <ele>-5.395</ele>
  <time>2026-09-02T22:13:19Z</time>
  <course>185.27</course>
  <speed>0.01414213562373095</speed>
  <fix>3d</fix>
</trkpt>
<trkpt lat="33.8103131" lon="-118.3938671">
  <ele>-5.464</ele>
  <time>2026-09-02T22:13:19Z</time>
  <course>185.27</course>
  <speed>0.01414213562373095</speed>
  <fix>3d</fix>
</trkpt>
<trkpt lat="33.810313" lon="-118.393867">
  <ele>-5.01</ele>
  <time>2026-09-02T22:13:19Z</time>
  <course>275.0</course>
  <speed>0.0</speed>
  <fix>3d</fix>
</trkpt>
<trkpt lat="33.8103131" lon="-118.3938671">
  <ele>-5.493</ele>
  <time>2026-09-02T22:13:19Z</time>
  <course>185.28</course>
  <speed>0.01414213562373095</speed>
  <fix>3d</fix>
</trkpt>
<trkpt lat="33.8103131" lon="-118.3938671">
  <ele>-5.563</ele>
  <time>2026-09-02T22:13:19Z</time>
  <course>185.28</course>
  <speed>0.01414213562373095</speed>
  <fix>3d</fix>
</trkpt>
<trkpt lat="33.810313" lon="-118.393867">
  <ele>-5.21</ele>
  <time>2026-09-02T22:13:19Z</time>
  <course>275.0</course>
  <speed>0.0</speed>
  <fix>3d</fix>
</trkpt>
<trkpt lat="33.8103131" lon="-118.3938671">
  <ele>-5.565</ele>
  <time>2026-09-02T22:13:19Z</time>
  <course>185.28</course>
  <speed>0.01414213562373095</speed>
  <fix>3d</fix>
</trkpt>
<trkpt lat="33.8103131" lon="-118.3938671">
  <ele>-5.661</ele>
  <time>2026-09-02T22:13:19Z</time>
  <course>185.29</course>
  <speed>0.01414213562373095</speed>
  <fix>3d</fix>
</trkpt>
<trkpt lat="33.810313" lon="-118.393867">
  <ele>-5.21</ele>
  <time>2026-09-02T22:13:19Z</time>
  <course>275.0</course>
  <speed>0.0</speed>
  <fix>3d</fix>
</trkpt>
<trkpt lat="33.8103131" lon="-118.3938671">
  <ele>-5.69</ele>
  <time>2026-09-02T22:13:19Z</time>
  <course>185.29</course>
  <speed>0.01414213562373095</speed>
  <fix>3d</fix>
</trkpt>
<trkpt lat="33.8103131" lon="-118.3938671">
  <ele>-5.758</ele>
  <time>2026-09-02T22:13:19Z</time>
  <course>185.3</course>
  <speed>0.01414213562373095</speed>
  <fix>3d</fix>
</trkpt>
<trkpt lat="33.810313" lon="-118.393867">
  <ele>-5.4</ele>
  <time>2026-09-02T22:13:19Z</time>
  <course>275.0</course>
  <speed>0.0</speed>
  <fix>3d</fix>
</trkpt>
<trkpt lat="33.8103131" lon="-118.3938671">
  <ele>-5.788</ele>
  <time>2026-09-02T22:13:19Z</time>
  <course>185.3</course>
  <speed>0.01414213562373095</speed>
  <fix>3d</fix>
</trkpt>
<trkpt lat="33.8103131" lon="-118.3938671">
  <ele>-5.856</ele>
  <time>2026-09-02T22:13:19Z</time>
  <course>185.31</course>
  <speed>0.01414213562373095</speed>
  <fix>3d</fix>
</trkpt>
<trkpt lat="33.810313" lon="-118.393867">
  <ele>-5.4</ele>
  <time>2026-09-02T22:13:19Z</time>
  <course>275.0</course>
  <speed>0.0</speed>
  <fix>3d</fix>
</trkpt>
<trkpt lat="33.8103131" lon="-118.3938671">
  <ele>-5.887</ele>
  <time>2026-09-02T22:13:19Z</time>
  <course>185.31</course>
  <speed>0.01414213562373095</speed>
  <fix>3d</fix>
</trkpt>
<trkpt lat="33.8103131" lon="-118.3938671">
  <ele>-5.954</ele>
  <time>2026-09-02T22:13:19Z</time>
  <course>185.32</course>
  <speed>0.01414213562373095</speed>
  <fix>3d</fix>
</trkpt>
<trkpt lat="33.810313" lon="-118.393867">
  <ele>-5.59</ele>
  <time>2026-09-02T22:13:19Z</time>
  <course>275.0</course>
  <speed>0.0</speed>
  <fix>3d</fix>
</trkpt>
<trkpt lat="33.8103131" lon="-118.3938671">
  <ele>-5.983</ele>
  <time>2026-09-02T22:13:19Z</time>
  <course>185.32</course>
  <speed>0.01414213562373095</speed>
  <fix>3d</fix>
</trkpt>
<trkpt lat="33.8103131" lon="-118.3938671">
  <ele>-6.051</ele>
  <time>2026-09-02T22:13:19Z</time>
  <course>185.33</course>
  <speed>0.01414213562373095</speed>
  <fix>3d</fix>
</trkpt>
<trkpt lat="33.810313" lon="-118.393867">
  <ele>-5.59</ele>
  <time>2026-09-02T22:13:19Z</time>
  <course>275.0</course>
  <speed>0.0</speed>
  <fix>3d</fix>
</trkpt>
<trkpt lat="33.8103131" lon="-118.3938671">
  <ele>-6.052</ele>
  <time>2026-09-02T22:13:19Z</time>
  <course>185.33</course>
  <speed>0.01414213562373095</speed>
  <fix>3d</fix>
</trkpt>
<trkpt lat="33.8103131" lon="-118.3938671">
  <ele>-6.148</ele>
  <time>2026-09-02T22:13:19Z</time>
  <course>185.34</course>
  <speed>0.01414213562373095</speed>
  <fix>3d</fix>
</trkpt>
<trkpt lat="33.810313" lon="-118.393867">
  <ele>-5.78</ele>
  <time>2026-09-02T22:13:19Z</time>
  <course>275.0</course>
  <speed>0.0</speed>
  <fix>3d</fix>
</trkpt>
<trkpt lat="33.8103131" lon="-118.3938671">
  <ele>-6.177</ele>
  <time>2026-09-02T22:13:19Z</time>
  <course>185.34</course>
  <speed>0.01414213562373095</speed>
  <fix>3d</fix>
</trkpt>
<trkpt lat="33.8103131" lon="-118.3938671">
  <ele>-6.246</ele>
  <time>2026-09-02T22:13:19Z</time>
  <course>185.35</course>
  <speed>0.01414213562373095</speed>
  <fix>3d</fix>
</trkpt>
<trkpt lat="33.810313" lon="-118.393867">
  <ele>-5.78</ele>
  <time>2026-09-02T22:13:19Z</time>
  <course>275.0</course>
  <speed>0.0</speed>
  <fix>3d</fix>
</trkpt>
<trkpt lat="33.8103131" lon="-118.3938671">
  <ele>-6.248</ele>
  <time>2026-09-02T22:13:19Z</time>
  <course>185.35</course>
  <speed>0.01414213562373095</speed>
  <fix>3d</fix>
</trkpt>
<trkpt lat="33.8103131" lon="-118.3938671">
  <ele>-6.344</ele>
  <time>2026-09-02T22:13:19Z</time>
  <course>185.36</course>
  <speed>0.01414213562373095</speed>
  <fix>3d</fix>
</trkpt>
<trkpt lat="33.810313" lon="-118.393867">
  <ele>-5.97</ele>
  <time>2026-09-02T22:13:19Z</time>
  <course>275.0</course>
  <speed>0.0</speed>
  <fix>3d</fix>
</trkpt>
<trkpt lat="33.8103131" lon="-118.3938671">
  <ele>-6.347</ele>
  <time>2026-09-02T22:13:19Z</time>
  <course>185.36</course>
  <speed>0.01414213562373095</speed>
  <fix>3d</fix>
</trkpt>
<trkpt lat="33.8103131" lon="-118.3938671">
  <ele>-6.443</ele>
  <time>2026-09-02T22:13:19Z</time>
  <course>185.36</course>
  <speed>0.01414213562373095</speed>
  <fix>3d</fix>
</trkpt>
<trkpt lat="33.810313" lon="-118.393867">
  <ele>-5.97</ele>
  <time>2026-09-02T22:13:19Z</time>
  <course>275.0</course>
  <speed>0.0</speed>
  <fix>3d</fix>
</trkpt>
<trkpt lat="33.8103131" lon="-118.3938671">
  <ele>-6.472</ele>
  <time>2026-09-02T22:13:19Z</time>
  <course>185.37</course>
  <speed>0.01414213562373095</speed>
  <fix>3d</fix>
</trkpt>
<trkpt lat="33.8103131" lon="-118.3938671">
  <ele>-6.541</ele>
  <time>2026-09-02T22:13:19Z</time>
  <course>185.37</course>
  <speed>0.01414213562373095</speed>
  <fix>3d</fix>
</trkpt>
<trkpt lat="33.810313" lon="-118.3938671">
  <ele>-6.16</ele>
  <time>2026-09-02T22:13:19Z</time>
  <course>275.0</course>
  <speed>0.0</speed>
  <fix>3d</fix>
</trkpt>
<trkpt lat="33.8103131" lon="-118.3938671">
  <ele>-6.544</ele>
  <time>2026-09-02T22:13:19Z</time>
  <course>185.37</course>
  <speed>0.01414213562373095</speed>
  <fix>3d</fix>
</trkpt>
<trkpt lat="33.8103131" lon="-118.3938671">
  <ele>-6.639</ele>
  <time>2026-09-02T22:13:19Z</time>
  <course>185.38</course>
  <speed>0.022360679774997897</speed>
  <fix>3d</fix>
</trkpt>
<trkpt lat="33.810313" lon="-118.3938671">
  <ele>-6.16</ele>
  <time>2026-09-02T22:13:19Z</time>
  <course>275.0</course>
  <speed>0.0</speed>
  <fix>3d</fix>
</trkpt>
<trkpt lat="33.8103131" lon="-118.3938671">
  <ele>-6.659</ele>
  <time>2026-09-02T22:13:19Z</time>
  <course>185.38</course>
  <speed>0.022360679774997897</speed>
  <fix>3d</fix>
</trkpt>
<trkpt lat="33.8103131" lon="-118.3938671">
  <ele>-6.736</ele>
  <time>2026-09-02T22:13:19Z</time>
  <course>185.39</course>
  <speed>0.022360679774997897</speed>
  <fix>3d</fix>
</trkpt>
<trkpt lat="33.810313" lon="-118.3938671">
  <ele>-6.35</ele>
  <time>2026-09-02T22:13:19Z</time>
  <course>275.0</course>
  <speed>0.0</speed>
  <fix>3d</fix>
</trkpt>
<trkpt lat="33.8103131" lon="-118.3938671">
  <ele>-6.756</ele>
  <time>2026-09-02T22:13:19Z</time>
  <course>185.39</course>
  <speed>0.022360679774997897</speed>
  <fix>3d</fix>
</trkpt>
<trkpt lat="33.8103131" lon="-118.3938671">
  <ele>-6.833</ele>
  <time>2026-09-02T22:13:19Z</time>
  <course>185.4</course>
  <speed>0.022360679774997897</speed>
  <fix>3d</fix>
</trkpt>
<trkpt lat="33.810313" lon="-118.3938671">
  <ele>-6.35</ele>
  <time>2026-09-02T22:13:19Z</time>
  <course>275.0</course>
  <speed>0.0</speed>
  <fix>3d</fix>
</trkpt>
<trkpt lat="33.8103131" lon="-118.3938671">
  <ele>-6.862</ele>
  <time>2026-09-02T22:13:19Z</time>
  <course>185.4</course>
  <speed>0.022360679774997897</speed>
  <fix>3d</fix>
</trkpt>
<trkpt lat="33.8103131" lon="-118.3938671">
  <ele>-6.93</ele>
  <time>2026-09-02T22:13:19Z</time>
  <course>185.41</course>
  <speed>0.022360679774997897</speed>
  <fix>3d</fix>
</trkpt>
<trkpt lat="33.810313" lon="-118.3938671">
  <ele>-6.54</ele>
  <time>2026-09-02T22:13:19Z</time>
  <course>275.0</course>
  <speed>0.0</speed>
  <fix>3d</fix>
</trkpt>
<trkpt lat="33.8103131" lon="-118.3938671">
  <ele>-6.959</ele>
  <time>2026-09-02T22:13:19Z</time>
  <course>185.41</course>
  <speed>0.022360679774997897</speed>
  <fix>3d</fix>
</trkpt>
<trkpt lat="33.8103131" lon="-118.3938671">
  <ele>-7.029</ele>
  <time>2026-09-02T22:13:19Z</time>
  <course>185.42</course>
  <speed>0.022360679774997897</speed>
  <fix>3d</fix>
</trkpt>
<trkpt lat="33.810313" lon="-118.3938671">
  <ele>-6.54</ele>
  <time>2026-09-02T22:13:19Z</time>
  <course>275.0</course>
  <speed>0.0</speed>
  <fix>3d</fix>
</trkpt>
<trkpt lat="33.8103131" lon="-118.3938671">
  <ele>-7.031</ele>
  <time>2026-09-02T22:13:19Z</time>
  <course>185.42</course>
  <speed>0.022360679774997897</speed>
  <fix>3d</fix>
</trkpt>
<trkpt lat="33.8103131" lon="-118.3938671">
  <ele>-7.127</ele>
  <time>2026-09-02T22:13:19Z</time>
  <course>185.43</course>
  <speed>0.022360679774997897</speed>
  <fix>3d</fix>
</trkpt>
<trkpt lat="33.810313" lon="-118.3938671">
  <ele>-6.73</ele>
  <time>2026-09-02T22:13:19Z</time>
  <course>275.0</course>
  <speed>0.0</speed>
  <fix>3d</fix>
</trkpt>
<trkpt lat="33.8103131" lon="-118.3938671">
  <ele>-7.159</ele>
  <time>2026-09-02T22:13:19Z</time>
  <course>185.43</course>
  <speed>0.022360679774997897</speed>
  <fix>3d</fix>
</trkpt>
<trkpt lat="33.8103131" lon="-118.3938671">
  <ele>-7.225</ele>
  <time>2026-09-02T22:13:19Z</time>
  <course>185.44</course>
  <speed>0.0282842712474619</speed>
  <fix>3d</fix>
</trkpt>
<trkpt lat="33.810313" lon="-118.3938671">
  <ele>-6.73</ele>
  <time>2026-09-02T22:13:19Z</time>
  <course>275.0</course>
  <speed>0.0</speed>
  <fix>3d</fix>
</trkpt>
<trkpt lat="33.8103131" lon="-118.3938671">
  <ele>-7.228</ele>
  <time>2026-09-02T22:13:19Z</time>
  <course>185.44</course>
  <speed>0.0282842712474619</speed>
  <fix>3d</fix>
</trkpt>
<trkpt lat="33.8103131" lon="-118.3938672">
  <ele>-7.322</ele>
  <time>2026-09-02T22:13:19Z</time>
  <course>185.45</course>
  <speed>0.0282842712474619</speed>
  <fix>3d</fix>
</trkpt>
<trkpt lat="33.810313" lon="-118.3938671">
  <ele>-6.93</ele>
  <time>2026-09-02T22:13:19Z</time>
  <course>275.0</course>
  <speed>0.0</speed>
  <fix>3d</fix>
</trkpt>
<trkpt lat="33.8103131" lon="-118.3938672">
  <ele>-7.325</ele>
  <time>2026-09-02T22:13:19Z</time>
  <course>185.45</course>
  <speed>0.0282842712474619</speed>
  <fix>3d</fix>
</trkpt>
<trkpt lat="33.8103131" lon="-118.3938672">
  <ele>-7.419</ele>
  <time>2026-09-02T22:13:19Z</time>
  <course>185.46</course>
  <speed>0.0282842712474619</speed>
  <fix>3d</fix>
</trkpt>
<trkpt lat="33.810313" lon="-118.3938671">
  <ele>-6.93</ele>
  <time>2026-09-02T22:13:19Z</time>
  <course>275.0</course>
  <speed>0.0</speed>
  <fix>3d</fix>
</trkpt>
<trkpt lat="33.8103131" lon="-118.3938672">
  <ele>-7.448</ele>
  <time>2026-09-02T22:13:19Z</time>
  <course>185.46</course>
  <speed>0.0282842712474619</speed>
  <fix>3d</fix>
</trkpt>
<trkpt lat="33.8103131" lon="-118.3938672">
  <ele>-7.515</ele>
  <time>2026-09-02T22:13:19Z</time>
  <course>185.46</course>
  <speed>0.0282842712474619</speed>
  <fix>3d</fix>
</trkpt>
<trkpt lat="33.810313" lon="-118.3938671">
  <ele>-7.12</ele>
  <time>2026-09-02T22:13:19Z</time>
  <course>275.0</course>
  <speed>0.0</speed>
  <fix>3d</fix>
</trkpt>
<trkpt lat="33.8103131" lon="-118.3938672">
  <ele>-7.517</ele>
  <time>2026-09-02T22:13:19Z</time>
  <course>185.46</course>
  <speed>0.0282842712474619</speed>
  <fix>3d</fix>
</trkpt>
<trkpt lat="33.8103131" lon="-118.3938672">
  <ele>-7.611</ele>
  <time>2026-09-02T22:13:19Z</time>
  <course>185.47</course>
  <speed>0.0282842712474619</speed>
  <fix>3d</fix>
</trkpt>
<trkpt lat="33.810313" lon="-118.3938671">
  <ele>-7.12</ele>
  <time>2026-09-02T22:13:19Z</time>
  <course>275.0</course>
  <speed>0.0</speed>
  <fix>3d</fix>
</trkpt>
<trkpt lat="33.8103131" lon="-118.3938672">
  <ele>-7.641</ele>
  <time>2026-09-02T22:13:19Z</time>
  <course>185.48</course>
  <speed>0.0282842712474619</speed>
  <fix>3d</fix>
</trkpt>
<trkpt lat="33.8103131" lon="-118.3938672">
  <ele>-7.706</ele>
  <time>2026-09-02T22:13:19Z</time>
  <course>185.48</course>
  <speed>0.0282842712474619</speed>
  <fix>3d</fix>
</trkpt>
<trkpt lat="33.810313" lon="-118.3938671">
  <ele>-7.31</ele>
  <time>2026-09-02T22:13:19Z</time>
  <course>275.0</course>
  <speed>0.0</speed>
  <fix>3d</fix>
</trkpt>
<trkpt lat="33.8103131" lon="-118.3938672">
  <ele>-7.735</ele>
  <time>2026-09-02T22:13:19Z</time>
  <course>185.49</course>
  <speed>0.0282842712474619</speed>
  <fix>3d</fix>
</trkpt>
<trkpt lat="33.8103131" lon="-118.3938672">
  <ele>-7.802</ele>
  <time>2026-09-02T22:13:19Z</time>
  <course>185.49</course>
  <speed>0.0282842712474619</speed>
  <fix>3d</fix>
</trkpt>
<trkpt lat="33.810313" lon="-118.3938671">
  <ele>-7.31</ele>
  <time>2026-09-02T22:13:19Z</time>
  <course>275.0</course>
  <speed>0.0</speed>
  <fix>3d</fix>
</trkpt>
<trkpt lat="33.8103131" lon="-118.3938672">
  <ele>-7.833</ele>
  <time>2026-09-02T22:13:19Z</time>
  <course>185.5</course>
  <speed>0.0282842712474619</speed>
  <fix>3d</fix>
</trkpt>
<trkpt lat="33.8103131" lon="-118.3938672">
  <ele>-7.899</ele>
  <time>2026-09-02T22:13:19Z</time>
  <course>185.5</course>
  <speed>0.0282842712474619</speed>
  <fix>3d</fix>
</trkpt>
<trkpt lat="33.810313" lon="-118.3938671">
  <ele>-7.5</ele>
  <time>2026-09-02T22:13:19Z</time>
  <course>275.0</course>
  <speed>0.0</speed>
  <fix>3d</fix>
</trkpt>
<trkpt lat="33.8103131" lon="-118.3938672">
  <ele>-7.928</ele>
  <time>2026-09-02T22:13:19Z</time>
  <course>185.51</course>
  <speed>0.0282842712474619</speed>
  <fix>3d</fix>
</trkpt>
<trkpt lat="33.8103131" lon="-118.3938672">
  <ele>-7.996</ele>
  <time>2026-09-02T22:13:19Z</time>
  <course>185.51</course>
  <speed>0.0282842712474619</speed>
  <fix>3d</fix>
</trkpt>
<trkpt lat="33.810313" lon="-118.3938671">
  <ele>-7.5</ele>
  <time>2026-09-02T22:13:19Z</time>
  <course>275.0</course>
  <speed>0.0</speed>
  <fix>3d</fix>
</trkpt>
<trkpt lat="33.8103131" lon="-118.3938672">
  <ele>-7.998</ele>
  <time>2026-09-02T22:13:19Z</time>
  <course>185.51</course>
  <speed>0.0282842712474619</speed>
  <fix>3d</fix>
</trkpt>
<trkpt lat="33.8103131" lon="-118.3938672">
  <ele>-8.094</ele>
  <time>2026-09-02T22:13:19Z</time>
  <course>185.52</course>
  <speed>0.0282842712474619</speed>
  <fix>3d</fix>
</trkpt>
<trkpt lat="33.810313" lon="-118.3938671">
  <ele>-7.7</ele>
  <time>2026-09-02T22:13:19Z</time>
  <course>275.0</course>
  <speed>0.0</speed>
  <fix>3d</fix>
</trkpt>
<trkpt lat="33.8103131" lon="-118.3938672">
  <ele>-8.124</ele>
  <time>2026-09-02T22:13:19Z</time>
  <course>185.52</course>
  <speed>0.0282842712474619</speed>
  <fix>3d</fix>
</trkpt>
<trkpt lat="33.8103131" lon="-118.3938672">
  <ele>-8.192</ele>
  <time>2026-09-02T22:13:19Z</time>
  <course>185.53</course>
  <speed>0.0282842712474619</speed>
  <fix>3d</fix>
</trkpt>
<trkpt lat="33.810313" lon="-118.3938671">
  <ele>-7.7</ele>
  <time>2026-09-02T22:13:19Z</time>
  <course>275.0</course>
  <speed>0.0</speed>
  <fix>3d</fix>
</trkpt>
<trkpt lat="33.8103131" lon="-118.3938672">
  <ele>-8.222</ele>
  <time>2026-09-02T22:13:19Z</time>
  <course>185.53</course>
  <speed>0.0282842712474619</speed>
  <fix>3d</fix>
</trkpt>
<trkpt lat="33.8103131" lon="-118.3938672">
  <ele>-8.291</ele>
  <time>2026-09-02T22:13:19Z</time>
  <course>185.54</course>
  <speed>0.0282842712474619</speed>
  <fix>3d</fix>
</trkpt>
<trkpt lat="33.810313" lon="-118.3938671">
  <ele>-7.89</ele>
  <time>2026-09-02T22:13:19Z</time>
  <course>275.0</course>
  <speed>0.0</speed>
  <fix>3d</fix>
</trkpt>
<trkpt lat="33.8103131" lon="-118.3938672">
  <ele>-8.296</ele>
  <time>2026-09-02T22:13:19Z</time>
  <course>185.54</course>
  <speed>0.0282842712474619</speed>
  <fix>3d</fix>
</trkpt>
<trkpt lat="33.8103131" lon="-118.3938672">
  <ele>-8.39</ele>
  <time>2026-09-02T22:13:19Z</time>
  <course>185.55</course>
  <speed>0.0282842712474619</speed>
  <fix>3d</fix>
</trkpt>
<trkpt lat="33.810313" lon="-118.3938671">
  <ele>-7.89</ele>
  <time>2026-09-02T22:13:19Z</time>
  <course>275.0</course>
  <speed>0.0</speed>
  <fix>3d</fix>
</trkpt>
<trkpt lat="33.8103131" lon="-118.3938672">
  <ele>-8.392</ele>
  <time>2026-09-02T22:13:19Z</time>
  <course>185.55</course>
  <speed>0.0282842712474619</speed>
  <fix>3d</fix>
</trkpt>
<trkpt lat="33.8103131" lon="-118.3938673">
  <ele>-8.488</ele>
  <time>2026-09-02T22:13:19Z</time>
  <course>185.56</course>
  <speed>0.0282842712474619</speed>
  <fix>3d</fix>
</trkpt>
<trkpt lat="33.810313" lon="-118.3938671">
  <ele>-8.09</ele>
  <time>2026-09-02T22:13:19Z</time>
  <course>275.0</course>
  <speed>0.0</speed>
  <fix>3d</fix>
</trkpt>
<trkpt lat="33.8103131" lon="-118.3938673">
  <ele>-8.49</ele>
  <time>2026-09-02T22:13:19Z</time>
  <course>185.56</course>
  <speed>0.0282842712474619</speed>
  <fix>3d</fix>
</trkpt>
<trkpt lat="33.8103132" lon="-118.3938673">
  <ele>-8.587</ele>
  <time>2026-09-02T22:13:19Z</time>
  <course>185.57</course>
  <speed>0.0282842712474619</speed>
  <fix>3d</fix>
</trkpt>
<trkpt lat="33.810313" lon="-118.3938671">
  <ele>-8.09</ele>
  <time>2026-09-02T22:13:19Z</time>
  <course>275.0</course>
  <speed>0.0</speed>
  <fix>3d</fix>
</trkpt>
<trkpt lat="33.8103132" lon="-118.3938673">
  <ele>-8.619</ele>
  <time>2026-09-02T22:13:19Z</time>
  <course>185.57</course>
  <speed>0.0282842712474619</speed>
  <fix>3d</fix>
</trkpt>
<trkpt lat="33.8103132" lon="-118.3938673">
  <ele>-8.687</ele>
  <time>2026-09-02T22:13:19Z</time>
  <course>185.58</course>
  <speed>0.0282842712474619</speed>
  <fix>3d</fix>
</trkpt>
<trkpt lat="33.810313" lon="-118.3938671">
  <ele>-8.29</ele>
  <time>2026-09-02T22:13:19Z</time>
  <course>275.0</course>
  <speed>0.0</speed>
  <fix>3d</fix>
</trkpt>
<trkpt lat="33.8103132" lon="-118.3938673">
  <ele>-8.716</ele>
  <time>2026-09-02T22:13:19Z</time>
  <course>185.58</course>
  <speed>0.0282842712474619</speed>
  <fix>3d</fix>
</trkpt>
<trkpt lat="33.8103132" lon="-118.3938673">
  <ele>-8.786</ele>
  <time>2026-09-02T22:13:19Z</time>
  <course>185.59</course>
  <speed>0.0282842712474619</speed>
  <fix>3d</fix>
</trkpt>
<trkpt lat="33.810313" lon="-118.3938671">
  <ele>-8.29</ele>
  <time>2026-09-02T22:13:19Z</time>
  <course>275.0</course>
  <speed>0.0</speed>
  <fix>3d</fix>
</trkpt>
<trkpt lat="33.8103132" lon="-118.3938673">
  <ele>-8.816</ele>
  <time>2026-09-02T22:13:19Z</time>
  <course>185.59</course>
  <speed>0.0282842712474619</speed>
  <fix>3d</fix>
</trkpt>
<trkpt lat="33.8103132" lon="-118.3938673">
  <ele>-8.886</ele>
  <time>2026-09-02T22:13:19Z</time>
  <course>185.6</course>
  <speed>0.0282842712474619</speed>
  <fix>3d</fix>
</trkpt>
<trkpt lat="33.810313" lon="-118.3938671">
  <ele>-8.48</ele>
  <time>2026-09-02T22:13:19Z</time>
  <course>275.0</course>
  <speed>0.0</speed>
  <fix>3d</fix>
</trkpt>
<trkpt lat="33.8103132" lon="-118.3938673">
  <ele>-8.918</ele>
  <time>2026-09-02T22:13:19Z</time>
  <course>185.6</course>
  <speed>0.0282842712474619</speed>
  <fix>3d</fix>
</trkpt>
<trkpt lat="33.8103132" lon="-118.3938673">
  <ele>-8.985</ele>
  <time>2026-09-02T22:13:19Z</time>
  <course>185.61</course>
  <speed>0.0282842712474619</speed>
  <fix>3d</fix>
</trkpt>
<trkpt lat="33.810313" lon="-118.3938671">
  <ele>-8.48</ele>
  <time>2026-09-02T22:13:19Z</time>
  <course>275.0</course>
  <speed>0.0</speed>
  <fix>3d</fix>
</trkpt>
<trkpt lat="33.8103132" lon="-118.3938673">
  <ele>-8.987</ele>
  <time>2026-09-02T22:13:19Z</time>
  <course>185.61</course>
  <speed>0.0282842712474619</speed>
  <fix>3d</fix>
</trkpt>
<trkpt lat="33.8103132" lon="-118.3938673">
  <ele>-9.084</ele>
  <time>2026-09-02T22:13:19Z</time>
  <course>185.62</course>
  <speed>0.0282842712474619</speed>
  <fix>3d</fix>
</trkpt>
<trkpt lat="33.810313" lon="-118.3938671">
  <ele>-8.68</ele>
  <time>2026-09-02T22:13:19Z</time>
  <course>275.0</course>
  <speed>0.0</speed>
  <fix>3d</fix>
</trkpt>
<trkpt lat="33.8103132" lon="-118.3938673">
  <ele>-9.114</ele>
  <time>2026-09-02T22:13:19Z</time>
  <course>185.62</course>
  <speed>0.0282842712474619</speed>
  <fix>3d</fix>
</trkpt>
<trkpt lat="33.8103132" lon="-118.3938673">
  <ele>-9.182</ele>
  <time>2026-09-02T22:13:19Z</time>
  <course>185.63</course>
  <speed>0.0282842712474619</speed>
  <fix>3d</fix>
</trkpt>
<trkpt lat="33.810313" lon="-118.3938671">
  <ele>-8.68</ele>
  <time>2026-09-02T22:13:19Z</time>
  <course>275.0</course>
  <speed>0.0</speed>
  <fix>3d</fix>
</trkpt>
<trkpt lat="33.8103132" lon="-118.3938673">
  <ele>-9.213</ele>
  <time>2026-09-02T22:13:19Z</time>
  <course>185.63</course>
  <speed>0.0282842712474619</speed>
  <fix>3d</fix>
</trkpt>
<trkpt lat="33.8103132" lon="-118.3938673">
  <ele>-9.279</ele>
  <time>2026-09-02T22:13:19Z</time>
  <course>185.64</course>
  <speed>0.0282842712474619</speed>
  <fix>3d</fix>
</trkpt>
<trkpt lat="33.810313" lon="-118.3938671">
  <ele>-8.87</ele>
  <time>2026-09-02T22:13:19Z</time>
  <course>275.0</course>
  <speed>0.0</speed>
  <fix>3d</fix>
</trkpt>
<trkpt lat="33.8103132" lon="-118.3938673">
  <ele>-9.282</ele>
  <time>2026-09-02T22:13:19Z</time>
  <course>185.64</course>
  <speed>0.0282842712474619</speed>
  <fix>3d</fix>
</trkpt>
<trkpt lat="33.8103132" lon="-118.3938673">
  <ele>-9.377</ele>
  <time>2026-09-02T22:13:19Z</time>
  <course>185.65</course>
  <speed>0.0282842712474619</speed>
  <fix>3d</fix>
</trkpt>
<trkpt lat="33.810313" lon="-118.3938671">
  <ele>-8.87</ele>
  <time>2026-09-02T22:13:19Z</time>
  <course>275.0</course>
  <speed>0.0</speed>
  <fix>3d</fix>
</trkpt>
<trkpt lat="33.8103132" lon="-118.3938673">
  <ele>-9.409</ele>
  <time>2026-09-02T22:13:19Z</time>
  <course>185.65</course>
  <speed>0.0282842712474619</speed>
  <fix>3d</fix>
</trkpt>
<trkpt lat="33.8103132" lon="-118.3938673">
  <ele>-9.476</ele>
  <time>2026-09-02T22:13:19Z</time>
  <course>185.66</course>
  <speed>0.03605551275463989</speed>
  <fix>3d</fix>
</trkpt>
<trkpt lat="33.810313" lon="-118.3938671">
  <ele>-9.06</ele>
  <time>2026-09-02T22:13:19Z</time>
  <course>275.0</course>
  <speed>0.0</speed>
  <fix>3d</fix>
</trkpt>
<trkpt lat="33.8103132" lon="-118.3938673">
  <ele>-9.508</ele>
  <time>2026-09-02T22:13:19Z</time>
  <course>185.66</course>
  <speed>0.03605551275463989</speed>
  <fix>3d</fix>
</trkpt>
<trkpt lat="33.8103132" lon="-118.3938673">
  <ele>-9.575</ele>
  <time>2026-09-02T22:13:19Z</time>
  <course>185.67</course>
  <speed>0.03605551275463989</speed>
  <fix>3d</fix>
</trkpt>
<trkpt lat="33.810313" lon="-118.3938671">
  <ele>-9.06</ele>
  <time>2026-09-02T22:13:19Z</time>
  <course>275.0</course>
  <speed>0.0</speed>
  <fix>3d</fix>
</trkpt>
<trkpt lat="33.8103132" lon="-118.3938673">
  <ele>-9.604</ele>
  <time>2026-09-02T22:13:19Z</time>
  <course>185.67</course>
  <speed>0.03605551275463989</speed>
  <fix>3d</fix>
</trkpt>
<trkpt lat="33.8103132" lon="-118.3938673">
  <ele>-9.673</ele>
  <time>2026-09-02T22:13:19Z</time>
  <course>185.68</course>
  <speed>0.03605551275463989</speed>
  <fix>3d</fix>
</trkpt>
<trkpt lat="33.810313" lon="-118.3938671">
  <ele>-9.25</ele>
  <time>2026-09-02T22:13:19Z</time>
  <course>275.0</course>
  <speed>0.0</speed>
  <fix>3d</fix>
</trkpt>
<trkpt lat="33.8103132" lon="-118.3938673">
  <ele>-9.705</ele>
  <time>2026-09-02T22:13:19Z</time>
  <course>185.68</course>
  <speed>0.03605551275463989</speed>
  <fix>3d</fix>
</trkpt>
<trkpt lat="33.8103132" lon="-118.3938673">
  <ele>-9.77</ele>
  <time>2026-09-02T22:13:19Z</time>
  <course>185.69</course>
  <speed>0.03605551275463989</speed>
  <fix>3d</fix>
</trkpt>
<trkpt lat="33.810313" lon="-118.3938671">
  <ele>-9.25</ele>
  <time>2026-09-02T22:13:19Z</time>
  <course>275.0</course>
  <speed>0.0</speed>
  <fix>3d</fix>
</trkpt>
<trkpt lat="33.8103132" lon="-118.3938673">
  <ele>-9.802</ele>
  <time>2026-09-02T22:13:19Z</time>
  <course>185.69</course>
  <speed>0.03605551275463989</speed>
  <fix>3d</fix>
</trkpt>
<trkpt lat="33.8103132" lon="-118.3938673">
  <ele>-9.867</ele>
  <time>2026-09-02T22:13:19Z</time>
  <course>185.7</course>
  <speed>0.03605551275463989</speed>
  <fix>3d</fix>
</trkpt>
<trkpt lat="33.810313" lon="-118.3938671">
  <ele>-9.44</ele>
  <time>2026-09-02T22:13:19Z</time>
  <course>275.0</course>
  <speed>0.0</speed>
  <fix>3d</fix>
</trkpt>
<trkpt lat="33.8103132" lon="-118.3938673">
  <ele>-9.896</ele>
  <time>2026-09-02T22:13:19Z</time>
  <course>185.7</course>
  <speed>0.03605551275463989</speed>
  <fix>3d</fix>
</trkpt>
<trkpt lat="33.8103132" lon="-118.3938673">
  <ele>-9.963</ele>
  <time>2026-09-02T22:13:19Z</time>
  <course>185.71</course>
  <speed>0.03605551275463989</speed>
  <fix>3d</fix>
</trkpt>
<trkpt lat="33.810313" lon="-118.3938671">
  <ele>-9.44</ele>
  <time>2026-09-02T22:13:19Z</time>
  <course>275.0</course>
  <speed>0.0</speed>
  <fix>3d</fix>
</trkpt>
<trkpt lat="33.8103132" lon="-118.3938673">
  <ele>-9.993</ele>
  <time>2026-09-02T22:13:19Z</time>
  <course>185.71</course>
  <speed>0.03605551275463989</speed>
  <fix>3d</fix>
</trkpt>
<trkpt lat="33.8103132" lon="-118.3938673">
  <ele>-10.061</ele>
  <time>2026-09-02T22:13:19Z</time>
  <course>185.72</course>
  <speed>0.03605551275463989</speed>
  <fix>3d</fix>
</trkpt>
<trkpt lat="33.810313" lon="-118.3938671">
  <ele>-9.63</ele>
  <time>2026-09-02T22:13:19Z</time>
  <course>275.0</course>
  <speed>0.0</speed>
  <fix>3d</fix>
</trkpt>
<trkpt lat="33.8103132" lon="-118.3938673">
  <ele>-10.092</ele>
  <time>2026-09-02T22:13:19Z</time>
  <course>185.72</course>
  <speed>0.03605551275463989</speed>
  <fix>3d</fix>
</trkpt>
<trkpt lat="33.8103132" lon="-118.3938673">
  <ele>-10.159</ele>
  <time>2026-09-02T22:13:19Z</time>
  <course>185.72</course>
  <speed>0.03605551275463989</speed>
  <fix>3d</fix>
</trkpt>
<trkpt lat="33.810313" lon="-118.3938671">
  <ele>-9.63</ele>
  <time>2026-09-02T22:13:19Z</time>
  <course>275.0</course>
  <speed>0.0</speed>
  <fix>3d</fix>
</trkpt>
<trkpt lat="33.8103132" lon="-118.3938673">
  <ele>-10.19</ele>
  <time>2026-09-02T22:13:19Z</time>
  <course>185.73</course>
  <speed>0.03605551275463989</speed>
  <fix>3d</fix>
</trkpt>
<trkpt lat="33.8103132" lon="-118.3938673">
  <ele>-10.257</ele>
  <time>2026-09-02T22:13:19Z</time>
  <course>185.73</course>
  <speed>0.03605551275463989</speed>
  <fix>3d</fix>
</trkpt>
<trkpt lat="33.810313" lon="-118.3938672">
  <ele>-9.81</ele>
  <time>2026-09-02T22:13:19Z</time>
  <course>275.0</course>
  <speed>0.0</speed>
  <fix>3d</fix>
</trkpt>
<trkpt lat="33.8103132" lon="-118.3938673">
  <ele>-10.286</ele>
  <time>2026-09-02T22:13:19Z</time>
  <course>185.74</course>
  <speed>0.03605551275463989</speed>
  <fix>3d</fix>
</trkpt>
<trkpt lat="33.8103132" lon="-118.3938673">
  <ele>-10.354</ele>
  <time>2026-09-02T22:13:19Z</time>
  <course>185.74</course>
  <speed>0.03605551275463989</speed>
  <fix>3d</fix>
</trkpt>
<trkpt lat="33.810313" lon="-118.3938672">
  <ele>-9.81</ele>
  <time>2026-09-02T22:13:19Z</time>
  <course>275.0</course>
  <speed>0.0</speed>
  <fix>3d</fix>
</trkpt>
<trkpt lat="33.8103132" lon="-118.3938673">
  <ele>-10.356</ele>
  <time>2026-09-02T22:13:19Z</time>
  <course>185.74</course>
  <speed>0.03605551275463989</speed>
  <fix>3d</fix>
</trkpt>
<trkpt lat="33.8103132" lon="-118.3938673">
  <ele>-10.451</ele>
  <time>2026-09-02T22:13:19Z</time>
  <course>185.75</course>
  <speed>0.03605551275463989</speed>
  <fix>3d</fix>
</trkpt>
<trkpt lat="33.810313" lon="-118.3938672">
  <ele>-10.0</ele>
  <time>2026-09-02T22:13:19Z</time>
  <course>275.0</course>
  <speed>0.0</speed>
  <fix>3d</fix>
</trkpt>
<trkpt lat="33.8103132" lon="-118.3938673">
  <ele>-10.48</ele>
  <time>2026-09-02T22:13:19Z</time>
  <course>185.75</course>
  <speed>0.03605551275463989</speed>
  <fix>3d</fix>
</trkpt>
<trkpt lat="33.8103132" lon="-118.3938673">
  <ele>-10.547</ele>
  <time>2026-09-02T22:13:19Z</time>
  <course>185.76</course>
  <speed>0.03605551275463989</speed>
  <fix>3d</fix>
</trkpt>
<trkpt lat="33.810313" lon="-118.3938672">
  <ele>-10.0</ele>
  <time>2026-09-02T22:13:19Z</time>
  <course>275.0</course>
  <speed>0.0</speed>
  <fix>3d</fix>
</trkpt>
<trkpt lat="33.8103132" lon="-118.3938673">
  <ele>-10.577</ele>
  <time>2026-09-02T22:13:19Z</time>
  <course>185.76</course>
  <speed>0.03605551275463989</speed>
  <fix>3d</fix>
</trkpt>
<trkpt lat="33.8103132" lon="-118.3938673">
  <ele>-10.643</ele>
  <time>2026-09-02T22:13:19Z</time>
  <course>185.77</course>
  <speed>0.03605551275463989</speed>
  <fix>3d</fix>
</trkpt>
<trkpt lat="33.810313" lon="-118.3938672">
  <ele>-10.19</ele>
  <time>2026-09-02T22:13:19Z</time>
  <course>275.0</course>
  <speed>0.0</speed>
  <fix>3d</fix>
</trkpt>
<trkpt lat="33.8103132" lon="-118.3938673">
  <ele>-10.645</ele>
  <time>2026-09-02T22:13:19Z</time>
  <course>185.77</course>
  <speed>0.03605551275463989</speed>
  <fix>3d</fix>
</trkpt>
<trkpt lat="33.8103132" lon="-118.3938673">
  <ele>-10.74</ele>
  <time>2026-09-02T22:13:19Z</time>
  <course>185.78</course>
  <speed>0.03605551275463989</speed>
  <fix>3d</fix>
</trkpt>
<trkpt lat="33.810313" lon="-118.3938672">
  <ele>-10.19</ele>
  <time>2026-09-02T22:13:19Z</time>
  <course>275.0</course>
  <speed>0.0</speed>
  <fix>3d</fix>
</trkpt>
<trkpt lat="33.8103132" lon="-118.3938673">
  <ele>-10.743</ele>
  <time>2026-09-02T22:13:19Z</time>
  <course>185.78</course>
  <speed>0.03605551275463989</speed>
  <fix>3d</fix>
</trkpt>
<trkpt lat="33.8103132" lon="-118.3938673">
  <ele>-10.838</ele>
  <time>2026-09-02T22:13:19Z</time>
  <course>185.79</course>
  <speed>0.03605551275463989</speed>
  <fix>3d</fix>
</trkpt>
<trkpt lat="33.810313" lon="-118.3938672">
  <ele>-10.38</ele>
  <time>2026-09-02T22:13:19Z</time>
  <course>275.0</course>
  <speed>0.0</speed>
  <fix>3d</fix>
</trkpt>
<trkpt lat="33.8103132" lon="-118.3938673">
  <ele>-10.868</ele>
  <time>2026-09-02T22:13:19Z</time>
  <course>185.79</course>
  <speed>0.03605551275463989</speed>
  <fix>3d</fix>
</trkpt>
<trkpt lat="33.8103132" lon="-118.3938673">
  <ele>-10.936</ele>
  <time>2026-09-02T22:13:19Z</time>
  <course>185.8</course>
  <speed>0.03605551275463989</speed>
  <fix>3d</fix>
</trkpt>
<trkpt lat="33.810313" lon="-118.3938672">
  <ele>-10.38</ele>
  <time>2026-09-02T22:13:19Z</time>
  <course>275.0</course>
  <speed>0.0</speed>
  <fix>3d</fix>
</trkpt>
<trkpt lat="33.8103132" lon="-118.3938673">
  <ele>-10.965</ele>
  <time>2026-09-02T22:13:19Z</time>
  <course>185.8</course>
  <speed>0.03605551275463989</speed>
  <fix>3d</fix>
</trkpt>
<trkpt lat="33.8103132" lon="-118.3938673">
  <ele>-11.034</ele>
  <time>2026-09-02T22:13:19Z</time>
  <course>185.81</course>
  <speed>0.03605551275463989</speed>
  <fix>3d</fix>
</trkpt>
<trkpt lat="33.810313" lon="-118.3938672">
  <ele>-10.57</ele>
  <time>2026-09-02T22:13:19Z</time>
  <course>275.0</course>
  <speed>0.0</speed>
  <fix>3d</fix>
</trkpt>
<trkpt lat="33.8103132" lon="-118.3938673">
  <ele>-11.067</ele>
  <time>2026-09-02T22:13:19Z</time>
  <course>185.81</course>
  <speed>0.03605551275463989</speed>
  <fix>3d</fix>
</trkpt>
<trkpt lat="33.8103132" lon="-118.3938674">
  <ele>-11.131</ele>
  <time>2026-09-02T22:13:19Z</time>
  <course>185.81</course>
  <speed>0.03605551275463989</speed>
  <fix>3d</fix>
</trkpt>
<trkpt lat="33.810313" lon="-118.3938672">
  <ele>-10.57</ele>
  <time>2026-09-02T22:13:19Z</time>
  <course>275.0</course>
  <speed>0.0</speed>
  <fix>3d</fix>
</trkpt>
<trkpt lat="33.8103132" lon="-118.3938674">
  <ele>-11.163</ele>
  <time>2026-09-02T22:13:19Z</time>
  <course>185.82</course>
  <speed>0.03605551275463989</speed>
  <fix>3d</fix>
</trkpt>
<trkpt lat="33.8103132" lon="-118.3938674">
  <ele>-11.229</ele>
  <time>2026-09-02T22:13:19Z</time>
  <course>185.82</course>
  <speed>0.03605551275463989</speed>
  <fix>3d</fix>
</trkpt>
<trkpt lat="33.810313" lon="-118.3938672">
  <ele>-10.76</ele>
  <time>2026-09-02T22:13:19Z</time>
  <course>275.0</course>
  <speed>0.0</speed>
  <fix>3d</fix>
</trkpt>
<trkpt lat="33.8103132" lon="-118.3938674">
  <ele>-11.258</ele>
  <time>2026-09-02T22:13:19Z</time>
  <course>185.83</course>
  <speed>0.03605551275463989</speed>
  <fix>3d</fix>
</trkpt>
<trkpt lat="33.8103132" lon="-118.3938674">
  <ele>-11.326</ele>
  <time>2026-09-02T22:13:19Z</time>
  <course>185.83</course>
  <speed>0.03605551275463989</speed>
  <fix>3d</fix>
</trkpt>
<trkpt lat="33.810313" lon="-118.3938672">
  <ele>-10.76</ele>
  <time>2026-09-02T22:13:19Z</time>
  <course>275.0</course>
  <speed>0.0</speed>
  <fix>3d</fix>
</trkpt>
<trkpt lat="33.8103132" lon="-118.3938674">
  <ele>-11.329</ele>
  <time>2026-09-02T22:13:19Z</time>
  <course>185.83</course>
  <speed>0.03605551275463989</speed>
  <fix>3d</fix>
</trkpt>
<trkpt lat="33.8103132" lon="-118.3938674">
  <ele>-11.423</ele>
  <time>2026-09-02T22:13:19Z</time>
  <course>185.84</course>
  <speed>0.03605551275463989</speed>
  <fix>3d</fix>
</trkpt>
<trkpt lat="33.810313" lon="-118.3938672">
  <ele>-10.95</ele>
  <time>2026-09-02T22:13:19Z</time>
  <course>275.0</course>
  <speed>0.0</speed>
  <fix>3d</fix>
</trkpt>
<trkpt lat="33.8103132" lon="-118.3938674">
  <ele>-11.452</ele>
  <time>2026-09-02T22:13:19Z</time>
  <course>185.84</course>
  <speed>0.03605551275463989</speed>
  <fix>3d</fix>
</trkpt>
<trkpt lat="33.8103132" lon="-118.3938674">
  <ele>-11.52</ele>
  <time>2026-09-02T22:13:19Z</time>
  <course>185.85</course>
  <speed>0.03605551275463989</speed>
  <fix>3d</fix>
</trkpt>
<trkpt lat="33.810313" lon="-118.3938672">
  <ele>-10.95</ele>
  <time>2026-09-02T22:13:19Z</time>
  <course>275.0</course>
  <speed>0.0</speed>
  <fix>3d</fix>
</trkpt>
<trkpt lat="33.8103132" lon="-118.3938674">
  <ele>-11.551</ele>
  <time>2026-09-02T22:13:19Z</time>
  <course>185.85</course>
  <speed>0.03605551275463989</speed>
  <fix>3d</fix>
</trkpt>
<trkpt lat="33.8103132" lon="-118.3938674">
  <ele>-11.617</ele>
  <time>2026-09-02T22:13:19Z</time>
  <course>185.86</course>
  <speed>0.03605551275463989</speed>
  <fix>3d</fix>
</trkpt>
<trkpt lat="33.810313" lon="-118.3938672">
  <ele>-11.14</ele>
  <time>2026-09-02T22:13:19Z</time>
  <course>275.0</course>
  <speed>0.0</speed>
  <fix>3d</fix>
</trkpt>
<trkpt lat="33.8103132" lon="-118.3938674">
  <ele>-11.646</ele>
  <time>2026-09-02T22:13:19Z</time>
  <course>185.86</course>
  <speed>0.0282842712474619</speed>
  <fix>3d</fix>
</trkpt>
<trkpt lat="33.8103132" lon="-118.3938674">
  <ele>-11.715</ele>
  <time>2026-09-02T22:13:19Z</time>
  <course>185.87</course>
  <speed>0.0282842712474619</speed>
  <fix>3d</fix>
</trkpt>
<trkpt lat="33.810313" lon="-118.3938672">
  <ele>-11.14</ele>
  <time>2026-09-02T22:13:19Z</time>
  <course>275.0</course>
  <speed>0.0</speed>
  <fix>3d</fix>
</trkpt>
<trkpt lat="33.8103132" lon="-118.3938674">
  <ele>-11.747</ele>
  <time>2026-09-02T22:13:19Z</time>
  <course>185.87</course>
  <speed>0.0282842712474619</speed>
  <fix>3d</fix>
</trkpt>
<trkpt lat="33.8103132" lon="-118.3938674">
  <ele>-11.813</ele>
  <time>2026-09-02T22:13:19Z</time>
  <course>185.88</course>
  <speed>0.0282842712474619</speed>
  <fix>3d</fix>
</trkpt>
<trkpt lat="33.810313" lon="-118.3938672">
  <ele>-11.33</ele>
  <time>2026-09-02T22:13:19Z</time>
  <course>275.0</course>
  <speed>0.0</speed>
  <fix>3d</fix>
</trkpt>
<trkpt lat="33.8103132" lon="-118.3938674">
  <ele>-11.842</ele>
  <time>2026-09-02T22:13:19Z</time>
  <course>185.88</course>
  <speed>0.0282842712474619</speed>
  <fix>3d</fix>
</trkpt>
<trkpt lat="33.8103132" lon="-118.3938674">
  <ele>-11.911</ele>
  <time>2026-09-02T22:13:19Z</time>
  <course>185.88</course>
  <speed>0.0282842712474619</speed>
  <fix>3d</fix>
</trkpt>
<trkpt lat="33.810313" lon="-118.3938672">
  <ele>-11.33</ele>
  <time>2026-09-02T22:13:19Z</time>
  <course>275.0</course>
  <speed>0.0</speed>
  <fix>3d</fix>
</trkpt>
<trkpt lat="33.8103132" lon="-118.3938674">
  <ele>-11.916</ele>
  <time>2026-09-02T22:13:19Z</time>
  <course>185.89</course>
  <speed>0.0282842712474619</speed>
  <fix>3d</fix>
</trkpt>
<trkpt lat="33.8103132" lon="-118.3938674">
  <ele>-12.009</ele>
  <time>2026-09-02T22:13:19Z</time>
  <course>185.89</course>
  <speed>0.0282842712474619</speed>
  <fix>3d</fix>
</trkpt>
<trkpt lat="33.810313" lon="-118.3938672">
  <ele>-11.53</ele>
  <time>2026-09-02T22:13:19Z</time>
  <course>275.0</course>
  <speed>0.0</speed>
  <fix>3d</fix>
</trkpt>
<trkpt lat="33.8103132" lon="-118.3938674">
  <ele>-12.011</ele>
  <time>2026-09-02T22:13:19Z</time>
  <course>185.89</course>
  <speed>0.0282842712474619</speed>
  <fix>3d</fix>
</trkpt>
<trkpt lat="33.8103132" lon="-118.3938674">
  <ele>-12.109</ele>
  <time>2026-09-02T22:13:19Z</time>
  <course>185.9</course>
  <speed>0.0282842712474619</speed>
  <fix>3d</fix>
</trkpt>
<trkpt lat="33.810313" lon="-118.3938672">
  <ele>-11.53</ele>
  <time>2026-09-02T22:13:19Z</time>
  <course>275.0</course>
  <speed>0.0</speed>
  <fix>3d</fix>
</trkpt>
<trkpt lat="33.8103132" lon="-118.3938674">
  <ele>-12.139</ele>
  <time>2026-09-02T22:13:20Z</time>
  <course>185.9</course>
  <speed>0.0282842712474619</speed>
  <fix>3d</fix>
</trkpt>
<trkpt lat="33.8103132" lon="-118.3938674">
  <ele>-12.209</ele>
  <time>2026-09-02T22:13:20Z</time>
  <course>185.91</course>
  <speed>0.0282842712474619</speed>
  <fix>3d</fix>
</trkpt>
<trkpt lat="33.810313" lon="-118.3938672">
  <ele>-11.72</ele>
  <time>2026-09-02T22:13:20Z</time>
  <course>275.0</course>
  <speed>0.0</speed>
  <fix>3d</fix>
</trkpt>
<trkpt lat="33.8103132" lon="-118.3938674">
  <ele>-12.238</ele>
  <time>2026-09-02T22:13:20Z</time>
  <course>185.91</course>
  <speed>0.0282842712474619</speed>
  <fix>3d</fix>
</trkpt>
<trkpt lat="33.8103132" lon="-118.3938674">
  <ele>-12.307</ele>
  <time>2026-09-02T22:13:20Z</time>
  <course>185.92</course>
  <speed>0.0282842712474619</speed>
  <fix>3d</fix>
</trkpt>
<trkpt lat="33.810313" lon="-118.3938672">
  <ele>-11.72</ele>
  <time>2026-09-02T22:13:20Z</time>
  <course>275.0</course>
  <speed>0.0</speed>
  <fix>3d</fix>
</trkpt>
<trkpt lat="33.8103132" lon="-118.3938674">
  <ele>-12.342</ele>
  <time>2026-09-02T22:13:20Z</time>
  <course>185.92</course>
  <speed>0.0282842712474619</speed>
  <fix>3d</fix>
</trkpt>
<trkpt lat="33.8103132" lon="-118.3938674">
  <ele>-12.406</ele>
  <time>2026-09-02T22:13:20Z</time>
  <course>185.93</course>
  <speed>0.0282842712474619</speed>
  <fix>3d</fix>
</trkpt>
<trkpt lat="33.810313" lon="-118.3938672">
  <ele>-11.91</ele>
  <time>2026-09-02T22:13:20Z</time>
  <course>275.0</course>
  <speed>0.0</speed>
  <fix>3d</fix>
</trkpt>
<trkpt lat="33.8103132" lon="-118.3938674">
  <ele>-12.408</ele>
  <time>2026-09-02T22:13:20Z</time>
  <course>185.93</course>
  <speed>0.0282842712474619</speed>
  <fix>3d</fix>
</trkpt>
<trkpt lat="33.8103132" lon="-118.3938674">
  <ele>-12.504</ele>
  <time>2026-09-02T22:13:20Z</time>
  <course>185.94</course>
  <speed>0.0282842712474619</speed>
  <fix>3d</fix>
</trkpt>
<trkpt lat="33.810313" lon="-118.3938672">
  <ele>-11.91</ele>
  <time>2026-09-02T22:13:20Z</time>
  <course>275.0</course>
  <speed>0.0</speed>
  <fix>3d</fix>
</trkpt>
<trkpt lat="33.8103132" lon="-118.3938674">
  <ele>-12.507</ele>
  <time>2026-09-02T22:13:20Z</time>
  <course>185.94</course>
  <speed>0.0282842712474619</speed>
  <fix>3d</fix>
</trkpt>
<trkpt lat="33.8103132" lon="-118.3938674">
  <ele>-12.602</ele>
  <time>2026-09-02T22:13:20Z</time>
  <course>185.94</course>
  <speed>0.0282842712474619</speed>
  <fix>3d</fix>
</trkpt>
<trkpt lat="33.810313" lon="-118.3938672">
  <ele>-12.1</ele>
  <time>2026-09-02T22:13:20Z</time>
  <course>275.0</course>
  <speed>0.0</speed>
  <fix>3d</fix>
</trkpt>
<trkpt lat="33.8103132" lon="-118.3938674">
  <ele>-12.631</ele>
  <time>2026-09-02T22:13:20Z</time>
  <course>185.95</course>
  <speed>0.0282842712474619</speed>
  <fix>3d</fix>
</trkpt>
<trkpt lat="33.8103132" lon="-118.3938674">
  <ele>-12.698</ele>
  <time>2026-09-02T22:13:20Z</time>
  <course>185.95</course>
  <speed>0.0282842712474619</speed>
  <fix>3d</fix>
</trkpt>
<trkpt lat="33.810313" lon="-118.3938672">
  <ele>-12.1</ele>
  <time>2026-09-02T22:13:20Z</time>
  <course>275.0</course>
  <speed>0.0</speed>
  <fix>3d</fix>
</trkpt>
<trkpt lat="33.8103132" lon="-118.3938674">
  <ele>-12.73</ele>
  <time>2026-09-02T22:13:20Z</time>
  <course>185.96</course>
  <speed>0.0282842712474619</speed>
  <fix>3d</fix>
</trkpt>
<trkpt lat="33.8103132" lon="-118.3938674">
  <ele>-12.794</ele>
  <time>2026-09-02T22:13:20Z</time>
  <course>185.96</course>
  <speed>0.0282842712474619</speed>
  <fix>3d</fix>
</trkpt>
<trkpt lat="33.810313" lon="-118.3938672">
  <ele>-12.29</ele>
  <time>2026-09-02T22:13:20Z</time>
  <course>275.0</course>
  <speed>0.0</speed>
  <fix>3d</fix>
</trkpt>
<trkpt lat="33.8103132" lon="-118.3938674">
  <ele>-12.826</ele>
  <time>2026-09-02T22:13:20Z</time>
  <course>185.96</course>
  <speed>0.0282842712474619</speed>
  <fix>3d</fix>
</trkpt>
<trkpt lat="33.8103132" lon="-118.3938674">
  <ele>-12.891</ele>
  <time>2026-09-02T22:13:20Z</time>
  <course>185.97</course>
  <speed>0.0282842712474619</speed>
  <fix>3d</fix>
</trkpt>
<trkpt lat="33.810313" lon="-118.3938672">
  <ele>-12.29</ele>
  <time>2026-09-02T22:13:20Z</time>
  <course>275.0</course>
  <speed>0.0</speed>
  <fix>3d</fix>
</trkpt>
<trkpt lat="33.8103132" lon="-118.3938674">
  <ele>-12.922</ele>
  <time>2026-09-02T22:13:20Z</time>
  <course>185.97</course>
  <speed>0.0282842712474619</speed>
  <fix>3d</fix>
</trkpt>
<trkpt lat="33.8103132" lon="-118.3938674">
  <ele>-12.987</ele>
  <time>2026-09-02T22:13:20Z</time>
  <course>185.98</course>
  <speed>0.0282842712474619</speed>
  <fix>3d</fix>
</trkpt>
<trkpt lat="33.810313" lon="-118.3938672">
  <ele>-12.47</ele>
  <time>2026-09-02T22:13:20Z</time>
  <course>275.0</course>
  <speed>0.0</speed>
  <fix>3d</fix>
</trkpt>
<trkpt lat="33.8103132" lon="-118.3938674">
  <ele>-13.015</ele>
  <time>2026-09-02T22:13:20Z</time>
  <course>185.98</course>
  <speed>0.0282842712474619</speed>
  <fix>3d</fix>
</trkpt>
<trkpt lat="33.8103132" lon="-118.3938674">
  <ele>-13.083</ele>
  <time>2026-09-02T22:13:20Z</time>
  <course>185.98</course>
  <speed>0.0282842712474619</speed>
  <fix>3d</fix>
</trkpt>
<trkpt lat="33.810313" lon="-118.3938672">
  <ele>-12.47</ele>
  <time>2026-09-02T22:13:20Z</time>
  <course>275.0</course>
  <speed>0.0</speed>
  <fix>3d</fix>
</trkpt>
<trkpt lat="33.8103132" lon="-118.3938674">
  <ele>-13.18</ele>
  <time>2026-09-02T22:13:20Z</time>
  <course>185.99</course>
  <speed>0.0282842712474619</speed>
  <fix>3d</fix>
</trkpt>
<trkpt lat="33.810313" lon="-118.3938673">
  <ele>-12.66</ele>
  <time>2026-09-02T22:13:20Z</time>
  <course>275.0</course>
  <speed>0.0</speed>
  <fix>3d</fix>
</trkpt>
<trkpt lat="33.8103132" lon="-118.3938674">
  <ele>-13.272</ele>
  <time>2026-09-02T22:13:20Z</time>
  <course>186.0</course>
  <speed>0.0282842712474619</speed>
  <fix>3d</fix>
</trkpt>
<trkpt lat="33.810313" lon="-118.3938673">
  <ele>-12.66</ele>
  <time>2026-09-02T22:13:20Z</time>
  <course>275.0</course>
  <speed>0.0</speed>
  <fix>3d</fix>
</trkpt>
<trkpt lat="33.8103132" lon="-118.3938674">
  <ele>-13.354</ele>
  <time>2026-09-02T22:13:20Z</time>
  <course>186.01</course>
  <speed>0.0282842712474619</speed>
  <fix>3d</fix>
</trkpt>
<trkpt lat="33.810313" lon="-118.3938673">
  <ele>-12.85</ele>
  <time>2026-09-02T22:13:20Z</time>
  <course>275.0</course>
  <speed>0.0</speed>
  <fix>3d</fix>
</trkpt>
<trkpt lat="33.8103132" lon="-118.3938674">
  <ele>-13.426</ele>
  <time>2026-09-02T22:13:20Z</time>
  <course>186.01</course>
  <speed>0.0282842712474619</speed>
  <fix>3d</fix>
</trkpt>
<trkpt lat="33.810313" lon="-118.3938673">
  <ele>-12.85</ele>
  <time>2026-09-02T22:13:20Z</time>
  <course>275.0</course>
  <speed>0.0</speed>
  <fix>3d</fix>
</trkpt>
<trkpt lat="33.8103132" lon="-118.3938674">
  <ele>-13.486</ele>
  <time>2026-09-02T22:13:20Z</time>
  <course>186.02</course>
  <speed>0.0282842712474619</speed>
  <fix>3d</fix>
</trkpt>
<trkpt lat="33.810313" lon="-118.3938673">
  <ele>-13.01</ele>
  <time>2026-09-02T22:13:20Z</time>
  <course>275.0</course>
  <speed>0.0</speed>
  <fix>3d</fix>
</trkpt>
<trkpt lat="33.8103132" lon="-118.3938674">
  <ele>-13.536</ele>
  <time>2026-09-02T22:13:20Z</time>
  <course>186.03</course>
  <speed>0.0282842712474619</speed>
  <fix>3d</fix>
</trkpt>
<trkpt lat="33.810313" lon="-118.3938673">
  <ele>-13.01</ele>
  <time>2026-09-02T22:13:20Z</time>
  <course>275.0</course>
  <speed>0.0</speed>
  <fix>3d</fix>
</trkpt>
<trkpt lat="33.8103132" lon="-118.3938674">
  <ele>-13.578</ele>
  <time>2026-09-02T22:13:20Z</time>
  <course>186.04</course>
  <speed>0.0282842712474619</speed>
  <fix>3d</fix>
</trkpt>
<trkpt lat="33.810313" lon="-118.3938673">
  <ele>-13.13</ele>
  <time>2026-09-02T22:13:20Z</time>
  <course>275.0</course>
  <speed>0.0</speed>
  <fix>3d</fix>
</trkpt>
<trkpt lat="33.8103132" lon="-118.3938674">
  <ele>-13.612</ele>
  <time>2026-09-02T22:13:20Z</time>
  <course>186.04</course>
  <speed>0.0282842712474619</speed>
  <fix>3d</fix>
</trkpt>
<trkpt lat="33.810313" lon="-118.3938673">
  <ele>-13.13</ele>
  <time>2026-09-02T22:13:20Z</time>
  <course>275.0</course>
  <speed>0.0</speed>
  <fix>3d</fix>
</trkpt>
<trkpt lat="33.8103132" lon="-118.3938674">
  <ele>-13.639</ele>
  <time>2026-09-02T22:13:20Z</time>
  <course>186.05</course>
  <speed>0.0282842712474619</speed>
  <fix>3d</fix>
</trkpt>
<trkpt lat="33.810313" lon="-118.3938673">
  <ele>-13.22</ele>
  <time>2026-09-02T22:13:20Z</time>
  <course>275.0</course>
  <speed>0.0</speed>
  <fix>3d</fix>
</trkpt>
<trkpt lat="33.8103132" lon="-118.3938674">
  <ele>-13.661</ele>
  <time>2026-09-02T22:13:20Z</time>
  <course>186.06</course>
  <speed>0.0282842712474619</speed>
  <fix>3d</fix>
</trkpt>
<trkpt lat="33.810313" lon="-118.3938673">
  <ele>-13.22</ele>
  <time>2026-09-02T22:13:20Z</time>
  <course>275.0</course>
  <speed>0.0</speed>
  <fix>3d</fix>
</trkpt>
<trkpt lat="33.8103132" lon="-118.3938674">
  <ele>-13.679</ele>
  <time>2026-09-02T22:13:20Z</time>
  <course>186.06</course>
  <speed>0.0282842712474619</speed>
  <fix>3d</fix>
</trkpt>
<trkpt lat="33.810313" lon="-118.3938673">
  <ele>-13.28</ele>
  <time>2026-09-02T22:13:20Z</time>
  <course>275.0</course>
  <speed>0.0</speed>
  <fix>3d</fix>
</trkpt>
<trkpt lat="33.8103132" lon="-118.3938674">
  <ele>-13.693</ele>
  <time>2026-09-02T22:13:20Z</time>
  <course>186.07</course>
  <speed>0.0282842712474619</speed>
  <fix>3d</fix>
</trkpt>
<trkpt lat="33.810313" lon="-118.3938673">
  <ele>-13.28</ele>
  <time>2026-09-02T22:13:20Z</time>
  <course>275.0</course>
  <speed>0.0</speed>
  <fix>3d</fix>
</trkpt>
<trkpt lat="33.8103132" lon="-118.3938674">
  <ele>-13.704</ele>
  <time>2026-09-02T22:13:20Z</time>
  <course>186.08</course>
  <speed>0.022360679774997897</speed>
  <fix>3d</fix>
</trkpt>
<trkpt lat="33.810313" lon="-118.3938673">
  <ele>-13.32</ele>
  <time>2026-09-02T22:13:20Z</time>
  <course>275.0</course>
  <speed>0.0</speed>
  <fix>3d</fix>
</trkpt>
<trkpt lat="33.8103132" lon="-118.3938674">
  <ele>-13.707</ele>
  <time>2026-09-02T22:13:20Z</time>
  <course>186.08</course>
  <speed>0.022360679774997897</speed>
  <fix>3d</fix>
</trkpt>
<trkpt lat="33.8103132" lon="-118.3938674">
  <ele>-13.712</ele>
  <time>2026-09-02T22:13:20Z</time>
  <course>186.08</course>
  <speed>0.022360679774997897</speed>
  <fix>3d</fix>
</trkpt>
<trkpt lat="33.810313" lon="-118.3938673">
  <ele>-13.32</ele>
  <time>2026-09-02T22:13:20Z</time>
  <course>275.0</course>
  <speed>0.0</speed>
  <fix>3d</fix>
</trkpt>
<trkpt lat="33.8103132" lon="-118.3938674">
  <ele>-13.719</ele>
  <time>2026-09-02T22:13:20Z</time>
  <course>186.19</course>
  <speed>0.0282842712474619</speed>
  <fix>3d</fix>
</trkpt>
<trkpt lat="33.810313" lon="-118.3938673">
  <ele>-13.35</ele>
  <time>2026-09-02T22:13:20Z</time>
  <course>272.67</course>
  <speed>0.0</speed>
  <fix>3d</fix>
</trkpt>
<trkpt lat="33.8103132" lon="-118.3938674">
  <ele>-13.723</ele>
  <time>2026-09-02T22:13:20Z</time>
  <course>186.95</course>
  <speed>0.022360679774997897</speed>
  <fix>3d</fix>
</trkpt>
<trkpt lat="33.810313" lon="-118.3938673">
  <ele>-13.35</ele>
  <time>2026-09-02T22:13:20Z</time>
  <course>272.67</course>
  <speed>0.0</speed>
  <fix>3d</fix>
</trkpt>
<trkpt lat="33.8103132" lon="-118.3938674">
  <ele>-13.727</ele>
  <time>2026-09-02T22:13:20Z</time>
  <course>187.88</course>
  <speed>0.07615773105863909</speed>
  <fix>3d</fix>
</trkpt>
<trkpt lat="33.810313" lon="-118.3938673">
  <ele>-13.37</ele>
  <time>2026-09-02T22:13:20Z</time>
  <course>190.44</course>
  <speed>0.03</speed>
  <fix>3d</fix>
</trkpt>
<trkpt lat="33.8103131" lon="-118.3938675">
  <ele>-13.731</ele>
  <time>2026-09-02T22:13:20Z</time>
  <course>188.53</course>
  <speed>0.1264911064067352</speed>
  <fix>3d</fix>
</trkpt>
<trkpt lat="33.810313" lon="-118.3938673">
  <ele>-13.37</ele>
  <time>2026-09-02T22:13:20Z</time>
  <course>190.44</course>
  <speed>0.03</speed>
  <fix>3d</fix>
</trkpt>
<trkpt lat="33.8103129" lon="-118.3938675">
  <ele>-13.734</ele>
  <time>2026-09-02T22:13:20Z</time>
  <course>188.89</course>
  <speed>0.17464249196572978</speed>
  <fix>3d</fix>
</trkpt>
<trkpt lat="33.8103129" lon="-118.3938673">
  <ele>-13.38</ele>
  <time>2026-09-02T22:13:20Z</time>
  <course>188.36</course>
  <speed>0.11</speed>
  <fix>3d</fix>
</trkpt>
<trkpt lat="33.8103127" lon="-118.3938675">
  <ele>-13.738</ele>
  <time>2026-09-02T22:13:20Z</time>
  <course>189.01</course>
  <speed>0.22561028345356957</speed>
  <fix>3d</fix>
</trkpt>
<trkpt lat="33.8103129" lon="-118.3938673">
  <ele>-13.38</ele>
  <time>2026-09-02T22:13:20Z</time>
  <course>188.36</course>
  <speed>0.11</speed>
  <fix>3d</fix>
</trkpt>
<trkpt lat="33.8103125" lon="-118.3938676">
  <ele>-13.743</ele>
  <time>2026-09-02T22:13:20Z</time>
  <course>188.99</course>
  <speed>0.2863564212655271</speed>
  <fix>3d</fix>
</trkpt>
<trkpt lat="33.8103126" lon="-118.3938673">
  <ele>-13.4</ele>
  <time>2026-09-02T22:13:20Z</time>
  <course>188.21</course>
  <speed>0.22</speed>
  <fix>3d</fix>
</trkpt>
<trkpt lat="33.8103122" lon="-118.3938676">
  <ele>-13.748</ele>
  <time>2026-09-02T22:13:20Z</time>
  <course>188.93</course>
  <speed>0.33734255586865997</speed>
  <fix>3d</fix>
</trkpt>
<trkpt lat="33.8103126" lon="-118.3938673">
  <ele>-13.4</ele>
  <time>2026-09-02T22:13:20Z</time>
  <course>188.21</course>
  <speed>0.22</speed>
  <fix>3d</fix>
</trkpt>
<trkpt lat="33.8103118" lon="-118.3938677">
  <ele>-13.752</ele>
  <time>2026-09-02T22:13:20Z</time>
  <course>188.87</course>
  <speed>0.378549864614954</speed>
  <fix>3d</fix>
</trkpt>
<trkpt lat="33.8103121" lon="-118.3938674">
  <ele>-13.41</ele>
  <time>2026-09-02T22:13:20Z</time>
  <course>188.32</course>
  <speed>0.32</speed>
  <fix>3d</fix>
</trkpt>
<trkpt lat="33.8103115" lon="-118.3938677">
  <ele>-13.753</ele>
  <time>2026-09-02T22:13:20Z</time>
  <course>188.83</course>
  <speed>0.4295346318982906</speed>
  <fix>3d</fix>
</trkpt>
<trkpt lat="33.8103121" lon="-118.3938674">
  <ele>-13.41</ele>
  <time>2026-09-02T22:13:20Z</time>
  <course>188.32</course>
  <speed>0.32</speed>
  <fix>3d</fix>
</trkpt>
<trkpt lat="33.8103111" lon="-118.3938678">
  <ele>-13.75</ele>
  <time>2026-09-02T22:13:20Z</time>
  <course>188.81</course>
  <speed>0.4687216658103186</speed>
  <fix>3d</fix>
</trkpt>
<trkpt lat="33.8103114" lon="-118.3938675">
  <ele>-13.42</ele>
  <time>2026-09-02T22:13:20Z</time>
  <course>188.39</course>
  <speed>0.42</speed>
  <fix>3d</fix>
</trkpt>
<trkpt lat="33.8103106" lon="-118.3938679">
  <ele>-13.745</ele>
  <time>2026-09-02T22:13:20Z</time>
  <course>188.77</course>
  <speed>0.4687216658103186</speed>
  <fix>3d</fix>
</trkpt>
<trkpt lat="33.8103114" lon="-118.3938675">
  <ele>-13.42</ele>
  <time>2026-09-02T22:13:20Z</time>
  <course>188.39</course>
  <speed>0.42</speed>
  <fix>3d</fix>
</trkpt>
<trkpt lat="33.8103102" lon="-118.393868">
  <ele>-13.74</ele>
  <time>2026-09-02T22:13:20Z</time>
  <course>188.76</course>
  <speed>0.4589117562233506</speed>
  <fix>3d</fix>
</trkpt>
<trkpt lat="33.8103106" lon="-118.3938676">
  <ele>-13.42</ele>
  <time>2026-09-02T22:13:20Z</time>
  <course>188.57</course>
  <speed>0.48</speed>
  <fix>3d</fix>
</trkpt>
<trkpt lat="33.8103098" lon="-118.393868">
  <ele>-13.733</ele>
  <time>2026-09-02T22:13:20Z</time>
  <course>188.73</course>
  <speed>0.4491102314577124</speed>
  <fix>3d</fix>
</trkpt>
<trkpt lat="33.8103106" lon="-118.3938676">
  <ele>-13.42</ele>
  <time>2026-09-02T22:13:20Z</time>
  <course>188.57</course>
  <speed>0.48</speed>
  <fix>3d</fix>
</trkpt>
<trkpt lat="33.8103094" lon="-118.3938681">
  <ele>-13.726</ele>
  <time>2026-09-02T22:13:20Z</time>
  <course>188.72</course>
  <speed>0.4491102314577124</speed>
  <fix>3d</fix>
</trkpt>
<trkpt lat="33.8103097" lon="-118.3938679">
  <ele>-13.41</ele>
  <time>2026-09-02T22:13:20Z</time>
  <course>189.02</course>
  <speed>0.49</speed>
  <fix>3d</fix>
</trkpt>
<trkpt lat="33.8103089" lon="-118.3938682">
  <ele>-13.718</ele>
  <time>2026-09-02T22:13:20Z</time>
  <course>188.7</course>
  <speed>0.4491102314577124</speed>
  <fix>3d</fix>
</trkpt>
<trkpt lat="33.8103097" lon="-118.3938679">
  <ele>-13.41</ele>
  <time>2026-09-02T22:13:20Z</time>
  <course>189.02</course>
  <speed>0.49</speed>
  <fix>3d</fix>
</trkpt>
<trkpt lat="33.8103085" lon="-118.3938683">
  <ele>-13.71</ele>
  <time>2026-09-02T22:13:20Z</time>
  <course>188.69</course>
  <speed>0.4589117562233506</speed>
  <fix>3d</fix>
</trkpt>
<trkpt lat="33.8103088" lon="-118.393868">
  <ele>-13.4</ele>
  <time>2026-09-02T22:13:20Z</time>
  <course>189.48</course>
  <speed>0.48</speed>
  <fix>3d</fix>
</trkpt>
<trkpt lat="33.8103081" lon="-118.3938683">
  <ele>-13.701</ele>
  <time>2026-09-02T22:13:20Z</time>
  <course>188.67</course>
  <speed>0.4589117562233506</speed>
  <fix>3d</fix>
</trkpt>
<trkpt lat="33.8103088" lon="-118.393868">
  <ele>-13.4</ele>
  <time>2026-09-02T22:13:20Z</time>
  <course>189.48</course>
  <speed>0.48</speed>
  <fix>3d</fix>
</trkpt>
<trkpt lat="33.8103077" lon="-118.3938684">
  <ele>-13.694</ele>
  <time>2026-09-02T22:13:20Z</time>
  <course>188.66</course>
  <speed>0.4589117562233506</speed>
  <fix>3d</fix>
</trkpt>
<trkpt lat="33.810308" lon="-118.3938681">
  <ele>-13.39</ele>
  <time>2026-09-02T22:13:20Z</time>
  <course>189.69</course>
  <speed>0.49</speed>
  <fix>3d</fix>
</trkpt>
<trkpt lat="33.8103072" lon="-118.3938685">
  <ele>-13.69</ele>
  <time>2026-09-02T22:13:20Z</time>
  <course>188.64</course>
  <speed>0.4707440918375928</speed>
  <fix>3d</fix>
</trkpt>
<trkpt lat="33.810308" lon="-118.3938681">
  <ele>-13.39</ele>
  <time>2026-09-02T22:13:20Z</time>
  <course>189.69</course>
  <speed>0.49</speed>
  <fix>3d</fix>
</trkpt>
<trkpt lat="33.8103068" lon="-118.3938686">
  <ele>-13.687</ele>
  <time>2026-09-02T22:13:20Z</time>
  <course>188.63</course>
  <speed>0.4707440918375928</speed>
  <fix>3d</fix>
</trkpt>
<trkpt lat="33.8103071" lon="-118.3938684">
  <ele>-13.38</ele>
  <time>2026-09-02T22:13:20Z</time>
  <course>189.85</course>
  <speed>0.49</speed>
  <fix>3d</fix>
</trkpt>
<trkpt lat="33.8103064" lon="-118.3938687">
  <ele>-13.685</ele>
  <time>2026-09-02T22:13:20Z</time>
  <course>188.62</course>
  <speed>0.4707440918375928</speed>
  <fix>3d</fix>
</trkpt>
<trkpt lat="33.8103071" lon="-118.3938684">
  <ele>-13.38</ele>
  <time>2026-09-02T22:13:20Z</time>
  <course>189.85</course>
  <speed>0.49</speed>
  <fix>3d</fix>
</trkpt>
<trkpt lat="33.8103059" lon="-118.3938688">
  <ele>-13.684</ele>
  <time>2026-09-02T22:13:20Z</time>
  <course>188.61</course>
  <speed>0.4687216658103186</speed>
  <fix>3d</fix>
</trkpt>
<trkpt lat="33.8103062" lon="-118.3938686">
  <ele>-13.38</ele>
  <time>2026-09-02T22:13:20Z</time>
  <course>189.95</course>
  <speed>0.5</speed>
  <fix>3d</fix>
</trkpt>
<trkpt lat="33.8103055" lon="-118.3938689">
  <ele>-13.683</ele>
  <time>2026-09-02T22:13:20Z</time>
  <course>188.59</course>
  <speed>0.4687216658103186</speed>
  <fix>3d</fix>
</trkpt>
<trkpt lat="33.8103062" lon="-118.3938686">
  <ele>-13.38</ele>
  <time>2026-09-02T22:13:20Z</time>
  <course>189.95</course>
  <speed>0.5</speed>
  <fix>3d</fix>
</trkpt>
<trkpt lat="33.810305" lon="-118.393869">
  <ele>-13.683</ele>
  <time>2026-09-02T22:13:20Z</time>
  <course>188.58</course>
  <speed>0.4687216658103186</speed>
  <fix>3d</fix>
</trkpt>
<trkpt lat="33.8103053" lon="-118.3938688">
  <ele>-13.37</ele>
  <time>2026-09-02T22:13:20Z</time>
  <course>189.88</course>
  <speed>0.5</speed>
  <fix>3d</fix>
</trkpt>
<trkpt lat="33.8103046" lon="-118.393869">
  <ele>-13.683</ele>
  <time>2026-09-02T22:13:20Z</time>
  <course>188.57</course>
  <speed>0.4687216658103186</speed>
  <fix>3d</fix>
</trkpt>
<trkpt lat="33.8103053" lon="-118.3938688">
  <ele>-13.37</ele>
  <time>2026-09-02T22:13:20Z</time>
  <course>189.88</course>
  <speed>0.5</speed>
  <fix>3d</fix>
</trkpt>
<trkpt lat="33.8103041" lon="-118.3938691">
  <ele>-13.684</ele>
  <time>2026-09-02T22:13:20Z</time>
  <course>188.55</course>
  <speed>0.47853944456021597</speed>
  <fix>3d</fix>
</trkpt>
<trkpt lat="33.8103044" lon="-118.393869">
  <ele>-13.37</ele>
  <time>2026-09-02T22:13:20Z</time>
  <course>189.68</course>
  <speed>0.5</speed>
  <fix>3d</fix>
</trkpt>
<trkpt lat="33.8103037" lon="-118.3938692">
  <ele>-13.684</ele>
  <time>2026-09-02T22:13:20Z</time>
  <course>188.54</course>
  <speed>0.4687216658103186</speed>
  <fix>3d</fix>
</trkpt>
<trkpt lat="33.8103044" lon="-118.393869">
  <ele>-13.37</ele>
  <time>2026-09-02T22:13:20Z</time>
  <course>189.68</course>
  <speed>0.5</speed>
  <fix>3d</fix>
</trkpt>
<trkpt lat="33.8103032" lon="-118.3938693">
  <ele>-13.684</ele>
  <time>2026-09-02T22:13:20Z</time>
  <course>188.53</course>
  <speed>0.47853944456021597</speed>
  <fix>3d</fix>
</trkpt>
<trkpt lat="33.8103035" lon="-118.3938691">
  <ele>-13.37</ele>
  <time>2026-09-02T22:13:20Z</time>
  <course>189.44</course>
  <speed>0.5</speed>
  <fix>3d</fix>
</trkpt>
<trkpt lat="33.8103028" lon="-118.3938694">
  <ele>-13.683</ele>
  <time>2026-09-02T22:13:20Z</time>
  <course>188.51</course>
  <speed>0.4687216658103186</speed>
  <fix>3d</fix>
</trkpt>
<trkpt lat="33.8103035" lon="-118.3938691">
  <ele>-13.37</ele>
  <time>2026-09-02T22:13:20Z</time>
  <course>189.44</course>
  <speed>0.5</speed>
  <fix>3d</fix>
</trkpt>
<trkpt lat="33.8103023" lon="-118.3938695">
  <ele>-13.681</ele>
  <time>2026-09-02T22:13:20Z</time>
  <course>188.5</course>
  <speed>0.47853944456021597</speed>
  <fix>3d</fix>
</trkpt>
<trkpt lat="33.8103026" lon="-118.3938693">
  <ele>-13.37</ele>
  <time>2026-09-02T22:13:20Z</time>
  <course>189.27</course>
  <speed>0.5</speed>
  <fix>3d</fix>
</trkpt>
<trkpt lat="33.8103019" lon="-118.3938696">
  <ele>-13.68</ele>
  <time>2026-09-02T22:13:20Z</time>
  <course>188.48</course>
  <speed>0.4687216658103186</speed>
  <fix>3d</fix>
</trkpt>
<trkpt lat="33.8103026" lon="-118.3938693">
  <ele>-13.37</ele>
  <time>2026-09-02T22:13:20Z</time>
  <course>189.27</course>
  <speed>0.5</speed>
  <fix>3d</fix>
</trkpt>
<trkpt lat="33.8103014" lon="-118.3938697">
  <ele>-13.678</ele>
  <time>2026-09-02T22:13:20Z</time>
  <course>188.47</course>
  <speed>0.47853944456021597</speed>
  <fix>3d</fix>
</trkpt>
<trkpt lat="33.8103017" lon="-118.3938695">
  <ele>-13.37</ele>
  <time>2026-09-02T22:13:20Z</time>
  <course>189.2</course>
  <speed>0.5</speed>
  <fix>3d</fix>
</trkpt>
<trkpt lat="33.810301" lon="-118.3938697">
  <ele>-13.677</ele>
  <time>2026-09-02T22:13:20Z</time>
  <course>188.46</course>
  <speed>0.47853944456021597</speed>
  <fix>3d</fix>
</trkpt>
<trkpt lat="33.8103017" lon="-118.3938695">
  <ele>-13.37</ele>
  <time>2026-09-02T22:13:20Z</time>
  <course>189.2</course>
  <speed>0.5</speed>
  <fix>3d</fix>
</trkpt>
<trkpt lat="33.8103005" lon="-118.3938698">
  <ele>-13.676</ele>
  <time>2026-09-02T22:13:20Z</time>
  <course>188.45</course>
  <speed>0.47853944456021597</speed>
  <fix>3d</fix>
</trkpt>
<trkpt lat="33.8103008" lon="-118.3938696">
  <ele>-13.36</ele>
  <time>2026-09-02T22:13:20Z</time>
  <course>189.15</course>
  <speed>0.5</speed>
  <fix>3d</fix>
</trkpt>
<trkpt lat="33.8103001" lon="-118.3938699">
  <ele>-13.676</ele>
  <time>2026-09-02T22:13:20Z</time>
  <course>188.43</course>
  <speed>0.47853944456021597</speed>
  <fix>3d</fix>
</trkpt>
<trkpt lat="33.8103008" lon="-118.3938696">
  <ele>-13.36</ele>
  <time>2026-09-02T22:13:20Z</time>
  <course>189.15</course>
  <speed>0.5</speed>
  <fix>3d</fix>
</trkpt>
<trkpt lat="33.8102996" lon="-118.39387">
  <ele>-13.675</ele>
  <time>2026-09-02T22:13:20Z</time>
  <course>188.42</course>
  <speed>0.47853944456021597</speed>
  <fix>3d</fix>
</trkpt>
<trkpt lat="33.8102999" lon="-118.3938698">
  <ele>-13.36</ele>
  <time>2026-09-02T22:13:20Z</time>
  <course>189.14</course>
  <speed>0.5</speed>
  <fix>3d</fix>
</trkpt>
<trkpt lat="33.8102992" lon="-118.3938701">
  <ele>-13.674</ele>
  <time>2026-09-02T22:13:20Z</time>
  <course>188.41</course>
  <speed>0.47853944456021597</speed>
  <fix>3d</fix>
</trkpt>
<trkpt lat="33.8102999" lon="-118.3938698">
  <ele>-13.36</ele>
  <time>2026-09-02T22:13:20Z</time>
  <course>189.14</course>
  <speed>0.5</speed>
  <fix>3d</fix>
</trkpt>
<trkpt lat="33.8102987" lon="-118.3938702">
  <ele>-13.672</ele>
  <time>2026-09-02T22:13:20Z</time>
  <course>188.39</course>
  <speed>0.47853944456021597</speed>
  <fix>3d</fix>
</trkpt>
<trkpt lat="33.810299" lon="-118.39387">
  <ele>-13.35</ele>
  <time>2026-09-02T22:13:20Z</time>
  <course>189.18</course>
  <speed>0.5</speed>
  <fix>3d</fix>
</trkpt>
<trkpt lat="33.8102983" lon="-118.3938702">
  <ele>-13.672</ele>
  <time>2026-09-02T22:13:20Z</time>
  <course>188.38</course>
  <speed>0.47853944456021597</speed>
  <fix>3d</fix>
</trkpt>
<trkpt lat="33.810299" lon="-118.39387">
  <ele>-13.35</ele>
  <time>2026-09-02T22:13:20Z</time>
  <course>189.18</course>
  <speed>0.5</speed>
  <fix>3d</fix>
</trkpt>
<trkpt lat="33.8102978" lon="-118.3938703">
  <ele>-13.672</ele>
  <time>2026-09-02T22:13:20Z</time>
  <course>188.37</course>
  <speed>0.47853944456021597</speed>
  <fix>3d</fix>
</trkpt>
<trkpt lat="33.8102981" lon="-118.3938702">
  <ele>-13.35</ele>
  <time>2026-09-02T22:13:20Z</time>
  <course>189.22</course>
  <speed>0.5</speed>
  <fix>3d</fix>
</trkpt>
<trkpt lat="33.8102974" lon="-118.3938704">
  <ele>-13.674</ele>
  <time>2026-09-02T22:13:20Z</time>
  <course>188.36</course>
  <speed>0.47853944456021597</speed>
  <fix>3d</fix>
</trkpt>
<trkpt lat="33.8102981" lon="-118.3938702">
  <ele>-13.35</ele>
  <time>2026-09-02T22:13:20Z</time>
  <course>189.22</course>
  <speed>0.5</speed>
  <fix>3d</fix>
</trkpt>
<trkpt lat="33.8102969" lon="-118.3938705">
  <ele>-13.677</ele>
  <time>2026-09-02T22:13:20Z</time>
  <course>188.35</course>
  <speed>0.47675989764240867</speed>
  <fix>3d</fix>
</trkpt>
<trkpt lat="33.8102972" lon="-118.3938704">
  <ele>-13.35</ele>
  <time>2026-09-02T22:13:20Z</time>
  <course>189.18</course>
  <speed>0.5</speed>
  <fix>3d</fix>
</trkpt>
<trkpt lat="33.8102965" lon="-118.3938706">
  <ele>-13.68</ele>
  <time>2026-09-02T22:13:20Z</time>
  <course>188.34</course>
  <speed>0.47675989764240867</speed>
  <fix>3d</fix>
</trkpt>
<trkpt lat="33.8102972" lon="-118.3938704">
  <ele>-13.35</ele>
  <time>2026-09-02T22:13:20Z</time>
  <course>189.18</course>
  <speed>0.5</speed>
  <fix>3d</fix>
</trkpt>
<trkpt lat="33.810296" lon="-118.3938707">
  <ele>-13.682</ele>
  <time>2026-09-02T22:13:20Z</time>
  <course>188.32</course>
  <speed>0.47675989764240867</speed>
  <fix>3d</fix>
</trkpt>
<trkpt lat="33.8102963" lon="-118.3938705">
  <ele>-13.36</ele>
  <time>2026-09-02T22:13:20Z</time>
  <course>189.07</course>
  <speed>0.5</speed>
  <fix>3d</fix>
</trkpt>
<trkpt lat="33.8102956" lon="-118.3938708">
  <ele>-13.682</ele>
  <time>2026-09-02T22:13:20Z</time>
  <course>188.31</course>
  <speed>0.47675989764240867</speed>
  <fix>3d</fix>
</trkpt>
<trkpt lat="33.8102963" lon="-118.3938705">
  <ele>-13.36</ele>
  <time>2026-09-02T22:13:20Z</time>
  <course>189.07</course>
  <speed>0.5</speed>
  <fix>3d</fix>
</trkpt>
<trkpt lat="33.8102951" lon="-118.3938708">
  <ele>-13.68</ele>
  <time>2026-09-02T22:13:20Z</time>
  <course>188.3</course>
  <speed>0.47675989764240867</speed>
  <fix>3d</fix>
</trkpt>
<trkpt lat="33.8102954" lon="-118.3938707">
  <ele>-13.36</ele>
  <time>2026-09-02T22:13:20Z</time>
  <course>188.97</course>
  <speed>0.5</speed>
  <fix>3d</fix>
</trkpt>
<trkpt lat="33.8102947" lon="-118.3938709">
  <ele>-13.677</ele>
  <time>2026-09-02T22:13:20Z</time>
  <course>188.28</course>
  <speed>0.47675989764240867</speed>
  <fix>3d</fix>
</trkpt>
<trkpt lat="33.8102954" lon="-118.3938707">
  <ele>-13.36</ele>
  <time>2026-09-02T22:13:20Z</time>
  <course>188.97</course>
  <speed>0.5</speed>
  <fix>3d</fix>
</trkpt>
<trkpt lat="33.8102942" lon="-118.393871">
  <ele>-13.673</ele>
  <time>2026-09-02T22:13:20Z</time>
  <course>188.27</course>
  <speed>0.47675989764240867</speed>
  <fix>3d</fix>
</trkpt>
<trkpt lat="33.8102945" lon="-118.3938709">
  <ele>-13.35</ele>
  <time>2026-09-02T22:13:20Z</time>
  <course>188.94</course>
  <speed>0.5</speed>
  <fix>3d</fix>
</trkpt>
<trkpt lat="33.8102938" lon="-118.3938711">
  <ele>-13.669</ele>
  <time>2026-09-02T22:13:20Z</time>
  <course>188.26</course>
  <speed>0.47675989764240867</speed>
  <fix>3d</fix>
</trkpt>
<trkpt lat="33.8102945" lon="-118.3938709">
  <ele>-13.35</ele>
  <time>2026-09-02T22:13:20Z</time>
  <course>188.94</course>
  <speed>0.5</speed>
  <fix>3d</fix>
</trkpt>
<trkpt lat="33.8102933" lon="-118.3938712">
  <ele>-13.665</ele>
  <time>2026-09-02T22:13:20Z</time>
  <course>188.25</course>
  <speed>0.47675989764240867</speed>
  <fix>3d</fix>
</trkpt>
<trkpt lat="33.8102937" lon="-118.393871">
  <ele>-13.34</ele>
  <time>2026-09-02T22:13:20Z</time>
  <course>188.91</course>
  <speed>0.5</speed>
  <fix>3d</fix>
</trkpt>
<trkpt lat="33.8102929" lon="-118.3938713">
  <ele>-13.66</ele>
  <time>2026-09-02T22:13:20Z</time>
  <course>188.24</course>
  <speed>0.47675989764240867</speed>
  <fix>3d</fix>
</trkpt>
<trkpt lat="33.8102937" lon="-118.393871">
  <ele>-13.34</ele>
  <time>2026-09-02T22:13:20Z</time>
  <course>188.91</course>
  <speed>0.5</speed>
  <fix>3d</fix>
</trkpt>
<trkpt lat="33.8102924" lon="-118.3938713">
  <ele>-13.656</ele>
  <time>2026-09-02T22:13:20Z</time>
  <course>188.23</course>
  <speed>0.47675989764240867</speed>
  <fix>3d</fix>
</trkpt>
<trkpt lat="33.8102928" lon="-118.3938712">
  <ele>-13.33</ele>
  <time>2026-09-02T22:13:20Z</time>
  <course>188.9</course>
  <speed>0.5</speed>
  <fix>3d</fix>
</trkpt>
<trkpt lat="33.810292" lon="-118.3938714">
  <ele>-13.653</ele>
  <time>2026-09-02T22:13:20Z</time>
  <course>188.21</course>
  <speed>0.47675989764240867</speed>
  <fix>3d</fix>
</trkpt>
<trkpt lat="33.8102928" lon="-118.3938712">
  <ele>-13.33</ele>
  <time>2026-09-02T22:13:20Z</time>
  <course>188.9</course>
  <speed>0.5</speed>
  <fix>3d</fix>
</trkpt>
<trkpt lat="33.8102915" lon="-118.3938715">
  <ele>-13.651</ele>
  <time>2026-09-02T22:13:20Z</time>
  <course>188.2</course>
  <speed>0.47675989764240867</speed>
  <fix>3d</fix>
</trkpt>
<trkpt lat="33.8102919" lon="-118.3938714">
  <ele>-13.32</ele>
  <time>2026-09-02T22:13:20Z</time>
  <course>188.92</course>
  <speed>0.5</speed>
  <fix>3d</fix>
</trkpt>
<trkpt lat="33.8102911" lon="-118.3938716">
  <ele>-13.649</ele>
  <time>2026-09-02T22:13:20Z</time>
  <course>188.19</course>
  <speed>0.47675989764240867</speed>
  <fix>3d</fix>
</trkpt>
<trkpt lat="33.8102919" lon="-118.3938714">
  <ele>-13.32</ele>
  <time>2026-09-02T22:13:20Z</time>
  <course>188.92</course>
  <speed>0.5</speed>
  <fix>3d</fix>
</trkpt>
<trkpt lat="33.8102907" lon="-118.3938717">
  <ele>-13.647</ele>
  <time>2026-09-02T22:13:20Z</time>
  <course>188.18</course>
  <speed>0.47675989764240867</speed>
  <fix>3d</fix>
</trkpt>
<trkpt lat="33.810291" lon="-118.3938715">
  <ele>-13.32</ele>
  <time>2026-09-02T22:13:20Z</time>
  <course>188.93</course>
  <speed>0.5</speed>
  <fix>3d</fix>
</trkpt>
<trkpt lat="33.8102902" lon="-118.3938718">
  <ele>-13.646</ele>
  <time>2026-09-02T22:13:20Z</time>
  <course>188.17</course>
  <speed>0.47675989764240867</speed>
  <fix>3d</fix>
</trkpt>
<trkpt lat="33.810291" lon="-118.3938715">
  <ele>-13.32</ele>
  <time>2026-09-02T22:13:20Z</time>
  <course>188.93</course>
  <speed>0.5</speed>
  <fix>3d</fix>
</trkpt>
<trkpt lat="33.8102898" lon="-118.3938718">
  <ele>-13.645</ele>
  <time>2026-09-02T22:13:20Z</time>
  <course>188.15</course>
  <speed>0.47675989764240867</speed>
  <fix>3d</fix>
</trkpt>
<trkpt lat="33.8102901" lon="-118.3938717">
  <ele>-13.32</ele>
  <time>2026-09-02T22:13:20Z</time>
  <course>188.93</course>
  <speed>0.5</speed>
  <fix>3d</fix>
</trkpt>
<trkpt lat="33.8102893" lon="-118.3938719">
  <ele>-13.646</ele>
  <time>2026-09-02T22:13:20Z</time>
  <course>188.14</course>
  <speed>0.47675989764240867</speed>
  <fix>3d</fix>
</trkpt>
<trkpt lat="33.8102901" lon="-118.3938717">
  <ele>-13.32</ele>
  <time>2026-09-02T22:13:20Z</time>
  <course>188.93</course>
  <speed>0.5</speed>
  <fix>3d</fix>
</trkpt>
<trkpt lat="33.8102889" lon="-118.393872">
  <ele>-13.647</ele>
  <time>2026-09-02T22:13:20Z</time>
  <course>188.13</course>
  <speed>0.47675989764240867</speed>
  <fix>3d</fix>
</trkpt>
<trkpt lat="33.8102892" lon="-118.3938719">
  <ele>-13.31</ele>
  <time>2026-09-02T22:13:20Z</time>
  <course>188.97</course>
  <speed>0.5</speed>
  <fix>3d</fix>
</trkpt>
<trkpt lat="33.8102884" lon="-118.3938721">
  <ele>-13.649</ele>
  <time>2026-09-02T22:13:20Z</time>
  <course>188.12</course>
  <speed>0.47675989764240867</speed>
  <fix>3d</fix>
</trkpt>
<trkpt lat="33.8102892" lon="-118.3938719">
  <ele>-13.31</ele>
  <time>2026-09-02T22:13:20Z</time>
  <course>188.97</course>
  <speed>0.5</speed>
  <fix>3d</fix>
</trkpt>
<trkpt lat="33.810288" lon="-118.3938722">
  <ele>-13.651</ele>
  <time>2026-09-02T22:13:20Z</time>
  <course>188.11</course>
  <speed>0.47675989764240867</speed>
  <fix>3d</fix>
</trkpt>
<trkpt lat="33.8102883" lon="-118.393872">
  <ele>-13.31</ele>
  <time>2026-09-02T22:13:20Z</time>
  <course>188.98</course>
  <speed>0.5</speed>
  <fix>3d</fix>
</trkpt>
<trkpt lat="33.8102875" lon="-118.3938723">
  <ele>-13.654</ele>
  <time>2026-09-02T22:13:20Z</time>
  <course>188.1</course>
  <speed>0.47675989764240867</speed>
  <fix>3d</fix>
</trkpt>
<trkpt lat="33.8102883" lon="-118.393872">
  <ele>-13.31</ele>
  <time>2026-09-02T22:13:20Z</time>
  <course>188.98</course>
  <speed>0.5</speed>
  <fix>3d</fix>
</trkpt>
<trkpt lat="33.8102871" lon="-118.3938724">
  <ele>-13.657</ele>
  <time>2026-09-02T22:13:20Z</time>
  <course>188.08</course>
  <speed>0.47675989764240867</speed>
  <fix>3d</fix>
</trkpt>
<trkpt lat="33.8102874" lon="-118.3938722">
  <ele>-13.32</ele>
  <time>2026-09-02T22:13:20Z</time>
  <course>188.98</course>
  <speed>0.5</speed>
  <fix>3d</fix>
</trkpt>
<trkpt lat="33.8102866" lon="-118.3938724">
  <ele>-13.661</ele>
  <time>2026-09-02T22:13:20Z</time>
  <course>188.07</course>
  <speed>0.47675989764240867</speed>
  <fix>3d</fix>
</trkpt>
<trkpt lat="33.8102874" lon="-118.3938722">
  <ele>-13.32</ele>
  <time>2026-09-02T22:13:20Z</time>
  <course>188.98</course>
  <speed>0.5</speed>
  <fix>3d</fix>
</trkpt>
<trkpt lat="33.8102862" lon="-118.3938725">
  <ele>-13.666</ele>
  <time>2026-09-02T22:13:20Z</time>
  <course>188.06</course>
  <speed>0.47675989764240867</speed>
  <fix>3d</fix>
</trkpt>
<trkpt lat="33.8102865" lon="-118.3938724">
  <ele>-13.32</ele>
  <time>2026-09-02T22:13:20Z</time>
  <course>189.01</course>
  <speed>0.5</speed>
  <fix>3d</fix>
</trkpt>
<trkpt lat="33.8102857" lon="-118.3938726">
  <ele>-13.672</ele>
  <time>2026-09-02T22:13:20Z</time>
  <course>188.05</course>
  <speed>0.47675989764240867</speed>
  <fix>3d</fix>
</trkpt>
<trkpt lat="33.8102865" lon="-118.3938724">
  <ele>-13.32</ele>
  <time>2026-09-02T22:13:20Z</time>
  <course>189.01</course>
  <speed>0.5</speed>
  <fix>3d</fix>
</trkpt>
<trkpt lat="33.8102853" lon="-118.3938727">
  <ele>-13.679</ele>
  <time>2026-09-02T22:13:20Z</time>
  <course>188.04</course>
  <speed>0.47675989764240867</speed>
  <fix>3d</fix>
</trkpt>
<trkpt lat="33.8102856" lon="-118.3938726">
  <ele>-13.34</ele>
  <time>2026-09-02T22:13:20Z</time>
  <course>189.03</course>
  <speed>0.5</speed>
  <fix>3d</fix>
</trkpt>
<trkpt lat="33.8102848" lon="-118.3938728">
  <ele>-13.686</ele>
  <time>2026-09-02T22:13:20Z</time>
  <course>188.03</course>
  <speed>0.47675989764240867</speed>
  <fix>3d</fix>
</trkpt>
<trkpt lat="33.8102856" lon="-118.3938726">
  <ele>-13.34</ele>
  <time>2026-09-02T22:13:20Z</time>
  <course>189.03</course>
  <speed>0.5</speed>
  <fix>3d</fix>
</trkpt>
<trkpt lat="33.8102844" lon="-118.3938729">
  <ele>-13.696</ele>
  <time>2026-09-02T22:13:20Z</time>
  <course>188.02</course>
  <speed>0.47675989764240867</speed>
  <fix>3d</fix>
</trkpt>
<trkpt lat="33.8102847" lon="-118.3938728">
  <ele>-13.35</ele>
  <time>2026-09-02T22:13:20Z</time>
  <course>188.98</course>
  <speed>0.5</speed>
  <fix>3d</fix>
</trkpt>
<trkpt lat="33.8102839" lon="-118.393873">
  <ele>-13.705</ele>
  <time>2026-09-02T22:13:20Z</time>
  <course>188.01</course>
  <speed>0.47675989764240867</speed>
  <fix>3d</fix>
</trkpt>
<trkpt lat="33.8102847" lon="-118.3938728">
  <ele>-13.35</ele>
  <time>2026-09-02T22:13:20Z</time>
  <course>188.98</course>
  <speed>0.5</speed>
  <fix>3d</fix>
</trkpt>
<trkpt lat="33.8102835" lon="-118.393873">
  <ele>-13.715</ele>
  <time>2026-09-02T22:13:20Z</time>
  <course>188.0</course>
  <speed>0.47675989764240867</speed>
  <fix>3d</fix>
</trkpt>
<trkpt lat="33.8102838" lon="-118.3938729">
  <ele>-13.37</ele>
  <time>2026-09-02T22:13:20Z</time>
  <course>188.85</course>
  <speed>0.5</speed>
  <fix>3d</fix>
</trkpt>
<trkpt lat="33.810283" lon="-118.3938731">
  <ele>-13.724</ele>
  <time>2026-09-02T22:13:20Z</time>
  <course>187.99</course>
  <speed>0.47675989764240867</speed>
  <fix>3d</fix>
</trkpt>
<trkpt lat="33.8102838" lon="-118.3938729">
  <ele>-13.37</ele>
  <time>2026-09-02T22:13:20Z</time>
  <course>188.85</course>
  <speed>0.5</speed>
  <fix>3d</fix>
</trkpt>
<trkpt lat="33.8102826" lon="-118.3938732">
  <ele>-13.734</ele>
  <time>2026-09-02T22:13:20Z</time>
  <course>187.98</course>
  <speed>0.47675989764240867</speed>
  <fix>3d</fix>
</trkpt>
<trkpt lat="33.8102829" lon="-118.3938731">
  <ele>-13.38</ele>
  <time>2026-09-02T22:13:20Z</time>
  <course>188.74</course>
  <speed>0.5</speed>
  <fix>3d</fix>
</trkpt>
<trkpt lat="33.8102821" lon="-118.3938733">
  <ele>-13.743</ele>
  <time>2026-09-02T22:13:20Z</time>
  <course>187.96</course>
  <speed>0.47675989764240867</speed>
  <fix>3d</fix>
</trkpt>
<trkpt lat="33.8102829" lon="-118.3938731">
  <ele>-13.38</ele>
  <time>2026-09-02T22:13:20Z</time>
  <course>188.74</course>
  <speed>0.5</speed>
  <fix>3d</fix>
</trkpt>
<trkpt lat="33.8102817" lon="-118.3938734">
  <ele>-13.751</ele>
  <time>2026-09-02T22:13:20Z</time>
  <course>187.95</course>
  <speed>0.47675989764240867</speed>
  <fix>3d</fix>
</trkpt>
<trkpt lat="33.810282" lon="-118.3938732">
  <ele>-13.41</ele>
  <time>2026-09-02T22:13:20Z</time>
  <course>188.68</course>
  <speed>0.5</speed>
  <fix>3d</fix>
</trkpt>
<trkpt lat="33.8102812" lon="-118.3938735">
  <ele>-13.757</ele>
  <time>2026-09-02T22:13:20Z</time>
  <course>187.95</course>
  <speed>0.47675989764240867</speed>
  <fix>3d</fix>
</trkpt>
<trkpt lat="33.810282" lon="-118.3938732">
  <ele>-13.41</ele>
  <time>2026-09-02T22:13:20Z</time>
  <course>188.68</course>
  <speed>0.5</speed>
  <fix>3d</fix>
</trkpt>
<trkpt lat="33.8102808" lon="-118.3938735">
  <ele>-13.761</ele>
  <time>2026-09-02T22:13:20Z</time>
  <course>187.94</course>
  <speed>0.47675989764240867</speed>
  <fix>3d</fix>
</trkpt>
<trkpt lat="33.8102811" lon="-118.3938734">
  <ele>-13.43</ele>
  <time>2026-09-02T22:13:20Z</time>
  <course>188.69</course>
  <speed>0.5</speed>
  <fix>3d</fix>
</trkpt>
<trkpt lat="33.8102803" lon="-118.3938736">
  <ele>-13.762</ele>
  <time>2026-09-02T22:13:20Z</time>
  <course>187.93</course>
  <speed>0.47675989764240867</speed>
  <fix>3d</fix>
</trkpt>
<trkpt lat="33.8102811" lon="-118.3938734">
  <ele>-13.43</ele>
  <time>2026-09-02T22:13:20Z</time>
  <course>188.69</course>
  <speed>0.5</speed>
  <fix>3d</fix>
</trkpt>
<trkpt lat="33.8102799" lon="-118.3938737">
  <ele>-13.761</ele>
  <time>2026-09-02T22:13:20Z</time>
  <course>187.92</course>
  <speed>0.47675989764240867</speed>
  <fix>3d</fix>
</trkpt>
<trkpt lat="33.8102802" lon="-118.3938736">
  <ele>-13.44</ele>
  <time>2026-09-02T22:13:20Z</time>
  <course>188.74</course>
  <speed>0.5</speed>
  <fix>3d</fix>
</trkpt>
<trkpt lat="33.8102794" lon="-118.3938738">
  <ele>-13.757</ele>
  <time>2026-09-02T22:13:20Z</time>
  <course>187.91</course>
  <speed>0.47675989764240867</speed>
  <fix>3d</fix>
</trkpt>
<trkpt lat="33.8102802" lon="-118.3938736">
  <ele>-13.44</ele>
  <time>2026-09-02T22:13:20Z</time>
  <course>188.74</course>
  <speed>0.5</speed>
  <fix>3d</fix>
</trkpt>
<trkpt lat="33.810279" lon="-118.3938739">
  <ele>-13.753</ele>
  <time>2026-09-02T22:13:20Z</time>
  <course>187.9</course>
  <speed>0.47675989764240867</speed>
  <fix>3d</fix>
</trkpt>
<trkpt lat="33.8102793" lon="-118.3938737">
  <ele>-13.43</ele>
  <time>2026-09-02T22:13:20Z</time>
  <course>188.77</course>
  <speed>0.5</speed>
  <fix>3d</fix>
</trkpt>
<trkpt lat="33.8102785" lon="-118.3938739">
  <ele>-13.748</ele>
  <time>2026-09-02T22:13:20Z</time>
  <course>187.89</course>
  <speed>0.47675989764240867</speed>
  <fix>3d</fix>
</trkpt>
<trkpt lat="33.8102793" lon="-118.3938737">
  <ele>-13.43</ele>
  <time>2026-09-02T22:13:20Z</time>
  <course>188.77</course>
  <speed>0.5</speed>
  <fix>3d</fix>
</trkpt>
<trkpt lat="33.8102781" lon="-118.393874">
  <ele>-13.743</ele>
  <time>2026-09-02T22:13:20Z</time>
  <course>187.88</course>
  <speed>0.47675989764240867</speed>
  <fix>3d</fix>
</trkpt>
<trkpt lat="33.8102784" lon="-118.3938739">
  <ele>-13.42</ele>
  <time>2026-09-02T22:13:20Z</time>
  <course>188.79</course>
  <speed>0.5</speed>
  <fix>3d</fix>
</trkpt>
<trkpt lat="33.8102776" lon="-118.3938741">
  <ele>-13.737</ele>
  <time>2026-09-02T22:13:20Z</time>
  <course>187.87</course>
  <speed>0.47675989764240867</speed>
  <fix>3d</fix>
</trkpt>
<trkpt lat="33.8102784" lon="-118.3938739">
  <ele>-13.42</ele>
  <time>2026-09-02T22:13:20Z</time>
  <course>188.79</course>
  <speed>0.5</speed>
  <fix>3d</fix>
</trkpt>
<trkpt lat="33.8102772" lon="-118.3938742">
  <ele>-13.731</ele>
  <time>2026-09-02T22:13:20Z</time>
  <course>187.86</course>
  <speed>0.47675989764240867</speed>
  <fix>3d</fix>
</trkpt>
<trkpt lat="33.8102775" lon="-118.3938741">
  <ele>-13.41</ele>
  <time>2026-09-02T22:13:20Z</time>
  <course>188.83</course>
  <speed>0.5</speed>
  <fix>3d</fix>
</trkpt>
<trkpt lat="33.8102767" lon="-118.3938743">
  <ele>-13.725</ele>
  <time>2026-09-02T22:13:20Z</time>
  <course>187.85</course>
  <speed>0.47675989764240867</speed>
  <fix>3d</fix>
</trkpt>
<trkpt lat="33.8102775" lon="-118.3938741">
  <ele>-13.41</ele>
  <time>2026-09-02T22:13:20Z</time>
  <course>188.83</course>
  <speed>0.5</speed>
  <fix>3d</fix>
</trkpt>
<trkpt lat="33.8102763" lon="-118.3938744">
  <ele>-13.721</ele>
  <time>2026-09-02T22:13:20Z</time>
  <course>187.84</course>
  <speed>0.47675989764240867</speed>
  <fix>3d</fix>
</trkpt>
<trkpt lat="33.8102766" lon="-118.3938742">
  <ele>-13.4</ele>
  <time>2026-09-02T22:13:20Z</time>
  <course>188.85</course>
  <speed>0.5</speed>
  <fix>3d</fix>
</trkpt>
<trkpt lat="33.8102758" lon="-118.3938744">
  <ele>-13.717</ele>
  <time>2026-09-02T22:13:20Z</time>
  <course>187.83</course>
  <speed>0.47675989764240867</speed>
  <fix>3d</fix>
</trkpt>
<trkpt lat="33.8102766" lon="-118.3938742">
  <ele>-13.4</ele>
  <time>2026-09-02T22:13:20Z</time>
  <course>188.85</course>
  <speed>0.5</speed>
  <fix>3d</fix>
</trkpt>
<trkpt lat="33.8102754" lon="-118.3938745">
  <ele>-13.712</ele>
  <time>2026-09-02T22:13:20Z</time>
  <course>187.82</course>
  <speed>0.47675989764240867</speed>
  <fix>3d</fix>
</trkpt>
<trkpt lat="33.8102757" lon="-118.3938743">
  <ele>-13.4</ele>
  <time>2026-09-02T22:13:20Z</time>
  <course>188.85</course>
  <speed>0.5</speed>
  <fix>3d</fix>
</trkpt>
<trkpt lat="33.8102749" lon="-118.3938746">
  <ele>-13.708</ele>
  <time>2026-09-02T22:13:20Z</time>
  <course>187.81</course>
  <speed>0.47675989764240867</speed>
  <fix>3d</fix>
</trkpt>
<trkpt lat="33.8102757" lon="-118.3938743">
  <ele>-13.4</ele>
  <time>2026-09-02T22:13:20Z</time>
  <course>188.85</course>
  <speed>0.5</speed>
  <fix>3d</fix>
</trkpt>
<trkpt lat="33.8102745" lon="-118.3938747">
  <ele>-13.705</ele>
  <time>2026-09-02T22:13:20Z</time>
  <course>187.8</course>
  <speed>0.47675989764240867</speed>
  <fix>3d</fix>
</trkpt>
<trkpt lat="33.8102748" lon="-118.3938746">
  <ele>-13.39</ele>
  <time>2026-09-02T22:13:20Z</time>
  <course>188.95</course>
  <speed>0.5</speed>
  <fix>3d</fix>
</trkpt>
<trkpt lat="33.810274" lon="-118.3938748">
  <ele>-13.702</ele>
  <time>2026-09-02T22:13:20Z</time>
  <course>187.79</course>
  <speed>0.47675989764240867</speed>
  <fix>3d</fix>
</trkpt>
<trkpt lat="33.8102748" lon="-118.3938746">
  <ele>-13.39</ele>
  <time>2026-09-02T22:13:20Z</time>
  <course>188.95</course>
  <speed>0.5</speed>
  <fix>3d</fix>
</trkpt>
<trkpt lat="33.8102736" lon="-118.3938749">
  <ele>-13.7</ele>
  <time>2026-09-02T22:13:20Z</time>
  <course>187.78</course>
  <speed>0.47675989764240867</speed>
  <fix>3d</fix>
</trkpt>
<trkpt lat="33.8102739" lon="-118.3938748">
  <ele>-13.39</ele>
  <time>2026-09-02T22:13:20Z</time>
  <course>189.05</course>
  <speed>0.5</speed>
  <fix>3d</fix>
</trkpt>
<trkpt lat="33.8102731" lon="-118.393875">
  <ele>-13.7</ele>
  <time>2026-09-02T22:13:20Z</time>
  <course>187.77</course>
  <speed>0.47675989764240867</speed>
  <fix>3d</fix>
</trkpt>
<trkpt lat="33.8102739" lon="-118.3938748">
  <ele>-13.39</ele>
  <time>2026-09-02T22:13:20Z</time>
  <course>189.05</course>
  <speed>0.5</speed>
  <fix>3d</fix>
</trkpt>
<trkpt lat="33.8102727" lon="-118.393875">
  <ele>-13.7</ele>
  <time>2026-09-02T22:13:20Z</time>
  <course>187.76</course>
  <speed>0.47675989764240867</speed>
  <fix>3d</fix>
</trkpt>
<trkpt lat="33.8102731" lon="-118.3938749">
  <ele>-13.39</ele>
  <time>2026-09-02T22:13:20Z</time>
  <course>189.01</course>
  <speed>0.5</speed>
  <fix>3d</fix>
</trkpt>
<trkpt lat="33.8102723" lon="-118.3938751">
  <ele>-13.699</ele>
  <time>2026-09-02T22:13:20Z</time>
  <course>187.75</course>
  <speed>0.47675989764240867</speed>
  <fix>3d</fix>
</trkpt>
<trkpt lat="33.8102731" lon="-118.3938749">
  <ele>-13.39</ele>
  <time>2026-09-02T22:13:20Z</time>
  <course>189.01</course>
  <speed>0.5</speed>
  <fix>3d</fix>
</trkpt>
<trkpt lat="33.8102718" lon="-118.3938752">
  <ele>-13.699</ele>
  <time>2026-09-02T22:13:20Z</time>
  <course>187.75</course>
  <speed>0.47675989764240867</speed>
  <fix>3d</fix>
</trkpt>
<trkpt lat="33.8102722" lon="-118.3938751">
  <ele>-13.38</ele>
  <time>2026-09-02T22:13:20Z</time>
  <course>188.89</course>
  <speed>0.5</speed>
  <fix>3d</fix>
</trkpt>
<trkpt lat="33.8102714" lon="-118.3938753">
  <ele>-13.698</ele>
  <time>2026-09-02T22:13:20Z</time>
  <course>187.74</course>
  <speed>0.47675989764240867</speed>
  <fix>3d</fix>
</trkpt>
<trkpt lat="33.8102722" lon="-118.3938751">
  <ele>-13.38</ele>
  <time>2026-09-02T22:13:20Z</time>
  <course>188.89</course>
  <speed>0.5</speed>
  <fix>3d</fix>
</trkpt>
<trkpt lat="33.8102709" lon="-118.3938754">
  <ele>-13.697</ele>
  <time>2026-09-02T22:13:20Z</time>
  <course>187.73</course>
  <speed>0.47675989764240867</speed>
  <fix>3d</fix>
</trkpt>
<trkpt lat="33.8102713" lon="-118.3938753">
  <ele>-13.38</ele>
  <time>2026-09-02T22:13:20Z</time>
  <course>188.75</course>
  <speed>0.5</speed>
  <fix>3d</fix>
</trkpt>
<trkpt lat="33.8102705" lon="-118.3938755">
  <ele>-13.695</ele>
  <time>2026-09-02T22:13:20Z</time>
  <course>187.72</course>
  <speed>0.47675989764240867</speed>
  <fix>3d</fix>
</trkpt>
<trkpt lat="33.8102713" lon="-118.3938753">
  <ele>-13.38</ele>
  <time>2026-09-02T22:13:20Z</time>
  <course>188.75</course>
  <speed>0.5</speed>
  <fix>3d</fix>
</trkpt>
<trkpt lat="33.81027" lon="-118.3938755">
  <ele>-13.692</ele>
  <time>2026-09-02T22:13:20Z</time>
  <course>187.71</course>
  <speed>0.47675989764240867</speed>
  <fix>3d</fix>
</trkpt>
<trkpt lat="33.8102704" lon="-118.3938754">
  <ele>-13.37</ele>
  <time>2026-09-02T22:13:20Z</time>
  <course>188.61</course>
  <speed>0.5</speed>
  <fix>3d</fix>
</trkpt>
<trkpt lat="33.8102696" lon="-118.3938756">
  <ele>-13.687</ele>
  <time>2026-09-02T22:13:20Z</time>
  <course>187.71</course>
  <speed>0.47675989764240867</speed>
  <fix>3d</fix>
</trkpt>
<trkpt lat="33.8102704" lon="-118.3938754">
  <ele>-13.37</ele>
  <time>2026-09-02T22:13:20Z</time>
  <course>188.61</course>
  <speed>0.5</speed>
  <fix>3d</fix>
</trkpt>
<trkpt lat="33.8102691" lon="-118.3938757">
  <ele>-13.682</ele>
  <time>2026-09-02T22:13:20Z</time>
  <course>187.7</course>
  <speed>0.47675989764240867</speed>
  <fix>3d</fix>
</trkpt>
<trkpt lat="33.8102695" lon="-118.3938756">
  <ele>-13.36</ele>
  <time>2026-09-02T22:13:20Z</time>
  <course>188.5</course>
  <speed>0.5</speed>
  <fix>3d</fix>
</trkpt>
<trkpt lat="33.8102687" lon="-118.3938758">
  <ele>-13.677</ele>
  <time>2026-09-02T22:13:20Z</time>
  <course>187.69</course>
  <speed>0.47675989764240867</speed>
  <fix>3d</fix>
</trkpt>
<trkpt lat="33.8102695" lon="-118.3938756">
  <ele>-13.36</ele>
  <time>2026-09-02T22:13:20Z</time>
  <course>188.5</course>
  <speed>0.5</speed>
  <fix>3d</fix>
</trkpt>
<trkpt lat="33.8102682" lon="-118.3938759">
  <ele>-13.675</ele>
  <time>2026-09-02T22:13:20Z</time>
  <course>187.68</course>
  <speed>0.47675989764240867</speed>
  <fix>3d</fix>
</trkpt>
<trkpt lat="33.8102686" lon="-118.3938757">
  <ele>-13.35</ele>
  <time>2026-09-02T22:13:20Z</time>
  <course>188.46</course>
  <speed>0.5</speed>
  <fix>3d</fix>
</trkpt>
<trkpt lat="33.8102678" lon="-118.393876">
  <ele>-13.674</ele>
  <time>2026-09-02T22:13:20Z</time>
  <course>187.68</course>
  <speed>0.47675989764240867</speed>
  <fix>3d</fix>
</trkpt>
<trkpt lat="33.8102686" lon="-118.3938757">
  <ele>-13.35</ele>
  <time>2026-09-02T22:13:20Z</time>
  <course>188.46</course>
  <speed>0.5</speed>
  <fix>3d</fix>
</trkpt>
<trkpt lat="33.8102673" lon="-118.393876">
  <ele>-13.674</ele>
  <time>2026-09-02T22:13:20Z</time>
  <course>187.67</course>
  <speed>0.47675989764240867</speed>
  <fix>3d</fix>
</trkpt>
<trkpt lat="33.8102677" lon="-118.3938758">
  <ele>-13.35</ele>
  <time>2026-09-02T22:13:20Z</time>
  <course>188.5</course>
  <speed>0.5</speed>
  <fix>3d</fix>
</trkpt>
<trkpt lat="33.8102669" lon="-118.3938761">
  <ele>-13.675</ele>
  <time>2026-09-02T22:13:20Z</time>
  <course>187.66</course>
  <speed>0.47675989764240867</speed>
  <fix>3d</fix>
</trkpt>
<trkpt lat="33.8102677" lon="-118.3938758">
  <ele>-13.35</ele>
  <time>2026-09-02T22:13:20Z</time>
  <course>188.5</course>
  <speed>0.5</speed>
  <fix>3d</fix>
</trkpt>
<trkpt lat="33.8102665" lon="-118.3938762">
  <ele>-13.678</ele>
  <time>2026-09-02T22:13:20Z</time>
  <course>187.65</course>
  <speed>0.47675989764240867</speed>
  <fix>3d</fix>
</trkpt>
<trkpt lat="33.8102668" lon="-118.3938761">
  <ele>-13.35</ele>
  <time>2026-09-02T22:13:20Z</time>
  <course>188.65</course>
  <speed>0.5</speed>
  <fix>3d</fix>
</trkpt>
<trkpt lat="33.810266" lon="-118.3938763">
  <ele>-13.681</ele>
  <time>2026-09-02T22:13:20Z</time>
  <course>187.64</course>
  <speed>0.47675989764240867</speed>
  <fix>3d</fix>
</trkpt>
<trkpt lat="33.8102668" lon="-118.3938761">
  <ele>-13.35</ele>
  <time>2026-09-02T22:13:20Z</time>
  <course>188.65</course>
  <speed>0.5</speed>
  <fix>3d</fix>
</trkpt>
<trkpt lat="33.8102656" lon="-118.3938764">
  <ele>-13.684</ele>
  <time>2026-09-02T22:13:20Z</time>
  <course>187.64</course>
  <speed>0.47675989764240867</speed>
  <fix>3d</fix>
</trkpt>
<trkpt lat="33.8102659" lon="-118.3938762">
  <ele>-13.36</ele>
  <time>2026-09-02T22:13:20Z</time>
  <course>188.79</course>
  <speed>0.5</speed>
  <fix>3d</fix>
</trkpt>
<trkpt lat="33.8102651" lon="-118.3938764">
  <ele>-13.689</ele>
  <time>2026-09-02T22:13:20Z</time>
  <course>187.63</course>
  <speed>0.47675989764240867</speed>
  <fix>3d</fix>
</trkpt>
<trkpt lat="33.8102659" lon="-118.3938762">
  <ele>-13.36</ele>
  <time>2026-09-02T22:13:20Z</time>
  <course>188.79</course>
  <speed>0.5</speed>
  <fix>3d</fix>
</trkpt>
<trkpt lat="33.8102647" lon="-118.3938765">
  <ele>-13.695</ele>
  <time>2026-09-02T22:13:20Z</time>
  <course>187.62</course>
  <speed>0.47675989764240867</speed>
  <fix>3d</fix>
</trkpt>
<trkpt lat="33.810265" lon="-118.3938763">
  <ele>-13.36</ele>
  <time>2026-09-02T22:13:20Z</time>
  <course>188.84</course>
  <speed>0.5</speed>
  <fix>3d</fix>
</trkpt>
<trkpt lat="33.8102642" lon="-118.3938766">
  <ele>-13.701</ele>
  <time>2026-09-02T22:13:20Z</time>
  <course>187.62</course>
  <speed>0.47675989764240867</speed>
  <fix>3d</fix>
</trkpt>
<trkpt lat="33.810265" lon="-118.3938763">
  <ele>-13.36</ele>
  <time>2026-09-02T22:13:20Z</time>
  <course>188.84</course>
  <speed>0.5</speed>
  <fix>3d</fix>
</trkpt>
<trkpt lat="33.8102638" lon="-118.3938767">
  <ele>-13.703</ele>
  <time>2026-09-02T22:13:20Z</time>
  <course>187.61</course>
  <speed>0.47675989764240867</speed>
  <fix>3d</fix>
</trkpt>
<trkpt lat="33.8102641" lon="-118.3938766">
  <ele>-13.37</ele>
  <time>2026-09-02T22:13:20Z</time>
  <course>188.91</course>
  <speed>0.5</speed>
  <fix>3d</fix>
</trkpt>
<trkpt lat="33.8102633" lon="-118.3938768">
  <ele>-13.7</ele>
  <time>2026-09-02T22:13:20Z</time>
  <course>187.6</course>
  <speed>0.47675989764240867</speed>
  <fix>3d</fix>
</trkpt>
<trkpt lat="33.8102641" lon="-118.3938766">
  <ele>-13.37</ele>
  <time>2026-09-02T22:13:20Z</time>
  <course>188.91</course>
  <speed>0.5</speed>
  <fix>3d</fix>
</trkpt>
<trkpt lat="33.8102629" lon="-118.3938769">
  <ele>-13.695</ele>
  <time>2026-09-02T22:13:20Z</time>
  <course>187.59</course>
  <speed>0.47675989764240867</speed>
  <fix>3d</fix>
</trkpt>
<trkpt lat="33.8102633" lon="-118.3938767">
  <ele>-13.38</ele>
  <time>2026-09-02T22:13:20Z</time>
  <course>188.94</course>
  <speed>0.5</speed>
  <fix>3d</fix>
</trkpt>
<trkpt lat="33.8102624" lon="-118.3938769">
  <ele>-13.687</ele>
  <time>2026-09-02T22:13:20Z</time>
  <course>187.59</course>
  <speed>0.47675989764240867</speed>
  <fix>3d</fix>
</trkpt>
<trkpt lat="33.8102633" lon="-118.3938767">
  <ele>-13.38</ele>
  <time>2026-09-02T22:13:20Z</time>
  <course>188.94</course>
  <speed>0.5</speed>
  <fix>3d</fix>
</trkpt>
<trkpt lat="33.810262" lon="-118.393877">
  <ele>-13.678</ele>
  <time>2026-09-02T22:13:20Z</time>
  <course>187.58</course>
  <speed>0.47675989764240867</speed>
  <fix>3d</fix>
</trkpt>
<trkpt lat="33.8102624" lon="-118.3938769">
  <ele>-13.37</ele>
  <time>2026-09-02T22:13:20Z</time>
  <course>188.88</course>
  <speed>0.5</speed>
  <fix>3d</fix>
</trkpt>
<trkpt lat="33.8102615" lon="-118.3938771">
  <ele>-13.665</ele>
  <time>2026-09-02T22:13:20Z</time>
  <course>187.57</course>
  <speed>0.47675989764240867</speed>
  <fix>3d</fix>
</trkpt>
<trkpt lat="33.8102624" lon="-118.3938769">
  <ele>-13.37</ele>
  <time>2026-09-02T22:13:20Z</time>
  <course>188.88</course>
  <speed>0.5</speed>
  <fix>3d</fix>
</trkpt>
<trkpt lat="33.8102611" lon="-118.3938772">
  <ele>-13.65</ele>
  <time>2026-09-02T22:13:20Z</time>
  <course>187.57</course>
  <speed>0.47675989764240867</speed>
  <fix>3d</fix>
</trkpt>
<trkpt lat="33.8102615" lon="-118.3938771">
  <ele>-13.34</ele>
  <time>2026-09-02T22:13:20Z</time>
  <course>188.79</course>
  <speed>0.5</speed>
  <fix>3d</fix>
</trkpt>
<trkpt lat="33.8102606" lon="-118.3938773">
  <ele>-13.633</ele>
  <time>2026-09-02T22:13:20Z</time>
  <course>187.56</course>
  <speed>0.47675989764240867</speed>
  <fix>3d</fix>
</trkpt>
<trkpt lat="33.8102615" lon="-118.3938771">
  <ele>-13.34</ele>
  <time>2026-09-02T22:13:20Z</time>
  <course>188.79</course>
  <speed>0.5</speed>
  <fix>3d</fix>
</trkpt>
<trkpt lat="33.8102602" lon="-118.3938774">
  <ele>-13.616</ele>
  <time>2026-09-02T22:13:20Z</time>
  <course>187.55</course>
  <speed>0.47675989764240867</speed>
  <fix>3d</fix>
</trkpt>
<trkpt lat="33.8102606" lon="-118.3938772">
  <ele>-13.31</ele>
  <time>2026-09-02T22:13:20Z</time>
  <course>188.66</course>
  <speed>0.5</speed>
  <fix>3d</fix>
</trkpt>
<trkpt lat="33.8102598" lon="-118.3938775">
  <ele>-13.598</ele>
  <time>2026-09-02T22:13:20Z</time>
  <course>187.55</course>
  <speed>0.47675989764240867</speed>
  <fix>3d</fix>
</trkpt>
<trkpt lat="33.8102606" lon="-118.3938772">
  <ele>-13.31</ele>
  <time>2026-09-02T22:13:20Z</time>
  <course>188.66</course>
  <speed>0.5</speed>
  <fix>3d</fix>
</trkpt>
<trkpt lat="33.8102593" lon="-118.3938775">
  <ele>-13.576</ele>
  <time>2026-09-02T22:13:20Z</time>
  <course>187.54</course>
  <speed>0.47675989764240867</speed>
  <fix>3d</fix>
</trkpt>
<trkpt lat="33.8102597" lon="-118.3938774">
  <ele>-13.28</ele>
  <time>2026-09-02T22:13:20Z</time>
  <course>188.55</course>
  <speed>0.5</speed>
  <fix>3d</fix>
</trkpt>
<trkpt lat="33.8102589" lon="-118.3938776">
  <ele>-13.552</ele>
  <time>2026-09-02T22:13:20Z</time>
  <course>187.54</course>
  <speed>0.47675989764240867</speed>
  <fix>3d</fix>
</trkpt>
<trkpt lat="33.8102597" lon="-118.3938774">
  <ele>-13.28</ele>
  <time>2026-09-02T22:13:20Z</time>
  <course>188.55</course>
  <speed>0.5</speed>
  <fix>3d</fix>
</trkpt>
<trkpt lat="33.8102584" lon="-118.3938777">
  <ele>-13.528</ele>
  <time>2026-09-02T22:13:20Z</time>
  <course>187.53</course>
  <speed>0.47675989764240867</speed>
  <fix>3d</fix>
</trkpt>
<trkpt lat="33.8102588" lon="-118.3938776">
  <ele>-13.24</ele>
  <time>2026-09-02T22:13:20Z</time>
  <course>188.5</course>
  <speed>0.5</speed>
  <fix>3d</fix>
</trkpt>
<trkpt lat="33.810258" lon="-118.3938778">
  <ele>-13.503</ele>
  <time>2026-09-02T22:13:20Z</time>
  <course>187.52</course>
  <speed>0.47675989764240867</speed>
  <fix>3d</fix>
</trkpt>
<trkpt lat="33.8102588" lon="-118.3938776">
  <ele>-13.24</ele>
  <time>2026-09-02T22:13:20Z</time>
  <course>188.5</course>
  <speed>0.5</speed>
  <fix>3d</fix>
</trkpt>
<trkpt lat="33.8102575" lon="-118.3938779">
  <ele>-13.477</ele>
  <time>2026-09-02T22:13:20Z</time>
  <course>187.52</course>
  <speed>0.47675989764240867</speed>
  <fix>3d</fix>
</trkpt>
<trkpt lat="33.8102579" lon="-118.3938777">
  <ele>-13.2</ele>
  <time>2026-09-02T22:13:20Z</time>
  <course>188.46</course>
  <speed>0.5</speed>
  <fix>3d</fix>
</trkpt>
<trkpt lat="33.8102571" lon="-118.3938779">
  <ele>-13.452</ele>
  <time>2026-09-02T22:13:20Z</time>
  <course>187.51</course>
  <speed>0.47675989764240867</speed>
  <fix>3d</fix>
</trkpt>
<trkpt lat="33.8102579" lon="-118.3938777">
  <ele>-13.2</ele>
  <time>2026-09-02T22:13:20Z</time>
  <course>188.46</course>
  <speed>0.5</speed>
  <fix>3d</fix>
</trkpt>
<trkpt lat="33.8102566" lon="-118.393878">
  <ele>-13.425</ele>
  <time>2026-09-02T22:13:20Z</time>
  <course>187.51</course>
  <speed>0.47675989764240867</speed>
  <fix>3d</fix>
</trkpt>
<trkpt lat="33.810257" lon="-118.3938779">
  <ele>-13.15</ele>
  <time>2026-09-02T22:13:20Z</time>
  <course>188.43</course>
  <speed>0.5</speed>
  <fix>3d</fix>
</trkpt>
<trkpt lat="33.8102562" lon="-118.3938781">
  <ele>-13.397</ele>
  <time>2026-09-02T22:13:20Z</time>
  <course>187.5</course>
  <speed>0.47675989764240867</speed>
  <fix>3d</fix>
</trkpt>
<trkpt lat="33.810257" lon="-118.3938779">
  <ele>-13.15</ele>
  <time>2026-09-02T22:13:20Z</time>
  <course>188.43</course>
  <speed>0.5</speed>
  <fix>3d</fix>
</trkpt>
<trkpt lat="33.8102557" lon="-118.3938782">
  <ele>-13.368</ele>
  <time>2026-09-02T22:13:20Z</time>
  <course>187.5</course>
  <speed>0.47675989764240867</speed>
  <fix>3d</fix>
</trkpt>
<trkpt lat="33.8102561" lon="-118.393878">
  <ele>-13.1</ele>
  <time>2026-09-02T22:13:20Z</time>
  <course>188.44</course>
  <speed>0.5</speed>
  <fix>3d</fix>
</trkpt>
<trkpt lat="33.8102553" lon="-118.3938783">
  <ele>-13.339</ele>
  <time>2026-09-02T22:13:20Z</time>
  <course>187.49</course>
  <speed>0.47675989764240867</speed>
  <fix>3d</fix>
</trkpt>
<trkpt lat="33.8102561" lon="-118.393878">
  <ele>-13.1</ele>
  <time>2026-09-02T22:13:20Z</time>
  <course>188.44</course>
  <speed>0.5</speed>
  <fix>3d</fix>
</trkpt>
<trkpt lat="33.8102548" lon="-118.3938784">
  <ele>-13.311</ele>
  <time>2026-09-02T22:13:20Z</time>
  <course>187.48</course>
  <speed>0.47675989764240867</speed>
  <fix>3d</fix>
</trkpt>
<trkpt lat="33.8102552" lon="-118.3938782">
  <ele>-13.05</ele>
  <time>2026-09-02T22:13:20Z</time>
  <course>188.49</course>
  <speed>0.5</speed>
  <fix>3d</fix>
</trkpt>
<trkpt lat="33.8102544" lon="-118.3938784">
  <ele>-13.283</ele>
  <time>2026-09-02T22:13:20Z</time>
  <course>187.48</course>
  <speed>0.47675989764240867</speed>
  <fix>3d</fix>
</trkpt>
<trkpt lat="33.8102552" lon="-118.3938782">
  <ele>-13.05</ele>
  <time>2026-09-02T22:13:20Z</time>
  <course>188.49</course>
  <speed>0.5</speed>
  <fix>3d</fix>
</trkpt>
<trkpt lat="33.810254" lon="-118.3938785">
  <ele>-13.256</ele>
  <time>2026-09-02T22:13:20Z</time>
  <course>187.47</course>
  <speed>0.47675989764240867</speed>
  <fix>3d</fix>
</trkpt>
<trkpt lat="33.8102543" lon="-118.3938784">
  <ele>-12.99</ele>
  <time>2026-09-02T22:13:20Z</time>
  <course>188.59</course>
  <speed>0.5</speed>
  <fix>3d</fix>
</trkpt>
<trkpt lat="33.8102535" lon="-118.3938786">
  <ele>-13.229</ele>
  <time>2026-09-02T22:13:20Z</time>
  <course>187.47</course>
  <speed>0.47675989764240867</speed>
  <fix>3d</fix>
</trkpt>
<trkpt lat="33.8102543" lon="-118.3938784">
  <ele>-12.99</ele>
  <time>2026-09-02T22:13:20Z</time>
  <course>188.59</course>
  <speed>0.5</speed>
  <fix>3d</fix>
</trkpt>
<trkpt lat="33.8102531" lon="-118.3938787">
  <ele>-13.204</ele>
  <time>2026-09-02T22:13:20Z</time>
  <course>187.46</course>
  <speed>0.47675989764240867</speed>
  <fix>3d</fix>
</trkpt>
<trkpt lat="33.8102534" lon="-118.3938785">
  <ele>-12.95</ele>
  <time>2026-09-02T22:13:20Z</time>
  <course>188.66</course>
  <speed>0.5</speed>
  <fix>3d</fix>
</trkpt>
<trkpt lat="33.8102526" lon="-118.3938788">
  <ele>-13.179</ele>
  <time>2026-09-02T22:13:20Z</time>
  <course>187.46</course>
  <speed>0.47675989764240867</speed>
  <fix>3d</fix>
</trkpt>
<trkpt lat="33.8102534" lon="-118.3938785">
  <ele>-12.95</ele>
  <time>2026-09-02T22:13:20Z</time>
  <course>188.66</course>
  <speed>0.5</speed>
  <fix>3d</fix>
</trkpt>
<trkpt lat="33.8102522" lon="-118.3938789">
  <ele>-13.155</ele>
  <time>2026-09-02T22:13:20Z</time>
  <course>187.45</course>
  <speed>0.47675989764240867</speed>
  <fix>3d</fix>
</trkpt>
<trkpt lat="33.8102525" lon="-118.3938786">
  <ele>-12.9</ele>
  <time>2026-09-02T22:13:20Z</time>
  <course>188.69</course>
  <speed>0.5</speed>
  <fix>3d</fix>
</trkpt>
<trkpt lat="33.8102517" lon="-118.3938789">
  <ele>-13.133</ele>
  <time>2026-09-02T22:13:20Z</time>
  <course>187.45</course>
  <speed>0.47675989764240867</speed>
  <fix>3d</fix>
</trkpt>
<trkpt lat="33.8102525" lon="-118.3938786">
  <ele>-12.9</ele>
  <time>2026-09-02T22:13:20Z</time>
  <course>188.69</course>
  <speed>0.5</speed>
  <fix>3d</fix>
</trkpt>
<trkpt lat="33.8102513" lon="-118.393879">
  <ele>-13.11</ele>
  <time>2026-09-02T22:13:20Z</time>
  <course>187.44</course>
  <speed>0.47675989764240867</speed>
  <fix>3d</fix>
</trkpt>
<trkpt lat="33.8102516" lon="-118.3938789">
  <ele>-12.85</ele>
  <time>2026-09-02T22:13:20Z</time>
  <course>188.79</course>
  <speed>0.5</speed>
  <fix>3d</fix>
</trkpt>
<trkpt lat="33.8102508" lon="-118.3938791">
  <ele>-13.089</ele>
  <time>2026-09-02T22:13:20Z</time>
  <course>187.43</course>
  <speed>0.47853944456021597</speed>
  <fix>3d</fix>
</trkpt>
<trkpt lat="33.8102516" lon="-118.3938789">
  <ele>-12.85</ele>
  <time>2026-09-02T22:13:20Z</time>
  <course>188.79</course>
  <speed>0.5</speed>
  <fix>3d</fix>
</trkpt>
<trkpt lat="33.8102504" lon="-118.3938792">
  <ele>-13.067</ele>
  <time>2026-09-02T22:13:20Z</time>
  <course>187.43</course>
  <speed>0.47675989764240867</speed>
  <fix>3d</fix>
</trkpt>
<trkpt lat="33.8102507" lon="-118.393879">
  <ele>-12.8</ele>
  <time>2026-09-02T22:13:20Z</time>
  <course>188.9</course>
  <speed>0.5</speed>
  <fix>3d</fix>
</trkpt>
<trkpt lat="33.8102499" lon="-118.3938793">
  <ele>-13.044</ele>
  <time>2026-09-02T22:13:20Z</time>
  <course>187.42</course>
  <speed>0.47853944456021597</speed>
  <fix>3d</fix>
</trkpt>
<trkpt lat="33.8102507" lon="-118.393879">
  <ele>-12.8</ele>
  <time>2026-09-02T22:13:20Z</time>
  <course>188.9</course>
  <speed>0.5</speed>
  <fix>3d</fix>
</trkpt>
<trkpt lat="33.8102495" lon="-118.3938793">
  <ele>-13.022</ele>
  <time>2026-09-02T22:13:20Z</time>
  <course>187.42</course>
  <speed>0.47675989764240867</speed>
  <fix>3d</fix>
</trkpt>
<trkpt lat="33.8102498" lon="-118.3938791">
  <ele>-12.77</ele>
  <time>2026-09-02T22:13:20Z</time>
  <course>188.91</course>
  <speed>0.5</speed>
  <fix>3d</fix>
</trkpt>
<trkpt lat="33.810249" lon="-118.3938794">
  <ele>-13.002</ele>
  <time>2026-09-02T22:13:20Z</time>
  <course>187.42</course>
  <speed>0.47853944456021597</speed>
  <fix>3d</fix>
</trkpt>
<trkpt lat="33.8102498" lon="-118.3938791">
  <ele>-12.77</ele>
  <time>2026-09-02T22:13:20Z</time>
  <course>188.91</course>
  <speed>0.5</speed>
  <fix>3d</fix>
</trkpt>
<trkpt lat="33.8102486" lon="-118.3938795">
  <ele>-12.984</ele>
  <time>2026-09-02T22:13:20Z</time>
  <course>187.41</course>
  <speed>0.47853944456021597</speed>
  <fix>3d</fix>
</trkpt>
<trkpt lat="33.8102489" lon="-118.3938794">
  <ele>-12.73</ele>
  <time>2026-09-02T22:13:20Z</time>
  <course>188.96</course>
  <speed>0.5</speed>
  <fix>3d</fix>
</trkpt>
<trkpt lat="33.8102481" lon="-118.3938796">
  <ele>-12.965</ele>
  <time>2026-09-02T22:13:20Z</time>
  <course>187.4</course>
  <speed>0.47853944456021597</speed>
  <fix>3d</fix>
</trkpt>
<trkpt lat="33.8102489" lon="-118.3938794">
  <ele>-12.73</ele>
  <time>2026-09-02T22:13:20Z</time>
  <course>188.96</course>
  <speed>0.5</speed>
  <fix>3d</fix>
</trkpt>
<trkpt lat="33.8102477" lon="-118.3938797">
  <ele>-12.947</ele>
  <time>2026-09-02T22:13:20Z</time>
  <course>187.4</course>
  <speed>0.47853944456021597</speed>
  <fix>3d</fix>
</trkpt>
<trkpt lat="33.810248" lon="-118.3938795">
  <ele>-12.69</ele>
  <time>2026-09-02T22:13:20Z</time>
  <course>189.02</course>
  <speed>0.5</speed>
  <fix>3d</fix>
</trkpt>
<trkpt lat="33.8102472" lon="-118.3938798">
  <ele>-12.93</ele>
  <time>2026-09-02T22:13:20Z</time>
  <course>187.4</course>
  <speed>0.47853944456021597</speed>
  <fix>3d</fix>
</trkpt>
<trkpt lat="33.810248" lon="-118.3938795">
  <ele>-12.69</ele>
  <time>2026-09-02T22:13:20Z</time>
  <course>189.02</course>
  <speed>0.5</speed>
  <fix>3d</fix>
</trkpt>
<trkpt lat="33.8102468" lon="-118.3938798">
  <ele>-12.915</ele>
  <time>2026-09-02T22:13:20Z</time>
  <course>187.39</course>
  <speed>0.47675989764240867</speed>
  <fix>3d</fix>
</trkpt>
<trkpt lat="33.8102471" lon="-118.3938796">
  <ele>-12.65</ele>
  <time>2026-09-02T22:13:20Z</time>
  <course>189.0</course>
  <speed>0.5</speed>
  <fix>3d</fix>
</trkpt>
<trkpt lat="33.8102463" lon="-118.3938799">
  <ele>-12.901</ele>
  <time>2026-09-02T22:13:20Z</time>
  <course>187.39</course>
  <speed>0.47853944456021597</speed>
  <fix>3d</fix>
</trkpt>
<trkpt lat="33.8102471" lon="-118.3938796">
  <ele>-12.65</ele>
  <time>2026-09-02T22:13:20Z</time>
  <course>189.0</course>
  <speed>0.5</speed>
  <fix>3d</fix>
</trkpt>
<trkpt lat="33.8102459" lon="-118.39388">
  <ele>-12.885</ele>
  <time>2026-09-02T22:13:20Z</time>
  <course>187.38</course>
  <speed>0.47853944456021597</speed>
  <fix>3d</fix>
</trkpt>
<trkpt lat="33.8102462" lon="-118.3938799">
  <ele>-12.62</ele>
  <time>2026-09-02T22:13:20Z</time>
  <course>189.01</course>
  <speed>0.5</speed>
  <fix>3d</fix>
</trkpt>
<trkpt lat="33.8102455" lon="-118.3938801">
  <ele>-12.865</ele>
  <time>2026-09-02T22:13:20Z</time>
  <course>187.38</course>
  <speed>0.47853944456021597</speed>
  <fix>3d</fix>
</trkpt>
<trkpt lat="33.8102462" lon="-118.3938799">
  <ele>-12.62</ele>
  <time>2026-09-02T22:13:20Z</time>
  <course>189.01</course>
  <speed>0.5</speed>
  <fix>3d</fix>
</trkpt>
<trkpt lat="33.810245" lon="-118.3938802">
  <ele>-12.844</ele>
  <time>2026-09-02T22:13:20Z</time>
  <course>187.37</course>
  <speed>0.47675989764240867</speed>
  <fix>3d</fix>
</trkpt>
<trkpt lat="33.8102453" lon="-118.3938801">
  <ele>-12.59</ele>
  <time>2026-09-02T22:13:20Z</time>
  <course>189.04</course>
  <speed>0.5</speed>
  <fix>3d</fix>
</trkpt>
<trkpt lat="33.8102446" lon="-118.3938803">
  <ele>-12.822</ele>
  <time>2026-09-02T22:13:20Z</time>
  <course>187.37</course>
  <speed>0.47675989764240867</speed>
  <fix>3d</fix>
</trkpt>
<trkpt lat="33.8102453" lon="-118.3938801">
  <ele>-12.59</ele>
  <time>2026-09-02T22:13:20Z</time>
  <course>189.04</course>
  <speed>0.5</speed>
  <fix>3d</fix>
</trkpt>
<trkpt lat="33.8102441" lon="-118.3938804">
  <ele>-12.799</ele>
  <time>2026-09-02T22:13:20Z</time>
  <course>187.36</course>
  <speed>0.47675989764240867</speed>
  <fix>3d</fix>
</trkpt>
<trkpt lat="33.8102444" lon="-118.3938802">
  <ele>-12.54</ele>
  <time>2026-09-02T22:13:20Z</time>
  <course>188.94</course>
  <speed>0.5</speed>
  <fix>3d</fix>
</trkpt>
<trkpt lat="33.8102437" lon="-118.3938804">
  <ele>-12.777</ele>
  <time>2026-09-02T22:13:20Z</time>
  <course>187.36</course>
  <speed>0.47675989764240867</speed>
  <fix>3d</fix>
</trkpt>
<trkpt lat="33.8102444" lon="-118.3938802">
  <ele>-12.54</ele>
  <time>2026-09-02T22:13:20Z</time>
  <course>188.94</course>
  <speed>0.5</speed>
  <fix>3d</fix>
</trkpt>
<trkpt lat="33.8102432" lon="-118.3938805">
  <ele>-12.757</ele>
  <time>2026-09-02T22:13:20Z</time>
  <course>187.35</course>
  <speed>0.47675989764240867</speed>
  <fix>3d</fix>
</trkpt>
<trkpt lat="33.8102435" lon="-118.3938804">
  <ele>-12.5</ele>
  <time>2026-09-02T22:13:20Z</time>
  <course>188.79</course>
  <speed>0.5</speed>
  <fix>3d</fix>
</trkpt>
<trkpt lat="33.8102428" lon="-118.3938806">
  <ele>-12.737</ele>
  <time>2026-09-02T22:13:20Z</time>
  <course>187.35</course>
  <speed>0.47675989764240867</speed>
  <fix>3d</fix>
</trkpt>
<trkpt lat="33.8102435" lon="-118.3938804">
  <ele>-12.5</ele>
  <time>2026-09-02T22:13:20Z</time>
  <course>188.79</course>
  <speed>0.5</speed>
  <fix>3d</fix>
</trkpt>
<trkpt lat="33.8102423" lon="-118.3938807">
  <ele>-12.717</ele>
  <time>2026-09-02T22:13:20Z</time>
  <course>187.35</course>
  <speed>0.47675989764240867</speed>
  <fix>3d</fix>
</trkpt>
<trkpt lat="33.8102426" lon="-118.3938806">
  <ele>-12.45</ele>
  <time>2026-09-02T22:13:20Z</time>
  <course>188.69</course>
  <speed>0.5</speed>
  <fix>3d</fix>
</trkpt>
<trkpt lat="33.8102419" lon="-118.3938808">
  <ele>-12.697</ele>
  <time>2026-09-02T22:13:20Z</time>
  <course>187.34</course>
  <speed>0.47675989764240867</speed>
  <fix>3d</fix>
</trkpt>
<trkpt lat="33.8102426" lon="-118.3938806">
  <ele>-12.45</ele>
  <time>2026-09-02T22:13:20Z</time>
  <course>188.69</course>
  <speed>0.5</speed>
  <fix>3d</fix>
</trkpt>
<trkpt lat="33.8102414" lon="-118.3938809">
  <ele>-12.677</ele>
  <time>2026-09-02T22:13:20Z</time>
  <course>187.34</course>
  <speed>0.47675989764240867</speed>
  <fix>3d</fix>
</trkpt>
<trkpt lat="33.8102417" lon="-118.3938807">
  <ele>-12.42</ele>
  <time>2026-09-02T22:13:20Z</time>
  <course>188.61</course>
  <speed>0.5</speed>
  <fix>3d</fix>
</trkpt>
<trkpt lat="33.810241" lon="-118.3938809">
  <ele>-12.656</ele>
  <time>2026-09-02T22:13:20Z</time>
  <course>187.33</course>
  <speed>0.47675989764240867</speed>
  <fix>3d</fix>
</trkpt>
<trkpt lat="33.8102417" lon="-118.3938807">
  <ele>-12.42</ele>
  <time>2026-09-02T22:13:20Z</time>
  <course>188.61</course>
  <speed>0.5</speed>
  <fix>3d</fix>
</trkpt>
<trkpt lat="33.8102405" lon="-118.393881">
  <ele>-12.636</ele>
  <time>2026-09-02T22:13:20Z</time>
  <course>187.33</course>
  <speed>0.47675989764240867</speed>
  <fix>3d</fix>
</trkpt>
<trkpt lat="33.8102408" lon="-118.3938809">
  <ele>-12.37</ele>
  <time>2026-09-02T22:13:20Z</time>
  <course>188.55</course>
  <speed>0.5</speed>
  <fix>3d</fix>
</trkpt>
<trkpt lat="33.8102401" lon="-118.3938811">
  <ele>-12.616</ele>
  <time>2026-09-02T22:13:20Z</time>
  <course>187.33</course>
  <speed>0.4669047011971501</speed>
  <fix>3d</fix>
</trkpt>
<trkpt lat="33.8102408" lon="-118.3938809">
  <ele>-12.37</ele>
  <time>2026-09-02T22:13:20Z</time>
  <course>188.55</course>
  <speed>0.5</speed>
  <fix>3d</fix>
</trkpt>
<trkpt lat="33.8102396" lon="-118.3938812">
  <ele>-12.595</ele>
  <time>2026-09-02T22:13:20Z</time>
  <course>187.32</course>
  <speed>0.47675989764240867</speed>
  <fix>3d</fix>
</trkpt>
<trkpt lat="33.8102399" lon="-118.393881">
  <ele>-12.34</ele>
  <time>2026-09-02T22:13:20Z</time>
  <course>188.54</course>
  <speed>0.49</speed>
  <fix>3d</fix>
</trkpt>
<trkpt lat="33.8102392" lon="-118.3938813">
  <ele>-12.574</ele>
  <time>2026-09-02T22:13:20Z</time>
  <course>187.32</course>
  <speed>0.4669047011971501</speed>
  <fix>3d</fix>
</trkpt>
<trkpt lat="33.8102399" lon="-118.393881">
  <ele>-12.34</ele>
  <time>2026-09-02T22:13:20Z</time>
  <course>188.54</course>
  <speed>0.49</speed>
  <fix>3d</fix>
</trkpt>
<trkpt lat="33.8102388" lon="-118.3938814">
  <ele>-12.554</ele>
  <time>2026-09-02T22:13:20Z</time>
  <course>187.32</course>
  <speed>0.47675989764240867</speed>
  <fix>3d</fix>
</trkpt>
<trkpt lat="33.810239" lon="-118.3938812">
  <ele>-12.29</ele>
  <time>2026-09-02T22:13:20Z</time>
  <course>188.58</course>
  <speed>0.49</speed>
  <fix>3d</fix>
</trkpt>
<trkpt lat="33.8102383" lon="-118.3938814">
  <ele>-12.535</ele>
  <time>2026-09-02T22:13:20Z</time>
  <course>187.31</course>
  <speed>0.4669047011971501</speed>
  <fix>3d</fix>
</trkpt>
<trkpt lat="33.810239" lon="-118.3938812">
  <ele>-12.29</ele>
  <time>2026-09-02T22:13:20Z</time>
  <course>188.58</course>
  <speed>0.49</speed>
  <fix>3d</fix>
</trkpt>
<trkpt lat="33.8102379" lon="-118.3938815">
  <ele>-12.516</ele>
  <time>2026-09-02T22:13:20Z</time>
  <course>187.31</course>
  <speed>0.4669047011971501</speed>
  <fix>3d</fix>
</trkpt>
<trkpt lat="33.8102382" lon="-118.3938814">
  <ele>-12.26</ele>
  <time>2026-09-02T22:13:20Z</time>
  <course>188.66</course>
  <speed>0.49</speed>
  <fix>3d</fix>
</trkpt>
<trkpt lat="33.8102374" lon="-118.3938816">
  <ele>-12.5</ele>
  <time>2026-09-02T22:13:20Z</time>
  <course>187.31</course>
  <speed>0.4669047011971501</speed>
  <fix>3d</fix>
</trkpt>
<trkpt lat="33.8102382" lon="-118.3938814">
  <ele>-12.26</ele>
  <time>2026-09-02T22:13:20Z</time>
  <course>188.66</course>
  <speed>0.49</speed>
  <fix>3d</fix>
</trkpt>
<trkpt lat="33.810237" lon="-118.3938817">
  <ele>-12.485</ele>
  <time>2026-09-02T22:13:20Z</time>
  <course>187.3</course>
  <speed>0.47675989764240867</speed>
  <fix>3d</fix>
</trkpt>
<trkpt lat="33.8102373" lon="-118.3938815">
  <ele>-12.22</ele>
  <time>2026-09-02T22:13:20Z</time>
  <course>188.69</course>
  <speed>0.49</speed>
  <fix>3d</fix>
</trkpt>
<trkpt lat="33.8102365" lon="-118.3938818">
  <ele>-12.472</ele>
  <time>2026-09-02T22:13:20Z</time>
  <course>187.3</course>
  <speed>0.47675989764240867</speed>
  <fix>3d</fix>
</trkpt>
<trkpt lat="33.8102373" lon="-118.3938815">
  <ele>-12.22</ele>
  <time>2026-09-02T22:13:20Z</time>
  <course>188.69</course>
  <speed>0.49</speed>
  <fix>3d</fix>
</trkpt>
<trkpt lat="33.8102361" lon="-118.3938818">
  <ele>-12.459</ele>
  <time>2026-09-02T22:13:20Z</time>
  <course>187.29</course>
  <speed>0.47675989764240867</speed>
  <fix>3d</fix>
</trkpt>
<trkpt lat="33.8102364" lon="-118.3938817">
  <ele>-12.19</ele>
  <time>2026-09-02T22:13:20Z</time>
  <course>188.68</course>
  <speed>0.49</speed>
  <fix>3d</fix>
</trkpt>
<trkpt lat="33.8102356" lon="-118.3938819">
  <ele>-12.446</ele>
  <time>2026-09-02T22:13:20Z</time>
  <course>187.29</course>
  <speed>0.47675989764240867</speed>
  <fix>3d</fix>
</trkpt>
<trkpt lat="33.8102364" lon="-118.3938817">
  <ele>-12.19</ele>
  <time>2026-09-02T22:13:20Z</time>
  <course>188.68</course>
  <speed>0.49</speed>
  <fix>3d</fix>
</trkpt>
<trkpt lat="33.8102352" lon="-118.393882">
  <ele>-12.433</ele>
  <time>2026-09-02T22:13:20Z</time>
  <course>187.29</course>
  <speed>0.47675989764240867</speed>
  <fix>3d</fix>
</trkpt>
<trkpt lat="33.8102355" lon="-118.3938818">
  <ele>-12.17</ele>
  <time>2026-09-02T22:13:20Z</time>
  <course>188.67</course>
  <speed>0.49</speed>
  <fix>3d</fix>
</trkpt>
<trkpt lat="33.8102348" lon="-118.3938821">
  <ele>-12.418</ele>
  <time>2026-09-02T22:13:20Z</time>
  <course>187.28</course>
  <speed>0.47675989764240867</speed>
  <fix>3d</fix>
</trkpt>
<trkpt lat="33.8102355" lon="-118.3938818">
  <ele>-12.17</ele>
  <time>2026-09-02T22:13:20Z</time>
  <course>188.67</course>
  <speed>0.49</speed>
  <fix>3d</fix>
</trkpt>
<trkpt lat="33.8102343" lon="-118.3938822">
  <ele>-12.401</ele>
  <time>2026-09-02T22:13:20Z</time>
  <course>187.28</course>
  <speed>0.47675989764240867</speed>
  <fix>3d</fix>
</trkpt>
<trkpt lat="33.8102346" lon="-118.393882">
  <ele>-12.14</ele>
  <time>2026-09-02T22:13:20Z</time>
  <course>188.69</course>
  <speed>0.49</speed>
  <fix>3d</fix>
</trkpt>
<trkpt lat="33.8102339" lon="-118.3938823">
  <ele>-12.383</ele>
  <time>2026-09-02T22:13:20Z</time>
  <course>187.28</course>
  <speed>0.47675989764240867</speed>
  <fix>3d</fix>
</trkpt>
<trkpt lat="33.8102346" lon="-118.393882">
  <ele>-12.14</ele>
  <time>2026-09-02T22:13:21Z</time>
  <course>188.69</course>
  <speed>0.49</speed>
  <fix>3d</fix>
</trkpt>
<trkpt lat="33.8102334" lon="-118.3938823">
  <ele>-12.366</ele>
  <time>2026-09-02T22:13:21Z</time>
  <course>187.27</course>
  <speed>0.47675989764240867</speed>
  <fix>3d</fix>
</trkpt>
<trkpt lat="33.8102337" lon="-118.3938822">
  <ele>-12.11</ele>
  <time>2026-09-02T22:13:21Z</time>
  <course>188.75</course>
  <speed>0.5</speed>
  <fix>3d</fix>
</trkpt>
<trkpt lat="33.810233" lon="-118.3938824">
  <ele>-12.348</ele>
  <time>2026-09-02T22:13:21Z</time>
  <course>187.27</course>
  <speed>0.47675989764240867</speed>
  <fix>3d</fix>
</trkpt>
<trkpt lat="33.8102337" lon="-118.3938822">
  <ele>-12.11</ele>
  <time>2026-09-02T22:13:21Z</time>
  <course>188.75</course>
  <speed>0.5</speed>
  <fix>3d</fix>
</trkpt>
<trkpt lat="33.8102325" lon="-118.3938825">
  <ele>-12.329</ele>
  <time>2026-09-02T22:13:21Z</time>
  <course>187.27</course>
  <speed>0.47675989764240867</speed>
  <fix>3d</fix>
</trkpt>
<trkpt lat="33.8102328" lon="-118.3938823">
  <ele>-12.07</ele>
  <time>2026-09-02T22:13:21Z</time>
  <course>188.77</course>
  <speed>0.5</speed>
  <fix>3d</fix>
</trkpt>
<trkpt lat="33.8102321" lon="-118.3938826">
  <ele>-12.308</ele>
  <time>2026-09-02T22:13:21Z</time>
  <course>187.26</course>
  <speed>0.47675989764240867</speed>
  <fix>3d</fix>
</trkpt>
<trkpt lat="33.8102328" lon="-118.3938823">
  <ele>-12.07</ele>
  <time>2026-09-02T22:13:21Z</time>
  <course>188.77</course>
  <speed>0.5</speed>
  <fix>3d</fix>
</trkpt>
<trkpt lat="33.8102316" lon="-118.3938827">
  <ele>-12.286</ele>
  <time>2026-09-02T22:13:21Z</time>
  <course>187.26</course>
  <speed>0.47675989764240867</speed>
  <fix>3d</fix>
</trkpt>
<trkpt lat="33.810232" lon="-118.3938825">
  <ele>-12.04</ele>
  <time>2026-09-02T22:13:21Z</time>
  <course>188.79</course>
  <speed>0.49</speed>
  <fix>3d</fix>
</trkpt>
<trkpt lat="33.8102312" lon="-118.3938828">
  <ele>-12.263</ele>
  <time>2026-09-02T22:13:21Z</time>
  <course>187.26</course>
  <speed>0.47853944456021597</speed>
  <fix>3d</fix>
</trkpt>
<trkpt lat="33.810232" lon="-118.3938825">
  <ele>-12.04</ele>
  <time>2026-09-02T22:13:21Z</time>
  <course>188.79</course>
  <speed>0.49</speed>
  <fix>3d</fix>
</trkpt>
<trkpt lat="33.8102307" lon="-118.3938828">
  <ele>-12.24</ele>
  <time>2026-09-02T22:13:21Z</time>
  <course>187.26</course>
  <speed>0.47675989764240867</speed>
  <fix>3d</fix>
</trkpt>
<trkpt lat="33.8102311" lon="-118.3938827">
  <ele>-12.0</ele>
  <time>2026-09-02T22:13:21Z</time>
  <course>188.81</course>
  <speed>0.49</speed>
  <fix>3d</fix>
</trkpt>
<trkpt lat="33.8102303" lon="-118.3938829">
  <ele>-12.217</ele>
  <time>2026-09-02T22:13:21Z</time>
  <course>187.25</course>
  <speed>0.47675989764240867</speed>
  <fix>3d</fix>
</trkpt>
<trkpt lat="33.8102311" lon="-118.3938827">
  <ele>-12.0</ele>
  <time>2026-09-02T22:13:21Z</time>
  <course>188.81</course>
  <speed>0.49</speed>
  <fix>3d</fix>
</trkpt>
<trkpt lat="33.8102299" lon="-118.393883">
  <ele>-12.196</ele>
  <time>2026-09-02T22:13:21Z</time>
  <course>187.25</course>
  <speed>0.47675989764240867</speed>
  <fix>3d</fix>
</trkpt>
<trkpt lat="33.8102302" lon="-118.3938828">
  <ele>-11.95</ele>
  <time>2026-09-02T22:13:21Z</time>
  <course>188.78</course>
  <speed>0.5</speed>
  <fix>3d</fix>
</trkpt>
<trkpt lat="33.8102294" lon="-118.3938831">
  <ele>-12.175</ele>
  <time>2026-09-02T22:13:21Z</time>
  <course>187.25</course>
  <speed>0.47675989764240867</speed>
  <fix>3d</fix>
</trkpt>
<trkpt lat="33.8102302" lon="-118.3938828">
  <ele>-11.95</ele>
  <time>2026-09-02T22:13:21Z</time>
  <course>188.78</course>
  <speed>0.5</speed>
  <fix>3d</fix>
</trkpt>
<trkpt lat="33.810229" lon="-118.3938832">
  <ele>-12.154</ele>
  <time>2026-09-02T22:13:21Z</time>
  <course>187.24</course>
  <speed>0.47675989764240867</speed>
  <fix>3d</fix>
</trkpt>
<trkpt lat="33.8102293" lon="-118.393883">
  <ele>-11.92</ele>
  <time>2026-09-02T22:13:21Z</time>
  <course>188.74</course>
  <speed>0.5</speed>
  <fix>3d</fix>
</trkpt>
<trkpt lat="33.8102285" lon="-118.3938833">
  <ele>-12.133</ele>
  <time>2026-09-02T22:13:21Z</time>
  <course>187.24</course>
  <speed>0.47675989764240867</speed>
  <fix>3d</fix>
</trkpt>
<trkpt lat="33.8102293" lon="-118.393883">
  <ele>-11.92</ele>
  <time>2026-09-02T22:13:21Z</time>
  <course>188.74</course>
  <speed>0.5</speed>
  <fix>3d</fix>
</trkpt>
<trkpt lat="33.8102281" lon="-118.3938833">
  <ele>-12.111</ele>
  <time>2026-09-02T22:13:21Z</time>
  <course>187.23</course>
  <speed>0.47675989764240867</speed>
  <fix>3d</fix>
</trkpt>
<trkpt lat="33.8102284" lon="-118.3938832">
  <ele>-11.87</ele>
  <time>2026-09-02T22:13:21Z</time>
  <course>188.75</course>
  <speed>0.5</speed>
  <fix>3d</fix>
</trkpt>
<trkpt lat="33.8102276" lon="-118.3938834">
  <ele>-12.09</ele>
  <time>2026-09-02T22:13:21Z</time>
  <course>187.23</course>
  <speed>0.47675989764240867</speed>
  <fix>3d</fix>
</trkpt>
<trkpt lat="33.8102284" lon="-118.3938832">
  <ele>-11.87</ele>
  <time>2026-09-02T22:13:21Z</time>
  <course>188.75</course>
  <speed>0.5</speed>
  <fix>3d</fix>
</trkpt>
<trkpt lat="33.8102272" lon="-118.3938835">
  <ele>-12.067</ele>
  <time>2026-09-02T22:13:21Z</time>
  <course>187.23</course>
  <speed>0.47675989764240867</speed>
  <fix>3d</fix>
</trkpt>
<trkpt lat="33.8102275" lon="-118.3938833">
  <ele>-11.83</ele>
  <time>2026-09-02T22:13:21Z</time>
  <course>188.73</course>
  <speed>0.5</speed>
  <fix>3d</fix>
</trkpt>
<trkpt lat="33.8102267" lon="-118.3938836">
  <ele>-12.044</ele>
  <time>2026-09-02T22:13:21Z</time>
  <course>187.23</course>
  <speed>0.47675989764240867</speed>
  <fix>3d</fix>
</trkpt>
<trkpt lat="33.8102275" lon="-118.3938833">
  <ele>-11.83</ele>
  <time>2026-09-02T22:13:21Z</time>
  <course>188.73</course>
  <speed>0.5</speed>
  <fix>3d</fix>
</trkpt>
<trkpt lat="33.8102263" lon="-118.3938837">
  <ele>-12.02</ele>
  <time>2026-09-02T22:13:21Z</time>
  <course>187.22</course>
  <speed>0.47675989764240867</speed>
  <fix>3d</fix>
</trkpt>
<trkpt lat="33.8102266" lon="-118.3938834">
  <ele>-11.79</ele>
  <time>2026-09-02T22:13:21Z</time>
  <course>188.71</course>
  <speed>0.5</speed>
  <fix>3d</fix>
</trkpt>
<trkpt lat="33.8102258" lon="-118.3938837">
  <ele>-11.995</ele>
  <time>2026-09-02T22:13:21Z</time>
  <course>187.22</course>
  <speed>0.47853944456021597</speed>
  <fix>3d</fix>
</trkpt>
<trkpt lat="33.8102266" lon="-118.3938834">
  <ele>-11.79</ele>
  <time>2026-09-02T22:13:21Z</time>
  <course>188.71</course>
  <speed>0.5</speed>
  <fix>3d</fix>
</trkpt>
<trkpt lat="33.8102254" lon="-118.3938838">
  <ele>-11.971</ele>
  <time>2026-09-02T22:13:21Z</time>
  <course>187.22</course>
  <speed>0.47853944456021597</speed>
  <fix>3d</fix>
</trkpt>
<trkpt lat="33.8102257" lon="-118.3938837">
  <ele>-11.74</ele>
  <time>2026-09-02T22:13:21Z</time>
  <course>188.79</course>
  <speed>0.5</speed>
  <fix>3d</fix>
</trkpt>
<trkpt lat="33.810225" lon="-118.3938839">
  <ele>-11.948</ele>
  <time>2026-09-02T22:13:21Z</time>
  <course>187.22</course>
  <speed>0.47853944456021597</speed>
  <fix>3d</fix>
</trkpt>
<trkpt lat="33.8102257" lon="-118.3938837">
  <ele>-11.74</ele>
  <time>2026-09-02T22:13:21Z</time>
  <course>188.79</course>
  <speed>0.5</speed>
  <fix>3d</fix>
</trkpt>
<trkpt lat="33.8102245" lon="-118.393884">
  <ele>-11.926</ele>
  <time>2026-09-02T22:13:21Z</time>
  <course>187.21</course>
  <speed>0.47853944456021597</speed>
  <fix>3d</fix>
</trkpt>
<trkpt lat="33.8102248" lon="-118.3938838">
  <ele>-11.69</ele>
  <time>2026-09-02T22:13:21Z</time>
  <course>188.89</course>
  <speed>0.5</speed>
  <fix>3d</fix>
</trkpt>
<trkpt lat="33.8102241" lon="-118.3938841">
  <ele>-11.905</ele>
  <time>2026-09-02T22:13:21Z</time>
  <course>187.21</course>
  <speed>0.47853944456021597</speed>
  <fix>3d</fix>
</trkpt>
<trkpt lat="33.8102248" lon="-118.3938838">
  <ele>-11.69</ele>
  <time>2026-09-02T22:13:21Z</time>
  <course>188.89</course>
  <speed>0.5</speed>
  <fix>3d</fix>
</trkpt>
<trkpt lat="33.8102236" lon="-118.3938842">
  <ele>-11.884</ele>
  <time>2026-09-02T22:13:21Z</time>
  <course>187.21</course>
  <speed>0.47853944456021597</speed>
  <fix>3d</fix>
</trkpt>
<trkpt lat="33.810224" lon="-118.3938839">
  <ele>-11.65</ele>
  <time>2026-09-02T22:13:21Z</time>
  <course>188.93</course>
  <speed>0.49</speed>
  <fix>3d</fix>
</trkpt>
<trkpt lat="33.8102232" lon="-118.3938842">
  <ele>-11.862</ele>
  <time>2026-09-02T22:13:21Z</time>
  <course>187.21</course>
  <speed>0.47853944456021597</speed>
  <fix>3d</fix>
</trkpt>
<trkpt lat="33.810224" lon="-118.3938839">
  <ele>-11.65</ele>
  <time>2026-09-02T22:13:21Z</time>
  <course>188.93</course>
  <speed>0.49</speed>
  <fix>3d</fix>
</trkpt>
<trkpt lat="33.8102227" lon="-118.3938843">
  <ele>-11.84</ele>
  <time>2026-09-02T22:13:21Z</time>
  <course>187.2</course>
  <speed>0.47853944456021597</speed>
  <fix>3d</fix>
</trkpt>
<trkpt lat="33.8102231" lon="-118.3938842">
  <ele>-11.61</ele>
  <time>2026-09-02T22:13:21Z</time>
  <course>188.98</course>
  <speed>0.49</speed>
  <fix>3d</fix>
</trkpt>
<trkpt lat="33.8102223" lon="-118.3938844">
  <ele>-11.819</ele>
  <time>2026-09-02T22:13:21Z</time>
  <course>187.2</course>
  <speed>0.47853944456021597</speed>
  <fix>3d</fix>
</trkpt>
<trkpt lat="33.8102231" lon="-118.3938842">
  <ele>-11.61</ele>
  <time>2026-09-02T22:13:21Z</time>
  <course>188.98</course>
  <speed>0.49</speed>
  <fix>3d</fix>
</trkpt>
<trkpt lat="33.8102218" lon="-118.3938845">
  <ele>-11.8</ele>
  <time>2026-09-02T22:13:21Z</time>
  <course>187.2</course>
  <speed>0.47853944456021597</speed>
  <fix>3d</fix>
</trkpt>
<trkpt lat="33.8102222" lon="-118.3938843">
  <ele>-11.57</ele>
  <time>2026-09-02T22:13:21Z</time>
  <course>189.0</course>
  <speed>0.49</speed>
  <fix>3d</fix>
</trkpt>
<trkpt lat="33.8102214" lon="-118.3938846">
  <ele>-11.782</ele>
  <time>2026-09-02T22:13:21Z</time>
  <course>187.2</course>
  <speed>0.47853944456021597</speed>
  <fix>3d</fix>
</trkpt>
<trkpt lat="33.8102222" lon="-118.3938843">
  <ele>-11.57</ele>
  <time>2026-09-02T22:13:21Z</time>
  <course>189.0</course>
  <speed>0.49</speed>
  <fix>3d</fix>
</trkpt>
<trkpt lat="33.810221" lon="-118.3938847">
  <ele>-11.764</ele>
  <time>2026-09-02T22:13:21Z</time>
  <course>187.19</course>
  <speed>0.47853944456021597</speed>
  <fix>3d</fix>
</trkpt>
<trkpt lat="33.8102213" lon="-118.3938844">
  <ele>-11.53</ele>
  <time>2026-09-02T22:13:21Z</time>
  <course>188.95</course>
  <speed>0.5</speed>
  <fix>3d</fix>
</trkpt>
<trkpt lat="33.8102205" lon="-118.3938847">
  <ele>-11.748</ele>
  <time>2026-09-02T22:13:21Z</time>
  <course>187.19</course>
  <speed>0.47853944456021597</speed>
  <fix>3d</fix>
</trkpt>
<trkpt lat="33.8102213" lon="-118.3938844">
  <ele>-11.53</ele>
  <time>2026-09-02T22:13:21Z</time>
  <course>188.95</course>
  <speed>0.5</speed>
  <fix>3d</fix>
</trkpt>
<trkpt lat="33.8102201" lon="-118.3938848">
  <ele>-11.733</ele>
  <time>2026-09-02T22:13:21Z</time>
  <course>187.19</course>
  <speed>0.47853944456021597</speed>
  <fix>3d</fix>
</trkpt>
<trkpt lat="33.8102204" lon="-118.3938847">
  <ele>-11.49</ele>
  <time>2026-09-02T22:13:21Z</time>
  <course>188.95</course>
  <speed>0.5</speed>
  <fix>3d</fix>
</trkpt>
<trkpt lat="33.8102196" lon="-118.3938849">
  <ele>-11.72</ele>
  <time>2026-09-02T22:13:21Z</time>
  <course>187.19</course>
  <speed>0.47853944456021597</speed>
  <fix>3d</fix>
</trkpt>
<trkpt lat="33.8102204" lon="-118.3938847">
  <ele>-11.49</ele>
  <time>2026-09-02T22:13:21Z</time>
  <course>188.95</course>
  <speed>0.5</speed>
  <fix>3d</fix>
</trkpt>
<trkpt lat="33.8102192" lon="-118.393885">
  <ele>-11.708</ele>
  <time>2026-09-02T22:13:21Z</time>
  <course>187.18</course>
  <speed>0.47853944456021597</speed>
  <fix>3d</fix>
</trkpt>
<trkpt lat="33.8102195" lon="-118.3938848">
  <ele>-11.46</ele>
  <time>2026-09-02T22:13:21Z</time>
  <course>188.95</course>
  <speed>0.5</speed>
  <fix>3d</fix>
</trkpt>
<trkpt lat="33.8102187" lon="-118.3938851">
  <ele>-11.697</ele>
  <time>2026-09-02T22:13:21Z</time>
  <course>187.18</course>
  <speed>0.47853944456021597</speed>
  <fix>3d</fix>
</trkpt>
<trkpt lat="33.8102195" lon="-118.3938848">
  <ele>-11.46</ele>
  <time>2026-09-02T22:13:21Z</time>
  <course>188.95</course>
  <speed>0.5</speed>
  <fix>3d</fix>
</trkpt>
<trkpt lat="33.8102183" lon="-118.3938852">
  <ele>-11.684</ele>
  <time>2026-09-02T22:13:21Z</time>
  <course>187.18</course>
  <speed>0.47675989764240867</speed>
  <fix>3d</fix>
</trkpt>
<trkpt lat="33.8102186" lon="-118.3938849">
  <ele>-11.43</ele>
  <time>2026-09-02T22:13:21Z</time>
  <course>188.9</course>
  <speed>0.5</speed>
  <fix>3d</fix>
</trkpt>
<trkpt lat="33.8102178" lon="-118.3938852">
  <ele>-11.67</ele>
  <time>2026-09-02T22:13:21Z</time>
  <course>187.18</course>
  <speed>0.47853944456021597</speed>
  <fix>3d</fix>
</trkpt>
<trkpt lat="33.8102186" lon="-118.3938849">
  <ele>-11.43</ele>
  <time>2026-09-02T22:13:21Z</time>
  <course>188.9</course>
  <speed>0.5</speed>
  <fix>3d</fix>
</trkpt>
<trkpt lat="33.8102174" lon="-118.3938853">
  <ele>-11.655</ele>
  <time>2026-09-02T22:13:21Z</time>
  <course>187.18</course>
  <speed>0.47853944456021597</speed>
  <fix>3d</fix>
</trkpt>
<trkpt lat="33.8102177" lon="-118.3938852">
  <ele>-11.4</ele>
  <time>2026-09-02T22:13:21Z</time>
  <course>188.91</course>
  <speed>0.5</speed>
  <fix>3d</fix>
</trkpt>
<trkpt lat="33.8102169" lon="-118.3938854">
  <ele>-11.638</ele>
  <time>2026-09-02T22:13:21Z</time>
  <course>187.17</course>
  <speed>0.47853944456021597</speed>
  <fix>3d</fix>
</trkpt>
<trkpt lat="33.8102177" lon="-118.3938852">
  <ele>-11.4</ele>
  <time>2026-09-02T22:13:21Z</time>
  <course>188.91</course>
  <speed>0.5</speed>
  <fix>3d</fix>
</trkpt>
<trkpt lat="33.8102165" lon="-118.3938855">
  <ele>-11.621</ele>
  <time>2026-09-02T22:13:21Z</time>
  <course>187.17</course>
  <speed>0.47853944456021597</speed>
  <fix>3d</fix>
</trkpt>
<trkpt lat="33.8102168" lon="-118.3938853">
  <ele>-11.37</ele>
  <time>2026-09-02T22:13:21Z</time>
  <course>188.93</course>
  <speed>0.5</speed>
  <fix>3d</fix>
</trkpt>
<trkpt lat="33.8102161" lon="-118.3938856">
  <ele>-11.604</ele>
  <time>2026-09-02T22:13:21Z</time>
  <course>187.17</course>
  <speed>0.47853944456021597</speed>
  <fix>3d</fix>
</trkpt>
<trkpt lat="33.8102168" lon="-118.3938853">
  <ele>-11.37</ele>
  <time>2026-09-02T22:13:21Z</time>
  <course>188.93</course>
  <speed>0.5</speed>
  <fix>3d</fix>
</trkpt>
<trkpt lat="33.8102156" lon="-118.3938857">
  <ele>-11.587</ele>
  <time>2026-09-02T22:13:21Z</time>
  <course>187.16</course>
  <speed>0.47675989764240867</speed>
  <fix>3d</fix>
</trkpt>
<trkpt lat="33.8102159" lon="-118.3938854">
  <ele>-11.34</ele>
  <time>2026-09-02T22:13:21Z</time>
  <course>188.91</course>
  <speed>0.49</speed>
  <fix>3d</fix>
</trkpt>
<trkpt lat="33.8102152" lon="-118.3938857">
  <ele>-11.57</ele>
  <time>2026-09-02T22:13:21Z</time>
  <course>187.16</course>
  <speed>0.47853944456021597</speed>
  <fix>3d</fix>
</trkpt>
<trkpt lat="33.8102159" lon="-118.3938854">
  <ele>-11.34</ele>
  <time>2026-09-02T22:13:21Z</time>
  <course>188.91</course>
  <speed>0.49</speed>
  <fix>3d</fix>
</trkpt>
<trkpt lat="33.8102147" lon="-118.3938858">
  <ele>-11.554</ele>
  <time>2026-09-02T22:13:21Z</time>
  <course>187.16</course>
  <speed>0.47853944456021597</speed>
  <fix>3d</fix>
</trkpt>
<trkpt lat="33.8102151" lon="-118.3938857">
  <ele>-11.3</ele>
  <time>2026-09-02T22:13:21Z</time>
  <course>188.94</course>
  <speed>0.49</speed>
  <fix>3d</fix>
</trkpt>
<trkpt lat="33.8102143" lon="-118.3938859">
  <ele>-11.536</ele>
  <time>2026-09-02T22:13:21Z</time>
  <course>187.16</course>
  <speed>0.47853944456021597</speed>
  <fix>3d</fix>
</trkpt>
<trkpt lat="33.8102151" lon="-118.3938857">
  <ele>-11.3</ele>
  <time>2026-09-02T22:13:21Z</time>
  <course>188.94</course>
  <speed>0.49</speed>
  <fix>3d</fix>
</trkpt>
<trkpt lat="33.8102138" lon="-118.393886">
  <ele>-11.518</ele>
  <time>2026-09-02T22:13:21Z</time>
  <course>187.16</course>
  <speed>0.47675989764240867</speed>
  <fix>3d</fix>
</trkpt>
<trkpt lat="33.8102142" lon="-118.3938858">
  <ele>-11.27</ele>
  <time>2026-09-02T22:13:21Z</time>
  <course>188.97</course>
  <speed>0.49</speed>
  <fix>3d</fix>
</trkpt>
<trkpt lat="33.8102134" lon="-118.3938861">
  <ele>-11.499</ele>
  <time>2026-09-02T22:13:21Z</time>
  <course>187.15</course>
  <speed>0.47853944456021597</speed>
  <fix>3d</fix>
</trkpt>
<trkpt lat="33.8102142" lon="-118.3938858">
  <ele>-11.27</ele>
  <time>2026-09-02T22:13:21Z</time>
  <course>188.97</course>
  <speed>0.49</speed>
  <fix>3d</fix>
</trkpt>
<trkpt lat="33.8102129" lon="-118.3938862">
  <ele>-11.477</ele>
  <time>2026-09-02T22:13:21Z</time>
  <course>187.15</course>
  <speed>0.47675989764240867</speed>
  <fix>3d</fix>
</trkpt>
<trkpt lat="33.8102133" lon="-118.393886">
  <ele>-11.24</ele>
  <time>2026-09-02T22:13:21Z</time>
  <course>188.9</course>
  <speed>0.49</speed>
  <fix>3d</fix>
</trkpt>
<trkpt lat="33.8102125" lon="-118.3938862">
  <ele>-11.455</ele>
  <time>2026-09-02T22:13:21Z</time>
  <course>187.15</course>
  <speed>0.47675989764240867</speed>
  <fix>3d</fix>
</trkpt>
<trkpt lat="33.8102133" lon="-118.393886">
  <ele>-11.24</ele>
  <time>2026-09-02T22:13:21Z</time>
  <course>188.9</course>
  <speed>0.49</speed>
  <fix>3d</fix>
</trkpt>
<trkpt lat="33.8102121" lon="-118.3938863">
  <ele>-11.433</ele>
  <time>2026-09-02T22:13:21Z</time>
  <course>187.15</course>
  <speed>0.47675989764240867</speed>
  <fix>3d</fix>
</trkpt>
<trkpt lat="33.8102124" lon="-118.3938862">
  <ele>-11.2</ele>
  <time>2026-09-02T22:13:21Z</time>
  <course>188.83</course>
  <speed>0.49</speed>
  <fix>3d</fix>
</trkpt>
<trkpt lat="33.8102116" lon="-118.3938864">
  <ele>-11.412</ele>
  <time>2026-09-02T22:13:21Z</time>
  <course>187.15</course>
  <speed>0.47675989764240867</speed>
  <fix>3d</fix>
</trkpt>
<trkpt lat="33.8102124" lon="-118.3938862">
  <ele>-11.2</ele>
  <time>2026-09-02T22:13:21Z</time>
  <course>188.83</course>
  <speed>0.49</speed>
  <fix>3d</fix>
</trkpt>
<trkpt lat="33.8102112" lon="-118.3938865">
  <ele>-11.391</ele>
  <time>2026-09-02T22:13:21Z</time>
  <course>187.14</course>
  <speed>0.47675989764240867</speed>
  <fix>3d</fix>
</trkpt>
<trkpt lat="33.8102115" lon="-118.3938863">
  <ele>-11.16</ele>
  <time>2026-09-02T22:13:21Z</time>
  <course>188.73</course>
  <speed>0.5</speed>
  <fix>3d</fix>
</trkpt>
<trkpt lat="33.8102107" lon="-118.3938866">
  <ele>-11.372</ele>
  <time>2026-09-02T22:13:21Z</time>
  <course>187.14</course>
  <speed>0.47675989764240867</speed>
  <fix>3d</fix>
</trkpt>
<trkpt lat="33.8102115" lon="-118.3938863">
  <ele>-11.16</ele>
  <time>2026-09-02T22:13:21Z</time>
  <course>188.73</course>
  <speed>0.5</speed>
  <fix>3d</fix>
</trkpt>
<trkpt lat="33.8102103" lon="-118.3938867">
  <ele>-11.35</ele>
  <time>2026-09-02T22:13:21Z</time>
  <course>187.14</course>
  <speed>0.47675989764240867</speed>
  <fix>3d</fix>
</trkpt>
<trkpt lat="33.8102106" lon="-118.3938865">
  <ele>-11.12</ele>
  <time>2026-09-02T22:13:21Z</time>
  <course>188.64</course>
  <speed>0.5</speed>
  <fix>3d</fix>
</trkpt>
<trkpt lat="33.8102098" lon="-118.3938867">
  <ele>-11.326</ele>
  <time>2026-09-02T22:13:21Z</time>
  <course>187.14</course>
  <speed>0.47675989764240867</speed>
  <fix>3d</fix>
</trkpt>
<trkpt lat="33.8102106" lon="-118.3938865">
  <ele>-11.12</ele>
  <time>2026-09-02T22:13:21Z</time>
  <course>188.64</course>
  <speed>0.5</speed>
  <fix>3d</fix>
</trkpt>
<trkpt lat="33.8102094" lon="-118.3938868">
  <ele>-11.301</ele>
  <time>2026-09-02T22:13:21Z</time>
  <course>187.14</course>
  <speed>0.47675989764240867</speed>
  <fix>3d</fix>
</trkpt>
<trkpt lat="33.8102097" lon="-118.3938867">
  <ele>-11.08</ele>
  <time>2026-09-02T22:13:21Z</time>
  <course>188.61</course>
  <speed>0.5</speed>
  <fix>3d</fix>
</trkpt>
<trkpt lat="33.8102089" lon="-118.3938869">
  <ele>-11.276</ele>
  <time>2026-09-02T22:13:21Z</time>
  <course>187.14</course>
  <speed>0.47675989764240867</speed>
  <fix>3d</fix>
</trkpt>
<trkpt lat="33.8102097" lon="-118.3938867">
  <ele>-11.08</ele>
  <time>2026-09-02T22:13:21Z</time>
  <course>188.61</course>
  <speed>0.5</speed>
  <fix>3d</fix>
</trkpt>
<trkpt lat="33.8102085" lon="-118.393887">
  <ele>-11.251</ele>
  <time>2026-09-02T22:13:21Z</time>
  <course>187.13</course>
  <speed>0.47675989764240867</speed>
  <fix>3d</fix>
</trkpt>
<trkpt lat="33.8102089" lon="-118.3938868">
  <ele>-11.03</ele>
  <time>2026-09-02T22:13:21Z</time>
  <course>188.57</course>
  <speed>0.49</speed>
  <fix>3d</fix>
</trkpt>
<trkpt lat="33.8102081" lon="-118.3938871">
  <ele>-11.227</ele>
  <time>2026-09-02T22:13:21Z</time>
  <course>187.13</course>
  <speed>0.47675989764240867</speed>
  <fix>3d</fix>
</trkpt>
<trkpt lat="33.8102089" lon="-118.3938868">
  <ele>-11.03</ele>
  <time>2026-09-02T22:13:21Z</time>
  <course>188.57</course>
  <speed>0.49</speed>
  <fix>3d</fix>
</trkpt>
<trkpt lat="33.8102076" lon="-118.3938872">
  <ele>-11.202</ele>
  <time>2026-09-02T22:13:21Z</time>
  <course>187.13</course>
  <speed>0.47675989764240867</speed>
  <fix>3d</fix>
</trkpt>
<trkpt lat="33.810208" lon="-118.393887">
  <ele>-10.98</ele>
  <time>2026-09-02T22:13:21Z</time>
  <course>188.54</course>
  <speed>0.49</speed>
  <fix>3d</fix>
</trkpt>
<trkpt lat="33.8102072" lon="-118.3938872">
  <ele>-11.178</ele>
  <time>2026-09-02T22:13:21Z</time>
  <course>187.13</course>
  <speed>0.47675989764240867</speed>
  <fix>3d</fix>
</trkpt>
<trkpt lat="33.810208" lon="-118.393887">
  <ele>-10.98</ele>
  <time>2026-09-02T22:13:21Z</time>
  <course>188.54</course>
  <speed>0.49</speed>
  <fix>3d</fix>
</trkpt>
<trkpt lat="33.8102067" lon="-118.3938873">
  <ele>-11.154</ele>
  <time>2026-09-02T22:13:21Z</time>
  <course>187.13</course>
  <speed>0.47675989764240867</speed>
  <fix>3d</fix>
</trkpt>
<trkpt lat="33.8102071" lon="-118.3938871">
  <ele>-10.94</ele>
  <time>2026-09-02T22:13:21Z</time>
  <course>188.53</course>
  <speed>0.5</speed>
  <fix>3d</fix>
</trkpt>
<trkpt lat="33.8102063" lon="-118.3938874">
  <ele>-11.13</ele>
  <time>2026-09-02T22:13:21Z</time>
  <course>187.12</course>
  <speed>0.47675989764240867</speed>
  <fix>3d</fix>
</trkpt>
<trkpt lat="33.8102071" lon="-118.3938871">
  <ele>-10.94</ele>
  <time>2026-09-02T22:13:21Z</time>
  <course>188.53</course>
  <speed>0.5</speed>
  <fix>3d</fix>
</trkpt>
<trkpt lat="33.8102058" lon="-118.3938875">
  <ele>-11.106</ele>
  <time>2026-09-02T22:13:21Z</time>
  <course>187.12</course>
  <speed>0.47675989764240867</speed>
  <fix>3d</fix>
</trkpt>
<trkpt lat="33.8102062" lon="-118.3938873">
  <ele>-10.9</ele>
  <time>2026-09-02T22:13:21Z</time>
  <course>188.56</course>
  <speed>0.5</speed>
  <fix>3d</fix>
</trkpt>
<trkpt lat="33.8102054" lon="-118.3938876">
  <ele>-11.084</ele>
  <time>2026-09-02T22:13:21Z</time>
  <course>187.12</course>
  <speed>0.47675989764240867</speed>
  <fix>3d</fix>
</trkpt>
<trkpt lat="33.8102062" lon="-118.3938873">
  <ele>-10.9</ele>
  <time>2026-09-02T22:13:21Z</time>
  <course>188.56</course>
  <speed>0.5</speed>
  <fix>3d</fix>
</trkpt>
<trkpt lat="33.8102049" lon="-118.3938876">
  <ele>-11.064</ele>
  <time>2026-09-02T22:13:21Z</time>
  <course>187.12</course>
  <speed>0.47675989764240867</speed>
  <fix>3d</fix>
</trkpt>
<trkpt lat="33.8102053" lon="-118.3938875">
  <ele>-10.85</ele>
  <time>2026-09-02T22:13:21Z</time>
  <course>188.63</course>
  <speed>0.5</speed>
  <fix>3d</fix>
</trkpt>
<trkpt lat="33.8102045" lon="-118.3938877">
  <ele>-11.043</ele>
  <time>2026-09-02T22:13:21Z</time>
  <course>187.11</course>
  <speed>0.47675989764240867</speed>
  <fix>3d</fix>
</trkpt>
<trkpt lat="33.8102053" lon="-118.3938875">
  <ele>-10.85</ele>
  <time>2026-09-02T22:13:21Z</time>
  <course>188.63</course>
  <speed>0.5</speed>
  <fix>3d</fix>
</trkpt>
<trkpt lat="33.8102041" lon="-118.3938878">
  <ele>-11.022</ele>
  <time>2026-09-02T22:13:21Z</time>
  <course>187.11</course>
  <speed>0.47675989764240867</speed>
  <fix>3d</fix>
</trkpt>
<trkpt lat="33.8102044" lon="-118.3938876">
  <ele>-10.8</ele>
  <time>2026-09-02T22:13:21Z</time>
  <course>188.66</course>
  <speed>0.5</speed>
  <fix>3d</fix>
</trkpt>
<trkpt lat="33.8102036" lon="-118.3938879">
  <ele>-11.002</ele>
  <time>2026-09-02T22:13:21Z</time>
  <course>187.11</course>
  <speed>0.47675989764240867</speed>
  <fix>3d</fix>
</trkpt>
<trkpt lat="33.8102044" lon="-118.3938876">
  <ele>-10.8</ele>
  <time>2026-09-02T22:13:21Z</time>
  <course>188.66</course>
  <speed>0.5</speed>
  <fix>3d</fix>
</trkpt>
<trkpt lat="33.8102032" lon="-118.393888">
  <ele>-10.981</ele>
  <time>2026-09-02T22:13:21Z</time>
  <course>187.11</course>
  <speed>0.47675989764240867</speed>
  <fix>3d</fix>
</trkpt>
<trkpt lat="33.8102035" lon="-118.3938877">
  <ele>-10.77</ele>
  <time>2026-09-02T22:13:21Z</time>
  <course>188.68</course>
  <speed>0.5</speed>
  <fix>3d</fix>
</trkpt>
<trkpt lat="33.8102027" lon="-118.3938881">
  <ele>-10.961</ele>
  <time>2026-09-02T22:13:21Z</time>
  <course>187.11</course>
  <speed>0.47853944456021597</speed>
  <fix>3d</fix>
</trkpt>
<trkpt lat="33.8102035" lon="-118.3938877">
  <ele>-10.77</ele>
  <time>2026-09-02T22:13:21Z</time>
  <course>188.68</course>
  <speed>0.5</speed>
  <fix>3d</fix>
</trkpt>
<trkpt lat="33.8102023" lon="-118.3938881">
  <ele>-10.942</ele>
  <time>2026-09-02T22:13:21Z</time>
  <course>187.11</course>
  <speed>0.47853944456021597</speed>
  <fix>3d</fix>
</trkpt>
<trkpt lat="33.8102026" lon="-118.393888">
  <ele>-10.73</ele>
  <time>2026-09-02T22:13:21Z</time>
  <course>188.78</course>
  <speed>0.5</speed>
  <fix>3d</fix>
</trkpt>
<trkpt lat="33.8102018" lon="-118.3938882">
  <ele>-10.924</ele>
  <time>2026-09-02T22:13:21Z</time>
  <course>187.11</course>
  <speed>0.47853944456021597</speed>
  <fix>3d</fix>
</trkpt>
<trkpt lat="33.8102026" lon="-118.393888">
  <ele>-10.73</ele>
  <time>2026-09-02T22:13:21Z</time>
  <course>188.78</course>
  <speed>0.5</speed>
  <fix>3d</fix>
</trkpt>
<trkpt lat="33.8102014" lon="-118.3938883">
  <ele>-10.907</ele>
  <time>2026-09-02T22:13:21Z</time>
  <course>187.11</course>
  <speed>0.47853944456021597</speed>
  <fix>3d</fix>
</trkpt>
<trkpt lat="33.8102017" lon="-118.3938881">
  <ele>-10.69</ele>
  <time>2026-09-02T22:13:21Z</time>
  <course>188.87</course>
  <speed>0.5</speed>
  <fix>3d</fix>
</trkpt>
<trkpt lat="33.8102009" lon="-118.3938884">
  <ele>-10.891</ele>
  <time>2026-09-02T22:13:21Z</time>
  <course>187.1</course>
  <speed>0.47853944456021597</speed>
  <fix>3d</fix>
</trkpt>
<trkpt lat="33.8102017" lon="-118.3938881">
  <ele>-10.69</ele>
  <time>2026-09-02T22:13:21Z</time>
  <course>188.87</course>
  <speed>0.5</speed>
  <fix>3d</fix>
</trkpt>
<trkpt lat="33.8102005" lon="-118.3938885">
  <ele>-10.873</ele>
  <time>2026-09-02T22:13:21Z</time>
  <course>187.1</course>
  <speed>0.47853944456021597</speed>
  <fix>3d</fix>
</trkpt>
<trkpt lat="33.8102008" lon="-118.3938882">
  <ele>-10.65</ele>
  <time>2026-09-02T22:13:21Z</time>
  <course>188.89</course>
  <speed>0.5</speed>
  <fix>3d</fix>
</trkpt>
<trkpt lat="33.8102" lon="-118.3938885">
  <ele>-10.856</ele>
  <time>2026-09-02T22:13:21Z</time>
  <course>187.1</course>
  <speed>0.47853944456021597</speed>
  <fix>3d</fix>
</trkpt>
<trkpt lat="33.8102008" lon="-118.3938882">
  <ele>-10.65</ele>
  <time>2026-09-02T22:13:21Z</time>
  <course>188.89</course>
  <speed>0.5</speed>
  <fix>3d</fix>
</trkpt>
<trkpt lat="33.8101996" lon="-118.3938886">
  <ele>-10.839</ele>
  <time>2026-09-02T22:13:21Z</time>
  <course>187.1</course>
  <speed>0.47853944456021597</speed>
  <fix>3d</fix>
</trkpt>
<trkpt lat="33.8101999" lon="-118.3938885">
  <ele>-10.62</ele>
  <time>2026-09-02T22:13:21Z</time>
  <course>188.95</course>
  <speed>0.49</speed>
  <fix>3d</fix>
</trkpt>
<trkpt lat="33.8101991" lon="-118.3938887">
  <ele>-10.82</ele>
  <time>2026-09-02T22:13:21Z</time>
  <course>187.1</course>
  <speed>0.4687216658103186</speed>
  <fix>3d</fix>
</trkpt>
<trkpt lat="33.8101999" lon="-118.3938885">
  <ele>-10.62</ele>
  <time>2026-09-02T22:13:21Z</time>
  <course>188.95</course>
  <speed>0.49</speed>
  <fix>3d</fix>
</trkpt>
<trkpt lat="33.8101987" lon="-118.3938888">
  <ele>-10.801</ele>
  <time>2026-09-02T22:13:21Z</time>
  <course>187.1</course>
  <speed>0.47853944456021597</speed>
  <fix>3d</fix>
</trkpt>
<trkpt lat="33.8101991" lon="-118.3938886">
  <ele>-10.58</ele>
  <time>2026-09-02T22:13:21Z</time>
  <course>188.99</course>
  <speed>0.49</speed>
  <fix>3d</fix>
</trkpt>
<trkpt lat="33.8101983" lon="-118.3938889">
  <ele>-10.781</ele>
  <time>2026-09-02T22:13:21Z</time>
  <course>187.09</course>
  <speed>0.47853944456021597</speed>
  <fix>3d</fix>
</trkpt>
<trkpt lat="33.8101991" lon="-118.3938886">
  <ele>-10.58</ele>
  <time>2026-09-02T22:13:21Z</time>
  <course>188.99</course>
  <speed>0.49</speed>
  <fix>3d</fix>
</trkpt>
<trkpt lat="33.8101978" lon="-118.393889">
  <ele>-10.763</ele>
  <time>2026-09-02T22:13:21Z</time>
  <course>187.09</course>
  <speed>0.47853944456021597</speed>
  <fix>3d</fix>
</trkpt>
<trkpt lat="33.8101982" lon="-118.3938887">
  <ele>-10.54</ele>
  <time>2026-09-02T22:13:21Z</time>
  <course>188.95</course>
  <speed>0.49</speed>
  <fix>3d</fix>
</trkpt>
<trkpt lat="33.8101974" lon="-118.393889">
  <ele>-10.747</ele>
  <time>2026-09-02T22:13:21Z</time>
  <course>187.09</course>
  <speed>0.47853944456021597</speed>
  <fix>3d</fix>
</trkpt>
<trkpt lat="33.8101982" lon="-118.3938887">
  <ele>-10.54</ele>
  <time>2026-09-02T22:13:21Z</time>
  <course>188.95</course>
  <speed>0.49</speed>
  <fix>3d</fix>
</trkpt>
<trkpt lat="33.8101969" lon="-118.3938891">
  <ele>-10.73</ele>
  <time>2026-09-02T22:13:21Z</time>
  <course>187.09</course>
  <speed>0.47853944456021597</speed>
  <fix>3d</fix>
</trkpt>
<trkpt lat="33.8101973" lon="-118.393889">
  <ele>-10.51</ele>
  <time>2026-09-02T22:13:21Z</time>
  <course>188.95</course>
  <speed>0.49</speed>
  <fix>3d</fix>
</trkpt>
<trkpt lat="33.8101965" lon="-118.3938892">
  <ele>-10.713</ele>
  <time>2026-09-02T22:13:21Z</time>
  <course>187.09</course>
  <speed>0.47853944456021597</speed>
  <fix>3d</fix>
</trkpt>
<trkpt lat="33.8101973" lon="-118.393889">
  <ele>-10.51</ele>
  <time>2026-09-02T22:13:21Z</time>
  <course>188.95</course>
  <speed>0.49</speed>
  <fix>3d</fix>
</trkpt>
<trkpt lat="33.810196" lon="-118.3938893">
  <ele>-10.697</ele>
  <time>2026-09-02T22:13:21Z</time>
  <course>187.09</course>
  <speed>0.47853944456021597</speed>
  <fix>3d</fix>
</trkpt>
<trkpt lat="33.8101964" lon="-118.3938891">
  <ele>-10.48</ele>
  <time>2026-09-02T22:13:21Z</time>
  <course>188.94</course>
  <speed>0.5</speed>
  <fix>3d</fix>
</trkpt>
<trkpt lat="33.8101956" lon="-118.3938894">
  <ele>-10.68</ele>
  <time>2026-09-02T22:13:21Z</time>
  <course>187.09</course>
  <speed>0.47853944456021597</speed>
  <fix>3d</fix>
</trkpt>
<trkpt lat="33.8101964" lon="-118.3938891">
  <ele>-10.48</ele>
  <time>2026-09-02T22:13:21Z</time>
  <course>188.94</course>
  <speed>0.5</speed>
  <fix>3d</fix>
</trkpt>
<trkpt lat="33.8101952" lon="-118.3938895">
  <ele>-10.663</ele>
  <time>2026-09-02T22:13:21Z</time>
  <course>187.09</course>
  <speed>0.47853944456021597</speed>
  <fix>3d</fix>
</trkpt>
<trkpt lat="33.8101955" lon="-118.3938892">
  <ele>-10.45</ele>
  <time>2026-09-02T22:13:21Z</time>
  <course>188.88</course>
  <speed>0.5</speed>
  <fix>3d</fix>
</trkpt>
<trkpt lat="33.8101947" lon="-118.3938895">
  <ele>-10.646</ele>
  <time>2026-09-02T22:13:21Z</time>
  <course>187.09</course>
  <speed>0.47853944456021597</speed>
  <fix>3d</fix>
</trkpt>
<trkpt lat="33.8101955" lon="-118.3938892">
  <ele>-10.45</ele>
  <time>2026-09-02T22:13:21Z</time>
  <course>188.88</course>
  <speed>0.5</speed>
  <fix>3d</fix>
</trkpt>
<trkpt lat="33.8101943" lon="-118.3938896">
  <ele>-10.627</ele>
  <time>2026-09-02T22:13:21Z</time>
  <course>187.08</course>
  <speed>0.47853944456021597</speed>
  <fix>3d</fix>
</trkpt>
<trkpt lat="33.8101946" lon="-118.3938895">
  <ele>-10.41</ele>
  <time>2026-09-02T22:13:21Z</time>
  <course>188.88</course>
  <speed>0.5</speed>
  <fix>3d</fix>
</trkpt>
<trkpt lat="33.8101938" lon="-118.3938897">
  <ele>-10.606</ele>
  <time>2026-09-02T22:13:21Z</time>
  <course>187.08</course>
  <speed>0.47853944456021597</speed>
  <fix>3d</fix>
</trkpt>
<trkpt lat="33.8101946" lon="-118.3938895">
  <ele>-10.41</ele>
  <time>2026-09-02T22:13:21Z</time>
  <course>188.88</course>
  <speed>0.5</speed>
  <fix>3d</fix>
</trkpt>
<trkpt lat="33.8101934" lon="-118.3938898">
  <ele>-10.584</ele>
  <time>2026-09-02T22:13:21Z</time>
  <course>187.08</course>
  <speed>0.47853944456021597</speed>
  <fix>3d</fix>
</trkpt>
<trkpt lat="33.8101937" lon="-118.3938896">
  <ele>-10.37</ele>
  <time>2026-09-02T22:13:21Z</time>
  <course>188.9</course>
  <speed>0.5</speed>
  <fix>3d</fix>
</trkpt>
<trkpt lat="33.8101929" lon="-118.3938899">
  <ele>-10.56</ele>
  <time>2026-09-02T22:13:21Z</time>
  <course>187.08</course>
  <speed>0.47853944456021597</speed>
  <fix>3d</fix>
</trkpt>
<trkpt lat="33.8101937" lon="-118.3938896">
  <ele>-10.37</ele>
  <time>2026-09-02T22:13:21Z</time>
  <course>188.9</course>
  <speed>0.5</speed>
  <fix>3d</fix>
</trkpt>
<trkpt lat="33.8101925" lon="-118.39389">
  <ele>-10.538</ele>
  <time>2026-09-02T22:13:21Z</time>
  <course>187.08</course>
  <speed>0.47853944456021597</speed>
  <fix>3d</fix>
</trkpt>
<trkpt lat="33.8101928" lon="-118.3938897">
  <ele>-10.33</ele>
  <time>2026-09-02T22:13:21Z</time>
  <course>188.87</course>
  <speed>0.49</speed>
  <fix>3d</fix>
</trkpt>
<trkpt lat="33.810192" lon="-118.39389">
  <ele>-10.514</ele>
  <time>2026-09-02T22:13:21Z</time>
  <course>187.08</course>
  <speed>0.47853944456021597</speed>
  <fix>3d</fix>
</trkpt>
<trkpt lat="33.8101928" lon="-118.3938897">
  <ele>-10.33</ele>
  <time>2026-09-02T22:13:21Z</time>
  <course>188.87</course>
  <speed>0.49</speed>
  <fix>3d</fix>
</trkpt>
<trkpt lat="33.8101916" lon="-118.3938901">
  <ele>-10.49</ele>
  <time>2026-09-02T22:13:21Z</time>
  <course>187.08</course>
  <speed>0.47853944456021597</speed>
  <fix>3d</fix>
</trkpt>
<trkpt lat="33.810192" lon="-118.39389">
  <ele>-10.29</ele>
  <time>2026-09-02T22:13:21Z</time>
  <course>188.91</course>
  <speed>0.49</speed>
  <fix>3d</fix>
</trkpt>
<trkpt lat="33.8101912" lon="-118.3938902">
  <ele>-10.466</ele>
  <time>2026-09-02T22:13:21Z</time>
  <course>187.08</course>
  <speed>0.47853944456021597</speed>
  <fix>3d</fix>
</trkpt>
<trkpt lat="33.810192" lon="-118.39389">
  <ele>-10.29</ele>
  <time>2026-09-02T22:13:21Z</time>
  <course>188.91</course>
  <speed>0.49</speed>
  <fix>3d</fix>
</trkpt>
<trkpt lat="33.8101907" lon="-118.3938903">
  <ele>-10.442</ele>
  <time>2026-09-02T22:13:21Z</time>
  <course>187.07</course>
  <speed>0.47853944456021597</speed>
  <fix>3d</fix>
</trkpt>
<trkpt lat="33.8101911" lon="-118.3938901">
  <ele>-10.24</ele>
  <time>2026-09-02T22:13:21Z</time>
  <course>188.92</course>
  <speed>0.49</speed>
  <fix>3d</fix>
</trkpt>
<trkpt lat="33.8101903" lon="-118.3938904">
  <ele>-10.42</ele>
  <time>2026-09-02T22:13:21Z</time>
  <course>187.07</course>
  <speed>0.47853944456021597</speed>
  <fix>3d</fix>
</trkpt>
<trkpt lat="33.8101911" lon="-118.3938901">
  <ele>-10.24</ele>
  <time>2026-09-02T22:13:21Z</time>
  <course>188.92</course>
  <speed>0.49</speed>
  <fix>3d</fix>
</trkpt>
<trkpt lat="33.8101898" lon="-118.3938905">
  <ele>-10.397</ele>
  <time>2026-09-02T22:13:21Z</time>
  <course>187.07</course>
  <speed>0.47675989764240867</speed>
  <fix>3d</fix>
</trkpt>
<trkpt lat="33.8101902" lon="-118.3938903">
  <ele>-10.2</ele>
  <time>2026-09-02T22:13:21Z</time>
  <course>188.84</course>
  <speed>0.5</speed>
  <fix>3d</fix>
</trkpt>
<trkpt lat="33.8101894" lon="-118.3938905">
  <ele>-10.376</ele>
  <time>2026-09-02T22:13:21Z</time>
  <course>187.07</course>
  <speed>0.47675989764240867</speed>
  <fix>3d</fix>
</trkpt>
<trkpt lat="33.8101902" lon="-118.3938903">
  <ele>-10.2</ele>
  <time>2026-09-02T22:13:21Z</time>
  <course>188.84</course>
  <speed>0.5</speed>
  <fix>3d</fix>
</trkpt>
<trkpt lat="33.810189" lon="-118.3938906">
  <ele>-10.355</ele>
  <time>2026-09-02T22:13:21Z</time>
  <course>187.07</course>
  <speed>0.47675989764240867</speed>
  <fix>3d</fix>
</trkpt>
<trkpt lat="33.8101893" lon="-118.3938905">
  <ele>-10.16</ele>
  <time>2026-09-02T22:13:21Z</time>
  <course>188.76</course>
  <speed>0.5</speed>
  <fix>3d</fix>
</trkpt>
<trkpt lat="33.8101885" lon="-118.3938907">
  <ele>-10.334</ele>
  <time>2026-09-02T22:13:21Z</time>
  <course>187.07</course>
  <speed>0.47675989764240867</speed>
  <fix>3d</fix>
</trkpt>
<trkpt lat="33.8101893" lon="-118.3938905">
  <ele>-10.16</ele>
  <time>2026-09-02T22:13:21Z</time>
  <course>188.76</course>
  <speed>0.5</speed>
  <fix>3d</fix>
</trkpt>
<trkpt lat="33.8101881" lon="-118.3938908">
  <ele>-10.313</ele>
  <time>2026-09-02T22:13:21Z</time>
  <course>187.06</course>
  <speed>0.47675989764240867</speed>
  <fix>3d</fix>
</trkpt>
<trkpt lat="33.8101884" lon="-118.3938906">
  <ele>-10.12</ele>
  <time>2026-09-02T22:13:21Z</time>
  <course>188.68</course>
  <speed>0.5</speed>
  <fix>3d</fix>
</trkpt>
<trkpt lat="33.8101876" lon="-118.3938909">
  <ele>-10.292</ele>
  <time>2026-09-02T22:13:21Z</time>
  <course>187.06</course>
  <speed>0.47675989764240867</speed>
  <fix>3d</fix>
</trkpt>
<trkpt lat="33.8101884" lon="-118.3938906">
  <ele>-10.12</ele>
  <time>2026-09-02T22:13:21Z</time>
  <course>188.68</course>
  <speed>0.5</speed>
  <fix>3d</fix>
</trkpt>
<trkpt lat="33.8101872" lon="-118.393891">
  <ele>-10.272</ele>
  <time>2026-09-02T22:13:21Z</time>
  <course>187.06</course>
  <speed>0.47675989764240867</speed>
  <fix>3d</fix>
</trkpt>
<trkpt lat="33.8101875" lon="-118.3938908">
  <ele>-10.08</ele>
  <time>2026-09-02T22:13:21Z</time>
  <course>188.61</course>
  <speed>0.5</speed>
  <fix>3d</fix>
</trkpt>
<trkpt lat="33.8101867" lon="-118.393891">
  <ele>-10.25</ele>
  <time>2026-09-02T22:13:21Z</time>
  <course>187.06</course>
  <speed>0.47675989764240867</speed>
  <fix>3d</fix>
</trkpt>
<trkpt lat="33.8101875" lon="-118.3938908">
  <ele>-10.08</ele>
  <time>2026-09-02T22:13:21Z</time>
  <course>188.61</course>
  <speed>0.5</speed>
  <fix>3d</fix>
</trkpt>
<trkpt lat="33.8101863" lon="-118.3938911">
  <ele>-10.226</ele>
  <time>2026-09-02T22:13:21Z</time>
  <course>187.06</course>
  <speed>0.47675989764240867</speed>
  <fix>3d</fix>
</trkpt>
<trkpt lat="33.8101866" lon="-118.393891">
  <ele>-10.04</ele>
  <time>2026-09-02T22:13:21Z</time>
  <course>188.58</course>
  <speed>0.5</speed>
  <fix>3d</fix>
</trkpt>
<trkpt lat="33.8101858" lon="-118.3938912">
  <ele>-10.204</ele>
  <time>2026-09-02T22:13:21Z</time>
  <course>187.06</course>
  <speed>0.47675989764240867</speed>
  <fix>3d</fix>
</trkpt>
<trkpt lat="33.8101866" lon="-118.393891">
  <ele>-10.04</ele>
  <time>2026-09-02T22:13:21Z</time>
  <course>188.58</course>
  <speed>0.5</speed>
  <fix>3d</fix>
</trkpt>
<trkpt lat="33.8101854" lon="-118.3938913">
  <ele>-10.183</ele>
  <time>2026-09-02T22:13:21Z</time>
  <course>187.06</course>
  <speed>0.47675989764240867</speed>
  <fix>3d</fix>
</trkpt>
<trkpt lat="33.8101857" lon="-118.3938911">
  <ele>-9.99</ele>
  <time>2026-09-02T22:13:21Z</time>
  <course>188.55</course>
  <speed>0.5</speed>
  <fix>3d</fix>
</trkpt>
<trkpt lat="33.8101849" lon="-118.3938914">
  <ele>-10.163</ele>
  <time>2026-09-02T22:13:21Z</time>
  <course>187.06</course>
  <speed>0.47675989764240867</speed>
  <fix>3d</fix>
</trkpt>
<trkpt lat="33.8101857" lon="-118.3938911">
  <ele>-9.99</ele>
  <time>2026-09-02T22:13:21Z</time>
  <course>188.55</course>
  <speed>0.5</speed>
  <fix>3d</fix>
</trkpt>
<trkpt lat="33.8101845" lon="-118.3938915">
  <ele>-10.142</ele>
  <time>2026-09-02T22:13:21Z</time>
  <course>187.06</course>
  <speed>0.47675989764240867</speed>
  <fix>3d</fix>
</trkpt>
<trkpt lat="33.8101848" lon="-118.3938913">
  <ele>-9.95</ele>
  <time>2026-09-02T22:13:21Z</time>
  <course>188.53</course>
  <speed>0.5</speed>
  <fix>3d</fix>
</trkpt>
<trkpt lat="33.8101841" lon="-118.3938915">
  <ele>-10.121</ele>
  <time>2026-09-02T22:13:21Z</time>
  <course>187.06</course>
  <speed>0.47675989764240867</speed>
  <fix>3d</fix>
</trkpt>
<trkpt lat="33.8101848" lon="-118.3938913">
  <ele>-9.95</ele>
  <time>2026-09-02T22:13:21Z</time>
  <course>188.53</course>
  <speed>0.5</speed>
  <fix>3d</fix>
</trkpt>
<trkpt lat="33.8101836" lon="-118.3938916">
  <ele>-10.1</ele>
  <time>2026-09-02T22:13:21Z</time>
  <course>187.05</course>
  <speed>0.47675989764240867</speed>
  <fix>3d</fix>
</trkpt>
<trkpt lat="33.8101839" lon="-118.3938914">
  <ele>-9.91</ele>
  <time>2026-09-02T22:13:21Z</time>
  <course>188.56</course>
  <speed>0.5</speed>
  <fix>3d</fix>
</trkpt>
<trkpt lat="33.8101832" lon="-118.3938917">
  <ele>-10.08</ele>
  <time>2026-09-02T22:13:21Z</time>
  <course>187.05</course>
  <speed>0.47675989764240867</speed>
  <fix>3d</fix>
</trkpt>
<trkpt lat="33.8101839" lon="-118.3938914">
  <ele>-9.91</ele>
  <time>2026-09-02T22:13:21Z</time>
  <course>188.56</course>
  <speed>0.5</speed>
  <fix>3d</fix>
</trkpt>
<trkpt lat="33.8101827" lon="-118.3938918">
  <ele>-10.059</ele>
  <time>2026-09-02T22:13:21Z</time>
  <course>187.05</course>
  <speed>0.47675989764240867</speed>
  <fix>3d</fix>
</trkpt>
<trkpt lat="33.810183" lon="-118.3938916">
  <ele>-9.87</ele>
  <time>2026-09-02T22:13:21Z</time>
  <course>188.62</course>
  <speed>0.5</speed>
  <fix>3d</fix>
</trkpt>
<trkpt lat="33.8101823" lon="-118.3938919">
  <ele>-10.041</ele>
  <time>2026-09-02T22:13:21Z</time>
  <course>187.05</course>
  <speed>0.47853944456021597</speed>
  <fix>3d</fix>
</trkpt>
<trkpt lat="33.810183" lon="-118.3938916">
  <ele>-9.87</ele>
  <time>2026-09-02T22:13:21Z</time>
  <course>188.62</course>
  <speed>0.5</speed>
  <fix>3d</fix>
</trkpt>
<trkpt lat="33.8101818" lon="-118.3938919">
  <ele>-10.025</ele>
  <time>2026-09-02T22:13:21Z</time>
  <course>187.05</course>
  <speed>0.47853944456021597</speed>
  <fix>3d</fix>
</trkpt>
<trkpt lat="33.8101821" lon="-118.3938918">
  <ele>-9.84</ele>
  <time>2026-09-02T22:13:21Z</time>
  <course>188.71</course>
  <speed>0.5</speed>
  <fix>3d</fix>
</trkpt>
<trkpt lat="33.8101814" lon="-118.393892">
  <ele>-10.009</ele>
  <time>2026-09-02T22:13:21Z</time>
  <course>187.05</course>
  <speed>0.47853944456021597</speed>
  <fix>3d</fix>
</trkpt>
<trkpt lat="33.8101821" lon="-118.3938918">
  <ele>-9.84</ele>
  <time>2026-09-02T22:13:21Z</time>
  <course>188.71</course>
  <speed>0.5</speed>
  <fix>3d</fix>
</trkpt>
<trkpt lat="33.8101809" lon="-118.3938921">
  <ele>-9.992</ele>
  <time>2026-09-02T22:13:21Z</time>
  <course>187.05</course>
  <speed>0.47675989764240867</speed>
  <fix>3d</fix>
</trkpt>
<trkpt lat="33.8101812" lon="-118.3938919">
  <ele>-9.8</ele>
  <time>2026-09-02T22:13:21Z</time>
  <course>188.76</course>
  <speed>0.5</speed>
  <fix>3d</fix>
</trkpt>
<trkpt lat="33.8101805" lon="-118.3938922">
  <ele>-9.975</ele>
  <time>2026-09-02T22:13:21Z</time>
  <course>187.05</course>
  <speed>0.4687216658103186</speed>
  <fix>3d</fix>
</trkpt>
<trkpt lat="33.8101812" lon="-118.3938919">
  <ele>-9.8</ele>
  <time>2026-09-02T22:13:21Z</time>
  <course>188.76</course>
  <speed>0.5</speed>
  <fix>3d</fix>
</trkpt>
<trkpt lat="33.81018" lon="-118.3938923">
  <ele>-9.958</ele>
  <time>2026-09-02T22:13:21Z</time>
  <course>187.05</course>
  <speed>0.4687216658103186</speed>
  <fix>3d</fix>
</trkpt>
<trkpt lat="33.8101803" lon="-118.393892">
  <ele>-9.77</ele>
  <time>2026-09-02T22:13:21Z</time>
  <course>188.78</course>
  <speed>0.49</speed>
  <fix>3d</fix>
</trkpt>
<trkpt lat="33.8101796" lon="-118.3938924">
  <ele>-9.94</ele>
  <time>2026-09-02T22:13:21Z</time>
  <course>187.05</course>
  <speed>0.4687216658103186</speed>
  <fix>3d</fix>
</trkpt>
<trkpt lat="33.8101803" lon="-118.393892">
  <ele>-9.77</ele>
  <time>2026-09-02T22:13:21Z</time>
  <course>188.78</course>
  <speed>0.49</speed>
  <fix>3d</fix>
</trkpt>
<trkpt lat="33.8101791" lon="-118.3938924">
  <ele>-9.923</ele>
  <time>2026-09-02T22:13:21Z</time>
  <course>187.05</course>
  <speed>0.4687216658103186</speed>
  <fix>3d</fix>
</trkpt>
<trkpt lat="33.8101795" lon="-118.3938923">
  <ele>-9.74</ele>
  <time>2026-09-02T22:13:21Z</time>
  <course>188.88</course>
  <speed>0.49</speed>
  <fix>3d</fix>
</trkpt>
<trkpt lat="33.8101787" lon="-118.3938925">
  <ele>-9.906</ele>
  <time>2026-09-02T22:13:21Z</time>
  <course>187.04</course>
  <speed>0.4687216658103186</speed>
  <fix>3d</fix>
</trkpt>
<trkpt lat="33.8101795" lon="-118.3938923">
  <ele>-9.74</ele>
  <time>2026-09-02T22:13:21Z</time>
  <course>188.88</course>
  <speed>0.49</speed>
  <fix>3d</fix>
</trkpt>
<trkpt lat="33.8101783" lon="-118.3938926">
  <ele>-9.889</ele>
  <time>2026-09-02T22:13:21Z</time>
  <course>187.04</course>
  <speed>0.47853944456021597</speed>
  <fix>3d</fix>
</trkpt>
<trkpt lat="33.8101786" lon="-118.3938924">
  <ele>-9.7</ele>
  <time>2026-09-02T22:13:21Z</time>
  <course>188.96</course>
  <speed>0.49</speed>
  <fix>3d</fix>
</trkpt>
<trkpt lat="33.8101778" lon="-118.3938927">
  <ele>-9.87</ele>
  <time>2026-09-02T22:13:21Z</time>
  <course>187.04</course>
  <speed>0.4687216658103186</speed>
  <fix>3d</fix>
</trkpt>
<trkpt lat="33.8101786" lon="-118.3938924">
  <ele>-9.7</ele>
  <time>2026-09-02T22:13:21Z</time>
  <course>188.96</course>
  <speed>0.49</speed>
  <fix>3d</fix>
</trkpt>
<trkpt lat="33.8101774" lon="-118.3938928">
  <ele>-9.852</ele>
  <time>2026-09-02T22:13:21Z</time>
  <course>187.04</course>
  <speed>0.47853944456021597</speed>
  <fix>3d</fix>
</trkpt>
<trkpt lat="33.8101777" lon="-118.3938925">
  <ele>-9.67</ele>
  <time>2026-09-02T22:13:21Z</time>
  <course>188.94</course>
  <speed>0.49</speed>
  <fix>3d</fix>
</trkpt>
<trkpt lat="33.8101769" lon="-118.3938928">
  <ele>-9.836</ele>
  <time>2026-09-02T22:13:21Z</time>
  <course>187.04</course>
  <speed>0.47853944456021597</speed>
  <fix>3d</fix>
</trkpt>
<trkpt lat="33.8101777" lon="-118.3938925">
  <ele>-9.67</ele>
  <time>2026-09-02T22:13:21Z</time>
  <course>188.94</course>
  <speed>0.49</speed>
  <fix>3d</fix>
</trkpt>
<trkpt lat="33.8101765" lon="-118.3938929">
  <ele>-9.819</ele>
  <time>2026-09-02T22:13:21Z</time>
  <course>187.04</course>
  <speed>0.47853944456021597</speed>
  <fix>3d</fix>
</trkpt>
<trkpt lat="33.8101768" lon="-118.3938928">
  <ele>-9.62</ele>
  <time>2026-09-02T22:13:21Z</time>
  <course>188.96</course>
  <speed>0.49</speed>
  <fix>3d</fix>
</trkpt>
<trkpt lat="33.810176" lon="-118.393893">
  <ele>-9.803</ele>
  <time>2026-09-02T22:13:21Z</time>
  <course>187.04</course>
  <speed>0.47853944456021597</speed>
  <fix>3d</fix>
</trkpt>
<trkpt lat="33.8101768" lon="-118.3938928">
  <ele>-9.62</ele>
  <time>2026-09-02T22:13:21Z</time>
  <course>188.96</course>
  <speed>0.49</speed>
  <fix>3d</fix>
</trkpt>
<trkpt lat="33.8101756" lon="-118.3938931">
  <ele>-9.786</ele>
  <time>2026-09-02T22:13:21Z</time>
  <course>187.03</course>
  <speed>0.47853944456021597</speed>
  <fix>3d</fix>
</trkpt>
<trkpt lat="33.8101759" lon="-118.3938929">
  <ele>-9.59</ele>
  <time>2026-09-02T22:13:21Z</time>
  <course>188.97</course>
  <speed>0.49</speed>
  <fix>3d</fix>
</trkpt>
<trkpt lat="33.8101752" lon="-118.3938932">
  <ele>-9.77</ele>
  <time>2026-09-02T22:13:21Z</time>
  <course>187.03</course>
  <speed>0.47853944456021597</speed>
  <fix>3d</fix>
</trkpt>
<trkpt lat="33.8101759" lon="-118.3938929">
  <ele>-9.59</ele>
  <time>2026-09-02T22:13:21Z</time>
  <course>188.97</course>
  <speed>0.49</speed>
  <fix>3d</fix>
</trkpt>
<trkpt lat="33.8101747" lon="-118.3938933">
  <ele>-9.756</ele>
  <time>2026-09-02T22:13:21Z</time>
  <course>187.04</course>
  <speed>0.47853944456021597</speed>
  <fix>3d</fix>
</trkpt>
<trkpt lat="33.810175" lon="-118.393893">
  <ele>-9.56</ele>
  <time>2026-09-02T22:13:21Z</time>
  <course>188.93</course>
  <speed>0.49</speed>
  <fix>3d</fix>
</trkpt>
<trkpt lat="33.8101743" lon="-118.3938933">
  <ele>-9.742</ele>
  <time>2026-09-02T22:13:21Z</time>
  <course>187.04</course>
  <speed>0.47853944456021597</speed>
  <fix>3d</fix>
</trkpt>
<trkpt lat="33.810175" lon="-118.393893">
  <ele>-9.56</ele>
  <time>2026-09-02T22:13:21Z</time>
  <course>188.93</course>
  <speed>0.49</speed>
  <fix>3d</fix>
</trkpt>
<trkpt lat="33.8101738" lon="-118.3938934">
  <ele>-9.729</ele>
  <time>2026-09-02T22:13:21Z</time>
  <course>187.04</course>
  <speed>0.47853944456021597</speed>
  <fix>3d</fix>
</trkpt>
<trkpt lat="33.8101742" lon="-118.3938933">
  <ele>-9.53</ele>
  <time>2026-09-02T22:13:21Z</time>
  <course>188.95</course>
  <speed>0.49</speed>
  <fix>3d</fix>
</trkpt>
<trkpt lat="33.8101734" lon="-118.3938935">
  <ele>-9.714</ele>
  <time>2026-09-02T22:13:21Z</time>
  <course>187.03</course>
  <speed>0.47853944456021597</speed>
  <fix>3d</fix>
</trkpt>
<trkpt lat="33.8101742" lon="-118.3938933">
  <ele>-9.53</ele>
  <time>2026-09-02T22:13:21Z</time>
  <course>188.95</course>
  <speed>0.49</speed>
  <fix>3d</fix>
</trkpt>
<trkpt lat="33.8101729" lon="-118.3938936">
  <ele>-9.699</ele>
  <time>2026-09-02T22:13:21Z</time>
  <course>187.03</course>
  <speed>0.47853944456021597</speed>
  <fix>3d</fix>
</trkpt>
<trkpt lat="33.8101733" lon="-118.3938934">
  <ele>-9.5</ele>
  <time>2026-09-02T22:13:21Z</time>
  <course>188.96</course>
  <speed>0.49</speed>
  <fix>3d</fix>
</trkpt>
<trkpt lat="33.8101725" lon="-118.3938937">
  <ele>-9.684</ele>
  <time>2026-09-02T22:13:21Z</time>
  <course>187.03</course>
  <speed>0.47853944456021597</speed>
  <fix>3d</fix>
</trkpt>
<trkpt lat="33.8101733" lon="-118.3938934">
  <ele>-9.5</ele>
  <time>2026-09-02T22:13:21Z</time>
  <course>188.96</course>
  <speed>0.49</speed>
  <fix>3d</fix>
</trkpt>
<trkpt lat="33.8101721" lon="-118.3938938">
  <ele>-9.669</ele>
  <time>2026-09-02T22:13:21Z</time>
  <course>187.03</course>
  <speed>0.47853944456021597</speed>
  <fix>3d</fix>
</trkpt>
<trkpt lat="33.8101724" lon="-118.3938935">
  <ele>-9.47</ele>
  <time>2026-09-02T22:13:21Z</time>
  <course>188.89</course>
  <speed>0.5</speed>
  <fix>3d</fix>
</trkpt>
<trkpt lat="33.8101716" lon="-118.3938938">
  <ele>-9.653</ele>
  <time>2026-09-02T22:13:21Z</time>
  <course>187.03</course>
  <speed>0.47853944456021597</speed>
  <fix>3d</fix>
</trkpt>
<trkpt lat="33.8101724" lon="-118.3938935">
  <ele>-9.47</ele>
  <time>2026-09-02T22:13:21Z</time>
  <course>188.89</course>
  <speed>0.5</speed>
  <fix>3d</fix>
</trkpt>
<trkpt lat="33.8101712" lon="-118.3938939">
  <ele>-9.635</ele>
  <time>2026-09-02T22:13:21Z</time>
  <course>187.03</course>
  <speed>0.47853944456021597</speed>
  <fix>3d</fix>
</trkpt>
<trkpt lat="33.8101715" lon="-118.3938938">
  <ele>-9.44</ele>
  <time>2026-09-02T22:13:21Z</time>
  <course>188.87</course>
  <speed>0.5</speed>
  <fix>3d</fix>
</trkpt>
<trkpt lat="33.8101707" lon="-118.393894">
  <ele>-9.616</ele>
  <time>2026-09-02T22:13:21Z</time>
  <course>187.02</course>
  <speed>0.47853944456021597</speed>
  <fix>3d</fix>
</trkpt>
<trkpt lat="33.8101715" lon="-118.3938938">
  <ele>-9.44</ele>
  <time>2026-09-02T22:13:21Z</time>
  <course>188.87</course>
  <speed>0.5</speed>
  <fix>3d</fix>
</trkpt>
<trkpt lat="33.8101703" lon="-118.3938941">
  <ele>-9.596</ele>
  <time>2026-09-02T22:13:21Z</time>
  <course>187.02</course>
  <speed>0.47853944456021597</speed>
  <fix>3d</fix>
</trkpt>
<trkpt lat="33.8101706" lon="-118.3938939">
  <ele>-9.41</ele>
  <time>2026-09-02T22:13:21Z</time>
  <course>188.86</course>
  <speed>0.5</speed>
  <fix>3d</fix>
</trkpt>
<trkpt lat="33.8101698" lon="-118.3938942">
  <ele>-9.577</ele>
  <time>2026-09-02T22:13:21Z</time>
  <course>187.03</course>
  <speed>0.47853944456021597</speed>
  <fix>3d</fix>
</trkpt>
<trkpt lat="33.8101706" lon="-118.3938939">
  <ele>-9.41</ele>
  <time>2026-09-02T22:13:21Z</time>
  <course>188.86</course>
  <speed>0.5</speed>
  <fix>3d</fix>
</trkpt>
<trkpt lat="33.8101694" lon="-118.3938943">
  <ele>-9.557</ele>
  <time>2026-09-02T22:13:21Z</time>
  <course>187.03</course>
  <speed>0.47853944456021597</speed>
  <fix>3d</fix>
</trkpt>
<trkpt lat="33.8101697" lon="-118.393894">
  <ele>-9.37</ele>
  <time>2026-09-02T22:13:21Z</time>
  <course>188.8</course>
  <speed>0.5</speed>
  <fix>3d</fix>
</trkpt>
<trkpt lat="33.8101689" lon="-118.3938943">
  <ele>-9.535</ele>
  <time>2026-09-02T22:13:21Z</time>
  <course>187.03</course>
  <speed>0.47853944456021597</speed>
  <fix>3d</fix>
</trkpt>
<trkpt lat="33.8101697" lon="-118.393894">
  <ele>-9.37</ele>
  <time>2026-09-02T22:13:21Z</time>
  <course>188.8</course>
  <speed>0.5</speed>
  <fix>3d</fix>
</trkpt>
<trkpt lat="33.8101685" lon="-118.3938944">
  <ele>-9.511</ele>
  <time>2026-09-02T22:13:21Z</time>
  <course>187.02</course>
  <speed>0.47853944456021597</speed>
  <fix>3d</fix>
</trkpt>
<trkpt lat="33.8101688" lon="-118.3938943">
  <ele>-9.33</ele>
  <time>2026-09-02T22:13:21Z</time>
  <course>188.8</course>
  <speed>0.5</speed>
  <fix>3d</fix>
</trkpt>
<trkpt lat="33.8101681" lon="-118.3938945">
  <ele>-9.485</ele>
  <time>2026-09-02T22:13:21Z</time>
  <course>187.02</course>
  <speed>0.47853944456021597</speed>
  <fix>3d</fix>
</trkpt>
<trkpt lat="33.8101688" lon="-118.3938943">
  <ele>-9.33</ele>
  <time>2026-09-02T22:13:21Z</time>
  <course>188.8</course>
  <speed>0.5</speed>
  <fix>3d</fix>
</trkpt>
<trkpt lat="33.8101676" lon="-118.3938946">
  <ele>-9.458</ele>
  <time>2026-09-02T22:13:21Z</time>
  <course>187.02</course>
  <speed>0.47853944456021597</speed>
  <fix>3d</fix>
</trkpt>
<trkpt lat="33.8101679" lon="-118.3938944">
  <ele>-9.28</ele>
  <time>2026-09-02T22:13:21Z</time>
  <course>188.82</course>
  <speed>0.5</speed>
  <fix>3d</fix>
</trkpt>
<trkpt lat="33.8101672" lon="-118.3938947">
  <ele>-9.43</ele>
  <time>2026-09-02T22:13:21Z</time>
  <course>187.02</course>
  <speed>0.47853944456021597</speed>
  <fix>3d</fix>
</trkpt>
<trkpt lat="33.8101679" lon="-118.3938944">
  <ele>-9.28</ele>
  <time>2026-09-02T22:13:21Z</time>
  <course>188.82</course>
  <speed>0.5</speed>
  <fix>3d</fix>
</trkpt>
<trkpt lat="33.8101667" lon="-118.3938948">
  <ele>-9.404</ele>
  <time>2026-09-02T22:13:21Z</time>
  <course>187.02</course>
  <speed>0.47853944456021597</speed>
  <fix>3d</fix>
</trkpt>
<trkpt lat="33.810167" lon="-118.3938945">
  <ele>-9.23</ele>
  <time>2026-09-02T22:13:21Z</time>
  <course>188.8</course>
  <speed>0.5</speed>
  <fix>3d</fix>
</trkpt>
<trkpt lat="33.8101663" lon="-118.3938948">
  <ele>-9.378</ele>
  <time>2026-09-02T22:13:21Z</time>
  <course>187.02</course>
  <speed>0.47853944456021597</speed>
  <fix>3d</fix>
</trkpt>
<trkpt lat="33.810167" lon="-118.3938945">
  <ele>-9.23</ele>
  <time>2026-09-02T22:13:21Z</time>
  <course>188.8</course>
  <speed>0.5</speed>
  <fix>3d</fix>
</trkpt>
<trkpt lat="33.8101658" lon="-118.3938949">
  <ele>-9.352</ele>
  <time>2026-09-02T22:13:21Z</time>
  <course>187.02</course>
  <speed>0.47853944456021597</speed>
  <fix>3d</fix>
</trkpt>
<trkpt lat="33.8101661" lon="-118.3938948">
  <ele>-9.17</ele>
  <time>2026-09-02T22:13:21Z</time>
  <course>188.84</course>
  <speed>0.5</speed>
  <fix>3d</fix>
</trkpt>
<trkpt lat="33.8101654" lon="-118.393895">
  <ele>-9.326</ele>
  <time>2026-09-02T22:13:21Z</time>
  <course>187.02</course>
  <speed>0.4687216658103186</speed>
  <fix>3d</fix>
</trkpt>
<trkpt lat="33.8101661" lon="-118.3938948">
  <ele>-9.17</ele>
  <time>2026-09-02T22:13:21Z</time>
  <course>188.84</course>
  <speed>0.5</speed>
  <fix>3d</fix>
</trkpt>
<trkpt lat="33.8101649" lon="-118.3938951">
  <ele>-9.301</ele>
  <time>2026-09-02T22:13:21Z</time>
  <course>187.02</course>
  <speed>0.4687216658103186</speed>
  <fix>3d</fix>
</trkpt>
<trkpt lat="33.8101652" lon="-118.3938949">
  <ele>-9.12</ele>
  <time>2026-09-02T22:13:21Z</time>
  <course>188.88</course>
  <speed>0.49</speed>
  <fix>3d</fix>
</trkpt>
<trkpt lat="33.8101645" lon="-118.3938952">
  <ele>-9.277</ele>
  <time>2026-09-02T22:13:21Z</time>
  <course>187.02</course>
  <speed>0.4687216658103186</speed>
  <fix>3d</fix>
</trkpt>
<trkpt lat="33.8101652" lon="-118.3938949">
  <ele>-9.12</ele>
  <time>2026-09-02T22:13:21Z</time>
  <course>188.88</course>
  <speed>0.49</speed>
  <fix>3d</fix>
</trkpt>
<trkpt lat="33.810164" lon="-118.3938953">
  <ele>-9.255</ele>
  <time>2026-09-02T22:13:21Z</time>
  <course>187.02</course>
  <speed>0.4687216658103186</speed>
  <fix>3d</fix>
</trkpt>
<trkpt lat="33.8101644" lon="-118.3938951">
  <ele>-9.08</ele>
  <time>2026-09-02T22:13:21Z</time>
  <course>188.84</course>
  <speed>0.49</speed>
  <fix>3d</fix>
</trkpt>
<trkpt lat="33.8101636" lon="-118.3938953">
  <ele>-9.235</ele>
  <time>2026-09-02T22:13:21Z</time>
  <course>187.02</course>
  <speed>0.4687216658103186</speed>
  <fix>3d</fix>
</trkpt>
<trkpt lat="33.8101644" lon="-118.3938951">
  <ele>-9.08</ele>
  <time>2026-09-02T22:13:21Z</time>
  <course>188.84</course>
  <speed>0.49</speed>
  <fix>3d</fix>
</trkpt>
<trkpt lat="33.8101632" lon="-118.3938954">
  <ele>-9.215</ele>
  <time>2026-09-02T22:13:21Z</time>
  <course>187.02</course>
  <speed>0.47853944456021597</speed>
  <fix>3d</fix>
</trkpt>
<trkpt lat="33.8101635" lon="-118.3938953">
  <ele>-9.04</ele>
  <time>2026-09-02T22:13:21Z</time>
  <course>188.77</course>
  <speed>0.49</speed>
  <fix>3d</fix>
</trkpt>
<trkpt lat="33.8101627" lon="-118.3938955">
  <ele>-9.196</ele>
  <time>2026-09-02T22:13:21Z</time>
  <course>187.02</course>
  <speed>0.47675989764240867</speed>
  <fix>3d</fix>
</trkpt>
<trkpt lat="33.8101635" lon="-118.3938953">
  <ele>-9.04</ele>
  <time>2026-09-02T22:13:21Z</time>
  <course>188.77</course>
  <speed>0.49</speed>
  <fix>3d</fix>
</trkpt>
<trkpt lat="33.8101623" lon="-118.3938956">
  <ele>-9.177</ele>
  <time>2026-09-02T22:13:21Z</time>
  <course>187.01</course>
  <speed>0.47675989764240867</speed>
  <fix>3d</fix>
</trkpt>
<trkpt lat="33.8101626" lon="-118.3938954">
  <ele>-9.0</ele>
  <time>2026-09-02T22:13:21Z</time>
  <course>188.65</course>
  <speed>0.49</speed>
  <fix>3d</fix>
</trkpt>
<trkpt lat="33.8101618" lon="-118.3938957">
  <ele>-9.159</ele>
  <time>2026-09-02T22:13:21Z</time>
  <course>187.01</course>
  <speed>0.47675989764240867</speed>
  <fix>3d</fix>
</trkpt>
<trkpt lat="33.8101626" lon="-118.3938954">
  <ele>-9.0</ele>
  <time>2026-09-02T22:13:21Z</time>
  <course>188.65</course>
  <speed>0.49</speed>
  <fix>3d</fix>
</trkpt>
<trkpt lat="33.8101614" lon="-118.3938958">
  <ele>-9.14</ele>
  <time>2026-09-02T22:13:21Z</time>
  <course>187.01</course>
  <speed>0.47675989764240867</speed>
  <fix>3d</fix>
</trkpt>
<trkpt lat="33.8101617" lon="-118.3938956">
  <ele>-8.95</ele>
  <time>2026-09-02T22:13:21Z</time>
  <course>188.55</course>
  <speed>0.49</speed>
  <fix>3d</fix>
</trkpt>
<trkpt lat="33.8101609" lon="-118.3938958">
  <ele>-9.119</ele>
  <time>2026-09-02T22:13:21Z</time>
  <course>187.01</course>
  <speed>0.47675989764240867</speed>
  <fix>3d</fix>
</trkpt>
<trkpt lat="33.8101617" lon="-118.3938956">
  <ele>-8.95</ele>
  <time>2026-09-02T22:13:21Z</time>
  <course>188.55</course>
  <speed>0.49</speed>
  <fix>3d</fix>
</trkpt>
<trkpt lat="33.8101605" lon="-118.3938959">
  <ele>-9.098</ele>
  <time>2026-09-02T22:13:21Z</time>
  <course>187.01</course>
  <speed>0.47675989764240867</speed>
  <fix>3d</fix>
</trkpt>
<trkpt lat="33.8101608" lon="-118.3938958">
  <ele>-8.92</ele>
  <time>2026-09-02T22:13:21Z</time>
  <course>188.5</course>
  <speed>0.49</speed>
  <fix>3d</fix>
</trkpt>
<trkpt lat="33.81016" lon="-118.393896">
  <ele>-9.079</ele>
  <time>2026-09-02T22:13:21Z</time>
  <course>187.01</course>
  <speed>0.47675989764240867</speed>
  <fix>3d</fix>
</trkpt>
<trkpt lat="33.8101608" lon="-118.3938958">
  <ele>-8.92</ele>
  <time>2026-09-02T22:13:21Z</time>
  <course>188.5</course>
  <speed>0.49</speed>
  <fix>3d</fix>
</trkpt>
<trkpt lat="33.8101596" lon="-118.3938961">
  <ele>-9.061</ele>
  <time>2026-09-02T22:13:21Z</time>
  <course>187.01</course>
  <speed>0.47675989764240867</speed>
  <fix>3d</fix>
</trkpt>
<trkpt lat="33.8101599" lon="-118.3938959">
  <ele>-8.88</ele>
  <time>2026-09-02T22:13:21Z</time>
  <course>188.45</course>
  <speed>0.49</speed>
  <fix>3d</fix>
</trkpt>
<trkpt lat="33.8101592" lon="-118.3938962">
  <ele>-9.043</ele>
  <time>2026-09-02T22:13:21Z</time>
  <course>187.01</course>
  <speed>0.47675989764240867</speed>
  <fix>3d</fix>
</trkpt>
<trkpt lat="33.8101599" lon="-118.3938959">
  <ele>-8.88</ele>
  <time>2026-09-02T22:13:21Z</time>
  <course>188.45</course>
  <speed>0.49</speed>
  <fix>3d</fix>
</trkpt>
<trkpt lat="33.8101587" lon="-118.3938963">
  <ele>-9.024</ele>
  <time>2026-09-02T22:13:21Z</time>
  <course>187.01</course>
  <speed>0.47675989764240867</speed>
  <fix>3d</fix>
</trkpt>
<trkpt lat="33.810159" lon="-118.3938961">
  <ele>-8.85</ele>
  <time>2026-09-02T22:13:21Z</time>
  <course>188.42</course>
  <speed>0.49</speed>
  <fix>3d</fix>
</trkpt>
<trkpt lat="33.8101583" lon="-118.3938963">
  <ele>-9.006</ele>
  <time>2026-09-02T22:13:21Z</time>
  <course>187.01</course>
  <speed>0.4669047011971501</speed>
  <fix>3d</fix>
</trkpt>
<trkpt lat="33.810159" lon="-118.3938961">
  <ele>-8.85</ele>
  <time>2026-09-02T22:13:21Z</time>
  <course>188.42</course>
  <speed>0.49</speed>
  <fix>3d</fix>
</trkpt>
<trkpt lat="33.8101578" lon="-118.3938964">
  <ele>-8.988</ele>
  <time>2026-09-02T22:13:21Z</time>
  <course>187.01</course>
  <speed>0.47675989764240867</speed>
  <fix>3d</fix>
</trkpt>
<trkpt lat="33.8101582" lon="-118.3938962">
  <ele>-8.81</ele>
  <time>2026-09-02T22:13:21Z</time>
  <course>188.43</course>
  <speed>0.49</speed>
  <fix>3d</fix>
</trkpt>
<trkpt lat="33.8101574" lon="-118.3938965">
  <ele>-8.971</ele>
  <time>2026-09-02T22:13:21Z</time>
  <course>187.01</course>
  <speed>0.47675989764240867</speed>
  <fix>3d</fix>
</trkpt>
<trkpt lat="33.8101582" lon="-118.3938962">
  <ele>-8.81</ele>
  <time>2026-09-02T22:13:21Z</time>
  <course>188.43</course>
  <speed>0.49</speed>
  <fix>3d</fix>
</trkpt>
<trkpt lat="33.8101569" lon="-118.3938966">
  <ele>-8.955</ele>
  <time>2026-09-02T22:13:21Z</time>
  <course>187.01</course>
  <speed>0.47675989764240867</speed>
  <fix>3d</fix>
</trkpt>
<trkpt lat="33.8101573" lon="-118.3938964">
  <ele>-8.78</ele>
  <time>2026-09-02T22:13:21Z</time>
  <course>188.47</course>
  <speed>0.49</speed>
  <fix>3d</fix>
</trkpt>
<trkpt lat="33.8101565" lon="-118.3938967">
  <ele>-8.938</ele>
  <time>2026-09-02T22:13:21Z</time>
  <course>187.01</course>
  <speed>0.47853944456021597</speed>
  <fix>3d</fix>
</trkpt>
<trkpt lat="33.8101573" lon="-118.3938964">
  <ele>-8.78</ele>
  <time>2026-09-02T22:13:21Z</time>
  <course>188.47</course>
  <speed>0.49</speed>
  <fix>3d</fix>
</trkpt>
<trkpt lat="33.8101561" lon="-118.3938967">
  <ele>-8.922</ele>
  <time>2026-09-02T22:13:21Z</time>
  <course>187.01</course>
  <speed>0.47853944456021597</speed>
  <fix>3d</fix>
</trkpt>
<trkpt lat="33.8101564" lon="-118.3938965">
  <ele>-8.75</ele>
  <time>2026-09-02T22:13:21Z</time>
  <course>188.53</course>
  <speed>0.49</speed>
  <fix>3d</fix>
</trkpt>
<trkpt lat="33.8101556" lon="-118.3938968">
  <ele>-8.906</ele>
  <time>2026-09-02T22:13:21Z</time>
  <course>187.01</course>
  <speed>0.47853944456021597</speed>
  <fix>3d</fix>
</trkpt>
<trkpt lat="33.8101564" lon="-118.3938965">
  <ele>-8.75</ele>
  <time>2026-09-02T22:13:21Z</time>
  <course>188.53</course>
  <speed>0.49</speed>
  <fix>3d</fix>
</trkpt>
<trkpt lat="33.8101552" lon="-118.3938969">
  <ele>-8.889</ele>
  <time>2026-09-02T22:13:21Z</time>
  <course>187.01</course>
  <speed>0.47853944456021597</speed>
  <fix>3d</fix>
</trkpt>
<trkpt lat="33.8101555" lon="-118.3938967">
  <ele>-8.72</ele>
  <time>2026-09-02T22:13:21Z</time>
  <course>188.6</course>
  <speed>0.49</speed>
  <fix>3d</fix>
</trkpt>
<trkpt lat="33.8101547" lon="-118.393897">
  <ele>-8.873</ele>
  <time>2026-09-02T22:13:21Z</time>
  <course>187.01</course>
  <speed>0.47853944456021597</speed>
  <fix>3d</fix>
</trkpt>
<trkpt lat="33.8101555" lon="-118.3938967">
  <ele>-8.72</ele>
  <time>2026-09-02T22:13:21Z</time>
  <course>188.6</course>
  <speed>0.49</speed>
  <fix>3d</fix>
</trkpt>
<trkpt lat="33.8101543" lon="-118.3938971">
  <ele>-8.856</ele>
  <time>2026-09-02T22:13:21Z</time>
  <course>187.01</course>
  <speed>0.47853944456021597</speed>
  <fix>3d</fix>
</trkpt>
<trkpt lat="33.8101546" lon="-118.3938968">
  <ele>-8.69</ele>
  <time>2026-09-02T22:13:21Z</time>
  <course>188.69</course>
  <speed>0.49</speed>
  <fix>3d</fix>
</trkpt>
<trkpt lat="33.8101538" lon="-118.3938971">
  <ele>-8.84</ele>
  <time>2026-09-02T22:13:21Z</time>
  <course>187.01</course>
  <speed>0.47853944456021597</speed>
  <fix>3d</fix>
</trkpt>
<trkpt lat="33.8101546" lon="-118.3938968">
  <ele>-8.69</ele>
  <time>2026-09-02T22:13:21Z</time>
  <course>188.69</course>
  <speed>0.49</speed>
  <fix>3d</fix>
</trkpt>
<trkpt lat="33.8101534" lon="-118.3938972">
  <ele>-8.825</ele>
  <time>2026-09-02T22:13:21Z</time>
  <course>187.0</course>
  <speed>0.47853944456021597</speed>
  <fix>3d</fix>
</trkpt>
<trkpt lat="33.8101537" lon="-118.393897">
  <ele>-8.65</ele>
  <time>2026-09-02T22:13:21Z</time>
  <course>188.8</course>
  <speed>0.5</speed>
  <fix>3d</fix>
</trkpt>
<trkpt lat="33.8101529" lon="-118.3938973">
  <ele>-8.809</ele>
  <time>2026-09-02T22:13:21Z</time>
  <course>187.0</course>
  <speed>0.47853944456021597</speed>
  <fix>3d</fix>
</trkpt>
<trkpt lat="33.8101537" lon="-118.393897">
  <ele>-8.65</ele>
  <time>2026-09-02T22:13:21Z</time>
  <course>188.8</course>
  <speed>0.5</speed>
  <fix>3d</fix>
</trkpt>
<trkpt lat="33.8101525" lon="-118.3938974">
  <ele>-8.793</ele>
  <time>2026-09-02T22:13:21Z</time>
  <course>187.0</course>
  <speed>0.47853944456021597</speed>
  <fix>3d</fix>
</trkpt>
<trkpt lat="33.8101529" lon="-118.3938972">
  <ele>-8.62</ele>
  <time>2026-09-02T22:13:21Z</time>
  <course>188.93</course>
  <speed>0.49</speed>
  <fix>3d</fix>
</trkpt>
<trkpt lat="33.8101521" lon="-118.3938975">
  <ele>-8.776</ele>
  <time>2026-09-02T22:13:21Z</time>
  <course>187.0</course>
  <speed>0.47853944456021597</speed>
  <fix>3d</fix>
</trkpt>
<trkpt lat="33.8101529" lon="-118.3938972">
  <ele>-8.62</ele>
  <time>2026-09-02T22:13:21Z</time>
  <course>188.93</course>
  <speed>0.49</speed>
  <fix>3d</fix>
</trkpt>
<trkpt lat="33.8101516" lon="-118.3938976">
  <ele>-8.759</ele>
  <time>2026-09-02T22:13:21Z</time>
  <course>187.0</course>
  <speed>0.47853944456021597</speed>
  <fix>3d</fix>
</trkpt>
<trkpt lat="33.810152" lon="-118.3938973">
  <ele>-8.59</ele>
  <time>2026-09-02T22:13:21Z</time>
  <course>188.99</course>
  <speed>0.49</speed>
  <fix>3d</fix>
</trkpt>
<trkpt lat="33.8101512" lon="-118.3938976">
  <ele>-8.741</ele>
  <time>2026-09-02T22:13:21Z</time>
  <course>187.0</course>
  <speed>0.47853944456021597</speed>
  <fix>3d</fix>
</trkpt>
<trkpt lat="33.810152" lon="-118.3938973">
  <ele>-8.59</ele>
  <time>2026-09-02T22:13:21Z</time>
  <course>188.99</course>
  <speed>0.49</speed>
  <fix>3d</fix>
</trkpt>
<trkpt lat="33.8101507" lon="-118.3938977">
  <ele>-8.722</ele>
  <time>2026-09-02T22:13:21Z</time>
  <course>187.0</course>
  <speed>0.47853944456021597</speed>
  <fix>3d</fix>
</trkpt>
<trkpt lat="33.8101511" lon="-118.3938975">
  <ele>-8.55</ele>
  <time>2026-09-02T22:13:21Z</time>
  <course>188.99</course>
  <speed>0.5</speed>
  <fix>3d</fix>
</trkpt>
<trkpt lat="33.8101503" lon="-118.3938978">
  <ele>-8.703</ele>
  <time>2026-09-02T22:13:21Z</time>
  <course>187.0</course>
  <speed>0.47853944456021597</speed>
  <fix>3d</fix>
</trkpt>
<trkpt lat="33.8101511" lon="-118.3938975">
  <ele>-8.55</ele>
  <time>2026-09-02T22:13:21Z</time>
  <course>188.99</course>
  <speed>0.5</speed>
  <fix>3d</fix>
</trkpt>
<trkpt lat="33.8101498" lon="-118.3938979">
  <ele>-8.683</ele>
  <time>2026-09-02T22:13:21Z</time>
  <course>187.0</course>
  <speed>0.47853944456021597</speed>
  <fix>3d</fix>
</trkpt>
<trkpt lat="33.8101502" lon="-118.3938977">
  <ele>-8.52</ele>
  <time>2026-09-02T22:13:21Z</time>
  <course>188.99</course>
  <speed>0.5</speed>
  <fix>3d</fix>
</trkpt>
<trkpt lat="33.8101494" lon="-118.393898">
  <ele>-8.663</ele>
  <time>2026-09-02T22:13:21Z</time>
  <course>187.0</course>
  <speed>0.47853944456021597</speed>
  <fix>3d</fix>
</trkpt>
<trkpt lat="33.8101502" lon="-118.3938977">
  <ele>-8.52</ele>
  <time>2026-09-02T22:13:21Z</time>
  <course>188.99</course>
  <speed>0.5</speed>
  <fix>3d</fix>
</trkpt>
<trkpt lat="33.810149" lon="-118.3938981">
  <ele>-8.641</ele>
  <time>2026-09-02T22:13:21Z</time>
  <course>187.0</course>
  <speed>0.47853944456021597</speed>
  <fix>3d</fix>
</trkpt>
<trkpt lat="33.8101493" lon="-118.3938978">
  <ele>-8.48</ele>
  <time>2026-09-02T22:13:21Z</time>
  <course>188.97</course>
  <speed>0.5</speed>
  <fix>3d</fix>
</trkpt>
<trkpt lat="33.8101485" lon="-118.3938981">
  <ele>-8.62</ele>
  <time>2026-09-02T22:13:21Z</time>
  <course>187.0</course>
  <speed>0.47853944456021597</speed>
  <fix>3d</fix>
</trkpt>
<trkpt lat="33.8101493" lon="-118.3938978">
  <ele>-8.48</ele>
  <time>2026-09-02T22:13:21Z</time>
  <course>188.97</course>
  <speed>0.5</speed>
  <fix>3d</fix>
</trkpt>
<trkpt lat="33.8101481" lon="-118.3938982">
  <ele>-8.6</ele>
  <time>2026-09-02T22:13:21Z</time>
  <course>187.0</course>
  <speed>0.47853944456021597</speed>
  <fix>3d</fix>
</trkpt>
<trkpt lat="33.8101484" lon="-118.393898">
  <ele>-8.44</ele>
  <time>2026-09-02T22:13:21Z</time>
  <course>188.96</course>
  <speed>0.5</speed>
  <fix>3d</fix>
</trkpt>
<trkpt lat="33.8101476" lon="-118.3938983">
  <ele>-8.581</ele>
  <time>2026-09-02T22:13:21Z</time>
  <course>187.0</course>
  <speed>0.47853944456021597</speed>
  <fix>3d</fix>
</trkpt>
<trkpt lat="33.8101484" lon="-118.393898">
  <ele>-8.44</ele>
  <time>2026-09-02T22:13:21Z</time>
  <course>188.96</course>
  <speed>0.5</speed>
  <fix>3d</fix>
</trkpt>
<trkpt lat="33.8101472" lon="-118.3938984">
  <ele>-8.562</ele>
  <time>2026-09-02T22:13:21Z</time>
  <course>187.0</course>
  <speed>0.47853944456021597</speed>
  <fix>3d</fix>
</trkpt>
<trkpt lat="33.8101475" lon="-118.3938982">
  <ele>-8.4</ele>
  <time>2026-09-02T22:13:21Z</time>
  <course>188.98</course>
  <speed>0.5</speed>
  <fix>3d</fix>
</trkpt>
<trkpt lat="33.8101467" lon="-118.3938985">
  <ele>-8.545</ele>
  <time>2026-09-02T22:13:21Z</time>
  <course>187.0</course>
  <speed>0.47853944456021597</speed>
  <fix>3d</fix>
</trkpt>
<trkpt lat="33.8101475" lon="-118.3938982">
  <ele>-8.4</ele>
  <time>2026-09-02T22:13:21Z</time>
  <course>188.98</course>
  <speed>0.5</speed>
  <fix>3d</fix>
</trkpt>
<trkpt lat="33.8101463" lon="-118.3938986">
  <ele>-8.528</ele>
  <time>2026-09-02T22:13:21Z</time>
  <course>187.0</course>
  <speed>0.47853944456021597</speed>
  <fix>3d</fix>
</trkpt>
<trkpt lat="33.8101466" lon="-118.3938983">
  <ele>-8.36</ele>
  <time>2026-09-02T22:13:21Z</time>
  <course>188.99</course>
  <speed>0.5</speed>
  <fix>3d</fix>
</trkpt>
<trkpt lat="33.8101458" lon="-118.3938986">
  <ele>-8.512</ele>
  <time>2026-09-02T22:13:21Z</time>
  <course>187.0</course>
  <speed>0.47853944456021597</speed>
  <fix>3d</fix>
</trkpt>
<trkpt lat="33.8101466" lon="-118.3938983">
  <ele>-8.36</ele>
  <time>2026-09-02T22:13:21Z</time>
  <course>188.99</course>
  <speed>0.5</speed>
  <fix>3d</fix>
</trkpt>
<trkpt lat="33.8101454" lon="-118.3938987">
  <ele>-8.495</ele>
  <time>2026-09-02T22:13:21Z</time>
  <course>187.0</course>
  <speed>0.47853944456021597</speed>
  <fix>3d</fix>
</trkpt>
<trkpt lat="33.8101457" lon="-118.3938986">
  <ele>-8.33</ele>
  <time>2026-09-02T22:13:21Z</time>
  <course>189.0</course>
  <speed>0.5</speed>
  <fix>3d</fix>
</trkpt>
<trkpt lat="33.810145" lon="-118.3938988">
  <ele>-8.478</ele>
  <time>2026-09-02T22:13:21Z</time>
  <course>186.99</course>
  <speed>0.4687216658103186</speed>
  <fix>3d</fix>
</trkpt>
<trkpt lat="33.8101457" lon="-118.3938986">
  <ele>-8.33</ele>
  <time>2026-09-02T22:13:21Z</time>
  <course>189.0</course>
  <speed>0.5</speed>
  <fix>3d</fix>
</trkpt>
<trkpt lat="33.8101445" lon="-118.3938989">
  <ele>-8.46</ele>
  <time>2026-09-02T22:13:21Z</time>
  <course>186.99</course>
  <speed>0.47853944456021597</speed>
  <fix>3d</fix>
</trkpt>
<trkpt lat="33.8101448" lon="-118.3938987">
  <ele>-8.29</ele>
  <time>2026-09-02T22:13:21Z</time>
  <course>188.97</course>
  <speed>0.49</speed>
  <fix>3d</fix>
</trkpt>
<trkpt lat="33.8101441" lon="-118.393899">
  <ele>-8.441</ele>
  <time>2026-09-02T22:13:21Z</time>
  <course>186.99</course>
  <speed>0.4687216658103186</speed>
  <fix>3d</fix>
</trkpt>
<trkpt lat="33.8101448" lon="-118.3938987">
  <ele>-8.29</ele>
  <time>2026-09-02T22:13:21Z</time>
  <course>188.97</course>
  <speed>0.49</speed>
  <fix>3d</fix>
</trkpt>
<trkpt lat="33.8101436" lon="-118.3938991">
  <ele>-8.421</ele>
  <time>2026-09-02T22:13:21Z</time>
  <course>186.99</course>
  <speed>0.4687216658103186</speed>
  <fix>3d</fix>
</trkpt>
<trkpt lat="33.8101439" lon="-118.3938988">
  <ele>-8.26</ele>
  <time>2026-09-02T22:13:21Z</time>
  <course>188.87</course>
  <speed>0.49</speed>
  <fix>3d</fix>
</trkpt>
<trkpt lat="33.8101432" lon="-118.3938991">
  <ele>-8.399</ele>
  <time>2026-09-02T22:13:21Z</time>
  <course>186.99</course>
  <speed>0.4687216658103186</speed>
  <fix>3d</fix>
</trkpt>
<trkpt lat="33.8101439" lon="-118.3938988">
  <ele>-8.26</ele>
  <time>2026-09-02T22:13:21Z</time>
  <course>188.87</course>
  <speed>0.49</speed>
  <fix>3d</fix>
</trkpt>
<trkpt lat="33.8101427" lon="-118.3938992">
  <ele>-8.377</ele>
  <time>2026-09-02T22:13:21Z</time>
  <course>186.99</course>
  <speed>0.4687216658103186</speed>
  <fix>3d</fix>
</trkpt>
<trkpt lat="33.8101431" lon="-118.3938991">
  <ele>-8.21</ele>
  <time>2026-09-02T22:13:21Z</time>
  <course>188.85</course>
  <speed>0.49</speed>
  <fix>3d</fix>
</trkpt>
<trkpt lat="33.8101423" lon="-118.3938993">
  <ele>-8.353</ele>
  <time>2026-09-02T22:13:22Z</time>
  <course>186.99</course>
  <speed>0.4687216658103186</speed>
  <fix>3d</fix>
</trkpt>
<trkpt lat="33.8101431" lon="-118.3938991">
  <ele>-8.21</ele>
  <time>2026-09-02T22:13:22Z</time>
  <course>188.85</course>
  <speed>0.49</speed>
  <fix>3d</fix>
</trkpt>
<trkpt lat="33.8101418" lon="-118.3938994">
  <ele>-8.33</ele>
  <time>2026-09-02T22:13:22Z</time>
  <course>186.99</course>
  <speed>0.47853944456021597</speed>
  <fix>3d</fix>
</trkpt>
<trkpt lat="33.8101422" lon="-118.3938992">
  <ele>-8.17</ele>
  <time>2026-09-02T22:13:22Z</time>
  <course>188.84</course>
  <speed>0.49</speed>
  <fix>3d</fix>
</trkpt>
<trkpt lat="33.8101414" lon="-118.3938995">
  <ele>-8.305</ele>
  <time>2026-09-02T22:13:22Z</time>
  <course>186.99</course>
  <speed>0.4687216658103186</speed>
  <fix>3d</fix>
</trkpt>
<trkpt lat="33.8101422" lon="-118.3938992">
  <ele>-8.17</ele>
  <time>2026-09-02T22:13:22Z</time>
  <course>188.84</course>
  <speed>0.49</speed>
  <fix>3d</fix>
</trkpt>
<trkpt lat="33.810141" lon="-118.3938996">
  <ele>-8.281</ele>
  <time>2026-09-02T22:13:22Z</time>
  <course>186.99</course>
  <speed>0.47853944456021597</speed>
  <fix>3d</fix>
</trkpt>
<trkpt lat="33.8101413" lon="-118.3938994">
  <ele>-8.12</ele>
  <time>2026-09-02T22:13:22Z</time>
  <course>188.76</course>
  <speed>0.49</speed>
  <fix>3d</fix>
</trkpt>
<trkpt lat="33.8101405" lon="-118.3938996">
  <ele>-8.258</ele>
  <time>2026-09-02T22:13:22Z</time>
  <course>186.99</course>
  <speed>0.4687216658103186</speed>
  <fix>3d</fix>
</trkpt>
<trkpt lat="33.8101413" lon="-118.3938994">
  <ele>-8.12</ele>
  <time>2026-09-02T22:13:22Z</time>
  <course>188.76</course>
  <speed>0.49</speed>
  <fix>3d</fix>
</trkpt>
<trkpt lat="33.8101401" lon="-118.3938997">
  <ele>-8.234</ele>
  <time>2026-09-02T22:13:22Z</time>
  <course>186.99</course>
  <speed>0.47675989764240867</speed>
  <fix>3d</fix>
</trkpt>
<trkpt lat="33.8101404" lon="-118.3938995">
  <ele>-8.08</ele>
  <time>2026-09-02T22:13:22Z</time>
  <course>188.68</course>
  <speed>0.49</speed>
  <fix>3d</fix>
</trkpt>
<trkpt lat="33.8101396" lon="-118.3938998">
  <ele>-8.21</ele>
  <time>2026-09-02T22:13:22Z</time>
  <course>186.99</course>
  <speed>0.4687216658103186</speed>
  <fix>3d</fix>
</trkpt>
<trkpt lat="33.8101404" lon="-118.3938995">
  <ele>-8.08</ele>
  <time>2026-09-02T22:13:22Z</time>
  <course>188.68</course>
  <speed>0.49</speed>
  <fix>3d</fix>
</trkpt>
<trkpt lat="33.8101392" lon="-118.3938999">
  <ele>-8.184</ele>
  <time>2026-09-02T22:13:22Z</time>
  <course>186.99</course>
  <speed>0.47853944456021597</speed>
  <fix>3d</fix>
</trkpt>
<trkpt lat="33.8101395" lon="-118.3938997">
  <ele>-8.03</ele>
  <time>2026-09-02T22:13:22Z</time>
  <course>188.65</course>
  <speed>0.49</speed>
  <fix>3d</fix>
</trkpt>
<trkpt lat="33.8101387" lon="-118.3939">
  <ele>-8.159</ele>
  <time>2026-09-02T22:13:22Z</time>
  <course>186.99</course>
  <speed>0.4687216658103186</speed>
  <fix>3d</fix>
</trkpt>
<trkpt lat="33.8101395" lon="-118.3938997">
  <ele>-8.03</ele>
  <time>2026-09-02T22:13:22Z</time>
  <course>188.65</course>
  <speed>0.49</speed>
  <fix>3d</fix>
</trkpt>
<trkpt lat="33.8101383" lon="-118.3939001">
  <ele>-8.135</ele>
  <time>2026-09-02T22:13:22Z</time>
  <course>186.99</course>
  <speed>0.47853944456021597</speed>
  <fix>3d</fix>
</trkpt>
<trkpt lat="33.8101386" lon="-118.3938999">
  <ele>-7.99</ele>
  <time>2026-09-02T22:13:22Z</time>
  <course>188.66</course>
  <speed>0.49</speed>
  <fix>3d</fix>
</trkpt>
<trkpt lat="33.8101378" lon="-118.3939001">
  <ele>-8.111</ele>
  <time>2026-09-02T22:13:22Z</time>
  <course>186.99</course>
  <speed>0.4687216658103186</speed>
  <fix>3d</fix>
</trkpt>
<trkpt lat="33.8101386" lon="-118.3938999">
  <ele>-7.99</ele>
  <time>2026-09-02T22:13:22Z</time>
  <course>188.66</course>
  <speed>0.49</speed>
  <fix>3d</fix>
</trkpt>
<trkpt lat="33.8101374" lon="-118.3939002">
  <ele>-8.086</ele>
  <time>2026-09-02T22:13:22Z</time>
  <course>186.99</course>
  <speed>0.47853944456021597</speed>
  <fix>3d</fix>
</trkpt>
<trkpt lat="33.8101377" lon="-118.3939">
  <ele>-7.94</ele>
  <time>2026-09-02T22:13:22Z</time>
  <course>188.66</course>
  <speed>0.49</speed>
  <fix>3d</fix>
</trkpt>
<trkpt lat="33.810137" lon="-118.3939003">
  <ele>-8.062</ele>
  <time>2026-09-02T22:13:22Z</time>
  <course>186.99</course>
  <speed>0.4687216658103186</speed>
  <fix>3d</fix>
</trkpt>
<trkpt lat="33.8101377" lon="-118.3939">
  <ele>-7.94</ele>
  <time>2026-09-02T22:13:22Z</time>
  <course>188.66</course>
  <speed>0.49</speed>
  <fix>3d</fix>
</trkpt>
<trkpt lat="33.8101365" lon="-118.3939004">
  <ele>-8.038</ele>
  <time>2026-09-02T22:13:22Z</time>
  <course>186.99</course>
  <speed>0.4687216658103186</speed>
  <fix>3d</fix>
</trkpt>
<trkpt lat="33.8101369" lon="-118.3939002">
  <ele>-7.9</ele>
  <time>2026-09-02T22:13:22Z</time>
  <course>188.66</course>
  <speed>0.49</speed>
  <fix>3d</fix>
</trkpt>
<trkpt lat="33.8101361" lon="-118.3939005">
  <ele>-8.015</ele>
  <time>2026-09-02T22:13:22Z</time>
  <course>186.99</course>
  <speed>0.4687216658103186</speed>
  <fix>3d</fix>
</trkpt>
<trkpt lat="33.8101369" lon="-118.3939002">
  <ele>-7.9</ele>
  <time>2026-09-02T22:13:22Z</time>
  <course>188.66</course>
  <speed>0.49</speed>
  <fix>3d</fix>
</trkpt>
<trkpt lat="33.8101356" lon="-118.3939006">
  <ele>-7.995</ele>
  <time>2026-09-02T22:13:22Z</time>
  <course>186.99</course>
  <speed>0.47853944456021597</speed>
  <fix>3d</fix>
</trkpt>
<trkpt lat="33.810136" lon="-118.3939004">
  <ele>-7.86</ele>
  <time>2026-09-02T22:13:22Z</time>
  <course>188.68</course>
  <speed>0.49</speed>
  <fix>3d</fix>
</trkpt>
<trkpt lat="33.8101352" lon="-118.3939006">
  <ele>-7.978</ele>
  <time>2026-09-02T22:13:22Z</time>
  <course>186.98</course>
  <speed>0.4687216658103186</speed>
  <fix>3d</fix>
</trkpt>
<trkpt lat="33.810136" lon="-118.3939004">
  <ele>-7.86</ele>
  <time>2026-09-02T22:13:22Z</time>
  <course>188.68</course>
  <speed>0.49</speed>
  <fix>3d</fix>
</trkpt>
<trkpt lat="33.8101347" lon="-118.3939007">
  <ele>-7.962</ele>
  <time>2026-09-02T22:13:22Z</time>
  <course>186.98</course>
  <speed>0.47853944456021597</speed>
  <fix>3d</fix>
</trkpt>
<trkpt lat="33.8101351" lon="-118.3939005">
  <ele>-7.82</ele>
  <time>2026-09-02T22:13:22Z</time>
  <course>188.65</course>
  <speed>0.49</speed>
  <fix>3d</fix>
</trkpt>
<trkpt lat="33.8101343" lon="-118.3939008">
  <ele>-7.945</ele>
  <time>2026-09-02T22:13:22Z</time>
  <course>186.99</course>
  <speed>0.47853944456021597</speed>
  <fix>3d</fix>
</trkpt>
<trkpt lat="33.8101351" lon="-118.3939005">
  <ele>-7.82</ele>
  <time>2026-09-02T22:13:22Z</time>
  <course>188.65</course>
  <speed>0.49</speed>
  <fix>3d</fix>
</trkpt>
<trkpt lat="33.8101339" lon="-118.3939009">
  <ele>-7.928</ele>
  <time>2026-09-02T22:13:22Z</time>
  <course>186.99</course>
  <speed>0.47853944456021597</speed>
  <fix>3d</fix>
</trkpt>
<trkpt lat="33.8101342" lon="-118.3939007">
  <ele>-7.78</ele>
  <time>2026-09-02T22:13:22Z</time>
  <course>188.61</course>
  <speed>0.49</speed>
  <fix>3d</fix>
</trkpt>
<trkpt lat="33.8101334" lon="-118.393901">
  <ele>-7.91</ele>
  <time>2026-09-02T22:13:22Z</time>
  <course>186.99</course>
  <speed>0.47853944456021597</speed>
  <fix>3d</fix>
</trkpt>
<trkpt lat="33.8101342" lon="-118.3939007">
  <ele>-7.78</ele>
  <time>2026-09-02T22:13:22Z</time>
  <course>188.61</course>
  <speed>0.49</speed>
  <fix>3d</fix>
</trkpt>
<trkpt lat="33.810133" lon="-118.393901">
  <ele>-7.893</ele>
  <time>2026-09-02T22:13:22Z</time>
  <course>186.99</course>
  <speed>0.47853944456021597</speed>
  <fix>3d</fix>
</trkpt>
<trkpt lat="33.8101333" lon="-118.3939008">
  <ele>-7.75</ele>
  <time>2026-09-02T22:13:22Z</time>
  <course>188.59</course>
  <speed>0.49</speed>
  <fix>3d</fix>
</trkpt>
<trkpt lat="33.8101325" lon="-118.3939011">
  <ele>-7.875</ele>
  <time>2026-09-02T22:13:22Z</time>
  <course>186.98</course>
  <speed>0.47853944456021597</speed>
  <fix>3d</fix>
</trkpt>
<trkpt lat="33.8101333" lon="-118.3939008">
  <ele>-7.75</ele>
  <time>2026-09-02T22:13:22Z</time>
  <course>188.59</course>
  <speed>0.49</speed>
  <fix>3d</fix>
</trkpt>
<trkpt lat="33.8101321" lon="-118.3939012">
  <ele>-7.857</ele>
  <time>2026-09-02T22:13:22Z</time>
  <course>186.98</course>
  <speed>0.47853944456021597</speed>
  <fix>3d</fix>
</trkpt>
<trkpt lat="33.8101324" lon="-118.393901">
  <ele>-7.71</ele>
  <time>2026-09-02T22:13:22Z</time>
  <course>188.64</course>
  <speed>0.5</speed>
  <fix>3d</fix>
</trkpt>
<trkpt lat="33.8101316" lon="-118.3939013">
  <ele>-7.839</ele>
  <time>2026-09-02T22:13:22Z</time>
  <course>186.98</course>
  <speed>0.47853944456021597</speed>
  <fix>3d</fix>
</trkpt>
<trkpt lat="33.8101324" lon="-118.393901">
  <ele>-7.71</ele>
  <time>2026-09-02T22:13:22Z</time>
  <course>188.64</course>
  <speed>0.5</speed>
  <fix>3d</fix>
</trkpt>
<trkpt lat="33.8101312" lon="-118.3939014">
  <ele>-7.821</ele>
  <time>2026-09-02T22:13:22Z</time>
  <course>186.98</course>
  <speed>0.47853944456021597</speed>
  <fix>3d</fix>
</trkpt>
<trkpt lat="33.8101316" lon="-118.3939011">
  <ele>-7.68</ele>
  <time>2026-09-02T22:13:22Z</time>
  <course>188.73</course>
  <speed>0.5</speed>
  <fix>3d</fix>
</trkpt>
<trkpt lat="33.8101307" lon="-118.3939015">
  <ele>-7.804</ele>
  <time>2026-09-02T22:13:22Z</time>
  <course>186.98</course>
  <speed>0.47853944456021597</speed>
  <fix>3d</fix>
</trkpt>
<trkpt lat="33.8101316" lon="-118.3939011">
  <ele>-7.68</ele>
  <time>2026-09-02T22:13:22Z</time>
  <course>188.73</course>
  <speed>0.5</speed>
  <fix>3d</fix>
</trkpt>
<trkpt lat="33.8101303" lon="-118.3939015">
  <ele>-7.786</ele>
  <time>2026-09-02T22:13:22Z</time>
  <course>186.98</course>
  <speed>0.47853944456021597</speed>
  <fix>3d</fix>
</trkpt>
<trkpt lat="33.8101307" lon="-118.3939013">
  <ele>-7.64</ele>
  <time>2026-09-02T22:13:22Z</time>
  <course>188.83</course>
  <speed>0.5</speed>
  <fix>3d</fix>
</trkpt>
<trkpt lat="33.8101299" lon="-118.3939016">
  <ele>-7.766</ele>
  <time>2026-09-02T22:13:22Z</time>
  <course>186.98</course>
  <speed>0.47853944456021597</speed>
  <fix>3d</fix>
</trkpt>
<trkpt lat="33.8101307" lon="-118.3939013">
  <ele>-7.64</ele>
  <time>2026-09-02T22:13:22Z</time>
  <course>188.83</course>
  <speed>0.5</speed>
  <fix>3d</fix>
</trkpt>
<trkpt lat="33.8101294" lon="-118.3939017">
  <ele>-7.746</ele>
  <time>2026-09-02T22:13:22Z</time>
  <course>186.98</course>
  <speed>0.47853944456021597</speed>
  <fix>3d</fix>
</trkpt>
<trkpt lat="33.8101298" lon="-118.3939015">
  <ele>-7.61</ele>
  <time>2026-09-02T22:13:22Z</time>
  <course>188.92</course>
  <speed>0.5</speed>
  <fix>3d</fix>
</trkpt>
<trkpt lat="33.810129" lon="-118.3939018">
  <ele>-7.727</ele>
  <time>2026-09-02T22:13:22Z</time>
  <course>186.98</course>
  <speed>0.47853944456021597</speed>
  <fix>3d</fix>
</trkpt>
<trkpt lat="33.8101298" lon="-118.3939015">
  <ele>-7.61</ele>
  <time>2026-09-02T22:13:22Z</time>
  <course>188.92</course>
  <speed>0.5</speed>
  <fix>3d</fix>
</trkpt>
<trkpt lat="33.8101285" lon="-118.3939019">
  <ele>-7.708</ele>
  <time>2026-09-02T22:13:22Z</time>
  <course>186.98</course>
  <speed>0.47853944456021597</speed>
  <fix>3d</fix>
</trkpt>
<trkpt lat="33.8101289" lon="-118.3939016">
  <ele>-7.57</ele>
  <time>2026-09-02T22:13:22Z</time>
  <course>188.97</course>
  <speed>0.5</speed>
  <fix>3d</fix>
</trkpt>
<trkpt lat="33.8101281" lon="-118.3939019">
  <ele>-7.689</ele>
  <time>2026-09-02T22:13:22Z</time>
  <course>186.98</course>
  <speed>0.47853944456021597</speed>
  <fix>3d</fix>
</trkpt>
<trkpt lat="33.8101289" lon="-118.3939016">
  <ele>-7.57</ele>
  <time>2026-09-02T22:13:22Z</time>
  <course>188.97</course>
  <speed>0.5</speed>
  <fix>3d</fix>
</trkpt>
<trkpt lat="33.8101276" lon="-118.393902">
  <ele>-7.669</ele>
  <time>2026-09-02T22:13:22Z</time>
  <course>186.98</course>
  <speed>0.47853944456021597</speed>
  <fix>3d</fix>
</trkpt>
<trkpt lat="33.810128" lon="-118.3939018">
  <ele>-7.53</ele>
  <time>2026-09-02T22:13:22Z</time>
  <course>188.98</course>
  <speed>0.5</speed>
  <fix>3d</fix>
</trkpt>
<trkpt lat="33.8101272" lon="-118.3939021">
  <ele>-7.649</ele>
  <time>2026-09-02T22:13:22Z</time>
  <course>186.98</course>
  <speed>0.47853944456021597</speed>
  <fix>3d</fix>
</trkpt>
<trkpt lat="33.810128" lon="-118.3939018">
  <ele>-7.53</ele>
  <time>2026-09-02T22:13:22Z</time>
  <course>188.98</course>
  <speed>0.5</speed>
  <fix>3d</fix>
</trkpt>
<trkpt lat="33.8101268" lon="-118.3939022">
  <ele>-7.63</ele>
  <time>2026-09-02T22:13:22Z</time>
  <course>186.98</course>
  <speed>0.47853944456021597</speed>
  <fix>3d</fix>
</trkpt>
<trkpt lat="33.8101271" lon="-118.393902">
  <ele>-7.49</ele>
  <time>2026-09-02T22:13:22Z</time>
  <course>189.01</course>
  <speed>0.5</speed>
  <fix>3d</fix>
</trkpt>
<trkpt lat="33.8101263" lon="-118.3939023">
  <ele>-7.611</ele>
  <time>2026-09-02T22:13:22Z</time>
  <course>186.98</course>
  <speed>0.47853944456021597</speed>
  <fix>3d</fix>
</trkpt>
<trkpt lat="33.8101271" lon="-118.393902">
  <ele>-7.49</ele>
  <time>2026-09-02T22:13:22Z</time>
  <course>189.01</course>
  <speed>0.5</speed>
  <fix>3d</fix>
</trkpt>
<trkpt lat="33.8101259" lon="-118.3939024">
  <ele>-7.59</ele>
  <time>2026-09-02T22:13:22Z</time>
  <course>186.98</course>
  <speed>0.47853944456021597</speed>
  <fix>3d</fix>
</trkpt>
<trkpt lat="33.8101262" lon="-118.3939021">
  <ele>-7.45</ele>
  <time>2026-09-02T22:13:22Z</time>
  <course>188.99</course>
  <speed>0.5</speed>
  <fix>3d</fix>
</trkpt>
<trkpt lat="33.8101254" lon="-118.3939024">
  <ele>-7.567</ele>
  <time>2026-09-02T22:13:22Z</time>
  <course>186.98</course>
  <speed>0.47853944456021597</speed>
  <fix>3d</fix>
</trkpt>
<trkpt lat="33.8101262" lon="-118.3939021">
  <ele>-7.45</ele>
  <time>2026-09-02T22:13:22Z</time>
  <course>188.99</course>
  <speed>0.5</speed>
  <fix>3d</fix>
</trkpt>
<trkpt lat="33.810125" lon="-118.3939025">
  <ele>-7.543</ele>
  <time>2026-09-02T22:13:22Z</time>
  <course>186.98</course>
  <speed>0.47853944456021597</speed>
  <fix>3d</fix>
</trkpt>
<trkpt lat="33.8101253" lon="-118.3939024">
  <ele>-7.41</ele>
  <time>2026-09-02T22:13:22Z</time>
  <course>188.97</course>
  <speed>0.5</speed>
  <fix>3d</fix>
</trkpt>
<trkpt lat="33.8101245" lon="-118.3939026">
  <ele>-7.521</ele>
  <time>2026-09-02T22:13:22Z</time>
  <course>186.98</course>
  <speed>0.47853944456021597</speed>
  <fix>3d</fix>
</trkpt>
<trkpt lat="33.8101253" lon="-118.3939024">
  <ele>-7.41</ele>
  <time>2026-09-02T22:13:22Z</time>
  <course>188.97</course>
  <speed>0.5</speed>
  <fix>3d</fix>
</trkpt>
<trkpt lat="33.8101241" lon="-118.3939027">
  <ele>-7.499</ele>
  <time>2026-09-02T22:13:22Z</time>
  <course>186.98</course>
  <speed>0.47853944456021597</speed>
  <fix>3d</fix>
</trkpt>
<trkpt lat="33.8101244" lon="-118.3939025">
  <ele>-7.37</ele>
  <time>2026-09-02T22:13:22Z</time>
  <course>188.93</course>
  <speed>0.5</speed>
  <fix>3d</fix>
</trkpt>
<trkpt lat="33.8101236" lon="-118.3939028">
  <ele>-7.478</ele>
  <time>2026-09-02T22:13:22Z</time>
  <course>186.98</course>
  <speed>0.47853944456021597</speed>
  <fix>3d</fix>
</trkpt>
<trkpt lat="33.8101244" lon="-118.3939025">
  <ele>-7.37</ele>
  <time>2026-09-02T22:13:22Z</time>
  <course>188.93</course>
  <speed>0.5</speed>
  <fix>3d</fix>
</trkpt>
<trkpt lat="33.8101232" lon="-118.3939029">
  <ele>-7.457</ele>
  <time>2026-09-02T22:13:22Z</time>
  <course>186.98</course>
  <speed>0.47853944456021597</speed>
  <fix>3d</fix>
</trkpt>
<trkpt lat="33.8101235" lon="-118.3939026">
  <ele>-7.33</ele>
  <time>2026-09-02T22:13:22Z</time>
  <course>188.84</course>
  <speed>0.5</speed>
  <fix>3d</fix>
</trkpt>
<trkpt lat="33.8101228" lon="-118.3939029">
  <ele>-7.438</ele>
  <time>2026-09-02T22:13:22Z</time>
  <course>186.98</course>
  <speed>0.47853944456021597</speed>
  <fix>3d</fix>
</trkpt>
<trkpt lat="33.8101235" lon="-118.3939026">
  <ele>-7.33</ele>
  <time>2026-09-02T22:13:22Z</time>
  <course>188.84</course>
  <speed>0.5</speed>
  <fix>3d</fix>
</trkpt>
<trkpt lat="33.8101223" lon="-118.393903">
  <ele>-7.422</ele>
  <time>2026-09-02T22:13:22Z</time>
  <course>186.98</course>
  <speed>0.47853944456021597</speed>
  <fix>3d</fix>
</trkpt>
<trkpt lat="33.8101226" lon="-118.3939029">
  <ele>-7.29</ele>
  <time>2026-09-02T22:13:22Z</time>
  <course>188.83</course>
  <speed>0.5</speed>
  <fix>3d</fix>
</trkpt>
<trkpt lat="33.8101219" lon="-118.3939031">
  <ele>-7.406</ele>
  <time>2026-09-02T22:13:22Z</time>
  <course>186.98</course>
  <speed>0.47853944456021597</speed>
  <fix>3d</fix>
</trkpt>
<trkpt lat="33.8101226" lon="-118.3939029">
  <ele>-7.29</ele>
  <time>2026-09-02T22:13:22Z</time>
  <course>188.83</course>
  <speed>0.5</speed>
  <fix>3d</fix>
</trkpt>
<trkpt lat="33.8101214" lon="-118.3939032">
  <ele>-7.392</ele>
  <time>2026-09-02T22:13:22Z</time>
  <course>186.98</course>
  <speed>0.47853944456021597</speed>
  <fix>3d</fix>
</trkpt>
<trkpt lat="33.8101217" lon="-118.393903">
  <ele>-7.26</ele>
  <time>2026-09-02T22:13:22Z</time>
  <course>188.83</course>
  <speed>0.5</speed>
  <fix>3d</fix>
</trkpt>
<trkpt lat="33.810121" lon="-118.3939033">
  <ele>-7.378</ele>
  <time>2026-09-02T22:13:22Z</time>
  <course>186.98</course>
  <speed>0.4687216658103186</speed>
  <fix>3d</fix>
</trkpt>
<trkpt lat="33.8101217" lon="-118.393903">
  <ele>-7.26</ele>
  <time>2026-09-02T22:13:22Z</time>
  <course>188.83</course>
  <speed>0.5</speed>
  <fix>3d</fix>
</trkpt>
<trkpt lat="33.8101205" lon="-118.3939034">
  <ele>-7.361</ele>
  <time>2026-09-02T22:13:22Z</time>
  <course>186.98</course>
  <speed>0.47853944456021597</speed>
  <fix>3d</fix>
</trkpt>
<trkpt lat="33.8101208" lon="-118.3939031">
  <ele>-7.22</ele>
  <time>2026-09-02T22:13:22Z</time>
  <course>188.77</course>
  <speed>0.5</speed>
  <fix>3d</fix>
</trkpt>
<trkpt lat="33.8101201" lon="-118.3939034">
  <ele>-7.342</ele>
  <time>2026-09-02T22:13:22Z</time>
  <course>186.98</course>
  <speed>0.4687216658103186</speed>
  <fix>3d</fix>
</trkpt>
<trkpt lat="33.8101208" lon="-118.3939031">
  <ele>-7.22</ele>
  <time>2026-09-02T22:13:22Z</time>
  <course>188.77</course>
  <speed>0.5</speed>
  <fix>3d</fix>
</trkpt>
<trkpt lat="33.8101196" lon="-118.3939035">
  <ele>-7.322</ele>
  <time>2026-09-02T22:13:22Z</time>
  <course>186.98</course>
  <speed>0.47853944456021597</speed>
  <fix>3d</fix>
</trkpt>
<trkpt lat="33.81012" lon="-118.3939034">
  <ele>-7.19</ele>
  <time>2026-09-02T22:13:22Z</time>
  <course>188.78</course>
  <speed>0.5</speed>
  <fix>3d</fix>
</trkpt>
<trkpt lat="33.8101192" lon="-118.3939036">
  <ele>-7.299</ele>
  <time>2026-09-02T22:13:22Z</time>
  <course>186.98</course>
  <speed>0.4687216658103186</speed>
  <fix>3d</fix>
</trkpt>
<trkpt lat="33.81012" lon="-118.3939034">
  <ele>-7.19</ele>
  <time>2026-09-02T22:13:22Z</time>
  <course>188.78</course>
  <speed>0.5</speed>
  <fix>3d</fix>
</trkpt>
<trkpt lat="33.8101188" lon="-118.3939037">
  <ele>-7.275</ele>
  <time>2026-09-02T22:13:22Z</time>
  <course>186.97</course>
  <speed>0.47853944456021597</speed>
  <fix>3d</fix>
</trkpt>
<trkpt lat="33.8101191" lon="-118.3939035">
  <ele>-7.15</ele>
  <time>2026-09-02T22:13:22Z</time>
  <course>188.78</course>
  <speed>0.5</speed>
  <fix>3d</fix>
</trkpt>
<trkpt lat="33.8101183" lon="-118.3939038">
  <ele>-7.252</ele>
  <time>2026-09-02T22:13:22Z</time>
  <course>186.98</course>
  <speed>0.4687216658103186</speed>
  <fix>3d</fix>
</trkpt>
<trkpt lat="33.8101191" lon="-118.3939035">
  <ele>-7.15</ele>
  <time>2026-09-02T22:13:22Z</time>
  <course>188.78</course>
  <speed>0.5</speed>
  <fix>3d</fix>
</trkpt>
<trkpt lat="33.8101179" lon="-118.3939039">
  <ele>-7.228</ele>
  <time>2026-09-02T22:13:22Z</time>
  <course>186.97</course>
  <speed>0.47853944456021597</speed>
  <fix>3d</fix>
</trkpt>
<trkpt lat="33.8101182" lon="-118.3939037">
  <ele>-7.11</ele>
  <time>2026-09-02T22:13:22Z</time>
  <course>188.72</course>
  <speed>0.5</speed>
  <fix>3d</fix>
</trkpt>
<trkpt lat="33.8101174" lon="-118.3939039">
  <ele>-7.204</ele>
  <time>2026-09-02T22:13:22Z</time>
  <course>186.97</course>
  <speed>0.47853944456021597</speed>
  <fix>3d</fix>
</trkpt>
<trkpt lat="33.8101182" lon="-118.3939037">
  <ele>-7.11</ele>
  <time>2026-09-02T22:13:22Z</time>
  <course>188.72</course>
  <speed>0.5</speed>
  <fix>3d</fix>
</trkpt>
<trkpt lat="33.810117" lon="-118.393904">
  <ele>-7.182</ele>
  <time>2026-09-02T22:13:22Z</time>
  <course>186.97</course>
  <speed>0.47853944456021597</speed>
  <fix>3d</fix>
</trkpt>
<trkpt lat="33.8101173" lon="-118.3939038">
  <ele>-7.07</ele>
  <time>2026-09-02T22:13:22Z</time>
  <course>188.64</course>
  <speed>0.5</speed>
  <fix>3d</fix>
</trkpt>
<trkpt lat="33.8101165" lon="-118.3939041">
  <ele>-7.16</ele>
  <time>2026-09-02T22:13:22Z</time>
  <course>186.97</course>
  <speed>0.47853944456021597</speed>
  <fix>3d</fix>
</trkpt>
<trkpt lat="33.8101173" lon="-118.3939038">
  <ele>-7.07</ele>
  <time>2026-09-02T22:13:22Z</time>
  <course>188.64</course>
  <speed>0.5</speed>
  <fix>3d</fix>
</trkpt>
<trkpt lat="33.8101161" lon="-118.3939042">
  <ele>-7.139</ele>
  <time>2026-09-02T22:13:22Z</time>
  <course>186.97</course>
  <speed>0.47853944456021597</speed>
  <fix>3d</fix>
</trkpt>
<trkpt lat="33.8101164" lon="-118.393904">
  <ele>-7.03</ele>
  <time>2026-09-02T22:13:22Z</time>
  <course>188.6</course>
  <speed>0.5</speed>
  <fix>3d</fix>
</trkpt>
<trkpt lat="33.8101157" lon="-118.3939043">
  <ele>-7.118</ele>
  <time>2026-09-02T22:13:22Z</time>
  <course>186.97</course>
  <speed>0.47853944456021597</speed>
  <fix>3d</fix>
</trkpt>
<trkpt lat="33.8101164" lon="-118.393904">
  <ele>-7.03</ele>
  <time>2026-09-02T22:13:22Z</time>
  <course>188.6</course>
  <speed>0.5</speed>
  <fix>3d</fix>
</trkpt>
<trkpt lat="33.8101152" lon="-118.3939044">
  <ele>-7.099</ele>
  <time>2026-09-02T22:13:22Z</time>
  <course>186.97</course>
  <speed>0.47853944456021597</speed>
  <fix>3d</fix>
</trkpt>
<trkpt lat="33.8101155" lon="-118.3939042">
  <ele>-6.99</ele>
  <time>2026-09-02T22:13:22Z</time>
  <course>188.61</course>
  <speed>0.5</speed>
  <fix>3d</fix>
</trkpt>
<trkpt lat="33.8101148" lon="-118.3939044">
  <ele>-7.081</ele>
  <time>2026-09-02T22:13:22Z</time>
  <course>186.97</course>
  <speed>0.47853944456021597</speed>
  <fix>3d</fix>
</trkpt>
<trkpt lat="33.8101155" lon="-118.3939042">
  <ele>-6.99</ele>
  <time>2026-09-02T22:13:22Z</time>
  <course>188.61</course>
  <speed>0.5</speed>
  <fix>3d</fix>
</trkpt>
<trkpt lat="33.8101143" lon="-118.3939045">
  <ele>-7.064</ele>
  <time>2026-09-02T22:13:22Z</time>
  <course>186.97</course>
  <speed>0.47853944456021597</speed>
  <fix>3d</fix>
</trkpt>
<trkpt lat="33.8101146" lon="-118.3939043">
  <ele>-6.95</ele>
  <time>2026-09-02T22:13:22Z</time>
  <course>188.61</course>
  <speed>0.5</speed>
  <fix>3d</fix>
</trkpt>
<trkpt lat="33.8101139" lon="-118.3939046">
  <ele>-7.045</ele>
  <time>2026-09-02T22:13:22Z</time>
  <course>186.97</course>
  <speed>0.4687216658103186</speed>
  <fix>3d</fix>
</trkpt>
<trkpt lat="33.8101146" lon="-118.3939043">
  <ele>-6.95</ele>
  <time>2026-09-02T22:13:22Z</time>
  <course>188.61</course>
  <speed>0.5</speed>
  <fix>3d</fix>
</trkpt>
<trkpt lat="33.8101134" lon="-118.3939047">
  <ele>-7.025</ele>
  <time>2026-09-02T22:13:22Z</time>
  <course>186.97</course>
  <speed>0.47853944456021597</speed>
  <fix>3d</fix>
</trkpt>
<trkpt lat="33.8101137" lon="-118.3939045">
  <ele>-6.91</ele>
  <time>2026-09-02T22:13:22Z</time>
  <course>188.61</course>
  <speed>0.5</speed>
  <fix>3d</fix>
</trkpt>
<trkpt lat="33.810113" lon="-118.3939048">
  <ele>-7.003</ele>
  <time>2026-09-02T22:13:22Z</time>
  <course>186.97</course>
  <speed>0.4687216658103186</speed>
  <fix>3d</fix>
</trkpt>
<trkpt lat="33.8101137" lon="-118.3939045">
  <ele>-6.91</ele>
  <time>2026-09-02T22:13:22Z</time>
  <course>188.61</course>
  <speed>0.5</speed>
  <fix>3d</fix>
</trkpt>
<trkpt lat="33.8101125" lon="-118.3939049">
  <ele>-6.981</ele>
  <time>2026-09-02T22:13:22Z</time>
  <course>186.97</course>
  <speed>0.4687216658103186</speed>
  <fix>3d</fix>
</trkpt>
<trkpt lat="33.8101128" lon="-118.3939047">
  <ele>-6.88</ele>
  <time>2026-09-02T22:13:22Z</time>
  <course>188.64</course>
  <speed>0.5</speed>
  <fix>3d</fix>
</trkpt>
<trkpt lat="33.8101121" lon="-118.3939049">
  <ele>-6.959</ele>
  <time>2026-09-02T22:13:22Z</time>
  <course>186.97</course>
  <speed>0.4687216658103186</speed>
  <fix>3d</fix>
</trkpt>
<trkpt lat="33.8101128" lon="-118.3939047">
  <ele>-6.88</ele>
  <time>2026-09-02T22:13:22Z</time>
  <course>188.64</course>
  <speed>0.5</speed>
  <fix>3d</fix>
</trkpt>
<trkpt lat="33.8101116" lon="-118.393905">
  <ele>-6.935</ele>
  <time>2026-09-02T22:13:22Z</time>
  <course>186.97</course>
  <speed>0.4687216658103186</speed>
  <fix>3d</fix>
</trkpt>
<trkpt lat="33.8101119" lon="-118.3939048">
  <ele>-6.83</ele>
  <time>2026-09-02T22:13:22Z</time>
  <course>188.62</course>
  <speed>0.49</speed>
  <fix>3d</fix>
</trkpt>
<trkpt lat="33.8101112" lon="-118.3939051">
  <ele>-6.911</ele>
  <time>2026-09-02T22:13:22Z</time>
  <course>186.97</course>
  <speed>0.4687216658103186</speed>
  <fix>3d</fix>
</trkpt>
<trkpt lat="33.8101119" lon="-118.3939048">
  <ele>-6.83</ele>
  <time>2026-09-02T22:13:22Z</time>
  <course>188.62</course>
  <speed>0.49</speed>
  <fix>3d</fix>
</trkpt>
<trkpt lat="33.8101108" lon="-118.3939052">
  <ele>-6.887</ele>
  <time>2026-09-02T22:13:22Z</time>
  <course>186.97</course>
  <speed>0.4687216658103186</speed>
  <fix>3d</fix>
</trkpt>
<trkpt lat="33.8101111" lon="-118.393905">
  <ele>-6.78</ele>
  <time>2026-09-02T22:13:22Z</time>
  <course>188.6</course>
  <speed>0.49</speed>
  <fix>3d</fix>
</trkpt>
<trkpt lat="33.8101103" lon="-118.3939053">
  <ele>-6.864</ele>
  <time>2026-09-02T22:13:22Z</time>
  <course>186.97</course>
  <speed>0.4687216658103186</speed>
  <fix>3d</fix>
</trkpt>
<trkpt lat="33.8101111" lon="-118.393905">
  <ele>-6.78</ele>
  <time>2026-09-02T22:13:22Z</time>
  <course>188.6</course>
  <speed>0.49</speed>
  <fix>3d</fix>
</trkpt>
<trkpt lat="33.8101099" lon="-118.3939053">
  <ele>-6.841</ele>
  <time>2026-09-02T22:13:22Z</time>
  <course>186.97</course>
  <speed>0.4687216658103186</speed>
  <fix>3d</fix>
</trkpt>
<trkpt lat="33.8101102" lon="-118.3939051">
  <ele>-6.74</ele>
  <time>2026-09-02T22:13:22Z</time>
  <course>188.62</course>
  <speed>0.49</speed>
  <fix>3d</fix>
</trkpt>
<trkpt lat="33.8101094" lon="-118.3939054">
  <ele>-6.817</ele>
  <time>2026-09-02T22:13:22Z</time>
  <course>186.97</course>
  <speed>0.4687216658103186</speed>
  <fix>3d</fix>
</trkpt>
<trkpt lat="33.8101102" lon="-118.3939051">
  <ele>-6.74</ele>
  <time>2026-09-02T22:13:22Z</time>
  <course>188.62</course>
  <speed>0.49</speed>
  <fix>3d</fix>
</trkpt>
<trkpt lat="33.810109" lon="-118.3939055">
  <ele>-6.794</ele>
  <time>2026-09-02T22:13:22Z</time>
  <course>186.97</course>
  <speed>0.4687216658103186</speed>
  <fix>3d</fix>
</trkpt>
<trkpt lat="33.8101093" lon="-118.3939053">
  <ele>-6.69</ele>
  <time>2026-09-02T22:13:22Z</time>
  <course>188.65</course>
  <speed>0.49</speed>
  <fix>3d</fix>
</trkpt>
<trkpt lat="33.8101085" lon="-118.3939056">
  <ele>-6.771</ele>
  <time>2026-09-02T22:13:22Z</time>
  <course>186.97</course>
  <speed>0.4687216658103186</speed>
  <fix>3d</fix>
</trkpt>
<trkpt lat="33.8101093" lon="-118.3939053">
  <ele>-6.69</ele>
  <time>2026-09-02T22:13:22Z</time>
  <course>188.65</course>
  <speed>0.49</speed>
  <fix>3d</fix>
</trkpt>
<trkpt lat="33.8101081" lon="-118.3939057">
  <ele>-6.747</ele>
  <time>2026-09-02T22:13:22Z</time>
  <course>186.97</course>
  <speed>0.4687216658103186</speed>
  <fix>3d</fix>
</trkpt>
<trkpt lat="33.8101084" lon="-118.3939055">
  <ele>-6.64</ele>
  <time>2026-09-02T22:13:22Z</time>
  <course>188.71</course>
  <speed>0.49</speed>
  <fix>3d</fix>
</trkpt>
<trkpt lat="33.8101077" lon="-118.3939058">
  <ele>-6.722</ele>
  <time>2026-09-02T22:13:22Z</time>
  <course>186.97</course>
  <speed>0.4687216658103186</speed>
  <fix>3d</fix>
</trkpt>
<trkpt lat="33.8101084" lon="-118.3939055">
  <ele>-6.64</ele>
  <time>2026-09-02T22:13:22Z</time>
  <course>188.71</course>
  <speed>0.49</speed>
  <fix>3d</fix>
</trkpt>
<trkpt lat="33.8101072" lon="-118.3939058">
  <ele>-6.699</ele>
  <time>2026-09-02T22:13:22Z</time>
  <course>186.97</course>
  <speed>0.4687216658103186</speed>
  <fix>3d</fix>
</trkpt>
<trkpt lat="33.8101075" lon="-118.3939056">
  <ele>-6.59</ele>
  <time>2026-09-02T22:13:22Z</time>
  <course>188.74</course>
  <speed>0.49</speed>
  <fix>3d</fix>
</trkpt>
<trkpt lat="33.8101068" lon="-118.3939059">
  <ele>-6.678</ele>
  <time>2026-09-02T22:13:22Z</time>
  <course>186.97</course>
  <speed>0.4687216658103186</speed>
  <fix>3d</fix>
</trkpt>
<trkpt lat="33.8101075" lon="-118.3939056">
  <ele>-6.59</ele>
  <time>2026-09-02T22:13:22Z</time>
  <course>188.74</course>
  <speed>0.49</speed>
  <fix>3d</fix>
</trkpt>
<trkpt lat="33.8101063" lon="-118.393906">
  <ele>-6.658</ele>
  <time>2026-09-02T22:13:22Z</time>
  <course>186.97</course>
  <speed>0.4687216658103186</speed>
  <fix>3d</fix>
</trkpt>
<trkpt lat="33.8101066" lon="-118.3939058">
  <ele>-6.55</ele>
  <time>2026-09-02T22:13:22Z</time>
  <course>188.75</course>
  <speed>0.49</speed>
  <fix>3d</fix>
</trkpt>
<trkpt lat="33.8101059" lon="-118.3939061">
  <ele>-6.639</ele>
  <time>2026-09-02T22:13:22Z</time>
  <course>186.97</course>
  <speed>0.4687216658103186</speed>
  <fix>3d</fix>
</trkpt>
<trkpt lat="33.8101066" lon="-118.3939058">
  <ele>-6.55</ele>
  <time>2026-09-02T22:13:22Z</time>
  <course>188.75</course>
  <speed>0.49</speed>
  <fix>3d</fix>
</trkpt>
<trkpt lat="33.8101054" lon="-118.3939062">
  <ele>-6.621</ele>
  <time>2026-09-02T22:13:22Z</time>
  <course>186.97</course>
  <speed>0.4687216658103186</speed>
  <fix>3d</fix>
</trkpt>
<trkpt lat="33.8101057" lon="-118.3939059">
  <ele>-6.51</ele>
  <time>2026-09-02T22:13:22Z</time>
  <course>188.79</course>
  <speed>0.49</speed>
  <fix>3d</fix>
</trkpt>
<trkpt lat="33.810105" lon="-118.3939062">
  <ele>-6.604</ele>
  <time>2026-09-02T22:13:22Z</time>
  <course>186.97</course>
  <speed>0.4687216658103186</speed>
  <fix>3d</fix>
</trkpt>
<trkpt lat="33.8101057" lon="-118.3939059">
  <ele>-6.51</ele>
  <time>2026-09-02T22:13:22Z</time>
  <course>188.79</course>
  <speed>0.49</speed>
  <fix>3d</fix>
</trkpt>
<trkpt lat="33.8101045" lon="-118.3939063">
  <ele>-6.59</ele>
  <time>2026-09-02T22:13:22Z</time>
  <course>186.97</course>
  <speed>0.4687216658103186</speed>
  <fix>3d</fix>
</trkpt>
<trkpt lat="33.8101048" lon="-118.3939061">
  <ele>-6.47</ele>
  <time>2026-09-02T22:13:22Z</time>
  <course>188.86</course>
  <speed>0.49</speed>
  <fix>3d</fix>
</trkpt>
<trkpt lat="33.8101041" lon="-118.3939064">
  <ele>-6.577</ele>
  <time>2026-09-02T22:13:22Z</time>
  <course>186.97</course>
  <speed>0.4687216658103186</speed>
  <fix>3d</fix>
</trkpt>
<trkpt lat="33.8101048" lon="-118.3939061">
  <ele>-6.47</ele>
  <time>2026-09-02T22:13:22Z</time>
  <course>188.86</course>
  <speed>0.49</speed>
  <fix>3d</fix>
</trkpt>
<trkpt lat="33.8101036" lon="-118.3939065">
  <ele>-6.564</ele>
  <time>2026-09-02T22:13:22Z</time>
  <course>186.97</course>
  <speed>0.4687216658103186</speed>
  <fix>3d</fix>
</trkpt>
<trkpt lat="33.8101039" lon="-118.3939063">
  <ele>-6.44</ele>
  <time>2026-09-02T22:13:22Z</time>
  <course>188.97</course>
  <speed>0.49</speed>
  <fix>3d</fix>
</trkpt>
<trkpt lat="33.8101032" lon="-118.3939066">
  <ele>-6.551</ele>
  <time>2026-09-02T22:13:22Z</time>
  <course>186.97</course>
  <speed>0.4687216658103186</speed>
  <fix>3d</fix>
</trkpt>
<trkpt lat="33.8101039" lon="-118.3939063">
  <ele>-6.44</ele>
  <time>2026-09-02T22:13:22Z</time>
  <course>188.97</course>
  <speed>0.49</speed>
  <fix>3d</fix>
</trkpt>
<trkpt lat="33.8101028" lon="-118.3939067">
  <ele>-6.537</ele>
  <time>2026-09-02T22:13:22Z</time>
  <course>186.97</course>
  <speed>0.4687216658103186</speed>
  <fix>3d</fix>
</trkpt>
<trkpt lat="33.8101031" lon="-118.3939064">
  <ele>-6.41</ele>
  <time>2026-09-02T22:13:22Z</time>
  <course>189.02</course>
  <speed>0.49</speed>
  <fix>3d</fix>
</trkpt>
<trkpt lat="33.8101023" lon="-118.3939067">
  <ele>-6.522</ele>
  <time>2026-09-02T22:13:22Z</time>
  <course>186.97</course>
  <speed>0.4687216658103186</speed>
  <fix>3d</fix>
</trkpt>
<trkpt lat="33.8101031" lon="-118.3939064">
  <ele>-6.41</ele>
  <time>2026-09-02T22:13:22Z</time>
  <course>189.02</course>
  <speed>0.49</speed>
  <fix>3d</fix>
</trkpt>
<trkpt lat="33.8101019" lon="-118.3939068">
  <ele>-6.506</ele>
  <time>2026-09-02T22:13:22Z</time>
  <course>186.97</course>
  <speed>0.4687216658103186</speed>
  <fix>3d</fix>
</trkpt>
<trkpt lat="33.8101022" lon="-118.3939066">
  <ele>-6.38</ele>
  <time>2026-09-02T22:13:22Z</time>
  <course>189.04</course>
  <speed>0.49</speed>
  <fix>3d</fix>
</trkpt>
<trkpt lat="33.8101014" lon="-118.3939069">
  <ele>-6.49</ele>
  <time>2026-09-02T22:13:22Z</time>
  <course>186.97</course>
  <speed>0.4687216658103186</speed>
  <fix>3d</fix>
</trkpt>
<trkpt lat="33.8101022" lon="-118.3939066">
  <ele>-6.38</ele>
  <time>2026-09-02T22:13:22Z</time>
  <course>189.04</course>
  <speed>0.49</speed>
  <fix>3d</fix>
</trkpt>
<trkpt lat="33.810101" lon="-118.393907">
  <ele>-6.475</ele>
  <time>2026-09-02T22:13:22Z</time>
  <course>186.97</course>
  <speed>0.4687216658103186</speed>
  <fix>3d</fix>
</trkpt>
<trkpt lat="33.8101013" lon="-118.3939068">
  <ele>-6.35</ele>
  <time>2026-09-02T22:13:22Z</time>
  <course>189.07</course>
  <speed>0.49</speed>
  <fix>3d</fix>
</trkpt>
<trkpt lat="33.8101005" lon="-118.3939071">
  <ele>-6.459</ele>
  <time>2026-09-02T22:13:22Z</time>
  <course>186.97</course>
  <speed>0.4687216658103186</speed>
  <fix>3d</fix>
</trkpt>
<trkpt lat="33.8101013" lon="-118.3939068">
  <ele>-6.35</ele>
  <time>2026-09-02T22:13:22Z</time>
  <course>189.07</course>
  <speed>0.49</speed>
  <fix>3d</fix>
</trkpt>
<trkpt lat="33.8101001" lon="-118.3939072">
  <ele>-6.443</ele>
  <time>2026-09-02T22:13:22Z</time>
  <course>186.97</course>
  <speed>0.4687216658103186</speed>
  <fix>3d</fix>
</trkpt>
<trkpt lat="33.8101004" lon="-118.3939069">
  <ele>-6.32</ele>
  <time>2026-09-02T22:13:22Z</time>
  <course>189.04</course>
  <speed>0.49</speed>
  <fix>3d</fix>
</trkpt>
<trkpt lat="33.8100997" lon="-118.3939072">
  <ele>-6.426</ele>
  <time>2026-09-02T22:13:22Z</time>
  <course>186.97</course>
  <speed>0.4687216658103186</speed>
  <fix>3d</fix>
</trkpt>
<trkpt lat="33.8101004" lon="-118.3939069">
  <ele>-6.32</ele>
  <time>2026-09-02T22:13:22Z</time>
  <course>189.04</course>
  <speed>0.49</speed>
  <fix>3d</fix>
</trkpt>
<trkpt lat="33.8100992" lon="-118.3939073">
  <ele>-6.408</ele>
  <time>2026-09-02T22:13:22Z</time>
  <course>186.97</course>
  <speed>0.4687216658103186</speed>
  <fix>3d</fix>
</trkpt>
<trkpt lat="33.8100995" lon="-118.3939071">
  <ele>-6.29</ele>
  <time>2026-09-02T22:13:22Z</time>
  <course>189.01</course>
  <speed>0.49</speed>
  <fix>3d</fix>
</trkpt>
<trkpt lat="33.8100988" lon="-118.3939074">
  <ele>-6.388</ele>
  <time>2026-09-02T22:13:22Z</time>
  <course>186.97</course>
  <speed>0.4687216658103186</speed>
  <fix>3d</fix>
</trkpt>
<trkpt lat="33.8100995" lon="-118.3939071">
  <ele>-6.29</ele>
  <time>2026-09-02T22:13:22Z</time>
  <course>189.01</course>
  <speed>0.49</speed>
  <fix>3d</fix>
</trkpt>
<trkpt lat="33.8100983" lon="-118.3939075">
  <ele>-6.366</ele>
  <time>2026-09-02T22:13:22Z</time>
  <course>186.97</course>
  <speed>0.4687216658103186</speed>
  <fix>3d</fix>
</trkpt>
<trkpt lat="33.8100987" lon="-118.3939073">
  <ele>-6.26</ele>
  <time>2026-09-02T22:13:22Z</time>
  <course>189.02</course>
  <speed>0.49</speed>
  <fix>3d</fix>
</trkpt>
<trkpt lat="33.8100979" lon="-118.3939076">
  <ele>-6.342</ele>
  <time>2026-09-02T22:13:22Z</time>
  <course>186.97</course>
  <speed>0.4687216658103186</speed>
  <fix>3d</fix>
</trkpt>
<trkpt lat="33.8100987" lon="-118.3939073">
  <ele>-6.26</ele>
  <time>2026-09-02T22:13:22Z</time>
  <course>189.02</course>
  <speed>0.49</speed>
  <fix>3d</fix>
</trkpt>
<trkpt lat="33.8100974" lon="-118.3939077">
  <ele>-6.316</ele>
  <time>2026-09-02T22:13:22Z</time>
  <course>186.97</course>
  <speed>0.47853944456021597</speed>
  <fix>3d</fix>
</trkpt>
<trkpt lat="33.8100978" lon="-118.3939074">
  <ele>-6.21</ele>
  <time>2026-09-02T22:13:22Z</time>
  <course>189.0</course>
  <speed>0.49</speed>
  <fix>3d</fix>
</trkpt>
<trkpt lat="33.810097" lon="-118.3939077">
  <ele>-6.29</ele>
  <time>2026-09-02T22:13:22Z</time>
  <course>186.97</course>
  <speed>0.47853944456021597</speed>
  <fix>3d</fix>
</trkpt>
<trkpt lat="33.8100978" lon="-118.3939074">
  <ele>-6.21</ele>
  <time>2026-09-02T22:13:22Z</time>
  <course>189.0</course>
  <speed>0.49</speed>
  <fix>3d</fix>
</trkpt>
<trkpt lat="33.8100966" lon="-118.3939078">
  <ele>-6.263</ele>
  <time>2026-09-02T22:13:22Z</time>
  <course>186.97</course>
  <speed>0.47853944456021597</speed>
  <fix>3d</fix>
</trkpt>
<trkpt lat="33.8100969" lon="-118.3939076">
  <ele>-6.16</ele>
  <time>2026-09-02T22:13:22Z</time>
  <course>188.97</course>
  <speed>0.49</speed>
  <fix>3d</fix>
</trkpt>
<trkpt lat="33.8100961" lon="-118.3939079">
  <ele>-6.237</ele>
  <time>2026-09-02T22:13:22Z</time>
  <course>186.97</course>
  <speed>0.47853944456021597</speed>
  <fix>3d</fix>
</trkpt>
<trkpt lat="33.8100969" lon="-118.3939076">
  <ele>-6.16</ele>
  <time>2026-09-02T22:13:22Z</time>
  <course>188.97</course>
  <speed>0.49</speed>
  <fix>3d</fix>
</trkpt>
<trkpt lat="33.8100957" lon="-118.393908">
  <ele>-6.214</ele>
  <time>2026-09-02T22:13:22Z</time>
  <course>186.97</course>
  <speed>0.47853944456021597</speed>
  <fix>3d</fix>
</trkpt>
<trkpt lat="33.810096" lon="-118.3939078">
  <ele>-6.11</ele>
  <time>2026-09-02T22:13:22Z</time>
  <course>188.97</course>
  <speed>0.49</speed>
  <fix>3d</fix>
</trkpt>
<trkpt lat="33.8100952" lon="-118.3939081">
  <ele>-6.192</ele>
  <time>2026-09-02T22:13:22Z</time>
  <course>186.96</course>
  <speed>0.47853944456021597</speed>
  <fix>3d</fix>
</trkpt>
<trkpt lat="33.810096" lon="-118.3939078">
  <ele>-6.11</ele>
  <time>2026-09-02T22:13:22Z</time>
  <course>188.97</course>
  <speed>0.49</speed>
  <fix>3d</fix>
</trkpt>
<trkpt lat="33.8100948" lon="-118.3939082">
  <ele>-6.17</ele>
  <time>2026-09-02T22:13:22Z</time>
  <course>186.97</course>
  <speed>0.47853944456021597</speed>
  <fix>3d</fix>
</trkpt>
<trkpt lat="33.8100951" lon="-118.3939079">
  <ele>-6.07</ele>
  <time>2026-09-02T22:13:22Z</time>
  <course>188.95</course>
  <speed>0.5</speed>
  <fix>3d</fix>
</trkpt>
<trkpt lat="33.8100943" lon="-118.3939082">
  <ele>-6.149</ele>
  <time>2026-09-02T22:13:22Z</time>
  <course>186.97</course>
  <speed>0.47853944456021597</speed>
  <fix>3d</fix>
</trkpt>
<trkpt lat="33.8100951" lon="-118.3939079">
  <ele>-6.07</ele>
  <time>2026-09-02T22:13:22Z</time>
  <course>188.95</course>
  <speed>0.5</speed>
  <fix>3d</fix>
</trkpt>
<trkpt lat="33.8100939" lon="-118.3939083">
  <ele>-6.127</ele>
  <time>2026-09-02T22:13:22Z</time>
  <course>186.97</course>
  <speed>0.47853944456021597</speed>
  <fix>3d</fix>
</trkpt>
<trkpt lat="33.8100942" lon="-118.3939081">
  <ele>-6.03</ele>
  <time>2026-09-02T22:13:22Z</time>
  <course>188.94</course>
  <speed>0.5</speed>
  <fix>3d</fix>
</trkpt>
<trkpt lat="33.8100935" lon="-118.3939084">
  <ele>-6.104</ele>
  <time>2026-09-02T22:13:22Z</time>
  <course>186.97</course>
  <speed>0.47853944456021597</speed>
  <fix>3d</fix>
</trkpt>
<trkpt lat="33.8100942" lon="-118.3939081">
  <ele>-6.03</ele>
  <time>2026-09-02T22:13:22Z</time>
  <course>188.94</course>
  <speed>0.5</speed>
  <fix>3d</fix>
</trkpt>
<trkpt lat="33.810093" lon="-118.3939085">
  <ele>-6.081</ele>
  <time>2026-09-02T22:13:22Z</time>
  <course>186.96</course>
  <speed>0.47853944456021597</speed>
  <fix>3d</fix>
</trkpt>
<trkpt lat="33.8100933" lon="-118.3939083">
  <ele>-5.98</ele>
  <time>2026-09-02T22:13:22Z</time>
  <course>188.95</course>
  <speed>0.49</speed>
  <fix>3d</fix>
</trkpt>
<trkpt lat="33.8100926" lon="-118.3939086">
  <ele>-6.057</ele>
  <time>2026-09-02T22:13:22Z</time>
  <course>186.96</course>
  <speed>0.4687216658103186</speed>
  <fix>3d</fix>
</trkpt>
<trkpt lat="33.8100933" lon="-118.3939083">
  <ele>-5.98</ele>
  <time>2026-09-02T22:13:22Z</time>
  <course>188.95</course>
  <speed>0.49</speed>
  <fix>3d</fix>
</trkpt>
<trkpt lat="33.8100921" lon="-118.3939087">
  <ele>-6.033</ele>
  <time>2026-09-02T22:13:22Z</time>
  <course>186.96</course>
  <speed>0.47853944456021597</speed>
  <fix>3d</fix>
</trkpt>
<trkpt lat="33.8100924" lon="-118.3939085">
  <ele>-5.93</ele>
  <time>2026-09-02T22:13:22Z</time>
  <course>188.96</course>
  <speed>0.49</speed>
  <fix>3d</fix>
</trkpt>
<trkpt lat="33.8100917" lon="-118.3939087">
  <ele>-6.009</ele>
  <time>2026-09-02T22:13:22Z</time>
  <course>186.96</course>
  <speed>0.4687216658103186</speed>
  <fix>3d</fix>
</trkpt>
<trkpt lat="33.8100924" lon="-118.3939085">
  <ele>-5.93</ele>
  <time>2026-09-02T22:13:22Z</time>
  <course>188.96</course>
  <speed>0.49</speed>
  <fix>3d</fix>
</trkpt>
<trkpt lat="33.8100912" lon="-118.3939088">
  <ele>-5.984</ele>
  <time>2026-09-02T22:13:22Z</time>
  <course>186.96</course>
  <speed>0.47853944456021597</speed>
  <fix>3d</fix>
</trkpt>
<trkpt lat="33.8100916" lon="-118.3939087">
  <ele>-5.88</ele>
  <time>2026-09-02T22:13:22Z</time>
  <course>188.9</course>
  <speed>0.49</speed>
  <fix>3d</fix>
</trkpt>
<trkpt lat="33.8100908" lon="-118.3939089">
  <ele>-5.958</ele>
  <time>2026-09-02T22:13:22Z</time>
  <course>186.96</course>
  <speed>0.4687216658103186</speed>
  <fix>3d</fix>
</trkpt>
<trkpt lat="33.8100916" lon="-118.3939087">
  <ele>-5.88</ele>
  <time>2026-09-02T22:13:22Z</time>
  <course>188.9</course>
  <speed>0.49</speed>
  <fix>3d</fix>
</trkpt>
<trkpt lat="33.8100903" lon="-118.393909">
  <ele>-5.932</ele>
  <time>2026-09-02T22:13:22Z</time>
  <course>186.96</course>
  <speed>0.47675989764240867</speed>
  <fix>3d</fix>
</trkpt>
<trkpt lat="33.8100907" lon="-118.3939088">
  <ele>-5.83</ele>
  <time>2026-09-02T22:13:22Z</time>
  <course>188.74</course>
  <speed>0.49</speed>
  <fix>3d</fix>
</trkpt>
<trkpt lat="33.8100899" lon="-118.3939091">
  <ele>-5.908</ele>
  <time>2026-09-02T22:13:22Z</time>
  <course>186.96</course>
  <speed>0.47853944456021597</speed>
  <fix>3d</fix>
</trkpt>
<trkpt lat="33.8100907" lon="-118.3939088">
  <ele>-5.83</ele>
  <time>2026-09-02T22:13:22Z</time>
  <course>188.74</course>
  <speed>0.49</speed>
  <fix>3d</fix>
</trkpt>
<trkpt lat="33.8100895" lon="-118.3939092">
  <ele>-5.884</ele>
  <time>2026-09-02T22:13:22Z</time>
  <course>186.96</course>
  <speed>0.47675989764240867</speed>
  <fix>3d</fix>
</trkpt>
<trkpt lat="33.8100898" lon="-118.393909">
  <ele>-5.79</ele>
  <time>2026-09-02T22:13:22Z</time>
  <course>188.58</course>
  <speed>0.49</speed>
  <fix>3d</fix>
</trkpt>
<trkpt lat="33.810089" lon="-118.3939092">
  <ele>-5.862</ele>
  <time>2026-09-02T22:13:22Z</time>
  <course>186.96</course>
  <speed>0.47675989764240867</speed>
  <fix>3d</fix>
</trkpt>
<trkpt lat="33.8100898" lon="-118.393909">
  <ele>-5.79</ele>
  <time>2026-09-02T22:13:22Z</time>
  <course>188.58</course>
  <speed>0.49</speed>
  <fix>3d</fix>
</trkpt>
<trkpt lat="33.8100886" lon="-118.3939093">
  <ele>-5.843</ele>
  <time>2026-09-02T22:13:22Z</time>
  <course>186.96</course>
  <speed>0.47675989764240867</speed>
  <fix>3d</fix>
</trkpt>
<trkpt lat="33.8100889" lon="-118.3939091">
  <ele>-5.75</ele>
  <time>2026-09-02T22:13:22Z</time>
  <course>188.5</course>
  <speed>0.49</speed>
  <fix>3d</fix>
</trkpt>
<trkpt lat="33.8100881" lon="-118.3939094">
  <ele>-5.825</ele>
  <time>2026-09-02T22:13:22Z</time>
  <course>186.97</course>
  <speed>0.47853944456021597</speed>
  <fix>3d</fix>
</trkpt>
<trkpt lat="33.8100889" lon="-118.3939091">
  <ele>-5.75</ele>
  <time>2026-09-02T22:13:22Z</time>
  <course>188.5</course>
  <speed>0.49</speed>
  <fix>3d</fix>
</trkpt>
<trkpt lat="33.8100877" lon="-118.3939095">
  <ele>-5.807</ele>
  <time>2026-09-02T22:13:22Z</time>
  <course>186.97</course>
  <speed>0.47853944456021597</speed>
  <fix>3d</fix>
</trkpt>
<trkpt lat="33.810088" lon="-118.3939093">
  <ele>-5.71</ele>
  <time>2026-09-02T22:13:22Z</time>
  <course>188.48</course>
  <speed>0.49</speed>
  <fix>3d</fix>
</trkpt>
<trkpt lat="33.8100872" lon="-118.3939096">
  <ele>-5.79</ele>
  <time>2026-09-02T22:13:22Z</time>
  <course>186.97</course>
  <speed>0.47853944456021597</speed>
  <fix>3d</fix>
</trkpt>
<trkpt lat="33.810088" lon="-118.3939093">
  <ele>-5.71</ele>
  <time>2026-09-02T22:13:22Z</time>
  <course>188.48</course>
  <speed>0.49</speed>
  <fix>3d</fix>
</trkpt>
<trkpt lat="33.8100868" lon="-118.3939097">
  <ele>-5.773</ele>
  <time>2026-09-02T22:13:22Z</time>
  <course>186.97</course>
  <speed>0.47853944456021597</speed>
  <fix>3d</fix>
</trkpt>
<trkpt lat="33.8100871" lon="-118.3939095">
  <ele>-5.67</ele>
  <time>2026-09-02T22:13:22Z</time>
  <course>188.52</course>
  <speed>0.49</speed>
  <fix>3d</fix>
</trkpt>
<trkpt lat="33.8100863" lon="-118.3939097">
  <ele>-5.758</ele>
  <time>2026-09-02T22:13:22Z</time>
  <course>186.96</course>
  <speed>0.47853944456021597</speed>
  <fix>3d</fix>
</trkpt>
<trkpt lat="33.8100871" lon="-118.3939095">
  <ele>-5.67</ele>
  <time>2026-09-02T22:13:22Z</time>
  <course>188.52</course>
  <speed>0.49</speed>
  <fix>3d</fix>
</trkpt>
<trkpt lat="33.8100859" lon="-118.3939098">
  <ele>-5.744</ele>
  <time>2026-09-02T22:13:22Z</time>
  <course>186.96</course>
  <speed>0.47853944456021597</speed>
  <fix>3d</fix>
</trkpt>
<trkpt lat="33.8100862" lon="-118.3939096">
  <ele>-5.64</ele>
  <time>2026-09-02T22:13:22Z</time>
  <course>188.54</course>
  <speed>0.49</speed>
  <fix>3d</fix>
</trkpt>
<trkpt lat="33.8100855" lon="-118.3939099">
  <ele>-5.73</ele>
  <time>2026-09-02T22:13:22Z</time>
  <course>186.96</course>
  <speed>0.47853944456021597</speed>
  <fix>3d</fix>
</trkpt>
<trkpt lat="33.8100862" lon="-118.3939096">
  <ele>-5.64</ele>
  <time>2026-09-02T22:13:22Z</time>
  <course>188.54</course>
  <speed>0.49</speed>
  <fix>3d</fix>
</trkpt>
<trkpt lat="33.810085" lon="-118.39391">
  <ele>-5.717</ele>
  <time>2026-09-02T22:13:22Z</time>
  <course>186.96</course>
  <speed>0.47853944456021597</speed>
  <fix>3d</fix>
</trkpt>
<trkpt lat="33.8100854" lon="-118.3939098">
  <ele>-5.62</ele>
  <time>2026-09-02T22:13:22Z</time>
  <course>188.55</course>
  <speed>0.49</speed>
  <fix>3d</fix>
</trkpt>
<trkpt lat="33.8100846" lon="-118.3939101">
  <ele>-5.705</ele>
  <time>2026-09-02T22:13:22Z</time>
  <course>186.96</course>
  <speed>0.4687216658103186</speed>
  <fix>3d</fix>
</trkpt>
<trkpt lat="33.8100854" lon="-118.3939098">
  <ele>-5.62</ele>
  <time>2026-09-02T22:13:22Z</time>
  <course>188.55</course>
  <speed>0.49</speed>
  <fix>3d</fix>
</trkpt>
<trkpt lat="33.8100841" lon="-118.3939101">
  <ele>-5.693</ele>
  <time>2026-09-02T22:13:22Z</time>
  <course>186.96</course>
  <speed>0.47853944456021597</speed>
  <fix>3d</fix>
</trkpt>
<trkpt lat="33.8100845" lon="-118.3939099">
  <ele>-5.59</ele>
  <time>2026-09-02T22:13:22Z</time>
  <course>188.56</course>
  <speed>0.49</speed>
  <fix>3d</fix>
</trkpt>
<trkpt lat="33.8100837" lon="-118.3939102">
  <ele>-5.682</ele>
  <time>2026-09-02T22:13:22Z</time>
  <course>186.96</course>
  <speed>0.47853944456021597</speed>
  <fix>3d</fix>
</trkpt>
<trkpt lat="33.8100845" lon="-118.3939099">
  <ele>-5.59</ele>
  <time>2026-09-02T22:13:22Z</time>
  <course>188.56</course>
  <speed>0.49</speed>
  <fix>3d</fix>
</trkpt>
<trkpt lat="33.8100832" lon="-118.3939103">
  <ele>-5.671</ele>
  <time>2026-09-02T22:13:22Z</time>
  <course>186.97</course>
  <speed>0.47853944456021597</speed>
  <fix>3d</fix>
</trkpt>
<trkpt lat="33.8100836" lon="-118.3939101">
  <ele>-5.56</ele>
  <time>2026-09-02T22:13:22Z</time>
  <course>188.59</course>
  <speed>0.49</speed>
  <fix>3d</fix>
</trkpt>
<trkpt lat="33.8100828" lon="-118.3939104">
  <ele>-5.66</ele>
  <time>2026-09-02T22:13:22Z</time>
  <course>186.97</course>
  <speed>0.47853944456021597</speed>
  <fix>3d</fix>
</trkpt>
<trkpt lat="33.8100836" lon="-118.3939101">
  <ele>-5.56</ele>
  <time>2026-09-02T22:13:22Z</time>
  <course>188.59</course>
  <speed>0.49</speed>
  <fix>3d</fix>
</trkpt>
<trkpt lat="33.8100824" lon="-118.3939105">
  <ele>-5.648</ele>
  <time>2026-09-02T22:13:22Z</time>
  <course>186.96</course>
  <speed>0.47853944456021597</speed>
  <fix>3d</fix>
</trkpt>
<trkpt lat="33.8100827" lon="-118.3939102">
  <ele>-5.55</ele>
  <time>2026-09-02T22:13:22Z</time>
  <course>188.64</course>
  <speed>0.49</speed>
  <fix>3d</fix>
</trkpt>
<trkpt lat="33.8100819" lon="-118.3939105">
  <ele>-5.637</ele>
  <time>2026-09-02T22:13:22Z</time>
  <course>186.96</course>
  <speed>0.47853944456021597</speed>
  <fix>3d</fix>
</trkpt>
<trkpt lat="33.8100827" lon="-118.3939102">
  <ele>-5.55</ele>
  <time>2026-09-02T22:13:22Z</time>
  <course>188.64</course>
  <speed>0.49</speed>
  <fix>3d</fix>
</trkpt>
<trkpt lat="33.8100815" lon="-118.3939106">
  <ele>-5.624</ele>
  <time>2026-09-02T22:13:22Z</time>
  <course>186.96</course>
  <speed>0.47853944456021597</speed>
  <fix>3d</fix>
</trkpt>
<trkpt lat="33.8100818" lon="-118.3939104">
  <ele>-5.52</ele>
  <time>2026-09-02T22:13:22Z</time>
  <course>188.72</course>
  <speed>0.5</speed>
  <fix>3d</fix>
</trkpt>
<trkpt lat="33.810081" lon="-118.3939107">
  <ele>-5.61</ele>
  <time>2026-09-02T22:13:22Z</time>
  <course>186.96</course>
  <speed>0.47853944456021597</speed>
  <fix>3d</fix>
</trkpt>
<trkpt lat="33.8100818" lon="-118.3939104">
  <ele>-5.52</ele>
  <time>2026-09-02T22:13:22Z</time>
  <course>188.72</course>
  <speed>0.5</speed>
  <fix>3d</fix>
</trkpt>
<trkpt lat="33.8100806" lon="-118.3939108">
  <ele>-5.595</ele>
  <time>2026-09-02T22:13:22Z</time>
  <course>186.96</course>
  <speed>0.47853944456021597</speed>
  <fix>3d</fix>
</trkpt>
<trkpt lat="33.8100809" lon="-118.3939106">
  <ele>-5.5</ele>
  <time>2026-09-02T22:13:22Z</time>
  <course>188.81</course>
  <speed>0.5</speed>
  <fix>3d</fix>
</trkpt>
<trkpt lat="33.8100801" lon="-118.3939109">
  <ele>-5.58</ele>
  <time>2026-09-02T22:13:22Z</time>
  <course>186.96</course>
  <speed>0.47853944456021597</speed>
  <fix>3d</fix>
</trkpt>
<trkpt lat="33.8100809" lon="-118.3939106">
  <ele>-5.5</ele>
  <time>2026-09-02T22:13:22Z</time>
  <course>188.81</course>
  <speed>0.5</speed>
  <fix>3d</fix>
</trkpt>
<trkpt lat="33.8100797" lon="-118.393911">
  <ele>-5.564</ele>
  <time>2026-09-02T22:13:22Z</time>
  <course>186.96</course>
  <speed>0.47853944456021597</speed>
  <fix>3d</fix>
</trkpt>
<trkpt lat="33.81008" lon="-118.3939107">
  <ele>-5.47</ele>
  <time>2026-09-02T22:13:22Z</time>
  <course>188.87</course>
  <speed>0.5</speed>
  <fix>3d</fix>
</trkpt>
<trkpt lat="33.8100792" lon="-118.393911">
  <ele>-5.548</ele>
  <time>2026-09-02T22:13:22Z</time>
  <course>186.96</course>
  <speed>0.47853944456021597</speed>
  <fix>3d</fix>
</trkpt>
<trkpt lat="33.81008" lon="-118.3939107">
  <ele>-5.47</ele>
  <time>2026-09-02T22:13:22Z</time>
  <course>188.87</course>
  <speed>0.5</speed>
  <fix>3d</fix>
</trkpt>
<trkpt lat="33.8100788" lon="-118.3939111">
  <ele>-5.529</ele>
  <time>2026-09-02T22:13:22Z</time>
  <course>186.96</course>
  <speed>0.47853944456021597</speed>
  <fix>3d</fix>
</trkpt>
<trkpt lat="33.8100792" lon="-118.3939109">
  <ele>-5.44</ele>
  <time>2026-09-02T22:13:22Z</time>
  <course>188.91</course>
  <speed>0.49</speed>
  <fix>3d</fix>
</trkpt>
<trkpt lat="33.8100784" lon="-118.3939112">
  <ele>-5.509</ele>
  <time>2026-09-02T22:13:22Z</time>
  <course>186.96</course>
  <speed>0.47853944456021597</speed>
  <fix>3d</fix>
</trkpt>
<trkpt lat="33.8100792" lon="-118.3939109">
  <ele>-5.44</ele>
  <time>2026-09-02T22:13:22Z</time>
  <course>188.91</course>
  <speed>0.49</speed>
  <fix>3d</fix>
</trkpt>
<trkpt lat="33.8100779" lon="-118.3939113">
  <ele>-5.49</ele>
  <time>2026-09-02T22:13:22Z</time>
  <course>186.96</course>
  <speed>0.47853944456021597</speed>
  <fix>3d</fix>
</trkpt>
<trkpt lat="33.8100783" lon="-118.3939111">
  <ele>-5.4</ele>
  <time>2026-09-02T22:13:22Z</time>
  <course>188.94</course>
  <speed>0.49</speed>
  <fix>3d</fix>
</trkpt>
<trkpt lat="33.8100775" lon="-118.3939114">
  <ele>-5.471</ele>
  <time>2026-09-02T22:13:22Z</time>
  <course>186.96</course>
  <speed>0.47853944456021597</speed>
  <fix>3d</fix>
</trkpt>
<trkpt lat="33.8100783" lon="-118.3939111">
  <ele>-5.4</ele>
  <time>2026-09-02T22:13:22Z</time>
  <course>188.94</course>
  <speed>0.49</speed>
  <fix>3d</fix>
</trkpt>
<trkpt lat="33.810077" lon="-118.3939115">
  <ele>-5.451</ele>
  <time>2026-09-02T22:13:22Z</time>
  <course>186.96</course>
  <speed>0.47853944456021597</speed>
  <fix>3d</fix>
</trkpt>
<trkpt lat="33.8100774" lon="-118.3939112">
  <ele>-5.36</ele>
  <time>2026-09-02T22:13:22Z</time>
  <course>188.91</course>
  <speed>0.5</speed>
  <fix>3d</fix>
</trkpt>
<trkpt lat="33.8100766" lon="-118.3939115">
  <ele>-5.43</ele>
  <time>2026-09-02T22:13:22Z</time>
  <course>186.96</course>
  <speed>0.47853944456021597</speed>
  <fix>3d</fix>
</trkpt>
<trkpt lat="33.8100774" lon="-118.3939112">
  <ele>-5.36</ele>
  <time>2026-09-02T22:13:22Z</time>
  <course>188.91</course>
  <speed>0.5</speed>
  <fix>3d</fix>
</trkpt>
<trkpt lat="33.8100761" lon="-118.3939116">
  <ele>-5.409</ele>
  <time>2026-09-02T22:13:22Z</time>
  <course>186.96</course>
  <speed>0.47853944456021597</speed>
  <fix>3d</fix>
</trkpt>
<trkpt lat="33.8100765" lon="-118.3939114">
  <ele>-5.32</ele>
  <time>2026-09-02T22:13:22Z</time>
  <course>188.87</course>
  <speed>0.5</speed>
  <fix>3d</fix>
</trkpt>
<trkpt lat="33.8100757" lon="-118.3939117">
  <ele>-5.387</ele>
  <time>2026-09-02T22:13:22Z</time>
  <course>186.96</course>
  <speed>0.47853944456021597</speed>
  <fix>3d</fix>
</trkpt>
<trkpt lat="33.8100765" lon="-118.3939114">
  <ele>-5.32</ele>
  <time>2026-09-02T22:13:22Z</time>
  <course>188.87</course>
  <speed>0.5</speed>
  <fix>3d</fix>
</trkpt>
<trkpt lat="33.8100753" lon="-118.3939118">
  <ele>-5.364</ele>
  <time>2026-09-02T22:13:22Z</time>
  <course>186.96</course>
  <speed>0.47853944456021597</speed>
  <fix>3d</fix>
</trkpt>
<trkpt lat="33.8100756" lon="-118.3939116">
  <ele>-5.28</ele>
  <time>2026-09-02T22:13:22Z</time>
  <course>188.88</course>
  <speed>0.5</speed>
  <fix>3d</fix>
</trkpt>
<trkpt lat="33.8100748" lon="-118.3939119">
  <ele>-5.339</ele>
  <time>2026-09-02T22:13:22Z</time>
  <course>186.96</course>
  <speed>0.47853944456021597</speed>
  <fix>3d</fix>
</trkpt>
<trkpt lat="33.8100756" lon="-118.3939116">
  <ele>-5.28</ele>
  <time>2026-09-02T22:13:22Z</time>
  <course>188.88</course>
  <speed>0.5</speed>
  <fix>3d</fix>
</trkpt>
<trkpt lat="33.8100744" lon="-118.393912">
  <ele>-5.315</ele>
  <time>2026-09-02T22:13:22Z</time>
  <course>186.96</course>
  <speed>0.47853944456021597</speed>
  <fix>3d</fix>
</trkpt>
<trkpt lat="33.8100747" lon="-118.3939117">
  <ele>-5.23</ele>
  <time>2026-09-02T22:13:22Z</time>
  <course>188.87</course>
  <speed>0.5</speed>
  <fix>3d</fix>
</trkpt>
<trkpt lat="33.8100739" lon="-118.393912">
  <ele>-5.291</ele>
  <time>2026-09-02T22:13:22Z</time>
  <course>186.96</course>
  <speed>0.47853944456021597</speed>
  <fix>3d</fix>
</trkpt>
<trkpt lat="33.8100747" lon="-118.3939117">
  <ele>-5.23</ele>
  <time>2026-09-02T22:13:22Z</time>
  <course>188.87</course>
  <speed>0.5</speed>
  <fix>3d</fix>
</trkpt>
<trkpt lat="33.8100735" lon="-118.3939121">
  <ele>-5.268</ele>
  <time>2026-09-02T22:13:22Z</time>
  <course>186.96</course>
  <speed>0.47853944456021597</speed>
  <fix>3d</fix>
</trkpt>
<trkpt lat="33.8100738" lon="-118.3939119">
  <ele>-5.18</ele>
  <time>2026-09-02T22:13:22Z</time>
  <course>188.87</course>
  <speed>0.5</speed>
  <fix>3d</fix>
</trkpt>
<trkpt lat="33.810073" lon="-118.3939122">
  <ele>-5.244</ele>
  <time>2026-09-02T22:13:22Z</time>
  <course>186.96</course>
  <speed>0.47853944456021597</speed>
  <fix>3d</fix>
</trkpt>
<trkpt lat="33.8100738" lon="-118.3939119">
  <ele>-5.18</ele>
  <time>2026-09-02T22:13:22Z</time>
  <course>188.87</course>
  <speed>0.5</speed>
  <fix>3d</fix>
</trkpt>
<trkpt lat="33.8100726" lon="-118.3939123">
  <ele>-5.22</ele>
  <time>2026-09-02T22:13:22Z</time>
  <course>186.96</course>
  <speed>0.47853944456021597</speed>
  <fix>3d</fix>
</trkpt>
<trkpt lat="33.8100729" lon="-118.3939121">
  <ele>-5.14</ele>
  <time>2026-09-02T22:13:22Z</time>
  <course>188.89</course>
  <speed>0.5</speed>
  <fix>3d</fix>
</trkpt>
<trkpt lat="33.8100721" lon="-118.3939124">
  <ele>-5.195</ele>
  <time>2026-09-02T22:13:22Z</time>
  <course>186.96</course>
  <speed>0.4687216658103186</speed>
  <fix>3d</fix>
</trkpt>
<trkpt lat="33.8100729" lon="-118.3939121">
  <ele>-5.14</ele>
  <time>2026-09-02T22:13:22Z</time>
  <course>188.89</course>
  <speed>0.5</speed>
  <fix>3d</fix>
</trkpt>
<trkpt lat="33.8100717" lon="-118.3939125">
  <ele>-5.169</ele>
  <time>2026-09-02T22:13:22Z</time>
  <course>186.96</course>
  <speed>0.47853944456021597</speed>
  <fix>3d</fix>
</trkpt>
<trkpt lat="33.8100721" lon="-118.3939122">
  <ele>-5.09</ele>
  <time>2026-09-02T22:13:22Z</time>
  <course>188.9</course>
  <speed>0.49</speed>
  <fix>3d</fix>
</trkpt>
<trkpt lat="33.8100713" lon="-118.3939125">
  <ele>-5.144</ele>
  <time>2026-09-02T22:13:22Z</time>
  <course>186.96</course>
  <speed>0.4687216658103186</speed>
  <fix>3d</fix>
</trkpt>
<trkpt lat="33.8100721" lon="-118.3939122">
  <ele>-5.09</ele>
  <time>2026-09-02T22:13:22Z</time>
  <course>188.9</course>
  <speed>0.49</speed>
  <fix>3d</fix>
</trkpt>
<trkpt lat="33.8100708" lon="-118.3939126">
  <ele>-5.119</ele>
  <time>2026-09-02T22:13:22Z</time>
  <course>186.96</course>
  <speed>0.47853944456021597</speed>
  <fix>3d</fix>
</trkpt>
<trkpt lat="33.8100712" lon="-118.3939124">
  <ele>-5.04</ele>
  <time>2026-09-02T22:13:22Z</time>
  <course>188.9</course>
  <speed>0.49</speed>
  <fix>3d</fix>
</trkpt>
<trkpt lat="33.8100704" lon="-118.3939127">
  <ele>-5.094</ele>
  <time>2026-09-02T22:13:22Z</time>
  <course>186.96</course>
  <speed>0.47853944456021597</speed>
  <fix>3d</fix>
</trkpt>
<trkpt lat="33.8100712" lon="-118.3939124">
  <ele>-5.04</ele>
  <time>2026-09-02T22:13:22Z</time>
  <course>188.9</course>
  <speed>0.49</speed>
  <fix>3d</fix>
</trkpt>
<trkpt lat="33.8100699" lon="-118.3939128">
  <ele>-5.068</ele>
  <time>2026-09-02T22:13:22Z</time>
  <course>186.96</course>
  <speed>0.47853944456021597</speed>
  <fix>3d</fix>
</trkpt>
<trkpt lat="33.8100703" lon="-118.3939126">
  <ele>-5.0</ele>
  <time>2026-09-02T22:13:22Z</time>
  <course>188.9</course>
  <speed>0.5</speed>
  <fix>3d</fix>
</trkpt>
<trkpt lat="33.8100695" lon="-118.3939129">
  <ele>-5.043</ele>
  <time>2026-09-02T22:13:22Z</time>
  <course>186.96</course>
  <speed>0.47853944456021597</speed>
  <fix>3d</fix>
</trkpt>
<trkpt lat="33.8100703" lon="-118.3939126">
  <ele>-5.0</ele>
  <time>2026-09-02T22:13:22Z</time>
  <course>188.9</course>
  <speed>0.5</speed>
  <fix>3d</fix>
</trkpt>
<trkpt lat="33.8100691" lon="-118.393913">
  <ele>-5.02</ele>
  <time>2026-09-02T22:13:22Z</time>
  <course>186.96</course>
  <speed>0.47853944456021597</speed>
  <fix>3d</fix>
</trkpt>
<trkpt lat="33.8100694" lon="-118.3939128">
  <ele>-4.95</ele>
  <time>2026-09-02T22:13:22Z</time>
  <course>188.86</course>
  <speed>0.5</speed>
  <fix>3d</fix>
</trkpt>
<trkpt lat="33.8100686" lon="-118.393913">
  <ele>-4.997</ele>
  <time>2026-09-02T22:13:22Z</time>
  <course>186.96</course>
  <speed>0.47853944456021597</speed>
  <fix>3d</fix>
</trkpt>
<trkpt lat="33.8100694" lon="-118.3939128">
  <ele>-4.95</ele>
  <time>2026-09-02T22:13:22Z</time>
  <course>188.86</course>
  <speed>0.5</speed>
  <fix>3d</fix>
</trkpt>
<trkpt lat="33.8100682" lon="-118.3939131">
  <ele>-4.974</ele>
  <time>2026-09-02T22:13:22Z</time>
  <course>186.96</course>
  <speed>0.47853944456021597</speed>
  <fix>3d</fix>
</trkpt>
<trkpt lat="33.8100685" lon="-118.3939129">
  <ele>-4.91</ele>
  <time>2026-09-02T22:13:22Z</time>
  <course>188.77</course>
  <speed>0.5</speed>
  <fix>3d</fix>
</trkpt>
<trkpt lat="33.8100677" lon="-118.3939132">
  <ele>-4.953</ele>
  <time>2026-09-02T22:13:22Z</time>
  <course>186.96</course>
  <speed>0.47853944456021597</speed>
  <fix>3d</fix>
</trkpt>
<trkpt lat="33.8100685" lon="-118.3939129">
  <ele>-4.91</ele>
  <time>2026-09-02T22:13:22Z</time>
  <course>188.77</course>
  <speed>0.5</speed>
  <fix>3d</fix>
</trkpt>
<trkpt lat="33.8100673" lon="-118.3939133">
  <ele>-4.933</ele>
  <time>2026-09-02T22:13:22Z</time>
  <course>186.96</course>
  <speed>0.47853944456021597</speed>
  <fix>3d</fix>
</trkpt>
<trkpt lat="33.8100676" lon="-118.3939131">
  <ele>-4.87</ele>
  <time>2026-09-02T22:13:22Z</time>
  <course>188.69</course>
  <speed>0.5</speed>
  <fix>3d</fix>
</trkpt>
<trkpt lat="33.8100668" lon="-118.3939134">
  <ele>-4.914</ele>
  <time>2026-09-02T22:13:22Z</time>
  <course>186.96</course>
  <speed>0.47853944456021597</speed>
  <fix>3d</fix>
</trkpt>
<trkpt lat="33.8100676" lon="-118.3939131">
  <ele>-4.87</ele>
  <time>2026-09-02T22:13:22Z</time>
  <course>188.69</course>
  <speed>0.5</speed>
  <fix>3d</fix>
</trkpt>
<trkpt lat="33.8100664" lon="-118.3939135">
  <ele>-4.893</ele>
  <time>2026-09-02T22:13:22Z</time>
  <course>186.96</course>
  <speed>0.47853944456021597</speed>
  <fix>3d</fix>
</trkpt>
<trkpt lat="33.8100667" lon="-118.3939133">
  <ele>-4.83</ele>
  <time>2026-09-02T22:13:22Z</time>
  <course>188.67</course>
  <speed>0.5</speed>
  <fix>3d</fix>
</trkpt>
<trkpt lat="33.8100659" lon="-118.3939135">
  <ele>-4.873</ele>
  <time>2026-09-02T22:13:22Z</time>
  <course>186.96</course>
  <speed>0.47853944456021597</speed>
  <fix>3d</fix>
</trkpt>
<trkpt lat="33.8100667" lon="-118.3939133">
  <ele>-4.83</ele>
  <time>2026-09-02T22:13:22Z</time>
  <course>188.67</course>
  <speed>0.5</speed>
  <fix>3d</fix>
</trkpt>
<trkpt lat="33.8100655" lon="-118.3939136">
  <ele>-4.854</ele>
  <time>2026-09-02T22:13:22Z</time>
  <course>186.96</course>
  <speed>0.47853944456021597</speed>
  <fix>3d</fix>
</trkpt>
<trkpt lat="33.8100658" lon="-118.3939134">
  <ele>-4.79</ele>
  <time>2026-09-02T22:13:22Z</time>
  <course>188.64</course>
  <speed>0.5</speed>
  <fix>3d</fix>
</trkpt>
<trkpt lat="33.810065" lon="-118.3939137">
  <ele>-4.836</ele>
  <time>2026-09-02T22:13:22Z</time>
  <course>186.96</course>
  <speed>0.47853944456021597</speed>
  <fix>3d</fix>
</trkpt>
<trkpt lat="33.8100658" lon="-118.3939134">
  <ele>-4.79</ele>
  <time>2026-09-02T22:13:22Z</time>
  <course>188.64</course>
  <speed>0.5</speed>
  <fix>3d</fix>
</trkpt>
<trkpt lat="33.8100646" lon="-118.3939138">
  <ele>-4.818</ele>
  <time>2026-09-02T22:13:22Z</time>
  <course>186.96</course>
  <speed>0.47853944456021597</speed>
  <fix>3d</fix>
</trkpt>
<trkpt lat="33.8100649" lon="-118.3939136">
  <ele>-4.75</ele>
  <time>2026-09-02T22:13:22Z</time>
  <course>188.62</course>
  <speed>0.5</speed>
  <fix>3d</fix>
</trkpt>
<trkpt lat="33.8100642" lon="-118.3939139">
  <ele>-4.801</ele>
  <time>2026-09-02T22:13:22Z</time>
  <course>186.96</course>
  <speed>0.47853944456021597</speed>
  <fix>3d</fix>
</trkpt>
<trkpt lat="33.8100649" lon="-118.3939136">
  <ele>-4.75</ele>
  <time>2026-09-02T22:13:22Z</time>
  <course>188.62</course>
  <speed>0.5</speed>
  <fix>3d</fix>
</trkpt>
<trkpt lat="33.8100637" lon="-118.3939139">
  <ele>-4.784</ele>
  <time>2026-09-02T22:13:22Z</time>
  <course>186.96</course>
  <speed>0.47853944456021597</speed>
  <fix>3d</fix>
</trkpt>
<trkpt lat="33.810064" lon="-118.3939137">
  <ele>-4.72</ele>
  <time>2026-09-02T22:13:22Z</time>
  <course>188.65</course>
  <speed>0.5</speed>
  <fix>3d</fix>
</trkpt>
<trkpt lat="33.8100633" lon="-118.393914">
  <ele>-4.767</ele>
  <time>2026-09-02T22:13:22Z</time>
  <course>186.96</course>
  <speed>0.47853944456021597</speed>
  <fix>3d</fix>
</trkpt>
<trkpt lat="33.810064" lon="-118.3939137">
  <ele>-4.72</ele>
  <time>2026-09-02T22:13:22Z</time>
  <course>188.65</course>
  <speed>0.5</speed>
  <fix>3d</fix>
</trkpt>
<trkpt lat="33.8100628" lon="-118.3939141">
  <ele>-4.75</ele>
  <time>2026-09-02T22:13:22Z</time>
  <course>186.96</course>
  <speed>0.47853944456021597</speed>
  <fix>3d</fix>
</trkpt>
<trkpt lat="33.8100631" lon="-118.3939139">
  <ele>-4.68</ele>
  <time>2026-09-02T22:13:22Z</time>
  <course>188.7</course>
  <speed>0.5</speed>
  <fix>3d</fix>
</trkpt>
<trkpt lat="33.8100624" lon="-118.3939142">
  <ele>-4.732</ele>
  <time>2026-09-02T22:13:22Z</time>
  <course>186.96</course>
  <speed>0.47853944456021597</speed>
  <fix>3d</fix>
</trkpt>
<trkpt lat="33.8100631" lon="-118.3939139">
  <ele>-4.68</ele>
  <time>2026-09-02T22:13:22Z</time>
  <course>188.7</course>
  <speed>0.5</speed>
  <fix>3d</fix>
</trkpt>
<trkpt lat="33.8100619" lon="-118.3939143">
  <ele>-4.715</ele>
  <time>2026-09-02T22:13:22Z</time>
  <course>186.96</course>
  <speed>0.47853944456021597</speed>
  <fix>3d</fix>
</trkpt>
<trkpt lat="33.8100622" lon="-118.3939141">
  <ele>-4.65</ele>
  <time>2026-09-02T22:13:22Z</time>
  <course>188.79</course>
  <speed>0.5</speed>
  <fix>3d</fix>
</trkpt>
<trkpt lat="33.8100615" lon="-118.3939144">
  <ele>-4.697</ele>
  <time>2026-09-02T22:13:22Z</time>
  <course>186.96</course>
  <speed>0.4687216658103186</speed>
  <fix>3d</fix>
</trkpt>
<trkpt lat="33.8100622" lon="-118.3939141">
  <ele>-4.65</ele>
  <time>2026-09-02T22:13:22Z</time>
  <course>188.79</course>
  <speed>0.5</speed>
  <fix>3d</fix>
</trkpt>
<trkpt lat="33.810061" lon="-118.3939144">
  <ele>-4.68</ele>
  <time>2026-09-02T22:13:22Z</time>
  <course>186.96</course>
  <speed>0.4687216658103186</speed>
  <fix>3d</fix>
</trkpt>
<trkpt lat="33.8100613" lon="-118.3939142">
  <ele>-4.62</ele>
  <time>2026-09-02T22:13:22Z</time>
  <course>188.84</course>
  <speed>0.49</speed>
  <fix>3d</fix>
</trkpt>
<trkpt lat="33.8100606" lon="-118.3939145">
  <ele>-4.662</ele>
  <time>2026-09-02T22:13:22Z</time>
  <course>186.96</course>
  <speed>0.4687216658103186</speed>
  <fix>3d</fix>
</trkpt>
<trkpt lat="33.8100613" lon="-118.3939142">
  <ele>-4.62</ele>
  <time>2026-09-02T22:13:22Z</time>
  <course>188.84</course>
  <speed>0.49</speed>
  <fix>3d</fix>
</trkpt>
<trkpt lat="33.8100601" lon="-118.3939146">
  <ele>-4.644</ele>
  <time>2026-09-02T22:13:22Z</time>
  <course>186.96</course>
  <speed>0.4687216658103186</speed>
  <fix>3d</fix>
</trkpt>
<trkpt lat="33.8100605" lon="-118.3939144">
  <ele>-4.58</ele>
  <time>2026-09-02T22:13:22Z</time>
  <course>188.87</course>
  <speed>0.49</speed>
  <fix>3d</fix>
</trkpt>
<trkpt lat="33.8100597" lon="-118.3939147">
  <ele>-4.623</ele>
  <time>2026-09-02T22:13:22Z</time>
  <course>186.96</course>
  <speed>0.4687216658103186</speed>
  <fix>3d</fix>
</trkpt>
<trkpt lat="33.8100605" lon="-118.3939144">
  <ele>-4.58</ele>
  <time>2026-09-02T22:13:22Z</time>
  <course>188.87</course>
  <speed>0.49</speed>
  <fix>3d</fix>
</trkpt>
<trkpt lat="33.8100593" lon="-118.3939148">
  <ele>-4.603</ele>
  <time>2026-09-02T22:13:22Z</time>
  <course>186.96</course>
  <speed>0.4687216658103186</speed>
  <fix>3d</fix>
</trkpt>
<trkpt lat="33.8100596" lon="-118.3939145">
  <ele>-4.55</ele>
  <time>2026-09-02T22:13:22Z</time>
  <course>188.9</course>
  <speed>0.49</speed>
  <fix>3d</fix>
</trkpt>
<trkpt lat="33.8100588" lon="-118.3939148">
  <ele>-4.583</ele>
  <time>2026-09-02T22:13:22Z</time>
  <course>186.96</course>
  <speed>0.4687216658103186</speed>
  <fix>3d</fix>
</trkpt>
<trkpt lat="33.8100596" lon="-118.3939145">
  <ele>-4.55</ele>
  <time>2026-09-02T22:13:22Z</time>
  <course>188.9</course>
  <speed>0.49</speed>
  <fix>3d</fix>
</trkpt>
<trkpt lat="33.8100584" lon="-118.3939149">
  <ele>-4.563</ele>
  <time>2026-09-02T22:13:22Z</time>
  <course>186.96</course>
  <speed>0.47853944456021597</speed>
  <fix>3d</fix>
</trkpt>
<trkpt lat="33.8100587" lon="-118.3939147">
  <ele>-4.51</ele>
  <time>2026-09-02T22:13:22Z</time>
  <course>188.94</course>
  <speed>0.49</speed>
  <fix>3d</fix>
</trkpt>
<trkpt lat="33.8100579" lon="-118.393915">
  <ele>-4.544</ele>
  <time>2026-09-02T22:13:22Z</time>
  <course>186.96</course>
  <speed>0.47853944456021597</speed>
  <fix>3d</fix>
</trkpt>
<trkpt lat="33.8100587" lon="-118.3939147">
  <ele>-4.51</ele>
  <time>2026-09-02T22:13:22Z</time>
  <course>188.94</course>
  <speed>0.49</speed>
  <fix>3d</fix>
</trkpt>
<trkpt lat="33.8100575" lon="-118.3939151">
  <ele>-4.524</ele>
  <time>2026-09-02T22:13:22Z</time>
  <course>186.96</course>
  <speed>0.47853944456021597</speed>
  <fix>3d</fix>
</trkpt>
<trkpt lat="33.8100578" lon="-118.3939149">
  <ele>-4.47</ele>
  <time>2026-09-02T22:13:22Z</time>
  <course>188.99</course>
  <speed>0.5</speed>
  <fix>3d</fix>
</trkpt>
<trkpt lat="33.8100571" lon="-118.3939152">
  <ele>-4.502</ele>
  <time>2026-09-02T22:13:22Z</time>
  <course>186.96</course>
  <speed>0.47853944456021597</speed>
  <fix>3d</fix>
</trkpt>
<trkpt lat="33.8100578" lon="-118.3939149">
  <ele>-4.47</ele>
  <time>2026-09-02T22:13:22Z</time>
  <course>188.99</course>
  <speed>0.5</speed>
  <fix>3d</fix>
</trkpt>
<trkpt lat="33.8100566" lon="-118.3939153">
  <ele>-4.48</ele>
  <time>2026-09-02T22:13:22Z</time>
  <course>186.96</course>
  <speed>0.47853944456021597</speed>
  <fix>3d</fix>
</trkpt>
<trkpt lat="33.8100569" lon="-118.393915">
  <ele>-4.43</ele>
  <time>2026-09-02T22:13:22Z</time>
  <course>189.02</course>
  <speed>0.5</speed>
  <fix>3d</fix>
</trkpt>
<trkpt lat="33.8100562" lon="-118.3939153">
  <ele>-4.457</ele>
  <time>2026-09-02T22:13:23Z</time>
  <course>186.96</course>
  <speed>0.47853944456021597</speed>
  <fix>3d</fix>
</trkpt>
<trkpt lat="33.8100569" lon="-118.393915">
  <ele>-4.43</ele>
  <time>2026-09-02T22:13:23Z</time>
  <course>189.02</course>
  <speed>0.5</speed>
  <fix>3d</fix>
</trkpt>
<trkpt lat="33.8100557" lon="-118.3939154">
  <ele>-4.432</ele>
  <time>2026-09-02T22:13:23Z</time>
  <course>186.96</course>
  <speed>0.47853944456021597</speed>
  <fix>3d</fix>
</trkpt>
<trkpt lat="33.810056" lon="-118.3939152">
  <ele>-4.38</ele>
  <time>2026-09-02T22:13:23Z</time>
  <course>189.04</course>
  <speed>0.5</speed>
  <fix>3d</fix>
</trkpt>
<trkpt lat="33.8100553" lon="-118.3939155">
  <ele>-4.407</ele>
  <time>2026-09-02T22:13:23Z</time>
  <course>186.96</course>
  <speed>0.4687216658103186</speed>
  <fix>3d</fix>
</trkpt>
<trkpt lat="33.810056" lon="-118.3939152">
  <ele>-4.38</ele>
  <time>2026-09-02T22:13:23Z</time>
  <course>189.04</course>
  <speed>0.5</speed>
  <fix>3d</fix>
</trkpt>
<trkpt lat="33.8100548" lon="-118.3939156">
  <ele>-4.381</ele>
  <time>2026-09-02T22:13:23Z</time>
  <course>186.96</course>
  <speed>0.47853944456021597</speed>
  <fix>3d</fix>
</trkpt>
<trkpt lat="33.8100551" lon="-118.3939154">
  <ele>-4.33</ele>
  <time>2026-09-02T22:13:23Z</time>
  <course>189.08</course>
  <speed>0.5</speed>
  <fix>3d</fix>
</trkpt>
<trkpt lat="33.8100544" lon="-118.3939157">
  <ele>-4.356</ele>
  <time>2026-09-02T22:13:23Z</time>
  <course>186.96</course>
  <speed>0.4687216658103186</speed>
  <fix>3d</fix>
</trkpt>
<trkpt lat="33.8100551" lon="-118.3939154">
  <ele>-4.33</ele>
  <time>2026-09-02T22:13:23Z</time>
  <course>189.08</course>
  <speed>0.5</speed>
  <fix>3d</fix>
</trkpt>
<trkpt lat="33.8100539" lon="-118.3939158">
  <ele>-4.332</ele>
  <time>2026-09-02T22:13:23Z</time>
  <course>186.96</course>
  <speed>0.4687216658103186</speed>
  <fix>3d</fix>
</trkpt>
<trkpt lat="33.8100543" lon="-118.3939155">
  <ele>-4.28</ele>
  <time>2026-09-02T22:13:23Z</time>
  <course>189.09</course>
  <speed>0.5</speed>
  <fix>3d</fix>
</trkpt>
<trkpt lat="33.8100535" lon="-118.3939158">
  <ele>-4.306</ele>
  <time>2026-09-02T22:13:23Z</time>
  <course>186.96</course>
  <speed>0.4687216658103186</speed>
  <fix>3d</fix>
</trkpt>
<trkpt lat="33.8100543" lon="-118.3939155">
  <ele>-4.28</ele>
  <time>2026-09-02T22:13:23Z</time>
  <course>189.09</course>
  <speed>0.5</speed>
  <fix>3d</fix>
</trkpt>
<trkpt lat="33.8100531" lon="-118.3939159">
  <ele>-4.281</ele>
  <time>2026-09-02T22:13:23Z</time>
  <course>186.96</course>
  <speed>0.47853944456021597</speed>
  <fix>3d</fix>
</trkpt>
<trkpt lat="33.8100534" lon="-118.3939158">
  <ele>-4.23</ele>
  <time>2026-09-02T22:13:23Z</time>
  <course>189.08</course>
  <speed>0.5</speed>
  <fix>3d</fix>
</trkpt>
<trkpt lat="33.8100526" lon="-118.393916">
  <ele>-4.257</ele>
  <time>2026-09-02T22:13:23Z</time>
  <course>186.96</course>
  <speed>0.47853944456021597</speed>
  <fix>3d</fix>
</trkpt>
<trkpt lat="33.8100534" lon="-118.3939158">
  <ele>-4.23</ele>
  <time>2026-09-02T22:13:23Z</time>
  <course>189.08</course>
  <speed>0.5</speed>
  <fix>3d</fix>
</trkpt>
<trkpt lat="33.8100522" lon="-118.3939161">
  <ele>-4.234</ele>
  <time>2026-09-02T22:13:23Z</time>
  <course>186.96</course>
  <speed>0.47853944456021597</speed>
  <fix>3d</fix>
</trkpt>
<trkpt lat="33.8100525" lon="-118.3939159">
  <ele>-4.18</ele>
  <time>2026-09-02T22:13:23Z</time>
  <course>189.03</course>
  <speed>0.5</speed>
  <fix>3d</fix>
</trkpt>
<trkpt lat="33.8100517" lon="-118.3939162">
  <ele>-4.213</ele>
  <time>2026-09-02T22:13:23Z</time>
  <course>186.96</course>
  <speed>0.47853944456021597</speed>
  <fix>3d</fix>
</trkpt>
<trkpt lat="33.8100525" lon="-118.3939159">
  <ele>-4.18</ele>
  <time>2026-09-02T22:13:23Z</time>
  <course>189.03</course>
  <speed>0.5</speed>
  <fix>3d</fix>
</trkpt>
<trkpt lat="33.8100513" lon="-118.3939163">
  <ele>-4.193</ele>
  <time>2026-09-02T22:13:23Z</time>
  <course>186.95</course>
  <speed>0.47853944456021597</speed>
  <fix>3d</fix>
</trkpt>
<trkpt lat="33.8100516" lon="-118.393916">
  <ele>-4.14</ele>
  <time>2026-09-02T22:13:23Z</time>
  <course>188.91</course>
  <speed>0.5</speed>
  <fix>3d</fix>
</trkpt>
<trkpt lat="33.8100508" lon="-118.3939163">
  <ele>-4.176</ele>
  <time>2026-09-02T22:13:23Z</time>
  <course>186.95</course>
  <speed>0.47853944456021597</speed>
  <fix>3d</fix>
</trkpt>
<trkpt lat="33.8100516" lon="-118.393916">
  <ele>-4.14</ele>
  <time>2026-09-02T22:13:23Z</time>
  <course>188.91</course>
  <speed>0.5</speed>
  <fix>3d</fix>
</trkpt>
<trkpt lat="33.8100504" lon="-118.3939164">
  <ele>-4.161</ele>
  <time>2026-09-02T22:13:23Z</time>
  <course>186.96</course>
  <speed>0.47853944456021597</speed>
  <fix>3d</fix>
</trkpt>
<trkpt lat="33.8100507" lon="-118.3939163">
  <ele>-4.11</ele>
  <time>2026-09-02T22:13:23Z</time>
  <course>188.87</course>
  <speed>0.5</speed>
  <fix>3d</fix>
</trkpt>
<trkpt lat="33.81005" lon="-118.3939165">
  <ele>-4.147</ele>
  <time>2026-09-02T22:13:23Z</time>
  <course>186.96</course>
  <speed>0.47853944456021597</speed>
  <fix>3d</fix>
</trkpt>
<trkpt lat="33.8100507" lon="-118.3939163">
  <ele>-4.11</ele>
  <time>2026-09-02T22:13:23Z</time>
  <course>188.87</course>
  <speed>0.5</speed>
  <fix>3d</fix>
</trkpt>
<trkpt lat="33.8100495" lon="-118.3939166">
  <ele>-4.134</ele>
  <time>2026-09-02T22:13:23Z</time>
  <course>186.96</course>
  <speed>0.47853944456021597</speed>
  <fix>3d</fix>
</trkpt>
<trkpt lat="33.8100498" lon="-118.3939164">
  <ele>-4.07</ele>
  <time>2026-09-02T22:13:23Z</time>
  <course>188.86</course>
  <speed>0.5</speed>
  <fix>3d</fix>
</trkpt>
<trkpt lat="33.8100491" lon="-118.3939167">
  <ele>-4.122</ele>
  <time>2026-09-02T22:13:23Z</time>
  <course>186.96</course>
  <speed>0.4687216658103186</speed>
  <fix>3d</fix>
</trkpt>
<trkpt lat="33.8100498" lon="-118.3939164">
  <ele>-4.07</ele>
  <time>2026-09-02T22:13:23Z</time>
  <course>188.86</course>
  <speed>0.5</speed>
  <fix>3d</fix>
</trkpt>
<trkpt lat="33.8100486" lon="-118.3939168">
  <ele>-4.11</ele>
  <time>2026-09-02T22:13:23Z</time>
  <course>186.96</course>
  <speed>0.47853944456021597</speed>
  <fix>3d</fix>
</trkpt>
<trkpt lat="33.8100489" lon="-118.3939165">
  <ele>-4.05</ele>
  <time>2026-09-02T22:13:23Z</time>
  <course>188.8</course>
  <speed>0.5</speed>
  <fix>3d</fix>
</trkpt>
<trkpt lat="33.8100482" lon="-118.3939168">
  <ele>-4.099</ele>
  <time>2026-09-02T22:13:23Z</time>
  <course>186.96</course>
  <speed>0.4687216658103186</speed>
  <fix>3d</fix>
</trkpt>
<trkpt lat="33.8100489" lon="-118.3939165">
  <ele>-4.05</ele>
  <time>2026-09-02T22:13:23Z</time>
  <course>188.8</course>
  <speed>0.5</speed>
  <fix>3d</fix>
</trkpt>
<trkpt lat="33.8100477" lon="-118.3939169">
  <ele>-4.089</ele>
  <time>2026-09-02T22:13:23Z</time>
  <course>186.96</course>
  <speed>0.47853944456021597</speed>
  <fix>3d</fix>
</trkpt>
<trkpt lat="33.810048" lon="-118.3939168">
  <ele>-4.02</ele>
  <time>2026-09-02T22:13:23Z</time>
  <course>188.8</course>
  <speed>0.5</speed>
  <fix>3d</fix>
</trkpt>
<trkpt lat="33.8100473" lon="-118.393917">
  <ele>-4.079</ele>
  <time>2026-09-02T22:13:23Z</time>
  <course>186.96</course>
  <speed>0.4687216658103186</speed>
  <fix>3d</fix>
</trkpt>
<trkpt lat="33.810048" lon="-118.3939168">
  <ele>-4.02</ele>
  <time>2026-09-02T22:13:23Z</time>
  <course>188.8</course>
  <speed>0.5</speed>
  <fix>3d</fix>
</trkpt>
<trkpt lat="33.8100468" lon="-118.3939171">
  <ele>-4.065</ele>
  <time>2026-09-02T22:13:23Z</time>
  <course>186.96</course>
  <speed>0.4687216658103186</speed>
  <fix>3d</fix>
</trkpt>
<trkpt lat="33.8100471" lon="-118.3939169">
  <ele>-4.0</ele>
  <time>2026-09-02T22:13:23Z</time>
  <course>188.83</course>
  <speed>0.49</speed>
  <fix>3d</fix>
</trkpt>
<trkpt lat="33.8100464" lon="-118.3939172">
  <ele>-4.048</ele>
  <time>2026-09-02T22:13:23Z</time>
  <course>186.96</course>
  <speed>0.4687216658103186</speed>
  <fix>3d</fix>
</trkpt>
<trkpt lat="33.8100471" lon="-118.3939169">
  <ele>-4.0</ele>
  <time>2026-09-02T22:13:23Z</time>
  <course>188.83</course>
  <speed>0.49</speed>
  <fix>3d</fix>
</trkpt>
<trkpt lat="33.8100459" lon="-118.3939173">
  <ele>-4.03</ele>
  <time>2026-09-02T22:13:23Z</time>
  <course>186.96</course>
  <speed>0.4687216658103186</speed>
  <fix>3d</fix>
</trkpt>
<trkpt lat="33.8100462" lon="-118.393917">
  <ele>-3.97</ele>
  <time>2026-09-02T22:13:23Z</time>
  <course>188.8</course>
  <speed>0.49</speed>
  <fix>3d</fix>
</trkpt>
<trkpt lat="33.8100457" lon="-118.3939173">
  <ele>-4.018</ele>
  <time>2026-09-02T22:13:23Z</time>
  <course>186.96</course>
  <speed>0.4687216658103186</speed>
  <fix>3d</fix>
</trkpt>
<trkpt lat="33.8100455" lon="-118.3939173">
  <ele>-4.011</ele>
  <time>2026-09-02T22:13:23Z</time>
  <course>186.96</course>
  <speed>0.4687216658103186</speed>
  <fix>3d</fix>
</trkpt>
<trkpt lat="33.8100462" lon="-118.393917">
  <ele>-3.97</ele>
  <time>2026-09-02T22:13:23Z</time>
  <course>188.8</course>
  <speed>0.49</speed>
  <fix>3d</fix>
</trkpt>
<trkpt lat="33.8100451" lon="-118.3939174">
  <ele>-3.994</ele>
  <time>2026-09-02T22:13:23Z</time>
  <course>186.95</course>
  <speed>0.388329756778952</speed>
  <fix>3d</fix>
</trkpt>
<trkpt lat="33.8100454" lon="-118.3939173">
  <ele>-3.94</ele>
  <time>2026-09-02T22:13:23Z</time>
  <course>188.88</course>
  <speed>0.48</speed>
  <fix>3d</fix>
</trkpt>
<trkpt lat="33.8100448" lon="-118.3939175">
  <ele>-3.978</ele>
  <time>2026-09-02T22:13:23Z</time>
  <course>186.94</course>
  <speed>0.3178049716414141</speed>
  <fix>3d</fix>
</trkpt>
<trkpt lat="33.8100454" lon="-118.3939173">
  <ele>-3.94</ele>
  <time>2026-09-02T22:13:23Z</time>
  <course>188.88</course>
  <speed>0.48</speed>
  <fix>3d</fix>
</trkpt>
<trkpt lat="33.8100445" lon="-118.3939175">
  <ele>-3.963</ele>
  <time>2026-09-02T22:13:23Z</time>
  <course>186.92</course>
  <speed>0.2668332812825267</speed>
  <fix>3d</fix>
</trkpt>
<trkpt lat="33.8100446" lon="-118.3939174">
  <ele>-3.9</ele>
  <time>2026-09-02T22:13:23Z</time>
  <course>189.36</course>
  <speed>0.39</speed>
  <fix>3d</fix>
</trkpt>
<trkpt lat="33.8100442" lon="-118.3939176">
  <ele>-3.948</ele>
  <time>2026-09-02T22:13:23Z</time>
  <course>186.91</course>
  <speed>0.23769728648009425</speed>
  <fix>3d</fix>
</trkpt>
<trkpt lat="33.8100446" lon="-118.3939174">
  <ele>-3.9</ele>
  <time>2026-09-02T22:13:23Z</time>
  <course>189.36</course>
  <speed>0.39</speed>
  <fix>3d</fix>
</trkpt>
<trkpt lat="33.810044" lon="-118.3939177">
  <ele>-3.934</ele>
  <time>2026-09-02T22:13:23Z</time>
  <course>186.9</course>
  <speed>0.20615528128088303</speed>
  <fix>3d</fix>
</trkpt>
<trkpt lat="33.810044" lon="-118.3939175">
  <ele>-3.87</ele>
  <time>2026-09-02T22:13:23Z</time>
  <course>190.26</course>
  <speed>0.28</speed>
  <fix>3d</fix>
</trkpt>
<trkpt lat="33.8100438" lon="-118.3939177">
  <ele>-3.92</ele>
  <time>2026-09-02T22:13:23Z</time>
  <course>186.89</course>
  <speed>0.18681541692269404</speed>
  <fix>3d</fix>
</trkpt>
<trkpt lat="33.810044" lon="-118.3939175">
  <ele>-3.87</ele>
  <time>2026-09-02T22:13:23Z</time>
  <course>190.26</course>
  <speed>0.28</speed>
  <fix>3d</fix>
</trkpt>
<trkpt lat="33.8100436" lon="-118.3939178">
  <ele>-3.907</ele>
  <time>2026-09-02T22:13:23Z</time>
  <course>186.88</course>
  <speed>0.1676305461424021</speed>
  <fix>3d</fix>
</trkpt>
<trkpt lat="33.8100436" lon="-118.3939176">
  <ele>-3.85</ele>
  <time>2026-09-02T22:13:23Z</time>
  <course>191.11</course>
  <speed>0.22</speed>
  <fix>3d</fix>
</trkpt>
<trkpt lat="33.8100434" lon="-118.3939178">
  <ele>-3.895</ele>
  <time>2026-09-02T22:13:23Z</time>
  <course>186.88</course>
  <speed>0.15811388300841897</speed>
  <fix>3d</fix>
</trkpt>
<trkpt lat="33.8100436" lon="-118.3939176">
  <ele>-3.85</ele>
  <time>2026-09-02T22:13:23Z</time>
  <course>191.11</course>
  <speed>0.22</speed>
  <fix>3d</fix>
</trkpt>
<trkpt lat="33.8100433" lon="-118.3939178">
  <ele>-3.885</ele>
  <time>2026-09-02T22:13:23Z</time>
  <course>186.88</course>
  <speed>0.1392838827718412</speed>
  <fix>3d</fix>
</trkpt>
<trkpt lat="33.8100431" lon="-118.3939177">
  <ele>-3.82</ele>
  <time>2026-09-02T22:13:23Z</time>
  <course>191.92</course>
  <speed>0.18</speed>
  <fix>3d</fix>
</trkpt>
<trkpt lat="33.8100431" lon="-118.3939179">
  <ele>-3.873</ele>
  <time>2026-09-02T22:13:23Z</time>
  <course>186.88</course>
  <speed>0.1264911064067352</speed>
  <fix>3d</fix>
</trkpt>
<trkpt lat="33.8100431" lon="-118.3939177">
  <ele>-3.82</ele>
  <time>2026-09-02T22:13:23Z</time>
  <course>191.92</course>
  <speed>0.18</speed>
  <fix>3d</fix>
</trkpt>
<trkpt lat="33.810043" lon="-118.3939179">
  <ele>-3.862</ele>
  <time>2026-09-02T22:13:23Z</time>
  <course>186.87</course>
  <speed>0.11704699910719625</speed>
  <fix>3d</fix>
</trkpt>
<trkpt lat="33.8100429" lon="-118.3939178">
  <ele>-3.8</ele>
  <time>2026-09-02T22:13:23Z</time>
  <course>192.68</course>
  <speed>0.16</speed>
  <fix>3d</fix>
</trkpt>
<trkpt lat="33.8100429" lon="-118.393918">
  <ele>-3.85</ele>
  <time>2026-09-02T22:13:23Z</time>
  <course>186.87</course>
  <speed>0.11704699910719625</speed>
  <fix>3d</fix>
</trkpt>
<trkpt lat="33.8100429" lon="-118.3939178">
  <ele>-3.8</ele>
  <time>2026-09-02T22:13:23Z</time>
  <course>192.68</course>
  <speed>0.16</speed>
  <fix>3d</fix>
</trkpt>
<trkpt lat="33.8100427" lon="-118.393918">
  <ele>-3.84</ele>
  <time>2026-09-02T22:13:23Z</time>
  <course>186.87</course>
  <speed>0.10770329614269007</speed>
  <fix>3d</fix>
</trkpt>
<trkpt lat="33.8100426" lon="-118.3939179">
  <ele>-3.78</ele>
  <time>2026-09-02T22:13:23Z</time>
  <course>193.42</course>
  <speed>0.14</speed>
  <fix>3d</fix>
</trkpt>
<trkpt lat="33.8100426" lon="-118.393918">
  <ele>-3.83</ele>
  <time>2026-09-02T22:13:23Z</time>
  <course>186.87</course>
  <speed>0.09848857801796104</speed>
  <fix>3d</fix>
</trkpt>
<trkpt lat="33.8100426" lon="-118.3939179">
  <ele>-3.78</ele>
  <time>2026-09-02T22:13:23Z</time>
  <course>193.42</course>
  <speed>0.14</speed>
  <fix>3d</fix>
</trkpt>
<trkpt lat="33.8100425" lon="-118.3939181">
  <ele>-3.821</ele>
  <time>2026-09-02T22:13:23Z</time>
  <course>186.87</course>
  <speed>0.09848857801796104</speed>
  <fix>3d</fix>
</trkpt>
<trkpt lat="33.8100424" lon="-118.3939179">
  <ele>-3.75</ele>
  <time>2026-09-02T22:13:23Z</time>
  <course>194.13</course>
  <speed>0.12</speed>
  <fix>3d</fix>
</trkpt>
<trkpt lat="33.8100424" lon="-118.3939181">
  <ele>-3.812</ele>
  <time>2026-09-02T22:13:23Z</time>
  <course>186.87</course>
  <speed>0.08944271909999159</speed>
  <fix>3d</fix>
</trkpt>
<trkpt lat="33.8100424" lon="-118.3939179">
  <ele>-3.75</ele>
  <time>2026-09-02T22:13:23Z</time>
  <course>194.13</course>
  <speed>0.12</speed>
  <fix>3d</fix>
</trkpt>
<trkpt lat="33.8100423" lon="-118.3939181">
  <ele>-3.803</ele>
  <time>2026-09-02T22:13:23Z</time>
  <course>186.87</course>
  <speed>0.08944271909999159</speed>
  <fix>3d</fix>
</trkpt>
<trkpt lat="33.8100422" lon="-118.393918">
  <ele>-3.73</ele>
  <time>2026-09-02T22:13:23Z</time>
  <course>194.83</course>
  <speed>0.11</speed>
  <fix>3d</fix>
</trkpt>
<trkpt lat="33.8100422" lon="-118.3939182">
  <ele>-3.792</ele>
  <time>2026-09-02T22:13:23Z</time>
  <course>186.87</course>
  <speed>0.08062257748298549</speed>
  <fix>3d</fix>
</trkpt>
<trkpt lat="33.8100422" lon="-118.393918">
  <ele>-3.73</ele>
  <time>2026-09-02T22:13:23Z</time>
  <course>194.83</course>
  <speed>0.11</speed>
  <fix>3d</fix>
</trkpt>
<trkpt lat="33.8100421" lon="-118.3939182">
  <ele>-3.782</ele>
  <time>2026-09-02T22:13:23Z</time>
  <course>186.87</course>
  <speed>0.08062257748298549</speed>
  <fix>3d</fix>
</trkpt>
<trkpt lat="33.8100419" lon="-118.3939181">
  <ele>-3.71</ele>
  <time>2026-09-02T22:13:23Z</time>
  <course>195.49</course>
  <speed>0.1</speed>
  <fix>3d</fix>
</trkpt>
<trkpt lat="33.810042" lon="-118.3939182">
  <ele>-3.771</ele>
  <time>2026-09-02T22:13:23Z</time>
  <course>186.87</course>
  <speed>0.08062257748298549</speed>
  <fix>3d</fix>
</trkpt>
<trkpt lat="33.8100419" lon="-118.3939181">
  <ele>-3.71</ele>
  <time>2026-09-02T22:13:23Z</time>
  <course>195.49</course>
  <speed>0.1</speed>
  <fix>3d</fix>
</trkpt>
<trkpt lat="33.8100419" lon="-118.3939182">
  <ele>-3.761</ele>
  <time>2026-09-02T22:13:23Z</time>
  <course>186.86</course>
  <speed>0.07211102550927978</speed>
  <fix>3d</fix>
</trkpt>
<trkpt lat="33.8100418" lon="-118.3939181">
  <ele>-3.69</ele>
  <time>2026-09-02T22:13:23Z</time>
  <course>196.12</course>
  <speed>0.09</speed>
  <fix>3d</fix>
</trkpt>
<trkpt lat="33.8100419" lon="-118.3939183">
  <ele>-3.752</ele>
  <time>2026-09-02T22:13:23Z</time>
  <course>186.86</course>
  <speed>0.0670820393249937</speed>
  <fix>3d</fix>
</trkpt>
<trkpt lat="33.8100418" lon="-118.3939181">
  <ele>-3.69</ele>
  <time>2026-09-02T22:13:23Z</time>
  <course>196.12</course>
  <speed>0.09</speed>
  <fix>3d</fix>
</trkpt>
<trkpt lat="33.8100418" lon="-118.3939183">
  <ele>-3.742</ele>
  <time>2026-09-02T22:13:23Z</time>
  <course>186.86</course>
  <speed>0.0670820393249937</speed>
  <fix>3d</fix>
</trkpt>
<trkpt lat="33.8100417" lon="-118.3939182">
  <ele>-3.67</ele>
  <time>2026-09-02T22:13:23Z</time>
  <course>196.71</course>
  <speed>0.08</speed>
  <fix>3d</fix>
</trkpt>
<trkpt lat="33.8100417" lon="-118.3939183">
  <ele>-3.732</ele>
  <time>2026-09-02T22:13:23Z</time>
  <course>186.86</course>
  <speed>0.0670820393249937</speed>
  <fix>3d</fix>
</trkpt>
<trkpt lat="33.8100417" lon="-118.3939182">
  <ele>-3.67</ele>
  <time>2026-09-02T22:13:23Z</time>
  <course>196.71</course>
  <speed>0.08</speed>
  <fix>3d</fix>
</trkpt>
<trkpt lat="33.8100416" lon="-118.3939184">
  <ele>-3.723</ele>
  <time>2026-09-02T22:13:23Z</time>
  <course>186.86</course>
  <speed>0.05830951894845301</speed>
  <fix>3d</fix>
</trkpt>
<trkpt lat="33.8100415" lon="-118.3939182">
  <ele>-3.65</ele>
  <time>2026-09-02T22:13:23Z</time>
  <course>197.28</course>
  <speed>0.08</speed>
  <fix>3d</fix>
</trkpt>
<trkpt lat="33.8100416" lon="-118.3939184">
  <ele>-3.714</ele>
  <time>2026-09-02T22:13:23Z</time>
  <course>186.86</course>
  <speed>0.05830951894845301</speed>
  <fix>3d</fix>
</trkpt>
<trkpt lat="33.8100415" lon="-118.3939182">
  <ele>-3.65</ele>
  <time>2026-09-02T22:13:23Z</time>
  <course>197.28</course>
  <speed>0.08</speed>
  <fix>3d</fix>
</trkpt>
<trkpt lat="33.8100415" lon="-118.3939184">
  <ele>-3.704</ele>
  <time>2026-09-02T22:13:23Z</time>
  <course>186.86</course>
  <speed>0.05830951894845301</speed>
  <fix>3d</fix>
</trkpt>
<trkpt lat="33.8100414" lon="-118.3939183">
  <ele>-3.63</ele>
  <time>2026-09-02T22:13:23Z</time>
  <course>197.83</course>
  <speed>0.07</speed>
  <fix>3d</fix>
</trkpt>
<trkpt lat="33.8100414" lon="-118.3939184">
  <ele>-3.694</ele>
  <time>2026-09-02T22:13:23Z</time>
  <course>186.85</course>
  <speed>0.05830951894845301</speed>
  <fix>3d</fix>
</trkpt>
<trkpt lat="33.8100414" lon="-118.3939183">
  <ele>-3.63</ele>
  <time>2026-09-02T22:13:23Z</time>
  <course>197.83</course>
  <speed>0.07</speed>
  <fix>3d</fix>
</trkpt>
<trkpt lat="33.8100414" lon="-118.3939184">
  <ele>-3.684</ele>
  <time>2026-09-02T22:13:23Z</time>
  <course>186.85</course>
  <speed>0.05830951894845301</speed>
  <fix>3d</fix>
</trkpt>
<trkpt lat="33.8100412" lon="-118.3939183">
  <ele>-3.61</ele>
  <time>2026-09-02T22:13:23Z</time>
  <course>198.38</course>
  <speed>0.07</speed>
  <fix>3d</fix>
</trkpt>
<trkpt lat="33.8100413" lon="-118.3939185">
  <ele>-3.673</ele>
  <time>2026-09-02T22:13:23Z</time>
  <course>186.85</course>
  <speed>0.05</speed>
  <fix>3d</fix>
</trkpt>
<trkpt lat="33.8100412" lon="-118.3939183">
  <ele>-3.61</ele>
  <time>2026-09-02T22:13:23Z</time>
  <course>198.38</course>
  <speed>0.07</speed>
  <fix>3d</fix>
</trkpt>
</trkseg>
</trk>
</gpx>
